<?xml version="1.0" encoding="UTF-8"?>
<gpx
  version="1.0"
  creator="pymavlink"
  xmlns:xsi="http://www.w3.org/2001/XMLSchema-instance"
  xmlns="http://www.topografix.com/GPX/1/0"
  xsi:schemaLocation="http://www.topografix.com/GPX/1/0 http://www.topografix.com/GPX/1/0/gpx.xsd">
<trk>
<trkseg>
<trkpt lat="39.654938" lon="-104.1331666">
  <ele>1569.54</ele>
  <time>2026-08-28T19:06:19Z</time>
  <course>168.11</course>
  <speed>0.0</speed>
  <fix>3d</fix>
</trkpt>
<trkpt lat="40.072842" lon="-105.230575">
  <ele>1586.09</ele>
  <time>2026-08-28T19:06:19Z</time>
  <course>2.1</course>
  <speed>0.0</speed>
  <fix>3d</fix>
</trkpt>
<trkpt lat="40.072842" lon="-105.230575">
  <ele>1586.09</ele>
  <time>2026-08-28T19:06:19Z</time>
  <course>238.4</course>
  <speed>0.0</speed>
  <fix>3d</fix>
</trkpt>
<trkpt lat="40.072842" lon="-105.230575">
  <ele>1586.09</ele>
  <time>2026-08-28T19:06:19Z</time>
  <course>2.68</course>
  <speed>0.0</speed>
  <fix>3d</fix>
</trkpt>
<trkpt lat="40.072842" lon="-105.230575">
  <ele>1586.09</ele>
  <time>2026-08-28T19:06:19Z</time>
  <course>194.29</course>
  <speed>0.0</speed>
  <fix>3d</fix>
</trkpt>
<trkpt lat="40.072842" lon="-105.230575">
  <ele>1586.09</ele>
  <time>2026-08-28T19:06:19Z</time>
  <course>3.42</course>
  <speed>0.0</speed>
  <fix>3d</fix>
</trkpt>
<trkpt lat="40.072842" lon="-105.230575">
  <ele>1586.09</ele>
  <time>2026-08-28T19:06:19Z</time>
  <course>193.66</course>
  <speed>0.0</speed>
  <fix>3d</fix>
</trkpt>
<trkpt lat="40.072842" lon="-105.230575">
  <ele>1586.09</ele>
  <time>2026-08-28T19:06:19Z</time>
  <course>4.08</course>
  <speed>0.0</speed>
  <fix>3d</fix>
</trkpt>
<trkpt lat="40.072842" lon="-105.230575">
  <ele>1586.09</ele>
  <time>2026-08-28T19:06:19Z</time>
  <course>303.54</course>
  <speed>0.0</speed>
  <fix>3d</fix>
</trkpt>
<trkpt lat="40.072842" lon="-105.230575">
  <ele>1586.09</ele>
  <time>2026-08-28T19:06:19Z</time>
  <course>4.68</course>
  <speed>0.0</speed>
  <fix>3d</fix>
</trkpt>
<trkpt lat="40.072842" lon="-105.230575">
  <ele>1586.09</ele>
  <time>2026-08-28T19:06:19Z</time>
  <course>110.94</course>
  <speed>0.0</speed>
  <fix>3d</fix>
</trkpt>
<trkpt lat="40.072842" lon="-105.230575">
  <ele>1586.09</ele>
  <time>2026-08-28T19:06:19Z</time>
  <course>5.26</course>
  <speed>0.0</speed>
  <fix>3d</fix>
</trkpt>
<trkpt lat="40.072842" lon="-105.230575">
  <ele>1586.09</ele>
  <time>2026-08-28T19:06:19Z</time>
  <course>191.21</course>
  <speed>0.0</speed>
  <fix>3d</fix>
</trkpt>
<trkpt lat="40.072842" lon="-105.230575">
  <ele>1586.09</ele>
  <time>2026-08-28T19:06:19Z</time>
  <course>5.81</course>
  <speed>0.0</speed>
  <fix>3d</fix>
</trkpt>
<trkpt lat="40.072842" lon="-105.230575">
  <ele>1586.09</ele>
  <time>2026-08-28T19:06:19Z</time>
  <course>252.23</course>
  <speed>0.0</speed>
  <fix>3d</fix>
</trkpt>
<trkpt lat="40.072842" lon="-105.230575">
  <ele>1586.09</ele>
  <time>2026-08-28T19:06:19Z</time>
  <course>6.33</course>
  <speed>0.0</speed>
  <fix>3d</fix>
</trkpt>
<trkpt lat="40.072842" lon="-105.230575">
  <ele>1586.09</ele>
  <time>2026-08-28T19:06:19Z</time>
  <course>170.36</course>
  <speed>0.0</speed>
  <fix>3d</fix>
</trkpt>
<trkpt lat="40.072842" lon="-105.230575">
  <ele>1586.09</ele>
  <time>2026-08-28T19:06:19Z</time>
  <course>6.81</course>
  <speed>0.0</speed>
  <fix>3d</fix>
</trkpt>
<trkpt lat="40.072842" lon="-105.230575">
  <ele>1586.09</ele>
  <time>2026-08-28T19:06:19Z</time>
  <course>179.36</course>
  <speed>0.0</speed>
  <fix>3d</fix>
</trkpt>
<trkpt lat="40.072842" lon="-105.230575">
  <ele>1586.09</ele>
  <time>2026-08-28T19:06:19Z</time>
  <course>7.26</course>
  <speed>0.0</speed>
  <fix>3d</fix>
</trkpt>
<trkpt lat="40.072842" lon="-105.230575">
  <ele>1586.09</ele>
  <time>2026-08-28T19:06:19Z</time>
  <course>19.98</course>
  <speed>0.0</speed>
  <fix>3d</fix>
</trkpt>
<trkpt lat="40.072842" lon="-105.230575">
  <ele>1586.09</ele>
  <time>2026-08-28T19:06:19Z</time>
  <course>7.67</course>
  <speed>0.0</speed>
  <fix>3d</fix>
</trkpt>
<trkpt lat="40.072842" lon="-105.230575">
  <ele>1586.09</ele>
  <time>2026-08-28T19:06:19Z</time>
  <course>17.49</course>
  <speed>0.0</speed>
  <fix>3d</fix>
</trkpt>
<trkpt lat="40.072842" lon="-105.230575">
  <ele>1586.09</ele>
  <time>2026-08-28T19:06:19Z</time>
  <course>8.06</course>
  <speed>0.0</speed>
  <fix>3d</fix>
</trkpt>
<trkpt lat="40.072842" lon="-105.230575">
  <ele>1586.09</ele>
  <time>2026-08-28T19:06:19Z</time>
  <course>356.19</course>
  <speed>0.0</speed>
  <fix>3d</fix>
</trkpt>
<trkpt lat="40.072842" lon="-105.230575">
  <ele>1586.09</ele>
  <time>2026-08-28T19:06:19Z</time>
  <course>8.41</course>
  <speed>0.0</speed>
  <fix>3d</fix>
</trkpt>
<trkpt lat="40.072842" lon="-105.230575">
  <ele>1586.09</ele>
  <time>2026-08-28T19:06:19Z</time>
  <course>77.32</course>
  <speed>0.0</speed>
  <fix>3d</fix>
</trkpt>
<trkpt lat="40.072842" lon="-105.230575">
  <ele>1586.09</ele>
  <time>2026-08-28T19:06:19Z</time>
  <course>8.74</course>
  <speed>0.0</speed>
  <fix>3d</fix>
</trkpt>
<trkpt lat="40.072842" lon="-105.230575">
  <ele>1586.09</ele>
  <time>2026-08-28T19:06:19Z</time>
  <course>290.54</course>
  <speed>0.0</speed>
  <fix>3d</fix>
</trkpt>
<trkpt lat="40.072842" lon="-105.230575">
  <ele>1586.09</ele>
  <time>2026-08-28T19:06:19Z</time>
  <course>9.04</course>
  <speed>0.0</speed>
  <fix>3d</fix>
</trkpt>
<trkpt lat="40.072842" lon="-105.230575">
  <ele>1586.09</ele>
  <time>2026-08-28T19:06:19Z</time>
  <course>338.69</course>
  <speed>0.0</speed>
  <fix>3d</fix>
</trkpt>
<trkpt lat="40.072842" lon="-105.230575">
  <ele>1586.09</ele>
  <time>2026-08-28T19:06:19Z</time>
  <course>9.32</course>
  <speed>0.0</speed>
  <fix>3d</fix>
</trkpt>
<trkpt lat="40.072842" lon="-105.230575">
  <ele>1586.09</ele>
  <time>2026-08-28T19:06:19Z</time>
  <course>326.81</course>
  <speed>0.0</speed>
  <fix>3d</fix>
</trkpt>
<trkpt lat="40.072842" lon="-105.230575">
  <ele>1586.09</ele>
  <time>2026-08-28T19:06:19Z</time>
  <course>9.58</course>
  <speed>0.0</speed>
  <fix>3d</fix>
</trkpt>
<trkpt lat="40.072842" lon="-105.230575">
  <ele>1586.09</ele>
  <time>2026-08-28T19:06:19Z</time>
  <course>262.23</course>
  <speed>0.0</speed>
  <fix>3d</fix>
</trkpt>
<trkpt lat="40.072842" lon="-105.230575">
  <ele>1586.09</ele>
  <time>2026-08-28T19:06:19Z</time>
  <course>9.81</course>
  <speed>0.0</speed>
  <fix>3d</fix>
</trkpt>
<trkpt lat="40.072842" lon="-105.230575">
  <ele>1586.09</ele>
  <time>2026-08-28T19:06:19Z</time>
  <course>159.08</course>
  <speed>0.0</speed>
  <fix>3d</fix>
</trkpt>
<trkpt lat="40.072842" lon="-105.230575">
  <ele>1586.09</ele>
  <time>2026-08-28T19:06:19Z</time>
  <course>10.03</course>
  <speed>0.0</speed>
  <fix>3d</fix>
</trkpt>
<trkpt lat="40.072842" lon="-105.230575">
  <ele>1586.09</ele>
  <time>2026-08-28T19:06:19Z</time>
  <course>287.98</course>
  <speed>0.0</speed>
  <fix>3d</fix>
</trkpt>
<trkpt lat="40.072842" lon="-105.230575">
  <ele>1586.09</ele>
  <time>2026-08-28T19:06:19Z</time>
  <course>10.23</course>
  <speed>0.0</speed>
  <fix>3d</fix>
</trkpt>
<trkpt lat="40.072842" lon="-105.230575">
  <ele>1586.09</ele>
  <time>2026-08-28T19:06:19Z</time>
  <course>278.3</course>
  <speed>0.0</speed>
  <fix>3d</fix>
</trkpt>
<trkpt lat="40.072842" lon="-105.230575">
  <ele>1586.09</ele>
  <time>2026-08-28T19:06:19Z</time>
  <course>10.41</course>
  <speed>0.0</speed>
  <fix>3d</fix>
</trkpt>
<trkpt lat="40.072842" lon="-105.230575">
  <ele>1586.09</ele>
  <time>2026-08-28T19:06:19Z</time>
  <course>261.72</course>
  <speed>0.0</speed>
  <fix>3d</fix>
</trkpt>
<trkpt lat="40.072842" lon="-105.230575">
  <ele>1586.09</ele>
  <time>2026-08-28T19:06:19Z</time>
  <course>10.57</course>
  <speed>0.0</speed>
  <fix>3d</fix>
</trkpt>
<trkpt lat="40.072842" lon="-105.230575">
  <ele>1586.09</ele>
  <time>2026-08-28T19:06:19Z</time>
  <course>264.4</course>
  <speed>0.0</speed>
  <fix>3d</fix>
</trkpt>
<trkpt lat="40.072842" lon="-105.230575">
  <ele>1586.09</ele>
  <time>2026-08-28T19:06:19Z</time>
  <course>10.73</course>
  <speed>0.0</speed>
  <fix>3d</fix>
</trkpt>
<trkpt lat="40.072842" lon="-105.230575">
  <ele>1586.09</ele>
  <time>2026-08-28T19:06:19Z</time>
  <course>266.8</course>
  <speed>0.0</speed>
  <fix>3d</fix>
</trkpt>
<trkpt lat="40.072842" lon="-105.230575">
  <ele>1586.09</ele>
  <time>2026-08-28T19:06:19Z</time>
  <course>10.86</course>
  <speed>0.0</speed>
  <fix>3d</fix>
</trkpt>
<trkpt lat="40.072842" lon="-105.230575">
  <ele>1586.09</ele>
  <time>2026-08-28T19:06:19Z</time>
  <course>266.15</course>
  <speed>0.0</speed>
  <fix>3d</fix>
</trkpt>
<trkpt lat="40.072842" lon="-105.230575">
  <ele>1586.09</ele>
  <time>2026-08-28T19:06:19Z</time>
  <course>10.99</course>
  <speed>0.0</speed>
  <fix>3d</fix>
</trkpt>
<trkpt lat="40.072842" lon="-105.230575">
  <ele>1586.09</ele>
  <time>2026-08-28T19:06:19Z</time>
  <course>265.92</course>
  <speed>0.0</speed>
  <fix>3d</fix>
</trkpt>
<trkpt lat="40.072842" lon="-105.230575">
  <ele>1586.09</ele>
  <time>2026-08-28T19:06:19Z</time>
  <course>11.11</course>
  <speed>0.0</speed>
  <fix>3d</fix>
</trkpt>
<trkpt lat="40.072842" lon="-105.230575">
  <ele>1586.09</ele>
  <time>2026-08-28T19:06:19Z</time>
  <course>266.03</course>
  <speed>0.0</speed>
  <fix>3d</fix>
</trkpt>
<trkpt lat="40.072842" lon="-105.230575">
  <ele>1586.09</ele>
  <time>2026-08-28T19:06:19Z</time>
  <course>11.22</course>
  <speed>0.0</speed>
  <fix>3d</fix>
</trkpt>
<trkpt lat="40.072842" lon="-105.230575">
  <ele>1586.09</ele>
  <time>2026-08-28T19:06:19Z</time>
  <course>266.05</course>
  <speed>0.0</speed>
  <fix>3d</fix>
</trkpt>
<trkpt lat="40.072842" lon="-105.230575">
  <ele>1586.09</ele>
  <time>2026-08-28T19:06:19Z</time>
  <course>11.31</course>
  <speed>0.0</speed>
  <fix>3d</fix>
</trkpt>
<trkpt lat="40.072842" lon="-105.230575">
  <ele>1586.09</ele>
  <time>2026-08-28T19:06:19Z</time>
  <course>266.03</course>
  <speed>0.0</speed>
  <fix>3d</fix>
</trkpt>
<trkpt lat="40.072842" lon="-105.230575">
  <ele>1586.09</ele>
  <time>2026-08-28T19:06:19Z</time>
  <course>11.4</course>
  <speed>0.0</speed>
  <fix>3d</fix>
</trkpt>
<trkpt lat="40.072842" lon="-105.230575">
  <ele>1586.09</ele>
  <time>2026-08-28T19:06:19Z</time>
  <course>266.03</course>
  <speed>0.0</speed>
  <fix>3d</fix>
</trkpt>
<trkpt lat="40.072842" lon="-105.230575">
  <ele>1586.09</ele>
  <time>2026-08-28T19:06:19Z</time>
  <course>11.48</course>
  <speed>0.0</speed>
  <fix>3d</fix>
</trkpt>
<trkpt lat="40.072842" lon="-105.230575">
  <ele>1586.09</ele>
  <time>2026-08-28T19:06:19Z</time>
  <course>266.03</course>
  <speed>0.0</speed>
  <fix>3d</fix>
</trkpt>
<trkpt lat="40.072842" lon="-105.230575">
  <ele>1586.09</ele>
  <time>2026-08-28T19:06:19Z</time>
  <course>11.55</course>
  <speed>0.0</speed>
  <fix>3d</fix>
</trkpt>
<trkpt lat="40.072842" lon="-105.230575">
  <ele>1586.09</ele>
  <time>2026-08-28T19:06:19Z</time>
  <course>266.03</course>
  <speed>0.0</speed>
  <fix>3d</fix>
</trkpt>
<trkpt lat="40.072842" lon="-105.230575">
  <ele>1586.09</ele>
  <time>2026-08-28T19:06:19Z</time>
  <course>11.62</course>
  <speed>0.0</speed>
  <fix>3d</fix>
</trkpt>
<trkpt lat="40.072842" lon="-105.230575">
  <ele>1586.09</ele>
  <time>2026-08-28T19:06:19Z</time>
  <course>266.03</course>
  <speed>0.0</speed>
  <fix>3d</fix>
</trkpt>
<trkpt lat="40.072842" lon="-105.230575">
  <ele>1586.09</ele>
  <time>2026-08-28T19:06:19Z</time>
  <course>11.68</course>
  <speed>0.0</speed>
  <fix>3d</fix>
</trkpt>
<trkpt lat="40.072842" lon="-105.230575">
  <ele>1586.09</ele>
  <time>2026-08-28T19:06:19Z</time>
  <course>266.03</course>
  <speed>0.0</speed>
  <fix>3d</fix>
</trkpt>
<trkpt lat="40.072842" lon="-105.230575">
  <ele>1586.09</ele>
  <time>2026-08-28T19:06:19Z</time>
  <course>11.73</course>
  <speed>0.0</speed>
  <fix>3d</fix>
</trkpt>
<trkpt lat="40.072842" lon="-105.230575">
  <ele>1586.09</ele>
  <time>2026-08-28T19:06:19Z</time>
  <course>266.03</course>
  <speed>0.0</speed>
  <fix>3d</fix>
</trkpt>
<trkpt lat="40.072842" lon="-105.230575">
  <ele>1586.09</ele>
  <time>2026-08-28T19:06:19Z</time>
  <course>11.78</course>
  <speed>0.0</speed>
  <fix>3d</fix>
</trkpt>
<trkpt lat="40.072842" lon="-105.230575">
  <ele>1586.09</ele>
  <time>2026-08-28T19:06:19Z</time>
  <course>266.03</course>
  <speed>0.0</speed>
  <fix>3d</fix>
</trkpt>
<trkpt lat="40.072842" lon="-105.230575">
  <ele>1586.09</ele>
  <time>2026-08-28T19:06:19Z</time>
  <course>11.82</course>
  <speed>0.0</speed>
  <fix>3d</fix>
</trkpt>
<trkpt lat="40.072842" lon="-105.230575">
  <ele>1586.09</ele>
  <time>2026-08-28T19:06:19Z</time>
  <course>266.03</course>
  <speed>0.0</speed>
  <fix>3d</fix>
</trkpt>
<trkpt lat="40.072842" lon="-105.230575">
  <ele>1586.09</ele>
  <time>2026-08-28T19:06:19Z</time>
  <course>11.86</course>
  <speed>0.0</speed>
  <fix>3d</fix>
</trkpt>
<trkpt lat="40.072842" lon="-105.230575">
  <ele>1586.09</ele>
  <time>2026-08-28T19:06:19Z</time>
  <course>266.03</course>
  <speed>0.0</speed>
  <fix>3d</fix>
</trkpt>
<trkpt lat="40.072842" lon="-105.230575">
  <ele>1586.09</ele>
  <time>2026-08-28T19:06:19Z</time>
  <course>11.9</course>
  <speed>0.0</speed>
  <fix>3d</fix>
</trkpt>
<trkpt lat="40.072842" lon="-105.230575">
  <ele>1586.09</ele>
  <time>2026-08-28T19:06:19Z</time>
  <course>266.03</course>
  <speed>0.0</speed>
  <fix>3d</fix>
</trkpt>
<trkpt lat="40.072842" lon="-105.230575">
  <ele>1586.09</ele>
  <time>2026-08-28T19:06:19Z</time>
  <course>11.93</course>
  <speed>0.0</speed>
  <fix>3d</fix>
</trkpt>
<trkpt lat="40.072842" lon="-105.230575">
  <ele>1586.09</ele>
  <time>2026-08-28T19:06:19Z</time>
  <course>266.03</course>
  <speed>0.0</speed>
  <fix>3d</fix>
</trkpt>
<trkpt lat="40.072842" lon="-105.230575">
  <ele>1586.09</ele>
  <time>2026-08-28T19:06:19Z</time>
  <course>11.96</course>
  <speed>0.0</speed>
  <fix>3d</fix>
</trkpt>
<trkpt lat="40.072842" lon="-105.230575">
  <ele>1586.09</ele>
  <time>2026-08-28T19:06:19Z</time>
  <course>266.03</course>
  <speed>0.0</speed>
  <fix>3d</fix>
</trkpt>
<trkpt lat="40.072842" lon="-105.230575">
  <ele>1586.09</ele>
  <time>2026-08-28T19:06:19Z</time>
  <course>11.98</course>
  <speed>0.0</speed>
  <fix>3d</fix>
</trkpt>
<trkpt lat="40.072842" lon="-105.230575">
  <ele>1586.09</ele>
  <time>2026-08-28T19:06:19Z</time>
  <course>266.03</course>
  <speed>0.0</speed>
  <fix>3d</fix>
</trkpt>
<trkpt lat="40.072842" lon="-105.230575">
  <ele>1586.09</ele>
  <time>2026-08-28T19:06:19Z</time>
  <course>12.01</course>
  <speed>0.0</speed>
  <fix>3d</fix>
</trkpt>
<trkpt lat="40.072842" lon="-105.230575">
  <ele>1586.09</ele>
  <time>2026-08-28T19:06:19Z</time>
  <course>266.03</course>
  <speed>0.0</speed>
  <fix>3d</fix>
</trkpt>
<trkpt lat="40.072842" lon="-105.230575">
  <ele>1586.09</ele>
  <time>2026-08-28T19:06:19Z</time>
  <course>12.03</course>
  <speed>0.0</speed>
  <fix>3d</fix>
</trkpt>
<trkpt lat="40.072842" lon="-105.230575">
  <ele>1586.09</ele>
  <time>2026-08-28T19:06:19Z</time>
  <course>266.03</course>
  <speed>0.0</speed>
  <fix>3d</fix>
</trkpt>
<trkpt lat="40.072842" lon="-105.230575">
  <ele>1586.09</ele>
  <time>2026-08-28T19:06:19Z</time>
  <course>12.04</course>
  <speed>0.0</speed>
  <fix>3d</fix>
</trkpt>
<trkpt lat="40.072842" lon="-105.230575">
  <ele>1586.09</ele>
  <time>2026-08-28T19:06:19Z</time>
  <course>266.03</course>
  <speed>0.0</speed>
  <fix>3d</fix>
</trkpt>
<trkpt lat="40.072842" lon="-105.230575">
  <ele>1586.09</ele>
  <time>2026-08-28T19:06:19Z</time>
  <course>12.06</course>
  <speed>0.0</speed>
  <fix>3d</fix>
</trkpt>
<trkpt lat="40.072842" lon="-105.230575">
  <ele>1586.09</ele>
  <time>2026-08-28T19:06:19Z</time>
  <course>266.03</course>
  <speed>0.0</speed>
  <fix>3d</fix>
</trkpt>
<trkpt lat="40.072842" lon="-105.230575">
  <ele>1586.09</ele>
  <time>2026-08-28T19:06:19Z</time>
  <course>12.07</course>
  <speed>0.0</speed>
  <fix>3d</fix>
</trkpt>
<trkpt lat="40.072842" lon="-105.230575">
  <ele>1586.09</ele>
  <time>2026-08-28T19:06:19Z</time>
  <course>266.03</course>
  <speed>0.0</speed>
  <fix>3d</fix>
</trkpt>
<trkpt lat="40.072842" lon="-105.230575">
  <ele>1586.09</ele>
  <time>2026-08-28T19:06:19Z</time>
  <course>12.08</course>
  <speed>0.0</speed>
  <fix>3d</fix>
</trkpt>
<trkpt lat="40.072842" lon="-105.230575">
  <ele>1586.09</ele>
  <time>2026-08-28T19:06:19Z</time>
  <course>266.03</course>
  <speed>0.0</speed>
  <fix>3d</fix>
</trkpt>
<trkpt lat="40.072842" lon="-105.230575">
  <ele>1586.09</ele>
  <time>2026-08-28T19:06:19Z</time>
  <course>12.09</course>
  <speed>0.0</speed>
  <fix>3d</fix>
</trkpt>
<trkpt lat="40.072842" lon="-105.230575">
  <ele>1586.09</ele>
  <time>2026-08-28T19:06:19Z</time>
  <course>266.03</course>
  <speed>0.0</speed>
  <fix>3d</fix>
</trkpt>
<trkpt lat="40.072842" lon="-105.230575">
  <ele>1586.09</ele>
  <time>2026-08-28T19:06:19Z</time>
  <course>12.1</course>
  <speed>0.0</speed>
  <fix>3d</fix>
</trkpt>
<trkpt lat="40.072842" lon="-105.230575">
  <ele>1586.09</ele>
  <time>2026-08-28T19:06:19Z</time>
  <course>266.03</course>
  <speed>0.0</speed>
  <fix>3d</fix>
</trkpt>
<trkpt lat="40.072842" lon="-105.230575">
  <ele>1586.09</ele>
  <time>2026-08-28T19:06:19Z</time>
  <course>12.11</course>
  <speed>0.0</speed>
  <fix>3d</fix>
</trkpt>
<trkpt lat="40.072842" lon="-105.230575">
  <ele>1586.09</ele>
  <time>2026-08-28T19:06:19Z</time>
  <course>266.03</course>
  <speed>0.0</speed>
  <fix>3d</fix>
</trkpt>
<trkpt lat="40.072842" lon="-105.230575">
  <ele>1586.09</ele>
  <time>2026-08-28T19:06:19Z</time>
  <course>12.12</course>
  <speed>0.0</speed>
  <fix>3d</fix>
</trkpt>
<trkpt lat="40.072842" lon="-105.230575">
  <ele>1586.09</ele>
  <time>2026-08-28T19:06:19Z</time>
  <course>266.03</course>
  <speed>0.0</speed>
  <fix>3d</fix>
</trkpt>
<trkpt lat="40.072842" lon="-105.230575">
  <ele>1586.09</ele>
  <time>2026-08-28T19:06:19Z</time>
  <course>12.12</course>
  <speed>0.0</speed>
  <fix>3d</fix>
</trkpt>
<trkpt lat="40.072842" lon="-105.230575">
  <ele>1586.09</ele>
  <time>2026-08-28T19:06:19Z</time>
  <course>266.03</course>
  <speed>0.0</speed>
  <fix>3d</fix>
</trkpt>
<trkpt lat="40.072842" lon="-105.230575">
  <ele>1586.09</ele>
  <time>2026-08-28T19:06:19Z</time>
  <course>12.12</course>
  <speed>0.0</speed>
  <fix>3d</fix>
</trkpt>
<trkpt lat="40.072842" lon="-105.230575">
  <ele>1586.09</ele>
  <time>2026-08-28T19:06:19Z</time>
  <course>266.03</course>
  <speed>0.0</speed>
  <fix>3d</fix>
</trkpt>
<trkpt lat="40.072842" lon="-105.230575">
  <ele>1586.09</ele>
  <time>2026-08-28T19:06:19Z</time>
  <course>12.13</course>
  <speed>0.0</speed>
  <fix>3d</fix>
</trkpt>
<trkpt lat="40.072842" lon="-105.230575">
  <ele>1586.09</ele>
  <time>2026-08-28T19:06:19Z</time>
  <course>266.03</course>
  <speed>0.0</speed>
  <fix>3d</fix>
</trkpt>
<trkpt lat="40.072842" lon="-105.230575">
  <ele>1586.09</ele>
  <time>2026-08-28T19:06:19Z</time>
  <course>12.13</course>
  <speed>0.0</speed>
  <fix>3d</fix>
</trkpt>
<trkpt lat="40.072842" lon="-105.230575">
  <ele>1586.09</ele>
  <time>2026-08-28T19:06:19Z</time>
  <course>266.03</course>
  <speed>0.0</speed>
  <fix>3d</fix>
</trkpt>
<trkpt lat="40.072842" lon="-105.230575">
  <ele>1586.09</ele>
  <time>2026-08-28T19:06:19Z</time>
  <course>12.13</course>
  <speed>0.0</speed>
  <fix>3d</fix>
</trkpt>
<trkpt lat="40.072842" lon="-105.230575">
  <ele>1586.09</ele>
  <time>2026-08-28T19:06:19Z</time>
  <course>266.03</course>
  <speed>0.0</speed>
  <fix>3d</fix>
</trkpt>
<trkpt lat="40.072842" lon="-105.230575">
  <ele>1586.09</ele>
  <time>2026-08-28T19:06:19Z</time>
  <course>12.13</course>
  <speed>0.0</speed>
  <fix>3d</fix>
</trkpt>
<trkpt lat="40.072842" lon="-105.230575">
  <ele>1586.09</ele>
  <time>2026-08-28T19:06:19Z</time>
  <course>266.03</course>
  <speed>0.0</speed>
  <fix>3d</fix>
</trkpt>
<trkpt lat="40.072842" lon="-105.230575">
  <ele>1586.09</ele>
  <time>2026-08-28T19:06:19Z</time>
  <course>12.12</course>
  <speed>0.01</speed>
  <fix>3d</fix>
</trkpt>
<trkpt lat="40.072842" lon="-105.230575">
  <ele>1586.09</ele>
  <time>2026-08-28T19:06:19Z</time>
  <course>266.03</course>
  <speed>0.0</speed>
  <fix>3d</fix>
</trkpt>
<trkpt lat="40.072842" lon="-105.230575">
  <ele>1586.09</ele>
  <time>2026-08-28T19:06:19Z</time>
  <course>12.12</course>
  <speed>0.01</speed>
  <fix>3d</fix>
</trkpt>
<trkpt lat="40.072842" lon="-105.230575">
  <ele>1586.09</ele>
  <time>2026-08-28T19:06:19Z</time>
  <course>266.03</course>
  <speed>0.0</speed>
  <fix>3d</fix>
</trkpt>
<trkpt lat="40.072842" lon="-105.230575">
  <ele>1586.09</ele>
  <time>2026-08-28T19:06:19Z</time>
  <course>12.12</course>
  <speed>0.01</speed>
  <fix>3d</fix>
</trkpt>
<trkpt lat="40.072842" lon="-105.230575">
  <ele>1586.09</ele>
  <time>2026-08-28T19:06:19Z</time>
  <course>266.03</course>
  <speed>0.0</speed>
  <fix>3d</fix>
</trkpt>
<trkpt lat="40.072842" lon="-105.230575">
  <ele>1586.09</ele>
  <time>2026-08-28T19:06:19Z</time>
  <course>12.12</course>
  <speed>0.01</speed>
  <fix>3d</fix>
</trkpt>
<trkpt lat="40.072842" lon="-105.230575">
  <ele>1586.09</ele>
  <time>2026-08-28T19:06:19Z</time>
  <course>266.03</course>
  <speed>0.0</speed>
  <fix>3d</fix>
</trkpt>
<trkpt lat="40.072842" lon="-105.230575">
  <ele>1586.09</ele>
  <time>2026-08-28T19:06:19Z</time>
  <course>12.11</course>
  <speed>0.01</speed>
  <fix>3d</fix>
</trkpt>
<trkpt lat="40.072842" lon="-105.230575">
  <ele>1586.09</ele>
  <time>2026-08-28T19:06:19Z</time>
  <course>266.03</course>
  <speed>0.0</speed>
  <fix>3d</fix>
</trkpt>
<trkpt lat="40.072842" lon="-105.230575">
  <ele>1586.09</ele>
  <time>2026-08-28T19:06:20Z</time>
  <course>12.11</course>
  <speed>0.01</speed>
  <fix>3d</fix>
</trkpt>
<trkpt lat="40.072842" lon="-105.230575">
  <ele>1586.09</ele>
  <time>2026-08-28T19:06:20Z</time>
  <course>266.03</course>
  <speed>0.0</speed>
  <fix>3d</fix>
</trkpt>
<trkpt lat="40.072842" lon="-105.230575">
  <ele>1586.09</ele>
  <time>2026-08-28T19:06:20Z</time>
  <course>12.1</course>
  <speed>0.01</speed>
  <fix>3d</fix>
</trkpt>
<trkpt lat="40.072842" lon="-105.230575">
  <ele>1586.09</ele>
  <time>2026-08-28T19:06:20Z</time>
  <course>266.03</course>
  <speed>0.0</speed>
  <fix>3d</fix>
</trkpt>
<trkpt lat="40.072842" lon="-105.230575">
  <ele>1586.09</ele>
  <time>2026-08-28T19:06:20Z</time>
  <course>12.1</course>
  <speed>0.01</speed>
  <fix>3d</fix>
</trkpt>
<trkpt lat="40.072842" lon="-105.230575">
  <ele>1586.09</ele>
  <time>2026-08-28T19:06:20Z</time>
  <course>266.03</course>
  <speed>0.0</speed>
  <fix>3d</fix>
</trkpt>
<trkpt lat="40.072842" lon="-105.230575">
  <ele>1586.09</ele>
  <time>2026-08-28T19:06:20Z</time>
  <course>12.09</course>
  <speed>0.01</speed>
  <fix>3d</fix>
</trkpt>
<trkpt lat="40.072842" lon="-105.230575">
  <ele>1586.09</ele>
  <time>2026-08-28T19:06:20Z</time>
  <course>266.03</course>
  <speed>0.0</speed>
  <fix>3d</fix>
</trkpt>
<trkpt lat="40.072842" lon="-105.230575">
  <ele>1586.09</ele>
  <time>2026-08-28T19:06:20Z</time>
  <course>12.09</course>
  <speed>0.01</speed>
  <fix>3d</fix>
</trkpt>
<trkpt lat="40.072842" lon="-105.230575">
  <ele>1586.09</ele>
  <time>2026-08-28T19:06:20Z</time>
  <course>266.03</course>
  <speed>0.0</speed>
  <fix>3d</fix>
</trkpt>
<trkpt lat="40.072842" lon="-105.230575">
  <ele>1586.09</ele>
  <time>2026-08-28T19:06:20Z</time>
  <course>12.08</course>
  <speed>0.01414213562373095</speed>
  <fix>3d</fix>
</trkpt>
<trkpt lat="40.072842" lon="-105.230575">
  <ele>1586.09</ele>
  <time>2026-08-28T19:06:20Z</time>
  <course>266.03</course>
  <speed>0.0</speed>
  <fix>3d</fix>
</trkpt>
<trkpt lat="40.072842" lon="-105.230575">
  <ele>1586.09</ele>
  <time>2026-08-28T19:06:20Z</time>
  <course>12.07</course>
  <speed>0.01414213562373095</speed>
  <fix>3d</fix>
</trkpt>
<trkpt lat="40.072842" lon="-105.230575">
  <ele>1586.09</ele>
  <time>2026-08-28T19:06:20Z</time>
  <course>266.03</course>
  <speed>0.0</speed>
  <fix>3d</fix>
</trkpt>
<trkpt lat="40.072842" lon="-105.230575">
  <ele>1586.09</ele>
  <time>2026-08-28T19:06:20Z</time>
  <course>12.07</course>
  <speed>0.01414213562373095</speed>
  <fix>3d</fix>
</trkpt>
<trkpt lat="40.072842" lon="-105.230575">
  <ele>1586.09</ele>
  <time>2026-08-28T19:06:20Z</time>
  <course>266.03</course>
  <speed>0.0</speed>
  <fix>3d</fix>
</trkpt>
<trkpt lat="40.072842" lon="-105.230575">
  <ele>1586.09</ele>
  <time>2026-08-28T19:06:20Z</time>
  <course>12.06</course>
  <speed>0.01414213562373095</speed>
  <fix>3d</fix>
</trkpt>
<trkpt lat="40.072842" lon="-105.230575">
  <ele>1586.09</ele>
  <time>2026-08-28T19:06:20Z</time>
  <course>266.03</course>
  <speed>0.0</speed>
  <fix>3d</fix>
</trkpt>
<trkpt lat="40.072842" lon="-105.230575">
  <ele>1586.09</ele>
  <time>2026-08-28T19:06:20Z</time>
  <course>12.05</course>
  <speed>0.01414213562373095</speed>
  <fix>3d</fix>
</trkpt>
<trkpt lat="40.072842" lon="-105.230575">
  <ele>1586.09</ele>
  <time>2026-08-28T19:06:20Z</time>
  <course>266.03</course>
  <speed>0.0</speed>
  <fix>3d</fix>
</trkpt>
<trkpt lat="40.072842" lon="-105.230575">
  <ele>1586.09</ele>
  <time>2026-08-28T19:06:20Z</time>
  <course>12.05</course>
  <speed>0.01414213562373095</speed>
  <fix>3d</fix>
</trkpt>
<trkpt lat="40.072842" lon="-105.230575">
  <ele>1586.09</ele>
  <time>2026-08-28T19:06:20Z</time>
  <course>266.03</course>
  <speed>0.0</speed>
  <fix>3d</fix>
</trkpt>
<trkpt lat="40.072842" lon="-105.230575">
  <ele>1586.09</ele>
  <time>2026-08-28T19:06:20Z</time>
  <course>12.04</course>
  <speed>0.01414213562373095</speed>
  <fix>3d</fix>
</trkpt>
<trkpt lat="40.072842" lon="-105.230575">
  <ele>1586.09</ele>
  <time>2026-08-28T19:06:20Z</time>
  <course>266.03</course>
  <speed>0.0</speed>
  <fix>3d</fix>
</trkpt>
<trkpt lat="40.072842" lon="-105.230575">
  <ele>1586.09</ele>
  <time>2026-08-28T19:06:20Z</time>
  <course>12.03</course>
  <speed>0.01414213562373095</speed>
  <fix>3d</fix>
</trkpt>
<trkpt lat="40.072842" lon="-105.230575">
  <ele>1586.09</ele>
  <time>2026-08-28T19:06:20Z</time>
  <course>266.03</course>
  <speed>0.0</speed>
  <fix>3d</fix>
</trkpt>
<trkpt lat="40.072842" lon="-105.230575">
  <ele>1586.09</ele>
  <time>2026-08-28T19:06:20Z</time>
  <course>12.02</course>
  <speed>0.01414213562373095</speed>
  <fix>3d</fix>
</trkpt>
<trkpt lat="40.072842" lon="-105.230575">
  <ele>1586.09</ele>
  <time>2026-08-28T19:06:20Z</time>
  <course>266.03</course>
  <speed>0.0</speed>
  <fix>3d</fix>
</trkpt>
<trkpt lat="40.072842" lon="-105.230575">
  <ele>1586.09</ele>
  <time>2026-08-28T19:06:20Z</time>
  <course>12.02</course>
  <speed>0.01414213562373095</speed>
  <fix>3d</fix>
</trkpt>
<trkpt lat="40.072842" lon="-105.230575">
  <ele>1586.09</ele>
  <time>2026-08-28T19:06:20Z</time>
  <course>266.03</course>
  <speed>0.0</speed>
  <fix>3d</fix>
</trkpt>
<trkpt lat="40.072842" lon="-105.230575">
  <ele>1586.09</ele>
  <time>2026-08-28T19:06:20Z</time>
  <course>12.01</course>
  <speed>0.01414213562373095</speed>
  <fix>3d</fix>
</trkpt>
<trkpt lat="40.072842" lon="-105.230575">
  <ele>1586.09</ele>
  <time>2026-08-28T19:06:20Z</time>
  <course>266.03</course>
  <speed>0.0</speed>
  <fix>3d</fix>
</trkpt>
<trkpt lat="40.072842" lon="-105.230575">
  <ele>1586.09</ele>
  <time>2026-08-28T19:06:20Z</time>
  <course>12.01</course>
  <speed>0.01414213562373095</speed>
  <fix>3d</fix>
</trkpt>
<trkpt lat="40.072842" lon="-105.230575">
  <ele>1586.09</ele>
  <time>2026-08-28T19:06:20Z</time>
  <course>266.03</course>
  <speed>0.0</speed>
  <fix>3d</fix>
</trkpt>
<trkpt lat="40.072842" lon="-105.230575">
  <ele>1586.09</ele>
  <time>2026-08-28T19:06:20Z</time>
  <course>12.0</course>
  <speed>0.01414213562373095</speed>
  <fix>3d</fix>
</trkpt>
<trkpt lat="40.072842" lon="-105.230575">
  <ele>1586.09</ele>
  <time>2026-08-28T19:06:20Z</time>
  <course>266.03</course>
  <speed>0.0</speed>
  <fix>3d</fix>
</trkpt>
<trkpt lat="40.072842" lon="-105.230575">
  <ele>1586.09</ele>
  <time>2026-08-28T19:06:20Z</time>
  <course>11.99</course>
  <speed>0.01414213562373095</speed>
  <fix>3d</fix>
</trkpt>
<trkpt lat="40.072842" lon="-105.230575">
  <ele>1586.09</ele>
  <time>2026-08-28T19:06:20Z</time>
  <course>266.03</course>
  <speed>0.0</speed>
  <fix>3d</fix>
</trkpt>
<trkpt lat="40.072842" lon="-105.230575">
  <ele>1586.09</ele>
  <time>2026-08-28T19:06:20Z</time>
  <course>11.98</course>
  <speed>0.01414213562373095</speed>
  <fix>3d</fix>
</trkpt>
<trkpt lat="40.072842" lon="-105.230575">
  <ele>1586.09</ele>
  <time>2026-08-28T19:06:20Z</time>
  <course>266.03</course>
  <speed>0.0</speed>
  <fix>3d</fix>
</trkpt>
<trkpt lat="40.072842" lon="-105.230575">
  <ele>1586.09</ele>
  <time>2026-08-28T19:06:20Z</time>
  <course>11.97</course>
  <speed>0.01414213562373095</speed>
  <fix>3d</fix>
</trkpt>
<trkpt lat="40.072842" lon="-105.230575">
  <ele>1586.09</ele>
  <time>2026-08-28T19:06:20Z</time>
  <course>266.03</course>
  <speed>0.0</speed>
  <fix>3d</fix>
</trkpt>
<trkpt lat="40.072842" lon="-105.230575">
  <ele>1586.09</ele>
  <time>2026-08-28T19:06:20Z</time>
  <course>11.96</course>
  <speed>0.022360679774997897</speed>
  <fix>3d</fix>
</trkpt>
<trkpt lat="40.072842" lon="-105.230575">
  <ele>1586.09</ele>
  <time>2026-08-28T19:06:20Z</time>
  <course>266.03</course>
  <speed>0.0</speed>
  <fix>3d</fix>
</trkpt>
<trkpt lat="40.072842" lon="-105.230575">
  <ele>1586.09</ele>
  <time>2026-08-28T19:06:20Z</time>
  <course>11.96</course>
  <speed>0.022360679774997897</speed>
  <fix>3d</fix>
</trkpt>
<trkpt lat="40.072842" lon="-105.230575">
  <ele>1586.09</ele>
  <time>2026-08-28T19:06:20Z</time>
  <course>266.03</course>
  <speed>0.0</speed>
  <fix>3d</fix>
</trkpt>
<trkpt lat="40.072842" lon="-105.230575">
  <ele>1586.09</ele>
  <time>2026-08-28T19:06:20Z</time>
  <course>11.95</course>
  <speed>0.022360679774997897</speed>
  <fix>3d</fix>
</trkpt>
<trkpt lat="40.072842" lon="-105.230575">
  <ele>1586.09</ele>
  <time>2026-08-28T19:06:20Z</time>
  <course>266.03</course>
  <speed>0.0</speed>
  <fix>3d</fix>
</trkpt>
<trkpt lat="40.072842" lon="-105.230575">
  <ele>1586.09</ele>
  <time>2026-08-28T19:06:20Z</time>
  <course>11.94</course>
  <speed>0.022360679774997897</speed>
  <fix>3d</fix>
</trkpt>
<trkpt lat="40.072842" lon="-105.230575">
  <ele>1586.09</ele>
  <time>2026-08-28T19:06:20Z</time>
  <course>266.03</course>
  <speed>0.0</speed>
  <fix>3d</fix>
</trkpt>
<trkpt lat="40.072842" lon="-105.230575">
  <ele>1586.09</ele>
  <time>2026-08-28T19:06:20Z</time>
  <course>11.93</course>
  <speed>0.022360679774997897</speed>
  <fix>3d</fix>
</trkpt>
<trkpt lat="40.072842" lon="-105.230575">
  <ele>1586.09</ele>
  <time>2026-08-28T19:06:20Z</time>
  <course>266.03</course>
  <speed>0.0</speed>
  <fix>3d</fix>
</trkpt>
<trkpt lat="40.072842" lon="-105.230575">
  <ele>1586.09</ele>
  <time>2026-08-28T19:06:20Z</time>
  <course>11.92</course>
  <speed>0.022360679774997897</speed>
  <fix>3d</fix>
</trkpt>
<trkpt lat="40.072842" lon="-105.230575">
  <ele>1586.09</ele>
  <time>2026-08-28T19:06:20Z</time>
  <course>266.03</course>
  <speed>0.0</speed>
  <fix>3d</fix>
</trkpt>
<trkpt lat="40.072842" lon="-105.230575">
  <ele>1586.09</ele>
  <time>2026-08-28T19:06:20Z</time>
  <course>11.91</course>
  <speed>0.022360679774997897</speed>
  <fix>3d</fix>
</trkpt>
<trkpt lat="40.072842" lon="-105.230575">
  <ele>1586.09</ele>
  <time>2026-08-28T19:06:20Z</time>
  <course>266.03</course>
  <speed>0.0</speed>
  <fix>3d</fix>
</trkpt>
<trkpt lat="40.072842" lon="-105.230575">
  <ele>1586.09</ele>
  <time>2026-08-28T19:06:20Z</time>
  <course>11.91</course>
  <speed>0.022360679774997897</speed>
  <fix>3d</fix>
</trkpt>
<trkpt lat="40.072842" lon="-105.230575">
  <ele>1586.09</ele>
  <time>2026-08-28T19:06:20Z</time>
  <course>266.03</course>
  <speed>0.0</speed>
  <fix>3d</fix>
</trkpt>
<trkpt lat="40.072842" lon="-105.230575">
  <ele>1586.09</ele>
  <time>2026-08-28T19:06:20Z</time>
  <course>11.9</course>
  <speed>0.022360679774997897</speed>
  <fix>3d</fix>
</trkpt>
<trkpt lat="40.072842" lon="-105.230575">
  <ele>1586.09</ele>
  <time>2026-08-28T19:06:20Z</time>
  <course>266.03</course>
  <speed>0.0</speed>
  <fix>3d</fix>
</trkpt>
<trkpt lat="40.072842" lon="-105.230575">
  <ele>1586.09</ele>
  <time>2026-08-28T19:06:20Z</time>
  <course>11.89</course>
  <speed>0.022360679774997897</speed>
  <fix>3d</fix>
</trkpt>
<trkpt lat="40.072842" lon="-105.230575">
  <ele>1586.09</ele>
  <time>2026-08-28T19:06:20Z</time>
  <course>266.03</course>
  <speed>0.0</speed>
  <fix>3d</fix>
</trkpt>
<trkpt lat="40.072842" lon="-105.230575">
  <ele>1586.09</ele>
  <time>2026-08-28T19:06:20Z</time>
  <course>11.88</course>
  <speed>0.022360679774997897</speed>
  <fix>3d</fix>
</trkpt>
<trkpt lat="40.072842" lon="-105.230575">
  <ele>1586.09</ele>
  <time>2026-08-28T19:06:20Z</time>
  <course>266.03</course>
  <speed>0.0</speed>
  <fix>3d</fix>
</trkpt>
<trkpt lat="40.072842" lon="-105.230575">
  <ele>1586.09</ele>
  <time>2026-08-28T19:06:20Z</time>
  <course>11.87</course>
  <speed>0.022360679774997897</speed>
  <fix>3d</fix>
</trkpt>
<trkpt lat="40.072842" lon="-105.230575">
  <ele>1586.09</ele>
  <time>2026-08-28T19:06:20Z</time>
  <course>266.03</course>
  <speed>0.0</speed>
  <fix>3d</fix>
</trkpt>
<trkpt lat="40.072842" lon="-105.230575">
  <ele>1586.09</ele>
  <time>2026-08-28T19:06:20Z</time>
  <course>11.86</course>
  <speed>0.022360679774997897</speed>
  <fix>3d</fix>
</trkpt>
<trkpt lat="40.072842" lon="-105.230575">
  <ele>1586.09</ele>
  <time>2026-08-28T19:06:20Z</time>
  <course>266.03</course>
  <speed>0.0</speed>
  <fix>3d</fix>
</trkpt>
<trkpt lat="40.072842" lon="-105.230575">
  <ele>1586.09</ele>
  <time>2026-08-28T19:06:20Z</time>
  <course>11.86</course>
  <speed>0.022360679774997897</speed>
  <fix>3d</fix>
</trkpt>
<trkpt lat="40.072842" lon="-105.230575">
  <ele>1586.09</ele>
  <time>2026-08-28T19:06:20Z</time>
  <course>266.03</course>
  <speed>0.0</speed>
  <fix>3d</fix>
</trkpt>
<trkpt lat="40.072842" lon="-105.230575">
  <ele>1586.09</ele>
  <time>2026-08-28T19:06:20Z</time>
  <course>11.85</course>
  <speed>0.0282842712474619</speed>
  <fix>3d</fix>
</trkpt>
<trkpt lat="40.072842" lon="-105.230575">
  <ele>1586.09</ele>
  <time>2026-08-28T19:06:20Z</time>
  <course>266.03</course>
  <speed>0.0</speed>
  <fix>3d</fix>
</trkpt>
<trkpt lat="40.072842" lon="-105.230575">
  <ele>1586.09</ele>
  <time>2026-08-28T19:06:20Z</time>
  <course>11.84</course>
  <speed>0.0282842712474619</speed>
  <fix>3d</fix>
</trkpt>
<trkpt lat="40.072842" lon="-105.230575">
  <ele>1586.09</ele>
  <time>2026-08-28T19:06:20Z</time>
  <course>266.03</course>
  <speed>0.0</speed>
  <fix>3d</fix>
</trkpt>
<trkpt lat="40.072842" lon="-105.230575">
  <ele>1586.09</ele>
  <time>2026-08-28T19:06:20Z</time>
  <course>11.83</course>
  <speed>0.0282842712474619</speed>
  <fix>3d</fix>
</trkpt>
<trkpt lat="40.072842" lon="-105.230575">
  <ele>1586.09</ele>
  <time>2026-08-28T19:06:20Z</time>
  <course>266.03</course>
  <speed>0.0</speed>
  <fix>3d</fix>
</trkpt>
<trkpt lat="40.072842" lon="-105.230575">
  <ele>1586.09</ele>
  <time>2026-08-28T19:06:20Z</time>
  <course>11.82</course>
  <speed>0.0282842712474619</speed>
  <fix>3d</fix>
</trkpt>
<trkpt lat="40.072842" lon="-105.230575">
  <ele>1586.09</ele>
  <time>2026-08-28T19:06:20Z</time>
  <course>266.03</course>
  <speed>0.0</speed>
  <fix>3d</fix>
</trkpt>
<trkpt lat="40.072842" lon="-105.230575">
  <ele>1586.09</ele>
  <time>2026-08-28T19:06:20Z</time>
  <course>11.82</course>
  <speed>0.0282842712474619</speed>
  <fix>3d</fix>
</trkpt>
<trkpt lat="40.072842" lon="-105.230575">
  <ele>1586.09</ele>
  <time>2026-08-28T19:06:20Z</time>
  <course>266.03</course>
  <speed>0.0</speed>
  <fix>3d</fix>
</trkpt>
<trkpt lat="40.072842" lon="-105.230575">
  <ele>1586.09</ele>
  <time>2026-08-28T19:06:20Z</time>
  <course>11.81</course>
  <speed>0.0282842712474619</speed>
  <fix>3d</fix>
</trkpt>
<trkpt lat="40.072842" lon="-105.230575">
  <ele>1586.09</ele>
  <time>2026-08-28T19:06:20Z</time>
  <course>266.03</course>
  <speed>0.0</speed>
  <fix>3d</fix>
</trkpt>
<trkpt lat="40.072842" lon="-105.230575">
  <ele>1586.09</ele>
  <time>2026-08-28T19:06:20Z</time>
  <course>11.8</course>
  <speed>0.0282842712474619</speed>
  <fix>3d</fix>
</trkpt>
<trkpt lat="40.072842" lon="-105.230575">
  <ele>1586.09</ele>
  <time>2026-08-28T19:06:20Z</time>
  <course>266.03</course>
  <speed>0.0</speed>
  <fix>3d</fix>
</trkpt>
<trkpt lat="40.072842" lon="-105.230575">
  <ele>1586.09</ele>
  <time>2026-08-28T19:06:20Z</time>
  <course>11.79</course>
  <speed>0.0282842712474619</speed>
  <fix>3d</fix>
</trkpt>
<trkpt lat="40.072842" lon="-105.230575">
  <ele>1586.09</ele>
  <time>2026-08-28T19:06:20Z</time>
  <course>266.03</course>
  <speed>0.0</speed>
  <fix>3d</fix>
</trkpt>
<trkpt lat="40.072842" lon="-105.230575">
  <ele>1586.09</ele>
  <time>2026-08-28T19:06:20Z</time>
  <course>11.78</course>
  <speed>0.0282842712474619</speed>
  <fix>3d</fix>
</trkpt>
<trkpt lat="40.072842" lon="-105.230575">
  <ele>1586.09</ele>
  <time>2026-08-28T19:06:20Z</time>
  <course>266.03</course>
  <speed>0.0</speed>
  <fix>3d</fix>
</trkpt>
<trkpt lat="40.072842" lon="-105.230575">
  <ele>1586.09</ele>
  <time>2026-08-28T19:06:20Z</time>
  <course>11.78</course>
  <speed>0.0282842712474619</speed>
  <fix>3d</fix>
</trkpt>
<trkpt lat="40.072842" lon="-105.230575">
  <ele>1586.09</ele>
  <time>2026-08-28T19:06:20Z</time>
  <course>266.03</course>
  <speed>0.0</speed>
  <fix>3d</fix>
</trkpt>
<trkpt lat="40.072842" lon="-105.230575">
  <ele>1586.09</ele>
  <time>2026-08-28T19:06:20Z</time>
  <course>11.77</course>
  <speed>0.0282842712474619</speed>
  <fix>3d</fix>
</trkpt>
<trkpt lat="40.072842" lon="-105.230575">
  <ele>1586.09</ele>
  <time>2026-08-28T19:06:20Z</time>
  <course>266.03</course>
  <speed>0.0</speed>
  <fix>3d</fix>
</trkpt>
<trkpt lat="40.072842" lon="-105.230575">
  <ele>1586.09</ele>
  <time>2026-08-28T19:06:20Z</time>
  <course>11.76</course>
  <speed>0.0282842712474619</speed>
  <fix>3d</fix>
</trkpt>
<trkpt lat="40.072842" lon="-105.230575">
  <ele>1586.09</ele>
  <time>2026-08-28T19:06:20Z</time>
  <course>266.03</course>
  <speed>0.0</speed>
  <fix>3d</fix>
</trkpt>
<trkpt lat="40.072842" lon="-105.230575">
  <ele>1586.09</ele>
  <time>2026-08-28T19:06:20Z</time>
  <course>11.76</course>
  <speed>0.0282842712474619</speed>
  <fix>3d</fix>
</trkpt>
<trkpt lat="40.072842" lon="-105.230575">
  <ele>1586.09</ele>
  <time>2026-08-28T19:06:20Z</time>
  <course>266.03</course>
  <speed>0.0</speed>
  <fix>3d</fix>
</trkpt>
<trkpt lat="40.072842" lon="-105.230575">
  <ele>1586.09</ele>
  <time>2026-08-28T19:06:20Z</time>
  <course>11.75</course>
  <speed>0.03605551275463989</speed>
  <fix>3d</fix>
</trkpt>
<trkpt lat="40.072842" lon="-105.230575">
  <ele>1586.09</ele>
  <time>2026-08-28T19:06:20Z</time>
  <course>266.03</course>
  <speed>0.0</speed>
  <fix>3d</fix>
</trkpt>
<trkpt lat="40.072842" lon="-105.230575">
  <ele>1586.09</ele>
  <time>2026-08-28T19:06:20Z</time>
  <course>11.74</course>
  <speed>0.03605551275463989</speed>
  <fix>3d</fix>
</trkpt>
<trkpt lat="40.072842" lon="-105.230575">
  <ele>1586.09</ele>
  <time>2026-08-28T19:06:20Z</time>
  <course>266.03</course>
  <speed>0.0</speed>
  <fix>3d</fix>
</trkpt>
<trkpt lat="40.072842" lon="-105.230575">
  <ele>1586.09</ele>
  <time>2026-08-28T19:06:20Z</time>
  <course>11.73</course>
  <speed>0.03605551275463989</speed>
  <fix>3d</fix>
</trkpt>
<trkpt lat="40.072842" lon="-105.230575">
  <ele>1586.09</ele>
  <time>2026-08-28T19:06:20Z</time>
  <course>266.03</course>
  <speed>0.0</speed>
  <fix>3d</fix>
</trkpt>
<trkpt lat="40.072842" lon="-105.230575">
  <ele>1586.09</ele>
  <time>2026-08-28T19:06:20Z</time>
  <course>11.72</course>
  <speed>0.03605551275463989</speed>
  <fix>3d</fix>
</trkpt>
<trkpt lat="40.072842" lon="-105.230575">
  <ele>1586.09</ele>
  <time>2026-08-28T19:06:20Z</time>
  <course>266.03</course>
  <speed>0.0</speed>
  <fix>3d</fix>
</trkpt>
<trkpt lat="40.072842" lon="-105.230575">
  <ele>1586.09</ele>
  <time>2026-08-28T19:06:20Z</time>
  <course>11.72</course>
  <speed>0.03605551275463989</speed>
  <fix>3d</fix>
</trkpt>
<trkpt lat="40.072842" lon="-105.230575">
  <ele>1586.09</ele>
  <time>2026-08-28T19:06:20Z</time>
  <course>266.03</course>
  <speed>0.0</speed>
  <fix>3d</fix>
</trkpt>
<trkpt lat="40.072842" lon="-105.230575">
  <ele>1586.09</ele>
  <time>2026-08-28T19:06:20Z</time>
  <course>11.71</course>
  <speed>0.03605551275463989</speed>
  <fix>3d</fix>
</trkpt>
<trkpt lat="40.072842" lon="-105.230575">
  <ele>1586.09</ele>
  <time>2026-08-28T19:06:20Z</time>
  <course>266.03</course>
  <speed>0.0</speed>
  <fix>3d</fix>
</trkpt>
<trkpt lat="40.072842" lon="-105.230575">
  <ele>1586.09</ele>
  <time>2026-08-28T19:06:20Z</time>
  <course>11.7</course>
  <speed>0.03605551275463989</speed>
  <fix>3d</fix>
</trkpt>
<trkpt lat="40.072842" lon="-105.230575">
  <ele>1586.09</ele>
  <time>2026-08-28T19:06:20Z</time>
  <course>266.03</course>
  <speed>0.0</speed>
  <fix>3d</fix>
</trkpt>
<trkpt lat="40.072842" lon="-105.230575">
  <ele>1586.09</ele>
  <time>2026-08-28T19:06:20Z</time>
  <course>11.7</course>
  <speed>0.03605551275463989</speed>
  <fix>3d</fix>
</trkpt>
<trkpt lat="40.072842" lon="-105.230575">
  <ele>1586.09</ele>
  <time>2026-08-28T19:06:20Z</time>
  <course>266.03</course>
  <speed>0.0</speed>
  <fix>3d</fix>
</trkpt>
<trkpt lat="40.072842" lon="-105.230575">
  <ele>1586.09</ele>
  <time>2026-08-28T19:06:20Z</time>
  <course>11.69</course>
  <speed>0.03605551275463989</speed>
  <fix>3d</fix>
</trkpt>
<trkpt lat="40.072842" lon="-105.230575">
  <ele>1586.09</ele>
  <time>2026-08-28T19:06:20Z</time>
  <course>266.03</course>
  <speed>0.0</speed>
  <fix>3d</fix>
</trkpt>
<trkpt lat="40.072842" lon="-105.230575">
  <ele>1586.09</ele>
  <time>2026-08-28T19:06:20Z</time>
  <course>11.68</course>
  <speed>0.03605551275463989</speed>
  <fix>3d</fix>
</trkpt>
<trkpt lat="40.072842" lon="-105.230575">
  <ele>1586.09</ele>
  <time>2026-08-28T19:06:20Z</time>
  <course>266.03</course>
  <speed>0.0</speed>
  <fix>3d</fix>
</trkpt>
<trkpt lat="40.072842" lon="-105.230575">
  <ele>1586.09</ele>
  <time>2026-08-28T19:06:20Z</time>
  <course>11.67</course>
  <speed>0.03605551275463989</speed>
  <fix>3d</fix>
</trkpt>
<trkpt lat="40.072842" lon="-105.230575">
  <ele>1586.09</ele>
  <time>2026-08-28T19:06:20Z</time>
  <course>266.03</course>
  <speed>0.0</speed>
  <fix>3d</fix>
</trkpt>
<trkpt lat="40.072842" lon="-105.230575">
  <ele>1586.09</ele>
  <time>2026-08-28T19:06:20Z</time>
  <course>11.67</course>
  <speed>0.03605551275463989</speed>
  <fix>3d</fix>
</trkpt>
<trkpt lat="40.072842" lon="-105.230575">
  <ele>1586.09</ele>
  <time>2026-08-28T19:06:20Z</time>
  <course>266.03</course>
  <speed>0.0</speed>
  <fix>3d</fix>
</trkpt>
<trkpt lat="40.072842" lon="-105.230575">
  <ele>1586.09</ele>
  <time>2026-08-28T19:06:20Z</time>
  <course>11.66</course>
  <speed>0.03605551275463989</speed>
  <fix>3d</fix>
</trkpt>
<trkpt lat="40.072842" lon="-105.230575">
  <ele>1586.09</ele>
  <time>2026-08-28T19:06:20Z</time>
  <course>266.03</course>
  <speed>0.0</speed>
  <fix>3d</fix>
</trkpt>
<trkpt lat="40.072842" lon="-105.230575">
  <ele>1586.09</ele>
  <time>2026-08-28T19:06:20Z</time>
  <course>11.65</course>
  <speed>0.03605551275463989</speed>
  <fix>3d</fix>
</trkpt>
<trkpt lat="40.072842" lon="-105.230575">
  <ele>1586.09</ele>
  <time>2026-08-28T19:06:20Z</time>
  <course>266.03</course>
  <speed>0.0</speed>
  <fix>3d</fix>
</trkpt>
<trkpt lat="40.072842" lon="-105.230575">
  <ele>1586.09</ele>
  <time>2026-08-28T19:06:20Z</time>
  <course>11.65</course>
  <speed>0.03605551275463989</speed>
  <fix>3d</fix>
</trkpt>
<trkpt lat="40.072842" lon="-105.230575">
  <ele>1586.09</ele>
  <time>2026-08-28T19:06:20Z</time>
  <course>266.03</course>
  <speed>0.0</speed>
  <fix>3d</fix>
</trkpt>
<trkpt lat="40.072842" lon="-105.230575">
  <ele>1586.09</ele>
  <time>2026-08-28T19:06:20Z</time>
  <course>11.64</course>
  <speed>0.03605551275463989</speed>
  <fix>3d</fix>
</trkpt>
<trkpt lat="40.072842" lon="-105.230575">
  <ele>1586.09</ele>
  <time>2026-08-28T19:06:20Z</time>
  <course>266.03</course>
  <speed>0.0</speed>
  <fix>3d</fix>
</trkpt>
<trkpt lat="40.072842" lon="-105.230575">
  <ele>1586.09</ele>
  <time>2026-08-28T19:06:20Z</time>
  <course>11.63</course>
  <speed>0.03605551275463989</speed>
  <fix>3d</fix>
</trkpt>
<trkpt lat="40.072842" lon="-105.230575">
  <ele>1586.09</ele>
  <time>2026-08-28T19:06:20Z</time>
  <course>266.03</course>
  <speed>0.0</speed>
  <fix>3d</fix>
</trkpt>
<trkpt lat="40.072842" lon="-105.230575">
  <ele>1586.09</ele>
  <time>2026-08-28T19:06:20Z</time>
  <course>11.63</course>
  <speed>0.03605551275463989</speed>
  <fix>3d</fix>
</trkpt>
<trkpt lat="40.072842" lon="-105.230575">
  <ele>1586.09</ele>
  <time>2026-08-28T19:06:20Z</time>
  <course>266.03</course>
  <speed>0.0</speed>
  <fix>3d</fix>
</trkpt>
<trkpt lat="40.072842" lon="-105.230575">
  <ele>1586.09</ele>
  <time>2026-08-28T19:06:20Z</time>
  <course>11.62</course>
  <speed>0.03605551275463989</speed>
  <fix>3d</fix>
</trkpt>
<trkpt lat="40.072842" lon="-105.230575">
  <ele>1586.09</ele>
  <time>2026-08-28T19:06:20Z</time>
  <course>266.03</course>
  <speed>0.0</speed>
  <fix>3d</fix>
</trkpt>
<trkpt lat="40.072842" lon="-105.230575">
  <ele>1586.09</ele>
  <time>2026-08-28T19:06:20Z</time>
  <course>11.61</course>
  <speed>0.03605551275463989</speed>
  <fix>3d</fix>
</trkpt>
<trkpt lat="40.072842" lon="-105.230575">
  <ele>1586.09</ele>
  <time>2026-08-28T19:06:20Z</time>
  <course>266.03</course>
  <speed>0.0</speed>
  <fix>3d</fix>
</trkpt>
<trkpt lat="40.072842" lon="-105.230575">
  <ele>1586.09</ele>
  <time>2026-08-28T19:06:20Z</time>
  <course>11.61</course>
  <speed>0.03605551275463989</speed>
  <fix>3d</fix>
</trkpt>
<trkpt lat="40.072842" lon="-105.230575">
  <ele>1586.09</ele>
  <time>2026-08-28T19:06:20Z</time>
  <course>266.03</course>
  <speed>0.0</speed>
  <fix>3d</fix>
</trkpt>
<trkpt lat="40.072842" lon="-105.230575">
  <ele>1586.09</ele>
  <time>2026-08-28T19:06:20Z</time>
  <course>11.6</course>
  <speed>0.03605551275463989</speed>
  <fix>3d</fix>
</trkpt>
<trkpt lat="40.072842" lon="-105.230575">
  <ele>1586.09</ele>
  <time>2026-08-28T19:06:20Z</time>
  <course>266.03</course>
  <speed>0.0</speed>
  <fix>3d</fix>
</trkpt>
<trkpt lat="40.072842" lon="-105.230575">
  <ele>1586.09</ele>
  <time>2026-08-28T19:06:20Z</time>
  <course>11.59</course>
  <speed>0.03605551275463989</speed>
  <fix>3d</fix>
</trkpt>
<trkpt lat="40.072842" lon="-105.230575">
  <ele>1586.09</ele>
  <time>2026-08-28T19:06:20Z</time>
  <course>266.03</course>
  <speed>0.0</speed>
  <fix>3d</fix>
</trkpt>
<trkpt lat="40.072842" lon="-105.230575">
  <ele>1586.09</ele>
  <time>2026-08-28T19:06:20Z</time>
  <course>11.59</course>
  <speed>0.03605551275463989</speed>
  <fix>3d</fix>
</trkpt>
<trkpt lat="40.072842" lon="-105.230575">
  <ele>1586.09</ele>
  <time>2026-08-28T19:06:20Z</time>
  <course>266.03</course>
  <speed>0.0</speed>
  <fix>3d</fix>
</trkpt>
<trkpt lat="40.072842" lon="-105.230575">
  <ele>1586.09</ele>
  <time>2026-08-28T19:06:20Z</time>
  <course>11.58</course>
  <speed>0.03605551275463989</speed>
  <fix>3d</fix>
</trkpt>
<trkpt lat="40.072842" lon="-105.230575">
  <ele>1586.09</ele>
  <time>2026-08-28T19:06:20Z</time>
  <course>266.03</course>
  <speed>0.0</speed>
  <fix>3d</fix>
</trkpt>
<trkpt lat="40.072842" lon="-105.230575">
  <ele>1586.09</ele>
  <time>2026-08-28T19:06:20Z</time>
  <course>11.58</course>
  <speed>0.03605551275463989</speed>
  <fix>3d</fix>
</trkpt>
<trkpt lat="40.072842" lon="-105.230575">
  <ele>1586.09</ele>
  <time>2026-08-28T19:06:20Z</time>
  <course>266.03</course>
  <speed>0.0</speed>
  <fix>3d</fix>
</trkpt>
<trkpt lat="40.072842" lon="-105.230575">
  <ele>1586.09</ele>
  <time>2026-08-28T19:06:20Z</time>
  <course>11.57</course>
  <speed>0.03605551275463989</speed>
  <fix>3d</fix>
</trkpt>
<trkpt lat="40.072842" lon="-105.230575">
  <ele>1586.09</ele>
  <time>2026-08-28T19:06:20Z</time>
  <course>266.03</course>
  <speed>0.0</speed>
  <fix>3d</fix>
</trkpt>
<trkpt lat="40.072842" lon="-105.230575">
  <ele>1586.09</ele>
  <time>2026-08-28T19:06:20Z</time>
  <course>11.56</course>
  <speed>0.03605551275463989</speed>
  <fix>3d</fix>
</trkpt>
<trkpt lat="40.072842" lon="-105.230575">
  <ele>1586.09</ele>
  <time>2026-08-28T19:06:20Z</time>
  <course>266.03</course>
  <speed>0.0</speed>
  <fix>3d</fix>
</trkpt>
<trkpt lat="40.072842" lon="-105.230575">
  <ele>1586.09</ele>
  <time>2026-08-28T19:06:20Z</time>
  <course>11.56</course>
  <speed>0.03605551275463989</speed>
  <fix>3d</fix>
</trkpt>
<trkpt lat="40.072842" lon="-105.230575">
  <ele>1586.09</ele>
  <time>2026-08-28T19:06:20Z</time>
  <course>266.03</course>
  <speed>0.0</speed>
  <fix>3d</fix>
</trkpt>
<trkpt lat="40.072842" lon="-105.230575">
  <ele>1586.09</ele>
  <time>2026-08-28T19:06:20Z</time>
  <course>11.55</course>
  <speed>0.03605551275463989</speed>
  <fix>3d</fix>
</trkpt>
<trkpt lat="40.072842" lon="-105.230575">
  <ele>1586.09</ele>
  <time>2026-08-28T19:06:20Z</time>
  <course>266.03</course>
  <speed>0.0</speed>
  <fix>3d</fix>
</trkpt>
<trkpt lat="40.072842" lon="-105.230575">
  <ele>1586.09</ele>
  <time>2026-08-28T19:06:20Z</time>
  <course>11.54</course>
  <speed>0.03605551275463989</speed>
  <fix>3d</fix>
</trkpt>
<trkpt lat="40.072842" lon="-105.230575">
  <ele>1586.09</ele>
  <time>2026-08-28T19:06:20Z</time>
  <course>266.03</course>
  <speed>0.0</speed>
  <fix>3d</fix>
</trkpt>
<trkpt lat="40.072842" lon="-105.230575">
  <ele>1586.09</ele>
  <time>2026-08-28T19:06:20Z</time>
  <course>11.54</course>
  <speed>0.03605551275463989</speed>
  <fix>3d</fix>
</trkpt>
<trkpt lat="40.072842" lon="-105.230575">
  <ele>1586.09</ele>
  <time>2026-08-28T19:06:20Z</time>
  <course>266.03</course>
  <speed>0.0</speed>
  <fix>3d</fix>
</trkpt>
<trkpt lat="40.072842" lon="-105.230575">
  <ele>1586.09</ele>
  <time>2026-08-28T19:06:20Z</time>
  <course>11.53</course>
  <speed>0.03605551275463989</speed>
  <fix>3d</fix>
</trkpt>
<trkpt lat="40.072842" lon="-105.230575">
  <ele>1586.09</ele>
  <time>2026-08-28T19:06:20Z</time>
  <course>266.03</course>
  <speed>0.0</speed>
  <fix>3d</fix>
</trkpt>
<trkpt lat="40.072842" lon="-105.230575">
  <ele>1586.09</ele>
  <time>2026-08-28T19:06:20Z</time>
  <course>11.53</course>
  <speed>0.03605551275463989</speed>
  <fix>3d</fix>
</trkpt>
<trkpt lat="40.072842" lon="-105.230575">
  <ele>1586.09</ele>
  <time>2026-08-28T19:06:20Z</time>
  <course>266.03</course>
  <speed>0.0</speed>
  <fix>3d</fix>
</trkpt>
<trkpt lat="40.072842" lon="-105.230575">
  <ele>1586.09</ele>
  <time>2026-08-28T19:06:20Z</time>
  <course>11.52</course>
  <speed>0.03605551275463989</speed>
  <fix>3d</fix>
</trkpt>
<trkpt lat="40.072842" lon="-105.230575">
  <ele>1586.09</ele>
  <time>2026-08-28T19:06:20Z</time>
  <course>266.03</course>
  <speed>0.0</speed>
  <fix>3d</fix>
</trkpt>
<trkpt lat="40.072842" lon="-105.230575">
  <ele>1586.09</ele>
  <time>2026-08-28T19:06:20Z</time>
  <course>11.51</course>
  <speed>0.03605551275463989</speed>
  <fix>3d</fix>
</trkpt>
<trkpt lat="40.072842" lon="-105.230575">
  <ele>1586.09</ele>
  <time>2026-08-28T19:06:20Z</time>
  <course>266.03</course>
  <speed>0.0</speed>
  <fix>3d</fix>
</trkpt>
<trkpt lat="40.072842" lon="-105.230575">
  <ele>1586.09</ele>
  <time>2026-08-28T19:06:20Z</time>
  <course>11.51</course>
  <speed>0.03605551275463989</speed>
  <fix>3d</fix>
</trkpt>
<trkpt lat="40.072842" lon="-105.230575">
  <ele>1586.09</ele>
  <time>2026-08-28T19:06:20Z</time>
  <course>266.03</course>
  <speed>0.0</speed>
  <fix>3d</fix>
</trkpt>
<trkpt lat="40.072842" lon="-105.230575">
  <ele>1586.09</ele>
  <time>2026-08-28T19:06:20Z</time>
  <course>11.5</course>
  <speed>0.044721359549995794</speed>
  <fix>3d</fix>
</trkpt>
<trkpt lat="40.072842" lon="-105.230575">
  <ele>1586.09</ele>
  <time>2026-08-28T19:06:20Z</time>
  <course>266.03</course>
  <speed>0.0</speed>
  <fix>3d</fix>
</trkpt>
<trkpt lat="40.072842" lon="-105.230575">
  <ele>1586.09</ele>
  <time>2026-08-28T19:06:20Z</time>
  <course>11.5</course>
  <speed>0.044721359549995794</speed>
  <fix>3d</fix>
</trkpt>
<trkpt lat="40.072842" lon="-105.230575">
  <ele>1586.09</ele>
  <time>2026-08-28T19:06:20Z</time>
  <course>266.03</course>
  <speed>0.0</speed>
  <fix>3d</fix>
</trkpt>
<trkpt lat="40.072842" lon="-105.230575">
  <ele>1586.09</ele>
  <time>2026-08-28T19:06:20Z</time>
  <course>11.49</course>
  <speed>0.044721359549995794</speed>
  <fix>3d</fix>
</trkpt>
<trkpt lat="40.072842" lon="-105.230575">
  <ele>1586.09</ele>
  <time>2026-08-28T19:06:20Z</time>
  <course>266.03</course>
  <speed>0.0</speed>
  <fix>3d</fix>
</trkpt>
<trkpt lat="40.072842" lon="-105.230575">
  <ele>1586.09</ele>
  <time>2026-08-28T19:06:20Z</time>
  <course>11.49</course>
  <speed>0.044721359549995794</speed>
  <fix>3d</fix>
</trkpt>
<trkpt lat="40.072842" lon="-105.230575">
  <ele>1586.09</ele>
  <time>2026-08-28T19:06:20Z</time>
  <course>266.03</course>
  <speed>0.0</speed>
  <fix>3d</fix>
</trkpt>
<trkpt lat="40.072842" lon="-105.230575">
  <ele>1586.09</ele>
  <time>2026-08-28T19:06:20Z</time>
  <course>11.48</course>
  <speed>0.044721359549995794</speed>
  <fix>3d</fix>
</trkpt>
<trkpt lat="40.072842" lon="-105.230575">
  <ele>1586.09</ele>
  <time>2026-08-28T19:06:20Z</time>
  <course>266.03</course>
  <speed>0.0</speed>
  <fix>3d</fix>
</trkpt>
<trkpt lat="40.072842" lon="-105.230575">
  <ele>1586.09</ele>
  <time>2026-08-28T19:06:20Z</time>
  <course>11.48</course>
  <speed>0.044721359549995794</speed>
  <fix>3d</fix>
</trkpt>
<trkpt lat="40.072842" lon="-105.230575">
  <ele>1586.09</ele>
  <time>2026-08-28T19:06:20Z</time>
  <course>266.03</course>
  <speed>0.0</speed>
  <fix>3d</fix>
</trkpt>
<trkpt lat="40.072842" lon="-105.230575">
  <ele>1586.09</ele>
  <time>2026-08-28T19:06:20Z</time>
  <course>11.47</course>
  <speed>0.044721359549995794</speed>
  <fix>3d</fix>
</trkpt>
<trkpt lat="40.072842" lon="-105.230575">
  <ele>1586.09</ele>
  <time>2026-08-28T19:06:20Z</time>
  <course>266.03</course>
  <speed>0.0</speed>
  <fix>3d</fix>
</trkpt>
<trkpt lat="40.072842" lon="-105.230575">
  <ele>1586.09</ele>
  <time>2026-08-28T19:06:20Z</time>
  <course>11.47</course>
  <speed>0.044721359549995794</speed>
  <fix>3d</fix>
</trkpt>
<trkpt lat="40.072842" lon="-105.230575">
  <ele>1586.09</ele>
  <time>2026-08-28T19:06:20Z</time>
  <course>266.03</course>
  <speed>0.0</speed>
  <fix>3d</fix>
</trkpt>
<trkpt lat="40.072842" lon="-105.230575">
  <ele>1586.09</ele>
  <time>2026-08-28T19:06:20Z</time>
  <course>11.46</course>
  <speed>0.044721359549995794</speed>
  <fix>3d</fix>
</trkpt>
<trkpt lat="40.072842" lon="-105.230575">
  <ele>1586.09</ele>
  <time>2026-08-28T19:06:20Z</time>
  <course>266.03</course>
  <speed>0.0</speed>
  <fix>3d</fix>
</trkpt>
<trkpt lat="40.072842" lon="-105.230575">
  <ele>1586.09</ele>
  <time>2026-08-28T19:06:20Z</time>
  <course>11.46</course>
  <speed>0.044721359549995794</speed>
  <fix>3d</fix>
</trkpt>
<trkpt lat="40.072842" lon="-105.230575">
  <ele>1586.09</ele>
  <time>2026-08-28T19:06:20Z</time>
  <course>266.03</course>
  <speed>0.0</speed>
  <fix>3d</fix>
</trkpt>
<trkpt lat="40.072842" lon="-105.230575">
  <ele>1586.16</ele>
  <time>2026-08-28T19:06:20Z</time>
  <course>11.45</course>
  <speed>0.0</speed>
  <fix>3d</fix>
</trkpt>
<trkpt lat="40.072842" lon="-105.230575">
  <ele>1586.09</ele>
  <time>2026-08-28T19:06:20Z</time>
  <course>297.19</course>
  <speed>0.0</speed>
  <fix>3d</fix>
</trkpt>
<trkpt lat="40.072842" lon="-105.230575">
  <ele>1586.16</ele>
  <time>2026-08-28T19:06:20Z</time>
  <course>11.45</course>
  <speed>0.0</speed>
  <fix>3d</fix>
</trkpt>
<trkpt lat="40.072842" lon="-105.230575">
  <ele>1586.09</ele>
  <time>2026-08-28T19:06:20Z</time>
  <course>269.87</course>
  <speed>0.0</speed>
  <fix>3d</fix>
</trkpt>
<trkpt lat="40.072842" lon="-105.230575">
  <ele>1586.16</ele>
  <time>2026-08-28T19:06:20Z</time>
  <course>11.44</course>
  <speed>0.0</speed>
  <fix>3d</fix>
</trkpt>
<trkpt lat="40.072842" lon="-105.230575">
  <ele>1586.09</ele>
  <time>2026-08-28T19:06:20Z</time>
  <course>241.23</course>
  <speed>0.0</speed>
  <fix>3d</fix>
</trkpt>
<trkpt lat="40.072842" lon="-105.230575">
  <ele>1586.16</ele>
  <time>2026-08-28T19:06:20Z</time>
  <course>11.44</course>
  <speed>0.0</speed>
  <fix>3d</fix>
</trkpt>
<trkpt lat="40.072842" lon="-105.230575">
  <ele>1586.09</ele>
  <time>2026-08-28T19:06:20Z</time>
  <course>93.08</course>
  <speed>0.0</speed>
  <fix>3d</fix>
</trkpt>
<trkpt lat="40.072842" lon="-105.230575">
  <ele>1586.17</ele>
  <time>2026-08-28T19:06:20Z</time>
  <course>11.43</course>
  <speed>0.0</speed>
  <fix>3d</fix>
</trkpt>
<trkpt lat="40.072842" lon="-105.230575">
  <ele>1586.09</ele>
  <time>2026-08-28T19:06:20Z</time>
  <course>317.31</course>
  <speed>0.0</speed>
  <fix>3d</fix>
</trkpt>
<trkpt lat="40.072842" lon="-105.230575">
  <ele>1586.17</ele>
  <time>2026-08-28T19:06:20Z</time>
  <course>11.43</course>
  <speed>0.01</speed>
  <fix>3d</fix>
</trkpt>
<trkpt lat="40.072842" lon="-105.230575">
  <ele>1586.09</ele>
  <time>2026-08-28T19:06:20Z</time>
  <course>265.24</course>
  <speed>0.0</speed>
  <fix>3d</fix>
</trkpt>
<trkpt lat="40.072842" lon="-105.230575">
  <ele>1586.17</ele>
  <time>2026-08-28T19:06:20Z</time>
  <course>11.43</course>
  <speed>0.01</speed>
  <fix>3d</fix>
</trkpt>
<trkpt lat="40.072842" lon="-105.230575">
  <ele>1586.09</ele>
  <time>2026-08-28T19:06:20Z</time>
  <course>261.76</course>
  <speed>0.0</speed>
  <fix>3d</fix>
</trkpt>
<trkpt lat="40.072842" lon="-105.230575">
  <ele>1586.17</ele>
  <time>2026-08-28T19:06:20Z</time>
  <course>11.42</course>
  <speed>0.01414213562373095</speed>
  <fix>3d</fix>
</trkpt>
<trkpt lat="40.072842" lon="-105.230575">
  <ele>1586.09</ele>
  <time>2026-08-28T19:06:20Z</time>
  <course>266.78</course>
  <speed>0.0</speed>
  <fix>3d</fix>
</trkpt>
<trkpt lat="40.072842" lon="-105.230575">
  <ele>1586.17</ele>
  <time>2026-08-28T19:06:20Z</time>
  <course>11.42</course>
  <speed>0.01414213562373095</speed>
  <fix>3d</fix>
</trkpt>
<trkpt lat="40.072842" lon="-105.230575">
  <ele>1586.09</ele>
  <time>2026-08-28T19:06:20Z</time>
  <course>266.53</course>
  <speed>0.0</speed>
  <fix>3d</fix>
</trkpt>
<trkpt lat="40.072842" lon="-105.230575">
  <ele>1586.17</ele>
  <time>2026-08-28T19:06:20Z</time>
  <course>11.41</course>
  <speed>0.01414213562373095</speed>
  <fix>3d</fix>
</trkpt>
<trkpt lat="40.072842" lon="-105.230575">
  <ele>1586.09</ele>
  <time>2026-08-28T19:06:20Z</time>
  <course>265.88</course>
  <speed>0.0</speed>
  <fix>3d</fix>
</trkpt>
<trkpt lat="40.072842" lon="-105.230575">
  <ele>1586.17</ele>
  <time>2026-08-28T19:06:20Z</time>
  <course>11.41</course>
  <speed>0.01414213562373095</speed>
  <fix>3d</fix>
</trkpt>
<trkpt lat="40.072842" lon="-105.230575">
  <ele>1586.09</ele>
  <time>2026-08-28T19:06:20Z</time>
  <course>265.99</course>
  <speed>0.0</speed>
  <fix>3d</fix>
</trkpt>
<trkpt lat="40.072842" lon="-105.230575">
  <ele>1586.17</ele>
  <time>2026-08-28T19:06:20Z</time>
  <course>11.41</course>
  <speed>0.022360679774997897</speed>
  <fix>3d</fix>
</trkpt>
<trkpt lat="40.072842" lon="-105.230575">
  <ele>1586.09</ele>
  <time>2026-08-28T19:06:20Z</time>
  <course>266.06</course>
  <speed>0.0</speed>
  <fix>3d</fix>
</trkpt>
<trkpt lat="40.072842" lon="-105.230575">
  <ele>1586.17</ele>
  <time>2026-08-28T19:06:20Z</time>
  <course>11.4</course>
  <speed>0.022360679774997897</speed>
  <fix>3d</fix>
</trkpt>
<trkpt lat="40.072842" lon="-105.230575">
  <ele>1586.09</ele>
  <time>2026-08-28T19:06:20Z</time>
  <course>266.04</course>
  <speed>0.0</speed>
  <fix>3d</fix>
</trkpt>
<trkpt lat="40.072842" lon="-105.230575">
  <ele>1586.17</ele>
  <time>2026-08-28T19:06:20Z</time>
  <course>11.4</course>
  <speed>0.022360679774997897</speed>
  <fix>3d</fix>
</trkpt>
<trkpt lat="40.072842" lon="-105.230575">
  <ele>1586.09</ele>
  <time>2026-08-28T19:06:20Z</time>
  <course>266.03</course>
  <speed>0.0</speed>
  <fix>3d</fix>
</trkpt>
<trkpt lat="40.072842" lon="-105.230575">
  <ele>1586.17</ele>
  <time>2026-08-28T19:06:20Z</time>
  <course>11.39</course>
  <speed>0.022360679774997897</speed>
  <fix>3d</fix>
</trkpt>
<trkpt lat="40.072842" lon="-105.230575">
  <ele>1586.09</ele>
  <time>2026-08-28T19:06:20Z</time>
  <course>266.04</course>
  <speed>0.0</speed>
  <fix>3d</fix>
</trkpt>
<trkpt lat="40.0728419" lon="-105.230575">
  <ele>1586.17</ele>
  <time>2026-08-28T19:06:20Z</time>
  <course>11.39</course>
  <speed>0.022360679774997897</speed>
  <fix>3d</fix>
</trkpt>
<trkpt lat="40.072842" lon="-105.230575">
  <ele>1586.09</ele>
  <time>2026-08-28T19:06:20Z</time>
  <course>266.04</course>
  <speed>0.0</speed>
  <fix>3d</fix>
</trkpt>
<trkpt lat="40.0728419" lon="-105.2305749">
  <ele>1586.17</ele>
  <time>2026-08-28T19:06:20Z</time>
  <course>11.39</course>
  <speed>0.022360679774997897</speed>
  <fix>3d</fix>
</trkpt>
<trkpt lat="40.072842" lon="-105.230575">
  <ele>1586.09</ele>
  <time>2026-08-28T19:06:20Z</time>
  <course>266.03</course>
  <speed>0.0</speed>
  <fix>3d</fix>
</trkpt>
<trkpt lat="40.0728419" lon="-105.2305749">
  <ele>1586.17</ele>
  <time>2026-08-28T19:06:20Z</time>
  <course>11.38</course>
  <speed>0.022360679774997897</speed>
  <fix>3d</fix>
</trkpt>
<trkpt lat="40.072842" lon="-105.230575">
  <ele>1586.09</ele>
  <time>2026-08-28T19:06:20Z</time>
  <course>266.03</course>
  <speed>0.0</speed>
  <fix>3d</fix>
</trkpt>
<trkpt lat="40.0728419" lon="-105.2305749">
  <ele>1586.18</ele>
  <time>2026-08-28T19:06:20Z</time>
  <course>11.38</course>
  <speed>0.022360679774997897</speed>
  <fix>3d</fix>
</trkpt>
<trkpt lat="40.072842" lon="-105.230575">
  <ele>1586.09</ele>
  <time>2026-08-28T19:06:20Z</time>
  <course>266.04</course>
  <speed>0.0</speed>
  <fix>3d</fix>
</trkpt>
<trkpt lat="40.0728419" lon="-105.2305749">
  <ele>1586.18</ele>
  <time>2026-08-28T19:06:20Z</time>
  <course>11.37</course>
  <speed>0.022360679774997897</speed>
  <fix>3d</fix>
</trkpt>
<trkpt lat="40.072842" lon="-105.230575">
  <ele>1586.09</ele>
  <time>2026-08-28T19:06:20Z</time>
  <course>266.04</course>
  <speed>0.0</speed>
  <fix>3d</fix>
</trkpt>
<trkpt lat="40.0728419" lon="-105.2305749">
  <ele>1586.17</ele>
  <time>2026-08-28T19:06:20Z</time>
  <course>11.37</course>
  <speed>0.022360679774997897</speed>
  <fix>3d</fix>
</trkpt>
<trkpt lat="40.072842" lon="-105.230575">
  <ele>1586.09</ele>
  <time>2026-08-28T19:06:20Z</time>
  <course>178.09</course>
  <speed>0.0</speed>
  <fix>3d</fix>
</trkpt>
<trkpt lat="40.0728419" lon="-105.2305749">
  <ele>1586.17</ele>
  <time>2026-08-28T19:06:20Z</time>
  <course>11.36</course>
  <speed>0.022360679774997897</speed>
  <fix>3d</fix>
</trkpt>
<trkpt lat="40.072842" lon="-105.230575">
  <ele>1586.09</ele>
  <time>2026-08-28T19:06:20Z</time>
  <course>82.55</course>
  <speed>0.0</speed>
  <fix>3d</fix>
</trkpt>
<trkpt lat="40.0728419" lon="-105.2305749">
  <ele>1586.17</ele>
  <time>2026-08-28T19:06:20Z</time>
  <course>11.36</course>
  <speed>0.022360679774997897</speed>
  <fix>3d</fix>
</trkpt>
<trkpt lat="40.072842" lon="-105.230575">
  <ele>1586.09</ele>
  <time>2026-08-28T19:06:20Z</time>
  <course>70.11</course>
  <speed>0.0</speed>
  <fix>3d</fix>
</trkpt>
<trkpt lat="40.0728419" lon="-105.2305749">
  <ele>1586.17</ele>
  <time>2026-08-28T19:06:20Z</time>
  <course>11.35</course>
  <speed>0.022360679774997897</speed>
  <fix>3d</fix>
</trkpt>
<trkpt lat="40.072842" lon="-105.230575">
  <ele>1586.09</ele>
  <time>2026-08-28T19:06:20Z</time>
  <course>280.93</course>
  <speed>0.0</speed>
  <fix>3d</fix>
</trkpt>
<trkpt lat="40.0728419" lon="-105.2305749">
  <ele>1586.17</ele>
  <time>2026-08-28T19:06:20Z</time>
  <course>11.35</course>
  <speed>0.01414213562373095</speed>
  <fix>3d</fix>
</trkpt>
<trkpt lat="40.072842" lon="-105.230575">
  <ele>1586.09</ele>
  <time>2026-08-28T19:06:20Z</time>
  <course>245.32</course>
  <speed>0.0</speed>
  <fix>3d</fix>
</trkpt>
<trkpt lat="40.0728419" lon="-105.2305749">
  <ele>1586.16</ele>
  <time>2026-08-28T19:06:20Z</time>
  <course>11.35</course>
  <speed>0.01414213562373095</speed>
  <fix>3d</fix>
</trkpt>
<trkpt lat="40.072842" lon="-105.230575">
  <ele>1586.09</ele>
  <time>2026-08-28T19:06:20Z</time>
  <course>117.15</course>
  <speed>0.0</speed>
  <fix>3d</fix>
</trkpt>
<trkpt lat="40.0728419" lon="-105.2305749">
  <ele>1586.16</ele>
  <time>2026-08-28T19:06:20Z</time>
  <course>11.34</course>
  <speed>0.01414213562373095</speed>
  <fix>3d</fix>
</trkpt>
<trkpt lat="40.072842" lon="-105.230575">
  <ele>1586.09</ele>
  <time>2026-08-28T19:06:20Z</time>
  <course>279.17</course>
  <speed>0.0</speed>
  <fix>3d</fix>
</trkpt>
<trkpt lat="40.0728419" lon="-105.2305749">
  <ele>1586.16</ele>
  <time>2026-08-28T19:06:20Z</time>
  <course>11.34</course>
  <speed>0.01414213562373095</speed>
  <fix>3d</fix>
</trkpt>
<trkpt lat="40.072842" lon="-105.230575">
  <ele>1586.09</ele>
  <time>2026-08-28T19:06:20Z</time>
  <course>265.73</course>
  <speed>0.0</speed>
  <fix>3d</fix>
</trkpt>
<trkpt lat="40.0728419" lon="-105.2305749">
  <ele>1586.16</ele>
  <time>2026-08-28T19:06:20Z</time>
  <course>11.33</course>
  <speed>0.01414213562373095</speed>
  <fix>3d</fix>
</trkpt>
<trkpt lat="40.072842" lon="-105.230575">
  <ele>1586.09</ele>
  <time>2026-08-28T19:06:20Z</time>
  <course>264.62</course>
  <speed>0.0</speed>
  <fix>3d</fix>
</trkpt>
<trkpt lat="40.0728419" lon="-105.2305749">
  <ele>1586.16</ele>
  <time>2026-08-28T19:06:20Z</time>
  <course>11.33</course>
  <speed>0.01414213562373095</speed>
  <fix>3d</fix>
</trkpt>
<trkpt lat="40.072842" lon="-105.230575">
  <ele>1586.09</ele>
  <time>2026-08-28T19:06:20Z</time>
  <course>266.26</course>
  <speed>0.0</speed>
  <fix>3d</fix>
</trkpt>
<trkpt lat="40.0728419" lon="-105.2305749">
  <ele>1586.15</ele>
  <time>2026-08-28T19:06:20Z</time>
  <course>11.32</course>
  <speed>0.01414213562373095</speed>
  <fix>3d</fix>
</trkpt>
<trkpt lat="40.072842" lon="-105.230575">
  <ele>1586.09</ele>
  <time>2026-08-28T19:06:20Z</time>
  <course>266.2</course>
  <speed>0.0</speed>
  <fix>3d</fix>
</trkpt>
<trkpt lat="40.0728419" lon="-105.2305749">
  <ele>1586.15</ele>
  <time>2026-08-28T19:06:20Z</time>
  <course>11.32</course>
  <speed>0.01414213562373095</speed>
  <fix>3d</fix>
</trkpt>
<trkpt lat="40.072842" lon="-105.230575">
  <ele>1586.09</ele>
  <time>2026-08-28T19:06:20Z</time>
  <course>265.99</course>
  <speed>0.0</speed>
  <fix>3d</fix>
</trkpt>
<trkpt lat="40.0728419" lon="-105.2305749">
  <ele>1586.15</ele>
  <time>2026-08-28T19:06:20Z</time>
  <course>11.31</course>
  <speed>0.01414213562373095</speed>
  <fix>3d</fix>
</trkpt>
<trkpt lat="40.072842" lon="-105.230575">
  <ele>1586.09</ele>
  <time>2026-08-28T19:06:20Z</time>
  <course>266.02</course>
  <speed>0.0</speed>
  <fix>3d</fix>
</trkpt>
<trkpt lat="40.0728419" lon="-105.2305749">
  <ele>1586.15</ele>
  <time>2026-08-28T19:06:20Z</time>
  <course>11.31</course>
  <speed>0.01414213562373095</speed>
  <fix>3d</fix>
</trkpt>
<trkpt lat="40.072842" lon="-105.230575">
  <ele>1586.09</ele>
  <time>2026-08-28T19:06:20Z</time>
  <course>266.04</course>
  <speed>0.0</speed>
  <fix>3d</fix>
</trkpt>
<trkpt lat="40.0728419" lon="-105.2305749">
  <ele>1586.16</ele>
  <time>2026-08-28T19:06:21Z</time>
  <course>11.3</course>
  <speed>0.01414213562373095</speed>
  <fix>3d</fix>
</trkpt>
<trkpt lat="40.072842" lon="-105.230575">
  <ele>1586.09</ele>
  <time>2026-08-28T19:06:21Z</time>
  <course>266.04</course>
  <speed>0.0</speed>
  <fix>3d</fix>
</trkpt>
<trkpt lat="40.0728419" lon="-105.2305749">
  <ele>1586.16</ele>
  <time>2026-08-28T19:06:21Z</time>
  <course>11.3</course>
  <speed>0.01414213562373095</speed>
  <fix>3d</fix>
</trkpt>
<trkpt lat="40.072842" lon="-105.230575">
  <ele>1586.09</ele>
  <time>2026-08-28T19:06:21Z</time>
  <course>266.03</course>
  <speed>0.0</speed>
  <fix>3d</fix>
</trkpt>
<trkpt lat="40.0728419" lon="-105.2305749">
  <ele>1586.16</ele>
  <time>2026-08-28T19:06:21Z</time>
  <course>11.29</course>
  <speed>0.01414213562373095</speed>
  <fix>3d</fix>
</trkpt>
<trkpt lat="40.072842" lon="-105.230575">
  <ele>1586.09</ele>
  <time>2026-08-28T19:06:21Z</time>
  <course>266.03</course>
  <speed>0.0</speed>
  <fix>3d</fix>
</trkpt>
<trkpt lat="40.0728419" lon="-105.2305749">
  <ele>1586.16</ele>
  <time>2026-08-28T19:06:21Z</time>
  <course>11.29</course>
  <speed>0.01414213562373095</speed>
  <fix>3d</fix>
</trkpt>
<trkpt lat="40.072842" lon="-105.230575">
  <ele>1586.09</ele>
  <time>2026-08-28T19:06:21Z</time>
  <course>266.03</course>
  <speed>0.0</speed>
  <fix>3d</fix>
</trkpt>
<trkpt lat="40.0728419" lon="-105.2305749">
  <ele>1586.16</ele>
  <time>2026-08-28T19:06:21Z</time>
  <course>11.28</course>
  <speed>0.01414213562373095</speed>
  <fix>3d</fix>
</trkpt>
<trkpt lat="40.072842" lon="-105.230575">
  <ele>1586.09</ele>
  <time>2026-08-28T19:06:21Z</time>
  <course>266.03</course>
  <speed>0.0</speed>
  <fix>3d</fix>
</trkpt>
<trkpt lat="40.0728419" lon="-105.2305749">
  <ele>1586.16</ele>
  <time>2026-08-28T19:06:21Z</time>
  <course>11.28</course>
  <speed>0.01414213562373095</speed>
  <fix>3d</fix>
</trkpt>
<trkpt lat="40.072842" lon="-105.230575">
  <ele>1586.09</ele>
  <time>2026-08-28T19:06:21Z</time>
  <course>266.03</course>
  <speed>0.0</speed>
  <fix>3d</fix>
</trkpt>
<trkpt lat="40.0728419" lon="-105.2305749">
  <ele>1586.15</ele>
  <time>2026-08-28T19:06:21Z</time>
  <course>11.27</course>
  <speed>0.01414213562373095</speed>
  <fix>3d</fix>
</trkpt>
<trkpt lat="40.072842" lon="-105.230575">
  <ele>1586.09</ele>
  <time>2026-08-28T19:06:21Z</time>
  <course>266.03</course>
  <speed>0.0</speed>
  <fix>3d</fix>
</trkpt>
<trkpt lat="40.0728419" lon="-105.2305749">
  <ele>1586.15</ele>
  <time>2026-08-28T19:06:21Z</time>
  <course>11.27</course>
  <speed>0.01414213562373095</speed>
  <fix>3d</fix>
</trkpt>
<trkpt lat="40.072842" lon="-105.230575">
  <ele>1586.09</ele>
  <time>2026-08-28T19:06:21Z</time>
  <course>266.03</course>
  <speed>0.0</speed>
  <fix>3d</fix>
</trkpt>
<trkpt lat="40.0728419" lon="-105.2305749">
  <ele>1586.15</ele>
  <time>2026-08-28T19:06:21Z</time>
  <course>11.27</course>
  <speed>0.01414213562373095</speed>
  <fix>3d</fix>
</trkpt>
<trkpt lat="40.072842" lon="-105.230575">
  <ele>1586.09</ele>
  <time>2026-08-28T19:06:21Z</time>
  <course>266.03</course>
  <speed>0.0</speed>
  <fix>3d</fix>
</trkpt>
<trkpt lat="40.0728419" lon="-105.2305749">
  <ele>1586.15</ele>
  <time>2026-08-28T19:06:21Z</time>
  <course>11.26</course>
  <speed>0.01414213562373095</speed>
  <fix>3d</fix>
</trkpt>
<trkpt lat="40.072842" lon="-105.230575">
  <ele>1586.09</ele>
  <time>2026-08-28T19:06:21Z</time>
  <course>266.03</course>
  <speed>0.0</speed>
  <fix>3d</fix>
</trkpt>
<trkpt lat="40.0728419" lon="-105.2305749">
  <ele>1586.15</ele>
  <time>2026-08-28T19:06:21Z</time>
  <course>11.26</course>
  <speed>0.01414213562373095</speed>
  <fix>3d</fix>
</trkpt>
<trkpt lat="40.072842" lon="-105.230575">
  <ele>1586.09</ele>
  <time>2026-08-28T19:06:21Z</time>
  <course>266.03</course>
  <speed>0.0</speed>
  <fix>3d</fix>
</trkpt>
<trkpt lat="40.0728419" lon="-105.2305749">
  <ele>1586.16</ele>
  <time>2026-08-28T19:06:21Z</time>
  <course>11.25</course>
  <speed>0.01414213562373095</speed>
  <fix>3d</fix>
</trkpt>
<trkpt lat="40.072842" lon="-105.230575">
  <ele>1586.09</ele>
  <time>2026-08-28T19:06:21Z</time>
  <course>266.03</course>
  <speed>0.0</speed>
  <fix>3d</fix>
</trkpt>
<trkpt lat="40.0728419" lon="-105.2305749">
  <ele>1586.17</ele>
  <time>2026-08-28T19:06:21Z</time>
  <course>11.25</course>
  <speed>0.01414213562373095</speed>
  <fix>3d</fix>
</trkpt>
<trkpt lat="40.072842" lon="-105.230575">
  <ele>1586.09</ele>
  <time>2026-08-28T19:06:21Z</time>
  <course>266.03</course>
  <speed>0.0</speed>
  <fix>3d</fix>
</trkpt>
<trkpt lat="40.0728419" lon="-105.2305749">
  <ele>1586.17</ele>
  <time>2026-08-28T19:06:21Z</time>
  <course>11.24</course>
  <speed>0.01414213562373095</speed>
  <fix>3d</fix>
</trkpt>
<trkpt lat="40.072842" lon="-105.230575">
  <ele>1586.09</ele>
  <time>2026-08-28T19:06:21Z</time>
  <course>266.03</course>
  <speed>0.0</speed>
  <fix>3d</fix>
</trkpt>
<trkpt lat="40.0728419" lon="-105.2305749">
  <ele>1586.17</ele>
  <time>2026-08-28T19:06:21Z</time>
  <course>11.24</course>
  <speed>0.01414213562373095</speed>
  <fix>3d</fix>
</trkpt>
<trkpt lat="40.072842" lon="-105.230575">
  <ele>1586.09</ele>
  <time>2026-08-28T19:06:21Z</time>
  <course>266.03</course>
  <speed>0.0</speed>
  <fix>3d</fix>
</trkpt>
<trkpt lat="40.0728419" lon="-105.2305749">
  <ele>1586.17</ele>
  <time>2026-08-28T19:06:21Z</time>
  <course>11.24</course>
  <speed>0.01414213562373095</speed>
  <fix>3d</fix>
</trkpt>
<trkpt lat="40.072842" lon="-105.230575">
  <ele>1586.09</ele>
  <time>2026-08-28T19:06:21Z</time>
  <course>266.03</course>
  <speed>0.0</speed>
  <fix>3d</fix>
</trkpt>
<trkpt lat="40.0728419" lon="-105.2305749">
  <ele>1586.17</ele>
  <time>2026-08-28T19:06:21Z</time>
  <course>11.23</course>
  <speed>0.01414213562373095</speed>
  <fix>3d</fix>
</trkpt>
<trkpt lat="40.072842" lon="-105.230575">
  <ele>1586.09</ele>
  <time>2026-08-28T19:06:21Z</time>
  <course>266.03</course>
  <speed>0.0</speed>
  <fix>3d</fix>
</trkpt>
<trkpt lat="40.0728419" lon="-105.2305749">
  <ele>1586.17</ele>
  <time>2026-08-28T19:06:21Z</time>
  <course>11.23</course>
  <speed>0.01414213562373095</speed>
  <fix>3d</fix>
</trkpt>
<trkpt lat="40.072842" lon="-105.230575">
  <ele>1586.09</ele>
  <time>2026-08-28T19:06:21Z</time>
  <course>266.03</course>
  <speed>0.0</speed>
  <fix>3d</fix>
</trkpt>
<trkpt lat="40.0728419" lon="-105.2305749">
  <ele>1586.17</ele>
  <time>2026-08-28T19:06:21Z</time>
  <course>11.22</course>
  <speed>0.01414213562373095</speed>
  <fix>3d</fix>
</trkpt>
<trkpt lat="40.072842" lon="-105.230575">
  <ele>1586.09</ele>
  <time>2026-08-28T19:06:21Z</time>
  <course>266.03</course>
  <speed>0.0</speed>
  <fix>3d</fix>
</trkpt>
<trkpt lat="40.0728419" lon="-105.2305749">
  <ele>1586.17</ele>
  <time>2026-08-28T19:06:21Z</time>
  <course>11.22</course>
  <speed>0.01414213562373095</speed>
  <fix>3d</fix>
</trkpt>
<trkpt lat="40.072842" lon="-105.230575">
  <ele>1586.09</ele>
  <time>2026-08-28T19:06:21Z</time>
  <course>266.03</course>
  <speed>0.0</speed>
  <fix>3d</fix>
</trkpt>
<trkpt lat="40.0728419" lon="-105.2305749">
  <ele>1586.17</ele>
  <time>2026-08-28T19:06:21Z</time>
  <course>11.22</course>
  <speed>0.01414213562373095</speed>
  <fix>3d</fix>
</trkpt>
<trkpt lat="40.072842" lon="-105.230575">
  <ele>1586.09</ele>
  <time>2026-08-28T19:06:21Z</time>
  <course>266.03</course>
  <speed>0.0</speed>
  <fix>3d</fix>
</trkpt>
<trkpt lat="40.0728419" lon="-105.2305749">
  <ele>1586.17</ele>
  <time>2026-08-28T19:06:21Z</time>
  <course>11.21</course>
  <speed>0.01414213562373095</speed>
  <fix>3d</fix>
</trkpt>
<trkpt lat="40.072842" lon="-105.230575">
  <ele>1586.09</ele>
  <time>2026-08-28T19:06:21Z</time>
  <course>266.03</course>
  <speed>0.0</speed>
  <fix>3d</fix>
</trkpt>
<trkpt lat="40.0728419" lon="-105.2305749">
  <ele>1586.17</ele>
  <time>2026-08-28T19:06:21Z</time>
  <course>11.21</course>
  <speed>0.01414213562373095</speed>
  <fix>3d</fix>
</trkpt>
<trkpt lat="40.072842" lon="-105.230575">
  <ele>1586.09</ele>
  <time>2026-08-28T19:06:21Z</time>
  <course>266.03</course>
  <speed>0.0</speed>
  <fix>3d</fix>
</trkpt>
<trkpt lat="40.0728419" lon="-105.2305749">
  <ele>1586.17</ele>
  <time>2026-08-28T19:06:21Z</time>
  <course>11.21</course>
  <speed>0.01414213562373095</speed>
  <fix>3d</fix>
</trkpt>
<trkpt lat="40.072842" lon="-105.230575">
  <ele>1586.09</ele>
  <time>2026-08-28T19:06:21Z</time>
  <course>266.03</course>
  <speed>0.0</speed>
  <fix>3d</fix>
</trkpt>
<trkpt lat="40.0728419" lon="-105.2305749">
  <ele>1586.17</ele>
  <time>2026-08-28T19:06:21Z</time>
  <course>11.2</course>
  <speed>0.01414213562373095</speed>
  <fix>3d</fix>
</trkpt>
<trkpt lat="40.072842" lon="-105.230575">
  <ele>1586.09</ele>
  <time>2026-08-28T19:06:21Z</time>
  <course>266.03</course>
  <speed>0.0</speed>
  <fix>3d</fix>
</trkpt>
<trkpt lat="40.0728419" lon="-105.2305749">
  <ele>1586.16</ele>
  <time>2026-08-28T19:06:21Z</time>
  <course>11.2</course>
  <speed>0.01414213562373095</speed>
  <fix>3d</fix>
</trkpt>
<trkpt lat="40.072842" lon="-105.230575">
  <ele>1586.09</ele>
  <time>2026-08-28T19:06:21Z</time>
  <course>266.03</course>
  <speed>0.0</speed>
  <fix>3d</fix>
</trkpt>
<trkpt lat="40.0728419" lon="-105.2305749">
  <ele>1586.15</ele>
  <time>2026-08-28T19:06:21Z</time>
  <course>11.19</course>
  <speed>0.01414213562373095</speed>
  <fix>3d</fix>
</trkpt>
<trkpt lat="40.072842" lon="-105.230575">
  <ele>1586.09</ele>
  <time>2026-08-28T19:06:21Z</time>
  <course>266.03</course>
  <speed>0.0</speed>
  <fix>3d</fix>
</trkpt>
<trkpt lat="40.0728419" lon="-105.2305749">
  <ele>1586.15</ele>
  <time>2026-08-28T19:06:21Z</time>
  <course>11.19</course>
  <speed>0.01414213562373095</speed>
  <fix>3d</fix>
</trkpt>
<trkpt lat="40.072842" lon="-105.230575">
  <ele>1586.09</ele>
  <time>2026-08-28T19:06:21Z</time>
  <course>266.03</course>
  <speed>0.0</speed>
  <fix>3d</fix>
</trkpt>
<trkpt lat="40.0728419" lon="-105.2305749">
  <ele>1586.15</ele>
  <time>2026-08-28T19:06:21Z</time>
  <course>11.19</course>
  <speed>0.01414213562373095</speed>
  <fix>3d</fix>
</trkpt>
<trkpt lat="40.072842" lon="-105.230575">
  <ele>1586.09</ele>
  <time>2026-08-28T19:06:21Z</time>
  <course>266.03</course>
  <speed>0.0</speed>
  <fix>3d</fix>
</trkpt>
<trkpt lat="40.0728419" lon="-105.2305749">
  <ele>1586.16</ele>
  <time>2026-08-28T19:06:21Z</time>
  <course>11.18</course>
  <speed>0.01414213562373095</speed>
  <fix>3d</fix>
</trkpt>
<trkpt lat="40.072842" lon="-105.230575">
  <ele>1586.09</ele>
  <time>2026-08-28T19:06:21Z</time>
  <course>266.03</course>
  <speed>0.0</speed>
  <fix>3d</fix>
</trkpt>
<trkpt lat="40.0728419" lon="-105.2305749">
  <ele>1586.16</ele>
  <time>2026-08-28T19:06:21Z</time>
  <course>11.18</course>
  <speed>0.01414213562373095</speed>
  <fix>3d</fix>
</trkpt>
<trkpt lat="40.072842" lon="-105.230575">
  <ele>1586.09</ele>
  <time>2026-08-28T19:06:21Z</time>
  <course>266.03</course>
  <speed>0.0</speed>
  <fix>3d</fix>
</trkpt>
<trkpt lat="40.0728419" lon="-105.2305749">
  <ele>1586.16</ele>
  <time>2026-08-28T19:06:21Z</time>
  <course>11.18</course>
  <speed>0.01414213562373095</speed>
  <fix>3d</fix>
</trkpt>
<trkpt lat="40.072842" lon="-105.230575">
  <ele>1586.09</ele>
  <time>2026-08-28T19:06:21Z</time>
  <course>266.03</course>
  <speed>0.0</speed>
  <fix>3d</fix>
</trkpt>
<trkpt lat="40.0728419" lon="-105.2305749">
  <ele>1586.16</ele>
  <time>2026-08-28T19:06:21Z</time>
  <course>11.17</course>
  <speed>0.01414213562373095</speed>
  <fix>3d</fix>
</trkpt>
<trkpt lat="40.072842" lon="-105.230575">
  <ele>1586.09</ele>
  <time>2026-08-28T19:06:21Z</time>
  <course>266.03</course>
  <speed>0.0</speed>
  <fix>3d</fix>
</trkpt>
<trkpt lat="40.0728419" lon="-105.2305749">
  <ele>1586.16</ele>
  <time>2026-08-28T19:06:21Z</time>
  <course>11.17</course>
  <speed>0.01414213562373095</speed>
  <fix>3d</fix>
</trkpt>
<trkpt lat="40.072842" lon="-105.230575">
  <ele>1586.09</ele>
  <time>2026-08-28T19:06:21Z</time>
  <course>266.03</course>
  <speed>0.0</speed>
  <fix>3d</fix>
</trkpt>
<trkpt lat="40.0728419" lon="-105.2305749">
  <ele>1586.17</ele>
  <time>2026-08-28T19:06:21Z</time>
  <course>11.17</course>
  <speed>0.01414213562373095</speed>
  <fix>3d</fix>
</trkpt>
<trkpt lat="40.072842" lon="-105.230575">
  <ele>1586.09</ele>
  <time>2026-08-28T19:06:21Z</time>
  <course>266.03</course>
  <speed>0.0</speed>
  <fix>3d</fix>
</trkpt>
<trkpt lat="40.0728419" lon="-105.2305749">
  <ele>1586.18</ele>
  <time>2026-08-28T19:06:21Z</time>
  <course>11.16</course>
  <speed>0.01414213562373095</speed>
  <fix>3d</fix>
</trkpt>
<trkpt lat="40.072842" lon="-105.230575">
  <ele>1586.09</ele>
  <time>2026-08-28T19:06:21Z</time>
  <course>266.03</course>
  <speed>0.0</speed>
  <fix>3d</fix>
</trkpt>
<trkpt lat="40.0728419" lon="-105.2305749">
  <ele>1586.18</ele>
  <time>2026-08-28T19:06:21Z</time>
  <course>11.16</course>
  <speed>0.01414213562373095</speed>
  <fix>3d</fix>
</trkpt>
<trkpt lat="40.072842" lon="-105.230575">
  <ele>1586.09</ele>
  <time>2026-08-28T19:06:21Z</time>
  <course>266.03</course>
  <speed>0.0</speed>
  <fix>3d</fix>
</trkpt>
<trkpt lat="40.0728419" lon="-105.2305749">
  <ele>1586.18</ele>
  <time>2026-08-28T19:06:21Z</time>
  <course>11.16</course>
  <speed>0.01414213562373095</speed>
  <fix>3d</fix>
</trkpt>
<trkpt lat="40.072842" lon="-105.230575">
  <ele>1586.09</ele>
  <time>2026-08-28T19:06:21Z</time>
  <course>266.03</course>
  <speed>0.0</speed>
  <fix>3d</fix>
</trkpt>
<trkpt lat="40.0728419" lon="-105.2305749">
  <ele>1586.18</ele>
  <time>2026-08-28T19:06:21Z</time>
  <course>11.15</course>
  <speed>0.01414213562373095</speed>
  <fix>3d</fix>
</trkpt>
<trkpt lat="40.072842" lon="-105.230575">
  <ele>1586.09</ele>
  <time>2026-08-28T19:06:21Z</time>
  <course>266.03</course>
  <speed>0.0</speed>
  <fix>3d</fix>
</trkpt>
<trkpt lat="40.0728419" lon="-105.2305749">
  <ele>1586.18</ele>
  <time>2026-08-28T19:06:21Z</time>
  <course>11.15</course>
  <speed>0.01414213562373095</speed>
  <fix>3d</fix>
</trkpt>
<trkpt lat="40.072842" lon="-105.230575">
  <ele>1586.09</ele>
  <time>2026-08-28T19:06:21Z</time>
  <course>266.03</course>
  <speed>0.0</speed>
  <fix>3d</fix>
</trkpt>
<trkpt lat="40.0728419" lon="-105.2305749">
  <ele>1586.17</ele>
  <time>2026-08-28T19:06:21Z</time>
  <course>11.15</course>
  <speed>0.01414213562373095</speed>
  <fix>3d</fix>
</trkpt>
<trkpt lat="40.072842" lon="-105.230575">
  <ele>1586.09</ele>
  <time>2026-08-28T19:06:21Z</time>
  <course>266.03</course>
  <speed>0.0</speed>
  <fix>3d</fix>
</trkpt>
<trkpt lat="40.0728419" lon="-105.2305749">
  <ele>1586.17</ele>
  <time>2026-08-28T19:06:21Z</time>
  <course>11.15</course>
  <speed>0.01414213562373095</speed>
  <fix>3d</fix>
</trkpt>
<trkpt lat="40.072842" lon="-105.230575">
  <ele>1586.09</ele>
  <time>2026-08-28T19:06:21Z</time>
  <course>266.03</course>
  <speed>0.0</speed>
  <fix>3d</fix>
</trkpt>
<trkpt lat="40.0728419" lon="-105.2305749">
  <ele>1586.17</ele>
  <time>2026-08-28T19:06:21Z</time>
  <course>11.14</course>
  <speed>0.01414213562373095</speed>
  <fix>3d</fix>
</trkpt>
<trkpt lat="40.072842" lon="-105.230575">
  <ele>1586.09</ele>
  <time>2026-08-28T19:06:21Z</time>
  <course>266.03</course>
  <speed>0.0</speed>
  <fix>3d</fix>
</trkpt>
<trkpt lat="40.0728419" lon="-105.2305749">
  <ele>1586.17</ele>
  <time>2026-08-28T19:06:21Z</time>
  <course>11.14</course>
  <speed>0.01414213562373095</speed>
  <fix>3d</fix>
</trkpt>
<trkpt lat="40.072842" lon="-105.230575">
  <ele>1586.09</ele>
  <time>2026-08-28T19:06:21Z</time>
  <course>266.03</course>
  <speed>0.0</speed>
  <fix>3d</fix>
</trkpt>
<trkpt lat="40.0728419" lon="-105.2305749">
  <ele>1586.17</ele>
  <time>2026-08-28T19:06:21Z</time>
  <course>11.14</course>
  <speed>0.01414213562373095</speed>
  <fix>3d</fix>
</trkpt>
<trkpt lat="40.072842" lon="-105.230575">
  <ele>1586.09</ele>
  <time>2026-08-28T19:06:21Z</time>
  <course>266.03</course>
  <speed>0.0</speed>
  <fix>3d</fix>
</trkpt>
<trkpt lat="40.0728419" lon="-105.2305749">
  <ele>1586.17</ele>
  <time>2026-08-28T19:06:21Z</time>
  <course>11.13</course>
  <speed>0.01414213562373095</speed>
  <fix>3d</fix>
</trkpt>
<trkpt lat="40.072842" lon="-105.230575">
  <ele>1586.09</ele>
  <time>2026-08-28T19:06:21Z</time>
  <course>266.03</course>
  <speed>0.0</speed>
  <fix>3d</fix>
</trkpt>
<trkpt lat="40.0728419" lon="-105.2305749">
  <ele>1586.17</ele>
  <time>2026-08-28T19:06:21Z</time>
  <course>11.13</course>
  <speed>0.01414213562373095</speed>
  <fix>3d</fix>
</trkpt>
<trkpt lat="40.072842" lon="-105.230575">
  <ele>1586.09</ele>
  <time>2026-08-28T19:06:21Z</time>
  <course>266.03</course>
  <speed>0.0</speed>
  <fix>3d</fix>
</trkpt>
<trkpt lat="40.0728419" lon="-105.2305749">
  <ele>1586.17</ele>
  <time>2026-08-28T19:06:21Z</time>
  <course>11.13</course>
  <speed>0.01414213562373095</speed>
  <fix>3d</fix>
</trkpt>
<trkpt lat="40.072842" lon="-105.230575">
  <ele>1586.09</ele>
  <time>2026-08-28T19:06:21Z</time>
  <course>266.03</course>
  <speed>0.0</speed>
  <fix>3d</fix>
</trkpt>
<trkpt lat="40.0728419" lon="-105.2305749">
  <ele>1586.16</ele>
  <time>2026-08-28T19:06:21Z</time>
  <course>11.13</course>
  <speed>0.01414213562373095</speed>
  <fix>3d</fix>
</trkpt>
<trkpt lat="40.072842" lon="-105.230575">
  <ele>1586.09</ele>
  <time>2026-08-28T19:06:21Z</time>
  <course>266.03</course>
  <speed>0.0</speed>
  <fix>3d</fix>
</trkpt>
<trkpt lat="40.0728419" lon="-105.2305749">
  <ele>1586.16</ele>
  <time>2026-08-28T19:06:21Z</time>
  <course>11.12</course>
  <speed>0.01414213562373095</speed>
  <fix>3d</fix>
</trkpt>
<trkpt lat="40.072842" lon="-105.230575">
  <ele>1586.09</ele>
  <time>2026-08-28T19:06:21Z</time>
  <course>266.03</course>
  <speed>0.0</speed>
  <fix>3d</fix>
</trkpt>
<trkpt lat="40.0728419" lon="-105.2305749">
  <ele>1586.16</ele>
  <time>2026-08-28T19:06:21Z</time>
  <course>11.12</course>
  <speed>0.01414213562373095</speed>
  <fix>3d</fix>
</trkpt>
<trkpt lat="40.072842" lon="-105.230575">
  <ele>1586.09</ele>
  <time>2026-08-28T19:06:21Z</time>
  <course>266.03</course>
  <speed>0.0</speed>
  <fix>3d</fix>
</trkpt>
<trkpt lat="40.0728419" lon="-105.2305749">
  <ele>1586.16</ele>
  <time>2026-08-28T19:06:21Z</time>
  <course>11.12</course>
  <speed>0.01414213562373095</speed>
  <fix>3d</fix>
</trkpt>
<trkpt lat="40.072842" lon="-105.230575">
  <ele>1586.09</ele>
  <time>2026-08-28T19:06:21Z</time>
  <course>266.03</course>
  <speed>0.0</speed>
  <fix>3d</fix>
</trkpt>
<trkpt lat="40.0728419" lon="-105.2305749">
  <ele>1586.15</ele>
  <time>2026-08-28T19:06:21Z</time>
  <course>11.12</course>
  <speed>0.01414213562373095</speed>
  <fix>3d</fix>
</trkpt>
<trkpt lat="40.072842" lon="-105.230575">
  <ele>1586.09</ele>
  <time>2026-08-28T19:06:21Z</time>
  <course>266.03</course>
  <speed>0.0</speed>
  <fix>3d</fix>
</trkpt>
<trkpt lat="40.0728419" lon="-105.2305749">
  <ele>1586.16</ele>
  <time>2026-08-28T19:06:21Z</time>
  <course>11.11</course>
  <speed>0.01414213562373095</speed>
  <fix>3d</fix>
</trkpt>
<trkpt lat="40.072842" lon="-105.230575">
  <ele>1586.09</ele>
  <time>2026-08-28T19:06:21Z</time>
  <course>266.03</course>
  <speed>0.0</speed>
  <fix>3d</fix>
</trkpt>
<trkpt lat="40.0728419" lon="-105.2305749">
  <ele>1586.16</ele>
  <time>2026-08-28T19:06:21Z</time>
  <course>11.11</course>
  <speed>0.01414213562373095</speed>
  <fix>3d</fix>
</trkpt>
<trkpt lat="40.072842" lon="-105.230575">
  <ele>1586.09</ele>
  <time>2026-08-28T19:06:21Z</time>
  <course>266.03</course>
  <speed>0.0</speed>
  <fix>3d</fix>
</trkpt>
<trkpt lat="40.0728419" lon="-105.2305749">
  <ele>1586.16</ele>
  <time>2026-08-28T19:06:21Z</time>
  <course>11.11</course>
  <speed>0.01414213562373095</speed>
  <fix>3d</fix>
</trkpt>
<trkpt lat="40.072842" lon="-105.230575">
  <ele>1586.09</ele>
  <time>2026-08-28T19:06:21Z</time>
  <course>266.03</course>
  <speed>0.0</speed>
  <fix>3d</fix>
</trkpt>
<trkpt lat="40.0728419" lon="-105.2305749">
  <ele>1586.15</ele>
  <time>2026-08-28T19:06:21Z</time>
  <course>11.1</course>
  <speed>0.01414213562373095</speed>
  <fix>3d</fix>
</trkpt>
<trkpt lat="40.072842" lon="-105.230575">
  <ele>1586.09</ele>
  <time>2026-08-28T19:06:21Z</time>
  <course>266.03</course>
  <speed>0.0</speed>
  <fix>3d</fix>
</trkpt>
<trkpt lat="40.0728419" lon="-105.2305749">
  <ele>1586.15</ele>
  <time>2026-08-28T19:06:21Z</time>
  <course>11.1</course>
  <speed>0.01414213562373095</speed>
  <fix>3d</fix>
</trkpt>
<trkpt lat="40.072842" lon="-105.230575">
  <ele>1586.09</ele>
  <time>2026-08-28T19:06:21Z</time>
  <course>266.03</course>
  <speed>0.0</speed>
  <fix>3d</fix>
</trkpt>
<trkpt lat="40.0728419" lon="-105.2305749">
  <ele>1586.15</ele>
  <time>2026-08-28T19:06:21Z</time>
  <course>11.1</course>
  <speed>0.01414213562373095</speed>
  <fix>3d</fix>
</trkpt>
<trkpt lat="40.072842" lon="-105.230575">
  <ele>1586.09</ele>
  <time>2026-08-28T19:06:21Z</time>
  <course>266.03</course>
  <speed>0.0</speed>
  <fix>3d</fix>
</trkpt>
<trkpt lat="40.0728419" lon="-105.2305749">
  <ele>1586.15</ele>
  <time>2026-08-28T19:06:21Z</time>
  <course>11.1</course>
  <speed>0.01414213562373095</speed>
  <fix>3d</fix>
</trkpt>
<trkpt lat="40.072842" lon="-105.230575">
  <ele>1586.09</ele>
  <time>2026-08-28T19:06:21Z</time>
  <course>266.03</course>
  <speed>0.0</speed>
  <fix>3d</fix>
</trkpt>
<trkpt lat="40.0728419" lon="-105.2305749">
  <ele>1586.14</ele>
  <time>2026-08-28T19:06:21Z</time>
  <course>11.1</course>
  <speed>0.01414213562373095</speed>
  <fix>3d</fix>
</trkpt>
<trkpt lat="40.072842" lon="-105.230575">
  <ele>1586.09</ele>
  <time>2026-08-28T19:06:21Z</time>
  <course>266.03</course>
  <speed>0.0</speed>
  <fix>3d</fix>
</trkpt>
<trkpt lat="40.0728419" lon="-105.2305749">
  <ele>1586.14</ele>
  <time>2026-08-28T19:06:21Z</time>
  <course>11.09</course>
  <speed>0.01414213562373095</speed>
  <fix>3d</fix>
</trkpt>
<trkpt lat="40.072842" lon="-105.230575">
  <ele>1586.09</ele>
  <time>2026-08-28T19:06:21Z</time>
  <course>266.03</course>
  <speed>0.0</speed>
  <fix>3d</fix>
</trkpt>
<trkpt lat="40.0728419" lon="-105.2305749">
  <ele>1586.15</ele>
  <time>2026-08-28T19:06:21Z</time>
  <course>11.09</course>
  <speed>0.01414213562373095</speed>
  <fix>3d</fix>
</trkpt>
<trkpt lat="40.072842" lon="-105.230575">
  <ele>1586.09</ele>
  <time>2026-08-28T19:06:21Z</time>
  <course>266.03</course>
  <speed>0.0</speed>
  <fix>3d</fix>
</trkpt>
<trkpt lat="40.0728419" lon="-105.2305749">
  <ele>1586.15</ele>
  <time>2026-08-28T19:06:21Z</time>
  <course>11.09</course>
  <speed>0.01414213562373095</speed>
  <fix>3d</fix>
</trkpt>
<trkpt lat="40.072842" lon="-105.230575">
  <ele>1586.09</ele>
  <time>2026-08-28T19:06:21Z</time>
  <course>266.03</course>
  <speed>0.0</speed>
  <fix>3d</fix>
</trkpt>
<trkpt lat="40.0728419" lon="-105.2305749">
  <ele>1586.15</ele>
  <time>2026-08-28T19:06:21Z</time>
  <course>11.09</course>
  <speed>0.01414213562373095</speed>
  <fix>3d</fix>
</trkpt>
<trkpt lat="40.072842" lon="-105.230575">
  <ele>1586.09</ele>
  <time>2026-08-28T19:06:21Z</time>
  <course>266.03</course>
  <speed>0.0</speed>
  <fix>3d</fix>
</trkpt>
<trkpt lat="40.0728419" lon="-105.2305749">
  <ele>1586.16</ele>
  <time>2026-08-28T19:06:21Z</time>
  <course>11.08</course>
  <speed>0.01414213562373095</speed>
  <fix>3d</fix>
</trkpt>
<trkpt lat="40.072842" lon="-105.230575">
  <ele>1586.09</ele>
  <time>2026-08-28T19:06:21Z</time>
  <course>266.03</course>
  <speed>0.0</speed>
  <fix>3d</fix>
</trkpt>
<trkpt lat="40.0728419" lon="-105.2305749">
  <ele>1586.16</ele>
  <time>2026-08-28T19:06:21Z</time>
  <course>11.08</course>
  <speed>0.01414213562373095</speed>
  <fix>3d</fix>
</trkpt>
<trkpt lat="40.072842" lon="-105.230575">
  <ele>1586.09</ele>
  <time>2026-08-28T19:06:21Z</time>
  <course>266.03</course>
  <speed>0.0</speed>
  <fix>3d</fix>
</trkpt>
<trkpt lat="40.0728419" lon="-105.2305749">
  <ele>1586.17</ele>
  <time>2026-08-28T19:06:21Z</time>
  <course>11.08</course>
  <speed>0.01414213562373095</speed>
  <fix>3d</fix>
</trkpt>
<trkpt lat="40.072842" lon="-105.230575">
  <ele>1586.09</ele>
  <time>2026-08-28T19:06:21Z</time>
  <course>266.03</course>
  <speed>0.0</speed>
  <fix>3d</fix>
</trkpt>
<trkpt lat="40.0728419" lon="-105.2305749">
  <ele>1586.17</ele>
  <time>2026-08-28T19:06:21Z</time>
  <course>11.08</course>
  <speed>0.01414213562373095</speed>
  <fix>3d</fix>
</trkpt>
<trkpt lat="40.072842" lon="-105.230575">
  <ele>1586.09</ele>
  <time>2026-08-28T19:06:21Z</time>
  <course>266.03</course>
  <speed>0.0</speed>
  <fix>3d</fix>
</trkpt>
<trkpt lat="40.0728419" lon="-105.2305749">
  <ele>1586.18</ele>
  <time>2026-08-28T19:06:21Z</time>
  <course>11.08</course>
  <speed>0.01414213562373095</speed>
  <fix>3d</fix>
</trkpt>
<trkpt lat="40.072842" lon="-105.230575">
  <ele>1586.09</ele>
  <time>2026-08-28T19:06:21Z</time>
  <course>266.03</course>
  <speed>0.0</speed>
  <fix>3d</fix>
</trkpt>
<trkpt lat="40.0728419" lon="-105.2305749">
  <ele>1586.18</ele>
  <time>2026-08-28T19:06:21Z</time>
  <course>11.07</course>
  <speed>0.01414213562373095</speed>
  <fix>3d</fix>
</trkpt>
<trkpt lat="40.072842" lon="-105.230575">
  <ele>1586.09</ele>
  <time>2026-08-28T19:06:21Z</time>
  <course>266.03</course>
  <speed>0.0</speed>
  <fix>3d</fix>
</trkpt>
<trkpt lat="40.0728419" lon="-105.2305749">
  <ele>1586.18</ele>
  <time>2026-08-28T19:06:21Z</time>
  <course>11.07</course>
  <speed>0.01414213562373095</speed>
  <fix>3d</fix>
</trkpt>
<trkpt lat="40.072842" lon="-105.230575">
  <ele>1586.09</ele>
  <time>2026-08-28T19:06:21Z</time>
  <course>266.03</course>
  <speed>0.0</speed>
  <fix>3d</fix>
</trkpt>
<trkpt lat="40.0728419" lon="-105.2305749">
  <ele>1586.18</ele>
  <time>2026-08-28T19:06:21Z</time>
  <course>11.07</course>
  <speed>0.01414213562373095</speed>
  <fix>3d</fix>
</trkpt>
<trkpt lat="40.072842" lon="-105.230575">
  <ele>1586.09</ele>
  <time>2026-08-28T19:06:21Z</time>
  <course>266.03</course>
  <speed>0.0</speed>
  <fix>3d</fix>
</trkpt>
<trkpt lat="40.0728419" lon="-105.2305749">
  <ele>1586.19</ele>
  <time>2026-08-28T19:06:21Z</time>
  <course>11.07</course>
  <speed>0.01414213562373095</speed>
  <fix>3d</fix>
</trkpt>
<trkpt lat="40.072842" lon="-105.230575">
  <ele>1586.09</ele>
  <time>2026-08-28T19:06:21Z</time>
  <course>266.03</course>
  <speed>0.0</speed>
  <fix>3d</fix>
</trkpt>
<trkpt lat="40.0728419" lon="-105.2305749">
  <ele>1586.19</ele>
  <time>2026-08-28T19:06:21Z</time>
  <course>11.06</course>
  <speed>0.01414213562373095</speed>
  <fix>3d</fix>
</trkpt>
<trkpt lat="40.072842" lon="-105.230575">
  <ele>1586.09</ele>
  <time>2026-08-28T19:06:21Z</time>
  <course>266.03</course>
  <speed>0.0</speed>
  <fix>3d</fix>
</trkpt>
<trkpt lat="40.0728419" lon="-105.2305749">
  <ele>1586.19</ele>
  <time>2026-08-28T19:06:21Z</time>
  <course>11.06</course>
  <speed>0.01414213562373095</speed>
  <fix>3d</fix>
</trkpt>
<trkpt lat="40.072842" lon="-105.230575">
  <ele>1586.09</ele>
  <time>2026-08-28T19:06:21Z</time>
  <course>266.03</course>
  <speed>0.0</speed>
  <fix>3d</fix>
</trkpt>
<trkpt lat="40.0728419" lon="-105.2305749">
  <ele>1586.18</ele>
  <time>2026-08-28T19:06:21Z</time>
  <course>11.06</course>
  <speed>0.01414213562373095</speed>
  <fix>3d</fix>
</trkpt>
<trkpt lat="40.072842" lon="-105.230575">
  <ele>1586.09</ele>
  <time>2026-08-28T19:06:21Z</time>
  <course>266.03</course>
  <speed>0.0</speed>
  <fix>3d</fix>
</trkpt>
<trkpt lat="40.0728419" lon="-105.2305749">
  <ele>1586.18</ele>
  <time>2026-08-28T19:06:21Z</time>
  <course>11.06</course>
  <speed>0.01414213562373095</speed>
  <fix>3d</fix>
</trkpt>
<trkpt lat="40.072842" lon="-105.230575">
  <ele>1586.09</ele>
  <time>2026-08-28T19:06:21Z</time>
  <course>266.03</course>
  <speed>0.0</speed>
  <fix>3d</fix>
</trkpt>
<trkpt lat="40.0728419" lon="-105.2305749">
  <ele>1586.18</ele>
  <time>2026-08-28T19:06:21Z</time>
  <course>11.06</course>
  <speed>0.01414213562373095</speed>
  <fix>3d</fix>
</trkpt>
<trkpt lat="40.072842" lon="-105.230575">
  <ele>1586.09</ele>
  <time>2026-08-28T19:06:21Z</time>
  <course>266.03</course>
  <speed>0.0</speed>
  <fix>3d</fix>
</trkpt>
<trkpt lat="40.0728419" lon="-105.2305749">
  <ele>1586.18</ele>
  <time>2026-08-28T19:06:21Z</time>
  <course>11.05</course>
  <speed>0.01414213562373095</speed>
  <fix>3d</fix>
</trkpt>
<trkpt lat="40.072842" lon="-105.230575">
  <ele>1586.09</ele>
  <time>2026-08-28T19:06:21Z</time>
  <course>266.03</course>
  <speed>0.0</speed>
  <fix>3d</fix>
</trkpt>
<trkpt lat="40.0728419" lon="-105.2305749">
  <ele>1586.18</ele>
  <time>2026-08-28T19:06:21Z</time>
  <course>11.05</course>
  <speed>0.01414213562373095</speed>
  <fix>3d</fix>
</trkpt>
<trkpt lat="40.072842" lon="-105.230575">
  <ele>1586.09</ele>
  <time>2026-08-28T19:06:21Z</time>
  <course>266.03</course>
  <speed>0.0</speed>
  <fix>3d</fix>
</trkpt>
<trkpt lat="40.0728419" lon="-105.2305749">
  <ele>1586.18</ele>
  <time>2026-08-28T19:06:21Z</time>
  <course>11.05</course>
  <speed>0.01414213562373095</speed>
  <fix>3d</fix>
</trkpt>
<trkpt lat="40.072842" lon="-105.230575">
  <ele>1586.09</ele>
  <time>2026-08-28T19:06:21Z</time>
  <course>266.03</course>
  <speed>0.0</speed>
  <fix>3d</fix>
</trkpt>
<trkpt lat="40.0728419" lon="-105.2305749">
  <ele>1586.18</ele>
  <time>2026-08-28T19:06:21Z</time>
  <course>11.05</course>
  <speed>0.01414213562373095</speed>
  <fix>3d</fix>
</trkpt>
<trkpt lat="40.072842" lon="-105.230575">
  <ele>1586.09</ele>
  <time>2026-08-28T19:06:21Z</time>
  <course>266.03</course>
  <speed>0.0</speed>
  <fix>3d</fix>
</trkpt>
<trkpt lat="40.0728419" lon="-105.2305749">
  <ele>1586.18</ele>
  <time>2026-08-28T19:06:21Z</time>
  <course>11.05</course>
  <speed>0.01414213562373095</speed>
  <fix>3d</fix>
</trkpt>
<trkpt lat="40.072842" lon="-105.230575">
  <ele>1586.09</ele>
  <time>2026-08-28T19:06:21Z</time>
  <course>266.03</course>
  <speed>0.0</speed>
  <fix>3d</fix>
</trkpt>
<trkpt lat="40.0728419" lon="-105.2305749">
  <ele>1586.18</ele>
  <time>2026-08-28T19:06:21Z</time>
  <course>11.04</course>
  <speed>0.01414213562373095</speed>
  <fix>3d</fix>
</trkpt>
<trkpt lat="40.072842" lon="-105.230575">
  <ele>1586.09</ele>
  <time>2026-08-28T19:06:21Z</time>
  <course>266.03</course>
  <speed>0.0</speed>
  <fix>3d</fix>
</trkpt>
<trkpt lat="40.0728419" lon="-105.2305749">
  <ele>1586.18</ele>
  <time>2026-08-28T19:06:21Z</time>
  <course>11.04</course>
  <speed>0.01414213562373095</speed>
  <fix>3d</fix>
</trkpt>
<trkpt lat="40.072842" lon="-105.230575">
  <ele>1586.09</ele>
  <time>2026-08-28T19:06:21Z</time>
  <course>266.03</course>
  <speed>0.0</speed>
  <fix>3d</fix>
</trkpt>
<trkpt lat="40.0728419" lon="-105.2305749">
  <ele>1586.18</ele>
  <time>2026-08-28T19:06:21Z</time>
  <course>11.04</course>
  <speed>0.01414213562373095</speed>
  <fix>3d</fix>
</trkpt>
<trkpt lat="40.072842" lon="-105.230575">
  <ele>1586.09</ele>
  <time>2026-08-28T19:06:21Z</time>
  <course>266.03</course>
  <speed>0.0</speed>
  <fix>3d</fix>
</trkpt>
<trkpt lat="40.0728419" lon="-105.2305749">
  <ele>1586.17</ele>
  <time>2026-08-28T19:06:21Z</time>
  <course>11.04</course>
  <speed>0.01414213562373095</speed>
  <fix>3d</fix>
</trkpt>
<trkpt lat="40.072842" lon="-105.230575">
  <ele>1586.09</ele>
  <time>2026-08-28T19:06:21Z</time>
  <course>266.03</course>
  <speed>0.0</speed>
  <fix>3d</fix>
</trkpt>
<trkpt lat="40.0728419" lon="-105.2305749">
  <ele>1586.17</ele>
  <time>2026-08-28T19:06:21Z</time>
  <course>11.04</course>
  <speed>0.01414213562373095</speed>
  <fix>3d</fix>
</trkpt>
<trkpt lat="40.072842" lon="-105.230575">
  <ele>1586.09</ele>
  <time>2026-08-28T19:06:21Z</time>
  <course>266.03</course>
  <speed>0.0</speed>
  <fix>3d</fix>
</trkpt>
<trkpt lat="40.0728419" lon="-105.2305749">
  <ele>1586.16</ele>
  <time>2026-08-28T19:06:21Z</time>
  <course>11.04</course>
  <speed>0.01414213562373095</speed>
  <fix>3d</fix>
</trkpt>
<trkpt lat="40.072842" lon="-105.230575">
  <ele>1586.09</ele>
  <time>2026-08-28T19:06:21Z</time>
  <course>266.03</course>
  <speed>0.0</speed>
  <fix>3d</fix>
</trkpt>
<trkpt lat="40.0728419" lon="-105.2305749">
  <ele>1586.16</ele>
  <time>2026-08-28T19:06:21Z</time>
  <course>11.03</course>
  <speed>0.01414213562373095</speed>
  <fix>3d</fix>
</trkpt>
<trkpt lat="40.072842" lon="-105.230575">
  <ele>1586.09</ele>
  <time>2026-08-28T19:06:21Z</time>
  <course>266.03</course>
  <speed>0.0</speed>
  <fix>3d</fix>
</trkpt>
<trkpt lat="40.0728419" lon="-105.2305749">
  <ele>1586.15</ele>
  <time>2026-08-28T19:06:21Z</time>
  <course>11.03</course>
  <speed>0.01414213562373095</speed>
  <fix>3d</fix>
</trkpt>
<trkpt lat="40.072842" lon="-105.230575">
  <ele>1586.09</ele>
  <time>2026-08-28T19:06:21Z</time>
  <course>266.03</course>
  <speed>0.0</speed>
  <fix>3d</fix>
</trkpt>
<trkpt lat="40.0728419" lon="-105.2305749">
  <ele>1586.16</ele>
  <time>2026-08-28T19:06:21Z</time>
  <course>11.03</course>
  <speed>0.01414213562373095</speed>
  <fix>3d</fix>
</trkpt>
<trkpt lat="40.072842" lon="-105.230575">
  <ele>1586.09</ele>
  <time>2026-08-28T19:06:21Z</time>
  <course>266.03</course>
  <speed>0.0</speed>
  <fix>3d</fix>
</trkpt>
<trkpt lat="40.0728419" lon="-105.2305749">
  <ele>1586.16</ele>
  <time>2026-08-28T19:06:21Z</time>
  <course>11.03</course>
  <speed>0.01414213562373095</speed>
  <fix>3d</fix>
</trkpt>
<trkpt lat="40.072842" lon="-105.230575">
  <ele>1586.09</ele>
  <time>2026-08-28T19:06:21Z</time>
  <course>266.03</course>
  <speed>0.0</speed>
  <fix>3d</fix>
</trkpt>
<trkpt lat="40.0728419" lon="-105.2305749">
  <ele>1586.17</ele>
  <time>2026-08-28T19:06:21Z</time>
  <course>11.03</course>
  <speed>0.01414213562373095</speed>
  <fix>3d</fix>
</trkpt>
<trkpt lat="40.072842" lon="-105.230575">
  <ele>1586.09</ele>
  <time>2026-08-28T19:06:21Z</time>
  <course>266.03</course>
  <speed>0.0</speed>
  <fix>3d</fix>
</trkpt>
<trkpt lat="40.0728419" lon="-105.2305749">
  <ele>1586.17</ele>
  <time>2026-08-28T19:06:21Z</time>
  <course>11.03</course>
  <speed>0.01414213562373095</speed>
  <fix>3d</fix>
</trkpt>
<trkpt lat="40.072842" lon="-105.230575">
  <ele>1586.09</ele>
  <time>2026-08-28T19:06:21Z</time>
  <course>266.03</course>
  <speed>0.0</speed>
  <fix>3d</fix>
</trkpt>
<trkpt lat="40.0728419" lon="-105.2305749">
  <ele>1586.17</ele>
  <time>2026-08-28T19:06:21Z</time>
  <course>11.03</course>
  <speed>0.01414213562373095</speed>
  <fix>3d</fix>
</trkpt>
<trkpt lat="40.072842" lon="-105.230575">
  <ele>1586.09</ele>
  <time>2026-08-28T19:06:21Z</time>
  <course>266.03</course>
  <speed>0.0</speed>
  <fix>3d</fix>
</trkpt>
<trkpt lat="40.0728419" lon="-105.2305749">
  <ele>1586.17</ele>
  <time>2026-08-28T19:06:21Z</time>
  <course>11.02</course>
  <speed>0.01414213562373095</speed>
  <fix>3d</fix>
</trkpt>
<trkpt lat="40.072842" lon="-105.230575">
  <ele>1586.09</ele>
  <time>2026-08-28T19:06:21Z</time>
  <course>266.03</course>
  <speed>0.0</speed>
  <fix>3d</fix>
</trkpt>
<trkpt lat="40.0728419" lon="-105.2305749">
  <ele>1586.18</ele>
  <time>2026-08-28T19:06:21Z</time>
  <course>11.02</course>
  <speed>0.01414213562373095</speed>
  <fix>3d</fix>
</trkpt>
<trkpt lat="40.072842" lon="-105.230575">
  <ele>1586.09</ele>
  <time>2026-08-28T19:06:21Z</time>
  <course>266.03</course>
  <speed>0.0</speed>
  <fix>3d</fix>
</trkpt>
<trkpt lat="40.0728419" lon="-105.2305749">
  <ele>1586.19</ele>
  <time>2026-08-28T19:06:21Z</time>
  <course>11.02</course>
  <speed>0.01414213562373095</speed>
  <fix>3d</fix>
</trkpt>
<trkpt lat="40.072842" lon="-105.230575">
  <ele>1586.09</ele>
  <time>2026-08-28T19:06:21Z</time>
  <course>266.03</course>
  <speed>0.0</speed>
  <fix>3d</fix>
</trkpt>
<trkpt lat="40.0728419" lon="-105.2305749">
  <ele>1586.2</ele>
  <time>2026-08-28T19:06:21Z</time>
  <course>11.02</course>
  <speed>0.01414213562373095</speed>
  <fix>3d</fix>
</trkpt>
<trkpt lat="40.072842" lon="-105.230575">
  <ele>1586.09</ele>
  <time>2026-08-28T19:06:21Z</time>
  <course>266.03</course>
  <speed>0.0</speed>
  <fix>3d</fix>
</trkpt>
<trkpt lat="40.0728419" lon="-105.2305749">
  <ele>1586.2</ele>
  <time>2026-08-28T19:06:21Z</time>
  <course>11.02</course>
  <speed>0.01414213562373095</speed>
  <fix>3d</fix>
</trkpt>
<trkpt lat="40.072842" lon="-105.230575">
  <ele>1586.09</ele>
  <time>2026-08-28T19:06:21Z</time>
  <course>266.03</course>
  <speed>0.0</speed>
  <fix>3d</fix>
</trkpt>
<trkpt lat="40.0728419" lon="-105.2305749">
  <ele>1586.2</ele>
  <time>2026-08-28T19:06:21Z</time>
  <course>11.02</course>
  <speed>0.01414213562373095</speed>
  <fix>3d</fix>
</trkpt>
<trkpt lat="40.072842" lon="-105.230575">
  <ele>1586.09</ele>
  <time>2026-08-28T19:06:21Z</time>
  <course>266.03</course>
  <speed>0.0</speed>
  <fix>3d</fix>
</trkpt>
<trkpt lat="40.0728419" lon="-105.2305749">
  <ele>1586.2</ele>
  <time>2026-08-28T19:06:21Z</time>
  <course>11.02</course>
  <speed>0.01414213562373095</speed>
  <fix>3d</fix>
</trkpt>
<trkpt lat="40.072842" lon="-105.230575">
  <ele>1586.09</ele>
  <time>2026-08-28T19:06:21Z</time>
  <course>266.03</course>
  <speed>0.0</speed>
  <fix>3d</fix>
</trkpt>
<trkpt lat="40.0728419" lon="-105.2305749">
  <ele>1586.2</ele>
  <time>2026-08-28T19:06:21Z</time>
  <course>11.01</course>
  <speed>0.01414213562373095</speed>
  <fix>3d</fix>
</trkpt>
<trkpt lat="40.072842" lon="-105.230575">
  <ele>1586.09</ele>
  <time>2026-08-28T19:06:21Z</time>
  <course>266.03</course>
  <speed>0.0</speed>
  <fix>3d</fix>
</trkpt>
<trkpt lat="40.0728419" lon="-105.2305749">
  <ele>1586.21</ele>
  <time>2026-08-28T19:06:21Z</time>
  <course>11.01</course>
  <speed>0.01414213562373095</speed>
  <fix>3d</fix>
</trkpt>
<trkpt lat="40.072842" lon="-105.230575">
  <ele>1586.09</ele>
  <time>2026-08-28T19:06:21Z</time>
  <course>266.03</course>
  <speed>0.0</speed>
  <fix>3d</fix>
</trkpt>
<trkpt lat="40.0728419" lon="-105.2305749">
  <ele>1586.21</ele>
  <time>2026-08-28T19:06:21Z</time>
  <course>11.01</course>
  <speed>0.01414213562373095</speed>
  <fix>3d</fix>
</trkpt>
<trkpt lat="40.072842" lon="-105.230575">
  <ele>1586.09</ele>
  <time>2026-08-28T19:06:21Z</time>
  <course>266.03</course>
  <speed>0.0</speed>
  <fix>3d</fix>
</trkpt>
<trkpt lat="40.0728419" lon="-105.2305749">
  <ele>1586.21</ele>
  <time>2026-08-28T19:06:21Z</time>
  <course>11.01</course>
  <speed>0.01414213562373095</speed>
  <fix>3d</fix>
</trkpt>
<trkpt lat="40.072842" lon="-105.230575">
  <ele>1586.09</ele>
  <time>2026-08-28T19:06:21Z</time>
  <course>266.03</course>
  <speed>0.0</speed>
  <fix>3d</fix>
</trkpt>
<trkpt lat="40.0728419" lon="-105.2305749">
  <ele>1586.21</ele>
  <time>2026-08-28T19:06:21Z</time>
  <course>11.01</course>
  <speed>0.01414213562373095</speed>
  <fix>3d</fix>
</trkpt>
<trkpt lat="40.072842" lon="-105.230575">
  <ele>1586.09</ele>
  <time>2026-08-28T19:06:21Z</time>
  <course>266.03</course>
  <speed>0.0</speed>
  <fix>3d</fix>
</trkpt>
<trkpt lat="40.0728419" lon="-105.2305749">
  <ele>1586.2</ele>
  <time>2026-08-28T19:06:21Z</time>
  <course>11.01</course>
  <speed>0.01414213562373095</speed>
  <fix>3d</fix>
</trkpt>
<trkpt lat="40.072842" lon="-105.230575">
  <ele>1586.09</ele>
  <time>2026-08-28T19:06:21Z</time>
  <course>266.03</course>
  <speed>0.0</speed>
  <fix>3d</fix>
</trkpt>
<trkpt lat="40.0728419" lon="-105.2305749">
  <ele>1586.2</ele>
  <time>2026-08-28T19:06:21Z</time>
  <course>11.01</course>
  <speed>0.01414213562373095</speed>
  <fix>3d</fix>
</trkpt>
<trkpt lat="40.072842" lon="-105.230575">
  <ele>1586.09</ele>
  <time>2026-08-28T19:06:21Z</time>
  <course>266.03</course>
  <speed>0.0</speed>
  <fix>3d</fix>
</trkpt>
<trkpt lat="40.0728419" lon="-105.2305749">
  <ele>1586.2</ele>
  <time>2026-08-28T19:06:21Z</time>
  <course>11.0</course>
  <speed>0.01414213562373095</speed>
  <fix>3d</fix>
</trkpt>
<trkpt lat="40.072842" lon="-105.230575">
  <ele>1586.09</ele>
  <time>2026-08-28T19:06:21Z</time>
  <course>266.03</course>
  <speed>0.0</speed>
  <fix>3d</fix>
</trkpt>
<trkpt lat="40.0728419" lon="-105.2305749">
  <ele>1586.19</ele>
  <time>2026-08-28T19:06:21Z</time>
  <course>11.0</course>
  <speed>0.01414213562373095</speed>
  <fix>3d</fix>
</trkpt>
<trkpt lat="40.072842" lon="-105.230575">
  <ele>1586.09</ele>
  <time>2026-08-28T19:06:21Z</time>
  <course>266.03</course>
  <speed>0.0</speed>
  <fix>3d</fix>
</trkpt>
<trkpt lat="40.0728419" lon="-105.2305749">
  <ele>1586.19</ele>
  <time>2026-08-28T19:06:21Z</time>
  <course>11.0</course>
  <speed>0.01414213562373095</speed>
  <fix>3d</fix>
</trkpt>
<trkpt lat="40.072842" lon="-105.230575">
  <ele>1586.09</ele>
  <time>2026-08-28T19:06:21Z</time>
  <course>266.03</course>
  <speed>0.0</speed>
  <fix>3d</fix>
</trkpt>
<trkpt lat="40.0728419" lon="-105.2305749">
  <ele>1586.19</ele>
  <time>2026-08-28T19:06:21Z</time>
  <course>11.0</course>
  <speed>0.01414213562373095</speed>
  <fix>3d</fix>
</trkpt>
<trkpt lat="40.072842" lon="-105.230575">
  <ele>1586.09</ele>
  <time>2026-08-28T19:06:21Z</time>
  <course>266.03</course>
  <speed>0.0</speed>
  <fix>3d</fix>
</trkpt>
<trkpt lat="40.0728419" lon="-105.2305749">
  <ele>1586.19</ele>
  <time>2026-08-28T19:06:21Z</time>
  <course>11.0</course>
  <speed>0.01414213562373095</speed>
  <fix>3d</fix>
</trkpt>
<trkpt lat="40.072842" lon="-105.230575">
  <ele>1586.09</ele>
  <time>2026-08-28T19:06:21Z</time>
  <course>266.03</course>
  <speed>0.0</speed>
  <fix>3d</fix>
</trkpt>
<trkpt lat="40.0728419" lon="-105.2305749">
  <ele>1586.2</ele>
  <time>2026-08-28T19:06:21Z</time>
  <course>11.0</course>
  <speed>0.01414213562373095</speed>
  <fix>3d</fix>
</trkpt>
<trkpt lat="40.072842" lon="-105.230575">
  <ele>1586.09</ele>
  <time>2026-08-28T19:06:21Z</time>
  <course>266.03</course>
  <speed>0.0</speed>
  <fix>3d</fix>
</trkpt>
<trkpt lat="40.0728419" lon="-105.2305749">
  <ele>1586.2</ele>
  <time>2026-08-28T19:06:21Z</time>
  <course>11.0</course>
  <speed>0.01414213562373095</speed>
  <fix>3d</fix>
</trkpt>
<trkpt lat="40.072842" lon="-105.230575">
  <ele>1586.09</ele>
  <time>2026-08-28T19:06:21Z</time>
  <course>266.03</course>
  <speed>0.0</speed>
  <fix>3d</fix>
</trkpt>
<trkpt lat="40.0728419" lon="-105.2305749">
  <ele>1586.2</ele>
  <time>2026-08-28T19:06:21Z</time>
  <course>11.0</course>
  <speed>0.01414213562373095</speed>
  <fix>3d</fix>
</trkpt>
<trkpt lat="40.072842" lon="-105.230575">
  <ele>1586.09</ele>
  <time>2026-08-28T19:06:21Z</time>
  <course>266.03</course>
  <speed>0.0</speed>
  <fix>3d</fix>
</trkpt>
<trkpt lat="40.0728419" lon="-105.2305749">
  <ele>1586.2</ele>
  <time>2026-08-28T19:06:21Z</time>
  <course>11.0</course>
  <speed>0.01414213562373095</speed>
  <fix>3d</fix>
</trkpt>
<trkpt lat="40.072842" lon="-105.230575">
  <ele>1586.09</ele>
  <time>2026-08-28T19:06:21Z</time>
  <course>266.03</course>
  <speed>0.0</speed>
  <fix>3d</fix>
</trkpt>
<trkpt lat="40.0728419" lon="-105.2305749">
  <ele>1586.2</ele>
  <time>2026-08-28T19:06:21Z</time>
  <course>10.99</course>
  <speed>0.01414213562373095</speed>
  <fix>3d</fix>
</trkpt>
<trkpt lat="40.072842" lon="-105.230575">
  <ele>1586.09</ele>
  <time>2026-08-28T19:06:21Z</time>
  <course>266.03</course>
  <speed>0.0</speed>
  <fix>3d</fix>
</trkpt>
<trkpt lat="40.0728419" lon="-105.2305749">
  <ele>1586.2</ele>
  <time>2026-08-28T19:06:21Z</time>
  <course>10.99</course>
  <speed>0.01414213562373095</speed>
  <fix>3d</fix>
</trkpt>
<trkpt lat="40.072842" lon="-105.230575">
  <ele>1586.09</ele>
  <time>2026-08-28T19:06:21Z</time>
  <course>266.03</course>
  <speed>0.0</speed>
  <fix>3d</fix>
</trkpt>
<trkpt lat="40.0728419" lon="-105.2305749">
  <ele>1586.19</ele>
  <time>2026-08-28T19:06:21Z</time>
  <course>10.99</course>
  <speed>0.01414213562373095</speed>
  <fix>3d</fix>
</trkpt>
<trkpt lat="40.072842" lon="-105.230575">
  <ele>1586.09</ele>
  <time>2026-08-28T19:06:21Z</time>
  <course>266.03</course>
  <speed>0.0</speed>
  <fix>3d</fix>
</trkpt>
<trkpt lat="40.0728419" lon="-105.2305749">
  <ele>1586.19</ele>
  <time>2026-08-28T19:06:21Z</time>
  <course>10.99</course>
  <speed>0.01414213562373095</speed>
  <fix>3d</fix>
</trkpt>
<trkpt lat="40.072842" lon="-105.230575">
  <ele>1586.09</ele>
  <time>2026-08-28T19:06:21Z</time>
  <course>266.03</course>
  <speed>0.0</speed>
  <fix>3d</fix>
</trkpt>
<trkpt lat="40.0728419" lon="-105.2305749">
  <ele>1586.18</ele>
  <time>2026-08-28T19:06:21Z</time>
  <course>10.99</course>
  <speed>0.01414213562373095</speed>
  <fix>3d</fix>
</trkpt>
<trkpt lat="40.072842" lon="-105.230575">
  <ele>1586.09</ele>
  <time>2026-08-28T19:06:21Z</time>
  <course>266.03</course>
  <speed>0.0</speed>
  <fix>3d</fix>
</trkpt>
<trkpt lat="40.0728419" lon="-105.2305749">
  <ele>1586.18</ele>
  <time>2026-08-28T19:06:21Z</time>
  <course>10.99</course>
  <speed>0.01414213562373095</speed>
  <fix>3d</fix>
</trkpt>
<trkpt lat="40.072842" lon="-105.230575">
  <ele>1586.09</ele>
  <time>2026-08-28T19:06:21Z</time>
  <course>266.03</course>
  <speed>0.0</speed>
  <fix>3d</fix>
</trkpt>
<trkpt lat="40.0728419" lon="-105.2305749">
  <ele>1586.18</ele>
  <time>2026-08-28T19:06:21Z</time>
  <course>10.99</course>
  <speed>0.01414213562373095</speed>
  <fix>3d</fix>
</trkpt>
<trkpt lat="40.072842" lon="-105.230575">
  <ele>1586.09</ele>
  <time>2026-08-28T19:06:21Z</time>
  <course>266.03</course>
  <speed>0.0</speed>
  <fix>3d</fix>
</trkpt>
<trkpt lat="40.0728419" lon="-105.2305749">
  <ele>1586.18</ele>
  <time>2026-08-28T19:06:21Z</time>
  <course>10.99</course>
  <speed>0.01414213562373095</speed>
  <fix>3d</fix>
</trkpt>
<trkpt lat="40.072842" lon="-105.230575">
  <ele>1586.09</ele>
  <time>2026-08-28T19:06:21Z</time>
  <course>266.03</course>
  <speed>0.0</speed>
  <fix>3d</fix>
</trkpt>
<trkpt lat="40.0728419" lon="-105.2305749">
  <ele>1586.18</ele>
  <time>2026-08-28T19:06:21Z</time>
  <course>10.99</course>
  <speed>0.01414213562373095</speed>
  <fix>3d</fix>
</trkpt>
<trkpt lat="40.072842" lon="-105.230575">
  <ele>1586.09</ele>
  <time>2026-08-28T19:06:21Z</time>
  <course>266.03</course>
  <speed>0.0</speed>
  <fix>3d</fix>
</trkpt>
<trkpt lat="40.0728419" lon="-105.2305749">
  <ele>1586.17</ele>
  <time>2026-08-28T19:06:21Z</time>
  <course>10.99</course>
  <speed>0.01414213562373095</speed>
  <fix>3d</fix>
</trkpt>
<trkpt lat="40.072842" lon="-105.230575">
  <ele>1586.09</ele>
  <time>2026-08-28T19:06:21Z</time>
  <course>266.03</course>
  <speed>0.0</speed>
  <fix>3d</fix>
</trkpt>
<trkpt lat="40.0728419" lon="-105.2305749">
  <ele>1586.17</ele>
  <time>2026-08-28T19:06:21Z</time>
  <course>10.98</course>
  <speed>0.01414213562373095</speed>
  <fix>3d</fix>
</trkpt>
<trkpt lat="40.072842" lon="-105.230575">
  <ele>1586.09</ele>
  <time>2026-08-28T19:06:21Z</time>
  <course>266.03</course>
  <speed>0.0</speed>
  <fix>3d</fix>
</trkpt>
<trkpt lat="40.0728419" lon="-105.2305749">
  <ele>1586.17</ele>
  <time>2026-08-28T19:06:21Z</time>
  <course>10.98</course>
  <speed>0.01414213562373095</speed>
  <fix>3d</fix>
</trkpt>
<trkpt lat="40.072842" lon="-105.230575">
  <ele>1586.09</ele>
  <time>2026-08-28T19:06:21Z</time>
  <course>266.03</course>
  <speed>0.0</speed>
  <fix>3d</fix>
</trkpt>
<trkpt lat="40.0728419" lon="-105.2305749">
  <ele>1586.17</ele>
  <time>2026-08-28T19:06:22Z</time>
  <course>10.98</course>
  <speed>0.01414213562373095</speed>
  <fix>3d</fix>
</trkpt>
<trkpt lat="40.072842" lon="-105.230575">
  <ele>1586.09</ele>
  <time>2026-08-28T19:06:22Z</time>
  <course>266.03</course>
  <speed>0.0</speed>
  <fix>3d</fix>
</trkpt>
<trkpt lat="40.0728419" lon="-105.2305749">
  <ele>1586.17</ele>
  <time>2026-08-28T19:06:22Z</time>
  <course>10.98</course>
  <speed>0.01414213562373095</speed>
  <fix>3d</fix>
</trkpt>
<trkpt lat="40.072842" lon="-105.230575">
  <ele>1586.09</ele>
  <time>2026-08-28T19:06:22Z</time>
  <course>266.03</course>
  <speed>0.0</speed>
  <fix>3d</fix>
</trkpt>
<trkpt lat="40.0728419" lon="-105.2305749">
  <ele>1586.16</ele>
  <time>2026-08-28T19:06:22Z</time>
  <course>10.98</course>
  <speed>0.01414213562373095</speed>
  <fix>3d</fix>
</trkpt>
<trkpt lat="40.072842" lon="-105.230575">
  <ele>1586.09</ele>
  <time>2026-08-28T19:06:22Z</time>
  <course>266.03</course>
  <speed>0.0</speed>
  <fix>3d</fix>
</trkpt>
<trkpt lat="40.0728419" lon="-105.2305749">
  <ele>1586.16</ele>
  <time>2026-08-28T19:06:22Z</time>
  <course>10.98</course>
  <speed>0.01414213562373095</speed>
  <fix>3d</fix>
</trkpt>
<trkpt lat="40.072842" lon="-105.230575">
  <ele>1586.09</ele>
  <time>2026-08-28T19:06:22Z</time>
  <course>266.03</course>
  <speed>0.0</speed>
  <fix>3d</fix>
</trkpt>
<trkpt lat="40.0728419" lon="-105.2305749">
  <ele>1586.16</ele>
  <time>2026-08-28T19:06:22Z</time>
  <course>10.98</course>
  <speed>0.01414213562373095</speed>
  <fix>3d</fix>
</trkpt>
<trkpt lat="40.072842" lon="-105.230575">
  <ele>1586.09</ele>
  <time>2026-08-28T19:06:22Z</time>
  <course>266.03</course>
  <speed>0.0</speed>
  <fix>3d</fix>
</trkpt>
<trkpt lat="40.0728419" lon="-105.2305749">
  <ele>1586.16</ele>
  <time>2026-08-28T19:06:22Z</time>
  <course>10.98</course>
  <speed>0.01414213562373095</speed>
  <fix>3d</fix>
</trkpt>
<trkpt lat="40.072842" lon="-105.230575">
  <ele>1586.09</ele>
  <time>2026-08-28T19:06:22Z</time>
  <course>266.03</course>
  <speed>0.0</speed>
  <fix>3d</fix>
</trkpt>
<trkpt lat="40.0728419" lon="-105.2305749">
  <ele>1586.16</ele>
  <time>2026-08-28T19:06:22Z</time>
  <course>10.98</course>
  <speed>0.01414213562373095</speed>
  <fix>3d</fix>
</trkpt>
<trkpt lat="40.072842" lon="-105.230575">
  <ele>1586.09</ele>
  <time>2026-08-28T19:06:22Z</time>
  <course>266.03</course>
  <speed>0.0</speed>
  <fix>3d</fix>
</trkpt>
<trkpt lat="40.0728419" lon="-105.2305749">
  <ele>1586.16</ele>
  <time>2026-08-28T19:06:22Z</time>
  <course>10.98</course>
  <speed>0.01414213562373095</speed>
  <fix>3d</fix>
</trkpt>
<trkpt lat="40.072842" lon="-105.230575">
  <ele>1586.09</ele>
  <time>2026-08-28T19:06:22Z</time>
  <course>266.03</course>
  <speed>0.0</speed>
  <fix>3d</fix>
</trkpt>
<trkpt lat="40.0728419" lon="-105.2305749">
  <ele>1586.15</ele>
  <time>2026-08-28T19:06:22Z</time>
  <course>10.98</course>
  <speed>0.01414213562373095</speed>
  <fix>3d</fix>
</trkpt>
<trkpt lat="40.072842" lon="-105.230575">
  <ele>1586.09</ele>
  <time>2026-08-28T19:06:22Z</time>
  <course>266.03</course>
  <speed>0.0</speed>
  <fix>3d</fix>
</trkpt>
<trkpt lat="40.0728419" lon="-105.2305749">
  <ele>1586.16</ele>
  <time>2026-08-28T19:06:22Z</time>
  <course>10.97</course>
  <speed>0.01414213562373095</speed>
  <fix>3d</fix>
</trkpt>
<trkpt lat="40.072842" lon="-105.230575">
  <ele>1586.09</ele>
  <time>2026-08-28T19:06:22Z</time>
  <course>266.03</course>
  <speed>0.0</speed>
  <fix>3d</fix>
</trkpt>
<trkpt lat="40.0728419" lon="-105.2305749">
  <ele>1586.16</ele>
  <time>2026-08-28T19:06:22Z</time>
  <course>10.97</course>
  <speed>0.01414213562373095</speed>
  <fix>3d</fix>
</trkpt>
<trkpt lat="40.072842" lon="-105.230575">
  <ele>1586.09</ele>
  <time>2026-08-28T19:06:22Z</time>
  <course>266.03</course>
  <speed>0.0</speed>
  <fix>3d</fix>
</trkpt>
<trkpt lat="40.0728419" lon="-105.2305749">
  <ele>1586.16</ele>
  <time>2026-08-28T19:06:22Z</time>
  <course>10.97</course>
  <speed>0.01414213562373095</speed>
  <fix>3d</fix>
</trkpt>
<trkpt lat="40.072842" lon="-105.230575">
  <ele>1586.09</ele>
  <time>2026-08-28T19:06:22Z</time>
  <course>266.03</course>
  <speed>0.0</speed>
  <fix>3d</fix>
</trkpt>
<trkpt lat="40.0728419" lon="-105.2305749">
  <ele>1586.15</ele>
  <time>2026-08-28T19:06:22Z</time>
  <course>10.97</course>
  <speed>0.01414213562373095</speed>
  <fix>3d</fix>
</trkpt>
<trkpt lat="40.072842" lon="-105.230575">
  <ele>1586.09</ele>
  <time>2026-08-28T19:06:22Z</time>
  <course>266.03</course>
  <speed>0.0</speed>
  <fix>3d</fix>
</trkpt>
<trkpt lat="40.0728419" lon="-105.2305749">
  <ele>1586.15</ele>
  <time>2026-08-28T19:06:22Z</time>
  <course>10.97</course>
  <speed>0.01414213562373095</speed>
  <fix>3d</fix>
</trkpt>
<trkpt lat="40.072842" lon="-105.230575">
  <ele>1586.09</ele>
  <time>2026-08-28T19:06:22Z</time>
  <course>266.03</course>
  <speed>0.0</speed>
  <fix>3d</fix>
</trkpt>
<trkpt lat="40.0728419" lon="-105.2305749">
  <ele>1586.16</ele>
  <time>2026-08-28T19:06:22Z</time>
  <course>10.97</course>
  <speed>0.01414213562373095</speed>
  <fix>3d</fix>
</trkpt>
<trkpt lat="40.072842" lon="-105.230575">
  <ele>1586.09</ele>
  <time>2026-08-28T19:06:22Z</time>
  <course>266.03</course>
  <speed>0.0</speed>
  <fix>3d</fix>
</trkpt>
<trkpt lat="40.0728419" lon="-105.2305749">
  <ele>1586.16</ele>
  <time>2026-08-28T19:06:22Z</time>
  <course>10.97</course>
  <speed>0.01414213562373095</speed>
  <fix>3d</fix>
</trkpt>
<trkpt lat="40.072842" lon="-105.230575">
  <ele>1586.09</ele>
  <time>2026-08-28T19:06:22Z</time>
  <course>266.03</course>
  <speed>0.0</speed>
  <fix>3d</fix>
</trkpt>
<trkpt lat="40.0728419" lon="-105.2305749">
  <ele>1586.16</ele>
  <time>2026-08-28T19:06:22Z</time>
  <course>10.97</course>
  <speed>0.01414213562373095</speed>
  <fix>3d</fix>
</trkpt>
<trkpt lat="40.072842" lon="-105.230575">
  <ele>1586.09</ele>
  <time>2026-08-28T19:06:22Z</time>
  <course>266.03</course>
  <speed>0.0</speed>
  <fix>3d</fix>
</trkpt>
<trkpt lat="40.0728419" lon="-105.2305749">
  <ele>1586.16</ele>
  <time>2026-08-28T19:06:22Z</time>
  <course>10.97</course>
  <speed>0.01414213562373095</speed>
  <fix>3d</fix>
</trkpt>
<trkpt lat="40.072842" lon="-105.230575">
  <ele>1586.09</ele>
  <time>2026-08-28T19:06:22Z</time>
  <course>266.03</course>
  <speed>0.0</speed>
  <fix>3d</fix>
</trkpt>
<trkpt lat="40.0728419" lon="-105.2305749">
  <ele>1586.15</ele>
  <time>2026-08-28T19:06:22Z</time>
  <course>10.97</course>
  <speed>0.01414213562373095</speed>
  <fix>3d</fix>
</trkpt>
<trkpt lat="40.072842" lon="-105.230575">
  <ele>1586.09</ele>
  <time>2026-08-28T19:06:22Z</time>
  <course>266.03</course>
  <speed>0.0</speed>
  <fix>3d</fix>
</trkpt>
<trkpt lat="40.0728419" lon="-105.2305749">
  <ele>1586.15</ele>
  <time>2026-08-28T19:06:22Z</time>
  <course>10.97</course>
  <speed>0.01414213562373095</speed>
  <fix>3d</fix>
</trkpt>
<trkpt lat="40.072842" lon="-105.230575">
  <ele>1586.09</ele>
  <time>2026-08-28T19:06:22Z</time>
  <course>266.03</course>
  <speed>0.0</speed>
  <fix>3d</fix>
</trkpt>
<trkpt lat="40.0728419" lon="-105.2305749">
  <ele>1586.15</ele>
  <time>2026-08-28T19:06:22Z</time>
  <course>10.97</course>
  <speed>0.01414213562373095</speed>
  <fix>3d</fix>
</trkpt>
<trkpt lat="40.072842" lon="-105.230575">
  <ele>1586.09</ele>
  <time>2026-08-28T19:06:22Z</time>
  <course>266.03</course>
  <speed>0.0</speed>
  <fix>3d</fix>
</trkpt>
<trkpt lat="40.0728419" lon="-105.2305749">
  <ele>1586.14</ele>
  <time>2026-08-28T19:06:22Z</time>
  <course>10.97</course>
  <speed>0.01414213562373095</speed>
  <fix>3d</fix>
</trkpt>
<trkpt lat="40.072842" lon="-105.230575">
  <ele>1586.09</ele>
  <time>2026-08-28T19:06:22Z</time>
  <course>266.03</course>
  <speed>0.0</speed>
  <fix>3d</fix>
</trkpt>
<trkpt lat="40.0728419" lon="-105.2305749">
  <ele>1586.14</ele>
  <time>2026-08-28T19:06:22Z</time>
  <course>10.97</course>
  <speed>0.01414213562373095</speed>
  <fix>3d</fix>
</trkpt>
<trkpt lat="40.072842" lon="-105.230575">
  <ele>1586.09</ele>
  <time>2026-08-28T19:06:22Z</time>
  <course>266.03</course>
  <speed>0.0</speed>
  <fix>3d</fix>
</trkpt>
<trkpt lat="40.0728419" lon="-105.2305749">
  <ele>1586.14</ele>
  <time>2026-08-28T19:06:22Z</time>
  <course>10.97</course>
  <speed>0.01414213562373095</speed>
  <fix>3d</fix>
</trkpt>
<trkpt lat="40.072842" lon="-105.230575">
  <ele>1586.09</ele>
  <time>2026-08-28T19:06:22Z</time>
  <course>266.03</course>
  <speed>0.0</speed>
  <fix>3d</fix>
</trkpt>
<trkpt lat="40.0728419" lon="-105.2305749">
  <ele>1586.14</ele>
  <time>2026-08-28T19:06:22Z</time>
  <course>10.97</course>
  <speed>0.01414213562373095</speed>
  <fix>3d</fix>
</trkpt>
<trkpt lat="40.072842" lon="-105.230575">
  <ele>1586.09</ele>
  <time>2026-08-28T19:06:22Z</time>
  <course>266.03</course>
  <speed>0.0</speed>
  <fix>3d</fix>
</trkpt>
<trkpt lat="40.0728419" lon="-105.2305749">
  <ele>1586.14</ele>
  <time>2026-08-28T19:06:22Z</time>
  <course>10.96</course>
  <speed>0.01414213562373095</speed>
  <fix>3d</fix>
</trkpt>
<trkpt lat="40.072842" lon="-105.230575">
  <ele>1586.09</ele>
  <time>2026-08-28T19:06:22Z</time>
  <course>266.03</course>
  <speed>0.0</speed>
  <fix>3d</fix>
</trkpt>
<trkpt lat="40.0728419" lon="-105.2305749">
  <ele>1586.13</ele>
  <time>2026-08-28T19:06:22Z</time>
  <course>10.96</course>
  <speed>0.01414213562373095</speed>
  <fix>3d</fix>
</trkpt>
<trkpt lat="40.072842" lon="-105.230575">
  <ele>1586.09</ele>
  <time>2026-08-28T19:06:22Z</time>
  <course>266.03</course>
  <speed>0.0</speed>
  <fix>3d</fix>
</trkpt>
<trkpt lat="40.0728419" lon="-105.2305749">
  <ele>1586.13</ele>
  <time>2026-08-28T19:06:22Z</time>
  <course>10.96</course>
  <speed>0.01414213562373095</speed>
  <fix>3d</fix>
</trkpt>
<trkpt lat="40.072842" lon="-105.230575">
  <ele>1586.09</ele>
  <time>2026-08-28T19:06:22Z</time>
  <course>266.03</course>
  <speed>0.0</speed>
  <fix>3d</fix>
</trkpt>
<trkpt lat="40.0728419" lon="-105.2305749">
  <ele>1586.13</ele>
  <time>2026-08-28T19:06:22Z</time>
  <course>10.96</course>
  <speed>0.01414213562373095</speed>
  <fix>3d</fix>
</trkpt>
<trkpt lat="40.072842" lon="-105.230575">
  <ele>1586.09</ele>
  <time>2026-08-28T19:06:22Z</time>
  <course>266.03</course>
  <speed>0.0</speed>
  <fix>3d</fix>
</trkpt>
<trkpt lat="40.0728419" lon="-105.2305749">
  <ele>1586.13</ele>
  <time>2026-08-28T19:06:22Z</time>
  <course>10.96</course>
  <speed>0.01414213562373095</speed>
  <fix>3d</fix>
</trkpt>
<trkpt lat="40.072842" lon="-105.230575">
  <ele>1586.09</ele>
  <time>2026-08-28T19:06:22Z</time>
  <course>266.03</course>
  <speed>0.0</speed>
  <fix>3d</fix>
</trkpt>
<trkpt lat="40.0728419" lon="-105.2305749">
  <ele>1586.14</ele>
  <time>2026-08-28T19:06:22Z</time>
  <course>10.96</course>
  <speed>0.01414213562373095</speed>
  <fix>3d</fix>
</trkpt>
<trkpt lat="40.072842" lon="-105.230575">
  <ele>1586.09</ele>
  <time>2026-08-28T19:06:22Z</time>
  <course>266.03</course>
  <speed>0.0</speed>
  <fix>3d</fix>
</trkpt>
<trkpt lat="40.0728419" lon="-105.2305749">
  <ele>1586.15</ele>
  <time>2026-08-28T19:06:22Z</time>
  <course>10.96</course>
  <speed>0.01414213562373095</speed>
  <fix>3d</fix>
</trkpt>
<trkpt lat="40.072842" lon="-105.230575">
  <ele>1586.09</ele>
  <time>2026-08-28T19:06:22Z</time>
  <course>266.03</course>
  <speed>0.0</speed>
  <fix>3d</fix>
</trkpt>
<trkpt lat="40.0728419" lon="-105.2305749">
  <ele>1586.15</ele>
  <time>2026-08-28T19:06:22Z</time>
  <course>10.96</course>
  <speed>0.01414213562373095</speed>
  <fix>3d</fix>
</trkpt>
<trkpt lat="40.072842" lon="-105.230575">
  <ele>1586.09</ele>
  <time>2026-08-28T19:06:22Z</time>
  <course>266.03</course>
  <speed>0.0</speed>
  <fix>3d</fix>
</trkpt>
<trkpt lat="40.0728419" lon="-105.2305749">
  <ele>1586.16</ele>
  <time>2026-08-28T19:06:22Z</time>
  <course>10.96</course>
  <speed>0.01414213562373095</speed>
  <fix>3d</fix>
</trkpt>
<trkpt lat="40.072842" lon="-105.230575">
  <ele>1586.09</ele>
  <time>2026-08-28T19:06:22Z</time>
  <course>266.03</course>
  <speed>0.0</speed>
  <fix>3d</fix>
</trkpt>
<trkpt lat="40.0728419" lon="-105.2305749">
  <ele>1586.16</ele>
  <time>2026-08-28T19:06:22Z</time>
  <course>10.96</course>
  <speed>0.01414213562373095</speed>
  <fix>3d</fix>
</trkpt>
<trkpt lat="40.072842" lon="-105.230575">
  <ele>1586.09</ele>
  <time>2026-08-28T19:06:22Z</time>
  <course>266.03</course>
  <speed>0.0</speed>
  <fix>3d</fix>
</trkpt>
<trkpt lat="40.0728419" lon="-105.2305749">
  <ele>1586.16</ele>
  <time>2026-08-28T19:06:22Z</time>
  <course>10.96</course>
  <speed>0.01414213562373095</speed>
  <fix>3d</fix>
</trkpt>
<trkpt lat="40.072842" lon="-105.230575">
  <ele>1586.09</ele>
  <time>2026-08-28T19:06:22Z</time>
  <course>266.03</course>
  <speed>0.0</speed>
  <fix>3d</fix>
</trkpt>
<trkpt lat="40.0728419" lon="-105.2305749">
  <ele>1586.16</ele>
  <time>2026-08-28T19:06:22Z</time>
  <course>10.96</course>
  <speed>0.01414213562373095</speed>
  <fix>3d</fix>
</trkpt>
<trkpt lat="40.072842" lon="-105.230575">
  <ele>1586.09</ele>
  <time>2026-08-28T19:06:22Z</time>
  <course>266.03</course>
  <speed>0.0</speed>
  <fix>3d</fix>
</trkpt>
<trkpt lat="40.0728419" lon="-105.2305749">
  <ele>1586.17</ele>
  <time>2026-08-28T19:06:22Z</time>
  <course>10.96</course>
  <speed>0.01414213562373095</speed>
  <fix>3d</fix>
</trkpt>
<trkpt lat="40.072842" lon="-105.230575">
  <ele>1586.09</ele>
  <time>2026-08-28T19:06:22Z</time>
  <course>266.03</course>
  <speed>0.0</speed>
  <fix>3d</fix>
</trkpt>
<trkpt lat="40.0728419" lon="-105.2305749">
  <ele>1586.17</ele>
  <time>2026-08-28T19:06:22Z</time>
  <course>10.96</course>
  <speed>0.01414213562373095</speed>
  <fix>3d</fix>
</trkpt>
<trkpt lat="40.072842" lon="-105.230575">
  <ele>1586.09</ele>
  <time>2026-08-28T19:06:22Z</time>
  <course>266.03</course>
  <speed>0.0</speed>
  <fix>3d</fix>
</trkpt>
<trkpt lat="40.0728419" lon="-105.2305749">
  <ele>1586.17</ele>
  <time>2026-08-28T19:06:22Z</time>
  <course>10.96</course>
  <speed>0.01414213562373095</speed>
  <fix>3d</fix>
</trkpt>
<trkpt lat="40.072842" lon="-105.230575">
  <ele>1586.09</ele>
  <time>2026-08-28T19:06:22Z</time>
  <course>266.03</course>
  <speed>0.0</speed>
  <fix>3d</fix>
</trkpt>
<trkpt lat="40.0728419" lon="-105.2305749">
  <ele>1586.16</ele>
  <time>2026-08-28T19:06:22Z</time>
  <course>10.96</course>
  <speed>0.01414213562373095</speed>
  <fix>3d</fix>
</trkpt>
<trkpt lat="40.072842" lon="-105.230575">
  <ele>1586.09</ele>
  <time>2026-08-28T19:06:22Z</time>
  <course>266.03</course>
  <speed>0.0</speed>
  <fix>3d</fix>
</trkpt>
<trkpt lat="40.0728419" lon="-105.2305749">
  <ele>1586.16</ele>
  <time>2026-08-28T19:06:22Z</time>
  <course>10.96</course>
  <speed>0.01414213562373095</speed>
  <fix>3d</fix>
</trkpt>
<trkpt lat="40.072842" lon="-105.230575">
  <ele>1586.09</ele>
  <time>2026-08-28T19:06:22Z</time>
  <course>266.03</course>
  <speed>0.0</speed>
  <fix>3d</fix>
</trkpt>
<trkpt lat="40.0728419" lon="-105.2305749">
  <ele>1586.16</ele>
  <time>2026-08-28T19:06:22Z</time>
  <course>10.96</course>
  <speed>0.01414213562373095</speed>
  <fix>3d</fix>
</trkpt>
<trkpt lat="40.072842" lon="-105.230575">
  <ele>1586.09</ele>
  <time>2026-08-28T19:06:22Z</time>
  <course>266.03</course>
  <speed>0.0</speed>
  <fix>3d</fix>
</trkpt>
<trkpt lat="40.0728419" lon="-105.2305749">
  <ele>1586.16</ele>
  <time>2026-08-28T19:06:22Z</time>
  <course>10.96</course>
  <speed>0.01414213562373095</speed>
  <fix>3d</fix>
</trkpt>
<trkpt lat="40.072842" lon="-105.230575">
  <ele>1586.09</ele>
  <time>2026-08-28T19:06:22Z</time>
  <course>266.03</course>
  <speed>0.0</speed>
  <fix>3d</fix>
</trkpt>
<trkpt lat="40.0728419" lon="-105.2305749">
  <ele>1586.16</ele>
  <time>2026-08-28T19:06:22Z</time>
  <course>10.96</course>
  <speed>0.01414213562373095</speed>
  <fix>3d</fix>
</trkpt>
<trkpt lat="40.072842" lon="-105.230575">
  <ele>1586.09</ele>
  <time>2026-08-28T19:06:22Z</time>
  <course>266.03</course>
  <speed>0.0</speed>
  <fix>3d</fix>
</trkpt>
<trkpt lat="40.0728419" lon="-105.2305749">
  <ele>1586.16</ele>
  <time>2026-08-28T19:06:22Z</time>
  <course>10.96</course>
  <speed>0.01414213562373095</speed>
  <fix>3d</fix>
</trkpt>
<trkpt lat="40.072842" lon="-105.230575">
  <ele>1586.09</ele>
  <time>2026-08-28T19:06:22Z</time>
  <course>266.03</course>
  <speed>0.0</speed>
  <fix>3d</fix>
</trkpt>
<trkpt lat="40.0728419" lon="-105.2305749">
  <ele>1586.17</ele>
  <time>2026-08-28T19:06:22Z</time>
  <course>10.95</course>
  <speed>0.01414213562373095</speed>
  <fix>3d</fix>
</trkpt>
<trkpt lat="40.072842" lon="-105.230575">
  <ele>1586.09</ele>
  <time>2026-08-28T19:06:22Z</time>
  <course>266.03</course>
  <speed>0.0</speed>
  <fix>3d</fix>
</trkpt>
<trkpt lat="40.0728419" lon="-105.2305749">
  <ele>1586.17</ele>
  <time>2026-08-28T19:06:22Z</time>
  <course>10.95</course>
  <speed>0.01414213562373095</speed>
  <fix>3d</fix>
</trkpt>
<trkpt lat="40.072842" lon="-105.230575">
  <ele>1586.09</ele>
  <time>2026-08-28T19:06:22Z</time>
  <course>266.03</course>
  <speed>0.0</speed>
  <fix>3d</fix>
</trkpt>
<trkpt lat="40.0728419" lon="-105.2305749">
  <ele>1586.17</ele>
  <time>2026-08-28T19:06:22Z</time>
  <course>10.95</course>
  <speed>0.01414213562373095</speed>
  <fix>3d</fix>
</trkpt>
<trkpt lat="40.072842" lon="-105.230575">
  <ele>1586.09</ele>
  <time>2026-08-28T19:06:22Z</time>
  <course>266.03</course>
  <speed>0.0</speed>
  <fix>3d</fix>
</trkpt>
<trkpt lat="40.0728419" lon="-105.2305749">
  <ele>1586.17</ele>
  <time>2026-08-28T19:06:22Z</time>
  <course>10.95</course>
  <speed>0.01414213562373095</speed>
  <fix>3d</fix>
</trkpt>
<trkpt lat="40.072842" lon="-105.230575">
  <ele>1586.09</ele>
  <time>2026-08-28T19:06:22Z</time>
  <course>266.03</course>
  <speed>0.0</speed>
  <fix>3d</fix>
</trkpt>
<trkpt lat="40.0728419" lon="-105.2305749">
  <ele>1586.17</ele>
  <time>2026-08-28T19:06:22Z</time>
  <course>10.95</course>
  <speed>0.01414213562373095</speed>
  <fix>3d</fix>
</trkpt>
<trkpt lat="40.072842" lon="-105.230575">
  <ele>1586.09</ele>
  <time>2026-08-28T19:06:22Z</time>
  <course>266.03</course>
  <speed>0.0</speed>
  <fix>3d</fix>
</trkpt>
<trkpt lat="40.0728419" lon="-105.2305749">
  <ele>1586.17</ele>
  <time>2026-08-28T19:06:22Z</time>
  <course>10.95</course>
  <speed>0.01414213562373095</speed>
  <fix>3d</fix>
</trkpt>
<trkpt lat="40.072842" lon="-105.230575">
  <ele>1586.09</ele>
  <time>2026-08-28T19:06:22Z</time>
  <course>266.03</course>
  <speed>0.0</speed>
  <fix>3d</fix>
</trkpt>
<trkpt lat="40.0728419" lon="-105.2305749">
  <ele>1586.17</ele>
  <time>2026-08-28T19:06:22Z</time>
  <course>10.95</course>
  <speed>0.01414213562373095</speed>
  <fix>3d</fix>
</trkpt>
<trkpt lat="40.072842" lon="-105.230575">
  <ele>1586.09</ele>
  <time>2026-08-28T19:06:22Z</time>
  <course>266.03</course>
  <speed>0.0</speed>
  <fix>3d</fix>
</trkpt>
<trkpt lat="40.0728419" lon="-105.2305749">
  <ele>1586.17</ele>
  <time>2026-08-28T19:06:22Z</time>
  <course>10.95</course>
  <speed>0.01414213562373095</speed>
  <fix>3d</fix>
</trkpt>
<trkpt lat="40.072842" lon="-105.230575">
  <ele>1586.09</ele>
  <time>2026-08-28T19:06:22Z</time>
  <course>266.03</course>
  <speed>0.0</speed>
  <fix>3d</fix>
</trkpt>
<trkpt lat="40.0728419" lon="-105.2305749">
  <ele>1586.17</ele>
  <time>2026-08-28T19:06:22Z</time>
  <course>10.95</course>
  <speed>0.01414213562373095</speed>
  <fix>3d</fix>
</trkpt>
<trkpt lat="40.072842" lon="-105.230575">
  <ele>1586.09</ele>
  <time>2026-08-28T19:06:22Z</time>
  <course>266.03</course>
  <speed>0.0</speed>
  <fix>3d</fix>
</trkpt>
<trkpt lat="40.0728419" lon="-105.2305749">
  <ele>1586.17</ele>
  <time>2026-08-28T19:06:22Z</time>
  <course>10.95</course>
  <speed>0.01414213562373095</speed>
  <fix>3d</fix>
</trkpt>
<trkpt lat="40.072842" lon="-105.230575">
  <ele>1586.09</ele>
  <time>2026-08-28T19:06:22Z</time>
  <course>266.03</course>
  <speed>0.0</speed>
  <fix>3d</fix>
</trkpt>
<trkpt lat="40.0728419" lon="-105.2305749">
  <ele>1586.18</ele>
  <time>2026-08-28T19:06:22Z</time>
  <course>10.95</course>
  <speed>0.01414213562373095</speed>
  <fix>3d</fix>
</trkpt>
<trkpt lat="40.072842" lon="-105.230575">
  <ele>1586.09</ele>
  <time>2026-08-28T19:06:22Z</time>
  <course>266.03</course>
  <speed>0.0</speed>
  <fix>3d</fix>
</trkpt>
<trkpt lat="40.0728419" lon="-105.2305749">
  <ele>1586.18</ele>
  <time>2026-08-28T19:06:22Z</time>
  <course>10.95</course>
  <speed>0.01414213562373095</speed>
  <fix>3d</fix>
</trkpt>
<trkpt lat="40.072842" lon="-105.230575">
  <ele>1586.09</ele>
  <time>2026-08-28T19:06:22Z</time>
  <course>266.03</course>
  <speed>0.0</speed>
  <fix>3d</fix>
</trkpt>
<trkpt lat="40.0728419" lon="-105.2305749">
  <ele>1586.18</ele>
  <time>2026-08-28T19:06:22Z</time>
  <course>10.95</course>
  <speed>0.01414213562373095</speed>
  <fix>3d</fix>
</trkpt>
<trkpt lat="40.072842" lon="-105.230575">
  <ele>1586.09</ele>
  <time>2026-08-28T19:06:22Z</time>
  <course>266.03</course>
  <speed>0.0</speed>
  <fix>3d</fix>
</trkpt>
<trkpt lat="40.0728419" lon="-105.2305749">
  <ele>1586.19</ele>
  <time>2026-08-28T19:06:22Z</time>
  <course>10.95</course>
  <speed>0.01414213562373095</speed>
  <fix>3d</fix>
</trkpt>
<trkpt lat="40.072842" lon="-105.230575">
  <ele>1586.09</ele>
  <time>2026-08-28T19:06:22Z</time>
  <course>266.03</course>
  <speed>0.0</speed>
  <fix>3d</fix>
</trkpt>
<trkpt lat="40.0728419" lon="-105.2305749">
  <ele>1586.19</ele>
  <time>2026-08-28T19:06:22Z</time>
  <course>10.95</course>
  <speed>0.01414213562373095</speed>
  <fix>3d</fix>
</trkpt>
<trkpt lat="40.072842" lon="-105.230575">
  <ele>1586.09</ele>
  <time>2026-08-28T19:06:22Z</time>
  <course>266.03</course>
  <speed>0.0</speed>
  <fix>3d</fix>
</trkpt>
<trkpt lat="40.0728419" lon="-105.2305749">
  <ele>1586.2</ele>
  <time>2026-08-28T19:06:22Z</time>
  <course>10.95</course>
  <speed>0.01414213562373095</speed>
  <fix>3d</fix>
</trkpt>
<trkpt lat="40.072842" lon="-105.230575">
  <ele>1586.09</ele>
  <time>2026-08-28T19:06:22Z</time>
  <course>266.03</course>
  <speed>0.0</speed>
  <fix>3d</fix>
</trkpt>
<trkpt lat="40.0728419" lon="-105.2305749">
  <ele>1586.2</ele>
  <time>2026-08-28T19:06:22Z</time>
  <course>10.95</course>
  <speed>0.01414213562373095</speed>
  <fix>3d</fix>
</trkpt>
<trkpt lat="40.072842" lon="-105.230575">
  <ele>1586.09</ele>
  <time>2026-08-28T19:06:22Z</time>
  <course>266.03</course>
  <speed>0.0</speed>
  <fix>3d</fix>
</trkpt>
<trkpt lat="40.0728419" lon="-105.2305749">
  <ele>1586.2</ele>
  <time>2026-08-28T19:06:22Z</time>
  <course>10.95</course>
  <speed>0.01414213562373095</speed>
  <fix>3d</fix>
</trkpt>
<trkpt lat="40.072842" lon="-105.230575">
  <ele>1586.09</ele>
  <time>2026-08-28T19:06:22Z</time>
  <course>266.03</course>
  <speed>0.0</speed>
  <fix>3d</fix>
</trkpt>
<trkpt lat="40.0728419" lon="-105.2305749">
  <ele>1586.2</ele>
  <time>2026-08-28T19:06:22Z</time>
  <course>10.95</course>
  <speed>0.01414213562373095</speed>
  <fix>3d</fix>
</trkpt>
<trkpt lat="40.072842" lon="-105.230575">
  <ele>1586.09</ele>
  <time>2026-08-28T19:06:22Z</time>
  <course>266.03</course>
  <speed>0.0</speed>
  <fix>3d</fix>
</trkpt>
<trkpt lat="40.0728419" lon="-105.2305749">
  <ele>1586.2</ele>
  <time>2026-08-28T19:06:22Z</time>
  <course>10.95</course>
  <speed>0.01414213562373095</speed>
  <fix>3d</fix>
</trkpt>
<trkpt lat="40.072842" lon="-105.230575">
  <ele>1586.09</ele>
  <time>2026-08-28T19:06:22Z</time>
  <course>266.03</course>
  <speed>0.0</speed>
  <fix>3d</fix>
</trkpt>
<trkpt lat="40.0728419" lon="-105.2305749">
  <ele>1586.2</ele>
  <time>2026-08-28T19:06:22Z</time>
  <course>10.95</course>
  <speed>0.01414213562373095</speed>
  <fix>3d</fix>
</trkpt>
<trkpt lat="40.072842" lon="-105.230575">
  <ele>1586.09</ele>
  <time>2026-08-28T19:06:22Z</time>
  <course>266.03</course>
  <speed>0.0</speed>
  <fix>3d</fix>
</trkpt>
<trkpt lat="40.0728419" lon="-105.2305749">
  <ele>1586.21</ele>
  <time>2026-08-28T19:06:22Z</time>
  <course>10.95</course>
  <speed>0.01414213562373095</speed>
  <fix>3d</fix>
</trkpt>
<trkpt lat="40.072842" lon="-105.230575">
  <ele>1586.09</ele>
  <time>2026-08-28T19:06:22Z</time>
  <course>266.03</course>
  <speed>0.0</speed>
  <fix>3d</fix>
</trkpt>
<trkpt lat="40.0728419" lon="-105.2305749">
  <ele>1586.2</ele>
  <time>2026-08-28T19:06:22Z</time>
  <course>10.95</course>
  <speed>0.01414213562373095</speed>
  <fix>3d</fix>
</trkpt>
<trkpt lat="40.072842" lon="-105.230575">
  <ele>1586.09</ele>
  <time>2026-08-28T19:06:22Z</time>
  <course>266.03</course>
  <speed>0.0</speed>
  <fix>3d</fix>
</trkpt>
<trkpt lat="40.0728419" lon="-105.2305749">
  <ele>1586.2</ele>
  <time>2026-08-28T19:06:22Z</time>
  <course>10.95</course>
  <speed>0.01414213562373095</speed>
  <fix>3d</fix>
</trkpt>
<trkpt lat="40.072842" lon="-105.230575">
  <ele>1586.09</ele>
  <time>2026-08-28T19:06:22Z</time>
  <course>266.03</course>
  <speed>0.0</speed>
  <fix>3d</fix>
</trkpt>
<trkpt lat="40.0728419" lon="-105.2305749">
  <ele>1586.19</ele>
  <time>2026-08-28T19:06:22Z</time>
  <course>10.95</course>
  <speed>0.01414213562373095</speed>
  <fix>3d</fix>
</trkpt>
<trkpt lat="40.072842" lon="-105.230575">
  <ele>1586.09</ele>
  <time>2026-08-28T19:06:22Z</time>
  <course>266.03</course>
  <speed>0.0</speed>
  <fix>3d</fix>
</trkpt>
<trkpt lat="40.0728419" lon="-105.2305749">
  <ele>1586.19</ele>
  <time>2026-08-28T19:06:22Z</time>
  <course>10.95</course>
  <speed>0.01414213562373095</speed>
  <fix>3d</fix>
</trkpt>
<trkpt lat="40.072842" lon="-105.230575">
  <ele>1586.09</ele>
  <time>2026-08-28T19:06:22Z</time>
  <course>266.03</course>
  <speed>0.0</speed>
  <fix>3d</fix>
</trkpt>
<trkpt lat="40.0728419" lon="-105.2305749">
  <ele>1586.18</ele>
  <time>2026-08-28T19:06:22Z</time>
  <course>10.95</course>
  <speed>0.01414213562373095</speed>
  <fix>3d</fix>
</trkpt>
<trkpt lat="40.072842" lon="-105.230575">
  <ele>1586.09</ele>
  <time>2026-08-28T19:06:22Z</time>
  <course>266.03</course>
  <speed>0.0</speed>
  <fix>3d</fix>
</trkpt>
<trkpt lat="40.0728419" lon="-105.2305749">
  <ele>1586.18</ele>
  <time>2026-08-28T19:06:22Z</time>
  <course>10.95</course>
  <speed>0.01414213562373095</speed>
  <fix>3d</fix>
</trkpt>
<trkpt lat="40.072842" lon="-105.230575">
  <ele>1586.09</ele>
  <time>2026-08-28T19:06:22Z</time>
  <course>266.03</course>
  <speed>0.0</speed>
  <fix>3d</fix>
</trkpt>
<trkpt lat="40.0728419" lon="-105.2305749">
  <ele>1586.18</ele>
  <time>2026-08-28T19:06:22Z</time>
  <course>10.95</course>
  <speed>0.01414213562373095</speed>
  <fix>3d</fix>
</trkpt>
<trkpt lat="40.072842" lon="-105.230575">
  <ele>1586.09</ele>
  <time>2026-08-28T19:06:22Z</time>
  <course>266.03</course>
  <speed>0.0</speed>
  <fix>3d</fix>
</trkpt>
<trkpt lat="40.0728419" lon="-105.2305749">
  <ele>1586.18</ele>
  <time>2026-08-28T19:06:22Z</time>
  <course>10.95</course>
  <speed>0.01414213562373095</speed>
  <fix>3d</fix>
</trkpt>
<trkpt lat="40.072842" lon="-105.230575">
  <ele>1586.09</ele>
  <time>2026-08-28T19:06:22Z</time>
  <course>266.03</course>
  <speed>0.0</speed>
  <fix>3d</fix>
</trkpt>
<trkpt lat="40.0728419" lon="-105.2305749">
  <ele>1586.18</ele>
  <time>2026-08-28T19:06:22Z</time>
  <course>10.95</course>
  <speed>0.01414213562373095</speed>
  <fix>3d</fix>
</trkpt>
<trkpt lat="40.072842" lon="-105.230575">
  <ele>1586.09</ele>
  <time>2026-08-28T19:06:22Z</time>
  <course>266.03</course>
  <speed>0.0</speed>
  <fix>3d</fix>
</trkpt>
<trkpt lat="40.0728419" lon="-105.2305749">
  <ele>1586.18</ele>
  <time>2026-08-28T19:06:22Z</time>
  <course>10.95</course>
  <speed>0.01414213562373095</speed>
  <fix>3d</fix>
</trkpt>
<trkpt lat="40.072842" lon="-105.230575">
  <ele>1586.09</ele>
  <time>2026-08-28T19:06:22Z</time>
  <course>266.03</course>
  <speed>0.0</speed>
  <fix>3d</fix>
</trkpt>
<trkpt lat="40.0728419" lon="-105.2305749">
  <ele>1586.18</ele>
  <time>2026-08-28T19:06:22Z</time>
  <course>10.95</course>
  <speed>0.01414213562373095</speed>
  <fix>3d</fix>
</trkpt>
<trkpt lat="40.072842" lon="-105.230575">
  <ele>1586.09</ele>
  <time>2026-08-28T19:06:22Z</time>
  <course>266.03</course>
  <speed>0.0</speed>
  <fix>3d</fix>
</trkpt>
<trkpt lat="40.0728419" lon="-105.2305749">
  <ele>1586.18</ele>
  <time>2026-08-28T19:06:22Z</time>
  <course>10.95</course>
  <speed>0.01414213562373095</speed>
  <fix>3d</fix>
</trkpt>
<trkpt lat="40.072842" lon="-105.230575">
  <ele>1586.09</ele>
  <time>2026-08-28T19:06:22Z</time>
  <course>266.03</course>
  <speed>0.0</speed>
  <fix>3d</fix>
</trkpt>
<trkpt lat="40.0728419" lon="-105.2305749">
  <ele>1586.18</ele>
  <time>2026-08-28T19:06:22Z</time>
  <course>10.95</course>
  <speed>0.01414213562373095</speed>
  <fix>3d</fix>
</trkpt>
<trkpt lat="40.072842" lon="-105.230575">
  <ele>1586.09</ele>
  <time>2026-08-28T19:06:22Z</time>
  <course>266.03</course>
  <speed>0.0</speed>
  <fix>3d</fix>
</trkpt>
<trkpt lat="40.0728419" lon="-105.2305749">
  <ele>1586.19</ele>
  <time>2026-08-28T19:06:22Z</time>
  <course>10.95</course>
  <speed>0.01414213562373095</speed>
  <fix>3d</fix>
</trkpt>
<trkpt lat="40.072842" lon="-105.230575">
  <ele>1586.09</ele>
  <time>2026-08-28T19:06:22Z</time>
  <course>266.03</course>
  <speed>0.0</speed>
  <fix>3d</fix>
</trkpt>
<trkpt lat="40.0728419" lon="-105.2305749">
  <ele>1586.19</ele>
  <time>2026-08-28T19:06:22Z</time>
  <course>10.95</course>
  <speed>0.01414213562373095</speed>
  <fix>3d</fix>
</trkpt>
<trkpt lat="40.072842" lon="-105.230575">
  <ele>1586.09</ele>
  <time>2026-08-28T19:06:22Z</time>
  <course>266.03</course>
  <speed>0.0</speed>
  <fix>3d</fix>
</trkpt>
<trkpt lat="40.0728419" lon="-105.2305749">
  <ele>1586.2</ele>
  <time>2026-08-28T19:06:22Z</time>
  <course>10.95</course>
  <speed>0.01414213562373095</speed>
  <fix>3d</fix>
</trkpt>
<trkpt lat="40.072842" lon="-105.230575">
  <ele>1586.09</ele>
  <time>2026-08-28T19:06:22Z</time>
  <course>266.03</course>
  <speed>0.0</speed>
  <fix>3d</fix>
</trkpt>
<trkpt lat="40.0728419" lon="-105.2305749">
  <ele>1586.2</ele>
  <time>2026-08-28T19:06:22Z</time>
  <course>10.95</course>
  <speed>0.01414213562373095</speed>
  <fix>3d</fix>
</trkpt>
<trkpt lat="40.072842" lon="-105.230575">
  <ele>1586.09</ele>
  <time>2026-08-28T19:06:22Z</time>
  <course>266.03</course>
  <speed>0.0</speed>
  <fix>3d</fix>
</trkpt>
<trkpt lat="40.0728419" lon="-105.2305749">
  <ele>1586.2</ele>
  <time>2026-08-28T19:06:22Z</time>
  <course>10.95</course>
  <speed>0.01414213562373095</speed>
  <fix>3d</fix>
</trkpt>
<trkpt lat="40.072842" lon="-105.230575">
  <ele>1586.09</ele>
  <time>2026-08-28T19:06:22Z</time>
  <course>266.03</course>
  <speed>0.0</speed>
  <fix>3d</fix>
</trkpt>
<trkpt lat="40.0728419" lon="-105.2305749">
  <ele>1586.19</ele>
  <time>2026-08-28T19:06:22Z</time>
  <course>10.95</course>
  <speed>0.01414213562373095</speed>
  <fix>3d</fix>
</trkpt>
<trkpt lat="40.072842" lon="-105.230575">
  <ele>1586.09</ele>
  <time>2026-08-28T19:06:22Z</time>
  <course>266.03</course>
  <speed>0.0</speed>
  <fix>3d</fix>
</trkpt>
<trkpt lat="40.0728419" lon="-105.2305749">
  <ele>1586.19</ele>
  <time>2026-08-28T19:06:22Z</time>
  <course>10.95</course>
  <speed>0.01414213562373095</speed>
  <fix>3d</fix>
</trkpt>
<trkpt lat="40.072842" lon="-105.230575">
  <ele>1586.09</ele>
  <time>2026-08-28T19:06:22Z</time>
  <course>266.03</course>
  <speed>0.0</speed>
  <fix>3d</fix>
</trkpt>
<trkpt lat="40.0728419" lon="-105.2305749">
  <ele>1586.19</ele>
  <time>2026-08-28T19:06:22Z</time>
  <course>10.95</course>
  <speed>0.01414213562373095</speed>
  <fix>3d</fix>
</trkpt>
<trkpt lat="40.072842" lon="-105.230575">
  <ele>1586.09</ele>
  <time>2026-08-28T19:06:22Z</time>
  <course>266.03</course>
  <speed>0.0</speed>
  <fix>3d</fix>
</trkpt>
<trkpt lat="40.0728419" lon="-105.2305749">
  <ele>1586.19</ele>
  <time>2026-08-28T19:06:22Z</time>
  <course>10.95</course>
  <speed>0.01414213562373095</speed>
  <fix>3d</fix>
</trkpt>
<trkpt lat="40.072842" lon="-105.230575">
  <ele>1586.09</ele>
  <time>2026-08-28T19:06:22Z</time>
  <course>266.03</course>
  <speed>0.0</speed>
  <fix>3d</fix>
</trkpt>
<trkpt lat="40.0728419" lon="-105.2305749">
  <ele>1586.19</ele>
  <time>2026-08-28T19:06:22Z</time>
  <course>10.95</course>
  <speed>0.01414213562373095</speed>
  <fix>3d</fix>
</trkpt>
<trkpt lat="40.072842" lon="-105.230575">
  <ele>1586.09</ele>
  <time>2026-08-28T19:06:22Z</time>
  <course>266.03</course>
  <speed>0.0</speed>
  <fix>3d</fix>
</trkpt>
<trkpt lat="40.0728419" lon="-105.2305749">
  <ele>1586.19</ele>
  <time>2026-08-28T19:06:22Z</time>
  <course>10.95</course>
  <speed>0.01414213562373095</speed>
  <fix>3d</fix>
</trkpt>
<trkpt lat="40.072842" lon="-105.230575">
  <ele>1586.09</ele>
  <time>2026-08-28T19:06:22Z</time>
  <course>266.03</course>
  <speed>0.0</speed>
  <fix>3d</fix>
</trkpt>
<trkpt lat="40.0728419" lon="-105.2305749">
  <ele>1586.18</ele>
  <time>2026-08-28T19:06:22Z</time>
  <course>10.95</course>
  <speed>0.01414213562373095</speed>
  <fix>3d</fix>
</trkpt>
<trkpt lat="40.072842" lon="-105.230575">
  <ele>1586.09</ele>
  <time>2026-08-28T19:06:22Z</time>
  <course>266.03</course>
  <speed>0.0</speed>
  <fix>3d</fix>
</trkpt>
<trkpt lat="40.0728419" lon="-105.2305749">
  <ele>1586.18</ele>
  <time>2026-08-28T19:06:22Z</time>
  <course>10.95</course>
  <speed>0.01414213562373095</speed>
  <fix>3d</fix>
</trkpt>
<trkpt lat="40.072842" lon="-105.230575">
  <ele>1586.09</ele>
  <time>2026-08-28T19:06:22Z</time>
  <course>266.03</course>
  <speed>0.0</speed>
  <fix>3d</fix>
</trkpt>
<trkpt lat="40.0728419" lon="-105.2305749">
  <ele>1586.17</ele>
  <time>2026-08-28T19:06:22Z</time>
  <course>10.95</course>
  <speed>0.01414213562373095</speed>
  <fix>3d</fix>
</trkpt>
<trkpt lat="40.072842" lon="-105.230575">
  <ele>1586.09</ele>
  <time>2026-08-28T19:06:22Z</time>
  <course>266.03</course>
  <speed>0.0</speed>
  <fix>3d</fix>
</trkpt>
<trkpt lat="40.0728419" lon="-105.2305749">
  <ele>1586.17</ele>
  <time>2026-08-28T19:06:22Z</time>
  <course>10.95</course>
  <speed>0.01414213562373095</speed>
  <fix>3d</fix>
</trkpt>
<trkpt lat="40.072842" lon="-105.230575">
  <ele>1586.09</ele>
  <time>2026-08-28T19:06:22Z</time>
  <course>266.03</course>
  <speed>0.0</speed>
  <fix>3d</fix>
</trkpt>
<trkpt lat="40.0728419" lon="-105.2305749">
  <ele>1586.17</ele>
  <time>2026-08-28T19:06:22Z</time>
  <course>10.95</course>
  <speed>0.01414213562373095</speed>
  <fix>3d</fix>
</trkpt>
<trkpt lat="40.072842" lon="-105.230575">
  <ele>1586.09</ele>
  <time>2026-08-28T19:06:22Z</time>
  <course>266.03</course>
  <speed>0.0</speed>
  <fix>3d</fix>
</trkpt>
<trkpt lat="40.0728419" lon="-105.2305749">
  <ele>1586.17</ele>
  <time>2026-08-28T19:06:22Z</time>
  <course>10.95</course>
  <speed>0.01414213562373095</speed>
  <fix>3d</fix>
</trkpt>
<trkpt lat="40.072842" lon="-105.230575">
  <ele>1586.09</ele>
  <time>2026-08-28T19:06:22Z</time>
  <course>266.03</course>
  <speed>0.0</speed>
  <fix>3d</fix>
</trkpt>
<trkpt lat="40.0728419" lon="-105.2305749">
  <ele>1586.18</ele>
  <time>2026-08-28T19:06:22Z</time>
  <course>10.95</course>
  <speed>0.01414213562373095</speed>
  <fix>3d</fix>
</trkpt>
<trkpt lat="40.072842" lon="-105.230575">
  <ele>1586.09</ele>
  <time>2026-08-28T19:06:22Z</time>
  <course>266.03</course>
  <speed>0.0</speed>
  <fix>3d</fix>
</trkpt>
<trkpt lat="40.0728419" lon="-105.2305749">
  <ele>1586.18</ele>
  <time>2026-08-28T19:06:22Z</time>
  <course>10.95</course>
  <speed>0.01414213562373095</speed>
  <fix>3d</fix>
</trkpt>
<trkpt lat="40.072842" lon="-105.230575">
  <ele>1586.09</ele>
  <time>2026-08-28T19:06:22Z</time>
  <course>266.03</course>
  <speed>0.0</speed>
  <fix>3d</fix>
</trkpt>
<trkpt lat="40.0728419" lon="-105.2305749">
  <ele>1586.18</ele>
  <time>2026-08-28T19:06:22Z</time>
  <course>10.95</course>
  <speed>0.01414213562373095</speed>
  <fix>3d</fix>
</trkpt>
<trkpt lat="40.072842" lon="-105.230575">
  <ele>1586.09</ele>
  <time>2026-08-28T19:06:22Z</time>
  <course>266.03</course>
  <speed>0.0</speed>
  <fix>3d</fix>
</trkpt>
<trkpt lat="40.0728419" lon="-105.2305749">
  <ele>1586.18</ele>
  <time>2026-08-28T19:06:22Z</time>
  <course>10.95</course>
  <speed>0.01414213562373095</speed>
  <fix>3d</fix>
</trkpt>
<trkpt lat="40.072842" lon="-105.230575">
  <ele>1586.09</ele>
  <time>2026-08-28T19:06:22Z</time>
  <course>266.03</course>
  <speed>0.0</speed>
  <fix>3d</fix>
</trkpt>
<trkpt lat="40.0728419" lon="-105.2305749">
  <ele>1586.18</ele>
  <time>2026-08-28T19:06:22Z</time>
  <course>10.95</course>
  <speed>0.01414213562373095</speed>
  <fix>3d</fix>
</trkpt>
<trkpt lat="40.072842" lon="-105.230575">
  <ele>1586.09</ele>
  <time>2026-08-28T19:06:22Z</time>
  <course>266.03</course>
  <speed>0.0</speed>
  <fix>3d</fix>
</trkpt>
<trkpt lat="40.0728419" lon="-105.2305749">
  <ele>1586.18</ele>
  <time>2026-08-28T19:06:22Z</time>
  <course>10.95</course>
  <speed>0.01414213562373095</speed>
  <fix>3d</fix>
</trkpt>
<trkpt lat="40.072842" lon="-105.230575">
  <ele>1586.09</ele>
  <time>2026-08-28T19:06:22Z</time>
  <course>266.03</course>
  <speed>0.0</speed>
  <fix>3d</fix>
</trkpt>
<trkpt lat="40.0728419" lon="-105.2305749">
  <ele>1586.18</ele>
  <time>2026-08-28T19:06:22Z</time>
  <course>10.95</course>
  <speed>0.01414213562373095</speed>
  <fix>3d</fix>
</trkpt>
<trkpt lat="40.072842" lon="-105.230575">
  <ele>1586.09</ele>
  <time>2026-08-28T19:06:22Z</time>
  <course>266.03</course>
  <speed>0.0</speed>
  <fix>3d</fix>
</trkpt>
<trkpt lat="40.0728419" lon="-105.2305749">
  <ele>1586.18</ele>
  <time>2026-08-28T19:06:22Z</time>
  <course>10.95</course>
  <speed>0.01414213562373095</speed>
  <fix>3d</fix>
</trkpt>
<trkpt lat="40.072842" lon="-105.230575">
  <ele>1586.09</ele>
  <time>2026-08-28T19:06:22Z</time>
  <course>266.03</course>
  <speed>0.0</speed>
  <fix>3d</fix>
</trkpt>
<trkpt lat="40.0728419" lon="-105.2305749">
  <ele>1586.18</ele>
  <time>2026-08-28T19:06:22Z</time>
  <course>10.95</course>
  <speed>0.01414213562373095</speed>
  <fix>3d</fix>
</trkpt>
<trkpt lat="40.072842" lon="-105.230575">
  <ele>1586.09</ele>
  <time>2026-08-28T19:06:22Z</time>
  <course>266.03</course>
  <speed>0.0</speed>
  <fix>3d</fix>
</trkpt>
<trkpt lat="40.0728419" lon="-105.2305749">
  <ele>1586.18</ele>
  <time>2026-08-28T19:06:22Z</time>
  <course>10.95</course>
  <speed>0.01414213562373095</speed>
  <fix>3d</fix>
</trkpt>
<trkpt lat="40.072842" lon="-105.230575">
  <ele>1586.09</ele>
  <time>2026-08-28T19:06:22Z</time>
  <course>266.03</course>
  <speed>0.0</speed>
  <fix>3d</fix>
</trkpt>
<trkpt lat="40.0728419" lon="-105.2305749">
  <ele>1586.18</ele>
  <time>2026-08-28T19:06:22Z</time>
  <course>10.95</course>
  <speed>0.01414213562373095</speed>
  <fix>3d</fix>
</trkpt>
<trkpt lat="40.072842" lon="-105.230575">
  <ele>1586.09</ele>
  <time>2026-08-28T19:06:22Z</time>
  <course>266.03</course>
  <speed>0.0</speed>
  <fix>3d</fix>
</trkpt>
<trkpt lat="40.0728419" lon="-105.2305749">
  <ele>1586.18</ele>
  <time>2026-08-28T19:06:22Z</time>
  <course>10.95</course>
  <speed>0.01414213562373095</speed>
  <fix>3d</fix>
</trkpt>
<trkpt lat="40.072842" lon="-105.230575">
  <ele>1586.09</ele>
  <time>2026-08-28T19:06:22Z</time>
  <course>266.03</course>
  <speed>0.0</speed>
  <fix>3d</fix>
</trkpt>
<trkpt lat="40.0728419" lon="-105.2305749">
  <ele>1586.18</ele>
  <time>2026-08-28T19:06:22Z</time>
  <course>10.95</course>
  <speed>0.01414213562373095</speed>
  <fix>3d</fix>
</trkpt>
<trkpt lat="40.072842" lon="-105.230575">
  <ele>1586.09</ele>
  <time>2026-08-28T19:06:22Z</time>
  <course>266.03</course>
  <speed>0.0</speed>
  <fix>3d</fix>
</trkpt>
<trkpt lat="40.0728419" lon="-105.2305749">
  <ele>1586.17</ele>
  <time>2026-08-28T19:06:22Z</time>
  <course>10.95</course>
  <speed>0.01414213562373095</speed>
  <fix>3d</fix>
</trkpt>
<trkpt lat="40.072842" lon="-105.230575">
  <ele>1586.09</ele>
  <time>2026-08-28T19:06:22Z</time>
  <course>266.03</course>
  <speed>0.0</speed>
  <fix>3d</fix>
</trkpt>
<trkpt lat="40.0728419" lon="-105.2305749">
  <ele>1586.17</ele>
  <time>2026-08-28T19:06:22Z</time>
  <course>10.95</course>
  <speed>0.01414213562373095</speed>
  <fix>3d</fix>
</trkpt>
<trkpt lat="40.072842" lon="-105.230575">
  <ele>1586.09</ele>
  <time>2026-08-28T19:06:22Z</time>
  <course>266.03</course>
  <speed>0.0</speed>
  <fix>3d</fix>
</trkpt>
<trkpt lat="40.0728419" lon="-105.2305749">
  <ele>1586.17</ele>
  <time>2026-08-28T19:06:22Z</time>
  <course>10.95</course>
  <speed>0.01414213562373095</speed>
  <fix>3d</fix>
</trkpt>
<trkpt lat="40.072842" lon="-105.230575">
  <ele>1586.09</ele>
  <time>2026-08-28T19:06:22Z</time>
  <course>266.03</course>
  <speed>0.0</speed>
  <fix>3d</fix>
</trkpt>
<trkpt lat="40.0728419" lon="-105.2305749">
  <ele>1586.18</ele>
  <time>2026-08-28T19:06:22Z</time>
  <course>10.95</course>
  <speed>0.01414213562373095</speed>
  <fix>3d</fix>
</trkpt>
<trkpt lat="40.072842" lon="-105.230575">
  <ele>1586.09</ele>
  <time>2026-08-28T19:06:22Z</time>
  <course>266.03</course>
  <speed>0.0</speed>
  <fix>3d</fix>
</trkpt>
<trkpt lat="40.0728419" lon="-105.2305749">
  <ele>1586.18</ele>
  <time>2026-08-28T19:06:22Z</time>
  <course>10.95</course>
  <speed>0.01414213562373095</speed>
  <fix>3d</fix>
</trkpt>
<trkpt lat="40.072842" lon="-105.230575">
  <ele>1586.09</ele>
  <time>2026-08-28T19:06:22Z</time>
  <course>266.03</course>
  <speed>0.0</speed>
  <fix>3d</fix>
</trkpt>
<trkpt lat="40.0728419" lon="-105.2305749">
  <ele>1586.18</ele>
  <time>2026-08-28T19:06:22Z</time>
  <course>10.95</course>
  <speed>0.01414213562373095</speed>
  <fix>3d</fix>
</trkpt>
<trkpt lat="40.072842" lon="-105.230575">
  <ele>1586.09</ele>
  <time>2026-08-28T19:06:22Z</time>
  <course>266.03</course>
  <speed>0.0</speed>
  <fix>3d</fix>
</trkpt>
<trkpt lat="40.0728419" lon="-105.2305749">
  <ele>1586.18</ele>
  <time>2026-08-28T19:06:22Z</time>
  <course>10.95</course>
  <speed>0.01414213562373095</speed>
  <fix>3d</fix>
</trkpt>
<trkpt lat="40.072842" lon="-105.230575">
  <ele>1586.09</ele>
  <time>2026-08-28T19:06:22Z</time>
  <course>266.03</course>
  <speed>0.0</speed>
  <fix>3d</fix>
</trkpt>
<trkpt lat="40.0728419" lon="-105.2305749">
  <ele>1586.18</ele>
  <time>2026-08-28T19:06:22Z</time>
  <course>10.95</course>
  <speed>0.01414213562373095</speed>
  <fix>3d</fix>
</trkpt>
<trkpt lat="40.072842" lon="-105.230575">
  <ele>1586.09</ele>
  <time>2026-08-28T19:06:22Z</time>
  <course>266.03</course>
  <speed>0.0</speed>
  <fix>3d</fix>
</trkpt>
<trkpt lat="40.0728419" lon="-105.2305749">
  <ele>1586.17</ele>
  <time>2026-08-28T19:06:22Z</time>
  <course>10.95</course>
  <speed>0.01414213562373095</speed>
  <fix>3d</fix>
</trkpt>
<trkpt lat="40.072842" lon="-105.230575">
  <ele>1586.09</ele>
  <time>2026-08-28T19:06:22Z</time>
  <course>266.03</course>
  <speed>0.0</speed>
  <fix>3d</fix>
</trkpt>
<trkpt lat="40.0728419" lon="-105.2305749">
  <ele>1586.17</ele>
  <time>2026-08-28T19:06:22Z</time>
  <course>10.95</course>
  <speed>0.01414213562373095</speed>
  <fix>3d</fix>
</trkpt>
<trkpt lat="40.072842" lon="-105.230575">
  <ele>1586.09</ele>
  <time>2026-08-28T19:06:22Z</time>
  <course>266.03</course>
  <speed>0.0</speed>
  <fix>3d</fix>
</trkpt>
<trkpt lat="40.0728419" lon="-105.2305749">
  <ele>1586.18</ele>
  <time>2026-08-28T19:06:22Z</time>
  <course>10.95</course>
  <speed>0.01414213562373095</speed>
  <fix>3d</fix>
</trkpt>
<trkpt lat="40.072842" lon="-105.230575">
  <ele>1586.09</ele>
  <time>2026-08-28T19:06:22Z</time>
  <course>266.03</course>
  <speed>0.0</speed>
  <fix>3d</fix>
</trkpt>
<trkpt lat="40.0728419" lon="-105.2305749">
  <ele>1586.18</ele>
  <time>2026-08-28T19:06:22Z</time>
  <course>10.95</course>
  <speed>0.01414213562373095</speed>
  <fix>3d</fix>
</trkpt>
<trkpt lat="40.072842" lon="-105.230575">
  <ele>1586.09</ele>
  <time>2026-08-28T19:06:22Z</time>
  <course>266.03</course>
  <speed>0.0</speed>
  <fix>3d</fix>
</trkpt>
<trkpt lat="40.0728419" lon="-105.2305749">
  <ele>1586.18</ele>
  <time>2026-08-28T19:06:22Z</time>
  <course>10.95</course>
  <speed>0.01414213562373095</speed>
  <fix>3d</fix>
</trkpt>
<trkpt lat="40.072842" lon="-105.230575">
  <ele>1586.09</ele>
  <time>2026-08-28T19:06:22Z</time>
  <course>266.03</course>
  <speed>0.0</speed>
  <fix>3d</fix>
</trkpt>
<trkpt lat="40.0728419" lon="-105.2305749">
  <ele>1586.18</ele>
  <time>2026-08-28T19:06:22Z</time>
  <course>10.95</course>
  <speed>0.01414213562373095</speed>
  <fix>3d</fix>
</trkpt>
<trkpt lat="40.072842" lon="-105.230575">
  <ele>1586.09</ele>
  <time>2026-08-28T19:06:22Z</time>
  <course>266.03</course>
  <speed>0.0</speed>
  <fix>3d</fix>
</trkpt>
<trkpt lat="40.0728419" lon="-105.2305749">
  <ele>1586.18</ele>
  <time>2026-08-28T19:06:22Z</time>
  <course>10.95</course>
  <speed>0.01414213562373095</speed>
  <fix>3d</fix>
</trkpt>
<trkpt lat="40.072842" lon="-105.230575">
  <ele>1586.09</ele>
  <time>2026-08-28T19:06:22Z</time>
  <course>266.03</course>
  <speed>0.0</speed>
  <fix>3d</fix>
</trkpt>
<trkpt lat="40.0728419" lon="-105.2305749">
  <ele>1586.18</ele>
  <time>2026-08-28T19:06:22Z</time>
  <course>10.95</course>
  <speed>0.01414213562373095</speed>
  <fix>3d</fix>
</trkpt>
<trkpt lat="40.072842" lon="-105.230575">
  <ele>1586.09</ele>
  <time>2026-08-28T19:06:22Z</time>
  <course>266.03</course>
  <speed>0.0</speed>
  <fix>3d</fix>
</trkpt>
<trkpt lat="40.0728419" lon="-105.2305749">
  <ele>1586.17</ele>
  <time>2026-08-28T19:06:22Z</time>
  <course>10.95</course>
  <speed>0.01414213562373095</speed>
  <fix>3d</fix>
</trkpt>
<trkpt lat="40.072842" lon="-105.230575">
  <ele>1586.09</ele>
  <time>2026-08-28T19:06:22Z</time>
  <course>266.03</course>
  <speed>0.0</speed>
  <fix>3d</fix>
</trkpt>
<trkpt lat="40.0728419" lon="-105.2305749">
  <ele>1586.17</ele>
  <time>2026-08-28T19:06:22Z</time>
  <course>10.95</course>
  <speed>0.01414213562373095</speed>
  <fix>3d</fix>
</trkpt>
<trkpt lat="40.072842" lon="-105.230575">
  <ele>1586.09</ele>
  <time>2026-08-28T19:06:22Z</time>
  <course>266.03</course>
  <speed>0.0</speed>
  <fix>3d</fix>
</trkpt>
<trkpt lat="40.0728419" lon="-105.2305749">
  <ele>1586.17</ele>
  <time>2026-08-28T19:06:22Z</time>
  <course>10.95</course>
  <speed>0.01414213562373095</speed>
  <fix>3d</fix>
</trkpt>
<trkpt lat="40.072842" lon="-105.230575">
  <ele>1586.09</ele>
  <time>2026-08-28T19:06:22Z</time>
  <course>266.03</course>
  <speed>0.0</speed>
  <fix>3d</fix>
</trkpt>
<trkpt lat="40.0728419" lon="-105.2305749">
  <ele>1586.17</ele>
  <time>2026-08-28T19:06:22Z</time>
  <course>10.95</course>
  <speed>0.01414213562373095</speed>
  <fix>3d</fix>
</trkpt>
<trkpt lat="40.072842" lon="-105.230575">
  <ele>1586.09</ele>
  <time>2026-08-28T19:06:22Z</time>
  <course>266.03</course>
  <speed>0.0</speed>
  <fix>3d</fix>
</trkpt>
<trkpt lat="40.0728419" lon="-105.2305749">
  <ele>1586.17</ele>
  <time>2026-08-28T19:06:22Z</time>
  <course>10.95</course>
  <speed>0.01414213562373095</speed>
  <fix>3d</fix>
</trkpt>
<trkpt lat="40.072842" lon="-105.230575">
  <ele>1586.09</ele>
  <time>2026-08-28T19:06:22Z</time>
  <course>266.03</course>
  <speed>0.0</speed>
  <fix>3d</fix>
</trkpt>
<trkpt lat="40.0728419" lon="-105.2305749">
  <ele>1586.17</ele>
  <time>2026-08-28T19:06:22Z</time>
  <course>10.95</course>
  <speed>0.01414213562373095</speed>
  <fix>3d</fix>
</trkpt>
<trkpt lat="40.072842" lon="-105.230575">
  <ele>1586.09</ele>
  <time>2026-08-28T19:06:22Z</time>
  <course>266.03</course>
  <speed>0.0</speed>
  <fix>3d</fix>
</trkpt>
<trkpt lat="40.0728419" lon="-105.2305749">
  <ele>1586.17</ele>
  <time>2026-08-28T19:06:23Z</time>
  <course>10.95</course>
  <speed>0.01414213562373095</speed>
  <fix>3d</fix>
</trkpt>
<trkpt lat="40.072842" lon="-105.230575">
  <ele>1586.09</ele>
  <time>2026-08-28T19:06:23Z</time>
  <course>266.03</course>
  <speed>0.0</speed>
  <fix>3d</fix>
</trkpt>
<trkpt lat="40.0728419" lon="-105.2305749">
  <ele>1586.17</ele>
  <time>2026-08-28T19:06:23Z</time>
  <course>10.95</course>
  <speed>0.01414213562373095</speed>
  <fix>3d</fix>
</trkpt>
<trkpt lat="40.072842" lon="-105.230575">
  <ele>1586.09</ele>
  <time>2026-08-28T19:06:23Z</time>
  <course>266.03</course>
  <speed>0.0</speed>
  <fix>3d</fix>
</trkpt>
<trkpt lat="40.0728419" lon="-105.2305749">
  <ele>1586.17</ele>
  <time>2026-08-28T19:06:23Z</time>
  <course>10.95</course>
  <speed>0.01414213562373095</speed>
  <fix>3d</fix>
</trkpt>
<trkpt lat="40.072842" lon="-105.230575">
  <ele>1586.09</ele>
  <time>2026-08-28T19:06:23Z</time>
  <course>266.03</course>
  <speed>0.0</speed>
  <fix>3d</fix>
</trkpt>
<trkpt lat="40.0728419" lon="-105.2305749">
  <ele>1586.16</ele>
  <time>2026-08-28T19:06:23Z</time>
  <course>10.96</course>
  <speed>0.01414213562373095</speed>
  <fix>3d</fix>
</trkpt>
<trkpt lat="40.072842" lon="-105.230575">
  <ele>1586.09</ele>
  <time>2026-08-28T19:06:23Z</time>
  <course>266.03</course>
  <speed>0.0</speed>
  <fix>3d</fix>
</trkpt>
<trkpt lat="40.0728419" lon="-105.2305749">
  <ele>1586.16</ele>
  <time>2026-08-28T19:06:23Z</time>
  <course>10.96</course>
  <speed>0.01414213562373095</speed>
  <fix>3d</fix>
</trkpt>
<trkpt lat="40.072842" lon="-105.230575">
  <ele>1586.09</ele>
  <time>2026-08-28T19:06:23Z</time>
  <course>266.03</course>
  <speed>0.0</speed>
  <fix>3d</fix>
</trkpt>
<trkpt lat="40.0728419" lon="-105.2305749">
  <ele>1586.16</ele>
  <time>2026-08-28T19:06:23Z</time>
  <course>10.96</course>
  <speed>0.01414213562373095</speed>
  <fix>3d</fix>
</trkpt>
<trkpt lat="40.072842" lon="-105.230575">
  <ele>1586.09</ele>
  <time>2026-08-28T19:06:23Z</time>
  <course>266.03</course>
  <speed>0.0</speed>
  <fix>3d</fix>
</trkpt>
<trkpt lat="40.0728419" lon="-105.2305749">
  <ele>1586.16</ele>
  <time>2026-08-28T19:06:23Z</time>
  <course>10.96</course>
  <speed>0.01414213562373095</speed>
  <fix>3d</fix>
</trkpt>
<trkpt lat="40.072842" lon="-105.230575">
  <ele>1586.09</ele>
  <time>2026-08-28T19:06:23Z</time>
  <course>266.03</course>
  <speed>0.0</speed>
  <fix>3d</fix>
</trkpt>
<trkpt lat="40.0728419" lon="-105.2305749">
  <ele>1586.16</ele>
  <time>2026-08-28T19:06:23Z</time>
  <course>10.96</course>
  <speed>0.01414213562373095</speed>
  <fix>3d</fix>
</trkpt>
<trkpt lat="40.072842" lon="-105.230575">
  <ele>1586.09</ele>
  <time>2026-08-28T19:06:23Z</time>
  <course>266.03</course>
  <speed>0.0</speed>
  <fix>3d</fix>
</trkpt>
<trkpt lat="40.0728419" lon="-105.2305749">
  <ele>1586.16</ele>
  <time>2026-08-28T19:06:23Z</time>
  <course>10.96</course>
  <speed>0.01414213562373095</speed>
  <fix>3d</fix>
</trkpt>
<trkpt lat="40.072842" lon="-105.230575">
  <ele>1586.09</ele>
  <time>2026-08-28T19:06:23Z</time>
  <course>266.03</course>
  <speed>0.0</speed>
  <fix>3d</fix>
</trkpt>
<trkpt lat="40.0728419" lon="-105.2305749">
  <ele>1586.16</ele>
  <time>2026-08-28T19:06:23Z</time>
  <course>10.96</course>
  <speed>0.01414213562373095</speed>
  <fix>3d</fix>
</trkpt>
<trkpt lat="40.072842" lon="-105.230575">
  <ele>1586.09</ele>
  <time>2026-08-28T19:06:23Z</time>
  <course>266.03</course>
  <speed>0.0</speed>
  <fix>3d</fix>
</trkpt>
<trkpt lat="40.0728419" lon="-105.2305749">
  <ele>1586.16</ele>
  <time>2026-08-28T19:06:23Z</time>
  <course>10.96</course>
  <speed>0.01414213562373095</speed>
  <fix>3d</fix>
</trkpt>
<trkpt lat="40.072842" lon="-105.230575">
  <ele>1586.09</ele>
  <time>2026-08-28T19:06:23Z</time>
  <course>266.03</course>
  <speed>0.0</speed>
  <fix>3d</fix>
</trkpt>
<trkpt lat="40.0728419" lon="-105.2305749">
  <ele>1586.15</ele>
  <time>2026-08-28T19:06:23Z</time>
  <course>10.96</course>
  <speed>0.01414213562373095</speed>
  <fix>3d</fix>
</trkpt>
<trkpt lat="40.072842" lon="-105.230575">
  <ele>1586.09</ele>
  <time>2026-08-28T19:06:23Z</time>
  <course>266.03</course>
  <speed>0.0</speed>
  <fix>3d</fix>
</trkpt>
<trkpt lat="40.0728419" lon="-105.2305749">
  <ele>1586.15</ele>
  <time>2026-08-28T19:06:23Z</time>
  <course>10.96</course>
  <speed>0.01414213562373095</speed>
  <fix>3d</fix>
</trkpt>
<trkpt lat="40.072842" lon="-105.230575">
  <ele>1586.09</ele>
  <time>2026-08-28T19:06:23Z</time>
  <course>266.03</course>
  <speed>0.0</speed>
  <fix>3d</fix>
</trkpt>
<trkpt lat="40.0728419" lon="-105.2305749">
  <ele>1586.15</ele>
  <time>2026-08-28T19:06:23Z</time>
  <course>10.96</course>
  <speed>0.01414213562373095</speed>
  <fix>3d</fix>
</trkpt>
<trkpt lat="40.072842" lon="-105.230575">
  <ele>1586.09</ele>
  <time>2026-08-28T19:06:23Z</time>
  <course>266.03</course>
  <speed>0.0</speed>
  <fix>3d</fix>
</trkpt>
<trkpt lat="40.0728419" lon="-105.2305749">
  <ele>1586.14</ele>
  <time>2026-08-28T19:06:23Z</time>
  <course>10.96</course>
  <speed>0.01414213562373095</speed>
  <fix>3d</fix>
</trkpt>
<trkpt lat="40.072842" lon="-105.230575">
  <ele>1586.09</ele>
  <time>2026-08-28T19:06:23Z</time>
  <course>266.03</course>
  <speed>0.0</speed>
  <fix>3d</fix>
</trkpt>
<trkpt lat="40.0728419" lon="-105.2305749">
  <ele>1586.14</ele>
  <time>2026-08-28T19:06:23Z</time>
  <course>10.96</course>
  <speed>0.01414213562373095</speed>
  <fix>3d</fix>
</trkpt>
<trkpt lat="40.072842" lon="-105.230575">
  <ele>1586.09</ele>
  <time>2026-08-28T19:06:23Z</time>
  <course>266.03</course>
  <speed>0.0</speed>
  <fix>3d</fix>
</trkpt>
<trkpt lat="40.0728419" lon="-105.2305749">
  <ele>1586.14</ele>
  <time>2026-08-28T19:06:23Z</time>
  <course>10.96</course>
  <speed>0.01414213562373095</speed>
  <fix>3d</fix>
</trkpt>
<trkpt lat="40.072842" lon="-105.230575">
  <ele>1586.09</ele>
  <time>2026-08-28T19:06:23Z</time>
  <course>266.03</course>
  <speed>0.0</speed>
  <fix>3d</fix>
</trkpt>
<trkpt lat="40.0728419" lon="-105.2305749">
  <ele>1586.15</ele>
  <time>2026-08-28T19:06:23Z</time>
  <course>10.96</course>
  <speed>0.01414213562373095</speed>
  <fix>3d</fix>
</trkpt>
<trkpt lat="40.072842" lon="-105.230575">
  <ele>1586.09</ele>
  <time>2026-08-28T19:06:23Z</time>
  <course>266.03</course>
  <speed>0.0</speed>
  <fix>3d</fix>
</trkpt>
<trkpt lat="40.0728419" lon="-105.2305749">
  <ele>1586.15</ele>
  <time>2026-08-28T19:06:23Z</time>
  <course>10.96</course>
  <speed>0.01414213562373095</speed>
  <fix>3d</fix>
</trkpt>
<trkpt lat="40.072842" lon="-105.230575">
  <ele>1586.09</ele>
  <time>2026-08-28T19:06:23Z</time>
  <course>266.03</course>
  <speed>0.0</speed>
  <fix>3d</fix>
</trkpt>
<trkpt lat="40.0728419" lon="-105.2305749">
  <ele>1586.15</ele>
  <time>2026-08-28T19:06:23Z</time>
  <course>10.96</course>
  <speed>0.01414213562373095</speed>
  <fix>3d</fix>
</trkpt>
<trkpt lat="40.072842" lon="-105.230575">
  <ele>1586.09</ele>
  <time>2026-08-28T19:06:23Z</time>
  <course>266.03</course>
  <speed>0.0</speed>
  <fix>3d</fix>
</trkpt>
<trkpt lat="40.0728419" lon="-105.2305749">
  <ele>1586.16</ele>
  <time>2026-08-28T19:06:23Z</time>
  <course>10.96</course>
  <speed>0.01414213562373095</speed>
  <fix>3d</fix>
</trkpt>
<trkpt lat="40.072842" lon="-105.230575">
  <ele>1586.09</ele>
  <time>2026-08-28T19:06:23Z</time>
  <course>266.03</course>
  <speed>0.0</speed>
  <fix>3d</fix>
</trkpt>
<trkpt lat="40.0728419" lon="-105.2305749">
  <ele>1586.17</ele>
  <time>2026-08-28T19:06:23Z</time>
  <course>10.96</course>
  <speed>0.01414213562373095</speed>
  <fix>3d</fix>
</trkpt>
<trkpt lat="40.072842" lon="-105.230575">
  <ele>1586.09</ele>
  <time>2026-08-28T19:06:23Z</time>
  <course>266.03</course>
  <speed>0.0</speed>
  <fix>3d</fix>
</trkpt>
<trkpt lat="40.0728419" lon="-105.2305749">
  <ele>1586.17</ele>
  <time>2026-08-28T19:06:23Z</time>
  <course>10.96</course>
  <speed>0.01414213562373095</speed>
  <fix>3d</fix>
</trkpt>
<trkpt lat="40.072842" lon="-105.230575">
  <ele>1586.09</ele>
  <time>2026-08-28T19:06:23Z</time>
  <course>266.03</course>
  <speed>0.0</speed>
  <fix>3d</fix>
</trkpt>
<trkpt lat="40.0728419" lon="-105.2305749">
  <ele>1586.17</ele>
  <time>2026-08-28T19:06:23Z</time>
  <course>10.96</course>
  <speed>0.01414213562373095</speed>
  <fix>3d</fix>
</trkpt>
<trkpt lat="40.072842" lon="-105.230575">
  <ele>1586.09</ele>
  <time>2026-08-28T19:06:23Z</time>
  <course>266.03</course>
  <speed>0.0</speed>
  <fix>3d</fix>
</trkpt>
<trkpt lat="40.0728419" lon="-105.2305749">
  <ele>1586.17</ele>
  <time>2026-08-28T19:06:23Z</time>
  <course>10.96</course>
  <speed>0.01414213562373095</speed>
  <fix>3d</fix>
</trkpt>
<trkpt lat="40.072842" lon="-105.230575">
  <ele>1586.09</ele>
  <time>2026-08-28T19:06:23Z</time>
  <course>266.03</course>
  <speed>0.0</speed>
  <fix>3d</fix>
</trkpt>
<trkpt lat="40.0728419" lon="-105.2305749">
  <ele>1586.17</ele>
  <time>2026-08-28T19:06:23Z</time>
  <course>10.96</course>
  <speed>0.01414213562373095</speed>
  <fix>3d</fix>
</trkpt>
<trkpt lat="40.072842" lon="-105.230575">
  <ele>1586.09</ele>
  <time>2026-08-28T19:06:23Z</time>
  <course>266.03</course>
  <speed>0.0</speed>
  <fix>3d</fix>
</trkpt>
<trkpt lat="40.0728419" lon="-105.2305749">
  <ele>1586.17</ele>
  <time>2026-08-28T19:06:23Z</time>
  <course>10.96</course>
  <speed>0.01414213562373095</speed>
  <fix>3d</fix>
</trkpt>
<trkpt lat="40.072842" lon="-105.230575">
  <ele>1586.09</ele>
  <time>2026-08-28T19:06:23Z</time>
  <course>266.03</course>
  <speed>0.0</speed>
  <fix>3d</fix>
</trkpt>
<trkpt lat="40.0728419" lon="-105.2305749">
  <ele>1586.17</ele>
  <time>2026-08-28T19:06:23Z</time>
  <course>10.96</course>
  <speed>0.01414213562373095</speed>
  <fix>3d</fix>
</trkpt>
<trkpt lat="40.072842" lon="-105.230575">
  <ele>1586.09</ele>
  <time>2026-08-28T19:06:23Z</time>
  <course>266.03</course>
  <speed>0.0</speed>
  <fix>3d</fix>
</trkpt>
<trkpt lat="40.0728419" lon="-105.2305749">
  <ele>1586.18</ele>
  <time>2026-08-28T19:06:23Z</time>
  <course>10.96</course>
  <speed>0.01414213562373095</speed>
  <fix>3d</fix>
</trkpt>
<trkpt lat="40.072842" lon="-105.230575">
  <ele>1586.09</ele>
  <time>2026-08-28T19:06:23Z</time>
  <course>266.03</course>
  <speed>0.0</speed>
  <fix>3d</fix>
</trkpt>
<trkpt lat="40.0728419" lon="-105.2305749">
  <ele>1586.18</ele>
  <time>2026-08-28T19:06:23Z</time>
  <course>10.96</course>
  <speed>0.01414213562373095</speed>
  <fix>3d</fix>
</trkpt>
<trkpt lat="40.072842" lon="-105.230575">
  <ele>1586.09</ele>
  <time>2026-08-28T19:06:23Z</time>
  <course>266.03</course>
  <speed>0.0</speed>
  <fix>3d</fix>
</trkpt>
<trkpt lat="40.0728419" lon="-105.2305749">
  <ele>1586.18</ele>
  <time>2026-08-28T19:06:23Z</time>
  <course>10.97</course>
  <speed>0.01414213562373095</speed>
  <fix>3d</fix>
</trkpt>
<trkpt lat="40.072842" lon="-105.230575">
  <ele>1586.09</ele>
  <time>2026-08-28T19:06:23Z</time>
  <course>266.03</course>
  <speed>0.0</speed>
  <fix>3d</fix>
</trkpt>
<trkpt lat="40.0728419" lon="-105.2305749">
  <ele>1586.19</ele>
  <time>2026-08-28T19:06:23Z</time>
  <course>10.97</course>
  <speed>0.01414213562373095</speed>
  <fix>3d</fix>
</trkpt>
<trkpt lat="40.072842" lon="-105.230575">
  <ele>1586.09</ele>
  <time>2026-08-28T19:06:23Z</time>
  <course>266.03</course>
  <speed>0.0</speed>
  <fix>3d</fix>
</trkpt>
<trkpt lat="40.0728419" lon="-105.2305749">
  <ele>1586.19</ele>
  <time>2026-08-28T19:06:23Z</time>
  <course>10.97</course>
  <speed>0.01414213562373095</speed>
  <fix>3d</fix>
</trkpt>
<trkpt lat="40.072842" lon="-105.230575">
  <ele>1586.09</ele>
  <time>2026-08-28T19:06:23Z</time>
  <course>266.03</course>
  <speed>0.0</speed>
  <fix>3d</fix>
</trkpt>
<trkpt lat="40.0728419" lon="-105.2305749">
  <ele>1586.19</ele>
  <time>2026-08-28T19:06:23Z</time>
  <course>10.97</course>
  <speed>0.01414213562373095</speed>
  <fix>3d</fix>
</trkpt>
<trkpt lat="40.072842" lon="-105.230575">
  <ele>1586.09</ele>
  <time>2026-08-28T19:06:23Z</time>
  <course>266.03</course>
  <speed>0.0</speed>
  <fix>3d</fix>
</trkpt>
<trkpt lat="40.0728419" lon="-105.2305749">
  <ele>1586.19</ele>
  <time>2026-08-28T19:06:23Z</time>
  <course>10.97</course>
  <speed>0.01414213562373095</speed>
  <fix>3d</fix>
</trkpt>
<trkpt lat="40.072842" lon="-105.230575">
  <ele>1586.09</ele>
  <time>2026-08-28T19:06:23Z</time>
  <course>266.03</course>
  <speed>0.0</speed>
  <fix>3d</fix>
</trkpt>
<trkpt lat="40.0728419" lon="-105.2305749">
  <ele>1586.18</ele>
  <time>2026-08-28T19:06:23Z</time>
  <course>10.97</course>
  <speed>0.01414213562373095</speed>
  <fix>3d</fix>
</trkpt>
<trkpt lat="40.072842" lon="-105.230575">
  <ele>1586.09</ele>
  <time>2026-08-28T19:06:23Z</time>
  <course>266.03</course>
  <speed>0.0</speed>
  <fix>3d</fix>
</trkpt>
<trkpt lat="40.0728419" lon="-105.2305749">
  <ele>1586.18</ele>
  <time>2026-08-28T19:06:23Z</time>
  <course>10.97</course>
  <speed>0.01414213562373095</speed>
  <fix>3d</fix>
</trkpt>
<trkpt lat="40.072842" lon="-105.230575">
  <ele>1586.09</ele>
  <time>2026-08-28T19:06:23Z</time>
  <course>266.03</course>
  <speed>0.0</speed>
  <fix>3d</fix>
</trkpt>
<trkpt lat="40.0728419" lon="-105.2305749">
  <ele>1586.19</ele>
  <time>2026-08-28T19:06:23Z</time>
  <course>10.97</course>
  <speed>0.01414213562373095</speed>
  <fix>3d</fix>
</trkpt>
<trkpt lat="40.072842" lon="-105.230575">
  <ele>1586.09</ele>
  <time>2026-08-28T19:06:23Z</time>
  <course>266.03</course>
  <speed>0.0</speed>
  <fix>3d</fix>
</trkpt>
<trkpt lat="40.0728419" lon="-105.2305749">
  <ele>1586.19</ele>
  <time>2026-08-28T19:06:23Z</time>
  <course>10.97</course>
  <speed>0.01414213562373095</speed>
  <fix>3d</fix>
</trkpt>
<trkpt lat="40.072842" lon="-105.230575">
  <ele>1586.09</ele>
  <time>2026-08-28T19:06:23Z</time>
  <course>266.03</course>
  <speed>0.0</speed>
  <fix>3d</fix>
</trkpt>
<trkpt lat="40.0728419" lon="-105.2305749">
  <ele>1586.19</ele>
  <time>2026-08-28T19:06:23Z</time>
  <course>10.97</course>
  <speed>0.01414213562373095</speed>
  <fix>3d</fix>
</trkpt>
<trkpt lat="40.072842" lon="-105.230575">
  <ele>1586.09</ele>
  <time>2026-08-28T19:06:23Z</time>
  <course>266.03</course>
  <speed>0.0</speed>
  <fix>3d</fix>
</trkpt>
<trkpt lat="40.0728419" lon="-105.2305749">
  <ele>1586.2</ele>
  <time>2026-08-28T19:06:23Z</time>
  <course>10.97</course>
  <speed>0.01414213562373095</speed>
  <fix>3d</fix>
</trkpt>
<trkpt lat="40.072842" lon="-105.230575">
  <ele>1586.09</ele>
  <time>2026-08-28T19:06:23Z</time>
  <course>266.03</course>
  <speed>0.0</speed>
  <fix>3d</fix>
</trkpt>
<trkpt lat="40.0728419" lon="-105.2305749">
  <ele>1586.2</ele>
  <time>2026-08-28T19:06:23Z</time>
  <course>10.97</course>
  <speed>0.01414213562373095</speed>
  <fix>3d</fix>
</trkpt>
<trkpt lat="40.072842" lon="-105.230575">
  <ele>1586.09</ele>
  <time>2026-08-28T19:06:23Z</time>
  <course>266.03</course>
  <speed>0.0</speed>
  <fix>3d</fix>
</trkpt>
<trkpt lat="40.0728419" lon="-105.2305749">
  <ele>1586.21</ele>
  <time>2026-08-28T19:06:23Z</time>
  <course>10.97</course>
  <speed>0.01414213562373095</speed>
  <fix>3d</fix>
</trkpt>
<trkpt lat="40.072842" lon="-105.230575">
  <ele>1586.09</ele>
  <time>2026-08-28T19:06:23Z</time>
  <course>266.03</course>
  <speed>0.0</speed>
  <fix>3d</fix>
</trkpt>
<trkpt lat="40.0728419" lon="-105.2305749">
  <ele>1586.22</ele>
  <time>2026-08-28T19:06:23Z</time>
  <course>10.97</course>
  <speed>0.01414213562373095</speed>
  <fix>3d</fix>
</trkpt>
<trkpt lat="40.072842" lon="-105.230575">
  <ele>1586.09</ele>
  <time>2026-08-28T19:06:23Z</time>
  <course>266.03</course>
  <speed>0.0</speed>
  <fix>3d</fix>
</trkpt>
<trkpt lat="40.0728419" lon="-105.2305749">
  <ele>1586.22</ele>
  <time>2026-08-28T19:06:23Z</time>
  <course>10.97</course>
  <speed>0.01414213562373095</speed>
  <fix>3d</fix>
</trkpt>
<trkpt lat="40.072842" lon="-105.230575">
  <ele>1586.09</ele>
  <time>2026-08-28T19:06:23Z</time>
  <course>266.03</course>
  <speed>0.0</speed>
  <fix>3d</fix>
</trkpt>
<trkpt lat="40.0728419" lon="-105.2305749">
  <ele>1586.22</ele>
  <time>2026-08-28T19:06:23Z</time>
  <course>10.97</course>
  <speed>0.01414213562373095</speed>
  <fix>3d</fix>
</trkpt>
<trkpt lat="40.072842" lon="-105.230575">
  <ele>1586.09</ele>
  <time>2026-08-28T19:06:23Z</time>
  <course>266.03</course>
  <speed>0.0</speed>
  <fix>3d</fix>
</trkpt>
<trkpt lat="40.0728419" lon="-105.2305749">
  <ele>1586.23</ele>
  <time>2026-08-28T19:06:23Z</time>
  <course>10.97</course>
  <speed>0.01414213562373095</speed>
  <fix>3d</fix>
</trkpt>
<trkpt lat="40.072842" lon="-105.230575">
  <ele>1586.09</ele>
  <time>2026-08-28T19:06:23Z</time>
  <course>266.03</course>
  <speed>0.0</speed>
  <fix>3d</fix>
</trkpt>
<trkpt lat="40.0728419" lon="-105.2305749">
  <ele>1586.23</ele>
  <time>2026-08-28T19:06:23Z</time>
  <course>10.97</course>
  <speed>0.01414213562373095</speed>
  <fix>3d</fix>
</trkpt>
<trkpt lat="40.072842" lon="-105.230575">
  <ele>1586.09</ele>
  <time>2026-08-28T19:06:23Z</time>
  <course>266.03</course>
  <speed>0.0</speed>
  <fix>3d</fix>
</trkpt>
<trkpt lat="40.0728419" lon="-105.2305749">
  <ele>1586.22</ele>
  <time>2026-08-28T19:06:23Z</time>
  <course>10.97</course>
  <speed>0.01414213562373095</speed>
  <fix>3d</fix>
</trkpt>
<trkpt lat="40.072842" lon="-105.230575">
  <ele>1586.09</ele>
  <time>2026-08-28T19:06:23Z</time>
  <course>266.03</course>
  <speed>0.0</speed>
  <fix>3d</fix>
</trkpt>
<trkpt lat="40.0728419" lon="-105.2305749">
  <ele>1586.22</ele>
  <time>2026-08-28T19:06:23Z</time>
  <course>10.97</course>
  <speed>0.01414213562373095</speed>
  <fix>3d</fix>
</trkpt>
<trkpt lat="40.072842" lon="-105.230575">
  <ele>1586.09</ele>
  <time>2026-08-28T19:06:23Z</time>
  <course>266.03</course>
  <speed>0.0</speed>
  <fix>3d</fix>
</trkpt>
<trkpt lat="40.0728419" lon="-105.2305749">
  <ele>1586.21</ele>
  <time>2026-08-28T19:06:23Z</time>
  <course>10.97</course>
  <speed>0.01414213562373095</speed>
  <fix>3d</fix>
</trkpt>
<trkpt lat="40.072842" lon="-105.230575">
  <ele>1586.09</ele>
  <time>2026-08-28T19:06:23Z</time>
  <course>266.03</course>
  <speed>0.0</speed>
  <fix>3d</fix>
</trkpt>
<trkpt lat="40.0728419" lon="-105.2305749">
  <ele>1586.2</ele>
  <time>2026-08-28T19:06:23Z</time>
  <course>10.97</course>
  <speed>0.01414213562373095</speed>
  <fix>3d</fix>
</trkpt>
<trkpt lat="40.072842" lon="-105.230575">
  <ele>1586.09</ele>
  <time>2026-08-28T19:06:23Z</time>
  <course>266.03</course>
  <speed>0.0</speed>
  <fix>3d</fix>
</trkpt>
<trkpt lat="40.0728419" lon="-105.2305749">
  <ele>1586.2</ele>
  <time>2026-08-28T19:06:23Z</time>
  <course>10.97</course>
  <speed>0.01414213562373095</speed>
  <fix>3d</fix>
</trkpt>
<trkpt lat="40.072842" lon="-105.230575">
  <ele>1586.09</ele>
  <time>2026-08-28T19:06:23Z</time>
  <course>266.03</course>
  <speed>0.0</speed>
  <fix>3d</fix>
</trkpt>
<trkpt lat="40.0728419" lon="-105.2305749">
  <ele>1586.2</ele>
  <time>2026-08-28T19:06:23Z</time>
  <course>10.97</course>
  <speed>0.01414213562373095</speed>
  <fix>3d</fix>
</trkpt>
<trkpt lat="40.072842" lon="-105.230575">
  <ele>1586.09</ele>
  <time>2026-08-28T19:06:23Z</time>
  <course>266.03</course>
  <speed>0.0</speed>
  <fix>3d</fix>
</trkpt>
<trkpt lat="40.0728419" lon="-105.2305749">
  <ele>1586.2</ele>
  <time>2026-08-28T19:06:23Z</time>
  <course>10.98</course>
  <speed>0.01414213562373095</speed>
  <fix>3d</fix>
</trkpt>
<trkpt lat="40.072842" lon="-105.230575">
  <ele>1586.09</ele>
  <time>2026-08-28T19:06:23Z</time>
  <course>266.03</course>
  <speed>0.0</speed>
  <fix>3d</fix>
</trkpt>
<trkpt lat="40.0728419" lon="-105.2305749">
  <ele>1586.2</ele>
  <time>2026-08-28T19:06:23Z</time>
  <course>10.98</course>
  <speed>0.01414213562373095</speed>
  <fix>3d</fix>
</trkpt>
<trkpt lat="40.072842" lon="-105.230575">
  <ele>1586.09</ele>
  <time>2026-08-28T19:06:23Z</time>
  <course>266.03</course>
  <speed>0.0</speed>
  <fix>3d</fix>
</trkpt>
<trkpt lat="40.0728419" lon="-105.2305749">
  <ele>1586.19</ele>
  <time>2026-08-28T19:06:23Z</time>
  <course>10.98</course>
  <speed>0.01414213562373095</speed>
  <fix>3d</fix>
</trkpt>
<trkpt lat="40.072842" lon="-105.230575">
  <ele>1586.09</ele>
  <time>2026-08-28T19:06:23Z</time>
  <course>266.03</course>
  <speed>0.0</speed>
  <fix>3d</fix>
</trkpt>
<trkpt lat="40.0728419" lon="-105.2305749">
  <ele>1586.19</ele>
  <time>2026-08-28T19:06:23Z</time>
  <course>10.98</course>
  <speed>0.01414213562373095</speed>
  <fix>3d</fix>
</trkpt>
<trkpt lat="40.072842" lon="-105.230575">
  <ele>1586.09</ele>
  <time>2026-08-28T19:06:23Z</time>
  <course>266.03</course>
  <speed>0.0</speed>
  <fix>3d</fix>
</trkpt>
<trkpt lat="40.0728419" lon="-105.2305749">
  <ele>1586.19</ele>
  <time>2026-08-28T19:06:23Z</time>
  <course>10.98</course>
  <speed>0.01414213562373095</speed>
  <fix>3d</fix>
</trkpt>
<trkpt lat="40.072842" lon="-105.230575">
  <ele>1586.09</ele>
  <time>2026-08-28T19:06:23Z</time>
  <course>266.03</course>
  <speed>0.0</speed>
  <fix>3d</fix>
</trkpt>
<trkpt lat="40.0728419" lon="-105.2305749">
  <ele>1586.2</ele>
  <time>2026-08-28T19:06:23Z</time>
  <course>10.98</course>
  <speed>0.01414213562373095</speed>
  <fix>3d</fix>
</trkpt>
<trkpt lat="40.072842" lon="-105.230575">
  <ele>1586.09</ele>
  <time>2026-08-28T19:06:23Z</time>
  <course>266.03</course>
  <speed>0.0</speed>
  <fix>3d</fix>
</trkpt>
<trkpt lat="40.0728419" lon="-105.2305749">
  <ele>1586.2</ele>
  <time>2026-08-28T19:06:23Z</time>
  <course>10.98</course>
  <speed>0.01414213562373095</speed>
  <fix>3d</fix>
</trkpt>
<trkpt lat="40.072842" lon="-105.230575">
  <ele>1586.09</ele>
  <time>2026-08-28T19:06:23Z</time>
  <course>266.03</course>
  <speed>0.0</speed>
  <fix>3d</fix>
</trkpt>
<trkpt lat="40.0728419" lon="-105.2305749">
  <ele>1586.2</ele>
  <time>2026-08-28T19:06:23Z</time>
  <course>10.98</course>
  <speed>0.01414213562373095</speed>
  <fix>3d</fix>
</trkpt>
<trkpt lat="40.072842" lon="-105.230575">
  <ele>1586.09</ele>
  <time>2026-08-28T19:06:23Z</time>
  <course>266.03</course>
  <speed>0.0</speed>
  <fix>3d</fix>
</trkpt>
<trkpt lat="40.0728419" lon="-105.2305749">
  <ele>1586.2</ele>
  <time>2026-08-28T19:06:23Z</time>
  <course>10.98</course>
  <speed>0.01414213562373095</speed>
  <fix>3d</fix>
</trkpt>
<trkpt lat="40.072842" lon="-105.230575">
  <ele>1586.09</ele>
  <time>2026-08-28T19:06:23Z</time>
  <course>266.03</course>
  <speed>0.0</speed>
  <fix>3d</fix>
</trkpt>
<trkpt lat="40.0728419" lon="-105.2305749">
  <ele>1586.21</ele>
  <time>2026-08-28T19:06:23Z</time>
  <course>10.98</course>
  <speed>0.01414213562373095</speed>
  <fix>3d</fix>
</trkpt>
<trkpt lat="40.072842" lon="-105.230575">
  <ele>1586.09</ele>
  <time>2026-08-28T19:06:23Z</time>
  <course>266.03</course>
  <speed>0.0</speed>
  <fix>3d</fix>
</trkpt>
<trkpt lat="40.0728419" lon="-105.2305749">
  <ele>1586.21</ele>
  <time>2026-08-28T19:06:23Z</time>
  <course>10.98</course>
  <speed>0.01414213562373095</speed>
  <fix>3d</fix>
</trkpt>
<trkpt lat="40.072842" lon="-105.230575">
  <ele>1586.09</ele>
  <time>2026-08-28T19:06:23Z</time>
  <course>266.03</course>
  <speed>0.0</speed>
  <fix>3d</fix>
</trkpt>
<trkpt lat="40.0728419" lon="-105.2305749">
  <ele>1586.2</ele>
  <time>2026-08-28T19:06:23Z</time>
  <course>10.98</course>
  <speed>0.01414213562373095</speed>
  <fix>3d</fix>
</trkpt>
<trkpt lat="40.072842" lon="-105.230575">
  <ele>1586.09</ele>
  <time>2026-08-28T19:06:23Z</time>
  <course>266.03</course>
  <speed>0.0</speed>
  <fix>3d</fix>
</trkpt>
<trkpt lat="40.0728419" lon="-105.2305749">
  <ele>1586.2</ele>
  <time>2026-08-28T19:06:23Z</time>
  <course>10.98</course>
  <speed>0.01414213562373095</speed>
  <fix>3d</fix>
</trkpt>
<trkpt lat="40.072842" lon="-105.230575">
  <ele>1586.09</ele>
  <time>2026-08-28T19:06:23Z</time>
  <course>266.03</course>
  <speed>0.0</speed>
  <fix>3d</fix>
</trkpt>
<trkpt lat="40.0728419" lon="-105.2305749">
  <ele>1586.2</ele>
  <time>2026-08-28T19:06:23Z</time>
  <course>10.98</course>
  <speed>0.01414213562373095</speed>
  <fix>3d</fix>
</trkpt>
<trkpt lat="40.072842" lon="-105.230575">
  <ele>1586.09</ele>
  <time>2026-08-28T19:06:23Z</time>
  <course>266.03</course>
  <speed>0.0</speed>
  <fix>3d</fix>
</trkpt>
<trkpt lat="40.0728419" lon="-105.2305749">
  <ele>1586.2</ele>
  <time>2026-08-28T19:06:23Z</time>
  <course>10.98</course>
  <speed>0.01414213562373095</speed>
  <fix>3d</fix>
</trkpt>
<trkpt lat="40.072842" lon="-105.230575">
  <ele>1586.09</ele>
  <time>2026-08-28T19:06:23Z</time>
  <course>266.03</course>
  <speed>0.0</speed>
  <fix>3d</fix>
</trkpt>
<trkpt lat="40.0728419" lon="-105.2305749">
  <ele>1586.2</ele>
  <time>2026-08-28T19:06:23Z</time>
  <course>10.98</course>
  <speed>0.01414213562373095</speed>
  <fix>3d</fix>
</trkpt>
<trkpt lat="40.072842" lon="-105.230575">
  <ele>1586.09</ele>
  <time>2026-08-28T19:06:23Z</time>
  <course>266.03</course>
  <speed>0.0</speed>
  <fix>3d</fix>
</trkpt>
<trkpt lat="40.0728419" lon="-105.2305749">
  <ele>1586.2</ele>
  <time>2026-08-28T19:06:23Z</time>
  <course>10.98</course>
  <speed>0.01414213562373095</speed>
  <fix>3d</fix>
</trkpt>
<trkpt lat="40.072842" lon="-105.230575">
  <ele>1586.09</ele>
  <time>2026-08-28T19:06:23Z</time>
  <course>266.03</course>
  <speed>0.0</speed>
  <fix>3d</fix>
</trkpt>
<trkpt lat="40.0728419" lon="-105.2305749">
  <ele>1586.2</ele>
  <time>2026-08-28T19:06:23Z</time>
  <course>10.98</course>
  <speed>0.01414213562373095</speed>
  <fix>3d</fix>
</trkpt>
<trkpt lat="40.072842" lon="-105.230575">
  <ele>1586.09</ele>
  <time>2026-08-28T19:06:23Z</time>
  <course>266.03</course>
  <speed>0.0</speed>
  <fix>3d</fix>
</trkpt>
<trkpt lat="40.0728419" lon="-105.2305749">
  <ele>1586.2</ele>
  <time>2026-08-28T19:06:23Z</time>
  <course>10.98</course>
  <speed>0.01414213562373095</speed>
  <fix>3d</fix>
</trkpt>
<trkpt lat="40.072842" lon="-105.230575">
  <ele>1586.09</ele>
  <time>2026-08-28T19:06:23Z</time>
  <course>266.03</course>
  <speed>0.0</speed>
  <fix>3d</fix>
</trkpt>
<trkpt lat="40.0728419" lon="-105.2305749">
  <ele>1586.2</ele>
  <time>2026-08-28T19:06:23Z</time>
  <course>10.98</course>
  <speed>0.01414213562373095</speed>
  <fix>3d</fix>
</trkpt>
<trkpt lat="40.072842" lon="-105.230575">
  <ele>1586.09</ele>
  <time>2026-08-28T19:06:23Z</time>
  <course>266.03</course>
  <speed>0.0</speed>
  <fix>3d</fix>
</trkpt>
<trkpt lat="40.0728419" lon="-105.2305749">
  <ele>1586.2</ele>
  <time>2026-08-28T19:06:23Z</time>
  <course>10.98</course>
  <speed>0.01414213562373095</speed>
  <fix>3d</fix>
</trkpt>
<trkpt lat="40.072842" lon="-105.230575">
  <ele>1586.09</ele>
  <time>2026-08-28T19:06:23Z</time>
  <course>266.03</course>
  <speed>0.0</speed>
  <fix>3d</fix>
</trkpt>
<trkpt lat="40.0728419" lon="-105.2305749">
  <ele>1586.19</ele>
  <time>2026-08-28T19:06:23Z</time>
  <course>10.98</course>
  <speed>0.01414213562373095</speed>
  <fix>3d</fix>
</trkpt>
<trkpt lat="40.072842" lon="-105.230575">
  <ele>1586.09</ele>
  <time>2026-08-28T19:06:23Z</time>
  <course>266.03</course>
  <speed>0.0</speed>
  <fix>3d</fix>
</trkpt>
<trkpt lat="40.0728419" lon="-105.2305749">
  <ele>1586.19</ele>
  <time>2026-08-28T19:06:23Z</time>
  <course>10.99</course>
  <speed>0.01414213562373095</speed>
  <fix>3d</fix>
</trkpt>
<trkpt lat="40.072842" lon="-105.230575">
  <ele>1586.09</ele>
  <time>2026-08-28T19:06:23Z</time>
  <course>266.03</course>
  <speed>0.0</speed>
  <fix>3d</fix>
</trkpt>
<trkpt lat="40.0728419" lon="-105.2305749">
  <ele>1586.19</ele>
  <time>2026-08-28T19:06:23Z</time>
  <course>10.99</course>
  <speed>0.01414213562373095</speed>
  <fix>3d</fix>
</trkpt>
<trkpt lat="40.072842" lon="-105.230575">
  <ele>1586.09</ele>
  <time>2026-08-28T19:06:23Z</time>
  <course>266.03</course>
  <speed>0.0</speed>
  <fix>3d</fix>
</trkpt>
<trkpt lat="40.0728419" lon="-105.2305749">
  <ele>1586.19</ele>
  <time>2026-08-28T19:06:23Z</time>
  <course>10.99</course>
  <speed>0.01414213562373095</speed>
  <fix>3d</fix>
</trkpt>
<trkpt lat="40.072842" lon="-105.230575">
  <ele>1586.09</ele>
  <time>2026-08-28T19:06:23Z</time>
  <course>266.03</course>
  <speed>0.0</speed>
  <fix>3d</fix>
</trkpt>
<trkpt lat="40.0728419" lon="-105.2305749">
  <ele>1586.19</ele>
  <time>2026-08-28T19:06:23Z</time>
  <course>10.99</course>
  <speed>0.01414213562373095</speed>
  <fix>3d</fix>
</trkpt>
<trkpt lat="40.072842" lon="-105.230575">
  <ele>1586.09</ele>
  <time>2026-08-28T19:06:23Z</time>
  <course>266.03</course>
  <speed>0.0</speed>
  <fix>3d</fix>
</trkpt>
<trkpt lat="40.0728419" lon="-105.2305749">
  <ele>1586.19</ele>
  <time>2026-08-28T19:06:23Z</time>
  <course>10.99</course>
  <speed>0.01414213562373095</speed>
  <fix>3d</fix>
</trkpt>
<trkpt lat="40.072842" lon="-105.230575">
  <ele>1586.09</ele>
  <time>2026-08-28T19:06:23Z</time>
  <course>266.03</course>
  <speed>0.0</speed>
  <fix>3d</fix>
</trkpt>
<trkpt lat="40.0728419" lon="-105.2305749">
  <ele>1586.2</ele>
  <time>2026-08-28T19:06:23Z</time>
  <course>10.99</course>
  <speed>0.01414213562373095</speed>
  <fix>3d</fix>
</trkpt>
<trkpt lat="40.072842" lon="-105.230575">
  <ele>1586.09</ele>
  <time>2026-08-28T19:06:23Z</time>
  <course>266.03</course>
  <speed>0.0</speed>
  <fix>3d</fix>
</trkpt>
<trkpt lat="40.0728419" lon="-105.2305749">
  <ele>1586.2</ele>
  <time>2026-08-28T19:06:23Z</time>
  <course>10.99</course>
  <speed>0.01414213562373095</speed>
  <fix>3d</fix>
</trkpt>
<trkpt lat="40.072842" lon="-105.230575">
  <ele>1586.09</ele>
  <time>2026-08-28T19:06:23Z</time>
  <course>266.03</course>
  <speed>0.0</speed>
  <fix>3d</fix>
</trkpt>
<trkpt lat="40.0728419" lon="-105.2305749">
  <ele>1586.2</ele>
  <time>2026-08-28T19:06:23Z</time>
  <course>10.99</course>
  <speed>0.01414213562373095</speed>
  <fix>3d</fix>
</trkpt>
<trkpt lat="40.072842" lon="-105.230575">
  <ele>1586.09</ele>
  <time>2026-08-28T19:06:23Z</time>
  <course>266.03</course>
  <speed>0.0</speed>
  <fix>3d</fix>
</trkpt>
<trkpt lat="40.0728419" lon="-105.2305749">
  <ele>1586.21</ele>
  <time>2026-08-28T19:06:23Z</time>
  <course>10.99</course>
  <speed>0.01414213562373095</speed>
  <fix>3d</fix>
</trkpt>
<trkpt lat="40.072842" lon="-105.230575">
  <ele>1586.09</ele>
  <time>2026-08-28T19:06:23Z</time>
  <course>266.03</course>
  <speed>0.0</speed>
  <fix>3d</fix>
</trkpt>
<trkpt lat="40.0728419" lon="-105.2305749">
  <ele>1586.21</ele>
  <time>2026-08-28T19:06:23Z</time>
  <course>10.99</course>
  <speed>0.01414213562373095</speed>
  <fix>3d</fix>
</trkpt>
<trkpt lat="40.072842" lon="-105.230575">
  <ele>1586.09</ele>
  <time>2026-08-28T19:06:23Z</time>
  <course>266.03</course>
  <speed>0.0</speed>
  <fix>3d</fix>
</trkpt>
<trkpt lat="40.0728419" lon="-105.2305749">
  <ele>1586.21</ele>
  <time>2026-08-28T19:06:23Z</time>
  <course>10.99</course>
  <speed>0.01414213562373095</speed>
  <fix>3d</fix>
</trkpt>
<trkpt lat="40.072842" lon="-105.230575">
  <ele>1586.09</ele>
  <time>2026-08-28T19:06:23Z</time>
  <course>266.03</course>
  <speed>0.0</speed>
  <fix>3d</fix>
</trkpt>
<trkpt lat="40.0728419" lon="-105.2305749">
  <ele>1586.21</ele>
  <time>2026-08-28T19:06:23Z</time>
  <course>10.99</course>
  <speed>0.01414213562373095</speed>
  <fix>3d</fix>
</trkpt>
<trkpt lat="40.072842" lon="-105.230575">
  <ele>1586.09</ele>
  <time>2026-08-28T19:06:23Z</time>
  <course>266.03</course>
  <speed>0.0</speed>
  <fix>3d</fix>
</trkpt>
<trkpt lat="40.0728419" lon="-105.2305749">
  <ele>1586.21</ele>
  <time>2026-08-28T19:06:23Z</time>
  <course>10.99</course>
  <speed>0.01414213562373095</speed>
  <fix>3d</fix>
</trkpt>
<trkpt lat="40.072842" lon="-105.230575">
  <ele>1586.09</ele>
  <time>2026-08-28T19:06:23Z</time>
  <course>266.03</course>
  <speed>0.0</speed>
  <fix>3d</fix>
</trkpt>
<trkpt lat="40.0728419" lon="-105.2305749">
  <ele>1586.21</ele>
  <time>2026-08-28T19:06:23Z</time>
  <course>10.99</course>
  <speed>0.01414213562373095</speed>
  <fix>3d</fix>
</trkpt>
<trkpt lat="40.072842" lon="-105.230575">
  <ele>1586.09</ele>
  <time>2026-08-28T19:06:23Z</time>
  <course>266.03</course>
  <speed>0.0</speed>
  <fix>3d</fix>
</trkpt>
<trkpt lat="40.0728419" lon="-105.2305749">
  <ele>1586.21</ele>
  <time>2026-08-28T19:06:23Z</time>
  <course>10.99</course>
  <speed>0.01414213562373095</speed>
  <fix>3d</fix>
</trkpt>
<trkpt lat="40.072842" lon="-105.230575">
  <ele>1586.09</ele>
  <time>2026-08-28T19:06:23Z</time>
  <course>266.03</course>
  <speed>0.0</speed>
  <fix>3d</fix>
</trkpt>
<trkpt lat="40.0728419" lon="-105.2305749">
  <ele>1586.21</ele>
  <time>2026-08-28T19:06:23Z</time>
  <course>10.99</course>
  <speed>0.01414213562373095</speed>
  <fix>3d</fix>
</trkpt>
<trkpt lat="40.072842" lon="-105.230575">
  <ele>1586.09</ele>
  <time>2026-08-28T19:06:23Z</time>
  <course>266.03</course>
  <speed>0.0</speed>
  <fix>3d</fix>
</trkpt>
<trkpt lat="40.0728419" lon="-105.2305749">
  <ele>1586.21</ele>
  <time>2026-08-28T19:06:23Z</time>
  <course>10.99</course>
  <speed>0.022360679774997897</speed>
  <fix>3d</fix>
</trkpt>
<trkpt lat="40.072842" lon="-105.230575">
  <ele>1586.09</ele>
  <time>2026-08-28T19:06:23Z</time>
  <course>266.03</course>
  <speed>0.0</speed>
  <fix>3d</fix>
</trkpt>
<trkpt lat="40.0728419" lon="-105.2305749">
  <ele>1586.21</ele>
  <time>2026-08-28T19:06:23Z</time>
  <course>10.99</course>
  <speed>0.022360679774997897</speed>
  <fix>3d</fix>
</trkpt>
<trkpt lat="40.072842" lon="-105.230575">
  <ele>1586.09</ele>
  <time>2026-08-28T19:06:23Z</time>
  <course>266.03</course>
  <speed>0.0</speed>
  <fix>3d</fix>
</trkpt>
<trkpt lat="40.0728419" lon="-105.2305749">
  <ele>1586.21</ele>
  <time>2026-08-28T19:06:23Z</time>
  <course>10.99</course>
  <speed>0.022360679774997897</speed>
  <fix>3d</fix>
</trkpt>
<trkpt lat="40.072842" lon="-105.230575">
  <ele>1586.09</ele>
  <time>2026-08-28T19:06:23Z</time>
  <course>266.03</course>
  <speed>0.0</speed>
  <fix>3d</fix>
</trkpt>
<trkpt lat="40.0728419" lon="-105.2305749">
  <ele>1586.2</ele>
  <time>2026-08-28T19:06:23Z</time>
  <course>10.99</course>
  <speed>0.022360679774997897</speed>
  <fix>3d</fix>
</trkpt>
<trkpt lat="40.072842" lon="-105.230575">
  <ele>1586.09</ele>
  <time>2026-08-28T19:06:23Z</time>
  <course>266.03</course>
  <speed>0.0</speed>
  <fix>3d</fix>
</trkpt>
<trkpt lat="40.0728419" lon="-105.2305749">
  <ele>1586.2</ele>
  <time>2026-08-28T19:06:23Z</time>
  <course>10.99</course>
  <speed>0.01414213562373095</speed>
  <fix>3d</fix>
</trkpt>
<trkpt lat="40.072842" lon="-105.230575">
  <ele>1586.09</ele>
  <time>2026-08-28T19:06:23Z</time>
  <course>266.03</course>
  <speed>0.0</speed>
  <fix>3d</fix>
</trkpt>
<trkpt lat="40.0728419" lon="-105.2305749">
  <ele>1586.2</ele>
  <time>2026-08-28T19:06:23Z</time>
  <course>10.99</course>
  <speed>0.01414213562373095</speed>
  <fix>3d</fix>
</trkpt>
<trkpt lat="40.072842" lon="-105.230575">
  <ele>1586.09</ele>
  <time>2026-08-28T19:06:23Z</time>
  <course>266.03</course>
  <speed>0.0</speed>
  <fix>3d</fix>
</trkpt>
<trkpt lat="40.0728419" lon="-105.2305749">
  <ele>1586.2</ele>
  <time>2026-08-28T19:06:23Z</time>
  <course>11.0</course>
  <speed>0.01414213562373095</speed>
  <fix>3d</fix>
</trkpt>
<trkpt lat="40.072842" lon="-105.230575">
  <ele>1586.09</ele>
  <time>2026-08-28T19:06:23Z</time>
  <course>266.03</course>
  <speed>0.0</speed>
  <fix>3d</fix>
</trkpt>
<trkpt lat="40.0728419" lon="-105.2305749">
  <ele>1586.19</ele>
  <time>2026-08-28T19:06:23Z</time>
  <course>11.0</course>
  <speed>0.01414213562373095</speed>
  <fix>3d</fix>
</trkpt>
<trkpt lat="40.072842" lon="-105.230575">
  <ele>1586.09</ele>
  <time>2026-08-28T19:06:23Z</time>
  <course>266.03</course>
  <speed>0.0</speed>
  <fix>3d</fix>
</trkpt>
<trkpt lat="40.0728419" lon="-105.2305749">
  <ele>1586.19</ele>
  <time>2026-08-28T19:06:23Z</time>
  <course>11.0</course>
  <speed>0.01414213562373095</speed>
  <fix>3d</fix>
</trkpt>
<trkpt lat="40.072842" lon="-105.230575">
  <ele>1586.09</ele>
  <time>2026-08-28T19:06:23Z</time>
  <course>266.03</course>
  <speed>0.0</speed>
  <fix>3d</fix>
</trkpt>
<trkpt lat="40.0728419" lon="-105.2305749">
  <ele>1586.19</ele>
  <time>2026-08-28T19:06:23Z</time>
  <course>11.0</course>
  <speed>0.01414213562373095</speed>
  <fix>3d</fix>
</trkpt>
<trkpt lat="40.072842" lon="-105.230575">
  <ele>1586.09</ele>
  <time>2026-08-28T19:06:23Z</time>
  <course>266.03</course>
  <speed>0.0</speed>
  <fix>3d</fix>
</trkpt>
<trkpt lat="40.0728419" lon="-105.2305749">
  <ele>1586.19</ele>
  <time>2026-08-28T19:06:23Z</time>
  <course>11.0</course>
  <speed>0.01414213562373095</speed>
  <fix>3d</fix>
</trkpt>
<trkpt lat="40.072842" lon="-105.230575">
  <ele>1586.09</ele>
  <time>2026-08-28T19:06:23Z</time>
  <course>266.03</course>
  <speed>0.0</speed>
  <fix>3d</fix>
</trkpt>
<trkpt lat="40.0728419" lon="-105.2305749">
  <ele>1586.19</ele>
  <time>2026-08-28T19:06:23Z</time>
  <course>11.0</course>
  <speed>0.01414213562373095</speed>
  <fix>3d</fix>
</trkpt>
<trkpt lat="40.072842" lon="-105.230575">
  <ele>1586.09</ele>
  <time>2026-08-28T19:06:23Z</time>
  <course>266.03</course>
  <speed>0.0</speed>
  <fix>3d</fix>
</trkpt>
<trkpt lat="40.0728419" lon="-105.2305749">
  <ele>1586.18</ele>
  <time>2026-08-28T19:06:23Z</time>
  <course>11.0</course>
  <speed>0.01414213562373095</speed>
  <fix>3d</fix>
</trkpt>
<trkpt lat="40.072842" lon="-105.230575">
  <ele>1586.09</ele>
  <time>2026-08-28T19:06:23Z</time>
  <course>266.03</course>
  <speed>0.0</speed>
  <fix>3d</fix>
</trkpt>
<trkpt lat="40.0728419" lon="-105.2305749">
  <ele>1586.18</ele>
  <time>2026-08-28T19:06:23Z</time>
  <course>11.0</course>
  <speed>0.01414213562373095</speed>
  <fix>3d</fix>
</trkpt>
<trkpt lat="40.072842" lon="-105.230575">
  <ele>1586.09</ele>
  <time>2026-08-28T19:06:23Z</time>
  <course>266.03</course>
  <speed>0.0</speed>
  <fix>3d</fix>
</trkpt>
<trkpt lat="40.0728419" lon="-105.2305749">
  <ele>1586.18</ele>
  <time>2026-08-28T19:06:23Z</time>
  <course>11.0</course>
  <speed>0.01414213562373095</speed>
  <fix>3d</fix>
</trkpt>
<trkpt lat="40.072842" lon="-105.230575">
  <ele>1586.09</ele>
  <time>2026-08-28T19:06:23Z</time>
  <course>266.03</course>
  <speed>0.0</speed>
  <fix>3d</fix>
</trkpt>
<trkpt lat="40.0728419" lon="-105.2305749">
  <ele>1586.17</ele>
  <time>2026-08-28T19:06:23Z</time>
  <course>11.0</course>
  <speed>0.01414213562373095</speed>
  <fix>3d</fix>
</trkpt>
<trkpt lat="40.072842" lon="-105.230575">
  <ele>1586.09</ele>
  <time>2026-08-28T19:06:23Z</time>
  <course>266.03</course>
  <speed>0.0</speed>
  <fix>3d</fix>
</trkpt>
<trkpt lat="40.0728419" lon="-105.2305749">
  <ele>1586.17</ele>
  <time>2026-08-28T19:06:23Z</time>
  <course>11.0</course>
  <speed>0.01414213562373095</speed>
  <fix>3d</fix>
</trkpt>
<trkpt lat="40.072842" lon="-105.230575">
  <ele>1586.09</ele>
  <time>2026-08-28T19:06:23Z</time>
  <course>266.03</course>
  <speed>0.0</speed>
  <fix>3d</fix>
</trkpt>
<trkpt lat="40.0728419" lon="-105.2305749">
  <ele>1586.17</ele>
  <time>2026-08-28T19:06:23Z</time>
  <course>11.0</course>
  <speed>0.01414213562373095</speed>
  <fix>3d</fix>
</trkpt>
<trkpt lat="40.072842" lon="-105.230575">
  <ele>1586.09</ele>
  <time>2026-08-28T19:06:23Z</time>
  <course>266.03</course>
  <speed>0.0</speed>
  <fix>3d</fix>
</trkpt>
<trkpt lat="40.0728419" lon="-105.2305749">
  <ele>1586.17</ele>
  <time>2026-08-28T19:06:23Z</time>
  <course>11.0</course>
  <speed>0.01414213562373095</speed>
  <fix>3d</fix>
</trkpt>
<trkpt lat="40.072842" lon="-105.230575">
  <ele>1586.09</ele>
  <time>2026-08-28T19:06:23Z</time>
  <course>266.03</course>
  <speed>0.0</speed>
  <fix>3d</fix>
</trkpt>
<trkpt lat="40.0728419" lon="-105.2305749">
  <ele>1586.17</ele>
  <time>2026-08-28T19:06:23Z</time>
  <course>11.0</course>
  <speed>0.01414213562373095</speed>
  <fix>3d</fix>
</trkpt>
<trkpt lat="40.072842" lon="-105.230575">
  <ele>1586.09</ele>
  <time>2026-08-28T19:06:23Z</time>
  <course>266.03</course>
  <speed>0.0</speed>
  <fix>3d</fix>
</trkpt>
<trkpt lat="40.0728419" lon="-105.2305749">
  <ele>1586.17</ele>
  <time>2026-08-28T19:06:23Z</time>
  <course>11.0</course>
  <speed>0.01414213562373095</speed>
  <fix>3d</fix>
</trkpt>
<trkpt lat="40.072842" lon="-105.230575">
  <ele>1586.09</ele>
  <time>2026-08-28T19:06:23Z</time>
  <course>266.03</course>
  <speed>0.0</speed>
  <fix>3d</fix>
</trkpt>
<trkpt lat="40.0728419" lon="-105.2305749">
  <ele>1586.17</ele>
  <time>2026-08-28T19:06:23Z</time>
  <course>11.0</course>
  <speed>0.01414213562373095</speed>
  <fix>3d</fix>
</trkpt>
<trkpt lat="40.072842" lon="-105.230575">
  <ele>1586.09</ele>
  <time>2026-08-28T19:06:23Z</time>
  <course>266.03</course>
  <speed>0.0</speed>
  <fix>3d</fix>
</trkpt>
<trkpt lat="40.0728419" lon="-105.2305749">
  <ele>1586.17</ele>
  <time>2026-08-28T19:06:23Z</time>
  <course>11.0</course>
  <speed>0.01414213562373095</speed>
  <fix>3d</fix>
</trkpt>
<trkpt lat="40.072842" lon="-105.230575">
  <ele>1586.09</ele>
  <time>2026-08-28T19:06:23Z</time>
  <course>266.03</course>
  <speed>0.0</speed>
  <fix>3d</fix>
</trkpt>
<trkpt lat="40.0728419" lon="-105.2305749">
  <ele>1586.17</ele>
  <time>2026-08-28T19:06:23Z</time>
  <course>11.0</course>
  <speed>0.01414213562373095</speed>
  <fix>3d</fix>
</trkpt>
<trkpt lat="40.072842" lon="-105.230575">
  <ele>1586.09</ele>
  <time>2026-08-28T19:06:23Z</time>
  <course>266.03</course>
  <speed>0.0</speed>
  <fix>3d</fix>
</trkpt>
<trkpt lat="40.0728419" lon="-105.2305749">
  <ele>1586.17</ele>
  <time>2026-08-28T19:06:23Z</time>
  <course>11.0</course>
  <speed>0.01414213562373095</speed>
  <fix>3d</fix>
</trkpt>
<trkpt lat="40.072842" lon="-105.230575">
  <ele>1586.09</ele>
  <time>2026-08-28T19:06:23Z</time>
  <course>266.03</course>
  <speed>0.0</speed>
  <fix>3d</fix>
</trkpt>
<trkpt lat="40.0728419" lon="-105.2305749">
  <ele>1586.16</ele>
  <time>2026-08-28T19:06:23Z</time>
  <course>11.0</course>
  <speed>0.01414213562373095</speed>
  <fix>3d</fix>
</trkpt>
<trkpt lat="40.072842" lon="-105.230575">
  <ele>1586.09</ele>
  <time>2026-08-28T19:06:23Z</time>
  <course>266.03</course>
  <speed>0.0</speed>
  <fix>3d</fix>
</trkpt>
<trkpt lat="40.0728419" lon="-105.2305749">
  <ele>1586.16</ele>
  <time>2026-08-28T19:06:23Z</time>
  <course>11.0</course>
  <speed>0.01414213562373095</speed>
  <fix>3d</fix>
</trkpt>
<trkpt lat="40.072842" lon="-105.230575">
  <ele>1586.09</ele>
  <time>2026-08-28T19:06:23Z</time>
  <course>266.03</course>
  <speed>0.0</speed>
  <fix>3d</fix>
</trkpt>
<trkpt lat="40.0728419" lon="-105.2305749">
  <ele>1586.17</ele>
  <time>2026-08-28T19:06:23Z</time>
  <course>11.01</course>
  <speed>0.01414213562373095</speed>
  <fix>3d</fix>
</trkpt>
<trkpt lat="40.072842" lon="-105.230575">
  <ele>1586.09</ele>
  <time>2026-08-28T19:06:23Z</time>
  <course>266.03</course>
  <speed>0.0</speed>
  <fix>3d</fix>
</trkpt>
<trkpt lat="40.0728419" lon="-105.2305749">
  <ele>1586.16</ele>
  <time>2026-08-28T19:06:23Z</time>
  <course>11.01</course>
  <speed>0.01414213562373095</speed>
  <fix>3d</fix>
</trkpt>
<trkpt lat="40.072842" lon="-105.230575">
  <ele>1586.09</ele>
  <time>2026-08-28T19:06:23Z</time>
  <course>266.03</course>
  <speed>0.0</speed>
  <fix>3d</fix>
</trkpt>
<trkpt lat="40.0728419" lon="-105.2305749">
  <ele>1586.16</ele>
  <time>2026-08-28T19:06:23Z</time>
  <course>11.01</course>
  <speed>0.01414213562373095</speed>
  <fix>3d</fix>
</trkpt>
<trkpt lat="40.072842" lon="-105.230575">
  <ele>1586.09</ele>
  <time>2026-08-28T19:06:23Z</time>
  <course>266.03</course>
  <speed>0.0</speed>
  <fix>3d</fix>
</trkpt>
<trkpt lat="40.0728419" lon="-105.2305749">
  <ele>1586.16</ele>
  <time>2026-08-28T19:06:23Z</time>
  <course>11.01</course>
  <speed>0.01414213562373095</speed>
  <fix>3d</fix>
</trkpt>
<trkpt lat="40.072842" lon="-105.230575">
  <ele>1586.09</ele>
  <time>2026-08-28T19:06:23Z</time>
  <course>266.03</course>
  <speed>0.0</speed>
  <fix>3d</fix>
</trkpt>
<trkpt lat="40.0728419" lon="-105.2305749">
  <ele>1586.17</ele>
  <time>2026-08-28T19:06:23Z</time>
  <course>11.01</course>
  <speed>0.01414213562373095</speed>
  <fix>3d</fix>
</trkpt>
<trkpt lat="40.072842" lon="-105.230575">
  <ele>1586.09</ele>
  <time>2026-08-28T19:06:23Z</time>
  <course>266.03</course>
  <speed>0.0</speed>
  <fix>3d</fix>
</trkpt>
<trkpt lat="40.0728419" lon="-105.2305749">
  <ele>1586.17</ele>
  <time>2026-08-28T19:06:23Z</time>
  <course>11.01</course>
  <speed>0.01414213562373095</speed>
  <fix>3d</fix>
</trkpt>
<trkpt lat="40.072842" lon="-105.230575">
  <ele>1586.09</ele>
  <time>2026-08-28T19:06:23Z</time>
  <course>266.03</course>
  <speed>0.0</speed>
  <fix>3d</fix>
</trkpt>
<trkpt lat="40.0728419" lon="-105.2305749">
  <ele>1586.17</ele>
  <time>2026-08-28T19:06:23Z</time>
  <course>11.01</course>
  <speed>0.01414213562373095</speed>
  <fix>3d</fix>
</trkpt>
<trkpt lat="40.072842" lon="-105.230575">
  <ele>1586.09</ele>
  <time>2026-08-28T19:06:23Z</time>
  <course>266.03</course>
  <speed>0.0</speed>
  <fix>3d</fix>
</trkpt>
<trkpt lat="40.0728419" lon="-105.2305749">
  <ele>1586.17</ele>
  <time>2026-08-28T19:06:23Z</time>
  <course>11.01</course>
  <speed>0.01414213562373095</speed>
  <fix>3d</fix>
</trkpt>
<trkpt lat="40.072842" lon="-105.230575">
  <ele>1586.09</ele>
  <time>2026-08-28T19:06:23Z</time>
  <course>266.03</course>
  <speed>0.0</speed>
  <fix>3d</fix>
</trkpt>
<trkpt lat="40.0728419" lon="-105.2305749">
  <ele>1586.17</ele>
  <time>2026-08-28T19:06:23Z</time>
  <course>11.01</course>
  <speed>0.01414213562373095</speed>
  <fix>3d</fix>
</trkpt>
<trkpt lat="40.072842" lon="-105.230575">
  <ele>1586.09</ele>
  <time>2026-08-28T19:06:23Z</time>
  <course>266.03</course>
  <speed>0.0</speed>
  <fix>3d</fix>
</trkpt>
<trkpt lat="40.0728419" lon="-105.2305749">
  <ele>1586.17</ele>
  <time>2026-08-28T19:06:24Z</time>
  <course>11.01</course>
  <speed>0.01414213562373095</speed>
  <fix>3d</fix>
</trkpt>
<trkpt lat="40.072842" lon="-105.230575">
  <ele>1586.09</ele>
  <time>2026-08-28T19:06:24Z</time>
  <course>266.03</course>
  <speed>0.0</speed>
  <fix>3d</fix>
</trkpt>
<trkpt lat="40.0728419" lon="-105.2305749">
  <ele>1586.17</ele>
  <time>2026-08-28T19:06:24Z</time>
  <course>11.01</course>
  <speed>0.01414213562373095</speed>
  <fix>3d</fix>
</trkpt>
<trkpt lat="40.072842" lon="-105.230575">
  <ele>1586.09</ele>
  <time>2026-08-28T19:06:24Z</time>
  <course>266.03</course>
  <speed>0.0</speed>
  <fix>3d</fix>
</trkpt>
<trkpt lat="40.0728419" lon="-105.2305749">
  <ele>1586.18</ele>
  <time>2026-08-28T19:06:24Z</time>
  <course>11.01</course>
  <speed>0.01414213562373095</speed>
  <fix>3d</fix>
</trkpt>
<trkpt lat="40.072842" lon="-105.230575">
  <ele>1586.09</ele>
  <time>2026-08-28T19:06:24Z</time>
  <course>266.03</course>
  <speed>0.0</speed>
  <fix>3d</fix>
</trkpt>
<trkpt lat="40.0728419" lon="-105.2305749">
  <ele>1586.18</ele>
  <time>2026-08-28T19:06:24Z</time>
  <course>11.01</course>
  <speed>0.01414213562373095</speed>
  <fix>3d</fix>
</trkpt>
<trkpt lat="40.072842" lon="-105.230575">
  <ele>1586.09</ele>
  <time>2026-08-28T19:06:24Z</time>
  <course>266.03</course>
  <speed>0.0</speed>
  <fix>3d</fix>
</trkpt>
<trkpt lat="40.0728419" lon="-105.2305749">
  <ele>1586.18</ele>
  <time>2026-08-28T19:06:24Z</time>
  <course>11.01</course>
  <speed>0.01414213562373095</speed>
  <fix>3d</fix>
</trkpt>
<trkpt lat="40.072842" lon="-105.230575">
  <ele>1586.09</ele>
  <time>2026-08-28T19:06:24Z</time>
  <course>266.03</course>
  <speed>0.0</speed>
  <fix>3d</fix>
</trkpt>
<trkpt lat="40.0728419" lon="-105.2305749">
  <ele>1586.18</ele>
  <time>2026-08-28T19:06:24Z</time>
  <course>11.01</course>
  <speed>0.01414213562373095</speed>
  <fix>3d</fix>
</trkpt>
<trkpt lat="40.072842" lon="-105.230575">
  <ele>1586.09</ele>
  <time>2026-08-28T19:06:24Z</time>
  <course>266.03</course>
  <speed>0.0</speed>
  <fix>3d</fix>
</trkpt>
<trkpt lat="40.0728419" lon="-105.2305749">
  <ele>1586.18</ele>
  <time>2026-08-28T19:06:24Z</time>
  <course>11.01</course>
  <speed>0.01414213562373095</speed>
  <fix>3d</fix>
</trkpt>
<trkpt lat="40.072842" lon="-105.230575">
  <ele>1586.09</ele>
  <time>2026-08-28T19:06:24Z</time>
  <course>266.03</course>
  <speed>0.0</speed>
  <fix>3d</fix>
</trkpt>
<trkpt lat="40.0728419" lon="-105.2305749">
  <ele>1586.18</ele>
  <time>2026-08-28T19:06:24Z</time>
  <course>11.01</course>
  <speed>0.01414213562373095</speed>
  <fix>3d</fix>
</trkpt>
<trkpt lat="40.072842" lon="-105.230575">
  <ele>1586.09</ele>
  <time>2026-08-28T19:06:24Z</time>
  <course>266.03</course>
  <speed>0.0</speed>
  <fix>3d</fix>
</trkpt>
<trkpt lat="40.0728419" lon="-105.2305749">
  <ele>1586.18</ele>
  <time>2026-08-28T19:06:24Z</time>
  <course>11.01</course>
  <speed>0.01414213562373095</speed>
  <fix>3d</fix>
</trkpt>
<trkpt lat="40.072842" lon="-105.230575">
  <ele>1586.09</ele>
  <time>2026-08-28T19:06:24Z</time>
  <course>266.03</course>
  <speed>0.0</speed>
  <fix>3d</fix>
</trkpt>
<trkpt lat="40.0728419" lon="-105.2305749">
  <ele>1586.18</ele>
  <time>2026-08-28T19:06:24Z</time>
  <course>11.01</course>
  <speed>0.01414213562373095</speed>
  <fix>3d</fix>
</trkpt>
<trkpt lat="40.072842" lon="-105.230575">
  <ele>1586.09</ele>
  <time>2026-08-28T19:06:24Z</time>
  <course>266.03</course>
  <speed>0.0</speed>
  <fix>3d</fix>
</trkpt>
<trkpt lat="40.0728419" lon="-105.2305749">
  <ele>1586.17</ele>
  <time>2026-08-28T19:06:24Z</time>
  <course>11.01</course>
  <speed>0.01414213562373095</speed>
  <fix>3d</fix>
</trkpt>
<trkpt lat="40.072842" lon="-105.230575">
  <ele>1586.09</ele>
  <time>2026-08-28T19:06:24Z</time>
  <course>266.03</course>
  <speed>0.0</speed>
  <fix>3d</fix>
</trkpt>
<trkpt lat="40.0728419" lon="-105.2305749">
  <ele>1586.17</ele>
  <time>2026-08-28T19:06:24Z</time>
  <course>11.01</course>
  <speed>0.01414213562373095</speed>
  <fix>3d</fix>
</trkpt>
<trkpt lat="40.072842" lon="-105.230575">
  <ele>1586.09</ele>
  <time>2026-08-28T19:06:24Z</time>
  <course>266.03</course>
  <speed>0.0</speed>
  <fix>3d</fix>
</trkpt>
<trkpt lat="40.0728419" lon="-105.2305749">
  <ele>1586.17</ele>
  <time>2026-08-28T19:06:24Z</time>
  <course>11.01</course>
  <speed>0.01414213562373095</speed>
  <fix>3d</fix>
</trkpt>
<trkpt lat="40.072842" lon="-105.230575">
  <ele>1586.09</ele>
  <time>2026-08-28T19:06:24Z</time>
  <course>266.03</course>
  <speed>0.0</speed>
  <fix>3d</fix>
</trkpt>
<trkpt lat="40.0728419" lon="-105.2305749">
  <ele>1586.17</ele>
  <time>2026-08-28T19:06:24Z</time>
  <course>11.01</course>
  <speed>0.01414213562373095</speed>
  <fix>3d</fix>
</trkpt>
<trkpt lat="40.072842" lon="-105.230575">
  <ele>1586.09</ele>
  <time>2026-08-28T19:06:24Z</time>
  <course>266.03</course>
  <speed>0.0</speed>
  <fix>3d</fix>
</trkpt>
<trkpt lat="40.0728419" lon="-105.2305749">
  <ele>1586.17</ele>
  <time>2026-08-28T19:06:24Z</time>
  <course>11.02</course>
  <speed>0.01414213562373095</speed>
  <fix>3d</fix>
</trkpt>
<trkpt lat="40.072842" lon="-105.230575">
  <ele>1586.09</ele>
  <time>2026-08-28T19:06:24Z</time>
  <course>266.03</course>
  <speed>0.0</speed>
  <fix>3d</fix>
</trkpt>
<trkpt lat="40.0728419" lon="-105.2305749">
  <ele>1586.17</ele>
  <time>2026-08-28T19:06:24Z</time>
  <course>11.02</course>
  <speed>0.01414213562373095</speed>
  <fix>3d</fix>
</trkpt>
<trkpt lat="40.072842" lon="-105.230575">
  <ele>1586.09</ele>
  <time>2026-08-28T19:06:24Z</time>
  <course>266.03</course>
  <speed>0.0</speed>
  <fix>3d</fix>
</trkpt>
<trkpt lat="40.0728419" lon="-105.2305749">
  <ele>1586.17</ele>
  <time>2026-08-28T19:06:24Z</time>
  <course>11.02</course>
  <speed>0.01414213562373095</speed>
  <fix>3d</fix>
</trkpt>
<trkpt lat="40.072842" lon="-105.230575">
  <ele>1586.09</ele>
  <time>2026-08-28T19:06:24Z</time>
  <course>266.03</course>
  <speed>0.0</speed>
  <fix>3d</fix>
</trkpt>
<trkpt lat="40.0728419" lon="-105.2305749">
  <ele>1586.17</ele>
  <time>2026-08-28T19:06:24Z</time>
  <course>11.02</course>
  <speed>0.01414213562373095</speed>
  <fix>3d</fix>
</trkpt>
<trkpt lat="40.072842" lon="-105.230575">
  <ele>1586.09</ele>
  <time>2026-08-28T19:06:24Z</time>
  <course>266.03</course>
  <speed>0.0</speed>
  <fix>3d</fix>
</trkpt>
<trkpt lat="40.0728419" lon="-105.2305749">
  <ele>1586.17</ele>
  <time>2026-08-28T19:06:24Z</time>
  <course>11.02</course>
  <speed>0.01414213562373095</speed>
  <fix>3d</fix>
</trkpt>
<trkpt lat="40.072842" lon="-105.230575">
  <ele>1586.09</ele>
  <time>2026-08-28T19:06:24Z</time>
  <course>266.03</course>
  <speed>0.0</speed>
  <fix>3d</fix>
</trkpt>
<trkpt lat="40.0728419" lon="-105.2305749">
  <ele>1586.18</ele>
  <time>2026-08-28T19:06:24Z</time>
  <course>11.02</course>
  <speed>0.01414213562373095</speed>
  <fix>3d</fix>
</trkpt>
<trkpt lat="40.072842" lon="-105.230575">
  <ele>1586.09</ele>
  <time>2026-08-28T19:06:24Z</time>
  <course>266.03</course>
  <speed>0.0</speed>
  <fix>3d</fix>
</trkpt>
<trkpt lat="40.0728419" lon="-105.2305749">
  <ele>1586.18</ele>
  <time>2026-08-28T19:06:24Z</time>
  <course>11.02</course>
  <speed>0.01414213562373095</speed>
  <fix>3d</fix>
</trkpt>
<trkpt lat="40.072842" lon="-105.230575">
  <ele>1586.09</ele>
  <time>2026-08-28T19:06:24Z</time>
  <course>266.03</course>
  <speed>0.0</speed>
  <fix>3d</fix>
</trkpt>
<trkpt lat="40.0728419" lon="-105.2305749">
  <ele>1586.17</ele>
  <time>2026-08-28T19:06:24Z</time>
  <course>11.02</course>
  <speed>0.01414213562373095</speed>
  <fix>3d</fix>
</trkpt>
<trkpt lat="40.072842" lon="-105.230575">
  <ele>1586.09</ele>
  <time>2026-08-28T19:06:24Z</time>
  <course>266.03</course>
  <speed>0.0</speed>
  <fix>3d</fix>
</trkpt>
<trkpt lat="40.0728419" lon="-105.2305749">
  <ele>1586.17</ele>
  <time>2026-08-28T19:06:24Z</time>
  <course>11.02</course>
  <speed>0.01414213562373095</speed>
  <fix>3d</fix>
</trkpt>
<trkpt lat="40.072842" lon="-105.230575">
  <ele>1586.09</ele>
  <time>2026-08-28T19:06:24Z</time>
  <course>266.03</course>
  <speed>0.0</speed>
  <fix>3d</fix>
</trkpt>
<trkpt lat="40.0728419" lon="-105.2305749">
  <ele>1586.18</ele>
  <time>2026-08-28T19:06:24Z</time>
  <course>11.02</course>
  <speed>0.01414213562373095</speed>
  <fix>3d</fix>
</trkpt>
<trkpt lat="40.072842" lon="-105.230575">
  <ele>1586.09</ele>
  <time>2026-08-28T19:06:24Z</time>
  <course>266.03</course>
  <speed>0.0</speed>
  <fix>3d</fix>
</trkpt>
<trkpt lat="40.0728419" lon="-105.2305749">
  <ele>1586.18</ele>
  <time>2026-08-28T19:06:24Z</time>
  <course>11.02</course>
  <speed>0.01414213562373095</speed>
  <fix>3d</fix>
</trkpt>
<trkpt lat="40.072842" lon="-105.230575">
  <ele>1586.09</ele>
  <time>2026-08-28T19:06:24Z</time>
  <course>266.03</course>
  <speed>0.0</speed>
  <fix>3d</fix>
</trkpt>
<trkpt lat="40.0728419" lon="-105.2305749">
  <ele>1586.18</ele>
  <time>2026-08-28T19:06:24Z</time>
  <course>11.02</course>
  <speed>0.01414213562373095</speed>
  <fix>3d</fix>
</trkpt>
<trkpt lat="40.072842" lon="-105.230575">
  <ele>1586.09</ele>
  <time>2026-08-28T19:06:24Z</time>
  <course>266.03</course>
  <speed>0.0</speed>
  <fix>3d</fix>
</trkpt>
<trkpt lat="40.0728419" lon="-105.2305749">
  <ele>1586.18</ele>
  <time>2026-08-28T19:06:24Z</time>
  <course>11.02</course>
  <speed>0.01414213562373095</speed>
  <fix>3d</fix>
</trkpt>
<trkpt lat="40.072842" lon="-105.230575">
  <ele>1586.09</ele>
  <time>2026-08-28T19:06:24Z</time>
  <course>266.03</course>
  <speed>0.0</speed>
  <fix>3d</fix>
</trkpt>
<trkpt lat="40.0728419" lon="-105.2305749">
  <ele>1586.18</ele>
  <time>2026-08-28T19:06:24Z</time>
  <course>11.02</course>
  <speed>0.01414213562373095</speed>
  <fix>3d</fix>
</trkpt>
<trkpt lat="40.072842" lon="-105.230575">
  <ele>1586.09</ele>
  <time>2026-08-28T19:06:24Z</time>
  <course>266.03</course>
  <speed>0.0</speed>
  <fix>3d</fix>
</trkpt>
<trkpt lat="40.0728419" lon="-105.2305749">
  <ele>1586.17</ele>
  <time>2026-08-28T19:06:24Z</time>
  <course>11.02</course>
  <speed>0.01414213562373095</speed>
  <fix>3d</fix>
</trkpt>
<trkpt lat="40.072842" lon="-105.230575">
  <ele>1586.09</ele>
  <time>2026-08-28T19:06:24Z</time>
  <course>266.03</course>
  <speed>0.0</speed>
  <fix>3d</fix>
</trkpt>
<trkpt lat="40.0728419" lon="-105.2305749">
  <ele>1586.17</ele>
  <time>2026-08-28T19:06:24Z</time>
  <course>11.02</course>
  <speed>0.01414213562373095</speed>
  <fix>3d</fix>
</trkpt>
<trkpt lat="40.072842" lon="-105.230575">
  <ele>1586.09</ele>
  <time>2026-08-28T19:06:24Z</time>
  <course>266.03</course>
  <speed>0.0</speed>
  <fix>3d</fix>
</trkpt>
<trkpt lat="40.0728419" lon="-105.2305749">
  <ele>1586.17</ele>
  <time>2026-08-28T19:06:24Z</time>
  <course>11.02</course>
  <speed>0.01414213562373095</speed>
  <fix>3d</fix>
</trkpt>
<trkpt lat="40.072842" lon="-105.230575">
  <ele>1586.09</ele>
  <time>2026-08-28T19:06:24Z</time>
  <course>266.03</course>
  <speed>0.0</speed>
  <fix>3d</fix>
</trkpt>
<trkpt lat="40.0728419" lon="-105.2305749">
  <ele>1586.17</ele>
  <time>2026-08-28T19:06:24Z</time>
  <course>11.02</course>
  <speed>0.01414213562373095</speed>
  <fix>3d</fix>
</trkpt>
<trkpt lat="40.072842" lon="-105.230575">
  <ele>1586.09</ele>
  <time>2026-08-28T19:06:24Z</time>
  <course>266.03</course>
  <speed>0.0</speed>
  <fix>3d</fix>
</trkpt>
<trkpt lat="40.0728419" lon="-105.2305749">
  <ele>1586.17</ele>
  <time>2026-08-28T19:06:24Z</time>
  <course>11.02</course>
  <speed>0.01414213562373095</speed>
  <fix>3d</fix>
</trkpt>
<trkpt lat="40.072842" lon="-105.230575">
  <ele>1586.09</ele>
  <time>2026-08-28T19:06:24Z</time>
  <course>266.03</course>
  <speed>0.0</speed>
  <fix>3d</fix>
</trkpt>
<trkpt lat="40.0728419" lon="-105.2305749">
  <ele>1586.17</ele>
  <time>2026-08-28T19:06:24Z</time>
  <course>11.02</course>
  <speed>0.01414213562373095</speed>
  <fix>3d</fix>
</trkpt>
<trkpt lat="40.072842" lon="-105.230575">
  <ele>1586.09</ele>
  <time>2026-08-28T19:06:24Z</time>
  <course>266.03</course>
  <speed>0.0</speed>
  <fix>3d</fix>
</trkpt>
<trkpt lat="40.0728419" lon="-105.2305749">
  <ele>1586.17</ele>
  <time>2026-08-28T19:06:24Z</time>
  <course>11.02</course>
  <speed>0.01414213562373095</speed>
  <fix>3d</fix>
</trkpt>
<trkpt lat="40.072842" lon="-105.230575">
  <ele>1586.09</ele>
  <time>2026-08-28T19:06:24Z</time>
  <course>266.03</course>
  <speed>0.0</speed>
  <fix>3d</fix>
</trkpt>
<trkpt lat="40.0728419" lon="-105.2305749">
  <ele>1586.17</ele>
  <time>2026-08-28T19:06:24Z</time>
  <course>11.02</course>
  <speed>0.01414213562373095</speed>
  <fix>3d</fix>
</trkpt>
<trkpt lat="40.072842" lon="-105.230575">
  <ele>1586.09</ele>
  <time>2026-08-28T19:06:24Z</time>
  <course>266.03</course>
  <speed>0.0</speed>
  <fix>3d</fix>
</trkpt>
<trkpt lat="40.0728419" lon="-105.2305749">
  <ele>1586.16</ele>
  <time>2026-08-28T19:06:24Z</time>
  <course>11.02</course>
  <speed>0.01414213562373095</speed>
  <fix>3d</fix>
</trkpt>
<trkpt lat="40.072842" lon="-105.230575">
  <ele>1586.09</ele>
  <time>2026-08-28T19:06:24Z</time>
  <course>266.03</course>
  <speed>0.0</speed>
  <fix>3d</fix>
</trkpt>
<trkpt lat="40.0728419" lon="-105.2305749">
  <ele>1586.16</ele>
  <time>2026-08-28T19:06:24Z</time>
  <course>11.02</course>
  <speed>0.01414213562373095</speed>
  <fix>3d</fix>
</trkpt>
<trkpt lat="40.072842" lon="-105.230575">
  <ele>1586.09</ele>
  <time>2026-08-28T19:06:24Z</time>
  <course>266.03</course>
  <speed>0.0</speed>
  <fix>3d</fix>
</trkpt>
<trkpt lat="40.0728419" lon="-105.2305749">
  <ele>1586.16</ele>
  <time>2026-08-28T19:06:24Z</time>
  <course>11.03</course>
  <speed>0.01414213562373095</speed>
  <fix>3d</fix>
</trkpt>
<trkpt lat="40.072842" lon="-105.230575">
  <ele>1586.09</ele>
  <time>2026-08-28T19:06:24Z</time>
  <course>266.03</course>
  <speed>0.0</speed>
  <fix>3d</fix>
</trkpt>
<trkpt lat="40.0728419" lon="-105.2305749">
  <ele>1586.16</ele>
  <time>2026-08-28T19:06:24Z</time>
  <course>11.03</course>
  <speed>0.01414213562373095</speed>
  <fix>3d</fix>
</trkpt>
<trkpt lat="40.072842" lon="-105.230575">
  <ele>1586.09</ele>
  <time>2026-08-28T19:06:24Z</time>
  <course>266.03</course>
  <speed>0.0</speed>
  <fix>3d</fix>
</trkpt>
<trkpt lat="40.0728419" lon="-105.2305749">
  <ele>1586.16</ele>
  <time>2026-08-28T19:06:24Z</time>
  <course>11.03</course>
  <speed>0.01414213562373095</speed>
  <fix>3d</fix>
</trkpt>
<trkpt lat="40.072842" lon="-105.230575">
  <ele>1586.09</ele>
  <time>2026-08-28T19:06:24Z</time>
  <course>266.03</course>
  <speed>0.0</speed>
  <fix>3d</fix>
</trkpt>
<trkpt lat="40.0728419" lon="-105.2305749">
  <ele>1586.16</ele>
  <time>2026-08-28T19:06:24Z</time>
  <course>11.03</course>
  <speed>0.01414213562373095</speed>
  <fix>3d</fix>
</trkpt>
<trkpt lat="40.072842" lon="-105.230575">
  <ele>1586.09</ele>
  <time>2026-08-28T19:06:24Z</time>
  <course>266.03</course>
  <speed>0.0</speed>
  <fix>3d</fix>
</trkpt>
<trkpt lat="40.0728419" lon="-105.2305749">
  <ele>1586.16</ele>
  <time>2026-08-28T19:06:24Z</time>
  <course>11.03</course>
  <speed>0.01414213562373095</speed>
  <fix>3d</fix>
</trkpt>
<trkpt lat="40.072842" lon="-105.230575">
  <ele>1586.09</ele>
  <time>2026-08-28T19:06:24Z</time>
  <course>266.03</course>
  <speed>0.0</speed>
  <fix>3d</fix>
</trkpt>
<trkpt lat="40.0728419" lon="-105.2305749">
  <ele>1586.16</ele>
  <time>2026-08-28T19:06:24Z</time>
  <course>11.03</course>
  <speed>0.01414213562373095</speed>
  <fix>3d</fix>
</trkpt>
<trkpt lat="40.072842" lon="-105.230575">
  <ele>1586.09</ele>
  <time>2026-08-28T19:06:24Z</time>
  <course>266.03</course>
  <speed>0.0</speed>
  <fix>3d</fix>
</trkpt>
<trkpt lat="40.0728419" lon="-105.2305749">
  <ele>1586.16</ele>
  <time>2026-08-28T19:06:24Z</time>
  <course>11.03</course>
  <speed>0.01414213562373095</speed>
  <fix>3d</fix>
</trkpt>
<trkpt lat="40.072842" lon="-105.230575">
  <ele>1586.09</ele>
  <time>2026-08-28T19:06:24Z</time>
  <course>266.03</course>
  <speed>0.0</speed>
  <fix>3d</fix>
</trkpt>
<trkpt lat="40.0728419" lon="-105.2305749">
  <ele>1586.16</ele>
  <time>2026-08-28T19:06:24Z</time>
  <course>11.03</course>
  <speed>0.01414213562373095</speed>
  <fix>3d</fix>
</trkpt>
<trkpt lat="40.072842" lon="-105.230575">
  <ele>1586.09</ele>
  <time>2026-08-28T19:06:24Z</time>
  <course>266.03</course>
  <speed>0.0</speed>
  <fix>3d</fix>
</trkpt>
<trkpt lat="40.0728419" lon="-105.2305749">
  <ele>1586.16</ele>
  <time>2026-08-28T19:06:24Z</time>
  <course>11.03</course>
  <speed>0.01414213562373095</speed>
  <fix>3d</fix>
</trkpt>
<trkpt lat="40.072842" lon="-105.230575">
  <ele>1586.09</ele>
  <time>2026-08-28T19:06:24Z</time>
  <course>266.03</course>
  <speed>0.0</speed>
  <fix>3d</fix>
</trkpt>
<trkpt lat="40.0728419" lon="-105.2305749">
  <ele>1586.15</ele>
  <time>2026-08-28T19:06:24Z</time>
  <course>11.03</course>
  <speed>0.022360679774997897</speed>
  <fix>3d</fix>
</trkpt>
<trkpt lat="40.072842" lon="-105.230575">
  <ele>1586.09</ele>
  <time>2026-08-28T19:06:24Z</time>
  <course>266.03</course>
  <speed>0.0</speed>
  <fix>3d</fix>
</trkpt>
<trkpt lat="40.0728419" lon="-105.2305749">
  <ele>1586.15</ele>
  <time>2026-08-28T19:06:24Z</time>
  <course>11.03</course>
  <speed>0.022360679774997897</speed>
  <fix>3d</fix>
</trkpt>
<trkpt lat="40.072842" lon="-105.230575">
  <ele>1586.09</ele>
  <time>2026-08-28T19:06:24Z</time>
  <course>266.03</course>
  <speed>0.0</speed>
  <fix>3d</fix>
</trkpt>
<trkpt lat="40.0728419" lon="-105.2305749">
  <ele>1586.14</ele>
  <time>2026-08-28T19:06:24Z</time>
  <course>11.03</course>
  <speed>0.022360679774997897</speed>
  <fix>3d</fix>
</trkpt>
<trkpt lat="40.072842" lon="-105.230575">
  <ele>1586.09</ele>
  <time>2026-08-28T19:06:24Z</time>
  <course>266.03</course>
  <speed>0.0</speed>
  <fix>3d</fix>
</trkpt>
<trkpt lat="40.0728419" lon="-105.2305749">
  <ele>1586.14</ele>
  <time>2026-08-28T19:06:24Z</time>
  <course>11.03</course>
  <speed>0.022360679774997897</speed>
  <fix>3d</fix>
</trkpt>
<trkpt lat="40.072842" lon="-105.230575">
  <ele>1586.09</ele>
  <time>2026-08-28T19:06:24Z</time>
  <course>266.03</course>
  <speed>0.0</speed>
  <fix>3d</fix>
</trkpt>
<trkpt lat="40.0728419" lon="-105.2305749">
  <ele>1586.14</ele>
  <time>2026-08-28T19:06:24Z</time>
  <course>11.03</course>
  <speed>0.022360679774997897</speed>
  <fix>3d</fix>
</trkpt>
<trkpt lat="40.072842" lon="-105.230575">
  <ele>1586.09</ele>
  <time>2026-08-28T19:06:24Z</time>
  <course>266.03</course>
  <speed>0.0</speed>
  <fix>3d</fix>
</trkpt>
<trkpt lat="40.0728419" lon="-105.2305749">
  <ele>1586.13</ele>
  <time>2026-08-28T19:06:24Z</time>
  <course>11.03</course>
  <speed>0.022360679774997897</speed>
  <fix>3d</fix>
</trkpt>
<trkpt lat="40.072842" lon="-105.230575">
  <ele>1586.09</ele>
  <time>2026-08-28T19:06:24Z</time>
  <course>266.03</course>
  <speed>0.0</speed>
  <fix>3d</fix>
</trkpt>
<trkpt lat="40.0728419" lon="-105.2305749">
  <ele>1586.14</ele>
  <time>2026-08-28T19:06:24Z</time>
  <course>11.03</course>
  <speed>0.022360679774997897</speed>
  <fix>3d</fix>
</trkpt>
<trkpt lat="40.072842" lon="-105.230575">
  <ele>1586.09</ele>
  <time>2026-08-28T19:06:24Z</time>
  <course>266.03</course>
  <speed>0.0</speed>
  <fix>3d</fix>
</trkpt>
<trkpt lat="40.0728419" lon="-105.2305749">
  <ele>1586.14</ele>
  <time>2026-08-28T19:06:24Z</time>
  <course>11.03</course>
  <speed>0.022360679774997897</speed>
  <fix>3d</fix>
</trkpt>
<trkpt lat="40.072842" lon="-105.230575">
  <ele>1586.09</ele>
  <time>2026-08-28T19:06:24Z</time>
  <course>266.03</course>
  <speed>0.0</speed>
  <fix>3d</fix>
</trkpt>
<trkpt lat="40.0728419" lon="-105.2305749">
  <ele>1586.14</ele>
  <time>2026-08-28T19:06:24Z</time>
  <course>11.03</course>
  <speed>0.022360679774997897</speed>
  <fix>3d</fix>
</trkpt>
<trkpt lat="40.072842" lon="-105.230575">
  <ele>1586.09</ele>
  <time>2026-08-28T19:06:24Z</time>
  <course>266.03</course>
  <speed>0.0</speed>
  <fix>3d</fix>
</trkpt>
<trkpt lat="40.0728419" lon="-105.2305749">
  <ele>1586.15</ele>
  <time>2026-08-28T19:06:24Z</time>
  <course>11.03</course>
  <speed>0.01414213562373095</speed>
  <fix>3d</fix>
</trkpt>
<trkpt lat="40.072842" lon="-105.230575">
  <ele>1586.09</ele>
  <time>2026-08-28T19:06:24Z</time>
  <course>266.03</course>
  <speed>0.0</speed>
  <fix>3d</fix>
</trkpt>
<trkpt lat="40.0728419" lon="-105.2305749">
  <ele>1586.15</ele>
  <time>2026-08-28T19:06:24Z</time>
  <course>11.03</course>
  <speed>0.01414213562373095</speed>
  <fix>3d</fix>
</trkpt>
<trkpt lat="40.072842" lon="-105.230575">
  <ele>1586.09</ele>
  <time>2026-08-28T19:06:24Z</time>
  <course>266.03</course>
  <speed>0.0</speed>
  <fix>3d</fix>
</trkpt>
<trkpt lat="40.0728419" lon="-105.2305749">
  <ele>1586.15</ele>
  <time>2026-08-28T19:06:24Z</time>
  <course>11.03</course>
  <speed>0.022360679774997897</speed>
  <fix>3d</fix>
</trkpt>
<trkpt lat="40.072842" lon="-105.230575">
  <ele>1586.09</ele>
  <time>2026-08-28T19:06:24Z</time>
  <course>266.03</course>
  <speed>0.0</speed>
  <fix>3d</fix>
</trkpt>
<trkpt lat="40.0728419" lon="-105.2305749">
  <ele>1586.16</ele>
  <time>2026-08-28T19:06:24Z</time>
  <course>11.03</course>
  <speed>0.022360679774997897</speed>
  <fix>3d</fix>
</trkpt>
<trkpt lat="40.072842" lon="-105.230575">
  <ele>1586.09</ele>
  <time>2026-08-28T19:06:24Z</time>
  <course>266.03</course>
  <speed>0.0</speed>
  <fix>3d</fix>
</trkpt>
<trkpt lat="40.0728419" lon="-105.2305749">
  <ele>1586.16</ele>
  <time>2026-08-28T19:06:24Z</time>
  <course>11.03</course>
  <speed>0.022360679774997897</speed>
  <fix>3d</fix>
</trkpt>
<trkpt lat="40.072842" lon="-105.230575">
  <ele>1586.09</ele>
  <time>2026-08-28T19:06:24Z</time>
  <course>266.03</course>
  <speed>0.0</speed>
  <fix>3d</fix>
</trkpt>
<trkpt lat="40.0728419" lon="-105.2305749">
  <ele>1586.17</ele>
  <time>2026-08-28T19:06:24Z</time>
  <course>11.03</course>
  <speed>0.01414213562373095</speed>
  <fix>3d</fix>
</trkpt>
<trkpt lat="40.072842" lon="-105.230575">
  <ele>1586.09</ele>
  <time>2026-08-28T19:06:24Z</time>
  <course>266.03</course>
  <speed>0.0</speed>
  <fix>3d</fix>
</trkpt>
<trkpt lat="40.0728419" lon="-105.2305749">
  <ele>1586.17</ele>
  <time>2026-08-28T19:06:24Z</time>
  <course>11.03</course>
  <speed>0.022360679774997897</speed>
  <fix>3d</fix>
</trkpt>
<trkpt lat="40.072842" lon="-105.230575">
  <ele>1586.09</ele>
  <time>2026-08-28T19:06:24Z</time>
  <course>266.03</course>
  <speed>0.0</speed>
  <fix>3d</fix>
</trkpt>
<trkpt lat="40.0728419" lon="-105.2305749">
  <ele>1586.17</ele>
  <time>2026-08-28T19:06:24Z</time>
  <course>11.03</course>
  <speed>0.01414213562373095</speed>
  <fix>3d</fix>
</trkpt>
<trkpt lat="40.072842" lon="-105.230575">
  <ele>1586.09</ele>
  <time>2026-08-28T19:06:24Z</time>
  <course>266.03</course>
  <speed>0.0</speed>
  <fix>3d</fix>
</trkpt>
<trkpt lat="40.0728419" lon="-105.2305749">
  <ele>1586.17</ele>
  <time>2026-08-28T19:06:24Z</time>
  <course>11.04</course>
  <speed>0.01414213562373095</speed>
  <fix>3d</fix>
</trkpt>
<trkpt lat="40.072842" lon="-105.230575">
  <ele>1586.09</ele>
  <time>2026-08-28T19:06:24Z</time>
  <course>266.03</course>
  <speed>0.0</speed>
  <fix>3d</fix>
</trkpt>
<trkpt lat="40.0728419" lon="-105.2305749">
  <ele>1586.17</ele>
  <time>2026-08-28T19:06:24Z</time>
  <course>11.04</course>
  <speed>0.01414213562373095</speed>
  <fix>3d</fix>
</trkpt>
<trkpt lat="40.072842" lon="-105.230575">
  <ele>1586.09</ele>
  <time>2026-08-28T19:06:24Z</time>
  <course>266.03</course>
  <speed>0.0</speed>
  <fix>3d</fix>
</trkpt>
<trkpt lat="40.0728419" lon="-105.2305749">
  <ele>1586.17</ele>
  <time>2026-08-28T19:06:24Z</time>
  <course>11.04</course>
  <speed>0.01414213562373095</speed>
  <fix>3d</fix>
</trkpt>
<trkpt lat="40.072842" lon="-105.230575">
  <ele>1586.09</ele>
  <time>2026-08-28T19:06:24Z</time>
  <course>266.03</course>
  <speed>0.0</speed>
  <fix>3d</fix>
</trkpt>
<trkpt lat="40.0728419" lon="-105.2305749">
  <ele>1586.17</ele>
  <time>2026-08-28T19:06:24Z</time>
  <course>11.04</course>
  <speed>0.01414213562373095</speed>
  <fix>3d</fix>
</trkpt>
<trkpt lat="40.072842" lon="-105.230575">
  <ele>1586.09</ele>
  <time>2026-08-28T19:06:24Z</time>
  <course>266.03</course>
  <speed>0.0</speed>
  <fix>3d</fix>
</trkpt>
<trkpt lat="40.0728419" lon="-105.2305749">
  <ele>1586.17</ele>
  <time>2026-08-28T19:06:24Z</time>
  <course>11.04</course>
  <speed>0.01414213562373095</speed>
  <fix>3d</fix>
</trkpt>
<trkpt lat="40.072842" lon="-105.230575">
  <ele>1586.09</ele>
  <time>2026-08-28T19:06:24Z</time>
  <course>266.03</course>
  <speed>0.0</speed>
  <fix>3d</fix>
</trkpt>
<trkpt lat="40.0728419" lon="-105.2305749">
  <ele>1586.17</ele>
  <time>2026-08-28T19:06:24Z</time>
  <course>11.04</course>
  <speed>0.022360679774997897</speed>
  <fix>3d</fix>
</trkpt>
<trkpt lat="40.072842" lon="-105.230575">
  <ele>1586.09</ele>
  <time>2026-08-28T19:06:24Z</time>
  <course>266.03</course>
  <speed>0.0</speed>
  <fix>3d</fix>
</trkpt>
<trkpt lat="40.0728419" lon="-105.2305749">
  <ele>1586.17</ele>
  <time>2026-08-28T19:06:24Z</time>
  <course>11.04</course>
  <speed>0.022360679774997897</speed>
  <fix>3d</fix>
</trkpt>
<trkpt lat="40.072842" lon="-105.230575">
  <ele>1586.09</ele>
  <time>2026-08-28T19:06:24Z</time>
  <course>266.03</course>
  <speed>0.0</speed>
  <fix>3d</fix>
</trkpt>
<trkpt lat="40.0728419" lon="-105.2305749">
  <ele>1586.17</ele>
  <time>2026-08-28T19:06:24Z</time>
  <course>11.04</course>
  <speed>0.022360679774997897</speed>
  <fix>3d</fix>
</trkpt>
<trkpt lat="40.072842" lon="-105.230575">
  <ele>1586.09</ele>
  <time>2026-08-28T19:06:24Z</time>
  <course>266.03</course>
  <speed>0.0</speed>
  <fix>3d</fix>
</trkpt>
<trkpt lat="40.0728419" lon="-105.2305749">
  <ele>1586.18</ele>
  <time>2026-08-28T19:06:24Z</time>
  <course>11.04</course>
  <speed>0.01414213562373095</speed>
  <fix>3d</fix>
</trkpt>
<trkpt lat="40.072842" lon="-105.230575">
  <ele>1586.09</ele>
  <time>2026-08-28T19:06:24Z</time>
  <course>266.03</course>
  <speed>0.0</speed>
  <fix>3d</fix>
</trkpt>
<trkpt lat="40.0728419" lon="-105.2305749">
  <ele>1586.18</ele>
  <time>2026-08-28T19:06:24Z</time>
  <course>11.04</course>
  <speed>0.01414213562373095</speed>
  <fix>3d</fix>
</trkpt>
<trkpt lat="40.072842" lon="-105.230575">
  <ele>1586.09</ele>
  <time>2026-08-28T19:06:24Z</time>
  <course>266.03</course>
  <speed>0.0</speed>
  <fix>3d</fix>
</trkpt>
<trkpt lat="40.0728419" lon="-105.2305749">
  <ele>1586.18</ele>
  <time>2026-08-28T19:06:24Z</time>
  <course>11.04</course>
  <speed>0.01414213562373095</speed>
  <fix>3d</fix>
</trkpt>
<trkpt lat="40.072842" lon="-105.230575">
  <ele>1586.09</ele>
  <time>2026-08-28T19:06:24Z</time>
  <course>266.03</course>
  <speed>0.0</speed>
  <fix>3d</fix>
</trkpt>
<trkpt lat="40.0728419" lon="-105.2305749">
  <ele>1586.17</ele>
  <time>2026-08-28T19:06:24Z</time>
  <course>11.04</course>
  <speed>0.01414213562373095</speed>
  <fix>3d</fix>
</trkpt>
<trkpt lat="40.072842" lon="-105.230575">
  <ele>1586.09</ele>
  <time>2026-08-28T19:06:24Z</time>
  <course>266.03</course>
  <speed>0.0</speed>
  <fix>3d</fix>
</trkpt>
<trkpt lat="40.0728419" lon="-105.2305749">
  <ele>1586.17</ele>
  <time>2026-08-28T19:06:24Z</time>
  <course>11.04</course>
  <speed>0.01414213562373095</speed>
  <fix>3d</fix>
</trkpt>
<trkpt lat="40.072842" lon="-105.230575">
  <ele>1586.09</ele>
  <time>2026-08-28T19:06:24Z</time>
  <course>266.03</course>
  <speed>0.0</speed>
  <fix>3d</fix>
</trkpt>
<trkpt lat="40.0728419" lon="-105.2305749">
  <ele>1586.16</ele>
  <time>2026-08-28T19:06:24Z</time>
  <course>11.04</course>
  <speed>0.01414213562373095</speed>
  <fix>3d</fix>
</trkpt>
<trkpt lat="40.072842" lon="-105.230575">
  <ele>1586.09</ele>
  <time>2026-08-28T19:06:24Z</time>
  <course>266.03</course>
  <speed>0.0</speed>
  <fix>3d</fix>
</trkpt>
<trkpt lat="40.0728419" lon="-105.2305749">
  <ele>1586.16</ele>
  <time>2026-08-28T19:06:24Z</time>
  <course>11.04</course>
  <speed>0.01414213562373095</speed>
  <fix>3d</fix>
</trkpt>
<trkpt lat="40.072842" lon="-105.230575">
  <ele>1586.09</ele>
  <time>2026-08-28T19:06:24Z</time>
  <course>266.03</course>
  <speed>0.0</speed>
  <fix>3d</fix>
</trkpt>
<trkpt lat="40.0728419" lon="-105.2305749">
  <ele>1586.16</ele>
  <time>2026-08-28T19:06:24Z</time>
  <course>11.04</course>
  <speed>0.01414213562373095</speed>
  <fix>3d</fix>
</trkpt>
<trkpt lat="40.072842" lon="-105.230575">
  <ele>1586.09</ele>
  <time>2026-08-28T19:06:24Z</time>
  <course>266.03</course>
  <speed>0.0</speed>
  <fix>3d</fix>
</trkpt>
<trkpt lat="40.0728419" lon="-105.2305749">
  <ele>1586.16</ele>
  <time>2026-08-28T19:06:24Z</time>
  <course>11.04</course>
  <speed>0.01414213562373095</speed>
  <fix>3d</fix>
</trkpt>
<trkpt lat="40.072842" lon="-105.230575">
  <ele>1586.09</ele>
  <time>2026-08-28T19:06:24Z</time>
  <course>266.03</course>
  <speed>0.0</speed>
  <fix>3d</fix>
</trkpt>
<trkpt lat="40.0728419" lon="-105.2305749">
  <ele>1586.16</ele>
  <time>2026-08-28T19:06:24Z</time>
  <course>11.04</course>
  <speed>0.01414213562373095</speed>
  <fix>3d</fix>
</trkpt>
<trkpt lat="40.072842" lon="-105.230575">
  <ele>1586.09</ele>
  <time>2026-08-28T19:06:24Z</time>
  <course>266.03</course>
  <speed>0.0</speed>
  <fix>3d</fix>
</trkpt>
<trkpt lat="40.0728419" lon="-105.2305749">
  <ele>1586.17</ele>
  <time>2026-08-28T19:06:24Z</time>
  <course>11.04</course>
  <speed>0.01414213562373095</speed>
  <fix>3d</fix>
</trkpt>
<trkpt lat="40.072842" lon="-105.230575">
  <ele>1586.09</ele>
  <time>2026-08-28T19:06:24Z</time>
  <course>266.03</course>
  <speed>0.0</speed>
  <fix>3d</fix>
</trkpt>
<trkpt lat="40.0728419" lon="-105.2305749">
  <ele>1586.17</ele>
  <time>2026-08-28T19:06:24Z</time>
  <course>11.04</course>
  <speed>0.01414213562373095</speed>
  <fix>3d</fix>
</trkpt>
<trkpt lat="40.072842" lon="-105.230575">
  <ele>1586.09</ele>
  <time>2026-08-28T19:06:24Z</time>
  <course>266.03</course>
  <speed>0.0</speed>
  <fix>3d</fix>
</trkpt>
<trkpt lat="40.0728419" lon="-105.2305749">
  <ele>1586.17</ele>
  <time>2026-08-28T19:06:24Z</time>
  <course>11.04</course>
  <speed>0.01414213562373095</speed>
  <fix>3d</fix>
</trkpt>
<trkpt lat="40.072842" lon="-105.230575">
  <ele>1586.09</ele>
  <time>2026-08-28T19:06:24Z</time>
  <course>266.03</course>
  <speed>0.0</speed>
  <fix>3d</fix>
</trkpt>
<trkpt lat="40.0728419" lon="-105.2305749">
  <ele>1586.17</ele>
  <time>2026-08-28T19:06:24Z</time>
  <course>11.04</course>
  <speed>0.01414213562373095</speed>
  <fix>3d</fix>
</trkpt>
<trkpt lat="40.072842" lon="-105.230575">
  <ele>1586.09</ele>
  <time>2026-08-28T19:06:24Z</time>
  <course>266.03</course>
  <speed>0.0</speed>
  <fix>3d</fix>
</trkpt>
<trkpt lat="40.0728419" lon="-105.2305749">
  <ele>1586.17</ele>
  <time>2026-08-28T19:06:24Z</time>
  <course>11.04</course>
  <speed>0.01414213562373095</speed>
  <fix>3d</fix>
</trkpt>
<trkpt lat="40.072842" lon="-105.230575">
  <ele>1586.09</ele>
  <time>2026-08-28T19:06:24Z</time>
  <course>266.03</course>
  <speed>0.0</speed>
  <fix>3d</fix>
</trkpt>
<trkpt lat="40.0728419" lon="-105.2305749">
  <ele>1586.17</ele>
  <time>2026-08-28T19:06:24Z</time>
  <course>11.04</course>
  <speed>0.01414213562373095</speed>
  <fix>3d</fix>
</trkpt>
<trkpt lat="40.072842" lon="-105.230575">
  <ele>1586.09</ele>
  <time>2026-08-28T19:06:24Z</time>
  <course>266.03</course>
  <speed>0.0</speed>
  <fix>3d</fix>
</trkpt>
<trkpt lat="40.0728419" lon="-105.2305749">
  <ele>1586.18</ele>
  <time>2026-08-28T19:06:24Z</time>
  <course>11.04</course>
  <speed>0.01414213562373095</speed>
  <fix>3d</fix>
</trkpt>
<trkpt lat="40.072842" lon="-105.230575">
  <ele>1586.09</ele>
  <time>2026-08-28T19:06:24Z</time>
  <course>266.03</course>
  <speed>0.0</speed>
  <fix>3d</fix>
</trkpt>
<trkpt lat="40.0728419" lon="-105.2305749">
  <ele>1586.18</ele>
  <time>2026-08-28T19:06:24Z</time>
  <course>11.04</course>
  <speed>0.01414213562373095</speed>
  <fix>3d</fix>
</trkpt>
<trkpt lat="40.072842" lon="-105.230575">
  <ele>1586.09</ele>
  <time>2026-08-28T19:06:24Z</time>
  <course>266.03</course>
  <speed>0.0</speed>
  <fix>3d</fix>
</trkpt>
<trkpt lat="40.0728419" lon="-105.2305749">
  <ele>1586.18</ele>
  <time>2026-08-28T19:06:24Z</time>
  <course>11.04</course>
  <speed>0.01414213562373095</speed>
  <fix>3d</fix>
</trkpt>
<trkpt lat="40.072842" lon="-105.230575">
  <ele>1586.09</ele>
  <time>2026-08-28T19:06:24Z</time>
  <course>266.03</course>
  <speed>0.0</speed>
  <fix>3d</fix>
</trkpt>
<trkpt lat="40.0728419" lon="-105.2305749">
  <ele>1586.17</ele>
  <time>2026-08-28T19:06:24Z</time>
  <course>11.04</course>
  <speed>0.01414213562373095</speed>
  <fix>3d</fix>
</trkpt>
<trkpt lat="40.072842" lon="-105.230575">
  <ele>1586.09</ele>
  <time>2026-08-28T19:06:24Z</time>
  <course>266.03</course>
  <speed>0.0</speed>
  <fix>3d</fix>
</trkpt>
<trkpt lat="40.0728419" lon="-105.2305749">
  <ele>1586.17</ele>
  <time>2026-08-28T19:06:24Z</time>
  <course>11.05</course>
  <speed>0.01414213562373095</speed>
  <fix>3d</fix>
</trkpt>
<trkpt lat="40.072842" lon="-105.230575">
  <ele>1586.09</ele>
  <time>2026-08-28T19:06:24Z</time>
  <course>266.03</course>
  <speed>0.0</speed>
  <fix>3d</fix>
</trkpt>
<trkpt lat="40.0728419" lon="-105.2305749">
  <ele>1586.17</ele>
  <time>2026-08-28T19:06:24Z</time>
  <course>11.05</course>
  <speed>0.01414213562373095</speed>
  <fix>3d</fix>
</trkpt>
<trkpt lat="40.072842" lon="-105.230575">
  <ele>1586.09</ele>
  <time>2026-08-28T19:06:24Z</time>
  <course>266.03</course>
  <speed>0.0</speed>
  <fix>3d</fix>
</trkpt>
<trkpt lat="40.0728419" lon="-105.2305749">
  <ele>1586.17</ele>
  <time>2026-08-28T19:06:24Z</time>
  <course>11.05</course>
  <speed>0.01414213562373095</speed>
  <fix>3d</fix>
</trkpt>
<trkpt lat="40.072842" lon="-105.230575">
  <ele>1586.09</ele>
  <time>2026-08-28T19:06:24Z</time>
  <course>266.03</course>
  <speed>0.0</speed>
  <fix>3d</fix>
</trkpt>
<trkpt lat="40.0728419" lon="-105.2305749">
  <ele>1586.17</ele>
  <time>2026-08-28T19:06:24Z</time>
  <course>11.05</course>
  <speed>0.01414213562373095</speed>
  <fix>3d</fix>
</trkpt>
<trkpt lat="40.072842" lon="-105.230575">
  <ele>1586.09</ele>
  <time>2026-08-28T19:06:24Z</time>
  <course>266.03</course>
  <speed>0.0</speed>
  <fix>3d</fix>
</trkpt>
<trkpt lat="40.0728419" lon="-105.2305749">
  <ele>1586.17</ele>
  <time>2026-08-28T19:06:24Z</time>
  <course>11.05</course>
  <speed>0.01414213562373095</speed>
  <fix>3d</fix>
</trkpt>
<trkpt lat="40.072842" lon="-105.230575">
  <ele>1586.09</ele>
  <time>2026-08-28T19:06:24Z</time>
  <course>266.03</course>
  <speed>0.0</speed>
  <fix>3d</fix>
</trkpt>
<trkpt lat="40.0728419" lon="-105.2305749">
  <ele>1586.17</ele>
  <time>2026-08-28T19:06:24Z</time>
  <course>11.05</course>
  <speed>0.01414213562373095</speed>
  <fix>3d</fix>
</trkpt>
<trkpt lat="40.072842" lon="-105.230575">
  <ele>1586.09</ele>
  <time>2026-08-28T19:06:24Z</time>
  <course>266.03</course>
  <speed>0.0</speed>
  <fix>3d</fix>
</trkpt>
<trkpt lat="40.0728419" lon="-105.2305749">
  <ele>1586.17</ele>
  <time>2026-08-28T19:06:24Z</time>
  <course>11.05</course>
  <speed>0.01414213562373095</speed>
  <fix>3d</fix>
</trkpt>
<trkpt lat="40.072842" lon="-105.230575">
  <ele>1586.09</ele>
  <time>2026-08-28T19:06:24Z</time>
  <course>266.03</course>
  <speed>0.0</speed>
  <fix>3d</fix>
</trkpt>
<trkpt lat="40.0728419" lon="-105.2305749">
  <ele>1586.17</ele>
  <time>2026-08-28T19:06:24Z</time>
  <course>11.05</course>
  <speed>0.01414213562373095</speed>
  <fix>3d</fix>
</trkpt>
<trkpt lat="40.072842" lon="-105.230575">
  <ele>1586.09</ele>
  <time>2026-08-28T19:06:24Z</time>
  <course>266.03</course>
  <speed>0.0</speed>
  <fix>3d</fix>
</trkpt>
<trkpt lat="40.0728419" lon="-105.2305749">
  <ele>1586.17</ele>
  <time>2026-08-28T19:06:24Z</time>
  <course>11.05</course>
  <speed>0.01414213562373095</speed>
  <fix>3d</fix>
</trkpt>
<trkpt lat="40.072842" lon="-105.230575">
  <ele>1586.09</ele>
  <time>2026-08-28T19:06:24Z</time>
  <course>266.03</course>
  <speed>0.0</speed>
  <fix>3d</fix>
</trkpt>
<trkpt lat="40.0728419" lon="-105.2305749">
  <ele>1586.17</ele>
  <time>2026-08-28T19:06:24Z</time>
  <course>11.05</course>
  <speed>0.01414213562373095</speed>
  <fix>3d</fix>
</trkpt>
<trkpt lat="40.072842" lon="-105.230575">
  <ele>1586.09</ele>
  <time>2026-08-28T19:06:24Z</time>
  <course>266.03</course>
  <speed>0.0</speed>
  <fix>3d</fix>
</trkpt>
<trkpt lat="40.0728419" lon="-105.2305749">
  <ele>1586.17</ele>
  <time>2026-08-28T19:06:24Z</time>
  <course>11.05</course>
  <speed>0.01414213562373095</speed>
  <fix>3d</fix>
</trkpt>
<trkpt lat="40.072842" lon="-105.230575">
  <ele>1586.09</ele>
  <time>2026-08-28T19:06:24Z</time>
  <course>266.03</course>
  <speed>0.0</speed>
  <fix>3d</fix>
</trkpt>
<trkpt lat="40.0728419" lon="-105.2305749">
  <ele>1586.17</ele>
  <time>2026-08-28T19:06:25Z</time>
  <course>11.05</course>
  <speed>0.01414213562373095</speed>
  <fix>3d</fix>
</trkpt>
<trkpt lat="40.072842" lon="-105.230575">
  <ele>1586.09</ele>
  <time>2026-08-28T19:06:25Z</time>
  <course>266.03</course>
  <speed>0.0</speed>
  <fix>3d</fix>
</trkpt>
<trkpt lat="40.0728419" lon="-105.2305749">
  <ele>1586.17</ele>
  <time>2026-08-28T19:06:25Z</time>
  <course>11.05</course>
  <speed>0.01414213562373095</speed>
  <fix>3d</fix>
</trkpt>
<trkpt lat="40.072842" lon="-105.230575">
  <ele>1586.09</ele>
  <time>2026-08-28T19:06:25Z</time>
  <course>266.03</course>
  <speed>0.0</speed>
  <fix>3d</fix>
</trkpt>
<trkpt lat="40.0728419" lon="-105.2305749">
  <ele>1586.17</ele>
  <time>2026-08-28T19:06:25Z</time>
  <course>11.05</course>
  <speed>0.01414213562373095</speed>
  <fix>3d</fix>
</trkpt>
<trkpt lat="40.072842" lon="-105.230575">
  <ele>1586.09</ele>
  <time>2026-08-28T19:06:25Z</time>
  <course>266.03</course>
  <speed>0.0</speed>
  <fix>3d</fix>
</trkpt>
<trkpt lat="40.0728419" lon="-105.2305749">
  <ele>1586.17</ele>
  <time>2026-08-28T19:06:25Z</time>
  <course>11.05</course>
  <speed>0.01414213562373095</speed>
  <fix>3d</fix>
</trkpt>
<trkpt lat="40.072842" lon="-105.230575">
  <ele>1586.09</ele>
  <time>2026-08-28T19:06:25Z</time>
  <course>266.03</course>
  <speed>0.0</speed>
  <fix>3d</fix>
</trkpt>
<trkpt lat="40.0728419" lon="-105.2305749">
  <ele>1586.17</ele>
  <time>2026-08-28T19:06:25Z</time>
  <course>11.05</course>
  <speed>0.01414213562373095</speed>
  <fix>3d</fix>
</trkpt>
<trkpt lat="40.072842" lon="-105.230575">
  <ele>1586.09</ele>
  <time>2026-08-28T19:06:25Z</time>
  <course>266.03</course>
  <speed>0.0</speed>
  <fix>3d</fix>
</trkpt>
<trkpt lat="40.0728419" lon="-105.2305749">
  <ele>1586.17</ele>
  <time>2026-08-28T19:06:25Z</time>
  <course>11.05</course>
  <speed>0.01414213562373095</speed>
  <fix>3d</fix>
</trkpt>
<trkpt lat="40.072842" lon="-105.230575">
  <ele>1586.09</ele>
  <time>2026-08-28T19:06:25Z</time>
  <course>266.03</course>
  <speed>0.0</speed>
  <fix>3d</fix>
</trkpt>
<trkpt lat="40.0728419" lon="-105.2305749">
  <ele>1586.17</ele>
  <time>2026-08-28T19:06:25Z</time>
  <course>11.05</course>
  <speed>0.01414213562373095</speed>
  <fix>3d</fix>
</trkpt>
<trkpt lat="40.072842" lon="-105.230575">
  <ele>1586.09</ele>
  <time>2026-08-28T19:06:25Z</time>
  <course>266.03</course>
  <speed>0.0</speed>
  <fix>3d</fix>
</trkpt>
<trkpt lat="40.0728419" lon="-105.2305749">
  <ele>1586.17</ele>
  <time>2026-08-28T19:06:25Z</time>
  <course>11.05</course>
  <speed>0.01414213562373095</speed>
  <fix>3d</fix>
</trkpt>
<trkpt lat="40.072842" lon="-105.230575">
  <ele>1586.09</ele>
  <time>2026-08-28T19:06:25Z</time>
  <course>266.03</course>
  <speed>0.0</speed>
  <fix>3d</fix>
</trkpt>
<trkpt lat="40.0728419" lon="-105.2305749">
  <ele>1586.17</ele>
  <time>2026-08-28T19:06:25Z</time>
  <course>11.05</course>
  <speed>0.01414213562373095</speed>
  <fix>3d</fix>
</trkpt>
<trkpt lat="40.072842" lon="-105.230575">
  <ele>1586.09</ele>
  <time>2026-08-28T19:06:25Z</time>
  <course>266.03</course>
  <speed>0.0</speed>
  <fix>3d</fix>
</trkpt>
<trkpt lat="40.0728419" lon="-105.2305749">
  <ele>1586.17</ele>
  <time>2026-08-28T19:06:25Z</time>
  <course>11.05</course>
  <speed>0.01414213562373095</speed>
  <fix>3d</fix>
</trkpt>
<trkpt lat="40.072842" lon="-105.230575">
  <ele>1586.09</ele>
  <time>2026-08-28T19:06:25Z</time>
  <course>266.03</course>
  <speed>0.0</speed>
  <fix>3d</fix>
</trkpt>
<trkpt lat="40.0728419" lon="-105.2305749">
  <ele>1586.17</ele>
  <time>2026-08-28T19:06:25Z</time>
  <course>11.05</course>
  <speed>0.01414213562373095</speed>
  <fix>3d</fix>
</trkpt>
<trkpt lat="40.072842" lon="-105.230575">
  <ele>1586.09</ele>
  <time>2026-08-28T19:06:25Z</time>
  <course>266.03</course>
  <speed>0.0</speed>
  <fix>3d</fix>
</trkpt>
<trkpt lat="40.0728419" lon="-105.2305749">
  <ele>1586.18</ele>
  <time>2026-08-28T19:06:25Z</time>
  <course>11.05</course>
  <speed>0.01414213562373095</speed>
  <fix>3d</fix>
</trkpt>
<trkpt lat="40.072842" lon="-105.230575">
  <ele>1586.09</ele>
  <time>2026-08-28T19:06:25Z</time>
  <course>266.03</course>
  <speed>0.0</speed>
  <fix>3d</fix>
</trkpt>
<trkpt lat="40.0728419" lon="-105.2305749">
  <ele>1586.19</ele>
  <time>2026-08-28T19:06:25Z</time>
  <course>11.05</course>
  <speed>0.01414213562373095</speed>
  <fix>3d</fix>
</trkpt>
<trkpt lat="40.072842" lon="-105.230575">
  <ele>1586.09</ele>
  <time>2026-08-28T19:06:25Z</time>
  <course>266.03</course>
  <speed>0.0</speed>
  <fix>3d</fix>
</trkpt>
<trkpt lat="40.0728419" lon="-105.2305749">
  <ele>1586.19</ele>
  <time>2026-08-28T19:06:25Z</time>
  <course>11.05</course>
  <speed>0.01414213562373095</speed>
  <fix>3d</fix>
</trkpt>
<trkpt lat="40.072842" lon="-105.230575">
  <ele>1586.09</ele>
  <time>2026-08-28T19:06:25Z</time>
  <course>266.03</course>
  <speed>0.0</speed>
  <fix>3d</fix>
</trkpt>
<trkpt lat="40.0728419" lon="-105.2305749">
  <ele>1586.19</ele>
  <time>2026-08-28T19:06:25Z</time>
  <course>11.05</course>
  <speed>0.01414213562373095</speed>
  <fix>3d</fix>
</trkpt>
<trkpt lat="40.072842" lon="-105.230575">
  <ele>1586.09</ele>
  <time>2026-08-28T19:06:25Z</time>
  <course>266.03</course>
  <speed>0.0</speed>
  <fix>3d</fix>
</trkpt>
<trkpt lat="40.0728419" lon="-105.2305749">
  <ele>1586.19</ele>
  <time>2026-08-28T19:06:25Z</time>
  <course>11.05</course>
  <speed>0.01414213562373095</speed>
  <fix>3d</fix>
</trkpt>
<trkpt lat="40.072842" lon="-105.230575">
  <ele>1586.09</ele>
  <time>2026-08-28T19:06:25Z</time>
  <course>266.03</course>
  <speed>0.0</speed>
  <fix>3d</fix>
</trkpt>
<trkpt lat="40.0728419" lon="-105.2305749">
  <ele>1586.18</ele>
  <time>2026-08-28T19:06:25Z</time>
  <course>11.05</course>
  <speed>0.01414213562373095</speed>
  <fix>3d</fix>
</trkpt>
<trkpt lat="40.072842" lon="-105.230575">
  <ele>1586.09</ele>
  <time>2026-08-28T19:06:25Z</time>
  <course>266.03</course>
  <speed>0.0</speed>
  <fix>3d</fix>
</trkpt>
<trkpt lat="40.0728419" lon="-105.2305749">
  <ele>1586.18</ele>
  <time>2026-08-28T19:06:25Z</time>
  <course>11.05</course>
  <speed>0.01414213562373095</speed>
  <fix>3d</fix>
</trkpt>
<trkpt lat="40.072842" lon="-105.230575">
  <ele>1586.09</ele>
  <time>2026-08-28T19:06:25Z</time>
  <course>266.03</course>
  <speed>0.0</speed>
  <fix>3d</fix>
</trkpt>
<trkpt lat="40.0728419" lon="-105.2305749">
  <ele>1586.17</ele>
  <time>2026-08-28T19:06:25Z</time>
  <course>11.05</course>
  <speed>0.01414213562373095</speed>
  <fix>3d</fix>
</trkpt>
<trkpt lat="40.072842" lon="-105.230575">
  <ele>1586.09</ele>
  <time>2026-08-28T19:06:25Z</time>
  <course>266.03</course>
  <speed>0.0</speed>
  <fix>3d</fix>
</trkpt>
<trkpt lat="40.0728419" lon="-105.2305749">
  <ele>1586.18</ele>
  <time>2026-08-28T19:06:25Z</time>
  <course>11.05</course>
  <speed>0.01414213562373095</speed>
  <fix>3d</fix>
</trkpt>
<trkpt lat="40.072842" lon="-105.230575">
  <ele>1586.09</ele>
  <time>2026-08-28T19:06:25Z</time>
  <course>266.03</course>
  <speed>0.0</speed>
  <fix>3d</fix>
</trkpt>
<trkpt lat="40.0728419" lon="-105.2305749">
  <ele>1586.18</ele>
  <time>2026-08-28T19:06:25Z</time>
  <course>11.05</course>
  <speed>0.01414213562373095</speed>
  <fix>3d</fix>
</trkpt>
<trkpt lat="40.072842" lon="-105.230575">
  <ele>1586.09</ele>
  <time>2026-08-28T19:06:25Z</time>
  <course>266.03</course>
  <speed>0.0</speed>
  <fix>3d</fix>
</trkpt>
<trkpt lat="40.0728419" lon="-105.2305749">
  <ele>1586.18</ele>
  <time>2026-08-28T19:06:25Z</time>
  <course>11.05</course>
  <speed>0.01414213562373095</speed>
  <fix>3d</fix>
</trkpt>
<trkpt lat="40.072842" lon="-105.230575">
  <ele>1586.09</ele>
  <time>2026-08-28T19:06:25Z</time>
  <course>266.03</course>
  <speed>0.0</speed>
  <fix>3d</fix>
</trkpt>
<trkpt lat="40.0728419" lon="-105.2305749">
  <ele>1586.17</ele>
  <time>2026-08-28T19:06:25Z</time>
  <course>11.05</course>
  <speed>0.01414213562373095</speed>
  <fix>3d</fix>
</trkpt>
<trkpt lat="40.072842" lon="-105.230575">
  <ele>1586.09</ele>
  <time>2026-08-28T19:06:25Z</time>
  <course>266.03</course>
  <speed>0.0</speed>
  <fix>3d</fix>
</trkpt>
<trkpt lat="40.0728419" lon="-105.2305749">
  <ele>1586.17</ele>
  <time>2026-08-28T19:06:25Z</time>
  <course>11.05</course>
  <speed>0.01414213562373095</speed>
  <fix>3d</fix>
</trkpt>
<trkpt lat="40.072842" lon="-105.230575">
  <ele>1586.09</ele>
  <time>2026-08-28T19:06:25Z</time>
  <course>266.03</course>
  <speed>0.0</speed>
  <fix>3d</fix>
</trkpt>
<trkpt lat="40.0728419" lon="-105.2305749">
  <ele>1586.17</ele>
  <time>2026-08-28T19:06:25Z</time>
  <course>11.05</course>
  <speed>0.01414213562373095</speed>
  <fix>3d</fix>
</trkpt>
<trkpt lat="40.072842" lon="-105.230575">
  <ele>1586.09</ele>
  <time>2026-08-28T19:06:25Z</time>
  <course>266.03</course>
  <speed>0.0</speed>
  <fix>3d</fix>
</trkpt>
<trkpt lat="40.0728419" lon="-105.2305749">
  <ele>1586.17</ele>
  <time>2026-08-28T19:06:25Z</time>
  <course>11.05</course>
  <speed>0.01414213562373095</speed>
  <fix>3d</fix>
</trkpt>
<trkpt lat="40.072842" lon="-105.230575">
  <ele>1586.09</ele>
  <time>2026-08-28T19:06:25Z</time>
  <course>266.03</course>
  <speed>0.0</speed>
  <fix>3d</fix>
</trkpt>
<trkpt lat="40.0728419" lon="-105.2305749">
  <ele>1586.18</ele>
  <time>2026-08-28T19:06:25Z</time>
  <course>11.05</course>
  <speed>0.01414213562373095</speed>
  <fix>3d</fix>
</trkpt>
<trkpt lat="40.072842" lon="-105.230575">
  <ele>1586.09</ele>
  <time>2026-08-28T19:06:25Z</time>
  <course>266.03</course>
  <speed>0.0</speed>
  <fix>3d</fix>
</trkpt>
<trkpt lat="40.0728419" lon="-105.2305749">
  <ele>1586.18</ele>
  <time>2026-08-28T19:06:25Z</time>
  <course>11.05</course>
  <speed>0.01414213562373095</speed>
  <fix>3d</fix>
</trkpt>
<trkpt lat="40.072842" lon="-105.230575">
  <ele>1586.09</ele>
  <time>2026-08-28T19:06:25Z</time>
  <course>266.03</course>
  <speed>0.0</speed>
  <fix>3d</fix>
</trkpt>
<trkpt lat="40.0728419" lon="-105.2305749">
  <ele>1586.18</ele>
  <time>2026-08-28T19:06:25Z</time>
  <course>11.05</course>
  <speed>0.01414213562373095</speed>
  <fix>3d</fix>
</trkpt>
<trkpt lat="40.072842" lon="-105.230575">
  <ele>1586.09</ele>
  <time>2026-08-28T19:06:25Z</time>
  <course>266.03</course>
  <speed>0.0</speed>
  <fix>3d</fix>
</trkpt>
<trkpt lat="40.0728419" lon="-105.2305749">
  <ele>1586.18</ele>
  <time>2026-08-28T19:06:25Z</time>
  <course>11.06</course>
  <speed>0.01414213562373095</speed>
  <fix>3d</fix>
</trkpt>
<trkpt lat="40.072842" lon="-105.230575">
  <ele>1586.09</ele>
  <time>2026-08-28T19:06:25Z</time>
  <course>266.03</course>
  <speed>0.0</speed>
  <fix>3d</fix>
</trkpt>
<trkpt lat="40.0728419" lon="-105.2305749">
  <ele>1586.17</ele>
  <time>2026-08-28T19:06:25Z</time>
  <course>11.06</course>
  <speed>0.01414213562373095</speed>
  <fix>3d</fix>
</trkpt>
<trkpt lat="40.072842" lon="-105.230575">
  <ele>1586.09</ele>
  <time>2026-08-28T19:06:25Z</time>
  <course>266.03</course>
  <speed>0.0</speed>
  <fix>3d</fix>
</trkpt>
<trkpt lat="40.0728419" lon="-105.2305749">
  <ele>1586.17</ele>
  <time>2026-08-28T19:06:25Z</time>
  <course>11.06</course>
  <speed>0.01414213562373095</speed>
  <fix>3d</fix>
</trkpt>
<trkpt lat="40.072842" lon="-105.230575">
  <ele>1586.09</ele>
  <time>2026-08-28T19:06:25Z</time>
  <course>266.03</course>
  <speed>0.0</speed>
  <fix>3d</fix>
</trkpt>
<trkpt lat="40.0728419" lon="-105.2305749">
  <ele>1586.17</ele>
  <time>2026-08-28T19:06:25Z</time>
  <course>11.06</course>
  <speed>0.01414213562373095</speed>
  <fix>3d</fix>
</trkpt>
<trkpt lat="40.072842" lon="-105.230575">
  <ele>1586.09</ele>
  <time>2026-08-28T19:06:25Z</time>
  <course>266.03</course>
  <speed>0.0</speed>
  <fix>3d</fix>
</trkpt>
<trkpt lat="40.0728419" lon="-105.2305749">
  <ele>1586.17</ele>
  <time>2026-08-28T19:06:25Z</time>
  <course>11.06</course>
  <speed>0.01414213562373095</speed>
  <fix>3d</fix>
</trkpt>
<trkpt lat="40.072842" lon="-105.230575">
  <ele>1586.09</ele>
  <time>2026-08-28T19:06:25Z</time>
  <course>266.03</course>
  <speed>0.0</speed>
  <fix>3d</fix>
</trkpt>
<trkpt lat="40.0728419" lon="-105.2305749">
  <ele>1586.16</ele>
  <time>2026-08-28T19:06:25Z</time>
  <course>11.06</course>
  <speed>0.01414213562373095</speed>
  <fix>3d</fix>
</trkpt>
<trkpt lat="40.072842" lon="-105.230575">
  <ele>1586.09</ele>
  <time>2026-08-28T19:06:25Z</time>
  <course>266.03</course>
  <speed>0.0</speed>
  <fix>3d</fix>
</trkpt>
<trkpt lat="40.0728419" lon="-105.2305749">
  <ele>1586.16</ele>
  <time>2026-08-28T19:06:25Z</time>
  <course>11.06</course>
  <speed>0.01414213562373095</speed>
  <fix>3d</fix>
</trkpt>
<trkpt lat="40.072842" lon="-105.230575">
  <ele>1586.09</ele>
  <time>2026-08-28T19:06:25Z</time>
  <course>266.03</course>
  <speed>0.0</speed>
  <fix>3d</fix>
</trkpt>
<trkpt lat="40.0728419" lon="-105.2305749">
  <ele>1586.17</ele>
  <time>2026-08-28T19:06:25Z</time>
  <course>11.06</course>
  <speed>0.01414213562373095</speed>
  <fix>3d</fix>
</trkpt>
<trkpt lat="40.072842" lon="-105.230575">
  <ele>1586.09</ele>
  <time>2026-08-28T19:06:25Z</time>
  <course>266.03</course>
  <speed>0.0</speed>
  <fix>3d</fix>
</trkpt>
<trkpt lat="40.0728419" lon="-105.2305749">
  <ele>1586.16</ele>
  <time>2026-08-28T19:06:25Z</time>
  <course>11.06</course>
  <speed>0.01414213562373095</speed>
  <fix>3d</fix>
</trkpt>
<trkpt lat="40.072842" lon="-105.230575">
  <ele>1586.09</ele>
  <time>2026-08-28T19:06:25Z</time>
  <course>266.03</course>
  <speed>0.0</speed>
  <fix>3d</fix>
</trkpt>
<trkpt lat="40.0728419" lon="-105.2305749">
  <ele>1586.17</ele>
  <time>2026-08-28T19:06:25Z</time>
  <course>11.06</course>
  <speed>0.01414213562373095</speed>
  <fix>3d</fix>
</trkpt>
<trkpt lat="40.072842" lon="-105.230575">
  <ele>1586.09</ele>
  <time>2026-08-28T19:06:25Z</time>
  <course>266.03</course>
  <speed>0.0</speed>
  <fix>3d</fix>
</trkpt>
<trkpt lat="40.0728419" lon="-105.2305749">
  <ele>1586.17</ele>
  <time>2026-08-28T19:06:25Z</time>
  <course>11.06</course>
  <speed>0.01414213562373095</speed>
  <fix>3d</fix>
</trkpt>
<trkpt lat="40.072842" lon="-105.230575">
  <ele>1586.09</ele>
  <time>2026-08-28T19:06:25Z</time>
  <course>266.03</course>
  <speed>0.0</speed>
  <fix>3d</fix>
</trkpt>
<trkpt lat="40.0728419" lon="-105.2305749">
  <ele>1586.18</ele>
  <time>2026-08-28T19:06:25Z</time>
  <course>11.06</course>
  <speed>0.01414213562373095</speed>
  <fix>3d</fix>
</trkpt>
<trkpt lat="40.072842" lon="-105.230575">
  <ele>1586.09</ele>
  <time>2026-08-28T19:06:25Z</time>
  <course>266.03</course>
  <speed>0.0</speed>
  <fix>3d</fix>
</trkpt>
<trkpt lat="40.0728419" lon="-105.2305749">
  <ele>1586.18</ele>
  <time>2026-08-28T19:06:25Z</time>
  <course>11.06</course>
  <speed>0.01414213562373095</speed>
  <fix>3d</fix>
</trkpt>
<trkpt lat="40.072842" lon="-105.230575">
  <ele>1586.09</ele>
  <time>2026-08-28T19:06:25Z</time>
  <course>266.03</course>
  <speed>0.0</speed>
  <fix>3d</fix>
</trkpt>
<trkpt lat="40.0728419" lon="-105.2305749">
  <ele>1586.19</ele>
  <time>2026-08-28T19:06:25Z</time>
  <course>11.06</course>
  <speed>0.01414213562373095</speed>
  <fix>3d</fix>
</trkpt>
<trkpt lat="40.072842" lon="-105.230575">
  <ele>1586.09</ele>
  <time>2026-08-28T19:06:25Z</time>
  <course>266.03</course>
  <speed>0.0</speed>
  <fix>3d</fix>
</trkpt>
<trkpt lat="40.0728419" lon="-105.2305749">
  <ele>1586.19</ele>
  <time>2026-08-28T19:06:25Z</time>
  <course>11.06</course>
  <speed>0.01414213562373095</speed>
  <fix>3d</fix>
</trkpt>
<trkpt lat="40.072842" lon="-105.230575">
  <ele>1586.09</ele>
  <time>2026-08-28T19:06:25Z</time>
  <course>266.03</course>
  <speed>0.0</speed>
  <fix>3d</fix>
</trkpt>
<trkpt lat="40.0728419" lon="-105.2305749">
  <ele>1586.2</ele>
  <time>2026-08-28T19:06:25Z</time>
  <course>11.06</course>
  <speed>0.01414213562373095</speed>
  <fix>3d</fix>
</trkpt>
<trkpt lat="40.072842" lon="-105.230575">
  <ele>1586.09</ele>
  <time>2026-08-28T19:06:25Z</time>
  <course>266.03</course>
  <speed>0.0</speed>
  <fix>3d</fix>
</trkpt>
<trkpt lat="40.0728419" lon="-105.2305749">
  <ele>1586.2</ele>
  <time>2026-08-28T19:06:25Z</time>
  <course>11.06</course>
  <speed>0.01414213562373095</speed>
  <fix>3d</fix>
</trkpt>
<trkpt lat="40.072842" lon="-105.230575">
  <ele>1586.09</ele>
  <time>2026-08-28T19:06:25Z</time>
  <course>266.03</course>
  <speed>0.0</speed>
  <fix>3d</fix>
</trkpt>
<trkpt lat="40.0728419" lon="-105.2305749">
  <ele>1586.2</ele>
  <time>2026-08-28T19:06:25Z</time>
  <course>11.06</course>
  <speed>0.01414213562373095</speed>
  <fix>3d</fix>
</trkpt>
<trkpt lat="40.072842" lon="-105.230575">
  <ele>1586.09</ele>
  <time>2026-08-28T19:06:25Z</time>
  <course>266.03</course>
  <speed>0.0</speed>
  <fix>3d</fix>
</trkpt>
<trkpt lat="40.0728419" lon="-105.2305749">
  <ele>1586.2</ele>
  <time>2026-08-28T19:06:25Z</time>
  <course>11.06</course>
  <speed>0.01414213562373095</speed>
  <fix>3d</fix>
</trkpt>
<trkpt lat="40.072842" lon="-105.230575">
  <ele>1586.09</ele>
  <time>2026-08-28T19:06:25Z</time>
  <course>266.03</course>
  <speed>0.0</speed>
  <fix>3d</fix>
</trkpt>
<trkpt lat="40.0728419" lon="-105.2305749">
  <ele>1586.2</ele>
  <time>2026-08-28T19:06:25Z</time>
  <course>11.06</course>
  <speed>0.01414213562373095</speed>
  <fix>3d</fix>
</trkpt>
<trkpt lat="40.072842" lon="-105.230575">
  <ele>1586.09</ele>
  <time>2026-08-28T19:06:25Z</time>
  <course>266.03</course>
  <speed>0.0</speed>
  <fix>3d</fix>
</trkpt>
<trkpt lat="40.0728419" lon="-105.2305749">
  <ele>1586.2</ele>
  <time>2026-08-28T19:06:25Z</time>
  <course>11.06</course>
  <speed>0.01414213562373095</speed>
  <fix>3d</fix>
</trkpt>
<trkpt lat="40.072842" lon="-105.230575">
  <ele>1586.09</ele>
  <time>2026-08-28T19:06:25Z</time>
  <course>266.03</course>
  <speed>0.0</speed>
  <fix>3d</fix>
</trkpt>
<trkpt lat="40.0728419" lon="-105.2305749">
  <ele>1586.19</ele>
  <time>2026-08-28T19:06:25Z</time>
  <course>11.06</course>
  <speed>0.01414213562373095</speed>
  <fix>3d</fix>
</trkpt>
<trkpt lat="40.072842" lon="-105.230575">
  <ele>1586.09</ele>
  <time>2026-08-28T19:06:25Z</time>
  <course>266.03</course>
  <speed>0.0</speed>
  <fix>3d</fix>
</trkpt>
<trkpt lat="40.0728419" lon="-105.2305749">
  <ele>1586.19</ele>
  <time>2026-08-28T19:06:25Z</time>
  <course>11.06</course>
  <speed>0.01414213562373095</speed>
  <fix>3d</fix>
</trkpt>
<trkpt lat="40.072842" lon="-105.230575">
  <ele>1586.09</ele>
  <time>2026-08-28T19:06:25Z</time>
  <course>266.03</course>
  <speed>0.0</speed>
  <fix>3d</fix>
</trkpt>
<trkpt lat="40.0728419" lon="-105.2305749">
  <ele>1586.19</ele>
  <time>2026-08-28T19:06:25Z</time>
  <course>11.06</course>
  <speed>0.01414213562373095</speed>
  <fix>3d</fix>
</trkpt>
<trkpt lat="40.072842" lon="-105.230575">
  <ele>1586.09</ele>
  <time>2026-08-28T19:06:25Z</time>
  <course>266.03</course>
  <speed>0.0</speed>
  <fix>3d</fix>
</trkpt>
<trkpt lat="40.0728419" lon="-105.2305749">
  <ele>1586.18</ele>
  <time>2026-08-28T19:06:25Z</time>
  <course>11.06</course>
  <speed>0.01414213562373095</speed>
  <fix>3d</fix>
</trkpt>
<trkpt lat="40.072842" lon="-105.230575">
  <ele>1586.09</ele>
  <time>2026-08-28T19:06:25Z</time>
  <course>266.03</course>
  <speed>0.0</speed>
  <fix>3d</fix>
</trkpt>
<trkpt lat="40.0728419" lon="-105.2305749">
  <ele>1586.18</ele>
  <time>2026-08-28T19:06:25Z</time>
  <course>11.06</course>
  <speed>0.01414213562373095</speed>
  <fix>3d</fix>
</trkpt>
<trkpt lat="40.072842" lon="-105.230575">
  <ele>1586.09</ele>
  <time>2026-08-28T19:06:25Z</time>
  <course>266.03</course>
  <speed>0.0</speed>
  <fix>3d</fix>
</trkpt>
<trkpt lat="40.0728419" lon="-105.2305749">
  <ele>1586.18</ele>
  <time>2026-08-28T19:06:25Z</time>
  <course>11.06</course>
  <speed>0.01414213562373095</speed>
  <fix>3d</fix>
</trkpt>
<trkpt lat="40.072842" lon="-105.230575">
  <ele>1586.09</ele>
  <time>2026-08-28T19:06:25Z</time>
  <course>266.03</course>
  <speed>0.0</speed>
  <fix>3d</fix>
</trkpt>
<trkpt lat="40.0728419" lon="-105.2305749">
  <ele>1586.18</ele>
  <time>2026-08-28T19:06:25Z</time>
  <course>11.06</course>
  <speed>0.01414213562373095</speed>
  <fix>3d</fix>
</trkpt>
<trkpt lat="40.072842" lon="-105.230575">
  <ele>1586.09</ele>
  <time>2026-08-28T19:06:25Z</time>
  <course>266.03</course>
  <speed>0.0</speed>
  <fix>3d</fix>
</trkpt>
<trkpt lat="40.0728419" lon="-105.2305749">
  <ele>1586.19</ele>
  <time>2026-08-28T19:06:25Z</time>
  <course>11.06</course>
  <speed>0.01414213562373095</speed>
  <fix>3d</fix>
</trkpt>
<trkpt lat="40.072842" lon="-105.230575">
  <ele>1586.09</ele>
  <time>2026-08-28T19:06:25Z</time>
  <course>266.03</course>
  <speed>0.0</speed>
  <fix>3d</fix>
</trkpt>
<trkpt lat="40.0728419" lon="-105.2305749">
  <ele>1586.19</ele>
  <time>2026-08-28T19:06:25Z</time>
  <course>11.06</course>
  <speed>0.01414213562373095</speed>
  <fix>3d</fix>
</trkpt>
<trkpt lat="40.072842" lon="-105.230575">
  <ele>1586.09</ele>
  <time>2026-08-28T19:06:25Z</time>
  <course>281.01</course>
  <speed>0.0</speed>
  <fix>3d</fix>
</trkpt>
<trkpt lat="40.0728419" lon="-105.2305749">
  <ele>1586.19</ele>
  <time>2026-08-28T19:06:25Z</time>
  <course>11.06</course>
  <speed>0.01414213562373095</speed>
  <fix>3d</fix>
</trkpt>
<trkpt lat="40.072842" lon="-105.230575">
  <ele>1586.09</ele>
  <time>2026-08-28T19:06:25Z</time>
  <course>275.03</course>
  <speed>0.0</speed>
  <fix>3d</fix>
</trkpt>
<trkpt lat="40.0728419" lon="-105.2305749">
  <ele>1586.19</ele>
  <time>2026-08-28T19:06:25Z</time>
  <course>11.06</course>
  <speed>0.01</speed>
  <fix>3d</fix>
</trkpt>
<trkpt lat="40.072842" lon="-105.230575">
  <ele>1586.09</ele>
  <time>2026-08-28T19:06:25Z</time>
  <course>260.44</course>
  <speed>0.0</speed>
  <fix>3d</fix>
</trkpt>
<trkpt lat="40.0728419" lon="-105.2305749">
  <ele>1586.19</ele>
  <time>2026-08-28T19:06:25Z</time>
  <course>11.06</course>
  <speed>0.01</speed>
  <fix>3d</fix>
</trkpt>
<trkpt lat="40.072842" lon="-105.230575">
  <ele>1586.09</ele>
  <time>2026-08-28T19:06:25Z</time>
  <course>265.58</course>
  <speed>0.0</speed>
  <fix>3d</fix>
</trkpt>
<trkpt lat="40.0728419" lon="-105.2305749">
  <ele>1586.19</ele>
  <time>2026-08-28T19:06:25Z</time>
  <course>11.06</course>
  <speed>0.0</speed>
  <fix>3d</fix>
</trkpt>
<trkpt lat="40.072842" lon="-105.230575">
  <ele>1586.09</ele>
  <time>2026-08-28T19:06:25Z</time>
  <course>266.93</course>
  <speed>0.0</speed>
  <fix>3d</fix>
</trkpt>
<trkpt lat="40.0728419" lon="-105.2305749">
  <ele>1586.19</ele>
  <time>2026-08-28T19:06:25Z</time>
  <course>11.06</course>
  <speed>0.0</speed>
  <fix>3d</fix>
</trkpt>
<trkpt lat="40.072842" lon="-105.230575">
  <ele>1586.09</ele>
  <time>2026-08-28T19:06:25Z</time>
  <course>265.99</course>
  <speed>0.0</speed>
  <fix>3d</fix>
</trkpt>
<trkpt lat="40.0728419" lon="-105.2305749">
  <ele>1586.19</ele>
  <time>2026-08-28T19:06:25Z</time>
  <course>11.06</course>
  <speed>0.0</speed>
  <fix>3d</fix>
</trkpt>
<trkpt lat="40.072842" lon="-105.230575">
  <ele>1586.09</ele>
  <time>2026-08-28T19:06:25Z</time>
  <course>265.92</course>
  <speed>0.0</speed>
  <fix>3d</fix>
</trkpt>
<trkpt lat="40.0728419" lon="-105.2305749">
  <ele>1586.19</ele>
  <time>2026-08-28T19:06:25Z</time>
  <course>11.06</course>
  <speed>0.0</speed>
  <fix>3d</fix>
</trkpt>
<trkpt lat="40.072842" lon="-105.230575">
  <ele>1586.09</ele>
  <time>2026-08-28T19:06:25Z</time>
  <course>266.05</course>
  <speed>0.0</speed>
  <fix>3d</fix>
</trkpt>
<trkpt lat="40.0728419" lon="-105.2305749">
  <ele>1586.19</ele>
  <time>2026-08-28T19:06:25Z</time>
  <course>11.06</course>
  <speed>0.0</speed>
  <fix>3d</fix>
</trkpt>
<trkpt lat="40.072842" lon="-105.230575">
  <ele>1586.09</ele>
  <time>2026-08-28T19:06:25Z</time>
  <course>266.05</course>
  <speed>0.0</speed>
  <fix>3d</fix>
</trkpt>
<trkpt lat="40.0728419" lon="-105.2305749">
  <ele>1586.19</ele>
  <time>2026-08-28T19:06:25Z</time>
  <course>11.06</course>
  <speed>0.0</speed>
  <fix>3d</fix>
</trkpt>
<trkpt lat="40.072842" lon="-105.230575">
  <ele>1586.09</ele>
  <time>2026-08-28T19:06:25Z</time>
  <course>277.79</course>
  <speed>0.0</speed>
  <fix>3d</fix>
</trkpt>
<trkpt lat="40.0728419" lon="-105.2305749">
  <ele>1586.19</ele>
  <time>2026-08-28T19:06:25Z</time>
  <course>11.06</course>
  <speed>0.0</speed>
  <fix>3d</fix>
</trkpt>
<trkpt lat="40.072842" lon="-105.230575">
  <ele>1586.09</ele>
  <time>2026-08-28T19:06:25Z</time>
  <course>268.47</course>
  <speed>0.0</speed>
  <fix>3d</fix>
</trkpt>
<trkpt lat="40.0728419" lon="-105.2305749">
  <ele>1586.19</ele>
  <time>2026-08-28T19:06:25Z</time>
  <course>11.06</course>
  <speed>0.0</speed>
  <fix>3d</fix>
</trkpt>
<trkpt lat="40.072842" lon="-105.230575">
  <ele>1586.09</ele>
  <time>2026-08-28T19:06:25Z</time>
  <course>207.73</course>
  <speed>0.0</speed>
  <fix>3d</fix>
</trkpt>
<trkpt lat="40.0728419" lon="-105.2305749">
  <ele>1586.19</ele>
  <time>2026-08-28T19:06:25Z</time>
  <course>11.06</course>
  <speed>0.0</speed>
  <fix>3d</fix>
</trkpt>
<trkpt lat="40.072842" lon="-105.230575">
  <ele>1586.09</ele>
  <time>2026-08-28T19:06:25Z</time>
  <course>74.78</course>
  <speed>0.0</speed>
  <fix>3d</fix>
</trkpt>
<trkpt lat="40.0728419" lon="-105.2305749">
  <ele>1586.18</ele>
  <time>2026-08-28T19:06:25Z</time>
  <course>11.06</course>
  <speed>0.0</speed>
  <fix>3d</fix>
</trkpt>
<trkpt lat="40.072842" lon="-105.230575">
  <ele>1586.09</ele>
  <time>2026-08-28T19:06:25Z</time>
  <course>280.94</course>
  <speed>0.0</speed>
  <fix>3d</fix>
</trkpt>
<trkpt lat="40.0728419" lon="-105.2305749">
  <ele>1586.18</ele>
  <time>2026-08-28T19:06:25Z</time>
  <course>11.07</course>
  <speed>0.0</speed>
  <fix>3d</fix>
</trkpt>
<trkpt lat="40.072842" lon="-105.230575">
  <ele>1586.09</ele>
  <time>2026-08-28T19:06:25Z</time>
  <course>262.42</course>
  <speed>0.0</speed>
  <fix>3d</fix>
</trkpt>
<trkpt lat="40.0728419" lon="-105.2305749">
  <ele>1586.17</ele>
  <time>2026-08-28T19:06:25Z</time>
  <course>11.07</course>
  <speed>0.0</speed>
  <fix>3d</fix>
</trkpt>
<trkpt lat="40.072842" lon="-105.230575">
  <ele>1586.09</ele>
  <time>2026-08-28T19:06:25Z</time>
  <course>263.98</course>
  <speed>0.0</speed>
  <fix>3d</fix>
</trkpt>
<trkpt lat="40.0728419" lon="-105.2305749">
  <ele>1586.17</ele>
  <time>2026-08-28T19:06:25Z</time>
  <course>11.07</course>
  <speed>0.0</speed>
  <fix>3d</fix>
</trkpt>
<trkpt lat="40.072842" lon="-105.230575">
  <ele>1586.09</ele>
  <time>2026-08-28T19:06:25Z</time>
  <course>266.95</course>
  <speed>0.0</speed>
  <fix>3d</fix>
</trkpt>
<trkpt lat="40.0728419" lon="-105.2305749">
  <ele>1586.17</ele>
  <time>2026-08-28T19:06:25Z</time>
  <course>11.07</course>
  <speed>0.0</speed>
  <fix>3d</fix>
</trkpt>
<trkpt lat="40.072842" lon="-105.230575">
  <ele>1586.09</ele>
  <time>2026-08-28T19:06:25Z</time>
  <course>266.19</course>
  <speed>0.0</speed>
  <fix>3d</fix>
</trkpt>
<trkpt lat="40.0728419" lon="-105.2305749">
  <ele>1586.16</ele>
  <time>2026-08-28T19:06:25Z</time>
  <course>11.07</course>
  <speed>0.0</speed>
  <fix>3d</fix>
</trkpt>
<trkpt lat="40.072842" lon="-105.230575">
  <ele>1586.09</ele>
  <time>2026-08-28T19:06:25Z</time>
  <course>265.9</course>
  <speed>0.0</speed>
  <fix>3d</fix>
</trkpt>
<trkpt lat="40.0728419" lon="-105.2305749">
  <ele>1586.16</ele>
  <time>2026-08-28T19:06:25Z</time>
  <course>11.07</course>
  <speed>0.0</speed>
  <fix>3d</fix>
</trkpt>
<trkpt lat="40.072842" lon="-105.230575">
  <ele>1586.09</ele>
  <time>2026-08-28T19:06:25Z</time>
  <course>330.01</course>
  <speed>0.0</speed>
  <fix>3d</fix>
</trkpt>
<trkpt lat="40.0728419" lon="-105.2305749">
  <ele>1586.16</ele>
  <time>2026-08-28T19:06:25Z</time>
  <course>11.07</course>
  <speed>0.01</speed>
  <fix>3d</fix>
</trkpt>
<trkpt lat="40.072842" lon="-105.230575">
  <ele>1586.09</ele>
  <time>2026-08-28T19:06:25Z</time>
  <course>321.75</course>
  <speed>0.0</speed>
  <fix>3d</fix>
</trkpt>
<trkpt lat="40.0728419" lon="-105.2305749">
  <ele>1586.16</ele>
  <time>2026-08-28T19:06:25Z</time>
  <course>11.07</course>
  <speed>0.01</speed>
  <fix>3d</fix>
</trkpt>
<trkpt lat="40.072842" lon="-105.230575">
  <ele>1586.09</ele>
  <time>2026-08-28T19:06:25Z</time>
  <course>236.69</course>
  <speed>0.0</speed>
  <fix>3d</fix>
</trkpt>
<trkpt lat="40.0728419" lon="-105.2305749">
  <ele>1586.15</ele>
  <time>2026-08-28T19:06:25Z</time>
  <course>11.07</course>
  <speed>0.01</speed>
  <fix>3d</fix>
</trkpt>
<trkpt lat="40.072842" lon="-105.230575">
  <ele>1586.09</ele>
  <time>2026-08-28T19:06:25Z</time>
  <course>155.15</course>
  <speed>0.0</speed>
  <fix>3d</fix>
</trkpt>
<trkpt lat="40.0728419" lon="-105.2305749">
  <ele>1586.15</ele>
  <time>2026-08-28T19:06:25Z</time>
  <course>11.07</course>
  <speed>0.01</speed>
  <fix>3d</fix>
</trkpt>
<trkpt lat="40.072842" lon="-105.230575">
  <ele>1586.09</ele>
  <time>2026-08-28T19:06:25Z</time>
  <course>304.67</course>
  <speed>0.0</speed>
  <fix>3d</fix>
</trkpt>
<trkpt lat="40.0728419" lon="-105.2305749">
  <ele>1586.14</ele>
  <time>2026-08-28T19:06:25Z</time>
  <course>11.07</course>
  <speed>0.01</speed>
  <fix>3d</fix>
</trkpt>
<trkpt lat="40.072842" lon="-105.230575">
  <ele>1586.09</ele>
  <time>2026-08-28T19:06:25Z</time>
  <course>290.15</course>
  <speed>0.0</speed>
  <fix>3d</fix>
</trkpt>
<trkpt lat="40.0728419" lon="-105.2305749">
  <ele>1586.15</ele>
  <time>2026-08-28T19:06:25Z</time>
  <course>11.07</course>
  <speed>0.01</speed>
  <fix>3d</fix>
</trkpt>
<trkpt lat="40.072842" lon="-105.230575">
  <ele>1586.09</ele>
  <time>2026-08-28T19:06:25Z</time>
  <course>282.55</course>
  <speed>0.0</speed>
  <fix>3d</fix>
</trkpt>
<trkpt lat="40.0728419" lon="-105.2305749">
  <ele>1586.14</ele>
  <time>2026-08-28T19:06:25Z</time>
  <course>11.08</course>
  <speed>0.01</speed>
  <fix>3d</fix>
</trkpt>
<trkpt lat="40.072842" lon="-105.230575">
  <ele>1586.09</ele>
  <time>2026-08-28T19:06:25Z</time>
  <course>285.94</course>
  <speed>0.0</speed>
  <fix>3d</fix>
</trkpt>
<trkpt lat="40.0728419" lon="-105.2305749">
  <ele>1586.14</ele>
  <time>2026-08-28T19:06:25Z</time>
  <course>11.08</course>
  <speed>0.01414213562373095</speed>
  <fix>3d</fix>
</trkpt>
<trkpt lat="40.072842" lon="-105.230575">
  <ele>1586.09</ele>
  <time>2026-08-28T19:06:25Z</time>
  <course>286.68</course>
  <speed>0.0</speed>
  <fix>3d</fix>
</trkpt>
<trkpt lat="40.0728419" lon="-105.2305749">
  <ele>1586.14</ele>
  <time>2026-08-28T19:06:25Z</time>
  <course>11.08</course>
  <speed>0.01414213562373095</speed>
  <fix>3d</fix>
</trkpt>
<trkpt lat="40.072842" lon="-105.230575">
  <ele>1586.09</ele>
  <time>2026-08-28T19:06:25Z</time>
  <course>286.16</course>
  <speed>0.0</speed>
  <fix>3d</fix>
</trkpt>
<trkpt lat="40.0728419" lon="-105.2305749">
  <ele>1586.14</ele>
  <time>2026-08-28T19:06:25Z</time>
  <course>11.08</course>
  <speed>0.01414213562373095</speed>
  <fix>3d</fix>
</trkpt>
<trkpt lat="40.072842" lon="-105.230575">
  <ele>1586.09</ele>
  <time>2026-08-28T19:06:25Z</time>
  <course>286.13</course>
  <speed>0.0</speed>
  <fix>3d</fix>
</trkpt>
<trkpt lat="40.0728419" lon="-105.2305749">
  <ele>1586.14</ele>
  <time>2026-08-28T19:06:25Z</time>
  <course>11.08</course>
  <speed>0.01414213562373095</speed>
  <fix>3d</fix>
</trkpt>
<trkpt lat="40.072842" lon="-105.230575">
  <ele>1586.09</ele>
  <time>2026-08-28T19:06:25Z</time>
  <course>286.2</course>
  <speed>0.0</speed>
  <fix>3d</fix>
</trkpt>
<trkpt lat="40.0728419" lon="-105.2305749">
  <ele>1586.13</ele>
  <time>2026-08-28T19:06:25Z</time>
  <course>11.08</course>
  <speed>0.01414213562373095</speed>
  <fix>3d</fix>
</trkpt>
<trkpt lat="40.072842" lon="-105.230575">
  <ele>1586.09</ele>
  <time>2026-08-28T19:06:25Z</time>
  <course>286.2</course>
  <speed>0.0</speed>
  <fix>3d</fix>
</trkpt>
<trkpt lat="40.0728419" lon="-105.2305749">
  <ele>1586.12</ele>
  <time>2026-08-28T19:06:25Z</time>
  <course>11.08</course>
  <speed>0.01414213562373095</speed>
  <fix>3d</fix>
</trkpt>
<trkpt lat="40.072842" lon="-105.230575">
  <ele>1586.09</ele>
  <time>2026-08-28T19:06:25Z</time>
  <course>286.19</course>
  <speed>0.0</speed>
  <fix>3d</fix>
</trkpt>
<trkpt lat="40.0728419" lon="-105.2305749">
  <ele>1586.12</ele>
  <time>2026-08-28T19:06:25Z</time>
  <course>11.08</course>
  <speed>0.01414213562373095</speed>
  <fix>3d</fix>
</trkpt>
<trkpt lat="40.072842" lon="-105.230575">
  <ele>1586.09</ele>
  <time>2026-08-28T19:06:25Z</time>
  <course>286.19</course>
  <speed>0.0</speed>
  <fix>3d</fix>
</trkpt>
<trkpt lat="40.0728419" lon="-105.2305749">
  <ele>1586.12</ele>
  <time>2026-08-28T19:06:25Z</time>
  <course>11.08</course>
  <speed>0.01414213562373095</speed>
  <fix>3d</fix>
</trkpt>
<trkpt lat="40.072842" lon="-105.230575">
  <ele>1586.09</ele>
  <time>2026-08-28T19:06:25Z</time>
  <course>286.19</course>
  <speed>0.0</speed>
  <fix>3d</fix>
</trkpt>
<trkpt lat="40.0728419" lon="-105.2305749">
  <ele>1586.12</ele>
  <time>2026-08-28T19:06:25Z</time>
  <course>11.08</course>
  <speed>0.01414213562373095</speed>
  <fix>3d</fix>
</trkpt>
<trkpt lat="40.072842" lon="-105.230575">
  <ele>1586.09</ele>
  <time>2026-08-28T19:06:25Z</time>
  <course>286.19</course>
  <speed>0.0</speed>
  <fix>3d</fix>
</trkpt>
<trkpt lat="40.0728419" lon="-105.2305749">
  <ele>1586.13</ele>
  <time>2026-08-28T19:06:25Z</time>
  <course>11.08</course>
  <speed>0.01414213562373095</speed>
  <fix>3d</fix>
</trkpt>
<trkpt lat="40.072842" lon="-105.230575">
  <ele>1586.09</ele>
  <time>2026-08-28T19:06:25Z</time>
  <course>286.19</course>
  <speed>0.0</speed>
  <fix>3d</fix>
</trkpt>
<trkpt lat="40.0728419" lon="-105.2305749">
  <ele>1586.14</ele>
  <time>2026-08-28T19:06:25Z</time>
  <course>11.09</course>
  <speed>0.01414213562373095</speed>
  <fix>3d</fix>
</trkpt>
<trkpt lat="40.072842" lon="-105.230575">
  <ele>1586.09</ele>
  <time>2026-08-28T19:06:25Z</time>
  <course>286.19</course>
  <speed>0.0</speed>
  <fix>3d</fix>
</trkpt>
<trkpt lat="40.0728419" lon="-105.2305749">
  <ele>1586.14</ele>
  <time>2026-08-28T19:06:25Z</time>
  <course>11.09</course>
  <speed>0.01414213562373095</speed>
  <fix>3d</fix>
</trkpt>
<trkpt lat="40.072842" lon="-105.230575">
  <ele>1586.09</ele>
  <time>2026-08-28T19:06:25Z</time>
  <course>286.19</course>
  <speed>0.0</speed>
  <fix>3d</fix>
</trkpt>
<trkpt lat="40.0728419" lon="-105.2305749">
  <ele>1586.14</ele>
  <time>2026-08-28T19:06:25Z</time>
  <course>11.09</course>
  <speed>0.01414213562373095</speed>
  <fix>3d</fix>
</trkpt>
<trkpt lat="40.072842" lon="-105.230575">
  <ele>1586.09</ele>
  <time>2026-08-28T19:06:25Z</time>
  <course>286.19</course>
  <speed>0.0</speed>
  <fix>3d</fix>
</trkpt>
<trkpt lat="40.0728419" lon="-105.2305749">
  <ele>1586.15</ele>
  <time>2026-08-28T19:06:25Z</time>
  <course>11.09</course>
  <speed>0.022360679774997897</speed>
  <fix>3d</fix>
</trkpt>
<trkpt lat="40.072842" lon="-105.230575">
  <ele>1586.09</ele>
  <time>2026-08-28T19:06:25Z</time>
  <course>286.19</course>
  <speed>0.0</speed>
  <fix>3d</fix>
</trkpt>
<trkpt lat="40.0728419" lon="-105.2305749">
  <ele>1586.15</ele>
  <time>2026-08-28T19:06:25Z</time>
  <course>11.09</course>
  <speed>0.022360679774997897</speed>
  <fix>3d</fix>
</trkpt>
<trkpt lat="40.072842" lon="-105.230575">
  <ele>1586.09</ele>
  <time>2026-08-28T19:06:25Z</time>
  <course>286.19</course>
  <speed>0.0</speed>
  <fix>3d</fix>
</trkpt>
<trkpt lat="40.0728419" lon="-105.2305749">
  <ele>1586.16</ele>
  <time>2026-08-28T19:06:25Z</time>
  <course>11.09</course>
  <speed>0.022360679774997897</speed>
  <fix>3d</fix>
</trkpt>
<trkpt lat="40.072842" lon="-105.230575">
  <ele>1586.09</ele>
  <time>2026-08-28T19:06:25Z</time>
  <course>286.19</course>
  <speed>0.0</speed>
  <fix>3d</fix>
</trkpt>
<trkpt lat="40.0728419" lon="-105.2305749">
  <ele>1586.16</ele>
  <time>2026-08-28T19:06:25Z</time>
  <course>11.09</course>
  <speed>0.022360679774997897</speed>
  <fix>3d</fix>
</trkpt>
<trkpt lat="40.072842" lon="-105.230575">
  <ele>1586.09</ele>
  <time>2026-08-28T19:06:25Z</time>
  <course>286.19</course>
  <speed>0.0</speed>
  <fix>3d</fix>
</trkpt>
<trkpt lat="40.0728419" lon="-105.2305749">
  <ele>1586.16</ele>
  <time>2026-08-28T19:06:25Z</time>
  <course>11.09</course>
  <speed>0.022360679774997897</speed>
  <fix>3d</fix>
</trkpt>
<trkpt lat="40.072842" lon="-105.230575">
  <ele>1586.09</ele>
  <time>2026-08-28T19:06:25Z</time>
  <course>286.19</course>
  <speed>0.0</speed>
  <fix>3d</fix>
</trkpt>
<trkpt lat="40.0728419" lon="-105.2305749">
  <ele>1586.17</ele>
  <time>2026-08-28T19:06:25Z</time>
  <course>11.09</course>
  <speed>0.022360679774997897</speed>
  <fix>3d</fix>
</trkpt>
<trkpt lat="40.072842" lon="-105.230575">
  <ele>1586.09</ele>
  <time>2026-08-28T19:06:25Z</time>
  <course>286.19</course>
  <speed>0.0</speed>
  <fix>3d</fix>
</trkpt>
<trkpt lat="40.0728419" lon="-105.2305749">
  <ele>1586.17</ele>
  <time>2026-08-28T19:06:25Z</time>
  <course>11.09</course>
  <speed>0.022360679774997897</speed>
  <fix>3d</fix>
</trkpt>
<trkpt lat="40.072842" lon="-105.230575">
  <ele>1586.09</ele>
  <time>2026-08-28T19:06:25Z</time>
  <course>286.19</course>
  <speed>0.0</speed>
  <fix>3d</fix>
</trkpt>
<trkpt lat="40.0728419" lon="-105.2305749">
  <ele>1586.17</ele>
  <time>2026-08-28T19:06:25Z</time>
  <course>11.1</course>
  <speed>0.022360679774997897</speed>
  <fix>3d</fix>
</trkpt>
<trkpt lat="40.072842" lon="-105.230575">
  <ele>1586.09</ele>
  <time>2026-08-28T19:06:25Z</time>
  <course>286.19</course>
  <speed>0.0</speed>
  <fix>3d</fix>
</trkpt>
<trkpt lat="40.0728419" lon="-105.2305749">
  <ele>1586.16</ele>
  <time>2026-08-28T19:06:25Z</time>
  <course>11.1</course>
  <speed>0.022360679774997897</speed>
  <fix>3d</fix>
</trkpt>
<trkpt lat="40.072842" lon="-105.230575">
  <ele>1586.09</ele>
  <time>2026-08-28T19:06:25Z</time>
  <course>288.95</course>
  <speed>0.0</speed>
  <fix>3d</fix>
</trkpt>
<trkpt lat="40.0728419" lon="-105.2305749">
  <ele>1586.16</ele>
  <time>2026-08-28T19:06:25Z</time>
  <course>11.1</course>
  <speed>0.022360679774997897</speed>
  <fix>3d</fix>
</trkpt>
<trkpt lat="40.072842" lon="-105.230575">
  <ele>1586.09</ele>
  <time>2026-08-28T19:06:25Z</time>
  <course>287.06</course>
  <speed>0.0</speed>
  <fix>3d</fix>
</trkpt>
<trkpt lat="40.0728419" lon="-105.2305749">
  <ele>1586.16</ele>
  <time>2026-08-28T19:06:25Z</time>
  <course>11.1</course>
  <speed>0.01414213562373095</speed>
  <fix>3d</fix>
</trkpt>
<trkpt lat="40.072842" lon="-105.230575">
  <ele>1586.09</ele>
  <time>2026-08-28T19:06:25Z</time>
  <course>283.76</course>
  <speed>0.0</speed>
  <fix>3d</fix>
</trkpt>
<trkpt lat="40.0728419" lon="-105.2305749">
  <ele>1586.16</ele>
  <time>2026-08-28T19:06:25Z</time>
  <course>11.1</course>
  <speed>0.01414213562373095</speed>
  <fix>3d</fix>
</trkpt>
<trkpt lat="40.072842" lon="-105.230575">
  <ele>1586.09</ele>
  <time>2026-08-28T19:06:25Z</time>
  <course>282.8</course>
  <speed>0.0</speed>
  <fix>3d</fix>
</trkpt>
<trkpt lat="40.0728419" lon="-105.2305749">
  <ele>1586.16</ele>
  <time>2026-08-28T19:06:25Z</time>
  <course>11.1</course>
  <speed>0.01</speed>
  <fix>3d</fix>
</trkpt>
<trkpt lat="40.072842" lon="-105.230575">
  <ele>1586.09</ele>
  <time>2026-08-28T19:06:25Z</time>
  <course>287.21</course>
  <speed>0.0</speed>
  <fix>3d</fix>
</trkpt>
<trkpt lat="40.0728419" lon="-105.2305749">
  <ele>1586.17</ele>
  <time>2026-08-28T19:06:25Z</time>
  <course>11.1</course>
  <speed>0.01</speed>
  <fix>3d</fix>
</trkpt>
<trkpt lat="40.072842" lon="-105.230575">
  <ele>1586.09</ele>
  <time>2026-08-28T19:06:25Z</time>
  <course>286.51</course>
  <speed>0.0</speed>
  <fix>3d</fix>
</trkpt>
<trkpt lat="40.0728419" lon="-105.2305749">
  <ele>1586.17</ele>
  <time>2026-08-28T19:06:26Z</time>
  <course>11.1</course>
  <speed>0.0</speed>
  <fix>3d</fix>
</trkpt>
<trkpt lat="40.072842" lon="-105.230575">
  <ele>1586.09</ele>
  <time>2026-08-28T19:06:26Z</time>
  <course>286.02</course>
  <speed>0.0</speed>
  <fix>3d</fix>
</trkpt>
<trkpt lat="40.0728419" lon="-105.2305749">
  <ele>1586.17</ele>
  <time>2026-08-28T19:06:26Z</time>
  <course>11.1</course>
  <speed>0.0</speed>
  <fix>3d</fix>
</trkpt>
<trkpt lat="40.072842" lon="-105.230575">
  <ele>1586.09</ele>
  <time>2026-08-28T19:06:26Z</time>
  <course>286.17</course>
  <speed>0.0</speed>
  <fix>3d</fix>
</trkpt>
<trkpt lat="40.0728419" lon="-105.2305749">
  <ele>1586.17</ele>
  <time>2026-08-28T19:06:26Z</time>
  <course>11.11</course>
  <speed>0.0</speed>
  <fix>3d</fix>
</trkpt>
<trkpt lat="40.072842" lon="-105.230575">
  <ele>1586.09</ele>
  <time>2026-08-28T19:06:26Z</time>
  <course>286.22</course>
  <speed>0.0</speed>
  <fix>3d</fix>
</trkpt>
<trkpt lat="40.0728419" lon="-105.2305749">
  <ele>1586.17</ele>
  <time>2026-08-28T19:06:26Z</time>
  <course>11.11</course>
  <speed>0.0</speed>
  <fix>3d</fix>
</trkpt>
<trkpt lat="40.072842" lon="-105.230575">
  <ele>1586.09</ele>
  <time>2026-08-28T19:06:26Z</time>
  <course>286.19</course>
  <speed>0.0</speed>
  <fix>3d</fix>
</trkpt>
<trkpt lat="40.0728419" lon="-105.2305749">
  <ele>1586.17</ele>
  <time>2026-08-28T19:06:27Z</time>
  <course>11.11</course>
  <speed>0.0</speed>
  <fix>3d</fix>
</trkpt>
<trkpt lat="40.072842" lon="-105.230575">
  <ele>1586.09</ele>
  <time>2026-08-28T19:06:27Z</time>
  <course>286.19</course>
  <speed>0.0</speed>
  <fix>3d</fix>
</trkpt>
<trkpt lat="40.0728419" lon="-105.2305749">
  <ele>1586.17</ele>
  <time>2026-08-28T19:06:27Z</time>
  <course>11.11</course>
  <speed>0.0</speed>
  <fix>3d</fix>
</trkpt>
<trkpt lat="40.072842" lon="-105.230575">
  <ele>1586.09</ele>
  <time>2026-08-28T19:06:27Z</time>
  <course>286.19</course>
  <speed>0.0</speed>
  <fix>3d</fix>
</trkpt>
<trkpt lat="40.0728419" lon="-105.2305749">
  <ele>1586.17</ele>
  <time>2026-08-28T19:06:27Z</time>
  <course>11.11</course>
  <speed>0.0</speed>
  <fix>3d</fix>
</trkpt>
<trkpt lat="40.072842" lon="-105.230575">
  <ele>1586.09</ele>
  <time>2026-08-28T19:06:27Z</time>
  <course>286.19</course>
  <speed>0.0</speed>
  <fix>3d</fix>
</trkpt>
<trkpt lat="40.0728419" lon="-105.2305749">
  <ele>1586.18</ele>
  <time>2026-08-28T19:06:27Z</time>
  <course>11.11</course>
  <speed>0.0</speed>
  <fix>3d</fix>
</trkpt>
<trkpt lat="40.072842" lon="-105.230575">
  <ele>1586.09</ele>
  <time>2026-08-28T19:06:27Z</time>
  <course>285.35</course>
  <speed>0.0</speed>
  <fix>3d</fix>
</trkpt>
<trkpt lat="40.0728419" lon="-105.2305749">
  <ele>1586.18</ele>
  <time>2026-08-28T19:06:27Z</time>
  <course>11.11</course>
  <speed>0.0</speed>
  <fix>3d</fix>
</trkpt>
<trkpt lat="40.072842" lon="-105.230575">
  <ele>1586.09</ele>
  <time>2026-08-28T19:06:27Z</time>
  <course>271.68</course>
  <speed>0.0</speed>
  <fix>3d</fix>
</trkpt>
<trkpt lat="40.0728419" lon="-105.2305749">
  <ele>1586.18</ele>
  <time>2026-08-28T19:06:27Z</time>
  <course>11.12</course>
  <speed>0.0</speed>
  <fix>3d</fix>
</trkpt>
<trkpt lat="40.072842" lon="-105.230575">
  <ele>1586.09</ele>
  <time>2026-08-28T19:06:27Z</time>
  <course>230.24</course>
  <speed>0.0</speed>
  <fix>3d</fix>
</trkpt>
<trkpt lat="40.0728419" lon="-105.2305749">
  <ele>1586.18</ele>
  <time>2026-08-28T19:06:27Z</time>
  <course>11.12</course>
  <speed>0.0</speed>
  <fix>3d</fix>
</trkpt>
<trkpt lat="40.072842" lon="-105.230575">
  <ele>1586.09</ele>
  <time>2026-08-28T19:06:27Z</time>
  <course>61.62</course>
  <speed>0.0</speed>
  <fix>3d</fix>
</trkpt>
<trkpt lat="40.0728419" lon="-105.2305749">
  <ele>1586.19</ele>
  <time>2026-08-28T19:06:27Z</time>
  <course>11.12</course>
  <speed>0.0</speed>
  <fix>3d</fix>
</trkpt>
<trkpt lat="40.072842" lon="-105.230575">
  <ele>1586.09</ele>
  <time>2026-08-28T19:06:27Z</time>
  <course>291.89</course>
  <speed>0.0</speed>
  <fix>3d</fix>
</trkpt>
<trkpt lat="40.0728419" lon="-105.2305749">
  <ele>1586.18</ele>
  <time>2026-08-28T19:06:27Z</time>
  <course>11.12</course>
  <speed>0.0</speed>
  <fix>3d</fix>
</trkpt>
<trkpt lat="40.072842" lon="-105.230575">
  <ele>1586.09</ele>
  <time>2026-08-28T19:06:27Z</time>
  <course>275.91</course>
  <speed>0.0</speed>
  <fix>3d</fix>
</trkpt>
<trkpt lat="40.0728419" lon="-105.2305749">
  <ele>1586.19</ele>
  <time>2026-08-28T19:06:27Z</time>
  <course>11.12</course>
  <speed>0.0</speed>
  <fix>3d</fix>
</trkpt>
<trkpt lat="40.072842" lon="-105.230575">
  <ele>1586.09</ele>
  <time>2026-08-28T19:06:27Z</time>
  <course>279.83</course>
  <speed>0.0</speed>
  <fix>3d</fix>
</trkpt>
<trkpt lat="40.0728419" lon="-105.2305749">
  <ele>1586.19</ele>
  <time>2026-08-28T19:06:27Z</time>
  <course>11.12</course>
  <speed>0.0</speed>
  <fix>3d</fix>
</trkpt>
<trkpt lat="40.072842" lon="-105.230575">
  <ele>1586.09</ele>
  <time>2026-08-28T19:06:27Z</time>
  <course>281.76</course>
  <speed>0.0</speed>
  <fix>3d</fix>
</trkpt>
<trkpt lat="40.0728419" lon="-105.2305749">
  <ele>1586.19</ele>
  <time>2026-08-28T19:06:27Z</time>
  <course>11.13</course>
  <speed>0.01</speed>
  <fix>3d</fix>
</trkpt>
<trkpt lat="40.072842" lon="-105.230575">
  <ele>1586.09</ele>
  <time>2026-08-28T19:06:27Z</time>
  <course>280.83</course>
  <speed>0.0</speed>
  <fix>3d</fix>
</trkpt>
<trkpt lat="40.0728419" lon="-105.2305749">
  <ele>1586.19</ele>
  <time>2026-08-28T19:06:27Z</time>
  <course>11.13</course>
  <speed>0.01</speed>
  <fix>3d</fix>
</trkpt>
<trkpt lat="40.072842" lon="-105.230575">
  <ele>1586.09</ele>
  <time>2026-08-28T19:06:27Z</time>
  <course>280.69</course>
  <speed>0.0</speed>
  <fix>3d</fix>
</trkpt>
<trkpt lat="40.0728419" lon="-105.2305749">
  <ele>1586.19</ele>
  <time>2026-08-28T19:06:27Z</time>
  <course>11.13</course>
  <speed>0.01</speed>
  <fix>3d</fix>
</trkpt>
<trkpt lat="40.072842" lon="-105.230575">
  <ele>1586.09</ele>
  <time>2026-08-28T19:06:27Z</time>
  <course>280.83</course>
  <speed>0.0</speed>
  <fix>3d</fix>
</trkpt>
<trkpt lat="40.0728419" lon="-105.2305749">
  <ele>1586.19</ele>
  <time>2026-08-28T19:06:27Z</time>
  <course>11.13</course>
  <speed>0.01</speed>
  <fix>3d</fix>
</trkpt>
<trkpt lat="40.072842" lon="-105.230575">
  <ele>1586.09</ele>
  <time>2026-08-28T19:06:27Z</time>
  <course>280.83</course>
  <speed>0.0</speed>
  <fix>3d</fix>
</trkpt>
<trkpt lat="40.0728419" lon="-105.2305749">
  <ele>1586.18</ele>
  <time>2026-08-28T19:06:27Z</time>
  <course>11.13</course>
  <speed>0.01</speed>
  <fix>3d</fix>
</trkpt>
<trkpt lat="40.072842" lon="-105.230575">
  <ele>1586.09</ele>
  <time>2026-08-28T19:06:27Z</time>
  <course>280.81</course>
  <speed>0.0</speed>
  <fix>3d</fix>
</trkpt>
<trkpt lat="40.0728419" lon="-105.2305749">
  <ele>1586.18</ele>
  <time>2026-08-28T19:06:27Z</time>
  <course>11.13</course>
  <speed>0.01</speed>
  <fix>3d</fix>
</trkpt>
<trkpt lat="40.072842" lon="-105.230575">
  <ele>1586.09</ele>
  <time>2026-08-28T19:06:27Z</time>
  <course>280.81</course>
  <speed>0.0</speed>
  <fix>3d</fix>
</trkpt>
<trkpt lat="40.0728419" lon="-105.2305749">
  <ele>1586.19</ele>
  <time>2026-08-28T19:06:27Z</time>
  <course>11.14</course>
  <speed>0.01414213562373095</speed>
  <fix>3d</fix>
</trkpt>
<trkpt lat="40.072842" lon="-105.230575">
  <ele>1586.09</ele>
  <time>2026-08-28T19:06:27Z</time>
  <course>280.81</course>
  <speed>0.0</speed>
  <fix>3d</fix>
</trkpt>
<trkpt lat="40.0728419" lon="-105.2305749">
  <ele>1586.18</ele>
  <time>2026-08-28T19:06:27Z</time>
  <course>11.14</course>
  <speed>0.01414213562373095</speed>
  <fix>3d</fix>
</trkpt>
<trkpt lat="40.072842" lon="-105.230575">
  <ele>1586.09</ele>
  <time>2026-08-28T19:06:27Z</time>
  <course>280.81</course>
  <speed>0.0</speed>
  <fix>3d</fix>
</trkpt>
<trkpt lat="40.0728419" lon="-105.2305749">
  <ele>1586.18</ele>
  <time>2026-08-28T19:06:27Z</time>
  <course>11.14</course>
  <speed>0.01414213562373095</speed>
  <fix>3d</fix>
</trkpt>
<trkpt lat="40.072842" lon="-105.230575">
  <ele>1586.09</ele>
  <time>2026-08-28T19:06:27Z</time>
  <course>280.81</course>
  <speed>0.0</speed>
  <fix>3d</fix>
</trkpt>
<trkpt lat="40.0728419" lon="-105.2305749">
  <ele>1586.18</ele>
  <time>2026-08-28T19:06:27Z</time>
  <course>11.14</course>
  <speed>0.01414213562373095</speed>
  <fix>3d</fix>
</trkpt>
<trkpt lat="40.072842" lon="-105.230575">
  <ele>1586.09</ele>
  <time>2026-08-28T19:06:27Z</time>
  <course>280.81</course>
  <speed>0.0</speed>
  <fix>3d</fix>
</trkpt>
<trkpt lat="40.0728419" lon="-105.2305749">
  <ele>1586.18</ele>
  <time>2026-08-28T19:06:27Z</time>
  <course>11.14</course>
  <speed>0.01414213562373095</speed>
  <fix>3d</fix>
</trkpt>
<trkpt lat="40.072842" lon="-105.230575">
  <ele>1586.09</ele>
  <time>2026-08-28T19:06:27Z</time>
  <course>334.17</course>
  <speed>0.0</speed>
  <fix>3d</fix>
</trkpt>
<trkpt lat="40.0728419" lon="-105.2305749">
  <ele>1586.18</ele>
  <time>2026-08-28T19:06:27Z</time>
  <course>11.15</course>
  <speed>0.01414213562373095</speed>
  <fix>3d</fix>
</trkpt>
<trkpt lat="40.072842" lon="-105.230575">
  <ele>1586.09</ele>
  <time>2026-08-28T19:06:27Z</time>
  <course>322.85</course>
  <speed>0.0</speed>
  <fix>3d</fix>
</trkpt>
<trkpt lat="40.0728419" lon="-105.2305749">
  <ele>1586.18</ele>
  <time>2026-08-28T19:06:27Z</time>
  <course>11.15</course>
  <speed>0.01414213562373095</speed>
  <fix>3d</fix>
</trkpt>
<trkpt lat="40.072842" lon="-105.230575">
  <ele>1586.09</ele>
  <time>2026-08-28T19:06:27Z</time>
  <course>289.69</course>
  <speed>0.0</speed>
  <fix>3d</fix>
</trkpt>
<trkpt lat="40.0728419" lon="-105.2305749">
  <ele>1586.18</ele>
  <time>2026-08-28T19:06:27Z</time>
  <course>11.15</course>
  <speed>0.01414213562373095</speed>
  <fix>3d</fix>
</trkpt>
<trkpt lat="40.072842" lon="-105.230575">
  <ele>1586.09</ele>
  <time>2026-08-28T19:06:27Z</time>
  <course>184.08</course>
  <speed>0.0</speed>
  <fix>3d</fix>
</trkpt>
<trkpt lat="40.0728419" lon="-105.2305749">
  <ele>1586.19</ele>
  <time>2026-08-28T19:06:27Z</time>
  <course>11.15</course>
  <speed>0.01414213562373095</speed>
  <fix>3d</fix>
</trkpt>
<trkpt lat="40.072842" lon="-105.230575">
  <ele>1586.09</ele>
  <time>2026-08-28T19:06:27Z</time>
  <course>299.39</course>
  <speed>0.0</speed>
  <fix>3d</fix>
</trkpt>
<trkpt lat="40.0728419" lon="-105.2305749">
  <ele>1586.19</ele>
  <time>2026-08-28T19:06:27Z</time>
  <course>11.15</course>
  <speed>0.022360679774997897</speed>
  <fix>3d</fix>
</trkpt>
<trkpt lat="40.072842" lon="-105.230575">
  <ele>1586.09</ele>
  <time>2026-08-28T19:06:27Z</time>
  <course>295.69</course>
  <speed>0.0</speed>
  <fix>3d</fix>
</trkpt>
<trkpt lat="40.0728419" lon="-105.2305749">
  <ele>1586.19</ele>
  <time>2026-08-28T19:06:27Z</time>
  <course>11.16</course>
  <speed>0.022360679774997897</speed>
  <fix>3d</fix>
</trkpt>
<trkpt lat="40.072842" lon="-105.230575">
  <ele>1586.09</ele>
  <time>2026-08-28T19:06:27Z</time>
  <course>288.88</course>
  <speed>0.0</speed>
  <fix>3d</fix>
</trkpt>
<trkpt lat="40.0728419" lon="-105.2305749">
  <ele>1586.19</ele>
  <time>2026-08-28T19:06:27Z</time>
  <course>11.16</course>
  <speed>0.022360679774997897</speed>
  <fix>3d</fix>
</trkpt>
<trkpt lat="40.072842" lon="-105.230575">
  <ele>1586.09</ele>
  <time>2026-08-28T19:06:27Z</time>
  <course>289.92</course>
  <speed>0.0</speed>
  <fix>3d</fix>
</trkpt>
<trkpt lat="40.0728419" lon="-105.2305749">
  <ele>1586.19</ele>
  <time>2026-08-28T19:06:27Z</time>
  <course>11.16</course>
  <speed>0.022360679774997897</speed>
  <fix>3d</fix>
</trkpt>
<trkpt lat="40.072842" lon="-105.230575">
  <ele>1586.09</ele>
  <time>2026-08-28T19:06:27Z</time>
  <course>290.86</course>
  <speed>0.0</speed>
  <fix>3d</fix>
</trkpt>
<trkpt lat="40.0728419" lon="-105.2305749">
  <ele>1586.19</ele>
  <time>2026-08-28T19:06:27Z</time>
  <course>11.16</course>
  <speed>0.022360679774997897</speed>
  <fix>3d</fix>
</trkpt>
<trkpt lat="40.072842" lon="-105.230575">
  <ele>1586.09</ele>
  <time>2026-08-28T19:06:27Z</time>
  <course>290.61</course>
  <speed>0.0</speed>
  <fix>3d</fix>
</trkpt>
<trkpt lat="40.0728419" lon="-105.2305749">
  <ele>1586.19</ele>
  <time>2026-08-28T19:06:27Z</time>
  <course>11.16</course>
  <speed>0.022360679774997897</speed>
  <fix>3d</fix>
</trkpt>
<trkpt lat="40.072842" lon="-105.230575">
  <ele>1586.09</ele>
  <time>2026-08-28T19:06:27Z</time>
  <course>290.52</course>
  <speed>0.0</speed>
  <fix>3d</fix>
</trkpt>
<trkpt lat="40.0728419" lon="-105.2305749">
  <ele>1586.18</ele>
  <time>2026-08-28T19:06:27Z</time>
  <course>11.17</course>
  <speed>0.022360679774997897</speed>
  <fix>3d</fix>
</trkpt>
<trkpt lat="40.072842" lon="-105.230575">
  <ele>1586.09</ele>
  <time>2026-08-28T19:06:27Z</time>
  <course>290.56</course>
  <speed>0.0</speed>
  <fix>3d</fix>
</trkpt>
<trkpt lat="40.0728419" lon="-105.2305749">
  <ele>1586.18</ele>
  <time>2026-08-28T19:06:27Z</time>
  <course>11.17</course>
  <speed>0.022360679774997897</speed>
  <fix>3d</fix>
</trkpt>
<trkpt lat="40.072842" lon="-105.230575">
  <ele>1586.09</ele>
  <time>2026-08-28T19:06:27Z</time>
  <course>290.57</course>
  <speed>0.0</speed>
  <fix>3d</fix>
</trkpt>
<trkpt lat="40.0728419" lon="-105.2305749">
  <ele>1586.18</ele>
  <time>2026-08-28T19:06:27Z</time>
  <course>11.17</course>
  <speed>0.022360679774997897</speed>
  <fix>3d</fix>
</trkpt>
<trkpt lat="40.072842" lon="-105.230575">
  <ele>1586.09</ele>
  <time>2026-08-28T19:06:27Z</time>
  <course>290.56</course>
  <speed>0.0</speed>
  <fix>3d</fix>
</trkpt>
<trkpt lat="40.0728419" lon="-105.2305749">
  <ele>1586.18</ele>
  <time>2026-08-28T19:06:27Z</time>
  <course>11.17</course>
  <speed>0.022360679774997897</speed>
  <fix>3d</fix>
</trkpt>
<trkpt lat="40.072842" lon="-105.230575">
  <ele>1586.09</ele>
  <time>2026-08-28T19:06:27Z</time>
  <course>290.56</course>
  <speed>0.0</speed>
  <fix>3d</fix>
</trkpt>
<trkpt lat="40.0728419" lon="-105.2305749">
  <ele>1586.18</ele>
  <time>2026-08-28T19:06:27Z</time>
  <course>11.17</course>
  <speed>0.022360679774997897</speed>
  <fix>3d</fix>
</trkpt>
<trkpt lat="40.072842" lon="-105.230575">
  <ele>1586.09</ele>
  <time>2026-08-28T19:06:27Z</time>
  <course>290.56</course>
  <speed>0.0</speed>
  <fix>3d</fix>
</trkpt>
<trkpt lat="40.0728419" lon="-105.2305749">
  <ele>1586.18</ele>
  <time>2026-08-28T19:06:27Z</time>
  <course>11.18</course>
  <speed>0.022360679774997897</speed>
  <fix>3d</fix>
</trkpt>
<trkpt lat="40.072842" lon="-105.230575">
  <ele>1586.09</ele>
  <time>2026-08-28T19:06:27Z</time>
  <course>290.56</course>
  <speed>0.0</speed>
  <fix>3d</fix>
</trkpt>
<trkpt lat="40.0728419" lon="-105.2305749">
  <ele>1586.18</ele>
  <time>2026-08-28T19:06:27Z</time>
  <course>11.18</course>
  <speed>0.022360679774997897</speed>
  <fix>3d</fix>
</trkpt>
<trkpt lat="40.072842" lon="-105.230575">
  <ele>1586.09</ele>
  <time>2026-08-28T19:06:27Z</time>
  <course>290.56</course>
  <speed>0.0</speed>
  <fix>3d</fix>
</trkpt>
<trkpt lat="40.0728419" lon="-105.2305749">
  <ele>1586.18</ele>
  <time>2026-08-28T19:06:27Z</time>
  <course>11.18</course>
  <speed>0.022360679774997897</speed>
  <fix>3d</fix>
</trkpt>
<trkpt lat="40.072842" lon="-105.230575">
  <ele>1586.09</ele>
  <time>2026-08-28T19:06:27Z</time>
  <course>290.56</course>
  <speed>0.0</speed>
  <fix>3d</fix>
</trkpt>
<trkpt lat="40.0728419" lon="-105.2305749">
  <ele>1586.18</ele>
  <time>2026-08-28T19:06:27Z</time>
  <course>11.18</course>
  <speed>0.022360679774997897</speed>
  <fix>3d</fix>
</trkpt>
<trkpt lat="40.072842" lon="-105.230575">
  <ele>1586.09</ele>
  <time>2026-08-28T19:06:27Z</time>
  <course>290.56</course>
  <speed>0.0</speed>
  <fix>3d</fix>
</trkpt>
<trkpt lat="40.0728419" lon="-105.2305749">
  <ele>1586.19</ele>
  <time>2026-08-28T19:06:27Z</time>
  <course>11.18</course>
  <speed>0.022360679774997897</speed>
  <fix>3d</fix>
</trkpt>
<trkpt lat="40.072842" lon="-105.230575">
  <ele>1586.09</ele>
  <time>2026-08-28T19:06:27Z</time>
  <course>290.56</course>
  <speed>0.0</speed>
  <fix>3d</fix>
</trkpt>
<trkpt lat="40.0728419" lon="-105.2305749">
  <ele>1586.19</ele>
  <time>2026-08-28T19:06:27Z</time>
  <course>11.19</course>
  <speed>0.022360679774997897</speed>
  <fix>3d</fix>
</trkpt>
<trkpt lat="40.072842" lon="-105.230575">
  <ele>1586.09</ele>
  <time>2026-08-28T19:06:27Z</time>
  <course>290.56</course>
  <speed>0.0</speed>
  <fix>3d</fix>
</trkpt>
<trkpt lat="40.0728419" lon="-105.2305749">
  <ele>1586.19</ele>
  <time>2026-08-28T19:06:27Z</time>
  <course>11.19</course>
  <speed>0.022360679774997897</speed>
  <fix>3d</fix>
</trkpt>
<trkpt lat="40.072842" lon="-105.230575">
  <ele>1586.09</ele>
  <time>2026-08-28T19:06:27Z</time>
  <course>290.56</course>
  <speed>0.0</speed>
  <fix>3d</fix>
</trkpt>
<trkpt lat="40.0728419" lon="-105.2305749">
  <ele>1586.2</ele>
  <time>2026-08-28T19:06:27Z</time>
  <course>11.19</course>
  <speed>0.022360679774997897</speed>
  <fix>3d</fix>
</trkpt>
<trkpt lat="40.072842" lon="-105.230575">
  <ele>1586.09</ele>
  <time>2026-08-28T19:06:27Z</time>
  <course>290.56</course>
  <speed>0.0</speed>
  <fix>3d</fix>
</trkpt>
<trkpt lat="40.0728419" lon="-105.2305749">
  <ele>1586.19</ele>
  <time>2026-08-28T19:06:27Z</time>
  <course>11.19</course>
  <speed>0.022360679774997897</speed>
  <fix>3d</fix>
</trkpt>
<trkpt lat="40.072842" lon="-105.230575">
  <ele>1586.09</ele>
  <time>2026-08-28T19:06:27Z</time>
  <course>290.56</course>
  <speed>0.0</speed>
  <fix>3d</fix>
</trkpt>
<trkpt lat="40.0728419" lon="-105.2305749">
  <ele>1586.19</ele>
  <time>2026-08-28T19:06:27Z</time>
  <course>11.19</course>
  <speed>0.022360679774997897</speed>
  <fix>3d</fix>
</trkpt>
<trkpt lat="40.072842" lon="-105.230575">
  <ele>1586.09</ele>
  <time>2026-08-28T19:06:27Z</time>
  <course>290.56</course>
  <speed>0.0</speed>
  <fix>3d</fix>
</trkpt>
<trkpt lat="40.0728419" lon="-105.2305749">
  <ele>1586.19</ele>
  <time>2026-08-28T19:06:27Z</time>
  <course>11.2</course>
  <speed>0.022360679774997897</speed>
  <fix>3d</fix>
</trkpt>
<trkpt lat="40.072842" lon="-105.230575">
  <ele>1586.09</ele>
  <time>2026-08-28T19:06:27Z</time>
  <course>290.56</course>
  <speed>0.0</speed>
  <fix>3d</fix>
</trkpt>
<trkpt lat="40.0728419" lon="-105.2305749">
  <ele>1586.19</ele>
  <time>2026-08-28T19:06:27Z</time>
  <course>11.2</course>
  <speed>0.022360679774997897</speed>
  <fix>3d</fix>
</trkpt>
<trkpt lat="40.072842" lon="-105.230575">
  <ele>1586.09</ele>
  <time>2026-08-28T19:06:27Z</time>
  <course>290.56</course>
  <speed>0.0</speed>
  <fix>3d</fix>
</trkpt>
<trkpt lat="40.0728419" lon="-105.2305749">
  <ele>1586.19</ele>
  <time>2026-08-28T19:06:27Z</time>
  <course>11.2</course>
  <speed>0.022360679774997897</speed>
  <fix>3d</fix>
</trkpt>
<trkpt lat="40.072842" lon="-105.230575">
  <ele>1586.09</ele>
  <time>2026-08-28T19:06:27Z</time>
  <course>290.56</course>
  <speed>0.0</speed>
  <fix>3d</fix>
</trkpt>
<trkpt lat="40.0728419" lon="-105.2305749">
  <ele>1586.2</ele>
  <time>2026-08-28T19:06:27Z</time>
  <course>11.2</course>
  <speed>0.022360679774997897</speed>
  <fix>3d</fix>
</trkpt>
<trkpt lat="40.072842" lon="-105.230575">
  <ele>1586.09</ele>
  <time>2026-08-28T19:06:27Z</time>
  <course>290.56</course>
  <speed>0.0</speed>
  <fix>3d</fix>
</trkpt>
<trkpt lat="40.0728419" lon="-105.2305749">
  <ele>1586.2</ele>
  <time>2026-08-28T19:06:27Z</time>
  <course>11.2</course>
  <speed>0.022360679774997897</speed>
  <fix>3d</fix>
</trkpt>
<trkpt lat="40.072842" lon="-105.230575">
  <ele>1586.09</ele>
  <time>2026-08-28T19:06:27Z</time>
  <course>290.56</course>
  <speed>0.0</speed>
  <fix>3d</fix>
</trkpt>
<trkpt lat="40.0728419" lon="-105.2305749">
  <ele>1586.2</ele>
  <time>2026-08-28T19:06:27Z</time>
  <course>11.2</course>
  <speed>0.022360679774997897</speed>
  <fix>3d</fix>
</trkpt>
<trkpt lat="40.072842" lon="-105.230575">
  <ele>1586.09</ele>
  <time>2026-08-28T19:06:27Z</time>
  <course>290.56</course>
  <speed>0.0</speed>
  <fix>3d</fix>
</trkpt>
<trkpt lat="40.0728419" lon="-105.2305749">
  <ele>1586.2</ele>
  <time>2026-08-28T19:06:27Z</time>
  <course>11.21</course>
  <speed>0.022360679774997897</speed>
  <fix>3d</fix>
</trkpt>
<trkpt lat="40.072842" lon="-105.230575">
  <ele>1586.09</ele>
  <time>2026-08-28T19:06:27Z</time>
  <course>290.56</course>
  <speed>0.0</speed>
  <fix>3d</fix>
</trkpt>
<trkpt lat="40.0728419" lon="-105.2305749">
  <ele>1586.2</ele>
  <time>2026-08-28T19:06:27Z</time>
  <course>11.21</course>
  <speed>0.022360679774997897</speed>
  <fix>3d</fix>
</trkpt>
<trkpt lat="40.072842" lon="-105.230575">
  <ele>1586.09</ele>
  <time>2026-08-28T19:06:27Z</time>
  <course>290.56</course>
  <speed>0.0</speed>
  <fix>3d</fix>
</trkpt>
<trkpt lat="40.0728419" lon="-105.2305749">
  <ele>1586.2</ele>
  <time>2026-08-28T19:06:27Z</time>
  <course>11.21</course>
  <speed>0.022360679774997897</speed>
  <fix>3d</fix>
</trkpt>
<trkpt lat="40.072842" lon="-105.230575">
  <ele>1586.09</ele>
  <time>2026-08-28T19:06:27Z</time>
  <course>290.56</course>
  <speed>0.0</speed>
  <fix>3d</fix>
</trkpt>
<trkpt lat="40.0728419" lon="-105.2305749">
  <ele>1586.2</ele>
  <time>2026-08-28T19:06:27Z</time>
  <course>11.21</course>
  <speed>0.022360679774997897</speed>
  <fix>3d</fix>
</trkpt>
<trkpt lat="40.072842" lon="-105.230575">
  <ele>1586.09</ele>
  <time>2026-08-28T19:06:27Z</time>
  <course>290.56</course>
  <speed>0.0</speed>
  <fix>3d</fix>
</trkpt>
<trkpt lat="40.0728419" lon="-105.2305749">
  <ele>1586.2</ele>
  <time>2026-08-28T19:06:27Z</time>
  <course>11.21</course>
  <speed>0.022360679774997897</speed>
  <fix>3d</fix>
</trkpt>
<trkpt lat="40.072842" lon="-105.230575">
  <ele>1586.09</ele>
  <time>2026-08-28T19:06:27Z</time>
  <course>290.56</course>
  <speed>0.0</speed>
  <fix>3d</fix>
</trkpt>
<trkpt lat="40.0728419" lon="-105.2305749">
  <ele>1586.2</ele>
  <time>2026-08-28T19:06:27Z</time>
  <course>11.22</course>
  <speed>0.022360679774997897</speed>
  <fix>3d</fix>
</trkpt>
<trkpt lat="40.072842" lon="-105.230575">
  <ele>1586.09</ele>
  <time>2026-08-28T19:06:27Z</time>
  <course>290.56</course>
  <speed>0.0</speed>
  <fix>3d</fix>
</trkpt>
<trkpt lat="40.0728419" lon="-105.2305749">
  <ele>1586.2</ele>
  <time>2026-08-28T19:06:27Z</time>
  <course>11.22</course>
  <speed>0.022360679774997897</speed>
  <fix>3d</fix>
</trkpt>
<trkpt lat="40.072842" lon="-105.230575">
  <ele>1586.09</ele>
  <time>2026-08-28T19:06:27Z</time>
  <course>290.56</course>
  <speed>0.0</speed>
  <fix>3d</fix>
</trkpt>
<trkpt lat="40.0728419" lon="-105.2305749">
  <ele>1586.2</ele>
  <time>2026-08-28T19:06:27Z</time>
  <course>11.22</course>
  <speed>0.022360679774997897</speed>
  <fix>3d</fix>
</trkpt>
<trkpt lat="40.072842" lon="-105.230575">
  <ele>1586.09</ele>
  <time>2026-08-28T19:06:27Z</time>
  <course>290.56</course>
  <speed>0.0</speed>
  <fix>3d</fix>
</trkpt>
<trkpt lat="40.0728419" lon="-105.2305749">
  <ele>1586.2</ele>
  <time>2026-08-28T19:06:27Z</time>
  <course>11.22</course>
  <speed>0.022360679774997897</speed>
  <fix>3d</fix>
</trkpt>
<trkpt lat="40.072842" lon="-105.230575">
  <ele>1586.09</ele>
  <time>2026-08-28T19:06:27Z</time>
  <course>290.56</course>
  <speed>0.0</speed>
  <fix>3d</fix>
</trkpt>
<trkpt lat="40.0728419" lon="-105.2305749">
  <ele>1586.19</ele>
  <time>2026-08-28T19:06:27Z</time>
  <course>11.22</course>
  <speed>0.022360679774997897</speed>
  <fix>3d</fix>
</trkpt>
<trkpt lat="40.072842" lon="-105.230575">
  <ele>1586.09</ele>
  <time>2026-08-28T19:06:27Z</time>
  <course>290.56</course>
  <speed>0.0</speed>
  <fix>3d</fix>
</trkpt>
<trkpt lat="40.0728419" lon="-105.2305749">
  <ele>1586.19</ele>
  <time>2026-08-28T19:06:27Z</time>
  <course>11.22</course>
  <speed>0.022360679774997897</speed>
  <fix>3d</fix>
</trkpt>
<trkpt lat="40.072842" lon="-105.230575">
  <ele>1586.09</ele>
  <time>2026-08-28T19:06:27Z</time>
  <course>290.56</course>
  <speed>0.0</speed>
  <fix>3d</fix>
</trkpt>
<trkpt lat="40.0728419" lon="-105.2305749">
  <ele>1586.19</ele>
  <time>2026-08-28T19:06:27Z</time>
  <course>11.23</course>
  <speed>0.022360679774997897</speed>
  <fix>3d</fix>
</trkpt>
<trkpt lat="40.072842" lon="-105.230575">
  <ele>1586.09</ele>
  <time>2026-08-28T19:06:27Z</time>
  <course>290.56</course>
  <speed>0.0</speed>
  <fix>3d</fix>
</trkpt>
<trkpt lat="40.0728419" lon="-105.2305749">
  <ele>1586.18</ele>
  <time>2026-08-28T19:06:27Z</time>
  <course>11.23</course>
  <speed>0.022360679774997897</speed>
  <fix>3d</fix>
</trkpt>
<trkpt lat="40.072842" lon="-105.230575">
  <ele>1586.09</ele>
  <time>2026-08-28T19:06:27Z</time>
  <course>290.56</course>
  <speed>0.0</speed>
  <fix>3d</fix>
</trkpt>
<trkpt lat="40.0728419" lon="-105.2305749">
  <ele>1586.18</ele>
  <time>2026-08-28T19:06:27Z</time>
  <course>11.23</course>
  <speed>0.022360679774997897</speed>
  <fix>3d</fix>
</trkpt>
<trkpt lat="40.072842" lon="-105.230575">
  <ele>1586.09</ele>
  <time>2026-08-28T19:06:27Z</time>
  <course>290.56</course>
  <speed>0.0</speed>
  <fix>3d</fix>
</trkpt>
<trkpt lat="40.0728419" lon="-105.2305749">
  <ele>1586.18</ele>
  <time>2026-08-28T19:06:27Z</time>
  <course>11.23</course>
  <speed>0.022360679774997897</speed>
  <fix>3d</fix>
</trkpt>
<trkpt lat="40.072842" lon="-105.230575">
  <ele>1586.09</ele>
  <time>2026-08-28T19:06:27Z</time>
  <course>290.56</course>
  <speed>0.0</speed>
  <fix>3d</fix>
</trkpt>
<trkpt lat="40.0728419" lon="-105.2305749">
  <ele>1586.18</ele>
  <time>2026-08-28T19:06:27Z</time>
  <course>11.23</course>
  <speed>0.022360679774997897</speed>
  <fix>3d</fix>
</trkpt>
<trkpt lat="40.072842" lon="-105.230575">
  <ele>1586.09</ele>
  <time>2026-08-28T19:06:27Z</time>
  <course>290.56</course>
  <speed>0.0</speed>
  <fix>3d</fix>
</trkpt>
<trkpt lat="40.0728419" lon="-105.2305749">
  <ele>1586.19</ele>
  <time>2026-08-28T19:06:27Z</time>
  <course>11.23</course>
  <speed>0.022360679774997897</speed>
  <fix>3d</fix>
</trkpt>
<trkpt lat="40.072842" lon="-105.230575">
  <ele>1586.09</ele>
  <time>2026-08-28T19:06:27Z</time>
  <course>290.56</course>
  <speed>0.0</speed>
  <fix>3d</fix>
</trkpt>
<trkpt lat="40.0728419" lon="-105.2305749">
  <ele>1586.19</ele>
  <time>2026-08-28T19:06:27Z</time>
  <course>11.24</course>
  <speed>0.022360679774997897</speed>
  <fix>3d</fix>
</trkpt>
<trkpt lat="40.072842" lon="-105.230575">
  <ele>1586.09</ele>
  <time>2026-08-28T19:06:27Z</time>
  <course>290.56</course>
  <speed>0.0</speed>
  <fix>3d</fix>
</trkpt>
<trkpt lat="40.0728419" lon="-105.2305749">
  <ele>1586.2</ele>
  <time>2026-08-28T19:06:27Z</time>
  <course>11.24</course>
  <speed>0.022360679774997897</speed>
  <fix>3d</fix>
</trkpt>
<trkpt lat="40.072842" lon="-105.230575">
  <ele>1586.09</ele>
  <time>2026-08-28T19:06:27Z</time>
  <course>290.56</course>
  <speed>0.0</speed>
  <fix>3d</fix>
</trkpt>
<trkpt lat="40.0728419" lon="-105.2305749">
  <ele>1586.2</ele>
  <time>2026-08-28T19:06:27Z</time>
  <course>11.24</course>
  <speed>0.022360679774997897</speed>
  <fix>3d</fix>
</trkpt>
<trkpt lat="40.072842" lon="-105.230575">
  <ele>1586.09</ele>
  <time>2026-08-28T19:06:27Z</time>
  <course>290.56</course>
  <speed>0.0</speed>
  <fix>3d</fix>
</trkpt>
<trkpt lat="40.0728419" lon="-105.2305749">
  <ele>1586.2</ele>
  <time>2026-08-28T19:06:27Z</time>
  <course>11.24</course>
  <speed>0.022360679774997897</speed>
  <fix>3d</fix>
</trkpt>
<trkpt lat="40.072842" lon="-105.230575">
  <ele>1586.09</ele>
  <time>2026-08-28T19:06:27Z</time>
  <course>290.56</course>
  <speed>0.0</speed>
  <fix>3d</fix>
</trkpt>
<trkpt lat="40.0728419" lon="-105.2305749">
  <ele>1586.2</ele>
  <time>2026-08-28T19:06:27Z</time>
  <course>11.24</course>
  <speed>0.022360679774997897</speed>
  <fix>3d</fix>
</trkpt>
<trkpt lat="40.072842" lon="-105.230575">
  <ele>1586.09</ele>
  <time>2026-08-28T19:06:27Z</time>
  <course>290.56</course>
  <speed>0.0</speed>
  <fix>3d</fix>
</trkpt>
<trkpt lat="40.0728419" lon="-105.2305749">
  <ele>1586.19</ele>
  <time>2026-08-28T19:06:27Z</time>
  <course>11.24</course>
  <speed>0.022360679774997897</speed>
  <fix>3d</fix>
</trkpt>
<trkpt lat="40.072842" lon="-105.230575">
  <ele>1586.09</ele>
  <time>2026-08-28T19:06:27Z</time>
  <course>290.56</course>
  <speed>0.0</speed>
  <fix>3d</fix>
</trkpt>
<trkpt lat="40.0728419" lon="-105.2305749">
  <ele>1586.18</ele>
  <time>2026-08-28T19:06:27Z</time>
  <course>11.24</course>
  <speed>0.022360679774997897</speed>
  <fix>3d</fix>
</trkpt>
<trkpt lat="40.072842" lon="-105.230575">
  <ele>1586.09</ele>
  <time>2026-08-28T19:06:27Z</time>
  <course>290.56</course>
  <speed>0.0</speed>
  <fix>3d</fix>
</trkpt>
<trkpt lat="40.0728419" lon="-105.2305749">
  <ele>1586.18</ele>
  <time>2026-08-28T19:06:27Z</time>
  <course>11.25</course>
  <speed>0.022360679774997897</speed>
  <fix>3d</fix>
</trkpt>
<trkpt lat="40.072842" lon="-105.230575">
  <ele>1586.09</ele>
  <time>2026-08-28T19:06:27Z</time>
  <course>290.56</course>
  <speed>0.0</speed>
  <fix>3d</fix>
</trkpt>
<trkpt lat="40.0728419" lon="-105.2305749">
  <ele>1586.18</ele>
  <time>2026-08-28T19:06:27Z</time>
  <course>11.25</course>
  <speed>0.022360679774997897</speed>
  <fix>3d</fix>
</trkpt>
<trkpt lat="40.072842" lon="-105.230575">
  <ele>1586.09</ele>
  <time>2026-08-28T19:06:27Z</time>
  <course>290.56</course>
  <speed>0.0</speed>
  <fix>3d</fix>
</trkpt>
<trkpt lat="40.0728419" lon="-105.2305749">
  <ele>1586.18</ele>
  <time>2026-08-28T19:06:27Z</time>
  <course>11.25</course>
  <speed>0.022360679774997897</speed>
  <fix>3d</fix>
</trkpt>
<trkpt lat="40.072842" lon="-105.230575">
  <ele>1586.09</ele>
  <time>2026-08-28T19:06:27Z</time>
  <course>290.56</course>
  <speed>0.0</speed>
  <fix>3d</fix>
</trkpt>
<trkpt lat="40.0728419" lon="-105.2305749">
  <ele>1586.18</ele>
  <time>2026-08-28T19:06:27Z</time>
  <course>11.25</course>
  <speed>0.022360679774997897</speed>
  <fix>3d</fix>
</trkpt>
<trkpt lat="40.072842" lon="-105.230575">
  <ele>1586.09</ele>
  <time>2026-08-28T19:06:27Z</time>
  <course>290.56</course>
  <speed>0.0</speed>
  <fix>3d</fix>
</trkpt>
<trkpt lat="40.0728419" lon="-105.2305749">
  <ele>1586.18</ele>
  <time>2026-08-28T19:06:27Z</time>
  <course>11.25</course>
  <speed>0.022360679774997897</speed>
  <fix>3d</fix>
</trkpt>
<trkpt lat="40.072842" lon="-105.230575">
  <ele>1586.09</ele>
  <time>2026-08-28T19:06:27Z</time>
  <course>290.56</course>
  <speed>0.0</speed>
  <fix>3d</fix>
</trkpt>
<trkpt lat="40.0728419" lon="-105.2305749">
  <ele>1586.18</ele>
  <time>2026-08-28T19:06:27Z</time>
  <course>11.25</course>
  <speed>0.022360679774997897</speed>
  <fix>3d</fix>
</trkpt>
<trkpt lat="40.072842" lon="-105.230575">
  <ele>1586.09</ele>
  <time>2026-08-28T19:06:27Z</time>
  <course>290.56</course>
  <speed>0.0</speed>
  <fix>3d</fix>
</trkpt>
<trkpt lat="40.0728419" lon="-105.2305749">
  <ele>1586.18</ele>
  <time>2026-08-28T19:06:27Z</time>
  <course>11.26</course>
  <speed>0.022360679774997897</speed>
  <fix>3d</fix>
</trkpt>
<trkpt lat="40.072842" lon="-105.230575">
  <ele>1586.09</ele>
  <time>2026-08-28T19:06:27Z</time>
  <course>290.56</course>
  <speed>0.0</speed>
  <fix>3d</fix>
</trkpt>
<trkpt lat="40.0728419" lon="-105.2305749">
  <ele>1586.19</ele>
  <time>2026-08-28T19:06:27Z</time>
  <course>11.26</course>
  <speed>0.022360679774997897</speed>
  <fix>3d</fix>
</trkpt>
<trkpt lat="40.072842" lon="-105.230575">
  <ele>1586.09</ele>
  <time>2026-08-28T19:06:27Z</time>
  <course>290.56</course>
  <speed>0.0</speed>
  <fix>3d</fix>
</trkpt>
<trkpt lat="40.0728419" lon="-105.2305749">
  <ele>1586.19</ele>
  <time>2026-08-28T19:06:27Z</time>
  <course>11.26</course>
  <speed>0.022360679774997897</speed>
  <fix>3d</fix>
</trkpt>
<trkpt lat="40.072842" lon="-105.230575">
  <ele>1586.09</ele>
  <time>2026-08-28T19:06:27Z</time>
  <course>290.56</course>
  <speed>0.0</speed>
  <fix>3d</fix>
</trkpt>
<trkpt lat="40.0728419" lon="-105.2305749">
  <ele>1586.19</ele>
  <time>2026-08-28T19:06:27Z</time>
  <course>11.26</course>
  <speed>0.022360679774997897</speed>
  <fix>3d</fix>
</trkpt>
<trkpt lat="40.072842" lon="-105.230575">
  <ele>1586.09</ele>
  <time>2026-08-28T19:06:27Z</time>
  <course>290.56</course>
  <speed>0.0</speed>
  <fix>3d</fix>
</trkpt>
<trkpt lat="40.0728419" lon="-105.2305749">
  <ele>1586.19</ele>
  <time>2026-08-28T19:06:27Z</time>
  <course>11.26</course>
  <speed>0.022360679774997897</speed>
  <fix>3d</fix>
</trkpt>
<trkpt lat="40.072842" lon="-105.230575">
  <ele>1586.09</ele>
  <time>2026-08-28T19:06:27Z</time>
  <course>290.56</course>
  <speed>0.0</speed>
  <fix>3d</fix>
</trkpt>
<trkpt lat="40.0728419" lon="-105.2305749">
  <ele>1586.18</ele>
  <time>2026-08-28T19:06:27Z</time>
  <course>11.26</course>
  <speed>0.022360679774997897</speed>
  <fix>3d</fix>
</trkpt>
<trkpt lat="40.072842" lon="-105.230575">
  <ele>1586.09</ele>
  <time>2026-08-28T19:06:27Z</time>
  <course>290.56</course>
  <speed>0.0</speed>
  <fix>3d</fix>
</trkpt>
<trkpt lat="40.0728419" lon="-105.2305749">
  <ele>1586.18</ele>
  <time>2026-08-28T19:06:27Z</time>
  <course>11.26</course>
  <speed>0.022360679774997897</speed>
  <fix>3d</fix>
</trkpt>
<trkpt lat="40.072842" lon="-105.230575">
  <ele>1586.09</ele>
  <time>2026-08-28T19:06:27Z</time>
  <course>290.56</course>
  <speed>0.0</speed>
  <fix>3d</fix>
</trkpt>
<trkpt lat="40.0728419" lon="-105.2305749">
  <ele>1586.18</ele>
  <time>2026-08-28T19:06:27Z</time>
  <course>11.26</course>
  <speed>0.022360679774997897</speed>
  <fix>3d</fix>
</trkpt>
<trkpt lat="40.072842" lon="-105.230575">
  <ele>1586.09</ele>
  <time>2026-08-28T19:06:27Z</time>
  <course>290.56</course>
  <speed>0.0</speed>
  <fix>3d</fix>
</trkpt>
<trkpt lat="40.0728419" lon="-105.2305749">
  <ele>1586.19</ele>
  <time>2026-08-28T19:06:27Z</time>
  <course>11.27</course>
  <speed>0.022360679774997897</speed>
  <fix>3d</fix>
</trkpt>
<trkpt lat="40.072842" lon="-105.230575">
  <ele>1586.09</ele>
  <time>2026-08-28T19:06:27Z</time>
  <course>290.56</course>
  <speed>0.0</speed>
  <fix>3d</fix>
</trkpt>
<trkpt lat="40.0728419" lon="-105.2305749">
  <ele>1586.19</ele>
  <time>2026-08-28T19:06:27Z</time>
  <course>11.27</course>
  <speed>0.022360679774997897</speed>
  <fix>3d</fix>
</trkpt>
<trkpt lat="40.072842" lon="-105.230575">
  <ele>1586.09</ele>
  <time>2026-08-28T19:06:27Z</time>
  <course>190.07</course>
  <speed>0.0</speed>
  <fix>3d</fix>
</trkpt>
<trkpt lat="40.0728419" lon="-105.2305749">
  <ele>1586.19</ele>
  <time>2026-08-28T19:06:27Z</time>
  <course>11.27</course>
  <speed>0.022360679774997897</speed>
  <fix>3d</fix>
</trkpt>
<trkpt lat="40.072842" lon="-105.230575">
  <ele>1586.09</ele>
  <time>2026-08-28T19:06:27Z</time>
  <course>206.0</course>
  <speed>0.0</speed>
  <fix>3d</fix>
</trkpt>
<trkpt lat="40.0728419" lon="-105.2305749">
  <ele>1586.19</ele>
  <time>2026-08-28T19:06:27Z</time>
  <course>11.27</course>
  <speed>0.022360679774997897</speed>
  <fix>3d</fix>
</trkpt>
<trkpt lat="40.072842" lon="-105.230575">
  <ele>1586.09</ele>
  <time>2026-08-28T19:06:27Z</time>
  <course>194.05</course>
  <speed>0.0</speed>
  <fix>3d</fix>
</trkpt>
<trkpt lat="40.0728419" lon="-105.2305749">
  <ele>1586.19</ele>
  <time>2026-08-28T19:06:27Z</time>
  <course>11.27</course>
  <speed>0.022360679774997897</speed>
  <fix>3d</fix>
</trkpt>
<trkpt lat="40.072842" lon="-105.230575">
  <ele>1586.09</ele>
  <time>2026-08-28T19:06:27Z</time>
  <course>164.32</course>
  <speed>0.0</speed>
  <fix>3d</fix>
</trkpt>
<trkpt lat="40.0728419" lon="-105.2305749">
  <ele>1586.19</ele>
  <time>2026-08-28T19:06:27Z</time>
  <course>11.27</course>
  <speed>0.022360679774997897</speed>
  <fix>3d</fix>
</trkpt>
<trkpt lat="40.072842" lon="-105.230575">
  <ele>1586.09</ele>
  <time>2026-08-28T19:06:27Z</time>
  <course>9.95</course>
  <speed>0.0</speed>
  <fix>3d</fix>
</trkpt>
<trkpt lat="40.0728419" lon="-105.2305749">
  <ele>1586.19</ele>
  <time>2026-08-28T19:06:27Z</time>
  <course>11.27</course>
  <speed>0.022360679774997897</speed>
  <fix>3d</fix>
</trkpt>
<trkpt lat="40.072842" lon="-105.230575">
  <ele>1586.09</ele>
  <time>2026-08-28T19:06:27Z</time>
  <course>274.52</course>
  <speed>0.0</speed>
  <fix>3d</fix>
</trkpt>
<trkpt lat="40.0728419" lon="-105.2305749">
  <ele>1586.18</ele>
  <time>2026-08-28T19:06:27Z</time>
  <course>11.27</course>
  <speed>0.022360679774997897</speed>
  <fix>3d</fix>
</trkpt>
<trkpt lat="40.072842" lon="-105.230575">
  <ele>1586.09</ele>
  <time>2026-08-28T19:06:27Z</time>
  <course>227.23</course>
  <speed>0.0</speed>
  <fix>3d</fix>
</trkpt>
<trkpt lat="40.0728419" lon="-105.2305749">
  <ele>1586.18</ele>
  <time>2026-08-28T19:06:27Z</time>
  <course>11.28</course>
  <speed>0.022360679774997897</speed>
  <fix>3d</fix>
</trkpt>
<trkpt lat="40.072842" lon="-105.230575">
  <ele>1586.09</ele>
  <time>2026-08-28T19:06:27Z</time>
  <course>241.74</course>
  <speed>0.0</speed>
  <fix>3d</fix>
</trkpt>
<trkpt lat="40.0728419" lon="-105.2305749">
  <ele>1586.18</ele>
  <time>2026-08-28T19:06:27Z</time>
  <course>11.28</course>
  <speed>0.022360679774997897</speed>
  <fix>3d</fix>
</trkpt>
<trkpt lat="40.072842" lon="-105.230575">
  <ele>1586.09</ele>
  <time>2026-08-28T19:06:27Z</time>
  <course>248.79</course>
  <speed>0.0</speed>
  <fix>3d</fix>
</trkpt>
<trkpt lat="40.0728419" lon="-105.2305749">
  <ele>1586.18</ele>
  <time>2026-08-28T19:06:27Z</time>
  <course>11.28</course>
  <speed>0.022360679774997897</speed>
  <fix>3d</fix>
</trkpt>
<trkpt lat="40.072842" lon="-105.230575">
  <ele>1586.09</ele>
  <time>2026-08-28T19:06:27Z</time>
  <course>245.01</course>
  <speed>0.0</speed>
  <fix>3d</fix>
</trkpt>
<trkpt lat="40.0728419" lon="-105.2305749">
  <ele>1586.18</ele>
  <time>2026-08-28T19:06:27Z</time>
  <course>11.28</course>
  <speed>0.022360679774997897</speed>
  <fix>3d</fix>
</trkpt>
<trkpt lat="40.072842" lon="-105.230575">
  <ele>1586.09</ele>
  <time>2026-08-28T19:06:27Z</time>
  <course>244.55</course>
  <speed>0.0</speed>
  <fix>3d</fix>
</trkpt>
<trkpt lat="40.0728419" lon="-105.2305749">
  <ele>1586.19</ele>
  <time>2026-08-28T19:06:27Z</time>
  <course>11.28</course>
  <speed>0.022360679774997897</speed>
  <fix>3d</fix>
</trkpt>
<trkpt lat="40.072842" lon="-105.230575">
  <ele>1586.09</ele>
  <time>2026-08-28T19:06:27Z</time>
  <course>245.1</course>
  <speed>0.0</speed>
  <fix>3d</fix>
</trkpt>
<trkpt lat="40.0728419" lon="-105.2305749">
  <ele>1586.19</ele>
  <time>2026-08-28T19:06:27Z</time>
  <course>11.28</course>
  <speed>0.022360679774997897</speed>
  <fix>3d</fix>
</trkpt>
<trkpt lat="40.072842" lon="-105.230575">
  <ele>1586.09</ele>
  <time>2026-08-28T19:06:27Z</time>
  <course>245.09</course>
  <speed>0.0</speed>
  <fix>3d</fix>
</trkpt>
<trkpt lat="40.0728419" lon="-105.2305749">
  <ele>1586.2</ele>
  <time>2026-08-28T19:06:27Z</time>
  <course>11.28</course>
  <speed>0.022360679774997897</speed>
  <fix>3d</fix>
</trkpt>
<trkpt lat="40.072842" lon="-105.230575">
  <ele>1586.09</ele>
  <time>2026-08-28T19:06:27Z</time>
  <course>245.02</course>
  <speed>0.0</speed>
  <fix>3d</fix>
</trkpt>
<trkpt lat="40.0728419" lon="-105.2305749">
  <ele>1586.19</ele>
  <time>2026-08-28T19:06:27Z</time>
  <course>11.28</course>
  <speed>0.022360679774997897</speed>
  <fix>3d</fix>
</trkpt>
<trkpt lat="40.072842" lon="-105.230575">
  <ele>1586.09</ele>
  <time>2026-08-28T19:06:27Z</time>
  <course>245.03</course>
  <speed>0.0</speed>
  <fix>3d</fix>
</trkpt>
<trkpt lat="40.0728419" lon="-105.2305749">
  <ele>1586.19</ele>
  <time>2026-08-28T19:06:27Z</time>
  <course>11.29</course>
  <speed>0.022360679774997897</speed>
  <fix>3d</fix>
</trkpt>
<trkpt lat="40.072842" lon="-105.230575">
  <ele>1586.09</ele>
  <time>2026-08-28T19:06:27Z</time>
  <course>266.05</course>
  <speed>0.0</speed>
  <fix>3d</fix>
</trkpt>
<trkpt lat="40.0728419" lon="-105.2305749">
  <ele>1586.19</ele>
  <time>2026-08-28T19:06:27Z</time>
  <course>11.29</course>
  <speed>0.022360679774997897</speed>
  <fix>3d</fix>
</trkpt>
<trkpt lat="40.072842" lon="-105.230575">
  <ele>1586.09</ele>
  <time>2026-08-28T19:06:27Z</time>
  <course>252.24</course>
  <speed>0.0</speed>
  <fix>3d</fix>
</trkpt>
<trkpt lat="40.0728419" lon="-105.2305749">
  <ele>1586.19</ele>
  <time>2026-08-28T19:06:27Z</time>
  <course>11.29</course>
  <speed>0.022360679774997897</speed>
  <fix>3d</fix>
</trkpt>
<trkpt lat="40.072842" lon="-105.230575">
  <ele>1586.09</ele>
  <time>2026-08-28T19:06:27Z</time>
  <course>241.83</course>
  <speed>0.0</speed>
  <fix>3d</fix>
</trkpt>
<trkpt lat="40.0728419" lon="-105.2305749">
  <ele>1586.19</ele>
  <time>2026-08-28T19:06:27Z</time>
  <course>11.29</course>
  <speed>0.01414213562373095</speed>
  <fix>3d</fix>
</trkpt>
<trkpt lat="40.072842" lon="-105.230575">
  <ele>1586.09</ele>
  <time>2026-08-28T19:06:27Z</time>
  <course>242.06</course>
  <speed>0.0</speed>
  <fix>3d</fix>
</trkpt>
<trkpt lat="40.0728419" lon="-105.2305749">
  <ele>1586.19</ele>
  <time>2026-08-28T19:06:27Z</time>
  <course>11.29</course>
  <speed>0.01414213562373095</speed>
  <fix>3d</fix>
</trkpt>
<trkpt lat="40.072842" lon="-105.230575">
  <ele>1586.09</ele>
  <time>2026-08-28T19:06:27Z</time>
  <course>246.09</course>
  <speed>0.0</speed>
  <fix>3d</fix>
</trkpt>
<trkpt lat="40.0728419" lon="-105.2305749">
  <ele>1586.19</ele>
  <time>2026-08-28T19:06:27Z</time>
  <course>11.29</course>
  <speed>0.01414213562373095</speed>
  <fix>3d</fix>
</trkpt>
<trkpt lat="40.072842" lon="-105.230575">
  <ele>1586.09</ele>
  <time>2026-08-28T19:06:27Z</time>
  <course>245.29</course>
  <speed>0.0</speed>
  <fix>3d</fix>
</trkpt>
<trkpt lat="40.0728419" lon="-105.2305749">
  <ele>1586.19</ele>
  <time>2026-08-28T19:06:27Z</time>
  <course>11.29</course>
  <speed>0.01</speed>
  <fix>3d</fix>
</trkpt>
<trkpt lat="40.072842" lon="-105.230575">
  <ele>1586.09</ele>
  <time>2026-08-28T19:06:27Z</time>
  <course>338.35</course>
  <speed>0.0</speed>
  <fix>3d</fix>
</trkpt>
<trkpt lat="40.0728419" lon="-105.2305749">
  <ele>1586.19</ele>
  <time>2026-08-28T19:06:27Z</time>
  <course>11.29</course>
  <speed>0.01</speed>
  <fix>3d</fix>
</trkpt>
<trkpt lat="40.072842" lon="-105.230575">
  <ele>1586.09</ele>
  <time>2026-08-28T19:06:27Z</time>
  <course>352.69</course>
  <speed>0.0</speed>
  <fix>3d</fix>
</trkpt>
<trkpt lat="40.0728419" lon="-105.2305749">
  <ele>1586.19</ele>
  <time>2026-08-28T19:06:27Z</time>
  <course>11.29</course>
  <speed>0.0</speed>
  <fix>3d</fix>
</trkpt>
<trkpt lat="40.072842" lon="-105.230575">
  <ele>1586.09</ele>
  <time>2026-08-28T19:06:27Z</time>
  <course>5.49</course>
  <speed>0.0</speed>
  <fix>3d</fix>
</trkpt>
<trkpt lat="40.0728419" lon="-105.2305749">
  <ele>1586.19</ele>
  <time>2026-08-28T19:06:27Z</time>
  <course>11.3</course>
  <speed>0.0</speed>
  <fix>3d</fix>
</trkpt>
<trkpt lat="40.072842" lon="-105.230575">
  <ele>1586.09</ele>
  <time>2026-08-28T19:06:27Z</time>
  <course>7.77</course>
  <speed>0.0</speed>
  <fix>3d</fix>
</trkpt>
<trkpt lat="40.0728419" lon="-105.2305749">
  <ele>1586.19</ele>
  <time>2026-08-28T19:06:27Z</time>
  <course>11.3</course>
  <speed>0.0</speed>
  <fix>3d</fix>
</trkpt>
<trkpt lat="40.072842" lon="-105.230575">
  <ele>1586.09</ele>
  <time>2026-08-28T19:06:27Z</time>
  <course>222.59</course>
  <speed>0.0</speed>
  <fix>3d</fix>
</trkpt>
<trkpt lat="40.0728419" lon="-105.2305749">
  <ele>1586.19</ele>
  <time>2026-08-28T19:06:27Z</time>
  <course>11.3</course>
  <speed>0.0</speed>
  <fix>3d</fix>
</trkpt>
<trkpt lat="40.072842" lon="-105.230575">
  <ele>1586.09</ele>
  <time>2026-08-28T19:06:27Z</time>
  <course>232.27</course>
  <speed>0.0</speed>
  <fix>3d</fix>
</trkpt>
<trkpt lat="40.0728419" lon="-105.2305749">
  <ele>1586.19</ele>
  <time>2026-08-28T19:06:27Z</time>
  <course>11.3</course>
  <speed>0.0</speed>
  <fix>3d</fix>
</trkpt>
<trkpt lat="40.072842" lon="-105.230575">
  <ele>1586.09</ele>
  <time>2026-08-28T19:06:27Z</time>
  <course>283.64</course>
  <speed>0.0</speed>
  <fix>3d</fix>
</trkpt>
<trkpt lat="40.0728419" lon="-105.2305749">
  <ele>1586.18</ele>
  <time>2026-08-28T19:06:27Z</time>
  <course>11.3</course>
  <speed>0.0</speed>
  <fix>3d</fix>
</trkpt>
<trkpt lat="40.072842" lon="-105.230575">
  <ele>1586.09</ele>
  <time>2026-08-28T19:06:27Z</time>
  <course>261.18</course>
  <speed>0.0</speed>
  <fix>3d</fix>
</trkpt>
<trkpt lat="40.0728419" lon="-105.2305749">
  <ele>1586.18</ele>
  <time>2026-08-28T19:06:27Z</time>
  <course>11.3</course>
  <speed>0.0</speed>
  <fix>3d</fix>
</trkpt>
<trkpt lat="40.072842" lon="-105.230575">
  <ele>1586.09</ele>
  <time>2026-08-28T19:06:27Z</time>
  <course>23.14</course>
  <speed>0.0</speed>
  <fix>3d</fix>
</trkpt>
<trkpt lat="40.0728419" lon="-105.2305749">
  <ele>1586.18</ele>
  <time>2026-08-28T19:06:27Z</time>
  <course>11.3</course>
  <speed>0.0</speed>
  <fix>3d</fix>
</trkpt>
<trkpt lat="40.072842" lon="-105.230575">
  <ele>1586.09</ele>
  <time>2026-08-28T19:06:27Z</time>
  <course>3.36</course>
  <speed>0.0</speed>
  <fix>3d</fix>
</trkpt>
<trkpt lat="40.0728419" lon="-105.2305749">
  <ele>1586.18</ele>
  <time>2026-08-28T19:06:27Z</time>
  <course>11.31</course>
  <speed>0.0</speed>
  <fix>3d</fix>
</trkpt>
<trkpt lat="40.072842" lon="-105.230575">
  <ele>1586.09</ele>
  <time>2026-08-28T19:06:27Z</time>
  <course>324.23</course>
  <speed>0.0</speed>
  <fix>3d</fix>
</trkpt>
<trkpt lat="40.0728419" lon="-105.2305749">
  <ele>1586.18</ele>
  <time>2026-08-28T19:06:27Z</time>
  <course>11.31</course>
  <speed>0.0</speed>
  <fix>3d</fix>
</trkpt>
<trkpt lat="40.072842" lon="-105.230575">
  <ele>1586.09</ele>
  <time>2026-08-28T19:06:27Z</time>
  <course>241.66</course>
  <speed>0.0</speed>
  <fix>3d</fix>
</trkpt>
<trkpt lat="40.0728419" lon="-105.2305749">
  <ele>1586.17</ele>
  <time>2026-08-28T19:06:27Z</time>
  <course>11.31</course>
  <speed>0.0</speed>
  <fix>3d</fix>
</trkpt>
<trkpt lat="40.072842" lon="-105.230575">
  <ele>1586.09</ele>
  <time>2026-08-28T19:06:27Z</time>
  <course>106.62</course>
  <speed>0.0</speed>
  <fix>3d</fix>
</trkpt>
<trkpt lat="40.0728419" lon="-105.2305749">
  <ele>1586.17</ele>
  <time>2026-08-28T19:06:27Z</time>
  <course>11.31</course>
  <speed>0.0</speed>
  <fix>3d</fix>
</trkpt>
<trkpt lat="40.072842" lon="-105.230575">
  <ele>1586.09</ele>
  <time>2026-08-28T19:06:27Z</time>
  <course>334.11</course>
  <speed>0.0</speed>
  <fix>3d</fix>
</trkpt>
<trkpt lat="40.0728419" lon="-105.2305749">
  <ele>1586.17</ele>
  <time>2026-08-28T19:06:27Z</time>
  <course>11.31</course>
  <speed>0.0</speed>
  <fix>3d</fix>
</trkpt>
<trkpt lat="40.072842" lon="-105.230575">
  <ele>1586.09</ele>
  <time>2026-08-28T19:06:27Z</time>
  <course>315.23</course>
  <speed>0.0</speed>
  <fix>3d</fix>
</trkpt>
<trkpt lat="40.0728419" lon="-105.2305749">
  <ele>1586.17</ele>
  <time>2026-08-28T19:06:27Z</time>
  <course>11.31</course>
  <speed>0.0</speed>
  <fix>3d</fix>
</trkpt>
<trkpt lat="40.072842" lon="-105.230575">
  <ele>1586.09</ele>
  <time>2026-08-28T19:06:27Z</time>
  <course>316.17</course>
  <speed>0.0</speed>
  <fix>3d</fix>
</trkpt>
<trkpt lat="40.0728419" lon="-105.2305749">
  <ele>1586.17</ele>
  <time>2026-08-28T19:06:27Z</time>
  <course>11.32</course>
  <speed>0.0</speed>
  <fix>3d</fix>
</trkpt>
<trkpt lat="40.072842" lon="-105.230575">
  <ele>1586.09</ele>
  <time>2026-08-28T19:06:27Z</time>
  <course>319.19</course>
  <speed>0.0</speed>
  <fix>3d</fix>
</trkpt>
<trkpt lat="40.0728419" lon="-105.2305749">
  <ele>1586.17</ele>
  <time>2026-08-28T19:06:27Z</time>
  <course>11.32</course>
  <speed>0.0</speed>
  <fix>3d</fix>
</trkpt>
<trkpt lat="40.072842" lon="-105.230575">
  <ele>1586.09</ele>
  <time>2026-08-28T19:06:27Z</time>
  <course>318.63</course>
  <speed>0.0</speed>
  <fix>3d</fix>
</trkpt>
<trkpt lat="40.0728419" lon="-105.2305749">
  <ele>1586.17</ele>
  <time>2026-08-28T19:06:27Z</time>
  <course>11.32</course>
  <speed>0.0</speed>
  <fix>3d</fix>
</trkpt>
<trkpt lat="40.072842" lon="-105.230575">
  <ele>1586.09</ele>
  <time>2026-08-28T19:06:27Z</time>
  <course>318.3</course>
  <speed>0.0</speed>
  <fix>3d</fix>
</trkpt>
<trkpt lat="40.0728419" lon="-105.2305749">
  <ele>1586.17</ele>
  <time>2026-08-28T19:06:27Z</time>
  <course>11.32</course>
  <speed>0.01</speed>
  <fix>3d</fix>
</trkpt>
<trkpt lat="40.072842" lon="-105.230575">
  <ele>1586.09</ele>
  <time>2026-08-28T19:06:27Z</time>
  <course>18.18</course>
  <speed>0.0</speed>
  <fix>3d</fix>
</trkpt>
<trkpt lat="40.0728419" lon="-105.2305749">
  <ele>1586.17</ele>
  <time>2026-08-28T19:06:27Z</time>
  <course>11.33</course>
  <speed>0.01</speed>
  <fix>3d</fix>
</trkpt>
<trkpt lat="40.072842" lon="-105.230575">
  <ele>1586.09</ele>
  <time>2026-08-28T19:06:27Z</time>
  <course>11.29</course>
  <speed>0.0</speed>
  <fix>3d</fix>
</trkpt>
<trkpt lat="40.0728419" lon="-105.2305749">
  <ele>1586.17</ele>
  <time>2026-08-28T19:06:27Z</time>
  <course>11.33</course>
  <speed>0.01</speed>
  <fix>3d</fix>
</trkpt>
<trkpt lat="40.072842" lon="-105.230575">
  <ele>1586.09</ele>
  <time>2026-08-28T19:06:27Z</time>
  <course>300.14</course>
  <speed>0.0</speed>
  <fix>3d</fix>
</trkpt>
<trkpt lat="40.0728419" lon="-105.2305749">
  <ele>1586.16</ele>
  <time>2026-08-28T19:06:27Z</time>
  <course>11.33</course>
  <speed>0.01</speed>
  <fix>3d</fix>
</trkpt>
<trkpt lat="40.072842" lon="-105.230575">
  <ele>1586.09</ele>
  <time>2026-08-28T19:06:27Z</time>
  <course>230.12</course>
  <speed>0.0</speed>
  <fix>3d</fix>
</trkpt>
<trkpt lat="40.0728419" lon="-105.2305749">
  <ele>1586.16</ele>
  <time>2026-08-28T19:06:27Z</time>
  <course>11.33</course>
  <speed>0.01</speed>
  <fix>3d</fix>
</trkpt>
<trkpt lat="40.072842" lon="-105.230575">
  <ele>1586.09</ele>
  <time>2026-08-28T19:06:27Z</time>
  <course>216.09</course>
  <speed>0.0</speed>
  <fix>3d</fix>
</trkpt>
<trkpt lat="40.0728419" lon="-105.2305749">
  <ele>1586.17</ele>
  <time>2026-08-28T19:06:27Z</time>
  <course>11.33</course>
  <speed>0.01414213562373095</speed>
  <fix>3d</fix>
</trkpt>
<trkpt lat="40.072842" lon="-105.230575">
  <ele>1586.09</ele>
  <time>2026-08-28T19:06:27Z</time>
  <course>103.22</course>
  <speed>0.0</speed>
  <fix>3d</fix>
</trkpt>
<trkpt lat="40.0728419" lon="-105.2305749">
  <ele>1586.17</ele>
  <time>2026-08-28T19:06:27Z</time>
  <course>11.34</course>
  <speed>0.01414213562373095</speed>
  <fix>3d</fix>
</trkpt>
<trkpt lat="40.072842" lon="-105.230575">
  <ele>1586.09</ele>
  <time>2026-08-28T19:06:27Z</time>
  <course>336.2</course>
  <speed>0.0</speed>
  <fix>3d</fix>
</trkpt>
<trkpt lat="40.0728419" lon="-105.2305749">
  <ele>1586.17</ele>
  <time>2026-08-28T19:06:27Z</time>
  <course>11.34</course>
  <speed>0.01414213562373095</speed>
  <fix>3d</fix>
</trkpt>
<trkpt lat="40.072842" lon="-105.230575">
  <ele>1586.09</ele>
  <time>2026-08-28T19:06:27Z</time>
  <course>219.96</course>
  <speed>0.0</speed>
  <fix>3d</fix>
</trkpt>
<trkpt lat="40.0728419" lon="-105.2305749">
  <ele>1586.17</ele>
  <time>2026-08-28T19:06:27Z</time>
  <course>11.34</course>
  <speed>0.01414213562373095</speed>
  <fix>3d</fix>
</trkpt>
<trkpt lat="40.072842" lon="-105.230575">
  <ele>1586.09</ele>
  <time>2026-08-28T19:06:27Z</time>
  <course>188.74</course>
  <speed>0.0</speed>
  <fix>3d</fix>
</trkpt>
<trkpt lat="40.0728419" lon="-105.2305749">
  <ele>1586.17</ele>
  <time>2026-08-28T19:06:27Z</time>
  <course>11.34</course>
  <speed>0.01414213562373095</speed>
  <fix>3d</fix>
</trkpt>
<trkpt lat="40.072842" lon="-105.230575">
  <ele>1586.09</ele>
  <time>2026-08-28T19:06:27Z</time>
  <course>144.6</course>
  <speed>0.0</speed>
  <fix>3d</fix>
</trkpt>
<trkpt lat="40.0728419" lon="-105.2305749">
  <ele>1586.17</ele>
  <time>2026-08-28T19:06:27Z</time>
  <course>11.35</course>
  <speed>0.01414213562373095</speed>
  <fix>3d</fix>
</trkpt>
<trkpt lat="40.072842" lon="-105.230575">
  <ele>1586.09</ele>
  <time>2026-08-28T19:06:27Z</time>
  <course>4.39</course>
  <speed>0.0</speed>
  <fix>3d</fix>
</trkpt>
<trkpt lat="40.0728419" lon="-105.2305749">
  <ele>1586.18</ele>
  <time>2026-08-28T19:06:27Z</time>
  <course>11.35</course>
  <speed>0.01414213562373095</speed>
  <fix>3d</fix>
</trkpt>
<trkpt lat="40.072842" lon="-105.230575">
  <ele>1586.09</ele>
  <time>2026-08-28T19:06:27Z</time>
  <course>293.0</course>
  <speed>0.0</speed>
  <fix>3d</fix>
</trkpt>
<trkpt lat="40.0728419" lon="-105.2305749">
  <ele>1586.18</ele>
  <time>2026-08-28T19:06:27Z</time>
  <course>11.35</course>
  <speed>0.01414213562373095</speed>
  <fix>3d</fix>
</trkpt>
<trkpt lat="40.072842" lon="-105.230575">
  <ele>1586.09</ele>
  <time>2026-08-28T19:06:27Z</time>
  <course>248.18</course>
  <speed>0.0</speed>
  <fix>3d</fix>
</trkpt>
<trkpt lat="40.0728419" lon="-105.2305749">
  <ele>1586.19</ele>
  <time>2026-08-28T19:06:27Z</time>
  <course>11.35</course>
  <speed>0.01414213562373095</speed>
  <fix>3d</fix>
</trkpt>
<trkpt lat="40.072842" lon="-105.230575">
  <ele>1586.09</ele>
  <time>2026-08-28T19:06:27Z</time>
  <course>288.97</course>
  <speed>0.0</speed>
  <fix>3d</fix>
</trkpt>
<trkpt lat="40.0728419" lon="-105.2305749">
  <ele>1586.19</ele>
  <time>2026-08-28T19:06:27Z</time>
  <course>11.35</course>
  <speed>0.01414213562373095</speed>
  <fix>3d</fix>
</trkpt>
<trkpt lat="40.072842" lon="-105.230575">
  <ele>1586.09</ele>
  <time>2026-08-28T19:06:27Z</time>
  <course>290.79</course>
  <speed>0.0</speed>
  <fix>3d</fix>
</trkpt>
<trkpt lat="40.0728419" lon="-105.2305749">
  <ele>1586.18</ele>
  <time>2026-08-28T19:06:27Z</time>
  <course>11.36</course>
  <speed>0.01414213562373095</speed>
  <fix>3d</fix>
</trkpt>
<trkpt lat="40.072842" lon="-105.230575">
  <ele>1586.09</ele>
  <time>2026-08-28T19:06:27Z</time>
  <course>285.33</course>
  <speed>0.0</speed>
  <fix>3d</fix>
</trkpt>
<trkpt lat="40.0728419" lon="-105.2305749">
  <ele>1586.18</ele>
  <time>2026-08-28T19:06:27Z</time>
  <course>11.36</course>
  <speed>0.01414213562373095</speed>
  <fix>3d</fix>
</trkpt>
<trkpt lat="40.072842" lon="-105.230575">
  <ele>1586.09</ele>
  <time>2026-08-28T19:06:27Z</time>
  <course>285.65</course>
  <speed>0.0</speed>
  <fix>3d</fix>
</trkpt>
<trkpt lat="40.0728419" lon="-105.2305749">
  <ele>1586.18</ele>
  <time>2026-08-28T19:06:27Z</time>
  <course>11.36</course>
  <speed>0.01414213562373095</speed>
  <fix>3d</fix>
</trkpt>
<trkpt lat="40.072842" lon="-105.230575">
  <ele>1586.09</ele>
  <time>2026-08-28T19:06:27Z</time>
  <course>283.01</course>
  <speed>0.0</speed>
  <fix>3d</fix>
</trkpt>
<trkpt lat="40.0728419" lon="-105.2305749">
  <ele>1586.17</ele>
  <time>2026-08-28T19:06:27Z</time>
  <course>11.36</course>
  <speed>0.01414213562373095</speed>
  <fix>3d</fix>
</trkpt>
<trkpt lat="40.072842" lon="-105.230575">
  <ele>1586.09</ele>
  <time>2026-08-28T19:06:27Z</time>
  <course>325.36</course>
  <speed>0.0</speed>
  <fix>3d</fix>
</trkpt>
<trkpt lat="40.0728419" lon="-105.2305749">
  <ele>1586.17</ele>
  <time>2026-08-28T19:06:27Z</time>
  <course>11.36</course>
  <speed>0.01414213562373095</speed>
  <fix>3d</fix>
</trkpt>
<trkpt lat="40.072842" lon="-105.230575">
  <ele>1586.09</ele>
  <time>2026-08-28T19:06:27Z</time>
  <course>315.17</course>
  <speed>0.0</speed>
  <fix>3d</fix>
</trkpt>
<trkpt lat="40.0728419" lon="-105.2305749">
  <ele>1586.17</ele>
  <time>2026-08-28T19:06:27Z</time>
  <course>11.37</course>
  <speed>0.01414213562373095</speed>
  <fix>3d</fix>
</trkpt>
<trkpt lat="40.072842" lon="-105.230575">
  <ele>1586.09</ele>
  <time>2026-08-28T19:06:27Z</time>
  <course>184.82</course>
  <speed>0.0</speed>
  <fix>3d</fix>
</trkpt>
<trkpt lat="40.0728419" lon="-105.2305749">
  <ele>1586.17</ele>
  <time>2026-08-28T19:06:27Z</time>
  <course>11.37</course>
  <speed>0.01414213562373095</speed>
  <fix>3d</fix>
</trkpt>
<trkpt lat="40.072842" lon="-105.230575">
  <ele>1586.09</ele>
  <time>2026-08-28T19:06:27Z</time>
  <course>153.49</course>
  <speed>0.0</speed>
  <fix>3d</fix>
</trkpt>
<trkpt lat="40.0728419" lon="-105.2305749">
  <ele>1586.16</ele>
  <time>2026-08-28T19:06:27Z</time>
  <course>11.37</course>
  <speed>0.01414213562373095</speed>
  <fix>3d</fix>
</trkpt>
<trkpt lat="40.072842" lon="-105.230575">
  <ele>1586.09</ele>
  <time>2026-08-28T19:06:27Z</time>
  <course>98.17</course>
  <speed>0.0</speed>
  <fix>3d</fix>
</trkpt>
<trkpt lat="40.0728419" lon="-105.2305749">
  <ele>1586.16</ele>
  <time>2026-08-28T19:06:27Z</time>
  <course>11.37</course>
  <speed>0.01414213562373095</speed>
  <fix>3d</fix>
</trkpt>
<trkpt lat="40.072842" lon="-105.230575">
  <ele>1586.09</ele>
  <time>2026-08-28T19:06:27Z</time>
  <course>309.06</course>
  <speed>0.0</speed>
  <fix>3d</fix>
</trkpt>
<trkpt lat="40.0728419" lon="-105.2305749">
  <ele>1586.17</ele>
  <time>2026-08-28T19:06:27Z</time>
  <course>11.37</course>
  <speed>0.01414213562373095</speed>
  <fix>3d</fix>
</trkpt>
<trkpt lat="40.072842" lon="-105.230575">
  <ele>1586.09</ele>
  <time>2026-08-28T19:06:27Z</time>
  <course>279.26</course>
  <speed>0.0</speed>
  <fix>3d</fix>
</trkpt>
<trkpt lat="40.0728419" lon="-105.2305749">
  <ele>1586.17</ele>
  <time>2026-08-28T19:06:27Z</time>
  <course>11.38</course>
  <speed>0.01414213562373095</speed>
  <fix>3d</fix>
</trkpt>
<trkpt lat="40.072842" lon="-105.230575">
  <ele>1586.09</ele>
  <time>2026-08-28T19:06:27Z</time>
  <course>278.53</course>
  <speed>0.0</speed>
  <fix>3d</fix>
</trkpt>
<trkpt lat="40.0728419" lon="-105.2305749">
  <ele>1586.17</ele>
  <time>2026-08-28T19:06:27Z</time>
  <course>11.38</course>
  <speed>0.01414213562373095</speed>
  <fix>3d</fix>
</trkpt>
<trkpt lat="40.072842" lon="-105.230575">
  <ele>1586.09</ele>
  <time>2026-08-28T19:06:27Z</time>
  <course>322.2</course>
  <speed>0.0</speed>
  <fix>3d</fix>
</trkpt>
<trkpt lat="40.0728419" lon="-105.2305749">
  <ele>1586.17</ele>
  <time>2026-08-28T19:06:27Z</time>
  <course>11.38</course>
  <speed>0.01414213562373095</speed>
  <fix>3d</fix>
</trkpt>
<trkpt lat="40.072842" lon="-105.230575">
  <ele>1586.09</ele>
  <time>2026-08-28T19:06:27Z</time>
  <course>315.48</course>
  <speed>0.0</speed>
  <fix>3d</fix>
</trkpt>
<trkpt lat="40.0728419" lon="-105.2305749">
  <ele>1586.18</ele>
  <time>2026-08-28T19:06:27Z</time>
  <course>11.38</course>
  <speed>0.01414213562373095</speed>
  <fix>3d</fix>
</trkpt>
<trkpt lat="40.072842" lon="-105.230575">
  <ele>1586.09</ele>
  <time>2026-08-28T19:06:27Z</time>
  <course>236.29</course>
  <speed>0.0</speed>
  <fix>3d</fix>
</trkpt>
<trkpt lat="40.0728419" lon="-105.2305749">
  <ele>1586.18</ele>
  <time>2026-08-28T19:06:27Z</time>
  <course>11.38</course>
  <speed>0.01414213562373095</speed>
  <fix>3d</fix>
</trkpt>
<trkpt lat="40.072842" lon="-105.230575">
  <ele>1586.09</ele>
  <time>2026-08-28T19:06:27Z</time>
  <course>259.07</course>
  <speed>0.0</speed>
  <fix>3d</fix>
</trkpt>
<trkpt lat="40.0728419" lon="-105.2305749">
  <ele>1586.18</ele>
  <time>2026-08-28T19:06:27Z</time>
  <course>11.39</course>
  <speed>0.01414213562373095</speed>
  <fix>3d</fix>
</trkpt>
<trkpt lat="40.072842" lon="-105.230575">
  <ele>1586.09</ele>
  <time>2026-08-28T19:06:27Z</time>
  <course>300.24</course>
  <speed>0.0</speed>
  <fix>3d</fix>
</trkpt>
<trkpt lat="40.0728419" lon="-105.2305749">
  <ele>1586.18</ele>
  <time>2026-08-28T19:06:27Z</time>
  <course>11.39</course>
  <speed>0.01414213562373095</speed>
  <fix>3d</fix>
</trkpt>
<trkpt lat="40.072842" lon="-105.230575">
  <ele>1586.09</ele>
  <time>2026-08-28T19:06:27Z</time>
  <course>292.89</course>
  <speed>0.0</speed>
  <fix>3d</fix>
</trkpt>
<trkpt lat="40.0728419" lon="-105.2305749">
  <ele>1586.17</ele>
  <time>2026-08-28T19:06:27Z</time>
  <course>11.39</course>
  <speed>0.01414213562373095</speed>
  <fix>3d</fix>
</trkpt>
<trkpt lat="40.072842" lon="-105.230575">
  <ele>1586.09</ele>
  <time>2026-08-28T19:06:27Z</time>
  <course>291.16</course>
  <speed>0.0</speed>
  <fix>3d</fix>
</trkpt>
<trkpt lat="40.0728419" lon="-105.2305749">
  <ele>1586.17</ele>
  <time>2026-08-28T19:06:27Z</time>
  <course>11.39</course>
  <speed>0.01414213562373095</speed>
  <fix>3d</fix>
</trkpt>
<trkpt lat="40.072842" lon="-105.230575">
  <ele>1586.09</ele>
  <time>2026-08-28T19:06:27Z</time>
  <course>292.53</course>
  <speed>0.0</speed>
  <fix>3d</fix>
</trkpt>
<trkpt lat="40.0728419" lon="-105.2305749">
  <ele>1586.17</ele>
  <time>2026-08-28T19:06:27Z</time>
  <course>11.39</course>
  <speed>0.01414213562373095</speed>
  <fix>3d</fix>
</trkpt>
<trkpt lat="40.072842" lon="-105.230575">
  <ele>1586.09</ele>
  <time>2026-08-28T19:06:27Z</time>
  <course>292.6</course>
  <speed>0.0</speed>
  <fix>3d</fix>
</trkpt>
<trkpt lat="40.0728419" lon="-105.2305749">
  <ele>1586.17</ele>
  <time>2026-08-28T19:06:27Z</time>
  <course>11.4</course>
  <speed>0.022360679774997897</speed>
  <fix>3d</fix>
</trkpt>
<trkpt lat="40.072842" lon="-105.230575">
  <ele>1586.09</ele>
  <time>2026-08-28T19:06:27Z</time>
  <course>292.41</course>
  <speed>0.0</speed>
  <fix>3d</fix>
</trkpt>
<trkpt lat="40.0728419" lon="-105.2305749">
  <ele>1586.17</ele>
  <time>2026-08-28T19:06:27Z</time>
  <course>11.4</course>
  <speed>0.022360679774997897</speed>
  <fix>3d</fix>
</trkpt>
<trkpt lat="40.072842" lon="-105.230575">
  <ele>1586.09</ele>
  <time>2026-08-28T19:06:27Z</time>
  <course>292.42</course>
  <speed>0.0</speed>
  <fix>3d</fix>
</trkpt>
<trkpt lat="40.0728419" lon="-105.2305749">
  <ele>1586.17</ele>
  <time>2026-08-28T19:06:27Z</time>
  <course>11.4</course>
  <speed>0.022360679774997897</speed>
  <fix>3d</fix>
</trkpt>
<trkpt lat="40.072842" lon="-105.230575">
  <ele>1586.09</ele>
  <time>2026-08-28T19:06:27Z</time>
  <course>292.45</course>
  <speed>0.0</speed>
  <fix>3d</fix>
</trkpt>
<trkpt lat="40.0728419" lon="-105.2305749">
  <ele>1586.17</ele>
  <time>2026-08-28T19:06:27Z</time>
  <course>11.4</course>
  <speed>0.022360679774997897</speed>
  <fix>3d</fix>
</trkpt>
<trkpt lat="40.072842" lon="-105.230575">
  <ele>1586.09</ele>
  <time>2026-08-28T19:06:27Z</time>
  <course>292.44</course>
  <speed>0.0</speed>
  <fix>3d</fix>
</trkpt>
<trkpt lat="40.0728419" lon="-105.2305749">
  <ele>1586.17</ele>
  <time>2026-08-28T19:06:27Z</time>
  <course>11.4</course>
  <speed>0.022360679774997897</speed>
  <fix>3d</fix>
</trkpt>
<trkpt lat="40.072842" lon="-105.230575">
  <ele>1586.09</ele>
  <time>2026-08-28T19:06:27Z</time>
  <course>292.44</course>
  <speed>0.0</speed>
  <fix>3d</fix>
</trkpt>
<trkpt lat="40.0728419" lon="-105.2305749">
  <ele>1586.16</ele>
  <time>2026-08-28T19:06:27Z</time>
  <course>11.41</course>
  <speed>0.022360679774997897</speed>
  <fix>3d</fix>
</trkpt>
<trkpt lat="40.072842" lon="-105.230575">
  <ele>1586.09</ele>
  <time>2026-08-28T19:06:27Z</time>
  <course>292.44</course>
  <speed>0.0</speed>
  <fix>3d</fix>
</trkpt>
<trkpt lat="40.0728419" lon="-105.2305749">
  <ele>1586.16</ele>
  <time>2026-08-28T19:06:27Z</time>
  <course>11.41</course>
  <speed>0.022360679774997897</speed>
  <fix>3d</fix>
</trkpt>
<trkpt lat="40.072842" lon="-105.230575">
  <ele>1586.09</ele>
  <time>2026-08-28T19:06:27Z</time>
  <course>292.44</course>
  <speed>0.0</speed>
  <fix>3d</fix>
</trkpt>
<trkpt lat="40.0728419" lon="-105.2305749">
  <ele>1586.17</ele>
  <time>2026-08-28T19:06:27Z</time>
  <course>11.41</course>
  <speed>0.022360679774997897</speed>
  <fix>3d</fix>
</trkpt>
<trkpt lat="40.072842" lon="-105.230575">
  <ele>1586.09</ele>
  <time>2026-08-28T19:06:27Z</time>
  <course>292.44</course>
  <speed>0.0</speed>
  <fix>3d</fix>
</trkpt>
<trkpt lat="40.0728419" lon="-105.2305749">
  <ele>1586.17</ele>
  <time>2026-08-28T19:06:27Z</time>
  <course>11.41</course>
  <speed>0.022360679774997897</speed>
  <fix>3d</fix>
</trkpt>
<trkpt lat="40.072842" lon="-105.230575">
  <ele>1586.09</ele>
  <time>2026-08-28T19:06:27Z</time>
  <course>292.44</course>
  <speed>0.0</speed>
  <fix>3d</fix>
</trkpt>
<trkpt lat="40.0728419" lon="-105.2305749">
  <ele>1586.18</ele>
  <time>2026-08-28T19:06:27Z</time>
  <course>11.41</course>
  <speed>0.022360679774997897</speed>
  <fix>3d</fix>
</trkpt>
<trkpt lat="40.072842" lon="-105.230575">
  <ele>1586.09</ele>
  <time>2026-08-28T19:06:27Z</time>
  <course>292.44</course>
  <speed>0.0</speed>
  <fix>3d</fix>
</trkpt>
<trkpt lat="40.0728419" lon="-105.2305749">
  <ele>1586.18</ele>
  <time>2026-08-28T19:06:27Z</time>
  <course>11.42</course>
  <speed>0.022360679774997897</speed>
  <fix>3d</fix>
</trkpt>
<trkpt lat="40.072842" lon="-105.230575">
  <ele>1586.09</ele>
  <time>2026-08-28T19:06:27Z</time>
  <course>292.44</course>
  <speed>0.0</speed>
  <fix>3d</fix>
</trkpt>
<trkpt lat="40.0728419" lon="-105.2305749">
  <ele>1586.18</ele>
  <time>2026-08-28T19:06:27Z</time>
  <course>11.42</course>
  <speed>0.022360679774997897</speed>
  <fix>3d</fix>
</trkpt>
<trkpt lat="40.072842" lon="-105.230575">
  <ele>1586.09</ele>
  <time>2026-08-28T19:06:27Z</time>
  <course>292.44</course>
  <speed>0.0</speed>
  <fix>3d</fix>
</trkpt>
<trkpt lat="40.0728419" lon="-105.2305749">
  <ele>1586.18</ele>
  <time>2026-08-28T19:06:27Z</time>
  <course>11.42</course>
  <speed>0.022360679774997897</speed>
  <fix>3d</fix>
</trkpt>
<trkpt lat="40.072842" lon="-105.230575">
  <ele>1586.09</ele>
  <time>2026-08-28T19:06:27Z</time>
  <course>292.44</course>
  <speed>0.0</speed>
  <fix>3d</fix>
</trkpt>
<trkpt lat="40.0728419" lon="-105.2305749">
  <ele>1586.19</ele>
  <time>2026-08-28T19:06:28Z</time>
  <course>11.42</course>
  <speed>0.022360679774997897</speed>
  <fix>3d</fix>
</trkpt>
<trkpt lat="40.072842" lon="-105.230575">
  <ele>1586.09</ele>
  <time>2026-08-28T19:06:28Z</time>
  <course>292.44</course>
  <speed>0.0</speed>
  <fix>3d</fix>
</trkpt>
<trkpt lat="40.0728419" lon="-105.2305749">
  <ele>1586.18</ele>
  <time>2026-08-28T19:06:28Z</time>
  <course>11.42</course>
  <speed>0.022360679774997897</speed>
  <fix>3d</fix>
</trkpt>
<trkpt lat="40.072842" lon="-105.230575">
  <ele>1586.09</ele>
  <time>2026-08-28T19:06:28Z</time>
  <course>292.44</course>
  <speed>0.0</speed>
  <fix>3d</fix>
</trkpt>
<trkpt lat="40.0728419" lon="-105.2305749">
  <ele>1586.18</ele>
  <time>2026-08-28T19:06:28Z</time>
  <course>11.43</course>
  <speed>0.022360679774997897</speed>
  <fix>3d</fix>
</trkpt>
<trkpt lat="40.072842" lon="-105.230575">
  <ele>1586.09</ele>
  <time>2026-08-28T19:06:28Z</time>
  <course>292.44</course>
  <speed>0.0</speed>
  <fix>3d</fix>
</trkpt>
<trkpt lat="40.0728419" lon="-105.2305749">
  <ele>1586.18</ele>
  <time>2026-08-28T19:06:28Z</time>
  <course>11.43</course>
  <speed>0.022360679774997897</speed>
  <fix>3d</fix>
</trkpt>
<trkpt lat="40.072842" lon="-105.230575">
  <ele>1586.09</ele>
  <time>2026-08-28T19:06:28Z</time>
  <course>292.44</course>
  <speed>0.0</speed>
  <fix>3d</fix>
</trkpt>
<trkpt lat="40.0728419" lon="-105.2305749">
  <ele>1586.18</ele>
  <time>2026-08-28T19:06:28Z</time>
  <course>11.43</course>
  <speed>0.022360679774997897</speed>
  <fix>3d</fix>
</trkpt>
<trkpt lat="40.072842" lon="-105.230575">
  <ele>1586.09</ele>
  <time>2026-08-28T19:06:28Z</time>
  <course>292.44</course>
  <speed>0.0</speed>
  <fix>3d</fix>
</trkpt>
<trkpt lat="40.0728419" lon="-105.2305749">
  <ele>1586.18</ele>
  <time>2026-08-28T19:06:28Z</time>
  <course>11.43</course>
  <speed>0.022360679774997897</speed>
  <fix>3d</fix>
</trkpt>
<trkpt lat="40.072842" lon="-105.230575">
  <ele>1586.09</ele>
  <time>2026-08-28T19:06:28Z</time>
  <course>292.44</course>
  <speed>0.0</speed>
  <fix>3d</fix>
</trkpt>
<trkpt lat="40.0728419" lon="-105.2305749">
  <ele>1586.17</ele>
  <time>2026-08-28T19:06:28Z</time>
  <course>11.43</course>
  <speed>0.022360679774997897</speed>
  <fix>3d</fix>
</trkpt>
<trkpt lat="40.072842" lon="-105.230575">
  <ele>1586.09</ele>
  <time>2026-08-28T19:06:28Z</time>
  <course>292.44</course>
  <speed>0.0</speed>
  <fix>3d</fix>
</trkpt>
<trkpt lat="40.0728419" lon="-105.2305749">
  <ele>1586.17</ele>
  <time>2026-08-28T19:06:28Z</time>
  <course>11.44</course>
  <speed>0.022360679774997897</speed>
  <fix>3d</fix>
</trkpt>
<trkpt lat="40.072842" lon="-105.230575">
  <ele>1586.09</ele>
  <time>2026-08-28T19:06:28Z</time>
  <course>292.44</course>
  <speed>0.0</speed>
  <fix>3d</fix>
</trkpt>
<trkpt lat="40.0728419" lon="-105.2305749">
  <ele>1586.17</ele>
  <time>2026-08-28T19:06:28Z</time>
  <course>11.44</course>
  <speed>0.022360679774997897</speed>
  <fix>3d</fix>
</trkpt>
<trkpt lat="40.072842" lon="-105.230575">
  <ele>1586.09</ele>
  <time>2026-08-28T19:06:28Z</time>
  <course>292.44</course>
  <speed>0.0</speed>
  <fix>3d</fix>
</trkpt>
<trkpt lat="40.0728419" lon="-105.2305749">
  <ele>1586.17</ele>
  <time>2026-08-28T19:06:28Z</time>
  <course>11.44</course>
  <speed>0.022360679774997897</speed>
  <fix>3d</fix>
</trkpt>
<trkpt lat="40.072842" lon="-105.230575">
  <ele>1586.09</ele>
  <time>2026-08-28T19:06:28Z</time>
  <course>292.44</course>
  <speed>0.0</speed>
  <fix>3d</fix>
</trkpt>
<trkpt lat="40.0728419" lon="-105.2305749">
  <ele>1586.17</ele>
  <time>2026-08-28T19:06:28Z</time>
  <course>11.44</course>
  <speed>0.022360679774997897</speed>
  <fix>3d</fix>
</trkpt>
<trkpt lat="40.072842" lon="-105.230575">
  <ele>1586.09</ele>
  <time>2026-08-28T19:06:28Z</time>
  <course>292.44</course>
  <speed>0.0</speed>
  <fix>3d</fix>
</trkpt>
<trkpt lat="40.0728419" lon="-105.2305749">
  <ele>1586.16</ele>
  <time>2026-08-28T19:06:28Z</time>
  <course>11.44</course>
  <speed>0.022360679774997897</speed>
  <fix>3d</fix>
</trkpt>
<trkpt lat="40.072842" lon="-105.230575">
  <ele>1586.09</ele>
  <time>2026-08-28T19:06:28Z</time>
  <course>239.4</course>
  <speed>0.0</speed>
  <fix>3d</fix>
</trkpt>
<trkpt lat="40.0728419" lon="-105.2305749">
  <ele>1586.16</ele>
  <time>2026-08-28T19:06:28Z</time>
  <course>11.45</course>
  <speed>0.022360679774997897</speed>
  <fix>3d</fix>
</trkpt>
<trkpt lat="40.072842" lon="-105.230575">
  <ele>1586.09</ele>
  <time>2026-08-28T19:06:28Z</time>
  <course>210.77</course>
  <speed>0.0</speed>
  <fix>3d</fix>
</trkpt>
<trkpt lat="40.0728419" lon="-105.2305749">
  <ele>1586.16</ele>
  <time>2026-08-28T19:06:28Z</time>
  <course>11.45</course>
  <speed>0.022360679774997897</speed>
  <fix>3d</fix>
</trkpt>
<trkpt lat="40.072842" lon="-105.230575">
  <ele>1586.09</ele>
  <time>2026-08-28T19:06:28Z</time>
  <course>191.47</course>
  <speed>0.0</speed>
  <fix>3d</fix>
</trkpt>
<trkpt lat="40.0728419" lon="-105.2305749">
  <ele>1586.16</ele>
  <time>2026-08-28T19:06:28Z</time>
  <course>11.45</course>
  <speed>0.022360679774997897</speed>
  <fix>3d</fix>
</trkpt>
<trkpt lat="40.072842" lon="-105.230575">
  <ele>1586.09</ele>
  <time>2026-08-28T19:06:28Z</time>
  <course>149.29</course>
  <speed>0.0</speed>
  <fix>3d</fix>
</trkpt>
<trkpt lat="40.0728419" lon="-105.2305749">
  <ele>1586.16</ele>
  <time>2026-08-28T19:06:28Z</time>
  <course>11.45</course>
  <speed>0.022360679774997897</speed>
  <fix>3d</fix>
</trkpt>
<trkpt lat="40.072842" lon="-105.230575">
  <ele>1586.09</ele>
  <time>2026-08-28T19:06:28Z</time>
  <course>351.55</course>
  <speed>0.0</speed>
  <fix>3d</fix>
</trkpt>
<trkpt lat="40.0728419" lon="-105.2305749">
  <ele>1586.16</ele>
  <time>2026-08-28T19:06:28Z</time>
  <course>11.45</course>
  <speed>0.022360679774997897</speed>
  <fix>3d</fix>
</trkpt>
<trkpt lat="40.072842" lon="-105.230575">
  <ele>1586.09</ele>
  <time>2026-08-28T19:06:28Z</time>
  <course>262.34</course>
  <speed>0.0</speed>
  <fix>3d</fix>
</trkpt>
<trkpt lat="40.0728419" lon="-105.2305749">
  <ele>1586.16</ele>
  <time>2026-08-28T19:06:28Z</time>
  <course>11.45</course>
  <speed>0.022360679774997897</speed>
  <fix>3d</fix>
</trkpt>
<trkpt lat="40.072842" lon="-105.230575">
  <ele>1586.09</ele>
  <time>2026-08-28T19:06:28Z</time>
  <course>230.34</course>
  <speed>0.0</speed>
  <fix>3d</fix>
</trkpt>
<trkpt lat="40.0728419" lon="-105.2305749">
  <ele>1586.16</ele>
  <time>2026-08-28T19:06:28Z</time>
  <course>11.46</course>
  <speed>0.022360679774997897</speed>
  <fix>3d</fix>
</trkpt>
<trkpt lat="40.072842" lon="-105.230575">
  <ele>1586.09</ele>
  <time>2026-08-28T19:06:28Z</time>
  <course>251.45</course>
  <speed>0.0</speed>
  <fix>3d</fix>
</trkpt>
<trkpt lat="40.0728419" lon="-105.2305749">
  <ele>1586.16</ele>
  <time>2026-08-28T19:06:28Z</time>
  <course>11.46</course>
  <speed>0.022360679774997897</speed>
  <fix>3d</fix>
</trkpt>
<trkpt lat="40.072842" lon="-105.230575">
  <ele>1586.09</ele>
  <time>2026-08-28T19:06:28Z</time>
  <course>254.06</course>
  <speed>0.0</speed>
  <fix>3d</fix>
</trkpt>
<trkpt lat="40.0728419" lon="-105.2305749">
  <ele>1586.17</ele>
  <time>2026-08-28T19:06:28Z</time>
  <course>11.46</course>
  <speed>0.022360679774997897</speed>
  <fix>3d</fix>
</trkpt>
<trkpt lat="40.072842" lon="-105.230575">
  <ele>1586.09</ele>
  <time>2026-08-28T19:06:28Z</time>
  <course>250.33</course>
  <speed>0.0</speed>
  <fix>3d</fix>
</trkpt>
<trkpt lat="40.0728419" lon="-105.2305749">
  <ele>1586.17</ele>
  <time>2026-08-28T19:06:28Z</time>
  <course>11.46</course>
  <speed>0.022360679774997897</speed>
  <fix>3d</fix>
</trkpt>
<trkpt lat="40.072842" lon="-105.230575">
  <ele>1586.09</ele>
  <time>2026-08-28T19:06:28Z</time>
  <course>250.42</course>
  <speed>0.0</speed>
  <fix>3d</fix>
</trkpt>
<trkpt lat="40.0728419" lon="-105.2305749">
  <ele>1586.17</ele>
  <time>2026-08-28T19:06:28Z</time>
  <course>11.46</course>
  <speed>0.022360679774997897</speed>
  <fix>3d</fix>
</trkpt>
<trkpt lat="40.072842" lon="-105.230575">
  <ele>1586.09</ele>
  <time>2026-08-28T19:06:28Z</time>
  <course>250.91</course>
  <speed>0.0</speed>
  <fix>3d</fix>
</trkpt>
<trkpt lat="40.0728419" lon="-105.2305749">
  <ele>1586.16</ele>
  <time>2026-08-28T19:06:28Z</time>
  <course>11.46</course>
  <speed>0.022360679774997897</speed>
  <fix>3d</fix>
</trkpt>
<trkpt lat="40.072842" lon="-105.230575">
  <ele>1586.09</ele>
  <time>2026-08-28T19:06:28Z</time>
  <course>250.84</course>
  <speed>0.0</speed>
  <fix>3d</fix>
</trkpt>
<trkpt lat="40.0728419" lon="-105.2305749">
  <ele>1586.16</ele>
  <time>2026-08-28T19:06:28Z</time>
  <course>11.47</course>
  <speed>0.022360679774997897</speed>
  <fix>3d</fix>
</trkpt>
<trkpt lat="40.072842" lon="-105.230575">
  <ele>1586.09</ele>
  <time>2026-08-28T19:06:28Z</time>
  <course>250.78</course>
  <speed>0.0</speed>
  <fix>3d</fix>
</trkpt>
<trkpt lat="40.0728419" lon="-105.2305749">
  <ele>1586.16</ele>
  <time>2026-08-28T19:06:28Z</time>
  <course>11.47</course>
  <speed>0.022360679774997897</speed>
  <fix>3d</fix>
</trkpt>
<trkpt lat="40.072842" lon="-105.230575">
  <ele>1586.09</ele>
  <time>2026-08-28T19:06:28Z</time>
  <course>250.79</course>
  <speed>0.0</speed>
  <fix>3d</fix>
</trkpt>
<trkpt lat="40.0728419" lon="-105.2305749">
  <ele>1586.16</ele>
  <time>2026-08-28T19:06:28Z</time>
  <course>11.47</course>
  <speed>0.022360679774997897</speed>
  <fix>3d</fix>
</trkpt>
<trkpt lat="40.072842" lon="-105.230575">
  <ele>1586.09</ele>
  <time>2026-08-28T19:06:28Z</time>
  <course>250.8</course>
  <speed>0.0</speed>
  <fix>3d</fix>
</trkpt>
<trkpt lat="40.0728419" lon="-105.2305749">
  <ele>1586.16</ele>
  <time>2026-08-28T19:06:28Z</time>
  <course>11.47</course>
  <speed>0.022360679774997897</speed>
  <fix>3d</fix>
</trkpt>
<trkpt lat="40.072842" lon="-105.230575">
  <ele>1586.09</ele>
  <time>2026-08-28T19:06:28Z</time>
  <course>250.8</course>
  <speed>0.0</speed>
  <fix>3d</fix>
</trkpt>
<trkpt lat="40.0728419" lon="-105.2305749">
  <ele>1586.16</ele>
  <time>2026-08-28T19:06:28Z</time>
  <course>11.47</course>
  <speed>0.022360679774997897</speed>
  <fix>3d</fix>
</trkpt>
<trkpt lat="40.072842" lon="-105.230575">
  <ele>1586.09</ele>
  <time>2026-08-28T19:06:28Z</time>
  <course>250.8</course>
  <speed>0.0</speed>
  <fix>3d</fix>
</trkpt>
<trkpt lat="40.0728419" lon="-105.2305749">
  <ele>1586.15</ele>
  <time>2026-08-28T19:06:28Z</time>
  <course>11.47</course>
  <speed>0.022360679774997897</speed>
  <fix>3d</fix>
</trkpt>
<trkpt lat="40.072842" lon="-105.230575">
  <ele>1586.09</ele>
  <time>2026-08-28T19:06:28Z</time>
  <course>250.8</course>
  <speed>0.0</speed>
  <fix>3d</fix>
</trkpt>
<trkpt lat="40.0728419" lon="-105.2305749">
  <ele>1586.15</ele>
  <time>2026-08-28T19:06:28Z</time>
  <course>11.48</course>
  <speed>0.022360679774997897</speed>
  <fix>3d</fix>
</trkpt>
<trkpt lat="40.072842" lon="-105.230575">
  <ele>1586.09</ele>
  <time>2026-08-28T19:06:28Z</time>
  <course>250.8</course>
  <speed>0.0</speed>
  <fix>3d</fix>
</trkpt>
<trkpt lat="40.0728419" lon="-105.2305749">
  <ele>1586.15</ele>
  <time>2026-08-28T19:06:28Z</time>
  <course>11.48</course>
  <speed>0.022360679774997897</speed>
  <fix>3d</fix>
</trkpt>
<trkpt lat="40.072842" lon="-105.230575">
  <ele>1586.09</ele>
  <time>2026-08-28T19:06:28Z</time>
  <course>250.8</course>
  <speed>0.0</speed>
  <fix>3d</fix>
</trkpt>
<trkpt lat="40.0728419" lon="-105.2305749">
  <ele>1586.14</ele>
  <time>2026-08-28T19:06:28Z</time>
  <course>11.48</course>
  <speed>0.022360679774997897</speed>
  <fix>3d</fix>
</trkpt>
<trkpt lat="40.072842" lon="-105.230575">
  <ele>1586.09</ele>
  <time>2026-08-28T19:06:28Z</time>
  <course>250.8</course>
  <speed>0.0</speed>
  <fix>3d</fix>
</trkpt>
<trkpt lat="40.0728419" lon="-105.2305749">
  <ele>1586.14</ele>
  <time>2026-08-28T19:06:28Z</time>
  <course>11.48</course>
  <speed>0.022360679774997897</speed>
  <fix>3d</fix>
</trkpt>
<trkpt lat="40.072842" lon="-105.230575">
  <ele>1586.09</ele>
  <time>2026-08-28T19:06:28Z</time>
  <course>250.8</course>
  <speed>0.0</speed>
  <fix>3d</fix>
</trkpt>
<trkpt lat="40.0728419" lon="-105.2305749">
  <ele>1586.14</ele>
  <time>2026-08-28T19:06:28Z</time>
  <course>11.48</course>
  <speed>0.022360679774997897</speed>
  <fix>3d</fix>
</trkpt>
<trkpt lat="40.072842" lon="-105.230575">
  <ele>1586.09</ele>
  <time>2026-08-28T19:06:28Z</time>
  <course>250.8</course>
  <speed>0.0</speed>
  <fix>3d</fix>
</trkpt>
<trkpt lat="40.0728419" lon="-105.2305749">
  <ele>1586.14</ele>
  <time>2026-08-28T19:06:28Z</time>
  <course>11.48</course>
  <speed>0.022360679774997897</speed>
  <fix>3d</fix>
</trkpt>
<trkpt lat="40.072842" lon="-105.230575">
  <ele>1586.09</ele>
  <time>2026-08-28T19:06:28Z</time>
  <course>250.8</course>
  <speed>0.0</speed>
  <fix>3d</fix>
</trkpt>
<trkpt lat="40.0728419" lon="-105.2305749">
  <ele>1586.14</ele>
  <time>2026-08-28T19:06:28Z</time>
  <course>11.48</course>
  <speed>0.022360679774997897</speed>
  <fix>3d</fix>
</trkpt>
<trkpt lat="40.072842" lon="-105.230575">
  <ele>1586.09</ele>
  <time>2026-08-28T19:06:28Z</time>
  <course>250.8</course>
  <speed>0.0</speed>
  <fix>3d</fix>
</trkpt>
<trkpt lat="40.0728419" lon="-105.2305749">
  <ele>1586.14</ele>
  <time>2026-08-28T19:06:28Z</time>
  <course>11.49</course>
  <speed>0.022360679774997897</speed>
  <fix>3d</fix>
</trkpt>
<trkpt lat="40.072842" lon="-105.230575">
  <ele>1586.09</ele>
  <time>2026-08-28T19:06:28Z</time>
  <course>250.8</course>
  <speed>0.0</speed>
  <fix>3d</fix>
</trkpt>
<trkpt lat="40.0728419" lon="-105.2305749">
  <ele>1586.15</ele>
  <time>2026-08-28T19:06:28Z</time>
  <course>11.49</course>
  <speed>0.022360679774997897</speed>
  <fix>3d</fix>
</trkpt>
<trkpt lat="40.072842" lon="-105.230575">
  <ele>1586.09</ele>
  <time>2026-08-28T19:06:28Z</time>
  <course>250.8</course>
  <speed>0.0</speed>
  <fix>3d</fix>
</trkpt>
<trkpt lat="40.0728419" lon="-105.2305749">
  <ele>1586.15</ele>
  <time>2026-08-28T19:06:28Z</time>
  <course>11.49</course>
  <speed>0.022360679774997897</speed>
  <fix>3d</fix>
</trkpt>
<trkpt lat="40.072842" lon="-105.230575">
  <ele>1586.09</ele>
  <time>2026-08-28T19:06:28Z</time>
  <course>250.8</course>
  <speed>0.0</speed>
  <fix>3d</fix>
</trkpt>
<trkpt lat="40.0728419" lon="-105.2305749">
  <ele>1586.14</ele>
  <time>2026-08-28T19:06:28Z</time>
  <course>11.49</course>
  <speed>0.022360679774997897</speed>
  <fix>3d</fix>
</trkpt>
<trkpt lat="40.072842" lon="-105.230575">
  <ele>1586.09</ele>
  <time>2026-08-28T19:06:28Z</time>
  <course>250.8</course>
  <speed>0.0</speed>
  <fix>3d</fix>
</trkpt>
<trkpt lat="40.0728419" lon="-105.2305749">
  <ele>1586.14</ele>
  <time>2026-08-28T19:06:28Z</time>
  <course>11.49</course>
  <speed>0.022360679774997897</speed>
  <fix>3d</fix>
</trkpt>
<trkpt lat="40.072842" lon="-105.230575">
  <ele>1586.09</ele>
  <time>2026-08-28T19:06:28Z</time>
  <course>250.8</course>
  <speed>0.0</speed>
  <fix>3d</fix>
</trkpt>
<trkpt lat="40.0728419" lon="-105.2305749">
  <ele>1586.14</ele>
  <time>2026-08-28T19:06:28Z</time>
  <course>11.49</course>
  <speed>0.022360679774997897</speed>
  <fix>3d</fix>
</trkpt>
<trkpt lat="40.072842" lon="-105.230575">
  <ele>1586.09</ele>
  <time>2026-08-28T19:06:28Z</time>
  <course>250.8</course>
  <speed>0.0</speed>
  <fix>3d</fix>
</trkpt>
<trkpt lat="40.0728419" lon="-105.2305749">
  <ele>1586.14</ele>
  <time>2026-08-28T19:06:28Z</time>
  <course>11.49</course>
  <speed>0.022360679774997897</speed>
  <fix>3d</fix>
</trkpt>
<trkpt lat="40.072842" lon="-105.230575">
  <ele>1586.09</ele>
  <time>2026-08-28T19:06:28Z</time>
  <course>250.8</course>
  <speed>0.0</speed>
  <fix>3d</fix>
</trkpt>
<trkpt lat="40.0728419" lon="-105.2305749">
  <ele>1586.14</ele>
  <time>2026-08-28T19:06:28Z</time>
  <course>11.49</course>
  <speed>0.022360679774997897</speed>
  <fix>3d</fix>
</trkpt>
<trkpt lat="40.072842" lon="-105.230575">
  <ele>1586.09</ele>
  <time>2026-08-28T19:06:28Z</time>
  <course>250.8</course>
  <speed>0.0</speed>
  <fix>3d</fix>
</trkpt>
<trkpt lat="40.0728419" lon="-105.2305749">
  <ele>1586.14</ele>
  <time>2026-08-28T19:06:28Z</time>
  <course>11.5</course>
  <speed>0.022360679774997897</speed>
  <fix>3d</fix>
</trkpt>
<trkpt lat="40.072842" lon="-105.230575">
  <ele>1586.09</ele>
  <time>2026-08-28T19:06:28Z</time>
  <course>250.8</course>
  <speed>0.0</speed>
  <fix>3d</fix>
</trkpt>
<trkpt lat="40.0728419" lon="-105.2305749">
  <ele>1586.15</ele>
  <time>2026-08-28T19:06:28Z</time>
  <course>11.5</course>
  <speed>0.022360679774997897</speed>
  <fix>3d</fix>
</trkpt>
<trkpt lat="40.072842" lon="-105.230575">
  <ele>1586.09</ele>
  <time>2026-08-28T19:06:28Z</time>
  <course>250.8</course>
  <speed>0.0</speed>
  <fix>3d</fix>
</trkpt>
<trkpt lat="40.0728419" lon="-105.2305749">
  <ele>1586.15</ele>
  <time>2026-08-28T19:06:28Z</time>
  <course>11.5</course>
  <speed>0.022360679774997897</speed>
  <fix>3d</fix>
</trkpt>
<trkpt lat="40.072842" lon="-105.230575">
  <ele>1586.09</ele>
  <time>2026-08-28T19:06:28Z</time>
  <course>250.8</course>
  <speed>0.0</speed>
  <fix>3d</fix>
</trkpt>
<trkpt lat="40.0728419" lon="-105.2305749">
  <ele>1586.15</ele>
  <time>2026-08-28T19:06:28Z</time>
  <course>11.5</course>
  <speed>0.022360679774997897</speed>
  <fix>3d</fix>
</trkpt>
<trkpt lat="40.072842" lon="-105.230575">
  <ele>1586.09</ele>
  <time>2026-08-28T19:06:28Z</time>
  <course>250.8</course>
  <speed>0.0</speed>
  <fix>3d</fix>
</trkpt>
<trkpt lat="40.0728419" lon="-105.2305749">
  <ele>1586.15</ele>
  <time>2026-08-28T19:06:28Z</time>
  <course>11.5</course>
  <speed>0.022360679774997897</speed>
  <fix>3d</fix>
</trkpt>
<trkpt lat="40.072842" lon="-105.230575">
  <ele>1586.09</ele>
  <time>2026-08-28T19:06:28Z</time>
  <course>250.8</course>
  <speed>0.0</speed>
  <fix>3d</fix>
</trkpt>
<trkpt lat="40.0728419" lon="-105.2305749">
  <ele>1586.15</ele>
  <time>2026-08-28T19:06:28Z</time>
  <course>11.5</course>
  <speed>0.022360679774997897</speed>
  <fix>3d</fix>
</trkpt>
<trkpt lat="40.072842" lon="-105.230575">
  <ele>1586.09</ele>
  <time>2026-08-28T19:06:28Z</time>
  <course>250.8</course>
  <speed>0.0</speed>
  <fix>3d</fix>
</trkpt>
<trkpt lat="40.0728419" lon="-105.2305749">
  <ele>1586.15</ele>
  <time>2026-08-28T19:06:28Z</time>
  <course>11.5</course>
  <speed>0.022360679774997897</speed>
  <fix>3d</fix>
</trkpt>
<trkpt lat="40.072842" lon="-105.230575">
  <ele>1586.09</ele>
  <time>2026-08-28T19:06:28Z</time>
  <course>250.8</course>
  <speed>0.0</speed>
  <fix>3d</fix>
</trkpt>
<trkpt lat="40.0728419" lon="-105.2305749">
  <ele>1586.15</ele>
  <time>2026-08-28T19:06:28Z</time>
  <course>11.5</course>
  <speed>0.022360679774997897</speed>
  <fix>3d</fix>
</trkpt>
<trkpt lat="40.072842" lon="-105.230575">
  <ele>1586.09</ele>
  <time>2026-08-28T19:06:28Z</time>
  <course>250.8</course>
  <speed>0.0</speed>
  <fix>3d</fix>
</trkpt>
<trkpt lat="40.0728419" lon="-105.2305749">
  <ele>1586.15</ele>
  <time>2026-08-28T19:06:28Z</time>
  <course>11.51</course>
  <speed>0.022360679774997897</speed>
  <fix>3d</fix>
</trkpt>
<trkpt lat="40.072842" lon="-105.230575">
  <ele>1586.09</ele>
  <time>2026-08-28T19:06:28Z</time>
  <course>250.8</course>
  <speed>0.0</speed>
  <fix>3d</fix>
</trkpt>
<trkpt lat="40.0728419" lon="-105.2305749">
  <ele>1586.15</ele>
  <time>2026-08-28T19:06:28Z</time>
  <course>11.51</course>
  <speed>0.022360679774997897</speed>
  <fix>3d</fix>
</trkpt>
<trkpt lat="40.072842" lon="-105.230575">
  <ele>1586.09</ele>
  <time>2026-08-28T19:06:28Z</time>
  <course>250.8</course>
  <speed>0.0</speed>
  <fix>3d</fix>
</trkpt>
<trkpt lat="40.0728419" lon="-105.2305749">
  <ele>1586.16</ele>
  <time>2026-08-28T19:06:28Z</time>
  <course>11.51</course>
  <speed>0.022360679774997897</speed>
  <fix>3d</fix>
</trkpt>
<trkpt lat="40.072842" lon="-105.230575">
  <ele>1586.09</ele>
  <time>2026-08-28T19:06:28Z</time>
  <course>250.8</course>
  <speed>0.0</speed>
  <fix>3d</fix>
</trkpt>
<trkpt lat="40.0728419" lon="-105.2305749">
  <ele>1586.16</ele>
  <time>2026-08-28T19:06:28Z</time>
  <course>11.51</course>
  <speed>0.022360679774997897</speed>
  <fix>3d</fix>
</trkpt>
<trkpt lat="40.072842" lon="-105.230575">
  <ele>1586.09</ele>
  <time>2026-08-28T19:06:28Z</time>
  <course>250.8</course>
  <speed>0.0</speed>
  <fix>3d</fix>
</trkpt>
<trkpt lat="40.0728419" lon="-105.2305749">
  <ele>1586.17</ele>
  <time>2026-08-28T19:06:28Z</time>
  <course>11.51</course>
  <speed>0.022360679774997897</speed>
  <fix>3d</fix>
</trkpt>
<trkpt lat="40.072842" lon="-105.230575">
  <ele>1586.09</ele>
  <time>2026-08-28T19:06:28Z</time>
  <course>250.8</course>
  <speed>0.0</speed>
  <fix>3d</fix>
</trkpt>
<trkpt lat="40.0728419" lon="-105.2305749">
  <ele>1586.17</ele>
  <time>2026-08-28T19:06:28Z</time>
  <course>11.51</course>
  <speed>0.022360679774997897</speed>
  <fix>3d</fix>
</trkpt>
<trkpt lat="40.072842" lon="-105.230575">
  <ele>1586.09</ele>
  <time>2026-08-28T19:06:28Z</time>
  <course>250.8</course>
  <speed>0.0</speed>
  <fix>3d</fix>
</trkpt>
<trkpt lat="40.0728419" lon="-105.2305749">
  <ele>1586.17</ele>
  <time>2026-08-28T19:06:28Z</time>
  <course>11.51</course>
  <speed>0.022360679774997897</speed>
  <fix>3d</fix>
</trkpt>
<trkpt lat="40.072842" lon="-105.230575">
  <ele>1586.09</ele>
  <time>2026-08-28T19:06:28Z</time>
  <course>250.8</course>
  <speed>0.0</speed>
  <fix>3d</fix>
</trkpt>
<trkpt lat="40.0728419" lon="-105.2305749">
  <ele>1586.17</ele>
  <time>2026-08-28T19:06:28Z</time>
  <course>11.51</course>
  <speed>0.022360679774997897</speed>
  <fix>3d</fix>
</trkpt>
<trkpt lat="40.072842" lon="-105.230575">
  <ele>1586.09</ele>
  <time>2026-08-28T19:06:28Z</time>
  <course>250.8</course>
  <speed>0.0</speed>
  <fix>3d</fix>
</trkpt>
<trkpt lat="40.0728419" lon="-105.2305749">
  <ele>1586.17</ele>
  <time>2026-08-28T19:06:28Z</time>
  <course>11.52</course>
  <speed>0.022360679774997897</speed>
  <fix>3d</fix>
</trkpt>
<trkpt lat="40.072842" lon="-105.230575">
  <ele>1586.09</ele>
  <time>2026-08-28T19:06:28Z</time>
  <course>250.8</course>
  <speed>0.0</speed>
  <fix>3d</fix>
</trkpt>
<trkpt lat="40.0728419" lon="-105.2305749">
  <ele>1586.17</ele>
  <time>2026-08-28T19:06:28Z</time>
  <course>11.52</course>
  <speed>0.022360679774997897</speed>
  <fix>3d</fix>
</trkpt>
<trkpt lat="40.072842" lon="-105.230575">
  <ele>1586.09</ele>
  <time>2026-08-28T19:06:28Z</time>
  <course>250.8</course>
  <speed>0.0</speed>
  <fix>3d</fix>
</trkpt>
<trkpt lat="40.0728419" lon="-105.2305749">
  <ele>1586.17</ele>
  <time>2026-08-28T19:06:28Z</time>
  <course>11.52</course>
  <speed>0.022360679774997897</speed>
  <fix>3d</fix>
</trkpt>
<trkpt lat="40.072842" lon="-105.230575">
  <ele>1586.09</ele>
  <time>2026-08-28T19:06:28Z</time>
  <course>250.8</course>
  <speed>0.0</speed>
  <fix>3d</fix>
</trkpt>
<trkpt lat="40.0728419" lon="-105.2305749">
  <ele>1586.17</ele>
  <time>2026-08-28T19:06:28Z</time>
  <course>11.52</course>
  <speed>0.022360679774997897</speed>
  <fix>3d</fix>
</trkpt>
<trkpt lat="40.072842" lon="-105.230575">
  <ele>1586.09</ele>
  <time>2026-08-28T19:06:28Z</time>
  <course>250.8</course>
  <speed>0.0</speed>
  <fix>3d</fix>
</trkpt>
<trkpt lat="40.0728419" lon="-105.2305749">
  <ele>1586.17</ele>
  <time>2026-08-28T19:06:28Z</time>
  <course>11.52</course>
  <speed>0.022360679774997897</speed>
  <fix>3d</fix>
</trkpt>
<trkpt lat="40.072842" lon="-105.230575">
  <ele>1586.09</ele>
  <time>2026-08-28T19:06:28Z</time>
  <course>250.8</course>
  <speed>0.0</speed>
  <fix>3d</fix>
</trkpt>
<trkpt lat="40.0728419" lon="-105.2305749">
  <ele>1586.18</ele>
  <time>2026-08-28T19:06:28Z</time>
  <course>11.52</course>
  <speed>0.022360679774997897</speed>
  <fix>3d</fix>
</trkpt>
<trkpt lat="40.072842" lon="-105.230575">
  <ele>1586.09</ele>
  <time>2026-08-28T19:06:28Z</time>
  <course>250.8</course>
  <speed>0.0</speed>
  <fix>3d</fix>
</trkpt>
<trkpt lat="40.0728419" lon="-105.2305749">
  <ele>1586.18</ele>
  <time>2026-08-28T19:06:28Z</time>
  <course>11.52</course>
  <speed>0.022360679774997897</speed>
  <fix>3d</fix>
</trkpt>
<trkpt lat="40.072842" lon="-105.230575">
  <ele>1586.09</ele>
  <time>2026-08-28T19:06:28Z</time>
  <course>250.8</course>
  <speed>0.0</speed>
  <fix>3d</fix>
</trkpt>
<trkpt lat="40.0728419" lon="-105.2305749">
  <ele>1586.18</ele>
  <time>2026-08-28T19:06:28Z</time>
  <course>11.52</course>
  <speed>0.022360679774997897</speed>
  <fix>3d</fix>
</trkpt>
<trkpt lat="40.072842" lon="-105.230575">
  <ele>1586.09</ele>
  <time>2026-08-28T19:06:28Z</time>
  <course>250.8</course>
  <speed>0.0</speed>
  <fix>3d</fix>
</trkpt>
<trkpt lat="40.0728419" lon="-105.2305749">
  <ele>1586.18</ele>
  <time>2026-08-28T19:06:28Z</time>
  <course>11.52</course>
  <speed>0.022360679774997897</speed>
  <fix>3d</fix>
</trkpt>
<trkpt lat="40.072842" lon="-105.230575">
  <ele>1586.09</ele>
  <time>2026-08-28T19:06:28Z</time>
  <course>250.8</course>
  <speed>0.0</speed>
  <fix>3d</fix>
</trkpt>
<trkpt lat="40.0728419" lon="-105.2305749">
  <ele>1586.18</ele>
  <time>2026-08-28T19:06:28Z</time>
  <course>11.52</course>
  <speed>0.022360679774997897</speed>
  <fix>3d</fix>
</trkpt>
<trkpt lat="40.072842" lon="-105.230575">
  <ele>1586.09</ele>
  <time>2026-08-28T19:06:28Z</time>
  <course>250.8</course>
  <speed>0.0</speed>
  <fix>3d</fix>
</trkpt>
<trkpt lat="40.0728419" lon="-105.2305749">
  <ele>1586.19</ele>
  <time>2026-08-28T19:06:28Z</time>
  <course>11.53</course>
  <speed>0.022360679774997897</speed>
  <fix>3d</fix>
</trkpt>
<trkpt lat="40.072842" lon="-105.230575">
  <ele>1586.09</ele>
  <time>2026-08-28T19:06:28Z</time>
  <course>250.8</course>
  <speed>0.0</speed>
  <fix>3d</fix>
</trkpt>
<trkpt lat="40.0728419" lon="-105.2305749">
  <ele>1586.19</ele>
  <time>2026-08-28T19:06:28Z</time>
  <course>11.53</course>
  <speed>0.022360679774997897</speed>
  <fix>3d</fix>
</trkpt>
<trkpt lat="40.072842" lon="-105.230575">
  <ele>1586.09</ele>
  <time>2026-08-28T19:06:28Z</time>
  <course>250.8</course>
  <speed>0.0</speed>
  <fix>3d</fix>
</trkpt>
<trkpt lat="40.0728419" lon="-105.2305749">
  <ele>1586.2</ele>
  <time>2026-08-28T19:06:28Z</time>
  <course>11.53</course>
  <speed>0.022360679774997897</speed>
  <fix>3d</fix>
</trkpt>
<trkpt lat="40.072842" lon="-105.230575">
  <ele>1586.09</ele>
  <time>2026-08-28T19:06:28Z</time>
  <course>250.8</course>
  <speed>0.0</speed>
  <fix>3d</fix>
</trkpt>
<trkpt lat="40.0728419" lon="-105.2305749">
  <ele>1586.2</ele>
  <time>2026-08-28T19:06:28Z</time>
  <course>11.53</course>
  <speed>0.022360679774997897</speed>
  <fix>3d</fix>
</trkpt>
<trkpt lat="40.072842" lon="-105.230575">
  <ele>1586.09</ele>
  <time>2026-08-28T19:06:28Z</time>
  <course>250.8</course>
  <speed>0.0</speed>
  <fix>3d</fix>
</trkpt>
<trkpt lat="40.0728419" lon="-105.2305749">
  <ele>1586.2</ele>
  <time>2026-08-28T19:06:28Z</time>
  <course>11.53</course>
  <speed>0.022360679774997897</speed>
  <fix>3d</fix>
</trkpt>
<trkpt lat="40.072842" lon="-105.230575">
  <ele>1586.09</ele>
  <time>2026-08-28T19:06:28Z</time>
  <course>250.8</course>
  <speed>0.0</speed>
  <fix>3d</fix>
</trkpt>
<trkpt lat="40.0728419" lon="-105.2305749">
  <ele>1586.2</ele>
  <time>2026-08-28T19:06:28Z</time>
  <course>11.53</course>
  <speed>0.022360679774997897</speed>
  <fix>3d</fix>
</trkpt>
<trkpt lat="40.072842" lon="-105.230575">
  <ele>1586.09</ele>
  <time>2026-08-28T19:06:28Z</time>
  <course>250.8</course>
  <speed>0.0</speed>
  <fix>3d</fix>
</trkpt>
<trkpt lat="40.0728419" lon="-105.2305749">
  <ele>1586.2</ele>
  <time>2026-08-28T19:06:28Z</time>
  <course>11.53</course>
  <speed>0.022360679774997897</speed>
  <fix>3d</fix>
</trkpt>
<trkpt lat="40.072842" lon="-105.230575">
  <ele>1586.09</ele>
  <time>2026-08-28T19:06:28Z</time>
  <course>250.8</course>
  <speed>0.0</speed>
  <fix>3d</fix>
</trkpt>
<trkpt lat="40.0728419" lon="-105.2305749">
  <ele>1586.19</ele>
  <time>2026-08-28T19:06:28Z</time>
  <course>11.53</course>
  <speed>0.022360679774997897</speed>
  <fix>3d</fix>
</trkpt>
<trkpt lat="40.072842" lon="-105.230575">
  <ele>1586.09</ele>
  <time>2026-08-28T19:06:28Z</time>
  <course>250.8</course>
  <speed>0.0</speed>
  <fix>3d</fix>
</trkpt>
<trkpt lat="40.0728419" lon="-105.2305749">
  <ele>1586.19</ele>
  <time>2026-08-28T19:06:28Z</time>
  <course>11.53</course>
  <speed>0.022360679774997897</speed>
  <fix>3d</fix>
</trkpt>
<trkpt lat="40.072842" lon="-105.230575">
  <ele>1586.09</ele>
  <time>2026-08-28T19:06:28Z</time>
  <course>250.8</course>
  <speed>0.0</speed>
  <fix>3d</fix>
</trkpt>
<trkpt lat="40.0728419" lon="-105.2305749">
  <ele>1586.18</ele>
  <time>2026-08-28T19:06:28Z</time>
  <course>11.53</course>
  <speed>0.022360679774997897</speed>
  <fix>3d</fix>
</trkpt>
<trkpt lat="40.072842" lon="-105.230575">
  <ele>1586.09</ele>
  <time>2026-08-28T19:06:28Z</time>
  <course>250.8</course>
  <speed>0.0</speed>
  <fix>3d</fix>
</trkpt>
<trkpt lat="40.0728419" lon="-105.2305749">
  <ele>1586.18</ele>
  <time>2026-08-28T19:06:28Z</time>
  <course>11.53</course>
  <speed>0.022360679774997897</speed>
  <fix>3d</fix>
</trkpt>
<trkpt lat="40.072842" lon="-105.230575">
  <ele>1586.09</ele>
  <time>2026-08-28T19:06:28Z</time>
  <course>250.8</course>
  <speed>0.0</speed>
  <fix>3d</fix>
</trkpt>
<trkpt lat="40.0728419" lon="-105.2305749">
  <ele>1586.18</ele>
  <time>2026-08-28T19:06:28Z</time>
  <course>11.54</course>
  <speed>0.022360679774997897</speed>
  <fix>3d</fix>
</trkpt>
<trkpt lat="40.072842" lon="-105.230575">
  <ele>1586.09</ele>
  <time>2026-08-28T19:06:28Z</time>
  <course>250.8</course>
  <speed>0.0</speed>
  <fix>3d</fix>
</trkpt>
<trkpt lat="40.0728419" lon="-105.2305749">
  <ele>1586.18</ele>
  <time>2026-08-28T19:06:28Z</time>
  <course>11.54</course>
  <speed>0.022360679774997897</speed>
  <fix>3d</fix>
</trkpt>
<trkpt lat="40.072842" lon="-105.230575">
  <ele>1586.09</ele>
  <time>2026-08-28T19:06:28Z</time>
  <course>250.8</course>
  <speed>0.0</speed>
  <fix>3d</fix>
</trkpt>
<trkpt lat="40.0728419" lon="-105.2305749">
  <ele>1586.18</ele>
  <time>2026-08-28T19:06:28Z</time>
  <course>11.54</course>
  <speed>0.022360679774997897</speed>
  <fix>3d</fix>
</trkpt>
<trkpt lat="40.072842" lon="-105.230575">
  <ele>1586.09</ele>
  <time>2026-08-28T19:06:28Z</time>
  <course>250.8</course>
  <speed>0.0</speed>
  <fix>3d</fix>
</trkpt>
<trkpt lat="40.0728419" lon="-105.2305749">
  <ele>1586.18</ele>
  <time>2026-08-28T19:06:28Z</time>
  <course>11.54</course>
  <speed>0.022360679774997897</speed>
  <fix>3d</fix>
</trkpt>
<trkpt lat="40.072842" lon="-105.230575">
  <ele>1586.09</ele>
  <time>2026-08-28T19:06:28Z</time>
  <course>250.8</course>
  <speed>0.0</speed>
  <fix>3d</fix>
</trkpt>
<trkpt lat="40.0728419" lon="-105.2305749">
  <ele>1586.17</ele>
  <time>2026-08-28T19:06:28Z</time>
  <course>11.54</course>
  <speed>0.022360679774997897</speed>
  <fix>3d</fix>
</trkpt>
<trkpt lat="40.072842" lon="-105.230575">
  <ele>1586.09</ele>
  <time>2026-08-28T19:06:28Z</time>
  <course>250.8</course>
  <speed>0.0</speed>
  <fix>3d</fix>
</trkpt>
<trkpt lat="40.0728419" lon="-105.2305749">
  <ele>1586.17</ele>
  <time>2026-08-28T19:06:28Z</time>
  <course>11.54</course>
  <speed>0.022360679774997897</speed>
  <fix>3d</fix>
</trkpt>
<trkpt lat="40.072842" lon="-105.230575">
  <ele>1586.09</ele>
  <time>2026-08-28T19:06:28Z</time>
  <course>250.8</course>
  <speed>0.0</speed>
  <fix>3d</fix>
</trkpt>
<trkpt lat="40.0728419" lon="-105.2305749">
  <ele>1586.17</ele>
  <time>2026-08-28T19:06:28Z</time>
  <course>11.54</course>
  <speed>0.022360679774997897</speed>
  <fix>3d</fix>
</trkpt>
<trkpt lat="40.072842" lon="-105.230575">
  <ele>1586.09</ele>
  <time>2026-08-28T19:06:28Z</time>
  <course>250.8</course>
  <speed>0.0</speed>
  <fix>3d</fix>
</trkpt>
<trkpt lat="40.0728419" lon="-105.2305749">
  <ele>1586.17</ele>
  <time>2026-08-28T19:06:28Z</time>
  <course>11.54</course>
  <speed>0.022360679774997897</speed>
  <fix>3d</fix>
</trkpt>
<trkpt lat="40.072842" lon="-105.230575">
  <ele>1586.09</ele>
  <time>2026-08-28T19:06:28Z</time>
  <course>250.8</course>
  <speed>0.0</speed>
  <fix>3d</fix>
</trkpt>
<trkpt lat="40.0728419" lon="-105.2305749">
  <ele>1586.17</ele>
  <time>2026-08-28T19:06:28Z</time>
  <course>11.54</course>
  <speed>0.022360679774997897</speed>
  <fix>3d</fix>
</trkpt>
<trkpt lat="40.072842" lon="-105.230575">
  <ele>1586.09</ele>
  <time>2026-08-28T19:06:28Z</time>
  <course>250.8</course>
  <speed>0.0</speed>
  <fix>3d</fix>
</trkpt>
<trkpt lat="40.0728419" lon="-105.2305749">
  <ele>1586.17</ele>
  <time>2026-08-28T19:06:28Z</time>
  <course>11.54</course>
  <speed>0.022360679774997897</speed>
  <fix>3d</fix>
</trkpt>
<trkpt lat="40.072842" lon="-105.230575">
  <ele>1586.09</ele>
  <time>2026-08-28T19:06:28Z</time>
  <course>250.8</course>
  <speed>0.0</speed>
  <fix>3d</fix>
</trkpt>
<trkpt lat="40.0728419" lon="-105.2305749">
  <ele>1586.17</ele>
  <time>2026-08-28T19:06:28Z</time>
  <course>11.54</course>
  <speed>0.022360679774997897</speed>
  <fix>3d</fix>
</trkpt>
<trkpt lat="40.072842" lon="-105.230575">
  <ele>1586.09</ele>
  <time>2026-08-28T19:06:28Z</time>
  <course>250.8</course>
  <speed>0.0</speed>
  <fix>3d</fix>
</trkpt>
<trkpt lat="40.0728419" lon="-105.2305749">
  <ele>1586.17</ele>
  <time>2026-08-28T19:06:28Z</time>
  <course>11.54</course>
  <speed>0.022360679774997897</speed>
  <fix>3d</fix>
</trkpt>
<trkpt lat="40.072842" lon="-105.230575">
  <ele>1586.09</ele>
  <time>2026-08-28T19:06:28Z</time>
  <course>250.8</course>
  <speed>0.0</speed>
  <fix>3d</fix>
</trkpt>
<trkpt lat="40.0728419" lon="-105.2305749">
  <ele>1586.18</ele>
  <time>2026-08-28T19:06:28Z</time>
  <course>11.54</course>
  <speed>0.022360679774997897</speed>
  <fix>3d</fix>
</trkpt>
<trkpt lat="40.072842" lon="-105.230575">
  <ele>1586.09</ele>
  <time>2026-08-28T19:06:28Z</time>
  <course>250.8</course>
  <speed>0.0</speed>
  <fix>3d</fix>
</trkpt>
<trkpt lat="40.0728419" lon="-105.2305749">
  <ele>1586.18</ele>
  <time>2026-08-28T19:06:28Z</time>
  <course>11.55</course>
  <speed>0.022360679774997897</speed>
  <fix>3d</fix>
</trkpt>
<trkpt lat="40.072842" lon="-105.230575">
  <ele>1586.09</ele>
  <time>2026-08-28T19:06:28Z</time>
  <course>250.8</course>
  <speed>0.0</speed>
  <fix>3d</fix>
</trkpt>
<trkpt lat="40.0728419" lon="-105.2305749">
  <ele>1586.18</ele>
  <time>2026-08-28T19:06:28Z</time>
  <course>11.55</course>
  <speed>0.022360679774997897</speed>
  <fix>3d</fix>
</trkpt>
<trkpt lat="40.072842" lon="-105.230575">
  <ele>1586.09</ele>
  <time>2026-08-28T19:06:28Z</time>
  <course>250.8</course>
  <speed>0.0</speed>
  <fix>3d</fix>
</trkpt>
<trkpt lat="40.0728419" lon="-105.2305749">
  <ele>1586.18</ele>
  <time>2026-08-28T19:06:28Z</time>
  <course>11.55</course>
  <speed>0.022360679774997897</speed>
  <fix>3d</fix>
</trkpt>
<trkpt lat="40.072842" lon="-105.230575">
  <ele>1586.09</ele>
  <time>2026-08-28T19:06:28Z</time>
  <course>250.8</course>
  <speed>0.0</speed>
  <fix>3d</fix>
</trkpt>
<trkpt lat="40.0728419" lon="-105.2305749">
  <ele>1586.18</ele>
  <time>2026-08-28T19:06:28Z</time>
  <course>11.55</course>
  <speed>0.022360679774997897</speed>
  <fix>3d</fix>
</trkpt>
<trkpt lat="40.072842" lon="-105.230575">
  <ele>1586.09</ele>
  <time>2026-08-28T19:06:28Z</time>
  <course>250.8</course>
  <speed>0.0</speed>
  <fix>3d</fix>
</trkpt>
<trkpt lat="40.0728419" lon="-105.2305749">
  <ele>1586.18</ele>
  <time>2026-08-28T19:06:28Z</time>
  <course>11.55</course>
  <speed>0.022360679774997897</speed>
  <fix>3d</fix>
</trkpt>
<trkpt lat="40.072842" lon="-105.230575">
  <ele>1586.09</ele>
  <time>2026-08-28T19:06:28Z</time>
  <course>250.8</course>
  <speed>0.0</speed>
  <fix>3d</fix>
</trkpt>
<trkpt lat="40.0728419" lon="-105.2305749">
  <ele>1586.18</ele>
  <time>2026-08-28T19:06:28Z</time>
  <course>11.55</course>
  <speed>0.022360679774997897</speed>
  <fix>3d</fix>
</trkpt>
<trkpt lat="40.072842" lon="-105.230575">
  <ele>1586.09</ele>
  <time>2026-08-28T19:06:28Z</time>
  <course>250.8</course>
  <speed>0.0</speed>
  <fix>3d</fix>
</trkpt>
<trkpt lat="40.0728419" lon="-105.2305749">
  <ele>1586.18</ele>
  <time>2026-08-28T19:06:28Z</time>
  <course>11.55</course>
  <speed>0.022360679774997897</speed>
  <fix>3d</fix>
</trkpt>
<trkpt lat="40.072842" lon="-105.230575">
  <ele>1586.09</ele>
  <time>2026-08-28T19:06:28Z</time>
  <course>250.8</course>
  <speed>0.0</speed>
  <fix>3d</fix>
</trkpt>
<trkpt lat="40.0728419" lon="-105.2305749">
  <ele>1586.18</ele>
  <time>2026-08-28T19:06:28Z</time>
  <course>11.55</course>
  <speed>0.022360679774997897</speed>
  <fix>3d</fix>
</trkpt>
<trkpt lat="40.072842" lon="-105.230575">
  <ele>1586.09</ele>
  <time>2026-08-28T19:06:28Z</time>
  <course>250.8</course>
  <speed>0.0</speed>
  <fix>3d</fix>
</trkpt>
<trkpt lat="40.0728419" lon="-105.2305749">
  <ele>1586.18</ele>
  <time>2026-08-28T19:06:28Z</time>
  <course>11.55</course>
  <speed>0.022360679774997897</speed>
  <fix>3d</fix>
</trkpt>
<trkpt lat="40.072842" lon="-105.230575">
  <ele>1586.09</ele>
  <time>2026-08-28T19:06:28Z</time>
  <course>250.8</course>
  <speed>0.0</speed>
  <fix>3d</fix>
</trkpt>
<trkpt lat="40.0728419" lon="-105.2305749">
  <ele>1586.18</ele>
  <time>2026-08-28T19:06:28Z</time>
  <course>11.55</course>
  <speed>0.022360679774997897</speed>
  <fix>3d</fix>
</trkpt>
<trkpt lat="40.072842" lon="-105.230575">
  <ele>1586.09</ele>
  <time>2026-08-28T19:06:28Z</time>
  <course>250.8</course>
  <speed>0.0</speed>
  <fix>3d</fix>
</trkpt>
<trkpt lat="40.0728419" lon="-105.2305749">
  <ele>1586.17</ele>
  <time>2026-08-28T19:06:28Z</time>
  <course>11.55</course>
  <speed>0.022360679774997897</speed>
  <fix>3d</fix>
</trkpt>
<trkpt lat="40.072842" lon="-105.230575">
  <ele>1586.09</ele>
  <time>2026-08-28T19:06:28Z</time>
  <course>250.8</course>
  <speed>0.0</speed>
  <fix>3d</fix>
</trkpt>
<trkpt lat="40.0728419" lon="-105.2305749">
  <ele>1586.17</ele>
  <time>2026-08-28T19:06:28Z</time>
  <course>11.55</course>
  <speed>0.022360679774997897</speed>
  <fix>3d</fix>
</trkpt>
<trkpt lat="40.072842" lon="-105.230575">
  <ele>1586.09</ele>
  <time>2026-08-28T19:06:28Z</time>
  <course>250.8</course>
  <speed>0.0</speed>
  <fix>3d</fix>
</trkpt>
<trkpt lat="40.0728419" lon="-105.2305749">
  <ele>1586.17</ele>
  <time>2026-08-28T19:06:28Z</time>
  <course>11.55</course>
  <speed>0.022360679774997897</speed>
  <fix>3d</fix>
</trkpt>
<trkpt lat="40.072842" lon="-105.230575">
  <ele>1586.09</ele>
  <time>2026-08-28T19:06:28Z</time>
  <course>250.8</course>
  <speed>0.0</speed>
  <fix>3d</fix>
</trkpt>
<trkpt lat="40.0728419" lon="-105.2305749">
  <ele>1586.17</ele>
  <time>2026-08-28T19:06:28Z</time>
  <course>11.55</course>
  <speed>0.022360679774997897</speed>
  <fix>3d</fix>
</trkpt>
<trkpt lat="40.072842" lon="-105.230575">
  <ele>1586.09</ele>
  <time>2026-08-28T19:06:28Z</time>
  <course>250.8</course>
  <speed>0.0</speed>
  <fix>3d</fix>
</trkpt>
<trkpt lat="40.0728419" lon="-105.2305749">
  <ele>1586.17</ele>
  <time>2026-08-28T19:06:28Z</time>
  <course>11.56</course>
  <speed>0.022360679774997897</speed>
  <fix>3d</fix>
</trkpt>
<trkpt lat="40.072842" lon="-105.230575">
  <ele>1586.09</ele>
  <time>2026-08-28T19:06:28Z</time>
  <course>250.8</course>
  <speed>0.0</speed>
  <fix>3d</fix>
</trkpt>
<trkpt lat="40.0728419" lon="-105.2305749">
  <ele>1586.17</ele>
  <time>2026-08-28T19:06:28Z</time>
  <course>11.56</course>
  <speed>0.022360679774997897</speed>
  <fix>3d</fix>
</trkpt>
<trkpt lat="40.072842" lon="-105.230575">
  <ele>1586.09</ele>
  <time>2026-08-28T19:06:28Z</time>
  <course>250.8</course>
  <speed>0.0</speed>
  <fix>3d</fix>
</trkpt>
<trkpt lat="40.0728419" lon="-105.2305749">
  <ele>1586.16</ele>
  <time>2026-08-28T19:06:28Z</time>
  <course>11.56</course>
  <speed>0.022360679774997897</speed>
  <fix>3d</fix>
</trkpt>
<trkpt lat="40.072842" lon="-105.230575">
  <ele>1586.09</ele>
  <time>2026-08-28T19:06:28Z</time>
  <course>250.8</course>
  <speed>0.0</speed>
  <fix>3d</fix>
</trkpt>
<trkpt lat="40.0728419" lon="-105.2305749">
  <ele>1586.16</ele>
  <time>2026-08-28T19:06:28Z</time>
  <course>11.56</course>
  <speed>0.022360679774997897</speed>
  <fix>3d</fix>
</trkpt>
<trkpt lat="40.072842" lon="-105.230575">
  <ele>1586.09</ele>
  <time>2026-08-28T19:06:28Z</time>
  <course>250.8</course>
  <speed>0.0</speed>
  <fix>3d</fix>
</trkpt>
<trkpt lat="40.0728419" lon="-105.2305749">
  <ele>1586.16</ele>
  <time>2026-08-28T19:06:28Z</time>
  <course>11.56</course>
  <speed>0.022360679774997897</speed>
  <fix>3d</fix>
</trkpt>
<trkpt lat="40.072842" lon="-105.230575">
  <ele>1586.09</ele>
  <time>2026-08-28T19:06:28Z</time>
  <course>250.8</course>
  <speed>0.0</speed>
  <fix>3d</fix>
</trkpt>
<trkpt lat="40.0728419" lon="-105.2305749">
  <ele>1586.16</ele>
  <time>2026-08-28T19:06:28Z</time>
  <course>11.56</course>
  <speed>0.022360679774997897</speed>
  <fix>3d</fix>
</trkpt>
<trkpt lat="40.072842" lon="-105.230575">
  <ele>1586.09</ele>
  <time>2026-08-28T19:06:28Z</time>
  <course>250.8</course>
  <speed>0.0</speed>
  <fix>3d</fix>
</trkpt>
<trkpt lat="40.0728419" lon="-105.2305749">
  <ele>1586.17</ele>
  <time>2026-08-28T19:06:28Z</time>
  <course>11.56</course>
  <speed>0.022360679774997897</speed>
  <fix>3d</fix>
</trkpt>
<trkpt lat="40.072842" lon="-105.230575">
  <ele>1586.09</ele>
  <time>2026-08-28T19:06:28Z</time>
  <course>250.8</course>
  <speed>0.0</speed>
  <fix>3d</fix>
</trkpt>
<trkpt lat="40.0728419" lon="-105.2305749">
  <ele>1586.17</ele>
  <time>2026-08-28T19:06:28Z</time>
  <course>11.56</course>
  <speed>0.022360679774997897</speed>
  <fix>3d</fix>
</trkpt>
<trkpt lat="40.072842" lon="-105.230575">
  <ele>1586.09</ele>
  <time>2026-08-28T19:06:28Z</time>
  <course>250.8</course>
  <speed>0.0</speed>
  <fix>3d</fix>
</trkpt>
<trkpt lat="40.0728419" lon="-105.2305749">
  <ele>1586.17</ele>
  <time>2026-08-28T19:06:28Z</time>
  <course>11.56</course>
  <speed>0.022360679774997897</speed>
  <fix>3d</fix>
</trkpt>
<trkpt lat="40.072842" lon="-105.230575">
  <ele>1586.09</ele>
  <time>2026-08-28T19:06:28Z</time>
  <course>250.8</course>
  <speed>0.0</speed>
  <fix>3d</fix>
</trkpt>
<trkpt lat="40.0728419" lon="-105.2305749">
  <ele>1586.17</ele>
  <time>2026-08-28T19:06:28Z</time>
  <course>11.56</course>
  <speed>0.022360679774997897</speed>
  <fix>3d</fix>
</trkpt>
<trkpt lat="40.072842" lon="-105.230575">
  <ele>1586.09</ele>
  <time>2026-08-28T19:06:28Z</time>
  <course>250.8</course>
  <speed>0.0</speed>
  <fix>3d</fix>
</trkpt>
<trkpt lat="40.0728419" lon="-105.2305749">
  <ele>1586.17</ele>
  <time>2026-08-28T19:06:28Z</time>
  <course>11.56</course>
  <speed>0.022360679774997897</speed>
  <fix>3d</fix>
</trkpt>
<trkpt lat="40.072842" lon="-105.230575">
  <ele>1586.09</ele>
  <time>2026-08-28T19:06:28Z</time>
  <course>21.97</course>
  <speed>0.0</speed>
  <fix>3d</fix>
</trkpt>
<trkpt lat="40.0728419" lon="-105.2305749">
  <ele>1586.17</ele>
  <time>2026-08-28T19:06:28Z</time>
  <course>11.56</course>
  <speed>0.022360679774997897</speed>
  <fix>3d</fix>
</trkpt>
<trkpt lat="40.072842" lon="-105.230575">
  <ele>1586.09</ele>
  <time>2026-08-28T19:06:28Z</time>
  <course>10.49</course>
  <speed>0.0</speed>
  <fix>3d</fix>
</trkpt>
<trkpt lat="40.0728419" lon="-105.2305749">
  <ele>1586.17</ele>
  <time>2026-08-28T19:06:28Z</time>
  <course>11.56</course>
  <speed>0.022360679774997897</speed>
  <fix>3d</fix>
</trkpt>
<trkpt lat="40.072842" lon="-105.230575">
  <ele>1586.09</ele>
  <time>2026-08-28T19:06:28Z</time>
  <course>346.43</course>
  <speed>0.0</speed>
  <fix>3d</fix>
</trkpt>
<trkpt lat="40.0728419" lon="-105.2305749">
  <ele>1586.17</ele>
  <time>2026-08-28T19:06:28Z</time>
  <course>11.56</course>
  <speed>0.022360679774997897</speed>
  <fix>3d</fix>
</trkpt>
<trkpt lat="40.072842" lon="-105.230575">
  <ele>1586.09</ele>
  <time>2026-08-28T19:06:28Z</time>
  <course>225.6</course>
  <speed>0.0</speed>
  <fix>3d</fix>
</trkpt>
<trkpt lat="40.0728419" lon="-105.2305749">
  <ele>1586.17</ele>
  <time>2026-08-28T19:06:28Z</time>
  <course>11.56</course>
  <speed>0.022360679774997897</speed>
  <fix>3d</fix>
</trkpt>
<trkpt lat="40.072842" lon="-105.230575">
  <ele>1586.09</ele>
  <time>2026-08-28T19:06:28Z</time>
  <course>197.68</course>
  <speed>0.0</speed>
  <fix>3d</fix>
</trkpt>
<trkpt lat="40.0728419" lon="-105.2305749">
  <ele>1586.17</ele>
  <time>2026-08-28T19:06:28Z</time>
  <course>11.56</course>
  <speed>0.022360679774997897</speed>
  <fix>3d</fix>
</trkpt>
<trkpt lat="40.072842" lon="-105.230575">
  <ele>1586.09</ele>
  <time>2026-08-28T19:06:28Z</time>
  <course>322.87</course>
  <speed>0.0</speed>
  <fix>3d</fix>
</trkpt>
<trkpt lat="40.0728419" lon="-105.2305749">
  <ele>1586.17</ele>
  <time>2026-08-28T19:06:28Z</time>
  <course>11.56</course>
  <speed>0.022360679774997897</speed>
  <fix>3d</fix>
</trkpt>
<trkpt lat="40.072842" lon="-105.230575">
  <ele>1586.09</ele>
  <time>2026-08-28T19:06:28Z</time>
  <course>295.33</course>
  <speed>0.0</speed>
  <fix>3d</fix>
</trkpt>
<trkpt lat="40.0728419" lon="-105.2305749">
  <ele>1586.17</ele>
  <time>2026-08-28T19:06:29Z</time>
  <course>11.56</course>
  <speed>0.022360679774997897</speed>
  <fix>3d</fix>
</trkpt>
<trkpt lat="40.072842" lon="-105.230575">
  <ele>1586.09</ele>
  <time>2026-08-28T19:06:29Z</time>
  <course>287.18</course>
  <speed>0.0</speed>
  <fix>3d</fix>
</trkpt>
<trkpt lat="40.0728419" lon="-105.2305749">
  <ele>1586.17</ele>
  <time>2026-08-28T19:06:29Z</time>
  <course>11.56</course>
  <speed>0.022360679774997897</speed>
  <fix>3d</fix>
</trkpt>
<trkpt lat="40.072842" lon="-105.230575">
  <ele>1586.09</ele>
  <time>2026-08-28T19:06:29Z</time>
  <course>292.62</course>
  <speed>0.0</speed>
  <fix>3d</fix>
</trkpt>
<trkpt lat="40.0728419" lon="-105.2305749">
  <ele>1586.16</ele>
  <time>2026-08-28T19:06:29Z</time>
  <course>11.56</course>
  <speed>0.022360679774997897</speed>
  <fix>3d</fix>
</trkpt>
<trkpt lat="40.072842" lon="-105.230575">
  <ele>1586.09</ele>
  <time>2026-08-28T19:06:29Z</time>
  <course>293.11</course>
  <speed>0.0</speed>
  <fix>3d</fix>
</trkpt>
<trkpt lat="40.0728419" lon="-105.2305749">
  <ele>1586.16</ele>
  <time>2026-08-28T19:06:29Z</time>
  <course>11.56</course>
  <speed>0.022360679774997897</speed>
  <fix>3d</fix>
</trkpt>
<trkpt lat="40.072842" lon="-105.230575">
  <ele>1586.09</ele>
  <time>2026-08-28T19:06:29Z</time>
  <course>292.34</course>
  <speed>0.0</speed>
  <fix>3d</fix>
</trkpt>
<trkpt lat="40.0728419" lon="-105.2305749">
  <ele>1586.16</ele>
  <time>2026-08-28T19:06:29Z</time>
  <course>11.57</course>
  <speed>0.022360679774997897</speed>
  <fix>3d</fix>
</trkpt>
<trkpt lat="40.072842" lon="-105.230575">
  <ele>1586.09</ele>
  <time>2026-08-28T19:06:29Z</time>
  <course>292.36</course>
  <speed>0.0</speed>
  <fix>3d</fix>
</trkpt>
<trkpt lat="40.0728419" lon="-105.2305749">
  <ele>1586.15</ele>
  <time>2026-08-28T19:06:29Z</time>
  <course>11.57</course>
  <speed>0.022360679774997897</speed>
  <fix>3d</fix>
</trkpt>
<trkpt lat="40.072842" lon="-105.230575">
  <ele>1586.09</ele>
  <time>2026-08-28T19:06:29Z</time>
  <course>292.47</course>
  <speed>0.0</speed>
  <fix>3d</fix>
</trkpt>
<trkpt lat="40.0728419" lon="-105.2305749">
  <ele>1586.15</ele>
  <time>2026-08-28T19:06:29Z</time>
  <course>11.57</course>
  <speed>0.022360679774997897</speed>
  <fix>3d</fix>
</trkpt>
<trkpt lat="40.072842" lon="-105.230575">
  <ele>1586.09</ele>
  <time>2026-08-28T19:06:29Z</time>
  <course>292.45</course>
  <speed>0.0</speed>
  <fix>3d</fix>
</trkpt>
<trkpt lat="40.0728419" lon="-105.2305749">
  <ele>1586.15</ele>
  <time>2026-08-28T19:06:29Z</time>
  <course>11.57</course>
  <speed>0.022360679774997897</speed>
  <fix>3d</fix>
</trkpt>
<trkpt lat="40.072842" lon="-105.230575">
  <ele>1586.09</ele>
  <time>2026-08-28T19:06:29Z</time>
  <course>292.44</course>
  <speed>0.0</speed>
  <fix>3d</fix>
</trkpt>
<trkpt lat="40.0728419" lon="-105.2305749">
  <ele>1586.15</ele>
  <time>2026-08-28T19:06:29Z</time>
  <course>11.57</course>
  <speed>0.022360679774997897</speed>
  <fix>3d</fix>
</trkpt>
<trkpt lat="40.072842" lon="-105.230575">
  <ele>1586.09</ele>
  <time>2026-08-28T19:06:29Z</time>
  <course>292.44</course>
  <speed>0.0</speed>
  <fix>3d</fix>
</trkpt>
<trkpt lat="40.0728419" lon="-105.2305749">
  <ele>1586.15</ele>
  <time>2026-08-28T19:06:29Z</time>
  <course>11.57</course>
  <speed>0.022360679774997897</speed>
  <fix>3d</fix>
</trkpt>
<trkpt lat="40.072842" lon="-105.230575">
  <ele>1586.09</ele>
  <time>2026-08-28T19:06:29Z</time>
  <course>292.44</course>
  <speed>0.0</speed>
  <fix>3d</fix>
</trkpt>
<trkpt lat="40.0728419" lon="-105.2305749">
  <ele>1586.14</ele>
  <time>2026-08-28T19:06:29Z</time>
  <course>11.57</course>
  <speed>0.022360679774997897</speed>
  <fix>3d</fix>
</trkpt>
<trkpt lat="40.072842" lon="-105.230575">
  <ele>1586.09</ele>
  <time>2026-08-28T19:06:29Z</time>
  <course>292.44</course>
  <speed>0.0</speed>
  <fix>3d</fix>
</trkpt>
<trkpt lat="40.0728419" lon="-105.2305749">
  <ele>1586.14</ele>
  <time>2026-08-28T19:06:29Z</time>
  <course>11.57</course>
  <speed>0.022360679774997897</speed>
  <fix>3d</fix>
</trkpt>
<trkpt lat="40.072842" lon="-105.230575">
  <ele>1586.09</ele>
  <time>2026-08-28T19:06:29Z</time>
  <course>292.44</course>
  <speed>0.0</speed>
  <fix>3d</fix>
</trkpt>
<trkpt lat="40.0728419" lon="-105.2305749">
  <ele>1586.14</ele>
  <time>2026-08-28T19:06:29Z</time>
  <course>11.57</course>
  <speed>0.022360679774997897</speed>
  <fix>3d</fix>
</trkpt>
<trkpt lat="40.072842" lon="-105.230575">
  <ele>1586.09</ele>
  <time>2026-08-28T19:06:29Z</time>
  <course>292.44</course>
  <speed>0.0</speed>
  <fix>3d</fix>
</trkpt>
<trkpt lat="40.0728419" lon="-105.2305749">
  <ele>1586.13</ele>
  <time>2026-08-28T19:06:29Z</time>
  <course>11.57</course>
  <speed>0.022360679774997897</speed>
  <fix>3d</fix>
</trkpt>
<trkpt lat="40.072842" lon="-105.230575">
  <ele>1586.09</ele>
  <time>2026-08-28T19:06:29Z</time>
  <course>292.44</course>
  <speed>0.0</speed>
  <fix>3d</fix>
</trkpt>
<trkpt lat="40.0728419" lon="-105.2305749">
  <ele>1586.14</ele>
  <time>2026-08-28T19:06:29Z</time>
  <course>11.57</course>
  <speed>0.022360679774997897</speed>
  <fix>3d</fix>
</trkpt>
<trkpt lat="40.072842" lon="-105.230575">
  <ele>1586.09</ele>
  <time>2026-08-28T19:06:29Z</time>
  <course>292.44</course>
  <speed>0.0</speed>
  <fix>3d</fix>
</trkpt>
<trkpt lat="40.0728419" lon="-105.2305749">
  <ele>1586.14</ele>
  <time>2026-08-28T19:06:29Z</time>
  <course>11.57</course>
  <speed>0.022360679774997897</speed>
  <fix>3d</fix>
</trkpt>
<trkpt lat="40.072842" lon="-105.230575">
  <ele>1586.09</ele>
  <time>2026-08-28T19:06:29Z</time>
  <course>292.44</course>
  <speed>0.0</speed>
  <fix>3d</fix>
</trkpt>
<trkpt lat="40.0728419" lon="-105.2305749">
  <ele>1586.14</ele>
  <time>2026-08-28T19:06:29Z</time>
  <course>11.57</course>
  <speed>0.022360679774997897</speed>
  <fix>3d</fix>
</trkpt>
<trkpt lat="40.072842" lon="-105.230575">
  <ele>1586.09</ele>
  <time>2026-08-28T19:06:29Z</time>
  <course>292.44</course>
  <speed>0.0</speed>
  <fix>3d</fix>
</trkpt>
<trkpt lat="40.0728419" lon="-105.2305749">
  <ele>1586.15</ele>
  <time>2026-08-28T19:06:29Z</time>
  <course>11.57</course>
  <speed>0.022360679774997897</speed>
  <fix>3d</fix>
</trkpt>
<trkpt lat="40.072842" lon="-105.230575">
  <ele>1586.09</ele>
  <time>2026-08-28T19:06:29Z</time>
  <course>292.44</course>
  <speed>0.0</speed>
  <fix>3d</fix>
</trkpt>
<trkpt lat="40.0728419" lon="-105.2305749">
  <ele>1586.15</ele>
  <time>2026-08-28T19:06:29Z</time>
  <course>11.57</course>
  <speed>0.022360679774997897</speed>
  <fix>3d</fix>
</trkpt>
<trkpt lat="40.072842" lon="-105.230575">
  <ele>1586.09</ele>
  <time>2026-08-28T19:06:29Z</time>
  <course>292.44</course>
  <speed>0.0</speed>
  <fix>3d</fix>
</trkpt>
<trkpt lat="40.0728419" lon="-105.2305749">
  <ele>1586.16</ele>
  <time>2026-08-28T19:06:29Z</time>
  <course>11.57</course>
  <speed>0.022360679774997897</speed>
  <fix>3d</fix>
</trkpt>
<trkpt lat="40.072842" lon="-105.230575">
  <ele>1586.09</ele>
  <time>2026-08-28T19:06:29Z</time>
  <course>292.44</course>
  <speed>0.0</speed>
  <fix>3d</fix>
</trkpt>
<trkpt lat="40.0728419" lon="-105.2305749">
  <ele>1586.16</ele>
  <time>2026-08-28T19:06:29Z</time>
  <course>11.57</course>
  <speed>0.022360679774997897</speed>
  <fix>3d</fix>
</trkpt>
<trkpt lat="40.072842" lon="-105.230575">
  <ele>1586.09</ele>
  <time>2026-08-28T19:06:29Z</time>
  <course>292.44</course>
  <speed>0.0</speed>
  <fix>3d</fix>
</trkpt>
<trkpt lat="40.0728419" lon="-105.2305749">
  <ele>1586.16</ele>
  <time>2026-08-28T19:06:29Z</time>
  <course>11.57</course>
  <speed>0.022360679774997897</speed>
  <fix>3d</fix>
</trkpt>
<trkpt lat="40.072842" lon="-105.230575">
  <ele>1586.09</ele>
  <time>2026-08-28T19:06:29Z</time>
  <course>292.44</course>
  <speed>0.0</speed>
  <fix>3d</fix>
</trkpt>
<trkpt lat="40.0728419" lon="-105.2305749">
  <ele>1586.16</ele>
  <time>2026-08-28T19:06:29Z</time>
  <course>11.57</course>
  <speed>0.022360679774997897</speed>
  <fix>3d</fix>
</trkpt>
<trkpt lat="40.072842" lon="-105.230575">
  <ele>1586.09</ele>
  <time>2026-08-28T19:06:29Z</time>
  <course>292.44</course>
  <speed>0.0</speed>
  <fix>3d</fix>
</trkpt>
<trkpt lat="40.0728419" lon="-105.2305749">
  <ele>1586.16</ele>
  <time>2026-08-28T19:06:29Z</time>
  <course>11.57</course>
  <speed>0.022360679774997897</speed>
  <fix>3d</fix>
</trkpt>
<trkpt lat="40.072842" lon="-105.230575">
  <ele>1586.09</ele>
  <time>2026-08-28T19:06:29Z</time>
  <course>292.44</course>
  <speed>0.0</speed>
  <fix>3d</fix>
</trkpt>
<trkpt lat="40.0728419" lon="-105.2305749">
  <ele>1586.16</ele>
  <time>2026-08-28T19:06:29Z</time>
  <course>11.57</course>
  <speed>0.022360679774997897</speed>
  <fix>3d</fix>
</trkpt>
<trkpt lat="40.072842" lon="-105.230575">
  <ele>1586.09</ele>
  <time>2026-08-28T19:06:29Z</time>
  <course>292.44</course>
  <speed>0.0</speed>
  <fix>3d</fix>
</trkpt>
<trkpt lat="40.0728419" lon="-105.2305749">
  <ele>1586.16</ele>
  <time>2026-08-28T19:06:29Z</time>
  <course>11.57</course>
  <speed>0.022360679774997897</speed>
  <fix>3d</fix>
</trkpt>
<trkpt lat="40.072842" lon="-105.230575">
  <ele>1586.09</ele>
  <time>2026-08-28T19:06:29Z</time>
  <course>292.44</course>
  <speed>0.0</speed>
  <fix>3d</fix>
</trkpt>
<trkpt lat="40.0728419" lon="-105.2305749">
  <ele>1586.15</ele>
  <time>2026-08-28T19:06:29Z</time>
  <course>11.57</course>
  <speed>0.022360679774997897</speed>
  <fix>3d</fix>
</trkpt>
<trkpt lat="40.072842" lon="-105.230575">
  <ele>1586.09</ele>
  <time>2026-08-28T19:06:29Z</time>
  <course>292.44</course>
  <speed>0.0</speed>
  <fix>3d</fix>
</trkpt>
<trkpt lat="40.0728419" lon="-105.2305749">
  <ele>1586.15</ele>
  <time>2026-08-28T19:06:29Z</time>
  <course>11.57</course>
  <speed>0.022360679774997897</speed>
  <fix>3d</fix>
</trkpt>
<trkpt lat="40.072842" lon="-105.230575">
  <ele>1586.09</ele>
  <time>2026-08-28T19:06:29Z</time>
  <course>292.44</course>
  <speed>0.0</speed>
  <fix>3d</fix>
</trkpt>
<trkpt lat="40.0728419" lon="-105.2305749">
  <ele>1586.15</ele>
  <time>2026-08-28T19:06:29Z</time>
  <course>11.57</course>
  <speed>0.022360679774997897</speed>
  <fix>3d</fix>
</trkpt>
<trkpt lat="40.072842" lon="-105.230575">
  <ele>1586.09</ele>
  <time>2026-08-28T19:06:29Z</time>
  <course>292.44</course>
  <speed>0.0</speed>
  <fix>3d</fix>
</trkpt>
<trkpt lat="40.0728419" lon="-105.2305749">
  <ele>1586.15</ele>
  <time>2026-08-28T19:06:29Z</time>
  <course>11.57</course>
  <speed>0.022360679774997897</speed>
  <fix>3d</fix>
</trkpt>
<trkpt lat="40.072842" lon="-105.230575">
  <ele>1586.09</ele>
  <time>2026-08-28T19:06:29Z</time>
  <course>292.44</course>
  <speed>0.0</speed>
  <fix>3d</fix>
</trkpt>
<trkpt lat="40.0728419" lon="-105.2305749">
  <ele>1586.16</ele>
  <time>2026-08-28T19:06:29Z</time>
  <course>11.57</course>
  <speed>0.022360679774997897</speed>
  <fix>3d</fix>
</trkpt>
<trkpt lat="40.072842" lon="-105.230575">
  <ele>1586.09</ele>
  <time>2026-08-28T19:06:29Z</time>
  <course>292.44</course>
  <speed>0.0</speed>
  <fix>3d</fix>
</trkpt>
<trkpt lat="40.0728419" lon="-105.2305749">
  <ele>1586.16</ele>
  <time>2026-08-28T19:06:29Z</time>
  <course>11.57</course>
  <speed>0.022360679774997897</speed>
  <fix>3d</fix>
</trkpt>
<trkpt lat="40.072842" lon="-105.230575">
  <ele>1586.09</ele>
  <time>2026-08-28T19:06:29Z</time>
  <course>292.44</course>
  <speed>0.0</speed>
  <fix>3d</fix>
</trkpt>
<trkpt lat="40.0728419" lon="-105.2305749">
  <ele>1586.16</ele>
  <time>2026-08-28T19:06:29Z</time>
  <course>11.57</course>
  <speed>0.022360679774997897</speed>
  <fix>3d</fix>
</trkpt>
<trkpt lat="40.072842" lon="-105.230575">
  <ele>1586.09</ele>
  <time>2026-08-28T19:06:29Z</time>
  <course>292.44</course>
  <speed>0.0</speed>
  <fix>3d</fix>
</trkpt>
<trkpt lat="40.0728419" lon="-105.2305749">
  <ele>1586.16</ele>
  <time>2026-08-28T19:06:29Z</time>
  <course>11.58</course>
  <speed>0.022360679774997897</speed>
  <fix>3d</fix>
</trkpt>
<trkpt lat="40.072842" lon="-105.230575">
  <ele>1586.09</ele>
  <time>2026-08-28T19:06:29Z</time>
  <course>292.44</course>
  <speed>0.0</speed>
  <fix>3d</fix>
</trkpt>
<trkpt lat="40.0728419" lon="-105.2305749">
  <ele>1586.16</ele>
  <time>2026-08-28T19:06:29Z</time>
  <course>11.58</course>
  <speed>0.022360679774997897</speed>
  <fix>3d</fix>
</trkpt>
<trkpt lat="40.072842" lon="-105.230575">
  <ele>1586.09</ele>
  <time>2026-08-28T19:06:29Z</time>
  <course>292.44</course>
  <speed>0.0</speed>
  <fix>3d</fix>
</trkpt>
<trkpt lat="40.0728419" lon="-105.2305749">
  <ele>1586.16</ele>
  <time>2026-08-28T19:06:29Z</time>
  <course>11.58</course>
  <speed>0.022360679774997897</speed>
  <fix>3d</fix>
</trkpt>
<trkpt lat="40.072842" lon="-105.230575">
  <ele>1586.09</ele>
  <time>2026-08-28T19:06:29Z</time>
  <course>292.44</course>
  <speed>0.0</speed>
  <fix>3d</fix>
</trkpt>
<trkpt lat="40.0728419" lon="-105.2305749">
  <ele>1586.16</ele>
  <time>2026-08-28T19:06:29Z</time>
  <course>11.58</course>
  <speed>0.022360679774997897</speed>
  <fix>3d</fix>
</trkpt>
<trkpt lat="40.072842" lon="-105.230575">
  <ele>1586.09</ele>
  <time>2026-08-28T19:06:29Z</time>
  <course>292.44</course>
  <speed>0.0</speed>
  <fix>3d</fix>
</trkpt>
<trkpt lat="40.0728419" lon="-105.2305749">
  <ele>1586.16</ele>
  <time>2026-08-28T19:06:29Z</time>
  <course>11.58</course>
  <speed>0.022360679774997897</speed>
  <fix>3d</fix>
</trkpt>
<trkpt lat="40.072842" lon="-105.230575">
  <ele>1586.09</ele>
  <time>2026-08-28T19:06:29Z</time>
  <course>292.44</course>
  <speed>0.0</speed>
  <fix>3d</fix>
</trkpt>
<trkpt lat="40.0728419" lon="-105.2305749">
  <ele>1586.16</ele>
  <time>2026-08-28T19:06:29Z</time>
  <course>11.58</course>
  <speed>0.022360679774997897</speed>
  <fix>3d</fix>
</trkpt>
<trkpt lat="40.072842" lon="-105.230575">
  <ele>1586.09</ele>
  <time>2026-08-28T19:06:29Z</time>
  <course>292.44</course>
  <speed>0.0</speed>
  <fix>3d</fix>
</trkpt>
<trkpt lat="40.0728419" lon="-105.2305749">
  <ele>1586.16</ele>
  <time>2026-08-28T19:06:29Z</time>
  <course>11.58</course>
  <speed>0.022360679774997897</speed>
  <fix>3d</fix>
</trkpt>
<trkpt lat="40.072842" lon="-105.230575">
  <ele>1586.09</ele>
  <time>2026-08-28T19:06:29Z</time>
  <course>292.44</course>
  <speed>0.0</speed>
  <fix>3d</fix>
</trkpt>
<trkpt lat="40.0728419" lon="-105.2305749">
  <ele>1586.15</ele>
  <time>2026-08-28T19:06:29Z</time>
  <course>11.58</course>
  <speed>0.022360679774997897</speed>
  <fix>3d</fix>
</trkpt>
<trkpt lat="40.072842" lon="-105.230575">
  <ele>1586.09</ele>
  <time>2026-08-28T19:06:29Z</time>
  <course>292.44</course>
  <speed>0.0</speed>
  <fix>3d</fix>
</trkpt>
<trkpt lat="40.0728419" lon="-105.2305749">
  <ele>1586.15</ele>
  <time>2026-08-28T19:06:29Z</time>
  <course>11.58</course>
  <speed>0.022360679774997897</speed>
  <fix>3d</fix>
</trkpt>
<trkpt lat="40.072842" lon="-105.230575">
  <ele>1586.09</ele>
  <time>2026-08-28T19:06:29Z</time>
  <course>292.44</course>
  <speed>0.0</speed>
  <fix>3d</fix>
</trkpt>
<trkpt lat="40.0728419" lon="-105.2305749">
  <ele>1586.15</ele>
  <time>2026-08-28T19:06:29Z</time>
  <course>11.58</course>
  <speed>0.022360679774997897</speed>
  <fix>3d</fix>
</trkpt>
<trkpt lat="40.072842" lon="-105.230575">
  <ele>1586.09</ele>
  <time>2026-08-28T19:06:29Z</time>
  <course>292.44</course>
  <speed>0.0</speed>
  <fix>3d</fix>
</trkpt>
<trkpt lat="40.0728419" lon="-105.2305749">
  <ele>1586.16</ele>
  <time>2026-08-28T19:06:29Z</time>
  <course>11.58</course>
  <speed>0.022360679774997897</speed>
  <fix>3d</fix>
</trkpt>
<trkpt lat="40.072842" lon="-105.230575">
  <ele>1586.09</ele>
  <time>2026-08-28T19:06:29Z</time>
  <course>292.44</course>
  <speed>0.0</speed>
  <fix>3d</fix>
</trkpt>
<trkpt lat="40.0728419" lon="-105.2305749">
  <ele>1586.16</ele>
  <time>2026-08-28T19:06:29Z</time>
  <course>11.58</course>
  <speed>0.022360679774997897</speed>
  <fix>3d</fix>
</trkpt>
<trkpt lat="40.072842" lon="-105.230575">
  <ele>1586.09</ele>
  <time>2026-08-28T19:06:29Z</time>
  <course>292.44</course>
  <speed>0.0</speed>
  <fix>3d</fix>
</trkpt>
<trkpt lat="40.0728419" lon="-105.2305749">
  <ele>1586.16</ele>
  <time>2026-08-28T19:06:29Z</time>
  <course>11.58</course>
  <speed>0.022360679774997897</speed>
  <fix>3d</fix>
</trkpt>
<trkpt lat="40.072842" lon="-105.230575">
  <ele>1586.09</ele>
  <time>2026-08-28T19:06:29Z</time>
  <course>292.44</course>
  <speed>0.0</speed>
  <fix>3d</fix>
</trkpt>
<trkpt lat="40.0728419" lon="-105.2305749">
  <ele>1586.16</ele>
  <time>2026-08-28T19:06:29Z</time>
  <course>11.58</course>
  <speed>0.022360679774997897</speed>
  <fix>3d</fix>
</trkpt>
<trkpt lat="40.072842" lon="-105.230575">
  <ele>1586.09</ele>
  <time>2026-08-28T19:06:29Z</time>
  <course>292.44</course>
  <speed>0.0</speed>
  <fix>3d</fix>
</trkpt>
<trkpt lat="40.0728419" lon="-105.2305749">
  <ele>1586.16</ele>
  <time>2026-08-28T19:06:29Z</time>
  <course>11.58</course>
  <speed>0.022360679774997897</speed>
  <fix>3d</fix>
</trkpt>
<trkpt lat="40.072842" lon="-105.230575">
  <ele>1586.09</ele>
  <time>2026-08-28T19:06:29Z</time>
  <course>292.44</course>
  <speed>0.0</speed>
  <fix>3d</fix>
</trkpt>
<trkpt lat="40.0728419" lon="-105.2305749">
  <ele>1586.16</ele>
  <time>2026-08-28T19:06:29Z</time>
  <course>11.58</course>
  <speed>0.022360679774997897</speed>
  <fix>3d</fix>
</trkpt>
<trkpt lat="40.072842" lon="-105.230575">
  <ele>1586.09</ele>
  <time>2026-08-28T19:06:29Z</time>
  <course>292.44</course>
  <speed>0.0</speed>
  <fix>3d</fix>
</trkpt>
<trkpt lat="40.0728419" lon="-105.2305749">
  <ele>1586.16</ele>
  <time>2026-08-28T19:06:29Z</time>
  <course>11.58</course>
  <speed>0.022360679774997897</speed>
  <fix>3d</fix>
</trkpt>
<trkpt lat="40.072842" lon="-105.230575">
  <ele>1586.09</ele>
  <time>2026-08-28T19:06:29Z</time>
  <course>292.44</course>
  <speed>0.0</speed>
  <fix>3d</fix>
</trkpt>
<trkpt lat="40.0728419" lon="-105.2305749">
  <ele>1586.16</ele>
  <time>2026-08-28T19:06:29Z</time>
  <course>11.58</course>
  <speed>0.022360679774997897</speed>
  <fix>3d</fix>
</trkpt>
<trkpt lat="40.072842" lon="-105.230575">
  <ele>1586.09</ele>
  <time>2026-08-28T19:06:29Z</time>
  <course>292.44</course>
  <speed>0.0</speed>
  <fix>3d</fix>
</trkpt>
<trkpt lat="40.0728419" lon="-105.2305749">
  <ele>1586.16</ele>
  <time>2026-08-28T19:06:29Z</time>
  <course>11.58</course>
  <speed>0.022360679774997897</speed>
  <fix>3d</fix>
</trkpt>
<trkpt lat="40.072842" lon="-105.230575">
  <ele>1586.09</ele>
  <time>2026-08-28T19:06:29Z</time>
  <course>292.44</course>
  <speed>0.0</speed>
  <fix>3d</fix>
</trkpt>
<trkpt lat="40.0728419" lon="-105.2305749">
  <ele>1586.16</ele>
  <time>2026-08-28T19:06:29Z</time>
  <course>11.58</course>
  <speed>0.022360679774997897</speed>
  <fix>3d</fix>
</trkpt>
<trkpt lat="40.072842" lon="-105.230575">
  <ele>1586.09</ele>
  <time>2026-08-28T19:06:29Z</time>
  <course>292.44</course>
  <speed>0.0</speed>
  <fix>3d</fix>
</trkpt>
<trkpt lat="40.0728419" lon="-105.2305749">
  <ele>1586.15</ele>
  <time>2026-08-28T19:06:29Z</time>
  <course>11.58</course>
  <speed>0.022360679774997897</speed>
  <fix>3d</fix>
</trkpt>
<trkpt lat="40.072842" lon="-105.230575">
  <ele>1586.09</ele>
  <time>2026-08-28T19:06:29Z</time>
  <course>292.44</course>
  <speed>0.0</speed>
  <fix>3d</fix>
</trkpt>
<trkpt lat="40.0728419" lon="-105.2305749">
  <ele>1586.16</ele>
  <time>2026-08-28T19:06:29Z</time>
  <course>11.58</course>
  <speed>0.022360679774997897</speed>
  <fix>3d</fix>
</trkpt>
<trkpt lat="40.072842" lon="-105.230575">
  <ele>1586.09</ele>
  <time>2026-08-28T19:06:29Z</time>
  <course>292.44</course>
  <speed>0.0</speed>
  <fix>3d</fix>
</trkpt>
<trkpt lat="40.0728419" lon="-105.2305749">
  <ele>1586.17</ele>
  <time>2026-08-28T19:06:29Z</time>
  <course>11.58</course>
  <speed>0.022360679774997897</speed>
  <fix>3d</fix>
</trkpt>
<trkpt lat="40.072842" lon="-105.230575">
  <ele>1586.09</ele>
  <time>2026-08-28T19:06:29Z</time>
  <course>292.44</course>
  <speed>0.0</speed>
  <fix>3d</fix>
</trkpt>
<trkpt lat="40.0728419" lon="-105.2305749">
  <ele>1586.17</ele>
  <time>2026-08-28T19:06:29Z</time>
  <course>11.58</course>
  <speed>0.022360679774997897</speed>
  <fix>3d</fix>
</trkpt>
<trkpt lat="40.072842" lon="-105.230575">
  <ele>1586.09</ele>
  <time>2026-08-28T19:06:29Z</time>
  <course>292.44</course>
  <speed>0.0</speed>
  <fix>3d</fix>
</trkpt>
<trkpt lat="40.0728419" lon="-105.2305749">
  <ele>1586.17</ele>
  <time>2026-08-28T19:06:29Z</time>
  <course>11.58</course>
  <speed>0.022360679774997897</speed>
  <fix>3d</fix>
</trkpt>
<trkpt lat="40.072842" lon="-105.230575">
  <ele>1586.09</ele>
  <time>2026-08-28T19:06:29Z</time>
  <course>292.44</course>
  <speed>0.0</speed>
  <fix>3d</fix>
</trkpt>
<trkpt lat="40.0728419" lon="-105.2305749">
  <ele>1586.17</ele>
  <time>2026-08-28T19:06:29Z</time>
  <course>11.58</course>
  <speed>0.022360679774997897</speed>
  <fix>3d</fix>
</trkpt>
<trkpt lat="40.072842" lon="-105.230575">
  <ele>1586.09</ele>
  <time>2026-08-28T19:06:29Z</time>
  <course>292.44</course>
  <speed>0.0</speed>
  <fix>3d</fix>
</trkpt>
<trkpt lat="40.0728419" lon="-105.2305749">
  <ele>1586.17</ele>
  <time>2026-08-28T19:06:29Z</time>
  <course>11.58</course>
  <speed>0.022360679774997897</speed>
  <fix>3d</fix>
</trkpt>
<trkpt lat="40.072842" lon="-105.230575">
  <ele>1586.09</ele>
  <time>2026-08-28T19:06:29Z</time>
  <course>292.44</course>
  <speed>0.0</speed>
  <fix>3d</fix>
</trkpt>
<trkpt lat="40.0728419" lon="-105.2305749">
  <ele>1586.16</ele>
  <time>2026-08-28T19:06:29Z</time>
  <course>11.58</course>
  <speed>0.022360679774997897</speed>
  <fix>3d</fix>
</trkpt>
<trkpt lat="40.072842" lon="-105.230575">
  <ele>1586.09</ele>
  <time>2026-08-28T19:06:29Z</time>
  <course>292.44</course>
  <speed>0.0</speed>
  <fix>3d</fix>
</trkpt>
<trkpt lat="40.0728419" lon="-105.2305749">
  <ele>1586.16</ele>
  <time>2026-08-28T19:06:29Z</time>
  <course>11.58</course>
  <speed>0.022360679774997897</speed>
  <fix>3d</fix>
</trkpt>
<trkpt lat="40.072842" lon="-105.230575">
  <ele>1586.09</ele>
  <time>2026-08-28T19:06:29Z</time>
  <course>292.44</course>
  <speed>0.0</speed>
  <fix>3d</fix>
</trkpt>
<trkpt lat="40.0728419" lon="-105.2305749">
  <ele>1586.16</ele>
  <time>2026-08-28T19:06:29Z</time>
  <course>11.58</course>
  <speed>0.022360679774997897</speed>
  <fix>3d</fix>
</trkpt>
<trkpt lat="40.072842" lon="-105.230575">
  <ele>1586.09</ele>
  <time>2026-08-28T19:06:29Z</time>
  <course>292.44</course>
  <speed>0.0</speed>
  <fix>3d</fix>
</trkpt>
<trkpt lat="40.0728419" lon="-105.2305749">
  <ele>1586.16</ele>
  <time>2026-08-28T19:06:29Z</time>
  <course>11.58</course>
  <speed>0.022360679774997897</speed>
  <fix>3d</fix>
</trkpt>
<trkpt lat="40.072842" lon="-105.230575">
  <ele>1586.09</ele>
  <time>2026-08-28T19:06:29Z</time>
  <course>292.44</course>
  <speed>0.0</speed>
  <fix>3d</fix>
</trkpt>
<trkpt lat="40.0728419" lon="-105.2305749">
  <ele>1586.16</ele>
  <time>2026-08-28T19:06:29Z</time>
  <course>11.58</course>
  <speed>0.022360679774997897</speed>
  <fix>3d</fix>
</trkpt>
<trkpt lat="40.072842" lon="-105.230575">
  <ele>1586.09</ele>
  <time>2026-08-28T19:06:29Z</time>
  <course>292.44</course>
  <speed>0.0</speed>
  <fix>3d</fix>
</trkpt>
<trkpt lat="40.0728419" lon="-105.2305749">
  <ele>1586.15</ele>
  <time>2026-08-28T19:06:29Z</time>
  <course>11.58</course>
  <speed>0.022360679774997897</speed>
  <fix>3d</fix>
</trkpt>
<trkpt lat="40.072842" lon="-105.230575">
  <ele>1586.09</ele>
  <time>2026-08-28T19:06:29Z</time>
  <course>292.44</course>
  <speed>0.0</speed>
  <fix>3d</fix>
</trkpt>
<trkpt lat="40.0728419" lon="-105.2305749">
  <ele>1586.15</ele>
  <time>2026-08-28T19:06:29Z</time>
  <course>11.58</course>
  <speed>0.022360679774997897</speed>
  <fix>3d</fix>
</trkpt>
<trkpt lat="40.072842" lon="-105.230575">
  <ele>1586.09</ele>
  <time>2026-08-28T19:06:29Z</time>
  <course>292.44</course>
  <speed>0.0</speed>
  <fix>3d</fix>
</trkpt>
<trkpt lat="40.0728419" lon="-105.2305749">
  <ele>1586.15</ele>
  <time>2026-08-28T19:06:29Z</time>
  <course>11.58</course>
  <speed>0.022360679774997897</speed>
  <fix>3d</fix>
</trkpt>
<trkpt lat="40.072842" lon="-105.230575">
  <ele>1586.09</ele>
  <time>2026-08-28T19:06:29Z</time>
  <course>292.44</course>
  <speed>0.0</speed>
  <fix>3d</fix>
</trkpt>
<trkpt lat="40.0728419" lon="-105.2305749">
  <ele>1586.16</ele>
  <time>2026-08-28T19:06:29Z</time>
  <course>11.58</course>
  <speed>0.022360679774997897</speed>
  <fix>3d</fix>
</trkpt>
<trkpt lat="40.072842" lon="-105.230575">
  <ele>1586.09</ele>
  <time>2026-08-28T19:06:29Z</time>
  <course>292.44</course>
  <speed>0.0</speed>
  <fix>3d</fix>
</trkpt>
<trkpt lat="40.0728419" lon="-105.2305749">
  <ele>1586.16</ele>
  <time>2026-08-28T19:06:29Z</time>
  <course>11.58</course>
  <speed>0.022360679774997897</speed>
  <fix>3d</fix>
</trkpt>
<trkpt lat="40.072842" lon="-105.230575">
  <ele>1586.09</ele>
  <time>2026-08-28T19:06:29Z</time>
  <course>292.44</course>
  <speed>0.0</speed>
  <fix>3d</fix>
</trkpt>
<trkpt lat="40.0728419" lon="-105.2305749">
  <ele>1586.16</ele>
  <time>2026-08-28T19:06:29Z</time>
  <course>11.58</course>
  <speed>0.022360679774997897</speed>
  <fix>3d</fix>
</trkpt>
<trkpt lat="40.072842" lon="-105.230575">
  <ele>1586.09</ele>
  <time>2026-08-28T19:06:29Z</time>
  <course>292.44</course>
  <speed>0.0</speed>
  <fix>3d</fix>
</trkpt>
<trkpt lat="40.0728419" lon="-105.2305749">
  <ele>1586.15</ele>
  <time>2026-08-28T19:06:29Z</time>
  <course>11.58</course>
  <speed>0.022360679774997897</speed>
  <fix>3d</fix>
</trkpt>
<trkpt lat="40.072842" lon="-105.230575">
  <ele>1586.09</ele>
  <time>2026-08-28T19:06:29Z</time>
  <course>292.44</course>
  <speed>0.0</speed>
  <fix>3d</fix>
</trkpt>
<trkpt lat="40.0728419" lon="-105.2305749">
  <ele>1586.15</ele>
  <time>2026-08-28T19:06:29Z</time>
  <course>11.58</course>
  <speed>0.022360679774997897</speed>
  <fix>3d</fix>
</trkpt>
<trkpt lat="40.072842" lon="-105.230575">
  <ele>1586.09</ele>
  <time>2026-08-28T19:06:29Z</time>
  <course>292.44</course>
  <speed>0.0</speed>
  <fix>3d</fix>
</trkpt>
<trkpt lat="40.0728419" lon="-105.2305749">
  <ele>1586.16</ele>
  <time>2026-08-28T19:06:29Z</time>
  <course>11.58</course>
  <speed>0.022360679774997897</speed>
  <fix>3d</fix>
</trkpt>
<trkpt lat="40.072842" lon="-105.230575">
  <ele>1586.09</ele>
  <time>2026-08-28T19:06:29Z</time>
  <course>292.44</course>
  <speed>0.0</speed>
  <fix>3d</fix>
</trkpt>
<trkpt lat="40.0728419" lon="-105.2305749">
  <ele>1586.16</ele>
  <time>2026-08-28T19:06:29Z</time>
  <course>11.58</course>
  <speed>0.022360679774997897</speed>
  <fix>3d</fix>
</trkpt>
<trkpt lat="40.072842" lon="-105.230575">
  <ele>1586.09</ele>
  <time>2026-08-28T19:06:29Z</time>
  <course>292.44</course>
  <speed>0.0</speed>
  <fix>3d</fix>
</trkpt>
<trkpt lat="40.0728419" lon="-105.2305749">
  <ele>1586.16</ele>
  <time>2026-08-28T19:06:29Z</time>
  <course>11.58</course>
  <speed>0.022360679774997897</speed>
  <fix>3d</fix>
</trkpt>
<trkpt lat="40.072842" lon="-105.230575">
  <ele>1586.09</ele>
  <time>2026-08-28T19:06:29Z</time>
  <course>292.44</course>
  <speed>0.0</speed>
  <fix>3d</fix>
</trkpt>
<trkpt lat="40.0728419" lon="-105.2305749">
  <ele>1586.17</ele>
  <time>2026-08-28T19:06:29Z</time>
  <course>11.58</course>
  <speed>0.022360679774997897</speed>
  <fix>3d</fix>
</trkpt>
<trkpt lat="40.072842" lon="-105.230575">
  <ele>1586.09</ele>
  <time>2026-08-28T19:06:29Z</time>
  <course>292.44</course>
  <speed>0.0</speed>
  <fix>3d</fix>
</trkpt>
<trkpt lat="40.0728419" lon="-105.2305749">
  <ele>1586.17</ele>
  <time>2026-08-28T19:06:29Z</time>
  <course>11.58</course>
  <speed>0.022360679774997897</speed>
  <fix>3d</fix>
</trkpt>
<trkpt lat="40.072842" lon="-105.230575">
  <ele>1586.09</ele>
  <time>2026-08-28T19:06:29Z</time>
  <course>292.44</course>
  <speed>0.0</speed>
  <fix>3d</fix>
</trkpt>
<trkpt lat="40.0728419" lon="-105.2305749">
  <ele>1586.17</ele>
  <time>2026-08-28T19:06:29Z</time>
  <course>11.58</course>
  <speed>0.022360679774997897</speed>
  <fix>3d</fix>
</trkpt>
<trkpt lat="40.072842" lon="-105.230575">
  <ele>1586.09</ele>
  <time>2026-08-28T19:06:29Z</time>
  <course>292.44</course>
  <speed>0.0</speed>
  <fix>3d</fix>
</trkpt>
<trkpt lat="40.0728419" lon="-105.2305749">
  <ele>1586.17</ele>
  <time>2026-08-28T19:06:29Z</time>
  <course>11.58</course>
  <speed>0.022360679774997897</speed>
  <fix>3d</fix>
</trkpt>
<trkpt lat="40.072842" lon="-105.230575">
  <ele>1586.09</ele>
  <time>2026-08-28T19:06:29Z</time>
  <course>292.44</course>
  <speed>0.0</speed>
  <fix>3d</fix>
</trkpt>
<trkpt lat="40.0728419" lon="-105.2305749">
  <ele>1586.16</ele>
  <time>2026-08-28T19:06:29Z</time>
  <course>11.58</course>
  <speed>0.022360679774997897</speed>
  <fix>3d</fix>
</trkpt>
<trkpt lat="40.072842" lon="-105.230575">
  <ele>1586.09</ele>
  <time>2026-08-28T19:06:29Z</time>
  <course>292.44</course>
  <speed>0.0</speed>
  <fix>3d</fix>
</trkpt>
<trkpt lat="40.0728419" lon="-105.2305749">
  <ele>1586.16</ele>
  <time>2026-08-28T19:06:29Z</time>
  <course>11.58</course>
  <speed>0.022360679774997897</speed>
  <fix>3d</fix>
</trkpt>
<trkpt lat="40.072842" lon="-105.230575">
  <ele>1586.09</ele>
  <time>2026-08-28T19:06:29Z</time>
  <course>292.44</course>
  <speed>0.0</speed>
  <fix>3d</fix>
</trkpt>
<trkpt lat="40.0728419" lon="-105.2305749">
  <ele>1586.17</ele>
  <time>2026-08-28T19:06:29Z</time>
  <course>11.58</course>
  <speed>0.022360679774997897</speed>
  <fix>3d</fix>
</trkpt>
<trkpt lat="40.072842" lon="-105.230575">
  <ele>1586.09</ele>
  <time>2026-08-28T19:06:29Z</time>
  <course>292.44</course>
  <speed>0.0</speed>
  <fix>3d</fix>
</trkpt>
<trkpt lat="40.0728419" lon="-105.2305749">
  <ele>1586.17</ele>
  <time>2026-08-28T19:06:29Z</time>
  <course>11.58</course>
  <speed>0.022360679774997897</speed>
  <fix>3d</fix>
</trkpt>
<trkpt lat="40.072842" lon="-105.230575">
  <ele>1586.09</ele>
  <time>2026-08-28T19:06:29Z</time>
  <course>292.44</course>
  <speed>0.0</speed>
  <fix>3d</fix>
</trkpt>
<trkpt lat="40.0728419" lon="-105.2305749">
  <ele>1586.16</ele>
  <time>2026-08-28T19:06:29Z</time>
  <course>11.58</course>
  <speed>0.022360679774997897</speed>
  <fix>3d</fix>
</trkpt>
<trkpt lat="40.072842" lon="-105.230575">
  <ele>1586.09</ele>
  <time>2026-08-28T19:06:29Z</time>
  <course>292.44</course>
  <speed>0.0</speed>
  <fix>3d</fix>
</trkpt>
<trkpt lat="40.0728419" lon="-105.2305749">
  <ele>1586.16</ele>
  <time>2026-08-28T19:06:29Z</time>
  <course>11.58</course>
  <speed>0.022360679774997897</speed>
  <fix>3d</fix>
</trkpt>
<trkpt lat="40.072842" lon="-105.230575">
  <ele>1586.09</ele>
  <time>2026-08-28T19:06:29Z</time>
  <course>292.44</course>
  <speed>0.0</speed>
  <fix>3d</fix>
</trkpt>
<trkpt lat="40.0728419" lon="-105.2305749">
  <ele>1586.17</ele>
  <time>2026-08-28T19:06:29Z</time>
  <course>11.58</course>
  <speed>0.022360679774997897</speed>
  <fix>3d</fix>
</trkpt>
<trkpt lat="40.072842" lon="-105.230575">
  <ele>1586.09</ele>
  <time>2026-08-28T19:06:29Z</time>
  <course>292.44</course>
  <speed>0.0</speed>
  <fix>3d</fix>
</trkpt>
<trkpt lat="40.0728419" lon="-105.2305749">
  <ele>1586.17</ele>
  <time>2026-08-28T19:06:29Z</time>
  <course>11.58</course>
  <speed>0.022360679774997897</speed>
  <fix>3d</fix>
</trkpt>
<trkpt lat="40.072842" lon="-105.230575">
  <ele>1586.09</ele>
  <time>2026-08-28T19:06:29Z</time>
  <course>292.44</course>
  <speed>0.0</speed>
  <fix>3d</fix>
</trkpt>
<trkpt lat="40.0728419" lon="-105.2305749">
  <ele>1586.17</ele>
  <time>2026-08-28T19:06:29Z</time>
  <course>11.58</course>
  <speed>0.022360679774997897</speed>
  <fix>3d</fix>
</trkpt>
<trkpt lat="40.072842" lon="-105.230575">
  <ele>1586.09</ele>
  <time>2026-08-28T19:06:29Z</time>
  <course>292.44</course>
  <speed>0.0</speed>
  <fix>3d</fix>
</trkpt>
<trkpt lat="40.0728419" lon="-105.2305749">
  <ele>1586.17</ele>
  <time>2026-08-28T19:06:29Z</time>
  <course>11.58</course>
  <speed>0.022360679774997897</speed>
  <fix>3d</fix>
</trkpt>
<trkpt lat="40.072842" lon="-105.230575">
  <ele>1586.09</ele>
  <time>2026-08-28T19:06:29Z</time>
  <course>292.44</course>
  <speed>0.0</speed>
  <fix>3d</fix>
</trkpt>
<trkpt lat="40.0728419" lon="-105.2305749">
  <ele>1586.16</ele>
  <time>2026-08-28T19:06:29Z</time>
  <course>11.58</course>
  <speed>0.022360679774997897</speed>
  <fix>3d</fix>
</trkpt>
<trkpt lat="40.072842" lon="-105.230575">
  <ele>1586.09</ele>
  <time>2026-08-28T19:06:29Z</time>
  <course>292.44</course>
  <speed>0.0</speed>
  <fix>3d</fix>
</trkpt>
<trkpt lat="40.0728419" lon="-105.2305749">
  <ele>1586.16</ele>
  <time>2026-08-28T19:06:29Z</time>
  <course>11.58</course>
  <speed>0.022360679774997897</speed>
  <fix>3d</fix>
</trkpt>
<trkpt lat="40.072842" lon="-105.230575">
  <ele>1586.09</ele>
  <time>2026-08-28T19:06:29Z</time>
  <course>292.44</course>
  <speed>0.0</speed>
  <fix>3d</fix>
</trkpt>
<trkpt lat="40.0728419" lon="-105.2305749">
  <ele>1586.16</ele>
  <time>2026-08-28T19:06:29Z</time>
  <course>11.58</course>
  <speed>0.022360679774997897</speed>
  <fix>3d</fix>
</trkpt>
<trkpt lat="40.072842" lon="-105.230575">
  <ele>1586.09</ele>
  <time>2026-08-28T19:06:29Z</time>
  <course>292.44</course>
  <speed>0.0</speed>
  <fix>3d</fix>
</trkpt>
<trkpt lat="40.0728419" lon="-105.2305749">
  <ele>1586.17</ele>
  <time>2026-08-28T19:06:29Z</time>
  <course>11.58</course>
  <speed>0.022360679774997897</speed>
  <fix>3d</fix>
</trkpt>
<trkpt lat="40.072842" lon="-105.230575">
  <ele>1586.09</ele>
  <time>2026-08-28T19:06:29Z</time>
  <course>292.44</course>
  <speed>0.0</speed>
  <fix>3d</fix>
</trkpt>
<trkpt lat="40.0728419" lon="-105.2305749">
  <ele>1586.17</ele>
  <time>2026-08-28T19:06:29Z</time>
  <course>11.58</course>
  <speed>0.022360679774997897</speed>
  <fix>3d</fix>
</trkpt>
<trkpt lat="40.072842" lon="-105.230575">
  <ele>1586.09</ele>
  <time>2026-08-28T19:06:29Z</time>
  <course>292.44</course>
  <speed>0.0</speed>
  <fix>3d</fix>
</trkpt>
<trkpt lat="40.0728419" lon="-105.2305749">
  <ele>1586.18</ele>
  <time>2026-08-28T19:06:29Z</time>
  <course>11.58</course>
  <speed>0.022360679774997897</speed>
  <fix>3d</fix>
</trkpt>
<trkpt lat="40.072842" lon="-105.230575">
  <ele>1586.09</ele>
  <time>2026-08-28T19:06:29Z</time>
  <course>292.44</course>
  <speed>0.0</speed>
  <fix>3d</fix>
</trkpt>
<trkpt lat="40.0728419" lon="-105.2305749">
  <ele>1586.18</ele>
  <time>2026-08-28T19:06:29Z</time>
  <course>11.58</course>
  <speed>0.022360679774997897</speed>
  <fix>3d</fix>
</trkpt>
<trkpt lat="40.072842" lon="-105.230575">
  <ele>1586.09</ele>
  <time>2026-08-28T19:06:29Z</time>
  <course>292.44</course>
  <speed>0.0</speed>
  <fix>3d</fix>
</trkpt>
<trkpt lat="40.0728419" lon="-105.2305749">
  <ele>1586.17</ele>
  <time>2026-08-28T19:06:29Z</time>
  <course>11.58</course>
  <speed>0.022360679774997897</speed>
  <fix>3d</fix>
</trkpt>
<trkpt lat="40.072842" lon="-105.230575">
  <ele>1586.09</ele>
  <time>2026-08-28T19:06:29Z</time>
  <course>292.44</course>
  <speed>0.0</speed>
  <fix>3d</fix>
</trkpt>
<trkpt lat="40.0728419" lon="-105.2305749">
  <ele>1586.17</ele>
  <time>2026-08-28T19:06:29Z</time>
  <course>11.58</course>
  <speed>0.022360679774997897</speed>
  <fix>3d</fix>
</trkpt>
<trkpt lat="40.072842" lon="-105.230575">
  <ele>1586.09</ele>
  <time>2026-08-28T19:06:29Z</time>
  <course>292.44</course>
  <speed>0.0</speed>
  <fix>3d</fix>
</trkpt>
<trkpt lat="40.0728419" lon="-105.2305749">
  <ele>1586.18</ele>
  <time>2026-08-28T19:06:29Z</time>
  <course>11.58</course>
  <speed>0.022360679774997897</speed>
  <fix>3d</fix>
</trkpt>
<trkpt lat="40.072842" lon="-105.230575">
  <ele>1586.09</ele>
  <time>2026-08-28T19:06:29Z</time>
  <course>292.44</course>
  <speed>0.0</speed>
  <fix>3d</fix>
</trkpt>
<trkpt lat="40.0728419" lon="-105.2305749">
  <ele>1586.18</ele>
  <time>2026-08-28T19:06:29Z</time>
  <course>11.58</course>
  <speed>0.022360679774997897</speed>
  <fix>3d</fix>
</trkpt>
<trkpt lat="40.072842" lon="-105.230575">
  <ele>1586.09</ele>
  <time>2026-08-28T19:06:29Z</time>
  <course>292.44</course>
  <speed>0.0</speed>
  <fix>3d</fix>
</trkpt>
<trkpt lat="40.0728419" lon="-105.2305749">
  <ele>1586.18</ele>
  <time>2026-08-28T19:06:29Z</time>
  <course>11.58</course>
  <speed>0.022360679774997897</speed>
  <fix>3d</fix>
</trkpt>
<trkpt lat="40.072842" lon="-105.230575">
  <ele>1586.09</ele>
  <time>2026-08-28T19:06:29Z</time>
  <course>292.44</course>
  <speed>0.0</speed>
  <fix>3d</fix>
</trkpt>
<trkpt lat="40.0728419" lon="-105.2305749">
  <ele>1586.18</ele>
  <time>2026-08-28T19:06:29Z</time>
  <course>11.58</course>
  <speed>0.022360679774997897</speed>
  <fix>3d</fix>
</trkpt>
<trkpt lat="40.072842" lon="-105.230575">
  <ele>1586.09</ele>
  <time>2026-08-28T19:06:29Z</time>
  <course>292.44</course>
  <speed>0.0</speed>
  <fix>3d</fix>
</trkpt>
<trkpt lat="40.0728419" lon="-105.2305749">
  <ele>1586.18</ele>
  <time>2026-08-28T19:06:29Z</time>
  <course>11.58</course>
  <speed>0.022360679774997897</speed>
  <fix>3d</fix>
</trkpt>
<trkpt lat="40.072842" lon="-105.230575">
  <ele>1586.09</ele>
  <time>2026-08-28T19:06:29Z</time>
  <course>292.44</course>
  <speed>0.0</speed>
  <fix>3d</fix>
</trkpt>
<trkpt lat="40.0728419" lon="-105.2305749">
  <ele>1586.18</ele>
  <time>2026-08-28T19:06:29Z</time>
  <course>11.58</course>
  <speed>0.022360679774997897</speed>
  <fix>3d</fix>
</trkpt>
<trkpt lat="40.072842" lon="-105.230575">
  <ele>1586.09</ele>
  <time>2026-08-28T19:06:29Z</time>
  <course>292.44</course>
  <speed>0.0</speed>
  <fix>3d</fix>
</trkpt>
<trkpt lat="40.0728419" lon="-105.2305749">
  <ele>1586.18</ele>
  <time>2026-08-28T19:06:29Z</time>
  <course>11.58</course>
  <speed>0.022360679774997897</speed>
  <fix>3d</fix>
</trkpt>
<trkpt lat="40.072842" lon="-105.230575">
  <ele>1586.09</ele>
  <time>2026-08-28T19:06:29Z</time>
  <course>176.61</course>
  <speed>0.0</speed>
  <fix>3d</fix>
</trkpt>
<trkpt lat="40.0728419" lon="-105.2305749">
  <ele>1586.18</ele>
  <time>2026-08-28T19:06:29Z</time>
  <course>11.58</course>
  <speed>0.01414213562373095</speed>
  <fix>3d</fix>
</trkpt>
<trkpt lat="40.072842" lon="-105.230575">
  <ele>1586.09</ele>
  <time>2026-08-28T19:06:29Z</time>
  <course>156.3</course>
  <speed>0.0</speed>
  <fix>3d</fix>
</trkpt>
<trkpt lat="40.0728419" lon="-105.2305749">
  <ele>1586.17</ele>
  <time>2026-08-28T19:06:29Z</time>
  <course>11.58</course>
  <speed>0.01414213562373095</speed>
  <fix>3d</fix>
</trkpt>
<trkpt lat="40.072842" lon="-105.230575">
  <ele>1586.09</ele>
  <time>2026-08-28T19:06:29Z</time>
  <course>86.65</course>
  <speed>0.0</speed>
  <fix>3d</fix>
</trkpt>
<trkpt lat="40.0728419" lon="-105.2305749">
  <ele>1586.17</ele>
  <time>2026-08-28T19:06:29Z</time>
  <course>11.58</course>
  <speed>0.01414213562373095</speed>
  <fix>3d</fix>
</trkpt>
<trkpt lat="40.072842" lon="-105.230575">
  <ele>1586.09</ele>
  <time>2026-08-28T19:06:29Z</time>
  <course>307.47</course>
  <speed>0.0</speed>
  <fix>3d</fix>
</trkpt>
<trkpt lat="40.0728419" lon="-105.2305749">
  <ele>1586.17</ele>
  <time>2026-08-28T19:06:29Z</time>
  <course>11.58</course>
  <speed>0.01414213562373095</speed>
  <fix>3d</fix>
</trkpt>
<trkpt lat="40.072842" lon="-105.230575">
  <ele>1586.09</ele>
  <time>2026-08-28T19:06:29Z</time>
  <course>279.01</course>
  <speed>0.0</speed>
  <fix>3d</fix>
</trkpt>
<trkpt lat="40.0728419" lon="-105.2305749">
  <ele>1586.17</ele>
  <time>2026-08-28T19:06:29Z</time>
  <course>11.58</course>
  <speed>0.01414213562373095</speed>
  <fix>3d</fix>
</trkpt>
<trkpt lat="40.072842" lon="-105.230575">
  <ele>1586.09</ele>
  <time>2026-08-28T19:06:29Z</time>
  <course>279.76</course>
  <speed>0.0</speed>
  <fix>3d</fix>
</trkpt>
<trkpt lat="40.0728419" lon="-105.2305749">
  <ele>1586.17</ele>
  <time>2026-08-28T19:06:29Z</time>
  <course>11.58</course>
  <speed>0.01414213562373095</speed>
  <fix>3d</fix>
</trkpt>
<trkpt lat="40.072842" lon="-105.230575">
  <ele>1586.09</ele>
  <time>2026-08-28T19:06:29Z</time>
  <course>287.9</course>
  <speed>0.0</speed>
  <fix>3d</fix>
</trkpt>
<trkpt lat="40.0728419" lon="-105.2305749">
  <ele>1586.17</ele>
  <time>2026-08-28T19:06:29Z</time>
  <course>11.58</course>
  <speed>0.01414213562373095</speed>
  <fix>3d</fix>
</trkpt>
<trkpt lat="40.072842" lon="-105.230575">
  <ele>1586.09</ele>
  <time>2026-08-28T19:06:29Z</time>
  <course>286.7</course>
  <speed>0.0</speed>
  <fix>3d</fix>
</trkpt>
<trkpt lat="40.0728419" lon="-105.2305749">
  <ele>1586.17</ele>
  <time>2026-08-28T19:06:29Z</time>
  <course>11.58</course>
  <speed>0.01414213562373095</speed>
  <fix>3d</fix>
</trkpt>
<trkpt lat="40.072842" lon="-105.230575">
  <ele>1586.09</ele>
  <time>2026-08-28T19:06:29Z</time>
  <course>285.9</course>
  <speed>0.0</speed>
  <fix>3d</fix>
</trkpt>
<trkpt lat="40.0728419" lon="-105.2305749">
  <ele>1586.17</ele>
  <time>2026-08-28T19:06:29Z</time>
  <course>11.58</course>
  <speed>0.01414213562373095</speed>
  <fix>3d</fix>
</trkpt>
<trkpt lat="40.072842" lon="-105.230575">
  <ele>1586.09</ele>
  <time>2026-08-28T19:06:29Z</time>
  <course>286.16</course>
  <speed>0.0</speed>
  <fix>3d</fix>
</trkpt>
<trkpt lat="40.0728419" lon="-105.2305749">
  <ele>1586.16</ele>
  <time>2026-08-28T19:06:29Z</time>
  <course>11.58</course>
  <speed>0.022360679774997897</speed>
  <fix>3d</fix>
</trkpt>
<trkpt lat="40.072842" lon="-105.230575">
  <ele>1586.09</ele>
  <time>2026-08-28T19:06:29Z</time>
  <course>249.89</course>
  <speed>0.0</speed>
  <fix>3d</fix>
</trkpt>
<trkpt lat="40.0728419" lon="-105.2305749">
  <ele>1586.16</ele>
  <time>2026-08-28T19:06:29Z</time>
  <course>11.58</course>
  <speed>0.022360679774997897</speed>
  <fix>3d</fix>
</trkpt>
<trkpt lat="40.072842" lon="-105.230575">
  <ele>1586.09</ele>
  <time>2026-08-28T19:06:29Z</time>
  <course>215.28</course>
  <speed>0.0</speed>
  <fix>3d</fix>
</trkpt>
<trkpt lat="40.0728419" lon="-105.2305749">
  <ele>1586.15</ele>
  <time>2026-08-28T19:06:29Z</time>
  <course>11.58</course>
  <speed>0.01414213562373095</speed>
  <fix>3d</fix>
</trkpt>
<trkpt lat="40.072842" lon="-105.230575">
  <ele>1586.09</ele>
  <time>2026-08-28T19:06:29Z</time>
  <course>200.33</course>
  <speed>0.0</speed>
  <fix>3d</fix>
</trkpt>
<trkpt lat="40.0728419" lon="-105.2305749">
  <ele>1586.15</ele>
  <time>2026-08-28T19:06:29Z</time>
  <course>11.58</course>
  <speed>0.01414213562373095</speed>
  <fix>3d</fix>
</trkpt>
<trkpt lat="40.072842" lon="-105.230575">
  <ele>1586.09</ele>
  <time>2026-08-28T19:06:29Z</time>
  <course>168.98</course>
  <speed>0.0</speed>
  <fix>3d</fix>
</trkpt>
<trkpt lat="40.0728419" lon="-105.2305749">
  <ele>1586.15</ele>
  <time>2026-08-28T19:06:29Z</time>
  <course>11.58</course>
  <speed>0.01414213562373095</speed>
  <fix>3d</fix>
</trkpt>
<trkpt lat="40.072842" lon="-105.230575">
  <ele>1586.09</ele>
  <time>2026-08-28T19:06:29Z</time>
  <course>359.13</course>
  <speed>0.0</speed>
  <fix>3d</fix>
</trkpt>
<trkpt lat="40.0728419" lon="-105.2305749">
  <ele>1586.15</ele>
  <time>2026-08-28T19:06:29Z</time>
  <course>11.58</course>
  <speed>0.01414213562373095</speed>
  <fix>3d</fix>
</trkpt>
<trkpt lat="40.072842" lon="-105.230575">
  <ele>1586.09</ele>
  <time>2026-08-28T19:06:29Z</time>
  <course>266.27</course>
  <speed>0.0</speed>
  <fix>3d</fix>
</trkpt>
<trkpt lat="40.0728419" lon="-105.2305749">
  <ele>1586.14</ele>
  <time>2026-08-28T19:06:29Z</time>
  <course>11.58</course>
  <speed>0.01414213562373095</speed>
  <fix>3d</fix>
</trkpt>
<trkpt lat="40.072842" lon="-105.230575">
  <ele>1586.09</ele>
  <time>2026-08-28T19:06:29Z</time>
  <course>234.57</course>
  <speed>0.0</speed>
  <fix>3d</fix>
</trkpt>
<trkpt lat="40.0728419" lon="-105.2305749">
  <ele>1586.14</ele>
  <time>2026-08-28T19:06:29Z</time>
  <course>11.58</course>
  <speed>0.01414213562373095</speed>
  <fix>3d</fix>
</trkpt>
<trkpt lat="40.072842" lon="-105.230575">
  <ele>1586.09</ele>
  <time>2026-08-28T19:06:29Z</time>
  <course>250.44</course>
  <speed>0.0</speed>
  <fix>3d</fix>
</trkpt>
<trkpt lat="40.0728419" lon="-105.2305749">
  <ele>1586.14</ele>
  <time>2026-08-28T19:06:29Z</time>
  <course>11.58</course>
  <speed>0.01414213562373095</speed>
  <fix>3d</fix>
</trkpt>
<trkpt lat="40.072842" lon="-105.230575">
  <ele>1586.09</ele>
  <time>2026-08-28T19:06:29Z</time>
  <course>253.57</course>
  <speed>0.0</speed>
  <fix>3d</fix>
</trkpt>
<trkpt lat="40.0728419" lon="-105.2305749">
  <ele>1586.14</ele>
  <time>2026-08-28T19:06:29Z</time>
  <course>11.58</course>
  <speed>0.01414213562373095</speed>
  <fix>3d</fix>
</trkpt>
<trkpt lat="40.072842" lon="-105.230575">
  <ele>1586.09</ele>
  <time>2026-08-28T19:06:29Z</time>
  <course>250.51</course>
  <speed>0.0</speed>
  <fix>3d</fix>
</trkpt>
<trkpt lat="40.0728419" lon="-105.2305749">
  <ele>1586.14</ele>
  <time>2026-08-28T19:06:30Z</time>
  <course>11.58</course>
  <speed>0.01414213562373095</speed>
  <fix>3d</fix>
</trkpt>
<trkpt lat="40.072842" lon="-105.230575">
  <ele>1586.09</ele>
  <time>2026-08-28T19:06:30Z</time>
  <course>250.47</course>
  <speed>0.0</speed>
  <fix>3d</fix>
</trkpt>
<trkpt lat="40.0728419" lon="-105.2305749">
  <ele>1586.14</ele>
  <time>2026-08-28T19:06:30Z</time>
  <course>11.58</course>
  <speed>0.01414213562373095</speed>
  <fix>3d</fix>
</trkpt>
<trkpt lat="40.072842" lon="-105.230575">
  <ele>1586.09</ele>
  <time>2026-08-28T19:06:30Z</time>
  <course>250.88</course>
  <speed>0.0</speed>
  <fix>3d</fix>
</trkpt>
<trkpt lat="40.0728419" lon="-105.2305749">
  <ele>1586.15</ele>
  <time>2026-08-28T19:06:30Z</time>
  <course>11.58</course>
  <speed>0.01414213562373095</speed>
  <fix>3d</fix>
</trkpt>
<trkpt lat="40.072842" lon="-105.230575">
  <ele>1586.09</ele>
  <time>2026-08-28T19:06:30Z</time>
  <course>250.83</course>
  <speed>0.0</speed>
  <fix>3d</fix>
</trkpt>
<trkpt lat="40.0728419" lon="-105.2305749">
  <ele>1586.15</ele>
  <time>2026-08-28T19:06:30Z</time>
  <course>11.58</course>
  <speed>0.01414213562373095</speed>
  <fix>3d</fix>
</trkpt>
<trkpt lat="40.072842" lon="-105.230575">
  <ele>1586.09</ele>
  <time>2026-08-28T19:06:30Z</time>
  <course>250.78</course>
  <speed>0.0</speed>
  <fix>3d</fix>
</trkpt>
<trkpt lat="40.0728419" lon="-105.2305749">
  <ele>1586.15</ele>
  <time>2026-08-28T19:06:30Z</time>
  <course>11.58</course>
  <speed>0.01414213562373095</speed>
  <fix>3d</fix>
</trkpt>
<trkpt lat="40.072842" lon="-105.230575">
  <ele>1586.09</ele>
  <time>2026-08-28T19:06:30Z</time>
  <course>250.79</course>
  <speed>0.0</speed>
  <fix>3d</fix>
</trkpt>
<trkpt lat="40.0728419" lon="-105.2305749">
  <ele>1586.15</ele>
  <time>2026-08-28T19:06:30Z</time>
  <course>11.58</course>
  <speed>0.01414213562373095</speed>
  <fix>3d</fix>
</trkpt>
<trkpt lat="40.072842" lon="-105.230575">
  <ele>1586.09</ele>
  <time>2026-08-28T19:06:30Z</time>
  <course>250.8</course>
  <speed>0.0</speed>
  <fix>3d</fix>
</trkpt>
<trkpt lat="40.0728419" lon="-105.2305749">
  <ele>1586.16</ele>
  <time>2026-08-28T19:06:30Z</time>
  <course>11.58</course>
  <speed>0.01414213562373095</speed>
  <fix>3d</fix>
</trkpt>
<trkpt lat="40.072842" lon="-105.230575">
  <ele>1586.09</ele>
  <time>2026-08-28T19:06:30Z</time>
  <course>250.8</course>
  <speed>0.0</speed>
  <fix>3d</fix>
</trkpt>
<trkpt lat="40.0728419" lon="-105.2305749">
  <ele>1586.16</ele>
  <time>2026-08-28T19:06:30Z</time>
  <course>11.58</course>
  <speed>0.01414213562373095</speed>
  <fix>3d</fix>
</trkpt>
<trkpt lat="40.072842" lon="-105.230575">
  <ele>1586.09</ele>
  <time>2026-08-28T19:06:30Z</time>
  <course>250.8</course>
  <speed>0.0</speed>
  <fix>3d</fix>
</trkpt>
<trkpt lat="40.0728419" lon="-105.2305749">
  <ele>1586.16</ele>
  <time>2026-08-28T19:06:30Z</time>
  <course>11.58</course>
  <speed>0.01414213562373095</speed>
  <fix>3d</fix>
</trkpt>
<trkpt lat="40.072842" lon="-105.230575">
  <ele>1586.09</ele>
  <time>2026-08-28T19:06:30Z</time>
  <course>250.8</course>
  <speed>0.0</speed>
  <fix>3d</fix>
</trkpt>
<trkpt lat="40.0728419" lon="-105.2305749">
  <ele>1586.16</ele>
  <time>2026-08-28T19:06:30Z</time>
  <course>11.58</course>
  <speed>0.01414213562373095</speed>
  <fix>3d</fix>
</trkpt>
<trkpt lat="40.072842" lon="-105.230575">
  <ele>1586.09</ele>
  <time>2026-08-28T19:06:30Z</time>
  <course>250.8</course>
  <speed>0.0</speed>
  <fix>3d</fix>
</trkpt>
<trkpt lat="40.0728419" lon="-105.2305749">
  <ele>1586.16</ele>
  <time>2026-08-28T19:06:30Z</time>
  <course>11.58</course>
  <speed>0.01414213562373095</speed>
  <fix>3d</fix>
</trkpt>
<trkpt lat="40.072842" lon="-105.230575">
  <ele>1586.09</ele>
  <time>2026-08-28T19:06:30Z</time>
  <course>250.8</course>
  <speed>0.0</speed>
  <fix>3d</fix>
</trkpt>
<trkpt lat="40.0728419" lon="-105.2305749">
  <ele>1586.16</ele>
  <time>2026-08-28T19:06:30Z</time>
  <course>11.58</course>
  <speed>0.01414213562373095</speed>
  <fix>3d</fix>
</trkpt>
<trkpt lat="40.072842" lon="-105.230575">
  <ele>1586.09</ele>
  <time>2026-08-28T19:06:30Z</time>
  <course>250.8</course>
  <speed>0.0</speed>
  <fix>3d</fix>
</trkpt>
<trkpt lat="40.0728419" lon="-105.2305749">
  <ele>1586.16</ele>
  <time>2026-08-28T19:06:30Z</time>
  <course>11.58</course>
  <speed>0.01414213562373095</speed>
  <fix>3d</fix>
</trkpt>
<trkpt lat="40.072842" lon="-105.230575">
  <ele>1586.09</ele>
  <time>2026-08-28T19:06:30Z</time>
  <course>250.8</course>
  <speed>0.0</speed>
  <fix>3d</fix>
</trkpt>
<trkpt lat="40.0728419" lon="-105.2305749">
  <ele>1586.16</ele>
  <time>2026-08-28T19:06:30Z</time>
  <course>11.58</course>
  <speed>0.01414213562373095</speed>
  <fix>3d</fix>
</trkpt>
<trkpt lat="40.072842" lon="-105.230575">
  <ele>1586.09</ele>
  <time>2026-08-28T19:06:30Z</time>
  <course>250.8</course>
  <speed>0.0</speed>
  <fix>3d</fix>
</trkpt>
<trkpt lat="40.0728419" lon="-105.2305749">
  <ele>1586.16</ele>
  <time>2026-08-28T19:06:30Z</time>
  <course>11.58</course>
  <speed>0.01414213562373095</speed>
  <fix>3d</fix>
</trkpt>
<trkpt lat="40.072842" lon="-105.230575">
  <ele>1586.09</ele>
  <time>2026-08-28T19:06:30Z</time>
  <course>250.8</course>
  <speed>0.0</speed>
  <fix>3d</fix>
</trkpt>
<trkpt lat="40.0728419" lon="-105.2305749">
  <ele>1586.15</ele>
  <time>2026-08-28T19:06:30Z</time>
  <course>11.58</course>
  <speed>0.01414213562373095</speed>
  <fix>3d</fix>
</trkpt>
<trkpt lat="40.072842" lon="-105.230575">
  <ele>1586.09</ele>
  <time>2026-08-28T19:06:30Z</time>
  <course>250.8</course>
  <speed>0.0</speed>
  <fix>3d</fix>
</trkpt>
<trkpt lat="40.0728419" lon="-105.2305749">
  <ele>1586.15</ele>
  <time>2026-08-28T19:06:30Z</time>
  <course>11.58</course>
  <speed>0.01414213562373095</speed>
  <fix>3d</fix>
</trkpt>
<trkpt lat="40.072842" lon="-105.230575">
  <ele>1586.09</ele>
  <time>2026-08-28T19:06:30Z</time>
  <course>250.8</course>
  <speed>0.0</speed>
  <fix>3d</fix>
</trkpt>
<trkpt lat="40.0728419" lon="-105.2305749">
  <ele>1586.16</ele>
  <time>2026-08-28T19:06:30Z</time>
  <course>11.58</course>
  <speed>0.01414213562373095</speed>
  <fix>3d</fix>
</trkpt>
<trkpt lat="40.072842" lon="-105.230575">
  <ele>1586.09</ele>
  <time>2026-08-28T19:06:30Z</time>
  <course>250.8</course>
  <speed>0.0</speed>
  <fix>3d</fix>
</trkpt>
<trkpt lat="40.0728419" lon="-105.2305749">
  <ele>1586.16</ele>
  <time>2026-08-28T19:06:30Z</time>
  <course>11.58</course>
  <speed>0.01414213562373095</speed>
  <fix>3d</fix>
</trkpt>
<trkpt lat="40.072842" lon="-105.230575">
  <ele>1586.09</ele>
  <time>2026-08-28T19:06:30Z</time>
  <course>250.8</course>
  <speed>0.0</speed>
  <fix>3d</fix>
</trkpt>
<trkpt lat="40.0728419" lon="-105.2305749">
  <ele>1586.16</ele>
  <time>2026-08-28T19:06:30Z</time>
  <course>11.58</course>
  <speed>0.01414213562373095</speed>
  <fix>3d</fix>
</trkpt>
<trkpt lat="40.072842" lon="-105.230575">
  <ele>1586.09</ele>
  <time>2026-08-28T19:06:30Z</time>
  <course>250.8</course>
  <speed>0.0</speed>
  <fix>3d</fix>
</trkpt>
<trkpt lat="40.0728419" lon="-105.2305749">
  <ele>1586.16</ele>
  <time>2026-08-28T19:06:30Z</time>
  <course>11.58</course>
  <speed>0.01414213562373095</speed>
  <fix>3d</fix>
</trkpt>
<trkpt lat="40.072842" lon="-105.230575">
  <ele>1586.09</ele>
  <time>2026-08-28T19:06:30Z</time>
  <course>250.8</course>
  <speed>0.0</speed>
  <fix>3d</fix>
</trkpt>
<trkpt lat="40.0728419" lon="-105.2305749">
  <ele>1586.17</ele>
  <time>2026-08-28T19:06:30Z</time>
  <course>11.58</course>
  <speed>0.01414213562373095</speed>
  <fix>3d</fix>
</trkpt>
<trkpt lat="40.072842" lon="-105.230575">
  <ele>1586.09</ele>
  <time>2026-08-28T19:06:30Z</time>
  <course>250.8</course>
  <speed>0.0</speed>
  <fix>3d</fix>
</trkpt>
<trkpt lat="40.0728419" lon="-105.2305749">
  <ele>1586.17</ele>
  <time>2026-08-28T19:06:30Z</time>
  <course>11.58</course>
  <speed>0.01414213562373095</speed>
  <fix>3d</fix>
</trkpt>
<trkpt lat="40.072842" lon="-105.230575">
  <ele>1586.09</ele>
  <time>2026-08-28T19:06:30Z</time>
  <course>250.8</course>
  <speed>0.0</speed>
  <fix>3d</fix>
</trkpt>
<trkpt lat="40.0728419" lon="-105.2305749">
  <ele>1586.17</ele>
  <time>2026-08-28T19:06:30Z</time>
  <course>11.58</course>
  <speed>0.01414213562373095</speed>
  <fix>3d</fix>
</trkpt>
<trkpt lat="40.072842" lon="-105.230575">
  <ele>1586.09</ele>
  <time>2026-08-28T19:06:30Z</time>
  <course>250.8</course>
  <speed>0.0</speed>
  <fix>3d</fix>
</trkpt>
<trkpt lat="40.0728419" lon="-105.2305749">
  <ele>1586.17</ele>
  <time>2026-08-28T19:06:30Z</time>
  <course>11.58</course>
  <speed>0.01414213562373095</speed>
  <fix>3d</fix>
</trkpt>
<trkpt lat="40.072842" lon="-105.230575">
  <ele>1586.09</ele>
  <time>2026-08-28T19:06:30Z</time>
  <course>250.8</course>
  <speed>0.0</speed>
  <fix>3d</fix>
</trkpt>
<trkpt lat="40.0728419" lon="-105.2305749">
  <ele>1586.18</ele>
  <time>2026-08-28T19:06:30Z</time>
  <course>11.58</course>
  <speed>0.01414213562373095</speed>
  <fix>3d</fix>
</trkpt>
<trkpt lat="40.072842" lon="-105.230575">
  <ele>1586.09</ele>
  <time>2026-08-28T19:06:30Z</time>
  <course>250.8</course>
  <speed>0.0</speed>
  <fix>3d</fix>
</trkpt>
<trkpt lat="40.0728419" lon="-105.2305749">
  <ele>1586.18</ele>
  <time>2026-08-28T19:06:30Z</time>
  <course>11.58</course>
  <speed>0.01414213562373095</speed>
  <fix>3d</fix>
</trkpt>
<trkpt lat="40.072842" lon="-105.230575">
  <ele>1586.09</ele>
  <time>2026-08-28T19:06:30Z</time>
  <course>250.8</course>
  <speed>0.0</speed>
  <fix>3d</fix>
</trkpt>
<trkpt lat="40.0728419" lon="-105.2305749">
  <ele>1586.18</ele>
  <time>2026-08-28T19:06:30Z</time>
  <course>11.58</course>
  <speed>0.01414213562373095</speed>
  <fix>3d</fix>
</trkpt>
<trkpt lat="40.072842" lon="-105.230575">
  <ele>1586.09</ele>
  <time>2026-08-28T19:06:30Z</time>
  <course>250.8</course>
  <speed>0.0</speed>
  <fix>3d</fix>
</trkpt>
<trkpt lat="40.0728419" lon="-105.2305749">
  <ele>1586.18</ele>
  <time>2026-08-28T19:06:30Z</time>
  <course>11.58</course>
  <speed>0.01414213562373095</speed>
  <fix>3d</fix>
</trkpt>
<trkpt lat="40.072842" lon="-105.230575">
  <ele>1586.09</ele>
  <time>2026-08-28T19:06:30Z</time>
  <course>250.8</course>
  <speed>0.0</speed>
  <fix>3d</fix>
</trkpt>
<trkpt lat="40.0728419" lon="-105.2305749">
  <ele>1586.18</ele>
  <time>2026-08-28T19:06:30Z</time>
  <course>11.58</course>
  <speed>0.01414213562373095</speed>
  <fix>3d</fix>
</trkpt>
<trkpt lat="40.072842" lon="-105.230575">
  <ele>1586.09</ele>
  <time>2026-08-28T19:06:30Z</time>
  <course>250.8</course>
  <speed>0.0</speed>
  <fix>3d</fix>
</trkpt>
<trkpt lat="40.0728419" lon="-105.2305749">
  <ele>1586.19</ele>
  <time>2026-08-28T19:06:30Z</time>
  <course>11.58</course>
  <speed>0.01414213562373095</speed>
  <fix>3d</fix>
</trkpt>
<trkpt lat="40.072842" lon="-105.230575">
  <ele>1586.09</ele>
  <time>2026-08-28T19:06:30Z</time>
  <course>250.8</course>
  <speed>0.0</speed>
  <fix>3d</fix>
</trkpt>
<trkpt lat="40.0728419" lon="-105.2305749">
  <ele>1586.19</ele>
  <time>2026-08-28T19:06:30Z</time>
  <course>11.58</course>
  <speed>0.01414213562373095</speed>
  <fix>3d</fix>
</trkpt>
<trkpt lat="40.072842" lon="-105.230575">
  <ele>1586.09</ele>
  <time>2026-08-28T19:06:30Z</time>
  <course>250.8</course>
  <speed>0.0</speed>
  <fix>3d</fix>
</trkpt>
<trkpt lat="40.0728419" lon="-105.2305749">
  <ele>1586.19</ele>
  <time>2026-08-28T19:06:30Z</time>
  <course>11.58</course>
  <speed>0.01414213562373095</speed>
  <fix>3d</fix>
</trkpt>
<trkpt lat="40.072842" lon="-105.230575">
  <ele>1586.09</ele>
  <time>2026-08-28T19:06:30Z</time>
  <course>250.8</course>
  <speed>0.0</speed>
  <fix>3d</fix>
</trkpt>
<trkpt lat="40.0728419" lon="-105.2305749">
  <ele>1586.19</ele>
  <time>2026-08-28T19:06:30Z</time>
  <course>11.58</course>
  <speed>0.01414213562373095</speed>
  <fix>3d</fix>
</trkpt>
<trkpt lat="40.072842" lon="-105.230575">
  <ele>1586.09</ele>
  <time>2026-08-28T19:06:30Z</time>
  <course>250.8</course>
  <speed>0.0</speed>
  <fix>3d</fix>
</trkpt>
<trkpt lat="40.0728419" lon="-105.2305749">
  <ele>1586.18</ele>
  <time>2026-08-28T19:06:30Z</time>
  <course>11.58</course>
  <speed>0.022360679774997897</speed>
  <fix>3d</fix>
</trkpt>
<trkpt lat="40.072842" lon="-105.230575">
  <ele>1586.09</ele>
  <time>2026-08-28T19:06:30Z</time>
  <course>250.8</course>
  <speed>0.0</speed>
  <fix>3d</fix>
</trkpt>
<trkpt lat="40.0728419" lon="-105.2305749">
  <ele>1586.18</ele>
  <time>2026-08-28T19:06:30Z</time>
  <course>11.58</course>
  <speed>0.022360679774997897</speed>
  <fix>3d</fix>
</trkpt>
<trkpt lat="40.072842" lon="-105.230575">
  <ele>1586.09</ele>
  <time>2026-08-28T19:06:30Z</time>
  <course>250.8</course>
  <speed>0.0</speed>
  <fix>3d</fix>
</trkpt>
<trkpt lat="40.0728419" lon="-105.2305749">
  <ele>1586.17</ele>
  <time>2026-08-28T19:06:30Z</time>
  <course>11.58</course>
  <speed>0.022360679774997897</speed>
  <fix>3d</fix>
</trkpt>
<trkpt lat="40.072842" lon="-105.230575">
  <ele>1586.09</ele>
  <time>2026-08-28T19:06:30Z</time>
  <course>250.8</course>
  <speed>0.0</speed>
  <fix>3d</fix>
</trkpt>
<trkpt lat="40.0728419" lon="-105.2305749">
  <ele>1586.17</ele>
  <time>2026-08-28T19:06:30Z</time>
  <course>11.57</course>
  <speed>0.01414213562373095</speed>
  <fix>3d</fix>
</trkpt>
<trkpt lat="40.072842" lon="-105.230575">
  <ele>1586.09</ele>
  <time>2026-08-28T19:06:30Z</time>
  <course>250.8</course>
  <speed>0.0</speed>
  <fix>3d</fix>
</trkpt>
<trkpt lat="40.0728419" lon="-105.2305749">
  <ele>1586.17</ele>
  <time>2026-08-28T19:06:30Z</time>
  <course>11.57</course>
  <speed>0.01414213562373095</speed>
  <fix>3d</fix>
</trkpt>
<trkpt lat="40.072842" lon="-105.230575">
  <ele>1586.09</ele>
  <time>2026-08-28T19:06:30Z</time>
  <course>250.8</course>
  <speed>0.0</speed>
  <fix>3d</fix>
</trkpt>
<trkpt lat="40.0728419" lon="-105.2305749">
  <ele>1586.17</ele>
  <time>2026-08-28T19:06:30Z</time>
  <course>11.57</course>
  <speed>0.01414213562373095</speed>
  <fix>3d</fix>
</trkpt>
<trkpt lat="40.072842" lon="-105.230575">
  <ele>1586.09</ele>
  <time>2026-08-28T19:06:30Z</time>
  <course>250.8</course>
  <speed>0.0</speed>
  <fix>3d</fix>
</trkpt>
<trkpt lat="40.0728419" lon="-105.2305749">
  <ele>1586.16</ele>
  <time>2026-08-28T19:06:30Z</time>
  <course>11.57</course>
  <speed>0.01414213562373095</speed>
  <fix>3d</fix>
</trkpt>
<trkpt lat="40.072842" lon="-105.230575">
  <ele>1586.09</ele>
  <time>2026-08-28T19:06:30Z</time>
  <course>250.8</course>
  <speed>0.0</speed>
  <fix>3d</fix>
</trkpt>
<trkpt lat="40.0728419" lon="-105.2305749">
  <ele>1586.16</ele>
  <time>2026-08-28T19:06:30Z</time>
  <course>11.57</course>
  <speed>0.022360679774997897</speed>
  <fix>3d</fix>
</trkpt>
<trkpt lat="40.072842" lon="-105.230575">
  <ele>1586.09</ele>
  <time>2026-08-28T19:06:30Z</time>
  <course>250.8</course>
  <speed>0.0</speed>
  <fix>3d</fix>
</trkpt>
<trkpt lat="40.0728419" lon="-105.2305749">
  <ele>1586.16</ele>
  <time>2026-08-28T19:06:30Z</time>
  <course>11.57</course>
  <speed>0.022360679774997897</speed>
  <fix>3d</fix>
</trkpt>
<trkpt lat="40.072842" lon="-105.230575">
  <ele>1586.09</ele>
  <time>2026-08-28T19:06:30Z</time>
  <course>250.8</course>
  <speed>0.0</speed>
  <fix>3d</fix>
</trkpt>
<trkpt lat="40.0728419" lon="-105.2305749">
  <ele>1586.15</ele>
  <time>2026-08-28T19:06:30Z</time>
  <course>11.57</course>
  <speed>0.022360679774997897</speed>
  <fix>3d</fix>
</trkpt>
<trkpt lat="40.072842" lon="-105.230575">
  <ele>1586.09</ele>
  <time>2026-08-28T19:06:30Z</time>
  <course>250.8</course>
  <speed>0.0</speed>
  <fix>3d</fix>
</trkpt>
<trkpt lat="40.0728419" lon="-105.2305749">
  <ele>1586.15</ele>
  <time>2026-08-28T19:06:30Z</time>
  <course>11.57</course>
  <speed>0.022360679774997897</speed>
  <fix>3d</fix>
</trkpt>
<trkpt lat="40.072842" lon="-105.230575">
  <ele>1586.09</ele>
  <time>2026-08-28T19:06:30Z</time>
  <course>250.8</course>
  <speed>0.0</speed>
  <fix>3d</fix>
</trkpt>
<trkpt lat="40.0728419" lon="-105.2305749">
  <ele>1586.14</ele>
  <time>2026-08-28T19:06:30Z</time>
  <course>11.57</course>
  <speed>0.022360679774997897</speed>
  <fix>3d</fix>
</trkpt>
<trkpt lat="40.072842" lon="-105.230575">
  <ele>1586.09</ele>
  <time>2026-08-28T19:06:30Z</time>
  <course>250.8</course>
  <speed>0.0</speed>
  <fix>3d</fix>
</trkpt>
<trkpt lat="40.0728419" lon="-105.2305749">
  <ele>1586.14</ele>
  <time>2026-08-28T19:06:30Z</time>
  <course>11.57</course>
  <speed>0.022360679774997897</speed>
  <fix>3d</fix>
</trkpt>
<trkpt lat="40.072842" lon="-105.230575">
  <ele>1586.09</ele>
  <time>2026-08-28T19:06:30Z</time>
  <course>250.8</course>
  <speed>0.0</speed>
  <fix>3d</fix>
</trkpt>
<trkpt lat="40.0728419" lon="-105.2305749">
  <ele>1586.14</ele>
  <time>2026-08-28T19:06:30Z</time>
  <course>11.57</course>
  <speed>0.022360679774997897</speed>
  <fix>3d</fix>
</trkpt>
<trkpt lat="40.072842" lon="-105.230575">
  <ele>1586.09</ele>
  <time>2026-08-28T19:06:30Z</time>
  <course>250.8</course>
  <speed>0.0</speed>
  <fix>3d</fix>
</trkpt>
<trkpt lat="40.0728419" lon="-105.2305749">
  <ele>1586.15</ele>
  <time>2026-08-28T19:06:30Z</time>
  <course>11.57</course>
  <speed>0.01414213562373095</speed>
  <fix>3d</fix>
</trkpt>
<trkpt lat="40.072842" lon="-105.230575">
  <ele>1586.09</ele>
  <time>2026-08-28T19:06:30Z</time>
  <course>250.8</course>
  <speed>0.0</speed>
  <fix>3d</fix>
</trkpt>
<trkpt lat="40.0728419" lon="-105.2305749">
  <ele>1586.15</ele>
  <time>2026-08-28T19:06:30Z</time>
  <course>11.57</course>
  <speed>0.01414213562373095</speed>
  <fix>3d</fix>
</trkpt>
<trkpt lat="40.072842" lon="-105.230575">
  <ele>1586.09</ele>
  <time>2026-08-28T19:06:30Z</time>
  <course>250.8</course>
  <speed>0.0</speed>
  <fix>3d</fix>
</trkpt>
<trkpt lat="40.0728419" lon="-105.2305749">
  <ele>1586.16</ele>
  <time>2026-08-28T19:06:30Z</time>
  <course>11.57</course>
  <speed>0.01414213562373095</speed>
  <fix>3d</fix>
</trkpt>
<trkpt lat="40.072842" lon="-105.230575">
  <ele>1586.09</ele>
  <time>2026-08-28T19:06:30Z</time>
  <course>250.8</course>
  <speed>0.0</speed>
  <fix>3d</fix>
</trkpt>
<trkpt lat="40.0728419" lon="-105.2305749">
  <ele>1586.16</ele>
  <time>2026-08-28T19:06:30Z</time>
  <course>11.57</course>
  <speed>0.022360679774997897</speed>
  <fix>3d</fix>
</trkpt>
<trkpt lat="40.072842" lon="-105.230575">
  <ele>1586.09</ele>
  <time>2026-08-28T19:06:30Z</time>
  <course>250.8</course>
  <speed>0.0</speed>
  <fix>3d</fix>
</trkpt>
<trkpt lat="40.0728419" lon="-105.2305749">
  <ele>1586.16</ele>
  <time>2026-08-28T19:06:30Z</time>
  <course>11.57</course>
  <speed>0.022360679774997897</speed>
  <fix>3d</fix>
</trkpt>
<trkpt lat="40.072842" lon="-105.230575">
  <ele>1586.09</ele>
  <time>2026-08-28T19:06:30Z</time>
  <course>250.8</course>
  <speed>0.0</speed>
  <fix>3d</fix>
</trkpt>
<trkpt lat="40.0728419" lon="-105.2305749">
  <ele>1586.16</ele>
  <time>2026-08-28T19:06:30Z</time>
  <course>11.57</course>
  <speed>0.022360679774997897</speed>
  <fix>3d</fix>
</trkpt>
<trkpt lat="40.072842" lon="-105.230575">
  <ele>1586.09</ele>
  <time>2026-08-28T19:06:30Z</time>
  <course>250.8</course>
  <speed>0.0</speed>
  <fix>3d</fix>
</trkpt>
<trkpt lat="40.0728419" lon="-105.2305749">
  <ele>1586.15</ele>
  <time>2026-08-28T19:06:30Z</time>
  <course>11.57</course>
  <speed>0.022360679774997897</speed>
  <fix>3d</fix>
</trkpt>
<trkpt lat="40.072842" lon="-105.230575">
  <ele>1586.09</ele>
  <time>2026-08-28T19:06:30Z</time>
  <course>250.8</course>
  <speed>0.0</speed>
  <fix>3d</fix>
</trkpt>
<trkpt lat="40.0728419" lon="-105.2305749">
  <ele>1586.15</ele>
  <time>2026-08-28T19:06:30Z</time>
  <course>11.57</course>
  <speed>0.01414213562373095</speed>
  <fix>3d</fix>
</trkpt>
<trkpt lat="40.072842" lon="-105.230575">
  <ele>1586.09</ele>
  <time>2026-08-28T19:06:30Z</time>
  <course>250.8</course>
  <speed>0.0</speed>
  <fix>3d</fix>
</trkpt>
<trkpt lat="40.0728419" lon="-105.2305749">
  <ele>1586.15</ele>
  <time>2026-08-28T19:06:30Z</time>
  <course>11.57</course>
  <speed>0.022360679774997897</speed>
  <fix>3d</fix>
</trkpt>
<trkpt lat="40.072842" lon="-105.230575">
  <ele>1586.09</ele>
  <time>2026-08-28T19:06:30Z</time>
  <course>250.8</course>
  <speed>0.0</speed>
  <fix>3d</fix>
</trkpt>
<trkpt lat="40.0728419" lon="-105.2305749">
  <ele>1586.15</ele>
  <time>2026-08-28T19:06:30Z</time>
  <course>11.57</course>
  <speed>0.022360679774997897</speed>
  <fix>3d</fix>
</trkpt>
<trkpt lat="40.072842" lon="-105.230575">
  <ele>1586.09</ele>
  <time>2026-08-28T19:06:30Z</time>
  <course>250.8</course>
  <speed>0.0</speed>
  <fix>3d</fix>
</trkpt>
<trkpt lat="40.0728419" lon="-105.2305749">
  <ele>1586.14</ele>
  <time>2026-08-28T19:06:30Z</time>
  <course>11.57</course>
  <speed>0.022360679774997897</speed>
  <fix>3d</fix>
</trkpt>
<trkpt lat="40.072842" lon="-105.230575">
  <ele>1586.09</ele>
  <time>2026-08-28T19:06:30Z</time>
  <course>250.8</course>
  <speed>0.0</speed>
  <fix>3d</fix>
</trkpt>
<trkpt lat="40.0728419" lon="-105.2305749">
  <ele>1586.14</ele>
  <time>2026-08-28T19:06:30Z</time>
  <course>11.57</course>
  <speed>0.01414213562373095</speed>
  <fix>3d</fix>
</trkpt>
<trkpt lat="40.072842" lon="-105.230575">
  <ele>1586.09</ele>
  <time>2026-08-28T19:06:30Z</time>
  <course>250.8</course>
  <speed>0.0</speed>
  <fix>3d</fix>
</trkpt>
<trkpt lat="40.0728419" lon="-105.2305749">
  <ele>1586.13</ele>
  <time>2026-08-28T19:06:30Z</time>
  <course>11.57</course>
  <speed>0.022360679774997897</speed>
  <fix>3d</fix>
</trkpt>
<trkpt lat="40.072842" lon="-105.230575">
  <ele>1586.09</ele>
  <time>2026-08-28T19:06:30Z</time>
  <course>250.8</course>
  <speed>0.0</speed>
  <fix>3d</fix>
</trkpt>
<trkpt lat="40.0728419" lon="-105.2305749">
  <ele>1586.13</ele>
  <time>2026-08-28T19:06:30Z</time>
  <course>11.57</course>
  <speed>0.022360679774997897</speed>
  <fix>3d</fix>
</trkpt>
<trkpt lat="40.072842" lon="-105.230575">
  <ele>1586.09</ele>
  <time>2026-08-28T19:06:30Z</time>
  <course>250.8</course>
  <speed>0.0</speed>
  <fix>3d</fix>
</trkpt>
<trkpt lat="40.0728419" lon="-105.2305749">
  <ele>1586.14</ele>
  <time>2026-08-28T19:06:30Z</time>
  <course>11.57</course>
  <speed>0.022360679774997897</speed>
  <fix>3d</fix>
</trkpt>
<trkpt lat="40.072842" lon="-105.230575">
  <ele>1586.09</ele>
  <time>2026-08-28T19:06:30Z</time>
  <course>250.8</course>
  <speed>0.0</speed>
  <fix>3d</fix>
</trkpt>
<trkpt lat="40.0728419" lon="-105.2305749">
  <ele>1586.14</ele>
  <time>2026-08-28T19:06:30Z</time>
  <course>11.57</course>
  <speed>0.01414213562373095</speed>
  <fix>3d</fix>
</trkpt>
<trkpt lat="40.072842" lon="-105.230575">
  <ele>1586.09</ele>
  <time>2026-08-28T19:06:30Z</time>
  <course>250.8</course>
  <speed>0.0</speed>
  <fix>3d</fix>
</trkpt>
<trkpt lat="40.0728419" lon="-105.2305749">
  <ele>1586.14</ele>
  <time>2026-08-28T19:06:30Z</time>
  <course>11.57</course>
  <speed>0.022360679774997897</speed>
  <fix>3d</fix>
</trkpt>
<trkpt lat="40.072842" lon="-105.230575">
  <ele>1586.09</ele>
  <time>2026-08-28T19:06:30Z</time>
  <course>250.8</course>
  <speed>0.0</speed>
  <fix>3d</fix>
</trkpt>
<trkpt lat="40.0728419" lon="-105.2305749">
  <ele>1586.15</ele>
  <time>2026-08-28T19:06:30Z</time>
  <course>11.57</course>
  <speed>0.022360679774997897</speed>
  <fix>3d</fix>
</trkpt>
<trkpt lat="40.072842" lon="-105.230575">
  <ele>1586.09</ele>
  <time>2026-08-28T19:06:30Z</time>
  <course>250.8</course>
  <speed>0.0</speed>
  <fix>3d</fix>
</trkpt>
<trkpt lat="40.0728419" lon="-105.2305749">
  <ele>1586.15</ele>
  <time>2026-08-28T19:06:30Z</time>
  <course>11.57</course>
  <speed>0.022360679774997897</speed>
  <fix>3d</fix>
</trkpt>
<trkpt lat="40.072842" lon="-105.230575">
  <ele>1586.09</ele>
  <time>2026-08-28T19:06:30Z</time>
  <course>250.8</course>
  <speed>0.0</speed>
  <fix>3d</fix>
</trkpt>
<trkpt lat="40.0728419" lon="-105.2305749">
  <ele>1586.16</ele>
  <time>2026-08-28T19:06:30Z</time>
  <course>11.57</course>
  <speed>0.022360679774997897</speed>
  <fix>3d</fix>
</trkpt>
<trkpt lat="40.072842" lon="-105.230575">
  <ele>1586.09</ele>
  <time>2026-08-28T19:06:30Z</time>
  <course>250.8</course>
  <speed>0.0</speed>
  <fix>3d</fix>
</trkpt>
<trkpt lat="40.0728419" lon="-105.2305749">
  <ele>1586.16</ele>
  <time>2026-08-28T19:06:30Z</time>
  <course>11.57</course>
  <speed>0.022360679774997897</speed>
  <fix>3d</fix>
</trkpt>
<trkpt lat="40.072842" lon="-105.230575">
  <ele>1586.09</ele>
  <time>2026-08-28T19:06:30Z</time>
  <course>250.8</course>
  <speed>0.0</speed>
  <fix>3d</fix>
</trkpt>
<trkpt lat="40.0728419" lon="-105.2305749">
  <ele>1586.17</ele>
  <time>2026-08-28T19:06:30Z</time>
  <course>11.57</course>
  <speed>0.022360679774997897</speed>
  <fix>3d</fix>
</trkpt>
<trkpt lat="40.072842" lon="-105.230575">
  <ele>1586.09</ele>
  <time>2026-08-28T19:06:30Z</time>
  <course>250.8</course>
  <speed>0.0</speed>
  <fix>3d</fix>
</trkpt>
<trkpt lat="40.0728419" lon="-105.2305749">
  <ele>1586.18</ele>
  <time>2026-08-28T19:06:30Z</time>
  <course>11.57</course>
  <speed>0.022360679774997897</speed>
  <fix>3d</fix>
</trkpt>
<trkpt lat="40.072842" lon="-105.230575">
  <ele>1586.09</ele>
  <time>2026-08-28T19:06:30Z</time>
  <course>250.8</course>
  <speed>0.0</speed>
  <fix>3d</fix>
</trkpt>
<trkpt lat="40.0728419" lon="-105.2305749">
  <ele>1586.18</ele>
  <time>2026-08-28T19:06:30Z</time>
  <course>11.57</course>
  <speed>0.022360679774997897</speed>
  <fix>3d</fix>
</trkpt>
<trkpt lat="40.072842" lon="-105.230575">
  <ele>1586.09</ele>
  <time>2026-08-28T19:06:30Z</time>
  <course>250.8</course>
  <speed>0.0</speed>
  <fix>3d</fix>
</trkpt>
<trkpt lat="40.0728419" lon="-105.2305749">
  <ele>1586.18</ele>
  <time>2026-08-28T19:06:30Z</time>
  <course>11.57</course>
  <speed>0.022360679774997897</speed>
  <fix>3d</fix>
</trkpt>
<trkpt lat="40.072842" lon="-105.230575">
  <ele>1586.09</ele>
  <time>2026-08-28T19:06:30Z</time>
  <course>250.8</course>
  <speed>0.0</speed>
  <fix>3d</fix>
</trkpt>
<trkpt lat="40.0728419" lon="-105.2305749">
  <ele>1586.18</ele>
  <time>2026-08-28T19:06:30Z</time>
  <course>11.57</course>
  <speed>0.022360679774997897</speed>
  <fix>3d</fix>
</trkpt>
<trkpt lat="40.072842" lon="-105.230575">
  <ele>1586.09</ele>
  <time>2026-08-28T19:06:30Z</time>
  <course>250.8</course>
  <speed>0.0</speed>
  <fix>3d</fix>
</trkpt>
<trkpt lat="40.0728419" lon="-105.2305749">
  <ele>1586.17</ele>
  <time>2026-08-28T19:06:30Z</time>
  <course>11.57</course>
  <speed>0.01414213562373095</speed>
  <fix>3d</fix>
</trkpt>
<trkpt lat="40.072842" lon="-105.230575">
  <ele>1586.09</ele>
  <time>2026-08-28T19:06:30Z</time>
  <course>250.8</course>
  <speed>0.0</speed>
  <fix>3d</fix>
</trkpt>
<trkpt lat="40.0728419" lon="-105.2305749">
  <ele>1586.17</ele>
  <time>2026-08-28T19:06:30Z</time>
  <course>11.57</course>
  <speed>0.01414213562373095</speed>
  <fix>3d</fix>
</trkpt>
<trkpt lat="40.072842" lon="-105.230575">
  <ele>1586.09</ele>
  <time>2026-08-28T19:06:30Z</time>
  <course>250.8</course>
  <speed>0.0</speed>
  <fix>3d</fix>
</trkpt>
<trkpt lat="40.0728419" lon="-105.2305749">
  <ele>1586.16</ele>
  <time>2026-08-28T19:06:30Z</time>
  <course>11.57</course>
  <speed>0.01414213562373095</speed>
  <fix>3d</fix>
</trkpt>
<trkpt lat="40.072842" lon="-105.230575">
  <ele>1586.09</ele>
  <time>2026-08-28T19:06:30Z</time>
  <course>250.8</course>
  <speed>0.0</speed>
  <fix>3d</fix>
</trkpt>
<trkpt lat="40.0728419" lon="-105.2305749">
  <ele>1586.16</ele>
  <time>2026-08-28T19:06:30Z</time>
  <course>11.57</course>
  <speed>0.01414213562373095</speed>
  <fix>3d</fix>
</trkpt>
<trkpt lat="40.072842" lon="-105.230575">
  <ele>1586.09</ele>
  <time>2026-08-28T19:06:30Z</time>
  <course>250.8</course>
  <speed>0.0</speed>
  <fix>3d</fix>
</trkpt>
<trkpt lat="40.0728419" lon="-105.2305749">
  <ele>1586.17</ele>
  <time>2026-08-28T19:06:30Z</time>
  <course>11.57</course>
  <speed>0.01414213562373095</speed>
  <fix>3d</fix>
</trkpt>
<trkpt lat="40.072842" lon="-105.230575">
  <ele>1586.09</ele>
  <time>2026-08-28T19:06:30Z</time>
  <course>250.8</course>
  <speed>0.0</speed>
  <fix>3d</fix>
</trkpt>
<trkpt lat="40.0728419" lon="-105.2305749">
  <ele>1586.18</ele>
  <time>2026-08-28T19:06:30Z</time>
  <course>11.56</course>
  <speed>0.01414213562373095</speed>
  <fix>3d</fix>
</trkpt>
<trkpt lat="40.072842" lon="-105.230575">
  <ele>1586.09</ele>
  <time>2026-08-28T19:06:30Z</time>
  <course>250.8</course>
  <speed>0.0</speed>
  <fix>3d</fix>
</trkpt>
<trkpt lat="40.0728419" lon="-105.2305749">
  <ele>1586.17</ele>
  <time>2026-08-28T19:06:30Z</time>
  <course>11.56</course>
  <speed>0.01414213562373095</speed>
  <fix>3d</fix>
</trkpt>
<trkpt lat="40.072842" lon="-105.230575">
  <ele>1586.09</ele>
  <time>2026-08-28T19:06:30Z</time>
  <course>250.8</course>
  <speed>0.0</speed>
  <fix>3d</fix>
</trkpt>
<trkpt lat="40.0728419" lon="-105.2305749">
  <ele>1586.17</ele>
  <time>2026-08-28T19:06:30Z</time>
  <course>11.56</course>
  <speed>0.01414213562373095</speed>
  <fix>3d</fix>
</trkpt>
<trkpt lat="40.072842" lon="-105.230575">
  <ele>1586.09</ele>
  <time>2026-08-28T19:06:30Z</time>
  <course>250.8</course>
  <speed>0.0</speed>
  <fix>3d</fix>
</trkpt>
<trkpt lat="40.0728419" lon="-105.2305749">
  <ele>1586.17</ele>
  <time>2026-08-28T19:06:30Z</time>
  <course>11.56</course>
  <speed>0.01414213562373095</speed>
  <fix>3d</fix>
</trkpt>
<trkpt lat="40.072842" lon="-105.230575">
  <ele>1586.09</ele>
  <time>2026-08-28T19:06:30Z</time>
  <course>250.8</course>
  <speed>0.0</speed>
  <fix>3d</fix>
</trkpt>
<trkpt lat="40.0728419" lon="-105.2305749">
  <ele>1586.18</ele>
  <time>2026-08-28T19:06:30Z</time>
  <course>11.56</course>
  <speed>0.01414213562373095</speed>
  <fix>3d</fix>
</trkpt>
<trkpt lat="40.072842" lon="-105.230575">
  <ele>1586.09</ele>
  <time>2026-08-28T19:06:30Z</time>
  <course>250.8</course>
  <speed>0.0</speed>
  <fix>3d</fix>
</trkpt>
<trkpt lat="40.0728419" lon="-105.2305749">
  <ele>1586.17</ele>
  <time>2026-08-28T19:06:30Z</time>
  <course>11.56</course>
  <speed>0.01414213562373095</speed>
  <fix>3d</fix>
</trkpt>
<trkpt lat="40.072842" lon="-105.230575">
  <ele>1586.09</ele>
  <time>2026-08-28T19:06:30Z</time>
  <course>250.8</course>
  <speed>0.0</speed>
  <fix>3d</fix>
</trkpt>
<trkpt lat="40.0728419" lon="-105.2305749">
  <ele>1586.17</ele>
  <time>2026-08-28T19:06:30Z</time>
  <course>11.56</course>
  <speed>0.01414213562373095</speed>
  <fix>3d</fix>
</trkpt>
<trkpt lat="40.072842" lon="-105.230575">
  <ele>1586.09</ele>
  <time>2026-08-28T19:06:30Z</time>
  <course>250.8</course>
  <speed>0.0</speed>
  <fix>3d</fix>
</trkpt>
<trkpt lat="40.0728419" lon="-105.2305749">
  <ele>1586.17</ele>
  <time>2026-08-28T19:06:30Z</time>
  <course>11.56</course>
  <speed>0.01414213562373095</speed>
  <fix>3d</fix>
</trkpt>
<trkpt lat="40.072842" lon="-105.230575">
  <ele>1586.09</ele>
  <time>2026-08-28T19:06:30Z</time>
  <course>250.8</course>
  <speed>0.0</speed>
  <fix>3d</fix>
</trkpt>
<trkpt lat="40.0728419" lon="-105.2305749">
  <ele>1586.17</ele>
  <time>2026-08-28T19:06:30Z</time>
  <course>11.56</course>
  <speed>0.01414213562373095</speed>
  <fix>3d</fix>
</trkpt>
<trkpt lat="40.072842" lon="-105.230575">
  <ele>1586.09</ele>
  <time>2026-08-28T19:06:30Z</time>
  <course>250.8</course>
  <speed>0.0</speed>
  <fix>3d</fix>
</trkpt>
<trkpt lat="40.0728419" lon="-105.2305749">
  <ele>1586.18</ele>
  <time>2026-08-28T19:06:30Z</time>
  <course>11.56</course>
  <speed>0.01414213562373095</speed>
  <fix>3d</fix>
</trkpt>
<trkpt lat="40.072842" lon="-105.230575">
  <ele>1586.09</ele>
  <time>2026-08-28T19:06:30Z</time>
  <course>250.8</course>
  <speed>0.0</speed>
  <fix>3d</fix>
</trkpt>
<trkpt lat="40.0728419" lon="-105.2305749">
  <ele>1586.18</ele>
  <time>2026-08-28T19:06:30Z</time>
  <course>11.56</course>
  <speed>0.01414213562373095</speed>
  <fix>3d</fix>
</trkpt>
<trkpt lat="40.072842" lon="-105.230575">
  <ele>1586.09</ele>
  <time>2026-08-28T19:06:30Z</time>
  <course>250.8</course>
  <speed>0.0</speed>
  <fix>3d</fix>
</trkpt>
<trkpt lat="40.0728419" lon="-105.2305749">
  <ele>1586.19</ele>
  <time>2026-08-28T19:06:30Z</time>
  <course>11.56</course>
  <speed>0.01414213562373095</speed>
  <fix>3d</fix>
</trkpt>
<trkpt lat="40.072842" lon="-105.230575">
  <ele>1586.09</ele>
  <time>2026-08-28T19:06:30Z</time>
  <course>250.8</course>
  <speed>0.0</speed>
  <fix>3d</fix>
</trkpt>
<trkpt lat="40.0728419" lon="-105.2305749">
  <ele>1586.18</ele>
  <time>2026-08-28T19:06:30Z</time>
  <course>11.56</course>
  <speed>0.01414213562373095</speed>
  <fix>3d</fix>
</trkpt>
<trkpt lat="40.072842" lon="-105.230575">
  <ele>1586.09</ele>
  <time>2026-08-28T19:06:30Z</time>
  <course>250.8</course>
  <speed>0.0</speed>
  <fix>3d</fix>
</trkpt>
<trkpt lat="40.0728419" lon="-105.2305749">
  <ele>1586.18</ele>
  <time>2026-08-28T19:06:30Z</time>
  <course>11.56</course>
  <speed>0.01414213562373095</speed>
  <fix>3d</fix>
</trkpt>
<trkpt lat="40.072842" lon="-105.230575">
  <ele>1586.09</ele>
  <time>2026-08-28T19:06:30Z</time>
  <course>250.8</course>
  <speed>0.0</speed>
  <fix>3d</fix>
</trkpt>
<trkpt lat="40.0728419" lon="-105.2305749">
  <ele>1586.18</ele>
  <time>2026-08-28T19:06:30Z</time>
  <course>11.56</course>
  <speed>0.01414213562373095</speed>
  <fix>3d</fix>
</trkpt>
<trkpt lat="40.072842" lon="-105.230575">
  <ele>1586.09</ele>
  <time>2026-08-28T19:06:30Z</time>
  <course>250.8</course>
  <speed>0.0</speed>
  <fix>3d</fix>
</trkpt>
<trkpt lat="40.0728419" lon="-105.2305749">
  <ele>1586.18</ele>
  <time>2026-08-28T19:06:30Z</time>
  <course>11.56</course>
  <speed>0.01414213562373095</speed>
  <fix>3d</fix>
</trkpt>
<trkpt lat="40.072842" lon="-105.230575">
  <ele>1586.09</ele>
  <time>2026-08-28T19:06:30Z</time>
  <course>250.8</course>
  <speed>0.0</speed>
  <fix>3d</fix>
</trkpt>
<trkpt lat="40.0728419" lon="-105.2305749">
  <ele>1586.18</ele>
  <time>2026-08-28T19:06:30Z</time>
  <course>11.56</course>
  <speed>0.01414213562373095</speed>
  <fix>3d</fix>
</trkpt>
<trkpt lat="40.072842" lon="-105.230575">
  <ele>1586.09</ele>
  <time>2026-08-28T19:06:30Z</time>
  <course>250.8</course>
  <speed>0.0</speed>
  <fix>3d</fix>
</trkpt>
<trkpt lat="40.0728419" lon="-105.2305749">
  <ele>1586.18</ele>
  <time>2026-08-28T19:06:30Z</time>
  <course>11.56</course>
  <speed>0.01414213562373095</speed>
  <fix>3d</fix>
</trkpt>
<trkpt lat="40.072842" lon="-105.230575">
  <ele>1586.09</ele>
  <time>2026-08-28T19:06:30Z</time>
  <course>250.8</course>
  <speed>0.0</speed>
  <fix>3d</fix>
</trkpt>
<trkpt lat="40.0728419" lon="-105.2305749">
  <ele>1586.18</ele>
  <time>2026-08-28T19:06:30Z</time>
  <course>11.56</course>
  <speed>0.01414213562373095</speed>
  <fix>3d</fix>
</trkpt>
<trkpt lat="40.072842" lon="-105.230575">
  <ele>1586.09</ele>
  <time>2026-08-28T19:06:30Z</time>
  <course>258.46</course>
  <speed>0.0</speed>
  <fix>3d</fix>
</trkpt>
<trkpt lat="40.0728419" lon="-105.2305749">
  <ele>1586.18</ele>
  <time>2026-08-28T19:06:30Z</time>
  <course>11.56</course>
  <speed>0.01414213562373095</speed>
  <fix>3d</fix>
</trkpt>
<trkpt lat="40.072842" lon="-105.230575">
  <ele>1586.09</ele>
  <time>2026-08-28T19:06:30Z</time>
  <course>17.81</course>
  <speed>0.0</speed>
  <fix>3d</fix>
</trkpt>
<trkpt lat="40.0728419" lon="-105.2305749">
  <ele>1586.17</ele>
  <time>2026-08-28T19:06:30Z</time>
  <course>11.56</course>
  <speed>0.01414213562373095</speed>
  <fix>3d</fix>
</trkpt>
<trkpt lat="40.072842" lon="-105.230575">
  <ele>1586.09</ele>
  <time>2026-08-28T19:06:30Z</time>
  <course>16.76</course>
  <speed>0.0</speed>
  <fix>3d</fix>
</trkpt>
<trkpt lat="40.0728419" lon="-105.2305749">
  <ele>1586.17</ele>
  <time>2026-08-28T19:06:30Z</time>
  <course>11.56</course>
  <speed>0.01414213562373095</speed>
  <fix>3d</fix>
</trkpt>
<trkpt lat="40.072842" lon="-105.230575">
  <ele>1586.09</ele>
  <time>2026-08-28T19:06:30Z</time>
  <course>4.48</course>
  <speed>0.0</speed>
  <fix>3d</fix>
</trkpt>
<trkpt lat="40.0728419" lon="-105.2305749">
  <ele>1586.17</ele>
  <time>2026-08-28T19:06:30Z</time>
  <course>11.56</course>
  <speed>0.01414213562373095</speed>
  <fix>3d</fix>
</trkpt>
<trkpt lat="40.072842" lon="-105.230575">
  <ele>1586.09</ele>
  <time>2026-08-28T19:06:30Z</time>
  <course>275.14</course>
  <speed>0.0</speed>
  <fix>3d</fix>
</trkpt>
<trkpt lat="40.0728419" lon="-105.2305749">
  <ele>1586.17</ele>
  <time>2026-08-28T19:06:30Z</time>
  <course>11.56</course>
  <speed>0.01414213562373095</speed>
  <fix>3d</fix>
</trkpt>
<trkpt lat="40.072842" lon="-105.230575">
  <ele>1586.09</ele>
  <time>2026-08-28T19:06:30Z</time>
  <course>319.56</course>
  <speed>0.0</speed>
  <fix>3d</fix>
</trkpt>
<trkpt lat="40.0728419" lon="-105.2305749">
  <ele>1586.17</ele>
  <time>2026-08-28T19:06:30Z</time>
  <course>11.56</course>
  <speed>0.01414213562373095</speed>
  <fix>3d</fix>
</trkpt>
<trkpt lat="40.072842" lon="-105.230575">
  <ele>1586.09</ele>
  <time>2026-08-28T19:06:30Z</time>
  <course>302.93</course>
  <speed>0.0</speed>
  <fix>3d</fix>
</trkpt>
<trkpt lat="40.0728419" lon="-105.2305749">
  <ele>1586.17</ele>
  <time>2026-08-28T19:06:30Z</time>
  <course>11.56</course>
  <speed>0.01414213562373095</speed>
  <fix>3d</fix>
</trkpt>
<trkpt lat="40.072842" lon="-105.230575">
  <ele>1586.09</ele>
  <time>2026-08-28T19:06:30Z</time>
  <course>198.59</course>
  <speed>0.0</speed>
  <fix>3d</fix>
</trkpt>
<trkpt lat="40.0728419" lon="-105.2305749">
  <ele>1586.17</ele>
  <time>2026-08-28T19:06:30Z</time>
  <course>11.56</course>
  <speed>0.01414213562373095</speed>
  <fix>3d</fix>
</trkpt>
<trkpt lat="40.072842" lon="-105.230575">
  <ele>1586.09</ele>
  <time>2026-08-28T19:06:30Z</time>
  <course>292.57</course>
  <speed>0.0</speed>
  <fix>3d</fix>
</trkpt>
<trkpt lat="40.0728419" lon="-105.2305749">
  <ele>1586.17</ele>
  <time>2026-08-28T19:06:30Z</time>
  <course>11.56</course>
  <speed>0.01414213562373095</speed>
  <fix>3d</fix>
</trkpt>
<trkpt lat="40.072842" lon="-105.230575">
  <ele>1586.09</ele>
  <time>2026-08-28T19:06:30Z</time>
  <course>297.68</course>
  <speed>0.0</speed>
  <fix>3d</fix>
</trkpt>
<trkpt lat="40.0728419" lon="-105.2305749">
  <ele>1586.17</ele>
  <time>2026-08-28T19:06:30Z</time>
  <course>11.56</course>
  <speed>0.01414213562373095</speed>
  <fix>3d</fix>
</trkpt>
<trkpt lat="40.072842" lon="-105.230575">
  <ele>1586.09</ele>
  <time>2026-08-28T19:06:30Z</time>
  <course>291.71</course>
  <speed>0.0</speed>
  <fix>3d</fix>
</trkpt>
<trkpt lat="40.0728419" lon="-105.2305749">
  <ele>1586.17</ele>
  <time>2026-08-28T19:06:30Z</time>
  <course>11.56</course>
  <speed>0.01414213562373095</speed>
  <fix>3d</fix>
</trkpt>
<trkpt lat="40.072842" lon="-105.230575">
  <ele>1586.09</ele>
  <time>2026-08-28T19:06:30Z</time>
  <course>291.68</course>
  <speed>0.0</speed>
  <fix>3d</fix>
</trkpt>
<trkpt lat="40.0728419" lon="-105.2305749">
  <ele>1586.17</ele>
  <time>2026-08-28T19:06:30Z</time>
  <course>11.56</course>
  <speed>0.01414213562373095</speed>
  <fix>3d</fix>
</trkpt>
<trkpt lat="40.072842" lon="-105.230575">
  <ele>1586.09</ele>
  <time>2026-08-28T19:06:30Z</time>
  <course>292.63</course>
  <speed>0.0</speed>
  <fix>3d</fix>
</trkpt>
<trkpt lat="40.0728419" lon="-105.2305749">
  <ele>1586.17</ele>
  <time>2026-08-28T19:06:30Z</time>
  <course>11.56</course>
  <speed>0.01</speed>
  <fix>3d</fix>
</trkpt>
<trkpt lat="40.072842" lon="-105.230575">
  <ele>1586.09</ele>
  <time>2026-08-28T19:06:30Z</time>
  <course>292.52</course>
  <speed>0.0</speed>
  <fix>3d</fix>
</trkpt>
<trkpt lat="40.0728419" lon="-105.2305749">
  <ele>1586.17</ele>
  <time>2026-08-28T19:06:30Z</time>
  <course>11.56</course>
  <speed>0.01</speed>
  <fix>3d</fix>
</trkpt>
<trkpt lat="40.072842" lon="-105.230575">
  <ele>1586.09</ele>
  <time>2026-08-28T19:06:30Z</time>
  <course>6.14</course>
  <speed>0.0</speed>
  <fix>3d</fix>
</trkpt>
<trkpt lat="40.0728419" lon="-105.2305749">
  <ele>1586.17</ele>
  <time>2026-08-28T19:06:30Z</time>
  <course>11.56</course>
  <speed>0.01</speed>
  <fix>3d</fix>
</trkpt>
<trkpt lat="40.072842" lon="-105.230575">
  <ele>1586.09</ele>
  <time>2026-08-28T19:06:30Z</time>
  <course>11.31</course>
  <speed>0.0</speed>
  <fix>3d</fix>
</trkpt>
<trkpt lat="40.0728419" lon="-105.2305749">
  <ele>1586.17</ele>
  <time>2026-08-28T19:06:30Z</time>
  <course>11.56</course>
  <speed>0.01</speed>
  <fix>3d</fix>
</trkpt>
<trkpt lat="40.072842" lon="-105.230575">
  <ele>1586.09</ele>
  <time>2026-08-28T19:06:30Z</time>
  <course>4.27</course>
  <speed>0.0</speed>
  <fix>3d</fix>
</trkpt>
<trkpt lat="40.0728419" lon="-105.2305749">
  <ele>1586.17</ele>
  <time>2026-08-28T19:06:30Z</time>
  <course>11.56</course>
  <speed>0.01</speed>
  <fix>3d</fix>
</trkpt>
<trkpt lat="40.072842" lon="-105.230575">
  <ele>1586.09</ele>
  <time>2026-08-28T19:06:30Z</time>
  <course>249.41</course>
  <speed>0.0</speed>
  <fix>3d</fix>
</trkpt>
<trkpt lat="40.0728419" lon="-105.2305749">
  <ele>1586.17</ele>
  <time>2026-08-28T19:06:30Z</time>
  <course>11.56</course>
  <speed>0.01</speed>
  <fix>3d</fix>
</trkpt>
<trkpt lat="40.072842" lon="-105.230575">
  <ele>1586.09</ele>
  <time>2026-08-28T19:06:30Z</time>
  <course>228.09</course>
  <speed>0.0</speed>
  <fix>3d</fix>
</trkpt>
<trkpt lat="40.0728419" lon="-105.2305749">
  <ele>1586.17</ele>
  <time>2026-08-28T19:06:30Z</time>
  <course>11.56</course>
  <speed>0.01</speed>
  <fix>3d</fix>
</trkpt>
<trkpt lat="40.072842" lon="-105.230575">
  <ele>1586.09</ele>
  <time>2026-08-28T19:06:30Z</time>
  <course>342.99</course>
  <speed>0.0</speed>
  <fix>3d</fix>
</trkpt>
<trkpt lat="40.0728419" lon="-105.2305749">
  <ele>1586.17</ele>
  <time>2026-08-28T19:06:30Z</time>
  <course>11.56</course>
  <speed>0.01</speed>
  <fix>3d</fix>
</trkpt>
<trkpt lat="40.072842" lon="-105.230575">
  <ele>1586.09</ele>
  <time>2026-08-28T19:06:30Z</time>
  <course>327.37</course>
  <speed>0.0</speed>
  <fix>3d</fix>
</trkpt>
<trkpt lat="40.0728419" lon="-105.2305749">
  <ele>1586.17</ele>
  <time>2026-08-28T19:06:30Z</time>
  <course>11.56</course>
  <speed>0.01</speed>
  <fix>3d</fix>
</trkpt>
<trkpt lat="40.072842" lon="-105.230575">
  <ele>1586.09</ele>
  <time>2026-08-28T19:06:30Z</time>
  <course>322.08</course>
  <speed>0.0</speed>
  <fix>3d</fix>
</trkpt>
<trkpt lat="40.0728419" lon="-105.2305749">
  <ele>1586.17</ele>
  <time>2026-08-28T19:06:30Z</time>
  <course>11.56</course>
  <speed>0.01</speed>
  <fix>3d</fix>
</trkpt>
<trkpt lat="40.072842" lon="-105.230575">
  <ele>1586.09</ele>
  <time>2026-08-28T19:06:30Z</time>
  <course>287.05</course>
  <speed>0.0</speed>
  <fix>3d</fix>
</trkpt>
<trkpt lat="40.0728419" lon="-105.2305749">
  <ele>1586.17</ele>
  <time>2026-08-28T19:06:30Z</time>
  <course>11.56</course>
  <speed>0.01</speed>
  <fix>3d</fix>
</trkpt>
<trkpt lat="40.072842" lon="-105.230575">
  <ele>1586.09</ele>
  <time>2026-08-28T19:06:30Z</time>
  <course>277.02</course>
  <speed>0.0</speed>
  <fix>3d</fix>
</trkpt>
<trkpt lat="40.0728419" lon="-105.2305749">
  <ele>1586.17</ele>
  <time>2026-08-28T19:06:30Z</time>
  <course>11.56</course>
  <speed>0.01</speed>
  <fix>3d</fix>
</trkpt>
<trkpt lat="40.072842" lon="-105.230575">
  <ele>1586.09</ele>
  <time>2026-08-28T19:06:30Z</time>
  <course>280.5</course>
  <speed>0.0</speed>
  <fix>3d</fix>
</trkpt>
<trkpt lat="40.0728419" lon="-105.2305749">
  <ele>1586.17</ele>
  <time>2026-08-28T19:06:30Z</time>
  <course>11.56</course>
  <speed>0.01</speed>
  <fix>3d</fix>
</trkpt>
<trkpt lat="40.072842" lon="-105.230575">
  <ele>1586.09</ele>
  <time>2026-08-28T19:06:30Z</time>
  <course>358.33</course>
  <speed>0.0</speed>
  <fix>3d</fix>
</trkpt>
<trkpt lat="40.0728419" lon="-105.2305749">
  <ele>1586.17</ele>
  <time>2026-08-28T19:06:30Z</time>
  <course>11.56</course>
  <speed>0.01</speed>
  <fix>3d</fix>
</trkpt>
<trkpt lat="40.072842" lon="-105.230575">
  <ele>1586.09</ele>
  <time>2026-08-28T19:06:30Z</time>
  <course>319.29</course>
  <speed>0.0</speed>
  <fix>3d</fix>
</trkpt>
<trkpt lat="40.0728419" lon="-105.2305749">
  <ele>1586.17</ele>
  <time>2026-08-28T19:06:30Z</time>
  <course>11.56</course>
  <speed>0.01</speed>
  <fix>3d</fix>
</trkpt>
<trkpt lat="40.072842" lon="-105.230575">
  <ele>1586.09</ele>
  <time>2026-08-28T19:06:30Z</time>
  <course>315.96</course>
  <speed>0.0</speed>
  <fix>3d</fix>
</trkpt>
<trkpt lat="40.0728419" lon="-105.2305749">
  <ele>1586.18</ele>
  <time>2026-08-28T19:06:30Z</time>
  <course>11.56</course>
  <speed>0.01</speed>
  <fix>3d</fix>
</trkpt>
<trkpt lat="40.072842" lon="-105.230575">
  <ele>1586.09</ele>
  <time>2026-08-28T19:06:30Z</time>
  <course>320.69</course>
  <speed>0.0</speed>
  <fix>3d</fix>
</trkpt>
<trkpt lat="40.0728419" lon="-105.2305749">
  <ele>1586.18</ele>
  <time>2026-08-28T19:06:30Z</time>
  <course>11.56</course>
  <speed>0.01</speed>
  <fix>3d</fix>
</trkpt>
<trkpt lat="40.072842" lon="-105.230575">
  <ele>1586.09</ele>
  <time>2026-08-28T19:06:30Z</time>
  <course>320.56</course>
  <speed>0.0</speed>
  <fix>3d</fix>
</trkpt>
<trkpt lat="40.0728419" lon="-105.2305749">
  <ele>1586.18</ele>
  <time>2026-08-28T19:06:31Z</time>
  <course>11.56</course>
  <speed>0.01</speed>
  <fix>3d</fix>
</trkpt>
<trkpt lat="40.072842" lon="-105.230575">
  <ele>1586.09</ele>
  <time>2026-08-28T19:06:31Z</time>
  <course>319.92</course>
  <speed>0.0</speed>
  <fix>3d</fix>
</trkpt>
<trkpt lat="40.0728419" lon="-105.2305749">
  <ele>1586.18</ele>
  <time>2026-08-28T19:06:31Z</time>
  <course>11.56</course>
  <speed>0.01</speed>
  <fix>3d</fix>
</trkpt>
<trkpt lat="40.072842" lon="-105.230575">
  <ele>1586.09</ele>
  <time>2026-08-28T19:06:31Z</time>
  <course>320.01</course>
  <speed>0.0</speed>
  <fix>3d</fix>
</trkpt>
<trkpt lat="40.0728419" lon="-105.2305749">
  <ele>1586.18</ele>
  <time>2026-08-28T19:06:31Z</time>
  <course>11.56</course>
  <speed>0.01414213562373095</speed>
  <fix>3d</fix>
</trkpt>
<trkpt lat="40.072842" lon="-105.230575">
  <ele>1586.09</ele>
  <time>2026-08-28T19:06:31Z</time>
  <course>320.09</course>
  <speed>0.0</speed>
  <fix>3d</fix>
</trkpt>
<trkpt lat="40.0728419" lon="-105.2305749">
  <ele>1586.18</ele>
  <time>2026-08-28T19:06:31Z</time>
  <course>11.56</course>
  <speed>0.01414213562373095</speed>
  <fix>3d</fix>
</trkpt>
<trkpt lat="40.072842" lon="-105.230575">
  <ele>1586.09</ele>
  <time>2026-08-28T19:06:31Z</time>
  <course>320.06</course>
  <speed>0.0</speed>
  <fix>3d</fix>
</trkpt>
<trkpt lat="40.0728419" lon="-105.2305749">
  <ele>1586.18</ele>
  <time>2026-08-28T19:06:31Z</time>
  <course>11.56</course>
  <speed>0.01414213562373095</speed>
  <fix>3d</fix>
</trkpt>
<trkpt lat="40.072842" lon="-105.230575">
  <ele>1586.09</ele>
  <time>2026-08-28T19:06:31Z</time>
  <course>320.06</course>
  <speed>0.0</speed>
  <fix>3d</fix>
</trkpt>
<trkpt lat="40.0728419" lon="-105.2305749">
  <ele>1586.18</ele>
  <time>2026-08-28T19:06:31Z</time>
  <course>11.56</course>
  <speed>0.01414213562373095</speed>
  <fix>3d</fix>
</trkpt>
<trkpt lat="40.072842" lon="-105.230575">
  <ele>1586.09</ele>
  <time>2026-08-28T19:06:31Z</time>
  <course>320.06</course>
  <speed>0.0</speed>
  <fix>3d</fix>
</trkpt>
<trkpt lat="40.0728419" lon="-105.2305749">
  <ele>1586.18</ele>
  <time>2026-08-28T19:06:31Z</time>
  <course>11.56</course>
  <speed>0.01414213562373095</speed>
  <fix>3d</fix>
</trkpt>
<trkpt lat="40.072842" lon="-105.230575">
  <ele>1586.09</ele>
  <time>2026-08-28T19:06:31Z</time>
  <course>320.06</course>
  <speed>0.0</speed>
  <fix>3d</fix>
</trkpt>
<trkpt lat="40.0728419" lon="-105.2305749">
  <ele>1586.18</ele>
  <time>2026-08-28T19:06:31Z</time>
  <course>11.56</course>
  <speed>0.01414213562373095</speed>
  <fix>3d</fix>
</trkpt>
<trkpt lat="40.072842" lon="-105.230575">
  <ele>1586.09</ele>
  <time>2026-08-28T19:06:31Z</time>
  <course>320.06</course>
  <speed>0.0</speed>
  <fix>3d</fix>
</trkpt>
<trkpt lat="40.0728419" lon="-105.2305749">
  <ele>1586.19</ele>
  <time>2026-08-28T19:06:31Z</time>
  <course>11.56</course>
  <speed>0.01414213562373095</speed>
  <fix>3d</fix>
</trkpt>
<trkpt lat="40.072842" lon="-105.230575">
  <ele>1586.09</ele>
  <time>2026-08-28T19:06:31Z</time>
  <course>320.06</course>
  <speed>0.0</speed>
  <fix>3d</fix>
</trkpt>
<trkpt lat="40.0728419" lon="-105.2305749">
  <ele>1586.19</ele>
  <time>2026-08-28T19:06:31Z</time>
  <course>11.56</course>
  <speed>0.01414213562373095</speed>
  <fix>3d</fix>
</trkpt>
<trkpt lat="40.072842" lon="-105.230575">
  <ele>1586.09</ele>
  <time>2026-08-28T19:06:31Z</time>
  <course>320.06</course>
  <speed>0.0</speed>
  <fix>3d</fix>
</trkpt>
<trkpt lat="40.0728419" lon="-105.2305749">
  <ele>1586.18</ele>
  <time>2026-08-28T19:06:31Z</time>
  <course>11.56</course>
  <speed>0.01414213562373095</speed>
  <fix>3d</fix>
</trkpt>
<trkpt lat="40.072842" lon="-105.230575">
  <ele>1586.09</ele>
  <time>2026-08-28T19:06:31Z</time>
  <course>320.06</course>
  <speed>0.0</speed>
  <fix>3d</fix>
</trkpt>
<trkpt lat="40.0728419" lon="-105.2305749">
  <ele>1586.18</ele>
  <time>2026-08-28T19:06:31Z</time>
  <course>11.56</course>
  <speed>0.022360679774997897</speed>
  <fix>3d</fix>
</trkpt>
<trkpt lat="40.072842" lon="-105.230575">
  <ele>1586.09</ele>
  <time>2026-08-28T19:06:31Z</time>
  <course>320.06</course>
  <speed>0.0</speed>
  <fix>3d</fix>
</trkpt>
<trkpt lat="40.0728419" lon="-105.2305749">
  <ele>1586.18</ele>
  <time>2026-08-28T19:06:31Z</time>
  <course>11.56</course>
  <speed>0.022360679774997897</speed>
  <fix>3d</fix>
</trkpt>
<trkpt lat="40.072842" lon="-105.230575">
  <ele>1586.09</ele>
  <time>2026-08-28T19:06:31Z</time>
  <course>320.06</course>
  <speed>0.0</speed>
  <fix>3d</fix>
</trkpt>
<trkpt lat="40.0728419" lon="-105.2305749">
  <ele>1586.18</ele>
  <time>2026-08-28T19:06:31Z</time>
  <course>11.56</course>
  <speed>0.022360679774997897</speed>
  <fix>3d</fix>
</trkpt>
<trkpt lat="40.072842" lon="-105.230575">
  <ele>1586.09</ele>
  <time>2026-08-28T19:06:31Z</time>
  <course>320.06</course>
  <speed>0.0</speed>
  <fix>3d</fix>
</trkpt>
<trkpt lat="40.0728419" lon="-105.2305749">
  <ele>1586.18</ele>
  <time>2026-08-28T19:06:31Z</time>
  <course>11.57</course>
  <speed>0.022360679774997897</speed>
  <fix>3d</fix>
</trkpt>
<trkpt lat="40.072842" lon="-105.230575">
  <ele>1586.09</ele>
  <time>2026-08-28T19:06:31Z</time>
  <course>320.06</course>
  <speed>0.0</speed>
  <fix>3d</fix>
</trkpt>
<trkpt lat="40.0728419" lon="-105.2305749">
  <ele>1586.18</ele>
  <time>2026-08-28T19:06:31Z</time>
  <course>11.57</course>
  <speed>0.022360679774997897</speed>
  <fix>3d</fix>
</trkpt>
<trkpt lat="40.072842" lon="-105.230575">
  <ele>1586.09</ele>
  <time>2026-08-28T19:06:31Z</time>
  <course>320.06</course>
  <speed>0.0</speed>
  <fix>3d</fix>
</trkpt>
<trkpt lat="40.0728419" lon="-105.2305749">
  <ele>1586.18</ele>
  <time>2026-08-28T19:06:31Z</time>
  <course>11.57</course>
  <speed>0.022360679774997897</speed>
  <fix>3d</fix>
</trkpt>
<trkpt lat="40.072842" lon="-105.230575">
  <ele>1586.09</ele>
  <time>2026-08-28T19:06:31Z</time>
  <course>320.06</course>
  <speed>0.0</speed>
  <fix>3d</fix>
</trkpt>
<trkpt lat="40.0728419" lon="-105.2305749">
  <ele>1586.18</ele>
  <time>2026-08-28T19:06:31Z</time>
  <course>11.57</course>
  <speed>0.022360679774997897</speed>
  <fix>3d</fix>
</trkpt>
<trkpt lat="40.072842" lon="-105.230575">
  <ele>1586.09</ele>
  <time>2026-08-28T19:06:31Z</time>
  <course>320.06</course>
  <speed>0.0</speed>
  <fix>3d</fix>
</trkpt>
<trkpt lat="40.0728419" lon="-105.2305749">
  <ele>1586.18</ele>
  <time>2026-08-28T19:06:31Z</time>
  <course>11.57</course>
  <speed>0.022360679774997897</speed>
  <fix>3d</fix>
</trkpt>
<trkpt lat="40.072842" lon="-105.230575">
  <ele>1586.09</ele>
  <time>2026-08-28T19:06:31Z</time>
  <course>320.06</course>
  <speed>0.0</speed>
  <fix>3d</fix>
</trkpt>
<trkpt lat="40.0728419" lon="-105.2305749">
  <ele>1586.18</ele>
  <time>2026-08-28T19:06:31Z</time>
  <course>11.57</course>
  <speed>0.022360679774997897</speed>
  <fix>3d</fix>
</trkpt>
<trkpt lat="40.072842" lon="-105.230575">
  <ele>1586.09</ele>
  <time>2026-08-28T19:06:31Z</time>
  <course>320.06</course>
  <speed>0.0</speed>
  <fix>3d</fix>
</trkpt>
<trkpt lat="40.0728419" lon="-105.2305749">
  <ele>1586.18</ele>
  <time>2026-08-28T19:06:31Z</time>
  <course>11.57</course>
  <speed>0.022360679774997897</speed>
  <fix>3d</fix>
</trkpt>
<trkpt lat="40.072842" lon="-105.230575">
  <ele>1586.09</ele>
  <time>2026-08-28T19:06:31Z</time>
  <course>320.06</course>
  <speed>0.0</speed>
  <fix>3d</fix>
</trkpt>
<trkpt lat="40.0728419" lon="-105.2305749">
  <ele>1586.18</ele>
  <time>2026-08-28T19:06:31Z</time>
  <course>11.57</course>
  <speed>0.022360679774997897</speed>
  <fix>3d</fix>
</trkpt>
<trkpt lat="40.072842" lon="-105.230575">
  <ele>1586.09</ele>
  <time>2026-08-28T19:06:31Z</time>
  <course>320.06</course>
  <speed>0.0</speed>
  <fix>3d</fix>
</trkpt>
<trkpt lat="40.0728419" lon="-105.2305749">
  <ele>1586.18</ele>
  <time>2026-08-28T19:06:31Z</time>
  <course>11.57</course>
  <speed>0.022360679774997897</speed>
  <fix>3d</fix>
</trkpt>
<trkpt lat="40.072842" lon="-105.230575">
  <ele>1586.09</ele>
  <time>2026-08-28T19:06:31Z</time>
  <course>320.06</course>
  <speed>0.0</speed>
  <fix>3d</fix>
</trkpt>
<trkpt lat="40.0728419" lon="-105.2305749">
  <ele>1586.18</ele>
  <time>2026-08-28T19:06:31Z</time>
  <course>11.57</course>
  <speed>0.022360679774997897</speed>
  <fix>3d</fix>
</trkpt>
<trkpt lat="40.072842" lon="-105.230575">
  <ele>1586.09</ele>
  <time>2026-08-28T19:06:31Z</time>
  <course>320.06</course>
  <speed>0.0</speed>
  <fix>3d</fix>
</trkpt>
<trkpt lat="40.0728419" lon="-105.2305749">
  <ele>1586.19</ele>
  <time>2026-08-28T19:06:31Z</time>
  <course>11.57</course>
  <speed>0.022360679774997897</speed>
  <fix>3d</fix>
</trkpt>
<trkpt lat="40.072842" lon="-105.230575">
  <ele>1586.09</ele>
  <time>2026-08-28T19:06:31Z</time>
  <course>320.06</course>
  <speed>0.0</speed>
  <fix>3d</fix>
</trkpt>
<trkpt lat="40.0728419" lon="-105.2305749">
  <ele>1586.19</ele>
  <time>2026-08-28T19:06:31Z</time>
  <course>11.57</course>
  <speed>0.022360679774997897</speed>
  <fix>3d</fix>
</trkpt>
<trkpt lat="40.072842" lon="-105.230575">
  <ele>1586.09</ele>
  <time>2026-08-28T19:06:31Z</time>
  <course>320.06</course>
  <speed>0.0</speed>
  <fix>3d</fix>
</trkpt>
<trkpt lat="40.0728419" lon="-105.2305749">
  <ele>1586.19</ele>
  <time>2026-08-28T19:06:31Z</time>
  <course>11.57</course>
  <speed>0.022360679774997897</speed>
  <fix>3d</fix>
</trkpt>
<trkpt lat="40.072842" lon="-105.230575">
  <ele>1586.09</ele>
  <time>2026-08-28T19:06:31Z</time>
  <course>320.06</course>
  <speed>0.0</speed>
  <fix>3d</fix>
</trkpt>
<trkpt lat="40.0728419" lon="-105.2305749">
  <ele>1586.19</ele>
  <time>2026-08-28T19:06:31Z</time>
  <course>11.57</course>
  <speed>0.022360679774997897</speed>
  <fix>3d</fix>
</trkpt>
<trkpt lat="40.072842" lon="-105.230575">
  <ele>1586.09</ele>
  <time>2026-08-28T19:06:31Z</time>
  <course>320.06</course>
  <speed>0.0</speed>
  <fix>3d</fix>
</trkpt>
<trkpt lat="40.0728419" lon="-105.2305749">
  <ele>1586.19</ele>
  <time>2026-08-28T19:06:31Z</time>
  <course>11.57</course>
  <speed>0.022360679774997897</speed>
  <fix>3d</fix>
</trkpt>
<trkpt lat="40.072842" lon="-105.230575">
  <ele>1586.09</ele>
  <time>2026-08-28T19:06:31Z</time>
  <course>320.06</course>
  <speed>0.0</speed>
  <fix>3d</fix>
</trkpt>
<trkpt lat="40.0728419" lon="-105.2305749">
  <ele>1586.19</ele>
  <time>2026-08-28T19:06:31Z</time>
  <course>11.57</course>
  <speed>0.022360679774997897</speed>
  <fix>3d</fix>
</trkpt>
<trkpt lat="40.072842" lon="-105.230575">
  <ele>1586.09</ele>
  <time>2026-08-28T19:06:31Z</time>
  <course>320.06</course>
  <speed>0.0</speed>
  <fix>3d</fix>
</trkpt>
<trkpt lat="40.0728419" lon="-105.2305749">
  <ele>1586.19</ele>
  <time>2026-08-28T19:06:31Z</time>
  <course>11.57</course>
  <speed>0.022360679774997897</speed>
  <fix>3d</fix>
</trkpt>
<trkpt lat="40.072842" lon="-105.230575">
  <ele>1586.09</ele>
  <time>2026-08-28T19:06:31Z</time>
  <course>320.06</course>
  <speed>0.0</speed>
  <fix>3d</fix>
</trkpt>
<trkpt lat="40.0728419" lon="-105.2305749">
  <ele>1586.19</ele>
  <time>2026-08-28T19:06:31Z</time>
  <course>11.57</course>
  <speed>0.022360679774997897</speed>
  <fix>3d</fix>
</trkpt>
<trkpt lat="40.072842" lon="-105.230575">
  <ele>1586.09</ele>
  <time>2026-08-28T19:06:31Z</time>
  <course>320.06</course>
  <speed>0.0</speed>
  <fix>3d</fix>
</trkpt>
<trkpt lat="40.0728419" lon="-105.2305749">
  <ele>1586.19</ele>
  <time>2026-08-28T19:06:31Z</time>
  <course>11.58</course>
  <speed>0.022360679774997897</speed>
  <fix>3d</fix>
</trkpt>
<trkpt lat="40.072842" lon="-105.230575">
  <ele>1586.09</ele>
  <time>2026-08-28T19:06:31Z</time>
  <course>320.06</course>
  <speed>0.0</speed>
  <fix>3d</fix>
</trkpt>
<trkpt lat="40.0728419" lon="-105.2305749">
  <ele>1586.19</ele>
  <time>2026-08-28T19:06:31Z</time>
  <course>11.58</course>
  <speed>0.022360679774997897</speed>
  <fix>3d</fix>
</trkpt>
<trkpt lat="40.072842" lon="-105.230575">
  <ele>1586.09</ele>
  <time>2026-08-28T19:06:31Z</time>
  <course>320.06</course>
  <speed>0.0</speed>
  <fix>3d</fix>
</trkpt>
<trkpt lat="40.0728419" lon="-105.2305749">
  <ele>1586.19</ele>
  <time>2026-08-28T19:06:31Z</time>
  <course>11.58</course>
  <speed>0.022360679774997897</speed>
  <fix>3d</fix>
</trkpt>
<trkpt lat="40.072842" lon="-105.230575">
  <ele>1586.09</ele>
  <time>2026-08-28T19:06:31Z</time>
  <course>320.06</course>
  <speed>0.0</speed>
  <fix>3d</fix>
</trkpt>
<trkpt lat="40.0728419" lon="-105.2305749">
  <ele>1586.19</ele>
  <time>2026-08-28T19:06:31Z</time>
  <course>11.58</course>
  <speed>0.022360679774997897</speed>
  <fix>3d</fix>
</trkpt>
<trkpt lat="40.072842" lon="-105.230575">
  <ele>1586.09</ele>
  <time>2026-08-28T19:06:31Z</time>
  <course>320.06</course>
  <speed>0.0</speed>
  <fix>3d</fix>
</trkpt>
<trkpt lat="40.0728419" lon="-105.2305749">
  <ele>1586.19</ele>
  <time>2026-08-28T19:06:31Z</time>
  <course>11.58</course>
  <speed>0.022360679774997897</speed>
  <fix>3d</fix>
</trkpt>
<trkpt lat="40.072842" lon="-105.230575">
  <ele>1586.09</ele>
  <time>2026-08-28T19:06:31Z</time>
  <course>320.06</course>
  <speed>0.0</speed>
  <fix>3d</fix>
</trkpt>
<trkpt lat="40.0728419" lon="-105.2305749">
  <ele>1586.19</ele>
  <time>2026-08-28T19:06:31Z</time>
  <course>11.58</course>
  <speed>0.022360679774997897</speed>
  <fix>3d</fix>
</trkpt>
<trkpt lat="40.072842" lon="-105.230575">
  <ele>1586.09</ele>
  <time>2026-08-28T19:06:31Z</time>
  <course>320.06</course>
  <speed>0.0</speed>
  <fix>3d</fix>
</trkpt>
<trkpt lat="40.0728419" lon="-105.2305749">
  <ele>1586.2</ele>
  <time>2026-08-28T19:06:31Z</time>
  <course>11.58</course>
  <speed>0.022360679774997897</speed>
  <fix>3d</fix>
</trkpt>
<trkpt lat="40.072842" lon="-105.230575">
  <ele>1586.09</ele>
  <time>2026-08-28T19:06:31Z</time>
  <course>320.06</course>
  <speed>0.0</speed>
  <fix>3d</fix>
</trkpt>
<trkpt lat="40.0728419" lon="-105.2305749">
  <ele>1586.2</ele>
  <time>2026-08-28T19:06:31Z</time>
  <course>11.58</course>
  <speed>0.022360679774997897</speed>
  <fix>3d</fix>
</trkpt>
<trkpt lat="40.072842" lon="-105.230575">
  <ele>1586.09</ele>
  <time>2026-08-28T19:06:31Z</time>
  <course>320.06</course>
  <speed>0.0</speed>
  <fix>3d</fix>
</trkpt>
<trkpt lat="40.0728419" lon="-105.2305749">
  <ele>1586.2</ele>
  <time>2026-08-28T19:06:31Z</time>
  <course>11.58</course>
  <speed>0.022360679774997897</speed>
  <fix>3d</fix>
</trkpt>
<trkpt lat="40.072842" lon="-105.230575">
  <ele>1586.09</ele>
  <time>2026-08-28T19:06:31Z</time>
  <course>320.06</course>
  <speed>0.0</speed>
  <fix>3d</fix>
</trkpt>
<trkpt lat="40.0728419" lon="-105.2305749">
  <ele>1586.2</ele>
  <time>2026-08-28T19:06:31Z</time>
  <course>11.58</course>
  <speed>0.022360679774997897</speed>
  <fix>3d</fix>
</trkpt>
<trkpt lat="40.072842" lon="-105.230575">
  <ele>1586.09</ele>
  <time>2026-08-28T19:06:31Z</time>
  <course>320.06</course>
  <speed>0.0</speed>
  <fix>3d</fix>
</trkpt>
<trkpt lat="40.0728419" lon="-105.2305749">
  <ele>1586.2</ele>
  <time>2026-08-28T19:06:31Z</time>
  <course>11.58</course>
  <speed>0.022360679774997897</speed>
  <fix>3d</fix>
</trkpt>
<trkpt lat="40.072842" lon="-105.230575">
  <ele>1586.09</ele>
  <time>2026-08-28T19:06:31Z</time>
  <course>320.06</course>
  <speed>0.0</speed>
  <fix>3d</fix>
</trkpt>
<trkpt lat="40.0728419" lon="-105.2305749">
  <ele>1586.2</ele>
  <time>2026-08-28T19:06:31Z</time>
  <course>11.58</course>
  <speed>0.022360679774997897</speed>
  <fix>3d</fix>
</trkpt>
<trkpt lat="40.072842" lon="-105.230575">
  <ele>1586.09</ele>
  <time>2026-08-28T19:06:31Z</time>
  <course>320.06</course>
  <speed>0.0</speed>
  <fix>3d</fix>
</trkpt>
<trkpt lat="40.0728419" lon="-105.2305749">
  <ele>1586.19</ele>
  <time>2026-08-28T19:06:31Z</time>
  <course>11.58</course>
  <speed>0.022360679774997897</speed>
  <fix>3d</fix>
</trkpt>
<trkpt lat="40.072842" lon="-105.230575">
  <ele>1586.09</ele>
  <time>2026-08-28T19:06:31Z</time>
  <course>320.06</course>
  <speed>0.0</speed>
  <fix>3d</fix>
</trkpt>
<trkpt lat="40.0728419" lon="-105.2305749">
  <ele>1586.19</ele>
  <time>2026-08-28T19:06:31Z</time>
  <course>11.58</course>
  <speed>0.022360679774997897</speed>
  <fix>3d</fix>
</trkpt>
<trkpt lat="40.072842" lon="-105.230575">
  <ele>1586.09</ele>
  <time>2026-08-28T19:06:31Z</time>
  <course>320.06</course>
  <speed>0.0</speed>
  <fix>3d</fix>
</trkpt>
<trkpt lat="40.0728419" lon="-105.2305749">
  <ele>1586.19</ele>
  <time>2026-08-28T19:06:31Z</time>
  <course>11.58</course>
  <speed>0.022360679774997897</speed>
  <fix>3d</fix>
</trkpt>
<trkpt lat="40.072842" lon="-105.230575">
  <ele>1586.09</ele>
  <time>2026-08-28T19:06:31Z</time>
  <course>320.06</course>
  <speed>0.0</speed>
  <fix>3d</fix>
</trkpt>
<trkpt lat="40.0728419" lon="-105.2305749">
  <ele>1586.19</ele>
  <time>2026-08-28T19:06:31Z</time>
  <course>11.58</course>
  <speed>0.022360679774997897</speed>
  <fix>3d</fix>
</trkpt>
<trkpt lat="40.072842" lon="-105.230575">
  <ele>1586.09</ele>
  <time>2026-08-28T19:06:31Z</time>
  <course>320.06</course>
  <speed>0.0</speed>
  <fix>3d</fix>
</trkpt>
<trkpt lat="40.0728419" lon="-105.2305749">
  <ele>1586.19</ele>
  <time>2026-08-28T19:06:31Z</time>
  <course>11.58</course>
  <speed>0.022360679774997897</speed>
  <fix>3d</fix>
</trkpt>
<trkpt lat="40.072842" lon="-105.230575">
  <ele>1586.09</ele>
  <time>2026-08-28T19:06:31Z</time>
  <course>320.06</course>
  <speed>0.0</speed>
  <fix>3d</fix>
</trkpt>
<trkpt lat="40.0728419" lon="-105.2305749">
  <ele>1586.19</ele>
  <time>2026-08-28T19:06:31Z</time>
  <course>11.58</course>
  <speed>0.022360679774997897</speed>
  <fix>3d</fix>
</trkpt>
<trkpt lat="40.072842" lon="-105.230575">
  <ele>1586.09</ele>
  <time>2026-08-28T19:06:31Z</time>
  <course>320.06</course>
  <speed>0.0</speed>
  <fix>3d</fix>
</trkpt>
<trkpt lat="40.0728419" lon="-105.2305749">
  <ele>1586.18</ele>
  <time>2026-08-28T19:06:31Z</time>
  <course>11.58</course>
  <speed>0.022360679774997897</speed>
  <fix>3d</fix>
</trkpt>
<trkpt lat="40.072842" lon="-105.230575">
  <ele>1586.09</ele>
  <time>2026-08-28T19:06:31Z</time>
  <course>320.06</course>
  <speed>0.0</speed>
  <fix>3d</fix>
</trkpt>
<trkpt lat="40.0728419" lon="-105.2305749">
  <ele>1586.18</ele>
  <time>2026-08-28T19:06:31Z</time>
  <course>11.58</course>
  <speed>0.022360679774997897</speed>
  <fix>3d</fix>
</trkpt>
<trkpt lat="40.072842" lon="-105.230575">
  <ele>1586.09</ele>
  <time>2026-08-28T19:06:31Z</time>
  <course>320.06</course>
  <speed>0.0</speed>
  <fix>3d</fix>
</trkpt>
<trkpt lat="40.0728419" lon="-105.2305749">
  <ele>1586.18</ele>
  <time>2026-08-28T19:06:31Z</time>
  <course>11.58</course>
  <speed>0.022360679774997897</speed>
  <fix>3d</fix>
</trkpt>
<trkpt lat="40.072842" lon="-105.230575">
  <ele>1586.09</ele>
  <time>2026-08-28T19:06:31Z</time>
  <course>320.06</course>
  <speed>0.0</speed>
  <fix>3d</fix>
</trkpt>
<trkpt lat="40.0728419" lon="-105.2305749">
  <ele>1586.18</ele>
  <time>2026-08-28T19:06:31Z</time>
  <course>11.58</course>
  <speed>0.022360679774997897</speed>
  <fix>3d</fix>
</trkpt>
<trkpt lat="40.072842" lon="-105.230575">
  <ele>1586.09</ele>
  <time>2026-08-28T19:06:31Z</time>
  <course>320.06</course>
  <speed>0.0</speed>
  <fix>3d</fix>
</trkpt>
<trkpt lat="40.0728419" lon="-105.2305749">
  <ele>1586.18</ele>
  <time>2026-08-28T19:06:31Z</time>
  <course>11.58</course>
  <speed>0.022360679774997897</speed>
  <fix>3d</fix>
</trkpt>
<trkpt lat="40.072842" lon="-105.230575">
  <ele>1586.09</ele>
  <time>2026-08-28T19:06:31Z</time>
  <course>320.06</course>
  <speed>0.0</speed>
  <fix>3d</fix>
</trkpt>
<trkpt lat="40.0728419" lon="-105.2305749">
  <ele>1586.18</ele>
  <time>2026-08-28T19:06:31Z</time>
  <course>11.58</course>
  <speed>0.022360679774997897</speed>
  <fix>3d</fix>
</trkpt>
<trkpt lat="40.072842" lon="-105.230575">
  <ele>1586.09</ele>
  <time>2026-08-28T19:06:31Z</time>
  <course>320.06</course>
  <speed>0.0</speed>
  <fix>3d</fix>
</trkpt>
<trkpt lat="40.0728419" lon="-105.2305749">
  <ele>1586.18</ele>
  <time>2026-08-28T19:06:31Z</time>
  <course>11.58</course>
  <speed>0.022360679774997897</speed>
  <fix>3d</fix>
</trkpt>
<trkpt lat="40.072842" lon="-105.230575">
  <ele>1586.09</ele>
  <time>2026-08-28T19:06:31Z</time>
  <course>320.06</course>
  <speed>0.0</speed>
  <fix>3d</fix>
</trkpt>
<trkpt lat="40.0728419" lon="-105.2305749">
  <ele>1586.18</ele>
  <time>2026-08-28T19:06:31Z</time>
  <course>11.58</course>
  <speed>0.022360679774997897</speed>
  <fix>3d</fix>
</trkpt>
<trkpt lat="40.072842" lon="-105.230575">
  <ele>1586.09</ele>
  <time>2026-08-28T19:06:31Z</time>
  <course>320.06</course>
  <speed>0.0</speed>
  <fix>3d</fix>
</trkpt>
<trkpt lat="40.0728419" lon="-105.2305749">
  <ele>1586.18</ele>
  <time>2026-08-28T19:06:31Z</time>
  <course>11.58</course>
  <speed>0.022360679774997897</speed>
  <fix>3d</fix>
</trkpt>
<trkpt lat="40.072842" lon="-105.230575">
  <ele>1586.09</ele>
  <time>2026-08-28T19:06:31Z</time>
  <course>320.06</course>
  <speed>0.0</speed>
  <fix>3d</fix>
</trkpt>
<trkpt lat="40.0728419" lon="-105.2305749">
  <ele>1586.18</ele>
  <time>2026-08-28T19:06:31Z</time>
  <course>11.58</course>
  <speed>0.022360679774997897</speed>
  <fix>3d</fix>
</trkpt>
<trkpt lat="40.072842" lon="-105.230575">
  <ele>1586.09</ele>
  <time>2026-08-28T19:06:31Z</time>
  <course>320.06</course>
  <speed>0.0</speed>
  <fix>3d</fix>
</trkpt>
<trkpt lat="40.0728419" lon="-105.2305749">
  <ele>1586.18</ele>
  <time>2026-08-28T19:06:31Z</time>
  <course>11.58</course>
  <speed>0.022360679774997897</speed>
  <fix>3d</fix>
</trkpt>
<trkpt lat="40.072842" lon="-105.230575">
  <ele>1586.09</ele>
  <time>2026-08-28T19:06:31Z</time>
  <course>320.06</course>
  <speed>0.0</speed>
  <fix>3d</fix>
</trkpt>
<trkpt lat="40.0728419" lon="-105.2305749">
  <ele>1586.18</ele>
  <time>2026-08-28T19:06:31Z</time>
  <course>11.58</course>
  <speed>0.022360679774997897</speed>
  <fix>3d</fix>
</trkpt>
<trkpt lat="40.072842" lon="-105.230575">
  <ele>1586.09</ele>
  <time>2026-08-28T19:06:31Z</time>
  <course>320.06</course>
  <speed>0.0</speed>
  <fix>3d</fix>
</trkpt>
<trkpt lat="40.0728419" lon="-105.2305749">
  <ele>1586.18</ele>
  <time>2026-08-28T19:06:31Z</time>
  <course>11.58</course>
  <speed>0.022360679774997897</speed>
  <fix>3d</fix>
</trkpt>
<trkpt lat="40.072842" lon="-105.230575">
  <ele>1586.09</ele>
  <time>2026-08-28T19:06:31Z</time>
  <course>320.06</course>
  <speed>0.0</speed>
  <fix>3d</fix>
</trkpt>
<trkpt lat="40.0728419" lon="-105.2305749">
  <ele>1586.18</ele>
  <time>2026-08-28T19:06:31Z</time>
  <course>11.58</course>
  <speed>0.022360679774997897</speed>
  <fix>3d</fix>
</trkpt>
<trkpt lat="40.072842" lon="-105.230575">
  <ele>1586.09</ele>
  <time>2026-08-28T19:06:31Z</time>
  <course>320.06</course>
  <speed>0.0</speed>
  <fix>3d</fix>
</trkpt>
<trkpt lat="40.0728419" lon="-105.2305749">
  <ele>1586.18</ele>
  <time>2026-08-28T19:06:31Z</time>
  <course>11.58</course>
  <speed>0.022360679774997897</speed>
  <fix>3d</fix>
</trkpt>
<trkpt lat="40.072842" lon="-105.230575">
  <ele>1586.09</ele>
  <time>2026-08-28T19:06:31Z</time>
  <course>320.06</course>
  <speed>0.0</speed>
  <fix>3d</fix>
</trkpt>
<trkpt lat="40.0728419" lon="-105.2305749">
  <ele>1586.18</ele>
  <time>2026-08-28T19:06:31Z</time>
  <course>11.58</course>
  <speed>0.022360679774997897</speed>
  <fix>3d</fix>
</trkpt>
<trkpt lat="40.072842" lon="-105.230575">
  <ele>1586.09</ele>
  <time>2026-08-28T19:06:31Z</time>
  <course>320.06</course>
  <speed>0.0</speed>
  <fix>3d</fix>
</trkpt>
<trkpt lat="40.0728419" lon="-105.2305749">
  <ele>1586.18</ele>
  <time>2026-08-28T19:06:31Z</time>
  <course>11.58</course>
  <speed>0.022360679774997897</speed>
  <fix>3d</fix>
</trkpt>
<trkpt lat="40.072842" lon="-105.230575">
  <ele>1586.09</ele>
  <time>2026-08-28T19:06:31Z</time>
  <course>320.06</course>
  <speed>0.0</speed>
  <fix>3d</fix>
</trkpt>
<trkpt lat="40.0728419" lon="-105.2305749">
  <ele>1586.18</ele>
  <time>2026-08-28T19:06:31Z</time>
  <course>11.58</course>
  <speed>0.022360679774997897</speed>
  <fix>3d</fix>
</trkpt>
<trkpt lat="40.072842" lon="-105.230575">
  <ele>1586.09</ele>
  <time>2026-08-28T19:06:31Z</time>
  <course>320.06</course>
  <speed>0.0</speed>
  <fix>3d</fix>
</trkpt>
<trkpt lat="40.0728419" lon="-105.2305749">
  <ele>1586.17</ele>
  <time>2026-08-28T19:06:31Z</time>
  <course>11.58</course>
  <speed>0.022360679774997897</speed>
  <fix>3d</fix>
</trkpt>
<trkpt lat="40.072842" lon="-105.230575">
  <ele>1586.09</ele>
  <time>2026-08-28T19:06:31Z</time>
  <course>320.06</course>
  <speed>0.0</speed>
  <fix>3d</fix>
</trkpt>
<trkpt lat="40.0728419" lon="-105.2305749">
  <ele>1586.17</ele>
  <time>2026-08-28T19:06:31Z</time>
  <course>11.58</course>
  <speed>0.022360679774997897</speed>
  <fix>3d</fix>
</trkpt>
<trkpt lat="40.072842" lon="-105.230575">
  <ele>1586.09</ele>
  <time>2026-08-28T19:06:31Z</time>
  <course>320.06</course>
  <speed>0.0</speed>
  <fix>3d</fix>
</trkpt>
<trkpt lat="40.0728419" lon="-105.2305749">
  <ele>1586.17</ele>
  <time>2026-08-28T19:06:31Z</time>
  <course>11.58</course>
  <speed>0.022360679774997897</speed>
  <fix>3d</fix>
</trkpt>
<trkpt lat="40.072842" lon="-105.230575">
  <ele>1586.09</ele>
  <time>2026-08-28T19:06:31Z</time>
  <course>320.06</course>
  <speed>0.0</speed>
  <fix>3d</fix>
</trkpt>
<trkpt lat="40.0728419" lon="-105.2305749">
  <ele>1586.17</ele>
  <time>2026-08-28T19:06:31Z</time>
  <course>11.58</course>
  <speed>0.022360679774997897</speed>
  <fix>3d</fix>
</trkpt>
<trkpt lat="40.072842" lon="-105.230575">
  <ele>1586.09</ele>
  <time>2026-08-28T19:06:31Z</time>
  <course>320.06</course>
  <speed>0.0</speed>
  <fix>3d</fix>
</trkpt>
<trkpt lat="40.0728419" lon="-105.2305749">
  <ele>1586.17</ele>
  <time>2026-08-28T19:06:31Z</time>
  <course>11.58</course>
  <speed>0.022360679774997897</speed>
  <fix>3d</fix>
</trkpt>
<trkpt lat="40.072842" lon="-105.230575">
  <ele>1586.09</ele>
  <time>2026-08-28T19:06:31Z</time>
  <course>320.06</course>
  <speed>0.0</speed>
  <fix>3d</fix>
</trkpt>
<trkpt lat="40.0728419" lon="-105.2305749">
  <ele>1586.17</ele>
  <time>2026-08-28T19:06:31Z</time>
  <course>11.58</course>
  <speed>0.022360679774997897</speed>
  <fix>3d</fix>
</trkpt>
<trkpt lat="40.072842" lon="-105.230575">
  <ele>1586.09</ele>
  <time>2026-08-28T19:06:31Z</time>
  <course>320.06</course>
  <speed>0.0</speed>
  <fix>3d</fix>
</trkpt>
<trkpt lat="40.0728419" lon="-105.2305749">
  <ele>1586.17</ele>
  <time>2026-08-28T19:06:31Z</time>
  <course>11.58</course>
  <speed>0.022360679774997897</speed>
  <fix>3d</fix>
</trkpt>
<trkpt lat="40.072842" lon="-105.230575">
  <ele>1586.09</ele>
  <time>2026-08-28T19:06:31Z</time>
  <course>320.06</course>
  <speed>0.0</speed>
  <fix>3d</fix>
</trkpt>
<trkpt lat="40.0728419" lon="-105.2305749">
  <ele>1586.17</ele>
  <time>2026-08-28T19:06:31Z</time>
  <course>11.58</course>
  <speed>0.022360679774997897</speed>
  <fix>3d</fix>
</trkpt>
<trkpt lat="40.072842" lon="-105.230575">
  <ele>1586.09</ele>
  <time>2026-08-28T19:06:31Z</time>
  <course>320.06</course>
  <speed>0.0</speed>
  <fix>3d</fix>
</trkpt>
<trkpt lat="40.0728419" lon="-105.2305749">
  <ele>1586.17</ele>
  <time>2026-08-28T19:06:31Z</time>
  <course>11.58</course>
  <speed>0.022360679774997897</speed>
  <fix>3d</fix>
</trkpt>
<trkpt lat="40.072842" lon="-105.230575">
  <ele>1586.09</ele>
  <time>2026-08-28T19:06:31Z</time>
  <course>320.06</course>
  <speed>0.0</speed>
  <fix>3d</fix>
</trkpt>
<trkpt lat="40.0728419" lon="-105.2305749">
  <ele>1586.17</ele>
  <time>2026-08-28T19:06:31Z</time>
  <course>11.58</course>
  <speed>0.022360679774997897</speed>
  <fix>3d</fix>
</trkpt>
<trkpt lat="40.072842" lon="-105.230575">
  <ele>1586.09</ele>
  <time>2026-08-28T19:06:31Z</time>
  <course>320.06</course>
  <speed>0.0</speed>
  <fix>3d</fix>
</trkpt>
<trkpt lat="40.0728419" lon="-105.2305749">
  <ele>1586.17</ele>
  <time>2026-08-28T19:06:31Z</time>
  <course>11.58</course>
  <speed>0.022360679774997897</speed>
  <fix>3d</fix>
</trkpt>
<trkpt lat="40.072842" lon="-105.230575">
  <ele>1586.09</ele>
  <time>2026-08-28T19:06:31Z</time>
  <course>320.06</course>
  <speed>0.0</speed>
  <fix>3d</fix>
</trkpt>
<trkpt lat="40.0728419" lon="-105.2305749">
  <ele>1586.17</ele>
  <time>2026-08-28T19:06:31Z</time>
  <course>11.58</course>
  <speed>0.022360679774997897</speed>
  <fix>3d</fix>
</trkpt>
<trkpt lat="40.072842" lon="-105.230575">
  <ele>1586.09</ele>
  <time>2026-08-28T19:06:31Z</time>
  <course>320.06</course>
  <speed>0.0</speed>
  <fix>3d</fix>
</trkpt>
<trkpt lat="40.0728419" lon="-105.2305749">
  <ele>1586.17</ele>
  <time>2026-08-28T19:06:31Z</time>
  <course>11.58</course>
  <speed>0.022360679774997897</speed>
  <fix>3d</fix>
</trkpt>
<trkpt lat="40.072842" lon="-105.230575">
  <ele>1586.09</ele>
  <time>2026-08-28T19:06:31Z</time>
  <course>320.06</course>
  <speed>0.0</speed>
  <fix>3d</fix>
</trkpt>
<trkpt lat="40.0728419" lon="-105.2305749">
  <ele>1586.17</ele>
  <time>2026-08-28T19:06:31Z</time>
  <course>11.58</course>
  <speed>0.022360679774997897</speed>
  <fix>3d</fix>
</trkpt>
<trkpt lat="40.072842" lon="-105.230575">
  <ele>1586.09</ele>
  <time>2026-08-28T19:06:31Z</time>
  <course>320.06</course>
  <speed>0.0</speed>
  <fix>3d</fix>
</trkpt>
<trkpt lat="40.0728419" lon="-105.2305749">
  <ele>1586.16</ele>
  <time>2026-08-28T19:06:31Z</time>
  <course>11.58</course>
  <speed>0.022360679774997897</speed>
  <fix>3d</fix>
</trkpt>
<trkpt lat="40.072842" lon="-105.230575">
  <ele>1586.09</ele>
  <time>2026-08-28T19:06:31Z</time>
  <course>320.06</course>
  <speed>0.0</speed>
  <fix>3d</fix>
</trkpt>
<trkpt lat="40.0728419" lon="-105.2305749">
  <ele>1586.16</ele>
  <time>2026-08-28T19:06:31Z</time>
  <course>11.58</course>
  <speed>0.022360679774997897</speed>
  <fix>3d</fix>
</trkpt>
<trkpt lat="40.072842" lon="-105.230575">
  <ele>1586.09</ele>
  <time>2026-08-28T19:06:31Z</time>
  <course>320.06</course>
  <speed>0.0</speed>
  <fix>3d</fix>
</trkpt>
<trkpt lat="40.0728419" lon="-105.2305749">
  <ele>1586.16</ele>
  <time>2026-08-28T19:06:31Z</time>
  <course>11.58</course>
  <speed>0.022360679774997897</speed>
  <fix>3d</fix>
</trkpt>
<trkpt lat="40.072842" lon="-105.230575">
  <ele>1586.09</ele>
  <time>2026-08-28T19:06:31Z</time>
  <course>320.06</course>
  <speed>0.0</speed>
  <fix>3d</fix>
</trkpt>
<trkpt lat="40.0728419" lon="-105.2305749">
  <ele>1586.16</ele>
  <time>2026-08-28T19:06:31Z</time>
  <course>11.58</course>
  <speed>0.022360679774997897</speed>
  <fix>3d</fix>
</trkpt>
<trkpt lat="40.072842" lon="-105.230575">
  <ele>1586.09</ele>
  <time>2026-08-28T19:06:31Z</time>
  <course>320.06</course>
  <speed>0.0</speed>
  <fix>3d</fix>
</trkpt>
<trkpt lat="40.0728419" lon="-105.2305749">
  <ele>1586.16</ele>
  <time>2026-08-28T19:06:31Z</time>
  <course>11.58</course>
  <speed>0.022360679774997897</speed>
  <fix>3d</fix>
</trkpt>
<trkpt lat="40.072842" lon="-105.230575">
  <ele>1586.09</ele>
  <time>2026-08-28T19:06:31Z</time>
  <course>320.06</course>
  <speed>0.0</speed>
  <fix>3d</fix>
</trkpt>
<trkpt lat="40.0728419" lon="-105.2305749">
  <ele>1586.16</ele>
  <time>2026-08-28T19:06:31Z</time>
  <course>11.58</course>
  <speed>0.022360679774997897</speed>
  <fix>3d</fix>
</trkpt>
<trkpt lat="40.072842" lon="-105.230575">
  <ele>1586.09</ele>
  <time>2026-08-28T19:06:31Z</time>
  <course>320.06</course>
  <speed>0.0</speed>
  <fix>3d</fix>
</trkpt>
<trkpt lat="40.0728419" lon="-105.2305749">
  <ele>1586.16</ele>
  <time>2026-08-28T19:06:31Z</time>
  <course>11.58</course>
  <speed>0.022360679774997897</speed>
  <fix>3d</fix>
</trkpt>
<trkpt lat="40.072842" lon="-105.230575">
  <ele>1586.09</ele>
  <time>2026-08-28T19:06:31Z</time>
  <course>320.06</course>
  <speed>0.0</speed>
  <fix>3d</fix>
</trkpt>
<trkpt lat="40.0728419" lon="-105.2305749">
  <ele>1586.16</ele>
  <time>2026-08-28T19:06:31Z</time>
  <course>11.58</course>
  <speed>0.022360679774997897</speed>
  <fix>3d</fix>
</trkpt>
<trkpt lat="40.072842" lon="-105.230575">
  <ele>1586.09</ele>
  <time>2026-08-28T19:06:31Z</time>
  <course>320.06</course>
  <speed>0.0</speed>
  <fix>3d</fix>
</trkpt>
<trkpt lat="40.0728419" lon="-105.2305749">
  <ele>1586.16</ele>
  <time>2026-08-28T19:06:31Z</time>
  <course>11.58</course>
  <speed>0.022360679774997897</speed>
  <fix>3d</fix>
</trkpt>
<trkpt lat="40.072842" lon="-105.230575">
  <ele>1586.09</ele>
  <time>2026-08-28T19:06:31Z</time>
  <course>258.0</course>
  <speed>0.0</speed>
  <fix>3d</fix>
</trkpt>
<trkpt lat="40.0728419" lon="-105.2305749">
  <ele>1586.16</ele>
  <time>2026-08-28T19:06:31Z</time>
  <course>11.58</course>
  <speed>0.022360679774997897</speed>
  <fix>3d</fix>
</trkpt>
<trkpt lat="40.072842" lon="-105.230575">
  <ele>1586.09</ele>
  <time>2026-08-28T19:06:31Z</time>
  <course>192.51</course>
  <speed>0.0</speed>
  <fix>3d</fix>
</trkpt>
<trkpt lat="40.0728419" lon="-105.2305749">
  <ele>1586.15</ele>
  <time>2026-08-28T19:06:31Z</time>
  <course>11.58</course>
  <speed>0.022360679774997897</speed>
  <fix>3d</fix>
</trkpt>
<trkpt lat="40.072842" lon="-105.230575">
  <ele>1586.09</ele>
  <time>2026-08-28T19:06:31Z</time>
  <course>191.33</course>
  <speed>0.0</speed>
  <fix>3d</fix>
</trkpt>
<trkpt lat="40.0728419" lon="-105.2305749">
  <ele>1586.15</ele>
  <time>2026-08-28T19:06:31Z</time>
  <course>11.58</course>
  <speed>0.022360679774997897</speed>
  <fix>3d</fix>
</trkpt>
<trkpt lat="40.072842" lon="-105.230575">
  <ele>1586.09</ele>
  <time>2026-08-28T19:06:31Z</time>
  <course>217.24</course>
  <speed>0.0</speed>
  <fix>3d</fix>
</trkpt>
<trkpt lat="40.0728419" lon="-105.2305749">
  <ele>1586.15</ele>
  <time>2026-08-28T19:06:31Z</time>
  <course>11.58</course>
  <speed>0.022360679774997897</speed>
  <fix>3d</fix>
</trkpt>
<trkpt lat="40.072842" lon="-105.230575">
  <ele>1586.09</ele>
  <time>2026-08-28T19:06:31Z</time>
  <course>53.97</course>
  <speed>0.0</speed>
  <fix>3d</fix>
</trkpt>
<trkpt lat="40.0728419" lon="-105.2305749">
  <ele>1586.16</ele>
  <time>2026-08-28T19:06:31Z</time>
  <course>11.58</course>
  <speed>0.01414213562373095</speed>
  <fix>3d</fix>
</trkpt>
<trkpt lat="40.072842" lon="-105.230575">
  <ele>1586.09</ele>
  <time>2026-08-28T19:06:31Z</time>
  <course>70.39</course>
  <speed>0.0</speed>
  <fix>3d</fix>
</trkpt>
<trkpt lat="40.0728419" lon="-105.2305749">
  <ele>1586.17</ele>
  <time>2026-08-28T19:06:31Z</time>
  <course>11.58</course>
  <speed>0.01414213562373095</speed>
  <fix>3d</fix>
</trkpt>
<trkpt lat="40.072842" lon="-105.230575">
  <ele>1586.09</ele>
  <time>2026-08-28T19:06:31Z</time>
  <course>285.9</course>
  <speed>0.0</speed>
  <fix>3d</fix>
</trkpt>
<trkpt lat="40.0728419" lon="-105.2305749">
  <ele>1586.17</ele>
  <time>2026-08-28T19:06:31Z</time>
  <course>11.57</course>
  <speed>0.01414213562373095</speed>
  <fix>3d</fix>
</trkpt>
<trkpt lat="40.072842" lon="-105.230575">
  <ele>1586.09</ele>
  <time>2026-08-28T19:06:31Z</time>
  <course>275.39</course>
  <speed>0.0</speed>
  <fix>3d</fix>
</trkpt>
<trkpt lat="40.0728419" lon="-105.2305749">
  <ele>1586.17</ele>
  <time>2026-08-28T19:06:31Z</time>
  <course>11.57</course>
  <speed>0.01414213562373095</speed>
  <fix>3d</fix>
</trkpt>
<trkpt lat="40.072842" lon="-105.230575">
  <ele>1586.09</ele>
  <time>2026-08-28T19:06:31Z</time>
  <course>298.26</course>
  <speed>0.0</speed>
  <fix>3d</fix>
</trkpt>
<trkpt lat="40.0728419" lon="-105.2305749">
  <ele>1586.17</ele>
  <time>2026-08-28T19:06:31Z</time>
  <course>11.57</course>
  <speed>0.01414213562373095</speed>
  <fix>3d</fix>
</trkpt>
<trkpt lat="40.072842" lon="-105.230575">
  <ele>1586.09</ele>
  <time>2026-08-28T19:06:31Z</time>
  <course>295.56</course>
  <speed>0.0</speed>
  <fix>3d</fix>
</trkpt>
<trkpt lat="40.0728419" lon="-105.2305749">
  <ele>1586.16</ele>
  <time>2026-08-28T19:06:31Z</time>
  <course>11.57</course>
  <speed>0.01414213562373095</speed>
  <fix>3d</fix>
</trkpt>
<trkpt lat="40.072842" lon="-105.230575">
  <ele>1586.09</ele>
  <time>2026-08-28T19:06:31Z</time>
  <course>236.92</course>
  <speed>0.0</speed>
  <fix>3d</fix>
</trkpt>
<trkpt lat="40.0728419" lon="-105.2305749">
  <ele>1586.16</ele>
  <time>2026-08-28T19:06:31Z</time>
  <course>11.57</course>
  <speed>0.01414213562373095</speed>
  <fix>3d</fix>
</trkpt>
<trkpt lat="40.072842" lon="-105.230575">
  <ele>1586.09</ele>
  <time>2026-08-28T19:06:31Z</time>
  <course>150.99</course>
  <speed>0.0</speed>
  <fix>3d</fix>
</trkpt>
<trkpt lat="40.0728419" lon="-105.2305749">
  <ele>1586.16</ele>
  <time>2026-08-28T19:06:31Z</time>
  <course>11.57</course>
  <speed>0.01414213562373095</speed>
  <fix>3d</fix>
</trkpt>
<trkpt lat="40.072842" lon="-105.230575">
  <ele>1586.09</ele>
  <time>2026-08-28T19:06:31Z</time>
  <course>132.53</course>
  <speed>0.0</speed>
  <fix>3d</fix>
</trkpt>
<trkpt lat="40.0728419" lon="-105.2305749">
  <ele>1586.17</ele>
  <time>2026-08-28T19:06:31Z</time>
  <course>11.57</course>
  <speed>0.01</speed>
  <fix>3d</fix>
</trkpt>
<trkpt lat="40.072842" lon="-105.230575">
  <ele>1586.09</ele>
  <time>2026-08-28T19:06:31Z</time>
  <course>317.37</course>
  <speed>0.0</speed>
  <fix>3d</fix>
</trkpt>
<trkpt lat="40.0728419" lon="-105.2305749">
  <ele>1586.17</ele>
  <time>2026-08-28T19:06:31Z</time>
  <course>11.56</course>
  <speed>0.01</speed>
  <fix>3d</fix>
</trkpt>
<trkpt lat="40.072842" lon="-105.230575">
  <ele>1586.09</ele>
  <time>2026-08-28T19:06:31Z</time>
  <course>288.37</course>
  <speed>0.0</speed>
  <fix>3d</fix>
</trkpt>
<trkpt lat="40.0728419" lon="-105.2305749">
  <ele>1586.17</ele>
  <time>2026-08-28T19:06:31Z</time>
  <course>11.56</course>
  <speed>0.01</speed>
  <fix>3d</fix>
</trkpt>
<trkpt lat="40.072842" lon="-105.230575">
  <ele>1586.09</ele>
  <time>2026-08-28T19:06:31Z</time>
  <course>274.98</course>
  <speed>0.0</speed>
  <fix>3d</fix>
</trkpt>
<trkpt lat="40.0728419" lon="-105.2305749">
  <ele>1586.17</ele>
  <time>2026-08-28T19:06:31Z</time>
  <course>11.56</course>
  <speed>0.01</speed>
  <fix>3d</fix>
</trkpt>
<trkpt lat="40.072842" lon="-105.230575">
  <ele>1586.09</ele>
  <time>2026-08-28T19:06:31Z</time>
  <course>340.45</course>
  <speed>0.0</speed>
  <fix>3d</fix>
</trkpt>
<trkpt lat="40.0728419" lon="-105.2305749">
  <ele>1586.17</ele>
  <time>2026-08-28T19:06:31Z</time>
  <course>11.56</course>
  <speed>0.01</speed>
  <fix>3d</fix>
</trkpt>
<trkpt lat="40.072842" lon="-105.230575">
  <ele>1586.09</ele>
  <time>2026-08-28T19:06:31Z</time>
  <course>321.05</course>
  <speed>0.0</speed>
  <fix>3d</fix>
</trkpt>
<trkpt lat="40.0728419" lon="-105.2305749">
  <ele>1586.17</ele>
  <time>2026-08-28T19:06:31Z</time>
  <course>11.56</course>
  <speed>0.01</speed>
  <fix>3d</fix>
</trkpt>
<trkpt lat="40.072842" lon="-105.230575">
  <ele>1586.09</ele>
  <time>2026-08-28T19:06:31Z</time>
  <course>299.23</course>
  <speed>0.0</speed>
  <fix>3d</fix>
</trkpt>
<trkpt lat="40.0728419" lon="-105.2305749">
  <ele>1586.17</ele>
  <time>2026-08-28T19:06:31Z</time>
  <course>11.56</course>
  <speed>0.01</speed>
  <fix>3d</fix>
</trkpt>
<trkpt lat="40.072842" lon="-105.230575">
  <ele>1586.09</ele>
  <time>2026-08-28T19:06:31Z</time>
  <course>198.28</course>
  <speed>0.0</speed>
  <fix>3d</fix>
</trkpt>
<trkpt lat="40.0728419" lon="-105.2305749">
  <ele>1586.17</ele>
  <time>2026-08-28T19:06:31Z</time>
  <course>11.55</course>
  <speed>0.01</speed>
  <fix>3d</fix>
</trkpt>
<trkpt lat="40.072842" lon="-105.230575">
  <ele>1586.09</ele>
  <time>2026-08-28T19:06:31Z</time>
  <course>296.31</course>
  <speed>0.0</speed>
  <fix>3d</fix>
</trkpt>
<trkpt lat="40.0728419" lon="-105.2305749">
  <ele>1586.17</ele>
  <time>2026-08-28T19:06:31Z</time>
  <course>11.55</course>
  <speed>0.01</speed>
  <fix>3d</fix>
</trkpt>
<trkpt lat="40.072842" lon="-105.230575">
  <ele>1586.09</ele>
  <time>2026-08-28T19:06:31Z</time>
  <course>297.75</course>
  <speed>0.0</speed>
  <fix>3d</fix>
</trkpt>
<trkpt lat="40.0728419" lon="-105.2305749">
  <ele>1586.17</ele>
  <time>2026-08-28T19:06:31Z</time>
  <course>11.55</course>
  <speed>0.0</speed>
  <fix>3d</fix>
</trkpt>
<trkpt lat="40.072842" lon="-105.230575">
  <ele>1586.09</ele>
  <time>2026-08-28T19:06:31Z</time>
  <course>291.36</course>
  <speed>0.0</speed>
  <fix>3d</fix>
</trkpt>
<trkpt lat="40.0728419" lon="-105.2305749">
  <ele>1586.17</ele>
  <time>2026-08-28T19:06:31Z</time>
  <course>11.55</course>
  <speed>0.0</speed>
  <fix>3d</fix>
</trkpt>
<trkpt lat="40.072842" lon="-105.230575">
  <ele>1586.09</ele>
  <time>2026-08-28T19:06:31Z</time>
  <course>291.71</course>
  <speed>0.0</speed>
  <fix>3d</fix>
</trkpt>
<trkpt lat="40.0728419" lon="-105.2305749">
  <ele>1586.17</ele>
  <time>2026-08-28T19:06:31Z</time>
  <course>11.55</course>
  <speed>0.0</speed>
  <fix>3d</fix>
</trkpt>
<trkpt lat="40.072842" lon="-105.230575">
  <ele>1586.09</ele>
  <time>2026-08-28T19:06:31Z</time>
  <course>9.99</course>
  <speed>0.0</speed>
  <fix>3d</fix>
</trkpt>
<trkpt lat="40.0728419" lon="-105.2305749">
  <ele>1586.17</ele>
  <time>2026-08-28T19:06:31Z</time>
  <course>11.54</course>
  <speed>0.0</speed>
  <fix>3d</fix>
</trkpt>
<trkpt lat="40.072842" lon="-105.230575">
  <ele>1586.09</ele>
  <time>2026-08-28T19:06:31Z</time>
  <course>19.11</course>
  <speed>0.0</speed>
  <fix>3d</fix>
</trkpt>
<trkpt lat="40.0728419" lon="-105.2305749">
  <ele>1586.17</ele>
  <time>2026-08-28T19:06:31Z</time>
  <course>11.54</course>
  <speed>0.0</speed>
  <fix>3d</fix>
</trkpt>
<trkpt lat="40.072842" lon="-105.230575">
  <ele>1586.09</ele>
  <time>2026-08-28T19:06:31Z</time>
  <course>19.27</course>
  <speed>0.0</speed>
  <fix>3d</fix>
</trkpt>
<trkpt lat="40.0728419" lon="-105.2305749">
  <ele>1586.17</ele>
  <time>2026-08-28T19:06:31Z</time>
  <course>11.54</course>
  <speed>0.0</speed>
  <fix>3d</fix>
</trkpt>
<trkpt lat="40.072842" lon="-105.230575">
  <ele>1586.09</ele>
  <time>2026-08-28T19:06:31Z</time>
  <course>254.41</course>
  <speed>0.0</speed>
  <fix>3d</fix>
</trkpt>
<trkpt lat="40.0728419" lon="-105.2305749">
  <ele>1586.17</ele>
  <time>2026-08-28T19:06:31Z</time>
  <course>11.54</course>
  <speed>0.0</speed>
  <fix>3d</fix>
</trkpt>
<trkpt lat="40.072842" lon="-105.230575">
  <ele>1586.09</ele>
  <time>2026-08-28T19:06:31Z</time>
  <course>260.32</course>
  <speed>0.0</speed>
  <fix>3d</fix>
</trkpt>
<trkpt lat="40.0728419" lon="-105.2305749">
  <ele>1586.17</ele>
  <time>2026-08-28T19:06:31Z</time>
  <course>11.53</course>
  <speed>0.0</speed>
  <fix>3d</fix>
</trkpt>
<trkpt lat="40.072842" lon="-105.230575">
  <ele>1586.09</ele>
  <time>2026-08-28T19:06:31Z</time>
  <course>342.74</course>
  <speed>0.0</speed>
  <fix>3d</fix>
</trkpt>
<trkpt lat="40.0728419" lon="-105.2305749">
  <ele>1586.17</ele>
  <time>2026-08-28T19:06:31Z</time>
  <course>11.53</course>
  <speed>0.0</speed>
  <fix>3d</fix>
</trkpt>
<trkpt lat="40.072842" lon="-105.230575">
  <ele>1586.09</ele>
  <time>2026-08-28T19:06:31Z</time>
  <course>328.87</course>
  <speed>0.0</speed>
  <fix>3d</fix>
</trkpt>
<trkpt lat="40.0728419" lon="-105.2305749">
  <ele>1586.17</ele>
  <time>2026-08-28T19:06:31Z</time>
  <course>11.53</course>
  <speed>0.0</speed>
  <fix>3d</fix>
</trkpt>
<trkpt lat="40.072842" lon="-105.230575">
  <ele>1586.09</ele>
  <time>2026-08-28T19:06:31Z</time>
  <course>322.16</course>
  <speed>0.0</speed>
  <fix>3d</fix>
</trkpt>
<trkpt lat="40.0728419" lon="-105.2305749">
  <ele>1586.17</ele>
  <time>2026-08-28T19:06:31Z</time>
  <course>11.53</course>
  <speed>0.0</speed>
  <fix>3d</fix>
</trkpt>
<trkpt lat="40.072842" lon="-105.230575">
  <ele>1586.09</ele>
  <time>2026-08-28T19:06:31Z</time>
  <course>325.27</course>
  <speed>0.0</speed>
  <fix>3d</fix>
</trkpt>
<trkpt lat="40.0728419" lon="-105.2305749">
  <ele>1586.17</ele>
  <time>2026-08-28T19:06:31Z</time>
  <course>11.52</course>
  <speed>0.0</speed>
  <fix>3d</fix>
</trkpt>
<trkpt lat="40.072842" lon="-105.230575">
  <ele>1586.09</ele>
  <time>2026-08-28T19:06:31Z</time>
  <course>325.82</course>
  <speed>0.0</speed>
  <fix>3d</fix>
</trkpt>
<trkpt lat="40.0728419" lon="-105.2305749">
  <ele>1586.17</ele>
  <time>2026-08-28T19:06:31Z</time>
  <course>11.52</course>
  <speed>0.0</speed>
  <fix>3d</fix>
</trkpt>
<trkpt lat="40.072842" lon="-105.230575">
  <ele>1586.09</ele>
  <time>2026-08-28T19:06:31Z</time>
  <course>325.35</course>
  <speed>0.0</speed>
  <fix>3d</fix>
</trkpt>
<trkpt lat="40.0728419" lon="-105.2305749">
  <ele>1586.17</ele>
  <time>2026-08-28T19:06:31Z</time>
  <course>11.52</course>
  <speed>0.0</speed>
  <fix>3d</fix>
</trkpt>
<trkpt lat="40.072842" lon="-105.230575">
  <ele>1586.09</ele>
  <time>2026-08-28T19:06:31Z</time>
  <course>325.33</course>
  <speed>0.0</speed>
  <fix>3d</fix>
</trkpt>
<trkpt lat="40.0728419" lon="-105.2305749">
  <ele>1586.16</ele>
  <time>2026-08-28T19:06:31Z</time>
  <course>11.51</course>
  <speed>0.0</speed>
  <fix>3d</fix>
</trkpt>
<trkpt lat="40.072842" lon="-105.230575">
  <ele>1586.09</ele>
  <time>2026-08-28T19:06:31Z</time>
  <course>325.4</course>
  <speed>0.0</speed>
  <fix>3d</fix>
</trkpt>
<trkpt lat="40.0728419" lon="-105.2305749">
  <ele>1586.16</ele>
  <time>2026-08-28T19:06:31Z</time>
  <course>11.51</course>
  <speed>0.0</speed>
  <fix>3d</fix>
</trkpt>
<trkpt lat="40.072842" lon="-105.230575">
  <ele>1586.09</ele>
  <time>2026-08-28T19:06:31Z</time>
  <course>325.39</course>
  <speed>0.0</speed>
  <fix>3d</fix>
</trkpt>
<trkpt lat="40.0728419" lon="-105.2305749">
  <ele>1586.16</ele>
  <time>2026-08-28T19:06:31Z</time>
  <course>11.51</course>
  <speed>0.0</speed>
  <fix>3d</fix>
</trkpt>
<trkpt lat="40.072842" lon="-105.230575">
  <ele>1586.09</ele>
  <time>2026-08-28T19:06:31Z</time>
  <course>325.38</course>
  <speed>0.0</speed>
  <fix>3d</fix>
</trkpt>
<trkpt lat="40.0728419" lon="-105.2305749">
  <ele>1586.16</ele>
  <time>2026-08-28T19:06:32Z</time>
  <course>11.5</course>
  <speed>0.0</speed>
  <fix>3d</fix>
</trkpt>
<trkpt lat="40.072842" lon="-105.230575">
  <ele>1586.09</ele>
  <time>2026-08-28T19:06:32Z</time>
  <course>325.38</course>
  <speed>0.0</speed>
  <fix>3d</fix>
</trkpt>
<trkpt lat="40.0728419" lon="-105.2305749">
  <ele>1586.16</ele>
  <time>2026-08-28T19:06:32Z</time>
  <course>11.5</course>
  <speed>0.0</speed>
  <fix>3d</fix>
</trkpt>
<trkpt lat="40.072842" lon="-105.230575">
  <ele>1586.09</ele>
  <time>2026-08-28T19:06:32Z</time>
  <course>325.38</course>
  <speed>0.0</speed>
  <fix>3d</fix>
</trkpt>
<trkpt lat="40.0728419" lon="-105.2305749">
  <ele>1586.16</ele>
  <time>2026-08-28T19:06:32Z</time>
  <course>11.5</course>
  <speed>0.0</speed>
  <fix>3d</fix>
</trkpt>
<trkpt lat="40.072842" lon="-105.230575">
  <ele>1586.09</ele>
  <time>2026-08-28T19:06:32Z</time>
  <course>325.38</course>
  <speed>0.0</speed>
  <fix>3d</fix>
</trkpt>
<trkpt lat="40.0728419" lon="-105.2305749">
  <ele>1586.16</ele>
  <time>2026-08-28T19:06:32Z</time>
  <course>11.5</course>
  <speed>0.0</speed>
  <fix>3d</fix>
</trkpt>
<trkpt lat="40.072842" lon="-105.230575">
  <ele>1586.09</ele>
  <time>2026-08-28T19:06:32Z</time>
  <course>325.38</course>
  <speed>0.0</speed>
  <fix>3d</fix>
</trkpt>
<trkpt lat="40.0728419" lon="-105.2305749">
  <ele>1586.17</ele>
  <time>2026-08-28T19:06:32Z</time>
  <course>11.49</course>
  <speed>0.0</speed>
  <fix>3d</fix>
</trkpt>
<trkpt lat="40.072842" lon="-105.230575">
  <ele>1586.09</ele>
  <time>2026-08-28T19:06:32Z</time>
  <course>325.38</course>
  <speed>0.0</speed>
  <fix>3d</fix>
</trkpt>
<trkpt lat="40.0728419" lon="-105.2305749">
  <ele>1586.17</ele>
  <time>2026-08-28T19:06:32Z</time>
  <course>11.49</course>
  <speed>0.0</speed>
  <fix>3d</fix>
</trkpt>
<trkpt lat="40.072842" lon="-105.230575">
  <ele>1586.09</ele>
  <time>2026-08-28T19:06:32Z</time>
  <course>325.38</course>
  <speed>0.0</speed>
  <fix>3d</fix>
</trkpt>
<trkpt lat="40.0728419" lon="-105.2305749">
  <ele>1586.17</ele>
  <time>2026-08-28T19:06:32Z</time>
  <course>11.49</course>
  <speed>0.0</speed>
  <fix>3d</fix>
</trkpt>
<trkpt lat="40.072842" lon="-105.230575">
  <ele>1586.09</ele>
  <time>2026-08-28T19:06:32Z</time>
  <course>325.38</course>
  <speed>0.0</speed>
  <fix>3d</fix>
</trkpt>
<trkpt lat="40.0728419" lon="-105.2305749">
  <ele>1586.17</ele>
  <time>2026-08-28T19:06:32Z</time>
  <course>11.48</course>
  <speed>0.0</speed>
  <fix>3d</fix>
</trkpt>
<trkpt lat="40.072842" lon="-105.230575">
  <ele>1586.09</ele>
  <time>2026-08-28T19:06:32Z</time>
  <course>325.38</course>
  <speed>0.0</speed>
  <fix>3d</fix>
</trkpt>
<trkpt lat="40.0728419" lon="-105.2305749">
  <ele>1586.17</ele>
  <time>2026-08-28T19:06:32Z</time>
  <course>11.48</course>
  <speed>0.0</speed>
  <fix>3d</fix>
</trkpt>
<trkpt lat="40.072842" lon="-105.230575">
  <ele>1586.09</ele>
  <time>2026-08-28T19:06:32Z</time>
  <course>325.38</course>
  <speed>0.0</speed>
  <fix>3d</fix>
</trkpt>
<trkpt lat="40.0728419" lon="-105.2305749">
  <ele>1586.17</ele>
  <time>2026-08-28T19:06:32Z</time>
  <course>11.48</course>
  <speed>0.0</speed>
  <fix>3d</fix>
</trkpt>
<trkpt lat="40.072842" lon="-105.230575">
  <ele>1586.09</ele>
  <time>2026-08-28T19:06:32Z</time>
  <course>325.38</course>
  <speed>0.0</speed>
  <fix>3d</fix>
</trkpt>
<trkpt lat="40.0728419" lon="-105.2305749">
  <ele>1586.17</ele>
  <time>2026-08-28T19:06:32Z</time>
  <course>11.47</course>
  <speed>0.0</speed>
  <fix>3d</fix>
</trkpt>
<trkpt lat="40.072842" lon="-105.230575">
  <ele>1586.09</ele>
  <time>2026-08-28T19:06:32Z</time>
  <course>325.38</course>
  <speed>0.0</speed>
  <fix>3d</fix>
</trkpt>
<trkpt lat="40.0728419" lon="-105.2305749">
  <ele>1586.17</ele>
  <time>2026-08-28T19:06:32Z</time>
  <course>11.47</course>
  <speed>0.0</speed>
  <fix>3d</fix>
</trkpt>
<trkpt lat="40.072842" lon="-105.230575">
  <ele>1586.09</ele>
  <time>2026-08-28T19:06:32Z</time>
  <course>325.38</course>
  <speed>0.0</speed>
  <fix>3d</fix>
</trkpt>
<trkpt lat="40.0728419" lon="-105.2305749">
  <ele>1586.17</ele>
  <time>2026-08-28T19:06:32Z</time>
  <course>11.47</course>
  <speed>0.0</speed>
  <fix>3d</fix>
</trkpt>
<trkpt lat="40.072842" lon="-105.230575">
  <ele>1586.09</ele>
  <time>2026-08-28T19:06:32Z</time>
  <course>325.38</course>
  <speed>0.0</speed>
  <fix>3d</fix>
</trkpt>
<trkpt lat="40.0728419" lon="-105.2305749">
  <ele>1586.17</ele>
  <time>2026-08-28T19:06:32Z</time>
  <course>11.46</course>
  <speed>0.0</speed>
  <fix>3d</fix>
</trkpt>
<trkpt lat="40.072842" lon="-105.230575">
  <ele>1586.09</ele>
  <time>2026-08-28T19:06:32Z</time>
  <course>325.38</course>
  <speed>0.0</speed>
  <fix>3d</fix>
</trkpt>
<trkpt lat="40.0728419" lon="-105.2305749">
  <ele>1586.17</ele>
  <time>2026-08-28T19:06:32Z</time>
  <course>11.46</course>
  <speed>0.0</speed>
  <fix>3d</fix>
</trkpt>
<trkpt lat="40.072842" lon="-105.230575">
  <ele>1586.09</ele>
  <time>2026-08-28T19:06:32Z</time>
  <course>325.38</course>
  <speed>0.0</speed>
  <fix>3d</fix>
</trkpt>
<trkpt lat="40.0728419" lon="-105.2305749">
  <ele>1586.17</ele>
  <time>2026-08-28T19:06:32Z</time>
  <course>11.45</course>
  <speed>0.0</speed>
  <fix>3d</fix>
</trkpt>
<trkpt lat="40.072842" lon="-105.230575">
  <ele>1586.09</ele>
  <time>2026-08-28T19:06:32Z</time>
  <course>325.38</course>
  <speed>0.0</speed>
  <fix>3d</fix>
</trkpt>
<trkpt lat="40.0728419" lon="-105.2305749">
  <ele>1586.17</ele>
  <time>2026-08-28T19:06:32Z</time>
  <course>11.45</course>
  <speed>0.0</speed>
  <fix>3d</fix>
</trkpt>
<trkpt lat="40.072842" lon="-105.230575">
  <ele>1586.09</ele>
  <time>2026-08-28T19:06:32Z</time>
  <course>325.38</course>
  <speed>0.0</speed>
  <fix>3d</fix>
</trkpt>
<trkpt lat="40.0728419" lon="-105.2305749">
  <ele>1586.18</ele>
  <time>2026-08-28T19:06:32Z</time>
  <course>11.45</course>
  <speed>0.0</speed>
  <fix>3d</fix>
</trkpt>
<trkpt lat="40.072842" lon="-105.230575">
  <ele>1586.09</ele>
  <time>2026-08-28T19:06:32Z</time>
  <course>325.38</course>
  <speed>0.0</speed>
  <fix>3d</fix>
</trkpt>
<trkpt lat="40.0728419" lon="-105.2305749">
  <ele>1586.18</ele>
  <time>2026-08-28T19:06:32Z</time>
  <course>11.44</course>
  <speed>0.0</speed>
  <fix>3d</fix>
</trkpt>
<trkpt lat="40.072842" lon="-105.230575">
  <ele>1586.09</ele>
  <time>2026-08-28T19:06:32Z</time>
  <course>325.38</course>
  <speed>0.0</speed>
  <fix>3d</fix>
</trkpt>
<trkpt lat="40.0728419" lon="-105.2305749">
  <ele>1586.18</ele>
  <time>2026-08-28T19:06:32Z</time>
  <course>11.44</course>
  <speed>0.0</speed>
  <fix>3d</fix>
</trkpt>
<trkpt lat="40.072842" lon="-105.230575">
  <ele>1586.09</ele>
  <time>2026-08-28T19:06:32Z</time>
  <course>325.38</course>
  <speed>0.0</speed>
  <fix>3d</fix>
</trkpt>
<trkpt lat="40.0728419" lon="-105.2305749">
  <ele>1586.18</ele>
  <time>2026-08-28T19:06:32Z</time>
  <course>11.44</course>
  <speed>0.0</speed>
  <fix>3d</fix>
</trkpt>
<trkpt lat="40.072842" lon="-105.230575">
  <ele>1586.09</ele>
  <time>2026-08-28T19:06:32Z</time>
  <course>325.38</course>
  <speed>0.0</speed>
  <fix>3d</fix>
</trkpt>
<trkpt lat="40.0728419" lon="-105.2305749">
  <ele>1586.18</ele>
  <time>2026-08-28T19:06:32Z</time>
  <course>11.43</course>
  <speed>0.0</speed>
  <fix>3d</fix>
</trkpt>
<trkpt lat="40.072842" lon="-105.230575">
  <ele>1586.09</ele>
  <time>2026-08-28T19:06:32Z</time>
  <course>325.38</course>
  <speed>0.0</speed>
  <fix>3d</fix>
</trkpt>
<trkpt lat="40.0728419" lon="-105.2305749">
  <ele>1586.18</ele>
  <time>2026-08-28T19:06:32Z</time>
  <course>11.43</course>
  <speed>0.0</speed>
  <fix>3d</fix>
</trkpt>
<trkpt lat="40.072842" lon="-105.230575">
  <ele>1586.09</ele>
  <time>2026-08-28T19:06:32Z</time>
  <course>325.38</course>
  <speed>0.0</speed>
  <fix>3d</fix>
</trkpt>
<trkpt lat="40.0728419" lon="-105.2305749">
  <ele>1586.18</ele>
  <time>2026-08-28T19:06:32Z</time>
  <course>11.42</course>
  <speed>0.0</speed>
  <fix>3d</fix>
</trkpt>
<trkpt lat="40.072842" lon="-105.230575">
  <ele>1586.09</ele>
  <time>2026-08-28T19:06:32Z</time>
  <course>325.38</course>
  <speed>0.0</speed>
  <fix>3d</fix>
</trkpt>
<trkpt lat="40.0728419" lon="-105.2305749">
  <ele>1586.18</ele>
  <time>2026-08-28T19:06:32Z</time>
  <course>11.42</course>
  <speed>0.0</speed>
  <fix>3d</fix>
</trkpt>
<trkpt lat="40.072842" lon="-105.230575">
  <ele>1586.09</ele>
  <time>2026-08-28T19:06:32Z</time>
  <course>325.38</course>
  <speed>0.0</speed>
  <fix>3d</fix>
</trkpt>
<trkpt lat="40.0728419" lon="-105.2305749">
  <ele>1586.18</ele>
  <time>2026-08-28T19:06:32Z</time>
  <course>11.42</course>
  <speed>0.0</speed>
  <fix>3d</fix>
</trkpt>
<trkpt lat="40.072842" lon="-105.230575">
  <ele>1586.09</ele>
  <time>2026-08-28T19:06:32Z</time>
  <course>325.38</course>
  <speed>0.0</speed>
  <fix>3d</fix>
</trkpt>
<trkpt lat="40.0728419" lon="-105.2305749">
  <ele>1586.18</ele>
  <time>2026-08-28T19:06:32Z</time>
  <course>11.41</course>
  <speed>0.0</speed>
  <fix>3d</fix>
</trkpt>
<trkpt lat="40.072842" lon="-105.230575">
  <ele>1586.09</ele>
  <time>2026-08-28T19:06:32Z</time>
  <course>325.38</course>
  <speed>0.0</speed>
  <fix>3d</fix>
</trkpt>
<trkpt lat="40.0728419" lon="-105.2305749">
  <ele>1586.19</ele>
  <time>2026-08-28T19:06:32Z</time>
  <course>11.41</course>
  <speed>0.0</speed>
  <fix>3d</fix>
</trkpt>
<trkpt lat="40.072842" lon="-105.230575">
  <ele>1586.09</ele>
  <time>2026-08-28T19:06:32Z</time>
  <course>319.32</course>
  <speed>0.0</speed>
  <fix>3d</fix>
</trkpt>
<trkpt lat="40.0728419" lon="-105.2305749">
  <ele>1586.18</ele>
  <time>2026-08-28T19:06:32Z</time>
  <course>11.4</course>
  <speed>0.0</speed>
  <fix>3d</fix>
</trkpt>
<trkpt lat="40.072842" lon="-105.230575">
  <ele>1586.09</ele>
  <time>2026-08-28T19:06:32Z</time>
  <course>209.61</course>
  <speed>0.0</speed>
  <fix>3d</fix>
</trkpt>
<trkpt lat="40.0728419" lon="-105.2305749">
  <ele>1586.18</ele>
  <time>2026-08-28T19:06:32Z</time>
  <course>11.4</course>
  <speed>0.0</speed>
  <fix>3d</fix>
</trkpt>
<trkpt lat="40.072842" lon="-105.230575">
  <ele>1586.09</ele>
  <time>2026-08-28T19:06:32Z</time>
  <course>201.31</course>
  <speed>0.0</speed>
  <fix>3d</fix>
</trkpt>
<trkpt lat="40.0728419" lon="-105.2305749">
  <ele>1586.18</ele>
  <time>2026-08-28T19:06:32Z</time>
  <course>11.39</course>
  <speed>0.0</speed>
  <fix>3d</fix>
</trkpt>
<trkpt lat="40.072842" lon="-105.230575">
  <ele>1586.09</ele>
  <time>2026-08-28T19:06:32Z</time>
  <course>0.52</course>
  <speed>0.0</speed>
  <fix>3d</fix>
</trkpt>
<trkpt lat="40.0728419" lon="-105.2305749">
  <ele>1586.18</ele>
  <time>2026-08-28T19:06:32Z</time>
  <course>11.39</course>
  <speed>0.0</speed>
  <fix>3d</fix>
</trkpt>
<trkpt lat="40.072842" lon="-105.230575">
  <ele>1586.09</ele>
  <time>2026-08-28T19:06:32Z</time>
  <course>330.34</course>
  <speed>0.0</speed>
  <fix>3d</fix>
</trkpt>
<trkpt lat="40.0728419" lon="-105.2305749">
  <ele>1586.18</ele>
  <time>2026-08-28T19:06:32Z</time>
  <course>11.38</course>
  <speed>0.0</speed>
  <fix>3d</fix>
</trkpt>
<trkpt lat="40.072842" lon="-105.230575">
  <ele>1586.09</ele>
  <time>2026-08-28T19:06:32Z</time>
  <course>308.33</course>
  <speed>0.0</speed>
  <fix>3d</fix>
</trkpt>
<trkpt lat="40.0728419" lon="-105.2305749">
  <ele>1586.18</ele>
  <time>2026-08-28T19:06:32Z</time>
  <course>11.38</course>
  <speed>0.0</speed>
  <fix>3d</fix>
</trkpt>
<trkpt lat="40.072842" lon="-105.230575">
  <ele>1586.09</ele>
  <time>2026-08-28T19:06:32Z</time>
  <course>317.32</course>
  <speed>0.0</speed>
  <fix>3d</fix>
</trkpt>
<trkpt lat="40.0728419" lon="-105.2305749">
  <ele>1586.18</ele>
  <time>2026-08-28T19:06:32Z</time>
  <course>11.38</course>
  <speed>0.0</speed>
  <fix>3d</fix>
</trkpt>
<trkpt lat="40.072842" lon="-105.230575">
  <ele>1586.09</ele>
  <time>2026-08-28T19:06:32Z</time>
  <course>319.83</course>
  <speed>0.0</speed>
  <fix>3d</fix>
</trkpt>
<trkpt lat="40.0728419" lon="-105.2305749">
  <ele>1586.18</ele>
  <time>2026-08-28T19:06:32Z</time>
  <course>11.37</course>
  <speed>0.0</speed>
  <fix>3d</fix>
</trkpt>
<trkpt lat="40.072842" lon="-105.230575">
  <ele>1586.09</ele>
  <time>2026-08-28T19:06:32Z</time>
  <course>318.4</course>
  <speed>0.0</speed>
  <fix>3d</fix>
</trkpt>
<trkpt lat="40.0728419" lon="-105.2305749">
  <ele>1586.18</ele>
  <time>2026-08-28T19:06:32Z</time>
  <course>11.37</course>
  <speed>0.0</speed>
  <fix>3d</fix>
</trkpt>
<trkpt lat="40.072842" lon="-105.230575">
  <ele>1586.09</ele>
  <time>2026-08-28T19:06:32Z</time>
  <course>318.24</course>
  <speed>0.0</speed>
  <fix>3d</fix>
</trkpt>
<trkpt lat="40.0728419" lon="-105.2305749">
  <ele>1586.18</ele>
  <time>2026-08-28T19:06:32Z</time>
  <course>11.36</course>
  <speed>0.0</speed>
  <fix>3d</fix>
</trkpt>
<trkpt lat="40.072842" lon="-105.230575">
  <ele>1586.09</ele>
  <time>2026-08-28T19:06:32Z</time>
  <course>318.46</course>
  <speed>0.0</speed>
  <fix>3d</fix>
</trkpt>
<trkpt lat="40.0728419" lon="-105.2305749">
  <ele>1586.18</ele>
  <time>2026-08-28T19:06:32Z</time>
  <course>11.36</course>
  <speed>0.0</speed>
  <fix>3d</fix>
</trkpt>
<trkpt lat="40.072842" lon="-105.230575">
  <ele>1586.09</ele>
  <time>2026-08-28T19:06:32Z</time>
  <course>318.45</course>
  <speed>0.0</speed>
  <fix>3d</fix>
</trkpt>
<trkpt lat="40.0728419" lon="-105.2305749">
  <ele>1586.18</ele>
  <time>2026-08-28T19:06:32Z</time>
  <course>11.35</course>
  <speed>0.0</speed>
  <fix>3d</fix>
</trkpt>
<trkpt lat="40.072842" lon="-105.230575">
  <ele>1586.09</ele>
  <time>2026-08-28T19:06:32Z</time>
  <course>318.42</course>
  <speed>0.0</speed>
  <fix>3d</fix>
</trkpt>
<trkpt lat="40.0728419" lon="-105.2305749">
  <ele>1586.18</ele>
  <time>2026-08-28T19:06:32Z</time>
  <course>11.35</course>
  <speed>0.0</speed>
  <fix>3d</fix>
</trkpt>
<trkpt lat="40.072842" lon="-105.230575">
  <ele>1586.09</ele>
  <time>2026-08-28T19:06:32Z</time>
  <course>318.43</course>
  <speed>0.0</speed>
  <fix>3d</fix>
</trkpt>
<trkpt lat="40.0728419" lon="-105.2305749">
  <ele>1586.18</ele>
  <time>2026-08-28T19:06:32Z</time>
  <course>11.34</course>
  <speed>0.0</speed>
  <fix>3d</fix>
</trkpt>
<trkpt lat="40.072842" lon="-105.230575">
  <ele>1586.09</ele>
  <time>2026-08-28T19:06:32Z</time>
  <course>318.43</course>
  <speed>0.0</speed>
  <fix>3d</fix>
</trkpt>
<trkpt lat="40.0728419" lon="-105.2305749">
  <ele>1586.18</ele>
  <time>2026-08-28T19:06:32Z</time>
  <course>11.34</course>
  <speed>0.0</speed>
  <fix>3d</fix>
</trkpt>
<trkpt lat="40.072842" lon="-105.230575">
  <ele>1586.09</ele>
  <time>2026-08-28T19:06:32Z</time>
  <course>318.43</course>
  <speed>0.0</speed>
  <fix>3d</fix>
</trkpt>
<trkpt lat="40.0728419" lon="-105.2305749">
  <ele>1586.19</ele>
  <time>2026-08-28T19:06:32Z</time>
  <course>11.33</course>
  <speed>0.0</speed>
  <fix>3d</fix>
</trkpt>
<trkpt lat="40.072842" lon="-105.230575">
  <ele>1586.09</ele>
  <time>2026-08-28T19:06:32Z</time>
  <course>318.43</course>
  <speed>0.0</speed>
  <fix>3d</fix>
</trkpt>
<trkpt lat="40.072842" lon="-105.230575">
  <ele>1586.19</ele>
  <time>2026-08-28T19:06:32Z</time>
  <course>11.33</course>
  <speed>0.0</speed>
  <fix>3d</fix>
</trkpt>
<trkpt lat="40.072842" lon="-105.230575">
  <ele>1586.09</ele>
  <time>2026-08-28T19:06:32Z</time>
  <course>318.43</course>
  <speed>0.0</speed>
  <fix>3d</fix>
</trkpt>
<trkpt lat="40.072842" lon="-105.230575">
  <ele>1586.19</ele>
  <time>2026-08-28T19:06:32Z</time>
  <course>11.32</course>
  <speed>0.0</speed>
  <fix>3d</fix>
</trkpt>
<trkpt lat="40.072842" lon="-105.230575">
  <ele>1586.09</ele>
  <time>2026-08-28T19:06:32Z</time>
  <course>318.43</course>
  <speed>0.0</speed>
  <fix>3d</fix>
</trkpt>
<trkpt lat="40.072842" lon="-105.230575">
  <ele>1586.19</ele>
  <time>2026-08-28T19:06:32Z</time>
  <course>11.32</course>
  <speed>0.0</speed>
  <fix>3d</fix>
</trkpt>
<trkpt lat="40.072842" lon="-105.230575">
  <ele>1586.09</ele>
  <time>2026-08-28T19:06:32Z</time>
  <course>318.43</course>
  <speed>0.0</speed>
  <fix>3d</fix>
</trkpt>
<trkpt lat="40.072842" lon="-105.230575">
  <ele>1586.19</ele>
  <time>2026-08-28T19:06:32Z</time>
  <course>11.31</course>
  <speed>0.0</speed>
  <fix>3d</fix>
</trkpt>
<trkpt lat="40.072842" lon="-105.230575">
  <ele>1586.09</ele>
  <time>2026-08-28T19:06:32Z</time>
  <course>318.43</course>
  <speed>0.0</speed>
  <fix>3d</fix>
</trkpt>
<trkpt lat="40.072842" lon="-105.230575">
  <ele>1586.18</ele>
  <time>2026-08-28T19:06:32Z</time>
  <course>11.31</course>
  <speed>0.0</speed>
  <fix>3d</fix>
</trkpt>
<trkpt lat="40.072842" lon="-105.230575">
  <ele>1586.09</ele>
  <time>2026-08-28T19:06:32Z</time>
  <course>318.43</course>
  <speed>0.0</speed>
  <fix>3d</fix>
</trkpt>
<trkpt lat="40.072842" lon="-105.230575">
  <ele>1586.18</ele>
  <time>2026-08-28T19:06:32Z</time>
  <course>11.3</course>
  <speed>0.0</speed>
  <fix>3d</fix>
</trkpt>
<trkpt lat="40.072842" lon="-105.230575">
  <ele>1586.09</ele>
  <time>2026-08-28T19:06:32Z</time>
  <course>318.43</course>
  <speed>0.0</speed>
  <fix>3d</fix>
</trkpt>
<trkpt lat="40.072842" lon="-105.230575">
  <ele>1586.18</ele>
  <time>2026-08-28T19:06:32Z</time>
  <course>11.3</course>
  <speed>0.0</speed>
  <fix>3d</fix>
</trkpt>
<trkpt lat="40.072842" lon="-105.230575">
  <ele>1586.09</ele>
  <time>2026-08-28T19:06:32Z</time>
  <course>318.43</course>
  <speed>0.0</speed>
  <fix>3d</fix>
</trkpt>
<trkpt lat="40.072842" lon="-105.230575">
  <ele>1586.18</ele>
  <time>2026-08-28T19:06:32Z</time>
  <course>11.29</course>
  <speed>0.0</speed>
  <fix>3d</fix>
</trkpt>
<trkpt lat="40.072842" lon="-105.230575">
  <ele>1586.09</ele>
  <time>2026-08-28T19:06:32Z</time>
  <course>318.43</course>
  <speed>0.0</speed>
  <fix>3d</fix>
</trkpt>
<trkpt lat="40.072842" lon="-105.230575">
  <ele>1586.18</ele>
  <time>2026-08-28T19:06:32Z</time>
  <course>11.29</course>
  <speed>0.0</speed>
  <fix>3d</fix>
</trkpt>
<trkpt lat="40.072842" lon="-105.230575">
  <ele>1586.09</ele>
  <time>2026-08-28T19:06:32Z</time>
  <course>318.43</course>
  <speed>0.0</speed>
  <fix>3d</fix>
</trkpt>
<trkpt lat="40.072842" lon="-105.230575">
  <ele>1586.18</ele>
  <time>2026-08-28T19:06:32Z</time>
  <course>11.28</course>
  <speed>0.0</speed>
  <fix>3d</fix>
</trkpt>
<trkpt lat="40.072842" lon="-105.230575">
  <ele>1586.09</ele>
  <time>2026-08-28T19:06:32Z</time>
  <course>318.43</course>
  <speed>0.0</speed>
  <fix>3d</fix>
</trkpt>
<trkpt lat="40.072842" lon="-105.230575">
  <ele>1586.18</ele>
  <time>2026-08-28T19:06:32Z</time>
  <course>11.28</course>
  <speed>0.0</speed>
  <fix>3d</fix>
</trkpt>
<trkpt lat="40.072842" lon="-105.230575">
  <ele>1586.09</ele>
  <time>2026-08-28T19:06:32Z</time>
  <course>318.43</course>
  <speed>0.0</speed>
  <fix>3d</fix>
</trkpt>
<trkpt lat="40.072842" lon="-105.230575">
  <ele>1586.18</ele>
  <time>2026-08-28T19:06:32Z</time>
  <course>11.27</course>
  <speed>0.0</speed>
  <fix>3d</fix>
</trkpt>
<trkpt lat="40.072842" lon="-105.230575">
  <ele>1586.09</ele>
  <time>2026-08-28T19:06:32Z</time>
  <course>318.43</course>
  <speed>0.0</speed>
  <fix>3d</fix>
</trkpt>
<trkpt lat="40.072842" lon="-105.230575">
  <ele>1586.17</ele>
  <time>2026-08-28T19:06:32Z</time>
  <course>11.26</course>
  <speed>0.0</speed>
  <fix>3d</fix>
</trkpt>
<trkpt lat="40.072842" lon="-105.230575">
  <ele>1586.09</ele>
  <time>2026-08-28T19:06:32Z</time>
  <course>318.43</course>
  <speed>0.0</speed>
  <fix>3d</fix>
</trkpt>
<trkpt lat="40.072842" lon="-105.230575">
  <ele>1586.17</ele>
  <time>2026-08-28T19:06:32Z</time>
  <course>11.26</course>
  <speed>0.0</speed>
  <fix>3d</fix>
</trkpt>
<trkpt lat="40.072842" lon="-105.230575">
  <ele>1586.09</ele>
  <time>2026-08-28T19:06:32Z</time>
  <course>318.43</course>
  <speed>0.0</speed>
  <fix>3d</fix>
</trkpt>
<trkpt lat="40.072842" lon="-105.230575">
  <ele>1586.17</ele>
  <time>2026-08-28T19:06:32Z</time>
  <course>11.25</course>
  <speed>0.0</speed>
  <fix>3d</fix>
</trkpt>
<trkpt lat="40.072842" lon="-105.230575">
  <ele>1586.09</ele>
  <time>2026-08-28T19:06:32Z</time>
  <course>318.43</course>
  <speed>0.0</speed>
  <fix>3d</fix>
</trkpt>
<trkpt lat="40.072842" lon="-105.230575">
  <ele>1586.18</ele>
  <time>2026-08-28T19:06:32Z</time>
  <course>11.25</course>
  <speed>0.0</speed>
  <fix>3d</fix>
</trkpt>
<trkpt lat="40.072842" lon="-105.230575">
  <ele>1586.09</ele>
  <time>2026-08-28T19:06:32Z</time>
  <course>318.43</course>
  <speed>0.0</speed>
  <fix>3d</fix>
</trkpt>
<trkpt lat="40.072842" lon="-105.230575">
  <ele>1586.18</ele>
  <time>2026-08-28T19:06:32Z</time>
  <course>11.24</course>
  <speed>0.0</speed>
  <fix>3d</fix>
</trkpt>
<trkpt lat="40.072842" lon="-105.230575">
  <ele>1586.09</ele>
  <time>2026-08-28T19:06:32Z</time>
  <course>318.43</course>
  <speed>0.0</speed>
  <fix>3d</fix>
</trkpt>
<trkpt lat="40.072842" lon="-105.230575">
  <ele>1586.18</ele>
  <time>2026-08-28T19:06:32Z</time>
  <course>11.24</course>
  <speed>0.0</speed>
  <fix>3d</fix>
</trkpt>
<trkpt lat="40.072842" lon="-105.230575">
  <ele>1586.09</ele>
  <time>2026-08-28T19:06:32Z</time>
  <course>318.43</course>
  <speed>0.0</speed>
  <fix>3d</fix>
</trkpt>
<trkpt lat="40.072842" lon="-105.230575">
  <ele>1586.18</ele>
  <time>2026-08-28T19:06:32Z</time>
  <course>11.23</course>
  <speed>0.0</speed>
  <fix>3d</fix>
</trkpt>
<trkpt lat="40.072842" lon="-105.230575">
  <ele>1586.09</ele>
  <time>2026-08-28T19:06:32Z</time>
  <course>318.43</course>
  <speed>0.0</speed>
  <fix>3d</fix>
</trkpt>
<trkpt lat="40.072842" lon="-105.230575">
  <ele>1586.18</ele>
  <time>2026-08-28T19:06:32Z</time>
  <course>11.23</course>
  <speed>0.0</speed>
  <fix>3d</fix>
</trkpt>
<trkpt lat="40.072842" lon="-105.230575">
  <ele>1586.09</ele>
  <time>2026-08-28T19:06:32Z</time>
  <course>318.43</course>
  <speed>0.0</speed>
  <fix>3d</fix>
</trkpt>
<trkpt lat="40.072842" lon="-105.230575">
  <ele>1586.17</ele>
  <time>2026-08-28T19:06:32Z</time>
  <course>11.22</course>
  <speed>0.0</speed>
  <fix>3d</fix>
</trkpt>
<trkpt lat="40.072842" lon="-105.230575">
  <ele>1586.09</ele>
  <time>2026-08-28T19:06:32Z</time>
  <course>318.43</course>
  <speed>0.0</speed>
  <fix>3d</fix>
</trkpt>
<trkpt lat="40.072842" lon="-105.230575">
  <ele>1586.17</ele>
  <time>2026-08-28T19:06:32Z</time>
  <course>11.21</course>
  <speed>0.0</speed>
  <fix>3d</fix>
</trkpt>
<trkpt lat="40.072842" lon="-105.230575">
  <ele>1586.09</ele>
  <time>2026-08-28T19:06:32Z</time>
  <course>318.43</course>
  <speed>0.0</speed>
  <fix>3d</fix>
</trkpt>
<trkpt lat="40.072842" lon="-105.230575">
  <ele>1586.17</ele>
  <time>2026-08-28T19:06:32Z</time>
  <course>11.21</course>
  <speed>0.0</speed>
  <fix>3d</fix>
</trkpt>
<trkpt lat="40.072842" lon="-105.230575">
  <ele>1586.09</ele>
  <time>2026-08-28T19:06:32Z</time>
  <course>318.43</course>
  <speed>0.0</speed>
  <fix>3d</fix>
</trkpt>
<trkpt lat="40.072842" lon="-105.230575">
  <ele>1586.17</ele>
  <time>2026-08-28T19:06:32Z</time>
  <course>11.2</course>
  <speed>0.0</speed>
  <fix>3d</fix>
</trkpt>
<trkpt lat="40.072842" lon="-105.230575">
  <ele>1586.09</ele>
  <time>2026-08-28T19:06:32Z</time>
  <course>318.43</course>
  <speed>0.0</speed>
  <fix>3d</fix>
</trkpt>
<trkpt lat="40.072842" lon="-105.230575">
  <ele>1586.17</ele>
  <time>2026-08-28T19:06:32Z</time>
  <course>11.2</course>
  <speed>0.0</speed>
  <fix>3d</fix>
</trkpt>
<trkpt lat="40.072842" lon="-105.230575">
  <ele>1586.09</ele>
  <time>2026-08-28T19:06:32Z</time>
  <course>318.43</course>
  <speed>0.0</speed>
  <fix>3d</fix>
</trkpt>
<trkpt lat="40.072842" lon="-105.230575">
  <ele>1586.17</ele>
  <time>2026-08-28T19:06:32Z</time>
  <course>11.19</course>
  <speed>0.0</speed>
  <fix>3d</fix>
</trkpt>
<trkpt lat="40.072842" lon="-105.230575">
  <ele>1586.09</ele>
  <time>2026-08-28T19:06:32Z</time>
  <course>318.43</course>
  <speed>0.0</speed>
  <fix>3d</fix>
</trkpt>
<trkpt lat="40.072842" lon="-105.230575">
  <ele>1586.17</ele>
  <time>2026-08-28T19:06:32Z</time>
  <course>11.19</course>
  <speed>0.0</speed>
  <fix>3d</fix>
</trkpt>
<trkpt lat="40.072842" lon="-105.230575">
  <ele>1586.09</ele>
  <time>2026-08-28T19:06:32Z</time>
  <course>318.43</course>
  <speed>0.0</speed>
  <fix>3d</fix>
</trkpt>
<trkpt lat="40.072842" lon="-105.230575">
  <ele>1586.16</ele>
  <time>2026-08-28T19:06:32Z</time>
  <course>11.18</course>
  <speed>0.0</speed>
  <fix>3d</fix>
</trkpt>
<trkpt lat="40.072842" lon="-105.230575">
  <ele>1586.09</ele>
  <time>2026-08-28T19:06:32Z</time>
  <course>318.43</course>
  <speed>0.0</speed>
  <fix>3d</fix>
</trkpt>
<trkpt lat="40.072842" lon="-105.230575">
  <ele>1586.16</ele>
  <time>2026-08-28T19:06:32Z</time>
  <course>11.17</course>
  <speed>0.0</speed>
  <fix>3d</fix>
</trkpt>
<trkpt lat="40.072842" lon="-105.230575">
  <ele>1586.09</ele>
  <time>2026-08-28T19:06:32Z</time>
  <course>318.43</course>
  <speed>0.0</speed>
  <fix>3d</fix>
</trkpt>
<trkpt lat="40.072842" lon="-105.230575">
  <ele>1586.16</ele>
  <time>2026-08-28T19:06:32Z</time>
  <course>11.17</course>
  <speed>0.0</speed>
  <fix>3d</fix>
</trkpt>
<trkpt lat="40.072842" lon="-105.230575">
  <ele>1586.09</ele>
  <time>2026-08-28T19:06:32Z</time>
  <course>318.43</course>
  <speed>0.0</speed>
  <fix>3d</fix>
</trkpt>
<trkpt lat="40.072842" lon="-105.230575">
  <ele>1586.16</ele>
  <time>2026-08-28T19:06:32Z</time>
  <course>11.16</course>
  <speed>0.0</speed>
  <fix>3d</fix>
</trkpt>
<trkpt lat="40.072842" lon="-105.230575">
  <ele>1586.09</ele>
  <time>2026-08-28T19:06:32Z</time>
  <course>318.43</course>
  <speed>0.0</speed>
  <fix>3d</fix>
</trkpt>
<trkpt lat="40.072842" lon="-105.230575">
  <ele>1586.16</ele>
  <time>2026-08-28T19:06:32Z</time>
  <course>11.16</course>
  <speed>0.0</speed>
  <fix>3d</fix>
</trkpt>
<trkpt lat="40.072842" lon="-105.230575">
  <ele>1586.09</ele>
  <time>2026-08-28T19:06:32Z</time>
  <course>318.43</course>
  <speed>0.0</speed>
  <fix>3d</fix>
</trkpt>
<trkpt lat="40.072842" lon="-105.230575">
  <ele>1586.16</ele>
  <time>2026-08-28T19:06:32Z</time>
  <course>11.15</course>
  <speed>0.0</speed>
  <fix>3d</fix>
</trkpt>
<trkpt lat="40.072842" lon="-105.230575">
  <ele>1586.09</ele>
  <time>2026-08-28T19:06:32Z</time>
  <course>318.43</course>
  <speed>0.0</speed>
  <fix>3d</fix>
</trkpt>
<trkpt lat="40.072842" lon="-105.230575">
  <ele>1586.16</ele>
  <time>2026-08-28T19:06:32Z</time>
  <course>11.14</course>
  <speed>0.0</speed>
  <fix>3d</fix>
</trkpt>
<trkpt lat="40.072842" lon="-105.230575">
  <ele>1586.09</ele>
  <time>2026-08-28T19:06:32Z</time>
  <course>318.43</course>
  <speed>0.0</speed>
  <fix>3d</fix>
</trkpt>
<trkpt lat="40.072842" lon="-105.230575">
  <ele>1586.16</ele>
  <time>2026-08-28T19:06:32Z</time>
  <course>11.14</course>
  <speed>0.0</speed>
  <fix>3d</fix>
</trkpt>
<trkpt lat="40.072842" lon="-105.230575">
  <ele>1586.09</ele>
  <time>2026-08-28T19:06:32Z</time>
  <course>318.43</course>
  <speed>0.0</speed>
  <fix>3d</fix>
</trkpt>
<trkpt lat="40.072842" lon="-105.230575">
  <ele>1586.16</ele>
  <time>2026-08-28T19:06:32Z</time>
  <course>11.13</course>
  <speed>0.0</speed>
  <fix>3d</fix>
</trkpt>
<trkpt lat="40.072842" lon="-105.230575">
  <ele>1586.09</ele>
  <time>2026-08-28T19:06:32Z</time>
  <course>318.43</course>
  <speed>0.0</speed>
  <fix>3d</fix>
</trkpt>
<trkpt lat="40.072842" lon="-105.230575">
  <ele>1586.16</ele>
  <time>2026-08-28T19:06:32Z</time>
  <course>11.13</course>
  <speed>0.0</speed>
  <fix>3d</fix>
</trkpt>
<trkpt lat="40.072842" lon="-105.230575">
  <ele>1586.09</ele>
  <time>2026-08-28T19:06:32Z</time>
  <course>318.43</course>
  <speed>0.0</speed>
  <fix>3d</fix>
</trkpt>
<trkpt lat="40.072842" lon="-105.230575">
  <ele>1586.16</ele>
  <time>2026-08-28T19:06:32Z</time>
  <course>11.12</course>
  <speed>0.0</speed>
  <fix>3d</fix>
</trkpt>
<trkpt lat="40.072842" lon="-105.230575">
  <ele>1586.09</ele>
  <time>2026-08-28T19:06:32Z</time>
  <course>318.43</course>
  <speed>0.0</speed>
  <fix>3d</fix>
</trkpt>
<trkpt lat="40.072842" lon="-105.230575">
  <ele>1586.16</ele>
  <time>2026-08-28T19:06:32Z</time>
  <course>11.11</course>
  <speed>0.0</speed>
  <fix>3d</fix>
</trkpt>
<trkpt lat="40.072842" lon="-105.230575">
  <ele>1586.09</ele>
  <time>2026-08-28T19:06:32Z</time>
  <course>318.43</course>
  <speed>0.0</speed>
  <fix>3d</fix>
</trkpt>
<trkpt lat="40.072842" lon="-105.230575">
  <ele>1586.17</ele>
  <time>2026-08-28T19:06:32Z</time>
  <course>11.11</course>
  <speed>0.0</speed>
  <fix>3d</fix>
</trkpt>
<trkpt lat="40.072842" lon="-105.230575">
  <ele>1586.09</ele>
  <time>2026-08-28T19:06:32Z</time>
  <course>318.43</course>
  <speed>0.0</speed>
  <fix>3d</fix>
</trkpt>
<trkpt lat="40.072842" lon="-105.230575">
  <ele>1586.17</ele>
  <time>2026-08-28T19:06:32Z</time>
  <course>11.1</course>
  <speed>0.0</speed>
  <fix>3d</fix>
</trkpt>
<trkpt lat="40.072842" lon="-105.230575">
  <ele>1586.09</ele>
  <time>2026-08-28T19:06:32Z</time>
  <course>318.43</course>
  <speed>0.0</speed>
  <fix>3d</fix>
</trkpt>
<trkpt lat="40.072842" lon="-105.230575">
  <ele>1586.17</ele>
  <time>2026-08-28T19:06:32Z</time>
  <course>11.1</course>
  <speed>0.0</speed>
  <fix>3d</fix>
</trkpt>
<trkpt lat="40.072842" lon="-105.230575">
  <ele>1586.09</ele>
  <time>2026-08-28T19:06:32Z</time>
  <course>318.43</course>
  <speed>0.0</speed>
  <fix>3d</fix>
</trkpt>
<trkpt lat="40.072842" lon="-105.230575">
  <ele>1586.17</ele>
  <time>2026-08-28T19:06:32Z</time>
  <course>11.09</course>
  <speed>0.0</speed>
  <fix>3d</fix>
</trkpt>
<trkpt lat="40.072842" lon="-105.230575">
  <ele>1586.09</ele>
  <time>2026-08-28T19:06:32Z</time>
  <course>318.43</course>
  <speed>0.0</speed>
  <fix>3d</fix>
</trkpt>
<trkpt lat="40.072842" lon="-105.230575">
  <ele>1586.17</ele>
  <time>2026-08-28T19:06:32Z</time>
  <course>11.08</course>
  <speed>0.0</speed>
  <fix>3d</fix>
</trkpt>
<trkpt lat="40.072842" lon="-105.230575">
  <ele>1586.09</ele>
  <time>2026-08-28T19:06:32Z</time>
  <course>318.43</course>
  <speed>0.0</speed>
  <fix>3d</fix>
</trkpt>
<trkpt lat="40.072842" lon="-105.230575">
  <ele>1586.17</ele>
  <time>2026-08-28T19:06:32Z</time>
  <course>11.08</course>
  <speed>0.0</speed>
  <fix>3d</fix>
</trkpt>
<trkpt lat="40.072842" lon="-105.230575">
  <ele>1586.09</ele>
  <time>2026-08-28T19:06:32Z</time>
  <course>318.43</course>
  <speed>0.0</speed>
  <fix>3d</fix>
</trkpt>
<trkpt lat="40.072842" lon="-105.230575">
  <ele>1586.17</ele>
  <time>2026-08-28T19:06:32Z</time>
  <course>11.07</course>
  <speed>0.0</speed>
  <fix>3d</fix>
</trkpt>
<trkpt lat="40.072842" lon="-105.230575">
  <ele>1586.09</ele>
  <time>2026-08-28T19:06:32Z</time>
  <course>318.43</course>
  <speed>0.0</speed>
  <fix>3d</fix>
</trkpt>
<trkpt lat="40.072842" lon="-105.230575">
  <ele>1586.18</ele>
  <time>2026-08-28T19:06:32Z</time>
  <course>11.07</course>
  <speed>0.0</speed>
  <fix>3d</fix>
</trkpt>
<trkpt lat="40.072842" lon="-105.230575">
  <ele>1586.09</ele>
  <time>2026-08-28T19:06:32Z</time>
  <course>314.89</course>
  <speed>0.0</speed>
  <fix>3d</fix>
</trkpt>
<trkpt lat="40.072842" lon="-105.230575">
  <ele>1586.18</ele>
  <time>2026-08-28T19:06:32Z</time>
  <course>11.06</course>
  <speed>0.0</speed>
  <fix>3d</fix>
</trkpt>
<trkpt lat="40.072842" lon="-105.230575">
  <ele>1586.09</ele>
  <time>2026-08-28T19:06:32Z</time>
  <course>155.73</course>
  <speed>0.0</speed>
  <fix>3d</fix>
</trkpt>
<trkpt lat="40.072842" lon="-105.230575">
  <ele>1586.18</ele>
  <time>2026-08-28T19:06:32Z</time>
  <course>11.05</course>
  <speed>0.0</speed>
  <fix>3d</fix>
</trkpt>
<trkpt lat="40.072842" lon="-105.230575">
  <ele>1586.09</ele>
  <time>2026-08-28T19:06:32Z</time>
  <course>179.37</course>
  <speed>0.0</speed>
  <fix>3d</fix>
</trkpt>
<trkpt lat="40.072842" lon="-105.230575">
  <ele>1586.18</ele>
  <time>2026-08-28T19:06:32Z</time>
  <course>11.05</course>
  <speed>0.01</speed>
  <fix>3d</fix>
</trkpt>
<trkpt lat="40.072842" lon="-105.230575">
  <ele>1586.09</ele>
  <time>2026-08-28T19:06:32Z</time>
  <course>203.23</course>
  <speed>0.0</speed>
  <fix>3d</fix>
</trkpt>
<trkpt lat="40.072842" lon="-105.230575">
  <ele>1586.18</ele>
  <time>2026-08-28T19:06:32Z</time>
  <course>11.04</course>
  <speed>0.01</speed>
  <fix>3d</fix>
</trkpt>
<trkpt lat="40.072842" lon="-105.230575">
  <ele>1586.09</ele>
  <time>2026-08-28T19:06:32Z</time>
  <course>219.69</course>
  <speed>0.0</speed>
  <fix>3d</fix>
</trkpt>
<trkpt lat="40.072842" lon="-105.230575">
  <ele>1586.18</ele>
  <time>2026-08-28T19:06:32Z</time>
  <course>11.03</course>
  <speed>0.01</speed>
  <fix>3d</fix>
</trkpt>
<trkpt lat="40.072842" lon="-105.230575">
  <ele>1586.09</ele>
  <time>2026-08-28T19:06:32Z</time>
  <course>65.88</course>
  <speed>0.0</speed>
  <fix>3d</fix>
</trkpt>
<trkpt lat="40.072842" lon="-105.230575">
  <ele>1586.18</ele>
  <time>2026-08-28T19:06:32Z</time>
  <course>11.03</course>
  <speed>0.01</speed>
  <fix>3d</fix>
</trkpt>
<trkpt lat="40.072842" lon="-105.230575">
  <ele>1586.09</ele>
  <time>2026-08-28T19:06:32Z</time>
  <course>71.94</course>
  <speed>0.0</speed>
  <fix>3d</fix>
</trkpt>
<trkpt lat="40.072842" lon="-105.230575">
  <ele>1586.18</ele>
  <time>2026-08-28T19:06:32Z</time>
  <course>11.02</course>
  <speed>0.01</speed>
  <fix>3d</fix>
</trkpt>
<trkpt lat="40.072842" lon="-105.230575">
  <ele>1586.09</ele>
  <time>2026-08-28T19:06:32Z</time>
  <course>288.06</course>
  <speed>0.0</speed>
  <fix>3d</fix>
</trkpt>
<trkpt lat="40.072842" lon="-105.230575">
  <ele>1586.18</ele>
  <time>2026-08-28T19:06:32Z</time>
  <course>11.01</course>
  <speed>0.01</speed>
  <fix>3d</fix>
</trkpt>
<trkpt lat="40.072842" lon="-105.230575">
  <ele>1586.09</ele>
  <time>2026-08-28T19:06:32Z</time>
  <course>269.21</course>
  <speed>0.0</speed>
  <fix>3d</fix>
</trkpt>
<trkpt lat="40.072842" lon="-105.230575">
  <ele>1586.18</ele>
  <time>2026-08-28T19:06:32Z</time>
  <course>11.01</course>
  <speed>0.01</speed>
  <fix>3d</fix>
</trkpt>
<trkpt lat="40.072842" lon="-105.230575">
  <ele>1586.09</ele>
  <time>2026-08-28T19:06:32Z</time>
  <course>297.95</course>
  <speed>0.0</speed>
  <fix>3d</fix>
</trkpt>
<trkpt lat="40.072842" lon="-105.230575">
  <ele>1586.18</ele>
  <time>2026-08-28T19:06:32Z</time>
  <course>11.0</course>
  <speed>0.01</speed>
  <fix>3d</fix>
</trkpt>
<trkpt lat="40.072842" lon="-105.230575">
  <ele>1586.09</ele>
  <time>2026-08-28T19:06:32Z</time>
  <course>295.5</course>
  <speed>0.0</speed>
  <fix>3d</fix>
</trkpt>
<trkpt lat="40.072842" lon="-105.230575">
  <ele>1586.18</ele>
  <time>2026-08-28T19:06:32Z</time>
  <course>11.0</course>
  <speed>0.01</speed>
  <fix>3d</fix>
</trkpt>
<trkpt lat="40.072842" lon="-105.230575">
  <ele>1586.09</ele>
  <time>2026-08-28T19:06:32Z</time>
  <course>289.33</course>
  <speed>0.0</speed>
  <fix>3d</fix>
</trkpt>
<trkpt lat="40.072842" lon="-105.230575">
  <ele>1586.18</ele>
  <time>2026-08-28T19:06:32Z</time>
  <course>10.99</course>
  <speed>0.01</speed>
  <fix>3d</fix>
</trkpt>
<trkpt lat="40.072842" lon="-105.230575">
  <ele>1586.09</ele>
  <time>2026-08-28T19:06:32Z</time>
  <course>290.1</course>
  <speed>0.0</speed>
  <fix>3d</fix>
</trkpt>
<trkpt lat="40.072842" lon="-105.230575">
  <ele>1586.17</ele>
  <time>2026-08-28T19:06:32Z</time>
  <course>10.98</course>
  <speed>0.01</speed>
  <fix>3d</fix>
</trkpt>
<trkpt lat="40.072842" lon="-105.230575">
  <ele>1586.09</ele>
  <time>2026-08-28T19:06:32Z</time>
  <course>290.79</course>
  <speed>0.0</speed>
  <fix>3d</fix>
</trkpt>
<trkpt lat="40.072842" lon="-105.230575">
  <ele>1586.18</ele>
  <time>2026-08-28T19:06:32Z</time>
  <course>10.98</course>
  <speed>0.01</speed>
  <fix>3d</fix>
</trkpt>
<trkpt lat="40.072842" lon="-105.230575">
  <ele>1586.09</ele>
  <time>2026-08-28T19:06:32Z</time>
  <course>290.6</course>
  <speed>0.0</speed>
  <fix>3d</fix>
</trkpt>
<trkpt lat="40.072842" lon="-105.230575">
  <ele>1586.18</ele>
  <time>2026-08-28T19:06:32Z</time>
  <course>10.97</course>
  <speed>0.0</speed>
  <fix>3d</fix>
</trkpt>
<trkpt lat="40.072842" lon="-105.230575">
  <ele>1586.09</ele>
  <time>2026-08-28T19:06:32Z</time>
  <course>290.53</course>
  <speed>0.0</speed>
  <fix>3d</fix>
</trkpt>
<trkpt lat="40.072842" lon="-105.230575">
  <ele>1586.19</ele>
  <time>2026-08-28T19:06:32Z</time>
  <course>10.96</course>
  <speed>0.0</speed>
  <fix>3d</fix>
</trkpt>
<trkpt lat="40.072842" lon="-105.230575">
  <ele>1586.09</ele>
  <time>2026-08-28T19:06:32Z</time>
  <course>290.56</course>
  <speed>0.0</speed>
  <fix>3d</fix>
</trkpt>
<trkpt lat="40.072842" lon="-105.230575">
  <ele>1586.18</ele>
  <time>2026-08-28T19:06:32Z</time>
  <course>10.96</course>
  <speed>0.0</speed>
  <fix>3d</fix>
</trkpt>
<trkpt lat="40.072842" lon="-105.230575">
  <ele>1586.09</ele>
  <time>2026-08-28T19:06:32Z</time>
  <course>290.57</course>
  <speed>0.0</speed>
  <fix>3d</fix>
</trkpt>
<trkpt lat="40.072842" lon="-105.230575">
  <ele>1586.18</ele>
  <time>2026-08-28T19:06:32Z</time>
  <course>10.95</course>
  <speed>0.0</speed>
  <fix>3d</fix>
</trkpt>
<trkpt lat="40.072842" lon="-105.230575">
  <ele>1586.09</ele>
  <time>2026-08-28T19:06:32Z</time>
  <course>290.56</course>
  <speed>0.0</speed>
  <fix>3d</fix>
</trkpt>
<trkpt lat="40.072842" lon="-105.230575">
  <ele>1586.18</ele>
  <time>2026-08-28T19:06:32Z</time>
  <course>10.94</course>
  <speed>0.0</speed>
  <fix>3d</fix>
</trkpt>
<trkpt lat="40.072842" lon="-105.230575">
  <ele>1586.09</ele>
  <time>2026-08-28T19:06:32Z</time>
  <course>290.56</course>
  <speed>0.0</speed>
  <fix>3d</fix>
</trkpt>
<trkpt lat="40.072842" lon="-105.230575">
  <ele>1586.18</ele>
  <time>2026-08-28T19:06:32Z</time>
  <course>10.94</course>
  <speed>0.0</speed>
  <fix>3d</fix>
</trkpt>
<trkpt lat="40.072842" lon="-105.230575">
  <ele>1586.09</ele>
  <time>2026-08-28T19:06:32Z</time>
  <course>290.56</course>
  <speed>0.0</speed>
  <fix>3d</fix>
</trkpt>
<trkpt lat="40.072842" lon="-105.230575">
  <ele>1586.19</ele>
  <time>2026-08-28T19:06:32Z</time>
  <course>10.93</course>
  <speed>0.0</speed>
  <fix>3d</fix>
</trkpt>
<trkpt lat="40.072842" lon="-105.230575">
  <ele>1586.09</ele>
  <time>2026-08-28T19:06:32Z</time>
  <course>290.56</course>
  <speed>0.0</speed>
  <fix>3d</fix>
</trkpt>
<trkpt lat="40.072842" lon="-105.230575">
  <ele>1586.18</ele>
  <time>2026-08-28T19:06:32Z</time>
  <course>10.92</course>
  <speed>0.0</speed>
  <fix>3d</fix>
</trkpt>
<trkpt lat="40.072842" lon="-105.230575">
  <ele>1586.09</ele>
  <time>2026-08-28T19:06:32Z</time>
  <course>269.89</course>
  <speed>0.0</speed>
  <fix>3d</fix>
</trkpt>
<trkpt lat="40.072842" lon="-105.230575">
  <ele>1586.19</ele>
  <time>2026-08-28T19:06:32Z</time>
  <course>10.92</course>
  <speed>0.0</speed>
  <fix>3d</fix>
</trkpt>
<trkpt lat="40.072842" lon="-105.230575">
  <ele>1586.09</ele>
  <time>2026-08-28T19:06:32Z</time>
  <course>208.5</course>
  <speed>0.0</speed>
  <fix>3d</fix>
</trkpt>
<trkpt lat="40.072842" lon="-105.230575">
  <ele>1586.19</ele>
  <time>2026-08-28T19:06:32Z</time>
  <course>10.91</course>
  <speed>0.0</speed>
  <fix>3d</fix>
</trkpt>
<trkpt lat="40.072842" lon="-105.230575">
  <ele>1586.09</ele>
  <time>2026-08-28T19:06:32Z</time>
  <course>183.03</course>
  <speed>0.0</speed>
  <fix>3d</fix>
</trkpt>
<trkpt lat="40.072842" lon="-105.230575">
  <ele>1586.19</ele>
  <time>2026-08-28T19:06:32Z</time>
  <course>10.9</course>
  <speed>0.0</speed>
  <fix>3d</fix>
</trkpt>
<trkpt lat="40.072842" lon="-105.230575">
  <ele>1586.09</ele>
  <time>2026-08-28T19:06:32Z</time>
  <course>139.17</course>
  <speed>0.0</speed>
  <fix>3d</fix>
</trkpt>
<trkpt lat="40.072842" lon="-105.230575">
  <ele>1586.19</ele>
  <time>2026-08-28T19:06:32Z</time>
  <course>10.9</course>
  <speed>0.01</speed>
  <fix>3d</fix>
</trkpt>
<trkpt lat="40.072842" lon="-105.230575">
  <ele>1586.09</ele>
  <time>2026-08-28T19:06:32Z</time>
  <course>355.37</course>
  <speed>0.0</speed>
  <fix>3d</fix>
</trkpt>
<trkpt lat="40.072842" lon="-105.230575">
  <ele>1586.2</ele>
  <time>2026-08-28T19:06:32Z</time>
  <course>10.89</course>
  <speed>0.01</speed>
  <fix>3d</fix>
</trkpt>
<trkpt lat="40.072842" lon="-105.230575">
  <ele>1586.09</ele>
  <time>2026-08-28T19:06:32Z</time>
  <course>268.47</course>
  <speed>0.0</speed>
  <fix>3d</fix>
</trkpt>
<trkpt lat="40.072842" lon="-105.230575">
  <ele>1586.2</ele>
  <time>2026-08-28T19:06:32Z</time>
  <course>10.89</course>
  <speed>0.01</speed>
  <fix>3d</fix>
</trkpt>
<trkpt lat="40.072842" lon="-105.230575">
  <ele>1586.09</ele>
  <time>2026-08-28T19:06:32Z</time>
  <course>222.08</course>
  <speed>0.0</speed>
  <fix>3d</fix>
</trkpt>
<trkpt lat="40.072842" lon="-105.230575">
  <ele>1586.2</ele>
  <time>2026-08-28T19:06:32Z</time>
  <course>10.88</course>
  <speed>0.01</speed>
  <fix>3d</fix>
</trkpt>
<trkpt lat="40.072842" lon="-105.230575">
  <ele>1586.09</ele>
  <time>2026-08-28T19:06:32Z</time>
  <course>242.07</course>
  <speed>0.0</speed>
  <fix>3d</fix>
</trkpt>
<trkpt lat="40.072842" lon="-105.230575">
  <ele>1586.21</ele>
  <time>2026-08-28T19:06:32Z</time>
  <course>10.87</course>
  <speed>0.01</speed>
  <fix>3d</fix>
</trkpt>
<trkpt lat="40.072842" lon="-105.230575">
  <ele>1586.09</ele>
  <time>2026-08-28T19:06:32Z</time>
  <course>249.25</course>
  <speed>0.0</speed>
  <fix>3d</fix>
</trkpt>
<trkpt lat="40.072842" lon="-105.230575">
  <ele>1586.21</ele>
  <time>2026-08-28T19:06:32Z</time>
  <course>10.87</course>
  <speed>0.01</speed>
  <fix>3d</fix>
</trkpt>
<trkpt lat="40.072842" lon="-105.230575">
  <ele>1586.09</ele>
  <time>2026-08-28T19:06:32Z</time>
  <course>244.89</course>
  <speed>0.0</speed>
  <fix>3d</fix>
</trkpt>
<trkpt lat="40.072842" lon="-105.230575">
  <ele>1586.21</ele>
  <time>2026-08-28T19:06:32Z</time>
  <course>10.86</course>
  <speed>0.01</speed>
  <fix>3d</fix>
</trkpt>
<trkpt lat="40.072842" lon="-105.230575">
  <ele>1586.09</ele>
  <time>2026-08-28T19:06:32Z</time>
  <course>244.49</course>
  <speed>0.0</speed>
  <fix>3d</fix>
</trkpt>
<trkpt lat="40.072842" lon="-105.230575">
  <ele>1586.2</ele>
  <time>2026-08-28T19:06:32Z</time>
  <course>10.85</course>
  <speed>0.01</speed>
  <fix>3d</fix>
</trkpt>
<trkpt lat="40.072842" lon="-105.230575">
  <ele>1586.09</ele>
  <time>2026-08-28T19:06:32Z</time>
  <course>245.12</course>
  <speed>0.0</speed>
  <fix>3d</fix>
</trkpt>
<trkpt lat="40.072842" lon="-105.230575">
  <ele>1586.2</ele>
  <time>2026-08-28T19:06:32Z</time>
  <course>10.85</course>
  <speed>0.01</speed>
  <fix>3d</fix>
</trkpt>
<trkpt lat="40.072842" lon="-105.230575">
  <ele>1586.09</ele>
  <time>2026-08-28T19:06:32Z</time>
  <course>245.1</course>
  <speed>0.0</speed>
  <fix>3d</fix>
</trkpt>
<trkpt lat="40.072842" lon="-105.230575">
  <ele>1586.19</ele>
  <time>2026-08-28T19:06:32Z</time>
  <course>10.84</course>
  <speed>0.01</speed>
  <fix>3d</fix>
</trkpt>
<trkpt lat="40.072842" lon="-105.230575">
  <ele>1586.09</ele>
  <time>2026-08-28T19:06:32Z</time>
  <course>245.02</course>
  <speed>0.0</speed>
  <fix>3d</fix>
</trkpt>
<trkpt lat="40.072842" lon="-105.230575">
  <ele>1586.19</ele>
  <time>2026-08-28T19:06:32Z</time>
  <course>10.83</course>
  <speed>0.01</speed>
  <fix>3d</fix>
</trkpt>
<trkpt lat="40.072842" lon="-105.230575">
  <ele>1586.09</ele>
  <time>2026-08-28T19:06:32Z</time>
  <course>245.03</course>
  <speed>0.0</speed>
  <fix>3d</fix>
</trkpt>
<trkpt lat="40.072842" lon="-105.230575">
  <ele>1586.19</ele>
  <time>2026-08-28T19:06:32Z</time>
  <course>10.83</course>
  <speed>0.01</speed>
  <fix>3d</fix>
</trkpt>
<trkpt lat="40.072842" lon="-105.230575">
  <ele>1586.09</ele>
  <time>2026-08-28T19:06:32Z</time>
  <course>245.04</course>
  <speed>0.0</speed>
  <fix>3d</fix>
</trkpt>
<trkpt lat="40.072842" lon="-105.230575">
  <ele>1586.19</ele>
  <time>2026-08-28T19:06:33Z</time>
  <course>10.82</course>
  <speed>0.01</speed>
  <fix>3d</fix>
</trkpt>
<trkpt lat="40.072842" lon="-105.230575">
  <ele>1586.09</ele>
  <time>2026-08-28T19:06:33Z</time>
  <course>245.04</course>
  <speed>0.0</speed>
  <fix>3d</fix>
</trkpt>
<trkpt lat="40.072842" lon="-105.230575">
  <ele>1586.19</ele>
  <time>2026-08-28T19:06:33Z</time>
  <course>10.81</course>
  <speed>0.01</speed>
  <fix>3d</fix>
</trkpt>
<trkpt lat="40.072842" lon="-105.230575">
  <ele>1586.09</ele>
  <time>2026-08-28T19:06:33Z</time>
  <course>245.04</course>
  <speed>0.0</speed>
  <fix>3d</fix>
</trkpt>
<trkpt lat="40.072842" lon="-105.230575">
  <ele>1586.19</ele>
  <time>2026-08-28T19:06:33Z</time>
  <course>10.81</course>
  <speed>0.01</speed>
  <fix>3d</fix>
</trkpt>
<trkpt lat="40.072842" lon="-105.230575">
  <ele>1586.09</ele>
  <time>2026-08-28T19:06:33Z</time>
  <course>245.04</course>
  <speed>0.0</speed>
  <fix>3d</fix>
</trkpt>
<trkpt lat="40.072842" lon="-105.230575">
  <ele>1586.18</ele>
  <time>2026-08-28T19:06:33Z</time>
  <course>10.8</course>
  <speed>0.01</speed>
  <fix>3d</fix>
</trkpt>
<trkpt lat="40.072842" lon="-105.230575">
  <ele>1586.09</ele>
  <time>2026-08-28T19:06:33Z</time>
  <course>245.04</course>
  <speed>0.0</speed>
  <fix>3d</fix>
</trkpt>
<trkpt lat="40.072842" lon="-105.230575">
  <ele>1586.19</ele>
  <time>2026-08-28T19:06:33Z</time>
  <course>10.79</course>
  <speed>0.01</speed>
  <fix>3d</fix>
</trkpt>
<trkpt lat="40.072842" lon="-105.230575">
  <ele>1586.09</ele>
  <time>2026-08-28T19:06:33Z</time>
  <course>245.04</course>
  <speed>0.0</speed>
  <fix>3d</fix>
</trkpt>
<trkpt lat="40.072842" lon="-105.230575">
  <ele>1586.19</ele>
  <time>2026-08-28T19:06:33Z</time>
  <course>10.79</course>
  <speed>0.01</speed>
  <fix>3d</fix>
</trkpt>
<trkpt lat="40.072842" lon="-105.230575">
  <ele>1586.09</ele>
  <time>2026-08-28T19:06:33Z</time>
  <course>245.04</course>
  <speed>0.0</speed>
  <fix>3d</fix>
</trkpt>
<trkpt lat="40.072842" lon="-105.230575">
  <ele>1586.18</ele>
  <time>2026-08-28T19:06:33Z</time>
  <course>10.78</course>
  <speed>0.01</speed>
  <fix>3d</fix>
</trkpt>
<trkpt lat="40.072842" lon="-105.230575">
  <ele>1586.09</ele>
  <time>2026-08-28T19:06:33Z</time>
  <course>245.04</course>
  <speed>0.0</speed>
  <fix>3d</fix>
</trkpt>
<trkpt lat="40.072842" lon="-105.230575">
  <ele>1586.18</ele>
  <time>2026-08-28T19:06:33Z</time>
  <course>10.77</course>
  <speed>0.01</speed>
  <fix>3d</fix>
</trkpt>
<trkpt lat="40.072842" lon="-105.230575">
  <ele>1586.09</ele>
  <time>2026-08-28T19:06:33Z</time>
  <course>245.04</course>
  <speed>0.0</speed>
  <fix>3d</fix>
</trkpt>
<trkpt lat="40.072842" lon="-105.230575">
  <ele>1586.17</ele>
  <time>2026-08-28T19:06:33Z</time>
  <course>10.77</course>
  <speed>0.01414213562373095</speed>
  <fix>3d</fix>
</trkpt>
<trkpt lat="40.072842" lon="-105.230575">
  <ele>1586.09</ele>
  <time>2026-08-28T19:06:33Z</time>
  <course>245.04</course>
  <speed>0.0</speed>
  <fix>3d</fix>
</trkpt>
<trkpt lat="40.072842" lon="-105.230575">
  <ele>1586.17</ele>
  <time>2026-08-28T19:06:33Z</time>
  <course>10.76</course>
  <speed>0.01414213562373095</speed>
  <fix>3d</fix>
</trkpt>
<trkpt lat="40.072842" lon="-105.230575">
  <ele>1586.09</ele>
  <time>2026-08-28T19:06:33Z</time>
  <course>245.04</course>
  <speed>0.0</speed>
  <fix>3d</fix>
</trkpt>
<trkpt lat="40.072842" lon="-105.230575">
  <ele>1586.17</ele>
  <time>2026-08-28T19:06:33Z</time>
  <course>10.75</course>
  <speed>0.01414213562373095</speed>
  <fix>3d</fix>
</trkpt>
<trkpt lat="40.072842" lon="-105.230575">
  <ele>1586.09</ele>
  <time>2026-08-28T19:06:33Z</time>
  <course>245.04</course>
  <speed>0.0</speed>
  <fix>3d</fix>
</trkpt>
<trkpt lat="40.072842" lon="-105.230575">
  <ele>1586.17</ele>
  <time>2026-08-28T19:06:33Z</time>
  <course>10.75</course>
  <speed>0.01414213562373095</speed>
  <fix>3d</fix>
</trkpt>
<trkpt lat="40.072842" lon="-105.230575">
  <ele>1586.09</ele>
  <time>2026-08-28T19:06:33Z</time>
  <course>245.04</course>
  <speed>0.0</speed>
  <fix>3d</fix>
</trkpt>
<trkpt lat="40.0728421" lon="-105.230575">
  <ele>1586.17</ele>
  <time>2026-08-28T19:06:33Z</time>
  <course>10.74</course>
  <speed>0.01414213562373095</speed>
  <fix>3d</fix>
</trkpt>
<trkpt lat="40.072842" lon="-105.230575">
  <ele>1586.09</ele>
  <time>2026-08-28T19:06:33Z</time>
  <course>245.04</course>
  <speed>0.0</speed>
  <fix>3d</fix>
</trkpt>
<trkpt lat="40.0728421" lon="-105.230575">
  <ele>1586.17</ele>
  <time>2026-08-28T19:06:33Z</time>
  <course>10.73</course>
  <speed>0.01414213562373095</speed>
  <fix>3d</fix>
</trkpt>
<trkpt lat="40.072842" lon="-105.230575">
  <ele>1586.09</ele>
  <time>2026-08-28T19:06:33Z</time>
  <course>245.04</course>
  <speed>0.0</speed>
  <fix>3d</fix>
</trkpt>
<trkpt lat="40.0728421" lon="-105.230575">
  <ele>1586.17</ele>
  <time>2026-08-28T19:06:33Z</time>
  <course>10.73</course>
  <speed>0.01414213562373095</speed>
  <fix>3d</fix>
</trkpt>
<trkpt lat="40.072842" lon="-105.230575">
  <ele>1586.09</ele>
  <time>2026-08-28T19:06:33Z</time>
  <course>245.04</course>
  <speed>0.0</speed>
  <fix>3d</fix>
</trkpt>
<trkpt lat="40.0728421" lon="-105.230575">
  <ele>1586.16</ele>
  <time>2026-08-28T19:06:33Z</time>
  <course>10.72</course>
  <speed>0.01414213562373095</speed>
  <fix>3d</fix>
</trkpt>
<trkpt lat="40.072842" lon="-105.230575">
  <ele>1586.09</ele>
  <time>2026-08-28T19:06:33Z</time>
  <course>245.04</course>
  <speed>0.0</speed>
  <fix>3d</fix>
</trkpt>
<trkpt lat="40.0728421" lon="-105.230575">
  <ele>1586.16</ele>
  <time>2026-08-28T19:06:33Z</time>
  <course>10.71</course>
  <speed>0.01414213562373095</speed>
  <fix>3d</fix>
</trkpt>
<trkpt lat="40.072842" lon="-105.230575">
  <ele>1586.09</ele>
  <time>2026-08-28T19:06:33Z</time>
  <course>245.04</course>
  <speed>0.0</speed>
  <fix>3d</fix>
</trkpt>
<trkpt lat="40.0728421" lon="-105.230575">
  <ele>1586.16</ele>
  <time>2026-08-28T19:06:33Z</time>
  <course>10.71</course>
  <speed>0.01414213562373095</speed>
  <fix>3d</fix>
</trkpt>
<trkpt lat="40.072842" lon="-105.230575">
  <ele>1586.09</ele>
  <time>2026-08-28T19:06:33Z</time>
  <course>245.04</course>
  <speed>0.0</speed>
  <fix>3d</fix>
</trkpt>
<trkpt lat="40.0728421" lon="-105.230575">
  <ele>1586.16</ele>
  <time>2026-08-28T19:06:33Z</time>
  <course>10.7</course>
  <speed>0.01414213562373095</speed>
  <fix>3d</fix>
</trkpt>
<trkpt lat="40.072842" lon="-105.230575">
  <ele>1586.09</ele>
  <time>2026-08-28T19:06:33Z</time>
  <course>245.04</course>
  <speed>0.0</speed>
  <fix>3d</fix>
</trkpt>
<trkpt lat="40.0728421" lon="-105.230575">
  <ele>1586.16</ele>
  <time>2026-08-28T19:06:33Z</time>
  <course>10.69</course>
  <speed>0.01414213562373095</speed>
  <fix>3d</fix>
</trkpt>
<trkpt lat="40.072842" lon="-105.230575">
  <ele>1586.09</ele>
  <time>2026-08-28T19:06:33Z</time>
  <course>245.04</course>
  <speed>0.0</speed>
  <fix>3d</fix>
</trkpt>
<trkpt lat="40.0728421" lon="-105.230575">
  <ele>1586.16</ele>
  <time>2026-08-28T19:06:33Z</time>
  <course>10.69</course>
  <speed>0.01414213562373095</speed>
  <fix>3d</fix>
</trkpt>
<trkpt lat="40.072842" lon="-105.230575">
  <ele>1586.09</ele>
  <time>2026-08-28T19:06:33Z</time>
  <course>245.04</course>
  <speed>0.0</speed>
  <fix>3d</fix>
</trkpt>
<trkpt lat="40.0728421" lon="-105.2305751">
  <ele>1586.16</ele>
  <time>2026-08-28T19:06:33Z</time>
  <course>10.68</course>
  <speed>0.01414213562373095</speed>
  <fix>3d</fix>
</trkpt>
<trkpt lat="40.072842" lon="-105.230575">
  <ele>1586.09</ele>
  <time>2026-08-28T19:06:33Z</time>
  <course>245.04</course>
  <speed>0.0</speed>
  <fix>3d</fix>
</trkpt>
<trkpt lat="40.0728421" lon="-105.2305751">
  <ele>1586.16</ele>
  <time>2026-08-28T19:06:33Z</time>
  <course>10.67</course>
  <speed>0.01414213562373095</speed>
  <fix>3d</fix>
</trkpt>
<trkpt lat="40.072842" lon="-105.230575">
  <ele>1586.09</ele>
  <time>2026-08-28T19:06:33Z</time>
  <course>245.04</course>
  <speed>0.0</speed>
  <fix>3d</fix>
</trkpt>
<trkpt lat="40.0728421" lon="-105.2305751">
  <ele>1586.16</ele>
  <time>2026-08-28T19:06:33Z</time>
  <course>10.67</course>
  <speed>0.01414213562373095</speed>
  <fix>3d</fix>
</trkpt>
<trkpt lat="40.072842" lon="-105.230575">
  <ele>1586.09</ele>
  <time>2026-08-28T19:06:33Z</time>
  <course>245.04</course>
  <speed>0.0</speed>
  <fix>3d</fix>
</trkpt>
<trkpt lat="40.0728421" lon="-105.2305751">
  <ele>1586.16</ele>
  <time>2026-08-28T19:06:33Z</time>
  <course>10.66</course>
  <speed>0.01414213562373095</speed>
  <fix>3d</fix>
</trkpt>
<trkpt lat="40.072842" lon="-105.230575">
  <ele>1586.09</ele>
  <time>2026-08-28T19:06:33Z</time>
  <course>245.04</course>
  <speed>0.0</speed>
  <fix>3d</fix>
</trkpt>
<trkpt lat="40.0728421" lon="-105.2305751">
  <ele>1586.16</ele>
  <time>2026-08-28T19:06:33Z</time>
  <course>10.65</course>
  <speed>0.01414213562373095</speed>
  <fix>3d</fix>
</trkpt>
<trkpt lat="40.072842" lon="-105.230575">
  <ele>1586.09</ele>
  <time>2026-08-28T19:06:33Z</time>
  <course>245.04</course>
  <speed>0.0</speed>
  <fix>3d</fix>
</trkpt>
<trkpt lat="40.0728421" lon="-105.2305751">
  <ele>1586.16</ele>
  <time>2026-08-28T19:06:33Z</time>
  <course>10.65</course>
  <speed>0.01414213562373095</speed>
  <fix>3d</fix>
</trkpt>
<trkpt lat="40.072842" lon="-105.230575">
  <ele>1586.09</ele>
  <time>2026-08-28T19:06:33Z</time>
  <course>245.04</course>
  <speed>0.0</speed>
  <fix>3d</fix>
</trkpt>
<trkpt lat="40.0728421" lon="-105.2305751">
  <ele>1586.16</ele>
  <time>2026-08-28T19:06:33Z</time>
  <course>10.64</course>
  <speed>0.01414213562373095</speed>
  <fix>3d</fix>
</trkpt>
<trkpt lat="40.072842" lon="-105.230575">
  <ele>1586.09</ele>
  <time>2026-08-28T19:06:33Z</time>
  <course>245.04</course>
  <speed>0.0</speed>
  <fix>3d</fix>
</trkpt>
<trkpt lat="40.0728421" lon="-105.2305751">
  <ele>1586.16</ele>
  <time>2026-08-28T19:06:33Z</time>
  <course>10.63</course>
  <speed>0.01414213562373095</speed>
  <fix>3d</fix>
</trkpt>
<trkpt lat="40.072842" lon="-105.230575">
  <ele>1586.09</ele>
  <time>2026-08-28T19:06:33Z</time>
  <course>245.04</course>
  <speed>0.0</speed>
  <fix>3d</fix>
</trkpt>
<trkpt lat="40.0728421" lon="-105.2305751">
  <ele>1586.16</ele>
  <time>2026-08-28T19:06:33Z</time>
  <course>10.63</course>
  <speed>0.01414213562373095</speed>
  <fix>3d</fix>
</trkpt>
<trkpt lat="40.072842" lon="-105.230575">
  <ele>1586.09</ele>
  <time>2026-08-28T19:06:33Z</time>
  <course>245.04</course>
  <speed>0.0</speed>
  <fix>3d</fix>
</trkpt>
<trkpt lat="40.0728421" lon="-105.2305751">
  <ele>1586.17</ele>
  <time>2026-08-28T19:06:33Z</time>
  <course>10.62</course>
  <speed>0.01414213562373095</speed>
  <fix>3d</fix>
</trkpt>
<trkpt lat="40.072842" lon="-105.230575">
  <ele>1586.09</ele>
  <time>2026-08-28T19:06:33Z</time>
  <course>245.04</course>
  <speed>0.0</speed>
  <fix>3d</fix>
</trkpt>
<trkpt lat="40.0728421" lon="-105.2305751">
  <ele>1586.17</ele>
  <time>2026-08-28T19:06:33Z</time>
  <course>10.61</course>
  <speed>0.01414213562373095</speed>
  <fix>3d</fix>
</trkpt>
<trkpt lat="40.072842" lon="-105.230575">
  <ele>1586.09</ele>
  <time>2026-08-28T19:06:33Z</time>
  <course>245.04</course>
  <speed>0.0</speed>
  <fix>3d</fix>
</trkpt>
<trkpt lat="40.0728421" lon="-105.2305751">
  <ele>1586.18</ele>
  <time>2026-08-28T19:06:33Z</time>
  <course>10.61</course>
  <speed>0.01414213562373095</speed>
  <fix>3d</fix>
</trkpt>
<trkpt lat="40.072842" lon="-105.230575">
  <ele>1586.09</ele>
  <time>2026-08-28T19:06:33Z</time>
  <course>245.04</course>
  <speed>0.0</speed>
  <fix>3d</fix>
</trkpt>
<trkpt lat="40.0728421" lon="-105.2305751">
  <ele>1586.18</ele>
  <time>2026-08-28T19:06:33Z</time>
  <course>10.6</course>
  <speed>0.01414213562373095</speed>
  <fix>3d</fix>
</trkpt>
<trkpt lat="40.072842" lon="-105.230575">
  <ele>1586.09</ele>
  <time>2026-08-28T19:06:33Z</time>
  <course>245.04</course>
  <speed>0.0</speed>
  <fix>3d</fix>
</trkpt>
<trkpt lat="40.0728421" lon="-105.2305751">
  <ele>1586.18</ele>
  <time>2026-08-28T19:06:33Z</time>
  <course>10.59</course>
  <speed>0.01414213562373095</speed>
  <fix>3d</fix>
</trkpt>
<trkpt lat="40.072842" lon="-105.230575">
  <ele>1586.09</ele>
  <time>2026-08-28T19:06:33Z</time>
  <course>245.04</course>
  <speed>0.0</speed>
  <fix>3d</fix>
</trkpt>
<trkpt lat="40.0728421" lon="-105.2305751">
  <ele>1586.18</ele>
  <time>2026-08-28T19:06:33Z</time>
  <course>10.58</course>
  <speed>0.01414213562373095</speed>
  <fix>3d</fix>
</trkpt>
<trkpt lat="40.072842" lon="-105.230575">
  <ele>1586.09</ele>
  <time>2026-08-28T19:06:33Z</time>
  <course>245.04</course>
  <speed>0.0</speed>
  <fix>3d</fix>
</trkpt>
<trkpt lat="40.0728421" lon="-105.2305751">
  <ele>1586.19</ele>
  <time>2026-08-28T19:06:33Z</time>
  <course>10.58</course>
  <speed>0.01414213562373095</speed>
  <fix>3d</fix>
</trkpt>
<trkpt lat="40.072842" lon="-105.230575">
  <ele>1586.09</ele>
  <time>2026-08-28T19:06:33Z</time>
  <course>245.04</course>
  <speed>0.0</speed>
  <fix>3d</fix>
</trkpt>
<trkpt lat="40.0728421" lon="-105.2305751">
  <ele>1586.19</ele>
  <time>2026-08-28T19:06:33Z</time>
  <course>10.57</course>
  <speed>0.01414213562373095</speed>
  <fix>3d</fix>
</trkpt>
<trkpt lat="40.072842" lon="-105.230575">
  <ele>1586.09</ele>
  <time>2026-08-28T19:06:33Z</time>
  <course>245.04</course>
  <speed>0.0</speed>
  <fix>3d</fix>
</trkpt>
<trkpt lat="40.0728421" lon="-105.2305751">
  <ele>1586.19</ele>
  <time>2026-08-28T19:06:33Z</time>
  <course>10.56</course>
  <speed>0.01414213562373095</speed>
  <fix>3d</fix>
</trkpt>
<trkpt lat="40.072842" lon="-105.230575">
  <ele>1586.09</ele>
  <time>2026-08-28T19:06:33Z</time>
  <course>245.04</course>
  <speed>0.0</speed>
  <fix>3d</fix>
</trkpt>
<trkpt lat="40.0728421" lon="-105.2305751">
  <ele>1586.19</ele>
  <time>2026-08-28T19:06:33Z</time>
  <course>10.56</course>
  <speed>0.01414213562373095</speed>
  <fix>3d</fix>
</trkpt>
<trkpt lat="40.072842" lon="-105.230575">
  <ele>1586.09</ele>
  <time>2026-08-28T19:06:33Z</time>
  <course>245.04</course>
  <speed>0.0</speed>
  <fix>3d</fix>
</trkpt>
<trkpt lat="40.0728421" lon="-105.2305751">
  <ele>1586.19</ele>
  <time>2026-08-28T19:06:33Z</time>
  <course>10.55</course>
  <speed>0.01414213562373095</speed>
  <fix>3d</fix>
</trkpt>
<trkpt lat="40.072842" lon="-105.230575">
  <ele>1586.09</ele>
  <time>2026-08-28T19:06:33Z</time>
  <course>245.04</course>
  <speed>0.0</speed>
  <fix>3d</fix>
</trkpt>
<trkpt lat="40.0728421" lon="-105.2305751">
  <ele>1586.19</ele>
  <time>2026-08-28T19:06:33Z</time>
  <course>10.54</course>
  <speed>0.01414213562373095</speed>
  <fix>3d</fix>
</trkpt>
<trkpt lat="40.072842" lon="-105.230575">
  <ele>1586.09</ele>
  <time>2026-08-28T19:06:33Z</time>
  <course>245.04</course>
  <speed>0.0</speed>
  <fix>3d</fix>
</trkpt>
<trkpt lat="40.0728421" lon="-105.2305751">
  <ele>1586.19</ele>
  <time>2026-08-28T19:06:33Z</time>
  <course>10.54</course>
  <speed>0.01414213562373095</speed>
  <fix>3d</fix>
</trkpt>
<trkpt lat="40.072842" lon="-105.230575">
  <ele>1586.09</ele>
  <time>2026-08-28T19:06:33Z</time>
  <course>245.04</course>
  <speed>0.0</speed>
  <fix>3d</fix>
</trkpt>
<trkpt lat="40.0728421" lon="-105.2305751">
  <ele>1586.19</ele>
  <time>2026-08-28T19:06:33Z</time>
  <course>10.53</course>
  <speed>0.01414213562373095</speed>
  <fix>3d</fix>
</trkpt>
<trkpt lat="40.072842" lon="-105.230575">
  <ele>1586.09</ele>
  <time>2026-08-28T19:06:33Z</time>
  <course>245.04</course>
  <speed>0.0</speed>
  <fix>3d</fix>
</trkpt>
<trkpt lat="40.0728421" lon="-105.2305751">
  <ele>1586.19</ele>
  <time>2026-08-28T19:06:33Z</time>
  <course>10.53</course>
  <speed>0.01414213562373095</speed>
  <fix>3d</fix>
</trkpt>
<trkpt lat="40.072842" lon="-105.230575">
  <ele>1586.09</ele>
  <time>2026-08-28T19:06:33Z</time>
  <course>245.04</course>
  <speed>0.0</speed>
  <fix>3d</fix>
</trkpt>
<trkpt lat="40.0728421" lon="-105.2305751">
  <ele>1586.19</ele>
  <time>2026-08-28T19:06:33Z</time>
  <course>10.52</course>
  <speed>0.01414213562373095</speed>
  <fix>3d</fix>
</trkpt>
<trkpt lat="40.072842" lon="-105.230575">
  <ele>1586.09</ele>
  <time>2026-08-28T19:06:33Z</time>
  <course>245.04</course>
  <speed>0.0</speed>
  <fix>3d</fix>
</trkpt>
<trkpt lat="40.0728421" lon="-105.2305751">
  <ele>1586.18</ele>
  <time>2026-08-28T19:06:33Z</time>
  <course>10.51</course>
  <speed>0.01414213562373095</speed>
  <fix>3d</fix>
</trkpt>
<trkpt lat="40.072842" lon="-105.230575">
  <ele>1586.09</ele>
  <time>2026-08-28T19:06:33Z</time>
  <course>245.04</course>
  <speed>0.0</speed>
  <fix>3d</fix>
</trkpt>
<trkpt lat="40.0728421" lon="-105.2305751">
  <ele>1586.19</ele>
  <time>2026-08-28T19:06:33Z</time>
  <course>10.51</course>
  <speed>0.01414213562373095</speed>
  <fix>3d</fix>
</trkpt>
<trkpt lat="40.072842" lon="-105.230575">
  <ele>1586.09</ele>
  <time>2026-08-28T19:06:33Z</time>
  <course>245.04</course>
  <speed>0.0</speed>
  <fix>3d</fix>
</trkpt>
<trkpt lat="40.0728421" lon="-105.2305751">
  <ele>1586.18</ele>
  <time>2026-08-28T19:06:33Z</time>
  <course>10.5</course>
  <speed>0.01414213562373095</speed>
  <fix>3d</fix>
</trkpt>
<trkpt lat="40.072842" lon="-105.230575">
  <ele>1586.09</ele>
  <time>2026-08-28T19:06:33Z</time>
  <course>245.04</course>
  <speed>0.0</speed>
  <fix>3d</fix>
</trkpt>
<trkpt lat="40.0728421" lon="-105.2305751">
  <ele>1586.18</ele>
  <time>2026-08-28T19:06:33Z</time>
  <course>10.49</course>
  <speed>0.01414213562373095</speed>
  <fix>3d</fix>
</trkpt>
<trkpt lat="40.072842" lon="-105.230575">
  <ele>1586.09</ele>
  <time>2026-08-28T19:06:33Z</time>
  <course>245.04</course>
  <speed>0.0</speed>
  <fix>3d</fix>
</trkpt>
<trkpt lat="40.0728421" lon="-105.2305751">
  <ele>1586.18</ele>
  <time>2026-08-28T19:06:33Z</time>
  <course>10.49</course>
  <speed>0.01414213562373095</speed>
  <fix>3d</fix>
</trkpt>
<trkpt lat="40.072842" lon="-105.230575">
  <ele>1586.09</ele>
  <time>2026-08-28T19:06:33Z</time>
  <course>245.04</course>
  <speed>0.0</speed>
  <fix>3d</fix>
</trkpt>
<trkpt lat="40.0728421" lon="-105.2305751">
  <ele>1586.17</ele>
  <time>2026-08-28T19:06:33Z</time>
  <course>10.48</course>
  <speed>0.01414213562373095</speed>
  <fix>3d</fix>
</trkpt>
<trkpt lat="40.072842" lon="-105.230575">
  <ele>1586.09</ele>
  <time>2026-08-28T19:06:33Z</time>
  <course>245.04</course>
  <speed>0.0</speed>
  <fix>3d</fix>
</trkpt>
<trkpt lat="40.0728421" lon="-105.2305751">
  <ele>1586.17</ele>
  <time>2026-08-28T19:06:33Z</time>
  <course>10.47</course>
  <speed>0.01414213562373095</speed>
  <fix>3d</fix>
</trkpt>
<trkpt lat="40.072842" lon="-105.230575">
  <ele>1586.09</ele>
  <time>2026-08-28T19:06:33Z</time>
  <course>245.04</course>
  <speed>0.0</speed>
  <fix>3d</fix>
</trkpt>
<trkpt lat="40.0728421" lon="-105.2305751">
  <ele>1586.17</ele>
  <time>2026-08-28T19:06:33Z</time>
  <course>10.47</course>
  <speed>0.01414213562373095</speed>
  <fix>3d</fix>
</trkpt>
<trkpt lat="40.072842" lon="-105.230575">
  <ele>1586.09</ele>
  <time>2026-08-28T19:06:33Z</time>
  <course>245.04</course>
  <speed>0.0</speed>
  <fix>3d</fix>
</trkpt>
<trkpt lat="40.0728421" lon="-105.2305751">
  <ele>1586.17</ele>
  <time>2026-08-28T19:06:33Z</time>
  <course>10.46</course>
  <speed>0.01414213562373095</speed>
  <fix>3d</fix>
</trkpt>
<trkpt lat="40.072842" lon="-105.230575">
  <ele>1586.09</ele>
  <time>2026-08-28T19:06:33Z</time>
  <course>245.04</course>
  <speed>0.0</speed>
  <fix>3d</fix>
</trkpt>
<trkpt lat="40.0728421" lon="-105.2305751">
  <ele>1586.17</ele>
  <time>2026-08-28T19:06:33Z</time>
  <course>10.45</course>
  <speed>0.01414213562373095</speed>
  <fix>3d</fix>
</trkpt>
<trkpt lat="40.072842" lon="-105.230575">
  <ele>1586.09</ele>
  <time>2026-08-28T19:06:33Z</time>
  <course>245.04</course>
  <speed>0.0</speed>
  <fix>3d</fix>
</trkpt>
<trkpt lat="40.0728421" lon="-105.2305751">
  <ele>1586.16</ele>
  <time>2026-08-28T19:06:33Z</time>
  <course>10.45</course>
  <speed>0.01414213562373095</speed>
  <fix>3d</fix>
</trkpt>
<trkpt lat="40.072842" lon="-105.230575">
  <ele>1586.09</ele>
  <time>2026-08-28T19:06:33Z</time>
  <course>245.04</course>
  <speed>0.0</speed>
  <fix>3d</fix>
</trkpt>
<trkpt lat="40.0728421" lon="-105.2305751">
  <ele>1586.16</ele>
  <time>2026-08-28T19:06:33Z</time>
  <course>10.44</course>
  <speed>0.01414213562373095</speed>
  <fix>3d</fix>
</trkpt>
<trkpt lat="40.072842" lon="-105.230575">
  <ele>1586.09</ele>
  <time>2026-08-28T19:06:33Z</time>
  <course>245.04</course>
  <speed>0.0</speed>
  <fix>3d</fix>
</trkpt>
<trkpt lat="40.0728421" lon="-105.2305751">
  <ele>1586.16</ele>
  <time>2026-08-28T19:06:33Z</time>
  <course>10.43</course>
  <speed>0.01414213562373095</speed>
  <fix>3d</fix>
</trkpt>
<trkpt lat="40.072842" lon="-105.230575">
  <ele>1586.09</ele>
  <time>2026-08-28T19:06:33Z</time>
  <course>245.04</course>
  <speed>0.0</speed>
  <fix>3d</fix>
</trkpt>
<trkpt lat="40.0728421" lon="-105.2305751">
  <ele>1586.16</ele>
  <time>2026-08-28T19:06:33Z</time>
  <course>10.43</course>
  <speed>0.01414213562373095</speed>
  <fix>3d</fix>
</trkpt>
<trkpt lat="40.072842" lon="-105.230575">
  <ele>1586.09</ele>
  <time>2026-08-28T19:06:33Z</time>
  <course>245.04</course>
  <speed>0.0</speed>
  <fix>3d</fix>
</trkpt>
<trkpt lat="40.0728421" lon="-105.2305751">
  <ele>1586.16</ele>
  <time>2026-08-28T19:06:33Z</time>
  <course>10.42</course>
  <speed>0.01414213562373095</speed>
  <fix>3d</fix>
</trkpt>
<trkpt lat="40.072842" lon="-105.230575">
  <ele>1586.09</ele>
  <time>2026-08-28T19:06:33Z</time>
  <course>245.04</course>
  <speed>0.0</speed>
  <fix>3d</fix>
</trkpt>
<trkpt lat="40.0728421" lon="-105.2305751">
  <ele>1586.15</ele>
  <time>2026-08-28T19:06:33Z</time>
  <course>10.41</course>
  <speed>0.01414213562373095</speed>
  <fix>3d</fix>
</trkpt>
<trkpt lat="40.072842" lon="-105.230575">
  <ele>1586.09</ele>
  <time>2026-08-28T19:06:33Z</time>
  <course>245.04</course>
  <speed>0.0</speed>
  <fix>3d</fix>
</trkpt>
<trkpt lat="40.0728421" lon="-105.2305751">
  <ele>1586.15</ele>
  <time>2026-08-28T19:06:33Z</time>
  <course>10.41</course>
  <speed>0.01414213562373095</speed>
  <fix>3d</fix>
</trkpt>
<trkpt lat="40.072842" lon="-105.230575">
  <ele>1586.09</ele>
  <time>2026-08-28T19:06:33Z</time>
  <course>245.04</course>
  <speed>0.0</speed>
  <fix>3d</fix>
</trkpt>
<trkpt lat="40.0728421" lon="-105.2305751">
  <ele>1586.15</ele>
  <time>2026-08-28T19:06:33Z</time>
  <course>10.4</course>
  <speed>0.01414213562373095</speed>
  <fix>3d</fix>
</trkpt>
<trkpt lat="40.072842" lon="-105.230575">
  <ele>1586.09</ele>
  <time>2026-08-28T19:06:33Z</time>
  <course>245.04</course>
  <speed>0.0</speed>
  <fix>3d</fix>
</trkpt>
<trkpt lat="40.0728421" lon="-105.2305751">
  <ele>1586.15</ele>
  <time>2026-08-28T19:06:33Z</time>
  <course>10.39</course>
  <speed>0.01414213562373095</speed>
  <fix>3d</fix>
</trkpt>
<trkpt lat="40.072842" lon="-105.230575">
  <ele>1586.09</ele>
  <time>2026-08-28T19:06:33Z</time>
  <course>245.04</course>
  <speed>0.0</speed>
  <fix>3d</fix>
</trkpt>
<trkpt lat="40.0728421" lon="-105.2305751">
  <ele>1586.15</ele>
  <time>2026-08-28T19:06:33Z</time>
  <course>10.39</course>
  <speed>0.01414213562373095</speed>
  <fix>3d</fix>
</trkpt>
<trkpt lat="40.072842" lon="-105.230575">
  <ele>1586.09</ele>
  <time>2026-08-28T19:06:33Z</time>
  <course>245.04</course>
  <speed>0.0</speed>
  <fix>3d</fix>
</trkpt>
<trkpt lat="40.0728421" lon="-105.2305751">
  <ele>1586.15</ele>
  <time>2026-08-28T19:06:33Z</time>
  <course>10.38</course>
  <speed>0.01414213562373095</speed>
  <fix>3d</fix>
</trkpt>
<trkpt lat="40.072842" lon="-105.230575">
  <ele>1586.09</ele>
  <time>2026-08-28T19:06:33Z</time>
  <course>245.04</course>
  <speed>0.0</speed>
  <fix>3d</fix>
</trkpt>
<trkpt lat="40.0728421" lon="-105.2305751">
  <ele>1586.15</ele>
  <time>2026-08-28T19:06:33Z</time>
  <course>10.37</course>
  <speed>0.01414213562373095</speed>
  <fix>3d</fix>
</trkpt>
<trkpt lat="40.072842" lon="-105.230575">
  <ele>1586.09</ele>
  <time>2026-08-28T19:06:33Z</time>
  <course>245.04</course>
  <speed>0.0</speed>
  <fix>3d</fix>
</trkpt>
<trkpt lat="40.0728421" lon="-105.2305751">
  <ele>1586.16</ele>
  <time>2026-08-28T19:06:33Z</time>
  <course>10.37</course>
  <speed>0.01414213562373095</speed>
  <fix>3d</fix>
</trkpt>
<trkpt lat="40.072842" lon="-105.230575">
  <ele>1586.09</ele>
  <time>2026-08-28T19:06:33Z</time>
  <course>245.04</course>
  <speed>0.0</speed>
  <fix>3d</fix>
</trkpt>
<trkpt lat="40.0728421" lon="-105.2305751">
  <ele>1586.16</ele>
  <time>2026-08-28T19:06:33Z</time>
  <course>10.36</course>
  <speed>0.01414213562373095</speed>
  <fix>3d</fix>
</trkpt>
<trkpt lat="40.072842" lon="-105.230575">
  <ele>1586.09</ele>
  <time>2026-08-28T19:06:33Z</time>
  <course>245.04</course>
  <speed>0.0</speed>
  <fix>3d</fix>
</trkpt>
<trkpt lat="40.0728421" lon="-105.2305751">
  <ele>1586.16</ele>
  <time>2026-08-28T19:06:33Z</time>
  <course>10.35</course>
  <speed>0.01414213562373095</speed>
  <fix>3d</fix>
</trkpt>
<trkpt lat="40.072842" lon="-105.230575">
  <ele>1586.09</ele>
  <time>2026-08-28T19:06:33Z</time>
  <course>245.04</course>
  <speed>0.0</speed>
  <fix>3d</fix>
</trkpt>
<trkpt lat="40.0728421" lon="-105.2305751">
  <ele>1586.16</ele>
  <time>2026-08-28T19:06:33Z</time>
  <course>10.35</course>
  <speed>0.01414213562373095</speed>
  <fix>3d</fix>
</trkpt>
<trkpt lat="40.072842" lon="-105.230575">
  <ele>1586.09</ele>
  <time>2026-08-28T19:06:33Z</time>
  <course>245.04</course>
  <speed>0.0</speed>
  <fix>3d</fix>
</trkpt>
<trkpt lat="40.0728421" lon="-105.2305751">
  <ele>1586.16</ele>
  <time>2026-08-28T19:06:33Z</time>
  <course>10.34</course>
  <speed>0.01414213562373095</speed>
  <fix>3d</fix>
</trkpt>
<trkpt lat="40.072842" lon="-105.230575">
  <ele>1586.09</ele>
  <time>2026-08-28T19:06:33Z</time>
  <course>245.04</course>
  <speed>0.0</speed>
  <fix>3d</fix>
</trkpt>
<trkpt lat="40.0728421" lon="-105.2305751">
  <ele>1586.16</ele>
  <time>2026-08-28T19:06:33Z</time>
  <course>10.34</course>
  <speed>0.01414213562373095</speed>
  <fix>3d</fix>
</trkpt>
<trkpt lat="40.072842" lon="-105.230575">
  <ele>1586.09</ele>
  <time>2026-08-28T19:06:33Z</time>
  <course>245.04</course>
  <speed>0.0</speed>
  <fix>3d</fix>
</trkpt>
<trkpt lat="40.0728421" lon="-105.2305751">
  <ele>1586.16</ele>
  <time>2026-08-28T19:06:33Z</time>
  <course>10.33</course>
  <speed>0.01414213562373095</speed>
  <fix>3d</fix>
</trkpt>
<trkpt lat="40.072842" lon="-105.230575">
  <ele>1586.09</ele>
  <time>2026-08-28T19:06:33Z</time>
  <course>245.04</course>
  <speed>0.0</speed>
  <fix>3d</fix>
</trkpt>
<trkpt lat="40.0728421" lon="-105.2305751">
  <ele>1586.16</ele>
  <time>2026-08-28T19:06:33Z</time>
  <course>10.32</course>
  <speed>0.01414213562373095</speed>
  <fix>3d</fix>
</trkpt>
<trkpt lat="40.072842" lon="-105.230575">
  <ele>1586.09</ele>
  <time>2026-08-28T19:06:33Z</time>
  <course>245.04</course>
  <speed>0.0</speed>
  <fix>3d</fix>
</trkpt>
<trkpt lat="40.0728421" lon="-105.2305751">
  <ele>1586.16</ele>
  <time>2026-08-28T19:06:33Z</time>
  <course>10.32</course>
  <speed>0.01414213562373095</speed>
  <fix>3d</fix>
</trkpt>
<trkpt lat="40.072842" lon="-105.230575">
  <ele>1586.09</ele>
  <time>2026-08-28T19:06:33Z</time>
  <course>245.04</course>
  <speed>0.0</speed>
  <fix>3d</fix>
</trkpt>
<trkpt lat="40.0728421" lon="-105.2305751">
  <ele>1586.15</ele>
  <time>2026-08-28T19:06:33Z</time>
  <course>10.31</course>
  <speed>0.01414213562373095</speed>
  <fix>3d</fix>
</trkpt>
<trkpt lat="40.072842" lon="-105.230575">
  <ele>1586.09</ele>
  <time>2026-08-28T19:06:33Z</time>
  <course>245.04</course>
  <speed>0.0</speed>
  <fix>3d</fix>
</trkpt>
<trkpt lat="40.0728421" lon="-105.2305751">
  <ele>1586.15</ele>
  <time>2026-08-28T19:06:33Z</time>
  <course>10.3</course>
  <speed>0.01414213562373095</speed>
  <fix>3d</fix>
</trkpt>
<trkpt lat="40.072842" lon="-105.230575">
  <ele>1586.09</ele>
  <time>2026-08-28T19:06:33Z</time>
  <course>245.04</course>
  <speed>0.0</speed>
  <fix>3d</fix>
</trkpt>
<trkpt lat="40.0728421" lon="-105.2305751">
  <ele>1586.15</ele>
  <time>2026-08-28T19:06:33Z</time>
  <course>10.3</course>
  <speed>0.01414213562373095</speed>
  <fix>3d</fix>
</trkpt>
<trkpt lat="40.072842" lon="-105.230575">
  <ele>1586.09</ele>
  <time>2026-08-28T19:06:33Z</time>
  <course>245.04</course>
  <speed>0.0</speed>
  <fix>3d</fix>
</trkpt>
<trkpt lat="40.0728421" lon="-105.2305751">
  <ele>1586.15</ele>
  <time>2026-08-28T19:06:33Z</time>
  <course>10.29</course>
  <speed>0.01414213562373095</speed>
  <fix>3d</fix>
</trkpt>
<trkpt lat="40.072842" lon="-105.230575">
  <ele>1586.09</ele>
  <time>2026-08-28T19:06:33Z</time>
  <course>245.04</course>
  <speed>0.0</speed>
  <fix>3d</fix>
</trkpt>
<trkpt lat="40.0728421" lon="-105.2305751">
  <ele>1586.16</ele>
  <time>2026-08-28T19:06:33Z</time>
  <course>10.28</course>
  <speed>0.01414213562373095</speed>
  <fix>3d</fix>
</trkpt>
<trkpt lat="40.072842" lon="-105.230575">
  <ele>1586.09</ele>
  <time>2026-08-28T19:06:33Z</time>
  <course>245.04</course>
  <speed>0.0</speed>
  <fix>3d</fix>
</trkpt>
<trkpt lat="40.0728421" lon="-105.2305751">
  <ele>1586.16</ele>
  <time>2026-08-28T19:06:33Z</time>
  <course>10.28</course>
  <speed>0.01414213562373095</speed>
  <fix>3d</fix>
</trkpt>
<trkpt lat="40.072842" lon="-105.230575">
  <ele>1586.09</ele>
  <time>2026-08-28T19:06:33Z</time>
  <course>245.04</course>
  <speed>0.0</speed>
  <fix>3d</fix>
</trkpt>
<trkpt lat="40.0728421" lon="-105.2305751">
  <ele>1586.16</ele>
  <time>2026-08-28T19:06:33Z</time>
  <course>10.27</course>
  <speed>0.01414213562373095</speed>
  <fix>3d</fix>
</trkpt>
<trkpt lat="40.072842" lon="-105.230575">
  <ele>1586.09</ele>
  <time>2026-08-28T19:06:33Z</time>
  <course>245.04</course>
  <speed>0.0</speed>
  <fix>3d</fix>
</trkpt>
<trkpt lat="40.0728421" lon="-105.2305751">
  <ele>1586.17</ele>
  <time>2026-08-28T19:06:33Z</time>
  <course>10.26</course>
  <speed>0.01414213562373095</speed>
  <fix>3d</fix>
</trkpt>
<trkpt lat="40.072842" lon="-105.230575">
  <ele>1586.09</ele>
  <time>2026-08-28T19:06:33Z</time>
  <course>245.04</course>
  <speed>0.0</speed>
  <fix>3d</fix>
</trkpt>
<trkpt lat="40.0728421" lon="-105.2305751">
  <ele>1586.18</ele>
  <time>2026-08-28T19:06:33Z</time>
  <course>10.26</course>
  <speed>0.01414213562373095</speed>
  <fix>3d</fix>
</trkpt>
<trkpt lat="40.072842" lon="-105.230575">
  <ele>1586.09</ele>
  <time>2026-08-28T19:06:33Z</time>
  <course>245.04</course>
  <speed>0.0</speed>
  <fix>3d</fix>
</trkpt>
<trkpt lat="40.0728421" lon="-105.2305751">
  <ele>1586.18</ele>
  <time>2026-08-28T19:06:33Z</time>
  <course>10.25</course>
  <speed>0.01414213562373095</speed>
  <fix>3d</fix>
</trkpt>
<trkpt lat="40.072842" lon="-105.230575">
  <ele>1586.09</ele>
  <time>2026-08-28T19:06:33Z</time>
  <course>245.04</course>
  <speed>0.0</speed>
  <fix>3d</fix>
</trkpt>
<trkpt lat="40.0728421" lon="-105.2305751">
  <ele>1586.19</ele>
  <time>2026-08-28T19:06:33Z</time>
  <course>10.25</course>
  <speed>0.01414213562373095</speed>
  <fix>3d</fix>
</trkpt>
<trkpt lat="40.072842" lon="-105.230575">
  <ele>1586.09</ele>
  <time>2026-08-28T19:06:33Z</time>
  <course>245.04</course>
  <speed>0.0</speed>
  <fix>3d</fix>
</trkpt>
<trkpt lat="40.0728421" lon="-105.2305751">
  <ele>1586.19</ele>
  <time>2026-08-28T19:06:33Z</time>
  <course>10.24</course>
  <speed>0.01414213562373095</speed>
  <fix>3d</fix>
</trkpt>
<trkpt lat="40.072842" lon="-105.230575">
  <ele>1586.09</ele>
  <time>2026-08-28T19:06:33Z</time>
  <course>245.04</course>
  <speed>0.0</speed>
  <fix>3d</fix>
</trkpt>
<trkpt lat="40.0728421" lon="-105.2305751">
  <ele>1586.19</ele>
  <time>2026-08-28T19:06:33Z</time>
  <course>10.23</course>
  <speed>0.01414213562373095</speed>
  <fix>3d</fix>
</trkpt>
<trkpt lat="40.072842" lon="-105.230575">
  <ele>1586.09</ele>
  <time>2026-08-28T19:06:33Z</time>
  <course>245.04</course>
  <speed>0.0</speed>
  <fix>3d</fix>
</trkpt>
<trkpt lat="40.0728421" lon="-105.2305751">
  <ele>1586.19</ele>
  <time>2026-08-28T19:06:33Z</time>
  <course>10.23</course>
  <speed>0.01414213562373095</speed>
  <fix>3d</fix>
</trkpt>
<trkpt lat="40.072842" lon="-105.230575">
  <ele>1586.09</ele>
  <time>2026-08-28T19:06:33Z</time>
  <course>245.04</course>
  <speed>0.0</speed>
  <fix>3d</fix>
</trkpt>
<trkpt lat="40.0728421" lon="-105.2305751">
  <ele>1586.2</ele>
  <time>2026-08-28T19:06:33Z</time>
  <course>10.22</course>
  <speed>0.01414213562373095</speed>
  <fix>3d</fix>
</trkpt>
<trkpt lat="40.072842" lon="-105.230575">
  <ele>1586.09</ele>
  <time>2026-08-28T19:06:33Z</time>
  <course>245.04</course>
  <speed>0.0</speed>
  <fix>3d</fix>
</trkpt>
<trkpt lat="40.0728421" lon="-105.2305751">
  <ele>1586.2</ele>
  <time>2026-08-28T19:06:33Z</time>
  <course>10.22</course>
  <speed>0.01414213562373095</speed>
  <fix>3d</fix>
</trkpt>
<trkpt lat="40.072842" lon="-105.230575">
  <ele>1586.09</ele>
  <time>2026-08-28T19:06:33Z</time>
  <course>245.04</course>
  <speed>0.0</speed>
  <fix>3d</fix>
</trkpt>
<trkpt lat="40.0728421" lon="-105.2305751">
  <ele>1586.21</ele>
  <time>2026-08-28T19:06:33Z</time>
  <course>10.21</course>
  <speed>0.01414213562373095</speed>
  <fix>3d</fix>
</trkpt>
<trkpt lat="40.072842" lon="-105.230575">
  <ele>1586.09</ele>
  <time>2026-08-28T19:06:33Z</time>
  <course>323.73</course>
  <speed>0.0</speed>
  <fix>3d</fix>
</trkpt>
<trkpt lat="40.0728421" lon="-105.2305751">
  <ele>1586.21</ele>
  <time>2026-08-28T19:06:33Z</time>
  <course>10.2</course>
  <speed>0.01414213562373095</speed>
  <fix>3d</fix>
</trkpt>
<trkpt lat="40.072842" lon="-105.230575">
  <ele>1586.09</ele>
  <time>2026-08-28T19:06:33Z</time>
  <course>23.87</course>
  <speed>0.0</speed>
  <fix>3d</fix>
</trkpt>
<trkpt lat="40.0728421" lon="-105.2305751">
  <ele>1586.21</ele>
  <time>2026-08-28T19:06:33Z</time>
  <course>10.2</course>
  <speed>0.01414213562373095</speed>
  <fix>3d</fix>
</trkpt>
<trkpt lat="40.072842" lon="-105.230575">
  <ele>1586.09</ele>
  <time>2026-08-28T19:06:33Z</time>
  <course>6.61</course>
  <speed>0.0</speed>
  <fix>3d</fix>
</trkpt>
<trkpt lat="40.0728421" lon="-105.2305751">
  <ele>1586.2</ele>
  <time>2026-08-28T19:06:33Z</time>
  <course>10.19</course>
  <speed>0.01414213562373095</speed>
  <fix>3d</fix>
</trkpt>
<trkpt lat="40.072842" lon="-105.230575">
  <ele>1586.09</ele>
  <time>2026-08-28T19:06:33Z</time>
  <course>331.13</course>
  <speed>0.0</speed>
  <fix>3d</fix>
</trkpt>
<trkpt lat="40.0728421" lon="-105.2305751">
  <ele>1586.2</ele>
  <time>2026-08-28T19:06:33Z</time>
  <course>10.18</course>
  <speed>0.01414213562373095</speed>
  <fix>3d</fix>
</trkpt>
<trkpt lat="40.072842" lon="-105.230575">
  <ele>1586.09</ele>
  <time>2026-08-28T19:06:33Z</time>
  <course>219.86</course>
  <speed>0.0</speed>
  <fix>3d</fix>
</trkpt>
<trkpt lat="40.0728421" lon="-105.2305751">
  <ele>1586.19</ele>
  <time>2026-08-28T19:06:33Z</time>
  <course>10.18</course>
  <speed>0.01414213562373095</speed>
  <fix>3d</fix>
</trkpt>
<trkpt lat="40.072842" lon="-105.230575">
  <ele>1586.09</ele>
  <time>2026-08-28T19:06:33Z</time>
  <course>166.63</course>
  <speed>0.0</speed>
  <fix>3d</fix>
</trkpt>
<trkpt lat="40.0728421" lon="-105.2305751">
  <ele>1586.19</ele>
  <time>2026-08-28T19:06:33Z</time>
  <course>10.17</course>
  <speed>0.01414213562373095</speed>
  <fix>3d</fix>
</trkpt>
<trkpt lat="40.072842" lon="-105.230575">
  <ele>1586.09</ele>
  <time>2026-08-28T19:06:33Z</time>
  <course>321.73</course>
  <speed>0.0</speed>
  <fix>3d</fix>
</trkpt>
<trkpt lat="40.0728421" lon="-105.2305751">
  <ele>1586.2</ele>
  <time>2026-08-28T19:06:33Z</time>
  <course>10.17</course>
  <speed>0.01414213562373095</speed>
  <fix>3d</fix>
</trkpt>
<trkpt lat="40.072842" lon="-105.230575">
  <ele>1586.09</ele>
  <time>2026-08-28T19:06:33Z</time>
  <course>290.21</course>
  <speed>0.0</speed>
  <fix>3d</fix>
</trkpt>
<trkpt lat="40.0728421" lon="-105.2305751">
  <ele>1586.2</ele>
  <time>2026-08-28T19:06:33Z</time>
  <course>10.16</course>
  <speed>0.01414213562373095</speed>
  <fix>3d</fix>
</trkpt>
<trkpt lat="40.072842" lon="-105.230575">
  <ele>1586.09</ele>
  <time>2026-08-28T19:06:33Z</time>
  <course>285.41</course>
  <speed>0.0</speed>
  <fix>3d</fix>
</trkpt>
<trkpt lat="40.0728421" lon="-105.2305751">
  <ele>1586.2</ele>
  <time>2026-08-28T19:06:33Z</time>
  <course>10.15</course>
  <speed>0.01414213562373095</speed>
  <fix>3d</fix>
</trkpt>
<trkpt lat="40.072842" lon="-105.230575">
  <ele>1586.09</ele>
  <time>2026-08-28T19:06:33Z</time>
  <course>291.23</course>
  <speed>0.0</speed>
  <fix>3d</fix>
</trkpt>
<trkpt lat="40.0728421" lon="-105.2305751">
  <ele>1586.21</ele>
  <time>2026-08-28T19:06:33Z</time>
  <course>10.15</course>
  <speed>0.01414213562373095</speed>
  <fix>3d</fix>
</trkpt>
<trkpt lat="40.072842" lon="-105.230575">
  <ele>1586.09</ele>
  <time>2026-08-28T19:06:33Z</time>
  <course>291.15</course>
  <speed>0.0</speed>
  <fix>3d</fix>
</trkpt>
<trkpt lat="40.0728421" lon="-105.2305751">
  <ele>1586.21</ele>
  <time>2026-08-28T19:06:33Z</time>
  <course>10.14</course>
  <speed>0.01414213562373095</speed>
  <fix>3d</fix>
</trkpt>
<trkpt lat="40.072842" lon="-105.230575">
  <ele>1586.09</ele>
  <time>2026-08-28T19:06:33Z</time>
  <course>290.4</course>
  <speed>0.0</speed>
  <fix>3d</fix>
</trkpt>
<trkpt lat="40.0728421" lon="-105.2305751">
  <ele>1586.21</ele>
  <time>2026-08-28T19:06:33Z</time>
  <course>10.14</course>
  <speed>0.01414213562373095</speed>
  <fix>3d</fix>
</trkpt>
<trkpt lat="40.072842" lon="-105.230575">
  <ele>1586.09</ele>
  <time>2026-08-28T19:06:33Z</time>
  <course>290.5</course>
  <speed>0.0</speed>
  <fix>3d</fix>
</trkpt>
<trkpt lat="40.0728421" lon="-105.2305751">
  <ele>1586.2</ele>
  <time>2026-08-28T19:06:33Z</time>
  <course>10.13</course>
  <speed>0.01414213562373095</speed>
  <fix>3d</fix>
</trkpt>
<trkpt lat="40.072842" lon="-105.230575">
  <ele>1586.09</ele>
  <time>2026-08-28T19:06:33Z</time>
  <course>290.59</course>
  <speed>0.0</speed>
  <fix>3d</fix>
</trkpt>
<trkpt lat="40.0728421" lon="-105.2305751">
  <ele>1586.2</ele>
  <time>2026-08-28T19:06:33Z</time>
  <course>10.12</course>
  <speed>0.01414213562373095</speed>
  <fix>3d</fix>
</trkpt>
<trkpt lat="40.072842" lon="-105.230575">
  <ele>1586.09</ele>
  <time>2026-08-28T19:06:33Z</time>
  <course>290.57</course>
  <speed>0.0</speed>
  <fix>3d</fix>
</trkpt>
<trkpt lat="40.0728421" lon="-105.2305751">
  <ele>1586.2</ele>
  <time>2026-08-28T19:06:33Z</time>
  <course>10.12</course>
  <speed>0.01414213562373095</speed>
  <fix>3d</fix>
</trkpt>
<trkpt lat="40.072842" lon="-105.230575">
  <ele>1586.09</ele>
  <time>2026-08-28T19:06:33Z</time>
  <course>290.56</course>
  <speed>0.0</speed>
  <fix>3d</fix>
</trkpt>
<trkpt lat="40.0728421" lon="-105.2305751">
  <ele>1586.2</ele>
  <time>2026-08-28T19:06:33Z</time>
  <course>10.11</course>
  <speed>0.01414213562373095</speed>
  <fix>3d</fix>
</trkpt>
<trkpt lat="40.072842" lon="-105.230575">
  <ele>1586.09</ele>
  <time>2026-08-28T19:06:33Z</time>
  <course>290.56</course>
  <speed>0.0</speed>
  <fix>3d</fix>
</trkpt>
<trkpt lat="40.0728421" lon="-105.2305751">
  <ele>1586.2</ele>
  <time>2026-08-28T19:06:33Z</time>
  <course>10.11</course>
  <speed>0.01414213562373095</speed>
  <fix>3d</fix>
</trkpt>
<trkpt lat="40.072842" lon="-105.230575">
  <ele>1586.09</ele>
  <time>2026-08-28T19:06:33Z</time>
  <course>290.56</course>
  <speed>0.0</speed>
  <fix>3d</fix>
</trkpt>
<trkpt lat="40.0728421" lon="-105.2305751">
  <ele>1586.2</ele>
  <time>2026-08-28T19:06:33Z</time>
  <course>10.1</course>
  <speed>0.01414213562373095</speed>
  <fix>3d</fix>
</trkpt>
<trkpt lat="40.072842" lon="-105.230575">
  <ele>1586.09</ele>
  <time>2026-08-28T19:06:33Z</time>
  <course>290.56</course>
  <speed>0.0</speed>
  <fix>3d</fix>
</trkpt>
<trkpt lat="40.0728421" lon="-105.2305751">
  <ele>1586.2</ele>
  <time>2026-08-28T19:06:33Z</time>
  <course>10.09</course>
  <speed>0.01414213562373095</speed>
  <fix>3d</fix>
</trkpt>
<trkpt lat="40.072842" lon="-105.230575">
  <ele>1586.09</ele>
  <time>2026-08-28T19:06:33Z</time>
  <course>290.56</course>
  <speed>0.0</speed>
  <fix>3d</fix>
</trkpt>
<trkpt lat="40.0728421" lon="-105.2305751">
  <ele>1586.2</ele>
  <time>2026-08-28T19:06:33Z</time>
  <course>10.09</course>
  <speed>0.01414213562373095</speed>
  <fix>3d</fix>
</trkpt>
<trkpt lat="40.072842" lon="-105.230575">
  <ele>1586.09</ele>
  <time>2026-08-28T19:06:33Z</time>
  <course>290.56</course>
  <speed>0.0</speed>
  <fix>3d</fix>
</trkpt>
<trkpt lat="40.0728421" lon="-105.2305751">
  <ele>1586.19</ele>
  <time>2026-08-28T19:06:33Z</time>
  <course>10.08</course>
  <speed>0.01414213562373095</speed>
  <fix>3d</fix>
</trkpt>
<trkpt lat="40.072842" lon="-105.230575">
  <ele>1586.09</ele>
  <time>2026-08-28T19:06:33Z</time>
  <course>290.56</course>
  <speed>0.0</speed>
  <fix>3d</fix>
</trkpt>
<trkpt lat="40.0728421" lon="-105.2305751">
  <ele>1586.2</ele>
  <time>2026-08-28T19:06:33Z</time>
  <course>10.08</course>
  <speed>0.01414213562373095</speed>
  <fix>3d</fix>
</trkpt>
<trkpt lat="40.072842" lon="-105.230575">
  <ele>1586.09</ele>
  <time>2026-08-28T19:06:33Z</time>
  <course>290.56</course>
  <speed>0.0</speed>
  <fix>3d</fix>
</trkpt>
<trkpt lat="40.0728421" lon="-105.2305751">
  <ele>1586.2</ele>
  <time>2026-08-28T19:06:33Z</time>
  <course>10.07</course>
  <speed>0.01414213562373095</speed>
  <fix>3d</fix>
</trkpt>
<trkpt lat="40.072842" lon="-105.230575">
  <ele>1586.09</ele>
  <time>2026-08-28T19:06:33Z</time>
  <course>290.56</course>
  <speed>0.0</speed>
  <fix>3d</fix>
</trkpt>
<trkpt lat="40.0728421" lon="-105.2305751">
  <ele>1586.2</ele>
  <time>2026-08-28T19:06:33Z</time>
  <course>10.06</course>
  <speed>0.01414213562373095</speed>
  <fix>3d</fix>
</trkpt>
<trkpt lat="40.072842" lon="-105.230575">
  <ele>1586.09</ele>
  <time>2026-08-28T19:06:33Z</time>
  <course>290.56</course>
  <speed>0.0</speed>
  <fix>3d</fix>
</trkpt>
<trkpt lat="40.0728421" lon="-105.2305751">
  <ele>1586.19</ele>
  <time>2026-08-28T19:06:33Z</time>
  <course>10.06</course>
  <speed>0.01414213562373095</speed>
  <fix>3d</fix>
</trkpt>
<trkpt lat="40.072842" lon="-105.230575">
  <ele>1586.09</ele>
  <time>2026-08-28T19:06:33Z</time>
  <course>290.56</course>
  <speed>0.0</speed>
  <fix>3d</fix>
</trkpt>
<trkpt lat="40.0728421" lon="-105.2305751">
  <ele>1586.19</ele>
  <time>2026-08-28T19:06:33Z</time>
  <course>10.05</course>
  <speed>0.01414213562373095</speed>
  <fix>3d</fix>
</trkpt>
<trkpt lat="40.072842" lon="-105.230575">
  <ele>1586.09</ele>
  <time>2026-08-28T19:06:33Z</time>
  <course>290.56</course>
  <speed>0.0</speed>
  <fix>3d</fix>
</trkpt>
<trkpt lat="40.0728421" lon="-105.2305751">
  <ele>1586.19</ele>
  <time>2026-08-28T19:06:33Z</time>
  <course>10.05</course>
  <speed>0.01414213562373095</speed>
  <fix>3d</fix>
</trkpt>
<trkpt lat="40.072842" lon="-105.230575">
  <ele>1586.09</ele>
  <time>2026-08-28T19:06:33Z</time>
  <course>290.56</course>
  <speed>0.0</speed>
  <fix>3d</fix>
</trkpt>
<trkpt lat="40.0728421" lon="-105.2305751">
  <ele>1586.19</ele>
  <time>2026-08-28T19:06:33Z</time>
  <course>10.04</course>
  <speed>0.01414213562373095</speed>
  <fix>3d</fix>
</trkpt>
<trkpt lat="40.072842" lon="-105.230575">
  <ele>1586.09</ele>
  <time>2026-08-28T19:06:33Z</time>
  <course>290.56</course>
  <speed>0.0</speed>
  <fix>3d</fix>
</trkpt>
<trkpt lat="40.0728421" lon="-105.2305751">
  <ele>1586.18</ele>
  <time>2026-08-28T19:06:33Z</time>
  <course>10.03</course>
  <speed>0.01414213562373095</speed>
  <fix>3d</fix>
</trkpt>
<trkpt lat="40.072842" lon="-105.230575">
  <ele>1586.09</ele>
  <time>2026-08-28T19:06:33Z</time>
  <course>290.56</course>
  <speed>0.0</speed>
  <fix>3d</fix>
</trkpt>
<trkpt lat="40.0728421" lon="-105.2305751">
  <ele>1586.18</ele>
  <time>2026-08-28T19:06:33Z</time>
  <course>10.03</course>
  <speed>0.01414213562373095</speed>
  <fix>3d</fix>
</trkpt>
<trkpt lat="40.072842" lon="-105.230575">
  <ele>1586.09</ele>
  <time>2026-08-28T19:06:33Z</time>
  <course>290.56</course>
  <speed>0.0</speed>
  <fix>3d</fix>
</trkpt>
<trkpt lat="40.0728421" lon="-105.2305751">
  <ele>1586.18</ele>
  <time>2026-08-28T19:06:33Z</time>
  <course>10.02</course>
  <speed>0.01414213562373095</speed>
  <fix>3d</fix>
</trkpt>
<trkpt lat="40.072842" lon="-105.230575">
  <ele>1586.09</ele>
  <time>2026-08-28T19:06:33Z</time>
  <course>290.56</course>
  <speed>0.0</speed>
  <fix>3d</fix>
</trkpt>
<trkpt lat="40.0728421" lon="-105.2305751">
  <ele>1586.17</ele>
  <time>2026-08-28T19:06:33Z</time>
  <course>10.02</course>
  <speed>0.01414213562373095</speed>
  <fix>3d</fix>
</trkpt>
<trkpt lat="40.072842" lon="-105.230575">
  <ele>1586.09</ele>
  <time>2026-08-28T19:06:33Z</time>
  <course>290.56</course>
  <speed>0.0</speed>
  <fix>3d</fix>
</trkpt>
<trkpt lat="40.0728421" lon="-105.2305751">
  <ele>1586.17</ele>
  <time>2026-08-28T19:06:34Z</time>
  <course>10.01</course>
  <speed>0.01414213562373095</speed>
  <fix>3d</fix>
</trkpt>
<trkpt lat="40.072842" lon="-105.230575">
  <ele>1586.09</ele>
  <time>2026-08-28T19:06:34Z</time>
  <course>290.56</course>
  <speed>0.0</speed>
  <fix>3d</fix>
</trkpt>
<trkpt lat="40.0728421" lon="-105.2305751">
  <ele>1586.16</ele>
  <time>2026-08-28T19:06:34Z</time>
  <course>10.01</course>
  <speed>0.01414213562373095</speed>
  <fix>3d</fix>
</trkpt>
<trkpt lat="40.072842" lon="-105.230575">
  <ele>1586.09</ele>
  <time>2026-08-28T19:06:34Z</time>
  <course>290.56</course>
  <speed>0.0</speed>
  <fix>3d</fix>
</trkpt>
<trkpt lat="40.0728421" lon="-105.2305751">
  <ele>1586.16</ele>
  <time>2026-08-28T19:06:34Z</time>
  <course>10.0</course>
  <speed>0.01414213562373095</speed>
  <fix>3d</fix>
</trkpt>
<trkpt lat="40.072842" lon="-105.230575">
  <ele>1586.09</ele>
  <time>2026-08-28T19:06:34Z</time>
  <course>290.56</course>
  <speed>0.0</speed>
  <fix>3d</fix>
</trkpt>
<trkpt lat="40.0728421" lon="-105.2305751">
  <ele>1586.16</ele>
  <time>2026-08-28T19:06:34Z</time>
  <course>9.99</course>
  <speed>0.01414213562373095</speed>
  <fix>3d</fix>
</trkpt>
<trkpt lat="40.072842" lon="-105.230575">
  <ele>1586.09</ele>
  <time>2026-08-28T19:06:34Z</time>
  <course>290.56</course>
  <speed>0.0</speed>
  <fix>3d</fix>
</trkpt>
<trkpt lat="40.0728421" lon="-105.2305751">
  <ele>1586.16</ele>
  <time>2026-08-28T19:06:34Z</time>
  <course>9.99</course>
  <speed>0.01414213562373095</speed>
  <fix>3d</fix>
</trkpt>
<trkpt lat="40.072842" lon="-105.230575">
  <ele>1586.09</ele>
  <time>2026-08-28T19:06:34Z</time>
  <course>290.56</course>
  <speed>0.0</speed>
  <fix>3d</fix>
</trkpt>
<trkpt lat="40.0728421" lon="-105.2305751">
  <ele>1586.16</ele>
  <time>2026-08-28T19:06:34Z</time>
  <course>9.98</course>
  <speed>0.01414213562373095</speed>
  <fix>3d</fix>
</trkpt>
<trkpt lat="40.072842" lon="-105.230575">
  <ele>1586.09</ele>
  <time>2026-08-28T19:06:34Z</time>
  <course>290.56</course>
  <speed>0.0</speed>
  <fix>3d</fix>
</trkpt>
<trkpt lat="40.0728421" lon="-105.2305751">
  <ele>1586.15</ele>
  <time>2026-08-28T19:06:34Z</time>
  <course>9.98</course>
  <speed>0.01414213562373095</speed>
  <fix>3d</fix>
</trkpt>
<trkpt lat="40.072842" lon="-105.230575">
  <ele>1586.09</ele>
  <time>2026-08-28T19:06:34Z</time>
  <course>290.56</course>
  <speed>0.0</speed>
  <fix>3d</fix>
</trkpt>
<trkpt lat="40.0728421" lon="-105.2305751">
  <ele>1586.15</ele>
  <time>2026-08-28T19:06:34Z</time>
  <course>9.97</course>
  <speed>0.01414213562373095</speed>
  <fix>3d</fix>
</trkpt>
<trkpt lat="40.072842" lon="-105.230575">
  <ele>1586.09</ele>
  <time>2026-08-28T19:06:34Z</time>
  <course>290.56</course>
  <speed>0.0</speed>
  <fix>3d</fix>
</trkpt>
<trkpt lat="40.0728421" lon="-105.2305751">
  <ele>1586.15</ele>
  <time>2026-08-28T19:06:34Z</time>
  <course>9.97</course>
  <speed>0.01414213562373095</speed>
  <fix>3d</fix>
</trkpt>
<trkpt lat="40.072842" lon="-105.230575">
  <ele>1586.09</ele>
  <time>2026-08-28T19:06:34Z</time>
  <course>290.56</course>
  <speed>0.0</speed>
  <fix>3d</fix>
</trkpt>
<trkpt lat="40.0728421" lon="-105.2305751">
  <ele>1586.14</ele>
  <time>2026-08-28T19:06:34Z</time>
  <course>9.96</course>
  <speed>0.01414213562373095</speed>
  <fix>3d</fix>
</trkpt>
<trkpt lat="40.072842" lon="-105.230575">
  <ele>1586.09</ele>
  <time>2026-08-28T19:06:34Z</time>
  <course>290.56</course>
  <speed>0.0</speed>
  <fix>3d</fix>
</trkpt>
<trkpt lat="40.0728421" lon="-105.2305751">
  <ele>1586.15</ele>
  <time>2026-08-28T19:06:34Z</time>
  <course>9.95</course>
  <speed>0.01414213562373095</speed>
  <fix>3d</fix>
</trkpt>
<trkpt lat="40.072842" lon="-105.230575">
  <ele>1586.09</ele>
  <time>2026-08-28T19:06:34Z</time>
  <course>290.56</course>
  <speed>0.0</speed>
  <fix>3d</fix>
</trkpt>
<trkpt lat="40.0728421" lon="-105.2305751">
  <ele>1586.15</ele>
  <time>2026-08-28T19:06:34Z</time>
  <course>9.95</course>
  <speed>0.01414213562373095</speed>
  <fix>3d</fix>
</trkpt>
<trkpt lat="40.072842" lon="-105.230575">
  <ele>1586.09</ele>
  <time>2026-08-28T19:06:34Z</time>
  <course>290.56</course>
  <speed>0.0</speed>
  <fix>3d</fix>
</trkpt>
<trkpt lat="40.0728421" lon="-105.2305751">
  <ele>1586.15</ele>
  <time>2026-08-28T19:06:34Z</time>
  <course>9.94</course>
  <speed>0.01414213562373095</speed>
  <fix>3d</fix>
</trkpt>
<trkpt lat="40.072842" lon="-105.230575">
  <ele>1586.09</ele>
  <time>2026-08-28T19:06:34Z</time>
  <course>290.56</course>
  <speed>0.0</speed>
  <fix>3d</fix>
</trkpt>
<trkpt lat="40.0728421" lon="-105.2305751">
  <ele>1586.15</ele>
  <time>2026-08-28T19:06:34Z</time>
  <course>9.94</course>
  <speed>0.01414213562373095</speed>
  <fix>3d</fix>
</trkpt>
<trkpt lat="40.072842" lon="-105.230575">
  <ele>1586.09</ele>
  <time>2026-08-28T19:06:34Z</time>
  <course>290.56</course>
  <speed>0.0</speed>
  <fix>3d</fix>
</trkpt>
<trkpt lat="40.0728421" lon="-105.2305751">
  <ele>1586.15</ele>
  <time>2026-08-28T19:06:34Z</time>
  <course>9.93</course>
  <speed>0.01414213562373095</speed>
  <fix>3d</fix>
</trkpt>
<trkpt lat="40.072842" lon="-105.230575">
  <ele>1586.09</ele>
  <time>2026-08-28T19:06:34Z</time>
  <course>290.56</course>
  <speed>0.0</speed>
  <fix>3d</fix>
</trkpt>
<trkpt lat="40.0728421" lon="-105.2305751">
  <ele>1586.15</ele>
  <time>2026-08-28T19:06:34Z</time>
  <course>9.93</course>
  <speed>0.01414213562373095</speed>
  <fix>3d</fix>
</trkpt>
<trkpt lat="40.072842" lon="-105.230575">
  <ele>1586.09</ele>
  <time>2026-08-28T19:06:34Z</time>
  <course>290.56</course>
  <speed>0.0</speed>
  <fix>3d</fix>
</trkpt>
<trkpt lat="40.0728421" lon="-105.2305751">
  <ele>1586.15</ele>
  <time>2026-08-28T19:06:34Z</time>
  <course>9.92</course>
  <speed>0.01414213562373095</speed>
  <fix>3d</fix>
</trkpt>
<trkpt lat="40.072842" lon="-105.230575">
  <ele>1586.09</ele>
  <time>2026-08-28T19:06:34Z</time>
  <course>290.56</course>
  <speed>0.0</speed>
  <fix>3d</fix>
</trkpt>
<trkpt lat="40.0728421" lon="-105.2305751">
  <ele>1586.16</ele>
  <time>2026-08-28T19:06:34Z</time>
  <course>9.91</course>
  <speed>0.01414213562373095</speed>
  <fix>3d</fix>
</trkpt>
<trkpt lat="40.072842" lon="-105.230575">
  <ele>1586.09</ele>
  <time>2026-08-28T19:06:34Z</time>
  <course>290.56</course>
  <speed>0.0</speed>
  <fix>3d</fix>
</trkpt>
<trkpt lat="40.0728421" lon="-105.2305751">
  <ele>1586.16</ele>
  <time>2026-08-28T19:06:34Z</time>
  <course>9.91</course>
  <speed>0.01414213562373095</speed>
  <fix>3d</fix>
</trkpt>
<trkpt lat="40.072842" lon="-105.230575">
  <ele>1586.09</ele>
  <time>2026-08-28T19:06:34Z</time>
  <course>290.56</course>
  <speed>0.0</speed>
  <fix>3d</fix>
</trkpt>
<trkpt lat="40.0728421" lon="-105.2305751">
  <ele>1586.17</ele>
  <time>2026-08-28T19:06:34Z</time>
  <course>9.9</course>
  <speed>0.01414213562373095</speed>
  <fix>3d</fix>
</trkpt>
<trkpt lat="40.072842" lon="-105.230575">
  <ele>1586.09</ele>
  <time>2026-08-28T19:06:34Z</time>
  <course>290.56</course>
  <speed>0.0</speed>
  <fix>3d</fix>
</trkpt>
<trkpt lat="40.0728421" lon="-105.2305751">
  <ele>1586.17</ele>
  <time>2026-08-28T19:06:34Z</time>
  <course>9.9</course>
  <speed>0.01414213562373095</speed>
  <fix>3d</fix>
</trkpt>
<trkpt lat="40.072842" lon="-105.230575">
  <ele>1586.09</ele>
  <time>2026-08-28T19:06:34Z</time>
  <course>290.56</course>
  <speed>0.0</speed>
  <fix>3d</fix>
</trkpt>
<trkpt lat="40.0728421" lon="-105.2305751">
  <ele>1586.18</ele>
  <time>2026-08-28T19:06:34Z</time>
  <course>9.89</course>
  <speed>0.01414213562373095</speed>
  <fix>3d</fix>
</trkpt>
<trkpt lat="40.072842" lon="-105.230575">
  <ele>1586.09</ele>
  <time>2026-08-28T19:06:34Z</time>
  <course>290.56</course>
  <speed>0.0</speed>
  <fix>3d</fix>
</trkpt>
<trkpt lat="40.0728421" lon="-105.2305751">
  <ele>1586.18</ele>
  <time>2026-08-28T19:06:34Z</time>
  <course>9.89</course>
  <speed>0.01414213562373095</speed>
  <fix>3d</fix>
</trkpt>
<trkpt lat="40.072842" lon="-105.230575">
  <ele>1586.09</ele>
  <time>2026-08-28T19:06:34Z</time>
  <course>290.56</course>
  <speed>0.0</speed>
  <fix>3d</fix>
</trkpt>
<trkpt lat="40.0728421" lon="-105.2305751">
  <ele>1586.18</ele>
  <time>2026-08-28T19:06:34Z</time>
  <course>9.88</course>
  <speed>0.01414213562373095</speed>
  <fix>3d</fix>
</trkpt>
<trkpt lat="40.072842" lon="-105.230575">
  <ele>1586.09</ele>
  <time>2026-08-28T19:06:34Z</time>
  <course>290.56</course>
  <speed>0.0</speed>
  <fix>3d</fix>
</trkpt>
<trkpt lat="40.0728421" lon="-105.2305751">
  <ele>1586.18</ele>
  <time>2026-08-28T19:06:34Z</time>
  <course>9.88</course>
  <speed>0.01414213562373095</speed>
  <fix>3d</fix>
</trkpt>
<trkpt lat="40.072842" lon="-105.230575">
  <ele>1586.09</ele>
  <time>2026-08-28T19:06:34Z</time>
  <course>290.56</course>
  <speed>0.0</speed>
  <fix>3d</fix>
</trkpt>
<trkpt lat="40.0728421" lon="-105.2305751">
  <ele>1586.18</ele>
  <time>2026-08-28T19:06:34Z</time>
  <course>9.87</course>
  <speed>0.01414213562373095</speed>
  <fix>3d</fix>
</trkpt>
<trkpt lat="40.072842" lon="-105.230575">
  <ele>1586.09</ele>
  <time>2026-08-28T19:06:34Z</time>
  <course>290.56</course>
  <speed>0.0</speed>
  <fix>3d</fix>
</trkpt>
<trkpt lat="40.0728421" lon="-105.2305751">
  <ele>1586.17</ele>
  <time>2026-08-28T19:06:34Z</time>
  <course>9.87</course>
  <speed>0.01414213562373095</speed>
  <fix>3d</fix>
</trkpt>
<trkpt lat="40.072842" lon="-105.230575">
  <ele>1586.09</ele>
  <time>2026-08-28T19:06:34Z</time>
  <course>290.56</course>
  <speed>0.0</speed>
  <fix>3d</fix>
</trkpt>
<trkpt lat="40.0728421" lon="-105.2305751">
  <ele>1586.17</ele>
  <time>2026-08-28T19:06:34Z</time>
  <course>9.86</course>
  <speed>0.01414213562373095</speed>
  <fix>3d</fix>
</trkpt>
<trkpt lat="40.072842" lon="-105.230575">
  <ele>1586.09</ele>
  <time>2026-08-28T19:06:34Z</time>
  <course>290.56</course>
  <speed>0.0</speed>
  <fix>3d</fix>
</trkpt>
<trkpt lat="40.0728421" lon="-105.2305751">
  <ele>1586.17</ele>
  <time>2026-08-28T19:06:34Z</time>
  <course>9.85</course>
  <speed>0.01414213562373095</speed>
  <fix>3d</fix>
</trkpt>
<trkpt lat="40.072842" lon="-105.230575">
  <ele>1586.09</ele>
  <time>2026-08-28T19:06:34Z</time>
  <course>290.56</course>
  <speed>0.0</speed>
  <fix>3d</fix>
</trkpt>
<trkpt lat="40.0728421" lon="-105.2305751">
  <ele>1586.17</ele>
  <time>2026-08-28T19:06:34Z</time>
  <course>9.85</course>
  <speed>0.01414213562373095</speed>
  <fix>3d</fix>
</trkpt>
<trkpt lat="40.072842" lon="-105.230575">
  <ele>1586.09</ele>
  <time>2026-08-28T19:06:34Z</time>
  <course>290.56</course>
  <speed>0.0</speed>
  <fix>3d</fix>
</trkpt>
<trkpt lat="40.0728421" lon="-105.2305751">
  <ele>1586.17</ele>
  <time>2026-08-28T19:06:34Z</time>
  <course>9.84</course>
  <speed>0.01414213562373095</speed>
  <fix>3d</fix>
</trkpt>
<trkpt lat="40.072842" lon="-105.230575">
  <ele>1586.09</ele>
  <time>2026-08-28T19:06:34Z</time>
  <course>290.56</course>
  <speed>0.0</speed>
  <fix>3d</fix>
</trkpt>
<trkpt lat="40.0728421" lon="-105.2305751">
  <ele>1586.17</ele>
  <time>2026-08-28T19:06:34Z</time>
  <course>9.84</course>
  <speed>0.01414213562373095</speed>
  <fix>3d</fix>
</trkpt>
<trkpt lat="40.072842" lon="-105.230575">
  <ele>1586.09</ele>
  <time>2026-08-28T19:06:34Z</time>
  <course>290.56</course>
  <speed>0.0</speed>
  <fix>3d</fix>
</trkpt>
<trkpt lat="40.0728421" lon="-105.2305751">
  <ele>1586.17</ele>
  <time>2026-08-28T19:06:34Z</time>
  <course>9.83</course>
  <speed>0.01414213562373095</speed>
  <fix>3d</fix>
</trkpt>
<trkpt lat="40.072842" lon="-105.230575">
  <ele>1586.09</ele>
  <time>2026-08-28T19:06:34Z</time>
  <course>290.56</course>
  <speed>0.0</speed>
  <fix>3d</fix>
</trkpt>
<trkpt lat="40.0728421" lon="-105.2305751">
  <ele>1586.17</ele>
  <time>2026-08-28T19:06:34Z</time>
  <course>9.83</course>
  <speed>0.01414213562373095</speed>
  <fix>3d</fix>
</trkpt>
<trkpt lat="40.072842" lon="-105.230575">
  <ele>1586.09</ele>
  <time>2026-08-28T19:06:34Z</time>
  <course>290.56</course>
  <speed>0.0</speed>
  <fix>3d</fix>
</trkpt>
<trkpt lat="40.0728421" lon="-105.2305751">
  <ele>1586.17</ele>
  <time>2026-08-28T19:06:34Z</time>
  <course>9.82</course>
  <speed>0.01414213562373095</speed>
  <fix>3d</fix>
</trkpt>
<trkpt lat="40.072842" lon="-105.230575">
  <ele>1586.09</ele>
  <time>2026-08-28T19:06:34Z</time>
  <course>290.56</course>
  <speed>0.0</speed>
  <fix>3d</fix>
</trkpt>
<trkpt lat="40.0728421" lon="-105.2305751">
  <ele>1586.17</ele>
  <time>2026-08-28T19:06:34Z</time>
  <course>9.82</course>
  <speed>0.01414213562373095</speed>
  <fix>3d</fix>
</trkpt>
<trkpt lat="40.072842" lon="-105.230575">
  <ele>1586.09</ele>
  <time>2026-08-28T19:06:34Z</time>
  <course>290.56</course>
  <speed>0.0</speed>
  <fix>3d</fix>
</trkpt>
<trkpt lat="40.0728421" lon="-105.2305751">
  <ele>1586.17</ele>
  <time>2026-08-28T19:06:34Z</time>
  <course>9.81</course>
  <speed>0.01414213562373095</speed>
  <fix>3d</fix>
</trkpt>
<trkpt lat="40.072842" lon="-105.230575">
  <ele>1586.09</ele>
  <time>2026-08-28T19:06:34Z</time>
  <course>290.56</course>
  <speed>0.0</speed>
  <fix>3d</fix>
</trkpt>
<trkpt lat="40.0728421" lon="-105.2305751">
  <ele>1586.18</ele>
  <time>2026-08-28T19:06:34Z</time>
  <course>9.81</course>
  <speed>0.01414213562373095</speed>
  <fix>3d</fix>
</trkpt>
<trkpt lat="40.072842" lon="-105.230575">
  <ele>1586.09</ele>
  <time>2026-08-28T19:06:34Z</time>
  <course>290.56</course>
  <speed>0.0</speed>
  <fix>3d</fix>
</trkpt>
<trkpt lat="40.0728421" lon="-105.2305751">
  <ele>1586.17</ele>
  <time>2026-08-28T19:06:34Z</time>
  <course>9.8</course>
  <speed>0.01414213562373095</speed>
  <fix>3d</fix>
</trkpt>
<trkpt lat="40.072842" lon="-105.230575">
  <ele>1586.09</ele>
  <time>2026-08-28T19:06:34Z</time>
  <course>290.56</course>
  <speed>0.0</speed>
  <fix>3d</fix>
</trkpt>
<trkpt lat="40.0728421" lon="-105.2305751">
  <ele>1586.17</ele>
  <time>2026-08-28T19:06:34Z</time>
  <course>9.8</course>
  <speed>0.01414213562373095</speed>
  <fix>3d</fix>
</trkpt>
<trkpt lat="40.072842" lon="-105.230575">
  <ele>1586.09</ele>
  <time>2026-08-28T19:06:34Z</time>
  <course>290.56</course>
  <speed>0.0</speed>
  <fix>3d</fix>
</trkpt>
<trkpt lat="40.0728421" lon="-105.2305751">
  <ele>1586.17</ele>
  <time>2026-08-28T19:06:34Z</time>
  <course>9.79</course>
  <speed>0.01414213562373095</speed>
  <fix>3d</fix>
</trkpt>
<trkpt lat="40.072842" lon="-105.230575">
  <ele>1586.09</ele>
  <time>2026-08-28T19:06:34Z</time>
  <course>290.56</course>
  <speed>0.0</speed>
  <fix>3d</fix>
</trkpt>
<trkpt lat="40.0728421" lon="-105.2305751">
  <ele>1586.17</ele>
  <time>2026-08-28T19:06:34Z</time>
  <course>9.79</course>
  <speed>0.01414213562373095</speed>
  <fix>3d</fix>
</trkpt>
<trkpt lat="40.072842" lon="-105.230575">
  <ele>1586.09</ele>
  <time>2026-08-28T19:06:34Z</time>
  <course>290.56</course>
  <speed>0.0</speed>
  <fix>3d</fix>
</trkpt>
<trkpt lat="40.0728421" lon="-105.2305751">
  <ele>1586.17</ele>
  <time>2026-08-28T19:06:34Z</time>
  <course>9.78</course>
  <speed>0.01414213562373095</speed>
  <fix>3d</fix>
</trkpt>
<trkpt lat="40.072842" lon="-105.230575">
  <ele>1586.09</ele>
  <time>2026-08-28T19:06:34Z</time>
  <course>290.56</course>
  <speed>0.0</speed>
  <fix>3d</fix>
</trkpt>
<trkpt lat="40.0728421" lon="-105.2305751">
  <ele>1586.17</ele>
  <time>2026-08-28T19:06:34Z</time>
  <course>9.78</course>
  <speed>0.01414213562373095</speed>
  <fix>3d</fix>
</trkpt>
<trkpt lat="40.072842" lon="-105.230575">
  <ele>1586.09</ele>
  <time>2026-08-28T19:06:34Z</time>
  <course>290.56</course>
  <speed>0.0</speed>
  <fix>3d</fix>
</trkpt>
<trkpt lat="40.0728421" lon="-105.2305751">
  <ele>1586.17</ele>
  <time>2026-08-28T19:06:34Z</time>
  <course>9.77</course>
  <speed>0.01414213562373095</speed>
  <fix>3d</fix>
</trkpt>
<trkpt lat="40.072842" lon="-105.230575">
  <ele>1586.09</ele>
  <time>2026-08-28T19:06:34Z</time>
  <course>290.56</course>
  <speed>0.0</speed>
  <fix>3d</fix>
</trkpt>
<trkpt lat="40.0728421" lon="-105.2305751">
  <ele>1586.16</ele>
  <time>2026-08-28T19:06:34Z</time>
  <course>9.77</course>
  <speed>0.01414213562373095</speed>
  <fix>3d</fix>
</trkpt>
<trkpt lat="40.072842" lon="-105.230575">
  <ele>1586.09</ele>
  <time>2026-08-28T19:06:34Z</time>
  <course>290.56</course>
  <speed>0.0</speed>
  <fix>3d</fix>
</trkpt>
<trkpt lat="40.0728421" lon="-105.2305751">
  <ele>1586.16</ele>
  <time>2026-08-28T19:06:34Z</time>
  <course>9.76</course>
  <speed>0.01414213562373095</speed>
  <fix>3d</fix>
</trkpt>
<trkpt lat="40.072842" lon="-105.230575">
  <ele>1586.09</ele>
  <time>2026-08-28T19:06:34Z</time>
  <course>290.56</course>
  <speed>0.0</speed>
  <fix>3d</fix>
</trkpt>
<trkpt lat="40.0728421" lon="-105.2305751">
  <ele>1586.16</ele>
  <time>2026-08-28T19:06:34Z</time>
  <course>9.76</course>
  <speed>0.01414213562373095</speed>
  <fix>3d</fix>
</trkpt>
<trkpt lat="40.072842" lon="-105.230575">
  <ele>1586.09</ele>
  <time>2026-08-28T19:06:34Z</time>
  <course>290.56</course>
  <speed>0.0</speed>
  <fix>3d</fix>
</trkpt>
<trkpt lat="40.0728421" lon="-105.2305751">
  <ele>1586.15</ele>
  <time>2026-08-28T19:06:34Z</time>
  <course>9.75</course>
  <speed>0.01414213562373095</speed>
  <fix>3d</fix>
</trkpt>
<trkpt lat="40.072842" lon="-105.230575">
  <ele>1586.09</ele>
  <time>2026-08-28T19:06:34Z</time>
  <course>290.56</course>
  <speed>0.0</speed>
  <fix>3d</fix>
</trkpt>
<trkpt lat="40.0728421" lon="-105.2305751">
  <ele>1586.16</ele>
  <time>2026-08-28T19:06:34Z</time>
  <course>9.75</course>
  <speed>0.01414213562373095</speed>
  <fix>3d</fix>
</trkpt>
<trkpt lat="40.072842" lon="-105.230575">
  <ele>1586.09</ele>
  <time>2026-08-28T19:06:34Z</time>
  <course>290.56</course>
  <speed>0.0</speed>
  <fix>3d</fix>
</trkpt>
<trkpt lat="40.0728421" lon="-105.2305751">
  <ele>1586.16</ele>
  <time>2026-08-28T19:06:34Z</time>
  <course>9.74</course>
  <speed>0.01414213562373095</speed>
  <fix>3d</fix>
</trkpt>
<trkpt lat="40.072842" lon="-105.230575">
  <ele>1586.09</ele>
  <time>2026-08-28T19:06:34Z</time>
  <course>290.56</course>
  <speed>0.0</speed>
  <fix>3d</fix>
</trkpt>
<trkpt lat="40.0728421" lon="-105.2305751">
  <ele>1586.16</ele>
  <time>2026-08-28T19:06:34Z</time>
  <course>9.74</course>
  <speed>0.01414213562373095</speed>
  <fix>3d</fix>
</trkpt>
<trkpt lat="40.072842" lon="-105.230575">
  <ele>1586.09</ele>
  <time>2026-08-28T19:06:34Z</time>
  <course>290.56</course>
  <speed>0.0</speed>
  <fix>3d</fix>
</trkpt>
<trkpt lat="40.0728421" lon="-105.2305751">
  <ele>1586.16</ele>
  <time>2026-08-28T19:06:34Z</time>
  <course>9.73</course>
  <speed>0.01414213562373095</speed>
  <fix>3d</fix>
</trkpt>
<trkpt lat="40.072842" lon="-105.230575">
  <ele>1586.09</ele>
  <time>2026-08-28T19:06:34Z</time>
  <course>290.56</course>
  <speed>0.0</speed>
  <fix>3d</fix>
</trkpt>
<trkpt lat="40.0728421" lon="-105.2305751">
  <ele>1586.16</ele>
  <time>2026-08-28T19:06:34Z</time>
  <course>9.73</course>
  <speed>0.01414213562373095</speed>
  <fix>3d</fix>
</trkpt>
<trkpt lat="40.072842" lon="-105.230575">
  <ele>1586.09</ele>
  <time>2026-08-28T19:06:34Z</time>
  <course>290.56</course>
  <speed>0.0</speed>
  <fix>3d</fix>
</trkpt>
<trkpt lat="40.0728421" lon="-105.2305751">
  <ele>1586.17</ele>
  <time>2026-08-28T19:06:34Z</time>
  <course>9.72</course>
  <speed>0.01414213562373095</speed>
  <fix>3d</fix>
</trkpt>
<trkpt lat="40.072842" lon="-105.230575">
  <ele>1586.09</ele>
  <time>2026-08-28T19:06:34Z</time>
  <course>290.56</course>
  <speed>0.0</speed>
  <fix>3d</fix>
</trkpt>
<trkpt lat="40.0728421" lon="-105.2305751">
  <ele>1586.17</ele>
  <time>2026-08-28T19:06:34Z</time>
  <course>9.72</course>
  <speed>0.01414213562373095</speed>
  <fix>3d</fix>
</trkpt>
<trkpt lat="40.072842" lon="-105.230575">
  <ele>1586.09</ele>
  <time>2026-08-28T19:06:34Z</time>
  <course>290.56</course>
  <speed>0.0</speed>
  <fix>3d</fix>
</trkpt>
<trkpt lat="40.0728421" lon="-105.2305751">
  <ele>1586.17</ele>
  <time>2026-08-28T19:06:34Z</time>
  <course>9.71</course>
  <speed>0.01414213562373095</speed>
  <fix>3d</fix>
</trkpt>
<trkpt lat="40.072842" lon="-105.230575">
  <ele>1586.09</ele>
  <time>2026-08-28T19:06:34Z</time>
  <course>290.56</course>
  <speed>0.0</speed>
  <fix>3d</fix>
</trkpt>
<trkpt lat="40.0728421" lon="-105.2305751">
  <ele>1586.16</ele>
  <time>2026-08-28T19:06:34Z</time>
  <course>9.71</course>
  <speed>0.01414213562373095</speed>
  <fix>3d</fix>
</trkpt>
<trkpt lat="40.072842" lon="-105.230575">
  <ele>1586.09</ele>
  <time>2026-08-28T19:06:34Z</time>
  <course>290.56</course>
  <speed>0.0</speed>
  <fix>3d</fix>
</trkpt>
<trkpt lat="40.0728421" lon="-105.2305751">
  <ele>1586.17</ele>
  <time>2026-08-28T19:06:34Z</time>
  <course>9.7</course>
  <speed>0.01414213562373095</speed>
  <fix>3d</fix>
</trkpt>
<trkpt lat="40.072842" lon="-105.230575">
  <ele>1586.09</ele>
  <time>2026-08-28T19:06:34Z</time>
  <course>290.56</course>
  <speed>0.0</speed>
  <fix>3d</fix>
</trkpt>
<trkpt lat="40.0728421" lon="-105.2305751">
  <ele>1586.16</ele>
  <time>2026-08-28T19:06:34Z</time>
  <course>9.7</course>
  <speed>0.01414213562373095</speed>
  <fix>3d</fix>
</trkpt>
<trkpt lat="40.072842" lon="-105.230575">
  <ele>1586.09</ele>
  <time>2026-08-28T19:06:34Z</time>
  <course>290.56</course>
  <speed>0.0</speed>
  <fix>3d</fix>
</trkpt>
<trkpt lat="40.0728421" lon="-105.2305751">
  <ele>1586.16</ele>
  <time>2026-08-28T19:06:34Z</time>
  <course>9.69</course>
  <speed>0.01414213562373095</speed>
  <fix>3d</fix>
</trkpt>
<trkpt lat="40.072842" lon="-105.230575">
  <ele>1586.09</ele>
  <time>2026-08-28T19:06:34Z</time>
  <course>290.56</course>
  <speed>0.0</speed>
  <fix>3d</fix>
</trkpt>
<trkpt lat="40.0728421" lon="-105.2305751">
  <ele>1586.16</ele>
  <time>2026-08-28T19:06:34Z</time>
  <course>9.69</course>
  <speed>0.01414213562373095</speed>
  <fix>3d</fix>
</trkpt>
<trkpt lat="40.072842" lon="-105.230575">
  <ele>1586.09</ele>
  <time>2026-08-28T19:06:34Z</time>
  <course>290.56</course>
  <speed>0.0</speed>
  <fix>3d</fix>
</trkpt>
<trkpt lat="40.0728421" lon="-105.2305751">
  <ele>1586.16</ele>
  <time>2026-08-28T19:06:34Z</time>
  <course>9.68</course>
  <speed>0.01414213562373095</speed>
  <fix>3d</fix>
</trkpt>
<trkpt lat="40.072842" lon="-105.230575">
  <ele>1586.09</ele>
  <time>2026-08-28T19:06:34Z</time>
  <course>290.56</course>
  <speed>0.0</speed>
  <fix>3d</fix>
</trkpt>
<trkpt lat="40.0728421" lon="-105.2305751">
  <ele>1586.16</ele>
  <time>2026-08-28T19:06:34Z</time>
  <course>9.68</course>
  <speed>0.01414213562373095</speed>
  <fix>3d</fix>
</trkpt>
<trkpt lat="40.072842" lon="-105.230575">
  <ele>1586.09</ele>
  <time>2026-08-28T19:06:34Z</time>
  <course>290.56</course>
  <speed>0.0</speed>
  <fix>3d</fix>
</trkpt>
<trkpt lat="40.0728421" lon="-105.2305751">
  <ele>1586.16</ele>
  <time>2026-08-28T19:06:34Z</time>
  <course>9.67</course>
  <speed>0.01414213562373095</speed>
  <fix>3d</fix>
</trkpt>
<trkpt lat="40.072842" lon="-105.230575">
  <ele>1586.09</ele>
  <time>2026-08-28T19:06:34Z</time>
  <course>290.56</course>
  <speed>0.0</speed>
  <fix>3d</fix>
</trkpt>
<trkpt lat="40.0728421" lon="-105.2305751">
  <ele>1586.16</ele>
  <time>2026-08-28T19:06:34Z</time>
  <course>9.67</course>
  <speed>0.01414213562373095</speed>
  <fix>3d</fix>
</trkpt>
<trkpt lat="40.072842" lon="-105.230575">
  <ele>1586.09</ele>
  <time>2026-08-28T19:06:34Z</time>
  <course>290.56</course>
  <speed>0.0</speed>
  <fix>3d</fix>
</trkpt>
<trkpt lat="40.0728421" lon="-105.2305751">
  <ele>1586.16</ele>
  <time>2026-08-28T19:06:34Z</time>
  <course>9.66</course>
  <speed>0.01414213562373095</speed>
  <fix>3d</fix>
</trkpt>
<trkpt lat="40.072842" lon="-105.230575">
  <ele>1586.09</ele>
  <time>2026-08-28T19:06:34Z</time>
  <course>290.56</course>
  <speed>0.0</speed>
  <fix>3d</fix>
</trkpt>
<trkpt lat="40.0728421" lon="-105.2305751">
  <ele>1586.16</ele>
  <time>2026-08-28T19:06:34Z</time>
  <course>9.66</course>
  <speed>0.01414213562373095</speed>
  <fix>3d</fix>
</trkpt>
<trkpt lat="40.072842" lon="-105.230575">
  <ele>1586.09</ele>
  <time>2026-08-28T19:06:34Z</time>
  <course>290.56</course>
  <speed>0.0</speed>
  <fix>3d</fix>
</trkpt>
<trkpt lat="40.0728421" lon="-105.2305751">
  <ele>1586.16</ele>
  <time>2026-08-28T19:06:34Z</time>
  <course>9.65</course>
  <speed>0.01414213562373095</speed>
  <fix>3d</fix>
</trkpt>
<trkpt lat="40.072842" lon="-105.230575">
  <ele>1586.09</ele>
  <time>2026-08-28T19:06:34Z</time>
  <course>290.56</course>
  <speed>0.0</speed>
  <fix>3d</fix>
</trkpt>
<trkpt lat="40.0728421" lon="-105.2305751">
  <ele>1586.16</ele>
  <time>2026-08-28T19:06:34Z</time>
  <course>9.65</course>
  <speed>0.01414213562373095</speed>
  <fix>3d</fix>
</trkpt>
<trkpt lat="40.072842" lon="-105.230575">
  <ele>1586.09</ele>
  <time>2026-08-28T19:06:34Z</time>
  <course>290.56</course>
  <speed>0.0</speed>
  <fix>3d</fix>
</trkpt>
<trkpt lat="40.0728421" lon="-105.2305751">
  <ele>1586.16</ele>
  <time>2026-08-28T19:06:34Z</time>
  <course>9.64</course>
  <speed>0.01414213562373095</speed>
  <fix>3d</fix>
</trkpt>
<trkpt lat="40.072842" lon="-105.230575">
  <ele>1586.09</ele>
  <time>2026-08-28T19:06:34Z</time>
  <course>290.56</course>
  <speed>0.0</speed>
  <fix>3d</fix>
</trkpt>
<trkpt lat="40.0728421" lon="-105.2305751">
  <ele>1586.16</ele>
  <time>2026-08-28T19:06:34Z</time>
  <course>9.64</course>
  <speed>0.01414213562373095</speed>
  <fix>3d</fix>
</trkpt>
<trkpt lat="40.072842" lon="-105.230575">
  <ele>1586.09</ele>
  <time>2026-08-28T19:06:34Z</time>
  <course>290.56</course>
  <speed>0.0</speed>
  <fix>3d</fix>
</trkpt>
<trkpt lat="40.0728421" lon="-105.2305751">
  <ele>1586.17</ele>
  <time>2026-08-28T19:06:34Z</time>
  <course>9.63</course>
  <speed>0.01414213562373095</speed>
  <fix>3d</fix>
</trkpt>
<trkpt lat="40.072842" lon="-105.230575">
  <ele>1586.09</ele>
  <time>2026-08-28T19:06:34Z</time>
  <course>290.56</course>
  <speed>0.0</speed>
  <fix>3d</fix>
</trkpt>
<trkpt lat="40.0728421" lon="-105.2305751">
  <ele>1586.17</ele>
  <time>2026-08-28T19:06:34Z</time>
  <course>9.63</course>
  <speed>0.01414213562373095</speed>
  <fix>3d</fix>
</trkpt>
<trkpt lat="40.072842" lon="-105.230575">
  <ele>1586.09</ele>
  <time>2026-08-28T19:06:34Z</time>
  <course>290.56</course>
  <speed>0.0</speed>
  <fix>3d</fix>
</trkpt>
<trkpt lat="40.0728421" lon="-105.2305751">
  <ele>1586.17</ele>
  <time>2026-08-28T19:06:34Z</time>
  <course>9.62</course>
  <speed>0.01414213562373095</speed>
  <fix>3d</fix>
</trkpt>
<trkpt lat="40.072842" lon="-105.230575">
  <ele>1586.09</ele>
  <time>2026-08-28T19:06:34Z</time>
  <course>290.56</course>
  <speed>0.0</speed>
  <fix>3d</fix>
</trkpt>
<trkpt lat="40.0728421" lon="-105.2305751">
  <ele>1586.17</ele>
  <time>2026-08-28T19:06:34Z</time>
  <course>9.62</course>
  <speed>0.01414213562373095</speed>
  <fix>3d</fix>
</trkpt>
<trkpt lat="40.072842" lon="-105.230575">
  <ele>1586.09</ele>
  <time>2026-08-28T19:06:34Z</time>
  <course>290.56</course>
  <speed>0.0</speed>
  <fix>3d</fix>
</trkpt>
<trkpt lat="40.0728421" lon="-105.2305751">
  <ele>1586.17</ele>
  <time>2026-08-28T19:06:34Z</time>
  <course>9.61</course>
  <speed>0.01414213562373095</speed>
  <fix>3d</fix>
</trkpt>
<trkpt lat="40.072842" lon="-105.230575">
  <ele>1586.09</ele>
  <time>2026-08-28T19:06:34Z</time>
  <course>290.56</course>
  <speed>0.0</speed>
  <fix>3d</fix>
</trkpt>
<trkpt lat="40.0728421" lon="-105.2305751">
  <ele>1586.17</ele>
  <time>2026-08-28T19:06:34Z</time>
  <course>9.61</course>
  <speed>0.01414213562373095</speed>
  <fix>3d</fix>
</trkpt>
<trkpt lat="40.072842" lon="-105.230575">
  <ele>1586.09</ele>
  <time>2026-08-28T19:06:34Z</time>
  <course>290.56</course>
  <speed>0.0</speed>
  <fix>3d</fix>
</trkpt>
<trkpt lat="40.0728421" lon="-105.2305751">
  <ele>1586.17</ele>
  <time>2026-08-28T19:06:34Z</time>
  <course>9.6</course>
  <speed>0.01414213562373095</speed>
  <fix>3d</fix>
</trkpt>
<trkpt lat="40.072842" lon="-105.230575">
  <ele>1586.09</ele>
  <time>2026-08-28T19:06:34Z</time>
  <course>290.56</course>
  <speed>0.0</speed>
  <fix>3d</fix>
</trkpt>
<trkpt lat="40.0728421" lon="-105.2305751">
  <ele>1586.17</ele>
  <time>2026-08-28T19:06:34Z</time>
  <course>9.6</course>
  <speed>0.01414213562373095</speed>
  <fix>3d</fix>
</trkpt>
<trkpt lat="40.072842" lon="-105.230575">
  <ele>1586.09</ele>
  <time>2026-08-28T19:06:34Z</time>
  <course>290.56</course>
  <speed>0.0</speed>
  <fix>3d</fix>
</trkpt>
<trkpt lat="40.0728421" lon="-105.2305751">
  <ele>1586.17</ele>
  <time>2026-08-28T19:06:34Z</time>
  <course>9.6</course>
  <speed>0.01414213562373095</speed>
  <fix>3d</fix>
</trkpt>
<trkpt lat="40.072842" lon="-105.230575">
  <ele>1586.09</ele>
  <time>2026-08-28T19:06:34Z</time>
  <course>290.56</course>
  <speed>0.0</speed>
  <fix>3d</fix>
</trkpt>
<trkpt lat="40.0728421" lon="-105.2305751">
  <ele>1586.17</ele>
  <time>2026-08-28T19:06:34Z</time>
  <course>9.59</course>
  <speed>0.01414213562373095</speed>
  <fix>3d</fix>
</trkpt>
<trkpt lat="40.072842" lon="-105.230575">
  <ele>1586.09</ele>
  <time>2026-08-28T19:06:34Z</time>
  <course>290.56</course>
  <speed>0.0</speed>
  <fix>3d</fix>
</trkpt>
<trkpt lat="40.0728421" lon="-105.2305751">
  <ele>1586.17</ele>
  <time>2026-08-28T19:06:34Z</time>
  <course>9.59</course>
  <speed>0.01414213562373095</speed>
  <fix>3d</fix>
</trkpt>
<trkpt lat="40.072842" lon="-105.230575">
  <ele>1586.09</ele>
  <time>2026-08-28T19:06:34Z</time>
  <course>290.56</course>
  <speed>0.0</speed>
  <fix>3d</fix>
</trkpt>
<trkpt lat="40.0728421" lon="-105.2305751">
  <ele>1586.16</ele>
  <time>2026-08-28T19:06:34Z</time>
  <course>9.58</course>
  <speed>0.01414213562373095</speed>
  <fix>3d</fix>
</trkpt>
<trkpt lat="40.072842" lon="-105.230575">
  <ele>1586.09</ele>
  <time>2026-08-28T19:06:34Z</time>
  <course>296.23</course>
  <speed>0.0</speed>
  <fix>3d</fix>
</trkpt>
<trkpt lat="40.0728421" lon="-105.2305751">
  <ele>1586.16</ele>
  <time>2026-08-28T19:06:34Z</time>
  <course>9.58</course>
  <speed>0.01414213562373095</speed>
  <fix>3d</fix>
</trkpt>
<trkpt lat="40.072842" lon="-105.230575">
  <ele>1586.09</ele>
  <time>2026-08-28T19:06:34Z</time>
  <course>302.02</course>
  <speed>0.0</speed>
  <fix>3d</fix>
</trkpt>
<trkpt lat="40.0728421" lon="-105.2305751">
  <ele>1586.16</ele>
  <time>2026-08-28T19:06:34Z</time>
  <course>9.57</course>
  <speed>0.01414213562373095</speed>
  <fix>3d</fix>
</trkpt>
<trkpt lat="40.072842" lon="-105.230575">
  <ele>1586.09</ele>
  <time>2026-08-28T19:06:34Z</time>
  <course>294.32</course>
  <speed>0.0</speed>
  <fix>3d</fix>
</trkpt>
<trkpt lat="40.0728421" lon="-105.2305751">
  <ele>1586.16</ele>
  <time>2026-08-28T19:06:34Z</time>
  <course>9.57</course>
  <speed>0.01414213562373095</speed>
  <fix>3d</fix>
</trkpt>
<trkpt lat="40.072842" lon="-105.230575">
  <ele>1586.09</ele>
  <time>2026-08-28T19:06:34Z</time>
  <course>287.23</course>
  <speed>0.0</speed>
  <fix>3d</fix>
</trkpt>
<trkpt lat="40.0728421" lon="-105.2305751">
  <ele>1586.16</ele>
  <time>2026-08-28T19:06:34Z</time>
  <course>9.57</course>
  <speed>0.01414213562373095</speed>
  <fix>3d</fix>
</trkpt>
<trkpt lat="40.072842" lon="-105.230575">
  <ele>1586.09</ele>
  <time>2026-08-28T19:06:34Z</time>
  <course>290.3</course>
  <speed>0.0</speed>
  <fix>3d</fix>
</trkpt>
<trkpt lat="40.0728421" lon="-105.2305751">
  <ele>1586.15</ele>
  <time>2026-08-28T19:06:34Z</time>
  <course>9.56</course>
  <speed>0.01414213562373095</speed>
  <fix>3d</fix>
</trkpt>
<trkpt lat="40.072842" lon="-105.230575">
  <ele>1586.09</ele>
  <time>2026-08-28T19:06:34Z</time>
  <course>291.02</course>
  <speed>0.0</speed>
  <fix>3d</fix>
</trkpt>
<trkpt lat="40.0728421" lon="-105.2305751">
  <ele>1586.14</ele>
  <time>2026-08-28T19:06:34Z</time>
  <course>9.56</course>
  <speed>0.01414213562373095</speed>
  <fix>3d</fix>
</trkpt>
<trkpt lat="40.072842" lon="-105.230575">
  <ele>1586.09</ele>
  <time>2026-08-28T19:06:34Z</time>
  <course>290.54</course>
  <speed>0.0</speed>
  <fix>3d</fix>
</trkpt>
<trkpt lat="40.0728421" lon="-105.2305751">
  <ele>1586.14</ele>
  <time>2026-08-28T19:06:34Z</time>
  <course>9.55</course>
  <speed>0.01414213562373095</speed>
  <fix>3d</fix>
</trkpt>
<trkpt lat="40.072842" lon="-105.230575">
  <ele>1586.09</ele>
  <time>2026-08-28T19:06:34Z</time>
  <course>290.5</course>
  <speed>0.0</speed>
  <fix>3d</fix>
</trkpt>
<trkpt lat="40.0728421" lon="-105.2305751">
  <ele>1586.14</ele>
  <time>2026-08-28T19:06:34Z</time>
  <course>9.55</course>
  <speed>0.01414213562373095</speed>
  <fix>3d</fix>
</trkpt>
<trkpt lat="40.072842" lon="-105.230575">
  <ele>1586.09</ele>
  <time>2026-08-28T19:06:34Z</time>
  <course>290.57</course>
  <speed>0.0</speed>
  <fix>3d</fix>
</trkpt>
<trkpt lat="40.0728421" lon="-105.2305751">
  <ele>1586.15</ele>
  <time>2026-08-28T19:06:34Z</time>
  <course>9.54</course>
  <speed>0.01414213562373095</speed>
  <fix>3d</fix>
</trkpt>
<trkpt lat="40.072842" lon="-105.230575">
  <ele>1586.09</ele>
  <time>2026-08-28T19:06:34Z</time>
  <course>290.57</course>
  <speed>0.0</speed>
  <fix>3d</fix>
</trkpt>
<trkpt lat="40.0728421" lon="-105.2305751">
  <ele>1586.15</ele>
  <time>2026-08-28T19:06:34Z</time>
  <course>9.54</course>
  <speed>0.01414213562373095</speed>
  <fix>3d</fix>
</trkpt>
<trkpt lat="40.072842" lon="-105.230575">
  <ele>1586.09</ele>
  <time>2026-08-28T19:06:34Z</time>
  <course>290.56</course>
  <speed>0.0</speed>
  <fix>3d</fix>
</trkpt>
<trkpt lat="40.0728421" lon="-105.2305751">
  <ele>1586.15</ele>
  <time>2026-08-28T19:06:34Z</time>
  <course>9.53</course>
  <speed>0.01414213562373095</speed>
  <fix>3d</fix>
</trkpt>
<trkpt lat="40.072842" lon="-105.230575">
  <ele>1586.09</ele>
  <time>2026-08-28T19:06:34Z</time>
  <course>290.56</course>
  <speed>0.0</speed>
  <fix>3d</fix>
</trkpt>
<trkpt lat="40.0728421" lon="-105.2305751">
  <ele>1586.14</ele>
  <time>2026-08-28T19:06:34Z</time>
  <course>9.53</course>
  <speed>0.01414213562373095</speed>
  <fix>3d</fix>
</trkpt>
<trkpt lat="40.072842" lon="-105.230575">
  <ele>1586.09</ele>
  <time>2026-08-28T19:06:34Z</time>
  <course>290.56</course>
  <speed>0.0</speed>
  <fix>3d</fix>
</trkpt>
<trkpt lat="40.0728421" lon="-105.2305751">
  <ele>1586.14</ele>
  <time>2026-08-28T19:06:34Z</time>
  <course>9.53</course>
  <speed>0.01414213562373095</speed>
  <fix>3d</fix>
</trkpt>
<trkpt lat="40.072842" lon="-105.230575">
  <ele>1586.09</ele>
  <time>2026-08-28T19:06:34Z</time>
  <course>290.56</course>
  <speed>0.0</speed>
  <fix>3d</fix>
</trkpt>
<trkpt lat="40.0728421" lon="-105.2305751">
  <ele>1586.14</ele>
  <time>2026-08-28T19:06:34Z</time>
  <course>9.52</course>
  <speed>0.01414213562373095</speed>
  <fix>3d</fix>
</trkpt>
<trkpt lat="40.072842" lon="-105.230575">
  <ele>1586.09</ele>
  <time>2026-08-28T19:06:34Z</time>
  <course>290.56</course>
  <speed>0.0</speed>
  <fix>3d</fix>
</trkpt>
<trkpt lat="40.0728421" lon="-105.2305751">
  <ele>1586.14</ele>
  <time>2026-08-28T19:06:34Z</time>
  <course>9.52</course>
  <speed>0.01414213562373095</speed>
  <fix>3d</fix>
</trkpt>
<trkpt lat="40.072842" lon="-105.230575">
  <ele>1586.09</ele>
  <time>2026-08-28T19:06:34Z</time>
  <course>290.56</course>
  <speed>0.0</speed>
  <fix>3d</fix>
</trkpt>
<trkpt lat="40.0728421" lon="-105.2305751">
  <ele>1586.14</ele>
  <time>2026-08-28T19:06:34Z</time>
  <course>9.51</course>
  <speed>0.01414213562373095</speed>
  <fix>3d</fix>
</trkpt>
<trkpt lat="40.072842" lon="-105.230575">
  <ele>1586.09</ele>
  <time>2026-08-28T19:06:34Z</time>
  <course>290.56</course>
  <speed>0.0</speed>
  <fix>3d</fix>
</trkpt>
<trkpt lat="40.0728421" lon="-105.2305751">
  <ele>1586.14</ele>
  <time>2026-08-28T19:06:34Z</time>
  <course>9.51</course>
  <speed>0.01414213562373095</speed>
  <fix>3d</fix>
</trkpt>
<trkpt lat="40.072842" lon="-105.230575">
  <ele>1586.09</ele>
  <time>2026-08-28T19:06:34Z</time>
  <course>290.56</course>
  <speed>0.0</speed>
  <fix>3d</fix>
</trkpt>
<trkpt lat="40.0728421" lon="-105.2305751">
  <ele>1586.14</ele>
  <time>2026-08-28T19:06:34Z</time>
  <course>9.5</course>
  <speed>0.01414213562373095</speed>
  <fix>3d</fix>
</trkpt>
<trkpt lat="40.072842" lon="-105.230575">
  <ele>1586.09</ele>
  <time>2026-08-28T19:06:34Z</time>
  <course>290.56</course>
  <speed>0.0</speed>
  <fix>3d</fix>
</trkpt>
<trkpt lat="40.0728421" lon="-105.2305751">
  <ele>1586.15</ele>
  <time>2026-08-28T19:06:34Z</time>
  <course>9.5</course>
  <speed>0.01414213562373095</speed>
  <fix>3d</fix>
</trkpt>
<trkpt lat="40.072842" lon="-105.230575">
  <ele>1586.09</ele>
  <time>2026-08-28T19:06:34Z</time>
  <course>290.56</course>
  <speed>0.0</speed>
  <fix>3d</fix>
</trkpt>
<trkpt lat="40.0728421" lon="-105.2305751">
  <ele>1586.15</ele>
  <time>2026-08-28T19:06:34Z</time>
  <course>9.5</course>
  <speed>0.01414213562373095</speed>
  <fix>3d</fix>
</trkpt>
<trkpt lat="40.072842" lon="-105.230575">
  <ele>1586.09</ele>
  <time>2026-08-28T19:06:34Z</time>
  <course>290.56</course>
  <speed>0.0</speed>
  <fix>3d</fix>
</trkpt>
<trkpt lat="40.0728421" lon="-105.2305751">
  <ele>1586.16</ele>
  <time>2026-08-28T19:06:34Z</time>
  <course>9.49</course>
  <speed>0.01414213562373095</speed>
  <fix>3d</fix>
</trkpt>
<trkpt lat="40.072842" lon="-105.230575">
  <ele>1586.09</ele>
  <time>2026-08-28T19:06:34Z</time>
  <course>290.56</course>
  <speed>0.0</speed>
  <fix>3d</fix>
</trkpt>
<trkpt lat="40.0728421" lon="-105.2305751">
  <ele>1586.16</ele>
  <time>2026-08-28T19:06:34Z</time>
  <course>9.49</course>
  <speed>0.01414213562373095</speed>
  <fix>3d</fix>
</trkpt>
<trkpt lat="40.072842" lon="-105.230575">
  <ele>1586.09</ele>
  <time>2026-08-28T19:06:34Z</time>
  <course>290.56</course>
  <speed>0.0</speed>
  <fix>3d</fix>
</trkpt>
<trkpt lat="40.0728421" lon="-105.2305751">
  <ele>1586.17</ele>
  <time>2026-08-28T19:06:34Z</time>
  <course>9.48</course>
  <speed>0.01414213562373095</speed>
  <fix>3d</fix>
</trkpt>
<trkpt lat="40.072842" lon="-105.230575">
  <ele>1586.09</ele>
  <time>2026-08-28T19:06:34Z</time>
  <course>290.56</course>
  <speed>0.0</speed>
  <fix>3d</fix>
</trkpt>
<trkpt lat="40.0728421" lon="-105.2305751">
  <ele>1586.17</ele>
  <time>2026-08-28T19:06:34Z</time>
  <course>9.48</course>
  <speed>0.01414213562373095</speed>
  <fix>3d</fix>
</trkpt>
<trkpt lat="40.072842" lon="-105.230575">
  <ele>1586.09</ele>
  <time>2026-08-28T19:06:34Z</time>
  <course>290.56</course>
  <speed>0.0</speed>
  <fix>3d</fix>
</trkpt>
<trkpt lat="40.0728421" lon="-105.2305751">
  <ele>1586.17</ele>
  <time>2026-08-28T19:06:34Z</time>
  <course>9.48</course>
  <speed>0.01414213562373095</speed>
  <fix>3d</fix>
</trkpt>
<trkpt lat="40.072842" lon="-105.230575">
  <ele>1586.09</ele>
  <time>2026-08-28T19:06:34Z</time>
  <course>290.56</course>
  <speed>0.0</speed>
  <fix>3d</fix>
</trkpt>
<trkpt lat="40.0728421" lon="-105.2305751">
  <ele>1586.17</ele>
  <time>2026-08-28T19:06:34Z</time>
  <course>9.47</course>
  <speed>0.01414213562373095</speed>
  <fix>3d</fix>
</trkpt>
<trkpt lat="40.072842" lon="-105.230575">
  <ele>1586.09</ele>
  <time>2026-08-28T19:06:34Z</time>
  <course>290.56</course>
  <speed>0.0</speed>
  <fix>3d</fix>
</trkpt>
<trkpt lat="40.0728421" lon="-105.2305751">
  <ele>1586.17</ele>
  <time>2026-08-28T19:06:34Z</time>
  <course>9.47</course>
  <speed>0.01414213562373095</speed>
  <fix>3d</fix>
</trkpt>
<trkpt lat="40.072842" lon="-105.230575">
  <ele>1586.09</ele>
  <time>2026-08-28T19:06:34Z</time>
  <course>290.56</course>
  <speed>0.0</speed>
  <fix>3d</fix>
</trkpt>
<trkpt lat="40.0728421" lon="-105.2305751">
  <ele>1586.17</ele>
  <time>2026-08-28T19:06:34Z</time>
  <course>9.46</course>
  <speed>0.01414213562373095</speed>
  <fix>3d</fix>
</trkpt>
<trkpt lat="40.072842" lon="-105.230575">
  <ele>1586.09</ele>
  <time>2026-08-28T19:06:34Z</time>
  <course>290.56</course>
  <speed>0.0</speed>
  <fix>3d</fix>
</trkpt>
<trkpt lat="40.0728421" lon="-105.2305751">
  <ele>1586.17</ele>
  <time>2026-08-28T19:06:34Z</time>
  <course>9.46</course>
  <speed>0.01414213562373095</speed>
  <fix>3d</fix>
</trkpt>
<trkpt lat="40.072842" lon="-105.230575">
  <ele>1586.09</ele>
  <time>2026-08-28T19:06:34Z</time>
  <course>290.56</course>
  <speed>0.0</speed>
  <fix>3d</fix>
</trkpt>
<trkpt lat="40.0728421" lon="-105.2305751">
  <ele>1586.16</ele>
  <time>2026-08-28T19:06:34Z</time>
  <course>9.45</course>
  <speed>0.01414213562373095</speed>
  <fix>3d</fix>
</trkpt>
<trkpt lat="40.072842" lon="-105.230575">
  <ele>1586.09</ele>
  <time>2026-08-28T19:06:34Z</time>
  <course>290.56</course>
  <speed>0.0</speed>
  <fix>3d</fix>
</trkpt>
<trkpt lat="40.0728421" lon="-105.2305751">
  <ele>1586.16</ele>
  <time>2026-08-28T19:06:34Z</time>
  <course>9.45</course>
  <speed>0.01414213562373095</speed>
  <fix>3d</fix>
</trkpt>
<trkpt lat="40.072842" lon="-105.230575">
  <ele>1586.09</ele>
  <time>2026-08-28T19:06:34Z</time>
  <course>290.56</course>
  <speed>0.0</speed>
  <fix>3d</fix>
</trkpt>
<trkpt lat="40.0728421" lon="-105.2305751">
  <ele>1586.16</ele>
  <time>2026-08-28T19:06:34Z</time>
  <course>9.45</course>
  <speed>0.01414213562373095</speed>
  <fix>3d</fix>
</trkpt>
<trkpt lat="40.072842" lon="-105.230575">
  <ele>1586.09</ele>
  <time>2026-08-28T19:06:34Z</time>
  <course>290.56</course>
  <speed>0.0</speed>
  <fix>3d</fix>
</trkpt>
<trkpt lat="40.0728421" lon="-105.2305751">
  <ele>1586.16</ele>
  <time>2026-08-28T19:06:34Z</time>
  <course>9.44</course>
  <speed>0.01414213562373095</speed>
  <fix>3d</fix>
</trkpt>
<trkpt lat="40.072842" lon="-105.230575">
  <ele>1586.09</ele>
  <time>2026-08-28T19:06:34Z</time>
  <course>290.56</course>
  <speed>0.0</speed>
  <fix>3d</fix>
</trkpt>
<trkpt lat="40.0728421" lon="-105.2305751">
  <ele>1586.16</ele>
  <time>2026-08-28T19:06:34Z</time>
  <course>9.44</course>
  <speed>0.01414213562373095</speed>
  <fix>3d</fix>
</trkpt>
<trkpt lat="40.072842" lon="-105.230575">
  <ele>1586.09</ele>
  <time>2026-08-28T19:06:34Z</time>
  <course>290.56</course>
  <speed>0.0</speed>
  <fix>3d</fix>
</trkpt>
<trkpt lat="40.0728421" lon="-105.2305751">
  <ele>1586.17</ele>
  <time>2026-08-28T19:06:34Z</time>
  <course>9.43</course>
  <speed>0.01414213562373095</speed>
  <fix>3d</fix>
</trkpt>
<trkpt lat="40.072842" lon="-105.230575">
  <ele>1586.09</ele>
  <time>2026-08-28T19:06:34Z</time>
  <course>290.56</course>
  <speed>0.0</speed>
  <fix>3d</fix>
</trkpt>
<trkpt lat="40.0728421" lon="-105.2305751">
  <ele>1586.17</ele>
  <time>2026-08-28T19:06:34Z</time>
  <course>9.43</course>
  <speed>0.01414213562373095</speed>
  <fix>3d</fix>
</trkpt>
<trkpt lat="40.072842" lon="-105.230575">
  <ele>1586.09</ele>
  <time>2026-08-28T19:06:34Z</time>
  <course>290.56</course>
  <speed>0.0</speed>
  <fix>3d</fix>
</trkpt>
<trkpt lat="40.0728421" lon="-105.2305751">
  <ele>1586.17</ele>
  <time>2026-08-28T19:06:34Z</time>
  <course>9.43</course>
  <speed>0.01414213562373095</speed>
  <fix>3d</fix>
</trkpt>
<trkpt lat="40.072842" lon="-105.230575">
  <ele>1586.09</ele>
  <time>2026-08-28T19:06:34Z</time>
  <course>290.56</course>
  <speed>0.0</speed>
  <fix>3d</fix>
</trkpt>
<trkpt lat="40.0728421" lon="-105.2305751">
  <ele>1586.17</ele>
  <time>2026-08-28T19:06:34Z</time>
  <course>9.42</course>
  <speed>0.01414213562373095</speed>
  <fix>3d</fix>
</trkpt>
<trkpt lat="40.072842" lon="-105.230575">
  <ele>1586.09</ele>
  <time>2026-08-28T19:06:34Z</time>
  <course>290.56</course>
  <speed>0.0</speed>
  <fix>3d</fix>
</trkpt>
<trkpt lat="40.0728421" lon="-105.2305751">
  <ele>1586.17</ele>
  <time>2026-08-28T19:06:34Z</time>
  <course>9.42</course>
  <speed>0.01414213562373095</speed>
  <fix>3d</fix>
</trkpt>
<trkpt lat="40.072842" lon="-105.230575">
  <ele>1586.09</ele>
  <time>2026-08-28T19:06:34Z</time>
  <course>290.56</course>
  <speed>0.0</speed>
  <fix>3d</fix>
</trkpt>
<trkpt lat="40.0728421" lon="-105.2305751">
  <ele>1586.17</ele>
  <time>2026-08-28T19:06:34Z</time>
  <course>9.41</course>
  <speed>0.01414213562373095</speed>
  <fix>3d</fix>
</trkpt>
<trkpt lat="40.072842" lon="-105.230575">
  <ele>1586.09</ele>
  <time>2026-08-28T19:06:34Z</time>
  <course>290.56</course>
  <speed>0.0</speed>
  <fix>3d</fix>
</trkpt>
<trkpt lat="40.0728421" lon="-105.2305751">
  <ele>1586.18</ele>
  <time>2026-08-28T19:06:34Z</time>
  <course>9.41</course>
  <speed>0.01414213562373095</speed>
  <fix>3d</fix>
</trkpt>
<trkpt lat="40.072842" lon="-105.230575">
  <ele>1586.09</ele>
  <time>2026-08-28T19:06:34Z</time>
  <course>290.56</course>
  <speed>0.0</speed>
  <fix>3d</fix>
</trkpt>
<trkpt lat="40.0728421" lon="-105.2305751">
  <ele>1586.18</ele>
  <time>2026-08-28T19:06:35Z</time>
  <course>9.41</course>
  <speed>0.01414213562373095</speed>
  <fix>3d</fix>
</trkpt>
<trkpt lat="40.072842" lon="-105.230575">
  <ele>1586.09</ele>
  <time>2026-08-28T19:06:35Z</time>
  <course>290.56</course>
  <speed>0.0</speed>
  <fix>3d</fix>
</trkpt>
<trkpt lat="40.0728421" lon="-105.2305751">
  <ele>1586.18</ele>
  <time>2026-08-28T19:06:35Z</time>
  <course>9.4</course>
  <speed>0.01414213562373095</speed>
  <fix>3d</fix>
</trkpt>
<trkpt lat="40.072842" lon="-105.230575">
  <ele>1586.09</ele>
  <time>2026-08-28T19:06:35Z</time>
  <course>290.56</course>
  <speed>0.0</speed>
  <fix>3d</fix>
</trkpt>
<trkpt lat="40.0728421" lon="-105.2305751">
  <ele>1586.18</ele>
  <time>2026-08-28T19:06:35Z</time>
  <course>9.4</course>
  <speed>0.01414213562373095</speed>
  <fix>3d</fix>
</trkpt>
<trkpt lat="40.072842" lon="-105.230575">
  <ele>1586.09</ele>
  <time>2026-08-28T19:06:35Z</time>
  <course>290.56</course>
  <speed>0.0</speed>
  <fix>3d</fix>
</trkpt>
<trkpt lat="40.0728421" lon="-105.2305751">
  <ele>1586.18</ele>
  <time>2026-08-28T19:06:35Z</time>
  <course>9.4</course>
  <speed>0.01414213562373095</speed>
  <fix>3d</fix>
</trkpt>
<trkpt lat="40.072842" lon="-105.230575">
  <ele>1586.09</ele>
  <time>2026-08-28T19:06:35Z</time>
  <course>290.56</course>
  <speed>0.0</speed>
  <fix>3d</fix>
</trkpt>
<trkpt lat="40.0728421" lon="-105.2305751">
  <ele>1586.18</ele>
  <time>2026-08-28T19:06:35Z</time>
  <course>9.39</course>
  <speed>0.01414213562373095</speed>
  <fix>3d</fix>
</trkpt>
<trkpt lat="40.072842" lon="-105.230575">
  <ele>1586.09</ele>
  <time>2026-08-28T19:06:35Z</time>
  <course>290.56</course>
  <speed>0.0</speed>
  <fix>3d</fix>
</trkpt>
<trkpt lat="40.0728421" lon="-105.2305751">
  <ele>1586.18</ele>
  <time>2026-08-28T19:06:35Z</time>
  <course>9.39</course>
  <speed>0.01414213562373095</speed>
  <fix>3d</fix>
</trkpt>
<trkpt lat="40.072842" lon="-105.230575">
  <ele>1586.09</ele>
  <time>2026-08-28T19:06:35Z</time>
  <course>290.56</course>
  <speed>0.0</speed>
  <fix>3d</fix>
</trkpt>
<trkpt lat="40.0728421" lon="-105.2305751">
  <ele>1586.18</ele>
  <time>2026-08-28T19:06:35Z</time>
  <course>9.38</course>
  <speed>0.01414213562373095</speed>
  <fix>3d</fix>
</trkpt>
<trkpt lat="40.072842" lon="-105.230575">
  <ele>1586.09</ele>
  <time>2026-08-28T19:06:35Z</time>
  <course>290.56</course>
  <speed>0.0</speed>
  <fix>3d</fix>
</trkpt>
<trkpt lat="40.0728421" lon="-105.2305751">
  <ele>1586.17</ele>
  <time>2026-08-28T19:06:35Z</time>
  <course>9.38</course>
  <speed>0.01414213562373095</speed>
  <fix>3d</fix>
</trkpt>
<trkpt lat="40.072842" lon="-105.230575">
  <ele>1586.09</ele>
  <time>2026-08-28T19:06:35Z</time>
  <course>290.56</course>
  <speed>0.0</speed>
  <fix>3d</fix>
</trkpt>
<trkpt lat="40.0728421" lon="-105.2305751">
  <ele>1586.17</ele>
  <time>2026-08-28T19:06:35Z</time>
  <course>9.38</course>
  <speed>0.01414213562373095</speed>
  <fix>3d</fix>
</trkpt>
<trkpt lat="40.072842" lon="-105.230575">
  <ele>1586.09</ele>
  <time>2026-08-28T19:06:35Z</time>
  <course>290.56</course>
  <speed>0.0</speed>
  <fix>3d</fix>
</trkpt>
<trkpt lat="40.0728421" lon="-105.2305751">
  <ele>1586.17</ele>
  <time>2026-08-28T19:06:35Z</time>
  <course>9.37</course>
  <speed>0.01414213562373095</speed>
  <fix>3d</fix>
</trkpt>
<trkpt lat="40.072842" lon="-105.230575">
  <ele>1586.09</ele>
  <time>2026-08-28T19:06:35Z</time>
  <course>290.56</course>
  <speed>0.0</speed>
  <fix>3d</fix>
</trkpt>
<trkpt lat="40.0728421" lon="-105.2305751">
  <ele>1586.17</ele>
  <time>2026-08-28T19:06:35Z</time>
  <course>9.37</course>
  <speed>0.01414213562373095</speed>
  <fix>3d</fix>
</trkpt>
<trkpt lat="40.072842" lon="-105.230575">
  <ele>1586.09</ele>
  <time>2026-08-28T19:06:35Z</time>
  <course>290.56</course>
  <speed>0.0</speed>
  <fix>3d</fix>
</trkpt>
<trkpt lat="40.0728421" lon="-105.2305751">
  <ele>1586.17</ele>
  <time>2026-08-28T19:06:35Z</time>
  <course>9.37</course>
  <speed>0.01414213562373095</speed>
  <fix>3d</fix>
</trkpt>
<trkpt lat="40.072842" lon="-105.230575">
  <ele>1586.09</ele>
  <time>2026-08-28T19:06:35Z</time>
  <course>290.56</course>
  <speed>0.0</speed>
  <fix>3d</fix>
</trkpt>
<trkpt lat="40.0728421" lon="-105.2305751">
  <ele>1586.17</ele>
  <time>2026-08-28T19:06:35Z</time>
  <course>9.36</course>
  <speed>0.01414213562373095</speed>
  <fix>3d</fix>
</trkpt>
<trkpt lat="40.072842" lon="-105.230575">
  <ele>1586.09</ele>
  <time>2026-08-28T19:06:35Z</time>
  <course>290.56</course>
  <speed>0.0</speed>
  <fix>3d</fix>
</trkpt>
<trkpt lat="40.0728421" lon="-105.2305751">
  <ele>1586.17</ele>
  <time>2026-08-28T19:06:35Z</time>
  <course>9.36</course>
  <speed>0.01414213562373095</speed>
  <fix>3d</fix>
</trkpt>
<trkpt lat="40.072842" lon="-105.230575">
  <ele>1586.09</ele>
  <time>2026-08-28T19:06:35Z</time>
  <course>290.56</course>
  <speed>0.0</speed>
  <fix>3d</fix>
</trkpt>
<trkpt lat="40.0728421" lon="-105.2305751">
  <ele>1586.17</ele>
  <time>2026-08-28T19:06:35Z</time>
  <course>9.35</course>
  <speed>0.01414213562373095</speed>
  <fix>3d</fix>
</trkpt>
<trkpt lat="40.072842" lon="-105.230575">
  <ele>1586.09</ele>
  <time>2026-08-28T19:06:35Z</time>
  <course>290.56</course>
  <speed>0.0</speed>
  <fix>3d</fix>
</trkpt>
<trkpt lat="40.0728421" lon="-105.2305751">
  <ele>1586.17</ele>
  <time>2026-08-28T19:06:35Z</time>
  <course>9.35</course>
  <speed>0.01414213562373095</speed>
  <fix>3d</fix>
</trkpt>
<trkpt lat="40.072842" lon="-105.230575">
  <ele>1586.09</ele>
  <time>2026-08-28T19:06:35Z</time>
  <course>290.56</course>
  <speed>0.0</speed>
  <fix>3d</fix>
</trkpt>
<trkpt lat="40.0728421" lon="-105.2305751">
  <ele>1586.17</ele>
  <time>2026-08-28T19:06:35Z</time>
  <course>9.35</course>
  <speed>0.01414213562373095</speed>
  <fix>3d</fix>
</trkpt>
<trkpt lat="40.072842" lon="-105.230575">
  <ele>1586.09</ele>
  <time>2026-08-28T19:06:35Z</time>
  <course>290.56</course>
  <speed>0.0</speed>
  <fix>3d</fix>
</trkpt>
<trkpt lat="40.0728421" lon="-105.2305751">
  <ele>1586.17</ele>
  <time>2026-08-28T19:06:35Z</time>
  <course>9.34</course>
  <speed>0.01414213562373095</speed>
  <fix>3d</fix>
</trkpt>
<trkpt lat="40.072842" lon="-105.230575">
  <ele>1586.09</ele>
  <time>2026-08-28T19:06:35Z</time>
  <course>290.56</course>
  <speed>0.0</speed>
  <fix>3d</fix>
</trkpt>
<trkpt lat="40.0728421" lon="-105.2305751">
  <ele>1586.17</ele>
  <time>2026-08-28T19:06:35Z</time>
  <course>9.34</course>
  <speed>0.01414213562373095</speed>
  <fix>3d</fix>
</trkpt>
<trkpt lat="40.072842" lon="-105.230575">
  <ele>1586.09</ele>
  <time>2026-08-28T19:06:35Z</time>
  <course>290.56</course>
  <speed>0.0</speed>
  <fix>3d</fix>
</trkpt>
<trkpt lat="40.0728421" lon="-105.2305751">
  <ele>1586.17</ele>
  <time>2026-08-28T19:06:35Z</time>
  <course>9.34</course>
  <speed>0.01414213562373095</speed>
  <fix>3d</fix>
</trkpt>
<trkpt lat="40.072842" lon="-105.230575">
  <ele>1586.09</ele>
  <time>2026-08-28T19:06:35Z</time>
  <course>290.56</course>
  <speed>0.0</speed>
  <fix>3d</fix>
</trkpt>
<trkpt lat="40.0728421" lon="-105.2305751">
  <ele>1586.16</ele>
  <time>2026-08-28T19:06:35Z</time>
  <course>9.33</course>
  <speed>0.01414213562373095</speed>
  <fix>3d</fix>
</trkpt>
<trkpt lat="40.072842" lon="-105.230575">
  <ele>1586.09</ele>
  <time>2026-08-28T19:06:35Z</time>
  <course>290.56</course>
  <speed>0.0</speed>
  <fix>3d</fix>
</trkpt>
<trkpt lat="40.0728421" lon="-105.2305751">
  <ele>1586.17</ele>
  <time>2026-08-28T19:06:35Z</time>
  <course>9.33</course>
  <speed>0.01414213562373095</speed>
  <fix>3d</fix>
</trkpt>
<trkpt lat="40.072842" lon="-105.230575">
  <ele>1586.09</ele>
  <time>2026-08-28T19:06:35Z</time>
  <course>290.56</course>
  <speed>0.0</speed>
  <fix>3d</fix>
</trkpt>
<trkpt lat="40.0728421" lon="-105.2305751">
  <ele>1586.17</ele>
  <time>2026-08-28T19:06:35Z</time>
  <course>9.33</course>
  <speed>0.01414213562373095</speed>
  <fix>3d</fix>
</trkpt>
<trkpt lat="40.072842" lon="-105.230575">
  <ele>1586.09</ele>
  <time>2026-08-28T19:06:35Z</time>
  <course>290.56</course>
  <speed>0.0</speed>
  <fix>3d</fix>
</trkpt>
<trkpt lat="40.0728421" lon="-105.2305751">
  <ele>1586.17</ele>
  <time>2026-08-28T19:06:35Z</time>
  <course>9.32</course>
  <speed>0.01414213562373095</speed>
  <fix>3d</fix>
</trkpt>
<trkpt lat="40.072842" lon="-105.230575">
  <ele>1586.09</ele>
  <time>2026-08-28T19:06:35Z</time>
  <course>290.56</course>
  <speed>0.0</speed>
  <fix>3d</fix>
</trkpt>
<trkpt lat="40.0728421" lon="-105.2305751">
  <ele>1586.17</ele>
  <time>2026-08-28T19:06:35Z</time>
  <course>9.32</course>
  <speed>0.01414213562373095</speed>
  <fix>3d</fix>
</trkpt>
<trkpt lat="40.072842" lon="-105.230575">
  <ele>1586.09</ele>
  <time>2026-08-28T19:06:35Z</time>
  <course>290.56</course>
  <speed>0.0</speed>
  <fix>3d</fix>
</trkpt>
<trkpt lat="40.0728421" lon="-105.2305751">
  <ele>1586.17</ele>
  <time>2026-08-28T19:06:35Z</time>
  <course>9.32</course>
  <speed>0.01414213562373095</speed>
  <fix>3d</fix>
</trkpt>
<trkpt lat="40.072842" lon="-105.230575">
  <ele>1586.09</ele>
  <time>2026-08-28T19:06:35Z</time>
  <course>290.56</course>
  <speed>0.0</speed>
  <fix>3d</fix>
</trkpt>
<trkpt lat="40.0728421" lon="-105.2305751">
  <ele>1586.17</ele>
  <time>2026-08-28T19:06:35Z</time>
  <course>9.31</course>
  <speed>0.01414213562373095</speed>
  <fix>3d</fix>
</trkpt>
<trkpt lat="40.072842" lon="-105.230575">
  <ele>1586.09</ele>
  <time>2026-08-28T19:06:35Z</time>
  <course>290.56</course>
  <speed>0.0</speed>
  <fix>3d</fix>
</trkpt>
<trkpt lat="40.0728421" lon="-105.2305751">
  <ele>1586.18</ele>
  <time>2026-08-28T19:06:35Z</time>
  <course>9.31</course>
  <speed>0.01414213562373095</speed>
  <fix>3d</fix>
</trkpt>
<trkpt lat="40.072842" lon="-105.230575">
  <ele>1586.09</ele>
  <time>2026-08-28T19:06:35Z</time>
  <course>290.56</course>
  <speed>0.0</speed>
  <fix>3d</fix>
</trkpt>
<trkpt lat="40.0728421" lon="-105.2305751">
  <ele>1586.18</ele>
  <time>2026-08-28T19:06:35Z</time>
  <course>9.31</course>
  <speed>0.01414213562373095</speed>
  <fix>3d</fix>
</trkpt>
<trkpt lat="40.072842" lon="-105.230575">
  <ele>1586.09</ele>
  <time>2026-08-28T19:06:35Z</time>
  <course>290.56</course>
  <speed>0.0</speed>
  <fix>3d</fix>
</trkpt>
<trkpt lat="40.0728421" lon="-105.2305751">
  <ele>1586.18</ele>
  <time>2026-08-28T19:06:35Z</time>
  <course>9.3</course>
  <speed>0.01414213562373095</speed>
  <fix>3d</fix>
</trkpt>
<trkpt lat="40.072842" lon="-105.230575">
  <ele>1586.09</ele>
  <time>2026-08-28T19:06:35Z</time>
  <course>290.56</course>
  <speed>0.0</speed>
  <fix>3d</fix>
</trkpt>
<trkpt lat="40.0728421" lon="-105.2305751">
  <ele>1586.18</ele>
  <time>2026-08-28T19:06:35Z</time>
  <course>9.3</course>
  <speed>0.01414213562373095</speed>
  <fix>3d</fix>
</trkpt>
<trkpt lat="40.072842" lon="-105.230575">
  <ele>1586.09</ele>
  <time>2026-08-28T19:06:35Z</time>
  <course>290.56</course>
  <speed>0.0</speed>
  <fix>3d</fix>
</trkpt>
<trkpt lat="40.0728421" lon="-105.2305751">
  <ele>1586.18</ele>
  <time>2026-08-28T19:06:35Z</time>
  <course>9.3</course>
  <speed>0.01414213562373095</speed>
  <fix>3d</fix>
</trkpt>
<trkpt lat="40.072842" lon="-105.230575">
  <ele>1586.09</ele>
  <time>2026-08-28T19:06:35Z</time>
  <course>290.56</course>
  <speed>0.0</speed>
  <fix>3d</fix>
</trkpt>
<trkpt lat="40.0728421" lon="-105.2305751">
  <ele>1586.18</ele>
  <time>2026-08-28T19:06:35Z</time>
  <course>9.29</course>
  <speed>0.01414213562373095</speed>
  <fix>3d</fix>
</trkpt>
<trkpt lat="40.072842" lon="-105.230575">
  <ele>1586.09</ele>
  <time>2026-08-28T19:06:35Z</time>
  <course>290.56</course>
  <speed>0.0</speed>
  <fix>3d</fix>
</trkpt>
<trkpt lat="40.0728421" lon="-105.2305751">
  <ele>1586.18</ele>
  <time>2026-08-28T19:06:35Z</time>
  <course>9.29</course>
  <speed>0.01414213562373095</speed>
  <fix>3d</fix>
</trkpt>
<trkpt lat="40.072842" lon="-105.230575">
  <ele>1586.09</ele>
  <time>2026-08-28T19:06:35Z</time>
  <course>290.56</course>
  <speed>0.0</speed>
  <fix>3d</fix>
</trkpt>
<trkpt lat="40.0728421" lon="-105.2305751">
  <ele>1586.18</ele>
  <time>2026-08-28T19:06:35Z</time>
  <course>9.29</course>
  <speed>0.01414213562373095</speed>
  <fix>3d</fix>
</trkpt>
<trkpt lat="40.072842" lon="-105.230575">
  <ele>1586.09</ele>
  <time>2026-08-28T19:06:35Z</time>
  <course>290.56</course>
  <speed>0.0</speed>
  <fix>3d</fix>
</trkpt>
<trkpt lat="40.0728421" lon="-105.2305751">
  <ele>1586.19</ele>
  <time>2026-08-28T19:06:35Z</time>
  <course>9.28</course>
  <speed>0.01414213562373095</speed>
  <fix>3d</fix>
</trkpt>
<trkpt lat="40.072842" lon="-105.230575">
  <ele>1586.09</ele>
  <time>2026-08-28T19:06:35Z</time>
  <course>290.56</course>
  <speed>0.0</speed>
  <fix>3d</fix>
</trkpt>
<trkpt lat="40.0728421" lon="-105.2305751">
  <ele>1586.19</ele>
  <time>2026-08-28T19:06:35Z</time>
  <course>9.28</course>
  <speed>0.01414213562373095</speed>
  <fix>3d</fix>
</trkpt>
<trkpt lat="40.072842" lon="-105.230575">
  <ele>1586.09</ele>
  <time>2026-08-28T19:06:35Z</time>
  <course>290.56</course>
  <speed>0.0</speed>
  <fix>3d</fix>
</trkpt>
<trkpt lat="40.0728421" lon="-105.2305751">
  <ele>1586.2</ele>
  <time>2026-08-28T19:06:35Z</time>
  <course>9.28</course>
  <speed>0.01414213562373095</speed>
  <fix>3d</fix>
</trkpt>
<trkpt lat="40.072842" lon="-105.230575">
  <ele>1586.09</ele>
  <time>2026-08-28T19:06:35Z</time>
  <course>290.56</course>
  <speed>0.0</speed>
  <fix>3d</fix>
</trkpt>
<trkpt lat="40.0728421" lon="-105.2305751">
  <ele>1586.2</ele>
  <time>2026-08-28T19:06:35Z</time>
  <course>9.27</course>
  <speed>0.01414213562373095</speed>
  <fix>3d</fix>
</trkpt>
<trkpt lat="40.072842" lon="-105.230575">
  <ele>1586.09</ele>
  <time>2026-08-28T19:06:35Z</time>
  <course>290.56</course>
  <speed>0.0</speed>
  <fix>3d</fix>
</trkpt>
<trkpt lat="40.0728421" lon="-105.2305751">
  <ele>1586.2</ele>
  <time>2026-08-28T19:06:35Z</time>
  <course>9.27</course>
  <speed>0.01414213562373095</speed>
  <fix>3d</fix>
</trkpt>
<trkpt lat="40.072842" lon="-105.230575">
  <ele>1586.09</ele>
  <time>2026-08-28T19:06:35Z</time>
  <course>290.56</course>
  <speed>0.0</speed>
  <fix>3d</fix>
</trkpt>
<trkpt lat="40.0728421" lon="-105.2305751">
  <ele>1586.2</ele>
  <time>2026-08-28T19:06:35Z</time>
  <course>9.27</course>
  <speed>0.01414213562373095</speed>
  <fix>3d</fix>
</trkpt>
<trkpt lat="40.072842" lon="-105.230575">
  <ele>1586.09</ele>
  <time>2026-08-28T19:06:35Z</time>
  <course>290.56</course>
  <speed>0.0</speed>
  <fix>3d</fix>
</trkpt>
<trkpt lat="40.0728421" lon="-105.2305751">
  <ele>1586.2</ele>
  <time>2026-08-28T19:06:35Z</time>
  <course>9.26</course>
  <speed>0.01414213562373095</speed>
  <fix>3d</fix>
</trkpt>
<trkpt lat="40.072842" lon="-105.230575">
  <ele>1586.09</ele>
  <time>2026-08-28T19:06:35Z</time>
  <course>290.56</course>
  <speed>0.0</speed>
  <fix>3d</fix>
</trkpt>
<trkpt lat="40.0728421" lon="-105.2305751">
  <ele>1586.2</ele>
  <time>2026-08-28T19:06:35Z</time>
  <course>9.26</course>
  <speed>0.01414213562373095</speed>
  <fix>3d</fix>
</trkpt>
<trkpt lat="40.072842" lon="-105.230575">
  <ele>1586.09</ele>
  <time>2026-08-28T19:06:35Z</time>
  <course>290.56</course>
  <speed>0.0</speed>
  <fix>3d</fix>
</trkpt>
<trkpt lat="40.0728421" lon="-105.2305751">
  <ele>1586.2</ele>
  <time>2026-08-28T19:06:35Z</time>
  <course>9.26</course>
  <speed>0.01414213562373095</speed>
  <fix>3d</fix>
</trkpt>
<trkpt lat="40.072842" lon="-105.230575">
  <ele>1586.09</ele>
  <time>2026-08-28T19:06:35Z</time>
  <course>290.56</course>
  <speed>0.0</speed>
  <fix>3d</fix>
</trkpt>
<trkpt lat="40.0728421" lon="-105.2305751">
  <ele>1586.2</ele>
  <time>2026-08-28T19:06:35Z</time>
  <course>9.25</course>
  <speed>0.01414213562373095</speed>
  <fix>3d</fix>
</trkpt>
<trkpt lat="40.072842" lon="-105.230575">
  <ele>1586.09</ele>
  <time>2026-08-28T19:06:35Z</time>
  <course>290.56</course>
  <speed>0.0</speed>
  <fix>3d</fix>
</trkpt>
<trkpt lat="40.0728421" lon="-105.2305751">
  <ele>1586.2</ele>
  <time>2026-08-28T19:06:35Z</time>
  <course>9.25</course>
  <speed>0.01414213562373095</speed>
  <fix>3d</fix>
</trkpt>
<trkpt lat="40.072842" lon="-105.230575">
  <ele>1586.09</ele>
  <time>2026-08-28T19:06:35Z</time>
  <course>290.56</course>
  <speed>0.0</speed>
  <fix>3d</fix>
</trkpt>
<trkpt lat="40.0728421" lon="-105.2305751">
  <ele>1586.2</ele>
  <time>2026-08-28T19:06:35Z</time>
  <course>9.25</course>
  <speed>0.01414213562373095</speed>
  <fix>3d</fix>
</trkpt>
<trkpt lat="40.072842" lon="-105.230575">
  <ele>1586.09</ele>
  <time>2026-08-28T19:06:35Z</time>
  <course>290.56</course>
  <speed>0.0</speed>
  <fix>3d</fix>
</trkpt>
<trkpt lat="40.0728421" lon="-105.2305751">
  <ele>1586.2</ele>
  <time>2026-08-28T19:06:35Z</time>
  <course>9.24</course>
  <speed>0.01414213562373095</speed>
  <fix>3d</fix>
</trkpt>
<trkpt lat="40.072842" lon="-105.230575">
  <ele>1586.09</ele>
  <time>2026-08-28T19:06:35Z</time>
  <course>290.56</course>
  <speed>0.0</speed>
  <fix>3d</fix>
</trkpt>
<trkpt lat="40.0728421" lon="-105.2305751">
  <ele>1586.19</ele>
  <time>2026-08-28T19:06:35Z</time>
  <course>9.24</course>
  <speed>0.01414213562373095</speed>
  <fix>3d</fix>
</trkpt>
<trkpt lat="40.072842" lon="-105.230575">
  <ele>1586.09</ele>
  <time>2026-08-28T19:06:35Z</time>
  <course>290.56</course>
  <speed>0.0</speed>
  <fix>3d</fix>
</trkpt>
<trkpt lat="40.0728421" lon="-105.2305751">
  <ele>1586.19</ele>
  <time>2026-08-28T19:06:35Z</time>
  <course>9.24</course>
  <speed>0.01414213562373095</speed>
  <fix>3d</fix>
</trkpt>
<trkpt lat="40.072842" lon="-105.230575">
  <ele>1586.09</ele>
  <time>2026-08-28T19:06:35Z</time>
  <course>290.56</course>
  <speed>0.0</speed>
  <fix>3d</fix>
</trkpt>
<trkpt lat="40.0728421" lon="-105.2305751">
  <ele>1586.18</ele>
  <time>2026-08-28T19:06:35Z</time>
  <course>9.24</course>
  <speed>0.01414213562373095</speed>
  <fix>3d</fix>
</trkpt>
<trkpt lat="40.072842" lon="-105.230575">
  <ele>1586.09</ele>
  <time>2026-08-28T19:06:35Z</time>
  <course>290.56</course>
  <speed>0.0</speed>
  <fix>3d</fix>
</trkpt>
<trkpt lat="40.0728421" lon="-105.2305751">
  <ele>1586.18</ele>
  <time>2026-08-28T19:06:35Z</time>
  <course>9.23</course>
  <speed>0.01414213562373095</speed>
  <fix>3d</fix>
</trkpt>
<trkpt lat="40.072842" lon="-105.230575">
  <ele>1586.09</ele>
  <time>2026-08-28T19:06:35Z</time>
  <course>290.56</course>
  <speed>0.0</speed>
  <fix>3d</fix>
</trkpt>
<trkpt lat="40.0728421" lon="-105.2305751">
  <ele>1586.18</ele>
  <time>2026-08-28T19:06:35Z</time>
  <course>9.23</course>
  <speed>0.01414213562373095</speed>
  <fix>3d</fix>
</trkpt>
<trkpt lat="40.072842" lon="-105.230575">
  <ele>1586.09</ele>
  <time>2026-08-28T19:06:35Z</time>
  <course>290.56</course>
  <speed>0.0</speed>
  <fix>3d</fix>
</trkpt>
<trkpt lat="40.0728421" lon="-105.2305751">
  <ele>1586.18</ele>
  <time>2026-08-28T19:06:35Z</time>
  <course>9.23</course>
  <speed>0.01414213562373095</speed>
  <fix>3d</fix>
</trkpt>
<trkpt lat="40.072842" lon="-105.230575">
  <ele>1586.09</ele>
  <time>2026-08-28T19:06:35Z</time>
  <course>290.56</course>
  <speed>0.0</speed>
  <fix>3d</fix>
</trkpt>
<trkpt lat="40.0728421" lon="-105.2305751">
  <ele>1586.18</ele>
  <time>2026-08-28T19:06:35Z</time>
  <course>9.22</course>
  <speed>0.01414213562373095</speed>
  <fix>3d</fix>
</trkpt>
<trkpt lat="40.072842" lon="-105.230575">
  <ele>1586.09</ele>
  <time>2026-08-28T19:06:35Z</time>
  <course>290.56</course>
  <speed>0.0</speed>
  <fix>3d</fix>
</trkpt>
<trkpt lat="40.0728421" lon="-105.2305751">
  <ele>1586.18</ele>
  <time>2026-08-28T19:06:35Z</time>
  <course>9.22</course>
  <speed>0.01414213562373095</speed>
  <fix>3d</fix>
</trkpt>
<trkpt lat="40.072842" lon="-105.230575">
  <ele>1586.09</ele>
  <time>2026-08-28T19:06:35Z</time>
  <course>290.56</course>
  <speed>0.0</speed>
  <fix>3d</fix>
</trkpt>
<trkpt lat="40.0728421" lon="-105.2305751">
  <ele>1586.17</ele>
  <time>2026-08-28T19:06:35Z</time>
  <course>9.22</course>
  <speed>0.01414213562373095</speed>
  <fix>3d</fix>
</trkpt>
<trkpt lat="40.072842" lon="-105.230575">
  <ele>1586.09</ele>
  <time>2026-08-28T19:06:35Z</time>
  <course>294.28</course>
  <speed>0.0</speed>
  <fix>3d</fix>
</trkpt>
<trkpt lat="40.0728421" lon="-105.2305751">
  <ele>1586.17</ele>
  <time>2026-08-28T19:06:35Z</time>
  <course>9.21</course>
  <speed>0.01414213562373095</speed>
  <fix>3d</fix>
</trkpt>
<trkpt lat="40.072842" lon="-105.230575">
  <ele>1586.09</ele>
  <time>2026-08-28T19:06:35Z</time>
  <course>298.4</course>
  <speed>0.0</speed>
  <fix>3d</fix>
</trkpt>
<trkpt lat="40.0728421" lon="-105.2305751">
  <ele>1586.17</ele>
  <time>2026-08-28T19:06:35Z</time>
  <course>9.21</course>
  <speed>0.01414213562373095</speed>
  <fix>3d</fix>
</trkpt>
<trkpt lat="40.072842" lon="-105.230575">
  <ele>1586.09</ele>
  <time>2026-08-28T19:06:35Z</time>
  <course>293.18</course>
  <speed>0.0</speed>
  <fix>3d</fix>
</trkpt>
<trkpt lat="40.0728421" lon="-105.2305751">
  <ele>1586.17</ele>
  <time>2026-08-28T19:06:35Z</time>
  <course>9.21</course>
  <speed>0.01414213562373095</speed>
  <fix>3d</fix>
</trkpt>
<trkpt lat="40.072842" lon="-105.230575">
  <ele>1586.09</ele>
  <time>2026-08-28T19:06:35Z</time>
  <course>288.37</course>
  <speed>0.0</speed>
  <fix>3d</fix>
</trkpt>
<trkpt lat="40.0728421" lon="-105.2305751">
  <ele>1586.17</ele>
  <time>2026-08-28T19:06:35Z</time>
  <course>9.21</course>
  <speed>0.01414213562373095</speed>
  <fix>3d</fix>
</trkpt>
<trkpt lat="40.072842" lon="-105.230575">
  <ele>1586.09</ele>
  <time>2026-08-28T19:06:35Z</time>
  <course>290.4</course>
  <speed>0.0</speed>
  <fix>3d</fix>
</trkpt>
<trkpt lat="40.0728421" lon="-105.2305751">
  <ele>1586.16</ele>
  <time>2026-08-28T19:06:35Z</time>
  <course>9.2</course>
  <speed>0.01414213562373095</speed>
  <fix>3d</fix>
</trkpt>
<trkpt lat="40.072842" lon="-105.230575">
  <ele>1586.09</ele>
  <time>2026-08-28T19:06:35Z</time>
  <course>290.86</course>
  <speed>0.0</speed>
  <fix>3d</fix>
</trkpt>
<trkpt lat="40.0728421" lon="-105.2305751">
  <ele>1586.16</ele>
  <time>2026-08-28T19:06:35Z</time>
  <course>9.2</course>
  <speed>0.01414213562373095</speed>
  <fix>3d</fix>
</trkpt>
<trkpt lat="40.072842" lon="-105.230575">
  <ele>1586.09</ele>
  <time>2026-08-28T19:06:35Z</time>
  <course>179.23</course>
  <speed>0.0</speed>
  <fix>3d</fix>
</trkpt>
<trkpt lat="40.0728421" lon="-105.2305751">
  <ele>1586.16</ele>
  <time>2026-08-28T19:06:35Z</time>
  <course>9.2</course>
  <speed>0.01414213562373095</speed>
  <fix>3d</fix>
</trkpt>
<trkpt lat="40.072842" lon="-105.230575">
  <ele>1586.09</ele>
  <time>2026-08-28T19:06:35Z</time>
  <course>152.34</course>
  <speed>0.0</speed>
  <fix>3d</fix>
</trkpt>
<trkpt lat="40.0728421" lon="-105.2305751">
  <ele>1586.16</ele>
  <time>2026-08-28T19:06:35Z</time>
  <course>9.19</course>
  <speed>0.01414213562373095</speed>
  <fix>3d</fix>
</trkpt>
<trkpt lat="40.072842" lon="-105.230575">
  <ele>1586.09</ele>
  <time>2026-08-28T19:06:35Z</time>
  <course>293.46</course>
  <speed>0.0</speed>
  <fix>3d</fix>
</trkpt>
<trkpt lat="40.0728421" lon="-105.2305751">
  <ele>1586.16</ele>
  <time>2026-08-28T19:06:35Z</time>
  <course>9.19</course>
  <speed>0.01414213562373095</speed>
  <fix>3d</fix>
</trkpt>
<trkpt lat="40.072842" lon="-105.230575">
  <ele>1586.09</ele>
  <time>2026-08-28T19:06:35Z</time>
  <course>201.63</course>
  <speed>0.0</speed>
  <fix>3d</fix>
</trkpt>
<trkpt lat="40.0728421" lon="-105.2305751">
  <ele>1586.16</ele>
  <time>2026-08-28T19:06:35Z</time>
  <course>9.19</course>
  <speed>0.01414213562373095</speed>
  <fix>3d</fix>
</trkpt>
<trkpt lat="40.072842" lon="-105.230575">
  <ele>1586.09</ele>
  <time>2026-08-28T19:06:35Z</time>
  <course>285.55</course>
  <speed>0.0</speed>
  <fix>3d</fix>
</trkpt>
<trkpt lat="40.0728421" lon="-105.2305751">
  <ele>1586.17</ele>
  <time>2026-08-28T19:06:35Z</time>
  <course>9.19</course>
  <speed>0.01414213562373095</speed>
  <fix>3d</fix>
</trkpt>
<trkpt lat="40.072842" lon="-105.230575">
  <ele>1586.09</ele>
  <time>2026-08-28T19:06:35Z</time>
  <course>311.8</course>
  <speed>0.0</speed>
  <fix>3d</fix>
</trkpt>
<trkpt lat="40.0728421" lon="-105.2305751">
  <ele>1586.17</ele>
  <time>2026-08-28T19:06:35Z</time>
  <course>9.18</course>
  <speed>0.01414213562373095</speed>
  <fix>3d</fix>
</trkpt>
<trkpt lat="40.072842" lon="-105.230575">
  <ele>1586.09</ele>
  <time>2026-08-28T19:06:35Z</time>
  <course>290.54</course>
  <speed>0.0</speed>
  <fix>3d</fix>
</trkpt>
<trkpt lat="40.0728421" lon="-105.2305751">
  <ele>1586.17</ele>
  <time>2026-08-28T19:06:35Z</time>
  <course>9.18</course>
  <speed>0.01414213562373095</speed>
  <fix>3d</fix>
</trkpt>
<trkpt lat="40.072842" lon="-105.230575">
  <ele>1586.09</ele>
  <time>2026-08-28T19:06:35Z</time>
  <course>273.8</course>
  <speed>0.0</speed>
  <fix>3d</fix>
</trkpt>
<trkpt lat="40.0728421" lon="-105.2305751">
  <ele>1586.17</ele>
  <time>2026-08-28T19:06:35Z</time>
  <course>9.18</course>
  <speed>0.01414213562373095</speed>
  <fix>3d</fix>
</trkpt>
<trkpt lat="40.072842" lon="-105.230575">
  <ele>1586.09</ele>
  <time>2026-08-28T19:06:35Z</time>
  <course>294.49</course>
  <speed>0.0</speed>
  <fix>3d</fix>
</trkpt>
<trkpt lat="40.0728421" lon="-105.2305751">
  <ele>1586.17</ele>
  <time>2026-08-28T19:06:35Z</time>
  <course>9.17</course>
  <speed>0.01414213562373095</speed>
  <fix>3d</fix>
</trkpt>
<trkpt lat="40.072842" lon="-105.230575">
  <ele>1586.09</ele>
  <time>2026-08-28T19:06:35Z</time>
  <course>293.41</course>
  <speed>0.0</speed>
  <fix>3d</fix>
</trkpt>
<trkpt lat="40.0728421" lon="-105.2305751">
  <ele>1586.16</ele>
  <time>2026-08-28T19:06:35Z</time>
  <course>9.17</course>
  <speed>0.01414213562373095</speed>
  <fix>3d</fix>
</trkpt>
<trkpt lat="40.072842" lon="-105.230575">
  <ele>1586.09</ele>
  <time>2026-08-28T19:06:35Z</time>
  <course>279.52</course>
  <speed>0.0</speed>
  <fix>3d</fix>
</trkpt>
<trkpt lat="40.0728421" lon="-105.2305751">
  <ele>1586.16</ele>
  <time>2026-08-28T19:06:35Z</time>
  <course>9.17</course>
  <speed>0.01414213562373095</speed>
  <fix>3d</fix>
</trkpt>
<trkpt lat="40.072842" lon="-105.230575">
  <ele>1586.09</ele>
  <time>2026-08-28T19:06:35Z</time>
  <course>295.1</course>
  <speed>0.0</speed>
  <fix>3d</fix>
</trkpt>
<trkpt lat="40.0728421" lon="-105.2305751">
  <ele>1586.16</ele>
  <time>2026-08-28T19:06:35Z</time>
  <course>9.17</course>
  <speed>0.01414213562373095</speed>
  <fix>3d</fix>
</trkpt>
<trkpt lat="40.072842" lon="-105.230575">
  <ele>1586.09</ele>
  <time>2026-08-28T19:06:35Z</time>
  <course>295.63</course>
  <speed>0.0</speed>
  <fix>3d</fix>
</trkpt>
<trkpt lat="40.0728421" lon="-105.2305751">
  <ele>1586.16</ele>
  <time>2026-08-28T19:06:35Z</time>
  <course>9.16</course>
  <speed>0.01414213562373095</speed>
  <fix>3d</fix>
</trkpt>
<trkpt lat="40.072842" lon="-105.230575">
  <ele>1586.09</ele>
  <time>2026-08-28T19:06:35Z</time>
  <course>173.96</course>
  <speed>0.0</speed>
  <fix>3d</fix>
</trkpt>
<trkpt lat="40.0728421" lon="-105.2305751">
  <ele>1586.15</ele>
  <time>2026-08-28T19:06:35Z</time>
  <course>9.16</course>
  <speed>0.01414213562373095</speed>
  <fix>3d</fix>
</trkpt>
<trkpt lat="40.072842" lon="-105.230575">
  <ele>1586.09</ele>
  <time>2026-08-28T19:06:35Z</time>
  <course>305.56</course>
  <speed>0.0</speed>
  <fix>3d</fix>
</trkpt>
<trkpt lat="40.0728421" lon="-105.2305751">
  <ele>1586.14</ele>
  <time>2026-08-28T19:06:35Z</time>
  <course>9.16</course>
  <speed>0.01414213562373095</speed>
  <fix>3d</fix>
</trkpt>
<trkpt lat="40.072842" lon="-105.230575">
  <ele>1586.09</ele>
  <time>2026-08-28T19:06:35Z</time>
  <course>300.8</course>
  <speed>0.0</speed>
  <fix>3d</fix>
</trkpt>
<trkpt lat="40.0728421" lon="-105.2305751">
  <ele>1586.14</ele>
  <time>2026-08-28T19:06:35Z</time>
  <course>9.16</course>
  <speed>0.01414213562373095</speed>
  <fix>3d</fix>
</trkpt>
<trkpt lat="40.072842" lon="-105.230575">
  <ele>1586.09</ele>
  <time>2026-08-28T19:06:35Z</time>
  <course>281.02</course>
  <speed>0.0</speed>
  <fix>3d</fix>
</trkpt>
<trkpt lat="40.0728421" lon="-105.2305751">
  <ele>1586.14</ele>
  <time>2026-08-28T19:06:35Z</time>
  <course>9.15</course>
  <speed>0.01414213562373095</speed>
  <fix>3d</fix>
</trkpt>
<trkpt lat="40.072842" lon="-105.230575">
  <ele>1586.09</ele>
  <time>2026-08-28T19:06:35Z</time>
  <course>289.13</course>
  <speed>0.0</speed>
  <fix>3d</fix>
</trkpt>
<trkpt lat="40.0728421" lon="-105.2305751">
  <ele>1586.14</ele>
  <time>2026-08-28T19:06:35Z</time>
  <course>9.15</course>
  <speed>0.01414213562373095</speed>
  <fix>3d</fix>
</trkpt>
<trkpt lat="40.072842" lon="-105.230575">
  <ele>1586.09</ele>
  <time>2026-08-28T19:06:35Z</time>
  <course>291.88</course>
  <speed>0.0</speed>
  <fix>3d</fix>
</trkpt>
<trkpt lat="40.0728421" lon="-105.2305751">
  <ele>1586.14</ele>
  <time>2026-08-28T19:06:35Z</time>
  <course>9.15</course>
  <speed>0.01414213562373095</speed>
  <fix>3d</fix>
</trkpt>
<trkpt lat="40.072842" lon="-105.230575">
  <ele>1586.09</ele>
  <time>2026-08-28T19:06:35Z</time>
  <course>290.58</course>
  <speed>0.0</speed>
  <fix>3d</fix>
</trkpt>
<trkpt lat="40.0728421" lon="-105.2305751">
  <ele>1586.14</ele>
  <time>2026-08-28T19:06:35Z</time>
  <course>9.14</course>
  <speed>0.01414213562373095</speed>
  <fix>3d</fix>
</trkpt>
<trkpt lat="40.072842" lon="-105.230575">
  <ele>1586.09</ele>
  <time>2026-08-28T19:06:35Z</time>
  <course>285.02</course>
  <speed>0.0</speed>
  <fix>3d</fix>
</trkpt>
<trkpt lat="40.0728421" lon="-105.2305751">
  <ele>1586.15</ele>
  <time>2026-08-28T19:06:35Z</time>
  <course>9.14</course>
  <speed>0.01414213562373095</speed>
  <fix>3d</fix>
</trkpt>
<trkpt lat="40.072842" lon="-105.230575">
  <ele>1586.09</ele>
  <time>2026-08-28T19:06:35Z</time>
  <course>142.72</course>
  <speed>0.0</speed>
  <fix>3d</fix>
</trkpt>
<trkpt lat="40.0728421" lon="-105.2305751">
  <ele>1586.15</ele>
  <time>2026-08-28T19:06:35Z</time>
  <course>9.14</course>
  <speed>0.01414213562373095</speed>
  <fix>3d</fix>
</trkpt>
<trkpt lat="40.072842" lon="-105.230575">
  <ele>1586.09</ele>
  <time>2026-08-28T19:06:35Z</time>
  <course>28.99</course>
  <speed>0.0</speed>
  <fix>3d</fix>
</trkpt>
<trkpt lat="40.0728421" lon="-105.2305751">
  <ele>1586.15</ele>
  <time>2026-08-28T19:06:35Z</time>
  <course>9.14</course>
  <speed>0.01414213562373095</speed>
  <fix>3d</fix>
</trkpt>
<trkpt lat="40.072842" lon="-105.230575">
  <ele>1586.09</ele>
  <time>2026-08-28T19:06:35Z</time>
  <course>348.78</course>
  <speed>0.0</speed>
  <fix>3d</fix>
</trkpt>
<trkpt lat="40.0728421" lon="-105.2305751">
  <ele>1586.16</ele>
  <time>2026-08-28T19:06:35Z</time>
  <course>9.13</course>
  <speed>0.01414213562373095</speed>
  <fix>3d</fix>
</trkpt>
<trkpt lat="40.072842" lon="-105.230575">
  <ele>1586.09</ele>
  <time>2026-08-28T19:06:35Z</time>
  <course>118.62</course>
  <speed>0.0</speed>
  <fix>3d</fix>
</trkpt>
<trkpt lat="40.0728421" lon="-105.2305751">
  <ele>1586.16</ele>
  <time>2026-08-28T19:06:35Z</time>
  <course>9.13</course>
  <speed>0.01414213562373095</speed>
  <fix>3d</fix>
</trkpt>
<trkpt lat="40.072842" lon="-105.230575">
  <ele>1586.09</ele>
  <time>2026-08-28T19:06:35Z</time>
  <course>325.77</course>
  <speed>0.0</speed>
  <fix>3d</fix>
</trkpt>
<trkpt lat="40.0728421" lon="-105.2305751">
  <ele>1586.16</ele>
  <time>2026-08-28T19:06:35Z</time>
  <course>9.13</course>
  <speed>0.01414213562373095</speed>
  <fix>3d</fix>
</trkpt>
<trkpt lat="40.072842" lon="-105.230575">
  <ele>1586.09</ele>
  <time>2026-08-28T19:06:35Z</time>
  <course>11.73</course>
  <speed>0.0</speed>
  <fix>3d</fix>
</trkpt>
<trkpt lat="40.0728421" lon="-105.2305751">
  <ele>1586.16</ele>
  <time>2026-08-28T19:06:35Z</time>
  <course>9.13</course>
  <speed>0.01414213562373095</speed>
  <fix>3d</fix>
</trkpt>
<trkpt lat="40.072842" lon="-105.230575">
  <ele>1586.09</ele>
  <time>2026-08-28T19:06:35Z</time>
  <course>126.59</course>
  <speed>0.0</speed>
  <fix>3d</fix>
</trkpt>
<trkpt lat="40.0728421" lon="-105.2305751">
  <ele>1586.16</ele>
  <time>2026-08-28T19:06:35Z</time>
  <course>9.12</course>
  <speed>0.01414213562373095</speed>
  <fix>3d</fix>
</trkpt>
<trkpt lat="40.072842" lon="-105.230575">
  <ele>1586.09</ele>
  <time>2026-08-28T19:06:35Z</time>
  <course>152.81</course>
  <speed>0.0</speed>
  <fix>3d</fix>
</trkpt>
<trkpt lat="40.0728421" lon="-105.2305751">
  <ele>1586.16</ele>
  <time>2026-08-28T19:06:35Z</time>
  <course>9.12</course>
  <speed>0.01414213562373095</speed>
  <fix>3d</fix>
</trkpt>
<trkpt lat="40.072842" lon="-105.230575">
  <ele>1586.09</ele>
  <time>2026-08-28T19:06:35Z</time>
  <course>18.15</course>
  <speed>0.0</speed>
  <fix>3d</fix>
</trkpt>
<trkpt lat="40.0728421" lon="-105.2305751">
  <ele>1586.16</ele>
  <time>2026-08-28T19:06:35Z</time>
  <course>9.12</course>
  <speed>0.01414213562373095</speed>
  <fix>3d</fix>
</trkpt>
<trkpt lat="40.072842" lon="-105.230575">
  <ele>1586.09</ele>
  <time>2026-08-28T19:06:35Z</time>
  <course>336.58</course>
  <speed>0.0</speed>
  <fix>3d</fix>
</trkpt>
<trkpt lat="40.0728421" lon="-105.2305751">
  <ele>1586.16</ele>
  <time>2026-08-28T19:06:35Z</time>
  <course>9.12</course>
  <speed>0.01414213562373095</speed>
  <fix>3d</fix>
</trkpt>
<trkpt lat="40.072842" lon="-105.230575">
  <ele>1586.09</ele>
  <time>2026-08-28T19:06:35Z</time>
  <course>164.35</course>
  <speed>0.0</speed>
  <fix>3d</fix>
</trkpt>
<trkpt lat="40.0728421" lon="-105.2305751">
  <ele>1586.16</ele>
  <time>2026-08-28T19:06:35Z</time>
  <course>9.11</course>
  <speed>0.01414213562373095</speed>
  <fix>3d</fix>
</trkpt>
<trkpt lat="40.072842" lon="-105.230575">
  <ele>1586.09</ele>
  <time>2026-08-28T19:06:35Z</time>
  <course>93.18</course>
  <speed>0.0</speed>
  <fix>3d</fix>
</trkpt>
<trkpt lat="40.0728421" lon="-105.2305751">
  <ele>1586.16</ele>
  <time>2026-08-28T19:06:35Z</time>
  <course>9.11</course>
  <speed>0.01414213562373095</speed>
  <fix>3d</fix>
</trkpt>
<trkpt lat="40.072842" lon="-105.230575">
  <ele>1586.09</ele>
  <time>2026-08-28T19:06:35Z</time>
  <course>344.02</course>
  <speed>0.0</speed>
  <fix>3d</fix>
</trkpt>
<trkpt lat="40.0728421" lon="-105.2305751">
  <ele>1586.16</ele>
  <time>2026-08-28T19:06:35Z</time>
  <course>9.11</course>
  <speed>0.01414213562373095</speed>
  <fix>3d</fix>
</trkpt>
<trkpt lat="40.072842" lon="-105.230575">
  <ele>1586.09</ele>
  <time>2026-08-28T19:06:35Z</time>
  <course>322.3</course>
  <speed>0.0</speed>
  <fix>3d</fix>
</trkpt>
<trkpt lat="40.0728421" lon="-105.2305751">
  <ele>1586.16</ele>
  <time>2026-08-28T19:06:35Z</time>
  <course>9.11</course>
  <speed>0.01414213562373095</speed>
  <fix>3d</fix>
</trkpt>
<trkpt lat="40.072842" lon="-105.230575">
  <ele>1586.09</ele>
  <time>2026-08-28T19:06:35Z</time>
  <course>313.16</course>
  <speed>0.0</speed>
  <fix>3d</fix>
</trkpt>
<trkpt lat="40.0728421" lon="-105.2305751">
  <ele>1586.16</ele>
  <time>2026-08-28T19:06:35Z</time>
  <course>9.11</course>
  <speed>0.01414213562373095</speed>
  <fix>3d</fix>
</trkpt>
<trkpt lat="40.072842" lon="-105.230575">
  <ele>1586.09</ele>
  <time>2026-08-28T19:06:35Z</time>
  <course>236.33</course>
  <speed>0.0</speed>
  <fix>3d</fix>
</trkpt>
<trkpt lat="40.0728421" lon="-105.2305751">
  <ele>1586.16</ele>
  <time>2026-08-28T19:06:35Z</time>
  <course>9.1</course>
  <speed>0.01414213562373095</speed>
  <fix>3d</fix>
</trkpt>
<trkpt lat="40.072842" lon="-105.230575">
  <ele>1586.09</ele>
  <time>2026-08-28T19:06:35Z</time>
  <course>260.13</course>
  <speed>0.0</speed>
  <fix>3d</fix>
</trkpt>
<trkpt lat="40.0728421" lon="-105.2305751">
  <ele>1586.16</ele>
  <time>2026-08-28T19:06:35Z</time>
  <course>9.1</course>
  <speed>0.01414213562373095</speed>
  <fix>3d</fix>
</trkpt>
<trkpt lat="40.072842" lon="-105.230575">
  <ele>1586.09</ele>
  <time>2026-08-28T19:06:35Z</time>
  <course>298.83</course>
  <speed>0.0</speed>
  <fix>3d</fix>
</trkpt>
<trkpt lat="40.0728421" lon="-105.2305751">
  <ele>1586.16</ele>
  <time>2026-08-28T19:06:35Z</time>
  <course>9.1</course>
  <speed>0.01414213562373095</speed>
  <fix>3d</fix>
</trkpt>
<trkpt lat="40.072842" lon="-105.230575">
  <ele>1586.09</ele>
  <time>2026-08-28T19:06:35Z</time>
  <course>138.04</course>
  <speed>0.0</speed>
  <fix>3d</fix>
</trkpt>
<trkpt lat="40.0728421" lon="-105.2305751">
  <ele>1586.16</ele>
  <time>2026-08-28T19:06:35Z</time>
  <course>9.1</course>
  <speed>0.01414213562373095</speed>
  <fix>3d</fix>
</trkpt>
<trkpt lat="40.072842" lon="-105.230575">
  <ele>1586.09</ele>
  <time>2026-08-28T19:06:35Z</time>
  <course>140.6</course>
  <speed>0.0</speed>
  <fix>3d</fix>
</trkpt>
<trkpt lat="40.0728421" lon="-105.2305751">
  <ele>1586.16</ele>
  <time>2026-08-28T19:06:35Z</time>
  <course>9.09</course>
  <speed>0.01414213562373095</speed>
  <fix>3d</fix>
</trkpt>
<trkpt lat="40.072842" lon="-105.230575">
  <ele>1586.09</ele>
  <time>2026-08-28T19:06:35Z</time>
  <course>173.45</course>
  <speed>0.0</speed>
  <fix>3d</fix>
</trkpt>
<trkpt lat="40.0728421" lon="-105.2305751">
  <ele>1586.16</ele>
  <time>2026-08-28T19:06:35Z</time>
  <course>9.09</course>
  <speed>0.01414213562373095</speed>
  <fix>3d</fix>
</trkpt>
<trkpt lat="40.072842" lon="-105.230575">
  <ele>1586.09</ele>
  <time>2026-08-28T19:06:35Z</time>
  <course>151.05</course>
  <speed>0.0</speed>
  <fix>3d</fix>
</trkpt>
<trkpt lat="40.0728421" lon="-105.2305751">
  <ele>1586.16</ele>
  <time>2026-08-28T19:06:35Z</time>
  <course>9.09</course>
  <speed>0.01414213562373095</speed>
  <fix>3d</fix>
</trkpt>
<trkpt lat="40.072842" lon="-105.230575">
  <ele>1586.09</ele>
  <time>2026-08-28T19:06:35Z</time>
  <course>306.61</course>
  <speed>0.0</speed>
  <fix>3d</fix>
</trkpt>
<trkpt lat="40.0728421" lon="-105.2305751">
  <ele>1586.16</ele>
  <time>2026-08-28T19:06:35Z</time>
  <course>9.09</course>
  <speed>0.01414213562373095</speed>
  <fix>3d</fix>
</trkpt>
<trkpt lat="40.072842" lon="-105.230575">
  <ele>1586.09</ele>
  <time>2026-08-28T19:06:35Z</time>
  <course>107.25</course>
  <speed>0.0</speed>
  <fix>3d</fix>
</trkpt>
<trkpt lat="40.0728421" lon="-105.2305751">
  <ele>1586.16</ele>
  <time>2026-08-28T19:06:35Z</time>
  <course>9.09</course>
  <speed>0.01414213562373095</speed>
  <fix>3d</fix>
</trkpt>
<trkpt lat="40.072842" lon="-105.230575">
  <ele>1586.09</ele>
  <time>2026-08-28T19:06:35Z</time>
  <course>99.33</course>
  <speed>0.0</speed>
  <fix>3d</fix>
</trkpt>
<trkpt lat="40.0728421" lon="-105.2305751">
  <ele>1586.16</ele>
  <time>2026-08-28T19:06:35Z</time>
  <course>9.08</course>
  <speed>0.01414213562373095</speed>
  <fix>3d</fix>
</trkpt>
<trkpt lat="40.072842" lon="-105.230575">
  <ele>1586.09</ele>
  <time>2026-08-28T19:06:35Z</time>
  <course>322.97</course>
  <speed>0.0</speed>
  <fix>3d</fix>
</trkpt>
<trkpt lat="40.0728421" lon="-105.2305751">
  <ele>1586.16</ele>
  <time>2026-08-28T19:06:35Z</time>
  <course>9.08</course>
  <speed>0.01414213562373095</speed>
  <fix>3d</fix>
</trkpt>
<trkpt lat="40.072842" lon="-105.230575">
  <ele>1586.09</ele>
  <time>2026-08-28T19:06:35Z</time>
  <course>266.97</course>
  <speed>0.0</speed>
  <fix>3d</fix>
</trkpt>
<trkpt lat="40.0728421" lon="-105.2305751">
  <ele>1586.16</ele>
  <time>2026-08-28T19:06:35Z</time>
  <course>9.08</course>
  <speed>0.01414213562373095</speed>
  <fix>3d</fix>
</trkpt>
<trkpt lat="40.072842" lon="-105.230575">
  <ele>1586.09</ele>
  <time>2026-08-28T19:06:35Z</time>
  <course>138.63</course>
  <speed>0.0</speed>
  <fix>3d</fix>
</trkpt>
<trkpt lat="40.0728421" lon="-105.2305751">
  <ele>1586.16</ele>
  <time>2026-08-28T19:06:35Z</time>
  <course>9.08</course>
  <speed>0.01414213562373095</speed>
  <fix>3d</fix>
</trkpt>
<trkpt lat="40.072842" lon="-105.230575">
  <ele>1586.09</ele>
  <time>2026-08-28T19:06:35Z</time>
  <course>350.7</course>
  <speed>0.0</speed>
  <fix>3d</fix>
</trkpt>
<trkpt lat="40.0728421" lon="-105.2305751">
  <ele>1586.16</ele>
  <time>2026-08-28T19:06:35Z</time>
  <course>9.07</course>
  <speed>0.01414213562373095</speed>
  <fix>3d</fix>
</trkpt>
<trkpt lat="40.072842" lon="-105.230575">
  <ele>1586.09</ele>
  <time>2026-08-28T19:06:35Z</time>
  <course>278.93</course>
  <speed>0.0</speed>
  <fix>3d</fix>
</trkpt>
<trkpt lat="40.0728421" lon="-105.2305751">
  <ele>1586.16</ele>
  <time>2026-08-28T19:06:36Z</time>
  <course>9.07</course>
  <speed>0.01414213562373095</speed>
  <fix>3d</fix>
</trkpt>
<trkpt lat="40.072842" lon="-105.230575">
  <ele>1586.09</ele>
  <time>2026-08-28T19:06:36Z</time>
  <course>258.33</course>
  <speed>0.0</speed>
  <fix>3d</fix>
</trkpt>
<trkpt lat="40.0728421" lon="-105.2305751">
  <ele>1586.16</ele>
  <time>2026-08-28T19:06:36Z</time>
  <course>9.07</course>
  <speed>0.01414213562373095</speed>
  <fix>3d</fix>
</trkpt>
<trkpt lat="40.072842" lon="-105.230575">
  <ele>1586.09</ele>
  <time>2026-08-28T19:06:36Z</time>
  <course>263.95</course>
  <speed>0.0</speed>
  <fix>3d</fix>
</trkpt>
<trkpt lat="40.0728421" lon="-105.2305751">
  <ele>1586.16</ele>
  <time>2026-08-28T19:06:36Z</time>
  <course>9.07</course>
  <speed>0.01414213562373095</speed>
  <fix>3d</fix>
</trkpt>
<trkpt lat="40.072842" lon="-105.230575">
  <ele>1586.09</ele>
  <time>2026-08-28T19:06:36Z</time>
  <course>267.53</course>
  <speed>0.0</speed>
  <fix>3d</fix>
</trkpt>
<trkpt lat="40.0728421" lon="-105.2305751">
  <ele>1586.16</ele>
  <time>2026-08-28T19:06:36Z</time>
  <course>9.06</course>
  <speed>0.01414213562373095</speed>
  <fix>3d</fix>
</trkpt>
<trkpt lat="40.072842" lon="-105.230575">
  <ele>1586.09</ele>
  <time>2026-08-28T19:06:36Z</time>
  <course>266.09</course>
  <speed>0.0</speed>
  <fix>3d</fix>
</trkpt>
<trkpt lat="40.0728421" lon="-105.2305751">
  <ele>1586.17</ele>
  <time>2026-08-28T19:06:36Z</time>
  <course>9.06</course>
  <speed>0.01414213562373095</speed>
  <fix>3d</fix>
</trkpt>
<trkpt lat="40.072842" lon="-105.230575">
  <ele>1586.09</ele>
  <time>2026-08-28T19:06:36Z</time>
  <course>265.83</course>
  <speed>0.0</speed>
  <fix>3d</fix>
</trkpt>
<trkpt lat="40.0728421" lon="-105.2305751">
  <ele>1586.17</ele>
  <time>2026-08-28T19:06:36Z</time>
  <course>9.06</course>
  <speed>0.01414213562373095</speed>
  <fix>3d</fix>
</trkpt>
<trkpt lat="40.072842" lon="-105.230575">
  <ele>1586.09</ele>
  <time>2026-08-28T19:06:36Z</time>
  <course>266.05</course>
  <speed>0.0</speed>
  <fix>3d</fix>
</trkpt>
<trkpt lat="40.0728421" lon="-105.2305751">
  <ele>1586.17</ele>
  <time>2026-08-28T19:06:36Z</time>
  <course>9.06</course>
  <speed>0.01414213562373095</speed>
  <fix>3d</fix>
</trkpt>
<trkpt lat="40.072842" lon="-105.230575">
  <ele>1586.09</ele>
  <time>2026-08-28T19:06:36Z</time>
  <course>266.06</course>
  <speed>0.0</speed>
  <fix>3d</fix>
</trkpt>
<trkpt lat="40.0728421" lon="-105.2305751">
  <ele>1586.18</ele>
  <time>2026-08-28T19:06:36Z</time>
  <course>9.06</course>
  <speed>0.01414213562373095</speed>
  <fix>3d</fix>
</trkpt>
<trkpt lat="40.072842" lon="-105.230575">
  <ele>1586.09</ele>
  <time>2026-08-28T19:06:36Z</time>
  <course>266.03</course>
  <speed>0.0</speed>
  <fix>3d</fix>
</trkpt>
<trkpt lat="40.0728421" lon="-105.2305751">
  <ele>1586.18</ele>
  <time>2026-08-28T19:06:36Z</time>
  <course>9.05</course>
  <speed>0.01414213562373095</speed>
  <fix>3d</fix>
</trkpt>
<trkpt lat="40.072842" lon="-105.230575">
  <ele>1586.09</ele>
  <time>2026-08-28T19:06:36Z</time>
  <course>302.58</course>
  <speed>0.0</speed>
  <fix>3d</fix>
</trkpt>
<trkpt lat="40.0728421" lon="-105.2305751">
  <ele>1586.18</ele>
  <time>2026-08-28T19:06:36Z</time>
  <course>9.05</course>
  <speed>0.01414213562373095</speed>
  <fix>3d</fix>
</trkpt>
<trkpt lat="40.072842" lon="-105.230575">
  <ele>1586.09</ele>
  <time>2026-08-28T19:06:36Z</time>
  <course>291.89</course>
  <speed>0.0</speed>
  <fix>3d</fix>
</trkpt>
<trkpt lat="40.0728421" lon="-105.2305751">
  <ele>1586.18</ele>
  <time>2026-08-28T19:06:36Z</time>
  <course>9.05</course>
  <speed>0.01414213562373095</speed>
  <fix>3d</fix>
</trkpt>
<trkpt lat="40.072842" lon="-105.230575">
  <ele>1586.09</ele>
  <time>2026-08-28T19:06:36Z</time>
  <course>272.81</course>
  <speed>0.0</speed>
  <fix>3d</fix>
</trkpt>
<trkpt lat="40.0728421" lon="-105.2305751">
  <ele>1586.17</ele>
  <time>2026-08-28T19:06:36Z</time>
  <course>9.05</course>
  <speed>0.01414213562373095</speed>
  <fix>3d</fix>
</trkpt>
<trkpt lat="40.072842" lon="-105.230575">
  <ele>1586.09</ele>
  <time>2026-08-28T19:06:36Z</time>
  <course>159.55</course>
  <speed>0.0</speed>
  <fix>3d</fix>
</trkpt>
<trkpt lat="40.0728421" lon="-105.2305751">
  <ele>1586.17</ele>
  <time>2026-08-28T19:06:36Z</time>
  <course>9.05</course>
  <speed>0.01414213562373095</speed>
  <fix>3d</fix>
</trkpt>
<trkpt lat="40.072842" lon="-105.230575">
  <ele>1586.09</ele>
  <time>2026-08-28T19:06:36Z</time>
  <course>58.52</course>
  <speed>0.0</speed>
  <fix>3d</fix>
</trkpt>
<trkpt lat="40.0728421" lon="-105.2305751">
  <ele>1586.17</ele>
  <time>2026-08-28T19:06:36Z</time>
  <course>9.04</course>
  <speed>0.01414213562373095</speed>
  <fix>3d</fix>
</trkpt>
<trkpt lat="40.072842" lon="-105.230575">
  <ele>1586.09</ele>
  <time>2026-08-28T19:06:36Z</time>
  <course>337.63</course>
  <speed>0.0</speed>
  <fix>3d</fix>
</trkpt>
<trkpt lat="40.0728421" lon="-105.2305751">
  <ele>1586.17</ele>
  <time>2026-08-28T19:06:36Z</time>
  <course>9.04</course>
  <speed>0.01414213562373095</speed>
  <fix>3d</fix>
</trkpt>
<trkpt lat="40.072842" lon="-105.230575">
  <ele>1586.09</ele>
  <time>2026-08-28T19:06:36Z</time>
  <course>325.07</course>
  <speed>0.0</speed>
  <fix>3d</fix>
</trkpt>
<trkpt lat="40.0728421" lon="-105.2305751">
  <ele>1586.17</ele>
  <time>2026-08-28T19:06:36Z</time>
  <course>9.04</course>
  <speed>0.01414213562373095</speed>
  <fix>3d</fix>
</trkpt>
<trkpt lat="40.072842" lon="-105.230575">
  <ele>1586.09</ele>
  <time>2026-08-28T19:06:36Z</time>
  <course>277.69</course>
  <speed>0.0</speed>
  <fix>3d</fix>
</trkpt>
<trkpt lat="40.0728421" lon="-105.2305751">
  <ele>1586.17</ele>
  <time>2026-08-28T19:06:36Z</time>
  <course>9.04</course>
  <speed>0.01414213562373095</speed>
  <fix>3d</fix>
</trkpt>
<trkpt lat="40.072842" lon="-105.230575">
  <ele>1586.09</ele>
  <time>2026-08-28T19:06:36Z</time>
  <course>170.06</course>
  <speed>0.0</speed>
  <fix>3d</fix>
</trkpt>
<trkpt lat="40.0728421" lon="-105.2305751">
  <ele>1586.17</ele>
  <time>2026-08-28T19:06:36Z</time>
  <course>9.04</course>
  <speed>0.01414213562373095</speed>
  <fix>3d</fix>
</trkpt>
<trkpt lat="40.072842" lon="-105.230575">
  <ele>1586.09</ele>
  <time>2026-08-28T19:06:36Z</time>
  <course>302.84</course>
  <speed>0.0</speed>
  <fix>3d</fix>
</trkpt>
<trkpt lat="40.0728421" lon="-105.2305751">
  <ele>1586.17</ele>
  <time>2026-08-28T19:06:36Z</time>
  <course>9.03</course>
  <speed>0.01414213562373095</speed>
  <fix>3d</fix>
</trkpt>
<trkpt lat="40.072842" lon="-105.230575">
  <ele>1586.09</ele>
  <time>2026-08-28T19:06:36Z</time>
  <course>151.29</course>
  <speed>0.0</speed>
  <fix>3d</fix>
</trkpt>
<trkpt lat="40.0728421" lon="-105.2305751">
  <ele>1586.17</ele>
  <time>2026-08-28T19:06:36Z</time>
  <course>9.03</course>
  <speed>0.01414213562373095</speed>
  <fix>3d</fix>
</trkpt>
<trkpt lat="40.072842" lon="-105.230575">
  <ele>1586.09</ele>
  <time>2026-08-28T19:06:36Z</time>
  <course>142.82</course>
  <speed>0.0</speed>
  <fix>3d</fix>
</trkpt>
<trkpt lat="40.0728421" lon="-105.2305751">
  <ele>1586.16</ele>
  <time>2026-08-28T19:06:36Z</time>
  <course>9.03</course>
  <speed>0.01414213562373095</speed>
  <fix>3d</fix>
</trkpt>
<trkpt lat="40.072842" lon="-105.230575">
  <ele>1586.09</ele>
  <time>2026-08-28T19:06:36Z</time>
  <course>335.84</course>
  <speed>0.0</speed>
  <fix>3d</fix>
</trkpt>
<trkpt lat="40.0728421" lon="-105.2305751">
  <ele>1586.17</ele>
  <time>2026-08-28T19:06:36Z</time>
  <course>9.03</course>
  <speed>0.01414213562373095</speed>
  <fix>3d</fix>
</trkpt>
<trkpt lat="40.072842" lon="-105.230575">
  <ele>1586.09</ele>
  <time>2026-08-28T19:06:36Z</time>
  <course>295.66</course>
  <speed>0.0</speed>
  <fix>3d</fix>
</trkpt>
<trkpt lat="40.0728421" lon="-105.2305751">
  <ele>1586.17</ele>
  <time>2026-08-28T19:06:36Z</time>
  <course>9.03</course>
  <speed>0.01414213562373095</speed>
  <fix>3d</fix>
</trkpt>
<trkpt lat="40.072842" lon="-105.230575">
  <ele>1586.09</ele>
  <time>2026-08-28T19:06:36Z</time>
  <course>260.97</course>
  <speed>0.0</speed>
  <fix>3d</fix>
</trkpt>
<trkpt lat="40.0728421" lon="-105.2305751">
  <ele>1586.17</ele>
  <time>2026-08-28T19:06:36Z</time>
  <course>9.02</course>
  <speed>0.01414213562373095</speed>
  <fix>3d</fix>
</trkpt>
<trkpt lat="40.072842" lon="-105.230575">
  <ele>1586.09</ele>
  <time>2026-08-28T19:06:36Z</time>
  <course>337.61</course>
  <speed>0.0</speed>
  <fix>3d</fix>
</trkpt>
<trkpt lat="40.0728421" lon="-105.2305751">
  <ele>1586.18</ele>
  <time>2026-08-28T19:06:36Z</time>
  <course>9.02</course>
  <speed>0.01414213562373095</speed>
  <fix>3d</fix>
</trkpt>
<trkpt lat="40.072842" lon="-105.230575">
  <ele>1586.09</ele>
  <time>2026-08-28T19:06:36Z</time>
  <course>325.99</course>
  <speed>0.0</speed>
  <fix>3d</fix>
</trkpt>
<trkpt lat="40.0728421" lon="-105.2305751">
  <ele>1586.18</ele>
  <time>2026-08-28T19:06:36Z</time>
  <course>9.02</course>
  <speed>0.01414213562373095</speed>
  <fix>3d</fix>
</trkpt>
<trkpt lat="40.072842" lon="-105.230575">
  <ele>1586.09</ele>
  <time>2026-08-28T19:06:36Z</time>
  <course>272.88</course>
  <speed>0.0</speed>
  <fix>3d</fix>
</trkpt>
<trkpt lat="40.0728421" lon="-105.2305751">
  <ele>1586.19</ele>
  <time>2026-08-28T19:06:36Z</time>
  <course>9.02</course>
  <speed>0.01414213562373095</speed>
  <fix>3d</fix>
</trkpt>
<trkpt lat="40.072842" lon="-105.230575">
  <ele>1586.09</ele>
  <time>2026-08-28T19:06:36Z</time>
  <course>175.02</course>
  <speed>0.0</speed>
  <fix>3d</fix>
</trkpt>
<trkpt lat="40.0728421" lon="-105.2305751">
  <ele>1586.19</ele>
  <time>2026-08-28T19:06:36Z</time>
  <course>9.02</course>
  <speed>0.01414213562373095</speed>
  <fix>3d</fix>
</trkpt>
<trkpt lat="40.072842" lon="-105.230575">
  <ele>1586.09</ele>
  <time>2026-08-28T19:06:36Z</time>
  <course>302.46</course>
  <speed>0.0</speed>
  <fix>3d</fix>
</trkpt>
<trkpt lat="40.0728421" lon="-105.2305751">
  <ele>1586.19</ele>
  <time>2026-08-28T19:06:36Z</time>
  <course>9.01</course>
  <speed>0.01414213562373095</speed>
  <fix>3d</fix>
</trkpt>
<trkpt lat="40.072842" lon="-105.230575">
  <ele>1586.09</ele>
  <time>2026-08-28T19:06:36Z</time>
  <course>294.46</course>
  <speed>0.0</speed>
  <fix>3d</fix>
</trkpt>
<trkpt lat="40.0728421" lon="-105.2305751">
  <ele>1586.19</ele>
  <time>2026-08-28T19:06:36Z</time>
  <course>9.01</course>
  <speed>0.01414213562373095</speed>
  <fix>3d</fix>
</trkpt>
<trkpt lat="40.072842" lon="-105.230575">
  <ele>1586.09</ele>
  <time>2026-08-28T19:06:36Z</time>
  <course>288.43</course>
  <speed>0.0</speed>
  <fix>3d</fix>
</trkpt>
<trkpt lat="40.0728421" lon="-105.2305751">
  <ele>1586.2</ele>
  <time>2026-08-28T19:06:36Z</time>
  <course>9.01</course>
  <speed>0.01414213562373095</speed>
  <fix>3d</fix>
</trkpt>
<trkpt lat="40.072842" lon="-105.230575">
  <ele>1586.09</ele>
  <time>2026-08-28T19:06:36Z</time>
  <course>290.18</course>
  <speed>0.0</speed>
  <fix>3d</fix>
</trkpt>
<trkpt lat="40.0728421" lon="-105.2305751">
  <ele>1586.2</ele>
  <time>2026-08-28T19:06:36Z</time>
  <course>9.01</course>
  <speed>0.01414213562373095</speed>
  <fix>3d</fix>
</trkpt>
<trkpt lat="40.072842" lon="-105.230575">
  <ele>1586.09</ele>
  <time>2026-08-28T19:06:36Z</time>
  <course>290.89</course>
  <speed>0.0</speed>
  <fix>3d</fix>
</trkpt>
<trkpt lat="40.0728421" lon="-105.2305751">
  <ele>1586.2</ele>
  <time>2026-08-28T19:06:36Z</time>
  <course>9.01</course>
  <speed>0.01414213562373095</speed>
  <fix>3d</fix>
</trkpt>
<trkpt lat="40.072842" lon="-105.230575">
  <ele>1586.09</ele>
  <time>2026-08-28T19:06:36Z</time>
  <course>290.57</course>
  <speed>0.0</speed>
  <fix>3d</fix>
</trkpt>
<trkpt lat="40.0728421" lon="-105.2305751">
  <ele>1586.2</ele>
  <time>2026-08-28T19:06:36Z</time>
  <course>9.0</course>
  <speed>0.01414213562373095</speed>
  <fix>3d</fix>
</trkpt>
<trkpt lat="40.072842" lon="-105.230575">
  <ele>1586.09</ele>
  <time>2026-08-28T19:06:36Z</time>
  <course>305.41</course>
  <speed>0.0</speed>
  <fix>3d</fix>
</trkpt>
<trkpt lat="40.0728421" lon="-105.2305751">
  <ele>1586.19</ele>
  <time>2026-08-28T19:06:36Z</time>
  <course>9.0</course>
  <speed>0.01414213562373095</speed>
  <fix>3d</fix>
</trkpt>
<trkpt lat="40.072842" lon="-105.230575">
  <ele>1586.09</ele>
  <time>2026-08-28T19:06:36Z</time>
  <course>299.52</course>
  <speed>0.0</speed>
  <fix>3d</fix>
</trkpt>
<trkpt lat="40.0728421" lon="-105.2305751">
  <ele>1586.19</ele>
  <time>2026-08-28T19:06:36Z</time>
  <course>9.0</course>
  <speed>0.01414213562373095</speed>
  <fix>3d</fix>
</trkpt>
<trkpt lat="40.072842" lon="-105.230575">
  <ele>1586.09</ele>
  <time>2026-08-28T19:06:36Z</time>
  <course>285.0</course>
  <speed>0.0</speed>
  <fix>3d</fix>
</trkpt>
<trkpt lat="40.0728421" lon="-105.2305751">
  <ele>1586.19</ele>
  <time>2026-08-28T19:06:36Z</time>
  <course>9.0</course>
  <speed>0.01414213562373095</speed>
  <fix>3d</fix>
</trkpt>
<trkpt lat="40.072842" lon="-105.230575">
  <ele>1586.09</ele>
  <time>2026-08-28T19:06:36Z</time>
  <course>290.11</course>
  <speed>0.0</speed>
  <fix>3d</fix>
</trkpt>
<trkpt lat="40.0728421" lon="-105.2305751">
  <ele>1586.19</ele>
  <time>2026-08-28T19:06:36Z</time>
  <course>9.0</course>
  <speed>0.01414213562373095</speed>
  <fix>3d</fix>
</trkpt>
<trkpt lat="40.072842" lon="-105.230575">
  <ele>1586.09</ele>
  <time>2026-08-28T19:06:36Z</time>
  <course>291.46</course>
  <speed>0.0</speed>
  <fix>3d</fix>
</trkpt>
<trkpt lat="40.0728421" lon="-105.2305751">
  <ele>1586.19</ele>
  <time>2026-08-28T19:06:36Z</time>
  <course>8.99</course>
  <speed>0.01414213562373095</speed>
  <fix>3d</fix>
</trkpt>
<trkpt lat="40.072842" lon="-105.230575">
  <ele>1586.09</ele>
  <time>2026-08-28T19:06:36Z</time>
  <course>290.52</course>
  <speed>0.0</speed>
  <fix>3d</fix>
</trkpt>
<trkpt lat="40.0728421" lon="-105.2305751">
  <ele>1586.19</ele>
  <time>2026-08-28T19:06:36Z</time>
  <course>8.99</course>
  <speed>0.01414213562373095</speed>
  <fix>3d</fix>
</trkpt>
<trkpt lat="40.072842" lon="-105.230575">
  <ele>1586.09</ele>
  <time>2026-08-28T19:06:36Z</time>
  <course>290.45</course>
  <speed>0.0</speed>
  <fix>3d</fix>
</trkpt>
<trkpt lat="40.0728421" lon="-105.2305751">
  <ele>1586.19</ele>
  <time>2026-08-28T19:06:36Z</time>
  <course>8.99</course>
  <speed>0.01414213562373095</speed>
  <fix>3d</fix>
</trkpt>
<trkpt lat="40.072842" lon="-105.230575">
  <ele>1586.09</ele>
  <time>2026-08-28T19:06:36Z</time>
  <course>290.58</course>
  <speed>0.0</speed>
  <fix>3d</fix>
</trkpt>
<trkpt lat="40.0728421" lon="-105.2305751">
  <ele>1586.19</ele>
  <time>2026-08-28T19:06:36Z</time>
  <course>8.99</course>
  <speed>0.01414213562373095</speed>
  <fix>3d</fix>
</trkpt>
<trkpt lat="40.072842" lon="-105.230575">
  <ele>1586.09</ele>
  <time>2026-08-28T19:06:36Z</time>
  <course>290.58</course>
  <speed>0.0</speed>
  <fix>3d</fix>
</trkpt>
<trkpt lat="40.0728421" lon="-105.2305751">
  <ele>1586.18</ele>
  <time>2026-08-28T19:06:36Z</time>
  <course>8.99</course>
  <speed>0.01414213562373095</speed>
  <fix>3d</fix>
</trkpt>
<trkpt lat="40.072842" lon="-105.230575">
  <ele>1586.09</ele>
  <time>2026-08-28T19:06:36Z</time>
  <course>290.56</course>
  <speed>0.0</speed>
  <fix>3d</fix>
</trkpt>
<trkpt lat="40.0728421" lon="-105.2305751">
  <ele>1586.18</ele>
  <time>2026-08-28T19:06:36Z</time>
  <course>8.98</course>
  <speed>0.01414213562373095</speed>
  <fix>3d</fix>
</trkpt>
<trkpt lat="40.072842" lon="-105.230575">
  <ele>1586.09</ele>
  <time>2026-08-28T19:06:36Z</time>
  <course>290.56</course>
  <speed>0.0</speed>
  <fix>3d</fix>
</trkpt>
<trkpt lat="40.0728421" lon="-105.2305751">
  <ele>1586.18</ele>
  <time>2026-08-28T19:06:36Z</time>
  <course>8.98</course>
  <speed>0.01414213562373095</speed>
  <fix>3d</fix>
</trkpt>
<trkpt lat="40.072842" lon="-105.230575">
  <ele>1586.09</ele>
  <time>2026-08-28T19:06:36Z</time>
  <course>290.56</course>
  <speed>0.0</speed>
  <fix>3d</fix>
</trkpt>
<trkpt lat="40.0728421" lon="-105.2305751">
  <ele>1586.18</ele>
  <time>2026-08-28T19:06:36Z</time>
  <course>8.98</course>
  <speed>0.01414213562373095</speed>
  <fix>3d</fix>
</trkpt>
<trkpt lat="40.072842" lon="-105.230575">
  <ele>1586.09</ele>
  <time>2026-08-28T19:06:36Z</time>
  <course>290.56</course>
  <speed>0.0</speed>
  <fix>3d</fix>
</trkpt>
<trkpt lat="40.0728421" lon="-105.2305751">
  <ele>1586.18</ele>
  <time>2026-08-28T19:06:36Z</time>
  <course>8.98</course>
  <speed>0.01414213562373095</speed>
  <fix>3d</fix>
</trkpt>
<trkpt lat="40.072842" lon="-105.230575">
  <ele>1586.09</ele>
  <time>2026-08-28T19:06:36Z</time>
  <course>290.56</course>
  <speed>0.0</speed>
  <fix>3d</fix>
</trkpt>
<trkpt lat="40.0728421" lon="-105.2305751">
  <ele>1586.19</ele>
  <time>2026-08-28T19:06:36Z</time>
  <course>8.98</course>
  <speed>0.01414213562373095</speed>
  <fix>3d</fix>
</trkpt>
<trkpt lat="40.072842" lon="-105.230575">
  <ele>1586.09</ele>
  <time>2026-08-28T19:06:36Z</time>
  <course>290.56</course>
  <speed>0.0</speed>
  <fix>3d</fix>
</trkpt>
<trkpt lat="40.0728421" lon="-105.2305751">
  <ele>1586.19</ele>
  <time>2026-08-28T19:06:36Z</time>
  <course>8.98</course>
  <speed>0.01414213562373095</speed>
  <fix>3d</fix>
</trkpt>
<trkpt lat="40.072842" lon="-105.230575">
  <ele>1586.09</ele>
  <time>2026-08-28T19:06:36Z</time>
  <course>290.56</course>
  <speed>0.0</speed>
  <fix>3d</fix>
</trkpt>
<trkpt lat="40.0728421" lon="-105.2305751">
  <ele>1586.19</ele>
  <time>2026-08-28T19:06:36Z</time>
  <course>8.97</course>
  <speed>0.01414213562373095</speed>
  <fix>3d</fix>
</trkpt>
<trkpt lat="40.072842" lon="-105.230575">
  <ele>1586.09</ele>
  <time>2026-08-28T19:06:36Z</time>
  <course>215.02</course>
  <speed>0.0</speed>
  <fix>3d</fix>
</trkpt>
<trkpt lat="40.0728421" lon="-105.2305751">
  <ele>1586.19</ele>
  <time>2026-08-28T19:06:36Z</time>
  <course>8.97</course>
  <speed>0.022360679774997897</speed>
  <fix>3d</fix>
</trkpt>
<trkpt lat="40.072842" lon="-105.230575">
  <ele>1586.09</ele>
  <time>2026-08-28T19:06:36Z</time>
  <course>150.1</course>
  <speed>0.0</speed>
  <fix>3d</fix>
</trkpt>
<trkpt lat="40.0728422" lon="-105.2305752">
  <ele>1586.19</ele>
  <time>2026-08-28T19:06:36Z</time>
  <course>8.97</course>
  <speed>0.022360679774997897</speed>
  <fix>3d</fix>
</trkpt>
<trkpt lat="40.072842" lon="-105.230575">
  <ele>1586.09</ele>
  <time>2026-08-28T19:06:36Z</time>
  <course>130.0</course>
  <speed>0.0</speed>
  <fix>3d</fix>
</trkpt>
<trkpt lat="40.0728423" lon="-105.2305752">
  <ele>1586.19</ele>
  <time>2026-08-28T19:06:36Z</time>
  <course>8.97</course>
  <speed>0.0282842712474619</speed>
  <fix>3d</fix>
</trkpt>
<trkpt lat="40.072842" lon="-105.230575">
  <ele>1586.09</ele>
  <time>2026-08-28T19:06:36Z</time>
  <course>319.6</course>
  <speed>0.0</speed>
  <fix>3d</fix>
</trkpt>
<trkpt lat="40.0728423" lon="-105.2305753">
  <ele>1586.19</ele>
  <time>2026-08-28T19:06:36Z</time>
  <course>8.97</course>
  <speed>0.03605551275463989</speed>
  <fix>3d</fix>
</trkpt>
<trkpt lat="40.072842" lon="-105.230575">
  <ele>1586.09</ele>
  <time>2026-08-28T19:06:36Z</time>
  <course>284.61</course>
  <speed>0.0</speed>
  <fix>3d</fix>
</trkpt>
<trkpt lat="40.0728424" lon="-105.2305754">
  <ele>1586.19</ele>
  <time>2026-08-28T19:06:36Z</time>
  <course>8.96</course>
  <speed>0.03605551275463989</speed>
  <fix>3d</fix>
</trkpt>
<trkpt lat="40.072842" lon="-105.230575">
  <ele>1586.09</ele>
  <time>2026-08-28T19:06:36Z</time>
  <course>262.03</course>
  <speed>0.0</speed>
  <fix>3d</fix>
</trkpt>
<trkpt lat="40.0728424" lon="-105.2305754">
  <ele>1586.19</ele>
  <time>2026-08-28T19:06:36Z</time>
  <course>8.96</course>
  <speed>0.03605551275463989</speed>
  <fix>3d</fix>
</trkpt>
<trkpt lat="40.072842" lon="-105.230575">
  <ele>1586.09</ele>
  <time>2026-08-28T19:06:36Z</time>
  <course>281.79</course>
  <speed>0.0</speed>
  <fix>3d</fix>
</trkpt>
<trkpt lat="40.0728425" lon="-105.2305755">
  <ele>1586.19</ele>
  <time>2026-08-28T19:06:36Z</time>
  <course>8.96</course>
  <speed>0.05</speed>
  <fix>3d</fix>
</trkpt>
<trkpt lat="40.072842" lon="-105.230575">
  <ele>1586.09</ele>
  <time>2026-08-28T19:06:36Z</time>
  <course>282.61</course>
  <speed>0.0</speed>
  <fix>3d</fix>
</trkpt>
<trkpt lat="40.0728426" lon="-105.2305756">
  <ele>1586.19</ele>
  <time>2026-08-28T19:06:36Z</time>
  <course>8.96</course>
  <speed>0.05</speed>
  <fix>3d</fix>
</trkpt>
<trkpt lat="40.072842" lon="-105.230575">
  <ele>1586.09</ele>
  <time>2026-08-28T19:06:36Z</time>
  <course>280.47</course>
  <speed>0.0</speed>
  <fix>3d</fix>
</trkpt>
<trkpt lat="40.0728427" lon="-105.2305757">
  <ele>1586.2</ele>
  <time>2026-08-28T19:06:36Z</time>
  <course>8.95</course>
  <speed>0.05</speed>
  <fix>3d</fix>
</trkpt>
<trkpt lat="40.072842" lon="-105.230575">
  <ele>1586.09</ele>
  <time>2026-08-28T19:06:36Z</time>
  <course>280.6</course>
  <speed>0.0</speed>
  <fix>3d</fix>
</trkpt>
<trkpt lat="40.0728428" lon="-105.2305757">
  <ele>1586.2</ele>
  <time>2026-08-28T19:06:36Z</time>
  <course>8.95</course>
  <speed>0.05830951894845301</speed>
  <fix>3d</fix>
</trkpt>
<trkpt lat="40.072842" lon="-105.230575">
  <ele>1586.09</ele>
  <time>2026-08-28T19:06:36Z</time>
  <course>280.89</course>
  <speed>0.0</speed>
  <fix>3d</fix>
</trkpt>
<trkpt lat="40.0728429" lon="-105.2305758">
  <ele>1586.2</ele>
  <time>2026-08-28T19:06:36Z</time>
  <course>8.95</course>
  <speed>0.06403124237432849</speed>
  <fix>3d</fix>
</trkpt>
<trkpt lat="40.072842" lon="-105.230575">
  <ele>1586.09</ele>
  <time>2026-08-28T19:06:36Z</time>
  <course>280.83</course>
  <speed>0.0</speed>
  <fix>3d</fix>
</trkpt>
<trkpt lat="40.072843" lon="-105.2305759">
  <ele>1586.21</ele>
  <time>2026-08-28T19:06:36Z</time>
  <course>8.95</course>
  <speed>0.06403124237432849</speed>
  <fix>3d</fix>
</trkpt>
<trkpt lat="40.072842" lon="-105.230575">
  <ele>1586.09</ele>
  <time>2026-08-28T19:06:36Z</time>
  <course>89.98</course>
  <speed>0.0</speed>
  <fix>3d</fix>
</trkpt>
<trkpt lat="40.0728431" lon="-105.230576">
  <ele>1586.21</ele>
  <time>2026-08-28T19:06:36Z</time>
  <course>8.95</course>
  <speed>0.07211102550927978</speed>
  <fix>3d</fix>
</trkpt>
<trkpt lat="40.072842" lon="-105.230575">
  <ele>1586.09</ele>
  <time>2026-08-28T19:06:36Z</time>
  <course>81.02</course>
  <speed>0.0</speed>
  <fix>3d</fix>
</trkpt>
<trkpt lat="40.0728432" lon="-105.2305761">
  <ele>1586.2</ele>
  <time>2026-08-28T19:06:36Z</time>
  <course>8.94</course>
  <speed>0.07211102550927978</speed>
  <fix>3d</fix>
</trkpt>
<trkpt lat="40.072842" lon="-105.230575">
  <ele>1586.09</ele>
  <time>2026-08-28T19:06:36Z</time>
  <course>309.41</course>
  <speed>0.0</speed>
  <fix>3d</fix>
</trkpt>
<trkpt lat="40.0728433" lon="-105.2305762">
  <ele>1586.2</ele>
  <time>2026-08-28T19:06:36Z</time>
  <course>8.94</course>
  <speed>0.08602325267042626</speed>
  <fix>3d</fix>
</trkpt>
<trkpt lat="40.072842" lon="-105.230575">
  <ele>1586.09</ele>
  <time>2026-08-28T19:06:36Z</time>
  <course>264.01</course>
  <speed>0.0</speed>
  <fix>3d</fix>
</trkpt>
<trkpt lat="40.0728434" lon="-105.2305764">
  <ele>1586.19</ele>
  <time>2026-08-28T19:06:36Z</time>
  <course>8.94</course>
  <speed>0.08602325267042626</speed>
  <fix>3d</fix>
</trkpt>
<trkpt lat="40.072842" lon="-105.230575">
  <ele>1586.09</ele>
  <time>2026-08-28T19:06:36Z</time>
  <course>283.17</course>
  <speed>0.0</speed>
  <fix>3d</fix>
</trkpt>
<trkpt lat="40.0728435" lon="-105.2305765">
  <ele>1586.18</ele>
  <time>2026-08-28T19:06:36Z</time>
  <course>8.94</course>
  <speed>0.08602325267042626</speed>
  <fix>3d</fix>
</trkpt>
<trkpt lat="40.072842" lon="-105.230575">
  <ele>1586.09</ele>
  <time>2026-08-28T19:06:36Z</time>
  <course>295.39</course>
  <speed>0.0</speed>
  <fix>3d</fix>
</trkpt>
<trkpt lat="40.0728437" lon="-105.2305766">
  <ele>1586.17</ele>
  <time>2026-08-28T19:06:36Z</time>
  <course>8.93</course>
  <speed>0.1</speed>
  <fix>3d</fix>
</trkpt>
<trkpt lat="40.072842" lon="-105.230575">
  <ele>1586.09</ele>
  <time>2026-08-28T19:06:36Z</time>
  <course>285.54</course>
  <speed>0.0</speed>
  <fix>3d</fix>
</trkpt>
<trkpt lat="40.0728438" lon="-105.2305767">
  <ele>1586.17</ele>
  <time>2026-08-28T19:06:36Z</time>
  <course>8.93</course>
  <speed>0.1</speed>
  <fix>3d</fix>
</trkpt>
<trkpt lat="40.072842" lon="-105.230575">
  <ele>1586.09</ele>
  <time>2026-08-28T19:06:36Z</time>
  <course>285.22</course>
  <speed>0.0</speed>
  <fix>3d</fix>
</trkpt>
<trkpt lat="40.0728439" lon="-105.2305768">
  <ele>1586.17</ele>
  <time>2026-08-28T19:06:36Z</time>
  <course>8.93</course>
  <speed>0.1</speed>
  <fix>3d</fix>
</trkpt>
<trkpt lat="40.072842" lon="-105.230575">
  <ele>1586.09</ele>
  <time>2026-08-28T19:06:36Z</time>
  <course>286.4</course>
  <speed>0.0</speed>
  <fix>3d</fix>
</trkpt>
<trkpt lat="40.072844" lon="-105.230577">
  <ele>1586.17</ele>
  <time>2026-08-28T19:06:36Z</time>
  <course>8.92</course>
  <speed>0.10816653826391968</speed>
  <fix>3d</fix>
</trkpt>
<trkpt lat="40.072842" lon="-105.230575">
  <ele>1586.09</ele>
  <time>2026-08-28T19:06:36Z</time>
  <course>286.3</course>
  <speed>0.0</speed>
  <fix>3d</fix>
</trkpt>
<trkpt lat="40.0728442" lon="-105.2305771">
  <ele>1586.18</ele>
  <time>2026-08-28T19:06:36Z</time>
  <course>8.92</course>
  <speed>0.11401754250991379</speed>
  <fix>3d</fix>
</trkpt>
<trkpt lat="40.072842" lon="-105.230575">
  <ele>1586.09</ele>
  <time>2026-08-28T19:06:36Z</time>
  <course>286.15</course>
  <speed>0.0</speed>
  <fix>3d</fix>
</trkpt>
<trkpt lat="40.0728444" lon="-105.2305773">
  <ele>1586.18</ele>
  <time>2026-08-28T19:06:36Z</time>
  <course>8.92</course>
  <speed>0.12206555615733702</speed>
  <fix>3d</fix>
</trkpt>
<trkpt lat="40.072842" lon="-105.230575">
  <ele>1586.09</ele>
  <time>2026-08-28T19:06:36Z</time>
  <course>286.18</course>
  <speed>0.0</speed>
  <fix>3d</fix>
</trkpt>
<trkpt lat="40.0728445" lon="-105.2305774">
  <ele>1586.18</ele>
  <time>2026-08-28T19:06:36Z</time>
  <course>8.92</course>
  <speed>0.12806248474865697</speed>
  <fix>3d</fix>
</trkpt>
<trkpt lat="40.072842" lon="-105.230575">
  <ele>1586.09</ele>
  <time>2026-08-28T19:06:36Z</time>
  <course>286.2</course>
  <speed>0.0</speed>
  <fix>3d</fix>
</trkpt>
<trkpt lat="40.0728446" lon="-105.2305775">
  <ele>1586.18</ele>
  <time>2026-08-28T19:06:36Z</time>
  <course>8.91</course>
  <speed>0.12806248474865697</speed>
  <fix>3d</fix>
</trkpt>
<trkpt lat="40.072842" lon="-105.230575">
  <ele>1586.09</ele>
  <time>2026-08-28T19:06:36Z</time>
  <course>286.19</course>
  <speed>0.0</speed>
  <fix>3d</fix>
</trkpt>
<trkpt lat="40.0728447" lon="-105.2305776">
  <ele>1586.17</ele>
  <time>2026-08-28T19:06:36Z</time>
  <course>8.91</course>
  <speed>0.13601470508735444</speed>
  <fix>3d</fix>
</trkpt>
<trkpt lat="40.072842" lon="-105.230575">
  <ele>1586.09</ele>
  <time>2026-08-28T19:06:36Z</time>
  <course>286.19</course>
  <speed>0.0</speed>
  <fix>3d</fix>
</trkpt>
<trkpt lat="40.0728449" lon="-105.2305778">
  <ele>1586.17</ele>
  <time>2026-08-28T19:06:36Z</time>
  <course>8.91</course>
  <speed>0.13601470508735444</speed>
  <fix>3d</fix>
</trkpt>
<trkpt lat="40.072842" lon="-105.230575">
  <ele>1586.09</ele>
  <time>2026-08-28T19:06:36Z</time>
  <course>286.19</course>
  <speed>0.0</speed>
  <fix>3d</fix>
</trkpt>
<trkpt lat="40.0728451" lon="-105.230578">
  <ele>1586.17</ele>
  <time>2026-08-28T19:06:36Z</time>
  <course>8.9</course>
  <speed>0.15</speed>
  <fix>3d</fix>
</trkpt>
<trkpt lat="40.072842" lon="-105.230575">
  <ele>1586.09</ele>
  <time>2026-08-28T19:06:36Z</time>
  <course>286.19</course>
  <speed>0.0</speed>
  <fix>3d</fix>
</trkpt>
<trkpt lat="40.0728453" lon="-105.2305782">
  <ele>1586.17</ele>
  <time>2026-08-28T19:06:36Z</time>
  <course>8.9</course>
  <speed>0.15</speed>
  <fix>3d</fix>
</trkpt>
<trkpt lat="40.072842" lon="-105.230575">
  <ele>1586.09</ele>
  <time>2026-08-28T19:06:36Z</time>
  <course>286.19</course>
  <speed>0.0</speed>
  <fix>3d</fix>
</trkpt>
<trkpt lat="40.0728453" lon="-105.2305782">
  <ele>1586.18</ele>
  <time>2026-08-28T19:06:36Z</time>
  <course>8.9</course>
  <speed>0.15</speed>
  <fix>3d</fix>
</trkpt>
<trkpt lat="40.072842" lon="-105.230575">
  <ele>1586.09</ele>
  <time>2026-08-28T19:06:36Z</time>
  <course>205.68</course>
  <speed>0.0</speed>
  <fix>3d</fix>
</trkpt>
<trkpt lat="40.0728453" lon="-105.2305782">
  <ele>1586.18</ele>
  <time>2026-08-28T19:06:36Z</time>
  <course>8.9</course>
  <speed>0.15</speed>
  <fix>3d</fix>
</trkpt>
<trkpt lat="40.072842" lon="-105.230575">
  <ele>1586.09</ele>
  <time>2026-08-28T19:06:36Z</time>
  <course>70.57</course>
  <speed>0.0</speed>
  <fix>3d</fix>
</trkpt>
<trkpt lat="40.0728455" lon="-105.2305784">
  <ele>1586.19</ele>
  <time>2026-08-28T19:06:36Z</time>
  <course>8.89</course>
  <speed>0.15</speed>
  <fix>3d</fix>
</trkpt>
<trkpt lat="40.072842" lon="-105.230575">
  <ele>1586.09</ele>
  <time>2026-08-28T19:06:36Z</time>
  <course>350.83</course>
  <speed>0.0</speed>
  <fix>3d</fix>
</trkpt>
<trkpt lat="40.0728457" lon="-105.2305786">
  <ele>1586.2</ele>
  <time>2026-08-28T19:06:36Z</time>
  <course>8.89</course>
  <speed>0.16401219466856726</speed>
  <fix>3d</fix>
</trkpt>
<trkpt lat="40.072842" lon="-105.230575">
  <ele>1586.09</ele>
  <time>2026-08-28T19:06:36Z</time>
  <course>298.18</course>
  <speed>0.0</speed>
  <fix>3d</fix>
</trkpt>
<trkpt lat="40.0728459" lon="-105.2305788">
  <ele>1586.2</ele>
  <time>2026-08-28T19:06:36Z</time>
  <course>8.89</course>
  <speed>0.17204650534085253</speed>
  <fix>3d</fix>
</trkpt>
<trkpt lat="40.072842" lon="-105.230575">
  <ele>1586.09</ele>
  <time>2026-08-28T19:06:36Z</time>
  <course>145.98</course>
  <speed>0.0</speed>
  <fix>3d</fix>
</trkpt>
<trkpt lat="40.0728458" lon="-105.2305787">
  <ele>1586.2</ele>
  <time>2026-08-28T19:06:36Z</time>
  <course>8.88</course>
  <speed>0.16401219466856726</speed>
  <fix>3d</fix>
</trkpt>
<trkpt lat="40.072842" lon="-105.230575">
  <ele>1586.09</ele>
  <time>2026-08-28T19:06:36Z</time>
  <course>134.99</course>
  <speed>0.0</speed>
  <fix>3d</fix>
</trkpt>
<trkpt lat="40.0728458" lon="-105.2305787">
  <ele>1586.19</ele>
  <time>2026-08-28T19:06:36Z</time>
  <course>8.88</course>
  <speed>0.16401219466856726</speed>
  <fix>3d</fix>
</trkpt>
<trkpt lat="40.072842" lon="-105.230575">
  <ele>1586.09</ele>
  <time>2026-08-28T19:06:36Z</time>
  <course>332.39</course>
  <speed>0.0</speed>
  <fix>3d</fix>
</trkpt>
<trkpt lat="40.072846" lon="-105.2305788">
  <ele>1586.18</ele>
  <time>2026-08-28T19:06:36Z</time>
  <course>8.88</course>
  <speed>0.16401219466856726</speed>
  <fix>3d</fix>
</trkpt>
<trkpt lat="40.072842" lon="-105.230575">
  <ele>1586.09</ele>
  <time>2026-08-28T19:06:36Z</time>
  <course>328.2</course>
  <speed>0.0</speed>
  <fix>3d</fix>
</trkpt>
<trkpt lat="40.0728462" lon="-105.230579">
  <ele>1586.18</ele>
  <time>2026-08-28T19:06:36Z</time>
  <course>8.87</course>
  <speed>0.17204650534085253</speed>
  <fix>3d</fix>
</trkpt>
<trkpt lat="40.072842" lon="-105.230575">
  <ele>1586.09</ele>
  <time>2026-08-28T19:06:36Z</time>
  <course>327.46</course>
  <speed>0.0</speed>
  <fix>3d</fix>
</trkpt>
<trkpt lat="40.0728464" lon="-105.2305793">
  <ele>1586.18</ele>
  <time>2026-08-28T19:06:36Z</time>
  <course>8.87</course>
  <speed>0.18601075237738274</speed>
  <fix>3d</fix>
</trkpt>
<trkpt lat="40.072842" lon="-105.230575">
  <ele>1586.09</ele>
  <time>2026-08-28T19:06:36Z</time>
  <course>147.47</course>
  <speed>0.0</speed>
  <fix>3d</fix>
</trkpt>
<trkpt lat="40.0728465" lon="-105.2305794">
  <ele>1586.18</ele>
  <time>2026-08-28T19:06:36Z</time>
  <course>8.87</course>
  <speed>0.18601075237738274</speed>
  <fix>3d</fix>
</trkpt>
<trkpt lat="40.072842" lon="-105.230575">
  <ele>1586.09</ele>
  <time>2026-08-28T19:06:36Z</time>
  <course>358.82</course>
  <speed>0.0</speed>
  <fix>3d</fix>
</trkpt>
<trkpt lat="40.0728463" lon="-105.2305792">
  <ele>1586.19</ele>
  <time>2026-08-28T19:06:36Z</time>
  <course>8.87</course>
  <speed>0.17204650534085253</speed>
  <fix>3d</fix>
</trkpt>
<trkpt lat="40.072842" lon="-105.230575">
  <ele>1586.09</ele>
  <time>2026-08-28T19:06:36Z</time>
  <course>296.58</course>
  <speed>0.0</speed>
  <fix>3d</fix>
</trkpt>
<trkpt lat="40.0728463" lon="-105.2305792">
  <ele>1586.19</ele>
  <time>2026-08-28T19:06:36Z</time>
  <course>8.86</course>
  <speed>0.17204650534085253</speed>
  <fix>3d</fix>
</trkpt>
<trkpt lat="40.072842" lon="-105.230575">
  <ele>1586.09</ele>
  <time>2026-08-28T19:06:36Z</time>
  <course>248.31</course>
  <speed>0.0</speed>
  <fix>3d</fix>
</trkpt>
<trkpt lat="40.0728465" lon="-105.2305793">
  <ele>1586.19</ele>
  <time>2026-08-28T19:06:36Z</time>
  <course>8.86</course>
  <speed>0.17804493814764857</speed>
  <fix>3d</fix>
</trkpt>
<trkpt lat="40.072842" lon="-105.230575">
  <ele>1586.09</ele>
  <time>2026-08-28T19:06:36Z</time>
  <course>257.25</course>
  <speed>0.0</speed>
  <fix>3d</fix>
</trkpt>
<trkpt lat="40.0728467" lon="-105.2305796">
  <ele>1586.2</ele>
  <time>2026-08-28T19:06:36Z</time>
  <course>8.86</course>
  <speed>0.18601075237738274</speed>
  <fix>3d</fix>
</trkpt>
<trkpt lat="40.072842" lon="-105.230575">
  <ele>1586.09</ele>
  <time>2026-08-28T19:06:36Z</time>
  <course>269.34</course>
  <speed>0.0</speed>
  <fix>3d</fix>
</trkpt>
<trkpt lat="40.072847" lon="-105.2305798">
  <ele>1586.2</ele>
  <time>2026-08-28T19:06:36Z</time>
  <course>8.85</course>
  <speed>0.194164878389476</speed>
  <fix>3d</fix>
</trkpt>
<trkpt lat="40.072842" lon="-105.230575">
  <ele>1586.09</ele>
  <time>2026-08-28T19:06:36Z</time>
  <course>266.62</course>
  <speed>0.0</speed>
  <fix>3d</fix>
</trkpt>
<trkpt lat="40.0728467" lon="-105.2305796">
  <ele>1586.19</ele>
  <time>2026-08-28T19:06:36Z</time>
  <course>8.85</course>
  <speed>0.18601075237738274</speed>
  <fix>3d</fix>
</trkpt>
<trkpt lat="40.072842" lon="-105.230575">
  <ele>1586.09</ele>
  <time>2026-08-28T19:06:36Z</time>
  <course>265.51</course>
  <speed>0.0</speed>
  <fix>3d</fix>
</trkpt>
<trkpt lat="40.0728465" lon="-105.2305794">
  <ele>1586.19</ele>
  <time>2026-08-28T19:06:36Z</time>
  <course>8.85</course>
  <speed>0.18601075237738274</speed>
  <fix>3d</fix>
</trkpt>
<trkpt lat="40.072842" lon="-105.230575">
  <ele>1586.09</ele>
  <time>2026-08-28T19:06:36Z</time>
  <course>345.25</course>
  <speed>0.0</speed>
  <fix>3d</fix>
</trkpt>
<trkpt lat="40.0728466" lon="-105.2305795">
  <ele>1586.19</ele>
  <time>2026-08-28T19:06:36Z</time>
  <course>8.85</course>
  <speed>0.18601075237738274</speed>
  <fix>3d</fix>
</trkpt>
<trkpt lat="40.072842" lon="-105.230575">
  <ele>1586.09</ele>
  <time>2026-08-28T19:06:36Z</time>
  <course>298.55</course>
  <speed>0.0</speed>
  <fix>3d</fix>
</trkpt>
<trkpt lat="40.0728468" lon="-105.2305796">
  <ele>1586.2</ele>
  <time>2026-08-28T19:06:36Z</time>
  <course>8.84</course>
  <speed>0.18601075237738274</speed>
  <fix>3d</fix>
</trkpt>
<trkpt lat="40.072842" lon="-105.230575">
  <ele>1586.09</ele>
  <time>2026-08-28T19:06:36Z</time>
  <course>252.4</course>
  <speed>0.0</speed>
  <fix>3d</fix>
</trkpt>
<trkpt lat="40.0728471" lon="-105.2305799">
  <ele>1586.19</ele>
  <time>2026-08-28T19:06:36Z</time>
  <course>8.84</course>
  <speed>0.2</speed>
  <fix>3d</fix>
</trkpt>
<trkpt lat="40.072842" lon="-105.230575">
  <ele>1586.09</ele>
  <time>2026-08-28T19:06:36Z</time>
  <course>251.06</course>
  <speed>0.0</speed>
  <fix>3d</fix>
</trkpt>
<trkpt lat="40.0728467" lon="-105.2305796">
  <ele>1586.19</ele>
  <time>2026-08-28T19:06:36Z</time>
  <course>8.84</course>
  <speed>0.18601075237738274</speed>
  <fix>3d</fix>
</trkpt>
<trkpt lat="40.072842" lon="-105.230575">
  <ele>1586.09</ele>
  <time>2026-08-28T19:06:36Z</time>
  <course>272.53</course>
  <speed>0.0</speed>
  <fix>3d</fix>
</trkpt>
<trkpt lat="40.0728465" lon="-105.2305793">
  <ele>1586.18</ele>
  <time>2026-08-28T19:06:36Z</time>
  <course>8.83</course>
  <speed>0.17804493814764857</speed>
  <fix>3d</fix>
</trkpt>
<trkpt lat="40.072842" lon="-105.230575">
  <ele>1586.09</ele>
  <time>2026-08-28T19:06:36Z</time>
  <course>330.5</course>
  <speed>0.0</speed>
  <fix>3d</fix>
</trkpt>
<trkpt lat="40.0728465" lon="-105.2305794">
  <ele>1586.18</ele>
  <time>2026-08-28T19:06:36Z</time>
  <course>8.83</course>
  <speed>0.18601075237738274</speed>
  <fix>3d</fix>
</trkpt>
<trkpt lat="40.072842" lon="-105.230575">
  <ele>1586.09</ele>
  <time>2026-08-28T19:06:36Z</time>
  <course>293.67</course>
  <speed>0.0</speed>
  <fix>3d</fix>
</trkpt>
<trkpt lat="40.0728467" lon="-105.2305796">
  <ele>1586.18</ele>
  <time>2026-08-28T19:06:36Z</time>
  <course>8.83</course>
  <speed>0.18601075237738274</speed>
  <fix>3d</fix>
</trkpt>
<trkpt lat="40.072842" lon="-105.230575">
  <ele>1586.09</ele>
  <time>2026-08-28T19:06:36Z</time>
  <course>254.89</course>
  <speed>0.0</speed>
  <fix>3d</fix>
</trkpt>
<trkpt lat="40.0728421" lon="-105.2305751">
  <ele>1586.18</ele>
  <time>2026-08-28T19:06:36Z</time>
  <course>8.83</course>
  <speed>0.13601470508735444</speed>
  <fix>3d</fix>
</trkpt>
<trkpt lat="40.072842" lon="-105.230575">
  <ele>1586.09</ele>
  <time>2026-08-28T19:06:36Z</time>
  <course>259.12</course>
  <speed>0.0</speed>
  <fix>3d</fix>
</trkpt>
<trkpt lat="40.0728421" lon="-105.2305751">
  <ele>1586.18</ele>
  <time>2026-08-28T19:06:36Z</time>
  <course>8.82</course>
  <speed>0.07211102550927978</speed>
  <fix>3d</fix>
</trkpt>
<trkpt lat="40.072842" lon="-105.230575">
  <ele>1586.09</ele>
  <time>2026-08-28T19:06:36Z</time>
  <course>351.14</course>
  <speed>0.0</speed>
  <fix>3d</fix>
</trkpt>
<trkpt lat="40.072842" lon="-105.230575">
  <ele>1586.18</ele>
  <time>2026-08-28T19:06:36Z</time>
  <course>8.82</course>
  <speed>0.03605551275463989</speed>
  <fix>3d</fix>
</trkpt>
<trkpt lat="40.072842" lon="-105.230575">
  <ele>1586.09</ele>
  <time>2026-08-28T19:06:36Z</time>
  <course>321.55</course>
  <speed>0.0</speed>
  <fix>3d</fix>
</trkpt>
<trkpt lat="40.072842" lon="-105.230575">
  <ele>1586.19</ele>
  <time>2026-08-28T19:06:36Z</time>
  <course>8.82</course>
  <speed>0.022360679774997897</speed>
  <fix>3d</fix>
</trkpt>
<trkpt lat="40.072842" lon="-105.230575">
  <ele>1586.09</ele>
  <time>2026-08-28T19:06:36Z</time>
  <course>278.6</course>
  <speed>0.0</speed>
  <fix>3d</fix>
</trkpt>
<trkpt lat="40.072842" lon="-105.230575">
  <ele>1586.19</ele>
  <time>2026-08-28T19:06:37Z</time>
  <course>8.82</course>
  <speed>0.01414213562373095</speed>
  <fix>3d</fix>
</trkpt>
<trkpt lat="40.072842" lon="-105.230575">
  <ele>1586.09</ele>
  <time>2026-08-28T19:06:37Z</time>
  <course>228.0</course>
  <speed>0.0</speed>
  <fix>3d</fix>
</trkpt>
<trkpt lat="40.0728419" lon="-105.2305749">
  <ele>1586.19</ele>
  <time>2026-08-28T19:06:37Z</time>
  <course>8.82</course>
  <speed>0.0</speed>
  <fix>3d</fix>
</trkpt>
<trkpt lat="40.072842" lon="-105.230575">
  <ele>1586.09</ele>
  <time>2026-08-28T19:06:37Z</time>
  <course>90.52</course>
  <speed>0.0</speed>
  <fix>3d</fix>
</trkpt>
<trkpt lat="40.0728419" lon="-105.2305749">
  <ele>1586.19</ele>
  <time>2026-08-28T19:06:37Z</time>
  <course>8.82</course>
  <speed>0.0</speed>
  <fix>3d</fix>
</trkpt>
<trkpt lat="40.072842" lon="-105.230575">
  <ele>1586.09</ele>
  <time>2026-08-28T19:06:37Z</time>
  <course>315.12</course>
  <speed>0.0</speed>
  <fix>3d</fix>
</trkpt>
<trkpt lat="40.0728419" lon="-105.230575">
  <ele>1586.19</ele>
  <time>2026-08-28T19:06:37Z</time>
  <course>8.82</course>
  <speed>0.0</speed>
  <fix>3d</fix>
</trkpt>
<trkpt lat="40.072842" lon="-105.230575">
  <ele>1586.09</ele>
  <time>2026-08-28T19:06:37Z</time>
  <course>276.04</course>
  <speed>0.0</speed>
  <fix>3d</fix>
</trkpt>
<trkpt lat="40.072842" lon="-105.230575">
  <ele>1586.19</ele>
  <time>2026-08-28T19:06:37Z</time>
  <course>8.81</course>
  <speed>0.0</speed>
  <fix>3d</fix>
</trkpt>
<trkpt lat="40.072842" lon="-105.230575">
  <ele>1586.09</ele>
  <time>2026-08-28T19:06:37Z</time>
  <course>276.47</course>
  <speed>0.0</speed>
  <fix>3d</fix>
</trkpt>
<trkpt lat="40.072842" lon="-105.230575">
  <ele>1586.19</ele>
  <time>2026-08-28T19:06:37Z</time>
  <course>8.81</course>
  <speed>0.01</speed>
  <fix>3d</fix>
</trkpt>
<trkpt lat="40.072842" lon="-105.230575">
  <ele>1586.09</ele>
  <time>2026-08-28T19:06:37Z</time>
  <course>297.28</course>
  <speed>0.0</speed>
  <fix>3d</fix>
</trkpt>
<trkpt lat="40.072842" lon="-105.230575">
  <ele>1586.19</ele>
  <time>2026-08-28T19:06:37Z</time>
  <course>8.81</course>
  <speed>0.01</speed>
  <fix>3d</fix>
</trkpt>
<trkpt lat="40.072842" lon="-105.230575">
  <ele>1586.09</ele>
  <time>2026-08-28T19:06:37Z</time>
  <course>290.02</course>
  <speed>0.0</speed>
  <fix>3d</fix>
</trkpt>
<trkpt lat="40.072842" lon="-105.230575">
  <ele>1586.19</ele>
  <time>2026-08-28T19:06:37Z</time>
  <course>8.81</course>
  <speed>0.01</speed>
  <fix>3d</fix>
</trkpt>
<trkpt lat="40.072842" lon="-105.230575">
  <ele>1586.09</ele>
  <time>2026-08-28T19:06:37Z</time>
  <course>275.05</course>
  <speed>0.0</speed>
  <fix>3d</fix>
</trkpt>
<trkpt lat="40.072842" lon="-105.230575">
  <ele>1586.19</ele>
  <time>2026-08-28T19:06:37Z</time>
  <course>8.81</course>
  <speed>0.01414213562373095</speed>
  <fix>3d</fix>
</trkpt>
<trkpt lat="40.072842" lon="-105.230575">
  <ele>1586.09</ele>
  <time>2026-08-28T19:06:37Z</time>
  <course>280.35</course>
  <speed>0.0</speed>
  <fix>3d</fix>
</trkpt>
<trkpt lat="40.0728421" lon="-105.2305751">
  <ele>1586.19</ele>
  <time>2026-08-28T19:06:37Z</time>
  <course>8.81</course>
  <speed>0.01414213562373095</speed>
  <fix>3d</fix>
</trkpt>
<trkpt lat="40.072842" lon="-105.230575">
  <ele>1586.09</ele>
  <time>2026-08-28T19:06:37Z</time>
  <course>281.74</course>
  <speed>0.0</speed>
  <fix>3d</fix>
</trkpt>
<trkpt lat="40.0728421" lon="-105.2305751">
  <ele>1586.19</ele>
  <time>2026-08-28T19:06:37Z</time>
  <course>8.81</course>
  <speed>0.01414213562373095</speed>
  <fix>3d</fix>
</trkpt>
<trkpt lat="40.072842" lon="-105.230575">
  <ele>1586.09</ele>
  <time>2026-08-28T19:06:37Z</time>
  <course>280.77</course>
  <speed>0.0</speed>
  <fix>3d</fix>
</trkpt>
<trkpt lat="40.0728421" lon="-105.2305751">
  <ele>1586.19</ele>
  <time>2026-08-28T19:06:37Z</time>
  <course>8.81</course>
  <speed>0.01414213562373095</speed>
  <fix>3d</fix>
</trkpt>
<trkpt lat="40.072842" lon="-105.230575">
  <ele>1586.09</ele>
  <time>2026-08-28T19:06:37Z</time>
  <course>280.7</course>
  <speed>0.0</speed>
  <fix>3d</fix>
</trkpt>
<trkpt lat="40.0728421" lon="-105.2305751">
  <ele>1586.19</ele>
  <time>2026-08-28T19:06:37Z</time>
  <course>8.8</course>
  <speed>0.01414213562373095</speed>
  <fix>3d</fix>
</trkpt>
<trkpt lat="40.072842" lon="-105.230575">
  <ele>1586.09</ele>
  <time>2026-08-28T19:06:37Z</time>
  <course>280.83</course>
  <speed>0.0</speed>
  <fix>3d</fix>
</trkpt>
<trkpt lat="40.0728421" lon="-105.2305751">
  <ele>1586.19</ele>
  <time>2026-08-28T19:06:37Z</time>
  <course>8.8</course>
  <speed>0.01414213562373095</speed>
  <fix>3d</fix>
</trkpt>
<trkpt lat="40.072842" lon="-105.230575">
  <ele>1586.09</ele>
  <time>2026-08-28T19:06:37Z</time>
  <course>280.83</course>
  <speed>0.0</speed>
  <fix>3d</fix>
</trkpt>
<trkpt lat="40.0728421" lon="-105.2305751">
  <ele>1586.19</ele>
  <time>2026-08-28T19:06:37Z</time>
  <course>8.8</course>
  <speed>0.01414213562373095</speed>
  <fix>3d</fix>
</trkpt>
<trkpt lat="40.072842" lon="-105.230575">
  <ele>1586.09</ele>
  <time>2026-08-28T19:06:37Z</time>
  <course>280.81</course>
  <speed>0.0</speed>
  <fix>3d</fix>
</trkpt>
<trkpt lat="40.0728421" lon="-105.2305751">
  <ele>1586.19</ele>
  <time>2026-08-28T19:06:37Z</time>
  <course>8.8</course>
  <speed>0.01414213562373095</speed>
  <fix>3d</fix>
</trkpt>
<trkpt lat="40.072842" lon="-105.230575">
  <ele>1586.09</ele>
  <time>2026-08-28T19:06:37Z</time>
  <course>315.0</course>
  <speed>0.0</speed>
  <fix>3d</fix>
</trkpt>
<trkpt lat="40.0728421" lon="-105.2305751">
  <ele>1586.19</ele>
  <time>2026-08-28T19:06:37Z</time>
  <course>8.8</course>
  <speed>0.01414213562373095</speed>
  <fix>3d</fix>
</trkpt>
<trkpt lat="40.072842" lon="-105.230575">
  <ele>1586.09</ele>
  <time>2026-08-28T19:06:37Z</time>
  <course>292.89</course>
  <speed>0.0</speed>
  <fix>3d</fix>
</trkpt>
<trkpt lat="40.0728421" lon="-105.2305751">
  <ele>1586.19</ele>
  <time>2026-08-28T19:06:37Z</time>
  <course>8.8</course>
  <speed>0.01414213562373095</speed>
  <fix>3d</fix>
</trkpt>
<trkpt lat="40.072842" lon="-105.230575">
  <ele>1586.09</ele>
  <time>2026-08-28T19:06:37Z</time>
  <course>271.75</course>
  <speed>0.0</speed>
  <fix>3d</fix>
</trkpt>
<trkpt lat="40.0728421" lon="-105.2305751">
  <ele>1586.19</ele>
  <time>2026-08-28T19:06:37Z</time>
  <course>8.8</course>
  <speed>0.01414213562373095</speed>
  <fix>3d</fix>
</trkpt>
<trkpt lat="40.072842" lon="-105.230575">
  <ele>1586.09</ele>
  <time>2026-08-28T19:06:37Z</time>
  <course>279.79</course>
  <speed>0.0</speed>
  <fix>3d</fix>
</trkpt>
<trkpt lat="40.0728421" lon="-105.2305751">
  <ele>1586.19</ele>
  <time>2026-08-28T19:06:37Z</time>
  <course>8.8</course>
  <speed>0.01414213562373095</speed>
  <fix>3d</fix>
</trkpt>
<trkpt lat="40.072842" lon="-105.230575">
  <ele>1586.09</ele>
  <time>2026-08-28T19:06:37Z</time>
  <course>282.65</course>
  <speed>0.0</speed>
  <fix>3d</fix>
</trkpt>
<trkpt lat="40.0728421" lon="-105.2305751">
  <ele>1586.19</ele>
  <time>2026-08-28T19:06:37Z</time>
  <course>8.79</course>
  <speed>0.022360679774997897</speed>
  <fix>3d</fix>
</trkpt>
<trkpt lat="40.072842" lon="-105.230575">
  <ele>1586.09</ele>
  <time>2026-08-28T19:06:37Z</time>
  <course>280.74</course>
  <speed>0.0</speed>
  <fix>3d</fix>
</trkpt>
<trkpt lat="40.0728421" lon="-105.2305751">
  <ele>1586.19</ele>
  <time>2026-08-28T19:06:37Z</time>
  <course>8.79</course>
  <speed>0.022360679774997897</speed>
  <fix>3d</fix>
</trkpt>
<trkpt lat="40.072842" lon="-105.230575">
  <ele>1586.09</ele>
  <time>2026-08-28T19:06:37Z</time>
  <course>280.59</course>
  <speed>0.0</speed>
  <fix>3d</fix>
</trkpt>
<trkpt lat="40.0728422" lon="-105.2305752">
  <ele>1586.19</ele>
  <time>2026-08-28T19:06:37Z</time>
  <course>8.79</course>
  <speed>0.0282842712474619</speed>
  <fix>3d</fix>
</trkpt>
<trkpt lat="40.072842" lon="-105.230575">
  <ele>1586.09</ele>
  <time>2026-08-28T19:06:37Z</time>
  <course>102.09</course>
  <speed>0.0</speed>
  <fix>3d</fix>
</trkpt>
<trkpt lat="40.0728422" lon="-105.2305752">
  <ele>1586.19</ele>
  <time>2026-08-28T19:06:37Z</time>
  <course>8.79</course>
  <speed>0.03605551275463989</speed>
  <fix>3d</fix>
</trkpt>
<trkpt lat="40.072842" lon="-105.230575">
  <ele>1586.09</ele>
  <time>2026-08-28T19:06:37Z</time>
  <course>88.38</course>
  <speed>0.0</speed>
  <fix>3d</fix>
</trkpt>
<trkpt lat="40.0728423" lon="-105.2305753">
  <ele>1586.19</ele>
  <time>2026-08-28T19:06:37Z</time>
  <course>8.79</course>
  <speed>0.03605551275463989</speed>
  <fix>3d</fix>
</trkpt>
<trkpt lat="40.072842" lon="-105.230575">
  <ele>1586.09</ele>
  <time>2026-08-28T19:06:37Z</time>
  <course>357.76</course>
  <speed>0.0</speed>
  <fix>3d</fix>
</trkpt>
<trkpt lat="40.0728424" lon="-105.2305754">
  <ele>1586.19</ele>
  <time>2026-08-28T19:06:37Z</time>
  <course>8.79</course>
  <speed>0.03605551275463989</speed>
  <fix>3d</fix>
</trkpt>
<trkpt lat="40.072842" lon="-105.230575">
  <ele>1586.09</ele>
  <time>2026-08-28T19:06:37Z</time>
  <course>267.55</course>
  <speed>0.0</speed>
  <fix>3d</fix>
</trkpt>
<trkpt lat="40.0728425" lon="-105.2305755">
  <ele>1586.19</ele>
  <time>2026-08-28T19:06:37Z</time>
  <course>8.79</course>
  <speed>0.05</speed>
  <fix>3d</fix>
</trkpt>
<trkpt lat="40.072842" lon="-105.230575">
  <ele>1586.09</ele>
  <time>2026-08-28T19:06:37Z</time>
  <course>270.48</course>
  <speed>0.0</speed>
  <fix>3d</fix>
</trkpt>
<trkpt lat="40.0728426" lon="-105.2305755">
  <ele>1586.19</ele>
  <time>2026-08-28T19:06:37Z</time>
  <course>8.78</course>
  <speed>0.05</speed>
  <fix>3d</fix>
</trkpt>
<trkpt lat="40.072842" lon="-105.230575">
  <ele>1586.09</ele>
  <time>2026-08-28T19:06:37Z</time>
  <course>298.61</course>
  <speed>0.0</speed>
  <fix>3d</fix>
</trkpt>
<trkpt lat="40.0728427" lon="-105.2305756">
  <ele>1586.19</ele>
  <time>2026-08-28T19:06:37Z</time>
  <course>8.78</course>
  <speed>0.05830951894845301</speed>
  <fix>3d</fix>
</trkpt>
<trkpt lat="40.072842" lon="-105.230575">
  <ele>1586.09</ele>
  <time>2026-08-28T19:06:37Z</time>
  <course>286.67</course>
  <speed>0.0</speed>
  <fix>3d</fix>
</trkpt>
<trkpt lat="40.0728428" lon="-105.2305757">
  <ele>1586.19</ele>
  <time>2026-08-28T19:06:37Z</time>
  <course>8.78</course>
  <speed>0.06403124237432849</speed>
  <fix>3d</fix>
</trkpt>
<trkpt lat="40.072842" lon="-105.230575">
  <ele>1586.09</ele>
  <time>2026-08-28T19:06:37Z</time>
  <course>284.9</course>
  <speed>0.0</speed>
  <fix>3d</fix>
</trkpt>
<trkpt lat="40.0728429" lon="-105.2305758">
  <ele>1586.19</ele>
  <time>2026-08-28T19:06:37Z</time>
  <course>8.78</course>
  <speed>0.06403124237432849</speed>
  <fix>3d</fix>
</trkpt>
<trkpt lat="40.072842" lon="-105.230575">
  <ele>1586.09</ele>
  <time>2026-08-28T19:06:37Z</time>
  <course>286.28</course>
  <speed>0.0</speed>
  <fix>3d</fix>
</trkpt>
<trkpt lat="40.072843" lon="-105.2305759">
  <ele>1586.19</ele>
  <time>2026-08-28T19:06:37Z</time>
  <course>8.78</course>
  <speed>0.07211102550927978</speed>
  <fix>3d</fix>
</trkpt>
<trkpt lat="40.072842" lon="-105.230575">
  <ele>1586.09</ele>
  <time>2026-08-28T19:06:37Z</time>
  <course>286.36</course>
  <speed>0.0</speed>
  <fix>3d</fix>
</trkpt>
<trkpt lat="40.0728431" lon="-105.2305761">
  <ele>1586.19</ele>
  <time>2026-08-28T19:06:37Z</time>
  <course>8.78</course>
  <speed>0.07810249675906654</speed>
  <fix>3d</fix>
</trkpt>
<trkpt lat="40.072842" lon="-105.230575">
  <ele>1586.09</ele>
  <time>2026-08-28T19:06:37Z</time>
  <course>286.16</course>
  <speed>0.0</speed>
  <fix>3d</fix>
</trkpt>
<trkpt lat="40.0728432" lon="-105.2305762">
  <ele>1586.19</ele>
  <time>2026-08-28T19:06:37Z</time>
  <course>8.78</course>
  <speed>0.08602325267042626</speed>
  <fix>3d</fix>
</trkpt>
<trkpt lat="40.072842" lon="-105.230575">
  <ele>1586.09</ele>
  <time>2026-08-28T19:06:37Z</time>
  <course>286.17</course>
  <speed>0.0</speed>
  <fix>3d</fix>
</trkpt>
<trkpt lat="40.0728433" lon="-105.2305763">
  <ele>1586.19</ele>
  <time>2026-08-28T19:06:37Z</time>
  <course>8.77</course>
  <speed>0.08602325267042626</speed>
  <fix>3d</fix>
</trkpt>
<trkpt lat="40.072842" lon="-105.230575">
  <ele>1586.09</ele>
  <time>2026-08-28T19:06:37Z</time>
  <course>286.2</course>
  <speed>0.0</speed>
  <fix>3d</fix>
</trkpt>
<trkpt lat="40.0728434" lon="-105.2305764">
  <ele>1586.18</ele>
  <time>2026-08-28T19:06:37Z</time>
  <course>8.77</course>
  <speed>0.1</speed>
  <fix>3d</fix>
</trkpt>
<trkpt lat="40.072842" lon="-105.230575">
  <ele>1586.09</ele>
  <time>2026-08-28T19:06:37Z</time>
  <course>286.19</course>
  <speed>0.0</speed>
  <fix>3d</fix>
</trkpt>
<trkpt lat="40.0728436" lon="-105.2305765">
  <ele>1586.18</ele>
  <time>2026-08-28T19:06:37Z</time>
  <course>8.77</course>
  <speed>0.1</speed>
  <fix>3d</fix>
</trkpt>
<trkpt lat="40.072842" lon="-105.230575">
  <ele>1586.09</ele>
  <time>2026-08-28T19:06:37Z</time>
  <course>286.19</course>
  <speed>0.0</speed>
  <fix>3d</fix>
</trkpt>
<trkpt lat="40.0728437" lon="-105.2305767">
  <ele>1586.18</ele>
  <time>2026-08-28T19:06:37Z</time>
  <course>8.77</course>
  <speed>0.10816653826391968</speed>
  <fix>3d</fix>
</trkpt>
<trkpt lat="40.072842" lon="-105.230575">
  <ele>1586.09</ele>
  <time>2026-08-28T19:06:37Z</time>
  <course>286.19</course>
  <speed>0.0</speed>
  <fix>3d</fix>
</trkpt>
<trkpt lat="40.0728439" lon="-105.2305768">
  <ele>1586.18</ele>
  <time>2026-08-28T19:06:37Z</time>
  <course>8.77</course>
  <speed>0.11401754250991379</speed>
  <fix>3d</fix>
</trkpt>
<trkpt lat="40.072842" lon="-105.230575">
  <ele>1586.09</ele>
  <time>2026-08-28T19:06:37Z</time>
  <course>286.19</course>
  <speed>0.0</speed>
  <fix>3d</fix>
</trkpt>
<trkpt lat="40.0728441" lon="-105.230577">
  <ele>1586.18</ele>
  <time>2026-08-28T19:06:37Z</time>
  <course>8.76</course>
  <speed>0.12206555615733702</speed>
  <fix>3d</fix>
</trkpt>
<trkpt lat="40.072842" lon="-105.230575">
  <ele>1586.09</ele>
  <time>2026-08-28T19:06:37Z</time>
  <course>179.52</course>
  <speed>0.0</speed>
  <fix>3d</fix>
</trkpt>
<trkpt lat="40.0728442" lon="-105.2305771">
  <ele>1586.18</ele>
  <time>2026-08-28T19:06:37Z</time>
  <course>8.76</course>
  <speed>0.12206555615733702</speed>
  <fix>3d</fix>
</trkpt>
<trkpt lat="40.072842" lon="-105.230575">
  <ele>1586.09</ele>
  <time>2026-08-28T19:06:37Z</time>
  <course>153.48</course>
  <speed>0.0</speed>
  <fix>3d</fix>
</trkpt>
<trkpt lat="40.0728443" lon="-105.2305772">
  <ele>1586.17</ele>
  <time>2026-08-28T19:06:37Z</time>
  <course>8.76</course>
  <speed>0.12206555615733702</speed>
  <fix>3d</fix>
</trkpt>
<trkpt lat="40.072842" lon="-105.230575">
  <ele>1586.09</ele>
  <time>2026-08-28T19:06:37Z</time>
  <course>115.53</course>
  <speed>0.0</speed>
  <fix>3d</fix>
</trkpt>
<trkpt lat="40.0728445" lon="-105.2305774">
  <ele>1586.18</ele>
  <time>2026-08-28T19:06:37Z</time>
  <course>8.76</course>
  <speed>0.13601470508735444</speed>
  <fix>3d</fix>
</trkpt>
<trkpt lat="40.072842" lon="-105.230575">
  <ele>1586.09</ele>
  <time>2026-08-28T19:06:37Z</time>
  <course>316.32</course>
  <speed>0.0</speed>
  <fix>3d</fix>
</trkpt>
<trkpt lat="40.0728446" lon="-105.2305776">
  <ele>1586.18</ele>
  <time>2026-08-28T19:06:37Z</time>
  <course>8.75</course>
  <speed>0.13601470508735444</speed>
  <fix>3d</fix>
</trkpt>
<trkpt lat="40.072842" lon="-105.230575">
  <ele>1586.09</ele>
  <time>2026-08-28T19:06:37Z</time>
  <course>265.85</course>
  <speed>0.0</speed>
  <fix>3d</fix>
</trkpt>
<trkpt lat="40.0728449" lon="-105.2305778">
  <ele>1586.19</ele>
  <time>2026-08-28T19:06:37Z</time>
  <course>8.75</course>
  <speed>0.15</speed>
  <fix>3d</fix>
</trkpt>
<trkpt lat="40.072842" lon="-105.230575">
  <ele>1586.09</ele>
  <time>2026-08-28T19:06:37Z</time>
  <course>230.47</course>
  <speed>0.0</speed>
  <fix>3d</fix>
</trkpt>
<trkpt lat="40.072845" lon="-105.2305779">
  <ele>1586.19</ele>
  <time>2026-08-28T19:06:37Z</time>
  <course>8.75</course>
  <speed>0.15</speed>
  <fix>3d</fix>
</trkpt>
<trkpt lat="40.072842" lon="-105.230575">
  <ele>1586.09</ele>
  <time>2026-08-28T19:06:37Z</time>
  <course>269.48</course>
  <speed>0.0</speed>
  <fix>3d</fix>
</trkpt>
<trkpt lat="40.072845" lon="-105.230578">
  <ele>1586.19</ele>
  <time>2026-08-28T19:06:37Z</time>
  <course>8.75</course>
  <speed>0.15</speed>
  <fix>3d</fix>
</trkpt>
<trkpt lat="40.072842" lon="-105.230575">
  <ele>1586.09</ele>
  <time>2026-08-28T19:06:37Z</time>
  <course>269.13</course>
  <speed>0.0</speed>
  <fix>3d</fix>
</trkpt>
<trkpt lat="40.0728452" lon="-105.2305781">
  <ele>1586.19</ele>
  <time>2026-08-28T19:06:37Z</time>
  <course>8.75</course>
  <speed>0.15</speed>
  <fix>3d</fix>
</trkpt>
<trkpt lat="40.072842" lon="-105.230575">
  <ele>1586.09</ele>
  <time>2026-08-28T19:06:37Z</time>
  <course>265.21</course>
  <speed>0.0</speed>
  <fix>3d</fix>
</trkpt>
<trkpt lat="40.0728454" lon="-105.2305783">
  <ele>1586.18</ele>
  <time>2026-08-28T19:06:37Z</time>
  <course>8.74</course>
  <speed>0.15811388300841897</speed>
  <fix>3d</fix>
</trkpt>
<trkpt lat="40.072842" lon="-105.230575">
  <ele>1586.09</ele>
  <time>2026-08-28T19:06:37Z</time>
  <course>265.7</course>
  <speed>0.0</speed>
  <fix>3d</fix>
</trkpt>
<trkpt lat="40.0728456" lon="-105.2305785">
  <ele>1586.18</ele>
  <time>2026-08-28T19:06:37Z</time>
  <course>8.74</course>
  <speed>0.16401219466856726</speed>
  <fix>3d</fix>
</trkpt>
<trkpt lat="40.072842" lon="-105.230575">
  <ele>1586.09</ele>
  <time>2026-08-28T19:06:37Z</time>
  <course>263.86</course>
  <speed>0.0</speed>
  <fix>3d</fix>
</trkpt>
<trkpt lat="40.0728459" lon="-105.2305787">
  <ele>1586.17</ele>
  <time>2026-08-28T19:06:37Z</time>
  <course>8.74</course>
  <speed>0.17204650534085253</speed>
  <fix>3d</fix>
</trkpt>
<trkpt lat="40.072842" lon="-105.230575">
  <ele>1586.09</ele>
  <time>2026-08-28T19:06:37Z</time>
  <course>82.4</course>
  <speed>0.0</speed>
  <fix>3d</fix>
</trkpt>
<trkpt lat="40.0728458" lon="-105.2305787">
  <ele>1586.17</ele>
  <time>2026-08-28T19:06:37Z</time>
  <course>8.74</course>
  <speed>0.17204650534085253</speed>
  <fix>3d</fix>
</trkpt>
<trkpt lat="40.072842" lon="-105.230575">
  <ele>1586.09</ele>
  <time>2026-08-28T19:06:37Z</time>
  <course>74.55</course>
  <speed>0.0</speed>
  <fix>3d</fix>
</trkpt>
<trkpt lat="40.0728459" lon="-105.2305787">
  <ele>1586.16</ele>
  <time>2026-08-28T19:06:37Z</time>
  <course>8.74</course>
  <speed>0.17204650534085253</speed>
  <fix>3d</fix>
</trkpt>
<trkpt lat="40.072842" lon="-105.230575">
  <ele>1586.09</ele>
  <time>2026-08-28T19:06:37Z</time>
  <course>287.69</course>
  <speed>0.0</speed>
  <fix>3d</fix>
</trkpt>
<trkpt lat="40.072846" lon="-105.2305789">
  <ele>1586.17</ele>
  <time>2026-08-28T19:06:37Z</time>
  <course>8.73</course>
  <speed>0.17204650534085253</speed>
  <fix>3d</fix>
</trkpt>
<trkpt lat="40.072842" lon="-105.230575">
  <ele>1586.09</ele>
  <time>2026-08-28T19:06:37Z</time>
  <course>265.37</course>
  <speed>0.0</speed>
  <fix>3d</fix>
</trkpt>
<trkpt lat="40.0728462" lon="-105.2305791">
  <ele>1586.17</ele>
  <time>2026-08-28T19:06:37Z</time>
  <course>8.73</course>
  <speed>0.18601075237738274</speed>
  <fix>3d</fix>
</trkpt>
<trkpt lat="40.072842" lon="-105.230575">
  <ele>1586.09</ele>
  <time>2026-08-28T19:06:37Z</time>
  <course>172.8</course>
  <speed>0.0</speed>
  <fix>3d</fix>
</trkpt>
<trkpt lat="40.0728465" lon="-105.2305794">
  <ele>1586.17</ele>
  <time>2026-08-28T19:06:37Z</time>
  <course>8.73</course>
  <speed>0.18601075237738274</speed>
  <fix>3d</fix>
</trkpt>
<trkpt lat="40.072842" lon="-105.230575">
  <ele>1586.09</ele>
  <time>2026-08-28T19:06:37Z</time>
  <course>89.26</course>
  <speed>0.0</speed>
  <fix>3d</fix>
</trkpt>
<trkpt lat="40.0728464" lon="-105.2305793">
  <ele>1586.16</ele>
  <time>2026-08-28T19:06:37Z</time>
  <course>8.73</course>
  <speed>0.18601075237738274</speed>
  <fix>3d</fix>
</trkpt>
<trkpt lat="40.072842" lon="-105.230575">
  <ele>1586.09</ele>
  <time>2026-08-28T19:06:37Z</time>
  <course>359.39</course>
  <speed>0.0</speed>
  <fix>3d</fix>
</trkpt>
<trkpt lat="40.0728463" lon="-105.2305792">
  <ele>1586.16</ele>
  <time>2026-08-28T19:06:37Z</time>
  <course>8.73</course>
  <speed>0.18601075237738274</speed>
  <fix>3d</fix>
</trkpt>
<trkpt lat="40.072842" lon="-105.230575">
  <ele>1586.09</ele>
  <time>2026-08-28T19:06:37Z</time>
  <course>259.47</course>
  <speed>0.0</speed>
  <fix>3d</fix>
</trkpt>
<trkpt lat="40.0728465" lon="-105.2305793">
  <ele>1586.16</ele>
  <time>2026-08-28T19:06:37Z</time>
  <course>8.72</course>
  <speed>0.18601075237738274</speed>
  <fix>3d</fix>
</trkpt>
<trkpt lat="40.072842" lon="-105.230575">
  <ele>1586.09</ele>
  <time>2026-08-28T19:06:37Z</time>
  <course>209.63</course>
  <speed>0.0</speed>
  <fix>3d</fix>
</trkpt>
<trkpt lat="40.0728467" lon="-105.2305795">
  <ele>1586.16</ele>
  <time>2026-08-28T19:06:37Z</time>
  <course>8.72</course>
  <speed>0.18601075237738274</speed>
  <fix>3d</fix>
</trkpt>
<trkpt lat="40.072842" lon="-105.230575">
  <ele>1586.09</ele>
  <time>2026-08-28T19:06:37Z</time>
  <course>303.4</course>
  <speed>0.0</speed>
  <fix>3d</fix>
</trkpt>
<trkpt lat="40.0728469" lon="-105.2305798">
  <ele>1586.17</ele>
  <time>2026-08-28T19:06:37Z</time>
  <course>8.72</course>
  <speed>0.2</speed>
  <fix>3d</fix>
</trkpt>
<trkpt lat="40.072842" lon="-105.230575">
  <ele>1586.09</ele>
  <time>2026-08-28T19:06:37Z</time>
  <course>269.59</course>
  <speed>0.0</speed>
  <fix>3d</fix>
</trkpt>
<trkpt lat="40.0728471" lon="-105.2305799">
  <ele>1586.17</ele>
  <time>2026-08-28T19:06:37Z</time>
  <course>8.72</course>
  <speed>0.2</speed>
  <fix>3d</fix>
</trkpt>
<trkpt lat="40.072842" lon="-105.230575">
  <ele>1586.09</ele>
  <time>2026-08-28T19:06:37Z</time>
  <course>264.2</course>
  <speed>0.0</speed>
  <fix>3d</fix>
</trkpt>
<trkpt lat="40.0728468" lon="-105.2305796">
  <ele>1586.17</ele>
  <time>2026-08-28T19:06:37Z</time>
  <course>8.71</course>
  <speed>0.18601075237738274</speed>
  <fix>3d</fix>
</trkpt>
<trkpt lat="40.072842" lon="-105.230575">
  <ele>1586.09</ele>
  <time>2026-08-28T19:06:37Z</time>
  <course>265.71</course>
  <speed>0.0</speed>
  <fix>3d</fix>
</trkpt>
<trkpt lat="40.0728468" lon="-105.2305796">
  <ele>1586.17</ele>
  <time>2026-08-28T19:06:37Z</time>
  <course>8.71</course>
  <speed>0.18601075237738274</speed>
  <fix>3d</fix>
</trkpt>
<trkpt lat="40.072842" lon="-105.230575">
  <ele>1586.09</ele>
  <time>2026-08-28T19:06:37Z</time>
  <course>266.34</course>
  <speed>0.0</speed>
  <fix>3d</fix>
</trkpt>
<trkpt lat="40.0728469" lon="-105.2305798">
  <ele>1586.17</ele>
  <time>2026-08-28T19:06:37Z</time>
  <course>8.71</course>
  <speed>0.18601075237738274</speed>
  <fix>3d</fix>
</trkpt>
<trkpt lat="40.072842" lon="-105.230575">
  <ele>1586.09</ele>
  <time>2026-08-28T19:06:37Z</time>
  <course>266.04</course>
  <speed>0.0</speed>
  <fix>3d</fix>
</trkpt>
<trkpt lat="40.0728471" lon="-105.23058">
  <ele>1586.17</ele>
  <time>2026-08-28T19:06:37Z</time>
  <course>8.71</course>
  <speed>0.2</speed>
  <fix>3d</fix>
</trkpt>
<trkpt lat="40.072842" lon="-105.230575">
  <ele>1586.09</ele>
  <time>2026-08-28T19:06:37Z</time>
  <course>265.99</course>
  <speed>0.0</speed>
  <fix>3d</fix>
</trkpt>
<trkpt lat="40.0728474" lon="-105.2305803">
  <ele>1586.17</ele>
  <time>2026-08-28T19:06:37Z</time>
  <course>8.71</course>
  <speed>0.20808652046684814</speed>
  <fix>3d</fix>
</trkpt>
<trkpt lat="40.072842" lon="-105.230575">
  <ele>1586.09</ele>
  <time>2026-08-28T19:06:37Z</time>
  <course>266.04</course>
  <speed>0.0</speed>
  <fix>3d</fix>
</trkpt>
<trkpt lat="40.0728471" lon="-105.2305799">
  <ele>1586.17</ele>
  <time>2026-08-28T19:06:37Z</time>
  <course>8.7</course>
  <speed>0.2</speed>
  <fix>3d</fix>
</trkpt>
<trkpt lat="40.072842" lon="-105.230575">
  <ele>1586.09</ele>
  <time>2026-08-28T19:06:37Z</time>
  <course>266.04</course>
  <speed>0.0</speed>
  <fix>3d</fix>
</trkpt>
<trkpt lat="40.0728469" lon="-105.2305797">
  <ele>1586.17</ele>
  <time>2026-08-28T19:06:37Z</time>
  <course>8.7</course>
  <speed>0.18601075237738274</speed>
  <fix>3d</fix>
</trkpt>
<trkpt lat="40.072842" lon="-105.230575">
  <ele>1586.09</ele>
  <time>2026-08-28T19:06:37Z</time>
  <course>266.03</course>
  <speed>0.0</speed>
  <fix>3d</fix>
</trkpt>
<trkpt lat="40.072847" lon="-105.2305798">
  <ele>1586.17</ele>
  <time>2026-08-28T19:06:37Z</time>
  <course>8.7</course>
  <speed>0.18601075237738274</speed>
  <fix>3d</fix>
</trkpt>
<trkpt lat="40.072842" lon="-105.230575">
  <ele>1586.09</ele>
  <time>2026-08-28T19:06:37Z</time>
  <course>266.03</course>
  <speed>0.0</speed>
  <fix>3d</fix>
</trkpt>
<trkpt lat="40.0728472" lon="-105.23058">
  <ele>1586.17</ele>
  <time>2026-08-28T19:06:37Z</time>
  <course>8.7</course>
  <speed>0.2</speed>
  <fix>3d</fix>
</trkpt>
<trkpt lat="40.072842" lon="-105.230575">
  <ele>1586.09</ele>
  <time>2026-08-28T19:06:37Z</time>
  <course>266.03</course>
  <speed>0.0</speed>
  <fix>3d</fix>
</trkpt>
<trkpt lat="40.0728474" lon="-105.2305803">
  <ele>1586.17</ele>
  <time>2026-08-28T19:06:37Z</time>
  <course>8.7</course>
  <speed>0.2</speed>
  <fix>3d</fix>
</trkpt>
<trkpt lat="40.072842" lon="-105.230575">
  <ele>1586.09</ele>
  <time>2026-08-28T19:06:37Z</time>
  <course>266.03</course>
  <speed>0.0</speed>
  <fix>3d</fix>
</trkpt>
<trkpt lat="40.0728474" lon="-105.2305803">
  <ele>1586.17</ele>
  <time>2026-08-28T19:06:37Z</time>
  <course>8.69</course>
  <speed>0.2</speed>
  <fix>3d</fix>
</trkpt>
<trkpt lat="40.072842" lon="-105.230575">
  <ele>1586.09</ele>
  <time>2026-08-28T19:06:37Z</time>
  <course>266.03</course>
  <speed>0.0</speed>
  <fix>3d</fix>
</trkpt>
<trkpt lat="40.0728469" lon="-105.2305798">
  <ele>1586.17</ele>
  <time>2026-08-28T19:06:37Z</time>
  <course>8.69</course>
  <speed>0.18601075237738274</speed>
  <fix>3d</fix>
</trkpt>
<trkpt lat="40.072842" lon="-105.230575">
  <ele>1586.09</ele>
  <time>2026-08-28T19:06:37Z</time>
  <course>266.03</course>
  <speed>0.0</speed>
  <fix>3d</fix>
</trkpt>
<trkpt lat="40.0728469" lon="-105.2305797">
  <ele>1586.17</ele>
  <time>2026-08-28T19:06:37Z</time>
  <course>8.69</course>
  <speed>0.18601075237738274</speed>
  <fix>3d</fix>
</trkpt>
<trkpt lat="40.072842" lon="-105.230575">
  <ele>1586.09</ele>
  <time>2026-08-28T19:06:37Z</time>
  <course>266.03</course>
  <speed>0.0</speed>
  <fix>3d</fix>
</trkpt>
<trkpt lat="40.072847" lon="-105.2305798">
  <ele>1586.17</ele>
  <time>2026-08-28T19:06:37Z</time>
  <course>8.69</course>
  <speed>0.18601075237738274</speed>
  <fix>3d</fix>
</trkpt>
<trkpt lat="40.072842" lon="-105.230575">
  <ele>1586.09</ele>
  <time>2026-08-28T19:06:37Z</time>
  <course>266.03</course>
  <speed>0.0</speed>
  <fix>3d</fix>
</trkpt>
<trkpt lat="40.0728421" lon="-105.2305751">
  <ele>1586.18</ele>
  <time>2026-08-28T19:06:37Z</time>
  <course>8.69</course>
  <speed>0.13601470508735444</speed>
  <fix>3d</fix>
</trkpt>
<trkpt lat="40.072842" lon="-105.230575">
  <ele>1586.09</ele>
  <time>2026-08-28T19:06:37Z</time>
  <course>266.03</course>
  <speed>0.0</speed>
  <fix>3d</fix>
</trkpt>
<trkpt lat="40.0728421" lon="-105.2305751">
  <ele>1586.18</ele>
  <time>2026-08-28T19:06:37Z</time>
  <course>8.68</course>
  <speed>0.07211102550927978</speed>
  <fix>3d</fix>
</trkpt>
<trkpt lat="40.072842" lon="-105.230575">
  <ele>1586.09</ele>
  <time>2026-08-28T19:06:37Z</time>
  <course>303.94</course>
  <speed>0.0</speed>
  <fix>3d</fix>
</trkpt>
<trkpt lat="40.072842" lon="-105.230575">
  <ele>1586.18</ele>
  <time>2026-08-28T19:06:37Z</time>
  <course>8.68</course>
  <speed>0.03605551275463989</speed>
  <fix>3d</fix>
</trkpt>
<trkpt lat="40.072842" lon="-105.230575">
  <ele>1586.09</ele>
  <time>2026-08-28T19:06:37Z</time>
  <course>296.22</course>
  <speed>0.0</speed>
  <fix>3d</fix>
</trkpt>
<trkpt lat="40.072842" lon="-105.230575">
  <ele>1586.17</ele>
  <time>2026-08-28T19:06:37Z</time>
  <course>8.68</course>
  <speed>0.01414213562373095</speed>
  <fix>3d</fix>
</trkpt>
<trkpt lat="40.072842" lon="-105.230575">
  <ele>1586.09</ele>
  <time>2026-08-28T19:06:37Z</time>
  <course>283.29</course>
  <speed>0.0</speed>
  <fix>3d</fix>
</trkpt>
<trkpt lat="40.0728419" lon="-105.2305749">
  <ele>1586.17</ele>
  <time>2026-08-28T19:06:37Z</time>
  <course>8.68</course>
  <speed>0.01</speed>
  <fix>3d</fix>
</trkpt>
<trkpt lat="40.072842" lon="-105.230575">
  <ele>1586.09</ele>
  <time>2026-08-28T19:06:37Z</time>
  <course>274.97</course>
  <speed>0.0</speed>
  <fix>3d</fix>
</trkpt>
<trkpt lat="40.0728419" lon="-105.2305749">
  <ele>1586.17</ele>
  <time>2026-08-28T19:06:37Z</time>
  <course>8.68</course>
  <speed>0.0</speed>
  <fix>3d</fix>
</trkpt>
<trkpt lat="40.072842" lon="-105.230575">
  <ele>1586.09</ele>
  <time>2026-08-28T19:06:37Z</time>
  <course>271.91</course>
  <speed>0.0</speed>
  <fix>3d</fix>
</trkpt>
<trkpt lat="40.0728419" lon="-105.2305749">
  <ele>1586.16</ele>
  <time>2026-08-28T19:06:37Z</time>
  <course>8.68</course>
  <speed>0.0</speed>
  <fix>3d</fix>
</trkpt>
<trkpt lat="40.072842" lon="-105.230575">
  <ele>1586.09</ele>
  <time>2026-08-28T19:06:37Z</time>
  <course>239.14</course>
  <speed>0.0</speed>
  <fix>3d</fix>
</trkpt>
<trkpt lat="40.0728419" lon="-105.2305749">
  <ele>1586.16</ele>
  <time>2026-08-28T19:06:37Z</time>
  <course>8.68</course>
  <speed>0.0</speed>
  <fix>3d</fix>
</trkpt>
<trkpt lat="40.072842" lon="-105.230575">
  <ele>1586.09</ele>
  <time>2026-08-28T19:06:37Z</time>
  <course>0.27</course>
  <speed>0.0</speed>
  <fix>3d</fix>
</trkpt>
<trkpt lat="40.0728419" lon="-105.2305749">
  <ele>1586.16</ele>
  <time>2026-08-28T19:06:37Z</time>
  <course>8.68</course>
  <speed>0.0</speed>
  <fix>3d</fix>
</trkpt>
<trkpt lat="40.072842" lon="-105.230575">
  <ele>1586.09</ele>
  <time>2026-08-28T19:06:37Z</time>
  <course>327.42</course>
  <speed>0.0</speed>
  <fix>3d</fix>
</trkpt>
<trkpt lat="40.072842" lon="-105.230575">
  <ele>1586.15</ele>
  <time>2026-08-28T19:06:37Z</time>
  <course>8.68</course>
  <speed>0.0</speed>
  <fix>3d</fix>
</trkpt>
<trkpt lat="40.072842" lon="-105.230575">
  <ele>1586.09</ele>
  <time>2026-08-28T19:06:37Z</time>
  <course>290.12</course>
  <speed>0.0</speed>
  <fix>3d</fix>
</trkpt>
<trkpt lat="40.072842" lon="-105.230575">
  <ele>1586.15</ele>
  <time>2026-08-28T19:06:37Z</time>
  <course>8.68</course>
  <speed>0.01</speed>
  <fix>3d</fix>
</trkpt>
<trkpt lat="40.072842" lon="-105.230575">
  <ele>1586.09</ele>
  <time>2026-08-28T19:06:37Z</time>
  <course>161.89</course>
  <speed>0.0</speed>
  <fix>3d</fix>
</trkpt>
<trkpt lat="40.072842" lon="-105.230575">
  <ele>1586.15</ele>
  <time>2026-08-28T19:06:37Z</time>
  <course>8.68</course>
  <speed>0.01</speed>
  <fix>3d</fix>
</trkpt>
<trkpt lat="40.072842" lon="-105.230575">
  <ele>1586.09</ele>
  <time>2026-08-28T19:06:37Z</time>
  <course>150.3</course>
  <speed>0.0</speed>
  <fix>3d</fix>
</trkpt>
<trkpt lat="40.072842" lon="-105.230575">
  <ele>1586.14</ele>
  <time>2026-08-28T19:06:37Z</time>
  <course>8.68</course>
  <speed>0.01</speed>
  <fix>3d</fix>
</trkpt>
<trkpt lat="40.072842" lon="-105.230575">
  <ele>1586.09</ele>
  <time>2026-08-28T19:06:37Z</time>
  <course>32.04</course>
  <speed>0.0</speed>
  <fix>3d</fix>
</trkpt>
<trkpt lat="40.072842" lon="-105.230575">
  <ele>1586.14</ele>
  <time>2026-08-28T19:06:37Z</time>
  <course>8.68</course>
  <speed>0.01414213562373095</speed>
  <fix>3d</fix>
</trkpt>
<trkpt lat="40.072842" lon="-105.230575">
  <ele>1586.09</ele>
  <time>2026-08-28T19:06:37Z</time>
  <course>304.39</course>
  <speed>0.0</speed>
  <fix>3d</fix>
</trkpt>
<trkpt lat="40.0728421" lon="-105.2305751">
  <ele>1586.14</ele>
  <time>2026-08-28T19:06:37Z</time>
  <course>8.68</course>
  <speed>0.01414213562373095</speed>
  <fix>3d</fix>
</trkpt>
<trkpt lat="40.072842" lon="-105.230575">
  <ele>1586.09</ele>
  <time>2026-08-28T19:06:37Z</time>
  <course>265.29</course>
  <speed>0.0</speed>
  <fix>3d</fix>
</trkpt>
<trkpt lat="40.0728421" lon="-105.2305751">
  <ele>1586.14</ele>
  <time>2026-08-28T19:06:37Z</time>
  <course>8.68</course>
  <speed>0.01414213562373095</speed>
  <fix>3d</fix>
</trkpt>
<trkpt lat="40.072842" lon="-105.230575">
  <ele>1586.09</ele>
  <time>2026-08-28T19:06:37Z</time>
  <course>272.91</course>
  <speed>0.0</speed>
  <fix>3d</fix>
</trkpt>
<trkpt lat="40.0728421" lon="-105.2305751">
  <ele>1586.14</ele>
  <time>2026-08-28T19:06:37Z</time>
  <course>8.68</course>
  <speed>0.01414213562373095</speed>
  <fix>3d</fix>
</trkpt>
<trkpt lat="40.072842" lon="-105.230575">
  <ele>1586.09</ele>
  <time>2026-08-28T19:06:37Z</time>
  <course>111.52</course>
  <speed>0.0</speed>
  <fix>3d</fix>
</trkpt>
<trkpt lat="40.0728421" lon="-105.2305751">
  <ele>1586.14</ele>
  <time>2026-08-28T19:06:37Z</time>
  <course>8.68</course>
  <speed>0.01414213562373095</speed>
  <fix>3d</fix>
</trkpt>
<trkpt lat="40.072842" lon="-105.230575">
  <ele>1586.09</ele>
  <time>2026-08-28T19:06:37Z</time>
  <course>103.98</course>
  <speed>0.0</speed>
  <fix>3d</fix>
</trkpt>
<trkpt lat="40.0728421" lon="-105.2305751">
  <ele>1586.14</ele>
  <time>2026-08-28T19:06:37Z</time>
  <course>8.68</course>
  <speed>0.01414213562373095</speed>
  <fix>3d</fix>
</trkpt>
<trkpt lat="40.072842" lon="-105.230575">
  <ele>1586.09</ele>
  <time>2026-08-28T19:06:37Z</time>
  <course>88.9</course>
  <speed>0.0</speed>
  <fix>3d</fix>
</trkpt>
<trkpt lat="40.0728421" lon="-105.2305751">
  <ele>1586.14</ele>
  <time>2026-08-28T19:06:37Z</time>
  <course>8.68</course>
  <speed>0.01414213562373095</speed>
  <fix>3d</fix>
</trkpt>
<trkpt lat="40.072842" lon="-105.230575">
  <ele>1586.09</ele>
  <time>2026-08-28T19:06:37Z</time>
  <course>299.39</course>
  <speed>0.0</speed>
  <fix>3d</fix>
</trkpt>
<trkpt lat="40.0728421" lon="-105.2305751">
  <ele>1586.14</ele>
  <time>2026-08-28T19:06:37Z</time>
  <course>8.68</course>
  <speed>0.022360679774997897</speed>
  <fix>3d</fix>
</trkpt>
<trkpt lat="40.072842" lon="-105.230575">
  <ele>1586.09</ele>
  <time>2026-08-28T19:06:37Z</time>
  <course>256.52</course>
  <speed>0.0</speed>
  <fix>3d</fix>
</trkpt>
<trkpt lat="40.0728421" lon="-105.2305751">
  <ele>1586.15</ele>
  <time>2026-08-28T19:06:37Z</time>
  <course>8.68</course>
  <speed>0.022360679774997897</speed>
  <fix>3d</fix>
</trkpt>
<trkpt lat="40.072842" lon="-105.230575">
  <ele>1586.09</ele>
  <time>2026-08-28T19:06:37Z</time>
  <course>135.36</course>
  <speed>0.0</speed>
  <fix>3d</fix>
</trkpt>
<trkpt lat="40.0728421" lon="-105.2305751">
  <ele>1586.15</ele>
  <time>2026-08-28T19:06:37Z</time>
  <course>8.68</course>
  <speed>0.022360679774997897</speed>
  <fix>3d</fix>
</trkpt>
<trkpt lat="40.072842" lon="-105.230575">
  <ele>1586.09</ele>
  <time>2026-08-28T19:06:37Z</time>
  <course>289.2</course>
  <speed>0.0</speed>
  <fix>3d</fix>
</trkpt>
<trkpt lat="40.0728421" lon="-105.2305751">
  <ele>1586.15</ele>
  <time>2026-08-28T19:06:37Z</time>
  <course>8.68</course>
  <speed>0.022360679774997897</speed>
  <fix>3d</fix>
</trkpt>
<trkpt lat="40.072842" lon="-105.230575">
  <ele>1586.09</ele>
  <time>2026-08-28T19:06:37Z</time>
  <course>271.58</course>
  <speed>0.0</speed>
  <fix>3d</fix>
</trkpt>
<trkpt lat="40.0728421" lon="-105.2305751">
  <ele>1586.15</ele>
  <time>2026-08-28T19:06:37Z</time>
  <course>8.68</course>
  <speed>0.022360679774997897</speed>
  <fix>3d</fix>
</trkpt>
<trkpt lat="40.072842" lon="-105.230575">
  <ele>1586.09</ele>
  <time>2026-08-28T19:06:37Z</time>
  <course>263.08</course>
  <speed>0.0</speed>
  <fix>3d</fix>
</trkpt>
<trkpt lat="40.0728421" lon="-105.2305751">
  <ele>1586.15</ele>
  <time>2026-08-28T19:06:37Z</time>
  <course>8.68</course>
  <speed>0.022360679774997897</speed>
  <fix>3d</fix>
</trkpt>
<trkpt lat="40.072842" lon="-105.230575">
  <ele>1586.09</ele>
  <time>2026-08-28T19:06:37Z</time>
  <course>265.39</course>
  <speed>0.0</speed>
  <fix>3d</fix>
</trkpt>
<trkpt lat="40.0728421" lon="-105.2305751">
  <ele>1586.15</ele>
  <time>2026-08-28T19:06:37Z</time>
  <course>8.68</course>
  <speed>0.01414213562373095</speed>
  <fix>3d</fix>
</trkpt>
<trkpt lat="40.072842" lon="-105.230575">
  <ele>1586.09</ele>
  <time>2026-08-28T19:06:37Z</time>
  <course>266.51</course>
  <speed>0.0</speed>
  <fix>3d</fix>
</trkpt>
<trkpt lat="40.0728421" lon="-105.2305751">
  <ele>1586.15</ele>
  <time>2026-08-28T19:06:37Z</time>
  <course>8.68</course>
  <speed>0.01414213562373095</speed>
  <fix>3d</fix>
</trkpt>
<trkpt lat="40.072842" lon="-105.230575">
  <ele>1586.09</ele>
  <time>2026-08-28T19:06:37Z</time>
  <course>266.06</course>
  <speed>0.0</speed>
  <fix>3d</fix>
</trkpt>
<trkpt lat="40.0728421" lon="-105.2305751">
  <ele>1586.15</ele>
  <time>2026-08-28T19:06:38Z</time>
  <course>8.68</course>
  <speed>0.01414213562373095</speed>
  <fix>3d</fix>
</trkpt>
<trkpt lat="40.072842" lon="-105.230575">
  <ele>1586.09</ele>
  <time>2026-08-28T19:06:38Z</time>
  <course>265.97</course>
  <speed>0.0</speed>
  <fix>3d</fix>
</trkpt>
<trkpt lat="40.0728421" lon="-105.2305751">
  <ele>1586.15</ele>
  <time>2026-08-28T19:06:38Z</time>
  <course>8.68</course>
  <speed>0.01414213562373095</speed>
  <fix>3d</fix>
</trkpt>
<trkpt lat="40.072842" lon="-105.230575">
  <ele>1586.09</ele>
  <time>2026-08-28T19:06:38Z</time>
  <course>266.04</course>
  <speed>0.0</speed>
  <fix>3d</fix>
</trkpt>
<trkpt lat="40.0728421" lon="-105.2305751">
  <ele>1586.15</ele>
  <time>2026-08-28T19:06:38Z</time>
  <course>8.68</course>
  <speed>0.01414213562373095</speed>
  <fix>3d</fix>
</trkpt>
<trkpt lat="40.072842" lon="-105.230575">
  <ele>1586.09</ele>
  <time>2026-08-28T19:06:38Z</time>
  <course>266.04</course>
  <speed>0.0</speed>
  <fix>3d</fix>
</trkpt>
<trkpt lat="40.0728421" lon="-105.2305751">
  <ele>1586.15</ele>
  <time>2026-08-28T19:06:38Z</time>
  <course>8.68</course>
  <speed>0.01414213562373095</speed>
  <fix>3d</fix>
</trkpt>
<trkpt lat="40.072842" lon="-105.230575">
  <ele>1586.09</ele>
  <time>2026-08-28T19:06:38Z</time>
  <course>266.03</course>
  <speed>0.0</speed>
  <fix>3d</fix>
</trkpt>
<trkpt lat="40.0728421" lon="-105.2305751">
  <ele>1586.14</ele>
  <time>2026-08-28T19:06:38Z</time>
  <course>8.68</course>
  <speed>0.01414213562373095</speed>
  <fix>3d</fix>
</trkpt>
<trkpt lat="40.072842" lon="-105.230575">
  <ele>1586.09</ele>
  <time>2026-08-28T19:06:38Z</time>
  <course>266.03</course>
  <speed>0.0</speed>
  <fix>3d</fix>
</trkpt>
<trkpt lat="40.0728421" lon="-105.2305751">
  <ele>1586.15</ele>
  <time>2026-08-28T19:06:38Z</time>
  <course>8.67</course>
  <speed>0.01414213562373095</speed>
  <fix>3d</fix>
</trkpt>
<trkpt lat="40.072842" lon="-105.230575">
  <ele>1586.09</ele>
  <time>2026-08-28T19:06:38Z</time>
  <course>266.03</course>
  <speed>0.0</speed>
  <fix>3d</fix>
</trkpt>
<trkpt lat="40.0728421" lon="-105.2305751">
  <ele>1586.15</ele>
  <time>2026-08-28T19:06:38Z</time>
  <course>8.67</course>
  <speed>0.01414213562373095</speed>
  <fix>3d</fix>
</trkpt>
<trkpt lat="40.072842" lon="-105.230575">
  <ele>1586.09</ele>
  <time>2026-08-28T19:06:38Z</time>
  <course>266.03</course>
  <speed>0.0</speed>
  <fix>3d</fix>
</trkpt>
<trkpt lat="40.0728421" lon="-105.2305751">
  <ele>1586.14</ele>
  <time>2026-08-28T19:06:38Z</time>
  <course>8.67</course>
  <speed>0.022360679774997897</speed>
  <fix>3d</fix>
</trkpt>
<trkpt lat="40.072842" lon="-105.230575">
  <ele>1586.09</ele>
  <time>2026-08-28T19:06:38Z</time>
  <course>266.03</course>
  <speed>0.0</speed>
  <fix>3d</fix>
</trkpt>
<trkpt lat="40.0728422" lon="-105.2305752">
  <ele>1586.14</ele>
  <time>2026-08-28T19:06:38Z</time>
  <course>8.67</course>
  <speed>0.022360679774997897</speed>
  <fix>3d</fix>
</trkpt>
<trkpt lat="40.072842" lon="-105.230575">
  <ele>1586.09</ele>
  <time>2026-08-28T19:06:38Z</time>
  <course>266.03</course>
  <speed>0.0</speed>
  <fix>3d</fix>
</trkpt>
<trkpt lat="40.0728422" lon="-105.2305752">
  <ele>1586.14</ele>
  <time>2026-08-28T19:06:38Z</time>
  <course>8.67</course>
  <speed>0.0282842712474619</speed>
  <fix>3d</fix>
</trkpt>
<trkpt lat="40.072842" lon="-105.230575">
  <ele>1586.09</ele>
  <time>2026-08-28T19:06:38Z</time>
  <course>266.03</course>
  <speed>0.0</speed>
  <fix>3d</fix>
</trkpt>
<trkpt lat="40.0728423" lon="-105.2305753">
  <ele>1586.14</ele>
  <time>2026-08-28T19:06:38Z</time>
  <course>8.67</course>
  <speed>0.03605551275463989</speed>
  <fix>3d</fix>
</trkpt>
<trkpt lat="40.072842" lon="-105.230575">
  <ele>1586.09</ele>
  <time>2026-08-28T19:06:38Z</time>
  <course>87.91</course>
  <speed>0.0</speed>
  <fix>3d</fix>
</trkpt>
<trkpt lat="40.0728424" lon="-105.2305753">
  <ele>1586.15</ele>
  <time>2026-08-28T19:06:38Z</time>
  <course>8.67</course>
  <speed>0.03605551275463989</speed>
  <fix>3d</fix>
</trkpt>
<trkpt lat="40.072842" lon="-105.230575">
  <ele>1586.09</ele>
  <time>2026-08-28T19:06:38Z</time>
  <course>76.28</course>
  <speed>0.0</speed>
  <fix>3d</fix>
</trkpt>
<trkpt lat="40.0728424" lon="-105.2305754">
  <ele>1586.15</ele>
  <time>2026-08-28T19:06:38Z</time>
  <course>8.67</course>
  <speed>0.03605551275463989</speed>
  <fix>3d</fix>
</trkpt>
<trkpt lat="40.072842" lon="-105.230575">
  <ele>1586.09</ele>
  <time>2026-08-28T19:06:38Z</time>
  <course>324.79</course>
  <speed>0.0</speed>
  <fix>3d</fix>
</trkpt>
<trkpt lat="40.0728425" lon="-105.2305755">
  <ele>1586.16</ele>
  <time>2026-08-28T19:06:38Z</time>
  <course>8.67</course>
  <speed>0.05</speed>
  <fix>3d</fix>
</trkpt>
<trkpt lat="40.072842" lon="-105.230575">
  <ele>1586.09</ele>
  <time>2026-08-28T19:06:38Z</time>
  <course>107.42</course>
  <speed>0.0</speed>
  <fix>3d</fix>
</trkpt>
<trkpt lat="40.0728426" lon="-105.2305756">
  <ele>1586.16</ele>
  <time>2026-08-28T19:06:38Z</time>
  <course>8.67</course>
  <speed>0.05</speed>
  <fix>3d</fix>
</trkpt>
<trkpt lat="40.072842" lon="-105.230575">
  <ele>1586.09</ele>
  <time>2026-08-28T19:06:38Z</time>
  <course>113.7</course>
  <speed>0.0</speed>
  <fix>3d</fix>
</trkpt>
<trkpt lat="40.0728427" lon="-105.2305757">
  <ele>1586.16</ele>
  <time>2026-08-28T19:06:38Z</time>
  <course>8.67</course>
  <speed>0.05</speed>
  <fix>3d</fix>
</trkpt>
<trkpt lat="40.072842" lon="-105.230575">
  <ele>1586.09</ele>
  <time>2026-08-28T19:06:38Z</time>
  <course>126.39</course>
  <speed>0.0</speed>
  <fix>3d</fix>
</trkpt>
<trkpt lat="40.0728428" lon="-105.2305757">
  <ele>1586.15</ele>
  <time>2026-08-28T19:06:38Z</time>
  <course>8.67</course>
  <speed>0.05830951894845301</speed>
  <fix>3d</fix>
</trkpt>
<trkpt lat="40.072842" lon="-105.230575">
  <ele>1586.09</ele>
  <time>2026-08-28T19:06:38Z</time>
  <course>76.68</course>
  <speed>0.0</speed>
  <fix>3d</fix>
</trkpt>
<trkpt lat="40.0728429" lon="-105.2305758">
  <ele>1586.15</ele>
  <time>2026-08-28T19:06:38Z</time>
  <course>8.67</course>
  <speed>0.06403124237432849</speed>
  <fix>3d</fix>
</trkpt>
<trkpt lat="40.072842" lon="-105.230575">
  <ele>1586.09</ele>
  <time>2026-08-28T19:06:38Z</time>
  <course>118.91</course>
  <speed>0.0</speed>
  <fix>3d</fix>
</trkpt>
<trkpt lat="40.072843" lon="-105.2305759">
  <ele>1586.15</ele>
  <time>2026-08-28T19:06:38Z</time>
  <course>8.67</course>
  <speed>0.07211102550927978</speed>
  <fix>3d</fix>
</trkpt>
<trkpt lat="40.072842" lon="-105.230575">
  <ele>1586.09</ele>
  <time>2026-08-28T19:06:38Z</time>
  <course>139.57</course>
  <speed>0.0</speed>
  <fix>3d</fix>
</trkpt>
<trkpt lat="40.0728431" lon="-105.2305761">
  <ele>1586.15</ele>
  <time>2026-08-28T19:06:38Z</time>
  <course>8.67</course>
  <speed>0.07211102550927978</speed>
  <fix>3d</fix>
</trkpt>
<trkpt lat="40.072842" lon="-105.230575">
  <ele>1586.09</ele>
  <time>2026-08-28T19:06:38Z</time>
  <course>87.79</course>
  <speed>0.0</speed>
  <fix>3d</fix>
</trkpt>
<trkpt lat="40.0728432" lon="-105.2305762">
  <ele>1586.15</ele>
  <time>2026-08-28T19:06:38Z</time>
  <course>8.67</course>
  <speed>0.08602325267042626</speed>
  <fix>3d</fix>
</trkpt>
<trkpt lat="40.072842" lon="-105.230575">
  <ele>1586.09</ele>
  <time>2026-08-28T19:06:38Z</time>
  <course>119.01</course>
  <speed>0.0</speed>
  <fix>3d</fix>
</trkpt>
<trkpt lat="40.0728433" lon="-105.2305763">
  <ele>1586.15</ele>
  <time>2026-08-28T19:06:38Z</time>
  <course>8.67</course>
  <speed>0.08602325267042626</speed>
  <fix>3d</fix>
</trkpt>
<trkpt lat="40.072842" lon="-105.230575">
  <ele>1586.09</ele>
  <time>2026-08-28T19:06:38Z</time>
  <course>126.18</course>
  <speed>0.0</speed>
  <fix>3d</fix>
</trkpt>
<trkpt lat="40.0728434" lon="-105.2305764">
  <ele>1586.15</ele>
  <time>2026-08-28T19:06:38Z</time>
  <course>8.67</course>
  <speed>0.08602325267042626</speed>
  <fix>3d</fix>
</trkpt>
<trkpt lat="40.072842" lon="-105.230575">
  <ele>1586.09</ele>
  <time>2026-08-28T19:06:38Z</time>
  <course>95.36</course>
  <speed>0.0</speed>
  <fix>3d</fix>
</trkpt>
<trkpt lat="40.0728436" lon="-105.2305765">
  <ele>1586.15</ele>
  <time>2026-08-28T19:06:38Z</time>
  <course>8.67</course>
  <speed>0.1</speed>
  <fix>3d</fix>
</trkpt>
<trkpt lat="40.072842" lon="-105.230575">
  <ele>1586.09</ele>
  <time>2026-08-28T19:06:38Z</time>
  <course>141.22</course>
  <speed>0.0</speed>
  <fix>3d</fix>
</trkpt>
<trkpt lat="40.0728437" lon="-105.2305766">
  <ele>1586.15</ele>
  <time>2026-08-28T19:06:38Z</time>
  <course>8.66</course>
  <speed>0.1</speed>
  <fix>3d</fix>
</trkpt>
<trkpt lat="40.072842" lon="-105.230575">
  <ele>1586.09</ele>
  <time>2026-08-28T19:06:38Z</time>
  <course>95.76</course>
  <speed>0.0</speed>
  <fix>3d</fix>
</trkpt>
<trkpt lat="40.0728439" lon="-105.2305768">
  <ele>1586.15</ele>
  <time>2026-08-28T19:06:38Z</time>
  <course>8.66</course>
  <speed>0.10816653826391968</speed>
  <fix>3d</fix>
</trkpt>
<trkpt lat="40.072842" lon="-105.230575">
  <ele>1586.09</ele>
  <time>2026-08-28T19:06:38Z</time>
  <course>54.85</course>
  <speed>0.0</speed>
  <fix>3d</fix>
</trkpt>
<trkpt lat="40.072844" lon="-105.2305769">
  <ele>1586.15</ele>
  <time>2026-08-28T19:06:38Z</time>
  <course>8.66</course>
  <speed>0.11401754250991379</speed>
  <fix>3d</fix>
</trkpt>
<trkpt lat="40.072842" lon="-105.230575">
  <ele>1586.09</ele>
  <time>2026-08-28T19:06:38Z</time>
  <course>121.12</course>
  <speed>0.0</speed>
  <fix>3d</fix>
</trkpt>
<trkpt lat="40.0728441" lon="-105.230577">
  <ele>1586.15</ele>
  <time>2026-08-28T19:06:38Z</time>
  <course>8.66</course>
  <speed>0.11401754250991379</speed>
  <fix>3d</fix>
</trkpt>
<trkpt lat="40.072842" lon="-105.230575">
  <ele>1586.09</ele>
  <time>2026-08-28T19:06:38Z</time>
  <course>118.41</course>
  <speed>0.0</speed>
  <fix>3d</fix>
</trkpt>
<trkpt lat="40.0728442" lon="-105.2305771">
  <ele>1586.15</ele>
  <time>2026-08-28T19:06:38Z</time>
  <course>8.66</course>
  <speed>0.12206555615733702</speed>
  <fix>3d</fix>
</trkpt>
<trkpt lat="40.072842" lon="-105.230575">
  <ele>1586.09</ele>
  <time>2026-08-28T19:06:38Z</time>
  <course>108.99</course>
  <speed>0.0</speed>
  <fix>3d</fix>
</trkpt>
<trkpt lat="40.0728444" lon="-105.2305773">
  <ele>1586.16</ele>
  <time>2026-08-28T19:06:38Z</time>
  <course>8.66</course>
  <speed>0.12206555615733702</speed>
  <fix>3d</fix>
</trkpt>
<trkpt lat="40.072842" lon="-105.230575">
  <ele>1586.09</ele>
  <time>2026-08-28T19:06:38Z</time>
  <course>78.51</course>
  <speed>0.0</speed>
  <fix>3d</fix>
</trkpt>
<trkpt lat="40.0728446" lon="-105.2305775">
  <ele>1586.16</ele>
  <time>2026-08-28T19:06:38Z</time>
  <course>8.66</course>
  <speed>0.13601470508735444</speed>
  <fix>3d</fix>
</trkpt>
<trkpt lat="40.072842" lon="-105.230575">
  <ele>1586.09</ele>
  <time>2026-08-28T19:06:38Z</time>
  <course>118.78</course>
  <speed>0.0</speed>
  <fix>3d</fix>
</trkpt>
<trkpt lat="40.0728447" lon="-105.2305776">
  <ele>1586.16</ele>
  <time>2026-08-28T19:06:38Z</time>
  <course>8.66</course>
  <speed>0.13601470508735444</speed>
  <fix>3d</fix>
</trkpt>
<trkpt lat="40.072842" lon="-105.230575">
  <ele>1586.09</ele>
  <time>2026-08-28T19:06:38Z</time>
  <course>129.83</course>
  <speed>0.0</speed>
  <fix>3d</fix>
</trkpt>
<trkpt lat="40.0728448" lon="-105.2305777">
  <ele>1586.16</ele>
  <time>2026-08-28T19:06:38Z</time>
  <course>8.66</course>
  <speed>0.13601470508735444</speed>
  <fix>3d</fix>
</trkpt>
<trkpt lat="40.072842" lon="-105.230575">
  <ele>1586.09</ele>
  <time>2026-08-28T19:06:38Z</time>
  <course>90.7</course>
  <speed>0.0</speed>
  <fix>3d</fix>
</trkpt>
<trkpt lat="40.0728449" lon="-105.2305778">
  <ele>1586.16</ele>
  <time>2026-08-28T19:06:38Z</time>
  <course>8.65</course>
  <speed>0.13601470508735444</speed>
  <fix>3d</fix>
</trkpt>
<trkpt lat="40.072842" lon="-105.230575">
  <ele>1586.09</ele>
  <time>2026-08-28T19:06:38Z</time>
  <course>117.19</course>
  <speed>0.0</speed>
  <fix>3d</fix>
</trkpt>
<trkpt lat="40.0728451" lon="-105.230578">
  <ele>1586.17</ele>
  <time>2026-08-28T19:06:38Z</time>
  <course>8.65</course>
  <speed>0.15</speed>
  <fix>3d</fix>
</trkpt>
<trkpt lat="40.072842" lon="-105.230575">
  <ele>1586.09</ele>
  <time>2026-08-28T19:06:38Z</time>
  <course>135.38</course>
  <speed>0.0</speed>
  <fix>3d</fix>
</trkpt>
<trkpt lat="40.0728453" lon="-105.2305782">
  <ele>1586.18</ele>
  <time>2026-08-28T19:06:38Z</time>
  <course>8.65</course>
  <speed>0.15</speed>
  <fix>3d</fix>
</trkpt>
<trkpt lat="40.072842" lon="-105.230575">
  <ele>1586.09</ele>
  <time>2026-08-28T19:06:38Z</time>
  <course>83.75</course>
  <speed>0.0</speed>
  <fix>3d</fix>
</trkpt>
<trkpt lat="40.0728455" lon="-105.2305784">
  <ele>1586.19</ele>
  <time>2026-08-28T19:06:38Z</time>
  <course>8.65</course>
  <speed>0.15811388300841897</speed>
  <fix>3d</fix>
</trkpt>
<trkpt lat="40.072842" lon="-105.230575">
  <ele>1586.09</ele>
  <time>2026-08-28T19:06:38Z</time>
  <course>82.33</course>
  <speed>0.0</speed>
  <fix>3d</fix>
</trkpt>
<trkpt lat="40.0728455" lon="-105.2305784">
  <ele>1586.19</ele>
  <time>2026-08-28T19:06:38Z</time>
  <course>8.65</course>
  <speed>0.15811388300841897</speed>
  <fix>3d</fix>
</trkpt>
<trkpt lat="40.072842" lon="-105.230575">
  <ele>1586.09</ele>
  <time>2026-08-28T19:06:38Z</time>
  <course>126.34</course>
  <speed>0.0</speed>
  <fix>3d</fix>
</trkpt>
<trkpt lat="40.0728455" lon="-105.2305784">
  <ele>1586.19</ele>
  <time>2026-08-28T19:06:38Z</time>
  <course>8.65</course>
  <speed>0.15811388300841897</speed>
  <fix>3d</fix>
</trkpt>
<trkpt lat="40.072842" lon="-105.230575">
  <ele>1586.09</ele>
  <time>2026-08-28T19:06:38Z</time>
  <course>95.59</course>
  <speed>0.0</speed>
  <fix>3d</fix>
</trkpt>
<trkpt lat="40.0728457" lon="-105.2305786">
  <ele>1586.19</ele>
  <time>2026-08-28T19:06:38Z</time>
  <course>8.65</course>
  <speed>0.16401219466856726</speed>
  <fix>3d</fix>
</trkpt>
<trkpt lat="40.072842" lon="-105.230575">
  <ele>1586.09</ele>
  <time>2026-08-28T19:06:38Z</time>
  <course>33.76</course>
  <speed>0.0</speed>
  <fix>3d</fix>
</trkpt>
<trkpt lat="40.0728459" lon="-105.2305788">
  <ele>1586.2</ele>
  <time>2026-08-28T19:06:38Z</time>
  <course>8.64</course>
  <speed>0.17204650534085253</speed>
  <fix>3d</fix>
</trkpt>
<trkpt lat="40.072842" lon="-105.230575">
  <ele>1586.09</ele>
  <time>2026-08-28T19:06:38Z</time>
  <course>167.06</course>
  <speed>0.0</speed>
  <fix>3d</fix>
</trkpt>
<trkpt lat="40.0728461" lon="-105.230579">
  <ele>1586.2</ele>
  <time>2026-08-28T19:06:38Z</time>
  <course>8.64</course>
  <speed>0.17204650534085253</speed>
  <fix>3d</fix>
</trkpt>
<trkpt lat="40.072842" lon="-105.230575">
  <ele>1586.09</ele>
  <time>2026-08-28T19:06:38Z</time>
  <course>69.03</course>
  <speed>0.0</speed>
  <fix>3d</fix>
</trkpt>
<trkpt lat="40.0728462" lon="-105.2305791">
  <ele>1586.19</ele>
  <time>2026-08-28T19:06:38Z</time>
  <course>8.64</course>
  <speed>0.17804493814764857</speed>
  <fix>3d</fix>
</trkpt>
<trkpt lat="40.072842" lon="-105.230575">
  <ele>1586.09</ele>
  <time>2026-08-28T19:06:38Z</time>
  <course>107.89</course>
  <speed>0.0</speed>
  <fix>3d</fix>
</trkpt>
<trkpt lat="40.0728461" lon="-105.230579">
  <ele>1586.18</ele>
  <time>2026-08-28T19:06:38Z</time>
  <course>8.64</course>
  <speed>0.17204650534085253</speed>
  <fix>3d</fix>
</trkpt>
<trkpt lat="40.072842" lon="-105.230575">
  <ele>1586.09</ele>
  <time>2026-08-28T19:06:38Z</time>
  <course>118.32</course>
  <speed>0.0</speed>
  <fix>3d</fix>
</trkpt>
<trkpt lat="40.0728462" lon="-105.230579">
  <ele>1586.18</ele>
  <time>2026-08-28T19:06:38Z</time>
  <course>8.64</course>
  <speed>0.17204650534085253</speed>
  <fix>3d</fix>
</trkpt>
<trkpt lat="40.072842" lon="-105.230575">
  <ele>1586.09</ele>
  <time>2026-08-28T19:06:38Z</time>
  <course>56.33</course>
  <speed>0.0</speed>
  <fix>3d</fix>
</trkpt>
<trkpt lat="40.0728463" lon="-105.2305792">
  <ele>1586.18</ele>
  <time>2026-08-28T19:06:38Z</time>
  <course>8.64</course>
  <speed>0.17804493814764857</speed>
  <fix>3d</fix>
</trkpt>
<trkpt lat="40.072842" lon="-105.230575">
  <ele>1586.09</ele>
  <time>2026-08-28T19:06:38Z</time>
  <course>300.99</course>
  <speed>0.0</speed>
  <fix>3d</fix>
</trkpt>
<trkpt lat="40.0728466" lon="-105.2305794">
  <ele>1586.18</ele>
  <time>2026-08-28T19:06:38Z</time>
  <course>8.64</course>
  <speed>0.18601075237738274</speed>
  <fix>3d</fix>
</trkpt>
<trkpt lat="40.072842" lon="-105.230575">
  <ele>1586.09</ele>
  <time>2026-08-28T19:06:38Z</time>
  <course>128.16</course>
  <speed>0.0</speed>
  <fix>3d</fix>
</trkpt>
<trkpt lat="40.0728469" lon="-105.2305797">
  <ele>1586.17</ele>
  <time>2026-08-28T19:06:38Z</time>
  <course>8.63</course>
  <speed>0.194164878389476</speed>
  <fix>3d</fix>
</trkpt>
<trkpt lat="40.072842" lon="-105.230575">
  <ele>1586.09</ele>
  <time>2026-08-28T19:06:38Z</time>
  <course>94.28</course>
  <speed>0.0</speed>
  <fix>3d</fix>
</trkpt>
<trkpt lat="40.0728466" lon="-105.2305795">
  <ele>1586.17</ele>
  <time>2026-08-28T19:06:38Z</time>
  <course>8.63</course>
  <speed>0.18601075237738274</speed>
  <fix>3d</fix>
</trkpt>
<trkpt lat="40.072842" lon="-105.230575">
  <ele>1586.09</ele>
  <time>2026-08-28T19:06:38Z</time>
  <course>111.58</course>
  <speed>0.0</speed>
  <fix>3d</fix>
</trkpt>
<trkpt lat="40.0728465" lon="-105.2305794">
  <ele>1586.17</ele>
  <time>2026-08-28T19:06:38Z</time>
  <course>8.63</course>
  <speed>0.18601075237738274</speed>
  <fix>3d</fix>
</trkpt>
<trkpt lat="40.072842" lon="-105.230575">
  <ele>1586.09</ele>
  <time>2026-08-28T19:06:38Z</time>
  <course>111.42</course>
  <speed>0.0</speed>
  <fix>3d</fix>
</trkpt>
<trkpt lat="40.0728466" lon="-105.2305795">
  <ele>1586.18</ele>
  <time>2026-08-28T19:06:38Z</time>
  <course>8.63</course>
  <speed>0.18601075237738274</speed>
  <fix>3d</fix>
</trkpt>
<trkpt lat="40.072842" lon="-105.230575">
  <ele>1586.09</ele>
  <time>2026-08-28T19:06:38Z</time>
  <course>80.62</course>
  <speed>0.0</speed>
  <fix>3d</fix>
</trkpt>
<trkpt lat="40.0728468" lon="-105.2305797">
  <ele>1586.19</ele>
  <time>2026-08-28T19:06:38Z</time>
  <course>8.63</course>
  <speed>0.18601075237738274</speed>
  <fix>3d</fix>
</trkpt>
<trkpt lat="40.072842" lon="-105.230575">
  <ele>1586.09</ele>
  <time>2026-08-28T19:06:38Z</time>
  <course>175.05</course>
  <speed>0.0</speed>
  <fix>3d</fix>
</trkpt>
<trkpt lat="40.0728471" lon="-105.2305799">
  <ele>1586.19</ele>
  <time>2026-08-28T19:06:38Z</time>
  <course>8.63</course>
  <speed>0.2</speed>
  <fix>3d</fix>
</trkpt>
<trkpt lat="40.072842" lon="-105.230575">
  <ele>1586.09</ele>
  <time>2026-08-28T19:06:38Z</time>
  <course>110.33</course>
  <speed>0.0</speed>
  <fix>3d</fix>
</trkpt>
<trkpt lat="40.0728468" lon="-105.2305796">
  <ele>1586.2</ele>
  <time>2026-08-28T19:06:38Z</time>
  <course>8.63</course>
  <speed>0.18601075237738274</speed>
  <fix>3d</fix>
</trkpt>
<trkpt lat="40.072842" lon="-105.230575">
  <ele>1586.09</ele>
  <time>2026-08-28T19:06:38Z</time>
  <course>109.85</course>
  <speed>0.0</speed>
  <fix>3d</fix>
</trkpt>
<trkpt lat="40.0728466" lon="-105.2305795">
  <ele>1586.2</ele>
  <time>2026-08-28T19:06:38Z</time>
  <course>8.62</course>
  <speed>0.18601075237738274</speed>
  <fix>3d</fix>
</trkpt>
<trkpt lat="40.072842" lon="-105.230575">
  <ele>1586.09</ele>
  <time>2026-08-28T19:06:38Z</time>
  <course>96.63</course>
  <speed>0.0</speed>
  <fix>3d</fix>
</trkpt>
<trkpt lat="40.0728467" lon="-105.2305795">
  <ele>1586.2</ele>
  <time>2026-08-28T19:06:38Z</time>
  <course>8.62</course>
  <speed>0.18601075237738274</speed>
  <fix>3d</fix>
</trkpt>
<trkpt lat="40.072842" lon="-105.230575">
  <ele>1586.09</ele>
  <time>2026-08-28T19:06:38Z</time>
  <course>337.08</course>
  <speed>0.0</speed>
  <fix>3d</fix>
</trkpt>
<trkpt lat="40.0728469" lon="-105.2305797">
  <ele>1586.2</ele>
  <time>2026-08-28T19:06:38Z</time>
  <course>8.62</course>
  <speed>0.18601075237738274</speed>
  <fix>3d</fix>
</trkpt>
<trkpt lat="40.072842" lon="-105.230575">
  <ele>1586.09</ele>
  <time>2026-08-28T19:06:38Z</time>
  <course>247.69</course>
  <speed>0.0</speed>
  <fix>3d</fix>
</trkpt>
<trkpt lat="40.0728471" lon="-105.23058">
  <ele>1586.2</ele>
  <time>2026-08-28T19:06:38Z</time>
  <course>8.62</course>
  <speed>0.2</speed>
  <fix>3d</fix>
</trkpt>
<trkpt lat="40.072842" lon="-105.230575">
  <ele>1586.09</ele>
  <time>2026-08-28T19:06:38Z</time>
  <course>118.74</course>
  <speed>0.0</speed>
  <fix>3d</fix>
</trkpt>
<trkpt lat="40.0728468" lon="-105.2305796">
  <ele>1586.2</ele>
  <time>2026-08-28T19:06:38Z</time>
  <course>8.62</course>
  <speed>0.18601075237738274</speed>
  <fix>3d</fix>
</trkpt>
<trkpt lat="40.072842" lon="-105.230575">
  <ele>1586.09</ele>
  <time>2026-08-28T19:06:38Z</time>
  <course>107.14</course>
  <speed>0.0</speed>
  <fix>3d</fix>
</trkpt>
<trkpt lat="40.0728466" lon="-105.2305794">
  <ele>1586.2</ele>
  <time>2026-08-28T19:06:38Z</time>
  <course>8.62</course>
  <speed>0.17804493814764857</speed>
  <fix>3d</fix>
</trkpt>
<trkpt lat="40.072842" lon="-105.230575">
  <ele>1586.09</ele>
  <time>2026-08-28T19:06:38Z</time>
  <course>95.75</course>
  <speed>0.0</speed>
  <fix>3d</fix>
</trkpt>
<trkpt lat="40.0728466" lon="-105.2305794">
  <ele>1586.2</ele>
  <time>2026-08-28T19:06:38Z</time>
  <course>8.62</course>
  <speed>0.18601075237738274</speed>
  <fix>3d</fix>
</trkpt>
<trkpt lat="40.072842" lon="-105.230575">
  <ele>1586.09</ele>
  <time>2026-08-28T19:06:38Z</time>
  <course>0.81</course>
  <speed>0.0</speed>
  <fix>3d</fix>
</trkpt>
<trkpt lat="40.0728468" lon="-105.2305796">
  <ele>1586.19</ele>
  <time>2026-08-28T19:06:38Z</time>
  <course>8.62</course>
  <speed>0.18601075237738274</speed>
  <fix>3d</fix>
</trkpt>
<trkpt lat="40.072842" lon="-105.230575">
  <ele>1586.09</ele>
  <time>2026-08-28T19:06:38Z</time>
  <course>247.44</course>
  <speed>0.0</speed>
  <fix>3d</fix>
</trkpt>
<trkpt lat="40.0728421" lon="-105.2305751">
  <ele>1586.19</ele>
  <time>2026-08-28T19:06:38Z</time>
  <course>8.61</course>
  <speed>0.13601470508735444</speed>
  <fix>3d</fix>
</trkpt>
<trkpt lat="40.072842" lon="-105.230575">
  <ele>1586.09</ele>
  <time>2026-08-28T19:06:38Z</time>
  <course>118.53</course>
  <speed>0.0</speed>
  <fix>3d</fix>
</trkpt>
<trkpt lat="40.0728421" lon="-105.2305751">
  <ele>1586.2</ele>
  <time>2026-08-28T19:06:38Z</time>
  <course>8.61</course>
  <speed>0.07810249675906654</speed>
  <fix>3d</fix>
</trkpt>
<trkpt lat="40.072842" lon="-105.230575">
  <ele>1586.09</ele>
  <time>2026-08-28T19:06:38Z</time>
  <course>32.1</course>
  <speed>0.0</speed>
  <fix>3d</fix>
</trkpt>
<trkpt lat="40.072842" lon="-105.230575">
  <ele>1586.19</ele>
  <time>2026-08-28T19:06:38Z</time>
  <course>8.61</course>
  <speed>0.03605551275463989</speed>
  <fix>3d</fix>
</trkpt>
<trkpt lat="40.072842" lon="-105.230575">
  <ele>1586.09</ele>
  <time>2026-08-28T19:06:38Z</time>
  <course>296.3</course>
  <speed>0.0</speed>
  <fix>3d</fix>
</trkpt>
<trkpt lat="40.072842" lon="-105.230575">
  <ele>1586.19</ele>
  <time>2026-08-28T19:06:38Z</time>
  <course>8.61</course>
  <speed>0.022360679774997897</speed>
  <fix>3d</fix>
</trkpt>
<trkpt lat="40.072842" lon="-105.230575">
  <ele>1586.09</ele>
  <time>2026-08-28T19:06:38Z</time>
  <course>284.25</course>
  <speed>0.0</speed>
  <fix>3d</fix>
</trkpt>
<trkpt lat="40.0728419" lon="-105.2305749">
  <ele>1586.18</ele>
  <time>2026-08-28T19:06:38Z</time>
  <course>8.61</course>
  <speed>0.01</speed>
  <fix>3d</fix>
</trkpt>
<trkpt lat="40.072842" lon="-105.230575">
  <ele>1586.09</ele>
  <time>2026-08-28T19:06:38Z</time>
  <course>279.7</course>
  <speed>0.0</speed>
  <fix>3d</fix>
</trkpt>
<trkpt lat="40.0728419" lon="-105.2305749">
  <ele>1586.17</ele>
  <time>2026-08-28T19:06:38Z</time>
  <course>8.61</course>
  <speed>0.0</speed>
  <fix>3d</fix>
</trkpt>
<trkpt lat="40.072842" lon="-105.230575">
  <ele>1586.09</ele>
  <time>2026-08-28T19:06:38Z</time>
  <course>281.02</course>
  <speed>0.0</speed>
  <fix>3d</fix>
</trkpt>
<trkpt lat="40.0728419" lon="-105.2305749">
  <ele>1586.17</ele>
  <time>2026-08-28T19:06:38Z</time>
  <course>8.61</course>
  <speed>0.0</speed>
  <fix>3d</fix>
</trkpt>
<trkpt lat="40.072842" lon="-105.230575">
  <ele>1586.09</ele>
  <time>2026-08-28T19:06:38Z</time>
  <course>286.46</course>
  <speed>0.0</speed>
  <fix>3d</fix>
</trkpt>
<trkpt lat="40.0728419" lon="-105.2305749">
  <ele>1586.17</ele>
  <time>2026-08-28T19:06:38Z</time>
  <course>8.61</course>
  <speed>0.0</speed>
  <fix>3d</fix>
</trkpt>
<trkpt lat="40.072842" lon="-105.230575">
  <ele>1586.09</ele>
  <time>2026-08-28T19:06:38Z</time>
  <course>293.95</course>
  <speed>0.0</speed>
  <fix>3d</fix>
</trkpt>
<trkpt lat="40.072842" lon="-105.230575">
  <ele>1586.17</ele>
  <time>2026-08-28T19:06:38Z</time>
  <course>8.61</course>
  <speed>0.0</speed>
  <fix>3d</fix>
</trkpt>
<trkpt lat="40.072842" lon="-105.230575">
  <ele>1586.09</ele>
  <time>2026-08-28T19:06:38Z</time>
  <course>293.97</course>
  <speed>0.0</speed>
  <fix>3d</fix>
</trkpt>
<trkpt lat="40.072842" lon="-105.230575">
  <ele>1586.17</ele>
  <time>2026-08-28T19:06:38Z</time>
  <course>8.61</course>
  <speed>0.01</speed>
  <fix>3d</fix>
</trkpt>
<trkpt lat="40.072842" lon="-105.230575">
  <ele>1586.09</ele>
  <time>2026-08-28T19:06:38Z</time>
  <course>249.82</course>
  <speed>0.0</speed>
  <fix>3d</fix>
</trkpt>
<trkpt lat="40.072842" lon="-105.230575">
  <ele>1586.17</ele>
  <time>2026-08-28T19:06:38Z</time>
  <course>8.61</course>
  <speed>0.01</speed>
  <fix>3d</fix>
</trkpt>
<trkpt lat="40.072842" lon="-105.230575">
  <ele>1586.09</ele>
  <time>2026-08-28T19:06:38Z</time>
  <course>142.26</course>
  <speed>0.0</speed>
  <fix>3d</fix>
</trkpt>
<trkpt lat="40.072842" lon="-105.230575">
  <ele>1586.18</ele>
  <time>2026-08-28T19:06:38Z</time>
  <course>8.61</course>
  <speed>0.01</speed>
  <fix>3d</fix>
</trkpt>
<trkpt lat="40.072842" lon="-105.230575">
  <ele>1586.09</ele>
  <time>2026-08-28T19:06:38Z</time>
  <course>86.92</course>
  <speed>0.0</speed>
  <fix>3d</fix>
</trkpt>
<trkpt lat="40.072842" lon="-105.230575">
  <ele>1586.17</ele>
  <time>2026-08-28T19:06:38Z</time>
  <course>8.61</course>
  <speed>0.01414213562373095</speed>
  <fix>3d</fix>
</trkpt>
<trkpt lat="40.072842" lon="-105.230575">
  <ele>1586.09</ele>
  <time>2026-08-28T19:06:38Z</time>
  <course>356.97</course>
  <speed>0.0</speed>
  <fix>3d</fix>
</trkpt>
<trkpt lat="40.0728421" lon="-105.2305751">
  <ele>1586.17</ele>
  <time>2026-08-28T19:06:38Z</time>
  <course>8.61</course>
  <speed>0.01414213562373095</speed>
  <fix>3d</fix>
</trkpt>
<trkpt lat="40.072842" lon="-105.230575">
  <ele>1586.09</ele>
  <time>2026-08-28T19:06:38Z</time>
  <course>258.16</course>
  <speed>0.0</speed>
  <fix>3d</fix>
</trkpt>
<trkpt lat="40.0728421" lon="-105.2305751">
  <ele>1586.18</ele>
  <time>2026-08-28T19:06:38Z</time>
  <course>8.61</course>
  <speed>0.01414213562373095</speed>
  <fix>3d</fix>
</trkpt>
<trkpt lat="40.072842" lon="-105.230575">
  <ele>1586.09</ele>
  <time>2026-08-28T19:06:38Z</time>
  <course>205.07</course>
  <speed>0.0</speed>
  <fix>3d</fix>
</trkpt>
<trkpt lat="40.0728421" lon="-105.2305751">
  <ele>1586.18</ele>
  <time>2026-08-28T19:06:38Z</time>
  <course>8.61</course>
  <speed>0.01414213562373095</speed>
  <fix>3d</fix>
</trkpt>
<trkpt lat="40.072842" lon="-105.230575">
  <ele>1586.09</ele>
  <time>2026-08-28T19:06:38Z</time>
  <course>310.53</course>
  <speed>0.0</speed>
  <fix>3d</fix>
</trkpt>
<trkpt lat="40.0728421" lon="-105.2305751">
  <ele>1586.18</ele>
  <time>2026-08-28T19:06:38Z</time>
  <course>8.61</course>
  <speed>0.01414213562373095</speed>
  <fix>3d</fix>
</trkpt>
<trkpt lat="40.072842" lon="-105.230575">
  <ele>1586.09</ele>
  <time>2026-08-28T19:06:38Z</time>
  <course>269.48</course>
  <speed>0.0</speed>
  <fix>3d</fix>
</trkpt>
<trkpt lat="40.0728421" lon="-105.2305751">
  <ele>1586.18</ele>
  <time>2026-08-28T19:06:38Z</time>
  <course>8.61</course>
  <speed>0.01414213562373095</speed>
  <fix>3d</fix>
</trkpt>
<trkpt lat="40.072842" lon="-105.230575">
  <ele>1586.09</ele>
  <time>2026-08-28T19:06:38Z</time>
  <course>264.03</course>
  <speed>0.0</speed>
  <fix>3d</fix>
</trkpt>
<trkpt lat="40.0728421" lon="-105.2305751">
  <ele>1586.18</ele>
  <time>2026-08-28T19:06:38Z</time>
  <course>8.61</course>
  <speed>0.01414213562373095</speed>
  <fix>3d</fix>
</trkpt>
<trkpt lat="40.072842" lon="-105.230575">
  <ele>1586.09</ele>
  <time>2026-08-28T19:06:38Z</time>
  <course>265.75</course>
  <speed>0.0</speed>
  <fix>3d</fix>
</trkpt>
<trkpt lat="40.0728421" lon="-105.2305751">
  <ele>1586.18</ele>
  <time>2026-08-28T19:06:38Z</time>
  <course>8.62</course>
  <speed>0.022360679774997897</speed>
  <fix>3d</fix>
</trkpt>
<trkpt lat="40.072842" lon="-105.230575">
  <ele>1586.09</ele>
  <time>2026-08-28T19:06:38Z</time>
  <course>266.36</course>
  <speed>0.0</speed>
  <fix>3d</fix>
</trkpt>
<trkpt lat="40.0728421" lon="-105.2305751">
  <ele>1586.19</ele>
  <time>2026-08-28T19:06:38Z</time>
  <course>8.62</course>
  <speed>0.022360679774997897</speed>
  <fix>3d</fix>
</trkpt>
<trkpt lat="40.072842" lon="-105.230575">
  <ele>1586.09</ele>
  <time>2026-08-28T19:06:38Z</time>
  <course>86.09</course>
  <speed>0.0</speed>
  <fix>3d</fix>
</trkpt>
<trkpt lat="40.0728421" lon="-105.2305751">
  <ele>1586.19</ele>
  <time>2026-08-28T19:06:38Z</time>
  <course>8.62</course>
  <speed>0.022360679774997897</speed>
  <fix>3d</fix>
</trkpt>
<trkpt lat="40.072842" lon="-105.230575">
  <ele>1586.09</ele>
  <time>2026-08-28T19:06:38Z</time>
  <course>93.7</course>
  <speed>0.0</speed>
  <fix>3d</fix>
</trkpt>
<trkpt lat="40.0728421" lon="-105.2305751">
  <ele>1586.19</ele>
  <time>2026-08-28T19:06:38Z</time>
  <course>8.62</course>
  <speed>0.022360679774997897</speed>
  <fix>3d</fix>
</trkpt>
<trkpt lat="40.072842" lon="-105.230575">
  <ele>1586.09</ele>
  <time>2026-08-28T19:06:38Z</time>
  <course>98.92</course>
  <speed>0.0</speed>
  <fix>3d</fix>
</trkpt>
<trkpt lat="40.0728421" lon="-105.2305751">
  <ele>1586.19</ele>
  <time>2026-08-28T19:06:38Z</time>
  <course>8.62</course>
  <speed>0.022360679774997897</speed>
  <fix>3d</fix>
</trkpt>
<trkpt lat="40.072842" lon="-105.230575">
  <ele>1586.09</ele>
  <time>2026-08-28T19:06:38Z</time>
  <course>122.29</course>
  <speed>0.0</speed>
  <fix>3d</fix>
</trkpt>
<trkpt lat="40.0728421" lon="-105.2305751">
  <ele>1586.19</ele>
  <time>2026-08-28T19:06:38Z</time>
  <course>8.62</course>
  <speed>0.022360679774997897</speed>
  <fix>3d</fix>
</trkpt>
<trkpt lat="40.072842" lon="-105.230575">
  <ele>1586.09</ele>
  <time>2026-08-28T19:06:38Z</time>
  <course>161.44</course>
  <speed>0.0</speed>
  <fix>3d</fix>
</trkpt>
<trkpt lat="40.0728421" lon="-105.2305751">
  <ele>1586.19</ele>
  <time>2026-08-28T19:06:38Z</time>
  <course>8.62</course>
  <speed>0.022360679774997897</speed>
  <fix>3d</fix>
</trkpt>
<trkpt lat="40.072842" lon="-105.230575">
  <ele>1586.09</ele>
  <time>2026-08-28T19:06:38Z</time>
  <course>97.86</course>
  <speed>0.0</speed>
  <fix>3d</fix>
</trkpt>
<trkpt lat="40.0728421" lon="-105.2305751">
  <ele>1586.2</ele>
  <time>2026-08-28T19:06:38Z</time>
  <course>8.62</course>
  <speed>0.022360679774997897</speed>
  <fix>3d</fix>
</trkpt>
<trkpt lat="40.072842" lon="-105.230575">
  <ele>1586.09</ele>
  <time>2026-08-28T19:06:38Z</time>
  <course>311.51</course>
  <speed>0.0</speed>
  <fix>3d</fix>
</trkpt>
<trkpt lat="40.0728421" lon="-105.2305751">
  <ele>1586.2</ele>
  <time>2026-08-28T19:06:38Z</time>
  <course>8.62</course>
  <speed>0.022360679774997897</speed>
  <fix>3d</fix>
</trkpt>
<trkpt lat="40.072842" lon="-105.230575">
  <ele>1586.09</ele>
  <time>2026-08-28T19:06:38Z</time>
  <course>327.71</course>
  <speed>0.0</speed>
  <fix>3d</fix>
</trkpt>
<trkpt lat="40.0728421" lon="-105.2305751">
  <ele>1586.2</ele>
  <time>2026-08-28T19:06:38Z</time>
  <course>8.62</course>
  <speed>0.022360679774997897</speed>
  <fix>3d</fix>
</trkpt>
<trkpt lat="40.072842" lon="-105.230575">
  <ele>1586.09</ele>
  <time>2026-08-28T19:06:38Z</time>
  <course>292.6</course>
  <speed>0.0</speed>
  <fix>3d</fix>
</trkpt>
<trkpt lat="40.0728421" lon="-105.2305751">
  <ele>1586.19</ele>
  <time>2026-08-28T19:06:38Z</time>
  <course>8.62</course>
  <speed>0.022360679774997897</speed>
  <fix>3d</fix>
</trkpt>
<trkpt lat="40.072842" lon="-105.230575">
  <ele>1586.09</ele>
  <time>2026-08-28T19:06:38Z</time>
  <course>266.92</course>
  <speed>0.0</speed>
  <fix>3d</fix>
</trkpt>
<trkpt lat="40.0728421" lon="-105.2305751">
  <ele>1586.19</ele>
  <time>2026-08-28T19:06:38Z</time>
  <course>8.62</course>
  <speed>0.022360679774997897</speed>
  <fix>3d</fix>
</trkpt>
<trkpt lat="40.072842" lon="-105.230575">
  <ele>1586.09</ele>
  <time>2026-08-28T19:06:38Z</time>
  <course>16.17</course>
  <speed>0.0</speed>
  <fix>3d</fix>
</trkpt>
<trkpt lat="40.0728421" lon="-105.2305751">
  <ele>1586.19</ele>
  <time>2026-08-28T19:06:38Z</time>
  <course>8.62</course>
  <speed>0.022360679774997897</speed>
  <fix>3d</fix>
</trkpt>
<trkpt lat="40.072842" lon="-105.230575">
  <ele>1586.09</ele>
  <time>2026-08-28T19:06:38Z</time>
  <course>219.47</course>
  <speed>0.0</speed>
  <fix>3d</fix>
</trkpt>
<trkpt lat="40.0728421" lon="-105.2305751">
  <ele>1586.19</ele>
  <time>2026-08-28T19:06:38Z</time>
  <course>8.62</course>
  <speed>0.022360679774997897</speed>
  <fix>3d</fix>
</trkpt>
<trkpt lat="40.072842" lon="-105.230575">
  <ele>1586.09</ele>
  <time>2026-08-28T19:06:38Z</time>
  <course>17.0</course>
  <speed>0.0</speed>
  <fix>3d</fix>
</trkpt>
<trkpt lat="40.0728421" lon="-105.2305751">
  <ele>1586.19</ele>
  <time>2026-08-28T19:06:38Z</time>
  <course>8.62</course>
  <speed>0.022360679774997897</speed>
  <fix>3d</fix>
</trkpt>
<trkpt lat="40.072842" lon="-105.230575">
  <ele>1586.09</ele>
  <time>2026-08-28T19:06:38Z</time>
  <course>355.54</course>
  <speed>0.0</speed>
  <fix>3d</fix>
</trkpt>
<trkpt lat="40.0728421" lon="-105.2305751">
  <ele>1586.19</ele>
  <time>2026-08-28T19:06:38Z</time>
  <course>8.62</course>
  <speed>0.022360679774997897</speed>
  <fix>3d</fix>
</trkpt>
<trkpt lat="40.072842" lon="-105.230575">
  <ele>1586.09</ele>
  <time>2026-08-28T19:06:38Z</time>
  <course>289.79</course>
  <speed>0.0</speed>
  <fix>3d</fix>
</trkpt>
<trkpt lat="40.0728421" lon="-105.2305751">
  <ele>1586.19</ele>
  <time>2026-08-28T19:06:38Z</time>
  <course>8.62</course>
  <speed>0.01414213562373095</speed>
  <fix>3d</fix>
</trkpt>
<trkpt lat="40.072842" lon="-105.230575">
  <ele>1586.09</ele>
  <time>2026-08-28T19:06:38Z</time>
  <course>206.16</course>
  <speed>0.0</speed>
  <fix>3d</fix>
</trkpt>
<trkpt lat="40.0728421" lon="-105.2305751">
  <ele>1586.19</ele>
  <time>2026-08-28T19:06:38Z</time>
  <course>8.62</course>
  <speed>0.01414213562373095</speed>
  <fix>3d</fix>
</trkpt>
<trkpt lat="40.072842" lon="-105.230575">
  <ele>1586.09</ele>
  <time>2026-08-28T19:06:38Z</time>
  <course>256.23</course>
  <speed>0.0</speed>
  <fix>3d</fix>
</trkpt>
<trkpt lat="40.0728421" lon="-105.2305751">
  <ele>1586.18</ele>
  <time>2026-08-28T19:06:38Z</time>
  <course>8.62</course>
  <speed>0.01414213562373095</speed>
  <fix>3d</fix>
</trkpt>
<trkpt lat="40.072842" lon="-105.230575">
  <ele>1586.09</ele>
  <time>2026-08-28T19:06:38Z</time>
  <course>275.62</course>
  <speed>0.0</speed>
  <fix>3d</fix>
</trkpt>
<trkpt lat="40.0728421" lon="-105.2305751">
  <ele>1586.18</ele>
  <time>2026-08-28T19:06:38Z</time>
  <course>8.62</course>
  <speed>0.01414213562373095</speed>
  <fix>3d</fix>
</trkpt>
<trkpt lat="40.072842" lon="-105.230575">
  <ele>1586.09</ele>
  <time>2026-08-28T19:06:38Z</time>
  <course>265.54</course>
  <speed>0.0</speed>
  <fix>3d</fix>
</trkpt>
<trkpt lat="40.0728421" lon="-105.2305751">
  <ele>1586.18</ele>
  <time>2026-08-28T19:06:38Z</time>
  <course>8.62</course>
  <speed>0.01414213562373095</speed>
  <fix>3d</fix>
</trkpt>
<trkpt lat="40.072842" lon="-105.230575">
  <ele>1586.09</ele>
  <time>2026-08-28T19:06:38Z</time>
  <course>264.66</course>
  <speed>0.0</speed>
  <fix>3d</fix>
</trkpt>
<trkpt lat="40.0728421" lon="-105.2305751">
  <ele>1586.17</ele>
  <time>2026-08-28T19:06:38Z</time>
  <course>8.62</course>
  <speed>0.01414213562373095</speed>
  <fix>3d</fix>
</trkpt>
<trkpt lat="40.072842" lon="-105.230575">
  <ele>1586.09</ele>
  <time>2026-08-28T19:06:38Z</time>
  <course>266.26</course>
  <speed>0.0</speed>
  <fix>3d</fix>
</trkpt>
<trkpt lat="40.0728421" lon="-105.2305751">
  <ele>1586.17</ele>
  <time>2026-08-28T19:06:38Z</time>
  <course>8.62</course>
  <speed>0.01414213562373095</speed>
  <fix>3d</fix>
</trkpt>
<trkpt lat="40.072842" lon="-105.230575">
  <ele>1586.09</ele>
  <time>2026-08-28T19:06:38Z</time>
  <course>266.19</course>
  <speed>0.0</speed>
  <fix>3d</fix>
</trkpt>
<trkpt lat="40.0728421" lon="-105.2305751">
  <ele>1586.17</ele>
  <time>2026-08-28T19:06:38Z</time>
  <course>8.63</course>
  <speed>0.01414213562373095</speed>
  <fix>3d</fix>
</trkpt>
<trkpt lat="40.072842" lon="-105.230575">
  <ele>1586.09</ele>
  <time>2026-08-28T19:06:38Z</time>
  <course>265.98</course>
  <speed>0.0</speed>
  <fix>3d</fix>
</trkpt>
<trkpt lat="40.0728421" lon="-105.2305751">
  <ele>1586.17</ele>
  <time>2026-08-28T19:06:38Z</time>
  <course>8.63</course>
  <speed>0.01414213562373095</speed>
  <fix>3d</fix>
</trkpt>
<trkpt lat="40.072842" lon="-105.230575">
  <ele>1586.09</ele>
  <time>2026-08-28T19:06:38Z</time>
  <course>266.02</course>
  <speed>0.0</speed>
  <fix>3d</fix>
</trkpt>
<trkpt lat="40.0728421" lon="-105.2305751">
  <ele>1586.17</ele>
  <time>2026-08-28T19:06:38Z</time>
  <course>8.63</course>
  <speed>0.01414213562373095</speed>
  <fix>3d</fix>
</trkpt>
<trkpt lat="40.072842" lon="-105.230575">
  <ele>1586.09</ele>
  <time>2026-08-28T19:06:38Z</time>
  <course>266.04</course>
  <speed>0.0</speed>
  <fix>3d</fix>
</trkpt>
<trkpt lat="40.0728421" lon="-105.2305751">
  <ele>1586.17</ele>
  <time>2026-08-28T19:06:38Z</time>
  <course>8.63</course>
  <speed>0.01414213562373095</speed>
  <fix>3d</fix>
</trkpt>
<trkpt lat="40.072842" lon="-105.230575">
  <ele>1586.09</ele>
  <time>2026-08-28T19:06:38Z</time>
  <course>266.03</course>
  <speed>0.0</speed>
  <fix>3d</fix>
</trkpt>
<trkpt lat="40.0728421" lon="-105.2305751">
  <ele>1586.17</ele>
  <time>2026-08-28T19:06:38Z</time>
  <course>8.63</course>
  <speed>0.01414213562373095</speed>
  <fix>3d</fix>
</trkpt>
<trkpt lat="40.072842" lon="-105.230575">
  <ele>1586.09</ele>
  <time>2026-08-28T19:06:38Z</time>
  <course>266.03</course>
  <speed>0.0</speed>
  <fix>3d</fix>
</trkpt>
<trkpt lat="40.0728421" lon="-105.2305751">
  <ele>1586.18</ele>
  <time>2026-08-28T19:06:38Z</time>
  <course>8.63</course>
  <speed>0.01414213562373095</speed>
  <fix>3d</fix>
</trkpt>
<trkpt lat="40.072842" lon="-105.230575">
  <ele>1586.09</ele>
  <time>2026-08-28T19:06:38Z</time>
  <course>266.03</course>
  <speed>0.0</speed>
  <fix>3d</fix>
</trkpt>
<trkpt lat="40.0728421" lon="-105.2305751">
  <ele>1586.18</ele>
  <time>2026-08-28T19:06:38Z</time>
  <course>8.63</course>
  <speed>0.01414213562373095</speed>
  <fix>3d</fix>
</trkpt>
<trkpt lat="40.072842" lon="-105.230575">
  <ele>1586.09</ele>
  <time>2026-08-28T19:06:38Z</time>
  <course>266.03</course>
  <speed>0.0</speed>
  <fix>3d</fix>
</trkpt>
<trkpt lat="40.0728421" lon="-105.2305751">
  <ele>1586.19</ele>
  <time>2026-08-28T19:06:39Z</time>
  <course>8.63</course>
  <speed>0.01414213562373095</speed>
  <fix>3d</fix>
</trkpt>
<trkpt lat="40.072842" lon="-105.230575">
  <ele>1586.09</ele>
  <time>2026-08-28T19:06:39Z</time>
  <course>266.03</course>
  <speed>0.0</speed>
  <fix>3d</fix>
</trkpt>
<trkpt lat="40.0728421" lon="-105.2305751">
  <ele>1586.19</ele>
  <time>2026-08-28T19:06:39Z</time>
  <course>8.63</course>
  <speed>0.01414213562373095</speed>
  <fix>3d</fix>
</trkpt>
<trkpt lat="40.072842" lon="-105.230575">
  <ele>1586.09</ele>
  <time>2026-08-28T19:06:39Z</time>
  <course>266.03</course>
  <speed>0.0</speed>
  <fix>3d</fix>
</trkpt>
<trkpt lat="40.0728421" lon="-105.2305751">
  <ele>1586.19</ele>
  <time>2026-08-28T19:06:39Z</time>
  <course>8.63</course>
  <speed>0.01414213562373095</speed>
  <fix>3d</fix>
</trkpt>
<trkpt lat="40.072842" lon="-105.230575">
  <ele>1586.09</ele>
  <time>2026-08-28T19:06:39Z</time>
  <course>266.03</course>
  <speed>0.0</speed>
  <fix>3d</fix>
</trkpt>
<trkpt lat="40.0728421" lon="-105.2305751">
  <ele>1586.19</ele>
  <time>2026-08-28T19:06:39Z</time>
  <course>8.63</course>
  <speed>0.01414213562373095</speed>
  <fix>3d</fix>
</trkpt>
<trkpt lat="40.072842" lon="-105.230575">
  <ele>1586.09</ele>
  <time>2026-08-28T19:06:39Z</time>
  <course>266.03</course>
  <speed>0.0</speed>
  <fix>3d</fix>
</trkpt>
<trkpt lat="40.0728421" lon="-105.2305751">
  <ele>1586.19</ele>
  <time>2026-08-28T19:06:39Z</time>
  <course>8.63</course>
  <speed>0.01414213562373095</speed>
  <fix>3d</fix>
</trkpt>
<trkpt lat="40.072842" lon="-105.230575">
  <ele>1586.09</ele>
  <time>2026-08-28T19:06:39Z</time>
  <course>266.03</course>
  <speed>0.0</speed>
  <fix>3d</fix>
</trkpt>
<trkpt lat="40.0728421" lon="-105.2305751">
  <ele>1586.19</ele>
  <time>2026-08-28T19:06:39Z</time>
  <course>8.63</course>
  <speed>0.01414213562373095</speed>
  <fix>3d</fix>
</trkpt>
<trkpt lat="40.072842" lon="-105.230575">
  <ele>1586.09</ele>
  <time>2026-08-28T19:06:39Z</time>
  <course>266.03</course>
  <speed>0.0</speed>
  <fix>3d</fix>
</trkpt>
<trkpt lat="40.0728421" lon="-105.2305751">
  <ele>1586.19</ele>
  <time>2026-08-28T19:06:39Z</time>
  <course>8.63</course>
  <speed>0.01414213562373095</speed>
  <fix>3d</fix>
</trkpt>
<trkpt lat="40.072842" lon="-105.230575">
  <ele>1586.09</ele>
  <time>2026-08-28T19:06:39Z</time>
  <course>266.03</course>
  <speed>0.0</speed>
  <fix>3d</fix>
</trkpt>
<trkpt lat="40.0728421" lon="-105.2305751">
  <ele>1586.19</ele>
  <time>2026-08-28T19:06:39Z</time>
  <course>8.63</course>
  <speed>0.01414213562373095</speed>
  <fix>3d</fix>
</trkpt>
<trkpt lat="40.072842" lon="-105.230575">
  <ele>1586.09</ele>
  <time>2026-08-28T19:06:39Z</time>
  <course>266.03</course>
  <speed>0.0</speed>
  <fix>3d</fix>
</trkpt>
<trkpt lat="40.0728421" lon="-105.2305751">
  <ele>1586.19</ele>
  <time>2026-08-28T19:06:39Z</time>
  <course>8.63</course>
  <speed>0.01414213562373095</speed>
  <fix>3d</fix>
</trkpt>
<trkpt lat="40.072842" lon="-105.230575">
  <ele>1586.09</ele>
  <time>2026-08-28T19:06:39Z</time>
  <course>266.03</course>
  <speed>0.0</speed>
  <fix>3d</fix>
</trkpt>
<trkpt lat="40.0728421" lon="-105.2305751">
  <ele>1586.19</ele>
  <time>2026-08-28T19:06:39Z</time>
  <course>8.63</course>
  <speed>0.01414213562373095</speed>
  <fix>3d</fix>
</trkpt>
<trkpt lat="40.072842" lon="-105.230575">
  <ele>1586.09</ele>
  <time>2026-08-28T19:06:39Z</time>
  <course>266.03</course>
  <speed>0.0</speed>
  <fix>3d</fix>
</trkpt>
<trkpt lat="40.0728421" lon="-105.2305751">
  <ele>1586.19</ele>
  <time>2026-08-28T19:06:39Z</time>
  <course>8.64</course>
  <speed>0.01414213562373095</speed>
  <fix>3d</fix>
</trkpt>
<trkpt lat="40.072842" lon="-105.230575">
  <ele>1586.09</ele>
  <time>2026-08-28T19:06:39Z</time>
  <course>266.03</course>
  <speed>0.0</speed>
  <fix>3d</fix>
</trkpt>
<trkpt lat="40.0728421" lon="-105.2305751">
  <ele>1586.19</ele>
  <time>2026-08-28T19:06:39Z</time>
  <course>8.64</course>
  <speed>0.01414213562373095</speed>
  <fix>3d</fix>
</trkpt>
<trkpt lat="40.072842" lon="-105.230575">
  <ele>1586.09</ele>
  <time>2026-08-28T19:06:39Z</time>
  <course>266.03</course>
  <speed>0.0</speed>
  <fix>3d</fix>
</trkpt>
<trkpt lat="40.0728421" lon="-105.2305751">
  <ele>1586.19</ele>
  <time>2026-08-28T19:06:39Z</time>
  <course>8.64</course>
  <speed>0.01414213562373095</speed>
  <fix>3d</fix>
</trkpt>
<trkpt lat="40.072842" lon="-105.230575">
  <ele>1586.09</ele>
  <time>2026-08-28T19:06:39Z</time>
  <course>266.03</course>
  <speed>0.0</speed>
  <fix>3d</fix>
</trkpt>
<trkpt lat="40.0728421" lon="-105.2305751">
  <ele>1586.19</ele>
  <time>2026-08-28T19:06:39Z</time>
  <course>8.64</course>
  <speed>0.01414213562373095</speed>
  <fix>3d</fix>
</trkpt>
<trkpt lat="40.072842" lon="-105.230575">
  <ele>1586.09</ele>
  <time>2026-08-28T19:06:39Z</time>
  <course>266.03</course>
  <speed>0.0</speed>
  <fix>3d</fix>
</trkpt>
<trkpt lat="40.0728421" lon="-105.2305751">
  <ele>1586.18</ele>
  <time>2026-08-28T19:06:39Z</time>
  <course>8.64</course>
  <speed>0.01414213562373095</speed>
  <fix>3d</fix>
</trkpt>
<trkpt lat="40.072842" lon="-105.230575">
  <ele>1586.09</ele>
  <time>2026-08-28T19:06:39Z</time>
  <course>266.03</course>
  <speed>0.0</speed>
  <fix>3d</fix>
</trkpt>
<trkpt lat="40.0728421" lon="-105.2305751">
  <ele>1586.18</ele>
  <time>2026-08-28T19:06:39Z</time>
  <course>8.64</course>
  <speed>0.01414213562373095</speed>
  <fix>3d</fix>
</trkpt>
<trkpt lat="40.072842" lon="-105.230575">
  <ele>1586.09</ele>
  <time>2026-08-28T19:06:39Z</time>
  <course>266.03</course>
  <speed>0.0</speed>
  <fix>3d</fix>
</trkpt>
<trkpt lat="40.0728421" lon="-105.2305751">
  <ele>1586.18</ele>
  <time>2026-08-28T19:06:39Z</time>
  <course>8.64</course>
  <speed>0.01414213562373095</speed>
  <fix>3d</fix>
</trkpt>
<trkpt lat="40.072842" lon="-105.230575">
  <ele>1586.09</ele>
  <time>2026-08-28T19:06:39Z</time>
  <course>266.03</course>
  <speed>0.0</speed>
  <fix>3d</fix>
</trkpt>
<trkpt lat="40.0728421" lon="-105.2305751">
  <ele>1586.18</ele>
  <time>2026-08-28T19:06:39Z</time>
  <course>8.64</course>
  <speed>0.01414213562373095</speed>
  <fix>3d</fix>
</trkpt>
<trkpt lat="40.072842" lon="-105.230575">
  <ele>1586.09</ele>
  <time>2026-08-28T19:06:39Z</time>
  <course>266.03</course>
  <speed>0.0</speed>
  <fix>3d</fix>
</trkpt>
<trkpt lat="40.0728421" lon="-105.2305751">
  <ele>1586.17</ele>
  <time>2026-08-28T19:06:39Z</time>
  <course>8.64</course>
  <speed>0.01414213562373095</speed>
  <fix>3d</fix>
</trkpt>
<trkpt lat="40.072842" lon="-105.230575">
  <ele>1586.09</ele>
  <time>2026-08-28T19:06:39Z</time>
  <course>266.03</course>
  <speed>0.0</speed>
  <fix>3d</fix>
</trkpt>
<trkpt lat="40.0728421" lon="-105.2305751">
  <ele>1586.17</ele>
  <time>2026-08-28T19:06:39Z</time>
  <course>8.64</course>
  <speed>0.01414213562373095</speed>
  <fix>3d</fix>
</trkpt>
<trkpt lat="40.072842" lon="-105.230575">
  <ele>1586.09</ele>
  <time>2026-08-28T19:06:39Z</time>
  <course>266.03</course>
  <speed>0.0</speed>
  <fix>3d</fix>
</trkpt>
<trkpt lat="40.0728421" lon="-105.2305751">
  <ele>1586.17</ele>
  <time>2026-08-28T19:06:39Z</time>
  <course>8.64</course>
  <speed>0.01414213562373095</speed>
  <fix>3d</fix>
</trkpt>
<trkpt lat="40.072842" lon="-105.230575">
  <ele>1586.09</ele>
  <time>2026-08-28T19:06:39Z</time>
  <course>266.03</course>
  <speed>0.0</speed>
  <fix>3d</fix>
</trkpt>
<trkpt lat="40.0728421" lon="-105.2305751">
  <ele>1586.17</ele>
  <time>2026-08-28T19:06:39Z</time>
  <course>8.64</course>
  <speed>0.01414213562373095</speed>
  <fix>3d</fix>
</trkpt>
<trkpt lat="40.072842" lon="-105.230575">
  <ele>1586.09</ele>
  <time>2026-08-28T19:06:39Z</time>
  <course>266.03</course>
  <speed>0.0</speed>
  <fix>3d</fix>
</trkpt>
<trkpt lat="40.0728421" lon="-105.2305751">
  <ele>1586.18</ele>
  <time>2026-08-28T19:06:39Z</time>
  <course>8.64</course>
  <speed>0.01414213562373095</speed>
  <fix>3d</fix>
</trkpt>
<trkpt lat="40.072842" lon="-105.230575">
  <ele>1586.09</ele>
  <time>2026-08-28T19:06:39Z</time>
  <course>266.03</course>
  <speed>0.0</speed>
  <fix>3d</fix>
</trkpt>
<trkpt lat="40.0728421" lon="-105.2305751">
  <ele>1586.18</ele>
  <time>2026-08-28T19:06:39Z</time>
  <course>8.64</course>
  <speed>0.01414213562373095</speed>
  <fix>3d</fix>
</trkpt>
<trkpt lat="40.072842" lon="-105.230575">
  <ele>1586.09</ele>
  <time>2026-08-28T19:06:39Z</time>
  <course>266.03</course>
  <speed>0.0</speed>
  <fix>3d</fix>
</trkpt>
<trkpt lat="40.0728421" lon="-105.2305751">
  <ele>1586.18</ele>
  <time>2026-08-28T19:06:39Z</time>
  <course>8.65</course>
  <speed>0.01414213562373095</speed>
  <fix>3d</fix>
</trkpt>
<trkpt lat="40.072842" lon="-105.230575">
  <ele>1586.09</ele>
  <time>2026-08-28T19:06:39Z</time>
  <course>266.03</course>
  <speed>0.0</speed>
  <fix>3d</fix>
</trkpt>
<trkpt lat="40.0728421" lon="-105.2305751">
  <ele>1586.18</ele>
  <time>2026-08-28T19:06:39Z</time>
  <course>8.65</course>
  <speed>0.01414213562373095</speed>
  <fix>3d</fix>
</trkpt>
<trkpt lat="40.072842" lon="-105.230575">
  <ele>1586.09</ele>
  <time>2026-08-28T19:06:39Z</time>
  <course>266.03</course>
  <speed>0.0</speed>
  <fix>3d</fix>
</trkpt>
<trkpt lat="40.0728421" lon="-105.2305751">
  <ele>1586.17</ele>
  <time>2026-08-28T19:06:39Z</time>
  <course>8.65</course>
  <speed>0.01414213562373095</speed>
  <fix>3d</fix>
</trkpt>
<trkpt lat="40.072842" lon="-105.230575">
  <ele>1586.09</ele>
  <time>2026-08-28T19:06:39Z</time>
  <course>266.03</course>
  <speed>0.0</speed>
  <fix>3d</fix>
</trkpt>
<trkpt lat="40.0728421" lon="-105.2305751">
  <ele>1586.17</ele>
  <time>2026-08-28T19:06:39Z</time>
  <course>8.65</course>
  <speed>0.01414213562373095</speed>
  <fix>3d</fix>
</trkpt>
<trkpt lat="40.072842" lon="-105.230575">
  <ele>1586.09</ele>
  <time>2026-08-28T19:06:39Z</time>
  <course>266.03</course>
  <speed>0.0</speed>
  <fix>3d</fix>
</trkpt>
<trkpt lat="40.0728421" lon="-105.2305751">
  <ele>1586.17</ele>
  <time>2026-08-28T19:06:39Z</time>
  <course>8.65</course>
  <speed>0.01414213562373095</speed>
  <fix>3d</fix>
</trkpt>
<trkpt lat="40.072842" lon="-105.230575">
  <ele>1586.09</ele>
  <time>2026-08-28T19:06:39Z</time>
  <course>266.03</course>
  <speed>0.0</speed>
  <fix>3d</fix>
</trkpt>
<trkpt lat="40.0728421" lon="-105.2305751">
  <ele>1586.17</ele>
  <time>2026-08-28T19:06:39Z</time>
  <course>8.65</course>
  <speed>0.01414213562373095</speed>
  <fix>3d</fix>
</trkpt>
<trkpt lat="40.072842" lon="-105.230575">
  <ele>1586.09</ele>
  <time>2026-08-28T19:06:39Z</time>
  <course>266.03</course>
  <speed>0.0</speed>
  <fix>3d</fix>
</trkpt>
<trkpt lat="40.0728421" lon="-105.2305751">
  <ele>1586.17</ele>
  <time>2026-08-28T19:06:39Z</time>
  <course>8.65</course>
  <speed>0.01414213562373095</speed>
  <fix>3d</fix>
</trkpt>
<trkpt lat="40.072842" lon="-105.230575">
  <ele>1586.09</ele>
  <time>2026-08-28T19:06:39Z</time>
  <course>266.03</course>
  <speed>0.0</speed>
  <fix>3d</fix>
</trkpt>
<trkpt lat="40.0728421" lon="-105.2305751">
  <ele>1586.17</ele>
  <time>2026-08-28T19:06:39Z</time>
  <course>8.65</course>
  <speed>0.01414213562373095</speed>
  <fix>3d</fix>
</trkpt>
<trkpt lat="40.072842" lon="-105.230575">
  <ele>1586.09</ele>
  <time>2026-08-28T19:06:39Z</time>
  <course>266.03</course>
  <speed>0.0</speed>
  <fix>3d</fix>
</trkpt>
<trkpt lat="40.0728421" lon="-105.2305751">
  <ele>1586.17</ele>
  <time>2026-08-28T19:06:39Z</time>
  <course>8.65</course>
  <speed>0.01414213562373095</speed>
  <fix>3d</fix>
</trkpt>
<trkpt lat="40.072842" lon="-105.230575">
  <ele>1586.09</ele>
  <time>2026-08-28T19:06:39Z</time>
  <course>266.03</course>
  <speed>0.0</speed>
  <fix>3d</fix>
</trkpt>
<trkpt lat="40.0728421" lon="-105.2305751">
  <ele>1586.17</ele>
  <time>2026-08-28T19:06:39Z</time>
  <course>8.65</course>
  <speed>0.01414213562373095</speed>
  <fix>3d</fix>
</trkpt>
<trkpt lat="40.072842" lon="-105.230575">
  <ele>1586.09</ele>
  <time>2026-08-28T19:06:39Z</time>
  <course>266.03</course>
  <speed>0.0</speed>
  <fix>3d</fix>
</trkpt>
<trkpt lat="40.0728421" lon="-105.2305751">
  <ele>1586.17</ele>
  <time>2026-08-28T19:06:39Z</time>
  <course>8.65</course>
  <speed>0.01414213562373095</speed>
  <fix>3d</fix>
</trkpt>
<trkpt lat="40.072842" lon="-105.230575">
  <ele>1586.09</ele>
  <time>2026-08-28T19:06:39Z</time>
  <course>266.03</course>
  <speed>0.0</speed>
  <fix>3d</fix>
</trkpt>
<trkpt lat="40.0728421" lon="-105.2305751">
  <ele>1586.16</ele>
  <time>2026-08-28T19:06:39Z</time>
  <course>8.65</course>
  <speed>0.01414213562373095</speed>
  <fix>3d</fix>
</trkpt>
<trkpt lat="40.072842" lon="-105.230575">
  <ele>1586.09</ele>
  <time>2026-08-28T19:06:39Z</time>
  <course>266.03</course>
  <speed>0.0</speed>
  <fix>3d</fix>
</trkpt>
<trkpt lat="40.0728421" lon="-105.2305751">
  <ele>1586.16</ele>
  <time>2026-08-28T19:06:39Z</time>
  <course>8.65</course>
  <speed>0.01414213562373095</speed>
  <fix>3d</fix>
</trkpt>
<trkpt lat="40.072842" lon="-105.230575">
  <ele>1586.09</ele>
  <time>2026-08-28T19:06:39Z</time>
  <course>266.03</course>
  <speed>0.0</speed>
  <fix>3d</fix>
</trkpt>
<trkpt lat="40.0728421" lon="-105.2305751">
  <ele>1586.16</ele>
  <time>2026-08-28T19:06:39Z</time>
  <course>8.65</course>
  <speed>0.01414213562373095</speed>
  <fix>3d</fix>
</trkpt>
<trkpt lat="40.072842" lon="-105.230575">
  <ele>1586.09</ele>
  <time>2026-08-28T19:06:39Z</time>
  <course>266.03</course>
  <speed>0.0</speed>
  <fix>3d</fix>
</trkpt>
<trkpt lat="40.0728421" lon="-105.2305751">
  <ele>1586.16</ele>
  <time>2026-08-28T19:06:39Z</time>
  <course>8.65</course>
  <speed>0.01414213562373095</speed>
  <fix>3d</fix>
</trkpt>
<trkpt lat="40.072842" lon="-105.230575">
  <ele>1586.09</ele>
  <time>2026-08-28T19:06:39Z</time>
  <course>266.03</course>
  <speed>0.0</speed>
  <fix>3d</fix>
</trkpt>
<trkpt lat="40.0728421" lon="-105.2305751">
  <ele>1586.17</ele>
  <time>2026-08-28T19:06:39Z</time>
  <course>8.66</course>
  <speed>0.01414213562373095</speed>
  <fix>3d</fix>
</trkpt>
<trkpt lat="40.072842" lon="-105.230575">
  <ele>1586.09</ele>
  <time>2026-08-28T19:06:39Z</time>
  <course>266.03</course>
  <speed>0.0</speed>
  <fix>3d</fix>
</trkpt>
<trkpt lat="40.0728421" lon="-105.2305751">
  <ele>1586.17</ele>
  <time>2026-08-28T19:06:39Z</time>
  <course>8.66</course>
  <speed>0.01414213562373095</speed>
  <fix>3d</fix>
</trkpt>
<trkpt lat="40.072842" lon="-105.230575">
  <ele>1586.09</ele>
  <time>2026-08-28T19:06:39Z</time>
  <course>266.03</course>
  <speed>0.0</speed>
  <fix>3d</fix>
</trkpt>
<trkpt lat="40.0728421" lon="-105.2305751">
  <ele>1586.16</ele>
  <time>2026-08-28T19:06:39Z</time>
  <course>8.66</course>
  <speed>0.01414213562373095</speed>
  <fix>3d</fix>
</trkpt>
<trkpt lat="40.072842" lon="-105.230575">
  <ele>1586.09</ele>
  <time>2026-08-28T19:06:39Z</time>
  <course>266.03</course>
  <speed>0.0</speed>
  <fix>3d</fix>
</trkpt>
<trkpt lat="40.0728421" lon="-105.2305751">
  <ele>1586.16</ele>
  <time>2026-08-28T19:06:39Z</time>
  <course>8.66</course>
  <speed>0.01414213562373095</speed>
  <fix>3d</fix>
</trkpt>
<trkpt lat="40.072842" lon="-105.230575">
  <ele>1586.09</ele>
  <time>2026-08-28T19:06:39Z</time>
  <course>266.03</course>
  <speed>0.0</speed>
  <fix>3d</fix>
</trkpt>
<trkpt lat="40.0728421" lon="-105.2305751">
  <ele>1586.16</ele>
  <time>2026-08-28T19:06:39Z</time>
  <course>8.66</course>
  <speed>0.01414213562373095</speed>
  <fix>3d</fix>
</trkpt>
<trkpt lat="40.072842" lon="-105.230575">
  <ele>1586.09</ele>
  <time>2026-08-28T19:06:39Z</time>
  <course>266.03</course>
  <speed>0.0</speed>
  <fix>3d</fix>
</trkpt>
<trkpt lat="40.0728421" lon="-105.2305751">
  <ele>1586.17</ele>
  <time>2026-08-28T19:06:39Z</time>
  <course>8.66</course>
  <speed>0.01414213562373095</speed>
  <fix>3d</fix>
</trkpt>
<trkpt lat="40.072842" lon="-105.230575">
  <ele>1586.09</ele>
  <time>2026-08-28T19:06:39Z</time>
  <course>266.03</course>
  <speed>0.0</speed>
  <fix>3d</fix>
</trkpt>
<trkpt lat="40.0728421" lon="-105.2305751">
  <ele>1586.17</ele>
  <time>2026-08-28T19:06:39Z</time>
  <course>8.66</course>
  <speed>0.01414213562373095</speed>
  <fix>3d</fix>
</trkpt>
<trkpt lat="40.072842" lon="-105.230575">
  <ele>1586.09</ele>
  <time>2026-08-28T19:06:39Z</time>
  <course>266.03</course>
  <speed>0.0</speed>
  <fix>3d</fix>
</trkpt>
<trkpt lat="40.0728421" lon="-105.2305751">
  <ele>1586.17</ele>
  <time>2026-08-28T19:06:39Z</time>
  <course>8.66</course>
  <speed>0.01414213562373095</speed>
  <fix>3d</fix>
</trkpt>
<trkpt lat="40.072842" lon="-105.230575">
  <ele>1586.09</ele>
  <time>2026-08-28T19:06:39Z</time>
  <course>266.03</course>
  <speed>0.0</speed>
  <fix>3d</fix>
</trkpt>
<trkpt lat="40.0728421" lon="-105.2305751">
  <ele>1586.17</ele>
  <time>2026-08-28T19:06:39Z</time>
  <course>8.66</course>
  <speed>0.01414213562373095</speed>
  <fix>3d</fix>
</trkpt>
<trkpt lat="40.072842" lon="-105.230575">
  <ele>1586.09</ele>
  <time>2026-08-28T19:06:39Z</time>
  <course>266.03</course>
  <speed>0.0</speed>
  <fix>3d</fix>
</trkpt>
<trkpt lat="40.0728421" lon="-105.2305751">
  <ele>1586.17</ele>
  <time>2026-08-28T19:06:39Z</time>
  <course>8.66</course>
  <speed>0.01414213562373095</speed>
  <fix>3d</fix>
</trkpt>
<trkpt lat="40.072842" lon="-105.230575">
  <ele>1586.09</ele>
  <time>2026-08-28T19:06:39Z</time>
  <course>266.03</course>
  <speed>0.0</speed>
  <fix>3d</fix>
</trkpt>
<trkpt lat="40.0728421" lon="-105.2305751">
  <ele>1586.17</ele>
  <time>2026-08-28T19:06:39Z</time>
  <course>8.66</course>
  <speed>0.01414213562373095</speed>
  <fix>3d</fix>
</trkpt>
<trkpt lat="40.072842" lon="-105.230575">
  <ele>1586.09</ele>
  <time>2026-08-28T19:06:39Z</time>
  <course>266.03</course>
  <speed>0.0</speed>
  <fix>3d</fix>
</trkpt>
<trkpt lat="40.0728421" lon="-105.2305751">
  <ele>1586.16</ele>
  <time>2026-08-28T19:06:39Z</time>
  <course>8.66</course>
  <speed>0.01414213562373095</speed>
  <fix>3d</fix>
</trkpt>
<trkpt lat="40.072842" lon="-105.230575">
  <ele>1586.09</ele>
  <time>2026-08-28T19:06:39Z</time>
  <course>266.03</course>
  <speed>0.0</speed>
  <fix>3d</fix>
</trkpt>
<trkpt lat="40.0728421" lon="-105.2305751">
  <ele>1586.16</ele>
  <time>2026-08-28T19:06:39Z</time>
  <course>8.66</course>
  <speed>0.01414213562373095</speed>
  <fix>3d</fix>
</trkpt>
<trkpt lat="40.072842" lon="-105.230575">
  <ele>1586.09</ele>
  <time>2026-08-28T19:06:39Z</time>
  <course>266.03</course>
  <speed>0.0</speed>
  <fix>3d</fix>
</trkpt>
<trkpt lat="40.0728421" lon="-105.2305751">
  <ele>1586.16</ele>
  <time>2026-08-28T19:06:39Z</time>
  <course>8.66</course>
  <speed>0.01414213562373095</speed>
  <fix>3d</fix>
</trkpt>
<trkpt lat="40.072842" lon="-105.230575">
  <ele>1586.09</ele>
  <time>2026-08-28T19:06:39Z</time>
  <course>266.03</course>
  <speed>0.0</speed>
  <fix>3d</fix>
</trkpt>
<trkpt lat="40.0728421" lon="-105.2305751">
  <ele>1586.16</ele>
  <time>2026-08-28T19:06:39Z</time>
  <course>8.67</course>
  <speed>0.01414213562373095</speed>
  <fix>3d</fix>
</trkpt>
<trkpt lat="40.072842" lon="-105.230575">
  <ele>1586.09</ele>
  <time>2026-08-28T19:06:39Z</time>
  <course>266.03</course>
  <speed>0.0</speed>
  <fix>3d</fix>
</trkpt>
<trkpt lat="40.0728421" lon="-105.2305751">
  <ele>1586.16</ele>
  <time>2026-08-28T19:06:39Z</time>
  <course>8.67</course>
  <speed>0.01414213562373095</speed>
  <fix>3d</fix>
</trkpt>
<trkpt lat="40.072842" lon="-105.230575">
  <ele>1586.09</ele>
  <time>2026-08-28T19:06:39Z</time>
  <course>266.03</course>
  <speed>0.0</speed>
  <fix>3d</fix>
</trkpt>
<trkpt lat="40.0728421" lon="-105.2305751">
  <ele>1586.16</ele>
  <time>2026-08-28T19:06:39Z</time>
  <course>8.67</course>
  <speed>0.01414213562373095</speed>
  <fix>3d</fix>
</trkpt>
<trkpt lat="40.072842" lon="-105.230575">
  <ele>1586.09</ele>
  <time>2026-08-28T19:06:39Z</time>
  <course>266.03</course>
  <speed>0.0</speed>
  <fix>3d</fix>
</trkpt>
<trkpt lat="40.0728421" lon="-105.2305751">
  <ele>1586.16</ele>
  <time>2026-08-28T19:06:39Z</time>
  <course>8.67</course>
  <speed>0.01414213562373095</speed>
  <fix>3d</fix>
</trkpt>
<trkpt lat="40.072842" lon="-105.230575">
  <ele>1586.09</ele>
  <time>2026-08-28T19:06:39Z</time>
  <course>266.03</course>
  <speed>0.0</speed>
  <fix>3d</fix>
</trkpt>
<trkpt lat="40.0728421" lon="-105.2305751">
  <ele>1586.15</ele>
  <time>2026-08-28T19:06:39Z</time>
  <course>8.67</course>
  <speed>0.01414213562373095</speed>
  <fix>3d</fix>
</trkpt>
<trkpt lat="40.072842" lon="-105.230575">
  <ele>1586.09</ele>
  <time>2026-08-28T19:06:39Z</time>
  <course>266.03</course>
  <speed>0.0</speed>
  <fix>3d</fix>
</trkpt>
<trkpt lat="40.0728421" lon="-105.2305751">
  <ele>1586.15</ele>
  <time>2026-08-28T19:06:39Z</time>
  <course>8.67</course>
  <speed>0.01414213562373095</speed>
  <fix>3d</fix>
</trkpt>
<trkpt lat="40.072842" lon="-105.230575">
  <ele>1586.09</ele>
  <time>2026-08-28T19:06:39Z</time>
  <course>266.03</course>
  <speed>0.0</speed>
  <fix>3d</fix>
</trkpt>
<trkpt lat="40.0728421" lon="-105.2305751">
  <ele>1586.15</ele>
  <time>2026-08-28T19:06:39Z</time>
  <course>8.67</course>
  <speed>0.01414213562373095</speed>
  <fix>3d</fix>
</trkpt>
<trkpt lat="40.072842" lon="-105.230575">
  <ele>1586.09</ele>
  <time>2026-08-28T19:06:39Z</time>
  <course>266.03</course>
  <speed>0.0</speed>
  <fix>3d</fix>
</trkpt>
<trkpt lat="40.0728421" lon="-105.2305751">
  <ele>1586.15</ele>
  <time>2026-08-28T19:06:39Z</time>
  <course>8.67</course>
  <speed>0.01414213562373095</speed>
  <fix>3d</fix>
</trkpt>
<trkpt lat="40.072842" lon="-105.230575">
  <ele>1586.09</ele>
  <time>2026-08-28T19:06:39Z</time>
  <course>266.03</course>
  <speed>0.0</speed>
  <fix>3d</fix>
</trkpt>
<trkpt lat="40.0728421" lon="-105.2305751">
  <ele>1586.16</ele>
  <time>2026-08-28T19:06:39Z</time>
  <course>8.67</course>
  <speed>0.01414213562373095</speed>
  <fix>3d</fix>
</trkpt>
<trkpt lat="40.072842" lon="-105.230575">
  <ele>1586.09</ele>
  <time>2026-08-28T19:06:39Z</time>
  <course>266.03</course>
  <speed>0.0</speed>
  <fix>3d</fix>
</trkpt>
<trkpt lat="40.0728421" lon="-105.2305751">
  <ele>1586.16</ele>
  <time>2026-08-28T19:06:39Z</time>
  <course>8.67</course>
  <speed>0.01414213562373095</speed>
  <fix>3d</fix>
</trkpt>
<trkpt lat="40.072842" lon="-105.230575">
  <ele>1586.09</ele>
  <time>2026-08-28T19:06:39Z</time>
  <course>266.03</course>
  <speed>0.0</speed>
  <fix>3d</fix>
</trkpt>
<trkpt lat="40.0728421" lon="-105.2305751">
  <ele>1586.15</ele>
  <time>2026-08-28T19:06:39Z</time>
  <course>8.67</course>
  <speed>0.01414213562373095</speed>
  <fix>3d</fix>
</trkpt>
<trkpt lat="40.072842" lon="-105.230575">
  <ele>1586.09</ele>
  <time>2026-08-28T19:06:39Z</time>
  <course>266.03</course>
  <speed>0.0</speed>
  <fix>3d</fix>
</trkpt>
<trkpt lat="40.0728421" lon="-105.2305751">
  <ele>1586.15</ele>
  <time>2026-08-28T19:06:39Z</time>
  <course>8.67</course>
  <speed>0.01414213562373095</speed>
  <fix>3d</fix>
</trkpt>
<trkpt lat="40.072842" lon="-105.230575">
  <ele>1586.09</ele>
  <time>2026-08-28T19:06:39Z</time>
  <course>266.03</course>
  <speed>0.0</speed>
  <fix>3d</fix>
</trkpt>
<trkpt lat="40.0728421" lon="-105.2305751">
  <ele>1586.15</ele>
  <time>2026-08-28T19:06:39Z</time>
  <course>8.67</course>
  <speed>0.01414213562373095</speed>
  <fix>3d</fix>
</trkpt>
<trkpt lat="40.072842" lon="-105.230575">
  <ele>1586.09</ele>
  <time>2026-08-28T19:06:39Z</time>
  <course>266.03</course>
  <speed>0.0</speed>
  <fix>3d</fix>
</trkpt>
<trkpt lat="40.0728421" lon="-105.2305751">
  <ele>1586.14</ele>
  <time>2026-08-28T19:06:39Z</time>
  <course>8.67</course>
  <speed>0.01414213562373095</speed>
  <fix>3d</fix>
</trkpt>
<trkpt lat="40.072842" lon="-105.230575">
  <ele>1586.09</ele>
  <time>2026-08-28T19:06:39Z</time>
  <course>266.03</course>
  <speed>0.0</speed>
  <fix>3d</fix>
</trkpt>
<trkpt lat="40.0728421" lon="-105.2305751">
  <ele>1586.14</ele>
  <time>2026-08-28T19:06:39Z</time>
  <course>8.67</course>
  <speed>0.01414213562373095</speed>
  <fix>3d</fix>
</trkpt>
<trkpt lat="40.072842" lon="-105.230575">
  <ele>1586.09</ele>
  <time>2026-08-28T19:06:39Z</time>
  <course>266.03</course>
  <speed>0.0</speed>
  <fix>3d</fix>
</trkpt>
<trkpt lat="40.0728421" lon="-105.2305751">
  <ele>1586.14</ele>
  <time>2026-08-28T19:06:39Z</time>
  <course>8.68</course>
  <speed>0.01414213562373095</speed>
  <fix>3d</fix>
</trkpt>
<trkpt lat="40.072842" lon="-105.230575">
  <ele>1586.09</ele>
  <time>2026-08-28T19:06:39Z</time>
  <course>266.03</course>
  <speed>0.0</speed>
  <fix>3d</fix>
</trkpt>
<trkpt lat="40.0728421" lon="-105.2305751">
  <ele>1586.14</ele>
  <time>2026-08-28T19:06:39Z</time>
  <course>8.68</course>
  <speed>0.01414213562373095</speed>
  <fix>3d</fix>
</trkpt>
<trkpt lat="40.072842" lon="-105.230575">
  <ele>1586.09</ele>
  <time>2026-08-28T19:06:39Z</time>
  <course>266.03</course>
  <speed>0.0</speed>
  <fix>3d</fix>
</trkpt>
<trkpt lat="40.0728421" lon="-105.2305751">
  <ele>1586.14</ele>
  <time>2026-08-28T19:06:39Z</time>
  <course>8.68</course>
  <speed>0.01414213562373095</speed>
  <fix>3d</fix>
</trkpt>
<trkpt lat="40.072842" lon="-105.230575">
  <ele>1586.09</ele>
  <time>2026-08-28T19:06:39Z</time>
  <course>266.03</course>
  <speed>0.0</speed>
  <fix>3d</fix>
</trkpt>
<trkpt lat="40.0728421" lon="-105.2305751">
  <ele>1586.14</ele>
  <time>2026-08-28T19:06:39Z</time>
  <course>8.68</course>
  <speed>0.01414213562373095</speed>
  <fix>3d</fix>
</trkpt>
<trkpt lat="40.072842" lon="-105.230575">
  <ele>1586.09</ele>
  <time>2026-08-28T19:06:39Z</time>
  <course>266.03</course>
  <speed>0.0</speed>
  <fix>3d</fix>
</trkpt>
<trkpt lat="40.0728421" lon="-105.2305751">
  <ele>1586.13</ele>
  <time>2026-08-28T19:06:39Z</time>
  <course>8.68</course>
  <speed>0.01414213562373095</speed>
  <fix>3d</fix>
</trkpt>
<trkpt lat="40.072842" lon="-105.230575">
  <ele>1586.09</ele>
  <time>2026-08-28T19:06:39Z</time>
  <course>266.03</course>
  <speed>0.0</speed>
  <fix>3d</fix>
</trkpt>
<trkpt lat="40.0728421" lon="-105.2305751">
  <ele>1586.13</ele>
  <time>2026-08-28T19:06:39Z</time>
  <course>8.68</course>
  <speed>0.01414213562373095</speed>
  <fix>3d</fix>
</trkpt>
<trkpt lat="40.072842" lon="-105.230575">
  <ele>1586.09</ele>
  <time>2026-08-28T19:06:39Z</time>
  <course>266.03</course>
  <speed>0.0</speed>
  <fix>3d</fix>
</trkpt>
<trkpt lat="40.0728421" lon="-105.2305751">
  <ele>1586.14</ele>
  <time>2026-08-28T19:06:39Z</time>
  <course>8.68</course>
  <speed>0.01414213562373095</speed>
  <fix>3d</fix>
</trkpt>
<trkpt lat="40.072842" lon="-105.230575">
  <ele>1586.09</ele>
  <time>2026-08-28T19:06:39Z</time>
  <course>266.03</course>
  <speed>0.0</speed>
  <fix>3d</fix>
</trkpt>
<trkpt lat="40.0728421" lon="-105.2305751">
  <ele>1586.14</ele>
  <time>2026-08-28T19:06:39Z</time>
  <course>8.68</course>
  <speed>0.01414213562373095</speed>
  <fix>3d</fix>
</trkpt>
<trkpt lat="40.072842" lon="-105.230575">
  <ele>1586.09</ele>
  <time>2026-08-28T19:06:39Z</time>
  <course>266.03</course>
  <speed>0.0</speed>
  <fix>3d</fix>
</trkpt>
<trkpt lat="40.0728421" lon="-105.2305751">
  <ele>1586.14</ele>
  <time>2026-08-28T19:06:39Z</time>
  <course>8.68</course>
  <speed>0.01414213562373095</speed>
  <fix>3d</fix>
</trkpt>
<trkpt lat="40.072842" lon="-105.230575">
  <ele>1586.09</ele>
  <time>2026-08-28T19:06:39Z</time>
  <course>266.03</course>
  <speed>0.0</speed>
  <fix>3d</fix>
</trkpt>
<trkpt lat="40.0728421" lon="-105.2305751">
  <ele>1586.14</ele>
  <time>2026-08-28T19:06:39Z</time>
  <course>8.68</course>
  <speed>0.01414213562373095</speed>
  <fix>3d</fix>
</trkpt>
<trkpt lat="40.072842" lon="-105.230575">
  <ele>1586.09</ele>
  <time>2026-08-28T19:06:39Z</time>
  <course>266.03</course>
  <speed>0.0</speed>
  <fix>3d</fix>
</trkpt>
<trkpt lat="40.0728421" lon="-105.2305751">
  <ele>1586.14</ele>
  <time>2026-08-28T19:06:39Z</time>
  <course>8.68</course>
  <speed>0.01414213562373095</speed>
  <fix>3d</fix>
</trkpt>
<trkpt lat="40.072842" lon="-105.230575">
  <ele>1586.09</ele>
  <time>2026-08-28T19:06:39Z</time>
  <course>266.03</course>
  <speed>0.0</speed>
  <fix>3d</fix>
</trkpt>
<trkpt lat="40.0728421" lon="-105.2305751">
  <ele>1586.15</ele>
  <time>2026-08-28T19:06:39Z</time>
  <course>8.68</course>
  <speed>0.01414213562373095</speed>
  <fix>3d</fix>
</trkpt>
<trkpt lat="40.072842" lon="-105.230575">
  <ele>1586.09</ele>
  <time>2026-08-28T19:06:39Z</time>
  <course>266.03</course>
  <speed>0.0</speed>
  <fix>3d</fix>
</trkpt>
<trkpt lat="40.0728421" lon="-105.2305751">
  <ele>1586.15</ele>
  <time>2026-08-28T19:06:39Z</time>
  <course>8.68</course>
  <speed>0.01414213562373095</speed>
  <fix>3d</fix>
</trkpt>
<trkpt lat="40.072842" lon="-105.230575">
  <ele>1586.09</ele>
  <time>2026-08-28T19:06:39Z</time>
  <course>266.03</course>
  <speed>0.0</speed>
  <fix>3d</fix>
</trkpt>
<trkpt lat="40.0728421" lon="-105.2305751">
  <ele>1586.15</ele>
  <time>2026-08-28T19:06:39Z</time>
  <course>8.68</course>
  <speed>0.01414213562373095</speed>
  <fix>3d</fix>
</trkpt>
<trkpt lat="40.072842" lon="-105.230575">
  <ele>1586.09</ele>
  <time>2026-08-28T19:06:39Z</time>
  <course>266.03</course>
  <speed>0.0</speed>
  <fix>3d</fix>
</trkpt>
<trkpt lat="40.0728421" lon="-105.2305751">
  <ele>1586.15</ele>
  <time>2026-08-28T19:06:39Z</time>
  <course>8.69</course>
  <speed>0.01414213562373095</speed>
  <fix>3d</fix>
</trkpt>
<trkpt lat="40.072842" lon="-105.230575">
  <ele>1586.09</ele>
  <time>2026-08-28T19:06:39Z</time>
  <course>266.03</course>
  <speed>0.0</speed>
  <fix>3d</fix>
</trkpt>
<trkpt lat="40.0728421" lon="-105.2305751">
  <ele>1586.16</ele>
  <time>2026-08-28T19:06:39Z</time>
  <course>8.69</course>
  <speed>0.01414213562373095</speed>
  <fix>3d</fix>
</trkpt>
<trkpt lat="40.072842" lon="-105.230575">
  <ele>1586.09</ele>
  <time>2026-08-28T19:06:39Z</time>
  <course>266.03</course>
  <speed>0.0</speed>
  <fix>3d</fix>
</trkpt>
<trkpt lat="40.0728421" lon="-105.2305751">
  <ele>1586.16</ele>
  <time>2026-08-28T19:06:39Z</time>
  <course>8.69</course>
  <speed>0.01414213562373095</speed>
  <fix>3d</fix>
</trkpt>
<trkpt lat="40.072842" lon="-105.230575">
  <ele>1586.09</ele>
  <time>2026-08-28T19:06:39Z</time>
  <course>266.03</course>
  <speed>0.0</speed>
  <fix>3d</fix>
</trkpt>
<trkpt lat="40.0728421" lon="-105.2305751">
  <ele>1586.16</ele>
  <time>2026-08-28T19:06:39Z</time>
  <course>8.69</course>
  <speed>0.01414213562373095</speed>
  <fix>3d</fix>
</trkpt>
<trkpt lat="40.072842" lon="-105.230575">
  <ele>1586.09</ele>
  <time>2026-08-28T19:06:39Z</time>
  <course>266.03</course>
  <speed>0.0</speed>
  <fix>3d</fix>
</trkpt>
<trkpt lat="40.0728421" lon="-105.2305751">
  <ele>1586.15</ele>
  <time>2026-08-28T19:06:39Z</time>
  <course>8.69</course>
  <speed>0.01414213562373095</speed>
  <fix>3d</fix>
</trkpt>
<trkpt lat="40.072842" lon="-105.230575">
  <ele>1586.09</ele>
  <time>2026-08-28T19:06:39Z</time>
  <course>266.03</course>
  <speed>0.0</speed>
  <fix>3d</fix>
</trkpt>
<trkpt lat="40.0728421" lon="-105.2305751">
  <ele>1586.15</ele>
  <time>2026-08-28T19:06:39Z</time>
  <course>8.69</course>
  <speed>0.01414213562373095</speed>
  <fix>3d</fix>
</trkpt>
<trkpt lat="40.072842" lon="-105.230575">
  <ele>1586.09</ele>
  <time>2026-08-28T19:06:39Z</time>
  <course>266.03</course>
  <speed>0.0</speed>
  <fix>3d</fix>
</trkpt>
<trkpt lat="40.0728421" lon="-105.2305751">
  <ele>1586.15</ele>
  <time>2026-08-28T19:06:39Z</time>
  <course>8.69</course>
  <speed>0.01414213562373095</speed>
  <fix>3d</fix>
</trkpt>
<trkpt lat="40.072842" lon="-105.230575">
  <ele>1586.09</ele>
  <time>2026-08-28T19:06:39Z</time>
  <course>266.03</course>
  <speed>0.0</speed>
  <fix>3d</fix>
</trkpt>
<trkpt lat="40.0728421" lon="-105.2305751">
  <ele>1586.15</ele>
  <time>2026-08-28T19:06:39Z</time>
  <course>8.69</course>
  <speed>0.01414213562373095</speed>
  <fix>3d</fix>
</trkpt>
<trkpt lat="40.072842" lon="-105.230575">
  <ele>1586.09</ele>
  <time>2026-08-28T19:06:39Z</time>
  <course>266.03</course>
  <speed>0.0</speed>
  <fix>3d</fix>
</trkpt>
<trkpt lat="40.0728421" lon="-105.2305751">
  <ele>1586.14</ele>
  <time>2026-08-28T19:06:39Z</time>
  <course>8.69</course>
  <speed>0.01414213562373095</speed>
  <fix>3d</fix>
</trkpt>
<trkpt lat="40.072842" lon="-105.230575">
  <ele>1586.09</ele>
  <time>2026-08-28T19:06:39Z</time>
  <course>266.03</course>
  <speed>0.0</speed>
  <fix>3d</fix>
</trkpt>
<trkpt lat="40.0728421" lon="-105.2305751">
  <ele>1586.14</ele>
  <time>2026-08-28T19:06:39Z</time>
  <course>8.69</course>
  <speed>0.01414213562373095</speed>
  <fix>3d</fix>
</trkpt>
<trkpt lat="40.072842" lon="-105.230575">
  <ele>1586.09</ele>
  <time>2026-08-28T19:06:39Z</time>
  <course>266.03</course>
  <speed>0.0</speed>
  <fix>3d</fix>
</trkpt>
<trkpt lat="40.0728421" lon="-105.2305751">
  <ele>1586.14</ele>
  <time>2026-08-28T19:06:39Z</time>
  <course>8.69</course>
  <speed>0.01414213562373095</speed>
  <fix>3d</fix>
</trkpt>
<trkpt lat="40.072842" lon="-105.230575">
  <ele>1586.09</ele>
  <time>2026-08-28T19:06:39Z</time>
  <course>266.03</course>
  <speed>0.0</speed>
  <fix>3d</fix>
</trkpt>
<trkpt lat="40.0728421" lon="-105.2305751">
  <ele>1586.15</ele>
  <time>2026-08-28T19:06:39Z</time>
  <course>8.69</course>
  <speed>0.01414213562373095</speed>
  <fix>3d</fix>
</trkpt>
<trkpt lat="40.072842" lon="-105.230575">
  <ele>1586.09</ele>
  <time>2026-08-28T19:06:39Z</time>
  <course>266.03</course>
  <speed>0.0</speed>
  <fix>3d</fix>
</trkpt>
<trkpt lat="40.0728421" lon="-105.2305751">
  <ele>1586.15</ele>
  <time>2026-08-28T19:06:39Z</time>
  <course>8.69</course>
  <speed>0.01414213562373095</speed>
  <fix>3d</fix>
</trkpt>
<trkpt lat="40.072842" lon="-105.230575">
  <ele>1586.09</ele>
  <time>2026-08-28T19:06:39Z</time>
  <course>266.03</course>
  <speed>0.0</speed>
  <fix>3d</fix>
</trkpt>
<trkpt lat="40.0728421" lon="-105.2305751">
  <ele>1586.15</ele>
  <time>2026-08-28T19:06:39Z</time>
  <course>8.69</course>
  <speed>0.01414213562373095</speed>
  <fix>3d</fix>
</trkpt>
<trkpt lat="40.072842" lon="-105.230575">
  <ele>1586.09</ele>
  <time>2026-08-28T19:06:39Z</time>
  <course>266.03</course>
  <speed>0.0</speed>
  <fix>3d</fix>
</trkpt>
<trkpt lat="40.0728421" lon="-105.2305751">
  <ele>1586.15</ele>
  <time>2026-08-28T19:06:39Z</time>
  <course>8.69</course>
  <speed>0.01414213562373095</speed>
  <fix>3d</fix>
</trkpt>
<trkpt lat="40.072842" lon="-105.230575">
  <ele>1586.09</ele>
  <time>2026-08-28T19:06:39Z</time>
  <course>266.03</course>
  <speed>0.0</speed>
  <fix>3d</fix>
</trkpt>
<trkpt lat="40.0728421" lon="-105.2305751">
  <ele>1586.15</ele>
  <time>2026-08-28T19:06:39Z</time>
  <course>8.7</course>
  <speed>0.01414213562373095</speed>
  <fix>3d</fix>
</trkpt>
<trkpt lat="40.072842" lon="-105.230575">
  <ele>1586.09</ele>
  <time>2026-08-28T19:06:39Z</time>
  <course>266.03</course>
  <speed>0.0</speed>
  <fix>3d</fix>
</trkpt>
<trkpt lat="40.0728421" lon="-105.2305751">
  <ele>1586.15</ele>
  <time>2026-08-28T19:06:39Z</time>
  <course>8.7</course>
  <speed>0.01414213562373095</speed>
  <fix>3d</fix>
</trkpt>
<trkpt lat="40.072842" lon="-105.230575">
  <ele>1586.09</ele>
  <time>2026-08-28T19:06:39Z</time>
  <course>266.03</course>
  <speed>0.0</speed>
  <fix>3d</fix>
</trkpt>
<trkpt lat="40.0728421" lon="-105.2305751">
  <ele>1586.15</ele>
  <time>2026-08-28T19:06:39Z</time>
  <course>8.7</course>
  <speed>0.01414213562373095</speed>
  <fix>3d</fix>
</trkpt>
<trkpt lat="40.072842" lon="-105.230575">
  <ele>1586.09</ele>
  <time>2026-08-28T19:06:39Z</time>
  <course>266.03</course>
  <speed>0.0</speed>
  <fix>3d</fix>
</trkpt>
<trkpt lat="40.0728421" lon="-105.2305751">
  <ele>1586.15</ele>
  <time>2026-08-28T19:06:39Z</time>
  <course>8.7</course>
  <speed>0.01414213562373095</speed>
  <fix>3d</fix>
</trkpt>
<trkpt lat="40.072842" lon="-105.230575">
  <ele>1586.09</ele>
  <time>2026-08-28T19:06:39Z</time>
  <course>266.03</course>
  <speed>0.0</speed>
  <fix>3d</fix>
</trkpt>
<trkpt lat="40.0728421" lon="-105.2305751">
  <ele>1586.15</ele>
  <time>2026-08-28T19:06:39Z</time>
  <course>8.7</course>
  <speed>0.01414213562373095</speed>
  <fix>3d</fix>
</trkpt>
<trkpt lat="40.072842" lon="-105.230575">
  <ele>1586.09</ele>
  <time>2026-08-28T19:06:39Z</time>
  <course>266.03</course>
  <speed>0.0</speed>
  <fix>3d</fix>
</trkpt>
<trkpt lat="40.0728421" lon="-105.2305751">
  <ele>1586.15</ele>
  <time>2026-08-28T19:06:39Z</time>
  <course>8.7</course>
  <speed>0.01414213562373095</speed>
  <fix>3d</fix>
</trkpt>
<trkpt lat="40.072842" lon="-105.230575">
  <ele>1586.09</ele>
  <time>2026-08-28T19:06:39Z</time>
  <course>266.03</course>
  <speed>0.0</speed>
  <fix>3d</fix>
</trkpt>
<trkpt lat="40.0728421" lon="-105.2305751">
  <ele>1586.15</ele>
  <time>2026-08-28T19:06:39Z</time>
  <course>8.7</course>
  <speed>0.01414213562373095</speed>
  <fix>3d</fix>
</trkpt>
<trkpt lat="40.072842" lon="-105.230575">
  <ele>1586.09</ele>
  <time>2026-08-28T19:06:39Z</time>
  <course>266.03</course>
  <speed>0.0</speed>
  <fix>3d</fix>
</trkpt>
<trkpt lat="40.0728421" lon="-105.2305751">
  <ele>1586.15</ele>
  <time>2026-08-28T19:06:39Z</time>
  <course>8.7</course>
  <speed>0.01414213562373095</speed>
  <fix>3d</fix>
</trkpt>
<trkpt lat="40.072842" lon="-105.230575">
  <ele>1586.09</ele>
  <time>2026-08-28T19:06:39Z</time>
  <course>266.03</course>
  <speed>0.0</speed>
  <fix>3d</fix>
</trkpt>
<trkpt lat="40.0728421" lon="-105.2305751">
  <ele>1586.16</ele>
  <time>2026-08-28T19:06:39Z</time>
  <course>8.7</course>
  <speed>0.01414213562373095</speed>
  <fix>3d</fix>
</trkpt>
<trkpt lat="40.072842" lon="-105.230575">
  <ele>1586.09</ele>
  <time>2026-08-28T19:06:39Z</time>
  <course>266.03</course>
  <speed>0.0</speed>
  <fix>3d</fix>
</trkpt>
<trkpt lat="40.0728421" lon="-105.2305751">
  <ele>1586.16</ele>
  <time>2026-08-28T19:06:39Z</time>
  <course>8.7</course>
  <speed>0.01414213562373095</speed>
  <fix>3d</fix>
</trkpt>
<trkpt lat="40.072842" lon="-105.230575">
  <ele>1586.09</ele>
  <time>2026-08-28T19:06:39Z</time>
  <course>266.03</course>
  <speed>0.0</speed>
  <fix>3d</fix>
</trkpt>
<trkpt lat="40.0728421" lon="-105.2305751">
  <ele>1586.16</ele>
  <time>2026-08-28T19:06:39Z</time>
  <course>8.7</course>
  <speed>0.01414213562373095</speed>
  <fix>3d</fix>
</trkpt>
<trkpt lat="40.072842" lon="-105.230575">
  <ele>1586.09</ele>
  <time>2026-08-28T19:06:39Z</time>
  <course>266.03</course>
  <speed>0.0</speed>
  <fix>3d</fix>
</trkpt>
<trkpt lat="40.0728421" lon="-105.2305751">
  <ele>1586.16</ele>
  <time>2026-08-28T19:06:39Z</time>
  <course>8.7</course>
  <speed>0.01414213562373095</speed>
  <fix>3d</fix>
</trkpt>
<trkpt lat="40.072842" lon="-105.230575">
  <ele>1586.09</ele>
  <time>2026-08-28T19:06:39Z</time>
  <course>266.03</course>
  <speed>0.0</speed>
  <fix>3d</fix>
</trkpt>
<trkpt lat="40.0728421" lon="-105.2305751">
  <ele>1586.17</ele>
  <time>2026-08-28T19:06:39Z</time>
  <course>8.7</course>
  <speed>0.01414213562373095</speed>
  <fix>3d</fix>
</trkpt>
<trkpt lat="40.072842" lon="-105.230575">
  <ele>1586.09</ele>
  <time>2026-08-28T19:06:39Z</time>
  <course>266.03</course>
  <speed>0.0</speed>
  <fix>3d</fix>
</trkpt>
<trkpt lat="40.0728421" lon="-105.2305751">
  <ele>1586.17</ele>
  <time>2026-08-28T19:06:39Z</time>
  <course>8.71</course>
  <speed>0.01414213562373095</speed>
  <fix>3d</fix>
</trkpt>
<trkpt lat="40.072842" lon="-105.230575">
  <ele>1586.09</ele>
  <time>2026-08-28T19:06:39Z</time>
  <course>266.03</course>
  <speed>0.0</speed>
  <fix>3d</fix>
</trkpt>
<trkpt lat="40.0728421" lon="-105.2305751">
  <ele>1586.17</ele>
  <time>2026-08-28T19:06:40Z</time>
  <course>8.71</course>
  <speed>0.01414213562373095</speed>
  <fix>3d</fix>
</trkpt>
<trkpt lat="40.072842" lon="-105.230575">
  <ele>1586.09</ele>
  <time>2026-08-28T19:06:40Z</time>
  <course>266.03</course>
  <speed>0.0</speed>
  <fix>3d</fix>
</trkpt>
<trkpt lat="40.0728421" lon="-105.2305751">
  <ele>1586.16</ele>
  <time>2026-08-28T19:06:40Z</time>
  <course>8.71</course>
  <speed>0.01414213562373095</speed>
  <fix>3d</fix>
</trkpt>
<trkpt lat="40.072842" lon="-105.230575">
  <ele>1586.09</ele>
  <time>2026-08-28T19:06:40Z</time>
  <course>266.03</course>
  <speed>0.0</speed>
  <fix>3d</fix>
</trkpt>
<trkpt lat="40.0728421" lon="-105.2305751">
  <ele>1586.16</ele>
  <time>2026-08-28T19:06:40Z</time>
  <course>8.71</course>
  <speed>0.01414213562373095</speed>
  <fix>3d</fix>
</trkpt>
<trkpt lat="40.072842" lon="-105.230575">
  <ele>1586.09</ele>
  <time>2026-08-28T19:06:40Z</time>
  <course>266.03</course>
  <speed>0.0</speed>
  <fix>3d</fix>
</trkpt>
<trkpt lat="40.0728421" lon="-105.2305751">
  <ele>1586.17</ele>
  <time>2026-08-28T19:06:40Z</time>
  <course>8.71</course>
  <speed>0.01414213562373095</speed>
  <fix>3d</fix>
</trkpt>
<trkpt lat="40.072842" lon="-105.230575">
  <ele>1586.09</ele>
  <time>2026-08-28T19:06:40Z</time>
  <course>266.03</course>
  <speed>0.0</speed>
  <fix>3d</fix>
</trkpt>
<trkpt lat="40.0728421" lon="-105.2305751">
  <ele>1586.17</ele>
  <time>2026-08-28T19:06:40Z</time>
  <course>8.71</course>
  <speed>0.01414213562373095</speed>
  <fix>3d</fix>
</trkpt>
<trkpt lat="40.072842" lon="-105.230575">
  <ele>1586.09</ele>
  <time>2026-08-28T19:06:40Z</time>
  <course>266.03</course>
  <speed>0.0</speed>
  <fix>3d</fix>
</trkpt>
<trkpt lat="40.0728421" lon="-105.2305751">
  <ele>1586.18</ele>
  <time>2026-08-28T19:06:40Z</time>
  <course>8.71</course>
  <speed>0.01414213562373095</speed>
  <fix>3d</fix>
</trkpt>
<trkpt lat="40.072842" lon="-105.230575">
  <ele>1586.09</ele>
  <time>2026-08-28T19:06:40Z</time>
  <course>266.03</course>
  <speed>0.0</speed>
  <fix>3d</fix>
</trkpt>
<trkpt lat="40.0728421" lon="-105.2305751">
  <ele>1586.18</ele>
  <time>2026-08-28T19:06:40Z</time>
  <course>8.71</course>
  <speed>0.01414213562373095</speed>
  <fix>3d</fix>
</trkpt>
<trkpt lat="40.072842" lon="-105.230575">
  <ele>1586.09</ele>
  <time>2026-08-28T19:06:40Z</time>
  <course>294.93</course>
  <speed>0.0</speed>
  <fix>3d</fix>
</trkpt>
<trkpt lat="40.0728421" lon="-105.2305751">
  <ele>1586.18</ele>
  <time>2026-08-28T19:06:40Z</time>
  <course>8.71</course>
  <speed>0.01414213562373095</speed>
  <fix>3d</fix>
</trkpt>
<trkpt lat="40.072842" lon="-105.230575">
  <ele>1586.09</ele>
  <time>2026-08-28T19:06:40Z</time>
  <course>294.61</course>
  <speed>0.0</speed>
  <fix>3d</fix>
</trkpt>
<trkpt lat="40.0728421" lon="-105.2305751">
  <ele>1586.19</ele>
  <time>2026-08-28T19:06:40Z</time>
  <course>8.71</course>
  <speed>0.01414213562373095</speed>
  <fix>3d</fix>
</trkpt>
<trkpt lat="40.072842" lon="-105.230575">
  <ele>1586.09</ele>
  <time>2026-08-28T19:06:40Z</time>
  <course>287.42</course>
  <speed>0.0</speed>
  <fix>3d</fix>
</trkpt>
<trkpt lat="40.0728421" lon="-105.2305751">
  <ele>1586.19</ele>
  <time>2026-08-28T19:06:40Z</time>
  <course>8.71</course>
  <speed>0.01414213562373095</speed>
  <fix>3d</fix>
</trkpt>
<trkpt lat="40.072842" lon="-105.230575">
  <ele>1586.09</ele>
  <time>2026-08-28T19:06:40Z</time>
  <course>263.21</course>
  <speed>0.0</speed>
  <fix>3d</fix>
</trkpt>
<trkpt lat="40.0728421" lon="-105.2305751">
  <ele>1586.19</ele>
  <time>2026-08-28T19:06:40Z</time>
  <course>8.71</course>
  <speed>0.01414213562373095</speed>
  <fix>3d</fix>
</trkpt>
<trkpt lat="40.072842" lon="-105.230575">
  <ele>1586.09</ele>
  <time>2026-08-28T19:06:40Z</time>
  <course>231.26</course>
  <speed>0.0</speed>
  <fix>3d</fix>
</trkpt>
<trkpt lat="40.0728421" lon="-105.2305751">
  <ele>1586.19</ele>
  <time>2026-08-28T19:06:40Z</time>
  <course>8.71</course>
  <speed>0.01414213562373095</speed>
  <fix>3d</fix>
</trkpt>
<trkpt lat="40.072842" lon="-105.230575">
  <ele>1586.09</ele>
  <time>2026-08-28T19:06:40Z</time>
  <course>15.25</course>
  <speed>0.0</speed>
  <fix>3d</fix>
</trkpt>
<trkpt lat="40.0728421" lon="-105.2305751">
  <ele>1586.19</ele>
  <time>2026-08-28T19:06:40Z</time>
  <course>8.71</course>
  <speed>0.01414213562373095</speed>
  <fix>3d</fix>
</trkpt>
<trkpt lat="40.072842" lon="-105.230575">
  <ele>1586.09</ele>
  <time>2026-08-28T19:06:40Z</time>
  <course>291.07</course>
  <speed>0.0</speed>
  <fix>3d</fix>
</trkpt>
<trkpt lat="40.0728421" lon="-105.2305751">
  <ele>1586.19</ele>
  <time>2026-08-28T19:06:40Z</time>
  <course>8.71</course>
  <speed>0.01414213562373095</speed>
  <fix>3d</fix>
</trkpt>
<trkpt lat="40.072842" lon="-105.230575">
  <ele>1586.09</ele>
  <time>2026-08-28T19:06:40Z</time>
  <course>275.42</course>
  <speed>0.0</speed>
  <fix>3d</fix>
</trkpt>
<trkpt lat="40.0728421" lon="-105.2305751">
  <ele>1586.19</ele>
  <time>2026-08-28T19:06:40Z</time>
  <course>8.72</course>
  <speed>0.01414213562373095</speed>
  <fix>3d</fix>
</trkpt>
<trkpt lat="40.072842" lon="-105.230575">
  <ele>1586.09</ele>
  <time>2026-08-28T19:06:40Z</time>
  <course>280.13</course>
  <speed>0.0</speed>
  <fix>3d</fix>
</trkpt>
<trkpt lat="40.0728421" lon="-105.2305751">
  <ele>1586.19</ele>
  <time>2026-08-28T19:06:40Z</time>
  <course>8.72</course>
  <speed>0.01414213562373095</speed>
  <fix>3d</fix>
</trkpt>
<trkpt lat="40.072842" lon="-105.230575">
  <ele>1586.09</ele>
  <time>2026-08-28T19:06:40Z</time>
  <course>281.74</course>
  <speed>0.0</speed>
  <fix>3d</fix>
</trkpt>
<trkpt lat="40.0728421" lon="-105.2305751">
  <ele>1586.19</ele>
  <time>2026-08-28T19:06:40Z</time>
  <course>8.72</course>
  <speed>0.01414213562373095</speed>
  <fix>3d</fix>
</trkpt>
<trkpt lat="40.072842" lon="-105.230575">
  <ele>1586.09</ele>
  <time>2026-08-28T19:06:40Z</time>
  <course>280.8</course>
  <speed>0.0</speed>
  <fix>3d</fix>
</trkpt>
<trkpt lat="40.0728421" lon="-105.2305751">
  <ele>1586.19</ele>
  <time>2026-08-28T19:06:40Z</time>
  <course>8.72</course>
  <speed>0.01414213562373095</speed>
  <fix>3d</fix>
</trkpt>
<trkpt lat="40.072842" lon="-105.230575">
  <ele>1586.09</ele>
  <time>2026-08-28T19:06:40Z</time>
  <course>280.69</course>
  <speed>0.0</speed>
  <fix>3d</fix>
</trkpt>
<trkpt lat="40.0728421" lon="-105.2305751">
  <ele>1586.19</ele>
  <time>2026-08-28T19:06:40Z</time>
  <course>8.72</course>
  <speed>0.01414213562373095</speed>
  <fix>3d</fix>
</trkpt>
<trkpt lat="40.072842" lon="-105.230575">
  <ele>1586.09</ele>
  <time>2026-08-28T19:06:40Z</time>
  <course>280.83</course>
  <speed>0.0</speed>
  <fix>3d</fix>
</trkpt>
<trkpt lat="40.0728421" lon="-105.2305751">
  <ele>1586.19</ele>
  <time>2026-08-28T19:06:40Z</time>
  <course>8.72</course>
  <speed>0.01414213562373095</speed>
  <fix>3d</fix>
</trkpt>
<trkpt lat="40.072842" lon="-105.230575">
  <ele>1586.09</ele>
  <time>2026-08-28T19:06:40Z</time>
  <course>280.83</course>
  <speed>0.0</speed>
  <fix>3d</fix>
</trkpt>
<trkpt lat="40.0728421" lon="-105.2305751">
  <ele>1586.19</ele>
  <time>2026-08-28T19:06:40Z</time>
  <course>8.72</course>
  <speed>0.01414213562373095</speed>
  <fix>3d</fix>
</trkpt>
<trkpt lat="40.072842" lon="-105.230575">
  <ele>1586.09</ele>
  <time>2026-08-28T19:06:40Z</time>
  <course>280.81</course>
  <speed>0.0</speed>
  <fix>3d</fix>
</trkpt>
<trkpt lat="40.0728421" lon="-105.2305751">
  <ele>1586.19</ele>
  <time>2026-08-28T19:06:40Z</time>
  <course>8.72</course>
  <speed>0.01414213562373095</speed>
  <fix>3d</fix>
</trkpt>
<trkpt lat="40.072842" lon="-105.230575">
  <ele>1586.09</ele>
  <time>2026-08-28T19:06:40Z</time>
  <course>280.81</course>
  <speed>0.0</speed>
  <fix>3d</fix>
</trkpt>
<trkpt lat="40.0728421" lon="-105.2305751">
  <ele>1586.18</ele>
  <time>2026-08-28T19:06:40Z</time>
  <course>8.72</course>
  <speed>0.01414213562373095</speed>
  <fix>3d</fix>
</trkpt>
<trkpt lat="40.072842" lon="-105.230575">
  <ele>1586.09</ele>
  <time>2026-08-28T19:06:40Z</time>
  <course>280.81</course>
  <speed>0.0</speed>
  <fix>3d</fix>
</trkpt>
<trkpt lat="40.0728421" lon="-105.2305751">
  <ele>1586.18</ele>
  <time>2026-08-28T19:06:40Z</time>
  <course>8.72</course>
  <speed>0.01414213562373095</speed>
  <fix>3d</fix>
</trkpt>
<trkpt lat="40.072842" lon="-105.230575">
  <ele>1586.09</ele>
  <time>2026-08-28T19:06:40Z</time>
  <course>280.81</course>
  <speed>0.0</speed>
  <fix>3d</fix>
</trkpt>
<trkpt lat="40.0728421" lon="-105.2305751">
  <ele>1586.18</ele>
  <time>2026-08-28T19:06:40Z</time>
  <course>8.72</course>
  <speed>0.01414213562373095</speed>
  <fix>3d</fix>
</trkpt>
<trkpt lat="40.072842" lon="-105.230575">
  <ele>1586.09</ele>
  <time>2026-08-28T19:06:40Z</time>
  <course>280.81</course>
  <speed>0.0</speed>
  <fix>3d</fix>
</trkpt>
<trkpt lat="40.0728421" lon="-105.2305751">
  <ele>1586.17</ele>
  <time>2026-08-28T19:06:40Z</time>
  <course>8.72</course>
  <speed>0.022360679774997897</speed>
  <fix>3d</fix>
</trkpt>
<trkpt lat="40.072842" lon="-105.230575">
  <ele>1586.09</ele>
  <time>2026-08-28T19:06:40Z</time>
  <course>280.81</course>
  <speed>0.0</speed>
  <fix>3d</fix>
</trkpt>
<trkpt lat="40.0728422" lon="-105.2305752">
  <ele>1586.17</ele>
  <time>2026-08-28T19:06:40Z</time>
  <course>8.72</course>
  <speed>0.022360679774997897</speed>
  <fix>3d</fix>
</trkpt>
<trkpt lat="40.072842" lon="-105.230575">
  <ele>1586.09</ele>
  <time>2026-08-28T19:06:40Z</time>
  <course>280.81</course>
  <speed>0.0</speed>
  <fix>3d</fix>
</trkpt>
<trkpt lat="40.0728422" lon="-105.2305752">
  <ele>1586.16</ele>
  <time>2026-08-28T19:06:40Z</time>
  <course>8.72</course>
  <speed>0.022360679774997897</speed>
  <fix>3d</fix>
</trkpt>
<trkpt lat="40.072842" lon="-105.230575">
  <ele>1586.09</ele>
  <time>2026-08-28T19:06:40Z</time>
  <course>100.64</course>
  <speed>0.0</speed>
  <fix>3d</fix>
</trkpt>
<trkpt lat="40.0728423" lon="-105.2305753">
  <ele>1586.17</ele>
  <time>2026-08-28T19:06:40Z</time>
  <course>8.72</course>
  <speed>0.0282842712474619</speed>
  <fix>3d</fix>
</trkpt>
<trkpt lat="40.072842" lon="-105.230575">
  <ele>1586.09</ele>
  <time>2026-08-28T19:06:40Z</time>
  <course>87.74</course>
  <speed>0.0</speed>
  <fix>3d</fix>
</trkpt>
<trkpt lat="40.0728423" lon="-105.2305753">
  <ele>1586.17</ele>
  <time>2026-08-28T19:06:40Z</time>
  <course>8.72</course>
  <speed>0.03605551275463989</speed>
  <fix>3d</fix>
</trkpt>
<trkpt lat="40.072842" lon="-105.230575">
  <ele>1586.09</ele>
  <time>2026-08-28T19:06:40Z</time>
  <course>351.43</course>
  <speed>0.0</speed>
  <fix>3d</fix>
</trkpt>
<trkpt lat="40.0728424" lon="-105.2305754">
  <ele>1586.17</ele>
  <time>2026-08-28T19:06:40Z</time>
  <course>8.72</course>
  <speed>0.03605551275463989</speed>
  <fix>3d</fix>
</trkpt>
<trkpt lat="40.072842" lon="-105.230575">
  <ele>1586.09</ele>
  <time>2026-08-28T19:06:40Z</time>
  <course>267.08</course>
  <speed>0.0</speed>
  <fix>3d</fix>
</trkpt>
<trkpt lat="40.0728424" lon="-105.2305754">
  <ele>1586.17</ele>
  <time>2026-08-28T19:06:40Z</time>
  <course>8.72</course>
  <speed>0.03605551275463989</speed>
  <fix>3d</fix>
</trkpt>
<trkpt lat="40.072842" lon="-105.230575">
  <ele>1586.09</ele>
  <time>2026-08-28T19:06:40Z</time>
  <course>271.6</course>
  <speed>0.0</speed>
  <fix>3d</fix>
</trkpt>
<trkpt lat="40.0728425" lon="-105.2305755">
  <ele>1586.16</ele>
  <time>2026-08-28T19:06:40Z</time>
  <course>8.72</course>
  <speed>0.05</speed>
  <fix>3d</fix>
</trkpt>
<trkpt lat="40.072842" lon="-105.230575">
  <ele>1586.09</ele>
  <time>2026-08-28T19:06:40Z</time>
  <course>298.33</course>
  <speed>0.0</speed>
  <fix>3d</fix>
</trkpt>
<trkpt lat="40.0728426" lon="-105.2305756">
  <ele>1586.16</ele>
  <time>2026-08-28T19:06:40Z</time>
  <course>8.72</course>
  <speed>0.05</speed>
  <fix>3d</fix>
</trkpt>
<trkpt lat="40.072842" lon="-105.230575">
  <ele>1586.09</ele>
  <time>2026-08-28T19:06:40Z</time>
  <course>286.54</course>
  <speed>0.0</speed>
  <fix>3d</fix>
</trkpt>
<trkpt lat="40.0728427" lon="-105.2305757">
  <ele>1586.16</ele>
  <time>2026-08-28T19:06:40Z</time>
  <course>8.72</course>
  <speed>0.05</speed>
  <fix>3d</fix>
</trkpt>
<trkpt lat="40.072842" lon="-105.230575">
  <ele>1586.09</ele>
  <time>2026-08-28T19:06:40Z</time>
  <course>284.93</course>
  <speed>0.0</speed>
  <fix>3d</fix>
</trkpt>
<trkpt lat="40.0728428" lon="-105.2305758">
  <ele>1586.15</ele>
  <time>2026-08-28T19:06:40Z</time>
  <course>8.72</course>
  <speed>0.05830951894845301</speed>
  <fix>3d</fix>
</trkpt>
<trkpt lat="40.072842" lon="-105.230575">
  <ele>1586.09</ele>
  <time>2026-08-28T19:06:40Z</time>
  <course>286.3</course>
  <speed>0.0</speed>
  <fix>3d</fix>
</trkpt>
<trkpt lat="40.0728429" lon="-105.2305759">
  <ele>1586.16</ele>
  <time>2026-08-28T19:06:40Z</time>
  <course>8.72</course>
  <speed>0.06403124237432849</speed>
  <fix>3d</fix>
</trkpt>
<trkpt lat="40.072842" lon="-105.230575">
  <ele>1586.09</ele>
  <time>2026-08-28T19:06:40Z</time>
  <course>286.35</course>
  <speed>0.0</speed>
  <fix>3d</fix>
</trkpt>
<trkpt lat="40.072843" lon="-105.230576">
  <ele>1586.16</ele>
  <time>2026-08-28T19:06:40Z</time>
  <course>8.72</course>
  <speed>0.06403124237432849</speed>
  <fix>3d</fix>
</trkpt>
<trkpt lat="40.072842" lon="-105.230575">
  <ele>1586.09</ele>
  <time>2026-08-28T19:06:40Z</time>
  <course>286.16</course>
  <speed>0.0</speed>
  <fix>3d</fix>
</trkpt>
<trkpt lat="40.0728431" lon="-105.2305761">
  <ele>1586.17</ele>
  <time>2026-08-28T19:06:40Z</time>
  <course>8.72</course>
  <speed>0.07211102550927978</speed>
  <fix>3d</fix>
</trkpt>
<trkpt lat="40.072842" lon="-105.230575">
  <ele>1586.09</ele>
  <time>2026-08-28T19:06:40Z</time>
  <course>286.17</course>
  <speed>0.0</speed>
  <fix>3d</fix>
</trkpt>
<trkpt lat="40.0728432" lon="-105.2305762">
  <ele>1586.18</ele>
  <time>2026-08-28T19:06:40Z</time>
  <course>8.72</course>
  <speed>0.07810249675906654</speed>
  <fix>3d</fix>
</trkpt>
<trkpt lat="40.072842" lon="-105.230575">
  <ele>1586.09</ele>
  <time>2026-08-28T19:06:40Z</time>
  <course>286.2</course>
  <speed>0.0</speed>
  <fix>3d</fix>
</trkpt>
<trkpt lat="40.0728433" lon="-105.2305763">
  <ele>1586.18</ele>
  <time>2026-08-28T19:06:40Z</time>
  <course>8.72</course>
  <speed>0.08602325267042626</speed>
  <fix>3d</fix>
</trkpt>
<trkpt lat="40.072842" lon="-105.230575">
  <ele>1586.09</ele>
  <time>2026-08-28T19:06:40Z</time>
  <course>286.19</course>
  <speed>0.0</speed>
  <fix>3d</fix>
</trkpt>
<trkpt lat="40.0728434" lon="-105.2305764">
  <ele>1586.19</ele>
  <time>2026-08-28T19:06:40Z</time>
  <course>8.72</course>
  <speed>0.08602325267042626</speed>
  <fix>3d</fix>
</trkpt>
<trkpt lat="40.072842" lon="-105.230575">
  <ele>1586.09</ele>
  <time>2026-08-28T19:06:40Z</time>
  <course>286.19</course>
  <speed>0.0</speed>
  <fix>3d</fix>
</trkpt>
<trkpt lat="40.0728435" lon="-105.2305765">
  <ele>1586.19</ele>
  <time>2026-08-28T19:06:40Z</time>
  <course>8.72</course>
  <speed>0.08602325267042626</speed>
  <fix>3d</fix>
</trkpt>
<trkpt lat="40.072842" lon="-105.230575">
  <ele>1586.09</ele>
  <time>2026-08-28T19:06:40Z</time>
  <course>286.19</course>
  <speed>0.0</speed>
  <fix>3d</fix>
</trkpt>
<trkpt lat="40.0728437" lon="-105.2305766">
  <ele>1586.19</ele>
  <time>2026-08-28T19:06:40Z</time>
  <course>8.72</course>
  <speed>0.1</speed>
  <fix>3d</fix>
</trkpt>
<trkpt lat="40.072842" lon="-105.230575">
  <ele>1586.09</ele>
  <time>2026-08-28T19:06:40Z</time>
  <course>286.19</course>
  <speed>0.0</speed>
  <fix>3d</fix>
</trkpt>
<trkpt lat="40.0728438" lon="-105.2305767">
  <ele>1586.2</ele>
  <time>2026-08-28T19:06:40Z</time>
  <course>8.72</course>
  <speed>0.1</speed>
  <fix>3d</fix>
</trkpt>
<trkpt lat="40.072842" lon="-105.230575">
  <ele>1586.09</ele>
  <time>2026-08-28T19:06:40Z</time>
  <course>259.12</course>
  <speed>0.0</speed>
  <fix>3d</fix>
</trkpt>
<trkpt lat="40.0728439" lon="-105.2305768">
  <ele>1586.2</ele>
  <time>2026-08-28T19:06:40Z</time>
  <course>8.72</course>
  <speed>0.1</speed>
  <fix>3d</fix>
</trkpt>
<trkpt lat="40.072842" lon="-105.230575">
  <ele>1586.09</ele>
  <time>2026-08-28T19:06:40Z</time>
  <course>144.47</course>
  <speed>0.0</speed>
  <fix>3d</fix>
</trkpt>
<trkpt lat="40.072844" lon="-105.230577">
  <ele>1586.2</ele>
  <time>2026-08-28T19:06:40Z</time>
  <course>8.72</course>
  <speed>0.10816653826391968</speed>
  <fix>3d</fix>
</trkpt>
<trkpt lat="40.072842" lon="-105.230575">
  <ele>1586.09</ele>
  <time>2026-08-28T19:06:40Z</time>
  <course>135.19</course>
  <speed>0.0</speed>
  <fix>3d</fix>
</trkpt>
<trkpt lat="40.0728442" lon="-105.2305771">
  <ele>1586.2</ele>
  <time>2026-08-28T19:06:40Z</time>
  <course>8.72</course>
  <speed>0.11401754250991379</speed>
  <fix>3d</fix>
</trkpt>
<trkpt lat="40.072842" lon="-105.230575">
  <ele>1586.09</ele>
  <time>2026-08-28T19:06:40Z</time>
  <course>330.28</course>
  <speed>0.0</speed>
  <fix>3d</fix>
</trkpt>
<trkpt lat="40.0728444" lon="-105.2305773">
  <ele>1586.19</ele>
  <time>2026-08-28T19:06:40Z</time>
  <course>8.72</course>
  <speed>0.12206555615733702</speed>
  <fix>3d</fix>
</trkpt>
<trkpt lat="40.072842" lon="-105.230575">
  <ele>1586.09</ele>
  <time>2026-08-28T19:06:40Z</time>
  <course>284.29</course>
  <speed>0.0</speed>
  <fix>3d</fix>
</trkpt>
<trkpt lat="40.0728445" lon="-105.2305775">
  <ele>1586.19</ele>
  <time>2026-08-28T19:06:40Z</time>
  <course>8.72</course>
  <speed>0.12806248474865697</speed>
  <fix>3d</fix>
</trkpt>
<trkpt lat="40.072842" lon="-105.230575">
  <ele>1586.09</ele>
  <time>2026-08-28T19:06:40Z</time>
  <course>228.5</course>
  <speed>0.0</speed>
  <fix>3d</fix>
</trkpt>
<trkpt lat="40.0728446" lon="-105.2305775">
  <ele>1586.19</ele>
  <time>2026-08-28T19:06:40Z</time>
  <course>8.72</course>
  <speed>0.12806248474865697</speed>
  <fix>3d</fix>
</trkpt>
<trkpt lat="40.072842" lon="-105.230575">
  <ele>1586.09</ele>
  <time>2026-08-28T19:06:40Z</time>
  <course>264.0</course>
  <speed>0.0</speed>
  <fix>3d</fix>
</trkpt>
<trkpt lat="40.0728447" lon="-105.2305776">
  <ele>1586.19</ele>
  <time>2026-08-28T19:06:40Z</time>
  <course>8.72</course>
  <speed>0.13601470508735444</speed>
  <fix>3d</fix>
</trkpt>
<trkpt lat="40.072842" lon="-105.230575">
  <ele>1586.09</ele>
  <time>2026-08-28T19:06:40Z</time>
  <course>270.38</course>
  <speed>0.0</speed>
  <fix>3d</fix>
</trkpt>
<trkpt lat="40.0728449" lon="-105.2305778">
  <ele>1586.19</ele>
  <time>2026-08-28T19:06:40Z</time>
  <course>8.71</course>
  <speed>0.13601470508735444</speed>
  <fix>3d</fix>
</trkpt>
<trkpt lat="40.072842" lon="-105.230575">
  <ele>1586.09</ele>
  <time>2026-08-28T19:06:40Z</time>
  <course>265.73</course>
  <speed>0.0</speed>
  <fix>3d</fix>
</trkpt>
<trkpt lat="40.0728451" lon="-105.230578">
  <ele>1586.2</ele>
  <time>2026-08-28T19:06:40Z</time>
  <course>8.71</course>
  <speed>0.15</speed>
  <fix>3d</fix>
</trkpt>
<trkpt lat="40.072842" lon="-105.230575">
  <ele>1586.09</ele>
  <time>2026-08-28T19:06:40Z</time>
  <course>265.45</course>
  <speed>0.0</speed>
  <fix>3d</fix>
</trkpt>
<trkpt lat="40.0728453" lon="-105.2305782">
  <ele>1586.2</ele>
  <time>2026-08-28T19:06:40Z</time>
  <course>8.71</course>
  <speed>0.15</speed>
  <fix>3d</fix>
</trkpt>
<trkpt lat="40.072842" lon="-105.230575">
  <ele>1586.09</ele>
  <time>2026-08-28T19:06:40Z</time>
  <course>91.8</course>
  <speed>0.0</speed>
  <fix>3d</fix>
</trkpt>
<trkpt lat="40.0728453" lon="-105.2305782">
  <ele>1586.2</ele>
  <time>2026-08-28T19:06:40Z</time>
  <course>8.71</course>
  <speed>0.15</speed>
  <fix>3d</fix>
</trkpt>
<trkpt lat="40.072842" lon="-105.230575">
  <ele>1586.09</ele>
  <time>2026-08-28T19:06:40Z</time>
  <course>83.02</course>
  <speed>0.0</speed>
  <fix>3d</fix>
</trkpt>
<trkpt lat="40.0728453" lon="-105.2305783">
  <ele>1586.2</ele>
  <time>2026-08-28T19:06:40Z</time>
  <course>8.71</course>
  <speed>0.15</speed>
  <fix>3d</fix>
</trkpt>
<trkpt lat="40.072842" lon="-105.230575">
  <ele>1586.09</ele>
  <time>2026-08-28T19:06:40Z</time>
  <course>315.46</course>
  <speed>0.0</speed>
  <fix>3d</fix>
</trkpt>
<trkpt lat="40.0728455" lon="-105.2305784">
  <ele>1586.2</ele>
  <time>2026-08-28T19:06:40Z</time>
  <course>8.71</course>
  <speed>0.15</speed>
  <fix>3d</fix>
</trkpt>
<trkpt lat="40.072842" lon="-105.230575">
  <ele>1586.09</ele>
  <time>2026-08-28T19:06:40Z</time>
  <course>254.46</course>
  <speed>0.0</speed>
  <fix>3d</fix>
</trkpt>
<trkpt lat="40.0728457" lon="-105.2305786">
  <ele>1586.2</ele>
  <time>2026-08-28T19:06:40Z</time>
  <course>8.71</course>
  <speed>0.16401219466856726</speed>
  <fix>3d</fix>
</trkpt>
<trkpt lat="40.072842" lon="-105.230575">
  <ele>1586.09</ele>
  <time>2026-08-28T19:06:40Z</time>
  <course>180.59</course>
  <speed>0.0</speed>
  <fix>3d</fix>
</trkpt>
<trkpt lat="40.0728459" lon="-105.2305788">
  <ele>1586.2</ele>
  <time>2026-08-28T19:06:40Z</time>
  <course>8.71</course>
  <speed>0.17204650534085253</speed>
  <fix>3d</fix>
</trkpt>
<trkpt lat="40.072842" lon="-105.230575">
  <ele>1586.09</ele>
  <time>2026-08-28T19:06:40Z</time>
  <course>290.17</course>
  <speed>0.0</speed>
  <fix>3d</fix>
</trkpt>
<trkpt lat="40.072846" lon="-105.2305789">
  <ele>1586.19</ele>
  <time>2026-08-28T19:06:40Z</time>
  <course>8.71</course>
  <speed>0.17204650534085253</speed>
  <fix>3d</fix>
</trkpt>
<trkpt lat="40.072842" lon="-105.230575">
  <ele>1586.09</ele>
  <time>2026-08-28T19:06:40Z</time>
  <course>267.85</course>
  <speed>0.0</speed>
  <fix>3d</fix>
</trkpt>
<trkpt lat="40.0728459" lon="-105.2305788">
  <ele>1586.2</ele>
  <time>2026-08-28T19:06:40Z</time>
  <course>8.71</course>
  <speed>0.16401219466856726</speed>
  <fix>3d</fix>
</trkpt>
<trkpt lat="40.072842" lon="-105.230575">
  <ele>1586.09</ele>
  <time>2026-08-28T19:06:40Z</time>
  <course>264.22</course>
  <speed>0.0</speed>
  <fix>3d</fix>
</trkpt>
<trkpt lat="40.072846" lon="-105.2305789">
  <ele>1586.2</ele>
  <time>2026-08-28T19:06:40Z</time>
  <course>8.7</course>
  <speed>0.16401219466856726</speed>
  <fix>3d</fix>
</trkpt>
<trkpt lat="40.072842" lon="-105.230575">
  <ele>1586.09</ele>
  <time>2026-08-28T19:06:40Z</time>
  <course>265.97</course>
  <speed>0.0</speed>
  <fix>3d</fix>
</trkpt>
<trkpt lat="40.0728462" lon="-105.2305791">
  <ele>1586.2</ele>
  <time>2026-08-28T19:06:40Z</time>
  <course>8.7</course>
  <speed>0.17204650534085253</speed>
  <fix>3d</fix>
</trkpt>
<trkpt lat="40.072842" lon="-105.230575">
  <ele>1586.09</ele>
  <time>2026-08-28T19:06:40Z</time>
  <course>266.3</course>
  <speed>0.0</speed>
  <fix>3d</fix>
</trkpt>
<trkpt lat="40.0728464" lon="-105.2305793">
  <ele>1586.2</ele>
  <time>2026-08-28T19:06:40Z</time>
  <course>8.7</course>
  <speed>0.17804493814764857</speed>
  <fix>3d</fix>
</trkpt>
<trkpt lat="40.072842" lon="-105.230575">
  <ele>1586.09</ele>
  <time>2026-08-28T19:06:40Z</time>
  <course>266.01</course>
  <speed>0.0</speed>
  <fix>3d</fix>
</trkpt>
<trkpt lat="40.0728465" lon="-105.2305794">
  <ele>1586.21</ele>
  <time>2026-08-28T19:06:40Z</time>
  <course>8.7</course>
  <speed>0.18601075237738274</speed>
  <fix>3d</fix>
</trkpt>
<trkpt lat="40.072842" lon="-105.230575">
  <ele>1586.09</ele>
  <time>2026-08-28T19:06:40Z</time>
  <course>266.0</course>
  <speed>0.0</speed>
  <fix>3d</fix>
</trkpt>
<trkpt lat="40.0728463" lon="-105.2305792">
  <ele>1586.21</ele>
  <time>2026-08-28T19:06:40Z</time>
  <course>8.7</course>
  <speed>0.17204650534085253</speed>
  <fix>3d</fix>
</trkpt>
<trkpt lat="40.072842" lon="-105.230575">
  <ele>1586.09</ele>
  <time>2026-08-28T19:06:40Z</time>
  <course>266.04</course>
  <speed>0.0</speed>
  <fix>3d</fix>
</trkpt>
<trkpt lat="40.0728463" lon="-105.2305792">
  <ele>1586.21</ele>
  <time>2026-08-28T19:06:40Z</time>
  <course>8.7</course>
  <speed>0.17204650534085253</speed>
  <fix>3d</fix>
</trkpt>
<trkpt lat="40.072842" lon="-105.230575">
  <ele>1586.09</ele>
  <time>2026-08-28T19:06:40Z</time>
  <course>266.04</course>
  <speed>0.0</speed>
  <fix>3d</fix>
</trkpt>
<trkpt lat="40.0728465" lon="-105.2305793">
  <ele>1586.21</ele>
  <time>2026-08-28T19:06:40Z</time>
  <course>8.7</course>
  <speed>0.17804493814764857</speed>
  <fix>3d</fix>
</trkpt>
<trkpt lat="40.072842" lon="-105.230575">
  <ele>1586.09</ele>
  <time>2026-08-28T19:06:40Z</time>
  <course>266.03</course>
  <speed>0.0</speed>
  <fix>3d</fix>
</trkpt>
<trkpt lat="40.0728467" lon="-105.2305796">
  <ele>1586.2</ele>
  <time>2026-08-28T19:06:40Z</time>
  <course>8.7</course>
  <speed>0.18601075237738274</speed>
  <fix>3d</fix>
</trkpt>
<trkpt lat="40.072842" lon="-105.230575">
  <ele>1586.09</ele>
  <time>2026-08-28T19:06:40Z</time>
  <course>266.03</course>
  <speed>0.0</speed>
  <fix>3d</fix>
</trkpt>
<trkpt lat="40.072847" lon="-105.2305798">
  <ele>1586.2</ele>
  <time>2026-08-28T19:06:40Z</time>
  <course>8.7</course>
  <speed>0.194164878389476</speed>
  <fix>3d</fix>
</trkpt>
<trkpt lat="40.072842" lon="-105.230575">
  <ele>1586.09</ele>
  <time>2026-08-28T19:06:40Z</time>
  <course>266.03</course>
  <speed>0.0</speed>
  <fix>3d</fix>
</trkpt>
<trkpt lat="40.0728467" lon="-105.2305796">
  <ele>1586.2</ele>
  <time>2026-08-28T19:06:40Z</time>
  <course>8.7</course>
  <speed>0.18601075237738274</speed>
  <fix>3d</fix>
</trkpt>
<trkpt lat="40.072842" lon="-105.230575">
  <ele>1586.09</ele>
  <time>2026-08-28T19:06:40Z</time>
  <course>266.03</course>
  <speed>0.0</speed>
  <fix>3d</fix>
</trkpt>
<trkpt lat="40.0728465" lon="-105.2305794">
  <ele>1586.19</ele>
  <time>2026-08-28T19:06:40Z</time>
  <course>8.69</course>
  <speed>0.17804493814764857</speed>
  <fix>3d</fix>
</trkpt>
<trkpt lat="40.072842" lon="-105.230575">
  <ele>1586.09</ele>
  <time>2026-08-28T19:06:40Z</time>
  <course>266.03</course>
  <speed>0.0</speed>
  <fix>3d</fix>
</trkpt>
<trkpt lat="40.0728466" lon="-105.2305795">
  <ele>1586.19</ele>
  <time>2026-08-28T19:06:40Z</time>
  <course>8.69</course>
  <speed>0.18601075237738274</speed>
  <fix>3d</fix>
</trkpt>
<trkpt lat="40.072842" lon="-105.230575">
  <ele>1586.09</ele>
  <time>2026-08-28T19:06:40Z</time>
  <course>266.03</course>
  <speed>0.0</speed>
  <fix>3d</fix>
</trkpt>
<trkpt lat="40.0728468" lon="-105.2305797">
  <ele>1586.19</ele>
  <time>2026-08-28T19:06:40Z</time>
  <course>8.69</course>
  <speed>0.18601075237738274</speed>
  <fix>3d</fix>
</trkpt>
<trkpt lat="40.072842" lon="-105.230575">
  <ele>1586.09</ele>
  <time>2026-08-28T19:06:40Z</time>
  <course>266.03</course>
  <speed>0.0</speed>
  <fix>3d</fix>
</trkpt>
<trkpt lat="40.0728471" lon="-105.2305799">
  <ele>1586.19</ele>
  <time>2026-08-28T19:06:40Z</time>
  <course>8.69</course>
  <speed>0.194164878389476</speed>
  <fix>3d</fix>
</trkpt>
<trkpt lat="40.072842" lon="-105.230575">
  <ele>1586.09</ele>
  <time>2026-08-28T19:06:40Z</time>
  <course>266.03</course>
  <speed>0.0</speed>
  <fix>3d</fix>
</trkpt>
<trkpt lat="40.0728471" lon="-105.23058">
  <ele>1586.19</ele>
  <time>2026-08-28T19:06:40Z</time>
  <course>8.69</course>
  <speed>0.2</speed>
  <fix>3d</fix>
</trkpt>
<trkpt lat="40.072842" lon="-105.230575">
  <ele>1586.09</ele>
  <time>2026-08-28T19:06:40Z</time>
  <course>266.03</course>
  <speed>0.0</speed>
  <fix>3d</fix>
</trkpt>
<trkpt lat="40.0728467" lon="-105.2305796">
  <ele>1586.2</ele>
  <time>2026-08-28T19:06:40Z</time>
  <course>8.69</course>
  <speed>0.18601075237738274</speed>
  <fix>3d</fix>
</trkpt>
<trkpt lat="40.072842" lon="-105.230575">
  <ele>1586.09</ele>
  <time>2026-08-28T19:06:40Z</time>
  <course>266.03</course>
  <speed>0.0</speed>
  <fix>3d</fix>
</trkpt>
<trkpt lat="40.0728466" lon="-105.2305795">
  <ele>1586.2</ele>
  <time>2026-08-28T19:06:40Z</time>
  <course>8.69</course>
  <speed>0.18601075237738274</speed>
  <fix>3d</fix>
</trkpt>
<trkpt lat="40.072842" lon="-105.230575">
  <ele>1586.09</ele>
  <time>2026-08-28T19:06:40Z</time>
  <course>266.03</course>
  <speed>0.0</speed>
  <fix>3d</fix>
</trkpt>
<trkpt lat="40.0728467" lon="-105.2305796">
  <ele>1586.2</ele>
  <time>2026-08-28T19:06:40Z</time>
  <course>8.69</course>
  <speed>0.18601075237738274</speed>
  <fix>3d</fix>
</trkpt>
<trkpt lat="40.072842" lon="-105.230575">
  <ele>1586.09</ele>
  <time>2026-08-28T19:06:40Z</time>
  <course>266.03</course>
  <speed>0.0</speed>
  <fix>3d</fix>
</trkpt>
<trkpt lat="40.0728421" lon="-105.2305751">
  <ele>1586.2</ele>
  <time>2026-08-28T19:06:40Z</time>
  <course>8.69</course>
  <speed>0.13601470508735444</speed>
  <fix>3d</fix>
</trkpt>
<trkpt lat="40.072842" lon="-105.230575">
  <ele>1586.09</ele>
  <time>2026-08-28T19:06:40Z</time>
  <course>266.03</course>
  <speed>0.0</speed>
  <fix>3d</fix>
</trkpt>
<trkpt lat="40.0728421" lon="-105.2305751">
  <ele>1586.19</ele>
  <time>2026-08-28T19:06:40Z</time>
  <course>8.69</course>
  <speed>0.07211102550927978</speed>
  <fix>3d</fix>
</trkpt>
<trkpt lat="40.072842" lon="-105.230575">
  <ele>1586.09</ele>
  <time>2026-08-28T19:06:40Z</time>
  <course>298.44</course>
  <speed>0.0</speed>
  <fix>3d</fix>
</trkpt>
<trkpt lat="40.072842" lon="-105.230575">
  <ele>1586.19</ele>
  <time>2026-08-28T19:06:40Z</time>
  <course>8.69</course>
  <speed>0.03605551275463989</speed>
  <fix>3d</fix>
</trkpt>
<trkpt lat="40.072842" lon="-105.230575">
  <ele>1586.09</ele>
  <time>2026-08-28T19:06:40Z</time>
  <course>296.47</course>
  <speed>0.0</speed>
  <fix>3d</fix>
</trkpt>
<trkpt lat="40.072842" lon="-105.230575">
  <ele>1586.2</ele>
  <time>2026-08-28T19:06:40Z</time>
  <course>8.69</course>
  <speed>0.022360679774997897</speed>
  <fix>3d</fix>
</trkpt>
<trkpt lat="40.072842" lon="-105.230575">
  <ele>1586.09</ele>
  <time>2026-08-28T19:06:40Z</time>
  <course>290.52</course>
  <speed>0.0</speed>
  <fix>3d</fix>
</trkpt>
<trkpt lat="40.0728419" lon="-105.2305749">
  <ele>1586.2</ele>
  <time>2026-08-28T19:06:40Z</time>
  <course>8.69</course>
  <speed>0.01</speed>
  <fix>3d</fix>
</trkpt>
<trkpt lat="40.072842" lon="-105.230575">
  <ele>1586.09</ele>
  <time>2026-08-28T19:06:40Z</time>
  <course>138.79</course>
  <speed>0.0</speed>
  <fix>3d</fix>
</trkpt>
<trkpt lat="40.0728419" lon="-105.2305749">
  <ele>1586.21</ele>
  <time>2026-08-28T19:06:40Z</time>
  <course>8.69</course>
  <speed>0.0</speed>
  <fix>3d</fix>
</trkpt>
<trkpt lat="40.072842" lon="-105.230575">
  <ele>1586.09</ele>
  <time>2026-08-28T19:06:40Z</time>
  <course>94.98</course>
  <speed>0.0</speed>
  <fix>3d</fix>
</trkpt>
<trkpt lat="40.0728419" lon="-105.2305749">
  <ele>1586.21</ele>
  <time>2026-08-28T19:06:40Z</time>
  <course>8.69</course>
  <speed>0.0</speed>
  <fix>3d</fix>
</trkpt>
<trkpt lat="40.072842" lon="-105.230575">
  <ele>1586.09</ele>
  <time>2026-08-28T19:06:40Z</time>
  <course>293.58</course>
  <speed>0.0</speed>
  <fix>3d</fix>
</trkpt>
<trkpt lat="40.0728419" lon="-105.2305749">
  <ele>1586.21</ele>
  <time>2026-08-28T19:06:40Z</time>
  <course>8.69</course>
  <speed>0.0</speed>
  <fix>3d</fix>
</trkpt>
<trkpt lat="40.072842" lon="-105.230575">
  <ele>1586.09</ele>
  <time>2026-08-28T19:06:40Z</time>
  <course>284.01</course>
  <speed>0.0</speed>
  <fix>3d</fix>
</trkpt>
<trkpt lat="40.072842" lon="-105.230575">
  <ele>1586.21</ele>
  <time>2026-08-28T19:06:40Z</time>
  <course>8.69</course>
  <speed>0.0</speed>
  <fix>3d</fix>
</trkpt>
<trkpt lat="40.072842" lon="-105.230575">
  <ele>1586.09</ele>
  <time>2026-08-28T19:06:40Z</time>
  <course>284.63</course>
  <speed>0.0</speed>
  <fix>3d</fix>
</trkpt>
<trkpt lat="40.072842" lon="-105.230575">
  <ele>1586.21</ele>
  <time>2026-08-28T19:06:40Z</time>
  <course>8.69</course>
  <speed>0.01</speed>
  <fix>3d</fix>
</trkpt>
<trkpt lat="40.072842" lon="-105.230575">
  <ele>1586.09</ele>
  <time>2026-08-28T19:06:40Z</time>
  <course>286.69</course>
  <speed>0.0</speed>
  <fix>3d</fix>
</trkpt>
<trkpt lat="40.072842" lon="-105.230575">
  <ele>1586.21</ele>
  <time>2026-08-28T19:06:40Z</time>
  <course>8.69</course>
  <speed>0.01</speed>
  <fix>3d</fix>
</trkpt>
<trkpt lat="40.072842" lon="-105.230575">
  <ele>1586.09</ele>
  <time>2026-08-28T19:06:40Z</time>
  <course>286.32</course>
  <speed>0.0</speed>
  <fix>3d</fix>
</trkpt>
<trkpt lat="40.072842" lon="-105.230575">
  <ele>1586.21</ele>
  <time>2026-08-28T19:06:40Z</time>
  <course>8.69</course>
  <speed>0.01</speed>
  <fix>3d</fix>
</trkpt>
<trkpt lat="40.072842" lon="-105.230575">
  <ele>1586.09</ele>
  <time>2026-08-28T19:06:40Z</time>
  <course>286.11</course>
  <speed>0.0</speed>
  <fix>3d</fix>
</trkpt>
<trkpt lat="40.072842" lon="-105.230575">
  <ele>1586.2</ele>
  <time>2026-08-28T19:06:40Z</time>
  <course>8.69</course>
  <speed>0.01414213562373095</speed>
  <fix>3d</fix>
</trkpt>
<trkpt lat="40.072842" lon="-105.230575">
  <ele>1586.09</ele>
  <time>2026-08-28T19:06:40Z</time>
  <course>286.18</course>
  <speed>0.0</speed>
  <fix>3d</fix>
</trkpt>
<trkpt lat="40.0728421" lon="-105.2305751">
  <ele>1586.2</ele>
  <time>2026-08-28T19:06:40Z</time>
  <course>8.69</course>
  <speed>0.01414213562373095</speed>
  <fix>3d</fix>
</trkpt>
<trkpt lat="40.072842" lon="-105.230575">
  <ele>1586.09</ele>
  <time>2026-08-28T19:06:40Z</time>
  <course>286.2</course>
  <speed>0.0</speed>
  <fix>3d</fix>
</trkpt>
<trkpt lat="40.0728421" lon="-105.2305751">
  <ele>1586.19</ele>
  <time>2026-08-28T19:06:40Z</time>
  <course>8.69</course>
  <speed>0.01414213562373095</speed>
  <fix>3d</fix>
</trkpt>
<trkpt lat="40.072842" lon="-105.230575">
  <ele>1586.09</ele>
  <time>2026-08-28T19:06:40Z</time>
  <course>301.58</course>
  <speed>0.0</speed>
  <fix>3d</fix>
</trkpt>
<trkpt lat="40.0728421" lon="-105.2305751">
  <ele>1586.19</ele>
  <time>2026-08-28T19:06:40Z</time>
  <course>8.69</course>
  <speed>0.01414213562373095</speed>
  <fix>3d</fix>
</trkpt>
<trkpt lat="40.072842" lon="-105.230575">
  <ele>1586.09</ele>
  <time>2026-08-28T19:06:40Z</time>
  <course>295.47</course>
  <speed>0.0</speed>
  <fix>3d</fix>
</trkpt>
<trkpt lat="40.0728421" lon="-105.2305751">
  <ele>1586.19</ele>
  <time>2026-08-28T19:06:40Z</time>
  <course>8.69</course>
  <speed>0.01414213562373095</speed>
  <fix>3d</fix>
</trkpt>
<trkpt lat="40.072842" lon="-105.230575">
  <ele>1586.09</ele>
  <time>2026-08-28T19:06:40Z</time>
  <course>280.63</course>
  <speed>0.0</speed>
  <fix>3d</fix>
</trkpt>
<trkpt lat="40.0728421" lon="-105.2305751">
  <ele>1586.19</ele>
  <time>2026-08-28T19:06:40Z</time>
  <course>8.69</course>
  <speed>0.01414213562373095</speed>
  <fix>3d</fix>
</trkpt>
<trkpt lat="40.072842" lon="-105.230575">
  <ele>1586.09</ele>
  <time>2026-08-28T19:06:40Z</time>
  <course>285.7</course>
  <speed>0.0</speed>
  <fix>3d</fix>
</trkpt>
<trkpt lat="40.0728421" lon="-105.2305751">
  <ele>1586.19</ele>
  <time>2026-08-28T19:06:40Z</time>
  <course>8.69</course>
  <speed>0.01414213562373095</speed>
  <fix>3d</fix>
</trkpt>
<trkpt lat="40.072842" lon="-105.230575">
  <ele>1586.09</ele>
  <time>2026-08-28T19:06:40Z</time>
  <course>287.1</course>
  <speed>0.0</speed>
  <fix>3d</fix>
</trkpt>
<trkpt lat="40.0728421" lon="-105.2305751">
  <ele>1586.18</ele>
  <time>2026-08-28T19:06:40Z</time>
  <course>8.69</course>
  <speed>0.01414213562373095</speed>
  <fix>3d</fix>
</trkpt>
<trkpt lat="40.072842" lon="-105.230575">
  <ele>1586.09</ele>
  <time>2026-08-28T19:06:40Z</time>
  <course>286.15</course>
  <speed>0.0</speed>
  <fix>3d</fix>
</trkpt>
<trkpt lat="40.0728421" lon="-105.2305751">
  <ele>1586.18</ele>
  <time>2026-08-28T19:06:40Z</time>
  <course>8.69</course>
  <speed>0.01414213562373095</speed>
  <fix>3d</fix>
</trkpt>
<trkpt lat="40.072842" lon="-105.230575">
  <ele>1586.09</ele>
  <time>2026-08-28T19:06:40Z</time>
  <course>286.07</course>
  <speed>0.0</speed>
  <fix>3d</fix>
</trkpt>
<trkpt lat="40.0728421" lon="-105.2305751">
  <ele>1586.18</ele>
  <time>2026-08-28T19:06:40Z</time>
  <course>8.69</course>
  <speed>0.01414213562373095</speed>
  <fix>3d</fix>
</trkpt>
<trkpt lat="40.072842" lon="-105.230575">
  <ele>1586.09</ele>
  <time>2026-08-28T19:06:40Z</time>
  <course>286.21</course>
  <speed>0.0</speed>
  <fix>3d</fix>
</trkpt>
<trkpt lat="40.0728421" lon="-105.2305751">
  <ele>1586.19</ele>
  <time>2026-08-28T19:06:40Z</time>
  <course>8.69</course>
  <speed>0.01414213562373095</speed>
  <fix>3d</fix>
</trkpt>
<trkpt lat="40.072842" lon="-105.230575">
  <ele>1586.09</ele>
  <time>2026-08-28T19:06:40Z</time>
  <course>286.2</course>
  <speed>0.0</speed>
  <fix>3d</fix>
</trkpt>
<trkpt lat="40.0728421" lon="-105.2305751">
  <ele>1586.19</ele>
  <time>2026-08-28T19:06:40Z</time>
  <course>8.69</course>
  <speed>0.01414213562373095</speed>
  <fix>3d</fix>
</trkpt>
<trkpt lat="40.072842" lon="-105.230575">
  <ele>1586.09</ele>
  <time>2026-08-28T19:06:40Z</time>
  <course>286.19</course>
  <speed>0.0</speed>
  <fix>3d</fix>
</trkpt>
<trkpt lat="40.0728421" lon="-105.2305751">
  <ele>1586.19</ele>
  <time>2026-08-28T19:06:40Z</time>
  <course>8.69</course>
  <speed>0.022360679774997897</speed>
  <fix>3d</fix>
</trkpt>
<trkpt lat="40.072842" lon="-105.230575">
  <ele>1586.09</ele>
  <time>2026-08-28T19:06:40Z</time>
  <course>301.34</course>
  <speed>0.0</speed>
  <fix>3d</fix>
</trkpt>
<trkpt lat="40.0728421" lon="-105.2305751">
  <ele>1586.19</ele>
  <time>2026-08-28T19:06:40Z</time>
  <course>8.69</course>
  <speed>0.01414213562373095</speed>
  <fix>3d</fix>
</trkpt>
<trkpt lat="40.072842" lon="-105.230575">
  <ele>1586.09</ele>
  <time>2026-08-28T19:06:40Z</time>
  <course>323.58</course>
  <speed>0.0</speed>
  <fix>3d</fix>
</trkpt>
<trkpt lat="40.0728421" lon="-105.2305751">
  <ele>1586.19</ele>
  <time>2026-08-28T19:06:40Z</time>
  <course>8.69</course>
  <speed>0.022360679774997897</speed>
  <fix>3d</fix>
</trkpt>
<trkpt lat="40.072842" lon="-105.230575">
  <ele>1586.09</ele>
  <time>2026-08-28T19:06:40Z</time>
  <course>333.5</course>
  <speed>0.0</speed>
  <fix>3d</fix>
</trkpt>
<trkpt lat="40.0728421" lon="-105.2305751">
  <ele>1586.18</ele>
  <time>2026-08-28T19:06:40Z</time>
  <course>8.69</course>
  <speed>0.022360679774997897</speed>
  <fix>3d</fix>
</trkpt>
<trkpt lat="40.072842" lon="-105.230575">
  <ele>1586.09</ele>
  <time>2026-08-28T19:06:40Z</time>
  <course>114.71</course>
  <speed>0.0</speed>
  <fix>3d</fix>
</trkpt>
<trkpt lat="40.0728421" lon="-105.2305751">
  <ele>1586.18</ele>
  <time>2026-08-28T19:06:40Z</time>
  <course>8.7</course>
  <speed>0.022360679774997897</speed>
  <fix>3d</fix>
</trkpt>
<trkpt lat="40.072842" lon="-105.230575">
  <ele>1586.09</ele>
  <time>2026-08-28T19:06:40Z</time>
  <course>106.54</course>
  <speed>0.0</speed>
  <fix>3d</fix>
</trkpt>
<trkpt lat="40.0728421" lon="-105.2305751">
  <ele>1586.18</ele>
  <time>2026-08-28T19:06:40Z</time>
  <course>8.7</course>
  <speed>0.022360679774997897</speed>
  <fix>3d</fix>
</trkpt>
<trkpt lat="40.072842" lon="-105.230575">
  <ele>1586.09</ele>
  <time>2026-08-28T19:06:40Z</time>
  <course>106.9</course>
  <speed>0.0</speed>
  <fix>3d</fix>
</trkpt>
<trkpt lat="40.0728421" lon="-105.2305751">
  <ele>1586.18</ele>
  <time>2026-08-28T19:06:40Z</time>
  <course>8.7</course>
  <speed>0.022360679774997897</speed>
  <fix>3d</fix>
</trkpt>
<trkpt lat="40.072842" lon="-105.230575">
  <ele>1586.09</ele>
  <time>2026-08-28T19:06:40Z</time>
  <course>104.14</course>
  <speed>0.0</speed>
  <fix>3d</fix>
</trkpt>
<trkpt lat="40.0728421" lon="-105.2305751">
  <ele>1586.17</ele>
  <time>2026-08-28T19:06:40Z</time>
  <course>8.7</course>
  <speed>0.022360679774997897</speed>
  <fix>3d</fix>
</trkpt>
<trkpt lat="40.072842" lon="-105.230575">
  <ele>1586.09</ele>
  <time>2026-08-28T19:06:40Z</time>
  <course>108.27</course>
  <speed>0.0</speed>
  <fix>3d</fix>
</trkpt>
<trkpt lat="40.0728421" lon="-105.2305751">
  <ele>1586.17</ele>
  <time>2026-08-28T19:06:41Z</time>
  <course>8.7</course>
  <speed>0.022360679774997897</speed>
  <fix>3d</fix>
</trkpt>
<trkpt lat="40.072842" lon="-105.230575">
  <ele>1586.09</ele>
  <time>2026-08-28T19:06:41Z</time>
  <course>276.01</course>
  <speed>0.0</speed>
  <fix>3d</fix>
</trkpt>
<trkpt lat="40.0728421" lon="-105.2305751">
  <ele>1586.17</ele>
  <time>2026-08-28T19:06:41Z</time>
  <course>8.7</course>
  <speed>0.022360679774997897</speed>
  <fix>3d</fix>
</trkpt>
<trkpt lat="40.072842" lon="-105.230575">
  <ele>1586.09</ele>
  <time>2026-08-28T19:06:41Z</time>
  <course>278.93</course>
  <speed>0.0</speed>
  <fix>3d</fix>
</trkpt>
<trkpt lat="40.0728421" lon="-105.2305751">
  <ele>1586.16</ele>
  <time>2026-08-28T19:06:41Z</time>
  <course>8.7</course>
  <speed>0.01414213562373095</speed>
  <fix>3d</fix>
</trkpt>
<trkpt lat="40.072842" lon="-105.230575">
  <ele>1586.09</ele>
  <time>2026-08-28T19:06:41Z</time>
  <course>277.9</course>
  <speed>0.0</speed>
  <fix>3d</fix>
</trkpt>
<trkpt lat="40.0728421" lon="-105.2305751">
  <ele>1586.16</ele>
  <time>2026-08-28T19:06:41Z</time>
  <course>8.7</course>
  <speed>0.01414213562373095</speed>
  <fix>3d</fix>
</trkpt>
<trkpt lat="40.072842" lon="-105.230575">
  <ele>1586.09</ele>
  <time>2026-08-28T19:06:41Z</time>
  <course>299.72</course>
  <speed>0.0</speed>
  <fix>3d</fix>
</trkpt>
<trkpt lat="40.0728421" lon="-105.2305751">
  <ele>1586.16</ele>
  <time>2026-08-28T19:06:41Z</time>
  <course>8.7</course>
  <speed>0.01414213562373095</speed>
  <fix>3d</fix>
</trkpt>
<trkpt lat="40.072842" lon="-105.230575">
  <ele>1586.09</ele>
  <time>2026-08-28T19:06:41Z</time>
  <course>81.45</course>
  <speed>0.0</speed>
  <fix>3d</fix>
</trkpt>
<trkpt lat="40.0728421" lon="-105.2305751">
  <ele>1586.16</ele>
  <time>2026-08-28T19:06:41Z</time>
  <course>8.7</course>
  <speed>0.01414213562373095</speed>
  <fix>3d</fix>
</trkpt>
<trkpt lat="40.072842" lon="-105.230575">
  <ele>1586.09</ele>
  <time>2026-08-28T19:06:41Z</time>
  <course>54.25</course>
  <speed>0.0</speed>
  <fix>3d</fix>
</trkpt>
<trkpt lat="40.0728421" lon="-105.2305751">
  <ele>1586.16</ele>
  <time>2026-08-28T19:06:41Z</time>
  <course>8.7</course>
  <speed>0.01414213562373095</speed>
  <fix>3d</fix>
</trkpt>
<trkpt lat="40.072842" lon="-105.230575">
  <ele>1586.09</ele>
  <time>2026-08-28T19:06:41Z</time>
  <course>85.93</course>
  <speed>0.0</speed>
  <fix>3d</fix>
</trkpt>
<trkpt lat="40.0728421" lon="-105.2305751">
  <ele>1586.15</ele>
  <time>2026-08-28T19:06:41Z</time>
  <course>8.7</course>
  <speed>0.01414213562373095</speed>
  <fix>3d</fix>
</trkpt>
<trkpt lat="40.072842" lon="-105.230575">
  <ele>1586.09</ele>
  <time>2026-08-28T19:06:41Z</time>
  <course>100.63</course>
  <speed>0.0</speed>
  <fix>3d</fix>
</trkpt>
<trkpt lat="40.0728421" lon="-105.2305751">
  <ele>1586.15</ele>
  <time>2026-08-28T19:06:41Z</time>
  <course>8.7</course>
  <speed>0.01414213562373095</speed>
  <fix>3d</fix>
</trkpt>
<trkpt lat="40.072842" lon="-105.230575">
  <ele>1586.09</ele>
  <time>2026-08-28T19:06:41Z</time>
  <course>300.86</course>
  <speed>0.0</speed>
  <fix>3d</fix>
</trkpt>
<trkpt lat="40.0728421" lon="-105.2305751">
  <ele>1586.15</ele>
  <time>2026-08-28T19:06:41Z</time>
  <course>8.7</course>
  <speed>0.01414213562373095</speed>
  <fix>3d</fix>
</trkpt>
<trkpt lat="40.072842" lon="-105.230575">
  <ele>1586.09</ele>
  <time>2026-08-28T19:06:41Z</time>
  <course>296.03</course>
  <speed>0.0</speed>
  <fix>3d</fix>
</trkpt>
<trkpt lat="40.0728421" lon="-105.2305751">
  <ele>1586.14</ele>
  <time>2026-08-28T19:06:41Z</time>
  <course>8.7</course>
  <speed>0.01414213562373095</speed>
  <fix>3d</fix>
</trkpt>
<trkpt lat="40.072842" lon="-105.230575">
  <ele>1586.09</ele>
  <time>2026-08-28T19:06:41Z</time>
  <course>290.8</course>
  <speed>0.0</speed>
  <fix>3d</fix>
</trkpt>
<trkpt lat="40.0728421" lon="-105.2305751">
  <ele>1586.14</ele>
  <time>2026-08-28T19:06:41Z</time>
  <course>8.7</course>
  <speed>0.01414213562373095</speed>
  <fix>3d</fix>
</trkpt>
<trkpt lat="40.072842" lon="-105.230575">
  <ele>1586.09</ele>
  <time>2026-08-28T19:06:41Z</time>
  <course>284.96</course>
  <speed>0.0</speed>
  <fix>3d</fix>
</trkpt>
<trkpt lat="40.0728421" lon="-105.2305751">
  <ele>1586.14</ele>
  <time>2026-08-28T19:06:41Z</time>
  <course>8.7</course>
  <speed>0.01414213562373095</speed>
  <fix>3d</fix>
</trkpt>
<trkpt lat="40.072842" lon="-105.230575">
  <ele>1586.09</ele>
  <time>2026-08-28T19:06:41Z</time>
  <course>286.74</course>
  <speed>0.0</speed>
  <fix>3d</fix>
</trkpt>
<trkpt lat="40.0728421" lon="-105.2305751">
  <ele>1586.14</ele>
  <time>2026-08-28T19:06:41Z</time>
  <course>8.71</course>
  <speed>0.01414213562373095</speed>
  <fix>3d</fix>
</trkpt>
<trkpt lat="40.072842" lon="-105.230575">
  <ele>1586.09</ele>
  <time>2026-08-28T19:06:41Z</time>
  <course>274.68</course>
  <speed>0.0</speed>
  <fix>3d</fix>
</trkpt>
<trkpt lat="40.0728421" lon="-105.2305751">
  <ele>1586.14</ele>
  <time>2026-08-28T19:06:41Z</time>
  <course>8.71</course>
  <speed>0.01414213562373095</speed>
  <fix>3d</fix>
</trkpt>
<trkpt lat="40.072842" lon="-105.230575">
  <ele>1586.09</ele>
  <time>2026-08-28T19:06:41Z</time>
  <course>246.4</course>
  <speed>0.0</speed>
  <fix>3d</fix>
</trkpt>
<trkpt lat="40.0728421" lon="-105.2305751">
  <ele>1586.15</ele>
  <time>2026-08-28T19:06:41Z</time>
  <course>8.71</course>
  <speed>0.01414213562373095</speed>
  <fix>3d</fix>
</trkpt>
<trkpt lat="40.072842" lon="-105.230575">
  <ele>1586.09</ele>
  <time>2026-08-28T19:06:41Z</time>
  <course>272.12</course>
  <speed>0.0</speed>
  <fix>3d</fix>
</trkpt>
<trkpt lat="40.0728421" lon="-105.2305751">
  <ele>1586.14</ele>
  <time>2026-08-28T19:06:41Z</time>
  <course>8.71</course>
  <speed>0.01414213562373095</speed>
  <fix>3d</fix>
</trkpt>
<trkpt lat="40.072842" lon="-105.230575">
  <ele>1586.09</ele>
  <time>2026-08-28T19:06:41Z</time>
  <course>296.61</course>
  <speed>0.0</speed>
  <fix>3d</fix>
</trkpt>
<trkpt lat="40.0728421" lon="-105.2305751">
  <ele>1586.14</ele>
  <time>2026-08-28T19:06:41Z</time>
  <course>8.71</course>
  <speed>0.01414213562373095</speed>
  <fix>3d</fix>
</trkpt>
<trkpt lat="40.072842" lon="-105.230575">
  <ele>1586.09</ele>
  <time>2026-08-28T19:06:41Z</time>
  <course>279.6</course>
  <speed>0.0</speed>
  <fix>3d</fix>
</trkpt>
<trkpt lat="40.0728421" lon="-105.2305751">
  <ele>1586.14</ele>
  <time>2026-08-28T19:06:41Z</time>
  <course>8.71</course>
  <speed>0.01414213562373095</speed>
  <fix>3d</fix>
</trkpt>
<trkpt lat="40.072842" lon="-105.230575">
  <ele>1586.09</ele>
  <time>2026-08-28T19:06:41Z</time>
  <course>279.33</course>
  <speed>0.0</speed>
  <fix>3d</fix>
</trkpt>
<trkpt lat="40.0728421" lon="-105.2305751">
  <ele>1586.14</ele>
  <time>2026-08-28T19:06:41Z</time>
  <course>8.71</course>
  <speed>0.01414213562373095</speed>
  <fix>3d</fix>
</trkpt>
<trkpt lat="40.072842" lon="-105.230575">
  <ele>1586.09</ele>
  <time>2026-08-28T19:06:41Z</time>
  <course>281.19</course>
  <speed>0.0</speed>
  <fix>3d</fix>
</trkpt>
<trkpt lat="40.0728421" lon="-105.2305751">
  <ele>1586.13</ele>
  <time>2026-08-28T19:06:41Z</time>
  <course>8.71</course>
  <speed>0.01414213562373095</speed>
  <fix>3d</fix>
</trkpt>
<trkpt lat="40.072842" lon="-105.230575">
  <ele>1586.09</ele>
  <time>2026-08-28T19:06:41Z</time>
  <course>280.97</course>
  <speed>0.0</speed>
  <fix>3d</fix>
</trkpt>
<trkpt lat="40.0728421" lon="-105.2305751">
  <ele>1586.13</ele>
  <time>2026-08-28T19:06:41Z</time>
  <course>8.71</course>
  <speed>0.01414213562373095</speed>
  <fix>3d</fix>
</trkpt>
<trkpt lat="40.072842" lon="-105.230575">
  <ele>1586.09</ele>
  <time>2026-08-28T19:06:41Z</time>
  <course>280.75</course>
  <speed>0.0</speed>
  <fix>3d</fix>
</trkpt>
<trkpt lat="40.0728421" lon="-105.2305751">
  <ele>1586.13</ele>
  <time>2026-08-28T19:06:41Z</time>
  <course>8.71</course>
  <speed>0.01414213562373095</speed>
  <fix>3d</fix>
</trkpt>
<trkpt lat="40.072842" lon="-105.230575">
  <ele>1586.09</ele>
  <time>2026-08-28T19:06:41Z</time>
  <course>280.8</course>
  <speed>0.0</speed>
  <fix>3d</fix>
</trkpt>
<trkpt lat="40.0728421" lon="-105.2305751">
  <ele>1586.12</ele>
  <time>2026-08-28T19:06:41Z</time>
  <course>8.71</course>
  <speed>0.01414213562373095</speed>
  <fix>3d</fix>
</trkpt>
<trkpt lat="40.072842" lon="-105.230575">
  <ele>1586.09</ele>
  <time>2026-08-28T19:06:41Z</time>
  <course>280.82</course>
  <speed>0.0</speed>
  <fix>3d</fix>
</trkpt>
<trkpt lat="40.0728421" lon="-105.2305751">
  <ele>1586.12</ele>
  <time>2026-08-28T19:06:41Z</time>
  <course>8.71</course>
  <speed>0.01414213562373095</speed>
  <fix>3d</fix>
</trkpt>
<trkpt lat="40.072842" lon="-105.230575">
  <ele>1586.09</ele>
  <time>2026-08-28T19:06:41Z</time>
  <course>280.81</course>
  <speed>0.0</speed>
  <fix>3d</fix>
</trkpt>
<trkpt lat="40.0728421" lon="-105.2305751">
  <ele>1586.14</ele>
  <time>2026-08-28T19:06:41Z</time>
  <course>8.71</course>
  <speed>0.01414213562373095</speed>
  <fix>3d</fix>
</trkpt>
<trkpt lat="40.072842" lon="-105.230575">
  <ele>1586.09</ele>
  <time>2026-08-28T19:06:41Z</time>
  <course>280.81</course>
  <speed>0.0</speed>
  <fix>3d</fix>
</trkpt>
<trkpt lat="40.0728421" lon="-105.2305751">
  <ele>1586.14</ele>
  <time>2026-08-28T19:06:41Z</time>
  <course>8.72</course>
  <speed>0.01414213562373095</speed>
  <fix>3d</fix>
</trkpt>
<trkpt lat="40.072842" lon="-105.230575">
  <ele>1586.09</ele>
  <time>2026-08-28T19:06:41Z</time>
  <course>280.81</course>
  <speed>0.0</speed>
  <fix>3d</fix>
</trkpt>
<trkpt lat="40.0728421" lon="-105.2305751">
  <ele>1586.14</ele>
  <time>2026-08-28T19:06:41Z</time>
  <course>8.72</course>
  <speed>0.01414213562373095</speed>
  <fix>3d</fix>
</trkpt>
<trkpt lat="40.072842" lon="-105.230575">
  <ele>1586.09</ele>
  <time>2026-08-28T19:06:41Z</time>
  <course>280.81</course>
  <speed>0.0</speed>
  <fix>3d</fix>
</trkpt>
<trkpt lat="40.0728421" lon="-105.2305751">
  <ele>1586.15</ele>
  <time>2026-08-28T19:06:41Z</time>
  <course>8.72</course>
  <speed>0.01414213562373095</speed>
  <fix>3d</fix>
</trkpt>
<trkpt lat="40.072842" lon="-105.230575">
  <ele>1586.09</ele>
  <time>2026-08-28T19:06:41Z</time>
  <course>280.81</course>
  <speed>0.0</speed>
  <fix>3d</fix>
</trkpt>
<trkpt lat="40.0728421" lon="-105.2305751">
  <ele>1586.15</ele>
  <time>2026-08-28T19:06:41Z</time>
  <course>8.72</course>
  <speed>0.01414213562373095</speed>
  <fix>3d</fix>
</trkpt>
<trkpt lat="40.072842" lon="-105.230575">
  <ele>1586.09</ele>
  <time>2026-08-28T19:06:41Z</time>
  <course>280.81</course>
  <speed>0.0</speed>
  <fix>3d</fix>
</trkpt>
<trkpt lat="40.0728421" lon="-105.2305751">
  <ele>1586.16</ele>
  <time>2026-08-28T19:06:41Z</time>
  <course>8.72</course>
  <speed>0.01414213562373095</speed>
  <fix>3d</fix>
</trkpt>
<trkpt lat="40.072842" lon="-105.230575">
  <ele>1586.09</ele>
  <time>2026-08-28T19:06:41Z</time>
  <course>280.81</course>
  <speed>0.0</speed>
  <fix>3d</fix>
</trkpt>
<trkpt lat="40.0728421" lon="-105.2305751">
  <ele>1586.16</ele>
  <time>2026-08-28T19:06:41Z</time>
  <course>8.72</course>
  <speed>0.01414213562373095</speed>
  <fix>3d</fix>
</trkpt>
<trkpt lat="40.072842" lon="-105.230575">
  <ele>1586.09</ele>
  <time>2026-08-28T19:06:41Z</time>
  <course>280.81</course>
  <speed>0.0</speed>
  <fix>3d</fix>
</trkpt>
<trkpt lat="40.0728421" lon="-105.2305751">
  <ele>1586.16</ele>
  <time>2026-08-28T19:06:41Z</time>
  <course>8.72</course>
  <speed>0.01414213562373095</speed>
  <fix>3d</fix>
</trkpt>
<trkpt lat="40.072842" lon="-105.230575">
  <ele>1586.09</ele>
  <time>2026-08-28T19:06:41Z</time>
  <course>280.81</course>
  <speed>0.0</speed>
  <fix>3d</fix>
</trkpt>
<trkpt lat="40.0728421" lon="-105.2305751">
  <ele>1586.17</ele>
  <time>2026-08-28T19:06:41Z</time>
  <course>8.72</course>
  <speed>0.01414213562373095</speed>
  <fix>3d</fix>
</trkpt>
<trkpt lat="40.072842" lon="-105.230575">
  <ele>1586.09</ele>
  <time>2026-08-28T19:06:41Z</time>
  <course>280.81</course>
  <speed>0.0</speed>
  <fix>3d</fix>
</trkpt>
<trkpt lat="40.0728421" lon="-105.2305751">
  <ele>1586.17</ele>
  <time>2026-08-28T19:06:41Z</time>
  <course>8.72</course>
  <speed>0.01414213562373095</speed>
  <fix>3d</fix>
</trkpt>
<trkpt lat="40.072842" lon="-105.230575">
  <ele>1586.09</ele>
  <time>2026-08-28T19:06:41Z</time>
  <course>280.81</course>
  <speed>0.0</speed>
  <fix>3d</fix>
</trkpt>
<trkpt lat="40.0728421" lon="-105.2305751">
  <ele>1586.17</ele>
  <time>2026-08-28T19:06:41Z</time>
  <course>8.72</course>
  <speed>0.01414213562373095</speed>
  <fix>3d</fix>
</trkpt>
<trkpt lat="40.072842" lon="-105.230575">
  <ele>1586.09</ele>
  <time>2026-08-28T19:06:41Z</time>
  <course>280.81</course>
  <speed>0.0</speed>
  <fix>3d</fix>
</trkpt>
<trkpt lat="40.0728421" lon="-105.2305751">
  <ele>1586.17</ele>
  <time>2026-08-28T19:06:41Z</time>
  <course>8.72</course>
  <speed>0.01414213562373095</speed>
  <fix>3d</fix>
</trkpt>
<trkpt lat="40.072842" lon="-105.230575">
  <ele>1586.09</ele>
  <time>2026-08-28T19:06:41Z</time>
  <course>280.81</course>
  <speed>0.0</speed>
  <fix>3d</fix>
</trkpt>
<trkpt lat="40.0728421" lon="-105.2305751">
  <ele>1586.16</ele>
  <time>2026-08-28T19:06:41Z</time>
  <course>8.72</course>
  <speed>0.01414213562373095</speed>
  <fix>3d</fix>
</trkpt>
<trkpt lat="40.072842" lon="-105.230575">
  <ele>1586.09</ele>
  <time>2026-08-28T19:06:41Z</time>
  <course>280.81</course>
  <speed>0.0</speed>
  <fix>3d</fix>
</trkpt>
<trkpt lat="40.0728421" lon="-105.2305751">
  <ele>1586.16</ele>
  <time>2026-08-28T19:06:41Z</time>
  <course>8.72</course>
  <speed>0.01414213562373095</speed>
  <fix>3d</fix>
</trkpt>
<trkpt lat="40.072842" lon="-105.230575">
  <ele>1586.09</ele>
  <time>2026-08-28T19:06:41Z</time>
  <course>280.81</course>
  <speed>0.0</speed>
  <fix>3d</fix>
</trkpt>
<trkpt lat="39.654938" lon="-104.1331666">
  <ele>1569.54</ele>
  <time>2026-08-28T19:06:41Z</time>
  <course>168.11</course>
  <speed>0.0</speed>
  <fix>3d</fix>
</trkpt>
<trkpt lat="40.072842" lon="-105.230575">
  <ele>1586.09</ele>
  <time>2026-08-28T19:06:41Z</time>
  <course>2.03</course>
  <speed>0.0</speed>
  <fix>3d</fix>
</trkpt>
<trkpt lat="40.072842" lon="-105.230575">
  <ele>1586.09</ele>
  <time>2026-08-28T19:06:41Z</time>
  <course>238.4</course>
  <speed>0.0</speed>
  <fix>3d</fix>
</trkpt>
<trkpt lat="40.072842" lon="-105.230575">
  <ele>1586.09</ele>
  <time>2026-08-28T19:06:41Z</time>
  <course>2.41</course>
  <speed>0.0</speed>
  <fix>3d</fix>
</trkpt>
<trkpt lat="40.072842" lon="-105.230575">
  <ele>1586.09</ele>
  <time>2026-08-28T19:06:41Z</time>
  <course>194.29</course>
  <speed>0.0</speed>
  <fix>3d</fix>
</trkpt>
<trkpt lat="40.072842" lon="-105.230575">
  <ele>1586.09</ele>
  <time>2026-08-28T19:06:41Z</time>
  <course>3.14</course>
  <speed>0.0</speed>
  <fix>3d</fix>
</trkpt>
<trkpt lat="40.072842" lon="-105.230575">
  <ele>1586.09</ele>
  <time>2026-08-28T19:06:41Z</time>
  <course>193.66</course>
  <speed>0.0</speed>
  <fix>3d</fix>
</trkpt>
<trkpt lat="40.072842" lon="-105.230575">
  <ele>1586.09</ele>
  <time>2026-08-28T19:06:41Z</time>
  <course>3.83</course>
  <speed>0.0</speed>
  <fix>3d</fix>
</trkpt>
<trkpt lat="40.072842" lon="-105.230575">
  <ele>1586.09</ele>
  <time>2026-08-28T19:06:41Z</time>
  <course>303.54</course>
  <speed>0.0</speed>
  <fix>3d</fix>
</trkpt>
<trkpt lat="40.072842" lon="-105.230575">
  <ele>1586.09</ele>
  <time>2026-08-28T19:06:41Z</time>
  <course>4.46</course>
  <speed>0.0</speed>
  <fix>3d</fix>
</trkpt>
<trkpt lat="40.072842" lon="-105.230575">
  <ele>1586.09</ele>
  <time>2026-08-28T19:06:41Z</time>
  <course>110.94</course>
  <speed>0.0</speed>
  <fix>3d</fix>
</trkpt>
<trkpt lat="40.072842" lon="-105.230575">
  <ele>1586.09</ele>
  <time>2026-08-28T19:06:41Z</time>
  <course>5.04</course>
  <speed>0.0</speed>
  <fix>3d</fix>
</trkpt>
<trkpt lat="40.072842" lon="-105.230575">
  <ele>1586.09</ele>
  <time>2026-08-28T19:06:41Z</time>
  <course>191.21</course>
  <speed>0.0</speed>
  <fix>3d</fix>
</trkpt>
<trkpt lat="40.072842" lon="-105.230575">
  <ele>1586.09</ele>
  <time>2026-08-28T19:06:41Z</time>
  <course>5.6</course>
  <speed>0.0</speed>
  <fix>3d</fix>
</trkpt>
<trkpt lat="40.072842" lon="-105.230575">
  <ele>1586.09</ele>
  <time>2026-08-28T19:06:41Z</time>
  <course>252.23</course>
  <speed>0.0</speed>
  <fix>3d</fix>
</trkpt>
<trkpt lat="40.072842" lon="-105.230575">
  <ele>1586.09</ele>
  <time>2026-08-28T19:06:41Z</time>
  <course>6.13</course>
  <speed>0.0</speed>
  <fix>3d</fix>
</trkpt>
<trkpt lat="40.072842" lon="-105.230575">
  <ele>1586.09</ele>
  <time>2026-08-28T19:06:41Z</time>
  <course>170.36</course>
  <speed>0.0</speed>
  <fix>3d</fix>
</trkpt>
<trkpt lat="40.072842" lon="-105.230575">
  <ele>1586.09</ele>
  <time>2026-08-28T19:06:41Z</time>
  <course>6.63</course>
  <speed>0.0</speed>
  <fix>3d</fix>
</trkpt>
<trkpt lat="40.072842" lon="-105.230575">
  <ele>1586.09</ele>
  <time>2026-08-28T19:06:41Z</time>
  <course>179.36</course>
  <speed>0.0</speed>
  <fix>3d</fix>
</trkpt>
<trkpt lat="40.072842" lon="-105.230575">
  <ele>1586.09</ele>
  <time>2026-08-28T19:06:41Z</time>
  <course>7.09</course>
  <speed>0.0</speed>
  <fix>3d</fix>
</trkpt>
<trkpt lat="40.072842" lon="-105.230575">
  <ele>1586.09</ele>
  <time>2026-08-28T19:06:41Z</time>
  <course>19.98</course>
  <speed>0.0</speed>
  <fix>3d</fix>
</trkpt>
<trkpt lat="40.072842" lon="-105.230575">
  <ele>1586.09</ele>
  <time>2026-08-28T19:06:41Z</time>
  <course>7.52</course>
  <speed>0.0</speed>
  <fix>3d</fix>
</trkpt>
<trkpt lat="40.072842" lon="-105.230575">
  <ele>1586.09</ele>
  <time>2026-08-28T19:06:41Z</time>
  <course>17.49</course>
  <speed>0.0</speed>
  <fix>3d</fix>
</trkpt>
<trkpt lat="40.072842" lon="-105.230575">
  <ele>1586.09</ele>
  <time>2026-08-28T19:06:41Z</time>
  <course>7.91</course>
  <speed>0.0</speed>
  <fix>3d</fix>
</trkpt>
<trkpt lat="40.072842" lon="-105.230575">
  <ele>1586.09</ele>
  <time>2026-08-28T19:06:41Z</time>
  <course>356.19</course>
  <speed>0.0</speed>
  <fix>3d</fix>
</trkpt>
<trkpt lat="40.072842" lon="-105.230575">
  <ele>1586.09</ele>
  <time>2026-08-28T19:06:41Z</time>
  <course>8.28</course>
  <speed>0.0</speed>
  <fix>3d</fix>
</trkpt>
<trkpt lat="40.072842" lon="-105.230575">
  <ele>1586.09</ele>
  <time>2026-08-28T19:06:41Z</time>
  <course>77.32</course>
  <speed>0.0</speed>
  <fix>3d</fix>
</trkpt>
<trkpt lat="40.072842" lon="-105.230575">
  <ele>1586.09</ele>
  <time>2026-08-28T19:06:41Z</time>
  <course>8.62</course>
  <speed>0.0</speed>
  <fix>3d</fix>
</trkpt>
<trkpt lat="40.072842" lon="-105.230575">
  <ele>1586.09</ele>
  <time>2026-08-28T19:06:41Z</time>
  <course>290.54</course>
  <speed>0.0</speed>
  <fix>3d</fix>
</trkpt>
<trkpt lat="40.072842" lon="-105.230575">
  <ele>1586.09</ele>
  <time>2026-08-28T19:06:41Z</time>
  <course>8.93</course>
  <speed>0.0</speed>
  <fix>3d</fix>
</trkpt>
<trkpt lat="40.072842" lon="-105.230575">
  <ele>1586.09</ele>
  <time>2026-08-28T19:06:41Z</time>
  <course>338.69</course>
  <speed>0.0</speed>
  <fix>3d</fix>
</trkpt>
<trkpt lat="40.072842" lon="-105.230575">
  <ele>1586.09</ele>
  <time>2026-08-28T19:06:41Z</time>
  <course>9.22</course>
  <speed>0.0</speed>
  <fix>3d</fix>
</trkpt>
<trkpt lat="40.072842" lon="-105.230575">
  <ele>1586.09</ele>
  <time>2026-08-28T19:06:42Z</time>
  <course>326.81</course>
  <speed>0.0</speed>
  <fix>3d</fix>
</trkpt>
<trkpt lat="40.072842" lon="-105.230575">
  <ele>1586.09</ele>
  <time>2026-08-28T19:06:42Z</time>
  <course>9.48</course>
  <speed>0.0</speed>
  <fix>3d</fix>
</trkpt>
<trkpt lat="40.072842" lon="-105.230575">
  <ele>1586.09</ele>
  <time>2026-08-28T19:06:42Z</time>
  <course>262.23</course>
  <speed>0.0</speed>
  <fix>3d</fix>
</trkpt>
<trkpt lat="40.072842" lon="-105.230575">
  <ele>1586.09</ele>
  <time>2026-08-28T19:06:42Z</time>
  <course>9.72</course>
  <speed>0.0</speed>
  <fix>3d</fix>
</trkpt>
<trkpt lat="40.072842" lon="-105.230575">
  <ele>1586.09</ele>
  <time>2026-08-28T19:06:42Z</time>
  <course>159.08</course>
  <speed>0.0</speed>
  <fix>3d</fix>
</trkpt>
<trkpt lat="40.072842" lon="-105.230575">
  <ele>1586.09</ele>
  <time>2026-08-28T19:06:42Z</time>
  <course>9.95</course>
  <speed>0.0</speed>
  <fix>3d</fix>
</trkpt>
<trkpt lat="40.072842" lon="-105.230575">
  <ele>1586.09</ele>
  <time>2026-08-28T19:06:42Z</time>
  <course>287.98</course>
  <speed>0.0</speed>
  <fix>3d</fix>
</trkpt>
<trkpt lat="40.072842" lon="-105.230575">
  <ele>1586.09</ele>
  <time>2026-08-28T19:06:42Z</time>
  <course>10.15</course>
  <speed>0.0</speed>
  <fix>3d</fix>
</trkpt>
<trkpt lat="40.072842" lon="-105.230575">
  <ele>1586.09</ele>
  <time>2026-08-28T19:06:42Z</time>
  <course>278.3</course>
  <speed>0.0</speed>
  <fix>3d</fix>
</trkpt>
<trkpt lat="40.072842" lon="-105.230575">
  <ele>1586.09</ele>
  <time>2026-08-28T19:06:42Z</time>
  <course>10.34</course>
  <speed>0.0</speed>
  <fix>3d</fix>
</trkpt>
<trkpt lat="40.072842" lon="-105.230575">
  <ele>1586.09</ele>
  <time>2026-08-28T19:06:42Z</time>
  <course>261.72</course>
  <speed>0.0</speed>
  <fix>3d</fix>
</trkpt>
<trkpt lat="40.072842" lon="-105.230575">
  <ele>1586.09</ele>
  <time>2026-08-28T19:06:42Z</time>
  <course>10.51</course>
  <speed>0.0</speed>
  <fix>3d</fix>
</trkpt>
<trkpt lat="40.072842" lon="-105.230575">
  <ele>1586.09</ele>
  <time>2026-08-28T19:06:42Z</time>
  <course>264.4</course>
  <speed>0.0</speed>
  <fix>3d</fix>
</trkpt>
<trkpt lat="40.072842" lon="-105.230575">
  <ele>1586.09</ele>
  <time>2026-08-28T19:06:42Z</time>
  <course>10.67</course>
  <speed>0.0</speed>
  <fix>3d</fix>
</trkpt>
<trkpt lat="40.072842" lon="-105.230575">
  <ele>1586.09</ele>
  <time>2026-08-28T19:06:42Z</time>
  <course>266.8</course>
  <speed>0.0</speed>
  <fix>3d</fix>
</trkpt>
<trkpt lat="40.072842" lon="-105.230575">
  <ele>1586.09</ele>
  <time>2026-08-28T19:06:42Z</time>
  <course>10.81</course>
  <speed>0.0</speed>
  <fix>3d</fix>
</trkpt>
<trkpt lat="40.072842" lon="-105.230575">
  <ele>1586.09</ele>
  <time>2026-08-28T19:06:42Z</time>
  <course>266.15</course>
  <speed>0.0</speed>
  <fix>3d</fix>
</trkpt>
<trkpt lat="40.072842" lon="-105.230575">
  <ele>1586.09</ele>
  <time>2026-08-28T19:06:42Z</time>
  <course>10.94</course>
  <speed>0.0</speed>
  <fix>3d</fix>
</trkpt>
<trkpt lat="40.072842" lon="-105.230575">
  <ele>1586.09</ele>
  <time>2026-08-28T19:06:42Z</time>
  <course>265.92</course>
  <speed>0.0</speed>
  <fix>3d</fix>
</trkpt>
<trkpt lat="40.072842" lon="-105.230575">
  <ele>1586.09</ele>
  <time>2026-08-28T19:06:42Z</time>
  <course>11.07</course>
  <speed>0.0</speed>
  <fix>3d</fix>
</trkpt>
<trkpt lat="40.072842" lon="-105.230575">
  <ele>1586.09</ele>
  <time>2026-08-28T19:06:42Z</time>
  <course>266.03</course>
  <speed>0.0</speed>
  <fix>3d</fix>
</trkpt>
<trkpt lat="40.072842" lon="-105.230575">
  <ele>1586.09</ele>
  <time>2026-08-28T19:06:42Z</time>
  <course>11.18</course>
  <speed>0.0</speed>
  <fix>3d</fix>
</trkpt>
<trkpt lat="40.072842" lon="-105.230575">
  <ele>1586.09</ele>
  <time>2026-08-28T19:06:42Z</time>
  <course>266.05</course>
  <speed>0.0</speed>
  <fix>3d</fix>
</trkpt>
<trkpt lat="40.072842" lon="-105.230575">
  <ele>1586.09</ele>
  <time>2026-08-28T19:06:42Z</time>
  <course>11.28</course>
  <speed>0.0</speed>
  <fix>3d</fix>
</trkpt>
<trkpt lat="40.072842" lon="-105.230575">
  <ele>1586.09</ele>
  <time>2026-08-28T19:06:42Z</time>
  <course>266.03</course>
  <speed>0.0</speed>
  <fix>3d</fix>
</trkpt>
<trkpt lat="40.072842" lon="-105.230575">
  <ele>1586.09</ele>
  <time>2026-08-28T19:06:42Z</time>
  <course>11.37</course>
  <speed>0.0</speed>
  <fix>3d</fix>
</trkpt>
<trkpt lat="40.072842" lon="-105.230575">
  <ele>1586.09</ele>
  <time>2026-08-28T19:06:42Z</time>
  <course>266.03</course>
  <speed>0.0</speed>
  <fix>3d</fix>
</trkpt>
<trkpt lat="40.072842" lon="-105.230575">
  <ele>1586.09</ele>
  <time>2026-08-28T19:06:42Z</time>
  <course>11.45</course>
  <speed>0.0</speed>
  <fix>3d</fix>
</trkpt>
<trkpt lat="40.072842" lon="-105.230575">
  <ele>1586.09</ele>
  <time>2026-08-28T19:06:42Z</time>
  <course>266.03</course>
  <speed>0.0</speed>
  <fix>3d</fix>
</trkpt>
<trkpt lat="40.072842" lon="-105.230575">
  <ele>1586.09</ele>
  <time>2026-08-28T19:06:42Z</time>
  <course>11.53</course>
  <speed>0.0</speed>
  <fix>3d</fix>
</trkpt>
<trkpt lat="40.072842" lon="-105.230575">
  <ele>1586.09</ele>
  <time>2026-08-28T19:06:42Z</time>
  <course>266.03</course>
  <speed>0.0</speed>
  <fix>3d</fix>
</trkpt>
<trkpt lat="40.072842" lon="-105.230575">
  <ele>1586.09</ele>
  <time>2026-08-28T19:06:42Z</time>
  <course>11.59</course>
  <speed>0.0</speed>
  <fix>3d</fix>
</trkpt>
<trkpt lat="40.072842" lon="-105.230575">
  <ele>1586.09</ele>
  <time>2026-08-28T19:06:42Z</time>
  <course>266.03</course>
  <speed>0.0</speed>
  <fix>3d</fix>
</trkpt>
<trkpt lat="40.072842" lon="-105.230575">
  <ele>1586.09</ele>
  <time>2026-08-28T19:06:42Z</time>
  <course>11.65</course>
  <speed>0.0</speed>
  <fix>3d</fix>
</trkpt>
<trkpt lat="40.072842" lon="-105.230575">
  <ele>1586.09</ele>
  <time>2026-08-28T19:06:42Z</time>
  <course>266.03</course>
  <speed>0.0</speed>
  <fix>3d</fix>
</trkpt>
<trkpt lat="40.072842" lon="-105.230575">
  <ele>1586.09</ele>
  <time>2026-08-28T19:06:42Z</time>
  <course>11.71</course>
  <speed>0.0</speed>
  <fix>3d</fix>
</trkpt>
<trkpt lat="40.072842" lon="-105.230575">
  <ele>1586.09</ele>
  <time>2026-08-28T19:06:42Z</time>
  <course>266.03</course>
  <speed>0.0</speed>
  <fix>3d</fix>
</trkpt>
<trkpt lat="40.072842" lon="-105.230575">
  <ele>1586.09</ele>
  <time>2026-08-28T19:06:42Z</time>
  <course>11.76</course>
  <speed>0.0</speed>
  <fix>3d</fix>
</trkpt>
<trkpt lat="40.072842" lon="-105.230575">
  <ele>1586.09</ele>
  <time>2026-08-28T19:06:42Z</time>
  <course>266.03</course>
  <speed>0.0</speed>
  <fix>3d</fix>
</trkpt>
<trkpt lat="40.072842" lon="-105.230575">
  <ele>1586.09</ele>
  <time>2026-08-28T19:06:42Z</time>
  <course>11.81</course>
  <speed>0.0</speed>
  <fix>3d</fix>
</trkpt>
<trkpt lat="40.072842" lon="-105.230575">
  <ele>1586.09</ele>
  <time>2026-08-28T19:06:42Z</time>
  <course>266.03</course>
  <speed>0.0</speed>
  <fix>3d</fix>
</trkpt>
<trkpt lat="40.072842" lon="-105.230575">
  <ele>1586.09</ele>
  <time>2026-08-28T19:06:42Z</time>
  <course>11.85</course>
  <speed>0.0</speed>
  <fix>3d</fix>
</trkpt>
<trkpt lat="40.072842" lon="-105.230575">
  <ele>1586.09</ele>
  <time>2026-08-28T19:06:42Z</time>
  <course>266.03</course>
  <speed>0.0</speed>
  <fix>3d</fix>
</trkpt>
<trkpt lat="40.072842" lon="-105.230575">
  <ele>1586.09</ele>
  <time>2026-08-28T19:06:42Z</time>
  <course>11.88</course>
  <speed>0.0</speed>
  <fix>3d</fix>
</trkpt>
<trkpt lat="40.072842" lon="-105.230575">
  <ele>1586.09</ele>
  <time>2026-08-28T19:06:42Z</time>
  <course>266.03</course>
  <speed>0.0</speed>
  <fix>3d</fix>
</trkpt>
<trkpt lat="40.072842" lon="-105.230575">
  <ele>1586.09</ele>
  <time>2026-08-28T19:06:42Z</time>
  <course>11.92</course>
  <speed>0.0</speed>
  <fix>3d</fix>
</trkpt>
<trkpt lat="40.072842" lon="-105.230575">
  <ele>1586.09</ele>
  <time>2026-08-28T19:06:42Z</time>
  <course>266.03</course>
  <speed>0.0</speed>
  <fix>3d</fix>
</trkpt>
<trkpt lat="40.072842" lon="-105.230575">
  <ele>1586.09</ele>
  <time>2026-08-28T19:06:42Z</time>
  <course>11.95</course>
  <speed>0.0</speed>
  <fix>3d</fix>
</trkpt>
<trkpt lat="40.072842" lon="-105.230575">
  <ele>1586.09</ele>
  <time>2026-08-28T19:06:42Z</time>
  <course>266.03</course>
  <speed>0.0</speed>
  <fix>3d</fix>
</trkpt>
<trkpt lat="40.072842" lon="-105.230575">
  <ele>1586.09</ele>
  <time>2026-08-28T19:06:42Z</time>
  <course>11.97</course>
  <speed>0.0</speed>
  <fix>3d</fix>
</trkpt>
<trkpt lat="40.072842" lon="-105.230575">
  <ele>1586.09</ele>
  <time>2026-08-28T19:06:42Z</time>
  <course>266.03</course>
  <speed>0.0</speed>
  <fix>3d</fix>
</trkpt>
<trkpt lat="40.072842" lon="-105.230575">
  <ele>1586.09</ele>
  <time>2026-08-28T19:06:42Z</time>
  <course>12.0</course>
  <speed>0.0</speed>
  <fix>3d</fix>
</trkpt>
<trkpt lat="40.072842" lon="-105.230575">
  <ele>1586.09</ele>
  <time>2026-08-28T19:06:42Z</time>
  <course>266.03</course>
  <speed>0.0</speed>
  <fix>3d</fix>
</trkpt>
<trkpt lat="40.072842" lon="-105.230575">
  <ele>1586.09</ele>
  <time>2026-08-28T19:06:42Z</time>
  <course>12.02</course>
  <speed>0.0</speed>
  <fix>3d</fix>
</trkpt>
<trkpt lat="40.072842" lon="-105.230575">
  <ele>1586.09</ele>
  <time>2026-08-28T19:06:42Z</time>
  <course>266.03</course>
  <speed>0.0</speed>
  <fix>3d</fix>
</trkpt>
<trkpt lat="40.072842" lon="-105.230575">
  <ele>1586.09</ele>
  <time>2026-08-28T19:06:42Z</time>
  <course>12.04</course>
  <speed>0.0</speed>
  <fix>3d</fix>
</trkpt>
<trkpt lat="40.072842" lon="-105.230575">
  <ele>1586.09</ele>
  <time>2026-08-28T19:06:42Z</time>
  <course>266.03</course>
  <speed>0.0</speed>
  <fix>3d</fix>
</trkpt>
<trkpt lat="40.072842" lon="-105.230575">
  <ele>1586.09</ele>
  <time>2026-08-28T19:06:42Z</time>
  <course>12.05</course>
  <speed>0.0</speed>
  <fix>3d</fix>
</trkpt>
<trkpt lat="40.072842" lon="-105.230575">
  <ele>1586.09</ele>
  <time>2026-08-28T19:06:42Z</time>
  <course>266.03</course>
  <speed>0.0</speed>
  <fix>3d</fix>
</trkpt>
<trkpt lat="40.072842" lon="-105.230575">
  <ele>1586.09</ele>
  <time>2026-08-28T19:06:42Z</time>
  <course>12.07</course>
  <speed>0.0</speed>
  <fix>3d</fix>
</trkpt>
<trkpt lat="40.072842" lon="-105.230575">
  <ele>1586.09</ele>
  <time>2026-08-28T19:06:42Z</time>
  <course>266.03</course>
  <speed>0.0</speed>
  <fix>3d</fix>
</trkpt>
<trkpt lat="40.072842" lon="-105.230575">
  <ele>1586.09</ele>
  <time>2026-08-28T19:06:42Z</time>
  <course>12.08</course>
  <speed>0.0</speed>
  <fix>3d</fix>
</trkpt>
<trkpt lat="40.072842" lon="-105.230575">
  <ele>1586.09</ele>
  <time>2026-08-28T19:06:42Z</time>
  <course>266.03</course>
  <speed>0.0</speed>
  <fix>3d</fix>
</trkpt>
<trkpt lat="40.072842" lon="-105.230575">
  <ele>1586.09</ele>
  <time>2026-08-28T19:06:42Z</time>
  <course>12.09</course>
  <speed>0.0</speed>
  <fix>3d</fix>
</trkpt>
<trkpt lat="40.072842" lon="-105.230575">
  <ele>1586.09</ele>
  <time>2026-08-28T19:06:42Z</time>
  <course>266.03</course>
  <speed>0.0</speed>
  <fix>3d</fix>
</trkpt>
<trkpt lat="40.072842" lon="-105.230575">
  <ele>1586.09</ele>
  <time>2026-08-28T19:06:42Z</time>
  <course>12.1</course>
  <speed>0.0</speed>
  <fix>3d</fix>
</trkpt>
<trkpt lat="40.072842" lon="-105.230575">
  <ele>1586.09</ele>
  <time>2026-08-28T19:06:42Z</time>
  <course>266.03</course>
  <speed>0.0</speed>
  <fix>3d</fix>
</trkpt>
<trkpt lat="40.072842" lon="-105.230575">
  <ele>1586.09</ele>
  <time>2026-08-28T19:06:42Z</time>
  <course>12.1</course>
  <speed>0.0</speed>
  <fix>3d</fix>
</trkpt>
<trkpt lat="40.072842" lon="-105.230575">
  <ele>1586.09</ele>
  <time>2026-08-28T19:06:42Z</time>
  <course>266.03</course>
  <speed>0.0</speed>
  <fix>3d</fix>
</trkpt>
<trkpt lat="40.072842" lon="-105.230575">
  <ele>1586.09</ele>
  <time>2026-08-28T19:06:42Z</time>
  <course>12.11</course>
  <speed>0.0</speed>
  <fix>3d</fix>
</trkpt>
<trkpt lat="40.072842" lon="-105.230575">
  <ele>1586.09</ele>
  <time>2026-08-28T19:06:42Z</time>
  <course>266.03</course>
  <speed>0.0</speed>
  <fix>3d</fix>
</trkpt>
<trkpt lat="40.072842" lon="-105.230575">
  <ele>1586.09</ele>
  <time>2026-08-28T19:06:42Z</time>
  <course>12.12</course>
  <speed>0.0</speed>
  <fix>3d</fix>
</trkpt>
<trkpt lat="40.072842" lon="-105.230575">
  <ele>1586.09</ele>
  <time>2026-08-28T19:06:42Z</time>
  <course>266.03</course>
  <speed>0.0</speed>
  <fix>3d</fix>
</trkpt>
<trkpt lat="40.072842" lon="-105.230575">
  <ele>1586.09</ele>
  <time>2026-08-28T19:06:42Z</time>
  <course>12.12</course>
  <speed>0.0</speed>
  <fix>3d</fix>
</trkpt>
<trkpt lat="40.072842" lon="-105.230575">
  <ele>1586.09</ele>
  <time>2026-08-28T19:06:42Z</time>
  <course>266.03</course>
  <speed>0.0</speed>
  <fix>3d</fix>
</trkpt>
<trkpt lat="40.072842" lon="-105.230575">
  <ele>1586.09</ele>
  <time>2026-08-28T19:06:42Z</time>
  <course>12.12</course>
  <speed>0.0</speed>
  <fix>3d</fix>
</trkpt>
<trkpt lat="40.072842" lon="-105.230575">
  <ele>1586.09</ele>
  <time>2026-08-28T19:06:42Z</time>
  <course>266.03</course>
  <speed>0.0</speed>
  <fix>3d</fix>
</trkpt>
<trkpt lat="40.072842" lon="-105.230575">
  <ele>1586.09</ele>
  <time>2026-08-28T19:06:42Z</time>
  <course>12.13</course>
  <speed>0.0</speed>
  <fix>3d</fix>
</trkpt>
<trkpt lat="40.072842" lon="-105.230575">
  <ele>1586.09</ele>
  <time>2026-08-28T19:06:42Z</time>
  <course>266.03</course>
  <speed>0.0</speed>
  <fix>3d</fix>
</trkpt>
<trkpt lat="40.072842" lon="-105.230575">
  <ele>1586.09</ele>
  <time>2026-08-28T19:06:42Z</time>
  <course>12.13</course>
  <speed>0.0</speed>
  <fix>3d</fix>
</trkpt>
<trkpt lat="40.072842" lon="-105.230575">
  <ele>1586.09</ele>
  <time>2026-08-28T19:06:42Z</time>
  <course>266.03</course>
  <speed>0.0</speed>
  <fix>3d</fix>
</trkpt>
<trkpt lat="40.072842" lon="-105.230575">
  <ele>1586.09</ele>
  <time>2026-08-28T19:06:42Z</time>
  <course>12.13</course>
  <speed>0.0</speed>
  <fix>3d</fix>
</trkpt>
<trkpt lat="40.072842" lon="-105.230575">
  <ele>1586.09</ele>
  <time>2026-08-28T19:06:42Z</time>
  <course>266.03</course>
  <speed>0.0</speed>
  <fix>3d</fix>
</trkpt>
<trkpt lat="40.072842" lon="-105.230575">
  <ele>1586.09</ele>
  <time>2026-08-28T19:06:42Z</time>
  <course>12.12</course>
  <speed>0.01</speed>
  <fix>3d</fix>
</trkpt>
<trkpt lat="40.072842" lon="-105.230575">
  <ele>1586.09</ele>
  <time>2026-08-28T19:06:42Z</time>
  <course>266.03</course>
  <speed>0.0</speed>
  <fix>3d</fix>
</trkpt>
<trkpt lat="40.072842" lon="-105.230575">
  <ele>1586.09</ele>
  <time>2026-08-28T19:06:42Z</time>
  <course>12.12</course>
  <speed>0.01</speed>
  <fix>3d</fix>
</trkpt>
<trkpt lat="40.072842" lon="-105.230575">
  <ele>1586.09</ele>
  <time>2026-08-28T19:06:42Z</time>
  <course>266.03</course>
  <speed>0.0</speed>
  <fix>3d</fix>
</trkpt>
<trkpt lat="40.072842" lon="-105.230575">
  <ele>1586.09</ele>
  <time>2026-08-28T19:06:42Z</time>
  <course>12.12</course>
  <speed>0.01</speed>
  <fix>3d</fix>
</trkpt>
<trkpt lat="40.072842" lon="-105.230575">
  <ele>1586.09</ele>
  <time>2026-08-28T19:06:42Z</time>
  <course>266.03</course>
  <speed>0.0</speed>
  <fix>3d</fix>
</trkpt>
<trkpt lat="40.072842" lon="-105.230575">
  <ele>1586.09</ele>
  <time>2026-08-28T19:06:42Z</time>
  <course>12.12</course>
  <speed>0.01</speed>
  <fix>3d</fix>
</trkpt>
<trkpt lat="40.072842" lon="-105.230575">
  <ele>1586.09</ele>
  <time>2026-08-28T19:06:42Z</time>
  <course>266.03</course>
  <speed>0.0</speed>
  <fix>3d</fix>
</trkpt>
<trkpt lat="40.072842" lon="-105.230575">
  <ele>1586.09</ele>
  <time>2026-08-28T19:06:42Z</time>
  <course>12.11</course>
  <speed>0.01</speed>
  <fix>3d</fix>
</trkpt>
<trkpt lat="40.072842" lon="-105.230575">
  <ele>1586.09</ele>
  <time>2026-08-28T19:06:42Z</time>
  <course>266.03</course>
  <speed>0.0</speed>
  <fix>3d</fix>
</trkpt>
<trkpt lat="40.072842" lon="-105.230575">
  <ele>1586.09</ele>
  <time>2026-08-28T19:06:42Z</time>
  <course>12.11</course>
  <speed>0.01</speed>
  <fix>3d</fix>
</trkpt>
<trkpt lat="40.072842" lon="-105.230575">
  <ele>1586.09</ele>
  <time>2026-08-28T19:06:42Z</time>
  <course>266.03</course>
  <speed>0.0</speed>
  <fix>3d</fix>
</trkpt>
<trkpt lat="40.072842" lon="-105.230575">
  <ele>1586.09</ele>
  <time>2026-08-28T19:06:42Z</time>
  <course>12.1</course>
  <speed>0.01</speed>
  <fix>3d</fix>
</trkpt>
<trkpt lat="40.072842" lon="-105.230575">
  <ele>1586.09</ele>
  <time>2026-08-28T19:06:42Z</time>
  <course>266.03</course>
  <speed>0.0</speed>
  <fix>3d</fix>
</trkpt>
<trkpt lat="40.072842" lon="-105.230575">
  <ele>1586.09</ele>
  <time>2026-08-28T19:06:42Z</time>
  <course>12.1</course>
  <speed>0.01</speed>
  <fix>3d</fix>
</trkpt>
<trkpt lat="40.072842" lon="-105.230575">
  <ele>1586.09</ele>
  <time>2026-08-28T19:06:42Z</time>
  <course>266.03</course>
  <speed>0.0</speed>
  <fix>3d</fix>
</trkpt>
<trkpt lat="40.072842" lon="-105.230575">
  <ele>1586.09</ele>
  <time>2026-08-28T19:06:42Z</time>
  <course>12.09</course>
  <speed>0.01</speed>
  <fix>3d</fix>
</trkpt>
<trkpt lat="40.072842" lon="-105.230575">
  <ele>1586.09</ele>
  <time>2026-08-28T19:06:42Z</time>
  <course>266.03</course>
  <speed>0.0</speed>
  <fix>3d</fix>
</trkpt>
<trkpt lat="40.072842" lon="-105.230575">
  <ele>1586.09</ele>
  <time>2026-08-28T19:06:42Z</time>
  <course>12.09</course>
  <speed>0.01</speed>
  <fix>3d</fix>
</trkpt>
<trkpt lat="40.072842" lon="-105.230575">
  <ele>1586.09</ele>
  <time>2026-08-28T19:06:42Z</time>
  <course>266.03</course>
  <speed>0.0</speed>
  <fix>3d</fix>
</trkpt>
<trkpt lat="40.072842" lon="-105.230575">
  <ele>1586.09</ele>
  <time>2026-08-28T19:06:42Z</time>
  <course>12.08</course>
  <speed>0.01</speed>
  <fix>3d</fix>
</trkpt>
<trkpt lat="40.072842" lon="-105.230575">
  <ele>1586.09</ele>
  <time>2026-08-28T19:06:42Z</time>
  <course>266.03</course>
  <speed>0.0</speed>
  <fix>3d</fix>
</trkpt>
<trkpt lat="40.072842" lon="-105.230575">
  <ele>1586.09</ele>
  <time>2026-08-28T19:06:42Z</time>
  <course>12.08</course>
  <speed>0.01414213562373095</speed>
  <fix>3d</fix>
</trkpt>
<trkpt lat="40.072842" lon="-105.230575">
  <ele>1586.09</ele>
  <time>2026-08-28T19:06:42Z</time>
  <course>266.03</course>
  <speed>0.0</speed>
  <fix>3d</fix>
</trkpt>
<trkpt lat="40.072842" lon="-105.230575">
  <ele>1586.09</ele>
  <time>2026-08-28T19:06:42Z</time>
  <course>12.07</course>
  <speed>0.01414213562373095</speed>
  <fix>3d</fix>
</trkpt>
<trkpt lat="40.072842" lon="-105.230575">
  <ele>1586.09</ele>
  <time>2026-08-28T19:06:42Z</time>
  <course>266.03</course>
  <speed>0.0</speed>
  <fix>3d</fix>
</trkpt>
<trkpt lat="40.072842" lon="-105.230575">
  <ele>1586.09</ele>
  <time>2026-08-28T19:06:42Z</time>
  <course>12.06</course>
  <speed>0.01414213562373095</speed>
  <fix>3d</fix>
</trkpt>
<trkpt lat="40.072842" lon="-105.230575">
  <ele>1586.09</ele>
  <time>2026-08-28T19:06:42Z</time>
  <course>266.03</course>
  <speed>0.0</speed>
  <fix>3d</fix>
</trkpt>
<trkpt lat="40.072842" lon="-105.230575">
  <ele>1586.09</ele>
  <time>2026-08-28T19:06:42Z</time>
  <course>12.05</course>
  <speed>0.01414213562373095</speed>
  <fix>3d</fix>
</trkpt>
<trkpt lat="40.072842" lon="-105.230575">
  <ele>1586.09</ele>
  <time>2026-08-28T19:06:42Z</time>
  <course>266.03</course>
  <speed>0.0</speed>
  <fix>3d</fix>
</trkpt>
<trkpt lat="40.072842" lon="-105.230575">
  <ele>1586.09</ele>
  <time>2026-08-28T19:06:42Z</time>
  <course>12.05</course>
  <speed>0.01414213562373095</speed>
  <fix>3d</fix>
</trkpt>
<trkpt lat="40.072842" lon="-105.230575">
  <ele>1586.09</ele>
  <time>2026-08-28T19:06:42Z</time>
  <course>266.03</course>
  <speed>0.0</speed>
  <fix>3d</fix>
</trkpt>
<trkpt lat="40.072842" lon="-105.230575">
  <ele>1586.09</ele>
  <time>2026-08-28T19:06:42Z</time>
  <course>12.04</course>
  <speed>0.01414213562373095</speed>
  <fix>3d</fix>
</trkpt>
<trkpt lat="40.072842" lon="-105.230575">
  <ele>1586.09</ele>
  <time>2026-08-28T19:06:42Z</time>
  <course>266.03</course>
  <speed>0.0</speed>
  <fix>3d</fix>
</trkpt>
<trkpt lat="40.072842" lon="-105.230575">
  <ele>1586.09</ele>
  <time>2026-08-28T19:06:42Z</time>
  <course>12.03</course>
  <speed>0.01414213562373095</speed>
  <fix>3d</fix>
</trkpt>
<trkpt lat="40.072842" lon="-105.230575">
  <ele>1586.09</ele>
  <time>2026-08-28T19:06:42Z</time>
  <course>266.03</course>
  <speed>0.0</speed>
  <fix>3d</fix>
</trkpt>
<trkpt lat="40.072842" lon="-105.230575">
  <ele>1586.09</ele>
  <time>2026-08-28T19:06:42Z</time>
  <course>12.03</course>
  <speed>0.01414213562373095</speed>
  <fix>3d</fix>
</trkpt>
<trkpt lat="40.072842" lon="-105.230575">
  <ele>1586.09</ele>
  <time>2026-08-28T19:06:42Z</time>
  <course>266.03</course>
  <speed>0.0</speed>
  <fix>3d</fix>
</trkpt>
<trkpt lat="40.072842" lon="-105.230575">
  <ele>1586.09</ele>
  <time>2026-08-28T19:06:42Z</time>
  <course>12.02</course>
  <speed>0.01414213562373095</speed>
  <fix>3d</fix>
</trkpt>
<trkpt lat="40.072842" lon="-105.230575">
  <ele>1586.09</ele>
  <time>2026-08-28T19:06:42Z</time>
  <course>266.03</course>
  <speed>0.0</speed>
  <fix>3d</fix>
</trkpt>
<trkpt lat="40.072842" lon="-105.230575">
  <ele>1586.09</ele>
  <time>2026-08-28T19:06:42Z</time>
  <course>12.01</course>
  <speed>0.01414213562373095</speed>
  <fix>3d</fix>
</trkpt>
<trkpt lat="40.072842" lon="-105.230575">
  <ele>1586.09</ele>
  <time>2026-08-28T19:06:42Z</time>
  <course>266.03</course>
  <speed>0.0</speed>
  <fix>3d</fix>
</trkpt>
<trkpt lat="40.072842" lon="-105.230575">
  <ele>1586.09</ele>
  <time>2026-08-28T19:06:42Z</time>
  <course>12.01</course>
  <speed>0.01414213562373095</speed>
  <fix>3d</fix>
</trkpt>
<trkpt lat="40.072842" lon="-105.230575">
  <ele>1586.09</ele>
  <time>2026-08-28T19:06:42Z</time>
  <course>266.03</course>
  <speed>0.0</speed>
  <fix>3d</fix>
</trkpt>
<trkpt lat="40.072842" lon="-105.230575">
  <ele>1586.09</ele>
  <time>2026-08-28T19:06:42Z</time>
  <course>12.0</course>
  <speed>0.01414213562373095</speed>
  <fix>3d</fix>
</trkpt>
<trkpt lat="40.072842" lon="-105.230575">
  <ele>1586.09</ele>
  <time>2026-08-28T19:06:42Z</time>
  <course>266.03</course>
  <speed>0.0</speed>
  <fix>3d</fix>
</trkpt>
<trkpt lat="40.072842" lon="-105.230575">
  <ele>1586.09</ele>
  <time>2026-08-28T19:06:42Z</time>
  <course>11.99</course>
  <speed>0.01414213562373095</speed>
  <fix>3d</fix>
</trkpt>
<trkpt lat="40.072842" lon="-105.230575">
  <ele>1586.09</ele>
  <time>2026-08-28T19:06:42Z</time>
  <course>266.03</course>
  <speed>0.0</speed>
  <fix>3d</fix>
</trkpt>
<trkpt lat="40.072842" lon="-105.230575">
  <ele>1586.09</ele>
  <time>2026-08-28T19:06:42Z</time>
  <course>11.98</course>
  <speed>0.01414213562373095</speed>
  <fix>3d</fix>
</trkpt>
<trkpt lat="40.072842" lon="-105.230575">
  <ele>1586.09</ele>
  <time>2026-08-28T19:06:42Z</time>
  <course>266.03</course>
  <speed>0.0</speed>
  <fix>3d</fix>
</trkpt>
<trkpt lat="40.072842" lon="-105.230575">
  <ele>1586.09</ele>
  <time>2026-08-28T19:06:42Z</time>
  <course>11.98</course>
  <speed>0.01414213562373095</speed>
  <fix>3d</fix>
</trkpt>
<trkpt lat="40.072842" lon="-105.230575">
  <ele>1586.09</ele>
  <time>2026-08-28T19:06:42Z</time>
  <course>266.03</course>
  <speed>0.0</speed>
  <fix>3d</fix>
</trkpt>
<trkpt lat="40.072842" lon="-105.230575">
  <ele>1586.09</ele>
  <time>2026-08-28T19:06:42Z</time>
  <course>11.97</course>
  <speed>0.022360679774997897</speed>
  <fix>3d</fix>
</trkpt>
<trkpt lat="40.072842" lon="-105.230575">
  <ele>1586.09</ele>
  <time>2026-08-28T19:06:42Z</time>
  <course>266.03</course>
  <speed>0.0</speed>
  <fix>3d</fix>
</trkpt>
<trkpt lat="40.072842" lon="-105.230575">
  <ele>1586.09</ele>
  <time>2026-08-28T19:06:42Z</time>
  <course>11.96</course>
  <speed>0.022360679774997897</speed>
  <fix>3d</fix>
</trkpt>
<trkpt lat="40.072842" lon="-105.230575">
  <ele>1586.09</ele>
  <time>2026-08-28T19:06:42Z</time>
  <course>266.03</course>
  <speed>0.0</speed>
  <fix>3d</fix>
</trkpt>
<trkpt lat="40.072842" lon="-105.230575">
  <ele>1586.09</ele>
  <time>2026-08-28T19:06:42Z</time>
  <course>11.95</course>
  <speed>0.022360679774997897</speed>
  <fix>3d</fix>
</trkpt>
<trkpt lat="40.072842" lon="-105.230575">
  <ele>1586.09</ele>
  <time>2026-08-28T19:06:42Z</time>
  <course>266.03</course>
  <speed>0.0</speed>
  <fix>3d</fix>
</trkpt>
<trkpt lat="40.072842" lon="-105.230575">
  <ele>1586.09</ele>
  <time>2026-08-28T19:06:42Z</time>
  <course>11.94</course>
  <speed>0.022360679774997897</speed>
  <fix>3d</fix>
</trkpt>
<trkpt lat="40.072842" lon="-105.230575">
  <ele>1586.09</ele>
  <time>2026-08-28T19:06:42Z</time>
  <course>266.03</course>
  <speed>0.0</speed>
  <fix>3d</fix>
</trkpt>
<trkpt lat="40.072842" lon="-105.230575">
  <ele>1586.09</ele>
  <time>2026-08-28T19:06:42Z</time>
  <course>11.93</course>
  <speed>0.022360679774997897</speed>
  <fix>3d</fix>
</trkpt>
<trkpt lat="40.072842" lon="-105.230575">
  <ele>1586.09</ele>
  <time>2026-08-28T19:06:42Z</time>
  <course>266.03</course>
  <speed>0.0</speed>
  <fix>3d</fix>
</trkpt>
<trkpt lat="40.072842" lon="-105.230575">
  <ele>1586.09</ele>
  <time>2026-08-28T19:06:42Z</time>
  <course>11.92</course>
  <speed>0.022360679774997897</speed>
  <fix>3d</fix>
</trkpt>
<trkpt lat="40.072842" lon="-105.230575">
  <ele>1586.09</ele>
  <time>2026-08-28T19:06:42Z</time>
  <course>266.03</course>
  <speed>0.0</speed>
  <fix>3d</fix>
</trkpt>
<trkpt lat="40.072842" lon="-105.230575">
  <ele>1586.09</ele>
  <time>2026-08-28T19:06:42Z</time>
  <course>11.92</course>
  <speed>0.022360679774997897</speed>
  <fix>3d</fix>
</trkpt>
<trkpt lat="40.072842" lon="-105.230575">
  <ele>1586.09</ele>
  <time>2026-08-28T19:06:42Z</time>
  <course>266.03</course>
  <speed>0.0</speed>
  <fix>3d</fix>
</trkpt>
<trkpt lat="40.072842" lon="-105.230575">
  <ele>1586.09</ele>
  <time>2026-08-28T19:06:42Z</time>
  <course>11.91</course>
  <speed>0.022360679774997897</speed>
  <fix>3d</fix>
</trkpt>
<trkpt lat="40.072842" lon="-105.230575">
  <ele>1586.09</ele>
  <time>2026-08-28T19:06:42Z</time>
  <course>266.03</course>
  <speed>0.0</speed>
  <fix>3d</fix>
</trkpt>
<trkpt lat="40.072842" lon="-105.230575">
  <ele>1586.09</ele>
  <time>2026-08-28T19:06:42Z</time>
  <course>11.9</course>
  <speed>0.022360679774997897</speed>
  <fix>3d</fix>
</trkpt>
<trkpt lat="40.072842" lon="-105.230575">
  <ele>1586.09</ele>
  <time>2026-08-28T19:06:42Z</time>
  <course>266.03</course>
  <speed>0.0</speed>
  <fix>3d</fix>
</trkpt>
<trkpt lat="40.072842" lon="-105.230575">
  <ele>1586.09</ele>
  <time>2026-08-28T19:06:42Z</time>
  <course>11.89</course>
  <speed>0.022360679774997897</speed>
  <fix>3d</fix>
</trkpt>
<trkpt lat="40.072842" lon="-105.230575">
  <ele>1586.09</ele>
  <time>2026-08-28T19:06:42Z</time>
  <course>266.03</course>
  <speed>0.0</speed>
  <fix>3d</fix>
</trkpt>
<trkpt lat="40.072842" lon="-105.230575">
  <ele>1586.09</ele>
  <time>2026-08-28T19:06:42Z</time>
  <course>11.88</course>
  <speed>0.022360679774997897</speed>
  <fix>3d</fix>
</trkpt>
<trkpt lat="40.072842" lon="-105.230575">
  <ele>1586.09</ele>
  <time>2026-08-28T19:06:42Z</time>
  <course>266.03</course>
  <speed>0.0</speed>
  <fix>3d</fix>
</trkpt>
<trkpt lat="40.072842" lon="-105.230575">
  <ele>1586.09</ele>
  <time>2026-08-28T19:06:42Z</time>
  <course>11.87</course>
  <speed>0.022360679774997897</speed>
  <fix>3d</fix>
</trkpt>
<trkpt lat="40.072842" lon="-105.230575">
  <ele>1586.09</ele>
  <time>2026-08-28T19:06:42Z</time>
  <course>266.03</course>
  <speed>0.0</speed>
  <fix>3d</fix>
</trkpt>
<trkpt lat="40.072842" lon="-105.230575">
  <ele>1586.09</ele>
  <time>2026-08-28T19:06:42Z</time>
  <course>11.87</course>
  <speed>0.022360679774997897</speed>
  <fix>3d</fix>
</trkpt>
<trkpt lat="40.072842" lon="-105.230575">
  <ele>1586.09</ele>
  <time>2026-08-28T19:06:42Z</time>
  <course>266.03</course>
  <speed>0.0</speed>
  <fix>3d</fix>
</trkpt>
<trkpt lat="40.072842" lon="-105.230575">
  <ele>1586.09</ele>
  <time>2026-08-28T19:06:42Z</time>
  <course>11.86</course>
  <speed>0.022360679774997897</speed>
  <fix>3d</fix>
</trkpt>
<trkpt lat="40.072842" lon="-105.230575">
  <ele>1586.09</ele>
  <time>2026-08-28T19:06:42Z</time>
  <course>266.03</course>
  <speed>0.0</speed>
  <fix>3d</fix>
</trkpt>
<trkpt lat="40.072842" lon="-105.230575">
  <ele>1586.09</ele>
  <time>2026-08-28T19:06:42Z</time>
  <course>11.85</course>
  <speed>0.022360679774997897</speed>
  <fix>3d</fix>
</trkpt>
<trkpt lat="40.072842" lon="-105.230575">
  <ele>1586.09</ele>
  <time>2026-08-28T19:06:42Z</time>
  <course>266.03</course>
  <speed>0.0</speed>
  <fix>3d</fix>
</trkpt>
<trkpt lat="40.072842" lon="-105.230575">
  <ele>1586.09</ele>
  <time>2026-08-28T19:06:42Z</time>
  <course>11.84</course>
  <speed>0.0282842712474619</speed>
  <fix>3d</fix>
</trkpt>
<trkpt lat="40.072842" lon="-105.230575">
  <ele>1586.09</ele>
  <time>2026-08-28T19:06:42Z</time>
  <course>266.03</course>
  <speed>0.0</speed>
  <fix>3d</fix>
</trkpt>
<trkpt lat="40.072842" lon="-105.230575">
  <ele>1586.09</ele>
  <time>2026-08-28T19:06:42Z</time>
  <course>11.83</course>
  <speed>0.0282842712474619</speed>
  <fix>3d</fix>
</trkpt>
<trkpt lat="40.072842" lon="-105.230575">
  <ele>1586.09</ele>
  <time>2026-08-28T19:06:42Z</time>
  <course>266.03</course>
  <speed>0.0</speed>
  <fix>3d</fix>
</trkpt>
<trkpt lat="40.072842" lon="-105.230575">
  <ele>1586.09</ele>
  <time>2026-08-28T19:06:42Z</time>
  <course>11.83</course>
  <speed>0.0282842712474619</speed>
  <fix>3d</fix>
</trkpt>
<trkpt lat="40.072842" lon="-105.230575">
  <ele>1586.09</ele>
  <time>2026-08-28T19:06:42Z</time>
  <course>266.03</course>
  <speed>0.0</speed>
  <fix>3d</fix>
</trkpt>
<trkpt lat="40.072842" lon="-105.230575">
  <ele>1586.09</ele>
  <time>2026-08-28T19:06:42Z</time>
  <course>11.82</course>
  <speed>0.0282842712474619</speed>
  <fix>3d</fix>
</trkpt>
<trkpt lat="40.072842" lon="-105.230575">
  <ele>1586.09</ele>
  <time>2026-08-28T19:06:42Z</time>
  <course>266.03</course>
  <speed>0.0</speed>
  <fix>3d</fix>
</trkpt>
<trkpt lat="40.072842" lon="-105.230575">
  <ele>1586.09</ele>
  <time>2026-08-28T19:06:42Z</time>
  <course>11.81</course>
  <speed>0.0282842712474619</speed>
  <fix>3d</fix>
</trkpt>
<trkpt lat="40.072842" lon="-105.230575">
  <ele>1586.09</ele>
  <time>2026-08-28T19:06:42Z</time>
  <course>266.03</course>
  <speed>0.0</speed>
  <fix>3d</fix>
</trkpt>
<trkpt lat="40.072842" lon="-105.230575">
  <ele>1586.09</ele>
  <time>2026-08-28T19:06:42Z</time>
  <course>11.8</course>
  <speed>0.0282842712474619</speed>
  <fix>3d</fix>
</trkpt>
<trkpt lat="40.072842" lon="-105.230575">
  <ele>1586.09</ele>
  <time>2026-08-28T19:06:42Z</time>
  <course>266.03</course>
  <speed>0.0</speed>
  <fix>3d</fix>
</trkpt>
<trkpt lat="40.072842" lon="-105.230575">
  <ele>1586.09</ele>
  <time>2026-08-28T19:06:42Z</time>
  <course>11.79</course>
  <speed>0.0282842712474619</speed>
  <fix>3d</fix>
</trkpt>
<trkpt lat="40.072842" lon="-105.230575">
  <ele>1586.09</ele>
  <time>2026-08-28T19:06:42Z</time>
  <course>266.03</course>
  <speed>0.0</speed>
  <fix>3d</fix>
</trkpt>
<trkpt lat="40.072842" lon="-105.230575">
  <ele>1586.09</ele>
  <time>2026-08-28T19:06:42Z</time>
  <course>11.79</course>
  <speed>0.0282842712474619</speed>
  <fix>3d</fix>
</trkpt>
<trkpt lat="40.072842" lon="-105.230575">
  <ele>1586.09</ele>
  <time>2026-08-28T19:06:42Z</time>
  <course>266.03</course>
  <speed>0.0</speed>
  <fix>3d</fix>
</trkpt>
<trkpt lat="40.072842" lon="-105.230575">
  <ele>1586.09</ele>
  <time>2026-08-28T19:06:42Z</time>
  <course>11.78</course>
  <speed>0.0282842712474619</speed>
  <fix>3d</fix>
</trkpt>
<trkpt lat="40.072842" lon="-105.230575">
  <ele>1586.09</ele>
  <time>2026-08-28T19:06:42Z</time>
  <course>266.03</course>
  <speed>0.0</speed>
  <fix>3d</fix>
</trkpt>
<trkpt lat="40.072842" lon="-105.230575">
  <ele>1586.09</ele>
  <time>2026-08-28T19:06:42Z</time>
  <course>11.77</course>
  <speed>0.0282842712474619</speed>
  <fix>3d</fix>
</trkpt>
<trkpt lat="40.072842" lon="-105.230575">
  <ele>1586.09</ele>
  <time>2026-08-28T19:06:42Z</time>
  <course>266.03</course>
  <speed>0.0</speed>
  <fix>3d</fix>
</trkpt>
<trkpt lat="40.072842" lon="-105.230575">
  <ele>1586.09</ele>
  <time>2026-08-28T19:06:42Z</time>
  <course>11.77</course>
  <speed>0.0282842712474619</speed>
  <fix>3d</fix>
</trkpt>
<trkpt lat="40.072842" lon="-105.230575">
  <ele>1586.09</ele>
  <time>2026-08-28T19:06:42Z</time>
  <course>266.03</course>
  <speed>0.0</speed>
  <fix>3d</fix>
</trkpt>
<trkpt lat="40.072842" lon="-105.230575">
  <ele>1586.09</ele>
  <time>2026-08-28T19:06:42Z</time>
  <course>11.76</course>
  <speed>0.0282842712474619</speed>
  <fix>3d</fix>
</trkpt>
<trkpt lat="40.072842" lon="-105.230575">
  <ele>1586.09</ele>
  <time>2026-08-28T19:06:42Z</time>
  <course>266.03</course>
  <speed>0.0</speed>
  <fix>3d</fix>
</trkpt>
<trkpt lat="40.072842" lon="-105.230575">
  <ele>1586.09</ele>
  <time>2026-08-28T19:06:42Z</time>
  <course>11.75</course>
  <speed>0.0282842712474619</speed>
  <fix>3d</fix>
</trkpt>
<trkpt lat="40.072842" lon="-105.230575">
  <ele>1586.09</ele>
  <time>2026-08-28T19:06:42Z</time>
  <course>266.03</course>
  <speed>0.0</speed>
  <fix>3d</fix>
</trkpt>
<trkpt lat="40.072842" lon="-105.230575">
  <ele>1586.09</ele>
  <time>2026-08-28T19:06:42Z</time>
  <course>11.74</course>
  <speed>0.03605551275463989</speed>
  <fix>3d</fix>
</trkpt>
<trkpt lat="40.072842" lon="-105.230575">
  <ele>1586.09</ele>
  <time>2026-08-28T19:06:42Z</time>
  <course>266.03</course>
  <speed>0.0</speed>
  <fix>3d</fix>
</trkpt>
<trkpt lat="40.072842" lon="-105.230575">
  <ele>1586.09</ele>
  <time>2026-08-28T19:06:42Z</time>
  <course>11.73</course>
  <speed>0.03605551275463989</speed>
  <fix>3d</fix>
</trkpt>
<trkpt lat="40.072842" lon="-105.230575">
  <ele>1586.09</ele>
  <time>2026-08-28T19:06:42Z</time>
  <course>266.03</course>
  <speed>0.0</speed>
  <fix>3d</fix>
</trkpt>
<trkpt lat="40.072842" lon="-105.230575">
  <ele>1586.09</ele>
  <time>2026-08-28T19:06:42Z</time>
  <course>11.73</course>
  <speed>0.03605551275463989</speed>
  <fix>3d</fix>
</trkpt>
<trkpt lat="40.072842" lon="-105.230575">
  <ele>1586.09</ele>
  <time>2026-08-28T19:06:42Z</time>
  <course>266.03</course>
  <speed>0.0</speed>
  <fix>3d</fix>
</trkpt>
<trkpt lat="40.072842" lon="-105.230575">
  <ele>1586.09</ele>
  <time>2026-08-28T19:06:42Z</time>
  <course>11.72</course>
  <speed>0.03605551275463989</speed>
  <fix>3d</fix>
</trkpt>
<trkpt lat="40.072842" lon="-105.230575">
  <ele>1586.09</ele>
  <time>2026-08-28T19:06:42Z</time>
  <course>266.03</course>
  <speed>0.0</speed>
  <fix>3d</fix>
</trkpt>
<trkpt lat="40.072842" lon="-105.230575">
  <ele>1586.09</ele>
  <time>2026-08-28T19:06:42Z</time>
  <course>11.71</course>
  <speed>0.03605551275463989</speed>
  <fix>3d</fix>
</trkpt>
<trkpt lat="40.072842" lon="-105.230575">
  <ele>1586.09</ele>
  <time>2026-08-28T19:06:42Z</time>
  <course>266.03</course>
  <speed>0.0</speed>
  <fix>3d</fix>
</trkpt>
<trkpt lat="40.072842" lon="-105.230575">
  <ele>1586.09</ele>
  <time>2026-08-28T19:06:42Z</time>
  <course>11.71</course>
  <speed>0.03605551275463989</speed>
  <fix>3d</fix>
</trkpt>
<trkpt lat="40.072842" lon="-105.230575">
  <ele>1586.09</ele>
  <time>2026-08-28T19:06:42Z</time>
  <course>266.03</course>
  <speed>0.0</speed>
  <fix>3d</fix>
</trkpt>
<trkpt lat="40.072842" lon="-105.230575">
  <ele>1586.09</ele>
  <time>2026-08-28T19:06:42Z</time>
  <course>11.7</course>
  <speed>0.03605551275463989</speed>
  <fix>3d</fix>
</trkpt>
<trkpt lat="40.072842" lon="-105.230575">
  <ele>1586.09</ele>
  <time>2026-08-28T19:06:42Z</time>
  <course>266.03</course>
  <speed>0.0</speed>
  <fix>3d</fix>
</trkpt>
<trkpt lat="40.072842" lon="-105.230575">
  <ele>1586.09</ele>
  <time>2026-08-28T19:06:42Z</time>
  <course>11.69</course>
  <speed>0.03605551275463989</speed>
  <fix>3d</fix>
</trkpt>
<trkpt lat="40.072842" lon="-105.230575">
  <ele>1586.09</ele>
  <time>2026-08-28T19:06:42Z</time>
  <course>266.03</course>
  <speed>0.0</speed>
  <fix>3d</fix>
</trkpt>
<trkpt lat="40.072842" lon="-105.230575">
  <ele>1586.09</ele>
  <time>2026-08-28T19:06:42Z</time>
  <course>11.68</course>
  <speed>0.03605551275463989</speed>
  <fix>3d</fix>
</trkpt>
<trkpt lat="40.072842" lon="-105.230575">
  <ele>1586.09</ele>
  <time>2026-08-28T19:06:42Z</time>
  <course>266.03</course>
  <speed>0.0</speed>
  <fix>3d</fix>
</trkpt>
<trkpt lat="40.072842" lon="-105.230575">
  <ele>1586.09</ele>
  <time>2026-08-28T19:06:42Z</time>
  <course>11.68</course>
  <speed>0.03605551275463989</speed>
  <fix>3d</fix>
</trkpt>
<trkpt lat="40.072842" lon="-105.230575">
  <ele>1586.09</ele>
  <time>2026-08-28T19:06:42Z</time>
  <course>266.03</course>
  <speed>0.0</speed>
  <fix>3d</fix>
</trkpt>
<trkpt lat="40.072842" lon="-105.230575">
  <ele>1586.09</ele>
  <time>2026-08-28T19:06:42Z</time>
  <course>11.67</course>
  <speed>0.03605551275463989</speed>
  <fix>3d</fix>
</trkpt>
<trkpt lat="40.072842" lon="-105.230575">
  <ele>1586.09</ele>
  <time>2026-08-28T19:06:42Z</time>
  <course>266.03</course>
  <speed>0.0</speed>
  <fix>3d</fix>
</trkpt>
<trkpt lat="40.072842" lon="-105.230575">
  <ele>1586.09</ele>
  <time>2026-08-28T19:06:42Z</time>
  <course>11.66</course>
  <speed>0.03605551275463989</speed>
  <fix>3d</fix>
</trkpt>
<trkpt lat="40.072842" lon="-105.230575">
  <ele>1586.09</ele>
  <time>2026-08-28T19:06:42Z</time>
  <course>266.03</course>
  <speed>0.0</speed>
  <fix>3d</fix>
</trkpt>
<trkpt lat="40.072842" lon="-105.230575">
  <ele>1586.09</ele>
  <time>2026-08-28T19:06:42Z</time>
  <course>11.65</course>
  <speed>0.03605551275463989</speed>
  <fix>3d</fix>
</trkpt>
<trkpt lat="40.072842" lon="-105.230575">
  <ele>1586.09</ele>
  <time>2026-08-28T19:06:42Z</time>
  <course>266.03</course>
  <speed>0.0</speed>
  <fix>3d</fix>
</trkpt>
<trkpt lat="40.072842" lon="-105.230575">
  <ele>1586.09</ele>
  <time>2026-08-28T19:06:42Z</time>
  <course>11.65</course>
  <speed>0.03605551275463989</speed>
  <fix>3d</fix>
</trkpt>
<trkpt lat="40.072842" lon="-105.230575">
  <ele>1586.09</ele>
  <time>2026-08-28T19:06:42Z</time>
  <course>266.03</course>
  <speed>0.0</speed>
  <fix>3d</fix>
</trkpt>
<trkpt lat="40.072842" lon="-105.230575">
  <ele>1586.09</ele>
  <time>2026-08-28T19:06:42Z</time>
  <course>11.64</course>
  <speed>0.03605551275463989</speed>
  <fix>3d</fix>
</trkpt>
<trkpt lat="40.072842" lon="-105.230575">
  <ele>1586.09</ele>
  <time>2026-08-28T19:06:42Z</time>
  <course>266.03</course>
  <speed>0.0</speed>
  <fix>3d</fix>
</trkpt>
<trkpt lat="40.072842" lon="-105.230575">
  <ele>1586.09</ele>
  <time>2026-08-28T19:06:42Z</time>
  <course>11.63</course>
  <speed>0.03605551275463989</speed>
  <fix>3d</fix>
</trkpt>
<trkpt lat="40.072842" lon="-105.230575">
  <ele>1586.09</ele>
  <time>2026-08-28T19:06:42Z</time>
  <course>266.03</course>
  <speed>0.0</speed>
  <fix>3d</fix>
</trkpt>
<trkpt lat="40.072842" lon="-105.230575">
  <ele>1586.09</ele>
  <time>2026-08-28T19:06:42Z</time>
  <course>11.63</course>
  <speed>0.03605551275463989</speed>
  <fix>3d</fix>
</trkpt>
<trkpt lat="40.072842" lon="-105.230575">
  <ele>1586.09</ele>
  <time>2026-08-28T19:06:42Z</time>
  <course>266.03</course>
  <speed>0.0</speed>
  <fix>3d</fix>
</trkpt>
<trkpt lat="40.072842" lon="-105.230575">
  <ele>1586.09</ele>
  <time>2026-08-28T19:06:42Z</time>
  <course>11.62</course>
  <speed>0.03605551275463989</speed>
  <fix>3d</fix>
</trkpt>
<trkpt lat="40.072842" lon="-105.230575">
  <ele>1586.09</ele>
  <time>2026-08-28T19:06:42Z</time>
  <course>266.03</course>
  <speed>0.0</speed>
  <fix>3d</fix>
</trkpt>
<trkpt lat="40.072842" lon="-105.230575">
  <ele>1586.09</ele>
  <time>2026-08-28T19:06:42Z</time>
  <course>11.61</course>
  <speed>0.03605551275463989</speed>
  <fix>3d</fix>
</trkpt>
<trkpt lat="40.072842" lon="-105.230575">
  <ele>1586.09</ele>
  <time>2026-08-28T19:06:42Z</time>
  <course>266.03</course>
  <speed>0.0</speed>
  <fix>3d</fix>
</trkpt>
<trkpt lat="40.072842" lon="-105.230575">
  <ele>1586.09</ele>
  <time>2026-08-28T19:06:42Z</time>
  <course>11.61</course>
  <speed>0.03605551275463989</speed>
  <fix>3d</fix>
</trkpt>
<trkpt lat="40.072842" lon="-105.230575">
  <ele>1586.09</ele>
  <time>2026-08-28T19:06:42Z</time>
  <course>266.03</course>
  <speed>0.0</speed>
  <fix>3d</fix>
</trkpt>
<trkpt lat="40.072842" lon="-105.230575">
  <ele>1586.09</ele>
  <time>2026-08-28T19:06:42Z</time>
  <course>11.6</course>
  <speed>0.03605551275463989</speed>
  <fix>3d</fix>
</trkpt>
<trkpt lat="40.072842" lon="-105.230575">
  <ele>1586.09</ele>
  <time>2026-08-28T19:06:42Z</time>
  <course>266.03</course>
  <speed>0.0</speed>
  <fix>3d</fix>
</trkpt>
<trkpt lat="40.072842" lon="-105.230575">
  <ele>1586.09</ele>
  <time>2026-08-28T19:06:42Z</time>
  <course>11.6</course>
  <speed>0.03605551275463989</speed>
  <fix>3d</fix>
</trkpt>
<trkpt lat="40.072842" lon="-105.230575">
  <ele>1586.09</ele>
  <time>2026-08-28T19:06:42Z</time>
  <course>266.03</course>
  <speed>0.0</speed>
  <fix>3d</fix>
</trkpt>
<trkpt lat="40.072842" lon="-105.230575">
  <ele>1586.09</ele>
  <time>2026-08-28T19:06:42Z</time>
  <course>11.59</course>
  <speed>0.03605551275463989</speed>
  <fix>3d</fix>
</trkpt>
<trkpt lat="40.072842" lon="-105.230575">
  <ele>1586.09</ele>
  <time>2026-08-28T19:06:42Z</time>
  <course>266.03</course>
  <speed>0.0</speed>
  <fix>3d</fix>
</trkpt>
<trkpt lat="40.072842" lon="-105.230575">
  <ele>1586.09</ele>
  <time>2026-08-28T19:06:42Z</time>
  <course>11.58</course>
  <speed>0.03605551275463989</speed>
  <fix>3d</fix>
</trkpt>
<trkpt lat="40.072842" lon="-105.230575">
  <ele>1586.09</ele>
  <time>2026-08-28T19:06:42Z</time>
  <course>266.03</course>
  <speed>0.0</speed>
  <fix>3d</fix>
</trkpt>
<trkpt lat="40.072842" lon="-105.230575">
  <ele>1586.09</ele>
  <time>2026-08-28T19:06:42Z</time>
  <course>11.58</course>
  <speed>0.03605551275463989</speed>
  <fix>3d</fix>
</trkpt>
<trkpt lat="40.072842" lon="-105.230575">
  <ele>1586.09</ele>
  <time>2026-08-28T19:06:42Z</time>
  <course>266.03</course>
  <speed>0.0</speed>
  <fix>3d</fix>
</trkpt>
<trkpt lat="40.072842" lon="-105.230575">
  <ele>1586.09</ele>
  <time>2026-08-28T19:06:42Z</time>
  <course>11.57</course>
  <speed>0.03605551275463989</speed>
  <fix>3d</fix>
</trkpt>
<trkpt lat="40.072842" lon="-105.230575">
  <ele>1586.09</ele>
  <time>2026-08-28T19:06:42Z</time>
  <course>266.03</course>
  <speed>0.0</speed>
  <fix>3d</fix>
</trkpt>
<trkpt lat="40.072842" lon="-105.230575">
  <ele>1586.09</ele>
  <time>2026-08-28T19:06:42Z</time>
  <course>11.56</course>
  <speed>0.03605551275463989</speed>
  <fix>3d</fix>
</trkpt>
<trkpt lat="40.072842" lon="-105.230575">
  <ele>1586.09</ele>
  <time>2026-08-28T19:06:42Z</time>
  <course>266.03</course>
  <speed>0.0</speed>
  <fix>3d</fix>
</trkpt>
<trkpt lat="40.072842" lon="-105.230575">
  <ele>1586.09</ele>
  <time>2026-08-28T19:06:42Z</time>
  <course>11.56</course>
  <speed>0.03605551275463989</speed>
  <fix>3d</fix>
</trkpt>
<trkpt lat="40.072842" lon="-105.230575">
  <ele>1586.09</ele>
  <time>2026-08-28T19:06:42Z</time>
  <course>266.03</course>
  <speed>0.0</speed>
  <fix>3d</fix>
</trkpt>
<trkpt lat="40.072842" lon="-105.230575">
  <ele>1586.09</ele>
  <time>2026-08-28T19:06:42Z</time>
  <course>11.55</course>
  <speed>0.03605551275463989</speed>
  <fix>3d</fix>
</trkpt>
<trkpt lat="40.072842" lon="-105.230575">
  <ele>1586.09</ele>
  <time>2026-08-28T19:06:42Z</time>
  <course>266.03</course>
  <speed>0.0</speed>
  <fix>3d</fix>
</trkpt>
<trkpt lat="40.072842" lon="-105.230575">
  <ele>1586.09</ele>
  <time>2026-08-28T19:06:42Z</time>
  <course>11.55</course>
  <speed>0.03605551275463989</speed>
  <fix>3d</fix>
</trkpt>
<trkpt lat="40.072842" lon="-105.230575">
  <ele>1586.09</ele>
  <time>2026-08-28T19:06:42Z</time>
  <course>266.03</course>
  <speed>0.0</speed>
  <fix>3d</fix>
</trkpt>
<trkpt lat="40.072842" lon="-105.230575">
  <ele>1586.09</ele>
  <time>2026-08-28T19:06:42Z</time>
  <course>11.54</course>
  <speed>0.03605551275463989</speed>
  <fix>3d</fix>
</trkpt>
<trkpt lat="40.072842" lon="-105.230575">
  <ele>1586.09</ele>
  <time>2026-08-28T19:06:42Z</time>
  <course>266.03</course>
  <speed>0.0</speed>
  <fix>3d</fix>
</trkpt>
<trkpt lat="40.072842" lon="-105.230575">
  <ele>1586.09</ele>
  <time>2026-08-28T19:06:42Z</time>
  <course>11.53</course>
  <speed>0.03605551275463989</speed>
  <fix>3d</fix>
</trkpt>
<trkpt lat="40.072842" lon="-105.230575">
  <ele>1586.09</ele>
  <time>2026-08-28T19:06:42Z</time>
  <course>266.03</course>
  <speed>0.0</speed>
  <fix>3d</fix>
</trkpt>
<trkpt lat="40.072842" lon="-105.230575">
  <ele>1586.09</ele>
  <time>2026-08-28T19:06:42Z</time>
  <course>11.53</course>
  <speed>0.03605551275463989</speed>
  <fix>3d</fix>
</trkpt>
<trkpt lat="40.072842" lon="-105.230575">
  <ele>1586.09</ele>
  <time>2026-08-28T19:06:42Z</time>
  <course>266.03</course>
  <speed>0.0</speed>
  <fix>3d</fix>
</trkpt>
<trkpt lat="40.072842" lon="-105.230575">
  <ele>1586.09</ele>
  <time>2026-08-28T19:06:42Z</time>
  <course>11.52</course>
  <speed>0.03605551275463989</speed>
  <fix>3d</fix>
</trkpt>
<trkpt lat="40.072842" lon="-105.230575">
  <ele>1586.09</ele>
  <time>2026-08-28T19:06:42Z</time>
  <course>266.03</course>
  <speed>0.0</speed>
  <fix>3d</fix>
</trkpt>
<trkpt lat="40.072842" lon="-105.230575">
  <ele>1586.09</ele>
  <time>2026-08-28T19:06:42Z</time>
  <course>11.52</course>
  <speed>0.03605551275463989</speed>
  <fix>3d</fix>
</trkpt>
<trkpt lat="40.072842" lon="-105.230575">
  <ele>1586.09</ele>
  <time>2026-08-28T19:06:42Z</time>
  <course>266.03</course>
  <speed>0.0</speed>
  <fix>3d</fix>
</trkpt>
<trkpt lat="40.072842" lon="-105.230575">
  <ele>1586.09</ele>
  <time>2026-08-28T19:06:42Z</time>
  <course>11.51</course>
  <speed>0.03605551275463989</speed>
  <fix>3d</fix>
</trkpt>
<trkpt lat="40.072842" lon="-105.230575">
  <ele>1586.09</ele>
  <time>2026-08-28T19:06:43Z</time>
  <course>266.03</course>
  <speed>0.0</speed>
  <fix>3d</fix>
</trkpt>
<trkpt lat="40.072842" lon="-105.230575">
  <ele>1586.09</ele>
  <time>2026-08-28T19:06:43Z</time>
  <course>11.51</course>
  <speed>0.03605551275463989</speed>
  <fix>3d</fix>
</trkpt>
<trkpt lat="40.072842" lon="-105.230575">
  <ele>1586.09</ele>
  <time>2026-08-28T19:06:43Z</time>
  <course>266.03</course>
  <speed>0.0</speed>
  <fix>3d</fix>
</trkpt>
<trkpt lat="40.072842" lon="-105.230575">
  <ele>1586.09</ele>
  <time>2026-08-28T19:06:43Z</time>
  <course>11.5</course>
  <speed>0.044721359549995794</speed>
  <fix>3d</fix>
</trkpt>
<trkpt lat="40.072842" lon="-105.230575">
  <ele>1586.09</ele>
  <time>2026-08-28T19:06:43Z</time>
  <course>266.03</course>
  <speed>0.0</speed>
  <fix>3d</fix>
</trkpt>
<trkpt lat="40.072842" lon="-105.230575">
  <ele>1586.09</ele>
  <time>2026-08-28T19:06:43Z</time>
  <course>11.49</course>
  <speed>0.044721359549995794</speed>
  <fix>3d</fix>
</trkpt>
<trkpt lat="40.072842" lon="-105.230575">
  <ele>1586.09</ele>
  <time>2026-08-28T19:06:43Z</time>
  <course>266.03</course>
  <speed>0.0</speed>
  <fix>3d</fix>
</trkpt>
<trkpt lat="40.072842" lon="-105.230575">
  <ele>1586.09</ele>
  <time>2026-08-28T19:06:43Z</time>
  <course>11.49</course>
  <speed>0.044721359549995794</speed>
  <fix>3d</fix>
</trkpt>
<trkpt lat="40.072842" lon="-105.230575">
  <ele>1586.09</ele>
  <time>2026-08-28T19:06:43Z</time>
  <course>266.03</course>
  <speed>0.0</speed>
  <fix>3d</fix>
</trkpt>
<trkpt lat="40.072842" lon="-105.230575">
  <ele>1586.09</ele>
  <time>2026-08-28T19:06:43Z</time>
  <course>11.48</course>
  <speed>0.044721359549995794</speed>
  <fix>3d</fix>
</trkpt>
<trkpt lat="40.072842" lon="-105.230575">
  <ele>1586.09</ele>
  <time>2026-08-28T19:06:43Z</time>
  <course>266.03</course>
  <speed>0.0</speed>
  <fix>3d</fix>
</trkpt>
<trkpt lat="40.072842" lon="-105.230575">
  <ele>1586.09</ele>
  <time>2026-08-28T19:06:43Z</time>
  <course>11.48</course>
  <speed>0.044721359549995794</speed>
  <fix>3d</fix>
</trkpt>
<trkpt lat="40.072842" lon="-105.230575">
  <ele>1586.09</ele>
  <time>2026-08-28T19:06:43Z</time>
  <course>266.03</course>
  <speed>0.0</speed>
  <fix>3d</fix>
</trkpt>
<trkpt lat="40.072842" lon="-105.230575">
  <ele>1586.09</ele>
  <time>2026-08-28T19:06:43Z</time>
  <course>11.47</course>
  <speed>0.044721359549995794</speed>
  <fix>3d</fix>
</trkpt>
<trkpt lat="40.072842" lon="-105.230575">
  <ele>1586.09</ele>
  <time>2026-08-28T19:06:43Z</time>
  <course>266.03</course>
  <speed>0.0</speed>
  <fix>3d</fix>
</trkpt>
<trkpt lat="40.072842" lon="-105.230575">
  <ele>1586.09</ele>
  <time>2026-08-28T19:06:43Z</time>
  <course>11.47</course>
  <speed>0.044721359549995794</speed>
  <fix>3d</fix>
</trkpt>
<trkpt lat="40.072842" lon="-105.230575">
  <ele>1586.09</ele>
  <time>2026-08-28T19:06:43Z</time>
  <course>266.03</course>
  <speed>0.0</speed>
  <fix>3d</fix>
</trkpt>
<trkpt lat="40.072842" lon="-105.230575">
  <ele>1586.09</ele>
  <time>2026-08-28T19:06:43Z</time>
  <course>11.47</course>
  <speed>0.044721359549995794</speed>
  <fix>3d</fix>
</trkpt>
<trkpt lat="40.072842" lon="-105.230575">
  <ele>1586.09</ele>
  <time>2026-08-28T19:06:43Z</time>
  <course>266.03</course>
  <speed>0.0</speed>
  <fix>3d</fix>
</trkpt>
<trkpt lat="40.072842" lon="-105.230575">
  <ele>1586.09</ele>
  <time>2026-08-28T19:06:43Z</time>
  <course>11.46</course>
  <speed>0.044721359549995794</speed>
  <fix>3d</fix>
</trkpt>
<trkpt lat="40.072842" lon="-105.230575">
  <ele>1586.09</ele>
  <time>2026-08-28T19:06:43Z</time>
  <course>266.03</course>
  <speed>0.0</speed>
  <fix>3d</fix>
</trkpt>
<trkpt lat="40.072842" lon="-105.230575">
  <ele>1586.16</ele>
  <time>2026-08-28T19:06:43Z</time>
  <course>11.45</course>
  <speed>0.0</speed>
  <fix>3d</fix>
</trkpt>
<trkpt lat="40.072842" lon="-105.230575">
  <ele>1586.09</ele>
  <time>2026-08-28T19:06:43Z</time>
  <course>297.19</course>
  <speed>0.0</speed>
  <fix>3d</fix>
</trkpt>
<trkpt lat="40.072842" lon="-105.230575">
  <ele>1586.16</ele>
  <time>2026-08-28T19:06:43Z</time>
  <course>11.45</course>
  <speed>0.0</speed>
  <fix>3d</fix>
</trkpt>
<trkpt lat="40.072842" lon="-105.230575">
  <ele>1586.09</ele>
  <time>2026-08-28T19:06:43Z</time>
  <course>269.87</course>
  <speed>0.0</speed>
  <fix>3d</fix>
</trkpt>
<trkpt lat="40.072842" lon="-105.230575">
  <ele>1586.16</ele>
  <time>2026-08-28T19:06:43Z</time>
  <course>11.44</course>
  <speed>0.0</speed>
  <fix>3d</fix>
</trkpt>
<trkpt lat="40.072842" lon="-105.230575">
  <ele>1586.09</ele>
  <time>2026-08-28T19:06:43Z</time>
  <course>241.23</course>
  <speed>0.0</speed>
  <fix>3d</fix>
</trkpt>
<trkpt lat="40.072842" lon="-105.230575">
  <ele>1586.16</ele>
  <time>2026-08-28T19:06:43Z</time>
  <course>11.44</course>
  <speed>0.0</speed>
  <fix>3d</fix>
</trkpt>
<trkpt lat="40.072842" lon="-105.230575">
  <ele>1586.09</ele>
  <time>2026-08-28T19:06:43Z</time>
  <course>93.08</course>
  <speed>0.0</speed>
  <fix>3d</fix>
</trkpt>
<trkpt lat="40.072842" lon="-105.230575">
  <ele>1586.17</ele>
  <time>2026-08-28T19:06:43Z</time>
  <course>11.44</course>
  <speed>0.0</speed>
  <fix>3d</fix>
</trkpt>
<trkpt lat="40.072842" lon="-105.230575">
  <ele>1586.09</ele>
  <time>2026-08-28T19:06:43Z</time>
  <course>317.31</course>
  <speed>0.0</speed>
  <fix>3d</fix>
</trkpt>
<trkpt lat="40.072842" lon="-105.230575">
  <ele>1586.17</ele>
  <time>2026-08-28T19:06:43Z</time>
  <course>11.43</course>
  <speed>0.01</speed>
  <fix>3d</fix>
</trkpt>
<trkpt lat="40.072842" lon="-105.230575">
  <ele>1586.09</ele>
  <time>2026-08-28T19:06:43Z</time>
  <course>265.24</course>
  <speed>0.0</speed>
  <fix>3d</fix>
</trkpt>
<trkpt lat="40.072842" lon="-105.230575">
  <ele>1586.17</ele>
  <time>2026-08-28T19:06:43Z</time>
  <course>11.43</course>
  <speed>0.01</speed>
  <fix>3d</fix>
</trkpt>
<trkpt lat="40.072842" lon="-105.230575">
  <ele>1586.09</ele>
  <time>2026-08-28T19:06:43Z</time>
  <course>261.76</course>
  <speed>0.0</speed>
  <fix>3d</fix>
</trkpt>
<trkpt lat="40.072842" lon="-105.230575">
  <ele>1586.17</ele>
  <time>2026-08-28T19:06:43Z</time>
  <course>11.42</course>
  <speed>0.01</speed>
  <fix>3d</fix>
</trkpt>
<trkpt lat="40.072842" lon="-105.230575">
  <ele>1586.09</ele>
  <time>2026-08-28T19:06:43Z</time>
  <course>266.78</course>
  <speed>0.0</speed>
  <fix>3d</fix>
</trkpt>
<trkpt lat="40.072842" lon="-105.230575">
  <ele>1586.17</ele>
  <time>2026-08-28T19:06:43Z</time>
  <course>11.42</course>
  <speed>0.01414213562373095</speed>
  <fix>3d</fix>
</trkpt>
<trkpt lat="40.072842" lon="-105.230575">
  <ele>1586.09</ele>
  <time>2026-08-28T19:06:43Z</time>
  <course>266.53</course>
  <speed>0.0</speed>
  <fix>3d</fix>
</trkpt>
<trkpt lat="40.072842" lon="-105.230575">
  <ele>1586.17</ele>
  <time>2026-08-28T19:06:43Z</time>
  <course>11.42</course>
  <speed>0.01414213562373095</speed>
  <fix>3d</fix>
</trkpt>
<trkpt lat="40.072842" lon="-105.230575">
  <ele>1586.09</ele>
  <time>2026-08-28T19:06:43Z</time>
  <course>265.88</course>
  <speed>0.0</speed>
  <fix>3d</fix>
</trkpt>
<trkpt lat="40.072842" lon="-105.230575">
  <ele>1586.17</ele>
  <time>2026-08-28T19:06:43Z</time>
  <course>11.41</course>
  <speed>0.01414213562373095</speed>
  <fix>3d</fix>
</trkpt>
<trkpt lat="40.072842" lon="-105.230575">
  <ele>1586.09</ele>
  <time>2026-08-28T19:06:43Z</time>
  <course>265.99</course>
  <speed>0.0</speed>
  <fix>3d</fix>
</trkpt>
<trkpt lat="40.072842" lon="-105.230575">
  <ele>1586.17</ele>
  <time>2026-08-28T19:06:43Z</time>
  <course>11.41</course>
  <speed>0.022360679774997897</speed>
  <fix>3d</fix>
</trkpt>
<trkpt lat="40.072842" lon="-105.230575">
  <ele>1586.09</ele>
  <time>2026-08-28T19:06:43Z</time>
  <course>266.06</course>
  <speed>0.0</speed>
  <fix>3d</fix>
</trkpt>
<trkpt lat="40.072842" lon="-105.230575">
  <ele>1586.17</ele>
  <time>2026-08-28T19:06:43Z</time>
  <course>11.4</course>
  <speed>0.022360679774997897</speed>
  <fix>3d</fix>
</trkpt>
<trkpt lat="40.072842" lon="-105.230575">
  <ele>1586.09</ele>
  <time>2026-08-28T19:06:43Z</time>
  <course>266.04</course>
  <speed>0.0</speed>
  <fix>3d</fix>
</trkpt>
<trkpt lat="40.072842" lon="-105.230575">
  <ele>1586.17</ele>
  <time>2026-08-28T19:06:43Z</time>
  <course>11.4</course>
  <speed>0.022360679774997897</speed>
  <fix>3d</fix>
</trkpt>
<trkpt lat="40.072842" lon="-105.230575">
  <ele>1586.09</ele>
  <time>2026-08-28T19:06:43Z</time>
  <course>266.03</course>
  <speed>0.0</speed>
  <fix>3d</fix>
</trkpt>
<trkpt lat="40.072842" lon="-105.230575">
  <ele>1586.17</ele>
  <time>2026-08-28T19:06:43Z</time>
  <course>11.4</course>
  <speed>0.022360679774997897</speed>
  <fix>3d</fix>
</trkpt>
<trkpt lat="40.072842" lon="-105.230575">
  <ele>1586.09</ele>
  <time>2026-08-28T19:06:43Z</time>
  <course>266.04</course>
  <speed>0.0</speed>
  <fix>3d</fix>
</trkpt>
<trkpt lat="40.0728419" lon="-105.230575">
  <ele>1586.17</ele>
  <time>2026-08-28T19:06:43Z</time>
  <course>11.39</course>
  <speed>0.022360679774997897</speed>
  <fix>3d</fix>
</trkpt>
<trkpt lat="40.072842" lon="-105.230575">
  <ele>1586.09</ele>
  <time>2026-08-28T19:06:43Z</time>
  <course>266.04</course>
  <speed>0.0</speed>
  <fix>3d</fix>
</trkpt>
<trkpt lat="40.0728419" lon="-105.230575">
  <ele>1586.17</ele>
  <time>2026-08-28T19:06:43Z</time>
  <course>11.39</course>
  <speed>0.022360679774997897</speed>
  <fix>3d</fix>
</trkpt>
<trkpt lat="40.072842" lon="-105.230575">
  <ele>1586.09</ele>
  <time>2026-08-28T19:06:43Z</time>
  <course>266.03</course>
  <speed>0.0</speed>
  <fix>3d</fix>
</trkpt>
<trkpt lat="40.0728419" lon="-105.2305749">
  <ele>1586.17</ele>
  <time>2026-08-28T19:06:43Z</time>
  <course>11.38</course>
  <speed>0.022360679774997897</speed>
  <fix>3d</fix>
</trkpt>
<trkpt lat="40.072842" lon="-105.230575">
  <ele>1586.09</ele>
  <time>2026-08-28T19:06:43Z</time>
  <course>266.03</course>
  <speed>0.0</speed>
  <fix>3d</fix>
</trkpt>
<trkpt lat="40.0728419" lon="-105.2305749">
  <ele>1586.18</ele>
  <time>2026-08-28T19:06:43Z</time>
  <course>11.38</course>
  <speed>0.022360679774997897</speed>
  <fix>3d</fix>
</trkpt>
<trkpt lat="40.072842" lon="-105.230575">
  <ele>1586.09</ele>
  <time>2026-08-28T19:06:43Z</time>
  <course>266.04</course>
  <speed>0.0</speed>
  <fix>3d</fix>
</trkpt>
<trkpt lat="40.0728419" lon="-105.2305749">
  <ele>1586.18</ele>
  <time>2026-08-28T19:06:43Z</time>
  <course>11.37</course>
  <speed>0.022360679774997897</speed>
  <fix>3d</fix>
</trkpt>
<trkpt lat="40.072842" lon="-105.230575">
  <ele>1586.09</ele>
  <time>2026-08-28T19:06:43Z</time>
  <course>266.04</course>
  <speed>0.0</speed>
  <fix>3d</fix>
</trkpt>
<trkpt lat="40.0728419" lon="-105.2305749">
  <ele>1586.18</ele>
  <time>2026-08-28T19:06:43Z</time>
  <course>11.37</course>
  <speed>0.022360679774997897</speed>
  <fix>3d</fix>
</trkpt>
<trkpt lat="40.072842" lon="-105.230575">
  <ele>1586.09</ele>
  <time>2026-08-28T19:06:43Z</time>
  <course>178.09</course>
  <speed>0.0</speed>
  <fix>3d</fix>
</trkpt>
<trkpt lat="40.0728419" lon="-105.2305749">
  <ele>1586.17</ele>
  <time>2026-08-28T19:06:43Z</time>
  <course>11.37</course>
  <speed>0.022360679774997897</speed>
  <fix>3d</fix>
</trkpt>
<trkpt lat="40.072842" lon="-105.230575">
  <ele>1586.09</ele>
  <time>2026-08-28T19:06:43Z</time>
  <course>82.55</course>
  <speed>0.0</speed>
  <fix>3d</fix>
</trkpt>
<trkpt lat="40.0728419" lon="-105.2305749">
  <ele>1586.17</ele>
  <time>2026-08-28T19:06:43Z</time>
  <course>11.36</course>
  <speed>0.022360679774997897</speed>
  <fix>3d</fix>
</trkpt>
<trkpt lat="40.072842" lon="-105.230575">
  <ele>1586.09</ele>
  <time>2026-08-28T19:06:43Z</time>
  <course>70.11</course>
  <speed>0.0</speed>
  <fix>3d</fix>
</trkpt>
<trkpt lat="40.0728419" lon="-105.2305749">
  <ele>1586.17</ele>
  <time>2026-08-28T19:06:43Z</time>
  <course>11.36</course>
  <speed>0.022360679774997897</speed>
  <fix>3d</fix>
</trkpt>
<trkpt lat="40.072842" lon="-105.230575">
  <ele>1586.09</ele>
  <time>2026-08-28T19:06:43Z</time>
  <course>280.93</course>
  <speed>0.0</speed>
  <fix>3d</fix>
</trkpt>
<trkpt lat="40.0728419" lon="-105.2305749">
  <ele>1586.17</ele>
  <time>2026-08-28T19:06:43Z</time>
  <course>11.35</course>
  <speed>0.022360679774997897</speed>
  <fix>3d</fix>
</trkpt>
<trkpt lat="40.072842" lon="-105.230575">
  <ele>1586.09</ele>
  <time>2026-08-28T19:06:43Z</time>
  <course>245.32</course>
  <speed>0.0</speed>
  <fix>3d</fix>
</trkpt>
<trkpt lat="40.0728419" lon="-105.2305749">
  <ele>1586.16</ele>
  <time>2026-08-28T19:06:43Z</time>
  <course>11.35</course>
  <speed>0.01414213562373095</speed>
  <fix>3d</fix>
</trkpt>
<trkpt lat="40.072842" lon="-105.230575">
  <ele>1586.09</ele>
  <time>2026-08-28T19:06:43Z</time>
  <course>117.15</course>
  <speed>0.0</speed>
  <fix>3d</fix>
</trkpt>
<trkpt lat="40.0728419" lon="-105.2305749">
  <ele>1586.16</ele>
  <time>2026-08-28T19:06:43Z</time>
  <course>11.34</course>
  <speed>0.01414213562373095</speed>
  <fix>3d</fix>
</trkpt>
<trkpt lat="40.072842" lon="-105.230575">
  <ele>1586.09</ele>
  <time>2026-08-28T19:06:43Z</time>
  <course>279.17</course>
  <speed>0.0</speed>
  <fix>3d</fix>
</trkpt>
<trkpt lat="40.0728419" lon="-105.2305749">
  <ele>1586.16</ele>
  <time>2026-08-28T19:06:43Z</time>
  <course>11.34</course>
  <speed>0.01414213562373095</speed>
  <fix>3d</fix>
</trkpt>
<trkpt lat="40.072842" lon="-105.230575">
  <ele>1586.09</ele>
  <time>2026-08-28T19:06:43Z</time>
  <course>265.73</course>
  <speed>0.0</speed>
  <fix>3d</fix>
</trkpt>
<trkpt lat="40.0728419" lon="-105.2305749">
  <ele>1586.16</ele>
  <time>2026-08-28T19:06:43Z</time>
  <course>11.33</course>
  <speed>0.01414213562373095</speed>
  <fix>3d</fix>
</trkpt>
<trkpt lat="40.072842" lon="-105.230575">
  <ele>1586.09</ele>
  <time>2026-08-28T19:06:43Z</time>
  <course>264.62</course>
  <speed>0.0</speed>
  <fix>3d</fix>
</trkpt>
<trkpt lat="40.0728419" lon="-105.2305749">
  <ele>1586.16</ele>
  <time>2026-08-28T19:06:43Z</time>
  <course>11.33</course>
  <speed>0.01414213562373095</speed>
  <fix>3d</fix>
</trkpt>
<trkpt lat="40.072842" lon="-105.230575">
  <ele>1586.09</ele>
  <time>2026-08-28T19:06:43Z</time>
  <course>266.26</course>
  <speed>0.0</speed>
  <fix>3d</fix>
</trkpt>
<trkpt lat="40.0728419" lon="-105.2305749">
  <ele>1586.15</ele>
  <time>2026-08-28T19:06:43Z</time>
  <course>11.32</course>
  <speed>0.01414213562373095</speed>
  <fix>3d</fix>
</trkpt>
<trkpt lat="40.072842" lon="-105.230575">
  <ele>1586.09</ele>
  <time>2026-08-28T19:06:43Z</time>
  <course>266.2</course>
  <speed>0.0</speed>
  <fix>3d</fix>
</trkpt>
<trkpt lat="40.0728419" lon="-105.2305749">
  <ele>1586.15</ele>
  <time>2026-08-28T19:06:43Z</time>
  <course>11.32</course>
  <speed>0.01414213562373095</speed>
  <fix>3d</fix>
</trkpt>
<trkpt lat="40.072842" lon="-105.230575">
  <ele>1586.09</ele>
  <time>2026-08-28T19:06:43Z</time>
  <course>265.99</course>
  <speed>0.0</speed>
  <fix>3d</fix>
</trkpt>
<trkpt lat="40.0728419" lon="-105.2305749">
  <ele>1586.15</ele>
  <time>2026-08-28T19:06:43Z</time>
  <course>11.31</course>
  <speed>0.01414213562373095</speed>
  <fix>3d</fix>
</trkpt>
<trkpt lat="40.072842" lon="-105.230575">
  <ele>1586.09</ele>
  <time>2026-08-28T19:06:43Z</time>
  <course>266.02</course>
  <speed>0.0</speed>
  <fix>3d</fix>
</trkpt>
<trkpt lat="40.0728419" lon="-105.2305749">
  <ele>1586.15</ele>
  <time>2026-08-28T19:06:43Z</time>
  <course>11.31</course>
  <speed>0.01414213562373095</speed>
  <fix>3d</fix>
</trkpt>
<trkpt lat="40.072842" lon="-105.230575">
  <ele>1586.09</ele>
  <time>2026-08-28T19:06:43Z</time>
  <course>266.04</course>
  <speed>0.0</speed>
  <fix>3d</fix>
</trkpt>
<trkpt lat="40.0728419" lon="-105.2305749">
  <ele>1586.15</ele>
  <time>2026-08-28T19:06:43Z</time>
  <course>11.31</course>
  <speed>0.01414213562373095</speed>
  <fix>3d</fix>
</trkpt>
<trkpt lat="40.072842" lon="-105.230575">
  <ele>1586.09</ele>
  <time>2026-08-28T19:06:43Z</time>
  <course>266.04</course>
  <speed>0.0</speed>
  <fix>3d</fix>
</trkpt>
<trkpt lat="40.0728419" lon="-105.2305749">
  <ele>1586.16</ele>
  <time>2026-08-28T19:06:43Z</time>
  <course>11.3</course>
  <speed>0.01414213562373095</speed>
  <fix>3d</fix>
</trkpt>
<trkpt lat="40.072842" lon="-105.230575">
  <ele>1586.09</ele>
  <time>2026-08-28T19:06:43Z</time>
  <course>266.03</course>
  <speed>0.0</speed>
  <fix>3d</fix>
</trkpt>
<trkpt lat="40.0728419" lon="-105.2305749">
  <ele>1586.16</ele>
  <time>2026-08-28T19:06:43Z</time>
  <course>11.3</course>
  <speed>0.01414213562373095</speed>
  <fix>3d</fix>
</trkpt>
<trkpt lat="40.072842" lon="-105.230575">
  <ele>1586.09</ele>
  <time>2026-08-28T19:06:43Z</time>
  <course>266.03</course>
  <speed>0.0</speed>
  <fix>3d</fix>
</trkpt>
<trkpt lat="40.0728419" lon="-105.2305749">
  <ele>1586.16</ele>
  <time>2026-08-28T19:06:43Z</time>
  <course>11.29</course>
  <speed>0.01414213562373095</speed>
  <fix>3d</fix>
</trkpt>
<trkpt lat="40.072842" lon="-105.230575">
  <ele>1586.09</ele>
  <time>2026-08-28T19:06:43Z</time>
  <course>266.03</course>
  <speed>0.0</speed>
  <fix>3d</fix>
</trkpt>
<trkpt lat="40.0728419" lon="-105.2305749">
  <ele>1586.16</ele>
  <time>2026-08-28T19:06:43Z</time>
  <course>11.29</course>
  <speed>0.01414213562373095</speed>
  <fix>3d</fix>
</trkpt>
<trkpt lat="40.072842" lon="-105.230575">
  <ele>1586.09</ele>
  <time>2026-08-28T19:06:43Z</time>
  <course>266.03</course>
  <speed>0.0</speed>
  <fix>3d</fix>
</trkpt>
<trkpt lat="40.0728419" lon="-105.2305749">
  <ele>1586.16</ele>
  <time>2026-08-28T19:06:43Z</time>
  <course>11.28</course>
  <speed>0.01414213562373095</speed>
  <fix>3d</fix>
</trkpt>
<trkpt lat="40.072842" lon="-105.230575">
  <ele>1586.09</ele>
  <time>2026-08-28T19:06:43Z</time>
  <course>266.03</course>
  <speed>0.0</speed>
  <fix>3d</fix>
</trkpt>
<trkpt lat="40.0728419" lon="-105.2305749">
  <ele>1586.16</ele>
  <time>2026-08-28T19:06:43Z</time>
  <course>11.28</course>
  <speed>0.01414213562373095</speed>
  <fix>3d</fix>
</trkpt>
<trkpt lat="40.072842" lon="-105.230575">
  <ele>1586.09</ele>
  <time>2026-08-28T19:06:43Z</time>
  <course>266.03</course>
  <speed>0.0</speed>
  <fix>3d</fix>
</trkpt>
<trkpt lat="40.0728419" lon="-105.2305749">
  <ele>1586.15</ele>
  <time>2026-08-28T19:06:43Z</time>
  <course>11.27</course>
  <speed>0.01414213562373095</speed>
  <fix>3d</fix>
</trkpt>
<trkpt lat="40.072842" lon="-105.230575">
  <ele>1586.09</ele>
  <time>2026-08-28T19:06:43Z</time>
  <course>266.03</course>
  <speed>0.0</speed>
  <fix>3d</fix>
</trkpt>
<trkpt lat="40.0728419" lon="-105.2305749">
  <ele>1586.15</ele>
  <time>2026-08-28T19:06:43Z</time>
  <course>11.27</course>
  <speed>0.01414213562373095</speed>
  <fix>3d</fix>
</trkpt>
<trkpt lat="40.072842" lon="-105.230575">
  <ele>1586.09</ele>
  <time>2026-08-28T19:06:43Z</time>
  <course>266.03</course>
  <speed>0.0</speed>
  <fix>3d</fix>
</trkpt>
<trkpt lat="40.0728419" lon="-105.2305749">
  <ele>1586.15</ele>
  <time>2026-08-28T19:06:43Z</time>
  <course>11.26</course>
  <speed>0.01414213562373095</speed>
  <fix>3d</fix>
</trkpt>
<trkpt lat="40.072842" lon="-105.230575">
  <ele>1586.09</ele>
  <time>2026-08-28T19:06:43Z</time>
  <course>266.03</course>
  <speed>0.0</speed>
  <fix>3d</fix>
</trkpt>
<trkpt lat="40.0728419" lon="-105.2305749">
  <ele>1586.15</ele>
  <time>2026-08-28T19:06:43Z</time>
  <course>11.26</course>
  <speed>0.01414213562373095</speed>
  <fix>3d</fix>
</trkpt>
<trkpt lat="40.072842" lon="-105.230575">
  <ele>1586.09</ele>
  <time>2026-08-28T19:06:43Z</time>
  <course>266.03</course>
  <speed>0.0</speed>
  <fix>3d</fix>
</trkpt>
<trkpt lat="40.0728419" lon="-105.2305749">
  <ele>1586.16</ele>
  <time>2026-08-28T19:06:43Z</time>
  <course>11.25</course>
  <speed>0.01414213562373095</speed>
  <fix>3d</fix>
</trkpt>
<trkpt lat="40.072842" lon="-105.230575">
  <ele>1586.09</ele>
  <time>2026-08-28T19:06:43Z</time>
  <course>266.03</course>
  <speed>0.0</speed>
  <fix>3d</fix>
</trkpt>
<trkpt lat="40.0728419" lon="-105.2305749">
  <ele>1586.16</ele>
  <time>2026-08-28T19:06:43Z</time>
  <course>11.25</course>
  <speed>0.01414213562373095</speed>
  <fix>3d</fix>
</trkpt>
<trkpt lat="40.072842" lon="-105.230575">
  <ele>1586.09</ele>
  <time>2026-08-28T19:06:43Z</time>
  <course>266.03</course>
  <speed>0.0</speed>
  <fix>3d</fix>
</trkpt>
<trkpt lat="40.0728419" lon="-105.2305749">
  <ele>1586.17</ele>
  <time>2026-08-28T19:06:43Z</time>
  <course>11.25</course>
  <speed>0.01414213562373095</speed>
  <fix>3d</fix>
</trkpt>
<trkpt lat="40.072842" lon="-105.230575">
  <ele>1586.09</ele>
  <time>2026-08-28T19:06:43Z</time>
  <course>266.03</course>
  <speed>0.0</speed>
  <fix>3d</fix>
</trkpt>
<trkpt lat="40.0728419" lon="-105.2305749">
  <ele>1586.17</ele>
  <time>2026-08-28T19:06:43Z</time>
  <course>11.24</course>
  <speed>0.01414213562373095</speed>
  <fix>3d</fix>
</trkpt>
<trkpt lat="40.072842" lon="-105.230575">
  <ele>1586.09</ele>
  <time>2026-08-28T19:06:43Z</time>
  <course>266.03</course>
  <speed>0.0</speed>
  <fix>3d</fix>
</trkpt>
<trkpt lat="40.0728419" lon="-105.2305749">
  <ele>1586.17</ele>
  <time>2026-08-28T19:06:43Z</time>
  <course>11.24</course>
  <speed>0.01414213562373095</speed>
  <fix>3d</fix>
</trkpt>
<trkpt lat="40.072842" lon="-105.230575">
  <ele>1586.09</ele>
  <time>2026-08-28T19:06:43Z</time>
  <course>266.03</course>
  <speed>0.0</speed>
  <fix>3d</fix>
</trkpt>
<trkpt lat="40.0728419" lon="-105.2305749">
  <ele>1586.17</ele>
  <time>2026-08-28T19:06:43Z</time>
  <course>11.23</course>
  <speed>0.01414213562373095</speed>
  <fix>3d</fix>
</trkpt>
<trkpt lat="40.072842" lon="-105.230575">
  <ele>1586.09</ele>
  <time>2026-08-28T19:06:43Z</time>
  <course>266.03</course>
  <speed>0.0</speed>
  <fix>3d</fix>
</trkpt>
<trkpt lat="40.0728419" lon="-105.2305749">
  <ele>1586.17</ele>
  <time>2026-08-28T19:06:43Z</time>
  <course>11.23</course>
  <speed>0.01414213562373095</speed>
  <fix>3d</fix>
</trkpt>
<trkpt lat="40.072842" lon="-105.230575">
  <ele>1586.09</ele>
  <time>2026-08-28T19:06:43Z</time>
  <course>266.03</course>
  <speed>0.0</speed>
  <fix>3d</fix>
</trkpt>
<trkpt lat="40.0728419" lon="-105.2305749">
  <ele>1586.17</ele>
  <time>2026-08-28T19:06:43Z</time>
  <course>11.23</course>
  <speed>0.01414213562373095</speed>
  <fix>3d</fix>
</trkpt>
<trkpt lat="40.072842" lon="-105.230575">
  <ele>1586.09</ele>
  <time>2026-08-28T19:06:43Z</time>
  <course>266.03</course>
  <speed>0.0</speed>
  <fix>3d</fix>
</trkpt>
<trkpt lat="40.0728419" lon="-105.2305749">
  <ele>1586.17</ele>
  <time>2026-08-28T19:06:43Z</time>
  <course>11.22</course>
  <speed>0.01414213562373095</speed>
  <fix>3d</fix>
</trkpt>
<trkpt lat="40.072842" lon="-105.230575">
  <ele>1586.09</ele>
  <time>2026-08-28T19:06:43Z</time>
  <course>266.03</course>
  <speed>0.0</speed>
  <fix>3d</fix>
</trkpt>
<trkpt lat="40.0728419" lon="-105.2305749">
  <ele>1586.17</ele>
  <time>2026-08-28T19:06:43Z</time>
  <course>11.22</course>
  <speed>0.01414213562373095</speed>
  <fix>3d</fix>
</trkpt>
<trkpt lat="40.072842" lon="-105.230575">
  <ele>1586.09</ele>
  <time>2026-08-28T19:06:43Z</time>
  <course>266.03</course>
  <speed>0.0</speed>
  <fix>3d</fix>
</trkpt>
<trkpt lat="40.0728419" lon="-105.2305749">
  <ele>1586.17</ele>
  <time>2026-08-28T19:06:43Z</time>
  <course>11.21</course>
  <speed>0.01414213562373095</speed>
  <fix>3d</fix>
</trkpt>
<trkpt lat="40.072842" lon="-105.230575">
  <ele>1586.09</ele>
  <time>2026-08-28T19:06:43Z</time>
  <course>266.03</course>
  <speed>0.0</speed>
  <fix>3d</fix>
</trkpt>
<trkpt lat="40.0728419" lon="-105.2305749">
  <ele>1586.17</ele>
  <time>2026-08-28T19:06:43Z</time>
  <course>11.21</course>
  <speed>0.01414213562373095</speed>
  <fix>3d</fix>
</trkpt>
<trkpt lat="40.072842" lon="-105.230575">
  <ele>1586.09</ele>
  <time>2026-08-28T19:06:43Z</time>
  <course>266.03</course>
  <speed>0.0</speed>
  <fix>3d</fix>
</trkpt>
<trkpt lat="40.0728419" lon="-105.2305749">
  <ele>1586.17</ele>
  <time>2026-08-28T19:06:43Z</time>
  <course>11.21</course>
  <speed>0.01414213562373095</speed>
  <fix>3d</fix>
</trkpt>
<trkpt lat="40.072842" lon="-105.230575">
  <ele>1586.09</ele>
  <time>2026-08-28T19:06:43Z</time>
  <course>266.03</course>
  <speed>0.0</speed>
  <fix>3d</fix>
</trkpt>
<trkpt lat="40.0728419" lon="-105.2305749">
  <ele>1586.17</ele>
  <time>2026-08-28T19:06:43Z</time>
  <course>11.2</course>
  <speed>0.01414213562373095</speed>
  <fix>3d</fix>
</trkpt>
<trkpt lat="40.072842" lon="-105.230575">
  <ele>1586.09</ele>
  <time>2026-08-28T19:06:43Z</time>
  <course>266.03</course>
  <speed>0.0</speed>
  <fix>3d</fix>
</trkpt>
<trkpt lat="40.0728419" lon="-105.2305749">
  <ele>1586.16</ele>
  <time>2026-08-28T19:06:43Z</time>
  <course>11.2</course>
  <speed>0.01414213562373095</speed>
  <fix>3d</fix>
</trkpt>
<trkpt lat="40.072842" lon="-105.230575">
  <ele>1586.09</ele>
  <time>2026-08-28T19:06:43Z</time>
  <course>266.03</course>
  <speed>0.0</speed>
  <fix>3d</fix>
</trkpt>
<trkpt lat="40.0728419" lon="-105.2305749">
  <ele>1586.16</ele>
  <time>2026-08-28T19:06:43Z</time>
  <course>11.2</course>
  <speed>0.01414213562373095</speed>
  <fix>3d</fix>
</trkpt>
<trkpt lat="40.072842" lon="-105.230575">
  <ele>1586.09</ele>
  <time>2026-08-28T19:06:43Z</time>
  <course>266.03</course>
  <speed>0.0</speed>
  <fix>3d</fix>
</trkpt>
<trkpt lat="40.0728419" lon="-105.2305749">
  <ele>1586.15</ele>
  <time>2026-08-28T19:06:43Z</time>
  <course>11.19</course>
  <speed>0.01414213562373095</speed>
  <fix>3d</fix>
</trkpt>
<trkpt lat="40.072842" lon="-105.230575">
  <ele>1586.09</ele>
  <time>2026-08-28T19:06:43Z</time>
  <course>266.03</course>
  <speed>0.0</speed>
  <fix>3d</fix>
</trkpt>
<trkpt lat="40.0728419" lon="-105.2305749">
  <ele>1586.15</ele>
  <time>2026-08-28T19:06:43Z</time>
  <course>11.19</course>
  <speed>0.01414213562373095</speed>
  <fix>3d</fix>
</trkpt>
<trkpt lat="40.072842" lon="-105.230575">
  <ele>1586.09</ele>
  <time>2026-08-28T19:06:43Z</time>
  <course>266.03</course>
  <speed>0.0</speed>
  <fix>3d</fix>
</trkpt>
<trkpt lat="40.0728419" lon="-105.2305749">
  <ele>1586.16</ele>
  <time>2026-08-28T19:06:43Z</time>
  <course>11.19</course>
  <speed>0.01414213562373095</speed>
  <fix>3d</fix>
</trkpt>
<trkpt lat="40.072842" lon="-105.230575">
  <ele>1586.09</ele>
  <time>2026-08-28T19:06:43Z</time>
  <course>266.03</course>
  <speed>0.0</speed>
  <fix>3d</fix>
</trkpt>
<trkpt lat="40.0728419" lon="-105.2305749">
  <ele>1586.16</ele>
  <time>2026-08-28T19:06:43Z</time>
  <course>11.18</course>
  <speed>0.01414213562373095</speed>
  <fix>3d</fix>
</trkpt>
<trkpt lat="40.072842" lon="-105.230575">
  <ele>1586.09</ele>
  <time>2026-08-28T19:06:43Z</time>
  <course>266.03</course>
  <speed>0.0</speed>
  <fix>3d</fix>
</trkpt>
<trkpt lat="40.0728419" lon="-105.2305749">
  <ele>1586.16</ele>
  <time>2026-08-28T19:06:43Z</time>
  <course>11.18</course>
  <speed>0.01414213562373095</speed>
  <fix>3d</fix>
</trkpt>
<trkpt lat="40.072842" lon="-105.230575">
  <ele>1586.09</ele>
  <time>2026-08-28T19:06:43Z</time>
  <course>266.03</course>
  <speed>0.0</speed>
  <fix>3d</fix>
</trkpt>
<trkpt lat="40.0728419" lon="-105.2305749">
  <ele>1586.16</ele>
  <time>2026-08-28T19:06:43Z</time>
  <course>11.18</course>
  <speed>0.01414213562373095</speed>
  <fix>3d</fix>
</trkpt>
<trkpt lat="40.072842" lon="-105.230575">
  <ele>1586.09</ele>
  <time>2026-08-28T19:06:43Z</time>
  <course>266.03</course>
  <speed>0.0</speed>
  <fix>3d</fix>
</trkpt>
<trkpt lat="40.0728419" lon="-105.2305749">
  <ele>1586.16</ele>
  <time>2026-08-28T19:06:43Z</time>
  <course>11.17</course>
  <speed>0.01414213562373095</speed>
  <fix>3d</fix>
</trkpt>
<trkpt lat="40.072842" lon="-105.230575">
  <ele>1586.09</ele>
  <time>2026-08-28T19:06:43Z</time>
  <course>266.03</course>
  <speed>0.0</speed>
  <fix>3d</fix>
</trkpt>
<trkpt lat="40.0728419" lon="-105.2305749">
  <ele>1586.17</ele>
  <time>2026-08-28T19:06:43Z</time>
  <course>11.17</course>
  <speed>0.01414213562373095</speed>
  <fix>3d</fix>
</trkpt>
<trkpt lat="40.072842" lon="-105.230575">
  <ele>1586.09</ele>
  <time>2026-08-28T19:06:43Z</time>
  <course>266.03</course>
  <speed>0.0</speed>
  <fix>3d</fix>
</trkpt>
<trkpt lat="40.0728419" lon="-105.2305749">
  <ele>1586.18</ele>
  <time>2026-08-28T19:06:43Z</time>
  <course>11.16</course>
  <speed>0.01414213562373095</speed>
  <fix>3d</fix>
</trkpt>
<trkpt lat="40.072842" lon="-105.230575">
  <ele>1586.09</ele>
  <time>2026-08-28T19:06:43Z</time>
  <course>266.03</course>
  <speed>0.0</speed>
  <fix>3d</fix>
</trkpt>
<trkpt lat="40.0728419" lon="-105.2305749">
  <ele>1586.18</ele>
  <time>2026-08-28T19:06:43Z</time>
  <course>11.16</course>
  <speed>0.01414213562373095</speed>
  <fix>3d</fix>
</trkpt>
<trkpt lat="40.072842" lon="-105.230575">
  <ele>1586.09</ele>
  <time>2026-08-28T19:06:43Z</time>
  <course>266.03</course>
  <speed>0.0</speed>
  <fix>3d</fix>
</trkpt>
<trkpt lat="40.0728419" lon="-105.2305749">
  <ele>1586.18</ele>
  <time>2026-08-28T19:06:43Z</time>
  <course>11.16</course>
  <speed>0.01414213562373095</speed>
  <fix>3d</fix>
</trkpt>
<trkpt lat="40.072842" lon="-105.230575">
  <ele>1586.09</ele>
  <time>2026-08-28T19:06:43Z</time>
  <course>266.03</course>
  <speed>0.0</speed>
  <fix>3d</fix>
</trkpt>
<trkpt lat="40.0728419" lon="-105.2305749">
  <ele>1586.18</ele>
  <time>2026-08-28T19:06:43Z</time>
  <course>11.16</course>
  <speed>0.01414213562373095</speed>
  <fix>3d</fix>
</trkpt>
<trkpt lat="40.072842" lon="-105.230575">
  <ele>1586.09</ele>
  <time>2026-08-28T19:06:43Z</time>
  <course>266.03</course>
  <speed>0.0</speed>
  <fix>3d</fix>
</trkpt>
<trkpt lat="40.0728419" lon="-105.2305749">
  <ele>1586.18</ele>
  <time>2026-08-28T19:06:43Z</time>
  <course>11.15</course>
  <speed>0.01414213562373095</speed>
  <fix>3d</fix>
</trkpt>
<trkpt lat="40.072842" lon="-105.230575">
  <ele>1586.09</ele>
  <time>2026-08-28T19:06:43Z</time>
  <course>266.03</course>
  <speed>0.0</speed>
  <fix>3d</fix>
</trkpt>
<trkpt lat="40.0728419" lon="-105.2305749">
  <ele>1586.17</ele>
  <time>2026-08-28T19:06:43Z</time>
  <course>11.15</course>
  <speed>0.01414213562373095</speed>
  <fix>3d</fix>
</trkpt>
<trkpt lat="40.072842" lon="-105.230575">
  <ele>1586.09</ele>
  <time>2026-08-28T19:06:43Z</time>
  <course>266.03</course>
  <speed>0.0</speed>
  <fix>3d</fix>
</trkpt>
<trkpt lat="40.0728419" lon="-105.2305749">
  <ele>1586.17</ele>
  <time>2026-08-28T19:06:43Z</time>
  <course>11.15</course>
  <speed>0.01414213562373095</speed>
  <fix>3d</fix>
</trkpt>
<trkpt lat="40.072842" lon="-105.230575">
  <ele>1586.09</ele>
  <time>2026-08-28T19:06:43Z</time>
  <course>266.03</course>
  <speed>0.0</speed>
  <fix>3d</fix>
</trkpt>
<trkpt lat="40.0728419" lon="-105.2305749">
  <ele>1586.17</ele>
  <time>2026-08-28T19:06:43Z</time>
  <course>11.14</course>
  <speed>0.01414213562373095</speed>
  <fix>3d</fix>
</trkpt>
<trkpt lat="40.072842" lon="-105.230575">
  <ele>1586.09</ele>
  <time>2026-08-28T19:06:43Z</time>
  <course>266.03</course>
  <speed>0.0</speed>
  <fix>3d</fix>
</trkpt>
<trkpt lat="40.0728419" lon="-105.2305749">
  <ele>1586.17</ele>
  <time>2026-08-28T19:06:43Z</time>
  <course>11.14</course>
  <speed>0.01414213562373095</speed>
  <fix>3d</fix>
</trkpt>
<trkpt lat="40.072842" lon="-105.230575">
  <ele>1586.09</ele>
  <time>2026-08-28T19:06:43Z</time>
  <course>266.03</course>
  <speed>0.0</speed>
  <fix>3d</fix>
</trkpt>
<trkpt lat="40.0728419" lon="-105.2305749">
  <ele>1586.17</ele>
  <time>2026-08-28T19:06:43Z</time>
  <course>11.14</course>
  <speed>0.01414213562373095</speed>
  <fix>3d</fix>
</trkpt>
<trkpt lat="40.072842" lon="-105.230575">
  <ele>1586.09</ele>
  <time>2026-08-28T19:06:43Z</time>
  <course>266.03</course>
  <speed>0.0</speed>
  <fix>3d</fix>
</trkpt>
<trkpt lat="40.0728419" lon="-105.2305749">
  <ele>1586.17</ele>
  <time>2026-08-28T19:06:43Z</time>
  <course>11.14</course>
  <speed>0.01414213562373095</speed>
  <fix>3d</fix>
</trkpt>
<trkpt lat="40.072842" lon="-105.230575">
  <ele>1586.09</ele>
  <time>2026-08-28T19:06:43Z</time>
  <course>266.03</course>
  <speed>0.0</speed>
  <fix>3d</fix>
</trkpt>
<trkpt lat="40.0728419" lon="-105.2305749">
  <ele>1586.17</ele>
  <time>2026-08-28T19:06:43Z</time>
  <course>11.13</course>
  <speed>0.01414213562373095</speed>
  <fix>3d</fix>
</trkpt>
<trkpt lat="40.072842" lon="-105.230575">
  <ele>1586.09</ele>
  <time>2026-08-28T19:06:43Z</time>
  <course>266.03</course>
  <speed>0.0</speed>
  <fix>3d</fix>
</trkpt>
<trkpt lat="40.0728419" lon="-105.2305749">
  <ele>1586.17</ele>
  <time>2026-08-28T19:06:43Z</time>
  <course>11.13</course>
  <speed>0.01414213562373095</speed>
  <fix>3d</fix>
</trkpt>
<trkpt lat="40.072842" lon="-105.230575">
  <ele>1586.09</ele>
  <time>2026-08-28T19:06:43Z</time>
  <course>266.03</course>
  <speed>0.0</speed>
  <fix>3d</fix>
</trkpt>
<trkpt lat="40.0728419" lon="-105.2305749">
  <ele>1586.16</ele>
  <time>2026-08-28T19:06:43Z</time>
  <course>11.13</course>
  <speed>0.01414213562373095</speed>
  <fix>3d</fix>
</trkpt>
<trkpt lat="40.072842" lon="-105.230575">
  <ele>1586.09</ele>
  <time>2026-08-28T19:06:43Z</time>
  <course>266.03</course>
  <speed>0.0</speed>
  <fix>3d</fix>
</trkpt>
<trkpt lat="40.0728419" lon="-105.2305749">
  <ele>1586.16</ele>
  <time>2026-08-28T19:06:43Z</time>
  <course>11.12</course>
  <speed>0.01414213562373095</speed>
  <fix>3d</fix>
</trkpt>
<trkpt lat="40.072842" lon="-105.230575">
  <ele>1586.09</ele>
  <time>2026-08-28T19:06:43Z</time>
  <course>266.03</course>
  <speed>0.0</speed>
  <fix>3d</fix>
</trkpt>
<trkpt lat="40.0728419" lon="-105.2305749">
  <ele>1586.16</ele>
  <time>2026-08-28T19:06:43Z</time>
  <course>11.12</course>
  <speed>0.01414213562373095</speed>
  <fix>3d</fix>
</trkpt>
<trkpt lat="40.072842" lon="-105.230575">
  <ele>1586.09</ele>
  <time>2026-08-28T19:06:43Z</time>
  <course>266.03</course>
  <speed>0.0</speed>
  <fix>3d</fix>
</trkpt>
<trkpt lat="40.0728419" lon="-105.2305749">
  <ele>1586.16</ele>
  <time>2026-08-28T19:06:43Z</time>
  <course>11.12</course>
  <speed>0.01414213562373095</speed>
  <fix>3d</fix>
</trkpt>
<trkpt lat="40.072842" lon="-105.230575">
  <ele>1586.09</ele>
  <time>2026-08-28T19:06:43Z</time>
  <course>266.03</course>
  <speed>0.0</speed>
  <fix>3d</fix>
</trkpt>
<trkpt lat="39.654938" lon="-104.1331666">
  <ele>1569.54</ele>
  <time>2026-08-28T19:06:46Z</time>
  <course>168.11</course>
  <speed>0.0</speed>
  <fix>3d</fix>
</trkpt>
<trkpt lat="40.072842" lon="-105.230575">
  <ele>1586.09</ele>
  <time>2026-08-28T19:06:46Z</time>
  <course>2.05</course>
  <speed>0.0</speed>
  <fix>3d</fix>
</trkpt>
<trkpt lat="40.072842" lon="-105.230575">
  <ele>1586.09</ele>
  <time>2026-08-28T19:06:46Z</time>
  <course>238.4</course>
  <speed>0.0</speed>
  <fix>3d</fix>
</trkpt>
<trkpt lat="40.072842" lon="-105.230575">
  <ele>1586.09</ele>
  <time>2026-08-28T19:06:46Z</time>
  <course>2.59</course>
  <speed>0.0</speed>
  <fix>3d</fix>
</trkpt>
<trkpt lat="40.072842" lon="-105.230575">
  <ele>1586.09</ele>
  <time>2026-08-28T19:06:46Z</time>
  <course>194.29</course>
  <speed>0.0</speed>
  <fix>3d</fix>
</trkpt>
<trkpt lat="40.072842" lon="-105.230575">
  <ele>1586.09</ele>
  <time>2026-08-28T19:06:46Z</time>
  <course>3.33</course>
  <speed>0.0</speed>
  <fix>3d</fix>
</trkpt>
<trkpt lat="40.072842" lon="-105.230575">
  <ele>1586.09</ele>
  <time>2026-08-28T19:06:46Z</time>
  <course>193.66</course>
  <speed>0.0</speed>
  <fix>3d</fix>
</trkpt>
<trkpt lat="40.072842" lon="-105.230575">
  <ele>1586.09</ele>
  <time>2026-08-28T19:06:46Z</time>
  <course>4.0</course>
  <speed>0.0</speed>
  <fix>3d</fix>
</trkpt>
<trkpt lat="40.072842" lon="-105.230575">
  <ele>1586.09</ele>
  <time>2026-08-28T19:06:46Z</time>
  <course>303.54</course>
  <speed>0.0</speed>
  <fix>3d</fix>
</trkpt>
<trkpt lat="40.072842" lon="-105.230575">
  <ele>1586.09</ele>
  <time>2026-08-28T19:06:46Z</time>
  <course>4.61</course>
  <speed>0.0</speed>
  <fix>3d</fix>
</trkpt>
<trkpt lat="40.072842" lon="-105.230575">
  <ele>1586.09</ele>
  <time>2026-08-28T19:06:46Z</time>
  <course>110.94</course>
  <speed>0.0</speed>
  <fix>3d</fix>
</trkpt>
<trkpt lat="40.072842" lon="-105.230575">
  <ele>1586.09</ele>
  <time>2026-08-28T19:06:46Z</time>
  <course>5.19</course>
  <speed>0.0</speed>
  <fix>3d</fix>
</trkpt>
<trkpt lat="40.072842" lon="-105.230575">
  <ele>1586.09</ele>
  <time>2026-08-28T19:06:46Z</time>
  <course>191.21</course>
  <speed>0.0</speed>
  <fix>3d</fix>
</trkpt>
<trkpt lat="40.072842" lon="-105.230575">
  <ele>1586.09</ele>
  <time>2026-08-28T19:06:46Z</time>
  <course>5.74</course>
  <speed>0.0</speed>
  <fix>3d</fix>
</trkpt>
<trkpt lat="40.072842" lon="-105.230575">
  <ele>1586.09</ele>
  <time>2026-08-28T19:06:46Z</time>
  <course>252.23</course>
  <speed>0.0</speed>
  <fix>3d</fix>
</trkpt>
<trkpt lat="40.072842" lon="-105.230575">
  <ele>1586.09</ele>
  <time>2026-08-28T19:06:46Z</time>
  <course>6.26</course>
  <speed>0.0</speed>
  <fix>3d</fix>
</trkpt>
<trkpt lat="40.072842" lon="-105.230575">
  <ele>1586.09</ele>
  <time>2026-08-28T19:06:46Z</time>
  <course>170.36</course>
  <speed>0.0</speed>
  <fix>3d</fix>
</trkpt>
<trkpt lat="40.072842" lon="-105.230575">
  <ele>1586.09</ele>
  <time>2026-08-28T19:06:46Z</time>
  <course>6.75</course>
  <speed>0.0</speed>
  <fix>3d</fix>
</trkpt>
<trkpt lat="40.072842" lon="-105.230575">
  <ele>1586.09</ele>
  <time>2026-08-28T19:06:46Z</time>
  <course>179.36</course>
  <speed>0.0</speed>
  <fix>3d</fix>
</trkpt>
<trkpt lat="40.072842" lon="-105.230575">
  <ele>1586.09</ele>
  <time>2026-08-28T19:06:46Z</time>
  <course>7.2</course>
  <speed>0.0</speed>
  <fix>3d</fix>
</trkpt>
<trkpt lat="40.072842" lon="-105.230575">
  <ele>1586.09</ele>
  <time>2026-08-28T19:06:46Z</time>
  <course>19.98</course>
  <speed>0.0</speed>
  <fix>3d</fix>
</trkpt>
<trkpt lat="40.072842" lon="-105.230575">
  <ele>1586.09</ele>
  <time>2026-08-28T19:06:46Z</time>
  <course>7.62</course>
  <speed>0.0</speed>
  <fix>3d</fix>
</trkpt>
<trkpt lat="40.072842" lon="-105.230575">
  <ele>1586.09</ele>
  <time>2026-08-28T19:06:46Z</time>
  <course>17.49</course>
  <speed>0.0</speed>
  <fix>3d</fix>
</trkpt>
<trkpt lat="40.072842" lon="-105.230575">
  <ele>1586.09</ele>
  <time>2026-08-28T19:06:46Z</time>
  <course>8.01</course>
  <speed>0.0</speed>
  <fix>3d</fix>
</trkpt>
<trkpt lat="40.072842" lon="-105.230575">
  <ele>1586.09</ele>
  <time>2026-08-28T19:06:46Z</time>
  <course>356.19</course>
  <speed>0.0</speed>
  <fix>3d</fix>
</trkpt>
<trkpt lat="40.072842" lon="-105.230575">
  <ele>1586.09</ele>
  <time>2026-08-28T19:06:46Z</time>
  <course>8.37</course>
  <speed>0.0</speed>
  <fix>3d</fix>
</trkpt>
<trkpt lat="40.072842" lon="-105.230575">
  <ele>1586.09</ele>
  <time>2026-08-28T19:06:46Z</time>
  <course>77.32</course>
  <speed>0.0</speed>
  <fix>3d</fix>
</trkpt>
<trkpt lat="40.072842" lon="-105.230575">
  <ele>1586.09</ele>
  <time>2026-08-28T19:06:46Z</time>
  <course>8.7</course>
  <speed>0.0</speed>
  <fix>3d</fix>
</trkpt>
<trkpt lat="40.072842" lon="-105.230575">
  <ele>1586.09</ele>
  <time>2026-08-28T19:06:46Z</time>
  <course>290.54</course>
  <speed>0.0</speed>
  <fix>3d</fix>
</trkpt>
<trkpt lat="40.072842" lon="-105.230575">
  <ele>1586.09</ele>
  <time>2026-08-28T19:06:46Z</time>
  <course>9.01</course>
  <speed>0.0</speed>
  <fix>3d</fix>
</trkpt>
<trkpt lat="40.072842" lon="-105.230575">
  <ele>1586.09</ele>
  <time>2026-08-28T19:06:46Z</time>
  <course>338.69</course>
  <speed>0.0</speed>
  <fix>3d</fix>
</trkpt>
<trkpt lat="40.072842" lon="-105.230575">
  <ele>1586.09</ele>
  <time>2026-08-28T19:06:46Z</time>
  <course>9.29</course>
  <speed>0.0</speed>
  <fix>3d</fix>
</trkpt>
<trkpt lat="40.072842" lon="-105.230575">
  <ele>1586.09</ele>
  <time>2026-08-28T19:06:46Z</time>
  <course>326.81</course>
  <speed>0.0</speed>
  <fix>3d</fix>
</trkpt>
<trkpt lat="40.072842" lon="-105.230575">
  <ele>1586.09</ele>
  <time>2026-08-28T19:06:46Z</time>
  <course>9.55</course>
  <speed>0.0</speed>
  <fix>3d</fix>
</trkpt>
<trkpt lat="40.072842" lon="-105.230575">
  <ele>1586.09</ele>
  <time>2026-08-28T19:06:46Z</time>
  <course>262.23</course>
  <speed>0.0</speed>
  <fix>3d</fix>
</trkpt>
<trkpt lat="40.072842" lon="-105.230575">
  <ele>1586.09</ele>
  <time>2026-08-28T19:06:46Z</time>
  <course>9.79</course>
  <speed>0.0</speed>
  <fix>3d</fix>
</trkpt>
<trkpt lat="40.072842" lon="-105.230575">
  <ele>1586.09</ele>
  <time>2026-08-28T19:06:46Z</time>
  <course>159.08</course>
  <speed>0.0</speed>
  <fix>3d</fix>
</trkpt>
<trkpt lat="40.072842" lon="-105.230575">
  <ele>1586.09</ele>
  <time>2026-08-28T19:06:46Z</time>
  <course>10.01</course>
  <speed>0.0</speed>
  <fix>3d</fix>
</trkpt>
<trkpt lat="40.072842" lon="-105.230575">
  <ele>1586.09</ele>
  <time>2026-08-28T19:06:46Z</time>
  <course>287.98</course>
  <speed>0.0</speed>
  <fix>3d</fix>
</trkpt>
<trkpt lat="40.072842" lon="-105.230575">
  <ele>1586.09</ele>
  <time>2026-08-28T19:06:46Z</time>
  <course>10.21</course>
  <speed>0.0</speed>
  <fix>3d</fix>
</trkpt>
<trkpt lat="40.072842" lon="-105.230575">
  <ele>1586.09</ele>
  <time>2026-08-28T19:06:46Z</time>
  <course>278.3</course>
  <speed>0.0</speed>
  <fix>3d</fix>
</trkpt>
<trkpt lat="40.072842" lon="-105.230575">
  <ele>1586.09</ele>
  <time>2026-08-28T19:06:46Z</time>
  <course>10.39</course>
  <speed>0.0</speed>
  <fix>3d</fix>
</trkpt>
<trkpt lat="40.072842" lon="-105.230575">
  <ele>1586.09</ele>
  <time>2026-08-28T19:06:46Z</time>
  <course>261.72</course>
  <speed>0.0</speed>
  <fix>3d</fix>
</trkpt>
<trkpt lat="40.072842" lon="-105.230575">
  <ele>1586.09</ele>
  <time>2026-08-28T19:06:46Z</time>
  <course>10.56</course>
  <speed>0.0</speed>
  <fix>3d</fix>
</trkpt>
<trkpt lat="40.072842" lon="-105.230575">
  <ele>1586.09</ele>
  <time>2026-08-28T19:06:46Z</time>
  <course>264.4</course>
  <speed>0.0</speed>
  <fix>3d</fix>
</trkpt>
<trkpt lat="40.072842" lon="-105.230575">
  <ele>1586.09</ele>
  <time>2026-08-28T19:06:46Z</time>
  <course>10.71</course>
  <speed>0.0</speed>
  <fix>3d</fix>
</trkpt>
<trkpt lat="40.072842" lon="-105.230575">
  <ele>1586.09</ele>
  <time>2026-08-28T19:06:46Z</time>
  <course>266.8</course>
  <speed>0.0</speed>
  <fix>3d</fix>
</trkpt>
<trkpt lat="40.072842" lon="-105.230575">
  <ele>1586.09</ele>
  <time>2026-08-28T19:06:46Z</time>
  <course>10.85</course>
  <speed>0.0</speed>
  <fix>3d</fix>
</trkpt>
<trkpt lat="40.072842" lon="-105.230575">
  <ele>1586.09</ele>
  <time>2026-08-28T19:06:46Z</time>
  <course>266.15</course>
  <speed>0.0</speed>
  <fix>3d</fix>
</trkpt>
<trkpt lat="40.072842" lon="-105.230575">
  <ele>1586.09</ele>
  <time>2026-08-28T19:06:46Z</time>
  <course>10.98</course>
  <speed>0.0</speed>
  <fix>3d</fix>
</trkpt>
<trkpt lat="40.072842" lon="-105.230575">
  <ele>1586.09</ele>
  <time>2026-08-28T19:06:46Z</time>
  <course>265.92</course>
  <speed>0.0</speed>
  <fix>3d</fix>
</trkpt>
<trkpt lat="40.072842" lon="-105.230575">
  <ele>1586.09</ele>
  <time>2026-08-28T19:06:46Z</time>
  <course>11.1</course>
  <speed>0.0</speed>
  <fix>3d</fix>
</trkpt>
<trkpt lat="40.072842" lon="-105.230575">
  <ele>1586.09</ele>
  <time>2026-08-28T19:06:46Z</time>
  <course>266.03</course>
  <speed>0.0</speed>
  <fix>3d</fix>
</trkpt>
<trkpt lat="40.072842" lon="-105.230575">
  <ele>1586.09</ele>
  <time>2026-08-28T19:06:46Z</time>
  <course>11.21</course>
  <speed>0.0</speed>
  <fix>3d</fix>
</trkpt>
<trkpt lat="40.072842" lon="-105.230575">
  <ele>1586.09</ele>
  <time>2026-08-28T19:06:46Z</time>
  <course>266.05</course>
  <speed>0.0</speed>
  <fix>3d</fix>
</trkpt>
<trkpt lat="40.072842" lon="-105.230575">
  <ele>1586.09</ele>
  <time>2026-08-28T19:06:46Z</time>
  <course>11.31</course>
  <speed>0.0</speed>
  <fix>3d</fix>
</trkpt>
<trkpt lat="40.072842" lon="-105.230575">
  <ele>1586.09</ele>
  <time>2026-08-28T19:06:46Z</time>
  <course>266.03</course>
  <speed>0.0</speed>
  <fix>3d</fix>
</trkpt>
<trkpt lat="40.072842" lon="-105.230575">
  <ele>1586.09</ele>
  <time>2026-08-28T19:06:46Z</time>
  <course>11.39</course>
  <speed>0.0</speed>
  <fix>3d</fix>
</trkpt>
<trkpt lat="40.072842" lon="-105.230575">
  <ele>1586.09</ele>
  <time>2026-08-28T19:06:46Z</time>
  <course>266.03</course>
  <speed>0.0</speed>
  <fix>3d</fix>
</trkpt>
<trkpt lat="40.072842" lon="-105.230575">
  <ele>1586.09</ele>
  <time>2026-08-28T19:06:46Z</time>
  <course>11.47</course>
  <speed>0.0</speed>
  <fix>3d</fix>
</trkpt>
<trkpt lat="40.072842" lon="-105.230575">
  <ele>1586.09</ele>
  <time>2026-08-28T19:06:46Z</time>
  <course>266.03</course>
  <speed>0.0</speed>
  <fix>3d</fix>
</trkpt>
<trkpt lat="40.072842" lon="-105.230575">
  <ele>1586.09</ele>
  <time>2026-08-28T19:06:46Z</time>
  <course>11.55</course>
  <speed>0.0</speed>
  <fix>3d</fix>
</trkpt>
<trkpt lat="40.072842" lon="-105.230575">
  <ele>1586.09</ele>
  <time>2026-08-28T19:06:46Z</time>
  <course>266.03</course>
  <speed>0.0</speed>
  <fix>3d</fix>
</trkpt>
<trkpt lat="40.072842" lon="-105.230575">
  <ele>1586.09</ele>
  <time>2026-08-28T19:06:46Z</time>
  <course>11.61</course>
  <speed>0.0</speed>
  <fix>3d</fix>
</trkpt>
<trkpt lat="40.072842" lon="-105.230575">
  <ele>1586.09</ele>
  <time>2026-08-28T19:06:46Z</time>
  <course>266.03</course>
  <speed>0.0</speed>
  <fix>3d</fix>
</trkpt>
<trkpt lat="40.072842" lon="-105.230575">
  <ele>1586.09</ele>
  <time>2026-08-28T19:06:46Z</time>
  <course>11.67</course>
  <speed>0.0</speed>
  <fix>3d</fix>
</trkpt>
<trkpt lat="40.072842" lon="-105.230575">
  <ele>1586.09</ele>
  <time>2026-08-28T19:06:46Z</time>
  <course>266.03</course>
  <speed>0.0</speed>
  <fix>3d</fix>
</trkpt>
<trkpt lat="40.072842" lon="-105.230575">
  <ele>1586.09</ele>
  <time>2026-08-28T19:06:46Z</time>
  <course>11.73</course>
  <speed>0.0</speed>
  <fix>3d</fix>
</trkpt>
<trkpt lat="40.072842" lon="-105.230575">
  <ele>1586.09</ele>
  <time>2026-08-28T19:06:46Z</time>
  <course>266.03</course>
  <speed>0.0</speed>
  <fix>3d</fix>
</trkpt>
<trkpt lat="40.072842" lon="-105.230575">
  <ele>1586.09</ele>
  <time>2026-08-28T19:06:46Z</time>
  <course>11.78</course>
  <speed>0.0</speed>
  <fix>3d</fix>
</trkpt>
<trkpt lat="40.072842" lon="-105.230575">
  <ele>1586.09</ele>
  <time>2026-08-28T19:06:46Z</time>
  <course>266.03</course>
  <speed>0.0</speed>
  <fix>3d</fix>
</trkpt>
<trkpt lat="40.072842" lon="-105.230575">
  <ele>1586.09</ele>
  <time>2026-08-28T19:06:46Z</time>
  <course>11.82</course>
  <speed>0.0</speed>
  <fix>3d</fix>
</trkpt>
<trkpt lat="40.072842" lon="-105.230575">
  <ele>1586.09</ele>
  <time>2026-08-28T19:06:46Z</time>
  <course>266.03</course>
  <speed>0.0</speed>
  <fix>3d</fix>
</trkpt>
<trkpt lat="40.072842" lon="-105.230575">
  <ele>1586.09</ele>
  <time>2026-08-28T19:06:46Z</time>
  <course>11.86</course>
  <speed>0.0</speed>
  <fix>3d</fix>
</trkpt>
<trkpt lat="40.072842" lon="-105.230575">
  <ele>1586.09</ele>
  <time>2026-08-28T19:06:46Z</time>
  <course>266.03</course>
  <speed>0.0</speed>
  <fix>3d</fix>
</trkpt>
<trkpt lat="40.072842" lon="-105.230575">
  <ele>1586.09</ele>
  <time>2026-08-28T19:06:46Z</time>
  <course>11.9</course>
  <speed>0.0</speed>
  <fix>3d</fix>
</trkpt>
<trkpt lat="40.072842" lon="-105.230575">
  <ele>1586.09</ele>
  <time>2026-08-28T19:06:46Z</time>
  <course>266.03</course>
  <speed>0.0</speed>
  <fix>3d</fix>
</trkpt>
<trkpt lat="40.072842" lon="-105.230575">
  <ele>1586.09</ele>
  <time>2026-08-28T19:06:46Z</time>
  <course>11.93</course>
  <speed>0.0</speed>
  <fix>3d</fix>
</trkpt>
<trkpt lat="40.072842" lon="-105.230575">
  <ele>1586.09</ele>
  <time>2026-08-28T19:06:46Z</time>
  <course>266.03</course>
  <speed>0.0</speed>
  <fix>3d</fix>
</trkpt>
<trkpt lat="40.072842" lon="-105.230575">
  <ele>1586.09</ele>
  <time>2026-08-28T19:06:46Z</time>
  <course>11.96</course>
  <speed>0.0</speed>
  <fix>3d</fix>
</trkpt>
<trkpt lat="40.072842" lon="-105.230575">
  <ele>1586.09</ele>
  <time>2026-08-28T19:06:46Z</time>
  <course>266.03</course>
  <speed>0.0</speed>
  <fix>3d</fix>
</trkpt>
<trkpt lat="40.072842" lon="-105.230575">
  <ele>1586.09</ele>
  <time>2026-08-28T19:06:46Z</time>
  <course>11.98</course>
  <speed>0.0</speed>
  <fix>3d</fix>
</trkpt>
<trkpt lat="40.072842" lon="-105.230575">
  <ele>1586.09</ele>
  <time>2026-08-28T19:06:46Z</time>
  <course>266.03</course>
  <speed>0.0</speed>
  <fix>3d</fix>
</trkpt>
<trkpt lat="40.072842" lon="-105.230575">
  <ele>1586.09</ele>
  <time>2026-08-28T19:06:46Z</time>
  <course>12.01</course>
  <speed>0.0</speed>
  <fix>3d</fix>
</trkpt>
<trkpt lat="40.072842" lon="-105.230575">
  <ele>1586.09</ele>
  <time>2026-08-28T19:06:46Z</time>
  <course>266.03</course>
  <speed>0.0</speed>
  <fix>3d</fix>
</trkpt>
<trkpt lat="40.072842" lon="-105.230575">
  <ele>1586.09</ele>
  <time>2026-08-28T19:06:46Z</time>
  <course>12.03</course>
  <speed>0.0</speed>
  <fix>3d</fix>
</trkpt>
<trkpt lat="40.072842" lon="-105.230575">
  <ele>1586.09</ele>
  <time>2026-08-28T19:06:46Z</time>
  <course>266.03</course>
  <speed>0.0</speed>
  <fix>3d</fix>
</trkpt>
<trkpt lat="40.072842" lon="-105.230575">
  <ele>1586.09</ele>
  <time>2026-08-28T19:06:46Z</time>
  <course>12.04</course>
  <speed>0.0</speed>
  <fix>3d</fix>
</trkpt>
<trkpt lat="40.072842" lon="-105.230575">
  <ele>1586.09</ele>
  <time>2026-08-28T19:06:46Z</time>
  <course>266.03</course>
  <speed>0.0</speed>
  <fix>3d</fix>
</trkpt>
<trkpt lat="40.072842" lon="-105.230575">
  <ele>1586.09</ele>
  <time>2026-08-28T19:06:46Z</time>
  <course>12.06</course>
  <speed>0.0</speed>
  <fix>3d</fix>
</trkpt>
<trkpt lat="40.072842" lon="-105.230575">
  <ele>1586.09</ele>
  <time>2026-08-28T19:06:46Z</time>
  <course>266.03</course>
  <speed>0.0</speed>
  <fix>3d</fix>
</trkpt>
<trkpt lat="40.072842" lon="-105.230575">
  <ele>1586.09</ele>
  <time>2026-08-28T19:06:46Z</time>
  <course>12.07</course>
  <speed>0.0</speed>
  <fix>3d</fix>
</trkpt>
<trkpt lat="40.072842" lon="-105.230575">
  <ele>1586.09</ele>
  <time>2026-08-28T19:06:46Z</time>
  <course>266.03</course>
  <speed>0.0</speed>
  <fix>3d</fix>
</trkpt>
<trkpt lat="40.072842" lon="-105.230575">
  <ele>1586.09</ele>
  <time>2026-08-28T19:06:46Z</time>
  <course>12.08</course>
  <speed>0.0</speed>
  <fix>3d</fix>
</trkpt>
<trkpt lat="40.072842" lon="-105.230575">
  <ele>1586.09</ele>
  <time>2026-08-28T19:06:46Z</time>
  <course>266.03</course>
  <speed>0.0</speed>
  <fix>3d</fix>
</trkpt>
<trkpt lat="40.072842" lon="-105.230575">
  <ele>1586.09</ele>
  <time>2026-08-28T19:06:46Z</time>
  <course>12.09</course>
  <speed>0.0</speed>
  <fix>3d</fix>
</trkpt>
<trkpt lat="40.072842" lon="-105.230575">
  <ele>1586.09</ele>
  <time>2026-08-28T19:06:46Z</time>
  <course>266.03</course>
  <speed>0.0</speed>
  <fix>3d</fix>
</trkpt>
<trkpt lat="40.072842" lon="-105.230575">
  <ele>1586.09</ele>
  <time>2026-08-28T19:06:46Z</time>
  <course>12.1</course>
  <speed>0.0</speed>
  <fix>3d</fix>
</trkpt>
<trkpt lat="40.072842" lon="-105.230575">
  <ele>1586.09</ele>
  <time>2026-08-28T19:06:46Z</time>
  <course>266.03</course>
  <speed>0.0</speed>
  <fix>3d</fix>
</trkpt>
<trkpt lat="40.072842" lon="-105.230575">
  <ele>1586.09</ele>
  <time>2026-08-28T19:06:46Z</time>
  <course>12.11</course>
  <speed>0.0</speed>
  <fix>3d</fix>
</trkpt>
<trkpt lat="40.072842" lon="-105.230575">
  <ele>1586.09</ele>
  <time>2026-08-28T19:06:46Z</time>
  <course>266.03</course>
  <speed>0.0</speed>
  <fix>3d</fix>
</trkpt>
<trkpt lat="40.072842" lon="-105.230575">
  <ele>1586.09</ele>
  <time>2026-08-28T19:06:46Z</time>
  <course>12.12</course>
  <speed>0.0</speed>
  <fix>3d</fix>
</trkpt>
<trkpt lat="40.072842" lon="-105.230575">
  <ele>1586.09</ele>
  <time>2026-08-28T19:06:46Z</time>
  <course>266.03</course>
  <speed>0.0</speed>
  <fix>3d</fix>
</trkpt>
<trkpt lat="40.072842" lon="-105.230575">
  <ele>1586.09</ele>
  <time>2026-08-28T19:06:46Z</time>
  <course>12.12</course>
  <speed>0.0</speed>
  <fix>3d</fix>
</trkpt>
<trkpt lat="40.072842" lon="-105.230575">
  <ele>1586.09</ele>
  <time>2026-08-28T19:06:46Z</time>
  <course>266.03</course>
  <speed>0.0</speed>
  <fix>3d</fix>
</trkpt>
<trkpt lat="40.072842" lon="-105.230575">
  <ele>1586.09</ele>
  <time>2026-08-28T19:06:46Z</time>
  <course>12.13</course>
  <speed>0.0</speed>
  <fix>3d</fix>
</trkpt>
<trkpt lat="40.072842" lon="-105.230575">
  <ele>1586.09</ele>
  <time>2026-08-28T19:06:46Z</time>
  <course>266.03</course>
  <speed>0.0</speed>
  <fix>3d</fix>
</trkpt>
<trkpt lat="40.072842" lon="-105.230575">
  <ele>1586.09</ele>
  <time>2026-08-28T19:06:46Z</time>
  <course>12.13</course>
  <speed>0.0</speed>
  <fix>3d</fix>
</trkpt>
<trkpt lat="40.072842" lon="-105.230575">
  <ele>1586.09</ele>
  <time>2026-08-28T19:06:46Z</time>
  <course>266.03</course>
  <speed>0.0</speed>
  <fix>3d</fix>
</trkpt>
<trkpt lat="40.072842" lon="-105.230575">
  <ele>1586.09</ele>
  <time>2026-08-28T19:06:46Z</time>
  <course>12.13</course>
  <speed>0.0</speed>
  <fix>3d</fix>
</trkpt>
<trkpt lat="40.072842" lon="-105.230575">
  <ele>1586.09</ele>
  <time>2026-08-28T19:06:46Z</time>
  <course>266.03</course>
  <speed>0.0</speed>
  <fix>3d</fix>
</trkpt>
<trkpt lat="40.072842" lon="-105.230575">
  <ele>1586.09</ele>
  <time>2026-08-28T19:06:46Z</time>
  <course>12.13</course>
  <speed>0.0</speed>
  <fix>3d</fix>
</trkpt>
<trkpt lat="40.072842" lon="-105.230575">
  <ele>1586.09</ele>
  <time>2026-08-28T19:06:46Z</time>
  <course>266.03</course>
  <speed>0.0</speed>
  <fix>3d</fix>
</trkpt>
<trkpt lat="40.072842" lon="-105.230575">
  <ele>1586.09</ele>
  <time>2026-08-28T19:06:46Z</time>
  <course>12.13</course>
  <speed>0.0</speed>
  <fix>3d</fix>
</trkpt>
<trkpt lat="40.072842" lon="-105.230575">
  <ele>1586.09</ele>
  <time>2026-08-28T19:06:46Z</time>
  <course>266.03</course>
  <speed>0.0</speed>
  <fix>3d</fix>
</trkpt>
<trkpt lat="40.072842" lon="-105.230575">
  <ele>1586.09</ele>
  <time>2026-08-28T19:06:46Z</time>
  <course>12.13</course>
  <speed>0.01</speed>
  <fix>3d</fix>
</trkpt>
<trkpt lat="40.072842" lon="-105.230575">
  <ele>1586.09</ele>
  <time>2026-08-28T19:06:46Z</time>
  <course>266.03</course>
  <speed>0.0</speed>
  <fix>3d</fix>
</trkpt>
<trkpt lat="40.072842" lon="-105.230575">
  <ele>1586.09</ele>
  <time>2026-08-28T19:06:46Z</time>
  <course>12.12</course>
  <speed>0.01</speed>
  <fix>3d</fix>
</trkpt>
<trkpt lat="40.072842" lon="-105.230575">
  <ele>1586.09</ele>
  <time>2026-08-28T19:06:46Z</time>
  <course>266.03</course>
  <speed>0.0</speed>
  <fix>3d</fix>
</trkpt>
<trkpt lat="40.072842" lon="-105.230575">
  <ele>1586.09</ele>
  <time>2026-08-28T19:06:46Z</time>
  <course>12.12</course>
  <speed>0.01</speed>
  <fix>3d</fix>
</trkpt>
<trkpt lat="40.072842" lon="-105.230575">
  <ele>1586.09</ele>
  <time>2026-08-28T19:06:46Z</time>
  <course>266.03</course>
  <speed>0.0</speed>
  <fix>3d</fix>
</trkpt>
<trkpt lat="40.072842" lon="-105.230575">
  <ele>1586.09</ele>
  <time>2026-08-28T19:06:46Z</time>
  <course>12.12</course>
  <speed>0.01</speed>
  <fix>3d</fix>
</trkpt>
<trkpt lat="40.072842" lon="-105.230575">
  <ele>1586.09</ele>
  <time>2026-08-28T19:06:46Z</time>
  <course>266.03</course>
  <speed>0.0</speed>
  <fix>3d</fix>
</trkpt>
<trkpt lat="40.072842" lon="-105.230575">
  <ele>1586.09</ele>
  <time>2026-08-28T19:06:46Z</time>
  <course>12.11</course>
  <speed>0.01</speed>
  <fix>3d</fix>
</trkpt>
<trkpt lat="40.072842" lon="-105.230575">
  <ele>1586.09</ele>
  <time>2026-08-28T19:06:46Z</time>
  <course>266.03</course>
  <speed>0.0</speed>
  <fix>3d</fix>
</trkpt>
<trkpt lat="40.072842" lon="-105.230575">
  <ele>1586.09</ele>
  <time>2026-08-28T19:06:46Z</time>
  <course>12.11</course>
  <speed>0.01</speed>
  <fix>3d</fix>
</trkpt>
<trkpt lat="40.072842" lon="-105.230575">
  <ele>1586.09</ele>
  <time>2026-08-28T19:06:46Z</time>
  <course>266.03</course>
  <speed>0.0</speed>
  <fix>3d</fix>
</trkpt>
<trkpt lat="40.072842" lon="-105.230575">
  <ele>1586.09</ele>
  <time>2026-08-28T19:06:46Z</time>
  <course>12.11</course>
  <speed>0.01</speed>
  <fix>3d</fix>
</trkpt>
<trkpt lat="40.072842" lon="-105.230575">
  <ele>1586.09</ele>
  <time>2026-08-28T19:06:46Z</time>
  <course>266.03</course>
  <speed>0.0</speed>
  <fix>3d</fix>
</trkpt>
<trkpt lat="40.072842" lon="-105.230575">
  <ele>1586.09</ele>
  <time>2026-08-28T19:06:46Z</time>
  <course>12.1</course>
  <speed>0.01</speed>
  <fix>3d</fix>
</trkpt>
<trkpt lat="40.072842" lon="-105.230575">
  <ele>1586.09</ele>
  <time>2026-08-28T19:06:46Z</time>
  <course>266.03</course>
  <speed>0.0</speed>
  <fix>3d</fix>
</trkpt>
<trkpt lat="40.072842" lon="-105.230575">
  <ele>1586.09</ele>
  <time>2026-08-28T19:06:46Z</time>
  <course>12.1</course>
  <speed>0.01</speed>
  <fix>3d</fix>
</trkpt>
<trkpt lat="40.072842" lon="-105.230575">
  <ele>1586.09</ele>
  <time>2026-08-28T19:06:46Z</time>
  <course>266.03</course>
  <speed>0.0</speed>
  <fix>3d</fix>
</trkpt>
<trkpt lat="40.072842" lon="-105.230575">
  <ele>1586.09</ele>
  <time>2026-08-28T19:06:46Z</time>
  <course>12.09</course>
  <speed>0.01</speed>
  <fix>3d</fix>
</trkpt>
<trkpt lat="40.072842" lon="-105.230575">
  <ele>1586.09</ele>
  <time>2026-08-28T19:06:46Z</time>
  <course>266.03</course>
  <speed>0.0</speed>
  <fix>3d</fix>
</trkpt>
<trkpt lat="40.072842" lon="-105.230575">
  <ele>1586.09</ele>
  <time>2026-08-28T19:06:46Z</time>
  <course>12.08</course>
  <speed>0.01414213562373095</speed>
  <fix>3d</fix>
</trkpt>
<trkpt lat="40.072842" lon="-105.230575">
  <ele>1586.09</ele>
  <time>2026-08-28T19:06:46Z</time>
  <course>266.03</course>
  <speed>0.0</speed>
  <fix>3d</fix>
</trkpt>
<trkpt lat="40.072842" lon="-105.230575">
  <ele>1586.09</ele>
  <time>2026-08-28T19:06:46Z</time>
  <course>12.08</course>
  <speed>0.01414213562373095</speed>
  <fix>3d</fix>
</trkpt>
<trkpt lat="40.072842" lon="-105.230575">
  <ele>1586.09</ele>
  <time>2026-08-28T19:06:46Z</time>
  <course>266.03</course>
  <speed>0.0</speed>
  <fix>3d</fix>
</trkpt>
<trkpt lat="40.072842" lon="-105.230575">
  <ele>1586.09</ele>
  <time>2026-08-28T19:06:46Z</time>
  <course>12.07</course>
  <speed>0.01414213562373095</speed>
  <fix>3d</fix>
</trkpt>
<trkpt lat="40.072842" lon="-105.230575">
  <ele>1586.09</ele>
  <time>2026-08-28T19:06:46Z</time>
  <course>266.03</course>
  <speed>0.0</speed>
  <fix>3d</fix>
</trkpt>
<trkpt lat="40.072842" lon="-105.230575">
  <ele>1586.09</ele>
  <time>2026-08-28T19:06:46Z</time>
  <course>12.06</course>
  <speed>0.01414213562373095</speed>
  <fix>3d</fix>
</trkpt>
<trkpt lat="40.072842" lon="-105.230575">
  <ele>1586.09</ele>
  <time>2026-08-28T19:06:46Z</time>
  <course>266.03</course>
  <speed>0.0</speed>
  <fix>3d</fix>
</trkpt>
<trkpt lat="40.072842" lon="-105.230575">
  <ele>1586.09</ele>
  <time>2026-08-28T19:06:46Z</time>
  <course>12.05</course>
  <speed>0.01414213562373095</speed>
  <fix>3d</fix>
</trkpt>
<trkpt lat="40.072842" lon="-105.230575">
  <ele>1586.09</ele>
  <time>2026-08-28T19:06:46Z</time>
  <course>266.03</course>
  <speed>0.0</speed>
  <fix>3d</fix>
</trkpt>
<trkpt lat="40.072842" lon="-105.230575">
  <ele>1586.09</ele>
  <time>2026-08-28T19:06:46Z</time>
  <course>12.05</course>
  <speed>0.01414213562373095</speed>
  <fix>3d</fix>
</trkpt>
<trkpt lat="40.072842" lon="-105.230575">
  <ele>1586.09</ele>
  <time>2026-08-28T19:06:46Z</time>
  <course>266.03</course>
  <speed>0.0</speed>
  <fix>3d</fix>
</trkpt>
<trkpt lat="40.072842" lon="-105.230575">
  <ele>1586.09</ele>
  <time>2026-08-28T19:06:46Z</time>
  <course>12.04</course>
  <speed>0.01414213562373095</speed>
  <fix>3d</fix>
</trkpt>
<trkpt lat="40.072842" lon="-105.230575">
  <ele>1586.09</ele>
  <time>2026-08-28T19:06:46Z</time>
  <course>266.03</course>
  <speed>0.0</speed>
  <fix>3d</fix>
</trkpt>
<trkpt lat="40.072842" lon="-105.230575">
  <ele>1586.09</ele>
  <time>2026-08-28T19:06:46Z</time>
  <course>12.03</course>
  <speed>0.01414213562373095</speed>
  <fix>3d</fix>
</trkpt>
<trkpt lat="40.072842" lon="-105.230575">
  <ele>1586.09</ele>
  <time>2026-08-28T19:06:46Z</time>
  <course>266.03</course>
  <speed>0.0</speed>
  <fix>3d</fix>
</trkpt>
<trkpt lat="40.072842" lon="-105.230575">
  <ele>1586.09</ele>
  <time>2026-08-28T19:06:46Z</time>
  <course>12.03</course>
  <speed>0.01414213562373095</speed>
  <fix>3d</fix>
</trkpt>
<trkpt lat="40.072842" lon="-105.230575">
  <ele>1586.09</ele>
  <time>2026-08-28T19:06:46Z</time>
  <course>266.03</course>
  <speed>0.0</speed>
  <fix>3d</fix>
</trkpt>
<trkpt lat="40.072842" lon="-105.230575">
  <ele>1586.09</ele>
  <time>2026-08-28T19:06:46Z</time>
  <course>12.02</course>
  <speed>0.01414213562373095</speed>
  <fix>3d</fix>
</trkpt>
<trkpt lat="40.072842" lon="-105.230575">
  <ele>1586.09</ele>
  <time>2026-08-28T19:06:46Z</time>
  <course>266.03</course>
  <speed>0.0</speed>
  <fix>3d</fix>
</trkpt>
<trkpt lat="40.072842" lon="-105.230575">
  <ele>1586.09</ele>
  <time>2026-08-28T19:06:46Z</time>
  <course>12.01</course>
  <speed>0.01414213562373095</speed>
  <fix>3d</fix>
</trkpt>
<trkpt lat="40.072842" lon="-105.230575">
  <ele>1586.09</ele>
  <time>2026-08-28T19:06:46Z</time>
  <course>266.03</course>
  <speed>0.0</speed>
  <fix>3d</fix>
</trkpt>
<trkpt lat="40.072842" lon="-105.230575">
  <ele>1586.09</ele>
  <time>2026-08-28T19:06:46Z</time>
  <course>12.01</course>
  <speed>0.01414213562373095</speed>
  <fix>3d</fix>
</trkpt>
<trkpt lat="40.072842" lon="-105.230575">
  <ele>1586.09</ele>
  <time>2026-08-28T19:06:46Z</time>
  <course>266.03</course>
  <speed>0.0</speed>
  <fix>3d</fix>
</trkpt>
<trkpt lat="40.072842" lon="-105.230575">
  <ele>1586.09</ele>
  <time>2026-08-28T19:06:46Z</time>
  <course>12.0</course>
  <speed>0.01414213562373095</speed>
  <fix>3d</fix>
</trkpt>
<trkpt lat="40.072842" lon="-105.230575">
  <ele>1586.09</ele>
  <time>2026-08-28T19:06:46Z</time>
  <course>266.03</course>
  <speed>0.0</speed>
  <fix>3d</fix>
</trkpt>
<trkpt lat="40.072842" lon="-105.230575">
  <ele>1586.09</ele>
  <time>2026-08-28T19:06:46Z</time>
  <course>11.99</course>
  <speed>0.01414213562373095</speed>
  <fix>3d</fix>
</trkpt>
<trkpt lat="40.072842" lon="-105.230575">
  <ele>1586.09</ele>
  <time>2026-08-28T19:06:46Z</time>
  <course>266.03</course>
  <speed>0.0</speed>
  <fix>3d</fix>
</trkpt>
<trkpt lat="40.072842" lon="-105.230575">
  <ele>1586.09</ele>
  <time>2026-08-28T19:06:46Z</time>
  <course>11.98</course>
  <speed>0.01414213562373095</speed>
  <fix>3d</fix>
</trkpt>
<trkpt lat="40.072842" lon="-105.230575">
  <ele>1586.09</ele>
  <time>2026-08-28T19:06:46Z</time>
  <course>266.03</course>
  <speed>0.0</speed>
  <fix>3d</fix>
</trkpt>
<trkpt lat="40.072842" lon="-105.230575">
  <ele>1586.09</ele>
  <time>2026-08-28T19:06:46Z</time>
  <course>11.98</course>
  <speed>0.01414213562373095</speed>
  <fix>3d</fix>
</trkpt>
<trkpt lat="40.072842" lon="-105.230575">
  <ele>1586.09</ele>
  <time>2026-08-28T19:06:46Z</time>
  <course>266.03</course>
  <speed>0.0</speed>
  <fix>3d</fix>
</trkpt>
<trkpt lat="40.072842" lon="-105.230575">
  <ele>1586.09</ele>
  <time>2026-08-28T19:06:46Z</time>
  <course>11.97</course>
  <speed>0.022360679774997897</speed>
  <fix>3d</fix>
</trkpt>
<trkpt lat="40.072842" lon="-105.230575">
  <ele>1586.09</ele>
  <time>2026-08-28T19:06:46Z</time>
  <course>266.03</course>
  <speed>0.0</speed>
  <fix>3d</fix>
</trkpt>
<trkpt lat="40.072842" lon="-105.230575">
  <ele>1586.09</ele>
  <time>2026-08-28T19:06:46Z</time>
  <course>11.96</course>
  <speed>0.022360679774997897</speed>
  <fix>3d</fix>
</trkpt>
<trkpt lat="40.072842" lon="-105.230575">
  <ele>1586.09</ele>
  <time>2026-08-28T19:06:46Z</time>
  <course>266.03</course>
  <speed>0.0</speed>
  <fix>3d</fix>
</trkpt>
<trkpt lat="40.072842" lon="-105.230575">
  <ele>1586.09</ele>
  <time>2026-08-28T19:06:46Z</time>
  <course>11.95</course>
  <speed>0.022360679774997897</speed>
  <fix>3d</fix>
</trkpt>
<trkpt lat="40.072842" lon="-105.230575">
  <ele>1586.09</ele>
  <time>2026-08-28T19:06:46Z</time>
  <course>266.03</course>
  <speed>0.0</speed>
  <fix>3d</fix>
</trkpt>
<trkpt lat="40.072842" lon="-105.230575">
  <ele>1586.09</ele>
  <time>2026-08-28T19:06:46Z</time>
  <course>11.94</course>
  <speed>0.022360679774997897</speed>
  <fix>3d</fix>
</trkpt>
<trkpt lat="40.072842" lon="-105.230575">
  <ele>1586.09</ele>
  <time>2026-08-28T19:06:46Z</time>
  <course>266.03</course>
  <speed>0.0</speed>
  <fix>3d</fix>
</trkpt>
<trkpt lat="40.072842" lon="-105.230575">
  <ele>1586.09</ele>
  <time>2026-08-28T19:06:46Z</time>
  <course>11.93</course>
  <speed>0.022360679774997897</speed>
  <fix>3d</fix>
</trkpt>
<trkpt lat="40.072842" lon="-105.230575">
  <ele>1586.09</ele>
  <time>2026-08-28T19:06:46Z</time>
  <course>266.03</course>
  <speed>0.0</speed>
  <fix>3d</fix>
</trkpt>
<trkpt lat="40.072842" lon="-105.230575">
  <ele>1586.09</ele>
  <time>2026-08-28T19:06:46Z</time>
  <course>11.92</course>
  <speed>0.022360679774997897</speed>
  <fix>3d</fix>
</trkpt>
<trkpt lat="40.072842" lon="-105.230575">
  <ele>1586.09</ele>
  <time>2026-08-28T19:06:46Z</time>
  <course>266.03</course>
  <speed>0.0</speed>
  <fix>3d</fix>
</trkpt>
<trkpt lat="40.072842" lon="-105.230575">
  <ele>1586.09</ele>
  <time>2026-08-28T19:06:46Z</time>
  <course>11.92</course>
  <speed>0.022360679774997897</speed>
  <fix>3d</fix>
</trkpt>
<trkpt lat="40.072842" lon="-105.230575">
  <ele>1586.09</ele>
  <time>2026-08-28T19:06:46Z</time>
  <course>266.03</course>
  <speed>0.0</speed>
  <fix>3d</fix>
</trkpt>
<trkpt lat="40.072842" lon="-105.230575">
  <ele>1586.09</ele>
  <time>2026-08-28T19:06:46Z</time>
  <course>11.91</course>
  <speed>0.022360679774997897</speed>
  <fix>3d</fix>
</trkpt>
<trkpt lat="40.072842" lon="-105.230575">
  <ele>1586.09</ele>
  <time>2026-08-28T19:06:46Z</time>
  <course>266.03</course>
  <speed>0.0</speed>
  <fix>3d</fix>
</trkpt>
<trkpt lat="40.072842" lon="-105.230575">
  <ele>1586.09</ele>
  <time>2026-08-28T19:06:46Z</time>
  <course>11.9</course>
  <speed>0.022360679774997897</speed>
  <fix>3d</fix>
</trkpt>
<trkpt lat="40.072842" lon="-105.230575">
  <ele>1586.09</ele>
  <time>2026-08-28T19:06:46Z</time>
  <course>266.03</course>
  <speed>0.0</speed>
  <fix>3d</fix>
</trkpt>
<trkpt lat="40.072842" lon="-105.230575">
  <ele>1586.09</ele>
  <time>2026-08-28T19:06:46Z</time>
  <course>11.89</course>
  <speed>0.022360679774997897</speed>
  <fix>3d</fix>
</trkpt>
<trkpt lat="40.072842" lon="-105.230575">
  <ele>1586.09</ele>
  <time>2026-08-28T19:06:46Z</time>
  <course>266.03</course>
  <speed>0.0</speed>
  <fix>3d</fix>
</trkpt>
<trkpt lat="40.072842" lon="-105.230575">
  <ele>1586.09</ele>
  <time>2026-08-28T19:06:46Z</time>
  <course>11.88</course>
  <speed>0.022360679774997897</speed>
  <fix>3d</fix>
</trkpt>
<trkpt lat="40.072842" lon="-105.230575">
  <ele>1586.09</ele>
  <time>2026-08-28T19:06:46Z</time>
  <course>266.03</course>
  <speed>0.0</speed>
  <fix>3d</fix>
</trkpt>
<trkpt lat="40.072842" lon="-105.230575">
  <ele>1586.09</ele>
  <time>2026-08-28T19:06:46Z</time>
  <course>11.87</course>
  <speed>0.022360679774997897</speed>
  <fix>3d</fix>
</trkpt>
<trkpt lat="40.072842" lon="-105.230575">
  <ele>1586.09</ele>
  <time>2026-08-28T19:06:46Z</time>
  <course>266.03</course>
  <speed>0.0</speed>
  <fix>3d</fix>
</trkpt>
<trkpt lat="40.072842" lon="-105.230575">
  <ele>1586.09</ele>
  <time>2026-08-28T19:06:46Z</time>
  <course>11.87</course>
  <speed>0.022360679774997897</speed>
  <fix>3d</fix>
</trkpt>
<trkpt lat="40.072842" lon="-105.230575">
  <ele>1586.09</ele>
  <time>2026-08-28T19:06:46Z</time>
  <course>266.03</course>
  <speed>0.0</speed>
  <fix>3d</fix>
</trkpt>
<trkpt lat="40.072842" lon="-105.230575">
  <ele>1586.09</ele>
  <time>2026-08-28T19:06:46Z</time>
  <course>11.86</course>
  <speed>0.022360679774997897</speed>
  <fix>3d</fix>
</trkpt>
<trkpt lat="40.072842" lon="-105.230575">
  <ele>1586.09</ele>
  <time>2026-08-28T19:06:46Z</time>
  <course>266.03</course>
  <speed>0.0</speed>
  <fix>3d</fix>
</trkpt>
<trkpt lat="40.072842" lon="-105.230575">
  <ele>1586.09</ele>
  <time>2026-08-28T19:06:46Z</time>
  <course>11.85</course>
  <speed>0.0282842712474619</speed>
  <fix>3d</fix>
</trkpt>
<trkpt lat="40.072842" lon="-105.230575">
  <ele>1586.09</ele>
  <time>2026-08-28T19:06:46Z</time>
  <course>266.03</course>
  <speed>0.0</speed>
  <fix>3d</fix>
</trkpt>
<trkpt lat="40.072842" lon="-105.230575">
  <ele>1586.09</ele>
  <time>2026-08-28T19:06:46Z</time>
  <course>11.84</course>
  <speed>0.0282842712474619</speed>
  <fix>3d</fix>
</trkpt>
<trkpt lat="40.072842" lon="-105.230575">
  <ele>1586.09</ele>
  <time>2026-08-28T19:06:46Z</time>
  <course>266.03</course>
  <speed>0.0</speed>
  <fix>3d</fix>
</trkpt>
<trkpt lat="40.072842" lon="-105.230575">
  <ele>1586.09</ele>
  <time>2026-08-28T19:06:46Z</time>
  <course>11.83</course>
  <speed>0.0282842712474619</speed>
  <fix>3d</fix>
</trkpt>
<trkpt lat="40.072842" lon="-105.230575">
  <ele>1586.09</ele>
  <time>2026-08-28T19:06:46Z</time>
  <course>266.03</course>
  <speed>0.0</speed>
  <fix>3d</fix>
</trkpt>
<trkpt lat="40.072842" lon="-105.230575">
  <ele>1586.09</ele>
  <time>2026-08-28T19:06:46Z</time>
  <course>11.83</course>
  <speed>0.0282842712474619</speed>
  <fix>3d</fix>
</trkpt>
<trkpt lat="40.072842" lon="-105.230575">
  <ele>1586.09</ele>
  <time>2026-08-28T19:06:46Z</time>
  <course>266.03</course>
  <speed>0.0</speed>
  <fix>3d</fix>
</trkpt>
<trkpt lat="40.072842" lon="-105.230575">
  <ele>1586.09</ele>
  <time>2026-08-28T19:06:46Z</time>
  <course>11.82</course>
  <speed>0.0282842712474619</speed>
  <fix>3d</fix>
</trkpt>
<trkpt lat="40.072842" lon="-105.230575">
  <ele>1586.09</ele>
  <time>2026-08-28T19:06:46Z</time>
  <course>266.03</course>
  <speed>0.0</speed>
  <fix>3d</fix>
</trkpt>
<trkpt lat="40.072842" lon="-105.230575">
  <ele>1586.09</ele>
  <time>2026-08-28T19:06:46Z</time>
  <course>11.81</course>
  <speed>0.0282842712474619</speed>
  <fix>3d</fix>
</trkpt>
<trkpt lat="40.072842" lon="-105.230575">
  <ele>1586.09</ele>
  <time>2026-08-28T19:06:46Z</time>
  <course>266.03</course>
  <speed>0.0</speed>
  <fix>3d</fix>
</trkpt>
<trkpt lat="40.072842" lon="-105.230575">
  <ele>1586.09</ele>
  <time>2026-08-28T19:06:46Z</time>
  <course>11.8</course>
  <speed>0.0282842712474619</speed>
  <fix>3d</fix>
</trkpt>
<trkpt lat="40.072842" lon="-105.230575">
  <ele>1586.09</ele>
  <time>2026-08-28T19:06:46Z</time>
  <course>266.03</course>
  <speed>0.0</speed>
  <fix>3d</fix>
</trkpt>
<trkpt lat="40.072842" lon="-105.230575">
  <ele>1586.09</ele>
  <time>2026-08-28T19:06:46Z</time>
  <course>11.79</course>
  <speed>0.0282842712474619</speed>
  <fix>3d</fix>
</trkpt>
<trkpt lat="40.072842" lon="-105.230575">
  <ele>1586.09</ele>
  <time>2026-08-28T19:06:46Z</time>
  <course>266.03</course>
  <speed>0.0</speed>
  <fix>3d</fix>
</trkpt>
<trkpt lat="40.072842" lon="-105.230575">
  <ele>1586.09</ele>
  <time>2026-08-28T19:06:46Z</time>
  <course>11.79</course>
  <speed>0.0282842712474619</speed>
  <fix>3d</fix>
</trkpt>
<trkpt lat="40.072842" lon="-105.230575">
  <ele>1586.09</ele>
  <time>2026-08-28T19:06:46Z</time>
  <course>266.03</course>
  <speed>0.0</speed>
  <fix>3d</fix>
</trkpt>
<trkpt lat="40.072842" lon="-105.230575">
  <ele>1586.09</ele>
  <time>2026-08-28T19:06:46Z</time>
  <course>11.78</course>
  <speed>0.0282842712474619</speed>
  <fix>3d</fix>
</trkpt>
<trkpt lat="40.072842" lon="-105.230575">
  <ele>1586.09</ele>
  <time>2026-08-28T19:06:46Z</time>
  <course>266.03</course>
  <speed>0.0</speed>
  <fix>3d</fix>
</trkpt>
<trkpt lat="40.072842" lon="-105.230575">
  <ele>1586.09</ele>
  <time>2026-08-28T19:06:46Z</time>
  <course>11.77</course>
  <speed>0.0282842712474619</speed>
  <fix>3d</fix>
</trkpt>
<trkpt lat="40.072842" lon="-105.230575">
  <ele>1586.09</ele>
  <time>2026-08-28T19:06:46Z</time>
  <course>266.03</course>
  <speed>0.0</speed>
  <fix>3d</fix>
</trkpt>
<trkpt lat="40.072842" lon="-105.230575">
  <ele>1586.09</ele>
  <time>2026-08-28T19:06:46Z</time>
  <course>11.77</course>
  <speed>0.0282842712474619</speed>
  <fix>3d</fix>
</trkpt>
<trkpt lat="40.072842" lon="-105.230575">
  <ele>1586.09</ele>
  <time>2026-08-28T19:06:46Z</time>
  <course>266.03</course>
  <speed>0.0</speed>
  <fix>3d</fix>
</trkpt>
<trkpt lat="40.072842" lon="-105.230575">
  <ele>1586.09</ele>
  <time>2026-08-28T19:06:46Z</time>
  <course>11.76</course>
  <speed>0.0282842712474619</speed>
  <fix>3d</fix>
</trkpt>
<trkpt lat="40.072842" lon="-105.230575">
  <ele>1586.09</ele>
  <time>2026-08-28T19:06:46Z</time>
  <course>266.03</course>
  <speed>0.0</speed>
  <fix>3d</fix>
</trkpt>
<trkpt lat="40.072842" lon="-105.230575">
  <ele>1586.09</ele>
  <time>2026-08-28T19:06:46Z</time>
  <course>11.75</course>
  <speed>0.03605551275463989</speed>
  <fix>3d</fix>
</trkpt>
<trkpt lat="40.072842" lon="-105.230575">
  <ele>1586.09</ele>
  <time>2026-08-28T19:06:46Z</time>
  <course>266.03</course>
  <speed>0.0</speed>
  <fix>3d</fix>
</trkpt>
<trkpt lat="40.072842" lon="-105.230575">
  <ele>1586.09</ele>
  <time>2026-08-28T19:06:46Z</time>
  <course>11.74</course>
  <speed>0.03605551275463989</speed>
  <fix>3d</fix>
</trkpt>
<trkpt lat="40.072842" lon="-105.230575">
  <ele>1586.09</ele>
  <time>2026-08-28T19:06:46Z</time>
  <course>266.03</course>
  <speed>0.0</speed>
  <fix>3d</fix>
</trkpt>
<trkpt lat="40.072842" lon="-105.230575">
  <ele>1586.09</ele>
  <time>2026-08-28T19:06:46Z</time>
  <course>11.73</course>
  <speed>0.03605551275463989</speed>
  <fix>3d</fix>
</trkpt>
<trkpt lat="40.072842" lon="-105.230575">
  <ele>1586.09</ele>
  <time>2026-08-28T19:06:46Z</time>
  <course>266.03</course>
  <speed>0.0</speed>
  <fix>3d</fix>
</trkpt>
<trkpt lat="40.072842" lon="-105.230575">
  <ele>1586.09</ele>
  <time>2026-08-28T19:06:46Z</time>
  <course>11.73</course>
  <speed>0.03605551275463989</speed>
  <fix>3d</fix>
</trkpt>
<trkpt lat="40.072842" lon="-105.230575">
  <ele>1586.09</ele>
  <time>2026-08-28T19:06:46Z</time>
  <course>266.03</course>
  <speed>0.0</speed>
  <fix>3d</fix>
</trkpt>
<trkpt lat="40.072842" lon="-105.230575">
  <ele>1586.09</ele>
  <time>2026-08-28T19:06:46Z</time>
  <course>11.72</course>
  <speed>0.03605551275463989</speed>
  <fix>3d</fix>
</trkpt>
<trkpt lat="40.072842" lon="-105.230575">
  <ele>1586.09</ele>
  <time>2026-08-28T19:06:46Z</time>
  <course>266.03</course>
  <speed>0.0</speed>
  <fix>3d</fix>
</trkpt>
<trkpt lat="40.072842" lon="-105.230575">
  <ele>1586.09</ele>
  <time>2026-08-28T19:06:46Z</time>
  <course>11.71</course>
  <speed>0.03605551275463989</speed>
  <fix>3d</fix>
</trkpt>
<trkpt lat="40.072842" lon="-105.230575">
  <ele>1586.09</ele>
  <time>2026-08-28T19:06:46Z</time>
  <course>266.03</course>
  <speed>0.0</speed>
  <fix>3d</fix>
</trkpt>
<trkpt lat="40.072842" lon="-105.230575">
  <ele>1586.09</ele>
  <time>2026-08-28T19:06:46Z</time>
  <course>11.7</course>
  <speed>0.03605551275463989</speed>
  <fix>3d</fix>
</trkpt>
<trkpt lat="40.072842" lon="-105.230575">
  <ele>1586.09</ele>
  <time>2026-08-28T19:06:46Z</time>
  <course>266.03</course>
  <speed>0.0</speed>
  <fix>3d</fix>
</trkpt>
<trkpt lat="40.072842" lon="-105.230575">
  <ele>1586.09</ele>
  <time>2026-08-28T19:06:46Z</time>
  <course>11.7</course>
  <speed>0.03605551275463989</speed>
  <fix>3d</fix>
</trkpt>
<trkpt lat="40.072842" lon="-105.230575">
  <ele>1586.09</ele>
  <time>2026-08-28T19:06:46Z</time>
  <course>266.03</course>
  <speed>0.0</speed>
  <fix>3d</fix>
</trkpt>
<trkpt lat="40.072842" lon="-105.230575">
  <ele>1586.09</ele>
  <time>2026-08-28T19:06:46Z</time>
  <course>11.69</course>
  <speed>0.03605551275463989</speed>
  <fix>3d</fix>
</trkpt>
<trkpt lat="40.072842" lon="-105.230575">
  <ele>1586.09</ele>
  <time>2026-08-28T19:06:46Z</time>
  <course>266.03</course>
  <speed>0.0</speed>
  <fix>3d</fix>
</trkpt>
<trkpt lat="40.072842" lon="-105.230575">
  <ele>1586.09</ele>
  <time>2026-08-28T19:06:46Z</time>
  <course>11.68</course>
  <speed>0.03605551275463989</speed>
  <fix>3d</fix>
</trkpt>
<trkpt lat="40.072842" lon="-105.230575">
  <ele>1586.09</ele>
  <time>2026-08-28T19:06:46Z</time>
  <course>266.03</course>
  <speed>0.0</speed>
  <fix>3d</fix>
</trkpt>
<trkpt lat="40.072842" lon="-105.230575">
  <ele>1586.09</ele>
  <time>2026-08-28T19:06:46Z</time>
  <course>11.67</course>
  <speed>0.03605551275463989</speed>
  <fix>3d</fix>
</trkpt>
<trkpt lat="40.072842" lon="-105.230575">
  <ele>1586.09</ele>
  <time>2026-08-28T19:06:46Z</time>
  <course>266.03</course>
  <speed>0.0</speed>
  <fix>3d</fix>
</trkpt>
<trkpt lat="40.072842" lon="-105.230575">
  <ele>1586.09</ele>
  <time>2026-08-28T19:06:47Z</time>
  <course>11.67</course>
  <speed>0.03605551275463989</speed>
  <fix>3d</fix>
</trkpt>
<trkpt lat="40.072842" lon="-105.230575">
  <ele>1586.09</ele>
  <time>2026-08-28T19:06:47Z</time>
  <course>266.03</course>
  <speed>0.0</speed>
  <fix>3d</fix>
</trkpt>
<trkpt lat="40.072842" lon="-105.230575">
  <ele>1586.09</ele>
  <time>2026-08-28T19:06:47Z</time>
  <course>11.66</course>
  <speed>0.03605551275463989</speed>
  <fix>3d</fix>
</trkpt>
<trkpt lat="40.072842" lon="-105.230575">
  <ele>1586.09</ele>
  <time>2026-08-28T19:06:47Z</time>
  <course>266.03</course>
  <speed>0.0</speed>
  <fix>3d</fix>
</trkpt>
<trkpt lat="40.072842" lon="-105.230575">
  <ele>1586.09</ele>
  <time>2026-08-28T19:06:47Z</time>
  <course>11.65</course>
  <speed>0.03605551275463989</speed>
  <fix>3d</fix>
</trkpt>
<trkpt lat="40.072842" lon="-105.230575">
  <ele>1586.09</ele>
  <time>2026-08-28T19:06:47Z</time>
  <course>266.03</course>
  <speed>0.0</speed>
  <fix>3d</fix>
</trkpt>
<trkpt lat="40.072842" lon="-105.230575">
  <ele>1586.09</ele>
  <time>2026-08-28T19:06:47Z</time>
  <course>11.65</course>
  <speed>0.03605551275463989</speed>
  <fix>3d</fix>
</trkpt>
<trkpt lat="40.072842" lon="-105.230575">
  <ele>1586.09</ele>
  <time>2026-08-28T19:06:47Z</time>
  <course>266.03</course>
  <speed>0.0</speed>
  <fix>3d</fix>
</trkpt>
<trkpt lat="40.072842" lon="-105.230575">
  <ele>1586.09</ele>
  <time>2026-08-28T19:06:47Z</time>
  <course>11.64</course>
  <speed>0.03605551275463989</speed>
  <fix>3d</fix>
</trkpt>
<trkpt lat="40.072842" lon="-105.230575">
  <ele>1586.09</ele>
  <time>2026-08-28T19:06:47Z</time>
  <course>266.03</course>
  <speed>0.0</speed>
  <fix>3d</fix>
</trkpt>
<trkpt lat="40.072842" lon="-105.230575">
  <ele>1586.09</ele>
  <time>2026-08-28T19:06:47Z</time>
  <course>11.63</course>
  <speed>0.03605551275463989</speed>
  <fix>3d</fix>
</trkpt>
<trkpt lat="40.072842" lon="-105.230575">
  <ele>1586.09</ele>
  <time>2026-08-28T19:06:47Z</time>
  <course>266.03</course>
  <speed>0.0</speed>
  <fix>3d</fix>
</trkpt>
<trkpt lat="40.072842" lon="-105.230575">
  <ele>1586.09</ele>
  <time>2026-08-28T19:06:47Z</time>
  <course>11.63</course>
  <speed>0.03605551275463989</speed>
  <fix>3d</fix>
</trkpt>
<trkpt lat="40.072842" lon="-105.230575">
  <ele>1586.09</ele>
  <time>2026-08-28T19:06:47Z</time>
  <course>266.03</course>
  <speed>0.0</speed>
  <fix>3d</fix>
</trkpt>
<trkpt lat="40.072842" lon="-105.230575">
  <ele>1586.09</ele>
  <time>2026-08-28T19:06:47Z</time>
  <course>11.62</course>
  <speed>0.03605551275463989</speed>
  <fix>3d</fix>
</trkpt>
<trkpt lat="40.072842" lon="-105.230575">
  <ele>1586.09</ele>
  <time>2026-08-28T19:06:47Z</time>
  <course>266.03</course>
  <speed>0.0</speed>
  <fix>3d</fix>
</trkpt>
<trkpt lat="40.072842" lon="-105.230575">
  <ele>1586.09</ele>
  <time>2026-08-28T19:06:47Z</time>
  <course>11.61</course>
  <speed>0.03605551275463989</speed>
  <fix>3d</fix>
</trkpt>
<trkpt lat="40.072842" lon="-105.230575">
  <ele>1586.09</ele>
  <time>2026-08-28T19:06:47Z</time>
  <course>266.03</course>
  <speed>0.0</speed>
  <fix>3d</fix>
</trkpt>
<trkpt lat="40.072842" lon="-105.230575">
  <ele>1586.09</ele>
  <time>2026-08-28T19:06:47Z</time>
  <course>11.61</course>
  <speed>0.03605551275463989</speed>
  <fix>3d</fix>
</trkpt>
<trkpt lat="40.072842" lon="-105.230575">
  <ele>1586.09</ele>
  <time>2026-08-28T19:06:47Z</time>
  <course>266.03</course>
  <speed>0.0</speed>
  <fix>3d</fix>
</trkpt>
<trkpt lat="40.072842" lon="-105.230575">
  <ele>1586.09</ele>
  <time>2026-08-28T19:06:47Z</time>
  <course>11.6</course>
  <speed>0.03605551275463989</speed>
  <fix>3d</fix>
</trkpt>
<trkpt lat="40.072842" lon="-105.230575">
  <ele>1586.09</ele>
  <time>2026-08-28T19:06:47Z</time>
  <course>266.03</course>
  <speed>0.0</speed>
  <fix>3d</fix>
</trkpt>
<trkpt lat="40.072842" lon="-105.230575">
  <ele>1586.09</ele>
  <time>2026-08-28T19:06:47Z</time>
  <course>11.6</course>
  <speed>0.03605551275463989</speed>
  <fix>3d</fix>
</trkpt>
<trkpt lat="40.072842" lon="-105.230575">
  <ele>1586.09</ele>
  <time>2026-08-28T19:06:47Z</time>
  <course>266.03</course>
  <speed>0.0</speed>
  <fix>3d</fix>
</trkpt>
<trkpt lat="40.072842" lon="-105.230575">
  <ele>1586.09</ele>
  <time>2026-08-28T19:06:47Z</time>
  <course>11.59</course>
  <speed>0.03605551275463989</speed>
  <fix>3d</fix>
</trkpt>
<trkpt lat="40.072842" lon="-105.230575">
  <ele>1586.09</ele>
  <time>2026-08-28T19:06:47Z</time>
  <course>266.03</course>
  <speed>0.0</speed>
  <fix>3d</fix>
</trkpt>
<trkpt lat="40.072842" lon="-105.230575">
  <ele>1586.09</ele>
  <time>2026-08-28T19:06:47Z</time>
  <course>11.58</course>
  <speed>0.03605551275463989</speed>
  <fix>3d</fix>
</trkpt>
<trkpt lat="40.072842" lon="-105.230575">
  <ele>1586.09</ele>
  <time>2026-08-28T19:06:47Z</time>
  <course>266.03</course>
  <speed>0.0</speed>
  <fix>3d</fix>
</trkpt>
<trkpt lat="40.072842" lon="-105.230575">
  <ele>1586.09</ele>
  <time>2026-08-28T19:06:47Z</time>
  <course>11.58</course>
  <speed>0.03605551275463989</speed>
  <fix>3d</fix>
</trkpt>
<trkpt lat="40.072842" lon="-105.230575">
  <ele>1586.09</ele>
  <time>2026-08-28T19:06:47Z</time>
  <course>266.03</course>
  <speed>0.0</speed>
  <fix>3d</fix>
</trkpt>
<trkpt lat="40.072842" lon="-105.230575">
  <ele>1586.09</ele>
  <time>2026-08-28T19:06:47Z</time>
  <course>11.57</course>
  <speed>0.03605551275463989</speed>
  <fix>3d</fix>
</trkpt>
<trkpt lat="40.072842" lon="-105.230575">
  <ele>1586.09</ele>
  <time>2026-08-28T19:06:47Z</time>
  <course>266.03</course>
  <speed>0.0</speed>
  <fix>3d</fix>
</trkpt>
<trkpt lat="40.072842" lon="-105.230575">
  <ele>1586.09</ele>
  <time>2026-08-28T19:06:47Z</time>
  <course>11.56</course>
  <speed>0.03605551275463989</speed>
  <fix>3d</fix>
</trkpt>
<trkpt lat="40.072842" lon="-105.230575">
  <ele>1586.09</ele>
  <time>2026-08-28T19:06:47Z</time>
  <course>266.03</course>
  <speed>0.0</speed>
  <fix>3d</fix>
</trkpt>
<trkpt lat="40.072842" lon="-105.230575">
  <ele>1586.09</ele>
  <time>2026-08-28T19:06:47Z</time>
  <course>11.56</course>
  <speed>0.03605551275463989</speed>
  <fix>3d</fix>
</trkpt>
<trkpt lat="40.072842" lon="-105.230575">
  <ele>1586.09</ele>
  <time>2026-08-28T19:06:47Z</time>
  <course>266.03</course>
  <speed>0.0</speed>
  <fix>3d</fix>
</trkpt>
<trkpt lat="40.072842" lon="-105.230575">
  <ele>1586.09</ele>
  <time>2026-08-28T19:06:47Z</time>
  <course>11.55</course>
  <speed>0.03605551275463989</speed>
  <fix>3d</fix>
</trkpt>
<trkpt lat="40.072842" lon="-105.230575">
  <ele>1586.09</ele>
  <time>2026-08-28T19:06:47Z</time>
  <course>266.03</course>
  <speed>0.0</speed>
  <fix>3d</fix>
</trkpt>
<trkpt lat="40.072842" lon="-105.230575">
  <ele>1586.09</ele>
  <time>2026-08-28T19:06:47Z</time>
  <course>11.55</course>
  <speed>0.03605551275463989</speed>
  <fix>3d</fix>
</trkpt>
<trkpt lat="40.072842" lon="-105.230575">
  <ele>1586.09</ele>
  <time>2026-08-28T19:06:47Z</time>
  <course>266.03</course>
  <speed>0.0</speed>
  <fix>3d</fix>
</trkpt>
<trkpt lat="40.072842" lon="-105.230575">
  <ele>1586.09</ele>
  <time>2026-08-28T19:06:47Z</time>
  <course>11.54</course>
  <speed>0.03605551275463989</speed>
  <fix>3d</fix>
</trkpt>
<trkpt lat="40.072842" lon="-105.230575">
  <ele>1586.09</ele>
  <time>2026-08-28T19:06:47Z</time>
  <course>266.03</course>
  <speed>0.0</speed>
  <fix>3d</fix>
</trkpt>
<trkpt lat="40.072842" lon="-105.230575">
  <ele>1586.09</ele>
  <time>2026-08-28T19:06:47Z</time>
  <course>11.53</course>
  <speed>0.03605551275463989</speed>
  <fix>3d</fix>
</trkpt>
<trkpt lat="40.072842" lon="-105.230575">
  <ele>1586.09</ele>
  <time>2026-08-28T19:06:47Z</time>
  <course>266.03</course>
  <speed>0.0</speed>
  <fix>3d</fix>
</trkpt>
<trkpt lat="40.072842" lon="-105.230575">
  <ele>1586.09</ele>
  <time>2026-08-28T19:06:47Z</time>
  <course>11.53</course>
  <speed>0.03605551275463989</speed>
  <fix>3d</fix>
</trkpt>
<trkpt lat="40.072842" lon="-105.230575">
  <ele>1586.09</ele>
  <time>2026-08-28T19:06:47Z</time>
  <course>266.03</course>
  <speed>0.0</speed>
  <fix>3d</fix>
</trkpt>
<trkpt lat="40.072842" lon="-105.230575">
  <ele>1586.09</ele>
  <time>2026-08-28T19:06:47Z</time>
  <course>11.52</course>
  <speed>0.03605551275463989</speed>
  <fix>3d</fix>
</trkpt>
<trkpt lat="40.072842" lon="-105.230575">
  <ele>1586.09</ele>
  <time>2026-08-28T19:06:47Z</time>
  <course>266.03</course>
  <speed>0.0</speed>
  <fix>3d</fix>
</trkpt>
<trkpt lat="40.072842" lon="-105.230575">
  <ele>1586.09</ele>
  <time>2026-08-28T19:06:47Z</time>
  <course>11.52</course>
  <speed>0.03605551275463989</speed>
  <fix>3d</fix>
</trkpt>
<trkpt lat="40.072842" lon="-105.230575">
  <ele>1586.09</ele>
  <time>2026-08-28T19:06:47Z</time>
  <course>266.03</course>
  <speed>0.0</speed>
  <fix>3d</fix>
</trkpt>
<trkpt lat="40.072842" lon="-105.230575">
  <ele>1586.09</ele>
  <time>2026-08-28T19:06:47Z</time>
  <course>11.51</course>
  <speed>0.03605551275463989</speed>
  <fix>3d</fix>
</trkpt>
<trkpt lat="40.072842" lon="-105.230575">
  <ele>1586.09</ele>
  <time>2026-08-28T19:06:47Z</time>
  <course>266.03</course>
  <speed>0.0</speed>
  <fix>3d</fix>
</trkpt>
<trkpt lat="40.072842" lon="-105.230575">
  <ele>1586.09</ele>
  <time>2026-08-28T19:06:47Z</time>
  <course>11.51</course>
  <speed>0.044721359549995794</speed>
  <fix>3d</fix>
</trkpt>
<trkpt lat="40.072842" lon="-105.230575">
  <ele>1586.09</ele>
  <time>2026-08-28T19:06:47Z</time>
  <course>266.03</course>
  <speed>0.0</speed>
  <fix>3d</fix>
</trkpt>
<trkpt lat="40.072842" lon="-105.230575">
  <ele>1586.09</ele>
  <time>2026-08-28T19:06:47Z</time>
  <course>11.5</course>
  <speed>0.044721359549995794</speed>
  <fix>3d</fix>
</trkpt>
<trkpt lat="40.072842" lon="-105.230575">
  <ele>1586.09</ele>
  <time>2026-08-28T19:06:47Z</time>
  <course>266.03</course>
  <speed>0.0</speed>
  <fix>3d</fix>
</trkpt>
<trkpt lat="40.072842" lon="-105.230575">
  <ele>1586.09</ele>
  <time>2026-08-28T19:06:47Z</time>
  <course>11.49</course>
  <speed>0.044721359549995794</speed>
  <fix>3d</fix>
</trkpt>
<trkpt lat="40.072842" lon="-105.230575">
  <ele>1586.09</ele>
  <time>2026-08-28T19:06:47Z</time>
  <course>266.03</course>
  <speed>0.0</speed>
  <fix>3d</fix>
</trkpt>
<trkpt lat="40.072842" lon="-105.230575">
  <ele>1586.09</ele>
  <time>2026-08-28T19:06:47Z</time>
  <course>11.49</course>
  <speed>0.044721359549995794</speed>
  <fix>3d</fix>
</trkpt>
<trkpt lat="40.072842" lon="-105.230575">
  <ele>1586.09</ele>
  <time>2026-08-28T19:06:47Z</time>
  <course>266.03</course>
  <speed>0.0</speed>
  <fix>3d</fix>
</trkpt>
<trkpt lat="40.072842" lon="-105.230575">
  <ele>1586.09</ele>
  <time>2026-08-28T19:06:47Z</time>
  <course>11.48</course>
  <speed>0.044721359549995794</speed>
  <fix>3d</fix>
</trkpt>
<trkpt lat="40.072842" lon="-105.230575">
  <ele>1586.09</ele>
  <time>2026-08-28T19:06:47Z</time>
  <course>266.03</course>
  <speed>0.0</speed>
  <fix>3d</fix>
</trkpt>
<trkpt lat="40.072842" lon="-105.230575">
  <ele>1586.09</ele>
  <time>2026-08-28T19:06:47Z</time>
  <course>11.48</course>
  <speed>0.044721359549995794</speed>
  <fix>3d</fix>
</trkpt>
<trkpt lat="40.072842" lon="-105.230575">
  <ele>1586.09</ele>
  <time>2026-08-28T19:06:47Z</time>
  <course>266.03</course>
  <speed>0.0</speed>
  <fix>3d</fix>
</trkpt>
<trkpt lat="40.072842" lon="-105.230575">
  <ele>1586.09</ele>
  <time>2026-08-28T19:06:47Z</time>
  <course>11.47</course>
  <speed>0.044721359549995794</speed>
  <fix>3d</fix>
</trkpt>
<trkpt lat="40.072842" lon="-105.230575">
  <ele>1586.09</ele>
  <time>2026-08-28T19:06:47Z</time>
  <course>266.03</course>
  <speed>0.0</speed>
  <fix>3d</fix>
</trkpt>
<trkpt lat="40.072842" lon="-105.230575">
  <ele>1586.09</ele>
  <time>2026-08-28T19:06:47Z</time>
  <course>11.47</course>
  <speed>0.044721359549995794</speed>
  <fix>3d</fix>
</trkpt>
<trkpt lat="40.072842" lon="-105.230575">
  <ele>1586.09</ele>
  <time>2026-08-28T19:06:47Z</time>
  <course>266.03</course>
  <speed>0.0</speed>
  <fix>3d</fix>
</trkpt>
<trkpt lat="40.072842" lon="-105.230575">
  <ele>1586.09</ele>
  <time>2026-08-28T19:06:47Z</time>
  <course>11.46</course>
  <speed>0.044721359549995794</speed>
  <fix>3d</fix>
</trkpt>
<trkpt lat="40.072842" lon="-105.230575">
  <ele>1586.09</ele>
  <time>2026-08-28T19:06:47Z</time>
  <course>266.03</course>
  <speed>0.0</speed>
  <fix>3d</fix>
</trkpt>
<trkpt lat="40.072842" lon="-105.230575">
  <ele>1586.09</ele>
  <time>2026-08-28T19:06:47Z</time>
  <course>11.46</course>
  <speed>0.044721359549995794</speed>
  <fix>3d</fix>
</trkpt>
<trkpt lat="40.072842" lon="-105.230575">
  <ele>1586.09</ele>
  <time>2026-08-28T19:06:47Z</time>
  <course>266.03</course>
  <speed>0.0</speed>
  <fix>3d</fix>
</trkpt>
<trkpt lat="40.072842" lon="-105.230575">
  <ele>1586.16</ele>
  <time>2026-08-28T19:06:47Z</time>
  <course>11.45</course>
  <speed>0.0</speed>
  <fix>3d</fix>
</trkpt>
<trkpt lat="40.072842" lon="-105.230575">
  <ele>1586.09</ele>
  <time>2026-08-28T19:06:47Z</time>
  <course>297.19</course>
  <speed>0.0</speed>
  <fix>3d</fix>
</trkpt>
<trkpt lat="40.072842" lon="-105.230575">
  <ele>1586.16</ele>
  <time>2026-08-28T19:06:47Z</time>
  <course>11.45</course>
  <speed>0.0</speed>
  <fix>3d</fix>
</trkpt>
<trkpt lat="40.072842" lon="-105.230575">
  <ele>1586.09</ele>
  <time>2026-08-28T19:06:47Z</time>
  <course>269.87</course>
  <speed>0.0</speed>
  <fix>3d</fix>
</trkpt>
<trkpt lat="40.072842" lon="-105.230575">
  <ele>1586.16</ele>
  <time>2026-08-28T19:06:47Z</time>
  <course>11.44</course>
  <speed>0.0</speed>
  <fix>3d</fix>
</trkpt>
<trkpt lat="40.072842" lon="-105.230575">
  <ele>1586.09</ele>
  <time>2026-08-28T19:06:47Z</time>
  <course>241.23</course>
  <speed>0.0</speed>
  <fix>3d</fix>
</trkpt>
<trkpt lat="40.072842" lon="-105.230575">
  <ele>1586.16</ele>
  <time>2026-08-28T19:06:47Z</time>
  <course>11.44</course>
  <speed>0.0</speed>
  <fix>3d</fix>
</trkpt>
<trkpt lat="40.072842" lon="-105.230575">
  <ele>1586.09</ele>
  <time>2026-08-28T19:06:47Z</time>
  <course>93.08</course>
  <speed>0.0</speed>
  <fix>3d</fix>
</trkpt>
<trkpt lat="40.072842" lon="-105.230575">
  <ele>1586.17</ele>
  <time>2026-08-28T19:06:47Z</time>
  <course>11.44</course>
  <speed>0.0</speed>
  <fix>3d</fix>
</trkpt>
<trkpt lat="40.072842" lon="-105.230575">
  <ele>1586.09</ele>
  <time>2026-08-28T19:06:47Z</time>
  <course>317.31</course>
  <speed>0.0</speed>
  <fix>3d</fix>
</trkpt>
<trkpt lat="40.072842" lon="-105.230575">
  <ele>1586.17</ele>
  <time>2026-08-28T19:06:47Z</time>
  <course>11.43</course>
  <speed>0.01</speed>
  <fix>3d</fix>
</trkpt>
<trkpt lat="40.072842" lon="-105.230575">
  <ele>1586.09</ele>
  <time>2026-08-28T19:06:47Z</time>
  <course>265.24</course>
  <speed>0.0</speed>
  <fix>3d</fix>
</trkpt>
<trkpt lat="40.072842" lon="-105.230575">
  <ele>1586.17</ele>
  <time>2026-08-28T19:06:47Z</time>
  <course>11.43</course>
  <speed>0.01</speed>
  <fix>3d</fix>
</trkpt>
<trkpt lat="40.072842" lon="-105.230575">
  <ele>1586.09</ele>
  <time>2026-08-28T19:06:47Z</time>
  <course>261.76</course>
  <speed>0.0</speed>
  <fix>3d</fix>
</trkpt>
<trkpt lat="40.072842" lon="-105.230575">
  <ele>1586.17</ele>
  <time>2026-08-28T19:06:47Z</time>
  <course>11.42</course>
  <speed>0.01</speed>
  <fix>3d</fix>
</trkpt>
<trkpt lat="40.072842" lon="-105.230575">
  <ele>1586.09</ele>
  <time>2026-08-28T19:06:47Z</time>
  <course>266.78</course>
  <speed>0.0</speed>
  <fix>3d</fix>
</trkpt>
<trkpt lat="40.072842" lon="-105.230575">
  <ele>1586.17</ele>
  <time>2026-08-28T19:06:47Z</time>
  <course>11.42</course>
  <speed>0.01414213562373095</speed>
  <fix>3d</fix>
</trkpt>
<trkpt lat="40.072842" lon="-105.230575">
  <ele>1586.09</ele>
  <time>2026-08-28T19:06:47Z</time>
  <course>266.53</course>
  <speed>0.0</speed>
  <fix>3d</fix>
</trkpt>
<trkpt lat="40.072842" lon="-105.230575">
  <ele>1586.17</ele>
  <time>2026-08-28T19:06:47Z</time>
  <course>11.42</course>
  <speed>0.01414213562373095</speed>
  <fix>3d</fix>
</trkpt>
<trkpt lat="40.072842" lon="-105.230575">
  <ele>1586.09</ele>
  <time>2026-08-28T19:06:47Z</time>
  <course>265.88</course>
  <speed>0.0</speed>
  <fix>3d</fix>
</trkpt>
<trkpt lat="40.072842" lon="-105.230575">
  <ele>1586.17</ele>
  <time>2026-08-28T19:06:47Z</time>
  <course>11.41</course>
  <speed>0.01414213562373095</speed>
  <fix>3d</fix>
</trkpt>
<trkpt lat="40.072842" lon="-105.230575">
  <ele>1586.09</ele>
  <time>2026-08-28T19:06:47Z</time>
  <course>257.34</course>
  <speed>0.0</speed>
  <fix>3d</fix>
</trkpt>
<trkpt lat="40.072842" lon="-105.230575">
  <ele>1586.17</ele>
  <time>2026-08-28T19:06:47Z</time>
  <course>11.41</course>
  <speed>0.022360679774997897</speed>
  <fix>3d</fix>
</trkpt>
<trkpt lat="40.072842" lon="-105.230575">
  <ele>1586.09</ele>
  <time>2026-08-28T19:06:47Z</time>
  <course>272.73</course>
  <speed>0.0</speed>
  <fix>3d</fix>
</trkpt>
<trkpt lat="40.072842" lon="-105.230575">
  <ele>1586.17</ele>
  <time>2026-08-28T19:06:47Z</time>
  <course>11.4</course>
  <speed>0.01414213562373095</speed>
  <fix>3d</fix>
</trkpt>
<trkpt lat="40.072842" lon="-105.230575">
  <ele>1586.09</ele>
  <time>2026-08-28T19:06:47Z</time>
  <course>272.83</course>
  <speed>0.0</speed>
  <fix>3d</fix>
</trkpt>
<trkpt lat="40.072842" lon="-105.230575">
  <ele>1586.17</ele>
  <time>2026-08-28T19:06:47Z</time>
  <course>11.4</course>
  <speed>0.01414213562373095</speed>
  <fix>3d</fix>
</trkpt>
<trkpt lat="40.072842" lon="-105.230575">
  <ele>1586.09</ele>
  <time>2026-08-28T19:06:47Z</time>
  <course>260.51</course>
  <speed>0.0</speed>
  <fix>3d</fix>
</trkpt>
<trkpt lat="40.072842" lon="-105.230575">
  <ele>1586.17</ele>
  <time>2026-08-28T19:06:47Z</time>
  <course>11.4</course>
  <speed>0.01414213562373095</speed>
  <fix>3d</fix>
</trkpt>
<trkpt lat="40.072842" lon="-105.230575">
  <ele>1586.09</ele>
  <time>2026-08-28T19:06:47Z</time>
  <course>265.99</course>
  <speed>0.0</speed>
  <fix>3d</fix>
</trkpt>
<trkpt lat="39.654938" lon="-104.1331666">
  <ele>1569.54</ele>
  <time>2026-08-28T19:06:52Z</time>
  <course>168.11</course>
  <speed>0.0</speed>
  <fix>3d</fix>
</trkpt>
<trkpt lat="40.072842" lon="-105.230575">
  <ele>1586.09</ele>
  <time>2026-08-28T19:06:52Z</time>
  <course>2.1</course>
  <speed>0.0</speed>
  <fix>3d</fix>
</trkpt>
<trkpt lat="40.072842" lon="-105.230575">
  <ele>1586.09</ele>
  <time>2026-08-28T19:06:52Z</time>
  <course>238.4</course>
  <speed>0.0</speed>
  <fix>3d</fix>
</trkpt>
<trkpt lat="40.072842" lon="-105.230575">
  <ele>1586.09</ele>
  <time>2026-08-28T19:06:52Z</time>
  <course>2.68</course>
  <speed>0.0</speed>
  <fix>3d</fix>
</trkpt>
<trkpt lat="40.072842" lon="-105.230575">
  <ele>1586.09</ele>
  <time>2026-08-28T19:06:52Z</time>
  <course>194.29</course>
  <speed>0.0</speed>
  <fix>3d</fix>
</trkpt>
<trkpt lat="40.072842" lon="-105.230575">
  <ele>1586.09</ele>
  <time>2026-08-28T19:06:52Z</time>
  <course>3.42</course>
  <speed>0.0</speed>
  <fix>3d</fix>
</trkpt>
<trkpt lat="40.072842" lon="-105.230575">
  <ele>1586.09</ele>
  <time>2026-08-28T19:06:52Z</time>
  <course>193.66</course>
  <speed>0.0</speed>
  <fix>3d</fix>
</trkpt>
<trkpt lat="40.072842" lon="-105.230575">
  <ele>1586.09</ele>
  <time>2026-08-28T19:06:52Z</time>
  <course>4.08</course>
  <speed>0.0</speed>
  <fix>3d</fix>
</trkpt>
<trkpt lat="40.072842" lon="-105.230575">
  <ele>1586.09</ele>
  <time>2026-08-28T19:06:52Z</time>
  <course>303.54</course>
  <speed>0.0</speed>
  <fix>3d</fix>
</trkpt>
<trkpt lat="40.072842" lon="-105.230575">
  <ele>1586.09</ele>
  <time>2026-08-28T19:06:52Z</time>
  <course>4.68</course>
  <speed>0.0</speed>
  <fix>3d</fix>
</trkpt>
<trkpt lat="40.072842" lon="-105.230575">
  <ele>1586.09</ele>
  <time>2026-08-28T19:06:52Z</time>
  <course>110.94</course>
  <speed>0.0</speed>
  <fix>3d</fix>
</trkpt>
<trkpt lat="40.072842" lon="-105.230575">
  <ele>1586.09</ele>
  <time>2026-08-28T19:06:52Z</time>
  <course>5.26</course>
  <speed>0.0</speed>
  <fix>3d</fix>
</trkpt>
<trkpt lat="40.072842" lon="-105.230575">
  <ele>1586.09</ele>
  <time>2026-08-28T19:06:52Z</time>
  <course>191.21</course>
  <speed>0.0</speed>
  <fix>3d</fix>
</trkpt>
<trkpt lat="40.072842" lon="-105.230575">
  <ele>1586.09</ele>
  <time>2026-08-28T19:06:52Z</time>
  <course>5.81</course>
  <speed>0.0</speed>
  <fix>3d</fix>
</trkpt>
<trkpt lat="40.072842" lon="-105.230575">
  <ele>1586.09</ele>
  <time>2026-08-28T19:06:52Z</time>
  <course>252.23</course>
  <speed>0.0</speed>
  <fix>3d</fix>
</trkpt>
<trkpt lat="40.072842" lon="-105.230575">
  <ele>1586.09</ele>
  <time>2026-08-28T19:06:52Z</time>
  <course>6.33</course>
  <speed>0.0</speed>
  <fix>3d</fix>
</trkpt>
<trkpt lat="40.072842" lon="-105.230575">
  <ele>1586.09</ele>
  <time>2026-08-28T19:06:52Z</time>
  <course>170.36</course>
  <speed>0.0</speed>
  <fix>3d</fix>
</trkpt>
<trkpt lat="40.072842" lon="-105.230575">
  <ele>1586.09</ele>
  <time>2026-08-28T19:06:52Z</time>
  <course>6.81</course>
  <speed>0.0</speed>
  <fix>3d</fix>
</trkpt>
<trkpt lat="40.072842" lon="-105.230575">
  <ele>1586.09</ele>
  <time>2026-08-28T19:06:52Z</time>
  <course>179.36</course>
  <speed>0.0</speed>
  <fix>3d</fix>
</trkpt>
<trkpt lat="40.072842" lon="-105.230575">
  <ele>1586.09</ele>
  <time>2026-08-28T19:06:52Z</time>
  <course>7.26</course>
  <speed>0.0</speed>
  <fix>3d</fix>
</trkpt>
<trkpt lat="40.072842" lon="-105.230575">
  <ele>1586.09</ele>
  <time>2026-08-28T19:06:52Z</time>
  <course>19.98</course>
  <speed>0.0</speed>
  <fix>3d</fix>
</trkpt>
<trkpt lat="40.072842" lon="-105.230575">
  <ele>1586.09</ele>
  <time>2026-08-28T19:06:52Z</time>
  <course>7.67</course>
  <speed>0.0</speed>
  <fix>3d</fix>
</trkpt>
<trkpt lat="40.072842" lon="-105.230575">
  <ele>1586.09</ele>
  <time>2026-08-28T19:06:52Z</time>
  <course>17.49</course>
  <speed>0.0</speed>
  <fix>3d</fix>
</trkpt>
<trkpt lat="40.072842" lon="-105.230575">
  <ele>1586.09</ele>
  <time>2026-08-28T19:06:52Z</time>
  <course>8.06</course>
  <speed>0.0</speed>
  <fix>3d</fix>
</trkpt>
<trkpt lat="40.072842" lon="-105.230575">
  <ele>1586.09</ele>
  <time>2026-08-28T19:06:52Z</time>
  <course>356.19</course>
  <speed>0.0</speed>
  <fix>3d</fix>
</trkpt>
<trkpt lat="40.072842" lon="-105.230575">
  <ele>1586.09</ele>
  <time>2026-08-28T19:06:52Z</time>
  <course>8.41</course>
  <speed>0.0</speed>
  <fix>3d</fix>
</trkpt>
<trkpt lat="40.072842" lon="-105.230575">
  <ele>1586.09</ele>
  <time>2026-08-28T19:06:52Z</time>
  <course>77.32</course>
  <speed>0.0</speed>
  <fix>3d</fix>
</trkpt>
<trkpt lat="40.072842" lon="-105.230575">
  <ele>1586.09</ele>
  <time>2026-08-28T19:06:52Z</time>
  <course>8.74</course>
  <speed>0.0</speed>
  <fix>3d</fix>
</trkpt>
<trkpt lat="40.072842" lon="-105.230575">
  <ele>1586.09</ele>
  <time>2026-08-28T19:06:52Z</time>
  <course>290.54</course>
  <speed>0.0</speed>
  <fix>3d</fix>
</trkpt>
<trkpt lat="40.072842" lon="-105.230575">
  <ele>1586.09</ele>
  <time>2026-08-28T19:06:52Z</time>
  <course>9.04</course>
  <speed>0.0</speed>
  <fix>3d</fix>
</trkpt>
<trkpt lat="40.072842" lon="-105.230575">
  <ele>1586.09</ele>
  <time>2026-08-28T19:06:52Z</time>
  <course>338.69</course>
  <speed>0.0</speed>
  <fix>3d</fix>
</trkpt>
<trkpt lat="40.072842" lon="-105.230575">
  <ele>1586.09</ele>
  <time>2026-08-28T19:06:52Z</time>
  <course>9.32</course>
  <speed>0.0</speed>
  <fix>3d</fix>
</trkpt>
<trkpt lat="40.072842" lon="-105.230575">
  <ele>1586.09</ele>
  <time>2026-08-28T19:06:52Z</time>
  <course>326.81</course>
  <speed>0.0</speed>
  <fix>3d</fix>
</trkpt>
<trkpt lat="40.072842" lon="-105.230575">
  <ele>1586.09</ele>
  <time>2026-08-28T19:06:52Z</time>
  <course>9.58</course>
  <speed>0.0</speed>
  <fix>3d</fix>
</trkpt>
<trkpt lat="40.072842" lon="-105.230575">
  <ele>1586.09</ele>
  <time>2026-08-28T19:06:52Z</time>
  <course>262.23</course>
  <speed>0.0</speed>
  <fix>3d</fix>
</trkpt>
<trkpt lat="40.072842" lon="-105.230575">
  <ele>1586.09</ele>
  <time>2026-08-28T19:06:52Z</time>
  <course>9.81</course>
  <speed>0.0</speed>
  <fix>3d</fix>
</trkpt>
<trkpt lat="40.072842" lon="-105.230575">
  <ele>1586.09</ele>
  <time>2026-08-28T19:06:52Z</time>
  <course>159.08</course>
  <speed>0.0</speed>
  <fix>3d</fix>
</trkpt>
<trkpt lat="40.072842" lon="-105.230575">
  <ele>1586.09</ele>
  <time>2026-08-28T19:06:52Z</time>
  <course>10.03</course>
  <speed>0.0</speed>
  <fix>3d</fix>
</trkpt>
<trkpt lat="40.072842" lon="-105.230575">
  <ele>1586.09</ele>
  <time>2026-08-28T19:06:52Z</time>
  <course>287.98</course>
  <speed>0.0</speed>
  <fix>3d</fix>
</trkpt>
<trkpt lat="40.072842" lon="-105.230575">
  <ele>1586.09</ele>
  <time>2026-08-28T19:06:52Z</time>
  <course>10.23</course>
  <speed>0.0</speed>
  <fix>3d</fix>
</trkpt>
<trkpt lat="40.072842" lon="-105.230575">
  <ele>1586.09</ele>
  <time>2026-08-28T19:06:52Z</time>
  <course>278.3</course>
  <speed>0.0</speed>
  <fix>3d</fix>
</trkpt>
<trkpt lat="40.072842" lon="-105.230575">
  <ele>1586.09</ele>
  <time>2026-08-28T19:06:52Z</time>
  <course>10.41</course>
  <speed>0.0</speed>
  <fix>3d</fix>
</trkpt>
<trkpt lat="40.072842" lon="-105.230575">
  <ele>1586.09</ele>
  <time>2026-08-28T19:06:52Z</time>
  <course>261.72</course>
  <speed>0.0</speed>
  <fix>3d</fix>
</trkpt>
<trkpt lat="40.072842" lon="-105.230575">
  <ele>1586.09</ele>
  <time>2026-08-28T19:06:52Z</time>
  <course>10.57</course>
  <speed>0.0</speed>
  <fix>3d</fix>
</trkpt>
<trkpt lat="40.072842" lon="-105.230575">
  <ele>1586.09</ele>
  <time>2026-08-28T19:06:52Z</time>
  <course>264.4</course>
  <speed>0.0</speed>
  <fix>3d</fix>
</trkpt>
<trkpt lat="40.072842" lon="-105.230575">
  <ele>1586.09</ele>
  <time>2026-08-28T19:06:52Z</time>
  <course>10.73</course>
  <speed>0.0</speed>
  <fix>3d</fix>
</trkpt>
<trkpt lat="40.072842" lon="-105.230575">
  <ele>1586.09</ele>
  <time>2026-08-28T19:06:52Z</time>
  <course>266.8</course>
  <speed>0.0</speed>
  <fix>3d</fix>
</trkpt>
<trkpt lat="40.072842" lon="-105.230575">
  <ele>1586.09</ele>
  <time>2026-08-28T19:06:52Z</time>
  <course>10.86</course>
  <speed>0.0</speed>
  <fix>3d</fix>
</trkpt>
<trkpt lat="40.072842" lon="-105.230575">
  <ele>1586.09</ele>
  <time>2026-08-28T19:06:52Z</time>
  <course>266.15</course>
  <speed>0.0</speed>
  <fix>3d</fix>
</trkpt>
<trkpt lat="40.072842" lon="-105.230575">
  <ele>1586.09</ele>
  <time>2026-08-28T19:06:52Z</time>
  <course>10.99</course>
  <speed>0.0</speed>
  <fix>3d</fix>
</trkpt>
<trkpt lat="40.072842" lon="-105.230575">
  <ele>1586.09</ele>
  <time>2026-08-28T19:06:52Z</time>
  <course>265.92</course>
  <speed>0.0</speed>
  <fix>3d</fix>
</trkpt>
<trkpt lat="40.072842" lon="-105.230575">
  <ele>1586.09</ele>
  <time>2026-08-28T19:06:52Z</time>
  <course>11.11</course>
  <speed>0.0</speed>
  <fix>3d</fix>
</trkpt>
<trkpt lat="40.072842" lon="-105.230575">
  <ele>1586.09</ele>
  <time>2026-08-28T19:06:52Z</time>
  <course>266.03</course>
  <speed>0.0</speed>
  <fix>3d</fix>
</trkpt>
<trkpt lat="40.072842" lon="-105.230575">
  <ele>1586.09</ele>
  <time>2026-08-28T19:06:52Z</time>
  <course>11.22</course>
  <speed>0.0</speed>
  <fix>3d</fix>
</trkpt>
<trkpt lat="40.072842" lon="-105.230575">
  <ele>1586.09</ele>
  <time>2026-08-28T19:06:52Z</time>
  <course>266.05</course>
  <speed>0.0</speed>
  <fix>3d</fix>
</trkpt>
<trkpt lat="40.072842" lon="-105.230575">
  <ele>1586.09</ele>
  <time>2026-08-28T19:06:52Z</time>
  <course>11.31</course>
  <speed>0.0</speed>
  <fix>3d</fix>
</trkpt>
<trkpt lat="40.072842" lon="-105.230575">
  <ele>1586.09</ele>
  <time>2026-08-28T19:06:52Z</time>
  <course>266.03</course>
  <speed>0.0</speed>
  <fix>3d</fix>
</trkpt>
<trkpt lat="40.072842" lon="-105.230575">
  <ele>1586.09</ele>
  <time>2026-08-28T19:06:52Z</time>
  <course>11.4</course>
  <speed>0.0</speed>
  <fix>3d</fix>
</trkpt>
<trkpt lat="40.072842" lon="-105.230575">
  <ele>1586.09</ele>
  <time>2026-08-28T19:06:52Z</time>
  <course>266.03</course>
  <speed>0.0</speed>
  <fix>3d</fix>
</trkpt>
<trkpt lat="40.072842" lon="-105.230575">
  <ele>1586.09</ele>
  <time>2026-08-28T19:06:52Z</time>
  <course>11.48</course>
  <speed>0.0</speed>
  <fix>3d</fix>
</trkpt>
<trkpt lat="40.072842" lon="-105.230575">
  <ele>1586.09</ele>
  <time>2026-08-28T19:06:52Z</time>
  <course>266.03</course>
  <speed>0.0</speed>
  <fix>3d</fix>
</trkpt>
<trkpt lat="40.072842" lon="-105.230575">
  <ele>1586.09</ele>
  <time>2026-08-28T19:06:52Z</time>
  <course>11.55</course>
  <speed>0.0</speed>
  <fix>3d</fix>
</trkpt>
<trkpt lat="40.072842" lon="-105.230575">
  <ele>1586.09</ele>
  <time>2026-08-28T19:06:52Z</time>
  <course>266.03</course>
  <speed>0.0</speed>
  <fix>3d</fix>
</trkpt>
<trkpt lat="40.072842" lon="-105.230575">
  <ele>1586.09</ele>
  <time>2026-08-28T19:06:52Z</time>
  <course>11.62</course>
  <speed>0.0</speed>
  <fix>3d</fix>
</trkpt>
<trkpt lat="40.072842" lon="-105.230575">
  <ele>1586.09</ele>
  <time>2026-08-28T19:06:52Z</time>
  <course>266.03</course>
  <speed>0.0</speed>
  <fix>3d</fix>
</trkpt>
<trkpt lat="40.072842" lon="-105.230575">
  <ele>1586.09</ele>
  <time>2026-08-28T19:06:52Z</time>
  <course>11.68</course>
  <speed>0.0</speed>
  <fix>3d</fix>
</trkpt>
<trkpt lat="40.072842" lon="-105.230575">
  <ele>1586.09</ele>
  <time>2026-08-28T19:06:52Z</time>
  <course>266.03</course>
  <speed>0.0</speed>
  <fix>3d</fix>
</trkpt>
<trkpt lat="40.072842" lon="-105.230575">
  <ele>1586.09</ele>
  <time>2026-08-28T19:06:52Z</time>
  <course>11.73</course>
  <speed>0.0</speed>
  <fix>3d</fix>
</trkpt>
<trkpt lat="40.072842" lon="-105.230575">
  <ele>1586.09</ele>
  <time>2026-08-28T19:06:52Z</time>
  <course>266.03</course>
  <speed>0.0</speed>
  <fix>3d</fix>
</trkpt>
<trkpt lat="40.072842" lon="-105.230575">
  <ele>1586.09</ele>
  <time>2026-08-28T19:06:52Z</time>
  <course>11.78</course>
  <speed>0.0</speed>
  <fix>3d</fix>
</trkpt>
<trkpt lat="40.072842" lon="-105.230575">
  <ele>1586.09</ele>
  <time>2026-08-28T19:06:52Z</time>
  <course>266.03</course>
  <speed>0.0</speed>
  <fix>3d</fix>
</trkpt>
<trkpt lat="40.072842" lon="-105.230575">
  <ele>1586.09</ele>
  <time>2026-08-28T19:06:52Z</time>
  <course>11.82</course>
  <speed>0.0</speed>
  <fix>3d</fix>
</trkpt>
<trkpt lat="40.072842" lon="-105.230575">
  <ele>1586.09</ele>
  <time>2026-08-28T19:06:52Z</time>
  <course>266.03</course>
  <speed>0.0</speed>
  <fix>3d</fix>
</trkpt>
<trkpt lat="40.072842" lon="-105.230575">
  <ele>1586.09</ele>
  <time>2026-08-28T19:06:52Z</time>
  <course>11.86</course>
  <speed>0.0</speed>
  <fix>3d</fix>
</trkpt>
<trkpt lat="40.072842" lon="-105.230575">
  <ele>1586.09</ele>
  <time>2026-08-28T19:06:52Z</time>
  <course>266.03</course>
  <speed>0.0</speed>
  <fix>3d</fix>
</trkpt>
<trkpt lat="40.072842" lon="-105.230575">
  <ele>1586.09</ele>
  <time>2026-08-28T19:06:52Z</time>
  <course>11.9</course>
  <speed>0.0</speed>
  <fix>3d</fix>
</trkpt>
<trkpt lat="40.072842" lon="-105.230575">
  <ele>1586.09</ele>
  <time>2026-08-28T19:06:52Z</time>
  <course>266.03</course>
  <speed>0.0</speed>
  <fix>3d</fix>
</trkpt>
<trkpt lat="40.072842" lon="-105.230575">
  <ele>1586.09</ele>
  <time>2026-08-28T19:06:52Z</time>
  <course>11.93</course>
  <speed>0.0</speed>
  <fix>3d</fix>
</trkpt>
<trkpt lat="40.072842" lon="-105.230575">
  <ele>1586.09</ele>
  <time>2026-08-28T19:06:52Z</time>
  <course>266.03</course>
  <speed>0.0</speed>
  <fix>3d</fix>
</trkpt>
<trkpt lat="40.072842" lon="-105.230575">
  <ele>1586.09</ele>
  <time>2026-08-28T19:06:52Z</time>
  <course>11.96</course>
  <speed>0.0</speed>
  <fix>3d</fix>
</trkpt>
<trkpt lat="40.072842" lon="-105.230575">
  <ele>1586.09</ele>
  <time>2026-08-28T19:06:52Z</time>
  <course>266.03</course>
  <speed>0.0</speed>
  <fix>3d</fix>
</trkpt>
<trkpt lat="40.072842" lon="-105.230575">
  <ele>1586.09</ele>
  <time>2026-08-28T19:06:52Z</time>
  <course>11.98</course>
  <speed>0.0</speed>
  <fix>3d</fix>
</trkpt>
<trkpt lat="40.072842" lon="-105.230575">
  <ele>1586.09</ele>
  <time>2026-08-28T19:06:52Z</time>
  <course>266.03</course>
  <speed>0.0</speed>
  <fix>3d</fix>
</trkpt>
<trkpt lat="40.072842" lon="-105.230575">
  <ele>1586.09</ele>
  <time>2026-08-28T19:06:52Z</time>
  <course>12.01</course>
  <speed>0.0</speed>
  <fix>3d</fix>
</trkpt>
<trkpt lat="40.072842" lon="-105.230575">
  <ele>1586.09</ele>
  <time>2026-08-28T19:06:52Z</time>
  <course>266.03</course>
  <speed>0.0</speed>
  <fix>3d</fix>
</trkpt>
<trkpt lat="40.072842" lon="-105.230575">
  <ele>1586.09</ele>
  <time>2026-08-28T19:06:52Z</time>
  <course>12.03</course>
  <speed>0.0</speed>
  <fix>3d</fix>
</trkpt>
<trkpt lat="40.072842" lon="-105.230575">
  <ele>1586.09</ele>
  <time>2026-08-28T19:06:52Z</time>
  <course>266.03</course>
  <speed>0.0</speed>
  <fix>3d</fix>
</trkpt>
<trkpt lat="40.072842" lon="-105.230575">
  <ele>1586.09</ele>
  <time>2026-08-28T19:06:52Z</time>
  <course>12.04</course>
  <speed>0.0</speed>
  <fix>3d</fix>
</trkpt>
<trkpt lat="40.072842" lon="-105.230575">
  <ele>1586.09</ele>
  <time>2026-08-28T19:06:52Z</time>
  <course>266.03</course>
  <speed>0.0</speed>
  <fix>3d</fix>
</trkpt>
<trkpt lat="40.072842" lon="-105.230575">
  <ele>1586.09</ele>
  <time>2026-08-28T19:06:52Z</time>
  <course>12.06</course>
  <speed>0.0</speed>
  <fix>3d</fix>
</trkpt>
<trkpt lat="40.072842" lon="-105.230575">
  <ele>1586.09</ele>
  <time>2026-08-28T19:06:52Z</time>
  <course>266.03</course>
  <speed>0.0</speed>
  <fix>3d</fix>
</trkpt>
<trkpt lat="40.072842" lon="-105.230575">
  <ele>1586.09</ele>
  <time>2026-08-28T19:06:52Z</time>
  <course>12.07</course>
  <speed>0.0</speed>
  <fix>3d</fix>
</trkpt>
<trkpt lat="40.072842" lon="-105.230575">
  <ele>1586.09</ele>
  <time>2026-08-28T19:06:52Z</time>
  <course>266.03</course>
  <speed>0.0</speed>
  <fix>3d</fix>
</trkpt>
<trkpt lat="40.072842" lon="-105.230575">
  <ele>1586.09</ele>
  <time>2026-08-28T19:06:52Z</time>
  <course>12.08</course>
  <speed>0.0</speed>
  <fix>3d</fix>
</trkpt>
<trkpt lat="40.072842" lon="-105.230575">
  <ele>1586.09</ele>
  <time>2026-08-28T19:06:52Z</time>
  <course>266.03</course>
  <speed>0.0</speed>
  <fix>3d</fix>
</trkpt>
<trkpt lat="40.072842" lon="-105.230575">
  <ele>1586.09</ele>
  <time>2026-08-28T19:06:52Z</time>
  <course>12.09</course>
  <speed>0.0</speed>
  <fix>3d</fix>
</trkpt>
<trkpt lat="40.072842" lon="-105.230575">
  <ele>1586.09</ele>
  <time>2026-08-28T19:06:52Z</time>
  <course>266.03</course>
  <speed>0.0</speed>
  <fix>3d</fix>
</trkpt>
<trkpt lat="40.072842" lon="-105.230575">
  <ele>1586.09</ele>
  <time>2026-08-28T19:06:52Z</time>
  <course>12.1</course>
  <speed>0.0</speed>
  <fix>3d</fix>
</trkpt>
<trkpt lat="40.072842" lon="-105.230575">
  <ele>1586.09</ele>
  <time>2026-08-28T19:06:52Z</time>
  <course>266.03</course>
  <speed>0.0</speed>
  <fix>3d</fix>
</trkpt>
<trkpt lat="40.072842" lon="-105.230575">
  <ele>1586.09</ele>
  <time>2026-08-28T19:06:52Z</time>
  <course>12.11</course>
  <speed>0.0</speed>
  <fix>3d</fix>
</trkpt>
<trkpt lat="40.072842" lon="-105.230575">
  <ele>1586.09</ele>
  <time>2026-08-28T19:06:52Z</time>
  <course>266.03</course>
  <speed>0.0</speed>
  <fix>3d</fix>
</trkpt>
<trkpt lat="40.072842" lon="-105.230575">
  <ele>1586.09</ele>
  <time>2026-08-28T19:06:52Z</time>
  <course>12.12</course>
  <speed>0.0</speed>
  <fix>3d</fix>
</trkpt>
<trkpt lat="40.072842" lon="-105.230575">
  <ele>1586.09</ele>
  <time>2026-08-28T19:06:52Z</time>
  <course>266.03</course>
  <speed>0.0</speed>
  <fix>3d</fix>
</trkpt>
<trkpt lat="40.072842" lon="-105.230575">
  <ele>1586.09</ele>
  <time>2026-08-28T19:06:52Z</time>
  <course>12.12</course>
  <speed>0.0</speed>
  <fix>3d</fix>
</trkpt>
<trkpt lat="40.072842" lon="-105.230575">
  <ele>1586.09</ele>
  <time>2026-08-28T19:06:52Z</time>
  <course>266.03</course>
  <speed>0.0</speed>
  <fix>3d</fix>
</trkpt>
<trkpt lat="40.072842" lon="-105.230575">
  <ele>1586.09</ele>
  <time>2026-08-28T19:06:52Z</time>
  <course>12.12</course>
  <speed>0.0</speed>
  <fix>3d</fix>
</trkpt>
<trkpt lat="40.072842" lon="-105.230575">
  <ele>1586.09</ele>
  <time>2026-08-28T19:06:52Z</time>
  <course>266.03</course>
  <speed>0.0</speed>
  <fix>3d</fix>
</trkpt>
<trkpt lat="40.072842" lon="-105.230575">
  <ele>1586.09</ele>
  <time>2026-08-28T19:06:52Z</time>
  <course>12.13</course>
  <speed>0.0</speed>
  <fix>3d</fix>
</trkpt>
<trkpt lat="40.072842" lon="-105.230575">
  <ele>1586.09</ele>
  <time>2026-08-28T19:06:52Z</time>
  <course>266.03</course>
  <speed>0.0</speed>
  <fix>3d</fix>
</trkpt>
<trkpt lat="40.072842" lon="-105.230575">
  <ele>1586.09</ele>
  <time>2026-08-28T19:06:52Z</time>
  <course>12.13</course>
  <speed>0.0</speed>
  <fix>3d</fix>
</trkpt>
<trkpt lat="40.072842" lon="-105.230575">
  <ele>1586.09</ele>
  <time>2026-08-28T19:06:52Z</time>
  <course>266.03</course>
  <speed>0.0</speed>
  <fix>3d</fix>
</trkpt>
<trkpt lat="40.072842" lon="-105.230575">
  <ele>1586.09</ele>
  <time>2026-08-28T19:06:52Z</time>
  <course>12.13</course>
  <speed>0.0</speed>
  <fix>3d</fix>
</trkpt>
<trkpt lat="40.072842" lon="-105.230575">
  <ele>1586.09</ele>
  <time>2026-08-28T19:06:52Z</time>
  <course>266.03</course>
  <speed>0.0</speed>
  <fix>3d</fix>
</trkpt>
<trkpt lat="40.072842" lon="-105.230575">
  <ele>1586.09</ele>
  <time>2026-08-28T19:06:52Z</time>
  <course>12.13</course>
  <speed>0.0</speed>
  <fix>3d</fix>
</trkpt>
<trkpt lat="40.072842" lon="-105.230575">
  <ele>1586.09</ele>
  <time>2026-08-28T19:06:52Z</time>
  <course>266.03</course>
  <speed>0.0</speed>
  <fix>3d</fix>
</trkpt>
<trkpt lat="40.072842" lon="-105.230575">
  <ele>1586.09</ele>
  <time>2026-08-28T19:06:52Z</time>
  <course>12.12</course>
  <speed>0.01</speed>
  <fix>3d</fix>
</trkpt>
<trkpt lat="40.072842" lon="-105.230575">
  <ele>1586.09</ele>
  <time>2026-08-28T19:06:52Z</time>
  <course>266.03</course>
  <speed>0.0</speed>
  <fix>3d</fix>
</trkpt>
<trkpt lat="40.072842" lon="-105.230575">
  <ele>1586.09</ele>
  <time>2026-08-28T19:06:52Z</time>
  <course>12.12</course>
  <speed>0.01</speed>
  <fix>3d</fix>
</trkpt>
<trkpt lat="40.072842" lon="-105.230575">
  <ele>1586.09</ele>
  <time>2026-08-28T19:06:52Z</time>
  <course>266.03</course>
  <speed>0.0</speed>
  <fix>3d</fix>
</trkpt>
<trkpt lat="40.072842" lon="-105.230575">
  <ele>1586.09</ele>
  <time>2026-08-28T19:06:52Z</time>
  <course>12.12</course>
  <speed>0.01</speed>
  <fix>3d</fix>
</trkpt>
<trkpt lat="40.072842" lon="-105.230575">
  <ele>1586.09</ele>
  <time>2026-08-28T19:06:52Z</time>
  <course>266.03</course>
  <speed>0.0</speed>
  <fix>3d</fix>
</trkpt>
<trkpt lat="40.072842" lon="-105.230575">
  <ele>1586.09</ele>
  <time>2026-08-28T19:06:52Z</time>
  <course>12.12</course>
  <speed>0.01</speed>
  <fix>3d</fix>
</trkpt>
<trkpt lat="40.072842" lon="-105.230575">
  <ele>1586.09</ele>
  <time>2026-08-28T19:06:52Z</time>
  <course>266.03</course>
  <speed>0.0</speed>
  <fix>3d</fix>
</trkpt>
<trkpt lat="40.072842" lon="-105.230575">
  <ele>1586.09</ele>
  <time>2026-08-28T19:06:52Z</time>
  <course>12.11</course>
  <speed>0.01</speed>
  <fix>3d</fix>
</trkpt>
<trkpt lat="40.072842" lon="-105.230575">
  <ele>1586.09</ele>
  <time>2026-08-28T19:06:52Z</time>
  <course>266.03</course>
  <speed>0.0</speed>
  <fix>3d</fix>
</trkpt>
<trkpt lat="40.072842" lon="-105.230575">
  <ele>1586.09</ele>
  <time>2026-08-28T19:06:52Z</time>
  <course>12.11</course>
  <speed>0.01</speed>
  <fix>3d</fix>
</trkpt>
<trkpt lat="40.072842" lon="-105.230575">
  <ele>1586.09</ele>
  <time>2026-08-28T19:06:52Z</time>
  <course>266.03</course>
  <speed>0.0</speed>
  <fix>3d</fix>
</trkpt>
<trkpt lat="40.072842" lon="-105.230575">
  <ele>1586.09</ele>
  <time>2026-08-28T19:06:52Z</time>
  <course>12.1</course>
  <speed>0.01</speed>
  <fix>3d</fix>
</trkpt>
<trkpt lat="40.072842" lon="-105.230575">
  <ele>1586.09</ele>
  <time>2026-08-28T19:06:52Z</time>
  <course>266.03</course>
  <speed>0.0</speed>
  <fix>3d</fix>
</trkpt>
<trkpt lat="40.072842" lon="-105.230575">
  <ele>1586.09</ele>
  <time>2026-08-28T19:06:52Z</time>
  <course>12.1</course>
  <speed>0.01</speed>
  <fix>3d</fix>
</trkpt>
<trkpt lat="40.072842" lon="-105.230575">
  <ele>1586.09</ele>
  <time>2026-08-28T19:06:52Z</time>
  <course>266.03</course>
  <speed>0.0</speed>
  <fix>3d</fix>
</trkpt>
<trkpt lat="40.072842" lon="-105.230575">
  <ele>1586.09</ele>
  <time>2026-08-28T19:06:52Z</time>
  <course>12.09</course>
  <speed>0.01</speed>
  <fix>3d</fix>
</trkpt>
<trkpt lat="40.072842" lon="-105.230575">
  <ele>1586.09</ele>
  <time>2026-08-28T19:06:52Z</time>
  <course>266.03</course>
  <speed>0.0</speed>
  <fix>3d</fix>
</trkpt>
<trkpt lat="40.072842" lon="-105.230575">
  <ele>1586.09</ele>
  <time>2026-08-28T19:06:52Z</time>
  <course>12.09</course>
  <speed>0.01</speed>
  <fix>3d</fix>
</trkpt>
<trkpt lat="40.072842" lon="-105.230575">
  <ele>1586.09</ele>
  <time>2026-08-28T19:06:52Z</time>
  <course>266.03</course>
  <speed>0.0</speed>
  <fix>3d</fix>
</trkpt>
<trkpt lat="40.072842" lon="-105.230575">
  <ele>1586.09</ele>
  <time>2026-08-28T19:06:52Z</time>
  <course>12.08</course>
  <speed>0.01414213562373095</speed>
  <fix>3d</fix>
</trkpt>
<trkpt lat="40.072842" lon="-105.230575">
  <ele>1586.09</ele>
  <time>2026-08-28T19:06:52Z</time>
  <course>266.03</course>
  <speed>0.0</speed>
  <fix>3d</fix>
</trkpt>
<trkpt lat="40.072842" lon="-105.230575">
  <ele>1586.09</ele>
  <time>2026-08-28T19:06:52Z</time>
  <course>12.07</course>
  <speed>0.01414213562373095</speed>
  <fix>3d</fix>
</trkpt>
<trkpt lat="40.072842" lon="-105.230575">
  <ele>1586.09</ele>
  <time>2026-08-28T19:06:52Z</time>
  <course>266.03</course>
  <speed>0.0</speed>
  <fix>3d</fix>
</trkpt>
<trkpt lat="40.072842" lon="-105.230575">
  <ele>1586.09</ele>
  <time>2026-08-28T19:06:52Z</time>
  <course>12.07</course>
  <speed>0.01414213562373095</speed>
  <fix>3d</fix>
</trkpt>
<trkpt lat="40.072842" lon="-105.230575">
  <ele>1586.09</ele>
  <time>2026-08-28T19:06:52Z</time>
  <course>266.03</course>
  <speed>0.0</speed>
  <fix>3d</fix>
</trkpt>
<trkpt lat="40.072842" lon="-105.230575">
  <ele>1586.09</ele>
  <time>2026-08-28T19:06:52Z</time>
  <course>12.06</course>
  <speed>0.01414213562373095</speed>
  <fix>3d</fix>
</trkpt>
<trkpt lat="40.072842" lon="-105.230575">
  <ele>1586.09</ele>
  <time>2026-08-28T19:06:52Z</time>
  <course>266.03</course>
  <speed>0.0</speed>
  <fix>3d</fix>
</trkpt>
<trkpt lat="40.072842" lon="-105.230575">
  <ele>1586.09</ele>
  <time>2026-08-28T19:06:52Z</time>
  <course>12.05</course>
  <speed>0.01414213562373095</speed>
  <fix>3d</fix>
</trkpt>
<trkpt lat="40.072842" lon="-105.230575">
  <ele>1586.09</ele>
  <time>2026-08-28T19:06:52Z</time>
  <course>266.03</course>
  <speed>0.0</speed>
  <fix>3d</fix>
</trkpt>
<trkpt lat="40.072842" lon="-105.230575">
  <ele>1586.09</ele>
  <time>2026-08-28T19:06:52Z</time>
  <course>12.05</course>
  <speed>0.01414213562373095</speed>
  <fix>3d</fix>
</trkpt>
<trkpt lat="40.072842" lon="-105.230575">
  <ele>1586.09</ele>
  <time>2026-08-28T19:06:52Z</time>
  <course>266.03</course>
  <speed>0.0</speed>
  <fix>3d</fix>
</trkpt>
<trkpt lat="40.072842" lon="-105.230575">
  <ele>1586.09</ele>
  <time>2026-08-28T19:06:52Z</time>
  <course>12.04</course>
  <speed>0.01414213562373095</speed>
  <fix>3d</fix>
</trkpt>
<trkpt lat="40.072842" lon="-105.230575">
  <ele>1586.09</ele>
  <time>2026-08-28T19:06:52Z</time>
  <course>266.03</course>
  <speed>0.0</speed>
  <fix>3d</fix>
</trkpt>
<trkpt lat="40.072842" lon="-105.230575">
  <ele>1586.09</ele>
  <time>2026-08-28T19:06:52Z</time>
  <course>12.03</course>
  <speed>0.01414213562373095</speed>
  <fix>3d</fix>
</trkpt>
<trkpt lat="40.072842" lon="-105.230575">
  <ele>1586.09</ele>
  <time>2026-08-28T19:06:52Z</time>
  <course>266.03</course>
  <speed>0.0</speed>
  <fix>3d</fix>
</trkpt>
<trkpt lat="40.072842" lon="-105.230575">
  <ele>1586.09</ele>
  <time>2026-08-28T19:06:52Z</time>
  <course>12.02</course>
  <speed>0.01414213562373095</speed>
  <fix>3d</fix>
</trkpt>
<trkpt lat="40.072842" lon="-105.230575">
  <ele>1586.09</ele>
  <time>2026-08-28T19:06:52Z</time>
  <course>266.03</course>
  <speed>0.0</speed>
  <fix>3d</fix>
</trkpt>
<trkpt lat="40.072842" lon="-105.230575">
  <ele>1586.09</ele>
  <time>2026-08-28T19:06:52Z</time>
  <course>12.02</course>
  <speed>0.01414213562373095</speed>
  <fix>3d</fix>
</trkpt>
<trkpt lat="40.072842" lon="-105.230575">
  <ele>1586.09</ele>
  <time>2026-08-28T19:06:52Z</time>
  <course>266.03</course>
  <speed>0.0</speed>
  <fix>3d</fix>
</trkpt>
<trkpt lat="40.072842" lon="-105.230575">
  <ele>1586.09</ele>
  <time>2026-08-28T19:06:52Z</time>
  <course>12.01</course>
  <speed>0.01414213562373095</speed>
  <fix>3d</fix>
</trkpt>
<trkpt lat="40.072842" lon="-105.230575">
  <ele>1586.09</ele>
  <time>2026-08-28T19:06:52Z</time>
  <course>266.03</course>
  <speed>0.0</speed>
  <fix>3d</fix>
</trkpt>
<trkpt lat="40.072842" lon="-105.230575">
  <ele>1586.09</ele>
  <time>2026-08-28T19:06:52Z</time>
  <course>12.01</course>
  <speed>0.01414213562373095</speed>
  <fix>3d</fix>
</trkpt>
<trkpt lat="40.072842" lon="-105.230575">
  <ele>1586.09</ele>
  <time>2026-08-28T19:06:52Z</time>
  <course>266.03</course>
  <speed>0.0</speed>
  <fix>3d</fix>
</trkpt>
<trkpt lat="40.072842" lon="-105.230575">
  <ele>1586.09</ele>
  <time>2026-08-28T19:06:52Z</time>
  <course>12.0</course>
  <speed>0.01414213562373095</speed>
  <fix>3d</fix>
</trkpt>
<trkpt lat="40.072842" lon="-105.230575">
  <ele>1586.09</ele>
  <time>2026-08-28T19:06:52Z</time>
  <course>266.03</course>
  <speed>0.0</speed>
  <fix>3d</fix>
</trkpt>
<trkpt lat="40.072842" lon="-105.230575">
  <ele>1586.09</ele>
  <time>2026-08-28T19:06:52Z</time>
  <course>11.99</course>
  <speed>0.01414213562373095</speed>
  <fix>3d</fix>
</trkpt>
<trkpt lat="40.072842" lon="-105.230575">
  <ele>1586.09</ele>
  <time>2026-08-28T19:06:52Z</time>
  <course>266.03</course>
  <speed>0.0</speed>
  <fix>3d</fix>
</trkpt>
<trkpt lat="40.072842" lon="-105.230575">
  <ele>1586.09</ele>
  <time>2026-08-28T19:06:52Z</time>
  <course>11.98</course>
  <speed>0.01414213562373095</speed>
  <fix>3d</fix>
</trkpt>
<trkpt lat="40.072842" lon="-105.230575">
  <ele>1586.09</ele>
  <time>2026-08-28T19:06:52Z</time>
  <course>266.03</course>
  <speed>0.0</speed>
  <fix>3d</fix>
</trkpt>
<trkpt lat="40.072842" lon="-105.230575">
  <ele>1586.09</ele>
  <time>2026-08-28T19:06:52Z</time>
  <course>11.97</course>
  <speed>0.01414213562373095</speed>
  <fix>3d</fix>
</trkpt>
<trkpt lat="40.072842" lon="-105.230575">
  <ele>1586.09</ele>
  <time>2026-08-28T19:06:52Z</time>
  <course>266.03</course>
  <speed>0.0</speed>
  <fix>3d</fix>
</trkpt>
<trkpt lat="40.072842" lon="-105.230575">
  <ele>1586.09</ele>
  <time>2026-08-28T19:06:52Z</time>
  <course>11.96</course>
  <speed>0.022360679774997897</speed>
  <fix>3d</fix>
</trkpt>
<trkpt lat="40.072842" lon="-105.230575">
  <ele>1586.09</ele>
  <time>2026-08-28T19:06:52Z</time>
  <course>266.03</course>
  <speed>0.0</speed>
  <fix>3d</fix>
</trkpt>
<trkpt lat="40.072842" lon="-105.230575">
  <ele>1586.09</ele>
  <time>2026-08-28T19:06:52Z</time>
  <course>11.96</course>
  <speed>0.022360679774997897</speed>
  <fix>3d</fix>
</trkpt>
<trkpt lat="40.072842" lon="-105.230575">
  <ele>1586.09</ele>
  <time>2026-08-28T19:06:52Z</time>
  <course>266.03</course>
  <speed>0.0</speed>
  <fix>3d</fix>
</trkpt>
<trkpt lat="40.072842" lon="-105.230575">
  <ele>1586.09</ele>
  <time>2026-08-28T19:06:52Z</time>
  <course>11.95</course>
  <speed>0.022360679774997897</speed>
  <fix>3d</fix>
</trkpt>
<trkpt lat="40.072842" lon="-105.230575">
  <ele>1586.09</ele>
  <time>2026-08-28T19:06:52Z</time>
  <course>266.03</course>
  <speed>0.0</speed>
  <fix>3d</fix>
</trkpt>
<trkpt lat="40.072842" lon="-105.230575">
  <ele>1586.09</ele>
  <time>2026-08-28T19:06:52Z</time>
  <course>11.94</course>
  <speed>0.022360679774997897</speed>
  <fix>3d</fix>
</trkpt>
<trkpt lat="40.072842" lon="-105.230575">
  <ele>1586.09</ele>
  <time>2026-08-28T19:06:52Z</time>
  <course>266.03</course>
  <speed>0.0</speed>
  <fix>3d</fix>
</trkpt>
<trkpt lat="40.072842" lon="-105.230575">
  <ele>1586.09</ele>
  <time>2026-08-28T19:06:52Z</time>
  <course>11.93</course>
  <speed>0.022360679774997897</speed>
  <fix>3d</fix>
</trkpt>
<trkpt lat="40.072842" lon="-105.230575">
  <ele>1586.09</ele>
  <time>2026-08-28T19:06:52Z</time>
  <course>266.03</course>
  <speed>0.0</speed>
  <fix>3d</fix>
</trkpt>
<trkpt lat="40.072842" lon="-105.230575">
  <ele>1586.09</ele>
  <time>2026-08-28T19:06:52Z</time>
  <course>11.92</course>
  <speed>0.022360679774997897</speed>
  <fix>3d</fix>
</trkpt>
<trkpt lat="40.072842" lon="-105.230575">
  <ele>1586.09</ele>
  <time>2026-08-28T19:06:52Z</time>
  <course>266.03</course>
  <speed>0.0</speed>
  <fix>3d</fix>
</trkpt>
<trkpt lat="40.072842" lon="-105.230575">
  <ele>1586.09</ele>
  <time>2026-08-28T19:06:52Z</time>
  <course>11.91</course>
  <speed>0.022360679774997897</speed>
  <fix>3d</fix>
</trkpt>
<trkpt lat="40.072842" lon="-105.230575">
  <ele>1586.09</ele>
  <time>2026-08-28T19:06:52Z</time>
  <course>266.03</course>
  <speed>0.0</speed>
  <fix>3d</fix>
</trkpt>
<trkpt lat="40.072842" lon="-105.230575">
  <ele>1586.09</ele>
  <time>2026-08-28T19:06:52Z</time>
  <course>11.91</course>
  <speed>0.022360679774997897</speed>
  <fix>3d</fix>
</trkpt>
<trkpt lat="40.072842" lon="-105.230575">
  <ele>1586.09</ele>
  <time>2026-08-28T19:06:52Z</time>
  <course>266.03</course>
  <speed>0.0</speed>
  <fix>3d</fix>
</trkpt>
<trkpt lat="40.072842" lon="-105.230575">
  <ele>1586.09</ele>
  <time>2026-08-28T19:06:52Z</time>
  <course>11.9</course>
  <speed>0.022360679774997897</speed>
  <fix>3d</fix>
</trkpt>
<trkpt lat="40.072842" lon="-105.230575">
  <ele>1586.09</ele>
  <time>2026-08-28T19:06:52Z</time>
  <course>266.03</course>
  <speed>0.0</speed>
  <fix>3d</fix>
</trkpt>
<trkpt lat="40.072842" lon="-105.230575">
  <ele>1586.09</ele>
  <time>2026-08-28T19:06:52Z</time>
  <course>11.89</course>
  <speed>0.022360679774997897</speed>
  <fix>3d</fix>
</trkpt>
<trkpt lat="40.072842" lon="-105.230575">
  <ele>1586.09</ele>
  <time>2026-08-28T19:06:52Z</time>
  <course>266.03</course>
  <speed>0.0</speed>
  <fix>3d</fix>
</trkpt>
<trkpt lat="40.072842" lon="-105.230575">
  <ele>1586.09</ele>
  <time>2026-08-28T19:06:52Z</time>
  <course>11.88</course>
  <speed>0.022360679774997897</speed>
  <fix>3d</fix>
</trkpt>
<trkpt lat="40.072842" lon="-105.230575">
  <ele>1586.09</ele>
  <time>2026-08-28T19:06:52Z</time>
  <course>266.03</course>
  <speed>0.0</speed>
  <fix>3d</fix>
</trkpt>
<trkpt lat="40.072842" lon="-105.230575">
  <ele>1586.09</ele>
  <time>2026-08-28T19:06:52Z</time>
  <course>11.87</course>
  <speed>0.022360679774997897</speed>
  <fix>3d</fix>
</trkpt>
<trkpt lat="40.072842" lon="-105.230575">
  <ele>1586.09</ele>
  <time>2026-08-28T19:06:52Z</time>
  <course>266.03</course>
  <speed>0.0</speed>
  <fix>3d</fix>
</trkpt>
<trkpt lat="40.072842" lon="-105.230575">
  <ele>1586.09</ele>
  <time>2026-08-28T19:06:52Z</time>
  <course>11.86</course>
  <speed>0.022360679774997897</speed>
  <fix>3d</fix>
</trkpt>
<trkpt lat="40.072842" lon="-105.230575">
  <ele>1586.09</ele>
  <time>2026-08-28T19:06:52Z</time>
  <course>266.03</course>
  <speed>0.0</speed>
  <fix>3d</fix>
</trkpt>
<trkpt lat="40.072842" lon="-105.230575">
  <ele>1586.09</ele>
  <time>2026-08-28T19:06:52Z</time>
  <course>11.86</course>
  <speed>0.022360679774997897</speed>
  <fix>3d</fix>
</trkpt>
<trkpt lat="40.072842" lon="-105.230575">
  <ele>1586.09</ele>
  <time>2026-08-28T19:06:52Z</time>
  <course>266.03</course>
  <speed>0.0</speed>
  <fix>3d</fix>
</trkpt>
<trkpt lat="40.072842" lon="-105.230575">
  <ele>1586.09</ele>
  <time>2026-08-28T19:06:52Z</time>
  <course>11.85</course>
  <speed>0.0282842712474619</speed>
  <fix>3d</fix>
</trkpt>
<trkpt lat="40.072842" lon="-105.230575">
  <ele>1586.09</ele>
  <time>2026-08-28T19:06:52Z</time>
  <course>266.03</course>
  <speed>0.0</speed>
  <fix>3d</fix>
</trkpt>
<trkpt lat="40.072842" lon="-105.230575">
  <ele>1586.09</ele>
  <time>2026-08-28T19:06:52Z</time>
  <course>11.84</course>
  <speed>0.0282842712474619</speed>
  <fix>3d</fix>
</trkpt>
<trkpt lat="40.072842" lon="-105.230575">
  <ele>1586.09</ele>
  <time>2026-08-28T19:06:52Z</time>
  <course>266.03</course>
  <speed>0.0</speed>
  <fix>3d</fix>
</trkpt>
<trkpt lat="40.072842" lon="-105.230575">
  <ele>1586.09</ele>
  <time>2026-08-28T19:06:52Z</time>
  <course>11.83</course>
  <speed>0.0282842712474619</speed>
  <fix>3d</fix>
</trkpt>
<trkpt lat="40.072842" lon="-105.230575">
  <ele>1586.09</ele>
  <time>2026-08-28T19:06:52Z</time>
  <course>266.03</course>
  <speed>0.0</speed>
  <fix>3d</fix>
</trkpt>
<trkpt lat="40.072842" lon="-105.230575">
  <ele>1586.09</ele>
  <time>2026-08-28T19:06:52Z</time>
  <course>11.82</course>
  <speed>0.0282842712474619</speed>
  <fix>3d</fix>
</trkpt>
<trkpt lat="40.072842" lon="-105.230575">
  <ele>1586.09</ele>
  <time>2026-08-28T19:06:52Z</time>
  <course>266.03</course>
  <speed>0.0</speed>
  <fix>3d</fix>
</trkpt>
<trkpt lat="40.072842" lon="-105.230575">
  <ele>1586.09</ele>
  <time>2026-08-28T19:06:52Z</time>
  <course>11.82</course>
  <speed>0.0282842712474619</speed>
  <fix>3d</fix>
</trkpt>
<trkpt lat="40.072842" lon="-105.230575">
  <ele>1586.09</ele>
  <time>2026-08-28T19:06:52Z</time>
  <course>266.03</course>
  <speed>0.0</speed>
  <fix>3d</fix>
</trkpt>
<trkpt lat="40.072842" lon="-105.230575">
  <ele>1586.09</ele>
  <time>2026-08-28T19:06:52Z</time>
  <course>11.81</course>
  <speed>0.0282842712474619</speed>
  <fix>3d</fix>
</trkpt>
<trkpt lat="40.072842" lon="-105.230575">
  <ele>1586.09</ele>
  <time>2026-08-28T19:06:52Z</time>
  <course>266.03</course>
  <speed>0.0</speed>
  <fix>3d</fix>
</trkpt>
<trkpt lat="40.072842" lon="-105.230575">
  <ele>1586.09</ele>
  <time>2026-08-28T19:06:52Z</time>
  <course>11.8</course>
  <speed>0.0282842712474619</speed>
  <fix>3d</fix>
</trkpt>
<trkpt lat="40.072842" lon="-105.230575">
  <ele>1586.09</ele>
  <time>2026-08-28T19:06:52Z</time>
  <course>266.03</course>
  <speed>0.0</speed>
  <fix>3d</fix>
</trkpt>
<trkpt lat="40.072842" lon="-105.230575">
  <ele>1586.09</ele>
  <time>2026-08-28T19:06:52Z</time>
  <course>11.79</course>
  <speed>0.0282842712474619</speed>
  <fix>3d</fix>
</trkpt>
<trkpt lat="40.072842" lon="-105.230575">
  <ele>1586.09</ele>
  <time>2026-08-28T19:06:52Z</time>
  <course>266.03</course>
  <speed>0.0</speed>
  <fix>3d</fix>
</trkpt>
<trkpt lat="40.072842" lon="-105.230575">
  <ele>1586.09</ele>
  <time>2026-08-28T19:06:52Z</time>
  <course>11.78</course>
  <speed>0.0282842712474619</speed>
  <fix>3d</fix>
</trkpt>
<trkpt lat="40.072842" lon="-105.230575">
  <ele>1586.09</ele>
  <time>2026-08-28T19:06:52Z</time>
  <course>266.03</course>
  <speed>0.0</speed>
  <fix>3d</fix>
</trkpt>
<trkpt lat="40.072842" lon="-105.230575">
  <ele>1586.09</ele>
  <time>2026-08-28T19:06:52Z</time>
  <course>11.78</course>
  <speed>0.0282842712474619</speed>
  <fix>3d</fix>
</trkpt>
<trkpt lat="40.072842" lon="-105.230575">
  <ele>1586.09</ele>
  <time>2026-08-28T19:06:52Z</time>
  <course>266.03</course>
  <speed>0.0</speed>
  <fix>3d</fix>
</trkpt>
<trkpt lat="40.072842" lon="-105.230575">
  <ele>1586.09</ele>
  <time>2026-08-28T19:06:52Z</time>
  <course>11.77</course>
  <speed>0.0282842712474619</speed>
  <fix>3d</fix>
</trkpt>
<trkpt lat="40.072842" lon="-105.230575">
  <ele>1586.09</ele>
  <time>2026-08-28T19:06:52Z</time>
  <course>266.03</course>
  <speed>0.0</speed>
  <fix>3d</fix>
</trkpt>
<trkpt lat="40.072842" lon="-105.230575">
  <ele>1586.09</ele>
  <time>2026-08-28T19:06:52Z</time>
  <course>11.76</course>
  <speed>0.0282842712474619</speed>
  <fix>3d</fix>
</trkpt>
<trkpt lat="40.072842" lon="-105.230575">
  <ele>1586.09</ele>
  <time>2026-08-28T19:06:52Z</time>
  <course>266.03</course>
  <speed>0.0</speed>
  <fix>3d</fix>
</trkpt>
<trkpt lat="40.072842" lon="-105.230575">
  <ele>1586.09</ele>
  <time>2026-08-28T19:06:52Z</time>
  <course>11.76</course>
  <speed>0.0282842712474619</speed>
  <fix>3d</fix>
</trkpt>
<trkpt lat="40.072842" lon="-105.230575">
  <ele>1586.09</ele>
  <time>2026-08-28T19:06:52Z</time>
  <course>266.03</course>
  <speed>0.0</speed>
  <fix>3d</fix>
</trkpt>
<trkpt lat="40.072842" lon="-105.230575">
  <ele>1586.09</ele>
  <time>2026-08-28T19:06:52Z</time>
  <course>11.75</course>
  <speed>0.03605551275463989</speed>
  <fix>3d</fix>
</trkpt>
<trkpt lat="40.072842" lon="-105.230575">
  <ele>1586.09</ele>
  <time>2026-08-28T19:06:52Z</time>
  <course>266.03</course>
  <speed>0.0</speed>
  <fix>3d</fix>
</trkpt>
<trkpt lat="40.072842" lon="-105.230575">
  <ele>1586.09</ele>
  <time>2026-08-28T19:06:52Z</time>
  <course>11.74</course>
  <speed>0.03605551275463989</speed>
  <fix>3d</fix>
</trkpt>
<trkpt lat="40.072842" lon="-105.230575">
  <ele>1586.09</ele>
  <time>2026-08-28T19:06:52Z</time>
  <course>266.03</course>
  <speed>0.0</speed>
  <fix>3d</fix>
</trkpt>
<trkpt lat="40.072842" lon="-105.230575">
  <ele>1586.09</ele>
  <time>2026-08-28T19:06:52Z</time>
  <course>11.73</course>
  <speed>0.03605551275463989</speed>
  <fix>3d</fix>
</trkpt>
<trkpt lat="40.072842" lon="-105.230575">
  <ele>1586.09</ele>
  <time>2026-08-28T19:06:52Z</time>
  <course>266.03</course>
  <speed>0.0</speed>
  <fix>3d</fix>
</trkpt>
<trkpt lat="40.072842" lon="-105.230575">
  <ele>1586.09</ele>
  <time>2026-08-28T19:06:52Z</time>
  <course>11.72</course>
  <speed>0.03605551275463989</speed>
  <fix>3d</fix>
</trkpt>
<trkpt lat="40.072842" lon="-105.230575">
  <ele>1586.09</ele>
  <time>2026-08-28T19:06:52Z</time>
  <course>266.03</course>
  <speed>0.0</speed>
  <fix>3d</fix>
</trkpt>
<trkpt lat="40.072842" lon="-105.230575">
  <ele>1586.09</ele>
  <time>2026-08-28T19:06:52Z</time>
  <course>11.72</course>
  <speed>0.03605551275463989</speed>
  <fix>3d</fix>
</trkpt>
<trkpt lat="40.072842" lon="-105.230575">
  <ele>1586.09</ele>
  <time>2026-08-28T19:06:52Z</time>
  <course>266.03</course>
  <speed>0.0</speed>
  <fix>3d</fix>
</trkpt>
<trkpt lat="40.072842" lon="-105.230575">
  <ele>1586.09</ele>
  <time>2026-08-28T19:06:52Z</time>
  <course>11.71</course>
  <speed>0.03605551275463989</speed>
  <fix>3d</fix>
</trkpt>
<trkpt lat="40.072842" lon="-105.230575">
  <ele>1586.09</ele>
  <time>2026-08-28T19:06:52Z</time>
  <course>266.03</course>
  <speed>0.0</speed>
  <fix>3d</fix>
</trkpt>
<trkpt lat="40.072842" lon="-105.230575">
  <ele>1586.09</ele>
  <time>2026-08-28T19:06:52Z</time>
  <course>11.7</course>
  <speed>0.03605551275463989</speed>
  <fix>3d</fix>
</trkpt>
<trkpt lat="40.072842" lon="-105.230575">
  <ele>1586.09</ele>
  <time>2026-08-28T19:06:52Z</time>
  <course>266.03</course>
  <speed>0.0</speed>
  <fix>3d</fix>
</trkpt>
<trkpt lat="40.072842" lon="-105.230575">
  <ele>1586.09</ele>
  <time>2026-08-28T19:06:52Z</time>
  <course>11.7</course>
  <speed>0.03605551275463989</speed>
  <fix>3d</fix>
</trkpt>
<trkpt lat="40.072842" lon="-105.230575">
  <ele>1586.09</ele>
  <time>2026-08-28T19:06:52Z</time>
  <course>266.03</course>
  <speed>0.0</speed>
  <fix>3d</fix>
</trkpt>
<trkpt lat="40.072842" lon="-105.230575">
  <ele>1586.09</ele>
  <time>2026-08-28T19:06:52Z</time>
  <course>11.69</course>
  <speed>0.03605551275463989</speed>
  <fix>3d</fix>
</trkpt>
<trkpt lat="40.072842" lon="-105.230575">
  <ele>1586.09</ele>
  <time>2026-08-28T19:06:52Z</time>
  <course>266.03</course>
  <speed>0.0</speed>
  <fix>3d</fix>
</trkpt>
<trkpt lat="40.072842" lon="-105.230575">
  <ele>1586.09</ele>
  <time>2026-08-28T19:06:52Z</time>
  <course>11.68</course>
  <speed>0.03605551275463989</speed>
  <fix>3d</fix>
</trkpt>
<trkpt lat="40.072842" lon="-105.230575">
  <ele>1586.09</ele>
  <time>2026-08-28T19:06:52Z</time>
  <course>266.03</course>
  <speed>0.0</speed>
  <fix>3d</fix>
</trkpt>
<trkpt lat="40.072842" lon="-105.230575">
  <ele>1586.09</ele>
  <time>2026-08-28T19:06:52Z</time>
  <course>11.67</course>
  <speed>0.03605551275463989</speed>
  <fix>3d</fix>
</trkpt>
<trkpt lat="40.072842" lon="-105.230575">
  <ele>1586.09</ele>
  <time>2026-08-28T19:06:52Z</time>
  <course>266.03</course>
  <speed>0.0</speed>
  <fix>3d</fix>
</trkpt>
<trkpt lat="40.072842" lon="-105.230575">
  <ele>1586.09</ele>
  <time>2026-08-28T19:06:52Z</time>
  <course>11.67</course>
  <speed>0.03605551275463989</speed>
  <fix>3d</fix>
</trkpt>
<trkpt lat="40.072842" lon="-105.230575">
  <ele>1586.09</ele>
  <time>2026-08-28T19:06:52Z</time>
  <course>266.03</course>
  <speed>0.0</speed>
  <fix>3d</fix>
</trkpt>
<trkpt lat="40.072842" lon="-105.230575">
  <ele>1586.09</ele>
  <time>2026-08-28T19:06:52Z</time>
  <course>11.66</course>
  <speed>0.03605551275463989</speed>
  <fix>3d</fix>
</trkpt>
<trkpt lat="40.072842" lon="-105.230575">
  <ele>1586.09</ele>
  <time>2026-08-28T19:06:52Z</time>
  <course>266.03</course>
  <speed>0.0</speed>
  <fix>3d</fix>
</trkpt>
<trkpt lat="40.072842" lon="-105.230575">
  <ele>1586.09</ele>
  <time>2026-08-28T19:06:52Z</time>
  <course>11.65</course>
  <speed>0.03605551275463989</speed>
  <fix>3d</fix>
</trkpt>
<trkpt lat="40.072842" lon="-105.230575">
  <ele>1586.09</ele>
  <time>2026-08-28T19:06:52Z</time>
  <course>266.03</course>
  <speed>0.0</speed>
  <fix>3d</fix>
</trkpt>
<trkpt lat="40.072842" lon="-105.230575">
  <ele>1586.09</ele>
  <time>2026-08-28T19:06:52Z</time>
  <course>11.65</course>
  <speed>0.03605551275463989</speed>
  <fix>3d</fix>
</trkpt>
<trkpt lat="40.072842" lon="-105.230575">
  <ele>1586.09</ele>
  <time>2026-08-28T19:06:52Z</time>
  <course>266.03</course>
  <speed>0.0</speed>
  <fix>3d</fix>
</trkpt>
<trkpt lat="40.072842" lon="-105.230575">
  <ele>1586.09</ele>
  <time>2026-08-28T19:06:52Z</time>
  <course>11.64</course>
  <speed>0.03605551275463989</speed>
  <fix>3d</fix>
</trkpt>
<trkpt lat="40.072842" lon="-105.230575">
  <ele>1586.09</ele>
  <time>2026-08-28T19:06:52Z</time>
  <course>266.03</course>
  <speed>0.0</speed>
  <fix>3d</fix>
</trkpt>
<trkpt lat="40.072842" lon="-105.230575">
  <ele>1586.09</ele>
  <time>2026-08-28T19:06:52Z</time>
  <course>11.63</course>
  <speed>0.03605551275463989</speed>
  <fix>3d</fix>
</trkpt>
<trkpt lat="40.072842" lon="-105.230575">
  <ele>1586.09</ele>
  <time>2026-08-28T19:06:52Z</time>
  <course>266.03</course>
  <speed>0.0</speed>
  <fix>3d</fix>
</trkpt>
<trkpt lat="40.072842" lon="-105.230575">
  <ele>1586.09</ele>
  <time>2026-08-28T19:06:52Z</time>
  <course>11.63</course>
  <speed>0.03605551275463989</speed>
  <fix>3d</fix>
</trkpt>
<trkpt lat="40.072842" lon="-105.230575">
  <ele>1586.09</ele>
  <time>2026-08-28T19:06:52Z</time>
  <course>266.03</course>
  <speed>0.0</speed>
  <fix>3d</fix>
</trkpt>
<trkpt lat="40.072842" lon="-105.230575">
  <ele>1586.09</ele>
  <time>2026-08-28T19:06:52Z</time>
  <course>11.62</course>
  <speed>0.03605551275463989</speed>
  <fix>3d</fix>
</trkpt>
<trkpt lat="40.072842" lon="-105.230575">
  <ele>1586.09</ele>
  <time>2026-08-28T19:06:52Z</time>
  <course>266.03</course>
  <speed>0.0</speed>
  <fix>3d</fix>
</trkpt>
<trkpt lat="40.072842" lon="-105.230575">
  <ele>1586.09</ele>
  <time>2026-08-28T19:06:52Z</time>
  <course>11.61</course>
  <speed>0.03605551275463989</speed>
  <fix>3d</fix>
</trkpt>
<trkpt lat="40.072842" lon="-105.230575">
  <ele>1586.09</ele>
  <time>2026-08-28T19:06:52Z</time>
  <course>266.03</course>
  <speed>0.0</speed>
  <fix>3d</fix>
</trkpt>
<trkpt lat="40.072842" lon="-105.230575">
  <ele>1586.09</ele>
  <time>2026-08-28T19:06:52Z</time>
  <course>11.61</course>
  <speed>0.03605551275463989</speed>
  <fix>3d</fix>
</trkpt>
<trkpt lat="40.072842" lon="-105.230575">
  <ele>1586.09</ele>
  <time>2026-08-28T19:06:52Z</time>
  <course>266.03</course>
  <speed>0.0</speed>
  <fix>3d</fix>
</trkpt>
<trkpt lat="40.072842" lon="-105.230575">
  <ele>1586.09</ele>
  <time>2026-08-28T19:06:52Z</time>
  <course>11.6</course>
  <speed>0.03605551275463989</speed>
  <fix>3d</fix>
</trkpt>
<trkpt lat="40.072842" lon="-105.230575">
  <ele>1586.09</ele>
  <time>2026-08-28T19:06:52Z</time>
  <course>266.03</course>
  <speed>0.0</speed>
  <fix>3d</fix>
</trkpt>
<trkpt lat="40.072842" lon="-105.230575">
  <ele>1586.09</ele>
  <time>2026-08-28T19:06:52Z</time>
  <course>11.59</course>
  <speed>0.03605551275463989</speed>
  <fix>3d</fix>
</trkpt>
<trkpt lat="40.072842" lon="-105.230575">
  <ele>1586.09</ele>
  <time>2026-08-28T19:06:52Z</time>
  <course>266.03</course>
  <speed>0.0</speed>
  <fix>3d</fix>
</trkpt>
<trkpt lat="40.072842" lon="-105.230575">
  <ele>1586.09</ele>
  <time>2026-08-28T19:06:52Z</time>
  <course>11.59</course>
  <speed>0.03605551275463989</speed>
  <fix>3d</fix>
</trkpt>
<trkpt lat="40.072842" lon="-105.230575">
  <ele>1586.09</ele>
  <time>2026-08-28T19:06:52Z</time>
  <course>266.03</course>
  <speed>0.0</speed>
  <fix>3d</fix>
</trkpt>
<trkpt lat="40.072842" lon="-105.230575">
  <ele>1586.09</ele>
  <time>2026-08-28T19:06:52Z</time>
  <course>11.58</course>
  <speed>0.03605551275463989</speed>
  <fix>3d</fix>
</trkpt>
<trkpt lat="40.072842" lon="-105.230575">
  <ele>1586.09</ele>
  <time>2026-08-28T19:06:52Z</time>
  <course>266.03</course>
  <speed>0.0</speed>
  <fix>3d</fix>
</trkpt>
<trkpt lat="39.654938" lon="-104.1331666">
  <ele>1569.54</ele>
  <time>2026-08-28T19:06:54Z</time>
  <course>168.11</course>
  <speed>0.0</speed>
  <fix>3d</fix>
</trkpt>
<trkpt lat="40.072842" lon="-105.230575">
  <ele>1586.09</ele>
  <time>2026-08-28T19:06:54Z</time>
  <course>2.03</course>
  <speed>0.0</speed>
  <fix>3d</fix>
</trkpt>
<trkpt lat="40.072842" lon="-105.230575">
  <ele>1586.09</ele>
  <time>2026-08-28T19:06:54Z</time>
  <course>238.4</course>
  <speed>0.0</speed>
  <fix>3d</fix>
</trkpt>
<trkpt lat="40.072842" lon="-105.230575">
  <ele>1586.09</ele>
  <time>2026-08-28T19:06:54Z</time>
  <course>2.41</course>
  <speed>0.0</speed>
  <fix>3d</fix>
</trkpt>
<trkpt lat="40.072842" lon="-105.230575">
  <ele>1586.09</ele>
  <time>2026-08-28T19:06:54Z</time>
  <course>194.29</course>
  <speed>0.0</speed>
  <fix>3d</fix>
</trkpt>
<trkpt lat="40.072842" lon="-105.230575">
  <ele>1586.09</ele>
  <time>2026-08-28T19:06:54Z</time>
  <course>3.14</course>
  <speed>0.0</speed>
  <fix>3d</fix>
</trkpt>
<trkpt lat="40.072842" lon="-105.230575">
  <ele>1586.09</ele>
  <time>2026-08-28T19:06:54Z</time>
  <course>193.66</course>
  <speed>0.0</speed>
  <fix>3d</fix>
</trkpt>
<trkpt lat="40.072842" lon="-105.230575">
  <ele>1586.09</ele>
  <time>2026-08-28T19:06:54Z</time>
  <course>3.83</course>
  <speed>0.0</speed>
  <fix>3d</fix>
</trkpt>
<trkpt lat="40.072842" lon="-105.230575">
  <ele>1586.09</ele>
  <time>2026-08-28T19:06:54Z</time>
  <course>303.54</course>
  <speed>0.0</speed>
  <fix>3d</fix>
</trkpt>
<trkpt lat="40.072842" lon="-105.230575">
  <ele>1586.09</ele>
  <time>2026-08-28T19:06:54Z</time>
  <course>4.46</course>
  <speed>0.0</speed>
  <fix>3d</fix>
</trkpt>
<trkpt lat="40.072842" lon="-105.230575">
  <ele>1586.09</ele>
  <time>2026-08-28T19:06:54Z</time>
  <course>110.94</course>
  <speed>0.0</speed>
  <fix>3d</fix>
</trkpt>
<trkpt lat="40.072842" lon="-105.230575">
  <ele>1586.09</ele>
  <time>2026-08-28T19:06:54Z</time>
  <course>5.04</course>
  <speed>0.0</speed>
  <fix>3d</fix>
</trkpt>
<trkpt lat="40.072842" lon="-105.230575">
  <ele>1586.09</ele>
  <time>2026-08-28T19:06:54Z</time>
  <course>191.21</course>
  <speed>0.0</speed>
  <fix>3d</fix>
</trkpt>
<trkpt lat="40.072842" lon="-105.230575">
  <ele>1586.09</ele>
  <time>2026-08-28T19:06:54Z</time>
  <course>5.6</course>
  <speed>0.0</speed>
  <fix>3d</fix>
</trkpt>
<trkpt lat="40.072842" lon="-105.230575">
  <ele>1586.09</ele>
  <time>2026-08-28T19:06:54Z</time>
  <course>252.23</course>
  <speed>0.0</speed>
  <fix>3d</fix>
</trkpt>
<trkpt lat="40.072842" lon="-105.230575">
  <ele>1586.09</ele>
  <time>2026-08-28T19:06:54Z</time>
  <course>6.13</course>
  <speed>0.0</speed>
  <fix>3d</fix>
</trkpt>
<trkpt lat="40.072842" lon="-105.230575">
  <ele>1586.09</ele>
  <time>2026-08-28T19:06:54Z</time>
  <course>170.36</course>
  <speed>0.0</speed>
  <fix>3d</fix>
</trkpt>
<trkpt lat="40.072842" lon="-105.230575">
  <ele>1586.09</ele>
  <time>2026-08-28T19:06:54Z</time>
  <course>6.63</course>
  <speed>0.0</speed>
  <fix>3d</fix>
</trkpt>
<trkpt lat="40.072842" lon="-105.230575">
  <ele>1586.09</ele>
  <time>2026-08-28T19:06:54Z</time>
  <course>179.36</course>
  <speed>0.0</speed>
  <fix>3d</fix>
</trkpt>
<trkpt lat="40.072842" lon="-105.230575">
  <ele>1586.09</ele>
  <time>2026-08-28T19:06:54Z</time>
  <course>7.09</course>
  <speed>0.0</speed>
  <fix>3d</fix>
</trkpt>
<trkpt lat="40.072842" lon="-105.230575">
  <ele>1586.09</ele>
  <time>2026-08-28T19:06:54Z</time>
  <course>19.98</course>
  <speed>0.0</speed>
  <fix>3d</fix>
</trkpt>
<trkpt lat="40.072842" lon="-105.230575">
  <ele>1586.09</ele>
  <time>2026-08-28T19:06:54Z</time>
  <course>7.52</course>
  <speed>0.0</speed>
  <fix>3d</fix>
</trkpt>
<trkpt lat="40.072842" lon="-105.230575">
  <ele>1586.09</ele>
  <time>2026-08-28T19:06:54Z</time>
  <course>17.49</course>
  <speed>0.0</speed>
  <fix>3d</fix>
</trkpt>
<trkpt lat="40.072842" lon="-105.230575">
  <ele>1586.09</ele>
  <time>2026-08-28T19:06:54Z</time>
  <course>7.91</course>
  <speed>0.0</speed>
  <fix>3d</fix>
</trkpt>
<trkpt lat="40.072842" lon="-105.230575">
  <ele>1586.09</ele>
  <time>2026-08-28T19:06:54Z</time>
  <course>356.19</course>
  <speed>0.0</speed>
  <fix>3d</fix>
</trkpt>
<trkpt lat="40.072842" lon="-105.230575">
  <ele>1586.09</ele>
  <time>2026-08-28T19:06:54Z</time>
  <course>8.28</course>
  <speed>0.0</speed>
  <fix>3d</fix>
</trkpt>
<trkpt lat="40.072842" lon="-105.230575">
  <ele>1586.09</ele>
  <time>2026-08-28T19:06:54Z</time>
  <course>77.32</course>
  <speed>0.0</speed>
  <fix>3d</fix>
</trkpt>
<trkpt lat="40.072842" lon="-105.230575">
  <ele>1586.09</ele>
  <time>2026-08-28T19:06:54Z</time>
  <course>8.62</course>
  <speed>0.0</speed>
  <fix>3d</fix>
</trkpt>
<trkpt lat="40.072842" lon="-105.230575">
  <ele>1586.09</ele>
  <time>2026-08-28T19:06:54Z</time>
  <course>290.54</course>
  <speed>0.0</speed>
  <fix>3d</fix>
</trkpt>
<trkpt lat="40.072842" lon="-105.230575">
  <ele>1586.09</ele>
  <time>2026-08-28T19:06:54Z</time>
  <course>8.93</course>
  <speed>0.0</speed>
  <fix>3d</fix>
</trkpt>
<trkpt lat="40.072842" lon="-105.230575">
  <ele>1586.09</ele>
  <time>2026-08-28T19:06:54Z</time>
  <course>338.69</course>
  <speed>0.0</speed>
  <fix>3d</fix>
</trkpt>
<trkpt lat="40.072842" lon="-105.230575">
  <ele>1586.09</ele>
  <time>2026-08-28T19:06:54Z</time>
  <course>9.22</course>
  <speed>0.0</speed>
  <fix>3d</fix>
</trkpt>
<trkpt lat="40.072842" lon="-105.230575">
  <ele>1586.09</ele>
  <time>2026-08-28T19:06:54Z</time>
  <course>326.81</course>
  <speed>0.0</speed>
  <fix>3d</fix>
</trkpt>
<trkpt lat="40.072842" lon="-105.230575">
  <ele>1586.09</ele>
  <time>2026-08-28T19:06:54Z</time>
  <course>9.48</course>
  <speed>0.0</speed>
  <fix>3d</fix>
</trkpt>
<trkpt lat="40.072842" lon="-105.230575">
  <ele>1586.09</ele>
  <time>2026-08-28T19:06:54Z</time>
  <course>262.23</course>
  <speed>0.0</speed>
  <fix>3d</fix>
</trkpt>
<trkpt lat="40.072842" lon="-105.230575">
  <ele>1586.09</ele>
  <time>2026-08-28T19:06:54Z</time>
  <course>9.72</course>
  <speed>0.0</speed>
  <fix>3d</fix>
</trkpt>
<trkpt lat="40.072842" lon="-105.230575">
  <ele>1586.09</ele>
  <time>2026-08-28T19:06:54Z</time>
  <course>159.08</course>
  <speed>0.0</speed>
  <fix>3d</fix>
</trkpt>
<trkpt lat="40.072842" lon="-105.230575">
  <ele>1586.09</ele>
  <time>2026-08-28T19:06:54Z</time>
  <course>9.95</course>
  <speed>0.0</speed>
  <fix>3d</fix>
</trkpt>
<trkpt lat="40.072842" lon="-105.230575">
  <ele>1586.09</ele>
  <time>2026-08-28T19:06:54Z</time>
  <course>287.98</course>
  <speed>0.0</speed>
  <fix>3d</fix>
</trkpt>
<trkpt lat="40.072842" lon="-105.230575">
  <ele>1586.09</ele>
  <time>2026-08-28T19:06:54Z</time>
  <course>10.15</course>
  <speed>0.0</speed>
  <fix>3d</fix>
</trkpt>
<trkpt lat="40.072842" lon="-105.230575">
  <ele>1586.09</ele>
  <time>2026-08-28T19:06:54Z</time>
  <course>278.3</course>
  <speed>0.0</speed>
  <fix>3d</fix>
</trkpt>
<trkpt lat="40.072842" lon="-105.230575">
  <ele>1586.09</ele>
  <time>2026-08-28T19:06:54Z</time>
  <course>10.34</course>
  <speed>0.0</speed>
  <fix>3d</fix>
</trkpt>
<trkpt lat="40.072842" lon="-105.230575">
  <ele>1586.09</ele>
  <time>2026-08-28T19:06:54Z</time>
  <course>261.72</course>
  <speed>0.0</speed>
  <fix>3d</fix>
</trkpt>
<trkpt lat="40.072842" lon="-105.230575">
  <ele>1586.09</ele>
  <time>2026-08-28T19:06:54Z</time>
  <course>10.51</course>
  <speed>0.0</speed>
  <fix>3d</fix>
</trkpt>
<trkpt lat="40.072842" lon="-105.230575">
  <ele>1586.09</ele>
  <time>2026-08-28T19:06:54Z</time>
  <course>264.4</course>
  <speed>0.0</speed>
  <fix>3d</fix>
</trkpt>
<trkpt lat="40.072842" lon="-105.230575">
  <ele>1586.09</ele>
  <time>2026-08-28T19:06:54Z</time>
  <course>10.67</course>
  <speed>0.0</speed>
  <fix>3d</fix>
</trkpt>
<trkpt lat="40.072842" lon="-105.230575">
  <ele>1586.09</ele>
  <time>2026-08-28T19:06:54Z</time>
  <course>266.8</course>
  <speed>0.0</speed>
  <fix>3d</fix>
</trkpt>
<trkpt lat="40.072842" lon="-105.230575">
  <ele>1586.09</ele>
  <time>2026-08-28T19:06:54Z</time>
  <course>10.81</course>
  <speed>0.0</speed>
  <fix>3d</fix>
</trkpt>
<trkpt lat="40.072842" lon="-105.230575">
  <ele>1586.09</ele>
  <time>2026-08-28T19:06:54Z</time>
  <course>266.15</course>
  <speed>0.0</speed>
  <fix>3d</fix>
</trkpt>
<trkpt lat="40.072842" lon="-105.230575">
  <ele>1586.09</ele>
  <time>2026-08-28T19:06:54Z</time>
  <course>10.94</course>
  <speed>0.0</speed>
  <fix>3d</fix>
</trkpt>
<trkpt lat="40.072842" lon="-105.230575">
  <ele>1586.09</ele>
  <time>2026-08-28T19:06:54Z</time>
  <course>265.92</course>
  <speed>0.0</speed>
  <fix>3d</fix>
</trkpt>
<trkpt lat="40.072842" lon="-105.230575">
  <ele>1586.09</ele>
  <time>2026-08-28T19:06:54Z</time>
  <course>11.07</course>
  <speed>0.0</speed>
  <fix>3d</fix>
</trkpt>
<trkpt lat="40.072842" lon="-105.230575">
  <ele>1586.09</ele>
  <time>2026-08-28T19:06:54Z</time>
  <course>266.03</course>
  <speed>0.0</speed>
  <fix>3d</fix>
</trkpt>
<trkpt lat="40.072842" lon="-105.230575">
  <ele>1586.09</ele>
  <time>2026-08-28T19:06:54Z</time>
  <course>11.18</course>
  <speed>0.0</speed>
  <fix>3d</fix>
</trkpt>
<trkpt lat="40.072842" lon="-105.230575">
  <ele>1586.09</ele>
  <time>2026-08-28T19:06:54Z</time>
  <course>266.05</course>
  <speed>0.0</speed>
  <fix>3d</fix>
</trkpt>
<trkpt lat="40.072842" lon="-105.230575">
  <ele>1586.09</ele>
  <time>2026-08-28T19:06:54Z</time>
  <course>11.28</course>
  <speed>0.0</speed>
  <fix>3d</fix>
</trkpt>
<trkpt lat="40.072842" lon="-105.230575">
  <ele>1586.09</ele>
  <time>2026-08-28T19:06:54Z</time>
  <course>266.03</course>
  <speed>0.0</speed>
  <fix>3d</fix>
</trkpt>
<trkpt lat="40.072842" lon="-105.230575">
  <ele>1586.09</ele>
  <time>2026-08-28T19:06:54Z</time>
  <course>11.37</course>
  <speed>0.0</speed>
  <fix>3d</fix>
</trkpt>
<trkpt lat="40.072842" lon="-105.230575">
  <ele>1586.09</ele>
  <time>2026-08-28T19:06:54Z</time>
  <course>266.03</course>
  <speed>0.0</speed>
  <fix>3d</fix>
</trkpt>
<trkpt lat="40.072842" lon="-105.230575">
  <ele>1586.09</ele>
  <time>2026-08-28T19:06:54Z</time>
  <course>11.45</course>
  <speed>0.0</speed>
  <fix>3d</fix>
</trkpt>
<trkpt lat="40.072842" lon="-105.230575">
  <ele>1586.09</ele>
  <time>2026-08-28T19:06:54Z</time>
  <course>266.03</course>
  <speed>0.0</speed>
  <fix>3d</fix>
</trkpt>
<trkpt lat="40.072842" lon="-105.230575">
  <ele>1586.09</ele>
  <time>2026-08-28T19:06:54Z</time>
  <course>11.53</course>
  <speed>0.0</speed>
  <fix>3d</fix>
</trkpt>
<trkpt lat="40.072842" lon="-105.230575">
  <ele>1586.09</ele>
  <time>2026-08-28T19:06:54Z</time>
  <course>266.03</course>
  <speed>0.0</speed>
  <fix>3d</fix>
</trkpt>
<trkpt lat="40.072842" lon="-105.230575">
  <ele>1586.09</ele>
  <time>2026-08-28T19:06:54Z</time>
  <course>11.59</course>
  <speed>0.0</speed>
  <fix>3d</fix>
</trkpt>
<trkpt lat="40.072842" lon="-105.230575">
  <ele>1586.09</ele>
  <time>2026-08-28T19:06:54Z</time>
  <course>266.03</course>
  <speed>0.0</speed>
  <fix>3d</fix>
</trkpt>
<trkpt lat="40.072842" lon="-105.230575">
  <ele>1586.09</ele>
  <time>2026-08-28T19:06:54Z</time>
  <course>11.65</course>
  <speed>0.0</speed>
  <fix>3d</fix>
</trkpt>
<trkpt lat="40.072842" lon="-105.230575">
  <ele>1586.09</ele>
  <time>2026-08-28T19:06:54Z</time>
  <course>266.03</course>
  <speed>0.0</speed>
  <fix>3d</fix>
</trkpt>
<trkpt lat="40.072842" lon="-105.230575">
  <ele>1586.09</ele>
  <time>2026-08-28T19:06:54Z</time>
  <course>11.71</course>
  <speed>0.0</speed>
  <fix>3d</fix>
</trkpt>
<trkpt lat="40.072842" lon="-105.230575">
  <ele>1586.09</ele>
  <time>2026-08-28T19:06:54Z</time>
  <course>266.03</course>
  <speed>0.0</speed>
  <fix>3d</fix>
</trkpt>
<trkpt lat="40.072842" lon="-105.230575">
  <ele>1586.09</ele>
  <time>2026-08-28T19:06:54Z</time>
  <course>11.76</course>
  <speed>0.0</speed>
  <fix>3d</fix>
</trkpt>
<trkpt lat="40.072842" lon="-105.230575">
  <ele>1586.09</ele>
  <time>2026-08-28T19:06:54Z</time>
  <course>266.03</course>
  <speed>0.0</speed>
  <fix>3d</fix>
</trkpt>
<trkpt lat="40.072842" lon="-105.230575">
  <ele>1586.09</ele>
  <time>2026-08-28T19:06:54Z</time>
  <course>11.81</course>
  <speed>0.0</speed>
  <fix>3d</fix>
</trkpt>
<trkpt lat="40.072842" lon="-105.230575">
  <ele>1586.09</ele>
  <time>2026-08-28T19:06:54Z</time>
  <course>266.03</course>
  <speed>0.0</speed>
  <fix>3d</fix>
</trkpt>
<trkpt lat="40.072842" lon="-105.230575">
  <ele>1586.09</ele>
  <time>2026-08-28T19:06:54Z</time>
  <course>11.85</course>
  <speed>0.0</speed>
  <fix>3d</fix>
</trkpt>
<trkpt lat="40.072842" lon="-105.230575">
  <ele>1586.09</ele>
  <time>2026-08-28T19:06:54Z</time>
  <course>266.03</course>
  <speed>0.0</speed>
  <fix>3d</fix>
</trkpt>
<trkpt lat="40.072842" lon="-105.230575">
  <ele>1586.09</ele>
  <time>2026-08-28T19:06:54Z</time>
  <course>11.88</course>
  <speed>0.0</speed>
  <fix>3d</fix>
</trkpt>
<trkpt lat="40.072842" lon="-105.230575">
  <ele>1586.09</ele>
  <time>2026-08-28T19:06:54Z</time>
  <course>266.03</course>
  <speed>0.0</speed>
  <fix>3d</fix>
</trkpt>
<trkpt lat="40.072842" lon="-105.230575">
  <ele>1586.09</ele>
  <time>2026-08-28T19:06:54Z</time>
  <course>11.92</course>
  <speed>0.0</speed>
  <fix>3d</fix>
</trkpt>
<trkpt lat="40.072842" lon="-105.230575">
  <ele>1586.09</ele>
  <time>2026-08-28T19:06:54Z</time>
  <course>266.03</course>
  <speed>0.0</speed>
  <fix>3d</fix>
</trkpt>
<trkpt lat="40.072842" lon="-105.230575">
  <ele>1586.09</ele>
  <time>2026-08-28T19:06:54Z</time>
  <course>11.95</course>
  <speed>0.0</speed>
  <fix>3d</fix>
</trkpt>
<trkpt lat="40.072842" lon="-105.230575">
  <ele>1586.09</ele>
  <time>2026-08-28T19:06:54Z</time>
  <course>266.03</course>
  <speed>0.0</speed>
  <fix>3d</fix>
</trkpt>
<trkpt lat="40.072842" lon="-105.230575">
  <ele>1586.09</ele>
  <time>2026-08-28T19:06:54Z</time>
  <course>11.97</course>
  <speed>0.0</speed>
  <fix>3d</fix>
</trkpt>
<trkpt lat="40.072842" lon="-105.230575">
  <ele>1586.09</ele>
  <time>2026-08-28T19:06:54Z</time>
  <course>266.03</course>
  <speed>0.0</speed>
  <fix>3d</fix>
</trkpt>
<trkpt lat="40.072842" lon="-105.230575">
  <ele>1586.09</ele>
  <time>2026-08-28T19:06:54Z</time>
  <course>12.0</course>
  <speed>0.0</speed>
  <fix>3d</fix>
</trkpt>
<trkpt lat="40.072842" lon="-105.230575">
  <ele>1586.09</ele>
  <time>2026-08-28T19:06:54Z</time>
  <course>266.03</course>
  <speed>0.0</speed>
  <fix>3d</fix>
</trkpt>
<trkpt lat="40.072842" lon="-105.230575">
  <ele>1586.09</ele>
  <time>2026-08-28T19:06:54Z</time>
  <course>12.02</course>
  <speed>0.0</speed>
  <fix>3d</fix>
</trkpt>
<trkpt lat="40.072842" lon="-105.230575">
  <ele>1586.09</ele>
  <time>2026-08-28T19:06:54Z</time>
  <course>266.03</course>
  <speed>0.0</speed>
  <fix>3d</fix>
</trkpt>
<trkpt lat="40.072842" lon="-105.230575">
  <ele>1586.09</ele>
  <time>2026-08-28T19:06:54Z</time>
  <course>12.04</course>
  <speed>0.0</speed>
  <fix>3d</fix>
</trkpt>
<trkpt lat="40.072842" lon="-105.230575">
  <ele>1586.09</ele>
  <time>2026-08-28T19:06:54Z</time>
  <course>266.03</course>
  <speed>0.0</speed>
  <fix>3d</fix>
</trkpt>
<trkpt lat="40.072842" lon="-105.230575">
  <ele>1586.09</ele>
  <time>2026-08-28T19:06:54Z</time>
  <course>12.05</course>
  <speed>0.0</speed>
  <fix>3d</fix>
</trkpt>
<trkpt lat="40.072842" lon="-105.230575">
  <ele>1586.09</ele>
  <time>2026-08-28T19:06:54Z</time>
  <course>266.03</course>
  <speed>0.0</speed>
  <fix>3d</fix>
</trkpt>
<trkpt lat="40.072842" lon="-105.230575">
  <ele>1586.09</ele>
  <time>2026-08-28T19:06:54Z</time>
  <course>12.07</course>
  <speed>0.0</speed>
  <fix>3d</fix>
</trkpt>
<trkpt lat="40.072842" lon="-105.230575">
  <ele>1586.09</ele>
  <time>2026-08-28T19:06:54Z</time>
  <course>266.03</course>
  <speed>0.0</speed>
  <fix>3d</fix>
</trkpt>
<trkpt lat="40.072842" lon="-105.230575">
  <ele>1586.09</ele>
  <time>2026-08-28T19:06:54Z</time>
  <course>12.08</course>
  <speed>0.0</speed>
  <fix>3d</fix>
</trkpt>
<trkpt lat="40.072842" lon="-105.230575">
  <ele>1586.09</ele>
  <time>2026-08-28T19:06:54Z</time>
  <course>266.03</course>
  <speed>0.0</speed>
  <fix>3d</fix>
</trkpt>
<trkpt lat="40.072842" lon="-105.230575">
  <ele>1586.09</ele>
  <time>2026-08-28T19:06:54Z</time>
  <course>12.09</course>
  <speed>0.0</speed>
  <fix>3d</fix>
</trkpt>
<trkpt lat="40.072842" lon="-105.230575">
  <ele>1586.09</ele>
  <time>2026-08-28T19:06:54Z</time>
  <course>266.03</course>
  <speed>0.0</speed>
  <fix>3d</fix>
</trkpt>
<trkpt lat="40.072842" lon="-105.230575">
  <ele>1586.09</ele>
  <time>2026-08-28T19:06:54Z</time>
  <course>12.1</course>
  <speed>0.0</speed>
  <fix>3d</fix>
</trkpt>
<trkpt lat="40.072842" lon="-105.230575">
  <ele>1586.09</ele>
  <time>2026-08-28T19:06:54Z</time>
  <course>266.03</course>
  <speed>0.0</speed>
  <fix>3d</fix>
</trkpt>
<trkpt lat="40.072842" lon="-105.230575">
  <ele>1586.09</ele>
  <time>2026-08-28T19:06:54Z</time>
  <course>12.1</course>
  <speed>0.0</speed>
  <fix>3d</fix>
</trkpt>
<trkpt lat="40.072842" lon="-105.230575">
  <ele>1586.09</ele>
  <time>2026-08-28T19:06:54Z</time>
  <course>266.03</course>
  <speed>0.0</speed>
  <fix>3d</fix>
</trkpt>
<trkpt lat="40.072842" lon="-105.230575">
  <ele>1586.09</ele>
  <time>2026-08-28T19:06:54Z</time>
  <course>12.11</course>
  <speed>0.0</speed>
  <fix>3d</fix>
</trkpt>
<trkpt lat="40.072842" lon="-105.230575">
  <ele>1586.09</ele>
  <time>2026-08-28T19:06:54Z</time>
  <course>266.03</course>
  <speed>0.0</speed>
  <fix>3d</fix>
</trkpt>
<trkpt lat="40.072842" lon="-105.230575">
  <ele>1586.09</ele>
  <time>2026-08-28T19:06:54Z</time>
  <course>12.12</course>
  <speed>0.0</speed>
  <fix>3d</fix>
</trkpt>
<trkpt lat="40.072842" lon="-105.230575">
  <ele>1586.09</ele>
  <time>2026-08-28T19:06:54Z</time>
  <course>266.03</course>
  <speed>0.0</speed>
  <fix>3d</fix>
</trkpt>
<trkpt lat="40.072842" lon="-105.230575">
  <ele>1586.09</ele>
  <time>2026-08-28T19:06:54Z</time>
  <course>12.12</course>
  <speed>0.0</speed>
  <fix>3d</fix>
</trkpt>
<trkpt lat="40.072842" lon="-105.230575">
  <ele>1586.09</ele>
  <time>2026-08-28T19:06:54Z</time>
  <course>266.03</course>
  <speed>0.0</speed>
  <fix>3d</fix>
</trkpt>
<trkpt lat="40.072842" lon="-105.230575">
  <ele>1586.09</ele>
  <time>2026-08-28T19:06:54Z</time>
  <course>12.12</course>
  <speed>0.0</speed>
  <fix>3d</fix>
</trkpt>
<trkpt lat="40.072842" lon="-105.230575">
  <ele>1586.09</ele>
  <time>2026-08-28T19:06:54Z</time>
  <course>266.03</course>
  <speed>0.0</speed>
  <fix>3d</fix>
</trkpt>
<trkpt lat="40.072842" lon="-105.230575">
  <ele>1586.09</ele>
  <time>2026-08-28T19:06:54Z</time>
  <course>12.13</course>
  <speed>0.0</speed>
  <fix>3d</fix>
</trkpt>
<trkpt lat="40.072842" lon="-105.230575">
  <ele>1586.09</ele>
  <time>2026-08-28T19:06:54Z</time>
  <course>266.03</course>
  <speed>0.0</speed>
  <fix>3d</fix>
</trkpt>
<trkpt lat="40.072842" lon="-105.230575">
  <ele>1586.09</ele>
  <time>2026-08-28T19:06:54Z</time>
  <course>12.13</course>
  <speed>0.0</speed>
  <fix>3d</fix>
</trkpt>
<trkpt lat="40.072842" lon="-105.230575">
  <ele>1586.09</ele>
  <time>2026-08-28T19:06:54Z</time>
  <course>266.03</course>
  <speed>0.0</speed>
  <fix>3d</fix>
</trkpt>
<trkpt lat="40.072842" lon="-105.230575">
  <ele>1586.09</ele>
  <time>2026-08-28T19:06:54Z</time>
  <course>12.13</course>
  <speed>0.0</speed>
  <fix>3d</fix>
</trkpt>
<trkpt lat="40.072842" lon="-105.230575">
  <ele>1586.09</ele>
  <time>2026-08-28T19:06:54Z</time>
  <course>266.03</course>
  <speed>0.0</speed>
  <fix>3d</fix>
</trkpt>
<trkpt lat="40.072842" lon="-105.230575">
  <ele>1586.09</ele>
  <time>2026-08-28T19:06:54Z</time>
  <course>12.12</course>
  <speed>0.01</speed>
  <fix>3d</fix>
</trkpt>
<trkpt lat="40.072842" lon="-105.230575">
  <ele>1586.09</ele>
  <time>2026-08-28T19:06:54Z</time>
  <course>266.03</course>
  <speed>0.0</speed>
  <fix>3d</fix>
</trkpt>
<trkpt lat="40.072842" lon="-105.230575">
  <ele>1586.09</ele>
  <time>2026-08-28T19:06:54Z</time>
  <course>12.12</course>
  <speed>0.01</speed>
  <fix>3d</fix>
</trkpt>
<trkpt lat="40.072842" lon="-105.230575">
  <ele>1586.09</ele>
  <time>2026-08-28T19:06:54Z</time>
  <course>266.03</course>
  <speed>0.0</speed>
  <fix>3d</fix>
</trkpt>
<trkpt lat="40.072842" lon="-105.230575">
  <ele>1586.09</ele>
  <time>2026-08-28T19:06:54Z</time>
  <course>12.12</course>
  <speed>0.01</speed>
  <fix>3d</fix>
</trkpt>
<trkpt lat="40.072842" lon="-105.230575">
  <ele>1586.09</ele>
  <time>2026-08-28T19:06:54Z</time>
  <course>266.03</course>
  <speed>0.0</speed>
  <fix>3d</fix>
</trkpt>
<trkpt lat="40.072842" lon="-105.230575">
  <ele>1586.09</ele>
  <time>2026-08-28T19:06:54Z</time>
  <course>12.12</course>
  <speed>0.01</speed>
  <fix>3d</fix>
</trkpt>
<trkpt lat="40.072842" lon="-105.230575">
  <ele>1586.09</ele>
  <time>2026-08-28T19:06:54Z</time>
  <course>266.03</course>
  <speed>0.0</speed>
  <fix>3d</fix>
</trkpt>
<trkpt lat="40.072842" lon="-105.230575">
  <ele>1586.09</ele>
  <time>2026-08-28T19:06:54Z</time>
  <course>12.11</course>
  <speed>0.01</speed>
  <fix>3d</fix>
</trkpt>
<trkpt lat="40.072842" lon="-105.230575">
  <ele>1586.09</ele>
  <time>2026-08-28T19:06:54Z</time>
  <course>266.03</course>
  <speed>0.0</speed>
  <fix>3d</fix>
</trkpt>
<trkpt lat="40.072842" lon="-105.230575">
  <ele>1586.09</ele>
  <time>2026-08-28T19:06:54Z</time>
  <course>12.11</course>
  <speed>0.01</speed>
  <fix>3d</fix>
</trkpt>
<trkpt lat="40.072842" lon="-105.230575">
  <ele>1586.09</ele>
  <time>2026-08-28T19:06:54Z</time>
  <course>266.03</course>
  <speed>0.0</speed>
  <fix>3d</fix>
</trkpt>
<trkpt lat="40.072842" lon="-105.230575">
  <ele>1586.09</ele>
  <time>2026-08-28T19:06:54Z</time>
  <course>12.1</course>
  <speed>0.01</speed>
  <fix>3d</fix>
</trkpt>
<trkpt lat="40.072842" lon="-105.230575">
  <ele>1586.09</ele>
  <time>2026-08-28T19:06:54Z</time>
  <course>266.03</course>
  <speed>0.0</speed>
  <fix>3d</fix>
</trkpt>
<trkpt lat="40.072842" lon="-105.230575">
  <ele>1586.09</ele>
  <time>2026-08-28T19:06:54Z</time>
  <course>12.1</course>
  <speed>0.01</speed>
  <fix>3d</fix>
</trkpt>
<trkpt lat="40.072842" lon="-105.230575">
  <ele>1586.09</ele>
  <time>2026-08-28T19:06:54Z</time>
  <course>266.03</course>
  <speed>0.0</speed>
  <fix>3d</fix>
</trkpt>
<trkpt lat="40.072842" lon="-105.230575">
  <ele>1586.09</ele>
  <time>2026-08-28T19:06:54Z</time>
  <course>12.09</course>
  <speed>0.01</speed>
  <fix>3d</fix>
</trkpt>
<trkpt lat="40.072842" lon="-105.230575">
  <ele>1586.09</ele>
  <time>2026-08-28T19:06:54Z</time>
  <course>266.03</course>
  <speed>0.0</speed>
  <fix>3d</fix>
</trkpt>
<trkpt lat="40.072842" lon="-105.230575">
  <ele>1586.09</ele>
  <time>2026-08-28T19:06:54Z</time>
  <course>12.09</course>
  <speed>0.01</speed>
  <fix>3d</fix>
</trkpt>
<trkpt lat="40.072842" lon="-105.230575">
  <ele>1586.09</ele>
  <time>2026-08-28T19:06:54Z</time>
  <course>266.03</course>
  <speed>0.0</speed>
  <fix>3d</fix>
</trkpt>
<trkpt lat="40.072842" lon="-105.230575">
  <ele>1586.09</ele>
  <time>2026-08-28T19:06:54Z</time>
  <course>12.08</course>
  <speed>0.01</speed>
  <fix>3d</fix>
</trkpt>
<trkpt lat="40.072842" lon="-105.230575">
  <ele>1586.09</ele>
  <time>2026-08-28T19:06:54Z</time>
  <course>266.03</course>
  <speed>0.0</speed>
  <fix>3d</fix>
</trkpt>
<trkpt lat="40.072842" lon="-105.230575">
  <ele>1586.09</ele>
  <time>2026-08-28T19:06:54Z</time>
  <course>12.08</course>
  <speed>0.01414213562373095</speed>
  <fix>3d</fix>
</trkpt>
<trkpt lat="40.072842" lon="-105.230575">
  <ele>1586.09</ele>
  <time>2026-08-28T19:06:54Z</time>
  <course>266.03</course>
  <speed>0.0</speed>
  <fix>3d</fix>
</trkpt>
<trkpt lat="40.072842" lon="-105.230575">
  <ele>1586.09</ele>
  <time>2026-08-28T19:06:54Z</time>
  <course>12.07</course>
  <speed>0.01414213562373095</speed>
  <fix>3d</fix>
</trkpt>
<trkpt lat="40.072842" lon="-105.230575">
  <ele>1586.09</ele>
  <time>2026-08-28T19:06:54Z</time>
  <course>266.03</course>
  <speed>0.0</speed>
  <fix>3d</fix>
</trkpt>
<trkpt lat="40.072842" lon="-105.230575">
  <ele>1586.09</ele>
  <time>2026-08-28T19:06:54Z</time>
  <course>12.06</course>
  <speed>0.01414213562373095</speed>
  <fix>3d</fix>
</trkpt>
<trkpt lat="40.072842" lon="-105.230575">
  <ele>1586.09</ele>
  <time>2026-08-28T19:06:54Z</time>
  <course>266.03</course>
  <speed>0.0</speed>
  <fix>3d</fix>
</trkpt>
<trkpt lat="40.072842" lon="-105.230575">
  <ele>1586.09</ele>
  <time>2026-08-28T19:06:54Z</time>
  <course>12.05</course>
  <speed>0.01414213562373095</speed>
  <fix>3d</fix>
</trkpt>
<trkpt lat="40.072842" lon="-105.230575">
  <ele>1586.09</ele>
  <time>2026-08-28T19:06:54Z</time>
  <course>266.03</course>
  <speed>0.0</speed>
  <fix>3d</fix>
</trkpt>
<trkpt lat="40.072842" lon="-105.230575">
  <ele>1586.09</ele>
  <time>2026-08-28T19:06:54Z</time>
  <course>12.05</course>
  <speed>0.01414213562373095</speed>
  <fix>3d</fix>
</trkpt>
<trkpt lat="40.072842" lon="-105.230575">
  <ele>1586.09</ele>
  <time>2026-08-28T19:06:54Z</time>
  <course>266.03</course>
  <speed>0.0</speed>
  <fix>3d</fix>
</trkpt>
<trkpt lat="39.654938" lon="-104.1331666">
  <ele>1569.54</ele>
  <time>2026-08-28T19:06:57Z</time>
  <course>168.11</course>
  <speed>0.0</speed>
  <fix>3d</fix>
</trkpt>
<trkpt lat="40.072842" lon="-105.230575">
  <ele>1586.09</ele>
  <time>2026-08-28T19:06:57Z</time>
  <course>238.4</course>
  <speed>0.0</speed>
  <fix>3d</fix>
</trkpt>
<trkpt lat="40.072842" lon="-105.230575">
  <ele>1586.09</ele>
  <time>2026-08-28T19:06:57Z</time>
  <course>194.29</course>
  <speed>0.0</speed>
  <fix>3d</fix>
</trkpt>
<trkpt lat="40.072842" lon="-105.230575">
  <ele>1586.09</ele>
  <time>2026-08-28T19:06:57Z</time>
  <course>193.66</course>
  <speed>0.0</speed>
  <fix>3d</fix>
</trkpt>
<trkpt lat="40.072842" lon="-105.230575">
  <ele>1586.09</ele>
  <time>2026-08-28T19:06:57Z</time>
  <course>306.34</course>
  <speed>0.0</speed>
  <fix>3d</fix>
</trkpt>
<trkpt lat="40.072842" lon="-105.230575">
  <ele>1586.09</ele>
  <time>2026-08-28T19:06:57Z</time>
  <course>99.93</course>
  <speed>0.0</speed>
  <fix>3d</fix>
</trkpt>
<trkpt lat="40.072842" lon="-105.230575">
  <ele>1586.09</ele>
  <time>2026-08-28T19:06:57Z</time>
  <course>199.49</course>
  <speed>0.0</speed>
  <fix>3d</fix>
</trkpt>
<trkpt lat="40.072842" lon="-105.230575">
  <ele>1586.09</ele>
  <time>2026-08-28T19:06:57Z</time>
  <course>250.01</course>
  <speed>0.0</speed>
  <fix>3d</fix>
</trkpt>
<trkpt lat="40.072842" lon="-105.230575">
  <ele>1586.09</ele>
  <time>2026-08-28T19:06:57Z</time>
  <course>170.23</course>
  <speed>0.0</speed>
  <fix>3d</fix>
</trkpt>
<trkpt lat="40.072842" lon="-105.230575">
  <ele>1586.09</ele>
  <time>2026-08-28T19:06:57Z</time>
  <course>179.69</course>
  <speed>0.0</speed>
  <fix>3d</fix>
</trkpt>
<trkpt lat="40.072842" lon="-105.230575">
  <ele>1586.09</ele>
  <time>2026-08-28T19:06:57Z</time>
  <course>358.42</course>
  <speed>0.0</speed>
  <fix>3d</fix>
</trkpt>
<trkpt lat="40.072842" lon="-105.230575">
  <ele>1586.09</ele>
  <time>2026-08-28T19:06:57Z</time>
  <course>22.34</course>
  <speed>0.0</speed>
  <fix>3d</fix>
</trkpt>
<trkpt lat="40.072842" lon="-105.230575">
  <ele>1586.09</ele>
  <time>2026-08-28T19:06:57Z</time>
  <course>1.07</course>
  <speed>0.0</speed>
  <fix>3d</fix>
</trkpt>
<trkpt lat="40.072842" lon="-105.230575">
  <ele>1586.09</ele>
  <time>2026-08-28T19:06:57Z</time>
  <course>41.15</course>
  <speed>0.0</speed>
  <fix>3d</fix>
</trkpt>
<trkpt lat="40.072842" lon="-105.230575">
  <ele>1586.09</ele>
  <time>2026-08-28T19:06:57Z</time>
  <course>293.7</course>
  <speed>0.0</speed>
  <fix>3d</fix>
</trkpt>
<trkpt lat="40.072842" lon="-105.230575">
  <ele>1586.09</ele>
  <time>2026-08-28T19:06:57Z</time>
  <course>334.27</course>
  <speed>0.0</speed>
  <fix>3d</fix>
</trkpt>
<trkpt lat="40.072842" lon="-105.230575">
  <ele>1586.09</ele>
  <time>2026-08-28T19:06:57Z</time>
  <course>124.45</course>
  <speed>0.0</speed>
  <fix>3d</fix>
</trkpt>
<trkpt lat="40.072842" lon="-105.230575">
  <ele>1586.09</ele>
  <time>2026-08-28T19:06:57Z</time>
  <course>305.07</course>
  <speed>0.0</speed>
  <fix>3d</fix>
</trkpt>
<trkpt lat="40.072842" lon="-105.230575">
  <ele>1586.09</ele>
  <time>2026-08-28T19:06:57Z</time>
  <course>249.97</course>
  <speed>0.0</speed>
  <fix>3d</fix>
</trkpt>
<trkpt lat="40.072842" lon="-105.230575">
  <ele>1586.09</ele>
  <time>2026-08-28T19:06:57Z</time>
  <course>235.5</course>
  <speed>0.0</speed>
  <fix>3d</fix>
</trkpt>
<trkpt lat="40.072842" lon="-105.230575">
  <ele>1586.09</ele>
  <time>2026-08-28T19:06:57Z</time>
  <course>261.16</course>
  <speed>0.0</speed>
  <fix>3d</fix>
</trkpt>
<trkpt lat="40.072842" lon="-105.230575">
  <ele>1586.09</ele>
  <time>2026-08-28T19:06:57Z</time>
  <course>283.85</course>
  <speed>0.0</speed>
  <fix>3d</fix>
</trkpt>
<trkpt lat="40.072842" lon="-105.230575">
  <ele>1586.09</ele>
  <time>2026-08-28T19:06:57Z</time>
  <course>324.1</course>
  <speed>0.0</speed>
  <fix>3d</fix>
</trkpt>
<trkpt lat="40.072842" lon="-105.230575">
  <ele>1586.09</ele>
  <time>2026-08-28T19:06:57Z</time>
  <course>318.11</course>
  <speed>0.0</speed>
  <fix>3d</fix>
</trkpt>
<trkpt lat="40.072842" lon="-105.230575">
  <ele>1586.09</ele>
  <time>2026-08-28T19:06:57Z</time>
  <course>210.79</course>
  <speed>0.0</speed>
  <fix>3d</fix>
</trkpt>
<trkpt lat="40.072842" lon="-105.230575">
  <ele>1586.09</ele>
  <time>2026-08-28T19:06:57Z</time>
  <course>161.31</course>
  <speed>0.0</speed>
  <fix>3d</fix>
</trkpt>
<trkpt lat="40.072842" lon="-105.230575">
  <ele>1586.09</ele>
  <time>2026-08-28T19:06:57Z</time>
  <course>288.96</course>
  <speed>0.0</speed>
  <fix>3d</fix>
</trkpt>
<trkpt lat="40.072842" lon="-105.230575">
  <ele>1586.09</ele>
  <time>2026-08-28T19:06:57Z</time>
  <course>271.8</course>
  <speed>0.0</speed>
  <fix>3d</fix>
</trkpt>
<trkpt lat="40.072842" lon="-105.230575">
  <ele>1586.09</ele>
  <time>2026-08-28T19:06:57Z</time>
  <course>261.59</course>
  <speed>0.0</speed>
  <fix>3d</fix>
</trkpt>
<trkpt lat="40.072842" lon="-105.230575">
  <ele>1586.09</ele>
  <time>2026-08-28T19:06:57Z</time>
  <course>265.65</course>
  <speed>0.0</speed>
  <fix>3d</fix>
</trkpt>
<trkpt lat="40.072842" lon="-105.230575">
  <ele>1586.09</ele>
  <time>2026-08-28T19:06:57Z</time>
  <course>266.66</course>
  <speed>0.0</speed>
  <fix>3d</fix>
</trkpt>
<trkpt lat="40.072842" lon="-105.230575">
  <ele>1586.09</ele>
  <time>2026-08-28T19:06:57Z</time>
  <course>266.01</course>
  <speed>0.0</speed>
  <fix>3d</fix>
</trkpt>
<trkpt lat="40.072842" lon="-105.230575">
  <ele>1586.09</ele>
  <time>2026-08-28T19:06:57Z</time>
  <course>265.95</course>
  <speed>0.0</speed>
  <fix>3d</fix>
</trkpt>
<trkpt lat="40.072842" lon="-105.230575">
  <ele>1586.09</ele>
  <time>2026-08-28T19:06:57Z</time>
  <course>266.05</course>
  <speed>0.0</speed>
  <fix>3d</fix>
</trkpt>
<trkpt lat="40.072842" lon="-105.230575">
  <ele>1586.09</ele>
  <time>2026-08-28T19:06:57Z</time>
  <course>266.04</course>
  <speed>0.0</speed>
  <fix>3d</fix>
</trkpt>
<trkpt lat="40.072842" lon="-105.230575">
  <ele>1586.09</ele>
  <time>2026-08-28T19:06:57Z</time>
  <course>266.03</course>
  <speed>0.0</speed>
  <fix>3d</fix>
</trkpt>
<trkpt lat="40.072842" lon="-105.230575">
  <ele>1586.09</ele>
  <time>2026-08-28T19:06:57Z</time>
  <course>266.03</course>
  <speed>0.0</speed>
  <fix>3d</fix>
</trkpt>
<trkpt lat="40.072842" lon="-105.230575">
  <ele>1586.09</ele>
  <time>2026-08-28T19:06:57Z</time>
  <course>266.03</course>
  <speed>0.0</speed>
  <fix>3d</fix>
</trkpt>
<trkpt lat="40.072842" lon="-105.230575">
  <ele>1586.09</ele>
  <time>2026-08-28T19:06:57Z</time>
  <course>266.03</course>
  <speed>0.0</speed>
  <fix>3d</fix>
</trkpt>
<trkpt lat="40.072842" lon="-105.230575">
  <ele>1586.09</ele>
  <time>2026-08-28T19:06:57Z</time>
  <course>266.03</course>
  <speed>0.0</speed>
  <fix>3d</fix>
</trkpt>
<trkpt lat="40.072842" lon="-105.230575">
  <ele>1586.09</ele>
  <time>2026-08-28T19:06:57Z</time>
  <course>266.03</course>
  <speed>0.0</speed>
  <fix>3d</fix>
</trkpt>
<trkpt lat="40.072842" lon="-105.230575">
  <ele>1586.09</ele>
  <time>2026-08-28T19:06:57Z</time>
  <course>266.03</course>
  <speed>0.0</speed>
  <fix>3d</fix>
</trkpt>
<trkpt lat="40.072842" lon="-105.230575">
  <ele>1586.09</ele>
  <time>2026-08-28T19:06:57Z</time>
  <course>266.03</course>
  <speed>0.0</speed>
  <fix>3d</fix>
</trkpt>
<trkpt lat="40.072842" lon="-105.230575">
  <ele>1586.09</ele>
  <time>2026-08-28T19:06:57Z</time>
  <course>266.03</course>
  <speed>0.0</speed>
  <fix>3d</fix>
</trkpt>
<trkpt lat="40.072842" lon="-105.230575">
  <ele>1586.09</ele>
  <time>2026-08-28T19:06:57Z</time>
  <course>266.03</course>
  <speed>0.0</speed>
  <fix>3d</fix>
</trkpt>
<trkpt lat="40.072842" lon="-105.230575">
  <ele>1586.09</ele>
  <time>2026-08-28T19:06:57Z</time>
  <course>266.03</course>
  <speed>0.0</speed>
  <fix>3d</fix>
</trkpt>
<trkpt lat="40.072842" lon="-105.230575">
  <ele>1586.09</ele>
  <time>2026-08-28T19:06:57Z</time>
  <course>266.03</course>
  <speed>0.0</speed>
  <fix>3d</fix>
</trkpt>
<trkpt lat="40.072842" lon="-105.230575">
  <ele>1586.09</ele>
  <time>2026-08-28T19:06:57Z</time>
  <course>266.03</course>
  <speed>0.0</speed>
  <fix>3d</fix>
</trkpt>
<trkpt lat="40.072842" lon="-105.230575">
  <ele>1586.09</ele>
  <time>2026-08-28T19:06:57Z</time>
  <course>266.03</course>
  <speed>0.0</speed>
  <fix>3d</fix>
</trkpt>
<trkpt lat="40.072842" lon="-105.230575">
  <ele>1586.09</ele>
  <time>2026-08-28T19:06:57Z</time>
  <course>266.03</course>
  <speed>0.0</speed>
  <fix>3d</fix>
</trkpt>
<trkpt lat="40.072842" lon="-105.230575">
  <ele>1586.09</ele>
  <time>2026-08-28T19:06:57Z</time>
  <course>266.03</course>
  <speed>0.0</speed>
  <fix>3d</fix>
</trkpt>
<trkpt lat="40.072842" lon="-105.230575">
  <ele>1586.09</ele>
  <time>2026-08-28T19:06:57Z</time>
  <course>266.03</course>
  <speed>0.0</speed>
  <fix>3d</fix>
</trkpt>
<trkpt lat="40.072842" lon="-105.230575">
  <ele>1586.09</ele>
  <time>2026-08-28T19:06:57Z</time>
  <course>266.03</course>
  <speed>0.0</speed>
  <fix>3d</fix>
</trkpt>
<trkpt lat="40.072842" lon="-105.230575">
  <ele>1586.09</ele>
  <time>2026-08-28T19:06:57Z</time>
  <course>266.03</course>
  <speed>0.0</speed>
  <fix>3d</fix>
</trkpt>
<trkpt lat="40.072842" lon="-105.230575">
  <ele>1586.09</ele>
  <time>2026-08-28T19:06:57Z</time>
  <course>266.03</course>
  <speed>0.0</speed>
  <fix>3d</fix>
</trkpt>
<trkpt lat="40.072842" lon="-105.230575">
  <ele>1586.09</ele>
  <time>2026-08-28T19:06:57Z</time>
  <course>266.03</course>
  <speed>0.0</speed>
  <fix>3d</fix>
</trkpt>
<trkpt lat="40.072842" lon="-105.230575">
  <ele>1586.09</ele>
  <time>2026-08-28T19:06:57Z</time>
  <course>266.03</course>
  <speed>0.0</speed>
  <fix>3d</fix>
</trkpt>
<trkpt lat="40.072842" lon="-105.230575">
  <ele>1586.09</ele>
  <time>2026-08-28T19:06:57Z</time>
  <course>266.03</course>
  <speed>0.0</speed>
  <fix>3d</fix>
</trkpt>
<trkpt lat="40.072842" lon="-105.230575">
  <ele>1586.09</ele>
  <time>2026-08-28T19:06:57Z</time>
  <course>266.03</course>
  <speed>0.0</speed>
  <fix>3d</fix>
</trkpt>
<trkpt lat="40.072842" lon="-105.230575">
  <ele>1586.09</ele>
  <time>2026-08-28T19:06:57Z</time>
  <course>266.03</course>
  <speed>0.0</speed>
  <fix>3d</fix>
</trkpt>
<trkpt lat="40.072842" lon="-105.230575">
  <ele>1586.09</ele>
  <time>2026-08-28T19:06:57Z</time>
  <course>266.03</course>
  <speed>0.0</speed>
  <fix>3d</fix>
</trkpt>
<trkpt lat="40.072842" lon="-105.230575">
  <ele>1586.09</ele>
  <time>2026-08-28T19:06:57Z</time>
  <course>266.03</course>
  <speed>0.0</speed>
  <fix>3d</fix>
</trkpt>
<trkpt lat="40.072842" lon="-105.230575">
  <ele>1586.09</ele>
  <time>2026-08-28T19:06:57Z</time>
  <course>266.03</course>
  <speed>0.0</speed>
  <fix>3d</fix>
</trkpt>
<trkpt lat="40.072842" lon="-105.230575">
  <ele>1586.09</ele>
  <time>2026-08-28T19:06:57Z</time>
  <course>266.03</course>
  <speed>0.0</speed>
  <fix>3d</fix>
</trkpt>
<trkpt lat="40.072842" lon="-105.230575">
  <ele>1586.09</ele>
  <time>2026-08-28T19:06:57Z</time>
  <course>266.03</course>
  <speed>0.0</speed>
  <fix>3d</fix>
</trkpt>
<trkpt lat="40.072842" lon="-105.230575">
  <ele>1586.09</ele>
  <time>2026-08-28T19:06:57Z</time>
  <course>266.03</course>
  <speed>0.0</speed>
  <fix>3d</fix>
</trkpt>
<trkpt lat="40.072842" lon="-105.230575">
  <ele>1586.09</ele>
  <time>2026-08-28T19:06:57Z</time>
  <course>266.03</course>
  <speed>0.0</speed>
  <fix>3d</fix>
</trkpt>
<trkpt lat="40.072842" lon="-105.230575">
  <ele>1586.09</ele>
  <time>2026-08-28T19:06:57Z</time>
  <course>266.03</course>
  <speed>0.0</speed>
  <fix>3d</fix>
</trkpt>
<trkpt lat="40.072842" lon="-105.230575">
  <ele>1586.09</ele>
  <time>2026-08-28T19:06:57Z</time>
  <course>266.03</course>
  <speed>0.0</speed>
  <fix>3d</fix>
</trkpt>
<trkpt lat="40.072842" lon="-105.230575">
  <ele>1586.09</ele>
  <time>2026-08-28T19:06:57Z</time>
  <course>266.03</course>
  <speed>0.0</speed>
  <fix>3d</fix>
</trkpt>
<trkpt lat="40.072842" lon="-105.230575">
  <ele>1586.09</ele>
  <time>2026-08-28T19:06:57Z</time>
  <course>266.03</course>
  <speed>0.0</speed>
  <fix>3d</fix>
</trkpt>
<trkpt lat="40.072842" lon="-105.230575">
  <ele>1586.09</ele>
  <time>2026-08-28T19:06:57Z</time>
  <course>266.03</course>
  <speed>0.0</speed>
  <fix>3d</fix>
</trkpt>
<trkpt lat="40.072842" lon="-105.230575">
  <ele>1586.09</ele>
  <time>2026-08-28T19:06:57Z</time>
  <course>266.03</course>
  <speed>0.0</speed>
  <fix>3d</fix>
</trkpt>
<trkpt lat="40.072842" lon="-105.230575">
  <ele>1586.09</ele>
  <time>2026-08-28T19:06:57Z</time>
  <course>266.03</course>
  <speed>0.0</speed>
  <fix>3d</fix>
</trkpt>
<trkpt lat="40.072842" lon="-105.230575">
  <ele>1586.09</ele>
  <time>2026-08-28T19:06:57Z</time>
  <course>266.03</course>
  <speed>0.0</speed>
  <fix>3d</fix>
</trkpt>
<trkpt lat="40.072842" lon="-105.230575">
  <ele>1586.09</ele>
  <time>2026-08-28T19:06:57Z</time>
  <course>266.03</course>
  <speed>0.0</speed>
  <fix>3d</fix>
</trkpt>
<trkpt lat="40.072842" lon="-105.230575">
  <ele>1586.09</ele>
  <time>2026-08-28T19:06:57Z</time>
  <course>266.03</course>
  <speed>0.0</speed>
  <fix>3d</fix>
</trkpt>
<trkpt lat="40.072842" lon="-105.230575">
  <ele>1586.09</ele>
  <time>2026-08-28T19:06:57Z</time>
  <course>266.03</course>
  <speed>0.0</speed>
  <fix>3d</fix>
</trkpt>
<trkpt lat="40.072842" lon="-105.230575">
  <ele>1586.09</ele>
  <time>2026-08-28T19:06:57Z</time>
  <course>266.03</course>
  <speed>0.0</speed>
  <fix>3d</fix>
</trkpt>
<trkpt lat="40.072842" lon="-105.230575">
  <ele>1586.09</ele>
  <time>2026-08-28T19:06:57Z</time>
  <course>266.03</course>
  <speed>0.0</speed>
  <fix>3d</fix>
</trkpt>
<trkpt lat="40.072842" lon="-105.230575">
  <ele>1586.09</ele>
  <time>2026-08-28T19:06:57Z</time>
  <course>266.03</course>
  <speed>0.0</speed>
  <fix>3d</fix>
</trkpt>
<trkpt lat="40.072842" lon="-105.230575">
  <ele>1586.09</ele>
  <time>2026-08-28T19:06:57Z</time>
  <course>266.03</course>
  <speed>0.0</speed>
  <fix>3d</fix>
</trkpt>
<trkpt lat="40.072842" lon="-105.230575">
  <ele>1586.09</ele>
  <time>2026-08-28T19:06:57Z</time>
  <course>266.03</course>
  <speed>0.0</speed>
  <fix>3d</fix>
</trkpt>
<trkpt lat="40.072842" lon="-105.230575">
  <ele>1586.09</ele>
  <time>2026-08-28T19:06:57Z</time>
  <course>266.03</course>
  <speed>0.0</speed>
  <fix>3d</fix>
</trkpt>
<trkpt lat="40.072842" lon="-105.230575">
  <ele>1586.09</ele>
  <time>2026-08-28T19:06:57Z</time>
  <course>266.03</course>
  <speed>0.0</speed>
  <fix>3d</fix>
</trkpt>
<trkpt lat="40.072842" lon="-105.230575">
  <ele>1586.09</ele>
  <time>2026-08-28T19:06:57Z</time>
  <course>266.03</course>
  <speed>0.0</speed>
  <fix>3d</fix>
</trkpt>
<trkpt lat="40.072842" lon="-105.230575">
  <ele>1586.09</ele>
  <time>2026-08-28T19:06:57Z</time>
  <course>266.03</course>
  <speed>0.0</speed>
  <fix>3d</fix>
</trkpt>
<trkpt lat="40.072842" lon="-105.230575">
  <ele>1586.09</ele>
  <time>2026-08-28T19:06:57Z</time>
  <course>266.03</course>
  <speed>0.0</speed>
  <fix>3d</fix>
</trkpt>
<trkpt lat="40.072842" lon="-105.230575">
  <ele>1586.09</ele>
  <time>2026-08-28T19:06:57Z</time>
  <course>266.03</course>
  <speed>0.0</speed>
  <fix>3d</fix>
</trkpt>
<trkpt lat="40.072842" lon="-105.230575">
  <ele>1586.09</ele>
  <time>2026-08-28T19:06:57Z</time>
  <course>266.03</course>
  <speed>0.0</speed>
  <fix>3d</fix>
</trkpt>
<trkpt lat="40.072842" lon="-105.230575">
  <ele>1586.09</ele>
  <time>2026-08-28T19:06:57Z</time>
  <course>266.03</course>
  <speed>0.0</speed>
  <fix>3d</fix>
</trkpt>
<trkpt lat="40.072842" lon="-105.230575">
  <ele>1586.09</ele>
  <time>2026-08-28T19:06:57Z</time>
  <course>266.03</course>
  <speed>0.0</speed>
  <fix>3d</fix>
</trkpt>
<trkpt lat="40.072842" lon="-105.230575">
  <ele>1586.09</ele>
  <time>2026-08-28T19:06:57Z</time>
  <course>266.03</course>
  <speed>0.0</speed>
  <fix>3d</fix>
</trkpt>
<trkpt lat="40.072842" lon="-105.230575">
  <ele>1586.09</ele>
  <time>2026-08-28T19:06:57Z</time>
  <course>266.03</course>
  <speed>0.0</speed>
  <fix>3d</fix>
</trkpt>
<trkpt lat="40.072842" lon="-105.230575">
  <ele>1586.09</ele>
  <time>2026-08-28T19:06:57Z</time>
  <course>266.03</course>
  <speed>0.0</speed>
  <fix>3d</fix>
</trkpt>
<trkpt lat="40.072842" lon="-105.230575">
  <ele>1586.09</ele>
  <time>2026-08-28T19:06:57Z</time>
  <course>266.03</course>
  <speed>0.0</speed>
  <fix>3d</fix>
</trkpt>
<trkpt lat="40.072842" lon="-105.230575">
  <ele>1586.09</ele>
  <time>2026-08-28T19:06:57Z</time>
  <course>266.03</course>
  <speed>0.0</speed>
  <fix>3d</fix>
</trkpt>
<trkpt lat="40.072842" lon="-105.230575">
  <ele>1586.09</ele>
  <time>2026-08-28T19:06:57Z</time>
  <course>266.03</course>
  <speed>0.0</speed>
  <fix>3d</fix>
</trkpt>
<trkpt lat="40.072842" lon="-105.230575">
  <ele>1586.09</ele>
  <time>2026-08-28T19:06:57Z</time>
  <course>266.03</course>
  <speed>0.0</speed>
  <fix>3d</fix>
</trkpt>
<trkpt lat="40.072842" lon="-105.230575">
  <ele>1586.09</ele>
  <time>2026-08-28T19:06:57Z</time>
  <course>266.03</course>
  <speed>0.0</speed>
  <fix>3d</fix>
</trkpt>
<trkpt lat="40.072842" lon="-105.230575">
  <ele>1586.09</ele>
  <time>2026-08-28T19:06:57Z</time>
  <course>2.15</course>
  <speed>0.01414213562373095</speed>
  <fix>3d</fix>
</trkpt>
<trkpt lat="40.072842" lon="-105.230575">
  <ele>1586.09</ele>
  <time>2026-08-28T19:06:57Z</time>
  <course>266.03</course>
  <speed>0.0</speed>
  <fix>3d</fix>
</trkpt>
<trkpt lat="40.072842" lon="-105.230575">
  <ele>1586.09</ele>
  <time>2026-08-28T19:06:57Z</time>
  <course>2.29</course>
  <speed>0.01414213562373095</speed>
  <fix>3d</fix>
</trkpt>
<trkpt lat="40.072842" lon="-105.230575">
  <ele>1586.09</ele>
  <time>2026-08-28T19:06:57Z</time>
  <course>266.03</course>
  <speed>0.0</speed>
  <fix>3d</fix>
</trkpt>
<trkpt lat="40.072842" lon="-105.230575">
  <ele>1586.09</ele>
  <time>2026-08-28T19:06:57Z</time>
  <course>2.54</course>
  <speed>0.01414213562373095</speed>
  <fix>3d</fix>
</trkpt>
<trkpt lat="40.072842" lon="-105.230575">
  <ele>1586.09</ele>
  <time>2026-08-28T19:06:57Z</time>
  <course>266.03</course>
  <speed>0.0</speed>
  <fix>3d</fix>
</trkpt>
<trkpt lat="40.072842" lon="-105.230575">
  <ele>1586.09</ele>
  <time>2026-08-28T19:06:57Z</time>
  <course>2.79</course>
  <speed>0.01414213562373095</speed>
  <fix>3d</fix>
</trkpt>
<trkpt lat="40.072842" lon="-105.230575">
  <ele>1586.09</ele>
  <time>2026-08-28T19:06:57Z</time>
  <course>266.03</course>
  <speed>0.0</speed>
  <fix>3d</fix>
</trkpt>
<trkpt lat="39.654938" lon="-104.1331666">
  <ele>1569.54</ele>
  <time>2026-08-28T19:07:11Z</time>
  <course>168.11</course>
  <speed>0.0</speed>
  <fix>3d</fix>
</trkpt>
<trkpt lat="40.072842" lon="-105.230575">
  <ele>1586.09</ele>
  <time>2026-08-28T19:07:11Z</time>
  <course>2.03</course>
  <speed>0.0</speed>
  <fix>3d</fix>
</trkpt>
<trkpt lat="40.072842" lon="-105.230575">
  <ele>1586.09</ele>
  <time>2026-08-28T19:07:11Z</time>
  <course>238.4</course>
  <speed>0.0</speed>
  <fix>3d</fix>
</trkpt>
<trkpt lat="40.072842" lon="-105.230575">
  <ele>1586.09</ele>
  <time>2026-08-28T19:07:11Z</time>
  <course>2.4</course>
  <speed>0.0</speed>
  <fix>3d</fix>
</trkpt>
<trkpt lat="40.072842" lon="-105.230575">
  <ele>1586.09</ele>
  <time>2026-08-28T19:07:11Z</time>
  <course>194.29</course>
  <speed>0.0</speed>
  <fix>3d</fix>
</trkpt>
<trkpt lat="40.072842" lon="-105.230575">
  <ele>1586.09</ele>
  <time>2026-08-28T19:07:11Z</time>
  <course>3.13</course>
  <speed>0.0</speed>
  <fix>3d</fix>
</trkpt>
<trkpt lat="40.072842" lon="-105.230575">
  <ele>1586.09</ele>
  <time>2026-08-28T19:07:11Z</time>
  <course>193.66</course>
  <speed>0.0</speed>
  <fix>3d</fix>
</trkpt>
<trkpt lat="40.072842" lon="-105.230575">
  <ele>1586.09</ele>
  <time>2026-08-28T19:07:11Z</time>
  <course>3.82</course>
  <speed>0.0</speed>
  <fix>3d</fix>
</trkpt>
<trkpt lat="40.072842" lon="-105.230575">
  <ele>1586.09</ele>
  <time>2026-08-28T19:07:11Z</time>
  <course>303.54</course>
  <speed>0.0</speed>
  <fix>3d</fix>
</trkpt>
<trkpt lat="40.072842" lon="-105.230575">
  <ele>1586.09</ele>
  <time>2026-08-28T19:07:11Z</time>
  <course>4.45</course>
  <speed>0.0</speed>
  <fix>3d</fix>
</trkpt>
<trkpt lat="40.072842" lon="-105.230575">
  <ele>1586.09</ele>
  <time>2026-08-28T19:07:11Z</time>
  <course>110.94</course>
  <speed>0.0</speed>
  <fix>3d</fix>
</trkpt>
<trkpt lat="40.072842" lon="-105.230575">
  <ele>1586.09</ele>
  <time>2026-08-28T19:07:11Z</time>
  <course>5.03</course>
  <speed>0.0</speed>
  <fix>3d</fix>
</trkpt>
<trkpt lat="40.072842" lon="-105.230575">
  <ele>1586.09</ele>
  <time>2026-08-28T19:07:11Z</time>
  <course>191.21</course>
  <speed>0.0</speed>
  <fix>3d</fix>
</trkpt>
<trkpt lat="40.072842" lon="-105.230575">
  <ele>1586.09</ele>
  <time>2026-08-28T19:07:11Z</time>
  <course>5.6</course>
  <speed>0.0</speed>
  <fix>3d</fix>
</trkpt>
<trkpt lat="40.072842" lon="-105.230575">
  <ele>1586.09</ele>
  <time>2026-08-28T19:07:11Z</time>
  <course>252.23</course>
  <speed>0.0</speed>
  <fix>3d</fix>
</trkpt>
<trkpt lat="40.072842" lon="-105.230575">
  <ele>1586.09</ele>
  <time>2026-08-28T19:07:11Z</time>
  <course>6.13</course>
  <speed>0.0</speed>
  <fix>3d</fix>
</trkpt>
<trkpt lat="40.072842" lon="-105.230575">
  <ele>1586.09</ele>
  <time>2026-08-28T19:07:11Z</time>
  <course>170.36</course>
  <speed>0.0</speed>
  <fix>3d</fix>
</trkpt>
<trkpt lat="40.072842" lon="-105.230575">
  <ele>1586.09</ele>
  <time>2026-08-28T19:07:11Z</time>
  <course>6.62</course>
  <speed>0.0</speed>
  <fix>3d</fix>
</trkpt>
<trkpt lat="40.072842" lon="-105.230575">
  <ele>1586.09</ele>
  <time>2026-08-28T19:07:11Z</time>
  <course>179.36</course>
  <speed>0.0</speed>
  <fix>3d</fix>
</trkpt>
<trkpt lat="40.072842" lon="-105.230575">
  <ele>1586.09</ele>
  <time>2026-08-28T19:07:11Z</time>
  <course>7.08</course>
  <speed>0.0</speed>
  <fix>3d</fix>
</trkpt>
<trkpt lat="40.072842" lon="-105.230575">
  <ele>1586.09</ele>
  <time>2026-08-28T19:07:11Z</time>
  <course>19.98</course>
  <speed>0.0</speed>
  <fix>3d</fix>
</trkpt>
<trkpt lat="40.072842" lon="-105.230575">
  <ele>1586.09</ele>
  <time>2026-08-28T19:07:11Z</time>
  <course>7.51</course>
  <speed>0.0</speed>
  <fix>3d</fix>
</trkpt>
<trkpt lat="40.072842" lon="-105.230575">
  <ele>1586.09</ele>
  <time>2026-08-28T19:07:11Z</time>
  <course>17.49</course>
  <speed>0.0</speed>
  <fix>3d</fix>
</trkpt>
<trkpt lat="40.072842" lon="-105.230575">
  <ele>1586.09</ele>
  <time>2026-08-28T19:07:11Z</time>
  <course>7.91</course>
  <speed>0.0</speed>
  <fix>3d</fix>
</trkpt>
<trkpt lat="40.072842" lon="-105.230575">
  <ele>1586.09</ele>
  <time>2026-08-28T19:07:11Z</time>
  <course>356.19</course>
  <speed>0.0</speed>
  <fix>3d</fix>
</trkpt>
<trkpt lat="40.072842" lon="-105.230575">
  <ele>1586.09</ele>
  <time>2026-08-28T19:07:11Z</time>
  <course>8.27</course>
  <speed>0.0</speed>
  <fix>3d</fix>
</trkpt>
<trkpt lat="40.072842" lon="-105.230575">
  <ele>1586.09</ele>
  <time>2026-08-28T19:07:11Z</time>
  <course>77.32</course>
  <speed>0.0</speed>
  <fix>3d</fix>
</trkpt>
<trkpt lat="40.072842" lon="-105.230575">
  <ele>1586.09</ele>
  <time>2026-08-28T19:07:11Z</time>
  <course>8.61</course>
  <speed>0.0</speed>
  <fix>3d</fix>
</trkpt>
<trkpt lat="40.072842" lon="-105.230575">
  <ele>1586.09</ele>
  <time>2026-08-28T19:07:11Z</time>
  <course>290.54</course>
  <speed>0.0</speed>
  <fix>3d</fix>
</trkpt>
<trkpt lat="40.072842" lon="-105.230575">
  <ele>1586.09</ele>
  <time>2026-08-28T19:07:11Z</time>
  <course>8.92</course>
  <speed>0.0</speed>
  <fix>3d</fix>
</trkpt>
<trkpt lat="40.072842" lon="-105.230575">
  <ele>1586.09</ele>
  <time>2026-08-28T19:07:11Z</time>
  <course>338.69</course>
  <speed>0.0</speed>
  <fix>3d</fix>
</trkpt>
<trkpt lat="40.072842" lon="-105.230575">
  <ele>1586.09</ele>
  <time>2026-08-28T19:07:11Z</time>
  <course>9.21</course>
  <speed>0.0</speed>
  <fix>3d</fix>
</trkpt>
<trkpt lat="40.072842" lon="-105.230575">
  <ele>1586.09</ele>
  <time>2026-08-28T19:07:11Z</time>
  <course>326.81</course>
  <speed>0.0</speed>
  <fix>3d</fix>
</trkpt>
<trkpt lat="40.072842" lon="-105.230575">
  <ele>1586.09</ele>
  <time>2026-08-28T19:07:11Z</time>
  <course>9.48</course>
  <speed>0.0</speed>
  <fix>3d</fix>
</trkpt>
<trkpt lat="40.072842" lon="-105.230575">
  <ele>1586.09</ele>
  <time>2026-08-28T19:07:11Z</time>
  <course>262.23</course>
  <speed>0.0</speed>
  <fix>3d</fix>
</trkpt>
<trkpt lat="40.072842" lon="-105.230575">
  <ele>1586.09</ele>
  <time>2026-08-28T19:07:11Z</time>
  <course>9.72</course>
  <speed>0.0</speed>
  <fix>3d</fix>
</trkpt>
<trkpt lat="40.072842" lon="-105.230575">
  <ele>1586.09</ele>
  <time>2026-08-28T19:07:11Z</time>
  <course>159.08</course>
  <speed>0.0</speed>
  <fix>3d</fix>
</trkpt>
<trkpt lat="40.072842" lon="-105.230575">
  <ele>1586.09</ele>
  <time>2026-08-28T19:07:11Z</time>
  <course>9.95</course>
  <speed>0.0</speed>
  <fix>3d</fix>
</trkpt>
<trkpt lat="40.072842" lon="-105.230575">
  <ele>1586.09</ele>
  <time>2026-08-28T19:07:11Z</time>
  <course>287.98</course>
  <speed>0.0</speed>
  <fix>3d</fix>
</trkpt>
<trkpt lat="40.072842" lon="-105.230575">
  <ele>1586.09</ele>
  <time>2026-08-28T19:07:11Z</time>
  <course>10.15</course>
  <speed>0.0</speed>
  <fix>3d</fix>
</trkpt>
<trkpt lat="40.072842" lon="-105.230575">
  <ele>1586.09</ele>
  <time>2026-08-28T19:07:11Z</time>
  <course>278.3</course>
  <speed>0.0</speed>
  <fix>3d</fix>
</trkpt>
<trkpt lat="40.072842" lon="-105.230575">
  <ele>1586.09</ele>
  <time>2026-08-28T19:07:11Z</time>
  <course>10.34</course>
  <speed>0.0</speed>
  <fix>3d</fix>
</trkpt>
<trkpt lat="40.072842" lon="-105.230575">
  <ele>1586.09</ele>
  <time>2026-08-28T19:07:11Z</time>
  <course>261.72</course>
  <speed>0.0</speed>
  <fix>3d</fix>
</trkpt>
<trkpt lat="40.072842" lon="-105.230575">
  <ele>1586.09</ele>
  <time>2026-08-28T19:07:11Z</time>
  <course>10.51</course>
  <speed>0.0</speed>
  <fix>3d</fix>
</trkpt>
<trkpt lat="40.072842" lon="-105.230575">
  <ele>1586.09</ele>
  <time>2026-08-28T19:07:11Z</time>
  <course>264.4</course>
  <speed>0.0</speed>
  <fix>3d</fix>
</trkpt>
<trkpt lat="40.072842" lon="-105.230575">
  <ele>1586.09</ele>
  <time>2026-08-28T19:07:11Z</time>
  <course>10.67</course>
  <speed>0.0</speed>
  <fix>3d</fix>
</trkpt>
<trkpt lat="40.072842" lon="-105.230575">
  <ele>1586.09</ele>
  <time>2026-08-28T19:07:11Z</time>
  <course>266.8</course>
  <speed>0.0</speed>
  <fix>3d</fix>
</trkpt>
<trkpt lat="40.072842" lon="-105.230575">
  <ele>1586.09</ele>
  <time>2026-08-28T19:07:11Z</time>
  <course>10.81</course>
  <speed>0.0</speed>
  <fix>3d</fix>
</trkpt>
<trkpt lat="40.072842" lon="-105.230575">
  <ele>1586.09</ele>
  <time>2026-08-28T19:07:11Z</time>
  <course>266.15</course>
  <speed>0.0</speed>
  <fix>3d</fix>
</trkpt>
<trkpt lat="40.072842" lon="-105.230575">
  <ele>1586.09</ele>
  <time>2026-08-28T19:07:11Z</time>
  <course>10.94</course>
  <speed>0.0</speed>
  <fix>3d</fix>
</trkpt>
<trkpt lat="40.072842" lon="-105.230575">
  <ele>1586.09</ele>
  <time>2026-08-28T19:07:11Z</time>
  <course>265.92</course>
  <speed>0.0</speed>
  <fix>3d</fix>
</trkpt>
<trkpt lat="40.072842" lon="-105.230575">
  <ele>1586.09</ele>
  <time>2026-08-28T19:07:11Z</time>
  <course>11.06</course>
  <speed>0.0</speed>
  <fix>3d</fix>
</trkpt>
<trkpt lat="40.072842" lon="-105.230575">
  <ele>1586.09</ele>
  <time>2026-08-28T19:07:11Z</time>
  <course>266.03</course>
  <speed>0.0</speed>
  <fix>3d</fix>
</trkpt>
<trkpt lat="40.072842" lon="-105.230575">
  <ele>1586.09</ele>
  <time>2026-08-28T19:07:11Z</time>
  <course>11.18</course>
  <speed>0.0</speed>
  <fix>3d</fix>
</trkpt>
<trkpt lat="40.072842" lon="-105.230575">
  <ele>1586.09</ele>
  <time>2026-08-28T19:07:11Z</time>
  <course>266.05</course>
  <speed>0.0</speed>
  <fix>3d</fix>
</trkpt>
<trkpt lat="40.072842" lon="-105.230575">
  <ele>1586.09</ele>
  <time>2026-08-28T19:07:11Z</time>
  <course>11.28</course>
  <speed>0.0</speed>
  <fix>3d</fix>
</trkpt>
<trkpt lat="40.072842" lon="-105.230575">
  <ele>1586.09</ele>
  <time>2026-08-28T19:07:11Z</time>
  <course>266.03</course>
  <speed>0.0</speed>
  <fix>3d</fix>
</trkpt>
<trkpt lat="40.072842" lon="-105.230575">
  <ele>1586.09</ele>
  <time>2026-08-28T19:07:11Z</time>
  <course>11.37</course>
  <speed>0.0</speed>
  <fix>3d</fix>
</trkpt>
<trkpt lat="40.072842" lon="-105.230575">
  <ele>1586.09</ele>
  <time>2026-08-28T19:07:11Z</time>
  <course>266.03</course>
  <speed>0.0</speed>
  <fix>3d</fix>
</trkpt>
<trkpt lat="40.072842" lon="-105.230575">
  <ele>1586.09</ele>
  <time>2026-08-28T19:07:11Z</time>
  <course>11.45</course>
  <speed>0.0</speed>
  <fix>3d</fix>
</trkpt>
<trkpt lat="40.072842" lon="-105.230575">
  <ele>1586.09</ele>
  <time>2026-08-28T19:07:11Z</time>
  <course>266.03</course>
  <speed>0.0</speed>
  <fix>3d</fix>
</trkpt>
<trkpt lat="40.072842" lon="-105.230575">
  <ele>1586.09</ele>
  <time>2026-08-28T19:07:11Z</time>
  <course>11.52</course>
  <speed>0.0</speed>
  <fix>3d</fix>
</trkpt>
<trkpt lat="40.072842" lon="-105.230575">
  <ele>1586.09</ele>
  <time>2026-08-28T19:07:11Z</time>
  <course>266.03</course>
  <speed>0.0</speed>
  <fix>3d</fix>
</trkpt>
<trkpt lat="40.072842" lon="-105.230575">
  <ele>1586.09</ele>
  <time>2026-08-28T19:07:11Z</time>
  <course>11.59</course>
  <speed>0.0</speed>
  <fix>3d</fix>
</trkpt>
<trkpt lat="40.072842" lon="-105.230575">
  <ele>1586.09</ele>
  <time>2026-08-28T19:07:11Z</time>
  <course>266.03</course>
  <speed>0.0</speed>
  <fix>3d</fix>
</trkpt>
<trkpt lat="40.072842" lon="-105.230575">
  <ele>1586.09</ele>
  <time>2026-08-28T19:07:11Z</time>
  <course>11.65</course>
  <speed>0.0</speed>
  <fix>3d</fix>
</trkpt>
<trkpt lat="40.072842" lon="-105.230575">
  <ele>1586.09</ele>
  <time>2026-08-28T19:07:11Z</time>
  <course>266.03</course>
  <speed>0.0</speed>
  <fix>3d</fix>
</trkpt>
<trkpt lat="40.072842" lon="-105.230575">
  <ele>1586.09</ele>
  <time>2026-08-28T19:07:11Z</time>
  <course>11.71</course>
  <speed>0.0</speed>
  <fix>3d</fix>
</trkpt>
<trkpt lat="40.072842" lon="-105.230575">
  <ele>1586.09</ele>
  <time>2026-08-28T19:07:11Z</time>
  <course>266.03</course>
  <speed>0.0</speed>
  <fix>3d</fix>
</trkpt>
<trkpt lat="40.072842" lon="-105.230575">
  <ele>1586.09</ele>
  <time>2026-08-28T19:07:11Z</time>
  <course>11.76</course>
  <speed>0.0</speed>
  <fix>3d</fix>
</trkpt>
<trkpt lat="40.072842" lon="-105.230575">
  <ele>1586.09</ele>
  <time>2026-08-28T19:07:11Z</time>
  <course>266.03</course>
  <speed>0.0</speed>
  <fix>3d</fix>
</trkpt>
<trkpt lat="40.072842" lon="-105.230575">
  <ele>1586.09</ele>
  <time>2026-08-28T19:07:11Z</time>
  <course>11.81</course>
  <speed>0.0</speed>
  <fix>3d</fix>
</trkpt>
<trkpt lat="40.072842" lon="-105.230575">
  <ele>1586.09</ele>
  <time>2026-08-28T19:07:11Z</time>
  <course>266.03</course>
  <speed>0.0</speed>
  <fix>3d</fix>
</trkpt>
<trkpt lat="40.072842" lon="-105.230575">
  <ele>1586.09</ele>
  <time>2026-08-28T19:07:11Z</time>
  <course>11.85</course>
  <speed>0.0</speed>
  <fix>3d</fix>
</trkpt>
<trkpt lat="40.072842" lon="-105.230575">
  <ele>1586.09</ele>
  <time>2026-08-28T19:07:11Z</time>
  <course>266.03</course>
  <speed>0.0</speed>
  <fix>3d</fix>
</trkpt>
<trkpt lat="40.072842" lon="-105.230575">
  <ele>1586.09</ele>
  <time>2026-08-28T19:07:11Z</time>
  <course>11.88</course>
  <speed>0.0</speed>
  <fix>3d</fix>
</trkpt>
<trkpt lat="40.072842" lon="-105.230575">
  <ele>1586.09</ele>
  <time>2026-08-28T19:07:11Z</time>
  <course>266.03</course>
  <speed>0.0</speed>
  <fix>3d</fix>
</trkpt>
<trkpt lat="40.072842" lon="-105.230575">
  <ele>1586.09</ele>
  <time>2026-08-28T19:07:11Z</time>
  <course>11.92</course>
  <speed>0.0</speed>
  <fix>3d</fix>
</trkpt>
<trkpt lat="40.072842" lon="-105.230575">
  <ele>1586.09</ele>
  <time>2026-08-28T19:07:11Z</time>
  <course>266.03</course>
  <speed>0.0</speed>
  <fix>3d</fix>
</trkpt>
<trkpt lat="40.072842" lon="-105.230575">
  <ele>1586.09</ele>
  <time>2026-08-28T19:07:11Z</time>
  <course>11.95</course>
  <speed>0.0</speed>
  <fix>3d</fix>
</trkpt>
<trkpt lat="40.072842" lon="-105.230575">
  <ele>1586.09</ele>
  <time>2026-08-28T19:07:11Z</time>
  <course>266.03</course>
  <speed>0.0</speed>
  <fix>3d</fix>
</trkpt>
<trkpt lat="40.072842" lon="-105.230575">
  <ele>1586.09</ele>
  <time>2026-08-28T19:07:11Z</time>
  <course>11.97</course>
  <speed>0.0</speed>
  <fix>3d</fix>
</trkpt>
<trkpt lat="40.072842" lon="-105.230575">
  <ele>1586.09</ele>
  <time>2026-08-28T19:07:11Z</time>
  <course>266.03</course>
  <speed>0.0</speed>
  <fix>3d</fix>
</trkpt>
<trkpt lat="40.072842" lon="-105.230575">
  <ele>1586.09</ele>
  <time>2026-08-28T19:07:11Z</time>
  <course>12.0</course>
  <speed>0.0</speed>
  <fix>3d</fix>
</trkpt>
<trkpt lat="40.072842" lon="-105.230575">
  <ele>1586.09</ele>
  <time>2026-08-28T19:07:11Z</time>
  <course>266.03</course>
  <speed>0.0</speed>
  <fix>3d</fix>
</trkpt>
<trkpt lat="40.072842" lon="-105.230575">
  <ele>1586.09</ele>
  <time>2026-08-28T19:07:11Z</time>
  <course>12.02</course>
  <speed>0.0</speed>
  <fix>3d</fix>
</trkpt>
<trkpt lat="40.072842" lon="-105.230575">
  <ele>1586.09</ele>
  <time>2026-08-28T19:07:11Z</time>
  <course>266.03</course>
  <speed>0.0</speed>
  <fix>3d</fix>
</trkpt>
<trkpt lat="40.072842" lon="-105.230575">
  <ele>1586.09</ele>
  <time>2026-08-28T19:07:11Z</time>
  <course>12.03</course>
  <speed>0.0</speed>
  <fix>3d</fix>
</trkpt>
<trkpt lat="40.072842" lon="-105.230575">
  <ele>1586.09</ele>
  <time>2026-08-28T19:07:11Z</time>
  <course>266.03</course>
  <speed>0.0</speed>
  <fix>3d</fix>
</trkpt>
<trkpt lat="40.072842" lon="-105.230575">
  <ele>1586.09</ele>
  <time>2026-08-28T19:07:11Z</time>
  <course>12.05</course>
  <speed>0.0</speed>
  <fix>3d</fix>
</trkpt>
<trkpt lat="40.072842" lon="-105.230575">
  <ele>1586.09</ele>
  <time>2026-08-28T19:07:11Z</time>
  <course>266.03</course>
  <speed>0.0</speed>
  <fix>3d</fix>
</trkpt>
<trkpt lat="40.072842" lon="-105.230575">
  <ele>1586.09</ele>
  <time>2026-08-28T19:07:11Z</time>
  <course>12.07</course>
  <speed>0.0</speed>
  <fix>3d</fix>
</trkpt>
<trkpt lat="40.072842" lon="-105.230575">
  <ele>1586.09</ele>
  <time>2026-08-28T19:07:11Z</time>
  <course>266.03</course>
  <speed>0.0</speed>
  <fix>3d</fix>
</trkpt>
<trkpt lat="40.072842" lon="-105.230575">
  <ele>1586.09</ele>
  <time>2026-08-28T19:07:11Z</time>
  <course>12.08</course>
  <speed>0.0</speed>
  <fix>3d</fix>
</trkpt>
<trkpt lat="40.072842" lon="-105.230575">
  <ele>1586.09</ele>
  <time>2026-08-28T19:07:11Z</time>
  <course>266.03</course>
  <speed>0.0</speed>
  <fix>3d</fix>
</trkpt>
<trkpt lat="40.072842" lon="-105.230575">
  <ele>1586.09</ele>
  <time>2026-08-28T19:07:11Z</time>
  <course>12.09</course>
  <speed>0.0</speed>
  <fix>3d</fix>
</trkpt>
<trkpt lat="40.072842" lon="-105.230575">
  <ele>1586.09</ele>
  <time>2026-08-28T19:07:11Z</time>
  <course>266.03</course>
  <speed>0.0</speed>
  <fix>3d</fix>
</trkpt>
<trkpt lat="40.072842" lon="-105.230575">
  <ele>1586.09</ele>
  <time>2026-08-28T19:07:11Z</time>
  <course>12.1</course>
  <speed>0.0</speed>
  <fix>3d</fix>
</trkpt>
<trkpt lat="40.072842" lon="-105.230575">
  <ele>1586.09</ele>
  <time>2026-08-28T19:07:11Z</time>
  <course>266.03</course>
  <speed>0.0</speed>
  <fix>3d</fix>
</trkpt>
<trkpt lat="40.072842" lon="-105.230575">
  <ele>1586.09</ele>
  <time>2026-08-28T19:07:11Z</time>
  <course>12.1</course>
  <speed>0.0</speed>
  <fix>3d</fix>
</trkpt>
<trkpt lat="40.072842" lon="-105.230575">
  <ele>1586.09</ele>
  <time>2026-08-28T19:07:11Z</time>
  <course>266.03</course>
  <speed>0.0</speed>
  <fix>3d</fix>
</trkpt>
<trkpt lat="40.072842" lon="-105.230575">
  <ele>1586.09</ele>
  <time>2026-08-28T19:07:11Z</time>
  <course>12.11</course>
  <speed>0.0</speed>
  <fix>3d</fix>
</trkpt>
<trkpt lat="40.072842" lon="-105.230575">
  <ele>1586.09</ele>
  <time>2026-08-28T19:07:11Z</time>
  <course>266.03</course>
  <speed>0.0</speed>
  <fix>3d</fix>
</trkpt>
<trkpt lat="40.072842" lon="-105.230575">
  <ele>1586.09</ele>
  <time>2026-08-28T19:07:11Z</time>
  <course>12.12</course>
  <speed>0.0</speed>
  <fix>3d</fix>
</trkpt>
<trkpt lat="40.072842" lon="-105.230575">
  <ele>1586.09</ele>
  <time>2026-08-28T19:07:11Z</time>
  <course>266.03</course>
  <speed>0.0</speed>
  <fix>3d</fix>
</trkpt>
<trkpt lat="40.072842" lon="-105.230575">
  <ele>1586.09</ele>
  <time>2026-08-28T19:07:11Z</time>
  <course>12.12</course>
  <speed>0.0</speed>
  <fix>3d</fix>
</trkpt>
<trkpt lat="40.072842" lon="-105.230575">
  <ele>1586.09</ele>
  <time>2026-08-28T19:07:11Z</time>
  <course>266.03</course>
  <speed>0.0</speed>
  <fix>3d</fix>
</trkpt>
<trkpt lat="40.072842" lon="-105.230575">
  <ele>1586.09</ele>
  <time>2026-08-28T19:07:11Z</time>
  <course>12.12</course>
  <speed>0.0</speed>
  <fix>3d</fix>
</trkpt>
<trkpt lat="40.072842" lon="-105.230575">
  <ele>1586.09</ele>
  <time>2026-08-28T19:07:11Z</time>
  <course>266.03</course>
  <speed>0.0</speed>
  <fix>3d</fix>
</trkpt>
<trkpt lat="40.072842" lon="-105.230575">
  <ele>1586.09</ele>
  <time>2026-08-28T19:07:11Z</time>
  <course>12.13</course>
  <speed>0.0</speed>
  <fix>3d</fix>
</trkpt>
<trkpt lat="40.072842" lon="-105.230575">
  <ele>1586.09</ele>
  <time>2026-08-28T19:07:11Z</time>
  <course>266.03</course>
  <speed>0.0</speed>
  <fix>3d</fix>
</trkpt>
<trkpt lat="40.072842" lon="-105.230575">
  <ele>1586.09</ele>
  <time>2026-08-28T19:07:11Z</time>
  <course>12.13</course>
  <speed>0.0</speed>
  <fix>3d</fix>
</trkpt>
<trkpt lat="40.072842" lon="-105.230575">
  <ele>1586.09</ele>
  <time>2026-08-28T19:07:11Z</time>
  <course>266.03</course>
  <speed>0.0</speed>
  <fix>3d</fix>
</trkpt>
<trkpt lat="40.072842" lon="-105.230575">
  <ele>1586.09</ele>
  <time>2026-08-28T19:07:11Z</time>
  <course>12.13</course>
  <speed>0.0</speed>
  <fix>3d</fix>
</trkpt>
<trkpt lat="40.072842" lon="-105.230575">
  <ele>1586.09</ele>
  <time>2026-08-28T19:07:11Z</time>
  <course>266.03</course>
  <speed>0.0</speed>
  <fix>3d</fix>
</trkpt>
<trkpt lat="40.072842" lon="-105.230575">
  <ele>1586.09</ele>
  <time>2026-08-28T19:07:11Z</time>
  <course>12.12</course>
  <speed>0.01</speed>
  <fix>3d</fix>
</trkpt>
<trkpt lat="40.072842" lon="-105.230575">
  <ele>1586.09</ele>
  <time>2026-08-28T19:07:11Z</time>
  <course>266.03</course>
  <speed>0.0</speed>
  <fix>3d</fix>
</trkpt>
<trkpt lat="40.072842" lon="-105.230575">
  <ele>1586.09</ele>
  <time>2026-08-28T19:07:11Z</time>
  <course>12.12</course>
  <speed>0.01</speed>
  <fix>3d</fix>
</trkpt>
<trkpt lat="40.072842" lon="-105.230575">
  <ele>1586.09</ele>
  <time>2026-08-28T19:07:11Z</time>
  <course>266.03</course>
  <speed>0.0</speed>
  <fix>3d</fix>
</trkpt>
<trkpt lat="40.072842" lon="-105.230575">
  <ele>1586.09</ele>
  <time>2026-08-28T19:07:11Z</time>
  <course>12.12</course>
  <speed>0.01</speed>
  <fix>3d</fix>
</trkpt>
<trkpt lat="40.072842" lon="-105.230575">
  <ele>1586.09</ele>
  <time>2026-08-28T19:07:11Z</time>
  <course>266.03</course>
  <speed>0.0</speed>
  <fix>3d</fix>
</trkpt>
<trkpt lat="40.072842" lon="-105.230575">
  <ele>1586.09</ele>
  <time>2026-08-28T19:07:11Z</time>
  <course>12.12</course>
  <speed>0.01</speed>
  <fix>3d</fix>
</trkpt>
<trkpt lat="40.072842" lon="-105.230575">
  <ele>1586.09</ele>
  <time>2026-08-28T19:07:11Z</time>
  <course>266.03</course>
  <speed>0.0</speed>
  <fix>3d</fix>
</trkpt>
<trkpt lat="40.072842" lon="-105.230575">
  <ele>1586.09</ele>
  <time>2026-08-28T19:07:11Z</time>
  <course>12.11</course>
  <speed>0.01</speed>
  <fix>3d</fix>
</trkpt>
<trkpt lat="40.072842" lon="-105.230575">
  <ele>1586.09</ele>
  <time>2026-08-28T19:07:11Z</time>
  <course>266.03</course>
  <speed>0.0</speed>
  <fix>3d</fix>
</trkpt>
<trkpt lat="40.072842" lon="-105.230575">
  <ele>1586.09</ele>
  <time>2026-08-28T19:07:11Z</time>
  <course>12.11</course>
  <speed>0.01</speed>
  <fix>3d</fix>
</trkpt>
<trkpt lat="40.072842" lon="-105.230575">
  <ele>1586.09</ele>
  <time>2026-08-28T19:07:11Z</time>
  <course>266.03</course>
  <speed>0.0</speed>
  <fix>3d</fix>
</trkpt>
<trkpt lat="40.072842" lon="-105.230575">
  <ele>1586.09</ele>
  <time>2026-08-28T19:07:11Z</time>
  <course>12.1</course>
  <speed>0.01</speed>
  <fix>3d</fix>
</trkpt>
<trkpt lat="40.072842" lon="-105.230575">
  <ele>1586.09</ele>
  <time>2026-08-28T19:07:11Z</time>
  <course>266.03</course>
  <speed>0.0</speed>
  <fix>3d</fix>
</trkpt>
<trkpt lat="40.072842" lon="-105.230575">
  <ele>1586.09</ele>
  <time>2026-08-28T19:07:11Z</time>
  <course>12.1</course>
  <speed>0.01</speed>
  <fix>3d</fix>
</trkpt>
<trkpt lat="40.072842" lon="-105.230575">
  <ele>1586.09</ele>
  <time>2026-08-28T19:07:11Z</time>
  <course>266.03</course>
  <speed>0.0</speed>
  <fix>3d</fix>
</trkpt>
<trkpt lat="40.072842" lon="-105.230575">
  <ele>1586.09</ele>
  <time>2026-08-28T19:07:11Z</time>
  <course>12.09</course>
  <speed>0.01</speed>
  <fix>3d</fix>
</trkpt>
<trkpt lat="40.072842" lon="-105.230575">
  <ele>1586.09</ele>
  <time>2026-08-28T19:07:11Z</time>
  <course>266.03</course>
  <speed>0.0</speed>
  <fix>3d</fix>
</trkpt>
<trkpt lat="40.072842" lon="-105.230575">
  <ele>1586.09</ele>
  <time>2026-08-28T19:07:11Z</time>
  <course>12.09</course>
  <speed>0.01</speed>
  <fix>3d</fix>
</trkpt>
<trkpt lat="40.072842" lon="-105.230575">
  <ele>1586.09</ele>
  <time>2026-08-28T19:07:11Z</time>
  <course>266.03</course>
  <speed>0.0</speed>
  <fix>3d</fix>
</trkpt>
<trkpt lat="40.072842" lon="-105.230575">
  <ele>1586.09</ele>
  <time>2026-08-28T19:07:11Z</time>
  <course>12.08</course>
  <speed>0.01</speed>
  <fix>3d</fix>
</trkpt>
<trkpt lat="40.072842" lon="-105.230575">
  <ele>1586.09</ele>
  <time>2026-08-28T19:07:11Z</time>
  <course>266.03</course>
  <speed>0.0</speed>
  <fix>3d</fix>
</trkpt>
<trkpt lat="40.072842" lon="-105.230575">
  <ele>1586.09</ele>
  <time>2026-08-28T19:07:11Z</time>
  <course>12.08</course>
  <speed>0.01414213562373095</speed>
  <fix>3d</fix>
</trkpt>
<trkpt lat="40.072842" lon="-105.230575">
  <ele>1586.09</ele>
  <time>2026-08-28T19:07:11Z</time>
  <course>266.03</course>
  <speed>0.0</speed>
  <fix>3d</fix>
</trkpt>
<trkpt lat="40.072842" lon="-105.230575">
  <ele>1586.09</ele>
  <time>2026-08-28T19:07:11Z</time>
  <course>12.07</course>
  <speed>0.01414213562373095</speed>
  <fix>3d</fix>
</trkpt>
<trkpt lat="40.072842" lon="-105.230575">
  <ele>1586.09</ele>
  <time>2026-08-28T19:07:11Z</time>
  <course>266.03</course>
  <speed>0.0</speed>
  <fix>3d</fix>
</trkpt>
<trkpt lat="40.072842" lon="-105.230575">
  <ele>1586.09</ele>
  <time>2026-08-28T19:07:11Z</time>
  <course>12.06</course>
  <speed>0.01414213562373095</speed>
  <fix>3d</fix>
</trkpt>
<trkpt lat="40.072842" lon="-105.230575">
  <ele>1586.09</ele>
  <time>2026-08-28T19:07:11Z</time>
  <course>266.03</course>
  <speed>0.0</speed>
  <fix>3d</fix>
</trkpt>
<trkpt lat="40.072842" lon="-105.230575">
  <ele>1586.09</ele>
  <time>2026-08-28T19:07:11Z</time>
  <course>12.05</course>
  <speed>0.01414213562373095</speed>
  <fix>3d</fix>
</trkpt>
<trkpt lat="40.072842" lon="-105.230575">
  <ele>1586.09</ele>
  <time>2026-08-28T19:07:11Z</time>
  <course>266.03</course>
  <speed>0.0</speed>
  <fix>3d</fix>
</trkpt>
<trkpt lat="40.072842" lon="-105.230575">
  <ele>1586.09</ele>
  <time>2026-08-28T19:07:11Z</time>
  <course>12.05</course>
  <speed>0.01414213562373095</speed>
  <fix>3d</fix>
</trkpt>
<trkpt lat="40.072842" lon="-105.230575">
  <ele>1586.09</ele>
  <time>2026-08-28T19:07:11Z</time>
  <course>266.03</course>
  <speed>0.0</speed>
  <fix>3d</fix>
</trkpt>
<trkpt lat="40.072842" lon="-105.230575">
  <ele>1586.09</ele>
  <time>2026-08-28T19:07:11Z</time>
  <course>12.04</course>
  <speed>0.01414213562373095</speed>
  <fix>3d</fix>
</trkpt>
<trkpt lat="40.072842" lon="-105.230575">
  <ele>1586.09</ele>
  <time>2026-08-28T19:07:11Z</time>
  <course>266.03</course>
  <speed>0.0</speed>
  <fix>3d</fix>
</trkpt>
<trkpt lat="40.072842" lon="-105.230575">
  <ele>1586.09</ele>
  <time>2026-08-28T19:07:11Z</time>
  <course>12.03</course>
  <speed>0.01414213562373095</speed>
  <fix>3d</fix>
</trkpt>
<trkpt lat="40.072842" lon="-105.230575">
  <ele>1586.09</ele>
  <time>2026-08-28T19:07:11Z</time>
  <course>266.03</course>
  <speed>0.0</speed>
  <fix>3d</fix>
</trkpt>
<trkpt lat="40.072842" lon="-105.230575">
  <ele>1586.09</ele>
  <time>2026-08-28T19:07:11Z</time>
  <course>12.03</course>
  <speed>0.01414213562373095</speed>
  <fix>3d</fix>
</trkpt>
<trkpt lat="40.072842" lon="-105.230575">
  <ele>1586.09</ele>
  <time>2026-08-28T19:07:11Z</time>
  <course>266.03</course>
  <speed>0.0</speed>
  <fix>3d</fix>
</trkpt>
<trkpt lat="40.072842" lon="-105.230575">
  <ele>1586.09</ele>
  <time>2026-08-28T19:07:11Z</time>
  <course>12.02</course>
  <speed>0.01414213562373095</speed>
  <fix>3d</fix>
</trkpt>
<trkpt lat="40.072842" lon="-105.230575">
  <ele>1586.09</ele>
  <time>2026-08-28T19:07:11Z</time>
  <course>266.03</course>
  <speed>0.0</speed>
  <fix>3d</fix>
</trkpt>
<trkpt lat="40.072842" lon="-105.230575">
  <ele>1586.09</ele>
  <time>2026-08-28T19:07:11Z</time>
  <course>12.01</course>
  <speed>0.01414213562373095</speed>
  <fix>3d</fix>
</trkpt>
<trkpt lat="40.072842" lon="-105.230575">
  <ele>1586.09</ele>
  <time>2026-08-28T19:07:11Z</time>
  <course>266.03</course>
  <speed>0.0</speed>
  <fix>3d</fix>
</trkpt>
<trkpt lat="40.072842" lon="-105.230575">
  <ele>1586.09</ele>
  <time>2026-08-28T19:07:11Z</time>
  <course>12.01</course>
  <speed>0.01414213562373095</speed>
  <fix>3d</fix>
</trkpt>
<trkpt lat="40.072842" lon="-105.230575">
  <ele>1586.09</ele>
  <time>2026-08-28T19:07:11Z</time>
  <course>266.03</course>
  <speed>0.0</speed>
  <fix>3d</fix>
</trkpt>
<trkpt lat="40.072842" lon="-105.230575">
  <ele>1586.09</ele>
  <time>2026-08-28T19:07:11Z</time>
  <course>12.0</course>
  <speed>0.01414213562373095</speed>
  <fix>3d</fix>
</trkpt>
<trkpt lat="40.072842" lon="-105.230575">
  <ele>1586.09</ele>
  <time>2026-08-28T19:07:11Z</time>
  <course>266.03</course>
  <speed>0.0</speed>
  <fix>3d</fix>
</trkpt>
<trkpt lat="40.072842" lon="-105.230575">
  <ele>1586.09</ele>
  <time>2026-08-28T19:07:11Z</time>
  <course>11.99</course>
  <speed>0.01414213562373095</speed>
  <fix>3d</fix>
</trkpt>
<trkpt lat="40.072842" lon="-105.230575">
  <ele>1586.09</ele>
  <time>2026-08-28T19:07:11Z</time>
  <course>266.03</course>
  <speed>0.0</speed>
  <fix>3d</fix>
</trkpt>
<trkpt lat="40.072842" lon="-105.230575">
  <ele>1586.09</ele>
  <time>2026-08-28T19:07:11Z</time>
  <course>11.98</course>
  <speed>0.01414213562373095</speed>
  <fix>3d</fix>
</trkpt>
<trkpt lat="40.072842" lon="-105.230575">
  <ele>1586.09</ele>
  <time>2026-08-28T19:07:11Z</time>
  <course>266.03</course>
  <speed>0.0</speed>
  <fix>3d</fix>
</trkpt>
<trkpt lat="40.072842" lon="-105.230575">
  <ele>1586.09</ele>
  <time>2026-08-28T19:07:11Z</time>
  <course>11.98</course>
  <speed>0.01414213562373095</speed>
  <fix>3d</fix>
</trkpt>
<trkpt lat="40.072842" lon="-105.230575">
  <ele>1586.09</ele>
  <time>2026-08-28T19:07:11Z</time>
  <course>266.03</course>
  <speed>0.0</speed>
  <fix>3d</fix>
</trkpt>
<trkpt lat="40.072842" lon="-105.230575">
  <ele>1586.09</ele>
  <time>2026-08-28T19:07:11Z</time>
  <course>11.97</course>
  <speed>0.022360679774997897</speed>
  <fix>3d</fix>
</trkpt>
<trkpt lat="40.072842" lon="-105.230575">
  <ele>1586.09</ele>
  <time>2026-08-28T19:07:11Z</time>
  <course>266.03</course>
  <speed>0.0</speed>
  <fix>3d</fix>
</trkpt>
<trkpt lat="40.072842" lon="-105.230575">
  <ele>1586.09</ele>
  <time>2026-08-28T19:07:11Z</time>
  <course>11.96</course>
  <speed>0.022360679774997897</speed>
  <fix>3d</fix>
</trkpt>
<trkpt lat="40.072842" lon="-105.230575">
  <ele>1586.09</ele>
  <time>2026-08-28T19:07:11Z</time>
  <course>266.03</course>
  <speed>0.0</speed>
  <fix>3d</fix>
</trkpt>
<trkpt lat="40.072842" lon="-105.230575">
  <ele>1586.09</ele>
  <time>2026-08-28T19:07:11Z</time>
  <course>11.95</course>
  <speed>0.022360679774997897</speed>
  <fix>3d</fix>
</trkpt>
<trkpt lat="40.072842" lon="-105.230575">
  <ele>1586.09</ele>
  <time>2026-08-28T19:07:11Z</time>
  <course>266.03</course>
  <speed>0.0</speed>
  <fix>3d</fix>
</trkpt>
<trkpt lat="40.072842" lon="-105.230575">
  <ele>1586.09</ele>
  <time>2026-08-28T19:07:11Z</time>
  <course>11.94</course>
  <speed>0.022360679774997897</speed>
  <fix>3d</fix>
</trkpt>
<trkpt lat="40.072842" lon="-105.230575">
  <ele>1586.09</ele>
  <time>2026-08-28T19:07:11Z</time>
  <course>266.03</course>
  <speed>0.0</speed>
  <fix>3d</fix>
</trkpt>
<trkpt lat="40.072842" lon="-105.230575">
  <ele>1586.09</ele>
  <time>2026-08-28T19:07:11Z</time>
  <course>11.93</course>
  <speed>0.022360679774997897</speed>
  <fix>3d</fix>
</trkpt>
<trkpt lat="40.072842" lon="-105.230575">
  <ele>1586.09</ele>
  <time>2026-08-28T19:07:11Z</time>
  <course>266.03</course>
  <speed>0.0</speed>
  <fix>3d</fix>
</trkpt>
<trkpt lat="40.072842" lon="-105.230575">
  <ele>1586.09</ele>
  <time>2026-08-28T19:07:11Z</time>
  <course>11.92</course>
  <speed>0.022360679774997897</speed>
  <fix>3d</fix>
</trkpt>
<trkpt lat="40.072842" lon="-105.230575">
  <ele>1586.09</ele>
  <time>2026-08-28T19:07:11Z</time>
  <course>266.03</course>
  <speed>0.0</speed>
  <fix>3d</fix>
</trkpt>
<trkpt lat="40.072842" lon="-105.230575">
  <ele>1586.09</ele>
  <time>2026-08-28T19:07:11Z</time>
  <course>11.92</course>
  <speed>0.022360679774997897</speed>
  <fix>3d</fix>
</trkpt>
<trkpt lat="40.072842" lon="-105.230575">
  <ele>1586.09</ele>
  <time>2026-08-28T19:07:11Z</time>
  <course>266.03</course>
  <speed>0.0</speed>
  <fix>3d</fix>
</trkpt>
<trkpt lat="40.072842" lon="-105.230575">
  <ele>1586.09</ele>
  <time>2026-08-28T19:07:11Z</time>
  <course>11.91</course>
  <speed>0.022360679774997897</speed>
  <fix>3d</fix>
</trkpt>
<trkpt lat="40.072842" lon="-105.230575">
  <ele>1586.09</ele>
  <time>2026-08-28T19:07:11Z</time>
  <course>266.03</course>
  <speed>0.0</speed>
  <fix>3d</fix>
</trkpt>
<trkpt lat="40.072842" lon="-105.230575">
  <ele>1586.09</ele>
  <time>2026-08-28T19:07:11Z</time>
  <course>11.9</course>
  <speed>0.022360679774997897</speed>
  <fix>3d</fix>
</trkpt>
<trkpt lat="40.072842" lon="-105.230575">
  <ele>1586.09</ele>
  <time>2026-08-28T19:07:11Z</time>
  <course>266.03</course>
  <speed>0.0</speed>
  <fix>3d</fix>
</trkpt>
<trkpt lat="40.072842" lon="-105.230575">
  <ele>1586.09</ele>
  <time>2026-08-28T19:07:11Z</time>
  <course>11.89</course>
  <speed>0.022360679774997897</speed>
  <fix>3d</fix>
</trkpt>
<trkpt lat="40.072842" lon="-105.230575">
  <ele>1586.09</ele>
  <time>2026-08-28T19:07:11Z</time>
  <course>266.03</course>
  <speed>0.0</speed>
  <fix>3d</fix>
</trkpt>
<trkpt lat="40.072842" lon="-105.230575">
  <ele>1586.09</ele>
  <time>2026-08-28T19:07:11Z</time>
  <course>11.88</course>
  <speed>0.022360679774997897</speed>
  <fix>3d</fix>
</trkpt>
<trkpt lat="40.072842" lon="-105.230575">
  <ele>1586.09</ele>
  <time>2026-08-28T19:07:11Z</time>
  <course>266.03</course>
  <speed>0.0</speed>
  <fix>3d</fix>
</trkpt>
<trkpt lat="40.072842" lon="-105.230575">
  <ele>1586.09</ele>
  <time>2026-08-28T19:07:11Z</time>
  <course>11.88</course>
  <speed>0.022360679774997897</speed>
  <fix>3d</fix>
</trkpt>
<trkpt lat="40.072842" lon="-105.230575">
  <ele>1586.09</ele>
  <time>2026-08-28T19:07:11Z</time>
  <course>266.03</course>
  <speed>0.0</speed>
  <fix>3d</fix>
</trkpt>
<trkpt lat="40.072842" lon="-105.230575">
  <ele>1586.09</ele>
  <time>2026-08-28T19:07:11Z</time>
  <course>11.87</course>
  <speed>0.022360679774997897</speed>
  <fix>3d</fix>
</trkpt>
<trkpt lat="40.072842" lon="-105.230575">
  <ele>1586.09</ele>
  <time>2026-08-28T19:07:11Z</time>
  <course>266.03</course>
  <speed>0.0</speed>
  <fix>3d</fix>
</trkpt>
<trkpt lat="40.072842" lon="-105.230575">
  <ele>1586.09</ele>
  <time>2026-08-28T19:07:11Z</time>
  <course>11.86</course>
  <speed>0.022360679774997897</speed>
  <fix>3d</fix>
</trkpt>
<trkpt lat="40.072842" lon="-105.230575">
  <ele>1586.09</ele>
  <time>2026-08-28T19:07:11Z</time>
  <course>266.03</course>
  <speed>0.0</speed>
  <fix>3d</fix>
</trkpt>
<trkpt lat="40.072842" lon="-105.230575">
  <ele>1586.09</ele>
  <time>2026-08-28T19:07:11Z</time>
  <course>11.85</course>
  <speed>0.022360679774997897</speed>
  <fix>3d</fix>
</trkpt>
<trkpt lat="40.072842" lon="-105.230575">
  <ele>1586.09</ele>
  <time>2026-08-28T19:07:11Z</time>
  <course>266.03</course>
  <speed>0.0</speed>
  <fix>3d</fix>
</trkpt>
<trkpt lat="40.072842" lon="-105.230575">
  <ele>1586.09</ele>
  <time>2026-08-28T19:07:11Z</time>
  <course>11.84</course>
  <speed>0.0282842712474619</speed>
  <fix>3d</fix>
</trkpt>
<trkpt lat="40.072842" lon="-105.230575">
  <ele>1586.09</ele>
  <time>2026-08-28T19:07:11Z</time>
  <course>266.03</course>
  <speed>0.0</speed>
  <fix>3d</fix>
</trkpt>
<trkpt lat="40.072842" lon="-105.230575">
  <ele>1586.09</ele>
  <time>2026-08-28T19:07:11Z</time>
  <course>11.83</course>
  <speed>0.0282842712474619</speed>
  <fix>3d</fix>
</trkpt>
<trkpt lat="40.072842" lon="-105.230575">
  <ele>1586.09</ele>
  <time>2026-08-28T19:07:11Z</time>
  <course>266.03</course>
  <speed>0.0</speed>
  <fix>3d</fix>
</trkpt>
<trkpt lat="40.072842" lon="-105.230575">
  <ele>1586.09</ele>
  <time>2026-08-28T19:07:11Z</time>
  <course>11.83</course>
  <speed>0.0282842712474619</speed>
  <fix>3d</fix>
</trkpt>
<trkpt lat="40.072842" lon="-105.230575">
  <ele>1586.09</ele>
  <time>2026-08-28T19:07:11Z</time>
  <course>266.03</course>
  <speed>0.0</speed>
  <fix>3d</fix>
</trkpt>
<trkpt lat="40.072842" lon="-105.230575">
  <ele>1586.09</ele>
  <time>2026-08-28T19:07:11Z</time>
  <course>11.82</course>
  <speed>0.0282842712474619</speed>
  <fix>3d</fix>
</trkpt>
<trkpt lat="40.072842" lon="-105.230575">
  <ele>1586.09</ele>
  <time>2026-08-28T19:07:11Z</time>
  <course>266.03</course>
  <speed>0.0</speed>
  <fix>3d</fix>
</trkpt>
<trkpt lat="40.072842" lon="-105.230575">
  <ele>1586.09</ele>
  <time>2026-08-28T19:07:11Z</time>
  <course>11.81</course>
  <speed>0.0282842712474619</speed>
  <fix>3d</fix>
</trkpt>
<trkpt lat="40.072842" lon="-105.230575">
  <ele>1586.09</ele>
  <time>2026-08-28T19:07:11Z</time>
  <course>266.03</course>
  <speed>0.0</speed>
  <fix>3d</fix>
</trkpt>
<trkpt lat="40.072842" lon="-105.230575">
  <ele>1586.09</ele>
  <time>2026-08-28T19:07:11Z</time>
  <course>11.8</course>
  <speed>0.0282842712474619</speed>
  <fix>3d</fix>
</trkpt>
<trkpt lat="40.072842" lon="-105.230575">
  <ele>1586.09</ele>
  <time>2026-08-28T19:07:11Z</time>
  <course>266.03</course>
  <speed>0.0</speed>
  <fix>3d</fix>
</trkpt>
<trkpt lat="40.072842" lon="-105.230575">
  <ele>1586.09</ele>
  <time>2026-08-28T19:07:11Z</time>
  <course>11.79</course>
  <speed>0.0282842712474619</speed>
  <fix>3d</fix>
</trkpt>
<trkpt lat="40.072842" lon="-105.230575">
  <ele>1586.09</ele>
  <time>2026-08-28T19:07:11Z</time>
  <course>266.03</course>
  <speed>0.0</speed>
  <fix>3d</fix>
</trkpt>
<trkpt lat="40.072842" lon="-105.230575">
  <ele>1586.09</ele>
  <time>2026-08-28T19:07:11Z</time>
  <course>11.79</course>
  <speed>0.0282842712474619</speed>
  <fix>3d</fix>
</trkpt>
<trkpt lat="40.072842" lon="-105.230575">
  <ele>1586.09</ele>
  <time>2026-08-28T19:07:11Z</time>
  <course>266.03</course>
  <speed>0.0</speed>
  <fix>3d</fix>
</trkpt>
<trkpt lat="40.072842" lon="-105.230575">
  <ele>1586.09</ele>
  <time>2026-08-28T19:07:11Z</time>
  <course>11.78</course>
  <speed>0.0282842712474619</speed>
  <fix>3d</fix>
</trkpt>
<trkpt lat="40.072842" lon="-105.230575">
  <ele>1586.09</ele>
  <time>2026-08-28T19:07:11Z</time>
  <course>266.03</course>
  <speed>0.0</speed>
  <fix>3d</fix>
</trkpt>
<trkpt lat="40.072842" lon="-105.230575">
  <ele>1586.09</ele>
  <time>2026-08-28T19:07:11Z</time>
  <course>11.77</course>
  <speed>0.0282842712474619</speed>
  <fix>3d</fix>
</trkpt>
<trkpt lat="40.072842" lon="-105.230575">
  <ele>1586.09</ele>
  <time>2026-08-28T19:07:11Z</time>
  <course>266.03</course>
  <speed>0.0</speed>
  <fix>3d</fix>
</trkpt>
<trkpt lat="40.072842" lon="-105.230575">
  <ele>1586.09</ele>
  <time>2026-08-28T19:07:11Z</time>
  <course>11.77</course>
  <speed>0.0282842712474619</speed>
  <fix>3d</fix>
</trkpt>
<trkpt lat="40.072842" lon="-105.230575">
  <ele>1586.09</ele>
  <time>2026-08-28T19:07:11Z</time>
  <course>266.03</course>
  <speed>0.0</speed>
  <fix>3d</fix>
</trkpt>
<trkpt lat="40.072842" lon="-105.230575">
  <ele>1586.09</ele>
  <time>2026-08-28T19:07:11Z</time>
  <course>11.76</course>
  <speed>0.0282842712474619</speed>
  <fix>3d</fix>
</trkpt>
<trkpt lat="40.072842" lon="-105.230575">
  <ele>1586.09</ele>
  <time>2026-08-28T19:07:11Z</time>
  <course>266.03</course>
  <speed>0.0</speed>
  <fix>3d</fix>
</trkpt>
<trkpt lat="40.072842" lon="-105.230575">
  <ele>1586.09</ele>
  <time>2026-08-28T19:07:11Z</time>
  <course>11.75</course>
  <speed>0.0282842712474619</speed>
  <fix>3d</fix>
</trkpt>
<trkpt lat="40.072842" lon="-105.230575">
  <ele>1586.09</ele>
  <time>2026-08-28T19:07:11Z</time>
  <course>266.03</course>
  <speed>0.0</speed>
  <fix>3d</fix>
</trkpt>
<trkpt lat="40.072842" lon="-105.230575">
  <ele>1586.09</ele>
  <time>2026-08-28T19:07:11Z</time>
  <course>11.74</course>
  <speed>0.03605551275463989</speed>
  <fix>3d</fix>
</trkpt>
<trkpt lat="40.072842" lon="-105.230575">
  <ele>1586.09</ele>
  <time>2026-08-28T19:07:11Z</time>
  <course>266.03</course>
  <speed>0.0</speed>
  <fix>3d</fix>
</trkpt>
<trkpt lat="40.072842" lon="-105.230575">
  <ele>1586.09</ele>
  <time>2026-08-28T19:07:11Z</time>
  <course>11.73</course>
  <speed>0.03605551275463989</speed>
  <fix>3d</fix>
</trkpt>
<trkpt lat="40.072842" lon="-105.230575">
  <ele>1586.09</ele>
  <time>2026-08-28T19:07:11Z</time>
  <course>266.03</course>
  <speed>0.0</speed>
  <fix>3d</fix>
</trkpt>
<trkpt lat="40.072842" lon="-105.230575">
  <ele>1586.09</ele>
  <time>2026-08-28T19:07:11Z</time>
  <course>11.73</course>
  <speed>0.03605551275463989</speed>
  <fix>3d</fix>
</trkpt>
<trkpt lat="40.072842" lon="-105.230575">
  <ele>1586.09</ele>
  <time>2026-08-28T19:07:11Z</time>
  <course>266.03</course>
  <speed>0.0</speed>
  <fix>3d</fix>
</trkpt>
<trkpt lat="40.072842" lon="-105.230575">
  <ele>1586.09</ele>
  <time>2026-08-28T19:07:11Z</time>
  <course>11.72</course>
  <speed>0.03605551275463989</speed>
  <fix>3d</fix>
</trkpt>
<trkpt lat="40.072842" lon="-105.230575">
  <ele>1586.09</ele>
  <time>2026-08-28T19:07:11Z</time>
  <course>266.03</course>
  <speed>0.0</speed>
  <fix>3d</fix>
</trkpt>
<trkpt lat="40.072842" lon="-105.230575">
  <ele>1586.09</ele>
  <time>2026-08-28T19:07:11Z</time>
  <course>11.71</course>
  <speed>0.03605551275463989</speed>
  <fix>3d</fix>
</trkpt>
<trkpt lat="40.072842" lon="-105.230575">
  <ele>1586.09</ele>
  <time>2026-08-28T19:07:11Z</time>
  <course>266.03</course>
  <speed>0.0</speed>
  <fix>3d</fix>
</trkpt>
<trkpt lat="40.072842" lon="-105.230575">
  <ele>1586.09</ele>
  <time>2026-08-28T19:07:11Z</time>
  <course>11.71</course>
  <speed>0.03605551275463989</speed>
  <fix>3d</fix>
</trkpt>
<trkpt lat="40.072842" lon="-105.230575">
  <ele>1586.09</ele>
  <time>2026-08-28T19:07:11Z</time>
  <course>266.03</course>
  <speed>0.0</speed>
  <fix>3d</fix>
</trkpt>
<trkpt lat="40.072842" lon="-105.230575">
  <ele>1586.09</ele>
  <time>2026-08-28T19:07:11Z</time>
  <course>11.7</course>
  <speed>0.03605551275463989</speed>
  <fix>3d</fix>
</trkpt>
<trkpt lat="40.072842" lon="-105.230575">
  <ele>1586.09</ele>
  <time>2026-08-28T19:07:11Z</time>
  <course>266.03</course>
  <speed>0.0</speed>
  <fix>3d</fix>
</trkpt>
<trkpt lat="40.072842" lon="-105.230575">
  <ele>1586.09</ele>
  <time>2026-08-28T19:07:11Z</time>
  <course>11.69</course>
  <speed>0.03605551275463989</speed>
  <fix>3d</fix>
</trkpt>
<trkpt lat="40.072842" lon="-105.230575">
  <ele>1586.09</ele>
  <time>2026-08-28T19:07:11Z</time>
  <course>266.03</course>
  <speed>0.0</speed>
  <fix>3d</fix>
</trkpt>
<trkpt lat="40.072842" lon="-105.230575">
  <ele>1586.09</ele>
  <time>2026-08-28T19:07:11Z</time>
  <course>11.68</course>
  <speed>0.03605551275463989</speed>
  <fix>3d</fix>
</trkpt>
<trkpt lat="40.072842" lon="-105.230575">
  <ele>1586.09</ele>
  <time>2026-08-28T19:07:11Z</time>
  <course>266.03</course>
  <speed>0.0</speed>
  <fix>3d</fix>
</trkpt>
<trkpt lat="40.072842" lon="-105.230575">
  <ele>1586.09</ele>
  <time>2026-08-28T19:07:11Z</time>
  <course>11.68</course>
  <speed>0.03605551275463989</speed>
  <fix>3d</fix>
</trkpt>
<trkpt lat="40.072842" lon="-105.230575">
  <ele>1586.09</ele>
  <time>2026-08-28T19:07:11Z</time>
  <course>266.03</course>
  <speed>0.0</speed>
  <fix>3d</fix>
</trkpt>
<trkpt lat="40.072842" lon="-105.230575">
  <ele>1586.09</ele>
  <time>2026-08-28T19:07:11Z</time>
  <course>11.67</course>
  <speed>0.03605551275463989</speed>
  <fix>3d</fix>
</trkpt>
<trkpt lat="40.072842" lon="-105.230575">
  <ele>1586.09</ele>
  <time>2026-08-28T19:07:11Z</time>
  <course>266.03</course>
  <speed>0.0</speed>
  <fix>3d</fix>
</trkpt>
<trkpt lat="40.072842" lon="-105.230575">
  <ele>1586.09</ele>
  <time>2026-08-28T19:07:11Z</time>
  <course>11.66</course>
  <speed>0.03605551275463989</speed>
  <fix>3d</fix>
</trkpt>
<trkpt lat="40.072842" lon="-105.230575">
  <ele>1586.09</ele>
  <time>2026-08-28T19:07:11Z</time>
  <course>266.03</course>
  <speed>0.0</speed>
  <fix>3d</fix>
</trkpt>
<trkpt lat="40.072842" lon="-105.230575">
  <ele>1586.09</ele>
  <time>2026-08-28T19:07:11Z</time>
  <course>11.65</course>
  <speed>0.03605551275463989</speed>
  <fix>3d</fix>
</trkpt>
<trkpt lat="40.072842" lon="-105.230575">
  <ele>1586.09</ele>
  <time>2026-08-28T19:07:11Z</time>
  <course>266.03</course>
  <speed>0.0</speed>
  <fix>3d</fix>
</trkpt>
<trkpt lat="40.072842" lon="-105.230575">
  <ele>1586.09</ele>
  <time>2026-08-28T19:07:11Z</time>
  <course>11.65</course>
  <speed>0.03605551275463989</speed>
  <fix>3d</fix>
</trkpt>
<trkpt lat="40.072842" lon="-105.230575">
  <ele>1586.09</ele>
  <time>2026-08-28T19:07:11Z</time>
  <course>266.03</course>
  <speed>0.0</speed>
  <fix>3d</fix>
</trkpt>
<trkpt lat="40.072842" lon="-105.230575">
  <ele>1586.09</ele>
  <time>2026-08-28T19:07:11Z</time>
  <course>11.64</course>
  <speed>0.03605551275463989</speed>
  <fix>3d</fix>
</trkpt>
<trkpt lat="40.072842" lon="-105.230575">
  <ele>1586.09</ele>
  <time>2026-08-28T19:07:11Z</time>
  <course>266.03</course>
  <speed>0.0</speed>
  <fix>3d</fix>
</trkpt>
<trkpt lat="40.072842" lon="-105.230575">
  <ele>1586.09</ele>
  <time>2026-08-28T19:07:11Z</time>
  <course>11.61</course>
  <speed>0.03605551275463989</speed>
  <fix>3d</fix>
</trkpt>
<trkpt lat="40.072842" lon="-105.230575">
  <ele>1586.09</ele>
  <time>2026-08-28T19:07:11Z</time>
  <course>266.03</course>
  <speed>0.0</speed>
  <fix>3d</fix>
</trkpt>
<trkpt lat="40.072842" lon="-105.230575">
  <ele>1586.09</ele>
  <time>2026-08-28T19:07:11Z</time>
  <course>11.61</course>
  <speed>0.03605551275463989</speed>
  <fix>3d</fix>
</trkpt>
<trkpt lat="40.072842" lon="-105.230575">
  <ele>1586.09</ele>
  <time>2026-08-28T19:07:11Z</time>
  <course>266.03</course>
  <speed>0.0</speed>
  <fix>3d</fix>
</trkpt>
<trkpt lat="40.072842" lon="-105.230575">
  <ele>1586.09</ele>
  <time>2026-08-28T19:07:11Z</time>
  <course>11.6</course>
  <speed>0.03605551275463989</speed>
  <fix>3d</fix>
</trkpt>
<trkpt lat="40.072842" lon="-105.230575">
  <ele>1586.09</ele>
  <time>2026-08-28T19:07:11Z</time>
  <course>266.03</course>
  <speed>0.0</speed>
  <fix>3d</fix>
</trkpt>
<trkpt lat="40.072842" lon="-105.230575">
  <ele>1586.09</ele>
  <time>2026-08-28T19:07:11Z</time>
  <course>11.6</course>
  <speed>0.03605551275463989</speed>
  <fix>3d</fix>
</trkpt>
<trkpt lat="40.072842" lon="-105.230575">
  <ele>1586.09</ele>
  <time>2026-08-28T19:07:11Z</time>
  <course>266.03</course>
  <speed>0.0</speed>
  <fix>3d</fix>
</trkpt>
<trkpt lat="40.072842" lon="-105.230575">
  <ele>1586.09</ele>
  <time>2026-08-28T19:07:11Z</time>
  <course>11.59</course>
  <speed>0.03605551275463989</speed>
  <fix>3d</fix>
</trkpt>
<trkpt lat="40.072842" lon="-105.230575">
  <ele>1586.09</ele>
  <time>2026-08-28T19:07:11Z</time>
  <course>266.03</course>
  <speed>0.0</speed>
  <fix>3d</fix>
</trkpt>
<trkpt lat="40.072842" lon="-105.230575">
  <ele>1586.09</ele>
  <time>2026-08-28T19:07:11Z</time>
  <course>11.58</course>
  <speed>0.03605551275463989</speed>
  <fix>3d</fix>
</trkpt>
<trkpt lat="40.072842" lon="-105.230575">
  <ele>1586.09</ele>
  <time>2026-08-28T19:07:11Z</time>
  <course>266.03</course>
  <speed>0.0</speed>
  <fix>3d</fix>
</trkpt>
<trkpt lat="40.072842" lon="-105.230575">
  <ele>1586.09</ele>
  <time>2026-08-28T19:07:11Z</time>
  <course>11.58</course>
  <speed>0.03605551275463989</speed>
  <fix>3d</fix>
</trkpt>
<trkpt lat="40.072842" lon="-105.230575">
  <ele>1586.09</ele>
  <time>2026-08-28T19:07:11Z</time>
  <course>266.03</course>
  <speed>0.0</speed>
  <fix>3d</fix>
</trkpt>
<trkpt lat="40.072842" lon="-105.230575">
  <ele>1586.09</ele>
  <time>2026-08-28T19:07:11Z</time>
  <course>11.57</course>
  <speed>0.03605551275463989</speed>
  <fix>3d</fix>
</trkpt>
<trkpt lat="40.072842" lon="-105.230575">
  <ele>1586.09</ele>
  <time>2026-08-28T19:07:11Z</time>
  <course>266.03</course>
  <speed>0.0</speed>
  <fix>3d</fix>
</trkpt>
<trkpt lat="40.072842" lon="-105.230575">
  <ele>1586.09</ele>
  <time>2026-08-28T19:07:11Z</time>
  <course>11.56</course>
  <speed>0.03605551275463989</speed>
  <fix>3d</fix>
</trkpt>
<trkpt lat="40.072842" lon="-105.230575">
  <ele>1586.09</ele>
  <time>2026-08-28T19:07:11Z</time>
  <course>266.03</course>
  <speed>0.0</speed>
  <fix>3d</fix>
</trkpt>
<trkpt lat="40.072842" lon="-105.230575">
  <ele>1586.09</ele>
  <time>2026-08-28T19:07:11Z</time>
  <course>11.56</course>
  <speed>0.03605551275463989</speed>
  <fix>3d</fix>
</trkpt>
<trkpt lat="40.072842" lon="-105.230575">
  <ele>1586.09</ele>
  <time>2026-08-28T19:07:11Z</time>
  <course>266.03</course>
  <speed>0.0</speed>
  <fix>3d</fix>
</trkpt>
<trkpt lat="40.072842" lon="-105.230575">
  <ele>1586.09</ele>
  <time>2026-08-28T19:07:11Z</time>
  <course>11.55</course>
  <speed>0.03605551275463989</speed>
  <fix>3d</fix>
</trkpt>
<trkpt lat="40.072842" lon="-105.230575">
  <ele>1586.09</ele>
  <time>2026-08-28T19:07:11Z</time>
  <course>266.03</course>
  <speed>0.0</speed>
  <fix>3d</fix>
</trkpt>
<trkpt lat="40.072842" lon="-105.230575">
  <ele>1586.09</ele>
  <time>2026-08-28T19:07:11Z</time>
  <course>11.55</course>
  <speed>0.03605551275463989</speed>
  <fix>3d</fix>
</trkpt>
<trkpt lat="40.072842" lon="-105.230575">
  <ele>1586.09</ele>
  <time>2026-08-28T19:07:11Z</time>
  <course>266.03</course>
  <speed>0.0</speed>
  <fix>3d</fix>
</trkpt>
<trkpt lat="40.072842" lon="-105.230575">
  <ele>1586.09</ele>
  <time>2026-08-28T19:07:11Z</time>
  <course>11.54</course>
  <speed>0.03605551275463989</speed>
  <fix>3d</fix>
</trkpt>
<trkpt lat="40.072842" lon="-105.230575">
  <ele>1586.09</ele>
  <time>2026-08-28T19:07:11Z</time>
  <course>266.03</course>
  <speed>0.0</speed>
  <fix>3d</fix>
</trkpt>
<trkpt lat="40.072842" lon="-105.230575">
  <ele>1586.09</ele>
  <time>2026-08-28T19:07:11Z</time>
  <course>11.53</course>
  <speed>0.03605551275463989</speed>
  <fix>3d</fix>
</trkpt>
<trkpt lat="40.072842" lon="-105.230575">
  <ele>1586.09</ele>
  <time>2026-08-28T19:07:11Z</time>
  <course>266.03</course>
  <speed>0.0</speed>
  <fix>3d</fix>
</trkpt>
<trkpt lat="39.654938" lon="-104.1331666">
  <ele>1569.54</ele>
  <time>2026-08-28T19:07:11Z</time>
  <course>168.11</course>
  <speed>0.0</speed>
  <fix>3d</fix>
</trkpt>
<trkpt lat="40.072842" lon="-105.230575">
  <ele>1586.09</ele>
  <time>2026-08-28T19:07:11Z</time>
  <course>2.03</course>
  <speed>0.0</speed>
  <fix>3d</fix>
</trkpt>
<trkpt lat="40.072842" lon="-105.230575">
  <ele>1586.09</ele>
  <time>2026-08-28T19:07:11Z</time>
  <course>238.4</course>
  <speed>0.0</speed>
  <fix>3d</fix>
</trkpt>
<trkpt lat="40.072842" lon="-105.230575">
  <ele>1586.09</ele>
  <time>2026-08-28T19:07:11Z</time>
  <course>2.39</course>
  <speed>0.0</speed>
  <fix>3d</fix>
</trkpt>
<trkpt lat="40.072842" lon="-105.230575">
  <ele>1586.09</ele>
  <time>2026-08-28T19:07:11Z</time>
  <course>194.29</course>
  <speed>0.0</speed>
  <fix>3d</fix>
</trkpt>
<trkpt lat="40.072842" lon="-105.230575">
  <ele>1586.09</ele>
  <time>2026-08-28T19:07:11Z</time>
  <course>3.12</course>
  <speed>0.0</speed>
  <fix>3d</fix>
</trkpt>
<trkpt lat="40.072842" lon="-105.230575">
  <ele>1586.09</ele>
  <time>2026-08-28T19:07:11Z</time>
  <course>193.66</course>
  <speed>0.0</speed>
  <fix>3d</fix>
</trkpt>
<trkpt lat="40.072842" lon="-105.230575">
  <ele>1586.09</ele>
  <time>2026-08-28T19:07:11Z</time>
  <course>3.81</course>
  <speed>0.0</speed>
  <fix>3d</fix>
</trkpt>
<trkpt lat="40.072842" lon="-105.230575">
  <ele>1586.09</ele>
  <time>2026-08-28T19:07:11Z</time>
  <course>303.54</course>
  <speed>0.0</speed>
  <fix>3d</fix>
</trkpt>
<trkpt lat="40.072842" lon="-105.230575">
  <ele>1586.09</ele>
  <time>2026-08-28T19:07:11Z</time>
  <course>4.44</course>
  <speed>0.0</speed>
  <fix>3d</fix>
</trkpt>
<trkpt lat="40.072842" lon="-105.230575">
  <ele>1586.09</ele>
  <time>2026-08-28T19:07:11Z</time>
  <course>110.94</course>
  <speed>0.0</speed>
  <fix>3d</fix>
</trkpt>
<trkpt lat="40.072842" lon="-105.230575">
  <ele>1586.09</ele>
  <time>2026-08-28T19:07:11Z</time>
  <course>5.03</course>
  <speed>0.0</speed>
  <fix>3d</fix>
</trkpt>
<trkpt lat="40.072842" lon="-105.230575">
  <ele>1586.09</ele>
  <time>2026-08-28T19:07:11Z</time>
  <course>191.21</course>
  <speed>0.0</speed>
  <fix>3d</fix>
</trkpt>
<trkpt lat="40.072842" lon="-105.230575">
  <ele>1586.09</ele>
  <time>2026-08-28T19:07:11Z</time>
  <course>5.59</course>
  <speed>0.0</speed>
  <fix>3d</fix>
</trkpt>
<trkpt lat="40.072842" lon="-105.230575">
  <ele>1586.09</ele>
  <time>2026-08-28T19:07:11Z</time>
  <course>252.23</course>
  <speed>0.0</speed>
  <fix>3d</fix>
</trkpt>
<trkpt lat="40.072842" lon="-105.230575">
  <ele>1586.09</ele>
  <time>2026-08-28T19:07:11Z</time>
  <course>6.12</course>
  <speed>0.0</speed>
  <fix>3d</fix>
</trkpt>
<trkpt lat="40.072842" lon="-105.230575">
  <ele>1586.09</ele>
  <time>2026-08-28T19:07:11Z</time>
  <course>170.36</course>
  <speed>0.0</speed>
  <fix>3d</fix>
</trkpt>
<trkpt lat="40.072842" lon="-105.230575">
  <ele>1586.09</ele>
  <time>2026-08-28T19:07:11Z</time>
  <course>6.62</course>
  <speed>0.0</speed>
  <fix>3d</fix>
</trkpt>
<trkpt lat="40.072842" lon="-105.230575">
  <ele>1586.09</ele>
  <time>2026-08-28T19:07:11Z</time>
  <course>179.36</course>
  <speed>0.0</speed>
  <fix>3d</fix>
</trkpt>
<trkpt lat="40.072842" lon="-105.230575">
  <ele>1586.09</ele>
  <time>2026-08-28T19:07:11Z</time>
  <course>7.08</course>
  <speed>0.0</speed>
  <fix>3d</fix>
</trkpt>
<trkpt lat="40.072842" lon="-105.230575">
  <ele>1586.09</ele>
  <time>2026-08-28T19:07:11Z</time>
  <course>19.98</course>
  <speed>0.0</speed>
  <fix>3d</fix>
</trkpt>
<trkpt lat="40.072842" lon="-105.230575">
  <ele>1586.09</ele>
  <time>2026-08-28T19:07:11Z</time>
  <course>7.51</course>
  <speed>0.0</speed>
  <fix>3d</fix>
</trkpt>
<trkpt lat="40.072842" lon="-105.230575">
  <ele>1586.09</ele>
  <time>2026-08-28T19:07:11Z</time>
  <course>17.49</course>
  <speed>0.0</speed>
  <fix>3d</fix>
</trkpt>
<trkpt lat="40.072842" lon="-105.230575">
  <ele>1586.09</ele>
  <time>2026-08-28T19:07:11Z</time>
  <course>7.9</course>
  <speed>0.0</speed>
  <fix>3d</fix>
</trkpt>
<trkpt lat="40.072842" lon="-105.230575">
  <ele>1586.09</ele>
  <time>2026-08-28T19:07:11Z</time>
  <course>356.19</course>
  <speed>0.0</speed>
  <fix>3d</fix>
</trkpt>
<trkpt lat="40.072842" lon="-105.230575">
  <ele>1586.09</ele>
  <time>2026-08-28T19:07:11Z</time>
  <course>8.27</course>
  <speed>0.0</speed>
  <fix>3d</fix>
</trkpt>
<trkpt lat="40.072842" lon="-105.230575">
  <ele>1586.09</ele>
  <time>2026-08-28T19:07:11Z</time>
  <course>77.32</course>
  <speed>0.0</speed>
  <fix>3d</fix>
</trkpt>
<trkpt lat="40.072842" lon="-105.230575">
  <ele>1586.09</ele>
  <time>2026-08-28T19:07:11Z</time>
  <course>8.61</course>
  <speed>0.0</speed>
  <fix>3d</fix>
</trkpt>
<trkpt lat="40.072842" lon="-105.230575">
  <ele>1586.09</ele>
  <time>2026-08-28T19:07:11Z</time>
  <course>290.54</course>
  <speed>0.0</speed>
  <fix>3d</fix>
</trkpt>
<trkpt lat="40.072842" lon="-105.230575">
  <ele>1586.09</ele>
  <time>2026-08-28T19:07:11Z</time>
  <course>8.92</course>
  <speed>0.0</speed>
  <fix>3d</fix>
</trkpt>
<trkpt lat="40.072842" lon="-105.230575">
  <ele>1586.09</ele>
  <time>2026-08-28T19:07:11Z</time>
  <course>338.69</course>
  <speed>0.0</speed>
  <fix>3d</fix>
</trkpt>
<trkpt lat="40.072842" lon="-105.230575">
  <ele>1586.09</ele>
  <time>2026-08-28T19:07:11Z</time>
  <course>9.21</course>
  <speed>0.0</speed>
  <fix>3d</fix>
</trkpt>
<trkpt lat="40.072842" lon="-105.230575">
  <ele>1586.09</ele>
  <time>2026-08-28T19:07:11Z</time>
  <course>326.81</course>
  <speed>0.0</speed>
  <fix>3d</fix>
</trkpt>
<trkpt lat="40.072842" lon="-105.230575">
  <ele>1586.09</ele>
  <time>2026-08-28T19:07:11Z</time>
  <course>9.47</course>
  <speed>0.0</speed>
  <fix>3d</fix>
</trkpt>
<trkpt lat="40.072842" lon="-105.230575">
  <ele>1586.09</ele>
  <time>2026-08-28T19:07:11Z</time>
  <course>262.23</course>
  <speed>0.0</speed>
  <fix>3d</fix>
</trkpt>
<trkpt lat="40.072842" lon="-105.230575">
  <ele>1586.09</ele>
  <time>2026-08-28T19:07:11Z</time>
  <course>9.72</course>
  <speed>0.0</speed>
  <fix>3d</fix>
</trkpt>
<trkpt lat="40.072842" lon="-105.230575">
  <ele>1586.09</ele>
  <time>2026-08-28T19:07:11Z</time>
  <course>159.08</course>
  <speed>0.0</speed>
  <fix>3d</fix>
</trkpt>
<trkpt lat="40.072842" lon="-105.230575">
  <ele>1586.09</ele>
  <time>2026-08-28T19:07:11Z</time>
  <course>9.94</course>
  <speed>0.0</speed>
  <fix>3d</fix>
</trkpt>
<trkpt lat="40.072842" lon="-105.230575">
  <ele>1586.09</ele>
  <time>2026-08-28T19:07:11Z</time>
  <course>287.98</course>
  <speed>0.0</speed>
  <fix>3d</fix>
</trkpt>
<trkpt lat="40.072842" lon="-105.230575">
  <ele>1586.09</ele>
  <time>2026-08-28T19:07:12Z</time>
  <course>10.15</course>
  <speed>0.0</speed>
  <fix>3d</fix>
</trkpt>
<trkpt lat="40.072842" lon="-105.230575">
  <ele>1586.09</ele>
  <time>2026-08-28T19:07:12Z</time>
  <course>278.3</course>
  <speed>0.0</speed>
  <fix>3d</fix>
</trkpt>
<trkpt lat="40.072842" lon="-105.230575">
  <ele>1586.09</ele>
  <time>2026-08-28T19:07:12Z</time>
  <course>10.34</course>
  <speed>0.0</speed>
  <fix>3d</fix>
</trkpt>
<trkpt lat="40.072842" lon="-105.230575">
  <ele>1586.09</ele>
  <time>2026-08-28T19:07:12Z</time>
  <course>261.72</course>
  <speed>0.0</speed>
  <fix>3d</fix>
</trkpt>
<trkpt lat="40.072842" lon="-105.230575">
  <ele>1586.09</ele>
  <time>2026-08-28T19:07:12Z</time>
  <course>10.51</course>
  <speed>0.0</speed>
  <fix>3d</fix>
</trkpt>
<trkpt lat="40.072842" lon="-105.230575">
  <ele>1586.09</ele>
  <time>2026-08-28T19:07:12Z</time>
  <course>264.4</course>
  <speed>0.0</speed>
  <fix>3d</fix>
</trkpt>
<trkpt lat="40.072842" lon="-105.230575">
  <ele>1586.09</ele>
  <time>2026-08-28T19:07:12Z</time>
  <course>10.67</course>
  <speed>0.0</speed>
  <fix>3d</fix>
</trkpt>
<trkpt lat="40.072842" lon="-105.230575">
  <ele>1586.09</ele>
  <time>2026-08-28T19:07:12Z</time>
  <course>266.8</course>
  <speed>0.0</speed>
  <fix>3d</fix>
</trkpt>
<trkpt lat="40.072842" lon="-105.230575">
  <ele>1586.09</ele>
  <time>2026-08-28T19:07:12Z</time>
  <course>10.81</course>
  <speed>0.0</speed>
  <fix>3d</fix>
</trkpt>
<trkpt lat="40.072842" lon="-105.230575">
  <ele>1586.09</ele>
  <time>2026-08-28T19:07:12Z</time>
  <course>266.15</course>
  <speed>0.0</speed>
  <fix>3d</fix>
</trkpt>
<trkpt lat="40.072842" lon="-105.230575">
  <ele>1586.09</ele>
  <time>2026-08-28T19:07:12Z</time>
  <course>10.94</course>
  <speed>0.0</speed>
  <fix>3d</fix>
</trkpt>
<trkpt lat="40.072842" lon="-105.230575">
  <ele>1586.09</ele>
  <time>2026-08-28T19:07:12Z</time>
  <course>265.92</course>
  <speed>0.0</speed>
  <fix>3d</fix>
</trkpt>
<trkpt lat="40.072842" lon="-105.230575">
  <ele>1586.09</ele>
  <time>2026-08-28T19:07:12Z</time>
  <course>11.06</course>
  <speed>0.0</speed>
  <fix>3d</fix>
</trkpt>
<trkpt lat="40.072842" lon="-105.230575">
  <ele>1586.09</ele>
  <time>2026-08-28T19:07:12Z</time>
  <course>266.03</course>
  <speed>0.0</speed>
  <fix>3d</fix>
</trkpt>
<trkpt lat="40.072842" lon="-105.230575">
  <ele>1586.09</ele>
  <time>2026-08-28T19:07:12Z</time>
  <course>11.18</course>
  <speed>0.0</speed>
  <fix>3d</fix>
</trkpt>
<trkpt lat="40.072842" lon="-105.230575">
  <ele>1586.09</ele>
  <time>2026-08-28T19:07:12Z</time>
  <course>266.05</course>
  <speed>0.0</speed>
  <fix>3d</fix>
</trkpt>
<trkpt lat="40.072842" lon="-105.230575">
  <ele>1586.09</ele>
  <time>2026-08-28T19:07:12Z</time>
  <course>11.28</course>
  <speed>0.0</speed>
  <fix>3d</fix>
</trkpt>
<trkpt lat="40.072842" lon="-105.230575">
  <ele>1586.09</ele>
  <time>2026-08-28T19:07:12Z</time>
  <course>266.03</course>
  <speed>0.0</speed>
  <fix>3d</fix>
</trkpt>
<trkpt lat="40.072842" lon="-105.230575">
  <ele>1586.09</ele>
  <time>2026-08-28T19:07:12Z</time>
  <course>11.37</course>
  <speed>0.0</speed>
  <fix>3d</fix>
</trkpt>
<trkpt lat="40.072842" lon="-105.230575">
  <ele>1586.09</ele>
  <time>2026-08-28T19:07:12Z</time>
  <course>266.03</course>
  <speed>0.0</speed>
  <fix>3d</fix>
</trkpt>
<trkpt lat="40.072842" lon="-105.230575">
  <ele>1586.09</ele>
  <time>2026-08-28T19:07:12Z</time>
  <course>11.45</course>
  <speed>0.0</speed>
  <fix>3d</fix>
</trkpt>
<trkpt lat="40.072842" lon="-105.230575">
  <ele>1586.09</ele>
  <time>2026-08-28T19:07:12Z</time>
  <course>266.03</course>
  <speed>0.0</speed>
  <fix>3d</fix>
</trkpt>
<trkpt lat="40.072842" lon="-105.230575">
  <ele>1586.09</ele>
  <time>2026-08-28T19:07:12Z</time>
  <course>11.52</course>
  <speed>0.0</speed>
  <fix>3d</fix>
</trkpt>
<trkpt lat="40.072842" lon="-105.230575">
  <ele>1586.09</ele>
  <time>2026-08-28T19:07:12Z</time>
  <course>266.03</course>
  <speed>0.0</speed>
  <fix>3d</fix>
</trkpt>
<trkpt lat="40.072842" lon="-105.230575">
  <ele>1586.09</ele>
  <time>2026-08-28T19:07:12Z</time>
  <course>11.59</course>
  <speed>0.0</speed>
  <fix>3d</fix>
</trkpt>
<trkpt lat="40.072842" lon="-105.230575">
  <ele>1586.09</ele>
  <time>2026-08-28T19:07:12Z</time>
  <course>266.03</course>
  <speed>0.0</speed>
  <fix>3d</fix>
</trkpt>
<trkpt lat="40.072842" lon="-105.230575">
  <ele>1586.09</ele>
  <time>2026-08-28T19:07:12Z</time>
  <course>11.65</course>
  <speed>0.0</speed>
  <fix>3d</fix>
</trkpt>
<trkpt lat="40.072842" lon="-105.230575">
  <ele>1586.09</ele>
  <time>2026-08-28T19:07:12Z</time>
  <course>266.03</course>
  <speed>0.0</speed>
  <fix>3d</fix>
</trkpt>
<trkpt lat="40.072842" lon="-105.230575">
  <ele>1586.09</ele>
  <time>2026-08-28T19:07:12Z</time>
  <course>11.71</course>
  <speed>0.0</speed>
  <fix>3d</fix>
</trkpt>
<trkpt lat="40.072842" lon="-105.230575">
  <ele>1586.09</ele>
  <time>2026-08-28T19:07:12Z</time>
  <course>266.03</course>
  <speed>0.0</speed>
  <fix>3d</fix>
</trkpt>
<trkpt lat="40.072842" lon="-105.230575">
  <ele>1586.09</ele>
  <time>2026-08-28T19:07:12Z</time>
  <course>11.76</course>
  <speed>0.0</speed>
  <fix>3d</fix>
</trkpt>
<trkpt lat="40.072842" lon="-105.230575">
  <ele>1586.09</ele>
  <time>2026-08-28T19:07:12Z</time>
  <course>266.03</course>
  <speed>0.0</speed>
  <fix>3d</fix>
</trkpt>
<trkpt lat="40.072842" lon="-105.230575">
  <ele>1586.09</ele>
  <time>2026-08-28T19:07:12Z</time>
  <course>11.81</course>
  <speed>0.0</speed>
  <fix>3d</fix>
</trkpt>
<trkpt lat="40.072842" lon="-105.230575">
  <ele>1586.09</ele>
  <time>2026-08-28T19:07:12Z</time>
  <course>266.03</course>
  <speed>0.0</speed>
  <fix>3d</fix>
</trkpt>
<trkpt lat="40.072842" lon="-105.230575">
  <ele>1586.09</ele>
  <time>2026-08-28T19:07:12Z</time>
  <course>11.85</course>
  <speed>0.0</speed>
  <fix>3d</fix>
</trkpt>
<trkpt lat="40.072842" lon="-105.230575">
  <ele>1586.09</ele>
  <time>2026-08-28T19:07:12Z</time>
  <course>266.03</course>
  <speed>0.0</speed>
  <fix>3d</fix>
</trkpt>
<trkpt lat="40.072842" lon="-105.230575">
  <ele>1586.09</ele>
  <time>2026-08-28T19:07:12Z</time>
  <course>11.88</course>
  <speed>0.0</speed>
  <fix>3d</fix>
</trkpt>
<trkpt lat="40.072842" lon="-105.230575">
  <ele>1586.09</ele>
  <time>2026-08-28T19:07:12Z</time>
  <course>266.03</course>
  <speed>0.0</speed>
  <fix>3d</fix>
</trkpt>
<trkpt lat="40.072842" lon="-105.230575">
  <ele>1586.09</ele>
  <time>2026-08-28T19:07:12Z</time>
  <course>11.92</course>
  <speed>0.0</speed>
  <fix>3d</fix>
</trkpt>
<trkpt lat="40.072842" lon="-105.230575">
  <ele>1586.09</ele>
  <time>2026-08-28T19:07:12Z</time>
  <course>266.03</course>
  <speed>0.0</speed>
  <fix>3d</fix>
</trkpt>
<trkpt lat="40.072842" lon="-105.230575">
  <ele>1586.09</ele>
  <time>2026-08-28T19:07:12Z</time>
  <course>11.95</course>
  <speed>0.0</speed>
  <fix>3d</fix>
</trkpt>
<trkpt lat="40.072842" lon="-105.230575">
  <ele>1586.09</ele>
  <time>2026-08-28T19:07:12Z</time>
  <course>266.03</course>
  <speed>0.0</speed>
  <fix>3d</fix>
</trkpt>
<trkpt lat="40.072842" lon="-105.230575">
  <ele>1586.09</ele>
  <time>2026-08-28T19:07:12Z</time>
  <course>11.97</course>
  <speed>0.0</speed>
  <fix>3d</fix>
</trkpt>
<trkpt lat="40.072842" lon="-105.230575">
  <ele>1586.09</ele>
  <time>2026-08-28T19:07:12Z</time>
  <course>266.03</course>
  <speed>0.0</speed>
  <fix>3d</fix>
</trkpt>
<trkpt lat="40.072842" lon="-105.230575">
  <ele>1586.09</ele>
  <time>2026-08-28T19:07:12Z</time>
  <course>12.0</course>
  <speed>0.0</speed>
  <fix>3d</fix>
</trkpt>
<trkpt lat="40.072842" lon="-105.230575">
  <ele>1586.09</ele>
  <time>2026-08-28T19:07:12Z</time>
  <course>266.03</course>
  <speed>0.0</speed>
  <fix>3d</fix>
</trkpt>
<trkpt lat="40.072842" lon="-105.230575">
  <ele>1586.09</ele>
  <time>2026-08-28T19:07:12Z</time>
  <course>12.02</course>
  <speed>0.0</speed>
  <fix>3d</fix>
</trkpt>
<trkpt lat="40.072842" lon="-105.230575">
  <ele>1586.09</ele>
  <time>2026-08-28T19:07:12Z</time>
  <course>266.03</course>
  <speed>0.0</speed>
  <fix>3d</fix>
</trkpt>
<trkpt lat="40.072842" lon="-105.230575">
  <ele>1586.09</ele>
  <time>2026-08-28T19:07:12Z</time>
  <course>12.04</course>
  <speed>0.0</speed>
  <fix>3d</fix>
</trkpt>
<trkpt lat="40.072842" lon="-105.230575">
  <ele>1586.09</ele>
  <time>2026-08-28T19:07:12Z</time>
  <course>266.03</course>
  <speed>0.0</speed>
  <fix>3d</fix>
</trkpt>
<trkpt lat="40.072842" lon="-105.230575">
  <ele>1586.09</ele>
  <time>2026-08-28T19:07:12Z</time>
  <course>12.05</course>
  <speed>0.0</speed>
  <fix>3d</fix>
</trkpt>
<trkpt lat="40.072842" lon="-105.230575">
  <ele>1586.09</ele>
  <time>2026-08-28T19:07:12Z</time>
  <course>266.03</course>
  <speed>0.0</speed>
  <fix>3d</fix>
</trkpt>
<trkpt lat="40.072842" lon="-105.230575">
  <ele>1586.09</ele>
  <time>2026-08-28T19:07:12Z</time>
  <course>12.07</course>
  <speed>0.0</speed>
  <fix>3d</fix>
</trkpt>
<trkpt lat="40.072842" lon="-105.230575">
  <ele>1586.09</ele>
  <time>2026-08-28T19:07:12Z</time>
  <course>266.03</course>
  <speed>0.0</speed>
  <fix>3d</fix>
</trkpt>
<trkpt lat="40.072842" lon="-105.230575">
  <ele>1586.09</ele>
  <time>2026-08-28T19:07:12Z</time>
  <course>12.08</course>
  <speed>0.0</speed>
  <fix>3d</fix>
</trkpt>
<trkpt lat="40.072842" lon="-105.230575">
  <ele>1586.09</ele>
  <time>2026-08-28T19:07:12Z</time>
  <course>266.03</course>
  <speed>0.0</speed>
  <fix>3d</fix>
</trkpt>
<trkpt lat="40.072842" lon="-105.230575">
  <ele>1586.09</ele>
  <time>2026-08-28T19:07:12Z</time>
  <course>12.09</course>
  <speed>0.0</speed>
  <fix>3d</fix>
</trkpt>
<trkpt lat="40.072842" lon="-105.230575">
  <ele>1586.09</ele>
  <time>2026-08-28T19:07:12Z</time>
  <course>266.03</course>
  <speed>0.0</speed>
  <fix>3d</fix>
</trkpt>
<trkpt lat="40.072842" lon="-105.230575">
  <ele>1586.09</ele>
  <time>2026-08-28T19:07:12Z</time>
  <course>12.09</course>
  <speed>0.0</speed>
  <fix>3d</fix>
</trkpt>
<trkpt lat="40.072842" lon="-105.230575">
  <ele>1586.09</ele>
  <time>2026-08-28T19:07:12Z</time>
  <course>266.03</course>
  <speed>0.0</speed>
  <fix>3d</fix>
</trkpt>
<trkpt lat="40.072842" lon="-105.230575">
  <ele>1586.09</ele>
  <time>2026-08-28T19:07:12Z</time>
  <course>12.1</course>
  <speed>0.0</speed>
  <fix>3d</fix>
</trkpt>
<trkpt lat="40.072842" lon="-105.230575">
  <ele>1586.09</ele>
  <time>2026-08-28T19:07:12Z</time>
  <course>266.03</course>
  <speed>0.0</speed>
  <fix>3d</fix>
</trkpt>
<trkpt lat="40.072842" lon="-105.230575">
  <ele>1586.09</ele>
  <time>2026-08-28T19:07:12Z</time>
  <course>12.11</course>
  <speed>0.0</speed>
  <fix>3d</fix>
</trkpt>
<trkpt lat="40.072842" lon="-105.230575">
  <ele>1586.09</ele>
  <time>2026-08-28T19:07:12Z</time>
  <course>266.03</course>
  <speed>0.0</speed>
  <fix>3d</fix>
</trkpt>
<trkpt lat="40.072842" lon="-105.230575">
  <ele>1586.09</ele>
  <time>2026-08-28T19:07:12Z</time>
  <course>12.12</course>
  <speed>0.0</speed>
  <fix>3d</fix>
</trkpt>
<trkpt lat="40.072842" lon="-105.230575">
  <ele>1586.09</ele>
  <time>2026-08-28T19:07:12Z</time>
  <course>266.03</course>
  <speed>0.0</speed>
  <fix>3d</fix>
</trkpt>
<trkpt lat="40.072842" lon="-105.230575">
  <ele>1586.09</ele>
  <time>2026-08-28T19:07:12Z</time>
  <course>12.12</course>
  <speed>0.0</speed>
  <fix>3d</fix>
</trkpt>
<trkpt lat="40.072842" lon="-105.230575">
  <ele>1586.09</ele>
  <time>2026-08-28T19:07:12Z</time>
  <course>266.03</course>
  <speed>0.0</speed>
  <fix>3d</fix>
</trkpt>
<trkpt lat="40.072842" lon="-105.230575">
  <ele>1586.09</ele>
  <time>2026-08-28T19:07:12Z</time>
  <course>12.12</course>
  <speed>0.0</speed>
  <fix>3d</fix>
</trkpt>
<trkpt lat="40.072842" lon="-105.230575">
  <ele>1586.09</ele>
  <time>2026-08-28T19:07:12Z</time>
  <course>266.03</course>
  <speed>0.0</speed>
  <fix>3d</fix>
</trkpt>
<trkpt lat="40.072842" lon="-105.230575">
  <ele>1586.09</ele>
  <time>2026-08-28T19:07:12Z</time>
  <course>12.13</course>
  <speed>0.0</speed>
  <fix>3d</fix>
</trkpt>
<trkpt lat="40.072842" lon="-105.230575">
  <ele>1586.09</ele>
  <time>2026-08-28T19:07:12Z</time>
  <course>266.03</course>
  <speed>0.0</speed>
  <fix>3d</fix>
</trkpt>
<trkpt lat="40.072842" lon="-105.230575">
  <ele>1586.09</ele>
  <time>2026-08-28T19:07:12Z</time>
  <course>12.13</course>
  <speed>0.0</speed>
  <fix>3d</fix>
</trkpt>
<trkpt lat="40.072842" lon="-105.230575">
  <ele>1586.09</ele>
  <time>2026-08-28T19:07:12Z</time>
  <course>266.03</course>
  <speed>0.0</speed>
  <fix>3d</fix>
</trkpt>
<trkpt lat="40.072842" lon="-105.230575">
  <ele>1586.09</ele>
  <time>2026-08-28T19:07:12Z</time>
  <course>12.13</course>
  <speed>0.0</speed>
  <fix>3d</fix>
</trkpt>
<trkpt lat="40.072842" lon="-105.230575">
  <ele>1586.09</ele>
  <time>2026-08-28T19:07:12Z</time>
  <course>266.03</course>
  <speed>0.0</speed>
  <fix>3d</fix>
</trkpt>
<trkpt lat="40.072842" lon="-105.230575">
  <ele>1586.09</ele>
  <time>2026-08-28T19:07:12Z</time>
  <course>12.12</course>
  <speed>0.01</speed>
  <fix>3d</fix>
</trkpt>
<trkpt lat="40.072842" lon="-105.230575">
  <ele>1586.09</ele>
  <time>2026-08-28T19:07:12Z</time>
  <course>266.03</course>
  <speed>0.0</speed>
  <fix>3d</fix>
</trkpt>
<trkpt lat="40.072842" lon="-105.230575">
  <ele>1586.09</ele>
  <time>2026-08-28T19:07:12Z</time>
  <course>12.12</course>
  <speed>0.01</speed>
  <fix>3d</fix>
</trkpt>
<trkpt lat="40.072842" lon="-105.230575">
  <ele>1586.09</ele>
  <time>2026-08-28T19:07:12Z</time>
  <course>266.03</course>
  <speed>0.0</speed>
  <fix>3d</fix>
</trkpt>
<trkpt lat="40.072842" lon="-105.230575">
  <ele>1586.09</ele>
  <time>2026-08-28T19:07:12Z</time>
  <course>12.12</course>
  <speed>0.01</speed>
  <fix>3d</fix>
</trkpt>
<trkpt lat="40.072842" lon="-105.230575">
  <ele>1586.09</ele>
  <time>2026-08-28T19:07:12Z</time>
  <course>266.03</course>
  <speed>0.0</speed>
  <fix>3d</fix>
</trkpt>
<trkpt lat="40.072842" lon="-105.230575">
  <ele>1586.09</ele>
  <time>2026-08-28T19:07:12Z</time>
  <course>12.12</course>
  <speed>0.01</speed>
  <fix>3d</fix>
</trkpt>
<trkpt lat="40.072842" lon="-105.230575">
  <ele>1586.09</ele>
  <time>2026-08-28T19:07:12Z</time>
  <course>266.03</course>
  <speed>0.0</speed>
  <fix>3d</fix>
</trkpt>
<trkpt lat="40.072842" lon="-105.230575">
  <ele>1586.09</ele>
  <time>2026-08-28T19:07:12Z</time>
  <course>12.11</course>
  <speed>0.01</speed>
  <fix>3d</fix>
</trkpt>
<trkpt lat="40.072842" lon="-105.230575">
  <ele>1586.09</ele>
  <time>2026-08-28T19:07:12Z</time>
  <course>266.03</course>
  <speed>0.0</speed>
  <fix>3d</fix>
</trkpt>
<trkpt lat="40.072842" lon="-105.230575">
  <ele>1586.09</ele>
  <time>2026-08-28T19:07:12Z</time>
  <course>12.11</course>
  <speed>0.01</speed>
  <fix>3d</fix>
</trkpt>
<trkpt lat="40.072842" lon="-105.230575">
  <ele>1586.09</ele>
  <time>2026-08-28T19:07:12Z</time>
  <course>266.03</course>
  <speed>0.0</speed>
  <fix>3d</fix>
</trkpt>
<trkpt lat="40.072842" lon="-105.230575">
  <ele>1586.09</ele>
  <time>2026-08-28T19:07:12Z</time>
  <course>12.1</course>
  <speed>0.01</speed>
  <fix>3d</fix>
</trkpt>
<trkpt lat="40.072842" lon="-105.230575">
  <ele>1586.09</ele>
  <time>2026-08-28T19:07:12Z</time>
  <course>266.03</course>
  <speed>0.0</speed>
  <fix>3d</fix>
</trkpt>
<trkpt lat="40.072842" lon="-105.230575">
  <ele>1586.09</ele>
  <time>2026-08-28T19:07:12Z</time>
  <course>12.1</course>
  <speed>0.01</speed>
  <fix>3d</fix>
</trkpt>
<trkpt lat="40.072842" lon="-105.230575">
  <ele>1586.09</ele>
  <time>2026-08-28T19:07:12Z</time>
  <course>266.03</course>
  <speed>0.0</speed>
  <fix>3d</fix>
</trkpt>
<trkpt lat="40.072842" lon="-105.230575">
  <ele>1586.09</ele>
  <time>2026-08-28T19:07:12Z</time>
  <course>12.09</course>
  <speed>0.01</speed>
  <fix>3d</fix>
</trkpt>
<trkpt lat="40.072842" lon="-105.230575">
  <ele>1586.09</ele>
  <time>2026-08-28T19:07:12Z</time>
  <course>266.03</course>
  <speed>0.0</speed>
  <fix>3d</fix>
</trkpt>
<trkpt lat="40.072842" lon="-105.230575">
  <ele>1586.09</ele>
  <time>2026-08-28T19:07:12Z</time>
  <course>12.09</course>
  <speed>0.01</speed>
  <fix>3d</fix>
</trkpt>
<trkpt lat="40.072842" lon="-105.230575">
  <ele>1586.09</ele>
  <time>2026-08-28T19:07:12Z</time>
  <course>266.03</course>
  <speed>0.0</speed>
  <fix>3d</fix>
</trkpt>
<trkpt lat="40.072842" lon="-105.230575">
  <ele>1586.09</ele>
  <time>2026-08-28T19:07:12Z</time>
  <course>12.08</course>
  <speed>0.01</speed>
  <fix>3d</fix>
</trkpt>
<trkpt lat="40.072842" lon="-105.230575">
  <ele>1586.09</ele>
  <time>2026-08-28T19:07:12Z</time>
  <course>266.03</course>
  <speed>0.0</speed>
  <fix>3d</fix>
</trkpt>
<trkpt lat="40.072842" lon="-105.230575">
  <ele>1586.09</ele>
  <time>2026-08-28T19:07:12Z</time>
  <course>12.08</course>
  <speed>0.01414213562373095</speed>
  <fix>3d</fix>
</trkpt>
<trkpt lat="40.072842" lon="-105.230575">
  <ele>1586.09</ele>
  <time>2026-08-28T19:07:12Z</time>
  <course>266.03</course>
  <speed>0.0</speed>
  <fix>3d</fix>
</trkpt>
<trkpt lat="40.072842" lon="-105.230575">
  <ele>1586.09</ele>
  <time>2026-08-28T19:07:12Z</time>
  <course>12.07</course>
  <speed>0.01414213562373095</speed>
  <fix>3d</fix>
</trkpt>
<trkpt lat="40.072842" lon="-105.230575">
  <ele>1586.09</ele>
  <time>2026-08-28T19:07:12Z</time>
  <course>266.03</course>
  <speed>0.0</speed>
  <fix>3d</fix>
</trkpt>
<trkpt lat="40.072842" lon="-105.230575">
  <ele>1586.09</ele>
  <time>2026-08-28T19:07:12Z</time>
  <course>12.06</course>
  <speed>0.01414213562373095</speed>
  <fix>3d</fix>
</trkpt>
<trkpt lat="40.072842" lon="-105.230575">
  <ele>1586.09</ele>
  <time>2026-08-28T19:07:12Z</time>
  <course>266.03</course>
  <speed>0.0</speed>
  <fix>3d</fix>
</trkpt>
<trkpt lat="40.072842" lon="-105.230575">
  <ele>1586.09</ele>
  <time>2026-08-28T19:07:12Z</time>
  <course>12.05</course>
  <speed>0.01414213562373095</speed>
  <fix>3d</fix>
</trkpt>
<trkpt lat="40.072842" lon="-105.230575">
  <ele>1586.09</ele>
  <time>2026-08-28T19:07:12Z</time>
  <course>266.03</course>
  <speed>0.0</speed>
  <fix>3d</fix>
</trkpt>
<trkpt lat="40.072842" lon="-105.230575">
  <ele>1586.09</ele>
  <time>2026-08-28T19:07:12Z</time>
  <course>12.05</course>
  <speed>0.01414213562373095</speed>
  <fix>3d</fix>
</trkpt>
<trkpt lat="40.072842" lon="-105.230575">
  <ele>1586.09</ele>
  <time>2026-08-28T19:07:12Z</time>
  <course>266.03</course>
  <speed>0.0</speed>
  <fix>3d</fix>
</trkpt>
<trkpt lat="40.072842" lon="-105.230575">
  <ele>1586.09</ele>
  <time>2026-08-28T19:07:12Z</time>
  <course>12.04</course>
  <speed>0.01414213562373095</speed>
  <fix>3d</fix>
</trkpt>
<trkpt lat="40.072842" lon="-105.230575">
  <ele>1586.09</ele>
  <time>2026-08-28T19:07:12Z</time>
  <course>266.03</course>
  <speed>0.0</speed>
  <fix>3d</fix>
</trkpt>
<trkpt lat="40.072842" lon="-105.230575">
  <ele>1586.09</ele>
  <time>2026-08-28T19:07:12Z</time>
  <course>12.03</course>
  <speed>0.01414213562373095</speed>
  <fix>3d</fix>
</trkpt>
<trkpt lat="40.072842" lon="-105.230575">
  <ele>1586.09</ele>
  <time>2026-08-28T19:07:12Z</time>
  <course>266.03</course>
  <speed>0.0</speed>
  <fix>3d</fix>
</trkpt>
<trkpt lat="40.072842" lon="-105.230575">
  <ele>1586.09</ele>
  <time>2026-08-28T19:07:12Z</time>
  <course>12.03</course>
  <speed>0.01414213562373095</speed>
  <fix>3d</fix>
</trkpt>
<trkpt lat="40.072842" lon="-105.230575">
  <ele>1586.09</ele>
  <time>2026-08-28T19:07:12Z</time>
  <course>266.03</course>
  <speed>0.0</speed>
  <fix>3d</fix>
</trkpt>
<trkpt lat="40.072842" lon="-105.230575">
  <ele>1586.09</ele>
  <time>2026-08-28T19:07:12Z</time>
  <course>12.02</course>
  <speed>0.01414213562373095</speed>
  <fix>3d</fix>
</trkpt>
<trkpt lat="40.072842" lon="-105.230575">
  <ele>1586.09</ele>
  <time>2026-08-28T19:07:12Z</time>
  <course>266.03</course>
  <speed>0.0</speed>
  <fix>3d</fix>
</trkpt>
<trkpt lat="40.072842" lon="-105.230575">
  <ele>1586.09</ele>
  <time>2026-08-28T19:07:12Z</time>
  <course>12.01</course>
  <speed>0.01414213562373095</speed>
  <fix>3d</fix>
</trkpt>
<trkpt lat="40.072842" lon="-105.230575">
  <ele>1586.09</ele>
  <time>2026-08-28T19:07:12Z</time>
  <course>266.03</course>
  <speed>0.0</speed>
  <fix>3d</fix>
</trkpt>
<trkpt lat="40.072842" lon="-105.230575">
  <ele>1586.09</ele>
  <time>2026-08-28T19:07:12Z</time>
  <course>12.01</course>
  <speed>0.01414213562373095</speed>
  <fix>3d</fix>
</trkpt>
<trkpt lat="40.072842" lon="-105.230575">
  <ele>1586.09</ele>
  <time>2026-08-28T19:07:12Z</time>
  <course>266.03</course>
  <speed>0.0</speed>
  <fix>3d</fix>
</trkpt>
<trkpt lat="40.072842" lon="-105.230575">
  <ele>1586.09</ele>
  <time>2026-08-28T19:07:12Z</time>
  <course>12.0</course>
  <speed>0.01414213562373095</speed>
  <fix>3d</fix>
</trkpt>
<trkpt lat="40.072842" lon="-105.230575">
  <ele>1586.09</ele>
  <time>2026-08-28T19:07:12Z</time>
  <course>266.03</course>
  <speed>0.0</speed>
  <fix>3d</fix>
</trkpt>
<trkpt lat="40.072842" lon="-105.230575">
  <ele>1586.09</ele>
  <time>2026-08-28T19:07:12Z</time>
  <course>11.99</course>
  <speed>0.01414213562373095</speed>
  <fix>3d</fix>
</trkpt>
<trkpt lat="40.072842" lon="-105.230575">
  <ele>1586.09</ele>
  <time>2026-08-28T19:07:12Z</time>
  <course>266.03</course>
  <speed>0.0</speed>
  <fix>3d</fix>
</trkpt>
<trkpt lat="40.072842" lon="-105.230575">
  <ele>1586.09</ele>
  <time>2026-08-28T19:07:12Z</time>
  <course>11.98</course>
  <speed>0.01414213562373095</speed>
  <fix>3d</fix>
</trkpt>
<trkpt lat="40.072842" lon="-105.230575">
  <ele>1586.09</ele>
  <time>2026-08-28T19:07:12Z</time>
  <course>266.03</course>
  <speed>0.0</speed>
  <fix>3d</fix>
</trkpt>
<trkpt lat="40.072842" lon="-105.230575">
  <ele>1586.09</ele>
  <time>2026-08-28T19:07:12Z</time>
  <course>11.98</course>
  <speed>0.01414213562373095</speed>
  <fix>3d</fix>
</trkpt>
<trkpt lat="40.072842" lon="-105.230575">
  <ele>1586.09</ele>
  <time>2026-08-28T19:07:12Z</time>
  <course>266.03</course>
  <speed>0.0</speed>
  <fix>3d</fix>
</trkpt>
<trkpt lat="40.072842" lon="-105.230575">
  <ele>1586.09</ele>
  <time>2026-08-28T19:07:12Z</time>
  <course>11.97</course>
  <speed>0.022360679774997897</speed>
  <fix>3d</fix>
</trkpt>
<trkpt lat="40.072842" lon="-105.230575">
  <ele>1586.09</ele>
  <time>2026-08-28T19:07:12Z</time>
  <course>266.03</course>
  <speed>0.0</speed>
  <fix>3d</fix>
</trkpt>
<trkpt lat="40.072842" lon="-105.230575">
  <ele>1586.09</ele>
  <time>2026-08-28T19:07:12Z</time>
  <course>11.96</course>
  <speed>0.022360679774997897</speed>
  <fix>3d</fix>
</trkpt>
<trkpt lat="40.072842" lon="-105.230575">
  <ele>1586.09</ele>
  <time>2026-08-28T19:07:12Z</time>
  <course>266.03</course>
  <speed>0.0</speed>
  <fix>3d</fix>
</trkpt>
<trkpt lat="40.072842" lon="-105.230575">
  <ele>1586.09</ele>
  <time>2026-08-28T19:07:12Z</time>
  <course>11.95</course>
  <speed>0.022360679774997897</speed>
  <fix>3d</fix>
</trkpt>
<trkpt lat="40.072842" lon="-105.230575">
  <ele>1586.09</ele>
  <time>2026-08-28T19:07:12Z</time>
  <course>266.03</course>
  <speed>0.0</speed>
  <fix>3d</fix>
</trkpt>
<trkpt lat="40.072842" lon="-105.230575">
  <ele>1586.09</ele>
  <time>2026-08-28T19:07:12Z</time>
  <course>11.94</course>
  <speed>0.022360679774997897</speed>
  <fix>3d</fix>
</trkpt>
<trkpt lat="40.072842" lon="-105.230575">
  <ele>1586.09</ele>
  <time>2026-08-28T19:07:12Z</time>
  <course>266.03</course>
  <speed>0.0</speed>
  <fix>3d</fix>
</trkpt>
<trkpt lat="40.072842" lon="-105.230575">
  <ele>1586.09</ele>
  <time>2026-08-28T19:07:12Z</time>
  <course>11.93</course>
  <speed>0.022360679774997897</speed>
  <fix>3d</fix>
</trkpt>
<trkpt lat="40.072842" lon="-105.230575">
  <ele>1586.09</ele>
  <time>2026-08-28T19:07:12Z</time>
  <course>266.03</course>
  <speed>0.0</speed>
  <fix>3d</fix>
</trkpt>
<trkpt lat="40.072842" lon="-105.230575">
  <ele>1586.09</ele>
  <time>2026-08-28T19:07:12Z</time>
  <course>11.92</course>
  <speed>0.022360679774997897</speed>
  <fix>3d</fix>
</trkpt>
<trkpt lat="40.072842" lon="-105.230575">
  <ele>1586.09</ele>
  <time>2026-08-28T19:07:12Z</time>
  <course>266.03</course>
  <speed>0.0</speed>
  <fix>3d</fix>
</trkpt>
<trkpt lat="40.072842" lon="-105.230575">
  <ele>1586.09</ele>
  <time>2026-08-28T19:07:12Z</time>
  <course>11.92</course>
  <speed>0.022360679774997897</speed>
  <fix>3d</fix>
</trkpt>
<trkpt lat="40.072842" lon="-105.230575">
  <ele>1586.09</ele>
  <time>2026-08-28T19:07:12Z</time>
  <course>266.03</course>
  <speed>0.0</speed>
  <fix>3d</fix>
</trkpt>
<trkpt lat="40.072842" lon="-105.230575">
  <ele>1586.09</ele>
  <time>2026-08-28T19:07:12Z</time>
  <course>11.91</course>
  <speed>0.022360679774997897</speed>
  <fix>3d</fix>
</trkpt>
<trkpt lat="40.072842" lon="-105.230575">
  <ele>1586.09</ele>
  <time>2026-08-28T19:07:12Z</time>
  <course>266.03</course>
  <speed>0.0</speed>
  <fix>3d</fix>
</trkpt>
<trkpt lat="40.072842" lon="-105.230575">
  <ele>1586.09</ele>
  <time>2026-08-28T19:07:12Z</time>
  <course>11.9</course>
  <speed>0.022360679774997897</speed>
  <fix>3d</fix>
</trkpt>
<trkpt lat="40.072842" lon="-105.230575">
  <ele>1586.09</ele>
  <time>2026-08-28T19:07:12Z</time>
  <course>266.03</course>
  <speed>0.0</speed>
  <fix>3d</fix>
</trkpt>
<trkpt lat="40.072842" lon="-105.230575">
  <ele>1586.09</ele>
  <time>2026-08-28T19:07:12Z</time>
  <course>11.89</course>
  <speed>0.022360679774997897</speed>
  <fix>3d</fix>
</trkpt>
<trkpt lat="40.072842" lon="-105.230575">
  <ele>1586.09</ele>
  <time>2026-08-28T19:07:12Z</time>
  <course>266.03</course>
  <speed>0.0</speed>
  <fix>3d</fix>
</trkpt>
<trkpt lat="40.072842" lon="-105.230575">
  <ele>1586.09</ele>
  <time>2026-08-28T19:07:12Z</time>
  <course>11.88</course>
  <speed>0.022360679774997897</speed>
  <fix>3d</fix>
</trkpt>
<trkpt lat="40.072842" lon="-105.230575">
  <ele>1586.09</ele>
  <time>2026-08-28T19:07:12Z</time>
  <course>266.03</course>
  <speed>0.0</speed>
  <fix>3d</fix>
</trkpt>
<trkpt lat="40.072842" lon="-105.230575">
  <ele>1586.09</ele>
  <time>2026-08-28T19:07:12Z</time>
  <course>11.88</course>
  <speed>0.022360679774997897</speed>
  <fix>3d</fix>
</trkpt>
<trkpt lat="40.072842" lon="-105.230575">
  <ele>1586.09</ele>
  <time>2026-08-28T19:07:12Z</time>
  <course>266.03</course>
  <speed>0.0</speed>
  <fix>3d</fix>
</trkpt>
<trkpt lat="40.072842" lon="-105.230575">
  <ele>1586.09</ele>
  <time>2026-08-28T19:07:12Z</time>
  <course>11.87</course>
  <speed>0.022360679774997897</speed>
  <fix>3d</fix>
</trkpt>
<trkpt lat="40.072842" lon="-105.230575">
  <ele>1586.09</ele>
  <time>2026-08-28T19:07:12Z</time>
  <course>266.03</course>
  <speed>0.0</speed>
  <fix>3d</fix>
</trkpt>
<trkpt lat="40.072842" lon="-105.230575">
  <ele>1586.09</ele>
  <time>2026-08-28T19:07:12Z</time>
  <course>11.86</course>
  <speed>0.022360679774997897</speed>
  <fix>3d</fix>
</trkpt>
<trkpt lat="40.072842" lon="-105.230575">
  <ele>1586.09</ele>
  <time>2026-08-28T19:07:12Z</time>
  <course>266.03</course>
  <speed>0.0</speed>
  <fix>3d</fix>
</trkpt>
<trkpt lat="40.072842" lon="-105.230575">
  <ele>1586.09</ele>
  <time>2026-08-28T19:07:12Z</time>
  <course>11.85</course>
  <speed>0.022360679774997897</speed>
  <fix>3d</fix>
</trkpt>
<trkpt lat="40.072842" lon="-105.230575">
  <ele>1586.09</ele>
  <time>2026-08-28T19:07:12Z</time>
  <course>266.03</course>
  <speed>0.0</speed>
  <fix>3d</fix>
</trkpt>
<trkpt lat="40.072842" lon="-105.230575">
  <ele>1586.09</ele>
  <time>2026-08-28T19:07:12Z</time>
  <course>11.84</course>
  <speed>0.0282842712474619</speed>
  <fix>3d</fix>
</trkpt>
<trkpt lat="40.072842" lon="-105.230575">
  <ele>1586.09</ele>
  <time>2026-08-28T19:07:12Z</time>
  <course>266.03</course>
  <speed>0.0</speed>
  <fix>3d</fix>
</trkpt>
<trkpt lat="40.072842" lon="-105.230575">
  <ele>1586.09</ele>
  <time>2026-08-28T19:07:12Z</time>
  <course>11.83</course>
  <speed>0.0282842712474619</speed>
  <fix>3d</fix>
</trkpt>
<trkpt lat="40.072842" lon="-105.230575">
  <ele>1586.09</ele>
  <time>2026-08-28T19:07:12Z</time>
  <course>266.03</course>
  <speed>0.0</speed>
  <fix>3d</fix>
</trkpt>
<trkpt lat="40.072842" lon="-105.230575">
  <ele>1586.09</ele>
  <time>2026-08-28T19:07:12Z</time>
  <course>11.83</course>
  <speed>0.0282842712474619</speed>
  <fix>3d</fix>
</trkpt>
<trkpt lat="40.072842" lon="-105.230575">
  <ele>1586.09</ele>
  <time>2026-08-28T19:07:12Z</time>
  <course>266.03</course>
  <speed>0.0</speed>
  <fix>3d</fix>
</trkpt>
<trkpt lat="40.072842" lon="-105.230575">
  <ele>1586.09</ele>
  <time>2026-08-28T19:07:12Z</time>
  <course>11.82</course>
  <speed>0.0282842712474619</speed>
  <fix>3d</fix>
</trkpt>
<trkpt lat="40.072842" lon="-105.230575">
  <ele>1586.09</ele>
  <time>2026-08-28T19:07:12Z</time>
  <course>266.03</course>
  <speed>0.0</speed>
  <fix>3d</fix>
</trkpt>
<trkpt lat="40.072842" lon="-105.230575">
  <ele>1586.09</ele>
  <time>2026-08-28T19:07:12Z</time>
  <course>11.81</course>
  <speed>0.0282842712474619</speed>
  <fix>3d</fix>
</trkpt>
<trkpt lat="40.072842" lon="-105.230575">
  <ele>1586.09</ele>
  <time>2026-08-28T19:07:12Z</time>
  <course>266.03</course>
  <speed>0.0</speed>
  <fix>3d</fix>
</trkpt>
<trkpt lat="40.072842" lon="-105.230575">
  <ele>1586.09</ele>
  <time>2026-08-28T19:07:12Z</time>
  <course>11.8</course>
  <speed>0.0282842712474619</speed>
  <fix>3d</fix>
</trkpt>
<trkpt lat="40.072842" lon="-105.230575">
  <ele>1586.09</ele>
  <time>2026-08-28T19:07:12Z</time>
  <course>266.03</course>
  <speed>0.0</speed>
  <fix>3d</fix>
</trkpt>
<trkpt lat="40.072842" lon="-105.230575">
  <ele>1586.09</ele>
  <time>2026-08-28T19:07:12Z</time>
  <course>11.79</course>
  <speed>0.0282842712474619</speed>
  <fix>3d</fix>
</trkpt>
<trkpt lat="40.072842" lon="-105.230575">
  <ele>1586.09</ele>
  <time>2026-08-28T19:07:12Z</time>
  <course>266.03</course>
  <speed>0.0</speed>
  <fix>3d</fix>
</trkpt>
<trkpt lat="40.072842" lon="-105.230575">
  <ele>1586.09</ele>
  <time>2026-08-28T19:07:12Z</time>
  <course>11.79</course>
  <speed>0.0282842712474619</speed>
  <fix>3d</fix>
</trkpt>
<trkpt lat="40.072842" lon="-105.230575">
  <ele>1586.09</ele>
  <time>2026-08-28T19:07:12Z</time>
  <course>266.03</course>
  <speed>0.0</speed>
  <fix>3d</fix>
</trkpt>
<trkpt lat="40.072842" lon="-105.230575">
  <ele>1586.09</ele>
  <time>2026-08-28T19:07:12Z</time>
  <course>11.78</course>
  <speed>0.0282842712474619</speed>
  <fix>3d</fix>
</trkpt>
<trkpt lat="40.072842" lon="-105.230575">
  <ele>1586.09</ele>
  <time>2026-08-28T19:07:12Z</time>
  <course>266.03</course>
  <speed>0.0</speed>
  <fix>3d</fix>
</trkpt>
<trkpt lat="40.072842" lon="-105.230575">
  <ele>1586.09</ele>
  <time>2026-08-28T19:07:12Z</time>
  <course>11.77</course>
  <speed>0.0282842712474619</speed>
  <fix>3d</fix>
</trkpt>
<trkpt lat="40.072842" lon="-105.230575">
  <ele>1586.09</ele>
  <time>2026-08-28T19:07:12Z</time>
  <course>266.03</course>
  <speed>0.0</speed>
  <fix>3d</fix>
</trkpt>
<trkpt lat="40.072842" lon="-105.230575">
  <ele>1586.09</ele>
  <time>2026-08-28T19:07:12Z</time>
  <course>11.77</course>
  <speed>0.0282842712474619</speed>
  <fix>3d</fix>
</trkpt>
<trkpt lat="40.072842" lon="-105.230575">
  <ele>1586.09</ele>
  <time>2026-08-28T19:07:12Z</time>
  <course>266.03</course>
  <speed>0.0</speed>
  <fix>3d</fix>
</trkpt>
<trkpt lat="40.072842" lon="-105.230575">
  <ele>1586.09</ele>
  <time>2026-08-28T19:07:12Z</time>
  <course>11.76</course>
  <speed>0.0282842712474619</speed>
  <fix>3d</fix>
</trkpt>
<trkpt lat="40.072842" lon="-105.230575">
  <ele>1586.09</ele>
  <time>2026-08-28T19:07:12Z</time>
  <course>266.03</course>
  <speed>0.0</speed>
  <fix>3d</fix>
</trkpt>
<trkpt lat="40.072842" lon="-105.230575">
  <ele>1586.09</ele>
  <time>2026-08-28T19:07:12Z</time>
  <course>11.75</course>
  <speed>0.0282842712474619</speed>
  <fix>3d</fix>
</trkpt>
<trkpt lat="40.072842" lon="-105.230575">
  <ele>1586.09</ele>
  <time>2026-08-28T19:07:12Z</time>
  <course>266.03</course>
  <speed>0.0</speed>
  <fix>3d</fix>
</trkpt>
<trkpt lat="40.072842" lon="-105.230575">
  <ele>1586.09</ele>
  <time>2026-08-28T19:07:12Z</time>
  <course>11.74</course>
  <speed>0.03605551275463989</speed>
  <fix>3d</fix>
</trkpt>
<trkpt lat="40.072842" lon="-105.230575">
  <ele>1586.09</ele>
  <time>2026-08-28T19:07:12Z</time>
  <course>266.03</course>
  <speed>0.0</speed>
  <fix>3d</fix>
</trkpt>
<trkpt lat="40.072842" lon="-105.230575">
  <ele>1586.09</ele>
  <time>2026-08-28T19:07:12Z</time>
  <course>11.73</course>
  <speed>0.03605551275463989</speed>
  <fix>3d</fix>
</trkpt>
<trkpt lat="40.072842" lon="-105.230575">
  <ele>1586.09</ele>
  <time>2026-08-28T19:07:12Z</time>
  <course>266.03</course>
  <speed>0.0</speed>
  <fix>3d</fix>
</trkpt>
<trkpt lat="40.072842" lon="-105.230575">
  <ele>1586.09</ele>
  <time>2026-08-28T19:07:12Z</time>
  <course>11.73</course>
  <speed>0.03605551275463989</speed>
  <fix>3d</fix>
</trkpt>
<trkpt lat="40.072842" lon="-105.230575">
  <ele>1586.09</ele>
  <time>2026-08-28T19:07:12Z</time>
  <course>266.03</course>
  <speed>0.0</speed>
  <fix>3d</fix>
</trkpt>
<trkpt lat="40.072842" lon="-105.230575">
  <ele>1586.09</ele>
  <time>2026-08-28T19:07:12Z</time>
  <course>11.72</course>
  <speed>0.03605551275463989</speed>
  <fix>3d</fix>
</trkpt>
<trkpt lat="40.072842" lon="-105.230575">
  <ele>1586.09</ele>
  <time>2026-08-28T19:07:12Z</time>
  <course>266.03</course>
  <speed>0.0</speed>
  <fix>3d</fix>
</trkpt>
<trkpt lat="40.072842" lon="-105.230575">
  <ele>1586.09</ele>
  <time>2026-08-28T19:07:12Z</time>
  <course>11.71</course>
  <speed>0.03605551275463989</speed>
  <fix>3d</fix>
</trkpt>
<trkpt lat="40.072842" lon="-105.230575">
  <ele>1586.09</ele>
  <time>2026-08-28T19:07:12Z</time>
  <course>266.03</course>
  <speed>0.0</speed>
  <fix>3d</fix>
</trkpt>
<trkpt lat="40.072842" lon="-105.230575">
  <ele>1586.09</ele>
  <time>2026-08-28T19:07:12Z</time>
  <course>11.71</course>
  <speed>0.03605551275463989</speed>
  <fix>3d</fix>
</trkpt>
<trkpt lat="40.072842" lon="-105.230575">
  <ele>1586.09</ele>
  <time>2026-08-28T19:07:12Z</time>
  <course>266.03</course>
  <speed>0.0</speed>
  <fix>3d</fix>
</trkpt>
<trkpt lat="40.072842" lon="-105.230575">
  <ele>1586.09</ele>
  <time>2026-08-28T19:07:12Z</time>
  <course>11.7</course>
  <speed>0.03605551275463989</speed>
  <fix>3d</fix>
</trkpt>
<trkpt lat="40.072842" lon="-105.230575">
  <ele>1586.09</ele>
  <time>2026-08-28T19:07:12Z</time>
  <course>266.03</course>
  <speed>0.0</speed>
  <fix>3d</fix>
</trkpt>
<trkpt lat="40.072842" lon="-105.230575">
  <ele>1586.09</ele>
  <time>2026-08-28T19:07:12Z</time>
  <course>11.69</course>
  <speed>0.03605551275463989</speed>
  <fix>3d</fix>
</trkpt>
<trkpt lat="40.072842" lon="-105.230575">
  <ele>1586.09</ele>
  <time>2026-08-28T19:07:12Z</time>
  <course>266.03</course>
  <speed>0.0</speed>
  <fix>3d</fix>
</trkpt>
<trkpt lat="40.072842" lon="-105.230575">
  <ele>1586.09</ele>
  <time>2026-08-28T19:07:12Z</time>
  <course>11.68</course>
  <speed>0.03605551275463989</speed>
  <fix>3d</fix>
</trkpt>
<trkpt lat="40.072842" lon="-105.230575">
  <ele>1586.09</ele>
  <time>2026-08-28T19:07:12Z</time>
  <course>266.03</course>
  <speed>0.0</speed>
  <fix>3d</fix>
</trkpt>
<trkpt lat="40.072842" lon="-105.230575">
  <ele>1586.09</ele>
  <time>2026-08-28T19:07:12Z</time>
  <course>11.68</course>
  <speed>0.03605551275463989</speed>
  <fix>3d</fix>
</trkpt>
<trkpt lat="40.072842" lon="-105.230575">
  <ele>1586.09</ele>
  <time>2026-08-28T19:07:12Z</time>
  <course>266.03</course>
  <speed>0.0</speed>
  <fix>3d</fix>
</trkpt>
<trkpt lat="40.072842" lon="-105.230575">
  <ele>1586.09</ele>
  <time>2026-08-28T19:07:12Z</time>
  <course>11.67</course>
  <speed>0.03605551275463989</speed>
  <fix>3d</fix>
</trkpt>
<trkpt lat="40.072842" lon="-105.230575">
  <ele>1586.09</ele>
  <time>2026-08-28T19:07:12Z</time>
  <course>266.03</course>
  <speed>0.0</speed>
  <fix>3d</fix>
</trkpt>
<trkpt lat="40.072842" lon="-105.230575">
  <ele>1586.09</ele>
  <time>2026-08-28T19:07:12Z</time>
  <course>11.66</course>
  <speed>0.03605551275463989</speed>
  <fix>3d</fix>
</trkpt>
<trkpt lat="40.072842" lon="-105.230575">
  <ele>1586.09</ele>
  <time>2026-08-28T19:07:12Z</time>
  <course>266.03</course>
  <speed>0.0</speed>
  <fix>3d</fix>
</trkpt>
<trkpt lat="40.072842" lon="-105.230575">
  <ele>1586.09</ele>
  <time>2026-08-28T19:07:12Z</time>
  <course>11.65</course>
  <speed>0.03605551275463989</speed>
  <fix>3d</fix>
</trkpt>
<trkpt lat="40.072842" lon="-105.230575">
  <ele>1586.09</ele>
  <time>2026-08-28T19:07:12Z</time>
  <course>266.03</course>
  <speed>0.0</speed>
  <fix>3d</fix>
</trkpt>
<trkpt lat="40.072842" lon="-105.230575">
  <ele>1586.09</ele>
  <time>2026-08-28T19:07:12Z</time>
  <course>11.65</course>
  <speed>0.03605551275463989</speed>
  <fix>3d</fix>
</trkpt>
<trkpt lat="40.072842" lon="-105.230575">
  <ele>1586.09</ele>
  <time>2026-08-28T19:07:12Z</time>
  <course>266.03</course>
  <speed>0.0</speed>
  <fix>3d</fix>
</trkpt>
<trkpt lat="40.072842" lon="-105.230575">
  <ele>1586.09</ele>
  <time>2026-08-28T19:07:12Z</time>
  <course>11.64</course>
  <speed>0.03605551275463989</speed>
  <fix>3d</fix>
</trkpt>
<trkpt lat="40.072842" lon="-105.230575">
  <ele>1586.09</ele>
  <time>2026-08-28T19:07:12Z</time>
  <course>266.03</course>
  <speed>0.0</speed>
  <fix>3d</fix>
</trkpt>
<trkpt lat="40.072842" lon="-105.230575">
  <ele>1586.09</ele>
  <time>2026-08-28T19:07:12Z</time>
  <course>11.63</course>
  <speed>0.03605551275463989</speed>
  <fix>3d</fix>
</trkpt>
<trkpt lat="40.072842" lon="-105.230575">
  <ele>1586.09</ele>
  <time>2026-08-28T19:07:12Z</time>
  <course>266.03</course>
  <speed>0.0</speed>
  <fix>3d</fix>
</trkpt>
<trkpt lat="40.072842" lon="-105.230575">
  <ele>1586.09</ele>
  <time>2026-08-28T19:07:12Z</time>
  <course>11.63</course>
  <speed>0.03605551275463989</speed>
  <fix>3d</fix>
</trkpt>
<trkpt lat="40.072842" lon="-105.230575">
  <ele>1586.09</ele>
  <time>2026-08-28T19:07:12Z</time>
  <course>266.03</course>
  <speed>0.0</speed>
  <fix>3d</fix>
</trkpt>
<trkpt lat="40.072842" lon="-105.230575">
  <ele>1586.09</ele>
  <time>2026-08-28T19:07:12Z</time>
  <course>11.62</course>
  <speed>0.03605551275463989</speed>
  <fix>3d</fix>
</trkpt>
<trkpt lat="40.072842" lon="-105.230575">
  <ele>1586.09</ele>
  <time>2026-08-28T19:07:12Z</time>
  <course>266.03</course>
  <speed>0.0</speed>
  <fix>3d</fix>
</trkpt>
<trkpt lat="40.072842" lon="-105.230575">
  <ele>1586.09</ele>
  <time>2026-08-28T19:07:12Z</time>
  <course>11.61</course>
  <speed>0.03605551275463989</speed>
  <fix>3d</fix>
</trkpt>
<trkpt lat="40.072842" lon="-105.230575">
  <ele>1586.09</ele>
  <time>2026-08-28T19:07:12Z</time>
  <course>266.03</course>
  <speed>0.0</speed>
  <fix>3d</fix>
</trkpt>
<trkpt lat="40.072842" lon="-105.230575">
  <ele>1586.09</ele>
  <time>2026-08-28T19:07:12Z</time>
  <course>11.61</course>
  <speed>0.03605551275463989</speed>
  <fix>3d</fix>
</trkpt>
<trkpt lat="40.072842" lon="-105.230575">
  <ele>1586.09</ele>
  <time>2026-08-28T19:07:12Z</time>
  <course>266.03</course>
  <speed>0.0</speed>
  <fix>3d</fix>
</trkpt>
<trkpt lat="40.072842" lon="-105.230575">
  <ele>1586.09</ele>
  <time>2026-08-28T19:07:12Z</time>
  <course>11.6</course>
  <speed>0.03605551275463989</speed>
  <fix>3d</fix>
</trkpt>
<trkpt lat="40.072842" lon="-105.230575">
  <ele>1586.09</ele>
  <time>2026-08-28T19:07:12Z</time>
  <course>266.03</course>
  <speed>0.0</speed>
  <fix>3d</fix>
</trkpt>
<trkpt lat="40.072842" lon="-105.230575">
  <ele>1586.09</ele>
  <time>2026-08-28T19:07:12Z</time>
  <course>11.6</course>
  <speed>0.03605551275463989</speed>
  <fix>3d</fix>
</trkpt>
<trkpt lat="40.072842" lon="-105.230575">
  <ele>1586.09</ele>
  <time>2026-08-28T19:07:12Z</time>
  <course>266.03</course>
  <speed>0.0</speed>
  <fix>3d</fix>
</trkpt>
<trkpt lat="40.072842" lon="-105.230575">
  <ele>1586.09</ele>
  <time>2026-08-28T19:07:12Z</time>
  <course>11.59</course>
  <speed>0.03605551275463989</speed>
  <fix>3d</fix>
</trkpt>
<trkpt lat="40.072842" lon="-105.230575">
  <ele>1586.09</ele>
  <time>2026-08-28T19:07:12Z</time>
  <course>266.03</course>
  <speed>0.0</speed>
  <fix>3d</fix>
</trkpt>
<trkpt lat="40.072842" lon="-105.230575">
  <ele>1586.09</ele>
  <time>2026-08-28T19:07:12Z</time>
  <course>11.58</course>
  <speed>0.03605551275463989</speed>
  <fix>3d</fix>
</trkpt>
<trkpt lat="40.072842" lon="-105.230575">
  <ele>1586.09</ele>
  <time>2026-08-28T19:07:12Z</time>
  <course>266.03</course>
  <speed>0.0</speed>
  <fix>3d</fix>
</trkpt>
<trkpt lat="40.072842" lon="-105.230575">
  <ele>1586.09</ele>
  <time>2026-08-28T19:07:12Z</time>
  <course>11.58</course>
  <speed>0.03605551275463989</speed>
  <fix>3d</fix>
</trkpt>
<trkpt lat="40.072842" lon="-105.230575">
  <ele>1586.09</ele>
  <time>2026-08-28T19:07:12Z</time>
  <course>266.03</course>
  <speed>0.0</speed>
  <fix>3d</fix>
</trkpt>
<trkpt lat="40.072842" lon="-105.230575">
  <ele>1586.09</ele>
  <time>2026-08-28T19:07:12Z</time>
  <course>11.57</course>
  <speed>0.03605551275463989</speed>
  <fix>3d</fix>
</trkpt>
<trkpt lat="40.072842" lon="-105.230575">
  <ele>1586.09</ele>
  <time>2026-08-28T19:07:12Z</time>
  <course>266.03</course>
  <speed>0.0</speed>
  <fix>3d</fix>
</trkpt>
<trkpt lat="40.072842" lon="-105.230575">
  <ele>1586.09</ele>
  <time>2026-08-28T19:07:12Z</time>
  <course>11.57</course>
  <speed>0.03605551275463989</speed>
  <fix>3d</fix>
</trkpt>
<trkpt lat="40.072842" lon="-105.230575">
  <ele>1586.09</ele>
  <time>2026-08-28T19:07:12Z</time>
  <course>266.03</course>
  <speed>0.0</speed>
  <fix>3d</fix>
</trkpt>
<trkpt lat="40.072842" lon="-105.230575">
  <ele>1586.09</ele>
  <time>2026-08-28T19:07:12Z</time>
  <course>11.56</course>
  <speed>0.03605551275463989</speed>
  <fix>3d</fix>
</trkpt>
<trkpt lat="40.072842" lon="-105.230575">
  <ele>1586.09</ele>
  <time>2026-08-28T19:07:12Z</time>
  <course>266.03</course>
  <speed>0.0</speed>
  <fix>3d</fix>
</trkpt>
<trkpt lat="40.072842" lon="-105.230575">
  <ele>1586.09</ele>
  <time>2026-08-28T19:07:12Z</time>
  <course>11.55</course>
  <speed>0.03605551275463989</speed>
  <fix>3d</fix>
</trkpt>
<trkpt lat="40.072842" lon="-105.230575">
  <ele>1586.09</ele>
  <time>2026-08-28T19:07:12Z</time>
  <course>266.03</course>
  <speed>0.0</speed>
  <fix>3d</fix>
</trkpt>
<trkpt lat="40.072842" lon="-105.230575">
  <ele>1586.09</ele>
  <time>2026-08-28T19:07:12Z</time>
  <course>11.55</course>
  <speed>0.03605551275463989</speed>
  <fix>3d</fix>
</trkpt>
<trkpt lat="40.072842" lon="-105.230575">
  <ele>1586.09</ele>
  <time>2026-08-28T19:07:12Z</time>
  <course>266.03</course>
  <speed>0.0</speed>
  <fix>3d</fix>
</trkpt>
<trkpt lat="40.072842" lon="-105.230575">
  <ele>1586.09</ele>
  <time>2026-08-28T19:07:12Z</time>
  <course>11.54</course>
  <speed>0.03605551275463989</speed>
  <fix>3d</fix>
</trkpt>
<trkpt lat="40.072842" lon="-105.230575">
  <ele>1586.09</ele>
  <time>2026-08-28T19:07:13Z</time>
  <course>266.03</course>
  <speed>0.0</speed>
  <fix>3d</fix>
</trkpt>
<trkpt lat="40.072842" lon="-105.230575">
  <ele>1586.09</ele>
  <time>2026-08-28T19:07:13Z</time>
  <course>11.53</course>
  <speed>0.03605551275463989</speed>
  <fix>3d</fix>
</trkpt>
<trkpt lat="40.072842" lon="-105.230575">
  <ele>1586.09</ele>
  <time>2026-08-28T19:07:13Z</time>
  <course>266.03</course>
  <speed>0.0</speed>
  <fix>3d</fix>
</trkpt>
<trkpt lat="40.072842" lon="-105.230575">
  <ele>1586.09</ele>
  <time>2026-08-28T19:07:13Z</time>
  <course>11.53</course>
  <speed>0.03605551275463989</speed>
  <fix>3d</fix>
</trkpt>
<trkpt lat="40.072842" lon="-105.230575">
  <ele>1586.09</ele>
  <time>2026-08-28T19:07:13Z</time>
  <course>266.03</course>
  <speed>0.0</speed>
  <fix>3d</fix>
</trkpt>
<trkpt lat="40.072842" lon="-105.230575">
  <ele>1586.09</ele>
  <time>2026-08-28T19:07:13Z</time>
  <course>11.52</course>
  <speed>0.03605551275463989</speed>
  <fix>3d</fix>
</trkpt>
<trkpt lat="40.072842" lon="-105.230575">
  <ele>1586.09</ele>
  <time>2026-08-28T19:07:13Z</time>
  <course>266.03</course>
  <speed>0.0</speed>
  <fix>3d</fix>
</trkpt>
<trkpt lat="40.072842" lon="-105.230575">
  <ele>1586.09</ele>
  <time>2026-08-28T19:07:13Z</time>
  <course>11.52</course>
  <speed>0.03605551275463989</speed>
  <fix>3d</fix>
</trkpt>
<trkpt lat="40.072842" lon="-105.230575">
  <ele>1586.09</ele>
  <time>2026-08-28T19:07:13Z</time>
  <course>266.03</course>
  <speed>0.0</speed>
  <fix>3d</fix>
</trkpt>
<trkpt lat="40.072842" lon="-105.230575">
  <ele>1586.09</ele>
  <time>2026-08-28T19:07:13Z</time>
  <course>11.51</course>
  <speed>0.03605551275463989</speed>
  <fix>3d</fix>
</trkpt>
<trkpt lat="40.072842" lon="-105.230575">
  <ele>1586.09</ele>
  <time>2026-08-28T19:07:13Z</time>
  <course>266.03</course>
  <speed>0.0</speed>
  <fix>3d</fix>
</trkpt>
<trkpt lat="40.072842" lon="-105.230575">
  <ele>1586.09</ele>
  <time>2026-08-28T19:07:13Z</time>
  <course>11.51</course>
  <speed>0.044721359549995794</speed>
  <fix>3d</fix>
</trkpt>
<trkpt lat="40.072842" lon="-105.230575">
  <ele>1586.09</ele>
  <time>2026-08-28T19:07:13Z</time>
  <course>266.03</course>
  <speed>0.0</speed>
  <fix>3d</fix>
</trkpt>
<trkpt lat="40.072842" lon="-105.230575">
  <ele>1586.09</ele>
  <time>2026-08-28T19:07:13Z</time>
  <course>11.5</course>
  <speed>0.044721359549995794</speed>
  <fix>3d</fix>
</trkpt>
<trkpt lat="40.072842" lon="-105.230575">
  <ele>1586.09</ele>
  <time>2026-08-28T19:07:13Z</time>
  <course>266.03</course>
  <speed>0.0</speed>
  <fix>3d</fix>
</trkpt>
<trkpt lat="40.072842" lon="-105.230575">
  <ele>1586.09</ele>
  <time>2026-08-28T19:07:13Z</time>
  <course>11.5</course>
  <speed>0.044721359549995794</speed>
  <fix>3d</fix>
</trkpt>
<trkpt lat="40.072842" lon="-105.230575">
  <ele>1586.09</ele>
  <time>2026-08-28T19:07:13Z</time>
  <course>266.03</course>
  <speed>0.0</speed>
  <fix>3d</fix>
</trkpt>
<trkpt lat="40.072842" lon="-105.230575">
  <ele>1586.09</ele>
  <time>2026-08-28T19:07:13Z</time>
  <course>11.49</course>
  <speed>0.044721359549995794</speed>
  <fix>3d</fix>
</trkpt>
<trkpt lat="40.072842" lon="-105.230575">
  <ele>1586.09</ele>
  <time>2026-08-28T19:07:13Z</time>
  <course>266.03</course>
  <speed>0.0</speed>
  <fix>3d</fix>
</trkpt>
<trkpt lat="40.072842" lon="-105.230575">
  <ele>1586.09</ele>
  <time>2026-08-28T19:07:13Z</time>
  <course>11.48</course>
  <speed>0.044721359549995794</speed>
  <fix>3d</fix>
</trkpt>
<trkpt lat="40.072842" lon="-105.230575">
  <ele>1586.09</ele>
  <time>2026-08-28T19:07:13Z</time>
  <course>266.03</course>
  <speed>0.0</speed>
  <fix>3d</fix>
</trkpt>
<trkpt lat="40.072842" lon="-105.230575">
  <ele>1586.09</ele>
  <time>2026-08-28T19:07:13Z</time>
  <course>11.48</course>
  <speed>0.044721359549995794</speed>
  <fix>3d</fix>
</trkpt>
<trkpt lat="40.072842" lon="-105.230575">
  <ele>1586.09</ele>
  <time>2026-08-28T19:07:13Z</time>
  <course>266.03</course>
  <speed>0.0</speed>
  <fix>3d</fix>
</trkpt>
<trkpt lat="40.072842" lon="-105.230575">
  <ele>1586.09</ele>
  <time>2026-08-28T19:07:13Z</time>
  <course>11.47</course>
  <speed>0.044721359549995794</speed>
  <fix>3d</fix>
</trkpt>
<trkpt lat="40.072842" lon="-105.230575">
  <ele>1586.09</ele>
  <time>2026-08-28T19:07:13Z</time>
  <course>266.03</course>
  <speed>0.0</speed>
  <fix>3d</fix>
</trkpt>
<trkpt lat="40.072842" lon="-105.230575">
  <ele>1586.09</ele>
  <time>2026-08-28T19:07:13Z</time>
  <course>11.47</course>
  <speed>0.044721359549995794</speed>
  <fix>3d</fix>
</trkpt>
<trkpt lat="40.072842" lon="-105.230575">
  <ele>1586.09</ele>
  <time>2026-08-28T19:07:13Z</time>
  <course>266.03</course>
  <speed>0.0</speed>
  <fix>3d</fix>
</trkpt>
<trkpt lat="40.072842" lon="-105.230575">
  <ele>1586.09</ele>
  <time>2026-08-28T19:07:13Z</time>
  <course>11.47</course>
  <speed>0.044721359549995794</speed>
  <fix>3d</fix>
</trkpt>
<trkpt lat="40.072842" lon="-105.230575">
  <ele>1586.09</ele>
  <time>2026-08-28T19:07:13Z</time>
  <course>266.03</course>
  <speed>0.0</speed>
  <fix>3d</fix>
</trkpt>
<trkpt lat="40.072842" lon="-105.230575">
  <ele>1586.09</ele>
  <time>2026-08-28T19:07:13Z</time>
  <course>11.46</course>
  <speed>0.044721359549995794</speed>
  <fix>3d</fix>
</trkpt>
<trkpt lat="40.072842" lon="-105.230575">
  <ele>1586.09</ele>
  <time>2026-08-28T19:07:13Z</time>
  <course>266.03</course>
  <speed>0.0</speed>
  <fix>3d</fix>
</trkpt>
<trkpt lat="40.072842" lon="-105.230575">
  <ele>1586.16</ele>
  <time>2026-08-28T19:07:13Z</time>
  <course>11.45</course>
  <speed>0.0</speed>
  <fix>3d</fix>
</trkpt>
<trkpt lat="40.072842" lon="-105.230575">
  <ele>1586.09</ele>
  <time>2026-08-28T19:07:13Z</time>
  <course>297.19</course>
  <speed>0.0</speed>
  <fix>3d</fix>
</trkpt>
<trkpt lat="40.072842" lon="-105.230575">
  <ele>1586.16</ele>
  <time>2026-08-28T19:07:13Z</time>
  <course>11.45</course>
  <speed>0.0</speed>
  <fix>3d</fix>
</trkpt>
<trkpt lat="40.072842" lon="-105.230575">
  <ele>1586.09</ele>
  <time>2026-08-28T19:07:13Z</time>
  <course>269.87</course>
  <speed>0.0</speed>
  <fix>3d</fix>
</trkpt>
<trkpt lat="40.072842" lon="-105.230575">
  <ele>1586.16</ele>
  <time>2026-08-28T19:07:13Z</time>
  <course>11.45</course>
  <speed>0.0</speed>
  <fix>3d</fix>
</trkpt>
<trkpt lat="40.072842" lon="-105.230575">
  <ele>1586.09</ele>
  <time>2026-08-28T19:07:13Z</time>
  <course>241.23</course>
  <speed>0.0</speed>
  <fix>3d</fix>
</trkpt>
<trkpt lat="40.072842" lon="-105.230575">
  <ele>1586.16</ele>
  <time>2026-08-28T19:07:13Z</time>
  <course>11.44</course>
  <speed>0.0</speed>
  <fix>3d</fix>
</trkpt>
<trkpt lat="40.072842" lon="-105.230575">
  <ele>1586.09</ele>
  <time>2026-08-28T19:07:13Z</time>
  <course>93.08</course>
  <speed>0.0</speed>
  <fix>3d</fix>
</trkpt>
<trkpt lat="40.072842" lon="-105.230575">
  <ele>1586.17</ele>
  <time>2026-08-28T19:07:13Z</time>
  <course>11.44</course>
  <speed>0.0</speed>
  <fix>3d</fix>
</trkpt>
<trkpt lat="40.072842" lon="-105.230575">
  <ele>1586.09</ele>
  <time>2026-08-28T19:07:13Z</time>
  <course>317.31</course>
  <speed>0.0</speed>
  <fix>3d</fix>
</trkpt>
<trkpt lat="40.072842" lon="-105.230575">
  <ele>1586.17</ele>
  <time>2026-08-28T19:07:13Z</time>
  <course>11.43</course>
  <speed>0.01</speed>
  <fix>3d</fix>
</trkpt>
<trkpt lat="40.072842" lon="-105.230575">
  <ele>1586.09</ele>
  <time>2026-08-28T19:07:13Z</time>
  <course>265.24</course>
  <speed>0.0</speed>
  <fix>3d</fix>
</trkpt>
<trkpt lat="40.072842" lon="-105.230575">
  <ele>1586.17</ele>
  <time>2026-08-28T19:07:13Z</time>
  <course>11.43</course>
  <speed>0.01</speed>
  <fix>3d</fix>
</trkpt>
<trkpt lat="40.072842" lon="-105.230575">
  <ele>1586.09</ele>
  <time>2026-08-28T19:07:13Z</time>
  <course>261.76</course>
  <speed>0.0</speed>
  <fix>3d</fix>
</trkpt>
<trkpt lat="40.072842" lon="-105.230575">
  <ele>1586.17</ele>
  <time>2026-08-28T19:07:13Z</time>
  <course>11.42</course>
  <speed>0.01</speed>
  <fix>3d</fix>
</trkpt>
<trkpt lat="40.072842" lon="-105.230575">
  <ele>1586.09</ele>
  <time>2026-08-28T19:07:13Z</time>
  <course>266.78</course>
  <speed>0.0</speed>
  <fix>3d</fix>
</trkpt>
<trkpt lat="40.072842" lon="-105.230575">
  <ele>1586.17</ele>
  <time>2026-08-28T19:07:13Z</time>
  <course>11.42</course>
  <speed>0.01414213562373095</speed>
  <fix>3d</fix>
</trkpt>
<trkpt lat="40.072842" lon="-105.230575">
  <ele>1586.09</ele>
  <time>2026-08-28T19:07:13Z</time>
  <course>266.53</course>
  <speed>0.0</speed>
  <fix>3d</fix>
</trkpt>
<trkpt lat="40.072842" lon="-105.230575">
  <ele>1586.17</ele>
  <time>2026-08-28T19:07:13Z</time>
  <course>11.42</course>
  <speed>0.01414213562373095</speed>
  <fix>3d</fix>
</trkpt>
<trkpt lat="40.072842" lon="-105.230575">
  <ele>1586.09</ele>
  <time>2026-08-28T19:07:13Z</time>
  <course>265.88</course>
  <speed>0.0</speed>
  <fix>3d</fix>
</trkpt>
<trkpt lat="40.072842" lon="-105.230575">
  <ele>1586.17</ele>
  <time>2026-08-28T19:07:13Z</time>
  <course>11.41</course>
  <speed>0.01414213562373095</speed>
  <fix>3d</fix>
</trkpt>
<trkpt lat="40.072842" lon="-105.230575">
  <ele>1586.09</ele>
  <time>2026-08-28T19:07:13Z</time>
  <course>201.27</course>
  <speed>0.0</speed>
  <fix>3d</fix>
</trkpt>
<trkpt lat="40.072842" lon="-105.230575">
  <ele>1586.17</ele>
  <time>2026-08-28T19:07:13Z</time>
  <course>11.41</course>
  <speed>0.022360679774997897</speed>
  <fix>3d</fix>
</trkpt>
<trkpt lat="40.072842" lon="-105.230575">
  <ele>1586.09</ele>
  <time>2026-08-28T19:07:13Z</time>
  <course>250.46</course>
  <speed>0.0</speed>
  <fix>3d</fix>
</trkpt>
<trkpt lat="40.072842" lon="-105.230575">
  <ele>1586.17</ele>
  <time>2026-08-28T19:07:13Z</time>
  <course>11.4</course>
  <speed>0.01414213562373095</speed>
  <fix>3d</fix>
</trkpt>
<trkpt lat="40.072842" lon="-105.230575">
  <ele>1586.09</ele>
  <time>2026-08-28T19:07:13Z</time>
  <course>265.71</course>
  <speed>0.0</speed>
  <fix>3d</fix>
</trkpt>
<trkpt lat="40.072842" lon="-105.230575">
  <ele>1586.17</ele>
  <time>2026-08-28T19:07:13Z</time>
  <course>11.4</course>
  <speed>0.01414213562373095</speed>
  <fix>3d</fix>
</trkpt>
<trkpt lat="40.072842" lon="-105.230575">
  <ele>1586.09</ele>
  <time>2026-08-28T19:07:13Z</time>
  <course>261.82</course>
  <speed>0.0</speed>
  <fix>3d</fix>
</trkpt>
<trkpt lat="40.072842" lon="-105.230575">
  <ele>1586.17</ele>
  <time>2026-08-28T19:07:13Z</time>
  <course>11.4</course>
  <speed>0.01414213562373095</speed>
  <fix>3d</fix>
</trkpt>
<trkpt lat="40.072842" lon="-105.230575">
  <ele>1586.09</ele>
  <time>2026-08-28T19:07:13Z</time>
  <course>266.9</course>
  <speed>0.0</speed>
  <fix>3d</fix>
</trkpt>
<trkpt lat="40.072842" lon="-105.230575">
  <ele>1586.17</ele>
  <time>2026-08-28T19:07:13Z</time>
  <course>11.39</course>
  <speed>0.01</speed>
  <fix>3d</fix>
</trkpt>
<trkpt lat="40.072842" lon="-105.230575">
  <ele>1586.09</ele>
  <time>2026-08-28T19:07:13Z</time>
  <course>266.49</course>
  <speed>0.0</speed>
  <fix>3d</fix>
</trkpt>
<trkpt lat="40.072842" lon="-105.230575">
  <ele>1586.17</ele>
  <time>2026-08-28T19:07:13Z</time>
  <course>11.39</course>
  <speed>0.0</speed>
  <fix>3d</fix>
</trkpt>
<trkpt lat="40.072842" lon="-105.230575">
  <ele>1586.09</ele>
  <time>2026-08-28T19:07:13Z</time>
  <course>265.87</course>
  <speed>0.0</speed>
  <fix>3d</fix>
</trkpt>
<trkpt lat="40.072842" lon="-105.230575">
  <ele>1586.17</ele>
  <time>2026-08-28T19:07:13Z</time>
  <course>11.39</course>
  <speed>0.0</speed>
  <fix>3d</fix>
</trkpt>
<trkpt lat="40.072842" lon="-105.230575">
  <ele>1586.09</ele>
  <time>2026-08-28T19:07:13Z</time>
  <course>342.51</course>
  <speed>0.0</speed>
  <fix>3d</fix>
</trkpt>
<trkpt lat="40.072842" lon="-105.230575">
  <ele>1586.17</ele>
  <time>2026-08-28T19:07:13Z</time>
  <course>11.38</course>
  <speed>0.0</speed>
  <fix>3d</fix>
</trkpt>
<trkpt lat="40.072842" lon="-105.230575">
  <ele>1586.09</ele>
  <time>2026-08-28T19:07:13Z</time>
  <course>325.06</course>
  <speed>0.0</speed>
  <fix>3d</fix>
</trkpt>
<trkpt lat="40.072842" lon="-105.230575">
  <ele>1586.17</ele>
  <time>2026-08-28T19:07:13Z</time>
  <course>11.38</course>
  <speed>0.0</speed>
  <fix>3d</fix>
</trkpt>
<trkpt lat="40.072842" lon="-105.230575">
  <ele>1586.09</ele>
  <time>2026-08-28T19:07:13Z</time>
  <course>308.52</course>
  <speed>0.0</speed>
  <fix>3d</fix>
</trkpt>
<trkpt lat="40.072842" lon="-105.230575">
  <ele>1586.17</ele>
  <time>2026-08-28T19:07:13Z</time>
  <course>11.37</course>
  <speed>0.0</speed>
  <fix>3d</fix>
</trkpt>
<trkpt lat="40.072842" lon="-105.230575">
  <ele>1586.09</ele>
  <time>2026-08-28T19:07:13Z</time>
  <course>185.68</course>
  <speed>0.0</speed>
  <fix>3d</fix>
</trkpt>
<trkpt lat="40.072842" lon="-105.230575">
  <ele>1586.17</ele>
  <time>2026-08-28T19:07:13Z</time>
  <course>11.37</course>
  <speed>0.0</speed>
  <fix>3d</fix>
</trkpt>
<trkpt lat="40.072842" lon="-105.230575">
  <ele>1586.09</ele>
  <time>2026-08-28T19:07:13Z</time>
  <course>196.88</course>
  <speed>0.0</speed>
  <fix>3d</fix>
</trkpt>
<trkpt lat="40.072842" lon="-105.230575">
  <ele>1586.17</ele>
  <time>2026-08-28T19:07:13Z</time>
  <course>11.37</course>
  <speed>0.0</speed>
  <fix>3d</fix>
</trkpt>
<trkpt lat="40.072842" lon="-105.230575">
  <ele>1586.09</ele>
  <time>2026-08-28T19:07:13Z</time>
  <course>299.71</course>
  <speed>0.0</speed>
  <fix>3d</fix>
</trkpt>
<trkpt lat="40.072842" lon="-105.230575">
  <ele>1586.17</ele>
  <time>2026-08-28T19:07:13Z</time>
  <course>11.37</course>
  <speed>0.0</speed>
  <fix>3d</fix>
</trkpt>
<trkpt lat="40.072842" lon="-105.230575">
  <ele>1586.09</ele>
  <time>2026-08-28T19:07:13Z</time>
  <course>285.8</course>
  <speed>0.0</speed>
  <fix>3d</fix>
</trkpt>
<trkpt lat="40.072842" lon="-105.230575">
  <ele>1586.17</ele>
  <time>2026-08-28T19:07:13Z</time>
  <course>11.36</course>
  <speed>0.0</speed>
  <fix>3d</fix>
</trkpt>
<trkpt lat="40.072842" lon="-105.230575">
  <ele>1586.09</ele>
  <time>2026-08-28T19:07:13Z</time>
  <course>283.69</course>
  <speed>0.0</speed>
  <fix>3d</fix>
</trkpt>
<trkpt lat="40.072842" lon="-105.230575">
  <ele>1586.17</ele>
  <time>2026-08-28T19:07:13Z</time>
  <course>11.36</course>
  <speed>0.0</speed>
  <fix>3d</fix>
</trkpt>
<trkpt lat="40.072842" lon="-105.230575">
  <ele>1586.09</ele>
  <time>2026-08-28T19:07:13Z</time>
  <course>286.53</course>
  <speed>0.0</speed>
  <fix>3d</fix>
</trkpt>
<trkpt lat="40.072842" lon="-105.230575">
  <ele>1586.17</ele>
  <time>2026-08-28T19:07:13Z</time>
  <course>11.36</course>
  <speed>0.0</speed>
  <fix>3d</fix>
</trkpt>
<trkpt lat="40.072842" lon="-105.230575">
  <ele>1586.09</ele>
  <time>2026-08-28T19:07:13Z</time>
  <course>286.46</course>
  <speed>0.0</speed>
  <fix>3d</fix>
</trkpt>
<trkpt lat="40.072842" lon="-105.230575">
  <ele>1586.16</ele>
  <time>2026-08-28T19:07:13Z</time>
  <course>11.36</course>
  <speed>0.0</speed>
  <fix>3d</fix>
</trkpt>
<trkpt lat="40.072842" lon="-105.230575">
  <ele>1586.09</ele>
  <time>2026-08-28T19:07:13Z</time>
  <course>286.11</course>
  <speed>0.0</speed>
  <fix>3d</fix>
</trkpt>
<trkpt lat="40.072842" lon="-105.230575">
  <ele>1586.16</ele>
  <time>2026-08-28T19:07:13Z</time>
  <course>11.36</course>
  <speed>0.0</speed>
  <fix>3d</fix>
</trkpt>
<trkpt lat="40.072842" lon="-105.230575">
  <ele>1586.09</ele>
  <time>2026-08-28T19:07:13Z</time>
  <course>286.16</course>
  <speed>0.0</speed>
  <fix>3d</fix>
</trkpt>
<trkpt lat="40.072842" lon="-105.230575">
  <ele>1586.16</ele>
  <time>2026-08-28T19:07:13Z</time>
  <course>11.35</course>
  <speed>0.0</speed>
  <fix>3d</fix>
</trkpt>
<trkpt lat="40.072842" lon="-105.230575">
  <ele>1586.09</ele>
  <time>2026-08-28T19:07:13Z</time>
  <course>286.2</course>
  <speed>0.0</speed>
  <fix>3d</fix>
</trkpt>
<trkpt lat="40.072842" lon="-105.230575">
  <ele>1586.16</ele>
  <time>2026-08-28T19:07:13Z</time>
  <course>11.35</course>
  <speed>0.0</speed>
  <fix>3d</fix>
</trkpt>
<trkpt lat="40.072842" lon="-105.230575">
  <ele>1586.09</ele>
  <time>2026-08-28T19:07:13Z</time>
  <course>286.19</course>
  <speed>0.0</speed>
  <fix>3d</fix>
</trkpt>
<trkpt lat="40.072842" lon="-105.230575">
  <ele>1586.16</ele>
  <time>2026-08-28T19:07:13Z</time>
  <course>11.35</course>
  <speed>0.0</speed>
  <fix>3d</fix>
</trkpt>
<trkpt lat="40.072842" lon="-105.230575">
  <ele>1586.09</ele>
  <time>2026-08-28T19:07:13Z</time>
  <course>286.19</course>
  <speed>0.0</speed>
  <fix>3d</fix>
</trkpt>
<trkpt lat="40.072842" lon="-105.230575">
  <ele>1586.16</ele>
  <time>2026-08-28T19:07:13Z</time>
  <course>11.35</course>
  <speed>0.0</speed>
  <fix>3d</fix>
</trkpt>
<trkpt lat="40.072842" lon="-105.230575">
  <ele>1586.09</ele>
  <time>2026-08-28T19:07:13Z</time>
  <course>286.19</course>
  <speed>0.0</speed>
  <fix>3d</fix>
</trkpt>
<trkpt lat="40.072842" lon="-105.230575">
  <ele>1586.16</ele>
  <time>2026-08-28T19:07:13Z</time>
  <course>11.35</course>
  <speed>0.0</speed>
  <fix>3d</fix>
</trkpt>
<trkpt lat="40.072842" lon="-105.230575">
  <ele>1586.09</ele>
  <time>2026-08-28T19:07:13Z</time>
  <course>299.37</course>
  <speed>0.0</speed>
  <fix>3d</fix>
</trkpt>
<trkpt lat="40.072842" lon="-105.230575">
  <ele>1586.16</ele>
  <time>2026-08-28T19:07:13Z</time>
  <course>11.35</course>
  <speed>0.0</speed>
  <fix>3d</fix>
</trkpt>
<trkpt lat="40.072842" lon="-105.230575">
  <ele>1586.09</ele>
  <time>2026-08-28T19:07:13Z</time>
  <course>264.61</course>
  <speed>0.0</speed>
  <fix>3d</fix>
</trkpt>
<trkpt lat="40.072842" lon="-105.230575">
  <ele>1586.16</ele>
  <time>2026-08-28T19:07:13Z</time>
  <course>11.35</course>
  <speed>0.0</speed>
  <fix>3d</fix>
</trkpt>
<trkpt lat="40.072842" lon="-105.230575">
  <ele>1586.09</ele>
  <time>2026-08-28T19:07:13Z</time>
  <course>254.32</course>
  <speed>0.0</speed>
  <fix>3d</fix>
</trkpt>
<trkpt lat="40.072842" lon="-105.230575">
  <ele>1586.16</ele>
  <time>2026-08-28T19:07:13Z</time>
  <course>11.34</course>
  <speed>0.0</speed>
  <fix>3d</fix>
</trkpt>
<trkpt lat="40.072842" lon="-105.230575">
  <ele>1586.09</ele>
  <time>2026-08-28T19:07:13Z</time>
  <course>105.3</course>
  <speed>0.0</speed>
  <fix>3d</fix>
</trkpt>
<trkpt lat="40.072842" lon="-105.230575">
  <ele>1586.16</ele>
  <time>2026-08-28T19:07:13Z</time>
  <course>11.34</course>
  <speed>0.0</speed>
  <fix>3d</fix>
</trkpt>
<trkpt lat="40.072842" lon="-105.230575">
  <ele>1586.09</ele>
  <time>2026-08-28T19:07:13Z</time>
  <course>329.13</course>
  <speed>0.0</speed>
  <fix>3d</fix>
</trkpt>
<trkpt lat="40.072842" lon="-105.230575">
  <ele>1586.16</ele>
  <time>2026-08-28T19:07:13Z</time>
  <course>11.34</course>
  <speed>0.01</speed>
  <fix>3d</fix>
</trkpt>
<trkpt lat="40.072842" lon="-105.230575">
  <ele>1586.09</ele>
  <time>2026-08-28T19:07:13Z</time>
  <course>278.58</course>
  <speed>0.0</speed>
  <fix>3d</fix>
</trkpt>
<trkpt lat="40.072842" lon="-105.230575">
  <ele>1586.16</ele>
  <time>2026-08-28T19:07:13Z</time>
  <course>11.34</course>
  <speed>0.01</speed>
  <fix>3d</fix>
</trkpt>
<trkpt lat="40.072842" lon="-105.230575">
  <ele>1586.09</ele>
  <time>2026-08-28T19:07:13Z</time>
  <course>277.35</course>
  <speed>0.0</speed>
  <fix>3d</fix>
</trkpt>
<trkpt lat="40.072842" lon="-105.230575">
  <ele>1586.16</ele>
  <time>2026-08-28T19:07:13Z</time>
  <course>11.34</course>
  <speed>0.01</speed>
  <fix>3d</fix>
</trkpt>
<trkpt lat="40.072842" lon="-105.230575">
  <ele>1586.09</ele>
  <time>2026-08-28T19:07:13Z</time>
  <course>281.68</course>
  <speed>0.0</speed>
  <fix>3d</fix>
</trkpt>
<trkpt lat="40.072842" lon="-105.230575">
  <ele>1586.16</ele>
  <time>2026-08-28T19:07:13Z</time>
  <course>11.34</course>
  <speed>0.01</speed>
  <fix>3d</fix>
</trkpt>
<trkpt lat="40.072842" lon="-105.230575">
  <ele>1586.09</ele>
  <time>2026-08-28T19:07:13Z</time>
  <course>281.2</course>
  <speed>0.0</speed>
  <fix>3d</fix>
</trkpt>
<trkpt lat="40.072842" lon="-105.230575">
  <ele>1586.16</ele>
  <time>2026-08-28T19:07:13Z</time>
  <course>11.34</course>
  <speed>0.01</speed>
  <fix>3d</fix>
</trkpt>
<trkpt lat="40.072842" lon="-105.230575">
  <ele>1586.09</ele>
  <time>2026-08-28T19:07:13Z</time>
  <course>280.66</course>
  <speed>0.0</speed>
  <fix>3d</fix>
</trkpt>
<trkpt lat="40.072842" lon="-105.230575">
  <ele>1586.16</ele>
  <time>2026-08-28T19:07:13Z</time>
  <course>11.34</course>
  <speed>0.01</speed>
  <fix>3d</fix>
</trkpt>
<trkpt lat="40.072842" lon="-105.230575">
  <ele>1586.09</ele>
  <time>2026-08-28T19:07:13Z</time>
  <course>280.78</course>
  <speed>0.0</speed>
  <fix>3d</fix>
</trkpt>
<trkpt lat="40.072842" lon="-105.230575">
  <ele>1586.16</ele>
  <time>2026-08-28T19:07:13Z</time>
  <course>11.34</course>
  <speed>0.01414213562373095</speed>
  <fix>3d</fix>
</trkpt>
<trkpt lat="40.072842" lon="-105.230575">
  <ele>1586.09</ele>
  <time>2026-08-28T19:07:13Z</time>
  <course>280.84</course>
  <speed>0.0</speed>
  <fix>3d</fix>
</trkpt>
<trkpt lat="40.072842" lon="-105.230575">
  <ele>1586.16</ele>
  <time>2026-08-28T19:07:13Z</time>
  <course>11.34</course>
  <speed>0.01414213562373095</speed>
  <fix>3d</fix>
</trkpt>
<trkpt lat="40.072842" lon="-105.230575">
  <ele>1586.09</ele>
  <time>2026-08-28T19:07:13Z</time>
  <course>280.82</course>
  <speed>0.0</speed>
  <fix>3d</fix>
</trkpt>
<trkpt lat="40.072842" lon="-105.230575">
  <ele>1586.16</ele>
  <time>2026-08-28T19:07:13Z</time>
  <course>11.34</course>
  <speed>0.01414213562373095</speed>
  <fix>3d</fix>
</trkpt>
<trkpt lat="40.072842" lon="-105.230575">
  <ele>1586.09</ele>
  <time>2026-08-28T19:07:13Z</time>
  <course>280.81</course>
  <speed>0.0</speed>
  <fix>3d</fix>
</trkpt>
<trkpt lat="40.072842" lon="-105.230575">
  <ele>1586.17</ele>
  <time>2026-08-28T19:07:13Z</time>
  <course>11.34</course>
  <speed>0.01414213562373095</speed>
  <fix>3d</fix>
</trkpt>
<trkpt lat="40.072842" lon="-105.230575">
  <ele>1586.09</ele>
  <time>2026-08-28T19:07:13Z</time>
  <course>280.81</course>
  <speed>0.0</speed>
  <fix>3d</fix>
</trkpt>
<trkpt lat="40.072842" lon="-105.230575">
  <ele>1586.17</ele>
  <time>2026-08-28T19:07:13Z</time>
  <course>11.34</course>
  <speed>0.01414213562373095</speed>
  <fix>3d</fix>
</trkpt>
<trkpt lat="40.072842" lon="-105.230575">
  <ele>1586.09</ele>
  <time>2026-08-28T19:07:13Z</time>
  <course>280.81</course>
  <speed>0.0</speed>
  <fix>3d</fix>
</trkpt>
<trkpt lat="40.0728419" lon="-105.230575">
  <ele>1586.17</ele>
  <time>2026-08-28T19:07:13Z</time>
  <course>11.34</course>
  <speed>0.01414213562373095</speed>
  <fix>3d</fix>
</trkpt>
<trkpt lat="40.072842" lon="-105.230575">
  <ele>1586.09</ele>
  <time>2026-08-28T19:07:13Z</time>
  <course>280.81</course>
  <speed>0.0</speed>
  <fix>3d</fix>
</trkpt>
<trkpt lat="40.0728419" lon="-105.230575">
  <ele>1586.17</ele>
  <time>2026-08-28T19:07:13Z</time>
  <course>11.34</course>
  <speed>0.022360679774997897</speed>
  <fix>3d</fix>
</trkpt>
<trkpt lat="40.072842" lon="-105.230575">
  <ele>1586.09</ele>
  <time>2026-08-28T19:07:13Z</time>
  <course>280.81</course>
  <speed>0.0</speed>
  <fix>3d</fix>
</trkpt>
<trkpt lat="40.0728419" lon="-105.2305749">
  <ele>1586.17</ele>
  <time>2026-08-28T19:07:13Z</time>
  <course>11.34</course>
  <speed>0.022360679774997897</speed>
  <fix>3d</fix>
</trkpt>
<trkpt lat="40.072842" lon="-105.230575">
  <ele>1586.09</ele>
  <time>2026-08-28T19:07:13Z</time>
  <course>280.81</course>
  <speed>0.0</speed>
  <fix>3d</fix>
</trkpt>
<trkpt lat="40.0728419" lon="-105.2305749">
  <ele>1586.17</ele>
  <time>2026-08-28T19:07:13Z</time>
  <course>11.34</course>
  <speed>0.022360679774997897</speed>
  <fix>3d</fix>
</trkpt>
<trkpt lat="40.072842" lon="-105.230575">
  <ele>1586.09</ele>
  <time>2026-08-28T19:07:13Z</time>
  <course>301.57</course>
  <speed>0.0</speed>
  <fix>3d</fix>
</trkpt>
<trkpt lat="40.0728419" lon="-105.2305749">
  <ele>1586.17</ele>
  <time>2026-08-28T19:07:13Z</time>
  <course>11.34</course>
  <speed>0.022360679774997897</speed>
  <fix>3d</fix>
</trkpt>
<trkpt lat="40.072842" lon="-105.230575">
  <ele>1586.09</ele>
  <time>2026-08-28T19:07:13Z</time>
  <course>317.11</course>
  <speed>0.0</speed>
  <fix>3d</fix>
</trkpt>
<trkpt lat="40.0728419" lon="-105.2305749">
  <ele>1586.17</ele>
  <time>2026-08-28T19:07:13Z</time>
  <course>11.34</course>
  <speed>0.022360679774997897</speed>
  <fix>3d</fix>
</trkpt>
<trkpt lat="40.072842" lon="-105.230575">
  <ele>1586.09</ele>
  <time>2026-08-28T19:07:13Z</time>
  <course>295.6</course>
  <speed>0.0</speed>
  <fix>3d</fix>
</trkpt>
<trkpt lat="40.0728419" lon="-105.2305749">
  <ele>1586.17</ele>
  <time>2026-08-28T19:07:13Z</time>
  <course>11.34</course>
  <speed>0.022360679774997897</speed>
  <fix>3d</fix>
</trkpt>
<trkpt lat="40.072842" lon="-105.230575">
  <ele>1586.09</ele>
  <time>2026-08-28T19:07:13Z</time>
  <course>176.44</course>
  <speed>0.0</speed>
  <fix>3d</fix>
</trkpt>
<trkpt lat="40.0728419" lon="-105.2305749">
  <ele>1586.17</ele>
  <time>2026-08-28T19:07:13Z</time>
  <course>11.34</course>
  <speed>0.022360679774997897</speed>
  <fix>3d</fix>
</trkpt>
<trkpt lat="40.072842" lon="-105.230575">
  <ele>1586.09</ele>
  <time>2026-08-28T19:07:13Z</time>
  <course>143.57</course>
  <speed>0.0</speed>
  <fix>3d</fix>
</trkpt>
<trkpt lat="40.0728419" lon="-105.2305749">
  <ele>1586.17</ele>
  <time>2026-08-28T19:07:13Z</time>
  <course>11.34</course>
  <speed>0.022360679774997897</speed>
  <fix>3d</fix>
</trkpt>
<trkpt lat="40.072842" lon="-105.230575">
  <ele>1586.09</ele>
  <time>2026-08-28T19:07:13Z</time>
  <course>313.36</course>
  <speed>0.0</speed>
  <fix>3d</fix>
</trkpt>
<trkpt lat="40.0728419" lon="-105.2305749">
  <ele>1586.17</ele>
  <time>2026-08-28T19:07:13Z</time>
  <course>11.34</course>
  <speed>0.022360679774997897</speed>
  <fix>3d</fix>
</trkpt>
<trkpt lat="40.072842" lon="-105.230575">
  <ele>1586.09</ele>
  <time>2026-08-28T19:07:13Z</time>
  <course>293.69</course>
  <speed>0.0</speed>
  <fix>3d</fix>
</trkpt>
<trkpt lat="40.0728419" lon="-105.2305749">
  <ele>1586.16</ele>
  <time>2026-08-28T19:07:13Z</time>
  <course>11.34</course>
  <speed>0.022360679774997897</speed>
  <fix>3d</fix>
</trkpt>
<trkpt lat="40.072842" lon="-105.230575">
  <ele>1586.09</ele>
  <time>2026-08-28T19:07:13Z</time>
  <course>275.33</course>
  <speed>0.0</speed>
  <fix>3d</fix>
</trkpt>
<trkpt lat="40.0728419" lon="-105.2305749">
  <ele>1586.16</ele>
  <time>2026-08-28T19:07:13Z</time>
  <course>11.34</course>
  <speed>0.022360679774997897</speed>
  <fix>3d</fix>
</trkpt>
<trkpt lat="40.072842" lon="-105.230575">
  <ele>1586.09</ele>
  <time>2026-08-28T19:07:13Z</time>
  <course>278.73</course>
  <speed>0.0</speed>
  <fix>3d</fix>
</trkpt>
<trkpt lat="40.0728419" lon="-105.2305749">
  <ele>1586.16</ele>
  <time>2026-08-28T19:07:13Z</time>
  <course>11.34</course>
  <speed>0.022360679774997897</speed>
  <fix>3d</fix>
</trkpt>
<trkpt lat="40.072842" lon="-105.230575">
  <ele>1586.09</ele>
  <time>2026-08-28T19:07:13Z</time>
  <course>281.77</course>
  <speed>0.0</speed>
  <fix>3d</fix>
</trkpt>
<trkpt lat="40.0728419" lon="-105.2305749">
  <ele>1586.16</ele>
  <time>2026-08-28T19:07:13Z</time>
  <course>11.34</course>
  <speed>0.022360679774997897</speed>
  <fix>3d</fix>
</trkpt>
<trkpt lat="40.072842" lon="-105.230575">
  <ele>1586.09</ele>
  <time>2026-08-28T19:07:13Z</time>
  <course>280.96</course>
  <speed>0.0</speed>
  <fix>3d</fix>
</trkpt>
<trkpt lat="40.0728419" lon="-105.2305749">
  <ele>1586.16</ele>
  <time>2026-08-28T19:07:13Z</time>
  <course>11.34</course>
  <speed>0.022360679774997897</speed>
  <fix>3d</fix>
</trkpt>
<trkpt lat="40.072842" lon="-105.230575">
  <ele>1586.09</ele>
  <time>2026-08-28T19:07:13Z</time>
  <course>280.67</course>
  <speed>0.0</speed>
  <fix>3d</fix>
</trkpt>
<trkpt lat="40.0728419" lon="-105.2305749">
  <ele>1586.17</ele>
  <time>2026-08-28T19:07:13Z</time>
  <course>11.34</course>
  <speed>0.022360679774997897</speed>
  <fix>3d</fix>
</trkpt>
<trkpt lat="40.072842" lon="-105.230575">
  <ele>1586.09</ele>
  <time>2026-08-28T19:07:13Z</time>
  <course>280.81</course>
  <speed>0.0</speed>
  <fix>3d</fix>
</trkpt>
<trkpt lat="40.0728419" lon="-105.2305749">
  <ele>1586.17</ele>
  <time>2026-08-28T19:07:13Z</time>
  <course>11.34</course>
  <speed>0.01414213562373095</speed>
  <fix>3d</fix>
</trkpt>
<trkpt lat="40.072842" lon="-105.230575">
  <ele>1586.09</ele>
  <time>2026-08-28T19:07:13Z</time>
  <course>280.83</course>
  <speed>0.0</speed>
  <fix>3d</fix>
</trkpt>
<trkpt lat="40.0728419" lon="-105.2305749">
  <ele>1586.17</ele>
  <time>2026-08-28T19:07:13Z</time>
  <course>11.33</course>
  <speed>0.01414213562373095</speed>
  <fix>3d</fix>
</trkpt>
<trkpt lat="40.072842" lon="-105.230575">
  <ele>1586.09</ele>
  <time>2026-08-28T19:07:13Z</time>
  <course>280.81</course>
  <speed>0.0</speed>
  <fix>3d</fix>
</trkpt>
<trkpt lat="40.0728419" lon="-105.2305749">
  <ele>1586.17</ele>
  <time>2026-08-28T19:07:13Z</time>
  <course>11.33</course>
  <speed>0.01414213562373095</speed>
  <fix>3d</fix>
</trkpt>
<trkpt lat="40.072842" lon="-105.230575">
  <ele>1586.09</ele>
  <time>2026-08-28T19:07:13Z</time>
  <course>99.92</course>
  <speed>0.0</speed>
  <fix>3d</fix>
</trkpt>
<trkpt lat="40.0728419" lon="-105.2305749">
  <ele>1586.18</ele>
  <time>2026-08-28T19:07:13Z</time>
  <course>11.33</course>
  <speed>0.01</speed>
  <fix>3d</fix>
</trkpt>
<trkpt lat="40.072842" lon="-105.230575">
  <ele>1586.09</ele>
  <time>2026-08-28T19:07:13Z</time>
  <course>87.4</course>
  <speed>0.0</speed>
  <fix>3d</fix>
</trkpt>
<trkpt lat="40.0728419" lon="-105.230575">
  <ele>1586.19</ele>
  <time>2026-08-28T19:07:13Z</time>
  <course>11.33</course>
  <speed>0.01</speed>
  <fix>3d</fix>
</trkpt>
<trkpt lat="40.072842" lon="-105.230575">
  <ele>1586.09</ele>
  <time>2026-08-28T19:07:13Z</time>
  <course>348.26</course>
  <speed>0.0</speed>
  <fix>3d</fix>
</trkpt>
<trkpt lat="40.0728419" lon="-105.230575">
  <ele>1586.19</ele>
  <time>2026-08-28T19:07:13Z</time>
  <course>11.33</course>
  <speed>0.01</speed>
  <fix>3d</fix>
</trkpt>
<trkpt lat="40.072842" lon="-105.230575">
  <ele>1586.09</ele>
  <time>2026-08-28T19:07:13Z</time>
  <course>266.85</course>
  <speed>0.0</speed>
  <fix>3d</fix>
</trkpt>
<trkpt lat="40.0728419" lon="-105.230575">
  <ele>1586.19</ele>
  <time>2026-08-28T19:07:13Z</time>
  <course>11.32</course>
  <speed>0.0</speed>
  <fix>3d</fix>
</trkpt>
<trkpt lat="40.072842" lon="-105.230575">
  <ele>1586.09</ele>
  <time>2026-08-28T19:07:13Z</time>
  <course>272.22</course>
  <speed>0.0</speed>
  <fix>3d</fix>
</trkpt>
<trkpt lat="40.0728419" lon="-105.230575">
  <ele>1586.19</ele>
  <time>2026-08-28T19:07:13Z</time>
  <course>11.32</course>
  <speed>0.0</speed>
  <fix>3d</fix>
</trkpt>
<trkpt lat="40.072842" lon="-105.230575">
  <ele>1586.09</ele>
  <time>2026-08-28T19:07:13Z</time>
  <course>298.16</course>
  <speed>0.0</speed>
  <fix>3d</fix>
</trkpt>
<trkpt lat="40.0728419" lon="-105.230575">
  <ele>1586.19</ele>
  <time>2026-08-28T19:07:13Z</time>
  <course>11.32</course>
  <speed>0.0</speed>
  <fix>3d</fix>
</trkpt>
<trkpt lat="40.072842" lon="-105.230575">
  <ele>1586.09</ele>
  <time>2026-08-28T19:07:13Z</time>
  <course>286.47</course>
  <speed>0.0</speed>
  <fix>3d</fix>
</trkpt>
<trkpt lat="40.0728419" lon="-105.230575">
  <ele>1586.18</ele>
  <time>2026-08-28T19:07:13Z</time>
  <course>11.32</course>
  <speed>0.0</speed>
  <fix>3d</fix>
</trkpt>
<trkpt lat="40.072842" lon="-105.230575">
  <ele>1586.09</ele>
  <time>2026-08-28T19:07:13Z</time>
  <course>284.94</course>
  <speed>0.0</speed>
  <fix>3d</fix>
</trkpt>
<trkpt lat="40.0728419" lon="-105.230575">
  <ele>1586.18</ele>
  <time>2026-08-28T19:07:13Z</time>
  <course>11.32</course>
  <speed>0.0</speed>
  <fix>3d</fix>
</trkpt>
<trkpt lat="40.072842" lon="-105.230575">
  <ele>1586.09</ele>
  <time>2026-08-28T19:07:13Z</time>
  <course>286.3</course>
  <speed>0.0</speed>
  <fix>3d</fix>
</trkpt>
<trkpt lat="39.654938" lon="-104.1331666">
  <ele>1569.54</ele>
  <time>2026-08-28T19:07:14Z</time>
  <course>168.11</course>
  <speed>0.0</speed>
  <fix>3d</fix>
</trkpt>
<trkpt lat="40.072842" lon="-105.230575">
  <ele>1586.09</ele>
  <time>2026-08-28T19:07:14Z</time>
  <course>2.03</course>
  <speed>0.0</speed>
  <fix>3d</fix>
</trkpt>
<trkpt lat="40.072842" lon="-105.230575">
  <ele>1586.09</ele>
  <time>2026-08-28T19:07:14Z</time>
  <course>238.4</course>
  <speed>0.0</speed>
  <fix>3d</fix>
</trkpt>
<trkpt lat="40.072842" lon="-105.230575">
  <ele>1586.09</ele>
  <time>2026-08-28T19:07:14Z</time>
  <course>2.4</course>
  <speed>0.0</speed>
  <fix>3d</fix>
</trkpt>
<trkpt lat="40.072842" lon="-105.230575">
  <ele>1586.09</ele>
  <time>2026-08-28T19:07:14Z</time>
  <course>194.29</course>
  <speed>0.0</speed>
  <fix>3d</fix>
</trkpt>
<trkpt lat="40.072842" lon="-105.230575">
  <ele>1586.09</ele>
  <time>2026-08-28T19:07:14Z</time>
  <course>3.13</course>
  <speed>0.0</speed>
  <fix>3d</fix>
</trkpt>
<trkpt lat="40.072842" lon="-105.230575">
  <ele>1586.09</ele>
  <time>2026-08-28T19:07:14Z</time>
  <course>193.66</course>
  <speed>0.0</speed>
  <fix>3d</fix>
</trkpt>
<trkpt lat="40.072842" lon="-105.230575">
  <ele>1586.09</ele>
  <time>2026-08-28T19:07:14Z</time>
  <course>3.82</course>
  <speed>0.0</speed>
  <fix>3d</fix>
</trkpt>
<trkpt lat="40.072842" lon="-105.230575">
  <ele>1586.09</ele>
  <time>2026-08-28T19:07:14Z</time>
  <course>303.54</course>
  <speed>0.0</speed>
  <fix>3d</fix>
</trkpt>
<trkpt lat="40.072842" lon="-105.230575">
  <ele>1586.09</ele>
  <time>2026-08-28T19:07:14Z</time>
  <course>4.45</course>
  <speed>0.0</speed>
  <fix>3d</fix>
</trkpt>
<trkpt lat="40.072842" lon="-105.230575">
  <ele>1586.09</ele>
  <time>2026-08-28T19:07:14Z</time>
  <course>110.94</course>
  <speed>0.0</speed>
  <fix>3d</fix>
</trkpt>
<trkpt lat="40.072842" lon="-105.230575">
  <ele>1586.09</ele>
  <time>2026-08-28T19:07:14Z</time>
  <course>5.03</course>
  <speed>0.0</speed>
  <fix>3d</fix>
</trkpt>
<trkpt lat="40.072842" lon="-105.230575">
  <ele>1586.09</ele>
  <time>2026-08-28T19:07:14Z</time>
  <course>191.21</course>
  <speed>0.0</speed>
  <fix>3d</fix>
</trkpt>
<trkpt lat="40.072842" lon="-105.230575">
  <ele>1586.09</ele>
  <time>2026-08-28T19:07:14Z</time>
  <course>5.6</course>
  <speed>0.0</speed>
  <fix>3d</fix>
</trkpt>
<trkpt lat="40.072842" lon="-105.230575">
  <ele>1586.09</ele>
  <time>2026-08-28T19:07:14Z</time>
  <course>252.23</course>
  <speed>0.0</speed>
  <fix>3d</fix>
</trkpt>
<trkpt lat="40.072842" lon="-105.230575">
  <ele>1586.09</ele>
  <time>2026-08-28T19:07:14Z</time>
  <course>6.13</course>
  <speed>0.0</speed>
  <fix>3d</fix>
</trkpt>
<trkpt lat="40.072842" lon="-105.230575">
  <ele>1586.09</ele>
  <time>2026-08-28T19:07:14Z</time>
  <course>170.36</course>
  <speed>0.0</speed>
  <fix>3d</fix>
</trkpt>
<trkpt lat="40.072842" lon="-105.230575">
  <ele>1586.09</ele>
  <time>2026-08-28T19:07:14Z</time>
  <course>6.62</course>
  <speed>0.0</speed>
  <fix>3d</fix>
</trkpt>
<trkpt lat="40.072842" lon="-105.230575">
  <ele>1586.09</ele>
  <time>2026-08-28T19:07:14Z</time>
  <course>179.36</course>
  <speed>0.0</speed>
  <fix>3d</fix>
</trkpt>
<trkpt lat="40.072842" lon="-105.230575">
  <ele>1586.09</ele>
  <time>2026-08-28T19:07:14Z</time>
  <course>7.08</course>
  <speed>0.0</speed>
  <fix>3d</fix>
</trkpt>
<trkpt lat="40.072842" lon="-105.230575">
  <ele>1586.09</ele>
  <time>2026-08-28T19:07:14Z</time>
  <course>19.98</course>
  <speed>0.0</speed>
  <fix>3d</fix>
</trkpt>
<trkpt lat="40.072842" lon="-105.230575">
  <ele>1586.09</ele>
  <time>2026-08-28T19:07:14Z</time>
  <course>7.51</course>
  <speed>0.0</speed>
  <fix>3d</fix>
</trkpt>
<trkpt lat="40.072842" lon="-105.230575">
  <ele>1586.09</ele>
  <time>2026-08-28T19:07:14Z</time>
  <course>17.49</course>
  <speed>0.0</speed>
  <fix>3d</fix>
</trkpt>
<trkpt lat="40.072842" lon="-105.230575">
  <ele>1586.09</ele>
  <time>2026-08-28T19:07:14Z</time>
  <course>7.91</course>
  <speed>0.0</speed>
  <fix>3d</fix>
</trkpt>
<trkpt lat="40.072842" lon="-105.230575">
  <ele>1586.09</ele>
  <time>2026-08-28T19:07:14Z</time>
  <course>356.19</course>
  <speed>0.0</speed>
  <fix>3d</fix>
</trkpt>
<trkpt lat="40.072842" lon="-105.230575">
  <ele>1586.09</ele>
  <time>2026-08-28T19:07:14Z</time>
  <course>8.27</course>
  <speed>0.0</speed>
  <fix>3d</fix>
</trkpt>
<trkpt lat="40.072842" lon="-105.230575">
  <ele>1586.09</ele>
  <time>2026-08-28T19:07:14Z</time>
  <course>77.32</course>
  <speed>0.0</speed>
  <fix>3d</fix>
</trkpt>
<trkpt lat="40.072842" lon="-105.230575">
  <ele>1586.09</ele>
  <time>2026-08-28T19:07:14Z</time>
  <course>8.61</course>
  <speed>0.0</speed>
  <fix>3d</fix>
</trkpt>
<trkpt lat="40.072842" lon="-105.230575">
  <ele>1586.09</ele>
  <time>2026-08-28T19:07:14Z</time>
  <course>290.54</course>
  <speed>0.0</speed>
  <fix>3d</fix>
</trkpt>
<trkpt lat="40.072842" lon="-105.230575">
  <ele>1586.09</ele>
  <time>2026-08-28T19:07:14Z</time>
  <course>8.92</course>
  <speed>0.0</speed>
  <fix>3d</fix>
</trkpt>
<trkpt lat="40.072842" lon="-105.230575">
  <ele>1586.09</ele>
  <time>2026-08-28T19:07:14Z</time>
  <course>338.69</course>
  <speed>0.0</speed>
  <fix>3d</fix>
</trkpt>
<trkpt lat="40.072842" lon="-105.230575">
  <ele>1586.09</ele>
  <time>2026-08-28T19:07:14Z</time>
  <course>9.21</course>
  <speed>0.0</speed>
  <fix>3d</fix>
</trkpt>
<trkpt lat="40.072842" lon="-105.230575">
  <ele>1586.09</ele>
  <time>2026-08-28T19:07:14Z</time>
  <course>326.81</course>
  <speed>0.0</speed>
  <fix>3d</fix>
</trkpt>
<trkpt lat="40.072842" lon="-105.230575">
  <ele>1586.09</ele>
  <time>2026-08-28T19:07:14Z</time>
  <course>9.48</course>
  <speed>0.0</speed>
  <fix>3d</fix>
</trkpt>
<trkpt lat="40.072842" lon="-105.230575">
  <ele>1586.09</ele>
  <time>2026-08-28T19:07:14Z</time>
  <course>262.23</course>
  <speed>0.0</speed>
  <fix>3d</fix>
</trkpt>
<trkpt lat="40.072842" lon="-105.230575">
  <ele>1586.09</ele>
  <time>2026-08-28T19:07:14Z</time>
  <course>9.72</course>
  <speed>0.0</speed>
  <fix>3d</fix>
</trkpt>
<trkpt lat="40.072842" lon="-105.230575">
  <ele>1586.09</ele>
  <time>2026-08-28T19:07:14Z</time>
  <course>159.08</course>
  <speed>0.0</speed>
  <fix>3d</fix>
</trkpt>
<trkpt lat="40.072842" lon="-105.230575">
  <ele>1586.09</ele>
  <time>2026-08-28T19:07:14Z</time>
  <course>9.95</course>
  <speed>0.0</speed>
  <fix>3d</fix>
</trkpt>
<trkpt lat="40.072842" lon="-105.230575">
  <ele>1586.09</ele>
  <time>2026-08-28T19:07:14Z</time>
  <course>287.98</course>
  <speed>0.0</speed>
  <fix>3d</fix>
</trkpt>
<trkpt lat="40.072842" lon="-105.230575">
  <ele>1586.09</ele>
  <time>2026-08-28T19:07:14Z</time>
  <course>10.15</course>
  <speed>0.0</speed>
  <fix>3d</fix>
</trkpt>
<trkpt lat="40.072842" lon="-105.230575">
  <ele>1586.09</ele>
  <time>2026-08-28T19:07:14Z</time>
  <course>278.3</course>
  <speed>0.0</speed>
  <fix>3d</fix>
</trkpt>
<trkpt lat="40.072842" lon="-105.230575">
  <ele>1586.09</ele>
  <time>2026-08-28T19:07:14Z</time>
  <course>10.34</course>
  <speed>0.0</speed>
  <fix>3d</fix>
</trkpt>
<trkpt lat="40.072842" lon="-105.230575">
  <ele>1586.09</ele>
  <time>2026-08-28T19:07:14Z</time>
  <course>261.72</course>
  <speed>0.0</speed>
  <fix>3d</fix>
</trkpt>
<trkpt lat="40.072842" lon="-105.230575">
  <ele>1586.09</ele>
  <time>2026-08-28T19:07:14Z</time>
  <course>10.51</course>
  <speed>0.0</speed>
  <fix>3d</fix>
</trkpt>
<trkpt lat="40.072842" lon="-105.230575">
  <ele>1586.09</ele>
  <time>2026-08-28T19:07:14Z</time>
  <course>264.4</course>
  <speed>0.0</speed>
  <fix>3d</fix>
</trkpt>
<trkpt lat="40.072842" lon="-105.230575">
  <ele>1586.09</ele>
  <time>2026-08-28T19:07:14Z</time>
  <course>10.67</course>
  <speed>0.0</speed>
  <fix>3d</fix>
</trkpt>
<trkpt lat="40.072842" lon="-105.230575">
  <ele>1586.09</ele>
  <time>2026-08-28T19:07:14Z</time>
  <course>266.8</course>
  <speed>0.0</speed>
  <fix>3d</fix>
</trkpt>
<trkpt lat="40.072842" lon="-105.230575">
  <ele>1586.09</ele>
  <time>2026-08-28T19:07:14Z</time>
  <course>10.81</course>
  <speed>0.0</speed>
  <fix>3d</fix>
</trkpt>
<trkpt lat="40.072842" lon="-105.230575">
  <ele>1586.09</ele>
  <time>2026-08-28T19:07:14Z</time>
  <course>266.15</course>
  <speed>0.0</speed>
  <fix>3d</fix>
</trkpt>
<trkpt lat="40.072842" lon="-105.230575">
  <ele>1586.09</ele>
  <time>2026-08-28T19:07:14Z</time>
  <course>10.94</course>
  <speed>0.0</speed>
  <fix>3d</fix>
</trkpt>
<trkpt lat="40.072842" lon="-105.230575">
  <ele>1586.09</ele>
  <time>2026-08-28T19:07:14Z</time>
  <course>265.92</course>
  <speed>0.0</speed>
  <fix>3d</fix>
</trkpt>
<trkpt lat="40.072842" lon="-105.230575">
  <ele>1586.09</ele>
  <time>2026-08-28T19:07:14Z</time>
  <course>11.06</course>
  <speed>0.0</speed>
  <fix>3d</fix>
</trkpt>
<trkpt lat="40.072842" lon="-105.230575">
  <ele>1586.09</ele>
  <time>2026-08-28T19:07:14Z</time>
  <course>266.03</course>
  <speed>0.0</speed>
  <fix>3d</fix>
</trkpt>
<trkpt lat="40.072842" lon="-105.230575">
  <ele>1586.09</ele>
  <time>2026-08-28T19:07:14Z</time>
  <course>11.18</course>
  <speed>0.0</speed>
  <fix>3d</fix>
</trkpt>
<trkpt lat="40.072842" lon="-105.230575">
  <ele>1586.09</ele>
  <time>2026-08-28T19:07:14Z</time>
  <course>266.05</course>
  <speed>0.0</speed>
  <fix>3d</fix>
</trkpt>
<trkpt lat="40.072842" lon="-105.230575">
  <ele>1586.09</ele>
  <time>2026-08-28T19:07:14Z</time>
  <course>11.28</course>
  <speed>0.0</speed>
  <fix>3d</fix>
</trkpt>
<trkpt lat="40.072842" lon="-105.230575">
  <ele>1586.09</ele>
  <time>2026-08-28T19:07:14Z</time>
  <course>266.03</course>
  <speed>0.0</speed>
  <fix>3d</fix>
</trkpt>
<trkpt lat="40.072842" lon="-105.230575">
  <ele>1586.09</ele>
  <time>2026-08-28T19:07:14Z</time>
  <course>11.37</course>
  <speed>0.0</speed>
  <fix>3d</fix>
</trkpt>
<trkpt lat="40.072842" lon="-105.230575">
  <ele>1586.09</ele>
  <time>2026-08-28T19:07:14Z</time>
  <course>266.03</course>
  <speed>0.0</speed>
  <fix>3d</fix>
</trkpt>
<trkpt lat="40.072842" lon="-105.230575">
  <ele>1586.09</ele>
  <time>2026-08-28T19:07:14Z</time>
  <course>11.45</course>
  <speed>0.0</speed>
  <fix>3d</fix>
</trkpt>
<trkpt lat="40.072842" lon="-105.230575">
  <ele>1586.09</ele>
  <time>2026-08-28T19:07:14Z</time>
  <course>266.03</course>
  <speed>0.0</speed>
  <fix>3d</fix>
</trkpt>
<trkpt lat="40.072842" lon="-105.230575">
  <ele>1586.09</ele>
  <time>2026-08-28T19:07:14Z</time>
  <course>11.52</course>
  <speed>0.0</speed>
  <fix>3d</fix>
</trkpt>
<trkpt lat="40.072842" lon="-105.230575">
  <ele>1586.09</ele>
  <time>2026-08-28T19:07:14Z</time>
  <course>266.03</course>
  <speed>0.0</speed>
  <fix>3d</fix>
</trkpt>
<trkpt lat="40.072842" lon="-105.230575">
  <ele>1586.09</ele>
  <time>2026-08-28T19:07:14Z</time>
  <course>11.59</course>
  <speed>0.0</speed>
  <fix>3d</fix>
</trkpt>
<trkpt lat="40.072842" lon="-105.230575">
  <ele>1586.09</ele>
  <time>2026-08-28T19:07:14Z</time>
  <course>266.03</course>
  <speed>0.0</speed>
  <fix>3d</fix>
</trkpt>
<trkpt lat="40.072842" lon="-105.230575">
  <ele>1586.09</ele>
  <time>2026-08-28T19:07:14Z</time>
  <course>11.65</course>
  <speed>0.0</speed>
  <fix>3d</fix>
</trkpt>
<trkpt lat="40.072842" lon="-105.230575">
  <ele>1586.09</ele>
  <time>2026-08-28T19:07:14Z</time>
  <course>266.03</course>
  <speed>0.0</speed>
  <fix>3d</fix>
</trkpt>
<trkpt lat="40.072842" lon="-105.230575">
  <ele>1586.09</ele>
  <time>2026-08-28T19:07:14Z</time>
  <course>11.71</course>
  <speed>0.0</speed>
  <fix>3d</fix>
</trkpt>
<trkpt lat="40.072842" lon="-105.230575">
  <ele>1586.09</ele>
  <time>2026-08-28T19:07:14Z</time>
  <course>266.03</course>
  <speed>0.0</speed>
  <fix>3d</fix>
</trkpt>
<trkpt lat="40.072842" lon="-105.230575">
  <ele>1586.09</ele>
  <time>2026-08-28T19:07:14Z</time>
  <course>11.76</course>
  <speed>0.0</speed>
  <fix>3d</fix>
</trkpt>
<trkpt lat="40.072842" lon="-105.230575">
  <ele>1586.09</ele>
  <time>2026-08-28T19:07:14Z</time>
  <course>266.03</course>
  <speed>0.0</speed>
  <fix>3d</fix>
</trkpt>
<trkpt lat="40.072842" lon="-105.230575">
  <ele>1586.09</ele>
  <time>2026-08-28T19:07:14Z</time>
  <course>11.81</course>
  <speed>0.0</speed>
  <fix>3d</fix>
</trkpt>
<trkpt lat="40.072842" lon="-105.230575">
  <ele>1586.09</ele>
  <time>2026-08-28T19:07:14Z</time>
  <course>266.03</course>
  <speed>0.0</speed>
  <fix>3d</fix>
</trkpt>
<trkpt lat="40.072842" lon="-105.230575">
  <ele>1586.09</ele>
  <time>2026-08-28T19:07:14Z</time>
  <course>11.85</course>
  <speed>0.0</speed>
  <fix>3d</fix>
</trkpt>
<trkpt lat="40.072842" lon="-105.230575">
  <ele>1586.09</ele>
  <time>2026-08-28T19:07:14Z</time>
  <course>266.03</course>
  <speed>0.0</speed>
  <fix>3d</fix>
</trkpt>
<trkpt lat="40.072842" lon="-105.230575">
  <ele>1586.09</ele>
  <time>2026-08-28T19:07:14Z</time>
  <course>11.88</course>
  <speed>0.0</speed>
  <fix>3d</fix>
</trkpt>
<trkpt lat="40.072842" lon="-105.230575">
  <ele>1586.09</ele>
  <time>2026-08-28T19:07:14Z</time>
  <course>266.03</course>
  <speed>0.0</speed>
  <fix>3d</fix>
</trkpt>
<trkpt lat="40.072842" lon="-105.230575">
  <ele>1586.09</ele>
  <time>2026-08-28T19:07:14Z</time>
  <course>11.92</course>
  <speed>0.0</speed>
  <fix>3d</fix>
</trkpt>
<trkpt lat="40.072842" lon="-105.230575">
  <ele>1586.09</ele>
  <time>2026-08-28T19:07:14Z</time>
  <course>266.03</course>
  <speed>0.0</speed>
  <fix>3d</fix>
</trkpt>
<trkpt lat="40.072842" lon="-105.230575">
  <ele>1586.09</ele>
  <time>2026-08-28T19:07:14Z</time>
  <course>11.95</course>
  <speed>0.0</speed>
  <fix>3d</fix>
</trkpt>
<trkpt lat="40.072842" lon="-105.230575">
  <ele>1586.09</ele>
  <time>2026-08-28T19:07:14Z</time>
  <course>266.03</course>
  <speed>0.0</speed>
  <fix>3d</fix>
</trkpt>
<trkpt lat="40.072842" lon="-105.230575">
  <ele>1586.09</ele>
  <time>2026-08-28T19:07:14Z</time>
  <course>11.97</course>
  <speed>0.0</speed>
  <fix>3d</fix>
</trkpt>
<trkpt lat="40.072842" lon="-105.230575">
  <ele>1586.09</ele>
  <time>2026-08-28T19:07:14Z</time>
  <course>266.03</course>
  <speed>0.0</speed>
  <fix>3d</fix>
</trkpt>
<trkpt lat="40.072842" lon="-105.230575">
  <ele>1586.09</ele>
  <time>2026-08-28T19:07:14Z</time>
  <course>12.0</course>
  <speed>0.0</speed>
  <fix>3d</fix>
</trkpt>
<trkpt lat="40.072842" lon="-105.230575">
  <ele>1586.09</ele>
  <time>2026-08-28T19:07:14Z</time>
  <course>266.03</course>
  <speed>0.0</speed>
  <fix>3d</fix>
</trkpt>
<trkpt lat="40.072842" lon="-105.230575">
  <ele>1586.09</ele>
  <time>2026-08-28T19:07:14Z</time>
  <course>12.02</course>
  <speed>0.0</speed>
  <fix>3d</fix>
</trkpt>
<trkpt lat="40.072842" lon="-105.230575">
  <ele>1586.09</ele>
  <time>2026-08-28T19:07:14Z</time>
  <course>266.03</course>
  <speed>0.0</speed>
  <fix>3d</fix>
</trkpt>
<trkpt lat="40.072842" lon="-105.230575">
  <ele>1586.09</ele>
  <time>2026-08-28T19:07:14Z</time>
  <course>12.03</course>
  <speed>0.0</speed>
  <fix>3d</fix>
</trkpt>
<trkpt lat="40.072842" lon="-105.230575">
  <ele>1586.09</ele>
  <time>2026-08-28T19:07:14Z</time>
  <course>266.03</course>
  <speed>0.0</speed>
  <fix>3d</fix>
</trkpt>
<trkpt lat="40.072842" lon="-105.230575">
  <ele>1586.09</ele>
  <time>2026-08-28T19:07:14Z</time>
  <course>12.05</course>
  <speed>0.0</speed>
  <fix>3d</fix>
</trkpt>
<trkpt lat="40.072842" lon="-105.230575">
  <ele>1586.09</ele>
  <time>2026-08-28T19:07:14Z</time>
  <course>266.03</course>
  <speed>0.0</speed>
  <fix>3d</fix>
</trkpt>
<trkpt lat="40.072842" lon="-105.230575">
  <ele>1586.09</ele>
  <time>2026-08-28T19:07:14Z</time>
  <course>12.07</course>
  <speed>0.0</speed>
  <fix>3d</fix>
</trkpt>
<trkpt lat="40.072842" lon="-105.230575">
  <ele>1586.09</ele>
  <time>2026-08-28T19:07:14Z</time>
  <course>266.03</course>
  <speed>0.0</speed>
  <fix>3d</fix>
</trkpt>
<trkpt lat="40.072842" lon="-105.230575">
  <ele>1586.09</ele>
  <time>2026-08-28T19:07:14Z</time>
  <course>12.08</course>
  <speed>0.0</speed>
  <fix>3d</fix>
</trkpt>
<trkpt lat="40.072842" lon="-105.230575">
  <ele>1586.09</ele>
  <time>2026-08-28T19:07:14Z</time>
  <course>266.03</course>
  <speed>0.0</speed>
  <fix>3d</fix>
</trkpt>
<trkpt lat="40.072842" lon="-105.230575">
  <ele>1586.09</ele>
  <time>2026-08-28T19:07:14Z</time>
  <course>12.09</course>
  <speed>0.0</speed>
  <fix>3d</fix>
</trkpt>
<trkpt lat="40.072842" lon="-105.230575">
  <ele>1586.09</ele>
  <time>2026-08-28T19:07:14Z</time>
  <course>266.03</course>
  <speed>0.0</speed>
  <fix>3d</fix>
</trkpt>
<trkpt lat="40.072842" lon="-105.230575">
  <ele>1586.09</ele>
  <time>2026-08-28T19:07:14Z</time>
  <course>12.1</course>
  <speed>0.0</speed>
  <fix>3d</fix>
</trkpt>
<trkpt lat="40.072842" lon="-105.230575">
  <ele>1586.09</ele>
  <time>2026-08-28T19:07:14Z</time>
  <course>266.03</course>
  <speed>0.0</speed>
  <fix>3d</fix>
</trkpt>
<trkpt lat="40.072842" lon="-105.230575">
  <ele>1586.09</ele>
  <time>2026-08-28T19:07:14Z</time>
  <course>12.1</course>
  <speed>0.0</speed>
  <fix>3d</fix>
</trkpt>
<trkpt lat="40.072842" lon="-105.230575">
  <ele>1586.09</ele>
  <time>2026-08-28T19:07:14Z</time>
  <course>266.03</course>
  <speed>0.0</speed>
  <fix>3d</fix>
</trkpt>
<trkpt lat="40.072842" lon="-105.230575">
  <ele>1586.09</ele>
  <time>2026-08-28T19:07:14Z</time>
  <course>12.11</course>
  <speed>0.0</speed>
  <fix>3d</fix>
</trkpt>
<trkpt lat="40.072842" lon="-105.230575">
  <ele>1586.09</ele>
  <time>2026-08-28T19:07:14Z</time>
  <course>266.03</course>
  <speed>0.0</speed>
  <fix>3d</fix>
</trkpt>
<trkpt lat="40.072842" lon="-105.230575">
  <ele>1586.09</ele>
  <time>2026-08-28T19:07:14Z</time>
  <course>12.12</course>
  <speed>0.0</speed>
  <fix>3d</fix>
</trkpt>
<trkpt lat="40.072842" lon="-105.230575">
  <ele>1586.09</ele>
  <time>2026-08-28T19:07:14Z</time>
  <course>266.03</course>
  <speed>0.0</speed>
  <fix>3d</fix>
</trkpt>
<trkpt lat="40.072842" lon="-105.230575">
  <ele>1586.09</ele>
  <time>2026-08-28T19:07:14Z</time>
  <course>12.12</course>
  <speed>0.0</speed>
  <fix>3d</fix>
</trkpt>
<trkpt lat="40.072842" lon="-105.230575">
  <ele>1586.09</ele>
  <time>2026-08-28T19:07:14Z</time>
  <course>266.03</course>
  <speed>0.0</speed>
  <fix>3d</fix>
</trkpt>
<trkpt lat="40.072842" lon="-105.230575">
  <ele>1586.09</ele>
  <time>2026-08-28T19:07:14Z</time>
  <course>12.12</course>
  <speed>0.0</speed>
  <fix>3d</fix>
</trkpt>
<trkpt lat="40.072842" lon="-105.230575">
  <ele>1586.09</ele>
  <time>2026-08-28T19:07:14Z</time>
  <course>266.03</course>
  <speed>0.0</speed>
  <fix>3d</fix>
</trkpt>
<trkpt lat="40.072842" lon="-105.230575">
  <ele>1586.09</ele>
  <time>2026-08-28T19:07:14Z</time>
  <course>12.13</course>
  <speed>0.0</speed>
  <fix>3d</fix>
</trkpt>
<trkpt lat="40.072842" lon="-105.230575">
  <ele>1586.09</ele>
  <time>2026-08-28T19:07:14Z</time>
  <course>266.03</course>
  <speed>0.0</speed>
  <fix>3d</fix>
</trkpt>
<trkpt lat="40.072842" lon="-105.230575">
  <ele>1586.09</ele>
  <time>2026-08-28T19:07:14Z</time>
  <course>12.13</course>
  <speed>0.0</speed>
  <fix>3d</fix>
</trkpt>
<trkpt lat="40.072842" lon="-105.230575">
  <ele>1586.09</ele>
  <time>2026-08-28T19:07:14Z</time>
  <course>266.03</course>
  <speed>0.0</speed>
  <fix>3d</fix>
</trkpt>
<trkpt lat="40.072842" lon="-105.230575">
  <ele>1586.09</ele>
  <time>2026-08-28T19:07:14Z</time>
  <course>12.13</course>
  <speed>0.0</speed>
  <fix>3d</fix>
</trkpt>
<trkpt lat="40.072842" lon="-105.230575">
  <ele>1586.09</ele>
  <time>2026-08-28T19:07:14Z</time>
  <course>266.03</course>
  <speed>0.0</speed>
  <fix>3d</fix>
</trkpt>
<trkpt lat="40.072842" lon="-105.230575">
  <ele>1586.09</ele>
  <time>2026-08-28T19:07:14Z</time>
  <course>12.12</course>
  <speed>0.01</speed>
  <fix>3d</fix>
</trkpt>
<trkpt lat="40.072842" lon="-105.230575">
  <ele>1586.09</ele>
  <time>2026-08-28T19:07:14Z</time>
  <course>266.03</course>
  <speed>0.0</speed>
  <fix>3d</fix>
</trkpt>
<trkpt lat="40.072842" lon="-105.230575">
  <ele>1586.09</ele>
  <time>2026-08-28T19:07:14Z</time>
  <course>12.12</course>
  <speed>0.01</speed>
  <fix>3d</fix>
</trkpt>
<trkpt lat="40.072842" lon="-105.230575">
  <ele>1586.09</ele>
  <time>2026-08-28T19:07:14Z</time>
  <course>266.03</course>
  <speed>0.0</speed>
  <fix>3d</fix>
</trkpt>
<trkpt lat="40.072842" lon="-105.230575">
  <ele>1586.09</ele>
  <time>2026-08-28T19:07:14Z</time>
  <course>12.12</course>
  <speed>0.01</speed>
  <fix>3d</fix>
</trkpt>
<trkpt lat="40.072842" lon="-105.230575">
  <ele>1586.09</ele>
  <time>2026-08-28T19:07:14Z</time>
  <course>266.03</course>
  <speed>0.0</speed>
  <fix>3d</fix>
</trkpt>
<trkpt lat="40.072842" lon="-105.230575">
  <ele>1586.09</ele>
  <time>2026-08-28T19:07:14Z</time>
  <course>12.12</course>
  <speed>0.01</speed>
  <fix>3d</fix>
</trkpt>
<trkpt lat="40.072842" lon="-105.230575">
  <ele>1586.09</ele>
  <time>2026-08-28T19:07:14Z</time>
  <course>266.03</course>
  <speed>0.0</speed>
  <fix>3d</fix>
</trkpt>
<trkpt lat="40.072842" lon="-105.230575">
  <ele>1586.09</ele>
  <time>2026-08-28T19:07:14Z</time>
  <course>12.11</course>
  <speed>0.01</speed>
  <fix>3d</fix>
</trkpt>
<trkpt lat="40.072842" lon="-105.230575">
  <ele>1586.09</ele>
  <time>2026-08-28T19:07:14Z</time>
  <course>266.03</course>
  <speed>0.0</speed>
  <fix>3d</fix>
</trkpt>
<trkpt lat="40.072842" lon="-105.230575">
  <ele>1586.09</ele>
  <time>2026-08-28T19:07:14Z</time>
  <course>12.11</course>
  <speed>0.01</speed>
  <fix>3d</fix>
</trkpt>
<trkpt lat="40.072842" lon="-105.230575">
  <ele>1586.09</ele>
  <time>2026-08-28T19:07:14Z</time>
  <course>266.03</course>
  <speed>0.0</speed>
  <fix>3d</fix>
</trkpt>
<trkpt lat="40.072842" lon="-105.230575">
  <ele>1586.09</ele>
  <time>2026-08-28T19:07:14Z</time>
  <course>12.1</course>
  <speed>0.01</speed>
  <fix>3d</fix>
</trkpt>
<trkpt lat="40.072842" lon="-105.230575">
  <ele>1586.09</ele>
  <time>2026-08-28T19:07:14Z</time>
  <course>266.03</course>
  <speed>0.0</speed>
  <fix>3d</fix>
</trkpt>
<trkpt lat="40.072842" lon="-105.230575">
  <ele>1586.09</ele>
  <time>2026-08-28T19:07:14Z</time>
  <course>12.1</course>
  <speed>0.01</speed>
  <fix>3d</fix>
</trkpt>
<trkpt lat="40.072842" lon="-105.230575">
  <ele>1586.09</ele>
  <time>2026-08-28T19:07:14Z</time>
  <course>266.03</course>
  <speed>0.0</speed>
  <fix>3d</fix>
</trkpt>
<trkpt lat="40.072842" lon="-105.230575">
  <ele>1586.09</ele>
  <time>2026-08-28T19:07:14Z</time>
  <course>12.09</course>
  <speed>0.01</speed>
  <fix>3d</fix>
</trkpt>
<trkpt lat="40.072842" lon="-105.230575">
  <ele>1586.09</ele>
  <time>2026-08-28T19:07:14Z</time>
  <course>266.03</course>
  <speed>0.0</speed>
  <fix>3d</fix>
</trkpt>
<trkpt lat="40.072842" lon="-105.230575">
  <ele>1586.09</ele>
  <time>2026-08-28T19:07:14Z</time>
  <course>12.09</course>
  <speed>0.01</speed>
  <fix>3d</fix>
</trkpt>
<trkpt lat="40.072842" lon="-105.230575">
  <ele>1586.09</ele>
  <time>2026-08-28T19:07:14Z</time>
  <course>266.03</course>
  <speed>0.0</speed>
  <fix>3d</fix>
</trkpt>
<trkpt lat="40.072842" lon="-105.230575">
  <ele>1586.09</ele>
  <time>2026-08-28T19:07:14Z</time>
  <course>12.08</course>
  <speed>0.01</speed>
  <fix>3d</fix>
</trkpt>
<trkpt lat="40.072842" lon="-105.230575">
  <ele>1586.09</ele>
  <time>2026-08-28T19:07:14Z</time>
  <course>266.03</course>
  <speed>0.0</speed>
  <fix>3d</fix>
</trkpt>
<trkpt lat="40.072842" lon="-105.230575">
  <ele>1586.09</ele>
  <time>2026-08-28T19:07:14Z</time>
  <course>12.08</course>
  <speed>0.01414213562373095</speed>
  <fix>3d</fix>
</trkpt>
<trkpt lat="40.072842" lon="-105.230575">
  <ele>1586.09</ele>
  <time>2026-08-28T19:07:14Z</time>
  <course>266.03</course>
  <speed>0.0</speed>
  <fix>3d</fix>
</trkpt>
<trkpt lat="40.072842" lon="-105.230575">
  <ele>1586.09</ele>
  <time>2026-08-28T19:07:14Z</time>
  <course>12.07</course>
  <speed>0.01414213562373095</speed>
  <fix>3d</fix>
</trkpt>
<trkpt lat="40.072842" lon="-105.230575">
  <ele>1586.09</ele>
  <time>2026-08-28T19:07:14Z</time>
  <course>266.03</course>
  <speed>0.0</speed>
  <fix>3d</fix>
</trkpt>
<trkpt lat="40.072842" lon="-105.230575">
  <ele>1586.09</ele>
  <time>2026-08-28T19:07:14Z</time>
  <course>12.06</course>
  <speed>0.01414213562373095</speed>
  <fix>3d</fix>
</trkpt>
<trkpt lat="40.072842" lon="-105.230575">
  <ele>1586.09</ele>
  <time>2026-08-28T19:07:14Z</time>
  <course>266.03</course>
  <speed>0.0</speed>
  <fix>3d</fix>
</trkpt>
<trkpt lat="40.072842" lon="-105.230575">
  <ele>1586.09</ele>
  <time>2026-08-28T19:07:14Z</time>
  <course>12.05</course>
  <speed>0.01414213562373095</speed>
  <fix>3d</fix>
</trkpt>
<trkpt lat="40.072842" lon="-105.230575">
  <ele>1586.09</ele>
  <time>2026-08-28T19:07:14Z</time>
  <course>266.03</course>
  <speed>0.0</speed>
  <fix>3d</fix>
</trkpt>
<trkpt lat="40.072842" lon="-105.230575">
  <ele>1586.09</ele>
  <time>2026-08-28T19:07:14Z</time>
  <course>12.05</course>
  <speed>0.01414213562373095</speed>
  <fix>3d</fix>
</trkpt>
<trkpt lat="40.072842" lon="-105.230575">
  <ele>1586.09</ele>
  <time>2026-08-28T19:07:14Z</time>
  <course>266.03</course>
  <speed>0.0</speed>
  <fix>3d</fix>
</trkpt>
<trkpt lat="40.072842" lon="-105.230575">
  <ele>1586.09</ele>
  <time>2026-08-28T19:07:14Z</time>
  <course>12.04</course>
  <speed>0.01414213562373095</speed>
  <fix>3d</fix>
</trkpt>
<trkpt lat="40.072842" lon="-105.230575">
  <ele>1586.09</ele>
  <time>2026-08-28T19:07:14Z</time>
  <course>266.03</course>
  <speed>0.0</speed>
  <fix>3d</fix>
</trkpt>
<trkpt lat="40.072842" lon="-105.230575">
  <ele>1586.09</ele>
  <time>2026-08-28T19:07:14Z</time>
  <course>12.03</course>
  <speed>0.01414213562373095</speed>
  <fix>3d</fix>
</trkpt>
<trkpt lat="40.072842" lon="-105.230575">
  <ele>1586.09</ele>
  <time>2026-08-28T19:07:14Z</time>
  <course>266.03</course>
  <speed>0.0</speed>
  <fix>3d</fix>
</trkpt>
<trkpt lat="40.072842" lon="-105.230575">
  <ele>1586.09</ele>
  <time>2026-08-28T19:07:14Z</time>
  <course>12.03</course>
  <speed>0.01414213562373095</speed>
  <fix>3d</fix>
</trkpt>
<trkpt lat="40.072842" lon="-105.230575">
  <ele>1586.09</ele>
  <time>2026-08-28T19:07:14Z</time>
  <course>266.03</course>
  <speed>0.0</speed>
  <fix>3d</fix>
</trkpt>
<trkpt lat="40.072842" lon="-105.230575">
  <ele>1586.09</ele>
  <time>2026-08-28T19:07:14Z</time>
  <course>12.02</course>
  <speed>0.01414213562373095</speed>
  <fix>3d</fix>
</trkpt>
<trkpt lat="40.072842" lon="-105.230575">
  <ele>1586.09</ele>
  <time>2026-08-28T19:07:14Z</time>
  <course>266.03</course>
  <speed>0.0</speed>
  <fix>3d</fix>
</trkpt>
<trkpt lat="40.072842" lon="-105.230575">
  <ele>1586.09</ele>
  <time>2026-08-28T19:07:14Z</time>
  <course>12.01</course>
  <speed>0.01414213562373095</speed>
  <fix>3d</fix>
</trkpt>
<trkpt lat="40.072842" lon="-105.230575">
  <ele>1586.09</ele>
  <time>2026-08-28T19:07:14Z</time>
  <course>266.03</course>
  <speed>0.0</speed>
  <fix>3d</fix>
</trkpt>
<trkpt lat="40.072842" lon="-105.230575">
  <ele>1586.09</ele>
  <time>2026-08-28T19:07:14Z</time>
  <course>12.01</course>
  <speed>0.01414213562373095</speed>
  <fix>3d</fix>
</trkpt>
<trkpt lat="40.072842" lon="-105.230575">
  <ele>1586.09</ele>
  <time>2026-08-28T19:07:14Z</time>
  <course>266.03</course>
  <speed>0.0</speed>
  <fix>3d</fix>
</trkpt>
<trkpt lat="40.072842" lon="-105.230575">
  <ele>1586.09</ele>
  <time>2026-08-28T19:07:14Z</time>
  <course>12.0</course>
  <speed>0.01414213562373095</speed>
  <fix>3d</fix>
</trkpt>
<trkpt lat="40.072842" lon="-105.230575">
  <ele>1586.09</ele>
  <time>2026-08-28T19:07:14Z</time>
  <course>266.03</course>
  <speed>0.0</speed>
  <fix>3d</fix>
</trkpt>
<trkpt lat="40.072842" lon="-105.230575">
  <ele>1586.09</ele>
  <time>2026-08-28T19:07:14Z</time>
  <course>11.99</course>
  <speed>0.01414213562373095</speed>
  <fix>3d</fix>
</trkpt>
<trkpt lat="40.072842" lon="-105.230575">
  <ele>1586.09</ele>
  <time>2026-08-28T19:07:14Z</time>
  <course>266.03</course>
  <speed>0.0</speed>
  <fix>3d</fix>
</trkpt>
<trkpt lat="40.072842" lon="-105.230575">
  <ele>1586.09</ele>
  <time>2026-08-28T19:07:14Z</time>
  <course>11.98</course>
  <speed>0.01414213562373095</speed>
  <fix>3d</fix>
</trkpt>
<trkpt lat="40.072842" lon="-105.230575">
  <ele>1586.09</ele>
  <time>2026-08-28T19:07:14Z</time>
  <course>266.03</course>
  <speed>0.0</speed>
  <fix>3d</fix>
</trkpt>
<trkpt lat="40.072842" lon="-105.230575">
  <ele>1586.09</ele>
  <time>2026-08-28T19:07:14Z</time>
  <course>11.98</course>
  <speed>0.01414213562373095</speed>
  <fix>3d</fix>
</trkpt>
<trkpt lat="40.072842" lon="-105.230575">
  <ele>1586.09</ele>
  <time>2026-08-28T19:07:14Z</time>
  <course>266.03</course>
  <speed>0.0</speed>
  <fix>3d</fix>
</trkpt>
<trkpt lat="40.072842" lon="-105.230575">
  <ele>1586.09</ele>
  <time>2026-08-28T19:07:14Z</time>
  <course>11.97</course>
  <speed>0.022360679774997897</speed>
  <fix>3d</fix>
</trkpt>
<trkpt lat="40.072842" lon="-105.230575">
  <ele>1586.09</ele>
  <time>2026-08-28T19:07:14Z</time>
  <course>266.03</course>
  <speed>0.0</speed>
  <fix>3d</fix>
</trkpt>
<trkpt lat="40.072842" lon="-105.230575">
  <ele>1586.09</ele>
  <time>2026-08-28T19:07:14Z</time>
  <course>11.96</course>
  <speed>0.022360679774997897</speed>
  <fix>3d</fix>
</trkpt>
<trkpt lat="40.072842" lon="-105.230575">
  <ele>1586.09</ele>
  <time>2026-08-28T19:07:14Z</time>
  <course>266.03</course>
  <speed>0.0</speed>
  <fix>3d</fix>
</trkpt>
<trkpt lat="40.072842" lon="-105.230575">
  <ele>1586.09</ele>
  <time>2026-08-28T19:07:14Z</time>
  <course>11.95</course>
  <speed>0.022360679774997897</speed>
  <fix>3d</fix>
</trkpt>
<trkpt lat="40.072842" lon="-105.230575">
  <ele>1586.09</ele>
  <time>2026-08-28T19:07:14Z</time>
  <course>266.03</course>
  <speed>0.0</speed>
  <fix>3d</fix>
</trkpt>
<trkpt lat="40.072842" lon="-105.230575">
  <ele>1586.09</ele>
  <time>2026-08-28T19:07:14Z</time>
  <course>11.94</course>
  <speed>0.022360679774997897</speed>
  <fix>3d</fix>
</trkpt>
<trkpt lat="40.072842" lon="-105.230575">
  <ele>1586.09</ele>
  <time>2026-08-28T19:07:14Z</time>
  <course>266.03</course>
  <speed>0.0</speed>
  <fix>3d</fix>
</trkpt>
<trkpt lat="40.072842" lon="-105.230575">
  <ele>1586.09</ele>
  <time>2026-08-28T19:07:14Z</time>
  <course>11.93</course>
  <speed>0.022360679774997897</speed>
  <fix>3d</fix>
</trkpt>
<trkpt lat="40.072842" lon="-105.230575">
  <ele>1586.09</ele>
  <time>2026-08-28T19:07:14Z</time>
  <course>266.03</course>
  <speed>0.0</speed>
  <fix>3d</fix>
</trkpt>
<trkpt lat="40.072842" lon="-105.230575">
  <ele>1586.09</ele>
  <time>2026-08-28T19:07:14Z</time>
  <course>11.92</course>
  <speed>0.022360679774997897</speed>
  <fix>3d</fix>
</trkpt>
<trkpt lat="40.072842" lon="-105.230575">
  <ele>1586.09</ele>
  <time>2026-08-28T19:07:14Z</time>
  <course>266.03</course>
  <speed>0.0</speed>
  <fix>3d</fix>
</trkpt>
<trkpt lat="40.072842" lon="-105.230575">
  <ele>1586.09</ele>
  <time>2026-08-28T19:07:14Z</time>
  <course>11.92</course>
  <speed>0.022360679774997897</speed>
  <fix>3d</fix>
</trkpt>
<trkpt lat="40.072842" lon="-105.230575">
  <ele>1586.09</ele>
  <time>2026-08-28T19:07:14Z</time>
  <course>266.03</course>
  <speed>0.0</speed>
  <fix>3d</fix>
</trkpt>
<trkpt lat="40.072842" lon="-105.230575">
  <ele>1586.09</ele>
  <time>2026-08-28T19:07:14Z</time>
  <course>11.91</course>
  <speed>0.022360679774997897</speed>
  <fix>3d</fix>
</trkpt>
<trkpt lat="40.072842" lon="-105.230575">
  <ele>1586.09</ele>
  <time>2026-08-28T19:07:14Z</time>
  <course>266.03</course>
  <speed>0.0</speed>
  <fix>3d</fix>
</trkpt>
<trkpt lat="40.072842" lon="-105.230575">
  <ele>1586.09</ele>
  <time>2026-08-28T19:07:14Z</time>
  <course>11.9</course>
  <speed>0.022360679774997897</speed>
  <fix>3d</fix>
</trkpt>
<trkpt lat="40.072842" lon="-105.230575">
  <ele>1586.09</ele>
  <time>2026-08-28T19:07:14Z</time>
  <course>266.03</course>
  <speed>0.0</speed>
  <fix>3d</fix>
</trkpt>
<trkpt lat="40.072842" lon="-105.230575">
  <ele>1586.09</ele>
  <time>2026-08-28T19:07:14Z</time>
  <course>11.89</course>
  <speed>0.022360679774997897</speed>
  <fix>3d</fix>
</trkpt>
<trkpt lat="40.072842" lon="-105.230575">
  <ele>1586.09</ele>
  <time>2026-08-28T19:07:14Z</time>
  <course>266.03</course>
  <speed>0.0</speed>
  <fix>3d</fix>
</trkpt>
<trkpt lat="40.072842" lon="-105.230575">
  <ele>1586.09</ele>
  <time>2026-08-28T19:07:14Z</time>
  <course>11.88</course>
  <speed>0.022360679774997897</speed>
  <fix>3d</fix>
</trkpt>
<trkpt lat="40.072842" lon="-105.230575">
  <ele>1586.09</ele>
  <time>2026-08-28T19:07:14Z</time>
  <course>266.03</course>
  <speed>0.0</speed>
  <fix>3d</fix>
</trkpt>
<trkpt lat="40.072842" lon="-105.230575">
  <ele>1586.09</ele>
  <time>2026-08-28T19:07:14Z</time>
  <course>11.88</course>
  <speed>0.022360679774997897</speed>
  <fix>3d</fix>
</trkpt>
<trkpt lat="40.072842" lon="-105.230575">
  <ele>1586.09</ele>
  <time>2026-08-28T19:07:14Z</time>
  <course>266.03</course>
  <speed>0.0</speed>
  <fix>3d</fix>
</trkpt>
<trkpt lat="40.072842" lon="-105.230575">
  <ele>1586.09</ele>
  <time>2026-08-28T19:07:14Z</time>
  <course>11.87</course>
  <speed>0.022360679774997897</speed>
  <fix>3d</fix>
</trkpt>
<trkpt lat="40.072842" lon="-105.230575">
  <ele>1586.09</ele>
  <time>2026-08-28T19:07:14Z</time>
  <course>266.03</course>
  <speed>0.0</speed>
  <fix>3d</fix>
</trkpt>
<trkpt lat="40.072842" lon="-105.230575">
  <ele>1586.09</ele>
  <time>2026-08-28T19:07:14Z</time>
  <course>11.86</course>
  <speed>0.022360679774997897</speed>
  <fix>3d</fix>
</trkpt>
<trkpt lat="40.072842" lon="-105.230575">
  <ele>1586.09</ele>
  <time>2026-08-28T19:07:14Z</time>
  <course>266.03</course>
  <speed>0.0</speed>
  <fix>3d</fix>
</trkpt>
<trkpt lat="40.072842" lon="-105.230575">
  <ele>1586.09</ele>
  <time>2026-08-28T19:07:14Z</time>
  <course>11.85</course>
  <speed>0.022360679774997897</speed>
  <fix>3d</fix>
</trkpt>
<trkpt lat="40.072842" lon="-105.230575">
  <ele>1586.09</ele>
  <time>2026-08-28T19:07:14Z</time>
  <course>266.03</course>
  <speed>0.0</speed>
  <fix>3d</fix>
</trkpt>
<trkpt lat="40.072842" lon="-105.230575">
  <ele>1586.09</ele>
  <time>2026-08-28T19:07:14Z</time>
  <course>11.84</course>
  <speed>0.0282842712474619</speed>
  <fix>3d</fix>
</trkpt>
<trkpt lat="40.072842" lon="-105.230575">
  <ele>1586.09</ele>
  <time>2026-08-28T19:07:14Z</time>
  <course>266.03</course>
  <speed>0.0</speed>
  <fix>3d</fix>
</trkpt>
<trkpt lat="40.072842" lon="-105.230575">
  <ele>1586.09</ele>
  <time>2026-08-28T19:07:14Z</time>
  <course>11.83</course>
  <speed>0.0282842712474619</speed>
  <fix>3d</fix>
</trkpt>
<trkpt lat="40.072842" lon="-105.230575">
  <ele>1586.09</ele>
  <time>2026-08-28T19:07:14Z</time>
  <course>266.03</course>
  <speed>0.0</speed>
  <fix>3d</fix>
</trkpt>
<trkpt lat="40.072842" lon="-105.230575">
  <ele>1586.09</ele>
  <time>2026-08-28T19:07:14Z</time>
  <course>11.83</course>
  <speed>0.0282842712474619</speed>
  <fix>3d</fix>
</trkpt>
<trkpt lat="40.072842" lon="-105.230575">
  <ele>1586.09</ele>
  <time>2026-08-28T19:07:14Z</time>
  <course>266.03</course>
  <speed>0.0</speed>
  <fix>3d</fix>
</trkpt>
<trkpt lat="40.072842" lon="-105.230575">
  <ele>1586.09</ele>
  <time>2026-08-28T19:07:14Z</time>
  <course>11.82</course>
  <speed>0.0282842712474619</speed>
  <fix>3d</fix>
</trkpt>
<trkpt lat="40.072842" lon="-105.230575">
  <ele>1586.09</ele>
  <time>2026-08-28T19:07:14Z</time>
  <course>266.03</course>
  <speed>0.0</speed>
  <fix>3d</fix>
</trkpt>
<trkpt lat="40.072842" lon="-105.230575">
  <ele>1586.09</ele>
  <time>2026-08-28T19:07:14Z</time>
  <course>11.81</course>
  <speed>0.0282842712474619</speed>
  <fix>3d</fix>
</trkpt>
<trkpt lat="40.072842" lon="-105.230575">
  <ele>1586.09</ele>
  <time>2026-08-28T19:07:14Z</time>
  <course>266.03</course>
  <speed>0.0</speed>
  <fix>3d</fix>
</trkpt>
<trkpt lat="40.072842" lon="-105.230575">
  <ele>1586.09</ele>
  <time>2026-08-28T19:07:14Z</time>
  <course>11.8</course>
  <speed>0.0282842712474619</speed>
  <fix>3d</fix>
</trkpt>
<trkpt lat="40.072842" lon="-105.230575">
  <ele>1586.09</ele>
  <time>2026-08-28T19:07:14Z</time>
  <course>266.03</course>
  <speed>0.0</speed>
  <fix>3d</fix>
</trkpt>
<trkpt lat="40.072842" lon="-105.230575">
  <ele>1586.09</ele>
  <time>2026-08-28T19:07:14Z</time>
  <course>11.79</course>
  <speed>0.0282842712474619</speed>
  <fix>3d</fix>
</trkpt>
<trkpt lat="40.072842" lon="-105.230575">
  <ele>1586.09</ele>
  <time>2026-08-28T19:07:14Z</time>
  <course>266.03</course>
  <speed>0.0</speed>
  <fix>3d</fix>
</trkpt>
<trkpt lat="40.072842" lon="-105.230575">
  <ele>1586.09</ele>
  <time>2026-08-28T19:07:14Z</time>
  <course>11.79</course>
  <speed>0.0282842712474619</speed>
  <fix>3d</fix>
</trkpt>
<trkpt lat="40.072842" lon="-105.230575">
  <ele>1586.09</ele>
  <time>2026-08-28T19:07:14Z</time>
  <course>266.03</course>
  <speed>0.0</speed>
  <fix>3d</fix>
</trkpt>
<trkpt lat="40.072842" lon="-105.230575">
  <ele>1586.09</ele>
  <time>2026-08-28T19:07:14Z</time>
  <course>11.78</course>
  <speed>0.0282842712474619</speed>
  <fix>3d</fix>
</trkpt>
<trkpt lat="40.072842" lon="-105.230575">
  <ele>1586.09</ele>
  <time>2026-08-28T19:07:14Z</time>
  <course>266.03</course>
  <speed>0.0</speed>
  <fix>3d</fix>
</trkpt>
<trkpt lat="40.072842" lon="-105.230575">
  <ele>1586.09</ele>
  <time>2026-08-28T19:07:14Z</time>
  <course>11.77</course>
  <speed>0.0282842712474619</speed>
  <fix>3d</fix>
</trkpt>
<trkpt lat="40.072842" lon="-105.230575">
  <ele>1586.09</ele>
  <time>2026-08-28T19:07:14Z</time>
  <course>266.03</course>
  <speed>0.0</speed>
  <fix>3d</fix>
</trkpt>
<trkpt lat="40.072842" lon="-105.230575">
  <ele>1586.09</ele>
  <time>2026-08-28T19:07:15Z</time>
  <course>11.77</course>
  <speed>0.0282842712474619</speed>
  <fix>3d</fix>
</trkpt>
<trkpt lat="40.072842" lon="-105.230575">
  <ele>1586.09</ele>
  <time>2026-08-28T19:07:15Z</time>
  <course>266.03</course>
  <speed>0.0</speed>
  <fix>3d</fix>
</trkpt>
<trkpt lat="40.072842" lon="-105.230575">
  <ele>1586.09</ele>
  <time>2026-08-28T19:07:15Z</time>
  <course>11.76</course>
  <speed>0.0282842712474619</speed>
  <fix>3d</fix>
</trkpt>
<trkpt lat="40.072842" lon="-105.230575">
  <ele>1586.09</ele>
  <time>2026-08-28T19:07:15Z</time>
  <course>266.03</course>
  <speed>0.0</speed>
  <fix>3d</fix>
</trkpt>
<trkpt lat="40.072842" lon="-105.230575">
  <ele>1586.09</ele>
  <time>2026-08-28T19:07:15Z</time>
  <course>11.75</course>
  <speed>0.0282842712474619</speed>
  <fix>3d</fix>
</trkpt>
<trkpt lat="40.072842" lon="-105.230575">
  <ele>1586.09</ele>
  <time>2026-08-28T19:07:15Z</time>
  <course>266.03</course>
  <speed>0.0</speed>
  <fix>3d</fix>
</trkpt>
<trkpt lat="40.072842" lon="-105.230575">
  <ele>1586.09</ele>
  <time>2026-08-28T19:07:15Z</time>
  <course>11.74</course>
  <speed>0.03605551275463989</speed>
  <fix>3d</fix>
</trkpt>
<trkpt lat="40.072842" lon="-105.230575">
  <ele>1586.09</ele>
  <time>2026-08-28T19:07:15Z</time>
  <course>266.03</course>
  <speed>0.0</speed>
  <fix>3d</fix>
</trkpt>
<trkpt lat="40.072842" lon="-105.230575">
  <ele>1586.09</ele>
  <time>2026-08-28T19:07:15Z</time>
  <course>11.73</course>
  <speed>0.03605551275463989</speed>
  <fix>3d</fix>
</trkpt>
<trkpt lat="40.072842" lon="-105.230575">
  <ele>1586.09</ele>
  <time>2026-08-28T19:07:15Z</time>
  <course>266.03</course>
  <speed>0.0</speed>
  <fix>3d</fix>
</trkpt>
<trkpt lat="39.654938" lon="-104.1331666">
  <ele>1569.54</ele>
  <time>2026-08-28T19:07:15Z</time>
  <course>168.11</course>
  <speed>0.0</speed>
  <fix>3d</fix>
</trkpt>
<trkpt lat="40.072842" lon="-105.230575">
  <ele>1586.09</ele>
  <time>2026-08-28T19:07:15Z</time>
  <course>2.03</course>
  <speed>0.0</speed>
  <fix>3d</fix>
</trkpt>
<trkpt lat="40.072842" lon="-105.230575">
  <ele>1586.09</ele>
  <time>2026-08-28T19:07:15Z</time>
  <course>238.4</course>
  <speed>0.0</speed>
  <fix>3d</fix>
</trkpt>
<trkpt lat="40.072842" lon="-105.230575">
  <ele>1586.09</ele>
  <time>2026-08-28T19:07:15Z</time>
  <course>2.4</course>
  <speed>0.0</speed>
  <fix>3d</fix>
</trkpt>
<trkpt lat="40.072842" lon="-105.230575">
  <ele>1586.09</ele>
  <time>2026-08-28T19:07:15Z</time>
  <course>194.29</course>
  <speed>0.0</speed>
  <fix>3d</fix>
</trkpt>
<trkpt lat="40.072842" lon="-105.230575">
  <ele>1586.09</ele>
  <time>2026-08-28T19:07:15Z</time>
  <course>3.13</course>
  <speed>0.0</speed>
  <fix>3d</fix>
</trkpt>
<trkpt lat="40.072842" lon="-105.230575">
  <ele>1586.09</ele>
  <time>2026-08-28T19:07:15Z</time>
  <course>193.66</course>
  <speed>0.0</speed>
  <fix>3d</fix>
</trkpt>
<trkpt lat="40.072842" lon="-105.230575">
  <ele>1586.09</ele>
  <time>2026-08-28T19:07:15Z</time>
  <course>3.82</course>
  <speed>0.0</speed>
  <fix>3d</fix>
</trkpt>
<trkpt lat="40.072842" lon="-105.230575">
  <ele>1586.09</ele>
  <time>2026-08-28T19:07:15Z</time>
  <course>303.54</course>
  <speed>0.0</speed>
  <fix>3d</fix>
</trkpt>
<trkpt lat="40.072842" lon="-105.230575">
  <ele>1586.09</ele>
  <time>2026-08-28T19:07:15Z</time>
  <course>4.45</course>
  <speed>0.0</speed>
  <fix>3d</fix>
</trkpt>
<trkpt lat="40.072842" lon="-105.230575">
  <ele>1586.09</ele>
  <time>2026-08-28T19:07:15Z</time>
  <course>110.94</course>
  <speed>0.0</speed>
  <fix>3d</fix>
</trkpt>
<trkpt lat="40.072842" lon="-105.230575">
  <ele>1586.09</ele>
  <time>2026-08-28T19:07:15Z</time>
  <course>5.03</course>
  <speed>0.0</speed>
  <fix>3d</fix>
</trkpt>
<trkpt lat="40.072842" lon="-105.230575">
  <ele>1586.09</ele>
  <time>2026-08-28T19:07:15Z</time>
  <course>191.21</course>
  <speed>0.0</speed>
  <fix>3d</fix>
</trkpt>
<trkpt lat="40.072842" lon="-105.230575">
  <ele>1586.09</ele>
  <time>2026-08-28T19:07:15Z</time>
  <course>5.6</course>
  <speed>0.0</speed>
  <fix>3d</fix>
</trkpt>
<trkpt lat="40.072842" lon="-105.230575">
  <ele>1586.09</ele>
  <time>2026-08-28T19:07:15Z</time>
  <course>252.23</course>
  <speed>0.0</speed>
  <fix>3d</fix>
</trkpt>
<trkpt lat="40.072842" lon="-105.230575">
  <ele>1586.09</ele>
  <time>2026-08-28T19:07:15Z</time>
  <course>6.13</course>
  <speed>0.0</speed>
  <fix>3d</fix>
</trkpt>
<trkpt lat="40.072842" lon="-105.230575">
  <ele>1586.09</ele>
  <time>2026-08-28T19:07:15Z</time>
  <course>170.36</course>
  <speed>0.0</speed>
  <fix>3d</fix>
</trkpt>
<trkpt lat="40.072842" lon="-105.230575">
  <ele>1586.09</ele>
  <time>2026-08-28T19:07:15Z</time>
  <course>6.62</course>
  <speed>0.0</speed>
  <fix>3d</fix>
</trkpt>
<trkpt lat="40.072842" lon="-105.230575">
  <ele>1586.09</ele>
  <time>2026-08-28T19:07:15Z</time>
  <course>179.36</course>
  <speed>0.0</speed>
  <fix>3d</fix>
</trkpt>
<trkpt lat="40.072842" lon="-105.230575">
  <ele>1586.09</ele>
  <time>2026-08-28T19:07:15Z</time>
  <course>7.08</course>
  <speed>0.0</speed>
  <fix>3d</fix>
</trkpt>
<trkpt lat="40.072842" lon="-105.230575">
  <ele>1586.09</ele>
  <time>2026-08-28T19:07:15Z</time>
  <course>19.98</course>
  <speed>0.0</speed>
  <fix>3d</fix>
</trkpt>
<trkpt lat="40.072842" lon="-105.230575">
  <ele>1586.09</ele>
  <time>2026-08-28T19:07:15Z</time>
  <course>7.51</course>
  <speed>0.0</speed>
  <fix>3d</fix>
</trkpt>
<trkpt lat="40.072842" lon="-105.230575">
  <ele>1586.09</ele>
  <time>2026-08-28T19:07:15Z</time>
  <course>17.49</course>
  <speed>0.0</speed>
  <fix>3d</fix>
</trkpt>
<trkpt lat="40.072842" lon="-105.230575">
  <ele>1586.09</ele>
  <time>2026-08-28T19:07:15Z</time>
  <course>7.91</course>
  <speed>0.0</speed>
  <fix>3d</fix>
</trkpt>
<trkpt lat="40.072842" lon="-105.230575">
  <ele>1586.09</ele>
  <time>2026-08-28T19:07:15Z</time>
  <course>356.19</course>
  <speed>0.0</speed>
  <fix>3d</fix>
</trkpt>
<trkpt lat="40.072842" lon="-105.230575">
  <ele>1586.09</ele>
  <time>2026-08-28T19:07:15Z</time>
  <course>8.27</course>
  <speed>0.0</speed>
  <fix>3d</fix>
</trkpt>
<trkpt lat="40.072842" lon="-105.230575">
  <ele>1586.09</ele>
  <time>2026-08-28T19:07:15Z</time>
  <course>77.32</course>
  <speed>0.0</speed>
  <fix>3d</fix>
</trkpt>
<trkpt lat="40.072842" lon="-105.230575">
  <ele>1586.09</ele>
  <time>2026-08-28T19:07:15Z</time>
  <course>8.61</course>
  <speed>0.0</speed>
  <fix>3d</fix>
</trkpt>
<trkpt lat="40.072842" lon="-105.230575">
  <ele>1586.09</ele>
  <time>2026-08-28T19:07:15Z</time>
  <course>290.54</course>
  <speed>0.0</speed>
  <fix>3d</fix>
</trkpt>
<trkpt lat="40.072842" lon="-105.230575">
  <ele>1586.09</ele>
  <time>2026-08-28T19:07:15Z</time>
  <course>8.92</course>
  <speed>0.0</speed>
  <fix>3d</fix>
</trkpt>
<trkpt lat="40.072842" lon="-105.230575">
  <ele>1586.09</ele>
  <time>2026-08-28T19:07:15Z</time>
  <course>338.69</course>
  <speed>0.0</speed>
  <fix>3d</fix>
</trkpt>
<trkpt lat="40.072842" lon="-105.230575">
  <ele>1586.09</ele>
  <time>2026-08-28T19:07:15Z</time>
  <course>9.21</course>
  <speed>0.0</speed>
  <fix>3d</fix>
</trkpt>
<trkpt lat="40.072842" lon="-105.230575">
  <ele>1586.09</ele>
  <time>2026-08-28T19:07:15Z</time>
  <course>326.81</course>
  <speed>0.0</speed>
  <fix>3d</fix>
</trkpt>
<trkpt lat="40.072842" lon="-105.230575">
  <ele>1586.09</ele>
  <time>2026-08-28T19:07:15Z</time>
  <course>9.48</course>
  <speed>0.0</speed>
  <fix>3d</fix>
</trkpt>
<trkpt lat="40.072842" lon="-105.230575">
  <ele>1586.09</ele>
  <time>2026-08-28T19:07:15Z</time>
  <course>262.23</course>
  <speed>0.0</speed>
  <fix>3d</fix>
</trkpt>
<trkpt lat="40.072842" lon="-105.230575">
  <ele>1586.09</ele>
  <time>2026-08-28T19:07:15Z</time>
  <course>9.72</course>
  <speed>0.0</speed>
  <fix>3d</fix>
</trkpt>
<trkpt lat="40.072842" lon="-105.230575">
  <ele>1586.09</ele>
  <time>2026-08-28T19:07:15Z</time>
  <course>159.08</course>
  <speed>0.0</speed>
  <fix>3d</fix>
</trkpt>
<trkpt lat="40.072842" lon="-105.230575">
  <ele>1586.09</ele>
  <time>2026-08-28T19:07:15Z</time>
  <course>9.95</course>
  <speed>0.0</speed>
  <fix>3d</fix>
</trkpt>
<trkpt lat="40.072842" lon="-105.230575">
  <ele>1586.09</ele>
  <time>2026-08-28T19:07:15Z</time>
  <course>287.98</course>
  <speed>0.0</speed>
  <fix>3d</fix>
</trkpt>
<trkpt lat="40.072842" lon="-105.230575">
  <ele>1586.09</ele>
  <time>2026-08-28T19:07:15Z</time>
  <course>10.15</course>
  <speed>0.0</speed>
  <fix>3d</fix>
</trkpt>
<trkpt lat="40.072842" lon="-105.230575">
  <ele>1586.09</ele>
  <time>2026-08-28T19:07:15Z</time>
  <course>278.3</course>
  <speed>0.0</speed>
  <fix>3d</fix>
</trkpt>
<trkpt lat="40.072842" lon="-105.230575">
  <ele>1586.09</ele>
  <time>2026-08-28T19:07:15Z</time>
  <course>10.34</course>
  <speed>0.0</speed>
  <fix>3d</fix>
</trkpt>
<trkpt lat="40.072842" lon="-105.230575">
  <ele>1586.09</ele>
  <time>2026-08-28T19:07:15Z</time>
  <course>261.72</course>
  <speed>0.0</speed>
  <fix>3d</fix>
</trkpt>
<trkpt lat="40.072842" lon="-105.230575">
  <ele>1586.09</ele>
  <time>2026-08-28T19:07:15Z</time>
  <course>10.51</course>
  <speed>0.0</speed>
  <fix>3d</fix>
</trkpt>
<trkpt lat="40.072842" lon="-105.230575">
  <ele>1586.09</ele>
  <time>2026-08-28T19:07:15Z</time>
  <course>264.4</course>
  <speed>0.0</speed>
  <fix>3d</fix>
</trkpt>
<trkpt lat="40.072842" lon="-105.230575">
  <ele>1586.09</ele>
  <time>2026-08-28T19:07:15Z</time>
  <course>10.67</course>
  <speed>0.0</speed>
  <fix>3d</fix>
</trkpt>
<trkpt lat="40.072842" lon="-105.230575">
  <ele>1586.09</ele>
  <time>2026-08-28T19:07:15Z</time>
  <course>266.8</course>
  <speed>0.0</speed>
  <fix>3d</fix>
</trkpt>
<trkpt lat="40.072842" lon="-105.230575">
  <ele>1586.09</ele>
  <time>2026-08-28T19:07:15Z</time>
  <course>10.81</course>
  <speed>0.0</speed>
  <fix>3d</fix>
</trkpt>
<trkpt lat="40.072842" lon="-105.230575">
  <ele>1586.09</ele>
  <time>2026-08-28T19:07:15Z</time>
  <course>266.15</course>
  <speed>0.0</speed>
  <fix>3d</fix>
</trkpt>
<trkpt lat="40.072842" lon="-105.230575">
  <ele>1586.09</ele>
  <time>2026-08-28T19:07:15Z</time>
  <course>10.94</course>
  <speed>0.0</speed>
  <fix>3d</fix>
</trkpt>
<trkpt lat="40.072842" lon="-105.230575">
  <ele>1586.09</ele>
  <time>2026-08-28T19:07:15Z</time>
  <course>265.92</course>
  <speed>0.0</speed>
  <fix>3d</fix>
</trkpt>
<trkpt lat="40.072842" lon="-105.230575">
  <ele>1586.09</ele>
  <time>2026-08-28T19:07:15Z</time>
  <course>11.06</course>
  <speed>0.0</speed>
  <fix>3d</fix>
</trkpt>
<trkpt lat="40.072842" lon="-105.230575">
  <ele>1586.09</ele>
  <time>2026-08-28T19:07:15Z</time>
  <course>266.03</course>
  <speed>0.0</speed>
  <fix>3d</fix>
</trkpt>
<trkpt lat="40.072842" lon="-105.230575">
  <ele>1586.09</ele>
  <time>2026-08-28T19:07:15Z</time>
  <course>11.18</course>
  <speed>0.0</speed>
  <fix>3d</fix>
</trkpt>
<trkpt lat="40.072842" lon="-105.230575">
  <ele>1586.09</ele>
  <time>2026-08-28T19:07:15Z</time>
  <course>266.05</course>
  <speed>0.0</speed>
  <fix>3d</fix>
</trkpt>
<trkpt lat="40.072842" lon="-105.230575">
  <ele>1586.09</ele>
  <time>2026-08-28T19:07:15Z</time>
  <course>11.28</course>
  <speed>0.0</speed>
  <fix>3d</fix>
</trkpt>
<trkpt lat="40.072842" lon="-105.230575">
  <ele>1586.09</ele>
  <time>2026-08-28T19:07:15Z</time>
  <course>266.03</course>
  <speed>0.0</speed>
  <fix>3d</fix>
</trkpt>
<trkpt lat="40.072842" lon="-105.230575">
  <ele>1586.09</ele>
  <time>2026-08-28T19:07:15Z</time>
  <course>11.37</course>
  <speed>0.0</speed>
  <fix>3d</fix>
</trkpt>
<trkpt lat="40.072842" lon="-105.230575">
  <ele>1586.09</ele>
  <time>2026-08-28T19:07:15Z</time>
  <course>266.03</course>
  <speed>0.0</speed>
  <fix>3d</fix>
</trkpt>
<trkpt lat="40.072842" lon="-105.230575">
  <ele>1586.09</ele>
  <time>2026-08-28T19:07:15Z</time>
  <course>11.45</course>
  <speed>0.0</speed>
  <fix>3d</fix>
</trkpt>
<trkpt lat="40.072842" lon="-105.230575">
  <ele>1586.09</ele>
  <time>2026-08-28T19:07:15Z</time>
  <course>266.03</course>
  <speed>0.0</speed>
  <fix>3d</fix>
</trkpt>
<trkpt lat="40.072842" lon="-105.230575">
  <ele>1586.09</ele>
  <time>2026-08-28T19:07:15Z</time>
  <course>11.52</course>
  <speed>0.0</speed>
  <fix>3d</fix>
</trkpt>
<trkpt lat="40.072842" lon="-105.230575">
  <ele>1586.09</ele>
  <time>2026-08-28T19:07:15Z</time>
  <course>266.03</course>
  <speed>0.0</speed>
  <fix>3d</fix>
</trkpt>
<trkpt lat="40.072842" lon="-105.230575">
  <ele>1586.09</ele>
  <time>2026-08-28T19:07:15Z</time>
  <course>11.59</course>
  <speed>0.0</speed>
  <fix>3d</fix>
</trkpt>
<trkpt lat="40.072842" lon="-105.230575">
  <ele>1586.09</ele>
  <time>2026-08-28T19:07:15Z</time>
  <course>266.03</course>
  <speed>0.0</speed>
  <fix>3d</fix>
</trkpt>
<trkpt lat="40.072842" lon="-105.230575">
  <ele>1586.09</ele>
  <time>2026-08-28T19:07:15Z</time>
  <course>11.65</course>
  <speed>0.0</speed>
  <fix>3d</fix>
</trkpt>
<trkpt lat="40.072842" lon="-105.230575">
  <ele>1586.09</ele>
  <time>2026-08-28T19:07:15Z</time>
  <course>266.03</course>
  <speed>0.0</speed>
  <fix>3d</fix>
</trkpt>
<trkpt lat="40.072842" lon="-105.230575">
  <ele>1586.09</ele>
  <time>2026-08-28T19:07:15Z</time>
  <course>11.71</course>
  <speed>0.0</speed>
  <fix>3d</fix>
</trkpt>
<trkpt lat="40.072842" lon="-105.230575">
  <ele>1586.09</ele>
  <time>2026-08-28T19:07:15Z</time>
  <course>266.03</course>
  <speed>0.0</speed>
  <fix>3d</fix>
</trkpt>
<trkpt lat="40.072842" lon="-105.230575">
  <ele>1586.09</ele>
  <time>2026-08-28T19:07:15Z</time>
  <course>11.76</course>
  <speed>0.0</speed>
  <fix>3d</fix>
</trkpt>
<trkpt lat="40.072842" lon="-105.230575">
  <ele>1586.09</ele>
  <time>2026-08-28T19:07:15Z</time>
  <course>266.03</course>
  <speed>0.0</speed>
  <fix>3d</fix>
</trkpt>
<trkpt lat="40.072842" lon="-105.230575">
  <ele>1586.09</ele>
  <time>2026-08-28T19:07:15Z</time>
  <course>11.81</course>
  <speed>0.0</speed>
  <fix>3d</fix>
</trkpt>
<trkpt lat="40.072842" lon="-105.230575">
  <ele>1586.09</ele>
  <time>2026-08-28T19:07:15Z</time>
  <course>266.03</course>
  <speed>0.0</speed>
  <fix>3d</fix>
</trkpt>
<trkpt lat="40.072842" lon="-105.230575">
  <ele>1586.09</ele>
  <time>2026-08-28T19:07:15Z</time>
  <course>11.85</course>
  <speed>0.0</speed>
  <fix>3d</fix>
</trkpt>
<trkpt lat="40.072842" lon="-105.230575">
  <ele>1586.09</ele>
  <time>2026-08-28T19:07:15Z</time>
  <course>266.03</course>
  <speed>0.0</speed>
  <fix>3d</fix>
</trkpt>
<trkpt lat="40.072842" lon="-105.230575">
  <ele>1586.09</ele>
  <time>2026-08-28T19:07:15Z</time>
  <course>11.88</course>
  <speed>0.0</speed>
  <fix>3d</fix>
</trkpt>
<trkpt lat="40.072842" lon="-105.230575">
  <ele>1586.09</ele>
  <time>2026-08-28T19:07:15Z</time>
  <course>266.03</course>
  <speed>0.0</speed>
  <fix>3d</fix>
</trkpt>
<trkpt lat="40.072842" lon="-105.230575">
  <ele>1586.09</ele>
  <time>2026-08-28T19:07:15Z</time>
  <course>11.92</course>
  <speed>0.0</speed>
  <fix>3d</fix>
</trkpt>
<trkpt lat="40.072842" lon="-105.230575">
  <ele>1586.09</ele>
  <time>2026-08-28T19:07:15Z</time>
  <course>266.03</course>
  <speed>0.0</speed>
  <fix>3d</fix>
</trkpt>
<trkpt lat="40.072842" lon="-105.230575">
  <ele>1586.09</ele>
  <time>2026-08-28T19:07:15Z</time>
  <course>11.95</course>
  <speed>0.0</speed>
  <fix>3d</fix>
</trkpt>
<trkpt lat="40.072842" lon="-105.230575">
  <ele>1586.09</ele>
  <time>2026-08-28T19:07:15Z</time>
  <course>266.03</course>
  <speed>0.0</speed>
  <fix>3d</fix>
</trkpt>
<trkpt lat="40.072842" lon="-105.230575">
  <ele>1586.09</ele>
  <time>2026-08-28T19:07:15Z</time>
  <course>11.97</course>
  <speed>0.0</speed>
  <fix>3d</fix>
</trkpt>
<trkpt lat="40.072842" lon="-105.230575">
  <ele>1586.09</ele>
  <time>2026-08-28T19:07:15Z</time>
  <course>266.03</course>
  <speed>0.0</speed>
  <fix>3d</fix>
</trkpt>
<trkpt lat="40.072842" lon="-105.230575">
  <ele>1586.09</ele>
  <time>2026-08-28T19:07:15Z</time>
  <course>12.0</course>
  <speed>0.0</speed>
  <fix>3d</fix>
</trkpt>
<trkpt lat="40.072842" lon="-105.230575">
  <ele>1586.09</ele>
  <time>2026-08-28T19:07:15Z</time>
  <course>266.03</course>
  <speed>0.0</speed>
  <fix>3d</fix>
</trkpt>
<trkpt lat="40.072842" lon="-105.230575">
  <ele>1586.09</ele>
  <time>2026-08-28T19:07:15Z</time>
  <course>12.02</course>
  <speed>0.0</speed>
  <fix>3d</fix>
</trkpt>
<trkpt lat="40.072842" lon="-105.230575">
  <ele>1586.09</ele>
  <time>2026-08-28T19:07:15Z</time>
  <course>266.03</course>
  <speed>0.0</speed>
  <fix>3d</fix>
</trkpt>
<trkpt lat="40.072842" lon="-105.230575">
  <ele>1586.09</ele>
  <time>2026-08-28T19:07:15Z</time>
  <course>12.03</course>
  <speed>0.0</speed>
  <fix>3d</fix>
</trkpt>
<trkpt lat="40.072842" lon="-105.230575">
  <ele>1586.09</ele>
  <time>2026-08-28T19:07:15Z</time>
  <course>266.03</course>
  <speed>0.0</speed>
  <fix>3d</fix>
</trkpt>
<trkpt lat="40.072842" lon="-105.230575">
  <ele>1586.09</ele>
  <time>2026-08-28T19:07:15Z</time>
  <course>12.05</course>
  <speed>0.0</speed>
  <fix>3d</fix>
</trkpt>
<trkpt lat="40.072842" lon="-105.230575">
  <ele>1586.09</ele>
  <time>2026-08-28T19:07:15Z</time>
  <course>266.03</course>
  <speed>0.0</speed>
  <fix>3d</fix>
</trkpt>
<trkpt lat="40.072842" lon="-105.230575">
  <ele>1586.09</ele>
  <time>2026-08-28T19:07:15Z</time>
  <course>12.07</course>
  <speed>0.0</speed>
  <fix>3d</fix>
</trkpt>
<trkpt lat="40.072842" lon="-105.230575">
  <ele>1586.09</ele>
  <time>2026-08-28T19:07:15Z</time>
  <course>266.03</course>
  <speed>0.0</speed>
  <fix>3d</fix>
</trkpt>
<trkpt lat="40.072842" lon="-105.230575">
  <ele>1586.09</ele>
  <time>2026-08-28T19:07:15Z</time>
  <course>12.08</course>
  <speed>0.0</speed>
  <fix>3d</fix>
</trkpt>
<trkpt lat="40.072842" lon="-105.230575">
  <ele>1586.09</ele>
  <time>2026-08-28T19:07:15Z</time>
  <course>266.03</course>
  <speed>0.0</speed>
  <fix>3d</fix>
</trkpt>
<trkpt lat="40.072842" lon="-105.230575">
  <ele>1586.09</ele>
  <time>2026-08-28T19:07:15Z</time>
  <course>12.09</course>
  <speed>0.0</speed>
  <fix>3d</fix>
</trkpt>
<trkpt lat="40.072842" lon="-105.230575">
  <ele>1586.09</ele>
  <time>2026-08-28T19:07:15Z</time>
  <course>266.03</course>
  <speed>0.0</speed>
  <fix>3d</fix>
</trkpt>
<trkpt lat="40.072842" lon="-105.230575">
  <ele>1586.09</ele>
  <time>2026-08-28T19:07:15Z</time>
  <course>12.1</course>
  <speed>0.0</speed>
  <fix>3d</fix>
</trkpt>
<trkpt lat="40.072842" lon="-105.230575">
  <ele>1586.09</ele>
  <time>2026-08-28T19:07:15Z</time>
  <course>266.03</course>
  <speed>0.0</speed>
  <fix>3d</fix>
</trkpt>
<trkpt lat="40.072842" lon="-105.230575">
  <ele>1586.09</ele>
  <time>2026-08-28T19:07:15Z</time>
  <course>12.1</course>
  <speed>0.0</speed>
  <fix>3d</fix>
</trkpt>
<trkpt lat="40.072842" lon="-105.230575">
  <ele>1586.09</ele>
  <time>2026-08-28T19:07:15Z</time>
  <course>266.03</course>
  <speed>0.0</speed>
  <fix>3d</fix>
</trkpt>
<trkpt lat="40.072842" lon="-105.230575">
  <ele>1586.09</ele>
  <time>2026-08-28T19:07:15Z</time>
  <course>12.11</course>
  <speed>0.0</speed>
  <fix>3d</fix>
</trkpt>
<trkpt lat="40.072842" lon="-105.230575">
  <ele>1586.09</ele>
  <time>2026-08-28T19:07:15Z</time>
  <course>266.03</course>
  <speed>0.0</speed>
  <fix>3d</fix>
</trkpt>
<trkpt lat="40.072842" lon="-105.230575">
  <ele>1586.09</ele>
  <time>2026-08-28T19:07:15Z</time>
  <course>12.12</course>
  <speed>0.0</speed>
  <fix>3d</fix>
</trkpt>
<trkpt lat="40.072842" lon="-105.230575">
  <ele>1586.09</ele>
  <time>2026-08-28T19:07:15Z</time>
  <course>266.03</course>
  <speed>0.0</speed>
  <fix>3d</fix>
</trkpt>
<trkpt lat="40.072842" lon="-105.230575">
  <ele>1586.09</ele>
  <time>2026-08-28T19:07:15Z</time>
  <course>12.12</course>
  <speed>0.0</speed>
  <fix>3d</fix>
</trkpt>
<trkpt lat="40.072842" lon="-105.230575">
  <ele>1586.09</ele>
  <time>2026-08-28T19:07:15Z</time>
  <course>266.03</course>
  <speed>0.0</speed>
  <fix>3d</fix>
</trkpt>
<trkpt lat="40.072842" lon="-105.230575">
  <ele>1586.09</ele>
  <time>2026-08-28T19:07:15Z</time>
  <course>12.12</course>
  <speed>0.0</speed>
  <fix>3d</fix>
</trkpt>
<trkpt lat="40.072842" lon="-105.230575">
  <ele>1586.09</ele>
  <time>2026-08-28T19:07:15Z</time>
  <course>266.03</course>
  <speed>0.0</speed>
  <fix>3d</fix>
</trkpt>
<trkpt lat="40.072842" lon="-105.230575">
  <ele>1586.09</ele>
  <time>2026-08-28T19:07:15Z</time>
  <course>12.13</course>
  <speed>0.0</speed>
  <fix>3d</fix>
</trkpt>
<trkpt lat="40.072842" lon="-105.230575">
  <ele>1586.09</ele>
  <time>2026-08-28T19:07:15Z</time>
  <course>266.03</course>
  <speed>0.0</speed>
  <fix>3d</fix>
</trkpt>
<trkpt lat="40.072842" lon="-105.230575">
  <ele>1586.09</ele>
  <time>2026-08-28T19:07:15Z</time>
  <course>12.13</course>
  <speed>0.0</speed>
  <fix>3d</fix>
</trkpt>
<trkpt lat="40.072842" lon="-105.230575">
  <ele>1586.09</ele>
  <time>2026-08-28T19:07:15Z</time>
  <course>266.03</course>
  <speed>0.0</speed>
  <fix>3d</fix>
</trkpt>
<trkpt lat="40.072842" lon="-105.230575">
  <ele>1586.09</ele>
  <time>2026-08-28T19:07:15Z</time>
  <course>12.13</course>
  <speed>0.0</speed>
  <fix>3d</fix>
</trkpt>
<trkpt lat="40.072842" lon="-105.230575">
  <ele>1586.09</ele>
  <time>2026-08-28T19:07:15Z</time>
  <course>266.03</course>
  <speed>0.0</speed>
  <fix>3d</fix>
</trkpt>
<trkpt lat="40.072842" lon="-105.230575">
  <ele>1586.09</ele>
  <time>2026-08-28T19:07:15Z</time>
  <course>12.12</course>
  <speed>0.01</speed>
  <fix>3d</fix>
</trkpt>
<trkpt lat="40.072842" lon="-105.230575">
  <ele>1586.09</ele>
  <time>2026-08-28T19:07:15Z</time>
  <course>266.03</course>
  <speed>0.0</speed>
  <fix>3d</fix>
</trkpt>
<trkpt lat="40.072842" lon="-105.230575">
  <ele>1586.09</ele>
  <time>2026-08-28T19:07:15Z</time>
  <course>12.12</course>
  <speed>0.01</speed>
  <fix>3d</fix>
</trkpt>
<trkpt lat="40.072842" lon="-105.230575">
  <ele>1586.09</ele>
  <time>2026-08-28T19:07:15Z</time>
  <course>266.03</course>
  <speed>0.0</speed>
  <fix>3d</fix>
</trkpt>
<trkpt lat="40.072842" lon="-105.230575">
  <ele>1586.09</ele>
  <time>2026-08-28T19:07:15Z</time>
  <course>12.12</course>
  <speed>0.01</speed>
  <fix>3d</fix>
</trkpt>
<trkpt lat="40.072842" lon="-105.230575">
  <ele>1586.09</ele>
  <time>2026-08-28T19:07:15Z</time>
  <course>266.03</course>
  <speed>0.0</speed>
  <fix>3d</fix>
</trkpt>
<trkpt lat="40.072842" lon="-105.230575">
  <ele>1586.09</ele>
  <time>2026-08-28T19:07:15Z</time>
  <course>12.12</course>
  <speed>0.01</speed>
  <fix>3d</fix>
</trkpt>
<trkpt lat="40.072842" lon="-105.230575">
  <ele>1586.09</ele>
  <time>2026-08-28T19:07:15Z</time>
  <course>266.03</course>
  <speed>0.0</speed>
  <fix>3d</fix>
</trkpt>
<trkpt lat="40.072842" lon="-105.230575">
  <ele>1586.09</ele>
  <time>2026-08-28T19:07:15Z</time>
  <course>12.11</course>
  <speed>0.01</speed>
  <fix>3d</fix>
</trkpt>
<trkpt lat="40.072842" lon="-105.230575">
  <ele>1586.09</ele>
  <time>2026-08-28T19:07:15Z</time>
  <course>266.03</course>
  <speed>0.0</speed>
  <fix>3d</fix>
</trkpt>
<trkpt lat="40.072842" lon="-105.230575">
  <ele>1586.09</ele>
  <time>2026-08-28T19:07:15Z</time>
  <course>12.11</course>
  <speed>0.01</speed>
  <fix>3d</fix>
</trkpt>
<trkpt lat="40.072842" lon="-105.230575">
  <ele>1586.09</ele>
  <time>2026-08-28T19:07:15Z</time>
  <course>266.03</course>
  <speed>0.0</speed>
  <fix>3d</fix>
</trkpt>
<trkpt lat="40.072842" lon="-105.230575">
  <ele>1586.09</ele>
  <time>2026-08-28T19:07:15Z</time>
  <course>12.1</course>
  <speed>0.01</speed>
  <fix>3d</fix>
</trkpt>
<trkpt lat="40.072842" lon="-105.230575">
  <ele>1586.09</ele>
  <time>2026-08-28T19:07:15Z</time>
  <course>266.03</course>
  <speed>0.0</speed>
  <fix>3d</fix>
</trkpt>
<trkpt lat="40.072842" lon="-105.230575">
  <ele>1586.09</ele>
  <time>2026-08-28T19:07:16Z</time>
  <course>12.1</course>
  <speed>0.01</speed>
  <fix>3d</fix>
</trkpt>
<trkpt lat="40.072842" lon="-105.230575">
  <ele>1586.09</ele>
  <time>2026-08-28T19:07:16Z</time>
  <course>266.03</course>
  <speed>0.0</speed>
  <fix>3d</fix>
</trkpt>
<trkpt lat="40.072842" lon="-105.230575">
  <ele>1586.09</ele>
  <time>2026-08-28T19:07:16Z</time>
  <course>12.09</course>
  <speed>0.01</speed>
  <fix>3d</fix>
</trkpt>
<trkpt lat="40.072842" lon="-105.230575">
  <ele>1586.09</ele>
  <time>2026-08-28T19:07:16Z</time>
  <course>266.03</course>
  <speed>0.0</speed>
  <fix>3d</fix>
</trkpt>
<trkpt lat="40.072842" lon="-105.230575">
  <ele>1586.09</ele>
  <time>2026-08-28T19:07:16Z</time>
  <course>12.09</course>
  <speed>0.01</speed>
  <fix>3d</fix>
</trkpt>
<trkpt lat="40.072842" lon="-105.230575">
  <ele>1586.09</ele>
  <time>2026-08-28T19:07:16Z</time>
  <course>266.03</course>
  <speed>0.0</speed>
  <fix>3d</fix>
</trkpt>
<trkpt lat="40.072842" lon="-105.230575">
  <ele>1586.09</ele>
  <time>2026-08-28T19:07:16Z</time>
  <course>12.08</course>
  <speed>0.01</speed>
  <fix>3d</fix>
</trkpt>
<trkpt lat="40.072842" lon="-105.230575">
  <ele>1586.09</ele>
  <time>2026-08-28T19:07:16Z</time>
  <course>266.03</course>
  <speed>0.0</speed>
  <fix>3d</fix>
</trkpt>
<trkpt lat="40.072842" lon="-105.230575">
  <ele>1586.09</ele>
  <time>2026-08-28T19:07:16Z</time>
  <course>12.08</course>
  <speed>0.01414213562373095</speed>
  <fix>3d</fix>
</trkpt>
<trkpt lat="40.072842" lon="-105.230575">
  <ele>1586.09</ele>
  <time>2026-08-28T19:07:16Z</time>
  <course>266.03</course>
  <speed>0.0</speed>
  <fix>3d</fix>
</trkpt>
<trkpt lat="40.072842" lon="-105.230575">
  <ele>1586.09</ele>
  <time>2026-08-28T19:07:16Z</time>
  <course>12.07</course>
  <speed>0.01414213562373095</speed>
  <fix>3d</fix>
</trkpt>
<trkpt lat="40.072842" lon="-105.230575">
  <ele>1586.09</ele>
  <time>2026-08-28T19:07:16Z</time>
  <course>266.03</course>
  <speed>0.0</speed>
  <fix>3d</fix>
</trkpt>
<trkpt lat="40.072842" lon="-105.230575">
  <ele>1586.09</ele>
  <time>2026-08-28T19:07:16Z</time>
  <course>12.06</course>
  <speed>0.01414213562373095</speed>
  <fix>3d</fix>
</trkpt>
<trkpt lat="40.072842" lon="-105.230575">
  <ele>1586.09</ele>
  <time>2026-08-28T19:07:16Z</time>
  <course>266.03</course>
  <speed>0.0</speed>
  <fix>3d</fix>
</trkpt>
<trkpt lat="40.072842" lon="-105.230575">
  <ele>1586.09</ele>
  <time>2026-08-28T19:07:16Z</time>
  <course>12.05</course>
  <speed>0.01414213562373095</speed>
  <fix>3d</fix>
</trkpt>
<trkpt lat="40.072842" lon="-105.230575">
  <ele>1586.09</ele>
  <time>2026-08-28T19:07:16Z</time>
  <course>266.03</course>
  <speed>0.0</speed>
  <fix>3d</fix>
</trkpt>
<trkpt lat="40.072842" lon="-105.230575">
  <ele>1586.09</ele>
  <time>2026-08-28T19:07:16Z</time>
  <course>12.05</course>
  <speed>0.01414213562373095</speed>
  <fix>3d</fix>
</trkpt>
<trkpt lat="40.072842" lon="-105.230575">
  <ele>1586.09</ele>
  <time>2026-08-28T19:07:16Z</time>
  <course>266.03</course>
  <speed>0.0</speed>
  <fix>3d</fix>
</trkpt>
<trkpt lat="40.072842" lon="-105.230575">
  <ele>1586.09</ele>
  <time>2026-08-28T19:07:16Z</time>
  <course>12.04</course>
  <speed>0.01414213562373095</speed>
  <fix>3d</fix>
</trkpt>
<trkpt lat="40.072842" lon="-105.230575">
  <ele>1586.09</ele>
  <time>2026-08-28T19:07:16Z</time>
  <course>266.03</course>
  <speed>0.0</speed>
  <fix>3d</fix>
</trkpt>
<trkpt lat="40.072842" lon="-105.230575">
  <ele>1586.09</ele>
  <time>2026-08-28T19:07:16Z</time>
  <course>12.03</course>
  <speed>0.01414213562373095</speed>
  <fix>3d</fix>
</trkpt>
<trkpt lat="40.072842" lon="-105.230575">
  <ele>1586.09</ele>
  <time>2026-08-28T19:07:16Z</time>
  <course>266.03</course>
  <speed>0.0</speed>
  <fix>3d</fix>
</trkpt>
<trkpt lat="40.072842" lon="-105.230575">
  <ele>1586.09</ele>
  <time>2026-08-28T19:07:16Z</time>
  <course>12.03</course>
  <speed>0.01414213562373095</speed>
  <fix>3d</fix>
</trkpt>
<trkpt lat="40.072842" lon="-105.230575">
  <ele>1586.09</ele>
  <time>2026-08-28T19:07:16Z</time>
  <course>266.03</course>
  <speed>0.0</speed>
  <fix>3d</fix>
</trkpt>
<trkpt lat="40.072842" lon="-105.230575">
  <ele>1586.09</ele>
  <time>2026-08-28T19:07:16Z</time>
  <course>12.02</course>
  <speed>0.01414213562373095</speed>
  <fix>3d</fix>
</trkpt>
<trkpt lat="40.072842" lon="-105.230575">
  <ele>1586.09</ele>
  <time>2026-08-28T19:07:16Z</time>
  <course>266.03</course>
  <speed>0.0</speed>
  <fix>3d</fix>
</trkpt>
<trkpt lat="40.072842" lon="-105.230575">
  <ele>1586.09</ele>
  <time>2026-08-28T19:07:16Z</time>
  <course>12.01</course>
  <speed>0.01414213562373095</speed>
  <fix>3d</fix>
</trkpt>
<trkpt lat="40.072842" lon="-105.230575">
  <ele>1586.09</ele>
  <time>2026-08-28T19:07:16Z</time>
  <course>266.03</course>
  <speed>0.0</speed>
  <fix>3d</fix>
</trkpt>
<trkpt lat="40.072842" lon="-105.230575">
  <ele>1586.09</ele>
  <time>2026-08-28T19:07:16Z</time>
  <course>12.01</course>
  <speed>0.01414213562373095</speed>
  <fix>3d</fix>
</trkpt>
<trkpt lat="40.072842" lon="-105.230575">
  <ele>1586.09</ele>
  <time>2026-08-28T19:07:16Z</time>
  <course>266.03</course>
  <speed>0.0</speed>
  <fix>3d</fix>
</trkpt>
<trkpt lat="40.072842" lon="-105.230575">
  <ele>1586.09</ele>
  <time>2026-08-28T19:07:16Z</time>
  <course>12.0</course>
  <speed>0.01414213562373095</speed>
  <fix>3d</fix>
</trkpt>
<trkpt lat="40.072842" lon="-105.230575">
  <ele>1586.09</ele>
  <time>2026-08-28T19:07:16Z</time>
  <course>266.03</course>
  <speed>0.0</speed>
  <fix>3d</fix>
</trkpt>
<trkpt lat="40.072842" lon="-105.230575">
  <ele>1586.09</ele>
  <time>2026-08-28T19:07:16Z</time>
  <course>11.99</course>
  <speed>0.01414213562373095</speed>
  <fix>3d</fix>
</trkpt>
<trkpt lat="40.072842" lon="-105.230575">
  <ele>1586.09</ele>
  <time>2026-08-28T19:07:16Z</time>
  <course>266.03</course>
  <speed>0.0</speed>
  <fix>3d</fix>
</trkpt>
<trkpt lat="40.072842" lon="-105.230575">
  <ele>1586.09</ele>
  <time>2026-08-28T19:07:16Z</time>
  <course>11.98</course>
  <speed>0.01414213562373095</speed>
  <fix>3d</fix>
</trkpt>
<trkpt lat="40.072842" lon="-105.230575">
  <ele>1586.09</ele>
  <time>2026-08-28T19:07:16Z</time>
  <course>266.03</course>
  <speed>0.0</speed>
  <fix>3d</fix>
</trkpt>
<trkpt lat="40.072842" lon="-105.230575">
  <ele>1586.09</ele>
  <time>2026-08-28T19:07:16Z</time>
  <course>11.98</course>
  <speed>0.01414213562373095</speed>
  <fix>3d</fix>
</trkpt>
<trkpt lat="40.072842" lon="-105.230575">
  <ele>1586.09</ele>
  <time>2026-08-28T19:07:16Z</time>
  <course>266.03</course>
  <speed>0.0</speed>
  <fix>3d</fix>
</trkpt>
<trkpt lat="40.072842" lon="-105.230575">
  <ele>1586.09</ele>
  <time>2026-08-28T19:07:16Z</time>
  <course>11.97</course>
  <speed>0.022360679774997897</speed>
  <fix>3d</fix>
</trkpt>
<trkpt lat="40.072842" lon="-105.230575">
  <ele>1586.09</ele>
  <time>2026-08-28T19:07:16Z</time>
  <course>266.03</course>
  <speed>0.0</speed>
  <fix>3d</fix>
</trkpt>
<trkpt lat="40.072842" lon="-105.230575">
  <ele>1586.09</ele>
  <time>2026-08-28T19:07:16Z</time>
  <course>11.96</course>
  <speed>0.022360679774997897</speed>
  <fix>3d</fix>
</trkpt>
<trkpt lat="40.072842" lon="-105.230575">
  <ele>1586.09</ele>
  <time>2026-08-28T19:07:16Z</time>
  <course>266.03</course>
  <speed>0.0</speed>
  <fix>3d</fix>
</trkpt>
<trkpt lat="40.072842" lon="-105.230575">
  <ele>1586.09</ele>
  <time>2026-08-28T19:07:16Z</time>
  <course>11.95</course>
  <speed>0.022360679774997897</speed>
  <fix>3d</fix>
</trkpt>
<trkpt lat="40.072842" lon="-105.230575">
  <ele>1586.09</ele>
  <time>2026-08-28T19:07:16Z</time>
  <course>266.03</course>
  <speed>0.0</speed>
  <fix>3d</fix>
</trkpt>
<trkpt lat="40.072842" lon="-105.230575">
  <ele>1586.09</ele>
  <time>2026-08-28T19:07:16Z</time>
  <course>11.94</course>
  <speed>0.022360679774997897</speed>
  <fix>3d</fix>
</trkpt>
<trkpt lat="40.072842" lon="-105.230575">
  <ele>1586.09</ele>
  <time>2026-08-28T19:07:16Z</time>
  <course>266.03</course>
  <speed>0.0</speed>
  <fix>3d</fix>
</trkpt>
<trkpt lat="40.072842" lon="-105.230575">
  <ele>1586.09</ele>
  <time>2026-08-28T19:07:16Z</time>
  <course>11.93</course>
  <speed>0.022360679774997897</speed>
  <fix>3d</fix>
</trkpt>
<trkpt lat="40.072842" lon="-105.230575">
  <ele>1586.09</ele>
  <time>2026-08-28T19:07:16Z</time>
  <course>266.03</course>
  <speed>0.0</speed>
  <fix>3d</fix>
</trkpt>
<trkpt lat="40.072842" lon="-105.230575">
  <ele>1586.09</ele>
  <time>2026-08-28T19:07:16Z</time>
  <course>11.92</course>
  <speed>0.022360679774997897</speed>
  <fix>3d</fix>
</trkpt>
<trkpt lat="40.072842" lon="-105.230575">
  <ele>1586.09</ele>
  <time>2026-08-28T19:07:16Z</time>
  <course>266.03</course>
  <speed>0.0</speed>
  <fix>3d</fix>
</trkpt>
<trkpt lat="40.072842" lon="-105.230575">
  <ele>1586.09</ele>
  <time>2026-08-28T19:07:16Z</time>
  <course>11.92</course>
  <speed>0.022360679774997897</speed>
  <fix>3d</fix>
</trkpt>
<trkpt lat="40.072842" lon="-105.230575">
  <ele>1586.09</ele>
  <time>2026-08-28T19:07:16Z</time>
  <course>266.03</course>
  <speed>0.0</speed>
  <fix>3d</fix>
</trkpt>
<trkpt lat="40.072842" lon="-105.230575">
  <ele>1586.09</ele>
  <time>2026-08-28T19:07:16Z</time>
  <course>11.91</course>
  <speed>0.022360679774997897</speed>
  <fix>3d</fix>
</trkpt>
<trkpt lat="40.072842" lon="-105.230575">
  <ele>1586.09</ele>
  <time>2026-08-28T19:07:16Z</time>
  <course>266.03</course>
  <speed>0.0</speed>
  <fix>3d</fix>
</trkpt>
<trkpt lat="40.072842" lon="-105.230575">
  <ele>1586.09</ele>
  <time>2026-08-28T19:07:16Z</time>
  <course>11.9</course>
  <speed>0.022360679774997897</speed>
  <fix>3d</fix>
</trkpt>
<trkpt lat="40.072842" lon="-105.230575">
  <ele>1586.09</ele>
  <time>2026-08-28T19:07:16Z</time>
  <course>266.03</course>
  <speed>0.0</speed>
  <fix>3d</fix>
</trkpt>
<trkpt lat="40.072842" lon="-105.230575">
  <ele>1586.09</ele>
  <time>2026-08-28T19:07:16Z</time>
  <course>11.89</course>
  <speed>0.022360679774997897</speed>
  <fix>3d</fix>
</trkpt>
<trkpt lat="40.072842" lon="-105.230575">
  <ele>1586.09</ele>
  <time>2026-08-28T19:07:16Z</time>
  <course>266.03</course>
  <speed>0.0</speed>
  <fix>3d</fix>
</trkpt>
<trkpt lat="40.072842" lon="-105.230575">
  <ele>1586.09</ele>
  <time>2026-08-28T19:07:16Z</time>
  <course>11.88</course>
  <speed>0.022360679774997897</speed>
  <fix>3d</fix>
</trkpt>
<trkpt lat="40.072842" lon="-105.230575">
  <ele>1586.09</ele>
  <time>2026-08-28T19:07:16Z</time>
  <course>266.03</course>
  <speed>0.0</speed>
  <fix>3d</fix>
</trkpt>
<trkpt lat="40.072842" lon="-105.230575">
  <ele>1586.09</ele>
  <time>2026-08-28T19:07:16Z</time>
  <course>11.88</course>
  <speed>0.022360679774997897</speed>
  <fix>3d</fix>
</trkpt>
<trkpt lat="40.072842" lon="-105.230575">
  <ele>1586.09</ele>
  <time>2026-08-28T19:07:16Z</time>
  <course>266.03</course>
  <speed>0.0</speed>
  <fix>3d</fix>
</trkpt>
<trkpt lat="40.072842" lon="-105.230575">
  <ele>1586.09</ele>
  <time>2026-08-28T19:07:16Z</time>
  <course>11.87</course>
  <speed>0.022360679774997897</speed>
  <fix>3d</fix>
</trkpt>
<trkpt lat="40.072842" lon="-105.230575">
  <ele>1586.09</ele>
  <time>2026-08-28T19:07:16Z</time>
  <course>266.03</course>
  <speed>0.0</speed>
  <fix>3d</fix>
</trkpt>
<trkpt lat="40.072842" lon="-105.230575">
  <ele>1586.09</ele>
  <time>2026-08-28T19:07:16Z</time>
  <course>11.86</course>
  <speed>0.022360679774997897</speed>
  <fix>3d</fix>
</trkpt>
<trkpt lat="40.072842" lon="-105.230575">
  <ele>1586.09</ele>
  <time>2026-08-28T19:07:16Z</time>
  <course>266.03</course>
  <speed>0.0</speed>
  <fix>3d</fix>
</trkpt>
<trkpt lat="40.072842" lon="-105.230575">
  <ele>1586.09</ele>
  <time>2026-08-28T19:07:16Z</time>
  <course>11.85</course>
  <speed>0.022360679774997897</speed>
  <fix>3d</fix>
</trkpt>
<trkpt lat="40.072842" lon="-105.230575">
  <ele>1586.09</ele>
  <time>2026-08-28T19:07:16Z</time>
  <course>266.03</course>
  <speed>0.0</speed>
  <fix>3d</fix>
</trkpt>
<trkpt lat="40.072842" lon="-105.230575">
  <ele>1586.09</ele>
  <time>2026-08-28T19:07:16Z</time>
  <course>11.84</course>
  <speed>0.0282842712474619</speed>
  <fix>3d</fix>
</trkpt>
<trkpt lat="40.072842" lon="-105.230575">
  <ele>1586.09</ele>
  <time>2026-08-28T19:07:16Z</time>
  <course>266.03</course>
  <speed>0.0</speed>
  <fix>3d</fix>
</trkpt>
<trkpt lat="40.072842" lon="-105.230575">
  <ele>1586.09</ele>
  <time>2026-08-28T19:07:16Z</time>
  <course>11.83</course>
  <speed>0.0282842712474619</speed>
  <fix>3d</fix>
</trkpt>
<trkpt lat="40.072842" lon="-105.230575">
  <ele>1586.09</ele>
  <time>2026-08-28T19:07:16Z</time>
  <course>266.03</course>
  <speed>0.0</speed>
  <fix>3d</fix>
</trkpt>
<trkpt lat="40.072842" lon="-105.230575">
  <ele>1586.09</ele>
  <time>2026-08-28T19:07:16Z</time>
  <course>11.83</course>
  <speed>0.0282842712474619</speed>
  <fix>3d</fix>
</trkpt>
<trkpt lat="40.072842" lon="-105.230575">
  <ele>1586.09</ele>
  <time>2026-08-28T19:07:16Z</time>
  <course>266.03</course>
  <speed>0.0</speed>
  <fix>3d</fix>
</trkpt>
<trkpt lat="40.072842" lon="-105.230575">
  <ele>1586.09</ele>
  <time>2026-08-28T19:07:16Z</time>
  <course>11.82</course>
  <speed>0.0282842712474619</speed>
  <fix>3d</fix>
</trkpt>
<trkpt lat="40.072842" lon="-105.230575">
  <ele>1586.09</ele>
  <time>2026-08-28T19:07:16Z</time>
  <course>266.03</course>
  <speed>0.0</speed>
  <fix>3d</fix>
</trkpt>
<trkpt lat="40.072842" lon="-105.230575">
  <ele>1586.09</ele>
  <time>2026-08-28T19:07:16Z</time>
  <course>11.81</course>
  <speed>0.0282842712474619</speed>
  <fix>3d</fix>
</trkpt>
<trkpt lat="40.072842" lon="-105.230575">
  <ele>1586.09</ele>
  <time>2026-08-28T19:07:16Z</time>
  <course>266.03</course>
  <speed>0.0</speed>
  <fix>3d</fix>
</trkpt>
<trkpt lat="40.072842" lon="-105.230575">
  <ele>1586.09</ele>
  <time>2026-08-28T19:07:16Z</time>
  <course>11.8</course>
  <speed>0.0282842712474619</speed>
  <fix>3d</fix>
</trkpt>
<trkpt lat="40.072842" lon="-105.230575">
  <ele>1586.09</ele>
  <time>2026-08-28T19:07:16Z</time>
  <course>266.03</course>
  <speed>0.0</speed>
  <fix>3d</fix>
</trkpt>
<trkpt lat="40.072842" lon="-105.230575">
  <ele>1586.09</ele>
  <time>2026-08-28T19:07:16Z</time>
  <course>11.79</course>
  <speed>0.0282842712474619</speed>
  <fix>3d</fix>
</trkpt>
<trkpt lat="40.072842" lon="-105.230575">
  <ele>1586.09</ele>
  <time>2026-08-28T19:07:16Z</time>
  <course>266.03</course>
  <speed>0.0</speed>
  <fix>3d</fix>
</trkpt>
<trkpt lat="40.072842" lon="-105.230575">
  <ele>1586.09</ele>
  <time>2026-08-28T19:07:16Z</time>
  <course>11.79</course>
  <speed>0.0282842712474619</speed>
  <fix>3d</fix>
</trkpt>
<trkpt lat="40.072842" lon="-105.230575">
  <ele>1586.09</ele>
  <time>2026-08-28T19:07:16Z</time>
  <course>266.03</course>
  <speed>0.0</speed>
  <fix>3d</fix>
</trkpt>
<trkpt lat="40.072842" lon="-105.230575">
  <ele>1586.09</ele>
  <time>2026-08-28T19:07:16Z</time>
  <course>11.78</course>
  <speed>0.0282842712474619</speed>
  <fix>3d</fix>
</trkpt>
<trkpt lat="40.072842" lon="-105.230575">
  <ele>1586.09</ele>
  <time>2026-08-28T19:07:16Z</time>
  <course>266.03</course>
  <speed>0.0</speed>
  <fix>3d</fix>
</trkpt>
<trkpt lat="40.072842" lon="-105.230575">
  <ele>1586.09</ele>
  <time>2026-08-28T19:07:16Z</time>
  <course>11.77</course>
  <speed>0.0282842712474619</speed>
  <fix>3d</fix>
</trkpt>
<trkpt lat="40.072842" lon="-105.230575">
  <ele>1586.09</ele>
  <time>2026-08-28T19:07:16Z</time>
  <course>266.03</course>
  <speed>0.0</speed>
  <fix>3d</fix>
</trkpt>
<trkpt lat="40.072842" lon="-105.230575">
  <ele>1586.09</ele>
  <time>2026-08-28T19:07:16Z</time>
  <course>11.77</course>
  <speed>0.0282842712474619</speed>
  <fix>3d</fix>
</trkpt>
<trkpt lat="40.072842" lon="-105.230575">
  <ele>1586.09</ele>
  <time>2026-08-28T19:07:16Z</time>
  <course>266.03</course>
  <speed>0.0</speed>
  <fix>3d</fix>
</trkpt>
<trkpt lat="40.072842" lon="-105.230575">
  <ele>1586.09</ele>
  <time>2026-08-28T19:07:16Z</time>
  <course>11.76</course>
  <speed>0.0282842712474619</speed>
  <fix>3d</fix>
</trkpt>
<trkpt lat="40.072842" lon="-105.230575">
  <ele>1586.09</ele>
  <time>2026-08-28T19:07:16Z</time>
  <course>266.03</course>
  <speed>0.0</speed>
  <fix>3d</fix>
</trkpt>
<trkpt lat="40.072842" lon="-105.230575">
  <ele>1586.09</ele>
  <time>2026-08-28T19:07:16Z</time>
  <course>11.75</course>
  <speed>0.0282842712474619</speed>
  <fix>3d</fix>
</trkpt>
<trkpt lat="40.072842" lon="-105.230575">
  <ele>1586.09</ele>
  <time>2026-08-28T19:07:16Z</time>
  <course>266.03</course>
  <speed>0.0</speed>
  <fix>3d</fix>
</trkpt>
<trkpt lat="40.072842" lon="-105.230575">
  <ele>1586.09</ele>
  <time>2026-08-28T19:07:16Z</time>
  <course>11.74</course>
  <speed>0.03605551275463989</speed>
  <fix>3d</fix>
</trkpt>
<trkpt lat="40.072842" lon="-105.230575">
  <ele>1586.09</ele>
  <time>2026-08-28T19:07:16Z</time>
  <course>266.03</course>
  <speed>0.0</speed>
  <fix>3d</fix>
</trkpt>
<trkpt lat="40.072842" lon="-105.230575">
  <ele>1586.09</ele>
  <time>2026-08-28T19:07:16Z</time>
  <course>11.73</course>
  <speed>0.03605551275463989</speed>
  <fix>3d</fix>
</trkpt>
<trkpt lat="40.072842" lon="-105.230575">
  <ele>1586.09</ele>
  <time>2026-08-28T19:07:16Z</time>
  <course>266.03</course>
  <speed>0.0</speed>
  <fix>3d</fix>
</trkpt>
<trkpt lat="40.072842" lon="-105.230575">
  <ele>1586.09</ele>
  <time>2026-08-28T19:07:16Z</time>
  <course>11.73</course>
  <speed>0.03605551275463989</speed>
  <fix>3d</fix>
</trkpt>
<trkpt lat="40.072842" lon="-105.230575">
  <ele>1586.09</ele>
  <time>2026-08-28T19:07:16Z</time>
  <course>266.03</course>
  <speed>0.0</speed>
  <fix>3d</fix>
</trkpt>
<trkpt lat="40.072842" lon="-105.230575">
  <ele>1586.09</ele>
  <time>2026-08-28T19:07:16Z</time>
  <course>11.72</course>
  <speed>0.03605551275463989</speed>
  <fix>3d</fix>
</trkpt>
<trkpt lat="40.072842" lon="-105.230575">
  <ele>1586.09</ele>
  <time>2026-08-28T19:07:16Z</time>
  <course>266.03</course>
  <speed>0.0</speed>
  <fix>3d</fix>
</trkpt>
<trkpt lat="40.072842" lon="-105.230575">
  <ele>1586.09</ele>
  <time>2026-08-28T19:07:16Z</time>
  <course>11.71</course>
  <speed>0.03605551275463989</speed>
  <fix>3d</fix>
</trkpt>
<trkpt lat="40.072842" lon="-105.230575">
  <ele>1586.09</ele>
  <time>2026-08-28T19:07:16Z</time>
  <course>266.03</course>
  <speed>0.0</speed>
  <fix>3d</fix>
</trkpt>
<trkpt lat="40.072842" lon="-105.230575">
  <ele>1586.09</ele>
  <time>2026-08-28T19:07:16Z</time>
  <course>11.71</course>
  <speed>0.03605551275463989</speed>
  <fix>3d</fix>
</trkpt>
<trkpt lat="40.072842" lon="-105.230575">
  <ele>1586.09</ele>
  <time>2026-08-28T19:07:16Z</time>
  <course>266.03</course>
  <speed>0.0</speed>
  <fix>3d</fix>
</trkpt>
<trkpt lat="40.072842" lon="-105.230575">
  <ele>1586.09</ele>
  <time>2026-08-28T19:07:16Z</time>
  <course>11.7</course>
  <speed>0.03605551275463989</speed>
  <fix>3d</fix>
</trkpt>
<trkpt lat="40.072842" lon="-105.230575">
  <ele>1586.09</ele>
  <time>2026-08-28T19:07:16Z</time>
  <course>266.03</course>
  <speed>0.0</speed>
  <fix>3d</fix>
</trkpt>
<trkpt lat="39.654938" lon="-104.1331666">
  <ele>1569.54</ele>
  <time>2026-08-28T19:07:16Z</time>
  <course>168.11</course>
  <speed>0.0</speed>
  <fix>3d</fix>
</trkpt>
<trkpt lat="40.072842" lon="-105.230575">
  <ele>1586.09</ele>
  <time>2026-08-28T19:07:16Z</time>
  <course>2.03</course>
  <speed>0.0</speed>
  <fix>3d</fix>
</trkpt>
<trkpt lat="40.072842" lon="-105.230575">
  <ele>1586.09</ele>
  <time>2026-08-28T19:07:16Z</time>
  <course>238.4</course>
  <speed>0.0</speed>
  <fix>3d</fix>
</trkpt>
<trkpt lat="40.072842" lon="-105.230575">
  <ele>1586.09</ele>
  <time>2026-08-28T19:07:16Z</time>
  <course>2.39</course>
  <speed>0.0</speed>
  <fix>3d</fix>
</trkpt>
<trkpt lat="40.072842" lon="-105.230575">
  <ele>1586.09</ele>
  <time>2026-08-28T19:07:16Z</time>
  <course>194.29</course>
  <speed>0.0</speed>
  <fix>3d</fix>
</trkpt>
<trkpt lat="40.072842" lon="-105.230575">
  <ele>1586.09</ele>
  <time>2026-08-28T19:07:16Z</time>
  <course>3.11</course>
  <speed>0.0</speed>
  <fix>3d</fix>
</trkpt>
<trkpt lat="40.072842" lon="-105.230575">
  <ele>1586.09</ele>
  <time>2026-08-28T19:07:16Z</time>
  <course>193.66</course>
  <speed>0.0</speed>
  <fix>3d</fix>
</trkpt>
<trkpt lat="40.072842" lon="-105.230575">
  <ele>1586.09</ele>
  <time>2026-08-28T19:07:16Z</time>
  <course>3.81</course>
  <speed>0.0</speed>
  <fix>3d</fix>
</trkpt>
<trkpt lat="40.072842" lon="-105.230575">
  <ele>1586.09</ele>
  <time>2026-08-28T19:07:16Z</time>
  <course>303.54</course>
  <speed>0.0</speed>
  <fix>3d</fix>
</trkpt>
<trkpt lat="40.072842" lon="-105.230575">
  <ele>1586.09</ele>
  <time>2026-08-28T19:07:16Z</time>
  <course>4.44</course>
  <speed>0.0</speed>
  <fix>3d</fix>
</trkpt>
<trkpt lat="40.072842" lon="-105.230575">
  <ele>1586.09</ele>
  <time>2026-08-28T19:07:16Z</time>
  <course>110.94</course>
  <speed>0.0</speed>
  <fix>3d</fix>
</trkpt>
<trkpt lat="40.072842" lon="-105.230575">
  <ele>1586.09</ele>
  <time>2026-08-28T19:07:16Z</time>
  <course>5.02</course>
  <speed>0.0</speed>
  <fix>3d</fix>
</trkpt>
<trkpt lat="40.072842" lon="-105.230575">
  <ele>1586.09</ele>
  <time>2026-08-28T19:07:16Z</time>
  <course>191.21</course>
  <speed>0.0</speed>
  <fix>3d</fix>
</trkpt>
<trkpt lat="40.072842" lon="-105.230575">
  <ele>1586.09</ele>
  <time>2026-08-28T19:07:16Z</time>
  <course>5.58</course>
  <speed>0.0</speed>
  <fix>3d</fix>
</trkpt>
<trkpt lat="40.072842" lon="-105.230575">
  <ele>1586.09</ele>
  <time>2026-08-28T19:07:16Z</time>
  <course>252.23</course>
  <speed>0.0</speed>
  <fix>3d</fix>
</trkpt>
<trkpt lat="40.072842" lon="-105.230575">
  <ele>1586.09</ele>
  <time>2026-08-28T19:07:16Z</time>
  <course>6.11</course>
  <speed>0.0</speed>
  <fix>3d</fix>
</trkpt>
<trkpt lat="40.072842" lon="-105.230575">
  <ele>1586.09</ele>
  <time>2026-08-28T19:07:16Z</time>
  <course>170.36</course>
  <speed>0.0</speed>
  <fix>3d</fix>
</trkpt>
<trkpt lat="40.072842" lon="-105.230575">
  <ele>1586.09</ele>
  <time>2026-08-28T19:07:16Z</time>
  <course>6.61</course>
  <speed>0.0</speed>
  <fix>3d</fix>
</trkpt>
<trkpt lat="40.072842" lon="-105.230575">
  <ele>1586.09</ele>
  <time>2026-08-28T19:07:16Z</time>
  <course>179.36</course>
  <speed>0.0</speed>
  <fix>3d</fix>
</trkpt>
<trkpt lat="40.072842" lon="-105.230575">
  <ele>1586.09</ele>
  <time>2026-08-28T19:07:16Z</time>
  <course>7.07</course>
  <speed>0.0</speed>
  <fix>3d</fix>
</trkpt>
<trkpt lat="40.072842" lon="-105.230575">
  <ele>1586.09</ele>
  <time>2026-08-28T19:07:16Z</time>
  <course>19.98</course>
  <speed>0.0</speed>
  <fix>3d</fix>
</trkpt>
<trkpt lat="40.072842" lon="-105.230575">
  <ele>1586.09</ele>
  <time>2026-08-28T19:07:16Z</time>
  <course>7.5</course>
  <speed>0.0</speed>
  <fix>3d</fix>
</trkpt>
<trkpt lat="40.072842" lon="-105.230575">
  <ele>1586.09</ele>
  <time>2026-08-28T19:07:16Z</time>
  <course>17.49</course>
  <speed>0.0</speed>
  <fix>3d</fix>
</trkpt>
<trkpt lat="40.072842" lon="-105.230575">
  <ele>1586.09</ele>
  <time>2026-08-28T19:07:16Z</time>
  <course>7.9</course>
  <speed>0.0</speed>
  <fix>3d</fix>
</trkpt>
<trkpt lat="40.072842" lon="-105.230575">
  <ele>1586.09</ele>
  <time>2026-08-28T19:07:16Z</time>
  <course>356.19</course>
  <speed>0.0</speed>
  <fix>3d</fix>
</trkpt>
<trkpt lat="40.072842" lon="-105.230575">
  <ele>1586.09</ele>
  <time>2026-08-28T19:07:16Z</time>
  <course>8.26</course>
  <speed>0.0</speed>
  <fix>3d</fix>
</trkpt>
<trkpt lat="40.072842" lon="-105.230575">
  <ele>1586.09</ele>
  <time>2026-08-28T19:07:16Z</time>
  <course>77.32</course>
  <speed>0.0</speed>
  <fix>3d</fix>
</trkpt>
<trkpt lat="40.072842" lon="-105.230575">
  <ele>1586.09</ele>
  <time>2026-08-28T19:07:16Z</time>
  <course>8.6</course>
  <speed>0.0</speed>
  <fix>3d</fix>
</trkpt>
<trkpt lat="40.072842" lon="-105.230575">
  <ele>1586.09</ele>
  <time>2026-08-28T19:07:16Z</time>
  <course>290.54</course>
  <speed>0.0</speed>
  <fix>3d</fix>
</trkpt>
<trkpt lat="40.072842" lon="-105.230575">
  <ele>1586.09</ele>
  <time>2026-08-28T19:07:16Z</time>
  <course>8.92</course>
  <speed>0.0</speed>
  <fix>3d</fix>
</trkpt>
<trkpt lat="40.072842" lon="-105.230575">
  <ele>1586.09</ele>
  <time>2026-08-28T19:07:16Z</time>
  <course>338.69</course>
  <speed>0.0</speed>
  <fix>3d</fix>
</trkpt>
<trkpt lat="40.072842" lon="-105.230575">
  <ele>1586.09</ele>
  <time>2026-08-28T19:07:16Z</time>
  <course>9.21</course>
  <speed>0.0</speed>
  <fix>3d</fix>
</trkpt>
<trkpt lat="40.072842" lon="-105.230575">
  <ele>1586.09</ele>
  <time>2026-08-28T19:07:16Z</time>
  <course>326.81</course>
  <speed>0.0</speed>
  <fix>3d</fix>
</trkpt>
<trkpt lat="40.072842" lon="-105.230575">
  <ele>1586.09</ele>
  <time>2026-08-28T19:07:16Z</time>
  <course>9.47</course>
  <speed>0.0</speed>
  <fix>3d</fix>
</trkpt>
<trkpt lat="40.072842" lon="-105.230575">
  <ele>1586.09</ele>
  <time>2026-08-28T19:07:16Z</time>
  <course>262.23</course>
  <speed>0.0</speed>
  <fix>3d</fix>
</trkpt>
<trkpt lat="40.072842" lon="-105.230575">
  <ele>1586.09</ele>
  <time>2026-08-28T19:07:16Z</time>
  <course>9.72</course>
  <speed>0.0</speed>
  <fix>3d</fix>
</trkpt>
<trkpt lat="40.072842" lon="-105.230575">
  <ele>1586.09</ele>
  <time>2026-08-28T19:07:16Z</time>
  <course>159.08</course>
  <speed>0.0</speed>
  <fix>3d</fix>
</trkpt>
<trkpt lat="40.072842" lon="-105.230575">
  <ele>1586.09</ele>
  <time>2026-08-28T19:07:16Z</time>
  <course>9.94</course>
  <speed>0.0</speed>
  <fix>3d</fix>
</trkpt>
<trkpt lat="40.072842" lon="-105.230575">
  <ele>1586.09</ele>
  <time>2026-08-28T19:07:16Z</time>
  <course>287.98</course>
  <speed>0.0</speed>
  <fix>3d</fix>
</trkpt>
<trkpt lat="40.072842" lon="-105.230575">
  <ele>1586.09</ele>
  <time>2026-08-28T19:07:16Z</time>
  <course>10.15</course>
  <speed>0.0</speed>
  <fix>3d</fix>
</trkpt>
<trkpt lat="40.072842" lon="-105.230575">
  <ele>1586.09</ele>
  <time>2026-08-28T19:07:16Z</time>
  <course>278.3</course>
  <speed>0.0</speed>
  <fix>3d</fix>
</trkpt>
<trkpt lat="40.072842" lon="-105.230575">
  <ele>1586.09</ele>
  <time>2026-08-28T19:07:16Z</time>
  <course>10.33</course>
  <speed>0.0</speed>
  <fix>3d</fix>
</trkpt>
<trkpt lat="40.072842" lon="-105.230575">
  <ele>1586.09</ele>
  <time>2026-08-28T19:07:16Z</time>
  <course>261.72</course>
  <speed>0.0</speed>
  <fix>3d</fix>
</trkpt>
<trkpt lat="40.072842" lon="-105.230575">
  <ele>1586.09</ele>
  <time>2026-08-28T19:07:16Z</time>
  <course>10.51</course>
  <speed>0.0</speed>
  <fix>3d</fix>
</trkpt>
<trkpt lat="40.072842" lon="-105.230575">
  <ele>1586.09</ele>
  <time>2026-08-28T19:07:16Z</time>
  <course>264.4</course>
  <speed>0.0</speed>
  <fix>3d</fix>
</trkpt>
<trkpt lat="40.072842" lon="-105.230575">
  <ele>1586.09</ele>
  <time>2026-08-28T19:07:16Z</time>
  <course>10.66</course>
  <speed>0.0</speed>
  <fix>3d</fix>
</trkpt>
<trkpt lat="40.072842" lon="-105.230575">
  <ele>1586.09</ele>
  <time>2026-08-28T19:07:16Z</time>
  <course>266.8</course>
  <speed>0.0</speed>
  <fix>3d</fix>
</trkpt>
<trkpt lat="40.072842" lon="-105.230575">
  <ele>1586.09</ele>
  <time>2026-08-28T19:07:16Z</time>
  <course>10.81</course>
  <speed>0.0</speed>
  <fix>3d</fix>
</trkpt>
<trkpt lat="40.072842" lon="-105.230575">
  <ele>1586.09</ele>
  <time>2026-08-28T19:07:16Z</time>
  <course>266.15</course>
  <speed>0.0</speed>
  <fix>3d</fix>
</trkpt>
<trkpt lat="40.072842" lon="-105.230575">
  <ele>1586.09</ele>
  <time>2026-08-28T19:07:16Z</time>
  <course>10.94</course>
  <speed>0.0</speed>
  <fix>3d</fix>
</trkpt>
<trkpt lat="40.072842" lon="-105.230575">
  <ele>1586.09</ele>
  <time>2026-08-28T19:07:16Z</time>
  <course>265.92</course>
  <speed>0.0</speed>
  <fix>3d</fix>
</trkpt>
<trkpt lat="40.072842" lon="-105.230575">
  <ele>1586.09</ele>
  <time>2026-08-28T19:07:16Z</time>
  <course>11.06</course>
  <speed>0.0</speed>
  <fix>3d</fix>
</trkpt>
<trkpt lat="40.072842" lon="-105.230575">
  <ele>1586.09</ele>
  <time>2026-08-28T19:07:16Z</time>
  <course>266.03</course>
  <speed>0.0</speed>
  <fix>3d</fix>
</trkpt>
<trkpt lat="40.072842" lon="-105.230575">
  <ele>1586.09</ele>
  <time>2026-08-28T19:07:16Z</time>
  <course>11.17</course>
  <speed>0.0</speed>
  <fix>3d</fix>
</trkpt>
<trkpt lat="40.072842" lon="-105.230575">
  <ele>1586.09</ele>
  <time>2026-08-28T19:07:16Z</time>
  <course>266.05</course>
  <speed>0.0</speed>
  <fix>3d</fix>
</trkpt>
<trkpt lat="40.072842" lon="-105.230575">
  <ele>1586.09</ele>
  <time>2026-08-28T19:07:17Z</time>
  <course>11.27</course>
  <speed>0.0</speed>
  <fix>3d</fix>
</trkpt>
<trkpt lat="40.072842" lon="-105.230575">
  <ele>1586.09</ele>
  <time>2026-08-28T19:07:17Z</time>
  <course>266.03</course>
  <speed>0.0</speed>
  <fix>3d</fix>
</trkpt>
<trkpt lat="40.072842" lon="-105.230575">
  <ele>1586.09</ele>
  <time>2026-08-28T19:07:17Z</time>
  <course>11.37</course>
  <speed>0.0</speed>
  <fix>3d</fix>
</trkpt>
<trkpt lat="40.072842" lon="-105.230575">
  <ele>1586.09</ele>
  <time>2026-08-28T19:07:17Z</time>
  <course>266.03</course>
  <speed>0.0</speed>
  <fix>3d</fix>
</trkpt>
<trkpt lat="40.072842" lon="-105.230575">
  <ele>1586.09</ele>
  <time>2026-08-28T19:07:17Z</time>
  <course>11.45</course>
  <speed>0.0</speed>
  <fix>3d</fix>
</trkpt>
<trkpt lat="40.072842" lon="-105.230575">
  <ele>1586.09</ele>
  <time>2026-08-28T19:07:17Z</time>
  <course>266.03</course>
  <speed>0.0</speed>
  <fix>3d</fix>
</trkpt>
<trkpt lat="40.072842" lon="-105.230575">
  <ele>1586.09</ele>
  <time>2026-08-28T19:07:17Z</time>
  <course>11.52</course>
  <speed>0.0</speed>
  <fix>3d</fix>
</trkpt>
<trkpt lat="40.072842" lon="-105.230575">
  <ele>1586.09</ele>
  <time>2026-08-28T19:07:17Z</time>
  <course>266.03</course>
  <speed>0.0</speed>
  <fix>3d</fix>
</trkpt>
<trkpt lat="40.072842" lon="-105.230575">
  <ele>1586.09</ele>
  <time>2026-08-28T19:07:17Z</time>
  <course>11.59</course>
  <speed>0.0</speed>
  <fix>3d</fix>
</trkpt>
<trkpt lat="40.072842" lon="-105.230575">
  <ele>1586.09</ele>
  <time>2026-08-28T19:07:17Z</time>
  <course>266.03</course>
  <speed>0.0</speed>
  <fix>3d</fix>
</trkpt>
<trkpt lat="40.072842" lon="-105.230575">
  <ele>1586.09</ele>
  <time>2026-08-28T19:07:17Z</time>
  <course>11.65</course>
  <speed>0.0</speed>
  <fix>3d</fix>
</trkpt>
<trkpt lat="40.072842" lon="-105.230575">
  <ele>1586.09</ele>
  <time>2026-08-28T19:07:17Z</time>
  <course>266.03</course>
  <speed>0.0</speed>
  <fix>3d</fix>
</trkpt>
<trkpt lat="40.072842" lon="-105.230575">
  <ele>1586.09</ele>
  <time>2026-08-28T19:07:17Z</time>
  <course>11.71</course>
  <speed>0.0</speed>
  <fix>3d</fix>
</trkpt>
<trkpt lat="40.072842" lon="-105.230575">
  <ele>1586.09</ele>
  <time>2026-08-28T19:07:17Z</time>
  <course>266.03</course>
  <speed>0.0</speed>
  <fix>3d</fix>
</trkpt>
<trkpt lat="40.072842" lon="-105.230575">
  <ele>1586.09</ele>
  <time>2026-08-28T19:07:17Z</time>
  <course>11.76</course>
  <speed>0.0</speed>
  <fix>3d</fix>
</trkpt>
<trkpt lat="40.072842" lon="-105.230575">
  <ele>1586.09</ele>
  <time>2026-08-28T19:07:17Z</time>
  <course>266.03</course>
  <speed>0.0</speed>
  <fix>3d</fix>
</trkpt>
<trkpt lat="40.072842" lon="-105.230575">
  <ele>1586.09</ele>
  <time>2026-08-28T19:07:17Z</time>
  <course>11.81</course>
  <speed>0.0</speed>
  <fix>3d</fix>
</trkpt>
<trkpt lat="40.072842" lon="-105.230575">
  <ele>1586.09</ele>
  <time>2026-08-28T19:07:17Z</time>
  <course>266.03</course>
  <speed>0.0</speed>
  <fix>3d</fix>
</trkpt>
<trkpt lat="40.072842" lon="-105.230575">
  <ele>1586.09</ele>
  <time>2026-08-28T19:07:17Z</time>
  <course>11.85</course>
  <speed>0.0</speed>
  <fix>3d</fix>
</trkpt>
<trkpt lat="40.072842" lon="-105.230575">
  <ele>1586.09</ele>
  <time>2026-08-28T19:07:17Z</time>
  <course>266.03</course>
  <speed>0.0</speed>
  <fix>3d</fix>
</trkpt>
<trkpt lat="40.072842" lon="-105.230575">
  <ele>1586.09</ele>
  <time>2026-08-28T19:07:17Z</time>
  <course>11.88</course>
  <speed>0.0</speed>
  <fix>3d</fix>
</trkpt>
<trkpt lat="40.072842" lon="-105.230575">
  <ele>1586.09</ele>
  <time>2026-08-28T19:07:17Z</time>
  <course>266.03</course>
  <speed>0.0</speed>
  <fix>3d</fix>
</trkpt>
<trkpt lat="40.072842" lon="-105.230575">
  <ele>1586.09</ele>
  <time>2026-08-28T19:07:17Z</time>
  <course>11.92</course>
  <speed>0.0</speed>
  <fix>3d</fix>
</trkpt>
<trkpt lat="40.072842" lon="-105.230575">
  <ele>1586.09</ele>
  <time>2026-08-28T19:07:17Z</time>
  <course>266.03</course>
  <speed>0.0</speed>
  <fix>3d</fix>
</trkpt>
<trkpt lat="40.072842" lon="-105.230575">
  <ele>1586.09</ele>
  <time>2026-08-28T19:07:17Z</time>
  <course>11.95</course>
  <speed>0.0</speed>
  <fix>3d</fix>
</trkpt>
<trkpt lat="40.072842" lon="-105.230575">
  <ele>1586.09</ele>
  <time>2026-08-28T19:07:17Z</time>
  <course>266.03</course>
  <speed>0.0</speed>
  <fix>3d</fix>
</trkpt>
<trkpt lat="40.072842" lon="-105.230575">
  <ele>1586.09</ele>
  <time>2026-08-28T19:07:17Z</time>
  <course>11.97</course>
  <speed>0.0</speed>
  <fix>3d</fix>
</trkpt>
<trkpt lat="40.072842" lon="-105.230575">
  <ele>1586.09</ele>
  <time>2026-08-28T19:07:17Z</time>
  <course>266.03</course>
  <speed>0.0</speed>
  <fix>3d</fix>
</trkpt>
<trkpt lat="40.072842" lon="-105.230575">
  <ele>1586.09</ele>
  <time>2026-08-28T19:07:17Z</time>
  <course>12.0</course>
  <speed>0.0</speed>
  <fix>3d</fix>
</trkpt>
<trkpt lat="40.072842" lon="-105.230575">
  <ele>1586.09</ele>
  <time>2026-08-28T19:07:17Z</time>
  <course>266.03</course>
  <speed>0.0</speed>
  <fix>3d</fix>
</trkpt>
<trkpt lat="40.072842" lon="-105.230575">
  <ele>1586.09</ele>
  <time>2026-08-28T19:07:17Z</time>
  <course>12.02</course>
  <speed>0.0</speed>
  <fix>3d</fix>
</trkpt>
<trkpt lat="40.072842" lon="-105.230575">
  <ele>1586.09</ele>
  <time>2026-08-28T19:07:17Z</time>
  <course>266.03</course>
  <speed>0.0</speed>
  <fix>3d</fix>
</trkpt>
<trkpt lat="40.072842" lon="-105.230575">
  <ele>1586.09</ele>
  <time>2026-08-28T19:07:17Z</time>
  <course>12.03</course>
  <speed>0.0</speed>
  <fix>3d</fix>
</trkpt>
<trkpt lat="40.072842" lon="-105.230575">
  <ele>1586.09</ele>
  <time>2026-08-28T19:07:17Z</time>
  <course>266.03</course>
  <speed>0.0</speed>
  <fix>3d</fix>
</trkpt>
<trkpt lat="40.072842" lon="-105.230575">
  <ele>1586.09</ele>
  <time>2026-08-28T19:07:17Z</time>
  <course>12.05</course>
  <speed>0.0</speed>
  <fix>3d</fix>
</trkpt>
<trkpt lat="40.072842" lon="-105.230575">
  <ele>1586.09</ele>
  <time>2026-08-28T19:07:17Z</time>
  <course>266.03</course>
  <speed>0.0</speed>
  <fix>3d</fix>
</trkpt>
<trkpt lat="40.072842" lon="-105.230575">
  <ele>1586.09</ele>
  <time>2026-08-28T19:07:17Z</time>
  <course>12.06</course>
  <speed>0.0</speed>
  <fix>3d</fix>
</trkpt>
<trkpt lat="40.072842" lon="-105.230575">
  <ele>1586.09</ele>
  <time>2026-08-28T19:07:17Z</time>
  <course>266.03</course>
  <speed>0.0</speed>
  <fix>3d</fix>
</trkpt>
<trkpt lat="40.072842" lon="-105.230575">
  <ele>1586.09</ele>
  <time>2026-08-28T19:07:17Z</time>
  <course>12.08</course>
  <speed>0.0</speed>
  <fix>3d</fix>
</trkpt>
<trkpt lat="40.072842" lon="-105.230575">
  <ele>1586.09</ele>
  <time>2026-08-28T19:07:17Z</time>
  <course>266.03</course>
  <speed>0.0</speed>
  <fix>3d</fix>
</trkpt>
<trkpt lat="40.072842" lon="-105.230575">
  <ele>1586.09</ele>
  <time>2026-08-28T19:07:17Z</time>
  <course>12.09</course>
  <speed>0.0</speed>
  <fix>3d</fix>
</trkpt>
<trkpt lat="40.072842" lon="-105.230575">
  <ele>1586.09</ele>
  <time>2026-08-28T19:07:17Z</time>
  <course>266.03</course>
  <speed>0.0</speed>
  <fix>3d</fix>
</trkpt>
<trkpt lat="40.072842" lon="-105.230575">
  <ele>1586.09</ele>
  <time>2026-08-28T19:07:17Z</time>
  <course>12.1</course>
  <speed>0.0</speed>
  <fix>3d</fix>
</trkpt>
<trkpt lat="40.072842" lon="-105.230575">
  <ele>1586.09</ele>
  <time>2026-08-28T19:07:17Z</time>
  <course>266.03</course>
  <speed>0.0</speed>
  <fix>3d</fix>
</trkpt>
<trkpt lat="40.072842" lon="-105.230575">
  <ele>1586.09</ele>
  <time>2026-08-28T19:07:17Z</time>
  <course>12.1</course>
  <speed>0.0</speed>
  <fix>3d</fix>
</trkpt>
<trkpt lat="40.072842" lon="-105.230575">
  <ele>1586.09</ele>
  <time>2026-08-28T19:07:17Z</time>
  <course>266.03</course>
  <speed>0.0</speed>
  <fix>3d</fix>
</trkpt>
<trkpt lat="40.072842" lon="-105.230575">
  <ele>1586.09</ele>
  <time>2026-08-28T19:07:17Z</time>
  <course>12.11</course>
  <speed>0.0</speed>
  <fix>3d</fix>
</trkpt>
<trkpt lat="40.072842" lon="-105.230575">
  <ele>1586.09</ele>
  <time>2026-08-28T19:07:17Z</time>
  <course>266.03</course>
  <speed>0.0</speed>
  <fix>3d</fix>
</trkpt>
<trkpt lat="40.072842" lon="-105.230575">
  <ele>1586.09</ele>
  <time>2026-08-28T19:07:17Z</time>
  <course>12.12</course>
  <speed>0.0</speed>
  <fix>3d</fix>
</trkpt>
<trkpt lat="40.072842" lon="-105.230575">
  <ele>1586.09</ele>
  <time>2026-08-28T19:07:17Z</time>
  <course>266.03</course>
  <speed>0.0</speed>
  <fix>3d</fix>
</trkpt>
<trkpt lat="40.072842" lon="-105.230575">
  <ele>1586.09</ele>
  <time>2026-08-28T19:07:17Z</time>
  <course>12.12</course>
  <speed>0.0</speed>
  <fix>3d</fix>
</trkpt>
<trkpt lat="40.072842" lon="-105.230575">
  <ele>1586.09</ele>
  <time>2026-08-28T19:07:17Z</time>
  <course>266.03</course>
  <speed>0.0</speed>
  <fix>3d</fix>
</trkpt>
<trkpt lat="40.072842" lon="-105.230575">
  <ele>1586.09</ele>
  <time>2026-08-28T19:07:17Z</time>
  <course>12.12</course>
  <speed>0.0</speed>
  <fix>3d</fix>
</trkpt>
<trkpt lat="40.072842" lon="-105.230575">
  <ele>1586.09</ele>
  <time>2026-08-28T19:07:17Z</time>
  <course>266.03</course>
  <speed>0.0</speed>
  <fix>3d</fix>
</trkpt>
<trkpt lat="40.072842" lon="-105.230575">
  <ele>1586.09</ele>
  <time>2026-08-28T19:07:17Z</time>
  <course>12.13</course>
  <speed>0.0</speed>
  <fix>3d</fix>
</trkpt>
<trkpt lat="40.072842" lon="-105.230575">
  <ele>1586.09</ele>
  <time>2026-08-28T19:07:17Z</time>
  <course>266.03</course>
  <speed>0.0</speed>
  <fix>3d</fix>
</trkpt>
<trkpt lat="40.072842" lon="-105.230575">
  <ele>1586.09</ele>
  <time>2026-08-28T19:07:17Z</time>
  <course>12.13</course>
  <speed>0.0</speed>
  <fix>3d</fix>
</trkpt>
<trkpt lat="40.072842" lon="-105.230575">
  <ele>1586.09</ele>
  <time>2026-08-28T19:07:17Z</time>
  <course>266.03</course>
  <speed>0.0</speed>
  <fix>3d</fix>
</trkpt>
<trkpt lat="40.072842" lon="-105.230575">
  <ele>1586.09</ele>
  <time>2026-08-28T19:07:17Z</time>
  <course>12.13</course>
  <speed>0.0</speed>
  <fix>3d</fix>
</trkpt>
<trkpt lat="40.072842" lon="-105.230575">
  <ele>1586.09</ele>
  <time>2026-08-28T19:07:17Z</time>
  <course>266.03</course>
  <speed>0.0</speed>
  <fix>3d</fix>
</trkpt>
<trkpt lat="40.072842" lon="-105.230575">
  <ele>1586.09</ele>
  <time>2026-08-28T19:07:17Z</time>
  <course>12.12</course>
  <speed>0.01</speed>
  <fix>3d</fix>
</trkpt>
<trkpt lat="40.072842" lon="-105.230575">
  <ele>1586.09</ele>
  <time>2026-08-28T19:07:17Z</time>
  <course>266.03</course>
  <speed>0.0</speed>
  <fix>3d</fix>
</trkpt>
<trkpt lat="40.072842" lon="-105.230575">
  <ele>1586.09</ele>
  <time>2026-08-28T19:07:17Z</time>
  <course>12.12</course>
  <speed>0.01</speed>
  <fix>3d</fix>
</trkpt>
<trkpt lat="40.072842" lon="-105.230575">
  <ele>1586.09</ele>
  <time>2026-08-28T19:07:17Z</time>
  <course>266.03</course>
  <speed>0.0</speed>
  <fix>3d</fix>
</trkpt>
<trkpt lat="40.072842" lon="-105.230575">
  <ele>1586.09</ele>
  <time>2026-08-28T19:07:17Z</time>
  <course>12.12</course>
  <speed>0.01</speed>
  <fix>3d</fix>
</trkpt>
<trkpt lat="40.072842" lon="-105.230575">
  <ele>1586.09</ele>
  <time>2026-08-28T19:07:17Z</time>
  <course>266.03</course>
  <speed>0.0</speed>
  <fix>3d</fix>
</trkpt>
<trkpt lat="40.072842" lon="-105.230575">
  <ele>1586.09</ele>
  <time>2026-08-28T19:07:17Z</time>
  <course>12.12</course>
  <speed>0.01</speed>
  <fix>3d</fix>
</trkpt>
<trkpt lat="40.072842" lon="-105.230575">
  <ele>1586.09</ele>
  <time>2026-08-28T19:07:17Z</time>
  <course>266.03</course>
  <speed>0.0</speed>
  <fix>3d</fix>
</trkpt>
<trkpt lat="40.072842" lon="-105.230575">
  <ele>1586.09</ele>
  <time>2026-08-28T19:07:17Z</time>
  <course>12.11</course>
  <speed>0.01</speed>
  <fix>3d</fix>
</trkpt>
<trkpt lat="40.072842" lon="-105.230575">
  <ele>1586.09</ele>
  <time>2026-08-28T19:07:17Z</time>
  <course>266.03</course>
  <speed>0.0</speed>
  <fix>3d</fix>
</trkpt>
<trkpt lat="40.072842" lon="-105.230575">
  <ele>1586.09</ele>
  <time>2026-08-28T19:07:17Z</time>
  <course>12.11</course>
  <speed>0.01</speed>
  <fix>3d</fix>
</trkpt>
<trkpt lat="40.072842" lon="-105.230575">
  <ele>1586.09</ele>
  <time>2026-08-28T19:07:17Z</time>
  <course>266.03</course>
  <speed>0.0</speed>
  <fix>3d</fix>
</trkpt>
<trkpt lat="40.072842" lon="-105.230575">
  <ele>1586.09</ele>
  <time>2026-08-28T19:07:17Z</time>
  <course>12.1</course>
  <speed>0.01</speed>
  <fix>3d</fix>
</trkpt>
<trkpt lat="40.072842" lon="-105.230575">
  <ele>1586.09</ele>
  <time>2026-08-28T19:07:17Z</time>
  <course>266.03</course>
  <speed>0.0</speed>
  <fix>3d</fix>
</trkpt>
<trkpt lat="40.072842" lon="-105.230575">
  <ele>1586.09</ele>
  <time>2026-08-28T19:07:17Z</time>
  <course>12.1</course>
  <speed>0.01</speed>
  <fix>3d</fix>
</trkpt>
<trkpt lat="40.072842" lon="-105.230575">
  <ele>1586.09</ele>
  <time>2026-08-28T19:07:17Z</time>
  <course>266.03</course>
  <speed>0.0</speed>
  <fix>3d</fix>
</trkpt>
<trkpt lat="40.072842" lon="-105.230575">
  <ele>1586.09</ele>
  <time>2026-08-28T19:07:17Z</time>
  <course>12.09</course>
  <speed>0.01</speed>
  <fix>3d</fix>
</trkpt>
<trkpt lat="40.072842" lon="-105.230575">
  <ele>1586.09</ele>
  <time>2026-08-28T19:07:17Z</time>
  <course>266.03</course>
  <speed>0.0</speed>
  <fix>3d</fix>
</trkpt>
<trkpt lat="40.072842" lon="-105.230575">
  <ele>1586.09</ele>
  <time>2026-08-28T19:07:17Z</time>
  <course>12.09</course>
  <speed>0.01</speed>
  <fix>3d</fix>
</trkpt>
<trkpt lat="40.072842" lon="-105.230575">
  <ele>1586.09</ele>
  <time>2026-08-28T19:07:17Z</time>
  <course>266.03</course>
  <speed>0.0</speed>
  <fix>3d</fix>
</trkpt>
<trkpt lat="40.072842" lon="-105.230575">
  <ele>1586.09</ele>
  <time>2026-08-28T19:07:17Z</time>
  <course>12.08</course>
  <speed>0.01</speed>
  <fix>3d</fix>
</trkpt>
<trkpt lat="40.072842" lon="-105.230575">
  <ele>1586.09</ele>
  <time>2026-08-28T19:07:17Z</time>
  <course>266.03</course>
  <speed>0.0</speed>
  <fix>3d</fix>
</trkpt>
<trkpt lat="40.072842" lon="-105.230575">
  <ele>1586.09</ele>
  <time>2026-08-28T19:07:17Z</time>
  <course>12.08</course>
  <speed>0.01414213562373095</speed>
  <fix>3d</fix>
</trkpt>
<trkpt lat="40.072842" lon="-105.230575">
  <ele>1586.09</ele>
  <time>2026-08-28T19:07:17Z</time>
  <course>266.03</course>
  <speed>0.0</speed>
  <fix>3d</fix>
</trkpt>
<trkpt lat="40.072842" lon="-105.230575">
  <ele>1586.09</ele>
  <time>2026-08-28T19:07:17Z</time>
  <course>12.07</course>
  <speed>0.01414213562373095</speed>
  <fix>3d</fix>
</trkpt>
<trkpt lat="40.072842" lon="-105.230575">
  <ele>1586.09</ele>
  <time>2026-08-28T19:07:17Z</time>
  <course>266.03</course>
  <speed>0.0</speed>
  <fix>3d</fix>
</trkpt>
<trkpt lat="40.072842" lon="-105.230575">
  <ele>1586.09</ele>
  <time>2026-08-28T19:07:17Z</time>
  <course>12.06</course>
  <speed>0.01414213562373095</speed>
  <fix>3d</fix>
</trkpt>
<trkpt lat="40.072842" lon="-105.230575">
  <ele>1586.09</ele>
  <time>2026-08-28T19:07:17Z</time>
  <course>266.03</course>
  <speed>0.0</speed>
  <fix>3d</fix>
</trkpt>
<trkpt lat="40.072842" lon="-105.230575">
  <ele>1586.09</ele>
  <time>2026-08-28T19:07:17Z</time>
  <course>12.05</course>
  <speed>0.01414213562373095</speed>
  <fix>3d</fix>
</trkpt>
<trkpt lat="40.072842" lon="-105.230575">
  <ele>1586.09</ele>
  <time>2026-08-28T19:07:17Z</time>
  <course>266.03</course>
  <speed>0.0</speed>
  <fix>3d</fix>
</trkpt>
<trkpt lat="40.072842" lon="-105.230575">
  <ele>1586.09</ele>
  <time>2026-08-28T19:07:17Z</time>
  <course>12.05</course>
  <speed>0.01414213562373095</speed>
  <fix>3d</fix>
</trkpt>
<trkpt lat="40.072842" lon="-105.230575">
  <ele>1586.09</ele>
  <time>2026-08-28T19:07:17Z</time>
  <course>266.03</course>
  <speed>0.0</speed>
  <fix>3d</fix>
</trkpt>
<trkpt lat="40.072842" lon="-105.230575">
  <ele>1586.09</ele>
  <time>2026-08-28T19:07:17Z</time>
  <course>12.04</course>
  <speed>0.01414213562373095</speed>
  <fix>3d</fix>
</trkpt>
<trkpt lat="40.072842" lon="-105.230575">
  <ele>1586.09</ele>
  <time>2026-08-28T19:07:17Z</time>
  <course>266.03</course>
  <speed>0.0</speed>
  <fix>3d</fix>
</trkpt>
<trkpt lat="40.072842" lon="-105.230575">
  <ele>1586.09</ele>
  <time>2026-08-28T19:07:17Z</time>
  <course>12.03</course>
  <speed>0.01414213562373095</speed>
  <fix>3d</fix>
</trkpt>
<trkpt lat="40.072842" lon="-105.230575">
  <ele>1586.09</ele>
  <time>2026-08-28T19:07:17Z</time>
  <course>266.03</course>
  <speed>0.0</speed>
  <fix>3d</fix>
</trkpt>
<trkpt lat="40.072842" lon="-105.230575">
  <ele>1586.09</ele>
  <time>2026-08-28T19:07:17Z</time>
  <course>12.03</course>
  <speed>0.01414213562373095</speed>
  <fix>3d</fix>
</trkpt>
<trkpt lat="40.072842" lon="-105.230575">
  <ele>1586.09</ele>
  <time>2026-08-28T19:07:17Z</time>
  <course>266.03</course>
  <speed>0.0</speed>
  <fix>3d</fix>
</trkpt>
<trkpt lat="40.072842" lon="-105.230575">
  <ele>1586.09</ele>
  <time>2026-08-28T19:07:17Z</time>
  <course>12.02</course>
  <speed>0.01414213562373095</speed>
  <fix>3d</fix>
</trkpt>
<trkpt lat="40.072842" lon="-105.230575">
  <ele>1586.09</ele>
  <time>2026-08-28T19:07:17Z</time>
  <course>266.03</course>
  <speed>0.0</speed>
  <fix>3d</fix>
</trkpt>
<trkpt lat="40.072842" lon="-105.230575">
  <ele>1586.09</ele>
  <time>2026-08-28T19:07:17Z</time>
  <course>12.01</course>
  <speed>0.01414213562373095</speed>
  <fix>3d</fix>
</trkpt>
<trkpt lat="40.072842" lon="-105.230575">
  <ele>1586.09</ele>
  <time>2026-08-28T19:07:17Z</time>
  <course>266.03</course>
  <speed>0.0</speed>
  <fix>3d</fix>
</trkpt>
<trkpt lat="40.072842" lon="-105.230575">
  <ele>1586.09</ele>
  <time>2026-08-28T19:07:17Z</time>
  <course>12.01</course>
  <speed>0.01414213562373095</speed>
  <fix>3d</fix>
</trkpt>
<trkpt lat="40.072842" lon="-105.230575">
  <ele>1586.09</ele>
  <time>2026-08-28T19:07:17Z</time>
  <course>266.03</course>
  <speed>0.0</speed>
  <fix>3d</fix>
</trkpt>
<trkpt lat="40.072842" lon="-105.230575">
  <ele>1586.09</ele>
  <time>2026-08-28T19:07:17Z</time>
  <course>12.0</course>
  <speed>0.01414213562373095</speed>
  <fix>3d</fix>
</trkpt>
<trkpt lat="40.072842" lon="-105.230575">
  <ele>1586.09</ele>
  <time>2026-08-28T19:07:17Z</time>
  <course>266.03</course>
  <speed>0.0</speed>
  <fix>3d</fix>
</trkpt>
<trkpt lat="40.072842" lon="-105.230575">
  <ele>1586.09</ele>
  <time>2026-08-28T19:07:17Z</time>
  <course>11.99</course>
  <speed>0.01414213562373095</speed>
  <fix>3d</fix>
</trkpt>
<trkpt lat="40.072842" lon="-105.230575">
  <ele>1586.09</ele>
  <time>2026-08-28T19:07:17Z</time>
  <course>266.03</course>
  <speed>0.0</speed>
  <fix>3d</fix>
</trkpt>
<trkpt lat="40.072842" lon="-105.230575">
  <ele>1586.09</ele>
  <time>2026-08-28T19:07:17Z</time>
  <course>11.98</course>
  <speed>0.01414213562373095</speed>
  <fix>3d</fix>
</trkpt>
<trkpt lat="40.072842" lon="-105.230575">
  <ele>1586.09</ele>
  <time>2026-08-28T19:07:17Z</time>
  <course>266.03</course>
  <speed>0.0</speed>
  <fix>3d</fix>
</trkpt>
<trkpt lat="40.072842" lon="-105.230575">
  <ele>1586.09</ele>
  <time>2026-08-28T19:07:17Z</time>
  <course>11.98</course>
  <speed>0.01414213562373095</speed>
  <fix>3d</fix>
</trkpt>
<trkpt lat="40.072842" lon="-105.230575">
  <ele>1586.09</ele>
  <time>2026-08-28T19:07:17Z</time>
  <course>266.03</course>
  <speed>0.0</speed>
  <fix>3d</fix>
</trkpt>
<trkpt lat="40.072842" lon="-105.230575">
  <ele>1586.09</ele>
  <time>2026-08-28T19:07:17Z</time>
  <course>11.97</course>
  <speed>0.022360679774997897</speed>
  <fix>3d</fix>
</trkpt>
<trkpt lat="40.072842" lon="-105.230575">
  <ele>1586.09</ele>
  <time>2026-08-28T19:07:17Z</time>
  <course>266.03</course>
  <speed>0.0</speed>
  <fix>3d</fix>
</trkpt>
<trkpt lat="40.072842" lon="-105.230575">
  <ele>1586.09</ele>
  <time>2026-08-28T19:07:17Z</time>
  <course>11.96</course>
  <speed>0.022360679774997897</speed>
  <fix>3d</fix>
</trkpt>
<trkpt lat="40.072842" lon="-105.230575">
  <ele>1586.09</ele>
  <time>2026-08-28T19:07:17Z</time>
  <course>266.03</course>
  <speed>0.0</speed>
  <fix>3d</fix>
</trkpt>
<trkpt lat="40.072842" lon="-105.230575">
  <ele>1586.09</ele>
  <time>2026-08-28T19:07:17Z</time>
  <course>11.95</course>
  <speed>0.022360679774997897</speed>
  <fix>3d</fix>
</trkpt>
<trkpt lat="40.072842" lon="-105.230575">
  <ele>1586.09</ele>
  <time>2026-08-28T19:07:17Z</time>
  <course>266.03</course>
  <speed>0.0</speed>
  <fix>3d</fix>
</trkpt>
<trkpt lat="40.072842" lon="-105.230575">
  <ele>1586.09</ele>
  <time>2026-08-28T19:07:17Z</time>
  <course>11.94</course>
  <speed>0.022360679774997897</speed>
  <fix>3d</fix>
</trkpt>
<trkpt lat="40.072842" lon="-105.230575">
  <ele>1586.09</ele>
  <time>2026-08-28T19:07:17Z</time>
  <course>266.03</course>
  <speed>0.0</speed>
  <fix>3d</fix>
</trkpt>
<trkpt lat="40.072842" lon="-105.230575">
  <ele>1586.09</ele>
  <time>2026-08-28T19:07:17Z</time>
  <course>11.93</course>
  <speed>0.022360679774997897</speed>
  <fix>3d</fix>
</trkpt>
<trkpt lat="40.072842" lon="-105.230575">
  <ele>1586.09</ele>
  <time>2026-08-28T19:07:17Z</time>
  <course>266.03</course>
  <speed>0.0</speed>
  <fix>3d</fix>
</trkpt>
<trkpt lat="40.072842" lon="-105.230575">
  <ele>1586.09</ele>
  <time>2026-08-28T19:07:17Z</time>
  <course>11.92</course>
  <speed>0.022360679774997897</speed>
  <fix>3d</fix>
</trkpt>
<trkpt lat="40.072842" lon="-105.230575">
  <ele>1586.09</ele>
  <time>2026-08-28T19:07:17Z</time>
  <course>266.03</course>
  <speed>0.0</speed>
  <fix>3d</fix>
</trkpt>
<trkpt lat="40.072842" lon="-105.230575">
  <ele>1586.09</ele>
  <time>2026-08-28T19:07:17Z</time>
  <course>11.92</course>
  <speed>0.022360679774997897</speed>
  <fix>3d</fix>
</trkpt>
<trkpt lat="40.072842" lon="-105.230575">
  <ele>1586.09</ele>
  <time>2026-08-28T19:07:17Z</time>
  <course>266.03</course>
  <speed>0.0</speed>
  <fix>3d</fix>
</trkpt>
<trkpt lat="40.072842" lon="-105.230575">
  <ele>1586.09</ele>
  <time>2026-08-28T19:07:17Z</time>
  <course>11.91</course>
  <speed>0.022360679774997897</speed>
  <fix>3d</fix>
</trkpt>
<trkpt lat="40.072842" lon="-105.230575">
  <ele>1586.09</ele>
  <time>2026-08-28T19:07:17Z</time>
  <course>266.03</course>
  <speed>0.0</speed>
  <fix>3d</fix>
</trkpt>
<trkpt lat="40.072842" lon="-105.230575">
  <ele>1586.09</ele>
  <time>2026-08-28T19:07:17Z</time>
  <course>11.9</course>
  <speed>0.022360679774997897</speed>
  <fix>3d</fix>
</trkpt>
<trkpt lat="40.072842" lon="-105.230575">
  <ele>1586.09</ele>
  <time>2026-08-28T19:07:17Z</time>
  <course>266.03</course>
  <speed>0.0</speed>
  <fix>3d</fix>
</trkpt>
<trkpt lat="40.072842" lon="-105.230575">
  <ele>1586.09</ele>
  <time>2026-08-28T19:07:17Z</time>
  <course>11.89</course>
  <speed>0.022360679774997897</speed>
  <fix>3d</fix>
</trkpt>
<trkpt lat="40.072842" lon="-105.230575">
  <ele>1586.09</ele>
  <time>2026-08-28T19:07:17Z</time>
  <course>266.03</course>
  <speed>0.0</speed>
  <fix>3d</fix>
</trkpt>
<trkpt lat="40.072842" lon="-105.230575">
  <ele>1586.09</ele>
  <time>2026-08-28T19:07:17Z</time>
  <course>11.88</course>
  <speed>0.022360679774997897</speed>
  <fix>3d</fix>
</trkpt>
<trkpt lat="40.072842" lon="-105.230575">
  <ele>1586.09</ele>
  <time>2026-08-28T19:07:17Z</time>
  <course>266.03</course>
  <speed>0.0</speed>
  <fix>3d</fix>
</trkpt>
<trkpt lat="40.072842" lon="-105.230575">
  <ele>1586.09</ele>
  <time>2026-08-28T19:07:17Z</time>
  <course>11.88</course>
  <speed>0.022360679774997897</speed>
  <fix>3d</fix>
</trkpt>
<trkpt lat="40.072842" lon="-105.230575">
  <ele>1586.09</ele>
  <time>2026-08-28T19:07:17Z</time>
  <course>266.03</course>
  <speed>0.0</speed>
  <fix>3d</fix>
</trkpt>
<trkpt lat="40.072842" lon="-105.230575">
  <ele>1586.09</ele>
  <time>2026-08-28T19:07:17Z</time>
  <course>11.87</course>
  <speed>0.022360679774997897</speed>
  <fix>3d</fix>
</trkpt>
<trkpt lat="40.072842" lon="-105.230575">
  <ele>1586.09</ele>
  <time>2026-08-28T19:07:17Z</time>
  <course>266.03</course>
  <speed>0.0</speed>
  <fix>3d</fix>
</trkpt>
<trkpt lat="40.072842" lon="-105.230575">
  <ele>1586.09</ele>
  <time>2026-08-28T19:07:17Z</time>
  <course>11.86</course>
  <speed>0.022360679774997897</speed>
  <fix>3d</fix>
</trkpt>
<trkpt lat="40.072842" lon="-105.230575">
  <ele>1586.09</ele>
  <time>2026-08-28T19:07:17Z</time>
  <course>266.03</course>
  <speed>0.0</speed>
  <fix>3d</fix>
</trkpt>
<trkpt lat="40.072842" lon="-105.230575">
  <ele>1586.09</ele>
  <time>2026-08-28T19:07:17Z</time>
  <course>11.85</course>
  <speed>0.022360679774997897</speed>
  <fix>3d</fix>
</trkpt>
<trkpt lat="40.072842" lon="-105.230575">
  <ele>1586.09</ele>
  <time>2026-08-28T19:07:17Z</time>
  <course>266.03</course>
  <speed>0.0</speed>
  <fix>3d</fix>
</trkpt>
<trkpt lat="40.072842" lon="-105.230575">
  <ele>1586.09</ele>
  <time>2026-08-28T19:07:17Z</time>
  <course>11.84</course>
  <speed>0.0282842712474619</speed>
  <fix>3d</fix>
</trkpt>
<trkpt lat="40.072842" lon="-105.230575">
  <ele>1586.09</ele>
  <time>2026-08-28T19:07:17Z</time>
  <course>266.03</course>
  <speed>0.0</speed>
  <fix>3d</fix>
</trkpt>
<trkpt lat="40.072842" lon="-105.230575">
  <ele>1586.09</ele>
  <time>2026-08-28T19:07:17Z</time>
  <course>11.83</course>
  <speed>0.0282842712474619</speed>
  <fix>3d</fix>
</trkpt>
<trkpt lat="40.072842" lon="-105.230575">
  <ele>1586.09</ele>
  <time>2026-08-28T19:07:17Z</time>
  <course>266.03</course>
  <speed>0.0</speed>
  <fix>3d</fix>
</trkpt>
<trkpt lat="40.072842" lon="-105.230575">
  <ele>1586.09</ele>
  <time>2026-08-28T19:07:17Z</time>
  <course>11.83</course>
  <speed>0.0282842712474619</speed>
  <fix>3d</fix>
</trkpt>
<trkpt lat="40.072842" lon="-105.230575">
  <ele>1586.09</ele>
  <time>2026-08-28T19:07:17Z</time>
  <course>266.03</course>
  <speed>0.0</speed>
  <fix>3d</fix>
</trkpt>
<trkpt lat="40.072842" lon="-105.230575">
  <ele>1586.09</ele>
  <time>2026-08-28T19:07:17Z</time>
  <course>11.82</course>
  <speed>0.0282842712474619</speed>
  <fix>3d</fix>
</trkpt>
<trkpt lat="40.072842" lon="-105.230575">
  <ele>1586.09</ele>
  <time>2026-08-28T19:07:17Z</time>
  <course>266.03</course>
  <speed>0.0</speed>
  <fix>3d</fix>
</trkpt>
<trkpt lat="40.072842" lon="-105.230575">
  <ele>1586.09</ele>
  <time>2026-08-28T19:07:17Z</time>
  <course>11.81</course>
  <speed>0.0282842712474619</speed>
  <fix>3d</fix>
</trkpt>
<trkpt lat="40.072842" lon="-105.230575">
  <ele>1586.09</ele>
  <time>2026-08-28T19:07:17Z</time>
  <course>266.03</course>
  <speed>0.0</speed>
  <fix>3d</fix>
</trkpt>
<trkpt lat="40.072842" lon="-105.230575">
  <ele>1586.09</ele>
  <time>2026-08-28T19:07:17Z</time>
  <course>11.8</course>
  <speed>0.0282842712474619</speed>
  <fix>3d</fix>
</trkpt>
<trkpt lat="40.072842" lon="-105.230575">
  <ele>1586.09</ele>
  <time>2026-08-28T19:07:17Z</time>
  <course>266.03</course>
  <speed>0.0</speed>
  <fix>3d</fix>
</trkpt>
<trkpt lat="40.072842" lon="-105.230575">
  <ele>1586.09</ele>
  <time>2026-08-28T19:07:17Z</time>
  <course>11.79</course>
  <speed>0.0282842712474619</speed>
  <fix>3d</fix>
</trkpt>
<trkpt lat="40.072842" lon="-105.230575">
  <ele>1586.09</ele>
  <time>2026-08-28T19:07:17Z</time>
  <course>266.03</course>
  <speed>0.0</speed>
  <fix>3d</fix>
</trkpt>
<trkpt lat="40.072842" lon="-105.230575">
  <ele>1586.09</ele>
  <time>2026-08-28T19:07:17Z</time>
  <course>11.79</course>
  <speed>0.0282842712474619</speed>
  <fix>3d</fix>
</trkpt>
<trkpt lat="40.072842" lon="-105.230575">
  <ele>1586.09</ele>
  <time>2026-08-28T19:07:17Z</time>
  <course>266.03</course>
  <speed>0.0</speed>
  <fix>3d</fix>
</trkpt>
<trkpt lat="40.072842" lon="-105.230575">
  <ele>1586.09</ele>
  <time>2026-08-28T19:07:17Z</time>
  <course>11.78</course>
  <speed>0.0282842712474619</speed>
  <fix>3d</fix>
</trkpt>
<trkpt lat="40.072842" lon="-105.230575">
  <ele>1586.09</ele>
  <time>2026-08-28T19:07:17Z</time>
  <course>266.03</course>
  <speed>0.0</speed>
  <fix>3d</fix>
</trkpt>
<trkpt lat="40.072842" lon="-105.230575">
  <ele>1586.09</ele>
  <time>2026-08-28T19:07:17Z</time>
  <course>11.77</course>
  <speed>0.0282842712474619</speed>
  <fix>3d</fix>
</trkpt>
<trkpt lat="40.072842" lon="-105.230575">
  <ele>1586.09</ele>
  <time>2026-08-28T19:07:17Z</time>
  <course>266.03</course>
  <speed>0.0</speed>
  <fix>3d</fix>
</trkpt>
<trkpt lat="40.072842" lon="-105.230575">
  <ele>1586.09</ele>
  <time>2026-08-28T19:07:17Z</time>
  <course>11.77</course>
  <speed>0.0282842712474619</speed>
  <fix>3d</fix>
</trkpt>
<trkpt lat="40.072842" lon="-105.230575">
  <ele>1586.09</ele>
  <time>2026-08-28T19:07:17Z</time>
  <course>266.03</course>
  <speed>0.0</speed>
  <fix>3d</fix>
</trkpt>
<trkpt lat="40.072842" lon="-105.230575">
  <ele>1586.09</ele>
  <time>2026-08-28T19:07:17Z</time>
  <course>11.76</course>
  <speed>0.0282842712474619</speed>
  <fix>3d</fix>
</trkpt>
<trkpt lat="40.072842" lon="-105.230575">
  <ele>1586.09</ele>
  <time>2026-08-28T19:07:17Z</time>
  <course>266.03</course>
  <speed>0.0</speed>
  <fix>3d</fix>
</trkpt>
<trkpt lat="40.072842" lon="-105.230575">
  <ele>1586.09</ele>
  <time>2026-08-28T19:07:17Z</time>
  <course>11.75</course>
  <speed>0.0282842712474619</speed>
  <fix>3d</fix>
</trkpt>
<trkpt lat="40.072842" lon="-105.230575">
  <ele>1586.09</ele>
  <time>2026-08-28T19:07:17Z</time>
  <course>266.03</course>
  <speed>0.0</speed>
  <fix>3d</fix>
</trkpt>
<trkpt lat="40.072842" lon="-105.230575">
  <ele>1586.09</ele>
  <time>2026-08-28T19:07:17Z</time>
  <course>11.74</course>
  <speed>0.03605551275463989</speed>
  <fix>3d</fix>
</trkpt>
<trkpt lat="40.072842" lon="-105.230575">
  <ele>1586.09</ele>
  <time>2026-08-28T19:07:17Z</time>
  <course>266.03</course>
  <speed>0.0</speed>
  <fix>3d</fix>
</trkpt>
<trkpt lat="40.072842" lon="-105.230575">
  <ele>1586.09</ele>
  <time>2026-08-28T19:07:17Z</time>
  <course>11.74</course>
  <speed>0.03605551275463989</speed>
  <fix>3d</fix>
</trkpt>
<trkpt lat="40.072842" lon="-105.230575">
  <ele>1586.09</ele>
  <time>2026-08-28T19:07:17Z</time>
  <course>266.03</course>
  <speed>0.0</speed>
  <fix>3d</fix>
</trkpt>
<trkpt lat="40.072842" lon="-105.230575">
  <ele>1586.09</ele>
  <time>2026-08-28T19:07:17Z</time>
  <course>11.73</course>
  <speed>0.03605551275463989</speed>
  <fix>3d</fix>
</trkpt>
<trkpt lat="40.072842" lon="-105.230575">
  <ele>1586.09</ele>
  <time>2026-08-28T19:07:17Z</time>
  <course>266.03</course>
  <speed>0.0</speed>
  <fix>3d</fix>
</trkpt>
<trkpt lat="40.072842" lon="-105.230575">
  <ele>1586.09</ele>
  <time>2026-08-28T19:07:17Z</time>
  <course>11.72</course>
  <speed>0.03605551275463989</speed>
  <fix>3d</fix>
</trkpt>
<trkpt lat="40.072842" lon="-105.230575">
  <ele>1586.09</ele>
  <time>2026-08-28T19:07:17Z</time>
  <course>266.03</course>
  <speed>0.0</speed>
  <fix>3d</fix>
</trkpt>
<trkpt lat="40.072842" lon="-105.230575">
  <ele>1586.09</ele>
  <time>2026-08-28T19:07:17Z</time>
  <course>11.71</course>
  <speed>0.03605551275463989</speed>
  <fix>3d</fix>
</trkpt>
<trkpt lat="40.072842" lon="-105.230575">
  <ele>1586.09</ele>
  <time>2026-08-28T19:07:17Z</time>
  <course>266.03</course>
  <speed>0.0</speed>
  <fix>3d</fix>
</trkpt>
<trkpt lat="40.072842" lon="-105.230575">
  <ele>1586.09</ele>
  <time>2026-08-28T19:07:17Z</time>
  <course>11.71</course>
  <speed>0.03605551275463989</speed>
  <fix>3d</fix>
</trkpt>
<trkpt lat="40.072842" lon="-105.230575">
  <ele>1586.09</ele>
  <time>2026-08-28T19:07:17Z</time>
  <course>266.03</course>
  <speed>0.0</speed>
  <fix>3d</fix>
</trkpt>
<trkpt lat="40.072842" lon="-105.230575">
  <ele>1586.09</ele>
  <time>2026-08-28T19:07:17Z</time>
  <course>11.7</course>
  <speed>0.03605551275463989</speed>
  <fix>3d</fix>
</trkpt>
<trkpt lat="40.072842" lon="-105.230575">
  <ele>1586.09</ele>
  <time>2026-08-28T19:07:17Z</time>
  <course>266.03</course>
  <speed>0.0</speed>
  <fix>3d</fix>
</trkpt>
<trkpt lat="40.072842" lon="-105.230575">
  <ele>1586.09</ele>
  <time>2026-08-28T19:07:17Z</time>
  <course>11.69</course>
  <speed>0.03605551275463989</speed>
  <fix>3d</fix>
</trkpt>
<trkpt lat="40.072842" lon="-105.230575">
  <ele>1586.09</ele>
  <time>2026-08-28T19:07:17Z</time>
  <course>266.03</course>
  <speed>0.0</speed>
  <fix>3d</fix>
</trkpt>
<trkpt lat="40.072842" lon="-105.230575">
  <ele>1586.09</ele>
  <time>2026-08-28T19:07:17Z</time>
  <course>11.68</course>
  <speed>0.03605551275463989</speed>
  <fix>3d</fix>
</trkpt>
<trkpt lat="40.072842" lon="-105.230575">
  <ele>1586.09</ele>
  <time>2026-08-28T19:07:17Z</time>
  <course>266.03</course>
  <speed>0.0</speed>
  <fix>3d</fix>
</trkpt>
<trkpt lat="40.072842" lon="-105.230575">
  <ele>1586.09</ele>
  <time>2026-08-28T19:07:17Z</time>
  <course>11.68</course>
  <speed>0.03605551275463989</speed>
  <fix>3d</fix>
</trkpt>
<trkpt lat="40.072842" lon="-105.230575">
  <ele>1586.09</ele>
  <time>2026-08-28T19:07:17Z</time>
  <course>266.03</course>
  <speed>0.0</speed>
  <fix>3d</fix>
</trkpt>
<trkpt lat="40.072842" lon="-105.230575">
  <ele>1586.09</ele>
  <time>2026-08-28T19:07:17Z</time>
  <course>11.67</course>
  <speed>0.03605551275463989</speed>
  <fix>3d</fix>
</trkpt>
<trkpt lat="40.072842" lon="-105.230575">
  <ele>1586.09</ele>
  <time>2026-08-28T19:07:17Z</time>
  <course>266.03</course>
  <speed>0.0</speed>
  <fix>3d</fix>
</trkpt>
<trkpt lat="40.072842" lon="-105.230575">
  <ele>1586.09</ele>
  <time>2026-08-28T19:07:17Z</time>
  <course>11.66</course>
  <speed>0.03605551275463989</speed>
  <fix>3d</fix>
</trkpt>
<trkpt lat="40.072842" lon="-105.230575">
  <ele>1586.09</ele>
  <time>2026-08-28T19:07:17Z</time>
  <course>266.03</course>
  <speed>0.0</speed>
  <fix>3d</fix>
</trkpt>
<trkpt lat="40.072842" lon="-105.230575">
  <ele>1586.09</ele>
  <time>2026-08-28T19:07:17Z</time>
  <course>11.66</course>
  <speed>0.03605551275463989</speed>
  <fix>3d</fix>
</trkpt>
<trkpt lat="40.072842" lon="-105.230575">
  <ele>1586.09</ele>
  <time>2026-08-28T19:07:17Z</time>
  <course>266.03</course>
  <speed>0.0</speed>
  <fix>3d</fix>
</trkpt>
<trkpt lat="40.072842" lon="-105.230575">
  <ele>1586.09</ele>
  <time>2026-08-28T19:07:17Z</time>
  <course>11.65</course>
  <speed>0.03605551275463989</speed>
  <fix>3d</fix>
</trkpt>
<trkpt lat="40.072842" lon="-105.230575">
  <ele>1586.09</ele>
  <time>2026-08-28T19:07:17Z</time>
  <course>266.03</course>
  <speed>0.0</speed>
  <fix>3d</fix>
</trkpt>
<trkpt lat="40.072842" lon="-105.230575">
  <ele>1586.09</ele>
  <time>2026-08-28T19:07:17Z</time>
  <course>11.64</course>
  <speed>0.03605551275463989</speed>
  <fix>3d</fix>
</trkpt>
<trkpt lat="40.072842" lon="-105.230575">
  <ele>1586.09</ele>
  <time>2026-08-28T19:07:17Z</time>
  <course>266.03</course>
  <speed>0.0</speed>
  <fix>3d</fix>
</trkpt>
<trkpt lat="40.072842" lon="-105.230575">
  <ele>1586.09</ele>
  <time>2026-08-28T19:07:17Z</time>
  <course>11.63</course>
  <speed>0.03605551275463989</speed>
  <fix>3d</fix>
</trkpt>
<trkpt lat="40.072842" lon="-105.230575">
  <ele>1586.09</ele>
  <time>2026-08-28T19:07:17Z</time>
  <course>266.03</course>
  <speed>0.0</speed>
  <fix>3d</fix>
</trkpt>
<trkpt lat="40.072842" lon="-105.230575">
  <ele>1586.09</ele>
  <time>2026-08-28T19:07:17Z</time>
  <course>11.63</course>
  <speed>0.03605551275463989</speed>
  <fix>3d</fix>
</trkpt>
<trkpt lat="40.072842" lon="-105.230575">
  <ele>1586.09</ele>
  <time>2026-08-28T19:07:17Z</time>
  <course>266.03</course>
  <speed>0.0</speed>
  <fix>3d</fix>
</trkpt>
<trkpt lat="40.072842" lon="-105.230575">
  <ele>1586.09</ele>
  <time>2026-08-28T19:07:17Z</time>
  <course>11.62</course>
  <speed>0.03605551275463989</speed>
  <fix>3d</fix>
</trkpt>
<trkpt lat="40.072842" lon="-105.230575">
  <ele>1586.09</ele>
  <time>2026-08-28T19:07:17Z</time>
  <course>266.03</course>
  <speed>0.0</speed>
  <fix>3d</fix>
</trkpt>
<trkpt lat="40.072842" lon="-105.230575">
  <ele>1586.09</ele>
  <time>2026-08-28T19:07:17Z</time>
  <course>11.61</course>
  <speed>0.03605551275463989</speed>
  <fix>3d</fix>
</trkpt>
<trkpt lat="40.072842" lon="-105.230575">
  <ele>1586.09</ele>
  <time>2026-08-28T19:07:17Z</time>
  <course>266.03</course>
  <speed>0.0</speed>
  <fix>3d</fix>
</trkpt>
<trkpt lat="40.072842" lon="-105.230575">
  <ele>1586.09</ele>
  <time>2026-08-28T19:07:17Z</time>
  <course>11.61</course>
  <speed>0.03605551275463989</speed>
  <fix>3d</fix>
</trkpt>
<trkpt lat="40.072842" lon="-105.230575">
  <ele>1586.09</ele>
  <time>2026-08-28T19:07:17Z</time>
  <course>266.03</course>
  <speed>0.0</speed>
  <fix>3d</fix>
</trkpt>
<trkpt lat="40.072842" lon="-105.230575">
  <ele>1586.09</ele>
  <time>2026-08-28T19:07:17Z</time>
  <course>11.6</course>
  <speed>0.03605551275463989</speed>
  <fix>3d</fix>
</trkpt>
<trkpt lat="40.072842" lon="-105.230575">
  <ele>1586.09</ele>
  <time>2026-08-28T19:07:17Z</time>
  <course>266.03</course>
  <speed>0.0</speed>
  <fix>3d</fix>
</trkpt>
<trkpt lat="40.072842" lon="-105.230575">
  <ele>1586.09</ele>
  <time>2026-08-28T19:07:17Z</time>
  <course>11.6</course>
  <speed>0.03605551275463989</speed>
  <fix>3d</fix>
</trkpt>
<trkpt lat="40.072842" lon="-105.230575">
  <ele>1586.09</ele>
  <time>2026-08-28T19:07:17Z</time>
  <course>266.03</course>
  <speed>0.0</speed>
  <fix>3d</fix>
</trkpt>
<trkpt lat="40.072842" lon="-105.230575">
  <ele>1586.09</ele>
  <time>2026-08-28T19:07:17Z</time>
  <course>11.59</course>
  <speed>0.03605551275463989</speed>
  <fix>3d</fix>
</trkpt>
<trkpt lat="40.072842" lon="-105.230575">
  <ele>1586.09</ele>
  <time>2026-08-28T19:07:17Z</time>
  <course>266.03</course>
  <speed>0.0</speed>
  <fix>3d</fix>
</trkpt>
<trkpt lat="40.072842" lon="-105.230575">
  <ele>1586.09</ele>
  <time>2026-08-28T19:07:17Z</time>
  <course>11.58</course>
  <speed>0.03605551275463989</speed>
  <fix>3d</fix>
</trkpt>
<trkpt lat="40.072842" lon="-105.230575">
  <ele>1586.09</ele>
  <time>2026-08-28T19:07:17Z</time>
  <course>266.03</course>
  <speed>0.0</speed>
  <fix>3d</fix>
</trkpt>
<trkpt lat="40.072842" lon="-105.230575">
  <ele>1586.09</ele>
  <time>2026-08-28T19:07:17Z</time>
  <course>11.58</course>
  <speed>0.03605551275463989</speed>
  <fix>3d</fix>
</trkpt>
<trkpt lat="40.072842" lon="-105.230575">
  <ele>1586.09</ele>
  <time>2026-08-28T19:07:17Z</time>
  <course>266.03</course>
  <speed>0.0</speed>
  <fix>3d</fix>
</trkpt>
<trkpt lat="40.072842" lon="-105.230575">
  <ele>1586.09</ele>
  <time>2026-08-28T19:07:17Z</time>
  <course>11.57</course>
  <speed>0.03605551275463989</speed>
  <fix>3d</fix>
</trkpt>
<trkpt lat="40.072842" lon="-105.230575">
  <ele>1586.09</ele>
  <time>2026-08-28T19:07:17Z</time>
  <course>266.03</course>
  <speed>0.0</speed>
  <fix>3d</fix>
</trkpt>
<trkpt lat="40.072842" lon="-105.230575">
  <ele>1586.09</ele>
  <time>2026-08-28T19:07:17Z</time>
  <course>11.56</course>
  <speed>0.03605551275463989</speed>
  <fix>3d</fix>
</trkpt>
<trkpt lat="40.072842" lon="-105.230575">
  <ele>1586.09</ele>
  <time>2026-08-28T19:07:17Z</time>
  <course>266.03</course>
  <speed>0.0</speed>
  <fix>3d</fix>
</trkpt>
<trkpt lat="40.072842" lon="-105.230575">
  <ele>1586.09</ele>
  <time>2026-08-28T19:07:17Z</time>
  <course>11.56</course>
  <speed>0.03605551275463989</speed>
  <fix>3d</fix>
</trkpt>
<trkpt lat="40.072842" lon="-105.230575">
  <ele>1586.09</ele>
  <time>2026-08-28T19:07:17Z</time>
  <course>266.03</course>
  <speed>0.0</speed>
  <fix>3d</fix>
</trkpt>
<trkpt lat="40.072842" lon="-105.230575">
  <ele>1586.09</ele>
  <time>2026-08-28T19:07:17Z</time>
  <course>11.55</course>
  <speed>0.03605551275463989</speed>
  <fix>3d</fix>
</trkpt>
<trkpt lat="40.072842" lon="-105.230575">
  <ele>1586.09</ele>
  <time>2026-08-28T19:07:17Z</time>
  <course>266.03</course>
  <speed>0.0</speed>
  <fix>3d</fix>
</trkpt>
<trkpt lat="40.072842" lon="-105.230575">
  <ele>1586.09</ele>
  <time>2026-08-28T19:07:17Z</time>
  <course>11.55</course>
  <speed>0.03605551275463989</speed>
  <fix>3d</fix>
</trkpt>
<trkpt lat="40.072842" lon="-105.230575">
  <ele>1586.09</ele>
  <time>2026-08-28T19:07:17Z</time>
  <course>266.03</course>
  <speed>0.0</speed>
  <fix>3d</fix>
</trkpt>
<trkpt lat="40.072842" lon="-105.230575">
  <ele>1586.09</ele>
  <time>2026-08-28T19:07:17Z</time>
  <course>11.54</course>
  <speed>0.03605551275463989</speed>
  <fix>3d</fix>
</trkpt>
<trkpt lat="40.072842" lon="-105.230575">
  <ele>1586.09</ele>
  <time>2026-08-28T19:07:17Z</time>
  <course>266.03</course>
  <speed>0.0</speed>
  <fix>3d</fix>
</trkpt>
<trkpt lat="40.072842" lon="-105.230575">
  <ele>1586.09</ele>
  <time>2026-08-28T19:07:17Z</time>
  <course>11.53</course>
  <speed>0.03605551275463989</speed>
  <fix>3d</fix>
</trkpt>
<trkpt lat="40.072842" lon="-105.230575">
  <ele>1586.09</ele>
  <time>2026-08-28T19:07:17Z</time>
  <course>266.03</course>
  <speed>0.0</speed>
  <fix>3d</fix>
</trkpt>
<trkpt lat="40.072842" lon="-105.230575">
  <ele>1586.09</ele>
  <time>2026-08-28T19:07:17Z</time>
  <course>11.53</course>
  <speed>0.03605551275463989</speed>
  <fix>3d</fix>
</trkpt>
<trkpt lat="40.072842" lon="-105.230575">
  <ele>1586.09</ele>
  <time>2026-08-28T19:07:17Z</time>
  <course>266.03</course>
  <speed>0.0</speed>
  <fix>3d</fix>
</trkpt>
<trkpt lat="40.072842" lon="-105.230575">
  <ele>1586.09</ele>
  <time>2026-08-28T19:07:17Z</time>
  <course>11.52</course>
  <speed>0.03605551275463989</speed>
  <fix>3d</fix>
</trkpt>
<trkpt lat="40.072842" lon="-105.230575">
  <ele>1586.09</ele>
  <time>2026-08-28T19:07:17Z</time>
  <course>266.03</course>
  <speed>0.0</speed>
  <fix>3d</fix>
</trkpt>
<trkpt lat="40.072842" lon="-105.230575">
  <ele>1586.09</ele>
  <time>2026-08-28T19:07:17Z</time>
  <course>11.52</course>
  <speed>0.03605551275463989</speed>
  <fix>3d</fix>
</trkpt>
<trkpt lat="40.072842" lon="-105.230575">
  <ele>1586.09</ele>
  <time>2026-08-28T19:07:17Z</time>
  <course>266.03</course>
  <speed>0.0</speed>
  <fix>3d</fix>
</trkpt>
<trkpt lat="40.072842" lon="-105.230575">
  <ele>1586.09</ele>
  <time>2026-08-28T19:07:17Z</time>
  <course>11.51</course>
  <speed>0.03605551275463989</speed>
  <fix>3d</fix>
</trkpt>
<trkpt lat="40.072842" lon="-105.230575">
  <ele>1586.09</ele>
  <time>2026-08-28T19:07:17Z</time>
  <course>266.03</course>
  <speed>0.0</speed>
  <fix>3d</fix>
</trkpt>
<trkpt lat="40.072842" lon="-105.230575">
  <ele>1586.09</ele>
  <time>2026-08-28T19:07:17Z</time>
  <course>11.51</course>
  <speed>0.044721359549995794</speed>
  <fix>3d</fix>
</trkpt>
<trkpt lat="40.072842" lon="-105.230575">
  <ele>1586.09</ele>
  <time>2026-08-28T19:07:17Z</time>
  <course>266.03</course>
  <speed>0.0</speed>
  <fix>3d</fix>
</trkpt>
<trkpt lat="40.072842" lon="-105.230575">
  <ele>1586.09</ele>
  <time>2026-08-28T19:07:17Z</time>
  <course>11.5</course>
  <speed>0.044721359549995794</speed>
  <fix>3d</fix>
</trkpt>
<trkpt lat="40.072842" lon="-105.230575">
  <ele>1586.09</ele>
  <time>2026-08-28T19:07:17Z</time>
  <course>266.03</course>
  <speed>0.0</speed>
  <fix>3d</fix>
</trkpt>
<trkpt lat="40.072842" lon="-105.230575">
  <ele>1586.09</ele>
  <time>2026-08-28T19:07:17Z</time>
  <course>11.5</course>
  <speed>0.044721359549995794</speed>
  <fix>3d</fix>
</trkpt>
<trkpt lat="40.072842" lon="-105.230575">
  <ele>1586.09</ele>
  <time>2026-08-28T19:07:17Z</time>
  <course>266.03</course>
  <speed>0.0</speed>
  <fix>3d</fix>
</trkpt>
<trkpt lat="40.072842" lon="-105.230575">
  <ele>1586.09</ele>
  <time>2026-08-28T19:07:17Z</time>
  <course>11.49</course>
  <speed>0.044721359549995794</speed>
  <fix>3d</fix>
</trkpt>
<trkpt lat="40.072842" lon="-105.230575">
  <ele>1586.09</ele>
  <time>2026-08-28T19:07:17Z</time>
  <course>266.03</course>
  <speed>0.0</speed>
  <fix>3d</fix>
</trkpt>
<trkpt lat="40.072842" lon="-105.230575">
  <ele>1586.09</ele>
  <time>2026-08-28T19:07:17Z</time>
  <course>11.48</course>
  <speed>0.044721359549995794</speed>
  <fix>3d</fix>
</trkpt>
<trkpt lat="40.072842" lon="-105.230575">
  <ele>1586.09</ele>
  <time>2026-08-28T19:07:17Z</time>
  <course>266.03</course>
  <speed>0.0</speed>
  <fix>3d</fix>
</trkpt>
<trkpt lat="40.072842" lon="-105.230575">
  <ele>1586.09</ele>
  <time>2026-08-28T19:07:17Z</time>
  <course>11.48</course>
  <speed>0.044721359549995794</speed>
  <fix>3d</fix>
</trkpt>
<trkpt lat="40.072842" lon="-105.230575">
  <ele>1586.09</ele>
  <time>2026-08-28T19:07:17Z</time>
  <course>266.03</course>
  <speed>0.0</speed>
  <fix>3d</fix>
</trkpt>
<trkpt lat="40.072842" lon="-105.230575">
  <ele>1586.09</ele>
  <time>2026-08-28T19:07:17Z</time>
  <course>11.47</course>
  <speed>0.044721359549995794</speed>
  <fix>3d</fix>
</trkpt>
<trkpt lat="40.072842" lon="-105.230575">
  <ele>1586.09</ele>
  <time>2026-08-28T19:07:17Z</time>
  <course>266.03</course>
  <speed>0.0</speed>
  <fix>3d</fix>
</trkpt>
<trkpt lat="40.072842" lon="-105.230575">
  <ele>1586.09</ele>
  <time>2026-08-28T19:07:17Z</time>
  <course>11.47</course>
  <speed>0.044721359549995794</speed>
  <fix>3d</fix>
</trkpt>
<trkpt lat="40.072842" lon="-105.230575">
  <ele>1586.09</ele>
  <time>2026-08-28T19:07:17Z</time>
  <course>266.03</course>
  <speed>0.0</speed>
  <fix>3d</fix>
</trkpt>
<trkpt lat="40.072842" lon="-105.230575">
  <ele>1586.09</ele>
  <time>2026-08-28T19:07:17Z</time>
  <course>11.47</course>
  <speed>0.044721359549995794</speed>
  <fix>3d</fix>
</trkpt>
<trkpt lat="40.072842" lon="-105.230575">
  <ele>1586.09</ele>
  <time>2026-08-28T19:07:17Z</time>
  <course>266.03</course>
  <speed>0.0</speed>
  <fix>3d</fix>
</trkpt>
<trkpt lat="40.072842" lon="-105.230575">
  <ele>1586.09</ele>
  <time>2026-08-28T19:07:17Z</time>
  <course>11.46</course>
  <speed>0.044721359549995794</speed>
  <fix>3d</fix>
</trkpt>
<trkpt lat="40.072842" lon="-105.230575">
  <ele>1586.09</ele>
  <time>2026-08-28T19:07:17Z</time>
  <course>266.03</course>
  <speed>0.0</speed>
  <fix>3d</fix>
</trkpt>
<trkpt lat="40.072842" lon="-105.230575">
  <ele>1586.16</ele>
  <time>2026-08-28T19:07:17Z</time>
  <course>11.45</course>
  <speed>0.0</speed>
  <fix>3d</fix>
</trkpt>
<trkpt lat="40.072842" lon="-105.230575">
  <ele>1586.09</ele>
  <time>2026-08-28T19:07:17Z</time>
  <course>297.19</course>
  <speed>0.0</speed>
  <fix>3d</fix>
</trkpt>
<trkpt lat="40.072842" lon="-105.230575">
  <ele>1586.16</ele>
  <time>2026-08-28T19:07:17Z</time>
  <course>11.45</course>
  <speed>0.0</speed>
  <fix>3d</fix>
</trkpt>
<trkpt lat="40.072842" lon="-105.230575">
  <ele>1586.09</ele>
  <time>2026-08-28T19:07:17Z</time>
  <course>269.87</course>
  <speed>0.0</speed>
  <fix>3d</fix>
</trkpt>
<trkpt lat="40.072842" lon="-105.230575">
  <ele>1586.16</ele>
  <time>2026-08-28T19:07:17Z</time>
  <course>11.44</course>
  <speed>0.0</speed>
  <fix>3d</fix>
</trkpt>
<trkpt lat="40.072842" lon="-105.230575">
  <ele>1586.09</ele>
  <time>2026-08-28T19:07:17Z</time>
  <course>241.23</course>
  <speed>0.0</speed>
  <fix>3d</fix>
</trkpt>
<trkpt lat="40.072842" lon="-105.230575">
  <ele>1586.16</ele>
  <time>2026-08-28T19:07:17Z</time>
  <course>11.44</course>
  <speed>0.0</speed>
  <fix>3d</fix>
</trkpt>
<trkpt lat="40.072842" lon="-105.230575">
  <ele>1586.09</ele>
  <time>2026-08-28T19:07:17Z</time>
  <course>93.08</course>
  <speed>0.0</speed>
  <fix>3d</fix>
</trkpt>
<trkpt lat="40.072842" lon="-105.230575">
  <ele>1586.17</ele>
  <time>2026-08-28T19:07:18Z</time>
  <course>11.44</course>
  <speed>0.0</speed>
  <fix>3d</fix>
</trkpt>
<trkpt lat="40.072842" lon="-105.230575">
  <ele>1586.09</ele>
  <time>2026-08-28T19:07:18Z</time>
  <course>317.31</course>
  <speed>0.0</speed>
  <fix>3d</fix>
</trkpt>
<trkpt lat="40.072842" lon="-105.230575">
  <ele>1586.17</ele>
  <time>2026-08-28T19:07:18Z</time>
  <course>11.43</course>
  <speed>0.01</speed>
  <fix>3d</fix>
</trkpt>
<trkpt lat="40.072842" lon="-105.230575">
  <ele>1586.09</ele>
  <time>2026-08-28T19:07:18Z</time>
  <course>265.24</course>
  <speed>0.0</speed>
  <fix>3d</fix>
</trkpt>
<trkpt lat="40.072842" lon="-105.230575">
  <ele>1586.17</ele>
  <time>2026-08-28T19:07:18Z</time>
  <course>11.43</course>
  <speed>0.01</speed>
  <fix>3d</fix>
</trkpt>
<trkpt lat="40.072842" lon="-105.230575">
  <ele>1586.09</ele>
  <time>2026-08-28T19:07:18Z</time>
  <course>261.76</course>
  <speed>0.0</speed>
  <fix>3d</fix>
</trkpt>
<trkpt lat="40.072842" lon="-105.230575">
  <ele>1586.17</ele>
  <time>2026-08-28T19:07:18Z</time>
  <course>11.42</course>
  <speed>0.01</speed>
  <fix>3d</fix>
</trkpt>
<trkpt lat="40.072842" lon="-105.230575">
  <ele>1586.09</ele>
  <time>2026-08-28T19:07:18Z</time>
  <course>266.78</course>
  <speed>0.0</speed>
  <fix>3d</fix>
</trkpt>
<trkpt lat="40.072842" lon="-105.230575">
  <ele>1586.17</ele>
  <time>2026-08-28T19:07:18Z</time>
  <course>11.42</course>
  <speed>0.01414213562373095</speed>
  <fix>3d</fix>
</trkpt>
<trkpt lat="40.072842" lon="-105.230575">
  <ele>1586.09</ele>
  <time>2026-08-28T19:07:18Z</time>
  <course>266.53</course>
  <speed>0.0</speed>
  <fix>3d</fix>
</trkpt>
<trkpt lat="40.072842" lon="-105.230575">
  <ele>1586.17</ele>
  <time>2026-08-28T19:07:18Z</time>
  <course>11.42</course>
  <speed>0.01414213562373095</speed>
  <fix>3d</fix>
</trkpt>
<trkpt lat="40.072842" lon="-105.230575">
  <ele>1586.09</ele>
  <time>2026-08-28T19:07:18Z</time>
  <course>265.88</course>
  <speed>0.0</speed>
  <fix>3d</fix>
</trkpt>
<trkpt lat="40.072842" lon="-105.230575">
  <ele>1586.17</ele>
  <time>2026-08-28T19:07:18Z</time>
  <course>11.41</course>
  <speed>0.01414213562373095</speed>
  <fix>3d</fix>
</trkpt>
<trkpt lat="40.072842" lon="-105.230575">
  <ele>1586.09</ele>
  <time>2026-08-28T19:07:18Z</time>
  <course>265.99</course>
  <speed>0.0</speed>
  <fix>3d</fix>
</trkpt>
<trkpt lat="40.072842" lon="-105.230575">
  <ele>1586.17</ele>
  <time>2026-08-28T19:07:18Z</time>
  <course>11.41</course>
  <speed>0.022360679774997897</speed>
  <fix>3d</fix>
</trkpt>
<trkpt lat="40.072842" lon="-105.230575">
  <ele>1586.09</ele>
  <time>2026-08-28T19:07:18Z</time>
  <course>266.06</course>
  <speed>0.0</speed>
  <fix>3d</fix>
</trkpt>
<trkpt lat="40.072842" lon="-105.230575">
  <ele>1586.17</ele>
  <time>2026-08-28T19:07:18Z</time>
  <course>11.4</course>
  <speed>0.022360679774997897</speed>
  <fix>3d</fix>
</trkpt>
<trkpt lat="40.072842" lon="-105.230575">
  <ele>1586.09</ele>
  <time>2026-08-28T19:07:18Z</time>
  <course>266.04</course>
  <speed>0.0</speed>
  <fix>3d</fix>
</trkpt>
<trkpt lat="40.072842" lon="-105.230575">
  <ele>1586.17</ele>
  <time>2026-08-28T19:07:18Z</time>
  <course>11.4</course>
  <speed>0.022360679774997897</speed>
  <fix>3d</fix>
</trkpt>
<trkpt lat="40.072842" lon="-105.230575">
  <ele>1586.09</ele>
  <time>2026-08-28T19:07:18Z</time>
  <course>266.03</course>
  <speed>0.0</speed>
  <fix>3d</fix>
</trkpt>
<trkpt lat="40.072842" lon="-105.230575">
  <ele>1586.17</ele>
  <time>2026-08-28T19:07:18Z</time>
  <course>11.4</course>
  <speed>0.022360679774997897</speed>
  <fix>3d</fix>
</trkpt>
<trkpt lat="40.072842" lon="-105.230575">
  <ele>1586.09</ele>
  <time>2026-08-28T19:07:18Z</time>
  <course>266.04</course>
  <speed>0.0</speed>
  <fix>3d</fix>
</trkpt>
<trkpt lat="40.0728419" lon="-105.230575">
  <ele>1586.17</ele>
  <time>2026-08-28T19:07:18Z</time>
  <course>11.39</course>
  <speed>0.022360679774997897</speed>
  <fix>3d</fix>
</trkpt>
<trkpt lat="40.072842" lon="-105.230575">
  <ele>1586.09</ele>
  <time>2026-08-28T19:07:18Z</time>
  <course>266.04</course>
  <speed>0.0</speed>
  <fix>3d</fix>
</trkpt>
<trkpt lat="40.0728419" lon="-105.2305749">
  <ele>1586.17</ele>
  <time>2026-08-28T19:07:18Z</time>
  <course>11.39</course>
  <speed>0.022360679774997897</speed>
  <fix>3d</fix>
</trkpt>
<trkpt lat="40.072842" lon="-105.230575">
  <ele>1586.09</ele>
  <time>2026-08-28T19:07:18Z</time>
  <course>266.03</course>
  <speed>0.0</speed>
  <fix>3d</fix>
</trkpt>
<trkpt lat="40.0728419" lon="-105.2305749">
  <ele>1586.17</ele>
  <time>2026-08-28T19:07:18Z</time>
  <course>11.38</course>
  <speed>0.022360679774997897</speed>
  <fix>3d</fix>
</trkpt>
<trkpt lat="40.072842" lon="-105.230575">
  <ele>1586.09</ele>
  <time>2026-08-28T19:07:18Z</time>
  <course>266.03</course>
  <speed>0.0</speed>
  <fix>3d</fix>
</trkpt>
<trkpt lat="40.0728419" lon="-105.2305749">
  <ele>1586.18</ele>
  <time>2026-08-28T19:07:18Z</time>
  <course>11.38</course>
  <speed>0.022360679774997897</speed>
  <fix>3d</fix>
</trkpt>
<trkpt lat="40.072842" lon="-105.230575">
  <ele>1586.09</ele>
  <time>2026-08-28T19:07:18Z</time>
  <course>266.04</course>
  <speed>0.0</speed>
  <fix>3d</fix>
</trkpt>
<trkpt lat="40.0728419" lon="-105.2305749">
  <ele>1586.18</ele>
  <time>2026-08-28T19:07:18Z</time>
  <course>11.37</course>
  <speed>0.022360679774997897</speed>
  <fix>3d</fix>
</trkpt>
<trkpt lat="40.072842" lon="-105.230575">
  <ele>1586.09</ele>
  <time>2026-08-28T19:07:18Z</time>
  <course>266.04</course>
  <speed>0.0</speed>
  <fix>3d</fix>
</trkpt>
<trkpt lat="40.0728419" lon="-105.2305749">
  <ele>1586.18</ele>
  <time>2026-08-28T19:07:18Z</time>
  <course>11.37</course>
  <speed>0.022360679774997897</speed>
  <fix>3d</fix>
</trkpt>
<trkpt lat="40.072842" lon="-105.230575">
  <ele>1586.09</ele>
  <time>2026-08-28T19:07:18Z</time>
  <course>178.09</course>
  <speed>0.0</speed>
  <fix>3d</fix>
</trkpt>
<trkpt lat="40.0728419" lon="-105.2305749">
  <ele>1586.17</ele>
  <time>2026-08-28T19:07:18Z</time>
  <course>11.37</course>
  <speed>0.022360679774997897</speed>
  <fix>3d</fix>
</trkpt>
<trkpt lat="40.072842" lon="-105.230575">
  <ele>1586.09</ele>
  <time>2026-08-28T19:07:18Z</time>
  <course>82.55</course>
  <speed>0.0</speed>
  <fix>3d</fix>
</trkpt>
<trkpt lat="40.0728419" lon="-105.2305749">
  <ele>1586.17</ele>
  <time>2026-08-28T19:07:18Z</time>
  <course>11.36</course>
  <speed>0.022360679774997897</speed>
  <fix>3d</fix>
</trkpt>
<trkpt lat="40.072842" lon="-105.230575">
  <ele>1586.09</ele>
  <time>2026-08-28T19:07:18Z</time>
  <course>70.11</course>
  <speed>0.0</speed>
  <fix>3d</fix>
</trkpt>
<trkpt lat="40.0728419" lon="-105.2305749">
  <ele>1586.17</ele>
  <time>2026-08-28T19:07:18Z</time>
  <course>11.36</course>
  <speed>0.022360679774997897</speed>
  <fix>3d</fix>
</trkpt>
<trkpt lat="40.072842" lon="-105.230575">
  <ele>1586.09</ele>
  <time>2026-08-28T19:07:18Z</time>
  <course>280.93</course>
  <speed>0.0</speed>
  <fix>3d</fix>
</trkpt>
<trkpt lat="40.0728419" lon="-105.2305749">
  <ele>1586.17</ele>
  <time>2026-08-28T19:07:18Z</time>
  <course>11.35</course>
  <speed>0.022360679774997897</speed>
  <fix>3d</fix>
</trkpt>
<trkpt lat="40.072842" lon="-105.230575">
  <ele>1586.09</ele>
  <time>2026-08-28T19:07:18Z</time>
  <course>245.32</course>
  <speed>0.0</speed>
  <fix>3d</fix>
</trkpt>
<trkpt lat="40.0728419" lon="-105.2305749">
  <ele>1586.16</ele>
  <time>2026-08-28T19:07:18Z</time>
  <course>11.35</course>
  <speed>0.01414213562373095</speed>
  <fix>3d</fix>
</trkpt>
<trkpt lat="40.072842" lon="-105.230575">
  <ele>1586.09</ele>
  <time>2026-08-28T19:07:18Z</time>
  <course>117.15</course>
  <speed>0.0</speed>
  <fix>3d</fix>
</trkpt>
<trkpt lat="40.0728419" lon="-105.2305749">
  <ele>1586.16</ele>
  <time>2026-08-28T19:07:18Z</time>
  <course>11.34</course>
  <speed>0.01414213562373095</speed>
  <fix>3d</fix>
</trkpt>
<trkpt lat="40.072842" lon="-105.230575">
  <ele>1586.09</ele>
  <time>2026-08-28T19:07:18Z</time>
  <course>279.17</course>
  <speed>0.0</speed>
  <fix>3d</fix>
</trkpt>
<trkpt lat="40.0728419" lon="-105.2305749">
  <ele>1586.16</ele>
  <time>2026-08-28T19:07:18Z</time>
  <course>11.34</course>
  <speed>0.01414213562373095</speed>
  <fix>3d</fix>
</trkpt>
<trkpt lat="40.072842" lon="-105.230575">
  <ele>1586.09</ele>
  <time>2026-08-28T19:07:18Z</time>
  <course>265.73</course>
  <speed>0.0</speed>
  <fix>3d</fix>
</trkpt>
<trkpt lat="40.0728419" lon="-105.2305749">
  <ele>1586.16</ele>
  <time>2026-08-28T19:07:18Z</time>
  <course>11.33</course>
  <speed>0.01414213562373095</speed>
  <fix>3d</fix>
</trkpt>
<trkpt lat="40.072842" lon="-105.230575">
  <ele>1586.09</ele>
  <time>2026-08-28T19:07:18Z</time>
  <course>264.62</course>
  <speed>0.0</speed>
  <fix>3d</fix>
</trkpt>
<trkpt lat="40.0728419" lon="-105.2305749">
  <ele>1586.16</ele>
  <time>2026-08-28T19:07:18Z</time>
  <course>11.33</course>
  <speed>0.01414213562373095</speed>
  <fix>3d</fix>
</trkpt>
<trkpt lat="40.072842" lon="-105.230575">
  <ele>1586.09</ele>
  <time>2026-08-28T19:07:18Z</time>
  <course>266.26</course>
  <speed>0.0</speed>
  <fix>3d</fix>
</trkpt>
<trkpt lat="40.0728419" lon="-105.2305749">
  <ele>1586.15</ele>
  <time>2026-08-28T19:07:18Z</time>
  <course>11.32</course>
  <speed>0.01414213562373095</speed>
  <fix>3d</fix>
</trkpt>
<trkpt lat="40.072842" lon="-105.230575">
  <ele>1586.09</ele>
  <time>2026-08-28T19:07:18Z</time>
  <course>266.2</course>
  <speed>0.0</speed>
  <fix>3d</fix>
</trkpt>
<trkpt lat="40.0728419" lon="-105.2305749">
  <ele>1586.15</ele>
  <time>2026-08-28T19:07:18Z</time>
  <course>11.32</course>
  <speed>0.01414213562373095</speed>
  <fix>3d</fix>
</trkpt>
<trkpt lat="40.072842" lon="-105.230575">
  <ele>1586.09</ele>
  <time>2026-08-28T19:07:18Z</time>
  <course>265.99</course>
  <speed>0.0</speed>
  <fix>3d</fix>
</trkpt>
<trkpt lat="40.0728419" lon="-105.2305749">
  <ele>1586.15</ele>
  <time>2026-08-28T19:07:18Z</time>
  <course>11.31</course>
  <speed>0.01414213562373095</speed>
  <fix>3d</fix>
</trkpt>
<trkpt lat="40.072842" lon="-105.230575">
  <ele>1586.09</ele>
  <time>2026-08-28T19:07:18Z</time>
  <course>266.02</course>
  <speed>0.0</speed>
  <fix>3d</fix>
</trkpt>
<trkpt lat="40.0728419" lon="-105.2305749">
  <ele>1586.15</ele>
  <time>2026-08-28T19:07:18Z</time>
  <course>11.31</course>
  <speed>0.01414213562373095</speed>
  <fix>3d</fix>
</trkpt>
<trkpt lat="40.072842" lon="-105.230575">
  <ele>1586.09</ele>
  <time>2026-08-28T19:07:18Z</time>
  <course>266.04</course>
  <speed>0.0</speed>
  <fix>3d</fix>
</trkpt>
<trkpt lat="40.0728419" lon="-105.2305749">
  <ele>1586.15</ele>
  <time>2026-08-28T19:07:18Z</time>
  <course>11.31</course>
  <speed>0.01414213562373095</speed>
  <fix>3d</fix>
</trkpt>
<trkpt lat="40.072842" lon="-105.230575">
  <ele>1586.09</ele>
  <time>2026-08-28T19:07:18Z</time>
  <course>266.04</course>
  <speed>0.0</speed>
  <fix>3d</fix>
</trkpt>
<trkpt lat="40.0728419" lon="-105.2305749">
  <ele>1586.16</ele>
  <time>2026-08-28T19:07:18Z</time>
  <course>11.3</course>
  <speed>0.01414213562373095</speed>
  <fix>3d</fix>
</trkpt>
<trkpt lat="40.072842" lon="-105.230575">
  <ele>1586.09</ele>
  <time>2026-08-28T19:07:18Z</time>
  <course>266.03</course>
  <speed>0.0</speed>
  <fix>3d</fix>
</trkpt>
<trkpt lat="40.0728419" lon="-105.2305749">
  <ele>1586.16</ele>
  <time>2026-08-28T19:07:18Z</time>
  <course>11.3</course>
  <speed>0.01414213562373095</speed>
  <fix>3d</fix>
</trkpt>
<trkpt lat="40.072842" lon="-105.230575">
  <ele>1586.09</ele>
  <time>2026-08-28T19:07:18Z</time>
  <course>266.03</course>
  <speed>0.0</speed>
  <fix>3d</fix>
</trkpt>
<trkpt lat="40.0728419" lon="-105.2305749">
  <ele>1586.16</ele>
  <time>2026-08-28T19:07:18Z</time>
  <course>11.29</course>
  <speed>0.01414213562373095</speed>
  <fix>3d</fix>
</trkpt>
<trkpt lat="40.072842" lon="-105.230575">
  <ele>1586.09</ele>
  <time>2026-08-28T19:07:18Z</time>
  <course>266.03</course>
  <speed>0.0</speed>
  <fix>3d</fix>
</trkpt>
<trkpt lat="40.0728419" lon="-105.2305749">
  <ele>1586.16</ele>
  <time>2026-08-28T19:07:18Z</time>
  <course>11.29</course>
  <speed>0.01414213562373095</speed>
  <fix>3d</fix>
</trkpt>
<trkpt lat="40.072842" lon="-105.230575">
  <ele>1586.09</ele>
  <time>2026-08-28T19:07:18Z</time>
  <course>266.03</course>
  <speed>0.0</speed>
  <fix>3d</fix>
</trkpt>
<trkpt lat="40.0728419" lon="-105.2305749">
  <ele>1586.16</ele>
  <time>2026-08-28T19:07:18Z</time>
  <course>11.28</course>
  <speed>0.01414213562373095</speed>
  <fix>3d</fix>
</trkpt>
<trkpt lat="40.072842" lon="-105.230575">
  <ele>1586.09</ele>
  <time>2026-08-28T19:07:18Z</time>
  <course>266.03</course>
  <speed>0.0</speed>
  <fix>3d</fix>
</trkpt>
<trkpt lat="40.0728419" lon="-105.2305749">
  <ele>1586.16</ele>
  <time>2026-08-28T19:07:18Z</time>
  <course>11.28</course>
  <speed>0.01414213562373095</speed>
  <fix>3d</fix>
</trkpt>
<trkpt lat="40.072842" lon="-105.230575">
  <ele>1586.09</ele>
  <time>2026-08-28T19:07:18Z</time>
  <course>266.03</course>
  <speed>0.0</speed>
  <fix>3d</fix>
</trkpt>
<trkpt lat="40.0728419" lon="-105.2305749">
  <ele>1586.15</ele>
  <time>2026-08-28T19:07:18Z</time>
  <course>11.27</course>
  <speed>0.01414213562373095</speed>
  <fix>3d</fix>
</trkpt>
<trkpt lat="40.072842" lon="-105.230575">
  <ele>1586.09</ele>
  <time>2026-08-28T19:07:18Z</time>
  <course>266.03</course>
  <speed>0.0</speed>
  <fix>3d</fix>
</trkpt>
<trkpt lat="40.0728419" lon="-105.2305749">
  <ele>1586.15</ele>
  <time>2026-08-28T19:07:18Z</time>
  <course>11.27</course>
  <speed>0.01414213562373095</speed>
  <fix>3d</fix>
</trkpt>
<trkpt lat="40.072842" lon="-105.230575">
  <ele>1586.09</ele>
  <time>2026-08-28T19:07:18Z</time>
  <course>266.03</course>
  <speed>0.0</speed>
  <fix>3d</fix>
</trkpt>
<trkpt lat="40.0728419" lon="-105.2305749">
  <ele>1586.15</ele>
  <time>2026-08-28T19:07:18Z</time>
  <course>11.26</course>
  <speed>0.01414213562373095</speed>
  <fix>3d</fix>
</trkpt>
<trkpt lat="40.072842" lon="-105.230575">
  <ele>1586.09</ele>
  <time>2026-08-28T19:07:18Z</time>
  <course>266.03</course>
  <speed>0.0</speed>
  <fix>3d</fix>
</trkpt>
<trkpt lat="40.0728419" lon="-105.2305749">
  <ele>1586.15</ele>
  <time>2026-08-28T19:07:18Z</time>
  <course>11.26</course>
  <speed>0.01414213562373095</speed>
  <fix>3d</fix>
</trkpt>
<trkpt lat="40.072842" lon="-105.230575">
  <ele>1586.09</ele>
  <time>2026-08-28T19:07:18Z</time>
  <course>266.03</course>
  <speed>0.0</speed>
  <fix>3d</fix>
</trkpt>
<trkpt lat="40.0728419" lon="-105.2305749">
  <ele>1586.16</ele>
  <time>2026-08-28T19:07:18Z</time>
  <course>11.25</course>
  <speed>0.01414213562373095</speed>
  <fix>3d</fix>
</trkpt>
<trkpt lat="40.072842" lon="-105.230575">
  <ele>1586.09</ele>
  <time>2026-08-28T19:07:18Z</time>
  <course>266.03</course>
  <speed>0.0</speed>
  <fix>3d</fix>
</trkpt>
<trkpt lat="40.0728419" lon="-105.2305749">
  <ele>1586.16</ele>
  <time>2026-08-28T19:07:18Z</time>
  <course>11.25</course>
  <speed>0.01414213562373095</speed>
  <fix>3d</fix>
</trkpt>
<trkpt lat="40.072842" lon="-105.230575">
  <ele>1586.09</ele>
  <time>2026-08-28T19:07:18Z</time>
  <course>266.03</course>
  <speed>0.0</speed>
  <fix>3d</fix>
</trkpt>
<trkpt lat="40.0728419" lon="-105.2305749">
  <ele>1586.17</ele>
  <time>2026-08-28T19:07:18Z</time>
  <course>11.25</course>
  <speed>0.01414213562373095</speed>
  <fix>3d</fix>
</trkpt>
<trkpt lat="40.072842" lon="-105.230575">
  <ele>1586.09</ele>
  <time>2026-08-28T19:07:18Z</time>
  <course>266.03</course>
  <speed>0.0</speed>
  <fix>3d</fix>
</trkpt>
<trkpt lat="40.0728419" lon="-105.2305749">
  <ele>1586.17</ele>
  <time>2026-08-28T19:07:18Z</time>
  <course>11.24</course>
  <speed>0.01414213562373095</speed>
  <fix>3d</fix>
</trkpt>
<trkpt lat="40.072842" lon="-105.230575">
  <ele>1586.09</ele>
  <time>2026-08-28T19:07:18Z</time>
  <course>266.03</course>
  <speed>0.0</speed>
  <fix>3d</fix>
</trkpt>
<trkpt lat="40.0728419" lon="-105.2305749">
  <ele>1586.18</ele>
  <time>2026-08-28T19:07:19Z</time>
  <course>11.24</course>
  <speed>0.01414213562373095</speed>
  <fix>3d</fix>
</trkpt>
<trkpt lat="40.072842" lon="-105.230575">
  <ele>1586.09</ele>
  <time>2026-08-28T19:07:19Z</time>
  <course>278.88</course>
  <speed>0.0</speed>
  <fix>3d</fix>
</trkpt>
<trkpt lat="40.0728419" lon="-105.2305749">
  <ele>1586.18</ele>
  <time>2026-08-28T19:07:19Z</time>
  <course>11.23</course>
  <speed>0.01414213562373095</speed>
  <fix>3d</fix>
</trkpt>
<trkpt lat="40.072842" lon="-105.230575">
  <ele>1586.09</ele>
  <time>2026-08-28T19:07:19Z</time>
  <course>269.86</course>
  <speed>0.0</speed>
  <fix>3d</fix>
</trkpt>
<trkpt lat="40.0728419" lon="-105.2305749">
  <ele>1586.18</ele>
  <time>2026-08-28T19:07:19Z</time>
  <course>11.23</course>
  <speed>0.01</speed>
  <fix>3d</fix>
</trkpt>
<trkpt lat="40.072842" lon="-105.230575">
  <ele>1586.09</ele>
  <time>2026-08-28T19:07:19Z</time>
  <course>263.3</course>
  <speed>0.0</speed>
  <fix>3d</fix>
</trkpt>
<trkpt lat="40.0728419" lon="-105.2305749">
  <ele>1586.18</ele>
  <time>2026-08-28T19:07:19Z</time>
  <course>11.23</course>
  <speed>0.01</speed>
  <fix>3d</fix>
</trkpt>
<trkpt lat="40.072842" lon="-105.230575">
  <ele>1586.09</ele>
  <time>2026-08-28T19:07:19Z</time>
  <course>262.78</course>
  <speed>0.0</speed>
  <fix>3d</fix>
</trkpt>
<trkpt lat="40.0728419" lon="-105.2305749">
  <ele>1586.18</ele>
  <time>2026-08-28T19:07:19Z</time>
  <course>11.22</course>
  <speed>0.01</speed>
  <fix>3d</fix>
</trkpt>
<trkpt lat="40.072842" lon="-105.230575">
  <ele>1586.09</ele>
  <time>2026-08-28T19:07:19Z</time>
  <course>267.07</course>
  <speed>0.0</speed>
  <fix>3d</fix>
</trkpt>
<trkpt lat="40.0728419" lon="-105.2305749">
  <ele>1586.18</ele>
  <time>2026-08-28T19:07:20Z</time>
  <course>11.22</course>
  <speed>0.01</speed>
  <fix>3d</fix>
</trkpt>
<trkpt lat="40.072842" lon="-105.230575">
  <ele>1586.09</ele>
  <time>2026-08-28T19:07:20Z</time>
  <course>266.33</course>
  <speed>0.0</speed>
  <fix>3d</fix>
</trkpt>
<trkpt lat="40.0728419" lon="-105.2305749">
  <ele>1586.18</ele>
  <time>2026-08-28T19:07:20Z</time>
  <course>11.21</course>
  <speed>0.01</speed>
  <fix>3d</fix>
</trkpt>
<trkpt lat="40.072842" lon="-105.230575">
  <ele>1586.09</ele>
  <time>2026-08-28T19:07:20Z</time>
  <course>265.87</course>
  <speed>0.0</speed>
  <fix>3d</fix>
</trkpt>
<trkpt lat="40.0728419" lon="-105.2305749">
  <ele>1586.17</ele>
  <time>2026-08-28T19:07:20Z</time>
  <course>11.21</course>
  <speed>0.01</speed>
  <fix>3d</fix>
</trkpt>
<trkpt lat="40.072842" lon="-105.230575">
  <ele>1586.09</ele>
  <time>2026-08-28T19:07:20Z</time>
  <course>266.01</course>
  <speed>0.0</speed>
  <fix>3d</fix>
</trkpt>
<trkpt lat="40.0728419" lon="-105.2305749">
  <ele>1586.17</ele>
  <time>2026-08-28T19:07:20Z</time>
  <course>11.21</course>
  <speed>0.01</speed>
  <fix>3d</fix>
</trkpt>
<trkpt lat="40.072842" lon="-105.230575">
  <ele>1586.09</ele>
  <time>2026-08-28T19:07:20Z</time>
  <course>266.06</course>
  <speed>0.0</speed>
  <fix>3d</fix>
</trkpt>
<trkpt lat="40.0728419" lon="-105.2305749">
  <ele>1586.17</ele>
  <time>2026-08-28T19:07:20Z</time>
  <course>11.2</course>
  <speed>0.01</speed>
  <fix>3d</fix>
</trkpt>
<trkpt lat="40.072842" lon="-105.230575">
  <ele>1586.09</ele>
  <time>2026-08-28T19:07:20Z</time>
  <course>266.03</course>
  <speed>0.0</speed>
  <fix>3d</fix>
</trkpt>
<trkpt lat="40.0728419" lon="-105.2305749">
  <ele>1586.16</ele>
  <time>2026-08-28T19:07:20Z</time>
  <course>11.2</course>
  <speed>0.01</speed>
  <fix>3d</fix>
</trkpt>
<trkpt lat="40.072842" lon="-105.230575">
  <ele>1586.09</ele>
  <time>2026-08-28T19:07:20Z</time>
  <course>266.03</course>
  <speed>0.0</speed>
  <fix>3d</fix>
</trkpt>
<trkpt lat="40.0728419" lon="-105.2305749">
  <ele>1586.16</ele>
  <time>2026-08-28T19:07:20Z</time>
  <course>11.2</course>
  <speed>0.01</speed>
  <fix>3d</fix>
</trkpt>
<trkpt lat="40.072842" lon="-105.230575">
  <ele>1586.09</ele>
  <time>2026-08-28T19:07:20Z</time>
  <course>266.03</course>
  <speed>0.0</speed>
  <fix>3d</fix>
</trkpt>
<trkpt lat="40.0728419" lon="-105.2305749">
  <ele>1586.16</ele>
  <time>2026-08-28T19:07:20Z</time>
  <course>11.19</course>
  <speed>0.01</speed>
  <fix>3d</fix>
</trkpt>
<trkpt lat="40.072842" lon="-105.230575">
  <ele>1586.09</ele>
  <time>2026-08-28T19:07:20Z</time>
  <course>266.03</course>
  <speed>0.0</speed>
  <fix>3d</fix>
</trkpt>
<trkpt lat="40.0728419" lon="-105.2305749">
  <ele>1586.15</ele>
  <time>2026-08-28T19:07:20Z</time>
  <course>11.19</course>
  <speed>0.01</speed>
  <fix>3d</fix>
</trkpt>
<trkpt lat="40.072842" lon="-105.230575">
  <ele>1586.09</ele>
  <time>2026-08-28T19:07:20Z</time>
  <course>266.03</course>
  <speed>0.0</speed>
  <fix>3d</fix>
</trkpt>
<trkpt lat="40.0728419" lon="-105.2305749">
  <ele>1586.16</ele>
  <time>2026-08-28T19:07:20Z</time>
  <course>11.19</course>
  <speed>0.01</speed>
  <fix>3d</fix>
</trkpt>
<trkpt lat="40.072842" lon="-105.230575">
  <ele>1586.09</ele>
  <time>2026-08-28T19:07:20Z</time>
  <course>266.03</course>
  <speed>0.0</speed>
  <fix>3d</fix>
</trkpt>
<trkpt lat="40.0728419" lon="-105.2305749">
  <ele>1586.16</ele>
  <time>2026-08-28T19:07:20Z</time>
  <course>11.18</course>
  <speed>0.01</speed>
  <fix>3d</fix>
</trkpt>
<trkpt lat="40.072842" lon="-105.230575">
  <ele>1586.09</ele>
  <time>2026-08-28T19:07:20Z</time>
  <course>266.03</course>
  <speed>0.0</speed>
  <fix>3d</fix>
</trkpt>
<trkpt lat="40.0728419" lon="-105.2305749">
  <ele>1586.16</ele>
  <time>2026-08-28T19:07:20Z</time>
  <course>11.18</course>
  <speed>0.01</speed>
  <fix>3d</fix>
</trkpt>
<trkpt lat="40.072842" lon="-105.230575">
  <ele>1586.09</ele>
  <time>2026-08-28T19:07:20Z</time>
  <course>266.03</course>
  <speed>0.0</speed>
  <fix>3d</fix>
</trkpt>
<trkpt lat="40.0728419" lon="-105.2305749">
  <ele>1586.16</ele>
  <time>2026-08-28T19:07:20Z</time>
  <course>11.18</course>
  <speed>0.01</speed>
  <fix>3d</fix>
</trkpt>
<trkpt lat="40.072842" lon="-105.230575">
  <ele>1586.09</ele>
  <time>2026-08-28T19:07:20Z</time>
  <course>266.03</course>
  <speed>0.0</speed>
  <fix>3d</fix>
</trkpt>
<trkpt lat="40.0728419" lon="-105.2305749">
  <ele>1586.16</ele>
  <time>2026-08-28T19:07:20Z</time>
  <course>11.18</course>
  <speed>0.01</speed>
  <fix>3d</fix>
</trkpt>
<trkpt lat="40.072842" lon="-105.230575">
  <ele>1586.09</ele>
  <time>2026-08-28T19:07:20Z</time>
  <course>266.03</course>
  <speed>0.0</speed>
  <fix>3d</fix>
</trkpt>
<trkpt lat="40.0728419" lon="-105.2305749">
  <ele>1586.17</ele>
  <time>2026-08-28T19:07:20Z</time>
  <course>11.17</course>
  <speed>0.01414213562373095</speed>
  <fix>3d</fix>
</trkpt>
<trkpt lat="40.072842" lon="-105.230575">
  <ele>1586.09</ele>
  <time>2026-08-28T19:07:20Z</time>
  <course>266.03</course>
  <speed>0.0</speed>
  <fix>3d</fix>
</trkpt>
<trkpt lat="40.0728419" lon="-105.2305749">
  <ele>1586.18</ele>
  <time>2026-08-28T19:07:20Z</time>
  <course>11.17</course>
  <speed>0.01414213562373095</speed>
  <fix>3d</fix>
</trkpt>
<trkpt lat="40.072842" lon="-105.230575">
  <ele>1586.09</ele>
  <time>2026-08-28T19:07:20Z</time>
  <course>266.03</course>
  <speed>0.0</speed>
  <fix>3d</fix>
</trkpt>
<trkpt lat="40.0728419" lon="-105.2305749">
  <ele>1586.18</ele>
  <time>2026-08-28T19:07:20Z</time>
  <course>11.17</course>
  <speed>0.01414213562373095</speed>
  <fix>3d</fix>
</trkpt>
<trkpt lat="40.072842" lon="-105.230575">
  <ele>1586.09</ele>
  <time>2026-08-28T19:07:20Z</time>
  <course>266.03</course>
  <speed>0.0</speed>
  <fix>3d</fix>
</trkpt>
<trkpt lat="40.0728419" lon="-105.2305749">
  <ele>1586.18</ele>
  <time>2026-08-28T19:07:20Z</time>
  <course>11.16</course>
  <speed>0.01414213562373095</speed>
  <fix>3d</fix>
</trkpt>
<trkpt lat="40.072842" lon="-105.230575">
  <ele>1586.09</ele>
  <time>2026-08-28T19:07:20Z</time>
  <course>266.03</course>
  <speed>0.0</speed>
  <fix>3d</fix>
</trkpt>
<trkpt lat="40.0728419" lon="-105.2305749">
  <ele>1586.18</ele>
  <time>2026-08-28T19:07:20Z</time>
  <course>11.16</course>
  <speed>0.01414213562373095</speed>
  <fix>3d</fix>
</trkpt>
<trkpt lat="40.072842" lon="-105.230575">
  <ele>1586.09</ele>
  <time>2026-08-28T19:07:20Z</time>
  <course>266.03</course>
  <speed>0.0</speed>
  <fix>3d</fix>
</trkpt>
<trkpt lat="40.0728419" lon="-105.2305749">
  <ele>1586.18</ele>
  <time>2026-08-28T19:07:20Z</time>
  <course>11.16</course>
  <speed>0.01414213562373095</speed>
  <fix>3d</fix>
</trkpt>
<trkpt lat="40.072842" lon="-105.230575">
  <ele>1586.09</ele>
  <time>2026-08-28T19:07:20Z</time>
  <course>266.03</course>
  <speed>0.0</speed>
  <fix>3d</fix>
</trkpt>
<trkpt lat="40.0728419" lon="-105.2305749">
  <ele>1586.18</ele>
  <time>2026-08-28T19:07:20Z</time>
  <course>11.16</course>
  <speed>0.01414213562373095</speed>
  <fix>3d</fix>
</trkpt>
<trkpt lat="40.072842" lon="-105.230575">
  <ele>1586.09</ele>
  <time>2026-08-28T19:07:20Z</time>
  <course>266.03</course>
  <speed>0.0</speed>
  <fix>3d</fix>
</trkpt>
<trkpt lat="40.0728419" lon="-105.2305749">
  <ele>1586.17</ele>
  <time>2026-08-28T19:07:20Z</time>
  <course>11.15</course>
  <speed>0.01414213562373095</speed>
  <fix>3d</fix>
</trkpt>
<trkpt lat="40.072842" lon="-105.230575">
  <ele>1586.09</ele>
  <time>2026-08-28T19:07:20Z</time>
  <course>266.03</course>
  <speed>0.0</speed>
  <fix>3d</fix>
</trkpt>
<trkpt lat="40.0728419" lon="-105.2305749">
  <ele>1586.17</ele>
  <time>2026-08-28T19:07:20Z</time>
  <course>11.15</course>
  <speed>0.01414213562373095</speed>
  <fix>3d</fix>
</trkpt>
<trkpt lat="40.072842" lon="-105.230575">
  <ele>1586.09</ele>
  <time>2026-08-28T19:07:20Z</time>
  <course>266.03</course>
  <speed>0.0</speed>
  <fix>3d</fix>
</trkpt>
<trkpt lat="40.0728419" lon="-105.2305749">
  <ele>1586.17</ele>
  <time>2026-08-28T19:07:20Z</time>
  <course>11.15</course>
  <speed>0.01414213562373095</speed>
  <fix>3d</fix>
</trkpt>
<trkpt lat="40.072842" lon="-105.230575">
  <ele>1586.09</ele>
  <time>2026-08-28T19:07:20Z</time>
  <course>266.03</course>
  <speed>0.0</speed>
  <fix>3d</fix>
</trkpt>
<trkpt lat="40.0728419" lon="-105.2305749">
  <ele>1586.17</ele>
  <time>2026-08-28T19:07:20Z</time>
  <course>11.15</course>
  <speed>0.01414213562373095</speed>
  <fix>3d</fix>
</trkpt>
<trkpt lat="40.072842" lon="-105.230575">
  <ele>1586.09</ele>
  <time>2026-08-28T19:07:20Z</time>
  <course>266.03</course>
  <speed>0.0</speed>
  <fix>3d</fix>
</trkpt>
<trkpt lat="40.0728419" lon="-105.2305749">
  <ele>1586.17</ele>
  <time>2026-08-28T19:07:20Z</time>
  <course>11.15</course>
  <speed>0.01414213562373095</speed>
  <fix>3d</fix>
</trkpt>
<trkpt lat="40.072842" lon="-105.230575">
  <ele>1586.09</ele>
  <time>2026-08-28T19:07:20Z</time>
  <course>266.03</course>
  <speed>0.0</speed>
  <fix>3d</fix>
</trkpt>
<trkpt lat="40.0728419" lon="-105.2305749">
  <ele>1586.17</ele>
  <time>2026-08-28T19:07:20Z</time>
  <course>11.14</course>
  <speed>0.01414213562373095</speed>
  <fix>3d</fix>
</trkpt>
<trkpt lat="40.072842" lon="-105.230575">
  <ele>1586.09</ele>
  <time>2026-08-28T19:07:20Z</time>
  <course>266.03</course>
  <speed>0.0</speed>
  <fix>3d</fix>
</trkpt>
<trkpt lat="40.0728419" lon="-105.2305749">
  <ele>1586.17</ele>
  <time>2026-08-28T19:07:20Z</time>
  <course>11.14</course>
  <speed>0.01414213562373095</speed>
  <fix>3d</fix>
</trkpt>
<trkpt lat="40.072842" lon="-105.230575">
  <ele>1586.09</ele>
  <time>2026-08-28T19:07:20Z</time>
  <course>266.03</course>
  <speed>0.0</speed>
  <fix>3d</fix>
</trkpt>
<trkpt lat="40.0728419" lon="-105.2305749">
  <ele>1586.16</ele>
  <time>2026-08-28T19:07:20Z</time>
  <course>11.14</course>
  <speed>0.01414213562373095</speed>
  <fix>3d</fix>
</trkpt>
<trkpt lat="40.072842" lon="-105.230575">
  <ele>1586.09</ele>
  <time>2026-08-28T19:07:20Z</time>
  <course>266.03</course>
  <speed>0.0</speed>
  <fix>3d</fix>
</trkpt>
<trkpt lat="40.0728419" lon="-105.2305749">
  <ele>1586.16</ele>
  <time>2026-08-28T19:07:20Z</time>
  <course>11.14</course>
  <speed>0.01414213562373095</speed>
  <fix>3d</fix>
</trkpt>
<trkpt lat="40.072842" lon="-105.230575">
  <ele>1586.09</ele>
  <time>2026-08-28T19:07:20Z</time>
  <course>266.03</course>
  <speed>0.0</speed>
  <fix>3d</fix>
</trkpt>
<trkpt lat="40.0728419" lon="-105.2305749">
  <ele>1586.16</ele>
  <time>2026-08-28T19:07:20Z</time>
  <course>11.13</course>
  <speed>0.01414213562373095</speed>
  <fix>3d</fix>
</trkpt>
<trkpt lat="40.072842" lon="-105.230575">
  <ele>1586.09</ele>
  <time>2026-08-28T19:07:20Z</time>
  <course>303.21</course>
  <speed>0.0</speed>
  <fix>3d</fix>
</trkpt>
<trkpt lat="40.0728419" lon="-105.2305749">
  <ele>1586.16</ele>
  <time>2026-08-28T19:07:20Z</time>
  <course>11.13</course>
  <speed>0.01414213562373095</speed>
  <fix>3d</fix>
</trkpt>
<trkpt lat="40.072842" lon="-105.230575">
  <ele>1586.09</ele>
  <time>2026-08-28T19:07:20Z</time>
  <course>263.45</course>
  <speed>0.0</speed>
  <fix>3d</fix>
</trkpt>
<trkpt lat="40.0728419" lon="-105.2305749">
  <ele>1586.16</ele>
  <time>2026-08-28T19:07:20Z</time>
  <course>11.13</course>
  <speed>0.01414213562373095</speed>
  <fix>3d</fix>
</trkpt>
<trkpt lat="40.072842" lon="-105.230575">
  <ele>1586.09</ele>
  <time>2026-08-28T19:07:20Z</time>
  <course>210.15</course>
  <speed>0.0</speed>
  <fix>3d</fix>
</trkpt>
<trkpt lat="40.0728419" lon="-105.2305749">
  <ele>1586.16</ele>
  <time>2026-08-28T19:07:20Z</time>
  <course>11.13</course>
  <speed>0.01414213562373095</speed>
  <fix>3d</fix>
</trkpt>
<trkpt lat="40.072842" lon="-105.230575">
  <ele>1586.09</ele>
  <time>2026-08-28T19:07:20Z</time>
  <course>93.22</course>
  <speed>0.0</speed>
  <fix>3d</fix>
</trkpt>
<trkpt lat="40.0728419" lon="-105.2305749">
  <ele>1586.17</ele>
  <time>2026-08-28T19:07:20Z</time>
  <course>11.12</course>
  <speed>0.01414213562373095</speed>
  <fix>3d</fix>
</trkpt>
<trkpt lat="40.072842" lon="-105.230575">
  <ele>1586.09</ele>
  <time>2026-08-28T19:07:20Z</time>
  <course>285.11</course>
  <speed>0.0</speed>
  <fix>3d</fix>
</trkpt>
<trkpt lat="40.0728419" lon="-105.2305749">
  <ele>1586.17</ele>
  <time>2026-08-28T19:07:20Z</time>
  <course>11.12</course>
  <speed>0.01</speed>
  <fix>3d</fix>
</trkpt>
<trkpt lat="40.072842" lon="-105.230575">
  <ele>1586.09</ele>
  <time>2026-08-28T19:07:20Z</time>
  <course>238.12</course>
  <speed>0.0</speed>
  <fix>3d</fix>
</trkpt>
<trkpt lat="40.0728419" lon="-105.2305749">
  <ele>1586.17</ele>
  <time>2026-08-28T19:07:20Z</time>
  <course>11.12</course>
  <speed>0.01</speed>
  <fix>3d</fix>
</trkpt>
<trkpt lat="40.072842" lon="-105.230575">
  <ele>1586.09</ele>
  <time>2026-08-28T19:07:20Z</time>
  <course>91.24</course>
  <speed>0.0</speed>
  <fix>3d</fix>
</trkpt>
<trkpt lat="40.0728419" lon="-105.2305749">
  <ele>1586.17</ele>
  <time>2026-08-28T19:07:20Z</time>
  <course>11.12</course>
  <speed>0.01</speed>
  <fix>3d</fix>
</trkpt>
<trkpt lat="40.072842" lon="-105.230575">
  <ele>1586.09</ele>
  <time>2026-08-28T19:07:20Z</time>
  <course>285.28</course>
  <speed>0.0</speed>
  <fix>3d</fix>
</trkpt>
<trkpt lat="40.0728419" lon="-105.2305749">
  <ele>1586.17</ele>
  <time>2026-08-28T19:07:20Z</time>
  <course>11.12</course>
  <speed>0.01</speed>
  <fix>3d</fix>
</trkpt>
<trkpt lat="40.072842" lon="-105.230575">
  <ele>1586.09</ele>
  <time>2026-08-28T19:07:20Z</time>
  <course>265.04</course>
  <speed>0.0</speed>
  <fix>3d</fix>
</trkpt>
<trkpt lat="40.0728419" lon="-105.2305749">
  <ele>1586.16</ele>
  <time>2026-08-28T19:07:20Z</time>
  <course>11.11</course>
  <speed>0.01</speed>
  <fix>3d</fix>
</trkpt>
<trkpt lat="40.072842" lon="-105.230575">
  <ele>1586.09</ele>
  <time>2026-08-28T19:07:20Z</time>
  <course>263.97</course>
  <speed>0.0</speed>
  <fix>3d</fix>
</trkpt>
<trkpt lat="40.0728419" lon="-105.2305749">
  <ele>1586.16</ele>
  <time>2026-08-28T19:07:20Z</time>
  <course>11.11</course>
  <speed>0.01</speed>
  <fix>3d</fix>
</trkpt>
<trkpt lat="40.072842" lon="-105.230575">
  <ele>1586.09</ele>
  <time>2026-08-28T19:07:20Z</time>
  <course>266.47</course>
  <speed>0.0</speed>
  <fix>3d</fix>
</trkpt>
<trkpt lat="40.0728419" lon="-105.2305749">
  <ele>1586.16</ele>
  <time>2026-08-28T19:07:20Z</time>
  <course>11.11</course>
  <speed>0.01414213562373095</speed>
  <fix>3d</fix>
</trkpt>
<trkpt lat="40.072842" lon="-105.230575">
  <ele>1586.09</ele>
  <time>2026-08-28T19:07:20Z</time>
  <course>266.26</course>
  <speed>0.0</speed>
  <fix>3d</fix>
</trkpt>
<trkpt lat="40.0728419" lon="-105.2305749">
  <ele>1586.16</ele>
  <time>2026-08-28T19:07:20Z</time>
  <course>11.11</course>
  <speed>0.01414213562373095</speed>
  <fix>3d</fix>
</trkpt>
<trkpt lat="40.072842" lon="-105.230575">
  <ele>1586.09</ele>
  <time>2026-08-28T19:07:20Z</time>
  <course>265.95</course>
  <speed>0.0</speed>
  <fix>3d</fix>
</trkpt>
<trkpt lat="40.0728419" lon="-105.2305749">
  <ele>1586.15</ele>
  <time>2026-08-28T19:07:20Z</time>
  <course>11.11</course>
  <speed>0.01414213562373095</speed>
  <fix>3d</fix>
</trkpt>
<trkpt lat="40.072842" lon="-105.230575">
  <ele>1586.09</ele>
  <time>2026-08-28T19:07:20Z</time>
  <course>266.01</course>
  <speed>0.0</speed>
  <fix>3d</fix>
</trkpt>
<trkpt lat="40.0728419" lon="-105.2305749">
  <ele>1586.15</ele>
  <time>2026-08-28T19:07:20Z</time>
  <course>11.11</course>
  <speed>0.01414213562373095</speed>
  <fix>3d</fix>
</trkpt>
<trkpt lat="40.072842" lon="-105.230575">
  <ele>1586.09</ele>
  <time>2026-08-28T19:07:20Z</time>
  <course>266.05</course>
  <speed>0.0</speed>
  <fix>3d</fix>
</trkpt>
<trkpt lat="40.0728419" lon="-105.2305749">
  <ele>1586.15</ele>
  <time>2026-08-28T19:07:20Z</time>
  <course>11.11</course>
  <speed>0.01414213562373095</speed>
  <fix>3d</fix>
</trkpt>
<trkpt lat="40.072842" lon="-105.230575">
  <ele>1586.09</ele>
  <time>2026-08-28T19:07:20Z</time>
  <course>266.04</course>
  <speed>0.0</speed>
  <fix>3d</fix>
</trkpt>
<trkpt lat="40.0728419" lon="-105.2305749">
  <ele>1586.16</ele>
  <time>2026-08-28T19:07:20Z</time>
  <course>11.1</course>
  <speed>0.01414213562373095</speed>
  <fix>3d</fix>
</trkpt>
<trkpt lat="40.072842" lon="-105.230575">
  <ele>1586.09</ele>
  <time>2026-08-28T19:07:20Z</time>
  <course>266.03</course>
  <speed>0.0</speed>
  <fix>3d</fix>
</trkpt>
<trkpt lat="40.0728419" lon="-105.2305749">
  <ele>1586.16</ele>
  <time>2026-08-28T19:07:20Z</time>
  <course>11.1</course>
  <speed>0.01414213562373095</speed>
  <fix>3d</fix>
</trkpt>
<trkpt lat="40.072842" lon="-105.230575">
  <ele>1586.09</ele>
  <time>2026-08-28T19:07:20Z</time>
  <course>266.04</course>
  <speed>0.0</speed>
  <fix>3d</fix>
</trkpt>
<trkpt lat="40.0728419" lon="-105.2305749">
  <ele>1586.16</ele>
  <time>2026-08-28T19:07:20Z</time>
  <course>11.1</course>
  <speed>0.01414213562373095</speed>
  <fix>3d</fix>
</trkpt>
<trkpt lat="40.072842" lon="-105.230575">
  <ele>1586.09</ele>
  <time>2026-08-28T19:07:20Z</time>
  <course>266.04</course>
  <speed>0.0</speed>
  <fix>3d</fix>
</trkpt>
<trkpt lat="40.0728419" lon="-105.2305749">
  <ele>1586.16</ele>
  <time>2026-08-28T19:07:20Z</time>
  <course>11.1</course>
  <speed>0.01414213562373095</speed>
  <fix>3d</fix>
</trkpt>
<trkpt lat="40.072842" lon="-105.230575">
  <ele>1586.09</ele>
  <time>2026-08-28T19:07:20Z</time>
  <course>266.03</course>
  <speed>0.0</speed>
  <fix>3d</fix>
</trkpt>
<trkpt lat="40.0728419" lon="-105.2305749">
  <ele>1586.17</ele>
  <time>2026-08-28T19:07:20Z</time>
  <course>11.1</course>
  <speed>0.01414213562373095</speed>
  <fix>3d</fix>
</trkpt>
<trkpt lat="40.072842" lon="-105.230575">
  <ele>1586.09</ele>
  <time>2026-08-28T19:07:20Z</time>
  <course>266.03</course>
  <speed>0.0</speed>
  <fix>3d</fix>
</trkpt>
<trkpt lat="40.0728419" lon="-105.2305749">
  <ele>1586.17</ele>
  <time>2026-08-28T19:07:20Z</time>
  <course>11.1</course>
  <speed>0.01414213562373095</speed>
  <fix>3d</fix>
</trkpt>
<trkpt lat="40.072842" lon="-105.230575">
  <ele>1586.09</ele>
  <time>2026-08-28T19:07:20Z</time>
  <course>266.04</course>
  <speed>0.0</speed>
  <fix>3d</fix>
</trkpt>
<trkpt lat="40.0728419" lon="-105.2305749">
  <ele>1586.17</ele>
  <time>2026-08-28T19:07:20Z</time>
  <course>11.1</course>
  <speed>0.01414213562373095</speed>
  <fix>3d</fix>
</trkpt>
<trkpt lat="40.072842" lon="-105.230575">
  <ele>1586.09</ele>
  <time>2026-08-28T19:07:20Z</time>
  <course>266.04</course>
  <speed>0.0</speed>
  <fix>3d</fix>
</trkpt>
<trkpt lat="40.0728419" lon="-105.2305749">
  <ele>1586.17</ele>
  <time>2026-08-28T19:07:20Z</time>
  <course>11.09</course>
  <speed>0.01414213562373095</speed>
  <fix>3d</fix>
</trkpt>
<trkpt lat="40.072842" lon="-105.230575">
  <ele>1586.09</ele>
  <time>2026-08-28T19:07:20Z</time>
  <course>266.04</course>
  <speed>0.0</speed>
  <fix>3d</fix>
</trkpt>
<trkpt lat="40.0728419" lon="-105.2305749">
  <ele>1586.17</ele>
  <time>2026-08-28T19:07:20Z</time>
  <course>11.09</course>
  <speed>0.01414213562373095</speed>
  <fix>3d</fix>
</trkpt>
<trkpt lat="40.072842" lon="-105.230575">
  <ele>1586.09</ele>
  <time>2026-08-28T19:07:20Z</time>
  <course>266.04</course>
  <speed>0.0</speed>
  <fix>3d</fix>
</trkpt>
<trkpt lat="40.0728419" lon="-105.2305749">
  <ele>1586.16</ele>
  <time>2026-08-28T19:07:20Z</time>
  <course>11.09</course>
  <speed>0.01414213562373095</speed>
  <fix>3d</fix>
</trkpt>
<trkpt lat="40.072842" lon="-105.230575">
  <ele>1586.09</ele>
  <time>2026-08-28T19:07:20Z</time>
  <course>266.04</course>
  <speed>0.0</speed>
  <fix>3d</fix>
</trkpt>
<trkpt lat="40.0728419" lon="-105.2305749">
  <ele>1586.16</ele>
  <time>2026-08-28T19:07:20Z</time>
  <course>11.09</course>
  <speed>0.01414213562373095</speed>
  <fix>3d</fix>
</trkpt>
<trkpt lat="40.072842" lon="-105.230575">
  <ele>1586.09</ele>
  <time>2026-08-28T19:07:20Z</time>
  <course>266.04</course>
  <speed>0.0</speed>
  <fix>3d</fix>
</trkpt>
<trkpt lat="40.0728419" lon="-105.2305749">
  <ele>1586.16</ele>
  <time>2026-08-28T19:07:20Z</time>
  <course>11.09</course>
  <speed>0.01414213562373095</speed>
  <fix>3d</fix>
</trkpt>
<trkpt lat="40.072842" lon="-105.230575">
  <ele>1586.09</ele>
  <time>2026-08-28T19:07:20Z</time>
  <course>266.04</course>
  <speed>0.0</speed>
  <fix>3d</fix>
</trkpt>
<trkpt lat="40.0728419" lon="-105.2305749">
  <ele>1586.16</ele>
  <time>2026-08-28T19:07:20Z</time>
  <course>11.09</course>
  <speed>0.01414213562373095</speed>
  <fix>3d</fix>
</trkpt>
<trkpt lat="40.072842" lon="-105.230575">
  <ele>1586.09</ele>
  <time>2026-08-28T19:07:20Z</time>
  <course>266.04</course>
  <speed>0.0</speed>
  <fix>3d</fix>
</trkpt>
<trkpt lat="40.0728419" lon="-105.2305749">
  <ele>1586.16</ele>
  <time>2026-08-28T19:07:20Z</time>
  <course>11.09</course>
  <speed>0.01414213562373095</speed>
  <fix>3d</fix>
</trkpt>
<trkpt lat="40.072842" lon="-105.230575">
  <ele>1586.09</ele>
  <time>2026-08-28T19:07:20Z</time>
  <course>266.04</course>
  <speed>0.0</speed>
  <fix>3d</fix>
</trkpt>
<trkpt lat="40.0728419" lon="-105.2305749">
  <ele>1586.16</ele>
  <time>2026-08-28T19:07:20Z</time>
  <course>11.09</course>
  <speed>0.01414213562373095</speed>
  <fix>3d</fix>
</trkpt>
<trkpt lat="40.072842" lon="-105.230575">
  <ele>1586.09</ele>
  <time>2026-08-28T19:07:20Z</time>
  <course>266.04</course>
  <speed>0.0</speed>
  <fix>3d</fix>
</trkpt>
<trkpt lat="40.0728419" lon="-105.2305749">
  <ele>1586.17</ele>
  <time>2026-08-28T19:07:20Z</time>
  <course>11.08</course>
  <speed>0.01414213562373095</speed>
  <fix>3d</fix>
</trkpt>
<trkpt lat="40.072842" lon="-105.230575">
  <ele>1586.09</ele>
  <time>2026-08-28T19:07:20Z</time>
  <course>266.04</course>
  <speed>0.0</speed>
  <fix>3d</fix>
</trkpt>
<trkpt lat="40.0728419" lon="-105.2305749">
  <ele>1586.17</ele>
  <time>2026-08-28T19:07:20Z</time>
  <course>11.08</course>
  <speed>0.01414213562373095</speed>
  <fix>3d</fix>
</trkpt>
<trkpt lat="40.072842" lon="-105.230575">
  <ele>1586.09</ele>
  <time>2026-08-28T19:07:20Z</time>
  <course>266.04</course>
  <speed>0.0</speed>
  <fix>3d</fix>
</trkpt>
<trkpt lat="40.0728419" lon="-105.2305749">
  <ele>1586.17</ele>
  <time>2026-08-28T19:07:20Z</time>
  <course>11.08</course>
  <speed>0.01414213562373095</speed>
  <fix>3d</fix>
</trkpt>
<trkpt lat="40.072842" lon="-105.230575">
  <ele>1586.09</ele>
  <time>2026-08-28T19:07:20Z</time>
  <course>266.04</course>
  <speed>0.0</speed>
  <fix>3d</fix>
</trkpt>
<trkpt lat="40.0728419" lon="-105.2305749">
  <ele>1586.17</ele>
  <time>2026-08-28T19:07:20Z</time>
  <course>11.08</course>
  <speed>0.01414213562373095</speed>
  <fix>3d</fix>
</trkpt>
<trkpt lat="40.072842" lon="-105.230575">
  <ele>1586.09</ele>
  <time>2026-08-28T19:07:20Z</time>
  <course>266.04</course>
  <speed>0.0</speed>
  <fix>3d</fix>
</trkpt>
<trkpt lat="40.0728419" lon="-105.2305749">
  <ele>1586.17</ele>
  <time>2026-08-28T19:07:20Z</time>
  <course>11.08</course>
  <speed>0.01414213562373095</speed>
  <fix>3d</fix>
</trkpt>
<trkpt lat="40.072842" lon="-105.230575">
  <ele>1586.09</ele>
  <time>2026-08-28T19:07:20Z</time>
  <course>266.04</course>
  <speed>0.0</speed>
  <fix>3d</fix>
</trkpt>
<trkpt lat="40.0728419" lon="-105.2305749">
  <ele>1586.17</ele>
  <time>2026-08-28T19:07:20Z</time>
  <course>11.08</course>
  <speed>0.01414213562373095</speed>
  <fix>3d</fix>
</trkpt>
<trkpt lat="40.072842" lon="-105.230575">
  <ele>1586.09</ele>
  <time>2026-08-28T19:07:20Z</time>
  <course>266.04</course>
  <speed>0.0</speed>
  <fix>3d</fix>
</trkpt>
<trkpt lat="40.0728419" lon="-105.2305749">
  <ele>1586.17</ele>
  <time>2026-08-28T19:07:20Z</time>
  <course>11.08</course>
  <speed>0.01414213562373095</speed>
  <fix>3d</fix>
</trkpt>
<trkpt lat="40.072842" lon="-105.230575">
  <ele>1586.09</ele>
  <time>2026-08-28T19:07:20Z</time>
  <course>266.04</course>
  <speed>0.0</speed>
  <fix>3d</fix>
</trkpt>
<trkpt lat="40.0728419" lon="-105.2305749">
  <ele>1586.17</ele>
  <time>2026-08-28T19:07:20Z</time>
  <course>11.08</course>
  <speed>0.01414213562373095</speed>
  <fix>3d</fix>
</trkpt>
<trkpt lat="40.072842" lon="-105.230575">
  <ele>1586.09</ele>
  <time>2026-08-28T19:07:20Z</time>
  <course>266.04</course>
  <speed>0.0</speed>
  <fix>3d</fix>
</trkpt>
<trkpt lat="40.0728419" lon="-105.2305749">
  <ele>1586.16</ele>
  <time>2026-08-28T19:07:20Z</time>
  <course>11.08</course>
  <speed>0.01414213562373095</speed>
  <fix>3d</fix>
</trkpt>
<trkpt lat="40.072842" lon="-105.230575">
  <ele>1586.09</ele>
  <time>2026-08-28T19:07:20Z</time>
  <course>266.04</course>
  <speed>0.0</speed>
  <fix>3d</fix>
</trkpt>
<trkpt lat="40.0728419" lon="-105.2305749">
  <ele>1586.16</ele>
  <time>2026-08-28T19:07:20Z</time>
  <course>11.08</course>
  <speed>0.01414213562373095</speed>
  <fix>3d</fix>
</trkpt>
<trkpt lat="40.072842" lon="-105.230575">
  <ele>1586.09</ele>
  <time>2026-08-28T19:07:20Z</time>
  <course>266.04</course>
  <speed>0.0</speed>
  <fix>3d</fix>
</trkpt>
<trkpt lat="40.0728419" lon="-105.2305749">
  <ele>1586.16</ele>
  <time>2026-08-28T19:07:20Z</time>
  <course>11.07</course>
  <speed>0.01414213562373095</speed>
  <fix>3d</fix>
</trkpt>
<trkpt lat="40.072842" lon="-105.230575">
  <ele>1586.09</ele>
  <time>2026-08-28T19:07:20Z</time>
  <course>266.04</course>
  <speed>0.0</speed>
  <fix>3d</fix>
</trkpt>
<trkpt lat="40.0728419" lon="-105.2305749">
  <ele>1586.16</ele>
  <time>2026-08-28T19:07:20Z</time>
  <course>11.07</course>
  <speed>0.01414213562373095</speed>
  <fix>3d</fix>
</trkpt>
<trkpt lat="40.072842" lon="-105.230575">
  <ele>1586.09</ele>
  <time>2026-08-28T19:07:20Z</time>
  <course>266.04</course>
  <speed>0.0</speed>
  <fix>3d</fix>
</trkpt>
<trkpt lat="40.0728419" lon="-105.2305749">
  <ele>1586.16</ele>
  <time>2026-08-28T19:07:20Z</time>
  <course>11.07</course>
  <speed>0.01414213562373095</speed>
  <fix>3d</fix>
</trkpt>
<trkpt lat="40.072842" lon="-105.230575">
  <ele>1586.09</ele>
  <time>2026-08-28T19:07:20Z</time>
  <course>266.04</course>
  <speed>0.0</speed>
  <fix>3d</fix>
</trkpt>
<trkpt lat="40.0728419" lon="-105.2305749">
  <ele>1586.16</ele>
  <time>2026-08-28T19:07:20Z</time>
  <course>11.07</course>
  <speed>0.01414213562373095</speed>
  <fix>3d</fix>
</trkpt>
<trkpt lat="40.072842" lon="-105.230575">
  <ele>1586.09</ele>
  <time>2026-08-28T19:07:20Z</time>
  <course>266.04</course>
  <speed>0.0</speed>
  <fix>3d</fix>
</trkpt>
<trkpt lat="40.0728419" lon="-105.2305749">
  <ele>1586.16</ele>
  <time>2026-08-28T19:07:20Z</time>
  <course>11.07</course>
  <speed>0.01414213562373095</speed>
  <fix>3d</fix>
</trkpt>
<trkpt lat="40.072842" lon="-105.230575">
  <ele>1586.09</ele>
  <time>2026-08-28T19:07:20Z</time>
  <course>266.04</course>
  <speed>0.0</speed>
  <fix>3d</fix>
</trkpt>
<trkpt lat="40.0728419" lon="-105.2305749">
  <ele>1586.16</ele>
  <time>2026-08-28T19:07:20Z</time>
  <course>11.07</course>
  <speed>0.022360679774997897</speed>
  <fix>3d</fix>
</trkpt>
<trkpt lat="40.072842" lon="-105.230575">
  <ele>1586.09</ele>
  <time>2026-08-28T19:07:20Z</time>
  <course>266.04</course>
  <speed>0.0</speed>
  <fix>3d</fix>
</trkpt>
<trkpt lat="40.0728419" lon="-105.2305749">
  <ele>1586.16</ele>
  <time>2026-08-28T19:07:20Z</time>
  <course>11.07</course>
  <speed>0.022360679774997897</speed>
  <fix>3d</fix>
</trkpt>
<trkpt lat="40.072842" lon="-105.230575">
  <ele>1586.09</ele>
  <time>2026-08-28T19:07:20Z</time>
  <course>266.04</course>
  <speed>0.0</speed>
  <fix>3d</fix>
</trkpt>
<trkpt lat="40.0728419" lon="-105.2305749">
  <ele>1586.16</ele>
  <time>2026-08-28T19:07:20Z</time>
  <course>11.07</course>
  <speed>0.022360679774997897</speed>
  <fix>3d</fix>
</trkpt>
<trkpt lat="40.072842" lon="-105.230575">
  <ele>1586.09</ele>
  <time>2026-08-28T19:07:20Z</time>
  <course>266.04</course>
  <speed>0.0</speed>
  <fix>3d</fix>
</trkpt>
<trkpt lat="40.0728419" lon="-105.2305749">
  <ele>1586.16</ele>
  <time>2026-08-28T19:07:21Z</time>
  <course>11.07</course>
  <speed>0.022360679774997897</speed>
  <fix>3d</fix>
</trkpt>
<trkpt lat="40.072842" lon="-105.230575">
  <ele>1586.09</ele>
  <time>2026-08-28T19:07:21Z</time>
  <course>266.04</course>
  <speed>0.0</speed>
  <fix>3d</fix>
</trkpt>
<trkpt lat="40.0728419" lon="-105.2305749">
  <ele>1586.16</ele>
  <time>2026-08-28T19:07:21Z</time>
  <course>11.07</course>
  <speed>0.022360679774997897</speed>
  <fix>3d</fix>
</trkpt>
<trkpt lat="40.072842" lon="-105.230575">
  <ele>1586.09</ele>
  <time>2026-08-28T19:07:21Z</time>
  <course>266.04</course>
  <speed>0.0</speed>
  <fix>3d</fix>
</trkpt>
<trkpt lat="40.0728419" lon="-105.2305749">
  <ele>1586.16</ele>
  <time>2026-08-28T19:07:21Z</time>
  <course>11.06</course>
  <speed>0.022360679774997897</speed>
  <fix>3d</fix>
</trkpt>
<trkpt lat="40.072842" lon="-105.230575">
  <ele>1586.09</ele>
  <time>2026-08-28T19:07:21Z</time>
  <course>266.04</course>
  <speed>0.0</speed>
  <fix>3d</fix>
</trkpt>
<trkpt lat="40.0728419" lon="-105.2305749">
  <ele>1586.16</ele>
  <time>2026-08-28T19:07:21Z</time>
  <course>11.06</course>
  <speed>0.022360679774997897</speed>
  <fix>3d</fix>
</trkpt>
<trkpt lat="40.072842" lon="-105.230575">
  <ele>1586.09</ele>
  <time>2026-08-28T19:07:21Z</time>
  <course>266.04</course>
  <speed>0.0</speed>
  <fix>3d</fix>
</trkpt>
<trkpt lat="40.0728419" lon="-105.2305749">
  <ele>1586.16</ele>
  <time>2026-08-28T19:07:21Z</time>
  <course>11.06</course>
  <speed>0.022360679774997897</speed>
  <fix>3d</fix>
</trkpt>
<trkpt lat="40.072842" lon="-105.230575">
  <ele>1586.09</ele>
  <time>2026-08-28T19:07:21Z</time>
  <course>266.04</course>
  <speed>0.0</speed>
  <fix>3d</fix>
</trkpt>
<trkpt lat="40.0728419" lon="-105.2305749">
  <ele>1586.16</ele>
  <time>2026-08-28T19:07:21Z</time>
  <course>11.06</course>
  <speed>0.022360679774997897</speed>
  <fix>3d</fix>
</trkpt>
<trkpt lat="40.072842" lon="-105.230575">
  <ele>1586.09</ele>
  <time>2026-08-28T19:07:21Z</time>
  <course>266.04</course>
  <speed>0.0</speed>
  <fix>3d</fix>
</trkpt>
<trkpt lat="40.0728419" lon="-105.2305749">
  <ele>1586.16</ele>
  <time>2026-08-28T19:07:21Z</time>
  <course>11.06</course>
  <speed>0.022360679774997897</speed>
  <fix>3d</fix>
</trkpt>
<trkpt lat="40.072842" lon="-105.230575">
  <ele>1586.09</ele>
  <time>2026-08-28T19:07:21Z</time>
  <course>266.04</course>
  <speed>0.0</speed>
  <fix>3d</fix>
</trkpt>
<trkpt lat="40.0728419" lon="-105.2305749">
  <ele>1586.17</ele>
  <time>2026-08-28T19:07:21Z</time>
  <course>11.06</course>
  <speed>0.022360679774997897</speed>
  <fix>3d</fix>
</trkpt>
<trkpt lat="40.072842" lon="-105.230575">
  <ele>1586.09</ele>
  <time>2026-08-28T19:07:21Z</time>
  <course>266.04</course>
  <speed>0.0</speed>
  <fix>3d</fix>
</trkpt>
<trkpt lat="40.0728419" lon="-105.2305749">
  <ele>1586.17</ele>
  <time>2026-08-28T19:07:21Z</time>
  <course>11.06</course>
  <speed>0.022360679774997897</speed>
  <fix>3d</fix>
</trkpt>
<trkpt lat="40.072842" lon="-105.230575">
  <ele>1586.09</ele>
  <time>2026-08-28T19:07:21Z</time>
  <course>266.04</course>
  <speed>0.0</speed>
  <fix>3d</fix>
</trkpt>
<trkpt lat="40.0728419" lon="-105.2305749">
  <ele>1586.17</ele>
  <time>2026-08-28T19:07:21Z</time>
  <course>11.06</course>
  <speed>0.022360679774997897</speed>
  <fix>3d</fix>
</trkpt>
<trkpt lat="40.072842" lon="-105.230575">
  <ele>1586.09</ele>
  <time>2026-08-28T19:07:21Z</time>
  <course>266.04</course>
  <speed>0.0</speed>
  <fix>3d</fix>
</trkpt>
<trkpt lat="40.0728419" lon="-105.2305749">
  <ele>1586.17</ele>
  <time>2026-08-28T19:07:21Z</time>
  <course>11.06</course>
  <speed>0.022360679774997897</speed>
  <fix>3d</fix>
</trkpt>
<trkpt lat="40.072842" lon="-105.230575">
  <ele>1586.09</ele>
  <time>2026-08-28T19:07:21Z</time>
  <course>266.04</course>
  <speed>0.0</speed>
  <fix>3d</fix>
</trkpt>
<trkpt lat="40.0728419" lon="-105.2305749">
  <ele>1586.17</ele>
  <time>2026-08-28T19:07:21Z</time>
  <course>11.06</course>
  <speed>0.022360679774997897</speed>
  <fix>3d</fix>
</trkpt>
<trkpt lat="40.072842" lon="-105.230575">
  <ele>1586.09</ele>
  <time>2026-08-28T19:07:21Z</time>
  <course>266.04</course>
  <speed>0.0</speed>
  <fix>3d</fix>
</trkpt>
<trkpt lat="40.0728419" lon="-105.2305749">
  <ele>1586.17</ele>
  <time>2026-08-28T19:07:21Z</time>
  <course>11.06</course>
  <speed>0.022360679774997897</speed>
  <fix>3d</fix>
</trkpt>
<trkpt lat="40.072842" lon="-105.230575">
  <ele>1586.09</ele>
  <time>2026-08-28T19:07:21Z</time>
  <course>266.04</course>
  <speed>0.0</speed>
  <fix>3d</fix>
</trkpt>
<trkpt lat="40.0728419" lon="-105.2305749">
  <ele>1586.17</ele>
  <time>2026-08-28T19:07:21Z</time>
  <course>11.06</course>
  <speed>0.022360679774997897</speed>
  <fix>3d</fix>
</trkpt>
<trkpt lat="40.072842" lon="-105.230575">
  <ele>1586.09</ele>
  <time>2026-08-28T19:07:21Z</time>
  <course>266.04</course>
  <speed>0.0</speed>
  <fix>3d</fix>
</trkpt>
<trkpt lat="40.0728419" lon="-105.2305749">
  <ele>1586.17</ele>
  <time>2026-08-28T19:07:21Z</time>
  <course>11.06</course>
  <speed>0.022360679774997897</speed>
  <fix>3d</fix>
</trkpt>
<trkpt lat="40.072842" lon="-105.230575">
  <ele>1586.09</ele>
  <time>2026-08-28T19:07:21Z</time>
  <course>266.04</course>
  <speed>0.0</speed>
  <fix>3d</fix>
</trkpt>
<trkpt lat="40.0728419" lon="-105.2305749">
  <ele>1586.17</ele>
  <time>2026-08-28T19:07:21Z</time>
  <course>11.06</course>
  <speed>0.022360679774997897</speed>
  <fix>3d</fix>
</trkpt>
<trkpt lat="40.072842" lon="-105.230575">
  <ele>1586.09</ele>
  <time>2026-08-28T19:07:21Z</time>
  <course>266.04</course>
  <speed>0.0</speed>
  <fix>3d</fix>
</trkpt>
<trkpt lat="40.0728419" lon="-105.2305749">
  <ele>1586.17</ele>
  <time>2026-08-28T19:07:21Z</time>
  <course>11.05</course>
  <speed>0.022360679774997897</speed>
  <fix>3d</fix>
</trkpt>
<trkpt lat="40.072842" lon="-105.230575">
  <ele>1586.09</ele>
  <time>2026-08-28T19:07:21Z</time>
  <course>266.04</course>
  <speed>0.0</speed>
  <fix>3d</fix>
</trkpt>
<trkpt lat="40.0728419" lon="-105.2305749">
  <ele>1586.17</ele>
  <time>2026-08-28T19:07:21Z</time>
  <course>11.05</course>
  <speed>0.022360679774997897</speed>
  <fix>3d</fix>
</trkpt>
<trkpt lat="40.072842" lon="-105.230575">
  <ele>1586.09</ele>
  <time>2026-08-28T19:07:21Z</time>
  <course>266.04</course>
  <speed>0.0</speed>
  <fix>3d</fix>
</trkpt>
<trkpt lat="40.0728419" lon="-105.2305749">
  <ele>1586.17</ele>
  <time>2026-08-28T19:07:21Z</time>
  <course>11.05</course>
  <speed>0.022360679774997897</speed>
  <fix>3d</fix>
</trkpt>
<trkpt lat="40.072842" lon="-105.230575">
  <ele>1586.09</ele>
  <time>2026-08-28T19:07:21Z</time>
  <course>266.04</course>
  <speed>0.0</speed>
  <fix>3d</fix>
</trkpt>
<trkpt lat="40.0728419" lon="-105.2305749">
  <ele>1586.17</ele>
  <time>2026-08-28T19:07:21Z</time>
  <course>11.05</course>
  <speed>0.022360679774997897</speed>
  <fix>3d</fix>
</trkpt>
<trkpt lat="40.072842" lon="-105.230575">
  <ele>1586.09</ele>
  <time>2026-08-28T19:07:21Z</time>
  <course>266.04</course>
  <speed>0.0</speed>
  <fix>3d</fix>
</trkpt>
<trkpt lat="40.0728419" lon="-105.2305749">
  <ele>1586.17</ele>
  <time>2026-08-28T19:07:21Z</time>
  <course>11.05</course>
  <speed>0.022360679774997897</speed>
  <fix>3d</fix>
</trkpt>
<trkpt lat="40.072842" lon="-105.230575">
  <ele>1586.09</ele>
  <time>2026-08-28T19:07:21Z</time>
  <course>266.04</course>
  <speed>0.0</speed>
  <fix>3d</fix>
</trkpt>
<trkpt lat="40.0728419" lon="-105.2305749">
  <ele>1586.17</ele>
  <time>2026-08-28T19:07:21Z</time>
  <course>11.05</course>
  <speed>0.022360679774997897</speed>
  <fix>3d</fix>
</trkpt>
<trkpt lat="40.072842" lon="-105.230575">
  <ele>1586.09</ele>
  <time>2026-08-28T19:07:21Z</time>
  <course>266.04</course>
  <speed>0.0</speed>
  <fix>3d</fix>
</trkpt>
<trkpt lat="40.0728419" lon="-105.2305749">
  <ele>1586.17</ele>
  <time>2026-08-28T19:07:21Z</time>
  <course>11.05</course>
  <speed>0.022360679774997897</speed>
  <fix>3d</fix>
</trkpt>
<trkpt lat="40.072842" lon="-105.230575">
  <ele>1586.09</ele>
  <time>2026-08-28T19:07:21Z</time>
  <course>266.04</course>
  <speed>0.0</speed>
  <fix>3d</fix>
</trkpt>
<trkpt lat="40.0728419" lon="-105.2305749">
  <ele>1586.17</ele>
  <time>2026-08-28T19:07:21Z</time>
  <course>11.05</course>
  <speed>0.022360679774997897</speed>
  <fix>3d</fix>
</trkpt>
<trkpt lat="40.072842" lon="-105.230575">
  <ele>1586.09</ele>
  <time>2026-08-28T19:07:21Z</time>
  <course>266.04</course>
  <speed>0.0</speed>
  <fix>3d</fix>
</trkpt>
<trkpt lat="40.0728419" lon="-105.2305749">
  <ele>1586.17</ele>
  <time>2026-08-28T19:07:21Z</time>
  <course>11.05</course>
  <speed>0.022360679774997897</speed>
  <fix>3d</fix>
</trkpt>
<trkpt lat="40.072842" lon="-105.230575">
  <ele>1586.09</ele>
  <time>2026-08-28T19:07:21Z</time>
  <course>266.04</course>
  <speed>0.0</speed>
  <fix>3d</fix>
</trkpt>
<trkpt lat="40.0728419" lon="-105.2305749">
  <ele>1586.17</ele>
  <time>2026-08-28T19:07:21Z</time>
  <course>11.05</course>
  <speed>0.022360679774997897</speed>
  <fix>3d</fix>
</trkpt>
<trkpt lat="40.072842" lon="-105.230575">
  <ele>1586.09</ele>
  <time>2026-08-28T19:07:21Z</time>
  <course>266.04</course>
  <speed>0.0</speed>
  <fix>3d</fix>
</trkpt>
<trkpt lat="40.0728419" lon="-105.2305749">
  <ele>1586.17</ele>
  <time>2026-08-28T19:07:21Z</time>
  <course>11.05</course>
  <speed>0.022360679774997897</speed>
  <fix>3d</fix>
</trkpt>
<trkpt lat="40.072842" lon="-105.230575">
  <ele>1586.09</ele>
  <time>2026-08-28T19:07:21Z</time>
  <course>266.04</course>
  <speed>0.0</speed>
  <fix>3d</fix>
</trkpt>
<trkpt lat="40.0728419" lon="-105.2305749">
  <ele>1586.17</ele>
  <time>2026-08-28T19:07:21Z</time>
  <course>11.05</course>
  <speed>0.022360679774997897</speed>
  <fix>3d</fix>
</trkpt>
<trkpt lat="40.072842" lon="-105.230575">
  <ele>1586.09</ele>
  <time>2026-08-28T19:07:21Z</time>
  <course>266.04</course>
  <speed>0.0</speed>
  <fix>3d</fix>
</trkpt>
<trkpt lat="40.0728419" lon="-105.2305749">
  <ele>1586.17</ele>
  <time>2026-08-28T19:07:21Z</time>
  <course>11.05</course>
  <speed>0.022360679774997897</speed>
  <fix>3d</fix>
</trkpt>
<trkpt lat="40.072842" lon="-105.230575">
  <ele>1586.09</ele>
  <time>2026-08-28T19:07:21Z</time>
  <course>266.04</course>
  <speed>0.0</speed>
  <fix>3d</fix>
</trkpt>
<trkpt lat="40.0728419" lon="-105.2305749">
  <ele>1586.16</ele>
  <time>2026-08-28T19:07:21Z</time>
  <course>11.05</course>
  <speed>0.022360679774997897</speed>
  <fix>3d</fix>
</trkpt>
<trkpt lat="40.072842" lon="-105.230575">
  <ele>1586.09</ele>
  <time>2026-08-28T19:07:21Z</time>
  <course>266.04</course>
  <speed>0.0</speed>
  <fix>3d</fix>
</trkpt>
<trkpt lat="40.0728419" lon="-105.2305749">
  <ele>1586.16</ele>
  <time>2026-08-28T19:07:21Z</time>
  <course>11.05</course>
  <speed>0.022360679774997897</speed>
  <fix>3d</fix>
</trkpt>
<trkpt lat="40.072842" lon="-105.230575">
  <ele>1586.09</ele>
  <time>2026-08-28T19:07:21Z</time>
  <course>266.04</course>
  <speed>0.0</speed>
  <fix>3d</fix>
</trkpt>
<trkpt lat="40.0728419" lon="-105.2305749">
  <ele>1586.15</ele>
  <time>2026-08-28T19:07:21Z</time>
  <course>11.04</course>
  <speed>0.022360679774997897</speed>
  <fix>3d</fix>
</trkpt>
<trkpt lat="40.072842" lon="-105.230575">
  <ele>1586.09</ele>
  <time>2026-08-28T19:07:21Z</time>
  <course>266.04</course>
  <speed>0.0</speed>
  <fix>3d</fix>
</trkpt>
<trkpt lat="40.0728419" lon="-105.2305749">
  <ele>1586.15</ele>
  <time>2026-08-28T19:07:21Z</time>
  <course>11.04</course>
  <speed>0.022360679774997897</speed>
  <fix>3d</fix>
</trkpt>
<trkpt lat="40.072842" lon="-105.230575">
  <ele>1586.09</ele>
  <time>2026-08-28T19:07:21Z</time>
  <course>266.04</course>
  <speed>0.0</speed>
  <fix>3d</fix>
</trkpt>
<trkpt lat="40.0728419" lon="-105.2305749">
  <ele>1586.14</ele>
  <time>2026-08-28T19:07:21Z</time>
  <course>11.04</course>
  <speed>0.022360679774997897</speed>
  <fix>3d</fix>
</trkpt>
<trkpt lat="40.072842" lon="-105.230575">
  <ele>1586.09</ele>
  <time>2026-08-28T19:07:21Z</time>
  <course>266.04</course>
  <speed>0.0</speed>
  <fix>3d</fix>
</trkpt>
<trkpt lat="40.0728419" lon="-105.2305749">
  <ele>1586.14</ele>
  <time>2026-08-28T19:07:21Z</time>
  <course>11.04</course>
  <speed>0.022360679774997897</speed>
  <fix>3d</fix>
</trkpt>
<trkpt lat="40.072842" lon="-105.230575">
  <ele>1586.09</ele>
  <time>2026-08-28T19:07:21Z</time>
  <course>266.04</course>
  <speed>0.0</speed>
  <fix>3d</fix>
</trkpt>
<trkpt lat="40.0728419" lon="-105.2305749">
  <ele>1586.14</ele>
  <time>2026-08-28T19:07:21Z</time>
  <course>11.04</course>
  <speed>0.022360679774997897</speed>
  <fix>3d</fix>
</trkpt>
<trkpt lat="40.072842" lon="-105.230575">
  <ele>1586.09</ele>
  <time>2026-08-28T19:07:21Z</time>
  <course>266.04</course>
  <speed>0.0</speed>
  <fix>3d</fix>
</trkpt>
<trkpt lat="40.0728419" lon="-105.2305749">
  <ele>1586.14</ele>
  <time>2026-08-28T19:07:21Z</time>
  <course>11.04</course>
  <speed>0.022360679774997897</speed>
  <fix>3d</fix>
</trkpt>
<trkpt lat="40.072842" lon="-105.230575">
  <ele>1586.09</ele>
  <time>2026-08-28T19:07:21Z</time>
  <course>266.04</course>
  <speed>0.0</speed>
  <fix>3d</fix>
</trkpt>
<trkpt lat="40.0728419" lon="-105.2305749">
  <ele>1586.14</ele>
  <time>2026-08-28T19:07:21Z</time>
  <course>11.04</course>
  <speed>0.022360679774997897</speed>
  <fix>3d</fix>
</trkpt>
<trkpt lat="40.072842" lon="-105.230575">
  <ele>1586.09</ele>
  <time>2026-08-28T19:07:21Z</time>
  <course>266.04</course>
  <speed>0.0</speed>
  <fix>3d</fix>
</trkpt>
<trkpt lat="40.0728419" lon="-105.2305749">
  <ele>1586.14</ele>
  <time>2026-08-28T19:07:21Z</time>
  <course>11.04</course>
  <speed>0.022360679774997897</speed>
  <fix>3d</fix>
</trkpt>
<trkpt lat="40.072842" lon="-105.230575">
  <ele>1586.09</ele>
  <time>2026-08-28T19:07:21Z</time>
  <course>266.04</course>
  <speed>0.0</speed>
  <fix>3d</fix>
</trkpt>
<trkpt lat="40.0728419" lon="-105.2305749">
  <ele>1586.13</ele>
  <time>2026-08-28T19:07:21Z</time>
  <course>11.04</course>
  <speed>0.022360679774997897</speed>
  <fix>3d</fix>
</trkpt>
<trkpt lat="40.072842" lon="-105.230575">
  <ele>1586.09</ele>
  <time>2026-08-28T19:07:21Z</time>
  <course>266.04</course>
  <speed>0.0</speed>
  <fix>3d</fix>
</trkpt>
<trkpt lat="40.0728419" lon="-105.2305749">
  <ele>1586.13</ele>
  <time>2026-08-28T19:07:21Z</time>
  <course>11.04</course>
  <speed>0.022360679774997897</speed>
  <fix>3d</fix>
</trkpt>
<trkpt lat="40.072842" lon="-105.230575">
  <ele>1586.09</ele>
  <time>2026-08-28T19:07:21Z</time>
  <course>266.04</course>
  <speed>0.0</speed>
  <fix>3d</fix>
</trkpt>
<trkpt lat="40.0728419" lon="-105.2305749">
  <ele>1586.14</ele>
  <time>2026-08-28T19:07:21Z</time>
  <course>11.04</course>
  <speed>0.022360679774997897</speed>
  <fix>3d</fix>
</trkpt>
<trkpt lat="40.072842" lon="-105.230575">
  <ele>1586.09</ele>
  <time>2026-08-28T19:07:21Z</time>
  <course>266.04</course>
  <speed>0.0</speed>
  <fix>3d</fix>
</trkpt>
<trkpt lat="40.0728419" lon="-105.2305749">
  <ele>1586.14</ele>
  <time>2026-08-28T19:07:21Z</time>
  <course>11.04</course>
  <speed>0.022360679774997897</speed>
  <fix>3d</fix>
</trkpt>
<trkpt lat="40.072842" lon="-105.230575">
  <ele>1586.09</ele>
  <time>2026-08-28T19:07:21Z</time>
  <course>266.04</course>
  <speed>0.0</speed>
  <fix>3d</fix>
</trkpt>
<trkpt lat="40.0728419" lon="-105.2305749">
  <ele>1586.14</ele>
  <time>2026-08-28T19:07:21Z</time>
  <course>11.04</course>
  <speed>0.022360679774997897</speed>
  <fix>3d</fix>
</trkpt>
<trkpt lat="40.072842" lon="-105.230575">
  <ele>1586.09</ele>
  <time>2026-08-28T19:07:21Z</time>
  <course>266.04</course>
  <speed>0.0</speed>
  <fix>3d</fix>
</trkpt>
<trkpt lat="40.0728419" lon="-105.2305749">
  <ele>1586.14</ele>
  <time>2026-08-28T19:07:21Z</time>
  <course>11.04</course>
  <speed>0.022360679774997897</speed>
  <fix>3d</fix>
</trkpt>
<trkpt lat="40.072842" lon="-105.230575">
  <ele>1586.09</ele>
  <time>2026-08-28T19:07:21Z</time>
  <course>266.04</course>
  <speed>0.0</speed>
  <fix>3d</fix>
</trkpt>
<trkpt lat="40.0728419" lon="-105.2305749">
  <ele>1586.14</ele>
  <time>2026-08-28T19:07:21Z</time>
  <course>11.04</course>
  <speed>0.022360679774997897</speed>
  <fix>3d</fix>
</trkpt>
<trkpt lat="40.072842" lon="-105.230575">
  <ele>1586.09</ele>
  <time>2026-08-28T19:07:21Z</time>
  <course>266.04</course>
  <speed>0.0</speed>
  <fix>3d</fix>
</trkpt>
<trkpt lat="40.0728419" lon="-105.2305749">
  <ele>1586.15</ele>
  <time>2026-08-28T19:07:21Z</time>
  <course>11.04</course>
  <speed>0.022360679774997897</speed>
  <fix>3d</fix>
</trkpt>
<trkpt lat="40.072842" lon="-105.230575">
  <ele>1586.09</ele>
  <time>2026-08-28T19:07:21Z</time>
  <course>266.04</course>
  <speed>0.0</speed>
  <fix>3d</fix>
</trkpt>
<trkpt lat="40.0728419" lon="-105.2305749">
  <ele>1586.15</ele>
  <time>2026-08-28T19:07:21Z</time>
  <course>11.04</course>
  <speed>0.022360679774997897</speed>
  <fix>3d</fix>
</trkpt>
<trkpt lat="40.072842" lon="-105.230575">
  <ele>1586.09</ele>
  <time>2026-08-28T19:07:21Z</time>
  <course>266.04</course>
  <speed>0.0</speed>
  <fix>3d</fix>
</trkpt>
<trkpt lat="40.0728419" lon="-105.2305749">
  <ele>1586.15</ele>
  <time>2026-08-28T19:07:21Z</time>
  <course>11.04</course>
  <speed>0.022360679774997897</speed>
  <fix>3d</fix>
</trkpt>
<trkpt lat="40.072842" lon="-105.230575">
  <ele>1586.09</ele>
  <time>2026-08-28T19:07:21Z</time>
  <course>266.04</course>
  <speed>0.0</speed>
  <fix>3d</fix>
</trkpt>
<trkpt lat="40.0728419" lon="-105.2305749">
  <ele>1586.15</ele>
  <time>2026-08-28T19:07:21Z</time>
  <course>11.04</course>
  <speed>0.022360679774997897</speed>
  <fix>3d</fix>
</trkpt>
<trkpt lat="40.072842" lon="-105.230575">
  <ele>1586.09</ele>
  <time>2026-08-28T19:07:21Z</time>
  <course>266.04</course>
  <speed>0.0</speed>
  <fix>3d</fix>
</trkpt>
<trkpt lat="40.0728419" lon="-105.2305749">
  <ele>1586.15</ele>
  <time>2026-08-28T19:07:21Z</time>
  <course>11.04</course>
  <speed>0.022360679774997897</speed>
  <fix>3d</fix>
</trkpt>
<trkpt lat="40.072842" lon="-105.230575">
  <ele>1586.09</ele>
  <time>2026-08-28T19:07:21Z</time>
  <course>266.04</course>
  <speed>0.0</speed>
  <fix>3d</fix>
</trkpt>
<trkpt lat="40.0728419" lon="-105.2305749">
  <ele>1586.16</ele>
  <time>2026-08-28T19:07:21Z</time>
  <course>11.04</course>
  <speed>0.022360679774997897</speed>
  <fix>3d</fix>
</trkpt>
<trkpt lat="40.072842" lon="-105.230575">
  <ele>1586.09</ele>
  <time>2026-08-28T19:07:21Z</time>
  <course>266.04</course>
  <speed>0.0</speed>
  <fix>3d</fix>
</trkpt>
<trkpt lat="40.0728419" lon="-105.2305749">
  <ele>1586.16</ele>
  <time>2026-08-28T19:07:21Z</time>
  <course>11.04</course>
  <speed>0.022360679774997897</speed>
  <fix>3d</fix>
</trkpt>
<trkpt lat="40.072842" lon="-105.230575">
  <ele>1586.09</ele>
  <time>2026-08-28T19:07:21Z</time>
  <course>266.04</course>
  <speed>0.0</speed>
  <fix>3d</fix>
</trkpt>
<trkpt lat="40.0728419" lon="-105.2305749">
  <ele>1586.15</ele>
  <time>2026-08-28T19:07:21Z</time>
  <course>11.04</course>
  <speed>0.022360679774997897</speed>
  <fix>3d</fix>
</trkpt>
<trkpt lat="40.072842" lon="-105.230575">
  <ele>1586.09</ele>
  <time>2026-08-28T19:07:21Z</time>
  <course>266.04</course>
  <speed>0.0</speed>
  <fix>3d</fix>
</trkpt>
<trkpt lat="40.0728419" lon="-105.2305749">
  <ele>1586.15</ele>
  <time>2026-08-28T19:07:21Z</time>
  <course>11.04</course>
  <speed>0.022360679774997897</speed>
  <fix>3d</fix>
</trkpt>
<trkpt lat="40.072842" lon="-105.230575">
  <ele>1586.09</ele>
  <time>2026-08-28T19:07:21Z</time>
  <course>266.04</course>
  <speed>0.0</speed>
  <fix>3d</fix>
</trkpt>
<trkpt lat="40.0728419" lon="-105.2305749">
  <ele>1586.15</ele>
  <time>2026-08-28T19:07:21Z</time>
  <course>11.04</course>
  <speed>0.022360679774997897</speed>
  <fix>3d</fix>
</trkpt>
<trkpt lat="40.072842" lon="-105.230575">
  <ele>1586.09</ele>
  <time>2026-08-28T19:07:21Z</time>
  <course>266.04</course>
  <speed>0.0</speed>
  <fix>3d</fix>
</trkpt>
<trkpt lat="40.0728419" lon="-105.2305749">
  <ele>1586.15</ele>
  <time>2026-08-28T19:07:21Z</time>
  <course>11.04</course>
  <speed>0.022360679774997897</speed>
  <fix>3d</fix>
</trkpt>
<trkpt lat="40.072842" lon="-105.230575">
  <ele>1586.09</ele>
  <time>2026-08-28T19:07:21Z</time>
  <course>266.04</course>
  <speed>0.0</speed>
  <fix>3d</fix>
</trkpt>
<trkpt lat="40.0728419" lon="-105.2305749">
  <ele>1586.15</ele>
  <time>2026-08-28T19:07:21Z</time>
  <course>11.04</course>
  <speed>0.022360679774997897</speed>
  <fix>3d</fix>
</trkpt>
<trkpt lat="40.072842" lon="-105.230575">
  <ele>1586.09</ele>
  <time>2026-08-28T19:07:21Z</time>
  <course>266.04</course>
  <speed>0.0</speed>
  <fix>3d</fix>
</trkpt>
<trkpt lat="40.0728419" lon="-105.2305749">
  <ele>1586.15</ele>
  <time>2026-08-28T19:07:21Z</time>
  <course>11.03</course>
  <speed>0.022360679774997897</speed>
  <fix>3d</fix>
</trkpt>
<trkpt lat="40.072842" lon="-105.230575">
  <ele>1586.09</ele>
  <time>2026-08-28T19:07:21Z</time>
  <course>266.04</course>
  <speed>0.0</speed>
  <fix>3d</fix>
</trkpt>
<trkpt lat="40.0728419" lon="-105.2305749">
  <ele>1586.15</ele>
  <time>2026-08-28T19:07:21Z</time>
  <course>11.03</course>
  <speed>0.022360679774997897</speed>
  <fix>3d</fix>
</trkpt>
<trkpt lat="40.072842" lon="-105.230575">
  <ele>1586.09</ele>
  <time>2026-08-28T19:07:21Z</time>
  <course>266.04</course>
  <speed>0.0</speed>
  <fix>3d</fix>
</trkpt>
<trkpt lat="40.0728419" lon="-105.2305749">
  <ele>1586.14</ele>
  <time>2026-08-28T19:07:21Z</time>
  <course>11.03</course>
  <speed>0.022360679774997897</speed>
  <fix>3d</fix>
</trkpt>
<trkpt lat="40.072842" lon="-105.230575">
  <ele>1586.09</ele>
  <time>2026-08-28T19:07:21Z</time>
  <course>266.04</course>
  <speed>0.0</speed>
  <fix>3d</fix>
</trkpt>
<trkpt lat="40.0728419" lon="-105.2305749">
  <ele>1586.14</ele>
  <time>2026-08-28T19:07:21Z</time>
  <course>11.03</course>
  <speed>0.022360679774997897</speed>
  <fix>3d</fix>
</trkpt>
<trkpt lat="40.072842" lon="-105.230575">
  <ele>1586.09</ele>
  <time>2026-08-28T19:07:21Z</time>
  <course>266.04</course>
  <speed>0.0</speed>
  <fix>3d</fix>
</trkpt>
<trkpt lat="40.0728419" lon="-105.2305749">
  <ele>1586.14</ele>
  <time>2026-08-28T19:07:21Z</time>
  <course>11.03</course>
  <speed>0.022360679774997897</speed>
  <fix>3d</fix>
</trkpt>
<trkpt lat="40.072842" lon="-105.230575">
  <ele>1586.09</ele>
  <time>2026-08-28T19:07:21Z</time>
  <course>266.04</course>
  <speed>0.0</speed>
  <fix>3d</fix>
</trkpt>
<trkpt lat="40.0728419" lon="-105.2305749">
  <ele>1586.14</ele>
  <time>2026-08-28T19:07:21Z</time>
  <course>11.03</course>
  <speed>0.022360679774997897</speed>
  <fix>3d</fix>
</trkpt>
<trkpt lat="40.072842" lon="-105.230575">
  <ele>1586.09</ele>
  <time>2026-08-28T19:07:21Z</time>
  <course>266.04</course>
  <speed>0.0</speed>
  <fix>3d</fix>
</trkpt>
<trkpt lat="40.0728419" lon="-105.2305749">
  <ele>1586.14</ele>
  <time>2026-08-28T19:07:21Z</time>
  <course>11.03</course>
  <speed>0.022360679774997897</speed>
  <fix>3d</fix>
</trkpt>
<trkpt lat="40.072842" lon="-105.230575">
  <ele>1586.09</ele>
  <time>2026-08-28T19:07:21Z</time>
  <course>266.04</course>
  <speed>0.0</speed>
  <fix>3d</fix>
</trkpt>
<trkpt lat="40.0728419" lon="-105.2305749">
  <ele>1586.14</ele>
  <time>2026-08-28T19:07:21Z</time>
  <course>11.03</course>
  <speed>0.022360679774997897</speed>
  <fix>3d</fix>
</trkpt>
<trkpt lat="40.072842" lon="-105.230575">
  <ele>1586.09</ele>
  <time>2026-08-28T19:07:21Z</time>
  <course>266.04</course>
  <speed>0.0</speed>
  <fix>3d</fix>
</trkpt>
<trkpt lat="40.0728419" lon="-105.2305749">
  <ele>1586.13</ele>
  <time>2026-08-28T19:07:21Z</time>
  <course>11.03</course>
  <speed>0.022360679774997897</speed>
  <fix>3d</fix>
</trkpt>
<trkpt lat="40.072842" lon="-105.230575">
  <ele>1586.09</ele>
  <time>2026-08-28T19:07:21Z</time>
  <course>266.04</course>
  <speed>0.0</speed>
  <fix>3d</fix>
</trkpt>
<trkpt lat="40.0728419" lon="-105.2305749">
  <ele>1586.13</ele>
  <time>2026-08-28T19:07:21Z</time>
  <course>11.03</course>
  <speed>0.022360679774997897</speed>
  <fix>3d</fix>
</trkpt>
<trkpt lat="40.072842" lon="-105.230575">
  <ele>1586.09</ele>
  <time>2026-08-28T19:07:21Z</time>
  <course>266.04</course>
  <speed>0.0</speed>
  <fix>3d</fix>
</trkpt>
<trkpt lat="40.0728419" lon="-105.2305749">
  <ele>1586.13</ele>
  <time>2026-08-28T19:07:21Z</time>
  <course>11.03</course>
  <speed>0.022360679774997897</speed>
  <fix>3d</fix>
</trkpt>
<trkpt lat="40.072842" lon="-105.230575">
  <ele>1586.09</ele>
  <time>2026-08-28T19:07:21Z</time>
  <course>266.04</course>
  <speed>0.0</speed>
  <fix>3d</fix>
</trkpt>
<trkpt lat="40.0728419" lon="-105.2305749">
  <ele>1586.13</ele>
  <time>2026-08-28T19:07:21Z</time>
  <course>11.03</course>
  <speed>0.022360679774997897</speed>
  <fix>3d</fix>
</trkpt>
<trkpt lat="40.072842" lon="-105.230575">
  <ele>1586.09</ele>
  <time>2026-08-28T19:07:21Z</time>
  <course>266.04</course>
  <speed>0.0</speed>
  <fix>3d</fix>
</trkpt>
<trkpt lat="40.0728419" lon="-105.2305749">
  <ele>1586.12</ele>
  <time>2026-08-28T19:07:21Z</time>
  <course>11.03</course>
  <speed>0.022360679774997897</speed>
  <fix>3d</fix>
</trkpt>
<trkpt lat="40.072842" lon="-105.230575">
  <ele>1586.09</ele>
  <time>2026-08-28T19:07:21Z</time>
  <course>266.04</course>
  <speed>0.0</speed>
  <fix>3d</fix>
</trkpt>
<trkpt lat="40.0728419" lon="-105.2305749">
  <ele>1586.12</ele>
  <time>2026-08-28T19:07:21Z</time>
  <course>11.03</course>
  <speed>0.022360679774997897</speed>
  <fix>3d</fix>
</trkpt>
<trkpt lat="40.072842" lon="-105.230575">
  <ele>1586.09</ele>
  <time>2026-08-28T19:07:21Z</time>
  <course>266.04</course>
  <speed>0.0</speed>
  <fix>3d</fix>
</trkpt>
<trkpt lat="40.0728419" lon="-105.2305749">
  <ele>1586.12</ele>
  <time>2026-08-28T19:07:21Z</time>
  <course>11.03</course>
  <speed>0.022360679774997897</speed>
  <fix>3d</fix>
</trkpt>
<trkpt lat="40.072842" lon="-105.230575">
  <ele>1586.09</ele>
  <time>2026-08-28T19:07:21Z</time>
  <course>266.04</course>
  <speed>0.0</speed>
  <fix>3d</fix>
</trkpt>
<trkpt lat="40.0728419" lon="-105.2305749">
  <ele>1586.13</ele>
  <time>2026-08-28T19:07:21Z</time>
  <course>11.03</course>
  <speed>0.022360679774997897</speed>
  <fix>3d</fix>
</trkpt>
<trkpt lat="40.072842" lon="-105.230575">
  <ele>1586.09</ele>
  <time>2026-08-28T19:07:21Z</time>
  <course>266.04</course>
  <speed>0.0</speed>
  <fix>3d</fix>
</trkpt>
<trkpt lat="40.0728419" lon="-105.2305749">
  <ele>1586.12</ele>
  <time>2026-08-28T19:07:21Z</time>
  <course>11.03</course>
  <speed>0.022360679774997897</speed>
  <fix>3d</fix>
</trkpt>
<trkpt lat="40.072842" lon="-105.230575">
  <ele>1586.09</ele>
  <time>2026-08-28T19:07:21Z</time>
  <course>266.04</course>
  <speed>0.0</speed>
  <fix>3d</fix>
</trkpt>
<trkpt lat="40.0728419" lon="-105.2305749">
  <ele>1586.13</ele>
  <time>2026-08-28T19:07:21Z</time>
  <course>11.03</course>
  <speed>0.022360679774997897</speed>
  <fix>3d</fix>
</trkpt>
<trkpt lat="40.072842" lon="-105.230575">
  <ele>1586.09</ele>
  <time>2026-08-28T19:07:21Z</time>
  <course>266.04</course>
  <speed>0.0</speed>
  <fix>3d</fix>
</trkpt>
<trkpt lat="40.0728419" lon="-105.2305749">
  <ele>1586.13</ele>
  <time>2026-08-28T19:07:21Z</time>
  <course>11.03</course>
  <speed>0.022360679774997897</speed>
  <fix>3d</fix>
</trkpt>
<trkpt lat="40.072842" lon="-105.230575">
  <ele>1586.09</ele>
  <time>2026-08-28T19:07:21Z</time>
  <course>266.04</course>
  <speed>0.0</speed>
  <fix>3d</fix>
</trkpt>
<trkpt lat="40.0728419" lon="-105.2305749">
  <ele>1586.13</ele>
  <time>2026-08-28T19:07:21Z</time>
  <course>11.03</course>
  <speed>0.022360679774997897</speed>
  <fix>3d</fix>
</trkpt>
<trkpt lat="40.072842" lon="-105.230575">
  <ele>1586.09</ele>
  <time>2026-08-28T19:07:21Z</time>
  <course>266.04</course>
  <speed>0.0</speed>
  <fix>3d</fix>
</trkpt>
<trkpt lat="40.0728419" lon="-105.2305749">
  <ele>1586.13</ele>
  <time>2026-08-28T19:07:21Z</time>
  <course>11.03</course>
  <speed>0.022360679774997897</speed>
  <fix>3d</fix>
</trkpt>
<trkpt lat="40.072842" lon="-105.230575">
  <ele>1586.09</ele>
  <time>2026-08-28T19:07:21Z</time>
  <course>266.04</course>
  <speed>0.0</speed>
  <fix>3d</fix>
</trkpt>
<trkpt lat="40.0728419" lon="-105.2305749">
  <ele>1586.13</ele>
  <time>2026-08-28T19:07:21Z</time>
  <course>11.03</course>
  <speed>0.01414213562373095</speed>
  <fix>3d</fix>
</trkpt>
<trkpt lat="40.072842" lon="-105.230575">
  <ele>1586.09</ele>
  <time>2026-08-28T19:07:21Z</time>
  <course>266.04</course>
  <speed>0.0</speed>
  <fix>3d</fix>
</trkpt>
<trkpt lat="40.0728419" lon="-105.2305749">
  <ele>1586.13</ele>
  <time>2026-08-28T19:07:21Z</time>
  <course>11.03</course>
  <speed>0.022360679774997897</speed>
  <fix>3d</fix>
</trkpt>
<trkpt lat="40.072842" lon="-105.230575">
  <ele>1586.09</ele>
  <time>2026-08-28T19:07:21Z</time>
  <course>266.04</course>
  <speed>0.0</speed>
  <fix>3d</fix>
</trkpt>
<trkpt lat="40.0728419" lon="-105.2305749">
  <ele>1586.13</ele>
  <time>2026-08-28T19:07:21Z</time>
  <course>11.03</course>
  <speed>0.01414213562373095</speed>
  <fix>3d</fix>
</trkpt>
<trkpt lat="40.072842" lon="-105.230575">
  <ele>1586.09</ele>
  <time>2026-08-28T19:07:21Z</time>
  <course>266.04</course>
  <speed>0.0</speed>
  <fix>3d</fix>
</trkpt>
<trkpt lat="40.0728419" lon="-105.2305749">
  <ele>1586.13</ele>
  <time>2026-08-28T19:07:21Z</time>
  <course>11.03</course>
  <speed>0.01414213562373095</speed>
  <fix>3d</fix>
</trkpt>
<trkpt lat="40.072842" lon="-105.230575">
  <ele>1586.09</ele>
  <time>2026-08-28T19:07:21Z</time>
  <course>266.04</course>
  <speed>0.0</speed>
  <fix>3d</fix>
</trkpt>
<trkpt lat="40.0728419" lon="-105.2305749">
  <ele>1586.13</ele>
  <time>2026-08-28T19:07:21Z</time>
  <course>11.03</course>
  <speed>0.01414213562373095</speed>
  <fix>3d</fix>
</trkpt>
<trkpt lat="40.072842" lon="-105.230575">
  <ele>1586.09</ele>
  <time>2026-08-28T19:07:21Z</time>
  <course>266.04</course>
  <speed>0.0</speed>
  <fix>3d</fix>
</trkpt>
<trkpt lat="40.0728419" lon="-105.2305749">
  <ele>1586.13</ele>
  <time>2026-08-28T19:07:21Z</time>
  <course>11.03</course>
  <speed>0.01414213562373095</speed>
  <fix>3d</fix>
</trkpt>
<trkpt lat="40.072842" lon="-105.230575">
  <ele>1586.09</ele>
  <time>2026-08-28T19:07:21Z</time>
  <course>266.04</course>
  <speed>0.0</speed>
  <fix>3d</fix>
</trkpt>
<trkpt lat="40.0728419" lon="-105.2305749">
  <ele>1586.14</ele>
  <time>2026-08-28T19:07:21Z</time>
  <course>11.03</course>
  <speed>0.01414213562373095</speed>
  <fix>3d</fix>
</trkpt>
<trkpt lat="40.072842" lon="-105.230575">
  <ele>1586.09</ele>
  <time>2026-08-28T19:07:21Z</time>
  <course>266.04</course>
  <speed>0.0</speed>
  <fix>3d</fix>
</trkpt>
<trkpt lat="40.0728419" lon="-105.2305749">
  <ele>1586.15</ele>
  <time>2026-08-28T19:07:21Z</time>
  <course>11.03</course>
  <speed>0.01414213562373095</speed>
  <fix>3d</fix>
</trkpt>
<trkpt lat="40.072842" lon="-105.230575">
  <ele>1586.09</ele>
  <time>2026-08-28T19:07:21Z</time>
  <course>266.04</course>
  <speed>0.0</speed>
  <fix>3d</fix>
</trkpt>
<trkpt lat="40.0728419" lon="-105.2305749">
  <ele>1586.15</ele>
  <time>2026-08-28T19:07:21Z</time>
  <course>11.03</course>
  <speed>0.01414213562373095</speed>
  <fix>3d</fix>
</trkpt>
<trkpt lat="40.072842" lon="-105.230575">
  <ele>1586.09</ele>
  <time>2026-08-28T19:07:21Z</time>
  <course>266.04</course>
  <speed>0.0</speed>
  <fix>3d</fix>
</trkpt>
<trkpt lat="40.0728419" lon="-105.2305749">
  <ele>1586.15</ele>
  <time>2026-08-28T19:07:21Z</time>
  <course>11.03</course>
  <speed>0.01414213562373095</speed>
  <fix>3d</fix>
</trkpt>
<trkpt lat="40.072842" lon="-105.230575">
  <ele>1586.09</ele>
  <time>2026-08-28T19:07:21Z</time>
  <course>266.04</course>
  <speed>0.0</speed>
  <fix>3d</fix>
</trkpt>
<trkpt lat="40.0728419" lon="-105.2305749">
  <ele>1586.15</ele>
  <time>2026-08-28T19:07:21Z</time>
  <course>11.03</course>
  <speed>0.01414213562373095</speed>
  <fix>3d</fix>
</trkpt>
<trkpt lat="40.072842" lon="-105.230575">
  <ele>1586.09</ele>
  <time>2026-08-28T19:07:21Z</time>
  <course>266.04</course>
  <speed>0.0</speed>
  <fix>3d</fix>
</trkpt>
<trkpt lat="40.0728419" lon="-105.2305749">
  <ele>1586.15</ele>
  <time>2026-08-28T19:07:21Z</time>
  <course>11.03</course>
  <speed>0.01414213562373095</speed>
  <fix>3d</fix>
</trkpt>
<trkpt lat="40.072842" lon="-105.230575">
  <ele>1586.09</ele>
  <time>2026-08-28T19:07:21Z</time>
  <course>266.04</course>
  <speed>0.0</speed>
  <fix>3d</fix>
</trkpt>
<trkpt lat="40.0728419" lon="-105.2305749">
  <ele>1586.15</ele>
  <time>2026-08-28T19:07:21Z</time>
  <course>11.03</course>
  <speed>0.01414213562373095</speed>
  <fix>3d</fix>
</trkpt>
<trkpt lat="40.072842" lon="-105.230575">
  <ele>1586.09</ele>
  <time>2026-08-28T19:07:21Z</time>
  <course>266.04</course>
  <speed>0.0</speed>
  <fix>3d</fix>
</trkpt>
<trkpt lat="40.0728419" lon="-105.2305749">
  <ele>1586.15</ele>
  <time>2026-08-28T19:07:21Z</time>
  <course>11.03</course>
  <speed>0.022360679774997897</speed>
  <fix>3d</fix>
</trkpt>
<trkpt lat="40.072842" lon="-105.230575">
  <ele>1586.09</ele>
  <time>2026-08-28T19:07:21Z</time>
  <course>266.04</course>
  <speed>0.0</speed>
  <fix>3d</fix>
</trkpt>
<trkpt lat="40.0728419" lon="-105.2305749">
  <ele>1586.16</ele>
  <time>2026-08-28T19:07:21Z</time>
  <course>11.03</course>
  <speed>0.01414213562373095</speed>
  <fix>3d</fix>
</trkpt>
<trkpt lat="40.072842" lon="-105.230575">
  <ele>1586.09</ele>
  <time>2026-08-28T19:07:21Z</time>
  <course>266.04</course>
  <speed>0.0</speed>
  <fix>3d</fix>
</trkpt>
<trkpt lat="40.0728419" lon="-105.2305749">
  <ele>1586.16</ele>
  <time>2026-08-28T19:07:21Z</time>
  <course>11.03</course>
  <speed>0.01414213562373095</speed>
  <fix>3d</fix>
</trkpt>
<trkpt lat="40.072842" lon="-105.230575">
  <ele>1586.09</ele>
  <time>2026-08-28T19:07:21Z</time>
  <course>266.04</course>
  <speed>0.0</speed>
  <fix>3d</fix>
</trkpt>
<trkpt lat="40.0728419" lon="-105.2305749">
  <ele>1586.16</ele>
  <time>2026-08-28T19:07:21Z</time>
  <course>11.03</course>
  <speed>0.01414213562373095</speed>
  <fix>3d</fix>
</trkpt>
<trkpt lat="40.072842" lon="-105.230575">
  <ele>1586.09</ele>
  <time>2026-08-28T19:07:21Z</time>
  <course>266.04</course>
  <speed>0.0</speed>
  <fix>3d</fix>
</trkpt>
<trkpt lat="40.0728419" lon="-105.2305749">
  <ele>1586.16</ele>
  <time>2026-08-28T19:07:21Z</time>
  <course>11.03</course>
  <speed>0.01414213562373095</speed>
  <fix>3d</fix>
</trkpt>
<trkpt lat="40.072842" lon="-105.230575">
  <ele>1586.09</ele>
  <time>2026-08-28T19:07:21Z</time>
  <course>266.04</course>
  <speed>0.0</speed>
  <fix>3d</fix>
</trkpt>
<trkpt lat="40.0728419" lon="-105.2305749">
  <ele>1586.16</ele>
  <time>2026-08-28T19:07:21Z</time>
  <course>11.03</course>
  <speed>0.01414213562373095</speed>
  <fix>3d</fix>
</trkpt>
<trkpt lat="40.072842" lon="-105.230575">
  <ele>1586.09</ele>
  <time>2026-08-28T19:07:21Z</time>
  <course>266.04</course>
  <speed>0.0</speed>
  <fix>3d</fix>
</trkpt>
<trkpt lat="40.0728419" lon="-105.2305749">
  <ele>1586.16</ele>
  <time>2026-08-28T19:07:21Z</time>
  <course>11.03</course>
  <speed>0.01414213562373095</speed>
  <fix>3d</fix>
</trkpt>
<trkpt lat="40.072842" lon="-105.230575">
  <ele>1586.09</ele>
  <time>2026-08-28T19:07:21Z</time>
  <course>266.04</course>
  <speed>0.0</speed>
  <fix>3d</fix>
</trkpt>
<trkpt lat="40.0728419" lon="-105.2305749">
  <ele>1586.16</ele>
  <time>2026-08-28T19:07:21Z</time>
  <course>11.03</course>
  <speed>0.01414213562373095</speed>
  <fix>3d</fix>
</trkpt>
<trkpt lat="40.072842" lon="-105.230575">
  <ele>1586.09</ele>
  <time>2026-08-28T19:07:21Z</time>
  <course>266.04</course>
  <speed>0.0</speed>
  <fix>3d</fix>
</trkpt>
<trkpt lat="40.0728419" lon="-105.2305749">
  <ele>1586.16</ele>
  <time>2026-08-28T19:07:21Z</time>
  <course>11.03</course>
  <speed>0.01414213562373095</speed>
  <fix>3d</fix>
</trkpt>
<trkpt lat="40.072842" lon="-105.230575">
  <ele>1586.09</ele>
  <time>2026-08-28T19:07:21Z</time>
  <course>266.04</course>
  <speed>0.0</speed>
  <fix>3d</fix>
</trkpt>
<trkpt lat="40.0728419" lon="-105.2305749">
  <ele>1586.16</ele>
  <time>2026-08-28T19:07:21Z</time>
  <course>11.03</course>
  <speed>0.01414213562373095</speed>
  <fix>3d</fix>
</trkpt>
<trkpt lat="40.072842" lon="-105.230575">
  <ele>1586.09</ele>
  <time>2026-08-28T19:07:21Z</time>
  <course>266.04</course>
  <speed>0.0</speed>
  <fix>3d</fix>
</trkpt>
<trkpt lat="40.0728419" lon="-105.2305749">
  <ele>1586.17</ele>
  <time>2026-08-28T19:07:21Z</time>
  <course>11.03</course>
  <speed>0.01414213562373095</speed>
  <fix>3d</fix>
</trkpt>
<trkpt lat="40.072842" lon="-105.230575">
  <ele>1586.09</ele>
  <time>2026-08-28T19:07:21Z</time>
  <course>266.04</course>
  <speed>0.0</speed>
  <fix>3d</fix>
</trkpt>
<trkpt lat="40.0728419" lon="-105.2305749">
  <ele>1586.17</ele>
  <time>2026-08-28T19:07:21Z</time>
  <course>11.03</course>
  <speed>0.01414213562373095</speed>
  <fix>3d</fix>
</trkpt>
<trkpt lat="40.072842" lon="-105.230575">
  <ele>1586.09</ele>
  <time>2026-08-28T19:07:21Z</time>
  <course>266.04</course>
  <speed>0.0</speed>
  <fix>3d</fix>
</trkpt>
<trkpt lat="40.0728419" lon="-105.2305749">
  <ele>1586.17</ele>
  <time>2026-08-28T19:07:21Z</time>
  <course>11.03</course>
  <speed>0.01414213562373095</speed>
  <fix>3d</fix>
</trkpt>
<trkpt lat="40.072842" lon="-105.230575">
  <ele>1586.09</ele>
  <time>2026-08-28T19:07:21Z</time>
  <course>266.04</course>
  <speed>0.0</speed>
  <fix>3d</fix>
</trkpt>
<trkpt lat="40.0728419" lon="-105.2305749">
  <ele>1586.16</ele>
  <time>2026-08-28T19:07:21Z</time>
  <course>11.03</course>
  <speed>0.01414213562373095</speed>
  <fix>3d</fix>
</trkpt>
<trkpt lat="40.072842" lon="-105.230575">
  <ele>1586.09</ele>
  <time>2026-08-28T19:07:21Z</time>
  <course>266.04</course>
  <speed>0.0</speed>
  <fix>3d</fix>
</trkpt>
<trkpt lat="40.0728419" lon="-105.2305749">
  <ele>1586.17</ele>
  <time>2026-08-28T19:07:21Z</time>
  <course>11.03</course>
  <speed>0.01414213562373095</speed>
  <fix>3d</fix>
</trkpt>
<trkpt lat="40.072842" lon="-105.230575">
  <ele>1586.09</ele>
  <time>2026-08-28T19:07:21Z</time>
  <course>266.04</course>
  <speed>0.0</speed>
  <fix>3d</fix>
</trkpt>
<trkpt lat="40.0728419" lon="-105.2305749">
  <ele>1586.17</ele>
  <time>2026-08-28T19:07:21Z</time>
  <course>11.03</course>
  <speed>0.01414213562373095</speed>
  <fix>3d</fix>
</trkpt>
<trkpt lat="40.072842" lon="-105.230575">
  <ele>1586.09</ele>
  <time>2026-08-28T19:07:21Z</time>
  <course>266.04</course>
  <speed>0.0</speed>
  <fix>3d</fix>
</trkpt>
<trkpt lat="40.0728419" lon="-105.2305749">
  <ele>1586.17</ele>
  <time>2026-08-28T19:07:21Z</time>
  <course>11.03</course>
  <speed>0.01414213562373095</speed>
  <fix>3d</fix>
</trkpt>
<trkpt lat="40.072842" lon="-105.230575">
  <ele>1586.09</ele>
  <time>2026-08-28T19:07:21Z</time>
  <course>266.04</course>
  <speed>0.0</speed>
  <fix>3d</fix>
</trkpt>
<trkpt lat="40.0728419" lon="-105.2305749">
  <ele>1586.17</ele>
  <time>2026-08-28T19:07:21Z</time>
  <course>11.03</course>
  <speed>0.01414213562373095</speed>
  <fix>3d</fix>
</trkpt>
<trkpt lat="40.072842" lon="-105.230575">
  <ele>1586.09</ele>
  <time>2026-08-28T19:07:21Z</time>
  <course>266.04</course>
  <speed>0.0</speed>
  <fix>3d</fix>
</trkpt>
<trkpt lat="40.0728419" lon="-105.2305749">
  <ele>1586.17</ele>
  <time>2026-08-28T19:07:21Z</time>
  <course>11.03</course>
  <speed>0.01414213562373095</speed>
  <fix>3d</fix>
</trkpt>
<trkpt lat="40.072842" lon="-105.230575">
  <ele>1586.09</ele>
  <time>2026-08-28T19:07:21Z</time>
  <course>266.04</course>
  <speed>0.0</speed>
  <fix>3d</fix>
</trkpt>
<trkpt lat="40.0728419" lon="-105.2305749">
  <ele>1586.17</ele>
  <time>2026-08-28T19:07:21Z</time>
  <course>11.03</course>
  <speed>0.01414213562373095</speed>
  <fix>3d</fix>
</trkpt>
<trkpt lat="40.072842" lon="-105.230575">
  <ele>1586.09</ele>
  <time>2026-08-28T19:07:21Z</time>
  <course>266.04</course>
  <speed>0.0</speed>
  <fix>3d</fix>
</trkpt>
<trkpt lat="40.0728419" lon="-105.2305749">
  <ele>1586.18</ele>
  <time>2026-08-28T19:07:21Z</time>
  <course>11.03</course>
  <speed>0.01414213562373095</speed>
  <fix>3d</fix>
</trkpt>
<trkpt lat="40.072842" lon="-105.230575">
  <ele>1586.09</ele>
  <time>2026-08-28T19:07:21Z</time>
  <course>266.04</course>
  <speed>0.0</speed>
  <fix>3d</fix>
</trkpt>
<trkpt lat="40.0728419" lon="-105.2305749">
  <ele>1586.18</ele>
  <time>2026-08-28T19:07:21Z</time>
  <course>11.03</course>
  <speed>0.01414213562373095</speed>
  <fix>3d</fix>
</trkpt>
<trkpt lat="40.072842" lon="-105.230575">
  <ele>1586.09</ele>
  <time>2026-08-28T19:07:21Z</time>
  <course>266.04</course>
  <speed>0.0</speed>
  <fix>3d</fix>
</trkpt>
<trkpt lat="40.0728419" lon="-105.2305749">
  <ele>1586.18</ele>
  <time>2026-08-28T19:07:21Z</time>
  <course>11.03</course>
  <speed>0.01414213562373095</speed>
  <fix>3d</fix>
</trkpt>
<trkpt lat="40.072842" lon="-105.230575">
  <ele>1586.09</ele>
  <time>2026-08-28T19:07:21Z</time>
  <course>266.04</course>
  <speed>0.0</speed>
  <fix>3d</fix>
</trkpt>
<trkpt lat="40.0728419" lon="-105.2305749">
  <ele>1586.18</ele>
  <time>2026-08-28T19:07:21Z</time>
  <course>11.03</course>
  <speed>0.01414213562373095</speed>
  <fix>3d</fix>
</trkpt>
<trkpt lat="40.072842" lon="-105.230575">
  <ele>1586.09</ele>
  <time>2026-08-28T19:07:21Z</time>
  <course>266.04</course>
  <speed>0.0</speed>
  <fix>3d</fix>
</trkpt>
<trkpt lat="40.0728419" lon="-105.2305749">
  <ele>1586.18</ele>
  <time>2026-08-28T19:07:21Z</time>
  <course>11.03</course>
  <speed>0.01414213562373095</speed>
  <fix>3d</fix>
</trkpt>
<trkpt lat="40.072842" lon="-105.230575">
  <ele>1586.09</ele>
  <time>2026-08-28T19:07:21Z</time>
  <course>266.04</course>
  <speed>0.0</speed>
  <fix>3d</fix>
</trkpt>
<trkpt lat="40.0728419" lon="-105.2305749">
  <ele>1586.18</ele>
  <time>2026-08-28T19:07:21Z</time>
  <course>11.03</course>
  <speed>0.01414213562373095</speed>
  <fix>3d</fix>
</trkpt>
<trkpt lat="40.072842" lon="-105.230575">
  <ele>1586.09</ele>
  <time>2026-08-28T19:07:21Z</time>
  <course>266.04</course>
  <speed>0.0</speed>
  <fix>3d</fix>
</trkpt>
<trkpt lat="39.654938" lon="-104.1331666">
  <ele>1569.54</ele>
  <time>2026-08-28T19:07:22Z</time>
  <course>168.11</course>
  <speed>0.0</speed>
  <fix>3d</fix>
</trkpt>
<trkpt lat="40.072842" lon="-105.230575">
  <ele>1586.09</ele>
  <time>2026-08-28T19:07:22Z</time>
  <course>2.03</course>
  <speed>0.0</speed>
  <fix>3d</fix>
</trkpt>
<trkpt lat="40.072842" lon="-105.230575">
  <ele>1586.09</ele>
  <time>2026-08-28T19:07:22Z</time>
  <course>238.4</course>
  <speed>0.0</speed>
  <fix>3d</fix>
</trkpt>
<trkpt lat="40.072842" lon="-105.230575">
  <ele>1586.09</ele>
  <time>2026-08-28T19:07:22Z</time>
  <course>4.44</course>
  <speed>0.0</speed>
  <fix>3d</fix>
</trkpt>
<trkpt lat="40.072842" lon="-105.230575">
  <ele>1586.09</ele>
  <time>2026-08-28T19:07:22Z</time>
  <course>110.94</course>
  <speed>0.0</speed>
  <fix>3d</fix>
</trkpt>
<trkpt lat="40.072842" lon="-105.230575">
  <ele>1586.09</ele>
  <time>2026-08-28T19:07:22Z</time>
  <course>5.03</course>
  <speed>0.0</speed>
  <fix>3d</fix>
</trkpt>
<trkpt lat="40.072842" lon="-105.230575">
  <ele>1586.09</ele>
  <time>2026-08-28T19:07:22Z</time>
  <course>191.21</course>
  <speed>0.0</speed>
  <fix>3d</fix>
</trkpt>
<trkpt lat="40.072842" lon="-105.230575">
  <ele>1586.09</ele>
  <time>2026-08-28T19:07:22Z</time>
  <course>5.59</course>
  <speed>0.0</speed>
  <fix>3d</fix>
</trkpt>
<trkpt lat="40.072842" lon="-105.230575">
  <ele>1586.09</ele>
  <time>2026-08-28T19:07:22Z</time>
  <course>252.23</course>
  <speed>0.0</speed>
  <fix>3d</fix>
</trkpt>
<trkpt lat="40.072842" lon="-105.230575">
  <ele>1586.09</ele>
  <time>2026-08-28T19:07:22Z</time>
  <course>6.12</course>
  <speed>0.0</speed>
  <fix>3d</fix>
</trkpt>
<trkpt lat="40.072842" lon="-105.230575">
  <ele>1586.09</ele>
  <time>2026-08-28T19:07:22Z</time>
  <course>170.36</course>
  <speed>0.0</speed>
  <fix>3d</fix>
</trkpt>
<trkpt lat="40.072842" lon="-105.230575">
  <ele>1586.09</ele>
  <time>2026-08-28T19:07:22Z</time>
  <course>6.62</course>
  <speed>0.0</speed>
  <fix>3d</fix>
</trkpt>
<trkpt lat="40.072842" lon="-105.230575">
  <ele>1586.09</ele>
  <time>2026-08-28T19:07:22Z</time>
  <course>179.36</course>
  <speed>0.0</speed>
  <fix>3d</fix>
</trkpt>
<trkpt lat="40.072842" lon="-105.230575">
  <ele>1586.09</ele>
  <time>2026-08-28T19:07:22Z</time>
  <course>7.08</course>
  <speed>0.0</speed>
  <fix>3d</fix>
</trkpt>
<trkpt lat="40.072842" lon="-105.230575">
  <ele>1586.09</ele>
  <time>2026-08-28T19:07:22Z</time>
  <course>19.98</course>
  <speed>0.0</speed>
  <fix>3d</fix>
</trkpt>
<trkpt lat="40.072842" lon="-105.230575">
  <ele>1586.09</ele>
  <time>2026-08-28T19:07:22Z</time>
  <course>7.51</course>
  <speed>0.0</speed>
  <fix>3d</fix>
</trkpt>
<trkpt lat="40.072842" lon="-105.230575">
  <ele>1586.09</ele>
  <time>2026-08-28T19:07:22Z</time>
  <course>17.49</course>
  <speed>0.0</speed>
  <fix>3d</fix>
</trkpt>
<trkpt lat="40.072842" lon="-105.230575">
  <ele>1586.09</ele>
  <time>2026-08-28T19:07:22Z</time>
  <course>7.9</course>
  <speed>0.0</speed>
  <fix>3d</fix>
</trkpt>
<trkpt lat="40.072842" lon="-105.230575">
  <ele>1586.09</ele>
  <time>2026-08-28T19:07:22Z</time>
  <course>356.19</course>
  <speed>0.0</speed>
  <fix>3d</fix>
</trkpt>
<trkpt lat="40.072842" lon="-105.230575">
  <ele>1586.09</ele>
  <time>2026-08-28T19:07:22Z</time>
  <course>8.27</course>
  <speed>0.0</speed>
  <fix>3d</fix>
</trkpt>
<trkpt lat="40.072842" lon="-105.230575">
  <ele>1586.09</ele>
  <time>2026-08-28T19:07:22Z</time>
  <course>77.32</course>
  <speed>0.0</speed>
  <fix>3d</fix>
</trkpt>
<trkpt lat="40.072842" lon="-105.230575">
  <ele>1586.09</ele>
  <time>2026-08-28T19:07:22Z</time>
  <course>8.61</course>
  <speed>0.0</speed>
  <fix>3d</fix>
</trkpt>
<trkpt lat="40.072842" lon="-105.230575">
  <ele>1586.09</ele>
  <time>2026-08-28T19:07:22Z</time>
  <course>290.54</course>
  <speed>0.0</speed>
  <fix>3d</fix>
</trkpt>
<trkpt lat="40.072842" lon="-105.230575">
  <ele>1586.09</ele>
  <time>2026-08-28T19:07:22Z</time>
  <course>8.92</course>
  <speed>0.0</speed>
  <fix>3d</fix>
</trkpt>
<trkpt lat="40.072842" lon="-105.230575">
  <ele>1586.09</ele>
  <time>2026-08-28T19:07:22Z</time>
  <course>338.69</course>
  <speed>0.0</speed>
  <fix>3d</fix>
</trkpt>
<trkpt lat="40.072842" lon="-105.230575">
  <ele>1586.09</ele>
  <time>2026-08-28T19:07:22Z</time>
  <course>9.21</course>
  <speed>0.0</speed>
  <fix>3d</fix>
</trkpt>
<trkpt lat="40.072842" lon="-105.230575">
  <ele>1586.09</ele>
  <time>2026-08-28T19:07:22Z</time>
  <course>326.81</course>
  <speed>0.0</speed>
  <fix>3d</fix>
</trkpt>
<trkpt lat="40.072842" lon="-105.230575">
  <ele>1586.09</ele>
  <time>2026-08-28T19:07:22Z</time>
  <course>9.47</course>
  <speed>0.0</speed>
  <fix>3d</fix>
</trkpt>
<trkpt lat="40.072842" lon="-105.230575">
  <ele>1586.09</ele>
  <time>2026-08-28T19:07:22Z</time>
  <course>262.23</course>
  <speed>0.0</speed>
  <fix>3d</fix>
</trkpt>
<trkpt lat="40.072842" lon="-105.230575">
  <ele>1586.09</ele>
  <time>2026-08-28T19:07:22Z</time>
  <course>9.72</course>
  <speed>0.0</speed>
  <fix>3d</fix>
</trkpt>
<trkpt lat="40.072842" lon="-105.230575">
  <ele>1586.09</ele>
  <time>2026-08-28T19:07:22Z</time>
  <course>159.08</course>
  <speed>0.0</speed>
  <fix>3d</fix>
</trkpt>
<trkpt lat="39.654938" lon="-104.1331666">
  <ele>1569.54</ele>
  <time>2026-08-28T19:07:24Z</time>
  <course>168.11</course>
  <speed>0.0</speed>
  <fix>3d</fix>
</trkpt>
<trkpt lat="40.072842" lon="-105.230575">
  <ele>1586.09</ele>
  <time>2026-08-28T19:07:24Z</time>
  <course>2.03</course>
  <speed>0.0</speed>
  <fix>3d</fix>
</trkpt>
<trkpt lat="40.072842" lon="-105.230575">
  <ele>1586.09</ele>
  <time>2026-08-28T19:07:24Z</time>
  <course>238.4</course>
  <speed>0.0</speed>
  <fix>3d</fix>
</trkpt>
<trkpt lat="40.072842" lon="-105.230575">
  <ele>1586.09</ele>
  <time>2026-08-28T19:07:24Z</time>
  <course>2.39</course>
  <speed>0.0</speed>
  <fix>3d</fix>
</trkpt>
<trkpt lat="40.072842" lon="-105.230575">
  <ele>1586.09</ele>
  <time>2026-08-28T19:07:24Z</time>
  <course>194.29</course>
  <speed>0.0</speed>
  <fix>3d</fix>
</trkpt>
<trkpt lat="40.072842" lon="-105.230575">
  <ele>1586.09</ele>
  <time>2026-08-28T19:07:24Z</time>
  <course>3.12</course>
  <speed>0.0</speed>
  <fix>3d</fix>
</trkpt>
<trkpt lat="40.072842" lon="-105.230575">
  <ele>1586.09</ele>
  <time>2026-08-28T19:07:24Z</time>
  <course>193.66</course>
  <speed>0.0</speed>
  <fix>3d</fix>
</trkpt>
<trkpt lat="40.072842" lon="-105.230575">
  <ele>1586.09</ele>
  <time>2026-08-28T19:07:24Z</time>
  <course>3.81</course>
  <speed>0.0</speed>
  <fix>3d</fix>
</trkpt>
<trkpt lat="40.072842" lon="-105.230575">
  <ele>1586.09</ele>
  <time>2026-08-28T19:07:24Z</time>
  <course>303.54</course>
  <speed>0.0</speed>
  <fix>3d</fix>
</trkpt>
<trkpt lat="40.072842" lon="-105.230575">
  <ele>1586.09</ele>
  <time>2026-08-28T19:07:24Z</time>
  <course>4.44</course>
  <speed>0.0</speed>
  <fix>3d</fix>
</trkpt>
<trkpt lat="40.072842" lon="-105.230575">
  <ele>1586.09</ele>
  <time>2026-08-28T19:07:24Z</time>
  <course>110.94</course>
  <speed>0.0</speed>
  <fix>3d</fix>
</trkpt>
<trkpt lat="40.072842" lon="-105.230575">
  <ele>1586.09</ele>
  <time>2026-08-28T19:07:24Z</time>
  <course>5.03</course>
  <speed>0.0</speed>
  <fix>3d</fix>
</trkpt>
<trkpt lat="40.072842" lon="-105.230575">
  <ele>1586.09</ele>
  <time>2026-08-28T19:07:24Z</time>
  <course>191.21</course>
  <speed>0.0</speed>
  <fix>3d</fix>
</trkpt>
<trkpt lat="40.072842" lon="-105.230575">
  <ele>1586.09</ele>
  <time>2026-08-28T19:07:24Z</time>
  <course>5.59</course>
  <speed>0.0</speed>
  <fix>3d</fix>
</trkpt>
<trkpt lat="40.072842" lon="-105.230575">
  <ele>1586.09</ele>
  <time>2026-08-28T19:07:24Z</time>
  <course>252.23</course>
  <speed>0.0</speed>
  <fix>3d</fix>
</trkpt>
<trkpt lat="40.072842" lon="-105.230575">
  <ele>1586.09</ele>
  <time>2026-08-28T19:07:24Z</time>
  <course>6.12</course>
  <speed>0.0</speed>
  <fix>3d</fix>
</trkpt>
<trkpt lat="40.072842" lon="-105.230575">
  <ele>1586.09</ele>
  <time>2026-08-28T19:07:24Z</time>
  <course>170.36</course>
  <speed>0.0</speed>
  <fix>3d</fix>
</trkpt>
<trkpt lat="40.072842" lon="-105.230575">
  <ele>1586.09</ele>
  <time>2026-08-28T19:07:24Z</time>
  <course>6.62</course>
  <speed>0.0</speed>
  <fix>3d</fix>
</trkpt>
<trkpt lat="40.072842" lon="-105.230575">
  <ele>1586.09</ele>
  <time>2026-08-28T19:07:24Z</time>
  <course>179.36</course>
  <speed>0.0</speed>
  <fix>3d</fix>
</trkpt>
<trkpt lat="40.072842" lon="-105.230575">
  <ele>1586.09</ele>
  <time>2026-08-28T19:07:24Z</time>
  <course>7.08</course>
  <speed>0.0</speed>
  <fix>3d</fix>
</trkpt>
<trkpt lat="40.072842" lon="-105.230575">
  <ele>1586.09</ele>
  <time>2026-08-28T19:07:24Z</time>
  <course>19.98</course>
  <speed>0.0</speed>
  <fix>3d</fix>
</trkpt>
<trkpt lat="40.072842" lon="-105.230575">
  <ele>1586.09</ele>
  <time>2026-08-28T19:07:24Z</time>
  <course>7.51</course>
  <speed>0.0</speed>
  <fix>3d</fix>
</trkpt>
<trkpt lat="40.072842" lon="-105.230575">
  <ele>1586.09</ele>
  <time>2026-08-28T19:07:24Z</time>
  <course>17.49</course>
  <speed>0.0</speed>
  <fix>3d</fix>
</trkpt>
<trkpt lat="40.072842" lon="-105.230575">
  <ele>1586.09</ele>
  <time>2026-08-28T19:07:24Z</time>
  <course>7.9</course>
  <speed>0.0</speed>
  <fix>3d</fix>
</trkpt>
<trkpt lat="40.072842" lon="-105.230575">
  <ele>1586.09</ele>
  <time>2026-08-28T19:07:24Z</time>
  <course>356.19</course>
  <speed>0.0</speed>
  <fix>3d</fix>
</trkpt>
<trkpt lat="40.072842" lon="-105.230575">
  <ele>1586.09</ele>
  <time>2026-08-28T19:07:24Z</time>
  <course>8.27</course>
  <speed>0.0</speed>
  <fix>3d</fix>
</trkpt>
<trkpt lat="40.072842" lon="-105.230575">
  <ele>1586.09</ele>
  <time>2026-08-28T19:07:24Z</time>
  <course>77.32</course>
  <speed>0.0</speed>
  <fix>3d</fix>
</trkpt>
<trkpt lat="40.072842" lon="-105.230575">
  <ele>1586.09</ele>
  <time>2026-08-28T19:07:24Z</time>
  <course>8.61</course>
  <speed>0.0</speed>
  <fix>3d</fix>
</trkpt>
<trkpt lat="40.072842" lon="-105.230575">
  <ele>1586.09</ele>
  <time>2026-08-28T19:07:24Z</time>
  <course>290.54</course>
  <speed>0.0</speed>
  <fix>3d</fix>
</trkpt>
<trkpt lat="40.072842" lon="-105.230575">
  <ele>1586.09</ele>
  <time>2026-08-28T19:07:24Z</time>
  <course>8.92</course>
  <speed>0.0</speed>
  <fix>3d</fix>
</trkpt>
<trkpt lat="40.072842" lon="-105.230575">
  <ele>1586.09</ele>
  <time>2026-08-28T19:07:24Z</time>
  <course>338.69</course>
  <speed>0.0</speed>
  <fix>3d</fix>
</trkpt>
<trkpt lat="40.072842" lon="-105.230575">
  <ele>1586.09</ele>
  <time>2026-08-28T19:07:24Z</time>
  <course>9.21</course>
  <speed>0.0</speed>
  <fix>3d</fix>
</trkpt>
<trkpt lat="40.072842" lon="-105.230575">
  <ele>1586.09</ele>
  <time>2026-08-28T19:07:24Z</time>
  <course>326.81</course>
  <speed>0.0</speed>
  <fix>3d</fix>
</trkpt>
<trkpt lat="40.072842" lon="-105.230575">
  <ele>1586.09</ele>
  <time>2026-08-28T19:07:24Z</time>
  <course>9.47</course>
  <speed>0.0</speed>
  <fix>3d</fix>
</trkpt>
<trkpt lat="40.072842" lon="-105.230575">
  <ele>1586.09</ele>
  <time>2026-08-28T19:07:24Z</time>
  <course>262.23</course>
  <speed>0.0</speed>
  <fix>3d</fix>
</trkpt>
<trkpt lat="40.072842" lon="-105.230575">
  <ele>1586.09</ele>
  <time>2026-08-28T19:07:24Z</time>
  <course>9.72</course>
  <speed>0.0</speed>
  <fix>3d</fix>
</trkpt>
<trkpt lat="40.072842" lon="-105.230575">
  <ele>1586.09</ele>
  <time>2026-08-28T19:07:24Z</time>
  <course>159.08</course>
  <speed>0.0</speed>
  <fix>3d</fix>
</trkpt>
<trkpt lat="40.072842" lon="-105.230575">
  <ele>1586.09</ele>
  <time>2026-08-28T19:07:24Z</time>
  <course>9.94</course>
  <speed>0.0</speed>
  <fix>3d</fix>
</trkpt>
<trkpt lat="40.072842" lon="-105.230575">
  <ele>1586.09</ele>
  <time>2026-08-28T19:07:24Z</time>
  <course>287.98</course>
  <speed>0.0</speed>
  <fix>3d</fix>
</trkpt>
<trkpt lat="40.072842" lon="-105.230575">
  <ele>1586.09</ele>
  <time>2026-08-28T19:07:24Z</time>
  <course>10.15</course>
  <speed>0.0</speed>
  <fix>3d</fix>
</trkpt>
<trkpt lat="40.072842" lon="-105.230575">
  <ele>1586.09</ele>
  <time>2026-08-28T19:07:24Z</time>
  <course>278.3</course>
  <speed>0.0</speed>
  <fix>3d</fix>
</trkpt>
<trkpt lat="40.072842" lon="-105.230575">
  <ele>1586.09</ele>
  <time>2026-08-28T19:07:24Z</time>
  <course>10.34</course>
  <speed>0.0</speed>
  <fix>3d</fix>
</trkpt>
<trkpt lat="40.072842" lon="-105.230575">
  <ele>1586.09</ele>
  <time>2026-08-28T19:07:24Z</time>
  <course>261.72</course>
  <speed>0.0</speed>
  <fix>3d</fix>
</trkpt>
<trkpt lat="40.072842" lon="-105.230575">
  <ele>1586.09</ele>
  <time>2026-08-28T19:07:24Z</time>
  <course>10.51</course>
  <speed>0.0</speed>
  <fix>3d</fix>
</trkpt>
<trkpt lat="40.072842" lon="-105.230575">
  <ele>1586.09</ele>
  <time>2026-08-28T19:07:24Z</time>
  <course>264.4</course>
  <speed>0.0</speed>
  <fix>3d</fix>
</trkpt>
<trkpt lat="40.072842" lon="-105.230575">
  <ele>1586.09</ele>
  <time>2026-08-28T19:07:24Z</time>
  <course>10.67</course>
  <speed>0.0</speed>
  <fix>3d</fix>
</trkpt>
<trkpt lat="40.072842" lon="-105.230575">
  <ele>1586.09</ele>
  <time>2026-08-28T19:07:24Z</time>
  <course>266.8</course>
  <speed>0.0</speed>
  <fix>3d</fix>
</trkpt>
<trkpt lat="40.072842" lon="-105.230575">
  <ele>1586.09</ele>
  <time>2026-08-28T19:07:24Z</time>
  <course>10.81</course>
  <speed>0.0</speed>
  <fix>3d</fix>
</trkpt>
<trkpt lat="40.072842" lon="-105.230575">
  <ele>1586.09</ele>
  <time>2026-08-28T19:07:24Z</time>
  <course>266.15</course>
  <speed>0.0</speed>
  <fix>3d</fix>
</trkpt>
<trkpt lat="40.072842" lon="-105.230575">
  <ele>1586.09</ele>
  <time>2026-08-28T19:07:24Z</time>
  <course>10.94</course>
  <speed>0.0</speed>
  <fix>3d</fix>
</trkpt>
<trkpt lat="40.072842" lon="-105.230575">
  <ele>1586.09</ele>
  <time>2026-08-28T19:07:24Z</time>
  <course>265.92</course>
  <speed>0.0</speed>
  <fix>3d</fix>
</trkpt>
<trkpt lat="40.072842" lon="-105.230575">
  <ele>1586.09</ele>
  <time>2026-08-28T19:07:24Z</time>
  <course>11.06</course>
  <speed>0.0</speed>
  <fix>3d</fix>
</trkpt>
<trkpt lat="40.072842" lon="-105.230575">
  <ele>1586.09</ele>
  <time>2026-08-28T19:07:24Z</time>
  <course>266.03</course>
  <speed>0.0</speed>
  <fix>3d</fix>
</trkpt>
<trkpt lat="40.072842" lon="-105.230575">
  <ele>1586.09</ele>
  <time>2026-08-28T19:07:24Z</time>
  <course>11.18</course>
  <speed>0.0</speed>
  <fix>3d</fix>
</trkpt>
<trkpt lat="40.072842" lon="-105.230575">
  <ele>1586.09</ele>
  <time>2026-08-28T19:07:24Z</time>
  <course>266.05</course>
  <speed>0.0</speed>
  <fix>3d</fix>
</trkpt>
<trkpt lat="40.072842" lon="-105.230575">
  <ele>1586.09</ele>
  <time>2026-08-28T19:07:24Z</time>
  <course>11.28</course>
  <speed>0.0</speed>
  <fix>3d</fix>
</trkpt>
<trkpt lat="40.072842" lon="-105.230575">
  <ele>1586.09</ele>
  <time>2026-08-28T19:07:24Z</time>
  <course>266.03</course>
  <speed>0.0</speed>
  <fix>3d</fix>
</trkpt>
<trkpt lat="40.072842" lon="-105.230575">
  <ele>1586.09</ele>
  <time>2026-08-28T19:07:24Z</time>
  <course>11.37</course>
  <speed>0.0</speed>
  <fix>3d</fix>
</trkpt>
<trkpt lat="40.072842" lon="-105.230575">
  <ele>1586.09</ele>
  <time>2026-08-28T19:07:24Z</time>
  <course>266.03</course>
  <speed>0.0</speed>
  <fix>3d</fix>
</trkpt>
<trkpt lat="40.072842" lon="-105.230575">
  <ele>1586.09</ele>
  <time>2026-08-28T19:07:24Z</time>
  <course>11.45</course>
  <speed>0.0</speed>
  <fix>3d</fix>
</trkpt>
<trkpt lat="40.072842" lon="-105.230575">
  <ele>1586.09</ele>
  <time>2026-08-28T19:07:24Z</time>
  <course>266.03</course>
  <speed>0.0</speed>
  <fix>3d</fix>
</trkpt>
<trkpt lat="40.072842" lon="-105.230575">
  <ele>1586.09</ele>
  <time>2026-08-28T19:07:24Z</time>
  <course>11.52</course>
  <speed>0.0</speed>
  <fix>3d</fix>
</trkpt>
<trkpt lat="40.072842" lon="-105.230575">
  <ele>1586.09</ele>
  <time>2026-08-28T19:07:24Z</time>
  <course>266.03</course>
  <speed>0.0</speed>
  <fix>3d</fix>
</trkpt>
<trkpt lat="40.072842" lon="-105.230575">
  <ele>1586.09</ele>
  <time>2026-08-28T19:07:24Z</time>
  <course>11.59</course>
  <speed>0.0</speed>
  <fix>3d</fix>
</trkpt>
<trkpt lat="40.072842" lon="-105.230575">
  <ele>1586.09</ele>
  <time>2026-08-28T19:07:24Z</time>
  <course>266.03</course>
  <speed>0.0</speed>
  <fix>3d</fix>
</trkpt>
<trkpt lat="40.072842" lon="-105.230575">
  <ele>1586.09</ele>
  <time>2026-08-28T19:07:24Z</time>
  <course>11.65</course>
  <speed>0.0</speed>
  <fix>3d</fix>
</trkpt>
<trkpt lat="40.072842" lon="-105.230575">
  <ele>1586.09</ele>
  <time>2026-08-28T19:07:24Z</time>
  <course>266.03</course>
  <speed>0.0</speed>
  <fix>3d</fix>
</trkpt>
<trkpt lat="40.072842" lon="-105.230575">
  <ele>1586.09</ele>
  <time>2026-08-28T19:07:24Z</time>
  <course>11.71</course>
  <speed>0.0</speed>
  <fix>3d</fix>
</trkpt>
<trkpt lat="40.072842" lon="-105.230575">
  <ele>1586.09</ele>
  <time>2026-08-28T19:07:24Z</time>
  <course>266.03</course>
  <speed>0.0</speed>
  <fix>3d</fix>
</trkpt>
<trkpt lat="40.072842" lon="-105.230575">
  <ele>1586.09</ele>
  <time>2026-08-28T19:07:24Z</time>
  <course>11.76</course>
  <speed>0.0</speed>
  <fix>3d</fix>
</trkpt>
<trkpt lat="40.072842" lon="-105.230575">
  <ele>1586.09</ele>
  <time>2026-08-28T19:07:24Z</time>
  <course>266.03</course>
  <speed>0.0</speed>
  <fix>3d</fix>
</trkpt>
<trkpt lat="40.072842" lon="-105.230575">
  <ele>1586.09</ele>
  <time>2026-08-28T19:07:24Z</time>
  <course>11.81</course>
  <speed>0.0</speed>
  <fix>3d</fix>
</trkpt>
<trkpt lat="40.072842" lon="-105.230575">
  <ele>1586.09</ele>
  <time>2026-08-28T19:07:24Z</time>
  <course>266.03</course>
  <speed>0.0</speed>
  <fix>3d</fix>
</trkpt>
<trkpt lat="40.072842" lon="-105.230575">
  <ele>1586.09</ele>
  <time>2026-08-28T19:07:24Z</time>
  <course>11.85</course>
  <speed>0.0</speed>
  <fix>3d</fix>
</trkpt>
<trkpt lat="40.072842" lon="-105.230575">
  <ele>1586.09</ele>
  <time>2026-08-28T19:07:24Z</time>
  <course>266.03</course>
  <speed>0.0</speed>
  <fix>3d</fix>
</trkpt>
<trkpt lat="40.072842" lon="-105.230575">
  <ele>1586.09</ele>
  <time>2026-08-28T19:07:24Z</time>
  <course>11.88</course>
  <speed>0.0</speed>
  <fix>3d</fix>
</trkpt>
<trkpt lat="40.072842" lon="-105.230575">
  <ele>1586.09</ele>
  <time>2026-08-28T19:07:24Z</time>
  <course>266.03</course>
  <speed>0.0</speed>
  <fix>3d</fix>
</trkpt>
<trkpt lat="40.072842" lon="-105.230575">
  <ele>1586.09</ele>
  <time>2026-08-28T19:07:24Z</time>
  <course>11.92</course>
  <speed>0.0</speed>
  <fix>3d</fix>
</trkpt>
<trkpt lat="40.072842" lon="-105.230575">
  <ele>1586.09</ele>
  <time>2026-08-28T19:07:24Z</time>
  <course>266.03</course>
  <speed>0.0</speed>
  <fix>3d</fix>
</trkpt>
<trkpt lat="40.072842" lon="-105.230575">
  <ele>1586.09</ele>
  <time>2026-08-28T19:07:24Z</time>
  <course>11.95</course>
  <speed>0.0</speed>
  <fix>3d</fix>
</trkpt>
<trkpt lat="40.072842" lon="-105.230575">
  <ele>1586.09</ele>
  <time>2026-08-28T19:07:24Z</time>
  <course>266.03</course>
  <speed>0.0</speed>
  <fix>3d</fix>
</trkpt>
<trkpt lat="40.072842" lon="-105.230575">
  <ele>1586.09</ele>
  <time>2026-08-28T19:07:24Z</time>
  <course>11.97</course>
  <speed>0.0</speed>
  <fix>3d</fix>
</trkpt>
<trkpt lat="40.072842" lon="-105.230575">
  <ele>1586.09</ele>
  <time>2026-08-28T19:07:24Z</time>
  <course>266.03</course>
  <speed>0.0</speed>
  <fix>3d</fix>
</trkpt>
<trkpt lat="40.072842" lon="-105.230575">
  <ele>1586.09</ele>
  <time>2026-08-28T19:07:24Z</time>
  <course>12.0</course>
  <speed>0.0</speed>
  <fix>3d</fix>
</trkpt>
<trkpt lat="40.072842" lon="-105.230575">
  <ele>1586.09</ele>
  <time>2026-08-28T19:07:24Z</time>
  <course>266.03</course>
  <speed>0.0</speed>
  <fix>3d</fix>
</trkpt>
<trkpt lat="40.072842" lon="-105.230575">
  <ele>1586.09</ele>
  <time>2026-08-28T19:07:24Z</time>
  <course>12.02</course>
  <speed>0.0</speed>
  <fix>3d</fix>
</trkpt>
<trkpt lat="40.072842" lon="-105.230575">
  <ele>1586.09</ele>
  <time>2026-08-28T19:07:24Z</time>
  <course>266.03</course>
  <speed>0.0</speed>
  <fix>3d</fix>
</trkpt>
<trkpt lat="40.072842" lon="-105.230575">
  <ele>1586.09</ele>
  <time>2026-08-28T19:07:24Z</time>
  <course>12.04</course>
  <speed>0.0</speed>
  <fix>3d</fix>
</trkpt>
<trkpt lat="40.072842" lon="-105.230575">
  <ele>1586.09</ele>
  <time>2026-08-28T19:07:24Z</time>
  <course>266.03</course>
  <speed>0.0</speed>
  <fix>3d</fix>
</trkpt>
<trkpt lat="40.072842" lon="-105.230575">
  <ele>1586.09</ele>
  <time>2026-08-28T19:07:24Z</time>
  <course>12.05</course>
  <speed>0.0</speed>
  <fix>3d</fix>
</trkpt>
<trkpt lat="40.072842" lon="-105.230575">
  <ele>1586.09</ele>
  <time>2026-08-28T19:07:24Z</time>
  <course>266.03</course>
  <speed>0.0</speed>
  <fix>3d</fix>
</trkpt>
<trkpt lat="40.072842" lon="-105.230575">
  <ele>1586.09</ele>
  <time>2026-08-28T19:07:24Z</time>
  <course>12.07</course>
  <speed>0.0</speed>
  <fix>3d</fix>
</trkpt>
<trkpt lat="40.072842" lon="-105.230575">
  <ele>1586.09</ele>
  <time>2026-08-28T19:07:24Z</time>
  <course>266.03</course>
  <speed>0.0</speed>
  <fix>3d</fix>
</trkpt>
<trkpt lat="40.072842" lon="-105.230575">
  <ele>1586.09</ele>
  <time>2026-08-28T19:07:24Z</time>
  <course>12.08</course>
  <speed>0.0</speed>
  <fix>3d</fix>
</trkpt>
<trkpt lat="40.072842" lon="-105.230575">
  <ele>1586.09</ele>
  <time>2026-08-28T19:07:24Z</time>
  <course>266.03</course>
  <speed>0.0</speed>
  <fix>3d</fix>
</trkpt>
<trkpt lat="40.072842" lon="-105.230575">
  <ele>1586.09</ele>
  <time>2026-08-28T19:07:24Z</time>
  <course>12.09</course>
  <speed>0.0</speed>
  <fix>3d</fix>
</trkpt>
<trkpt lat="40.072842" lon="-105.230575">
  <ele>1586.09</ele>
  <time>2026-08-28T19:07:24Z</time>
  <course>266.03</course>
  <speed>0.0</speed>
  <fix>3d</fix>
</trkpt>
<trkpt lat="40.072842" lon="-105.230575">
  <ele>1586.09</ele>
  <time>2026-08-28T19:07:24Z</time>
  <course>12.09</course>
  <speed>0.0</speed>
  <fix>3d</fix>
</trkpt>
<trkpt lat="40.072842" lon="-105.230575">
  <ele>1586.09</ele>
  <time>2026-08-28T19:07:24Z</time>
  <course>266.03</course>
  <speed>0.0</speed>
  <fix>3d</fix>
</trkpt>
<trkpt lat="40.072842" lon="-105.230575">
  <ele>1586.09</ele>
  <time>2026-08-28T19:07:24Z</time>
  <course>12.1</course>
  <speed>0.0</speed>
  <fix>3d</fix>
</trkpt>
<trkpt lat="40.072842" lon="-105.230575">
  <ele>1586.09</ele>
  <time>2026-08-28T19:07:24Z</time>
  <course>266.03</course>
  <speed>0.0</speed>
  <fix>3d</fix>
</trkpt>
<trkpt lat="40.072842" lon="-105.230575">
  <ele>1586.09</ele>
  <time>2026-08-28T19:07:24Z</time>
  <course>12.11</course>
  <speed>0.0</speed>
  <fix>3d</fix>
</trkpt>
<trkpt lat="40.072842" lon="-105.230575">
  <ele>1586.09</ele>
  <time>2026-08-28T19:07:24Z</time>
  <course>266.03</course>
  <speed>0.0</speed>
  <fix>3d</fix>
</trkpt>
<trkpt lat="40.072842" lon="-105.230575">
  <ele>1586.09</ele>
  <time>2026-08-28T19:07:24Z</time>
  <course>12.12</course>
  <speed>0.0</speed>
  <fix>3d</fix>
</trkpt>
<trkpt lat="40.072842" lon="-105.230575">
  <ele>1586.09</ele>
  <time>2026-08-28T19:07:24Z</time>
  <course>266.03</course>
  <speed>0.0</speed>
  <fix>3d</fix>
</trkpt>
<trkpt lat="40.072842" lon="-105.230575">
  <ele>1586.09</ele>
  <time>2026-08-28T19:07:24Z</time>
  <course>12.12</course>
  <speed>0.0</speed>
  <fix>3d</fix>
</trkpt>
<trkpt lat="40.072842" lon="-105.230575">
  <ele>1586.09</ele>
  <time>2026-08-28T19:07:24Z</time>
  <course>266.03</course>
  <speed>0.0</speed>
  <fix>3d</fix>
</trkpt>
<trkpt lat="40.072842" lon="-105.230575">
  <ele>1586.09</ele>
  <time>2026-08-28T19:07:24Z</time>
  <course>12.12</course>
  <speed>0.0</speed>
  <fix>3d</fix>
</trkpt>
<trkpt lat="40.072842" lon="-105.230575">
  <ele>1586.09</ele>
  <time>2026-08-28T19:07:24Z</time>
  <course>266.03</course>
  <speed>0.0</speed>
  <fix>3d</fix>
</trkpt>
<trkpt lat="40.072842" lon="-105.230575">
  <ele>1586.09</ele>
  <time>2026-08-28T19:07:24Z</time>
  <course>12.13</course>
  <speed>0.0</speed>
  <fix>3d</fix>
</trkpt>
<trkpt lat="40.072842" lon="-105.230575">
  <ele>1586.09</ele>
  <time>2026-08-28T19:07:24Z</time>
  <course>266.03</course>
  <speed>0.0</speed>
  <fix>3d</fix>
</trkpt>
<trkpt lat="40.072842" lon="-105.230575">
  <ele>1586.09</ele>
  <time>2026-08-28T19:07:24Z</time>
  <course>12.13</course>
  <speed>0.0</speed>
  <fix>3d</fix>
</trkpt>
<trkpt lat="40.072842" lon="-105.230575">
  <ele>1586.09</ele>
  <time>2026-08-28T19:07:24Z</time>
  <course>266.03</course>
  <speed>0.0</speed>
  <fix>3d</fix>
</trkpt>
<trkpt lat="40.072842" lon="-105.230575">
  <ele>1586.09</ele>
  <time>2026-08-28T19:07:24Z</time>
  <course>12.13</course>
  <speed>0.0</speed>
  <fix>3d</fix>
</trkpt>
<trkpt lat="40.072842" lon="-105.230575">
  <ele>1586.09</ele>
  <time>2026-08-28T19:07:24Z</time>
  <course>266.03</course>
  <speed>0.0</speed>
  <fix>3d</fix>
</trkpt>
<trkpt lat="40.072842" lon="-105.230575">
  <ele>1586.09</ele>
  <time>2026-08-28T19:07:24Z</time>
  <course>12.12</course>
  <speed>0.01</speed>
  <fix>3d</fix>
</trkpt>
<trkpt lat="40.072842" lon="-105.230575">
  <ele>1586.09</ele>
  <time>2026-08-28T19:07:24Z</time>
  <course>266.03</course>
  <speed>0.0</speed>
  <fix>3d</fix>
</trkpt>
<trkpt lat="40.072842" lon="-105.230575">
  <ele>1586.09</ele>
  <time>2026-08-28T19:07:24Z</time>
  <course>12.12</course>
  <speed>0.01</speed>
  <fix>3d</fix>
</trkpt>
<trkpt lat="40.072842" lon="-105.230575">
  <ele>1586.09</ele>
  <time>2026-08-28T19:07:24Z</time>
  <course>266.03</course>
  <speed>0.0</speed>
  <fix>3d</fix>
</trkpt>
<trkpt lat="40.072842" lon="-105.230575">
  <ele>1586.09</ele>
  <time>2026-08-28T19:07:24Z</time>
  <course>12.12</course>
  <speed>0.01</speed>
  <fix>3d</fix>
</trkpt>
<trkpt lat="40.072842" lon="-105.230575">
  <ele>1586.09</ele>
  <time>2026-08-28T19:07:24Z</time>
  <course>266.03</course>
  <speed>0.0</speed>
  <fix>3d</fix>
</trkpt>
<trkpt lat="40.072842" lon="-105.230575">
  <ele>1586.09</ele>
  <time>2026-08-28T19:07:24Z</time>
  <course>12.12</course>
  <speed>0.01</speed>
  <fix>3d</fix>
</trkpt>
<trkpt lat="40.072842" lon="-105.230575">
  <ele>1586.09</ele>
  <time>2026-08-28T19:07:24Z</time>
  <course>266.03</course>
  <speed>0.0</speed>
  <fix>3d</fix>
</trkpt>
<trkpt lat="40.072842" lon="-105.230575">
  <ele>1586.09</ele>
  <time>2026-08-28T19:07:24Z</time>
  <course>12.11</course>
  <speed>0.01</speed>
  <fix>3d</fix>
</trkpt>
<trkpt lat="40.072842" lon="-105.230575">
  <ele>1586.09</ele>
  <time>2026-08-28T19:07:24Z</time>
  <course>266.03</course>
  <speed>0.0</speed>
  <fix>3d</fix>
</trkpt>
<trkpt lat="40.072842" lon="-105.230575">
  <ele>1586.09</ele>
  <time>2026-08-28T19:07:24Z</time>
  <course>12.11</course>
  <speed>0.01</speed>
  <fix>3d</fix>
</trkpt>
<trkpt lat="40.072842" lon="-105.230575">
  <ele>1586.09</ele>
  <time>2026-08-28T19:07:24Z</time>
  <course>266.03</course>
  <speed>0.0</speed>
  <fix>3d</fix>
</trkpt>
<trkpt lat="40.072842" lon="-105.230575">
  <ele>1586.09</ele>
  <time>2026-08-28T19:07:24Z</time>
  <course>12.1</course>
  <speed>0.01</speed>
  <fix>3d</fix>
</trkpt>
<trkpt lat="40.072842" lon="-105.230575">
  <ele>1586.09</ele>
  <time>2026-08-28T19:07:24Z</time>
  <course>266.03</course>
  <speed>0.0</speed>
  <fix>3d</fix>
</trkpt>
<trkpt lat="40.072842" lon="-105.230575">
  <ele>1586.09</ele>
  <time>2026-08-28T19:07:24Z</time>
  <course>12.1</course>
  <speed>0.01</speed>
  <fix>3d</fix>
</trkpt>
<trkpt lat="40.072842" lon="-105.230575">
  <ele>1586.09</ele>
  <time>2026-08-28T19:07:24Z</time>
  <course>266.03</course>
  <speed>0.0</speed>
  <fix>3d</fix>
</trkpt>
<trkpt lat="40.072842" lon="-105.230575">
  <ele>1586.09</ele>
  <time>2026-08-28T19:07:24Z</time>
  <course>12.09</course>
  <speed>0.01</speed>
  <fix>3d</fix>
</trkpt>
<trkpt lat="40.072842" lon="-105.230575">
  <ele>1586.09</ele>
  <time>2026-08-28T19:07:24Z</time>
  <course>266.03</course>
  <speed>0.0</speed>
  <fix>3d</fix>
</trkpt>
<trkpt lat="40.072842" lon="-105.230575">
  <ele>1586.09</ele>
  <time>2026-08-28T19:07:24Z</time>
  <course>12.09</course>
  <speed>0.01</speed>
  <fix>3d</fix>
</trkpt>
<trkpt lat="40.072842" lon="-105.230575">
  <ele>1586.09</ele>
  <time>2026-08-28T19:07:24Z</time>
  <course>266.03</course>
  <speed>0.0</speed>
  <fix>3d</fix>
</trkpt>
<trkpt lat="40.072842" lon="-105.230575">
  <ele>1586.09</ele>
  <time>2026-08-28T19:07:24Z</time>
  <course>12.08</course>
  <speed>0.01</speed>
  <fix>3d</fix>
</trkpt>
<trkpt lat="40.072842" lon="-105.230575">
  <ele>1586.09</ele>
  <time>2026-08-28T19:07:24Z</time>
  <course>266.03</course>
  <speed>0.0</speed>
  <fix>3d</fix>
</trkpt>
<trkpt lat="40.072842" lon="-105.230575">
  <ele>1586.09</ele>
  <time>2026-08-28T19:07:24Z</time>
  <course>12.08</course>
  <speed>0.01414213562373095</speed>
  <fix>3d</fix>
</trkpt>
<trkpt lat="40.072842" lon="-105.230575">
  <ele>1586.09</ele>
  <time>2026-08-28T19:07:24Z</time>
  <course>266.03</course>
  <speed>0.0</speed>
  <fix>3d</fix>
</trkpt>
<trkpt lat="40.072842" lon="-105.230575">
  <ele>1586.09</ele>
  <time>2026-08-28T19:07:24Z</time>
  <course>12.07</course>
  <speed>0.01414213562373095</speed>
  <fix>3d</fix>
</trkpt>
<trkpt lat="40.072842" lon="-105.230575">
  <ele>1586.09</ele>
  <time>2026-08-28T19:07:24Z</time>
  <course>266.03</course>
  <speed>0.0</speed>
  <fix>3d</fix>
</trkpt>
<trkpt lat="40.072842" lon="-105.230575">
  <ele>1586.09</ele>
  <time>2026-08-28T19:07:24Z</time>
  <course>12.06</course>
  <speed>0.01414213562373095</speed>
  <fix>3d</fix>
</trkpt>
<trkpt lat="40.072842" lon="-105.230575">
  <ele>1586.09</ele>
  <time>2026-08-28T19:07:24Z</time>
  <course>266.03</course>
  <speed>0.0</speed>
  <fix>3d</fix>
</trkpt>
<trkpt lat="40.072842" lon="-105.230575">
  <ele>1586.09</ele>
  <time>2026-08-28T19:07:24Z</time>
  <course>12.05</course>
  <speed>0.01414213562373095</speed>
  <fix>3d</fix>
</trkpt>
<trkpt lat="40.072842" lon="-105.230575">
  <ele>1586.09</ele>
  <time>2026-08-28T19:07:24Z</time>
  <course>266.03</course>
  <speed>0.0</speed>
  <fix>3d</fix>
</trkpt>
<trkpt lat="40.072842" lon="-105.230575">
  <ele>1586.09</ele>
  <time>2026-08-28T19:07:24Z</time>
  <course>12.05</course>
  <speed>0.01414213562373095</speed>
  <fix>3d</fix>
</trkpt>
<trkpt lat="40.072842" lon="-105.230575">
  <ele>1586.09</ele>
  <time>2026-08-28T19:07:24Z</time>
  <course>266.03</course>
  <speed>0.0</speed>
  <fix>3d</fix>
</trkpt>
<trkpt lat="40.072842" lon="-105.230575">
  <ele>1586.09</ele>
  <time>2026-08-28T19:07:24Z</time>
  <course>12.04</course>
  <speed>0.01414213562373095</speed>
  <fix>3d</fix>
</trkpt>
<trkpt lat="40.072842" lon="-105.230575">
  <ele>1586.09</ele>
  <time>2026-08-28T19:07:24Z</time>
  <course>266.03</course>
  <speed>0.0</speed>
  <fix>3d</fix>
</trkpt>
<trkpt lat="40.072842" lon="-105.230575">
  <ele>1586.09</ele>
  <time>2026-08-28T19:07:24Z</time>
  <course>12.03</course>
  <speed>0.01414213562373095</speed>
  <fix>3d</fix>
</trkpt>
<trkpt lat="40.072842" lon="-105.230575">
  <ele>1586.09</ele>
  <time>2026-08-28T19:07:24Z</time>
  <course>266.03</course>
  <speed>0.0</speed>
  <fix>3d</fix>
</trkpt>
<trkpt lat="40.072842" lon="-105.230575">
  <ele>1586.09</ele>
  <time>2026-08-28T19:07:24Z</time>
  <course>12.03</course>
  <speed>0.01414213562373095</speed>
  <fix>3d</fix>
</trkpt>
<trkpt lat="40.072842" lon="-105.230575">
  <ele>1586.09</ele>
  <time>2026-08-28T19:07:24Z</time>
  <course>266.03</course>
  <speed>0.0</speed>
  <fix>3d</fix>
</trkpt>
<trkpt lat="40.072842" lon="-105.230575">
  <ele>1586.09</ele>
  <time>2026-08-28T19:07:24Z</time>
  <course>12.02</course>
  <speed>0.01414213562373095</speed>
  <fix>3d</fix>
</trkpt>
<trkpt lat="40.072842" lon="-105.230575">
  <ele>1586.09</ele>
  <time>2026-08-28T19:07:24Z</time>
  <course>266.03</course>
  <speed>0.0</speed>
  <fix>3d</fix>
</trkpt>
<trkpt lat="40.072842" lon="-105.230575">
  <ele>1586.09</ele>
  <time>2026-08-28T19:07:24Z</time>
  <course>12.01</course>
  <speed>0.01414213562373095</speed>
  <fix>3d</fix>
</trkpt>
<trkpt lat="40.072842" lon="-105.230575">
  <ele>1586.09</ele>
  <time>2026-08-28T19:07:24Z</time>
  <course>266.03</course>
  <speed>0.0</speed>
  <fix>3d</fix>
</trkpt>
<trkpt lat="40.072842" lon="-105.230575">
  <ele>1586.09</ele>
  <time>2026-08-28T19:07:24Z</time>
  <course>12.01</course>
  <speed>0.01414213562373095</speed>
  <fix>3d</fix>
</trkpt>
<trkpt lat="40.072842" lon="-105.230575">
  <ele>1586.09</ele>
  <time>2026-08-28T19:07:24Z</time>
  <course>266.03</course>
  <speed>0.0</speed>
  <fix>3d</fix>
</trkpt>
<trkpt lat="40.072842" lon="-105.230575">
  <ele>1586.09</ele>
  <time>2026-08-28T19:07:24Z</time>
  <course>12.0</course>
  <speed>0.01414213562373095</speed>
  <fix>3d</fix>
</trkpt>
<trkpt lat="40.072842" lon="-105.230575">
  <ele>1586.09</ele>
  <time>2026-08-28T19:07:24Z</time>
  <course>266.03</course>
  <speed>0.0</speed>
  <fix>3d</fix>
</trkpt>
<trkpt lat="40.072842" lon="-105.230575">
  <ele>1586.09</ele>
  <time>2026-08-28T19:07:24Z</time>
  <course>11.99</course>
  <speed>0.01414213562373095</speed>
  <fix>3d</fix>
</trkpt>
<trkpt lat="40.072842" lon="-105.230575">
  <ele>1586.09</ele>
  <time>2026-08-28T19:07:24Z</time>
  <course>266.03</course>
  <speed>0.0</speed>
  <fix>3d</fix>
</trkpt>
<trkpt lat="40.072842" lon="-105.230575">
  <ele>1586.09</ele>
  <time>2026-08-28T19:07:24Z</time>
  <course>11.98</course>
  <speed>0.01414213562373095</speed>
  <fix>3d</fix>
</trkpt>
<trkpt lat="40.072842" lon="-105.230575">
  <ele>1586.09</ele>
  <time>2026-08-28T19:07:24Z</time>
  <course>266.03</course>
  <speed>0.0</speed>
  <fix>3d</fix>
</trkpt>
<trkpt lat="40.072842" lon="-105.230575">
  <ele>1586.09</ele>
  <time>2026-08-28T19:07:24Z</time>
  <course>11.98</course>
  <speed>0.01414213562373095</speed>
  <fix>3d</fix>
</trkpt>
<trkpt lat="40.072842" lon="-105.230575">
  <ele>1586.09</ele>
  <time>2026-08-28T19:07:24Z</time>
  <course>266.03</course>
  <speed>0.0</speed>
  <fix>3d</fix>
</trkpt>
<trkpt lat="40.072842" lon="-105.230575">
  <ele>1586.09</ele>
  <time>2026-08-28T19:07:24Z</time>
  <course>11.97</course>
  <speed>0.022360679774997897</speed>
  <fix>3d</fix>
</trkpt>
<trkpt lat="40.072842" lon="-105.230575">
  <ele>1586.09</ele>
  <time>2026-08-28T19:07:24Z</time>
  <course>266.03</course>
  <speed>0.0</speed>
  <fix>3d</fix>
</trkpt>
<trkpt lat="40.072842" lon="-105.230575">
  <ele>1586.09</ele>
  <time>2026-08-28T19:07:24Z</time>
  <course>11.96</course>
  <speed>0.022360679774997897</speed>
  <fix>3d</fix>
</trkpt>
<trkpt lat="40.072842" lon="-105.230575">
  <ele>1586.09</ele>
  <time>2026-08-28T19:07:24Z</time>
  <course>266.03</course>
  <speed>0.0</speed>
  <fix>3d</fix>
</trkpt>
<trkpt lat="40.072842" lon="-105.230575">
  <ele>1586.09</ele>
  <time>2026-08-28T19:07:24Z</time>
  <course>11.95</course>
  <speed>0.022360679774997897</speed>
  <fix>3d</fix>
</trkpt>
<trkpt lat="40.072842" lon="-105.230575">
  <ele>1586.09</ele>
  <time>2026-08-28T19:07:24Z</time>
  <course>266.03</course>
  <speed>0.0</speed>
  <fix>3d</fix>
</trkpt>
<trkpt lat="40.072842" lon="-105.230575">
  <ele>1586.09</ele>
  <time>2026-08-28T19:07:24Z</time>
  <course>11.94</course>
  <speed>0.022360679774997897</speed>
  <fix>3d</fix>
</trkpt>
<trkpt lat="40.072842" lon="-105.230575">
  <ele>1586.09</ele>
  <time>2026-08-28T19:07:24Z</time>
  <course>266.03</course>
  <speed>0.0</speed>
  <fix>3d</fix>
</trkpt>
<trkpt lat="40.072842" lon="-105.230575">
  <ele>1586.09</ele>
  <time>2026-08-28T19:07:24Z</time>
  <course>11.93</course>
  <speed>0.022360679774997897</speed>
  <fix>3d</fix>
</trkpt>
<trkpt lat="40.072842" lon="-105.230575">
  <ele>1586.09</ele>
  <time>2026-08-28T19:07:24Z</time>
  <course>266.03</course>
  <speed>0.0</speed>
  <fix>3d</fix>
</trkpt>
<trkpt lat="40.072842" lon="-105.230575">
  <ele>1586.09</ele>
  <time>2026-08-28T19:07:24Z</time>
  <course>11.92</course>
  <speed>0.022360679774997897</speed>
  <fix>3d</fix>
</trkpt>
<trkpt lat="40.072842" lon="-105.230575">
  <ele>1586.09</ele>
  <time>2026-08-28T19:07:24Z</time>
  <course>266.03</course>
  <speed>0.0</speed>
  <fix>3d</fix>
</trkpt>
<trkpt lat="40.072842" lon="-105.230575">
  <ele>1586.09</ele>
  <time>2026-08-28T19:07:24Z</time>
  <course>11.92</course>
  <speed>0.022360679774997897</speed>
  <fix>3d</fix>
</trkpt>
<trkpt lat="40.072842" lon="-105.230575">
  <ele>1586.09</ele>
  <time>2026-08-28T19:07:24Z</time>
  <course>266.03</course>
  <speed>0.0</speed>
  <fix>3d</fix>
</trkpt>
<trkpt lat="40.072842" lon="-105.230575">
  <ele>1586.09</ele>
  <time>2026-08-28T19:07:24Z</time>
  <course>11.91</course>
  <speed>0.022360679774997897</speed>
  <fix>3d</fix>
</trkpt>
<trkpt lat="40.072842" lon="-105.230575">
  <ele>1586.09</ele>
  <time>2026-08-28T19:07:24Z</time>
  <course>266.03</course>
  <speed>0.0</speed>
  <fix>3d</fix>
</trkpt>
<trkpt lat="40.072842" lon="-105.230575">
  <ele>1586.09</ele>
  <time>2026-08-28T19:07:24Z</time>
  <course>11.9</course>
  <speed>0.022360679774997897</speed>
  <fix>3d</fix>
</trkpt>
<trkpt lat="40.072842" lon="-105.230575">
  <ele>1586.09</ele>
  <time>2026-08-28T19:07:24Z</time>
  <course>266.03</course>
  <speed>0.0</speed>
  <fix>3d</fix>
</trkpt>
<trkpt lat="40.072842" lon="-105.230575">
  <ele>1586.09</ele>
  <time>2026-08-28T19:07:24Z</time>
  <course>11.89</course>
  <speed>0.022360679774997897</speed>
  <fix>3d</fix>
</trkpt>
<trkpt lat="40.072842" lon="-105.230575">
  <ele>1586.09</ele>
  <time>2026-08-28T19:07:24Z</time>
  <course>266.03</course>
  <speed>0.0</speed>
  <fix>3d</fix>
</trkpt>
<trkpt lat="40.072842" lon="-105.230575">
  <ele>1586.09</ele>
  <time>2026-08-28T19:07:24Z</time>
  <course>11.88</course>
  <speed>0.022360679774997897</speed>
  <fix>3d</fix>
</trkpt>
<trkpt lat="40.072842" lon="-105.230575">
  <ele>1586.09</ele>
  <time>2026-08-28T19:07:24Z</time>
  <course>266.03</course>
  <speed>0.0</speed>
  <fix>3d</fix>
</trkpt>
<trkpt lat="40.072842" lon="-105.230575">
  <ele>1586.09</ele>
  <time>2026-08-28T19:07:24Z</time>
  <course>11.88</course>
  <speed>0.022360679774997897</speed>
  <fix>3d</fix>
</trkpt>
<trkpt lat="40.072842" lon="-105.230575">
  <ele>1586.09</ele>
  <time>2026-08-28T19:07:24Z</time>
  <course>266.03</course>
  <speed>0.0</speed>
  <fix>3d</fix>
</trkpt>
<trkpt lat="40.072842" lon="-105.230575">
  <ele>1586.09</ele>
  <time>2026-08-28T19:07:24Z</time>
  <course>11.87</course>
  <speed>0.022360679774997897</speed>
  <fix>3d</fix>
</trkpt>
<trkpt lat="40.072842" lon="-105.230575">
  <ele>1586.09</ele>
  <time>2026-08-28T19:07:24Z</time>
  <course>266.03</course>
  <speed>0.0</speed>
  <fix>3d</fix>
</trkpt>
<trkpt lat="40.072842" lon="-105.230575">
  <ele>1586.09</ele>
  <time>2026-08-28T19:07:24Z</time>
  <course>11.86</course>
  <speed>0.022360679774997897</speed>
  <fix>3d</fix>
</trkpt>
<trkpt lat="40.072842" lon="-105.230575">
  <ele>1586.09</ele>
  <time>2026-08-28T19:07:24Z</time>
  <course>266.03</course>
  <speed>0.0</speed>
  <fix>3d</fix>
</trkpt>
<trkpt lat="40.072842" lon="-105.230575">
  <ele>1586.09</ele>
  <time>2026-08-28T19:07:24Z</time>
  <course>11.85</course>
  <speed>0.022360679774997897</speed>
  <fix>3d</fix>
</trkpt>
<trkpt lat="40.072842" lon="-105.230575">
  <ele>1586.09</ele>
  <time>2026-08-28T19:07:24Z</time>
  <course>266.03</course>
  <speed>0.0</speed>
  <fix>3d</fix>
</trkpt>
<trkpt lat="40.072842" lon="-105.230575">
  <ele>1586.09</ele>
  <time>2026-08-28T19:07:24Z</time>
  <course>11.84</course>
  <speed>0.0282842712474619</speed>
  <fix>3d</fix>
</trkpt>
<trkpt lat="40.072842" lon="-105.230575">
  <ele>1586.09</ele>
  <time>2026-08-28T19:07:24Z</time>
  <course>266.03</course>
  <speed>0.0</speed>
  <fix>3d</fix>
</trkpt>
<trkpt lat="40.072842" lon="-105.230575">
  <ele>1586.09</ele>
  <time>2026-08-28T19:07:24Z</time>
  <course>11.83</course>
  <speed>0.0282842712474619</speed>
  <fix>3d</fix>
</trkpt>
<trkpt lat="40.072842" lon="-105.230575">
  <ele>1586.09</ele>
  <time>2026-08-28T19:07:24Z</time>
  <course>266.03</course>
  <speed>0.0</speed>
  <fix>3d</fix>
</trkpt>
<trkpt lat="40.072842" lon="-105.230575">
  <ele>1586.09</ele>
  <time>2026-08-28T19:07:24Z</time>
  <course>11.83</course>
  <speed>0.0282842712474619</speed>
  <fix>3d</fix>
</trkpt>
<trkpt lat="40.072842" lon="-105.230575">
  <ele>1586.09</ele>
  <time>2026-08-28T19:07:24Z</time>
  <course>266.03</course>
  <speed>0.0</speed>
  <fix>3d</fix>
</trkpt>
<trkpt lat="40.072842" lon="-105.230575">
  <ele>1586.09</ele>
  <time>2026-08-28T19:07:24Z</time>
  <course>11.82</course>
  <speed>0.0282842712474619</speed>
  <fix>3d</fix>
</trkpt>
<trkpt lat="40.072842" lon="-105.230575">
  <ele>1586.09</ele>
  <time>2026-08-28T19:07:24Z</time>
  <course>266.03</course>
  <speed>0.0</speed>
  <fix>3d</fix>
</trkpt>
<trkpt lat="40.072842" lon="-105.230575">
  <ele>1586.09</ele>
  <time>2026-08-28T19:07:24Z</time>
  <course>11.81</course>
  <speed>0.0282842712474619</speed>
  <fix>3d</fix>
</trkpt>
<trkpt lat="40.072842" lon="-105.230575">
  <ele>1586.09</ele>
  <time>2026-08-28T19:07:24Z</time>
  <course>266.03</course>
  <speed>0.0</speed>
  <fix>3d</fix>
</trkpt>
<trkpt lat="40.072842" lon="-105.230575">
  <ele>1586.09</ele>
  <time>2026-08-28T19:07:24Z</time>
  <course>11.8</course>
  <speed>0.0282842712474619</speed>
  <fix>3d</fix>
</trkpt>
<trkpt lat="40.072842" lon="-105.230575">
  <ele>1586.09</ele>
  <time>2026-08-28T19:07:24Z</time>
  <course>266.03</course>
  <speed>0.0</speed>
  <fix>3d</fix>
</trkpt>
<trkpt lat="40.072842" lon="-105.230575">
  <ele>1586.09</ele>
  <time>2026-08-28T19:07:24Z</time>
  <course>11.79</course>
  <speed>0.0282842712474619</speed>
  <fix>3d</fix>
</trkpt>
<trkpt lat="40.072842" lon="-105.230575">
  <ele>1586.09</ele>
  <time>2026-08-28T19:07:24Z</time>
  <course>266.03</course>
  <speed>0.0</speed>
  <fix>3d</fix>
</trkpt>
<trkpt lat="40.072842" lon="-105.230575">
  <ele>1586.09</ele>
  <time>2026-08-28T19:07:24Z</time>
  <course>11.79</course>
  <speed>0.0282842712474619</speed>
  <fix>3d</fix>
</trkpt>
<trkpt lat="40.072842" lon="-105.230575">
  <ele>1586.09</ele>
  <time>2026-08-28T19:07:24Z</time>
  <course>266.03</course>
  <speed>0.0</speed>
  <fix>3d</fix>
</trkpt>
<trkpt lat="40.072842" lon="-105.230575">
  <ele>1586.09</ele>
  <time>2026-08-28T19:07:24Z</time>
  <course>11.78</course>
  <speed>0.0282842712474619</speed>
  <fix>3d</fix>
</trkpt>
<trkpt lat="40.072842" lon="-105.230575">
  <ele>1586.09</ele>
  <time>2026-08-28T19:07:24Z</time>
  <course>266.03</course>
  <speed>0.0</speed>
  <fix>3d</fix>
</trkpt>
<trkpt lat="40.072842" lon="-105.230575">
  <ele>1586.09</ele>
  <time>2026-08-28T19:07:24Z</time>
  <course>11.77</course>
  <speed>0.0282842712474619</speed>
  <fix>3d</fix>
</trkpt>
<trkpt lat="40.072842" lon="-105.230575">
  <ele>1586.09</ele>
  <time>2026-08-28T19:07:24Z</time>
  <course>266.03</course>
  <speed>0.0</speed>
  <fix>3d</fix>
</trkpt>
<trkpt lat="40.072842" lon="-105.230575">
  <ele>1586.09</ele>
  <time>2026-08-28T19:07:24Z</time>
  <course>11.77</course>
  <speed>0.0282842712474619</speed>
  <fix>3d</fix>
</trkpt>
<trkpt lat="40.072842" lon="-105.230575">
  <ele>1586.09</ele>
  <time>2026-08-28T19:07:24Z</time>
  <course>266.03</course>
  <speed>0.0</speed>
  <fix>3d</fix>
</trkpt>
<trkpt lat="40.072842" lon="-105.230575">
  <ele>1586.09</ele>
  <time>2026-08-28T19:07:24Z</time>
  <course>11.76</course>
  <speed>0.0282842712474619</speed>
  <fix>3d</fix>
</trkpt>
<trkpt lat="40.072842" lon="-105.230575">
  <ele>1586.09</ele>
  <time>2026-08-28T19:07:24Z</time>
  <course>266.03</course>
  <speed>0.0</speed>
  <fix>3d</fix>
</trkpt>
<trkpt lat="40.072842" lon="-105.230575">
  <ele>1586.09</ele>
  <time>2026-08-28T19:07:24Z</time>
  <course>11.75</course>
  <speed>0.0282842712474619</speed>
  <fix>3d</fix>
</trkpt>
<trkpt lat="40.072842" lon="-105.230575">
  <ele>1586.09</ele>
  <time>2026-08-28T19:07:24Z</time>
  <course>266.03</course>
  <speed>0.0</speed>
  <fix>3d</fix>
</trkpt>
<trkpt lat="40.072842" lon="-105.230575">
  <ele>1586.09</ele>
  <time>2026-08-28T19:07:24Z</time>
  <course>11.74</course>
  <speed>0.03605551275463989</speed>
  <fix>3d</fix>
</trkpt>
<trkpt lat="40.072842" lon="-105.230575">
  <ele>1586.09</ele>
  <time>2026-08-28T19:07:24Z</time>
  <course>266.03</course>
  <speed>0.0</speed>
  <fix>3d</fix>
</trkpt>
<trkpt lat="40.072842" lon="-105.230575">
  <ele>1586.09</ele>
  <time>2026-08-28T19:07:24Z</time>
  <course>11.73</course>
  <speed>0.03605551275463989</speed>
  <fix>3d</fix>
</trkpt>
<trkpt lat="40.072842" lon="-105.230575">
  <ele>1586.09</ele>
  <time>2026-08-28T19:07:24Z</time>
  <course>266.03</course>
  <speed>0.0</speed>
  <fix>3d</fix>
</trkpt>
<trkpt lat="40.072842" lon="-105.230575">
  <ele>1586.09</ele>
  <time>2026-08-28T19:07:24Z</time>
  <course>11.73</course>
  <speed>0.03605551275463989</speed>
  <fix>3d</fix>
</trkpt>
<trkpt lat="40.072842" lon="-105.230575">
  <ele>1586.09</ele>
  <time>2026-08-28T19:07:24Z</time>
  <course>266.03</course>
  <speed>0.0</speed>
  <fix>3d</fix>
</trkpt>
<trkpt lat="40.072842" lon="-105.230575">
  <ele>1586.09</ele>
  <time>2026-08-28T19:07:24Z</time>
  <course>11.72</course>
  <speed>0.03605551275463989</speed>
  <fix>3d</fix>
</trkpt>
<trkpt lat="40.072842" lon="-105.230575">
  <ele>1586.09</ele>
  <time>2026-08-28T19:07:24Z</time>
  <course>266.03</course>
  <speed>0.0</speed>
  <fix>3d</fix>
</trkpt>
<trkpt lat="40.072842" lon="-105.230575">
  <ele>1586.09</ele>
  <time>2026-08-28T19:07:24Z</time>
  <course>11.71</course>
  <speed>0.03605551275463989</speed>
  <fix>3d</fix>
</trkpt>
<trkpt lat="40.072842" lon="-105.230575">
  <ele>1586.09</ele>
  <time>2026-08-28T19:07:24Z</time>
  <course>266.03</course>
  <speed>0.0</speed>
  <fix>3d</fix>
</trkpt>
<trkpt lat="40.072842" lon="-105.230575">
  <ele>1586.09</ele>
  <time>2026-08-28T19:07:24Z</time>
  <course>11.71</course>
  <speed>0.03605551275463989</speed>
  <fix>3d</fix>
</trkpt>
<trkpt lat="40.072842" lon="-105.230575">
  <ele>1586.09</ele>
  <time>2026-08-28T19:07:24Z</time>
  <course>266.03</course>
  <speed>0.0</speed>
  <fix>3d</fix>
</trkpt>
<trkpt lat="40.072842" lon="-105.230575">
  <ele>1586.09</ele>
  <time>2026-08-28T19:07:24Z</time>
  <course>11.7</course>
  <speed>0.03605551275463989</speed>
  <fix>3d</fix>
</trkpt>
<trkpt lat="40.072842" lon="-105.230575">
  <ele>1586.09</ele>
  <time>2026-08-28T19:07:24Z</time>
  <course>266.03</course>
  <speed>0.0</speed>
  <fix>3d</fix>
</trkpt>
<trkpt lat="40.072842" lon="-105.230575">
  <ele>1586.09</ele>
  <time>2026-08-28T19:07:24Z</time>
  <course>11.69</course>
  <speed>0.03605551275463989</speed>
  <fix>3d</fix>
</trkpt>
<trkpt lat="40.072842" lon="-105.230575">
  <ele>1586.09</ele>
  <time>2026-08-28T19:07:24Z</time>
  <course>266.03</course>
  <speed>0.0</speed>
  <fix>3d</fix>
</trkpt>
<trkpt lat="40.072842" lon="-105.230575">
  <ele>1586.09</ele>
  <time>2026-08-28T19:07:24Z</time>
  <course>11.68</course>
  <speed>0.03605551275463989</speed>
  <fix>3d</fix>
</trkpt>
<trkpt lat="40.072842" lon="-105.230575">
  <ele>1586.09</ele>
  <time>2026-08-28T19:07:24Z</time>
  <course>266.03</course>
  <speed>0.0</speed>
  <fix>3d</fix>
</trkpt>
<trkpt lat="40.072842" lon="-105.230575">
  <ele>1586.09</ele>
  <time>2026-08-28T19:07:24Z</time>
  <course>11.68</course>
  <speed>0.03605551275463989</speed>
  <fix>3d</fix>
</trkpt>
<trkpt lat="40.072842" lon="-105.230575">
  <ele>1586.09</ele>
  <time>2026-08-28T19:07:24Z</time>
  <course>266.03</course>
  <speed>0.0</speed>
  <fix>3d</fix>
</trkpt>
<trkpt lat="40.072842" lon="-105.230575">
  <ele>1586.09</ele>
  <time>2026-08-28T19:07:24Z</time>
  <course>11.67</course>
  <speed>0.03605551275463989</speed>
  <fix>3d</fix>
</trkpt>
<trkpt lat="40.072842" lon="-105.230575">
  <ele>1586.09</ele>
  <time>2026-08-28T19:07:24Z</time>
  <course>266.03</course>
  <speed>0.0</speed>
  <fix>3d</fix>
</trkpt>
<trkpt lat="40.072842" lon="-105.230575">
  <ele>1586.09</ele>
  <time>2026-08-28T19:07:24Z</time>
  <course>11.66</course>
  <speed>0.03605551275463989</speed>
  <fix>3d</fix>
</trkpt>
<trkpt lat="40.072842" lon="-105.230575">
  <ele>1586.09</ele>
  <time>2026-08-28T19:07:24Z</time>
  <course>266.03</course>
  <speed>0.0</speed>
  <fix>3d</fix>
</trkpt>
<trkpt lat="40.072842" lon="-105.230575">
  <ele>1586.09</ele>
  <time>2026-08-28T19:07:24Z</time>
  <course>11.65</course>
  <speed>0.03605551275463989</speed>
  <fix>3d</fix>
</trkpt>
<trkpt lat="40.072842" lon="-105.230575">
  <ele>1586.09</ele>
  <time>2026-08-28T19:07:24Z</time>
  <course>266.03</course>
  <speed>0.0</speed>
  <fix>3d</fix>
</trkpt>
<trkpt lat="40.072842" lon="-105.230575">
  <ele>1586.09</ele>
  <time>2026-08-28T19:07:24Z</time>
  <course>11.65</course>
  <speed>0.03605551275463989</speed>
  <fix>3d</fix>
</trkpt>
<trkpt lat="40.072842" lon="-105.230575">
  <ele>1586.09</ele>
  <time>2026-08-28T19:07:24Z</time>
  <course>266.03</course>
  <speed>0.0</speed>
  <fix>3d</fix>
</trkpt>
<trkpt lat="40.072842" lon="-105.230575">
  <ele>1586.09</ele>
  <time>2026-08-28T19:07:25Z</time>
  <course>11.64</course>
  <speed>0.03605551275463989</speed>
  <fix>3d</fix>
</trkpt>
<trkpt lat="40.072842" lon="-105.230575">
  <ele>1586.09</ele>
  <time>2026-08-28T19:07:25Z</time>
  <course>266.03</course>
  <speed>0.0</speed>
  <fix>3d</fix>
</trkpt>
<trkpt lat="40.072842" lon="-105.230575">
  <ele>1586.09</ele>
  <time>2026-08-28T19:07:25Z</time>
  <course>11.63</course>
  <speed>0.03605551275463989</speed>
  <fix>3d</fix>
</trkpt>
<trkpt lat="40.072842" lon="-105.230575">
  <ele>1586.09</ele>
  <time>2026-08-28T19:07:25Z</time>
  <course>266.03</course>
  <speed>0.0</speed>
  <fix>3d</fix>
</trkpt>
<trkpt lat="40.072842" lon="-105.230575">
  <ele>1586.09</ele>
  <time>2026-08-28T19:07:25Z</time>
  <course>11.63</course>
  <speed>0.03605551275463989</speed>
  <fix>3d</fix>
</trkpt>
<trkpt lat="40.072842" lon="-105.230575">
  <ele>1586.09</ele>
  <time>2026-08-28T19:07:25Z</time>
  <course>266.03</course>
  <speed>0.0</speed>
  <fix>3d</fix>
</trkpt>
<trkpt lat="40.072842" lon="-105.230575">
  <ele>1586.09</ele>
  <time>2026-08-28T19:07:25Z</time>
  <course>11.62</course>
  <speed>0.03605551275463989</speed>
  <fix>3d</fix>
</trkpt>
<trkpt lat="40.072842" lon="-105.230575">
  <ele>1586.09</ele>
  <time>2026-08-28T19:07:25Z</time>
  <course>266.03</course>
  <speed>0.0</speed>
  <fix>3d</fix>
</trkpt>
<trkpt lat="40.072842" lon="-105.230575">
  <ele>1586.09</ele>
  <time>2026-08-28T19:07:25Z</time>
  <course>11.61</course>
  <speed>0.03605551275463989</speed>
  <fix>3d</fix>
</trkpt>
<trkpt lat="40.072842" lon="-105.230575">
  <ele>1586.09</ele>
  <time>2026-08-28T19:07:25Z</time>
  <course>266.03</course>
  <speed>0.0</speed>
  <fix>3d</fix>
</trkpt>
<trkpt lat="40.072842" lon="-105.230575">
  <ele>1586.09</ele>
  <time>2026-08-28T19:07:25Z</time>
  <course>11.61</course>
  <speed>0.03605551275463989</speed>
  <fix>3d</fix>
</trkpt>
<trkpt lat="40.072842" lon="-105.230575">
  <ele>1586.09</ele>
  <time>2026-08-28T19:07:25Z</time>
  <course>266.03</course>
  <speed>0.0</speed>
  <fix>3d</fix>
</trkpt>
<trkpt lat="40.072842" lon="-105.230575">
  <ele>1586.09</ele>
  <time>2026-08-28T19:07:25Z</time>
  <course>11.6</course>
  <speed>0.03605551275463989</speed>
  <fix>3d</fix>
</trkpt>
<trkpt lat="40.072842" lon="-105.230575">
  <ele>1586.09</ele>
  <time>2026-08-28T19:07:25Z</time>
  <course>266.03</course>
  <speed>0.0</speed>
  <fix>3d</fix>
</trkpt>
<trkpt lat="40.072842" lon="-105.230575">
  <ele>1586.09</ele>
  <time>2026-08-28T19:07:25Z</time>
  <course>11.6</course>
  <speed>0.03605551275463989</speed>
  <fix>3d</fix>
</trkpt>
<trkpt lat="40.072842" lon="-105.230575">
  <ele>1586.09</ele>
  <time>2026-08-28T19:07:25Z</time>
  <course>266.03</course>
  <speed>0.0</speed>
  <fix>3d</fix>
</trkpt>
<trkpt lat="40.072842" lon="-105.230575">
  <ele>1586.09</ele>
  <time>2026-08-28T19:07:25Z</time>
  <course>11.59</course>
  <speed>0.03605551275463989</speed>
  <fix>3d</fix>
</trkpt>
<trkpt lat="40.072842" lon="-105.230575">
  <ele>1586.09</ele>
  <time>2026-08-28T19:07:25Z</time>
  <course>266.03</course>
  <speed>0.0</speed>
  <fix>3d</fix>
</trkpt>
<trkpt lat="40.072842" lon="-105.230575">
  <ele>1586.09</ele>
  <time>2026-08-28T19:07:25Z</time>
  <course>11.58</course>
  <speed>0.03605551275463989</speed>
  <fix>3d</fix>
</trkpt>
<trkpt lat="40.072842" lon="-105.230575">
  <ele>1586.09</ele>
  <time>2026-08-28T19:07:25Z</time>
  <course>266.03</course>
  <speed>0.0</speed>
  <fix>3d</fix>
</trkpt>
<trkpt lat="40.072842" lon="-105.230575">
  <ele>1586.09</ele>
  <time>2026-08-28T19:07:25Z</time>
  <course>11.58</course>
  <speed>0.03605551275463989</speed>
  <fix>3d</fix>
</trkpt>
<trkpt lat="40.072842" lon="-105.230575">
  <ele>1586.09</ele>
  <time>2026-08-28T19:07:25Z</time>
  <course>266.03</course>
  <speed>0.0</speed>
  <fix>3d</fix>
</trkpt>
<trkpt lat="40.072842" lon="-105.230575">
  <ele>1586.09</ele>
  <time>2026-08-28T19:07:25Z</time>
  <course>11.57</course>
  <speed>0.03605551275463989</speed>
  <fix>3d</fix>
</trkpt>
<trkpt lat="40.072842" lon="-105.230575">
  <ele>1586.09</ele>
  <time>2026-08-28T19:07:25Z</time>
  <course>266.03</course>
  <speed>0.0</speed>
  <fix>3d</fix>
</trkpt>
<trkpt lat="40.072842" lon="-105.230575">
  <ele>1586.09</ele>
  <time>2026-08-28T19:07:25Z</time>
  <course>11.57</course>
  <speed>0.03605551275463989</speed>
  <fix>3d</fix>
</trkpt>
<trkpt lat="40.072842" lon="-105.230575">
  <ele>1586.09</ele>
  <time>2026-08-28T19:07:25Z</time>
  <course>266.03</course>
  <speed>0.0</speed>
  <fix>3d</fix>
</trkpt>
<trkpt lat="40.072842" lon="-105.230575">
  <ele>1586.09</ele>
  <time>2026-08-28T19:07:25Z</time>
  <course>11.56</course>
  <speed>0.03605551275463989</speed>
  <fix>3d</fix>
</trkpt>
<trkpt lat="40.072842" lon="-105.230575">
  <ele>1586.09</ele>
  <time>2026-08-28T19:07:25Z</time>
  <course>266.03</course>
  <speed>0.0</speed>
  <fix>3d</fix>
</trkpt>
<trkpt lat="40.072842" lon="-105.230575">
  <ele>1586.09</ele>
  <time>2026-08-28T19:07:25Z</time>
  <course>11.55</course>
  <speed>0.03605551275463989</speed>
  <fix>3d</fix>
</trkpt>
<trkpt lat="40.072842" lon="-105.230575">
  <ele>1586.09</ele>
  <time>2026-08-28T19:07:25Z</time>
  <course>266.03</course>
  <speed>0.0</speed>
  <fix>3d</fix>
</trkpt>
<trkpt lat="40.072842" lon="-105.230575">
  <ele>1586.09</ele>
  <time>2026-08-28T19:07:25Z</time>
  <course>11.55</course>
  <speed>0.03605551275463989</speed>
  <fix>3d</fix>
</trkpt>
<trkpt lat="40.072842" lon="-105.230575">
  <ele>1586.09</ele>
  <time>2026-08-28T19:07:25Z</time>
  <course>266.03</course>
  <speed>0.0</speed>
  <fix>3d</fix>
</trkpt>
<trkpt lat="40.072842" lon="-105.230575">
  <ele>1586.09</ele>
  <time>2026-08-28T19:07:25Z</time>
  <course>11.54</course>
  <speed>0.03605551275463989</speed>
  <fix>3d</fix>
</trkpt>
<trkpt lat="40.072842" lon="-105.230575">
  <ele>1586.09</ele>
  <time>2026-08-28T19:07:25Z</time>
  <course>266.03</course>
  <speed>0.0</speed>
  <fix>3d</fix>
</trkpt>
<trkpt lat="40.072842" lon="-105.230575">
  <ele>1586.09</ele>
  <time>2026-08-28T19:07:25Z</time>
  <course>11.53</course>
  <speed>0.03605551275463989</speed>
  <fix>3d</fix>
</trkpt>
<trkpt lat="40.072842" lon="-105.230575">
  <ele>1586.09</ele>
  <time>2026-08-28T19:07:25Z</time>
  <course>266.03</course>
  <speed>0.0</speed>
  <fix>3d</fix>
</trkpt>
<trkpt lat="40.072842" lon="-105.230575">
  <ele>1586.09</ele>
  <time>2026-08-28T19:07:25Z</time>
  <course>11.53</course>
  <speed>0.03605551275463989</speed>
  <fix>3d</fix>
</trkpt>
<trkpt lat="40.072842" lon="-105.230575">
  <ele>1586.09</ele>
  <time>2026-08-28T19:07:25Z</time>
  <course>266.03</course>
  <speed>0.0</speed>
  <fix>3d</fix>
</trkpt>
<trkpt lat="40.072842" lon="-105.230575">
  <ele>1586.09</ele>
  <time>2026-08-28T19:07:25Z</time>
  <course>11.52</course>
  <speed>0.03605551275463989</speed>
  <fix>3d</fix>
</trkpt>
<trkpt lat="40.072842" lon="-105.230575">
  <ele>1586.09</ele>
  <time>2026-08-28T19:07:25Z</time>
  <course>266.03</course>
  <speed>0.0</speed>
  <fix>3d</fix>
</trkpt>
<trkpt lat="40.072842" lon="-105.230575">
  <ele>1586.09</ele>
  <time>2026-08-28T19:07:25Z</time>
  <course>11.52</course>
  <speed>0.03605551275463989</speed>
  <fix>3d</fix>
</trkpt>
<trkpt lat="40.072842" lon="-105.230575">
  <ele>1586.09</ele>
  <time>2026-08-28T19:07:25Z</time>
  <course>266.03</course>
  <speed>0.0</speed>
  <fix>3d</fix>
</trkpt>
<trkpt lat="40.072842" lon="-105.230575">
  <ele>1586.09</ele>
  <time>2026-08-28T19:07:25Z</time>
  <course>11.51</course>
  <speed>0.03605551275463989</speed>
  <fix>3d</fix>
</trkpt>
<trkpt lat="40.072842" lon="-105.230575">
  <ele>1586.09</ele>
  <time>2026-08-28T19:07:25Z</time>
  <course>266.03</course>
  <speed>0.0</speed>
  <fix>3d</fix>
</trkpt>
<trkpt lat="40.072842" lon="-105.230575">
  <ele>1586.09</ele>
  <time>2026-08-28T19:07:25Z</time>
  <course>11.51</course>
  <speed>0.044721359549995794</speed>
  <fix>3d</fix>
</trkpt>
<trkpt lat="40.072842" lon="-105.230575">
  <ele>1586.09</ele>
  <time>2026-08-28T19:07:25Z</time>
  <course>266.03</course>
  <speed>0.0</speed>
  <fix>3d</fix>
</trkpt>
<trkpt lat="40.072842" lon="-105.230575">
  <ele>1586.09</ele>
  <time>2026-08-28T19:07:25Z</time>
  <course>11.5</course>
  <speed>0.044721359549995794</speed>
  <fix>3d</fix>
</trkpt>
<trkpt lat="40.072842" lon="-105.230575">
  <ele>1586.09</ele>
  <time>2026-08-28T19:07:25Z</time>
  <course>266.03</course>
  <speed>0.0</speed>
  <fix>3d</fix>
</trkpt>
<trkpt lat="40.072842" lon="-105.230575">
  <ele>1586.09</ele>
  <time>2026-08-28T19:07:25Z</time>
  <course>11.5</course>
  <speed>0.044721359549995794</speed>
  <fix>3d</fix>
</trkpt>
<trkpt lat="40.072842" lon="-105.230575">
  <ele>1586.09</ele>
  <time>2026-08-28T19:07:25Z</time>
  <course>266.03</course>
  <speed>0.0</speed>
  <fix>3d</fix>
</trkpt>
<trkpt lat="40.072842" lon="-105.230575">
  <ele>1586.09</ele>
  <time>2026-08-28T19:07:25Z</time>
  <course>11.49</course>
  <speed>0.044721359549995794</speed>
  <fix>3d</fix>
</trkpt>
<trkpt lat="40.072842" lon="-105.230575">
  <ele>1586.09</ele>
  <time>2026-08-28T19:07:25Z</time>
  <course>266.03</course>
  <speed>0.0</speed>
  <fix>3d</fix>
</trkpt>
<trkpt lat="40.072842" lon="-105.230575">
  <ele>1586.09</ele>
  <time>2026-08-28T19:07:25Z</time>
  <course>11.48</course>
  <speed>0.044721359549995794</speed>
  <fix>3d</fix>
</trkpt>
<trkpt lat="40.072842" lon="-105.230575">
  <ele>1586.09</ele>
  <time>2026-08-28T19:07:25Z</time>
  <course>266.03</course>
  <speed>0.0</speed>
  <fix>3d</fix>
</trkpt>
<trkpt lat="40.072842" lon="-105.230575">
  <ele>1586.09</ele>
  <time>2026-08-28T19:07:25Z</time>
  <course>11.48</course>
  <speed>0.044721359549995794</speed>
  <fix>3d</fix>
</trkpt>
<trkpt lat="40.072842" lon="-105.230575">
  <ele>1586.09</ele>
  <time>2026-08-28T19:07:25Z</time>
  <course>266.03</course>
  <speed>0.0</speed>
  <fix>3d</fix>
</trkpt>
<trkpt lat="40.072842" lon="-105.230575">
  <ele>1586.09</ele>
  <time>2026-08-28T19:07:25Z</time>
  <course>11.47</course>
  <speed>0.044721359549995794</speed>
  <fix>3d</fix>
</trkpt>
<trkpt lat="40.072842" lon="-105.230575">
  <ele>1586.09</ele>
  <time>2026-08-28T19:07:25Z</time>
  <course>266.03</course>
  <speed>0.0</speed>
  <fix>3d</fix>
</trkpt>
<trkpt lat="40.072842" lon="-105.230575">
  <ele>1586.09</ele>
  <time>2026-08-28T19:07:25Z</time>
  <course>11.47</course>
  <speed>0.044721359549995794</speed>
  <fix>3d</fix>
</trkpt>
<trkpt lat="40.072842" lon="-105.230575">
  <ele>1586.09</ele>
  <time>2026-08-28T19:07:25Z</time>
  <course>266.03</course>
  <speed>0.0</speed>
  <fix>3d</fix>
</trkpt>
<trkpt lat="40.072842" lon="-105.230575">
  <ele>1586.09</ele>
  <time>2026-08-28T19:07:25Z</time>
  <course>11.47</course>
  <speed>0.044721359549995794</speed>
  <fix>3d</fix>
</trkpt>
<trkpt lat="40.072842" lon="-105.230575">
  <ele>1586.09</ele>
  <time>2026-08-28T19:07:25Z</time>
  <course>266.03</course>
  <speed>0.0</speed>
  <fix>3d</fix>
</trkpt>
<trkpt lat="40.072842" lon="-105.230575">
  <ele>1586.09</ele>
  <time>2026-08-28T19:07:25Z</time>
  <course>11.46</course>
  <speed>0.044721359549995794</speed>
  <fix>3d</fix>
</trkpt>
<trkpt lat="40.072842" lon="-105.230575">
  <ele>1586.09</ele>
  <time>2026-08-28T19:07:25Z</time>
  <course>266.03</course>
  <speed>0.0</speed>
  <fix>3d</fix>
</trkpt>
<trkpt lat="40.072842" lon="-105.230575">
  <ele>1586.16</ele>
  <time>2026-08-28T19:07:25Z</time>
  <course>11.45</course>
  <speed>0.0</speed>
  <fix>3d</fix>
</trkpt>
<trkpt lat="40.072842" lon="-105.230575">
  <ele>1586.09</ele>
  <time>2026-08-28T19:07:25Z</time>
  <course>297.19</course>
  <speed>0.0</speed>
  <fix>3d</fix>
</trkpt>
<trkpt lat="40.072842" lon="-105.230575">
  <ele>1586.16</ele>
  <time>2026-08-28T19:07:25Z</time>
  <course>11.45</course>
  <speed>0.0</speed>
  <fix>3d</fix>
</trkpt>
<trkpt lat="40.072842" lon="-105.230575">
  <ele>1586.09</ele>
  <time>2026-08-28T19:07:25Z</time>
  <course>269.87</course>
  <speed>0.0</speed>
  <fix>3d</fix>
</trkpt>
<trkpt lat="40.072842" lon="-105.230575">
  <ele>1586.16</ele>
  <time>2026-08-28T19:07:25Z</time>
  <course>11.45</course>
  <speed>0.0</speed>
  <fix>3d</fix>
</trkpt>
<trkpt lat="40.072842" lon="-105.230575">
  <ele>1586.09</ele>
  <time>2026-08-28T19:07:25Z</time>
  <course>241.23</course>
  <speed>0.0</speed>
  <fix>3d</fix>
</trkpt>
<trkpt lat="40.072842" lon="-105.230575">
  <ele>1586.16</ele>
  <time>2026-08-28T19:07:25Z</time>
  <course>11.44</course>
  <speed>0.0</speed>
  <fix>3d</fix>
</trkpt>
<trkpt lat="40.072842" lon="-105.230575">
  <ele>1586.09</ele>
  <time>2026-08-28T19:07:25Z</time>
  <course>93.08</course>
  <speed>0.0</speed>
  <fix>3d</fix>
</trkpt>
<trkpt lat="40.072842" lon="-105.230575">
  <ele>1586.17</ele>
  <time>2026-08-28T19:07:25Z</time>
  <course>11.44</course>
  <speed>0.0</speed>
  <fix>3d</fix>
</trkpt>
<trkpt lat="40.072842" lon="-105.230575">
  <ele>1586.09</ele>
  <time>2026-08-28T19:07:25Z</time>
  <course>317.31</course>
  <speed>0.0</speed>
  <fix>3d</fix>
</trkpt>
<trkpt lat="40.072842" lon="-105.230575">
  <ele>1586.17</ele>
  <time>2026-08-28T19:07:25Z</time>
  <course>11.43</course>
  <speed>0.01</speed>
  <fix>3d</fix>
</trkpt>
<trkpt lat="40.072842" lon="-105.230575">
  <ele>1586.09</ele>
  <time>2026-08-28T19:07:25Z</time>
  <course>265.24</course>
  <speed>0.0</speed>
  <fix>3d</fix>
</trkpt>
<trkpt lat="40.072842" lon="-105.230575">
  <ele>1586.17</ele>
  <time>2026-08-28T19:07:25Z</time>
  <course>11.43</course>
  <speed>0.01</speed>
  <fix>3d</fix>
</trkpt>
<trkpt lat="40.072842" lon="-105.230575">
  <ele>1586.09</ele>
  <time>2026-08-28T19:07:25Z</time>
  <course>261.76</course>
  <speed>0.0</speed>
  <fix>3d</fix>
</trkpt>
<trkpt lat="40.072842" lon="-105.230575">
  <ele>1586.17</ele>
  <time>2026-08-28T19:07:25Z</time>
  <course>11.42</course>
  <speed>0.01</speed>
  <fix>3d</fix>
</trkpt>
<trkpt lat="40.072842" lon="-105.230575">
  <ele>1586.09</ele>
  <time>2026-08-28T19:07:25Z</time>
  <course>266.78</course>
  <speed>0.0</speed>
  <fix>3d</fix>
</trkpt>
<trkpt lat="40.072842" lon="-105.230575">
  <ele>1586.17</ele>
  <time>2026-08-28T19:07:25Z</time>
  <course>11.42</course>
  <speed>0.01414213562373095</speed>
  <fix>3d</fix>
</trkpt>
<trkpt lat="40.072842" lon="-105.230575">
  <ele>1586.09</ele>
  <time>2026-08-28T19:07:25Z</time>
  <course>266.53</course>
  <speed>0.0</speed>
  <fix>3d</fix>
</trkpt>
<trkpt lat="40.072842" lon="-105.230575">
  <ele>1586.17</ele>
  <time>2026-08-28T19:07:25Z</time>
  <course>11.42</course>
  <speed>0.01414213562373095</speed>
  <fix>3d</fix>
</trkpt>
<trkpt lat="40.072842" lon="-105.230575">
  <ele>1586.09</ele>
  <time>2026-08-28T19:07:25Z</time>
  <course>265.88</course>
  <speed>0.0</speed>
  <fix>3d</fix>
</trkpt>
<trkpt lat="40.072842" lon="-105.230575">
  <ele>1586.17</ele>
  <time>2026-08-28T19:07:25Z</time>
  <course>11.41</course>
  <speed>0.01414213562373095</speed>
  <fix>3d</fix>
</trkpt>
<trkpt lat="40.072842" lon="-105.230575">
  <ele>1586.09</ele>
  <time>2026-08-28T19:07:25Z</time>
  <course>201.27</course>
  <speed>0.0</speed>
  <fix>3d</fix>
</trkpt>
<trkpt lat="40.072842" lon="-105.230575">
  <ele>1586.17</ele>
  <time>2026-08-28T19:07:25Z</time>
  <course>11.41</course>
  <speed>0.022360679774997897</speed>
  <fix>3d</fix>
</trkpt>
<trkpt lat="40.072842" lon="-105.230575">
  <ele>1586.09</ele>
  <time>2026-08-28T19:07:25Z</time>
  <course>250.46</course>
  <speed>0.0</speed>
  <fix>3d</fix>
</trkpt>
<trkpt lat="40.072842" lon="-105.230575">
  <ele>1586.17</ele>
  <time>2026-08-28T19:07:25Z</time>
  <course>11.4</course>
  <speed>0.01414213562373095</speed>
  <fix>3d</fix>
</trkpt>
<trkpt lat="40.072842" lon="-105.230575">
  <ele>1586.09</ele>
  <time>2026-08-28T19:07:25Z</time>
  <course>265.71</course>
  <speed>0.0</speed>
  <fix>3d</fix>
</trkpt>
<trkpt lat="40.072842" lon="-105.230575">
  <ele>1586.17</ele>
  <time>2026-08-28T19:07:25Z</time>
  <course>11.4</course>
  <speed>0.01414213562373095</speed>
  <fix>3d</fix>
</trkpt>
<trkpt lat="40.072842" lon="-105.230575">
  <ele>1586.09</ele>
  <time>2026-08-28T19:07:25Z</time>
  <course>261.82</course>
  <speed>0.0</speed>
  <fix>3d</fix>
</trkpt>
<trkpt lat="40.072842" lon="-105.230575">
  <ele>1586.17</ele>
  <time>2026-08-28T19:07:25Z</time>
  <course>11.4</course>
  <speed>0.01414213562373095</speed>
  <fix>3d</fix>
</trkpt>
<trkpt lat="40.072842" lon="-105.230575">
  <ele>1586.09</ele>
  <time>2026-08-28T19:07:25Z</time>
  <course>266.9</course>
  <speed>0.0</speed>
  <fix>3d</fix>
</trkpt>
<trkpt lat="40.072842" lon="-105.230575">
  <ele>1586.17</ele>
  <time>2026-08-28T19:07:25Z</time>
  <course>11.39</course>
  <speed>0.01</speed>
  <fix>3d</fix>
</trkpt>
<trkpt lat="40.072842" lon="-105.230575">
  <ele>1586.09</ele>
  <time>2026-08-28T19:07:25Z</time>
  <course>266.49</course>
  <speed>0.0</speed>
  <fix>3d</fix>
</trkpt>
<trkpt lat="40.072842" lon="-105.230575">
  <ele>1586.17</ele>
  <time>2026-08-28T19:07:25Z</time>
  <course>11.39</course>
  <speed>0.0</speed>
  <fix>3d</fix>
</trkpt>
<trkpt lat="40.072842" lon="-105.230575">
  <ele>1586.09</ele>
  <time>2026-08-28T19:07:25Z</time>
  <course>265.87</course>
  <speed>0.0</speed>
  <fix>3d</fix>
</trkpt>
<trkpt lat="40.072842" lon="-105.230575">
  <ele>1586.17</ele>
  <time>2026-08-28T19:07:25Z</time>
  <course>11.39</course>
  <speed>0.0</speed>
  <fix>3d</fix>
</trkpt>
<trkpt lat="40.072842" lon="-105.230575">
  <ele>1586.09</ele>
  <time>2026-08-28T19:07:25Z</time>
  <course>342.51</course>
  <speed>0.0</speed>
  <fix>3d</fix>
</trkpt>
<trkpt lat="40.072842" lon="-105.230575">
  <ele>1586.17</ele>
  <time>2026-08-28T19:07:25Z</time>
  <course>11.38</course>
  <speed>0.0</speed>
  <fix>3d</fix>
</trkpt>
<trkpt lat="40.072842" lon="-105.230575">
  <ele>1586.09</ele>
  <time>2026-08-28T19:07:25Z</time>
  <course>325.06</course>
  <speed>0.0</speed>
  <fix>3d</fix>
</trkpt>
<trkpt lat="40.072842" lon="-105.230575">
  <ele>1586.17</ele>
  <time>2026-08-28T19:07:25Z</time>
  <course>11.38</course>
  <speed>0.0</speed>
  <fix>3d</fix>
</trkpt>
<trkpt lat="40.072842" lon="-105.230575">
  <ele>1586.09</ele>
  <time>2026-08-28T19:07:25Z</time>
  <course>308.52</course>
  <speed>0.0</speed>
  <fix>3d</fix>
</trkpt>
<trkpt lat="40.072842" lon="-105.230575">
  <ele>1586.17</ele>
  <time>2026-08-28T19:07:25Z</time>
  <course>11.37</course>
  <speed>0.0</speed>
  <fix>3d</fix>
</trkpt>
<trkpt lat="40.072842" lon="-105.230575">
  <ele>1586.09</ele>
  <time>2026-08-28T19:07:25Z</time>
  <course>185.68</course>
  <speed>0.0</speed>
  <fix>3d</fix>
</trkpt>
<trkpt lat="40.072842" lon="-105.230575">
  <ele>1586.17</ele>
  <time>2026-08-28T19:07:25Z</time>
  <course>11.37</course>
  <speed>0.0</speed>
  <fix>3d</fix>
</trkpt>
<trkpt lat="40.072842" lon="-105.230575">
  <ele>1586.09</ele>
  <time>2026-08-28T19:07:25Z</time>
  <course>196.88</course>
  <speed>0.0</speed>
  <fix>3d</fix>
</trkpt>
<trkpt lat="40.072842" lon="-105.230575">
  <ele>1586.17</ele>
  <time>2026-08-28T19:07:25Z</time>
  <course>11.37</course>
  <speed>0.0</speed>
  <fix>3d</fix>
</trkpt>
<trkpt lat="40.072842" lon="-105.230575">
  <ele>1586.09</ele>
  <time>2026-08-28T19:07:25Z</time>
  <course>299.71</course>
  <speed>0.0</speed>
  <fix>3d</fix>
</trkpt>
<trkpt lat="40.072842" lon="-105.230575">
  <ele>1586.17</ele>
  <time>2026-08-28T19:07:25Z</time>
  <course>11.36</course>
  <speed>0.0</speed>
  <fix>3d</fix>
</trkpt>
<trkpt lat="40.072842" lon="-105.230575">
  <ele>1586.09</ele>
  <time>2026-08-28T19:07:25Z</time>
  <course>285.75</course>
  <speed>0.0</speed>
  <fix>3d</fix>
</trkpt>
<trkpt lat="40.072842" lon="-105.230575">
  <ele>1586.17</ele>
  <time>2026-08-28T19:07:25Z</time>
  <course>11.36</course>
  <speed>0.0</speed>
  <fix>3d</fix>
</trkpt>
<trkpt lat="40.072842" lon="-105.230575">
  <ele>1586.09</ele>
  <time>2026-08-28T19:07:25Z</time>
  <course>279.67</course>
  <speed>0.0</speed>
  <fix>3d</fix>
</trkpt>
<trkpt lat="40.072842" lon="-105.230575">
  <ele>1586.17</ele>
  <time>2026-08-28T19:07:25Z</time>
  <course>11.35</course>
  <speed>0.0</speed>
  <fix>3d</fix>
</trkpt>
<trkpt lat="40.072842" lon="-105.230575">
  <ele>1586.09</ele>
  <time>2026-08-28T19:07:25Z</time>
  <course>269.38</course>
  <speed>0.0</speed>
  <fix>3d</fix>
</trkpt>
<trkpt lat="40.072842" lon="-105.230575">
  <ele>1586.17</ele>
  <time>2026-08-28T19:07:25Z</time>
  <course>11.34</course>
  <speed>0.0</speed>
  <fix>3d</fix>
</trkpt>
<trkpt lat="40.072842" lon="-105.230575">
  <ele>1586.09</ele>
  <time>2026-08-28T19:07:25Z</time>
  <course>218.19</course>
  <speed>0.0</speed>
  <fix>3d</fix>
</trkpt>
<trkpt lat="40.072842" lon="-105.230575">
  <ele>1586.16</ele>
  <time>2026-08-28T19:07:25Z</time>
  <course>11.33</course>
  <speed>0.0</speed>
  <fix>3d</fix>
</trkpt>
<trkpt lat="40.072842" lon="-105.230575">
  <ele>1586.09</ele>
  <time>2026-08-28T19:07:25Z</time>
  <course>358.75</course>
  <speed>0.0</speed>
  <fix>3d</fix>
</trkpt>
<trkpt lat="40.072842" lon="-105.230575">
  <ele>1586.16</ele>
  <time>2026-08-28T19:07:25Z</time>
  <course>11.32</course>
  <speed>0.0</speed>
  <fix>3d</fix>
</trkpt>
<trkpt lat="40.072842" lon="-105.230575">
  <ele>1586.09</ele>
  <time>2026-08-28T19:07:25Z</time>
  <course>326.59</course>
  <speed>0.0</speed>
  <fix>3d</fix>
</trkpt>
<trkpt lat="40.072842" lon="-105.230575">
  <ele>1586.16</ele>
  <time>2026-08-28T19:07:25Z</time>
  <course>11.31</course>
  <speed>0.0</speed>
  <fix>3d</fix>
</trkpt>
<trkpt lat="40.072842" lon="-105.230575">
  <ele>1586.09</ele>
  <time>2026-08-28T19:07:25Z</time>
  <course>289.99</course>
  <speed>0.0</speed>
  <fix>3d</fix>
</trkpt>
<trkpt lat="40.072842" lon="-105.230575">
  <ele>1586.16</ele>
  <time>2026-08-28T19:07:25Z</time>
  <course>11.3</course>
  <speed>0.0</speed>
  <fix>3d</fix>
</trkpt>
<trkpt lat="40.072842" lon="-105.230575">
  <ele>1586.09</ele>
  <time>2026-08-28T19:07:25Z</time>
  <course>255.64</course>
  <speed>0.0</speed>
  <fix>3d</fix>
</trkpt>
<trkpt lat="40.072842" lon="-105.230575">
  <ele>1586.16</ele>
  <time>2026-08-28T19:07:25Z</time>
  <course>11.28</course>
  <speed>0.0</speed>
  <fix>3d</fix>
</trkpt>
<trkpt lat="40.072842" lon="-105.230575">
  <ele>1586.09</ele>
  <time>2026-08-28T19:07:25Z</time>
  <course>260.98</course>
  <speed>0.0</speed>
  <fix>3d</fix>
</trkpt>
<trkpt lat="40.072842" lon="-105.230575">
  <ele>1586.16</ele>
  <time>2026-08-28T19:07:25Z</time>
  <course>11.26</course>
  <speed>0.0</speed>
  <fix>3d</fix>
</trkpt>
<trkpt lat="40.072842" lon="-105.230575">
  <ele>1586.09</ele>
  <time>2026-08-28T19:07:25Z</time>
  <course>202.57</course>
  <speed>0.0</speed>
  <fix>3d</fix>
</trkpt>
<trkpt lat="40.072842" lon="-105.230575">
  <ele>1586.16</ele>
  <time>2026-08-28T19:07:25Z</time>
  <course>11.24</course>
  <speed>0.0</speed>
  <fix>3d</fix>
</trkpt>
<trkpt lat="40.072842" lon="-105.230575">
  <ele>1586.09</ele>
  <time>2026-08-28T19:07:25Z</time>
  <course>284.26</course>
  <speed>0.0</speed>
  <fix>3d</fix>
</trkpt>
<trkpt lat="40.072842" lon="-105.230575">
  <ele>1586.16</ele>
  <time>2026-08-28T19:07:25Z</time>
  <course>11.22</course>
  <speed>0.0</speed>
  <fix>3d</fix>
</trkpt>
<trkpt lat="40.072842" lon="-105.230575">
  <ele>1586.09</ele>
  <time>2026-08-28T19:07:25Z</time>
  <course>308.22</course>
  <speed>0.0</speed>
  <fix>3d</fix>
</trkpt>
<trkpt lat="40.072842" lon="-105.230575">
  <ele>1586.16</ele>
  <time>2026-08-28T19:07:25Z</time>
  <course>11.2</course>
  <speed>0.0</speed>
  <fix>3d</fix>
</trkpt>
<trkpt lat="40.072842" lon="-105.230575">
  <ele>1586.09</ele>
  <time>2026-08-28T19:07:25Z</time>
  <course>292.35</course>
  <speed>0.0</speed>
  <fix>3d</fix>
</trkpt>
<trkpt lat="40.072842" lon="-105.230575">
  <ele>1586.16</ele>
  <time>2026-08-28T19:07:25Z</time>
  <course>11.18</course>
  <speed>0.0</speed>
  <fix>3d</fix>
</trkpt>
<trkpt lat="40.072842" lon="-105.230575">
  <ele>1586.09</ele>
  <time>2026-08-28T19:07:25Z</time>
  <course>259.19</course>
  <speed>0.0</speed>
  <fix>3d</fix>
</trkpt>
<trkpt lat="40.072842" lon="-105.230575">
  <ele>1586.16</ele>
  <time>2026-08-28T19:07:25Z</time>
  <course>11.15</course>
  <speed>0.0</speed>
  <fix>3d</fix>
</trkpt>
<trkpt lat="40.072842" lon="-105.230575">
  <ele>1586.09</ele>
  <time>2026-08-28T19:07:25Z</time>
  <course>259.2</course>
  <speed>0.0</speed>
  <fix>3d</fix>
</trkpt>
<trkpt lat="40.072842" lon="-105.230575">
  <ele>1586.16</ele>
  <time>2026-08-28T19:07:25Z</time>
  <course>11.13</course>
  <speed>0.01</speed>
  <fix>3d</fix>
</trkpt>
<trkpt lat="40.072842" lon="-105.230575">
  <ele>1586.09</ele>
  <time>2026-08-28T19:07:25Z</time>
  <course>276.82</course>
  <speed>0.0</speed>
  <fix>3d</fix>
</trkpt>
<trkpt lat="40.072842" lon="-105.230575">
  <ele>1586.16</ele>
  <time>2026-08-28T19:07:25Z</time>
  <course>11.1</course>
  <speed>0.01</speed>
  <fix>3d</fix>
</trkpt>
<trkpt lat="40.072842" lon="-105.230575">
  <ele>1586.09</ele>
  <time>2026-08-28T19:07:25Z</time>
  <course>285.19</course>
  <speed>0.0</speed>
  <fix>3d</fix>
</trkpt>
<trkpt lat="40.072842" lon="-105.230575">
  <ele>1586.16</ele>
  <time>2026-08-28T19:07:25Z</time>
  <course>11.07</course>
  <speed>0.01</speed>
  <fix>3d</fix>
</trkpt>
<trkpt lat="40.072842" lon="-105.230575">
  <ele>1586.09</ele>
  <time>2026-08-28T19:07:25Z</time>
  <course>273.05</course>
  <speed>0.0</speed>
  <fix>3d</fix>
</trkpt>
<trkpt lat="40.072842" lon="-105.230575">
  <ele>1586.16</ele>
  <time>2026-08-28T19:07:25Z</time>
  <course>11.04</course>
  <speed>0.01</speed>
  <fix>3d</fix>
</trkpt>
<trkpt lat="40.072842" lon="-105.230575">
  <ele>1586.09</ele>
  <time>2026-08-28T19:07:25Z</time>
  <course>258.45</course>
  <speed>0.0</speed>
  <fix>3d</fix>
</trkpt>
<trkpt lat="40.072842" lon="-105.230575">
  <ele>1586.16</ele>
  <time>2026-08-28T19:07:25Z</time>
  <course>11.01</course>
  <speed>0.01</speed>
  <fix>3d</fix>
</trkpt>
<trkpt lat="40.072842" lon="-105.230575">
  <ele>1586.09</ele>
  <time>2026-08-28T19:07:25Z</time>
  <course>246.31</course>
  <speed>0.0</speed>
  <fix>3d</fix>
</trkpt>
<trkpt lat="40.072842" lon="-105.230575">
  <ele>1586.16</ele>
  <time>2026-08-28T19:07:25Z</time>
  <course>10.98</course>
  <speed>0.01</speed>
  <fix>3d</fix>
</trkpt>
<trkpt lat="40.072842" lon="-105.230575">
  <ele>1586.09</ele>
  <time>2026-08-28T19:07:25Z</time>
  <course>297.43</course>
  <speed>0.0</speed>
  <fix>3d</fix>
</trkpt>
<trkpt lat="40.072842" lon="-105.230575">
  <ele>1586.16</ele>
  <time>2026-08-28T19:07:25Z</time>
  <course>10.95</course>
  <speed>0.01414213562373095</speed>
  <fix>3d</fix>
</trkpt>
<trkpt lat="40.072842" lon="-105.230575">
  <ele>1586.09</ele>
  <time>2026-08-28T19:07:25Z</time>
  <course>277.53</course>
  <speed>0.0</speed>
  <fix>3d</fix>
</trkpt>
<trkpt lat="40.072842" lon="-105.230575">
  <ele>1586.16</ele>
  <time>2026-08-28T19:07:25Z</time>
  <course>10.91</course>
  <speed>0.01414213562373095</speed>
  <fix>3d</fix>
</trkpt>
<trkpt lat="40.072842" lon="-105.230575">
  <ele>1586.09</ele>
  <time>2026-08-28T19:07:25Z</time>
  <course>285.54</course>
  <speed>0.0</speed>
  <fix>3d</fix>
</trkpt>
<trkpt lat="40.072842" lon="-105.230575">
  <ele>1586.16</ele>
  <time>2026-08-28T19:07:25Z</time>
  <course>10.88</course>
  <speed>0.01414213562373095</speed>
  <fix>3d</fix>
</trkpt>
<trkpt lat="40.072842" lon="-105.230575">
  <ele>1586.09</ele>
  <time>2026-08-28T19:07:25Z</time>
  <course>294.79</course>
  <speed>0.0</speed>
  <fix>3d</fix>
</trkpt>
<trkpt lat="40.072842" lon="-105.230575">
  <ele>1586.17</ele>
  <time>2026-08-28T19:07:25Z</time>
  <course>10.84</course>
  <speed>0.01414213562373095</speed>
  <fix>3d</fix>
</trkpt>
<trkpt lat="40.072842" lon="-105.230575">
  <ele>1586.09</ele>
  <time>2026-08-28T19:07:25Z</time>
  <course>270.44</course>
  <speed>0.0</speed>
  <fix>3d</fix>
</trkpt>
<trkpt lat="40.072842" lon="-105.230575">
  <ele>1586.17</ele>
  <time>2026-08-28T19:07:25Z</time>
  <course>10.8</course>
  <speed>0.01414213562373095</speed>
  <fix>3d</fix>
</trkpt>
<trkpt lat="40.072842" lon="-105.230575">
  <ele>1586.09</ele>
  <time>2026-08-28T19:07:25Z</time>
  <course>268.23</course>
  <speed>0.0</speed>
  <fix>3d</fix>
</trkpt>
<trkpt lat="40.0728419" lon="-105.230575">
  <ele>1586.17</ele>
  <time>2026-08-28T19:07:25Z</time>
  <course>10.76</course>
  <speed>0.01414213562373095</speed>
  <fix>3d</fix>
</trkpt>
<trkpt lat="40.072842" lon="-105.230575">
  <ele>1586.09</ele>
  <time>2026-08-28T19:07:25Z</time>
  <course>271.7</course>
  <speed>0.0</speed>
  <fix>3d</fix>
</trkpt>
<trkpt lat="40.0728419" lon="-105.230575">
  <ele>1586.17</ele>
  <time>2026-08-28T19:07:25Z</time>
  <course>10.72</course>
  <speed>0.022360679774997897</speed>
  <fix>3d</fix>
</trkpt>
<trkpt lat="40.072842" lon="-105.230575">
  <ele>1586.09</ele>
  <time>2026-08-28T19:07:25Z</time>
  <course>269.69</course>
  <speed>0.0</speed>
  <fix>3d</fix>
</trkpt>
<trkpt lat="40.0728419" lon="-105.230575">
  <ele>1586.17</ele>
  <time>2026-08-28T19:07:25Z</time>
  <course>10.68</course>
  <speed>0.022360679774997897</speed>
  <fix>3d</fix>
</trkpt>
<trkpt lat="40.072842" lon="-105.230575">
  <ele>1586.09</ele>
  <time>2026-08-28T19:07:25Z</time>
  <course>284.21</course>
  <speed>0.0</speed>
  <fix>3d</fix>
</trkpt>
<trkpt lat="40.0728419" lon="-105.2305749">
  <ele>1586.17</ele>
  <time>2026-08-28T19:07:25Z</time>
  <course>10.64</course>
  <speed>0.022360679774997897</speed>
  <fix>3d</fix>
</trkpt>
<trkpt lat="40.072842" lon="-105.230575">
  <ele>1586.09</ele>
  <time>2026-08-28T19:07:25Z</time>
  <course>280.99</course>
  <speed>0.0</speed>
  <fix>3d</fix>
</trkpt>
<trkpt lat="40.0728419" lon="-105.2305749">
  <ele>1586.17</ele>
  <time>2026-08-28T19:07:25Z</time>
  <course>10.59</course>
  <speed>0.022360679774997897</speed>
  <fix>3d</fix>
</trkpt>
<trkpt lat="40.072842" lon="-105.230575">
  <ele>1586.09</ele>
  <time>2026-08-28T19:07:25Z</time>
  <course>266.79</course>
  <speed>0.0</speed>
  <fix>3d</fix>
</trkpt>
<trkpt lat="40.0728419" lon="-105.2305749">
  <ele>1586.17</ele>
  <time>2026-08-28T19:07:25Z</time>
  <course>10.55</course>
  <speed>0.022360679774997897</speed>
  <fix>3d</fix>
</trkpt>
<trkpt lat="40.072842" lon="-105.230575">
  <ele>1586.09</ele>
  <time>2026-08-28T19:07:25Z</time>
  <course>268.57</course>
  <speed>0.0</speed>
  <fix>3d</fix>
</trkpt>
<trkpt lat="40.0728419" lon="-105.2305749">
  <ele>1586.17</ele>
  <time>2026-08-28T19:07:25Z</time>
  <course>10.5</course>
  <speed>0.022360679774997897</speed>
  <fix>3d</fix>
</trkpt>
<trkpt lat="40.072842" lon="-105.230575">
  <ele>1586.09</ele>
  <time>2026-08-28T19:07:25Z</time>
  <course>268.07</course>
  <speed>0.0</speed>
  <fix>3d</fix>
</trkpt>
<trkpt lat="40.0728419" lon="-105.2305749">
  <ele>1586.17</ele>
  <time>2026-08-28T19:07:25Z</time>
  <course>10.46</course>
  <speed>0.022360679774997897</speed>
  <fix>3d</fix>
</trkpt>
<trkpt lat="40.072842" lon="-105.230575">
  <ele>1586.09</ele>
  <time>2026-08-28T19:07:25Z</time>
  <course>272.47</course>
  <speed>0.0</speed>
  <fix>3d</fix>
</trkpt>
<trkpt lat="40.0728419" lon="-105.2305749">
  <ele>1586.17</ele>
  <time>2026-08-28T19:07:25Z</time>
  <course>10.41</course>
  <speed>0.022360679774997897</speed>
  <fix>3d</fix>
</trkpt>
<trkpt lat="40.072842" lon="-105.230575">
  <ele>1586.09</ele>
  <time>2026-08-28T19:07:25Z</time>
  <course>279.53</course>
  <speed>0.0</speed>
  <fix>3d</fix>
</trkpt>
<trkpt lat="40.0728419" lon="-105.2305749">
  <ele>1586.17</ele>
  <time>2026-08-28T19:07:25Z</time>
  <course>10.36</course>
  <speed>0.022360679774997897</speed>
  <fix>3d</fix>
</trkpt>
<trkpt lat="40.072842" lon="-105.230575">
  <ele>1586.09</ele>
  <time>2026-08-28T19:07:25Z</time>
  <course>274.39</course>
  <speed>0.0</speed>
  <fix>3d</fix>
</trkpt>
<trkpt lat="40.0728419" lon="-105.2305749">
  <ele>1586.16</ele>
  <time>2026-08-28T19:07:25Z</time>
  <course>10.31</course>
  <speed>0.022360679774997897</speed>
  <fix>3d</fix>
</trkpt>
<trkpt lat="40.072842" lon="-105.230575">
  <ele>1586.09</ele>
  <time>2026-08-28T19:07:25Z</time>
  <course>268.5</course>
  <speed>0.0</speed>
  <fix>3d</fix>
</trkpt>
<trkpt lat="40.0728419" lon="-105.2305749">
  <ele>1586.16</ele>
  <time>2026-08-28T19:07:25Z</time>
  <course>10.26</course>
  <speed>0.022360679774997897</speed>
  <fix>3d</fix>
</trkpt>
<trkpt lat="40.072842" lon="-105.230575">
  <ele>1586.09</ele>
  <time>2026-08-28T19:07:25Z</time>
  <course>268.65</course>
  <speed>0.0</speed>
  <fix>3d</fix>
</trkpt>
<trkpt lat="40.0728419" lon="-105.2305749">
  <ele>1586.16</ele>
  <time>2026-08-28T19:07:25Z</time>
  <course>10.21</course>
  <speed>0.022360679774997897</speed>
  <fix>3d</fix>
</trkpt>
<trkpt lat="40.072842" lon="-105.230575">
  <ele>1586.09</ele>
  <time>2026-08-28T19:07:25Z</time>
  <course>268.36</course>
  <speed>0.0</speed>
  <fix>3d</fix>
</trkpt>
<trkpt lat="40.0728419" lon="-105.2305749">
  <ele>1586.16</ele>
  <time>2026-08-28T19:07:25Z</time>
  <course>10.16</course>
  <speed>0.022360679774997897</speed>
  <fix>3d</fix>
</trkpt>
<trkpt lat="40.072842" lon="-105.230575">
  <ele>1586.09</ele>
  <time>2026-08-28T19:07:25Z</time>
  <course>269.97</course>
  <speed>0.0</speed>
  <fix>3d</fix>
</trkpt>
<trkpt lat="40.0728419" lon="-105.2305749">
  <ele>1586.16</ele>
  <time>2026-08-28T19:07:25Z</time>
  <course>10.11</course>
  <speed>0.022360679774997897</speed>
  <fix>3d</fix>
</trkpt>
<trkpt lat="40.072842" lon="-105.230575">
  <ele>1586.09</ele>
  <time>2026-08-28T19:07:25Z</time>
  <course>279.02</course>
  <speed>0.0</speed>
  <fix>3d</fix>
</trkpt>
<trkpt lat="40.0728419" lon="-105.2305749">
  <ele>1586.16</ele>
  <time>2026-08-28T19:07:25Z</time>
  <course>10.06</course>
  <speed>0.022360679774997897</speed>
  <fix>3d</fix>
</trkpt>
<trkpt lat="40.072842" lon="-105.230575">
  <ele>1586.09</ele>
  <time>2026-08-28T19:07:25Z</time>
  <course>279.11</course>
  <speed>0.0</speed>
  <fix>3d</fix>
</trkpt>
<trkpt lat="40.0728419" lon="-105.2305749">
  <ele>1586.16</ele>
  <time>2026-08-28T19:07:25Z</time>
  <course>10.01</course>
  <speed>0.022360679774997897</speed>
  <fix>3d</fix>
</trkpt>
<trkpt lat="40.072842" lon="-105.230575">
  <ele>1586.09</ele>
  <time>2026-08-28T19:07:25Z</time>
  <course>267.24</course>
  <speed>0.0</speed>
  <fix>3d</fix>
</trkpt>
<trkpt lat="40.0728419" lon="-105.2305749">
  <ele>1586.16</ele>
  <time>2026-08-28T19:07:25Z</time>
  <course>9.96</course>
  <speed>0.022360679774997897</speed>
  <fix>3d</fix>
</trkpt>
<trkpt lat="40.072842" lon="-105.230575">
  <ele>1586.09</ele>
  <time>2026-08-28T19:07:25Z</time>
  <course>266.23</course>
  <speed>0.0</speed>
  <fix>3d</fix>
</trkpt>
<trkpt lat="40.0728419" lon="-105.2305749">
  <ele>1586.16</ele>
  <time>2026-08-28T19:07:25Z</time>
  <course>9.91</course>
  <speed>0.022360679774997897</speed>
  <fix>3d</fix>
</trkpt>
<trkpt lat="40.072842" lon="-105.230575">
  <ele>1586.09</ele>
  <time>2026-08-28T19:07:25Z</time>
  <course>268.91</course>
  <speed>0.0</speed>
  <fix>3d</fix>
</trkpt>
<trkpt lat="40.0728419" lon="-105.2305749">
  <ele>1586.17</ele>
  <time>2026-08-28T19:07:25Z</time>
  <course>9.86</course>
  <speed>0.022360679774997897</speed>
  <fix>3d</fix>
</trkpt>
<trkpt lat="40.072842" lon="-105.230575">
  <ele>1586.09</ele>
  <time>2026-08-28T19:07:25Z</time>
  <course>270.2</course>
  <speed>0.0</speed>
  <fix>3d</fix>
</trkpt>
<trkpt lat="40.0728419" lon="-105.2305749">
  <ele>1586.17</ele>
  <time>2026-08-28T19:07:25Z</time>
  <course>9.82</course>
  <speed>0.022360679774997897</speed>
  <fix>3d</fix>
</trkpt>
<trkpt lat="40.072842" lon="-105.230575">
  <ele>1586.09</ele>
  <time>2026-08-28T19:07:25Z</time>
  <course>269.47</course>
  <speed>0.0</speed>
  <fix>3d</fix>
</trkpt>
<trkpt lat="40.0728419" lon="-105.2305749">
  <ele>1586.17</ele>
  <time>2026-08-28T19:07:25Z</time>
  <course>9.77</course>
  <speed>0.022360679774997897</speed>
  <fix>3d</fix>
</trkpt>
<trkpt lat="40.072842" lon="-105.230575">
  <ele>1586.09</ele>
  <time>2026-08-28T19:07:25Z</time>
  <course>280.01</course>
  <speed>0.0</speed>
  <fix>3d</fix>
</trkpt>
<trkpt lat="40.0728419" lon="-105.2305749">
  <ele>1586.17</ele>
  <time>2026-08-28T19:07:25Z</time>
  <course>9.72</course>
  <speed>0.022360679774997897</speed>
  <fix>3d</fix>
</trkpt>
<trkpt lat="40.072842" lon="-105.230575">
  <ele>1586.09</ele>
  <time>2026-08-28T19:07:25Z</time>
  <course>279.12</course>
  <speed>0.0</speed>
  <fix>3d</fix>
</trkpt>
<trkpt lat="40.0728419" lon="-105.2305749">
  <ele>1586.17</ele>
  <time>2026-08-28T19:07:25Z</time>
  <course>9.68</course>
  <speed>0.022360679774997897</speed>
  <fix>3d</fix>
</trkpt>
<trkpt lat="40.072842" lon="-105.230575">
  <ele>1586.09</ele>
  <time>2026-08-28T19:07:25Z</time>
  <course>269.21</course>
  <speed>0.0</speed>
  <fix>3d</fix>
</trkpt>
<trkpt lat="40.0728419" lon="-105.2305749">
  <ele>1586.17</ele>
  <time>2026-08-28T19:07:25Z</time>
  <course>9.63</course>
  <speed>0.022360679774997897</speed>
  <fix>3d</fix>
</trkpt>
<trkpt lat="40.072842" lon="-105.230575">
  <ele>1586.09</ele>
  <time>2026-08-28T19:07:25Z</time>
  <course>265.5</course>
  <speed>0.0</speed>
  <fix>3d</fix>
</trkpt>
<trkpt lat="40.0728419" lon="-105.2305749">
  <ele>1586.17</ele>
  <time>2026-08-28T19:07:25Z</time>
  <course>9.59</course>
  <speed>0.022360679774997897</speed>
  <fix>3d</fix>
</trkpt>
<trkpt lat="40.072842" lon="-105.230575">
  <ele>1586.09</ele>
  <time>2026-08-28T19:07:25Z</time>
  <course>269.54</course>
  <speed>0.0</speed>
  <fix>3d</fix>
</trkpt>
<trkpt lat="40.0728419" lon="-105.2305749">
  <ele>1586.17</ele>
  <time>2026-08-28T19:07:25Z</time>
  <course>9.55</course>
  <speed>0.022360679774997897</speed>
  <fix>3d</fix>
</trkpt>
<trkpt lat="40.072842" lon="-105.230575">
  <ele>1586.09</ele>
  <time>2026-08-28T19:07:25Z</time>
  <course>269.3</course>
  <speed>0.0</speed>
  <fix>3d</fix>
</trkpt>
<trkpt lat="40.0728419" lon="-105.2305749">
  <ele>1586.17</ele>
  <time>2026-08-28T19:07:25Z</time>
  <course>9.5</course>
  <speed>0.022360679774997897</speed>
  <fix>3d</fix>
</trkpt>
<trkpt lat="40.072842" lon="-105.230575">
  <ele>1586.09</ele>
  <time>2026-08-28T19:07:25Z</time>
  <course>269.03</course>
  <speed>0.0</speed>
  <fix>3d</fix>
</trkpt>
<trkpt lat="40.0728419" lon="-105.2305749">
  <ele>1586.17</ele>
  <time>2026-08-28T19:07:25Z</time>
  <course>9.46</course>
  <speed>0.022360679774997897</speed>
  <fix>3d</fix>
</trkpt>
<trkpt lat="40.072842" lon="-105.230575">
  <ele>1586.09</ele>
  <time>2026-08-28T19:07:25Z</time>
  <course>264.65</course>
  <speed>0.0</speed>
  <fix>3d</fix>
</trkpt>
<trkpt lat="40.0728419" lon="-105.2305749">
  <ele>1586.17</ele>
  <time>2026-08-28T19:07:25Z</time>
  <course>9.42</course>
  <speed>0.022360679774997897</speed>
  <fix>3d</fix>
</trkpt>
<trkpt lat="40.072842" lon="-105.230575">
  <ele>1586.09</ele>
  <time>2026-08-28T19:07:25Z</time>
  <course>264.25</course>
  <speed>0.0</speed>
  <fix>3d</fix>
</trkpt>
<trkpt lat="40.0728419" lon="-105.2305749">
  <ele>1586.17</ele>
  <time>2026-08-28T19:07:25Z</time>
  <course>9.38</course>
  <speed>0.022360679774997897</speed>
  <fix>3d</fix>
</trkpt>
<trkpt lat="40.072842" lon="-105.230575">
  <ele>1586.09</ele>
  <time>2026-08-28T19:07:25Z</time>
  <course>270.89</course>
  <speed>0.0</speed>
  <fix>3d</fix>
</trkpt>
<trkpt lat="40.0728419" lon="-105.2305749">
  <ele>1586.17</ele>
  <time>2026-08-28T19:07:25Z</time>
  <course>9.35</course>
  <speed>0.022360679774997897</speed>
  <fix>3d</fix>
</trkpt>
<trkpt lat="40.072842" lon="-105.230575">
  <ele>1586.09</ele>
  <time>2026-08-28T19:07:25Z</time>
  <course>271.37</course>
  <speed>0.0</speed>
  <fix>3d</fix>
</trkpt>
<trkpt lat="40.0728419" lon="-105.2305749">
  <ele>1586.17</ele>
  <time>2026-08-28T19:07:25Z</time>
  <course>9.31</course>
  <speed>0.022360679774997897</speed>
  <fix>3d</fix>
</trkpt>
<trkpt lat="40.072842" lon="-105.230575">
  <ele>1586.09</ele>
  <time>2026-08-28T19:07:25Z</time>
  <course>266.96</course>
  <speed>0.0</speed>
  <fix>3d</fix>
</trkpt>
<trkpt lat="40.0728419" lon="-105.2305749">
  <ele>1586.16</ele>
  <time>2026-08-28T19:07:25Z</time>
  <course>9.27</course>
  <speed>0.022360679774997897</speed>
  <fix>3d</fix>
</trkpt>
<trkpt lat="40.072842" lon="-105.230575">
  <ele>1586.09</ele>
  <time>2026-08-28T19:07:25Z</time>
  <course>268.57</course>
  <speed>0.0</speed>
  <fix>3d</fix>
</trkpt>
<trkpt lat="40.0728419" lon="-105.2305749">
  <ele>1586.16</ele>
  <time>2026-08-28T19:07:25Z</time>
  <course>9.24</course>
  <speed>0.022360679774997897</speed>
  <fix>3d</fix>
</trkpt>
<trkpt lat="40.072842" lon="-105.230575">
  <ele>1586.09</ele>
  <time>2026-08-28T19:07:25Z</time>
  <course>268.82</course>
  <speed>0.0</speed>
  <fix>3d</fix>
</trkpt>
<trkpt lat="40.0728419" lon="-105.2305749">
  <ele>1586.16</ele>
  <time>2026-08-28T19:07:25Z</time>
  <course>9.2</course>
  <speed>0.022360679774997897</speed>
  <fix>3d</fix>
</trkpt>
<trkpt lat="40.072842" lon="-105.230575">
  <ele>1586.09</ele>
  <time>2026-08-28T19:07:25Z</time>
  <course>268.54</course>
  <speed>0.0</speed>
  <fix>3d</fix>
</trkpt>
<trkpt lat="40.0728419" lon="-105.2305749">
  <ele>1586.16</ele>
  <time>2026-08-28T19:07:25Z</time>
  <course>9.17</course>
  <speed>0.022360679774997897</speed>
  <fix>3d</fix>
</trkpt>
<trkpt lat="40.072842" lon="-105.230575">
  <ele>1586.09</ele>
  <time>2026-08-28T19:07:25Z</time>
  <course>268.61</course>
  <speed>0.0</speed>
  <fix>3d</fix>
</trkpt>
<trkpt lat="40.0728419" lon="-105.2305749">
  <ele>1586.16</ele>
  <time>2026-08-28T19:07:25Z</time>
  <course>9.14</course>
  <speed>0.022360679774997897</speed>
  <fix>3d</fix>
</trkpt>
<trkpt lat="40.072842" lon="-105.230575">
  <ele>1586.09</ele>
  <time>2026-08-28T19:07:25Z</time>
  <course>270.96</course>
  <speed>0.0</speed>
  <fix>3d</fix>
</trkpt>
<trkpt lat="40.0728419" lon="-105.2305749">
  <ele>1586.16</ele>
  <time>2026-08-28T19:07:25Z</time>
  <course>9.1</course>
  <speed>0.022360679774997897</speed>
  <fix>3d</fix>
</trkpt>
<trkpt lat="40.072842" lon="-105.230575">
  <ele>1586.09</ele>
  <time>2026-08-28T19:07:25Z</time>
  <course>268.64</course>
  <speed>0.0</speed>
  <fix>3d</fix>
</trkpt>
<trkpt lat="40.0728419" lon="-105.2305749">
  <ele>1586.16</ele>
  <time>2026-08-28T19:07:25Z</time>
  <course>9.07</course>
  <speed>0.022360679774997897</speed>
  <fix>3d</fix>
</trkpt>
<trkpt lat="40.072842" lon="-105.230575">
  <ele>1586.09</ele>
  <time>2026-08-28T19:07:25Z</time>
  <course>272.48</course>
  <speed>0.0</speed>
  <fix>3d</fix>
</trkpt>
<trkpt lat="40.0728419" lon="-105.2305749">
  <ele>1586.16</ele>
  <time>2026-08-28T19:07:25Z</time>
  <course>9.04</course>
  <speed>0.022360679774997897</speed>
  <fix>3d</fix>
</trkpt>
<trkpt lat="40.072842" lon="-105.230575">
  <ele>1586.09</ele>
  <time>2026-08-28T19:07:25Z</time>
  <course>274.73</course>
  <speed>0.0</speed>
  <fix>3d</fix>
</trkpt>
<trkpt lat="40.0728419" lon="-105.2305749">
  <ele>1586.16</ele>
  <time>2026-08-28T19:07:26Z</time>
  <course>9.01</course>
  <speed>0.022360679774997897</speed>
  <fix>3d</fix>
</trkpt>
<trkpt lat="40.072842" lon="-105.230575">
  <ele>1586.09</ele>
  <time>2026-08-28T19:07:26Z</time>
  <course>267.27</course>
  <speed>0.0</speed>
  <fix>3d</fix>
</trkpt>
<trkpt lat="40.0728419" lon="-105.2305749">
  <ele>1586.16</ele>
  <time>2026-08-28T19:07:26Z</time>
  <course>8.99</course>
  <speed>0.022360679774997897</speed>
  <fix>3d</fix>
</trkpt>
<trkpt lat="40.072842" lon="-105.230575">
  <ele>1586.09</ele>
  <time>2026-08-28T19:07:26Z</time>
  <course>267.96</course>
  <speed>0.0</speed>
  <fix>3d</fix>
</trkpt>
<trkpt lat="40.0728419" lon="-105.2305749">
  <ele>1586.15</ele>
  <time>2026-08-28T19:07:26Z</time>
  <course>8.96</course>
  <speed>0.022360679774997897</speed>
  <fix>3d</fix>
</trkpt>
<trkpt lat="40.072842" lon="-105.230575">
  <ele>1586.09</ele>
  <time>2026-08-28T19:07:26Z</time>
  <course>268.76</course>
  <speed>0.0</speed>
  <fix>3d</fix>
</trkpt>
<trkpt lat="40.0728419" lon="-105.2305749">
  <ele>1586.15</ele>
  <time>2026-08-28T19:07:26Z</time>
  <course>8.93</course>
  <speed>0.022360679774997897</speed>
  <fix>3d</fix>
</trkpt>
<trkpt lat="40.072842" lon="-105.230575">
  <ele>1586.09</ele>
  <time>2026-08-28T19:07:26Z</time>
  <course>268.74</course>
  <speed>0.0</speed>
  <fix>3d</fix>
</trkpt>
<trkpt lat="40.0728419" lon="-105.2305749">
  <ele>1586.15</ele>
  <time>2026-08-28T19:07:26Z</time>
  <course>8.91</course>
  <speed>0.01414213562373095</speed>
  <fix>3d</fix>
</trkpt>
<trkpt lat="40.072842" lon="-105.230575">
  <ele>1586.09</ele>
  <time>2026-08-28T19:07:26Z</time>
  <course>268.71</course>
  <speed>0.0</speed>
  <fix>3d</fix>
</trkpt>
<trkpt lat="40.0728419" lon="-105.2305749">
  <ele>1586.15</ele>
  <time>2026-08-28T19:07:26Z</time>
  <course>8.88</course>
  <speed>0.01414213562373095</speed>
  <fix>3d</fix>
</trkpt>
<trkpt lat="40.072842" lon="-105.230575">
  <ele>1586.09</ele>
  <time>2026-08-28T19:07:26Z</time>
  <course>269.36</course>
  <speed>0.0</speed>
  <fix>3d</fix>
</trkpt>
<trkpt lat="40.0728419" lon="-105.2305749">
  <ele>1586.15</ele>
  <time>2026-08-28T19:07:26Z</time>
  <course>8.86</course>
  <speed>0.01414213562373095</speed>
  <fix>3d</fix>
</trkpt>
<trkpt lat="40.072842" lon="-105.230575">
  <ele>1586.09</ele>
  <time>2026-08-28T19:07:26Z</time>
  <course>268.04</course>
  <speed>0.0</speed>
  <fix>3d</fix>
</trkpt>
<trkpt lat="40.0728419" lon="-105.2305749">
  <ele>1586.16</ele>
  <time>2026-08-28T19:07:26Z</time>
  <course>8.84</course>
  <speed>0.01414213562373095</speed>
  <fix>3d</fix>
</trkpt>
<trkpt lat="40.072842" lon="-105.230575">
  <ele>1586.09</ele>
  <time>2026-08-28T19:07:26Z</time>
  <course>267.14</course>
  <speed>0.0</speed>
  <fix>3d</fix>
</trkpt>
<trkpt lat="40.0728419" lon="-105.2305749">
  <ele>1586.16</ele>
  <time>2026-08-28T19:07:26Z</time>
  <course>8.81</course>
  <speed>0.01414213562373095</speed>
  <fix>3d</fix>
</trkpt>
<trkpt lat="40.072842" lon="-105.230575">
  <ele>1586.09</ele>
  <time>2026-08-28T19:07:26Z</time>
  <course>277.43</course>
  <speed>0.0</speed>
  <fix>3d</fix>
</trkpt>
<trkpt lat="40.0728419" lon="-105.2305749">
  <ele>1586.16</ele>
  <time>2026-08-28T19:07:26Z</time>
  <course>8.79</course>
  <speed>0.01414213562373095</speed>
  <fix>3d</fix>
</trkpt>
<trkpt lat="40.072842" lon="-105.230575">
  <ele>1586.09</ele>
  <time>2026-08-28T19:07:26Z</time>
  <course>275.04</course>
  <speed>0.0</speed>
  <fix>3d</fix>
</trkpt>
<trkpt lat="40.0728419" lon="-105.2305749">
  <ele>1586.16</ele>
  <time>2026-08-28T19:07:26Z</time>
  <course>8.77</course>
  <speed>0.01414213562373095</speed>
  <fix>3d</fix>
</trkpt>
<trkpt lat="40.072842" lon="-105.230575">
  <ele>1586.09</ele>
  <time>2026-08-28T19:07:26Z</time>
  <course>267.72</course>
  <speed>0.0</speed>
  <fix>3d</fix>
</trkpt>
<trkpt lat="40.0728419" lon="-105.2305749">
  <ele>1586.16</ele>
  <time>2026-08-28T19:07:26Z</time>
  <course>8.75</course>
  <speed>0.01414213562373095</speed>
  <fix>3d</fix>
</trkpt>
<trkpt lat="40.072842" lon="-105.230575">
  <ele>1586.09</ele>
  <time>2026-08-28T19:07:26Z</time>
  <course>267.75</course>
  <speed>0.0</speed>
  <fix>3d</fix>
</trkpt>
<trkpt lat="40.0728419" lon="-105.2305749">
  <ele>1586.17</ele>
  <time>2026-08-28T19:07:26Z</time>
  <course>8.73</course>
  <speed>0.01414213562373095</speed>
  <fix>3d</fix>
</trkpt>
<trkpt lat="40.072842" lon="-105.230575">
  <ele>1586.09</ele>
  <time>2026-08-28T19:07:26Z</time>
  <course>268.95</course>
  <speed>0.0</speed>
  <fix>3d</fix>
</trkpt>
<trkpt lat="40.0728419" lon="-105.2305749">
  <ele>1586.17</ele>
  <time>2026-08-28T19:07:26Z</time>
  <course>8.72</course>
  <speed>0.01414213562373095</speed>
  <fix>3d</fix>
</trkpt>
<trkpt lat="40.072842" lon="-105.230575">
  <ele>1586.09</ele>
  <time>2026-08-28T19:07:26Z</time>
  <course>268.71</course>
  <speed>0.0</speed>
  <fix>3d</fix>
</trkpt>
<trkpt lat="40.0728419" lon="-105.2305749">
  <ele>1586.17</ele>
  <time>2026-08-28T19:07:26Z</time>
  <course>8.7</course>
  <speed>0.01414213562373095</speed>
  <fix>3d</fix>
</trkpt>
<trkpt lat="40.072842" lon="-105.230575">
  <ele>1586.09</ele>
  <time>2026-08-28T19:07:26Z</time>
  <course>269.09</course>
  <speed>0.0</speed>
  <fix>3d</fix>
</trkpt>
<trkpt lat="40.0728419" lon="-105.2305749">
  <ele>1586.17</ele>
  <time>2026-08-28T19:07:26Z</time>
  <course>8.68</course>
  <speed>0.01414213562373095</speed>
  <fix>3d</fix>
</trkpt>
<trkpt lat="40.072842" lon="-105.230575">
  <ele>1586.09</ele>
  <time>2026-08-28T19:07:26Z</time>
  <course>267.77</course>
  <speed>0.0</speed>
  <fix>3d</fix>
</trkpt>
<trkpt lat="40.0728419" lon="-105.2305749">
  <ele>1586.17</ele>
  <time>2026-08-28T19:07:26Z</time>
  <course>8.67</course>
  <speed>0.01414213562373095</speed>
  <fix>3d</fix>
</trkpt>
<trkpt lat="40.072842" lon="-105.230575">
  <ele>1586.09</ele>
  <time>2026-08-28T19:07:26Z</time>
  <course>266.96</course>
  <speed>0.0</speed>
  <fix>3d</fix>
</trkpt>
<trkpt lat="40.0728419" lon="-105.2305749">
  <ele>1586.17</ele>
  <time>2026-08-28T19:07:26Z</time>
  <course>8.65</course>
  <speed>0.01414213562373095</speed>
  <fix>3d</fix>
</trkpt>
<trkpt lat="40.072842" lon="-105.230575">
  <ele>1586.09</ele>
  <time>2026-08-28T19:07:26Z</time>
  <course>268.38</course>
  <speed>0.0</speed>
  <fix>3d</fix>
</trkpt>
<trkpt lat="40.0728419" lon="-105.2305749">
  <ele>1586.18</ele>
  <time>2026-08-28T19:07:26Z</time>
  <course>8.64</course>
  <speed>0.01414213562373095</speed>
  <fix>3d</fix>
</trkpt>
<trkpt lat="40.072842" lon="-105.230575">
  <ele>1586.09</ele>
  <time>2026-08-28T19:07:26Z</time>
  <course>269.28</course>
  <speed>0.0</speed>
  <fix>3d</fix>
</trkpt>
<trkpt lat="40.0728419" lon="-105.2305749">
  <ele>1586.18</ele>
  <time>2026-08-28T19:07:26Z</time>
  <course>8.63</course>
  <speed>0.01414213562373095</speed>
  <fix>3d</fix>
</trkpt>
<trkpt lat="40.072842" lon="-105.230575">
  <ele>1586.09</ele>
  <time>2026-08-28T19:07:26Z</time>
  <course>273.45</course>
  <speed>0.0</speed>
  <fix>3d</fix>
</trkpt>
<trkpt lat="40.0728419" lon="-105.2305749">
  <ele>1586.18</ele>
  <time>2026-08-28T19:07:26Z</time>
  <course>8.62</course>
  <speed>0.01414213562373095</speed>
  <fix>3d</fix>
</trkpt>
<trkpt lat="40.072842" lon="-105.230575">
  <ele>1586.09</ele>
  <time>2026-08-28T19:07:26Z</time>
  <course>275.99</course>
  <speed>0.0</speed>
  <fix>3d</fix>
</trkpt>
<trkpt lat="40.0728419" lon="-105.2305749">
  <ele>1586.17</ele>
  <time>2026-08-28T19:07:26Z</time>
  <course>8.6</course>
  <speed>0.01414213562373095</speed>
  <fix>3d</fix>
</trkpt>
<trkpt lat="40.072842" lon="-105.230575">
  <ele>1586.09</ele>
  <time>2026-08-28T19:07:26Z</time>
  <course>269.89</course>
  <speed>0.0</speed>
  <fix>3d</fix>
</trkpt>
<trkpt lat="40.0728419" lon="-105.2305749">
  <ele>1586.17</ele>
  <time>2026-08-28T19:07:26Z</time>
  <course>8.59</course>
  <speed>0.01414213562373095</speed>
  <fix>3d</fix>
</trkpt>
<trkpt lat="40.072842" lon="-105.230575">
  <ele>1586.09</ele>
  <time>2026-08-28T19:07:26Z</time>
  <course>267.52</course>
  <speed>0.0</speed>
  <fix>3d</fix>
</trkpt>
<trkpt lat="40.0728419" lon="-105.2305749">
  <ele>1586.17</ele>
  <time>2026-08-28T19:07:26Z</time>
  <course>8.58</course>
  <speed>0.01414213562373095</speed>
  <fix>3d</fix>
</trkpt>
<trkpt lat="40.072842" lon="-105.230575">
  <ele>1586.09</ele>
  <time>2026-08-28T19:07:26Z</time>
  <course>269.04</course>
  <speed>0.0</speed>
  <fix>3d</fix>
</trkpt>
<trkpt lat="40.0728419" lon="-105.2305749">
  <ele>1586.17</ele>
  <time>2026-08-28T19:07:26Z</time>
  <course>8.58</course>
  <speed>0.01414213562373095</speed>
  <fix>3d</fix>
</trkpt>
<trkpt lat="40.072842" lon="-105.230575">
  <ele>1586.09</ele>
  <time>2026-08-28T19:07:26Z</time>
  <course>269.28</course>
  <speed>0.0</speed>
  <fix>3d</fix>
</trkpt>
<trkpt lat="40.0728419" lon="-105.2305749">
  <ele>1586.17</ele>
  <time>2026-08-28T19:07:26Z</time>
  <course>8.57</course>
  <speed>0.01414213562373095</speed>
  <fix>3d</fix>
</trkpt>
<trkpt lat="40.072842" lon="-105.230575">
  <ele>1586.09</ele>
  <time>2026-08-28T19:07:26Z</time>
  <course>268.19</course>
  <speed>0.0</speed>
  <fix>3d</fix>
</trkpt>
<trkpt lat="40.0728419" lon="-105.2305749">
  <ele>1586.17</ele>
  <time>2026-08-28T19:07:26Z</time>
  <course>8.56</course>
  <speed>0.01414213562373095</speed>
  <fix>3d</fix>
</trkpt>
<trkpt lat="40.072842" lon="-105.230575">
  <ele>1586.09</ele>
  <time>2026-08-28T19:07:26Z</time>
  <course>267.48</course>
  <speed>0.0</speed>
  <fix>3d</fix>
</trkpt>
<trkpt lat="40.0728419" lon="-105.2305749">
  <ele>1586.17</ele>
  <time>2026-08-28T19:07:26Z</time>
  <course>8.55</course>
  <speed>0.01414213562373095</speed>
  <fix>3d</fix>
</trkpt>
<trkpt lat="40.072842" lon="-105.230575">
  <ele>1586.09</ele>
  <time>2026-08-28T19:07:26Z</time>
  <course>268.32</course>
  <speed>0.0</speed>
  <fix>3d</fix>
</trkpt>
<trkpt lat="40.0728419" lon="-105.2305749">
  <ele>1586.17</ele>
  <time>2026-08-28T19:07:26Z</time>
  <course>8.55</course>
  <speed>0.01414213562373095</speed>
  <fix>3d</fix>
</trkpt>
<trkpt lat="40.072842" lon="-105.230575">
  <ele>1586.09</ele>
  <time>2026-08-28T19:07:26Z</time>
  <course>269.25</course>
  <speed>0.0</speed>
  <fix>3d</fix>
</trkpt>
<trkpt lat="40.0728419" lon="-105.2305749">
  <ele>1586.17</ele>
  <time>2026-08-28T19:07:26Z</time>
  <course>8.54</course>
  <speed>0.01414213562373095</speed>
  <fix>3d</fix>
</trkpt>
<trkpt lat="40.072842" lon="-105.230575">
  <ele>1586.09</ele>
  <time>2026-08-28T19:07:26Z</time>
  <course>269.16</course>
  <speed>0.0</speed>
  <fix>3d</fix>
</trkpt>
<trkpt lat="40.0728419" lon="-105.2305749">
  <ele>1586.18</ele>
  <time>2026-08-28T19:07:26Z</time>
  <course>8.54</course>
  <speed>0.01414213562373095</speed>
  <fix>3d</fix>
</trkpt>
<trkpt lat="40.072842" lon="-105.230575">
  <ele>1586.09</ele>
  <time>2026-08-28T19:07:26Z</time>
  <course>268.82</course>
  <speed>0.0</speed>
  <fix>3d</fix>
</trkpt>
<trkpt lat="40.0728419" lon="-105.2305749">
  <ele>1586.17</ele>
  <time>2026-08-28T19:07:26Z</time>
  <course>8.53</course>
  <speed>0.01414213562373095</speed>
  <fix>3d</fix>
</trkpt>
<trkpt lat="40.072842" lon="-105.230575">
  <ele>1586.09</ele>
  <time>2026-08-28T19:07:26Z</time>
  <course>269.25</course>
  <speed>0.0</speed>
  <fix>3d</fix>
</trkpt>
<trkpt lat="40.0728419" lon="-105.2305749">
  <ele>1586.17</ele>
  <time>2026-08-28T19:07:26Z</time>
  <course>8.53</course>
  <speed>0.01414213562373095</speed>
  <fix>3d</fix>
</trkpt>
<trkpt lat="40.072842" lon="-105.230575">
  <ele>1586.09</ele>
  <time>2026-08-28T19:07:26Z</time>
  <course>274.09</course>
  <speed>0.0</speed>
  <fix>3d</fix>
</trkpt>
<trkpt lat="40.0728419" lon="-105.2305749">
  <ele>1586.16</ele>
  <time>2026-08-28T19:07:26Z</time>
  <course>8.53</course>
  <speed>0.01414213562373095</speed>
  <fix>3d</fix>
</trkpt>
<trkpt lat="40.072842" lon="-105.230575">
  <ele>1586.09</ele>
  <time>2026-08-28T19:07:26Z</time>
  <course>273.29</course>
  <speed>0.0</speed>
  <fix>3d</fix>
</trkpt>
<trkpt lat="40.0728419" lon="-105.2305749">
  <ele>1586.16</ele>
  <time>2026-08-28T19:07:26Z</time>
  <course>8.52</course>
  <speed>0.0282842712474619</speed>
  <fix>3d</fix>
</trkpt>
<trkpt lat="40.072842" lon="-105.230575">
  <ele>1586.09</ele>
  <time>2026-08-28T19:07:26Z</time>
  <course>97.09</course>
  <speed>0.0</speed>
  <fix>3d</fix>
</trkpt>
<trkpt lat="40.0728419" lon="-105.2305749">
  <ele>1586.16</ele>
  <time>2026-08-28T19:07:26Z</time>
  <course>8.5</course>
  <speed>0.01414213562373095</speed>
  <fix>3d</fix>
</trkpt>
<trkpt lat="40.072842" lon="-105.230575">
  <ele>1586.09</ele>
  <time>2026-08-28T19:07:26Z</time>
  <course>92.94</course>
  <speed>0.0</speed>
  <fix>3d</fix>
</trkpt>
<trkpt lat="40.0728419" lon="-105.2305749">
  <ele>1586.16</ele>
  <time>2026-08-28T19:07:26Z</time>
  <course>8.48</course>
  <speed>0.01414213562373095</speed>
  <fix>3d</fix>
</trkpt>
<trkpt lat="40.072842" lon="-105.230575">
  <ele>1586.09</ele>
  <time>2026-08-28T19:07:26Z</time>
  <course>84.4</course>
  <speed>0.0</speed>
  <fix>3d</fix>
</trkpt>
<trkpt lat="40.0728419" lon="-105.2305749">
  <ele>1586.16</ele>
  <time>2026-08-28T19:07:26Z</time>
  <course>8.45</course>
  <speed>0.01414213562373095</speed>
  <fix>3d</fix>
</trkpt>
<trkpt lat="40.072842" lon="-105.230575">
  <ele>1586.09</ele>
  <time>2026-08-28T19:07:26Z</time>
  <course>272.8</course>
  <speed>0.0</speed>
  <fix>3d</fix>
</trkpt>
<trkpt lat="40.0728419" lon="-105.2305749">
  <ele>1586.17</ele>
  <time>2026-08-28T19:07:26Z</time>
  <course>8.41</course>
  <speed>0.01414213562373095</speed>
  <fix>3d</fix>
</trkpt>
<trkpt lat="40.072842" lon="-105.230575">
  <ele>1586.09</ele>
  <time>2026-08-28T19:07:26Z</time>
  <course>262.87</course>
  <speed>0.0</speed>
  <fix>3d</fix>
</trkpt>
<trkpt lat="40.0728419" lon="-105.2305749">
  <ele>1586.17</ele>
  <time>2026-08-28T19:07:26Z</time>
  <course>8.35</course>
  <speed>0.01414213562373095</speed>
  <fix>3d</fix>
</trkpt>
<trkpt lat="40.072842" lon="-105.230575">
  <ele>1586.09</ele>
  <time>2026-08-28T19:07:26Z</time>
  <course>259.05</course>
  <speed>0.0</speed>
  <fix>3d</fix>
</trkpt>
<trkpt lat="40.0728419" lon="-105.2305749">
  <ele>1586.2</ele>
  <time>2026-08-28T19:07:26Z</time>
  <course>8.28</course>
  <speed>0.01414213562373095</speed>
  <fix>3d</fix>
</trkpt>
<trkpt lat="40.072842" lon="-105.230575">
  <ele>1586.1</ele>
  <time>2026-08-28T19:07:26Z</time>
  <course>270.89</course>
  <speed>0.0</speed>
  <fix>3d</fix>
</trkpt>
<trkpt lat="40.0728419" lon="-105.2305749">
  <ele>1586.23</ele>
  <time>2026-08-28T19:07:26Z</time>
  <course>8.19</course>
  <speed>0.01414213562373095</speed>
  <fix>3d</fix>
</trkpt>
<trkpt lat="40.072842" lon="-105.230575">
  <ele>1586.12</ele>
  <time>2026-08-28T19:07:26Z</time>
  <course>270.83</course>
  <speed>0.0</speed>
  <fix>3d</fix>
</trkpt>
<trkpt lat="40.0728419" lon="-105.2305749">
  <ele>1586.27</ele>
  <time>2026-08-28T19:07:26Z</time>
  <course>8.1</course>
  <speed>0.01414213562373095</speed>
  <fix>3d</fix>
</trkpt>
<trkpt lat="40.072842" lon="-105.230575">
  <ele>1586.16</ele>
  <time>2026-08-28T19:07:26Z</time>
  <course>267.95</course>
  <speed>0.0</speed>
  <fix>3d</fix>
</trkpt>
<trkpt lat="40.0728419" lon="-105.2305749">
  <ele>1586.37</ele>
  <time>2026-08-28T19:07:26Z</time>
  <course>3.62</course>
  <speed>0.0412310562561766</speed>
  <fix>3d</fix>
</trkpt>
<trkpt lat="40.072842" lon="-105.230575">
  <ele>1586.21</ele>
  <time>2026-08-28T19:07:26Z</time>
  <course>267.94</course>
  <speed>0.0</speed>
  <fix>3d</fix>
</trkpt>
<trkpt lat="40.0728419" lon="-105.2305752">
  <ele>1586.66</ele>
  <time>2026-08-28T19:07:26Z</time>
  <course>0.6</course>
  <speed>0.21</speed>
  <fix>3d</fix>
</trkpt>
<trkpt lat="40.072842" lon="-105.2305751">
  <ele>1586.37</ele>
  <time>2026-08-28T19:07:26Z</time>
  <course>264.26</course>
  <speed>0.1</speed>
  <fix>3d</fix>
</trkpt>
<trkpt lat="40.0728419" lon="-105.2305758">
  <ele>1586.93</ele>
  <time>2026-08-28T19:07:26Z</time>
  <course>359.95</course>
  <speed>0.27</speed>
  <fix>3d</fix>
</trkpt>
<trkpt lat="40.072842" lon="-105.2305756">
  <ele>1586.63</ele>
  <time>2026-08-28T19:07:26Z</time>
  <course>263.33</course>
  <speed>0.23</speed>
  <fix>3d</fix>
</trkpt>
<trkpt lat="40.0728419" lon="-105.2305765">
  <ele>1587.18</ele>
  <time>2026-08-28T19:07:26Z</time>
  <course>358.46</course>
  <speed>0.29017236257093815</speed>
  <fix>3d</fix>
</trkpt>
<trkpt lat="40.0728419" lon="-105.2305762">
  <ele>1586.9</ele>
  <time>2026-08-28T19:07:26Z</time>
  <course>261.75</course>
  <speed>0.29</speed>
  <fix>3d</fix>
</trkpt>
<trkpt lat="40.0728419" lon="-105.2305772">
  <ele>1587.47</ele>
  <time>2026-08-28T19:07:26Z</time>
  <course>357.34</course>
  <speed>0.291547594742265</speed>
  <fix>3d</fix>
</trkpt>
<trkpt lat="40.0728418" lon="-105.2305768">
  <ele>1587.16</ele>
  <time>2026-08-28T19:07:26Z</time>
  <course>260.0</course>
  <speed>0.31</speed>
  <fix>3d</fix>
</trkpt>
<trkpt lat="40.0728417" lon="-105.2305779">
  <ele>1587.81</ele>
  <time>2026-08-28T19:07:26Z</time>
  <course>356.53</course>
  <speed>0.27166155414412246</speed>
  <fix>3d</fix>
</trkpt>
<trkpt lat="40.0728417" lon="-105.2305776">
  <ele>1587.46</ele>
  <time>2026-08-28T19:07:26Z</time>
  <course>259.3</course>
  <speed>0.3</speed>
  <fix>3d</fix>
</trkpt>
<trkpt lat="40.0728417" lon="-105.2305785">
  <ele>1588.19</ele>
  <time>2026-08-28T19:07:26Z</time>
  <course>355.81</course>
  <speed>0.24186773244895649</speed>
  <fix>3d</fix>
</trkpt>
<trkpt lat="40.0728416" lon="-105.2305782">
  <ele>1587.8</ele>
  <time>2026-08-28T19:07:26Z</time>
  <course>259.99</course>
  <speed>0.28</speed>
  <fix>3d</fix>
</trkpt>
<trkpt lat="40.0728416" lon="-105.2305791">
  <ele>1588.61</ele>
  <time>2026-08-28T19:07:26Z</time>
  <course>355.16</course>
  <speed>0.2009975124224178</speed>
  <fix>3d</fix>
</trkpt>
<trkpt lat="40.0728415" lon="-105.2305789">
  <ele>1588.17</ele>
  <time>2026-08-28T19:07:26Z</time>
  <course>261.98</course>
  <speed>0.25</speed>
  <fix>3d</fix>
</trkpt>
<trkpt lat="40.0728415" lon="-105.2305795">
  <ele>1589.07</ele>
  <time>2026-08-28T19:07:26Z</time>
  <course>352.76</course>
  <speed>0.16124515496597097</speed>
  <fix>3d</fix>
</trkpt>
<trkpt lat="40.0728414" lon="-105.2305794">
  <ele>1588.6</ele>
  <time>2026-08-28T19:07:26Z</time>
  <course>265.2</course>
  <speed>0.21</speed>
  <fix>3d</fix>
</trkpt>
<trkpt lat="40.0728415" lon="-105.2305799">
  <ele>1589.56</ele>
  <time>2026-08-28T19:07:26Z</time>
  <course>352.21</course>
  <speed>0.12041594578792296</speed>
  <fix>3d</fix>
</trkpt>
<trkpt lat="40.0728414" lon="-105.2305799">
  <ele>1589.06</ele>
  <time>2026-08-28T19:07:26Z</time>
  <course>269.7</course>
  <speed>0.17</speed>
  <fix>3d</fix>
</trkpt>
<trkpt lat="40.0728415" lon="-105.2305802">
  <ele>1590.07</ele>
  <time>2026-08-28T19:07:26Z</time>
  <course>352.44</course>
  <speed>0.08062257748298549</speed>
  <fix>3d</fix>
</trkpt>
<trkpt lat="40.0728414" lon="-105.2305803">
  <ele>1589.55</ele>
  <time>2026-08-28T19:07:26Z</time>
  <course>275.94</course>
  <speed>0.13</speed>
  <fix>3d</fix>
</trkpt>
<trkpt lat="40.0728415" lon="-105.2305804">
  <ele>1590.58</ele>
  <time>2026-08-28T19:07:26Z</time>
  <course>353.03</course>
  <speed>0.04</speed>
  <fix>3d</fix>
</trkpt>
<trkpt lat="40.0728415" lon="-105.2305806">
  <ele>1590.06</ele>
  <time>2026-08-28T19:07:26Z</time>
  <course>285.98</course>
  <speed>0.1</speed>
  <fix>3d</fix>
</trkpt>
<trkpt lat="40.0728415" lon="-105.2305805">
  <ele>1591.1</ele>
  <time>2026-08-28T19:07:26Z</time>
  <course>353.57</course>
  <speed>0.01</speed>
  <fix>3d</fix>
</trkpt>
<trkpt lat="40.0728415" lon="-105.2305807">
  <ele>1590.57</ele>
  <time>2026-08-28T19:07:26Z</time>
  <course>305.88</course>
  <speed>0.06</speed>
  <fix>3d</fix>
</trkpt>
<trkpt lat="40.0728415" lon="-105.2305805">
  <ele>1591.62</ele>
  <time>2026-08-28T19:07:26Z</time>
  <course>354.17</course>
  <speed>0.044721359549995794</speed>
  <fix>3d</fix>
</trkpt>
<trkpt lat="40.0728416" lon="-105.2305808">
  <ele>1591.09</ele>
  <time>2026-08-28T19:07:26Z</time>
  <course>346.67</course>
  <speed>0.04</speed>
  <fix>3d</fix>
</trkpt>
<trkpt lat="40.0728416" lon="-105.2305805">
  <ele>1592.13</ele>
  <time>2026-08-28T19:07:26Z</time>
  <course>354.71</course>
  <speed>0.07615773105863909</speed>
  <fix>3d</fix>
</trkpt>
<trkpt lat="40.0728417" lon="-105.2305808">
  <ele>1591.6</ele>
  <time>2026-08-28T19:07:26Z</time>
  <course>33.41</course>
  <speed>0.05</speed>
  <fix>3d</fix>
</trkpt>
<trkpt lat="40.0728417" lon="-105.2305804">
  <ele>1592.64</ele>
  <time>2026-08-28T19:07:26Z</time>
  <course>355.25</course>
  <speed>0.1118033988749895</speed>
  <fix>3d</fix>
</trkpt>
<trkpt lat="40.0728417" lon="-105.2305807">
  <ele>1592.11</ele>
  <time>2026-08-28T19:07:26Z</time>
  <course>59.12</course>
  <speed>0.08</speed>
  <fix>3d</fix>
</trkpt>
<trkpt lat="40.0728418" lon="-105.2305801">
  <ele>1593.15</ele>
  <time>2026-08-28T19:07:26Z</time>
  <course>355.88</course>
  <speed>0.1414213562373095</speed>
  <fix>3d</fix>
</trkpt>
<trkpt lat="40.0728418" lon="-105.2305805">
  <ele>1592.62</ele>
  <time>2026-08-28T19:07:26Z</time>
  <course>72.44</course>
  <speed>0.12</speed>
  <fix>3d</fix>
</trkpt>
<trkpt lat="40.0728419" lon="-105.2305798">
  <ele>1593.65</ele>
  <time>2026-08-28T19:07:26Z</time>
  <course>356.83</course>
  <speed>0.16124515496597097</speed>
  <fix>3d</fix>
</trkpt>
<trkpt lat="40.0728419" lon="-105.2305802">
  <ele>1593.12</ele>
  <time>2026-08-28T19:07:26Z</time>
  <course>80.04</course>
  <speed>0.15</speed>
  <fix>3d</fix>
</trkpt>
<trkpt lat="40.0728419" lon="-105.2305794">
  <ele>1594.11</ele>
  <time>2026-08-28T19:07:26Z</time>
  <course>357.97</course>
  <speed>0.18027756377319945</speed>
  <fix>3d</fix>
</trkpt>
<trkpt lat="40.0728419" lon="-105.2305799">
  <ele>1593.6</ele>
  <time>2026-08-28T19:07:26Z</time>
  <course>84.45</course>
  <speed>0.18</speed>
  <fix>3d</fix>
</trkpt>
<trkpt lat="40.0728419" lon="-105.230579">
  <ele>1594.53</ele>
  <time>2026-08-28T19:07:26Z</time>
  <course>359.21</course>
  <speed>0.2002498439450079</speed>
  <fix>3d</fix>
</trkpt>
<trkpt lat="40.072842" lon="-105.2305794">
  <ele>1594.05</ele>
  <time>2026-08-28T19:07:26Z</time>
  <course>86.9</course>
  <speed>0.2</speed>
  <fix>3d</fix>
</trkpt>
<trkpt lat="40.072842" lon="-105.2305785">
  <ele>1594.91</ele>
  <time>2026-08-28T19:07:26Z</time>
  <course>0.41</course>
  <speed>0.2102379604162864</speed>
  <fix>3d</fix>
</trkpt>
<trkpt lat="40.072842" lon="-105.2305789">
  <ele>1594.45</ele>
  <time>2026-08-28T19:07:26Z</time>
  <course>88.18</course>
  <speed>0.22</speed>
  <fix>3d</fix>
</trkpt>
<trkpt lat="40.072842" lon="-105.230578">
  <ele>1595.23</ele>
  <time>2026-08-28T19:07:26Z</time>
  <course>1.52</course>
  <speed>0.2308679276123039</speed>
  <fix>3d</fix>
</trkpt>
<trkpt lat="40.072842" lon="-105.2305783">
  <ele>1594.81</ele>
  <time>2026-08-28T19:07:26Z</time>
  <course>88.82</course>
  <speed>0.23</speed>
  <fix>3d</fix>
</trkpt>
<trkpt lat="40.072842" lon="-105.2305774">
  <ele>1595.52</ele>
  <time>2026-08-28T19:07:26Z</time>
  <course>2.49</course>
  <speed>0.2308679276123039</speed>
  <fix>3d</fix>
</trkpt>
<trkpt lat="40.072842" lon="-105.2305777">
  <ele>1595.12</ele>
  <time>2026-08-28T19:07:26Z</time>
  <course>89.15</course>
  <speed>0.24</speed>
  <fix>3d</fix>
</trkpt>
<trkpt lat="40.072842" lon="-105.2305768">
  <ele>1595.75</ele>
  <time>2026-08-28T19:07:26Z</time>
  <course>3.33</course>
  <speed>0.2308679276123039</speed>
  <fix>3d</fix>
</trkpt>
<trkpt lat="40.072842" lon="-105.2305772">
  <ele>1595.39</ele>
  <time>2026-08-28T19:07:26Z</time>
  <course>89.41</course>
  <speed>0.24</speed>
  <fix>3d</fix>
</trkpt>
<trkpt lat="40.072842" lon="-105.2305763">
  <ele>1595.94</ele>
  <time>2026-08-28T19:07:26Z</time>
  <course>4.05</course>
  <speed>0.2308679276123039</speed>
  <fix>3d</fix>
</trkpt>
<trkpt lat="40.072842" lon="-105.2305767">
  <ele>1595.62</ele>
  <time>2026-08-28T19:07:26Z</time>
  <course>89.72</course>
  <speed>0.24</speed>
  <fix>3d</fix>
</trkpt>
<trkpt lat="40.072842" lon="-105.2305757">
  <ele>1596.08</ele>
  <time>2026-08-28T19:07:26Z</time>
  <course>4.65</course>
  <speed>0.22090722034374521</speed>
  <fix>3d</fix>
</trkpt>
<trkpt lat="40.072842" lon="-105.230576">
  <ele>1595.8</ele>
  <time>2026-08-28T19:07:26Z</time>
  <course>90.18</course>
  <speed>0.24</speed>
  <fix>3d</fix>
</trkpt>
<trkpt lat="40.072842" lon="-105.2305752">
  <ele>1596.19</ele>
  <time>2026-08-28T19:07:26Z</time>
  <course>5.15</course>
  <speed>0.2109502310972899</speed>
  <fix>3d</fix>
</trkpt>
<trkpt lat="40.072842" lon="-105.2305755">
  <ele>1595.94</ele>
  <time>2026-08-28T19:07:26Z</time>
  <course>90.87</course>
  <speed>0.22</speed>
  <fix>3d</fix>
</trkpt>
<trkpt lat="40.072842" lon="-105.2305747">
  <ele>1596.26</ele>
  <time>2026-08-28T19:07:26Z</time>
  <course>5.6</course>
  <speed>0.191049731745428</speed>
  <fix>3d</fix>
</trkpt>
<trkpt lat="40.072842" lon="-105.230575">
  <ele>1596.04</ele>
  <time>2026-08-28T19:07:26Z</time>
  <course>91.83</course>
  <speed>0.21</speed>
  <fix>3d</fix>
</trkpt>
<trkpt lat="40.072842" lon="-105.2305742">
  <ele>1596.3</ele>
  <time>2026-08-28T19:07:26Z</time>
  <course>5.96</course>
  <speed>0.18110770276274835</speed>
  <fix>3d</fix>
</trkpt>
<trkpt lat="40.072842" lon="-105.2305745">
  <ele>1596.1</ele>
  <time>2026-08-28T19:07:26Z</time>
  <course>93.11</course>
  <speed>0.19</speed>
  <fix>3d</fix>
</trkpt>
<trkpt lat="40.072842" lon="-105.2305738">
  <ele>1596.29</ele>
  <time>2026-08-28T19:07:26Z</time>
  <course>1.41</course>
  <speed>0.140356688476182</speed>
  <fix>3d</fix>
</trkpt>
<trkpt lat="40.072842" lon="-105.230574">
  <ele>1596.13</ele>
  <time>2026-08-28T19:07:26Z</time>
  <course>95.05</course>
  <speed>0.18</speed>
  <fix>3d</fix>
</trkpt>
<trkpt lat="40.072842" lon="-105.2305735">
  <ele>1596.26</ele>
  <time>2026-08-28T19:07:26Z</time>
  <course>2.49</course>
  <speed>0.09</speed>
  <fix>3d</fix>
</trkpt>
<trkpt lat="40.072842" lon="-105.2305736">
  <ele>1596.11</ele>
  <time>2026-08-28T19:07:26Z</time>
  <course>100.93</course>
  <speed>0.15</speed>
  <fix>3d</fix>
</trkpt>
<trkpt lat="40.072842" lon="-105.2305733">
  <ele>1596.22</ele>
  <time>2026-08-28T19:07:26Z</time>
  <course>2.45</course>
  <speed>0.0316227766016838</speed>
  <fix>3d</fix>
</trkpt>
<trkpt lat="40.0728419" lon="-105.2305734">
  <ele>1596.08</ele>
  <time>2026-08-28T19:07:26Z</time>
  <course>115.18</course>
  <speed>0.09</speed>
  <fix>3d</fix>
</trkpt>
<trkpt lat="40.072842" lon="-105.2305733">
  <ele>1596.19</ele>
  <time>2026-08-28T19:07:26Z</time>
  <course>2.33</course>
  <speed>0.044721359549995794</speed>
  <fix>3d</fix>
</trkpt>
<trkpt lat="40.0728419" lon="-105.2305732">
  <ele>1596.05</ele>
  <time>2026-08-28T19:07:26Z</time>
  <course>148.01</course>
  <speed>0.03</speed>
  <fix>3d</fix>
</trkpt>
<trkpt lat="40.072842" lon="-105.2305735">
  <ele>1596.17</ele>
  <time>2026-08-28T19:07:26Z</time>
  <course>2.25</course>
  <speed>0.15620499351813308</speed>
  <fix>3d</fix>
</trkpt>
<trkpt lat="40.0728419" lon="-105.2305732">
  <ele>1596.03</ele>
  <time>2026-08-28T19:07:26Z</time>
  <course>281.71</course>
  <speed>0.06</speed>
  <fix>3d</fix>
</trkpt>
<trkpt lat="40.0728422" lon="-105.2305737">
  <ele>1596.15</ele>
  <time>2026-08-28T19:07:26Z</time>
  <course>2.17</course>
  <speed>0.2920616373302047</speed>
  <fix>3d</fix>
</trkpt>
<trkpt lat="40.0728419" lon="-105.2305734">
  <ele>1596.01</ele>
  <time>2026-08-28T19:07:26Z</time>
  <course>302.38</course>
  <speed>0.17</speed>
  <fix>3d</fix>
</trkpt>
<trkpt lat="40.0728427" lon="-105.2305742">
  <ele>1596.14</ele>
  <time>2026-08-28T19:07:26Z</time>
  <course>2.09</course>
  <speed>0.4522167621838005</speed>
  <fix>3d</fix>
</trkpt>
<trkpt lat="40.0728421" lon="-105.2305739">
  <ele>1596.0</ele>
  <time>2026-08-28T19:07:26Z</time>
  <course>310.25</course>
  <speed>0.32</speed>
  <fix>3d</fix>
</trkpt>
<trkpt lat="40.0728433" lon="-105.230575">
  <ele>1596.13</ele>
  <time>2026-08-28T19:07:26Z</time>
  <course>2.0</course>
  <speed>0.6185466837676846</speed>
  <fix>3d</fix>
</trkpt>
<trkpt lat="40.0728426" lon="-105.2305746">
  <ele>1596.0</ele>
  <time>2026-08-28T19:07:26Z</time>
  <course>314.85</course>
  <speed>0.48</speed>
  <fix>3d</fix>
</trkpt>
<trkpt lat="40.0728443" lon="-105.230576">
  <ele>1596.13</ele>
  <time>2026-08-28T19:07:26Z</time>
  <course>1.95</course>
  <speed>0.8015609770940699</speed>
  <fix>3d</fix>
</trkpt>
<trkpt lat="40.0728433" lon="-105.2305755">
  <ele>1596.0</ele>
  <time>2026-08-28T19:07:26Z</time>
  <course>318.19</course>
  <speed>0.67</speed>
  <fix>3d</fix>
</trkpt>
<trkpt lat="40.0728455" lon="-105.2305772">
  <ele>1596.14</ele>
  <time>2026-08-28T19:07:26Z</time>
  <course>2.03</course>
  <speed>1.0016985574512922</speed>
  <fix>3d</fix>
</trkpt>
<trkpt lat="40.0728444" lon="-105.2305767">
  <ele>1596.01</ele>
  <time>2026-08-28T19:07:26Z</time>
  <course>321.04</course>
  <speed>0.86</speed>
  <fix>3d</fix>
</trkpt>
<trkpt lat="40.0728471" lon="-105.2305787">
  <ele>1596.15</ele>
  <time>2026-08-28T19:07:26Z</time>
  <course>358.25</course>
  <speed>1.176477794095579</speed>
  <fix>3d</fix>
</trkpt>
<trkpt lat="40.0728457" lon="-105.2305781">
  <ele>1596.02</ele>
  <time>2026-08-28T19:07:26Z</time>
  <course>324.42</course>
  <speed>1.05</speed>
  <fix>3d</fix>
</trkpt>
<trkpt lat="40.072849" lon="-105.2305802">
  <ele>1596.15</ele>
  <time>2026-08-28T19:07:26Z</time>
  <course>344.06</course>
  <speed>1.3911865439257238</speed>
  <fix>3d</fix>
</trkpt>
<trkpt lat="40.0728475" lon="-105.2305796">
  <ele>1596.03</ele>
  <time>2026-08-28T19:07:26Z</time>
  <course>327.55</course>
  <speed>1.26</speed>
  <fix>3d</fix>
</trkpt>
<trkpt lat="40.0728513" lon="-105.2305821">
  <ele>1596.16</ele>
  <time>2026-08-28T19:07:26Z</time>
  <course>331.61</course>
  <speed>1.6201234520862908</speed>
  <fix>3d</fix>
</trkpt>
<trkpt lat="40.0728496" lon="-105.2305813">
  <ele>1596.04</ele>
  <time>2026-08-28T19:07:26Z</time>
  <course>328.71</course>
  <speed>1.48</speed>
  <fix>3d</fix>
</trkpt>
<trkpt lat="40.0728539" lon="-105.2305843">
  <ele>1596.17</ele>
  <time>2026-08-28T19:07:26Z</time>
  <course>324.52</course>
  <speed>1.8470787747142785</speed>
  <fix>3d</fix>
</trkpt>
<trkpt lat="40.0728521" lon="-105.2305832">
  <ele>1596.05</ele>
  <time>2026-08-28T19:07:26Z</time>
  <course>328.09</course>
  <speed>1.71</speed>
  <fix>3d</fix>
</trkpt>
<trkpt lat="40.0728569" lon="-105.2305868">
  <ele>1596.18</ele>
  <time>2026-08-28T19:07:26Z</time>
  <course>324.53</course>
  <speed>2.092510453976276</speed>
  <fix>3d</fix>
</trkpt>
<trkpt lat="40.0728548" lon="-105.2305855">
  <ele>1596.07</ele>
  <time>2026-08-28T19:07:26Z</time>
  <course>327.8</course>
  <speed>1.95</speed>
  <fix>3d</fix>
</trkpt>
<trkpt lat="40.0728603" lon="-105.2305895">
  <ele>1596.19</ele>
  <time>2026-08-28T19:07:26Z</time>
  <course>325.99</course>
  <speed>2.3854978516024703</speed>
  <fix>3d</fix>
</trkpt>
<trkpt lat="40.0728581" lon="-105.2305881">
  <ele>1596.08</ele>
  <time>2026-08-28T19:07:26Z</time>
  <course>328.87</course>
  <speed>2.21</speed>
  <fix>3d</fix>
</trkpt>
<trkpt lat="40.0728643" lon="-105.2305924">
  <ele>1596.2</ele>
  <time>2026-08-28T19:07:26Z</time>
  <course>327.62</course>
  <speed>2.723765775539446</speed>
  <fix>3d</fix>
</trkpt>
<trkpt lat="40.0728617" lon="-105.2305909">
  <ele>1596.09</ele>
  <time>2026-08-28T19:07:26Z</time>
  <course>330.55</course>
  <speed>2.52</speed>
  <fix>3d</fix>
</trkpt>
<trkpt lat="40.072869" lon="-105.2305956">
  <ele>1596.21</ele>
  <time>2026-08-28T19:07:26Z</time>
  <course>328.87</course>
  <speed>3.112812233334995</speed>
  <fix>3d</fix>
</trkpt>
<trkpt lat="40.072866" lon="-105.2305939">
  <ele>1596.1</ele>
  <time>2026-08-28T19:07:26Z</time>
  <course>332.18</course>
  <speed>2.87</speed>
  <fix>3d</fix>
</trkpt>
<trkpt lat="40.0728743" lon="-105.2305991">
  <ele>1596.22</ele>
  <time>2026-08-28T19:07:26Z</time>
  <course>329.65</course>
  <speed>3.5341194094144583</speed>
  <fix>3d</fix>
</trkpt>
<trkpt lat="40.0728709" lon="-105.2305971">
  <ele>1596.11</ele>
  <time>2026-08-28T19:07:26Z</time>
  <course>333.47</course>
  <speed>3.27</speed>
  <fix>3d</fix>
</trkpt>
<trkpt lat="40.0728804" lon="-105.230603">
  <ele>1596.23</ele>
  <time>2026-08-28T19:07:26Z</time>
  <course>330.07</course>
  <speed>3.9601136347332253</speed>
  <fix>3d</fix>
</trkpt>
<trkpt lat="40.0728765" lon="-105.2306007">
  <ele>1596.12</ele>
  <time>2026-08-28T19:07:26Z</time>
  <course>334.36</course>
  <speed>3.7</speed>
  <fix>3d</fix>
</trkpt>
<trkpt lat="40.0728872" lon="-105.2306071">
  <ele>1596.25</ele>
  <time>2026-08-28T19:07:26Z</time>
  <course>330.24</course>
  <speed>4.390455557228657</speed>
  <fix>3d</fix>
</trkpt>
<trkpt lat="40.0728828" lon="-105.2306047">
  <ele>1596.14</ele>
  <time>2026-08-28T19:07:26Z</time>
  <course>334.92</course>
  <speed>4.13</speed>
  <fix>3d</fix>
</trkpt>
<trkpt lat="40.0728948" lon="-105.2306117">
  <ele>1596.27</ele>
  <time>2026-08-28T19:07:26Z</time>
  <course>330.28</course>
  <speed>4.811756436063654</speed>
  <fix>3d</fix>
</trkpt>
<trkpt lat="40.07289" lon="-105.230609">
  <ele>1596.16</ele>
  <time>2026-08-28T19:07:26Z</time>
  <course>335.29</course>
  <speed>4.56</speed>
  <fix>3d</fix>
</trkpt>
<trkpt lat="40.072903" lon="-105.2306166">
  <ele>1596.29</ele>
  <time>2026-08-28T19:07:26Z</time>
  <course>330.28</course>
  <speed>5.2239640121271895</speed>
  <fix>3d</fix>
</trkpt>
<trkpt lat="40.0728978" lon="-105.2306136">
  <ele>1596.17</ele>
  <time>2026-08-28T19:07:26Z</time>
  <course>335.55</course>
  <speed>4.98</speed>
  <fix>3d</fix>
</trkpt>
<trkpt lat="40.0729119" lon="-105.2306218">
  <ele>1596.31</ele>
  <time>2026-08-28T19:07:26Z</time>
  <course>330.28</course>
  <speed>5.632131035407468</speed>
  <fix>3d</fix>
</trkpt>
<trkpt lat="40.0729063" lon="-105.2306186">
  <ele>1596.2</ele>
  <time>2026-08-28T19:07:26Z</time>
  <course>335.75</course>
  <speed>5.39</speed>
  <fix>3d</fix>
</trkpt>
<trkpt lat="40.0729215" lon="-105.2306274">
  <ele>1596.34</ele>
  <time>2026-08-28T19:07:26Z</time>
  <course>330.17</course>
  <speed>6.044377552734442</speed>
  <fix>3d</fix>
</trkpt>
<trkpt lat="40.0729155" lon="-105.2306241">
  <ele>1596.23</ele>
  <time>2026-08-28T19:07:26Z</time>
  <course>335.91</course>
  <speed>5.81</speed>
  <fix>3d</fix>
</trkpt>
<trkpt lat="40.0729317" lon="-105.2306334">
  <ele>1596.37</ele>
  <time>2026-08-28T19:07:26Z</time>
  <course>329.98</course>
  <speed>6.456632249090852</speed>
  <fix>3d</fix>
</trkpt>
<trkpt lat="40.0729254" lon="-105.2306299">
  <ele>1596.26</ele>
  <time>2026-08-28T19:07:26Z</time>
  <course>336.03</course>
  <speed>6.23</speed>
  <fix>3d</fix>
</trkpt>
<trkpt lat="40.0729427" lon="-105.2306398">
  <ele>1596.41</ele>
  <time>2026-08-28T19:07:26Z</time>
  <course>329.62</course>
  <speed>6.886101945222711</speed>
  <fix>3d</fix>
</trkpt>
<trkpt lat="40.0729359" lon="-105.230636">
  <ele>1596.3</ele>
  <time>2026-08-28T19:07:26Z</time>
  <course>336.09</course>
  <speed>6.65</speed>
  <fix>3d</fix>
</trkpt>
<trkpt lat="40.0729544" lon="-105.2306466">
  <ele>1596.44</ele>
  <time>2026-08-28T19:07:26Z</time>
  <course>329.25</course>
  <speed>7.302390019712724</speed>
  <fix>3d</fix>
</trkpt>
<trkpt lat="40.0729472" lon="-105.2306425">
  <ele>1596.34</ele>
  <time>2026-08-28T19:07:26Z</time>
  <course>336.09</course>
  <speed>7.08</speed>
  <fix>3d</fix>
</trkpt>
<trkpt lat="40.0729667" lon="-105.2306537">
  <ele>1596.49</ele>
  <time>2026-08-28T19:07:26Z</time>
  <course>328.98</course>
  <speed>7.695310260151959</speed>
  <fix>3d</fix>
</trkpt>
<trkpt lat="40.0729592" lon="-105.2306495">
  <ele>1596.38</ele>
  <time>2026-08-28T19:07:26Z</time>
  <course>336.02</course>
  <speed>7.5</speed>
  <fix>3d</fix>
</trkpt>
<trkpt lat="40.0729797" lon="-105.2306614">
  <ele>1596.55</ele>
  <time>2026-08-28T19:07:26Z</time>
  <course>328.87</course>
  <speed>8.04361237255998</speed>
  <fix>3d</fix>
</trkpt>
<trkpt lat="40.0729718" lon="-105.2306568">
  <ele>1596.43</ele>
  <time>2026-08-28T19:07:26Z</time>
  <course>335.9</course>
  <speed>7.88</speed>
  <fix>3d</fix>
</trkpt>
<trkpt lat="40.0729932" lon="-105.2306693">
  <ele>1596.61</ele>
  <time>2026-08-28T19:07:26Z</time>
  <course>328.93</course>
  <speed>8.356392762430449</speed>
  <fix>3d</fix>
</trkpt>
<trkpt lat="40.072985" lon="-105.2306646">
  <ele>1596.49</ele>
  <time>2026-08-28T19:07:26Z</time>
  <course>335.78</course>
  <speed>8.22</speed>
  <fix>3d</fix>
</trkpt>
<trkpt lat="40.0730071" lon="-105.2306776">
  <ele>1596.68</ele>
  <time>2026-08-28T19:07:26Z</time>
  <course>329.2</course>
  <speed>8.615393200545173</speed>
  <fix>3d</fix>
</trkpt>
<trkpt lat="40.0729987" lon="-105.2306727">
  <ele>1596.55</ele>
  <time>2026-08-28T19:07:26Z</time>
  <course>335.7</course>
  <speed>8.52</speed>
  <fix>3d</fix>
</trkpt>
<trkpt lat="40.0730216" lon="-105.2306861">
  <ele>1596.75</ele>
  <time>2026-08-28T19:07:26Z</time>
  <course>329.54</course>
  <speed>8.843822702881374</speed>
  <fix>3d</fix>
</trkpt>
<trkpt lat="40.0730129" lon="-105.230681">
  <ele>1596.62</ele>
  <time>2026-08-28T19:07:26Z</time>
  <course>335.66</course>
  <speed>8.77</speed>
  <fix>3d</fix>
</trkpt>
<trkpt lat="40.0730363" lon="-105.2306948">
  <ele>1596.82</ele>
  <time>2026-08-28T19:07:26Z</time>
  <course>329.96</course>
  <speed>9.040796425094419</speed>
  <fix>3d</fix>
</trkpt>
<trkpt lat="40.0730275" lon="-105.2306896">
  <ele>1596.7</ele>
  <time>2026-08-28T19:07:26Z</time>
  <course>335.66</course>
  <speed>8.99</speed>
  <fix>3d</fix>
</trkpt>
<trkpt lat="40.0730513" lon="-105.2307037">
  <ele>1596.89</ele>
  <time>2026-08-28T19:07:26Z</time>
  <course>330.4</course>
  <speed>9.202200823716032</speed>
  <fix>3d</fix>
</trkpt>
<trkpt lat="40.0730424" lon="-105.2306984">
  <ele>1596.77</ele>
  <time>2026-08-28T19:07:26Z</time>
  <course>335.7</course>
  <speed>9.17</speed>
  <fix>3d</fix>
</trkpt>
<trkpt lat="40.0730666" lon="-105.2307126">
  <ele>1596.97</ele>
  <time>2026-08-28T19:07:26Z</time>
  <course>330.85</course>
  <speed>9.341268650456424</speed>
  <fix>3d</fix>
</trkpt>
<trkpt lat="40.0730575" lon="-105.2307074">
  <ele>1596.84</ele>
  <time>2026-08-28T19:07:26Z</time>
  <course>335.76</course>
  <speed>9.33</speed>
  <fix>3d</fix>
</trkpt>
<trkpt lat="40.0730821" lon="-105.2307217">
  <ele>1597.05</ele>
  <time>2026-08-28T19:07:26Z</time>
  <course>331.33</course>
  <speed>9.444786921895062</speed>
  <fix>3d</fix>
</trkpt>
<trkpt lat="40.0730729" lon="-105.2307164">
  <ele>1596.91</ele>
  <time>2026-08-28T19:07:26Z</time>
  <course>335.82</course>
  <speed>9.46</speed>
  <fix>3d</fix>
</trkpt>
<trkpt lat="40.0730978" lon="-105.2307309">
  <ele>1597.12</ele>
  <time>2026-08-28T19:07:26Z</time>
  <course>331.81</course>
  <speed>9.525985513320919</speed>
  <fix>3d</fix>
</trkpt>
<trkpt lat="40.0730885" lon="-105.2307256">
  <ele>1596.99</ele>
  <time>2026-08-28T19:07:26Z</time>
  <course>335.88</course>
  <speed>9.55</speed>
  <fix>3d</fix>
</trkpt>
<trkpt lat="40.0731135" lon="-105.2307401">
  <ele>1597.19</ele>
  <time>2026-08-28T19:07:26Z</time>
  <course>332.27</course>
  <speed>9.566592914930581</speed>
  <fix>3d</fix>
</trkpt>
<trkpt lat="40.0731043" lon="-105.2307347">
  <ele>1597.06</ele>
  <time>2026-08-28T19:07:26Z</time>
  <course>335.95</course>
  <speed>9.62</speed>
  <fix>3d</fix>
</trkpt>
<trkpt lat="40.0731295" lon="-105.2307494">
  <ele>1597.26</ele>
  <time>2026-08-28T19:07:26Z</time>
  <course>332.77</course>
  <speed>9.584868282871707</speed>
  <fix>3d</fix>
</trkpt>
<trkpt lat="40.0731201" lon="-105.2307439">
  <ele>1597.12</ele>
  <time>2026-08-28T19:07:26Z</time>
  <course>336.01</course>
  <speed>9.65</speed>
  <fix>3d</fix>
</trkpt>
<trkpt lat="40.0731454" lon="-105.2307586">
  <ele>1597.32</ele>
  <time>2026-08-28T19:07:26Z</time>
  <course>333.19</course>
  <speed>9.580814161646181</speed>
  <fix>3d</fix>
</trkpt>
<trkpt lat="40.0731359" lon="-105.2307532">
  <ele>1597.19</ele>
  <time>2026-08-28T19:07:26Z</time>
  <course>336.07</course>
  <speed>9.65</speed>
  <fix>3d</fix>
</trkpt>
<trkpt lat="40.0731613" lon="-105.2307678">
  <ele>1597.38</ele>
  <time>2026-08-28T19:07:26Z</time>
  <course>333.51</course>
  <speed>9.563581964933432</speed>
  <fix>3d</fix>
</trkpt>
<trkpt lat="40.0731518" lon="-105.2307624">
  <ele>1597.26</ele>
  <time>2026-08-28T19:07:26Z</time>
  <course>336.12</course>
  <speed>9.64</speed>
  <fix>3d</fix>
</trkpt>
<trkpt lat="40.0731771" lon="-105.2307769">
  <ele>1597.43</ele>
  <time>2026-08-28T19:07:26Z</time>
  <course>333.65</course>
  <speed>9.563581964933432</speed>
  <fix>3d</fix>
</trkpt>
<trkpt lat="40.0731677" lon="-105.2307715">
  <ele>1597.31</ele>
  <time>2026-08-28T19:07:26Z</time>
  <course>336.17</course>
  <speed>9.62</speed>
  <fix>3d</fix>
</trkpt>
<trkpt lat="40.0731931" lon="-105.2307861">
  <ele>1597.48</ele>
  <time>2026-08-28T19:07:26Z</time>
  <course>333.68</course>
  <speed>9.572732107397552</speed>
  <fix>3d</fix>
</trkpt>
<trkpt lat="40.0731835" lon="-105.2307806">
  <ele>1597.36</ele>
  <time>2026-08-28T19:07:26Z</time>
  <course>336.19</course>
  <speed>9.61</speed>
  <fix>3d</fix>
</trkpt>
<trkpt lat="40.073209" lon="-105.2307953">
  <ele>1597.51</ele>
  <time>2026-08-28T19:07:26Z</time>
  <course>333.55</course>
  <speed>9.608251661983049</speed>
  <fix>3d</fix>
</trkpt>
<trkpt lat="40.0731993" lon="-105.2307897">
  <ele>1597.4</ele>
  <time>2026-08-28T19:07:26Z</time>
  <course>336.17</course>
  <speed>9.62</speed>
  <fix>3d</fix>
</trkpt>
<trkpt lat="40.0732249" lon="-105.2308045">
  <ele>1597.54</ele>
  <time>2026-08-28T19:07:26Z</time>
  <course>333.33</course>
  <speed>9.642743385572386</speed>
  <fix>3d</fix>
</trkpt>
<trkpt lat="40.0732151" lon="-105.2307989">
  <ele>1597.44</ele>
  <time>2026-08-28T19:07:26Z</time>
  <course>336.09</course>
  <speed>9.65</speed>
  <fix>3d</fix>
</trkpt>
<trkpt lat="40.0732408" lon="-105.2308138">
  <ele>1597.58</ele>
  <time>2026-08-28T19:07:26Z</time>
  <course>333.08</course>
  <speed>9.686444136007806</speed>
  <fix>3d</fix>
</trkpt>
<trkpt lat="40.0732309" lon="-105.2308081">
  <ele>1597.48</ele>
  <time>2026-08-28T19:07:26Z</time>
  <course>335.95</course>
  <speed>9.68</speed>
  <fix>3d</fix>
</trkpt>
<trkpt lat="40.0732568" lon="-105.2308232">
  <ele>1597.62</ele>
  <time>2026-08-28T19:07:27Z</time>
  <course>332.83</course>
  <speed>9.734320726172937</speed>
  <fix>3d</fix>
</trkpt>
<trkpt lat="40.0732469" lon="-105.2308174">
  <ele>1597.52</ele>
  <time>2026-08-28T19:07:27Z</time>
  <course>335.78</course>
  <speed>9.72</speed>
  <fix>3d</fix>
</trkpt>
<trkpt lat="40.0732728" lon="-105.2308327">
  <ele>1597.68</ele>
  <time>2026-08-28T19:07:27Z</time>
  <course>332.61</course>
  <speed>9.773213391715133</speed>
  <fix>3d</fix>
</trkpt>
<trkpt lat="40.0732628" lon="-105.2308268">
  <ele>1597.56</ele>
  <time>2026-08-28T19:07:27Z</time>
  <course>335.57</course>
  <speed>9.76</speed>
  <fix>3d</fix>
</trkpt>
<trkpt lat="40.0732889" lon="-105.2308424">
  <ele>1597.74</ele>
  <time>2026-08-28T19:07:27Z</time>
  <course>332.39</course>
  <speed>9.821328830662376</speed>
  <fix>3d</fix>
</trkpt>
<trkpt lat="40.0732788" lon="-105.2308364">
  <ele>1597.62</ele>
  <time>2026-08-28T19:07:27Z</time>
  <course>335.36</course>
  <speed>9.8</speed>
  <fix>3d</fix>
</trkpt>
<trkpt lat="40.073305" lon="-105.2308521">
  <ele>1597.8</ele>
  <time>2026-08-28T19:07:27Z</time>
  <course>332.23</course>
  <speed>9.856272114750078</speed>
  <fix>3d</fix>
</trkpt>
<trkpt lat="40.0732948" lon="-105.230846">
  <ele>1597.67</ele>
  <time>2026-08-28T19:07:27Z</time>
  <course>335.16</course>
  <speed>9.84</speed>
  <fix>3d</fix>
</trkpt>
<trkpt lat="40.0733211" lon="-105.2308619">
  <ele>1597.86</ele>
  <time>2026-08-28T19:07:27Z</time>
  <course>332.14</course>
  <speed>9.891294151929767</speed>
  <fix>3d</fix>
</trkpt>
<trkpt lat="40.0733109" lon="-105.2308558">
  <ele>1597.73</ele>
  <time>2026-08-28T19:07:27Z</time>
  <course>334.98</course>
  <speed>9.87</speed>
  <fix>3d</fix>
</trkpt>
<trkpt lat="40.0733372" lon="-105.2308718">
  <ele>1597.92</ele>
  <time>2026-08-28T19:07:27Z</time>
  <course>332.09</course>
  <speed>9.922136866623037</speed>
  <fix>3d</fix>
</trkpt>
<trkpt lat="40.073327" lon="-105.2308656">
  <ele>1597.79</ele>
  <time>2026-08-28T19:07:27Z</time>
  <course>334.83</course>
  <speed>9.9</speed>
  <fix>3d</fix>
</trkpt>
<trkpt lat="40.0733533" lon="-105.2308818">
  <ele>1597.97</ele>
  <time>2026-08-28T19:07:27Z</time>
  <course>332.0</course>
  <speed>9.95301461869719</speed>
  <fix>3d</fix>
</trkpt>
<trkpt lat="40.0733431" lon="-105.2308755">
  <ele>1597.85</ele>
  <time>2026-08-28T19:07:27Z</time>
  <course>334.71</course>
  <speed>9.94</speed>
  <fix>3d</fix>
</trkpt>
<trkpt lat="40.0733695" lon="-105.2308918">
  <ele>1598.03</ele>
  <time>2026-08-28T19:07:27Z</time>
  <course>331.96</course>
  <speed>9.97964428223772</speed>
  <fix>3d</fix>
</trkpt>
<trkpt lat="40.0733592" lon="-105.2308855">
  <ele>1597.9</ele>
  <time>2026-08-28T19:07:27Z</time>
  <course>334.63</course>
  <speed>9.97</speed>
  <fix>3d</fix>
</trkpt>
<trkpt lat="40.0733856" lon="-105.2309018">
  <ele>1598.09</ele>
  <time>2026-08-28T19:07:27Z</time>
  <course>331.93</course>
  <speed>10.006283026179101</speed>
  <fix>3d</fix>
</trkpt>
<trkpt lat="40.0733755" lon="-105.2308956">
  <ele>1597.97</ele>
  <time>2026-08-28T19:07:27Z</time>
  <course>334.57</course>
  <speed>10.0</speed>
  <fix>3d</fix>
</trkpt>
<trkpt lat="40.0734018" lon="-105.2309119">
  <ele>1598.15</ele>
  <time>2026-08-28T19:07:27Z</time>
  <course>331.99</course>
  <speed>10.02863899041141</speed>
  <fix>3d</fix>
</trkpt>
<trkpt lat="40.0733917" lon="-105.2309057">
  <ele>1598.03</ele>
  <time>2026-08-28T19:07:27Z</time>
  <course>334.53</course>
  <speed>10.03</speed>
  <fix>3d</fix>
</trkpt>
<trkpt lat="40.0734181" lon="-105.230922">
  <ele>1598.21</ele>
  <time>2026-08-28T19:07:27Z</time>
  <course>332.04</course>
  <speed>10.05099497562306</speed>
  <fix>3d</fix>
</trkpt>
<trkpt lat="40.073408" lon="-105.2309158">
  <ele>1598.09</ele>
  <time>2026-08-28T19:07:27Z</time>
  <course>334.53</course>
  <speed>10.05</speed>
  <fix>3d</fix>
</trkpt>
<trkpt lat="40.0734344" lon="-105.2309321">
  <ele>1598.27</ele>
  <time>2026-08-28T19:07:27Z</time>
  <course>332.13</course>
  <speed>10.069066490991109</speed>
  <fix>3d</fix>
</trkpt>
<trkpt lat="40.0734243" lon="-105.230926">
  <ele>1598.15</ele>
  <time>2026-08-28T19:07:27Z</time>
  <course>334.54</course>
  <speed>10.07</speed>
  <fix>3d</fix>
</trkpt>
<trkpt lat="40.0734507" lon="-105.2309423">
  <ele>1598.33</ele>
  <time>2026-08-28T19:07:27Z</time>
  <course>332.24</course>
  <speed>10.087145284965414</speed>
  <fix>3d</fix>
</trkpt>
<trkpt lat="40.0734407" lon="-105.2309362">
  <ele>1598.21</ele>
  <time>2026-08-28T19:07:27Z</time>
  <course>334.59</course>
  <speed>10.09</speed>
  <fix>3d</fix>
</trkpt>
<trkpt lat="40.0734672" lon="-105.2309524">
  <ele>1598.39</ele>
  <time>2026-08-28T19:07:27Z</time>
  <course>332.38</course>
  <speed>10.091922512584013</speed>
  <fix>3d</fix>
</trkpt>
<trkpt lat="40.0734571" lon="-105.2309463">
  <ele>1598.26</ele>
  <time>2026-08-28T19:07:27Z</time>
  <course>334.65</course>
  <speed>10.1</speed>
  <fix>3d</fix>
</trkpt>
<trkpt lat="40.0734837" lon="-105.2309626">
  <ele>1598.46</ele>
  <time>2026-08-28T19:07:27Z</time>
  <course>332.56</course>
  <speed>10.096717288307126</speed>
  <fix>3d</fix>
</trkpt>
<trkpt lat="40.0734735" lon="-105.2309564">
  <ele>1598.32</ele>
  <time>2026-08-28T19:07:27Z</time>
  <course>334.73</course>
  <speed>10.11</speed>
  <fix>3d</fix>
</trkpt>
<trkpt lat="40.0735001" lon="-105.2309727">
  <ele>1598.52</ele>
  <time>2026-08-28T19:07:27Z</time>
  <course>332.78</course>
  <speed>10.097296667920578</speed>
  <fix>3d</fix>
</trkpt>
<trkpt lat="40.07349" lon="-105.2309666">
  <ele>1598.38</ele>
  <time>2026-08-28T19:07:27Z</time>
  <course>334.82</course>
  <speed>10.11</speed>
  <fix>3d</fix>
</trkpt>
<trkpt lat="40.0735166" lon="-105.2309827">
  <ele>1598.58</ele>
  <time>2026-08-28T19:07:27Z</time>
  <course>333.01</course>
  <speed>10.088855237339864</speed>
  <fix>3d</fix>
</trkpt>
<trkpt lat="40.0735064" lon="-105.2309767">
  <ele>1598.44</ele>
  <time>2026-08-28T19:07:27Z</time>
  <course>334.92</course>
  <speed>10.1</speed>
  <fix>3d</fix>
</trkpt>
<trkpt lat="40.0735331" lon="-105.2309928">
  <ele>1598.64</ele>
  <time>2026-08-28T19:07:27Z</time>
  <course>333.24</course>
  <speed>10.06717438013269</speed>
  <fix>3d</fix>
</trkpt>
<trkpt lat="40.0735229" lon="-105.2309868">
  <ele>1598.5</ele>
  <time>2026-08-28T19:07:27Z</time>
  <course>335.03</course>
  <speed>10.09</speed>
  <fix>3d</fix>
</trkpt>
<trkpt lat="40.0735495" lon="-105.2310027">
  <ele>1598.7</ele>
  <time>2026-08-28T19:07:27Z</time>
  <course>333.46</course>
  <speed>10.049721389172936</speed>
  <fix>3d</fix>
</trkpt>
<trkpt lat="40.0735394" lon="-105.2309967">
  <ele>1598.56</ele>
  <time>2026-08-28T19:07:27Z</time>
  <course>335.14</course>
  <speed>10.07</speed>
  <fix>3d</fix>
</trkpt>
<trkpt lat="40.073566" lon="-105.2310126">
  <ele>1598.76</ele>
  <time>2026-08-28T19:07:27Z</time>
  <course>333.64</course>
  <speed>10.01903188935937</speed>
  <fix>3d</fix>
</trkpt>
<trkpt lat="40.0735557" lon="-105.2310066">
  <ele>1598.61</ele>
  <time>2026-08-28T19:07:27Z</time>
  <course>335.25</course>
  <speed>10.05</speed>
  <fix>3d</fix>
</trkpt>
<trkpt lat="40.0735823" lon="-105.2310224">
  <ele>1598.82</ele>
  <time>2026-08-28T19:07:27Z</time>
  <course>333.78</course>
  <speed>10.0016248679902</speed>
  <fix>3d</fix>
</trkpt>
<trkpt lat="40.0735721" lon="-105.2310165">
  <ele>1598.66</ele>
  <time>2026-08-28T19:07:27Z</time>
  <course>335.35</course>
  <speed>10.02</speed>
  <fix>3d</fix>
</trkpt>
<trkpt lat="40.0735987" lon="-105.2310322">
  <ele>1598.87</ele>
  <time>2026-08-28T19:07:27Z</time>
  <course>333.89</course>
  <speed>9.984237577301535</speed>
  <fix>3d</fix>
</trkpt>
<trkpt lat="40.0735885" lon="-105.2310263">
  <ele>1598.72</ele>
  <time>2026-08-28T19:07:27Z</time>
  <course>335.43</course>
  <speed>10.0</speed>
  <fix>3d</fix>
</trkpt>
<trkpt lat="40.0736151" lon="-105.231042">
  <ele>1598.92</ele>
  <time>2026-08-28T19:07:27Z</time>
  <course>333.96</course>
  <speed>9.970997944037498</speed>
  <fix>3d</fix>
</trkpt>
<trkpt lat="40.0736048" lon="-105.231036">
  <ele>1598.77</ele>
  <time>2026-08-28T19:07:27Z</time>
  <course>335.49</course>
  <speed>9.98</speed>
  <fix>3d</fix>
</trkpt>
<trkpt lat="40.0736314" lon="-105.2310517">
  <ele>1598.97</ele>
  <time>2026-08-28T19:07:27Z</time>
  <course>334.01</course>
  <speed>9.95776079246735</speed>
  <fix>3d</fix>
</trkpt>
<trkpt lat="40.0736211" lon="-105.2310457">
  <ele>1598.82</ele>
  <time>2026-08-28T19:07:27Z</time>
  <course>335.53</course>
  <speed>9.97</speed>
  <fix>3d</fix>
</trkpt>
<trkpt lat="40.0736477" lon="-105.2310614">
  <ele>1599.03</ele>
  <time>2026-08-28T19:07:27Z</time>
  <course>334.05</course>
  <speed>9.935416448242115</speed>
  <fix>3d</fix>
</trkpt>
<trkpt lat="40.0736374" lon="-105.2310554">
  <ele>1598.87</ele>
  <time>2026-08-28T19:07:27Z</time>
  <course>335.56</course>
  <speed>9.95</speed>
  <fix>3d</fix>
</trkpt>
<trkpt lat="40.0736639" lon="-105.231071">
  <ele>1599.08</ele>
  <time>2026-08-28T19:07:27Z</time>
  <course>334.1</course>
  <speed>9.922182219653095</speed>
  <fix>3d</fix>
</trkpt>
<trkpt lat="40.0736537" lon="-105.231065">
  <ele>1598.92</ele>
  <time>2026-08-28T19:07:27Z</time>
  <course>335.56</course>
  <speed>9.93</speed>
  <fix>3d</fix>
</trkpt>
<trkpt lat="40.0736802" lon="-105.2310807">
  <ele>1599.13</ele>
  <time>2026-08-28T19:07:27Z</time>
  <course>334.1</course>
  <speed>9.913072177685383</speed>
  <fix>3d</fix>
</trkpt>
<trkpt lat="40.0736699" lon="-105.2310747">
  <ele>1598.97</ele>
  <time>2026-08-28T19:07:27Z</time>
  <course>335.55</course>
  <speed>9.92</speed>
  <fix>3d</fix>
</trkpt>
<trkpt lat="40.0736965" lon="-105.2310904">
  <ele>1599.18</ele>
  <time>2026-08-28T19:07:27Z</time>
  <course>334.08</course>
  <speed>9.908097698347548</speed>
  <fix>3d</fix>
</trkpt>
<trkpt lat="40.0736862" lon="-105.2310844">
  <ele>1599.03</ele>
  <time>2026-08-28T19:07:27Z</time>
  <course>335.53</course>
  <speed>9.91</speed>
  <fix>3d</fix>
</trkpt>
<trkpt lat="40.0737127" lon="-105.2311">
  <ele>1599.23</ele>
  <time>2026-08-28T19:07:27Z</time>
  <course>333.99</course>
  <speed>9.89899489847328</speed>
  <fix>3d</fix>
</trkpt>
<trkpt lat="40.0737024" lon="-105.231094">
  <ele>1599.08</ele>
  <time>2026-08-28T19:07:27Z</time>
  <course>335.49</course>
  <speed>9.9</speed>
  <fix>3d</fix>
</trkpt>
<trkpt lat="40.0737289" lon="-105.2311097">
  <ele>1599.28</ele>
  <time>2026-08-28T19:07:27Z</time>
  <course>333.94</course>
  <speed>9.903140915891282</speed>
  <fix>3d</fix>
</trkpt>
<trkpt lat="40.0737186" lon="-105.2311036">
  <ele>1599.14</ele>
  <time>2026-08-28T19:07:27Z</time>
  <course>335.44</course>
  <speed>9.9</speed>
  <fix>3d</fix>
</trkpt>
<trkpt lat="40.0737451" lon="-105.2311194">
  <ele>1599.33</ele>
  <time>2026-08-28T19:07:27Z</time>
  <course>333.88</course>
  <speed>9.898201856903102</speed>
  <fix>3d</fix>
</trkpt>
<trkpt lat="40.0737347" lon="-105.2311133">
  <ele>1599.19</ele>
  <time>2026-08-28T19:07:27Z</time>
  <course>335.37</course>
  <speed>9.9</speed>
  <fix>3d</fix>
</trkpt>
<trkpt lat="40.0737613" lon="-105.2311291">
  <ele>1599.39</ele>
  <time>2026-08-28T19:07:27Z</time>
  <course>333.78</course>
  <speed>9.902368403568916</speed>
  <fix>3d</fix>
</trkpt>
<trkpt lat="40.0737509" lon="-105.231123">
  <ele>1599.25</ele>
  <time>2026-08-28T19:07:27Z</time>
  <course>335.31</course>
  <speed>9.89</speed>
  <fix>3d</fix>
</trkpt>
<trkpt lat="40.0737774" lon="-105.2311388">
  <ele>1599.45</ele>
  <time>2026-08-28T19:07:27Z</time>
  <course>333.73</course>
  <speed>9.897459269933876</speed>
  <fix>3d</fix>
</trkpt>
<trkpt lat="40.0737671" lon="-105.2311327">
  <ele>1599.31</ele>
  <time>2026-08-28T19:07:27Z</time>
  <course>335.23</course>
  <speed>9.9</speed>
  <fix>3d</fix>
</trkpt>
<trkpt lat="40.0737936" lon="-105.2311486">
  <ele>1599.51</ele>
  <time>2026-08-28T19:07:27Z</time>
  <course>333.66</course>
  <speed>9.901646327757824</speed>
  <fix>3d</fix>
</trkpt>
<trkpt lat="40.0737832" lon="-105.2311425">
  <ele>1599.37</ele>
  <time>2026-08-28T19:07:27Z</time>
  <course>335.17</course>
  <speed>9.9</speed>
  <fix>3d</fix>
</trkpt>
<trkpt lat="40.0738098" lon="-105.2311584">
  <ele>1599.57</ele>
  <time>2026-08-28T19:07:27Z</time>
  <course>333.59</course>
  <speed>9.914918053115718</speed>
  <fix>3d</fix>
</trkpt>
<trkpt lat="40.0737994" lon="-105.2311522">
  <ele>1599.42</ele>
  <time>2026-08-28T19:07:27Z</time>
  <course>335.1</course>
  <speed>9.91</speed>
  <fix>3d</fix>
</trkpt>
<trkpt lat="40.0738259" lon="-105.2311682">
  <ele>1599.62</ele>
  <time>2026-08-28T19:07:27Z</time>
  <course>333.55</course>
  <speed>9.919117904330001</speed>
  <fix>3d</fix>
</trkpt>
<trkpt lat="40.0738156" lon="-105.2311621">
  <ele>1599.49</ele>
  <time>2026-08-28T19:07:27Z</time>
  <course>335.05</course>
  <speed>9.92</speed>
  <fix>3d</fix>
</trkpt>
<trkpt lat="40.073842" lon="-105.231178">
  <ele>1599.68</ele>
  <time>2026-08-28T19:07:27Z</time>
  <course>333.52</course>
  <speed>9.932396488260022</speed>
  <fix>3d</fix>
</trkpt>
<trkpt lat="40.0738317" lon="-105.2311719">
  <ele>1599.55</ele>
  <time>2026-08-28T19:07:27Z</time>
  <course>335.01</course>
  <speed>9.93</speed>
  <fix>3d</fix>
</trkpt>
<trkpt lat="40.0738582" lon="-105.2311879">
  <ele>1599.75</ele>
  <time>2026-08-28T19:07:27Z</time>
  <course>333.49</course>
  <speed>9.945677453044613</speed>
  <fix>3d</fix>
</trkpt>
<trkpt lat="40.0738479" lon="-105.2311818">
  <ele>1599.61</ele>
  <time>2026-08-28T19:07:27Z</time>
  <course>334.97</course>
  <speed>9.94</speed>
  <fix>3d</fix>
</trkpt>
<trkpt lat="40.0738744" lon="-105.2311978">
  <ele>1599.81</ele>
  <time>2026-08-28T19:07:27Z</time>
  <course>333.46</course>
  <speed>9.958960789158676</speed>
  <fix>3d</fix>
</trkpt>
<trkpt lat="40.073864" lon="-105.2311917">
  <ele>1599.66</ele>
  <time>2026-08-28T19:07:27Z</time>
  <course>334.94</course>
  <speed>9.96</speed>
  <fix>3d</fix>
</trkpt>
<trkpt lat="40.0738906" lon="-105.2312077">
  <ele>1599.87</ele>
  <time>2026-08-28T19:07:27Z</time>
  <course>333.47</course>
  <speed>9.972246487126158</speed>
  <fix>3d</fix>
</trkpt>
<trkpt lat="40.0738803" lon="-105.2312016">
  <ele>1599.73</ele>
  <time>2026-08-28T19:07:27Z</time>
  <course>334.92</course>
  <speed>9.97</speed>
  <fix>3d</fix>
</trkpt>
<trkpt lat="40.0739068" lon="-105.2312176">
  <ele>1599.93</ele>
  <time>2026-08-28T19:07:27Z</time>
  <course>333.49</course>
  <speed>9.981312538939957</speed>
  <fix>3d</fix>
</trkpt>
<trkpt lat="40.0738966" lon="-105.2312115">
  <ele>1599.78</ele>
  <time>2026-08-28T19:07:27Z</time>
  <course>334.92</course>
  <speed>9.99</speed>
  <fix>3d</fix>
</trkpt>
<trkpt lat="40.0739231" lon="-105.2312275">
  <ele>1599.99</ele>
  <time>2026-08-28T19:07:27Z</time>
  <course>333.51</course>
  <speed>9.999449984874168</speed>
  <fix>3d</fix>
</trkpt>
<trkpt lat="40.0739128" lon="-105.2312215">
  <ele>1599.84</ele>
  <time>2026-08-28T19:07:27Z</time>
  <course>334.92</course>
  <speed>10.0</speed>
  <fix>3d</fix>
</trkpt>
<trkpt lat="40.0739393" lon="-105.2312375">
  <ele>1600.05</ele>
  <time>2026-08-28T19:07:27Z</time>
  <course>333.59</course>
  <speed>10.012731894942558</speed>
  <fix>3d</fix>
</trkpt>
<trkpt lat="40.0739291" lon="-105.2312314">
  <ele>1599.9</ele>
  <time>2026-08-28T19:07:27Z</time>
  <course>334.94</course>
  <speed>10.02</speed>
  <fix>3d</fix>
</trkpt>
<trkpt lat="40.0739557" lon="-105.2312474">
  <ele>1600.1</ele>
  <time>2026-08-28T19:07:27Z</time>
  <course>333.64</course>
  <speed>10.017594521640412</speed>
  <fix>3d</fix>
</trkpt>
<trkpt lat="40.0739454" lon="-105.2312413">
  <ele>1599.95</ele>
  <time>2026-08-28T19:07:27Z</time>
  <course>334.97</course>
  <speed>10.03</speed>
  <fix>3d</fix>
</trkpt>
<trkpt lat="40.0739721" lon="-105.2312574">
  <ele>1600.16</ele>
  <time>2026-08-28T19:07:27Z</time>
  <course>333.7</course>
  <speed>10.026669437056356</speed>
  <fix>3d</fix>
</trkpt>
<trkpt lat="40.0739618" lon="-105.2312513">
  <ele>1600.01</ele>
  <time>2026-08-28T19:07:27Z</time>
  <course>335.0</course>
  <speed>10.04</speed>
  <fix>3d</fix>
</trkpt>
<trkpt lat="40.0739885" lon="-105.2312673">
  <ele>1600.22</ele>
  <time>2026-08-28T19:07:27Z</time>
  <course>333.77</course>
  <speed>10.035746110778211</speed>
  <fix>3d</fix>
</trkpt>
<trkpt lat="40.0739782" lon="-105.2312613">
  <ele>1600.07</ele>
  <time>2026-08-28T19:07:27Z</time>
  <course>335.04</course>
  <speed>10.05</speed>
  <fix>3d</fix>
</trkpt>
<trkpt lat="40.0740048" lon="-105.2312773">
  <ele>1600.28</ele>
  <time>2026-08-28T19:07:27Z</time>
  <course>333.86</course>
  <speed>10.040637429964296</speed>
  <fix>3d</fix>
</trkpt>
<trkpt lat="40.0739946" lon="-105.2312713">
  <ele>1600.13</ele>
  <time>2026-08-28T19:07:27Z</time>
  <course>335.08</course>
  <speed>10.06</speed>
  <fix>3d</fix>
</trkpt>
<trkpt lat="40.0740213" lon="-105.2312872">
  <ele>1600.34</ele>
  <time>2026-08-28T19:07:27Z</time>
  <course>333.96</course>
  <speed>10.040637429964296</speed>
  <fix>3d</fix>
</trkpt>
<trkpt lat="40.074011" lon="-105.2312812">
  <ele>1600.19</ele>
  <time>2026-08-28T19:07:27Z</time>
  <course>335.13</course>
  <speed>10.06</speed>
  <fix>3d</fix>
</trkpt>
<trkpt lat="40.0740378" lon="-105.2312972">
  <ele>1600.39</ele>
  <time>2026-08-28T19:07:27Z</time>
  <course>334.08</course>
  <speed>10.03645853874762</speed>
  <fix>3d</fix>
</trkpt>
<trkpt lat="40.0740275" lon="-105.2312912">
  <ele>1600.25</ele>
  <time>2026-08-28T19:07:27Z</time>
  <course>335.18</course>
  <speed>10.06</speed>
  <fix>3d</fix>
</trkpt>
<trkpt lat="40.0740542" lon="-105.2313071">
  <ele>1600.44</ele>
  <time>2026-08-28T19:07:27Z</time>
  <course>334.19</course>
  <speed>10.032287874657506</speed>
  <fix>3d</fix>
</trkpt>
<trkpt lat="40.0740438" lon="-105.2313011">
  <ele>1600.3</ele>
  <time>2026-08-28T19:07:27Z</time>
  <course>335.22</course>
  <speed>10.05</speed>
  <fix>3d</fix>
</trkpt>
<trkpt lat="40.0740706" lon="-105.2313169">
  <ele>1600.5</ele>
  <time>2026-08-28T19:07:27Z</time>
  <course>334.26</course>
  <speed>10.01903188935937</speed>
  <fix>3d</fix>
</trkpt>
<trkpt lat="40.0740602" lon="-105.231311">
  <ele>1600.36</ele>
  <time>2026-08-28T19:07:27Z</time>
  <course>335.27</course>
  <speed>10.04</speed>
  <fix>3d</fix>
</trkpt>
<trkpt lat="40.0740869" lon="-105.2313268">
  <ele>1600.56</ele>
  <time>2026-08-28T19:07:27Z</time>
  <course>334.32</course>
  <speed>10.014873938297974</speed>
  <fix>3d</fix>
</trkpt>
<trkpt lat="40.0740766" lon="-105.2313208">
  <ele>1600.41</ele>
  <time>2026-08-28T19:07:27Z</time>
  <course>335.31</course>
  <speed>10.03</speed>
  <fix>3d</fix>
</trkpt>
<trkpt lat="40.0741033" lon="-105.2313366">
  <ele>1600.61</ele>
  <time>2026-08-28T19:07:27Z</time>
  <course>334.38</course>
  <speed>10.0016248679902</speed>
  <fix>3d</fix>
</trkpt>
<trkpt lat="40.074093" lon="-105.2313307">
  <ele>1600.48</ele>
  <time>2026-08-28T19:07:27Z</time>
  <course>335.35</course>
  <speed>10.02</speed>
  <fix>3d</fix>
</trkpt>
<trkpt lat="40.0741197" lon="-105.2313464">
  <ele>1600.67</ele>
  <time>2026-08-28T19:07:27Z</time>
  <course>334.43</course>
  <speed>9.988378246742561</speed>
  <fix>3d</fix>
</trkpt>
<trkpt lat="40.0741094" lon="-105.2313404">
  <ele>1600.54</ele>
  <time>2026-08-28T19:07:27Z</time>
  <course>335.38</course>
  <speed>10.02</speed>
  <fix>3d</fix>
</trkpt>
<trkpt lat="40.074136" lon="-105.2313562">
  <ele>1600.73</ele>
  <time>2026-08-28T19:07:27Z</time>
  <course>334.45</course>
  <speed>9.988378246742561</speed>
  <fix>3d</fix>
</trkpt>
<trkpt lat="40.0741257" lon="-105.2313503">
  <ele>1600.6</ele>
  <time>2026-08-28T19:07:27Z</time>
  <course>335.39</course>
  <speed>10.01</speed>
  <fix>3d</fix>
</trkpt>
<trkpt lat="40.0741524" lon="-105.231366">
  <ele>1600.79</ele>
  <time>2026-08-28T19:07:27Z</time>
  <course>334.47</course>
  <speed>9.97513408431185</speed>
  <fix>3d</fix>
</trkpt>
<trkpt lat="40.0741421" lon="-105.23136">
  <ele>1600.65</ele>
  <time>2026-08-28T19:07:27Z</time>
  <course>335.4</course>
  <speed>10.0</speed>
  <fix>3d</fix>
</trkpt>
<trkpt lat="40.0741687" lon="-105.2313757">
  <ele>1600.86</ele>
  <time>2026-08-28T19:07:27Z</time>
  <course>334.5</course>
  <speed>9.966032309801129</speed>
  <fix>3d</fix>
</trkpt>
<trkpt lat="40.0741584" lon="-105.2313697">
  <ele>1600.72</ele>
  <time>2026-08-28T19:07:27Z</time>
  <course>335.4</course>
  <speed>9.99</speed>
  <fix>3d</fix>
</trkpt>
<trkpt lat="40.074185" lon="-105.2313855">
  <ele>1600.92</ele>
  <time>2026-08-28T19:07:27Z</time>
  <course>334.54</course>
  <speed>9.956932258482027</speed>
  <fix>3d</fix>
</trkpt>
<trkpt lat="40.0741747" lon="-105.2313796">
  <ele>1600.78</ele>
  <time>2026-08-28T19:07:27Z</time>
  <course>335.4</course>
  <speed>9.98</speed>
  <fix>3d</fix>
</trkpt>
<trkpt lat="40.0742013" lon="-105.2313952">
  <ele>1600.98</ele>
  <time>2026-08-28T19:07:27Z</time>
  <course>334.53</course>
  <speed>9.947833935083557</speed>
  <fix>3d</fix>
</trkpt>
<trkpt lat="40.0741911" lon="-105.2313893">
  <ele>1600.83</ele>
  <time>2026-08-28T19:07:27Z</time>
  <course>335.39</course>
  <speed>9.98</speed>
  <fix>3d</fix>
</trkpt>
<trkpt lat="40.0742175" lon="-105.2314049">
  <ele>1601.03</ele>
  <time>2026-08-28T19:07:27Z</time>
  <course>334.53</course>
  <speed>9.947833935083557</speed>
  <fix>3d</fix>
</trkpt>
<trkpt lat="40.0742074" lon="-105.2313991">
  <ele>1600.89</ele>
  <time>2026-08-28T19:07:27Z</time>
  <course>335.37</course>
  <speed>9.97</speed>
  <fix>3d</fix>
</trkpt>
<trkpt lat="40.0742338" lon="-105.2314147">
  <ele>1601.09</ele>
  <time>2026-08-28T19:07:27Z</time>
  <course>334.48</course>
  <speed>9.947833935083557</speed>
  <fix>3d</fix>
</trkpt>
<trkpt lat="40.0742236" lon="-105.2314088">
  <ele>1600.94</ele>
  <time>2026-08-28T19:07:27Z</time>
  <course>335.35</course>
  <speed>9.97</speed>
  <fix>3d</fix>
</trkpt>
<trkpt lat="40.07425" lon="-105.2314244">
  <ele>1601.14</ele>
  <time>2026-08-28T19:07:27Z</time>
  <course>334.43</course>
  <speed>9.951989750798582</speed>
  <fix>3d</fix>
</trkpt>
<trkpt lat="40.0742399" lon="-105.2314186">
  <ele>1601.0</ele>
  <time>2026-08-28T19:07:27Z</time>
  <course>335.32</course>
  <speed>9.97</speed>
  <fix>3d</fix>
</trkpt>
<trkpt lat="40.0742662" lon="-105.2314342">
  <ele>1601.19</ele>
  <time>2026-08-28T19:07:27Z</time>
  <course>334.39</course>
  <speed>9.956153875869939</speed>
  <fix>3d</fix>
</trkpt>
<trkpt lat="40.0742562" lon="-105.2314284">
  <ele>1601.05</ele>
  <time>2026-08-28T19:07:27Z</time>
  <course>335.29</course>
  <speed>9.97</speed>
  <fix>3d</fix>
</trkpt>
<trkpt lat="40.0742825" lon="-105.231444">
  <ele>1601.25</ele>
  <time>2026-08-28T19:07:27Z</time>
  <course>334.35</course>
  <speed>9.956153875869939</speed>
  <fix>3d</fix>
</trkpt>
<trkpt lat="40.0742725" lon="-105.2314381">
  <ele>1601.11</ele>
  <time>2026-08-28T19:07:27Z</time>
  <course>335.25</course>
  <speed>9.98</speed>
  <fix>3d</fix>
</trkpt>
<trkpt lat="40.0742988" lon="-105.2314538">
  <ele>1601.31</ele>
  <time>2026-08-28T19:07:27Z</time>
  <course>334.27</course>
  <speed>9.960326299875923</speed>
  <fix>3d</fix>
</trkpt>
<trkpt lat="40.0742888" lon="-105.231448">
  <ele>1601.16</ele>
  <time>2026-08-28T19:07:27Z</time>
  <course>335.21</course>
  <speed>9.98</speed>
  <fix>3d</fix>
</trkpt>
<trkpt lat="40.0743151" lon="-105.2314637">
  <ele>1601.36</ele>
  <time>2026-08-28T19:07:27Z</time>
  <course>334.27</course>
  <speed>9.973590125927574</speed>
  <fix>3d</fix>
</trkpt>
<trkpt lat="40.074305" lon="-105.2314578">
  <ele>1601.22</ele>
  <time>2026-08-28T19:07:27Z</time>
  <course>335.18</course>
  <speed>9.99</speed>
  <fix>3d</fix>
</trkpt>
<trkpt lat="40.0743315" lon="-105.2314736">
  <ele>1601.42</ele>
  <time>2026-08-28T19:07:27Z</time>
  <course>334.25</course>
  <speed>9.97777530314248</speed>
  <fix>3d</fix>
</trkpt>
<trkpt lat="40.0743213" lon="-105.2314677">
  <ele>1601.28</ele>
  <time>2026-08-28T19:07:27Z</time>
  <course>335.14</course>
  <speed>9.99</speed>
  <fix>3d</fix>
</trkpt>
<trkpt lat="40.0743478" lon="-105.2314835">
  <ele>1601.48</ele>
  <time>2026-08-28T19:07:27Z</time>
  <course>334.25</course>
  <speed>9.97777530314248</speed>
  <fix>3d</fix>
</trkpt>
<trkpt lat="40.0743377" lon="-105.2314775">
  <ele>1601.34</ele>
  <time>2026-08-28T19:07:27Z</time>
  <course>335.12</course>
  <speed>10.0</speed>
  <fix>3d</fix>
</trkpt>
<trkpt lat="40.0743641" lon="-105.2314934">
  <ele>1601.53</ele>
  <time>2026-08-28T19:07:27Z</time>
  <course>334.25</course>
  <speed>9.97777530314248</speed>
  <fix>3d</fix>
</trkpt>
<trkpt lat="40.074354" lon="-105.2314875">
  <ele>1601.4</ele>
  <time>2026-08-28T19:07:27Z</time>
  <course>335.09</course>
  <speed>10.0</speed>
  <fix>3d</fix>
</trkpt>
<trkpt lat="40.0743805" lon="-105.2315033">
  <ele>1601.59</ele>
  <time>2026-08-28T19:07:27Z</time>
  <course>334.28</course>
  <speed>9.97777530314248</speed>
  <fix>3d</fix>
</trkpt>
<trkpt lat="40.0743703" lon="-105.2314974">
  <ele>1601.46</ele>
  <time>2026-08-28T19:07:27Z</time>
  <course>335.08</course>
  <speed>9.99</speed>
  <fix>3d</fix>
</trkpt>
<trkpt lat="40.0743967" lon="-105.2315132">
  <ele>1601.65</ele>
  <time>2026-08-28T19:07:27Z</time>
  <course>334.3</course>
  <speed>9.968696002988555</speed>
  <fix>3d</fix>
</trkpt>
<trkpt lat="40.0743866" lon="-105.2315072">
  <ele>1601.52</ele>
  <time>2026-08-28T19:07:27Z</time>
  <course>335.08</course>
  <speed>9.99</speed>
  <fix>3d</fix>
</trkpt>
<trkpt lat="40.074413" lon="-105.2315231">
  <ele>1601.71</ele>
  <time>2026-08-28T19:07:27Z</time>
  <course>334.34</course>
  <speed>9.968696002988555</speed>
  <fix>3d</fix>
</trkpt>
<trkpt lat="40.0744028" lon="-105.2315171">
  <ele>1601.58</ele>
  <time>2026-08-28T19:07:27Z</time>
  <course>335.08</course>
  <speed>9.99</speed>
  <fix>3d</fix>
</trkpt>
<trkpt lat="40.0744293" lon="-105.2315329">
  <ele>1601.77</ele>
  <time>2026-08-28T19:07:27Z</time>
  <course>334.36</course>
  <speed>9.96450701239153</speed>
  <fix>3d</fix>
</trkpt>
<trkpt lat="40.0744191" lon="-105.231527">
  <ele>1601.63</ele>
  <time>2026-08-28T19:07:27Z</time>
  <course>335.09</course>
  <speed>9.98</speed>
  <fix>3d</fix>
</trkpt>
<trkpt lat="40.0744455" lon="-105.2315428">
  <ele>1601.83</ele>
  <time>2026-08-28T19:07:27Z</time>
  <course>334.37</course>
  <speed>9.96450701239153</speed>
  <fix>3d</fix>
</trkpt>
<trkpt lat="40.0744354" lon="-105.2315369">
  <ele>1601.69</ele>
  <time>2026-08-28T19:07:27Z</time>
  <course>335.11</course>
  <speed>9.98</speed>
  <fix>3d</fix>
</trkpt>
<trkpt lat="40.0744618" lon="-105.2315526">
  <ele>1601.89</ele>
  <time>2026-08-28T19:07:27Z</time>
  <course>334.38</course>
  <speed>9.96450701239153</speed>
  <fix>3d</fix>
</trkpt>
<trkpt lat="40.0744517" lon="-105.2315467">
  <ele>1601.75</ele>
  <time>2026-08-28T19:07:27Z</time>
  <course>335.13</course>
  <speed>9.98</speed>
  <fix>3d</fix>
</trkpt>
<trkpt lat="40.0744781" lon="-105.2315625">
  <ele>1601.94</ele>
  <time>2026-08-28T19:07:27Z</time>
  <course>334.39</course>
  <speed>9.973590125927574</speed>
  <fix>3d</fix>
</trkpt>
<trkpt lat="40.0744679" lon="-105.2315566">
  <ele>1601.8</ele>
  <time>2026-08-28T19:07:27Z</time>
  <course>335.15</course>
  <speed>9.99</speed>
  <fix>3d</fix>
</trkpt>
<trkpt lat="40.0744944" lon="-105.2315724">
  <ele>1601.99</ele>
  <time>2026-08-28T19:07:27Z</time>
  <course>334.39</course>
  <speed>9.973590125927574</speed>
  <fix>3d</fix>
</trkpt>
<trkpt lat="40.0744842" lon="-105.2315664">
  <ele>1601.86</ele>
  <time>2026-08-28T19:07:27Z</time>
  <course>335.16</course>
  <speed>9.99</speed>
  <fix>3d</fix>
</trkpt>
<trkpt lat="40.0745107" lon="-105.2315822">
  <ele>1602.05</ele>
  <time>2026-08-28T19:07:27Z</time>
  <course>334.43</course>
  <speed>9.982674992205245</speed>
  <fix>3d</fix>
</trkpt>
<trkpt lat="40.0745005" lon="-105.2315763">
  <ele>1601.91</ele>
  <time>2026-08-28T19:07:27Z</time>
  <course>335.17</course>
  <speed>10.0</speed>
  <fix>3d</fix>
</trkpt>
<trkpt lat="40.074527" lon="-105.2315921">
  <ele>1602.11</ele>
  <time>2026-08-28T19:07:27Z</time>
  <course>334.46</course>
  <speed>9.982674992205245</speed>
  <fix>3d</fix>
</trkpt>
<trkpt lat="40.0745169" lon="-105.2315862">
  <ele>1601.98</ele>
  <time>2026-08-28T19:07:27Z</time>
  <course>335.18</course>
  <speed>10.0</speed>
  <fix>3d</fix>
</trkpt>
<trkpt lat="40.0745434" lon="-105.231602">
  <ele>1602.17</ele>
  <time>2026-08-28T19:07:27Z</time>
  <course>334.49</course>
  <speed>9.982674992205245</speed>
  <fix>3d</fix>
</trkpt>
<trkpt lat="40.0745332" lon="-105.231596">
  <ele>1602.03</ele>
  <time>2026-08-28T19:07:27Z</time>
  <course>335.2</course>
  <speed>10.0</speed>
  <fix>3d</fix>
</trkpt>
<trkpt lat="40.0745597" lon="-105.2316118">
  <ele>1602.23</ele>
  <time>2026-08-28T19:07:27Z</time>
  <course>334.54</course>
  <speed>9.97850189156669</speed>
  <fix>3d</fix>
</trkpt>
<trkpt lat="40.0745495" lon="-105.2316059">
  <ele>1602.09</ele>
  <time>2026-08-28T19:07:27Z</time>
  <course>335.21</course>
  <speed>10.0</speed>
  <fix>3d</fix>
</trkpt>
<trkpt lat="40.074576" lon="-105.2316216">
  <ele>1602.29</ele>
  <time>2026-08-28T19:07:27Z</time>
  <course>334.57</course>
  <speed>9.97850189156669</speed>
  <fix>3d</fix>
</trkpt>
<trkpt lat="40.0745658" lon="-105.2316157">
  <ele>1602.15</ele>
  <time>2026-08-28T19:07:27Z</time>
  <course>335.22</course>
  <speed>10.0</speed>
  <fix>3d</fix>
</trkpt>
<trkpt lat="40.0745922" lon="-105.2316314">
  <ele>1602.35</ele>
  <time>2026-08-28T19:07:27Z</time>
  <course>334.58</course>
  <speed>9.97850189156669</speed>
  <fix>3d</fix>
</trkpt>
<trkpt lat="40.0745821" lon="-105.2316256">
  <ele>1602.21</ele>
  <time>2026-08-28T19:07:27Z</time>
  <course>335.23</course>
  <speed>10.0</speed>
  <fix>3d</fix>
</trkpt>
<trkpt lat="40.0746085" lon="-105.2316412">
  <ele>1602.4</ele>
  <time>2026-08-28T19:07:27Z</time>
  <course>334.59</course>
  <speed>9.97850189156669</speed>
  <fix>3d</fix>
</trkpt>
<trkpt lat="40.0745984" lon="-105.2316353">
  <ele>1602.27</ele>
  <time>2026-08-28T19:07:27Z</time>
  <course>335.24</course>
  <speed>10.0</speed>
  <fix>3d</fix>
</trkpt>
<trkpt lat="40.0746247" lon="-105.231651">
  <ele>1602.46</ele>
  <time>2026-08-28T19:07:27Z</time>
  <course>334.59</course>
  <speed>9.97850189156669</speed>
  <fix>3d</fix>
</trkpt>
<trkpt lat="40.0746148" lon="-105.2316452">
  <ele>1602.32</ele>
  <time>2026-08-28T19:07:27Z</time>
  <course>335.25</course>
  <speed>10.0</speed>
  <fix>3d</fix>
</trkpt>
<trkpt lat="40.074641" lon="-105.2316608">
  <ele>1602.51</ele>
  <time>2026-08-28T19:07:27Z</time>
  <course>334.58</course>
  <speed>9.987592302452079</speed>
  <fix>3d</fix>
</trkpt>
<trkpt lat="40.0746311" lon="-105.231655">
  <ele>1602.38</ele>
  <time>2026-08-28T19:07:27Z</time>
  <course>335.26</course>
  <speed>10.01</speed>
  <fix>3d</fix>
</trkpt>
<trkpt lat="40.0746574" lon="-105.2316707">
  <ele>1602.57</ele>
  <time>2026-08-28T19:07:27Z</time>
  <course>334.55</course>
  <speed>9.996684450356527</speed>
  <fix>3d</fix>
</trkpt>
<trkpt lat="40.0746475" lon="-105.2316649">
  <ele>1602.43</ele>
  <time>2026-08-28T19:07:27Z</time>
  <course>335.26</course>
  <speed>10.02</speed>
  <fix>3d</fix>
</trkpt>
<trkpt lat="40.0746737" lon="-105.2316805">
  <ele>1602.63</ele>
  <time>2026-08-28T19:07:27Z</time>
  <course>334.58</course>
  <speed>10.00084996387807</speed>
  <fix>3d</fix>
</trkpt>
<trkpt lat="40.0746639" lon="-105.2316747">
  <ele>1602.49</ele>
  <time>2026-08-28T19:07:27Z</time>
  <course>335.25</course>
  <speed>10.02</speed>
  <fix>3d</fix>
</trkpt>
<trkpt lat="40.0746901" lon="-105.2316903">
  <ele>1602.69</ele>
  <time>2026-08-28T19:07:27Z</time>
  <course>334.58</course>
  <speed>10.00084996387807</speed>
  <fix>3d</fix>
</trkpt>
<trkpt lat="40.0746802" lon="-105.2316846">
  <ele>1602.55</ele>
  <time>2026-08-28T19:07:27Z</time>
  <course>335.24</course>
  <speed>10.03</speed>
  <fix>3d</fix>
</trkpt>
<trkpt lat="40.0747065" lon="-105.2317002">
  <ele>1602.75</ele>
  <time>2026-08-28T19:07:27Z</time>
  <course>334.63</course>
  <speed>10.00084996387807</speed>
  <fix>3d</fix>
</trkpt>
<trkpt lat="40.0746965" lon="-105.2316945">
  <ele>1602.61</ele>
  <time>2026-08-28T19:07:27Z</time>
  <course>335.23</course>
  <speed>10.02</speed>
  <fix>3d</fix>
</trkpt>
<trkpt lat="40.0747229" lon="-105.2317101">
  <ele>1602.81</ele>
  <time>2026-08-28T19:07:27Z</time>
  <course>334.64</course>
  <speed>9.99176160644358</speed>
  <fix>3d</fix>
</trkpt>
<trkpt lat="40.074713" lon="-105.2317043">
  <ele>1602.66</ele>
  <time>2026-08-28T19:07:27Z</time>
  <course>335.23</course>
  <speed>10.02</speed>
  <fix>3d</fix>
</trkpt>
<trkpt lat="40.0747392" lon="-105.2317199">
  <ele>1602.87</ele>
  <time>2026-08-28T19:07:27Z</time>
  <course>334.69</course>
  <speed>9.99176160644358</speed>
  <fix>3d</fix>
</trkpt>
<trkpt lat="40.0747293" lon="-105.2317142">
  <ele>1602.73</ele>
  <time>2026-08-28T19:07:27Z</time>
  <course>335.23</course>
  <speed>10.02</speed>
  <fix>3d</fix>
</trkpt>
<trkpt lat="40.0747555" lon="-105.2317298">
  <ele>1602.92</ele>
  <time>2026-08-28T19:07:27Z</time>
  <course>334.69</course>
  <speed>9.987592302452079</speed>
  <fix>3d</fix>
</trkpt>
<trkpt lat="40.0747456" lon="-105.2317241">
  <ele>1602.79</ele>
  <time>2026-08-28T19:07:27Z</time>
  <course>335.22</course>
  <speed>10.01</speed>
  <fix>3d</fix>
</trkpt>
<trkpt lat="40.0747719" lon="-105.2317396">
  <ele>1602.97</ele>
  <time>2026-08-28T19:07:27Z</time>
  <course>334.72</course>
  <speed>9.97850189156669</speed>
  <fix>3d</fix>
</trkpt>
<trkpt lat="40.0747619" lon="-105.2317339">
  <ele>1602.84</ele>
  <time>2026-08-28T19:07:27Z</time>
  <course>335.23</course>
  <speed>10.01</speed>
  <fix>3d</fix>
</trkpt>
<trkpt lat="40.0747882" lon="-105.2317495">
  <ele>1603.03</ele>
  <time>2026-08-28T19:07:27Z</time>
  <course>334.7</course>
  <speed>9.97850189156669</speed>
  <fix>3d</fix>
</trkpt>
<trkpt lat="40.0747783" lon="-105.2317438">
  <ele>1602.9</ele>
  <time>2026-08-28T19:07:27Z</time>
  <course>335.23</course>
  <speed>10.0</speed>
  <fix>3d</fix>
</trkpt>
<trkpt lat="40.0748045" lon="-105.2317593">
  <ele>1603.08</ele>
  <time>2026-08-28T19:07:27Z</time>
  <course>334.7</course>
  <speed>9.97850189156669</speed>
  <fix>3d</fix>
</trkpt>
<trkpt lat="40.0747946" lon="-105.2317535">
  <ele>1602.96</ele>
  <time>2026-08-28T19:07:27Z</time>
  <course>335.23</course>
  <speed>10.0</speed>
  <fix>3d</fix>
</trkpt>
<trkpt lat="40.0748209" lon="-105.2317692">
  <ele>1603.14</ele>
  <time>2026-08-28T19:07:27Z</time>
  <course>334.69</course>
  <speed>9.97850189156669</speed>
  <fix>3d</fix>
</trkpt>
<trkpt lat="40.0748109" lon="-105.2317634">
  <ele>1603.02</ele>
  <time>2026-08-28T19:07:27Z</time>
  <course>335.23</course>
  <speed>10.0</speed>
  <fix>3d</fix>
</trkpt>
<trkpt lat="40.0748372" lon="-105.231779">
  <ele>1603.2</ele>
  <time>2026-08-28T19:07:27Z</time>
  <course>334.69</course>
  <speed>9.97850189156669</speed>
  <fix>3d</fix>
</trkpt>
<trkpt lat="40.0748272" lon="-105.2317732">
  <ele>1603.08</ele>
  <time>2026-08-28T19:07:27Z</time>
  <course>335.23</course>
  <speed>10.0</speed>
  <fix>3d</fix>
</trkpt>
<trkpt lat="40.0748535" lon="-105.2317889">
  <ele>1603.26</ele>
  <time>2026-08-28T19:07:27Z</time>
  <course>334.69</course>
  <speed>9.97850189156669</speed>
  <fix>3d</fix>
</trkpt>
<trkpt lat="40.0748435" lon="-105.2317831">
  <ele>1603.14</ele>
  <time>2026-08-28T19:07:27Z</time>
  <course>335.22</course>
  <speed>9.99</speed>
  <fix>3d</fix>
</trkpt>
<trkpt lat="40.0748699" lon="-105.2317987">
  <ele>1603.32</ele>
  <time>2026-08-28T19:07:28Z</time>
  <course>334.73</course>
  <speed>9.969413222451962</speed>
  <fix>3d</fix>
</trkpt>
<trkpt lat="40.0748599" lon="-105.2317929">
  <ele>1603.2</ele>
  <time>2026-08-28T19:07:28Z</time>
  <course>335.22</course>
  <speed>9.99</speed>
  <fix>3d</fix>
</trkpt>
<trkpt lat="40.0748863" lon="-105.2318086">
  <ele>1603.38</ele>
  <time>2026-08-28T19:07:28Z</time>
  <course>334.74</course>
  <speed>9.969413222451962</speed>
  <fix>3d</fix>
</trkpt>
<trkpt lat="40.0748762" lon="-105.2318028">
  <ele>1603.26</ele>
  <time>2026-08-28T19:07:28Z</time>
  <course>335.22</course>
  <speed>9.98</speed>
  <fix>3d</fix>
</trkpt>
<trkpt lat="40.0749026" lon="-105.2318185">
  <ele>1603.43</ele>
  <time>2026-08-28T19:07:28Z</time>
  <course>334.78</course>
  <speed>9.956153875869939</speed>
  <fix>3d</fix>
</trkpt>
<trkpt lat="40.0748925" lon="-105.2318125">
  <ele>1603.32</ele>
  <time>2026-08-28T19:07:28Z</time>
  <course>335.22</course>
  <speed>9.97</speed>
  <fix>3d</fix>
</trkpt>
<trkpt lat="40.0749189" lon="-105.2318283">
  <ele>1603.49</ele>
  <time>2026-08-28T19:07:28Z</time>
  <course>334.81</course>
  <speed>9.94706489372619</speed>
  <fix>3d</fix>
</trkpt>
<trkpt lat="40.0749087" lon="-105.2318224">
  <ele>1603.38</ele>
  <time>2026-08-28T19:07:28Z</time>
  <course>335.22</course>
  <speed>9.97</speed>
  <fix>3d</fix>
</trkpt>
<trkpt lat="40.0749352" lon="-105.2318381">
  <ele>1603.55</ele>
  <time>2026-08-28T19:07:28Z</time>
  <course>334.78</course>
  <speed>9.94706489372619</speed>
  <fix>3d</fix>
</trkpt>
<trkpt lat="40.074925" lon="-105.2318323">
  <ele>1603.44</ele>
  <time>2026-08-28T19:07:28Z</time>
  <course>335.22</course>
  <speed>9.96</speed>
  <fix>3d</fix>
</trkpt>
<trkpt lat="40.0749515" lon="-105.2318479">
  <ele>1603.6</ele>
  <time>2026-08-28T19:07:28Z</time>
  <course>334.76</course>
  <speed>9.94706489372619</speed>
  <fix>3d</fix>
</trkpt>
<trkpt lat="40.0749413" lon="-105.231842">
  <ele>1603.5</ele>
  <time>2026-08-28T19:07:28Z</time>
  <course>335.22</course>
  <speed>9.96</speed>
  <fix>3d</fix>
</trkpt>
<trkpt lat="40.0749677" lon="-105.2318577">
  <ele>1603.66</ele>
  <time>2026-08-28T19:07:28Z</time>
  <course>334.76</course>
  <speed>9.94706489372619</speed>
  <fix>3d</fix>
</trkpt>
<trkpt lat="40.0749574" lon="-105.2318517">
  <ele>1603.55</ele>
  <time>2026-08-28T19:07:28Z</time>
  <course>335.22</course>
  <speed>9.95</speed>
  <fix>3d</fix>
</trkpt>
<trkpt lat="40.074984" lon="-105.2318676">
  <ele>1603.72</ele>
  <time>2026-08-28T19:07:28Z</time>
  <course>334.76</course>
  <speed>9.94706489372619</speed>
  <fix>3d</fix>
</trkpt>
<trkpt lat="40.0749737" lon="-105.2318616">
  <ele>1603.61</ele>
  <time>2026-08-28T19:07:28Z</time>
  <course>335.21</course>
  <speed>9.95</speed>
  <fix>3d</fix>
</trkpt>
<trkpt lat="40.0750003" lon="-105.2318774">
  <ele>1603.78</ele>
  <time>2026-08-28T19:07:28Z</time>
  <course>334.75</course>
  <speed>9.94706489372619</speed>
  <fix>3d</fix>
</trkpt>
<trkpt lat="40.07499" lon="-105.2318713">
  <ele>1603.66</ele>
  <time>2026-08-28T19:07:28Z</time>
  <course>335.21</course>
  <speed>9.95</speed>
  <fix>3d</fix>
</trkpt>
<trkpt lat="40.0750165" lon="-105.2318872">
  <ele>1603.84</ele>
  <time>2026-08-28T19:07:28Z</time>
  <course>334.78</course>
  <speed>9.937977661476202</speed>
  <fix>3d</fix>
</trkpt>
<trkpt lat="40.0750062" lon="-105.2318812">
  <ele>1603.73</ele>
  <time>2026-08-28T19:07:28Z</time>
  <course>335.21</course>
  <speed>9.95</speed>
  <fix>3d</fix>
</trkpt>
<trkpt lat="40.0750327" lon="-105.2318969">
  <ele>1603.9</ele>
  <time>2026-08-28T19:07:28Z</time>
  <course>334.78</course>
  <speed>9.937977661476202</speed>
  <fix>3d</fix>
</trkpt>
<trkpt lat="40.0750225" lon="-105.231891">
  <ele>1603.79</ele>
  <time>2026-08-28T19:07:28Z</time>
  <course>335.2</course>
  <speed>9.95</speed>
  <fix>3d</fix>
</trkpt>
<trkpt lat="40.075049" lon="-105.2319068">
  <ele>1603.97</ele>
  <time>2026-08-28T19:07:28Z</time>
  <course>334.75</course>
  <speed>9.937977661476202</speed>
  <fix>3d</fix>
</trkpt>
<trkpt lat="40.0750386" lon="-105.2319009">
  <ele>1603.85</ele>
  <time>2026-08-28T19:07:28Z</time>
  <course>335.19</course>
  <speed>9.95</speed>
  <fix>3d</fix>
</trkpt>
<trkpt lat="40.0750651" lon="-105.2319165">
  <ele>1604.03</ele>
  <time>2026-08-28T19:07:28Z</time>
  <course>334.72</course>
  <speed>9.94706489372619</speed>
  <fix>3d</fix>
</trkpt>
<trkpt lat="40.0750549" lon="-105.2319106">
  <ele>1603.9</ele>
  <time>2026-08-28T19:07:28Z</time>
  <course>335.19</course>
  <speed>9.95</speed>
  <fix>3d</fix>
</trkpt>
<trkpt lat="40.0750813" lon="-105.2319263">
  <ele>1604.09</ele>
  <time>2026-08-28T19:07:28Z</time>
  <course>334.71</course>
  <speed>9.951241128623103</speed>
  <fix>3d</fix>
</trkpt>
<trkpt lat="40.0750711" lon="-105.2319205">
  <ele>1603.95</ele>
  <time>2026-08-28T19:07:28Z</time>
  <course>335.18</course>
  <speed>9.96</speed>
  <fix>3d</fix>
</trkpt>
<trkpt lat="40.0750975" lon="-105.2319361">
  <ele>1604.14</ele>
  <time>2026-08-28T19:07:28Z</time>
  <course>334.68</course>
  <speed>9.960326299875923</speed>
  <fix>3d</fix>
</trkpt>
<trkpt lat="40.0750874" lon="-105.2319302">
  <ele>1604.01</ele>
  <time>2026-08-28T19:07:28Z</time>
  <course>335.17</course>
  <speed>9.97</speed>
  <fix>3d</fix>
</trkpt>
<trkpt lat="40.0751137" lon="-105.2319459">
  <ele>1604.19</ele>
  <time>2026-08-28T19:07:28Z</time>
  <course>334.64</course>
  <speed>9.973590125927574</speed>
  <fix>3d</fix>
</trkpt>
<trkpt lat="40.0751037" lon="-105.2319401">
  <ele>1604.06</ele>
  <time>2026-08-28T19:07:28Z</time>
  <course>335.17</course>
  <speed>9.99</speed>
  <fix>3d</fix>
</trkpt>
<trkpt lat="40.07513" lon="-105.2319558">
  <ele>1604.24</ele>
  <time>2026-08-28T19:07:28Z</time>
  <course>334.62</course>
  <speed>9.982674992205245</speed>
  <fix>3d</fix>
</trkpt>
<trkpt lat="40.07512" lon="-105.2319499">
  <ele>1604.11</ele>
  <time>2026-08-28T19:07:28Z</time>
  <course>335.16</course>
  <speed>10.0</speed>
  <fix>3d</fix>
</trkpt>
<trkpt lat="40.0751463" lon="-105.2319656">
  <ele>1604.3</ele>
  <time>2026-08-28T19:07:28Z</time>
  <course>334.61</course>
  <speed>10.005023738102773</speed>
  <fix>3d</fix>
</trkpt>
<trkpt lat="40.0751363" lon="-105.2319598">
  <ele>1604.16</ele>
  <time>2026-08-28T19:07:28Z</time>
  <course>335.15</course>
  <speed>10.02</speed>
  <fix>3d</fix>
</trkpt>
<trkpt lat="40.0751627" lon="-105.2319755">
  <ele>1604.36</ele>
  <time>2026-08-28T19:07:28Z</time>
  <course>334.58</course>
  <speed>10.018288276946317</speed>
  <fix>3d</fix>
</trkpt>
<trkpt lat="40.0751527" lon="-105.2319697">
  <ele>1604.22</ele>
  <time>2026-08-28T19:07:28Z</time>
  <course>335.15</course>
  <speed>10.03</speed>
  <fix>3d</fix>
</trkpt>
<trkpt lat="40.0751791" lon="-105.2319855">
  <ele>1604.42</ele>
  <time>2026-08-28T19:07:28Z</time>
  <course>334.59</course>
  <speed>10.027372537210333</speed>
  <fix>3d</fix>
</trkpt>
<trkpt lat="40.075169" lon="-105.2319796">
  <ele>1604.28</ele>
  <time>2026-08-28T19:07:28Z</time>
  <course>335.14</course>
  <speed>10.04</speed>
  <fix>3d</fix>
</trkpt>
<trkpt lat="40.0751955" lon="-105.2319954">
  <ele>1604.48</ele>
  <time>2026-08-28T19:07:28Z</time>
  <course>334.65</course>
  <speed>10.027372537210333</speed>
  <fix>3d</fix>
</trkpt>
<trkpt lat="40.0751855" lon="-105.2319895">
  <ele>1604.34</ele>
  <time>2026-08-28T19:07:28Z</time>
  <course>335.14</course>
  <speed>10.05</speed>
  <fix>3d</fix>
</trkpt>
<trkpt lat="40.0752119" lon="-105.2320053">
  <ele>1604.54</ele>
  <time>2026-08-28T19:07:28Z</time>
  <course>334.72</course>
  <speed>10.027372537210333</speed>
  <fix>3d</fix>
</trkpt>
<trkpt lat="40.0752018" lon="-105.2319995">
  <ele>1604.4</ele>
  <time>2026-08-28T19:07:28Z</time>
  <course>335.14</course>
  <speed>10.05</speed>
  <fix>3d</fix>
</trkpt>
<trkpt lat="40.0752284" lon="-105.2320153">
  <ele>1604.6</ele>
  <time>2026-08-28T19:07:28Z</time>
  <course>334.8</course>
  <speed>10.018288276946317</speed>
  <fix>3d</fix>
</trkpt>
<trkpt lat="40.0752183" lon="-105.2320094">
  <ele>1604.46</ele>
  <time>2026-08-28T19:07:28Z</time>
  <course>335.15</course>
  <speed>10.05</speed>
  <fix>3d</fix>
</trkpt>
<trkpt lat="40.0752448" lon="-105.2320252">
  <ele>1604.66</ele>
  <time>2026-08-28T19:07:28Z</time>
  <course>334.88</course>
  <speed>10.014110045331037</speed>
  <fix>3d</fix>
</trkpt>
<trkpt lat="40.0752346" lon="-105.2320193">
  <ele>1604.51</ele>
  <time>2026-08-28T19:07:28Z</time>
  <course>335.17</course>
  <speed>10.04</speed>
  <fix>3d</fix>
</trkpt>
<trkpt lat="40.0752612" lon="-105.2320351">
  <ele>1604.72</ele>
  <time>2026-08-28T19:07:28Z</time>
  <course>334.94</course>
  <speed>10.00084996387807</speed>
  <fix>3d</fix>
</trkpt>
<trkpt lat="40.075251" lon="-105.2320292">
  <ele>1604.57</ele>
  <time>2026-08-28T19:07:28Z</time>
  <course>335.2</course>
  <speed>10.03</speed>
  <fix>3d</fix>
</trkpt>
<trkpt lat="40.0752775" lon="-105.2320449">
  <ele>1604.77</ele>
  <time>2026-08-28T19:07:28Z</time>
  <course>334.95</course>
  <speed>9.996684450356527</speed>
  <fix>3d</fix>
</trkpt>
<trkpt lat="40.0752674" lon="-105.2320391">
  <ele>1604.63</ele>
  <time>2026-08-28T19:07:28Z</time>
  <course>335.23</course>
  <speed>10.02</speed>
  <fix>3d</fix>
</trkpt>
<trkpt lat="40.0752939" lon="-105.2320548">
  <ele>1604.83</ele>
  <time>2026-08-28T19:07:28Z</time>
  <course>334.98</course>
  <speed>9.987592302452079</speed>
  <fix>3d</fix>
</trkpt>
<trkpt lat="40.0752837" lon="-105.2320489">
  <ele>1604.68</ele>
  <time>2026-08-28T19:07:28Z</time>
  <course>335.26</course>
  <speed>10.01</speed>
  <fix>3d</fix>
</trkpt>
<trkpt lat="40.0753102" lon="-105.2320646">
  <ele>1604.88</ele>
  <time>2026-08-28T19:07:28Z</time>
  <course>334.99</course>
  <speed>9.983431273865714</speed>
  <fix>3d</fix>
</trkpt>
<trkpt lat="40.0753" lon="-105.2320588">
  <ele>1604.73</ele>
  <time>2026-08-28T19:07:28Z</time>
  <course>335.29</course>
  <speed>10.0</speed>
  <fix>3d</fix>
</trkpt>
<trkpt lat="40.0753266" lon="-105.2320744">
  <ele>1604.94</ele>
  <time>2026-08-28T19:07:28Z</time>
  <course>335.02</course>
  <speed>9.974337070702996</speed>
  <fix>3d</fix>
</trkpt>
<trkpt lat="40.0753163" lon="-105.2320685">
  <ele>1604.79</ele>
  <time>2026-08-28T19:07:28Z</time>
  <course>335.3</course>
  <speed>10.0</speed>
  <fix>3d</fix>
</trkpt>
<trkpt lat="40.075343" lon="-105.2320843">
  <ele>1605.0</ele>
  <time>2026-08-28T19:07:28Z</time>
  <course>334.99</course>
  <speed>9.970180539990237</speed>
  <fix>3d</fix>
</trkpt>
<trkpt lat="40.0753327" lon="-105.2320784">
  <ele>1604.84</ele>
  <time>2026-08-28T19:07:28Z</time>
  <course>335.32</course>
  <speed>9.99</speed>
  <fix>3d</fix>
</trkpt>
<trkpt lat="40.0753592" lon="-105.2320941">
  <ele>1605.05</ele>
  <time>2026-08-28T19:07:28Z</time>
  <course>335.02</course>
  <speed>9.961084278330347</speed>
  <fix>3d</fix>
</trkpt>
<trkpt lat="40.075349" lon="-105.2320881">
  <ele>1604.9</ele>
  <time>2026-08-28T19:07:28Z</time>
  <course>335.32</course>
  <speed>9.98</speed>
  <fix>3d</fix>
</trkpt>
<trkpt lat="40.0753755" lon="-105.2321039">
  <ele>1605.11</ele>
  <time>2026-08-28T19:07:28Z</time>
  <course>335.04</course>
  <speed>9.961084278330347</speed>
  <fix>3d</fix>
</trkpt>
<trkpt lat="40.0753653" lon="-105.232098">
  <ele>1604.96</ele>
  <time>2026-08-28T19:07:28Z</time>
  <course>335.32</course>
  <speed>9.98</speed>
  <fix>3d</fix>
</trkpt>
<trkpt lat="40.0753919" lon="-105.2321137">
  <ele>1605.18</ele>
  <time>2026-08-28T19:07:28Z</time>
  <course>335.03</course>
  <speed>9.951989750798582</speed>
  <fix>3d</fix>
</trkpt>
<trkpt lat="40.0753816" lon="-105.2321078">
  <ele>1605.01</ele>
  <time>2026-08-28T19:07:28Z</time>
  <course>335.31</course>
  <speed>9.97</speed>
  <fix>3d</fix>
</trkpt>
<trkpt lat="40.0754082" lon="-105.2321235">
  <ele>1605.24</ele>
  <time>2026-08-28T19:07:28Z</time>
  <course>335.03</course>
  <speed>9.942896962153435</speed>
  <fix>3d</fix>
</trkpt>
<trkpt lat="40.0753979" lon="-105.2321176">
  <ele>1605.07</ele>
  <time>2026-08-28T19:07:28Z</time>
  <course>335.3</course>
  <speed>9.96</speed>
  <fix>3d</fix>
</trkpt>
<trkpt lat="40.0754245" lon="-105.2321333">
  <ele>1605.3</ele>
  <time>2026-08-28T19:07:28Z</time>
  <course>335.01</course>
  <speed>9.942896962153435</speed>
  <fix>3d</fix>
</trkpt>
<trkpt lat="40.0754142" lon="-105.2321273">
  <ele>1605.12</ele>
  <time>2026-08-28T19:07:28Z</time>
  <course>335.29</course>
  <speed>9.96</speed>
  <fix>3d</fix>
</trkpt>
<trkpt lat="40.0754407" lon="-105.2321431">
  <ele>1605.36</ele>
  <time>2026-08-28T19:07:28Z</time>
  <course>334.96</course>
  <speed>9.933805917169913</speed>
  <fix>3d</fix>
</trkpt>
<trkpt lat="40.0754304" lon="-105.232137">
  <ele>1605.17</ele>
  <time>2026-08-28T19:07:28Z</time>
  <course>335.28</course>
  <speed>9.95</speed>
  <fix>3d</fix>
</trkpt>
<trkpt lat="40.075457" lon="-105.2321528">
  <ele>1605.42</ele>
  <time>2026-08-28T19:07:28Z</time>
  <course>335.02</course>
  <speed>9.902368403568916</speed>
  <fix>3d</fix>
</trkpt>
<trkpt lat="40.0754467" lon="-105.2321469">
  <ele>1605.23</ele>
  <time>2026-08-28T19:07:28Z</time>
  <course>335.26</course>
  <speed>9.93</speed>
  <fix>3d</fix>
</trkpt>
<trkpt lat="40.0754731" lon="-105.2321626">
  <ele>1605.48</ele>
  <time>2026-08-28T19:07:28Z</time>
  <course>335.25</course>
  <speed>9.817148262097298</speed>
  <fix>3d</fix>
</trkpt>
<trkpt lat="40.0754628" lon="-105.2321566">
  <ele>1605.29</ele>
  <time>2026-08-28T19:07:28Z</time>
  <course>335.24</course>
  <speed>9.89</speed>
  <fix>3d</fix>
</trkpt>
<trkpt lat="40.075489" lon="-105.2321722">
  <ele>1605.56</ele>
  <time>2026-08-28T19:07:28Z</time>
  <course>335.65</course>
  <speed>9.683057368414172</speed>
  <fix>3d</fix>
</trkpt>
<trkpt lat="40.0754789" lon="-105.2321662">
  <ele>1605.36</ele>
  <time>2026-08-28T19:07:28Z</time>
  <course>335.23</course>
  <speed>9.79</speed>
  <fix>3d</fix>
</trkpt>
<trkpt lat="40.0755048" lon="-105.2321817">
  <ele>1605.64</ele>
  <time>2026-08-28T19:07:28Z</time>
  <course>336.16</course>
  <speed>9.49518298928462</speed>
  <fix>3d</fix>
</trkpt>
<trkpt lat="40.0754948" lon="-105.2321758">
  <ele>1605.44</ele>
  <time>2026-08-28T19:07:28Z</time>
  <course>335.25</course>
  <speed>9.65</speed>
  <fix>3d</fix>
</trkpt>
<trkpt lat="40.0755202" lon="-105.2321909">
  <ele>1605.72</ele>
  <time>2026-08-28T19:07:28Z</time>
  <course>336.73</course>
  <speed>9.249356734389695</speed>
  <fix>3d</fix>
</trkpt>
<trkpt lat="40.0755104" lon="-105.2321852">
  <ele>1605.52</ele>
  <time>2026-08-28T19:07:28Z</time>
  <course>335.32</course>
  <speed>9.44</speed>
  <fix>3d</fix>
</trkpt>
<trkpt lat="40.075535" lon="-105.2321998">
  <ele>1605.79</ele>
  <time>2026-08-28T19:07:28Z</time>
  <course>337.29</course>
  <speed>8.96379941765767</speed>
  <fix>3d</fix>
</trkpt>
<trkpt lat="40.0755256" lon="-105.2321944">
  <ele>1605.6</ele>
  <time>2026-08-28T19:07:28Z</time>
  <course>335.44</course>
  <speed>9.19</speed>
  <fix>3d</fix>
</trkpt>
<trkpt lat="40.0755495" lon="-105.2322084">
  <ele>1605.85</ele>
  <time>2026-08-28T19:07:28Z</time>
  <course>337.81</course>
  <speed>8.624505782942</speed>
  <fix>3d</fix>
</trkpt>
<trkpt lat="40.0755404" lon="-105.2322032">
  <ele>1605.67</ele>
  <time>2026-08-28T19:07:28Z</time>
  <course>335.61</course>
  <speed>8.89</speed>
  <fix>3d</fix>
</trkpt>
<trkpt lat="40.0755634" lon="-105.2322166">
  <ele>1605.9</ele>
  <time>2026-08-28T19:07:28Z</time>
  <course>338.29</course>
  <speed>8.244683135209018</speed>
  <fix>3d</fix>
</trkpt>
<trkpt lat="40.0755547" lon="-105.2322116">
  <ele>1605.74</ele>
  <time>2026-08-28T19:07:28Z</time>
  <course>335.8</course>
  <speed>8.54</speed>
  <fix>3d</fix>
</trkpt>
<trkpt lat="40.0755766" lon="-105.2322243">
  <ele>1605.96</ele>
  <time>2026-08-28T19:07:28Z</time>
  <course>338.71</course>
  <speed>7.829342245680667</speed>
  <fix>3d</fix>
</trkpt>
<trkpt lat="40.0755683" lon="-105.2322195">
  <ele>1605.8</ele>
  <time>2026-08-28T19:07:28Z</time>
  <course>336.01</course>
  <speed>8.15</speed>
  <fix>3d</fix>
</trkpt>
<trkpt lat="40.0755891" lon="-105.2322316">
  <ele>1606.01</ele>
  <time>2026-08-28T19:07:28Z</time>
  <course>339.08</course>
  <speed>7.369396176078471</speed>
  <fix>3d</fix>
</trkpt>
<trkpt lat="40.0755814" lon="-105.2322271">
  <ele>1605.85</ele>
  <time>2026-08-28T19:07:28Z</time>
  <course>336.22</course>
  <speed>7.72</speed>
  <fix>3d</fix>
</trkpt>
<trkpt lat="40.0756009" lon="-105.2322383">
  <ele>1606.05</ele>
  <time>2026-08-28T19:07:28Z</time>
  <course>339.39</course>
  <speed>6.8637671871939245</speed>
  <fix>3d</fix>
</trkpt>
<trkpt lat="40.0755938" lon="-105.2322341">
  <ele>1605.9</ele>
  <time>2026-08-28T19:07:28Z</time>
  <course>336.43</course>
  <speed>7.25</speed>
  <fix>3d</fix>
</trkpt>
<trkpt lat="40.0756118" lon="-105.2322445">
  <ele>1606.08</ele>
  <time>2026-08-28T19:07:28Z</time>
  <course>339.62</course>
  <speed>6.3226339448049655</speed>
  <fix>3d</fix>
</trkpt>
<trkpt lat="40.0756053" lon="-105.2322407">
  <ele>1605.93</ele>
  <time>2026-08-28T19:07:28Z</time>
  <course>336.62</course>
  <speed>6.74</speed>
  <fix>3d</fix>
</trkpt>
<trkpt lat="40.0756219" lon="-105.2322502">
  <ele>1606.1</ele>
  <time>2026-08-28T19:07:28Z</time>
  <course>339.74</course>
  <speed>5.763202234869084</speed>
  <fix>3d</fix>
</trkpt>
<trkpt lat="40.0756159" lon="-105.2322467">
  <ele>1605.96</ele>
  <time>2026-08-28T19:07:28Z</time>
  <course>336.8</course>
  <speed>6.19</speed>
  <fix>3d</fix>
</trkpt>
<trkpt lat="40.075631" lon="-105.2322554">
  <ele>1606.11</ele>
  <time>2026-08-28T19:07:28Z</time>
  <course>339.69</course>
  <speed>5.194612593832191</speed>
  <fix>3d</fix>
</trkpt>
<trkpt lat="40.0756257" lon="-105.2322521">
  <ele>1605.98</ele>
  <time>2026-08-28T19:07:28Z</time>
  <course>336.96</course>
  <speed>5.62</speed>
  <fix>3d</fix>
</trkpt>
<trkpt lat="40.0756393" lon="-105.2322599">
  <ele>1606.11</ele>
  <time>2026-08-28T19:07:28Z</time>
  <course>339.55</course>
  <speed>4.635191473930715</speed>
  <fix>3d</fix>
</trkpt>
<trkpt lat="40.0756346" lon="-105.2322571">
  <ele>1605.99</ele>
  <time>2026-08-28T19:07:28Z</time>
  <course>337.09</course>
  <speed>5.05</speed>
  <fix>3d</fix>
</trkpt>
<trkpt lat="40.0756466" lon="-105.232264">
  <ele>1606.11</ele>
  <time>2026-08-28T19:07:28Z</time>
  <course>339.32</course>
  <speed>4.092932933728575</speed>
  <fix>3d</fix>
</trkpt>
<trkpt lat="40.0756425" lon="-105.2322614">
  <ele>1605.99</ele>
  <time>2026-08-28T19:07:28Z</time>
  <course>337.18</course>
  <speed>4.49</speed>
  <fix>3d</fix>
</trkpt>
<trkpt lat="40.075653" lon="-105.2322675">
  <ele>1606.1</ele>
  <time>2026-08-28T19:07:28Z</time>
  <course>338.97</course>
  <speed>3.563874296324156</speed>
  <fix>3d</fix>
</trkpt>
<trkpt lat="40.0756495" lon="-105.2322653">
  <ele>1605.98</ele>
  <time>2026-08-28T19:07:28Z</time>
  <course>337.17</course>
  <speed>3.94</speed>
  <fix>3d</fix>
</trkpt>
<trkpt lat="40.0756586" lon="-105.2322706">
  <ele>1606.1</ele>
  <time>2026-08-28T19:07:28Z</time>
  <course>338.42</course>
  <speed>3.0389800920703642</speed>
  <fix>3d</fix>
</trkpt>
<trkpt lat="40.0756556" lon="-105.2322686">
  <ele>1605.97</ele>
  <time>2026-08-28T19:07:28Z</time>
  <course>336.99</course>
  <speed>3.4</speed>
  <fix>3d</fix>
</trkpt>
<trkpt lat="40.0756632" lon="-105.2322733">
  <ele>1606.09</ele>
  <time>2026-08-28T19:07:28Z</time>
  <course>337.66</course>
  <speed>2.536710468303389</speed>
  <fix>3d</fix>
</trkpt>
<trkpt lat="40.0756607" lon="-105.2322715">
  <ele>1605.97</ele>
  <time>2026-08-28T19:07:28Z</time>
  <course>336.6</course>
  <speed>2.88</speed>
  <fix>3d</fix>
</trkpt>
<trkpt lat="40.075667" lon="-105.2322755">
  <ele>1606.09</ele>
  <time>2026-08-28T19:07:28Z</time>
  <course>336.57</course>
  <speed>2.0349447166937975</speed>
  <fix>3d</fix>
</trkpt>
<trkpt lat="40.075665" lon="-105.232274">
  <ele>1605.96</ele>
  <time>2026-08-28T19:07:28Z</time>
  <course>335.9</course>
  <speed>2.37</speed>
  <fix>3d</fix>
</trkpt>
<trkpt lat="40.07567" lon="-105.2322773">
  <ele>1606.08</ele>
  <time>2026-08-28T19:07:28Z</time>
  <course>335.03</course>
  <speed>1.587765725792064</speed>
  <fix>3d</fix>
</trkpt>
<trkpt lat="40.0756685" lon="-105.2322761">
  <ele>1605.95</ele>
  <time>2026-08-28T19:07:28Z</time>
  <course>334.79</course>
  <speed>1.88</speed>
  <fix>3d</fix>
</trkpt>
<trkpt lat="40.0756723" lon="-105.2322788">
  <ele>1606.07</ele>
  <time>2026-08-28T19:07:28Z</time>
  <course>332.9</course>
  <speed>1.1870130580579137</speed>
  <fix>3d</fix>
</trkpt>
<trkpt lat="40.0756712" lon="-105.2322778">
  <ele>1605.95</ele>
  <time>2026-08-28T19:07:28Z</time>
  <course>333.12</course>
  <speed>1.44</speed>
  <fix>3d</fix>
</trkpt>
<trkpt lat="40.0756739" lon="-105.23228">
  <ele>1606.07</ele>
  <time>2026-08-28T19:07:28Z</time>
  <course>330.0</course>
  <speed>0.8514693182963201</speed>
  <fix>3d</fix>
</trkpt>
<trkpt lat="40.0756732" lon="-105.2322791">
  <ele>1605.95</ele>
  <time>2026-08-28T19:07:28Z</time>
  <course>330.6</course>
  <speed>1.05</speed>
  <fix>3d</fix>
</trkpt>
<trkpt lat="40.0756749" lon="-105.2322809">
  <ele>1606.07</ele>
  <time>2026-08-28T19:07:28Z</time>
  <course>329.57</course>
  <speed>0.5813776741499453</speed>
  <fix>3d</fix>
</trkpt>
<trkpt lat="40.0756746" lon="-105.2322803">
  <ele>1605.95</ele>
  <time>2026-08-28T19:07:28Z</time>
  <course>325.6</course>
  <speed>0.73</speed>
  <fix>3d</fix>
</trkpt>
<trkpt lat="40.0756756" lon="-105.2322816">
  <ele>1606.08</ele>
  <time>2026-08-28T19:07:28Z</time>
  <course>329.64</course>
  <speed>0.37013511046643494</speed>
  <fix>3d</fix>
</trkpt>
<trkpt lat="40.0756753" lon="-105.2322811">
  <ele>1605.95</ele>
  <time>2026-08-28T19:07:28Z</time>
  <course>316.44</course>
  <speed>0.47</speed>
  <fix>3d</fix>
</trkpt>
<trkpt lat="40.0756759" lon="-105.2322822">
  <ele>1606.09</ele>
  <time>2026-08-28T19:07:28Z</time>
  <course>329.62</course>
  <speed>0.24351591323771843</speed>
  <fix>3d</fix>
</trkpt>
<trkpt lat="40.0756758" lon="-105.2322818">
  <ele>1605.96</ele>
  <time>2026-08-28T19:07:28Z</time>
  <course>300.09</course>
  <speed>0.29</speed>
  <fix>3d</fix>
</trkpt>
<trkpt lat="40.0756759" lon="-105.2322827">
  <ele>1606.1</ele>
  <time>2026-08-28T19:07:28Z</time>
  <course>329.57</course>
  <speed>0.18110770276274835</speed>
  <fix>3d</fix>
</trkpt>
<trkpt lat="40.075676" lon="-105.2322823">
  <ele>1605.96</ele>
  <time>2026-08-28T19:07:28Z</time>
  <course>269.96</course>
  <speed>0.2</speed>
  <fix>3d</fix>
</trkpt>
<trkpt lat="40.0756758" lon="-105.232283">
  <ele>1606.11</ele>
  <time>2026-08-28T19:07:28Z</time>
  <course>329.55</course>
  <speed>0.17492855684535902</speed>
  <fix>3d</fix>
</trkpt>
<trkpt lat="40.0756759" lon="-105.2322827">
  <ele>1605.98</ele>
  <time>2026-08-28T19:07:28Z</time>
  <course>238.51</course>
  <speed>0.19</speed>
  <fix>3d</fix>
</trkpt>
<trkpt lat="40.0756756" lon="-105.2322833">
  <ele>1606.12</ele>
  <time>2026-08-28T19:07:28Z</time>
  <course>329.53</course>
  <speed>0.1769180601295413</speed>
  <fix>3d</fix>
</trkpt>
<trkpt lat="40.0756757" lon="-105.2322831">
  <ele>1605.99</ele>
  <time>2026-08-28T19:07:28Z</time>
  <course>222.17</course>
  <speed>0.21</speed>
  <fix>3d</fix>
</trkpt>
<trkpt lat="40.0756753" lon="-105.2322836">
  <ele>1606.13</ele>
  <time>2026-08-28T19:07:28Z</time>
  <course>329.48</course>
  <speed>0.16278820596099705</speed>
  <fix>3d</fix>
</trkpt>
<trkpt lat="40.0756754" lon="-105.2322835">
  <ele>1606.0</ele>
  <time>2026-08-28T19:07:28Z</time>
  <course>217.45</course>
  <speed>0.22</speed>
  <fix>3d</fix>
</trkpt>
<trkpt lat="40.0756751" lon="-105.2322839">
  <ele>1606.13</ele>
  <time>2026-08-28T19:07:28Z</time>
  <course>329.45</course>
  <speed>0.15264337522473748</speed>
  <fix>3d</fix>
</trkpt>
<trkpt lat="40.0756751" lon="-105.2322838">
  <ele>1606.01</ele>
  <time>2026-08-28T19:07:28Z</time>
  <course>220.48</course>
  <speed>0.22</speed>
  <fix>3d</fix>
</trkpt>
<trkpt lat="40.0756749" lon="-105.2322843">
  <ele>1606.14</ele>
  <time>2026-08-28T19:07:28Z</time>
  <course>329.41</course>
  <speed>0.14317821063276354</speed>
  <fix>3d</fix>
</trkpt>
<trkpt lat="40.0756748" lon="-105.2322842">
  <ele>1606.02</ele>
  <time>2026-08-28T19:07:28Z</time>
  <course>230.94</course>
  <speed>0.2</speed>
  <fix>3d</fix>
</trkpt>
<trkpt lat="40.0756748" lon="-105.2322846">
  <ele>1606.14</ele>
  <time>2026-08-28T19:07:28Z</time>
  <course>329.35</course>
  <speed>0.16278820596099705</speed>
  <fix>3d</fix>
</trkpt>
<trkpt lat="40.0756746" lon="-105.2322846">
  <ele>1606.03</ele>
  <time>2026-08-28T19:07:28Z</time>
  <course>249.26</course>
  <speed>0.19</speed>
  <fix>3d</fix>
</trkpt>
<trkpt lat="40.0756749" lon="-105.2322851">
  <ele>1606.14</ele>
  <time>2026-08-28T19:07:28Z</time>
  <course>329.3</course>
  <speed>0.2109502310972899</speed>
  <fix>3d</fix>
</trkpt>
<trkpt lat="40.0756746" lon="-105.232285">
  <ele>1606.04</ele>
  <time>2026-08-28T19:07:28Z</time>
  <course>271.4</course>
  <speed>0.21</speed>
  <fix>3d</fix>
</trkpt>
<trkpt lat="40.075675" lon="-105.2322856">
  <ele>1606.15</ele>
  <time>2026-08-28T19:07:28Z</time>
  <course>329.26</course>
  <speed>0.2690724809414742</speed>
  <fix>3d</fix>
</trkpt>
<trkpt lat="40.0756747" lon="-105.2322856">
  <ele>1606.04</ele>
  <time>2026-08-28T19:07:28Z</time>
  <course>289.37</course>
  <speed>0.25</speed>
  <fix>3d</fix>
</trkpt>
<trkpt lat="40.0756753" lon="-105.2322862">
  <ele>1606.16</ele>
  <time>2026-08-28T19:07:28Z</time>
  <course>329.26</course>
  <speed>0.31144823004794875</speed>
  <fix>3d</fix>
</trkpt>
<trkpt lat="40.0756748" lon="-105.2322862">
  <ele>1606.05</ele>
  <time>2026-08-28T19:07:28Z</time>
  <course>300.63</course>
  <speed>0.29</speed>
  <fix>3d</fix>
</trkpt>
<trkpt lat="40.0756756" lon="-105.2322868">
  <ele>1606.16</ele>
  <time>2026-08-28T19:07:28Z</time>
  <course>329.27</course>
  <speed>0.3280243893371345</speed>
  <fix>3d</fix>
</trkpt>
<trkpt lat="40.0756751" lon="-105.2322868">
  <ele>1606.05</ele>
  <time>2026-08-28T19:07:28Z</time>
  <course>307.34</course>
  <speed>0.33</speed>
  <fix>3d</fix>
</trkpt>
<trkpt lat="40.075676" lon="-105.2322874">
  <ele>1606.17</ele>
  <time>2026-08-28T19:07:28Z</time>
  <course>329.29</course>
  <speed>0.3301514803843835</speed>
  <fix>3d</fix>
</trkpt>
<trkpt lat="40.0756755" lon="-105.2322873">
  <ele>1606.05</ele>
  <time>2026-08-28T19:07:28Z</time>
  <course>311.84</course>
  <speed>0.35</speed>
  <fix>3d</fix>
</trkpt>
<trkpt lat="40.0756765" lon="-105.2322879">
  <ele>1606.17</ele>
  <time>2026-08-28T19:07:28Z</time>
  <course>329.3</course>
  <speed>0.3138470965295043</speed>
  <fix>3d</fix>
</trkpt>
<trkpt lat="40.0756759" lon="-105.232288">
  <ele>1606.06</ele>
  <time>2026-08-28T19:07:28Z</time>
  <course>315.58</course>
  <speed>0.35</speed>
  <fix>3d</fix>
</trkpt>
<trkpt lat="40.0756769" lon="-105.2322884">
  <ele>1606.17</ele>
  <time>2026-08-28T19:07:28Z</time>
  <course>329.32</course>
  <speed>0.2906888370749727</speed>
  <fix>3d</fix>
</trkpt>
<trkpt lat="40.0756764" lon="-105.2322885">
  <ele>1606.06</ele>
  <time>2026-08-28T19:07:28Z</time>
  <course>319.38</course>
  <speed>0.33</speed>
  <fix>3d</fix>
</trkpt>
<trkpt lat="40.0756773" lon="-105.2322888">
  <ele>1606.18</ele>
  <time>2026-08-28T19:07:28Z</time>
  <course>329.32</course>
  <speed>0.2529822128134704</speed>
  <fix>3d</fix>
</trkpt>
<trkpt lat="40.0756769" lon="-105.232289">
  <ele>1606.06</ele>
  <time>2026-08-28T19:07:28Z</time>
  <course>323.67</course>
  <speed>0.3</speed>
  <fix>3d</fix>
</trkpt>
<trkpt lat="40.0756777" lon="-105.2322891">
  <ele>1606.18</ele>
  <time>2026-08-28T19:07:28Z</time>
  <course>329.32</course>
  <speed>0.21377558326431947</speed>
  <fix>3d</fix>
</trkpt>
<trkpt lat="40.0756772" lon="-105.2322894">
  <ele>1606.06</ele>
  <time>2026-08-28T19:07:28Z</time>
  <course>328.91</course>
  <speed>0.26</speed>
  <fix>3d</fix>
</trkpt>
<trkpt lat="40.075678" lon="-105.2322893">
  <ele>1606.18</ele>
  <time>2026-08-28T19:07:28Z</time>
  <course>329.31</course>
  <speed>0.18</speed>
  <fix>3d</fix>
</trkpt>
<trkpt lat="40.0756777" lon="-105.2322897">
  <ele>1606.05</ele>
  <time>2026-08-28T19:07:28Z</time>
  <course>335.72</course>
  <speed>0.22</speed>
  <fix>3d</fix>
</trkpt>
<trkpt lat="40.0756782" lon="-105.2322893">
  <ele>1606.18</ele>
  <time>2026-08-28T19:07:28Z</time>
  <course>329.32</course>
  <speed>0.14560219778561037</speed>
  <fix>3d</fix>
</trkpt>
<trkpt lat="40.075678" lon="-105.2322898">
  <ele>1606.05</ele>
  <time>2026-08-28T19:07:28Z</time>
  <course>345.55</course>
  <speed>0.17</speed>
  <fix>3d</fix>
</trkpt>
<trkpt lat="40.0756784" lon="-105.2322893">
  <ele>1606.17</ele>
  <time>2026-08-28T19:07:28Z</time>
  <course>329.3</course>
  <speed>0.12041594578792296</speed>
  <fix>3d</fix>
</trkpt>
<trkpt lat="40.0756783" lon="-105.2322899">
  <ele>1606.05</ele>
  <time>2026-08-28T19:07:28Z</time>
  <course>1.45</course>
  <speed>0.13</speed>
  <fix>3d</fix>
</trkpt>
<trkpt lat="40.0756786" lon="-105.2322892">
  <ele>1606.17</ele>
  <time>2026-08-28T19:07:28Z</time>
  <course>329.27</course>
  <speed>0.13</speed>
  <fix>3d</fix>
</trkpt>
<trkpt lat="40.0756784" lon="-105.2322898">
  <ele>1606.05</ele>
  <time>2026-08-28T19:07:28Z</time>
  <course>27.53</course>
  <speed>0.1</speed>
  <fix>3d</fix>
</trkpt>
<trkpt lat="40.0756786" lon="-105.2322891">
  <ele>1606.16</ele>
  <time>2026-08-28T19:07:28Z</time>
  <course>329.24</course>
  <speed>0.16031219541881397</speed>
  <fix>3d</fix>
</trkpt>
<trkpt lat="40.0756786" lon="-105.2322897">
  <ele>1606.04</ele>
  <time>2026-08-28T19:07:28Z</time>
  <course>59.43</course>
  <speed>0.1</speed>
  <fix>3d</fix>
</trkpt>
<trkpt lat="40.0756786" lon="-105.2322888">
  <ele>1606.16</ele>
  <time>2026-08-28T19:07:28Z</time>
  <course>329.23</course>
  <speed>0.191049731745428</speed>
  <fix>3d</fix>
</trkpt>
<trkpt lat="40.0756787" lon="-105.2322894">
  <ele>1606.04</ele>
  <time>2026-08-28T19:07:28Z</time>
  <course>83.59</course>
  <speed>0.12</speed>
  <fix>3d</fix>
</trkpt>
<trkpt lat="40.0756786" lon="-105.2322885">
  <ele>1606.16</ele>
  <time>2026-08-28T19:07:28Z</time>
  <course>329.21</course>
  <speed>0.215870331449229</speed>
  <fix>3d</fix>
</trkpt>
<trkpt lat="40.0756787" lon="-105.2322891">
  <ele>1606.04</ele>
  <time>2026-08-28T19:07:28Z</time>
  <course>98.3</course>
  <speed>0.15</speed>
  <fix>3d</fix>
</trkpt>
<trkpt lat="40.0756785" lon="-105.2322881">
  <ele>1606.16</ele>
  <time>2026-08-28T19:07:28Z</time>
  <course>329.18</course>
  <speed>0.2340939982143925</speed>
  <fix>3d</fix>
</trkpt>
<trkpt lat="40.0756786" lon="-105.2322887">
  <ele>1606.04</ele>
  <time>2026-08-28T19:07:28Z</time>
  <course>107.42</course>
  <speed>0.18</speed>
  <fix>3d</fix>
</trkpt>
<trkpt lat="40.0756784" lon="-105.2322876">
  <ele>1606.16</ele>
  <time>2026-08-28T19:07:28Z</time>
  <course>329.17</course>
  <speed>0.25495097567963926</speed>
  <fix>3d</fix>
</trkpt>
<trkpt lat="40.0756785" lon="-105.2322883">
  <ele>1606.04</ele>
  <time>2026-08-28T19:07:28Z</time>
  <course>113.7</course>
  <speed>0.2</speed>
  <fix>3d</fix>
</trkpt>
<trkpt lat="40.0756782" lon="-105.2322872">
  <ele>1606.15</ele>
  <time>2026-08-28T19:07:28Z</time>
  <course>329.15</course>
  <speed>0.2641968962724581</speed>
  <fix>3d</fix>
</trkpt>
<trkpt lat="40.0756784" lon="-105.2322878">
  <ele>1606.04</ele>
  <time>2026-08-28T19:07:28Z</time>
  <course>118.46</course>
  <speed>0.22</speed>
  <fix>3d</fix>
</trkpt>
<trkpt lat="40.075678" lon="-105.2322867">
  <ele>1606.16</ele>
  <time>2026-08-28T19:07:28Z</time>
  <course>329.11</course>
  <speed>0.2692582403567252</speed>
  <fix>3d</fix>
</trkpt>
<trkpt lat="40.0756782" lon="-105.2322873">
  <ele>1606.04</ele>
  <time>2026-08-28T19:07:28Z</time>
  <course>122.29</course>
  <speed>0.23</speed>
  <fix>3d</fix>
</trkpt>
<trkpt lat="40.0756777" lon="-105.2322863">
  <ele>1606.16</ele>
  <time>2026-08-28T19:07:28Z</time>
  <course>329.12</course>
  <speed>0.266270539113887</speed>
  <fix>3d</fix>
</trkpt>
<trkpt lat="40.0756779" lon="-105.2322869">
  <ele>1606.04</ele>
  <time>2026-08-28T19:07:28Z</time>
  <course>125.69</course>
  <speed>0.24</speed>
  <fix>3d</fix>
</trkpt>
<trkpt lat="40.0756774" lon="-105.2322859">
  <ele>1606.16</ele>
  <time>2026-08-28T19:07:28Z</time>
  <course>329.09</course>
  <speed>0.25612496949731395</speed>
  <fix>3d</fix>
</trkpt>
<trkpt lat="40.0756777" lon="-105.2322864">
  <ele>1606.04</ele>
  <time>2026-08-28T19:07:28Z</time>
  <course>128.78</course>
  <speed>0.23</speed>
  <fix>3d</fix>
</trkpt>
<trkpt lat="40.0756772" lon="-105.2322855">
  <ele>1606.15</ele>
  <time>2026-08-28T19:07:28Z</time>
  <course>329.08</course>
  <speed>0.24083189157584592</speed>
  <fix>3d</fix>
</trkpt>
<trkpt lat="40.0756774" lon="-105.2322861">
  <ele>1606.05</ele>
  <time>2026-08-28T19:07:28Z</time>
  <course>131.61</course>
  <speed>0.22</speed>
  <fix>3d</fix>
</trkpt>
<trkpt lat="40.0756769" lon="-105.2322852">
  <ele>1606.15</ele>
  <time>2026-08-28T19:07:28Z</time>
  <course>329.06</course>
  <speed>0.2193171219946131</speed>
  <fix>3d</fix>
</trkpt>
<trkpt lat="40.0756771" lon="-105.2322856">
  <ele>1606.05</ele>
  <time>2026-08-28T19:07:28Z</time>
  <course>134.46</course>
  <speed>0.21</speed>
  <fix>3d</fix>
</trkpt>
<trkpt lat="40.0756767" lon="-105.2322849">
  <ele>1606.15</ele>
  <time>2026-08-28T19:07:28Z</time>
  <course>329.06</course>
  <speed>0.1979898987322333</speed>
  <fix>3d</fix>
</trkpt>
<trkpt lat="40.0756769" lon="-105.2322853">
  <ele>1606.05</ele>
  <time>2026-08-28T19:07:28Z</time>
  <course>137.54</course>
  <speed>0.19</speed>
  <fix>3d</fix>
</trkpt>
<trkpt lat="40.0756764" lon="-105.2322846">
  <ele>1606.16</ele>
  <time>2026-08-28T19:07:28Z</time>
  <course>329.04</course>
  <speed>0.1769180601295413</speed>
  <fix>3d</fix>
</trkpt>
<trkpt lat="40.0756766" lon="-105.232285">
  <ele>1606.05</ele>
  <time>2026-08-28T19:07:28Z</time>
  <course>141.0</course>
  <speed>0.17</speed>
  <fix>3d</fix>
</trkpt>
<trkpt lat="40.0756762" lon="-105.2322844">
  <ele>1606.16</ele>
  <time>2026-08-28T19:07:28Z</time>
  <course>329.02</course>
  <speed>0.14212670403551894</speed>
  <fix>3d</fix>
</trkpt>
<trkpt lat="40.0756764" lon="-105.2322848">
  <ele>1606.05</ele>
  <time>2026-08-28T19:07:28Z</time>
  <course>145.0</course>
  <speed>0.14</speed>
  <fix>3d</fix>
</trkpt>
<trkpt lat="40.075676" lon="-105.2322843">
  <ele>1606.15</ele>
  <time>2026-08-28T19:07:28Z</time>
  <course>328.99</course>
  <speed>0.12206555615733702</speed>
  <fix>3d</fix>
</trkpt>
<trkpt lat="40.0756761" lon="-105.2322846">
  <ele>1606.06</ele>
  <time>2026-08-28T19:07:28Z</time>
  <course>149.97</course>
  <speed>0.12</speed>
  <fix>3d</fix>
</trkpt>
<trkpt lat="40.0756759" lon="-105.2322842">
  <ele>1606.15</ele>
  <time>2026-08-28T19:07:28Z</time>
  <course>328.96</course>
  <speed>0.10295630140987001</speed>
  <fix>3d</fix>
</trkpt>
<trkpt lat="40.075676" lon="-105.2322845">
  <ele>1606.06</ele>
  <time>2026-08-28T19:07:28Z</time>
  <course>157.63</course>
  <speed>0.09</speed>
  <fix>3d</fix>
</trkpt>
<trkpt lat="40.0756757" lon="-105.2322842">
  <ele>1606.15</ele>
  <time>2026-08-28T19:07:28Z</time>
  <course>328.95</course>
  <speed>0.12369316876852982</speed>
  <fix>3d</fix>
</trkpt>
<trkpt lat="40.0756758" lon="-105.2322844">
  <ele>1606.06</ele>
  <time>2026-08-28T19:07:28Z</time>
  <course>170.08</course>
  <speed>0.09</speed>
  <fix>3d</fix>
</trkpt>
<trkpt lat="40.0756754" lon="-105.2322842">
  <ele>1606.15</ele>
  <time>2026-08-28T19:07:28Z</time>
  <course>328.96</course>
  <speed>0.191049731745428</speed>
  <fix>3d</fix>
</trkpt>
<trkpt lat="40.0756757" lon="-105.2322844">
  <ele>1606.06</ele>
  <time>2026-08-28T19:07:28Z</time>
  <course>179.97</course>
  <speed>0.13</speed>
  <fix>3d</fix>
</trkpt>
<trkpt lat="40.075675" lon="-105.2322842">
  <ele>1606.16</ele>
  <time>2026-08-28T19:07:28Z</time>
  <course>328.97</course>
  <speed>0.31064449134018135</speed>
  <fix>3d</fix>
</trkpt>
<trkpt lat="40.0756753" lon="-105.2322844">
  <ele>1606.07</ele>
  <time>2026-08-28T19:07:28Z</time>
  <course>181.71</course>
  <speed>0.21</speed>
  <fix>3d</fix>
</trkpt>
<trkpt lat="40.0756743" lon="-105.2322842">
  <ele>1606.15</ele>
  <time>2026-08-28T19:07:28Z</time>
  <course>328.92</course>
  <speed>0.4916299421312742</speed>
  <fix>3d</fix>
</trkpt>
<trkpt lat="40.0756748" lon="-105.2322844">
  <ele>1606.07</ele>
  <time>2026-08-28T19:07:28Z</time>
  <course>179.7</course>
  <speed>0.35</speed>
  <fix>3d</fix>
</trkpt>
<trkpt lat="40.0756733" lon="-105.2322841">
  <ele>1606.15</ele>
  <time>2026-08-28T19:07:28Z</time>
  <course>328.87</course>
  <speed>0.7045565981523414</speed>
  <fix>3d</fix>
</trkpt>
<trkpt lat="40.0756741" lon="-105.2322844">
  <ele>1606.07</ele>
  <time>2026-08-28T19:07:28Z</time>
  <course>177.09</course>
  <speed>0.53</speed>
  <fix>3d</fix>
</trkpt>
<trkpt lat="40.0756718" lon="-105.2322839">
  <ele>1606.15</ele>
  <time>2026-08-28T19:07:28Z</time>
  <course>328.78</course>
  <speed>0.9588534820294495</speed>
  <fix>3d</fix>
</trkpt>
<trkpt lat="40.0756729" lon="-105.2322843">
  <ele>1606.07</ele>
  <time>2026-08-28T19:07:28Z</time>
  <course>174.77</course>
  <speed>0.75</speed>
  <fix>3d</fix>
</trkpt>
<trkpt lat="40.0756699" lon="-105.2322836">
  <ele>1606.15</ele>
  <time>2026-08-28T19:07:28Z</time>
  <course>326.86</course>
  <speed>1.2218428704215611</speed>
  <fix>3d</fix>
</trkpt>
<trkpt lat="40.0756712" lon="-105.2322841">
  <ele>1606.07</ele>
  <time>2026-08-28T19:07:28Z</time>
  <course>172.58</course>
  <speed>1.01</speed>
  <fix>3d</fix>
</trkpt>
<trkpt lat="40.0756676" lon="-105.232283">
  <ele>1606.15</ele>
  <time>2026-08-28T19:07:28Z</time>
  <course>312.65</course>
  <speed>1.5435349040433133</speed>
  <fix>3d</fix>
</trkpt>
<trkpt lat="40.0756693" lon="-105.2322837">
  <ele>1606.07</ele>
  <time>2026-08-28T19:07:28Z</time>
  <course>169.88</course>
  <speed>1.3</speed>
  <fix>3d</fix>
</trkpt>
<trkpt lat="40.0756646" lon="-105.2322822">
  <ele>1606.14</ele>
  <time>2026-08-28T19:07:29Z</time>
  <course>300.0</course>
  <speed>1.9068298298484845</speed>
  <fix>3d</fix>
</trkpt>
<trkpt lat="40.0756667" lon="-105.232283">
  <ele>1606.06</ele>
  <time>2026-08-28T19:07:29Z</time>
  <course>168.09</course>
  <speed>1.62</speed>
  <fix>3d</fix>
</trkpt>
<trkpt lat="40.075661" lon="-105.2322811">
  <ele>1606.13</ele>
  <time>2026-08-28T19:07:29Z</time>
  <course>287.66</course>
  <speed>2.2750164834567683</speed>
  <fix>3d</fix>
</trkpt>
<trkpt lat="40.0756635" lon="-105.232282">
  <ele>1606.05</ele>
  <time>2026-08-28T19:07:29Z</time>
  <course>167.17</course>
  <speed>1.99</speed>
  <fix>3d</fix>
</trkpt>
<trkpt lat="40.0756567" lon="-105.2322798">
  <ele>1606.12</ele>
  <time>2026-08-28T19:07:29Z</time>
  <course>275.59</course>
  <speed>2.6533940529065787</speed>
  <fix>3d</fix>
</trkpt>
<trkpt lat="40.0756597" lon="-105.2322809">
  <ele>1606.04</ele>
  <time>2026-08-28T19:07:29Z</time>
  <course>166.2</course>
  <speed>2.37</speed>
  <fix>3d</fix>
</trkpt>
<trkpt lat="40.0756518" lon="-105.2322781">
  <ele>1606.11</ele>
  <time>2026-08-28T19:07:29Z</time>
  <course>263.77</course>
  <speed>3.039161068452937</speed>
  <fix>3d</fix>
</trkpt>
<trkpt lat="40.0756553" lon="-105.2322795">
  <ele>1606.04</ele>
  <time>2026-08-28T19:07:29Z</time>
  <course>165.57</course>
  <speed>2.75</speed>
  <fix>3d</fix>
</trkpt>
<trkpt lat="40.0756463" lon="-105.2322763">
  <ele>1606.1</ele>
  <time>2026-08-28T19:07:29Z</time>
  <course>252.09</course>
  <speed>3.436771741038383</speed>
  <fix>3d</fix>
</trkpt>
<trkpt lat="40.0756501" lon="-105.2322777">
  <ele>1606.03</ele>
  <time>2026-08-28T19:07:29Z</time>
  <course>165.46</course>
  <speed>3.14</speed>
  <fix>3d</fix>
</trkpt>
<trkpt lat="40.07564" lon="-105.2322743">
  <ele>1606.09</ele>
  <time>2026-08-28T19:07:29Z</time>
  <course>240.39</course>
  <speed>3.8467648745406837</speed>
  <fix>3d</fix>
</trkpt>
<trkpt lat="40.0756443" lon="-105.2322758">
  <ele>1606.02</ele>
  <time>2026-08-28T19:07:29Z</time>
  <course>165.85</course>
  <speed>3.54</speed>
  <fix>3d</fix>
</trkpt>
<trkpt lat="40.0756329" lon="-105.2322721">
  <ele>1606.08</ele>
  <time>2026-08-28T19:07:29Z</time>
  <course>228.48</course>
  <speed>4.2843902716722715</speed>
  <fix>3d</fix>
</trkpt>
<trkpt lat="40.0756377" lon="-105.2322737">
  <ele>1606.01</ele>
  <time>2026-08-28T19:07:29Z</time>
  <course>166.56</course>
  <speed>3.97</speed>
  <fix>3d</fix>
</trkpt>
<trkpt lat="40.075625" lon="-105.2322699">
  <ele>1606.08</ele>
  <time>2026-08-28T19:07:29Z</time>
  <course>216.4</course>
  <speed>4.732578578322816</speed>
  <fix>3d</fix>
</trkpt>
<trkpt lat="40.0756303" lon="-105.2322714">
  <ele>1606.0</ele>
  <time>2026-08-28T19:07:29Z</time>
  <course>167.35</course>
  <speed>4.41</speed>
  <fix>3d</fix>
</trkpt>
<trkpt lat="40.0756164" lon="-105.2322675">
  <ele>1606.07</ele>
  <time>2026-08-28T19:07:29Z</time>
  <course>203.97</course>
  <speed>5.202970305508192</speed>
  <fix>3d</fix>
</trkpt>
<trkpt lat="40.0756222" lon="-105.2322691">
  <ele>1605.99</ele>
  <time>2026-08-28T19:07:29Z</time>
  <course>168.03</course>
  <speed>4.88</speed>
  <fix>3d</fix>
</trkpt>
<trkpt lat="40.0756069" lon="-105.232265">
  <ele>1606.06</ele>
  <time>2026-08-28T19:07:29Z</time>
  <course>191.33</course>
  <speed>5.689332122490302</speed>
  <fix>3d</fix>
</trkpt>
<trkpt lat="40.0756132" lon="-105.2322666">
  <ele>1605.99</ele>
  <time>2026-08-28T19:07:29Z</time>
  <course>168.42</course>
  <speed>5.36</speed>
  <fix>3d</fix>
</trkpt>
<trkpt lat="40.0755965" lon="-105.2322622">
  <ele>1606.06</ele>
  <time>2026-08-28T19:07:29Z</time>
  <course>178.49</course>
  <speed>6.1639678779175995</speed>
  <fix>3d</fix>
</trkpt>
<trkpt lat="40.0756033" lon="-105.232264">
  <ele>1605.98</ele>
  <time>2026-08-28T19:07:29Z</time>
  <course>168.46</course>
  <speed>5.85</speed>
  <fix>3d</fix>
</trkpt>
<trkpt lat="40.0755854" lon="-105.2322592">
  <ele>1606.06</ele>
  <time>2026-08-28T19:07:29Z</time>
  <course>165.76</course>
  <speed>6.617627973828689</speed>
  <fix>3d</fix>
</trkpt>
<trkpt lat="40.0755926" lon="-105.2322611">
  <ele>1605.98</ele>
  <time>2026-08-28T19:07:29Z</time>
  <course>168.15</course>
  <speed>6.33</speed>
  <fix>3d</fix>
</trkpt>
<trkpt lat="40.0755735" lon="-105.2322556">
  <ele>1606.06</ele>
  <time>2026-08-28T19:07:29Z</time>
  <course>161.72</course>
  <speed>7.022371394336816</speed>
  <fix>3d</fix>
</trkpt>
<trkpt lat="40.075581" lon="-105.2322578">
  <ele>1605.98</ele>
  <time>2026-08-28T19:07:29Z</time>
  <course>167.39</course>
  <speed>6.78</speed>
  <fix>3d</fix>
</trkpt>
<trkpt lat="40.0755609" lon="-105.2322518">
  <ele>1606.06</ele>
  <time>2026-08-28T19:07:29Z</time>
  <course>162.0</course>
  <speed>7.422620830946439</speed>
  <fix>3d</fix>
</trkpt>
<trkpt lat="40.0755688" lon="-105.2322542">
  <ele>1605.98</ele>
  <time>2026-08-28T19:07:29Z</time>
  <course>166.8</course>
  <speed>7.2</speed>
  <fix>3d</fix>
</trkpt>
<trkpt lat="40.0755476" lon="-105.2322477">
  <ele>1606.07</ele>
  <time>2026-08-28T19:07:29Z</time>
  <course>162.31</course>
  <speed>7.813917071482138</speed>
  <fix>3d</fix>
</trkpt>
<trkpt lat="40.0755559" lon="-105.2322502">
  <ele>1605.98</ele>
  <time>2026-08-28T19:07:29Z</time>
  <course>166.83</course>
  <speed>7.6</speed>
  <fix>3d</fix>
</trkpt>
<trkpt lat="40.0755336" lon="-105.2322436">
  <ele>1606.09</ele>
  <time>2026-08-28T19:07:29Z</time>
  <course>162.72</course>
  <speed>8.16963279468545</speed>
  <fix>3d</fix>
</trkpt>
<trkpt lat="40.0755422" lon="-105.2322461">
  <ele>1605.99</ele>
  <time>2026-08-28T19:07:29Z</time>
  <course>167.14</course>
  <speed>7.98</speed>
  <fix>3d</fix>
</trkpt>
<trkpt lat="40.0755189" lon="-105.2322394">
  <ele>1606.1</ele>
  <time>2026-08-28T19:07:29Z</time>
  <course>163.29</course>
  <speed>8.49433340527672</speed>
  <fix>3d</fix>
</trkpt>
<trkpt lat="40.0755279" lon="-105.2322418">
  <ele>1605.99</ele>
  <time>2026-08-28T19:07:29Z</time>
  <course>167.57</course>
  <speed>8.33</speed>
  <fix>3d</fix>
</trkpt>
<trkpt lat="40.0755037" lon="-105.2322353">
  <ele>1606.11</ele>
  <time>2026-08-28T19:07:29Z</time>
  <course>163.98</course>
  <speed>8.774257803370038</speed>
  <fix>3d</fix>
</trkpt>
<trkpt lat="40.075513" lon="-105.2322377">
  <ele>1606.0</ele>
  <time>2026-08-28T19:07:29Z</time>
  <course>168.04</course>
  <speed>8.65</speed>
  <fix>3d</fix>
</trkpt>
<trkpt lat="40.0754879" lon="-105.2322311">
  <ele>1606.13</ele>
  <time>2026-08-28T19:07:29Z</time>
  <course>164.79</course>
  <speed>9.023508186952567</speed>
  <fix>3d</fix>
</trkpt>
<trkpt lat="40.0754975" lon="-105.2322334">
  <ele>1606.02</ele>
  <time>2026-08-28T19:07:29Z</time>
  <course>168.56</course>
  <speed>8.92</speed>
  <fix>3d</fix>
</trkpt>
<trkpt lat="40.0754717" lon="-105.2322271">
  <ele>1606.15</ele>
  <time>2026-08-28T19:07:29Z</time>
  <course>165.68</course>
  <speed>9.220656158864182</speed>
  <fix>3d</fix>
</trkpt>
<trkpt lat="40.0754816" lon="-105.2322294">
  <ele>1606.04</ele>
  <time>2026-08-28T19:07:29Z</time>
  <course>169.11</course>
  <speed>9.15</speed>
  <fix>3d</fix>
</trkpt>
<trkpt lat="40.0754551" lon="-105.2322232">
  <ele>1606.17</ele>
  <time>2026-08-28T19:07:29Z</time>
  <course>166.64</course>
  <speed>9.38735852090459</speed>
  <fix>3d</fix>
</trkpt>
<trkpt lat="40.0754652" lon="-105.2322254">
  <ele>1606.05</ele>
  <time>2026-08-28T19:07:29Z</time>
  <course>169.69</course>
  <speed>9.34</speed>
  <fix>3d</fix>
</trkpt>
<trkpt lat="40.0754382" lon="-105.2322194">
  <ele>1606.18</ele>
  <time>2026-08-28T19:07:29Z</time>
  <course>167.59</course>
  <speed>9.513832035515447</speed>
  <fix>3d</fix>
</trkpt>
<trkpt lat="40.0754486" lon="-105.2322216">
  <ele>1606.07</ele>
  <time>2026-08-28T19:07:29Z</time>
  <course>170.26</course>
  <speed>9.49</speed>
  <fix>3d</fix>
</trkpt>
<trkpt lat="40.0754212" lon="-105.2322158">
  <ele>1606.2</ele>
  <time>2026-08-28T19:07:29Z</time>
  <course>168.5</course>
  <speed>9.61153473697099</speed>
  <fix>3d</fix>
</trkpt>
<trkpt lat="40.0754316" lon="-105.2322179">
  <ele>1606.09</ele>
  <time>2026-08-28T19:07:29Z</time>
  <course>170.82</course>
  <speed>9.61</speed>
  <fix>3d</fix>
</trkpt>
<trkpt lat="40.0754039" lon="-105.2322124">
  <ele>1606.2</ele>
  <time>2026-08-28T19:07:29Z</time>
  <course>169.36</course>
  <speed>9.681756039066466</speed>
  <fix>3d</fix>
</trkpt>
<trkpt lat="40.0754144" lon="-105.2322144">
  <ele>1606.1</ele>
  <time>2026-08-28T19:07:29Z</time>
  <course>171.34</course>
  <speed>9.69</speed>
  <fix>3d</fix>
</trkpt>
<trkpt lat="40.0753866" lon="-105.2322092">
  <ele>1606.21</ele>
  <time>2026-08-28T19:07:29Z</time>
  <course>170.16</course>
  <speed>9.711503488132001</speed>
  <fix>3d</fix>
</trkpt>
<trkpt lat="40.0753972" lon="-105.232211">
  <ele>1606.11</ele>
  <time>2026-08-28T19:07:29Z</time>
  <course>171.81</course>
  <speed>9.74</speed>
  <fix>3d</fix>
</trkpt>
<trkpt lat="40.0753692" lon="-105.232206">
  <ele>1606.22</ele>
  <time>2026-08-28T19:07:29Z</time>
  <course>170.92</course>
  <speed>9.704782326255442</speed>
  <fix>3d</fix>
</trkpt>
<trkpt lat="40.0753799" lon="-105.2322078">
  <ele>1606.13</ele>
  <time>2026-08-28T19:07:29Z</time>
  <course>172.21</course>
  <speed>9.76</speed>
  <fix>3d</fix>
</trkpt>
<trkpt lat="40.0753518" lon="-105.2322031">
  <ele>1606.23</ele>
  <time>2026-08-28T19:07:29Z</time>
  <course>171.6</course>
  <speed>9.678476119720502</speed>
  <fix>3d</fix>
</trkpt>
<trkpt lat="40.0753625" lon="-105.2322048">
  <ele>1606.14</ele>
  <time>2026-08-28T19:07:29Z</time>
  <course>172.53</course>
  <speed>9.74</speed>
  <fix>3d</fix>
</trkpt>
<trkpt lat="40.0753344" lon="-105.2322002">
  <ele>1606.24</ele>
  <time>2026-08-28T19:07:29Z</time>
  <course>172.09</course>
  <speed>9.644941679450426</speed>
  <fix>3d</fix>
</trkpt>
<trkpt lat="40.0753451" lon="-105.2322018">
  <ele>1606.15</ele>
  <time>2026-08-28T19:07:29Z</time>
  <course>172.77</course>
  <speed>9.71</speed>
  <fix>3d</fix>
</trkpt>
<trkpt lat="40.0753172" lon="-105.2321974">
  <ele>1606.24</ele>
  <time>2026-08-28T19:07:29Z</time>
  <course>172.34</course>
  <speed>9.612699932901265</speed>
  <fix>3d</fix>
</trkpt>
<trkpt lat="40.0753278" lon="-105.2321991">
  <ele>1606.16</ele>
  <time>2026-08-28T19:07:29Z</time>
  <course>172.94</course>
  <speed>9.67</speed>
  <fix>3d</fix>
</trkpt>
<trkpt lat="40.0753" lon="-105.2321946">
  <ele>1606.23</ele>
  <time>2026-08-28T19:07:29Z</time>
  <course>172.36</course>
  <speed>9.602775640407309</speed>
  <fix>3d</fix>
</trkpt>
<trkpt lat="40.0753105" lon="-105.2321963">
  <ele>1606.15</ele>
  <time>2026-08-28T19:07:29Z</time>
  <course>173.0</course>
  <speed>9.64</speed>
  <fix>3d</fix>
</trkpt>
<trkpt lat="40.0752827" lon="-105.2321918">
  <ele>1606.21</ele>
  <time>2026-08-28T19:07:29Z</time>
  <course>172.17</course>
  <speed>9.616428651011768</speed>
  <fix>3d</fix>
</trkpt>
<trkpt lat="40.0752934" lon="-105.2321935">
  <ele>1606.14</ele>
  <time>2026-08-28T19:07:29Z</time>
  <course>172.95</course>
  <speed>9.63</speed>
  <fix>3d</fix>
</trkpt>
<trkpt lat="40.0752654" lon="-105.2321889">
  <ele>1606.19</ele>
  <time>2026-08-28T19:07:29Z</time>
  <course>171.82</course>
  <speed>9.642675977134148</speed>
  <fix>3d</fix>
</trkpt>
<trkpt lat="40.0752762" lon="-105.2321907">
  <ele>1606.12</ele>
  <time>2026-08-28T19:07:29Z</time>
  <course>172.78</course>
  <speed>9.63</speed>
  <fix>3d</fix>
</trkpt>
<trkpt lat="40.0752482" lon="-105.2321859">
  <ele>1606.18</ele>
  <time>2026-08-28T19:07:29Z</time>
  <course>171.38</course>
  <speed>9.670511878902792</speed>
  <fix>3d</fix>
</trkpt>
<trkpt lat="40.075259" lon="-105.2321878">
  <ele>1606.11</ele>
  <time>2026-08-28T19:07:29Z</time>
  <course>172.48</course>
  <speed>9.65</speed>
  <fix>3d</fix>
</trkpt>
<trkpt lat="40.0752309" lon="-105.2321827">
  <ele>1606.16</ele>
  <time>2026-08-28T19:07:29Z</time>
  <course>170.87</course>
  <speed>9.701546268507922</speed>
  <fix>3d</fix>
</trkpt>
<trkpt lat="40.0752418" lon="-105.2321848">
  <ele>1606.09</ele>
  <time>2026-08-28T19:07:29Z</time>
  <course>172.08</course>
  <speed>9.68</speed>
  <fix>3d</fix>
</trkpt>
<trkpt lat="40.0752136" lon="-105.2321793">
  <ele>1606.15</ele>
  <time>2026-08-28T19:07:29Z</time>
  <course>170.35</course>
  <speed>9.733180364094771</speed>
  <fix>3d</fix>
</trkpt>
<trkpt lat="40.0752246" lon="-105.2321815">
  <ele>1606.07</ele>
  <time>2026-08-28T19:07:29Z</time>
  <course>171.62</course>
  <speed>9.7</speed>
  <fix>3d</fix>
</trkpt>
<trkpt lat="40.0751963" lon="-105.2321758">
  <ele>1606.15</ele>
  <time>2026-08-28T19:07:29Z</time>
  <course>169.81</course>
  <speed>9.76701080167315</speed>
  <fix>3d</fix>
</trkpt>
<trkpt lat="40.0752073" lon="-105.2321781">
  <ele>1606.07</ele>
  <time>2026-08-28T19:07:29Z</time>
  <course>171.13</course>
  <speed>9.74</speed>
  <fix>3d</fix>
</trkpt>
<trkpt lat="40.0751789" lon="-105.232172">
  <ele>1606.15</ele>
  <time>2026-08-28T19:07:29Z</time>
  <course>169.29</course>
  <speed>9.809760445597028</speed>
  <fix>3d</fix>
</trkpt>
<trkpt lat="40.07519" lon="-105.2321745">
  <ele>1606.06</ele>
  <time>2026-08-28T19:07:29Z</time>
  <course>170.65</course>
  <speed>9.77</speed>
  <fix>3d</fix>
</trkpt>
<trkpt lat="40.0751614" lon="-105.232168">
  <ele>1606.15</ele>
  <time>2026-08-28T19:07:29Z</time>
  <course>168.79</course>
  <speed>9.853065512823916</speed>
  <fix>3d</fix>
</trkpt>
<trkpt lat="40.0751726" lon="-105.2321706">
  <ele>1606.06</ele>
  <time>2026-08-28T19:07:29Z</time>
  <course>170.18</course>
  <speed>9.81</speed>
  <fix>3d</fix>
</trkpt>
<trkpt lat="40.075144" lon="-105.2321639">
  <ele>1606.15</ele>
  <time>2026-08-28T19:07:29Z</time>
  <course>168.36</course>
  <speed>9.885261756777107</speed>
  <fix>3d</fix>
</trkpt>
<trkpt lat="40.0751553" lon="-105.2321666">
  <ele>1606.06</ele>
  <time>2026-08-28T19:07:29Z</time>
  <course>169.75</course>
  <speed>9.85</speed>
  <fix>3d</fix>
</trkpt>
<trkpt lat="40.0751265" lon="-105.2321596">
  <ele>1606.15</ele>
  <time>2026-08-28T19:07:29Z</time>
  <course>167.98</course>
  <speed>9.925829940110802</speed>
  <fix>3d</fix>
</trkpt>
<trkpt lat="40.0751378" lon="-105.2321624">
  <ele>1606.06</ele>
  <time>2026-08-28T19:07:29Z</time>
  <course>169.36</course>
  <speed>9.89</speed>
  <fix>3d</fix>
</trkpt>
<trkpt lat="40.075109" lon="-105.2321552">
  <ele>1606.15</ele>
  <time>2026-08-28T19:07:29Z</time>
  <course>167.69</course>
  <speed>9.954948518199378</speed>
  <fix>3d</fix>
</trkpt>
<trkpt lat="40.0751203" lon="-105.232158">
  <ele>1606.07</ele>
  <time>2026-08-28T19:07:29Z</time>
  <course>169.04</course>
  <speed>9.92</speed>
  <fix>3d</fix>
</trkpt>
<trkpt lat="40.0750914" lon="-105.2321506">
  <ele>1606.15</ele>
  <time>2026-08-28T19:07:29Z</time>
  <course>167.47</course>
  <speed>9.99212189677448</speed>
  <fix>3d</fix>
</trkpt>
<trkpt lat="40.0751027" lon="-105.2321536">
  <ele>1606.07</ele>
  <time>2026-08-28T19:07:29Z</time>
  <course>168.78</course>
  <speed>9.96</speed>
  <fix>3d</fix>
</trkpt>
<trkpt lat="40.0750739" lon="-105.232146">
  <ele>1606.15</ele>
  <time>2026-08-28T19:07:29Z</time>
  <course>167.31</course>
  <speed>10.017624468904792</speed>
  <fix>3d</fix>
</trkpt>
<trkpt lat="40.0750852" lon="-105.2321489">
  <ele>1606.07</ele>
  <time>2026-08-28T19:07:29Z</time>
  <course>168.6</course>
  <speed>9.99</speed>
  <fix>3d</fix>
</trkpt>
<trkpt lat="40.0750563" lon="-105.2321414">
  <ele>1606.15</ele>
  <time>2026-08-28T19:07:29Z</time>
  <course>167.23</course>
  <speed>10.049009901477858</speed>
  <fix>3d</fix>
</trkpt>
<trkpt lat="40.0750675" lon="-105.2321443">
  <ele>1606.08</ele>
  <time>2026-08-28T19:07:29Z</time>
  <course>168.48</course>
  <speed>10.02</speed>
  <fix>3d</fix>
</trkpt>
<trkpt lat="40.0750386" lon="-105.2321367">
  <ele>1606.16</ele>
  <time>2026-08-28T19:07:29Z</time>
  <course>167.2</course>
  <speed>10.070595811569442</speed>
  <fix>3d</fix>
</trkpt>
<trkpt lat="40.0750499" lon="-105.2321396">
  <ele>1606.08</ele>
  <time>2026-08-28T19:07:29Z</time>
  <course>168.42</course>
  <speed>10.05</speed>
  <fix>3d</fix>
</trkpt>
<trkpt lat="40.0750209" lon="-105.2321319">
  <ele>1606.16</ele>
  <time>2026-08-28T19:07:29Z</time>
  <course>167.25</course>
  <speed>10.09019821410858</speed>
  <fix>3d</fix>
</trkpt>
<trkpt lat="40.0750321" lon="-105.2321348">
  <ele>1606.08</ele>
  <time>2026-08-28T19:07:29Z</time>
  <course>168.42</course>
  <speed>10.08</speed>
  <fix>3d</fix>
</trkpt>
<trkpt lat="40.0750031" lon="-105.2321272">
  <ele>1606.17</ele>
  <time>2026-08-28T19:07:29Z</time>
  <course>167.36</course>
  <speed>10.105864633963785</speed>
  <fix>3d</fix>
</trkpt>
<trkpt lat="40.0750144" lon="-105.2321301">
  <ele>1606.09</ele>
  <time>2026-08-28T19:07:29Z</time>
  <course>168.47</course>
  <speed>10.1</speed>
  <fix>3d</fix>
</trkpt>
<trkpt lat="40.0749853" lon="-105.2321226">
  <ele>1606.17</ele>
  <time>2026-08-28T19:07:29Z</time>
  <course>167.55</course>
  <speed>10.111775313959463</speed>
  <fix>3d</fix>
</trkpt>
<trkpt lat="40.0749966" lon="-105.2321254">
  <ele>1606.09</ele>
  <time>2026-08-28T19:07:29Z</time>
  <course>168.57</course>
  <speed>10.12</speed>
  <fix>3d</fix>
</trkpt>
<trkpt lat="40.0749674" lon="-105.2321179">
  <ele>1606.17</ele>
  <time>2026-08-28T19:07:29Z</time>
  <course>167.78</course>
  <speed>10.125635782507684</speed>
  <fix>3d</fix>
</trkpt>
<trkpt lat="40.0749787" lon="-105.2321207">
  <ele>1606.1</ele>
  <time>2026-08-28T19:07:29Z</time>
  <course>168.7</course>
  <speed>10.13</speed>
  <fix>3d</fix>
</trkpt>
<trkpt lat="40.0749496" lon="-105.2321134">
  <ele>1606.17</ele>
  <time>2026-08-28T19:07:29Z</time>
  <course>168.0</course>
  <speed>10.119960474231112</speed>
  <fix>3d</fix>
</trkpt>
<trkpt lat="40.0749608" lon="-105.232116">
  <ele>1606.1</ele>
  <time>2026-08-28T19:07:29Z</time>
  <course>168.88</course>
  <speed>10.13</speed>
  <fix>3d</fix>
</trkpt>
<trkpt lat="40.0749317" lon="-105.2321089">
  <ele>1606.18</ele>
  <time>2026-08-28T19:07:29Z</time>
  <course>168.27</course>
  <speed>10.124198733727031</speed>
  <fix>3d</fix>
</trkpt>
<trkpt lat="40.074943" lon="-105.2321115">
  <ele>1606.1</ele>
  <time>2026-08-28T19:07:29Z</time>
  <course>169.07</course>
  <speed>10.13</speed>
  <fix>3d</fix>
</trkpt>
<trkpt lat="40.0749137" lon="-105.2321044">
  <ele>1606.18</ele>
  <time>2026-08-28T19:07:29Z</time>
  <course>168.57</course>
  <speed>10.10705199353402</speed>
  <fix>3d</fix>
</trkpt>
<trkpt lat="40.0749251" lon="-105.232107">
  <ele>1606.11</ele>
  <time>2026-08-28T19:07:29Z</time>
  <course>169.28</course>
  <speed>10.13</speed>
  <fix>3d</fix>
</trkpt>
<trkpt lat="40.0748959" lon="-105.2321001">
  <ele>1606.18</ele>
  <time>2026-08-28T19:07:29Z</time>
  <course>168.86</course>
  <speed>10.090044598513924</speed>
  <fix>3d</fix>
</trkpt>
<trkpt lat="40.0749072" lon="-105.2321027">
  <ele>1606.11</ele>
  <time>2026-08-28T19:07:29Z</time>
  <course>169.49</course>
  <speed>10.12</speed>
  <fix>3d</fix>
</trkpt>
<trkpt lat="40.074878" lon="-105.2320959">
  <ele>1606.18</ele>
  <time>2026-08-28T19:07:29Z</time>
  <course>169.13</course>
  <speed>10.073177254471402</speed>
  <fix>3d</fix>
</trkpt>
<trkpt lat="40.0748894" lon="-105.2320984">
  <ele>1606.12</ele>
  <time>2026-08-28T19:07:29Z</time>
  <course>169.69</course>
  <speed>10.1</speed>
  <fix>3d</fix>
</trkpt>
<trkpt lat="40.0748602" lon="-105.2320918">
  <ele>1606.18</ele>
  <time>2026-08-28T19:07:29Z</time>
  <course>169.4</course>
  <speed>10.058155894596185</speed>
  <fix>3d</fix>
</trkpt>
<trkpt lat="40.0748715" lon="-105.2320941">
  <ele>1606.12</ele>
  <time>2026-08-28T19:07:29Z</time>
  <course>169.89</course>
  <speed>10.08</speed>
  <fix>3d</fix>
</trkpt>
<trkpt lat="40.0748424" lon="-105.2320877">
  <ele>1606.18</ele>
  <time>2026-08-28T19:07:29Z</time>
  <course>169.59</course>
  <speed>10.0333543742858</speed>
  <fix>3d</fix>
</trkpt>
<trkpt lat="40.0748537" lon="-105.23209">
  <ele>1606.12</ele>
  <time>2026-08-28T19:07:29Z</time>
  <course>170.07</course>
  <speed>10.06</speed>
  <fix>3d</fix>
</trkpt>
<trkpt lat="40.0748246" lon="-105.2320837">
  <ele>1606.19</ele>
  <time>2026-08-28T19:07:29Z</time>
  <course>169.77</course>
  <speed>10.018482919085104</speed>
  <fix>3d</fix>
</trkpt>
<trkpt lat="40.0748358" lon="-105.2320861">
  <ele>1606.12</ele>
  <time>2026-08-28T19:07:29Z</time>
  <course>170.22</course>
  <speed>10.04</speed>
  <fix>3d</fix>
</trkpt>
<trkpt lat="40.0748069" lon="-105.2320798">
  <ele>1606.18</ele>
  <time>2026-08-28T19:07:29Z</time>
  <course>169.89</course>
  <speed>9.995458968951851</speed>
  <fix>3d</fix>
</trkpt>
<trkpt lat="40.0748181" lon="-105.232082">
  <ele>1606.12</ele>
  <time>2026-08-28T19:07:29Z</time>
  <course>170.34</course>
  <speed>10.03</speed>
  <fix>3d</fix>
</trkpt>
<trkpt lat="40.0747891" lon="-105.2320759">
  <ele>1606.18</ele>
  <time>2026-08-28T19:07:29Z</time>
  <course>169.99</course>
  <speed>9.983957131318222</speed>
  <fix>3d</fix>
</trkpt>
<trkpt lat="40.0748004" lon="-105.2320781">
  <ele>1606.12</ele>
  <time>2026-08-28T19:07:29Z</time>
  <course>170.43</course>
  <speed>10.01</speed>
  <fix>3d</fix>
</trkpt>
<trkpt lat="40.0747714" lon="-105.232072">
  <ele>1606.18</ele>
  <time>2026-08-28T19:07:29Z</time>
  <course>170.04</course>
  <speed>9.962595043461317</speed>
  <fix>3d</fix>
</trkpt>
<trkpt lat="40.0747826" lon="-105.2320742">
  <ele>1606.11</ele>
  <time>2026-08-28T19:07:29Z</time>
  <course>170.49</course>
  <speed>9.99</speed>
  <fix>3d</fix>
</trkpt>
<trkpt lat="40.0747538" lon="-105.2320681">
  <ele>1606.17</ele>
  <time>2026-08-28T19:07:29Z</time>
  <course>170.08</course>
  <speed>9.952728269173232</speed>
  <fix>3d</fix>
</trkpt>
<trkpt lat="40.0747649" lon="-105.2320704">
  <ele>1606.11</ele>
  <time>2026-08-28T19:07:29Z</time>
  <course>170.51</course>
  <speed>9.98</speed>
  <fix>3d</fix>
</trkpt>
<trkpt lat="40.0747362" lon="-105.2320643">
  <ele>1606.17</ele>
  <time>2026-08-28T19:07:29Z</time>
  <course>170.07</course>
  <speed>9.932995519982882</speed>
  <fix>3d</fix>
</trkpt>
<trkpt lat="40.0747472" lon="-105.2320665">
  <ele>1606.11</ele>
  <time>2026-08-28T19:07:29Z</time>
  <course>170.51</course>
  <speed>9.96</speed>
  <fix>3d</fix>
</trkpt>
<trkpt lat="40.0747186" lon="-105.2320604">
  <ele>1606.16</ele>
  <time>2026-08-28T19:07:29Z</time>
  <course>170.01</course>
  <speed>9.923129546670244</speed>
  <fix>3d</fix>
</trkpt>
<trkpt lat="40.0747296" lon="-105.2320626">
  <ele>1606.11</ele>
  <time>2026-08-28T19:07:29Z</time>
  <course>170.48</course>
  <speed>9.95</speed>
  <fix>3d</fix>
</trkpt>
<trkpt lat="40.074701" lon="-105.2320566">
  <ele>1606.15</ele>
  <time>2026-08-28T19:07:29Z</time>
  <course>169.91</course>
  <speed>9.914902924386098</speed>
  <fix>3d</fix>
</trkpt>
<trkpt lat="40.074712" lon="-105.2320587">
  <ele>1606.11</ele>
  <time>2026-08-28T19:07:29Z</time>
  <course>170.43</course>
  <speed>9.94</speed>
  <fix>3d</fix>
</trkpt>
<trkpt lat="40.0746834" lon="-105.2320527">
  <ele>1606.15</ele>
  <time>2026-08-28T19:07:29Z</time>
  <course>169.8</course>
  <speed>9.918210524081449</speed>
  <fix>3d</fix>
</trkpt>
<trkpt lat="40.0746943" lon="-105.2320549">
  <ele>1606.11</ele>
  <time>2026-08-28T19:07:29Z</time>
  <course>170.36</course>
  <speed>9.94</speed>
  <fix>3d</fix>
</trkpt>
<trkpt lat="40.0746659" lon="-105.2320487">
  <ele>1606.15</ele>
  <time>2026-08-28T19:07:29Z</time>
  <course>169.69</course>
  <speed>9.921557337434482</speed>
  <fix>3d</fix>
</trkpt>
<trkpt lat="40.0746767" lon="-105.2320509">
  <ele>1606.11</ele>
  <time>2026-08-28T19:07:29Z</time>
  <course>170.26</course>
  <speed>9.94</speed>
  <fix>3d</fix>
</trkpt>
<trkpt lat="40.0746483" lon="-105.2320447">
  <ele>1606.15</ele>
  <time>2026-08-28T19:07:29Z</time>
  <course>169.56</course>
  <speed>9.92494332477521</speed>
  <fix>3d</fix>
</trkpt>
<trkpt lat="40.0746591" lon="-105.232047">
  <ele>1606.11</ele>
  <time>2026-08-28T19:07:29Z</time>
  <course>170.15</course>
  <speed>9.94</speed>
  <fix>3d</fix>
</trkpt>
<trkpt lat="40.0746307" lon="-105.2320407">
  <ele>1606.16</ele>
  <time>2026-08-28T19:07:29Z</time>
  <course>169.43</course>
  <speed>9.926650996181944</speed>
  <fix>3d</fix>
</trkpt>
<trkpt lat="40.0746415" lon="-105.232043">
  <ele>1606.11</ele>
  <time>2026-08-28T19:07:29Z</time>
  <course>170.04</course>
  <speed>9.94</speed>
  <fix>3d</fix>
</trkpt>
<trkpt lat="40.0746131" lon="-105.2320366">
  <ele>1606.16</ele>
  <time>2026-08-28T19:07:29Z</time>
  <course>169.32</course>
  <speed>9.930095669226958</speed>
  <fix>3d</fix>
</trkpt>
<trkpt lat="40.0746238" lon="-105.2320389">
  <ele>1606.11</ele>
  <time>2026-08-28T19:07:29Z</time>
  <course>169.93</course>
  <speed>9.95</speed>
  <fix>3d</fix>
</trkpt>
<trkpt lat="40.0745955" lon="-105.2320325">
  <ele>1606.17</ele>
  <time>2026-08-28T19:07:29Z</time>
  <course>169.25</course>
  <speed>9.933579415296382</speed>
  <fix>3d</fix>
</trkpt>
<trkpt lat="40.0746063" lon="-105.2320348">
  <ele>1606.12</ele>
  <time>2026-08-28T19:07:29Z</time>
  <course>169.83</course>
  <speed>9.95</speed>
  <fix>3d</fix>
</trkpt>
<trkpt lat="40.0745779" lon="-105.2320283">
  <ele>1606.17</ele>
  <time>2026-08-28T19:07:29Z</time>
  <course>169.17</course>
  <speed>9.9353359278889</speed>
  <fix>3d</fix>
</trkpt>
<trkpt lat="40.0745886" lon="-105.2320307">
  <ele>1606.12</ele>
  <time>2026-08-28T19:07:29Z</time>
  <course>169.74</course>
  <speed>9.96</speed>
  <fix>3d</fix>
</trkpt>
<trkpt lat="40.0745602" lon="-105.2320241">
  <ele>1606.17</ele>
  <time>2026-08-28T19:07:29Z</time>
  <course>169.1</course>
  <speed>9.948718510441433</speed>
  <fix>3d</fix>
</trkpt>
<trkpt lat="40.0745711" lon="-105.2320264">
  <ele>1606.12</ele>
  <time>2026-08-28T19:07:29Z</time>
  <course>169.66</course>
  <speed>9.96</speed>
  <fix>3d</fix>
</trkpt>
<trkpt lat="40.0745425" lon="-105.2320199">
  <ele>1606.18</ele>
  <time>2026-08-28T19:07:29Z</time>
  <course>169.07</course>
  <speed>9.950502499874064</speed>
  <fix>3d</fix>
</trkpt>
<trkpt lat="40.0745534" lon="-105.2320223">
  <ele>1606.12</ele>
  <time>2026-08-28T19:07:29Z</time>
  <course>169.59</course>
  <speed>9.96</speed>
  <fix>3d</fix>
</trkpt>
<trkpt lat="40.0745249" lon="-105.2320156">
  <ele>1606.18</ele>
  <time>2026-08-28T19:07:29Z</time>
  <course>169.03</course>
  <speed>9.950502499874064</speed>
  <fix>3d</fix>
</trkpt>
<trkpt lat="40.0745358" lon="-105.232018">
  <ele>1606.12</ele>
  <time>2026-08-28T19:07:29Z</time>
  <course>169.54</course>
  <speed>9.97</speed>
  <fix>3d</fix>
</trkpt>
<trkpt lat="40.0745073" lon="-105.2320114">
  <ele>1606.19</ele>
  <time>2026-08-28T19:07:29Z</time>
  <course>168.99</course>
  <speed>9.952296217456553</speed>
  <fix>3d</fix>
</trkpt>
<trkpt lat="40.0745182" lon="-105.2320138">
  <ele>1606.12</ele>
  <time>2026-08-28T19:07:29Z</time>
  <course>169.51</course>
  <speed>9.97</speed>
  <fix>3d</fix>
</trkpt>
<trkpt lat="40.0744897" lon="-105.2320071">
  <ele>1606.19</ele>
  <time>2026-08-28T19:07:29Z</time>
  <course>169.01</course>
  <speed>9.962133305673037</speed>
  <fix>3d</fix>
</trkpt>
<trkpt lat="40.0745005" lon="-105.2320095">
  <ele>1606.12</ele>
  <time>2026-08-28T19:07:29Z</time>
  <course>169.49</course>
  <speed>9.97</speed>
  <fix>3d</fix>
</trkpt>
<trkpt lat="40.074472" lon="-105.2320028">
  <ele>1606.19</ele>
  <time>2026-08-28T19:07:29Z</time>
  <course>169.02</course>
  <speed>9.962133305673037</speed>
  <fix>3d</fix>
</trkpt>
<trkpt lat="40.074483" lon="-105.2320052">
  <ele>1606.11</ele>
  <time>2026-08-28T19:07:29Z</time>
  <course>169.49</course>
  <speed>9.98</speed>
  <fix>3d</fix>
</trkpt>
<trkpt lat="40.0744544" lon="-105.2319986">
  <ele>1606.18</ele>
  <time>2026-08-28T19:07:29Z</time>
  <course>169.02</course>
  <speed>9.970180539990237</speed>
  <fix>3d</fix>
</trkpt>
<trkpt lat="40.0744653" lon="-105.232001">
  <ele>1606.11</ele>
  <time>2026-08-28T19:07:29Z</time>
  <course>169.5</course>
  <speed>9.98</speed>
  <fix>3d</fix>
</trkpt>
<trkpt lat="40.0744368" lon="-105.2319943">
  <ele>1606.18</ele>
  <time>2026-08-28T19:07:29Z</time>
  <course>169.02</course>
  <speed>9.98002004006004</speed>
  <fix>3d</fix>
</trkpt>
<trkpt lat="40.0744477" lon="-105.2319967">
  <ele>1606.1</ele>
  <time>2026-08-28T19:07:29Z</time>
  <course>169.53</course>
  <speed>9.99</speed>
  <fix>3d</fix>
</trkpt>
<trkpt lat="40.074419" lon="-105.23199">
  <ele>1606.17</ele>
  <time>2026-08-28T19:07:29Z</time>
  <course>169.05</course>
  <speed>9.98002004006004</speed>
  <fix>3d</fix>
</trkpt>
<trkpt lat="40.07443" lon="-105.2319924">
  <ele>1606.1</ele>
  <time>2026-08-28T19:07:29Z</time>
  <course>169.56</course>
  <speed>10.0</speed>
  <fix>3d</fix>
</trkpt>
<trkpt lat="40.0744014" lon="-105.2319858">
  <ele>1606.17</ele>
  <time>2026-08-28T19:07:29Z</time>
  <course>169.09</course>
  <speed>9.98808289913535</speed>
  <fix>3d</fix>
</trkpt>
<trkpt lat="40.0744123" lon="-105.2319882">
  <ele>1606.1</ele>
  <time>2026-08-28T19:07:29Z</time>
  <course>169.59</course>
  <speed>10.0</speed>
  <fix>3d</fix>
</trkpt>
<trkpt lat="40.0743837" lon="-105.2319816">
  <ele>1606.17</ele>
  <time>2026-08-28T19:07:29Z</time>
  <course>169.12</course>
  <speed>9.997924784674067</speed>
  <fix>3d</fix>
</trkpt>
<trkpt lat="40.0743946" lon="-105.231984">
  <ele>1606.09</ele>
  <time>2026-08-28T19:07:29Z</time>
  <course>169.63</course>
  <speed>10.01</speed>
  <fix>3d</fix>
</trkpt>
<trkpt lat="40.0743659" lon="-105.2319774">
  <ele>1606.17</ele>
  <time>2026-08-28T19:07:29Z</time>
  <course>169.22</course>
  <speed>9.996159262436748</speed>
  <fix>3d</fix>
</trkpt>
<trkpt lat="40.0743769" lon="-105.2319798">
  <ele>1606.09</ele>
  <time>2026-08-28T19:07:29Z</time>
  <course>169.67</course>
  <speed>10.01</speed>
  <fix>3d</fix>
</trkpt>
<trkpt lat="40.0743481" lon="-105.2319732">
  <ele>1606.17</ele>
  <time>2026-08-28T19:07:29Z</time>
  <course>169.27</course>
  <speed>9.994403433922407</speed>
  <fix>3d</fix>
</trkpt>
<trkpt lat="40.0743592" lon="-105.2319756">
  <ele>1606.09</ele>
  <time>2026-08-28T19:07:29Z</time>
  <course>169.72</course>
  <speed>10.01</speed>
  <fix>3d</fix>
</trkpt>
<trkpt lat="40.0743304" lon="-105.231969">
  <ele>1606.17</ele>
  <time>2026-08-28T19:07:29Z</time>
  <course>169.33</course>
  <speed>9.99265730424095</speed>
  <fix>3d</fix>
</trkpt>
<trkpt lat="40.0743415" lon="-105.2319713">
  <ele>1606.09</ele>
  <time>2026-08-28T19:07:29Z</time>
  <course>169.77</course>
  <speed>10.01</speed>
  <fix>3d</fix>
</trkpt>
<trkpt lat="40.0743128" lon="-105.2319649">
  <ele>1606.17</ele>
  <time>2026-08-28T19:07:29Z</time>
  <course>169.41</course>
  <speed>9.981072086704915</speed>
  <fix>3d</fix>
</trkpt>
<trkpt lat="40.0743238" lon="-105.2319671">
  <ele>1606.09</ele>
  <time>2026-08-28T19:07:29Z</time>
  <course>169.81</course>
  <speed>10.01</speed>
  <fix>3d</fix>
</trkpt>
<trkpt lat="40.0742952" lon="-105.2319607">
  <ele>1606.17</ele>
  <time>2026-08-28T19:07:29Z</time>
  <course>169.46</course>
  <speed>9.981072086704915</speed>
  <fix>3d</fix>
</trkpt>
<trkpt lat="40.0743061" lon="-105.231963">
  <ele>1606.1</ele>
  <time>2026-08-28T19:07:29Z</time>
  <course>169.86</course>
  <speed>10.0</speed>
  <fix>3d</fix>
</trkpt>
<trkpt lat="40.0742775" lon="-105.2319566">
  <ele>1606.17</ele>
  <time>2026-08-28T19:07:29Z</time>
  <course>169.49</course>
  <speed>9.979343665792857</speed>
  <fix>3d</fix>
</trkpt>
<trkpt lat="40.0742884" lon="-105.2319589">
  <ele>1606.09</ele>
  <time>2026-08-28T19:07:29Z</time>
  <course>169.9</course>
  <speed>10.0</speed>
  <fix>3d</fix>
</trkpt>
<trkpt lat="40.0742599" lon="-105.2319525">
  <ele>1606.17</ele>
  <time>2026-08-28T19:07:29Z</time>
  <course>169.51</course>
  <speed>9.987477158922568</speed>
  <fix>3d</fix>
</trkpt>
<trkpt lat="40.0742707" lon="-105.2319548">
  <ele>1606.09</ele>
  <time>2026-08-28T19:07:29Z</time>
  <course>169.94</course>
  <speed>10.0</speed>
  <fix>3d</fix>
</trkpt>
<trkpt lat="40.0742421" lon="-105.2319484">
  <ele>1606.17</ele>
  <time>2026-08-28T19:07:29Z</time>
  <course>169.49</course>
  <speed>9.987477158922568</speed>
  <fix>3d</fix>
</trkpt>
<trkpt lat="40.074253" lon="-105.2319507">
  <ele>1606.09</ele>
  <time>2026-08-28T19:07:29Z</time>
  <course>169.97</course>
  <speed>10.01</speed>
  <fix>3d</fix>
</trkpt>
<trkpt lat="40.0742244" lon="-105.2319443">
  <ele>1606.17</ele>
  <time>2026-08-28T19:07:29Z</time>
  <course>169.52</course>
  <speed>9.997329643459798</speed>
  <fix>3d</fix>
</trkpt>
<trkpt lat="40.0742353" lon="-105.2319466">
  <ele>1606.09</ele>
  <time>2026-08-28T19:07:29Z</time>
  <course>169.99</course>
  <speed>10.02</speed>
  <fix>3d</fix>
</trkpt>
<trkpt lat="40.0742067" lon="-105.2319402">
  <ele>1606.17</ele>
  <time>2026-08-28T19:07:29Z</time>
  <course>169.53</course>
  <speed>9.997329643459798</speed>
  <fix>3d</fix>
</trkpt>
<trkpt lat="40.0742176" lon="-105.2319425">
  <ele>1606.09</ele>
  <time>2026-08-28T19:07:29Z</time>
  <course>169.99</course>
  <speed>10.02</speed>
  <fix>3d</fix>
</trkpt>
<trkpt lat="40.0741889" lon="-105.2319361">
  <ele>1606.16</ele>
  <time>2026-08-28T19:07:29Z</time>
  <course>169.55</course>
  <speed>9.999044954394394</speed>
  <fix>3d</fix>
</trkpt>
<trkpt lat="40.0741998" lon="-105.2319384">
  <ele>1606.09</ele>
  <time>2026-08-28T19:07:29Z</time>
  <course>169.99</course>
  <speed>10.02</speed>
  <fix>3d</fix>
</trkpt>
<trkpt lat="40.0741711" lon="-105.231932">
  <ele>1606.16</ele>
  <time>2026-08-28T19:07:29Z</time>
  <course>169.59</course>
  <speed>9.989194161692923</speed>
  <fix>3d</fix>
</trkpt>
<trkpt lat="40.0741821" lon="-105.2319343">
  <ele>1606.09</ele>
  <time>2026-08-28T19:07:29Z</time>
  <course>169.98</course>
  <speed>10.02</speed>
  <fix>3d</fix>
</trkpt>
<trkpt lat="40.0741535" lon="-105.2319279">
  <ele>1606.16</ele>
  <time>2026-08-28T19:07:29Z</time>
  <course>169.61</course>
  <speed>9.989194161692923</speed>
  <fix>3d</fix>
</trkpt>
<trkpt lat="40.0741643" lon="-105.2319302">
  <ele>1606.09</ele>
  <time>2026-08-28T19:07:29Z</time>
  <course>169.98</course>
  <speed>10.01</speed>
  <fix>3d</fix>
</trkpt>
<trkpt lat="40.0741358" lon="-105.2319239">
  <ele>1606.16</ele>
  <time>2026-08-28T19:07:29Z</time>
  <course>169.61</course>
  <speed>9.979343665792857</speed>
  <fix>3d</fix>
</trkpt>
<trkpt lat="40.0741466" lon="-105.2319262">
  <ele>1606.09</ele>
  <time>2026-08-28T19:07:29Z</time>
  <course>169.97</course>
  <speed>10.0</speed>
  <fix>3d</fix>
</trkpt>
<trkpt lat="40.0741181" lon="-105.2319198">
  <ele>1606.16</ele>
  <time>2026-08-28T19:07:29Z</time>
  <course>169.6</course>
  <speed>9.979343665792857</speed>
  <fix>3d</fix>
</trkpt>
<trkpt lat="40.0741289" lon="-105.2319221">
  <ele>1606.09</ele>
  <time>2026-08-28T19:07:29Z</time>
  <course>169.97</course>
  <speed>10.0</speed>
  <fix>3d</fix>
</trkpt>
<trkpt lat="40.0741004" lon="-105.2319157">
  <ele>1606.17</ele>
  <time>2026-08-28T19:07:29Z</time>
  <course>169.6</course>
  <speed>9.969493467573967</speed>
  <fix>3d</fix>
</trkpt>
<trkpt lat="40.0741113" lon="-105.231918">
  <ele>1606.1</ele>
  <time>2026-08-28T19:07:29Z</time>
  <course>169.96</course>
  <speed>10.0</speed>
  <fix>3d</fix>
</trkpt>
<trkpt lat="40.0740828" lon="-105.2319116">
  <ele>1606.17</ele>
  <time>2026-08-28T19:07:29Z</time>
  <course>169.57</course>
  <speed>9.969493467573967</speed>
  <fix>3d</fix>
</trkpt>
<trkpt lat="40.0740936" lon="-105.2319139">
  <ele>1606.1</ele>
  <time>2026-08-28T19:07:29Z</time>
  <course>169.94</course>
  <speed>9.99</speed>
  <fix>3d</fix>
</trkpt>
<trkpt lat="40.0740651" lon="-105.2319075">
  <ele>1606.17</ele>
  <time>2026-08-28T19:07:29Z</time>
  <course>169.55</course>
  <speed>9.971223595928436</speed>
  <fix>3d</fix>
</trkpt>
<trkpt lat="40.0740759" lon="-105.2319098">
  <ele>1606.1</ele>
  <time>2026-08-28T19:07:29Z</time>
  <course>169.92</course>
  <speed>9.99</speed>
  <fix>3d</fix>
</trkpt>
<trkpt lat="40.0740473" lon="-105.2319034">
  <ele>1606.17</ele>
  <time>2026-08-28T19:07:29Z</time>
  <course>169.53</course>
  <speed>9.971223595928436</speed>
  <fix>3d</fix>
</trkpt>
<trkpt lat="40.0740582" lon="-105.2319057">
  <ele>1606.1</ele>
  <time>2026-08-28T19:07:29Z</time>
  <course>169.9</course>
  <speed>9.99</speed>
  <fix>3d</fix>
</trkpt>
<trkpt lat="40.0740297" lon="-105.2318992">
  <ele>1606.17</ele>
  <time>2026-08-28T19:07:29Z</time>
  <course>169.5</course>
  <speed>9.971223595928436</speed>
  <fix>3d</fix>
</trkpt>
<trkpt lat="40.0740405" lon="-105.2319015">
  <ele>1606.09</ele>
  <time>2026-08-28T19:07:29Z</time>
  <course>169.88</course>
  <speed>9.99</speed>
  <fix>3d</fix>
</trkpt>
<trkpt lat="40.0740119" lon="-105.2318951">
  <ele>1606.17</ele>
  <time>2026-08-28T19:07:29Z</time>
  <course>169.49</course>
  <speed>9.972963451251589</speed>
  <fix>3d</fix>
</trkpt>
<trkpt lat="40.0740228" lon="-105.2318974">
  <ele>1606.09</ele>
  <time>2026-08-28T19:07:29Z</time>
  <course>169.85</course>
  <speed>9.99</speed>
  <fix>3d</fix>
</trkpt>
<trkpt lat="40.0739942" lon="-105.2318909">
  <ele>1606.17</ele>
  <time>2026-08-28T19:07:29Z</time>
  <course>169.49</course>
  <speed>9.972963451251589</speed>
  <fix>3d</fix>
</trkpt>
<trkpt lat="40.0740051" lon="-105.2318933">
  <ele>1606.09</ele>
  <time>2026-08-28T19:07:29Z</time>
  <course>169.83</course>
  <speed>9.99</speed>
  <fix>3d</fix>
</trkpt>
<trkpt lat="40.0739765" lon="-105.2318868">
  <ele>1606.17</ele>
  <time>2026-08-28T19:07:30Z</time>
  <course>169.49</course>
  <speed>9.963116982149714</speed>
  <fix>3d</fix>
</trkpt>
<trkpt lat="40.0739875" lon="-105.2318892">
  <ele>1606.09</ele>
  <time>2026-08-28T19:07:30Z</time>
  <course>169.81</course>
  <speed>9.98</speed>
  <fix>3d</fix>
</trkpt>
<trkpt lat="40.0739588" lon="-105.2318826">
  <ele>1606.18</ele>
  <time>2026-08-28T19:07:30Z</time>
  <course>169.47</course>
  <speed>9.963116982149714</speed>
  <fix>3d</fix>
</trkpt>
<trkpt lat="40.0739698" lon="-105.231885">
  <ele>1606.09</ele>
  <time>2026-08-28T19:07:30Z</time>
  <course>169.8</course>
  <speed>9.98</speed>
  <fix>3d</fix>
</trkpt>
<trkpt lat="40.0739411" lon="-105.2318784">
  <ele>1606.18</ele>
  <time>2026-08-28T19:07:30Z</time>
  <course>169.52</course>
  <speed>9.955023857329525</speed>
  <fix>3d</fix>
</trkpt>
<trkpt lat="40.0739521" lon="-105.2318808">
  <ele>1606.09</ele>
  <time>2026-08-28T19:07:30Z</time>
  <course>169.79</course>
  <speed>9.97</speed>
  <fix>3d</fix>
</trkpt>
<trkpt lat="40.0739235" lon="-105.2318743">
  <ele>1606.17</ele>
  <time>2026-08-28T19:07:30Z</time>
  <course>169.5</course>
  <speed>9.955023857329525</speed>
  <fix>3d</fix>
</trkpt>
<trkpt lat="40.0739346" lon="-105.2318767">
  <ele>1606.09</ele>
  <time>2026-08-28T19:07:30Z</time>
  <course>169.78</course>
  <speed>9.96</speed>
  <fix>3d</fix>
</trkpt>
<trkpt lat="40.0739058" lon="-105.2318701">
  <ele>1606.17</ele>
  <time>2026-08-28T19:07:30Z</time>
  <course>169.48</course>
  <speed>9.955023857329525</speed>
  <fix>3d</fix>
</trkpt>
<trkpt lat="40.0739169" lon="-105.2318726">
  <ele>1606.09</ele>
  <time>2026-08-28T19:07:30Z</time>
  <course>169.77</course>
  <speed>9.96</speed>
  <fix>3d</fix>
</trkpt>
<trkpt lat="40.0738882" lon="-105.231866">
  <ele>1606.16</ele>
  <time>2026-08-28T19:07:30Z</time>
  <course>169.44</course>
  <speed>9.955023857329525</speed>
  <fix>3d</fix>
</trkpt>
<trkpt lat="40.0738994" lon="-105.2318684">
  <ele>1606.09</ele>
  <time>2026-08-28T19:07:30Z</time>
  <course>169.77</course>
  <speed>9.96</speed>
  <fix>3d</fix>
</trkpt>
<trkpt lat="40.0738705" lon="-105.2318618">
  <ele>1606.16</ele>
  <time>2026-08-28T19:07:30Z</time>
  <course>169.43</course>
  <speed>9.955023857329525</speed>
  <fix>3d</fix>
</trkpt>
<trkpt lat="40.0738817" lon="-105.2318643">
  <ele>1606.08</ele>
  <time>2026-08-28T19:07:30Z</time>
  <course>169.77</course>
  <speed>9.96</speed>
  <fix>3d</fix>
</trkpt>
<trkpt lat="40.0738528" lon="-105.2318576">
  <ele>1606.16</ele>
  <time>2026-08-28T19:07:30Z</time>
  <course>169.42</course>
  <speed>9.955023857329525</speed>
  <fix>3d</fix>
</trkpt>
<trkpt lat="40.0738641" lon="-105.2318601">
  <ele>1606.08</ele>
  <time>2026-08-28T19:07:30Z</time>
  <course>169.77</course>
  <speed>9.96</speed>
  <fix>3d</fix>
</trkpt>
<trkpt lat="40.0738353" lon="-105.2318535">
  <ele>1606.16</ele>
  <time>2026-08-28T19:07:30Z</time>
  <course>169.41</course>
  <speed>9.955023857329525</speed>
  <fix>3d</fix>
</trkpt>
<trkpt lat="40.0738465" lon="-105.2318559">
  <ele>1606.08</ele>
  <time>2026-08-28T19:07:30Z</time>
  <course>169.77</course>
  <speed>9.96</speed>
  <fix>3d</fix>
</trkpt>
<trkpt lat="40.0738177" lon="-105.2318494">
  <ele>1606.16</ele>
  <time>2026-08-28T19:07:30Z</time>
  <course>169.42</course>
  <speed>9.955023857329525</speed>
  <fix>3d</fix>
</trkpt>
<trkpt lat="40.0738288" lon="-105.2318517">
  <ele>1606.08</ele>
  <time>2026-08-28T19:07:30Z</time>
  <course>169.77</course>
  <speed>9.96</speed>
  <fix>3d</fix>
</trkpt>
<trkpt lat="40.0738001" lon="-105.2318452">
  <ele>1606.16</ele>
  <time>2026-08-28T19:07:30Z</time>
  <course>169.41</course>
  <speed>9.955023857329525</speed>
  <fix>3d</fix>
</trkpt>
<trkpt lat="40.0738112" lon="-105.2318476">
  <ele>1606.08</ele>
  <time>2026-08-28T19:07:30Z</time>
  <course>169.77</course>
  <speed>9.96</speed>
  <fix>3d</fix>
</trkpt>
<trkpt lat="40.0737825" lon="-105.231841">
  <ele>1606.16</ele>
  <time>2026-08-28T19:07:30Z</time>
  <course>169.41</course>
  <speed>9.955023857329525</speed>
  <fix>3d</fix>
</trkpt>
<trkpt lat="40.0737936" lon="-105.2318435">
  <ele>1606.08</ele>
  <time>2026-08-28T19:07:30Z</time>
  <course>169.77</course>
  <speed>9.97</speed>
  <fix>3d</fix>
</trkpt>
<trkpt lat="40.073765" lon="-105.2318369">
  <ele>1606.16</ele>
  <time>2026-08-28T19:07:30Z</time>
  <course>169.38</course>
  <speed>9.964868288141094</speed>
  <fix>3d</fix>
</trkpt>
<trkpt lat="40.0737759" lon="-105.2318393">
  <ele>1606.08</ele>
  <time>2026-08-28T19:07:30Z</time>
  <course>169.78</course>
  <speed>9.97</speed>
  <fix>3d</fix>
</trkpt>
<trkpt lat="40.0737474" lon="-105.2318328">
  <ele>1606.16</ele>
  <time>2026-08-28T19:07:30Z</time>
  <course>169.36</course>
  <speed>9.9747130284535</speed>
  <fix>3d</fix>
</trkpt>
<trkpt lat="40.0737583" lon="-105.2318351">
  <ele>1606.08</ele>
  <time>2026-08-28T19:07:30Z</time>
  <course>169.79</course>
  <speed>9.98</speed>
  <fix>3d</fix>
</trkpt>
<trkpt lat="40.0737298" lon="-105.2318286">
  <ele>1606.15</ele>
  <time>2026-08-28T19:07:30Z</time>
  <course>169.34</course>
  <speed>9.984558077351245</speed>
  <fix>3d</fix>
</trkpt>
<trkpt lat="40.0737407" lon="-105.231831">
  <ele>1606.08</ele>
  <time>2026-08-28T19:07:30Z</time>
  <course>169.8</course>
  <speed>10.0</speed>
  <fix>3d</fix>
</trkpt>
<trkpt lat="40.0737121" lon="-105.2318245">
  <ele>1606.16</ele>
  <time>2026-08-28T19:07:30Z</time>
  <course>169.31</course>
  <speed>9.994403433922407</speed>
  <fix>3d</fix>
</trkpt>
<trkpt lat="40.073723" lon="-105.2318268">
  <ele>1606.08</ele>
  <time>2026-08-28T19:07:30Z</time>
  <course>169.8</course>
  <speed>10.01</speed>
  <fix>3d</fix>
</trkpt>
<trkpt lat="40.0736944" lon="-105.2318203">
  <ele>1606.16</ele>
  <time>2026-08-28T19:07:30Z</time>
  <course>169.32</course>
  <speed>10.004249097258624</speed>
  <fix>3d</fix>
</trkpt>
<trkpt lat="40.0737052" lon="-105.2318227">
  <ele>1606.08</ele>
  <time>2026-08-28T19:07:30Z</time>
  <course>169.8</course>
  <speed>10.02</speed>
  <fix>3d</fix>
</trkpt>
<trkpt lat="40.0736766" lon="-105.2318161">
  <ele>1606.16</ele>
  <time>2026-08-28T19:07:30Z</time>
  <course>169.36</course>
  <speed>10.01409506645508</speed>
  <fix>3d</fix>
</trkpt>
<trkpt lat="40.0736875" lon="-105.2318185">
  <ele>1606.08</ele>
  <time>2026-08-28T19:07:30Z</time>
  <course>169.81</course>
  <speed>10.03</speed>
  <fix>3d</fix>
</trkpt>
<trkpt lat="40.0736589" lon="-105.231812">
  <ele>1606.16</ele>
  <time>2026-08-28T19:07:30Z</time>
  <course>169.36</course>
  <speed>10.023941340610488</speed>
  <fix>3d</fix>
</trkpt>
<trkpt lat="40.0736697" lon="-105.2318143">
  <ele>1606.08</ele>
  <time>2026-08-28T19:07:30Z</time>
  <course>169.81</course>
  <speed>10.04</speed>
  <fix>3d</fix>
</trkpt>
<trkpt lat="40.0736411" lon="-105.2318078">
  <ele>1606.16</ele>
  <time>2026-08-28T19:07:30Z</time>
  <course>169.41</course>
  <speed>10.023941340610488</speed>
  <fix>3d</fix>
</trkpt>
<trkpt lat="40.0736519" lon="-105.2318102">
  <ele>1606.08</ele>
  <time>2026-08-28T19:07:30Z</time>
  <course>169.82</course>
  <speed>10.05</speed>
  <fix>3d</fix>
</trkpt>
<trkpt lat="40.0736232" lon="-105.2318036">
  <ele>1606.17</ele>
  <time>2026-08-28T19:07:30Z</time>
  <course>169.46</course>
  <speed>10.023941340610488</speed>
  <fix>3d</fix>
</trkpt>
<trkpt lat="40.0736342" lon="-105.231806">
  <ele>1606.09</ele>
  <time>2026-08-28T19:07:30Z</time>
  <course>169.82</course>
  <speed>10.05</speed>
  <fix>3d</fix>
</trkpt>
<trkpt lat="40.0736055" lon="-105.2317994">
  <ele>1606.17</ele>
  <time>2026-08-28T19:07:30Z</time>
  <course>169.52</course>
  <speed>10.023941340610488</speed>
  <fix>3d</fix>
</trkpt>
<trkpt lat="40.0736164" lon="-105.2318018">
  <ele>1606.09</ele>
  <time>2026-08-28T19:07:30Z</time>
  <course>169.84</course>
  <speed>10.05</speed>
  <fix>3d</fix>
</trkpt>
<trkpt lat="40.0735877" lon="-105.2317953">
  <ele>1606.17</ele>
  <time>2026-08-28T19:07:30Z</time>
  <course>169.58</course>
  <speed>10.0123523709466</speed>
  <fix>3d</fix>
</trkpt>
<trkpt lat="40.0735986" lon="-105.2317976">
  <ele>1606.09</ele>
  <time>2026-08-28T19:07:30Z</time>
  <course>169.85</course>
  <speed>10.04</speed>
  <fix>3d</fix>
</trkpt>
<trkpt lat="40.0735699" lon="-105.2317911">
  <ele>1606.17</ele>
  <time>2026-08-28T19:07:30Z</time>
  <course>169.65</course>
  <speed>10.00250468632732</speed>
  <fix>3d</fix>
</trkpt>
<trkpt lat="40.0735808" lon="-105.2317935">
  <ele>1606.09</ele>
  <time>2026-08-28T19:07:30Z</time>
  <course>169.87</course>
  <speed>10.03</speed>
  <fix>3d</fix>
</trkpt>
<trkpt lat="40.0735522" lon="-105.231787">
  <ele>1606.17</ele>
  <time>2026-08-28T19:07:30Z</time>
  <course>169.66</course>
  <speed>10.000769970357283</speed>
  <fix>3d</fix>
</trkpt>
<trkpt lat="40.0735631" lon="-105.2317894">
  <ele>1606.1</ele>
  <time>2026-08-28T19:07:30Z</time>
  <course>169.9</course>
  <speed>10.02</speed>
  <fix>3d</fix>
</trkpt>
<trkpt lat="40.0735344" lon="-105.2317829">
  <ele>1606.17</ele>
  <time>2026-08-28T19:07:30Z</time>
  <course>169.69</course>
  <speed>9.990920878477619</speed>
  <fix>3d</fix>
</trkpt>
<trkpt lat="40.0735454" lon="-105.2317853">
  <ele>1606.1</ele>
  <time>2026-08-28T19:07:30Z</time>
  <course>169.91</course>
  <speed>10.01</speed>
  <fix>3d</fix>
</trkpt>
<trkpt lat="40.0735167" lon="-105.2317788">
  <ele>1606.18</ele>
  <time>2026-08-28T19:07:30Z</time>
  <course>169.68</course>
  <speed>9.981072086704915</speed>
  <fix>3d</fix>
</trkpt>
<trkpt lat="40.0735277" lon="-105.2317812">
  <ele>1606.09</ele>
  <time>2026-08-28T19:07:30Z</time>
  <course>169.93</course>
  <speed>10.0</speed>
  <fix>3d</fix>
</trkpt>
<trkpt lat="40.0734989" lon="-105.2317746">
  <ele>1606.18</ele>
  <time>2026-08-28T19:07:30Z</time>
  <course>169.72</course>
  <speed>9.981072086704915</speed>
  <fix>3d</fix>
</trkpt>
<trkpt lat="40.07351" lon="-105.231777">
  <ele>1606.09</ele>
  <time>2026-08-28T19:07:30Z</time>
  <course>169.93</course>
  <speed>10.0</speed>
  <fix>3d</fix>
</trkpt>
<trkpt lat="40.0734813" lon="-105.2317706">
  <ele>1606.19</ele>
  <time>2026-08-28T19:07:30Z</time>
  <course>169.75</course>
  <speed>9.969493467573967</speed>
  <fix>3d</fix>
</trkpt>
<trkpt lat="40.0734923" lon="-105.2317729">
  <ele>1606.09</ele>
  <time>2026-08-28T19:07:30Z</time>
  <course>169.93</course>
  <speed>9.99</speed>
  <fix>3d</fix>
</trkpt>
<trkpt lat="40.0734636" lon="-105.2317664">
  <ele>1606.18</ele>
  <time>2026-08-28T19:07:30Z</time>
  <course>169.77</course>
  <speed>9.959643567919485</speed>
  <fix>3d</fix>
</trkpt>
<trkpt lat="40.0734746" lon="-105.2317688">
  <ele>1606.09</ele>
  <time>2026-08-28T19:07:30Z</time>
  <course>169.93</course>
  <speed>9.98</speed>
  <fix>3d</fix>
</trkpt>
<trkpt lat="40.0734459" lon="-105.2317623">
  <ele>1606.18</ele>
  <time>2026-08-28T19:07:30Z</time>
  <course>169.74</course>
  <speed>9.949793967716115</speed>
  <fix>3d</fix>
</trkpt>
<trkpt lat="40.073457" lon="-105.2317647">
  <ele>1606.09</ele>
  <time>2026-08-28T19:07:30Z</time>
  <course>169.93</course>
  <speed>9.97</speed>
  <fix>3d</fix>
</trkpt>
<trkpt lat="40.0734282" lon="-105.2317582">
  <ele>1606.17</ele>
  <time>2026-08-28T19:07:30Z</time>
  <course>169.73</course>
  <speed>9.951527520938683</speed>
  <fix>3d</fix>
</trkpt>
<trkpt lat="40.0734393" lon="-105.2317607">
  <ele>1606.08</ele>
  <time>2026-08-28T19:07:30Z</time>
  <course>169.92</course>
  <speed>9.96</speed>
  <fix>3d</fix>
</trkpt>
<trkpt lat="40.0734105" lon="-105.2317541">
  <ele>1606.16</ele>
  <time>2026-08-28T19:07:30Z</time>
  <course>169.73</course>
  <speed>9.941679938521457</speed>
  <fix>3d</fix>
</trkpt>
<trkpt lat="40.0734217" lon="-105.2317566">
  <ele>1606.08</ele>
  <time>2026-08-28T19:07:30Z</time>
  <course>169.91</course>
  <speed>9.96</speed>
  <fix>3d</fix>
</trkpt>
<trkpt lat="40.0733929" lon="-105.23175">
  <ele>1606.16</ele>
  <time>2026-08-28T19:07:30Z</time>
  <course>169.67</course>
  <speed>9.941679938521457</speed>
  <fix>3d</fix>
</trkpt>
<trkpt lat="40.0734041" lon="-105.2317525">
  <ele>1606.08</ele>
  <time>2026-08-28T19:07:30Z</time>
  <course>169.9</course>
  <speed>9.95</speed>
  <fix>3d</fix>
</trkpt>
<trkpt lat="40.0733753" lon="-105.2317459">
  <ele>1606.16</ele>
  <time>2026-08-28T19:07:30Z</time>
  <course>169.62</course>
  <speed>9.941679938521457</speed>
  <fix>3d</fix>
</trkpt>
<trkpt lat="40.0733865" lon="-105.2317484">
  <ele>1606.07</ele>
  <time>2026-08-28T19:07:30Z</time>
  <course>169.89</course>
  <speed>9.95</speed>
  <fix>3d</fix>
</trkpt>
<trkpt lat="40.0733577" lon="-105.2317418">
  <ele>1606.16</ele>
  <time>2026-08-28T19:07:30Z</time>
  <course>169.59</course>
  <speed>9.943424963260899</speed>
  <fix>3d</fix>
</trkpt>
<trkpt lat="40.0733688" lon="-105.2317443">
  <ele>1606.07</ele>
  <time>2026-08-28T19:07:30Z</time>
  <course>169.86</course>
  <speed>9.95</speed>
  <fix>3d</fix>
</trkpt>
<trkpt lat="40.0733401" lon="-105.2317377">
  <ele>1606.16</ele>
  <time>2026-08-28T19:07:30Z</time>
  <course>169.54</course>
  <speed>9.943424963260899</speed>
  <fix>3d</fix>
</trkpt>
<trkpt lat="40.0733513" lon="-105.2317401">
  <ele>1606.07</ele>
  <time>2026-08-28T19:07:30Z</time>
  <course>169.84</course>
  <speed>9.95</speed>
  <fix>3d</fix>
</trkpt>
<trkpt lat="40.0733224" lon="-105.2317335">
  <ele>1606.16</ele>
  <time>2026-08-28T19:07:30Z</time>
  <course>169.51</course>
  <speed>9.943424963260899</speed>
  <fix>3d</fix>
</trkpt>
<trkpt lat="40.0733337" lon="-105.231736">
  <ele>1606.07</ele>
  <time>2026-08-28T19:07:30Z</time>
  <course>169.82</course>
  <speed>9.95</speed>
  <fix>3d</fix>
</trkpt>
<trkpt lat="40.0733048" lon="-105.2317294">
  <ele>1606.16</ele>
  <time>2026-08-28T19:07:30Z</time>
  <course>169.5</course>
  <speed>9.94517973693789</speed>
  <fix>3d</fix>
</trkpt>
<trkpt lat="40.0733161" lon="-105.2317319">
  <ele>1606.07</ele>
  <time>2026-08-28T19:07:30Z</time>
  <course>169.79</course>
  <speed>9.95</speed>
  <fix>3d</fix>
</trkpt>
<trkpt lat="40.0732873" lon="-105.2317253">
  <ele>1606.15</ele>
  <time>2026-08-28T19:07:30Z</time>
  <course>169.47</course>
  <speed>9.94517973693789</speed>
  <fix>3d</fix>
</trkpt>
<trkpt lat="40.0732985" lon="-105.2317277">
  <ele>1606.07</ele>
  <time>2026-08-28T19:07:30Z</time>
  <course>169.78</course>
  <speed>9.95</speed>
  <fix>3d</fix>
</trkpt>
<trkpt lat="40.0732697" lon="-105.2317211">
  <ele>1606.16</ele>
  <time>2026-08-28T19:07:30Z</time>
  <course>169.4</course>
  <speed>9.955023857329525</speed>
  <fix>3d</fix>
</trkpt>
<trkpt lat="40.0732809" lon="-105.2317236">
  <ele>1606.08</ele>
  <time>2026-08-28T19:07:30Z</time>
  <course>169.76</course>
  <speed>9.96</speed>
  <fix>3d</fix>
</trkpt>
<trkpt lat="40.0732521" lon="-105.2317169">
  <ele>1606.16</ele>
  <time>2026-08-28T19:07:30Z</time>
  <course>169.38</course>
  <speed>9.956786630233672</speed>
  <fix>3d</fix>
</trkpt>
<trkpt lat="40.0732632" lon="-105.2317195">
  <ele>1606.08</ele>
  <time>2026-08-28T19:07:30Z</time>
  <course>169.75</course>
  <speed>9.97</speed>
  <fix>3d</fix>
</trkpt>
<trkpt lat="40.0732345" lon="-105.2317128">
  <ele>1606.16</ele>
  <time>2026-08-28T19:07:30Z</time>
  <course>169.37</course>
  <speed>9.966629319885435</speed>
  <fix>3d</fix>
</trkpt>
<trkpt lat="40.0732456" lon="-105.2317152">
  <ele>1606.08</ele>
  <time>2026-08-28T19:07:30Z</time>
  <course>169.73</course>
  <speed>9.97</speed>
  <fix>3d</fix>
</trkpt>
<trkpt lat="40.0732169" lon="-105.2317086">
  <ele>1606.16</ele>
  <time>2026-08-28T19:07:30Z</time>
  <course>169.34</course>
  <speed>9.976472322419383</speed>
  <fix>3d</fix>
</trkpt>
<trkpt lat="40.073228" lon="-105.2317111">
  <ele>1606.08</ele>
  <time>2026-08-28T19:07:30Z</time>
  <course>169.72</course>
  <speed>9.98</speed>
  <fix>3d</fix>
</trkpt>
<trkpt lat="40.0731992" lon="-105.2317044">
  <ele>1606.16</ele>
  <time>2026-08-28T19:07:30Z</time>
  <course>169.35</course>
  <speed>9.98631563691034</speed>
  <fix>3d</fix>
</trkpt>
<trkpt lat="40.0732103" lon="-105.2317069">
  <ele>1606.08</ele>
  <time>2026-08-28T19:07:30Z</time>
  <course>169.72</course>
  <speed>9.99</speed>
  <fix>3d</fix>
</trkpt>
<trkpt lat="40.0731816" lon="-105.2317003">
  <ele>1606.16</ele>
  <time>2026-08-28T19:07:30Z</time>
  <course>169.36</course>
  <speed>9.98631563691034</speed>
  <fix>3d</fix>
</trkpt>
<trkpt lat="40.0731926" lon="-105.2317027">
  <ele>1606.08</ele>
  <time>2026-08-28T19:07:30Z</time>
  <course>169.72</course>
  <speed>10.0</speed>
  <fix>3d</fix>
</trkpt>
<trkpt lat="40.0731639" lon="-105.2316961">
  <ele>1606.16</ele>
  <time>2026-08-28T19:07:30Z</time>
  <course>169.35</course>
  <speed>9.996159262436748</speed>
  <fix>3d</fix>
</trkpt>
<trkpt lat="40.0731749" lon="-105.2316985">
  <ele>1606.08</ele>
  <time>2026-08-28T19:07:30Z</time>
  <course>169.73</course>
  <speed>10.01</speed>
  <fix>3d</fix>
</trkpt>
<trkpt lat="40.0731462" lon="-105.2316919">
  <ele>1606.16</ele>
  <time>2026-08-28T19:07:30Z</time>
  <course>169.36</course>
  <speed>10.00600319808064</speed>
  <fix>3d</fix>
</trkpt>
<trkpt lat="40.0731572" lon="-105.2316944">
  <ele>1606.08</ele>
  <time>2026-08-28T19:07:30Z</time>
  <course>169.74</course>
  <speed>10.02</speed>
  <fix>3d</fix>
</trkpt>
<trkpt lat="40.0731284" lon="-105.2316877">
  <ele>1606.16</ele>
  <time>2026-08-28T19:07:30Z</time>
  <course>169.38</course>
  <speed>10.015847442927633</speed>
  <fix>3d</fix>
</trkpt>
<trkpt lat="40.0731395" lon="-105.2316902">
  <ele>1606.08</ele>
  <time>2026-08-28T19:07:30Z</time>
  <course>169.75</course>
  <speed>10.03</speed>
  <fix>3d</fix>
</trkpt>
<trkpt lat="40.0731106" lon="-105.2316835">
  <ele>1606.16</ele>
  <time>2026-08-28T19:07:30Z</time>
  <course>169.41</course>
  <speed>10.015847442927633</speed>
  <fix>3d</fix>
</trkpt>
<trkpt lat="40.0731217" lon="-105.231686">
  <ele>1606.08</ele>
  <time>2026-08-28T19:07:30Z</time>
  <course>169.77</course>
  <speed>10.03</speed>
  <fix>3d</fix>
</trkpt>
<trkpt lat="40.0730929" lon="-105.2316793">
  <ele>1606.16</ele>
  <time>2026-08-28T19:07:30Z</time>
  <course>169.48</course>
  <speed>10.015847442927633</speed>
  <fix>3d</fix>
</trkpt>
<trkpt lat="40.0731039" lon="-105.2316817">
  <ele>1606.08</ele>
  <time>2026-08-28T19:07:30Z</time>
  <course>169.78</course>
  <speed>10.04</speed>
  <fix>3d</fix>
</trkpt>
<trkpt lat="40.073075" lon="-105.2316751">
  <ele>1606.16</ele>
  <time>2026-08-28T19:07:30Z</time>
  <course>169.49</course>
  <speed>10.01409506645508</speed>
  <fix>3d</fix>
</trkpt>
<trkpt lat="40.0730862" lon="-105.2316776">
  <ele>1606.08</ele>
  <time>2026-08-28T19:07:30Z</time>
  <course>169.8</course>
  <speed>10.03</speed>
  <fix>3d</fix>
</trkpt>
<trkpt lat="40.0730573" lon="-105.231671">
  <ele>1606.16</ele>
  <time>2026-08-28T19:07:30Z</time>
  <course>169.57</course>
  <speed>10.004249097258624</speed>
  <fix>3d</fix>
</trkpt>
<trkpt lat="40.0730684" lon="-105.2316734">
  <ele>1606.09</ele>
  <time>2026-08-28T19:07:30Z</time>
  <course>169.82</course>
  <speed>10.03</speed>
  <fix>3d</fix>
</trkpt>
<trkpt lat="40.0730396" lon="-105.2316668">
  <ele>1606.17</ele>
  <time>2026-08-28T19:07:30Z</time>
  <course>169.6</course>
  <speed>10.00250468632732</speed>
  <fix>3d</fix>
</trkpt>
<trkpt lat="40.0730507" lon="-105.2316692">
  <ele>1606.09</ele>
  <time>2026-08-28T19:07:30Z</time>
  <course>169.84</course>
  <speed>10.02</speed>
  <fix>3d</fix>
</trkpt>
<trkpt lat="40.0730218" lon="-105.2316627">
  <ele>1606.17</ele>
  <time>2026-08-28T19:07:30Z</time>
  <course>169.64</course>
  <speed>9.99265730424095</speed>
  <fix>3d</fix>
</trkpt>
<trkpt lat="40.073033" lon="-105.2316651">
  <ele>1606.09</ele>
  <time>2026-08-28T19:07:30Z</time>
  <course>169.86</course>
  <speed>10.02</speed>
  <fix>3d</fix>
</trkpt>
<trkpt lat="40.0730041" lon="-105.2316585">
  <ele>1606.18</ele>
  <time>2026-08-28T19:07:30Z</time>
  <course>169.67</course>
  <speed>9.99265730424095</speed>
  <fix>3d</fix>
</trkpt>
<trkpt lat="40.0730153" lon="-105.231661">
  <ele>1606.1</ele>
  <time>2026-08-28T19:07:30Z</time>
  <course>169.88</course>
  <speed>10.01</speed>
  <fix>3d</fix>
</trkpt>
<trkpt lat="40.0729864" lon="-105.2316544">
  <ele>1606.18</ele>
  <time>2026-08-28T19:07:30Z</time>
  <course>169.71</course>
  <speed>9.981072086704915</speed>
  <fix>3d</fix>
</trkpt>
<trkpt lat="40.0729976" lon="-105.2316568">
  <ele>1606.1</ele>
  <time>2026-08-28T19:07:30Z</time>
  <course>169.9</course>
  <speed>10.01</speed>
  <fix>3d</fix>
</trkpt>
<trkpt lat="40.0729687" lon="-105.2316503">
  <ele>1606.19</ele>
  <time>2026-08-28T19:07:30Z</time>
  <course>169.72</course>
  <speed>9.981072086704915</speed>
  <fix>3d</fix>
</trkpt>
<trkpt lat="40.0729799" lon="-105.2316527">
  <ele>1606.09</ele>
  <time>2026-08-28T19:07:30Z</time>
  <course>169.92</course>
  <speed>10.0</speed>
  <fix>3d</fix>
</trkpt>
<trkpt lat="40.072951" lon="-105.2316462">
  <ele>1606.19</ele>
  <time>2026-08-28T19:07:30Z</time>
  <course>169.75</course>
  <speed>9.981072086704915</speed>
  <fix>3d</fix>
</trkpt>
<trkpt lat="40.0729622" lon="-105.2316486">
  <ele>1606.09</ele>
  <time>2026-08-28T19:07:30Z</time>
  <course>169.93</course>
  <speed>10.0</speed>
  <fix>3d</fix>
</trkpt>
<trkpt lat="40.0729333" lon="-105.2316421">
  <ele>1606.19</ele>
  <time>2026-08-28T19:07:30Z</time>
  <course>169.74</course>
  <speed>9.971223595928436</speed>
  <fix>3d</fix>
</trkpt>
<trkpt lat="40.0729445" lon="-105.2316445">
  <ele>1606.09</ele>
  <time>2026-08-28T19:07:30Z</time>
  <course>169.93</course>
  <speed>9.99</speed>
  <fix>3d</fix>
</trkpt>
<trkpt lat="40.0729157" lon="-105.231638">
  <ele>1606.18</ele>
  <time>2026-08-28T19:07:30Z</time>
  <course>169.73</course>
  <speed>9.971223595928436</speed>
  <fix>3d</fix>
</trkpt>
<trkpt lat="40.0729268" lon="-105.2316404">
  <ele>1606.08</ele>
  <time>2026-08-28T19:07:30Z</time>
  <course>169.94</course>
  <speed>9.99</speed>
  <fix>3d</fix>
</trkpt>
<trkpt lat="40.072898" lon="-105.2316339">
  <ele>1606.18</ele>
  <time>2026-08-28T19:07:30Z</time>
  <course>169.74</course>
  <speed>9.961375407040936</speed>
  <fix>3d</fix>
</trkpt>
<trkpt lat="40.0729091" lon="-105.2316363">
  <ele>1606.08</ele>
  <time>2026-08-28T19:07:30Z</time>
  <course>169.93</course>
  <speed>9.98</speed>
  <fix>3d</fix>
</trkpt>
<trkpt lat="40.0728804" lon="-105.2316298">
  <ele>1606.18</ele>
  <time>2026-08-28T19:07:30Z</time>
  <course>169.71</course>
  <speed>9.961375407040936</speed>
  <fix>3d</fix>
</trkpt>
<trkpt lat="40.0728914" lon="-105.2316322">
  <ele>1606.07</ele>
  <time>2026-08-28T19:07:30Z</time>
  <course>169.93</course>
  <speed>9.98</speed>
  <fix>3d</fix>
</trkpt>
<trkpt lat="40.0728628" lon="-105.2316257">
  <ele>1606.17</ele>
  <time>2026-08-28T19:07:30Z</time>
  <course>169.68</course>
  <speed>9.961375407040936</speed>
  <fix>3d</fix>
</trkpt>
<trkpt lat="40.0728737" lon="-105.2316281">
  <ele>1606.07</ele>
  <time>2026-08-28T19:07:30Z</time>
  <course>169.92</course>
  <speed>9.98</speed>
  <fix>3d</fix>
</trkpt>
<trkpt lat="40.0728451" lon="-105.2316216">
  <ele>1606.17</ele>
  <time>2026-08-28T19:07:30Z</time>
  <course>169.65</course>
  <speed>9.961375407040936</speed>
  <fix>3d</fix>
</trkpt>
<trkpt lat="40.0728561" lon="-105.231624">
  <ele>1606.06</ele>
  <time>2026-08-28T19:07:30Z</time>
  <course>169.91</course>
  <speed>9.98</speed>
  <fix>3d</fix>
</trkpt>
<trkpt lat="40.0728275" lon="-105.2316175">
  <ele>1606.16</ele>
  <time>2026-08-28T19:07:30Z</time>
  <course>169.62</course>
  <speed>9.963116982149714</speed>
  <fix>3d</fix>
</trkpt>
<trkpt lat="40.0728385" lon="-105.2316199">
  <ele>1606.06</ele>
  <time>2026-08-28T19:07:30Z</time>
  <course>169.89</course>
  <speed>9.98</speed>
  <fix>3d</fix>
</trkpt>
<trkpt lat="40.0728099" lon="-105.2316134">
  <ele>1606.16</ele>
  <time>2026-08-28T19:07:30Z</time>
  <course>169.57</course>
  <speed>9.972963451251589</speed>
  <fix>3d</fix>
</trkpt>
<trkpt lat="40.0728208" lon="-105.2316158">
  <ele>1606.06</ele>
  <time>2026-08-28T19:07:30Z</time>
  <course>169.87</course>
  <speed>9.99</speed>
  <fix>3d</fix>
</trkpt>
<trkpt lat="40.0727922" lon="-105.2316093">
  <ele>1606.15</ele>
  <time>2026-08-28T19:07:30Z</time>
  <course>169.54</course>
  <speed>9.972963451251589</speed>
  <fix>3d</fix>
</trkpt>
<trkpt lat="40.0728031" lon="-105.2316117">
  <ele>1606.06</ele>
  <time>2026-08-28T19:07:30Z</time>
  <course>169.85</course>
  <speed>9.99</speed>
  <fix>3d</fix>
</trkpt>
<trkpt lat="40.0727745" lon="-105.2316051">
  <ele>1606.15</ele>
  <time>2026-08-28T19:07:30Z</time>
  <course>169.49</course>
  <speed>9.9747130284535</speed>
  <fix>3d</fix>
</trkpt>
<trkpt lat="40.0727854" lon="-105.2316075">
  <ele>1606.06</ele>
  <time>2026-08-28T19:07:30Z</time>
  <course>169.83</course>
  <speed>10.0</speed>
  <fix>3d</fix>
</trkpt>
<trkpt lat="40.0727568" lon="-105.2316009">
  <ele>1606.15</ele>
  <time>2026-08-28T19:07:30Z</time>
  <course>169.49</course>
  <speed>9.955023857329525</speed>
  <fix>3d</fix>
</trkpt>
<trkpt lat="40.0727677" lon="-105.2316034">
  <ele>1606.06</ele>
  <time>2026-08-28T19:07:30Z</time>
  <course>169.81</course>
  <speed>9.99</speed>
  <fix>3d</fix>
</trkpt>
<trkpt lat="40.0727393" lon="-105.2315968">
  <ele>1606.17</ele>
  <time>2026-08-28T19:07:30Z</time>
  <course>169.64</course>
  <speed>9.894200321400412</speed>
  <fix>3d</fix>
</trkpt>
<trkpt lat="40.0727501" lon="-105.2315993">
  <ele>1606.06</ele>
  <time>2026-08-28T19:07:30Z</time>
  <course>169.79</course>
  <speed>9.96</speed>
  <fix>3d</fix>
</trkpt>
<trkpt lat="40.0727218" lon="-105.2315927">
  <ele>1606.19</ele>
  <time>2026-08-28T19:07:30Z</time>
  <course>170.02</course>
  <speed>9.774318390557983</speed>
  <fix>3d</fix>
</trkpt>
<trkpt lat="40.0727325" lon="-105.2315951">
  <ele>1606.08</ele>
  <time>2026-08-28T19:07:30Z</time>
  <course>169.77</course>
  <speed>9.89</speed>
  <fix>3d</fix>
</trkpt>
<trkpt lat="40.0727045" lon="-105.2315886">
  <ele>1606.23</ele>
  <time>2026-08-28T19:07:30Z</time>
  <course>170.53</course>
  <speed>9.599927083056413</speed>
  <fix>3d</fix>
</trkpt>
<trkpt lat="40.0727151" lon="-105.231591">
  <ele>1606.11</ele>
  <time>2026-08-28T19:07:30Z</time>
  <course>169.77</course>
  <speed>9.75</speed>
  <fix>3d</fix>
</trkpt>
<trkpt lat="40.0726877" lon="-105.2315847">
  <ele>1606.27</ele>
  <time>2026-08-28T19:07:30Z</time>
  <course>171.12</course>
  <speed>9.364721031616478</speed>
  <fix>3d</fix>
</trkpt>
<trkpt lat="40.072698" lon="-105.2315869">
  <ele>1606.14</ele>
  <time>2026-08-28T19:07:30Z</time>
  <course>169.82</course>
  <speed>9.56</speed>
  <fix>3d</fix>
</trkpt>
<trkpt lat="40.0726713" lon="-105.2315809">
  <ele>1606.3</ele>
  <time>2026-08-28T19:07:30Z</time>
  <course>171.71</course>
  <speed>9.0768111140422</speed>
  <fix>3d</fix>
</trkpt>
<trkpt lat="40.0726813" lon="-105.2315831">
  <ele>1606.17</ele>
  <time>2026-08-28T19:07:30Z</time>
  <course>169.92</course>
  <speed>9.31</speed>
  <fix>3d</fix>
</trkpt>
<trkpt lat="40.0726555" lon="-105.2315772">
  <ele>1606.32</ele>
  <time>2026-08-28T19:07:30Z</time>
  <course>172.26</course>
  <speed>8.757682341807106</speed>
  <fix>3d</fix>
</trkpt>
<trkpt lat="40.0726651" lon="-105.2315793">
  <ele>1606.21</ele>
  <time>2026-08-28T19:07:30Z</time>
  <course>170.08</course>
  <speed>9.01</speed>
  <fix>3d</fix>
</trkpt>
<trkpt lat="40.0726402" lon="-105.2315738">
  <ele>1606.34</ele>
  <time>2026-08-28T19:07:30Z</time>
  <course>172.76</course>
  <speed>8.387663560253236</speed>
  <fix>3d</fix>
</trkpt>
<trkpt lat="40.0726495" lon="-105.2315758">
  <ele>1606.23</ele>
  <time>2026-08-28T19:07:30Z</time>
  <course>170.27</course>
  <speed>8.68</speed>
  <fix>3d</fix>
</trkpt>
<trkpt lat="40.0726257" lon="-105.2315706">
  <ele>1606.34</ele>
  <time>2026-08-28T19:07:30Z</time>
  <course>173.21</course>
  <speed>7.968418914690668</speed>
  <fix>3d</fix>
</trkpt>
<trkpt lat="40.0726344" lon="-105.2315725">
  <ele>1606.24</ele>
  <time>2026-08-28T19:07:30Z</time>
  <course>170.47</course>
  <speed>8.29</speed>
  <fix>3d</fix>
</trkpt>
<trkpt lat="40.0726119" lon="-105.2315676">
  <ele>1606.34</ele>
  <time>2026-08-28T19:07:30Z</time>
  <course>173.57</course>
  <speed>7.509760315749098</speed>
  <fix>3d</fix>
</trkpt>
<trkpt lat="40.07262" lon="-105.2315694">
  <ele>1606.25</ele>
  <time>2026-08-28T19:07:30Z</time>
  <course>170.67</course>
  <speed>7.86</speed>
  <fix>3d</fix>
</trkpt>
<trkpt lat="40.0725988" lon="-105.2315648">
  <ele>1606.34</ele>
  <time>2026-08-28T19:07:30Z</time>
  <course>173.86</course>
  <speed>7.0100499284955164</speed>
  <fix>3d</fix>
</trkpt>
<trkpt lat="40.0726065" lon="-105.2315665">
  <ele>1606.25</ele>
  <time>2026-08-28T19:07:30Z</time>
  <course>170.87</course>
  <speed>7.39</speed>
  <fix>3d</fix>
</trkpt>
<trkpt lat="40.0725868" lon="-105.2315623">
  <ele>1606.33</ele>
  <time>2026-08-28T19:07:30Z</time>
  <course>174.09</course>
  <speed>6.470896383036898</speed>
  <fix>3d</fix>
</trkpt>
<trkpt lat="40.0725939" lon="-105.2315639">
  <ele>1606.24</ele>
  <time>2026-08-28T19:07:30Z</time>
  <course>171.04</course>
  <speed>6.88</speed>
  <fix>3d</fix>
</trkpt>
<trkpt lat="40.0725757" lon="-105.2315601">
  <ele>1606.31</ele>
  <time>2026-08-28T19:07:30Z</time>
  <course>174.22</course>
  <speed>5.903710697518976</speed>
  <fix>3d</fix>
</trkpt>
<trkpt lat="40.0725821" lon="-105.2315615">
  <ele>1606.23</ele>
  <time>2026-08-28T19:07:30Z</time>
  <course>171.19</course>
  <speed>6.32</speed>
  <fix>3d</fix>
</trkpt>
<trkpt lat="40.0725656" lon="-105.231558">
  <ele>1606.29</ele>
  <time>2026-08-28T19:07:30Z</time>
  <course>174.19</course>
  <speed>5.325082158990601</speed>
  <fix>3d</fix>
</trkpt>
<trkpt lat="40.0725714" lon="-105.2315593">
  <ele>1606.21</ele>
  <time>2026-08-28T19:07:30Z</time>
  <course>171.32</course>
  <speed>5.75</speed>
  <fix>3d</fix>
</trkpt>
<trkpt lat="40.0725565" lon="-105.2315562">
  <ele>1606.26</ele>
  <time>2026-08-28T19:07:30Z</time>
  <course>174.05</course>
  <speed>4.757898695853034</speed>
  <fix>3d</fix>
</trkpt>
<trkpt lat="40.0725616" lon="-105.2315573">
  <ele>1606.18</ele>
  <time>2026-08-28T19:07:30Z</time>
  <course>171.43</course>
  <speed>5.17</speed>
  <fix>3d</fix>
</trkpt>
<trkpt lat="40.0725485" lon="-105.2315546">
  <ele>1606.22</ele>
  <time>2026-08-28T19:07:30Z</time>
  <course>173.8</course>
  <speed>4.202154209450196</speed>
  <fix>3d</fix>
</trkpt>
<trkpt lat="40.072553" lon="-105.2315557">
  <ele>1606.15</ele>
  <time>2026-08-28T19:07:30Z</time>
  <course>171.5</course>
  <speed>4.6</speed>
  <fix>3d</fix>
</trkpt>
<trkpt lat="40.0725414" lon="-105.2315532">
  <ele>1606.18</ele>
  <time>2026-08-28T19:07:30Z</time>
  <course>173.44</course>
  <speed>3.6661696632861935</speed>
  <fix>3d</fix>
</trkpt>
<trkpt lat="40.0725453" lon="-105.2315541">
  <ele>1606.12</ele>
  <time>2026-08-28T19:07:30Z</time>
  <course>171.5</course>
  <speed>4.04</speed>
  <fix>3d</fix>
</trkpt>
<trkpt lat="40.0725353" lon="-105.231552">
  <ele>1606.15</ele>
  <time>2026-08-28T19:07:30Z</time>
  <course>172.93</course>
  <speed>3.1433103569326395</speed>
  <fix>3d</fix>
</trkpt>
<trkpt lat="40.0725386" lon="-105.2315529">
  <ele>1606.08</ele>
  <time>2026-08-28T19:07:30Z</time>
  <course>171.36</course>
  <speed>3.5</speed>
  <fix>3d</fix>
</trkpt>
<trkpt lat="40.0725301" lon="-105.2315509">
  <ele>1606.12</ele>
  <time>2026-08-28T19:07:30Z</time>
  <course>172.23</course>
  <speed>2.6305322655310652</speed>
  <fix>3d</fix>
</trkpt>
<trkpt lat="40.0725329" lon="-105.2315517">
  <ele>1606.05</ele>
  <time>2026-08-28T19:07:30Z</time>
  <course>171.02</course>
  <speed>2.97</speed>
  <fix>3d</fix>
</trkpt>
<trkpt lat="40.0725258" lon="-105.23155">
  <ele>1606.1</ele>
  <time>2026-08-28T19:07:30Z</time>
  <course>171.26</course>
  <speed>2.139649504007607</speed>
  <fix>3d</fix>
</trkpt>
<trkpt lat="40.0725281" lon="-105.2315507">
  <ele>1606.03</ele>
  <time>2026-08-28T19:07:30Z</time>
  <course>170.4</course>
  <speed>2.46</speed>
  <fix>3d</fix>
</trkpt>
<trkpt lat="40.0725224" lon="-105.2315491">
  <ele>1606.08</ele>
  <time>2026-08-28T19:07:30Z</time>
  <course>169.9</course>
  <speed>1.6790473489452284</speed>
  <fix>3d</fix>
</trkpt>
<trkpt lat="40.0725242" lon="-105.2315498">
  <ele>1606.01</ele>
  <time>2026-08-28T19:07:30Z</time>
  <course>169.42</course>
  <speed>1.97</speed>
  <fix>3d</fix>
</trkpt>
<trkpt lat="40.0725198" lon="-105.2315484">
  <ele>1606.08</ele>
  <time>2026-08-28T19:07:30Z</time>
  <course>168.05</course>
  <speed>1.2684636376341263</speed>
  <fix>3d</fix>
</trkpt>
<trkpt lat="40.0725211" lon="-105.231549">
  <ele>1606.0</ele>
  <time>2026-08-28T19:07:30Z</time>
  <course>167.95</course>
  <speed>1.52</speed>
  <fix>3d</fix>
</trkpt>
<trkpt lat="40.0725178" lon="-105.2315478">
  <ele>1606.07</ele>
  <time>2026-08-28T19:07:30Z</time>
  <course>165.61</course>
  <speed>0.9300537618869137</speed>
  <fix>3d</fix>
</trkpt>
<trkpt lat="40.0725188" lon="-105.2315483">
  <ele>1606.0</ele>
  <time>2026-08-28T19:07:30Z</time>
  <course>165.77</course>
  <speed>1.12</speed>
  <fix>3d</fix>
</trkpt>
<trkpt lat="40.0725165" lon="-105.2315472">
  <ele>1606.07</ele>
  <time>2026-08-28T19:07:30Z</time>
  <course>164.38</course>
  <speed>0.65</speed>
  <fix>3d</fix>
</trkpt>
<trkpt lat="40.0725172" lon="-105.2315476">
  <ele>1606.0</ele>
  <time>2026-08-28T19:07:30Z</time>
  <course>161.76</course>
  <speed>0.79</speed>
  <fix>3d</fix>
</trkpt>
<trkpt lat="40.0725156" lon="-105.2315467">
  <ele>1606.08</ele>
  <time>2026-08-28T19:07:30Z</time>
  <course>164.59</course>
  <speed>0.4304648650006177</speed>
  <fix>3d</fix>
</trkpt>
<trkpt lat="40.0725161" lon="-105.2315471">
  <ele>1606.0</ele>
  <time>2026-08-28T19:07:30Z</time>
  <course>154.61</course>
  <speed>0.52</speed>
  <fix>3d</fix>
</trkpt>
<trkpt lat="40.0725152" lon="-105.2315463">
  <ele>1606.08</ele>
  <time>2026-08-28T19:07:30Z</time>
  <course>164.56</course>
  <speed>0.26870057685088805</speed>
  <fix>3d</fix>
</trkpt>
<trkpt lat="40.0725154" lon="-105.2315466">
  <ele>1606.0</ele>
  <time>2026-08-28T19:07:30Z</time>
  <course>142.25</course>
  <speed>0.32</speed>
  <fix>3d</fix>
</trkpt>
<trkpt lat="40.072515" lon="-105.2315459">
  <ele>1606.09</ele>
  <time>2026-08-28T19:07:30Z</time>
  <course>164.52</course>
  <speed>0.18384776310850234</speed>
  <fix>3d</fix>
</trkpt>
<trkpt lat="40.0725151" lon="-105.2315462">
  <ele>1606.01</ele>
  <time>2026-08-28T19:07:30Z</time>
  <course>118.3</course>
  <speed>0.2</speed>
  <fix>3d</fix>
</trkpt>
<trkpt lat="40.072515" lon="-105.2315455">
  <ele>1606.09</ele>
  <time>2026-08-28T19:07:30Z</time>
  <course>164.48</course>
  <speed>0.15</speed>
  <fix>3d</fix>
</trkpt>
<trkpt lat="40.072515" lon="-105.2315457">
  <ele>1606.02</ele>
  <time>2026-08-28T19:07:30Z</time>
  <course>84.81</course>
  <speed>0.16</speed>
  <fix>3d</fix>
</trkpt>
<trkpt lat="40.0725151" lon="-105.2315452">
  <ele>1606.1</ele>
  <time>2026-08-28T19:07:30Z</time>
  <course>164.44</course>
  <speed>0.14560219778561037</speed>
  <fix>3d</fix>
</trkpt>
<trkpt lat="40.0725151" lon="-105.2315453">
  <ele>1606.03</ele>
  <time>2026-08-28T19:07:30Z</time>
  <course>62.15</course>
  <speed>0.17</speed>
  <fix>3d</fix>
</trkpt>
<trkpt lat="40.0725152" lon="-105.2315448">
  <ele>1606.12</ele>
  <time>2026-08-28T19:07:30Z</time>
  <course>164.43</course>
  <speed>0.1392838827718412</speed>
  <fix>3d</fix>
</trkpt>
<trkpt lat="40.0725153" lon="-105.231545">
  <ele>1606.05</ele>
  <time>2026-08-28T19:07:30Z</time>
  <course>53.9</course>
  <speed>0.19</speed>
  <fix>3d</fix>
</trkpt>
<trkpt lat="40.0725154" lon="-105.2315445">
  <ele>1606.13</ele>
  <time>2026-08-28T19:07:31Z</time>
  <course>164.38</course>
  <speed>0.13152946437965907</speed>
  <fix>3d</fix>
</trkpt>
<trkpt lat="40.0725154" lon="-105.2315447">
  <ele>1606.06</ele>
  <time>2026-08-28T19:07:31Z</time>
  <course>55.39</course>
  <speed>0.18</speed>
  <fix>3d</fix>
</trkpt>
<trkpt lat="40.0725154" lon="-105.2315442">
  <ele>1606.13</ele>
  <time>2026-08-28T19:07:31Z</time>
  <course>164.35</course>
  <speed>0.13152946437965907</speed>
  <fix>3d</fix>
</trkpt>
<trkpt lat="40.0725156" lon="-105.2315443">
  <ele>1606.07</ele>
  <time>2026-08-28T19:07:31Z</time>
  <course>65.92</course>
  <speed>0.16</speed>
  <fix>3d</fix>
</trkpt>
<trkpt lat="40.0725154" lon="-105.2315438">
  <ele>1606.14</ele>
  <time>2026-08-28T19:07:31Z</time>
  <course>164.33</course>
  <speed>0.15811388300841897</speed>
  <fix>3d</fix>
</trkpt>
<trkpt lat="40.0725156" lon="-105.231544">
  <ele>1606.08</ele>
  <time>2026-08-28T19:07:31Z</time>
  <course>86.62</course>
  <speed>0.15</speed>
  <fix>3d</fix>
</trkpt>
<trkpt lat="40.0725153" lon="-105.2315435">
  <ele>1606.15</ele>
  <time>2026-08-28T19:07:31Z</time>
  <course>164.29</course>
  <speed>0.20615528128088303</speed>
  <fix>3d</fix>
</trkpt>
<trkpt lat="40.0725156" lon="-105.2315436">
  <ele>1606.09</ele>
  <time>2026-08-28T19:07:31Z</time>
  <course>112.18</course>
  <speed>0.17</speed>
  <fix>3d</fix>
</trkpt>
<trkpt lat="40.072515" lon="-105.2315431">
  <ele>1606.15</ele>
  <time>2026-08-28T19:07:31Z</time>
  <course>164.27</course>
  <speed>0.27294688127912364</speed>
  <fix>3d</fix>
</trkpt>
<trkpt lat="40.0725155" lon="-105.2315432">
  <ele>1606.1</ele>
  <time>2026-08-28T19:07:31Z</time>
  <course>131.39</course>
  <speed>0.22</speed>
  <fix>3d</fix>
</trkpt>
<trkpt lat="40.0725146" lon="-105.2315428">
  <ele>1606.15</ele>
  <time>2026-08-28T19:07:31Z</time>
  <course>164.27</course>
  <speed>0.3178049716414141</speed>
  <fix>3d</fix>
</trkpt>
<trkpt lat="40.0725152" lon="-105.2315428">
  <ele>1606.1</ele>
  <time>2026-08-28T19:07:31Z</time>
  <course>142.46</course>
  <speed>0.28</speed>
  <fix>3d</fix>
</trkpt>
<trkpt lat="40.0725141" lon="-105.2315424">
  <ele>1606.15</ele>
  <time>2026-08-28T19:07:31Z</time>
  <course>164.28</course>
  <speed>0.35114099732158877</speed>
  <fix>3d</fix>
</trkpt>
<trkpt lat="40.0725147" lon="-105.2315424">
  <ele>1606.11</ele>
  <time>2026-08-28T19:07:31Z</time>
  <course>148.63</course>
  <speed>0.32</speed>
  <fix>3d</fix>
</trkpt>
<trkpt lat="40.0725136" lon="-105.2315421">
  <ele>1606.15</ele>
  <time>2026-08-28T19:07:31Z</time>
  <course>164.28</course>
  <speed>0.35735136770411274</speed>
  <fix>3d</fix>
</trkpt>
<trkpt lat="40.0725142" lon="-105.2315419">
  <ele>1606.11</ele>
  <time>2026-08-28T19:07:31Z</time>
  <course>152.54</course>
  <speed>0.35</speed>
  <fix>3d</fix>
</trkpt>
<trkpt lat="40.072513" lon="-105.2315417">
  <ele>1606.15</ele>
  <time>2026-08-28T19:07:31Z</time>
  <course>164.29</course>
  <speed>0.3420526275297414</speed>
  <fix>3d</fix>
</trkpt>
<trkpt lat="40.0725135" lon="-105.2315416">
  <ele>1606.11</ele>
  <time>2026-08-28T19:07:31Z</time>
  <course>155.59</course>
  <speed>0.36</speed>
  <fix>3d</fix>
</trkpt>
<trkpt lat="40.0725125" lon="-105.2315414">
  <ele>1606.16</ele>
  <time>2026-08-28T19:07:31Z</time>
  <course>164.29</course>
  <speed>0.31575306807693887</speed>
  <fix>3d</fix>
</trkpt>
<trkpt lat="40.072513" lon="-105.2315413">
  <ele>1606.12</ele>
  <time>2026-08-28T19:07:31Z</time>
  <course>158.54</course>
  <speed>0.35</speed>
  <fix>3d</fix>
</trkpt>
<trkpt lat="40.072512" lon="-105.2315412">
  <ele>1606.16</ele>
  <time>2026-08-28T19:07:31Z</time>
  <course>164.32</course>
  <speed>0.2816025568065745</speed>
  <fix>3d</fix>
</trkpt>
<trkpt lat="40.0725125" lon="-105.231541">
  <ele>1606.12</ele>
  <time>2026-08-28T19:07:31Z</time>
  <course>161.87</course>
  <speed>0.32</speed>
  <fix>3d</fix>
</trkpt>
<trkpt lat="40.0725115" lon="-105.2315411">
  <ele>1606.17</ele>
  <time>2026-08-28T19:07:31Z</time>
  <course>164.35</course>
  <speed>0.24</speed>
  <fix>3d</fix>
</trkpt>
<trkpt lat="40.0725119" lon="-105.2315408">
  <ele>1606.13</ele>
  <time>2026-08-28T19:07:31Z</time>
  <course>165.85</course>
  <speed>0.28</speed>
  <fix>3d</fix>
</trkpt>
<trkpt lat="40.0725111" lon="-105.231541">
  <ele>1606.17</ele>
  <time>2026-08-28T19:07:31Z</time>
  <course>164.42</course>
  <speed>0.191049731745428</speed>
  <fix>3d</fix>
</trkpt>
<trkpt lat="40.0725115" lon="-105.2315407">
  <ele>1606.13</ele>
  <time>2026-08-28T19:07:31Z</time>
  <course>170.96</course>
  <speed>0.24</speed>
  <fix>3d</fix>
</trkpt>
<trkpt lat="40.0725108" lon="-105.231541">
  <ele>1606.16</ele>
  <time>2026-08-28T19:07:31Z</time>
  <course>164.5</course>
  <speed>0.14866068747318506</speed>
  <fix>3d</fix>
</trkpt>
<trkpt lat="40.0725111" lon="-105.2315407">
  <ele>1606.12</ele>
  <time>2026-08-28T19:07:31Z</time>
  <course>178.18</course>
  <speed>0.19</speed>
  <fix>3d</fix>
</trkpt>
<trkpt lat="40.0725106" lon="-105.2315411">
  <ele>1606.14</ele>
  <time>2026-08-28T19:07:31Z</time>
  <course>164.6</course>
  <speed>0.12041594578792296</speed>
  <fix>3d</fix>
</trkpt>
<trkpt lat="40.0725107" lon="-105.2315407">
  <ele>1606.11</ele>
  <time>2026-08-28T19:07:31Z</time>
  <course>189.63</course>
  <speed>0.14</speed>
  <fix>3d</fix>
</trkpt>
<trkpt lat="40.0725105" lon="-105.2315411">
  <ele>1606.11</ele>
  <time>2026-08-28T19:07:31Z</time>
  <course>164.7</course>
  <speed>0.1044030650891055</speed>
  <fix>3d</fix>
</trkpt>
<trkpt lat="40.0725106" lon="-105.2315407">
  <ele>1606.08</ele>
  <time>2026-08-28T19:07:31Z</time>
  <course>209.42</course>
  <speed>0.1</speed>
  <fix>3d</fix>
</trkpt>
<trkpt lat="40.0725105" lon="-105.2315413">
  <ele>1606.06</ele>
  <time>2026-08-28T19:07:31Z</time>
  <course>164.83</course>
  <speed>0.12041594578792296</speed>
  <fix>3d</fix>
</trkpt>
<trkpt lat="40.0725104" lon="-105.2315408">
  <ele>1606.05</ele>
  <time>2026-08-28T19:07:31Z</time>
  <course>240.59</course>
  <speed>0.09</speed>
  <fix>3d</fix>
</trkpt>
<trkpt lat="40.0725105" lon="-105.2315415">
  <ele>1606.0</ele>
  <time>2026-08-28T19:07:31Z</time>
  <course>164.97</course>
  <speed>0.14866068747318506</speed>
  <fix>3d</fix>
</trkpt>
<trkpt lat="40.0725104" lon="-105.231541">
  <ele>1606.0</ele>
  <time>2026-08-28T19:07:31Z</time>
  <course>271.79</course>
  <speed>0.1</speed>
  <fix>3d</fix>
</trkpt>
<trkpt lat="40.0725105" lon="-105.2315418">
  <ele>1605.91</ele>
  <time>2026-08-28T19:07:31Z</time>
  <course>165.12</course>
  <speed>0.17492855684535902</speed>
  <fix>3d</fix>
</trkpt>
<trkpt lat="40.0725104" lon="-105.2315413">
  <ele>1605.92</ele>
  <time>2026-08-28T19:07:31Z</time>
  <course>291.41</course>
  <speed>0.12</speed>
  <fix>3d</fix>
</trkpt>
<trkpt lat="40.0725107" lon="-105.2315421">
  <ele>1605.79</ele>
  <time>2026-08-28T19:07:31Z</time>
  <course>165.28</course>
  <speed>0.20615528128088303</speed>
  <fix>3d</fix>
</trkpt>
<trkpt lat="40.0725105" lon="-105.2315416">
  <ele>1605.82</ele>
  <time>2026-08-28T19:07:31Z</time>
  <course>302.53</course>
  <speed>0.16</speed>
  <fix>3d</fix>
</trkpt>
<trkpt lat="40.0725109" lon="-105.2315424">
  <ele>1605.65</ele>
  <time>2026-08-28T19:07:31Z</time>
  <course>165.41</course>
  <speed>0.23345235059857505</speed>
  <fix>3d</fix>
</trkpt>
<trkpt lat="40.0725106" lon="-105.2315419">
  <ele>1605.7</ele>
  <time>2026-08-28T19:07:31Z</time>
  <course>309.25</course>
  <speed>0.18</speed>
  <fix>3d</fix>
</trkpt>
<trkpt lat="40.0725112" lon="-105.2315427">
  <ele>1605.49</ele>
  <time>2026-08-28T19:07:31Z</time>
  <course>165.54</course>
  <speed>0.24758836806279894</speed>
  <fix>3d</fix>
</trkpt>
<trkpt lat="40.0725109" lon="-105.2315423">
  <ele>1605.55</ele>
  <time>2026-08-28T19:07:31Z</time>
  <course>313.72</course>
  <speed>0.21</speed>
  <fix>3d</fix>
</trkpt>
<trkpt lat="40.0725115" lon="-105.2315431">
  <ele>1605.29</ele>
  <time>2026-08-28T19:07:31Z</time>
  <course>165.64</course>
  <speed>0.25495097567963926</speed>
  <fix>3d</fix>
</trkpt>
<trkpt lat="40.0725111" lon="-105.2315426">
  <ele>1605.37</ele>
  <time>2026-08-28T19:07:31Z</time>
  <course>316.94</course>
  <speed>0.22</speed>
  <fix>3d</fix>
</trkpt>
<trkpt lat="40.0725118" lon="-105.2315434">
  <ele>1605.08</ele>
  <time>2026-08-28T19:07:31Z</time>
  <course>165.7</course>
  <speed>0.26248809496813374</speed>
  <fix>3d</fix>
</trkpt>
<trkpt lat="40.0725115" lon="-105.2315429">
  <ele>1605.17</ele>
  <time>2026-08-28T19:07:31Z</time>
  <course>319.43</course>
  <speed>0.23</speed>
  <fix>3d</fix>
</trkpt>
<trkpt lat="40.0725121" lon="-105.2315438">
  <ele>1604.84</ele>
  <time>2026-08-28T19:07:31Z</time>
  <course>165.73</course>
  <speed>0.2640075756488817</speed>
  <fix>3d</fix>
</trkpt>
<trkpt lat="40.0725118" lon="-105.2315433">
  <ele>1604.95</ele>
  <time>2026-08-28T19:07:31Z</time>
  <course>321.53</course>
  <speed>0.24</speed>
  <fix>3d</fix>
</trkpt>
<trkpt lat="40.0725125" lon="-105.2315441">
  <ele>1604.58</ele>
  <time>2026-08-28T19:07:31Z</time>
  <course>165.72</course>
  <speed>0.25</speed>
  <fix>3d</fix>
</trkpt>
<trkpt lat="40.0725121" lon="-105.2315437">
  <ele>1604.7</ele>
  <time>2026-08-28T19:07:31Z</time>
  <course>323.42</course>
  <speed>0.23</speed>
  <fix>3d</fix>
</trkpt>
<trkpt lat="40.0725128" lon="-105.2315444">
  <ele>1604.32</ele>
  <time>2026-08-28T19:07:31Z</time>
  <course>165.67</course>
  <speed>0.24413111231467405</speed>
  <fix>3d</fix>
</trkpt>
<trkpt lat="40.0725125" lon="-105.231544">
  <ele>1604.45</ele>
  <time>2026-08-28T19:07:31Z</time>
  <course>325.16</course>
  <speed>0.22</speed>
  <fix>3d</fix>
</trkpt>
<trkpt lat="40.0725131" lon="-105.2315446">
  <ele>1604.05</ele>
  <time>2026-08-28T19:07:31Z</time>
  <course>165.6</course>
  <speed>0.21633307652783937</speed>
  <fix>3d</fix>
</trkpt>
<trkpt lat="40.0725128" lon="-105.2315443">
  <ele>1604.18</ele>
  <time>2026-08-28T19:07:31Z</time>
  <course>327.07</course>
  <speed>0.21</speed>
  <fix>3d</fix>
</trkpt>
<trkpt lat="40.0725134" lon="-105.2315448">
  <ele>1603.78</ele>
  <time>2026-08-28T19:07:31Z</time>
  <course>165.52</course>
  <speed>0.1972308292331602</speed>
  <fix>3d</fix>
</trkpt>
<trkpt lat="40.0725131" lon="-105.2315446">
  <ele>1603.91</ele>
  <time>2026-08-28T19:07:31Z</time>
  <course>329.34</course>
  <speed>0.19</speed>
  <fix>3d</fix>
</trkpt>
<trkpt lat="40.0725137" lon="-105.231545">
  <ele>1603.51</ele>
  <time>2026-08-28T19:07:31Z</time>
  <course>165.45</course>
  <speed>0.17</speed>
  <fix>3d</fix>
</trkpt>
<trkpt lat="40.0725134" lon="-105.2315448">
  <ele>1603.64</ele>
  <time>2026-08-28T19:07:31Z</time>
  <course>332.24</course>
  <speed>0.16</speed>
  <fix>3d</fix>
</trkpt>
<trkpt lat="40.0725139" lon="-105.2315451">
  <ele>1603.25</ele>
  <time>2026-08-28T19:07:31Z</time>
  <course>165.41</course>
  <speed>0.14317821063276354</speed>
  <fix>3d</fix>
</trkpt>
<trkpt lat="40.0725137" lon="-105.2315449">
  <ele>1603.37</ele>
  <time>2026-08-28T19:07:31Z</time>
  <course>336.21</course>
  <speed>0.14</speed>
  <fix>3d</fix>
</trkpt>
<trkpt lat="40.0725141" lon="-105.2315452">
  <ele>1602.98</ele>
  <time>2026-08-28T19:07:31Z</time>
  <course>165.39</course>
  <speed>0.11704699910719625</speed>
  <fix>3d</fix>
</trkpt>
<trkpt lat="40.0725139" lon="-105.231545">
  <ele>1603.11</ele>
  <time>2026-08-28T19:07:31Z</time>
  <course>341.94</course>
  <speed>0.11</speed>
  <fix>3d</fix>
</trkpt>
<trkpt lat="40.0725142" lon="-105.2315452">
  <ele>1602.72</ele>
  <time>2026-08-28T19:07:31Z</time>
  <course>165.35</course>
  <speed>0.0824621125123532</speed>
  <fix>3d</fix>
</trkpt>
<trkpt lat="40.0725141" lon="-105.231545">
  <ele>1602.84</ele>
  <time>2026-08-28T19:07:31Z</time>
  <course>350.72</course>
  <speed>0.08</speed>
  <fix>3d</fix>
</trkpt>
<trkpt lat="40.0725143" lon="-105.2315452">
  <ele>1602.45</ele>
  <time>2026-08-28T19:07:31Z</time>
  <course>165.32</course>
  <speed>0.06</speed>
  <fix>3d</fix>
</trkpt>
<trkpt lat="40.0725142" lon="-105.231545">
  <ele>1602.58</ele>
  <time>2026-08-28T19:07:31Z</time>
  <course>4.82</course>
  <speed>0.06</speed>
  <fix>3d</fix>
</trkpt>
<trkpt lat="40.0725144" lon="-105.2315451">
  <ele>1602.18</ele>
  <time>2026-08-28T19:07:31Z</time>
  <course>165.29</course>
  <speed>0.0412310562561766</speed>
  <fix>3d</fix>
</trkpt>
<trkpt lat="40.0725143" lon="-105.231545">
  <ele>1602.31</ele>
  <time>2026-08-28T19:07:31Z</time>
  <course>28.62</course>
  <speed>0.04</speed>
  <fix>3d</fix>
</trkpt>
<trkpt lat="40.0725144" lon="-105.2315451">
  <ele>1601.91</ele>
  <time>2026-08-28T19:07:31Z</time>
  <course>165.26</course>
  <speed>0.0282842712474619</speed>
  <fix>3d</fix>
</trkpt>
<trkpt lat="40.0725143" lon="-105.231545">
  <ele>1602.04</ele>
  <time>2026-08-28T19:07:31Z</time>
  <course>61.72</course>
  <speed>0.04</speed>
  <fix>3d</fix>
</trkpt>
<trkpt lat="40.0725144" lon="-105.231545">
  <ele>1601.64</ele>
  <time>2026-08-28T19:07:31Z</time>
  <course>165.27</course>
  <speed>0.03</speed>
  <fix>3d</fix>
</trkpt>
<trkpt lat="40.0725143" lon="-105.231545">
  <ele>1601.78</ele>
  <time>2026-08-28T19:07:31Z</time>
  <course>89.18</course>
  <speed>0.04</speed>
  <fix>3d</fix>
</trkpt>
<trkpt lat="40.0725144" lon="-105.2315449">
  <ele>1601.37</ele>
  <time>2026-08-28T19:07:31Z</time>
  <course>165.26</course>
  <speed>0.04</speed>
  <fix>3d</fix>
</trkpt>
<trkpt lat="40.0725143" lon="-105.2315448">
  <ele>1601.51</ele>
  <time>2026-08-28T19:07:31Z</time>
  <course>105.14</course>
  <speed>0.06</speed>
  <fix>3d</fix>
</trkpt>
<trkpt lat="40.0725144" lon="-105.2315448">
  <ele>1601.1</ele>
  <time>2026-08-28T19:07:31Z</time>
  <course>165.25</course>
  <speed>0.0412310562561766</speed>
  <fix>3d</fix>
</trkpt>
<trkpt lat="40.0725143" lon="-105.2315447">
  <ele>1601.24</ele>
  <time>2026-08-28T19:07:31Z</time>
  <course>114.5</course>
  <speed>0.07</speed>
  <fix>3d</fix>
</trkpt>
<trkpt lat="40.0725144" lon="-105.2315446">
  <ele>1600.83</ele>
  <time>2026-08-28T19:07:31Z</time>
  <course>165.22</course>
  <speed>0.044721359549995794</speed>
  <fix>3d</fix>
</trkpt>
<trkpt lat="40.0725143" lon="-105.2315446">
  <ele>1600.97</ele>
  <time>2026-08-28T19:07:31Z</time>
  <course>120.3</course>
  <speed>0.08</speed>
  <fix>3d</fix>
</trkpt>
<trkpt lat="40.0725143" lon="-105.2315444">
  <ele>1600.55</ele>
  <time>2026-08-28T19:07:31Z</time>
  <course>165.18</course>
  <speed>0.05</speed>
  <fix>3d</fix>
</trkpt>
<trkpt lat="40.0725142" lon="-105.2315443">
  <ele>1600.69</ele>
  <time>2026-08-28T19:07:31Z</time>
  <course>123.91</course>
  <speed>0.08</speed>
  <fix>3d</fix>
</trkpt>
<trkpt lat="40.0725142" lon="-105.2315443">
  <ele>1600.27</ele>
  <time>2026-08-28T19:07:31Z</time>
  <course>165.17</course>
  <speed>0.05</speed>
  <fix>3d</fix>
</trkpt>
<trkpt lat="40.0725141" lon="-105.2315442">
  <ele>1600.42</ele>
  <time>2026-08-28T19:07:31Z</time>
  <course>126.65</course>
  <speed>0.08</speed>
  <fix>3d</fix>
</trkpt>
<trkpt lat="40.0725141" lon="-105.2315441">
  <ele>1599.99</ele>
  <time>2026-08-28T19:07:31Z</time>
  <course>165.15</course>
  <speed>0.05</speed>
  <fix>3d</fix>
</trkpt>
<trkpt lat="40.072514" lon="-105.2315441">
  <ele>1600.14</ele>
  <time>2026-08-28T19:07:31Z</time>
  <course>129.01</course>
  <speed>0.08</speed>
  <fix>3d</fix>
</trkpt>
<trkpt lat="40.072514" lon="-105.231544">
  <ele>1599.71</ele>
  <time>2026-08-28T19:07:31Z</time>
  <course>165.13</course>
  <speed>0.04242640687119285</speed>
  <fix>3d</fix>
</trkpt>
<trkpt lat="40.0725139" lon="-105.2315439">
  <ele>1599.86</ele>
  <time>2026-08-28T19:07:31Z</time>
  <course>131.15</course>
  <speed>0.08</speed>
  <fix>3d</fix>
</trkpt>
<trkpt lat="40.0725139" lon="-105.2315439">
  <ele>1599.42</ele>
  <time>2026-08-28T19:07:31Z</time>
  <course>165.1</course>
  <speed>0.03605551275463989</speed>
  <fix>3d</fix>
</trkpt>
<trkpt lat="40.0725138" lon="-105.2315438">
  <ele>1599.58</ele>
  <time>2026-08-28T19:07:31Z</time>
  <course>133.3</course>
  <speed>0.08</speed>
  <fix>3d</fix>
</trkpt>
<trkpt lat="40.0725138" lon="-105.2315438">
  <ele>1599.14</ele>
  <time>2026-08-28T19:07:31Z</time>
  <course>165.09</course>
  <speed>0.0282842712474619</speed>
  <fix>3d</fix>
</trkpt>
<trkpt lat="40.0725137" lon="-105.2315436">
  <ele>1599.3</ele>
  <time>2026-08-28T19:07:31Z</time>
  <course>135.46</course>
  <speed>0.07</speed>
  <fix>3d</fix>
</trkpt>
<trkpt lat="40.0725137" lon="-105.2315437">
  <ele>1598.85</ele>
  <time>2026-08-28T19:07:31Z</time>
  <course>165.06</course>
  <speed>0.022360679774997897</speed>
  <fix>3d</fix>
</trkpt>
<trkpt lat="40.0725136" lon="-105.2315435">
  <ele>1599.01</ele>
  <time>2026-08-28T19:07:31Z</time>
  <course>137.68</course>
  <speed>0.06</speed>
  <fix>3d</fix>
</trkpt>
<trkpt lat="40.0725137" lon="-105.2315436">
  <ele>1598.56</ele>
  <time>2026-08-28T19:07:31Z</time>
  <course>165.04</course>
  <speed>0.01</speed>
  <fix>3d</fix>
</trkpt>
<trkpt lat="40.0725136" lon="-105.2315434">
  <ele>1598.73</ele>
  <time>2026-08-28T19:07:31Z</time>
  <course>139.59</course>
  <speed>0.05</speed>
  <fix>3d</fix>
</trkpt>
<trkpt lat="40.0725136" lon="-105.2315435">
  <ele>1598.28</ele>
  <time>2026-08-28T19:07:31Z</time>
  <course>165.02</course>
  <speed>0.0</speed>
  <fix>3d</fix>
</trkpt>
<trkpt lat="40.0725135" lon="-105.2315433">
  <ele>1598.44</ele>
  <time>2026-08-28T19:07:31Z</time>
  <course>140.78</course>
  <speed>0.04</speed>
  <fix>3d</fix>
</trkpt>
<trkpt lat="40.0725136" lon="-105.2315435">
  <ele>1597.99</ele>
  <time>2026-08-28T19:07:31Z</time>
  <course>164.98</course>
  <speed>0.0</speed>
  <fix>3d</fix>
</trkpt>
<trkpt lat="40.0725135" lon="-105.2315433">
  <ele>1598.15</ele>
  <time>2026-08-28T19:07:31Z</time>
  <course>142.02</course>
  <speed>0.03</speed>
  <fix>3d</fix>
</trkpt>
<trkpt lat="40.0725135" lon="-105.2315435">
  <ele>1597.7</ele>
  <time>2026-08-28T19:07:31Z</time>
  <course>164.98</course>
  <speed>0.01</speed>
  <fix>3d</fix>
</trkpt>
<trkpt lat="40.0725134" lon="-105.2315433">
  <ele>1597.87</ele>
  <time>2026-08-28T19:07:31Z</time>
  <course>144.24</course>
  <speed>0.02</speed>
  <fix>3d</fix>
</trkpt>
<trkpt lat="40.0725135" lon="-105.2315434">
  <ele>1597.41</ele>
  <time>2026-08-28T19:07:31Z</time>
  <course>164.97</course>
  <speed>0.022360679774997897</speed>
  <fix>3d</fix>
</trkpt>
<trkpt lat="40.0725134" lon="-105.2315433">
  <ele>1597.58</ele>
  <time>2026-08-28T19:07:31Z</time>
  <course>151.97</course>
  <speed>0.01</speed>
  <fix>3d</fix>
</trkpt>
<trkpt lat="40.0725135" lon="-105.2315434">
  <ele>1597.12</ele>
  <time>2026-08-28T19:07:31Z</time>
  <course>164.94</course>
  <speed>0.0282842712474619</speed>
  <fix>3d</fix>
</trkpt>
<trkpt lat="40.0725134" lon="-105.2315433">
  <ele>1597.29</ele>
  <time>2026-08-28T19:07:31Z</time>
  <course>238.49</course>
  <speed>0.0</speed>
  <fix>3d</fix>
</trkpt>
<trkpt lat="40.0725135" lon="-105.2315434">
  <ele>1596.82</ele>
  <time>2026-08-28T19:07:31Z</time>
  <course>164.9</course>
  <speed>0.03605551275463989</speed>
  <fix>3d</fix>
</trkpt>
<trkpt lat="40.0725134" lon="-105.2315433">
  <ele>1597.0</ele>
  <time>2026-08-28T19:07:31Z</time>
  <course>299.56</course>
  <speed>0.01</speed>
  <fix>3d</fix>
</trkpt>
<trkpt lat="40.0725135" lon="-105.2315434">
  <ele>1596.54</ele>
  <time>2026-08-28T19:07:31Z</time>
  <course>164.87</course>
  <speed>0.04242640687119285</speed>
  <fix>3d</fix>
</trkpt>
<trkpt lat="40.0725134" lon="-105.2315433">
  <ele>1596.71</ele>
  <time>2026-08-28T19:07:31Z</time>
  <course>308.59</course>
  <speed>0.01</speed>
  <fix>3d</fix>
</trkpt>
<trkpt lat="40.0725135" lon="-105.2315435">
  <ele>1596.24</ele>
  <time>2026-08-28T19:07:31Z</time>
  <course>164.84</course>
  <speed>0.04242640687119285</speed>
  <fix>3d</fix>
</trkpt>
<trkpt lat="40.0725134" lon="-105.2315433">
  <ele>1596.41</ele>
  <time>2026-08-28T19:07:31Z</time>
  <course>313.65</course>
  <speed>0.02</speed>
  <fix>3d</fix>
</trkpt>
<trkpt lat="40.0725135" lon="-105.2315435">
  <ele>1595.95</ele>
  <time>2026-08-28T19:07:31Z</time>
  <course>164.83</course>
  <speed>0.04242640687119285</speed>
  <fix>3d</fix>
</trkpt>
<trkpt lat="40.0725134" lon="-105.2315433">
  <ele>1596.12</ele>
  <time>2026-08-28T19:07:31Z</time>
  <course>316.94</course>
  <speed>0.02</speed>
  <fix>3d</fix>
</trkpt>
<trkpt lat="40.0725136" lon="-105.2315436">
  <ele>1595.66</ele>
  <time>2026-08-28T19:07:31Z</time>
  <course>164.84</course>
  <speed>0.0565685424949238</speed>
  <fix>3d</fix>
</trkpt>
<trkpt lat="40.0725134" lon="-105.2315433">
  <ele>1595.83</ele>
  <time>2026-08-28T19:07:31Z</time>
  <course>318.52</course>
  <speed>0.03</speed>
  <fix>3d</fix>
</trkpt>
<trkpt lat="40.0725136" lon="-105.2315436">
  <ele>1595.37</ele>
  <time>2026-08-28T19:07:31Z</time>
  <course>164.83</course>
  <speed>0.0565685424949238</speed>
  <fix>3d</fix>
</trkpt>
<trkpt lat="40.0725135" lon="-105.2315433">
  <ele>1595.54</ele>
  <time>2026-08-28T19:07:31Z</time>
  <course>319.33</course>
  <speed>0.03</speed>
  <fix>3d</fix>
</trkpt>
<trkpt lat="40.0725137" lon="-105.2315436">
  <ele>1595.08</ele>
  <time>2026-08-28T19:07:31Z</time>
  <course>164.82</course>
  <speed>0.0565685424949238</speed>
  <fix>3d</fix>
</trkpt>
<trkpt lat="40.0725135" lon="-105.2315434">
  <ele>1595.25</ele>
  <time>2026-08-28T19:07:31Z</time>
  <course>320.23</course>
  <speed>0.03</speed>
  <fix>3d</fix>
</trkpt>
<trkpt lat="40.0725137" lon="-105.2315437">
  <ele>1594.78</ele>
  <time>2026-08-28T19:07:31Z</time>
  <course>164.8</course>
  <speed>0.0565685424949238</speed>
  <fix>3d</fix>
</trkpt>
<trkpt lat="40.0725136" lon="-105.2315435">
  <ele>1594.95</ele>
  <time>2026-08-28T19:07:31Z</time>
  <course>320.94</course>
  <speed>0.03</speed>
  <fix>3d</fix>
</trkpt>
<trkpt lat="40.0725137" lon="-105.2315437">
  <ele>1594.48</ele>
  <time>2026-08-28T19:07:31Z</time>
  <course>164.77</course>
  <speed>0.05</speed>
  <fix>3d</fix>
</trkpt>
<trkpt lat="40.0725136" lon="-105.2315435">
  <ele>1594.66</ele>
  <time>2026-08-28T19:07:31Z</time>
  <course>321.44</course>
  <speed>0.03</speed>
  <fix>3d</fix>
</trkpt>
<trkpt lat="40.0725138" lon="-105.2315438">
  <ele>1594.19</ele>
  <time>2026-08-28T19:07:31Z</time>
  <course>164.75</course>
  <speed>0.04242640687119285</speed>
  <fix>3d</fix>
</trkpt>
<trkpt lat="40.0725136" lon="-105.2315436">
  <ele>1594.36</ele>
  <time>2026-08-28T19:07:31Z</time>
  <course>322.32</course>
  <speed>0.03</speed>
  <fix>3d</fix>
</trkpt>
<trkpt lat="40.0725138" lon="-105.2315438">
  <ele>1593.88</ele>
  <time>2026-08-28T19:07:31Z</time>
  <course>164.72</course>
  <speed>0.04242640687119285</speed>
  <fix>3d</fix>
</trkpt>
<trkpt lat="40.0725137" lon="-105.2315436">
  <ele>1594.06</ele>
  <time>2026-08-28T19:07:31Z</time>
  <course>323.52</course>
  <speed>0.03</speed>
  <fix>3d</fix>
</trkpt>
<trkpt lat="40.0725139" lon="-105.2315438">
  <ele>1593.58</ele>
  <time>2026-08-28T19:07:31Z</time>
  <course>164.7</course>
  <speed>0.04242640687119285</speed>
  <fix>3d</fix>
</trkpt>
<trkpt lat="40.0725137" lon="-105.2315436">
  <ele>1593.77</ele>
  <time>2026-08-28T19:07:31Z</time>
  <course>325.09</course>
  <speed>0.03</speed>
  <fix>3d</fix>
</trkpt>
<trkpt lat="40.0725139" lon="-105.2315439">
  <ele>1593.28</ele>
  <time>2026-08-28T19:07:31Z</time>
  <course>164.68</course>
  <speed>0.03605551275463989</speed>
  <fix>3d</fix>
</trkpt>
<trkpt lat="40.0725138" lon="-105.2315437">
  <ele>1593.47</ele>
  <time>2026-08-28T19:07:31Z</time>
  <course>326.78</course>
  <speed>0.02</speed>
  <fix>3d</fix>
</trkpt>
<trkpt lat="40.0725139" lon="-105.2315439">
  <ele>1592.99</ele>
  <time>2026-08-28T19:07:31Z</time>
  <course>164.66</course>
  <speed>0.0282842712474619</speed>
  <fix>3d</fix>
</trkpt>
<trkpt lat="40.0725139" lon="-105.2315438">
  <ele>1593.16</ele>
  <time>2026-08-28T19:07:31Z</time>
  <course>327.67</course>
  <speed>0.02</speed>
  <fix>3d</fix>
</trkpt>
<trkpt lat="40.072514" lon="-105.2315439">
  <ele>1592.69</ele>
  <time>2026-08-28T19:07:31Z</time>
  <course>164.61</course>
  <speed>0.0282842712474619</speed>
  <fix>3d</fix>
</trkpt>
<trkpt lat="40.0725139" lon="-105.2315438">
  <ele>1592.87</ele>
  <time>2026-08-28T19:07:31Z</time>
  <course>328.31</course>
  <speed>0.02</speed>
  <fix>3d</fix>
</trkpt>
<trkpt lat="40.072514" lon="-105.2315439">
  <ele>1592.39</ele>
  <time>2026-08-28T19:07:31Z</time>
  <course>164.62</course>
  <speed>0.0282842712474619</speed>
  <fix>3d</fix>
</trkpt>
<trkpt lat="40.0725139" lon="-105.2315438">
  <ele>1592.58</ele>
  <time>2026-08-28T19:07:31Z</time>
  <course>329.71</course>
  <speed>0.01</speed>
  <fix>3d</fix>
</trkpt>
<trkpt lat="40.072514" lon="-105.2315439">
  <ele>1592.09</ele>
  <time>2026-08-28T19:07:31Z</time>
  <course>164.58</course>
  <speed>0.01414213562373095</speed>
  <fix>3d</fix>
</trkpt>
<trkpt lat="40.072514" lon="-105.2315438">
  <ele>1592.28</ele>
  <time>2026-08-28T19:07:31Z</time>
  <course>331.2</course>
  <speed>0.01</speed>
  <fix>3d</fix>
</trkpt>
<trkpt lat="40.072514" lon="-105.2315439">
  <ele>1591.79</ele>
  <time>2026-08-28T19:07:31Z</time>
  <course>164.58</course>
  <speed>0.01414213562373095</speed>
  <fix>3d</fix>
</trkpt>
<trkpt lat="40.072514" lon="-105.2315438">
  <ele>1591.99</ele>
  <time>2026-08-28T19:07:31Z</time>
  <course>335.61</course>
  <speed>0.0</speed>
  <fix>3d</fix>
</trkpt>
<trkpt lat="40.072514" lon="-105.2315439">
  <ele>1591.5</ele>
  <time>2026-08-28T19:07:31Z</time>
  <course>164.55</course>
  <speed>0.01414213562373095</speed>
  <fix>3d</fix>
</trkpt>
<trkpt lat="40.072514" lon="-105.2315438">
  <ele>1591.69</ele>
  <time>2026-08-28T19:07:31Z</time>
  <course>348.55</course>
  <speed>0.0</speed>
  <fix>3d</fix>
</trkpt>
<trkpt lat="40.072514" lon="-105.2315439">
  <ele>1591.21</ele>
  <time>2026-08-28T19:07:31Z</time>
  <course>164.56</course>
  <speed>0.01</speed>
  <fix>3d</fix>
</trkpt>
<trkpt lat="40.072514" lon="-105.2315438">
  <ele>1591.4</ele>
  <time>2026-08-28T19:07:31Z</time>
  <course>58.05</course>
  <speed>0.0</speed>
  <fix>3d</fix>
</trkpt>
<trkpt lat="40.072514" lon="-105.2315439">
  <ele>1590.91</ele>
  <time>2026-08-28T19:07:31Z</time>
  <course>164.53</course>
  <speed>0.0</speed>
  <fix>3d</fix>
</trkpt>
<trkpt lat="40.072514" lon="-105.2315438">
  <ele>1591.1</ele>
  <time>2026-08-28T19:07:31Z</time>
  <course>115.61</course>
  <speed>0.0</speed>
  <fix>3d</fix>
</trkpt>
<trkpt lat="40.072514" lon="-105.2315439">
  <ele>1590.62</ele>
  <time>2026-08-28T19:07:31Z</time>
  <course>164.51</course>
  <speed>0.0</speed>
  <fix>3d</fix>
</trkpt>
<trkpt lat="40.072514" lon="-105.2315438">
  <ele>1590.81</ele>
  <time>2026-08-28T19:07:31Z</time>
  <course>128.79</course>
  <speed>0.0</speed>
  <fix>3d</fix>
</trkpt>
<trkpt lat="40.072514" lon="-105.2315439">
  <ele>1590.34</ele>
  <time>2026-08-28T19:07:31Z</time>
  <course>164.4</course>
  <speed>0.0</speed>
  <fix>3d</fix>
</trkpt>
<trkpt lat="40.072514" lon="-105.2315438">
  <ele>1590.51</ele>
  <time>2026-08-28T19:07:31Z</time>
  <course>124.46</course>
  <speed>0.01</speed>
  <fix>3d</fix>
</trkpt>
<trkpt lat="40.072514" lon="-105.2315439">
  <ele>1590.06</ele>
  <time>2026-08-28T19:07:31Z</time>
  <course>164.23</course>
  <speed>0.04</speed>
  <fix>3d</fix>
</trkpt>
<trkpt lat="40.072514" lon="-105.2315438">
  <ele>1590.22</ele>
  <time>2026-08-28T19:07:31Z</time>
  <course>105.59</course>
  <speed>0.02</speed>
  <fix>3d</fix>
</trkpt>
<trkpt lat="40.072514" lon="-105.2315437">
  <ele>1589.8</ele>
  <time>2026-08-28T19:07:31Z</time>
  <course>164.01</course>
  <speed>0.12</speed>
  <fix>3d</fix>
</trkpt>
<trkpt lat="40.072514" lon="-105.2315438">
  <ele>1589.94</ele>
  <time>2026-08-28T19:07:31Z</time>
  <course>93.68</course>
  <speed>0.07</speed>
  <fix>3d</fix>
</trkpt>
<trkpt lat="40.072514" lon="-105.2315432">
  <ele>1589.56</ele>
  <time>2026-08-28T19:07:31Z</time>
  <course>163.73</course>
  <speed>0.260768096208106</speed>
  <fix>3d</fix>
</trkpt>
<trkpt lat="40.072514" lon="-105.2315434">
  <ele>1589.69</ele>
  <time>2026-08-28T19:07:31Z</time>
  <course>88.11</course>
  <speed>0.17</speed>
  <fix>3d</fix>
</trkpt>
<trkpt lat="40.0725141" lon="-105.2315423">
  <ele>1589.37</ele>
  <time>2026-08-28T19:07:31Z</time>
  <course>163.37</course>
  <speed>0.45398237851264667</speed>
  <fix>3d</fix>
</trkpt>
<trkpt lat="40.072514" lon="-105.2315428">
  <ele>1589.47</ele>
  <time>2026-08-28T19:07:31Z</time>
  <course>84.82</course>
  <speed>0.32</speed>
  <fix>3d</fix>
</trkpt>
<trkpt lat="40.0725142" lon="-105.231541">
  <ele>1589.22</ele>
  <time>2026-08-28T19:07:31Z</time>
  <course>163.01</course>
  <speed>0.708590149522275</speed>
  <fix>3d</fix>
</trkpt>
<trkpt lat="40.072514" lon="-105.2315419">
  <ele>1589.29</ele>
  <time>2026-08-28T19:07:31Z</time>
  <course>82.56</course>
  <speed>0.53</speed>
  <fix>3d</fix>
</trkpt>
<trkpt lat="40.0725144" lon="-105.231539">
  <ele>1589.11</ele>
  <time>2026-08-28T19:07:31Z</time>
  <course>162.65</course>
  <speed>1.0044899203078146</speed>
  <fix>3d</fix>
</trkpt>
<trkpt lat="40.0725142" lon="-105.2315403">
  <ele>1589.14</ele>
  <time>2026-08-28T19:07:31Z</time>
  <course>80.96</course>
  <speed>0.8</speed>
  <fix>3d</fix>
</trkpt>
<trkpt lat="40.0725148" lon="-105.2315364">
  <ele>1589.04</ele>
  <time>2026-08-28T19:07:31Z</time>
  <course>158.54</course>
  <speed>1.2808200498118385</speed>
  <fix>3d</fix>
</trkpt>
<trkpt lat="40.0725145" lon="-105.2315381">
  <ele>1589.05</ele>
  <time>2026-08-28T19:07:31Z</time>
  <course>79.97</course>
  <speed>1.09</speed>
  <fix>3d</fix>
</trkpt>
<trkpt lat="40.0725153" lon="-105.231533">
  <ele>1589.02</ele>
  <time>2026-08-28T19:07:31Z</time>
  <course>144.4</course>
  <speed>1.6532694880145826</speed>
  <fix>3d</fix>
</trkpt>
<trkpt lat="40.0725149" lon="-105.2315352">
  <ele>1589.0</ele>
  <time>2026-08-28T19:07:31Z</time>
  <course>79.15</course>
  <speed>1.41</speed>
  <fix>3d</fix>
</trkpt>
<trkpt lat="40.072516" lon="-105.2315288">
  <ele>1589.01</ele>
  <time>2026-08-28T19:07:31Z</time>
  <course>132.12</course>
  <speed>2.05</speed>
  <fix>3d</fix>
</trkpt>
<trkpt lat="40.0725154" lon="-105.2315316">
  <ele>1588.97</ele>
  <time>2026-08-28T19:07:31Z</time>
  <course>78.11</course>
  <speed>1.78</speed>
  <fix>3d</fix>
</trkpt>
<trkpt lat="40.0725169" lon="-105.2315236">
  <ele>1589.02</ele>
  <time>2026-08-28T19:07:31Z</time>
  <course>119.96</course>
  <speed>2.4352617929085163</speed>
  <fix>3d</fix>
</trkpt>
<trkpt lat="40.0725162" lon="-105.231527">
  <ele>1588.97</ele>
  <time>2026-08-28T19:07:31Z</time>
  <course>77.11</course>
  <speed>2.18</speed>
  <fix>3d</fix>
</trkpt>
<trkpt lat="40.072518" lon="-105.2315177">
  <ele>1589.04</ele>
  <time>2026-08-28T19:07:31Z</time>
  <course>107.84</course>
  <speed>2.791594526431086</speed>
  <fix>3d</fix>
</trkpt>
<trkpt lat="40.0725172" lon="-105.2315216">
  <ele>1588.98</ele>
  <time>2026-08-28T19:07:31Z</time>
  <course>76.35</course>
  <speed>2.56</speed>
  <fix>3d</fix>
</trkpt>
<trkpt lat="40.0725193" lon="-105.231511">
  <ele>1589.07</ele>
  <time>2026-08-28T19:07:31Z</time>
  <course>95.66</course>
  <speed>3.0997419247414775</speed>
  <fix>3d</fix>
</trkpt>
<trkpt lat="40.0725184" lon="-105.2315153">
  <ele>1589.0</ele>
  <time>2026-08-28T19:07:31Z</time>
  <course>75.75</course>
  <speed>2.9</speed>
  <fix>3d</fix>
</trkpt>
<trkpt lat="40.0725207" lon="-105.2315036">
  <ele>1589.09</ele>
  <time>2026-08-28T19:07:31Z</time>
  <course>83.54</course>
  <speed>3.3477305745833252</speed>
  <fix>3d</fix>
</trkpt>
<trkpt lat="40.0725198" lon="-105.2315084">
  <ele>1589.02</ele>
  <time>2026-08-28T19:07:31Z</time>
  <course>75.17</course>
  <speed>3.2</speed>
  <fix>3d</fix>
</trkpt>
<trkpt lat="40.0725224" lon="-105.2314959">
  <ele>1589.12</ele>
  <time>2026-08-28T19:07:31Z</time>
  <course>71.87</course>
  <speed>3.519204455555261</speed>
  <fix>3d</fix>
</trkpt>
<trkpt lat="40.0725214" lon="-105.2315008">
  <ele>1589.04</ele>
  <time>2026-08-28T19:07:31Z</time>
  <course>74.51</course>
  <speed>3.43</speed>
  <fix>3d</fix>
</trkpt>
<trkpt lat="40.0725243" lon="-105.2314879">
  <ele>1589.14</ele>
  <time>2026-08-28T19:07:31Z</time>
  <course>69.91</course>
  <speed>3.6246379129507544</speed>
  <fix>3d</fix>
</trkpt>
<trkpt lat="40.0725231" lon="-105.2314929">
  <ele>1589.06</ele>
  <time>2026-08-28T19:07:31Z</time>
  <course>73.4</course>
  <speed>3.59</speed>
  <fix>3d</fix>
</trkpt>
<trkpt lat="40.0725262" lon="-105.2314797">
  <ele>1589.16</ele>
  <time>2026-08-28T19:07:31Z</time>
  <course>70.46</course>
  <speed>3.684901626909462</speed>
  <fix>3d</fix>
</trkpt>
<trkpt lat="40.072525" lon="-105.2314848">
  <ele>1589.09</ele>
  <time>2026-08-28T19:07:31Z</time>
  <course>72.66</course>
  <speed>3.69</speed>
  <fix>3d</fix>
</trkpt>
<trkpt lat="40.0725282" lon="-105.2314713">
  <ele>1589.18</ele>
  <time>2026-08-28T19:07:31Z</time>
  <course>71.21</course>
  <speed>3.7269021988777755</speed>
  <fix>3d</fix>
</trkpt>
<trkpt lat="40.0725269" lon="-105.2314764">
  <ele>1589.1</ele>
  <time>2026-08-28T19:07:31Z</time>
  <course>72.89</course>
  <speed>3.75</speed>
  <fix>3d</fix>
</trkpt>
<trkpt lat="40.07253" lon="-105.2314628">
  <ele>1589.2</ele>
  <time>2026-08-28T19:07:31Z</time>
  <course>72.09</course>
  <speed>3.74444922518653</speed>
  <fix>3d</fix>
</trkpt>
<trkpt lat="40.072529" lon="-105.2314679">
  <ele>1589.11</ele>
  <time>2026-08-28T19:07:31Z</time>
  <course>73.48</course>
  <speed>3.78</speed>
  <fix>3d</fix>
</trkpt>
<trkpt lat="40.0725319" lon="-105.2314543">
  <ele>1589.2</ele>
  <time>2026-08-28T19:07:31Z</time>
  <course>73.09</course>
  <speed>3.7283910739084223</speed>
  <fix>3d</fix>
</trkpt>
<trkpt lat="40.0725309" lon="-105.2314593">
  <ele>1589.12</ele>
  <time>2026-08-28T19:07:31Z</time>
  <course>74.24</course>
  <speed>3.79</speed>
  <fix>3d</fix>
</trkpt>
<trkpt lat="40.0725336" lon="-105.2314458">
  <ele>1589.21</ele>
  <time>2026-08-28T19:07:31Z</time>
  <course>74.14</course>
  <speed>3.6816979778357704</speed>
  <fix>3d</fix>
</trkpt>
<trkpt lat="40.0725326" lon="-105.2314508">
  <ele>1589.13</ele>
  <time>2026-08-28T19:07:31Z</time>
  <course>75.12</course>
  <speed>3.76</speed>
  <fix>3d</fix>
</trkpt>
<trkpt lat="40.0725352" lon="-105.2314374">
  <ele>1589.21</ele>
  <time>2026-08-28T19:07:31Z</time>
  <course>75.26</course>
  <speed>3.6262652964172384</speed>
  <fix>3d</fix>
</trkpt>
<trkpt lat="40.0725343" lon="-105.2314423">
  <ele>1589.13</ele>
  <time>2026-08-28T19:07:31Z</time>
  <course>76.08</course>
  <speed>3.71</speed>
  <fix>3d</fix>
</trkpt>
<trkpt lat="40.0725366" lon="-105.2314291">
  <ele>1589.2</ele>
  <time>2026-08-28T19:07:31Z</time>
  <course>76.37</course>
  <speed>3.567590223105787</speed>
  <fix>3d</fix>
</trkpt>
<trkpt lat="40.0725359" lon="-105.2314338">
  <ele>1589.13</ele>
  <time>2026-08-28T19:07:31Z</time>
  <course>77.16</course>
  <speed>3.65</speed>
  <fix>3d</fix>
</trkpt>
<trkpt lat="40.0725379" lon="-105.2314208">
  <ele>1589.2</ele>
  <time>2026-08-28T19:07:31Z</time>
  <course>77.53</course>
  <speed>3.5125631666918107</speed>
  <fix>3d</fix>
</trkpt>
<trkpt lat="40.0725372" lon="-105.2314256">
  <ele>1589.13</ele>
  <time>2026-08-28T19:07:31Z</time>
  <course>78.33</course>
  <speed>3.59</speed>
  <fix>3d</fix>
</trkpt>
<trkpt lat="40.072539" lon="-105.2314127">
  <ele>1589.19</ele>
  <time>2026-08-28T19:07:31Z</time>
  <course>78.72</course>
  <speed>3.4392586410446073</speed>
  <fix>3d</fix>
</trkpt>
<trkpt lat="40.0725385" lon="-105.2314174">
  <ele>1589.12</ele>
  <time>2026-08-28T19:07:31Z</time>
  <course>79.51</course>
  <speed>3.53</speed>
  <fix>3d</fix>
</trkpt>
<trkpt lat="40.07254" lon="-105.2314047">
  <ele>1589.19</ele>
  <time>2026-08-28T19:07:31Z</time>
  <course>79.86</course>
  <speed>3.3391765451979323</speed>
  <fix>3d</fix>
</trkpt>
<trkpt lat="40.0725396" lon="-105.2314093">
  <ele>1589.12</ele>
  <time>2026-08-28T19:07:31Z</time>
  <course>80.59</course>
  <speed>3.44</speed>
  <fix>3d</fix>
</trkpt>
<trkpt lat="40.0725409" lon="-105.231397">
  <ele>1589.19</ele>
  <time>2026-08-28T19:07:31Z</time>
  <course>80.79</course>
  <speed>3.201780754517711</speed>
  <fix>3d</fix>
</trkpt>
<trkpt lat="40.0725405" lon="-105.2314014">
  <ele>1589.12</ele>
  <time>2026-08-28T19:07:31Z</time>
  <course>81.5</course>
  <speed>3.33</speed>
  <fix>3d</fix>
</trkpt>
<trkpt lat="40.0725417" lon="-105.2313897">
  <ele>1589.2</ele>
  <time>2026-08-28T19:07:31Z</time>
  <course>81.41</course>
  <speed>3.037795253140014</speed>
  <fix>3d</fix>
</trkpt>
<trkpt lat="40.0725413" lon="-105.2313939">
  <ele>1589.12</ele>
  <time>2026-08-28T19:07:31Z</time>
  <course>82.17</course>
  <speed>3.18</speed>
  <fix>3d</fix>
</trkpt>
<trkpt lat="40.0725425" lon="-105.2313827">
  <ele>1589.22</ele>
  <time>2026-08-28T19:07:31Z</time>
  <course>81.52</course>
  <speed>2.877933286231632</speed>
  <fix>3d</fix>
</trkpt>
<trkpt lat="40.072542" lon="-105.2313866">
  <ele>1589.12</ele>
  <time>2026-08-28T19:07:31Z</time>
  <course>82.43</course>
  <speed>3.02</speed>
  <fix>3d</fix>
</trkpt>
<trkpt lat="40.0725432" lon="-105.2313761">
  <ele>1589.23</ele>
  <time>2026-08-28T19:07:31Z</time>
  <course>80.86</course>
  <speed>2.7142770676554004</speed>
  <fix>3d</fix>
</trkpt>
<trkpt lat="40.0725428" lon="-105.2313798">
  <ele>1589.12</ele>
  <time>2026-08-28T19:07:31Z</time>
  <course>82.05</course>
  <speed>2.85</speed>
  <fix>3d</fix>
</trkpt>
<trkpt lat="40.072544" lon="-105.2313699">
  <ele>1589.24</ele>
  <time>2026-08-28T19:07:31Z</time>
  <course>79.12</course>
  <speed>2.5377549133042776</speed>
  <fix>3d</fix>
</trkpt>
<trkpt lat="40.0725435" lon="-105.2313734">
  <ele>1589.13</ele>
  <time>2026-08-28T19:07:31Z</time>
  <course>80.77</course>
  <speed>2.68</speed>
  <fix>3d</fix>
</trkpt>
<trkpt lat="40.072545" lon="-105.2313642">
  <ele>1589.26</ele>
  <time>2026-08-28T19:07:31Z</time>
  <course>76.04</course>
  <speed>2.3601906702637394</speed>
  <fix>3d</fix>
</trkpt>
<trkpt lat="40.0725443" lon="-105.2313674">
  <ele>1589.15</ele>
  <time>2026-08-28T19:07:31Z</time>
  <course>78.27</course>
  <speed>2.5</speed>
  <fix>3d</fix>
</trkpt>
<trkpt lat="40.0725462" lon="-105.231359">
  <ele>1589.29</ele>
  <time>2026-08-28T19:07:31Z</time>
  <course>71.47</course>
  <speed>2.2051077071199945</speed>
  <fix>3d</fix>
</trkpt>
<trkpt lat="40.0725453" lon="-105.2313618">
  <ele>1589.17</ele>
  <time>2026-08-28T19:07:31Z</time>
  <course>74.26</course>
  <speed>2.32</speed>
  <fix>3d</fix>
</trkpt>
<trkpt lat="40.0725477" lon="-105.2313543">
  <ele>1589.32</ele>
  <time>2026-08-28T19:07:32Z</time>
  <course>65.35</course>
  <speed>2.097474672075923</speed>
  <fix>3d</fix>
</trkpt>
<trkpt lat="40.0725466" lon="-105.2313568">
  <ele>1589.2</ele>
  <time>2026-08-28T19:07:32Z</time>
  <course>68.62</course>
  <speed>2.16</speed>
  <fix>3d</fix>
</trkpt>
<trkpt lat="40.0725495" lon="-105.23135">
  <ele>1589.37</ele>
  <time>2026-08-28T19:07:32Z</time>
  <course>58.08</course>
  <speed>2.0580573364218986</speed>
  <fix>3d</fix>
</trkpt>
<trkpt lat="40.0725482" lon="-105.2313523">
  <ele>1589.24</ele>
  <time>2026-08-28T19:07:32Z</time>
  <course>61.6</course>
  <speed>2.07</speed>
  <fix>3d</fix>
</trkpt>
<trkpt lat="40.0725517" lon="-105.2313461">
  <ele>1589.43</ele>
  <time>2026-08-28T19:07:32Z</time>
  <course>50.4</course>
  <speed>2.090287061625747</speed>
  <fix>3d</fix>
</trkpt>
<trkpt lat="40.0725501" lon="-105.2313482">
  <ele>1589.3</ele>
  <time>2026-08-28T19:07:32Z</time>
  <course>54.0</course>
  <speed>2.04</speed>
  <fix>3d</fix>
</trkpt>
<trkpt lat="40.0725544" lon="-105.2313425">
  <ele>1589.51</ele>
  <time>2026-08-28T19:07:32Z</time>
  <course>43.34</course>
  <speed>2.1654098919142304</speed>
  <fix>3d</fix>
</trkpt>
<trkpt lat="40.0725525" lon="-105.2313446">
  <ele>1589.37</ele>
  <time>2026-08-28T19:07:32Z</time>
  <course>46.9</course>
  <speed>2.08</speed>
  <fix>3d</fix>
</trkpt>
<trkpt lat="40.0725574" lon="-105.2313391">
  <ele>1589.61</ele>
  <time>2026-08-28T19:07:32Z</time>
  <course>37.78</course>
  <speed>2.25055548698538</speed>
  <fix>3d</fix>
</trkpt>
<trkpt lat="40.0725553" lon="-105.2313411">
  <ele>1589.45</ele>
  <time>2026-08-28T19:07:32Z</time>
  <course>41.09</course>
  <speed>2.16</speed>
  <fix>3d</fix>
</trkpt>
<trkpt lat="40.0725606" lon="-105.2313359">
  <ele>1589.71</ele>
  <time>2026-08-28T19:07:32Z</time>
  <course>33.95</course>
  <speed>2.3331738040703267</speed>
  <fix>3d</fix>
</trkpt>
<trkpt lat="40.0725584" lon="-105.2313378">
  <ele>1589.54</ele>
  <time>2026-08-28T19:07:32Z</time>
  <course>36.82</course>
  <speed>2.26</speed>
  <fix>3d</fix>
</trkpt>
<trkpt lat="40.0725641" lon="-105.2313328">
  <ele>1589.82</ele>
  <time>2026-08-28T19:07:32Z</time>
  <course>31.71</course>
  <speed>2.4046829312822093</speed>
  <fix>3d</fix>
</trkpt>
<trkpt lat="40.0725618" lon="-105.2313347">
  <ele>1589.64</ele>
  <time>2026-08-28T19:07:32Z</time>
  <course>34.0</course>
  <speed>2.34</speed>
  <fix>3d</fix>
</trkpt>
<trkpt lat="40.0725678" lon="-105.2313297">
  <ele>1589.94</ele>
  <time>2026-08-28T19:07:32Z</time>
  <course>30.68</course>
  <speed>2.446630335788388</speed>
  <fix>3d</fix>
</trkpt>
<trkpt lat="40.0725654" lon="-105.2313317">
  <ele>1589.75</ele>
  <time>2026-08-28T19:07:32Z</time>
  <course>32.43</course>
  <speed>2.4</speed>
  <fix>3d</fix>
</trkpt>
<trkpt lat="40.0725715" lon="-105.2313266">
  <ele>1590.06</ele>
  <time>2026-08-28T19:07:32Z</time>
  <course>30.62</course>
  <speed>2.482680003544557</speed>
  <fix>3d</fix>
</trkpt>
<trkpt lat="40.072569" lon="-105.2313286">
  <ele>1589.87</ele>
  <time>2026-08-28T19:07:32Z</time>
  <course>31.93</course>
  <speed>2.45</speed>
  <fix>3d</fix>
</trkpt>
<trkpt lat="40.0725752" lon="-105.2313235">
  <ele>1590.18</ele>
  <time>2026-08-28T19:07:32Z</time>
  <course>31.39</course>
  <speed>2.501699422392706</speed>
  <fix>3d</fix>
</trkpt>
<trkpt lat="40.0725729" lon="-105.2313255">
  <ele>1589.99</ele>
  <time>2026-08-28T19:07:32Z</time>
  <course>32.32</course>
  <speed>2.48</speed>
  <fix>3d</fix>
</trkpt>
<trkpt lat="40.0725789" lon="-105.2313202">
  <ele>1590.29</ele>
  <time>2026-08-28T19:07:32Z</time>
  <course>32.81</course>
  <speed>2.5191466809219345</speed>
  <fix>3d</fix>
</trkpt>
<trkpt lat="40.0725766" lon="-105.2313224">
  <ele>1590.1</ele>
  <time>2026-08-28T19:07:32Z</time>
  <course>33.42</course>
  <speed>2.5</speed>
  <fix>3d</fix>
</trkpt>
<trkpt lat="40.0725826" lon="-105.2313167">
  <ele>1590.4</ele>
  <time>2026-08-28T19:07:32Z</time>
  <course>34.62</course>
  <speed>2.528003164554981</speed>
  <fix>3d</fix>
</trkpt>
<trkpt lat="40.0725803" lon="-105.231319">
  <ele>1590.21</ele>
  <time>2026-08-28T19:07:32Z</time>
  <course>35.0</course>
  <speed>2.52</speed>
  <fix>3d</fix>
</trkpt>
<trkpt lat="40.0725862" lon="-105.2313131">
  <ele>1590.5</ele>
  <time>2026-08-28T19:07:32Z</time>
  <course>36.51</course>
  <speed>2.5534486483969085</speed>
  <fix>3d</fix>
</trkpt>
<trkpt lat="40.072584" lon="-105.2313155">
  <ele>1590.32</ele>
  <time>2026-08-28T19:07:32Z</time>
  <course>36.8</course>
  <speed>2.54</speed>
  <fix>3d</fix>
</trkpt>
<trkpt lat="40.0725898" lon="-105.2313094">
  <ele>1590.6</ele>
  <time>2026-08-28T19:07:32Z</time>
  <course>38.4</course>
  <speed>2.5738881094561976</speed>
  <fix>3d</fix>
</trkpt>
<trkpt lat="40.0725877" lon="-105.2313119">
  <ele>1590.41</ele>
  <time>2026-08-28T19:07:32Z</time>
  <course>38.67</course>
  <speed>2.56</speed>
  <fix>3d</fix>
</trkpt>
<trkpt lat="40.0725933" lon="-105.2313054">
  <ele>1590.7</ele>
  <time>2026-08-28T19:07:32Z</time>
  <course>40.34</course>
  <speed>2.583118270617898</speed>
  <fix>3d</fix>
</trkpt>
<trkpt lat="40.0725912" lon="-105.231308">
  <ele>1590.51</ele>
  <time>2026-08-28T19:07:32Z</time>
  <course>40.58</course>
  <speed>2.58</speed>
  <fix>3d</fix>
</trkpt>
<trkpt lat="40.0725967" lon="-105.2313013">
  <ele>1590.79</ele>
  <time>2026-08-28T19:07:32Z</time>
  <course>42.48</course>
  <speed>2.5880494585691367</speed>
  <fix>3d</fix>
</trkpt>
<trkpt lat="40.0725947" lon="-105.231304">
  <ele>1590.61</ele>
  <time>2026-08-28T19:07:32Z</time>
  <course>42.63</course>
  <speed>2.6</speed>
  <fix>3d</fix>
</trkpt>
<trkpt lat="40.0725999" lon="-105.2312969">
  <ele>1590.88</ele>
  <time>2026-08-28T19:07:32Z</time>
  <course>44.86</course>
  <speed>2.589903473104741</speed>
  <fix>3d</fix>
</trkpt>
<trkpt lat="40.0725981" lon="-105.2312997">
  <ele>1590.7</ele>
  <time>2026-08-28T19:07:32Z</time>
  <course>44.88</course>
  <speed>2.61</speed>
  <fix>3d</fix>
</trkpt>
<trkpt lat="40.0726031" lon="-105.2312924">
  <ele>1590.96</ele>
  <time>2026-08-28T19:07:32Z</time>
  <course>47.53</course>
  <speed>2.6043233286210836</speed>
  <fix>3d</fix>
</trkpt>
<trkpt lat="40.0726013" lon="-105.2312953">
  <ele>1590.78</ele>
  <time>2026-08-28T19:07:32Z</time>
  <course>47.39</course>
  <speed>2.61</speed>
  <fix>3d</fix>
</trkpt>
<trkpt lat="40.0726061" lon="-105.2312876">
  <ele>1591.03</ele>
  <time>2026-08-28T19:07:32Z</time>
  <course>50.49</course>
  <speed>2.6120490041344935</speed>
  <fix>3d</fix>
</trkpt>
<trkpt lat="40.0726045" lon="-105.2312906">
  <ele>1590.85</ele>
  <time>2026-08-28T19:07:32Z</time>
  <course>50.16</course>
  <speed>2.62</speed>
  <fix>3d</fix>
</trkpt>
<trkpt lat="40.0726089" lon="-105.2312827">
  <ele>1591.08</ele>
  <time>2026-08-28T19:07:32Z</time>
  <course>53.68</course>
  <speed>2.629315500277591</speed>
  <fix>3d</fix>
</trkpt>
<trkpt lat="40.0726074" lon="-105.2312858">
  <ele>1590.91</ele>
  <time>2026-08-28T19:07:32Z</time>
  <course>53.18</course>
  <speed>2.63</speed>
  <fix>3d</fix>
</trkpt>
<trkpt lat="40.0726115" lon="-105.2312774">
  <ele>1591.12</ele>
  <time>2026-08-28T19:07:32Z</time>
  <course>57.09</course>
  <speed>2.663400082601185</speed>
  <fix>3d</fix>
</trkpt>
<trkpt lat="40.0726102" lon="-105.2312807">
  <ele>1590.97</ele>
  <time>2026-08-28T19:07:32Z</time>
  <course>56.41</course>
  <speed>2.65</speed>
  <fix>3d</fix>
</trkpt>
<trkpt lat="40.0726139" lon="-105.2312719">
  <ele>1591.15</ele>
  <time>2026-08-28T19:07:32Z</time>
  <course>60.54</course>
  <speed>2.732654387221333</speed>
  <fix>3d</fix>
</trkpt>
<trkpt lat="40.0726127" lon="-105.2312754">
  <ele>1591.01</ele>
  <time>2026-08-28T19:07:32Z</time>
  <course>59.78</course>
  <speed>2.7</speed>
  <fix>3d</fix>
</trkpt>
<trkpt lat="40.0726162" lon="-105.231266">
  <ele>1591.16</ele>
  <time>2026-08-28T19:07:32Z</time>
  <course>63.79</course>
  <speed>2.8734648075102642</speed>
  <fix>3d</fix>
</trkpt>
<trkpt lat="40.072615" lon="-105.2312697">
  <ele>1591.03</ele>
  <time>2026-08-28T19:07:32Z</time>
  <course>63.09</course>
  <speed>2.79</speed>
  <fix>3d</fix>
</trkpt>
<trkpt lat="40.0726183" lon="-105.2312596">
  <ele>1591.16</ele>
  <time>2026-08-28T19:07:32Z</time>
  <course>66.46</course>
  <speed>3.078830946966722</speed>
  <fix>3d</fix>
</trkpt>
<trkpt lat="40.0726172" lon="-105.2312637">
  <ele>1591.04</ele>
  <time>2026-08-28T19:07:32Z</time>
  <course>66.05</course>
  <speed>2.94</speed>
  <fix>3d</fix>
</trkpt>
<trkpt lat="40.0726204" lon="-105.2312525">
  <ele>1591.15</ele>
  <time>2026-08-28T19:07:32Z</time>
  <course>68.25</course>
  <speed>3.3439647127324776</speed>
  <fix>3d</fix>
</trkpt>
<trkpt lat="40.0726193" lon="-105.2312571">
  <ele>1591.04</ele>
  <time>2026-08-28T19:07:32Z</time>
  <course>68.29</course>
  <speed>3.16</speed>
  <fix>3d</fix>
</trkpt>
<trkpt lat="40.0726226" lon="-105.2312448">
  <ele>1591.14</ele>
  <time>2026-08-28T19:07:32Z</time>
  <course>69.07</course>
  <speed>3.6499315062066575</speed>
  <fix>3d</fix>
</trkpt>
<trkpt lat="40.0726214" lon="-105.2312499">
  <ele>1591.03</ele>
  <time>2026-08-28T19:07:32Z</time>
  <course>69.6</course>
  <speed>3.44</speed>
  <fix>3d</fix>
</trkpt>
<trkpt lat="40.072625" lon="-105.2312364">
  <ele>1591.13</ele>
  <time>2026-08-28T19:07:32Z</time>
  <course>69.1</course>
  <speed>3.9506075482133127</speed>
  <fix>3d</fix>
</trkpt>
<trkpt lat="40.0726237" lon="-105.2312419">
  <ele>1591.02</ele>
  <time>2026-08-28T19:07:32Z</time>
  <course>70.03</course>
  <speed>3.74</speed>
  <fix>3d</fix>
</trkpt>
<trkpt lat="40.0726275" lon="-105.2312275">
  <ele>1591.12</ele>
  <time>2026-08-28T19:07:32Z</time>
  <course>68.56</course>
  <speed>4.224038352098617</speed>
  <fix>3d</fix>
</trkpt>
<trkpt lat="40.0726261" lon="-105.2312333">
  <ele>1591.01</ele>
  <time>2026-08-28T19:07:32Z</time>
  <course>69.77</course>
  <speed>4.04</speed>
  <fix>3d</fix>
</trkpt>
<trkpt lat="40.0726304" lon="-105.2312179">
  <ele>1591.12</ele>
  <time>2026-08-28T19:07:32Z</time>
  <course>67.68</course>
  <speed>4.464302857109943</speed>
  <fix>3d</fix>
</trkpt>
<trkpt lat="40.0726287" lon="-105.2312241">
  <ele>1591.0</ele>
  <time>2026-08-28T19:07:32Z</time>
  <course>69.08</course>
  <speed>4.31</speed>
  <fix>3d</fix>
</trkpt>
<trkpt lat="40.0726335" lon="-105.2312079">
  <ele>1591.13</ele>
  <time>2026-08-28T19:07:32Z</time>
  <course>66.67</course>
  <speed>4.677798627559763</speed>
  <fix>3d</fix>
</trkpt>
<trkpt lat="40.0726317" lon="-105.2312144">
  <ele>1591.0</ele>
  <time>2026-08-28T19:07:32Z</time>
  <course>68.18</course>
  <speed>4.55</speed>
  <fix>3d</fix>
</trkpt>
<trkpt lat="40.0726368" lon="-105.2311976">
  <ele>1591.13</ele>
  <time>2026-08-28T19:07:32Z</time>
  <course>65.74</course>
  <speed>4.842581955940447</speed>
  <fix>3d</fix>
</trkpt>
<trkpt lat="40.0726348" lon="-105.2312043">
  <ele>1591.0</ele>
  <time>2026-08-28T19:07:32Z</time>
  <course>67.23</course>
  <speed>4.75</speed>
  <fix>3d</fix>
</trkpt>
<trkpt lat="40.0726404" lon="-105.231187">
  <ele>1591.14</ele>
  <time>2026-08-28T19:07:32Z</time>
  <course>65.03</course>
  <speed>4.9559055681076085</speed>
  <fix>3d</fix>
</trkpt>
<trkpt lat="40.0726383" lon="-105.2311938">
  <ele>1591.01</ele>
  <time>2026-08-28T19:07:32Z</time>
  <course>66.36</course>
  <speed>4.9</speed>
  <fix>3d</fix>
</trkpt>
<trkpt lat="40.0726441" lon="-105.2311763">
  <ele>1591.15</ele>
  <time>2026-08-28T19:07:32Z</time>
  <course>64.54</course>
  <speed>5.011985634456667</speed>
  <fix>3d</fix>
</trkpt>
<trkpt lat="40.0726419" lon="-105.2311832">
  <ele>1591.02</ele>
  <time>2026-08-28T19:07:32Z</time>
  <course>65.65</course>
  <speed>5.0</speed>
  <fix>3d</fix>
</trkpt>
<trkpt lat="40.0726479" lon="-105.2311656">
  <ele>1591.17</ele>
  <time>2026-08-28T19:07:32Z</time>
  <course>64.31</course>
  <speed>5.028717530345088</speed>
  <fix>3d</fix>
</trkpt>
<trkpt lat="40.0726456" lon="-105.2311724">
  <ele>1591.04</ele>
  <time>2026-08-28T19:07:32Z</time>
  <course>65.12</course>
  <speed>5.05</speed>
  <fix>3d</fix>
</trkpt>
<trkpt lat="40.0726518" lon="-105.2311549">
  <ele>1591.18</ele>
  <time>2026-08-28T19:07:32Z</time>
  <course>64.27</course>
  <speed>4.9924743364387965</speed>
  <fix>3d</fix>
</trkpt>
<trkpt lat="40.0726495" lon="-105.2311617">
  <ele>1591.06</ele>
  <time>2026-08-28T19:07:32Z</time>
  <course>64.78</course>
  <speed>5.05</speed>
  <fix>3d</fix>
</trkpt>
<trkpt lat="40.0726556" lon="-105.2311443">
  <ele>1591.19</ele>
  <time>2026-08-28T19:07:32Z</time>
  <course>64.4</course>
  <speed>4.920619879649311</speed>
  <fix>3d</fix>
</trkpt>
<trkpt lat="40.0726534" lon="-105.231151">
  <ele>1591.07</ele>
  <time>2026-08-28T19:07:32Z</time>
  <course>64.6</course>
  <speed>5.01</speed>
  <fix>3d</fix>
</trkpt>
<trkpt lat="40.0726594" lon="-105.2311339">
  <ele>1591.2</ele>
  <time>2026-08-28T19:07:32Z</time>
  <course>64.62</course>
  <speed>4.836000413564912</speed>
  <fix>3d</fix>
</trkpt>
<trkpt lat="40.0726572" lon="-105.2311404">
  <ele>1591.09</ele>
  <time>2026-08-28T19:07:32Z</time>
  <course>64.58</course>
  <speed>4.94</speed>
  <fix>3d</fix>
</trkpt>
<trkpt lat="40.0726631" lon="-105.2311236">
  <ele>1591.21</ele>
  <time>2026-08-28T19:07:32Z</time>
  <course>64.89</course>
  <speed>4.751431363284121</speed>
  <fix>3d</fix>
</trkpt>
<trkpt lat="40.072661" lon="-105.23113">
  <ele>1591.1</ele>
  <time>2026-08-28T19:07:32Z</time>
  <course>64.7</course>
  <speed>4.85</speed>
  <fix>3d</fix>
</trkpt>
<trkpt lat="40.0726667" lon="-105.2311135">
  <ele>1591.21</ele>
  <time>2026-08-28T19:07:32Z</time>
  <course>65.2</course>
  <speed>4.685093382207018</speed>
  <fix>3d</fix>
</trkpt>
<trkpt lat="40.0726647" lon="-105.2311198">
  <ele>1591.11</ele>
  <time>2026-08-28T19:07:32Z</time>
  <course>64.96</course>
  <speed>4.77</speed>
  <fix>3d</fix>
</trkpt>
<trkpt lat="40.0726703" lon="-105.2311034">
  <ele>1591.21</ele>
  <time>2026-08-28T19:07:32Z</time>
  <course>65.51</course>
  <speed>4.646245796339233</speed>
  <fix>3d</fix>
</trkpt>
<trkpt lat="40.0726682" lon="-105.2311097">
  <ele>1591.1</ele>
  <time>2026-08-28T19:07:32Z</time>
  <course>65.32</course>
  <speed>4.71</speed>
  <fix>3d</fix>
</trkpt>
<trkpt lat="40.0726737" lon="-105.2310934">
  <ele>1591.2</ele>
  <time>2026-08-28T19:07:32Z</time>
  <course>65.82</course>
  <speed>4.624910809950825</speed>
  <fix>3d</fix>
</trkpt>
<trkpt lat="40.0726717" lon="-105.2310996">
  <ele>1591.09</ele>
  <time>2026-08-28T19:07:32Z</time>
  <course>65.7</course>
  <speed>4.67</speed>
  <fix>3d</fix>
</trkpt>
<trkpt lat="40.0726771" lon="-105.2310834">
  <ele>1591.18</ele>
  <time>2026-08-28T19:07:32Z</time>
  <course>66.07</course>
  <speed>4.622034184209372</speed>
  <fix>3d</fix>
</trkpt>
<trkpt lat="40.0726752" lon="-105.2310896">
  <ele>1591.08</ele>
  <time>2026-08-28T19:07:32Z</time>
  <course>66.06</course>
  <speed>4.66</speed>
  <fix>3d</fix>
</trkpt>
<trkpt lat="40.0726805" lon="-105.2310734">
  <ele>1591.17</ele>
  <time>2026-08-28T19:07:32Z</time>
  <course>66.26</course>
  <speed>4.636431817680489</speed>
  <fix>3d</fix>
</trkpt>
<trkpt lat="40.0726785" lon="-105.2310796">
  <ele>1591.07</ele>
  <time>2026-08-28T19:07:32Z</time>
  <course>66.37</course>
  <speed>4.66</speed>
  <fix>3d</fix>
</trkpt>
<trkpt lat="40.0726838" lon="-105.2310633">
  <ele>1591.15</ele>
  <time>2026-08-28T19:07:32Z</time>
  <course>66.43</course>
  <speed>4.660096565523079</speed>
  <fix>3d</fix>
</trkpt>
<trkpt lat="40.0726819" lon="-105.2310696">
  <ele>1591.06</ele>
  <time>2026-08-28T19:07:32Z</time>
  <course>66.61</course>
  <speed>4.67</speed>
  <fix>3d</fix>
</trkpt>
<trkpt lat="40.0726871" lon="-105.2310532">
  <ele>1591.14</ele>
  <time>2026-08-28T19:07:32Z</time>
  <course>66.48</course>
  <speed>4.691620189231008</speed>
  <fix>3d</fix>
</trkpt>
<trkpt lat="40.0726852" lon="-105.2310594">
  <ele>1591.05</ele>
  <time>2026-08-28T19:07:32Z</time>
  <course>66.78</course>
  <speed>4.69</speed>
  <fix>3d</fix>
</trkpt>
<trkpt lat="40.0726904" lon="-105.231043">
  <ele>1591.13</ele>
  <time>2026-08-28T19:07:32Z</time>
  <course>66.51</course>
  <speed>4.732356706758273</speed>
  <fix>3d</fix>
</trkpt>
<trkpt lat="40.0726886" lon="-105.2310493">
  <ele>1591.04</ele>
  <time>2026-08-28T19:07:32Z</time>
  <course>66.91</course>
  <speed>4.73</speed>
  <fix>3d</fix>
</trkpt>
<trkpt lat="40.0726938" lon="-105.2310327">
  <ele>1591.13</ele>
  <time>2026-08-28T19:07:32Z</time>
  <course>66.53</course>
  <speed>4.773101716913228</speed>
  <fix>3d</fix>
</trkpt>
<trkpt lat="40.0726919" lon="-105.231039">
  <ele>1591.04</ele>
  <time>2026-08-28T19:07:32Z</time>
  <course>66.98</course>
  <speed>4.77</speed>
  <fix>3d</fix>
</trkpt>
<trkpt lat="40.0726972" lon="-105.2310223">
  <ele>1591.13</ele>
  <time>2026-08-28T19:07:32Z</time>
  <course>66.52</course>
  <speed>4.813855004048211</speed>
  <fix>3d</fix>
</trkpt>
<trkpt lat="40.0726953" lon="-105.2310287">
  <ele>1591.05</ele>
  <time>2026-08-28T19:07:32Z</time>
  <course>67.01</course>
  <speed>4.81</speed>
  <fix>3d</fix>
</trkpt>
<trkpt lat="40.0727006" lon="-105.2310118">
  <ele>1591.13</ele>
  <time>2026-08-28T19:07:32Z</time>
  <course>66.51</course>
  <speed>4.8584771276604775</speed>
  <fix>3d</fix>
</trkpt>
<trkpt lat="40.0726986" lon="-105.2310182">
  <ele>1591.05</ele>
  <time>2026-08-28T19:07:32Z</time>
  <course>67.01</course>
  <speed>4.85</speed>
  <fix>3d</fix>
</trkpt>
<trkpt lat="40.0727041" lon="-105.2310011">
  <ele>1591.13</ele>
  <time>2026-08-28T19:07:32Z</time>
  <course>66.48</course>
  <speed>4.90310105953365</speed>
  <fix>3d</fix>
</trkpt>
<trkpt lat="40.0727021" lon="-105.2310076">
  <ele>1591.06</ele>
  <time>2026-08-28T19:07:32Z</time>
  <course>66.98</course>
  <speed>4.89</speed>
  <fix>3d</fix>
</trkpt>
<trkpt lat="40.0727075" lon="-105.2309904">
  <ele>1591.14</ele>
  <time>2026-08-28T19:07:32Z</time>
  <course>66.47</course>
  <speed>4.9385119216217355</speed>
  <fix>3d</fix>
</trkpt>
<trkpt lat="40.0727055" lon="-105.230997">
  <ele>1591.06</ele>
  <time>2026-08-28T19:07:32Z</time>
  <course>66.94</course>
  <speed>4.93</speed>
  <fix>3d</fix>
</trkpt>
<trkpt lat="40.072711" lon="-105.2309797">
  <ele>1591.14</ele>
  <time>2026-08-28T19:07:32Z</time>
  <course>66.45</course>
  <speed>4.973932046178355</speed>
  <fix>3d</fix>
</trkpt>
<trkpt lat="40.072709" lon="-105.2309863">
  <ele>1591.07</ele>
  <time>2026-08-28T19:07:32Z</time>
  <course>66.89</course>
  <speed>4.97</speed>
  <fix>3d</fix>
</trkpt>
<trkpt lat="40.0727146" lon="-105.2309688">
  <ele>1591.14</ele>
  <time>2026-08-28T19:07:32Z</time>
  <course>66.4</course>
  <speed>4.9962485926943225</speed>
  <fix>3d</fix>
</trkpt>
<trkpt lat="40.0727125" lon="-105.2309755">
  <ele>1591.08</ele>
  <time>2026-08-28T19:07:32Z</time>
  <course>66.84</course>
  <speed>5.0</speed>
  <fix>3d</fix>
</trkpt>
<trkpt lat="40.0727182" lon="-105.2309579">
  <ele>1591.15</ele>
  <time>2026-08-28T19:07:32Z</time>
  <course>66.38</course>
  <speed>5.022479467354745</speed>
  <fix>3d</fix>
</trkpt>
<trkpt lat="40.0727161" lon="-105.2309647">
  <ele>1591.09</ele>
  <time>2026-08-28T19:07:32Z</time>
  <course>66.79</course>
  <speed>5.03</speed>
  <fix>3d</fix>
</trkpt>
<trkpt lat="40.0727217" lon="-105.230947">
  <ele>1591.16</ele>
  <time>2026-08-28T19:07:32Z</time>
  <course>66.38</course>
  <speed>5.044799302251776</speed>
  <fix>3d</fix>
</trkpt>
<trkpt lat="40.0727197" lon="-105.2309538">
  <ele>1591.1</ele>
  <time>2026-08-28T19:07:32Z</time>
  <course>66.74</course>
  <speed>5.05</speed>
  <fix>3d</fix>
</trkpt>
<trkpt lat="40.0727254" lon="-105.2309361">
  <ele>1591.16</ele>
  <time>2026-08-28T19:07:32Z</time>
  <course>66.36</course>
  <speed>5.057924475513647</speed>
  <fix>3d</fix>
</trkpt>
<trkpt lat="40.0727233" lon="-105.2309429">
  <ele>1591.1</ele>
  <time>2026-08-28T19:07:32Z</time>
  <course>66.69</course>
  <speed>5.06</speed>
  <fix>3d</fix>
</trkpt>
<trkpt lat="40.072729" lon="-105.2309251">
  <ele>1591.17</ele>
  <time>2026-08-28T19:07:32Z</time>
  <course>66.36</course>
  <speed>5.057924475513647</speed>
  <fix>3d</fix>
</trkpt>
<trkpt lat="40.0727269" lon="-105.230932">
  <ele>1591.11</ele>
  <time>2026-08-28T19:07:32Z</time>
  <course>66.64</course>
  <speed>5.08</speed>
  <fix>3d</fix>
</trkpt>
<trkpt lat="40.0727326" lon="-105.2309142">
  <ele>1591.18</ele>
  <time>2026-08-28T19:07:32Z</time>
  <course>66.37</course>
  <speed>5.071055117034324</speed>
  <fix>3d</fix>
</trkpt>
<trkpt lat="40.0727305" lon="-105.230921">
  <ele>1591.12</ele>
  <time>2026-08-28T19:07:32Z</time>
  <course>66.6</course>
  <speed>5.08</speed>
  <fix>3d</fix>
</trkpt>
<trkpt lat="40.0727362" lon="-105.2309032">
  <ele>1591.19</ele>
  <time>2026-08-28T19:07:32Z</time>
  <course>66.41</course>
  <speed>5.071055117034324</speed>
  <fix>3d</fix>
</trkpt>
<trkpt lat="40.0727341" lon="-105.23091">
  <ele>1591.12</ele>
  <time>2026-08-28T19:07:32Z</time>
  <course>66.58</course>
  <speed>5.08</speed>
  <fix>3d</fix>
</trkpt>
<trkpt lat="40.0727399" lon="-105.2308922">
  <ele>1591.18</ele>
  <time>2026-08-28T19:07:32Z</time>
  <course>66.42</course>
  <speed>5.061867244406949</speed>
  <fix>3d</fix>
</trkpt>
<trkpt lat="40.0727378" lon="-105.2308991">
  <ele>1591.13</ele>
  <time>2026-08-28T19:07:32Z</time>
  <course>66.57</course>
  <speed>5.08</speed>
  <fix>3d</fix>
</trkpt>
<trkpt lat="40.0727435" lon="-105.2308813">
  <ele>1591.18</ele>
  <time>2026-08-28T19:07:32Z</time>
  <course>66.43</course>
  <speed>5.048732514205917</speed>
  <fix>3d</fix>
</trkpt>
<trkpt lat="40.0727414" lon="-105.2308882">
  <ele>1591.13</ele>
  <time>2026-08-28T19:07:32Z</time>
  <course>66.57</course>
  <speed>5.08</speed>
  <fix>3d</fix>
</trkpt>
<trkpt lat="40.0727471" lon="-105.2308704">
  <ele>1591.18</ele>
  <time>2026-08-28T19:07:32Z</time>
  <course>66.44</course>
  <speed>5.048732514205917</speed>
  <fix>3d</fix>
</trkpt>
<trkpt lat="40.072745" lon="-105.2308772">
  <ele>1591.13</ele>
  <time>2026-08-28T19:07:32Z</time>
  <course>66.56</course>
  <speed>5.07</speed>
  <fix>3d</fix>
</trkpt>
<trkpt lat="40.0727507" lon="-105.2308595">
  <ele>1591.19</ele>
  <time>2026-08-28T19:07:32Z</time>
  <course>66.45</course>
  <speed>5.030357840154117</speed>
  <fix>3d</fix>
</trkpt>
<trkpt lat="40.0727487" lon="-105.2308663">
  <ele>1591.12</ele>
  <time>2026-08-28T19:07:32Z</time>
  <course>66.56</course>
  <speed>5.06</speed>
  <fix>3d</fix>
</trkpt>
<trkpt lat="40.0727543" lon="-105.2308487">
  <ele>1591.19</ele>
  <time>2026-08-28T19:07:32Z</time>
  <course>66.46</course>
  <speed>5.0172203459684726</speed>
  <fix>3d</fix>
</trkpt>
<trkpt lat="40.0727523" lon="-105.2308554">
  <ele>1591.12</ele>
  <time>2026-08-28T19:07:32Z</time>
  <course>66.55</course>
  <speed>5.05</speed>
  <fix>3d</fix>
</trkpt>
<trkpt lat="40.0727579" lon="-105.2308378">
  <ele>1591.18</ele>
  <time>2026-08-28T19:07:32Z</time>
  <course>66.47</course>
  <speed>5.0080335462135235</speed>
  <fix>3d</fix>
</trkpt>
<trkpt lat="40.0727559" lon="-105.2308445">
  <ele>1591.12</ele>
  <time>2026-08-28T19:07:32Z</time>
  <course>66.55</course>
  <speed>5.04</speed>
  <fix>3d</fix>
</trkpt>
<trkpt lat="40.0727615" lon="-105.230827">
  <ele>1591.18</ele>
  <time>2026-08-28T19:07:32Z</time>
  <course>66.47</course>
  <speed>4.9948973963435925</speed>
  <fix>3d</fix>
</trkpt>
<trkpt lat="40.0727594" lon="-105.2308337">
  <ele>1591.12</ele>
  <time>2026-08-28T19:07:32Z</time>
  <course>66.55</course>
  <speed>5.02</speed>
  <fix>3d</fix>
</trkpt>
<trkpt lat="40.0727651" lon="-105.2308163">
  <ele>1591.18</ele>
  <time>2026-08-28T19:07:32Z</time>
  <course>66.45</course>
  <speed>4.9857095783850065</speed>
  <fix>3d</fix>
</trkpt>
<trkpt lat="40.072763" lon="-105.2308228">
  <ele>1591.12</ele>
  <time>2026-08-28T19:07:32Z</time>
  <course>66.54</course>
  <speed>5.01</speed>
  <fix>3d</fix>
</trkpt>
<trkpt lat="40.0727687" lon="-105.2308055">
  <ele>1591.18</ele>
  <time>2026-08-28T19:07:32Z</time>
  <course>66.45</course>
  <speed>4.976524891930111</speed>
  <fix>3d</fix>
</trkpt>
<trkpt lat="40.0727666" lon="-105.2308121">
  <ele>1591.11</ele>
  <time>2026-08-28T19:07:32Z</time>
  <course>66.54</course>
  <speed>5.0</speed>
  <fix>3d</fix>
</trkpt>
<trkpt lat="40.0727722" lon="-105.2307948">
  <ele>1591.19</ele>
  <time>2026-08-28T19:07:32Z</time>
  <course>66.45</course>
  <speed>4.963385941068859</speed>
  <fix>3d</fix>
</trkpt>
<trkpt lat="40.0727702" lon="-105.2308013">
  <ele>1591.11</ele>
  <time>2026-08-28T19:07:32Z</time>
  <course>66.53</course>
  <speed>4.99</speed>
  <fix>3d</fix>
</trkpt>
<trkpt lat="40.0727758" lon="-105.230784">
  <ele>1591.19</ele>
  <time>2026-08-28T19:07:32Z</time>
  <course>66.46</course>
  <speed>4.963385941068859</speed>
  <fix>3d</fix>
</trkpt>
<trkpt lat="40.0727738" lon="-105.2307906">
  <ele>1591.11</ele>
  <time>2026-08-28T19:07:32Z</time>
  <course>66.52</course>
  <speed>4.98</speed>
  <fix>3d</fix>
</trkpt>
<trkpt lat="40.0727794" lon="-105.2307732">
  <ele>1591.19</ele>
  <time>2026-08-28T19:07:32Z</time>
  <course>66.44</course>
  <speed>4.9542002381817385</speed>
  <fix>3d</fix>
</trkpt>
<trkpt lat="40.0727774" lon="-105.2307798">
  <ele>1591.11</ele>
  <time>2026-08-28T19:07:32Z</time>
  <course>66.5</course>
  <speed>4.98</speed>
  <fix>3d</fix>
</trkpt>
<trkpt lat="40.0727829" lon="-105.2307626">
  <ele>1591.18</ele>
  <time>2026-08-28T19:07:32Z</time>
  <course>66.43</course>
  <speed>4.945017694609393</speed>
  <fix>3d</fix>
</trkpt>
<trkpt lat="40.072781" lon="-105.2307691">
  <ele>1591.1</ele>
  <time>2026-08-28T19:07:32Z</time>
  <course>66.48</course>
  <speed>4.97</speed>
  <fix>3d</fix>
</trkpt>
<trkpt lat="40.0727865" lon="-105.2307519">
  <ele>1591.18</ele>
  <time>2026-08-28T19:07:32Z</time>
  <course>66.39</course>
  <speed>4.945017694609393</speed>
  <fix>3d</fix>
</trkpt>
<trkpt lat="40.0727845" lon="-105.2307584">
  <ele>1591.1</ele>
  <time>2026-08-28T19:07:32Z</time>
  <course>66.47</course>
  <speed>4.96</speed>
  <fix>3d</fix>
</trkpt>
<trkpt lat="40.0727901" lon="-105.2307411">
  <ele>1591.17</ele>
  <time>2026-08-28T19:07:32Z</time>
  <course>66.36</course>
  <speed>4.945017694609393</speed>
  <fix>3d</fix>
</trkpt>
<trkpt lat="40.072788" lon="-105.2307477">
  <ele>1591.09</ele>
  <time>2026-08-28T19:07:32Z</time>
  <course>66.46</course>
  <speed>4.96</speed>
  <fix>3d</fix>
</trkpt>
<trkpt lat="40.0727937" lon="-105.2307304">
  <ele>1591.16</ele>
  <time>2026-08-28T19:07:32Z</time>
  <course>66.35</course>
  <speed>4.935838327984416</speed>
  <fix>3d</fix>
</trkpt>
<trkpt lat="40.0727916" lon="-105.230737">
  <ele>1591.09</ele>
  <time>2026-08-28T19:07:32Z</time>
  <course>66.45</course>
  <speed>4.95</speed>
  <fix>3d</fix>
</trkpt>
<trkpt lat="40.0727972" lon="-105.2307198">
  <ele>1591.16</ele>
  <time>2026-08-28T19:07:32Z</time>
  <course>66.33</course>
  <speed>4.935838327984416</speed>
  <fix>3d</fix>
</trkpt>
<trkpt lat="40.0727952" lon="-105.2307264">
  <ele>1591.09</ele>
  <time>2026-08-28T19:07:32Z</time>
  <course>66.44</course>
  <speed>4.95</speed>
  <fix>3d</fix>
</trkpt>
<trkpt lat="40.0728008" lon="-105.2307091">
  <ele>1591.16</ele>
  <time>2026-08-28T19:07:32Z</time>
  <course>66.32</course>
  <speed>4.935838327984416</speed>
  <fix>3d</fix>
</trkpt>
<trkpt lat="40.0727987" lon="-105.2307157">
  <ele>1591.09</ele>
  <time>2026-08-28T19:07:32Z</time>
  <course>66.43</course>
  <speed>4.95</speed>
  <fix>3d</fix>
</trkpt>
<trkpt lat="40.0728043" lon="-105.2306985">
  <ele>1591.16</ele>
  <time>2026-08-28T19:07:32Z</time>
  <course>66.32</course>
  <speed>4.935838327984416</speed>
  <fix>3d</fix>
</trkpt>
<trkpt lat="40.0728023" lon="-105.2307051">
  <ele>1591.09</ele>
  <time>2026-08-28T19:07:32Z</time>
  <course>66.42</course>
  <speed>4.95</speed>
  <fix>3d</fix>
</trkpt>
<trkpt lat="40.0728079" lon="-105.2306878">
  <ele>1591.15</ele>
  <time>2026-08-28T19:07:32Z</time>
  <course>66.31</course>
  <speed>4.935838327984416</speed>
  <fix>3d</fix>
</trkpt>
<trkpt lat="40.0728059" lon="-105.2306944">
  <ele>1591.09</ele>
  <time>2026-08-28T19:07:32Z</time>
  <course>66.42</course>
  <speed>4.95</speed>
  <fix>3d</fix>
</trkpt>
<trkpt lat="40.0728114" lon="-105.2306772">
  <ele>1591.16</ele>
  <time>2026-08-28T19:07:32Z</time>
  <course>66.25</course>
  <speed>4.935838327984416</speed>
  <fix>3d</fix>
</trkpt>
<trkpt lat="40.0728094" lon="-105.2306837">
  <ele>1591.09</ele>
  <time>2026-08-28T19:07:32Z</time>
  <course>66.42</course>
  <speed>4.95</speed>
  <fix>3d</fix>
</trkpt>
<trkpt lat="40.072815" lon="-105.2306665">
  <ele>1591.16</ele>
  <time>2026-08-28T19:07:32Z</time>
  <course>66.27</course>
  <speed>4.904334817281544</speed>
  <fix>3d</fix>
</trkpt>
<trkpt lat="40.0728129" lon="-105.230673">
  <ele>1591.1</ele>
  <time>2026-08-28T19:07:32Z</time>
  <course>66.4</course>
  <speed>4.94</speed>
  <fix>3d</fix>
</trkpt>
<trkpt lat="40.0728186" lon="-105.2306559">
  <ele>1591.18</ele>
  <time>2026-08-28T19:07:32Z</time>
  <course>66.34</course>
  <speed>4.832163076718334</speed>
  <fix>3d</fix>
</trkpt>
<trkpt lat="40.0728165" lon="-105.2306624">
  <ele>1591.1</ele>
  <time>2026-08-28T19:07:32Z</time>
  <course>66.35</course>
  <speed>4.9</speed>
  <fix>3d</fix>
</trkpt>
<trkpt lat="40.072822" lon="-105.2306456">
  <ele>1591.2</ele>
  <time>2026-08-28T19:07:32Z</time>
  <course>66.48</course>
  <speed>4.693016087762752</speed>
  <fix>3d</fix>
</trkpt>
<trkpt lat="40.07282" lon="-105.230652">
  <ele>1591.11</ele>
  <time>2026-08-28T19:07:32Z</time>
  <course>66.27</course>
  <speed>4.81</speed>
  <fix>3d</fix>
</trkpt>
<trkpt lat="40.0728254" lon="-105.2306357">
  <ele>1591.21</ele>
  <time>2026-08-28T19:07:32Z</time>
  <course>66.68</course>
  <speed>4.505208097302499</speed>
  <fix>3d</fix>
</trkpt>
<trkpt lat="40.0728235" lon="-105.2306418">
  <ele>1591.13</ele>
  <time>2026-08-28T19:07:32Z</time>
  <course>66.2</course>
  <speed>4.66</speed>
  <fix>3d</fix>
</trkpt>
<trkpt lat="40.0728286" lon="-105.2306262">
  <ele>1591.23</ele>
  <time>2026-08-28T19:07:32Z</time>
  <course>66.91</course>
  <speed>4.258415198169384</speed>
  <fix>3d</fix>
</trkpt>
<trkpt lat="40.0728268" lon="-105.230632">
  <ele>1591.14</ele>
  <time>2026-08-28T19:07:32Z</time>
  <course>66.19</course>
  <speed>4.45</speed>
  <fix>3d</fix>
</trkpt>
<trkpt lat="40.0728316" lon="-105.2306173">
  <ele>1591.24</ele>
  <time>2026-08-28T19:07:32Z</time>
  <course>67.2</course>
  <speed>3.9681229819651507</speed>
  <fix>3d</fix>
</trkpt>
<trkpt lat="40.0728299" lon="-105.2306227">
  <ele>1591.15</ele>
  <time>2026-08-28T19:07:32Z</time>
  <course>66.25</course>
  <speed>4.2</speed>
  <fix>3d</fix>
</trkpt>
<trkpt lat="40.0728343" lon="-105.230609">
  <ele>1591.25</ele>
  <time>2026-08-28T19:07:32Z</time>
  <course>67.5</course>
  <speed>3.6371967227522903</speed>
  <fix>3d</fix>
</trkpt>
<trkpt lat="40.0728328" lon="-105.230614">
  <ele>1591.16</ele>
  <time>2026-08-28T19:07:32Z</time>
  <course>66.39</course>
  <speed>3.9</speed>
  <fix>3d</fix>
</trkpt>
<trkpt lat="40.0728368" lon="-105.2306015">
  <ele>1591.25</ele>
  <time>2026-08-28T19:07:32Z</time>
  <course>67.8</course>
  <speed>3.26165602110339</speed>
  <fix>3d</fix>
</trkpt>
<trkpt lat="40.0728355" lon="-105.230606">
  <ele>1591.17</ele>
  <time>2026-08-28T19:07:32Z</time>
  <course>66.59</course>
  <speed>3.55</speed>
  <fix>3d</fix>
</trkpt>
<trkpt lat="40.072839" lon="-105.2305949">
  <ele>1591.24</ele>
  <time>2026-08-28T19:07:32Z</time>
  <course>68.11</course>
  <speed>2.8323311953230332</speed>
  <fix>3d</fix>
</trkpt>
<trkpt lat="40.0728378" lon="-105.2305987">
  <ele>1591.17</ele>
  <time>2026-08-28T19:07:32Z</time>
  <course>66.85</course>
  <speed>3.16</speed>
  <fix>3d</fix>
</trkpt>
<trkpt lat="40.0728409" lon="-105.2305891">
  <ele>1591.23</ele>
  <time>2026-08-28T19:07:32Z</time>
  <course>68.44</course>
  <speed>2.3807771840304586</speed>
  <fix>3d</fix>
</trkpt>
<trkpt lat="40.0728399" lon="-105.2305923">
  <ele>1591.16</ele>
  <time>2026-08-28T19:07:32Z</time>
  <course>67.17</course>
  <speed>2.72</speed>
  <fix>3d</fix>
</trkpt>
<trkpt lat="40.0728424" lon="-105.2305844">
  <ele>1591.21</ele>
  <time>2026-08-28T19:07:32Z</time>
  <course>68.77</course>
  <speed>1.897814532561072</speed>
  <fix>3d</fix>
</trkpt>
<trkpt lat="40.0728417" lon="-105.2305869">
  <ele>1591.15</ele>
  <time>2026-08-28T19:07:32Z</time>
  <course>67.58</course>
  <speed>2.26</speed>
  <fix>3d</fix>
</trkpt>
<trkpt lat="40.0728435" lon="-105.2305807">
  <ele>1591.2</ele>
  <time>2026-08-28T19:07:32Z</time>
  <course>69.25</course>
  <speed>1.4280406156688963</speed>
  <fix>3d</fix>
</trkpt>
<trkpt lat="40.0728431" lon="-105.2305825">
  <ele>1591.13</ele>
  <time>2026-08-28T19:07:32Z</time>
  <course>68.21</course>
  <speed>1.77</speed>
  <fix>3d</fix>
</trkpt>
<trkpt lat="40.0728443" lon="-105.2305779">
  <ele>1591.18</ele>
  <time>2026-08-28T19:07:32Z</time>
  <course>70.12</course>
  <speed>0.9868130522039117</speed>
  <fix>3d</fix>
</trkpt>
<trkpt lat="40.0728441" lon="-105.2305792">
  <ele>1591.12</ele>
  <time>2026-08-28T19:07:32Z</time>
  <course>69.31</course>
  <speed>1.3</speed>
  <fix>3d</fix>
</trkpt>
<trkpt lat="40.0728448" lon="-105.2305761">
  <ele>1591.16</ele>
  <time>2026-08-28T19:07:32Z</time>
  <course>71.04</course>
  <speed>0.611310068623117</speed>
  <fix>3d</fix>
</trkpt>
<trkpt lat="40.0728447" lon="-105.2305768">
  <ele>1591.1</ele>
  <time>2026-08-28T19:07:32Z</time>
  <course>71.7</course>
  <speed>0.87</speed>
  <fix>3d</fix>
</trkpt>
<trkpt lat="40.072845" lon="-105.2305749">
  <ele>1591.14</ele>
  <time>2026-08-28T19:07:32Z</time>
  <course>70.51</course>
  <speed>0.31144823004794875</speed>
  <fix>3d</fix>
</trkpt>
<trkpt lat="40.072845" lon="-105.2305752">
  <ele>1591.08</ele>
  <time>2026-08-28T19:07:32Z</time>
  <course>77.5</course>
  <speed>0.51</speed>
  <fix>3d</fix>
</trkpt>
<trkpt lat="40.072845" lon="-105.2305744">
  <ele>1591.13</ele>
  <time>2026-08-28T19:07:32Z</time>
  <course>70.33</course>
  <speed>0.10816653826391968</speed>
  <fix>3d</fix>
</trkpt>
<trkpt lat="40.0728451" lon="-105.2305744">
  <ele>1591.06</ele>
  <time>2026-08-28T19:07:32Z</time>
  <course>94.08</course>
  <speed>0.23</speed>
  <fix>3d</fix>
</trkpt>
<trkpt lat="40.0728448" lon="-105.2305743">
  <ele>1591.12</ele>
  <time>2026-08-28T19:07:32Z</time>
  <course>70.22</course>
  <speed>0.147648230602334</speed>
  <fix>3d</fix>
</trkpt>
<trkpt lat="40.0728451" lon="-105.2305741">
  <ele>1591.05</ele>
  <time>2026-08-28T19:07:32Z</time>
  <course>167.62</course>
  <speed>0.1</speed>
  <fix>3d</fix>
</trkpt>
<trkpt lat="40.0728446" lon="-105.2305746">
  <ele>1591.12</ele>
  <time>2026-08-28T19:07:32Z</time>
  <course>70.14</course>
  <speed>0.24083189157584592</speed>
  <fix>3d</fix>
</trkpt>
<trkpt lat="40.0728449" lon="-105.2305742">
  <ele>1591.05</ele>
  <time>2026-08-28T19:07:32Z</time>
  <course>219.57</course>
  <speed>0.21</speed>
  <fix>3d</fix>
</trkpt>
<trkpt lat="40.0728443" lon="-105.2305751">
  <ele>1591.12</ele>
  <time>2026-08-28T19:07:32Z</time>
  <course>70.1</course>
  <speed>0.3023243291566195</speed>
  <fix>3d</fix>
</trkpt>
<trkpt lat="40.0728445" lon="-105.2305746">
  <ele>1591.05</ele>
  <time>2026-08-28T19:07:32Z</time>
  <course>232.01</course>
  <speed>0.3</speed>
  <fix>3d</fix>
</trkpt>
<trkpt lat="40.072844" lon="-105.2305756">
  <ele>1591.13</ele>
  <time>2026-08-28T19:07:32Z</time>
  <course>70.07</course>
  <speed>0.3138470965295043</speed>
  <fix>3d</fix>
</trkpt>
<trkpt lat="40.0728442" lon="-105.2305752">
  <ele>1591.05</ele>
  <time>2026-08-28T19:07:32Z</time>
  <course>237.88</course>
  <speed>0.35</speed>
  <fix>3d</fix>
</trkpt>
<trkpt lat="40.0728437" lon="-105.2305763">
  <ele>1591.14</ele>
  <time>2026-08-28T19:07:32Z</time>
  <course>70.09</course>
  <speed>0.27730849247724093</speed>
  <fix>3d</fix>
</trkpt>
<trkpt lat="40.0728439" lon="-105.2305759">
  <ele>1591.05</ele>
  <time>2026-08-28T19:07:32Z</time>
  <course>242.09</course>
  <speed>0.35</speed>
  <fix>3d</fix>
</trkpt>
<trkpt lat="40.0728435" lon="-105.2305769">
  <ele>1591.15</ele>
  <time>2026-08-28T19:07:32Z</time>
  <course>70.08</course>
  <speed>0.20615528128088303</speed>
  <fix>3d</fix>
</trkpt>
<trkpt lat="40.0728437" lon="-105.2305766">
  <ele>1591.06</ele>
  <time>2026-08-28T19:07:32Z</time>
  <course>246.33</course>
  <speed>0.3</speed>
  <fix>3d</fix>
</trkpt>
<trkpt lat="40.0728434" lon="-105.2305773">
  <ele>1591.16</ele>
  <time>2026-08-28T19:07:32Z</time>
  <course>70.06</course>
  <speed>0.1118033988749895</speed>
  <fix>3d</fix>
</trkpt>
<trkpt lat="40.0728435" lon="-105.2305772">
  <ele>1591.07</ele>
  <time>2026-08-28T19:07:32Z</time>
  <course>252.69</course>
  <speed>0.23</speed>
  <fix>3d</fix>
</trkpt>
<trkpt lat="40.0728434" lon="-105.2305775">
  <ele>1591.17</ele>
  <time>2026-08-28T19:07:32Z</time>
  <course>70.09</course>
  <speed>0.04242640687119285</speed>
  <fix>3d</fix>
</trkpt>
<trkpt lat="40.0728433" lon="-105.2305777">
  <ele>1591.07</ele>
  <time>2026-08-28T19:07:32Z</time>
  <course>267.92</course>
  <speed>0.14</speed>
  <fix>3d</fix>
</trkpt>
<trkpt lat="40.0728435" lon="-105.2305777">
  <ele>1591.15</ele>
  <time>2026-08-28T19:07:32Z</time>
  <course>70.45</course>
  <speed>0.09486832980505139</speed>
  <fix>3d</fix>
</trkpt>
<trkpt lat="40.0728434" lon="-105.2305779">
  <ele>1591.07</ele>
  <time>2026-08-28T19:07:32Z</time>
  <course>316.29</course>
  <speed>0.08</speed>
  <fix>3d</fix>
</trkpt>
<trkpt lat="40.0728437" lon="-105.2305777">
  <ele>1591.1</ele>
  <time>2026-08-28T19:07:32Z</time>
  <course>70.82</course>
  <speed>0.15811388300841897</speed>
  <fix>3d</fix>
</trkpt>
<trkpt lat="40.0728435" lon="-105.230578">
  <ele>1591.05</ele>
  <time>2026-08-28T19:07:32Z</time>
  <course>7.66</course>
  <speed>0.11</speed>
  <fix>3d</fix>
</trkpt>
<trkpt lat="40.0728439" lon="-105.2305775">
  <ele>1591.02</ele>
  <time>2026-08-28T19:07:32Z</time>
  <course>70.95</course>
  <speed>0.212602916254693</speed>
  <fix>3d</fix>
</trkpt>
<trkpt lat="40.0728437" lon="-105.2305779">
  <ele>1590.99</ele>
  <time>2026-08-28T19:07:32Z</time>
  <course>25.77</course>
  <speed>0.17</speed>
  <fix>3d</fix>
</trkpt>
<trkpt lat="40.0728442" lon="-105.2305772">
  <ele>1590.92</ele>
  <time>2026-08-28T19:07:32Z</time>
  <course>70.95</course>
  <speed>0.2545584412271571</speed>
  <fix>3d</fix>
</trkpt>
<trkpt lat="40.0728441" lon="-105.2305777">
  <ele>1590.9</ele>
  <time>2026-08-28T19:07:32Z</time>
  <course>33.97</course>
  <speed>0.23</speed>
  <fix>3d</fix>
</trkpt>
<trkpt lat="40.0728446" lon="-105.2305768">
  <ele>1590.82</ele>
  <time>2026-08-28T19:07:33Z</time>
  <course>70.94</course>
  <speed>0.2765863337187866</speed>
  <fix>3d</fix>
</trkpt>
<trkpt lat="40.0728445" lon="-105.2305773">
  <ele>1590.8</ele>
  <time>2026-08-28T19:07:33Z</time>
  <course>38.82</course>
  <speed>0.27</speed>
  <fix>3d</fix>
</trkpt>
<trkpt lat="40.072845" lon="-105.2305763">
  <ele>1590.7</ele>
  <time>2026-08-28T19:07:33Z</time>
  <course>70.88</course>
  <speed>0.2920616373302047</speed>
  <fix>3d</fix>
</trkpt>
<trkpt lat="40.0728448" lon="-105.2305769">
  <ele>1590.69</ele>
  <time>2026-08-28T19:07:33Z</time>
  <course>42.13</course>
  <speed>0.29</speed>
  <fix>3d</fix>
</trkpt>
<trkpt lat="40.0728453" lon="-105.2305758">
  <ele>1590.59</ele>
  <time>2026-08-28T19:07:33Z</time>
  <course>70.86</course>
  <speed>0.28600699292150183</speed>
  <fix>3d</fix>
</trkpt>
<trkpt lat="40.0728453" lon="-105.2305764">
  <ele>1590.58</ele>
  <time>2026-08-28T19:07:33Z</time>
  <course>44.63</course>
  <speed>0.3</speed>
  <fix>3d</fix>
</trkpt>
<trkpt lat="40.0728457" lon="-105.2305754">
  <ele>1590.48</ele>
  <time>2026-08-28T19:07:33Z</time>
  <course>70.83</course>
  <speed>0.266270539113887</speed>
  <fix>3d</fix>
</trkpt>
<trkpt lat="40.0728456" lon="-105.2305759">
  <ele>1590.47</ele>
  <time>2026-08-28T19:07:33Z</time>
  <course>46.73</course>
  <speed>0.3</speed>
  <fix>3d</fix>
</trkpt>
<trkpt lat="40.072846" lon="-105.2305749">
  <ele>1590.37</ele>
  <time>2026-08-28T19:07:33Z</time>
  <course>70.8</course>
  <speed>0.24698178070456936</speed>
  <fix>3d</fix>
</trkpt>
<trkpt lat="40.072846" lon="-105.2305754">
  <ele>1590.35</ele>
  <time>2026-08-28T19:07:33Z</time>
  <course>48.67</course>
  <speed>0.28</speed>
  <fix>3d</fix>
</trkpt>
<trkpt lat="40.0728463" lon="-105.2305745">
  <ele>1590.26</ele>
  <time>2026-08-28T19:07:33Z</time>
  <course>70.79</course>
  <speed>0.20591260281974003</speed>
  <fix>3d</fix>
</trkpt>
<trkpt lat="40.0728463" lon="-105.2305749">
  <ele>1590.25</ele>
  <time>2026-08-28T19:07:33Z</time>
  <course>50.51</course>
  <speed>0.26</speed>
  <fix>3d</fix>
</trkpt>
<trkpt lat="40.0728465" lon="-105.2305741">
  <ele>1590.15</ele>
  <time>2026-08-28T19:07:33Z</time>
  <course>70.77</course>
  <speed>0.16552945357246848</speed>
  <fix>3d</fix>
</trkpt>
<trkpt lat="40.0728466" lon="-105.2305744">
  <ele>1590.14</ele>
  <time>2026-08-28T19:07:33Z</time>
  <course>52.52</course>
  <speed>0.22</speed>
  <fix>3d</fix>
</trkpt>
<trkpt lat="40.0728467" lon="-105.2305738">
  <ele>1590.05</ele>
  <time>2026-08-28T19:07:33Z</time>
  <course>70.76</course>
  <speed>0.1264911064067352</speed>
  <fix>3d</fix>
</trkpt>
<trkpt lat="40.0728467" lon="-105.230574">
  <ele>1590.04</ele>
  <time>2026-08-28T19:07:33Z</time>
  <course>55.05</course>
  <speed>0.18</speed>
  <fix>3d</fix>
</trkpt>
<trkpt lat="40.0728468" lon="-105.2305735">
  <ele>1589.95</ele>
  <time>2026-08-28T19:07:33Z</time>
  <course>70.75</course>
  <speed>0.09055385138137417</speed>
  <fix>3d</fix>
</trkpt>
<trkpt lat="40.0728469" lon="-105.2305737">
  <ele>1589.94</ele>
  <time>2026-08-28T19:07:33Z</time>
  <course>58.68</course>
  <speed>0.14</speed>
  <fix>3d</fix>
</trkpt>
<trkpt lat="40.0728468" lon="-105.2305733">
  <ele>1589.85</ele>
  <time>2026-08-28T19:07:33Z</time>
  <course>70.76</course>
  <speed>0.05099019513592785</speed>
  <fix>3d</fix>
</trkpt>
<trkpt lat="40.0728471" lon="-105.2305734">
  <ele>1589.84</ele>
  <time>2026-08-28T19:07:33Z</time>
  <course>64.47</course>
  <speed>0.1</speed>
  <fix>3d</fix>
</trkpt>
<trkpt lat="40.0728468" lon="-105.2305732">
  <ele>1589.75</ele>
  <time>2026-08-28T19:07:33Z</time>
  <course>70.71</course>
  <speed>0.044721359549995794</speed>
  <fix>3d</fix>
</trkpt>
<trkpt lat="40.0728471" lon="-105.2305733">
  <ele>1589.74</ele>
  <time>2026-08-28T19:07:33Z</time>
  <course>76.95</course>
  <speed>0.05</speed>
  <fix>3d</fix>
</trkpt>
<trkpt lat="40.0728469" lon="-105.2305732">
  <ele>1589.65</ele>
  <time>2026-08-28T19:07:33Z</time>
  <course>70.7</course>
  <speed>0.06082762530298219</speed>
  <fix>3d</fix>
</trkpt>
<trkpt lat="40.0728471" lon="-105.2305732">
  <ele>1589.63</ele>
  <time>2026-08-28T19:07:33Z</time>
  <course>122.71</course>
  <speed>0.02</speed>
  <fix>3d</fix>
</trkpt>
<trkpt lat="40.0728468" lon="-105.2305732">
  <ele>1589.55</ele>
  <time>2026-08-28T19:07:33Z</time>
  <course>70.71</course>
  <speed>0.08944271909999159</speed>
  <fix>3d</fix>
</trkpt>
<trkpt lat="40.0728471" lon="-105.2305732">
  <ele>1589.54</ele>
  <time>2026-08-28T19:07:33Z</time>
  <course>192.75</course>
  <speed>0.04</speed>
  <fix>3d</fix>
</trkpt>
<trkpt lat="40.0728467" lon="-105.2305733">
  <ele>1589.45</ele>
  <time>2026-08-28T19:07:33Z</time>
  <course>70.7</course>
  <speed>0.12206555615733702</speed>
  <fix>3d</fix>
</trkpt>
<trkpt lat="40.072847" lon="-105.2305732">
  <ele>1589.44</ele>
  <time>2026-08-28T19:07:33Z</time>
  <course>211.84</course>
  <speed>0.07</speed>
  <fix>3d</fix>
</trkpt>
<trkpt lat="40.0728466" lon="-105.2305734">
  <ele>1589.35</ele>
  <time>2026-08-28T19:07:33Z</time>
  <course>70.69</course>
  <speed>0.15</speed>
  <fix>3d</fix>
</trkpt>
<trkpt lat="40.0728469" lon="-105.2305733">
  <ele>1589.35</ele>
  <time>2026-08-28T19:07:33Z</time>
  <course>218.54</course>
  <speed>0.1</speed>
  <fix>3d</fix>
</trkpt>
<trkpt lat="40.0728464" lon="-105.2305736">
  <ele>1589.25</ele>
  <time>2026-08-28T19:07:33Z</time>
  <course>70.64</course>
  <speed>0.16401219466856726</speed>
  <fix>3d</fix>
</trkpt>
<trkpt lat="40.0728467" lon="-105.2305734">
  <ele>1589.25</ele>
  <time>2026-08-28T19:07:33Z</time>
  <course>221.92</course>
  <speed>0.12</speed>
  <fix>3d</fix>
</trkpt>
<trkpt lat="40.0728462" lon="-105.2305739">
  <ele>1589.15</ele>
  <time>2026-08-28T19:07:33Z</time>
  <course>70.64</course>
  <speed>0.1769180601295413</speed>
  <fix>3d</fix>
</trkpt>
<trkpt lat="40.0728466" lon="-105.2305737">
  <ele>1589.14</ele>
  <time>2026-08-28T19:07:33Z</time>
  <course>224.08</course>
  <speed>0.14</speed>
  <fix>3d</fix>
</trkpt>
<trkpt lat="40.0728461" lon="-105.2305742">
  <ele>1589.06</ele>
  <time>2026-08-28T19:07:33Z</time>
  <course>70.6</course>
  <speed>0.18384776310850234</speed>
  <fix>3d</fix>
</trkpt>
<trkpt lat="40.0728463" lon="-105.2305739">
  <ele>1589.05</ele>
  <time>2026-08-28T19:07:33Z</time>
  <course>225.68</course>
  <speed>0.15</speed>
  <fix>3d</fix>
</trkpt>
<trkpt lat="40.0728459" lon="-105.2305744">
  <ele>1588.96</ele>
  <time>2026-08-28T19:07:33Z</time>
  <course>70.59</course>
  <speed>0.18384776310850234</speed>
  <fix>3d</fix>
</trkpt>
<trkpt lat="40.0728462" lon="-105.2305742">
  <ele>1588.95</ele>
  <time>2026-08-28T19:07:33Z</time>
  <course>227.11</course>
  <speed>0.16</speed>
  <fix>3d</fix>
</trkpt>
<trkpt lat="40.0728457" lon="-105.2305747">
  <ele>1588.86</ele>
  <time>2026-08-28T19:07:33Z</time>
  <course>70.58</course>
  <speed>0.18384776310850234</speed>
  <fix>3d</fix>
</trkpt>
<trkpt lat="40.072846" lon="-105.2305744">
  <ele>1588.85</ele>
  <time>2026-08-28T19:07:33Z</time>
  <course>228.5</course>
  <speed>0.16</speed>
  <fix>3d</fix>
</trkpt>
<trkpt lat="40.0728455" lon="-105.230575">
  <ele>1588.75</ele>
  <time>2026-08-28T19:07:33Z</time>
  <course>70.57</course>
  <speed>0.1769180601295413</speed>
  <fix>3d</fix>
</trkpt>
<trkpt lat="40.0728458" lon="-105.2305747">
  <ele>1588.75</ele>
  <time>2026-08-28T19:07:33Z</time>
  <course>229.87</course>
  <speed>0.16</speed>
  <fix>3d</fix>
</trkpt>
<trkpt lat="40.0728453" lon="-105.2305753">
  <ele>1588.65</ele>
  <time>2026-08-28T19:07:33Z</time>
  <course>70.55</course>
  <speed>0.16278820596099705</speed>
  <fix>3d</fix>
</trkpt>
<trkpt lat="40.0728457" lon="-105.230575">
  <ele>1588.64</ele>
  <time>2026-08-28T19:07:33Z</time>
  <course>231.16</course>
  <speed>0.15</speed>
  <fix>3d</fix>
</trkpt>
<trkpt lat="40.0728452" lon="-105.2305755">
  <ele>1588.55</ele>
  <time>2026-08-28T19:07:33Z</time>
  <course>70.51</course>
  <speed>0.14866068747318506</speed>
  <fix>3d</fix>
</trkpt>
<trkpt lat="40.0728455" lon="-105.2305753">
  <ele>1588.55</ele>
  <time>2026-08-28T19:07:33Z</time>
  <course>232.42</course>
  <speed>0.14</speed>
  <fix>3d</fix>
</trkpt>
<trkpt lat="40.0728451" lon="-105.2305758">
  <ele>1588.46</ele>
  <time>2026-08-28T19:07:33Z</time>
  <course>70.53</course>
  <speed>0.1345362404707371</speed>
  <fix>3d</fix>
</trkpt>
<trkpt lat="40.0728453" lon="-105.2305756">
  <ele>1588.46</ele>
  <time>2026-08-28T19:07:33Z</time>
  <course>233.87</course>
  <speed>0.12</speed>
  <fix>3d</fix>
</trkpt>
<trkpt lat="40.072845" lon="-105.230576">
  <ele>1588.35</ele>
  <time>2026-08-28T19:07:33Z</time>
  <course>70.51</course>
  <speed>0.11401754250991379</speed>
  <fix>3d</fix>
</trkpt>
<trkpt lat="40.0728452" lon="-105.2305758">
  <ele>1588.36</ele>
  <time>2026-08-28T19:07:33Z</time>
  <course>235.08</course>
  <speed>0.11</speed>
  <fix>3d</fix>
</trkpt>
<trkpt lat="40.0728449" lon="-105.2305761">
  <ele>1588.25</ele>
  <time>2026-08-28T19:07:33Z</time>
  <course>70.5</course>
  <speed>0.09219544457292887</speed>
  <fix>3d</fix>
</trkpt>
<trkpt lat="40.0728451" lon="-105.2305759">
  <ele>1588.26</ele>
  <time>2026-08-28T19:07:33Z</time>
  <course>236.26</course>
  <speed>0.09</speed>
  <fix>3d</fix>
</trkpt>
<trkpt lat="40.0728448" lon="-105.2305763">
  <ele>1588.15</ele>
  <time>2026-08-28T19:07:33Z</time>
  <course>70.49</course>
  <speed>0.07810249675906654</speed>
  <fix>3d</fix>
</trkpt>
<trkpt lat="40.072845" lon="-105.2305762">
  <ele>1588.15</ele>
  <time>2026-08-28T19:07:33Z</time>
  <course>238.37</course>
  <speed>0.07</speed>
  <fix>3d</fix>
</trkpt>
<trkpt lat="40.0728448" lon="-105.2305764">
  <ele>1588.05</ele>
  <time>2026-08-28T19:07:33Z</time>
  <course>70.5</course>
  <speed>0.05</speed>
  <fix>3d</fix>
</trkpt>
<trkpt lat="40.072845" lon="-105.2305763">
  <ele>1588.06</ele>
  <time>2026-08-28T19:07:33Z</time>
  <course>241.84</course>
  <speed>0.05</speed>
  <fix>3d</fix>
</trkpt>
<trkpt lat="40.0728448" lon="-105.2305764">
  <ele>1587.95</ele>
  <time>2026-08-28T19:07:33Z</time>
  <course>70.45</course>
  <speed>0.03605551275463989</speed>
  <fix>3d</fix>
</trkpt>
<trkpt lat="40.0728449" lon="-105.2305764">
  <ele>1587.96</ele>
  <time>2026-08-28T19:07:33Z</time>
  <course>248.03</course>
  <speed>0.03</speed>
  <fix>3d</fix>
</trkpt>
<trkpt lat="40.0728448" lon="-105.2305765">
  <ele>1587.85</ele>
  <time>2026-08-28T19:07:33Z</time>
  <course>70.45</course>
  <speed>0.01414213562373095</speed>
  <fix>3d</fix>
</trkpt>
<trkpt lat="40.0728449" lon="-105.2305765">
  <ele>1587.86</ele>
  <time>2026-08-28T19:07:33Z</time>
  <course>265.25</course>
  <speed>0.01</speed>
  <fix>3d</fix>
</trkpt>
<trkpt lat="40.0728448" lon="-105.2305765">
  <ele>1587.75</ele>
  <time>2026-08-28T19:07:33Z</time>
  <course>70.46</course>
  <speed>0.0</speed>
  <fix>3d</fix>
</trkpt>
<trkpt lat="40.0728449" lon="-105.2305765">
  <ele>1587.76</ele>
  <time>2026-08-28T19:07:33Z</time>
  <course>338.56</course>
  <speed>0.0</speed>
  <fix>3d</fix>
</trkpt>
<trkpt lat="40.0728448" lon="-105.2305765">
  <ele>1587.65</ele>
  <time>2026-08-28T19:07:33Z</time>
  <course>70.43</course>
  <speed>0.0</speed>
  <fix>3d</fix>
</trkpt>
<trkpt lat="40.0728449" lon="-105.2305765">
  <ele>1587.66</ele>
  <time>2026-08-28T19:07:33Z</time>
  <course>26.72</course>
  <speed>0.01</speed>
  <fix>3d</fix>
</trkpt>
<trkpt lat="40.0728448" lon="-105.2305765">
  <ele>1587.55</ele>
  <time>2026-08-28T19:07:33Z</time>
  <course>70.45</course>
  <speed>0.01</speed>
  <fix>3d</fix>
</trkpt>
<trkpt lat="40.072845" lon="-105.2305765">
  <ele>1587.57</ele>
  <time>2026-08-28T19:07:33Z</time>
  <course>38.13</course>
  <speed>0.03</speed>
  <fix>3d</fix>
</trkpt>
<trkpt lat="40.0728448" lon="-105.2305765">
  <ele>1587.45</ele>
  <time>2026-08-28T19:07:33Z</time>
  <course>70.45</course>
  <speed>0.02</speed>
  <fix>3d</fix>
</trkpt>
<trkpt lat="40.072845" lon="-105.2305765">
  <ele>1587.47</ele>
  <time>2026-08-28T19:07:33Z</time>
  <course>43.02</course>
  <speed>0.04</speed>
  <fix>3d</fix>
</trkpt>
<trkpt lat="40.0728449" lon="-105.2305764">
  <ele>1587.35</ele>
  <time>2026-08-28T19:07:33Z</time>
  <course>70.46</course>
  <speed>0.022360679774997897</speed>
  <fix>3d</fix>
</trkpt>
<trkpt lat="40.072845" lon="-105.2305764">
  <ele>1587.37</ele>
  <time>2026-08-28T19:07:33Z</time>
  <course>46.41</course>
  <speed>0.04</speed>
  <fix>3d</fix>
</trkpt>
<trkpt lat="40.072845" lon="-105.2305763">
  <ele>1587.25</ele>
  <time>2026-08-28T19:07:33Z</time>
  <course>70.44</course>
  <speed>0.0316227766016838</speed>
  <fix>3d</fix>
</trkpt>
<trkpt lat="40.072845" lon="-105.2305763">
  <ele>1587.27</ele>
  <time>2026-08-28T19:07:33Z</time>
  <course>48.92</course>
  <speed>0.05</speed>
  <fix>3d</fix>
</trkpt>
<trkpt lat="40.072845" lon="-105.2305762">
  <ele>1587.15</ele>
  <time>2026-08-28T19:07:33Z</time>
  <course>70.45</course>
  <speed>0.0316227766016838</speed>
  <fix>3d</fix>
</trkpt>
<trkpt lat="40.0728451" lon="-105.2305762">
  <ele>1587.16</ele>
  <time>2026-08-28T19:07:33Z</time>
  <course>50.39</course>
  <speed>0.05</speed>
  <fix>3d</fix>
</trkpt>
<trkpt lat="40.0728451" lon="-105.2305761">
  <ele>1587.05</ele>
  <time>2026-08-28T19:07:33Z</time>
  <course>70.43</course>
  <speed>0.0316227766016838</speed>
  <fix>3d</fix>
</trkpt>
<trkpt lat="40.0728451" lon="-105.2305761">
  <ele>1587.07</ele>
  <time>2026-08-28T19:07:33Z</time>
  <course>51.39</course>
  <speed>0.05</speed>
  <fix>3d</fix>
</trkpt>
<trkpt lat="40.0728451" lon="-105.230576">
  <ele>1586.95</ele>
  <time>2026-08-28T19:07:33Z</time>
  <course>70.44</course>
  <speed>0.03</speed>
  <fix>3d</fix>
</trkpt>
<trkpt lat="40.0728452" lon="-105.230576">
  <ele>1586.97</ele>
  <time>2026-08-28T19:07:33Z</time>
  <course>52.42</course>
  <speed>0.05</speed>
  <fix>3d</fix>
</trkpt>
<trkpt lat="40.0728451" lon="-105.2305759">
  <ele>1586.85</ele>
  <time>2026-08-28T19:07:33Z</time>
  <course>70.42</course>
  <speed>0.02</speed>
  <fix>3d</fix>
</trkpt>
<trkpt lat="40.0728453" lon="-105.2305759">
  <ele>1586.88</ele>
  <time>2026-08-28T19:07:33Z</time>
  <course>53.26</course>
  <speed>0.05</speed>
  <fix>3d</fix>
</trkpt>
<trkpt lat="40.0728452" lon="-105.2305759">
  <ele>1586.75</ele>
  <time>2026-08-28T19:07:33Z</time>
  <course>70.44</course>
  <speed>0.02</speed>
  <fix>3d</fix>
</trkpt>
<trkpt lat="40.0728454" lon="-105.2305758">
  <ele>1586.78</ele>
  <time>2026-08-28T19:07:33Z</time>
  <course>53.73</course>
  <speed>0.04</speed>
  <fix>3d</fix>
</trkpt>
<trkpt lat="40.0728452" lon="-105.2305758">
  <ele>1586.66</ele>
  <time>2026-08-28T19:07:33Z</time>
  <course>70.42</course>
  <speed>0.02</speed>
  <fix>3d</fix>
</trkpt>
<trkpt lat="40.0728454" lon="-105.2305757">
  <ele>1586.67</ele>
  <time>2026-08-28T19:07:33Z</time>
  <course>54.12</course>
  <speed>0.04</speed>
  <fix>3d</fix>
</trkpt>
<trkpt lat="40.0728453" lon="-105.2305757">
  <ele>1586.56</ele>
  <time>2026-08-28T19:07:33Z</time>
  <course>70.43</course>
  <speed>0.01</speed>
  <fix>3d</fix>
</trkpt>
<trkpt lat="40.0728455" lon="-105.2305756">
  <ele>1586.58</ele>
  <time>2026-08-28T19:07:33Z</time>
  <course>54.75</course>
  <speed>0.03</speed>
  <fix>3d</fix>
</trkpt>
<trkpt lat="40.0728453" lon="-105.2305757">
  <ele>1586.46</ele>
  <time>2026-08-28T19:07:33Z</time>
  <course>70.4</course>
  <speed>0.01</speed>
  <fix>3d</fix>
</trkpt>
<trkpt lat="40.0728455" lon="-105.2305756">
  <ele>1586.48</ele>
  <time>2026-08-28T19:07:33Z</time>
  <course>56.35</course>
  <speed>0.03</speed>
  <fix>3d</fix>
</trkpt>
<trkpt lat="40.0728453" lon="-105.2305756">
  <ele>1586.36</ele>
  <time>2026-08-28T19:07:33Z</time>
  <course>70.41</course>
  <speed>0.01</speed>
  <fix>3d</fix>
</trkpt>
<trkpt lat="40.0728455" lon="-105.2305755">
  <ele>1586.38</ele>
  <time>2026-08-28T19:07:33Z</time>
  <course>59.64</course>
  <speed>0.02</speed>
  <fix>3d</fix>
</trkpt>
<trkpt lat="40.0728453" lon="-105.2305756">
  <ele>1586.26</ele>
  <time>2026-08-28T19:07:33Z</time>
  <course>70.41</course>
  <speed>0.02</speed>
  <fix>3d</fix>
</trkpt>
<trkpt lat="40.0728455" lon="-105.2305755">
  <ele>1586.28</ele>
  <time>2026-08-28T19:07:33Z</time>
  <course>65.26</course>
  <speed>0.01</speed>
  <fix>3d</fix>
</trkpt>
<trkpt lat="40.0728454" lon="-105.2305756">
  <ele>1586.16</ele>
  <time>2026-08-28T19:07:33Z</time>
  <course>70.4</course>
  <speed>0.02</speed>
  <fix>3d</fix>
</trkpt>
<trkpt lat="40.0728456" lon="-105.2305755">
  <ele>1586.17</ele>
  <time>2026-08-28T19:07:33Z</time>
  <course>80.98</course>
  <speed>0.0</speed>
  <fix>3d</fix>
</trkpt>
<trkpt lat="40.0728454" lon="-105.2305756">
  <ele>1586.11</ele>
  <time>2026-08-28T19:07:33Z</time>
  <course>70.41</course>
  <speed>0.01</speed>
  <fix>3d</fix>
</trkpt>
<trkpt lat="40.0728456" lon="-105.2305755">
  <ele>1586.09</ele>
  <time>2026-08-28T19:07:33Z</time>
  <course>348.65</course>
  <speed>0.01</speed>
  <fix>3d</fix>
</trkpt>
<trkpt lat="40.0728454" lon="-105.2305756">
  <ele>1586.14</ele>
  <time>2026-08-28T19:07:33Z</time>
  <course>70.44</course>
  <speed>0.02</speed>
  <fix>3d</fix>
</trkpt>
<trkpt lat="40.0728456" lon="-105.2305755">
  <ele>1586.07</ele>
  <time>2026-08-28T19:07:33Z</time>
  <course>345.22</course>
  <speed>0.01</speed>
  <fix>3d</fix>
</trkpt>
<trkpt lat="40.0728454" lon="-105.2305756">
  <ele>1586.14</ele>
  <time>2026-08-28T19:07:33Z</time>
  <course>70.47</course>
  <speed>0.022360679774997897</speed>
  <fix>3d</fix>
</trkpt>
<trkpt lat="40.0728456" lon="-105.2305755">
  <ele>1586.08</ele>
  <time>2026-08-28T19:07:33Z</time>
  <course>80.96</course>
  <speed>0.0</speed>
  <fix>3d</fix>
</trkpt>
<trkpt lat="40.0728454" lon="-105.2305756">
  <ele>1586.14</ele>
  <time>2026-08-28T19:07:33Z</time>
  <course>70.51</course>
  <speed>0.01414213562373095</speed>
  <fix>3d</fix>
</trkpt>
<trkpt lat="40.0728456" lon="-105.2305755">
  <ele>1586.08</ele>
  <time>2026-08-28T19:07:33Z</time>
  <course>157.73</course>
  <speed>0.0</speed>
  <fix>3d</fix>
</trkpt>
<trkpt lat="40.0728454" lon="-105.2305756">
  <ele>1586.14</ele>
  <time>2026-08-28T19:07:33Z</time>
  <course>70.55</course>
  <speed>0.01414213562373095</speed>
  <fix>3d</fix>
</trkpt>
<trkpt lat="40.0728456" lon="-105.2305755">
  <ele>1586.08</ele>
  <time>2026-08-28T19:07:33Z</time>
  <course>23.19</course>
  <speed>0.0</speed>
  <fix>3d</fix>
</trkpt>
<trkpt lat="40.0728454" lon="-105.2305756">
  <ele>1586.14</ele>
  <time>2026-08-28T19:07:33Z</time>
  <course>70.58</course>
  <speed>0.01414213562373095</speed>
  <fix>3d</fix>
</trkpt>
<trkpt lat="40.0728456" lon="-105.2305755">
  <ele>1586.08</ele>
  <time>2026-08-28T19:07:33Z</time>
  <course>76.45</course>
  <speed>0.0</speed>
  <fix>3d</fix>
</trkpt>
<trkpt lat="40.0728454" lon="-105.2305756">
  <ele>1586.15</ele>
  <time>2026-08-28T19:07:33Z</time>
  <course>70.61</course>
  <speed>0.01</speed>
  <fix>3d</fix>
</trkpt>
<trkpt lat="40.0728456" lon="-105.2305755">
  <ele>1586.08</ele>
  <time>2026-08-28T19:07:33Z</time>
  <course>106.02</course>
  <speed>0.0</speed>
  <fix>3d</fix>
</trkpt>
<trkpt lat="40.0728454" lon="-105.2305756">
  <ele>1586.15</ele>
  <time>2026-08-28T19:07:33Z</time>
  <course>70.63</course>
  <speed>0.01</speed>
  <fix>3d</fix>
</trkpt>
<trkpt lat="40.0728456" lon="-105.2305755">
  <ele>1586.08</ele>
  <time>2026-08-28T19:07:33Z</time>
  <course>41.64</course>
  <speed>0.0</speed>
  <fix>3d</fix>
</trkpt>
<trkpt lat="40.0728454" lon="-105.2305756">
  <ele>1586.15</ele>
  <time>2026-08-28T19:07:33Z</time>
  <course>70.66</course>
  <speed>0.01</speed>
  <fix>3d</fix>
</trkpt>
<trkpt lat="40.0728456" lon="-105.2305755">
  <ele>1586.08</ele>
  <time>2026-08-28T19:07:33Z</time>
  <course>42.58</course>
  <speed>0.0</speed>
  <fix>3d</fix>
</trkpt>
<trkpt lat="40.0728454" lon="-105.2305756">
  <ele>1586.15</ele>
  <time>2026-08-28T19:07:33Z</time>
  <course>70.68</course>
  <speed>0.01</speed>
  <fix>3d</fix>
</trkpt>
<trkpt lat="40.0728456" lon="-105.2305755">
  <ele>1586.08</ele>
  <time>2026-08-28T19:07:33Z</time>
  <course>85.17</course>
  <speed>0.0</speed>
  <fix>3d</fix>
</trkpt>
<trkpt lat="40.0728454" lon="-105.2305756">
  <ele>1586.15</ele>
  <time>2026-08-28T19:07:33Z</time>
  <course>70.7</course>
  <speed>0.03</speed>
  <fix>3d</fix>
</trkpt>
<trkpt lat="40.0728456" lon="-105.2305755">
  <ele>1586.08</ele>
  <time>2026-08-28T19:07:33Z</time>
  <course>157.5</course>
  <speed>0.0</speed>
  <fix>3d</fix>
</trkpt>
<trkpt lat="40.0728454" lon="-105.2305756">
  <ele>1586.15</ele>
  <time>2026-08-28T19:07:33Z</time>
  <course>70.68</course>
  <speed>0.02</speed>
  <fix>3d</fix>
</trkpt>
<trkpt lat="40.0728456" lon="-105.2305755">
  <ele>1586.08</ele>
  <time>2026-08-28T19:07:33Z</time>
  <course>162.76</course>
  <speed>0.01</speed>
  <fix>3d</fix>
</trkpt>
<trkpt lat="40.0728454" lon="-105.2305756">
  <ele>1586.15</ele>
  <time>2026-08-28T19:07:33Z</time>
  <course>70.66</course>
  <speed>0.01</speed>
  <fix>3d</fix>
</trkpt>
<trkpt lat="40.0728456" lon="-105.2305755">
  <ele>1586.08</ele>
  <time>2026-08-28T19:07:33Z</time>
  <course>170.08</course>
  <speed>0.0</speed>
  <fix>3d</fix>
</trkpt>
<trkpt lat="40.0728454" lon="-105.2305756">
  <ele>1586.15</ele>
  <time>2026-08-28T19:07:33Z</time>
  <course>70.65</course>
  <speed>0.01</speed>
  <fix>3d</fix>
</trkpt>
<trkpt lat="40.0728456" lon="-105.2305755">
  <ele>1586.08</ele>
  <time>2026-08-28T19:07:33Z</time>
  <course>298.05</course>
  <speed>0.0</speed>
  <fix>3d</fix>
</trkpt>
<trkpt lat="40.0728454" lon="-105.2305756">
  <ele>1586.15</ele>
  <time>2026-08-28T19:07:33Z</time>
  <course>70.64</course>
  <speed>0.01</speed>
  <fix>3d</fix>
</trkpt>
<trkpt lat="40.0728456" lon="-105.2305755">
  <ele>1586.08</ele>
  <time>2026-08-28T19:07:33Z</time>
  <course>317.71</course>
  <speed>0.0</speed>
  <fix>3d</fix>
</trkpt>
<trkpt lat="40.0728454" lon="-105.2305756">
  <ele>1586.16</ele>
  <time>2026-08-28T19:07:33Z</time>
  <course>70.64</course>
  <speed>0.01</speed>
  <fix>3d</fix>
</trkpt>
<trkpt lat="40.0728456" lon="-105.2305755">
  <ele>1586.08</ele>
  <time>2026-08-28T19:07:33Z</time>
  <course>298.02</course>
  <speed>0.0</speed>
  <fix>3d</fix>
</trkpt>
<trkpt lat="40.0728454" lon="-105.2305756">
  <ele>1586.16</ele>
  <time>2026-08-28T19:07:33Z</time>
  <course>70.64</course>
  <speed>0.01</speed>
  <fix>3d</fix>
</trkpt>
<trkpt lat="40.0728456" lon="-105.2305755">
  <ele>1586.08</ele>
  <time>2026-08-28T19:07:33Z</time>
  <course>300.75</course>
  <speed>0.0</speed>
  <fix>3d</fix>
</trkpt>
<trkpt lat="40.0728454" lon="-105.2305756">
  <ele>1586.16</ele>
  <time>2026-08-28T19:07:33Z</time>
  <course>70.64</course>
  <speed>0.01</speed>
  <fix>3d</fix>
</trkpt>
<trkpt lat="40.0728456" lon="-105.2305755">
  <ele>1586.08</ele>
  <time>2026-08-28T19:07:33Z</time>
  <course>297.96</course>
  <speed>0.0</speed>
  <fix>3d</fix>
</trkpt>
<trkpt lat="40.0728454" lon="-105.2305756">
  <ele>1586.16</ele>
  <time>2026-08-28T19:07:33Z</time>
  <course>70.63</course>
  <speed>0.01</speed>
  <fix>3d</fix>
</trkpt>
<trkpt lat="40.0728456" lon="-105.2305755">
  <ele>1586.08</ele>
  <time>2026-08-28T19:07:33Z</time>
  <course>236.14</course>
  <speed>0.0</speed>
  <fix>3d</fix>
</trkpt>
<trkpt lat="40.0728454" lon="-105.2305756">
  <ele>1586.16</ele>
  <time>2026-08-28T19:07:33Z</time>
  <course>70.63</course>
  <speed>0.01</speed>
  <fix>3d</fix>
</trkpt>
<trkpt lat="40.0728456" lon="-105.2305755">
  <ele>1586.08</ele>
  <time>2026-08-28T19:07:33Z</time>
  <course>9.16</course>
  <speed>0.0</speed>
  <fix>3d</fix>
</trkpt>
<trkpt lat="40.0728454" lon="-105.2305756">
  <ele>1586.16</ele>
  <time>2026-08-28T19:07:33Z</time>
  <course>70.63</course>
  <speed>0.01</speed>
  <fix>3d</fix>
</trkpt>
<trkpt lat="40.0728456" lon="-105.2305755">
  <ele>1586.08</ele>
  <time>2026-08-28T19:07:33Z</time>
  <course>347.85</course>
  <speed>0.0</speed>
  <fix>3d</fix>
</trkpt>
<trkpt lat="40.0728454" lon="-105.2305756">
  <ele>1586.17</ele>
  <time>2026-08-28T19:07:33Z</time>
  <course>70.63</course>
  <speed>0.01</speed>
  <fix>3d</fix>
</trkpt>
<trkpt lat="40.0728456" lon="-105.2305755">
  <ele>1586.08</ele>
  <time>2026-08-28T19:07:33Z</time>
  <course>339.33</course>
  <speed>0.0</speed>
  <fix>3d</fix>
</trkpt>
<trkpt lat="40.0728454" lon="-105.2305756">
  <ele>1586.17</ele>
  <time>2026-08-28T19:07:33Z</time>
  <course>70.63</course>
  <speed>0.01</speed>
  <fix>3d</fix>
</trkpt>
<trkpt lat="40.0728456" lon="-105.2305755">
  <ele>1586.08</ele>
  <time>2026-08-28T19:07:33Z</time>
  <course>341.53</course>
  <speed>0.0</speed>
  <fix>3d</fix>
</trkpt>
<trkpt lat="40.0728454" lon="-105.2305756">
  <ele>1586.17</ele>
  <time>2026-08-28T19:07:33Z</time>
  <course>70.63</course>
  <speed>0.01</speed>
  <fix>3d</fix>
</trkpt>
<trkpt lat="40.0728456" lon="-105.2305755">
  <ele>1586.08</ele>
  <time>2026-08-28T19:07:33Z</time>
  <course>343.66</course>
  <speed>0.0</speed>
  <fix>3d</fix>
</trkpt>
<trkpt lat="40.0728454" lon="-105.2305756">
  <ele>1586.17</ele>
  <time>2026-08-28T19:07:33Z</time>
  <course>70.63</course>
  <speed>0.01</speed>
  <fix>3d</fix>
</trkpt>
<trkpt lat="40.0728456" lon="-105.2305755">
  <ele>1586.08</ele>
  <time>2026-08-28T19:07:33Z</time>
  <course>343.45</course>
  <speed>0.0</speed>
  <fix>3d</fix>
</trkpt>
<trkpt lat="40.0728454" lon="-105.2305756">
  <ele>1586.17</ele>
  <time>2026-08-28T19:07:33Z</time>
  <course>70.63</course>
  <speed>0.01</speed>
  <fix>3d</fix>
</trkpt>
<trkpt lat="40.0728456" lon="-105.2305755">
  <ele>1586.08</ele>
  <time>2026-08-28T19:07:33Z</time>
  <course>343.71</course>
  <speed>0.0</speed>
  <fix>3d</fix>
</trkpt>
<trkpt lat="40.0728454" lon="-105.2305756">
  <ele>1586.17</ele>
  <time>2026-08-28T19:07:33Z</time>
  <course>70.63</course>
  <speed>0.01</speed>
  <fix>3d</fix>
</trkpt>
<trkpt lat="40.0728456" lon="-105.2305755">
  <ele>1586.08</ele>
  <time>2026-08-28T19:07:33Z</time>
  <course>344.37</course>
  <speed>0.0</speed>
  <fix>3d</fix>
</trkpt>
<trkpt lat="40.0728454" lon="-105.2305756">
  <ele>1586.17</ele>
  <time>2026-08-28T19:07:33Z</time>
  <course>70.63</course>
  <speed>0.01</speed>
  <fix>3d</fix>
</trkpt>
<trkpt lat="40.0728456" lon="-105.2305755">
  <ele>1586.08</ele>
  <time>2026-08-28T19:07:33Z</time>
  <course>344.94</course>
  <speed>0.0</speed>
  <fix>3d</fix>
</trkpt>
<trkpt lat="40.0728454" lon="-105.2305756">
  <ele>1586.17</ele>
  <time>2026-08-28T19:07:33Z</time>
  <course>70.64</course>
  <speed>0.01</speed>
  <fix>3d</fix>
</trkpt>
<trkpt lat="40.0728456" lon="-105.2305755">
  <ele>1586.08</ele>
  <time>2026-08-28T19:07:33Z</time>
  <course>345.52</course>
  <speed>0.0</speed>
  <fix>3d</fix>
</trkpt>
<trkpt lat="40.0728454" lon="-105.2305756">
  <ele>1586.17</ele>
  <time>2026-08-28T19:07:33Z</time>
  <course>70.64</course>
  <speed>0.02</speed>
  <fix>3d</fix>
</trkpt>
<trkpt lat="40.0728456" lon="-105.2305755">
  <ele>1586.08</ele>
  <time>2026-08-28T19:07:33Z</time>
  <course>346.17</course>
  <speed>0.0</speed>
  <fix>3d</fix>
</trkpt>
<trkpt lat="40.0728454" lon="-105.2305756">
  <ele>1586.17</ele>
  <time>2026-08-28T19:07:33Z</time>
  <course>70.64</course>
  <speed>0.02</speed>
  <fix>3d</fix>
</trkpt>
<trkpt lat="40.0728456" lon="-105.2305755">
  <ele>1586.08</ele>
  <time>2026-08-28T19:07:33Z</time>
  <course>346.86</course>
  <speed>0.0</speed>
  <fix>3d</fix>
</trkpt>
<trkpt lat="40.0728454" lon="-105.2305756">
  <ele>1586.17</ele>
  <time>2026-08-28T19:07:33Z</time>
  <course>70.64</course>
  <speed>0.02</speed>
  <fix>3d</fix>
</trkpt>
<trkpt lat="40.0728456" lon="-105.2305755">
  <ele>1586.08</ele>
  <time>2026-08-28T19:07:33Z</time>
  <course>347.6</course>
  <speed>0.0</speed>
  <fix>3d</fix>
</trkpt>
<trkpt lat="40.0728454" lon="-105.2305756">
  <ele>1586.16</ele>
  <time>2026-08-28T19:07:33Z</time>
  <course>70.64</course>
  <speed>0.02</speed>
  <fix>3d</fix>
</trkpt>
<trkpt lat="40.0728456" lon="-105.2305755">
  <ele>1586.08</ele>
  <time>2026-08-28T19:07:33Z</time>
  <course>348.38</course>
  <speed>0.0</speed>
  <fix>3d</fix>
</trkpt>
<trkpt lat="40.0728454" lon="-105.2305756">
  <ele>1586.16</ele>
  <time>2026-08-28T19:07:33Z</time>
  <course>70.64</course>
  <speed>0.02</speed>
  <fix>3d</fix>
</trkpt>
<trkpt lat="40.0728456" lon="-105.2305755">
  <ele>1586.08</ele>
  <time>2026-08-28T19:07:33Z</time>
  <course>349.2</course>
  <speed>0.0</speed>
  <fix>3d</fix>
</trkpt>
<trkpt lat="40.0728454" lon="-105.2305756">
  <ele>1586.16</ele>
  <time>2026-08-28T19:07:33Z</time>
  <course>70.64</course>
  <speed>0.02</speed>
  <fix>3d</fix>
</trkpt>
<trkpt lat="40.0728456" lon="-105.2305755">
  <ele>1586.08</ele>
  <time>2026-08-28T19:07:33Z</time>
  <course>350.07</course>
  <speed>0.0</speed>
  <fix>3d</fix>
</trkpt>
<trkpt lat="40.0728454" lon="-105.2305756">
  <ele>1586.16</ele>
  <time>2026-08-28T19:07:33Z</time>
  <course>70.64</course>
  <speed>0.02</speed>
  <fix>3d</fix>
</trkpt>
<trkpt lat="40.0728456" lon="-105.2305755">
  <ele>1586.08</ele>
  <time>2026-08-28T19:07:33Z</time>
  <course>350.98</course>
  <speed>0.0</speed>
  <fix>3d</fix>
</trkpt>
<trkpt lat="40.0728454" lon="-105.2305756">
  <ele>1586.16</ele>
  <time>2026-08-28T19:07:33Z</time>
  <course>70.64</course>
  <speed>0.02</speed>
  <fix>3d</fix>
</trkpt>
<trkpt lat="40.0728456" lon="-105.2305755">
  <ele>1586.08</ele>
  <time>2026-08-28T19:07:33Z</time>
  <course>351.92</course>
  <speed>0.0</speed>
  <fix>3d</fix>
</trkpt>
<trkpt lat="40.0728454" lon="-105.2305756">
  <ele>1586.16</ele>
  <time>2026-08-28T19:07:33Z</time>
  <course>70.64</course>
  <speed>0.02</speed>
  <fix>3d</fix>
</trkpt>
<trkpt lat="40.0728456" lon="-105.2305755">
  <ele>1586.08</ele>
  <time>2026-08-28T19:07:33Z</time>
  <course>352.91</course>
  <speed>0.0</speed>
  <fix>3d</fix>
</trkpt>
<trkpt lat="40.0728454" lon="-105.2305756">
  <ele>1586.16</ele>
  <time>2026-08-28T19:07:33Z</time>
  <course>70.64</course>
  <speed>0.02</speed>
  <fix>3d</fix>
</trkpt>
<trkpt lat="40.0728456" lon="-105.2305755">
  <ele>1586.08</ele>
  <time>2026-08-28T19:07:33Z</time>
  <course>353.92</course>
  <speed>0.0</speed>
  <fix>3d</fix>
</trkpt>
<trkpt lat="40.0728454" lon="-105.2305756">
  <ele>1586.16</ele>
  <time>2026-08-28T19:07:33Z</time>
  <course>70.64</course>
  <speed>0.02</speed>
  <fix>3d</fix>
</trkpt>
<trkpt lat="40.0728456" lon="-105.2305755">
  <ele>1586.08</ele>
  <time>2026-08-28T19:07:33Z</time>
  <course>354.97</course>
  <speed>0.0</speed>
  <fix>3d</fix>
</trkpt>
<trkpt lat="40.0728454" lon="-105.2305756">
  <ele>1586.16</ele>
  <time>2026-08-28T19:07:33Z</time>
  <course>70.64</course>
  <speed>0.02</speed>
  <fix>3d</fix>
</trkpt>
<trkpt lat="40.0728456" lon="-105.2305755">
  <ele>1586.08</ele>
  <time>2026-08-28T19:07:33Z</time>
  <course>356.05</course>
  <speed>0.0</speed>
  <fix>3d</fix>
</trkpt>
<trkpt lat="40.0728454" lon="-105.2305756">
  <ele>1586.16</ele>
  <time>2026-08-28T19:07:33Z</time>
  <course>70.64</course>
  <speed>0.02</speed>
  <fix>3d</fix>
</trkpt>
<trkpt lat="40.0728456" lon="-105.2305755">
  <ele>1586.08</ele>
  <time>2026-08-28T19:07:33Z</time>
  <course>357.16</course>
  <speed>0.0</speed>
  <fix>3d</fix>
</trkpt>
<trkpt lat="40.0728454" lon="-105.2305756">
  <ele>1586.16</ele>
  <time>2026-08-28T19:07:33Z</time>
  <course>70.64</course>
  <speed>0.02</speed>
  <fix>3d</fix>
</trkpt>
<trkpt lat="40.0728456" lon="-105.2305755">
  <ele>1586.08</ele>
  <time>2026-08-28T19:07:33Z</time>
  <course>358.28</course>
  <speed>0.0</speed>
  <fix>3d</fix>
</trkpt>
<trkpt lat="40.0728454" lon="-105.2305756">
  <ele>1586.16</ele>
  <time>2026-08-28T19:07:33Z</time>
  <course>70.64</course>
  <speed>0.02</speed>
  <fix>3d</fix>
</trkpt>
<trkpt lat="40.0728456" lon="-105.2305755">
  <ele>1586.08</ele>
  <time>2026-08-28T19:07:33Z</time>
  <course>359.42</course>
  <speed>0.0</speed>
  <fix>3d</fix>
</trkpt>
<trkpt lat="40.0728454" lon="-105.2305756">
  <ele>1586.16</ele>
  <time>2026-08-28T19:07:33Z</time>
  <course>70.64</course>
  <speed>0.02</speed>
  <fix>3d</fix>
</trkpt>
<trkpt lat="40.0728456" lon="-105.2305755">
  <ele>1586.08</ele>
  <time>2026-08-28T19:07:33Z</time>
  <course>0.57</course>
  <speed>0.0</speed>
  <fix>3d</fix>
</trkpt>
<trkpt lat="40.0728454" lon="-105.2305756">
  <ele>1586.16</ele>
  <time>2026-08-28T19:07:33Z</time>
  <course>70.64</course>
  <speed>0.02</speed>
  <fix>3d</fix>
</trkpt>
<trkpt lat="40.0728456" lon="-105.2305755">
  <ele>1586.08</ele>
  <time>2026-08-28T19:07:33Z</time>
  <course>1.73</course>
  <speed>0.0</speed>
  <fix>3d</fix>
</trkpt>
<trkpt lat="40.0728454" lon="-105.2305756">
  <ele>1586.17</ele>
  <time>2026-08-28T19:07:33Z</time>
  <course>70.64</course>
  <speed>0.02</speed>
  <fix>3d</fix>
</trkpt>
<trkpt lat="40.0728456" lon="-105.2305755">
  <ele>1586.08</ele>
  <time>2026-08-28T19:07:33Z</time>
  <course>2.9</course>
  <speed>0.0</speed>
  <fix>3d</fix>
</trkpt>
<trkpt lat="40.0728454" lon="-105.2305756">
  <ele>1586.17</ele>
  <time>2026-08-28T19:07:33Z</time>
  <course>70.64</course>
  <speed>0.02</speed>
  <fix>3d</fix>
</trkpt>
<trkpt lat="40.0728456" lon="-105.2305755">
  <ele>1586.08</ele>
  <time>2026-08-28T19:07:33Z</time>
  <course>4.06</course>
  <speed>0.0</speed>
  <fix>3d</fix>
</trkpt>
<trkpt lat="40.0728454" lon="-105.2305756">
  <ele>1586.17</ele>
  <time>2026-08-28T19:07:33Z</time>
  <course>70.64</course>
  <speed>0.02</speed>
  <fix>3d</fix>
</trkpt>
<trkpt lat="40.0728456" lon="-105.2305755">
  <ele>1586.08</ele>
  <time>2026-08-28T19:07:33Z</time>
  <course>5.22</course>
  <speed>0.0</speed>
  <fix>3d</fix>
</trkpt>
<trkpt lat="40.0728454" lon="-105.2305756">
  <ele>1586.17</ele>
  <time>2026-08-28T19:07:33Z</time>
  <course>70.64</course>
  <speed>0.02</speed>
  <fix>3d</fix>
</trkpt>
<trkpt lat="40.0728456" lon="-105.2305755">
  <ele>1586.08</ele>
  <time>2026-08-28T19:07:33Z</time>
  <course>6.38</course>
  <speed>0.0</speed>
  <fix>3d</fix>
</trkpt>
<trkpt lat="40.0728454" lon="-105.2305756">
  <ele>1586.17</ele>
  <time>2026-08-28T19:07:33Z</time>
  <course>70.65</course>
  <speed>0.02</speed>
  <fix>3d</fix>
</trkpt>
<trkpt lat="40.0728456" lon="-105.2305755">
  <ele>1586.08</ele>
  <time>2026-08-28T19:07:33Z</time>
  <course>7.52</course>
  <speed>0.0</speed>
  <fix>3d</fix>
</trkpt>
<trkpt lat="40.0728454" lon="-105.2305756">
  <ele>1586.17</ele>
  <time>2026-08-28T19:07:33Z</time>
  <course>70.65</course>
  <speed>0.02</speed>
  <fix>3d</fix>
</trkpt>
<trkpt lat="40.0728456" lon="-105.2305755">
  <ele>1586.08</ele>
  <time>2026-08-28T19:07:33Z</time>
  <course>8.64</course>
  <speed>0.0</speed>
  <fix>3d</fix>
</trkpt>
<trkpt lat="40.0728454" lon="-105.2305756">
  <ele>1586.17</ele>
  <time>2026-08-28T19:07:33Z</time>
  <course>70.65</course>
  <speed>0.02</speed>
  <fix>3d</fix>
</trkpt>
<trkpt lat="40.0728456" lon="-105.2305755">
  <ele>1586.08</ele>
  <time>2026-08-28T19:07:33Z</time>
  <course>9.75</course>
  <speed>0.0</speed>
  <fix>3d</fix>
</trkpt>
<trkpt lat="40.0728454" lon="-105.2305756">
  <ele>1586.17</ele>
  <time>2026-08-28T19:07:33Z</time>
  <course>70.65</course>
  <speed>0.02</speed>
  <fix>3d</fix>
</trkpt>
<trkpt lat="40.0728456" lon="-105.2305755">
  <ele>1586.08</ele>
  <time>2026-08-28T19:07:33Z</time>
  <course>10.84</course>
  <speed>0.0</speed>
  <fix>3d</fix>
</trkpt>
<trkpt lat="40.0728454" lon="-105.2305756">
  <ele>1586.16</ele>
  <time>2026-08-28T19:07:33Z</time>
  <course>70.65</course>
  <speed>0.02</speed>
  <fix>3d</fix>
</trkpt>
<trkpt lat="40.0728456" lon="-105.2305755">
  <ele>1586.08</ele>
  <time>2026-08-28T19:07:33Z</time>
  <course>11.9</course>
  <speed>0.0</speed>
  <fix>3d</fix>
</trkpt>
<trkpt lat="40.0728454" lon="-105.2305756">
  <ele>1586.16</ele>
  <time>2026-08-28T19:07:33Z</time>
  <course>70.65</course>
  <speed>0.02</speed>
  <fix>3d</fix>
</trkpt>
<trkpt lat="40.0728456" lon="-105.2305755">
  <ele>1586.08</ele>
  <time>2026-08-28T19:07:33Z</time>
  <course>12.94</course>
  <speed>0.0</speed>
  <fix>3d</fix>
</trkpt>
<trkpt lat="40.0728454" lon="-105.2305756">
  <ele>1586.16</ele>
  <time>2026-08-28T19:07:33Z</time>
  <course>70.65</course>
  <speed>0.02</speed>
  <fix>3d</fix>
</trkpt>
<trkpt lat="40.0728456" lon="-105.2305755">
  <ele>1586.08</ele>
  <time>2026-08-28T19:07:33Z</time>
  <course>13.61</course>
  <speed>0.0</speed>
  <fix>3d</fix>
</trkpt>
<trkpt lat="40.0728454" lon="-105.2305756">
  <ele>1586.16</ele>
  <time>2026-08-28T19:07:33Z</time>
  <course>70.65</course>
  <speed>0.02</speed>
  <fix>3d</fix>
</trkpt>
<trkpt lat="40.0728456" lon="-105.2305755">
  <ele>1586.08</ele>
  <time>2026-08-28T19:07:33Z</time>
  <course>9.16</course>
  <speed>0.0</speed>
  <fix>3d</fix>
</trkpt>
<trkpt lat="40.0728454" lon="-105.2305756">
  <ele>1586.16</ele>
  <time>2026-08-28T19:07:33Z</time>
  <course>70.65</course>
  <speed>0.02</speed>
  <fix>3d</fix>
</trkpt>
<trkpt lat="40.0728456" lon="-105.2305755">
  <ele>1586.08</ele>
  <time>2026-08-28T19:07:33Z</time>
  <course>5.14</course>
  <speed>0.0</speed>
  <fix>3d</fix>
</trkpt>
<trkpt lat="40.0728454" lon="-105.2305756">
  <ele>1586.16</ele>
  <time>2026-08-28T19:07:33Z</time>
  <course>70.65</course>
  <speed>0.02</speed>
  <fix>3d</fix>
</trkpt>
<trkpt lat="40.0728456" lon="-105.2305755">
  <ele>1586.08</ele>
  <time>2026-08-28T19:07:33Z</time>
  <course>5.32</course>
  <speed>0.0</speed>
  <fix>3d</fix>
</trkpt>
<trkpt lat="40.0728454" lon="-105.2305756">
  <ele>1586.15</ele>
  <time>2026-08-28T19:07:33Z</time>
  <course>70.66</course>
  <speed>0.02</speed>
  <fix>3d</fix>
</trkpt>
<trkpt lat="40.0728456" lon="-105.2305755">
  <ele>1586.08</ele>
  <time>2026-08-28T19:07:33Z</time>
  <course>342.99</course>
  <speed>0.0</speed>
  <fix>3d</fix>
</trkpt>
<trkpt lat="40.0728454" lon="-105.2305756">
  <ele>1586.15</ele>
  <time>2026-08-28T19:07:33Z</time>
  <course>70.68</course>
  <speed>0.02</speed>
  <fix>3d</fix>
</trkpt>
<trkpt lat="40.0728456" lon="-105.2305755">
  <ele>1586.08</ele>
  <time>2026-08-28T19:07:33Z</time>
  <course>342.74</course>
  <speed>0.0</speed>
  <fix>3d</fix>
</trkpt>
<trkpt lat="40.0728454" lon="-105.2305756">
  <ele>1586.15</ele>
  <time>2026-08-28T19:07:33Z</time>
  <course>70.7</course>
  <speed>0.02</speed>
  <fix>3d</fix>
</trkpt>
<trkpt lat="40.0728456" lon="-105.2305755">
  <ele>1586.08</ele>
  <time>2026-08-28T19:07:33Z</time>
  <course>45.56</course>
  <speed>0.0</speed>
  <fix>3d</fix>
</trkpt>
<trkpt lat="40.0728454" lon="-105.2305756">
  <ele>1586.15</ele>
  <time>2026-08-28T19:07:33Z</time>
  <course>70.72</course>
  <speed>0.02</speed>
  <fix>3d</fix>
</trkpt>
<trkpt lat="40.0728456" lon="-105.2305755">
  <ele>1586.08</ele>
  <time>2026-08-28T19:07:33Z</time>
  <course>133.51</course>
  <speed>0.0</speed>
  <fix>3d</fix>
</trkpt>
<trkpt lat="40.0728454" lon="-105.2305756">
  <ele>1586.16</ele>
  <time>2026-08-28T19:07:33Z</time>
  <course>70.74</course>
  <speed>0.02</speed>
  <fix>3d</fix>
</trkpt>
<trkpt lat="40.0728456" lon="-105.2305755">
  <ele>1586.08</ele>
  <time>2026-08-28T19:07:33Z</time>
  <course>23.61</course>
  <speed>0.0</speed>
  <fix>3d</fix>
</trkpt>
<trkpt lat="40.0728454" lon="-105.2305756">
  <ele>1586.16</ele>
  <time>2026-08-28T19:07:33Z</time>
  <course>70.76</course>
  <speed>0.02</speed>
  <fix>3d</fix>
</trkpt>
<trkpt lat="40.0728456" lon="-105.2305755">
  <ele>1586.08</ele>
  <time>2026-08-28T19:07:33Z</time>
  <course>24.76</course>
  <speed>0.0</speed>
  <fix>3d</fix>
</trkpt>
<trkpt lat="40.0728454" lon="-105.2305756">
  <ele>1586.16</ele>
  <time>2026-08-28T19:07:33Z</time>
  <course>70.78</course>
  <speed>0.02</speed>
  <fix>3d</fix>
</trkpt>
<trkpt lat="40.0728456" lon="-105.2305755">
  <ele>1586.08</ele>
  <time>2026-08-28T19:07:33Z</time>
  <course>38.9</course>
  <speed>0.0</speed>
  <fix>3d</fix>
</trkpt>
<trkpt lat="40.0728454" lon="-105.2305756">
  <ele>1586.16</ele>
  <time>2026-08-28T19:07:33Z</time>
  <course>70.8</course>
  <speed>0.02</speed>
  <fix>3d</fix>
</trkpt>
<trkpt lat="40.0728456" lon="-105.2305755">
  <ele>1586.08</ele>
  <time>2026-08-28T19:07:33Z</time>
  <course>36.69</course>
  <speed>0.0</speed>
  <fix>3d</fix>
</trkpt>
<trkpt lat="40.0728454" lon="-105.2305756">
  <ele>1586.16</ele>
  <time>2026-08-28T19:07:33Z</time>
  <course>70.82</course>
  <speed>0.02</speed>
  <fix>3d</fix>
</trkpt>
<trkpt lat="40.0728456" lon="-105.2305755">
  <ele>1586.08</ele>
  <time>2026-08-28T19:07:33Z</time>
  <course>34.81</course>
  <speed>0.0</speed>
  <fix>3d</fix>
</trkpt>
<trkpt lat="40.0728454" lon="-105.2305756">
  <ele>1586.17</ele>
  <time>2026-08-28T19:07:34Z</time>
  <course>70.91</course>
  <speed>0.01</speed>
  <fix>3d</fix>
</trkpt>
<trkpt lat="40.0728456" lon="-105.2305755">
  <ele>1586.08</ele>
  <time>2026-08-28T19:07:34Z</time>
  <course>35.4</course>
  <speed>0.0</speed>
  <fix>3d</fix>
</trkpt>
<trkpt lat="40.0728454" lon="-105.2305756">
  <ele>1586.17</ele>
  <time>2026-08-28T19:07:34Z</time>
  <course>70.93</course>
  <speed>0.01</speed>
  <fix>3d</fix>
</trkpt>
<trkpt lat="40.0728456" lon="-105.2305755">
  <ele>1586.08</ele>
  <time>2026-08-28T19:07:34Z</time>
  <course>35.41</course>
  <speed>0.0</speed>
  <fix>3d</fix>
</trkpt>
<trkpt lat="40.0728454" lon="-105.2305756">
  <ele>1586.17</ele>
  <time>2026-08-28T19:07:34Z</time>
  <course>70.95</course>
  <speed>0.01</speed>
  <fix>3d</fix>
</trkpt>
<trkpt lat="40.0728456" lon="-105.2305755">
  <ele>1586.08</ele>
  <time>2026-08-28T19:07:34Z</time>
  <course>35.41</course>
  <speed>0.0</speed>
  <fix>3d</fix>
</trkpt>
<trkpt lat="40.0728454" lon="-105.2305756">
  <ele>1586.16</ele>
  <time>2026-08-28T19:07:34Z</time>
  <course>70.98</course>
  <speed>0.01</speed>
  <fix>3d</fix>
</trkpt>
<trkpt lat="40.0728456" lon="-105.2305755">
  <ele>1586.08</ele>
  <time>2026-08-28T19:07:34Z</time>
  <course>35.41</course>
  <speed>0.0</speed>
  <fix>3d</fix>
</trkpt>
<trkpt lat="40.0728454" lon="-105.2305756">
  <ele>1586.16</ele>
  <time>2026-08-28T19:07:34Z</time>
  <course>71.0</course>
  <speed>0.01</speed>
  <fix>3d</fix>
</trkpt>
<trkpt lat="40.0728456" lon="-105.2305755">
  <ele>1586.08</ele>
  <time>2026-08-28T19:07:34Z</time>
  <course>35.41</course>
  <speed>0.0</speed>
  <fix>3d</fix>
</trkpt>
<trkpt lat="40.0728454" lon="-105.2305756">
  <ele>1586.16</ele>
  <time>2026-08-28T19:07:34Z</time>
  <course>71.02</course>
  <speed>0.01</speed>
  <fix>3d</fix>
</trkpt>
<trkpt lat="40.0728456" lon="-105.2305755">
  <ele>1586.08</ele>
  <time>2026-08-28T19:07:34Z</time>
  <course>35.41</course>
  <speed>0.0</speed>
  <fix>3d</fix>
</trkpt>
<trkpt lat="40.0728454" lon="-105.2305756">
  <ele>1586.15</ele>
  <time>2026-08-28T19:07:34Z</time>
  <course>71.04</course>
  <speed>0.01</speed>
  <fix>3d</fix>
</trkpt>
<trkpt lat="40.0728456" lon="-105.2305755">
  <ele>1586.08</ele>
  <time>2026-08-28T19:07:34Z</time>
  <course>35.41</course>
  <speed>0.0</speed>
  <fix>3d</fix>
</trkpt>
<trkpt lat="40.0728454" lon="-105.2305756">
  <ele>1586.15</ele>
  <time>2026-08-28T19:07:34Z</time>
  <course>71.06</course>
  <speed>0.01</speed>
  <fix>3d</fix>
</trkpt>
<trkpt lat="40.0728456" lon="-105.2305755">
  <ele>1586.08</ele>
  <time>2026-08-28T19:07:34Z</time>
  <course>30.75</course>
  <speed>0.0</speed>
  <fix>3d</fix>
</trkpt>
<trkpt lat="40.0728454" lon="-105.2305756">
  <ele>1586.15</ele>
  <time>2026-08-28T19:07:34Z</time>
  <course>71.09</course>
  <speed>0.01</speed>
  <fix>3d</fix>
</trkpt>
<trkpt lat="40.0728456" lon="-105.2305755">
  <ele>1586.08</ele>
  <time>2026-08-28T19:07:34Z</time>
  <course>21.23</course>
  <speed>0.0</speed>
  <fix>3d</fix>
</trkpt>
<trkpt lat="40.0728454" lon="-105.2305756">
  <ele>1586.14</ele>
  <time>2026-08-28T19:07:34Z</time>
  <course>71.11</course>
  <speed>0.01</speed>
  <fix>3d</fix>
</trkpt>
<trkpt lat="40.0728456" lon="-105.2305755">
  <ele>1586.08</ele>
  <time>2026-08-28T19:07:34Z</time>
  <course>207.26</course>
  <speed>0.0</speed>
  <fix>3d</fix>
</trkpt>
<trkpt lat="40.0728454" lon="-105.2305756">
  <ele>1586.14</ele>
  <time>2026-08-28T19:07:34Z</time>
  <course>71.13</course>
  <speed>0.01</speed>
  <fix>3d</fix>
</trkpt>
<trkpt lat="40.0728456" lon="-105.2305755">
  <ele>1586.08</ele>
  <time>2026-08-28T19:07:34Z</time>
  <course>65.55</course>
  <speed>0.0</speed>
  <fix>3d</fix>
</trkpt>
<trkpt lat="40.0728454" lon="-105.2305756">
  <ele>1586.14</ele>
  <time>2026-08-28T19:07:34Z</time>
  <course>71.15</course>
  <speed>0.01</speed>
  <fix>3d</fix>
</trkpt>
<trkpt lat="40.0728456" lon="-105.2305755">
  <ele>1586.08</ele>
  <time>2026-08-28T19:07:34Z</time>
  <course>24.75</course>
  <speed>0.0</speed>
  <fix>3d</fix>
</trkpt>
<trkpt lat="40.0728454" lon="-105.2305756">
  <ele>1586.14</ele>
  <time>2026-08-28T19:07:34Z</time>
  <course>71.17</course>
  <speed>0.01</speed>
  <fix>3d</fix>
</trkpt>
<trkpt lat="40.0728456" lon="-105.2305755">
  <ele>1586.08</ele>
  <time>2026-08-28T19:07:34Z</time>
  <course>17.44</course>
  <speed>0.0</speed>
  <fix>3d</fix>
</trkpt>
<trkpt lat="40.0728454" lon="-105.2305756">
  <ele>1586.14</ele>
  <time>2026-08-28T19:07:34Z</time>
  <course>71.2</course>
  <speed>0.01</speed>
  <fix>3d</fix>
</trkpt>
<trkpt lat="40.0728456" lon="-105.2305755">
  <ele>1586.08</ele>
  <time>2026-08-28T19:07:34Z</time>
  <course>42.03</course>
  <speed>0.0</speed>
  <fix>3d</fix>
</trkpt>
<trkpt lat="40.0728454" lon="-105.2305756">
  <ele>1586.13</ele>
  <time>2026-08-28T19:07:34Z</time>
  <course>71.22</course>
  <speed>0.01</speed>
  <fix>3d</fix>
</trkpt>
<trkpt lat="40.0728456" lon="-105.2305755">
  <ele>1586.08</ele>
  <time>2026-08-28T19:07:34Z</time>
  <course>36.0</course>
  <speed>0.0</speed>
  <fix>3d</fix>
</trkpt>
<trkpt lat="40.0728454" lon="-105.2305756">
  <ele>1586.13</ele>
  <time>2026-08-28T19:07:34Z</time>
  <course>71.24</course>
  <speed>0.01</speed>
  <fix>3d</fix>
</trkpt>
<trkpt lat="40.0728456" lon="-105.2305755">
  <ele>1586.08</ele>
  <time>2026-08-28T19:07:34Z</time>
  <course>34.62</course>
  <speed>0.0</speed>
  <fix>3d</fix>
</trkpt>
<trkpt lat="40.0728454" lon="-105.2305756">
  <ele>1586.13</ele>
  <time>2026-08-28T19:07:34Z</time>
  <course>71.26</course>
  <speed>0.01</speed>
  <fix>3d</fix>
</trkpt>
<trkpt lat="40.0728456" lon="-105.2305755">
  <ele>1586.08</ele>
  <time>2026-08-28T19:07:34Z</time>
  <course>35.41</course>
  <speed>0.0</speed>
  <fix>3d</fix>
</trkpt>
<trkpt lat="40.0728454" lon="-105.2305756">
  <ele>1586.13</ele>
  <time>2026-08-28T19:07:34Z</time>
  <course>71.29</course>
  <speed>0.01414213562373095</speed>
  <fix>3d</fix>
</trkpt>
<trkpt lat="40.0728456" lon="-105.2305755">
  <ele>1586.08</ele>
  <time>2026-08-28T19:07:34Z</time>
  <course>35.51</course>
  <speed>0.0</speed>
  <fix>3d</fix>
</trkpt>
<trkpt lat="40.0728454" lon="-105.2305756">
  <ele>1586.13</ele>
  <time>2026-08-28T19:07:34Z</time>
  <course>71.31</course>
  <speed>0.01414213562373095</speed>
  <fix>3d</fix>
</trkpt>
<trkpt lat="40.0728456" lon="-105.2305755">
  <ele>1586.08</ele>
  <time>2026-08-28T19:07:34Z</time>
  <course>22.76</course>
  <speed>0.0</speed>
  <fix>3d</fix>
</trkpt>
<trkpt lat="40.0728454" lon="-105.2305756">
  <ele>1586.13</ele>
  <time>2026-08-28T19:07:34Z</time>
  <course>71.33</course>
  <speed>0.022360679774997897</speed>
  <fix>3d</fix>
</trkpt>
<trkpt lat="40.0728456" lon="-105.2305755">
  <ele>1586.08</ele>
  <time>2026-08-28T19:07:34Z</time>
  <course>21.56</course>
  <speed>0.0</speed>
  <fix>3d</fix>
</trkpt>
<trkpt lat="40.0728454" lon="-105.2305756">
  <ele>1586.14</ele>
  <time>2026-08-28T19:07:34Z</time>
  <course>71.35</course>
  <speed>0.022360679774997897</speed>
  <fix>3d</fix>
</trkpt>
<trkpt lat="40.0728456" lon="-105.2305755">
  <ele>1586.08</ele>
  <time>2026-08-28T19:07:34Z</time>
  <course>23.72</course>
  <speed>0.0</speed>
  <fix>3d</fix>
</trkpt>
<trkpt lat="40.0728454" lon="-105.2305756">
  <ele>1586.14</ele>
  <time>2026-08-28T19:07:34Z</time>
  <course>71.38</course>
  <speed>0.022360679774997897</speed>
  <fix>3d</fix>
</trkpt>
<trkpt lat="40.0728456" lon="-105.2305755">
  <ele>1586.08</ele>
  <time>2026-08-28T19:07:34Z</time>
  <course>192.41</course>
  <speed>0.0</speed>
  <fix>3d</fix>
</trkpt>
<trkpt lat="40.0728454" lon="-105.2305756">
  <ele>1586.15</ele>
  <time>2026-08-28T19:07:34Z</time>
  <course>71.4</course>
  <speed>0.022360679774997897</speed>
  <fix>3d</fix>
</trkpt>
<trkpt lat="40.0728456" lon="-105.2305755">
  <ele>1586.08</ele>
  <time>2026-08-28T19:07:34Z</time>
  <course>41.21</course>
  <speed>0.0</speed>
  <fix>3d</fix>
</trkpt>
<trkpt lat="40.0728454" lon="-105.2305756">
  <ele>1586.15</ele>
  <time>2026-08-28T19:07:34Z</time>
  <course>71.42</course>
  <speed>0.022360679774997897</speed>
  <fix>3d</fix>
</trkpt>
<trkpt lat="40.0728456" lon="-105.2305755">
  <ele>1586.08</ele>
  <time>2026-08-28T19:07:34Z</time>
  <course>31.04</course>
  <speed>0.0</speed>
  <fix>3d</fix>
</trkpt>
<trkpt lat="40.0728454" lon="-105.2305756">
  <ele>1586.15</ele>
  <time>2026-08-28T19:07:34Z</time>
  <course>71.45</course>
  <speed>0.022360679774997897</speed>
  <fix>3d</fix>
</trkpt>
<trkpt lat="40.0728456" lon="-105.2305755">
  <ele>1586.08</ele>
  <time>2026-08-28T19:07:34Z</time>
  <course>267.72</course>
  <speed>0.0</speed>
  <fix>3d</fix>
</trkpt>
<trkpt lat="40.0728454" lon="-105.2305756">
  <ele>1586.15</ele>
  <time>2026-08-28T19:07:34Z</time>
  <course>71.47</course>
  <speed>0.022360679774997897</speed>
  <fix>3d</fix>
</trkpt>
<trkpt lat="40.0728456" lon="-105.2305755">
  <ele>1586.08</ele>
  <time>2026-08-28T19:07:34Z</time>
  <course>201.44</course>
  <speed>0.0</speed>
  <fix>3d</fix>
</trkpt>
<trkpt lat="40.0728454" lon="-105.2305756">
  <ele>1586.15</ele>
  <time>2026-08-28T19:07:34Z</time>
  <course>71.49</course>
  <speed>0.022360679774997897</speed>
  <fix>3d</fix>
</trkpt>
<trkpt lat="40.0728456" lon="-105.2305755">
  <ele>1586.08</ele>
  <time>2026-08-28T19:07:34Z</time>
  <course>40.17</course>
  <speed>0.0</speed>
  <fix>3d</fix>
</trkpt>
<trkpt lat="40.0728454" lon="-105.2305756">
  <ele>1586.15</ele>
  <time>2026-08-28T19:07:34Z</time>
  <course>71.51</course>
  <speed>0.022360679774997897</speed>
  <fix>3d</fix>
</trkpt>
<trkpt lat="40.0728456" lon="-105.2305755">
  <ele>1586.08</ele>
  <time>2026-08-28T19:07:34Z</time>
  <course>27.7</course>
  <speed>0.0</speed>
  <fix>3d</fix>
</trkpt>
<trkpt lat="40.0728454" lon="-105.2305756">
  <ele>1586.15</ele>
  <time>2026-08-28T19:07:34Z</time>
  <course>71.54</course>
  <speed>0.022360679774997897</speed>
  <fix>3d</fix>
</trkpt>
<trkpt lat="40.0728456" lon="-105.2305755">
  <ele>1586.08</ele>
  <time>2026-08-28T19:07:34Z</time>
  <course>35.47</course>
  <speed>0.0</speed>
  <fix>3d</fix>
</trkpt>
<trkpt lat="40.0728454" lon="-105.2305756">
  <ele>1586.15</ele>
  <time>2026-08-28T19:07:34Z</time>
  <course>71.56</course>
  <speed>0.022360679774997897</speed>
  <fix>3d</fix>
</trkpt>
<trkpt lat="40.0728456" lon="-105.2305755">
  <ele>1586.08</ele>
  <time>2026-08-28T19:07:34Z</time>
  <course>346.13</course>
  <speed>0.0</speed>
  <fix>3d</fix>
</trkpt>
<trkpt lat="40.0728454" lon="-105.2305756">
  <ele>1586.15</ele>
  <time>2026-08-28T19:07:34Z</time>
  <course>71.58</course>
  <speed>0.022360679774997897</speed>
  <fix>3d</fix>
</trkpt>
<trkpt lat="40.0728456" lon="-105.2305755">
  <ele>1586.08</ele>
  <time>2026-08-28T19:07:34Z</time>
  <course>330.91</course>
  <speed>0.0</speed>
  <fix>3d</fix>
</trkpt>
<trkpt lat="40.0728454" lon="-105.2305756">
  <ele>1586.15</ele>
  <time>2026-08-28T19:07:34Z</time>
  <course>71.61</course>
  <speed>0.022360679774997897</speed>
  <fix>3d</fix>
</trkpt>
<trkpt lat="40.0728456" lon="-105.2305755">
  <ele>1586.08</ele>
  <time>2026-08-28T19:07:34Z</time>
  <course>309.49</course>
  <speed>0.0</speed>
  <fix>3d</fix>
</trkpt>
<trkpt lat="40.0728454" lon="-105.2305756">
  <ele>1586.15</ele>
  <time>2026-08-28T19:07:34Z</time>
  <course>71.63</course>
  <speed>0.022360679774997897</speed>
  <fix>3d</fix>
</trkpt>
<trkpt lat="40.0728456" lon="-105.2305755">
  <ele>1586.08</ele>
  <time>2026-08-28T19:07:34Z</time>
  <course>309.72</course>
  <speed>0.0</speed>
  <fix>3d</fix>
</trkpt>
<trkpt lat="40.0728454" lon="-105.2305756">
  <ele>1586.15</ele>
  <time>2026-08-28T19:07:34Z</time>
  <course>71.65</course>
  <speed>0.022360679774997897</speed>
  <fix>3d</fix>
</trkpt>
<trkpt lat="40.0728456" lon="-105.2305755">
  <ele>1586.08</ele>
  <time>2026-08-28T19:07:34Z</time>
  <course>331.68</course>
  <speed>0.0</speed>
  <fix>3d</fix>
</trkpt>
<trkpt lat="40.0728454" lon="-105.2305756">
  <ele>1586.15</ele>
  <time>2026-08-28T19:07:34Z</time>
  <course>71.68</course>
  <speed>0.022360679774997897</speed>
  <fix>3d</fix>
</trkpt>
<trkpt lat="40.0728456" lon="-105.2305755">
  <ele>1586.08</ele>
  <time>2026-08-28T19:07:34Z</time>
  <course>332.39</course>
  <speed>0.0</speed>
  <fix>3d</fix>
</trkpt>
<trkpt lat="40.0728454" lon="-105.2305756">
  <ele>1586.15</ele>
  <time>2026-08-28T19:07:34Z</time>
  <course>71.7</course>
  <speed>0.022360679774997897</speed>
  <fix>3d</fix>
</trkpt>
<trkpt lat="40.0728456" lon="-105.2305755">
  <ele>1586.08</ele>
  <time>2026-08-28T19:07:34Z</time>
  <course>140.12</course>
  <speed>0.0</speed>
  <fix>3d</fix>
</trkpt>
<trkpt lat="40.0728454" lon="-105.2305756">
  <ele>1586.15</ele>
  <time>2026-08-28T19:07:34Z</time>
  <course>71.72</course>
  <speed>0.022360679774997897</speed>
  <fix>3d</fix>
</trkpt>
<trkpt lat="40.0728456" lon="-105.2305755">
  <ele>1586.08</ele>
  <time>2026-08-28T19:07:34Z</time>
  <course>54.73</course>
  <speed>0.0</speed>
  <fix>3d</fix>
</trkpt>
<trkpt lat="40.0728454" lon="-105.2305756">
  <ele>1586.15</ele>
  <time>2026-08-28T19:07:34Z</time>
  <course>71.74</course>
  <speed>0.022360679774997897</speed>
  <fix>3d</fix>
</trkpt>
<trkpt lat="40.0728456" lon="-105.2305755">
  <ele>1586.08</ele>
  <time>2026-08-28T19:07:34Z</time>
  <course>11.45</course>
  <speed>0.0</speed>
  <fix>3d</fix>
</trkpt>
<trkpt lat="40.0728454" lon="-105.2305756">
  <ele>1586.15</ele>
  <time>2026-08-28T19:07:34Z</time>
  <course>71.76</course>
  <speed>0.022360679774997897</speed>
  <fix>3d</fix>
</trkpt>
<trkpt lat="40.0728456" lon="-105.2305755">
  <ele>1586.08</ele>
  <time>2026-08-28T19:07:34Z</time>
  <course>14.11</course>
  <speed>0.0</speed>
  <fix>3d</fix>
</trkpt>
<trkpt lat="40.0728454" lon="-105.2305756">
  <ele>1586.15</ele>
  <time>2026-08-28T19:07:34Z</time>
  <course>71.78</course>
  <speed>0.022360679774997897</speed>
  <fix>3d</fix>
</trkpt>
<trkpt lat="40.0728456" lon="-105.2305755">
  <ele>1586.08</ele>
  <time>2026-08-28T19:07:34Z</time>
  <course>20.18</course>
  <speed>0.0</speed>
  <fix>3d</fix>
</trkpt>
<trkpt lat="40.0728454" lon="-105.2305756">
  <ele>1586.15</ele>
  <time>2026-08-28T19:07:34Z</time>
  <course>71.8</course>
  <speed>0.01414213562373095</speed>
  <fix>3d</fix>
</trkpt>
<trkpt lat="40.0728456" lon="-105.2305755">
  <ele>1586.08</ele>
  <time>2026-08-28T19:07:34Z</time>
  <course>21.38</course>
  <speed>0.0</speed>
  <fix>3d</fix>
</trkpt>
<trkpt lat="40.0728454" lon="-105.2305756">
  <ele>1586.15</ele>
  <time>2026-08-28T19:07:34Z</time>
  <course>71.82</course>
  <speed>0.01414213562373095</speed>
  <fix>3d</fix>
</trkpt>
<trkpt lat="40.0728456" lon="-105.2305755">
  <ele>1586.08</ele>
  <time>2026-08-28T19:07:34Z</time>
  <course>24.49</course>
  <speed>0.0</speed>
  <fix>3d</fix>
</trkpt>
<trkpt lat="40.0728454" lon="-105.2305756">
  <ele>1586.15</ele>
  <time>2026-08-28T19:07:34Z</time>
  <course>71.83</course>
  <speed>0.01414213562373095</speed>
  <fix>3d</fix>
</trkpt>
<trkpt lat="40.0728456" lon="-105.2305755">
  <ele>1586.08</ele>
  <time>2026-08-28T19:07:34Z</time>
  <course>31.92</course>
  <speed>0.0</speed>
  <fix>3d</fix>
</trkpt>
<trkpt lat="40.0728454" lon="-105.2305756">
  <ele>1586.15</ele>
  <time>2026-08-28T19:07:34Z</time>
  <course>71.84</course>
  <speed>0.01414213562373095</speed>
  <fix>3d</fix>
</trkpt>
<trkpt lat="40.0728456" lon="-105.2305755">
  <ele>1586.08</ele>
  <time>2026-08-28T19:07:34Z</time>
  <course>44.34</course>
  <speed>0.0</speed>
  <fix>3d</fix>
</trkpt>
<trkpt lat="40.0728454" lon="-105.2305756">
  <ele>1586.15</ele>
  <time>2026-08-28T19:07:34Z</time>
  <course>71.85</course>
  <speed>0.01414213562373095</speed>
  <fix>3d</fix>
</trkpt>
<trkpt lat="40.0728456" lon="-105.2305755">
  <ele>1586.08</ele>
  <time>2026-08-28T19:07:34Z</time>
  <course>63.45</course>
  <speed>0.0</speed>
  <fix>3d</fix>
</trkpt>
<trkpt lat="40.0728454" lon="-105.2305756">
  <ele>1586.15</ele>
  <time>2026-08-28T19:07:34Z</time>
  <course>71.86</course>
  <speed>0.01414213562373095</speed>
  <fix>3d</fix>
</trkpt>
<trkpt lat="40.0728456" lon="-105.2305755">
  <ele>1586.08</ele>
  <time>2026-08-28T19:07:34Z</time>
  <course>86.81</course>
  <speed>0.0</speed>
  <fix>3d</fix>
</trkpt>
<trkpt lat="40.0728454" lon="-105.2305756">
  <ele>1586.15</ele>
  <time>2026-08-28T19:07:34Z</time>
  <course>71.87</course>
  <speed>0.01414213562373095</speed>
  <fix>3d</fix>
</trkpt>
<trkpt lat="40.0728456" lon="-105.2305755">
  <ele>1586.08</ele>
  <time>2026-08-28T19:07:34Z</time>
  <course>148.11</course>
  <speed>0.0</speed>
  <fix>3d</fix>
</trkpt>
<trkpt lat="40.0728454" lon="-105.2305756">
  <ele>1586.15</ele>
  <time>2026-08-28T19:07:34Z</time>
  <course>71.88</course>
  <speed>0.01414213562373095</speed>
  <fix>3d</fix>
</trkpt>
<trkpt lat="40.0728456" lon="-105.2305755">
  <ele>1586.08</ele>
  <time>2026-08-28T19:07:34Z</time>
  <course>151.92</course>
  <speed>0.0</speed>
  <fix>3d</fix>
</trkpt>
<trkpt lat="40.0728454" lon="-105.2305756">
  <ele>1586.15</ele>
  <time>2026-08-28T19:07:34Z</time>
  <course>71.88</course>
  <speed>0.022360679774997897</speed>
  <fix>3d</fix>
</trkpt>
<trkpt lat="40.0728456" lon="-105.2305755">
  <ele>1586.08</ele>
  <time>2026-08-28T19:07:34Z</time>
  <course>147.64</course>
  <speed>0.0</speed>
  <fix>3d</fix>
</trkpt>
<trkpt lat="40.0728454" lon="-105.2305756">
  <ele>1586.15</ele>
  <time>2026-08-28T19:07:34Z</time>
  <course>71.88</course>
  <speed>0.022360679774997897</speed>
  <fix>3d</fix>
</trkpt>
<trkpt lat="40.0728456" lon="-105.2305755">
  <ele>1586.08</ele>
  <time>2026-08-28T19:07:34Z</time>
  <course>148.04</course>
  <speed>0.0</speed>
  <fix>3d</fix>
</trkpt>
<trkpt lat="40.0728454" lon="-105.2305756">
  <ele>1586.15</ele>
  <time>2026-08-28T19:07:34Z</time>
  <course>71.89</course>
  <speed>0.022360679774997897</speed>
  <fix>3d</fix>
</trkpt>
<trkpt lat="40.0728456" lon="-105.2305755">
  <ele>1586.08</ele>
  <time>2026-08-28T19:07:34Z</time>
  <course>150.17</course>
  <speed>0.0</speed>
  <fix>3d</fix>
</trkpt>
<trkpt lat="40.0728454" lon="-105.2305756">
  <ele>1586.15</ele>
  <time>2026-08-28T19:07:34Z</time>
  <course>71.89</course>
  <speed>0.01414213562373095</speed>
  <fix>3d</fix>
</trkpt>
<trkpt lat="40.0728456" lon="-105.2305755">
  <ele>1586.08</ele>
  <time>2026-08-28T19:07:34Z</time>
  <course>150.81</course>
  <speed>0.0</speed>
  <fix>3d</fix>
</trkpt>
<trkpt lat="40.0728454" lon="-105.2305756">
  <ele>1586.15</ele>
  <time>2026-08-28T19:07:34Z</time>
  <course>71.88</course>
  <speed>0.022360679774997897</speed>
  <fix>3d</fix>
</trkpt>
<trkpt lat="40.0728456" lon="-105.2305755">
  <ele>1586.08</ele>
  <time>2026-08-28T19:07:34Z</time>
  <course>151.08</course>
  <speed>0.0</speed>
  <fix>3d</fix>
</trkpt>
<trkpt lat="40.0728454" lon="-105.2305756">
  <ele>1586.15</ele>
  <time>2026-08-28T19:07:34Z</time>
  <course>71.88</course>
  <speed>0.022360679774997897</speed>
  <fix>3d</fix>
</trkpt>
<trkpt lat="40.0728456" lon="-105.2305755">
  <ele>1586.08</ele>
  <time>2026-08-28T19:07:34Z</time>
  <course>151.27</course>
  <speed>0.0</speed>
  <fix>3d</fix>
</trkpt>
<trkpt lat="40.0728454" lon="-105.2305756">
  <ele>1586.15</ele>
  <time>2026-08-28T19:07:34Z</time>
  <course>71.87</course>
  <speed>0.022360679774997897</speed>
  <fix>3d</fix>
</trkpt>
<trkpt lat="40.0728456" lon="-105.2305755">
  <ele>1586.08</ele>
  <time>2026-08-28T19:07:34Z</time>
  <course>151.33</course>
  <speed>0.0</speed>
  <fix>3d</fix>
</trkpt>
<trkpt lat="40.0728454" lon="-105.2305756">
  <ele>1586.15</ele>
  <time>2026-08-28T19:07:34Z</time>
  <course>71.87</course>
  <speed>0.022360679774997897</speed>
  <fix>3d</fix>
</trkpt>
<trkpt lat="40.0728456" lon="-105.2305755">
  <ele>1586.08</ele>
  <time>2026-08-28T19:07:34Z</time>
  <course>344.22</course>
  <speed>0.0</speed>
  <fix>3d</fix>
</trkpt>
<trkpt lat="40.0728454" lon="-105.2305756">
  <ele>1586.15</ele>
  <time>2026-08-28T19:07:34Z</time>
  <course>71.86</course>
  <speed>0.022360679774997897</speed>
  <fix>3d</fix>
</trkpt>
<trkpt lat="40.0728456" lon="-105.2305755">
  <ele>1586.08</ele>
  <time>2026-08-28T19:07:34Z</time>
  <course>342.74</course>
  <speed>0.0</speed>
  <fix>3d</fix>
</trkpt>
<trkpt lat="40.0728454" lon="-105.2305756">
  <ele>1586.15</ele>
  <time>2026-08-28T19:07:34Z</time>
  <course>71.85</course>
  <speed>0.022360679774997897</speed>
  <fix>3d</fix>
</trkpt>
<trkpt lat="40.0728456" lon="-105.2305755">
  <ele>1586.08</ele>
  <time>2026-08-28T19:07:34Z</time>
  <course>123.77</course>
  <speed>0.0</speed>
  <fix>3d</fix>
</trkpt>
<trkpt lat="40.0728454" lon="-105.2305756">
  <ele>1586.15</ele>
  <time>2026-08-28T19:07:34Z</time>
  <course>71.84</course>
  <speed>0.022360679774997897</speed>
  <fix>3d</fix>
</trkpt>
<trkpt lat="40.0728456" lon="-105.2305755">
  <ele>1586.08</ele>
  <time>2026-08-28T19:07:34Z</time>
  <course>149.82</course>
  <speed>0.0</speed>
  <fix>3d</fix>
</trkpt>
<trkpt lat="40.0728454" lon="-105.2305756">
  <ele>1586.16</ele>
  <time>2026-08-28T19:07:34Z</time>
  <course>71.82</course>
  <speed>0.022360679774997897</speed>
  <fix>3d</fix>
</trkpt>
<trkpt lat="40.0728456" lon="-105.2305755">
  <ele>1586.08</ele>
  <time>2026-08-28T19:07:34Z</time>
  <course>137.23</course>
  <speed>0.0</speed>
  <fix>3d</fix>
</trkpt>
<trkpt lat="40.0728454" lon="-105.2305756">
  <ele>1586.16</ele>
  <time>2026-08-28T19:07:34Z</time>
  <course>71.81</course>
  <speed>0.022360679774997897</speed>
  <fix>3d</fix>
</trkpt>
<trkpt lat="40.0728456" lon="-105.2305755">
  <ele>1586.08</ele>
  <time>2026-08-28T19:07:34Z</time>
  <course>135.09</course>
  <speed>0.0</speed>
  <fix>3d</fix>
</trkpt>
<trkpt lat="40.0728454" lon="-105.2305756">
  <ele>1586.16</ele>
  <time>2026-08-28T19:07:34Z</time>
  <course>71.79</course>
  <speed>0.022360679774997897</speed>
  <fix>3d</fix>
</trkpt>
<trkpt lat="40.0728456" lon="-105.2305755">
  <ele>1586.08</ele>
  <time>2026-08-28T19:07:34Z</time>
  <course>138.76</course>
  <speed>0.0</speed>
  <fix>3d</fix>
</trkpt>
<trkpt lat="40.0728454" lon="-105.2305756">
  <ele>1586.16</ele>
  <time>2026-08-28T19:07:34Z</time>
  <course>71.78</course>
  <speed>0.022360679774997897</speed>
  <fix>3d</fix>
</trkpt>
<trkpt lat="40.0728456" lon="-105.2305755">
  <ele>1586.08</ele>
  <time>2026-08-28T19:07:34Z</time>
  <course>347.88</course>
  <speed>0.0</speed>
  <fix>3d</fix>
</trkpt>
<trkpt lat="40.0728454" lon="-105.2305756">
  <ele>1586.15</ele>
  <time>2026-08-28T19:07:34Z</time>
  <course>71.76</course>
  <speed>0.022360679774997897</speed>
  <fix>3d</fix>
</trkpt>
<trkpt lat="40.0728456" lon="-105.2305755">
  <ele>1586.08</ele>
  <time>2026-08-28T19:07:34Z</time>
  <course>341.31</course>
  <speed>0.0</speed>
  <fix>3d</fix>
</trkpt>
<trkpt lat="40.0728454" lon="-105.2305756">
  <ele>1586.15</ele>
  <time>2026-08-28T19:07:34Z</time>
  <course>71.74</course>
  <speed>0.022360679774997897</speed>
  <fix>3d</fix>
</trkpt>
<trkpt lat="40.0728456" lon="-105.2305755">
  <ele>1586.08</ele>
  <time>2026-08-28T19:07:34Z</time>
  <course>342.28</course>
  <speed>0.0</speed>
  <fix>3d</fix>
</trkpt>
<trkpt lat="40.0728454" lon="-105.2305756">
  <ele>1586.15</ele>
  <time>2026-08-28T19:07:34Z</time>
  <course>71.71</course>
  <speed>0.022360679774997897</speed>
  <fix>3d</fix>
</trkpt>
<trkpt lat="40.0728456" lon="-105.2305755">
  <ele>1586.08</ele>
  <time>2026-08-28T19:07:34Z</time>
  <course>148.09</course>
  <speed>0.0</speed>
  <fix>3d</fix>
</trkpt>
<trkpt lat="40.0728454" lon="-105.2305756">
  <ele>1586.15</ele>
  <time>2026-08-28T19:07:34Z</time>
  <course>71.69</course>
  <speed>0.022360679774997897</speed>
  <fix>3d</fix>
</trkpt>
<trkpt lat="40.0728456" lon="-105.2305755">
  <ele>1586.08</ele>
  <time>2026-08-28T19:07:34Z</time>
  <course>88.24</course>
  <speed>0.0</speed>
  <fix>3d</fix>
</trkpt>
<trkpt lat="40.0728454" lon="-105.2305756">
  <ele>1586.15</ele>
  <time>2026-08-28T19:07:34Z</time>
  <course>71.67</course>
  <speed>0.022360679774997897</speed>
  <fix>3d</fix>
</trkpt>
<trkpt lat="40.0728456" lon="-105.2305755">
  <ele>1586.08</ele>
  <time>2026-08-28T19:07:34Z</time>
  <course>1.06</course>
  <speed>0.0</speed>
  <fix>3d</fix>
</trkpt>
<trkpt lat="40.0728454" lon="-105.2305756">
  <ele>1586.15</ele>
  <time>2026-08-28T19:07:34Z</time>
  <course>71.64</course>
  <speed>0.022360679774997897</speed>
  <fix>3d</fix>
</trkpt>
<trkpt lat="40.0728456" lon="-105.2305755">
  <ele>1586.08</ele>
  <time>2026-08-28T19:07:34Z</time>
  <course>11.96</course>
  <speed>0.0</speed>
  <fix>3d</fix>
</trkpt>
<trkpt lat="40.0728454" lon="-105.2305756">
  <ele>1586.15</ele>
  <time>2026-08-28T19:07:34Z</time>
  <course>71.61</course>
  <speed>0.022360679774997897</speed>
  <fix>3d</fix>
</trkpt>
<trkpt lat="40.0728456" lon="-105.2305755">
  <ele>1586.08</ele>
  <time>2026-08-28T19:07:34Z</time>
  <course>16.9</course>
  <speed>0.0</speed>
  <fix>3d</fix>
</trkpt>
<trkpt lat="40.0728454" lon="-105.2305756">
  <ele>1586.15</ele>
  <time>2026-08-28T19:07:34Z</time>
  <course>71.58</course>
  <speed>0.022360679774997897</speed>
  <fix>3d</fix>
</trkpt>
<trkpt lat="40.0728456" lon="-105.2305755">
  <ele>1586.08</ele>
  <time>2026-08-28T19:07:34Z</time>
  <course>13.56</course>
  <speed>0.0</speed>
  <fix>3d</fix>
</trkpt>
<trkpt lat="40.0728454" lon="-105.2305756">
  <ele>1586.15</ele>
  <time>2026-08-28T19:07:34Z</time>
  <course>71.55</course>
  <speed>0.022360679774997897</speed>
  <fix>3d</fix>
</trkpt>
<trkpt lat="40.0728456" lon="-105.2305755">
  <ele>1586.08</ele>
  <time>2026-08-28T19:07:34Z</time>
  <course>340.16</course>
  <speed>0.0</speed>
  <fix>3d</fix>
</trkpt>
<trkpt lat="40.0728454" lon="-105.2305756">
  <ele>1586.15</ele>
  <time>2026-08-28T19:07:34Z</time>
  <course>71.52</course>
  <speed>0.022360679774997897</speed>
  <fix>3d</fix>
</trkpt>
<trkpt lat="40.0728456" lon="-105.2305755">
  <ele>1586.08</ele>
  <time>2026-08-28T19:07:34Z</time>
  <course>339.96</course>
  <speed>0.0</speed>
  <fix>3d</fix>
</trkpt>
<trkpt lat="40.0728454" lon="-105.2305756">
  <ele>1586.15</ele>
  <time>2026-08-28T19:07:34Z</time>
  <course>71.48</course>
  <speed>0.022360679774997897</speed>
  <fix>3d</fix>
</trkpt>
<trkpt lat="40.0728456" lon="-105.2305755">
  <ele>1586.08</ele>
  <time>2026-08-28T19:07:34Z</time>
  <course>350.24</course>
  <speed>0.0</speed>
  <fix>3d</fix>
</trkpt>
<trkpt lat="40.0728454" lon="-105.2305756">
  <ele>1586.15</ele>
  <time>2026-08-28T19:07:34Z</time>
  <course>71.45</course>
  <speed>0.022360679774997897</speed>
  <fix>3d</fix>
</trkpt>
<trkpt lat="40.0728456" lon="-105.2305755">
  <ele>1586.08</ele>
  <time>2026-08-28T19:07:34Z</time>
  <course>339.82</course>
  <speed>0.0</speed>
  <fix>3d</fix>
</trkpt>
<trkpt lat="40.0728454" lon="-105.2305756">
  <ele>1586.15</ele>
  <time>2026-08-28T19:07:34Z</time>
  <course>71.41</course>
  <speed>0.022360679774997897</speed>
  <fix>3d</fix>
</trkpt>
<trkpt lat="40.0728456" lon="-105.2305755">
  <ele>1586.08</ele>
  <time>2026-08-28T19:07:34Z</time>
  <course>339.57</course>
  <speed>0.0</speed>
  <fix>3d</fix>
</trkpt>
<trkpt lat="40.0728454" lon="-105.2305756">
  <ele>1586.15</ele>
  <time>2026-08-28T19:07:34Z</time>
  <course>71.38</course>
  <speed>0.022360679774997897</speed>
  <fix>3d</fix>
</trkpt>
<trkpt lat="40.0728456" lon="-105.2305755">
  <ele>1586.08</ele>
  <time>2026-08-28T19:07:34Z</time>
  <course>342.54</course>
  <speed>0.0</speed>
  <fix>3d</fix>
</trkpt>
<trkpt lat="40.0728454" lon="-105.2305756">
  <ele>1586.15</ele>
  <time>2026-08-28T19:07:34Z</time>
  <course>71.34</course>
  <speed>0.022360679774997897</speed>
  <fix>3d</fix>
</trkpt>
<trkpt lat="40.0728456" lon="-105.2305755">
  <ele>1586.08</ele>
  <time>2026-08-28T19:07:34Z</time>
  <course>339.51</course>
  <speed>0.0</speed>
  <fix>3d</fix>
</trkpt>
<trkpt lat="40.0728454" lon="-105.2305756">
  <ele>1586.15</ele>
  <time>2026-08-28T19:07:34Z</time>
  <course>71.3</course>
  <speed>0.022360679774997897</speed>
  <fix>3d</fix>
</trkpt>
<trkpt lat="40.0728456" lon="-105.2305755">
  <ele>1586.08</ele>
  <time>2026-08-28T19:07:34Z</time>
  <course>339.47</course>
  <speed>0.0</speed>
  <fix>3d</fix>
</trkpt>
<trkpt lat="40.0728454" lon="-105.2305756">
  <ele>1586.15</ele>
  <time>2026-08-28T19:07:34Z</time>
  <course>71.27</course>
  <speed>0.022360679774997897</speed>
  <fix>3d</fix>
</trkpt>
<trkpt lat="40.0728456" lon="-105.2305755">
  <ele>1586.08</ele>
  <time>2026-08-28T19:07:34Z</time>
  <course>339.26</course>
  <speed>0.0</speed>
  <fix>3d</fix>
</trkpt>
<trkpt lat="40.0728454" lon="-105.2305756">
  <ele>1586.15</ele>
  <time>2026-08-28T19:07:34Z</time>
  <course>71.23</course>
  <speed>0.022360679774997897</speed>
  <fix>3d</fix>
</trkpt>
<trkpt lat="40.0728456" lon="-105.2305755">
  <ele>1586.08</ele>
  <time>2026-08-28T19:07:34Z</time>
  <course>338.97</course>
  <speed>0.0</speed>
  <fix>3d</fix>
</trkpt>
<trkpt lat="40.0728454" lon="-105.2305756">
  <ele>1586.15</ele>
  <time>2026-08-28T19:07:34Z</time>
  <course>71.2</course>
  <speed>0.022360679774997897</speed>
  <fix>3d</fix>
</trkpt>
<trkpt lat="40.0728456" lon="-105.2305755">
  <ele>1586.08</ele>
  <time>2026-08-28T19:07:34Z</time>
  <course>339.79</course>
  <speed>0.0</speed>
  <fix>3d</fix>
</trkpt>
<trkpt lat="40.0728454" lon="-105.2305756">
  <ele>1586.15</ele>
  <time>2026-08-28T19:07:34Z</time>
  <course>71.16</course>
  <speed>0.022360679774997897</speed>
  <fix>3d</fix>
</trkpt>
<trkpt lat="40.0728456" lon="-105.2305755">
  <ele>1586.08</ele>
  <time>2026-08-28T19:07:34Z</time>
  <course>339.02</course>
  <speed>0.0</speed>
  <fix>3d</fix>
</trkpt>
<trkpt lat="40.0728454" lon="-105.2305756">
  <ele>1586.15</ele>
  <time>2026-08-28T19:07:34Z</time>
  <course>71.13</course>
  <speed>0.022360679774997897</speed>
  <fix>3d</fix>
</trkpt>
<trkpt lat="40.0728456" lon="-105.2305755">
  <ele>1586.08</ele>
  <time>2026-08-28T19:07:34Z</time>
  <course>338.71</course>
  <speed>0.0</speed>
  <fix>3d</fix>
</trkpt>
<trkpt lat="40.0728454" lon="-105.2305756">
  <ele>1586.15</ele>
  <time>2026-08-28T19:07:34Z</time>
  <course>71.09</course>
  <speed>0.022360679774997897</speed>
  <fix>3d</fix>
</trkpt>
<trkpt lat="40.0728456" lon="-105.2305755">
  <ele>1586.08</ele>
  <time>2026-08-28T19:07:34Z</time>
  <course>331.13</course>
  <speed>0.0</speed>
  <fix>3d</fix>
</trkpt>
<trkpt lat="40.0728454" lon="-105.2305756">
  <ele>1586.15</ele>
  <time>2026-08-28T19:07:34Z</time>
  <course>71.07</course>
  <speed>0.022360679774997897</speed>
  <fix>3d</fix>
</trkpt>
<trkpt lat="40.0728456" lon="-105.2305755">
  <ele>1586.08</ele>
  <time>2026-08-28T19:07:34Z</time>
  <course>334.3</course>
  <speed>0.0</speed>
  <fix>3d</fix>
</trkpt>
<trkpt lat="40.0728454" lon="-105.2305756">
  <ele>1586.15</ele>
  <time>2026-08-28T19:07:34Z</time>
  <course>71.04</course>
  <speed>0.022360679774997897</speed>
  <fix>3d</fix>
</trkpt>
<trkpt lat="40.0728456" lon="-105.2305755">
  <ele>1586.08</ele>
  <time>2026-08-28T19:07:34Z</time>
  <course>342.94</course>
  <speed>0.0</speed>
  <fix>3d</fix>
</trkpt>
<trkpt lat="40.0728454" lon="-105.2305756">
  <ele>1586.15</ele>
  <time>2026-08-28T19:07:34Z</time>
  <course>71.02</course>
  <speed>0.022360679774997897</speed>
  <fix>3d</fix>
</trkpt>
<trkpt lat="40.0728456" lon="-105.2305755">
  <ele>1586.08</ele>
  <time>2026-08-28T19:07:34Z</time>
  <course>0.34</course>
  <speed>0.0</speed>
  <fix>3d</fix>
</trkpt>
<trkpt lat="40.0728454" lon="-105.2305756">
  <ele>1586.15</ele>
  <time>2026-08-28T19:07:34Z</time>
  <course>70.98</course>
  <speed>0.022360679774997897</speed>
  <fix>3d</fix>
</trkpt>
<trkpt lat="40.0728456" lon="-105.2305755">
  <ele>1586.08</ele>
  <time>2026-08-28T19:07:34Z</time>
  <course>344.71</course>
  <speed>0.0</speed>
  <fix>3d</fix>
</trkpt>
<trkpt lat="40.0728454" lon="-105.2305756">
  <ele>1586.15</ele>
  <time>2026-08-28T19:07:34Z</time>
  <course>70.93</course>
  <speed>0.022360679774997897</speed>
  <fix>3d</fix>
</trkpt>
<trkpt lat="40.0728456" lon="-105.2305755">
  <ele>1586.08</ele>
  <time>2026-08-28T19:07:34Z</time>
  <course>341.92</course>
  <speed>0.0</speed>
  <fix>3d</fix>
</trkpt>
<trkpt lat="40.0728454" lon="-105.2305756">
  <ele>1586.18</ele>
  <time>2026-08-28T19:07:34Z</time>
  <course>70.86</course>
  <speed>0.022360679774997897</speed>
  <fix>3d</fix>
</trkpt>
<trkpt lat="40.0728456" lon="-105.2305755">
  <ele>1586.08</ele>
  <time>2026-08-28T19:07:34Z</time>
  <course>342.25</course>
  <speed>0.0</speed>
  <fix>3d</fix>
</trkpt>
<trkpt lat="40.0728454" lon="-105.2305756">
  <ele>1586.23</ele>
  <time>2026-08-28T19:07:34Z</time>
  <course>70.77</course>
  <speed>0.022360679774997897</speed>
  <fix>3d</fix>
</trkpt>
<trkpt lat="40.0728456" lon="-105.2305755">
  <ele>1586.11</ele>
  <time>2026-08-28T19:07:34Z</time>
  <course>340.21</course>
  <speed>0.0</speed>
  <fix>3d</fix>
</trkpt>
<trkpt lat="40.0728454" lon="-105.2305756">
  <ele>1586.28</ele>
  <time>2026-08-28T19:07:34Z</time>
  <course>70.67</course>
  <speed>0.022360679774997897</speed>
  <fix>3d</fix>
</trkpt>
<trkpt lat="40.0728456" lon="-105.2305755">
  <ele>1586.16</ele>
  <time>2026-08-28T19:07:34Z</time>
  <course>338.74</course>
  <speed>0.0</speed>
  <fix>3d</fix>
</trkpt>
<trkpt lat="40.0728455" lon="-105.2305756">
  <ele>1586.41</ele>
  <time>2026-08-28T19:07:34Z</time>
  <course>63.03</course>
  <speed>0.09433981132056603</speed>
  <fix>3d</fix>
</trkpt>
<trkpt lat="40.0728456" lon="-105.2305755">
  <ele>1586.23</ele>
  <time>2026-08-28T19:07:34Z</time>
  <course>336.67</course>
  <speed>0.03</speed>
  <fix>3d</fix>
</trkpt>
<trkpt lat="40.0728458" lon="-105.2305758">
  <ele>1586.64</ele>
  <time>2026-08-28T19:07:34Z</time>
  <course>62.95</course>
  <speed>0.20591260281974003</speed>
  <fix>3d</fix>
</trkpt>
<trkpt lat="40.0728457" lon="-105.2305755">
  <ele>1586.39</ele>
  <time>2026-08-28T19:07:34Z</time>
  <course>334.5</course>
  <speed>0.13</speed>
  <fix>3d</fix>
</trkpt>
<trkpt lat="40.0728461" lon="-105.230576">
  <ele>1586.73</ele>
  <time>2026-08-28T19:07:34Z</time>
  <course>63.33</course>
  <speed>0.23706539182259395</speed>
  <fix>3d</fix>
</trkpt>
<trkpt lat="40.072846" lon="-105.2305756">
  <ele>1586.57</ele>
  <time>2026-08-28T19:07:34Z</time>
  <course>333.54</course>
  <speed>0.23</speed>
  <fix>3d</fix>
</trkpt>
<trkpt lat="40.0728466" lon="-105.2305762">
  <ele>1586.71</ele>
  <time>2026-08-28T19:07:34Z</time>
  <course>63.55</course>
  <speed>0.25059928172283336</speed>
  <fix>3d</fix>
</trkpt>
<trkpt lat="40.0728464" lon="-105.2305759">
  <ele>1586.64</ele>
  <time>2026-08-28T19:07:34Z</time>
  <course>333.0</course>
  <speed>0.26</speed>
  <fix>3d</fix>
</trkpt>
<trkpt lat="40.072847" lon="-105.2305765">
  <ele>1586.64</ele>
  <time>2026-08-28T19:07:34Z</time>
  <course>64.03</course>
  <speed>0.23706539182259395</speed>
  <fix>3d</fix>
</trkpt>
<trkpt lat="40.0728468" lon="-105.2305762">
  <ele>1586.6</ele>
  <time>2026-08-28T19:07:34Z</time>
  <course>332.94</course>
  <speed>0.26</speed>
  <fix>3d</fix>
</trkpt>
<trkpt lat="40.0728473" lon="-105.2305767">
  <ele>1586.53</ele>
  <time>2026-08-28T19:07:34Z</time>
  <course>64.38</course>
  <speed>0.20124611797498107</speed>
  <fix>3d</fix>
</trkpt>
<trkpt lat="40.0728473" lon="-105.2305764">
  <ele>1586.51</ele>
  <time>2026-08-28T19:07:34Z</time>
  <course>333.76</course>
  <speed>0.25</speed>
  <fix>3d</fix>
</trkpt>
<trkpt lat="40.0728477" lon="-105.2305769">
  <ele>1586.38</ele>
  <time>2026-08-28T19:07:34Z</time>
  <course>64.54</course>
  <speed>0.16552945357246848</speed>
  <fix>3d</fix>
</trkpt>
<trkpt lat="40.0728476" lon="-105.2305767">
  <ele>1586.37</ele>
  <time>2026-08-28T19:07:34Z</time>
  <course>335.4</course>
  <speed>0.22</speed>
  <fix>3d</fix>
</trkpt>
<trkpt lat="40.072848" lon="-105.230577">
  <ele>1586.23</ele>
  <time>2026-08-28T19:07:34Z</time>
  <course>64.59</course>
  <speed>0.13</speed>
  <fix>3d</fix>
</trkpt>
<trkpt lat="40.0728479" lon="-105.2305768">
  <ele>1586.22</ele>
  <time>2026-08-28T19:07:34Z</time>
  <course>337.79</course>
  <speed>0.18</speed>
  <fix>3d</fix>
</trkpt>
<trkpt lat="40.0728481" lon="-105.2305771">
  <ele>1586.16</ele>
  <time>2026-08-28T19:07:34Z</time>
  <course>64.63</course>
  <speed>0.0316227766016838</speed>
  <fix>3d</fix>
</trkpt>
<trkpt lat="40.0728482" lon="-105.230577">
  <ele>1586.09</ele>
  <time>2026-08-28T19:07:34Z</time>
  <course>338.48</course>
  <speed>0.1</speed>
  <fix>3d</fix>
</trkpt>
<trkpt lat="40.072848" lon="-105.2305771">
  <ele>1586.2</ele>
  <time>2026-08-28T19:07:34Z</time>
  <course>64.69</course>
  <speed>0.05</speed>
  <fix>3d</fix>
</trkpt>
<trkpt lat="40.0728483" lon="-105.230577">
  <ele>1586.04</ele>
  <time>2026-08-28T19:07:34Z</time>
  <course>322.52</course>
  <speed>0.0</speed>
  <fix>3d</fix>
</trkpt>
<trkpt lat="40.072848" lon="-105.2305771">
  <ele>1586.19</ele>
  <time>2026-08-28T19:07:34Z</time>
  <course>64.75</course>
  <speed>0.022360679774997897</speed>
  <fix>3d</fix>
</trkpt>
<trkpt lat="40.0728482" lon="-105.230577">
  <ele>1586.07</ele>
  <time>2026-08-28T19:07:34Z</time>
  <course>155.35</course>
  <speed>0.01</speed>
  <fix>3d</fix>
</trkpt>
<trkpt lat="40.0728481" lon="-105.2305771">
  <ele>1586.19</ele>
  <time>2026-08-28T19:07:34Z</time>
  <course>64.82</course>
  <speed>0.022360679774997897</speed>
  <fix>3d</fix>
</trkpt>
<trkpt lat="40.0728482" lon="-105.230577">
  <ele>1586.07</ele>
  <time>2026-08-28T19:07:34Z</time>
  <course>11.04</course>
  <speed>0.0</speed>
  <fix>3d</fix>
</trkpt>
<trkpt lat="40.0728481" lon="-105.2305771">
  <ele>1586.19</ele>
  <time>2026-08-28T19:07:34Z</time>
  <course>64.87</course>
  <speed>0.022360679774997897</speed>
  <fix>3d</fix>
</trkpt>
<trkpt lat="40.0728482" lon="-105.230577">
  <ele>1586.07</ele>
  <time>2026-08-28T19:07:35Z</time>
  <course>13.1</course>
  <speed>0.0</speed>
  <fix>3d</fix>
</trkpt>
<trkpt lat="40.0728481" lon="-105.2305771">
  <ele>1586.19</ele>
  <time>2026-08-28T19:07:35Z</time>
  <course>64.93</course>
  <speed>0.022360679774997897</speed>
  <fix>3d</fix>
</trkpt>
<trkpt lat="40.0728482" lon="-105.230577">
  <ele>1586.07</ele>
  <time>2026-08-28T19:07:35Z</time>
  <course>20.07</course>
  <speed>0.0</speed>
  <fix>3d</fix>
</trkpt>
<trkpt lat="40.0728481" lon="-105.2305771">
  <ele>1586.18</ele>
  <time>2026-08-28T19:07:35Z</time>
  <course>64.99</course>
  <speed>0.022360679774997897</speed>
  <fix>3d</fix>
</trkpt>
<trkpt lat="40.0728482" lon="-105.230577">
  <ele>1586.07</ele>
  <time>2026-08-28T19:07:35Z</time>
  <course>311.11</course>
  <speed>0.0</speed>
  <fix>3d</fix>
</trkpt>
<trkpt lat="40.0728481" lon="-105.2305771">
  <ele>1586.18</ele>
  <time>2026-08-28T19:07:35Z</time>
  <course>65.05</course>
  <speed>0.022360679774997897</speed>
  <fix>3d</fix>
</trkpt>
<trkpt lat="40.0728482" lon="-105.230577">
  <ele>1586.07</ele>
  <time>2026-08-28T19:07:35Z</time>
  <course>305.14</course>
  <speed>0.0</speed>
  <fix>3d</fix>
</trkpt>
<trkpt lat="40.0728481" lon="-105.2305771">
  <ele>1586.18</ele>
  <time>2026-08-28T19:07:35Z</time>
  <course>65.11</course>
  <speed>0.022360679774997897</speed>
  <fix>3d</fix>
</trkpt>
<trkpt lat="40.0728482" lon="-105.230577">
  <ele>1586.07</ele>
  <time>2026-08-28T19:07:35Z</time>
  <course>74.53</course>
  <speed>0.0</speed>
  <fix>3d</fix>
</trkpt>
<trkpt lat="40.0728481" lon="-105.2305771">
  <ele>1586.18</ele>
  <time>2026-08-28T19:07:35Z</time>
  <course>65.17</course>
  <speed>0.022360679774997897</speed>
  <fix>3d</fix>
</trkpt>
<trkpt lat="40.0728482" lon="-105.230577">
  <ele>1586.07</ele>
  <time>2026-08-28T19:07:35Z</time>
  <course>145.85</course>
  <speed>0.0</speed>
  <fix>3d</fix>
</trkpt>
<trkpt lat="40.0728481" lon="-105.2305771">
  <ele>1586.18</ele>
  <time>2026-08-28T19:07:35Z</time>
  <course>65.23</course>
  <speed>0.022360679774997897</speed>
  <fix>3d</fix>
</trkpt>
<trkpt lat="40.0728482" lon="-105.230577">
  <ele>1586.07</ele>
  <time>2026-08-28T19:07:35Z</time>
  <course>164.73</course>
  <speed>0.0</speed>
  <fix>3d</fix>
</trkpt>
<trkpt lat="40.0728481" lon="-105.2305771">
  <ele>1586.18</ele>
  <time>2026-08-28T19:07:35Z</time>
  <course>65.3</course>
  <speed>0.022360679774997897</speed>
  <fix>3d</fix>
</trkpt>
<trkpt lat="40.0728482" lon="-105.230577">
  <ele>1586.07</ele>
  <time>2026-08-28T19:07:35Z</time>
  <course>171.79</course>
  <speed>0.0</speed>
  <fix>3d</fix>
</trkpt>
<trkpt lat="40.0728481" lon="-105.2305771">
  <ele>1586.18</ele>
  <time>2026-08-28T19:07:35Z</time>
  <course>65.37</course>
  <speed>0.022360679774997897</speed>
  <fix>3d</fix>
</trkpt>
<trkpt lat="40.0728482" lon="-105.230577">
  <ele>1586.07</ele>
  <time>2026-08-28T19:07:35Z</time>
  <course>177.29</course>
  <speed>0.0</speed>
  <fix>3d</fix>
</trkpt>
<trkpt lat="40.0728481" lon="-105.2305771">
  <ele>1586.18</ele>
  <time>2026-08-28T19:07:35Z</time>
  <course>65.44</course>
  <speed>0.02</speed>
  <fix>3d</fix>
</trkpt>
<trkpt lat="40.0728482" lon="-105.230577">
  <ele>1586.07</ele>
  <time>2026-08-28T19:07:35Z</time>
  <course>175.0</course>
  <speed>0.0</speed>
  <fix>3d</fix>
</trkpt>
<trkpt lat="40.0728481" lon="-105.2305771">
  <ele>1586.17</ele>
  <time>2026-08-28T19:07:35Z</time>
  <course>65.51</course>
  <speed>0.02</speed>
  <fix>3d</fix>
</trkpt>
<trkpt lat="40.0728482" lon="-105.230577">
  <ele>1586.07</ele>
  <time>2026-08-28T19:07:35Z</time>
  <course>179.03</course>
  <speed>0.0</speed>
  <fix>3d</fix>
</trkpt>
<trkpt lat="40.0728481" lon="-105.2305771">
  <ele>1586.17</ele>
  <time>2026-08-28T19:07:35Z</time>
  <course>65.58</course>
  <speed>0.02</speed>
  <fix>3d</fix>
</trkpt>
<trkpt lat="40.0728482" lon="-105.230577">
  <ele>1586.07</ele>
  <time>2026-08-28T19:07:35Z</time>
  <course>177.95</course>
  <speed>0.0</speed>
  <fix>3d</fix>
</trkpt>
<trkpt lat="40.0728481" lon="-105.2305771">
  <ele>1586.17</ele>
  <time>2026-08-28T19:07:35Z</time>
  <course>65.63</course>
  <speed>0.02</speed>
  <fix>3d</fix>
</trkpt>
<trkpt lat="40.0728482" lon="-105.230577">
  <ele>1586.07</ele>
  <time>2026-08-28T19:07:35Z</time>
  <course>155.71</course>
  <speed>0.0</speed>
  <fix>3d</fix>
</trkpt>
<trkpt lat="40.0728481" lon="-105.2305771">
  <ele>1586.17</ele>
  <time>2026-08-28T19:07:35Z</time>
  <course>65.69</course>
  <speed>0.02</speed>
  <fix>3d</fix>
</trkpt>
<trkpt lat="40.0728482" lon="-105.230577">
  <ele>1586.07</ele>
  <time>2026-08-28T19:07:35Z</time>
  <course>145.05</course>
  <speed>0.0</speed>
  <fix>3d</fix>
</trkpt>
<trkpt lat="40.0728481" lon="-105.2305771">
  <ele>1586.17</ele>
  <time>2026-08-28T19:07:35Z</time>
  <course>65.74</course>
  <speed>0.02</speed>
  <fix>3d</fix>
</trkpt>
<trkpt lat="40.0728482" lon="-105.230577">
  <ele>1586.07</ele>
  <time>2026-08-28T19:07:35Z</time>
  <course>151.55</course>
  <speed>0.0</speed>
  <fix>3d</fix>
</trkpt>
<trkpt lat="40.0728481" lon="-105.2305771">
  <ele>1586.16</ele>
  <time>2026-08-28T19:07:35Z</time>
  <course>65.79</course>
  <speed>0.02</speed>
  <fix>3d</fix>
</trkpt>
<trkpt lat="40.0728482" lon="-105.230577">
  <ele>1586.07</ele>
  <time>2026-08-28T19:07:35Z</time>
  <course>153.39</course>
  <speed>0.0</speed>
  <fix>3d</fix>
</trkpt>
<trkpt lat="40.0728481" lon="-105.2305771">
  <ele>1586.16</ele>
  <time>2026-08-28T19:07:35Z</time>
  <course>65.84</course>
  <speed>0.02</speed>
  <fix>3d</fix>
</trkpt>
<trkpt lat="40.0728482" lon="-105.230577">
  <ele>1586.07</ele>
  <time>2026-08-28T19:07:35Z</time>
  <course>150.9</course>
  <speed>0.0</speed>
  <fix>3d</fix>
</trkpt>
<trkpt lat="40.0728481" lon="-105.2305771">
  <ele>1586.16</ele>
  <time>2026-08-28T19:07:35Z</time>
  <course>65.88</course>
  <speed>0.02</speed>
  <fix>3d</fix>
</trkpt>
<trkpt lat="40.0728482" lon="-105.230577">
  <ele>1586.07</ele>
  <time>2026-08-28T19:07:35Z</time>
  <course>150.98</course>
  <speed>0.0</speed>
  <fix>3d</fix>
</trkpt>
<trkpt lat="40.0728481" lon="-105.2305771">
  <ele>1586.16</ele>
  <time>2026-08-28T19:07:35Z</time>
  <course>65.93</course>
  <speed>0.02</speed>
  <fix>3d</fix>
</trkpt>
<trkpt lat="40.0728482" lon="-105.230577">
  <ele>1586.07</ele>
  <time>2026-08-28T19:07:35Z</time>
  <course>151.43</course>
  <speed>0.0</speed>
  <fix>3d</fix>
</trkpt>
<trkpt lat="40.0728481" lon="-105.2305771">
  <ele>1586.15</ele>
  <time>2026-08-28T19:07:35Z</time>
  <course>65.97</course>
  <speed>0.02</speed>
  <fix>3d</fix>
</trkpt>
<trkpt lat="40.0728482" lon="-105.230577">
  <ele>1586.07</ele>
  <time>2026-08-28T19:07:35Z</time>
  <course>151.21</course>
  <speed>0.0</speed>
  <fix>3d</fix>
</trkpt>
<trkpt lat="40.0728481" lon="-105.2305771">
  <ele>1586.15</ele>
  <time>2026-08-28T19:07:35Z</time>
  <course>66.01</course>
  <speed>0.02</speed>
  <fix>3d</fix>
</trkpt>
<trkpt lat="40.0728482" lon="-105.230577">
  <ele>1586.07</ele>
  <time>2026-08-28T19:07:35Z</time>
  <course>150.98</course>
  <speed>0.0</speed>
  <fix>3d</fix>
</trkpt>
<trkpt lat="40.0728481" lon="-105.2305771">
  <ele>1586.15</ele>
  <time>2026-08-28T19:07:35Z</time>
  <course>66.05</course>
  <speed>0.02</speed>
  <fix>3d</fix>
</trkpt>
<trkpt lat="40.0728482" lon="-105.230577">
  <ele>1586.07</ele>
  <time>2026-08-28T19:07:35Z</time>
  <course>151.09</course>
  <speed>0.0</speed>
  <fix>3d</fix>
</trkpt>
<trkpt lat="40.0728481" lon="-105.2305771">
  <ele>1586.15</ele>
  <time>2026-08-28T19:07:35Z</time>
  <course>66.09</course>
  <speed>0.02</speed>
  <fix>3d</fix>
</trkpt>
<trkpt lat="40.0728482" lon="-105.230577">
  <ele>1586.07</ele>
  <time>2026-08-28T19:07:35Z</time>
  <course>151.03</course>
  <speed>0.0</speed>
  <fix>3d</fix>
</trkpt>
<trkpt lat="40.0728481" lon="-105.2305771">
  <ele>1586.15</ele>
  <time>2026-08-28T19:07:35Z</time>
  <course>66.12</course>
  <speed>0.02</speed>
  <fix>3d</fix>
</trkpt>
<trkpt lat="40.0728482" lon="-105.230577">
  <ele>1586.07</ele>
  <time>2026-08-28T19:07:35Z</time>
  <course>150.68</course>
  <speed>0.0</speed>
  <fix>3d</fix>
</trkpt>
<trkpt lat="40.0728481" lon="-105.2305771">
  <ele>1586.15</ele>
  <time>2026-08-28T19:07:35Z</time>
  <course>66.16</course>
  <speed>0.02</speed>
  <fix>3d</fix>
</trkpt>
<trkpt lat="40.0728482" lon="-105.230577">
  <ele>1586.07</ele>
  <time>2026-08-28T19:07:35Z</time>
  <course>150.54</course>
  <speed>0.0</speed>
  <fix>3d</fix>
</trkpt>
<trkpt lat="40.0728481" lon="-105.2305771">
  <ele>1586.15</ele>
  <time>2026-08-28T19:07:35Z</time>
  <course>66.19</course>
  <speed>0.02</speed>
  <fix>3d</fix>
</trkpt>
<trkpt lat="40.0728482" lon="-105.230577">
  <ele>1586.07</ele>
  <time>2026-08-28T19:07:35Z</time>
  <course>150.72</course>
  <speed>0.0</speed>
  <fix>3d</fix>
</trkpt>
<trkpt lat="40.0728481" lon="-105.2305771">
  <ele>1586.15</ele>
  <time>2026-08-28T19:07:35Z</time>
  <course>66.23</course>
  <speed>0.02</speed>
  <fix>3d</fix>
</trkpt>
<trkpt lat="40.0728482" lon="-105.230577">
  <ele>1586.07</ele>
  <time>2026-08-28T19:07:35Z</time>
  <course>150.63</course>
  <speed>0.0</speed>
  <fix>3d</fix>
</trkpt>
<trkpt lat="40.0728481" lon="-105.2305771">
  <ele>1586.15</ele>
  <time>2026-08-28T19:07:35Z</time>
  <course>66.26</course>
  <speed>0.02</speed>
  <fix>3d</fix>
</trkpt>
<trkpt lat="40.0728482" lon="-105.230577">
  <ele>1586.07</ele>
  <time>2026-08-28T19:07:35Z</time>
  <course>150.03</course>
  <speed>0.0</speed>
  <fix>3d</fix>
</trkpt>
<trkpt lat="40.0728481" lon="-105.2305771">
  <ele>1586.15</ele>
  <time>2026-08-28T19:07:35Z</time>
  <course>66.3</course>
  <speed>0.02</speed>
  <fix>3d</fix>
</trkpt>
<trkpt lat="40.0728482" lon="-105.230577">
  <ele>1586.07</ele>
  <time>2026-08-28T19:07:35Z</time>
  <course>149.72</course>
  <speed>0.0</speed>
  <fix>3d</fix>
</trkpt>
<trkpt lat="40.0728481" lon="-105.2305771">
  <ele>1586.15</ele>
  <time>2026-08-28T19:07:35Z</time>
  <course>66.33</course>
  <speed>0.02</speed>
  <fix>3d</fix>
</trkpt>
<trkpt lat="40.0728482" lon="-105.230577">
  <ele>1586.07</ele>
  <time>2026-08-28T19:07:35Z</time>
  <course>150.12</course>
  <speed>0.0</speed>
  <fix>3d</fix>
</trkpt>
<trkpt lat="40.0728481" lon="-105.2305771">
  <ele>1586.15</ele>
  <time>2026-08-28T19:07:35Z</time>
  <course>66.36</course>
  <speed>0.02</speed>
  <fix>3d</fix>
</trkpt>
<trkpt lat="40.0728482" lon="-105.230577">
  <ele>1586.07</ele>
  <time>2026-08-28T19:07:35Z</time>
  <course>150.02</course>
  <speed>0.0</speed>
  <fix>3d</fix>
</trkpt>
<trkpt lat="40.0728481" lon="-105.2305771">
  <ele>1586.15</ele>
  <time>2026-08-28T19:07:35Z</time>
  <course>66.39</course>
  <speed>0.02</speed>
  <fix>3d</fix>
</trkpt>
<trkpt lat="40.0728482" lon="-105.230577">
  <ele>1586.07</ele>
  <time>2026-08-28T19:07:35Z</time>
  <course>149.57</course>
  <speed>0.0</speed>
  <fix>3d</fix>
</trkpt>
<trkpt lat="40.0728481" lon="-105.2305771">
  <ele>1586.15</ele>
  <time>2026-08-28T19:07:35Z</time>
  <course>66.42</course>
  <speed>0.02</speed>
  <fix>3d</fix>
</trkpt>
<trkpt lat="40.0728482" lon="-105.230577">
  <ele>1586.07</ele>
  <time>2026-08-28T19:07:35Z</time>
  <course>149.51</course>
  <speed>0.0</speed>
  <fix>3d</fix>
</trkpt>
<trkpt lat="40.0728481" lon="-105.2305771">
  <ele>1586.15</ele>
  <time>2026-08-28T19:07:35Z</time>
  <course>66.46</course>
  <speed>0.02</speed>
  <fix>3d</fix>
</trkpt>
<trkpt lat="40.0728482" lon="-105.230577">
  <ele>1586.07</ele>
  <time>2026-08-28T19:07:35Z</time>
  <course>148.65</course>
  <speed>0.0</speed>
  <fix>3d</fix>
</trkpt>
<trkpt lat="40.0728481" lon="-105.2305771">
  <ele>1586.15</ele>
  <time>2026-08-28T19:07:35Z</time>
  <course>66.49</course>
  <speed>0.02</speed>
  <fix>3d</fix>
</trkpt>
<trkpt lat="40.0728482" lon="-105.230577">
  <ele>1586.07</ele>
  <time>2026-08-28T19:07:35Z</time>
  <course>147.59</course>
  <speed>0.0</speed>
  <fix>3d</fix>
</trkpt>
<trkpt lat="40.0728481" lon="-105.2305771">
  <ele>1586.15</ele>
  <time>2026-08-28T19:07:35Z</time>
  <course>66.52</course>
  <speed>0.02</speed>
  <fix>3d</fix>
</trkpt>
<trkpt lat="40.0728482" lon="-105.230577">
  <ele>1586.07</ele>
  <time>2026-08-28T19:07:35Z</time>
  <course>147.44</course>
  <speed>0.0</speed>
  <fix>3d</fix>
</trkpt>
<trkpt lat="40.0728481" lon="-105.2305771">
  <ele>1586.15</ele>
  <time>2026-08-28T19:07:35Z</time>
  <course>66.55</course>
  <speed>0.02</speed>
  <fix>3d</fix>
</trkpt>
<trkpt lat="40.0728482" lon="-105.230577">
  <ele>1586.07</ele>
  <time>2026-08-28T19:07:35Z</time>
  <course>148.24</course>
  <speed>0.0</speed>
  <fix>3d</fix>
</trkpt>
<trkpt lat="40.0728481" lon="-105.2305771">
  <ele>1586.15</ele>
  <time>2026-08-28T19:07:35Z</time>
  <course>66.57</course>
  <speed>0.02</speed>
  <fix>3d</fix>
</trkpt>
<trkpt lat="40.0728482" lon="-105.230577">
  <ele>1586.07</ele>
  <time>2026-08-28T19:07:35Z</time>
  <course>147.81</course>
  <speed>0.0</speed>
  <fix>3d</fix>
</trkpt>
<trkpt lat="40.0728481" lon="-105.2305771">
  <ele>1586.15</ele>
  <time>2026-08-28T19:07:35Z</time>
  <course>66.6</course>
  <speed>0.02</speed>
  <fix>3d</fix>
</trkpt>
<trkpt lat="40.0728482" lon="-105.230577">
  <ele>1586.07</ele>
  <time>2026-08-28T19:07:35Z</time>
  <course>145.31</course>
  <speed>0.0</speed>
  <fix>3d</fix>
</trkpt>
<trkpt lat="40.0728481" lon="-105.2305771">
  <ele>1586.15</ele>
  <time>2026-08-28T19:07:35Z</time>
  <course>66.63</course>
  <speed>0.02</speed>
  <fix>3d</fix>
</trkpt>
<trkpt lat="40.0728482" lon="-105.230577">
  <ele>1586.07</ele>
  <time>2026-08-28T19:07:35Z</time>
  <course>144.96</course>
  <speed>0.0</speed>
  <fix>3d</fix>
</trkpt>
<trkpt lat="40.0728481" lon="-105.2305771">
  <ele>1586.15</ele>
  <time>2026-08-28T19:07:35Z</time>
  <course>66.66</course>
  <speed>0.02</speed>
  <fix>3d</fix>
</trkpt>
<trkpt lat="40.0728482" lon="-105.230577">
  <ele>1586.07</ele>
  <time>2026-08-28T19:07:35Z</time>
  <course>144.73</course>
  <speed>0.0</speed>
  <fix>3d</fix>
</trkpt>
<trkpt lat="40.0728481" lon="-105.2305771">
  <ele>1586.15</ele>
  <time>2026-08-28T19:07:35Z</time>
  <course>66.69</course>
  <speed>0.02</speed>
  <fix>3d</fix>
</trkpt>
<trkpt lat="40.0728482" lon="-105.230577">
  <ele>1586.07</ele>
  <time>2026-08-28T19:07:35Z</time>
  <course>146.28</course>
  <speed>0.0</speed>
  <fix>3d</fix>
</trkpt>
<trkpt lat="40.0728481" lon="-105.2305771">
  <ele>1586.15</ele>
  <time>2026-08-28T19:07:35Z</time>
  <course>66.72</course>
  <speed>0.02</speed>
  <fix>3d</fix>
</trkpt>
<trkpt lat="40.0728482" lon="-105.230577">
  <ele>1586.07</ele>
  <time>2026-08-28T19:07:35Z</time>
  <course>145.68</course>
  <speed>0.0</speed>
  <fix>3d</fix>
</trkpt>
<trkpt lat="40.0728481" lon="-105.2305771">
  <ele>1586.15</ele>
  <time>2026-08-28T19:07:35Z</time>
  <course>66.74</course>
  <speed>0.02</speed>
  <fix>3d</fix>
</trkpt>
<trkpt lat="40.0728482" lon="-105.230577">
  <ele>1586.07</ele>
  <time>2026-08-28T19:07:35Z</time>
  <course>140.87</course>
  <speed>0.0</speed>
  <fix>3d</fix>
</trkpt>
<trkpt lat="40.0728481" lon="-105.2305771">
  <ele>1586.15</ele>
  <time>2026-08-28T19:07:35Z</time>
  <course>66.77</course>
  <speed>0.02</speed>
  <fix>3d</fix>
</trkpt>
<trkpt lat="40.0728482" lon="-105.230577">
  <ele>1586.07</ele>
  <time>2026-08-28T19:07:35Z</time>
  <course>140.23</course>
  <speed>0.0</speed>
  <fix>3d</fix>
</trkpt>
<trkpt lat="40.0728481" lon="-105.2305771">
  <ele>1586.15</ele>
  <time>2026-08-28T19:07:35Z</time>
  <course>66.8</course>
  <speed>0.02</speed>
  <fix>3d</fix>
</trkpt>
<trkpt lat="40.0728482" lon="-105.230577">
  <ele>1586.07</ele>
  <time>2026-08-28T19:07:35Z</time>
  <course>143.47</course>
  <speed>0.0</speed>
  <fix>3d</fix>
</trkpt>
<trkpt lat="40.0728481" lon="-105.2305771">
  <ele>1586.15</ele>
  <time>2026-08-28T19:07:35Z</time>
  <course>66.83</course>
  <speed>0.02</speed>
  <fix>3d</fix>
</trkpt>
<trkpt lat="40.0728482" lon="-105.230577">
  <ele>1586.07</ele>
  <time>2026-08-28T19:07:35Z</time>
  <course>144.45</course>
  <speed>0.0</speed>
  <fix>3d</fix>
</trkpt>
<trkpt lat="40.0728481" lon="-105.2305771">
  <ele>1586.16</ele>
  <time>2026-08-28T19:07:35Z</time>
  <course>66.85</course>
  <speed>0.02</speed>
  <fix>3d</fix>
</trkpt>
<trkpt lat="40.0728482" lon="-105.230577">
  <ele>1586.07</ele>
  <time>2026-08-28T19:07:35Z</time>
  <course>139.97</course>
  <speed>0.0</speed>
  <fix>3d</fix>
</trkpt>
<trkpt lat="40.0728481" lon="-105.2305771">
  <ele>1586.16</ele>
  <time>2026-08-28T19:07:35Z</time>
  <course>66.88</course>
  <speed>0.02</speed>
  <fix>3d</fix>
</trkpt>
<trkpt lat="40.0728482" lon="-105.230577">
  <ele>1586.07</ele>
  <time>2026-08-28T19:07:35Z</time>
  <course>132.31</course>
  <speed>0.0</speed>
  <fix>3d</fix>
</trkpt>
<trkpt lat="40.0728481" lon="-105.2305771">
  <ele>1586.16</ele>
  <time>2026-08-28T19:07:35Z</time>
  <course>66.9</course>
  <speed>0.02</speed>
  <fix>3d</fix>
</trkpt>
<trkpt lat="40.0728482" lon="-105.230577">
  <ele>1586.07</ele>
  <time>2026-08-28T19:07:35Z</time>
  <course>133.51</course>
  <speed>0.0</speed>
  <fix>3d</fix>
</trkpt>
<trkpt lat="40.0728481" lon="-105.2305771">
  <ele>1586.16</ele>
  <time>2026-08-28T19:07:35Z</time>
  <course>66.93</course>
  <speed>0.02</speed>
  <fix>3d</fix>
</trkpt>
<trkpt lat="40.0728482" lon="-105.230577">
  <ele>1586.07</ele>
  <time>2026-08-28T19:07:35Z</time>
  <course>140.7</course>
  <speed>0.0</speed>
  <fix>3d</fix>
</trkpt>
<trkpt lat="40.0728481" lon="-105.2305771">
  <ele>1586.16</ele>
  <time>2026-08-28T19:07:35Z</time>
  <course>66.95</course>
  <speed>0.02</speed>
  <fix>3d</fix>
</trkpt>
<trkpt lat="40.0728482" lon="-105.230577">
  <ele>1586.07</ele>
  <time>2026-08-28T19:07:35Z</time>
  <course>141.98</course>
  <speed>0.0</speed>
  <fix>3d</fix>
</trkpt>
<trkpt lat="40.0728481" lon="-105.2305771">
  <ele>1586.16</ele>
  <time>2026-08-28T19:07:35Z</time>
  <course>66.98</course>
  <speed>0.02</speed>
  <fix>3d</fix>
</trkpt>
<trkpt lat="40.0728482" lon="-105.230577">
  <ele>1586.07</ele>
  <time>2026-08-28T19:07:35Z</time>
  <course>139.72</course>
  <speed>0.0</speed>
  <fix>3d</fix>
</trkpt>
<trkpt lat="40.0728481" lon="-105.2305771">
  <ele>1586.16</ele>
  <time>2026-08-28T19:07:35Z</time>
  <course>67.0</course>
  <speed>0.02</speed>
  <fix>3d</fix>
</trkpt>
<trkpt lat="40.0728482" lon="-105.230577">
  <ele>1586.07</ele>
  <time>2026-08-28T19:07:35Z</time>
  <course>141.07</course>
  <speed>0.0</speed>
  <fix>3d</fix>
</trkpt>
<trkpt lat="40.0728481" lon="-105.2305771">
  <ele>1586.17</ele>
  <time>2026-08-28T19:07:35Z</time>
  <course>67.03</course>
  <speed>0.02</speed>
  <fix>3d</fix>
</trkpt>
<trkpt lat="40.0728482" lon="-105.230577">
  <ele>1586.07</ele>
  <time>2026-08-28T19:07:35Z</time>
  <course>141.48</course>
  <speed>0.0</speed>
  <fix>3d</fix>
</trkpt>
<trkpt lat="40.0728481" lon="-105.2305771">
  <ele>1586.17</ele>
  <time>2026-08-28T19:07:35Z</time>
  <course>67.05</course>
  <speed>0.02</speed>
  <fix>3d</fix>
</trkpt>
<trkpt lat="40.0728482" lon="-105.230577">
  <ele>1586.07</ele>
  <time>2026-08-28T19:07:35Z</time>
  <course>151.5</course>
  <speed>0.0</speed>
  <fix>3d</fix>
</trkpt>
<trkpt lat="40.0728481" lon="-105.2305771">
  <ele>1586.16</ele>
  <time>2026-08-28T19:07:35Z</time>
  <course>67.08</course>
  <speed>0.02</speed>
  <fix>3d</fix>
</trkpt>
<trkpt lat="40.0728482" lon="-105.230577">
  <ele>1586.07</ele>
  <time>2026-08-28T19:07:35Z</time>
  <course>151.48</course>
  <speed>0.0</speed>
  <fix>3d</fix>
</trkpt>
<trkpt lat="40.0728481" lon="-105.2305771">
  <ele>1586.15</ele>
  <time>2026-08-28T19:07:35Z</time>
  <course>67.1</course>
  <speed>0.02</speed>
  <fix>3d</fix>
</trkpt>
<trkpt lat="40.0728482" lon="-105.230577">
  <ele>1586.07</ele>
  <time>2026-08-28T19:07:35Z</time>
  <course>337.19</course>
  <speed>0.0</speed>
  <fix>3d</fix>
</trkpt>
<trkpt lat="40.0728481" lon="-105.2305771">
  <ele>1586.14</ele>
  <time>2026-08-28T19:07:35Z</time>
  <course>67.12</course>
  <speed>0.02</speed>
  <fix>3d</fix>
</trkpt>
<trkpt lat="40.0728482" lon="-105.230577">
  <ele>1586.07</ele>
  <time>2026-08-28T19:07:35Z</time>
  <course>337.57</course>
  <speed>0.0</speed>
  <fix>3d</fix>
</trkpt>
<trkpt lat="40.0728481" lon="-105.2305771">
  <ele>1586.13</ele>
  <time>2026-08-28T19:07:35Z</time>
  <course>67.14</course>
  <speed>0.02</speed>
  <fix>3d</fix>
</trkpt>
<trkpt lat="40.0728482" lon="-105.230577">
  <ele>1586.07</ele>
  <time>2026-08-28T19:07:35Z</time>
  <course>112.2</course>
  <speed>0.0</speed>
  <fix>3d</fix>
</trkpt>
<trkpt lat="40.0728481" lon="-105.2305771">
  <ele>1586.13</ele>
  <time>2026-08-28T19:07:35Z</time>
  <course>67.17</course>
  <speed>0.02</speed>
  <fix>3d</fix>
</trkpt>
<trkpt lat="40.0728482" lon="-105.230577">
  <ele>1586.07</ele>
  <time>2026-08-28T19:07:35Z</time>
  <course>43.9</course>
  <speed>0.0</speed>
  <fix>3d</fix>
</trkpt>
<trkpt lat="40.0728481" lon="-105.2305771">
  <ele>1586.13</ele>
  <time>2026-08-28T19:07:35Z</time>
  <course>67.19</course>
  <speed>0.02</speed>
  <fix>3d</fix>
</trkpt>
<trkpt lat="40.0728482" lon="-105.230577">
  <ele>1586.07</ele>
  <time>2026-08-28T19:07:35Z</time>
  <course>2.04</course>
  <speed>0.0</speed>
  <fix>3d</fix>
</trkpt>
<trkpt lat="40.0728481" lon="-105.2305771">
  <ele>1586.13</ele>
  <time>2026-08-28T19:07:35Z</time>
  <course>67.21</course>
  <speed>0.02</speed>
  <fix>3d</fix>
</trkpt>
<trkpt lat="40.0728482" lon="-105.230577">
  <ele>1586.07</ele>
  <time>2026-08-28T19:07:35Z</time>
  <course>8.3</course>
  <speed>0.0</speed>
  <fix>3d</fix>
</trkpt>
<trkpt lat="40.0728481" lon="-105.2305771">
  <ele>1586.13</ele>
  <time>2026-08-28T19:07:35Z</time>
  <course>67.23</course>
  <speed>0.02</speed>
  <fix>3d</fix>
</trkpt>
<trkpt lat="40.0728482" lon="-105.230577">
  <ele>1586.07</ele>
  <time>2026-08-28T19:07:35Z</time>
  <course>11.4</course>
  <speed>0.0</speed>
  <fix>3d</fix>
</trkpt>
<trkpt lat="40.0728481" lon="-105.2305771">
  <ele>1586.12</ele>
  <time>2026-08-28T19:07:35Z</time>
  <course>67.26</course>
  <speed>0.02</speed>
  <fix>3d</fix>
</trkpt>
<trkpt lat="40.0728482" lon="-105.230577">
  <ele>1586.07</ele>
  <time>2026-08-28T19:07:35Z</time>
  <course>9.91</course>
  <speed>0.0</speed>
  <fix>3d</fix>
</trkpt>
<trkpt lat="40.0728481" lon="-105.2305771">
  <ele>1586.12</ele>
  <time>2026-08-28T19:07:35Z</time>
  <course>67.28</course>
  <speed>0.02</speed>
  <fix>3d</fix>
</trkpt>
<trkpt lat="40.0728482" lon="-105.230577">
  <ele>1586.07</ele>
  <time>2026-08-28T19:07:35Z</time>
  <course>9.67</course>
  <speed>0.0</speed>
  <fix>3d</fix>
</trkpt>
<trkpt lat="40.0728481" lon="-105.2305771">
  <ele>1586.12</ele>
  <time>2026-08-28T19:07:35Z</time>
  <course>67.3</course>
  <speed>0.02</speed>
  <fix>3d</fix>
</trkpt>
<trkpt lat="40.0728482" lon="-105.230577">
  <ele>1586.07</ele>
  <time>2026-08-28T19:07:35Z</time>
  <course>9.89</course>
  <speed>0.0</speed>
  <fix>3d</fix>
</trkpt>
<trkpt lat="40.0728481" lon="-105.2305771">
  <ele>1586.11</ele>
  <time>2026-08-28T19:07:35Z</time>
  <course>67.39</course>
  <speed>0.01</speed>
  <fix>3d</fix>
</trkpt>
<trkpt lat="40.0728482" lon="-105.230577">
  <ele>1586.07</ele>
  <time>2026-08-28T19:07:35Z</time>
  <course>146.85</course>
  <speed>0.0</speed>
  <fix>3d</fix>
</trkpt>
<trkpt lat="40.0728481" lon="-105.2305771">
  <ele>1586.11</ele>
  <time>2026-08-28T19:07:35Z</time>
  <course>67.41</course>
  <speed>0.01</speed>
  <fix>3d</fix>
</trkpt>
<trkpt lat="40.0728482" lon="-105.230577">
  <ele>1586.07</ele>
  <time>2026-08-28T19:07:35Z</time>
  <course>135.12</course>
  <speed>0.0</speed>
  <fix>3d</fix>
</trkpt>
<trkpt lat="40.0728481" lon="-105.2305771">
  <ele>1586.12</ele>
  <time>2026-08-28T19:07:35Z</time>
  <course>67.43</course>
  <speed>0.01</speed>
  <fix>3d</fix>
</trkpt>
<trkpt lat="40.0728482" lon="-105.230577">
  <ele>1586.07</ele>
  <time>2026-08-28T19:07:35Z</time>
  <course>63.07</course>
  <speed>0.0</speed>
  <fix>3d</fix>
</trkpt>
<trkpt lat="40.0728481" lon="-105.2305771">
  <ele>1586.12</ele>
  <time>2026-08-28T19:07:35Z</time>
  <course>67.45</course>
  <speed>0.01</speed>
  <fix>3d</fix>
</trkpt>
<trkpt lat="40.0728482" lon="-105.230577">
  <ele>1586.07</ele>
  <time>2026-08-28T19:07:35Z</time>
  <course>356.8</course>
  <speed>0.0</speed>
  <fix>3d</fix>
</trkpt>
<trkpt lat="40.0728481" lon="-105.2305771">
  <ele>1586.13</ele>
  <time>2026-08-28T19:07:35Z</time>
  <course>67.47</course>
  <speed>0.01</speed>
  <fix>3d</fix>
</trkpt>
<trkpt lat="40.0728482" lon="-105.230577">
  <ele>1586.07</ele>
  <time>2026-08-28T19:07:35Z</time>
  <course>314.8</course>
  <speed>0.0</speed>
  <fix>3d</fix>
</trkpt>
<trkpt lat="40.0728481" lon="-105.2305771">
  <ele>1586.13</ele>
  <time>2026-08-28T19:07:35Z</time>
  <course>67.49</course>
  <speed>0.01</speed>
  <fix>3d</fix>
</trkpt>
<trkpt lat="40.0728482" lon="-105.230577">
  <ele>1586.07</ele>
  <time>2026-08-28T19:07:35Z</time>
  <course>311.42</course>
  <speed>0.0</speed>
  <fix>3d</fix>
</trkpt>
<trkpt lat="40.0728481" lon="-105.2305771">
  <ele>1586.13</ele>
  <time>2026-08-28T19:07:35Z</time>
  <course>67.51</course>
  <speed>0.01</speed>
  <fix>3d</fix>
</trkpt>
<trkpt lat="40.0728482" lon="-105.230577">
  <ele>1586.07</ele>
  <time>2026-08-28T19:07:35Z</time>
  <course>336.05</course>
  <speed>0.0</speed>
  <fix>3d</fix>
</trkpt>
<trkpt lat="40.0728481" lon="-105.2305771">
  <ele>1586.13</ele>
  <time>2026-08-28T19:07:35Z</time>
  <course>67.53</course>
  <speed>0.01</speed>
  <fix>3d</fix>
</trkpt>
<trkpt lat="40.0728482" lon="-105.230577">
  <ele>1586.07</ele>
  <time>2026-08-28T19:07:35Z</time>
  <course>304.49</course>
  <speed>0.0</speed>
  <fix>3d</fix>
</trkpt>
<trkpt lat="40.0728481" lon="-105.2305771">
  <ele>1586.12</ele>
  <time>2026-08-28T19:07:35Z</time>
  <course>67.55</course>
  <speed>0.01</speed>
  <fix>3d</fix>
</trkpt>
<trkpt lat="40.0728482" lon="-105.230577">
  <ele>1586.07</ele>
  <time>2026-08-28T19:07:35Z</time>
  <course>156.51</course>
  <speed>0.0</speed>
  <fix>3d</fix>
</trkpt>
<trkpt lat="40.0728481" lon="-105.2305771">
  <ele>1586.12</ele>
  <time>2026-08-28T19:07:35Z</time>
  <course>67.57</course>
  <speed>0.01</speed>
  <fix>3d</fix>
</trkpt>
<trkpt lat="40.0728482" lon="-105.230577">
  <ele>1586.07</ele>
  <time>2026-08-28T19:07:35Z</time>
  <course>116.05</course>
  <speed>0.0</speed>
  <fix>3d</fix>
</trkpt>
<trkpt lat="40.0728481" lon="-105.2305771">
  <ele>1586.12</ele>
  <time>2026-08-28T19:07:35Z</time>
  <course>67.59</course>
  <speed>0.01</speed>
  <fix>3d</fix>
</trkpt>
<trkpt lat="40.0728482" lon="-105.230577">
  <ele>1586.07</ele>
  <time>2026-08-28T19:07:35Z</time>
  <course>345.26</course>
  <speed>0.0</speed>
  <fix>3d</fix>
</trkpt>
<trkpt lat="40.0728481" lon="-105.2305771">
  <ele>1586.12</ele>
  <time>2026-08-28T19:07:35Z</time>
  <course>67.61</course>
  <speed>0.01</speed>
  <fix>3d</fix>
</trkpt>
<trkpt lat="40.0728482" lon="-105.230577">
  <ele>1586.07</ele>
  <time>2026-08-28T19:07:35Z</time>
  <course>341.25</course>
  <speed>0.0</speed>
  <fix>3d</fix>
</trkpt>
<trkpt lat="40.0728481" lon="-105.2305771">
  <ele>1586.12</ele>
  <time>2026-08-28T19:07:35Z</time>
  <course>67.63</course>
  <speed>0.01</speed>
  <fix>3d</fix>
</trkpt>
<trkpt lat="40.0728482" lon="-105.230577">
  <ele>1586.07</ele>
  <time>2026-08-28T19:07:35Z</time>
  <course>62.58</course>
  <speed>0.0</speed>
  <fix>3d</fix>
</trkpt>
<trkpt lat="40.0728481" lon="-105.2305771">
  <ele>1586.11</ele>
  <time>2026-08-28T19:07:35Z</time>
  <course>67.65</course>
  <speed>0.02</speed>
  <fix>3d</fix>
</trkpt>
<trkpt lat="40.0728482" lon="-105.230577">
  <ele>1586.07</ele>
  <time>2026-08-28T19:07:35Z</time>
  <course>30.56</course>
  <speed>0.0</speed>
  <fix>3d</fix>
</trkpt>
<trkpt lat="40.0728481" lon="-105.2305771">
  <ele>1586.11</ele>
  <time>2026-08-28T19:07:35Z</time>
  <course>67.67</course>
  <speed>0.02</speed>
  <fix>3d</fix>
</trkpt>
<trkpt lat="40.0728482" lon="-105.230577">
  <ele>1586.07</ele>
  <time>2026-08-28T19:07:35Z</time>
  <course>23.52</course>
  <speed>0.0</speed>
  <fix>3d</fix>
</trkpt>
<trkpt lat="40.0728481" lon="-105.2305771">
  <ele>1586.11</ele>
  <time>2026-08-28T19:07:35Z</time>
  <course>67.69</course>
  <speed>0.02</speed>
  <fix>3d</fix>
</trkpt>
<trkpt lat="40.0728482" lon="-105.230577">
  <ele>1586.07</ele>
  <time>2026-08-28T19:07:35Z</time>
  <course>27.69</course>
  <speed>0.0</speed>
  <fix>3d</fix>
</trkpt>
<trkpt lat="40.0728481" lon="-105.2305771">
  <ele>1586.12</ele>
  <time>2026-08-28T19:07:35Z</time>
  <course>67.71</course>
  <speed>0.02</speed>
  <fix>3d</fix>
</trkpt>
<trkpt lat="40.0728482" lon="-105.230577">
  <ele>1586.07</ele>
  <time>2026-08-28T19:07:35Z</time>
  <course>28.16</course>
  <speed>0.0</speed>
  <fix>3d</fix>
</trkpt>
<trkpt lat="40.0728481" lon="-105.2305771">
  <ele>1586.12</ele>
  <time>2026-08-28T19:07:35Z</time>
  <course>67.73</course>
  <speed>0.02</speed>
  <fix>3d</fix>
</trkpt>
<trkpt lat="40.0728482" lon="-105.230577">
  <ele>1586.07</ele>
  <time>2026-08-28T19:07:35Z</time>
  <course>27.52</course>
  <speed>0.0</speed>
  <fix>3d</fix>
</trkpt>
<trkpt lat="40.0728481" lon="-105.2305771">
  <ele>1586.12</ele>
  <time>2026-08-28T19:07:35Z</time>
  <course>67.75</course>
  <speed>0.02</speed>
  <fix>3d</fix>
</trkpt>
<trkpt lat="40.0728482" lon="-105.230577">
  <ele>1586.07</ele>
  <time>2026-08-28T19:07:35Z</time>
  <course>27.54</course>
  <speed>0.0</speed>
  <fix>3d</fix>
</trkpt>
<trkpt lat="40.0728481" lon="-105.2305771">
  <ele>1586.13</ele>
  <time>2026-08-28T19:07:35Z</time>
  <course>67.77</course>
  <speed>0.02</speed>
  <fix>3d</fix>
</trkpt>
<trkpt lat="40.0728482" lon="-105.230577">
  <ele>1586.07</ele>
  <time>2026-08-28T19:07:35Z</time>
  <course>336.71</course>
  <speed>0.0</speed>
  <fix>3d</fix>
</trkpt>
<trkpt lat="40.0728481" lon="-105.2305771">
  <ele>1586.13</ele>
  <time>2026-08-28T19:07:35Z</time>
  <course>67.79</course>
  <speed>0.02</speed>
  <fix>3d</fix>
</trkpt>
<trkpt lat="40.0728482" lon="-105.230577">
  <ele>1586.07</ele>
  <time>2026-08-28T19:07:35Z</time>
  <course>327.56</course>
  <speed>0.0</speed>
  <fix>3d</fix>
</trkpt>
<trkpt lat="40.0728481" lon="-105.2305771">
  <ele>1586.14</ele>
  <time>2026-08-28T19:07:35Z</time>
  <course>67.81</course>
  <speed>0.02</speed>
  <fix>3d</fix>
</trkpt>
<trkpt lat="40.0728482" lon="-105.230577">
  <ele>1586.07</ele>
  <time>2026-08-28T19:07:35Z</time>
  <course>313.41</course>
  <speed>0.0</speed>
  <fix>3d</fix>
</trkpt>
<trkpt lat="40.0728481" lon="-105.2305771">
  <ele>1586.15</ele>
  <time>2026-08-28T19:07:35Z</time>
  <course>67.83</course>
  <speed>0.02</speed>
  <fix>3d</fix>
</trkpt>
<trkpt lat="40.0728482" lon="-105.230577">
  <ele>1586.07</ele>
  <time>2026-08-28T19:07:35Z</time>
  <course>124.68</course>
  <speed>0.0</speed>
  <fix>3d</fix>
</trkpt>
<trkpt lat="40.0728481" lon="-105.2305771">
  <ele>1586.15</ele>
  <time>2026-08-28T19:07:35Z</time>
  <course>67.84</course>
  <speed>0.02</speed>
  <fix>3d</fix>
</trkpt>
<trkpt lat="40.0728482" lon="-105.230577">
  <ele>1586.07</ele>
  <time>2026-08-28T19:07:35Z</time>
  <course>30.6</course>
  <speed>0.0</speed>
  <fix>3d</fix>
</trkpt>
<trkpt lat="40.0728481" lon="-105.2305771">
  <ele>1586.16</ele>
  <time>2026-08-28T19:07:35Z</time>
  <course>67.86</course>
  <speed>0.022360679774997897</speed>
  <fix>3d</fix>
</trkpt>
<trkpt lat="40.0728482" lon="-105.230577">
  <ele>1586.07</ele>
  <time>2026-08-28T19:07:35Z</time>
  <course>0.51</course>
  <speed>0.0</speed>
  <fix>3d</fix>
</trkpt>
<trkpt lat="40.0728481" lon="-105.2305771">
  <ele>1586.16</ele>
  <time>2026-08-28T19:07:35Z</time>
  <course>67.88</course>
  <speed>0.022360679774997897</speed>
  <fix>3d</fix>
</trkpt>
<trkpt lat="40.0728482" lon="-105.230577">
  <ele>1586.07</ele>
  <time>2026-08-28T19:07:35Z</time>
  <course>8.29</course>
  <speed>0.0</speed>
  <fix>3d</fix>
</trkpt>
<trkpt lat="40.0728481" lon="-105.2305771">
  <ele>1586.16</ele>
  <time>2026-08-28T19:07:35Z</time>
  <course>67.9</course>
  <speed>0.022360679774997897</speed>
  <fix>3d</fix>
</trkpt>
<trkpt lat="40.0728482" lon="-105.230577">
  <ele>1586.07</ele>
  <time>2026-08-28T19:07:35Z</time>
  <course>11.63</course>
  <speed>0.0</speed>
  <fix>3d</fix>
</trkpt>
<trkpt lat="40.0728481" lon="-105.2305771">
  <ele>1586.15</ele>
  <time>2026-08-28T19:07:35Z</time>
  <course>67.92</course>
  <speed>0.022360679774997897</speed>
  <fix>3d</fix>
</trkpt>
<trkpt lat="40.0728482" lon="-105.230577">
  <ele>1586.07</ele>
  <time>2026-08-28T19:07:35Z</time>
  <course>9.88</course>
  <speed>0.0</speed>
  <fix>3d</fix>
</trkpt>
<trkpt lat="40.0728481" lon="-105.2305771">
  <ele>1586.15</ele>
  <time>2026-08-28T19:07:35Z</time>
  <course>67.94</course>
  <speed>0.022360679774997897</speed>
  <fix>3d</fix>
</trkpt>
<trkpt lat="40.0728482" lon="-105.230577">
  <ele>1586.07</ele>
  <time>2026-08-28T19:07:35Z</time>
  <course>307.58</course>
  <speed>0.0</speed>
  <fix>3d</fix>
</trkpt>
<trkpt lat="40.0728481" lon="-105.2305771">
  <ele>1586.15</ele>
  <time>2026-08-28T19:07:35Z</time>
  <course>67.95</course>
  <speed>0.022360679774997897</speed>
  <fix>3d</fix>
</trkpt>
<trkpt lat="40.0728482" lon="-105.230577">
  <ele>1586.07</ele>
  <time>2026-08-28T19:07:35Z</time>
  <course>355.87</course>
  <speed>0.0</speed>
  <fix>3d</fix>
</trkpt>
<trkpt lat="40.0728481" lon="-105.2305771">
  <ele>1586.15</ele>
  <time>2026-08-28T19:07:35Z</time>
  <course>67.97</course>
  <speed>0.022360679774997897</speed>
  <fix>3d</fix>
</trkpt>
<trkpt lat="40.0728482" lon="-105.230577">
  <ele>1586.07</ele>
  <time>2026-08-28T19:07:35Z</time>
  <course>9.37</course>
  <speed>0.0</speed>
  <fix>3d</fix>
</trkpt>
<trkpt lat="40.0728481" lon="-105.2305771">
  <ele>1586.15</ele>
  <time>2026-08-28T19:07:35Z</time>
  <course>67.99</course>
  <speed>0.022360679774997897</speed>
  <fix>3d</fix>
</trkpt>
<trkpt lat="40.0728482" lon="-105.230577">
  <ele>1586.07</ele>
  <time>2026-08-28T19:07:35Z</time>
  <course>5.78</course>
  <speed>0.0</speed>
  <fix>3d</fix>
</trkpt>
<trkpt lat="40.0728481" lon="-105.2305771">
  <ele>1586.15</ele>
  <time>2026-08-28T19:07:35Z</time>
  <course>68.01</course>
  <speed>0.02</speed>
  <fix>3d</fix>
</trkpt>
<trkpt lat="40.0728482" lon="-105.230577">
  <ele>1586.07</ele>
  <time>2026-08-28T19:07:35Z</time>
  <course>10.74</course>
  <speed>0.0</speed>
  <fix>3d</fix>
</trkpt>
<trkpt lat="40.0728481" lon="-105.2305771">
  <ele>1586.15</ele>
  <time>2026-08-28T19:07:36Z</time>
  <course>68.03</course>
  <speed>0.02</speed>
  <fix>3d</fix>
</trkpt>
<trkpt lat="40.0728482" lon="-105.230577">
  <ele>1586.07</ele>
  <time>2026-08-28T19:07:36Z</time>
  <course>10.32</course>
  <speed>0.0</speed>
  <fix>3d</fix>
</trkpt>
<trkpt lat="40.0728481" lon="-105.2305771">
  <ele>1586.15</ele>
  <time>2026-08-28T19:07:36Z</time>
  <course>68.04</course>
  <speed>0.02</speed>
  <fix>3d</fix>
</trkpt>
<trkpt lat="40.0728482" lon="-105.230577">
  <ele>1586.07</ele>
  <time>2026-08-28T19:07:36Z</time>
  <course>9.72</course>
  <speed>0.0</speed>
  <fix>3d</fix>
</trkpt>
<trkpt lat="40.0728481" lon="-105.2305771">
  <ele>1586.15</ele>
  <time>2026-08-28T19:07:36Z</time>
  <course>68.06</course>
  <speed>0.02</speed>
  <fix>3d</fix>
</trkpt>
<trkpt lat="40.0728482" lon="-105.230577">
  <ele>1586.07</ele>
  <time>2026-08-28T19:07:36Z</time>
  <course>9.84</course>
  <speed>0.0</speed>
  <fix>3d</fix>
</trkpt>
<trkpt lat="40.0728481" lon="-105.2305771">
  <ele>1586.15</ele>
  <time>2026-08-28T19:07:36Z</time>
  <course>68.08</course>
  <speed>0.02</speed>
  <fix>3d</fix>
</trkpt>
<trkpt lat="40.0728482" lon="-105.230577">
  <ele>1586.07</ele>
  <time>2026-08-28T19:07:36Z</time>
  <course>9.9</course>
  <speed>0.0</speed>
  <fix>3d</fix>
</trkpt>
<trkpt lat="40.0728481" lon="-105.2305771">
  <ele>1586.15</ele>
  <time>2026-08-28T19:07:36Z</time>
  <course>68.09</course>
  <speed>0.02</speed>
  <fix>3d</fix>
</trkpt>
<trkpt lat="40.0728482" lon="-105.230577">
  <ele>1586.07</ele>
  <time>2026-08-28T19:07:36Z</time>
  <course>9.88</course>
  <speed>0.0</speed>
  <fix>3d</fix>
</trkpt>
<trkpt lat="40.0728481" lon="-105.2305771">
  <ele>1586.15</ele>
  <time>2026-08-28T19:07:36Z</time>
  <course>68.11</course>
  <speed>0.02</speed>
  <fix>3d</fix>
</trkpt>
<trkpt lat="40.0728482" lon="-105.230577">
  <ele>1586.07</ele>
  <time>2026-08-28T19:07:36Z</time>
  <course>9.87</course>
  <speed>0.0</speed>
  <fix>3d</fix>
</trkpt>
<trkpt lat="40.0728481" lon="-105.2305771">
  <ele>1586.15</ele>
  <time>2026-08-28T19:07:36Z</time>
  <course>68.13</course>
  <speed>0.02</speed>
  <fix>3d</fix>
</trkpt>
<trkpt lat="40.0728482" lon="-105.230577">
  <ele>1586.07</ele>
  <time>2026-08-28T19:07:36Z</time>
  <course>9.88</course>
  <speed>0.0</speed>
  <fix>3d</fix>
</trkpt>
<trkpt lat="40.0728481" lon="-105.2305771">
  <ele>1586.15</ele>
  <time>2026-08-28T19:07:36Z</time>
  <course>68.14</course>
  <speed>0.02</speed>
  <fix>3d</fix>
</trkpt>
<trkpt lat="40.0728482" lon="-105.230577">
  <ele>1586.07</ele>
  <time>2026-08-28T19:07:36Z</time>
  <course>9.88</course>
  <speed>0.0</speed>
  <fix>3d</fix>
</trkpt>
<trkpt lat="40.0728481" lon="-105.2305771">
  <ele>1586.15</ele>
  <time>2026-08-28T19:07:36Z</time>
  <course>68.16</course>
  <speed>0.02</speed>
  <fix>3d</fix>
</trkpt>
<trkpt lat="40.0728482" lon="-105.230577">
  <ele>1586.07</ele>
  <time>2026-08-28T19:07:36Z</time>
  <course>9.84</course>
  <speed>0.0</speed>
  <fix>3d</fix>
</trkpt>
<trkpt lat="40.0728481" lon="-105.2305771">
  <ele>1586.15</ele>
  <time>2026-08-28T19:07:36Z</time>
  <course>68.17</course>
  <speed>0.02</speed>
  <fix>3d</fix>
</trkpt>
<trkpt lat="40.0728482" lon="-105.230577">
  <ele>1586.07</ele>
  <time>2026-08-28T19:07:36Z</time>
  <course>9.75</course>
  <speed>0.0</speed>
  <fix>3d</fix>
</trkpt>
<trkpt lat="40.0728481" lon="-105.2305771">
  <ele>1586.15</ele>
  <time>2026-08-28T19:07:36Z</time>
  <course>68.19</course>
  <speed>0.02</speed>
  <fix>3d</fix>
</trkpt>
<trkpt lat="40.0728482" lon="-105.230577">
  <ele>1586.07</ele>
  <time>2026-08-28T19:07:36Z</time>
  <course>9.64</course>
  <speed>0.0</speed>
  <fix>3d</fix>
</trkpt>
<trkpt lat="40.0728481" lon="-105.2305771">
  <ele>1586.15</ele>
  <time>2026-08-28T19:07:36Z</time>
  <course>68.2</course>
  <speed>0.02</speed>
  <fix>3d</fix>
</trkpt>
<trkpt lat="40.0728482" lon="-105.230577">
  <ele>1586.07</ele>
  <time>2026-08-28T19:07:36Z</time>
  <course>10.15</course>
  <speed>0.0</speed>
  <fix>3d</fix>
</trkpt>
<trkpt lat="40.0728481" lon="-105.2305771">
  <ele>1586.15</ele>
  <time>2026-08-28T19:07:36Z</time>
  <course>68.2</course>
  <speed>0.02</speed>
  <fix>3d</fix>
</trkpt>
<trkpt lat="40.0728482" lon="-105.230577">
  <ele>1586.07</ele>
  <time>2026-08-28T19:07:36Z</time>
  <course>18.12</course>
  <speed>0.0</speed>
  <fix>3d</fix>
</trkpt>
<trkpt lat="40.0728481" lon="-105.2305771">
  <ele>1586.15</ele>
  <time>2026-08-28T19:07:36Z</time>
  <course>68.21</course>
  <speed>0.02</speed>
  <fix>3d</fix>
</trkpt>
<trkpt lat="40.0728482" lon="-105.230577">
  <ele>1586.07</ele>
  <time>2026-08-28T19:07:36Z</time>
  <course>28.72</course>
  <speed>0.0</speed>
  <fix>3d</fix>
</trkpt>
<trkpt lat="40.0728481" lon="-105.2305771">
  <ele>1586.15</ele>
  <time>2026-08-28T19:07:36Z</time>
  <course>68.22</course>
  <speed>0.02</speed>
  <fix>3d</fix>
</trkpt>
<trkpt lat="40.0728482" lon="-105.230577">
  <ele>1586.07</ele>
  <time>2026-08-28T19:07:36Z</time>
  <course>36.25</course>
  <speed>0.0</speed>
  <fix>3d</fix>
</trkpt>
<trkpt lat="40.0728481" lon="-105.2305771">
  <ele>1586.15</ele>
  <time>2026-08-28T19:07:36Z</time>
  <course>68.22</course>
  <speed>0.02</speed>
  <fix>3d</fix>
</trkpt>
<trkpt lat="40.0728482" lon="-105.230577">
  <ele>1586.07</ele>
  <time>2026-08-28T19:07:36Z</time>
  <course>55.76</course>
  <speed>0.0</speed>
  <fix>3d</fix>
</trkpt>
<trkpt lat="40.0728481" lon="-105.2305771">
  <ele>1586.15</ele>
  <time>2026-08-28T19:07:36Z</time>
  <course>68.22</course>
  <speed>0.02</speed>
  <fix>3d</fix>
</trkpt>
<trkpt lat="40.0728482" lon="-105.230577">
  <ele>1586.07</ele>
  <time>2026-08-28T19:07:36Z</time>
  <course>80.07</course>
  <speed>0.0</speed>
  <fix>3d</fix>
</trkpt>
<trkpt lat="40.0728481" lon="-105.2305771">
  <ele>1586.15</ele>
  <time>2026-08-28T19:07:36Z</time>
  <course>68.22</course>
  <speed>0.02</speed>
  <fix>3d</fix>
</trkpt>
<trkpt lat="40.0728482" lon="-105.230577">
  <ele>1586.07</ele>
  <time>2026-08-28T19:07:36Z</time>
  <course>99.53</course>
  <speed>0.0</speed>
  <fix>3d</fix>
</trkpt>
<trkpt lat="40.0728481" lon="-105.2305771">
  <ele>1586.15</ele>
  <time>2026-08-28T19:07:36Z</time>
  <course>68.22</course>
  <speed>0.02</speed>
  <fix>3d</fix>
</trkpt>
<trkpt lat="40.0728482" lon="-105.230577">
  <ele>1586.07</ele>
  <time>2026-08-28T19:07:36Z</time>
  <course>112.37</course>
  <speed>0.0</speed>
  <fix>3d</fix>
</trkpt>
<trkpt lat="40.0728481" lon="-105.2305771">
  <ele>1586.15</ele>
  <time>2026-08-28T19:07:36Z</time>
  <course>68.21</course>
  <speed>0.02</speed>
  <fix>3d</fix>
</trkpt>
<trkpt lat="40.0728482" lon="-105.230577">
  <ele>1586.07</ele>
  <time>2026-08-28T19:07:36Z</time>
  <course>120.28</course>
  <speed>0.0</speed>
  <fix>3d</fix>
</trkpt>
<trkpt lat="40.0728481" lon="-105.2305771">
  <ele>1586.15</ele>
  <time>2026-08-28T19:07:36Z</time>
  <course>68.21</course>
  <speed>0.02</speed>
  <fix>3d</fix>
</trkpt>
<trkpt lat="40.0728482" lon="-105.230577">
  <ele>1586.07</ele>
  <time>2026-08-28T19:07:36Z</time>
  <course>125.14</course>
  <speed>0.0</speed>
  <fix>3d</fix>
</trkpt>
<trkpt lat="40.0728481" lon="-105.2305771">
  <ele>1586.15</ele>
  <time>2026-08-28T19:07:36Z</time>
  <course>68.2</course>
  <speed>0.02</speed>
  <fix>3d</fix>
</trkpt>
<trkpt lat="40.0728482" lon="-105.230577">
  <ele>1586.07</ele>
  <time>2026-08-28T19:07:36Z</time>
  <course>1.98</course>
  <speed>0.0</speed>
  <fix>3d</fix>
</trkpt>
<trkpt lat="40.0728481" lon="-105.2305771">
  <ele>1586.15</ele>
  <time>2026-08-28T19:07:36Z</time>
  <course>68.19</course>
  <speed>0.02</speed>
  <fix>3d</fix>
</trkpt>
<trkpt lat="40.0728482" lon="-105.230577">
  <ele>1586.07</ele>
  <time>2026-08-28T19:07:36Z</time>
  <course>337.58</course>
  <speed>0.0</speed>
  <fix>3d</fix>
</trkpt>
<trkpt lat="40.0728481" lon="-105.2305771">
  <ele>1586.15</ele>
  <time>2026-08-28T19:07:36Z</time>
  <course>68.18</course>
  <speed>0.02</speed>
  <fix>3d</fix>
</trkpt>
<trkpt lat="40.0728482" lon="-105.230577">
  <ele>1586.07</ele>
  <time>2026-08-28T19:07:36Z</time>
  <course>340.04</course>
  <speed>0.0</speed>
  <fix>3d</fix>
</trkpt>
<trkpt lat="40.0728481" lon="-105.2305771">
  <ele>1586.15</ele>
  <time>2026-08-28T19:07:36Z</time>
  <course>68.17</course>
  <speed>0.02</speed>
  <fix>3d</fix>
</trkpt>
<trkpt lat="40.0728482" lon="-105.230577">
  <ele>1586.07</ele>
  <time>2026-08-28T19:07:36Z</time>
  <course>90.84</course>
  <speed>0.0</speed>
  <fix>3d</fix>
</trkpt>
<trkpt lat="40.0728481" lon="-105.2305771">
  <ele>1586.15</ele>
  <time>2026-08-28T19:07:36Z</time>
  <course>68.15</course>
  <speed>0.02</speed>
  <fix>3d</fix>
</trkpt>
<trkpt lat="40.0728482" lon="-105.230577">
  <ele>1586.07</ele>
  <time>2026-08-28T19:07:36Z</time>
  <course>22.36</course>
  <speed>0.0</speed>
  <fix>3d</fix>
</trkpt>
<trkpt lat="40.0728481" lon="-105.2305771">
  <ele>1586.15</ele>
  <time>2026-08-28T19:07:36Z</time>
  <course>68.14</course>
  <speed>0.02</speed>
  <fix>3d</fix>
</trkpt>
<trkpt lat="40.0728482" lon="-105.230577">
  <ele>1586.07</ele>
  <time>2026-08-28T19:07:36Z</time>
  <course>2.37</course>
  <speed>0.0</speed>
  <fix>3d</fix>
</trkpt>
<trkpt lat="40.0728481" lon="-105.2305771">
  <ele>1586.15</ele>
  <time>2026-08-28T19:07:36Z</time>
  <course>68.12</course>
  <speed>0.02</speed>
  <fix>3d</fix>
</trkpt>
<trkpt lat="40.0728482" lon="-105.230577">
  <ele>1586.07</ele>
  <time>2026-08-28T19:07:36Z</time>
  <course>7.08</course>
  <speed>0.0</speed>
  <fix>3d</fix>
</trkpt>
<trkpt lat="40.0728481" lon="-105.2305771">
  <ele>1586.15</ele>
  <time>2026-08-28T19:07:36Z</time>
  <course>68.1</course>
  <speed>0.02</speed>
  <fix>3d</fix>
</trkpt>
<trkpt lat="40.0728482" lon="-105.230577">
  <ele>1586.07</ele>
  <time>2026-08-28T19:07:36Z</time>
  <course>8.58</course>
  <speed>0.0</speed>
  <fix>3d</fix>
</trkpt>
<trkpt lat="40.0728481" lon="-105.2305771">
  <ele>1586.15</ele>
  <time>2026-08-28T19:07:36Z</time>
  <course>68.08</course>
  <speed>0.02</speed>
  <fix>3d</fix>
</trkpt>
<trkpt lat="40.0728482" lon="-105.230577">
  <ele>1586.07</ele>
  <time>2026-08-28T19:07:36Z</time>
  <course>7.48</course>
  <speed>0.0</speed>
  <fix>3d</fix>
</trkpt>
<trkpt lat="40.0728481" lon="-105.2305771">
  <ele>1586.15</ele>
  <time>2026-08-28T19:07:36Z</time>
  <course>68.06</course>
  <speed>0.02</speed>
  <fix>3d</fix>
</trkpt>
<trkpt lat="40.0728482" lon="-105.230577">
  <ele>1586.07</ele>
  <time>2026-08-28T19:07:36Z</time>
  <course>7.25</course>
  <speed>0.0</speed>
  <fix>3d</fix>
</trkpt>
<trkpt lat="40.0728481" lon="-105.2305771">
  <ele>1586.15</ele>
  <time>2026-08-28T19:07:36Z</time>
  <course>68.04</course>
  <speed>0.02</speed>
  <fix>3d</fix>
</trkpt>
<trkpt lat="40.0728482" lon="-105.230577">
  <ele>1586.07</ele>
  <time>2026-08-28T19:07:36Z</time>
  <course>7.25</course>
  <speed>0.0</speed>
  <fix>3d</fix>
</trkpt>
<trkpt lat="40.0728481" lon="-105.2305771">
  <ele>1586.15</ele>
  <time>2026-08-28T19:07:36Z</time>
  <course>68.01</course>
  <speed>0.02</speed>
  <fix>3d</fix>
</trkpt>
<trkpt lat="40.0728482" lon="-105.230577">
  <ele>1586.07</ele>
  <time>2026-08-28T19:07:36Z</time>
  <course>7.12</course>
  <speed>0.0</speed>
  <fix>3d</fix>
</trkpt>
<trkpt lat="40.0728481" lon="-105.2305771">
  <ele>1586.15</ele>
  <time>2026-08-28T19:07:36Z</time>
  <course>67.98</course>
  <speed>0.022360679774997897</speed>
  <fix>3d</fix>
</trkpt>
<trkpt lat="40.0728482" lon="-105.230577">
  <ele>1586.07</ele>
  <time>2026-08-28T19:07:36Z</time>
  <course>333.57</course>
  <speed>0.0</speed>
  <fix>3d</fix>
</trkpt>
<trkpt lat="40.0728481" lon="-105.2305771">
  <ele>1586.15</ele>
  <time>2026-08-28T19:07:36Z</time>
  <course>67.96</course>
  <speed>0.022360679774997897</speed>
  <fix>3d</fix>
</trkpt>
<trkpt lat="40.0728482" lon="-105.230577">
  <ele>1586.07</ele>
  <time>2026-08-28T19:07:36Z</time>
  <course>332.9</course>
  <speed>0.0</speed>
  <fix>3d</fix>
</trkpt>
<trkpt lat="40.0728481" lon="-105.2305771">
  <ele>1586.15</ele>
  <time>2026-08-28T19:07:36Z</time>
  <course>67.93</course>
  <speed>0.022360679774997897</speed>
  <fix>3d</fix>
</trkpt>
<trkpt lat="40.0728482" lon="-105.230577">
  <ele>1586.07</ele>
  <time>2026-08-28T19:07:36Z</time>
  <course>335.66</course>
  <speed>0.0</speed>
  <fix>3d</fix>
</trkpt>
<trkpt lat="40.0728481" lon="-105.2305771">
  <ele>1586.16</ele>
  <time>2026-08-28T19:07:36Z</time>
  <course>67.89</course>
  <speed>0.022360679774997897</speed>
  <fix>3d</fix>
</trkpt>
<trkpt lat="40.0728482" lon="-105.230577">
  <ele>1586.07</ele>
  <time>2026-08-28T19:07:36Z</time>
  <course>335.36</course>
  <speed>0.0</speed>
  <fix>3d</fix>
</trkpt>
<trkpt lat="40.0728481" lon="-105.2305771">
  <ele>1586.16</ele>
  <time>2026-08-28T19:07:36Z</time>
  <course>67.86</course>
  <speed>0.022360679774997897</speed>
  <fix>3d</fix>
</trkpt>
<trkpt lat="40.0728482" lon="-105.230577">
  <ele>1586.07</ele>
  <time>2026-08-28T19:07:36Z</time>
  <course>332.64</course>
  <speed>0.0</speed>
  <fix>3d</fix>
</trkpt>
<trkpt lat="40.0728481" lon="-105.2305771">
  <ele>1586.16</ele>
  <time>2026-08-28T19:07:36Z</time>
  <course>67.83</course>
  <speed>0.022360679774997897</speed>
  <fix>3d</fix>
</trkpt>
<trkpt lat="40.0728482" lon="-105.230577">
  <ele>1586.07</ele>
  <time>2026-08-28T19:07:36Z</time>
  <course>333.14</course>
  <speed>0.0</speed>
  <fix>3d</fix>
</trkpt>
<trkpt lat="40.0728481" lon="-105.2305771">
  <ele>1586.16</ele>
  <time>2026-08-28T19:07:36Z</time>
  <course>67.79</course>
  <speed>0.022360679774997897</speed>
  <fix>3d</fix>
</trkpt>
<trkpt lat="40.0728482" lon="-105.230577">
  <ele>1586.07</ele>
  <time>2026-08-28T19:07:36Z</time>
  <course>332.87</course>
  <speed>0.0</speed>
  <fix>3d</fix>
</trkpt>
<trkpt lat="40.0728481" lon="-105.2305771">
  <ele>1586.16</ele>
  <time>2026-08-28T19:07:36Z</time>
  <course>67.76</course>
  <speed>0.022360679774997897</speed>
  <fix>3d</fix>
</trkpt>
<trkpt lat="40.0728482" lon="-105.230577">
  <ele>1586.07</ele>
  <time>2026-08-28T19:07:36Z</time>
  <course>332.14</course>
  <speed>0.0</speed>
  <fix>3d</fix>
</trkpt>
<trkpt lat="40.0728481" lon="-105.2305771">
  <ele>1586.16</ele>
  <time>2026-08-28T19:07:36Z</time>
  <course>67.72</course>
  <speed>0.022360679774997897</speed>
  <fix>3d</fix>
</trkpt>
<trkpt lat="40.0728482" lon="-105.230577">
  <ele>1586.07</ele>
  <time>2026-08-28T19:07:36Z</time>
  <course>332.82</course>
  <speed>0.0</speed>
  <fix>3d</fix>
</trkpt>
<trkpt lat="40.0728481" lon="-105.2305771">
  <ele>1586.16</ele>
  <time>2026-08-28T19:07:36Z</time>
  <course>67.68</course>
  <speed>0.022360679774997897</speed>
  <fix>3d</fix>
</trkpt>
<trkpt lat="40.0728482" lon="-105.230577">
  <ele>1586.07</ele>
  <time>2026-08-28T19:07:36Z</time>
  <course>332.02</course>
  <speed>0.0</speed>
  <fix>3d</fix>
</trkpt>
<trkpt lat="40.0728481" lon="-105.2305771">
  <ele>1586.16</ele>
  <time>2026-08-28T19:07:36Z</time>
  <course>67.64</course>
  <speed>0.022360679774997897</speed>
  <fix>3d</fix>
</trkpt>
<trkpt lat="40.0728482" lon="-105.230577">
  <ele>1586.07</ele>
  <time>2026-08-28T19:07:36Z</time>
  <course>331.82</course>
  <speed>0.0</speed>
  <fix>3d</fix>
</trkpt>
<trkpt lat="40.0728481" lon="-105.2305771">
  <ele>1586.16</ele>
  <time>2026-08-28T19:07:36Z</time>
  <course>67.6</course>
  <speed>0.022360679774997897</speed>
  <fix>3d</fix>
</trkpt>
<trkpt lat="40.0728482" lon="-105.230577">
  <ele>1586.07</ele>
  <time>2026-08-28T19:07:36Z</time>
  <course>332.88</course>
  <speed>0.0</speed>
  <fix>3d</fix>
</trkpt>
<trkpt lat="40.0728481" lon="-105.2305771">
  <ele>1586.16</ele>
  <time>2026-08-28T19:07:36Z</time>
  <course>67.56</course>
  <speed>0.022360679774997897</speed>
  <fix>3d</fix>
</trkpt>
<trkpt lat="40.0728482" lon="-105.230577">
  <ele>1586.07</ele>
  <time>2026-08-28T19:07:36Z</time>
  <course>331.7</course>
  <speed>0.0</speed>
  <fix>3d</fix>
</trkpt>
<trkpt lat="40.0728481" lon="-105.2305771">
  <ele>1586.16</ele>
  <time>2026-08-28T19:07:36Z</time>
  <course>67.51</course>
  <speed>0.022360679774997897</speed>
  <fix>3d</fix>
</trkpt>
<trkpt lat="40.0728482" lon="-105.230577">
  <ele>1586.07</ele>
  <time>2026-08-28T19:07:36Z</time>
  <course>331.61</course>
  <speed>0.0</speed>
  <fix>3d</fix>
</trkpt>
<trkpt lat="40.0728481" lon="-105.2305771">
  <ele>1586.16</ele>
  <time>2026-08-28T19:07:36Z</time>
  <course>67.47</course>
  <speed>0.022360679774997897</speed>
  <fix>3d</fix>
</trkpt>
<trkpt lat="40.0728482" lon="-105.230577">
  <ele>1586.07</ele>
  <time>2026-08-28T19:07:36Z</time>
  <course>331.36</course>
  <speed>0.0</speed>
  <fix>3d</fix>
</trkpt>
<trkpt lat="40.0728481" lon="-105.2305771">
  <ele>1586.16</ele>
  <time>2026-08-28T19:07:36Z</time>
  <course>67.43</course>
  <speed>0.022360679774997897</speed>
  <fix>3d</fix>
</trkpt>
<trkpt lat="40.0728482" lon="-105.230577">
  <ele>1586.07</ele>
  <time>2026-08-28T19:07:36Z</time>
  <course>331.26</course>
  <speed>0.0</speed>
  <fix>3d</fix>
</trkpt>
<trkpt lat="40.0728481" lon="-105.2305771">
  <ele>1586.16</ele>
  <time>2026-08-28T19:07:36Z</time>
  <course>67.38</course>
  <speed>0.022360679774997897</speed>
  <fix>3d</fix>
</trkpt>
<trkpt lat="40.0728482" lon="-105.230577">
  <ele>1586.07</ele>
  <time>2026-08-28T19:07:36Z</time>
  <course>331.12</course>
  <speed>0.0</speed>
  <fix>3d</fix>
</trkpt>
<trkpt lat="40.0728481" lon="-105.2305771">
  <ele>1586.16</ele>
  <time>2026-08-28T19:07:36Z</time>
  <course>67.34</course>
  <speed>0.022360679774997897</speed>
  <fix>3d</fix>
</trkpt>
<trkpt lat="40.0728482" lon="-105.230577">
  <ele>1586.07</ele>
  <time>2026-08-28T19:07:36Z</time>
  <course>331.06</course>
  <speed>0.0</speed>
  <fix>3d</fix>
</trkpt>
<trkpt lat="40.0728481" lon="-105.2305771">
  <ele>1586.16</ele>
  <time>2026-08-28T19:07:36Z</time>
  <course>67.3</course>
  <speed>0.022360679774997897</speed>
  <fix>3d</fix>
</trkpt>
<trkpt lat="40.0728482" lon="-105.230577">
  <ele>1586.07</ele>
  <time>2026-08-28T19:07:36Z</time>
  <course>330.98</course>
  <speed>0.0</speed>
  <fix>3d</fix>
</trkpt>
<trkpt lat="40.0728481" lon="-105.2305771">
  <ele>1586.16</ele>
  <time>2026-08-28T19:07:36Z</time>
  <course>67.25</course>
  <speed>0.022360679774997897</speed>
  <fix>3d</fix>
</trkpt>
<trkpt lat="40.0728482" lon="-105.230577">
  <ele>1586.07</ele>
  <time>2026-08-28T19:07:36Z</time>
  <course>330.88</course>
  <speed>0.0</speed>
  <fix>3d</fix>
</trkpt>
<trkpt lat="40.0728481" lon="-105.2305771">
  <ele>1586.16</ele>
  <time>2026-08-28T19:07:36Z</time>
  <course>67.21</course>
  <speed>0.02</speed>
  <fix>3d</fix>
</trkpt>
<trkpt lat="40.0728482" lon="-105.230577">
  <ele>1586.07</ele>
  <time>2026-08-28T19:07:36Z</time>
  <course>331.0</course>
  <speed>0.0</speed>
  <fix>3d</fix>
</trkpt>
<trkpt lat="40.0728481" lon="-105.2305771">
  <ele>1586.17</ele>
  <time>2026-08-28T19:07:36Z</time>
  <course>67.17</course>
  <speed>0.022360679774997897</speed>
  <fix>3d</fix>
</trkpt>
<trkpt lat="40.0728482" lon="-105.230577">
  <ele>1586.07</ele>
  <time>2026-08-28T19:07:36Z</time>
  <course>330.72</course>
  <speed>0.0</speed>
  <fix>3d</fix>
</trkpt>
<trkpt lat="40.0728481" lon="-105.2305771">
  <ele>1586.17</ele>
  <time>2026-08-28T19:07:36Z</time>
  <course>67.13</course>
  <speed>0.022360679774997897</speed>
  <fix>3d</fix>
</trkpt>
<trkpt lat="40.0728482" lon="-105.230577">
  <ele>1586.07</ele>
  <time>2026-08-28T19:07:36Z</time>
  <course>330.67</course>
  <speed>0.0</speed>
  <fix>3d</fix>
</trkpt>
<trkpt lat="40.0728481" lon="-105.2305771">
  <ele>1586.17</ele>
  <time>2026-08-28T19:07:36Z</time>
  <course>67.09</course>
  <speed>0.022360679774997897</speed>
  <fix>3d</fix>
</trkpt>
<trkpt lat="40.0728482" lon="-105.230577">
  <ele>1586.07</ele>
  <time>2026-08-28T19:07:36Z</time>
  <course>330.54</course>
  <speed>0.0</speed>
  <fix>3d</fix>
</trkpt>
<trkpt lat="40.0728481" lon="-105.2305771">
  <ele>1586.17</ele>
  <time>2026-08-28T19:07:36Z</time>
  <course>67.05</course>
  <speed>0.022360679774997897</speed>
  <fix>3d</fix>
</trkpt>
<trkpt lat="40.0728482" lon="-105.230577">
  <ele>1586.07</ele>
  <time>2026-08-28T19:07:36Z</time>
  <course>330.49</course>
  <speed>0.0</speed>
  <fix>3d</fix>
</trkpt>
<trkpt lat="40.0728481" lon="-105.2305771">
  <ele>1586.17</ele>
  <time>2026-08-28T19:07:36Z</time>
  <course>67.01</course>
  <speed>0.022360679774997897</speed>
  <fix>3d</fix>
</trkpt>
<trkpt lat="40.0728482" lon="-105.230577">
  <ele>1586.07</ele>
  <time>2026-08-28T19:07:36Z</time>
  <course>330.39</course>
  <speed>0.0</speed>
  <fix>3d</fix>
</trkpt>
<trkpt lat="40.0728481" lon="-105.2305771">
  <ele>1586.16</ele>
  <time>2026-08-28T19:07:36Z</time>
  <course>66.97</course>
  <speed>0.02</speed>
  <fix>3d</fix>
</trkpt>
<trkpt lat="40.0728482" lon="-105.230577">
  <ele>1586.07</ele>
  <time>2026-08-28T19:07:36Z</time>
  <course>330.32</course>
  <speed>0.0</speed>
  <fix>3d</fix>
</trkpt>
<trkpt lat="40.0728481" lon="-105.2305771">
  <ele>1586.16</ele>
  <time>2026-08-28T19:07:36Z</time>
  <course>66.93</course>
  <speed>0.02</speed>
  <fix>3d</fix>
</trkpt>
<trkpt lat="40.0728482" lon="-105.230577">
  <ele>1586.07</ele>
  <time>2026-08-28T19:07:36Z</time>
  <course>330.26</course>
  <speed>0.0</speed>
  <fix>3d</fix>
</trkpt>
<trkpt lat="40.0728481" lon="-105.2305771">
  <ele>1586.16</ele>
  <time>2026-08-28T19:07:36Z</time>
  <course>66.9</course>
  <speed>0.022360679774997897</speed>
  <fix>3d</fix>
</trkpt>
<trkpt lat="40.0728482" lon="-105.230577">
  <ele>1586.07</ele>
  <time>2026-08-28T19:07:36Z</time>
  <course>330.16</course>
  <speed>0.0</speed>
  <fix>3d</fix>
</trkpt>
<trkpt lat="40.0728481" lon="-105.2305771">
  <ele>1586.16</ele>
  <time>2026-08-28T19:07:36Z</time>
  <course>66.86</course>
  <speed>0.02</speed>
  <fix>3d</fix>
</trkpt>
<trkpt lat="40.0728482" lon="-105.230577">
  <ele>1586.07</ele>
  <time>2026-08-28T19:07:36Z</time>
  <course>330.15</course>
  <speed>0.0</speed>
  <fix>3d</fix>
</trkpt>
<trkpt lat="40.0728481" lon="-105.2305771">
  <ele>1586.16</ele>
  <time>2026-08-28T19:07:36Z</time>
  <course>66.82</course>
  <speed>0.02</speed>
  <fix>3d</fix>
</trkpt>
<trkpt lat="40.0728482" lon="-105.230577">
  <ele>1586.07</ele>
  <time>2026-08-28T19:07:36Z</time>
  <course>329.86</course>
  <speed>0.0</speed>
  <fix>3d</fix>
</trkpt>
<trkpt lat="40.0728481" lon="-105.2305771">
  <ele>1586.16</ele>
  <time>2026-08-28T19:07:36Z</time>
  <course>66.79</course>
  <speed>0.022360679774997897</speed>
  <fix>3d</fix>
</trkpt>
<trkpt lat="40.0728482" lon="-105.230577">
  <ele>1586.07</ele>
  <time>2026-08-28T19:07:36Z</time>
  <course>329.97</course>
  <speed>0.0</speed>
  <fix>3d</fix>
</trkpt>
<trkpt lat="40.0728481" lon="-105.2305771">
  <ele>1586.16</ele>
  <time>2026-08-28T19:07:36Z</time>
  <course>66.75</course>
  <speed>0.02</speed>
  <fix>3d</fix>
</trkpt>
<trkpt lat="40.0728482" lon="-105.230577">
  <ele>1586.07</ele>
  <time>2026-08-28T19:07:36Z</time>
  <course>329.96</course>
  <speed>0.0</speed>
  <fix>3d</fix>
</trkpt>
<trkpt lat="40.0728481" lon="-105.2305771">
  <ele>1586.16</ele>
  <time>2026-08-28T19:07:36Z</time>
  <course>66.71</course>
  <speed>0.022360679774997897</speed>
  <fix>3d</fix>
</trkpt>
<trkpt lat="40.0728482" lon="-105.230577">
  <ele>1586.07</ele>
  <time>2026-08-28T19:07:36Z</time>
  <course>329.74</course>
  <speed>0.0</speed>
  <fix>3d</fix>
</trkpt>
<trkpt lat="40.0728481" lon="-105.2305771">
  <ele>1586.16</ele>
  <time>2026-08-28T19:07:36Z</time>
  <course>66.68</course>
  <speed>0.022360679774997897</speed>
  <fix>3d</fix>
</trkpt>
<trkpt lat="40.0728482" lon="-105.230577">
  <ele>1586.07</ele>
  <time>2026-08-28T19:07:36Z</time>
  <course>329.79</course>
  <speed>0.0</speed>
  <fix>3d</fix>
</trkpt>
<trkpt lat="40.0728481" lon="-105.2305771">
  <ele>1586.16</ele>
  <time>2026-08-28T19:07:36Z</time>
  <course>66.64</course>
  <speed>0.02</speed>
  <fix>3d</fix>
</trkpt>
<trkpt lat="40.0728482" lon="-105.230577">
  <ele>1586.07</ele>
  <time>2026-08-28T19:07:36Z</time>
  <course>329.68</course>
  <speed>0.0</speed>
  <fix>3d</fix>
</trkpt>
<trkpt lat="40.0728481" lon="-105.2305771">
  <ele>1586.17</ele>
  <time>2026-08-28T19:07:36Z</time>
  <course>66.61</course>
  <speed>0.02</speed>
  <fix>3d</fix>
</trkpt>
<trkpt lat="40.0728482" lon="-105.230577">
  <ele>1586.07</ele>
  <time>2026-08-28T19:07:36Z</time>
  <course>329.62</course>
  <speed>0.0</speed>
  <fix>3d</fix>
</trkpt>
<trkpt lat="40.0728481" lon="-105.2305771">
  <ele>1586.17</ele>
  <time>2026-08-28T19:07:36Z</time>
  <course>66.57</course>
  <speed>0.02</speed>
  <fix>3d</fix>
</trkpt>
<trkpt lat="40.0728482" lon="-105.230577">
  <ele>1586.07</ele>
  <time>2026-08-28T19:07:36Z</time>
  <course>329.66</course>
  <speed>0.0</speed>
  <fix>3d</fix>
</trkpt>
<trkpt lat="40.0728481" lon="-105.2305771">
  <ele>1586.17</ele>
  <time>2026-08-28T19:07:36Z</time>
  <course>66.54</course>
  <speed>0.02</speed>
  <fix>3d</fix>
</trkpt>
<trkpt lat="40.0728482" lon="-105.230577">
  <ele>1586.07</ele>
  <time>2026-08-28T19:07:36Z</time>
  <course>329.33</course>
  <speed>0.0</speed>
  <fix>3d</fix>
</trkpt>
<trkpt lat="40.0728481" lon="-105.2305771">
  <ele>1586.17</ele>
  <time>2026-08-28T19:07:36Z</time>
  <course>66.51</course>
  <speed>0.02</speed>
  <fix>3d</fix>
</trkpt>
<trkpt lat="40.0728482" lon="-105.230577">
  <ele>1586.07</ele>
  <time>2026-08-28T19:07:36Z</time>
  <course>329.47</course>
  <speed>0.0</speed>
  <fix>3d</fix>
</trkpt>
<trkpt lat="40.0728481" lon="-105.2305771">
  <ele>1586.17</ele>
  <time>2026-08-28T19:07:36Z</time>
  <course>66.47</course>
  <speed>0.02</speed>
  <fix>3d</fix>
</trkpt>
<trkpt lat="40.0728482" lon="-105.230577">
  <ele>1586.07</ele>
  <time>2026-08-28T19:07:36Z</time>
  <course>329.5</course>
  <speed>0.0</speed>
  <fix>3d</fix>
</trkpt>
<trkpt lat="40.0728481" lon="-105.2305771">
  <ele>1586.17</ele>
  <time>2026-08-28T19:07:36Z</time>
  <course>66.44</course>
  <speed>0.02</speed>
  <fix>3d</fix>
</trkpt>
<trkpt lat="40.0728482" lon="-105.230577">
  <ele>1586.07</ele>
  <time>2026-08-28T19:07:36Z</time>
  <course>329.02</course>
  <speed>0.0</speed>
  <fix>3d</fix>
</trkpt>
<trkpt lat="40.0728481" lon="-105.2305771">
  <ele>1586.17</ele>
  <time>2026-08-28T19:07:36Z</time>
  <course>66.41</course>
  <speed>0.02</speed>
  <fix>3d</fix>
</trkpt>
<trkpt lat="40.0728482" lon="-105.230577">
  <ele>1586.07</ele>
  <time>2026-08-28T19:07:36Z</time>
  <course>329.29</course>
  <speed>0.0</speed>
  <fix>3d</fix>
</trkpt>
<trkpt lat="40.0728481" lon="-105.2305771">
  <ele>1586.17</ele>
  <time>2026-08-28T19:07:36Z</time>
  <course>66.37</course>
  <speed>0.02</speed>
  <fix>3d</fix>
</trkpt>
<trkpt lat="40.0728482" lon="-105.230577">
  <ele>1586.07</ele>
  <time>2026-08-28T19:07:36Z</time>
  <course>329.35</course>
  <speed>0.0</speed>
  <fix>3d</fix>
</trkpt>
<trkpt lat="40.0728481" lon="-105.2305771">
  <ele>1586.17</ele>
  <time>2026-08-28T19:07:36Z</time>
  <course>66.34</course>
  <speed>0.02</speed>
  <fix>3d</fix>
</trkpt>
<trkpt lat="40.0728482" lon="-105.230577">
  <ele>1586.07</ele>
  <time>2026-08-28T19:07:36Z</time>
  <course>328.97</course>
  <speed>0.0</speed>
  <fix>3d</fix>
</trkpt>
<trkpt lat="40.0728481" lon="-105.2305771">
  <ele>1586.17</ele>
  <time>2026-08-28T19:07:36Z</time>
  <course>66.31</course>
  <speed>0.02</speed>
  <fix>3d</fix>
</trkpt>
<trkpt lat="40.0728482" lon="-105.230577">
  <ele>1586.07</ele>
  <time>2026-08-28T19:07:36Z</time>
  <course>329.12</course>
  <speed>0.0</speed>
  <fix>3d</fix>
</trkpt>
<trkpt lat="40.0728481" lon="-105.2305771">
  <ele>1586.17</ele>
  <time>2026-08-28T19:07:36Z</time>
  <course>66.28</course>
  <speed>0.02</speed>
  <fix>3d</fix>
</trkpt>
<trkpt lat="40.0728482" lon="-105.230577">
  <ele>1586.07</ele>
  <time>2026-08-28T19:07:36Z</time>
  <course>329.21</course>
  <speed>0.0</speed>
  <fix>3d</fix>
</trkpt>
<trkpt lat="40.0728481" lon="-105.2305771">
  <ele>1586.17</ele>
  <time>2026-08-28T19:07:36Z</time>
  <course>66.25</course>
  <speed>0.02</speed>
  <fix>3d</fix>
</trkpt>
<trkpt lat="40.0728482" lon="-105.230577">
  <ele>1586.07</ele>
  <time>2026-08-28T19:07:36Z</time>
  <course>328.85</course>
  <speed>0.0</speed>
  <fix>3d</fix>
</trkpt>
<trkpt lat="40.0728481" lon="-105.2305771">
  <ele>1586.17</ele>
  <time>2026-08-28T19:07:36Z</time>
  <course>66.22</course>
  <speed>0.02</speed>
  <fix>3d</fix>
</trkpt>
<trkpt lat="40.0728482" lon="-105.230577">
  <ele>1586.07</ele>
  <time>2026-08-28T19:07:36Z</time>
  <course>328.91</course>
  <speed>0.0</speed>
  <fix>3d</fix>
</trkpt>
<trkpt lat="40.0728481" lon="-105.2305771">
  <ele>1586.17</ele>
  <time>2026-08-28T19:07:36Z</time>
  <course>66.19</course>
  <speed>0.02</speed>
  <fix>3d</fix>
</trkpt>
<trkpt lat="40.0728482" lon="-105.230577">
  <ele>1586.07</ele>
  <time>2026-08-28T19:07:36Z</time>
  <course>329.06</course>
  <speed>0.0</speed>
  <fix>3d</fix>
</trkpt>
<trkpt lat="40.0728481" lon="-105.2305771">
  <ele>1586.17</ele>
  <time>2026-08-28T19:07:36Z</time>
  <course>66.16</course>
  <speed>0.02</speed>
  <fix>3d</fix>
</trkpt>
<trkpt lat="40.0728482" lon="-105.230577">
  <ele>1586.07</ele>
  <time>2026-08-28T19:07:36Z</time>
  <course>328.83</course>
  <speed>0.0</speed>
  <fix>3d</fix>
</trkpt>
<trkpt lat="40.0728481" lon="-105.2305771">
  <ele>1586.17</ele>
  <time>2026-08-28T19:07:36Z</time>
  <course>66.13</course>
  <speed>0.02</speed>
  <fix>3d</fix>
</trkpt>
<trkpt lat="40.0728482" lon="-105.230577">
  <ele>1586.07</ele>
  <time>2026-08-28T19:07:36Z</time>
  <course>328.03</course>
  <speed>0.0</speed>
  <fix>3d</fix>
</trkpt>
<trkpt lat="40.0728481" lon="-105.2305771">
  <ele>1586.18</ele>
  <time>2026-08-28T19:07:36Z</time>
  <course>66.1</course>
  <speed>0.02</speed>
  <fix>3d</fix>
</trkpt>
<trkpt lat="40.0728482" lon="-105.230577">
  <ele>1586.07</ele>
  <time>2026-08-28T19:07:36Z</time>
  <course>328.82</course>
  <speed>0.0</speed>
  <fix>3d</fix>
</trkpt>
<trkpt lat="40.0728481" lon="-105.2305771">
  <ele>1586.18</ele>
  <time>2026-08-28T19:07:36Z</time>
  <course>66.07</course>
  <speed>0.02</speed>
  <fix>3d</fix>
</trkpt>
<trkpt lat="40.0728482" lon="-105.230577">
  <ele>1586.07</ele>
  <time>2026-08-28T19:07:36Z</time>
  <course>328.79</course>
  <speed>0.0</speed>
  <fix>3d</fix>
</trkpt>
<trkpt lat="40.0728481" lon="-105.2305771">
  <ele>1586.18</ele>
  <time>2026-08-28T19:07:36Z</time>
  <course>66.04</course>
  <speed>0.02</speed>
  <fix>3d</fix>
</trkpt>
<trkpt lat="40.0728482" lon="-105.230577">
  <ele>1586.07</ele>
  <time>2026-08-28T19:07:36Z</time>
  <course>327.98</course>
  <speed>0.0</speed>
  <fix>3d</fix>
</trkpt>
<trkpt lat="40.0728481" lon="-105.2305771">
  <ele>1586.18</ele>
  <time>2026-08-28T19:07:36Z</time>
  <course>66.01</course>
  <speed>0.02</speed>
  <fix>3d</fix>
</trkpt>
<trkpt lat="40.0728482" lon="-105.230577">
  <ele>1586.07</ele>
  <time>2026-08-28T19:07:36Z</time>
  <course>328.69</course>
  <speed>0.0</speed>
  <fix>3d</fix>
</trkpt>
<trkpt lat="40.0728481" lon="-105.2305771">
  <ele>1586.18</ele>
  <time>2026-08-28T19:07:36Z</time>
  <course>65.98</course>
  <speed>0.02</speed>
  <fix>3d</fix>
</trkpt>
<trkpt lat="40.0728482" lon="-105.230577">
  <ele>1586.07</ele>
  <time>2026-08-28T19:07:36Z</time>
  <course>328.77</course>
  <speed>0.0</speed>
  <fix>3d</fix>
</trkpt>
<trkpt lat="40.0728481" lon="-105.2305771">
  <ele>1586.18</ele>
  <time>2026-08-28T19:07:36Z</time>
  <course>65.96</course>
  <speed>0.02</speed>
  <fix>3d</fix>
</trkpt>
<trkpt lat="40.0728482" lon="-105.230577">
  <ele>1586.07</ele>
  <time>2026-08-28T19:07:36Z</time>
  <course>328.42</course>
  <speed>0.0</speed>
  <fix>3d</fix>
</trkpt>
<trkpt lat="40.0728481" lon="-105.2305771">
  <ele>1586.18</ele>
  <time>2026-08-28T19:07:36Z</time>
  <course>65.93</course>
  <speed>0.02</speed>
  <fix>3d</fix>
</trkpt>
<trkpt lat="40.0728482" lon="-105.230577">
  <ele>1586.07</ele>
  <time>2026-08-28T19:07:36Z</time>
  <course>327.87</course>
  <speed>0.0</speed>
  <fix>3d</fix>
</trkpt>
<trkpt lat="40.0728481" lon="-105.2305771">
  <ele>1586.17</ele>
  <time>2026-08-28T19:07:36Z</time>
  <course>65.9</course>
  <speed>0.02</speed>
  <fix>3d</fix>
</trkpt>
<trkpt lat="40.0728482" lon="-105.230577">
  <ele>1586.07</ele>
  <time>2026-08-28T19:07:36Z</time>
  <course>328.57</course>
  <speed>0.0</speed>
  <fix>3d</fix>
</trkpt>
<trkpt lat="40.0728481" lon="-105.2305771">
  <ele>1586.17</ele>
  <time>2026-08-28T19:07:36Z</time>
  <course>65.88</course>
  <speed>0.02</speed>
  <fix>3d</fix>
</trkpt>
<trkpt lat="40.0728482" lon="-105.230577">
  <ele>1586.07</ele>
  <time>2026-08-28T19:07:36Z</time>
  <course>328.54</course>
  <speed>0.0</speed>
  <fix>3d</fix>
</trkpt>
<trkpt lat="40.0728481" lon="-105.2305771">
  <ele>1586.17</ele>
  <time>2026-08-28T19:07:36Z</time>
  <course>65.85</course>
  <speed>0.02</speed>
  <fix>3d</fix>
</trkpt>
<trkpt lat="40.0728482" lon="-105.230577">
  <ele>1586.07</ele>
  <time>2026-08-28T19:07:36Z</time>
  <course>327.82</course>
  <speed>0.0</speed>
  <fix>3d</fix>
</trkpt>
<trkpt lat="40.0728481" lon="-105.2305771">
  <ele>1586.17</ele>
  <time>2026-08-28T19:07:36Z</time>
  <course>65.82</course>
  <speed>0.02</speed>
  <fix>3d</fix>
</trkpt>
<trkpt lat="40.0728482" lon="-105.230577">
  <ele>1586.07</ele>
  <time>2026-08-28T19:07:36Z</time>
  <course>328.37</course>
  <speed>0.0</speed>
  <fix>3d</fix>
</trkpt>
<trkpt lat="40.0728481" lon="-105.2305771">
  <ele>1586.17</ele>
  <time>2026-08-28T19:07:36Z</time>
  <course>65.8</course>
  <speed>0.02</speed>
  <fix>3d</fix>
</trkpt>
<trkpt lat="40.0728482" lon="-105.230577">
  <ele>1586.07</ele>
  <time>2026-08-28T19:07:36Z</time>
  <course>328.48</course>
  <speed>0.0</speed>
  <fix>3d</fix>
</trkpt>
<trkpt lat="40.0728481" lon="-105.2305771">
  <ele>1586.17</ele>
  <time>2026-08-28T19:07:36Z</time>
  <course>65.77</course>
  <speed>0.02</speed>
  <fix>3d</fix>
</trkpt>
<trkpt lat="40.0728482" lon="-105.230577">
  <ele>1586.07</ele>
  <time>2026-08-28T19:07:36Z</time>
  <course>328.19</course>
  <speed>0.0</speed>
  <fix>3d</fix>
</trkpt>
<trkpt lat="40.0728481" lon="-105.2305771">
  <ele>1586.16</ele>
  <time>2026-08-28T19:07:36Z</time>
  <course>65.74</course>
  <speed>0.02</speed>
  <fix>3d</fix>
</trkpt>
<trkpt lat="40.0728482" lon="-105.230577">
  <ele>1586.07</ele>
  <time>2026-08-28T19:07:36Z</time>
  <course>327.61</course>
  <speed>0.0</speed>
  <fix>3d</fix>
</trkpt>
<trkpt lat="40.0728481" lon="-105.2305771">
  <ele>1586.16</ele>
  <time>2026-08-28T19:07:36Z</time>
  <course>65.72</course>
  <speed>0.02</speed>
  <fix>3d</fix>
</trkpt>
<trkpt lat="40.0728482" lon="-105.230577">
  <ele>1586.07</ele>
  <time>2026-08-28T19:07:36Z</time>
  <course>328.31</course>
  <speed>0.0</speed>
  <fix>3d</fix>
</trkpt>
<trkpt lat="40.0728481" lon="-105.2305771">
  <ele>1586.16</ele>
  <time>2026-08-28T19:07:36Z</time>
  <course>65.7</course>
  <speed>0.02</speed>
  <fix>3d</fix>
</trkpt>
<trkpt lat="40.0728482" lon="-105.230577">
  <ele>1586.07</ele>
  <time>2026-08-28T19:07:36Z</time>
  <course>328.34</course>
  <speed>0.0</speed>
  <fix>3d</fix>
</trkpt>
<trkpt lat="40.0728481" lon="-105.2305771">
  <ele>1586.16</ele>
  <time>2026-08-28T19:07:36Z</time>
  <course>65.67</course>
  <speed>0.02</speed>
  <fix>3d</fix>
</trkpt>
<trkpt lat="40.0728482" lon="-105.230577">
  <ele>1586.07</ele>
  <time>2026-08-28T19:07:36Z</time>
  <course>327.89</course>
  <speed>0.0</speed>
  <fix>3d</fix>
</trkpt>
<trkpt lat="40.0728481" lon="-105.2305771">
  <ele>1586.16</ele>
  <time>2026-08-28T19:07:36Z</time>
  <course>65.65</course>
  <speed>0.02</speed>
  <fix>3d</fix>
</trkpt>
<trkpt lat="40.0728482" lon="-105.230577">
  <ele>1586.07</ele>
  <time>2026-08-28T19:07:36Z</time>
  <course>327.62</course>
  <speed>0.0</speed>
  <fix>3d</fix>
</trkpt>
<trkpt lat="40.0728481" lon="-105.2305771">
  <ele>1586.16</ele>
  <time>2026-08-28T19:07:36Z</time>
  <course>65.62</course>
  <speed>0.02</speed>
  <fix>3d</fix>
</trkpt>
<trkpt lat="40.0728482" lon="-105.230577">
  <ele>1586.07</ele>
  <time>2026-08-28T19:07:36Z</time>
  <course>328.07</course>
  <speed>0.0</speed>
  <fix>3d</fix>
</trkpt>
<trkpt lat="40.0728481" lon="-105.2305771">
  <ele>1586.16</ele>
  <time>2026-08-28T19:07:36Z</time>
  <course>65.6</course>
  <speed>0.02</speed>
  <fix>3d</fix>
</trkpt>
<trkpt lat="40.0728482" lon="-105.230577">
  <ele>1586.07</ele>
  <time>2026-08-28T19:07:36Z</time>
  <course>328.18</course>
  <speed>0.0</speed>
  <fix>3d</fix>
</trkpt>
<trkpt lat="40.0728481" lon="-105.2305771">
  <ele>1586.16</ele>
  <time>2026-08-28T19:07:36Z</time>
  <course>65.58</course>
  <speed>0.02</speed>
  <fix>3d</fix>
</trkpt>
<trkpt lat="40.0728482" lon="-105.230577">
  <ele>1586.07</ele>
  <time>2026-08-28T19:07:36Z</time>
  <course>328.0</course>
  <speed>0.0</speed>
  <fix>3d</fix>
</trkpt>
<trkpt lat="40.0728481" lon="-105.2305771">
  <ele>1586.16</ele>
  <time>2026-08-28T19:07:37Z</time>
  <course>65.55</course>
  <speed>0.02</speed>
  <fix>3d</fix>
</trkpt>
<trkpt lat="40.0728482" lon="-105.230577">
  <ele>1586.07</ele>
  <time>2026-08-28T19:07:37Z</time>
  <course>327.4</course>
  <speed>0.0</speed>
  <fix>3d</fix>
</trkpt>
<trkpt lat="40.0728481" lon="-105.2305771">
  <ele>1586.16</ele>
  <time>2026-08-28T19:07:37Z</time>
  <course>65.53</course>
  <speed>0.02</speed>
  <fix>3d</fix>
</trkpt>
<trkpt lat="40.0728482" lon="-105.230577">
  <ele>1586.07</ele>
  <time>2026-08-28T19:07:37Z</time>
  <course>327.87</course>
  <speed>0.0</speed>
  <fix>3d</fix>
</trkpt>
<trkpt lat="40.0728481" lon="-105.2305771">
  <ele>1586.16</ele>
  <time>2026-08-28T19:07:37Z</time>
  <course>65.5</course>
  <speed>0.02</speed>
  <fix>3d</fix>
</trkpt>
<trkpt lat="40.0728482" lon="-105.230577">
  <ele>1586.07</ele>
  <time>2026-08-28T19:07:37Z</time>
  <course>328.03</course>
  <speed>0.0</speed>
  <fix>3d</fix>
</trkpt>
<trkpt lat="40.0728481" lon="-105.2305771">
  <ele>1586.16</ele>
  <time>2026-08-28T19:07:37Z</time>
  <course>65.48</course>
  <speed>0.02</speed>
  <fix>3d</fix>
</trkpt>
<trkpt lat="40.0728482" lon="-105.230577">
  <ele>1586.07</ele>
  <time>2026-08-28T19:07:37Z</time>
  <course>327.87</course>
  <speed>0.0</speed>
  <fix>3d</fix>
</trkpt>
<trkpt lat="40.0728481" lon="-105.2305771">
  <ele>1586.16</ele>
  <time>2026-08-28T19:07:37Z</time>
  <course>65.46</course>
  <speed>0.02</speed>
  <fix>3d</fix>
</trkpt>
<trkpt lat="40.0728482" lon="-105.230577">
  <ele>1586.07</ele>
  <time>2026-08-28T19:07:37Z</time>
  <course>327.3</course>
  <speed>0.0</speed>
  <fix>3d</fix>
</trkpt>
<trkpt lat="40.0728481" lon="-105.2305771">
  <ele>1586.16</ele>
  <time>2026-08-28T19:07:37Z</time>
  <course>65.43</course>
  <speed>0.02</speed>
  <fix>3d</fix>
</trkpt>
<trkpt lat="40.0728482" lon="-105.230577">
  <ele>1586.07</ele>
  <time>2026-08-28T19:07:37Z</time>
  <course>327.49</course>
  <speed>0.0</speed>
  <fix>3d</fix>
</trkpt>
<trkpt lat="40.0728481" lon="-105.2305771">
  <ele>1586.16</ele>
  <time>2026-08-28T19:07:37Z</time>
  <course>65.41</course>
  <speed>0.02</speed>
  <fix>3d</fix>
</trkpt>
<trkpt lat="40.0728482" lon="-105.230577">
  <ele>1586.07</ele>
  <time>2026-08-28T19:07:37Z</time>
  <course>327.86</course>
  <speed>0.0</speed>
  <fix>3d</fix>
</trkpt>
<trkpt lat="40.0728481" lon="-105.2305771">
  <ele>1586.16</ele>
  <time>2026-08-28T19:07:37Z</time>
  <course>65.39</course>
  <speed>0.02</speed>
  <fix>3d</fix>
</trkpt>
<trkpt lat="40.0728482" lon="-105.230577">
  <ele>1586.07</ele>
  <time>2026-08-28T19:07:37Z</time>
  <course>327.82</course>
  <speed>0.0</speed>
  <fix>3d</fix>
</trkpt>
<trkpt lat="40.0728481" lon="-105.2305771">
  <ele>1586.16</ele>
  <time>2026-08-28T19:07:37Z</time>
  <course>65.39</course>
  <speed>0.02</speed>
  <fix>3d</fix>
</trkpt>
<trkpt lat="40.0728481" lon="-105.2305771">
  <ele>1586.16</ele>
  <time>2026-08-28T19:07:37Z</time>
  <course>65.37</course>
  <speed>0.02</speed>
  <fix>3d</fix>
</trkpt>
<trkpt lat="40.0728482" lon="-105.230577">
  <ele>1586.07</ele>
  <time>2026-08-28T19:07:37Z</time>
  <course>323.25</course>
  <speed>0.0</speed>
  <fix>3d</fix>
</trkpt>
<trkpt lat="40.0728481" lon="-105.2305771">
  <ele>1586.16</ele>
  <time>2026-08-28T19:07:37Z</time>
  <course>65.35</course>
  <speed>0.02</speed>
  <fix>3d</fix>
</trkpt>
<trkpt lat="40.0728482" lon="-105.230577">
  <ele>1586.07</ele>
  <time>2026-08-28T19:07:37Z</time>
  <course>322.82</course>
  <speed>0.0</speed>
  <fix>3d</fix>
</trkpt>
<trkpt lat="40.0728481" lon="-105.2305771">
  <ele>1586.15</ele>
  <time>2026-08-28T19:07:37Z</time>
  <course>65.34</course>
  <speed>0.02</speed>
  <fix>3d</fix>
</trkpt>
<trkpt lat="40.0728482" lon="-105.230577">
  <ele>1586.07</ele>
  <time>2026-08-28T19:07:37Z</time>
  <course>327.32</course>
  <speed>0.0</speed>
  <fix>3d</fix>
</trkpt>
<trkpt lat="40.0728481" lon="-105.2305771">
  <ele>1586.15</ele>
  <time>2026-08-28T19:07:37Z</time>
  <course>65.33</course>
  <speed>0.02</speed>
  <fix>3d</fix>
</trkpt>
<trkpt lat="40.0728482" lon="-105.230577">
  <ele>1586.07</ele>
  <time>2026-08-28T19:07:37Z</time>
  <course>331.67</course>
  <speed>0.0</speed>
  <fix>3d</fix>
</trkpt>
<trkpt lat="40.0728481" lon="-105.2305771">
  <ele>1586.15</ele>
  <time>2026-08-28T19:07:37Z</time>
  <course>65.31</course>
  <speed>0.02</speed>
  <fix>3d</fix>
</trkpt>
<trkpt lat="40.0728482" lon="-105.230577">
  <ele>1586.07</ele>
  <time>2026-08-28T19:07:37Z</time>
  <course>329.2</course>
  <speed>0.0</speed>
  <fix>3d</fix>
</trkpt>
<trkpt lat="40.0728481" lon="-105.2305771">
  <ele>1586.15</ele>
  <time>2026-08-28T19:07:37Z</time>
  <course>65.27</course>
  <speed>0.02</speed>
  <fix>3d</fix>
</trkpt>
<trkpt lat="40.0728482" lon="-105.230577">
  <ele>1586.07</ele>
  <time>2026-08-28T19:07:37Z</time>
  <course>328.75</course>
  <speed>0.0</speed>
  <fix>3d</fix>
</trkpt>
<trkpt lat="40.0728481" lon="-105.2305771">
  <ele>1586.16</ele>
  <time>2026-08-28T19:07:37Z</time>
  <course>65.22</course>
  <speed>0.02</speed>
  <fix>3d</fix>
</trkpt>
<trkpt lat="40.0728482" lon="-105.230577">
  <ele>1586.07</ele>
  <time>2026-08-28T19:07:37Z</time>
  <course>328.65</course>
  <speed>0.0</speed>
  <fix>3d</fix>
</trkpt>
<trkpt lat="40.0728481" lon="-105.2305771">
  <ele>1586.22</ele>
  <time>2026-08-28T19:07:37Z</time>
  <course>65.14</course>
  <speed>0.02</speed>
  <fix>3d</fix>
</trkpt>
<trkpt lat="40.0728482" lon="-105.230577">
  <ele>1586.1</ele>
  <time>2026-08-28T19:07:37Z</time>
  <course>328.36</course>
  <speed>0.0</speed>
  <fix>3d</fix>
</trkpt>
<trkpt lat="40.0728481" lon="-105.2305771">
  <ele>1586.31</ele>
  <time>2026-08-28T19:07:37Z</time>
  <course>62.84</course>
  <speed>0.01414213562373095</speed>
  <fix>3d</fix>
</trkpt>
<trkpt lat="40.0728482" lon="-105.230577">
  <ele>1586.16</ele>
  <time>2026-08-28T19:07:37Z</time>
  <course>336.68</course>
  <speed>0.0</speed>
  <fix>3d</fix>
</trkpt>
<trkpt lat="40.0728481" lon="-105.2305771">
  <ele>1586.34</ele>
  <time>2026-08-28T19:07:37Z</time>
  <course>61.2</course>
  <speed>0.02</speed>
  <fix>3d</fix>
</trkpt>
<trkpt lat="40.0728482" lon="-105.2305772">
  <ele>1586.61</ele>
  <time>2026-08-28T19:07:37Z</time>
  <course>56.07</course>
  <speed>0.17804493814764857</speed>
  <fix>3d</fix>
</trkpt>
<trkpt lat="40.0728483" lon="-105.2305771">
  <ele>1586.32</ele>
  <time>2026-08-28T19:07:37Z</time>
  <course>323.21</course>
  <speed>0.07</speed>
  <fix>3d</fix>
</trkpt>
<trkpt lat="40.0728485" lon="-105.2305775">
  <ele>1586.99</ele>
  <time>2026-08-28T19:07:37Z</time>
  <course>55.1</course>
  <speed>0.2640075756488817</speed>
  <fix>3d</fix>
</trkpt>
<trkpt lat="40.0728485" lon="-105.2305773">
  <ele>1586.63</ele>
  <time>2026-08-28T19:07:37Z</time>
  <course>321.63</course>
  <speed>0.21</speed>
  <fix>3d</fix>
</trkpt>
<trkpt lat="40.0728486" lon="-105.2305776">
  <ele>1587.05</ele>
  <time>2026-08-28T19:07:37Z</time>
  <course>54.83</course>
  <speed>0.2780287754891569</speed>
  <fix>3d</fix>
</trkpt>
<trkpt lat="40.072849" lon="-105.230578">
  <ele>1587.38</ele>
  <time>2026-08-28T19:07:37Z</time>
  <course>53.38</course>
  <speed>0.34058772731852804</speed>
  <fix>3d</fix>
</trkpt>
<trkpt lat="40.0728488" lon="-105.2305777">
  <ele>1587.02</ele>
  <time>2026-08-28T19:07:37Z</time>
  <course>319.35</course>
  <speed>0.3</speed>
  <fix>3d</fix>
</trkpt>
<trkpt lat="40.0728491" lon="-105.2305781">
  <ele>1587.46</ele>
  <time>2026-08-28T19:07:37Z</time>
  <course>53.06</course>
  <speed>0.354682957019364</speed>
  <fix>3d</fix>
</trkpt>
<trkpt lat="40.0728495" lon="-105.2305785">
  <ele>1587.81</ele>
  <time>2026-08-28T19:07:37Z</time>
  <course>52.1</course>
  <speed>0.3889730067755345</speed>
  <fix>3d</fix>
</trkpt>
<trkpt lat="40.0728493" lon="-105.2305782">
  <ele>1587.41</ele>
  <time>2026-08-28T19:07:37Z</time>
  <course>316.49</course>
  <speed>0.36</speed>
  <fix>3d</fix>
</trkpt>
<trkpt lat="40.0728495" lon="-105.2305786">
  <ele>1587.82</ele>
  <time>2026-08-28T19:07:37Z</time>
  <course>52.09</course>
  <speed>0.3889730067755345</speed>
  <fix>3d</fix>
</trkpt>
<trkpt lat="40.07285" lon="-105.2305792">
  <ele>1588.26</ele>
  <time>2026-08-28T19:07:37Z</time>
  <course>51.5</course>
  <speed>0.42449970553582245</speed>
  <fix>3d</fix>
</trkpt>
<trkpt lat="40.0728498" lon="-105.2305789">
  <ele>1587.84</ele>
  <time>2026-08-28T19:07:37Z</time>
  <course>313.34</course>
  <speed>0.41</speed>
  <fix>3d</fix>
</trkpt>
<trkpt lat="40.0728501" lon="-105.2305794">
  <ele>1588.33</ele>
  <time>2026-08-28T19:07:37Z</time>
  <course>51.45</course>
  <speed>0.42449970553582245</speed>
  <fix>3d</fix>
</trkpt>
<trkpt lat="40.0728506" lon="-105.23058">
  <ele>1588.74</ele>
  <time>2026-08-28T19:07:37Z</time>
  <course>51.25</course>
  <speed>0.4468780594300866</speed>
  <fix>3d</fix>
</trkpt>
<trkpt lat="40.0728503" lon="-105.2305796">
  <ele>1588.3</ele>
  <time>2026-08-28T19:07:37Z</time>
  <course>310.28</course>
  <speed>0.44</speed>
  <fix>3d</fix>
</trkpt>
<trkpt lat="40.0728506" lon="-105.2305802">
  <ele>1588.8</ele>
  <time>2026-08-28T19:07:37Z</time>
  <course>51.24</course>
  <speed>0.45453272709454046</speed>
  <fix>3d</fix>
</trkpt>
<trkpt lat="40.0728511" lon="-105.2305809">
  <ele>1589.22</ele>
  <time>2026-08-28T19:07:37Z</time>
  <course>51.05</course>
  <speed>0.46400431032480727</speed>
  <fix>3d</fix>
</trkpt>
<trkpt lat="40.0728509" lon="-105.2305805">
  <ele>1588.78</ele>
  <time>2026-08-28T19:07:37Z</time>
  <course>307.42</course>
  <speed>0.46</speed>
  <fix>3d</fix>
</trkpt>
<trkpt lat="40.0728512" lon="-105.2305811">
  <ele>1589.3</ele>
  <time>2026-08-28T19:07:37Z</time>
  <course>51.07</course>
  <speed>0.47201694884823786</speed>
  <fix>3d</fix>
</trkpt>
<trkpt lat="40.0728516" lon="-105.2305819">
  <ele>1589.72</ele>
  <time>2026-08-28T19:07:37Z</time>
  <course>48.65</course>
  <speed>0.4909175083453431</speed>
  <fix>3d</fix>
</trkpt>
<trkpt lat="40.0728514" lon="-105.2305813">
  <ele>1589.27</ele>
  <time>2026-08-28T19:07:37Z</time>
  <course>304.83</course>
  <speed>0.48</speed>
  <fix>3d</fix>
</trkpt>
<trkpt lat="40.0728516" lon="-105.2305819">
  <ele>1589.73</ele>
  <time>2026-08-28T19:07:37Z</time>
  <course>48.62</course>
  <speed>0.4909175083453431</speed>
  <fix>3d</fix>
</trkpt>
<trkpt lat="40.0728521" lon="-105.2305829">
  <ele>1590.23</ele>
  <time>2026-08-28T19:07:37Z</time>
  <course>48.21</course>
  <speed>0.5110772935672255</speed>
  <fix>3d</fix>
</trkpt>
<trkpt lat="40.0728519" lon="-105.2305824">
  <ele>1589.76</ele>
  <time>2026-08-28T19:07:37Z</time>
  <course>302.59</course>
  <speed>0.5</speed>
  <fix>3d</fix>
</trkpt>
<trkpt lat="40.0728521" lon="-105.230583">
  <ele>1590.3</ele>
  <time>2026-08-28T19:07:37Z</time>
  <course>48.38</course>
  <speed>0.5110772935672255</speed>
  <fix>3d</fix>
</trkpt>
<trkpt lat="40.0728525" lon="-105.230584">
  <ele>1590.74</ele>
  <time>2026-08-28T19:07:37Z</time>
  <course>49.64</course>
  <speed>0.5323532661682466</speed>
  <fix>3d</fix>
</trkpt>
<trkpt lat="40.0728524" lon="-105.2305834">
  <ele>1590.26</ele>
  <time>2026-08-28T19:07:37Z</time>
  <course>300.72</course>
  <speed>0.51</speed>
  <fix>3d</fix>
</trkpt>
<trkpt lat="40.0728525" lon="-105.230584">
  <ele>1590.74</ele>
  <time>2026-08-28T19:07:37Z</time>
  <course>49.65</course>
  <speed>0.5323532661682466</speed>
  <fix>3d</fix>
</trkpt>
<trkpt lat="40.072853" lon="-105.2305851">
  <ele>1591.24</ele>
  <time>2026-08-28T19:07:37Z</time>
  <course>51.09</course>
  <speed>0.5456189146281496</speed>
  <fix>3d</fix>
</trkpt>
<trkpt lat="40.0728528" lon="-105.2305844">
  <ele>1590.76</ele>
  <time>2026-08-28T19:07:37Z</time>
  <course>299.18</course>
  <speed>0.53</speed>
  <fix>3d</fix>
</trkpt>
<trkpt lat="40.072853" lon="-105.2305852">
  <ele>1591.3</ele>
  <time>2026-08-28T19:07:37Z</time>
  <course>51.29</course>
  <speed>0.5456189146281496</speed>
  <fix>3d</fix>
</trkpt>
<trkpt lat="40.0728534" lon="-105.2305863">
  <ele>1591.71</ele>
  <time>2026-08-28T19:07:37Z</time>
  <course>52.77</course>
  <speed>0.5546169849544819</speed>
  <fix>3d</fix>
</trkpt>
<trkpt lat="40.0728533" lon="-105.2305855">
  <ele>1591.25</ele>
  <time>2026-08-28T19:07:37Z</time>
  <course>298.02</course>
  <speed>0.54</speed>
  <fix>3d</fix>
</trkpt>
<trkpt lat="40.0728535" lon="-105.2305864">
  <ele>1591.77</ele>
  <time>2026-08-28T19:07:37Z</time>
  <course>53.02</course>
  <speed>0.563648826841678</speed>
  <fix>3d</fix>
</trkpt>
<trkpt lat="40.0728539" lon="-105.2305874">
  <ele>1592.14</ele>
  <time>2026-08-28T19:07:37Z</time>
  <course>54.74</course>
  <speed>0.5594640292279746</speed>
  <fix>3d</fix>
</trkpt>
<trkpt lat="40.0728537" lon="-105.2305867">
  <ele>1591.71</ele>
  <time>2026-08-28T19:07:37Z</time>
  <course>297.2</course>
  <speed>0.55</speed>
  <fix>3d</fix>
</trkpt>
<trkpt lat="40.0728539" lon="-105.2305874">
  <ele>1592.15</ele>
  <time>2026-08-28T19:07:37Z</time>
  <course>54.76</course>
  <speed>0.5594640292279746</speed>
  <fix>3d</fix>
</trkpt>
<trkpt lat="40.0728543" lon="-105.2305886">
  <ele>1592.51</ele>
  <time>2026-08-28T19:07:37Z</time>
  <course>56.81</course>
  <speed>0.5594640292279746</speed>
  <fix>3d</fix>
</trkpt>
<trkpt lat="40.0728542" lon="-105.2305878">
  <ele>1592.12</ele>
  <time>2026-08-28T19:07:37Z</time>
  <course>296.58</course>
  <speed>0.55</speed>
  <fix>3d</fix>
</trkpt>
<trkpt lat="40.0728544" lon="-105.2305888">
  <ele>1592.55</ele>
  <time>2026-08-28T19:07:37Z</time>
  <course>57.07</course>
  <speed>0.5594640292279746</speed>
  <fix>3d</fix>
</trkpt>
<trkpt lat="40.0728548" lon="-105.2305898">
  <ele>1592.8</ele>
  <time>2026-08-28T19:07:37Z</time>
  <course>58.89</course>
  <speed>0.5554277630799526</speed>
  <fix>3d</fix>
</trkpt>
<trkpt lat="40.0728546" lon="-105.230589">
  <ele>1592.48</ele>
  <time>2026-08-28T19:07:37Z</time>
  <course>296.06</course>
  <speed>0.55</speed>
  <fix>3d</fix>
</trkpt>
<trkpt lat="40.0728548" lon="-105.2305898">
  <ele>1592.81</ele>
  <time>2026-08-28T19:07:37Z</time>
  <course>58.93</course>
  <speed>0.5554277630799526</speed>
  <fix>3d</fix>
</trkpt>
<trkpt lat="40.0728552" lon="-105.2305909">
  <ele>1593.01</ele>
  <time>2026-08-28T19:07:37Z</time>
  <course>60.77</course>
  <speed>0.54230987451825</speed>
  <fix>3d</fix>
</trkpt>
<trkpt lat="40.0728551" lon="-105.2305902">
  <ele>1592.75</ele>
  <time>2026-08-28T19:07:37Z</time>
  <course>295.53</course>
  <speed>0.55</speed>
  <fix>3d</fix>
</trkpt>
<trkpt lat="40.0728553" lon="-105.2305911">
  <ele>1593.04</ele>
  <time>2026-08-28T19:07:37Z</time>
  <course>61.01</course>
  <speed>0.54230987451825</speed>
  <fix>3d</fix>
</trkpt>
<trkpt lat="40.0728556" lon="-105.2305921">
  <ele>1593.15</ele>
  <time>2026-08-28T19:07:37Z</time>
  <course>62.07</course>
  <speed>0.52</speed>
  <fix>3d</fix>
</trkpt>
<trkpt lat="40.0728555" lon="-105.2305913">
  <ele>1592.93</ele>
  <time>2026-08-28T19:07:37Z</time>
  <course>294.85</course>
  <speed>0.53</speed>
  <fix>3d</fix>
</trkpt>
<trkpt lat="40.0728557" lon="-105.2305923">
  <ele>1593.16</ele>
  <time>2026-08-28T19:07:37Z</time>
  <course>62.26</course>
  <speed>0.5162363799656123</speed>
  <fix>3d</fix>
</trkpt>
<trkpt lat="40.072856" lon="-105.2305932">
  <ele>1593.22</ele>
  <time>2026-08-28T19:07:37Z</time>
  <course>62.85</course>
  <speed>0.5032891812864648</speed>
  <fix>3d</fix>
</trkpt>
<trkpt lat="40.0728558" lon="-105.2305925">
  <ele>1593.05</ele>
  <time>2026-08-28T19:07:37Z</time>
  <course>293.95</course>
  <speed>0.51</speed>
  <fix>3d</fix>
</trkpt>
<trkpt lat="40.072856" lon="-105.2305932">
  <ele>1593.22</ele>
  <time>2026-08-28T19:07:37Z</time>
  <course>62.87</course>
  <speed>0.5032891812864648</speed>
  <fix>3d</fix>
</trkpt>
<trkpt lat="40.0728563" lon="-105.2305942">
  <ele>1593.25</ele>
  <time>2026-08-28T19:07:37Z</time>
  <course>63.25</course>
  <speed>0.4775981574503821</speed>
  <fix>3d</fix>
</trkpt>
<trkpt lat="40.0728563" lon="-105.2305935">
  <ele>1593.11</ele>
  <time>2026-08-28T19:07:37Z</time>
  <course>292.87</course>
  <speed>0.49</speed>
  <fix>3d</fix>
</trkpt>
<trkpt lat="40.0728564" lon="-105.2305944">
  <ele>1593.25</ele>
  <time>2026-08-28T19:07:37Z</time>
  <course>63.3</course>
  <speed>0.4775981574503821</speed>
  <fix>3d</fix>
</trkpt>
<trkpt lat="40.0728566" lon="-105.2305952">
  <ele>1593.26</ele>
  <time>2026-08-28T19:07:37Z</time>
  <course>63.44</course>
  <speed>0.4617358552246078</speed>
  <fix>3d</fix>
</trkpt>
<trkpt lat="40.0728566" lon="-105.2305946">
  <ele>1593.13</ele>
  <time>2026-08-28T19:07:37Z</time>
  <course>291.62</course>
  <speed>0.47</speed>
  <fix>3d</fix>
</trkpt>
<trkpt lat="40.0728567" lon="-105.2305954">
  <ele>1593.26</ele>
  <time>2026-08-28T19:07:37Z</time>
  <course>63.46</course>
  <speed>0.4522167621838005</speed>
  <fix>3d</fix>
</trkpt>
<trkpt lat="40.0728569" lon="-105.2305962">
  <ele>1593.25</ele>
  <time>2026-08-28T19:07:37Z</time>
  <course>63.53</course>
  <speed>0.4368065933568311</speed>
  <fix>3d</fix>
</trkpt>
<trkpt lat="40.0728569" lon="-105.2305957">
  <ele>1593.13</ele>
  <time>2026-08-28T19:07:37Z</time>
  <course>290.24</course>
  <speed>0.45</speed>
  <fix>3d</fix>
</trkpt>
<trkpt lat="40.0728569" lon="-105.2305962">
  <ele>1593.25</ele>
  <time>2026-08-28T19:07:37Z</time>
  <course>63.53</course>
  <speed>0.4368065933568311</speed>
  <fix>3d</fix>
</trkpt>
<trkpt lat="40.0728572" lon="-105.2305972">
  <ele>1593.23</ele>
  <time>2026-08-28T19:07:37Z</time>
  <course>63.59</course>
  <speed>0.41484937025383084</speed>
  <fix>3d</fix>
</trkpt>
<trkpt lat="40.0728571" lon="-105.2305966">
  <ele>1593.12</ele>
  <time>2026-08-28T19:07:37Z</time>
  <course>288.73</course>
  <speed>0.43</speed>
  <fix>3d</fix>
</trkpt>
<trkpt lat="40.0728572" lon="-105.2305973">
  <ele>1593.23</ele>
  <time>2026-08-28T19:07:37Z</time>
  <course>63.6</course>
  <speed>0.41231056256176607</speed>
  <fix>3d</fix>
</trkpt>
<trkpt lat="40.0728574" lon="-105.2305981">
  <ele>1593.21</ele>
  <time>2026-08-28T19:07:37Z</time>
  <course>63.62</course>
  <speed>0.40024992192379005</speed>
  <fix>3d</fix>
</trkpt>
<trkpt lat="40.0728573" lon="-105.2305976">
  <ele>1593.11</ele>
  <time>2026-08-28T19:07:37Z</time>
  <course>287.13</course>
  <speed>0.41</speed>
  <fix>3d</fix>
</trkpt>
<trkpt lat="40.0728574" lon="-105.2305982">
  <ele>1593.21</ele>
  <time>2026-08-28T19:07:37Z</time>
  <course>63.62</course>
  <speed>0.40024992192379005</speed>
  <fix>3d</fix>
</trkpt>
<trkpt lat="40.0728576" lon="-105.230599">
  <ele>1593.2</ele>
  <time>2026-08-28T19:07:37Z</time>
  <course>63.68</course>
  <speed>0.38639358172723315</speed>
  <fix>3d</fix>
</trkpt>
<trkpt lat="40.0728576" lon="-105.2305984">
  <ele>1593.09</ele>
  <time>2026-08-28T19:07:37Z</time>
  <course>285.49</course>
  <speed>0.39</speed>
  <fix>3d</fix>
</trkpt>
<trkpt lat="40.0728576" lon="-105.2305991">
  <ele>1593.2</ele>
  <time>2026-08-28T19:07:37Z</time>
  <course>63.68</course>
  <speed>0.38639358172723315</speed>
  <fix>3d</fix>
</trkpt>
<trkpt lat="40.0728577" lon="-105.2305999">
  <ele>1593.18</ele>
  <time>2026-08-28T19:07:37Z</time>
  <course>63.73</course>
  <speed>0.3649657518178932</speed>
  <fix>3d</fix>
</trkpt>
<trkpt lat="40.0728577" lon="-105.2305993">
  <ele>1593.07</ele>
  <time>2026-08-28T19:07:37Z</time>
  <course>283.85</course>
  <speed>0.37</speed>
  <fix>3d</fix>
</trkpt>
<trkpt lat="40.0728577" lon="-105.2306">
  <ele>1593.18</ele>
  <time>2026-08-28T19:07:37Z</time>
  <course>63.74</course>
  <speed>0.3649657518178932</speed>
  <fix>3d</fix>
</trkpt>
<trkpt lat="40.0728578" lon="-105.2306007">
  <ele>1593.16</ele>
  <time>2026-08-28T19:07:37Z</time>
  <course>63.77</course>
  <speed>0.3535533905932738</speed>
  <fix>3d</fix>
</trkpt>
<trkpt lat="40.0728579" lon="-105.2306002">
  <ele>1593.06</ele>
  <time>2026-08-28T19:07:37Z</time>
  <course>282.21</course>
  <speed>0.36</speed>
  <fix>3d</fix>
</trkpt>
<trkpt lat="40.0728578" lon="-105.2306007">
  <ele>1593.16</ele>
  <time>2026-08-28T19:07:37Z</time>
  <course>63.77</course>
  <speed>0.3535533905932738</speed>
  <fix>3d</fix>
</trkpt>
<trkpt lat="40.072858" lon="-105.2306015">
  <ele>1593.15</ele>
  <time>2026-08-28T19:07:37Z</time>
  <course>63.85</course>
  <speed>0.3423448553724738</speed>
  <fix>3d</fix>
</trkpt>
<trkpt lat="40.072858" lon="-105.230601">
  <ele>1593.05</ele>
  <time>2026-08-28T19:07:37Z</time>
  <course>280.65</course>
  <speed>0.35</speed>
  <fix>3d</fix>
</trkpt>
<trkpt lat="40.072858" lon="-105.2306017">
  <ele>1593.15</ele>
  <time>2026-08-28T19:07:37Z</time>
  <course>63.87</course>
  <speed>0.34132096331752027</speed>
  <fix>3d</fix>
</trkpt>
<trkpt lat="40.0728581" lon="-105.2306023">
  <ele>1593.15</ele>
  <time>2026-08-28T19:07:37Z</time>
  <course>63.92</course>
  <speed>0.3306055050963308</speed>
  <fix>3d</fix>
</trkpt>
<trkpt lat="40.0728581" lon="-105.2306018">
  <ele>1593.05</ele>
  <time>2026-08-28T19:07:37Z</time>
  <course>279.17</course>
  <speed>0.33</speed>
  <fix>3d</fix>
</trkpt>
<trkpt lat="40.0728581" lon="-105.2306023">
  <ele>1593.15</ele>
  <time>2026-08-28T19:07:37Z</time>
  <course>63.92</course>
  <speed>0.3306055050963308</speed>
  <fix>3d</fix>
</trkpt>
<trkpt lat="40.0728581" lon="-105.230603">
  <ele>1593.15</ele>
  <time>2026-08-28T19:07:37Z</time>
  <course>63.99</course>
  <speed>0.32015621187164245</speed>
  <fix>3d</fix>
</trkpt>
<trkpt lat="40.0728582" lon="-105.2306026">
  <ele>1593.05</ele>
  <time>2026-08-28T19:07:37Z</time>
  <course>277.6</course>
  <speed>0.32</speed>
  <fix>3d</fix>
</trkpt>
<trkpt lat="40.0728581" lon="-105.2306031">
  <ele>1593.15</ele>
  <time>2026-08-28T19:07:37Z</time>
  <course>64.0</course>
  <speed>0.3101612483854165</speed>
  <fix>3d</fix>
</trkpt>
<trkpt lat="40.0728582" lon="-105.2306037">
  <ele>1593.15</ele>
  <time>2026-08-28T19:07:37Z</time>
  <course>64.08</course>
  <speed>0.28</speed>
  <fix>3d</fix>
</trkpt>
<trkpt lat="40.0728583" lon="-105.2306033">
  <ele>1593.05</ele>
  <time>2026-08-28T19:07:37Z</time>
  <course>275.27</course>
  <speed>0.3</speed>
  <fix>3d</fix>
</trkpt>
<trkpt lat="40.0728582" lon="-105.2306038">
  <ele>1593.15</ele>
  <time>2026-08-28T19:07:37Z</time>
  <course>64.09</course>
  <speed>0.28</speed>
  <fix>3d</fix>
</trkpt>
<trkpt lat="40.0728582" lon="-105.2306043">
  <ele>1593.15</ele>
  <time>2026-08-28T19:07:37Z</time>
  <course>64.18</course>
  <speed>0.23194827009486402</speed>
  <fix>3d</fix>
</trkpt>
<trkpt lat="40.0728583" lon="-105.230604">
  <ele>1593.05</ele>
  <time>2026-08-28T19:07:37Z</time>
  <course>271.14</course>
  <speed>0.26</speed>
  <fix>3d</fix>
</trkpt>
<trkpt lat="40.0728582" lon="-105.2306044">
  <ele>1593.15</ele>
  <time>2026-08-28T19:07:37Z</time>
  <course>64.19</course>
  <speed>0.2220360331117452</speed>
  <fix>3d</fix>
</trkpt>
<trkpt lat="40.0728582" lon="-105.2306048">
  <ele>1593.15</ele>
  <time>2026-08-28T19:07:37Z</time>
  <course>64.23</course>
  <speed>0.15811388300841897</speed>
  <fix>3d</fix>
</trkpt>
<trkpt lat="40.0728583" lon="-105.2306045">
  <ele>1593.05</ele>
  <time>2026-08-28T19:07:37Z</time>
  <course>264.42</course>
  <speed>0.2</speed>
  <fix>3d</fix>
</trkpt>
<trkpt lat="40.0728582" lon="-105.2306048">
  <ele>1593.15</ele>
  <time>2026-08-28T19:07:37Z</time>
  <course>64.23</course>
  <speed>0.1392838827718412</speed>
  <fix>3d</fix>
</trkpt>
<trkpt lat="40.0728581" lon="-105.230605">
  <ele>1593.15</ele>
  <time>2026-08-28T19:07:37Z</time>
  <course>64.29</course>
  <speed>0.0848528137423857</speed>
  <fix>3d</fix>
</trkpt>
<trkpt lat="40.0728583" lon="-105.2306049">
  <ele>1593.05</ele>
  <time>2026-08-28T19:07:37Z</time>
  <course>253.41</course>
  <speed>0.12</speed>
  <fix>3d</fix>
</trkpt>
<trkpt lat="40.0728581" lon="-105.230605">
  <ele>1593.15</ele>
  <time>2026-08-28T19:07:37Z</time>
  <course>64.29</course>
  <speed>0.0848528137423857</speed>
  <fix>3d</fix>
</trkpt>
<trkpt lat="40.0728581" lon="-105.2306051">
  <ele>1593.15</ele>
  <time>2026-08-28T19:07:37Z</time>
  <course>64.31</course>
  <speed>0.04</speed>
  <fix>3d</fix>
</trkpt>
<trkpt lat="40.0728583" lon="-105.2306051">
  <ele>1593.05</ele>
  <time>2026-08-28T19:07:37Z</time>
  <course>227.77</course>
  <speed>0.05</speed>
  <fix>3d</fix>
</trkpt>
<trkpt lat="40.0728581" lon="-105.2306051">
  <ele>1593.15</ele>
  <time>2026-08-28T19:07:37Z</time>
  <course>64.32</course>
  <speed>0.0412310562561766</speed>
  <fix>3d</fix>
</trkpt>
<trkpt lat="40.0728581" lon="-105.230605">
  <ele>1593.15</ele>
  <time>2026-08-28T19:07:37Z</time>
  <course>64.4</course>
  <speed>0.053851648071345036</speed>
  <fix>3d</fix>
</trkpt>
<trkpt lat="40.0728583" lon="-105.2306051">
  <ele>1593.05</ele>
  <time>2026-08-28T19:07:37Z</time>
  <course>125.99</course>
  <speed>0.03</speed>
  <fix>3d</fix>
</trkpt>
<trkpt lat="40.0728581" lon="-105.230605">
  <ele>1593.15</ele>
  <time>2026-08-28T19:07:37Z</time>
  <course>64.41</course>
  <speed>0.05099019513592785</speed>
  <fix>3d</fix>
</trkpt>
<trkpt lat="40.0728581" lon="-105.2306049">
  <ele>1593.15</ele>
  <time>2026-08-28T19:07:37Z</time>
  <course>64.45</course>
  <speed>0.06</speed>
  <fix>3d</fix>
</trkpt>
<trkpt lat="40.0728583" lon="-105.230605">
  <ele>1593.05</ele>
  <time>2026-08-28T19:07:37Z</time>
  <course>82.01</course>
  <speed>0.06</speed>
  <fix>3d</fix>
</trkpt>
<trkpt lat="40.0728581" lon="-105.2306049">
  <ele>1593.16</ele>
  <time>2026-08-28T19:07:37Z</time>
  <course>64.46</course>
  <speed>0.06082762530298219</speed>
  <fix>3d</fix>
</trkpt>
<trkpt lat="40.0728581" lon="-105.2306048">
  <ele>1593.15</ele>
  <time>2026-08-28T19:07:37Z</time>
  <course>64.57</course>
  <speed>0.05830951894845301</speed>
  <fix>3d</fix>
</trkpt>
<trkpt lat="40.0728583" lon="-105.2306049">
  <ele>1593.05</ele>
  <time>2026-08-28T19:07:37Z</time>
  <course>63.16</course>
  <speed>0.07</speed>
  <fix>3d</fix>
</trkpt>
<trkpt lat="40.0728581" lon="-105.2306048">
  <ele>1593.15</ele>
  <time>2026-08-28T19:07:37Z</time>
  <course>64.58</course>
  <speed>0.05830951894845301</speed>
  <fix>3d</fix>
</trkpt>
<trkpt lat="40.0728582" lon="-105.2306047">
  <ele>1593.15</ele>
  <time>2026-08-28T19:07:37Z</time>
  <course>64.66</course>
  <speed>0.044721359549995794</speed>
  <fix>3d</fix>
</trkpt>
<trkpt lat="40.0728583" lon="-105.2306048">
  <ele>1593.06</ele>
  <time>2026-08-28T19:07:37Z</time>
  <course>45.78</course>
  <speed>0.07</speed>
  <fix>3d</fix>
</trkpt>
<trkpt lat="40.0728582" lon="-105.2306047">
  <ele>1593.15</ele>
  <time>2026-08-28T19:07:37Z</time>
  <course>64.66</course>
  <speed>0.044721359549995794</speed>
  <fix>3d</fix>
</trkpt>
<trkpt lat="40.0728583" lon="-105.2306047">
  <ele>1593.15</ele>
  <time>2026-08-28T19:07:37Z</time>
  <course>64.73</course>
  <speed>0.04</speed>
  <fix>3d</fix>
</trkpt>
<trkpt lat="40.0728583" lon="-105.2306047">
  <ele>1593.06</ele>
  <time>2026-08-28T19:07:37Z</time>
  <course>25.99</course>
  <speed>0.06</speed>
  <fix>3d</fix>
</trkpt>
<trkpt lat="40.0728584" lon="-105.2306047">
  <ele>1593.15</ele>
  <time>2026-08-28T19:07:37Z</time>
  <course>64.83</course>
  <speed>0.0282842712474619</speed>
  <fix>3d</fix>
</trkpt>
<trkpt lat="40.0728584" lon="-105.2306047">
  <ele>1593.06</ele>
  <time>2026-08-28T19:07:37Z</time>
  <course>1.7</course>
  <speed>0.05</speed>
  <fix>3d</fix>
</trkpt>
<trkpt lat="40.0728585" lon="-105.2306047">
  <ele>1593.14</ele>
  <time>2026-08-28T19:07:37Z</time>
  <course>65.17</course>
  <speed>0.03</speed>
  <fix>3d</fix>
</trkpt>
<trkpt lat="40.0728585" lon="-105.2306047">
  <ele>1593.05</ele>
  <time>2026-08-28T19:07:37Z</time>
  <course>332.3</course>
  <speed>0.04</speed>
  <fix>3d</fix>
</trkpt>
<trkpt lat="40.0728585" lon="-105.2306047">
  <ele>1593.1</ele>
  <time>2026-08-28T19:07:37Z</time>
  <course>65.6</course>
  <speed>0.0316227766016838</speed>
  <fix>3d</fix>
</trkpt>
<trkpt lat="40.0728585" lon="-105.2306047">
  <ele>1593.03</ele>
  <time>2026-08-28T19:07:37Z</time>
  <course>301.1</course>
  <speed>0.03</speed>
  <fix>3d</fix>
</trkpt>
<trkpt lat="40.0728585" lon="-105.2306048">
  <ele>1593.03</ele>
  <time>2026-08-28T19:07:37Z</time>
  <course>65.79</course>
  <speed>0.04242640687119285</speed>
  <fix>3d</fix>
</trkpt>
<trkpt lat="40.0728585" lon="-105.2306048">
  <ele>1592.99</ele>
  <time>2026-08-28T19:07:37Z</time>
  <course>266.44</course>
  <speed>0.02</speed>
  <fix>3d</fix>
</trkpt>
<trkpt lat="40.0728584" lon="-105.2306049">
  <ele>1592.93</ele>
  <time>2026-08-28T19:07:37Z</time>
  <course>65.85</course>
  <speed>0.044721359549995794</speed>
  <fix>3d</fix>
</trkpt>
<trkpt lat="40.0728585" lon="-105.2306048">
  <ele>1592.91</ele>
  <time>2026-08-28T19:07:37Z</time>
  <course>232.66</course>
  <speed>0.02</speed>
  <fix>3d</fix>
</trkpt>
<trkpt lat="40.0728584" lon="-105.2306049">
  <ele>1592.92</ele>
  <time>2026-08-28T19:07:37Z</time>
  <course>65.85</course>
  <speed>0.044721359549995794</speed>
  <fix>3d</fix>
</trkpt>
<trkpt lat="40.0728584" lon="-105.2306049">
  <ele>1592.83</ele>
  <time>2026-08-28T19:07:37Z</time>
  <course>65.86</course>
  <speed>0.0412310562561766</speed>
  <fix>3d</fix>
</trkpt>
<trkpt lat="40.0728585" lon="-105.2306048">
  <ele>1592.81</ele>
  <time>2026-08-28T19:07:37Z</time>
  <course>210.16</course>
  <speed>0.03</speed>
  <fix>3d</fix>
</trkpt>
<trkpt lat="40.0728584" lon="-105.2306049">
  <ele>1592.72</ele>
  <time>2026-08-28T19:07:37Z</time>
  <course>65.87</course>
  <speed>0.0412310562561766</speed>
  <fix>3d</fix>
</trkpt>
<trkpt lat="40.0728585" lon="-105.2306048">
  <ele>1592.7</ele>
  <time>2026-08-28T19:07:37Z</time>
  <course>197.82</course>
  <speed>0.03</speed>
  <fix>3d</fix>
</trkpt>
<trkpt lat="40.0728583" lon="-105.2306049">
  <ele>1592.6</ele>
  <time>2026-08-28T19:07:37Z</time>
  <course>65.86</course>
  <speed>0.04</speed>
  <fix>3d</fix>
</trkpt>
<trkpt lat="40.0728585" lon="-105.2306048">
  <ele>1592.59</ele>
  <time>2026-08-28T19:07:37Z</time>
  <course>190.79</course>
  <speed>0.02</speed>
  <fix>3d</fix>
</trkpt>
<trkpt lat="40.0728583" lon="-105.2306049">
  <ele>1592.49</ele>
  <time>2026-08-28T19:07:37Z</time>
  <course>65.88</course>
  <speed>0.03</speed>
  <fix>3d</fix>
</trkpt>
<trkpt lat="40.0728584" lon="-105.2306048">
  <ele>1592.48</ele>
  <time>2026-08-28T19:07:37Z</time>
  <course>186.53</course>
  <speed>0.02</speed>
  <fix>3d</fix>
</trkpt>
<trkpt lat="40.0728583" lon="-105.2306049">
  <ele>1592.38</ele>
  <time>2026-08-28T19:07:37Z</time>
  <course>65.9</course>
  <speed>0.03</speed>
  <fix>3d</fix>
</trkpt>
<trkpt lat="40.0728584" lon="-105.2306048">
  <ele>1592.37</ele>
  <time>2026-08-28T19:07:37Z</time>
  <course>183.1</course>
  <speed>0.02</speed>
  <fix>3d</fix>
</trkpt>
<trkpt lat="40.0728582" lon="-105.2306049">
  <ele>1592.27</ele>
  <time>2026-08-28T19:07:37Z</time>
  <course>65.93</course>
  <speed>0.02</speed>
  <fix>3d</fix>
</trkpt>
<trkpt lat="40.0728584" lon="-105.2306048">
  <ele>1592.26</ele>
  <time>2026-08-28T19:07:37Z</time>
  <course>178.32</course>
  <speed>0.01</speed>
  <fix>3d</fix>
</trkpt>
<trkpt lat="40.0728582" lon="-105.2306049">
  <ele>1592.16</ele>
  <time>2026-08-28T19:07:37Z</time>
  <course>65.96</course>
  <speed>0.01</speed>
  <fix>3d</fix>
</trkpt>
<trkpt lat="40.0728584" lon="-105.2306048">
  <ele>1592.15</ele>
  <time>2026-08-28T19:07:37Z</time>
  <course>170.38</course>
  <speed>0.0</speed>
  <fix>3d</fix>
</trkpt>
<trkpt lat="40.0728582" lon="-105.2306049">
  <ele>1592.06</ele>
  <time>2026-08-28T19:07:37Z</time>
  <course>65.97</course>
  <speed>0.01</speed>
  <fix>3d</fix>
</trkpt>
<trkpt lat="40.0728584" lon="-105.2306048">
  <ele>1592.05</ele>
  <time>2026-08-28T19:07:37Z</time>
  <course>138.56</course>
  <speed>0.0</speed>
  <fix>3d</fix>
</trkpt>
<trkpt lat="40.0728583" lon="-105.2306049">
  <ele>1591.95</ele>
  <time>2026-08-28T19:07:37Z</time>
  <course>65.96</course>
  <speed>0.0</speed>
  <fix>3d</fix>
</trkpt>
<trkpt lat="40.0728584" lon="-105.2306048">
  <ele>1591.95</ele>
  <time>2026-08-28T19:07:37Z</time>
  <course>40.56</course>
  <speed>0.0</speed>
  <fix>3d</fix>
</trkpt>
<trkpt lat="40.0728583" lon="-105.2306049">
  <ele>1591.85</ele>
  <time>2026-08-28T19:07:37Z</time>
  <course>66.05</course>
  <speed>0.0</speed>
  <fix>3d</fix>
</trkpt>
<trkpt lat="40.0728584" lon="-105.2306048">
  <ele>1591.85</ele>
  <time>2026-08-28T19:07:37Z</time>
  <course>19.28</course>
  <speed>0.0</speed>
  <fix>3d</fix>
</trkpt>
<trkpt lat="40.0728583" lon="-105.2306049">
  <ele>1591.75</ele>
  <time>2026-08-28T19:07:37Z</time>
  <course>66.04</course>
  <speed>0.0</speed>
  <fix>3d</fix>
</trkpt>
<trkpt lat="40.0728584" lon="-105.2306048">
  <ele>1591.75</ele>
  <time>2026-08-28T19:07:37Z</time>
  <course>14.21</course>
  <speed>0.01</speed>
  <fix>3d</fix>
</trkpt>
<trkpt lat="40.0728583" lon="-105.2306049">
  <ele>1591.66</ele>
  <time>2026-08-28T19:07:37Z</time>
  <course>66.12</course>
  <speed>0.0</speed>
  <fix>3d</fix>
</trkpt>
<trkpt lat="40.0728584" lon="-105.2306048">
  <ele>1591.65</ele>
  <time>2026-08-28T19:07:37Z</time>
  <course>12.67</course>
  <speed>0.01</speed>
  <fix>3d</fix>
</trkpt>
<trkpt lat="40.0728583" lon="-105.2306048">
  <ele>1591.56</ele>
  <time>2026-08-28T19:07:37Z</time>
  <course>66.14</course>
  <speed>0.0</speed>
  <fix>3d</fix>
</trkpt>
<trkpt lat="40.0728584" lon="-105.2306048">
  <ele>1591.56</ele>
  <time>2026-08-28T19:07:37Z</time>
  <course>11.78</course>
  <speed>0.02</speed>
  <fix>3d</fix>
</trkpt>
<trkpt lat="40.0728583" lon="-105.2306048">
  <ele>1591.46</ele>
  <time>2026-08-28T19:07:37Z</time>
  <course>66.2</course>
  <speed>0.0</speed>
  <fix>3d</fix>
</trkpt>
<trkpt lat="40.0728584" lon="-105.2306048">
  <ele>1591.46</ele>
  <time>2026-08-28T19:07:37Z</time>
  <course>11.61</course>
  <speed>0.02</speed>
  <fix>3d</fix>
</trkpt>
<trkpt lat="40.0728584" lon="-105.2306048">
  <ele>1591.37</ele>
  <time>2026-08-28T19:07:37Z</time>
  <course>66.23</course>
  <speed>0.0</speed>
  <fix>3d</fix>
</trkpt>
<trkpt lat="40.0728584" lon="-105.2306048">
  <ele>1591.36</ele>
  <time>2026-08-28T19:07:37Z</time>
  <course>12.08</course>
  <speed>0.02</speed>
  <fix>3d</fix>
</trkpt>
<trkpt lat="40.0728584" lon="-105.2306048">
  <ele>1591.27</ele>
  <time>2026-08-28T19:07:37Z</time>
  <course>66.26</course>
  <speed>0.0</speed>
  <fix>3d</fix>
</trkpt>
<trkpt lat="40.0728584" lon="-105.2306048">
  <ele>1591.26</ele>
  <time>2026-08-28T19:07:37Z</time>
  <course>12.9</course>
  <speed>0.02</speed>
  <fix>3d</fix>
</trkpt>
<trkpt lat="40.0728584" lon="-105.2306048">
  <ele>1591.17</ele>
  <time>2026-08-28T19:07:37Z</time>
  <course>66.3</course>
  <speed>0.0</speed>
  <fix>3d</fix>
</trkpt>
<trkpt lat="40.0728585" lon="-105.2306048">
  <ele>1591.15</ele>
  <time>2026-08-28T19:07:37Z</time>
  <course>13.6</course>
  <speed>0.02</speed>
  <fix>3d</fix>
</trkpt>
<trkpt lat="40.0728585" lon="-105.2306048">
  <ele>1591.07</ele>
  <time>2026-08-28T19:07:37Z</time>
  <course>66.31</course>
  <speed>0.0</speed>
  <fix>3d</fix>
</trkpt>
<trkpt lat="40.0728585" lon="-105.2306048">
  <ele>1591.06</ele>
  <time>2026-08-28T19:07:37Z</time>
  <course>14.89</course>
  <speed>0.02</speed>
  <fix>3d</fix>
</trkpt>
<trkpt lat="40.0728585" lon="-105.2306048">
  <ele>1590.97</ele>
  <time>2026-08-28T19:07:37Z</time>
  <course>66.36</course>
  <speed>0.0</speed>
  <fix>3d</fix>
</trkpt>
<trkpt lat="40.0728586" lon="-105.2306048">
  <ele>1590.96</ele>
  <time>2026-08-28T19:07:37Z</time>
  <course>16.12</course>
  <speed>0.02</speed>
  <fix>3d</fix>
</trkpt>
<trkpt lat="40.0728585" lon="-105.2306048">
  <ele>1590.86</ele>
  <time>2026-08-28T19:07:37Z</time>
  <course>66.37</course>
  <speed>0.0</speed>
  <fix>3d</fix>
</trkpt>
<trkpt lat="40.0728587" lon="-105.2306048">
  <ele>1590.86</ele>
  <time>2026-08-28T19:07:37Z</time>
  <course>17.2</course>
  <speed>0.01</speed>
  <fix>3d</fix>
</trkpt>
<trkpt lat="40.0728586" lon="-105.2306048">
  <ele>1590.76</ele>
  <time>2026-08-28T19:07:37Z</time>
  <course>66.39</course>
  <speed>0.0</speed>
  <fix>3d</fix>
</trkpt>
<trkpt lat="40.0728587" lon="-105.2306048">
  <ele>1590.76</ele>
  <time>2026-08-28T19:07:37Z</time>
  <course>17.86</course>
  <speed>0.01</speed>
  <fix>3d</fix>
</trkpt>
<trkpt lat="40.0728586" lon="-105.2306047">
  <ele>1590.67</ele>
  <time>2026-08-28T19:07:37Z</time>
  <course>66.44</course>
  <speed>0.0</speed>
  <fix>3d</fix>
</trkpt>
<trkpt lat="40.0728587" lon="-105.2306048">
  <ele>1590.65</ele>
  <time>2026-08-28T19:07:37Z</time>
  <course>17.69</course>
  <speed>0.01</speed>
  <fix>3d</fix>
</trkpt>
<trkpt lat="40.0728586" lon="-105.2306047">
  <ele>1590.57</ele>
  <time>2026-08-28T19:07:37Z</time>
  <course>66.46</course>
  <speed>0.0</speed>
  <fix>3d</fix>
</trkpt>
<trkpt lat="40.0728588" lon="-105.2306048">
  <ele>1590.56</ele>
  <time>2026-08-28T19:07:37Z</time>
  <course>19.04</course>
  <speed>0.01</speed>
  <fix>3d</fix>
</trkpt>
<trkpt lat="40.0728586" lon="-105.2306047">
  <ele>1590.47</ele>
  <time>2026-08-28T19:07:37Z</time>
  <course>66.49</course>
  <speed>0.0</speed>
  <fix>3d</fix>
</trkpt>
<trkpt lat="40.0728588" lon="-105.2306048">
  <ele>1590.46</ele>
  <time>2026-08-28T19:07:37Z</time>
  <course>22.41</course>
  <speed>0.01</speed>
  <fix>3d</fix>
</trkpt>
<trkpt lat="40.0728587" lon="-105.2306047">
  <ele>1590.37</ele>
  <time>2026-08-28T19:07:37Z</time>
  <course>66.52</course>
  <speed>0.0</speed>
  <fix>3d</fix>
</trkpt>
<trkpt lat="40.0728588" lon="-105.2306048">
  <ele>1590.36</ele>
  <time>2026-08-28T19:07:37Z</time>
  <course>27.59</course>
  <speed>0.01</speed>
  <fix>3d</fix>
</trkpt>
<trkpt lat="40.0728587" lon="-105.2306047">
  <ele>1590.27</ele>
  <time>2026-08-28T19:07:37Z</time>
  <course>66.55</course>
  <speed>0.0</speed>
  <fix>3d</fix>
</trkpt>
<trkpt lat="40.0728588" lon="-105.2306048">
  <ele>1590.26</ele>
  <time>2026-08-28T19:07:37Z</time>
  <course>36.41</course>
  <speed>0.0</speed>
  <fix>3d</fix>
</trkpt>
<trkpt lat="40.0728587" lon="-105.2306047">
  <ele>1590.17</ele>
  <time>2026-08-28T19:07:37Z</time>
  <course>66.59</course>
  <speed>0.0</speed>
  <fix>3d</fix>
</trkpt>
<trkpt lat="40.0728588" lon="-105.2306048">
  <ele>1590.15</ele>
  <time>2026-08-28T19:07:37Z</time>
  <course>49.23</course>
  <speed>0.0</speed>
  <fix>3d</fix>
</trkpt>
<trkpt lat="40.0728587" lon="-105.2306047">
  <ele>1590.07</ele>
  <time>2026-08-28T19:07:37Z</time>
  <course>66.6</course>
  <speed>0.0</speed>
  <fix>3d</fix>
</trkpt>
<trkpt lat="40.0728588" lon="-105.2306048">
  <ele>1590.06</ele>
  <time>2026-08-28T19:07:37Z</time>
  <course>70.69</course>
  <speed>0.0</speed>
  <fix>3d</fix>
</trkpt>
<trkpt lat="40.0728587" lon="-105.2306047">
  <ele>1589.97</ele>
  <time>2026-08-28T19:07:37Z</time>
  <course>66.62</course>
  <speed>0.01</speed>
  <fix>3d</fix>
</trkpt>
<trkpt lat="40.0728588" lon="-105.2306048">
  <ele>1589.96</ele>
  <time>2026-08-28T19:07:37Z</time>
  <course>99.52</course>
  <speed>0.0</speed>
  <fix>3d</fix>
</trkpt>
<trkpt lat="40.0728587" lon="-105.2306047">
  <ele>1589.87</ele>
  <time>2026-08-28T19:07:37Z</time>
  <course>66.65</course>
  <speed>0.01</speed>
  <fix>3d</fix>
</trkpt>
<trkpt lat="40.0728588" lon="-105.2306048">
  <ele>1589.86</ele>
  <time>2026-08-28T19:07:37Z</time>
  <course>120.8</course>
  <speed>0.0</speed>
  <fix>3d</fix>
</trkpt>
<trkpt lat="40.0728587" lon="-105.2306047">
  <ele>1589.76</ele>
  <time>2026-08-28T19:07:37Z</time>
  <course>66.68</course>
  <speed>0.01</speed>
  <fix>3d</fix>
</trkpt>
<trkpt lat="40.0728588" lon="-105.2306048">
  <ele>1589.76</ele>
  <time>2026-08-28T19:07:37Z</time>
  <course>133.78</course>
  <speed>0.0</speed>
  <fix>3d</fix>
</trkpt>
<trkpt lat="40.0728587" lon="-105.2306047">
  <ele>1589.66</ele>
  <time>2026-08-28T19:07:37Z</time>
  <course>66.68</course>
  <speed>0.01</speed>
  <fix>3d</fix>
</trkpt>
<trkpt lat="40.0728588" lon="-105.2306047">
  <ele>1589.65</ele>
  <time>2026-08-28T19:07:37Z</time>
  <course>140.8</course>
  <speed>0.0</speed>
  <fix>3d</fix>
</trkpt>
<trkpt lat="40.0728587" lon="-105.2306047">
  <ele>1589.56</ele>
  <time>2026-08-28T19:07:37Z</time>
  <course>66.71</course>
  <speed>0.01</speed>
  <fix>3d</fix>
</trkpt>
<trkpt lat="40.0728588" lon="-105.2306047">
  <ele>1589.56</ele>
  <time>2026-08-28T19:07:37Z</time>
  <course>145.12</course>
  <speed>0.0</speed>
  <fix>3d</fix>
</trkpt>
<trkpt lat="40.0728587" lon="-105.2306047">
  <ele>1589.46</ele>
  <time>2026-08-28T19:07:37Z</time>
  <course>66.73</course>
  <speed>0.01</speed>
  <fix>3d</fix>
</trkpt>
<trkpt lat="40.0728588" lon="-105.2306047">
  <ele>1589.46</ele>
  <time>2026-08-28T19:07:37Z</time>
  <course>150.11</course>
  <speed>0.0</speed>
  <fix>3d</fix>
</trkpt>
<trkpt lat="40.0728587" lon="-105.2306047">
  <ele>1589.36</ele>
  <time>2026-08-28T19:07:37Z</time>
  <course>66.74</course>
  <speed>0.01</speed>
  <fix>3d</fix>
</trkpt>
<trkpt lat="40.0728588" lon="-105.2306047">
  <ele>1589.36</ele>
  <time>2026-08-28T19:07:37Z</time>
  <course>156.39</course>
  <speed>0.0</speed>
  <fix>3d</fix>
</trkpt>
<trkpt lat="40.0728587" lon="-105.2306047">
  <ele>1589.27</ele>
  <time>2026-08-28T19:07:37Z</time>
  <course>66.78</course>
  <speed>0.01</speed>
  <fix>3d</fix>
</trkpt>
<trkpt lat="40.0728588" lon="-105.2306047">
  <ele>1589.26</ele>
  <time>2026-08-28T19:07:37Z</time>
  <course>162.54</course>
  <speed>0.0</speed>
  <fix>3d</fix>
</trkpt>
<trkpt lat="40.0728587" lon="-105.2306047">
  <ele>1589.17</ele>
  <time>2026-08-28T19:07:37Z</time>
  <course>66.79</course>
  <speed>0.01</speed>
  <fix>3d</fix>
</trkpt>
<trkpt lat="40.0728588" lon="-105.2306047">
  <ele>1589.15</ele>
  <time>2026-08-28T19:07:37Z</time>
  <course>168.97</course>
  <speed>0.0</speed>
  <fix>3d</fix>
</trkpt>
<trkpt lat="40.0728587" lon="-105.2306047">
  <ele>1589.07</ele>
  <time>2026-08-28T19:07:37Z</time>
  <course>66.81</course>
  <speed>0.01</speed>
  <fix>3d</fix>
</trkpt>
<trkpt lat="40.0728588" lon="-105.2306047">
  <ele>1589.06</ele>
  <time>2026-08-28T19:07:37Z</time>
  <course>174.11</course>
  <speed>0.0</speed>
  <fix>3d</fix>
</trkpt>
<trkpt lat="40.0728587" lon="-105.2306047">
  <ele>1588.97</ele>
  <time>2026-08-28T19:07:37Z</time>
  <course>66.84</course>
  <speed>0.01</speed>
  <fix>3d</fix>
</trkpt>
<trkpt lat="40.0728588" lon="-105.2306047">
  <ele>1588.96</ele>
  <time>2026-08-28T19:07:37Z</time>
  <course>178.19</course>
  <speed>0.01</speed>
  <fix>3d</fix>
</trkpt>
<trkpt lat="40.0728587" lon="-105.2306047">
  <ele>1588.87</ele>
  <time>2026-08-28T19:07:37Z</time>
  <course>66.86</course>
  <speed>0.01</speed>
  <fix>3d</fix>
</trkpt>
<trkpt lat="40.0728588" lon="-105.2306047">
  <ele>1588.86</ele>
  <time>2026-08-28T19:07:37Z</time>
  <course>181.83</course>
  <speed>0.01</speed>
  <fix>3d</fix>
</trkpt>
<trkpt lat="40.0728587" lon="-105.2306047">
  <ele>1588.76</ele>
  <time>2026-08-28T19:07:37Z</time>
  <course>66.87</course>
  <speed>0.01</speed>
  <fix>3d</fix>
</trkpt>
<trkpt lat="40.0728588" lon="-105.2306047">
  <ele>1588.76</ele>
  <time>2026-08-28T19:07:37Z</time>
  <course>184.56</course>
  <speed>0.01</speed>
  <fix>3d</fix>
</trkpt>
<trkpt lat="40.0728587" lon="-105.2306047">
  <ele>1588.66</ele>
  <time>2026-08-28T19:07:37Z</time>
  <course>66.91</course>
  <speed>0.01</speed>
  <fix>3d</fix>
</trkpt>
<trkpt lat="40.0728587" lon="-105.2306047">
  <ele>1588.65</ele>
  <time>2026-08-28T19:07:37Z</time>
  <course>186.88</course>
  <speed>0.01</speed>
  <fix>3d</fix>
</trkpt>
<trkpt lat="40.0728587" lon="-105.2306047">
  <ele>1588.56</ele>
  <time>2026-08-28T19:07:37Z</time>
  <course>66.9</course>
  <speed>0.01</speed>
  <fix>3d</fix>
</trkpt>
<trkpt lat="40.0728587" lon="-105.2306047">
  <ele>1588.56</ele>
  <time>2026-08-28T19:07:37Z</time>
  <course>188.98</course>
  <speed>0.01</speed>
  <fix>3d</fix>
</trkpt>
<trkpt lat="40.0728587" lon="-105.2306047">
  <ele>1588.46</ele>
  <time>2026-08-28T19:07:37Z</time>
  <course>66.94</course>
  <speed>0.01</speed>
  <fix>3d</fix>
</trkpt>
<trkpt lat="40.0728587" lon="-105.2306047">
  <ele>1588.46</ele>
  <time>2026-08-28T19:07:37Z</time>
  <course>191.25</course>
  <speed>0.01</speed>
  <fix>3d</fix>
</trkpt>
<trkpt lat="40.0728587" lon="-105.2306047">
  <ele>1588.36</ele>
  <time>2026-08-28T19:07:37Z</time>
  <course>66.94</course>
  <speed>0.01</speed>
  <fix>3d</fix>
</trkpt>
<trkpt lat="40.0728587" lon="-105.2306047">
  <ele>1588.36</ele>
  <time>2026-08-28T19:07:37Z</time>
  <course>192.96</course>
  <speed>0.01</speed>
  <fix>3d</fix>
</trkpt>
<trkpt lat="40.0728587" lon="-105.2306047">
  <ele>1588.26</ele>
  <time>2026-08-28T19:07:37Z</time>
  <course>66.95</course>
  <speed>0.0</speed>
  <fix>3d</fix>
</trkpt>
<trkpt lat="40.0728587" lon="-105.2306047">
  <ele>1588.26</ele>
  <time>2026-08-28T19:07:37Z</time>
  <course>194.94</course>
  <speed>0.01</speed>
  <fix>3d</fix>
</trkpt>
<trkpt lat="40.0728586" lon="-105.2306047">
  <ele>1588.16</ele>
  <time>2026-08-28T19:07:37Z</time>
  <course>66.98</course>
  <speed>0.0</speed>
  <fix>3d</fix>
</trkpt>
<trkpt lat="40.0728586" lon="-105.2306047">
  <ele>1588.15</ele>
  <time>2026-08-28T19:07:37Z</time>
  <course>199.06</course>
  <speed>0.01</speed>
  <fix>3d</fix>
</trkpt>
<trkpt lat="40.0728586" lon="-105.2306047">
  <ele>1588.06</ele>
  <time>2026-08-28T19:07:37Z</time>
  <course>66.97</course>
  <speed>0.0</speed>
  <fix>3d</fix>
</trkpt>
<trkpt lat="40.0728585" lon="-105.2306047">
  <ele>1588.06</ele>
  <time>2026-08-28T19:07:37Z</time>
  <course>202.7</course>
  <speed>0.01</speed>
  <fix>3d</fix>
</trkpt>
<trkpt lat="40.0728586" lon="-105.2306047">
  <ele>1587.96</ele>
  <time>2026-08-28T19:07:37Z</time>
  <course>67.0</course>
  <speed>0.0</speed>
  <fix>3d</fix>
</trkpt>
<trkpt lat="40.0728585" lon="-105.2306047">
  <ele>1587.96</ele>
  <time>2026-08-28T19:07:37Z</time>
  <course>204.89</course>
  <speed>0.01</speed>
  <fix>3d</fix>
</trkpt>
<trkpt lat="40.0728586" lon="-105.2306047">
  <ele>1587.86</ele>
  <time>2026-08-28T19:07:37Z</time>
  <course>67.03</course>
  <speed>0.0</speed>
  <fix>3d</fix>
</trkpt>
<trkpt lat="40.0728585" lon="-105.2306047">
  <ele>1587.86</ele>
  <time>2026-08-28T19:07:37Z</time>
  <course>207.17</course>
  <speed>0.0</speed>
  <fix>3d</fix>
</trkpt>
<trkpt lat="40.0728586" lon="-105.2306047">
  <ele>1587.77</ele>
  <time>2026-08-28T19:07:37Z</time>
  <course>67.05</course>
  <speed>0.0</speed>
  <fix>3d</fix>
</trkpt>
<trkpt lat="40.0728585" lon="-105.2306047">
  <ele>1587.76</ele>
  <time>2026-08-28T19:07:37Z</time>
  <course>211.93</course>
  <speed>0.0</speed>
  <fix>3d</fix>
</trkpt>
<trkpt lat="40.0728586" lon="-105.2306047">
  <ele>1587.67</ele>
  <time>2026-08-28T19:07:37Z</time>
  <course>67.05</course>
  <speed>0.0</speed>
  <fix>3d</fix>
</trkpt>
<trkpt lat="40.0728585" lon="-105.2306047">
  <ele>1587.66</ele>
  <time>2026-08-28T19:07:37Z</time>
  <course>219.7</course>
  <speed>0.0</speed>
  <fix>3d</fix>
</trkpt>
<trkpt lat="40.0728585" lon="-105.2306047">
  <ele>1587.57</ele>
  <time>2026-08-28T19:07:37Z</time>
  <course>67.08</course>
  <speed>0.0</speed>
  <fix>3d</fix>
</trkpt>
<trkpt lat="40.0728585" lon="-105.2306047">
  <ele>1587.56</ele>
  <time>2026-08-28T19:07:37Z</time>
  <course>230.33</course>
  <speed>0.0</speed>
  <fix>3d</fix>
</trkpt>
<trkpt lat="40.0728585" lon="-105.2306047">
  <ele>1587.47</ele>
  <time>2026-08-28T19:07:37Z</time>
  <course>67.1</course>
  <speed>0.0</speed>
  <fix>3d</fix>
</trkpt>
<trkpt lat="40.0728585" lon="-105.2306047">
  <ele>1587.46</ele>
  <time>2026-08-28T19:07:37Z</time>
  <course>246.66</course>
  <speed>0.0</speed>
  <fix>3d</fix>
</trkpt>
<trkpt lat="40.0728585" lon="-105.2306047">
  <ele>1587.37</ele>
  <time>2026-08-28T19:07:37Z</time>
  <course>67.11</course>
  <speed>0.0</speed>
  <fix>3d</fix>
</trkpt>
<trkpt lat="40.0728585" lon="-105.2306047">
  <ele>1587.36</ele>
  <time>2026-08-28T19:07:37Z</time>
  <course>261.64</course>
  <speed>0.0</speed>
  <fix>3d</fix>
</trkpt>
<trkpt lat="40.0728585" lon="-105.2306047">
  <ele>1587.27</ele>
  <time>2026-08-28T19:07:37Z</time>
  <course>67.11</course>
  <speed>0.0</speed>
  <fix>3d</fix>
</trkpt>
<trkpt lat="40.0728585" lon="-105.2306047">
  <ele>1587.26</ele>
  <time>2026-08-28T19:07:37Z</time>
  <course>271.76</course>
  <speed>0.0</speed>
  <fix>3d</fix>
</trkpt>
<trkpt lat="40.0728585" lon="-105.2306047">
  <ele>1587.17</ele>
  <time>2026-08-28T19:07:37Z</time>
  <course>67.13</course>
  <speed>0.0</speed>
  <fix>3d</fix>
</trkpt>
<trkpt lat="40.0728585" lon="-105.2306047">
  <ele>1587.15</ele>
  <time>2026-08-28T19:07:37Z</time>
  <course>280.2</course>
  <speed>0.0</speed>
  <fix>3d</fix>
</trkpt>
<trkpt lat="40.0728585" lon="-105.2306047">
  <ele>1587.06</ele>
  <time>2026-08-28T19:07:37Z</time>
  <course>67.15</course>
  <speed>0.0</speed>
  <fix>3d</fix>
</trkpt>
<trkpt lat="40.0728585" lon="-105.2306047">
  <ele>1587.06</ele>
  <time>2026-08-28T19:07:37Z</time>
  <course>288.84</course>
  <speed>0.0</speed>
  <fix>3d</fix>
</trkpt>
<trkpt lat="40.0728585" lon="-105.2306047">
  <ele>1586.96</ele>
  <time>2026-08-28T19:07:37Z</time>
  <course>67.14</course>
  <speed>0.0</speed>
  <fix>3d</fix>
</trkpt>
<trkpt lat="40.0728585" lon="-105.2306048">
  <ele>1586.96</ele>
  <time>2026-08-28T19:07:37Z</time>
  <course>294.74</course>
  <speed>0.0</speed>
  <fix>3d</fix>
</trkpt>
<trkpt lat="40.0728585" lon="-105.2306047">
  <ele>1586.86</ele>
  <time>2026-08-28T19:07:38Z</time>
  <course>67.16</course>
  <speed>0.0</speed>
  <fix>3d</fix>
</trkpt>
<trkpt lat="40.0728585" lon="-105.2306048">
  <ele>1586.86</ele>
  <time>2026-08-28T19:07:38Z</time>
  <course>298.69</course>
  <speed>0.0</speed>
  <fix>3d</fix>
</trkpt>
<trkpt lat="40.0728585" lon="-105.2306047">
  <ele>1586.76</ele>
  <time>2026-08-28T19:07:38Z</time>
  <course>67.19</course>
  <speed>0.0</speed>
  <fix>3d</fix>
</trkpt>
<trkpt lat="40.0728585" lon="-105.2306048">
  <ele>1586.76</ele>
  <time>2026-08-28T19:07:38Z</time>
  <course>302.09</course>
  <speed>0.0</speed>
  <fix>3d</fix>
</trkpt>
<trkpt lat="40.0728585" lon="-105.2306047">
  <ele>1586.66</ele>
  <time>2026-08-28T19:07:38Z</time>
  <course>67.18</course>
  <speed>0.0</speed>
  <fix>3d</fix>
</trkpt>
<trkpt lat="40.0728585" lon="-105.2306048">
  <ele>1586.65</ele>
  <time>2026-08-28T19:07:38Z</time>
  <course>303.73</course>
  <speed>0.0</speed>
  <fix>3d</fix>
</trkpt>
<trkpt lat="40.0728585" lon="-105.2306047">
  <ele>1586.56</ele>
  <time>2026-08-28T19:07:38Z</time>
  <course>67.19</course>
  <speed>0.0</speed>
  <fix>3d</fix>
</trkpt>
<trkpt lat="40.0728585" lon="-105.2306048">
  <ele>1586.56</ele>
  <time>2026-08-28T19:07:38Z</time>
  <course>305.96</course>
  <speed>0.0</speed>
  <fix>3d</fix>
</trkpt>
<trkpt lat="40.0728585" lon="-105.2306047">
  <ele>1586.46</ele>
  <time>2026-08-28T19:07:38Z</time>
  <course>67.22</course>
  <speed>0.0</speed>
  <fix>3d</fix>
</trkpt>
<trkpt lat="40.0728585" lon="-105.2306048">
  <ele>1586.47</ele>
  <time>2026-08-28T19:07:38Z</time>
  <course>309.13</course>
  <speed>0.0</speed>
  <fix>3d</fix>
</trkpt>
<trkpt lat="40.0728585" lon="-105.2306047">
  <ele>1586.36</ele>
  <time>2026-08-28T19:07:38Z</time>
  <course>67.23</course>
  <speed>0.0</speed>
  <fix>3d</fix>
</trkpt>
<trkpt lat="40.0728585" lon="-105.2306048">
  <ele>1586.37</ele>
  <time>2026-08-28T19:07:38Z</time>
  <course>311.66</course>
  <speed>0.0</speed>
  <fix>3d</fix>
</trkpt>
<trkpt lat="40.0728585" lon="-105.2306047">
  <ele>1586.26</ele>
  <time>2026-08-28T19:07:38Z</time>
  <course>67.25</course>
  <speed>0.0</speed>
  <fix>3d</fix>
</trkpt>
<trkpt lat="40.0728585" lon="-105.2306048">
  <ele>1586.27</ele>
  <time>2026-08-28T19:07:38Z</time>
  <course>314.78</course>
  <speed>0.0</speed>
  <fix>3d</fix>
</trkpt>
<trkpt lat="40.0728585" lon="-105.2306047">
  <ele>1586.16</ele>
  <time>2026-08-28T19:07:38Z</time>
  <course>67.24</course>
  <speed>0.0</speed>
  <fix>3d</fix>
</trkpt>
<trkpt lat="40.0728585" lon="-105.2306048">
  <ele>1586.16</ele>
  <time>2026-08-28T19:07:38Z</time>
  <course>317.29</course>
  <speed>0.0</speed>
  <fix>3d</fix>
</trkpt>
<trkpt lat="40.0728585" lon="-105.2306047">
  <ele>1586.07</ele>
  <time>2026-08-28T19:07:38Z</time>
  <course>67.28</course>
  <speed>0.02</speed>
  <fix>3d</fix>
</trkpt>
<trkpt lat="40.0728585" lon="-105.2306048">
  <ele>1586.07</ele>
  <time>2026-08-28T19:07:38Z</time>
  <course>319.49</course>
  <speed>0.0</speed>
  <fix>3d</fix>
</trkpt>
<trkpt lat="40.0728585" lon="-105.2306047">
  <ele>1586.07</ele>
  <time>2026-08-28T19:07:38Z</time>
  <course>67.26</course>
  <speed>0.01</speed>
  <fix>3d</fix>
</trkpt>
<trkpt lat="40.0728585" lon="-105.2306048">
  <ele>1586.01</ele>
  <time>2026-08-28T19:07:38Z</time>
  <course>336.67</course>
  <speed>0.01</speed>
  <fix>3d</fix>
</trkpt>
<trkpt lat="40.0728585" lon="-105.2306047">
  <ele>1586.08</ele>
  <time>2026-08-28T19:07:38Z</time>
  <course>67.26</course>
  <speed>0.01</speed>
  <fix>3d</fix>
</trkpt>
<trkpt lat="40.0728585" lon="-105.2306048">
  <ele>1586.01</ele>
  <time>2026-08-28T19:07:38Z</time>
  <course>352.88</course>
  <speed>0.0</speed>
  <fix>3d</fix>
</trkpt>
<trkpt lat="40.0728585" lon="-105.2306047">
  <ele>1586.07</ele>
  <time>2026-08-28T19:07:38Z</time>
  <course>67.31</course>
  <speed>0.0</speed>
  <fix>3d</fix>
</trkpt>
<trkpt lat="40.0728585" lon="-105.2306048">
  <ele>1586.02</ele>
  <time>2026-08-28T19:07:38Z</time>
  <course>134.72</course>
  <speed>0.0</speed>
  <fix>3d</fix>
</trkpt>
<trkpt lat="40.0728585" lon="-105.2306047">
  <ele>1586.07</ele>
  <time>2026-08-28T19:07:38Z</time>
  <course>67.36</course>
  <speed>0.0</speed>
  <fix>3d</fix>
</trkpt>
<trkpt lat="40.0728585" lon="-105.2306048">
  <ele>1586.02</ele>
  <time>2026-08-28T19:07:38Z</time>
  <course>167.2</course>
  <speed>0.0</speed>
  <fix>3d</fix>
</trkpt>
<trkpt lat="40.0728585" lon="-105.2306047">
  <ele>1586.07</ele>
  <time>2026-08-28T19:07:38Z</time>
  <course>67.4</course>
  <speed>0.0</speed>
  <fix>3d</fix>
</trkpt>
<trkpt lat="40.0728585" lon="-105.2306048">
  <ele>1586.02</ele>
  <time>2026-08-28T19:07:38Z</time>
  <course>25.08</course>
  <speed>0.0</speed>
  <fix>3d</fix>
</trkpt>
<trkpt lat="40.0728585" lon="-105.2306047">
  <ele>1586.07</ele>
  <time>2026-08-28T19:07:38Z</time>
  <course>67.44</course>
  <speed>0.0</speed>
  <fix>3d</fix>
</trkpt>
<trkpt lat="40.0728585" lon="-105.2306048">
  <ele>1586.02</ele>
  <time>2026-08-28T19:07:38Z</time>
  <course>72.81</course>
  <speed>0.0</speed>
  <fix>3d</fix>
</trkpt>
<trkpt lat="40.0728585" lon="-105.2306047">
  <ele>1586.07</ele>
  <time>2026-08-28T19:07:38Z</time>
  <course>67.48</course>
  <speed>0.0</speed>
  <fix>3d</fix>
</trkpt>
<trkpt lat="40.0728585" lon="-105.2306048">
  <ele>1586.02</ele>
  <time>2026-08-28T19:07:38Z</time>
  <course>102.55</course>
  <speed>0.0</speed>
  <fix>3d</fix>
</trkpt>
<trkpt lat="40.0728585" lon="-105.2306047">
  <ele>1586.07</ele>
  <time>2026-08-28T19:07:38Z</time>
  <course>67.52</course>
  <speed>0.0</speed>
  <fix>3d</fix>
</trkpt>
<trkpt lat="40.0728585" lon="-105.2306048">
  <ele>1586.02</ele>
  <time>2026-08-28T19:07:38Z</time>
  <course>70.34</course>
  <speed>0.0</speed>
  <fix>3d</fix>
</trkpt>
<trkpt lat="40.0728585" lon="-105.2306047">
  <ele>1586.06</ele>
  <time>2026-08-28T19:07:38Z</time>
  <course>67.56</course>
  <speed>0.0</speed>
  <fix>3d</fix>
</trkpt>
<trkpt lat="40.0728585" lon="-105.2306048">
  <ele>1586.02</ele>
  <time>2026-08-28T19:07:38Z</time>
  <course>50.38</course>
  <speed>0.0</speed>
  <fix>3d</fix>
</trkpt>
<trkpt lat="40.0728585" lon="-105.2306047">
  <ele>1586.06</ele>
  <time>2026-08-28T19:07:38Z</time>
  <course>67.59</course>
  <speed>0.0</speed>
  <fix>3d</fix>
</trkpt>
<trkpt lat="40.0728585" lon="-105.2306048">
  <ele>1586.02</ele>
  <time>2026-08-28T19:07:38Z</time>
  <course>88.19</course>
  <speed>0.0</speed>
  <fix>3d</fix>
</trkpt>
<trkpt lat="40.0728585" lon="-105.2306047">
  <ele>1586.06</ele>
  <time>2026-08-28T19:07:38Z</time>
  <course>67.61</course>
  <speed>0.01</speed>
  <fix>3d</fix>
</trkpt>
<trkpt lat="40.0728585" lon="-105.2306048">
  <ele>1586.02</ele>
  <time>2026-08-28T19:07:38Z</time>
  <course>156.07</course>
  <speed>0.0</speed>
  <fix>3d</fix>
</trkpt>
<trkpt lat="40.0728585" lon="-105.2306047">
  <ele>1586.07</ele>
  <time>2026-08-28T19:07:38Z</time>
  <course>67.61</course>
  <speed>0.0</speed>
  <fix>3d</fix>
</trkpt>
<trkpt lat="40.0728585" lon="-105.2306048">
  <ele>1586.02</ele>
  <time>2026-08-28T19:07:38Z</time>
  <course>160.28</course>
  <speed>0.01</speed>
  <fix>3d</fix>
</trkpt>
<trkpt lat="40.0728585" lon="-105.2306047">
  <ele>1586.06</ele>
  <time>2026-08-28T19:07:38Z</time>
  <course>67.6</course>
  <speed>0.0</speed>
  <fix>3d</fix>
</trkpt>
<trkpt lat="40.0728585" lon="-105.2306048">
  <ele>1586.02</ele>
  <time>2026-08-28T19:07:38Z</time>
  <course>172.16</course>
  <speed>0.0</speed>
  <fix>3d</fix>
</trkpt>
<trkpt lat="40.0728585" lon="-105.2306047">
  <ele>1586.06</ele>
  <time>2026-08-28T19:07:38Z</time>
  <course>67.61</course>
  <speed>0.0</speed>
  <fix>3d</fix>
</trkpt>
<trkpt lat="40.0728585" lon="-105.2306048">
  <ele>1586.02</ele>
  <time>2026-08-28T19:07:38Z</time>
  <course>305.96</course>
  <speed>0.0</speed>
  <fix>3d</fix>
</trkpt>
<trkpt lat="40.0728585" lon="-105.2306047">
  <ele>1586.06</ele>
  <time>2026-08-28T19:07:38Z</time>
  <course>67.62</course>
  <speed>0.0</speed>
  <fix>3d</fix>
</trkpt>
<trkpt lat="40.0728585" lon="-105.2306048">
  <ele>1586.02</ele>
  <time>2026-08-28T19:07:38Z</time>
  <course>297.77</course>
  <speed>0.0</speed>
  <fix>3d</fix>
</trkpt>
<trkpt lat="40.0728585" lon="-105.2306047">
  <ele>1586.06</ele>
  <time>2026-08-28T19:07:38Z</time>
  <course>67.63</course>
  <speed>0.0</speed>
  <fix>3d</fix>
</trkpt>
<trkpt lat="40.0728585" lon="-105.2306048">
  <ele>1586.02</ele>
  <time>2026-08-28T19:07:38Z</time>
  <course>287.02</course>
  <speed>0.0</speed>
  <fix>3d</fix>
</trkpt>
<trkpt lat="40.0728585" lon="-105.2306047">
  <ele>1586.06</ele>
  <time>2026-08-28T19:07:38Z</time>
  <course>67.64</course>
  <speed>0.0</speed>
  <fix>3d</fix>
</trkpt>
<trkpt lat="40.0728585" lon="-105.2306048">
  <ele>1586.02</ele>
  <time>2026-08-28T19:07:38Z</time>
  <course>279.5</course>
  <speed>0.0</speed>
  <fix>3d</fix>
</trkpt>
<trkpt lat="40.0728585" lon="-105.2306047">
  <ele>1586.06</ele>
  <time>2026-08-28T19:07:38Z</time>
  <course>67.65</course>
  <speed>0.0</speed>
  <fix>3d</fix>
</trkpt>
<trkpt lat="40.0728585" lon="-105.2306048">
  <ele>1586.02</ele>
  <time>2026-08-28T19:07:38Z</time>
  <course>208.23</course>
  <speed>0.0</speed>
  <fix>3d</fix>
</trkpt>
<trkpt lat="40.0728585" lon="-105.2306047">
  <ele>1586.06</ele>
  <time>2026-08-28T19:07:38Z</time>
  <course>67.66</course>
  <speed>0.0</speed>
  <fix>3d</fix>
</trkpt>
<trkpt lat="40.0728585" lon="-105.2306048">
  <ele>1586.02</ele>
  <time>2026-08-28T19:07:38Z</time>
  <course>44.57</course>
  <speed>0.0</speed>
  <fix>3d</fix>
</trkpt>
<trkpt lat="40.0728585" lon="-105.2306047">
  <ele>1586.06</ele>
  <time>2026-08-28T19:07:38Z</time>
  <course>67.67</course>
  <speed>0.0</speed>
  <fix>3d</fix>
</trkpt>
<trkpt lat="40.0728585" lon="-105.2306048">
  <ele>1586.02</ele>
  <time>2026-08-28T19:07:38Z</time>
  <course>327.62</course>
  <speed>0.0</speed>
  <fix>3d</fix>
</trkpt>
<trkpt lat="40.0728585" lon="-105.2306047">
  <ele>1586.06</ele>
  <time>2026-08-28T19:07:38Z</time>
  <course>67.68</course>
  <speed>0.0</speed>
  <fix>3d</fix>
</trkpt>
<trkpt lat="40.0728585" lon="-105.2306048">
  <ele>1586.02</ele>
  <time>2026-08-28T19:07:38Z</time>
  <course>175.27</course>
  <speed>0.0</speed>
  <fix>3d</fix>
</trkpt>
<trkpt lat="40.0728585" lon="-105.2306047">
  <ele>1586.06</ele>
  <time>2026-08-28T19:07:38Z</time>
  <course>67.69</course>
  <speed>0.0</speed>
  <fix>3d</fix>
</trkpt>
<trkpt lat="40.0728585" lon="-105.2306048">
  <ele>1586.02</ele>
  <time>2026-08-28T19:07:38Z</time>
  <course>138.2</course>
  <speed>0.0</speed>
  <fix>3d</fix>
</trkpt>
<trkpt lat="40.0728585" lon="-105.2306047">
  <ele>1586.06</ele>
  <time>2026-08-28T19:07:38Z</time>
  <course>67.69</course>
  <speed>0.0</speed>
  <fix>3d</fix>
</trkpt>
<trkpt lat="40.0728585" lon="-105.2306048">
  <ele>1586.02</ele>
  <time>2026-08-28T19:07:38Z</time>
  <course>120.76</course>
  <speed>0.0</speed>
  <fix>3d</fix>
</trkpt>
<trkpt lat="40.0728585" lon="-105.2306047">
  <ele>1586.07</ele>
  <time>2026-08-28T19:07:38Z</time>
  <course>67.7</course>
  <speed>0.0</speed>
  <fix>3d</fix>
</trkpt>
<trkpt lat="40.0728585" lon="-105.2306048">
  <ele>1586.02</ele>
  <time>2026-08-28T19:07:38Z</time>
  <course>138.29</course>
  <speed>0.0</speed>
  <fix>3d</fix>
</trkpt>
<trkpt lat="40.0728585" lon="-105.2306047">
  <ele>1586.07</ele>
  <time>2026-08-28T19:07:38Z</time>
  <course>67.71</course>
  <speed>0.0</speed>
  <fix>3d</fix>
</trkpt>
<trkpt lat="40.0728585" lon="-105.2306048">
  <ele>1586.02</ele>
  <time>2026-08-28T19:07:38Z</time>
  <course>134.8</course>
  <speed>0.0</speed>
  <fix>3d</fix>
</trkpt>
<trkpt lat="40.0728585" lon="-105.2306047">
  <ele>1586.08</ele>
  <time>2026-08-28T19:07:38Z</time>
  <course>67.72</course>
  <speed>0.0</speed>
  <fix>3d</fix>
</trkpt>
<trkpt lat="40.0728585" lon="-105.2306048">
  <ele>1586.02</ele>
  <time>2026-08-28T19:07:38Z</time>
  <course>150.78</course>
  <speed>0.0</speed>
  <fix>3d</fix>
</trkpt>
<trkpt lat="40.0728585" lon="-105.2306047">
  <ele>1586.08</ele>
  <time>2026-08-28T19:07:38Z</time>
  <course>67.73</course>
  <speed>0.0</speed>
  <fix>3d</fix>
</trkpt>
<trkpt lat="40.0728585" lon="-105.2306048">
  <ele>1586.02</ele>
  <time>2026-08-28T19:07:38Z</time>
  <course>152.43</course>
  <speed>0.0</speed>
  <fix>3d</fix>
</trkpt>
<trkpt lat="40.0728585" lon="-105.2306047">
  <ele>1586.08</ele>
  <time>2026-08-28T19:07:38Z</time>
  <course>67.74</course>
  <speed>0.0</speed>
  <fix>3d</fix>
</trkpt>
<trkpt lat="40.0728585" lon="-105.2306048">
  <ele>1586.02</ele>
  <time>2026-08-28T19:07:38Z</time>
  <course>136.97</course>
  <speed>0.0</speed>
  <fix>3d</fix>
</trkpt>
<trkpt lat="40.0728585" lon="-105.2306047">
  <ele>1586.08</ele>
  <time>2026-08-28T19:07:38Z</time>
  <course>67.75</course>
  <speed>0.0</speed>
  <fix>3d</fix>
</trkpt>
<trkpt lat="40.0728585" lon="-105.2306048">
  <ele>1586.02</ele>
  <time>2026-08-28T19:07:38Z</time>
  <course>171.65</course>
  <speed>0.0</speed>
  <fix>3d</fix>
</trkpt>
<trkpt lat="40.0728585" lon="-105.2306047">
  <ele>1586.08</ele>
  <time>2026-08-28T19:07:38Z</time>
  <course>67.76</course>
  <speed>0.0</speed>
  <fix>3d</fix>
</trkpt>
<trkpt lat="40.0728585" lon="-105.2306048">
  <ele>1586.02</ele>
  <time>2026-08-28T19:07:38Z</time>
  <course>151.98</course>
  <speed>0.0</speed>
  <fix>3d</fix>
</trkpt>
<trkpt lat="40.0728585" lon="-105.2306047">
  <ele>1586.08</ele>
  <time>2026-08-28T19:07:38Z</time>
  <course>67.77</course>
  <speed>0.0</speed>
  <fix>3d</fix>
</trkpt>
<trkpt lat="40.0728585" lon="-105.2306048">
  <ele>1586.02</ele>
  <time>2026-08-28T19:07:38Z</time>
  <course>116.68</course>
  <speed>0.0</speed>
  <fix>3d</fix>
</trkpt>
<trkpt lat="40.0728585" lon="-105.2306047">
  <ele>1586.09</ele>
  <time>2026-08-28T19:07:38Z</time>
  <course>67.78</course>
  <speed>0.0</speed>
  <fix>3d</fix>
</trkpt>
<trkpt lat="40.0728585" lon="-105.2306048">
  <ele>1586.02</ele>
  <time>2026-08-28T19:07:38Z</time>
  <course>341.5</course>
  <speed>0.0</speed>
  <fix>3d</fix>
</trkpt>
<trkpt lat="40.0728585" lon="-105.2306047">
  <ele>1586.09</ele>
  <time>2026-08-28T19:07:38Z</time>
  <course>67.79</course>
  <speed>0.0</speed>
  <fix>3d</fix>
</trkpt>
<trkpt lat="40.0728585" lon="-105.2306048">
  <ele>1586.02</ele>
  <time>2026-08-28T19:07:38Z</time>
  <course>322.61</course>
  <speed>0.0</speed>
  <fix>3d</fix>
</trkpt>
<trkpt lat="40.0728585" lon="-105.2306047">
  <ele>1586.09</ele>
  <time>2026-08-28T19:07:38Z</time>
  <course>67.8</course>
  <speed>0.0</speed>
  <fix>3d</fix>
</trkpt>
<trkpt lat="40.0728585" lon="-105.2306048">
  <ele>1586.02</ele>
  <time>2026-08-28T19:07:38Z</time>
  <course>115.07</course>
  <speed>0.0</speed>
  <fix>3d</fix>
</trkpt>
<trkpt lat="40.0728585" lon="-105.2306047">
  <ele>1586.09</ele>
  <time>2026-08-28T19:07:38Z</time>
  <course>67.8</course>
  <speed>0.0</speed>
  <fix>3d</fix>
</trkpt>
<trkpt lat="40.0728585" lon="-105.2306048">
  <ele>1586.02</ele>
  <time>2026-08-28T19:07:38Z</time>
  <course>82.29</course>
  <speed>0.0</speed>
  <fix>3d</fix>
</trkpt>
<trkpt lat="40.0728585" lon="-105.2306047">
  <ele>1586.09</ele>
  <time>2026-08-28T19:07:38Z</time>
  <course>67.81</course>
  <speed>0.0</speed>
  <fix>3d</fix>
</trkpt>
<trkpt lat="40.0728585" lon="-105.2306048">
  <ele>1586.02</ele>
  <time>2026-08-28T19:07:38Z</time>
  <course>79.97</course>
  <speed>0.0</speed>
  <fix>3d</fix>
</trkpt>
<trkpt lat="40.0728585" lon="-105.2306047">
  <ele>1586.09</ele>
  <time>2026-08-28T19:07:38Z</time>
  <course>67.82</course>
  <speed>0.0</speed>
  <fix>3d</fix>
</trkpt>
<trkpt lat="40.0728585" lon="-105.2306048">
  <ele>1586.02</ele>
  <time>2026-08-28T19:07:38Z</time>
  <course>87.4</course>
  <speed>0.0</speed>
  <fix>3d</fix>
</trkpt>
<trkpt lat="40.0728585" lon="-105.2306047">
  <ele>1586.1</ele>
  <time>2026-08-28T19:07:38Z</time>
  <course>67.83</course>
  <speed>0.0</speed>
  <fix>3d</fix>
</trkpt>
<trkpt lat="40.0728585" lon="-105.2306048">
  <ele>1586.02</ele>
  <time>2026-08-28T19:07:38Z</time>
  <course>86.76</course>
  <speed>0.0</speed>
  <fix>3d</fix>
</trkpt>
<trkpt lat="40.0728585" lon="-105.2306047">
  <ele>1586.1</ele>
  <time>2026-08-28T19:07:38Z</time>
  <course>67.84</course>
  <speed>0.0</speed>
  <fix>3d</fix>
</trkpt>
<trkpt lat="40.0728585" lon="-105.2306048">
  <ele>1586.02</ele>
  <time>2026-08-28T19:07:38Z</time>
  <course>85.91</course>
  <speed>0.0</speed>
  <fix>3d</fix>
</trkpt>
<trkpt lat="40.0728585" lon="-105.2306047">
  <ele>1586.1</ele>
  <time>2026-08-28T19:07:38Z</time>
  <course>67.85</course>
  <speed>0.0</speed>
  <fix>3d</fix>
</trkpt>
<trkpt lat="40.0728585" lon="-105.2306048">
  <ele>1586.02</ele>
  <time>2026-08-28T19:07:38Z</time>
  <course>86.1</course>
  <speed>0.0</speed>
  <fix>3d</fix>
</trkpt>
<trkpt lat="40.0728585" lon="-105.2306047">
  <ele>1586.09</ele>
  <time>2026-08-28T19:07:38Z</time>
  <course>67.86</course>
  <speed>0.0</speed>
  <fix>3d</fix>
</trkpt>
<trkpt lat="40.0728585" lon="-105.2306048">
  <ele>1586.02</ele>
  <time>2026-08-28T19:07:38Z</time>
  <course>86.19</course>
  <speed>0.0</speed>
  <fix>3d</fix>
</trkpt>
<trkpt lat="40.0728585" lon="-105.2306047">
  <ele>1586.1</ele>
  <time>2026-08-28T19:07:38Z</time>
  <course>67.86</course>
  <speed>0.0</speed>
  <fix>3d</fix>
</trkpt>
<trkpt lat="40.0728585" lon="-105.2306048">
  <ele>1586.02</ele>
  <time>2026-08-28T19:07:38Z</time>
  <course>86.15</course>
  <speed>0.0</speed>
  <fix>3d</fix>
</trkpt>
<trkpt lat="40.0728585" lon="-105.2306047">
  <ele>1586.1</ele>
  <time>2026-08-28T19:07:38Z</time>
  <course>67.87</course>
  <speed>0.01</speed>
  <fix>3d</fix>
</trkpt>
<trkpt lat="40.0728585" lon="-105.2306048">
  <ele>1586.02</ele>
  <time>2026-08-28T19:07:38Z</time>
  <course>86.15</course>
  <speed>0.0</speed>
  <fix>3d</fix>
</trkpt>
<trkpt lat="40.0728585" lon="-105.2306047">
  <ele>1586.1</ele>
  <time>2026-08-28T19:07:38Z</time>
  <course>67.88</course>
  <speed>0.01</speed>
  <fix>3d</fix>
</trkpt>
<trkpt lat="40.0728585" lon="-105.2306048">
  <ele>1586.02</ele>
  <time>2026-08-28T19:07:38Z</time>
  <course>86.15</course>
  <speed>0.0</speed>
  <fix>3d</fix>
</trkpt>
<trkpt lat="40.0728585" lon="-105.2306047">
  <ele>1586.1</ele>
  <time>2026-08-28T19:07:38Z</time>
  <course>67.89</course>
  <speed>0.01</speed>
  <fix>3d</fix>
</trkpt>
<trkpt lat="40.0728585" lon="-105.2306048">
  <ele>1586.02</ele>
  <time>2026-08-28T19:07:38Z</time>
  <course>86.15</course>
  <speed>0.0</speed>
  <fix>3d</fix>
</trkpt>
<trkpt lat="40.0728585" lon="-105.2306047">
  <ele>1586.1</ele>
  <time>2026-08-28T19:07:38Z</time>
  <course>67.9</course>
  <speed>0.01</speed>
  <fix>3d</fix>
</trkpt>
<trkpt lat="40.0728585" lon="-105.2306048">
  <ele>1586.02</ele>
  <time>2026-08-28T19:07:38Z</time>
  <course>86.15</course>
  <speed>0.0</speed>
  <fix>3d</fix>
</trkpt>
<trkpt lat="40.0728585" lon="-105.2306047">
  <ele>1586.1</ele>
  <time>2026-08-28T19:07:38Z</time>
  <course>67.91</course>
  <speed>0.01</speed>
  <fix>3d</fix>
</trkpt>
<trkpt lat="40.0728585" lon="-105.2306048">
  <ele>1586.02</ele>
  <time>2026-08-28T19:07:38Z</time>
  <course>86.15</course>
  <speed>0.0</speed>
  <fix>3d</fix>
</trkpt>
<trkpt lat="40.0728585" lon="-105.2306047">
  <ele>1586.1</ele>
  <time>2026-08-28T19:07:38Z</time>
  <course>67.92</course>
  <speed>0.01</speed>
  <fix>3d</fix>
</trkpt>
<trkpt lat="40.0728585" lon="-105.2306048">
  <ele>1586.02</ele>
  <time>2026-08-28T19:07:38Z</time>
  <course>86.15</course>
  <speed>0.0</speed>
  <fix>3d</fix>
</trkpt>
<trkpt lat="40.0728585" lon="-105.2306047">
  <ele>1586.1</ele>
  <time>2026-08-28T19:07:38Z</time>
  <course>67.92</course>
  <speed>0.01</speed>
  <fix>3d</fix>
</trkpt>
<trkpt lat="40.0728585" lon="-105.2306048">
  <ele>1586.02</ele>
  <time>2026-08-28T19:07:38Z</time>
  <course>86.15</course>
  <speed>0.0</speed>
  <fix>3d</fix>
</trkpt>
<trkpt lat="40.0728585" lon="-105.2306047">
  <ele>1586.1</ele>
  <time>2026-08-28T19:07:38Z</time>
  <course>67.93</course>
  <speed>0.01</speed>
  <fix>3d</fix>
</trkpt>
<trkpt lat="40.0728585" lon="-105.2306048">
  <ele>1586.02</ele>
  <time>2026-08-28T19:07:38Z</time>
  <course>86.15</course>
  <speed>0.0</speed>
  <fix>3d</fix>
</trkpt>
<trkpt lat="40.0728585" lon="-105.2306047">
  <ele>1586.1</ele>
  <time>2026-08-28T19:07:38Z</time>
  <course>67.94</course>
  <speed>0.01</speed>
  <fix>3d</fix>
</trkpt>
<trkpt lat="40.0728585" lon="-105.2306048">
  <ele>1586.02</ele>
  <time>2026-08-28T19:07:38Z</time>
  <course>142.95</course>
  <speed>0.0</speed>
  <fix>3d</fix>
</trkpt>
<trkpt lat="40.0728585" lon="-105.2306047">
  <ele>1586.1</ele>
  <time>2026-08-28T19:07:38Z</time>
  <course>67.95</course>
  <speed>0.01</speed>
  <fix>3d</fix>
</trkpt>
<trkpt lat="40.0728585" lon="-105.2306048">
  <ele>1586.02</ele>
  <time>2026-08-28T19:07:38Z</time>
  <course>142.45</course>
  <speed>0.0</speed>
  <fix>3d</fix>
</trkpt>
<trkpt lat="40.0728585" lon="-105.2306047">
  <ele>1586.1</ele>
  <time>2026-08-28T19:07:38Z</time>
  <course>67.96</course>
  <speed>0.01</speed>
  <fix>3d</fix>
</trkpt>
<trkpt lat="40.0728585" lon="-105.2306048">
  <ele>1586.02</ele>
  <time>2026-08-28T19:07:38Z</time>
  <course>38.62</course>
  <speed>0.0</speed>
  <fix>3d</fix>
</trkpt>
<trkpt lat="40.0728585" lon="-105.2306047">
  <ele>1586.1</ele>
  <time>2026-08-28T19:07:38Z</time>
  <course>67.96</course>
  <speed>0.01</speed>
  <fix>3d</fix>
</trkpt>
<trkpt lat="40.0728585" lon="-105.2306048">
  <ele>1586.02</ele>
  <time>2026-08-28T19:07:38Z</time>
  <course>48.35</course>
  <speed>0.0</speed>
  <fix>3d</fix>
</trkpt>
<trkpt lat="40.0728585" lon="-105.2306047">
  <ele>1586.1</ele>
  <time>2026-08-28T19:07:38Z</time>
  <course>67.97</course>
  <speed>0.01</speed>
  <fix>3d</fix>
</trkpt>
<trkpt lat="40.0728585" lon="-105.2306048">
  <ele>1586.02</ele>
  <time>2026-08-28T19:07:38Z</time>
  <course>85.49</course>
  <speed>0.0</speed>
  <fix>3d</fix>
</trkpt>
<trkpt lat="40.0728585" lon="-105.2306047">
  <ele>1586.11</ele>
  <time>2026-08-28T19:07:38Z</time>
  <course>67.98</course>
  <speed>0.01</speed>
  <fix>3d</fix>
</trkpt>
<trkpt lat="40.0728585" lon="-105.2306048">
  <ele>1586.02</ele>
  <time>2026-08-28T19:07:38Z</time>
  <course>80.76</course>
  <speed>0.0</speed>
  <fix>3d</fix>
</trkpt>
<trkpt lat="40.0728585" lon="-105.2306047">
  <ele>1586.11</ele>
  <time>2026-08-28T19:07:38Z</time>
  <course>67.99</course>
  <speed>0.01</speed>
  <fix>3d</fix>
</trkpt>
<trkpt lat="40.0728585" lon="-105.2306048">
  <ele>1586.02</ele>
  <time>2026-08-28T19:07:38Z</time>
  <course>76.16</course>
  <speed>0.0</speed>
  <fix>3d</fix>
</trkpt>
<trkpt lat="40.0728585" lon="-105.2306047">
  <ele>1586.11</ele>
  <time>2026-08-28T19:07:38Z</time>
  <course>67.99</course>
  <speed>0.01</speed>
  <fix>3d</fix>
</trkpt>
<trkpt lat="40.0728585" lon="-105.2306048">
  <ele>1586.02</ele>
  <time>2026-08-28T19:07:38Z</time>
  <course>73.91</course>
  <speed>0.0</speed>
  <fix>3d</fix>
</trkpt>
<trkpt lat="40.0728585" lon="-105.2306047">
  <ele>1586.11</ele>
  <time>2026-08-28T19:07:38Z</time>
  <course>68.0</course>
  <speed>0.01</speed>
  <fix>3d</fix>
</trkpt>
<trkpt lat="40.0728585" lon="-105.2306048">
  <ele>1586.02</ele>
  <time>2026-08-28T19:07:38Z</time>
  <course>71.79</course>
  <speed>0.0</speed>
  <fix>3d</fix>
</trkpt>
<trkpt lat="40.0728585" lon="-105.2306047">
  <ele>1586.12</ele>
  <time>2026-08-28T19:07:38Z</time>
  <course>68.03</course>
  <speed>0.01</speed>
  <fix>3d</fix>
</trkpt>
<trkpt lat="40.0728585" lon="-105.2306048">
  <ele>1586.02</ele>
  <time>2026-08-28T19:07:38Z</time>
  <course>72.27</course>
  <speed>0.0</speed>
  <fix>3d</fix>
</trkpt>
<trkpt lat="40.0728585" lon="-105.2306047">
  <ele>1586.12</ele>
  <time>2026-08-28T19:07:38Z</time>
  <course>68.2</course>
  <speed>0.01</speed>
  <fix>3d</fix>
</trkpt>
<trkpt lat="40.0728585" lon="-105.2306048">
  <ele>1586.02</ele>
  <time>2026-08-28T19:07:38Z</time>
  <course>357.4</course>
  <speed>0.0</speed>
  <fix>3d</fix>
</trkpt>
<trkpt lat="40.0728585" lon="-105.2306047">
  <ele>1586.12</ele>
  <time>2026-08-28T19:07:38Z</time>
  <course>68.37</course>
  <speed>0.01</speed>
  <fix>3d</fix>
</trkpt>
<trkpt lat="40.0728585" lon="-105.2306048">
  <ele>1586.02</ele>
  <time>2026-08-28T19:07:38Z</time>
  <course>1.16</course>
  <speed>0.0</speed>
  <fix>3d</fix>
</trkpt>
<trkpt lat="40.0728585" lon="-105.2306047">
  <ele>1586.12</ele>
  <time>2026-08-28T19:07:38Z</time>
  <course>68.5</course>
  <speed>0.01</speed>
  <fix>3d</fix>
</trkpt>
<trkpt lat="40.0728585" lon="-105.2306048">
  <ele>1586.02</ele>
  <time>2026-08-28T19:07:38Z</time>
  <course>109.08</course>
  <speed>0.0</speed>
  <fix>3d</fix>
</trkpt>
<trkpt lat="40.0728585" lon="-105.2306047">
  <ele>1586.13</ele>
  <time>2026-08-28T19:07:38Z</time>
  <course>68.61</course>
  <speed>0.01</speed>
  <fix>3d</fix>
</trkpt>
<trkpt lat="40.0728585" lon="-105.2306048">
  <ele>1586.02</ele>
  <time>2026-08-28T19:07:38Z</time>
  <course>97.61</course>
  <speed>0.0</speed>
  <fix>3d</fix>
</trkpt>
<trkpt lat="40.0728585" lon="-105.2306047">
  <ele>1586.12</ele>
  <time>2026-08-28T19:07:38Z</time>
  <course>68.71</course>
  <speed>0.01</speed>
  <fix>3d</fix>
</trkpt>
<trkpt lat="40.0728585" lon="-105.2306048">
  <ele>1586.02</ele>
  <time>2026-08-28T19:07:38Z</time>
  <course>80.56</course>
  <speed>0.0</speed>
  <fix>3d</fix>
</trkpt>
<trkpt lat="40.0728585" lon="-105.2306047">
  <ele>1586.12</ele>
  <time>2026-08-28T19:07:38Z</time>
  <course>68.79</course>
  <speed>0.01</speed>
  <fix>3d</fix>
</trkpt>
<trkpt lat="40.0728585" lon="-105.2306048">
  <ele>1586.02</ele>
  <time>2026-08-28T19:07:38Z</time>
  <course>85.09</course>
  <speed>0.0</speed>
  <fix>3d</fix>
</trkpt>
<trkpt lat="40.0728585" lon="-105.2306047">
  <ele>1586.11</ele>
  <time>2026-08-28T19:07:38Z</time>
  <course>68.87</course>
  <speed>0.01</speed>
  <fix>3d</fix>
</trkpt>
<trkpt lat="40.0728585" lon="-105.2306048">
  <ele>1586.02</ele>
  <time>2026-08-28T19:07:38Z</time>
  <course>87.0</course>
  <speed>0.0</speed>
  <fix>3d</fix>
</trkpt>
<trkpt lat="40.0728585" lon="-105.2306047">
  <ele>1586.11</ele>
  <time>2026-08-28T19:07:38Z</time>
  <course>68.93</course>
  <speed>0.01</speed>
  <fix>3d</fix>
</trkpt>
<trkpt lat="40.0728585" lon="-105.2306048">
  <ele>1586.02</ele>
  <time>2026-08-28T19:07:38Z</time>
  <course>86.19</course>
  <speed>0.0</speed>
  <fix>3d</fix>
</trkpt>
<trkpt lat="40.0728585" lon="-105.2306047">
  <ele>1586.1</ele>
  <time>2026-08-28T19:07:38Z</time>
  <course>68.99</course>
  <speed>0.01</speed>
  <fix>3d</fix>
</trkpt>
<trkpt lat="40.0728585" lon="-105.2306048">
  <ele>1586.02</ele>
  <time>2026-08-28T19:07:38Z</time>
  <course>86.03</course>
  <speed>0.0</speed>
  <fix>3d</fix>
</trkpt>
<trkpt lat="40.0728585" lon="-105.2306047">
  <ele>1586.1</ele>
  <time>2026-08-28T19:07:38Z</time>
  <course>69.18</course>
  <speed>0.01</speed>
  <fix>3d</fix>
</trkpt>
<trkpt lat="40.0728585" lon="-105.2306048">
  <ele>1586.02</ele>
  <time>2026-08-28T19:07:38Z</time>
  <course>86.15</course>
  <speed>0.0</speed>
  <fix>3d</fix>
</trkpt>
<trkpt lat="40.0728585" lon="-105.2306047">
  <ele>1586.1</ele>
  <time>2026-08-28T19:07:38Z</time>
  <course>69.21</course>
  <speed>0.01</speed>
  <fix>3d</fix>
</trkpt>
<trkpt lat="40.0728585" lon="-105.2306048">
  <ele>1586.02</ele>
  <time>2026-08-28T19:07:38Z</time>
  <course>86.15</course>
  <speed>0.0</speed>
  <fix>3d</fix>
</trkpt>
<trkpt lat="40.0728585" lon="-105.2306047">
  <ele>1586.11</ele>
  <time>2026-08-28T19:07:38Z</time>
  <course>69.25</course>
  <speed>0.01</speed>
  <fix>3d</fix>
</trkpt>
<trkpt lat="40.0728585" lon="-105.2306048">
  <ele>1586.02</ele>
  <time>2026-08-28T19:07:38Z</time>
  <course>86.15</course>
  <speed>0.0</speed>
  <fix>3d</fix>
</trkpt>
<trkpt lat="40.0728585" lon="-105.2306047">
  <ele>1586.1</ele>
  <time>2026-08-28T19:07:38Z</time>
  <course>69.28</course>
  <speed>0.01</speed>
  <fix>3d</fix>
</trkpt>
<trkpt lat="40.0728585" lon="-105.2306048">
  <ele>1586.02</ele>
  <time>2026-08-28T19:07:38Z</time>
  <course>86.15</course>
  <speed>0.0</speed>
  <fix>3d</fix>
</trkpt>
<trkpt lat="40.0728585" lon="-105.2306047">
  <ele>1586.1</ele>
  <time>2026-08-28T19:07:38Z</time>
  <course>69.31</course>
  <speed>0.01</speed>
  <fix>3d</fix>
</trkpt>
<trkpt lat="40.0728585" lon="-105.2306048">
  <ele>1586.02</ele>
  <time>2026-08-28T19:07:38Z</time>
  <course>86.15</course>
  <speed>0.0</speed>
  <fix>3d</fix>
</trkpt>
<trkpt lat="40.0728585" lon="-105.2306047">
  <ele>1586.1</ele>
  <time>2026-08-28T19:07:38Z</time>
  <course>69.34</course>
  <speed>0.01</speed>
  <fix>3d</fix>
</trkpt>
<trkpt lat="40.0728585" lon="-105.2306048">
  <ele>1586.02</ele>
  <time>2026-08-28T19:07:38Z</time>
  <course>86.15</course>
  <speed>0.0</speed>
  <fix>3d</fix>
</trkpt>
<trkpt lat="40.0728585" lon="-105.2306047">
  <ele>1586.1</ele>
  <time>2026-08-28T19:07:38Z</time>
  <course>69.36</course>
  <speed>0.01</speed>
  <fix>3d</fix>
</trkpt>
<trkpt lat="40.0728585" lon="-105.2306048">
  <ele>1586.02</ele>
  <time>2026-08-28T19:07:38Z</time>
  <course>86.15</course>
  <speed>0.0</speed>
  <fix>3d</fix>
</trkpt>
<trkpt lat="40.0728585" lon="-105.2306047">
  <ele>1586.1</ele>
  <time>2026-08-28T19:07:38Z</time>
  <course>69.39</course>
  <speed>0.01</speed>
  <fix>3d</fix>
</trkpt>
<trkpt lat="40.0728585" lon="-105.2306048">
  <ele>1586.02</ele>
  <time>2026-08-28T19:07:38Z</time>
  <course>86.15</course>
  <speed>0.0</speed>
  <fix>3d</fix>
</trkpt>
<trkpt lat="40.0728585" lon="-105.2306047">
  <ele>1586.09</ele>
  <time>2026-08-28T19:07:38Z</time>
  <course>69.41</course>
  <speed>0.01</speed>
  <fix>3d</fix>
</trkpt>
<trkpt lat="40.0728585" lon="-105.2306048">
  <ele>1586.02</ele>
  <time>2026-08-28T19:07:38Z</time>
  <course>86.15</course>
  <speed>0.0</speed>
  <fix>3d</fix>
</trkpt>
<trkpt lat="40.0728585" lon="-105.2306047">
  <ele>1586.09</ele>
  <time>2026-08-28T19:07:38Z</time>
  <course>69.43</course>
  <speed>0.01</speed>
  <fix>3d</fix>
</trkpt>
<trkpt lat="40.0728585" lon="-105.2306048">
  <ele>1586.02</ele>
  <time>2026-08-28T19:07:38Z</time>
  <course>86.15</course>
  <speed>0.0</speed>
  <fix>3d</fix>
</trkpt>
<trkpt lat="40.0728585" lon="-105.2306047">
  <ele>1586.09</ele>
  <time>2026-08-28T19:07:38Z</time>
  <course>69.46</course>
  <speed>0.01</speed>
  <fix>3d</fix>
</trkpt>
<trkpt lat="40.0728585" lon="-105.2306048">
  <ele>1586.02</ele>
  <time>2026-08-28T19:07:38Z</time>
  <course>86.15</course>
  <speed>0.0</speed>
  <fix>3d</fix>
</trkpt>
<trkpt lat="40.0728585" lon="-105.2306047">
  <ele>1586.09</ele>
  <time>2026-08-28T19:07:38Z</time>
  <course>69.48</course>
  <speed>0.01</speed>
  <fix>3d</fix>
</trkpt>
<trkpt lat="40.0728585" lon="-105.2306048">
  <ele>1586.02</ele>
  <time>2026-08-28T19:07:38Z</time>
  <course>86.15</course>
  <speed>0.0</speed>
  <fix>3d</fix>
</trkpt>
<trkpt lat="40.0728585" lon="-105.2306047">
  <ele>1586.09</ele>
  <time>2026-08-28T19:07:38Z</time>
  <course>69.49</course>
  <speed>0.01</speed>
  <fix>3d</fix>
</trkpt>
<trkpt lat="40.0728585" lon="-105.2306048">
  <ele>1586.02</ele>
  <time>2026-08-28T19:07:38Z</time>
  <course>86.15</course>
  <speed>0.0</speed>
  <fix>3d</fix>
</trkpt>
<trkpt lat="40.0728585" lon="-105.2306047">
  <ele>1586.09</ele>
  <time>2026-08-28T19:07:38Z</time>
  <course>69.51</course>
  <speed>0.01</speed>
  <fix>3d</fix>
</trkpt>
<trkpt lat="40.0728585" lon="-105.2306048">
  <ele>1586.02</ele>
  <time>2026-08-28T19:07:38Z</time>
  <course>86.15</course>
  <speed>0.0</speed>
  <fix>3d</fix>
</trkpt>
<trkpt lat="40.0728585" lon="-105.2306047">
  <ele>1586.09</ele>
  <time>2026-08-28T19:07:38Z</time>
  <course>69.53</course>
  <speed>0.01</speed>
  <fix>3d</fix>
</trkpt>
<trkpt lat="40.0728585" lon="-105.2306048">
  <ele>1586.02</ele>
  <time>2026-08-28T19:07:38Z</time>
  <course>86.15</course>
  <speed>0.0</speed>
  <fix>3d</fix>
</trkpt>
<trkpt lat="40.0728585" lon="-105.2306047">
  <ele>1586.09</ele>
  <time>2026-08-28T19:07:38Z</time>
  <course>69.55</course>
  <speed>0.01</speed>
  <fix>3d</fix>
</trkpt>
<trkpt lat="40.0728585" lon="-105.2306048">
  <ele>1586.02</ele>
  <time>2026-08-28T19:07:38Z</time>
  <course>86.15</course>
  <speed>0.0</speed>
  <fix>3d</fix>
</trkpt>
<trkpt lat="40.0728585" lon="-105.2306047">
  <ele>1586.09</ele>
  <time>2026-08-28T19:07:38Z</time>
  <course>69.56</course>
  <speed>0.01</speed>
  <fix>3d</fix>
</trkpt>
<trkpt lat="40.0728585" lon="-105.2306048">
  <ele>1586.02</ele>
  <time>2026-08-28T19:07:38Z</time>
  <course>86.15</course>
  <speed>0.0</speed>
  <fix>3d</fix>
</trkpt>
<trkpt lat="40.0728585" lon="-105.2306047">
  <ele>1586.09</ele>
  <time>2026-08-28T19:07:38Z</time>
  <course>69.58</course>
  <speed>0.01</speed>
  <fix>3d</fix>
</trkpt>
<trkpt lat="40.0728585" lon="-105.2306048">
  <ele>1586.02</ele>
  <time>2026-08-28T19:07:38Z</time>
  <course>86.15</course>
  <speed>0.0</speed>
  <fix>3d</fix>
</trkpt>
<trkpt lat="40.0728585" lon="-105.2306047">
  <ele>1586.08</ele>
  <time>2026-08-28T19:07:38Z</time>
  <course>69.59</course>
  <speed>0.01</speed>
  <fix>3d</fix>
</trkpt>
<trkpt lat="40.0728585" lon="-105.2306048">
  <ele>1586.02</ele>
  <time>2026-08-28T19:07:38Z</time>
  <course>86.15</course>
  <speed>0.0</speed>
  <fix>3d</fix>
</trkpt>
<trkpt lat="40.0728585" lon="-105.2306047">
  <ele>1586.09</ele>
  <time>2026-08-28T19:07:38Z</time>
  <course>69.61</course>
  <speed>0.01</speed>
  <fix>3d</fix>
</trkpt>
<trkpt lat="40.0728585" lon="-105.2306048">
  <ele>1586.02</ele>
  <time>2026-08-28T19:07:38Z</time>
  <course>86.15</course>
  <speed>0.0</speed>
  <fix>3d</fix>
</trkpt>
<trkpt lat="40.0728585" lon="-105.2306047">
  <ele>1586.08</ele>
  <time>2026-08-28T19:07:38Z</time>
  <course>69.62</course>
  <speed>0.01</speed>
  <fix>3d</fix>
</trkpt>
<trkpt lat="40.0728585" lon="-105.2306048">
  <ele>1586.02</ele>
  <time>2026-08-28T19:07:38Z</time>
  <course>86.15</course>
  <speed>0.0</speed>
  <fix>3d</fix>
</trkpt>
<trkpt lat="40.0728586" lon="-105.2306047">
  <ele>1586.09</ele>
  <time>2026-08-28T19:07:38Z</time>
  <course>69.64</course>
  <speed>0.01</speed>
  <fix>3d</fix>
</trkpt>
<trkpt lat="40.0728585" lon="-105.2306048">
  <ele>1586.02</ele>
  <time>2026-08-28T19:07:38Z</time>
  <course>86.15</course>
  <speed>0.0</speed>
  <fix>3d</fix>
</trkpt>
<trkpt lat="40.0728586" lon="-105.2306047">
  <ele>1586.09</ele>
  <time>2026-08-28T19:07:38Z</time>
  <course>69.65</course>
  <speed>0.01</speed>
  <fix>3d</fix>
</trkpt>
<trkpt lat="40.0728585" lon="-105.2306048">
  <ele>1586.02</ele>
  <time>2026-08-28T19:07:38Z</time>
  <course>86.15</course>
  <speed>0.0</speed>
  <fix>3d</fix>
</trkpt>
<trkpt lat="40.0728586" lon="-105.2306047">
  <ele>1586.09</ele>
  <time>2026-08-28T19:07:38Z</time>
  <course>69.66</course>
  <speed>0.01</speed>
  <fix>3d</fix>
</trkpt>
<trkpt lat="40.0728585" lon="-105.2306048">
  <ele>1586.02</ele>
  <time>2026-08-28T19:07:38Z</time>
  <course>86.15</course>
  <speed>0.0</speed>
  <fix>3d</fix>
</trkpt>
<trkpt lat="40.0728586" lon="-105.2306047">
  <ele>1586.09</ele>
  <time>2026-08-28T19:07:38Z</time>
  <course>69.68</course>
  <speed>0.01</speed>
  <fix>3d</fix>
</trkpt>
<trkpt lat="40.0728585" lon="-105.2306048">
  <ele>1586.02</ele>
  <time>2026-08-28T19:07:38Z</time>
  <course>86.15</course>
  <speed>0.0</speed>
  <fix>3d</fix>
</trkpt>
<trkpt lat="40.0728586" lon="-105.2306047">
  <ele>1586.09</ele>
  <time>2026-08-28T19:07:38Z</time>
  <course>69.69</course>
  <speed>0.01</speed>
  <fix>3d</fix>
</trkpt>
<trkpt lat="40.0728585" lon="-105.2306048">
  <ele>1586.02</ele>
  <time>2026-08-28T19:07:38Z</time>
  <course>86.15</course>
  <speed>0.0</speed>
  <fix>3d</fix>
</trkpt>
<trkpt lat="40.0728586" lon="-105.2306047">
  <ele>1586.09</ele>
  <time>2026-08-28T19:07:38Z</time>
  <course>69.7</course>
  <speed>0.01</speed>
  <fix>3d</fix>
</trkpt>
<trkpt lat="40.0728585" lon="-105.2306048">
  <ele>1586.02</ele>
  <time>2026-08-28T19:07:38Z</time>
  <course>86.15</course>
  <speed>0.0</speed>
  <fix>3d</fix>
</trkpt>
<trkpt lat="40.0728586" lon="-105.2306047">
  <ele>1586.09</ele>
  <time>2026-08-28T19:07:38Z</time>
  <course>69.71</course>
  <speed>0.01</speed>
  <fix>3d</fix>
</trkpt>
<trkpt lat="40.0728585" lon="-105.2306048">
  <ele>1586.02</ele>
  <time>2026-08-28T19:07:38Z</time>
  <course>86.15</course>
  <speed>0.0</speed>
  <fix>3d</fix>
</trkpt>
<trkpt lat="40.0728586" lon="-105.2306047">
  <ele>1586.1</ele>
  <time>2026-08-28T19:07:39Z</time>
  <course>69.73</course>
  <speed>0.01</speed>
  <fix>3d</fix>
</trkpt>
<trkpt lat="40.0728585" lon="-105.2306048">
  <ele>1586.02</ele>
  <time>2026-08-28T19:07:39Z</time>
  <course>25.49</course>
  <speed>0.0</speed>
  <fix>3d</fix>
</trkpt>
<trkpt lat="40.0728586" lon="-105.2306047">
  <ele>1586.1</ele>
  <time>2026-08-28T19:07:39Z</time>
  <course>69.74</course>
  <speed>0.01</speed>
  <fix>3d</fix>
</trkpt>
<trkpt lat="40.0728585" lon="-105.2306048">
  <ele>1586.02</ele>
  <time>2026-08-28T19:07:39Z</time>
  <course>72.51</course>
  <speed>0.0</speed>
  <fix>3d</fix>
</trkpt>
<trkpt lat="40.0728586" lon="-105.2306047">
  <ele>1586.1</ele>
  <time>2026-08-28T19:07:39Z</time>
  <course>69.75</course>
  <speed>0.01</speed>
  <fix>3d</fix>
</trkpt>
<trkpt lat="40.0728585" lon="-105.2306048">
  <ele>1586.02</ele>
  <time>2026-08-28T19:07:39Z</time>
  <course>85.59</course>
  <speed>0.0</speed>
  <fix>3d</fix>
</trkpt>
<trkpt lat="40.0728586" lon="-105.2306047">
  <ele>1586.11</ele>
  <time>2026-08-28T19:07:39Z</time>
  <course>69.76</course>
  <speed>0.01</speed>
  <fix>3d</fix>
</trkpt>
<trkpt lat="40.0728585" lon="-105.2306048">
  <ele>1586.02</ele>
  <time>2026-08-28T19:07:39Z</time>
  <course>82.14</course>
  <speed>0.0</speed>
  <fix>3d</fix>
</trkpt>
<trkpt lat="40.0728586" lon="-105.2306047">
  <ele>1586.11</ele>
  <time>2026-08-28T19:07:39Z</time>
  <course>69.77</course>
  <speed>0.01</speed>
  <fix>3d</fix>
</trkpt>
<trkpt lat="40.0728585" lon="-105.2306048">
  <ele>1586.02</ele>
  <time>2026-08-28T19:07:39Z</time>
  <course>221.36</course>
  <speed>0.0</speed>
  <fix>3d</fix>
</trkpt>
<trkpt lat="40.0728586" lon="-105.2306047">
  <ele>1586.11</ele>
  <time>2026-08-28T19:07:39Z</time>
  <course>69.78</course>
  <speed>0.01</speed>
  <fix>3d</fix>
</trkpt>
<trkpt lat="40.0728585" lon="-105.2306048">
  <ele>1586.02</ele>
  <time>2026-08-28T19:07:39Z</time>
  <course>208.79</course>
  <speed>0.0</speed>
  <fix>3d</fix>
</trkpt>
<trkpt lat="40.0728586" lon="-105.2306047">
  <ele>1586.11</ele>
  <time>2026-08-28T19:07:39Z</time>
  <course>69.79</course>
  <speed>0.01</speed>
  <fix>3d</fix>
</trkpt>
<trkpt lat="40.0728585" lon="-105.2306048">
  <ele>1586.02</ele>
  <time>2026-08-28T19:07:39Z</time>
  <course>194.8</course>
  <speed>0.0</speed>
  <fix>3d</fix>
</trkpt>
<trkpt lat="40.0728586" lon="-105.2306047">
  <ele>1586.11</ele>
  <time>2026-08-28T19:07:39Z</time>
  <course>69.8</course>
  <speed>0.01</speed>
  <fix>3d</fix>
</trkpt>
<trkpt lat="40.0728585" lon="-105.2306048">
  <ele>1586.02</ele>
  <time>2026-08-28T19:07:39Z</time>
  <course>133.26</course>
  <speed>0.0</speed>
  <fix>3d</fix>
</trkpt>
<trkpt lat="40.0728586" lon="-105.2306047">
  <ele>1586.11</ele>
  <time>2026-08-28T19:07:39Z</time>
  <course>69.81</course>
  <speed>0.01</speed>
  <fix>3d</fix>
</trkpt>
<trkpt lat="40.0728585" lon="-105.2306048">
  <ele>1586.02</ele>
  <time>2026-08-28T19:07:39Z</time>
  <course>53.5</course>
  <speed>0.0</speed>
  <fix>3d</fix>
</trkpt>
<trkpt lat="40.0728586" lon="-105.2306047">
  <ele>1586.11</ele>
  <time>2026-08-28T19:07:39Z</time>
  <course>69.82</course>
  <speed>0.01</speed>
  <fix>3d</fix>
</trkpt>
<trkpt lat="40.0728585" lon="-105.2306048">
  <ele>1586.02</ele>
  <time>2026-08-28T19:07:39Z</time>
  <course>168.11</course>
  <speed>0.0</speed>
  <fix>3d</fix>
</trkpt>
<trkpt lat="40.0728586" lon="-105.2306047">
  <ele>1586.11</ele>
  <time>2026-08-28T19:07:39Z</time>
  <course>69.83</course>
  <speed>0.01</speed>
  <fix>3d</fix>
</trkpt>
<trkpt lat="40.0728585" lon="-105.2306048">
  <ele>1586.02</ele>
  <time>2026-08-28T19:07:39Z</time>
  <course>158.77</course>
  <speed>0.0</speed>
  <fix>3d</fix>
</trkpt>
<trkpt lat="40.0728586" lon="-105.2306047">
  <ele>1586.11</ele>
  <time>2026-08-28T19:07:39Z</time>
  <course>69.84</course>
  <speed>0.01</speed>
  <fix>3d</fix>
</trkpt>
<trkpt lat="40.0728585" lon="-105.2306048">
  <ele>1586.02</ele>
  <time>2026-08-28T19:07:39Z</time>
  <course>147.44</course>
  <speed>0.0</speed>
  <fix>3d</fix>
</trkpt>
<trkpt lat="40.0728586" lon="-105.2306047">
  <ele>1586.11</ele>
  <time>2026-08-28T19:07:39Z</time>
  <course>69.85</course>
  <speed>0.01</speed>
  <fix>3d</fix>
</trkpt>
<trkpt lat="40.0728585" lon="-105.2306048">
  <ele>1586.02</ele>
  <time>2026-08-28T19:07:39Z</time>
  <course>149.94</course>
  <speed>0.0</speed>
  <fix>3d</fix>
</trkpt>
<trkpt lat="40.0728586" lon="-105.2306047">
  <ele>1586.11</ele>
  <time>2026-08-28T19:07:39Z</time>
  <course>69.85</course>
  <speed>0.01</speed>
  <fix>3d</fix>
</trkpt>
<trkpt lat="40.0728585" lon="-105.2306048">
  <ele>1586.02</ele>
  <time>2026-08-28T19:07:39Z</time>
  <course>151.33</course>
  <speed>0.0</speed>
  <fix>3d</fix>
</trkpt>
<trkpt lat="40.0728586" lon="-105.2306047">
  <ele>1586.11</ele>
  <time>2026-08-28T19:07:39Z</time>
  <course>69.86</course>
  <speed>0.01</speed>
  <fix>3d</fix>
</trkpt>
<trkpt lat="40.0728585" lon="-105.2306048">
  <ele>1586.02</ele>
  <time>2026-08-28T19:07:39Z</time>
  <course>150.72</course>
  <speed>0.0</speed>
  <fix>3d</fix>
</trkpt>
<trkpt lat="40.0728586" lon="-105.2306047">
  <ele>1586.11</ele>
  <time>2026-08-28T19:07:39Z</time>
  <course>69.86</course>
  <speed>0.01</speed>
  <fix>3d</fix>
</trkpt>
<trkpt lat="40.0728585" lon="-105.2306048">
  <ele>1586.02</ele>
  <time>2026-08-28T19:07:39Z</time>
  <course>150.48</course>
  <speed>0.0</speed>
  <fix>3d</fix>
</trkpt>
<trkpt lat="40.0728586" lon="-105.2306047">
  <ele>1586.11</ele>
  <time>2026-08-28T19:07:39Z</time>
  <course>69.87</course>
  <speed>0.01</speed>
  <fix>3d</fix>
</trkpt>
<trkpt lat="40.0728585" lon="-105.2306048">
  <ele>1586.02</ele>
  <time>2026-08-28T19:07:39Z</time>
  <course>150.45</course>
  <speed>0.0</speed>
  <fix>3d</fix>
</trkpt>
<trkpt lat="40.0728586" lon="-105.2306047">
  <ele>1586.11</ele>
  <time>2026-08-28T19:07:39Z</time>
  <course>69.87</course>
  <speed>0.01</speed>
  <fix>3d</fix>
</trkpt>
<trkpt lat="40.0728585" lon="-105.2306048">
  <ele>1586.02</ele>
  <time>2026-08-28T19:07:39Z</time>
  <course>150.36</course>
  <speed>0.0</speed>
  <fix>3d</fix>
</trkpt>
<trkpt lat="40.0728586" lon="-105.2306047">
  <ele>1586.11</ele>
  <time>2026-08-28T19:07:39Z</time>
  <course>69.86</course>
  <speed>0.01</speed>
  <fix>3d</fix>
</trkpt>
<trkpt lat="40.0728585" lon="-105.2306048">
  <ele>1586.02</ele>
  <time>2026-08-28T19:07:39Z</time>
  <course>150.25</course>
  <speed>0.0</speed>
  <fix>3d</fix>
</trkpt>
<trkpt lat="40.0728586" lon="-105.2306047">
  <ele>1586.11</ele>
  <time>2026-08-28T19:07:39Z</time>
  <course>69.86</course>
  <speed>0.01</speed>
  <fix>3d</fix>
</trkpt>
<trkpt lat="40.0728585" lon="-105.2306048">
  <ele>1586.02</ele>
  <time>2026-08-28T19:07:39Z</time>
  <course>150.14</course>
  <speed>0.0</speed>
  <fix>3d</fix>
</trkpt>
<trkpt lat="40.0728586" lon="-105.2306047">
  <ele>1586.11</ele>
  <time>2026-08-28T19:07:39Z</time>
  <course>69.86</course>
  <speed>0.01</speed>
  <fix>3d</fix>
</trkpt>
<trkpt lat="40.0728585" lon="-105.2306048">
  <ele>1586.02</ele>
  <time>2026-08-28T19:07:39Z</time>
  <course>150.03</course>
  <speed>0.0</speed>
  <fix>3d</fix>
</trkpt>
<trkpt lat="40.0728586" lon="-105.2306047">
  <ele>1586.1</ele>
  <time>2026-08-28T19:07:39Z</time>
  <course>69.85</course>
  <speed>0.01</speed>
  <fix>3d</fix>
</trkpt>
<trkpt lat="40.0728585" lon="-105.2306048">
  <ele>1586.02</ele>
  <time>2026-08-28T19:07:39Z</time>
  <course>149.93</course>
  <speed>0.0</speed>
  <fix>3d</fix>
</trkpt>
<trkpt lat="40.0728586" lon="-105.2306047">
  <ele>1586.1</ele>
  <time>2026-08-28T19:07:39Z</time>
  <course>69.84</course>
  <speed>0.01</speed>
  <fix>3d</fix>
</trkpt>
<trkpt lat="40.0728585" lon="-105.2306048">
  <ele>1586.02</ele>
  <time>2026-08-28T19:07:39Z</time>
  <course>149.82</course>
  <speed>0.0</speed>
  <fix>3d</fix>
</trkpt>
<trkpt lat="40.0728586" lon="-105.2306047">
  <ele>1586.1</ele>
  <time>2026-08-28T19:07:39Z</time>
  <course>69.83</course>
  <speed>0.01</speed>
  <fix>3d</fix>
</trkpt>
<trkpt lat="40.0728585" lon="-105.2306048">
  <ele>1586.02</ele>
  <time>2026-08-28T19:07:39Z</time>
  <course>149.7</course>
  <speed>0.0</speed>
  <fix>3d</fix>
</trkpt>
<trkpt lat="40.0728586" lon="-105.2306047">
  <ele>1586.1</ele>
  <time>2026-08-28T19:07:39Z</time>
  <course>69.82</course>
  <speed>0.01</speed>
  <fix>3d</fix>
</trkpt>
<trkpt lat="40.0728585" lon="-105.2306048">
  <ele>1586.02</ele>
  <time>2026-08-28T19:07:39Z</time>
  <course>149.59</course>
  <speed>0.0</speed>
  <fix>3d</fix>
</trkpt>
<trkpt lat="40.0728586" lon="-105.2306047">
  <ele>1586.1</ele>
  <time>2026-08-28T19:07:39Z</time>
  <course>69.81</course>
  <speed>0.01</speed>
  <fix>3d</fix>
</trkpt>
<trkpt lat="40.0728585" lon="-105.2306048">
  <ele>1586.02</ele>
  <time>2026-08-28T19:07:39Z</time>
  <course>157.08</course>
  <speed>0.0</speed>
  <fix>3d</fix>
</trkpt>
<trkpt lat="40.0728586" lon="-105.2306047">
  <ele>1586.1</ele>
  <time>2026-08-28T19:07:39Z</time>
  <course>69.79</course>
  <speed>0.01</speed>
  <fix>3d</fix>
</trkpt>
<trkpt lat="40.0728585" lon="-105.2306048">
  <ele>1586.02</ele>
  <time>2026-08-28T19:07:39Z</time>
  <course>148.69</course>
  <speed>0.0</speed>
  <fix>3d</fix>
</trkpt>
<trkpt lat="40.0728586" lon="-105.2306047">
  <ele>1586.1</ele>
  <time>2026-08-28T19:07:39Z</time>
  <course>69.77</course>
  <speed>0.01</speed>
  <fix>3d</fix>
</trkpt>
<trkpt lat="40.0728585" lon="-105.2306048">
  <ele>1586.02</ele>
  <time>2026-08-28T19:07:39Z</time>
  <course>55.16</course>
  <speed>0.0</speed>
  <fix>3d</fix>
</trkpt>
<trkpt lat="40.0728586" lon="-105.2306047">
  <ele>1586.1</ele>
  <time>2026-08-28T19:07:39Z</time>
  <course>69.76</course>
  <speed>0.01</speed>
  <fix>3d</fix>
</trkpt>
<trkpt lat="40.0728585" lon="-105.2306048">
  <ele>1586.02</ele>
  <time>2026-08-28T19:07:39Z</time>
  <course>310.46</course>
  <speed>0.0</speed>
  <fix>3d</fix>
</trkpt>
<trkpt lat="40.0728586" lon="-105.2306047">
  <ele>1586.1</ele>
  <time>2026-08-28T19:07:39Z</time>
  <course>69.74</course>
  <speed>0.01</speed>
  <fix>3d</fix>
</trkpt>
<trkpt lat="40.0728585" lon="-105.2306048">
  <ele>1586.02</ele>
  <time>2026-08-28T19:07:39Z</time>
  <course>159.41</course>
  <speed>0.0</speed>
  <fix>3d</fix>
</trkpt>
<trkpt lat="40.0728586" lon="-105.2306047">
  <ele>1586.09</ele>
  <time>2026-08-28T19:07:39Z</time>
  <course>69.71</course>
  <speed>0.01</speed>
  <fix>3d</fix>
</trkpt>
<trkpt lat="40.0728585" lon="-105.2306048">
  <ele>1586.02</ele>
  <time>2026-08-28T19:07:39Z</time>
  <course>335.92</course>
  <speed>0.0</speed>
  <fix>3d</fix>
</trkpt>
<trkpt lat="40.0728586" lon="-105.2306047">
  <ele>1586.09</ele>
  <time>2026-08-28T19:07:39Z</time>
  <course>69.69</course>
  <speed>0.01</speed>
  <fix>3d</fix>
</trkpt>
<trkpt lat="40.0728585" lon="-105.2306048">
  <ele>1586.02</ele>
  <time>2026-08-28T19:07:39Z</time>
  <course>334.82</course>
  <speed>0.0</speed>
  <fix>3d</fix>
</trkpt>
<trkpt lat="40.0728586" lon="-105.2306047">
  <ele>1586.09</ele>
  <time>2026-08-28T19:07:39Z</time>
  <course>69.67</course>
  <speed>0.01</speed>
  <fix>3d</fix>
</trkpt>
<trkpt lat="40.0728585" lon="-105.2306048">
  <ele>1586.02</ele>
  <time>2026-08-28T19:07:39Z</time>
  <course>334.94</course>
  <speed>0.0</speed>
  <fix>3d</fix>
</trkpt>
<trkpt lat="40.0728586" lon="-105.2306047">
  <ele>1586.09</ele>
  <time>2026-08-28T19:07:39Z</time>
  <course>69.64</course>
  <speed>0.01</speed>
  <fix>3d</fix>
</trkpt>
<trkpt lat="40.0728585" lon="-105.2306048">
  <ele>1586.02</ele>
  <time>2026-08-28T19:07:39Z</time>
  <course>134.03</course>
  <speed>0.0</speed>
  <fix>3d</fix>
</trkpt>
<trkpt lat="40.0728586" lon="-105.2306047">
  <ele>1586.09</ele>
  <time>2026-08-28T19:07:39Z</time>
  <course>69.61</course>
  <speed>0.01</speed>
  <fix>3d</fix>
</trkpt>
<trkpt lat="40.0728585" lon="-105.2306048">
  <ele>1586.02</ele>
  <time>2026-08-28T19:07:39Z</time>
  <course>16.76</course>
  <speed>0.0</speed>
  <fix>3d</fix>
</trkpt>
<trkpt lat="40.0728586" lon="-105.2306047">
  <ele>1586.09</ele>
  <time>2026-08-28T19:07:39Z</time>
  <course>69.59</course>
  <speed>0.01</speed>
  <fix>3d</fix>
</trkpt>
<trkpt lat="40.0728585" lon="-105.2306048">
  <ele>1586.02</ele>
  <time>2026-08-28T19:07:39Z</time>
  <course>358.87</course>
  <speed>0.0</speed>
  <fix>3d</fix>
</trkpt>
<trkpt lat="40.0728586" lon="-105.2306047">
  <ele>1586.09</ele>
  <time>2026-08-28T19:07:39Z</time>
  <course>69.56</course>
  <speed>0.01</speed>
  <fix>3d</fix>
</trkpt>
<trkpt lat="40.0728585" lon="-105.2306048">
  <ele>1586.02</ele>
  <time>2026-08-28T19:07:39Z</time>
  <course>322.31</course>
  <speed>0.0</speed>
  <fix>3d</fix>
</trkpt>
<trkpt lat="40.0728586" lon="-105.2306047">
  <ele>1586.09</ele>
  <time>2026-08-28T19:07:39Z</time>
  <course>69.52</course>
  <speed>0.01</speed>
  <fix>3d</fix>
</trkpt>
<trkpt lat="40.0728585" lon="-105.2306048">
  <ele>1586.02</ele>
  <time>2026-08-28T19:07:39Z</time>
  <course>331.1</course>
  <speed>0.0</speed>
  <fix>3d</fix>
</trkpt>
<trkpt lat="40.0728586" lon="-105.2306047">
  <ele>1586.1</ele>
  <time>2026-08-28T19:07:39Z</time>
  <course>69.49</course>
  <speed>0.01</speed>
  <fix>3d</fix>
</trkpt>
<trkpt lat="40.0728585" lon="-105.2306048">
  <ele>1586.02</ele>
  <time>2026-08-28T19:07:39Z</time>
  <course>335.99</course>
  <speed>0.0</speed>
  <fix>3d</fix>
</trkpt>
<trkpt lat="40.0728586" lon="-105.2306047">
  <ele>1586.1</ele>
  <time>2026-08-28T19:07:39Z</time>
  <course>69.46</course>
  <speed>0.01</speed>
  <fix>3d</fix>
</trkpt>
<trkpt lat="40.0728585" lon="-105.2306048">
  <ele>1586.02</ele>
  <time>2026-08-28T19:07:39Z</time>
  <course>335.93</course>
  <speed>0.0</speed>
  <fix>3d</fix>
</trkpt>
<trkpt lat="40.0728586" lon="-105.2306047">
  <ele>1586.1</ele>
  <time>2026-08-28T19:07:39Z</time>
  <course>69.42</course>
  <speed>0.01</speed>
  <fix>3d</fix>
</trkpt>
<trkpt lat="40.0728585" lon="-105.2306048">
  <ele>1586.02</ele>
  <time>2026-08-28T19:07:39Z</time>
  <course>334.91</course>
  <speed>0.0</speed>
  <fix>3d</fix>
</trkpt>
<trkpt lat="40.0728586" lon="-105.2306047">
  <ele>1586.1</ele>
  <time>2026-08-28T19:07:39Z</time>
  <course>69.39</course>
  <speed>0.01</speed>
  <fix>3d</fix>
</trkpt>
<trkpt lat="40.0728585" lon="-105.2306048">
  <ele>1586.02</ele>
  <time>2026-08-28T19:07:39Z</time>
  <course>334.7</course>
  <speed>0.0</speed>
  <fix>3d</fix>
</trkpt>
<trkpt lat="40.0728586" lon="-105.2306047">
  <ele>1586.1</ele>
  <time>2026-08-28T19:07:39Z</time>
  <course>69.35</course>
  <speed>0.01</speed>
  <fix>3d</fix>
</trkpt>
<trkpt lat="40.0728585" lon="-105.2306048">
  <ele>1586.02</ele>
  <time>2026-08-28T19:07:39Z</time>
  <course>335.38</course>
  <speed>0.0</speed>
  <fix>3d</fix>
</trkpt>
<trkpt lat="40.0728586" lon="-105.2306047">
  <ele>1586.09</ele>
  <time>2026-08-28T19:07:39Z</time>
  <course>69.31</course>
  <speed>0.01</speed>
  <fix>3d</fix>
</trkpt>
<trkpt lat="40.0728585" lon="-105.2306048">
  <ele>1586.02</ele>
  <time>2026-08-28T19:07:39Z</time>
  <course>337.64</course>
  <speed>0.0</speed>
  <fix>3d</fix>
</trkpt>
<trkpt lat="40.0728586" lon="-105.2306047">
  <ele>1586.09</ele>
  <time>2026-08-28T19:07:39Z</time>
  <course>69.27</course>
  <speed>0.02</speed>
  <fix>3d</fix>
</trkpt>
<trkpt lat="40.0728585" lon="-105.2306048">
  <ele>1586.02</ele>
  <time>2026-08-28T19:07:39Z</time>
  <course>339.6</course>
  <speed>0.0</speed>
  <fix>3d</fix>
</trkpt>
<trkpt lat="40.0728586" lon="-105.2306047">
  <ele>1586.09</ele>
  <time>2026-08-28T19:07:39Z</time>
  <course>69.23</course>
  <speed>0.02</speed>
  <fix>3d</fix>
</trkpt>
<trkpt lat="40.0728585" lon="-105.2306048">
  <ele>1586.02</ele>
  <time>2026-08-28T19:07:39Z</time>
  <course>336.85</course>
  <speed>0.0</speed>
  <fix>3d</fix>
</trkpt>
<trkpt lat="40.0728586" lon="-105.2306047">
  <ele>1586.09</ele>
  <time>2026-08-28T19:07:39Z</time>
  <course>69.19</course>
  <speed>0.02</speed>
  <fix>3d</fix>
</trkpt>
<trkpt lat="40.0728585" lon="-105.2306048">
  <ele>1586.02</ele>
  <time>2026-08-28T19:07:39Z</time>
  <course>333.47</course>
  <speed>0.0</speed>
  <fix>3d</fix>
</trkpt>
<trkpt lat="40.0728586" lon="-105.2306047">
  <ele>1586.09</ele>
  <time>2026-08-28T19:07:39Z</time>
  <course>69.14</course>
  <speed>0.02</speed>
  <fix>3d</fix>
</trkpt>
<trkpt lat="40.0728585" lon="-105.2306048">
  <ele>1586.02</ele>
  <time>2026-08-28T19:07:39Z</time>
  <course>334.2</course>
  <speed>0.0</speed>
  <fix>3d</fix>
</trkpt>
<trkpt lat="40.0728586" lon="-105.2306047">
  <ele>1586.09</ele>
  <time>2026-08-28T19:07:39Z</time>
  <course>69.1</course>
  <speed>0.02</speed>
  <fix>3d</fix>
</trkpt>
<trkpt lat="40.0728585" lon="-105.2306048">
  <ele>1586.02</ele>
  <time>2026-08-28T19:07:39Z</time>
  <course>334.26</course>
  <speed>0.0</speed>
  <fix>3d</fix>
</trkpt>
<trkpt lat="40.0728586" lon="-105.2306047">
  <ele>1586.09</ele>
  <time>2026-08-28T19:07:39Z</time>
  <course>69.05</course>
  <speed>0.02</speed>
  <fix>3d</fix>
</trkpt>
<trkpt lat="40.0728585" lon="-105.2306048">
  <ele>1586.02</ele>
  <time>2026-08-28T19:07:39Z</time>
  <course>334.02</course>
  <speed>0.0</speed>
  <fix>3d</fix>
</trkpt>
<trkpt lat="40.0728586" lon="-105.2306047">
  <ele>1586.09</ele>
  <time>2026-08-28T19:07:39Z</time>
  <course>69.01</course>
  <speed>0.02</speed>
  <fix>3d</fix>
</trkpt>
<trkpt lat="40.0728585" lon="-105.2306048">
  <ele>1586.02</ele>
  <time>2026-08-28T19:07:39Z</time>
  <course>333.84</course>
  <speed>0.0</speed>
  <fix>3d</fix>
</trkpt>
<trkpt lat="40.0728586" lon="-105.2306047">
  <ele>1586.09</ele>
  <time>2026-08-28T19:07:39Z</time>
  <course>68.96</course>
  <speed>0.02</speed>
  <fix>3d</fix>
</trkpt>
<trkpt lat="40.0728585" lon="-105.2306048">
  <ele>1586.02</ele>
  <time>2026-08-28T19:07:39Z</time>
  <course>333.77</course>
  <speed>0.0</speed>
  <fix>3d</fix>
</trkpt>
<trkpt lat="40.0728586" lon="-105.2306047">
  <ele>1586.1</ele>
  <time>2026-08-28T19:07:39Z</time>
  <course>68.91</course>
  <speed>0.02</speed>
  <fix>3d</fix>
</trkpt>
<trkpt lat="40.0728585" lon="-105.2306048">
  <ele>1586.02</ele>
  <time>2026-08-28T19:07:39Z</time>
  <course>333.63</course>
  <speed>0.0</speed>
  <fix>3d</fix>
</trkpt>
<trkpt lat="40.0728586" lon="-105.2306047">
  <ele>1586.1</ele>
  <time>2026-08-28T19:07:39Z</time>
  <course>68.87</course>
  <speed>0.02</speed>
  <fix>3d</fix>
</trkpt>
<trkpt lat="40.0728585" lon="-105.2306048">
  <ele>1586.02</ele>
  <time>2026-08-28T19:07:39Z</time>
  <course>320.28</course>
  <speed>0.0</speed>
  <fix>3d</fix>
</trkpt>
<trkpt lat="40.0728586" lon="-105.2306047">
  <ele>1586.1</ele>
  <time>2026-08-28T19:07:39Z</time>
  <course>68.82</course>
  <speed>0.02</speed>
  <fix>3d</fix>
</trkpt>
<trkpt lat="40.0728585" lon="-105.2306048">
  <ele>1586.02</ele>
  <time>2026-08-28T19:07:39Z</time>
  <course>319.53</course>
  <speed>0.0</speed>
  <fix>3d</fix>
</trkpt>
<trkpt lat="40.0728586" lon="-105.2306047">
  <ele>1586.1</ele>
  <time>2026-08-28T19:07:39Z</time>
  <course>68.77</course>
  <speed>0.02</speed>
  <fix>3d</fix>
</trkpt>
<trkpt lat="40.0728585" lon="-105.2306048">
  <ele>1586.02</ele>
  <time>2026-08-28T19:07:39Z</time>
  <course>335.94</course>
  <speed>0.0</speed>
  <fix>3d</fix>
</trkpt>
<trkpt lat="40.0728586" lon="-105.2306047">
  <ele>1586.11</ele>
  <time>2026-08-28T19:07:39Z</time>
  <course>68.73</course>
  <speed>0.02</speed>
  <fix>3d</fix>
</trkpt>
<trkpt lat="40.0728585" lon="-105.2306048">
  <ele>1586.02</ele>
  <time>2026-08-28T19:07:39Z</time>
  <course>334.16</course>
  <speed>0.0</speed>
  <fix>3d</fix>
</trkpt>
<trkpt lat="40.0728586" lon="-105.2306047">
  <ele>1586.11</ele>
  <time>2026-08-28T19:07:39Z</time>
  <course>68.68</course>
  <speed>0.02</speed>
  <fix>3d</fix>
</trkpt>
<trkpt lat="40.0728585" lon="-105.2306048">
  <ele>1586.02</ele>
  <time>2026-08-28T19:07:39Z</time>
  <course>332.35</course>
  <speed>0.0</speed>
  <fix>3d</fix>
</trkpt>
<trkpt lat="40.0728586" lon="-105.2306047">
  <ele>1586.11</ele>
  <time>2026-08-28T19:07:39Z</time>
  <course>68.64</course>
  <speed>0.02</speed>
  <fix>3d</fix>
</trkpt>
<trkpt lat="40.0728585" lon="-105.2306048">
  <ele>1586.02</ele>
  <time>2026-08-28T19:07:39Z</time>
  <course>332.54</course>
  <speed>0.0</speed>
  <fix>3d</fix>
</trkpt>
<trkpt lat="40.0728586" lon="-105.2306047">
  <ele>1586.11</ele>
  <time>2026-08-28T19:07:39Z</time>
  <course>68.59</course>
  <speed>0.02</speed>
  <fix>3d</fix>
</trkpt>
<trkpt lat="40.0728585" lon="-105.2306048">
  <ele>1586.02</ele>
  <time>2026-08-28T19:07:39Z</time>
  <course>332.77</course>
  <speed>0.0</speed>
  <fix>3d</fix>
</trkpt>
<trkpt lat="40.0728586" lon="-105.2306047">
  <ele>1586.11</ele>
  <time>2026-08-28T19:07:39Z</time>
  <course>68.55</course>
  <speed>0.02</speed>
  <fix>3d</fix>
</trkpt>
<trkpt lat="40.0728585" lon="-105.2306048">
  <ele>1586.02</ele>
  <time>2026-08-28T19:07:39Z</time>
  <course>332.14</course>
  <speed>0.0</speed>
  <fix>3d</fix>
</trkpt>
<trkpt lat="40.0728586" lon="-105.2306047">
  <ele>1586.12</ele>
  <time>2026-08-28T19:07:39Z</time>
  <course>68.51</course>
  <speed>0.02</speed>
  <fix>3d</fix>
</trkpt>
<trkpt lat="40.0728585" lon="-105.2306048">
  <ele>1586.02</ele>
  <time>2026-08-28T19:07:39Z</time>
  <course>332.24</course>
  <speed>0.0</speed>
  <fix>3d</fix>
</trkpt>
<trkpt lat="40.0728586" lon="-105.2306047">
  <ele>1586.12</ele>
  <time>2026-08-28T19:07:39Z</time>
  <course>68.47</course>
  <speed>0.02</speed>
  <fix>3d</fix>
</trkpt>
<trkpt lat="40.0728585" lon="-105.2306048">
  <ele>1586.02</ele>
  <time>2026-08-28T19:07:39Z</time>
  <course>331.84</course>
  <speed>0.0</speed>
  <fix>3d</fix>
</trkpt>
<trkpt lat="40.0728586" lon="-105.2306047">
  <ele>1586.12</ele>
  <time>2026-08-28T19:07:39Z</time>
  <course>68.42</course>
  <speed>0.02</speed>
  <fix>3d</fix>
</trkpt>
<trkpt lat="40.0728585" lon="-105.2306048">
  <ele>1586.02</ele>
  <time>2026-08-28T19:07:39Z</time>
  <course>333.93</course>
  <speed>0.0</speed>
  <fix>3d</fix>
</trkpt>
<trkpt lat="40.0728586" lon="-105.2306047">
  <ele>1586.12</ele>
  <time>2026-08-28T19:07:39Z</time>
  <course>68.38</course>
  <speed>0.02</speed>
  <fix>3d</fix>
</trkpt>
<trkpt lat="40.0728585" lon="-105.2306048">
  <ele>1586.02</ele>
  <time>2026-08-28T19:07:39Z</time>
  <course>334.39</course>
  <speed>0.0</speed>
  <fix>3d</fix>
</trkpt>
<trkpt lat="40.0728586" lon="-105.2306047">
  <ele>1586.12</ele>
  <time>2026-08-28T19:07:39Z</time>
  <course>68.34</course>
  <speed>0.02</speed>
  <fix>3d</fix>
</trkpt>
<trkpt lat="40.0728585" lon="-105.2306048">
  <ele>1586.02</ele>
  <time>2026-08-28T19:07:39Z</time>
  <course>331.95</course>
  <speed>0.0</speed>
  <fix>3d</fix>
</trkpt>
<trkpt lat="40.0728586" lon="-105.2306047">
  <ele>1586.12</ele>
  <time>2026-08-28T19:07:39Z</time>
  <course>68.31</course>
  <speed>0.02</speed>
  <fix>3d</fix>
</trkpt>
<trkpt lat="40.0728585" lon="-105.2306048">
  <ele>1586.02</ele>
  <time>2026-08-28T19:07:39Z</time>
  <course>332.2</course>
  <speed>0.0</speed>
  <fix>3d</fix>
</trkpt>
<trkpt lat="40.0728586" lon="-105.2306047">
  <ele>1586.12</ele>
  <time>2026-08-28T19:07:39Z</time>
  <course>68.27</course>
  <speed>0.02</speed>
  <fix>3d</fix>
</trkpt>
<trkpt lat="40.0728585" lon="-105.2306048">
  <ele>1586.02</ele>
  <time>2026-08-28T19:07:39Z</time>
  <course>332.28</course>
  <speed>0.0</speed>
  <fix>3d</fix>
</trkpt>
<trkpt lat="40.0728586" lon="-105.2306047">
  <ele>1586.11</ele>
  <time>2026-08-28T19:07:39Z</time>
  <course>68.23</course>
  <speed>0.02</speed>
  <fix>3d</fix>
</trkpt>
<trkpt lat="40.0728585" lon="-105.2306048">
  <ele>1586.02</ele>
  <time>2026-08-28T19:07:39Z</time>
  <course>332.28</course>
  <speed>0.0</speed>
  <fix>3d</fix>
</trkpt>
<trkpt lat="40.0728586" lon="-105.2306047">
  <ele>1586.12</ele>
  <time>2026-08-28T19:07:39Z</time>
  <course>68.2</course>
  <speed>0.02</speed>
  <fix>3d</fix>
</trkpt>
<trkpt lat="40.0728585" lon="-105.2306048">
  <ele>1586.02</ele>
  <time>2026-08-28T19:07:39Z</time>
  <course>332.27</course>
  <speed>0.0</speed>
  <fix>3d</fix>
</trkpt>
<trkpt lat="40.0728586" lon="-105.2306047">
  <ele>1586.12</ele>
  <time>2026-08-28T19:07:39Z</time>
  <course>68.16</course>
  <speed>0.02</speed>
  <fix>3d</fix>
</trkpt>
<trkpt lat="40.0728585" lon="-105.2306048">
  <ele>1586.02</ele>
  <time>2026-08-28T19:07:39Z</time>
  <course>339.09</course>
  <speed>0.0</speed>
  <fix>3d</fix>
</trkpt>
<trkpt lat="40.0728586" lon="-105.2306047">
  <ele>1586.12</ele>
  <time>2026-08-28T19:07:39Z</time>
  <course>68.13</course>
  <speed>0.02</speed>
  <fix>3d</fix>
</trkpt>
<trkpt lat="40.0728585" lon="-105.2306048">
  <ele>1586.02</ele>
  <time>2026-08-28T19:07:39Z</time>
  <course>345.76</course>
  <speed>0.0</speed>
  <fix>3d</fix>
</trkpt>
<trkpt lat="40.0728586" lon="-105.2306047">
  <ele>1586.12</ele>
  <time>2026-08-28T19:07:39Z</time>
  <course>68.09</course>
  <speed>0.02</speed>
  <fix>3d</fix>
</trkpt>
<trkpt lat="40.0728585" lon="-105.2306048">
  <ele>1586.02</ele>
  <time>2026-08-28T19:07:39Z</time>
  <course>335.96</course>
  <speed>0.0</speed>
  <fix>3d</fix>
</trkpt>
<trkpt lat="40.0728586" lon="-105.2306047">
  <ele>1586.12</ele>
  <time>2026-08-28T19:07:39Z</time>
  <course>68.06</course>
  <speed>0.02</speed>
  <fix>3d</fix>
</trkpt>
<trkpt lat="40.0728585" lon="-105.2306048">
  <ele>1586.02</ele>
  <time>2026-08-28T19:07:39Z</time>
  <course>329.78</course>
  <speed>0.0</speed>
  <fix>3d</fix>
</trkpt>
<trkpt lat="40.0728586" lon="-105.2306047">
  <ele>1586.12</ele>
  <time>2026-08-28T19:07:39Z</time>
  <course>68.03</course>
  <speed>0.02</speed>
  <fix>3d</fix>
</trkpt>
<trkpt lat="40.0728585" lon="-105.2306048">
  <ele>1586.02</ele>
  <time>2026-08-28T19:07:39Z</time>
  <course>332.0</course>
  <speed>0.0</speed>
  <fix>3d</fix>
</trkpt>
<trkpt lat="40.0728586" lon="-105.2306047">
  <ele>1586.12</ele>
  <time>2026-08-28T19:07:39Z</time>
  <course>67.99</course>
  <speed>0.02</speed>
  <fix>3d</fix>
</trkpt>
<trkpt lat="40.0728585" lon="-105.2306048">
  <ele>1586.02</ele>
  <time>2026-08-28T19:07:39Z</time>
  <course>332.53</course>
  <speed>0.0</speed>
  <fix>3d</fix>
</trkpt>
<trkpt lat="40.0728586" lon="-105.2306047">
  <ele>1586.12</ele>
  <time>2026-08-28T19:07:39Z</time>
  <course>67.96</course>
  <speed>0.02</speed>
  <fix>3d</fix>
</trkpt>
<trkpt lat="40.0728585" lon="-105.2306048">
  <ele>1586.02</ele>
  <time>2026-08-28T19:07:39Z</time>
  <course>332.15</course>
  <speed>0.0</speed>
  <fix>3d</fix>
</trkpt>
<trkpt lat="40.0728586" lon="-105.2306047">
  <ele>1586.12</ele>
  <time>2026-08-28T19:07:39Z</time>
  <course>67.93</course>
  <speed>0.02</speed>
  <fix>3d</fix>
</trkpt>
<trkpt lat="40.0728585" lon="-105.2306048">
  <ele>1586.02</ele>
  <time>2026-08-28T19:07:39Z</time>
  <course>332.03</course>
  <speed>0.0</speed>
  <fix>3d</fix>
</trkpt>
<trkpt lat="40.0728586" lon="-105.2306047">
  <ele>1586.12</ele>
  <time>2026-08-28T19:07:39Z</time>
  <course>67.9</course>
  <speed>0.02</speed>
  <fix>3d</fix>
</trkpt>
<trkpt lat="40.0728585" lon="-105.2306048">
  <ele>1586.02</ele>
  <time>2026-08-28T19:07:39Z</time>
  <course>332.13</course>
  <speed>0.0</speed>
  <fix>3d</fix>
</trkpt>
<trkpt lat="40.0728586" lon="-105.2306047">
  <ele>1586.12</ele>
  <time>2026-08-28T19:07:39Z</time>
  <course>67.88</course>
  <speed>0.02</speed>
  <fix>3d</fix>
</trkpt>
<trkpt lat="40.0728585" lon="-105.2306048">
  <ele>1586.02</ele>
  <time>2026-08-28T19:07:39Z</time>
  <course>332.03</course>
  <speed>0.0</speed>
  <fix>3d</fix>
</trkpt>
<trkpt lat="40.0728586" lon="-105.2306047">
  <ele>1586.12</ele>
  <time>2026-08-28T19:07:39Z</time>
  <course>67.85</course>
  <speed>0.02</speed>
  <fix>3d</fix>
</trkpt>
<trkpt lat="40.0728585" lon="-105.2306048">
  <ele>1586.02</ele>
  <time>2026-08-28T19:07:39Z</time>
  <course>332.0</course>
  <speed>0.0</speed>
  <fix>3d</fix>
</trkpt>
<trkpt lat="40.0728586" lon="-105.2306047">
  <ele>1586.12</ele>
  <time>2026-08-28T19:07:39Z</time>
  <course>67.82</course>
  <speed>0.02</speed>
  <fix>3d</fix>
</trkpt>
<trkpt lat="40.0728585" lon="-105.2306048">
  <ele>1586.02</ele>
  <time>2026-08-28T19:07:39Z</time>
  <course>332.04</course>
  <speed>0.0</speed>
  <fix>3d</fix>
</trkpt>
<trkpt lat="40.0728586" lon="-105.2306047">
  <ele>1586.12</ele>
  <time>2026-08-28T19:07:39Z</time>
  <course>67.79</course>
  <speed>0.02</speed>
  <fix>3d</fix>
</trkpt>
<trkpt lat="40.0728585" lon="-105.2306048">
  <ele>1586.02</ele>
  <time>2026-08-28T19:07:39Z</time>
  <course>331.95</course>
  <speed>0.0</speed>
  <fix>3d</fix>
</trkpt>
<trkpt lat="40.0728586" lon="-105.2306047">
  <ele>1586.12</ele>
  <time>2026-08-28T19:07:39Z</time>
  <course>67.77</course>
  <speed>0.02</speed>
  <fix>3d</fix>
</trkpt>
<trkpt lat="40.0728585" lon="-105.2306048">
  <ele>1586.02</ele>
  <time>2026-08-28T19:07:39Z</time>
  <course>331.12</course>
  <speed>0.0</speed>
  <fix>3d</fix>
</trkpt>
<trkpt lat="40.0728586" lon="-105.2306047">
  <ele>1586.12</ele>
  <time>2026-08-28T19:07:39Z</time>
  <course>67.75</course>
  <speed>0.02</speed>
  <fix>3d</fix>
</trkpt>
<trkpt lat="40.0728585" lon="-105.2306048">
  <ele>1586.02</ele>
  <time>2026-08-28T19:07:39Z</time>
  <course>333.23</course>
  <speed>0.0</speed>
  <fix>3d</fix>
</trkpt>
<trkpt lat="40.0728586" lon="-105.2306047">
  <ele>1586.12</ele>
  <time>2026-08-28T19:07:39Z</time>
  <course>67.72</course>
  <speed>0.02</speed>
  <fix>3d</fix>
</trkpt>
<trkpt lat="40.0728585" lon="-105.2306048">
  <ele>1586.02</ele>
  <time>2026-08-28T19:07:39Z</time>
  <course>333.42</course>
  <speed>0.0</speed>
  <fix>3d</fix>
</trkpt>
<trkpt lat="40.0728586" lon="-105.2306047">
  <ele>1586.12</ele>
  <time>2026-08-28T19:07:39Z</time>
  <course>67.7</course>
  <speed>0.02</speed>
  <fix>3d</fix>
</trkpt>
<trkpt lat="40.0728585" lon="-105.2306048">
  <ele>1586.02</ele>
  <time>2026-08-28T19:07:39Z</time>
  <course>331.49</course>
  <speed>0.0</speed>
  <fix>3d</fix>
</trkpt>
<trkpt lat="40.0728586" lon="-105.2306047">
  <ele>1586.12</ele>
  <time>2026-08-28T19:07:39Z</time>
  <course>67.68</course>
  <speed>0.02</speed>
  <fix>3d</fix>
</trkpt>
<trkpt lat="40.0728585" lon="-105.2306048">
  <ele>1586.02</ele>
  <time>2026-08-28T19:07:39Z</time>
  <course>331.78</course>
  <speed>0.0</speed>
  <fix>3d</fix>
</trkpt>
<trkpt lat="40.0728586" lon="-105.2306047">
  <ele>1586.12</ele>
  <time>2026-08-28T19:07:39Z</time>
  <course>67.66</course>
  <speed>0.02</speed>
  <fix>3d</fix>
</trkpt>
<trkpt lat="40.0728585" lon="-105.2306048">
  <ele>1586.02</ele>
  <time>2026-08-28T19:07:39Z</time>
  <course>331.9</course>
  <speed>0.0</speed>
  <fix>3d</fix>
</trkpt>
<trkpt lat="40.0728586" lon="-105.2306047">
  <ele>1586.12</ele>
  <time>2026-08-28T19:07:39Z</time>
  <course>67.63</course>
  <speed>0.02</speed>
  <fix>3d</fix>
</trkpt>
<trkpt lat="40.0728585" lon="-105.2306048">
  <ele>1586.02</ele>
  <time>2026-08-28T19:07:39Z</time>
  <course>331.85</course>
  <speed>0.0</speed>
  <fix>3d</fix>
</trkpt>
<trkpt lat="40.0728586" lon="-105.2306047">
  <ele>1586.12</ele>
  <time>2026-08-28T19:07:39Z</time>
  <course>67.62</course>
  <speed>0.02</speed>
  <fix>3d</fix>
</trkpt>
<trkpt lat="40.0728585" lon="-105.2306048">
  <ele>1586.02</ele>
  <time>2026-08-28T19:07:39Z</time>
  <course>331.77</course>
  <speed>0.0</speed>
  <fix>3d</fix>
</trkpt>
<trkpt lat="40.0728586" lon="-105.2306047">
  <ele>1586.12</ele>
  <time>2026-08-28T19:07:39Z</time>
  <course>67.6</course>
  <speed>0.02</speed>
  <fix>3d</fix>
</trkpt>
<trkpt lat="40.0728585" lon="-105.2306048">
  <ele>1586.02</ele>
  <time>2026-08-28T19:07:39Z</time>
  <course>331.72</course>
  <speed>0.0</speed>
  <fix>3d</fix>
</trkpt>
<trkpt lat="40.0728586" lon="-105.2306047">
  <ele>1586.11</ele>
  <time>2026-08-28T19:07:39Z</time>
  <course>67.58</course>
  <speed>0.02</speed>
  <fix>3d</fix>
</trkpt>
<trkpt lat="40.0728585" lon="-105.2306048">
  <ele>1586.02</ele>
  <time>2026-08-28T19:07:39Z</time>
  <course>331.8</course>
  <speed>0.0</speed>
  <fix>3d</fix>
</trkpt>
<trkpt lat="40.0728586" lon="-105.2306047">
  <ele>1586.11</ele>
  <time>2026-08-28T19:07:39Z</time>
  <course>67.56</course>
  <speed>0.02</speed>
  <fix>3d</fix>
</trkpt>
<trkpt lat="40.0728585" lon="-105.2306048">
  <ele>1586.02</ele>
  <time>2026-08-28T19:07:39Z</time>
  <course>331.74</course>
  <speed>0.0</speed>
  <fix>3d</fix>
</trkpt>
<trkpt lat="40.0728586" lon="-105.2306047">
  <ele>1586.11</ele>
  <time>2026-08-28T19:07:39Z</time>
  <course>67.54</course>
  <speed>0.02</speed>
  <fix>3d</fix>
</trkpt>
<trkpt lat="40.0728585" lon="-105.2306048">
  <ele>1586.02</ele>
  <time>2026-08-28T19:07:39Z</time>
  <course>331.72</course>
  <speed>0.0</speed>
  <fix>3d</fix>
</trkpt>
<trkpt lat="40.0728586" lon="-105.2306047">
  <ele>1586.11</ele>
  <time>2026-08-28T19:07:39Z</time>
  <course>67.53</course>
  <speed>0.02</speed>
  <fix>3d</fix>
</trkpt>
<trkpt lat="40.0728585" lon="-105.2306048">
  <ele>1586.02</ele>
  <time>2026-08-28T19:07:39Z</time>
  <course>331.77</course>
  <speed>0.0</speed>
  <fix>3d</fix>
</trkpt>
<trkpt lat="40.0728586" lon="-105.2306047">
  <ele>1586.1</ele>
  <time>2026-08-28T19:07:39Z</time>
  <course>67.51</course>
  <speed>0.02</speed>
  <fix>3d</fix>
</trkpt>
<trkpt lat="40.0728585" lon="-105.2306048">
  <ele>1586.02</ele>
  <time>2026-08-28T19:07:39Z</time>
  <course>331.74</course>
  <speed>0.0</speed>
  <fix>3d</fix>
</trkpt>
<trkpt lat="40.0728586" lon="-105.2306047">
  <ele>1586.1</ele>
  <time>2026-08-28T19:07:39Z</time>
  <course>67.5</course>
  <speed>0.02</speed>
  <fix>3d</fix>
</trkpt>
<trkpt lat="40.0728585" lon="-105.2306048">
  <ele>1586.02</ele>
  <time>2026-08-28T19:07:39Z</time>
  <course>331.73</course>
  <speed>0.0</speed>
  <fix>3d</fix>
</trkpt>
<trkpt lat="40.0728586" lon="-105.2306047">
  <ele>1586.1</ele>
  <time>2026-08-28T19:07:39Z</time>
  <course>67.48</course>
  <speed>0.02</speed>
  <fix>3d</fix>
</trkpt>
<trkpt lat="40.0728585" lon="-105.2306048">
  <ele>1586.02</ele>
  <time>2026-08-28T19:07:39Z</time>
  <course>329.25</course>
  <speed>0.0</speed>
  <fix>3d</fix>
</trkpt>
<trkpt lat="40.0728586" lon="-105.2306047">
  <ele>1586.1</ele>
  <time>2026-08-28T19:07:39Z</time>
  <course>67.47</course>
  <speed>0.02</speed>
  <fix>3d</fix>
</trkpt>
<trkpt lat="40.0728585" lon="-105.2306048">
  <ele>1586.02</ele>
  <time>2026-08-28T19:07:39Z</time>
  <course>321.76</course>
  <speed>0.0</speed>
  <fix>3d</fix>
</trkpt>
<trkpt lat="40.0728586" lon="-105.2306047">
  <ele>1586.1</ele>
  <time>2026-08-28T19:07:39Z</time>
  <course>67.45</course>
  <speed>0.02</speed>
  <fix>3d</fix>
</trkpt>
<trkpt lat="40.0728585" lon="-105.2306048">
  <ele>1586.02</ele>
  <time>2026-08-28T19:07:39Z</time>
  <course>327.78</course>
  <speed>0.0</speed>
  <fix>3d</fix>
</trkpt>
<trkpt lat="40.0728586" lon="-105.2306047">
  <ele>1586.1</ele>
  <time>2026-08-28T19:07:39Z</time>
  <course>67.44</course>
  <speed>0.02</speed>
  <fix>3d</fix>
</trkpt>
<trkpt lat="40.0728585" lon="-105.2306048">
  <ele>1586.02</ele>
  <time>2026-08-28T19:07:39Z</time>
  <course>333.47</course>
  <speed>0.0</speed>
  <fix>3d</fix>
</trkpt>
<trkpt lat="40.0728586" lon="-105.2306047">
  <ele>1586.09</ele>
  <time>2026-08-28T19:07:39Z</time>
  <course>67.43</course>
  <speed>0.02</speed>
  <fix>3d</fix>
</trkpt>
<trkpt lat="40.0728585" lon="-105.2306048">
  <ele>1586.02</ele>
  <time>2026-08-28T19:07:39Z</time>
  <course>331.71</course>
  <speed>0.0</speed>
  <fix>3d</fix>
</trkpt>
<trkpt lat="40.0728586" lon="-105.2306047">
  <ele>1586.09</ele>
  <time>2026-08-28T19:07:39Z</time>
  <course>67.42</course>
  <speed>0.02</speed>
  <fix>3d</fix>
</trkpt>
<trkpt lat="40.0728585" lon="-105.2306048">
  <ele>1586.02</ele>
  <time>2026-08-28T19:07:39Z</time>
  <course>331.12</course>
  <speed>0.0</speed>
  <fix>3d</fix>
</trkpt>
<trkpt lat="40.0728586" lon="-105.2306047">
  <ele>1586.09</ele>
  <time>2026-08-28T19:07:39Z</time>
  <course>67.41</course>
  <speed>0.02</speed>
  <fix>3d</fix>
</trkpt>
<trkpt lat="40.0728585" lon="-105.2306048">
  <ele>1586.02</ele>
  <time>2026-08-28T19:07:39Z</time>
  <course>331.07</course>
  <speed>0.0</speed>
  <fix>3d</fix>
</trkpt>
<trkpt lat="40.0728586" lon="-105.2306047">
  <ele>1586.09</ele>
  <time>2026-08-28T19:07:39Z</time>
  <course>67.4</course>
  <speed>0.02</speed>
  <fix>3d</fix>
</trkpt>
<trkpt lat="40.0728585" lon="-105.2306048">
  <ele>1586.02</ele>
  <time>2026-08-28T19:07:39Z</time>
  <course>332.69</course>
  <speed>0.0</speed>
  <fix>3d</fix>
</trkpt>
<trkpt lat="40.0728586" lon="-105.2306047">
  <ele>1586.09</ele>
  <time>2026-08-28T19:07:39Z</time>
  <course>67.39</course>
  <speed>0.02</speed>
  <fix>3d</fix>
</trkpt>
<trkpt lat="40.0728585" lon="-105.2306048">
  <ele>1586.02</ele>
  <time>2026-08-28T19:07:39Z</time>
  <course>334.13</course>
  <speed>0.0</speed>
  <fix>3d</fix>
</trkpt>
<trkpt lat="40.0728586" lon="-105.2306047">
  <ele>1586.09</ele>
  <time>2026-08-28T19:07:39Z</time>
  <course>67.38</course>
  <speed>0.02</speed>
  <fix>3d</fix>
</trkpt>
<trkpt lat="40.0728585" lon="-105.2306048">
  <ele>1586.02</ele>
  <time>2026-08-28T19:07:39Z</time>
  <course>331.94</course>
  <speed>0.0</speed>
  <fix>3d</fix>
</trkpt>
<trkpt lat="40.0728586" lon="-105.2306047">
  <ele>1586.09</ele>
  <time>2026-08-28T19:07:39Z</time>
  <course>67.37</course>
  <speed>0.02</speed>
  <fix>3d</fix>
</trkpt>
<trkpt lat="40.0728585" lon="-105.2306048">
  <ele>1586.02</ele>
  <time>2026-08-28T19:07:39Z</time>
  <course>331.12</course>
  <speed>0.0</speed>
  <fix>3d</fix>
</trkpt>
<trkpt lat="40.0728586" lon="-105.2306047">
  <ele>1586.09</ele>
  <time>2026-08-28T19:07:39Z</time>
  <course>67.37</course>
  <speed>0.02</speed>
  <fix>3d</fix>
</trkpt>
<trkpt lat="40.0728585" lon="-105.2306048">
  <ele>1586.02</ele>
  <time>2026-08-28T19:07:39Z</time>
  <course>332.26</course>
  <speed>0.0</speed>
  <fix>3d</fix>
</trkpt>
<trkpt lat="40.0728586" lon="-105.2306047">
  <ele>1586.09</ele>
  <time>2026-08-28T19:07:39Z</time>
  <course>67.36</course>
  <speed>0.02</speed>
  <fix>3d</fix>
</trkpt>
<trkpt lat="40.0728585" lon="-105.2306048">
  <ele>1586.02</ele>
  <time>2026-08-28T19:07:39Z</time>
  <course>340.35</course>
  <speed>0.0</speed>
  <fix>3d</fix>
</trkpt>
<trkpt lat="40.0728586" lon="-105.2306047">
  <ele>1586.09</ele>
  <time>2026-08-28T19:07:39Z</time>
  <course>67.36</course>
  <speed>0.02</speed>
  <fix>3d</fix>
</trkpt>
<trkpt lat="40.0728585" lon="-105.2306048">
  <ele>1586.02</ele>
  <time>2026-08-28T19:07:39Z</time>
  <course>338.31</course>
  <speed>0.0</speed>
  <fix>3d</fix>
</trkpt>
<trkpt lat="40.0728586" lon="-105.2306047">
  <ele>1586.09</ele>
  <time>2026-08-28T19:07:39Z</time>
  <course>67.35</course>
  <speed>0.02</speed>
  <fix>3d</fix>
</trkpt>
<trkpt lat="40.0728585" lon="-105.2306048">
  <ele>1586.02</ele>
  <time>2026-08-28T19:07:39Z</time>
  <course>330.07</course>
  <speed>0.0</speed>
  <fix>3d</fix>
</trkpt>
<trkpt lat="40.0728586" lon="-105.2306047">
  <ele>1586.1</ele>
  <time>2026-08-28T19:07:39Z</time>
  <course>67.34</course>
  <speed>0.02</speed>
  <fix>3d</fix>
</trkpt>
<trkpt lat="40.0728585" lon="-105.2306048">
  <ele>1586.02</ele>
  <time>2026-08-28T19:07:39Z</time>
  <course>331.1</course>
  <speed>0.0</speed>
  <fix>3d</fix>
</trkpt>
<trkpt lat="40.0728586" lon="-105.2306047">
  <ele>1586.1</ele>
  <time>2026-08-28T19:07:39Z</time>
  <course>67.34</course>
  <speed>0.02</speed>
  <fix>3d</fix>
</trkpt>
<trkpt lat="40.0728585" lon="-105.2306048">
  <ele>1586.02</ele>
  <time>2026-08-28T19:07:39Z</time>
  <course>332.09</course>
  <speed>0.0</speed>
  <fix>3d</fix>
</trkpt>
<trkpt lat="40.0728586" lon="-105.2306047">
  <ele>1586.1</ele>
  <time>2026-08-28T19:07:39Z</time>
  <course>67.34</course>
  <speed>0.02</speed>
  <fix>3d</fix>
</trkpt>
<trkpt lat="40.0728585" lon="-105.2306048">
  <ele>1586.02</ele>
  <time>2026-08-28T19:07:39Z</time>
  <course>331.87</course>
  <speed>0.0</speed>
  <fix>3d</fix>
</trkpt>
<trkpt lat="40.0728586" lon="-105.2306047">
  <ele>1586.1</ele>
  <time>2026-08-28T19:07:39Z</time>
  <course>67.34</course>
  <speed>0.02</speed>
  <fix>3d</fix>
</trkpt>
<trkpt lat="40.0728585" lon="-105.2306048">
  <ele>1586.02</ele>
  <time>2026-08-28T19:07:39Z</time>
  <course>331.78</course>
  <speed>0.0</speed>
  <fix>3d</fix>
</trkpt>
<trkpt lat="40.0728586" lon="-105.2306047">
  <ele>1586.11</ele>
  <time>2026-08-28T19:07:39Z</time>
  <course>67.33</course>
  <speed>0.02</speed>
  <fix>3d</fix>
</trkpt>
<trkpt lat="40.0728585" lon="-105.2306048">
  <ele>1586.02</ele>
  <time>2026-08-28T19:07:39Z</time>
  <course>331.84</course>
  <speed>0.0</speed>
  <fix>3d</fix>
</trkpt>
<trkpt lat="40.0728586" lon="-105.2306047">
  <ele>1586.11</ele>
  <time>2026-08-28T19:07:39Z</time>
  <course>67.33</course>
  <speed>0.02</speed>
  <fix>3d</fix>
</trkpt>
<trkpt lat="40.0728586" lon="-105.2306047">
  <ele>1586.12</ele>
  <time>2026-08-28T19:07:39Z</time>
  <course>67.32</course>
  <speed>0.02</speed>
  <fix>3d</fix>
</trkpt>
<trkpt lat="40.0728585" lon="-105.2306048">
  <ele>1586.02</ele>
  <time>2026-08-28T19:07:39Z</time>
  <course>331.79</course>
  <speed>0.0</speed>
  <fix>3d</fix>
</trkpt>
<trkpt lat="40.0728586" lon="-105.2306047">
  <ele>1586.2</ele>
  <time>2026-08-28T19:07:39Z</time>
  <course>67.26</course>
  <speed>0.02</speed>
  <fix>3d</fix>
</trkpt>
<trkpt lat="40.0728585" lon="-105.2306048">
  <ele>1586.05</ele>
  <time>2026-08-28T19:07:39Z</time>
  <course>336.33</course>
  <speed>0.0</speed>
  <fix>3d</fix>
</trkpt>
<trkpt lat="40.0728586" lon="-105.2306047">
  <ele>1586.23</ele>
  <time>2026-08-28T19:07:39Z</time>
  <course>67.2</course>
  <speed>0.02</speed>
  <fix>3d</fix>
</trkpt>
<trkpt lat="40.0728585" lon="-105.2306048">
  <ele>1586.11</ele>
  <time>2026-08-28T19:07:39Z</time>
  <course>24.11</course>
  <speed>0.0</speed>
  <fix>3d</fix>
</trkpt>
<trkpt lat="40.0728586" lon="-105.2306047">
  <ele>1586.3</ele>
  <time>2026-08-28T19:07:39Z</time>
  <course>63.71</course>
  <speed>0.06082762530298219</speed>
  <fix>3d</fix>
</trkpt>
<trkpt lat="40.0728585" lon="-105.2306048">
  <ele>1586.16</ele>
  <time>2026-08-28T19:07:39Z</time>
  <course>326.97</course>
  <speed>0.0</speed>
  <fix>3d</fix>
</trkpt>
<trkpt lat="40.0728586" lon="-105.2306047">
  <ele>1586.33</ele>
  <time>2026-08-28T19:07:39Z</time>
  <course>63.14</course>
  <speed>0.0824621125123532</speed>
  <fix>3d</fix>
</trkpt>
<trkpt lat="40.0728588" lon="-105.2306048">
  <ele>1586.59</ele>
  <time>2026-08-28T19:07:39Z</time>
  <course>61.34</course>
  <speed>0.17</speed>
  <fix>3d</fix>
</trkpt>
<trkpt lat="40.0728586" lon="-105.2306049">
  <ele>1586.29</ele>
  <time>2026-08-28T19:07:39Z</time>
  <course>321.18</course>
  <speed>0.07</speed>
  <fix>3d</fix>
</trkpt>
<trkpt lat="40.0728588" lon="-105.2306049">
  <ele>1586.64</ele>
  <time>2026-08-28T19:07:39Z</time>
  <course>61.14</course>
  <speed>0.17492855684535902</speed>
  <fix>3d</fix>
</trkpt>
<trkpt lat="40.072859" lon="-105.2306051">
  <ele>1586.92</ele>
  <time>2026-08-28T19:07:39Z</time>
  <course>60.28</course>
  <speed>0.20808652046684814</speed>
  <fix>3d</fix>
</trkpt>
<trkpt lat="40.0728588" lon="-105.2306051">
  <ele>1586.58</ele>
  <time>2026-08-28T19:07:39Z</time>
  <course>317.34</course>
  <speed>0.16</speed>
  <fix>3d</fix>
</trkpt>
<trkpt lat="40.072859" lon="-105.2306051">
  <ele>1586.93</ele>
  <time>2026-08-28T19:07:39Z</time>
  <course>60.27</course>
  <speed>0.20808652046684814</speed>
  <fix>3d</fix>
</trkpt>
<trkpt lat="40.0728593" lon="-105.2306055">
  <ele>1587.25</ele>
  <time>2026-08-28T19:07:40Z</time>
  <course>59.84</course>
  <speed>0.23345235059857505</speed>
  <fix>3d</fix>
</trkpt>
<trkpt lat="40.072859" lon="-105.2306055">
  <ele>1586.91</ele>
  <time>2026-08-28T19:07:40Z</time>
  <course>311.86</course>
  <speed>0.21</speed>
  <fix>3d</fix>
</trkpt>
<trkpt lat="40.0728593" lon="-105.2306055">
  <ele>1587.3</ele>
  <time>2026-08-28T19:07:40Z</time>
  <course>59.81</course>
  <speed>0.23345235059857505</speed>
  <fix>3d</fix>
</trkpt>
<trkpt lat="40.0728596" lon="-105.2306059">
  <ele>1587.59</ele>
  <time>2026-08-28T19:07:40Z</time>
  <course>59.73</course>
  <speed>0.24083189157584592</speed>
  <fix>3d</fix>
</trkpt>
<trkpt lat="40.0728593" lon="-105.2306059">
  <ele>1587.25</ele>
  <time>2026-08-28T19:07:40Z</time>
  <course>306.01</course>
  <speed>0.23</speed>
  <fix>3d</fix>
</trkpt>
<trkpt lat="40.0728596" lon="-105.2306059">
  <ele>1587.6</ele>
  <time>2026-08-28T19:07:40Z</time>
  <course>59.73</course>
  <speed>0.24083189157584592</speed>
  <fix>3d</fix>
</trkpt>
<trkpt lat="40.0728598" lon="-105.2306064">
  <ele>1587.95</ele>
  <time>2026-08-28T19:07:40Z</time>
  <course>59.79</course>
  <speed>0.24413111231467405</speed>
  <fix>3d</fix>
</trkpt>
<trkpt lat="40.0728595" lon="-105.2306063">
  <ele>1587.59</ele>
  <time>2026-08-28T19:07:40Z</time>
  <course>300.53</course>
  <speed>0.24</speed>
  <fix>3d</fix>
</trkpt>
<trkpt lat="40.0728598" lon="-105.2306065">
  <ele>1588.0</ele>
  <time>2026-08-28T19:07:40Z</time>
  <course>59.81</course>
  <speed>0.24413111231467405</speed>
  <fix>3d</fix>
</trkpt>
<trkpt lat="40.07286" lon="-105.230607">
  <ele>1588.3</ele>
  <time>2026-08-28T19:07:40Z</time>
  <course>59.94</course>
  <speed>0.25553864678361277</speed>
  <fix>3d</fix>
</trkpt>
<trkpt lat="40.0728596" lon="-105.2306068">
  <ele>1587.93</ele>
  <time>2026-08-28T19:07:40Z</time>
  <course>295.56</course>
  <speed>0.25</speed>
  <fix>3d</fix>
</trkpt>
<trkpt lat="40.07286" lon="-105.2306071">
  <ele>1588.35</ele>
  <time>2026-08-28T19:07:40Z</time>
  <course>59.97</course>
  <speed>0.25553864678361277</speed>
  <fix>3d</fix>
</trkpt>
<trkpt lat="40.0728601" lon="-105.2306076">
  <ele>1588.66</ele>
  <time>2026-08-28T19:07:40Z</time>
  <course>60.14</course>
  <speed>0.25495097567963926</speed>
  <fix>3d</fix>
</trkpt>
<trkpt lat="40.0728599" lon="-105.2306074">
  <ele>1588.28</ele>
  <time>2026-08-28T19:07:40Z</time>
  <course>291.16</course>
  <speed>0.25</speed>
  <fix>3d</fix>
</trkpt>
<trkpt lat="40.0728601" lon="-105.2306076">
  <ele>1588.66</ele>
  <time>2026-08-28T19:07:40Z</time>
  <course>60.14</course>
  <speed>0.25495097567963926</speed>
  <fix>3d</fix>
</trkpt>
<trkpt lat="40.0728603" lon="-105.2306082">
  <ele>1589.02</ele>
  <time>2026-08-28T19:07:40Z</time>
  <course>60.84</course>
  <speed>0.2692582403567252</speed>
  <fix>3d</fix>
</trkpt>
<trkpt lat="40.0728601" lon="-105.2306079">
  <ele>1588.63</ele>
  <time>2026-08-28T19:07:40Z</time>
  <course>287.46</course>
  <speed>0.26</speed>
  <fix>3d</fix>
</trkpt>
<trkpt lat="40.0728603" lon="-105.2306083">
  <ele>1589.08</ele>
  <time>2026-08-28T19:07:40Z</time>
  <course>60.88</course>
  <speed>0.2692582403567252</speed>
  <fix>3d</fix>
</trkpt>
<trkpt lat="40.0728604" lon="-105.2306088">
  <ele>1589.38</ele>
  <time>2026-08-28T19:07:40Z</time>
  <course>59.61</course>
  <speed>0.28460498941515416</speed>
  <fix>3d</fix>
</trkpt>
<trkpt lat="40.0728602" lon="-105.2306086">
  <ele>1588.99</ele>
  <time>2026-08-28T19:07:40Z</time>
  <course>284.44</course>
  <speed>0.27</speed>
  <fix>3d</fix>
</trkpt>
<trkpt lat="40.0728604" lon="-105.2306089">
  <ele>1589.44</ele>
  <time>2026-08-28T19:07:40Z</time>
  <course>59.42</course>
  <speed>0.28460498941515416</speed>
  <fix>3d</fix>
</trkpt>
<trkpt lat="40.0728605" lon="-105.2306095">
  <ele>1589.75</ele>
  <time>2026-08-28T19:07:40Z</time>
  <course>59.43</course>
  <speed>0.30083217912982646</speed>
  <fix>3d</fix>
</trkpt>
<trkpt lat="40.0728603" lon="-105.2306092">
  <ele>1589.35</ele>
  <time>2026-08-28T19:07:40Z</time>
  <course>282.21</course>
  <speed>0.28</speed>
  <fix>3d</fix>
</trkpt>
<trkpt lat="40.0728605" lon="-105.2306096">
  <ele>1589.8</ele>
  <time>2026-08-28T19:07:40Z</time>
  <course>59.53</course>
  <speed>0.30083217912982646</speed>
  <fix>3d</fix>
</trkpt>
<trkpt lat="40.0728606" lon="-105.2306102">
  <ele>1590.11</ele>
  <time>2026-08-28T19:07:40Z</time>
  <course>60.38</course>
  <speed>0.3080584360149873</speed>
  <fix>3d</fix>
</trkpt>
<trkpt lat="40.0728604" lon="-105.2306099">
  <ele>1589.71</ele>
  <time>2026-08-28T19:07:40Z</time>
  <course>280.61</course>
  <speed>0.29</speed>
  <fix>3d</fix>
</trkpt>
<trkpt lat="40.0728606" lon="-105.2306103">
  <ele>1590.16</ele>
  <time>2026-08-28T19:07:40Z</time>
  <course>60.52</course>
  <speed>0.3178049716414141</speed>
  <fix>3d</fix>
</trkpt>
<trkpt lat="40.0728607" lon="-105.230611">
  <ele>1590.47</ele>
  <time>2026-08-28T19:07:40Z</time>
  <course>61.2</course>
  <speed>0.3255764119219941</speed>
  <fix>3d</fix>
</trkpt>
<trkpt lat="40.0728605" lon="-105.2306106">
  <ele>1590.06</ele>
  <time>2026-08-28T19:07:40Z</time>
  <course>279.33</course>
  <speed>0.3</speed>
  <fix>3d</fix>
</trkpt>
<trkpt lat="40.0728607" lon="-105.2306111">
  <ele>1590.52</ele>
  <time>2026-08-28T19:07:40Z</time>
  <course>61.3</course>
  <speed>0.3255764119219941</speed>
  <fix>3d</fix>
</trkpt>
<trkpt lat="40.0728607" lon="-105.2306117">
  <ele>1590.82</ele>
  <time>2026-08-28T19:07:40Z</time>
  <course>61.79</course>
  <speed>0.33541019662496846</speed>
  <fix>3d</fix>
</trkpt>
<trkpt lat="40.0728606" lon="-105.2306113">
  <ele>1590.41</ele>
  <time>2026-08-28T19:07:40Z</time>
  <course>278.51</course>
  <speed>0.3</speed>
  <fix>3d</fix>
</trkpt>
<trkpt lat="40.0728608" lon="-105.2306118">
  <ele>1590.87</ele>
  <time>2026-08-28T19:07:40Z</time>
  <course>61.87</course>
  <speed>0.33541019662496846</speed>
  <fix>3d</fix>
</trkpt>
<trkpt lat="40.0728608" lon="-105.2306125">
  <ele>1591.18</ele>
  <time>2026-08-28T19:07:40Z</time>
  <course>62.27</course>
  <speed>0.34365680554879163</speed>
  <fix>3d</fix>
</trkpt>
<trkpt lat="40.0728606" lon="-105.230612">
  <ele>1590.78</ele>
  <time>2026-08-28T19:07:40Z</time>
  <course>278.11</course>
  <speed>0.31</speed>
  <fix>3d</fix>
</trkpt>
<trkpt lat="40.0728608" lon="-105.2306125">
  <ele>1591.19</ele>
  <time>2026-08-28T19:07:40Z</time>
  <course>62.28</course>
  <speed>0.34365680554879163</speed>
  <fix>3d</fix>
</trkpt>
<trkpt lat="40.0728609" lon="-105.2306133">
  <ele>1591.54</ele>
  <time>2026-08-28T19:07:40Z</time>
  <course>62.69</course>
  <speed>0.34365680554879163</speed>
  <fix>3d</fix>
</trkpt>
<trkpt lat="40.0728607" lon="-105.2306127">
  <ele>1591.13</ele>
  <time>2026-08-28T19:07:40Z</time>
  <course>278.0</course>
  <speed>0.31</speed>
  <fix>3d</fix>
</trkpt>
<trkpt lat="40.0728609" lon="-105.2306134">
  <ele>1591.59</ele>
  <time>2026-08-28T19:07:40Z</time>
  <course>62.75</course>
  <speed>0.34365680554879163</speed>
  <fix>3d</fix>
</trkpt>
<trkpt lat="40.072861" lon="-105.230614">
  <ele>1591.9</ele>
  <time>2026-08-28T19:07:40Z</time>
  <course>63.01</course>
  <speed>0.3535533905932738</speed>
  <fix>3d</fix>
</trkpt>
<trkpt lat="40.0728608" lon="-105.2306135">
  <ele>1591.5</ele>
  <time>2026-08-28T19:07:40Z</time>
  <course>278.02</course>
  <speed>0.32</speed>
  <fix>3d</fix>
</trkpt>
<trkpt lat="40.072861" lon="-105.2306141">
  <ele>1591.95</ele>
  <time>2026-08-28T19:07:40Z</time>
  <course>63.06</course>
  <speed>0.3535533905932738</speed>
  <fix>3d</fix>
</trkpt>
<trkpt lat="40.072861" lon="-105.2306148">
  <ele>1592.26</ele>
  <time>2026-08-28T19:07:40Z</time>
  <course>63.28</course>
  <speed>0.3535533905932738</speed>
  <fix>3d</fix>
</trkpt>
<trkpt lat="40.0728609" lon="-105.2306142">
  <ele>1591.85</ele>
  <time>2026-08-28T19:07:40Z</time>
  <course>278.13</course>
  <speed>0.33</speed>
  <fix>3d</fix>
</trkpt>
<trkpt lat="40.072861" lon="-105.2306149">
  <ele>1592.31</ele>
  <time>2026-08-28T19:07:40Z</time>
  <course>63.32</course>
  <speed>0.3535533905932738</speed>
  <fix>3d</fix>
</trkpt>
<trkpt lat="40.0728611" lon="-105.2306156">
  <ele>1592.61</ele>
  <time>2026-08-28T19:07:40Z</time>
  <course>63.52</course>
  <speed>0.35510561809129404</speed>
  <fix>3d</fix>
</trkpt>
<trkpt lat="40.072861" lon="-105.230615">
  <ele>1592.21</ele>
  <time>2026-08-28T19:07:40Z</time>
  <course>278.39</course>
  <speed>0.33</speed>
  <fix>3d</fix>
</trkpt>
<trkpt lat="40.0728611" lon="-105.2306157">
  <ele>1592.66</ele>
  <time>2026-08-28T19:07:40Z</time>
  <course>63.56</course>
  <speed>0.35510561809129404</speed>
  <fix>3d</fix>
</trkpt>
<trkpt lat="40.0728612" lon="-105.2306164">
  <ele>1592.97</ele>
  <time>2026-08-28T19:07:40Z</time>
  <course>63.71</course>
  <speed>0.3649657518178932</speed>
  <fix>3d</fix>
</trkpt>
<trkpt lat="40.0728611" lon="-105.2306158">
  <ele>1592.57</ele>
  <time>2026-08-28T19:07:40Z</time>
  <course>278.7</course>
  <speed>0.34</speed>
  <fix>3d</fix>
</trkpt>
<trkpt lat="40.0728612" lon="-105.2306164">
  <ele>1592.97</ele>
  <time>2026-08-28T19:07:40Z</time>
  <course>63.72</course>
  <speed>0.3649657518178932</speed>
  <fix>3d</fix>
</trkpt>
<trkpt lat="40.0728613" lon="-105.2306172">
  <ele>1593.32</ele>
  <time>2026-08-28T19:07:40Z</time>
  <course>63.9</course>
  <speed>0.3649657518178932</speed>
  <fix>3d</fix>
</trkpt>
<trkpt lat="40.0728612" lon="-105.2306166">
  <ele>1592.92</ele>
  <time>2026-08-28T19:07:40Z</time>
  <course>279.01</course>
  <speed>0.34</speed>
  <fix>3d</fix>
</trkpt>
<trkpt lat="40.0728613" lon="-105.2306173">
  <ele>1593.37</ele>
  <time>2026-08-28T19:07:40Z</time>
  <course>63.93</course>
  <speed>0.3649657518178932</speed>
  <fix>3d</fix>
</trkpt>
<trkpt lat="40.0728614" lon="-105.230618">
  <ele>1593.68</ele>
  <time>2026-08-28T19:07:40Z</time>
  <course>64.1</course>
  <speed>0.3649657518178932</speed>
  <fix>3d</fix>
</trkpt>
<trkpt lat="40.0728613" lon="-105.2306174">
  <ele>1593.28</ele>
  <time>2026-08-28T19:07:40Z</time>
  <course>279.36</course>
  <speed>0.35</speed>
  <fix>3d</fix>
</trkpt>
<trkpt lat="40.0728615" lon="-105.2306188">
  <ele>1594.04</ele>
  <time>2026-08-28T19:07:40Z</time>
  <course>64.28</course>
  <speed>0.37483329627982626</speed>
  <fix>3d</fix>
</trkpt>
<trkpt lat="40.0728614" lon="-105.2306183">
  <ele>1593.63</ele>
  <time>2026-08-28T19:07:40Z</time>
  <course>279.76</course>
  <speed>0.36</speed>
  <fix>3d</fix>
</trkpt>
<trkpt lat="40.0728616" lon="-105.2306196">
  <ele>1594.38</ele>
  <time>2026-08-28T19:07:40Z</time>
  <course>64.71</course>
  <speed>0.34525353003264136</speed>
  <fix>3d</fix>
</trkpt>
<trkpt lat="40.0728615" lon="-105.230619">
  <ele>1593.99</ele>
  <time>2026-08-28T19:07:40Z</time>
  <course>280.28</course>
  <speed>0.35</speed>
  <fix>3d</fix>
</trkpt>
<trkpt lat="40.0728617" lon="-105.2306203">
  <ele>1594.7</ele>
  <time>2026-08-28T19:07:40Z</time>
  <course>65.34</course>
  <speed>0.25317977802344327</speed>
  <fix>3d</fix>
</trkpt>
<trkpt lat="40.0728616" lon="-105.2306198">
  <ele>1594.33</ele>
  <time>2026-08-28T19:07:40Z</time>
  <course>280.47</course>
  <speed>0.31</speed>
  <fix>3d</fix>
</trkpt>
<trkpt lat="40.0728617" lon="-105.2306208">
  <ele>1594.98</ele>
  <time>2026-08-28T19:07:40Z</time>
  <course>65.98</course>
  <speed>0.1414213562373095</speed>
  <fix>3d</fix>
</trkpt>
<trkpt lat="40.0728617" lon="-105.2306205">
  <ele>1594.64</ele>
  <time>2026-08-28T19:07:40Z</time>
  <course>280.88</course>
  <speed>0.22</speed>
  <fix>3d</fix>
</trkpt>
<trkpt lat="40.0728617" lon="-105.2306208">
  <ele>1595.01</ele>
  <time>2026-08-28T19:07:40Z</time>
  <course>66.07</course>
  <speed>0.12041594578792296</speed>
  <fix>3d</fix>
</trkpt>
<trkpt lat="40.0728618" lon="-105.2306209">
  <ele>1595.21</ele>
  <time>2026-08-28T19:07:40Z</time>
  <course>66.57</course>
  <speed>0.0412310562561766</speed>
  <fix>3d</fix>
</trkpt>
<trkpt lat="40.0728618" lon="-105.2306209">
  <ele>1594.91</ele>
  <time>2026-08-28T19:07:40Z</time>
  <course>286.86</course>
  <speed>0.11</speed>
  <fix>3d</fix>
</trkpt>
<trkpt lat="40.0728618" lon="-105.230621">
  <ele>1595.4</ele>
  <time>2026-08-28T19:07:40Z</time>
  <course>67.06</course>
  <speed>0.0282842712474619</speed>
  <fix>3d</fix>
</trkpt>
<trkpt lat="40.0728618" lon="-105.230621">
  <ele>1595.12</ele>
  <time>2026-08-28T19:07:40Z</time>
  <course>333.36</course>
  <speed>0.04</speed>
  <fix>3d</fix>
</trkpt>
<trkpt lat="40.0728619" lon="-105.2306209">
  <ele>1595.54</ele>
  <time>2026-08-28T19:07:40Z</time>
  <course>67.51</course>
  <speed>0.05830951894845301</speed>
  <fix>3d</fix>
</trkpt>
<trkpt lat="40.0728619" lon="-105.230621">
  <ele>1595.29</ele>
  <time>2026-08-28T19:07:40Z</time>
  <course>40.02</course>
  <speed>0.06</speed>
  <fix>3d</fix>
</trkpt>
<trkpt lat="40.072862" lon="-105.2306207">
  <ele>1595.64</ele>
  <time>2026-08-28T19:07:40Z</time>
  <course>67.92</course>
  <speed>0.07615773105863909</speed>
  <fix>3d</fix>
</trkpt>
<trkpt lat="40.072862" lon="-105.2306209">
  <ele>1595.41</ele>
  <time>2026-08-28T19:07:40Z</time>
  <course>52.13</course>
  <speed>0.08</speed>
  <fix>3d</fix>
</trkpt>
<trkpt lat="40.0728621" lon="-105.2306206">
  <ele>1595.68</ele>
  <time>2026-08-28T19:07:40Z</time>
  <course>68.28</course>
  <speed>0.07615773105863909</speed>
  <fix>3d</fix>
</trkpt>
<trkpt lat="40.0728621" lon="-105.2306208">
  <ele>1595.49</ele>
  <time>2026-08-28T19:07:40Z</time>
  <course>57.31</course>
  <speed>0.09</speed>
  <fix>3d</fix>
</trkpt>
<trkpt lat="40.0728621" lon="-105.2306205">
  <ele>1595.68</ele>
  <time>2026-08-28T19:07:40Z</time>
  <course>68.6</course>
  <speed>0.07280109889280519</speed>
  <fix>3d</fix>
</trkpt>
<trkpt lat="40.0728621" lon="-105.2306206">
  <ele>1595.52</ele>
  <time>2026-08-28T19:07:40Z</time>
  <course>63.15</course>
  <speed>0.09</speed>
  <fix>3d</fix>
</trkpt>
<trkpt lat="40.0728622" lon="-105.2306203">
  <ele>1595.64</ele>
  <time>2026-08-28T19:07:40Z</time>
  <course>68.91</course>
  <speed>0.07071067811865475</speed>
  <fix>3d</fix>
</trkpt>
<trkpt lat="40.0728622" lon="-105.2306203">
  <ele>1595.51</ele>
  <time>2026-08-28T19:07:40Z</time>
  <course>71.05</course>
  <speed>0.09</speed>
  <fix>3d</fix>
</trkpt>
<trkpt lat="40.0728622" lon="-105.2306201">
  <ele>1595.56</ele>
  <time>2026-08-28T19:07:40Z</time>
  <course>69.18</course>
  <speed>0.07</speed>
  <fix>3d</fix>
</trkpt>
<trkpt lat="40.0728623" lon="-105.2306202">
  <ele>1595.46</ele>
  <time>2026-08-28T19:07:40Z</time>
  <course>80.97</course>
  <speed>0.08</speed>
  <fix>3d</fix>
</trkpt>
<trkpt lat="40.0728622" lon="-105.2306199">
  <ele>1595.45</ele>
  <time>2026-08-28T19:07:40Z</time>
  <course>69.25</course>
  <speed>0.06082762530298219</speed>
  <fix>3d</fix>
</trkpt>
<trkpt lat="40.0728623" lon="-105.2306199">
  <ele>1595.38</ele>
  <time>2026-08-28T19:07:40Z</time>
  <course>93.48</course>
  <speed>0.08</speed>
  <fix>3d</fix>
</trkpt>
<trkpt lat="40.0728622" lon="-105.2306198">
  <ele>1595.33</ele>
  <time>2026-08-28T19:07:40Z</time>
  <course>69.2</course>
  <speed>0.05830951894845301</speed>
  <fix>3d</fix>
</trkpt>
<trkpt lat="40.0728623" lon="-105.2306198">
  <ele>1595.27</ele>
  <time>2026-08-28T19:07:40Z</time>
  <course>108.37</course>
  <speed>0.07</speed>
  <fix>3d</fix>
</trkpt>
<trkpt lat="40.0728622" lon="-105.2306196">
  <ele>1595.2</ele>
  <time>2026-08-28T19:07:40Z</time>
  <course>69.15</course>
  <speed>0.0565685424949238</speed>
  <fix>3d</fix>
</trkpt>
<trkpt lat="40.0728623" lon="-105.2306197">
  <ele>1595.14</ele>
  <time>2026-08-28T19:07:40Z</time>
  <course>124.46</course>
  <speed>0.07</speed>
  <fix>3d</fix>
</trkpt>
<trkpt lat="40.0728621" lon="-105.2306195">
  <ele>1595.07</ele>
  <time>2026-08-28T19:07:40Z</time>
  <course>69.09</course>
  <speed>0.053851648071345036</speed>
  <fix>3d</fix>
</trkpt>
<trkpt lat="40.0728622" lon="-105.2306195">
  <ele>1595.01</ele>
  <time>2026-08-28T19:07:40Z</time>
  <course>141.19</course>
  <speed>0.07</speed>
  <fix>3d</fix>
</trkpt>
<trkpt lat="40.072862" lon="-105.2306195">
  <ele>1594.95</ele>
  <time>2026-08-28T19:07:40Z</time>
  <course>69.05</course>
  <speed>0.05</speed>
  <fix>3d</fix>
</trkpt>
<trkpt lat="40.0728621" lon="-105.2306194">
  <ele>1594.88</ele>
  <time>2026-08-28T19:07:40Z</time>
  <course>157.58</course>
  <speed>0.07</speed>
  <fix>3d</fix>
</trkpt>
<trkpt lat="40.0728619" lon="-105.2306195">
  <ele>1594.83</ele>
  <time>2026-08-28T19:07:40Z</time>
  <course>69.03</course>
  <speed>0.05</speed>
  <fix>3d</fix>
</trkpt>
<trkpt lat="40.072862" lon="-105.2306194">
  <ele>1594.77</ele>
  <time>2026-08-28T19:07:40Z</time>
  <course>172.65</course>
  <speed>0.07</speed>
  <fix>3d</fix>
</trkpt>
<trkpt lat="40.0728618" lon="-105.2306195">
  <ele>1594.72</ele>
  <time>2026-08-28T19:07:40Z</time>
  <course>69.0</course>
  <speed>0.053851648071345036</speed>
  <fix>3d</fix>
</trkpt>
<trkpt lat="40.0728618" lon="-105.2306194">
  <ele>1594.65</ele>
  <time>2026-08-28T19:07:40Z</time>
  <course>185.83</course>
  <speed>0.07</speed>
  <fix>3d</fix>
</trkpt>
<trkpt lat="40.0728617" lon="-105.2306195">
  <ele>1594.61</ele>
  <time>2026-08-28T19:07:40Z</time>
  <course>68.99</course>
  <speed>0.05830951894845301</speed>
  <fix>3d</fix>
</trkpt>
<trkpt lat="40.0728617" lon="-105.2306194">
  <ele>1594.54</ele>
  <time>2026-08-28T19:07:40Z</time>
  <course>196.99</course>
  <speed>0.08</speed>
  <fix>3d</fix>
</trkpt>
<trkpt lat="40.0728616" lon="-105.2306195">
  <ele>1594.5</ele>
  <time>2026-08-28T19:07:40Z</time>
  <course>69.02</course>
  <speed>0.0565685424949238</speed>
  <fix>3d</fix>
</trkpt>
<trkpt lat="40.0728615" lon="-105.2306194">
  <ele>1594.43</ele>
  <time>2026-08-28T19:07:40Z</time>
  <course>206.2</course>
  <speed>0.08</speed>
  <fix>3d</fix>
</trkpt>
<trkpt lat="40.0728615" lon="-105.2306196">
  <ele>1594.4</ele>
  <time>2026-08-28T19:07:40Z</time>
  <course>69.03</course>
  <speed>0.06403124237432849</speed>
  <fix>3d</fix>
</trkpt>
<trkpt lat="40.0728614" lon="-105.2306195">
  <ele>1594.33</ele>
  <time>2026-08-28T19:07:40Z</time>
  <course>213.74</course>
  <speed>0.09</speed>
  <fix>3d</fix>
</trkpt>
<trkpt lat="40.0728614" lon="-105.2306198">
  <ele>1594.3</ele>
  <time>2026-08-28T19:07:40Z</time>
  <course>69.02</course>
  <speed>0.05830951894845301</speed>
  <fix>3d</fix>
</trkpt>
<trkpt lat="40.0728613" lon="-105.2306197">
  <ele>1594.23</ele>
  <time>2026-08-28T19:07:40Z</time>
  <course>220.33</course>
  <speed>0.09</speed>
  <fix>3d</fix>
</trkpt>
<trkpt lat="40.0728613" lon="-105.2306199">
  <ele>1594.2</ele>
  <time>2026-08-28T19:07:40Z</time>
  <course>69.07</course>
  <speed>0.0632455532033676</speed>
  <fix>3d</fix>
</trkpt>
<trkpt lat="40.0728612" lon="-105.2306198">
  <ele>1594.13</ele>
  <time>2026-08-28T19:07:40Z</time>
  <course>227.06</course>
  <speed>0.09</speed>
  <fix>3d</fix>
</trkpt>
<trkpt lat="40.0728612" lon="-105.23062">
  <ele>1594.1</ele>
  <time>2026-08-28T19:07:40Z</time>
  <course>69.08</course>
  <speed>0.06082762530298219</speed>
  <fix>3d</fix>
</trkpt>
<trkpt lat="40.0728611" lon="-105.2306199">
  <ele>1594.03</ele>
  <time>2026-08-28T19:07:40Z</time>
  <course>233.99</course>
  <speed>0.08</speed>
  <fix>3d</fix>
</trkpt>
<trkpt lat="40.0728611" lon="-105.2306202">
  <ele>1594.0</ele>
  <time>2026-08-28T19:07:40Z</time>
  <course>69.08</course>
  <speed>0.06</speed>
  <fix>3d</fix>
</trkpt>
<trkpt lat="40.072861" lon="-105.2306202">
  <ele>1593.94</ele>
  <time>2026-08-28T19:07:40Z</time>
  <course>240.98</course>
  <speed>0.08</speed>
  <fix>3d</fix>
</trkpt>
<trkpt lat="40.0728611" lon="-105.2306203">
  <ele>1593.9</ele>
  <time>2026-08-28T19:07:40Z</time>
  <course>69.11</course>
  <speed>0.05</speed>
  <fix>3d</fix>
</trkpt>
<trkpt lat="40.0728609" lon="-105.2306203">
  <ele>1593.84</ele>
  <time>2026-08-28T19:07:40Z</time>
  <course>248.22</course>
  <speed>0.08</speed>
  <fix>3d</fix>
</trkpt>
<trkpt lat="40.0728611" lon="-105.2306205">
  <ele>1593.8</ele>
  <time>2026-08-28T19:07:40Z</time>
  <course>69.15</course>
  <speed>0.05099019513592785</speed>
  <fix>3d</fix>
</trkpt>
<trkpt lat="40.0728608" lon="-105.2306204">
  <ele>1593.74</ele>
  <time>2026-08-28T19:07:40Z</time>
  <course>255.27</course>
  <speed>0.07</speed>
  <fix>3d</fix>
</trkpt>
<trkpt lat="40.072861" lon="-105.2306206">
  <ele>1593.7</ele>
  <time>2026-08-28T19:07:40Z</time>
  <course>69.18</course>
  <speed>0.044721359549995794</speed>
  <fix>3d</fix>
</trkpt>
<trkpt lat="40.0728608" lon="-105.2306207">
  <ele>1593.63</ele>
  <time>2026-08-28T19:07:40Z</time>
  <course>262.31</course>
  <speed>0.06</speed>
  <fix>3d</fix>
</trkpt>
<trkpt lat="40.072861" lon="-105.2306208">
  <ele>1593.6</ele>
  <time>2026-08-28T19:07:40Z</time>
  <course>69.19</course>
  <speed>0.04242640687119285</speed>
  <fix>3d</fix>
</trkpt>
<trkpt lat="40.0728608" lon="-105.2306208">
  <ele>1593.54</ele>
  <time>2026-08-28T19:07:40Z</time>
  <course>270.3</course>
  <speed>0.06</speed>
  <fix>3d</fix>
</trkpt>
<trkpt lat="40.072861" lon="-105.2306209">
  <ele>1593.5</ele>
  <time>2026-08-28T19:07:40Z</time>
  <course>69.2</course>
  <speed>0.05</speed>
  <fix>3d</fix>
</trkpt>
<trkpt lat="40.0728608" lon="-105.2306209">
  <ele>1593.45</ele>
  <time>2026-08-28T19:07:40Z</time>
  <course>279.59</course>
  <speed>0.05</speed>
  <fix>3d</fix>
</trkpt>
<trkpt lat="40.072861" lon="-105.230621">
  <ele>1593.4</ele>
  <time>2026-08-28T19:07:40Z</time>
  <course>69.21</course>
  <speed>0.044721359549995794</speed>
  <fix>3d</fix>
</trkpt>
<trkpt lat="40.0728608" lon="-105.230621">
  <ele>1593.35</ele>
  <time>2026-08-28T19:07:40Z</time>
  <course>290.47</course>
  <speed>0.04</speed>
  <fix>3d</fix>
</trkpt>
<trkpt lat="40.072861" lon="-105.230621">
  <ele>1593.3</ele>
  <time>2026-08-28T19:07:40Z</time>
  <course>69.21</course>
  <speed>0.05099019513592785</speed>
  <fix>3d</fix>
</trkpt>
<trkpt lat="40.0728608" lon="-105.2306211">
  <ele>1593.25</ele>
  <time>2026-08-28T19:07:40Z</time>
  <course>303.47</course>
  <speed>0.04</speed>
  <fix>3d</fix>
</trkpt>
<trkpt lat="40.0728611" lon="-105.2306211">
  <ele>1593.2</ele>
  <time>2026-08-28T19:07:40Z</time>
  <course>69.29</course>
  <speed>0.05</speed>
  <fix>3d</fix>
</trkpt>
<trkpt lat="40.0728608" lon="-105.2306212">
  <ele>1593.15</ele>
  <time>2026-08-28T19:07:40Z</time>
  <course>318.17</course>
  <speed>0.04</speed>
  <fix>3d</fix>
</trkpt>
<trkpt lat="40.0728611" lon="-105.2306211">
  <ele>1593.1</ele>
  <time>2026-08-28T19:07:40Z</time>
  <course>69.33</course>
  <speed>0.06</speed>
  <fix>3d</fix>
</trkpt>
<trkpt lat="40.0728609" lon="-105.2306213">
  <ele>1593.06</ele>
  <time>2026-08-28T19:07:40Z</time>
  <course>332.88</course>
  <speed>0.04</speed>
  <fix>3d</fix>
</trkpt>
<trkpt lat="40.0728612" lon="-105.2306211">
  <ele>1593.0</ele>
  <time>2026-08-28T19:07:40Z</time>
  <course>69.36</course>
  <speed>0.06082762530298219</speed>
  <fix>3d</fix>
</trkpt>
<trkpt lat="40.072861" lon="-105.2306213">
  <ele>1592.96</ele>
  <time>2026-08-28T19:07:40Z</time>
  <course>346.04</course>
  <speed>0.04</speed>
  <fix>3d</fix>
</trkpt>
<trkpt lat="40.0728613" lon="-105.2306211">
  <ele>1592.9</ele>
  <time>2026-08-28T19:07:40Z</time>
  <course>69.34</course>
  <speed>0.0632455532033676</speed>
  <fix>3d</fix>
</trkpt>
<trkpt lat="40.0728611" lon="-105.2306213">
  <ele>1592.86</ele>
  <time>2026-08-28T19:07:40Z</time>
  <course>357.18</course>
  <speed>0.04</speed>
  <fix>3d</fix>
</trkpt>
<trkpt lat="40.0728613" lon="-105.2306211">
  <ele>1592.8</ele>
  <time>2026-08-28T19:07:40Z</time>
  <course>69.37</course>
  <speed>0.0632455532033676</speed>
  <fix>3d</fix>
</trkpt>
<trkpt lat="40.0728611" lon="-105.2306213">
  <ele>1592.76</ele>
  <time>2026-08-28T19:07:40Z</time>
  <course>6.39</course>
  <speed>0.04</speed>
  <fix>3d</fix>
</trkpt>
<trkpt lat="40.0728614" lon="-105.2306212">
  <ele>1592.7</ele>
  <time>2026-08-28T19:07:40Z</time>
  <course>69.41</course>
  <speed>0.0670820393249937</speed>
  <fix>3d</fix>
</trkpt>
<trkpt lat="40.0728612" lon="-105.2306213">
  <ele>1592.66</ele>
  <time>2026-08-28T19:07:40Z</time>
  <course>13.95</course>
  <speed>0.04</speed>
  <fix>3d</fix>
</trkpt>
<trkpt lat="40.0728615" lon="-105.2306211">
  <ele>1592.6</ele>
  <time>2026-08-28T19:07:40Z</time>
  <course>69.43</course>
  <speed>0.0670820393249937</speed>
  <fix>3d</fix>
</trkpt>
<trkpt lat="40.0728613" lon="-105.2306213">
  <ele>1592.57</ele>
  <time>2026-08-28T19:07:40Z</time>
  <course>20.68</course>
  <speed>0.04</speed>
  <fix>3d</fix>
</trkpt>
<trkpt lat="40.0728615" lon="-105.2306211">
  <ele>1592.5</ele>
  <time>2026-08-28T19:07:40Z</time>
  <course>69.45</course>
  <speed>0.05830951894845301</speed>
  <fix>3d</fix>
</trkpt>
<trkpt lat="40.0728614" lon="-105.2306213">
  <ele>1592.47</ele>
  <time>2026-08-28T19:07:40Z</time>
  <course>26.71</course>
  <speed>0.04</speed>
  <fix>3d</fix>
</trkpt>
<trkpt lat="40.0728616" lon="-105.2306211">
  <ele>1592.39</ele>
  <time>2026-08-28T19:07:40Z</time>
  <course>69.45</course>
  <speed>0.05830951894845301</speed>
  <fix>3d</fix>
</trkpt>
<trkpt lat="40.0728614" lon="-105.2306213">
  <ele>1592.37</ele>
  <time>2026-08-28T19:07:40Z</time>
  <course>32.37</course>
  <speed>0.04</speed>
  <fix>3d</fix>
</trkpt>
<trkpt lat="40.0728617" lon="-105.230621">
  <ele>1592.29</ele>
  <time>2026-08-28T19:07:40Z</time>
  <course>69.44</course>
  <speed>0.05830951894845301</speed>
  <fix>3d</fix>
</trkpt>
<trkpt lat="40.0728615" lon="-105.2306212">
  <ele>1592.28</ele>
  <time>2026-08-28T19:07:40Z</time>
  <course>38.07</course>
  <speed>0.04</speed>
  <fix>3d</fix>
</trkpt>
<trkpt lat="40.0728617" lon="-105.230621">
  <ele>1592.2</ele>
  <time>2026-08-28T19:07:40Z</time>
  <course>69.47</course>
  <speed>0.05</speed>
  <fix>3d</fix>
</trkpt>
<trkpt lat="40.0728615" lon="-105.2306212">
  <ele>1592.17</ele>
  <time>2026-08-28T19:07:40Z</time>
  <course>43.35</course>
  <speed>0.03</speed>
  <fix>3d</fix>
</trkpt>
<trkpt lat="40.0728617" lon="-105.2306209">
  <ele>1592.1</ele>
  <time>2026-08-28T19:07:40Z</time>
  <course>69.53</course>
  <speed>0.05</speed>
  <fix>3d</fix>
</trkpt>
<trkpt lat="40.0728616" lon="-105.2306211">
  <ele>1592.08</ele>
  <time>2026-08-28T19:07:40Z</time>
  <course>49.01</course>
  <speed>0.03</speed>
  <fix>3d</fix>
</trkpt>
<trkpt lat="40.0728618" lon="-105.2306209">
  <ele>1592.0</ele>
  <time>2026-08-28T19:07:40Z</time>
  <course>69.57</course>
  <speed>0.04242640687119285</speed>
  <fix>3d</fix>
</trkpt>
<trkpt lat="40.0728617" lon="-105.230621">
  <ele>1591.99</ele>
  <time>2026-08-28T19:07:40Z</time>
  <course>55.99</course>
  <speed>0.03</speed>
  <fix>3d</fix>
</trkpt>
<trkpt lat="40.0728618" lon="-105.2306208">
  <ele>1591.91</ele>
  <time>2026-08-28T19:07:40Z</time>
  <course>69.54</course>
  <speed>0.04242640687119285</speed>
  <fix>3d</fix>
</trkpt>
<trkpt lat="40.0728617" lon="-105.230621">
  <ele>1591.88</ele>
  <time>2026-08-28T19:07:40Z</time>
  <course>64.0</course>
  <speed>0.02</speed>
  <fix>3d</fix>
</trkpt>
<trkpt lat="40.0728618" lon="-105.2306208">
  <ele>1591.81</ele>
  <time>2026-08-28T19:07:40Z</time>
  <course>69.55</course>
  <speed>0.03605551275463989</speed>
  <fix>3d</fix>
</trkpt>
<trkpt lat="40.0728617" lon="-105.2306209">
  <ele>1591.79</ele>
  <time>2026-08-28T19:07:40Z</time>
  <course>73.61</course>
  <speed>0.02</speed>
  <fix>3d</fix>
</trkpt>
<trkpt lat="40.0728618" lon="-105.2306207">
  <ele>1591.7</ele>
  <time>2026-08-28T19:07:40Z</time>
  <course>69.57</course>
  <speed>0.0282842712474619</speed>
  <fix>3d</fix>
</trkpt>
<trkpt lat="40.0728617" lon="-105.2306208">
  <ele>1591.7</ele>
  <time>2026-08-28T19:07:40Z</time>
  <course>86.15</course>
  <speed>0.02</speed>
  <fix>3d</fix>
</trkpt>
<trkpt lat="40.0728618" lon="-105.2306207">
  <ele>1591.6</ele>
  <time>2026-08-28T19:07:40Z</time>
  <course>69.6</course>
  <speed>0.022360679774997897</speed>
  <fix>3d</fix>
</trkpt>
<trkpt lat="40.0728617" lon="-105.2306208">
  <ele>1591.6</ele>
  <time>2026-08-28T19:07:40Z</time>
  <course>101.9</course>
  <speed>0.01</speed>
  <fix>3d</fix>
</trkpt>
<trkpt lat="40.0728618" lon="-105.2306207">
  <ele>1591.5</ele>
  <time>2026-08-28T19:07:40Z</time>
  <course>69.63</course>
  <speed>0.022360679774997897</speed>
  <fix>3d</fix>
</trkpt>
<trkpt lat="40.0728617" lon="-105.2306208">
  <ele>1591.5</ele>
  <time>2026-08-28T19:07:40Z</time>
  <course>118.59</course>
  <speed>0.01</speed>
  <fix>3d</fix>
</trkpt>
<trkpt lat="40.0728618" lon="-105.2306206">
  <ele>1591.4</ele>
  <time>2026-08-28T19:07:40Z</time>
  <course>69.65</course>
  <speed>0.02</speed>
  <fix>3d</fix>
</trkpt>
<trkpt lat="40.0728617" lon="-105.2306208">
  <ele>1591.4</ele>
  <time>2026-08-28T19:07:40Z</time>
  <course>134.21</course>
  <speed>0.01</speed>
  <fix>3d</fix>
</trkpt>
<trkpt lat="40.0728618" lon="-105.2306206">
  <ele>1591.31</ele>
  <time>2026-08-28T19:07:40Z</time>
  <course>69.65</course>
  <speed>0.01</speed>
  <fix>3d</fix>
</trkpt>
<trkpt lat="40.0728617" lon="-105.2306207">
  <ele>1591.31</ele>
  <time>2026-08-28T19:07:40Z</time>
  <course>147.87</course>
  <speed>0.01</speed>
  <fix>3d</fix>
</trkpt>
<trkpt lat="40.0728618" lon="-105.2306206">
  <ele>1591.21</ele>
  <time>2026-08-28T19:07:40Z</time>
  <course>69.62</course>
  <speed>0.01</speed>
  <fix>3d</fix>
</trkpt>
<trkpt lat="40.0728617" lon="-105.2306206">
  <ele>1591.21</ele>
  <time>2026-08-28T19:07:40Z</time>
  <course>159.7</course>
  <speed>0.01</speed>
  <fix>3d</fix>
</trkpt>
<trkpt lat="40.0728618" lon="-105.2306206">
  <ele>1591.11</ele>
  <time>2026-08-28T19:07:40Z</time>
  <course>69.63</course>
  <speed>0.01</speed>
  <fix>3d</fix>
</trkpt>
<trkpt lat="40.0728617" lon="-105.2306206">
  <ele>1591.11</ele>
  <time>2026-08-28T19:07:40Z</time>
  <course>169.77</course>
  <speed>0.01</speed>
  <fix>3d</fix>
</trkpt>
<trkpt lat="40.0728618" lon="-105.2306206">
  <ele>1591.01</ele>
  <time>2026-08-28T19:07:40Z</time>
  <course>69.68</course>
  <speed>0.0</speed>
  <fix>3d</fix>
</trkpt>
<trkpt lat="40.0728617" lon="-105.2306206">
  <ele>1591.01</ele>
  <time>2026-08-28T19:07:40Z</time>
  <course>178.42</course>
  <speed>0.02</speed>
  <fix>3d</fix>
</trkpt>
<trkpt lat="40.0728617" lon="-105.2306206">
  <ele>1590.92</ele>
  <time>2026-08-28T19:07:40Z</time>
  <course>69.68</course>
  <speed>0.0</speed>
  <fix>3d</fix>
</trkpt>
<trkpt lat="40.0728616" lon="-105.2306206">
  <ele>1590.91</ele>
  <time>2026-08-28T19:07:40Z</time>
  <course>186.23</course>
  <speed>0.02</speed>
  <fix>3d</fix>
</trkpt>
<trkpt lat="40.0728617" lon="-105.2306206">
  <ele>1590.82</ele>
  <time>2026-08-28T19:07:40Z</time>
  <course>69.71</course>
  <speed>0.0</speed>
  <fix>3d</fix>
</trkpt>
<trkpt lat="40.0728615" lon="-105.2306206">
  <ele>1590.82</ele>
  <time>2026-08-28T19:07:40Z</time>
  <course>193.31</course>
  <speed>0.02</speed>
  <fix>3d</fix>
</trkpt>
<trkpt lat="40.0728617" lon="-105.2306206">
  <ele>1590.72</ele>
  <time>2026-08-28T19:07:40Z</time>
  <course>69.73</course>
  <speed>0.0</speed>
  <fix>3d</fix>
</trkpt>
<trkpt lat="40.0728615" lon="-105.2306206">
  <ele>1590.72</ele>
  <time>2026-08-28T19:07:40Z</time>
  <course>199.55</course>
  <speed>0.02</speed>
  <fix>3d</fix>
</trkpt>
<trkpt lat="40.0728617" lon="-105.2306206">
  <ele>1590.62</ele>
  <time>2026-08-28T19:07:40Z</time>
  <course>69.74</course>
  <speed>0.0</speed>
  <fix>3d</fix>
</trkpt>
<trkpt lat="40.0728614" lon="-105.2306206">
  <ele>1590.62</ele>
  <time>2026-08-28T19:07:40Z</time>
  <course>204.63</course>
  <speed>0.02</speed>
  <fix>3d</fix>
</trkpt>
<trkpt lat="40.0728616" lon="-105.2306206">
  <ele>1590.52</ele>
  <time>2026-08-28T19:07:40Z</time>
  <course>69.76</course>
  <speed>0.0</speed>
  <fix>3d</fix>
</trkpt>
<trkpt lat="40.0728614" lon="-105.2306206">
  <ele>1590.52</ele>
  <time>2026-08-28T19:07:40Z</time>
  <course>209.67</course>
  <speed>0.02</speed>
  <fix>3d</fix>
</trkpt>
<trkpt lat="40.0728616" lon="-105.2306206">
  <ele>1590.42</ele>
  <time>2026-08-28T19:07:40Z</time>
  <course>69.76</course>
  <speed>0.01</speed>
  <fix>3d</fix>
</trkpt>
<trkpt lat="40.0728614" lon="-105.2306206">
  <ele>1590.41</ele>
  <time>2026-08-28T19:07:40Z</time>
  <course>215.05</course>
  <speed>0.02</speed>
  <fix>3d</fix>
</trkpt>
<trkpt lat="40.0728616" lon="-105.2306206">
  <ele>1590.31</ele>
  <time>2026-08-28T19:07:40Z</time>
  <course>69.78</course>
  <speed>0.01</speed>
  <fix>3d</fix>
</trkpt>
<trkpt lat="40.0728614" lon="-105.2306207">
  <ele>1590.31</ele>
  <time>2026-08-28T19:07:40Z</time>
  <course>221.42</course>
  <speed>0.02</speed>
  <fix>3d</fix>
</trkpt>
<trkpt lat="40.0728615" lon="-105.2306206">
  <ele>1590.21</ele>
  <time>2026-08-28T19:07:40Z</time>
  <course>69.75</course>
  <speed>0.01</speed>
  <fix>3d</fix>
</trkpt>
<trkpt lat="40.0728614" lon="-105.2306208">
  <ele>1590.21</ele>
  <time>2026-08-28T19:07:40Z</time>
  <course>228.83</course>
  <speed>0.01</speed>
  <fix>3d</fix>
</trkpt>
<trkpt lat="40.0728615" lon="-105.2306206">
  <ele>1590.11</ele>
  <time>2026-08-28T19:07:40Z</time>
  <course>69.76</course>
  <speed>0.01</speed>
  <fix>3d</fix>
</trkpt>
<trkpt lat="40.0728614" lon="-105.2306208">
  <ele>1590.11</ele>
  <time>2026-08-28T19:07:40Z</time>
  <course>236.4</course>
  <speed>0.01</speed>
  <fix>3d</fix>
</trkpt>
<trkpt lat="40.0728615" lon="-105.2306207">
  <ele>1590.01</ele>
  <time>2026-08-28T19:07:40Z</time>
  <course>69.79</course>
  <speed>0.02</speed>
  <fix>3d</fix>
</trkpt>
<trkpt lat="40.0728614" lon="-105.2306208">
  <ele>1590.01</ele>
  <time>2026-08-28T19:07:40Z</time>
  <course>244.4</course>
  <speed>0.01</speed>
  <fix>3d</fix>
</trkpt>
<trkpt lat="40.0728615" lon="-105.2306207">
  <ele>1589.91</ele>
  <time>2026-08-28T19:07:40Z</time>
  <course>69.78</course>
  <speed>0.02</speed>
  <fix>3d</fix>
</trkpt>
<trkpt lat="40.0728614" lon="-105.2306208">
  <ele>1589.9</ele>
  <time>2026-08-28T19:07:40Z</time>
  <course>251.36</course>
  <speed>0.01</speed>
  <fix>3d</fix>
</trkpt>
<trkpt lat="40.0728615" lon="-105.2306207">
  <ele>1589.81</ele>
  <time>2026-08-28T19:07:40Z</time>
  <course>69.79</course>
  <speed>0.02</speed>
  <fix>3d</fix>
</trkpt>
<trkpt lat="40.0728613" lon="-105.2306208">
  <ele>1589.81</ele>
  <time>2026-08-28T19:07:40Z</time>
  <course>257.62</course>
  <speed>0.01</speed>
  <fix>3d</fix>
</trkpt>
<trkpt lat="40.0728615" lon="-105.2306208">
  <ele>1589.71</ele>
  <time>2026-08-28T19:07:40Z</time>
  <course>69.82</course>
  <speed>0.02</speed>
  <fix>3d</fix>
</trkpt>
<trkpt lat="40.0728613" lon="-105.2306208">
  <ele>1589.72</ele>
  <time>2026-08-28T19:07:40Z</time>
  <course>265.08</course>
  <speed>0.01</speed>
  <fix>3d</fix>
</trkpt>
<trkpt lat="40.0728615" lon="-105.2306208">
  <ele>1589.61</ele>
  <time>2026-08-28T19:07:40Z</time>
  <course>69.79</course>
  <speed>0.02</speed>
  <fix>3d</fix>
</trkpt>
<trkpt lat="40.0728613" lon="-105.2306209">
  <ele>1589.62</ele>
  <time>2026-08-28T19:07:40Z</time>
  <course>271.59</course>
  <speed>0.0</speed>
  <fix>3d</fix>
</trkpt>
<trkpt lat="40.0728615" lon="-105.2306208">
  <ele>1589.51</ele>
  <time>2026-08-28T19:07:40Z</time>
  <course>69.81</course>
  <speed>0.02</speed>
  <fix>3d</fix>
</trkpt>
<trkpt lat="40.0728613" lon="-105.230621">
  <ele>1589.52</ele>
  <time>2026-08-28T19:07:40Z</time>
  <course>280.64</course>
  <speed>0.0</speed>
  <fix>3d</fix>
</trkpt>
<trkpt lat="40.0728615" lon="-105.2306208">
  <ele>1589.41</ele>
  <time>2026-08-28T19:07:40Z</time>
  <course>69.85</course>
  <speed>0.02</speed>
  <fix>3d</fix>
</trkpt>
<trkpt lat="40.0728614" lon="-105.230621">
  <ele>1589.41</ele>
  <time>2026-08-28T19:07:40Z</time>
  <course>296.31</course>
  <speed>0.0</speed>
  <fix>3d</fix>
</trkpt>
<trkpt lat="40.0728615" lon="-105.2306208">
  <ele>1589.32</ele>
  <time>2026-08-28T19:07:40Z</time>
  <course>69.85</course>
  <speed>0.03</speed>
  <fix>3d</fix>
</trkpt>
<trkpt lat="40.0728614" lon="-105.230621">
  <ele>1589.32</ele>
  <time>2026-08-28T19:07:40Z</time>
  <course>312.86</course>
  <speed>0.0</speed>
  <fix>3d</fix>
</trkpt>
<trkpt lat="40.0728615" lon="-105.2306208">
  <ele>1589.22</ele>
  <time>2026-08-28T19:07:40Z</time>
  <course>69.86</course>
  <speed>0.022360679774997897</speed>
  <fix>3d</fix>
</trkpt>
<trkpt lat="40.0728614" lon="-105.230621">
  <ele>1589.22</ele>
  <time>2026-08-28T19:07:40Z</time>
  <course>329.52</course>
  <speed>0.0</speed>
  <fix>3d</fix>
</trkpt>
<trkpt lat="40.0728615" lon="-105.2306208">
  <ele>1589.11</ele>
  <time>2026-08-28T19:07:40Z</time>
  <course>69.88</course>
  <speed>0.0316227766016838</speed>
  <fix>3d</fix>
</trkpt>
<trkpt lat="40.0728614" lon="-105.230621">
  <ele>1589.12</ele>
  <time>2026-08-28T19:07:40Z</time>
  <course>348.43</course>
  <speed>0.0</speed>
  <fix>3d</fix>
</trkpt>
<trkpt lat="40.0728615" lon="-105.2306208">
  <ele>1589.01</ele>
  <time>2026-08-28T19:07:40Z</time>
  <course>69.87</course>
  <speed>0.0316227766016838</speed>
  <fix>3d</fix>
</trkpt>
<trkpt lat="40.0728614" lon="-105.230621">
  <ele>1589.02</ele>
  <time>2026-08-28T19:07:40Z</time>
  <course>5.63</course>
  <speed>0.0</speed>
  <fix>3d</fix>
</trkpt>
<trkpt lat="40.0728615" lon="-105.2306208">
  <ele>1588.92</ele>
  <time>2026-08-28T19:07:40Z</time>
  <course>69.89</course>
  <speed>0.0316227766016838</speed>
  <fix>3d</fix>
</trkpt>
<trkpt lat="40.0728614" lon="-105.230621">
  <ele>1588.91</ele>
  <time>2026-08-28T19:07:40Z</time>
  <course>18.6</course>
  <speed>0.0</speed>
  <fix>3d</fix>
</trkpt>
<trkpt lat="40.0728615" lon="-105.2306208">
  <ele>1588.82</ele>
  <time>2026-08-28T19:07:40Z</time>
  <course>69.91</course>
  <speed>0.022360679774997897</speed>
  <fix>3d</fix>
</trkpt>
<trkpt lat="40.0728614" lon="-105.230621">
  <ele>1588.82</ele>
  <time>2026-08-28T19:07:40Z</time>
  <course>26.87</course>
  <speed>0.0</speed>
  <fix>3d</fix>
</trkpt>
<trkpt lat="40.0728615" lon="-105.2306208">
  <ele>1588.72</ele>
  <time>2026-08-28T19:07:40Z</time>
  <course>69.92</course>
  <speed>0.022360679774997897</speed>
  <fix>3d</fix>
</trkpt>
<trkpt lat="40.0728614" lon="-105.230621">
  <ele>1588.72</ele>
  <time>2026-08-28T19:07:40Z</time>
  <course>34.8</course>
  <speed>0.0</speed>
  <fix>3d</fix>
</trkpt>
<trkpt lat="40.0728616" lon="-105.2306208">
  <ele>1588.62</ele>
  <time>2026-08-28T19:07:40Z</time>
  <course>69.92</course>
  <speed>0.022360679774997897</speed>
  <fix>3d</fix>
</trkpt>
<trkpt lat="40.0728614" lon="-105.230621">
  <ele>1588.62</ele>
  <time>2026-08-28T19:07:40Z</time>
  <course>42.78</course>
  <speed>0.0</speed>
  <fix>3d</fix>
</trkpt>
<trkpt lat="40.0728616" lon="-105.2306208">
  <ele>1588.52</ele>
  <time>2026-08-28T19:07:40Z</time>
  <course>69.93</course>
  <speed>0.022360679774997897</speed>
  <fix>3d</fix>
</trkpt>
<trkpt lat="40.0728614" lon="-105.230621">
  <ele>1588.52</ele>
  <time>2026-08-28T19:07:40Z</time>
  <course>48.84</course>
  <speed>0.0</speed>
  <fix>3d</fix>
</trkpt>
<trkpt lat="40.0728616" lon="-105.2306208">
  <ele>1588.42</ele>
  <time>2026-08-28T19:07:40Z</time>
  <course>69.93</course>
  <speed>0.022360679774997897</speed>
  <fix>3d</fix>
</trkpt>
<trkpt lat="40.0728614" lon="-105.230621">
  <ele>1588.41</ele>
  <time>2026-08-28T19:07:40Z</time>
  <course>54.07</course>
  <speed>0.0</speed>
  <fix>3d</fix>
</trkpt>
<trkpt lat="40.0728616" lon="-105.2306208">
  <ele>1588.31</ele>
  <time>2026-08-28T19:07:40Z</time>
  <course>69.94</course>
  <speed>0.022360679774997897</speed>
  <fix>3d</fix>
</trkpt>
<trkpt lat="40.0728614" lon="-105.230621">
  <ele>1588.32</ele>
  <time>2026-08-28T19:07:40Z</time>
  <course>58.32</course>
  <speed>0.0</speed>
  <fix>3d</fix>
</trkpt>
<trkpt lat="40.0728616" lon="-105.2306208">
  <ele>1588.21</ele>
  <time>2026-08-28T19:07:40Z</time>
  <course>69.94</course>
  <speed>0.022360679774997897</speed>
  <fix>3d</fix>
</trkpt>
<trkpt lat="40.0728614" lon="-105.230621">
  <ele>1588.22</ele>
  <time>2026-08-28T19:07:40Z</time>
  <course>60.48</course>
  <speed>0.0</speed>
  <fix>3d</fix>
</trkpt>
<trkpt lat="40.0728616" lon="-105.2306208">
  <ele>1588.11</ele>
  <time>2026-08-28T19:07:40Z</time>
  <course>69.95</course>
  <speed>0.022360679774997897</speed>
  <fix>3d</fix>
</trkpt>
<trkpt lat="40.0728614" lon="-105.230621">
  <ele>1588.12</ele>
  <time>2026-08-28T19:07:40Z</time>
  <course>59.94</course>
  <speed>0.01</speed>
  <fix>3d</fix>
</trkpt>
<trkpt lat="40.0728616" lon="-105.2306208">
  <ele>1588.01</ele>
  <time>2026-08-28T19:07:40Z</time>
  <course>69.94</course>
  <speed>0.022360679774997897</speed>
  <fix>3d</fix>
</trkpt>
<trkpt lat="40.0728614" lon="-105.230621">
  <ele>1588.02</ele>
  <time>2026-08-28T19:07:40Z</time>
  <course>59.27</course>
  <speed>0.01</speed>
  <fix>3d</fix>
</trkpt>
<trkpt lat="40.0728616" lon="-105.2306208">
  <ele>1587.91</ele>
  <time>2026-08-28T19:07:40Z</time>
  <course>69.93</course>
  <speed>0.022360679774997897</speed>
  <fix>3d</fix>
</trkpt>
<trkpt lat="40.0728614" lon="-105.230621">
  <ele>1587.91</ele>
  <time>2026-08-28T19:07:40Z</time>
  <course>59.96</course>
  <speed>0.01</speed>
  <fix>3d</fix>
</trkpt>
<trkpt lat="40.0728616" lon="-105.2306208">
  <ele>1587.81</ele>
  <time>2026-08-28T19:07:40Z</time>
  <course>69.95</course>
  <speed>0.022360679774997897</speed>
  <fix>3d</fix>
</trkpt>
<trkpt lat="40.0728614" lon="-105.2306209">
  <ele>1587.82</ele>
  <time>2026-08-28T19:07:40Z</time>
  <course>59.69</course>
  <speed>0.0</speed>
  <fix>3d</fix>
</trkpt>
<trkpt lat="40.0728616" lon="-105.2306208">
  <ele>1587.71</ele>
  <time>2026-08-28T19:07:40Z</time>
  <course>69.98</course>
  <speed>0.022360679774997897</speed>
  <fix>3d</fix>
</trkpt>
<trkpt lat="40.0728614" lon="-105.2306208">
  <ele>1587.72</ele>
  <time>2026-08-28T19:07:40Z</time>
  <course>59.15</course>
  <speed>0.0</speed>
  <fix>3d</fix>
</trkpt>
<trkpt lat="40.0728616" lon="-105.2306208">
  <ele>1587.61</ele>
  <time>2026-08-28T19:07:40Z</time>
  <course>69.96</course>
  <speed>0.022360679774997897</speed>
  <fix>3d</fix>
</trkpt>
<trkpt lat="40.0728614" lon="-105.2306208">
  <ele>1587.62</ele>
  <time>2026-08-28T19:07:40Z</time>
  <course>59.68</course>
  <speed>0.0</speed>
  <fix>3d</fix>
</trkpt>
<trkpt lat="40.0728616" lon="-105.2306208">
  <ele>1587.51</ele>
  <time>2026-08-28T19:07:40Z</time>
  <course>69.99</course>
  <speed>0.022360679774997897</speed>
  <fix>3d</fix>
</trkpt>
<trkpt lat="40.0728614" lon="-105.2306208">
  <ele>1587.52</ele>
  <time>2026-08-28T19:07:40Z</time>
  <course>57.94</course>
  <speed>0.0</speed>
  <fix>3d</fix>
</trkpt>
<trkpt lat="40.0728616" lon="-105.2306208">
  <ele>1587.41</ele>
  <time>2026-08-28T19:07:40Z</time>
  <course>69.99</course>
  <speed>0.022360679774997897</speed>
  <fix>3d</fix>
</trkpt>
<trkpt lat="40.0728614" lon="-105.2306208">
  <ele>1587.41</ele>
  <time>2026-08-28T19:07:40Z</time>
  <course>53.56</course>
  <speed>0.0</speed>
  <fix>3d</fix>
</trkpt>
<trkpt lat="40.0728616" lon="-105.2306207">
  <ele>1587.31</ele>
  <time>2026-08-28T19:07:40Z</time>
  <course>69.99</course>
  <speed>0.022360679774997897</speed>
  <fix>3d</fix>
</trkpt>
<trkpt lat="40.0728614" lon="-105.2306208">
  <ele>1587.32</ele>
  <time>2026-08-28T19:07:40Z</time>
  <course>45.47</course>
  <speed>0.0</speed>
  <fix>3d</fix>
</trkpt>
<trkpt lat="40.0728616" lon="-105.2306207">
  <ele>1587.21</ele>
  <time>2026-08-28T19:07:40Z</time>
  <course>70.02</course>
  <speed>0.022360679774997897</speed>
  <fix>3d</fix>
</trkpt>
<trkpt lat="40.0728614" lon="-105.2306208">
  <ele>1587.22</ele>
  <time>2026-08-28T19:07:40Z</time>
  <course>34.23</course>
  <speed>0.0</speed>
  <fix>3d</fix>
</trkpt>
<trkpt lat="40.0728616" lon="-105.2306207">
  <ele>1587.11</ele>
  <time>2026-08-28T19:07:40Z</time>
  <course>70.0</course>
  <speed>0.022360679774997897</speed>
  <fix>3d</fix>
</trkpt>
<trkpt lat="40.0728614" lon="-105.2306208">
  <ele>1587.12</ele>
  <time>2026-08-28T19:07:40Z</time>
  <course>24.77</course>
  <speed>0.0</speed>
  <fix>3d</fix>
</trkpt>
<trkpt lat="40.0728616" lon="-105.2306207">
  <ele>1587.01</ele>
  <time>2026-08-28T19:07:40Z</time>
  <course>70.02</course>
  <speed>0.022360679774997897</speed>
  <fix>3d</fix>
</trkpt>
<trkpt lat="40.0728614" lon="-105.2306208">
  <ele>1587.02</ele>
  <time>2026-08-28T19:07:40Z</time>
  <course>15.26</course>
  <speed>0.0</speed>
  <fix>3d</fix>
</trkpt>
<trkpt lat="40.0728616" lon="-105.2306207">
  <ele>1586.91</ele>
  <time>2026-08-28T19:07:40Z</time>
  <course>70.03</course>
  <speed>0.02</speed>
  <fix>3d</fix>
</trkpt>
<trkpt lat="40.0728614" lon="-105.2306208">
  <ele>1586.91</ele>
  <time>2026-08-28T19:07:40Z</time>
  <course>4.41</course>
  <speed>0.0</speed>
  <fix>3d</fix>
</trkpt>
<trkpt lat="40.0728616" lon="-105.2306207">
  <ele>1586.81</ele>
  <time>2026-08-28T19:07:40Z</time>
  <course>70.01</course>
  <speed>0.02</speed>
  <fix>3d</fix>
</trkpt>
<trkpt lat="40.0728614" lon="-105.2306208">
  <ele>1586.82</ele>
  <time>2026-08-28T19:07:40Z</time>
  <course>354.39</course>
  <speed>0.0</speed>
  <fix>3d</fix>
</trkpt>
<trkpt lat="40.0728616" lon="-105.2306207">
  <ele>1586.71</ele>
  <time>2026-08-28T19:07:40Z</time>
  <course>70.03</course>
  <speed>0.02</speed>
  <fix>3d</fix>
</trkpt>
<trkpt lat="40.0728614" lon="-105.2306208">
  <ele>1586.72</ele>
  <time>2026-08-28T19:07:40Z</time>
  <course>346.29</course>
  <speed>0.0</speed>
  <fix>3d</fix>
</trkpt>
<trkpt lat="40.0728616" lon="-105.2306208">
  <ele>1586.61</ele>
  <time>2026-08-28T19:07:40Z</time>
  <course>70.02</course>
  <speed>0.02</speed>
  <fix>3d</fix>
</trkpt>
<trkpt lat="40.0728614" lon="-105.2306208">
  <ele>1586.63</ele>
  <time>2026-08-28T19:07:40Z</time>
  <course>340.83</course>
  <speed>0.0</speed>
  <fix>3d</fix>
</trkpt>
<trkpt lat="40.0728616" lon="-105.2306208">
  <ele>1586.51</ele>
  <time>2026-08-28T19:07:40Z</time>
  <course>70.03</course>
  <speed>0.02</speed>
  <fix>3d</fix>
</trkpt>
<trkpt lat="40.0728614" lon="-105.2306208">
  <ele>1586.53</ele>
  <time>2026-08-28T19:07:40Z</time>
  <course>336.98</course>
  <speed>0.0</speed>
  <fix>3d</fix>
</trkpt>
<trkpt lat="40.0728616" lon="-105.2306208">
  <ele>1586.41</ele>
  <time>2026-08-28T19:07:40Z</time>
  <course>70.05</course>
  <speed>0.02</speed>
  <fix>3d</fix>
</trkpt>
<trkpt lat="40.0728614" lon="-105.2306208">
  <ele>1586.42</ele>
  <time>2026-08-28T19:07:40Z</time>
  <course>335.05</course>
  <speed>0.0</speed>
  <fix>3d</fix>
</trkpt>
<trkpt lat="40.0728616" lon="-105.2306208">
  <ele>1586.31</ele>
  <time>2026-08-28T19:07:40Z</time>
  <course>70.06</course>
  <speed>0.02</speed>
  <fix>3d</fix>
</trkpt>
<trkpt lat="40.0728615" lon="-105.2306208">
  <ele>1586.33</ele>
  <time>2026-08-28T19:07:40Z</time>
  <course>334.47</course>
  <speed>0.0</speed>
  <fix>3d</fix>
</trkpt>
<trkpt lat="40.0728616" lon="-105.2306208">
  <ele>1586.21</ele>
  <time>2026-08-28T19:07:41Z</time>
  <course>70.04</course>
  <speed>0.02</speed>
  <fix>3d</fix>
</trkpt>
<trkpt lat="40.0728615" lon="-105.2306208">
  <ele>1586.23</ele>
  <time>2026-08-28T19:07:41Z</time>
  <course>333.64</course>
  <speed>0.0</speed>
  <fix>3d</fix>
</trkpt>
<trkpt lat="40.0728616" lon="-105.2306208">
  <ele>1586.12</ele>
  <time>2026-08-28T19:07:41Z</time>
  <course>70.07</course>
  <speed>0.02</speed>
  <fix>3d</fix>
</trkpt>
<trkpt lat="40.0728615" lon="-105.2306208">
  <ele>1586.13</ele>
  <time>2026-08-28T19:07:41Z</time>
  <course>332.43</course>
  <speed>0.0</speed>
  <fix>3d</fix>
</trkpt>
<trkpt lat="40.0728616" lon="-105.2306208">
  <ele>1586.04</ele>
  <time>2026-08-28T19:07:41Z</time>
  <course>70.06</course>
  <speed>0.04</speed>
  <fix>3d</fix>
</trkpt>
<trkpt lat="40.0728615" lon="-105.2306208">
  <ele>1586.03</ele>
  <time>2026-08-28T19:07:41Z</time>
  <course>335.81</course>
  <speed>0.01</speed>
  <fix>3d</fix>
</trkpt>
<trkpt lat="40.0728616" lon="-105.2306208">
  <ele>1586.07</ele>
  <time>2026-08-28T19:07:41Z</time>
  <course>70.06</course>
  <speed>0.022360679774997897</speed>
  <fix>3d</fix>
</trkpt>
<trkpt lat="40.0728615" lon="-105.2306208">
  <ele>1585.98</ele>
  <time>2026-08-28T19:07:41Z</time>
  <course>342.39</course>
  <speed>0.01</speed>
  <fix>3d</fix>
</trkpt>
<trkpt lat="40.0728616" lon="-105.2306208">
  <ele>1586.07</ele>
  <time>2026-08-28T19:07:41Z</time>
  <course>70.07</course>
  <speed>0.01414213562373095</speed>
  <fix>3d</fix>
</trkpt>
<trkpt lat="40.0728615" lon="-105.2306208">
  <ele>1585.99</ele>
  <time>2026-08-28T19:07:41Z</time>
  <course>19.12</course>
  <speed>0.0</speed>
  <fix>3d</fix>
</trkpt>
<trkpt lat="40.0728616" lon="-105.2306208">
  <ele>1586.07</ele>
  <time>2026-08-28T19:07:41Z</time>
  <course>70.11</course>
  <speed>0.02</speed>
  <fix>3d</fix>
</trkpt>
<trkpt lat="40.0728615" lon="-105.2306208">
  <ele>1586.0</ele>
  <time>2026-08-28T19:07:41Z</time>
  <course>146.55</course>
  <speed>0.0</speed>
  <fix>3d</fix>
</trkpt>
<trkpt lat="40.0728616" lon="-105.2306208">
  <ele>1586.06</ele>
  <time>2026-08-28T19:07:41Z</time>
  <course>70.14</course>
  <speed>0.022360679774997897</speed>
  <fix>3d</fix>
</trkpt>
<trkpt lat="40.0728615" lon="-105.2306208">
  <ele>1586.0</ele>
  <time>2026-08-28T19:07:41Z</time>
  <course>173.56</course>
  <speed>0.0</speed>
  <fix>3d</fix>
</trkpt>
<trkpt lat="40.0728616" lon="-105.2306208">
  <ele>1586.07</ele>
  <time>2026-08-28T19:07:41Z</time>
  <course>70.17</course>
  <speed>0.022360679774997897</speed>
  <fix>3d</fix>
</trkpt>
<trkpt lat="40.0728615" lon="-105.2306208">
  <ele>1586.0</ele>
  <time>2026-08-28T19:07:41Z</time>
  <course>24.0</course>
  <speed>0.0</speed>
  <fix>3d</fix>
</trkpt>
<trkpt lat="40.0728616" lon="-105.2306208">
  <ele>1586.07</ele>
  <time>2026-08-28T19:07:41Z</time>
  <course>70.2</course>
  <speed>0.022360679774997897</speed>
  <fix>3d</fix>
</trkpt>
<trkpt lat="40.0728615" lon="-105.2306208">
  <ele>1586.0</ele>
  <time>2026-08-28T19:07:41Z</time>
  <course>88.7</course>
  <speed>0.0</speed>
  <fix>3d</fix>
</trkpt>
<trkpt lat="40.0728616" lon="-105.2306208">
  <ele>1586.07</ele>
  <time>2026-08-28T19:07:41Z</time>
  <course>70.22</course>
  <speed>0.022360679774997897</speed>
  <fix>3d</fix>
</trkpt>
<trkpt lat="40.0728615" lon="-105.2306208">
  <ele>1586.0</ele>
  <time>2026-08-28T19:07:41Z</time>
  <course>124.85</course>
  <speed>0.0</speed>
  <fix>3d</fix>
</trkpt>
<trkpt lat="40.0728616" lon="-105.2306208">
  <ele>1586.07</ele>
  <time>2026-08-28T19:07:41Z</time>
  <course>70.25</course>
  <speed>0.022360679774997897</speed>
  <fix>3d</fix>
</trkpt>
<trkpt lat="40.0728615" lon="-105.2306208">
  <ele>1586.0</ele>
  <time>2026-08-28T19:07:41Z</time>
  <course>98.73</course>
  <speed>0.0</speed>
  <fix>3d</fix>
</trkpt>
<trkpt lat="40.0728616" lon="-105.2306208">
  <ele>1586.08</ele>
  <time>2026-08-28T19:07:41Z</time>
  <course>70.27</course>
  <speed>0.022360679774997897</speed>
  <fix>3d</fix>
</trkpt>
<trkpt lat="40.0728615" lon="-105.2306208">
  <ele>1586.0</ele>
  <time>2026-08-28T19:07:41Z</time>
  <course>57.84</course>
  <speed>0.0</speed>
  <fix>3d</fix>
</trkpt>
<trkpt lat="40.0728616" lon="-105.2306208">
  <ele>1586.08</ele>
  <time>2026-08-28T19:07:41Z</time>
  <course>70.29</course>
  <speed>0.01414213562373095</speed>
  <fix>3d</fix>
</trkpt>
<trkpt lat="40.0728615" lon="-105.2306208">
  <ele>1586.0</ele>
  <time>2026-08-28T19:07:41Z</time>
  <course>151.42</course>
  <speed>0.0</speed>
  <fix>3d</fix>
</trkpt>
<trkpt lat="40.0728616" lon="-105.2306207">
  <ele>1586.08</ele>
  <time>2026-08-28T19:07:41Z</time>
  <course>70.28</course>
  <speed>0.01</speed>
  <fix>3d</fix>
</trkpt>
<trkpt lat="40.0728615" lon="-105.2306208">
  <ele>1586.0</ele>
  <time>2026-08-28T19:07:41Z</time>
  <course>160.84</course>
  <speed>0.0</speed>
  <fix>3d</fix>
</trkpt>
<trkpt lat="40.0728616" lon="-105.2306207">
  <ele>1586.08</ele>
  <time>2026-08-28T19:07:41Z</time>
  <course>70.26</course>
  <speed>0.01414213562373095</speed>
  <fix>3d</fix>
</trkpt>
<trkpt lat="40.0728615" lon="-105.2306208">
  <ele>1586.0</ele>
  <time>2026-08-28T19:07:41Z</time>
  <course>165.4</course>
  <speed>0.0</speed>
  <fix>3d</fix>
</trkpt>
<trkpt lat="40.0728616" lon="-105.2306207">
  <ele>1586.08</ele>
  <time>2026-08-28T19:07:41Z</time>
  <course>70.24</course>
  <speed>0.02</speed>
  <fix>3d</fix>
</trkpt>
<trkpt lat="40.0728615" lon="-105.2306208">
  <ele>1586.0</ele>
  <time>2026-08-28T19:07:41Z</time>
  <course>207.6</course>
  <speed>0.0</speed>
  <fix>3d</fix>
</trkpt>
<trkpt lat="40.0728616" lon="-105.2306207">
  <ele>1586.08</ele>
  <time>2026-08-28T19:07:41Z</time>
  <course>70.24</course>
  <speed>0.022360679774997897</speed>
  <fix>3d</fix>
</trkpt>
<trkpt lat="40.0728615" lon="-105.2306208">
  <ele>1586.0</ele>
  <time>2026-08-28T19:07:41Z</time>
  <course>310.83</course>
  <speed>0.0</speed>
  <fix>3d</fix>
</trkpt>
<trkpt lat="40.0728616" lon="-105.2306208">
  <ele>1586.09</ele>
  <time>2026-08-28T19:07:41Z</time>
  <course>70.23</course>
  <speed>0.022360679774997897</speed>
  <fix>3d</fix>
</trkpt>
<trkpt lat="40.0728615" lon="-105.2306208">
  <ele>1586.0</ele>
  <time>2026-08-28T19:07:41Z</time>
  <course>295.63</course>
  <speed>0.0</speed>
  <fix>3d</fix>
</trkpt>
<trkpt lat="40.0728616" lon="-105.2306208">
  <ele>1586.09</ele>
  <time>2026-08-28T19:07:41Z</time>
  <course>70.23</course>
  <speed>0.022360679774997897</speed>
  <fix>3d</fix>
</trkpt>
<trkpt lat="40.0728615" lon="-105.2306208">
  <ele>1586.0</ele>
  <time>2026-08-28T19:07:41Z</time>
  <course>292.82</course>
  <speed>0.0</speed>
  <fix>3d</fix>
</trkpt>
<trkpt lat="40.0728616" lon="-105.2306207">
  <ele>1586.08</ele>
  <time>2026-08-28T19:07:41Z</time>
  <course>70.22</course>
  <speed>0.022360679774997897</speed>
  <fix>3d</fix>
</trkpt>
<trkpt lat="40.0728615" lon="-105.2306208">
  <ele>1586.0</ele>
  <time>2026-08-28T19:07:41Z</time>
  <course>293.74</course>
  <speed>0.0</speed>
  <fix>3d</fix>
</trkpt>
<trkpt lat="40.0728616" lon="-105.2306207">
  <ele>1586.09</ele>
  <time>2026-08-28T19:07:41Z</time>
  <course>70.22</course>
  <speed>0.022360679774997897</speed>
  <fix>3d</fix>
</trkpt>
<trkpt lat="40.0728615" lon="-105.2306208">
  <ele>1586.0</ele>
  <time>2026-08-28T19:07:41Z</time>
  <course>287.18</course>
  <speed>0.0</speed>
  <fix>3d</fix>
</trkpt>
<trkpt lat="40.0728616" lon="-105.2306207">
  <ele>1586.09</ele>
  <time>2026-08-28T19:07:41Z</time>
  <course>70.21</course>
  <speed>0.022360679774997897</speed>
  <fix>3d</fix>
</trkpt>
<trkpt lat="40.0728615" lon="-105.2306208">
  <ele>1586.0</ele>
  <time>2026-08-28T19:07:41Z</time>
  <course>128.45</course>
  <speed>0.0</speed>
  <fix>3d</fix>
</trkpt>
<trkpt lat="40.0728616" lon="-105.2306207">
  <ele>1586.09</ele>
  <time>2026-08-28T19:07:41Z</time>
  <course>70.21</course>
  <speed>0.022360679774997897</speed>
  <fix>3d</fix>
</trkpt>
<trkpt lat="40.0728615" lon="-105.2306208">
  <ele>1586.0</ele>
  <time>2026-08-28T19:07:41Z</time>
  <course>111.79</course>
  <speed>0.0</speed>
  <fix>3d</fix>
</trkpt>
<trkpt lat="40.0728616" lon="-105.2306207">
  <ele>1586.08</ele>
  <time>2026-08-28T19:07:41Z</time>
  <course>70.21</course>
  <speed>0.022360679774997897</speed>
  <fix>3d</fix>
</trkpt>
<trkpt lat="40.0728615" lon="-105.2306208">
  <ele>1586.0</ele>
  <time>2026-08-28T19:07:41Z</time>
  <course>279.58</course>
  <speed>0.0</speed>
  <fix>3d</fix>
</trkpt>
<trkpt lat="40.0728616" lon="-105.2306207">
  <ele>1586.08</ele>
  <time>2026-08-28T19:07:41Z</time>
  <course>70.2</course>
  <speed>0.022360679774997897</speed>
  <fix>3d</fix>
</trkpt>
<trkpt lat="40.0728615" lon="-105.2306208">
  <ele>1586.0</ele>
  <time>2026-08-28T19:07:41Z</time>
  <course>162.83</course>
  <speed>0.0</speed>
  <fix>3d</fix>
</trkpt>
<trkpt lat="40.0728616" lon="-105.2306207">
  <ele>1586.08</ele>
  <time>2026-08-28T19:07:41Z</time>
  <course>70.2</course>
  <speed>0.022360679774997897</speed>
  <fix>3d</fix>
</trkpt>
<trkpt lat="40.0728615" lon="-105.2306208">
  <ele>1586.0</ele>
  <time>2026-08-28T19:07:41Z</time>
  <course>146.12</course>
  <speed>0.0</speed>
  <fix>3d</fix>
</trkpt>
<trkpt lat="40.0728616" lon="-105.2306207">
  <ele>1586.08</ele>
  <time>2026-08-28T19:07:41Z</time>
  <course>70.2</course>
  <speed>0.022360679774997897</speed>
  <fix>3d</fix>
</trkpt>
<trkpt lat="40.0728615" lon="-105.2306208">
  <ele>1586.0</ele>
  <time>2026-08-28T19:07:41Z</time>
  <course>154.14</course>
  <speed>0.0</speed>
  <fix>3d</fix>
</trkpt>
<trkpt lat="40.0728616" lon="-105.2306207">
  <ele>1586.08</ele>
  <time>2026-08-28T19:07:41Z</time>
  <course>70.19</course>
  <speed>0.022360679774997897</speed>
  <fix>3d</fix>
</trkpt>
<trkpt lat="40.0728615" lon="-105.2306208">
  <ele>1586.0</ele>
  <time>2026-08-28T19:07:41Z</time>
  <course>155.51</course>
  <speed>0.0</speed>
  <fix>3d</fix>
</trkpt>
<trkpt lat="40.0728616" lon="-105.2306207">
  <ele>1586.08</ele>
  <time>2026-08-28T19:07:41Z</time>
  <course>70.19</course>
  <speed>0.022360679774997897</speed>
  <fix>3d</fix>
</trkpt>
<trkpt lat="40.0728615" lon="-105.2306208">
  <ele>1586.0</ele>
  <time>2026-08-28T19:07:41Z</time>
  <course>153.97</course>
  <speed>0.0</speed>
  <fix>3d</fix>
</trkpt>
<trkpt lat="40.0728616" lon="-105.2306207">
  <ele>1586.08</ele>
  <time>2026-08-28T19:07:41Z</time>
  <course>70.19</course>
  <speed>0.022360679774997897</speed>
  <fix>3d</fix>
</trkpt>
<trkpt lat="40.0728615" lon="-105.2306208">
  <ele>1586.0</ele>
  <time>2026-08-28T19:07:41Z</time>
  <course>153.97</course>
  <speed>0.0</speed>
  <fix>3d</fix>
</trkpt>
<trkpt lat="40.0728616" lon="-105.2306207">
  <ele>1586.08</ele>
  <time>2026-08-28T19:07:41Z</time>
  <course>70.18</course>
  <speed>0.022360679774997897</speed>
  <fix>3d</fix>
</trkpt>
<trkpt lat="40.0728615" lon="-105.2306208">
  <ele>1586.0</ele>
  <time>2026-08-28T19:07:41Z</time>
  <course>154.17</course>
  <speed>0.0</speed>
  <fix>3d</fix>
</trkpt>
<trkpt lat="40.0728616" lon="-105.2306207">
  <ele>1586.08</ele>
  <time>2026-08-28T19:07:41Z</time>
  <course>70.18</course>
  <speed>0.022360679774997897</speed>
  <fix>3d</fix>
</trkpt>
<trkpt lat="40.0728615" lon="-105.2306208">
  <ele>1586.0</ele>
  <time>2026-08-28T19:07:41Z</time>
  <course>154.14</course>
  <speed>0.0</speed>
  <fix>3d</fix>
</trkpt>
<trkpt lat="40.0728616" lon="-105.2306207">
  <ele>1586.07</ele>
  <time>2026-08-28T19:07:41Z</time>
  <course>70.18</course>
  <speed>0.022360679774997897</speed>
  <fix>3d</fix>
</trkpt>
<trkpt lat="40.0728615" lon="-105.2306208">
  <ele>1586.0</ele>
  <time>2026-08-28T19:07:41Z</time>
  <course>154.12</course>
  <speed>0.0</speed>
  <fix>3d</fix>
</trkpt>
<trkpt lat="40.0728616" lon="-105.2306207">
  <ele>1586.07</ele>
  <time>2026-08-28T19:07:41Z</time>
  <course>70.18</course>
  <speed>0.022360679774997897</speed>
  <fix>3d</fix>
</trkpt>
<trkpt lat="40.0728615" lon="-105.2306208">
  <ele>1586.0</ele>
  <time>2026-08-28T19:07:41Z</time>
  <course>339.5</course>
  <speed>0.0</speed>
  <fix>3d</fix>
</trkpt>
<trkpt lat="40.0728616" lon="-105.2306207">
  <ele>1586.07</ele>
  <time>2026-08-28T19:07:41Z</time>
  <course>70.17</course>
  <speed>0.022360679774997897</speed>
  <fix>3d</fix>
</trkpt>
<trkpt lat="40.0728615" lon="-105.2306208">
  <ele>1586.0</ele>
  <time>2026-08-28T19:07:41Z</time>
  <course>338.43</course>
  <speed>0.0</speed>
  <fix>3d</fix>
</trkpt>
<trkpt lat="40.0728616" lon="-105.2306207">
  <ele>1586.07</ele>
  <time>2026-08-28T19:07:41Z</time>
  <course>70.17</course>
  <speed>0.022360679774997897</speed>
  <fix>3d</fix>
</trkpt>
<trkpt lat="40.0728615" lon="-105.2306208">
  <ele>1586.0</ele>
  <time>2026-08-28T19:07:41Z</time>
  <course>338.71</course>
  <speed>0.0</speed>
  <fix>3d</fix>
</trkpt>
<trkpt lat="40.0728616" lon="-105.2306207">
  <ele>1586.07</ele>
  <time>2026-08-28T19:07:41Z</time>
  <course>70.17</course>
  <speed>0.022360679774997897</speed>
  <fix>3d</fix>
</trkpt>
<trkpt lat="40.0728615" lon="-105.2306208">
  <ele>1586.0</ele>
  <time>2026-08-28T19:07:41Z</time>
  <course>157.09</course>
  <speed>0.0</speed>
  <fix>3d</fix>
</trkpt>
<trkpt lat="40.0728616" lon="-105.2306207">
  <ele>1586.07</ele>
  <time>2026-08-28T19:07:41Z</time>
  <course>70.17</course>
  <speed>0.022360679774997897</speed>
  <fix>3d</fix>
</trkpt>
<trkpt lat="40.0728615" lon="-105.2306208">
  <ele>1586.0</ele>
  <time>2026-08-28T19:07:41Z</time>
  <course>156.62</course>
  <speed>0.0</speed>
  <fix>3d</fix>
</trkpt>
<trkpt lat="40.0728616" lon="-105.2306207">
  <ele>1586.07</ele>
  <time>2026-08-28T19:07:41Z</time>
  <course>70.17</course>
  <speed>0.022360679774997897</speed>
  <fix>3d</fix>
</trkpt>
<trkpt lat="40.0728615" lon="-105.2306208">
  <ele>1586.0</ele>
  <time>2026-08-28T19:07:41Z</time>
  <course>155.18</course>
  <speed>0.0</speed>
  <fix>3d</fix>
</trkpt>
<trkpt lat="40.0728616" lon="-105.2306207">
  <ele>1586.07</ele>
  <time>2026-08-28T19:07:41Z</time>
  <course>70.17</course>
  <speed>0.022360679774997897</speed>
  <fix>3d</fix>
</trkpt>
<trkpt lat="40.0728615" lon="-105.2306208">
  <ele>1586.0</ele>
  <time>2026-08-28T19:07:41Z</time>
  <course>155.62</course>
  <speed>0.0</speed>
  <fix>3d</fix>
</trkpt>
<trkpt lat="40.0728616" lon="-105.2306207">
  <ele>1586.07</ele>
  <time>2026-08-28T19:07:41Z</time>
  <course>70.16</course>
  <speed>0.022360679774997897</speed>
  <fix>3d</fix>
</trkpt>
<trkpt lat="40.0728615" lon="-105.2306208">
  <ele>1586.0</ele>
  <time>2026-08-28T19:07:41Z</time>
  <course>155.72</course>
  <speed>0.0</speed>
  <fix>3d</fix>
</trkpt>
<trkpt lat="40.0728616" lon="-105.2306207">
  <ele>1586.07</ele>
  <time>2026-08-28T19:07:41Z</time>
  <course>70.16</course>
  <speed>0.022360679774997897</speed>
  <fix>3d</fix>
</trkpt>
<trkpt lat="40.0728615" lon="-105.2306208">
  <ele>1586.0</ele>
  <time>2026-08-28T19:07:41Z</time>
  <course>155.55</course>
  <speed>0.0</speed>
  <fix>3d</fix>
</trkpt>
<trkpt lat="40.0728616" lon="-105.2306207">
  <ele>1586.08</ele>
  <time>2026-08-28T19:07:41Z</time>
  <course>70.16</course>
  <speed>0.022360679774997897</speed>
  <fix>3d</fix>
</trkpt>
<trkpt lat="40.0728615" lon="-105.2306208">
  <ele>1586.0</ele>
  <time>2026-08-28T19:07:41Z</time>
  <course>155.45</course>
  <speed>0.0</speed>
  <fix>3d</fix>
</trkpt>
<trkpt lat="40.0728616" lon="-105.2306208">
  <ele>1586.07</ele>
  <time>2026-08-28T19:07:41Z</time>
  <course>70.16</course>
  <speed>0.022360679774997897</speed>
  <fix>3d</fix>
</trkpt>
<trkpt lat="40.0728615" lon="-105.2306208">
  <ele>1586.0</ele>
  <time>2026-08-28T19:07:41Z</time>
  <course>155.39</course>
  <speed>0.0</speed>
  <fix>3d</fix>
</trkpt>
<trkpt lat="40.0728616" lon="-105.2306208">
  <ele>1586.08</ele>
  <time>2026-08-28T19:07:41Z</time>
  <course>70.16</course>
  <speed>0.022360679774997897</speed>
  <fix>3d</fix>
</trkpt>
<trkpt lat="40.0728615" lon="-105.2306208">
  <ele>1586.0</ele>
  <time>2026-08-28T19:07:41Z</time>
  <course>155.32</course>
  <speed>0.0</speed>
  <fix>3d</fix>
</trkpt>
<trkpt lat="40.0728616" lon="-105.2306208">
  <ele>1586.08</ele>
  <time>2026-08-28T19:07:41Z</time>
  <course>70.16</course>
  <speed>0.022360679774997897</speed>
  <fix>3d</fix>
</trkpt>
<trkpt lat="40.0728615" lon="-105.2306208">
  <ele>1586.0</ele>
  <time>2026-08-28T19:07:41Z</time>
  <course>155.25</course>
  <speed>0.0</speed>
  <fix>3d</fix>
</trkpt>
<trkpt lat="40.0728616" lon="-105.2306208">
  <ele>1586.08</ele>
  <time>2026-08-28T19:07:41Z</time>
  <course>70.15</course>
  <speed>0.022360679774997897</speed>
  <fix>3d</fix>
</trkpt>
<trkpt lat="40.0728615" lon="-105.2306208">
  <ele>1586.0</ele>
  <time>2026-08-28T19:07:41Z</time>
  <course>155.18</course>
  <speed>0.0</speed>
  <fix>3d</fix>
</trkpt>
<trkpt lat="40.0728616" lon="-105.2306208">
  <ele>1586.07</ele>
  <time>2026-08-28T19:07:41Z</time>
  <course>70.15</course>
  <speed>0.022360679774997897</speed>
  <fix>3d</fix>
</trkpt>
<trkpt lat="40.0728615" lon="-105.2306208">
  <ele>1586.0</ele>
  <time>2026-08-28T19:07:41Z</time>
  <course>155.12</course>
  <speed>0.0</speed>
  <fix>3d</fix>
</trkpt>
<trkpt lat="40.0728616" lon="-105.2306208">
  <ele>1586.07</ele>
  <time>2026-08-28T19:07:41Z</time>
  <course>70.15</course>
  <speed>0.022360679774997897</speed>
  <fix>3d</fix>
</trkpt>
<trkpt lat="40.0728615" lon="-105.2306208">
  <ele>1586.0</ele>
  <time>2026-08-28T19:07:41Z</time>
  <course>155.06</course>
  <speed>0.0</speed>
  <fix>3d</fix>
</trkpt>
<trkpt lat="40.0728616" lon="-105.2306208">
  <ele>1586.07</ele>
  <time>2026-08-28T19:07:41Z</time>
  <course>70.15</course>
  <speed>0.022360679774997897</speed>
  <fix>3d</fix>
</trkpt>
<trkpt lat="40.0728615" lon="-105.2306208">
  <ele>1586.0</ele>
  <time>2026-08-28T19:07:41Z</time>
  <course>155.0</course>
  <speed>0.0</speed>
  <fix>3d</fix>
</trkpt>
<trkpt lat="40.0728616" lon="-105.2306208">
  <ele>1586.07</ele>
  <time>2026-08-28T19:07:41Z</time>
  <course>70.15</course>
  <speed>0.022360679774997897</speed>
  <fix>3d</fix>
</trkpt>
<trkpt lat="40.0728615" lon="-105.2306208">
  <ele>1586.0</ele>
  <time>2026-08-28T19:07:41Z</time>
  <course>154.95</course>
  <speed>0.0</speed>
  <fix>3d</fix>
</trkpt>
<trkpt lat="40.0728616" lon="-105.2306208">
  <ele>1586.06</ele>
  <time>2026-08-28T19:07:41Z</time>
  <course>70.15</course>
  <speed>0.022360679774997897</speed>
  <fix>3d</fix>
</trkpt>
<trkpt lat="40.0728615" lon="-105.2306208">
  <ele>1586.0</ele>
  <time>2026-08-28T19:07:41Z</time>
  <course>154.9</course>
  <speed>0.0</speed>
  <fix>3d</fix>
</trkpt>
<trkpt lat="40.0728616" lon="-105.2306208">
  <ele>1586.06</ele>
  <time>2026-08-28T19:07:41Z</time>
  <course>70.15</course>
  <speed>0.022360679774997897</speed>
  <fix>3d</fix>
</trkpt>
<trkpt lat="40.0728615" lon="-105.2306208">
  <ele>1586.0</ele>
  <time>2026-08-28T19:07:41Z</time>
  <course>154.85</course>
  <speed>0.0</speed>
  <fix>3d</fix>
</trkpt>
<trkpt lat="40.0728616" lon="-105.2306208">
  <ele>1586.06</ele>
  <time>2026-08-28T19:07:41Z</time>
  <course>70.15</course>
  <speed>0.022360679774997897</speed>
  <fix>3d</fix>
</trkpt>
<trkpt lat="40.0728615" lon="-105.2306208">
  <ele>1586.0</ele>
  <time>2026-08-28T19:07:41Z</time>
  <course>154.81</course>
  <speed>0.0</speed>
  <fix>3d</fix>
</trkpt>
<trkpt lat="40.0728616" lon="-105.2306208">
  <ele>1586.06</ele>
  <time>2026-08-28T19:07:41Z</time>
  <course>70.15</course>
  <speed>0.02</speed>
  <fix>3d</fix>
</trkpt>
<trkpt lat="40.0728615" lon="-105.2306208">
  <ele>1586.0</ele>
  <time>2026-08-28T19:07:41Z</time>
  <course>154.77</course>
  <speed>0.0</speed>
  <fix>3d</fix>
</trkpt>
<trkpt lat="40.0728616" lon="-105.2306208">
  <ele>1586.06</ele>
  <time>2026-08-28T19:07:41Z</time>
  <course>70.14</course>
  <speed>0.022360679774997897</speed>
  <fix>3d</fix>
</trkpt>
<trkpt lat="40.0728615" lon="-105.2306208">
  <ele>1586.0</ele>
  <time>2026-08-28T19:07:41Z</time>
  <course>154.73</course>
  <speed>0.0</speed>
  <fix>3d</fix>
</trkpt>
<trkpt lat="40.0728616" lon="-105.2306208">
  <ele>1586.06</ele>
  <time>2026-08-28T19:07:41Z</time>
  <course>70.14</course>
  <speed>0.022360679774997897</speed>
  <fix>3d</fix>
</trkpt>
<trkpt lat="40.0728615" lon="-105.2306208">
  <ele>1586.0</ele>
  <time>2026-08-28T19:07:41Z</time>
  <course>154.69</course>
  <speed>0.0</speed>
  <fix>3d</fix>
</trkpt>
<trkpt lat="40.0728616" lon="-105.2306208">
  <ele>1586.06</ele>
  <time>2026-08-28T19:07:41Z</time>
  <course>70.14</course>
  <speed>0.022360679774997897</speed>
  <fix>3d</fix>
</trkpt>
<trkpt lat="40.0728615" lon="-105.2306208">
  <ele>1586.0</ele>
  <time>2026-08-28T19:07:41Z</time>
  <course>154.66</course>
  <speed>0.0</speed>
  <fix>3d</fix>
</trkpt>
<trkpt lat="40.0728616" lon="-105.2306208">
  <ele>1586.06</ele>
  <time>2026-08-28T19:07:41Z</time>
  <course>70.14</course>
  <speed>0.022360679774997897</speed>
  <fix>3d</fix>
</trkpt>
<trkpt lat="40.0728615" lon="-105.2306208">
  <ele>1586.0</ele>
  <time>2026-08-28T19:07:41Z</time>
  <course>154.63</course>
  <speed>0.0</speed>
  <fix>3d</fix>
</trkpt>
<trkpt lat="40.0728616" lon="-105.2306208">
  <ele>1586.07</ele>
  <time>2026-08-28T19:07:41Z</time>
  <course>70.14</course>
  <speed>0.022360679774997897</speed>
  <fix>3d</fix>
</trkpt>
<trkpt lat="40.0728615" lon="-105.2306208">
  <ele>1586.0</ele>
  <time>2026-08-28T19:07:41Z</time>
  <course>154.74</course>
  <speed>0.0</speed>
  <fix>3d</fix>
</trkpt>
<trkpt lat="40.0728616" lon="-105.2306208">
  <ele>1586.07</ele>
  <time>2026-08-28T19:07:41Z</time>
  <course>70.14</course>
  <speed>0.022360679774997897</speed>
  <fix>3d</fix>
</trkpt>
<trkpt lat="40.0728615" lon="-105.2306208">
  <ele>1586.0</ele>
  <time>2026-08-28T19:07:41Z</time>
  <course>154.92</course>
  <speed>0.0</speed>
  <fix>3d</fix>
</trkpt>
<trkpt lat="40.0728616" lon="-105.2306208">
  <ele>1586.07</ele>
  <time>2026-08-28T19:07:41Z</time>
  <course>70.14</course>
  <speed>0.022360679774997897</speed>
  <fix>3d</fix>
</trkpt>
<trkpt lat="40.0728615" lon="-105.2306208">
  <ele>1586.0</ele>
  <time>2026-08-28T19:07:41Z</time>
  <course>154.94</course>
  <speed>0.0</speed>
  <fix>3d</fix>
</trkpt>
<trkpt lat="40.0728616" lon="-105.2306208">
  <ele>1586.07</ele>
  <time>2026-08-28T19:07:41Z</time>
  <course>70.29</course>
  <speed>0.02</speed>
  <fix>3d</fix>
</trkpt>
<trkpt lat="40.0728615" lon="-105.2306208">
  <ele>1586.0</ele>
  <time>2026-08-28T19:07:41Z</time>
  <course>157.03</course>
  <speed>0.0</speed>
  <fix>3d</fix>
</trkpt>
<trkpt lat="40.0728616" lon="-105.2306208">
  <ele>1586.07</ele>
  <time>2026-08-28T19:07:41Z</time>
  <course>70.58</course>
  <speed>0.022360679774997897</speed>
  <fix>3d</fix>
</trkpt>
<trkpt lat="40.0728615" lon="-105.2306208">
  <ele>1586.0</ele>
  <time>2026-08-28T19:07:41Z</time>
  <course>157.29</course>
  <speed>0.0</speed>
  <fix>3d</fix>
</trkpt>
<trkpt lat="40.0728616" lon="-105.2306208">
  <ele>1586.07</ele>
  <time>2026-08-28T19:07:41Z</time>
  <course>70.82</course>
  <speed>0.02</speed>
  <fix>3d</fix>
</trkpt>
<trkpt lat="40.0728615" lon="-105.2306208">
  <ele>1586.0</ele>
  <time>2026-08-28T19:07:41Z</time>
  <course>155.91</course>
  <speed>0.0</speed>
  <fix>3d</fix>
</trkpt>
<trkpt lat="40.0728616" lon="-105.2306208">
  <ele>1586.07</ele>
  <time>2026-08-28T19:07:41Z</time>
  <course>70.99</course>
  <speed>0.022360679774997897</speed>
  <fix>3d</fix>
</trkpt>
<trkpt lat="40.0728615" lon="-105.2306208">
  <ele>1586.0</ele>
  <time>2026-08-28T19:07:41Z</time>
  <course>147.53</course>
  <speed>0.0</speed>
  <fix>3d</fix>
</trkpt>
<trkpt lat="40.0728616" lon="-105.2306208">
  <ele>1586.07</ele>
  <time>2026-08-28T19:07:41Z</time>
  <course>71.13</course>
  <speed>0.022360679774997897</speed>
  <fix>3d</fix>
</trkpt>
<trkpt lat="40.0728615" lon="-105.2306208">
  <ele>1586.0</ele>
  <time>2026-08-28T19:07:41Z</time>
  <course>153.99</course>
  <speed>0.0</speed>
  <fix>3d</fix>
</trkpt>
<trkpt lat="40.0728616" lon="-105.2306208">
  <ele>1586.07</ele>
  <time>2026-08-28T19:07:41Z</time>
  <course>71.25</course>
  <speed>0.02</speed>
  <fix>3d</fix>
</trkpt>
<trkpt lat="40.0728615" lon="-105.2306208">
  <ele>1586.0</ele>
  <time>2026-08-28T19:07:41Z</time>
  <course>154.45</course>
  <speed>0.0</speed>
  <fix>3d</fix>
</trkpt>
<trkpt lat="40.0728616" lon="-105.2306208">
  <ele>1586.07</ele>
  <time>2026-08-28T19:07:41Z</time>
  <course>71.36</course>
  <speed>0.02</speed>
  <fix>3d</fix>
</trkpt>
<trkpt lat="40.0728615" lon="-105.2306208">
  <ele>1586.0</ele>
  <time>2026-08-28T19:07:41Z</time>
  <course>154.1</course>
  <speed>0.0</speed>
  <fix>3d</fix>
</trkpt>
<trkpt lat="40.0728616" lon="-105.2306208">
  <ele>1586.07</ele>
  <time>2026-08-28T19:07:41Z</time>
  <course>71.45</course>
  <speed>0.01</speed>
  <fix>3d</fix>
</trkpt>
<trkpt lat="40.0728615" lon="-105.2306208">
  <ele>1586.0</ele>
  <time>2026-08-28T19:07:41Z</time>
  <course>154.08</course>
  <speed>0.0</speed>
  <fix>3d</fix>
</trkpt>
<trkpt lat="40.0728616" lon="-105.2306208">
  <ele>1586.07</ele>
  <time>2026-08-28T19:07:41Z</time>
  <course>71.52</course>
  <speed>0.01</speed>
  <fix>3d</fix>
</trkpt>
<trkpt lat="40.0728615" lon="-105.2306208">
  <ele>1586.0</ele>
  <time>2026-08-28T19:07:41Z</time>
  <course>154.13</course>
  <speed>0.0</speed>
  <fix>3d</fix>
</trkpt>
<trkpt lat="40.0728616" lon="-105.2306208">
  <ele>1586.07</ele>
  <time>2026-08-28T19:07:41Z</time>
  <course>71.59</course>
  <speed>0.01</speed>
  <fix>3d</fix>
</trkpt>
<trkpt lat="40.0728615" lon="-105.2306208">
  <ele>1586.0</ele>
  <time>2026-08-28T19:07:41Z</time>
  <course>154.13</course>
  <speed>0.0</speed>
  <fix>3d</fix>
</trkpt>
<trkpt lat="40.0728616" lon="-105.2306208">
  <ele>1586.07</ele>
  <time>2026-08-28T19:07:41Z</time>
  <course>71.65</course>
  <speed>0.01</speed>
  <fix>3d</fix>
</trkpt>
<trkpt lat="40.0728615" lon="-105.2306208">
  <ele>1586.0</ele>
  <time>2026-08-28T19:07:41Z</time>
  <course>154.12</course>
  <speed>0.0</speed>
  <fix>3d</fix>
</trkpt>
<trkpt lat="40.0728616" lon="-105.2306208">
  <ele>1586.07</ele>
  <time>2026-08-28T19:07:41Z</time>
  <course>71.83</course>
  <speed>0.01</speed>
  <fix>3d</fix>
</trkpt>
<trkpt lat="40.0728615" lon="-105.2306208">
  <ele>1586.0</ele>
  <time>2026-08-28T19:07:41Z</time>
  <course>154.13</course>
  <speed>0.0</speed>
  <fix>3d</fix>
</trkpt>
<trkpt lat="40.0728616" lon="-105.2306208">
  <ele>1586.07</ele>
  <time>2026-08-28T19:07:41Z</time>
  <course>71.86</course>
  <speed>0.01</speed>
  <fix>3d</fix>
</trkpt>
<trkpt lat="40.0728615" lon="-105.2306208">
  <ele>1586.0</ele>
  <time>2026-08-28T19:07:41Z</time>
  <course>154.13</course>
  <speed>0.0</speed>
  <fix>3d</fix>
</trkpt>
<trkpt lat="40.0728616" lon="-105.2306208">
  <ele>1586.07</ele>
  <time>2026-08-28T19:07:41Z</time>
  <course>71.9</course>
  <speed>0.01</speed>
  <fix>3d</fix>
</trkpt>
<trkpt lat="40.0728615" lon="-105.2306208">
  <ele>1586.0</ele>
  <time>2026-08-28T19:07:41Z</time>
  <course>154.13</course>
  <speed>0.0</speed>
  <fix>3d</fix>
</trkpt>
<trkpt lat="40.0728616" lon="-105.2306208">
  <ele>1586.07</ele>
  <time>2026-08-28T19:07:41Z</time>
  <course>71.93</course>
  <speed>0.01</speed>
  <fix>3d</fix>
</trkpt>
<trkpt lat="40.0728615" lon="-105.2306208">
  <ele>1586.0</ele>
  <time>2026-08-28T19:07:41Z</time>
  <course>154.13</course>
  <speed>0.0</speed>
  <fix>3d</fix>
</trkpt>
<trkpt lat="40.0728616" lon="-105.2306208">
  <ele>1586.07</ele>
  <time>2026-08-28T19:07:41Z</time>
  <course>71.95</course>
  <speed>0.01</speed>
  <fix>3d</fix>
</trkpt>
<trkpt lat="40.0728615" lon="-105.2306208">
  <ele>1586.0</ele>
  <time>2026-08-28T19:07:41Z</time>
  <course>154.13</course>
  <speed>0.0</speed>
  <fix>3d</fix>
</trkpt>
<trkpt lat="40.0728616" lon="-105.2306208">
  <ele>1586.07</ele>
  <time>2026-08-28T19:07:41Z</time>
  <course>71.98</course>
  <speed>0.01</speed>
  <fix>3d</fix>
</trkpt>
<trkpt lat="40.0728615" lon="-105.2306208">
  <ele>1586.0</ele>
  <time>2026-08-28T19:07:41Z</time>
  <course>154.13</course>
  <speed>0.0</speed>
  <fix>3d</fix>
</trkpt>
<trkpt lat="40.0728616" lon="-105.2306208">
  <ele>1586.07</ele>
  <time>2026-08-28T19:07:41Z</time>
  <course>72.0</course>
  <speed>0.01</speed>
  <fix>3d</fix>
</trkpt>
<trkpt lat="40.0728615" lon="-105.2306208">
  <ele>1586.0</ele>
  <time>2026-08-28T19:07:41Z</time>
  <course>154.13</course>
  <speed>0.0</speed>
  <fix>3d</fix>
</trkpt>
<trkpt lat="40.0728616" lon="-105.2306208">
  <ele>1586.07</ele>
  <time>2026-08-28T19:07:41Z</time>
  <course>72.02</course>
  <speed>0.01</speed>
  <fix>3d</fix>
</trkpt>
<trkpt lat="40.0728615" lon="-105.2306208">
  <ele>1586.0</ele>
  <time>2026-08-28T19:07:41Z</time>
  <course>154.13</course>
  <speed>0.0</speed>
  <fix>3d</fix>
</trkpt>
<trkpt lat="40.0728616" lon="-105.2306208">
  <ele>1586.07</ele>
  <time>2026-08-28T19:07:41Z</time>
  <course>72.04</course>
  <speed>0.01</speed>
  <fix>3d</fix>
</trkpt>
<trkpt lat="40.0728615" lon="-105.2306208">
  <ele>1586.0</ele>
  <time>2026-08-28T19:07:41Z</time>
  <course>154.13</course>
  <speed>0.0</speed>
  <fix>3d</fix>
</trkpt>
<trkpt lat="40.0728616" lon="-105.2306208">
  <ele>1586.06</ele>
  <time>2026-08-28T19:07:41Z</time>
  <course>72.06</course>
  <speed>0.01</speed>
  <fix>3d</fix>
</trkpt>
<trkpt lat="40.0728615" lon="-105.2306208">
  <ele>1586.0</ele>
  <time>2026-08-28T19:07:41Z</time>
  <course>154.13</course>
  <speed>0.0</speed>
  <fix>3d</fix>
</trkpt>
<trkpt lat="40.0728616" lon="-105.2306208">
  <ele>1586.06</ele>
  <time>2026-08-28T19:07:41Z</time>
  <course>72.07</course>
  <speed>0.01</speed>
  <fix>3d</fix>
</trkpt>
<trkpt lat="40.0728615" lon="-105.2306208">
  <ele>1586.0</ele>
  <time>2026-08-28T19:07:41Z</time>
  <course>154.13</course>
  <speed>0.0</speed>
  <fix>3d</fix>
</trkpt>
<trkpt lat="40.0728616" lon="-105.2306208">
  <ele>1586.06</ele>
  <time>2026-08-28T19:07:41Z</time>
  <course>72.09</course>
  <speed>0.01</speed>
  <fix>3d</fix>
</trkpt>
<trkpt lat="40.0728615" lon="-105.2306208">
  <ele>1586.0</ele>
  <time>2026-08-28T19:07:41Z</time>
  <course>154.13</course>
  <speed>0.0</speed>
  <fix>3d</fix>
</trkpt>
<trkpt lat="40.0728616" lon="-105.2306208">
  <ele>1586.06</ele>
  <time>2026-08-28T19:07:41Z</time>
  <course>72.1</course>
  <speed>0.01</speed>
  <fix>3d</fix>
</trkpt>
<trkpt lat="40.0728615" lon="-105.2306208">
  <ele>1586.0</ele>
  <time>2026-08-28T19:07:41Z</time>
  <course>154.13</course>
  <speed>0.0</speed>
  <fix>3d</fix>
</trkpt>
<trkpt lat="40.0728616" lon="-105.2306208">
  <ele>1586.07</ele>
  <time>2026-08-28T19:07:41Z</time>
  <course>72.12</course>
  <speed>0.01</speed>
  <fix>3d</fix>
</trkpt>
<trkpt lat="40.0728615" lon="-105.2306208">
  <ele>1586.0</ele>
  <time>2026-08-28T19:07:41Z</time>
  <course>154.13</course>
  <speed>0.0</speed>
  <fix>3d</fix>
</trkpt>
<trkpt lat="40.0728616" lon="-105.2306208">
  <ele>1586.07</ele>
  <time>2026-08-28T19:07:41Z</time>
  <course>72.13</course>
  <speed>0.01</speed>
  <fix>3d</fix>
</trkpt>
<trkpt lat="40.0728615" lon="-105.2306208">
  <ele>1586.0</ele>
  <time>2026-08-28T19:07:41Z</time>
  <course>154.13</course>
  <speed>0.0</speed>
  <fix>3d</fix>
</trkpt>
<trkpt lat="40.0728616" lon="-105.2306208">
  <ele>1586.08</ele>
  <time>2026-08-28T19:07:41Z</time>
  <course>72.14</course>
  <speed>0.01</speed>
  <fix>3d</fix>
</trkpt>
<trkpt lat="40.0728615" lon="-105.2306208">
  <ele>1586.0</ele>
  <time>2026-08-28T19:07:41Z</time>
  <course>154.13</course>
  <speed>0.0</speed>
  <fix>3d</fix>
</trkpt>
<trkpt lat="40.0728616" lon="-105.2306208">
  <ele>1586.08</ele>
  <time>2026-08-28T19:07:41Z</time>
  <course>72.15</course>
  <speed>0.01</speed>
  <fix>3d</fix>
</trkpt>
<trkpt lat="40.0728615" lon="-105.2306208">
  <ele>1586.0</ele>
  <time>2026-08-28T19:07:41Z</time>
  <course>154.13</course>
  <speed>0.0</speed>
  <fix>3d</fix>
</trkpt>
<trkpt lat="40.0728616" lon="-105.2306208">
  <ele>1586.09</ele>
  <time>2026-08-28T19:07:41Z</time>
  <course>72.17</course>
  <speed>0.01</speed>
  <fix>3d</fix>
</trkpt>
<trkpt lat="40.0728615" lon="-105.2306208">
  <ele>1586.0</ele>
  <time>2026-08-28T19:07:41Z</time>
  <course>154.13</course>
  <speed>0.0</speed>
  <fix>3d</fix>
</trkpt>
<trkpt lat="40.0728616" lon="-105.2306208">
  <ele>1586.09</ele>
  <time>2026-08-28T19:07:41Z</time>
  <course>72.18</course>
  <speed>0.01</speed>
  <fix>3d</fix>
</trkpt>
<trkpt lat="40.0728615" lon="-105.2306208">
  <ele>1586.0</ele>
  <time>2026-08-28T19:07:41Z</time>
  <course>154.13</course>
  <speed>0.0</speed>
  <fix>3d</fix>
</trkpt>
<trkpt lat="40.0728616" lon="-105.2306208">
  <ele>1586.09</ele>
  <time>2026-08-28T19:07:41Z</time>
  <course>72.19</course>
  <speed>0.01</speed>
  <fix>3d</fix>
</trkpt>
<trkpt lat="40.0728615" lon="-105.2306208">
  <ele>1586.0</ele>
  <time>2026-08-28T19:07:41Z</time>
  <course>154.13</course>
  <speed>0.0</speed>
  <fix>3d</fix>
</trkpt>
<trkpt lat="40.0728616" lon="-105.2306208">
  <ele>1586.09</ele>
  <time>2026-08-28T19:07:42Z</time>
  <course>72.19</course>
  <speed>0.02</speed>
  <fix>3d</fix>
</trkpt>
<trkpt lat="40.0728615" lon="-105.2306208">
  <ele>1586.0</ele>
  <time>2026-08-28T19:07:42Z</time>
  <course>154.13</course>
  <speed>0.0</speed>
  <fix>3d</fix>
</trkpt>
<trkpt lat="40.0728616" lon="-105.2306208">
  <ele>1586.09</ele>
  <time>2026-08-28T19:07:42Z</time>
  <course>72.2</course>
  <speed>0.02</speed>
  <fix>3d</fix>
</trkpt>
<trkpt lat="40.0728615" lon="-105.2306208">
  <ele>1586.0</ele>
  <time>2026-08-28T19:07:42Z</time>
  <course>154.13</course>
  <speed>0.0</speed>
  <fix>3d</fix>
</trkpt>
<trkpt lat="40.0728616" lon="-105.2306208">
  <ele>1586.09</ele>
  <time>2026-08-28T19:07:42Z</time>
  <course>72.21</course>
  <speed>0.022360679774997897</speed>
  <fix>3d</fix>
</trkpt>
<trkpt lat="40.0728615" lon="-105.2306208">
  <ele>1586.0</ele>
  <time>2026-08-28T19:07:42Z</time>
  <course>154.13</course>
  <speed>0.0</speed>
  <fix>3d</fix>
</trkpt>
<trkpt lat="40.0728616" lon="-105.2306208">
  <ele>1586.09</ele>
  <time>2026-08-28T19:07:42Z</time>
  <course>72.22</course>
  <speed>0.022360679774997897</speed>
  <fix>3d</fix>
</trkpt>
<trkpt lat="40.0728615" lon="-105.2306208">
  <ele>1586.0</ele>
  <time>2026-08-28T19:07:42Z</time>
  <course>154.13</course>
  <speed>0.0</speed>
  <fix>3d</fix>
</trkpt>
<trkpt lat="40.0728616" lon="-105.2306208">
  <ele>1586.09</ele>
  <time>2026-08-28T19:07:42Z</time>
  <course>72.23</course>
  <speed>0.022360679774997897</speed>
  <fix>3d</fix>
</trkpt>
<trkpt lat="40.0728615" lon="-105.2306208">
  <ele>1586.0</ele>
  <time>2026-08-28T19:07:42Z</time>
  <course>154.13</course>
  <speed>0.0</speed>
  <fix>3d</fix>
</trkpt>
<trkpt lat="40.0728616" lon="-105.2306208">
  <ele>1586.09</ele>
  <time>2026-08-28T19:07:42Z</time>
  <course>72.23</course>
  <speed>0.022360679774997897</speed>
  <fix>3d</fix>
</trkpt>
<trkpt lat="40.0728615" lon="-105.2306208">
  <ele>1586.0</ele>
  <time>2026-08-28T19:07:42Z</time>
  <course>154.13</course>
  <speed>0.0</speed>
  <fix>3d</fix>
</trkpt>
<trkpt lat="40.0728616" lon="-105.2306208">
  <ele>1586.09</ele>
  <time>2026-08-28T19:07:42Z</time>
  <course>72.24</course>
  <speed>0.022360679774997897</speed>
  <fix>3d</fix>
</trkpt>
<trkpt lat="40.0728615" lon="-105.2306208">
  <ele>1586.0</ele>
  <time>2026-08-28T19:07:42Z</time>
  <course>154.13</course>
  <speed>0.0</speed>
  <fix>3d</fix>
</trkpt>
<trkpt lat="40.0728616" lon="-105.2306208">
  <ele>1586.08</ele>
  <time>2026-08-28T19:07:42Z</time>
  <course>72.25</course>
  <speed>0.022360679774997897</speed>
  <fix>3d</fix>
</trkpt>
<trkpt lat="40.0728615" lon="-105.2306208">
  <ele>1586.0</ele>
  <time>2026-08-28T19:07:42Z</time>
  <course>154.13</course>
  <speed>0.0</speed>
  <fix>3d</fix>
</trkpt>
<trkpt lat="40.0728616" lon="-105.2306208">
  <ele>1586.08</ele>
  <time>2026-08-28T19:07:42Z</time>
  <course>72.25</course>
  <speed>0.022360679774997897</speed>
  <fix>3d</fix>
</trkpt>
<trkpt lat="40.0728615" lon="-105.2306208">
  <ele>1586.0</ele>
  <time>2026-08-28T19:07:42Z</time>
  <course>154.13</course>
  <speed>0.0</speed>
  <fix>3d</fix>
</trkpt>
<trkpt lat="40.0728616" lon="-105.2306208">
  <ele>1586.08</ele>
  <time>2026-08-28T19:07:42Z</time>
  <course>72.26</course>
  <speed>0.022360679774997897</speed>
  <fix>3d</fix>
</trkpt>
<trkpt lat="40.0728615" lon="-105.2306208">
  <ele>1586.0</ele>
  <time>2026-08-28T19:07:42Z</time>
  <course>88.02</course>
  <speed>0.0</speed>
  <fix>3d</fix>
</trkpt>
<trkpt lat="40.0728616" lon="-105.2306208">
  <ele>1586.07</ele>
  <time>2026-08-28T19:07:42Z</time>
  <course>72.26</course>
  <speed>0.022360679774997897</speed>
  <fix>3d</fix>
</trkpt>
<trkpt lat="40.0728615" lon="-105.2306208">
  <ele>1586.0</ele>
  <time>2026-08-28T19:07:42Z</time>
  <course>137.17</course>
  <speed>0.0</speed>
  <fix>3d</fix>
</trkpt>
<trkpt lat="40.0728616" lon="-105.2306208">
  <ele>1586.07</ele>
  <time>2026-08-28T19:07:42Z</time>
  <course>72.27</course>
  <speed>0.022360679774997897</speed>
  <fix>3d</fix>
</trkpt>
<trkpt lat="40.0728615" lon="-105.2306208">
  <ele>1586.0</ele>
  <time>2026-08-28T19:07:42Z</time>
  <course>154.04</course>
  <speed>0.0</speed>
  <fix>3d</fix>
</trkpt>
<trkpt lat="40.0728616" lon="-105.2306208">
  <ele>1586.07</ele>
  <time>2026-08-28T19:07:42Z</time>
  <course>72.27</course>
  <speed>0.022360679774997897</speed>
  <fix>3d</fix>
</trkpt>
<trkpt lat="40.0728615" lon="-105.2306208">
  <ele>1586.0</ele>
  <time>2026-08-28T19:07:42Z</time>
  <course>149.86</course>
  <speed>0.0</speed>
  <fix>3d</fix>
</trkpt>
<trkpt lat="40.0728616" lon="-105.2306208">
  <ele>1586.07</ele>
  <time>2026-08-28T19:07:42Z</time>
  <course>72.28</course>
  <speed>0.022360679774997897</speed>
  <fix>3d</fix>
</trkpt>
<trkpt lat="40.0728615" lon="-105.2306208">
  <ele>1586.0</ele>
  <time>2026-08-28T19:07:42Z</time>
  <course>154.98</course>
  <speed>0.0</speed>
  <fix>3d</fix>
</trkpt>
<trkpt lat="40.0728616" lon="-105.2306207">
  <ele>1586.07</ele>
  <time>2026-08-28T19:07:42Z</time>
  <course>72.28</course>
  <speed>0.022360679774997897</speed>
  <fix>3d</fix>
</trkpt>
<trkpt lat="40.0728615" lon="-105.2306208">
  <ele>1586.0</ele>
  <time>2026-08-28T19:07:42Z</time>
  <course>154.59</course>
  <speed>0.0</speed>
  <fix>3d</fix>
</trkpt>
<trkpt lat="40.0728616" lon="-105.2306207">
  <ele>1586.08</ele>
  <time>2026-08-28T19:07:42Z</time>
  <course>72.29</course>
  <speed>0.022360679774997897</speed>
  <fix>3d</fix>
</trkpt>
<trkpt lat="40.0728615" lon="-105.2306208">
  <ele>1586.0</ele>
  <time>2026-08-28T19:07:42Z</time>
  <course>153.97</course>
  <speed>0.0</speed>
  <fix>3d</fix>
</trkpt>
<trkpt lat="40.0728616" lon="-105.2306208">
  <ele>1586.08</ele>
  <time>2026-08-28T19:07:42Z</time>
  <course>72.29</course>
  <speed>0.022360679774997897</speed>
  <fix>3d</fix>
</trkpt>
<trkpt lat="40.0728615" lon="-105.2306208">
  <ele>1586.0</ele>
  <time>2026-08-28T19:07:42Z</time>
  <course>154.08</course>
  <speed>0.0</speed>
  <fix>3d</fix>
</trkpt>
<trkpt lat="40.0728616" lon="-105.2306208">
  <ele>1586.08</ele>
  <time>2026-08-28T19:07:42Z</time>
  <course>72.29</course>
  <speed>0.022360679774997897</speed>
  <fix>3d</fix>
</trkpt>
<trkpt lat="40.0728615" lon="-105.2306208">
  <ele>1586.0</ele>
  <time>2026-08-28T19:07:42Z</time>
  <course>154.15</course>
  <speed>0.0</speed>
  <fix>3d</fix>
</trkpt>
<trkpt lat="40.0728616" lon="-105.2306208">
  <ele>1586.08</ele>
  <time>2026-08-28T19:07:42Z</time>
  <course>72.3</course>
  <speed>0.022360679774997897</speed>
  <fix>3d</fix>
</trkpt>
<trkpt lat="40.0728615" lon="-105.2306208">
  <ele>1586.0</ele>
  <time>2026-08-28T19:07:42Z</time>
  <course>154.13</course>
  <speed>0.0</speed>
  <fix>3d</fix>
</trkpt>
<trkpt lat="40.0728616" lon="-105.2306208">
  <ele>1586.08</ele>
  <time>2026-08-28T19:07:42Z</time>
  <course>72.3</course>
  <speed>0.02</speed>
  <fix>3d</fix>
</trkpt>
<trkpt lat="40.0728615" lon="-105.2306208">
  <ele>1586.0</ele>
  <time>2026-08-28T19:07:42Z</time>
  <course>154.12</course>
  <speed>0.0</speed>
  <fix>3d</fix>
</trkpt>
<trkpt lat="40.0728616" lon="-105.2306208">
  <ele>1586.08</ele>
  <time>2026-08-28T19:07:42Z</time>
  <course>72.3</course>
  <speed>0.02</speed>
  <fix>3d</fix>
</trkpt>
<trkpt lat="40.0728615" lon="-105.2306208">
  <ele>1586.0</ele>
  <time>2026-08-28T19:07:42Z</time>
  <course>154.13</course>
  <speed>0.0</speed>
  <fix>3d</fix>
</trkpt>
<trkpt lat="40.0728616" lon="-105.2306208">
  <ele>1586.08</ele>
  <time>2026-08-28T19:07:42Z</time>
  <course>72.31</course>
  <speed>0.02</speed>
  <fix>3d</fix>
</trkpt>
<trkpt lat="40.0728615" lon="-105.2306208">
  <ele>1586.0</ele>
  <time>2026-08-28T19:07:42Z</time>
  <course>154.13</course>
  <speed>0.0</speed>
  <fix>3d</fix>
</trkpt>
<trkpt lat="40.0728616" lon="-105.2306208">
  <ele>1586.08</ele>
  <time>2026-08-28T19:07:42Z</time>
  <course>72.31</course>
  <speed>0.01</speed>
  <fix>3d</fix>
</trkpt>
<trkpt lat="40.0728615" lon="-105.2306208">
  <ele>1586.0</ele>
  <time>2026-08-28T19:07:42Z</time>
  <course>154.09</course>
  <speed>0.0</speed>
  <fix>3d</fix>
</trkpt>
<trkpt lat="40.0728616" lon="-105.2306208">
  <ele>1586.08</ele>
  <time>2026-08-28T19:07:42Z</time>
  <course>72.31</course>
  <speed>0.01</speed>
  <fix>3d</fix>
</trkpt>
<trkpt lat="40.0728615" lon="-105.2306208">
  <ele>1586.0</ele>
  <time>2026-08-28T19:07:42Z</time>
  <course>153.99</course>
  <speed>0.0</speed>
  <fix>3d</fix>
</trkpt>
<trkpt lat="40.0728616" lon="-105.2306208">
  <ele>1586.08</ele>
  <time>2026-08-28T19:07:42Z</time>
  <course>72.31</course>
  <speed>0.01</speed>
  <fix>3d</fix>
</trkpt>
<trkpt lat="40.0728615" lon="-105.2306208">
  <ele>1586.0</ele>
  <time>2026-08-28T19:07:42Z</time>
  <course>153.87</course>
  <speed>0.0</speed>
  <fix>3d</fix>
</trkpt>
<trkpt lat="40.0728616" lon="-105.2306208">
  <ele>1586.08</ele>
  <time>2026-08-28T19:07:42Z</time>
  <course>72.3</course>
  <speed>0.01</speed>
  <fix>3d</fix>
</trkpt>
<trkpt lat="40.0728615" lon="-105.2306208">
  <ele>1586.0</ele>
  <time>2026-08-28T19:07:42Z</time>
  <course>153.76</course>
  <speed>0.0</speed>
  <fix>3d</fix>
</trkpt>
<trkpt lat="40.0728616" lon="-105.2306208">
  <ele>1586.08</ele>
  <time>2026-08-28T19:07:42Z</time>
  <course>72.3</course>
  <speed>0.01</speed>
  <fix>3d</fix>
</trkpt>
<trkpt lat="40.0728615" lon="-105.2306208">
  <ele>1586.0</ele>
  <time>2026-08-28T19:07:42Z</time>
  <course>153.67</course>
  <speed>0.0</speed>
  <fix>3d</fix>
</trkpt>
<trkpt lat="40.0728616" lon="-105.2306208">
  <ele>1586.08</ele>
  <time>2026-08-28T19:07:42Z</time>
  <course>72.29</course>
  <speed>0.01</speed>
  <fix>3d</fix>
</trkpt>
<trkpt lat="40.0728615" lon="-105.2306208">
  <ele>1586.0</ele>
  <time>2026-08-28T19:07:42Z</time>
  <course>153.56</course>
  <speed>0.0</speed>
  <fix>3d</fix>
</trkpt>
<trkpt lat="40.0728616" lon="-105.2306208">
  <ele>1586.08</ele>
  <time>2026-08-28T19:07:42Z</time>
  <course>72.28</course>
  <speed>0.01</speed>
  <fix>3d</fix>
</trkpt>
<trkpt lat="40.0728615" lon="-105.2306208">
  <ele>1586.0</ele>
  <time>2026-08-28T19:07:42Z</time>
  <course>153.45</course>
  <speed>0.0</speed>
  <fix>3d</fix>
</trkpt>
<trkpt lat="40.0728616" lon="-105.2306208">
  <ele>1586.08</ele>
  <time>2026-08-28T19:07:42Z</time>
  <course>72.27</course>
  <speed>0.01</speed>
  <fix>3d</fix>
</trkpt>
<trkpt lat="40.0728615" lon="-105.2306208">
  <ele>1586.0</ele>
  <time>2026-08-28T19:07:42Z</time>
  <course>153.35</course>
  <speed>0.0</speed>
  <fix>3d</fix>
</trkpt>
<trkpt lat="40.0728616" lon="-105.2306208">
  <ele>1586.08</ele>
  <time>2026-08-28T19:07:42Z</time>
  <course>72.26</course>
  <speed>0.01</speed>
  <fix>3d</fix>
</trkpt>
<trkpt lat="40.0728615" lon="-105.2306208">
  <ele>1586.0</ele>
  <time>2026-08-28T19:07:42Z</time>
  <course>153.24</course>
  <speed>0.0</speed>
  <fix>3d</fix>
</trkpt>
<trkpt lat="40.0728616" lon="-105.2306208">
  <ele>1586.07</ele>
  <time>2026-08-28T19:07:42Z</time>
  <course>72.25</course>
  <speed>0.01</speed>
  <fix>3d</fix>
</trkpt>
<trkpt lat="40.0728615" lon="-105.2306208">
  <ele>1586.0</ele>
  <time>2026-08-28T19:07:42Z</time>
  <course>153.13</course>
  <speed>0.0</speed>
  <fix>3d</fix>
</trkpt>
<trkpt lat="40.0728616" lon="-105.2306208">
  <ele>1586.07</ele>
  <time>2026-08-28T19:07:42Z</time>
  <course>72.23</course>
  <speed>0.01</speed>
  <fix>3d</fix>
</trkpt>
<trkpt lat="40.0728615" lon="-105.2306208">
  <ele>1586.0</ele>
  <time>2026-08-28T19:07:42Z</time>
  <course>153.01</course>
  <speed>0.0</speed>
  <fix>3d</fix>
</trkpt>
<trkpt lat="40.0728616" lon="-105.2306208">
  <ele>1586.07</ele>
  <time>2026-08-28T19:07:42Z</time>
  <course>72.22</course>
  <speed>0.01</speed>
  <fix>3d</fix>
</trkpt>
<trkpt lat="40.0728615" lon="-105.2306208">
  <ele>1586.0</ele>
  <time>2026-08-28T19:07:42Z</time>
  <course>152.9</course>
  <speed>0.0</speed>
  <fix>3d</fix>
</trkpt>
<trkpt lat="40.0728616" lon="-105.2306208">
  <ele>1586.07</ele>
  <time>2026-08-28T19:07:42Z</time>
  <course>72.2</course>
  <speed>0.01</speed>
  <fix>3d</fix>
</trkpt>
<trkpt lat="40.0728615" lon="-105.2306208">
  <ele>1586.0</ele>
  <time>2026-08-28T19:07:42Z</time>
  <course>338.41</course>
  <speed>0.0</speed>
  <fix>3d</fix>
</trkpt>
<trkpt lat="40.0728616" lon="-105.2306208">
  <ele>1586.07</ele>
  <time>2026-08-28T19:07:42Z</time>
  <course>72.18</course>
  <speed>0.01</speed>
  <fix>3d</fix>
</trkpt>
<trkpt lat="40.0728615" lon="-105.2306208">
  <ele>1586.0</ele>
  <time>2026-08-28T19:07:42Z</time>
  <course>338.18</course>
  <speed>0.0</speed>
  <fix>3d</fix>
</trkpt>
<trkpt lat="40.0728616" lon="-105.2306208">
  <ele>1586.07</ele>
  <time>2026-08-28T19:07:42Z</time>
  <course>72.15</course>
  <speed>0.01</speed>
  <fix>3d</fix>
</trkpt>
<trkpt lat="40.0728615" lon="-105.2306208">
  <ele>1586.0</ele>
  <time>2026-08-28T19:07:42Z</time>
  <course>338.39</course>
  <speed>0.0</speed>
  <fix>3d</fix>
</trkpt>
<trkpt lat="40.0728616" lon="-105.2306208">
  <ele>1586.07</ele>
  <time>2026-08-28T19:07:42Z</time>
  <course>72.13</course>
  <speed>0.01</speed>
  <fix>3d</fix>
</trkpt>
<trkpt lat="40.0728615" lon="-105.2306208">
  <ele>1586.0</ele>
  <time>2026-08-28T19:07:42Z</time>
  <course>339.27</course>
  <speed>0.0</speed>
  <fix>3d</fix>
</trkpt>
<trkpt lat="40.0728616" lon="-105.2306208">
  <ele>1586.08</ele>
  <time>2026-08-28T19:07:42Z</time>
  <course>72.11</course>
  <speed>0.02</speed>
  <fix>3d</fix>
</trkpt>
<trkpt lat="40.0728615" lon="-105.2306208">
  <ele>1586.0</ele>
  <time>2026-08-28T19:07:42Z</time>
  <course>338.21</course>
  <speed>0.0</speed>
  <fix>3d</fix>
</trkpt>
<trkpt lat="40.0728616" lon="-105.2306208">
  <ele>1586.08</ele>
  <time>2026-08-28T19:07:42Z</time>
  <course>72.08</course>
  <speed>0.02</speed>
  <fix>3d</fix>
</trkpt>
<trkpt lat="40.0728615" lon="-105.2306208">
  <ele>1586.0</ele>
  <time>2026-08-28T19:07:42Z</time>
  <course>337.94</course>
  <speed>0.0</speed>
  <fix>3d</fix>
</trkpt>
<trkpt lat="40.0728616" lon="-105.2306208">
  <ele>1586.08</ele>
  <time>2026-08-28T19:07:42Z</time>
  <course>72.05</course>
  <speed>0.02</speed>
  <fix>3d</fix>
</trkpt>
<trkpt lat="40.0728615" lon="-105.2306208">
  <ele>1586.0</ele>
  <time>2026-08-28T19:07:42Z</time>
  <course>337.91</course>
  <speed>0.0</speed>
  <fix>3d</fix>
</trkpt>
<trkpt lat="40.0728616" lon="-105.2306208">
  <ele>1586.08</ele>
  <time>2026-08-28T19:07:42Z</time>
  <course>72.02</course>
  <speed>0.02</speed>
  <fix>3d</fix>
</trkpt>
<trkpt lat="40.0728615" lon="-105.2306208">
  <ele>1586.0</ele>
  <time>2026-08-28T19:07:42Z</time>
  <course>337.98</course>
  <speed>0.0</speed>
  <fix>3d</fix>
</trkpt>
<trkpt lat="40.0728616" lon="-105.2306208">
  <ele>1586.08</ele>
  <time>2026-08-28T19:07:42Z</time>
  <course>71.99</course>
  <speed>0.022360679774997897</speed>
  <fix>3d</fix>
</trkpt>
<trkpt lat="40.0728615" lon="-105.2306208">
  <ele>1586.0</ele>
  <time>2026-08-28T19:07:42Z</time>
  <course>337.76</course>
  <speed>0.0</speed>
  <fix>3d</fix>
</trkpt>
<trkpt lat="40.0728616" lon="-105.2306208">
  <ele>1586.08</ele>
  <time>2026-08-28T19:07:42Z</time>
  <course>71.96</course>
  <speed>0.022360679774997897</speed>
  <fix>3d</fix>
</trkpt>
<trkpt lat="40.0728615" lon="-105.2306208">
  <ele>1586.0</ele>
  <time>2026-08-28T19:07:42Z</time>
  <course>337.72</course>
  <speed>0.0</speed>
  <fix>3d</fix>
</trkpt>
<trkpt lat="40.0728616" lon="-105.2306208">
  <ele>1586.08</ele>
  <time>2026-08-28T19:07:42Z</time>
  <course>71.93</course>
  <speed>0.022360679774997897</speed>
  <fix>3d</fix>
</trkpt>
<trkpt lat="40.0728615" lon="-105.2306208">
  <ele>1586.0</ele>
  <time>2026-08-28T19:07:42Z</time>
  <course>337.54</course>
  <speed>0.0</speed>
  <fix>3d</fix>
</trkpt>
<trkpt lat="40.0728616" lon="-105.2306208">
  <ele>1586.08</ele>
  <time>2026-08-28T19:07:42Z</time>
  <course>71.89</course>
  <speed>0.022360679774997897</speed>
  <fix>3d</fix>
</trkpt>
<trkpt lat="40.0728615" lon="-105.2306208">
  <ele>1586.0</ele>
  <time>2026-08-28T19:07:42Z</time>
  <course>337.57</course>
  <speed>0.0</speed>
  <fix>3d</fix>
</trkpt>
<trkpt lat="40.0728616" lon="-105.2306208">
  <ele>1586.08</ele>
  <time>2026-08-28T19:07:42Z</time>
  <course>71.86</course>
  <speed>0.022360679774997897</speed>
  <fix>3d</fix>
</trkpt>
<trkpt lat="40.0728615" lon="-105.2306208">
  <ele>1586.0</ele>
  <time>2026-08-28T19:07:42Z</time>
  <course>337.55</course>
  <speed>0.0</speed>
  <fix>3d</fix>
</trkpt>
<trkpt lat="40.0728616" lon="-105.2306208">
  <ele>1586.08</ele>
  <time>2026-08-28T19:07:42Z</time>
  <course>71.82</course>
  <speed>0.022360679774997897</speed>
  <fix>3d</fix>
</trkpt>
<trkpt lat="40.0728615" lon="-105.2306208">
  <ele>1586.0</ele>
  <time>2026-08-28T19:07:42Z</time>
  <course>337.23</course>
  <speed>0.0</speed>
  <fix>3d</fix>
</trkpt>
<trkpt lat="40.0728616" lon="-105.2306208">
  <ele>1586.08</ele>
  <time>2026-08-28T19:07:42Z</time>
  <course>71.78</course>
  <speed>0.022360679774997897</speed>
  <fix>3d</fix>
</trkpt>
<trkpt lat="40.0728615" lon="-105.2306208">
  <ele>1586.0</ele>
  <time>2026-08-28T19:07:42Z</time>
  <course>337.37</course>
  <speed>0.0</speed>
  <fix>3d</fix>
</trkpt>
<trkpt lat="40.0728616" lon="-105.2306208">
  <ele>1586.09</ele>
  <time>2026-08-28T19:07:42Z</time>
  <course>71.74</course>
  <speed>0.022360679774997897</speed>
  <fix>3d</fix>
</trkpt>
<trkpt lat="40.0728615" lon="-105.2306208">
  <ele>1586.0</ele>
  <time>2026-08-28T19:07:42Z</time>
  <course>337.35</course>
  <speed>0.0</speed>
  <fix>3d</fix>
</trkpt>
<trkpt lat="40.0728616" lon="-105.2306208">
  <ele>1586.09</ele>
  <time>2026-08-28T19:07:42Z</time>
  <course>71.7</course>
  <speed>0.022360679774997897</speed>
  <fix>3d</fix>
</trkpt>
<trkpt lat="40.0728615" lon="-105.2306208">
  <ele>1586.0</ele>
  <time>2026-08-28T19:07:42Z</time>
  <course>337.22</course>
  <speed>0.0</speed>
  <fix>3d</fix>
</trkpt>
<trkpt lat="40.0728616" lon="-105.2306208">
  <ele>1586.09</ele>
  <time>2026-08-28T19:07:42Z</time>
  <course>71.66</course>
  <speed>0.022360679774997897</speed>
  <fix>3d</fix>
</trkpt>
<trkpt lat="40.0728615" lon="-105.2306208">
  <ele>1586.0</ele>
  <time>2026-08-28T19:07:42Z</time>
  <course>337.22</course>
  <speed>0.0</speed>
  <fix>3d</fix>
</trkpt>
<trkpt lat="40.0728616" lon="-105.2306208">
  <ele>1586.09</ele>
  <time>2026-08-28T19:07:42Z</time>
  <course>71.62</course>
  <speed>0.022360679774997897</speed>
  <fix>3d</fix>
</trkpt>
<trkpt lat="40.0728615" lon="-105.2306208">
  <ele>1586.0</ele>
  <time>2026-08-28T19:07:42Z</time>
  <course>337.01</course>
  <speed>0.0</speed>
  <fix>3d</fix>
</trkpt>
<trkpt lat="40.0728616" lon="-105.2306208">
  <ele>1586.09</ele>
  <time>2026-08-28T19:07:42Z</time>
  <course>71.57</course>
  <speed>0.022360679774997897</speed>
  <fix>3d</fix>
</trkpt>
<trkpt lat="40.0728615" lon="-105.2306208">
  <ele>1586.0</ele>
  <time>2026-08-28T19:07:42Z</time>
  <course>337.0</course>
  <speed>0.0</speed>
  <fix>3d</fix>
</trkpt>
<trkpt lat="40.0728616" lon="-105.2306208">
  <ele>1586.09</ele>
  <time>2026-08-28T19:07:42Z</time>
  <course>71.53</course>
  <speed>0.022360679774997897</speed>
  <fix>3d</fix>
</trkpt>
<trkpt lat="40.0728615" lon="-105.2306208">
  <ele>1586.0</ele>
  <time>2026-08-28T19:07:42Z</time>
  <course>336.9</course>
  <speed>0.0</speed>
  <fix>3d</fix>
</trkpt>
<trkpt lat="40.0728616" lon="-105.2306208">
  <ele>1586.09</ele>
  <time>2026-08-28T19:07:42Z</time>
  <course>71.48</course>
  <speed>0.022360679774997897</speed>
  <fix>3d</fix>
</trkpt>
<trkpt lat="40.0728615" lon="-105.2306208">
  <ele>1586.0</ele>
  <time>2026-08-28T19:07:42Z</time>
  <course>336.83</course>
  <speed>0.0</speed>
  <fix>3d</fix>
</trkpt>
<trkpt lat="40.0728616" lon="-105.2306207">
  <ele>1586.09</ele>
  <time>2026-08-28T19:07:42Z</time>
  <course>71.44</course>
  <speed>0.022360679774997897</speed>
  <fix>3d</fix>
</trkpt>
<trkpt lat="40.0728615" lon="-105.2306208">
  <ele>1586.0</ele>
  <time>2026-08-28T19:07:42Z</time>
  <course>336.8</course>
  <speed>0.0</speed>
  <fix>3d</fix>
</trkpt>
<trkpt lat="40.0728616" lon="-105.2306207">
  <ele>1586.09</ele>
  <time>2026-08-28T19:07:42Z</time>
  <course>71.39</course>
  <speed>0.022360679774997897</speed>
  <fix>3d</fix>
</trkpt>
<trkpt lat="40.0728615" lon="-105.2306208">
  <ele>1586.0</ele>
  <time>2026-08-28T19:07:42Z</time>
  <course>336.72</course>
  <speed>0.0</speed>
  <fix>3d</fix>
</trkpt>
<trkpt lat="40.0728616" lon="-105.2306207">
  <ele>1586.08</ele>
  <time>2026-08-28T19:07:42Z</time>
  <course>71.34</course>
  <speed>0.022360679774997897</speed>
  <fix>3d</fix>
</trkpt>
<trkpt lat="40.0728615" lon="-105.2306208">
  <ele>1586.0</ele>
  <time>2026-08-28T19:07:42Z</time>
  <course>336.71</course>
  <speed>0.0</speed>
  <fix>3d</fix>
</trkpt>
<trkpt lat="40.0728616" lon="-105.2306207">
  <ele>1586.08</ele>
  <time>2026-08-28T19:07:42Z</time>
  <course>71.29</course>
  <speed>0.022360679774997897</speed>
  <fix>3d</fix>
</trkpt>
<trkpt lat="40.0728615" lon="-105.2306208">
  <ele>1586.0</ele>
  <time>2026-08-28T19:07:42Z</time>
  <course>336.61</course>
  <speed>0.0</speed>
  <fix>3d</fix>
</trkpt>
<trkpt lat="40.0728616" lon="-105.2306207">
  <ele>1586.08</ele>
  <time>2026-08-28T19:07:42Z</time>
  <course>71.24</course>
  <speed>0.022360679774997897</speed>
  <fix>3d</fix>
</trkpt>
<trkpt lat="40.0728615" lon="-105.2306208">
  <ele>1586.0</ele>
  <time>2026-08-28T19:07:42Z</time>
  <course>336.54</course>
  <speed>0.0</speed>
  <fix>3d</fix>
</trkpt>
<trkpt lat="40.0728616" lon="-105.2306207">
  <ele>1586.08</ele>
  <time>2026-08-28T19:07:42Z</time>
  <course>71.19</course>
  <speed>0.022360679774997897</speed>
  <fix>3d</fix>
</trkpt>
<trkpt lat="40.0728615" lon="-105.2306208">
  <ele>1586.0</ele>
  <time>2026-08-28T19:07:42Z</time>
  <course>336.45</course>
  <speed>0.0</speed>
  <fix>3d</fix>
</trkpt>
<trkpt lat="40.0728616" lon="-105.2306207">
  <ele>1586.08</ele>
  <time>2026-08-28T19:07:42Z</time>
  <course>71.14</course>
  <speed>0.022360679774997897</speed>
  <fix>3d</fix>
</trkpt>
<trkpt lat="40.0728615" lon="-105.2306208">
  <ele>1586.0</ele>
  <time>2026-08-28T19:07:42Z</time>
  <course>336.36</course>
  <speed>0.0</speed>
  <fix>3d</fix>
</trkpt>
<trkpt lat="40.0728616" lon="-105.2306207">
  <ele>1586.08</ele>
  <time>2026-08-28T19:07:42Z</time>
  <course>71.09</course>
  <speed>0.022360679774997897</speed>
  <fix>3d</fix>
</trkpt>
<trkpt lat="40.0728615" lon="-105.2306208">
  <ele>1586.0</ele>
  <time>2026-08-28T19:07:42Z</time>
  <course>336.2</course>
  <speed>0.0</speed>
  <fix>3d</fix>
</trkpt>
<trkpt lat="40.0728616" lon="-105.2306207">
  <ele>1586.09</ele>
  <time>2026-08-28T19:07:42Z</time>
  <course>71.04</course>
  <speed>0.022360679774997897</speed>
  <fix>3d</fix>
</trkpt>
<trkpt lat="40.0728615" lon="-105.2306208">
  <ele>1586.0</ele>
  <time>2026-08-28T19:07:42Z</time>
  <course>336.04</course>
  <speed>0.0</speed>
  <fix>3d</fix>
</trkpt>
<trkpt lat="40.0728616" lon="-105.2306207">
  <ele>1586.08</ele>
  <time>2026-08-28T19:07:42Z</time>
  <course>70.99</course>
  <speed>0.022360679774997897</speed>
  <fix>3d</fix>
</trkpt>
<trkpt lat="40.0728615" lon="-105.2306208">
  <ele>1586.0</ele>
  <time>2026-08-28T19:07:42Z</time>
  <course>335.95</course>
  <speed>0.0</speed>
  <fix>3d</fix>
</trkpt>
<trkpt lat="40.0728616" lon="-105.2306207">
  <ele>1586.08</ele>
  <time>2026-08-28T19:07:42Z</time>
  <course>70.95</course>
  <speed>0.022360679774997897</speed>
  <fix>3d</fix>
</trkpt>
<trkpt lat="40.0728615" lon="-105.2306208">
  <ele>1586.0</ele>
  <time>2026-08-28T19:07:42Z</time>
  <course>335.99</course>
  <speed>0.0</speed>
  <fix>3d</fix>
</trkpt>
<trkpt lat="40.0728616" lon="-105.2306207">
  <ele>1586.08</ele>
  <time>2026-08-28T19:07:42Z</time>
  <course>70.9</course>
  <speed>0.022360679774997897</speed>
  <fix>3d</fix>
</trkpt>
<trkpt lat="40.0728615" lon="-105.2306208">
  <ele>1586.0</ele>
  <time>2026-08-28T19:07:42Z</time>
  <course>335.88</course>
  <speed>0.0</speed>
  <fix>3d</fix>
</trkpt>
<trkpt lat="40.0728616" lon="-105.2306207">
  <ele>1586.08</ele>
  <time>2026-08-28T19:07:42Z</time>
  <course>70.85</course>
  <speed>0.022360679774997897</speed>
  <fix>3d</fix>
</trkpt>
<trkpt lat="40.0728615" lon="-105.2306208">
  <ele>1586.0</ele>
  <time>2026-08-28T19:07:42Z</time>
  <course>335.85</course>
  <speed>0.0</speed>
  <fix>3d</fix>
</trkpt>
<trkpt lat="40.0728616" lon="-105.2306207">
  <ele>1586.08</ele>
  <time>2026-08-28T19:07:42Z</time>
  <course>70.81</course>
  <speed>0.022360679774997897</speed>
  <fix>3d</fix>
</trkpt>
<trkpt lat="40.0728615" lon="-105.2306208">
  <ele>1586.0</ele>
  <time>2026-08-28T19:07:42Z</time>
  <course>335.76</course>
  <speed>0.0</speed>
  <fix>3d</fix>
</trkpt>
<trkpt lat="40.0728616" lon="-105.2306207">
  <ele>1586.08</ele>
  <time>2026-08-28T19:07:42Z</time>
  <course>70.76</course>
  <speed>0.022360679774997897</speed>
  <fix>3d</fix>
</trkpt>
<trkpt lat="40.0728615" lon="-105.2306208">
  <ele>1586.0</ele>
  <time>2026-08-28T19:07:42Z</time>
  <course>335.75</course>
  <speed>0.0</speed>
  <fix>3d</fix>
</trkpt>
<trkpt lat="40.0728616" lon="-105.2306207">
  <ele>1586.09</ele>
  <time>2026-08-28T19:07:42Z</time>
  <course>70.72</course>
  <speed>0.022360679774997897</speed>
  <fix>3d</fix>
</trkpt>
<trkpt lat="40.0728615" lon="-105.2306208">
  <ele>1586.0</ele>
  <time>2026-08-28T19:07:42Z</time>
  <course>335.69</course>
  <speed>0.0</speed>
  <fix>3d</fix>
</trkpt>
<trkpt lat="40.0728616" lon="-105.2306207">
  <ele>1586.09</ele>
  <time>2026-08-28T19:07:42Z</time>
  <course>70.67</course>
  <speed>0.022360679774997897</speed>
  <fix>3d</fix>
</trkpt>
<trkpt lat="40.0728615" lon="-105.2306208">
  <ele>1586.0</ele>
  <time>2026-08-28T19:07:42Z</time>
  <course>335.6</course>
  <speed>0.0</speed>
  <fix>3d</fix>
</trkpt>
<trkpt lat="40.0728616" lon="-105.2306207">
  <ele>1586.09</ele>
  <time>2026-08-28T19:07:42Z</time>
  <course>70.63</course>
  <speed>0.022360679774997897</speed>
  <fix>3d</fix>
</trkpt>
<trkpt lat="40.0728615" lon="-105.2306208">
  <ele>1586.0</ele>
  <time>2026-08-28T19:07:42Z</time>
  <course>335.2</course>
  <speed>0.0</speed>
  <fix>3d</fix>
</trkpt>
<trkpt lat="40.0728616" lon="-105.2306207">
  <ele>1586.1</ele>
  <time>2026-08-28T19:07:42Z</time>
  <course>70.59</course>
  <speed>0.022360679774997897</speed>
  <fix>3d</fix>
</trkpt>
<trkpt lat="40.0728615" lon="-105.2306208">
  <ele>1586.0</ele>
  <time>2026-08-28T19:07:42Z</time>
  <course>335.49</course>
  <speed>0.0</speed>
  <fix>3d</fix>
</trkpt>
<trkpt lat="40.0728616" lon="-105.2306207">
  <ele>1586.09</ele>
  <time>2026-08-28T19:07:42Z</time>
  <course>70.54</course>
  <speed>0.022360679774997897</speed>
  <fix>3d</fix>
</trkpt>
<trkpt lat="40.0728615" lon="-105.2306208">
  <ele>1586.0</ele>
  <time>2026-08-28T19:07:42Z</time>
  <course>334.98</course>
  <speed>0.0</speed>
  <fix>3d</fix>
</trkpt>
<trkpt lat="40.0728616" lon="-105.2306207">
  <ele>1586.09</ele>
  <time>2026-08-28T19:07:42Z</time>
  <course>70.5</course>
  <speed>0.022360679774997897</speed>
  <fix>3d</fix>
</trkpt>
<trkpt lat="40.0728615" lon="-105.2306208">
  <ele>1586.0</ele>
  <time>2026-08-28T19:07:42Z</time>
  <course>335.13</course>
  <speed>0.0</speed>
  <fix>3d</fix>
</trkpt>
<trkpt lat="40.0728616" lon="-105.2306207">
  <ele>1586.09</ele>
  <time>2026-08-28T19:07:42Z</time>
  <course>70.46</course>
  <speed>0.022360679774997897</speed>
  <fix>3d</fix>
</trkpt>
<trkpt lat="40.0728615" lon="-105.2306208">
  <ele>1586.0</ele>
  <time>2026-08-28T19:07:42Z</time>
  <course>335.19</course>
  <speed>0.0</speed>
  <fix>3d</fix>
</trkpt>
<trkpt lat="40.0728616" lon="-105.2306207">
  <ele>1586.09</ele>
  <time>2026-08-28T19:07:42Z</time>
  <course>70.42</course>
  <speed>0.022360679774997897</speed>
  <fix>3d</fix>
</trkpt>
<trkpt lat="40.0728615" lon="-105.2306208">
  <ele>1586.0</ele>
  <time>2026-08-28T19:07:42Z</time>
  <course>335.19</course>
  <speed>0.0</speed>
  <fix>3d</fix>
</trkpt>
<trkpt lat="40.0728616" lon="-105.2306207">
  <ele>1586.09</ele>
  <time>2026-08-28T19:07:42Z</time>
  <course>70.38</course>
  <speed>0.022360679774997897</speed>
  <fix>3d</fix>
</trkpt>
<trkpt lat="40.0728615" lon="-105.2306208">
  <ele>1586.0</ele>
  <time>2026-08-28T19:07:42Z</time>
  <course>335.29</course>
  <speed>0.0</speed>
  <fix>3d</fix>
</trkpt>
<trkpt lat="40.0728616" lon="-105.2306207">
  <ele>1586.09</ele>
  <time>2026-08-28T19:07:42Z</time>
  <course>70.34</course>
  <speed>0.022360679774997897</speed>
  <fix>3d</fix>
</trkpt>
<trkpt lat="40.0728615" lon="-105.2306208">
  <ele>1586.0</ele>
  <time>2026-08-28T19:07:42Z</time>
  <course>334.88</course>
  <speed>0.0</speed>
  <fix>3d</fix>
</trkpt>
<trkpt lat="40.0728616" lon="-105.2306207">
  <ele>1586.09</ele>
  <time>2026-08-28T19:07:42Z</time>
  <course>70.3</course>
  <speed>0.022360679774997897</speed>
  <fix>3d</fix>
</trkpt>
<trkpt lat="40.0728615" lon="-105.2306208">
  <ele>1586.0</ele>
  <time>2026-08-28T19:07:42Z</time>
  <course>335.14</course>
  <speed>0.0</speed>
  <fix>3d</fix>
</trkpt>
<trkpt lat="40.0728616" lon="-105.2306207">
  <ele>1586.09</ele>
  <time>2026-08-28T19:07:42Z</time>
  <course>70.26</course>
  <speed>0.022360679774997897</speed>
  <fix>3d</fix>
</trkpt>
<trkpt lat="40.0728615" lon="-105.2306208">
  <ele>1586.0</ele>
  <time>2026-08-28T19:07:42Z</time>
  <course>334.69</course>
  <speed>0.0</speed>
  <fix>3d</fix>
</trkpt>
<trkpt lat="40.0728616" lon="-105.2306207">
  <ele>1586.09</ele>
  <time>2026-08-28T19:07:42Z</time>
  <course>70.22</course>
  <speed>0.022360679774997897</speed>
  <fix>3d</fix>
</trkpt>
<trkpt lat="40.0728615" lon="-105.2306208">
  <ele>1586.0</ele>
  <time>2026-08-28T19:07:42Z</time>
  <course>334.92</course>
  <speed>0.0</speed>
  <fix>3d</fix>
</trkpt>
<trkpt lat="40.0728616" lon="-105.2306207">
  <ele>1586.1</ele>
  <time>2026-08-28T19:07:42Z</time>
  <course>70.19</course>
  <speed>0.022360679774997897</speed>
  <fix>3d</fix>
</trkpt>
<trkpt lat="40.0728615" lon="-105.2306208">
  <ele>1586.0</ele>
  <time>2026-08-28T19:07:42Z</time>
  <course>335.14</course>
  <speed>0.0</speed>
  <fix>3d</fix>
</trkpt>
<trkpt lat="40.0728616" lon="-105.2306207">
  <ele>1586.1</ele>
  <time>2026-08-28T19:07:42Z</time>
  <course>70.15</course>
  <speed>0.022360679774997897</speed>
  <fix>3d</fix>
</trkpt>
<trkpt lat="40.0728615" lon="-105.2306208">
  <ele>1586.0</ele>
  <time>2026-08-28T19:07:42Z</time>
  <course>334.03</course>
  <speed>0.0</speed>
  <fix>3d</fix>
</trkpt>
<trkpt lat="40.0728616" lon="-105.2306207">
  <ele>1586.1</ele>
  <time>2026-08-28T19:07:42Z</time>
  <course>70.11</course>
  <speed>0.022360679774997897</speed>
  <fix>3d</fix>
</trkpt>
<trkpt lat="40.0728615" lon="-105.2306208">
  <ele>1586.0</ele>
  <time>2026-08-28T19:07:42Z</time>
  <course>334.75</course>
  <speed>0.0</speed>
  <fix>3d</fix>
</trkpt>
<trkpt lat="40.0728616" lon="-105.2306207">
  <ele>1586.1</ele>
  <time>2026-08-28T19:07:42Z</time>
  <course>70.08</course>
  <speed>0.022360679774997897</speed>
  <fix>3d</fix>
</trkpt>
<trkpt lat="40.0728615" lon="-105.2306208">
  <ele>1586.0</ele>
  <time>2026-08-28T19:07:42Z</time>
  <course>334.84</course>
  <speed>0.0</speed>
  <fix>3d</fix>
</trkpt>
<trkpt lat="40.0728616" lon="-105.2306207">
  <ele>1586.1</ele>
  <time>2026-08-28T19:07:42Z</time>
  <course>70.04</course>
  <speed>0.022360679774997897</speed>
  <fix>3d</fix>
</trkpt>
<trkpt lat="40.0728615" lon="-105.2306208">
  <ele>1586.0</ele>
  <time>2026-08-28T19:07:42Z</time>
  <course>334.56</course>
  <speed>0.0</speed>
  <fix>3d</fix>
</trkpt>
<trkpt lat="40.0728616" lon="-105.2306207">
  <ele>1586.1</ele>
  <time>2026-08-28T19:07:42Z</time>
  <course>70.0</course>
  <speed>0.022360679774997897</speed>
  <fix>3d</fix>
</trkpt>
<trkpt lat="40.0728615" lon="-105.2306208">
  <ele>1586.0</ele>
  <time>2026-08-28T19:07:42Z</time>
  <course>334.9</course>
  <speed>0.0</speed>
  <fix>3d</fix>
</trkpt>
<trkpt lat="40.0728616" lon="-105.2306207">
  <ele>1586.1</ele>
  <time>2026-08-28T19:07:42Z</time>
  <course>69.97</course>
  <speed>0.022360679774997897</speed>
  <fix>3d</fix>
</trkpt>
<trkpt lat="40.0728615" lon="-105.2306208">
  <ele>1586.0</ele>
  <time>2026-08-28T19:07:42Z</time>
  <course>334.33</course>
  <speed>0.0</speed>
  <fix>3d</fix>
</trkpt>
<trkpt lat="40.0728616" lon="-105.2306208">
  <ele>1586.1</ele>
  <time>2026-08-28T19:07:42Z</time>
  <course>69.93</course>
  <speed>0.022360679774997897</speed>
  <fix>3d</fix>
</trkpt>
<trkpt lat="40.0728615" lon="-105.2306208">
  <ele>1586.0</ele>
  <time>2026-08-28T19:07:42Z</time>
  <course>334.63</course>
  <speed>0.0</speed>
  <fix>3d</fix>
</trkpt>
<trkpt lat="40.0728616" lon="-105.2306208">
  <ele>1586.09</ele>
  <time>2026-08-28T19:07:42Z</time>
  <course>69.9</course>
  <speed>0.022360679774997897</speed>
  <fix>3d</fix>
</trkpt>
<trkpt lat="40.0728615" lon="-105.2306208">
  <ele>1586.0</ele>
  <time>2026-08-28T19:07:42Z</time>
  <course>334.84</course>
  <speed>0.0</speed>
  <fix>3d</fix>
</trkpt>
<trkpt lat="40.0728616" lon="-105.2306208">
  <ele>1586.09</ele>
  <time>2026-08-28T19:07:42Z</time>
  <course>69.87</course>
  <speed>0.022360679774997897</speed>
  <fix>3d</fix>
</trkpt>
<trkpt lat="40.0728615" lon="-105.2306208">
  <ele>1586.0</ele>
  <time>2026-08-28T19:07:42Z</time>
  <course>333.81</course>
  <speed>0.0</speed>
  <fix>3d</fix>
</trkpt>
<trkpt lat="40.0728616" lon="-105.2306208">
  <ele>1586.09</ele>
  <time>2026-08-28T19:07:42Z</time>
  <course>69.83</course>
  <speed>0.022360679774997897</speed>
  <fix>3d</fix>
</trkpt>
<trkpt lat="40.0728615" lon="-105.2306208">
  <ele>1586.0</ele>
  <time>2026-08-28T19:07:42Z</time>
  <course>334.51</course>
  <speed>0.0</speed>
  <fix>3d</fix>
</trkpt>
<trkpt lat="40.0728616" lon="-105.2306208">
  <ele>1586.09</ele>
  <time>2026-08-28T19:07:42Z</time>
  <course>69.8</course>
  <speed>0.022360679774997897</speed>
  <fix>3d</fix>
</trkpt>
<trkpt lat="40.0728615" lon="-105.2306208">
  <ele>1586.0</ele>
  <time>2026-08-28T19:07:42Z</time>
  <course>334.76</course>
  <speed>0.0</speed>
  <fix>3d</fix>
</trkpt>
<trkpt lat="40.0728616" lon="-105.2306207">
  <ele>1586.09</ele>
  <time>2026-08-28T19:07:42Z</time>
  <course>69.77</course>
  <speed>0.022360679774997897</speed>
  <fix>3d</fix>
</trkpt>
<trkpt lat="40.0728615" lon="-105.2306208">
  <ele>1586.0</ele>
  <time>2026-08-28T19:07:42Z</time>
  <course>333.87</course>
  <speed>0.0</speed>
  <fix>3d</fix>
</trkpt>
<trkpt lat="40.0728616" lon="-105.2306207">
  <ele>1586.09</ele>
  <time>2026-08-28T19:07:42Z</time>
  <course>69.73</course>
  <speed>0.022360679774997897</speed>
  <fix>3d</fix>
</trkpt>
<trkpt lat="40.0728615" lon="-105.2306208">
  <ele>1586.0</ele>
  <time>2026-08-28T19:07:42Z</time>
  <course>334.46</course>
  <speed>0.0</speed>
  <fix>3d</fix>
</trkpt>
<trkpt lat="40.0728616" lon="-105.2306208">
  <ele>1586.09</ele>
  <time>2026-08-28T19:07:42Z</time>
  <course>69.7</course>
  <speed>0.022360679774997897</speed>
  <fix>3d</fix>
</trkpt>
<trkpt lat="40.0728615" lon="-105.2306208">
  <ele>1586.0</ele>
  <time>2026-08-28T19:07:42Z</time>
  <course>334.64</course>
  <speed>0.0</speed>
  <fix>3d</fix>
</trkpt>
<trkpt lat="40.0728616" lon="-105.2306208">
  <ele>1586.1</ele>
  <time>2026-08-28T19:07:42Z</time>
  <course>69.67</course>
  <speed>0.022360679774997897</speed>
  <fix>3d</fix>
</trkpt>
<trkpt lat="40.0728615" lon="-105.2306208">
  <ele>1586.0</ele>
  <time>2026-08-28T19:07:42Z</time>
  <course>333.58</course>
  <speed>0.0</speed>
  <fix>3d</fix>
</trkpt>
<trkpt lat="40.0728616" lon="-105.2306208">
  <ele>1586.1</ele>
  <time>2026-08-28T19:07:42Z</time>
  <course>69.64</course>
  <speed>0.022360679774997897</speed>
  <fix>3d</fix>
</trkpt>
<trkpt lat="40.0728615" lon="-105.2306208">
  <ele>1586.0</ele>
  <time>2026-08-28T19:07:42Z</time>
  <course>334.38</course>
  <speed>0.0</speed>
  <fix>3d</fix>
</trkpt>
<trkpt lat="40.0728616" lon="-105.2306208">
  <ele>1586.1</ele>
  <time>2026-08-28T19:07:42Z</time>
  <course>69.61</course>
  <speed>0.022360679774997897</speed>
  <fix>3d</fix>
</trkpt>
<trkpt lat="40.0728615" lon="-105.2306208">
  <ele>1586.0</ele>
  <time>2026-08-28T19:07:42Z</time>
  <course>334.58</course>
  <speed>0.0</speed>
  <fix>3d</fix>
</trkpt>
<trkpt lat="40.0728616" lon="-105.2306208">
  <ele>1586.1</ele>
  <time>2026-08-28T19:07:42Z</time>
  <course>69.58</course>
  <speed>0.022360679774997897</speed>
  <fix>3d</fix>
</trkpt>
<trkpt lat="40.0728615" lon="-105.2306208">
  <ele>1586.0</ele>
  <time>2026-08-28T19:07:42Z</time>
  <course>333.66</course>
  <speed>0.0</speed>
  <fix>3d</fix>
</trkpt>
<trkpt lat="40.0728616" lon="-105.2306208">
  <ele>1586.1</ele>
  <time>2026-08-28T19:07:42Z</time>
  <course>69.55</course>
  <speed>0.022360679774997897</speed>
  <fix>3d</fix>
</trkpt>
<trkpt lat="40.0728615" lon="-105.2306208">
  <ele>1586.0</ele>
  <time>2026-08-28T19:07:42Z</time>
  <course>334.19</course>
  <speed>0.0</speed>
  <fix>3d</fix>
</trkpt>
<trkpt lat="40.0728616" lon="-105.2306208">
  <ele>1586.1</ele>
  <time>2026-08-28T19:07:42Z</time>
  <course>69.52</course>
  <speed>0.022360679774997897</speed>
  <fix>3d</fix>
</trkpt>
<trkpt lat="40.0728615" lon="-105.2306208">
  <ele>1586.0</ele>
  <time>2026-08-28T19:07:42Z</time>
  <course>334.5</course>
  <speed>0.0</speed>
  <fix>3d</fix>
</trkpt>
<trkpt lat="40.0728616" lon="-105.2306208">
  <ele>1586.1</ele>
  <time>2026-08-28T19:07:42Z</time>
  <course>69.49</course>
  <speed>0.022360679774997897</speed>
  <fix>3d</fix>
</trkpt>
<trkpt lat="40.0728615" lon="-105.2306208">
  <ele>1586.0</ele>
  <time>2026-08-28T19:07:42Z</time>
  <course>333.9</course>
  <speed>0.0</speed>
  <fix>3d</fix>
</trkpt>
<trkpt lat="40.0728616" lon="-105.2306208">
  <ele>1586.1</ele>
  <time>2026-08-28T19:07:42Z</time>
  <course>69.46</course>
  <speed>0.022360679774997897</speed>
  <fix>3d</fix>
</trkpt>
<trkpt lat="40.0728615" lon="-105.2306208">
  <ele>1586.0</ele>
  <time>2026-08-28T19:07:42Z</time>
  <course>332.85</course>
  <speed>0.0</speed>
  <fix>3d</fix>
</trkpt>
<trkpt lat="40.0728616" lon="-105.2306208">
  <ele>1586.1</ele>
  <time>2026-08-28T19:07:42Z</time>
  <course>69.43</course>
  <speed>0.022360679774997897</speed>
  <fix>3d</fix>
</trkpt>
<trkpt lat="40.0728615" lon="-105.2306208">
  <ele>1586.0</ele>
  <time>2026-08-28T19:07:42Z</time>
  <course>334.31</course>
  <speed>0.0</speed>
  <fix>3d</fix>
</trkpt>
<trkpt lat="40.0728616" lon="-105.2306208">
  <ele>1586.1</ele>
  <time>2026-08-28T19:07:42Z</time>
  <course>69.4</course>
  <speed>0.022360679774997897</speed>
  <fix>3d</fix>
</trkpt>
<trkpt lat="40.0728615" lon="-105.2306208">
  <ele>1586.0</ele>
  <time>2026-08-28T19:07:42Z</time>
  <course>334.35</course>
  <speed>0.0</speed>
  <fix>3d</fix>
</trkpt>
<trkpt lat="40.0728616" lon="-105.2306208">
  <ele>1586.1</ele>
  <time>2026-08-28T19:07:42Z</time>
  <course>69.38</course>
  <speed>0.022360679774997897</speed>
  <fix>3d</fix>
</trkpt>
<trkpt lat="40.0728615" lon="-105.2306208">
  <ele>1586.0</ele>
  <time>2026-08-28T19:07:42Z</time>
  <course>333.25</course>
  <speed>0.0</speed>
  <fix>3d</fix>
</trkpt>
<trkpt lat="40.0728616" lon="-105.2306208">
  <ele>1586.1</ele>
  <time>2026-08-28T19:07:42Z</time>
  <course>69.35</course>
  <speed>0.02</speed>
  <fix>3d</fix>
</trkpt>
<trkpt lat="40.0728615" lon="-105.2306208">
  <ele>1586.0</ele>
  <time>2026-08-28T19:07:42Z</time>
  <course>333.99</course>
  <speed>0.0</speed>
  <fix>3d</fix>
</trkpt>
<trkpt lat="40.0728616" lon="-105.2306208">
  <ele>1586.1</ele>
  <time>2026-08-28T19:07:42Z</time>
  <course>69.32</course>
  <speed>0.022360679774997897</speed>
  <fix>3d</fix>
</trkpt>
<trkpt lat="40.0728615" lon="-105.2306208">
  <ele>1586.0</ele>
  <time>2026-08-28T19:07:42Z</time>
  <course>334.31</course>
  <speed>0.0</speed>
  <fix>3d</fix>
</trkpt>
<trkpt lat="40.0728616" lon="-105.2306208">
  <ele>1586.1</ele>
  <time>2026-08-28T19:07:42Z</time>
  <course>69.29</course>
  <speed>0.022360679774997897</speed>
  <fix>3d</fix>
</trkpt>
<trkpt lat="40.0728615" lon="-105.2306208">
  <ele>1586.0</ele>
  <time>2026-08-28T19:07:42Z</time>
  <course>333.8</course>
  <speed>0.0</speed>
  <fix>3d</fix>
</trkpt>
<trkpt lat="40.0728616" lon="-105.2306208">
  <ele>1586.1</ele>
  <time>2026-08-28T19:07:42Z</time>
  <course>69.27</course>
  <speed>0.022360679774997897</speed>
  <fix>3d</fix>
</trkpt>
<trkpt lat="40.0728615" lon="-105.2306208">
  <ele>1586.0</ele>
  <time>2026-08-28T19:07:42Z</time>
  <course>332.84</course>
  <speed>0.0</speed>
  <fix>3d</fix>
</trkpt>
<trkpt lat="40.0728616" lon="-105.2306208">
  <ele>1586.1</ele>
  <time>2026-08-28T19:07:42Z</time>
  <course>69.24</course>
  <speed>0.02</speed>
  <fix>3d</fix>
</trkpt>
<trkpt lat="40.0728615" lon="-105.2306208">
  <ele>1586.0</ele>
  <time>2026-08-28T19:07:42Z</time>
  <course>334.13</course>
  <speed>0.0</speed>
  <fix>3d</fix>
</trkpt>
<trkpt lat="40.0728616" lon="-105.2306208">
  <ele>1586.1</ele>
  <time>2026-08-28T19:07:42Z</time>
  <course>69.21</course>
  <speed>0.02</speed>
  <fix>3d</fix>
</trkpt>
<trkpt lat="40.0728615" lon="-105.2306208">
  <ele>1586.0</ele>
  <time>2026-08-28T19:07:42Z</time>
  <course>334.18</course>
  <speed>0.0</speed>
  <fix>3d</fix>
</trkpt>
<trkpt lat="40.0728616" lon="-105.2306208">
  <ele>1586.1</ele>
  <time>2026-08-28T19:07:42Z</time>
  <course>69.19</course>
  <speed>0.02</speed>
  <fix>3d</fix>
</trkpt>
<trkpt lat="40.0728615" lon="-105.2306208">
  <ele>1586.0</ele>
  <time>2026-08-28T19:07:42Z</time>
  <course>334.24</course>
  <speed>0.0</speed>
  <fix>3d</fix>
</trkpt>
<trkpt lat="40.0728616" lon="-105.2306208">
  <ele>1586.1</ele>
  <time>2026-08-28T19:07:42Z</time>
  <course>69.17</course>
  <speed>0.022360679774997897</speed>
  <fix>3d</fix>
</trkpt>
<trkpt lat="40.0728615" lon="-105.2306208">
  <ele>1586.0</ele>
  <time>2026-08-28T19:07:42Z</time>
  <course>336.94</course>
  <speed>0.0</speed>
  <fix>3d</fix>
</trkpt>
<trkpt lat="40.0728616" lon="-105.2306208">
  <ele>1586.1</ele>
  <time>2026-08-28T19:07:42Z</time>
  <course>69.15</course>
  <speed>0.02</speed>
  <fix>3d</fix>
</trkpt>
<trkpt lat="40.0728615" lon="-105.2306208">
  <ele>1586.0</ele>
  <time>2026-08-28T19:07:42Z</time>
  <course>335.54</course>
  <speed>0.0</speed>
  <fix>3d</fix>
</trkpt>
<trkpt lat="40.0728616" lon="-105.2306208">
  <ele>1586.1</ele>
  <time>2026-08-28T19:07:43Z</time>
  <course>69.13</course>
  <speed>0.02</speed>
  <fix>3d</fix>
</trkpt>
<trkpt lat="40.0728615" lon="-105.2306208">
  <ele>1586.0</ele>
  <time>2026-08-28T19:07:43Z</time>
  <course>333.14</course>
  <speed>0.0</speed>
  <fix>3d</fix>
</trkpt>
<trkpt lat="40.0728616" lon="-105.2306208">
  <ele>1586.1</ele>
  <time>2026-08-28T19:07:43Z</time>
  <course>69.1</course>
  <speed>0.02</speed>
  <fix>3d</fix>
</trkpt>
<trkpt lat="40.0728615" lon="-105.2306208">
  <ele>1586.0</ele>
  <time>2026-08-28T19:07:43Z</time>
  <course>333.84</course>
  <speed>0.0</speed>
  <fix>3d</fix>
</trkpt>
<trkpt lat="40.0728616" lon="-105.2306208">
  <ele>1586.1</ele>
  <time>2026-08-28T19:07:43Z</time>
  <course>69.05</course>
  <speed>0.02</speed>
  <fix>3d</fix>
</trkpt>
<trkpt lat="40.0728615" lon="-105.2306208">
  <ele>1586.0</ele>
  <time>2026-08-28T19:07:43Z</time>
  <course>333.62</course>
  <speed>0.0</speed>
  <fix>3d</fix>
</trkpt>
<trkpt lat="40.0728616" lon="-105.2306208">
  <ele>1586.13</ele>
  <time>2026-08-28T19:07:43Z</time>
  <course>68.98</course>
  <speed>0.02</speed>
  <fix>3d</fix>
</trkpt>
<trkpt lat="40.0728615" lon="-105.2306208">
  <ele>1586.01</ele>
  <time>2026-08-28T19:07:43Z</time>
  <course>327.25</course>
  <speed>0.0</speed>
  <fix>3d</fix>
</trkpt>
<trkpt lat="40.0728616" lon="-105.2306208">
  <ele>1586.15</ele>
  <time>2026-08-28T19:07:43Z</time>
  <course>68.9</course>
  <speed>0.02</speed>
  <fix>3d</fix>
</trkpt>
<trkpt lat="40.0728615" lon="-105.2306208">
  <ele>1586.03</ele>
  <time>2026-08-28T19:07:43Z</time>
  <course>325.31</course>
  <speed>0.0</speed>
  <fix>3d</fix>
</trkpt>
<trkpt lat="40.0728616" lon="-105.2306208">
  <ele>1586.2</ele>
  <time>2026-08-28T19:07:43Z</time>
  <course>68.82</course>
  <speed>0.02</speed>
  <fix>3d</fix>
</trkpt>
<trkpt lat="40.0728615" lon="-105.2306208">
  <ele>1586.07</ele>
  <time>2026-08-28T19:07:43Z</time>
  <course>330.83</course>
  <speed>0.0</speed>
  <fix>3d</fix>
</trkpt>
<trkpt lat="40.0728616" lon="-105.2306208">
  <ele>1586.29</ele>
  <time>2026-08-28T19:07:43Z</time>
  <course>64.57</course>
  <speed>0.06082762530298219</speed>
  <fix>3d</fix>
</trkpt>
<trkpt lat="40.0728615" lon="-105.2306208">
  <ele>1586.12</ele>
  <time>2026-08-28T19:07:43Z</time>
  <course>331.06</course>
  <speed>0.0</speed>
  <fix>3d</fix>
</trkpt>
<trkpt lat="40.0728619" lon="-105.2306208">
  <ele>1586.58</ele>
  <time>2026-08-28T19:07:43Z</time>
  <course>61.51</course>
  <speed>0.2193171219946131</speed>
  <fix>3d</fix>
</trkpt>
<trkpt lat="40.0728617" lon="-105.2306208">
  <ele>1586.27</ele>
  <time>2026-08-28T19:07:43Z</time>
  <course>327.8</course>
  <speed>0.1</speed>
  <fix>3d</fix>
</trkpt>
<trkpt lat="40.0728622" lon="-105.2306211">
  <ele>1586.83</ele>
  <time>2026-08-28T19:07:43Z</time>
  <course>60.89</course>
  <speed>0.27294688127912364</speed>
  <fix>3d</fix>
</trkpt>
<trkpt lat="40.0728619" lon="-105.230621">
  <ele>1586.54</ele>
  <time>2026-08-28T19:07:43Z</time>
  <course>326.12</course>
  <speed>0.22</speed>
  <fix>3d</fix>
</trkpt>
<trkpt lat="40.0728626" lon="-105.2306215">
  <ele>1587.09</ele>
  <time>2026-08-28T19:07:43Z</time>
  <course>59.39</course>
  <speed>0.291547594742265</speed>
  <fix>3d</fix>
</trkpt>
<trkpt lat="40.0728623" lon="-105.2306213">
  <ele>1586.8</ele>
  <time>2026-08-28T19:07:43Z</time>
  <course>323.19</course>
  <speed>0.27</speed>
  <fix>3d</fix>
</trkpt>
<trkpt lat="40.072863" lon="-105.2306219">
  <ele>1587.39</ele>
  <time>2026-08-28T19:07:43Z</time>
  <course>58.26</course>
  <speed>0.2884441020371191</speed>
  <fix>3d</fix>
</trkpt>
<trkpt lat="40.0728627" lon="-105.2306218">
  <ele>1587.07</ele>
  <time>2026-08-28T19:07:43Z</time>
  <course>320.34</course>
  <speed>0.28</speed>
  <fix>3d</fix>
</trkpt>
<trkpt lat="40.0728634" lon="-105.2306223">
  <ele>1587.72</ele>
  <time>2026-08-28T19:07:43Z</time>
  <course>57.47</course>
  <speed>0.266270539113887</speed>
  <fix>3d</fix>
</trkpt>
<trkpt lat="40.0728631" lon="-105.2306222">
  <ele>1587.37</ele>
  <time>2026-08-28T19:07:43Z</time>
  <course>318.81</course>
  <speed>0.28</speed>
  <fix>3d</fix>
</trkpt>
<trkpt lat="40.0728637" lon="-105.2306227">
  <ele>1588.09</ele>
  <time>2026-08-28T19:07:43Z</time>
  <course>56.76</course>
  <speed>0.23853720883753127</speed>
  <fix>3d</fix>
</trkpt>
<trkpt lat="40.0728634" lon="-105.2306227">
  <ele>1587.71</ele>
  <time>2026-08-28T19:07:43Z</time>
  <course>318.46</course>
  <speed>0.25</speed>
  <fix>3d</fix>
</trkpt>
<trkpt lat="40.072864" lon="-105.230623">
  <ele>1588.51</ele>
  <time>2026-08-28T19:07:43Z</time>
  <course>56.1</course>
  <speed>0.20248456731316586</speed>
  <fix>3d</fix>
</trkpt>
<trkpt lat="40.0728637" lon="-105.230623">
  <ele>1588.09</ele>
  <time>2026-08-28T19:07:43Z</time>
  <course>318.78</course>
  <speed>0.22</speed>
  <fix>3d</fix>
</trkpt>
<trkpt lat="40.0728643" lon="-105.2306233">
  <ele>1588.97</ele>
  <time>2026-08-28T19:07:43Z</time>
  <course>57.51</course>
  <speed>0.1664331697709324</speed>
  <fix>3d</fix>
</trkpt>
<trkpt lat="40.072864" lon="-105.2306233">
  <ele>1588.51</ele>
  <time>2026-08-28T19:07:43Z</time>
  <course>319.34</course>
  <speed>0.19</speed>
  <fix>3d</fix>
</trkpt>
<trkpt lat="40.0728645" lon="-105.2306236">
  <ele>1589.46</ele>
  <time>2026-08-28T19:07:43Z</time>
  <course>55.43</course>
  <speed>0.130384048104053</speed>
  <fix>3d</fix>
</trkpt>
<trkpt lat="40.0728643" lon="-105.2306236">
  <ele>1588.98</ele>
  <time>2026-08-28T19:07:43Z</time>
  <course>320.1</course>
  <speed>0.15</speed>
  <fix>3d</fix>
</trkpt>
<trkpt lat="40.0728646" lon="-105.2306238">
  <ele>1589.98</ele>
  <time>2026-08-28T19:07:43Z</time>
  <course>54.84</course>
  <speed>0.1</speed>
  <fix>3d</fix>
</trkpt>
<trkpt lat="40.0728644" lon="-105.2306238">
  <ele>1589.47</ele>
  <time>2026-08-28T19:07:43Z</time>
  <course>322.0</course>
  <speed>0.12</speed>
  <fix>3d</fix>
</trkpt>
<trkpt lat="40.0728647" lon="-105.2306239">
  <ele>1590.5</ele>
  <time>2026-08-28T19:07:43Z</time>
  <course>55.8</course>
  <speed>0.05830951894845301</speed>
  <fix>3d</fix>
</trkpt>
<trkpt lat="40.0728646" lon="-105.2306239">
  <ele>1589.99</ele>
  <time>2026-08-28T19:07:43Z</time>
  <course>328.47</course>
  <speed>0.08</speed>
  <fix>3d</fix>
</trkpt>
<trkpt lat="40.0728648" lon="-105.2306239">
  <ele>1591.02</ele>
  <time>2026-08-28T19:07:43Z</time>
  <course>56.88</course>
  <speed>0.02</speed>
  <fix>3d</fix>
</trkpt>
<trkpt lat="40.0728647" lon="-105.230624">
  <ele>1590.52</ele>
  <time>2026-08-28T19:07:43Z</time>
  <course>353.29</course>
  <speed>0.04</speed>
  <fix>3d</fix>
</trkpt>
<trkpt lat="40.0728648" lon="-105.2306239">
  <ele>1591.55</ele>
  <time>2026-08-28T19:07:43Z</time>
  <course>57.86</course>
  <speed>0.03</speed>
  <fix>3d</fix>
</trkpt>
<trkpt lat="40.0728648" lon="-105.2306241">
  <ele>1591.04</ele>
  <time>2026-08-28T19:07:43Z</time>
  <course>56.18</course>
  <speed>0.04</speed>
  <fix>3d</fix>
</trkpt>
<trkpt lat="40.0728648" lon="-105.2306238">
  <ele>1592.07</ele>
  <time>2026-08-28T19:07:43Z</time>
  <course>58.81</course>
  <speed>0.07071067811865475</speed>
  <fix>3d</fix>
</trkpt>
<trkpt lat="40.0728649" lon="-105.230624">
  <ele>1591.55</ele>
  <time>2026-08-28T19:07:43Z</time>
  <course>87.03</course>
  <speed>0.07</speed>
  <fix>3d</fix>
</trkpt>
<trkpt lat="40.0728648" lon="-105.2306236">
  <ele>1592.58</ele>
  <time>2026-08-28T19:07:43Z</time>
  <course>59.67</course>
  <speed>0.1044030650891055</speed>
  <fix>3d</fix>
</trkpt>
<trkpt lat="40.0728648" lon="-105.2306237">
  <ele>1592.06</ele>
  <time>2026-08-28T19:07:43Z</time>
  <course>98.19</course>
  <speed>0.11</speed>
  <fix>3d</fix>
</trkpt>
<trkpt lat="40.0728648" lon="-105.2306233">
  <ele>1593.09</ele>
  <time>2026-08-28T19:07:43Z</time>
  <course>60.45</course>
  <speed>0.13</speed>
  <fix>3d</fix>
</trkpt>
<trkpt lat="40.0728648" lon="-105.2306234">
  <ele>1592.57</ele>
  <time>2026-08-28T19:07:43Z</time>
  <course>104.84</course>
  <speed>0.13</speed>
  <fix>3d</fix>
</trkpt>
<trkpt lat="40.0728647" lon="-105.2306229">
  <ele>1593.59</ele>
  <time>2026-08-28T19:07:43Z</time>
  <course>61.55</course>
  <speed>0.14317821063276354</speed>
  <fix>3d</fix>
</trkpt>
<trkpt lat="40.0728648" lon="-105.2306231">
  <ele>1593.07</ele>
  <time>2026-08-28T19:07:43Z</time>
  <course>109.64</course>
  <speed>0.16</speed>
  <fix>3d</fix>
</trkpt>
<trkpt lat="40.0728646" lon="-105.2306226">
  <ele>1594.05</ele>
  <time>2026-08-28T19:07:43Z</time>
  <course>62.81</course>
  <speed>0.15652475842498528</speed>
  <fix>3d</fix>
</trkpt>
<trkpt lat="40.0728646" lon="-105.2306227">
  <ele>1593.55</ele>
  <time>2026-08-28T19:07:43Z</time>
  <course>113.56</course>
  <speed>0.17</speed>
  <fix>3d</fix>
</trkpt>
<trkpt lat="40.0728644" lon="-105.2306222">
  <ele>1594.47</ele>
  <time>2026-08-28T19:07:43Z</time>
  <course>64.12</course>
  <speed>0.17492855684535902</speed>
  <fix>3d</fix>
</trkpt>
<trkpt lat="40.0728645" lon="-105.2306223">
  <ele>1593.99</ele>
  <time>2026-08-28T19:07:43Z</time>
  <course>117.26</course>
  <speed>0.19</speed>
  <fix>3d</fix>
</trkpt>
<trkpt lat="40.0728643" lon="-105.2306217">
  <ele>1594.84</ele>
  <time>2026-08-28T19:07:43Z</time>
  <course>65.38</course>
  <speed>0.18027756377319945</speed>
  <fix>3d</fix>
</trkpt>
<trkpt lat="40.0728644" lon="-105.2306219">
  <ele>1594.38</ele>
  <time>2026-08-28T19:07:43Z</time>
  <course>120.86</course>
  <speed>0.2</speed>
  <fix>3d</fix>
</trkpt>
<trkpt lat="40.0728641" lon="-105.2306213">
  <ele>1595.16</ele>
  <time>2026-08-28T19:07:43Z</time>
  <course>66.52</course>
  <speed>0.2</speed>
  <fix>3d</fix>
</trkpt>
<trkpt lat="40.0728642" lon="-105.2306215">
  <ele>1594.74</ele>
  <time>2026-08-28T19:07:43Z</time>
  <course>124.34</course>
  <speed>0.21</speed>
  <fix>3d</fix>
</trkpt>
<trkpt lat="40.0728638" lon="-105.2306209">
  <ele>1595.44</ele>
  <time>2026-08-28T19:07:43Z</time>
  <course>67.51</course>
  <speed>0.19849433241279207</speed>
  <fix>3d</fix>
</trkpt>
<trkpt lat="40.0728639" lon="-105.230621">
  <ele>1595.05</ele>
  <time>2026-08-28T19:07:43Z</time>
  <course>127.76</course>
  <speed>0.22</speed>
  <fix>3d</fix>
</trkpt>
<trkpt lat="40.0728636" lon="-105.2306205">
  <ele>1595.68</ele>
  <time>2026-08-28T19:07:43Z</time>
  <course>68.37</course>
  <speed>0.20518284528683192</speed>
  <fix>3d</fix>
</trkpt>
<trkpt lat="40.0728636" lon="-105.2306207">
  <ele>1595.32</ele>
  <time>2026-08-28T19:07:43Z</time>
  <course>131.21</course>
  <speed>0.22</speed>
  <fix>3d</fix>
</trkpt>
<trkpt lat="40.0728633" lon="-105.2306201">
  <ele>1595.86</ele>
  <time>2026-08-28T19:07:43Z</time>
  <course>69.09</course>
  <speed>0.20518284528683192</speed>
  <fix>3d</fix>
</trkpt>
<trkpt lat="40.0728634" lon="-105.2306203">
  <ele>1595.54</ele>
  <time>2026-08-28T19:07:43Z</time>
  <course>134.78</course>
  <speed>0.23</speed>
  <fix>3d</fix>
</trkpt>
<trkpt lat="40.072863" lon="-105.2306198">
  <ele>1596.01</ele>
  <time>2026-08-28T19:07:43Z</time>
  <course>69.69</course>
  <speed>0.19209372712298545</speed>
  <fix>3d</fix>
</trkpt>
<trkpt lat="40.0728631" lon="-105.2306199">
  <ele>1595.72</ele>
  <time>2026-08-28T19:07:43Z</time>
  <course>138.54</course>
  <speed>0.22</speed>
  <fix>3d</fix>
</trkpt>
<trkpt lat="40.0728627" lon="-105.2306195">
  <ele>1596.11</ele>
  <time>2026-08-28T19:07:43Z</time>
  <course>70.21</course>
  <speed>0.18601075237738274</speed>
  <fix>3d</fix>
</trkpt>
<trkpt lat="40.0728627" lon="-105.2306196">
  <ele>1595.86</ele>
  <time>2026-08-28T19:07:43Z</time>
  <course>142.56</course>
  <speed>0.22</speed>
  <fix>3d</fix>
</trkpt>
<trkpt lat="40.0728624" lon="-105.2306192">
  <ele>1596.18</ele>
  <time>2026-08-28T19:07:43Z</time>
  <course>70.64</course>
  <speed>0.17492855684535902</speed>
  <fix>3d</fix>
</trkpt>
<trkpt lat="40.0728624" lon="-105.2306193">
  <ele>1595.96</ele>
  <time>2026-08-28T19:07:43Z</time>
  <course>146.93</course>
  <speed>0.21</speed>
  <fix>3d</fix>
</trkpt>
<trkpt lat="40.0728621" lon="-105.230619">
  <ele>1596.21</ele>
  <time>2026-08-28T19:07:43Z</time>
  <course>70.97</course>
  <speed>0.16552945357246848</speed>
  <fix>3d</fix>
</trkpt>
<trkpt lat="40.0728621" lon="-105.230619">
  <ele>1596.01</ele>
  <time>2026-08-28T19:07:43Z</time>
  <course>151.74</course>
  <speed>0.2</speed>
  <fix>3d</fix>
</trkpt>
<trkpt lat="40.0728617" lon="-105.2306188">
  <ele>1596.2</ele>
  <time>2026-08-28T19:07:43Z</time>
  <course>66.71</course>
  <speed>0.13341664064126335</speed>
  <fix>3d</fix>
</trkpt>
<trkpt lat="40.0728618" lon="-105.2306189">
  <ele>1596.03</ele>
  <time>2026-08-28T19:07:43Z</time>
  <course>157.9</course>
  <speed>0.19</speed>
  <fix>3d</fix>
</trkpt>
<trkpt lat="40.0728615" lon="-105.2306188">
  <ele>1596.17</ele>
  <time>2026-08-28T19:07:43Z</time>
  <course>67.7</course>
  <speed>0.1</speed>
  <fix>3d</fix>
</trkpt>
<trkpt lat="40.0728615" lon="-105.2306187">
  <ele>1596.02</ele>
  <time>2026-08-28T19:07:43Z</time>
  <course>168.28</course>
  <speed>0.16</speed>
  <fix>3d</fix>
</trkpt>
<trkpt lat="40.0728613" lon="-105.2306189">
  <ele>1596.13</ele>
  <time>2026-08-28T19:07:43Z</time>
  <course>67.58</course>
  <speed>0.07071067811865475</speed>
  <fix>3d</fix>
</trkpt>
<trkpt lat="40.0728613" lon="-105.2306186">
  <ele>1595.99</ele>
  <time>2026-08-28T19:07:43Z</time>
  <course>188.72</course>
  <speed>0.12</speed>
  <fix>3d</fix>
</trkpt>
<trkpt lat="40.0728612" lon="-105.2306189">
  <ele>1596.1</ele>
  <time>2026-08-28T19:07:43Z</time>
  <course>67.51</course>
  <speed>0.07280109889280519</speed>
  <fix>3d</fix>
</trkpt>
<trkpt lat="40.0728611" lon="-105.2306188">
  <ele>1595.96</ele>
  <time>2026-08-28T19:07:43Z</time>
  <course>223.4</course>
  <speed>0.08</speed>
  <fix>3d</fix>
</trkpt>
<trkpt lat="40.0728613" lon="-105.2306191">
  <ele>1596.08</ele>
  <time>2026-08-28T19:07:43Z</time>
  <course>67.47</course>
  <speed>0.147648230602334</speed>
  <fix>3d</fix>
</trkpt>
<trkpt lat="40.0728609" lon="-105.2306189">
  <ele>1595.94</ele>
  <time>2026-08-28T19:07:43Z</time>
  <course>285.54</course>
  <speed>0.08</speed>
  <fix>3d</fix>
</trkpt>
<trkpt lat="40.0728615" lon="-105.2306192">
  <ele>1596.07</ele>
  <time>2026-08-28T19:07:43Z</time>
  <course>67.42</course>
  <speed>0.2745906043549196</speed>
  <fix>3d</fix>
</trkpt>
<trkpt lat="40.0728611" lon="-105.230619">
  <ele>1595.92</ele>
  <time>2026-08-28T19:07:43Z</time>
  <course>329.32</course>
  <speed>0.16</speed>
  <fix>3d</fix>
</trkpt>
<trkpt lat="40.0728621" lon="-105.2306193">
  <ele>1596.07</ele>
  <time>2026-08-28T19:07:43Z</time>
  <course>67.44</course>
  <speed>0.4201190307520001</speed>
  <fix>3d</fix>
</trkpt>
<trkpt lat="40.0728614" lon="-105.2306193">
  <ele>1595.91</ele>
  <time>2026-08-28T19:07:43Z</time>
  <course>347.08</course>
  <speed>0.29</speed>
  <fix>3d</fix>
</trkpt>
<trkpt lat="40.0728629" lon="-105.2306193">
  <ele>1596.07</ele>
  <time>2026-08-28T19:07:43Z</time>
  <course>67.46</course>
  <speed>0.5903388857258176</speed>
  <fix>3d</fix>
</trkpt>
<trkpt lat="40.072862" lon="-105.2306194">
  <ele>1595.91</ele>
  <time>2026-08-28T19:07:43Z</time>
  <course>355.78</course>
  <speed>0.45</speed>
  <fix>3d</fix>
</trkpt>
<trkpt lat="40.072864" lon="-105.2306194">
  <ele>1596.07</ele>
  <time>2026-08-28T19:07:43Z</time>
  <course>67.51</course>
  <speed>0.7632168761236874</speed>
  <fix>3d</fix>
</trkpt>
<trkpt lat="40.0728631" lon="-105.2306194">
  <ele>1595.92</ele>
  <time>2026-08-28T19:07:43Z</time>
  <course>0.99</course>
  <speed>0.62</speed>
  <fix>3d</fix>
</trkpt>
<trkpt lat="40.0728655" lon="-105.2306192">
  <ele>1596.08</ele>
  <time>2026-08-28T19:07:43Z</time>
  <course>67.55</course>
  <speed>0.9503683496413378</speed>
  <fix>3d</fix>
</trkpt>
<trkpt lat="40.0728644" lon="-105.2306194">
  <ele>1595.93</ele>
  <time>2026-08-28T19:07:43Z</time>
  <course>4.72</course>
  <speed>0.8</speed>
  <fix>3d</fix>
</trkpt>
<trkpt lat="40.0728673" lon="-105.2306188">
  <ele>1596.09</ele>
  <time>2026-08-28T19:07:43Z</time>
  <course>66.77</course>
  <speed>1.1119802156513396</speed>
  <fix>3d</fix>
</trkpt>
<trkpt lat="40.072866" lon="-105.2306191">
  <ele>1595.94</ele>
  <time>2026-08-28T19:07:43Z</time>
  <course>7.79</course>
  <speed>0.98</speed>
  <fix>3d</fix>
</trkpt>
<trkpt lat="40.0728693" lon="-105.2306182">
  <ele>1596.11</ele>
  <time>2026-08-28T19:07:43Z</time>
  <course>53.5</course>
  <speed>1.2975746606650425</speed>
  <fix>3d</fix>
</trkpt>
<trkpt lat="40.0728679" lon="-105.2306187">
  <ele>1595.96</ele>
  <time>2026-08-28T19:07:43Z</time>
  <course>11.15</course>
  <speed>1.15</speed>
  <fix>3d</fix>
</trkpt>
<trkpt lat="40.0728718" lon="-105.2306175">
  <ele>1596.12</ele>
  <time>2026-08-28T19:07:43Z</time>
  <course>40.95</course>
  <speed>1.5328731193415845</speed>
  <fix>3d</fix>
</trkpt>
<trkpt lat="40.07287" lon="-105.2306181">
  <ele>1595.98</ele>
  <time>2026-08-28T19:07:43Z</time>
  <course>13.02</course>
  <speed>1.35</speed>
  <fix>3d</fix>
</trkpt>
<trkpt lat="40.0728746" lon="-105.2306167">
  <ele>1596.14</ele>
  <time>2026-08-28T19:07:43Z</time>
  <course>28.83</course>
  <speed>1.7779201331893397</speed>
  <fix>3d</fix>
</trkpt>
<trkpt lat="40.0728725" lon="-105.2306173">
  <ele>1596.0</ele>
  <time>2026-08-28T19:07:43Z</time>
  <course>13.1</course>
  <speed>1.59</speed>
  <fix>3d</fix>
</trkpt>
<trkpt lat="40.0728779" lon="-105.2306157">
  <ele>1596.16</ele>
  <time>2026-08-28T19:07:43Z</time>
  <course>16.57</course>
  <speed>2.022992832414391</speed>
  <fix>3d</fix>
</trkpt>
<trkpt lat="40.0728756" lon="-105.2306164">
  <ele>1596.02</ele>
  <time>2026-08-28T19:07:43Z</time>
  <course>13.03</course>
  <speed>1.83</speed>
  <fix>3d</fix>
</trkpt>
<trkpt lat="40.0728816" lon="-105.2306146">
  <ele>1596.18</ele>
  <time>2026-08-28T19:07:43Z</time>
  <course>6.76</course>
  <speed>2.2769497139814048</speed>
  <fix>3d</fix>
</trkpt>
<trkpt lat="40.072879" lon="-105.2306154">
  <ele>1596.04</ele>
  <time>2026-08-28T19:07:43Z</time>
  <course>12.61</course>
  <speed>2.08</speed>
  <fix>3d</fix>
</trkpt>
<trkpt lat="40.0728859" lon="-105.2306135">
  <ele>1596.21</ele>
  <time>2026-08-28T19:07:43Z</time>
  <course>6.6</course>
  <speed>2.565345980564805</speed>
  <fix>3d</fix>
</trkpt>
<trkpt lat="40.0728829" lon="-105.2306143">
  <ele>1596.07</ele>
  <time>2026-08-28T19:07:43Z</time>
  <course>12.06</course>
  <speed>2.35</speed>
  <fix>3d</fix>
</trkpt>
<trkpt lat="40.0728906" lon="-105.2306121">
  <ele>1596.24</ele>
  <time>2026-08-28T19:07:43Z</time>
  <course>7.85</course>
  <speed>2.89394194827747</speed>
  <fix>3d</fix>
</trkpt>
<trkpt lat="40.0728873" lon="-105.2306131">
  <ele>1596.1</ele>
  <time>2026-08-28T19:07:43Z</time>
  <course>12.35</course>
  <speed>2.64</speed>
  <fix>3d</fix>
</trkpt>
<trkpt lat="40.0728959" lon="-105.2306104">
  <ele>1596.28</ele>
  <time>2026-08-28T19:07:43Z</time>
  <course>9.02</course>
  <speed>3.271849629796577</speed>
  <fix>3d</fix>
</trkpt>
<trkpt lat="40.0728923" lon="-105.2306116">
  <ele>1596.13</ele>
  <time>2026-08-28T19:07:43Z</time>
  <course>13.46</course>
  <speed>2.98</speed>
  <fix>3d</fix>
</trkpt>
<trkpt lat="40.0729019" lon="-105.2306084">
  <ele>1596.31</ele>
  <time>2026-08-28T19:07:43Z</time>
  <course>9.88</course>
  <speed>3.6801358670570847</speed>
  <fix>3d</fix>
</trkpt>
<trkpt lat="40.0728978" lon="-105.2306098">
  <ele>1596.16</ele>
  <time>2026-08-28T19:07:43Z</time>
  <course>14.61</course>
  <speed>3.37</speed>
  <fix>3d</fix>
</trkpt>
<trkpt lat="40.0729086" lon="-105.2306059">
  <ele>1596.35</ele>
  <time>2026-08-28T19:07:43Z</time>
  <course>10.41</course>
  <speed>4.108454697328425</speed>
  <fix>3d</fix>
</trkpt>
<trkpt lat="40.072904" lon="-105.2306076">
  <ele>1596.21</ele>
  <time>2026-08-28T19:07:43Z</time>
  <course>15.51</course>
  <speed>3.79</speed>
  <fix>3d</fix>
</trkpt>
<trkpt lat="40.072916" lon="-105.2306031">
  <ele>1596.4</ele>
  <time>2026-08-28T19:07:43Z</time>
  <course>10.67</course>
  <speed>4.534412861661364</speed>
  <fix>3d</fix>
</trkpt>
<trkpt lat="40.0729109" lon="-105.230605">
  <ele>1596.25</ele>
  <time>2026-08-28T19:07:43Z</time>
  <course>16.13</course>
  <speed>4.21</speed>
  <fix>3d</fix>
</trkpt>
<trkpt lat="40.0729241" lon="-105.2306">
  <ele>1596.46</ele>
  <time>2026-08-28T19:07:43Z</time>
  <course>10.82</course>
  <speed>4.948130960271767</speed>
  <fix>3d</fix>
</trkpt>
<trkpt lat="40.0729185" lon="-105.2306021">
  <ele>1596.3</ele>
  <time>2026-08-28T19:07:43Z</time>
  <course>16.56</course>
  <speed>4.64</speed>
  <fix>3d</fix>
</trkpt>
<trkpt lat="40.0729329" lon="-105.2305965">
  <ele>1596.52</ele>
  <time>2026-08-28T19:07:43Z</time>
  <course>10.92</course>
  <speed>5.364867193137217</speed>
  <fix>3d</fix>
</trkpt>
<trkpt lat="40.0729269" lon="-105.2305988">
  <ele>1596.36</ele>
  <time>2026-08-28T19:07:43Z</time>
  <course>16.89</course>
  <speed>5.06</speed>
  <fix>3d</fix>
</trkpt>
<trkpt lat="40.0729424" lon="-105.2305926">
  <ele>1596.59</ele>
  <time>2026-08-28T19:07:43Z</time>
  <course>10.94</course>
  <speed>5.7787974527577965</speed>
  <fix>3d</fix>
</trkpt>
<trkpt lat="40.072936" lon="-105.2305952">
  <ele>1596.43</ele>
  <time>2026-08-28T19:07:43Z</time>
  <course>17.17</course>
  <speed>5.48</speed>
  <fix>3d</fix>
</trkpt>
<trkpt lat="40.0729526" lon="-105.2305885">
  <ele>1596.66</ele>
  <time>2026-08-28T19:07:43Z</time>
  <course>10.87</course>
  <speed>6.195780822462976</speed>
  <fix>3d</fix>
</trkpt>
<trkpt lat="40.0729458" lon="-105.2305912">
  <ele>1596.5</ele>
  <time>2026-08-28T19:07:43Z</time>
  <course>17.41</course>
  <speed>5.9</speed>
  <fix>3d</fix>
</trkpt>
<trkpt lat="40.0729635" lon="-105.2305839">
  <ele>1596.74</ele>
  <time>2026-08-28T19:07:43Z</time>
  <course>10.68</course>
  <speed>6.619373082097729</speed>
  <fix>3d</fix>
</trkpt>
<trkpt lat="40.0729563" lon="-105.2305869">
  <ele>1596.58</ele>
  <time>2026-08-28T19:07:43Z</time>
  <course>17.61</course>
  <speed>6.32</speed>
  <fix>3d</fix>
</trkpt>
<trkpt lat="40.0729751" lon="-105.2305791">
  <ele>1596.82</ele>
  <time>2026-08-28T19:07:43Z</time>
  <course>10.39</course>
  <speed>7.042989422113312</speed>
  <fix>3d</fix>
</trkpt>
<trkpt lat="40.0729675" lon="-105.2305822">
  <ele>1596.66</ele>
  <time>2026-08-28T19:07:43Z</time>
  <course>17.75</course>
  <speed>6.75</speed>
  <fix>3d</fix>
</trkpt>
<trkpt lat="40.0729875" lon="-105.2305739">
  <ele>1596.91</ele>
  <time>2026-08-28T19:07:43Z</time>
  <course>10.14</course>
  <speed>7.454052589028334</speed>
  <fix>3d</fix>
</trkpt>
<trkpt lat="40.0729794" lon="-105.2305772">
  <ele>1596.75</ele>
  <time>2026-08-28T19:07:43Z</time>
  <course>17.82</course>
  <speed>7.18</speed>
  <fix>3d</fix>
</trkpt>
<trkpt lat="40.0730005" lon="-105.2305684">
  <ele>1597.02</ele>
  <time>2026-08-28T19:07:43Z</time>
  <course>10.04</course>
  <speed>7.820927055023592</speed>
  <fix>3d</fix>
</trkpt>
<trkpt lat="40.072992" lon="-105.2305719">
  <ele>1596.85</ele>
  <time>2026-08-28T19:07:43Z</time>
  <course>17.82</course>
  <speed>7.58</speed>
  <fix>3d</fix>
</trkpt>
<trkpt lat="40.0730141" lon="-105.2305627">
  <ele>1597.13</ele>
  <time>2026-08-28T19:07:43Z</time>
  <course>10.11</course>
  <speed>8.153146631822587</speed>
  <fix>3d</fix>
</trkpt>
<trkpt lat="40.0730053" lon="-105.2305663">
  <ele>1596.96</ele>
  <time>2026-08-28T19:07:43Z</time>
  <course>17.79</course>
  <speed>7.94</speed>
  <fix>3d</fix>
</trkpt>
<trkpt lat="40.0730283" lon="-105.2305568">
  <ele>1597.25</ele>
  <time>2026-08-28T19:07:43Z</time>
  <course>10.33</course>
  <speed>8.428196722905797</speed>
  <fix>3d</fix>
</trkpt>
<trkpt lat="40.0730192" lon="-105.2305605">
  <ele>1597.08</ele>
  <time>2026-08-28T19:07:43Z</time>
  <course>17.77</course>
  <speed>8.26</speed>
  <fix>3d</fix>
</trkpt>
<trkpt lat="40.0730429" lon="-105.2305506">
  <ele>1597.38</ele>
  <time>2026-08-28T19:07:43Z</time>
  <course>10.66</course>
  <speed>8.681157756889343</speed>
  <fix>3d</fix>
</trkpt>
<trkpt lat="40.0730335" lon="-105.2305545">
  <ele>1597.2</ele>
  <time>2026-08-28T19:07:43Z</time>
  <course>17.78</course>
  <speed>8.54</speed>
  <fix>3d</fix>
</trkpt>
<trkpt lat="40.073058" lon="-105.2305443">
  <ele>1597.51</ele>
  <time>2026-08-28T19:07:43Z</time>
  <course>11.09</course>
  <speed>8.892974755389785</speed>
  <fix>3d</fix>
</trkpt>
<trkpt lat="40.0730484" lon="-105.2305483">
  <ele>1597.34</ele>
  <time>2026-08-28T19:07:43Z</time>
  <course>17.82</course>
  <speed>8.78</speed>
  <fix>3d</fix>
</trkpt>
<trkpt lat="40.0730733" lon="-105.2305378">
  <ele>1597.64</ele>
  <time>2026-08-28T19:07:43Z</time>
  <course>11.55</course>
  <speed>9.076232698647607</speed>
  <fix>3d</fix>
</trkpt>
<trkpt lat="40.0730636" lon="-105.2305418">
  <ele>1597.47</ele>
  <time>2026-08-28T19:07:43Z</time>
  <course>17.9</course>
  <speed>8.98</speed>
  <fix>3d</fix>
</trkpt>
<trkpt lat="40.073089" lon="-105.2305312">
  <ele>1597.78</ele>
  <time>2026-08-28T19:07:43Z</time>
  <course>12.06</course>
  <speed>9.240487000153184</speed>
  <fix>3d</fix>
</trkpt>
<trkpt lat="40.0730791" lon="-105.2305352">
  <ele>1597.61</ele>
  <time>2026-08-28T19:07:43Z</time>
  <course>17.99</course>
  <speed>9.16</speed>
  <fix>3d</fix>
</trkpt>
<trkpt lat="40.073105" lon="-105.2305243">
  <ele>1597.92</ele>
  <time>2026-08-28T19:07:43Z</time>
  <course>12.6</course>
  <speed>9.370064033932746</speed>
  <fix>3d</fix>
</trkpt>
<trkpt lat="40.0730949" lon="-105.2305285">
  <ele>1597.75</ele>
  <time>2026-08-28T19:07:43Z</time>
  <course>18.08</course>
  <speed>9.31</speed>
  <fix>3d</fix>
</trkpt>
<trkpt lat="40.0731211" lon="-105.2305174">
  <ele>1598.06</ele>
  <time>2026-08-28T19:07:43Z</time>
  <course>13.14</course>
  <speed>9.458525255027869</speed>
  <fix>3d</fix>
</trkpt>
<trkpt lat="40.0731109" lon="-105.2305217">
  <ele>1597.88</ele>
  <time>2026-08-28T19:07:43Z</time>
  <course>18.18</course>
  <speed>9.42</speed>
  <fix>3d</fix>
</trkpt>
<trkpt lat="40.0731373" lon="-105.2305104">
  <ele>1598.2</ele>
  <time>2026-08-28T19:07:43Z</time>
  <course>13.7</course>
  <speed>9.515382283439799</speed>
  <fix>3d</fix>
</trkpt>
<trkpt lat="40.073127" lon="-105.2305148">
  <ele>1598.03</ele>
  <time>2026-08-28T19:07:43Z</time>
  <course>18.27</course>
  <speed>9.51</speed>
  <fix>3d</fix>
</trkpt>
<trkpt lat="40.0731536" lon="-105.2305034">
  <ele>1598.34</ele>
  <time>2026-08-28T19:07:43Z</time>
  <course>14.25</course>
  <speed>9.540634150830856</speed>
  <fix>3d</fix>
</trkpt>
<trkpt lat="40.0731433" lon="-105.2305077">
  <ele>1598.16</ele>
  <time>2026-08-28T19:07:43Z</time>
  <course>18.35</course>
  <speed>9.56</speed>
  <fix>3d</fix>
</trkpt>
<trkpt lat="40.0731699" lon="-105.2304963">
  <ele>1598.47</ele>
  <time>2026-08-28T19:07:43Z</time>
  <course>14.78</course>
  <speed>9.546920969611092</speed>
  <fix>3d</fix>
</trkpt>
<trkpt lat="40.0731596" lon="-105.2305006">
  <ele>1598.3</ele>
  <time>2026-08-28T19:07:43Z</time>
  <course>18.43</course>
  <speed>9.57</speed>
  <fix>3d</fix>
</trkpt>
<trkpt lat="40.0731862" lon="-105.2304892">
  <ele>1598.6</ele>
  <time>2026-08-28T19:07:43Z</time>
  <course>15.18</course>
  <speed>9.537431520068703</speed>
  <fix>3d</fix>
</trkpt>
<trkpt lat="40.0731759" lon="-105.2304935">
  <ele>1598.44</ele>
  <time>2026-08-28T19:07:43Z</time>
  <course>18.5</course>
  <speed>9.57</speed>
  <fix>3d</fix>
</trkpt>
<trkpt lat="40.0732025" lon="-105.230482">
  <ele>1598.73</ele>
  <time>2026-08-28T19:07:43Z</time>
  <course>15.39</course>
  <speed>9.540592224804495</speed>
  <fix>3d</fix>
</trkpt>
<trkpt lat="40.0731922" lon="-105.2304863">
  <ele>1598.57</ele>
  <time>2026-08-28T19:07:43Z</time>
  <course>18.56</course>
  <speed>9.56</speed>
  <fix>3d</fix>
</trkpt>
<trkpt lat="40.0732189" lon="-105.2304748">
  <ele>1598.85</ele>
  <time>2026-08-28T19:07:43Z</time>
  <course>15.45</course>
  <speed>9.550078533708506</speed>
  <fix>3d</fix>
</trkpt>
<trkpt lat="40.0732085" lon="-105.2304792">
  <ele>1598.69</ele>
  <time>2026-08-28T19:07:43Z</time>
  <course>18.6</course>
  <speed>9.56</speed>
  <fix>3d</fix>
</trkpt>
<trkpt lat="40.0732351" lon="-105.2304677">
  <ele>1598.96</ele>
  <time>2026-08-28T19:07:43Z</time>
  <course>15.38</course>
  <speed>9.581701310310189</speed>
  <fix>3d</fix>
</trkpt>
<trkpt lat="40.0732249" lon="-105.2304721">
  <ele>1598.8</ele>
  <time>2026-08-28T19:07:43Z</time>
  <course>18.59</course>
  <speed>9.57</speed>
  <fix>3d</fix>
</trkpt>
<trkpt lat="40.0732515" lon="-105.2304606">
  <ele>1599.07</ele>
  <time>2026-08-28T19:07:43Z</time>
  <course>15.2</course>
  <speed>9.626006440887103</speed>
  <fix>3d</fix>
</trkpt>
<trkpt lat="40.0732412" lon="-105.2304649">
  <ele>1598.9</ele>
  <time>2026-08-28T19:07:43Z</time>
  <course>18.52</course>
  <speed>9.6</speed>
  <fix>3d</fix>
</trkpt>
<trkpt lat="40.073268" lon="-105.2304534">
  <ele>1599.17</ele>
  <time>2026-08-28T19:07:43Z</time>
  <course>14.97</course>
  <speed>9.670377448683169</speed>
  <fix>3d</fix>
</trkpt>
<trkpt lat="40.0732576" lon="-105.2304577">
  <ele>1599.01</ele>
  <time>2026-08-28T19:07:43Z</time>
  <course>18.39</course>
  <speed>9.64</speed>
  <fix>3d</fix>
</trkpt>
<trkpt lat="40.0732845" lon="-105.2304463">
  <ele>1599.28</ele>
  <time>2026-08-28T19:07:43Z</time>
  <course>14.69</course>
  <speed>9.721244776261937</speed>
  <fix>3d</fix>
</trkpt>
<trkpt lat="40.0732741" lon="-105.2304506">
  <ele>1599.12</ele>
  <time>2026-08-28T19:07:43Z</time>
  <course>18.21</course>
  <speed>9.68</speed>
  <fix>3d</fix>
</trkpt>
<trkpt lat="40.0733011" lon="-105.2304393">
  <ele>1599.39</ele>
  <time>2026-08-28T19:07:43Z</time>
  <course>14.44</course>
  <speed>9.77225664828754</speed>
  <fix>3d</fix>
</trkpt>
<trkpt lat="40.0732907" lon="-105.2304435">
  <ele>1599.23</ele>
  <time>2026-08-28T19:07:43Z</time>
  <course>17.99</course>
  <speed>9.73</speed>
  <fix>3d</fix>
</trkpt>
<trkpt lat="40.0733178" lon="-105.2304323">
  <ele>1599.52</ele>
  <time>2026-08-28T19:07:43Z</time>
  <course>14.18</course>
  <speed>9.823410812950867</speed>
  <fix>3d</fix>
</trkpt>
<trkpt lat="40.0733074" lon="-105.2304365">
  <ele>1599.35</ele>
  <time>2026-08-28T19:07:43Z</time>
  <course>17.76</course>
  <speed>9.78</speed>
  <fix>3d</fix>
</trkpt>
<trkpt lat="40.0733347" lon="-105.2304254">
  <ele>1599.64</ele>
  <time>2026-08-28T19:07:43Z</time>
  <course>13.99</course>
  <speed>9.874705058886569</speed>
  <fix>3d</fix>
</trkpt>
<trkpt lat="40.0733242" lon="-105.2304294">
  <ele>1599.47</ele>
  <time>2026-08-28T19:07:43Z</time>
  <course>17.54</course>
  <speed>9.83</speed>
  <fix>3d</fix>
</trkpt>
<trkpt lat="40.0733516" lon="-105.2304185">
  <ele>1599.77</ele>
  <time>2026-08-28T19:07:43Z</time>
  <course>13.85</course>
  <speed>9.916577030407216</speed>
  <fix>3d</fix>
</trkpt>
<trkpt lat="40.0733411" lon="-105.2304225">
  <ele>1599.59</ele>
  <time>2026-08-28T19:07:43Z</time>
  <course>17.32</course>
  <speed>9.88</speed>
  <fix>3d</fix>
</trkpt>
<trkpt lat="40.0733687" lon="-105.2304116">
  <ele>1599.9</ele>
  <time>2026-08-28T19:07:43Z</time>
  <course>13.73</course>
  <speed>9.961470774940818</speed>
  <fix>3d</fix>
</trkpt>
<trkpt lat="40.0733581" lon="-105.2304156">
  <ele>1599.72</ele>
  <time>2026-08-28T19:07:43Z</time>
  <course>17.13</course>
  <speed>9.92</speed>
  <fix>3d</fix>
</trkpt>
<trkpt lat="40.0733859" lon="-105.2304047">
  <ele>1600.02</ele>
  <time>2026-08-28T19:07:43Z</time>
  <course>13.64</course>
  <speed>9.996849503718659</speed>
  <fix>3d</fix>
</trkpt>
<trkpt lat="40.0733751" lon="-105.2304087">
  <ele>1599.85</ele>
  <time>2026-08-28T19:07:43Z</time>
  <course>16.98</course>
  <speed>9.96</speed>
  <fix>3d</fix>
</trkpt>
<trkpt lat="40.0734031" lon="-105.2303979">
  <ele>1600.15</ele>
  <time>2026-08-28T19:07:43Z</time>
  <course>13.65</course>
  <speed>10.022694248554128</speed>
  <fix>3d</fix>
</trkpt>
<trkpt lat="40.0733922" lon="-105.230402">
  <ele>1599.98</ele>
  <time>2026-08-28T19:07:43Z</time>
  <course>16.85</course>
  <speed>9.99</speed>
  <fix>3d</fix>
</trkpt>
<trkpt lat="40.0734203" lon="-105.2303911">
  <ele>1600.28</ele>
  <time>2026-08-28T19:07:43Z</time>
  <course>13.67</course>
  <speed>10.03898899292155</speed>
  <fix>3d</fix>
</trkpt>
<trkpt lat="40.0734095" lon="-105.2303952">
  <ele>1600.11</ele>
  <time>2026-08-28T19:07:43Z</time>
  <course>16.76</course>
  <speed>10.01</speed>
  <fix>3d</fix>
</trkpt>
<trkpt lat="40.0734376" lon="-105.2303843">
  <ele>1600.41</ele>
  <time>2026-08-28T19:07:43Z</time>
  <course>13.71</course>
  <speed>10.058155894596185</speed>
  <fix>3d</fix>
</trkpt>
<trkpt lat="40.0734268" lon="-105.2303884">
  <ele>1600.24</ele>
  <time>2026-08-28T19:07:43Z</time>
  <course>16.7</course>
  <speed>10.03</speed>
  <fix>3d</fix>
</trkpt>
<trkpt lat="40.073455" lon="-105.2303775">
  <ele>1600.54</ele>
  <time>2026-08-28T19:07:43Z</time>
  <course>13.83</course>
  <speed>10.070595811569442</speed>
  <fix>3d</fix>
</trkpt>
<trkpt lat="40.073444" lon="-105.2303816">
  <ele>1600.37</ele>
  <time>2026-08-28T19:07:43Z</time>
  <course>16.67</course>
  <speed>10.05</speed>
  <fix>3d</fix>
</trkpt>
<trkpt lat="40.0734723" lon="-105.2303707">
  <ele>1600.68</ele>
  <time>2026-08-28T19:07:43Z</time>
  <course>13.95</course>
  <speed>10.070595811569442</speed>
  <fix>3d</fix>
</trkpt>
<trkpt lat="40.0734613" lon="-105.2303748">
  <ele>1600.5</ele>
  <time>2026-08-28T19:07:43Z</time>
  <course>16.68</course>
  <speed>10.05</speed>
  <fix>3d</fix>
</trkpt>
<trkpt lat="40.0734896" lon="-105.2303639">
  <ele>1600.81</ele>
  <time>2026-08-28T19:07:43Z</time>
  <course>14.11</course>
  <speed>10.073460180097006</speed>
  <fix>3d</fix>
</trkpt>
<trkpt lat="40.0734786" lon="-105.230368">
  <ele>1600.63</ele>
  <time>2026-08-28T19:07:43Z</time>
  <course>16.71</course>
  <speed>10.05</speed>
  <fix>3d</fix>
</trkpt>
<trkpt lat="40.0735068" lon="-105.2303571">
  <ele>1600.94</ele>
  <time>2026-08-28T19:07:43Z</time>
  <course>14.29</course>
  <speed>10.066757173986069</speed>
  <fix>3d</fix>
</trkpt>
<trkpt lat="40.0734959" lon="-105.2303613">
  <ele>1600.76</ele>
  <time>2026-08-28T19:07:43Z</time>
  <course>16.78</course>
  <speed>10.05</speed>
  <fix>3d</fix>
</trkpt>
<trkpt lat="40.0735241" lon="-105.2303502">
  <ele>1601.07</ele>
  <time>2026-08-28T19:07:43Z</time>
  <course>14.44</course>
  <speed>10.06296675936078</speed>
  <fix>3d</fix>
</trkpt>
<trkpt lat="40.0735132" lon="-105.2303544">
  <ele>1600.89</ele>
  <time>2026-08-28T19:07:43Z</time>
  <course>16.85</course>
  <speed>10.04</speed>
  <fix>3d</fix>
</trkpt>
<trkpt lat="40.0735413" lon="-105.2303434">
  <ele>1601.2</ele>
  <time>2026-08-28T19:07:43Z</time>
  <course>14.6</course>
  <speed>10.046740765044154</speed>
  <fix>3d</fix>
</trkpt>
<trkpt lat="40.0735304" lon="-105.2303475">
  <ele>1601.02</ele>
  <time>2026-08-28T19:07:43Z</time>
  <course>16.94</course>
  <speed>10.03</speed>
  <fix>3d</fix>
</trkpt>
<trkpt lat="40.0735586" lon="-105.2303364">
  <ele>1601.33</ele>
  <time>2026-08-28T19:07:43Z</time>
  <course>14.76</course>
  <speed>10.040099601099582</speed>
  <fix>3d</fix>
</trkpt>
<trkpt lat="40.0735477" lon="-105.2303407">
  <ele>1601.14</ele>
  <time>2026-08-28T19:07:43Z</time>
  <course>17.03</course>
  <speed>10.02</speed>
  <fix>3d</fix>
</trkpt>
<trkpt lat="40.0735758" lon="-105.2303295">
  <ele>1601.45</ele>
  <time>2026-08-28T19:07:43Z</time>
  <course>14.94</course>
  <speed>10.036418683972883</speed>
  <fix>3d</fix>
</trkpt>
<trkpt lat="40.073565" lon="-105.2303338">
  <ele>1601.27</ele>
  <time>2026-08-28T19:07:43Z</time>
  <course>17.13</course>
  <speed>10.01</speed>
  <fix>3d</fix>
</trkpt>
<trkpt lat="40.073593" lon="-105.2303225">
  <ele>1601.57</ele>
  <time>2026-08-28T19:07:43Z</time>
  <course>15.09</course>
  <speed>10.020269457454724</speed>
  <fix>3d</fix>
</trkpt>
<trkpt lat="40.0735822" lon="-105.2303269">
  <ele>1601.39</ele>
  <time>2026-08-28T19:07:43Z</time>
  <course>17.22</course>
  <speed>10.0</speed>
  <fix>3d</fix>
</trkpt>
<trkpt lat="40.0736101" lon="-105.2303155">
  <ele>1601.7</ele>
  <time>2026-08-28T19:07:43Z</time>
  <course>15.23</course>
  <speed>10.01369062833479</speed>
  <fix>3d</fix>
</trkpt>
<trkpt lat="40.0735993" lon="-105.2303198">
  <ele>1601.52</ele>
  <time>2026-08-28T19:07:43Z</time>
  <course>17.31</course>
  <speed>9.99</speed>
  <fix>3d</fix>
</trkpt>
<trkpt lat="40.0736274" lon="-105.2303085">
  <ele>1601.82</ele>
  <time>2026-08-28T19:07:43Z</time>
  <course>15.31</course>
  <speed>10.004144141304643</speed>
  <fix>3d</fix>
</trkpt>
<trkpt lat="40.0736164" lon="-105.2303129">
  <ele>1601.64</ele>
  <time>2026-08-28T19:07:43Z</time>
  <course>17.39</course>
  <speed>9.98</speed>
  <fix>3d</fix>
</trkpt>
<trkpt lat="40.0736444" lon="-105.2303015">
  <ele>1601.95</ele>
  <time>2026-08-28T19:07:43Z</time>
  <course>15.43</course>
  <speed>9.988042851329784</speed>
  <fix>3d</fix>
</trkpt>
<trkpt lat="40.0736335" lon="-105.2303058">
  <ele>1601.77</ele>
  <time>2026-08-28T19:07:43Z</time>
  <course>17.45</course>
  <speed>9.97</speed>
  <fix>3d</fix>
</trkpt>
<trkpt lat="40.0736614" lon="-105.2302945">
  <ele>1602.08</ele>
  <time>2026-08-28T19:07:43Z</time>
  <course>15.54</course>
  <speed>9.968961831605135</speed>
  <fix>3d</fix>
</trkpt>
<trkpt lat="40.0736506" lon="-105.2302988">
  <ele>1601.89</ele>
  <time>2026-08-28T19:07:43Z</time>
  <course>17.51</course>
  <speed>9.95</speed>
  <fix>3d</fix>
</trkpt>
<trkpt lat="40.0736784" lon="-105.2302875">
  <ele>1602.2</ele>
  <time>2026-08-28T19:07:43Z</time>
  <course>15.61</course>
  <speed>9.95942267403086</speed>
  <fix>3d</fix>
</trkpt>
<trkpt lat="40.0736677" lon="-105.2302918">
  <ele>1602.02</ele>
  <time>2026-08-28T19:07:43Z</time>
  <course>17.55</course>
  <speed>9.94</speed>
  <fix>3d</fix>
</trkpt>
<trkpt lat="40.0736954" lon="-105.2302804">
  <ele>1602.32</ele>
  <time>2026-08-28T19:07:43Z</time>
  <course>15.61</course>
  <speed>9.949884421439275</speed>
  <fix>3d</fix>
</trkpt>
<trkpt lat="40.0736847" lon="-105.2302847">
  <ele>1602.14</ele>
  <time>2026-08-28T19:07:43Z</time>
  <course>17.58</course>
  <speed>9.93</speed>
  <fix>3d</fix>
</trkpt>
<trkpt lat="40.0737123" lon="-105.2302734">
  <ele>1602.45</ele>
  <time>2026-08-28T19:07:43Z</time>
  <course>15.62</course>
  <speed>9.949884421439275</speed>
  <fix>3d</fix>
</trkpt>
<trkpt lat="40.0737017" lon="-105.2302776">
  <ele>1602.27</ele>
  <time>2026-08-28T19:07:43Z</time>
  <course>17.6</course>
  <speed>9.93</speed>
  <fix>3d</fix>
</trkpt>
<trkpt lat="40.0737293" lon="-105.2302664">
  <ele>1602.57</ele>
  <time>2026-08-28T19:07:44Z</time>
  <course>15.59</course>
  <speed>9.95942267403086</speed>
  <fix>3d</fix>
</trkpt>
<trkpt lat="40.0737187" lon="-105.2302706">
  <ele>1602.39</ele>
  <time>2026-08-28T19:07:44Z</time>
  <course>17.6</course>
  <speed>9.93</speed>
  <fix>3d</fix>
</trkpt>
<trkpt lat="40.0737464" lon="-105.2302593">
  <ele>1602.7</ele>
  <time>2026-08-28T19:07:44Z</time>
  <course>15.55</course>
  <speed>9.95942267403086</speed>
  <fix>3d</fix>
</trkpt>
<trkpt lat="40.0737357" lon="-105.2302636">
  <ele>1602.52</ele>
  <time>2026-08-28T19:07:44Z</time>
  <course>17.58</course>
  <speed>9.94</speed>
  <fix>3d</fix>
</trkpt>
<trkpt lat="40.0737634" lon="-105.2302523">
  <ele>1602.83</ele>
  <time>2026-08-28T19:07:44Z</time>
  <course>15.54</course>
  <speed>9.965967088045193</speed>
  <fix>3d</fix>
</trkpt>
<trkpt lat="40.0737528" lon="-105.2302565">
  <ele>1602.64</ele>
  <time>2026-08-28T19:07:44Z</time>
  <course>17.54</course>
  <speed>9.94</speed>
  <fix>3d</fix>
</trkpt>
<trkpt lat="40.0737805" lon="-105.2302452">
  <ele>1602.96</ele>
  <time>2026-08-28T19:07:44Z</time>
  <course>15.54</course>
  <speed>9.975510012024449</speed>
  <fix>3d</fix>
</trkpt>
<trkpt lat="40.0737698" lon="-105.2302495">
  <ele>1602.77</ele>
  <time>2026-08-28T19:07:44Z</time>
  <course>17.5</course>
  <speed>9.94</speed>
  <fix>3d</fix>
</trkpt>
<trkpt lat="40.0737976" lon="-105.2302382">
  <ele>1603.09</ele>
  <time>2026-08-28T19:07:44Z</time>
  <course>15.54</course>
  <speed>9.972527262434532</speed>
  <fix>3d</fix>
</trkpt>
<trkpt lat="40.0737869" lon="-105.2302425">
  <ele>1602.9</ele>
  <time>2026-08-28T19:07:44Z</time>
  <course>17.46</course>
  <speed>9.95</speed>
  <fix>3d</fix>
</trkpt>
<trkpt lat="40.0738147" lon="-105.2302312">
  <ele>1603.22</ele>
  <time>2026-08-28T19:07:44Z</time>
  <course>15.56</course>
  <speed>9.969553650991603</speed>
  <fix>3d</fix>
</trkpt>
<trkpt lat="40.0738039" lon="-105.2302354">
  <ele>1603.03</ele>
  <time>2026-08-28T19:07:44Z</time>
  <course>17.41</course>
  <speed>9.95</speed>
  <fix>3d</fix>
</trkpt>
<trkpt lat="40.0738317" lon="-105.2302243">
  <ele>1603.35</ele>
  <time>2026-08-28T19:07:44Z</time>
  <course>15.56</course>
  <speed>9.966589185874975</speed>
  <fix>3d</fix>
</trkpt>
<trkpt lat="40.0738209" lon="-105.2302285">
  <ele>1603.16</ele>
  <time>2026-08-28T19:07:44Z</time>
  <course>17.37</course>
  <speed>9.95</speed>
  <fix>3d</fix>
</trkpt>
<trkpt lat="40.0738488" lon="-105.2302173">
  <ele>1603.47</ele>
  <time>2026-08-28T19:07:44Z</time>
  <course>15.55</course>
  <speed>9.966589185874975</speed>
  <fix>3d</fix>
</trkpt>
<trkpt lat="40.073838" lon="-105.2302215">
  <ele>1603.29</ele>
  <time>2026-08-28T19:07:44Z</time>
  <course>17.34</course>
  <speed>9.95</speed>
  <fix>3d</fix>
</trkpt>
<trkpt lat="40.0738658" lon="-105.2302104">
  <ele>1603.6</ele>
  <time>2026-08-28T19:07:44Z</time>
  <course>15.55</course>
  <speed>9.976141538691198</speed>
  <fix>3d</fix>
</trkpt>
<trkpt lat="40.0738551" lon="-105.2302146">
  <ele>1603.41</ele>
  <time>2026-08-28T19:07:44Z</time>
  <course>17.31</course>
  <speed>9.95</speed>
  <fix>3d</fix>
</trkpt>
<trkpt lat="40.0738829" lon="-105.2302034">
  <ele>1603.73</ele>
  <time>2026-08-28T19:07:44Z</time>
  <course>15.5</course>
  <speed>9.976141538691198</speed>
  <fix>3d</fix>
</trkpt>
<trkpt lat="40.0738721" lon="-105.2302076">
  <ele>1603.54</ele>
  <time>2026-08-28T19:07:44Z</time>
  <course>17.29</course>
  <speed>9.95</speed>
  <fix>3d</fix>
</trkpt>
<trkpt lat="40.0738999" lon="-105.2301965">
  <ele>1603.86</ele>
  <time>2026-08-28T19:07:44Z</time>
  <course>15.48</course>
  <speed>9.982745113444498</speed>
  <fix>3d</fix>
</trkpt>
<trkpt lat="40.0738892" lon="-105.2302006">
  <ele>1603.66</ele>
  <time>2026-08-28T19:07:44Z</time>
  <course>17.27</course>
  <speed>9.96</speed>
  <fix>3d</fix>
</trkpt>
<trkpt lat="40.0739171" lon="-105.2301895">
  <ele>1604.0</ele>
  <time>2026-08-28T19:07:44Z</time>
  <course>15.49</course>
  <speed>9.992302037068335</speed>
  <fix>3d</fix>
</trkpt>
<trkpt lat="40.0739063" lon="-105.2301937">
  <ele>1603.79</ele>
  <time>2026-08-28T19:07:44Z</time>
  <course>17.25</course>
  <speed>9.97</speed>
  <fix>3d</fix>
</trkpt>
<trkpt lat="40.0739343" lon="-105.2301826">
  <ele>1604.13</ele>
  <time>2026-08-28T19:07:44Z</time>
  <course>15.48</course>
  <speed>10.001859827052167</speed>
  <fix>3d</fix>
</trkpt>
<trkpt lat="40.0739235" lon="-105.2301867">
  <ele>1603.92</ele>
  <time>2026-08-28T19:07:44Z</time>
  <course>17.23</course>
  <speed>9.98</speed>
  <fix>3d</fix>
</trkpt>
<trkpt lat="40.0739514" lon="-105.2301756">
  <ele>1604.26</ele>
  <time>2026-08-28T19:07:44Z</time>
  <course>15.5</course>
  <speed>10.001859827052167</speed>
  <fix>3d</fix>
</trkpt>
<trkpt lat="40.0739406" lon="-105.2301798">
  <ele>1604.05</ele>
  <time>2026-08-28T19:07:44Z</time>
  <course>17.22</course>
  <speed>9.98</speed>
  <fix>3d</fix>
</trkpt>
<trkpt lat="40.0739685" lon="-105.2301687">
  <ele>1604.39</ele>
  <time>2026-08-28T19:07:44Z</time>
  <course>15.64</course>
  <speed>9.970245734183285</speed>
  <fix>3d</fix>
</trkpt>
<trkpt lat="40.0739578" lon="-105.2301728">
  <ele>1604.17</ele>
  <time>2026-08-28T19:07:44Z</time>
  <course>17.2</course>
  <speed>9.97</speed>
  <fix>3d</fix>
</trkpt>
<trkpt lat="40.0739856" lon="-105.2301618">
  <ele>1604.53</ele>
  <time>2026-08-28T19:07:44Z</time>
  <course>15.98</course>
  <speed>9.875403789212875</speed>
  <fix>3d</fix>
</trkpt>
<trkpt lat="40.0739748" lon="-105.230166">
  <ele>1604.31</ele>
  <time>2026-08-28T19:07:44Z</time>
  <course>17.18</course>
  <speed>9.92</speed>
  <fix>3d</fix>
</trkpt>
<trkpt lat="40.0740025" lon="-105.230155">
  <ele>1604.68</ele>
  <time>2026-08-28T19:07:44Z</time>
  <course>16.5</course>
  <speed>9.729830419899415</speed>
  <fix>3d</fix>
</trkpt>
<trkpt lat="40.0739918" lon="-105.2301591">
  <ele>1604.45</ele>
  <time>2026-08-28T19:07:44Z</time>
  <course>17.17</course>
  <speed>9.82</speed>
  <fix>3d</fix>
</trkpt>
<trkpt lat="40.074019" lon="-105.2301483">
  <ele>1604.84</ele>
  <time>2026-08-28T19:07:44Z</time>
  <course>17.14</course>
  <speed>9.523975010467005</speed>
  <fix>3d</fix>
</trkpt>
<trkpt lat="40.0740086" lon="-105.2301523">
  <ele>1604.6</ele>
  <time>2026-08-28T19:07:44Z</time>
  <course>17.19</course>
  <speed>9.66</speed>
  <fix>3d</fix>
</trkpt>
<trkpt lat="40.0740351" lon="-105.2301417">
  <ele>1604.98</ele>
  <time>2026-08-28T19:07:44Z</time>
  <course>17.82</course>
  <speed>9.267416036846516</speed>
  <fix>3d</fix>
</trkpt>
<trkpt lat="40.074025" lon="-105.2301457">
  <ele>1604.75</ele>
  <time>2026-08-28T19:07:44Z</time>
  <course>17.26</course>
  <speed>9.44</speed>
  <fix>3d</fix>
</trkpt>
<trkpt lat="40.0740508" lon="-105.2301353">
  <ele>1605.12</ele>
  <time>2026-08-28T19:07:44Z</time>
  <course>18.47</course>
  <speed>8.972719766046414</speed>
  <fix>3d</fix>
</trkpt>
<trkpt lat="40.0740409" lon="-105.2301392">
  <ele>1604.89</ele>
  <time>2026-08-28T19:07:44Z</time>
  <course>17.37</course>
  <speed>9.17</speed>
  <fix>3d</fix>
</trkpt>
<trkpt lat="40.0740659" lon="-105.230129">
  <ele>1605.24</ele>
  <time>2026-08-28T19:07:44Z</time>
  <course>19.07</course>
  <speed>8.624413023504847</speed>
  <fix>3d</fix>
</trkpt>
<trkpt lat="40.0740564" lon="-105.2301329">
  <ele>1605.04</ele>
  <time>2026-08-28T19:07:44Z</time>
  <course>17.52</course>
  <speed>8.86</speed>
  <fix>3d</fix>
</trkpt>
<trkpt lat="40.0740804" lon="-105.230123">
  <ele>1605.36</ele>
  <time>2026-08-28T19:07:44Z</time>
  <course>19.62</course>
  <speed>8.244567908629293</speed>
  <fix>3d</fix>
</trkpt>
<trkpt lat="40.0740712" lon="-105.2301267">
  <ele>1605.16</ele>
  <time>2026-08-28T19:07:44Z</time>
  <course>17.67</course>
  <speed>8.5</speed>
  <fix>3d</fix>
</trkpt>
<trkpt lat="40.0740942" lon="-105.2301171">
  <ele>1605.47</ele>
  <time>2026-08-28T19:07:44Z</time>
  <course>20.11</course>
  <speed>7.808002305327529</speed>
  <fix>3d</fix>
</trkpt>
<trkpt lat="40.0740854" lon="-105.2301208">
  <ele>1605.28</ele>
  <time>2026-08-28T19:07:44Z</time>
  <course>17.83</course>
  <speed>8.1</speed>
  <fix>3d</fix>
</trkpt>
<trkpt lat="40.0741071" lon="-105.2301117">
  <ele>1605.56</ele>
  <time>2026-08-28T19:07:44Z</time>
  <course>20.53</course>
  <speed>7.333437120477682</speed>
  <fix>3d</fix>
</trkpt>
<trkpt lat="40.0740989" lon="-105.2301151">
  <ele>1605.38</ele>
  <time>2026-08-28T19:07:44Z</time>
  <course>17.96</course>
  <speed>7.65</speed>
  <fix>3d</fix>
</trkpt>
<trkpt lat="40.0741191" lon="-105.2301065">
  <ele>1605.64</ele>
  <time>2026-08-28T19:07:44Z</time>
  <course>20.88</course>
  <speed>6.811593058895987</speed>
  <fix>3d</fix>
</trkpt>
<trkpt lat="40.0741116" lon="-105.2301097">
  <ele>1605.47</ele>
  <time>2026-08-28T19:07:44Z</time>
  <course>18.07</course>
  <speed>7.16</speed>
  <fix>3d</fix>
</trkpt>
<trkpt lat="40.0741303" lon="-105.2301017">
  <ele>1605.72</ele>
  <time>2026-08-28T19:07:44Z</time>
  <course>21.13</course>
  <speed>6.2645111541125065</speed>
  <fix>3d</fix>
</trkpt>
<trkpt lat="40.0741234" lon="-105.2301046">
  <ele>1605.55</ele>
  <time>2026-08-28T19:07:44Z</time>
  <course>18.15</course>
  <speed>6.63</speed>
  <fix>3d</fix>
</trkpt>
<trkpt lat="40.0741405" lon="-105.2300973">
  <ele>1605.78</ele>
  <time>2026-08-28T19:07:44Z</time>
  <course>21.25</course>
  <speed>5.68894542072606</speed>
  <fix>3d</fix>
</trkpt>
<trkpt lat="40.0741343" lon="-105.2300999">
  <ele>1605.62</ele>
  <time>2026-08-28T19:07:44Z</time>
  <course>18.19</course>
  <speed>6.07</speed>
  <fix>3d</fix>
</trkpt>
<trkpt lat="40.0741498" lon="-105.2300933">
  <ele>1605.83</ele>
  <time>2026-08-28T19:07:44Z</time>
  <course>21.26</course>
  <speed>5.1323776166607225</speed>
  <fix>3d</fix>
</trkpt>
<trkpt lat="40.0741442" lon="-105.2300957">
  <ele>1605.67</ele>
  <time>2026-08-28T19:07:44Z</time>
  <course>18.2</course>
  <speed>5.5</speed>
  <fix>3d</fix>
</trkpt>
<trkpt lat="40.0741581" lon="-105.2300897">
  <ele>1605.87</ele>
  <time>2026-08-28T19:07:44Z</time>
  <course>21.14</course>
  <speed>4.572657870429407</speed>
  <fix>3d</fix>
</trkpt>
<trkpt lat="40.074153" lon="-105.2300918">
  <ele>1605.72</ele>
  <time>2026-08-28T19:07:44Z</time>
  <course>18.18</course>
  <speed>4.93</speed>
  <fix>3d</fix>
</trkpt>
<trkpt lat="40.0741654" lon="-105.2300865">
  <ele>1605.89</ele>
  <time>2026-08-28T19:07:44Z</time>
  <course>20.92</course>
  <speed>4.035071250919865</speed>
  <fix>3d</fix>
</trkpt>
<trkpt lat="40.074161" lon="-105.2300884">
  <ele>1605.75</ele>
  <time>2026-08-28T19:07:44Z</time>
  <course>18.12</course>
  <speed>4.38</speed>
  <fix>3d</fix>
</trkpt>
<trkpt lat="40.0741719" lon="-105.2300838">
  <ele>1605.91</ele>
  <time>2026-08-28T19:07:44Z</time>
  <course>20.56</course>
  <speed>3.503855019831728</speed>
  <fix>3d</fix>
</trkpt>
<trkpt lat="40.074168" lon="-105.2300855">
  <ele>1605.76</ele>
  <time>2026-08-28T19:07:44Z</time>
  <course>17.97</course>
  <speed>3.83</speed>
  <fix>3d</fix>
</trkpt>
<trkpt lat="40.0741774" lon="-105.2300815">
  <ele>1605.92</ele>
  <time>2026-08-28T19:07:44Z</time>
  <course>20.08</course>
  <speed>2.9822307087145354</speed>
  <fix>3d</fix>
</trkpt>
<trkpt lat="40.0741741" lon="-105.2300829">
  <ele>1605.77</ele>
  <time>2026-08-28T19:07:44Z</time>
  <course>17.67</course>
  <speed>3.3</speed>
  <fix>3d</fix>
</trkpt>
<trkpt lat="40.0741821" lon="-105.2300796">
  <ele>1605.93</ele>
  <time>2026-08-28T19:07:44Z</time>
  <course>19.39</course>
  <speed>2.47987902930768</speed>
  <fix>3d</fix>
</trkpt>
<trkpt lat="40.0741793" lon="-105.2300808">
  <ele>1605.78</ele>
  <time>2026-08-28T19:07:44Z</time>
  <course>17.18</course>
  <speed>2.78</speed>
  <fix>3d</fix>
</trkpt>
<trkpt lat="40.074186" lon="-105.2300781">
  <ele>1605.94</ele>
  <time>2026-08-28T19:07:44Z</time>
  <course>18.48</course>
  <speed>1.997223072167954</speed>
  <fix>3d</fix>
</trkpt>
<trkpt lat="40.0741837" lon="-105.230079">
  <ele>1605.79</ele>
  <time>2026-08-28T19:07:44Z</time>
  <course>16.42</course>
  <speed>2.28</speed>
  <fix>3d</fix>
</trkpt>
<trkpt lat="40.074189" lon="-105.230077">
  <ele>1605.95</ele>
  <time>2026-08-28T19:07:44Z</time>
  <course>17.23</course>
  <speed>1.5524174696260025</speed>
  <fix>3d</fix>
</trkpt>
<trkpt lat="40.0741872" lon="-105.2300777">
  <ele>1605.8</ele>
  <time>2026-08-28T19:07:44Z</time>
  <course>15.36</course>
  <speed>1.8</speed>
  <fix>3d</fix>
</trkpt>
<trkpt lat="40.0741914" lon="-105.2300763">
  <ele>1605.96</ele>
  <time>2026-08-28T19:07:44Z</time>
  <course>15.68</course>
  <speed>1.1715374513859982</speed>
  <fix>3d</fix>
</trkpt>
<trkpt lat="40.07419" lon="-105.2300768">
  <ele>1605.81</ele>
  <time>2026-08-28T19:07:44Z</time>
  <course>13.94</course>
  <speed>1.37</speed>
  <fix>3d</fix>
</trkpt>
<trkpt lat="40.0741931" lon="-105.2300758">
  <ele>1605.96</ele>
  <time>2026-08-28T19:07:44Z</time>
  <course>13.78</course>
  <speed>0.8452810183601664</speed>
  <fix>3d</fix>
</trkpt>
<trkpt lat="40.074192" lon="-105.2300762">
  <ele>1605.82</ele>
  <time>2026-08-28T19:07:44Z</time>
  <course>12.06</course>
  <speed>0.99</speed>
  <fix>3d</fix>
</trkpt>
<trkpt lat="40.0741943" lon="-105.2300756">
  <ele>1605.97</ele>
  <time>2026-08-28T19:07:44Z</time>
  <course>13.58</course>
  <speed>0.5742821606144493</speed>
  <fix>3d</fix>
</trkpt>
<trkpt lat="40.0741935" lon="-105.2300758">
  <ele>1605.83</ele>
  <time>2026-08-28T19:07:44Z</time>
  <course>8.73</course>
  <speed>0.68</speed>
  <fix>3d</fix>
</trkpt>
<trkpt lat="40.0741951" lon="-105.2300756">
  <ele>1605.97</ele>
  <time>2026-08-28T19:07:44Z</time>
  <course>13.55</course>
  <speed>0.37</speed>
  <fix>3d</fix>
</trkpt>
<trkpt lat="40.0741945" lon="-105.2300757">
  <ele>1605.84</ele>
  <time>2026-08-28T19:07:44Z</time>
  <course>2.95</course>
  <speed>0.43</speed>
  <fix>3d</fix>
</trkpt>
<trkpt lat="40.0741955" lon="-105.2300756">
  <ele>1605.99</ele>
  <time>2026-08-28T19:07:44Z</time>
  <course>13.51</course>
  <speed>0.223606797749979</speed>
  <fix>3d</fix>
</trkpt>
<trkpt lat="40.0741951" lon="-105.2300757">
  <ele>1605.85</ele>
  <time>2026-08-28T19:07:44Z</time>
  <course>352.35</course>
  <speed>0.24</speed>
  <fix>3d</fix>
</trkpt>
<trkpt lat="40.0741957" lon="-105.2300758">
  <ele>1606.0</ele>
  <time>2026-08-28T19:07:44Z</time>
  <course>13.48</course>
  <speed>0.130384048104053</speed>
  <fix>3d</fix>
</trkpt>
<trkpt lat="40.0741953" lon="-105.2300758">
  <ele>1605.86</ele>
  <time>2026-08-28T19:07:44Z</time>
  <course>324.78</course>
  <speed>0.12</speed>
  <fix>3d</fix>
</trkpt>
<trkpt lat="40.0741958" lon="-105.230076">
  <ele>1606.01</ele>
  <time>2026-08-28T19:07:44Z</time>
  <course>13.44</course>
  <speed>0.09848857801796104</speed>
  <fix>3d</fix>
</trkpt>
<trkpt lat="40.0741954" lon="-105.230076">
  <ele>1605.87</ele>
  <time>2026-08-28T19:07:44Z</time>
  <course>271.77</course>
  <speed>0.09</speed>
  <fix>3d</fix>
</trkpt>
<trkpt lat="40.0741957" lon="-105.2300762">
  <ele>1606.01</ele>
  <time>2026-08-28T19:07:44Z</time>
  <course>13.41</course>
  <speed>0.09055385138137417</speed>
  <fix>3d</fix>
</trkpt>
<trkpt lat="40.0741954" lon="-105.2300761">
  <ele>1605.89</ele>
  <time>2026-08-28T19:07:44Z</time>
  <course>242.02</course>
  <speed>0.11</speed>
  <fix>3d</fix>
</trkpt>
<trkpt lat="40.0741956" lon="-105.2300765">
  <ele>1606.02</ele>
  <time>2026-08-28T19:07:44Z</time>
  <course>13.34</course>
  <speed>0.0824621125123532</speed>
  <fix>3d</fix>
</trkpt>
<trkpt lat="40.0741954" lon="-105.2300764">
  <ele>1605.9</ele>
  <time>2026-08-28T19:07:44Z</time>
  <course>232.53</course>
  <speed>0.12</speed>
  <fix>3d</fix>
</trkpt>
<trkpt lat="40.0741955" lon="-105.2300767">
  <ele>1606.02</ele>
  <time>2026-08-28T19:07:44Z</time>
  <course>13.34</course>
  <speed>0.08602325267042626</speed>
  <fix>3d</fix>
</trkpt>
<trkpt lat="40.0741953" lon="-105.2300765">
  <ele>1605.91</ele>
  <time>2026-08-28T19:07:44Z</time>
  <course>232.73</course>
  <speed>0.09</speed>
  <fix>3d</fix>
</trkpt>
<trkpt lat="40.0741955" lon="-105.2300768">
  <ele>1606.03</ele>
  <time>2026-08-28T19:07:44Z</time>
  <course>13.31</course>
  <speed>0.10770329614269007</speed>
  <fix>3d</fix>
</trkpt>
<trkpt lat="40.0741952" lon="-105.2300767">
  <ele>1605.92</ele>
  <time>2026-08-28T19:07:44Z</time>
  <course>250.33</course>
  <speed>0.05</speed>
  <fix>3d</fix>
</trkpt>
<trkpt lat="40.0741957" lon="-105.2300769">
  <ele>1606.04</ele>
  <time>2026-08-28T19:07:44Z</time>
  <course>13.25</course>
  <speed>0.1711724276862369</speed>
  <fix>3d</fix>
</trkpt>
<trkpt lat="40.0741952" lon="-105.2300768">
  <ele>1605.93</ele>
  <time>2026-08-28T19:07:44Z</time>
  <course>332.94</course>
  <speed>0.04</speed>
  <fix>3d</fix>
</trkpt>
<trkpt lat="40.0741959" lon="-105.2300769">
  <ele>1606.05</ele>
  <time>2026-08-28T19:07:44Z</time>
  <course>13.23</course>
  <speed>0.24</speed>
  <fix>3d</fix>
</trkpt>
<trkpt lat="40.0741953" lon="-105.2300769">
  <ele>1605.94</ele>
  <time>2026-08-28T19:07:44Z</time>
  <course>5.43</course>
  <speed>0.11</speed>
  <fix>3d</fix>
</trkpt>
<trkpt lat="40.0741963" lon="-105.2300768">
  <ele>1606.05</ele>
  <time>2026-08-28T19:07:44Z</time>
  <course>13.25</course>
  <speed>0.30066592756745814</speed>
  <fix>3d</fix>
</trkpt>
<trkpt lat="40.0741955" lon="-105.2300768">
  <ele>1605.95</ele>
  <time>2026-08-28T19:07:44Z</time>
  <course>12.3</course>
  <speed>0.19</speed>
  <fix>3d</fix>
</trkpt>
<trkpt lat="40.0741967" lon="-105.2300767">
  <ele>1606.06</ele>
  <time>2026-08-28T19:07:44Z</time>
  <course>13.26</course>
  <speed>0.3423448553724738</speed>
  <fix>3d</fix>
</trkpt>
<trkpt lat="40.0741959" lon="-105.2300767">
  <ele>1605.96</ele>
  <time>2026-08-28T19:07:44Z</time>
  <course>14.59</course>
  <speed>0.25</speed>
  <fix>3d</fix>
</trkpt>
<trkpt lat="40.0741972" lon="-105.2300766">
  <ele>1606.06</ele>
  <time>2026-08-28T19:07:44Z</time>
  <course>13.27</course>
  <speed>0.3634556369077249</speed>
  <fix>3d</fix>
</trkpt>
<trkpt lat="40.0741964" lon="-105.2300765">
  <ele>1605.96</ele>
  <time>2026-08-28T19:07:44Z</time>
  <course>15.64</course>
  <speed>0.3</speed>
  <fix>3d</fix>
</trkpt>
<trkpt lat="40.0741978" lon="-105.2300764">
  <ele>1606.06</ele>
  <time>2026-08-28T19:07:44Z</time>
  <course>13.29</course>
  <speed>0.37336309405188944</speed>
  <fix>3d</fix>
</trkpt>
<trkpt lat="40.074197" lon="-105.2300764">
  <ele>1605.97</ele>
  <time>2026-08-28T19:07:44Z</time>
  <course>16.43</course>
  <speed>0.32</speed>
  <fix>3d</fix>
</trkpt>
<trkpt lat="40.0741983" lon="-105.2300762">
  <ele>1606.07</ele>
  <time>2026-08-28T19:07:44Z</time>
  <course>13.31</course>
  <speed>0.3535533905932738</speed>
  <fix>3d</fix>
</trkpt>
<trkpt lat="40.0741976" lon="-105.2300761">
  <ele>1605.97</ele>
  <time>2026-08-28T19:07:44Z</time>
  <course>17.23</course>
  <speed>0.33</speed>
  <fix>3d</fix>
</trkpt>
<trkpt lat="40.0741988" lon="-105.230076">
  <ele>1606.07</ele>
  <time>2026-08-28T19:07:44Z</time>
  <course>13.31</course>
  <speed>0.3238826948140329</speed>
  <fix>3d</fix>
</trkpt>
<trkpt lat="40.0741981" lon="-105.2300759">
  <ele>1605.97</ele>
  <time>2026-08-28T19:07:44Z</time>
  <course>18.29</course>
  <speed>0.32</speed>
  <fix>3d</fix>
</trkpt>
<trkpt lat="40.0741993" lon="-105.2300758">
  <ele>1606.07</ele>
  <time>2026-08-28T19:07:44Z</time>
  <course>13.32</course>
  <speed>0.28442925306655786</speed>
  <fix>3d</fix>
</trkpt>
<trkpt lat="40.0741986" lon="-105.2300756">
  <ele>1605.97</ele>
  <time>2026-08-28T19:07:44Z</time>
  <course>19.85</course>
  <speed>0.29</speed>
  <fix>3d</fix>
</trkpt>
<trkpt lat="40.0741997" lon="-105.2300756">
  <ele>1606.07</ele>
  <time>2026-08-28T19:07:44Z</time>
  <course>13.32</course>
  <speed>0.2353720459187964</speed>
  <fix>3d</fix>
</trkpt>
<trkpt lat="40.0741991" lon="-105.2300755">
  <ele>1605.98</ele>
  <time>2026-08-28T19:07:44Z</time>
  <course>22.03</course>
  <speed>0.25</speed>
  <fix>3d</fix>
</trkpt>
<trkpt lat="40.0742" lon="-105.2300754">
  <ele>1606.07</ele>
  <time>2026-08-28T19:07:44Z</time>
  <course>13.3</course>
  <speed>0.18439088914585774</speed>
  <fix>3d</fix>
</trkpt>
<trkpt lat="40.0741995" lon="-105.2300752">
  <ele>1605.98</ele>
  <time>2026-08-28T19:07:44Z</time>
  <course>25.06</course>
  <speed>0.21</speed>
  <fix>3d</fix>
</trkpt>
<trkpt lat="40.0742002" lon="-105.2300752">
  <ele>1606.07</ele>
  <time>2026-08-28T19:07:44Z</time>
  <course>13.29</course>
  <speed>0.12369316876852982</speed>
  <fix>3d</fix>
</trkpt>
<trkpt lat="40.0741998" lon="-105.230075">
  <ele>1605.98</ele>
  <time>2026-08-28T19:07:44Z</time>
  <course>29.63</course>
  <speed>0.16</speed>
  <fix>3d</fix>
</trkpt>
<trkpt lat="40.0742003" lon="-105.230075">
  <ele>1606.08</ele>
  <time>2026-08-28T19:07:44Z</time>
  <course>13.28</course>
  <speed>0.07280109889280519</speed>
  <fix>3d</fix>
</trkpt>
<trkpt lat="40.0742" lon="-105.2300749">
  <ele>1605.98</ele>
  <time>2026-08-28T19:07:44Z</time>
  <course>37.91</course>
  <speed>0.11</speed>
  <fix>3d</fix>
</trkpt>
<trkpt lat="40.0742003" lon="-105.2300749">
  <ele>1606.08</ele>
  <time>2026-08-28T19:07:44Z</time>
  <course>13.27</course>
  <speed>0.01414213562373095</speed>
  <fix>3d</fix>
</trkpt>
<trkpt lat="40.0742001" lon="-105.2300747">
  <ele>1605.98</ele>
  <time>2026-08-28T19:07:44Z</time>
  <course>56.96</course>
  <speed>0.06</speed>
  <fix>3d</fix>
</trkpt>
<trkpt lat="40.0742003" lon="-105.2300748">
  <ele>1606.08</ele>
  <time>2026-08-28T19:07:44Z</time>
  <course>13.27</course>
  <speed>0.03</speed>
  <fix>3d</fix>
</trkpt>
<trkpt lat="40.0742002" lon="-105.2300746">
  <ele>1605.98</ele>
  <time>2026-08-28T19:07:44Z</time>
  <course>105.2</course>
  <speed>0.04</speed>
  <fix>3d</fix>
</trkpt>
<trkpt lat="40.0742002" lon="-105.2300747">
  <ele>1606.08</ele>
  <time>2026-08-28T19:07:44Z</time>
  <course>13.25</course>
  <speed>0.07071067811865475</speed>
  <fix>3d</fix>
</trkpt>
<trkpt lat="40.0742001" lon="-105.2300745">
  <ele>1605.98</ele>
  <time>2026-08-28T19:07:44Z</time>
  <course>152.01</course>
  <speed>0.06</speed>
  <fix>3d</fix>
</trkpt>
<trkpt lat="40.0742" lon="-105.2300747">
  <ele>1606.08</ele>
  <time>2026-08-28T19:07:44Z</time>
  <course>13.23</course>
  <speed>0.1118033988749895</speed>
  <fix>3d</fix>
</trkpt>
<trkpt lat="40.0742" lon="-105.2300744">
  <ele>1605.97</ele>
  <time>2026-08-28T19:07:44Z</time>
  <course>170.04</course>
  <speed>0.1</speed>
  <fix>3d</fix>
</trkpt>
<trkpt lat="40.0741998" lon="-105.2300747">
  <ele>1606.08</ele>
  <time>2026-08-28T19:07:44Z</time>
  <course>13.23</course>
  <speed>0.14317821063276354</speed>
  <fix>3d</fix>
</trkpt>
<trkpt lat="40.0741998" lon="-105.2300743">
  <ele>1605.97</ele>
  <time>2026-08-28T19:07:44Z</time>
  <course>178.09</course>
  <speed>0.13</speed>
  <fix>3d</fix>
</trkpt>
<trkpt lat="40.0741995" lon="-105.2300747">
  <ele>1606.08</ele>
  <time>2026-08-28T19:07:44Z</time>
  <course>13.2</course>
  <speed>0.1649242250247064</speed>
  <fix>3d</fix>
</trkpt>
<trkpt lat="40.0741995" lon="-105.2300743">
  <ele>1605.97</ele>
  <time>2026-08-28T19:07:44Z</time>
  <course>182.61</course>
  <speed>0.16</speed>
  <fix>3d</fix>
</trkpt>
<trkpt lat="40.0741991" lon="-105.2300747">
  <ele>1606.08</ele>
  <time>2026-08-28T19:07:44Z</time>
  <course>13.18</course>
  <speed>0.18681541692269404</speed>
  <fix>3d</fix>
</trkpt>
<trkpt lat="40.0741992" lon="-105.2300744">
  <ele>1605.97</ele>
  <time>2026-08-28T19:07:44Z</time>
  <course>185.54</course>
  <speed>0.18</speed>
  <fix>3d</fix>
</trkpt>
<trkpt lat="40.0741988" lon="-105.2300747">
  <ele>1606.08</ele>
  <time>2026-08-28T19:07:44Z</time>
  <course>13.17</course>
  <speed>0.196468827043885</speed>
  <fix>3d</fix>
</trkpt>
<trkpt lat="40.0741989" lon="-105.2300745">
  <ele>1605.97</ele>
  <time>2026-08-28T19:07:44Z</time>
  <course>187.88</course>
  <speed>0.2</speed>
  <fix>3d</fix>
</trkpt>
<trkpt lat="40.0741984" lon="-105.2300748">
  <ele>1606.07</ele>
  <time>2026-08-28T19:07:44Z</time>
  <course>13.15</course>
  <speed>0.19924858845171275</speed>
  <fix>3d</fix>
</trkpt>
<trkpt lat="40.0741985" lon="-105.2300745">
  <ele>1605.97</ele>
  <time>2026-08-28T19:07:44Z</time>
  <course>189.93</course>
  <speed>0.2</speed>
  <fix>3d</fix>
</trkpt>
<trkpt lat="40.074198" lon="-105.2300749">
  <ele>1606.07</ele>
  <time>2026-08-28T19:07:44Z</time>
  <course>13.13</course>
  <speed>0.18973665961010278</speed>
  <fix>3d</fix>
</trkpt>
<trkpt lat="40.0741982" lon="-105.2300745">
  <ele>1605.96</ele>
  <time>2026-08-28T19:07:44Z</time>
  <course>191.7</course>
  <speed>0.2</speed>
  <fix>3d</fix>
</trkpt>
<trkpt lat="40.0741977" lon="-105.230075">
  <ele>1606.07</ele>
  <time>2026-08-28T19:07:44Z</time>
  <course>13.09</course>
  <speed>0.18384776310850234</speed>
  <fix>3d</fix>
</trkpt>
<trkpt lat="40.0741977" lon="-105.2300746">
  <ele>1605.96</ele>
  <time>2026-08-28T19:07:44Z</time>
  <course>193.27</course>
  <speed>0.2</speed>
  <fix>3d</fix>
</trkpt>
<trkpt lat="40.0741974" lon="-105.2300751">
  <ele>1606.07</ele>
  <time>2026-08-28T19:07:44Z</time>
  <course>13.09</course>
  <speed>0.17464249196572978</speed>
  <fix>3d</fix>
</trkpt>
<trkpt lat="40.0741974" lon="-105.2300747">
  <ele>1605.96</ele>
  <time>2026-08-28T19:07:44Z</time>
  <course>194.93</course>
  <speed>0.19</speed>
  <fix>3d</fix>
</trkpt>
<trkpt lat="40.0741971" lon="-105.2300752">
  <ele>1606.07</ele>
  <time>2026-08-28T19:07:44Z</time>
  <course>13.08</course>
  <speed>0.15652475842498528</speed>
  <fix>3d</fix>
</trkpt>
<trkpt lat="40.0741971" lon="-105.2300749">
  <ele>1605.96</ele>
  <time>2026-08-28T19:07:44Z</time>
  <course>196.97</course>
  <speed>0.17</speed>
  <fix>3d</fix>
</trkpt>
<trkpt lat="40.0741968" lon="-105.2300753">
  <ele>1606.07</ele>
  <time>2026-08-28T19:07:44Z</time>
  <course>13.06</course>
  <speed>0.130384048104053</speed>
  <fix>3d</fix>
</trkpt>
<trkpt lat="40.0741968" lon="-105.230075">
  <ele>1605.96</ele>
  <time>2026-08-28T19:07:44Z</time>
  <course>199.55</course>
  <speed>0.15</speed>
  <fix>3d</fix>
</trkpt>
<trkpt lat="40.0741966" lon="-105.2300754">
  <ele>1606.07</ele>
  <time>2026-08-28T19:07:44Z</time>
  <course>13.05</course>
  <speed>0.10816653826391968</speed>
  <fix>3d</fix>
</trkpt>
<trkpt lat="40.0741966" lon="-105.2300751">
  <ele>1605.96</ele>
  <time>2026-08-28T19:07:44Z</time>
  <course>202.7</course>
  <speed>0.13</speed>
  <fix>3d</fix>
</trkpt>
<trkpt lat="40.0741964" lon="-105.2300755">
  <ele>1606.08</ele>
  <time>2026-08-28T19:07:44Z</time>
  <course>12.87</course>
  <speed>0.06403124237432849</speed>
  <fix>3d</fix>
</trkpt>
<trkpt lat="40.0741964" lon="-105.2300752">
  <ele>1605.97</ele>
  <time>2026-08-28T19:07:44Z</time>
  <course>204.9</course>
  <speed>0.1</speed>
  <fix>3d</fix>
</trkpt>
<trkpt lat="40.0741964" lon="-105.2300755">
  <ele>1606.09</ele>
  <time>2026-08-28T19:07:44Z</time>
  <course>12.64</course>
  <speed>0.01</speed>
  <fix>3d</fix>
</trkpt>
<trkpt lat="40.0741963" lon="-105.2300753">
  <ele>1605.98</ele>
  <time>2026-08-28T19:07:44Z</time>
  <course>200.77</course>
  <speed>0.05</speed>
  <fix>3d</fix>
</trkpt>
<trkpt lat="40.0741964" lon="-105.2300755">
  <ele>1606.13</ele>
  <time>2026-08-28T19:07:44Z</time>
  <course>12.44</course>
  <speed>0.0670820393249937</speed>
  <fix>3d</fix>
</trkpt>
<trkpt lat="40.0741962" lon="-105.2300753">
  <ele>1606.01</ele>
  <time>2026-08-28T19:07:44Z</time>
  <course>67.73</course>
  <speed>0.02</speed>
  <fix>3d</fix>
</trkpt>
<trkpt lat="40.0741965" lon="-105.2300753">
  <ele>1606.18</ele>
  <time>2026-08-28T19:07:44Z</time>
  <course>12.29</course>
  <speed>0.16124515496597097</speed>
  <fix>3d</fix>
</trkpt>
<trkpt lat="40.0741962" lon="-105.2300753">
  <ele>1606.05</ele>
  <time>2026-08-28T19:07:44Z</time>
  <course>41.25</course>
  <speed>0.1</speed>
  <fix>3d</fix>
</trkpt>
<trkpt lat="40.0741968" lon="-105.230075">
  <ele>1606.26</ele>
  <time>2026-08-28T19:07:44Z</time>
  <course>12.19</course>
  <speed>0.24698178070456936</speed>
  <fix>3d</fix>
</trkpt>
<trkpt lat="40.0741964" lon="-105.2300751">
  <ele>1606.11</ele>
  <time>2026-08-28T19:07:44Z</time>
  <course>37.55</course>
  <speed>0.19</speed>
  <fix>3d</fix>
</trkpt>
<trkpt lat="40.0741972" lon="-105.2300746">
  <ele>1606.34</ele>
  <time>2026-08-28T19:07:44Z</time>
  <course>12.16</course>
  <speed>0.327566787083184</speed>
  <fix>3d</fix>
</trkpt>
<trkpt lat="40.0741967" lon="-105.2300748">
  <ele>1606.19</ele>
  <time>2026-08-28T19:07:44Z</time>
  <course>36.03</course>
  <speed>0.27</speed>
  <fix>3d</fix>
</trkpt>
<trkpt lat="40.0741977" lon="-105.2300742">
  <ele>1606.44</ele>
  <time>2026-08-28T19:07:44Z</time>
  <course>12.08</course>
  <speed>0.3996248240537617</speed>
  <fix>3d</fix>
</trkpt>
<trkpt lat="40.0741972" lon="-105.2300743">
  <ele>1606.28</ele>
  <time>2026-08-28T19:07:44Z</time>
  <course>35.53</course>
  <speed>0.35</speed>
  <fix>3d</fix>
</trkpt>
<trkpt lat="40.0741983" lon="-105.2300736">
  <ele>1606.55</ele>
  <time>2026-08-28T19:07:44Z</time>
  <course>12.01</course>
  <speed>0.47707441767506253</speed>
  <fix>3d</fix>
</trkpt>
<trkpt lat="40.0741978" lon="-105.2300737">
  <ele>1606.38</ele>
  <time>2026-08-28T19:07:44Z</time>
  <course>35.69</course>
  <speed>0.43</speed>
  <fix>3d</fix>
</trkpt>
<trkpt lat="40.0741991" lon="-105.2300728">
  <ele>1606.67</ele>
  <time>2026-08-28T19:07:44Z</time>
  <course>11.98</course>
  <speed>0.54644304369257</speed>
  <fix>3d</fix>
</trkpt>
<trkpt lat="40.0741985" lon="-105.2300731">
  <ele>1606.5</ele>
  <time>2026-08-28T19:07:44Z</time>
  <course>36.23</course>
  <speed>0.5</speed>
  <fix>3d</fix>
</trkpt>
<trkpt lat="40.0741999" lon="-105.230072">
  <ele>1606.8</ele>
  <time>2026-08-28T19:07:44Z</time>
  <course>11.93</course>
  <speed>0.6161168720299746</speed>
  <fix>3d</fix>
</trkpt>
<trkpt lat="40.0741993" lon="-105.2300724">
  <ele>1606.62</ele>
  <time>2026-08-28T19:07:44Z</time>
  <course>37.03</course>
  <speed>0.57</speed>
  <fix>3d</fix>
</trkpt>
<trkpt lat="40.0742008" lon="-105.2300711">
  <ele>1606.94</ele>
  <time>2026-08-28T19:07:44Z</time>
  <course>11.89</course>
  <speed>0.6780117993073571</speed>
  <fix>3d</fix>
</trkpt>
<trkpt lat="40.0742001" lon="-105.2300715">
  <ele>1606.74</ele>
  <time>2026-08-28T19:07:44Z</time>
  <course>37.98</course>
  <speed>0.64</speed>
  <fix>3d</fix>
</trkpt>
<trkpt lat="40.0742018" lon="-105.23007">
  <ele>1607.08</ele>
  <time>2026-08-28T19:07:44Z</time>
  <course>11.82</course>
  <speed>0.7402702209328699</speed>
  <fix>3d</fix>
</trkpt>
<trkpt lat="40.074201" lon="-105.2300705">
  <ele>1606.88</ele>
  <time>2026-08-28T19:07:44Z</time>
  <course>39.0</course>
  <speed>0.71</speed>
  <fix>3d</fix>
</trkpt>
<trkpt lat="40.0742028" lon="-105.2300688">
  <ele>1607.23</ele>
  <time>2026-08-28T19:07:44Z</time>
  <course>11.76</course>
  <speed>0.7951100552753688</speed>
  <fix>3d</fix>
</trkpt>
<trkpt lat="40.0742021" lon="-105.2300693">
  <ele>1607.02</ele>
  <time>2026-08-28T19:07:44Z</time>
  <course>40.12</course>
  <speed>0.77</speed>
  <fix>3d</fix>
</trkpt>
<trkpt lat="40.074204" lon="-105.2300675">
  <ele>1607.4</ele>
  <time>2026-08-28T19:07:44Z</time>
  <course>11.68</course>
  <speed>0.850411665018772</speed>
  <fix>3d</fix>
</trkpt>
<trkpt lat="40.0742032" lon="-105.2300682">
  <ele>1607.17</ele>
  <time>2026-08-28T19:07:44Z</time>
  <course>41.31</course>
  <speed>0.82</speed>
  <fix>3d</fix>
</trkpt>
<trkpt lat="40.0742051" lon="-105.2300661">
  <ele>1607.58</ele>
  <time>2026-08-28T19:07:44Z</time>
  <course>11.6</course>
  <speed>0.9060905032059435</speed>
  <fix>3d</fix>
</trkpt>
<trkpt lat="40.0742044" lon="-105.2300669">
  <ele>1607.34</ele>
  <time>2026-08-28T19:07:44Z</time>
  <course>42.52</course>
  <speed>0.88</speed>
  <fix>3d</fix>
</trkpt>
<trkpt lat="40.0742064" lon="-105.2300646">
  <ele>1607.77</ele>
  <time>2026-08-28T19:07:44Z</time>
  <course>11.52</course>
  <speed>0.9620810776644555</speed>
  <fix>3d</fix>
</trkpt>
<trkpt lat="40.0742056" lon="-105.2300654">
  <ele>1607.52</ele>
  <time>2026-08-28T19:07:44Z</time>
  <course>43.73</course>
  <speed>0.93</speed>
  <fix>3d</fix>
</trkpt>
<trkpt lat="40.0742076" lon="-105.2300629">
  <ele>1607.97</ele>
  <time>2026-08-28T19:07:44Z</time>
  <course>11.42</course>
  <speed>1.0111874208078342</speed>
  <fix>3d</fix>
</trkpt>
<trkpt lat="40.0742068" lon="-105.2300638">
  <ele>1607.7</ele>
  <time>2026-08-28T19:07:44Z</time>
  <course>44.93</course>
  <speed>0.99</speed>
  <fix>3d</fix>
</trkpt>
<trkpt lat="40.074209" lon="-105.2300612">
  <ele>1608.18</ele>
  <time>2026-08-28T19:07:44Z</time>
  <course>20.24</course>
  <speed>1.0473776778220931</speed>
  <fix>3d</fix>
</trkpt>
<trkpt lat="40.0742081" lon="-105.2300621">
  <ele>1607.9</ele>
  <time>2026-08-28T19:07:44Z</time>
  <course>44.63</course>
  <speed>1.03</speed>
  <fix>3d</fix>
</trkpt>
<trkpt lat="40.0742104" lon="-105.2300594">
  <ele>1608.4</ele>
  <time>2026-08-28T19:07:44Z</time>
  <course>33.2</course>
  <speed>1.1526057435220423</speed>
  <fix>3d</fix>
</trkpt>
<trkpt lat="40.0742094" lon="-105.2300603">
  <ele>1608.12</ele>
  <time>2026-08-28T19:07:44Z</time>
  <course>44.82</course>
  <speed>1.09</speed>
  <fix>3d</fix>
</trkpt>
<trkpt lat="40.0742119" lon="-105.2300573">
  <ele>1608.64</ele>
  <time>2026-08-28T19:07:44Z</time>
  <course>45.05</course>
  <speed>1.2814444974324875</speed>
  <fix>3d</fix>
</trkpt>
<trkpt lat="40.0742109" lon="-105.2300584">
  <ele>1608.34</ele>
  <time>2026-08-28T19:07:44Z</time>
  <course>46.8</course>
  <speed>1.2</speed>
  <fix>3d</fix>
</trkpt>
<trkpt lat="40.0742134" lon="-105.2300548">
  <ele>1608.89</ele>
  <time>2026-08-28T19:07:44Z</time>
  <course>48.89</course>
  <speed>1.4276203977248294</speed>
  <fix>3d</fix>
</trkpt>
<trkpt lat="40.0742124" lon="-105.2300561">
  <ele>1608.58</ele>
  <time>2026-08-28T19:07:44Z</time>
  <course>49.42</course>
  <speed>1.33</speed>
  <fix>3d</fix>
</trkpt>
<trkpt lat="40.0742151" lon="-105.2300521">
  <ele>1609.16</ele>
  <time>2026-08-28T19:07:44Z</time>
  <course>49.51</course>
  <speed>1.5430165261590687</speed>
  <fix>3d</fix>
</trkpt>
<trkpt lat="40.074214" lon="-105.2300536">
  <ele>1608.84</ele>
  <time>2026-08-28T19:07:44Z</time>
  <course>51.43</course>
  <speed>1.47</speed>
  <fix>3d</fix>
</trkpt>
<trkpt lat="40.0742169" lon="-105.2300491">
  <ele>1609.46</ele>
  <time>2026-08-28T19:07:44Z</time>
  <course>49.44</course>
  <speed>1.642954655491137</speed>
  <fix>3d</fix>
</trkpt>
<trkpt lat="40.0742157" lon="-105.2300507">
  <ele>1609.12</ele>
  <time>2026-08-28T19:07:44Z</time>
  <course>51.94</course>
  <speed>1.59</speed>
  <fix>3d</fix>
</trkpt>
<trkpt lat="40.0742188" lon="-105.230046">
  <ele>1609.77</ele>
  <time>2026-08-28T19:07:44Z</time>
  <course>49.39</course>
  <speed>1.7147886167105262</speed>
  <fix>3d</fix>
</trkpt>
<trkpt lat="40.0742175" lon="-105.2300477">
  <ele>1609.41</ele>
  <time>2026-08-28T19:07:44Z</time>
  <course>52.07</course>
  <speed>1.67</speed>
  <fix>3d</fix>
</trkpt>
<trkpt lat="40.0742207" lon="-105.2300427">
  <ele>1610.09</ele>
  <time>2026-08-28T19:07:44Z</time>
  <course>49.65</course>
  <speed>1.774288589829738</speed>
  <fix>3d</fix>
</trkpt>
<trkpt lat="40.0742194" lon="-105.2300445">
  <ele>1609.72</ele>
  <time>2026-08-28T19:07:44Z</time>
  <course>52.31</course>
  <speed>1.74</speed>
  <fix>3d</fix>
</trkpt>
<trkpt lat="40.0742227" lon="-105.2300393">
  <ele>1610.44</ele>
  <time>2026-08-28T19:07:44Z</time>
  <course>50.19</course>
  <speed>1.8340392580312996</speed>
  <fix>3d</fix>
</trkpt>
<trkpt lat="40.0742214" lon="-105.2300413">
  <ele>1610.05</ele>
  <time>2026-08-28T19:07:44Z</time>
  <course>52.8</course>
  <speed>1.8</speed>
  <fix>3d</fix>
</trkpt>
<trkpt lat="40.0742246" lon="-105.2300357">
  <ele>1610.8</ele>
  <time>2026-08-28T19:07:44Z</time>
  <course>50.88</course>
  <speed>1.8880677953929514</speed>
  <fix>3d</fix>
</trkpt>
<trkpt lat="40.0742233" lon="-105.2300378">
  <ele>1610.39</ele>
  <time>2026-08-28T19:07:44Z</time>
  <course>53.48</course>
  <speed>1.86</speed>
  <fix>3d</fix>
</trkpt>
<trkpt lat="40.0742267" lon="-105.2300321">
  <ele>1611.18</ele>
  <time>2026-08-28T19:07:44Z</time>
  <course>51.58</course>
  <speed>1.9483326204732085</speed>
  <fix>3d</fix>
</trkpt>
<trkpt lat="40.0742254" lon="-105.2300342">
  <ele>1610.76</ele>
  <time>2026-08-28T19:07:44Z</time>
  <course>54.24</course>
  <speed>1.92</speed>
  <fix>3d</fix>
</trkpt>
<trkpt lat="40.0742287" lon="-105.2300283">
  <ele>1611.57</ele>
  <time>2026-08-28T19:07:44Z</time>
  <course>52.24</course>
  <speed>2.003022715797302</speed>
  <fix>3d</fix>
</trkpt>
<trkpt lat="40.0742274" lon="-105.2300305">
  <ele>1611.14</ele>
  <time>2026-08-28T19:07:44Z</time>
  <course>55.0</course>
  <speed>1.98</speed>
  <fix>3d</fix>
</trkpt>
<trkpt lat="40.0742307" lon="-105.2300243">
  <ele>1612.0</ele>
  <time>2026-08-28T19:07:45Z</time>
  <course>52.86</course>
  <speed>2.0663252406143617</speed>
  <fix>3d</fix>
</trkpt>
<trkpt lat="40.0742294" lon="-105.2300266">
  <ele>1611.55</ele>
  <time>2026-08-28T19:07:45Z</time>
  <course>55.74</course>
  <speed>2.03</speed>
  <fix>3d</fix>
</trkpt>
<trkpt lat="40.0742328" lon="-105.2300202">
  <ele>1612.44</ele>
  <time>2026-08-28T19:07:45Z</time>
  <course>53.48</course>
  <speed>2.1300938946440833</speed>
  <fix>3d</fix>
</trkpt>
<trkpt lat="40.0742315" lon="-105.2300225">
  <ele>1611.97</ele>
  <time>2026-08-28T19:07:45Z</time>
  <course>56.46</course>
  <speed>2.1</speed>
  <fix>3d</fix>
</trkpt>
<trkpt lat="40.0742349" lon="-105.2300158">
  <ele>1612.89</ele>
  <time>2026-08-28T19:07:45Z</time>
  <course>54.08</course>
  <speed>2.199681795169474</speed>
  <fix>3d</fix>
</trkpt>
<trkpt lat="40.0742336" lon="-105.2300183">
  <ele>1612.41</ele>
  <time>2026-08-28T19:07:45Z</time>
  <course>57.19</course>
  <speed>2.16</speed>
  <fix>3d</fix>
</trkpt>
<trkpt lat="40.0742371" lon="-105.2300114">
  <ele>1613.36</ele>
  <time>2026-08-28T19:07:45Z</time>
  <course>54.77</course>
  <speed>2.2726416347501863</speed>
  <fix>3d</fix>
</trkpt>
<trkpt lat="40.0742357" lon="-105.230014">
  <ele>1612.87</ele>
  <time>2026-08-28T19:07:45Z</time>
  <course>57.91</course>
  <speed>2.23</speed>
  <fix>3d</fix>
</trkpt>
<trkpt lat="40.0742392" lon="-105.2300067">
  <ele>1613.84</ele>
  <time>2026-08-28T19:07:45Z</time>
  <course>55.57</course>
  <speed>2.3152537657889685</speed>
  <fix>3d</fix>
</trkpt>
<trkpt lat="40.0742379" lon="-105.2300095">
  <ele>1613.35</ele>
  <time>2026-08-28T19:07:45Z</time>
  <course>58.56</course>
  <speed>2.29</speed>
  <fix>3d</fix>
</trkpt>
<trkpt lat="40.0742414" lon="-105.230002">
  <ele>1614.33</ele>
  <time>2026-08-28T19:07:45Z</time>
  <course>56.35</course>
  <speed>2.335851022646778</speed>
  <fix>3d</fix>
</trkpt>
<trkpt lat="40.07424" lon="-105.2300048">
  <ele>1613.83</ele>
  <time>2026-08-28T19:07:45Z</time>
  <course>59.17</course>
  <speed>2.33</speed>
  <fix>3d</fix>
</trkpt>
<trkpt lat="40.0742435" lon="-105.2299972">
  <ele>1614.83</ele>
  <time>2026-08-28T19:07:45Z</time>
  <course>57.21</course>
  <speed>2.343032223423314</speed>
  <fix>3d</fix>
</trkpt>
<trkpt lat="40.0742421" lon="-105.2300001">
  <ele>1614.31</ele>
  <time>2026-08-28T19:07:45Z</time>
  <course>59.84</course>
  <speed>2.35</speed>
  <fix>3d</fix>
</trkpt>
<trkpt lat="40.0742456" lon="-105.2299924">
  <ele>1615.32</ele>
  <time>2026-08-28T19:07:45Z</time>
  <course>58.22</course>
  <speed>2.3544001359157285</speed>
  <fix>3d</fix>
</trkpt>
<trkpt lat="40.0742442" lon="-105.2299953">
  <ele>1614.8</ele>
  <time>2026-08-28T19:07:45Z</time>
  <course>60.64</course>
  <speed>2.36</speed>
  <fix>3d</fix>
</trkpt>
<trkpt lat="40.0742476" lon="-105.2299875">
  <ele>1615.8</ele>
  <time>2026-08-28T19:07:45Z</time>
  <course>59.35</course>
  <speed>2.361800160894228</speed>
  <fix>3d</fix>
</trkpt>
<trkpt lat="40.0742463" lon="-105.2299904">
  <ele>1615.28</ele>
  <time>2026-08-28T19:07:45Z</time>
  <course>61.6</course>
  <speed>2.36</speed>
  <fix>3d</fix>
</trkpt>
<trkpt lat="40.0742495" lon="-105.2299825">
  <ele>1616.28</ele>
  <time>2026-08-28T19:07:45Z</time>
  <course>60.52</course>
  <speed>2.374721036248258</speed>
  <fix>3d</fix>
</trkpt>
<trkpt lat="40.0742483" lon="-105.2299855">
  <ele>1615.76</ele>
  <time>2026-08-28T19:07:45Z</time>
  <course>62.68</course>
  <speed>2.37</speed>
  <fix>3d</fix>
</trkpt>
<trkpt lat="40.0742514" lon="-105.2299775">
  <ele>1616.74</ele>
  <time>2026-08-28T19:07:45Z</time>
  <course>61.68</course>
  <speed>2.383988255004626</speed>
  <fix>3d</fix>
</trkpt>
<trkpt lat="40.0742502" lon="-105.2299804">
  <ele>1616.23</ele>
  <time>2026-08-28T19:07:45Z</time>
  <course>63.8</course>
  <speed>2.38</speed>
  <fix>3d</fix>
</trkpt>
<trkpt lat="40.0742532" lon="-105.2299724">
  <ele>1617.21</ele>
  <time>2026-08-28T19:07:45Z</time>
  <course>62.83</course>
  <speed>2.3942639787625755</speed>
  <fix>3d</fix>
</trkpt>
<trkpt lat="40.074252" lon="-105.2299754">
  <ele>1616.7</ele>
  <time>2026-08-28T19:07:45Z</time>
  <course>64.92</course>
  <speed>2.39</speed>
  <fix>3d</fix>
</trkpt>
<trkpt lat="40.0742549" lon="-105.2299672">
  <ele>1617.68</ele>
  <time>2026-08-28T19:07:45Z</time>
  <course>63.94</course>
  <speed>2.4095020232404867</speed>
  <fix>3d</fix>
</trkpt>
<trkpt lat="40.0742539" lon="-105.2299703">
  <ele>1617.17</ele>
  <time>2026-08-28T19:07:45Z</time>
  <course>66.03</course>
  <speed>2.4</speed>
  <fix>3d</fix>
</trkpt>
<trkpt lat="40.0742566" lon="-105.2299619">
  <ele>1618.16</ele>
  <time>2026-08-28T19:07:45Z</time>
  <course>65.01</course>
  <speed>2.4215697388264497</speed>
  <fix>3d</fix>
</trkpt>
<trkpt lat="40.0742556" lon="-105.2299651">
  <ele>1617.65</ele>
  <time>2026-08-28T19:07:45Z</time>
  <course>67.11</course>
  <speed>2.41</speed>
  <fix>3d</fix>
</trkpt>
<trkpt lat="40.0742582" lon="-105.2299566">
  <ele>1618.64</ele>
  <time>2026-08-28T19:07:45Z</time>
  <course>66.02</course>
  <speed>2.438237068047322</speed>
  <fix>3d</fix>
</trkpt>
<trkpt lat="40.0742573" lon="-105.2299598">
  <ele>1618.13</ele>
  <time>2026-08-28T19:07:45Z</time>
  <course>68.14</course>
  <speed>2.43</speed>
  <fix>3d</fix>
</trkpt>
<trkpt lat="40.0742598" lon="-105.2299512">
  <ele>1619.12</ele>
  <time>2026-08-28T19:07:45Z</time>
  <course>67.04</course>
  <speed>2.455524383914768</speed>
  <fix>3d</fix>
</trkpt>
<trkpt lat="40.0742589" lon="-105.2299544">
  <ele>1618.61</ele>
  <time>2026-08-28T19:07:45Z</time>
  <course>69.14</course>
  <speed>2.44</speed>
  <fix>3d</fix>
</trkpt>
<trkpt lat="40.0742613" lon="-105.2299457">
  <ele>1619.61</ele>
  <time>2026-08-28T19:07:45Z</time>
  <course>68.04</course>
  <speed>2.470080970332754</speed>
  <fix>3d</fix>
</trkpt>
<trkpt lat="40.0742604" lon="-105.2299491">
  <ele>1619.09</ele>
  <time>2026-08-28T19:07:45Z</time>
  <course>70.12</course>
  <speed>2.46</speed>
  <fix>3d</fix>
</trkpt>
<trkpt lat="40.0742628" lon="-105.2299402">
  <ele>1620.09</ele>
  <time>2026-08-28T19:07:45Z</time>
  <course>69.01</course>
  <speed>2.4981993515330196</speed>
  <fix>3d</fix>
</trkpt>
<trkpt lat="40.0742618" lon="-105.2299436">
  <ele>1619.57</ele>
  <time>2026-08-28T19:07:45Z</time>
  <course>71.09</course>
  <speed>2.48</speed>
  <fix>3d</fix>
</trkpt>
<trkpt lat="40.0742642" lon="-105.2299346">
  <ele>1620.58</ele>
  <time>2026-08-28T19:07:45Z</time>
  <course>69.97</course>
  <speed>2.5269942619642016</speed>
  <fix>3d</fix>
</trkpt>
<trkpt lat="40.0742633" lon="-105.2299381">
  <ele>1620.05</ele>
  <time>2026-08-28T19:07:45Z</time>
  <course>72.03</course>
  <speed>2.5</speed>
  <fix>3d</fix>
</trkpt>
<trkpt lat="40.0742655" lon="-105.2299289">
  <ele>1621.06</ele>
  <time>2026-08-28T19:07:45Z</time>
  <course>70.91</course>
  <speed>2.5564428411368794</speed>
  <fix>3d</fix>
</trkpt>
<trkpt lat="40.0742646" lon="-105.2299324">
  <ele>1620.53</ele>
  <time>2026-08-28T19:07:45Z</time>
  <course>72.96</course>
  <speed>2.52</speed>
  <fix>3d</fix>
</trkpt>
<trkpt lat="40.0742668" lon="-105.2299231">
  <ele>1621.54</ele>
  <time>2026-08-28T19:07:45Z</time>
  <course>71.82</course>
  <speed>2.5865227623200995</speed>
  <fix>3d</fix>
</trkpt>
<trkpt lat="40.0742659" lon="-105.2299267">
  <ele>1621.02</ele>
  <time>2026-08-28T19:07:45Z</time>
  <course>73.86</course>
  <speed>2.55</speed>
  <fix>3d</fix>
</trkpt>
<trkpt lat="40.074268" lon="-105.2299172">
  <ele>1622.03</ele>
  <time>2026-08-28T19:07:45Z</time>
  <course>72.69</course>
  <speed>2.6172122573455905</speed>
  <fix>3d</fix>
</trkpt>
<trkpt lat="40.0742672" lon="-105.2299209">
  <ele>1621.5</ele>
  <time>2026-08-28T19:07:45Z</time>
  <course>74.74</course>
  <speed>2.58</speed>
  <fix>3d</fix>
</trkpt>
<trkpt lat="40.0742691" lon="-105.2299112">
  <ele>1622.52</ele>
  <time>2026-08-28T19:07:45Z</time>
  <course>73.56</course>
  <speed>2.660620228442985</speed>
  <fix>3d</fix>
</trkpt>
<trkpt lat="40.0742684" lon="-105.229915">
  <ele>1621.98</ele>
  <time>2026-08-28T19:07:45Z</time>
  <course>75.61</course>
  <speed>2.62</speed>
  <fix>3d</fix>
</trkpt>
<trkpt lat="40.0742703" lon="-105.229905">
  <ele>1623.02</ele>
  <time>2026-08-28T19:07:45Z</time>
  <course>74.43</course>
  <speed>2.702091782304961</speed>
  <fix>3d</fix>
</trkpt>
<trkpt lat="40.0742695" lon="-105.2299089">
  <ele>1622.47</ele>
  <time>2026-08-28T19:07:45Z</time>
  <course>76.47</course>
  <speed>2.66</speed>
  <fix>3d</fix>
</trkpt>
<trkpt lat="40.0742713" lon="-105.2298988">
  <ele>1623.51</ele>
  <time>2026-08-28T19:07:45Z</time>
  <course>75.3</course>
  <speed>2.753942628305826</speed>
  <fix>3d</fix>
</trkpt>
<trkpt lat="40.0742706" lon="-105.2299028">
  <ele>1622.96</ele>
  <time>2026-08-28T19:07:45Z</time>
  <course>77.35</course>
  <speed>2.71</speed>
  <fix>3d</fix>
</trkpt>
<trkpt lat="40.0742723" lon="-105.2298924">
  <ele>1624.0</ele>
  <time>2026-08-28T19:07:45Z</time>
  <course>76.22</course>
  <speed>2.804460732476032</speed>
  <fix>3d</fix>
</trkpt>
<trkpt lat="40.0742717" lon="-105.2298965">
  <ele>1623.45</ele>
  <time>2026-08-28T19:07:45Z</time>
  <course>78.24</course>
  <speed>2.76</speed>
  <fix>3d</fix>
</trkpt>
<trkpt lat="40.0742733" lon="-105.2298859">
  <ele>1624.49</ele>
  <time>2026-08-28T19:07:45Z</time>
  <course>77.15</course>
  <speed>2.857708872506085</speed>
  <fix>3d</fix>
</trkpt>
<trkpt lat="40.0742726" lon="-105.2298901">
  <ele>1623.94</ele>
  <time>2026-08-28T19:07:45Z</time>
  <course>79.15</course>
  <speed>2.81</speed>
  <fix>3d</fix>
</trkpt>
<trkpt lat="40.0742742" lon="-105.2298792">
  <ele>1624.98</ele>
  <time>2026-08-28T19:07:45Z</time>
  <course>78.1</course>
  <speed>2.9197260145431456</speed>
  <fix>3d</fix>
</trkpt>
<trkpt lat="40.0742736" lon="-105.2298835">
  <ele>1624.42</ele>
  <time>2026-08-28T19:07:45Z</time>
  <course>80.11</course>
  <speed>2.86</speed>
  <fix>3d</fix>
</trkpt>
<trkpt lat="40.074275" lon="-105.2298724">
  <ele>1625.47</ele>
  <time>2026-08-28T19:07:45Z</time>
  <course>79.11</course>
  <speed>2.982633064927699</speed>
  <fix>3d</fix>
</trkpt>
<trkpt lat="40.0742743" lon="-105.2298768">
  <ele>1624.91</ele>
  <time>2026-08-28T19:07:45Z</time>
  <course>81.11</course>
  <speed>2.93</speed>
  <fix>3d</fix>
</trkpt>
<trkpt lat="40.0742757" lon="-105.2298655">
  <ele>1625.97</ele>
  <time>2026-08-28T19:07:45Z</time>
  <course>80.19</course>
  <speed>3.054995908344232</speed>
  <fix>3d</fix>
</trkpt>
<trkpt lat="40.0742752" lon="-105.22987">
  <ele>1625.4</ele>
  <time>2026-08-28T19:07:45Z</time>
  <course>82.16</course>
  <speed>3.0</speed>
  <fix>3d</fix>
</trkpt>
<trkpt lat="40.0742763" lon="-105.2298583">
  <ele>1626.46</ele>
  <time>2026-08-28T19:07:45Z</time>
  <course>81.27</course>
  <speed>3.128530006248941</speed>
  <fix>3d</fix>
</trkpt>
<trkpt lat="40.0742759" lon="-105.2298629">
  <ele>1625.89</ele>
  <time>2026-08-28T19:07:45Z</time>
  <course>83.24</course>
  <speed>3.07</speed>
  <fix>3d</fix>
</trkpt>
<trkpt lat="40.0742769" lon="-105.2298509">
  <ele>1626.96</ele>
  <time>2026-08-28T19:07:45Z</time>
  <course>82.41</course>
  <speed>3.2122266420662164</speed>
  <fix>3d</fix>
</trkpt>
<trkpt lat="40.0742764" lon="-105.2298556">
  <ele>1626.38</ele>
  <time>2026-08-28T19:07:45Z</time>
  <course>84.38</course>
  <speed>3.15</speed>
  <fix>3d</fix>
</trkpt>
<trkpt lat="40.0742773" lon="-105.2298434">
  <ele>1627.45</ele>
  <time>2026-08-28T19:07:45Z</time>
  <course>83.59</course>
  <speed>3.3073252032420397</speed>
  <fix>3d</fix>
</trkpt>
<trkpt lat="40.0742769" lon="-105.2298481">
  <ele>1626.87</ele>
  <time>2026-08-28T19:07:45Z</time>
  <course>85.56</course>
  <speed>3.24</speed>
  <fix>3d</fix>
</trkpt>
<trkpt lat="40.0742776" lon="-105.2298355">
  <ele>1627.94</ele>
  <time>2026-08-28T19:07:45Z</time>
  <course>84.8</course>
  <speed>3.403307215048327</speed>
  <fix>3d</fix>
</trkpt>
<trkpt lat="40.0742774" lon="-105.2298405">
  <ele>1627.36</ele>
  <time>2026-08-28T19:07:45Z</time>
  <course>86.8</course>
  <speed>3.33</speed>
  <fix>3d</fix>
</trkpt>
<trkpt lat="40.0742778" lon="-105.2298274">
  <ele>1628.42</ele>
  <time>2026-08-28T19:07:45Z</time>
  <course>86.07</course>
  <speed>3.5106979363083917</speed>
  <fix>3d</fix>
</trkpt>
<trkpt lat="40.0742776" lon="-105.2298325">
  <ele>1627.85</ele>
  <time>2026-08-28T19:07:45Z</time>
  <course>88.1</course>
  <speed>3.43</speed>
  <fix>3d</fix>
</trkpt>
<trkpt lat="40.0742778" lon="-105.2298191">
  <ele>1628.91</ele>
  <time>2026-08-28T19:07:45Z</time>
  <course>87.36</course>
  <speed>3.63</speed>
  <fix>3d</fix>
</trkpt>
<trkpt lat="40.0742778" lon="-105.2298242">
  <ele>1628.34</ele>
  <time>2026-08-28T19:07:45Z</time>
  <course>89.44</course>
  <speed>3.54</speed>
  <fix>3d</fix>
</trkpt>
<trkpt lat="40.0742777" lon="-105.2298104">
  <ele>1629.4</ele>
  <time>2026-08-28T19:07:45Z</time>
  <course>88.71</course>
  <speed>3.7513330963805385</speed>
  <fix>3d</fix>
</trkpt>
<trkpt lat="40.0742777" lon="-105.2298158">
  <ele>1628.83</ele>
  <time>2026-08-28T19:07:45Z</time>
  <course>90.84</course>
  <speed>3.66</speed>
  <fix>3d</fix>
</trkpt>
<trkpt lat="40.0742774" lon="-105.2298014">
  <ele>1629.89</ele>
  <time>2026-08-28T19:07:45Z</time>
  <course>90.1</course>
  <speed>3.8951379949881106</speed>
  <fix>3d</fix>
</trkpt>
<trkpt lat="40.0742776" lon="-105.229807">
  <ele>1629.32</ele>
  <time>2026-08-28T19:07:45Z</time>
  <course>92.29</course>
  <speed>3.79</speed>
  <fix>3d</fix>
</trkpt>
<trkpt lat="40.074277" lon="-105.2297921">
  <ele>1630.39</ele>
  <time>2026-08-28T19:07:45Z</time>
  <course>91.54</course>
  <speed>4.042684751498687</speed>
  <fix>3d</fix>
</trkpt>
<trkpt lat="40.0742773" lon="-105.2297979">
  <ele>1629.82</ele>
  <time>2026-08-28T19:07:45Z</time>
  <course>93.79</course>
  <speed>3.93</speed>
  <fix>3d</fix>
</trkpt>
<trkpt lat="40.0742763" lon="-105.2297825">
  <ele>1630.88</ele>
  <time>2026-08-28T19:07:45Z</time>
  <course>93.03</course>
  <speed>4.2140953952182905</speed>
  <fix>3d</fix>
</trkpt>
<trkpt lat="40.0742767" lon="-105.2297886">
  <ele>1630.31</ele>
  <time>2026-08-28T19:07:45Z</time>
  <course>95.34</course>
  <speed>4.09</speed>
  <fix>3d</fix>
</trkpt>
<trkpt lat="40.0742753" lon="-105.2297724">
  <ele>1631.37</ele>
  <time>2026-08-28T19:07:45Z</time>
  <course>94.4</course>
  <speed>4.4010907738877645</speed>
  <fix>3d</fix>
</trkpt>
<trkpt lat="40.0742759" lon="-105.2297789">
  <ele>1630.81</ele>
  <time>2026-08-28T19:07:45Z</time>
  <course>96.97</course>
  <speed>4.26</speed>
  <fix>3d</fix>
</trkpt>
<trkpt lat="40.0742741" lon="-105.229762">
  <ele>1631.86</ele>
  <time>2026-08-28T19:07:45Z</time>
  <course>95.97</course>
  <speed>4.581800955956075</speed>
  <fix>3d</fix>
</trkpt>
<trkpt lat="40.0742749" lon="-105.2297687">
  <ele>1631.3</ele>
  <time>2026-08-28T19:07:45Z</time>
  <course>98.63</course>
  <speed>4.45</speed>
  <fix>3d</fix>
</trkpt>
<trkpt lat="40.0742726" lon="-105.2297513">
  <ele>1632.33</ele>
  <time>2026-08-28T19:07:45Z</time>
  <course>98.18</course>
  <speed>4.704944207958262</speed>
  <fix>3d</fix>
</trkpt>
<trkpt lat="40.0742735" lon="-105.2297582">
  <ele>1631.79</ele>
  <time>2026-08-28T19:07:45Z</time>
  <course>100.22</course>
  <speed>4.62</speed>
  <fix>3d</fix>
</trkpt>
<trkpt lat="40.0742708" lon="-105.2297404">
  <ele>1632.78</ele>
  <time>2026-08-28T19:07:45Z</time>
  <course>100.48</course>
  <speed>4.752946454568997</speed>
  <fix>3d</fix>
</trkpt>
<trkpt lat="40.0742719" lon="-105.2297474">
  <ele>1632.26</ele>
  <time>2026-08-28T19:07:45Z</time>
  <course>101.73</course>
  <speed>4.72</speed>
  <fix>3d</fix>
</trkpt>
<trkpt lat="40.0742688" lon="-105.2297296">
  <ele>1633.21</ele>
  <time>2026-08-28T19:07:45Z</time>
  <course>102.83</course>
  <speed>4.756153908359148</speed>
  <fix>3d</fix>
</trkpt>
<trkpt lat="40.07427" lon="-105.2297365">
  <ele>1632.7</ele>
  <time>2026-08-28T19:07:45Z</time>
  <course>103.3</course>
  <speed>4.76</speed>
  <fix>3d</fix>
</trkpt>
<trkpt lat="40.0742666" lon="-105.2297188">
  <ele>1633.59</ele>
  <time>2026-08-28T19:07:45Z</time>
  <course>105.22</course>
  <speed>4.747209706764596</speed>
  <fix>3d</fix>
</trkpt>
<trkpt lat="40.0742679" lon="-105.2297256">
  <ele>1633.12</ele>
  <time>2026-08-28T19:07:45Z</time>
  <course>105.07</course>
  <speed>4.77</speed>
  <fix>3d</fix>
</trkpt>
<trkpt lat="40.074264" lon="-105.2297082">
  <ele>1633.94</ele>
  <time>2026-08-28T19:07:45Z</time>
  <course>107.69</course>
  <speed>4.718135224853141</speed>
  <fix>3d</fix>
</trkpt>
<trkpt lat="40.0742656" lon="-105.2297148">
  <ele>1633.5</ele>
  <time>2026-08-28T19:07:45Z</time>
  <course>107.05</course>
  <speed>4.75</speed>
  <fix>3d</fix>
</trkpt>
<trkpt lat="40.0742612" lon="-105.2296977">
  <ele>1634.25</ele>
  <time>2026-08-28T19:07:45Z</time>
  <course>110.19</course>
  <speed>4.695700160785396</speed>
  <fix>3d</fix>
</trkpt>
<trkpt lat="40.074263" lon="-105.2297043">
  <ele>1633.84</ele>
  <time>2026-08-28T19:07:45Z</time>
  <course>109.16</course>
  <speed>4.73</speed>
  <fix>3d</fix>
</trkpt>
<trkpt lat="40.0742581" lon="-105.2296874">
  <ele>1634.53</ele>
  <time>2026-08-28T19:07:45Z</time>
  <course>112.68</course>
  <speed>4.661544808322666</speed>
  <fix>3d</fix>
</trkpt>
<trkpt lat="40.07426" lon="-105.2296939">
  <ele>1634.14</ele>
  <time>2026-08-28T19:07:45Z</time>
  <course>111.35</course>
  <speed>4.69</speed>
  <fix>3d</fix>
</trkpt>
<trkpt lat="40.0742547" lon="-105.2296775">
  <ele>1634.78</ele>
  <time>2026-08-28T19:07:45Z</time>
  <course>115.14</course>
  <speed>4.612472222138579</speed>
  <fix>3d</fix>
</trkpt>
<trkpt lat="40.0742568" lon="-105.2296838">
  <ele>1634.41</ele>
  <time>2026-08-28T19:07:45Z</time>
  <course>113.57</course>
  <speed>4.65</speed>
  <fix>3d</fix>
</trkpt>
<trkpt lat="40.074251" lon="-105.2296677">
  <ele>1635.0</ele>
  <time>2026-08-28T19:07:45Z</time>
  <course>117.52</course>
  <speed>4.570700165182573</speed>
  <fix>3d</fix>
</trkpt>
<trkpt lat="40.0742533" lon="-105.2296739">
  <ele>1634.65</ele>
  <time>2026-08-28T19:07:45Z</time>
  <course>115.78</course>
  <speed>4.61</speed>
  <fix>3d</fix>
</trkpt>
<trkpt lat="40.0742471" lon="-105.2296583">
  <ele>1635.19</ele>
  <time>2026-08-28T19:07:45Z</time>
  <course>119.82</course>
  <speed>4.526212544722132</speed>
  <fix>3d</fix>
</trkpt>
<trkpt lat="40.0742496" lon="-105.2296643">
  <ele>1634.87</ele>
  <time>2026-08-28T19:07:45Z</time>
  <course>117.94</course>
  <speed>4.56</speed>
  <fix>3d</fix>
</trkpt>
<trkpt lat="40.0742431" lon="-105.2296492">
  <ele>1635.37</ele>
  <time>2026-08-28T19:07:45Z</time>
  <course>121.99</course>
  <speed>4.4830569927227115</speed>
  <fix>3d</fix>
</trkpt>
<trkpt lat="40.0742456" lon="-105.2296549">
  <ele>1635.07</ele>
  <time>2026-08-28T19:07:45Z</time>
  <course>120.03</course>
  <speed>4.51</speed>
  <fix>3d</fix>
</trkpt>
<trkpt lat="40.0742388" lon="-105.2296403">
  <ele>1635.54</ele>
  <time>2026-08-28T19:07:45Z</time>
  <course>124.03</course>
  <speed>4.4433433358227</speed>
  <fix>3d</fix>
</trkpt>
<trkpt lat="40.0742415" lon="-105.2296459">
  <ele>1635.25</ele>
  <time>2026-08-28T19:07:45Z</time>
  <course>122.01</course>
  <speed>4.47</speed>
  <fix>3d</fix>
</trkpt>
<trkpt lat="40.0742343" lon="-105.2296316">
  <ele>1635.69</ele>
  <time>2026-08-28T19:07:45Z</time>
  <course>125.89</course>
  <speed>4.410759571774458</speed>
  <fix>3d</fix>
</trkpt>
<trkpt lat="40.0742371" lon="-105.2296371">
  <ele>1635.41</ele>
  <time>2026-08-28T19:07:45Z</time>
  <course>123.86</course>
  <speed>4.43</speed>
  <fix>3d</fix>
</trkpt>
<trkpt lat="40.0742297" lon="-105.2296232">
  <ele>1635.82</ele>
  <time>2026-08-28T19:07:45Z</time>
  <course>127.61</course>
  <speed>4.384164686687762</speed>
  <fix>3d</fix>
</trkpt>
<trkpt lat="40.0742326" lon="-105.2296285">
  <ele>1635.56</ele>
  <time>2026-08-28T19:07:45Z</time>
  <course>125.53</course>
  <speed>4.4</speed>
  <fix>3d</fix>
</trkpt>
<trkpt lat="40.0742249" lon="-105.2296151">
  <ele>1635.92</ele>
  <time>2026-08-28T19:07:45Z</time>
  <course>129.11</course>
  <speed>4.376528304489758</speed>
  <fix>3d</fix>
</trkpt>
<trkpt lat="40.0742279" lon="-105.2296202">
  <ele>1635.69</ele>
  <time>2026-08-28T19:07:45Z</time>
  <course>127.04</course>
  <speed>4.38</speed>
  <fix>3d</fix>
</trkpt>
<trkpt lat="40.07422" lon="-105.229607">
  <ele>1636.01</ele>
  <time>2026-08-28T19:07:45Z</time>
  <course>130.42</course>
  <speed>4.372928080817245</speed>
  <fix>3d</fix>
</trkpt>
<trkpt lat="40.0742231" lon="-105.2296121">
  <ele>1635.8</ele>
  <time>2026-08-28T19:07:45Z</time>
  <course>128.37</course>
  <speed>4.37</speed>
  <fix>3d</fix>
</trkpt>
<trkpt lat="40.074215" lon="-105.2295991">
  <ele>1636.09</ele>
  <time>2026-08-28T19:07:45Z</time>
  <course>131.58</course>
  <speed>4.3865704143442175</speed>
  <fix>3d</fix>
</trkpt>
<trkpt lat="40.0742182" lon="-105.2296041">
  <ele>1635.89</ele>
  <time>2026-08-28T19:07:45Z</time>
  <course>129.52</course>
  <speed>4.37</speed>
  <fix>3d</fix>
</trkpt>
<trkpt lat="40.0742099" lon="-105.2295912">
  <ele>1636.15</ele>
  <time>2026-08-28T19:07:45Z</time>
  <course>132.53</course>
  <speed>4.416752200429633</speed>
  <fix>3d</fix>
</trkpt>
<trkpt lat="40.0742131" lon="-105.2295963">
  <ele>1635.96</ele>
  <time>2026-08-28T19:07:45Z</time>
  <course>130.49</course>
  <speed>4.39</speed>
  <fix>3d</fix>
</trkpt>
<trkpt lat="40.0742046" lon="-105.2295834">
  <ele>1636.19</ele>
  <time>2026-08-28T19:07:45Z</time>
  <course>133.33</course>
  <speed>4.448752634166121</speed>
  <fix>3d</fix>
</trkpt>
<trkpt lat="40.0742079" lon="-105.2295885">
  <ele>1636.02</ele>
  <time>2026-08-28T19:07:45Z</time>
  <course>131.31</course>
  <speed>4.42</speed>
  <fix>3d</fix>
</trkpt>
<trkpt lat="40.0741993" lon="-105.2295756">
  <ele>1636.21</ele>
  <time>2026-08-28T19:07:45Z</time>
  <course>133.99</course>
  <speed>4.517012286899384</speed>
  <fix>3d</fix>
</trkpt>
<trkpt lat="40.0742025" lon="-105.2295806">
  <ele>1636.06</ele>
  <time>2026-08-28T19:07:45Z</time>
  <course>131.97</course>
  <speed>4.47</speed>
  <fix>3d</fix>
</trkpt>
<trkpt lat="40.0741937" lon="-105.2295678">
  <ele>1636.21</ele>
  <time>2026-08-28T19:07:45Z</time>
  <course>134.53</course>
  <speed>4.578962764644412</speed>
  <fix>3d</fix>
</trkpt>
<trkpt lat="40.0741971" lon="-105.2295728">
  <ele>1636.08</ele>
  <time>2026-08-28T19:07:45Z</time>
  <course>132.52</course>
  <speed>4.53</speed>
  <fix>3d</fix>
</trkpt>
<trkpt lat="40.0741881" lon="-105.2295598">
  <ele>1636.2</ele>
  <time>2026-08-28T19:07:45Z</time>
  <course>135.1</course>
  <speed>4.6768044645890425</speed>
  <fix>3d</fix>
</trkpt>
<trkpt lat="40.0741916" lon="-105.2295649">
  <ele>1636.08</ele>
  <time>2026-08-28T19:07:45Z</time>
  <course>132.97</course>
  <speed>4.6</speed>
  <fix>3d</fix>
</trkpt>
<trkpt lat="40.0741822" lon="-105.2295518">
  <ele>1636.16</ele>
  <time>2026-08-28T19:07:45Z</time>
  <course>135.36</course>
  <speed>4.803550770003373</speed>
  <fix>3d</fix>
</trkpt>
<trkpt lat="40.0741859" lon="-105.229557">
  <ele>1636.06</ele>
  <time>2026-08-28T19:07:45Z</time>
  <course>133.31</course>
  <speed>4.71</speed>
  <fix>3d</fix>
</trkpt>
<trkpt lat="40.0741762" lon="-105.2295434">
  <ele>1636.11</ele>
  <time>2026-08-28T19:07:45Z</time>
  <course>135.37</course>
  <speed>5.008313089254704</speed>
  <fix>3d</fix>
</trkpt>
<trkpt lat="40.07418" lon="-105.2295488">
  <ele>1636.02</ele>
  <time>2026-08-28T19:07:45Z</time>
  <course>133.54</course>
  <speed>4.85</speed>
  <fix>3d</fix>
</trkpt>
<trkpt lat="40.0741698" lon="-105.2295347">
  <ele>1636.02</ele>
  <time>2026-08-28T19:07:45Z</time>
  <course>135.17</course>
  <speed>5.241764969931406</speed>
  <fix>3d</fix>
</trkpt>
<trkpt lat="40.0741738" lon="-105.2295403">
  <ele>1635.96</ele>
  <time>2026-08-28T19:07:45Z</time>
  <course>133.63</course>
  <speed>5.06</speed>
  <fix>3d</fix>
</trkpt>
<trkpt lat="40.0741632" lon="-105.2295255">
  <ele>1635.93</ele>
  <time>2026-08-28T19:07:45Z</time>
  <course>134.73</course>
  <speed>5.503907702714499</speed>
  <fix>3d</fix>
</trkpt>
<trkpt lat="40.0741673" lon="-105.2295316">
  <ele>1635.87</ele>
  <time>2026-08-28T19:07:45Z</time>
  <course>133.58</course>
  <speed>5.31</speed>
  <fix>3d</fix>
</trkpt>
<trkpt lat="40.0741562" lon="-105.2295159">
  <ele>1635.82</ele>
  <time>2026-08-28T19:07:45Z</time>
  <course>134.47</course>
  <speed>5.745119668031293</speed>
  <fix>3d</fix>
</trkpt>
<trkpt lat="40.0741606" lon="-105.2295223">
  <ele>1635.78</ele>
  <time>2026-08-28T19:07:45Z</time>
  <course>133.43</course>
  <speed>5.56</speed>
  <fix>3d</fix>
</trkpt>
<trkpt lat="40.0741491" lon="-105.229506">
  <ele>1635.71</ele>
  <time>2026-08-28T19:07:45Z</time>
  <course>134.41</course>
  <speed>5.887478237751711</speed>
  <fix>3d</fix>
</trkpt>
<trkpt lat="40.0741536" lon="-105.2295126">
  <ele>1635.67</ele>
  <time>2026-08-28T19:07:45Z</time>
  <course>133.2</course>
  <speed>5.78</speed>
  <fix>3d</fix>
</trkpt>
<trkpt lat="40.0741419" lon="-105.2294958">
  <ele>1635.58</ele>
  <time>2026-08-28T19:07:45Z</time>
  <course>134.61</course>
  <speed>5.979607010498265</speed>
  <fix>3d</fix>
</trkpt>
<trkpt lat="40.0741465" lon="-105.2295025">
  <ele>1635.56</ele>
  <time>2026-08-28T19:07:45Z</time>
  <course>133.01</course>
  <speed>5.92</speed>
  <fix>3d</fix>
</trkpt>
<trkpt lat="40.0741345" lon="-105.2294855">
  <ele>1635.44</ele>
  <time>2026-08-28T19:07:45Z</time>
  <course>135.01</course>
  <speed>6.021469920210512</speed>
  <fix>3d</fix>
</trkpt>
<trkpt lat="40.0741392" lon="-105.2294923">
  <ele>1635.44</ele>
  <time>2026-08-28T19:07:45Z</time>
  <course>132.99</course>
  <speed>6.0</speed>
  <fix>3d</fix>
</trkpt>
<trkpt lat="40.0741271" lon="-105.2294752">
  <ele>1635.29</ele>
  <time>2026-08-28T19:07:45Z</time>
  <course>135.59</course>
  <speed>6.041489882471045</speed>
  <fix>3d</fix>
</trkpt>
<trkpt lat="40.0741317" lon="-105.2294819">
  <ele>1635.3</ele>
  <time>2026-08-28T19:07:45Z</time>
  <course>133.19</course>
  <speed>6.04</speed>
  <fix>3d</fix>
</trkpt>
<trkpt lat="40.0741196" lon="-105.229465">
  <ele>1635.1</ele>
  <time>2026-08-28T19:07:45Z</time>
  <course>136.31</course>
  <speed>6.046957912868255</speed>
  <fix>3d</fix>
</trkpt>
<trkpt lat="40.0741243" lon="-105.2294716">
  <ele>1635.14</ele>
  <time>2026-08-28T19:07:45Z</time>
  <course>133.58</course>
  <speed>6.05</speed>
  <fix>3d</fix>
</trkpt>
<trkpt lat="40.074112" lon="-105.2294548">
  <ele>1634.89</ele>
  <time>2026-08-28T19:07:45Z</time>
  <course>137.09</course>
  <speed>6.038956863565097</speed>
  <fix>3d</fix>
</trkpt>
<trkpt lat="40.0741168" lon="-105.2294613">
  <ele>1634.96</ele>
  <time>2026-08-28T19:07:45Z</time>
  <course>134.12</course>
  <speed>6.06</speed>
  <fix>3d</fix>
</trkpt>
<trkpt lat="40.0741043" lon="-105.2294447">
  <ele>1634.65</ele>
  <time>2026-08-28T19:07:45Z</time>
  <course>137.95</course>
  <speed>6.017516098856737</speed>
  <fix>3d</fix>
</trkpt>
<trkpt lat="40.0741091" lon="-105.2294512">
  <ele>1634.75</ele>
  <time>2026-08-28T19:07:45Z</time>
  <course>134.78</course>
  <speed>6.04</speed>
  <fix>3d</fix>
</trkpt>
<trkpt lat="40.0740966" lon="-105.2294349">
  <ele>1634.4</ele>
  <time>2026-08-28T19:07:45Z</time>
  <course>138.89</course>
  <speed>5.983193127419505</speed>
  <fix>3d</fix>
</trkpt>
<trkpt lat="40.0741014" lon="-105.2294412">
  <ele>1634.52</ele>
  <time>2026-08-28T19:07:45Z</time>
  <course>135.53</course>
  <speed>6.01</speed>
  <fix>3d</fix>
</trkpt>
<trkpt lat="40.0740888" lon="-105.2294253">
  <ele>1634.13</ele>
  <time>2026-08-28T19:07:45Z</time>
  <course>139.91</course>
  <speed>5.936168798139082</speed>
  <fix>3d</fix>
</trkpt>
<trkpt lat="40.0740936" lon="-105.2294314">
  <ele>1634.26</ele>
  <time>2026-08-28T19:07:45Z</time>
  <course>136.37</course>
  <speed>5.97</speed>
  <fix>3d</fix>
</trkpt>
<trkpt lat="40.074081" lon="-105.2294159">
  <ele>1633.83</ele>
  <time>2026-08-28T19:07:45Z</time>
  <course>140.94</course>
  <speed>5.883918762185624</speed>
  <fix>3d</fix>
</trkpt>
<trkpt lat="40.0740859" lon="-105.2294219">
  <ele>1633.98</ele>
  <time>2026-08-28T19:07:45Z</time>
  <course>137.3</course>
  <speed>5.92</speed>
  <fix>3d</fix>
</trkpt>
<trkpt lat="40.0740731" lon="-105.2294068">
  <ele>1633.51</ele>
  <time>2026-08-28T19:07:45Z</time>
  <course>141.93</course>
  <speed>5.806212190404343</speed>
  <fix>3d</fix>
</trkpt>
<trkpt lat="40.074078" lon="-105.2294125">
  <ele>1633.68</ele>
  <time>2026-08-28T19:07:45Z</time>
  <course>138.32</course>
  <speed>5.86</speed>
  <fix>3d</fix>
</trkpt>
<trkpt lat="40.0740653" lon="-105.2293981">
  <ele>1633.18</ele>
  <time>2026-08-28T19:07:45Z</time>
  <course>143.24</course>
  <speed>5.651548460377917</speed>
  <fix>3d</fix>
</trkpt>
<trkpt lat="40.0740701" lon="-105.2294035">
  <ele>1633.37</ele>
  <time>2026-08-28T19:07:45Z</time>
  <course>139.38</course>
  <speed>5.76</speed>
  <fix>3d</fix>
</trkpt>
<trkpt lat="40.0740576" lon="-105.2293899">
  <ele>1632.86</ele>
  <time>2026-08-28T19:07:45Z</time>
  <course>144.57</course>
  <speed>5.412993626451079</speed>
  <fix>3d</fix>
</trkpt>
<trkpt lat="40.0740624" lon="-105.229395">
  <ele>1633.05</ele>
  <time>2026-08-28T19:07:45Z</time>
  <course>140.43</course>
  <speed>5.58</speed>
  <fix>3d</fix>
</trkpt>
<trkpt lat="40.0740501" lon="-105.2293822">
  <ele>1632.55</ele>
  <time>2026-08-28T19:07:45Z</time>
  <course>145.88</course>
  <speed>5.112426038584813</speed>
  <fix>3d</fix>
</trkpt>
<trkpt lat="40.0740547" lon="-105.229387">
  <ele>1632.73</ele>
  <time>2026-08-28T19:07:45Z</time>
  <course>141.49</course>
  <speed>5.33</speed>
  <fix>3d</fix>
</trkpt>
<trkpt lat="40.074043" lon="-105.2293752">
  <ele>1632.23</ele>
  <time>2026-08-28T19:07:45Z</time>
  <course>147.21</course>
  <speed>4.784150917352002</speed>
  <fix>3d</fix>
</trkpt>
<trkpt lat="40.0740474" lon="-105.2293794">
  <ele>1632.42</ele>
  <time>2026-08-28T19:07:45Z</time>
  <course>142.66</course>
  <speed>5.03</speed>
  <fix>3d</fix>
</trkpt>
<trkpt lat="40.0740363" lon="-105.2293688">
  <ele>1631.92</ele>
  <time>2026-08-28T19:07:45Z</time>
  <course>148.64</course>
  <speed>4.438603383948604</speed>
  <fix>3d</fix>
</trkpt>
<trkpt lat="40.0740404" lon="-105.2293726">
  <ele>1632.11</ele>
  <time>2026-08-28T19:07:45Z</time>
  <course>143.95</course>
  <speed>4.69</speed>
  <fix>3d</fix>
</trkpt>
<trkpt lat="40.0740299" lon="-105.2293631">
  <ele>1631.6</ele>
  <time>2026-08-28T19:07:45Z</time>
  <course>150.06</course>
  <speed>4.107614879708175</speed>
  <fix>3d</fix>
</trkpt>
<trkpt lat="40.0740337" lon="-105.2293665">
  <ele>1631.8</ele>
  <time>2026-08-28T19:07:45Z</time>
  <course>145.38</course>
  <speed>4.35</speed>
  <fix>3d</fix>
</trkpt>
<trkpt lat="40.0740239" lon="-105.2293581">
  <ele>1631.28</ele>
  <time>2026-08-28T19:07:45Z</time>
  <course>151.5</course>
  <speed>3.807571404451924</speed>
  <fix>3d</fix>
</trkpt>
<trkpt lat="40.0740275" lon="-105.229361">
  <ele>1631.48</ele>
  <time>2026-08-28T19:07:45Z</time>
  <course>146.95</course>
  <speed>4.02</speed>
  <fix>3d</fix>
</trkpt>
<trkpt lat="40.0740182" lon="-105.2293536">
  <ele>1630.96</ele>
  <time>2026-08-28T19:07:45Z</time>
  <course>152.98</course>
  <speed>3.5263862522418044</speed>
  <fix>3d</fix>
</trkpt>
<trkpt lat="40.0740216" lon="-105.2293561">
  <ele>1631.16</ele>
  <time>2026-08-28T19:07:45Z</time>
  <course>148.6</course>
  <speed>3.71</speed>
  <fix>3d</fix>
</trkpt>
<trkpt lat="40.0740129" lon="-105.2293496">
  <ele>1630.65</ele>
  <time>2026-08-28T19:07:45Z</time>
  <course>154.43</course>
  <speed>3.2753625753494835</speed>
  <fix>3d</fix>
</trkpt>
<trkpt lat="40.0740161" lon="-105.2293518">
  <ele>1630.85</ele>
  <time>2026-08-28T19:07:45Z</time>
  <course>150.27</course>
  <speed>3.43</speed>
  <fix>3d</fix>
</trkpt>
<trkpt lat="40.0740078" lon="-105.2293461">
  <ele>1630.33</ele>
  <time>2026-08-28T19:07:45Z</time>
  <course>155.78</course>
  <speed>3.0545867150892936</speed>
  <fix>3d</fix>
</trkpt>
<trkpt lat="40.0740109" lon="-105.2293481">
  <ele>1630.53</ele>
  <time>2026-08-28T19:07:45Z</time>
  <course>151.86</course>
  <speed>3.18</speed>
  <fix>3d</fix>
</trkpt>
<trkpt lat="40.0740031" lon="-105.229343">
  <ele>1630.03</ele>
  <time>2026-08-28T19:07:45Z</time>
  <course>156.97</course>
  <speed>2.8535066146760553</speed>
  <fix>3d</fix>
</trkpt>
<trkpt lat="40.074006" lon="-105.2293448">
  <ele>1630.22</ele>
  <time>2026-08-28T19:07:45Z</time>
  <course>153.32</course>
  <speed>2.96</speed>
  <fix>3d</fix>
</trkpt>
<trkpt lat="40.0739986" lon="-105.2293402">
  <ele>1629.72</ele>
  <time>2026-08-28T19:07:45Z</time>
  <course>157.95</course>
  <speed>2.68895890634275</speed>
  <fix>3d</fix>
</trkpt>
<trkpt lat="40.0740014" lon="-105.2293419">
  <ele>1629.9</ele>
  <time>2026-08-28T19:07:45Z</time>
  <course>154.59</course>
  <speed>2.77</speed>
  <fix>3d</fix>
</trkpt>
<trkpt lat="40.0739943" lon="-105.2293377">
  <ele>1629.41</ele>
  <time>2026-08-28T19:07:45Z</time>
  <course>158.68</course>
  <speed>2.560703028466987</speed>
  <fix>3d</fix>
</trkpt>
<trkpt lat="40.073997" lon="-105.2293392">
  <ele>1629.6</ele>
  <time>2026-08-28T19:07:45Z</time>
  <course>155.62</course>
  <speed>2.61</speed>
  <fix>3d</fix>
</trkpt>
<trkpt lat="40.0739902" lon="-105.2293353">
  <ele>1629.1</ele>
  <time>2026-08-28T19:07:46Z</time>
  <course>159.14</course>
  <speed>2.454159734002659</speed>
  <fix>3d</fix>
</trkpt>
<trkpt lat="40.0739928" lon="-105.2293368">
  <ele>1629.29</ele>
  <time>2026-08-28T19:07:46Z</time>
  <course>156.35</course>
  <speed>2.49</speed>
  <fix>3d</fix>
</trkpt>
<trkpt lat="40.0739863" lon="-105.2293331">
  <ele>1628.8</ele>
  <time>2026-08-28T19:07:46Z</time>
  <course>159.26</course>
  <speed>2.387174061521279</speed>
  <fix>3d</fix>
</trkpt>
<trkpt lat="40.0739888" lon="-105.2293344">
  <ele>1628.99</ele>
  <time>2026-08-28T19:07:46Z</time>
  <course>156.75</course>
  <speed>2.39</speed>
  <fix>3d</fix>
</trkpt>
<trkpt lat="40.0739824" lon="-105.2293309">
  <ele>1628.5</ele>
  <time>2026-08-28T19:07:46Z</time>
  <course>159.04</course>
  <speed>2.3505318547086316</speed>
  <fix>3d</fix>
</trkpt>
<trkpt lat="40.0739849" lon="-105.2293323">
  <ele>1628.69</ele>
  <time>2026-08-28T19:07:46Z</time>
  <course>156.8</course>
  <speed>2.33</speed>
  <fix>3d</fix>
</trkpt>
<trkpt lat="40.0739786" lon="-105.2293287">
  <ele>1628.2</ele>
  <time>2026-08-28T19:07:46Z</time>
  <course>158.53</course>
  <speed>2.336343296692504</speed>
  <fix>3d</fix>
</trkpt>
<trkpt lat="40.0739811" lon="-105.2293301">
  <ele>1628.39</ele>
  <time>2026-08-28T19:07:46Z</time>
  <course>156.53</course>
  <speed>2.3</speed>
  <fix>3d</fix>
</trkpt>
<trkpt lat="40.0739748" lon="-105.2293264">
  <ele>1627.9</ele>
  <time>2026-08-28T19:07:46Z</time>
  <course>157.82</course>
  <speed>2.335551326774901</speed>
  <fix>3d</fix>
</trkpt>
<trkpt lat="40.0739772" lon="-105.229328">
  <ele>1628.09</ele>
  <time>2026-08-28T19:07:46Z</time>
  <course>156.01</course>
  <speed>2.29</speed>
  <fix>3d</fix>
</trkpt>
<trkpt lat="40.0739711" lon="-105.2293241">
  <ele>1627.6</ele>
  <time>2026-08-28T19:07:46Z</time>
  <course>156.95</course>
  <speed>2.3526155657055403</speed>
  <fix>3d</fix>
</trkpt>
<trkpt lat="40.0739735" lon="-105.2293258">
  <ele>1627.79</ele>
  <time>2026-08-28T19:07:46Z</time>
  <course>155.3</course>
  <speed>2.29</speed>
  <fix>3d</fix>
</trkpt>
<trkpt lat="40.0739673" lon="-105.2293218">
  <ele>1627.31</ele>
  <time>2026-08-28T19:07:46Z</time>
  <course>156.04</course>
  <speed>2.383652659260573</speed>
  <fix>3d</fix>
</trkpt>
<trkpt lat="40.0739698" lon="-105.2293234">
  <ele>1627.5</ele>
  <time>2026-08-28T19:07:46Z</time>
  <course>154.51</course>
  <speed>2.32</speed>
  <fix>3d</fix>
</trkpt>
<trkpt lat="40.0739634" lon="-105.2293193">
  <ele>1627.01</ele>
  <time>2026-08-28T19:07:46Z</time>
  <course>155.11</course>
  <speed>2.4196280705926685</speed>
  <fix>3d</fix>
</trkpt>
<trkpt lat="40.073966" lon="-105.229321">
  <ele>1627.2</ele>
  <time>2026-08-28T19:07:46Z</time>
  <course>153.71</course>
  <speed>2.35</speed>
  <fix>3d</fix>
</trkpt>
<trkpt lat="40.0739596" lon="-105.2293167">
  <ele>1626.73</ele>
  <time>2026-08-28T19:07:46Z</time>
  <course>154.29</course>
  <speed>2.4694128856876083</speed>
  <fix>3d</fix>
</trkpt>
<trkpt lat="40.0739621" lon="-105.2293186">
  <ele>1626.91</ele>
  <time>2026-08-28T19:07:46Z</time>
  <course>152.95</course>
  <speed>2.4</speed>
  <fix>3d</fix>
</trkpt>
<trkpt lat="40.0739557" lon="-105.229314">
  <ele>1626.44</ele>
  <time>2026-08-28T19:07:46Z</time>
  <course>153.61</course>
  <speed>2.5059928172283334</speed>
  <fix>3d</fix>
</trkpt>
<trkpt lat="40.0739583" lon="-105.2293159">
  <ele>1626.62</ele>
  <time>2026-08-28T19:07:46Z</time>
  <course>152.3</course>
  <speed>2.44</speed>
  <fix>3d</fix>
</trkpt>
<trkpt lat="40.0739518" lon="-105.2293112">
  <ele>1626.15</ele>
  <time>2026-08-28T19:07:46Z</time>
  <course>153.1</course>
  <speed>2.551568145278507</speed>
  <fix>3d</fix>
</trkpt>
<trkpt lat="40.0739544" lon="-105.2293133">
  <ele>1626.33</ele>
  <time>2026-08-28T19:07:46Z</time>
  <course>151.8</course>
  <speed>2.49</speed>
  <fix>3d</fix>
</trkpt>
<trkpt lat="40.0739478" lon="-105.2293084">
  <ele>1625.86</ele>
  <time>2026-08-28T19:07:46Z</time>
  <course>152.77</course>
  <speed>2.596247291765559</speed>
  <fix>3d</fix>
</trkpt>
<trkpt lat="40.0739504" lon="-105.2293104">
  <ele>1626.04</ele>
  <time>2026-08-28T19:07:46Z</time>
  <course>151.48</course>
  <speed>2.53</speed>
  <fix>3d</fix>
</trkpt>
<trkpt lat="40.0739437" lon="-105.2293055">
  <ele>1625.57</ele>
  <time>2026-08-28T19:07:46Z</time>
  <course>152.63</course>
  <speed>2.623451924468981</speed>
  <fix>3d</fix>
</trkpt>
<trkpt lat="40.0739464" lon="-105.2293075">
  <ele>1625.75</ele>
  <time>2026-08-28T19:07:46Z</time>
  <course>151.33</course>
  <speed>2.58</speed>
  <fix>3d</fix>
</trkpt>
<trkpt lat="40.0739396" lon="-105.2293025">
  <ele>1625.28</ele>
  <time>2026-08-28T19:07:46Z</time>
  <course>152.66</course>
  <speed>2.65452443951831</speed>
  <fix>3d</fix>
</trkpt>
<trkpt lat="40.0739423" lon="-105.2293046">
  <ele>1625.47</ele>
  <time>2026-08-28T19:07:46Z</time>
  <course>151.35</course>
  <speed>2.61</speed>
  <fix>3d</fix>
</trkpt>
<trkpt lat="40.0739355" lon="-105.2292996">
  <ele>1625.0</ele>
  <time>2026-08-28T19:07:46Z</time>
  <course>152.84</course>
  <speed>2.667208278331484</speed>
  <fix>3d</fix>
</trkpt>
<trkpt lat="40.0739382" lon="-105.2293016">
  <ele>1625.18</ele>
  <time>2026-08-28T19:07:46Z</time>
  <course>151.52</course>
  <speed>2.64</speed>
  <fix>3d</fix>
</trkpt>
<trkpt lat="40.0739313" lon="-105.2292967">
  <ele>1624.72</ele>
  <time>2026-08-28T19:07:46Z</time>
  <course>153.2</course>
  <speed>2.6800186566514794</speed>
  <fix>3d</fix>
</trkpt>
<trkpt lat="40.0739339" lon="-105.2292987">
  <ele>1624.9</ele>
  <time>2026-08-28T19:07:46Z</time>
  <course>151.85</course>
  <speed>2.66</speed>
  <fix>3d</fix>
</trkpt>
<trkpt lat="40.073927" lon="-105.2292938">
  <ele>1624.43</ele>
  <time>2026-08-28T19:07:46Z</time>
  <course>153.72</course>
  <speed>2.688289418942834</speed>
  <fix>3d</fix>
</trkpt>
<trkpt lat="40.0739297" lon="-105.2292958">
  <ele>1624.62</ele>
  <time>2026-08-28T19:07:46Z</time>
  <course>152.33</course>
  <speed>2.67</speed>
  <fix>3d</fix>
</trkpt>
<trkpt lat="40.0739227" lon="-105.2292909">
  <ele>1624.15</ele>
  <time>2026-08-28T19:07:46Z</time>
  <course>154.36</course>
  <speed>2.68337474088134</speed>
  <fix>3d</fix>
</trkpt>
<trkpt lat="40.0739254" lon="-105.2292929">
  <ele>1624.33</ele>
  <time>2026-08-28T19:07:46Z</time>
  <course>152.94</course>
  <speed>2.67</speed>
  <fix>3d</fix>
</trkpt>
<trkpt lat="40.0739184" lon="-105.2292882">
  <ele>1623.87</ele>
  <time>2026-08-28T19:07:46Z</time>
  <course>155.12</course>
  <speed>2.6654267950930484</speed>
  <fix>3d</fix>
</trkpt>
<trkpt lat="40.0739211" lon="-105.2292901">
  <ele>1624.05</ele>
  <time>2026-08-28T19:07:46Z</time>
  <course>153.67</course>
  <speed>2.66</speed>
  <fix>3d</fix>
</trkpt>
<trkpt lat="40.0739142" lon="-105.2292855">
  <ele>1623.59</ele>
  <time>2026-08-28T19:07:46Z</time>
  <course>155.98</course>
  <speed>2.643671689147501</speed>
  <fix>3d</fix>
</trkpt>
<trkpt lat="40.0739168" lon="-105.2292873">
  <ele>1623.77</ele>
  <time>2026-08-28T19:07:46Z</time>
  <course>154.5</course>
  <speed>2.65</speed>
  <fix>3d</fix>
</trkpt>
<trkpt lat="40.0739099" lon="-105.229283">
  <ele>1623.3</ele>
  <time>2026-08-28T19:07:46Z</time>
  <course>156.91</course>
  <speed>2.6226894593146177</speed>
  <fix>3d</fix>
</trkpt>
<trkpt lat="40.0739125" lon="-105.2292847">
  <ele>1623.48</ele>
  <time>2026-08-28T19:07:46Z</time>
  <course>155.43</course>
  <speed>2.63</speed>
  <fix>3d</fix>
</trkpt>
<trkpt lat="40.0739056" lon="-105.2292805">
  <ele>1623.02</ele>
  <time>2026-08-28T19:07:46Z</time>
  <course>157.9</course>
  <speed>2.5933183375744675</speed>
  <fix>3d</fix>
</trkpt>
<trkpt lat="40.0739082" lon="-105.2292822">
  <ele>1623.2</ele>
  <time>2026-08-28T19:07:46Z</time>
  <course>156.41</course>
  <speed>2.6</speed>
  <fix>3d</fix>
</trkpt>
<trkpt lat="40.0739013" lon="-105.2292782">
  <ele>1622.73</ele>
  <time>2026-08-28T19:07:46Z</time>
  <course>158.95</course>
  <speed>2.5608201811138556</speed>
  <fix>3d</fix>
</trkpt>
<trkpt lat="40.073904" lon="-105.2292798">
  <ele>1622.91</ele>
  <time>2026-08-28T19:07:46Z</time>
  <course>157.44</course>
  <speed>2.57</speed>
  <fix>3d</fix>
</trkpt>
<trkpt lat="40.0738971" lon="-105.2292761">
  <ele>1622.44</ele>
  <time>2026-08-28T19:07:46Z</time>
  <course>160.0</course>
  <speed>2.529367509872775</speed>
  <fix>3d</fix>
</trkpt>
<trkpt lat="40.0738997" lon="-105.2292775">
  <ele>1622.62</ele>
  <time>2026-08-28T19:07:46Z</time>
  <course>158.49</course>
  <speed>2.54</speed>
  <fix>3d</fix>
</trkpt>
<trkpt lat="40.0738928" lon="-105.229274">
  <ele>1622.14</ele>
  <time>2026-08-28T19:07:46Z</time>
  <course>161.04</course>
  <speed>2.493030284613486</speed>
  <fix>3d</fix>
</trkpt>
<trkpt lat="40.0738954" lon="-105.2292754">
  <ele>1622.33</ele>
  <time>2026-08-28T19:07:46Z</time>
  <course>159.55</course>
  <speed>2.51</speed>
  <fix>3d</fix>
</trkpt>
<trkpt lat="40.0738886" lon="-105.2292721">
  <ele>1621.86</ele>
  <time>2026-08-28T19:07:46Z</time>
  <course>162.07</course>
  <speed>2.4635137507227354</speed>
  <fix>3d</fix>
</trkpt>
<trkpt lat="40.0738912" lon="-105.2292734">
  <ele>1622.04</ele>
  <time>2026-08-28T19:07:46Z</time>
  <course>160.61</course>
  <speed>2.48</speed>
  <fix>3d</fix>
</trkpt>
<trkpt lat="40.0738844" lon="-105.2292703">
  <ele>1621.56</ele>
  <time>2026-08-28T19:07:46Z</time>
  <course>163.04</course>
  <speed>2.4287033577610915</speed>
  <fix>3d</fix>
</trkpt>
<trkpt lat="40.073887" lon="-105.2292716">
  <ele>1621.75</ele>
  <time>2026-08-28T19:07:46Z</time>
  <course>161.63</course>
  <speed>2.44</speed>
  <fix>3d</fix>
</trkpt>
<trkpt lat="40.0738803" lon="-105.2292686">
  <ele>1621.26</ele>
  <time>2026-08-28T19:07:46Z</time>
  <course>163.97</course>
  <speed>2.397540406333124</speed>
  <fix>3d</fix>
</trkpt>
<trkpt lat="40.0738829" lon="-105.2292698">
  <ele>1621.46</ele>
  <time>2026-08-28T19:07:46Z</time>
  <course>162.59</course>
  <speed>2.41</speed>
  <fix>3d</fix>
</trkpt>
<trkpt lat="40.0738762" lon="-105.2292671">
  <ele>1620.97</ele>
  <time>2026-08-28T19:07:46Z</time>
  <course>164.83</course>
  <speed>2.3640008460235373</speed>
  <fix>3d</fix>
</trkpt>
<trkpt lat="40.0738788" lon="-105.2292682">
  <ele>1621.16</ele>
  <time>2026-08-28T19:07:46Z</time>
  <course>163.49</course>
  <speed>2.37</speed>
  <fix>3d</fix>
</trkpt>
<trkpt lat="40.0738721" lon="-105.2292656">
  <ele>1620.67</ele>
  <time>2026-08-28T19:07:46Z</time>
  <course>165.59</course>
  <speed>2.333859464492239</speed>
  <fix>3d</fix>
</trkpt>
<trkpt lat="40.0738747" lon="-105.2292666">
  <ele>1620.87</ele>
  <time>2026-08-28T19:07:46Z</time>
  <course>164.33</course>
  <speed>2.34</speed>
  <fix>3d</fix>
</trkpt>
<trkpt lat="40.0738681" lon="-105.2292642">
  <ele>1620.38</ele>
  <time>2026-08-28T19:07:46Z</time>
  <course>166.27</course>
  <speed>2.3067292862405853</speed>
  <fix>3d</fix>
</trkpt>
<trkpt lat="40.0738707" lon="-105.2292652">
  <ele>1620.58</ele>
  <time>2026-08-28T19:07:46Z</time>
  <course>165.05</course>
  <speed>2.31</speed>
  <fix>3d</fix>
</trkpt>
<trkpt lat="40.0738641" lon="-105.2292629">
  <ele>1620.09</ele>
  <time>2026-08-28T19:07:46Z</time>
  <course>166.84</course>
  <speed>2.279846486059972</speed>
  <fix>3d</fix>
</trkpt>
<trkpt lat="40.0738666" lon="-105.2292638">
  <ele>1620.29</ele>
  <time>2026-08-28T19:07:46Z</time>
  <course>165.67</course>
  <speed>2.28</speed>
  <fix>3d</fix>
</trkpt>
<trkpt lat="40.0738602" lon="-105.2292616">
  <ele>1619.8</ele>
  <time>2026-08-28T19:07:46Z</time>
  <course>167.29</course>
  <speed>2.255593048402127</speed>
  <fix>3d</fix>
</trkpt>
<trkpt lat="40.0738627" lon="-105.2292626">
  <ele>1620.0</ele>
  <time>2026-08-28T19:07:46Z</time>
  <course>166.2</course>
  <speed>2.26</speed>
  <fix>3d</fix>
</trkpt>
<trkpt lat="40.0738563" lon="-105.2292604">
  <ele>1619.5</ele>
  <time>2026-08-28T19:07:46Z</time>
  <course>167.67</course>
  <speed>2.2411604137142884</speed>
  <fix>3d</fix>
</trkpt>
<trkpt lat="40.0738587" lon="-105.2292613">
  <ele>1619.71</ele>
  <time>2026-08-28T19:07:46Z</time>
  <course>166.63</course>
  <speed>2.24</speed>
  <fix>3d</fix>
</trkpt>
<trkpt lat="40.0738523" lon="-105.2292592">
  <ele>1619.21</ele>
  <time>2026-08-28T19:07:46Z</time>
  <course>167.97</course>
  <speed>2.2193918085818014</speed>
  <fix>3d</fix>
</trkpt>
<trkpt lat="40.0738548" lon="-105.2292601">
  <ele>1619.41</ele>
  <time>2026-08-28T19:07:46Z</time>
  <course>166.97</course>
  <speed>2.22</speed>
  <fix>3d</fix>
</trkpt>
<trkpt lat="40.0738485" lon="-105.2292581">
  <ele>1618.91</ele>
  <time>2026-08-28T19:07:46Z</time>
  <course>168.16</course>
  <speed>2.2073740054644118</speed>
  <fix>3d</fix>
</trkpt>
<trkpt lat="40.073851" lon="-105.2292589">
  <ele>1619.12</ele>
  <time>2026-08-28T19:07:46Z</time>
  <course>167.21</course>
  <speed>2.2</speed>
  <fix>3d</fix>
</trkpt>
<trkpt lat="40.0738446" lon="-105.2292569">
  <ele>1618.61</ele>
  <time>2026-08-28T19:07:46Z</time>
  <course>168.26</course>
  <speed>2.1953815158190615</speed>
  <fix>3d</fix>
</trkpt>
<trkpt lat="40.0738471" lon="-105.2292578">
  <ele>1618.83</ele>
  <time>2026-08-28T19:07:46Z</time>
  <course>167.36</course>
  <speed>2.19</speed>
  <fix>3d</fix>
</trkpt>
<trkpt lat="40.0738408" lon="-105.2292558">
  <ele>1618.31</ele>
  <time>2026-08-28T19:07:46Z</time>
  <course>168.29</course>
  <speed>2.1953815158190615</speed>
  <fix>3d</fix>
</trkpt>
<trkpt lat="40.0738433" lon="-105.2292567">
  <ele>1618.53</ele>
  <time>2026-08-28T19:07:46Z</time>
  <course>167.44</course>
  <speed>2.18</speed>
  <fix>3d</fix>
</trkpt>
<trkpt lat="40.073837" lon="-105.2292547">
  <ele>1618.02</ele>
  <time>2026-08-28T19:07:46Z</time>
  <course>168.26</course>
  <speed>2.185634919193963</speed>
  <fix>3d</fix>
</trkpt>
<trkpt lat="40.0738395" lon="-105.2292556">
  <ele>1618.24</ele>
  <time>2026-08-28T19:07:46Z</time>
  <course>167.47</course>
  <speed>2.18</speed>
  <fix>3d</fix>
</trkpt>
<trkpt lat="40.0738332" lon="-105.2292536">
  <ele>1617.73</ele>
  <time>2026-08-28T19:07:46Z</time>
  <course>168.24</course>
  <speed>2.185634919193963</speed>
  <fix>3d</fix>
</trkpt>
<trkpt lat="40.0738356" lon="-105.2292545">
  <ele>1617.95</ele>
  <time>2026-08-28T19:07:46Z</time>
  <course>167.47</course>
  <speed>2.17</speed>
  <fix>3d</fix>
</trkpt>
<trkpt lat="40.0738294" lon="-105.2292525">
  <ele>1617.44</ele>
  <time>2026-08-28T19:07:46Z</time>
  <course>168.22</course>
  <speed>2.1953815158190615</speed>
  <fix>3d</fix>
</trkpt>
<trkpt lat="40.0738318" lon="-105.2292533">
  <ele>1617.65</ele>
  <time>2026-08-28T19:07:46Z</time>
  <course>167.46</course>
  <speed>2.18</speed>
  <fix>3d</fix>
</trkpt>
<trkpt lat="40.0738255" lon="-105.2292514">
  <ele>1617.15</ele>
  <time>2026-08-28T19:07:46Z</time>
  <course>168.21</course>
  <speed>2.1953815158190615</speed>
  <fix>3d</fix>
</trkpt>
<trkpt lat="40.073828" lon="-105.2292522">
  <ele>1617.36</ele>
  <time>2026-08-28T19:07:46Z</time>
  <course>167.46</course>
  <speed>2.18</speed>
  <fix>3d</fix>
</trkpt>
<trkpt lat="40.0738217" lon="-105.2292503">
  <ele>1616.86</ele>
  <time>2026-08-28T19:07:46Z</time>
  <course>168.22</course>
  <speed>2.205130381632796</speed>
  <fix>3d</fix>
</trkpt>
<trkpt lat="40.0738241" lon="-105.2292511">
  <ele>1617.06</ele>
  <time>2026-08-28T19:07:46Z</time>
  <course>167.47</course>
  <speed>2.19</speed>
  <fix>3d</fix>
</trkpt>
<trkpt lat="40.0738179" lon="-105.2292492">
  <ele>1616.56</ele>
  <time>2026-08-28T19:07:46Z</time>
  <course>168.25</course>
  <speed>2.2148814866714654</speed>
  <fix>3d</fix>
</trkpt>
<trkpt lat="40.0738202" lon="-105.22925">
  <ele>1616.77</ele>
  <time>2026-08-28T19:07:46Z</time>
  <course>167.52</course>
  <speed>2.2</speed>
  <fix>3d</fix>
</trkpt>
<trkpt lat="40.073814" lon="-105.2292481">
  <ele>1616.26</ele>
  <time>2026-08-28T19:07:46Z</time>
  <course>168.34</course>
  <speed>2.234390297150433</speed>
  <fix>3d</fix>
</trkpt>
<trkpt lat="40.0738164" lon="-105.2292489">
  <ele>1616.47</ele>
  <time>2026-08-28T19:07:46Z</time>
  <course>167.61</course>
  <speed>2.21</speed>
  <fix>3d</fix>
</trkpt>
<trkpt lat="40.07381" lon="-105.229247">
  <ele>1615.96</ele>
  <time>2026-08-28T19:07:46Z</time>
  <course>168.45</course>
  <speed>2.2419857269840056</speed>
  <fix>3d</fix>
</trkpt>
<trkpt lat="40.0738125" lon="-105.2292478">
  <ele>1616.16</ele>
  <time>2026-08-28T19:07:46Z</time>
  <course>167.73</course>
  <speed>2.22</speed>
  <fix>3d</fix>
</trkpt>
<trkpt lat="40.0738061" lon="-105.2292459">
  <ele>1615.66</ele>
  <time>2026-08-28T19:07:46Z</time>
  <course>168.61</course>
  <speed>2.2615260334561706</speed>
  <fix>3d</fix>
</trkpt>
<trkpt lat="40.0738086" lon="-105.2292467">
  <ele>1615.87</ele>
  <time>2026-08-28T19:07:46Z</time>
  <course>167.9</course>
  <speed>2.24</speed>
  <fix>3d</fix>
</trkpt>
<trkpt lat="40.0738021" lon="-105.2292448">
  <ele>1615.37</ele>
  <time>2026-08-28T19:07:46Z</time>
  <course>168.82</course>
  <speed>2.278991004808926</speed>
  <fix>3d</fix>
</trkpt>
<trkpt lat="40.0738046" lon="-105.2292456">
  <ele>1615.56</ele>
  <time>2026-08-28T19:07:46Z</time>
  <course>168.12</course>
  <speed>2.25</speed>
  <fix>3d</fix>
</trkpt>
<trkpt lat="40.0737981" lon="-105.2292437">
  <ele>1615.07</ele>
  <time>2026-08-28T19:07:46Z</time>
  <course>169.09</course>
  <speed>2.2867444107289296</speed>
  <fix>3d</fix>
</trkpt>
<trkpt lat="40.0738006" lon="-105.2292445">
  <ele>1615.26</ele>
  <time>2026-08-28T19:07:46Z</time>
  <course>168.4</course>
  <speed>2.27</speed>
  <fix>3d</fix>
</trkpt>
<trkpt lat="40.0737941" lon="-105.2292427">
  <ele>1614.77</ele>
  <time>2026-08-28T19:07:46Z</time>
  <course>169.43</course>
  <speed>2.3043654224102563</speed>
  <fix>3d</fix>
</trkpt>
<trkpt lat="40.0737965" lon="-105.2292434">
  <ele>1614.96</ele>
  <time>2026-08-28T19:07:46Z</time>
  <course>168.72</course>
  <speed>2.28</speed>
  <fix>3d</fix>
</trkpt>
<trkpt lat="40.07379" lon="-105.2292417">
  <ele>1614.46</ele>
  <time>2026-08-28T19:07:46Z</time>
  <course>169.81</course>
  <speed>2.3122499864850257</speed>
  <fix>3d</fix>
</trkpt>
<trkpt lat="40.0737926" lon="-105.2292423">
  <ele>1614.66</ele>
  <time>2026-08-28T19:07:46Z</time>
  <course>169.11</course>
  <speed>2.29</speed>
  <fix>3d</fix>
</trkpt>
<trkpt lat="40.0737859" lon="-105.2292407">
  <ele>1614.16</ele>
  <time>2026-08-28T19:07:46Z</time>
  <course>170.24</course>
  <speed>2.3281967270830015</speed>
  <fix>3d</fix>
</trkpt>
<trkpt lat="40.0737885" lon="-105.2292413">
  <ele>1614.36</ele>
  <time>2026-08-28T19:07:46Z</time>
  <course>169.54</course>
  <speed>2.3</speed>
  <fix>3d</fix>
</trkpt>
<trkpt lat="40.0737818" lon="-105.2292397">
  <ele>1613.86</ele>
  <time>2026-08-28T19:07:46Z</time>
  <course>170.68</course>
  <speed>2.3345235059857505</speed>
  <fix>3d</fix>
</trkpt>
<trkpt lat="40.0737844" lon="-105.2292404">
  <ele>1614.06</ele>
  <time>2026-08-28T19:07:46Z</time>
  <course>170.01</course>
  <speed>2.32</speed>
  <fix>3d</fix>
</trkpt>
<trkpt lat="40.0737776" lon="-105.2292388">
  <ele>1613.56</ele>
  <time>2026-08-28T19:07:46Z</time>
  <course>171.16</course>
  <speed>2.3525518060183073</speed>
  <fix>3d</fix>
</trkpt>
<trkpt lat="40.0737803" lon="-105.2292395">
  <ele>1613.76</ele>
  <time>2026-08-28T19:07:46Z</time>
  <course>170.5</course>
  <speed>2.33</speed>
  <fix>3d</fix>
</trkpt>
<trkpt lat="40.0737735" lon="-105.229238">
  <ele>1613.26</ele>
  <time>2026-08-28T19:07:46Z</time>
  <course>171.66</course>
  <speed>2.359194777885031</speed>
  <fix>3d</fix>
</trkpt>
<trkpt lat="40.0737762" lon="-105.2292386">
  <ele>1613.46</ele>
  <time>2026-08-28T19:07:46Z</time>
  <course>171.01</course>
  <speed>2.34</speed>
  <fix>3d</fix>
</trkpt>
<trkpt lat="40.0737693" lon="-105.2292372">
  <ele>1612.96</ele>
  <time>2026-08-28T19:07:46Z</time>
  <course>172.17</course>
  <speed>2.3759208741033446</speed>
  <fix>3d</fix>
</trkpt>
<trkpt lat="40.073772" lon="-105.2292377">
  <ele>1613.16</ele>
  <time>2026-08-28T19:07:46Z</time>
  <course>171.53</course>
  <speed>2.35</speed>
  <fix>3d</fix>
</trkpt>
<trkpt lat="40.0737651" lon="-105.2292364">
  <ele>1612.67</ele>
  <time>2026-08-28T19:07:46Z</time>
  <course>172.67</course>
  <speed>2.382960343774105</speed>
  <fix>3d</fix>
</trkpt>
<trkpt lat="40.0737678" lon="-105.229237">
  <ele>1612.86</ele>
  <time>2026-08-28T19:07:46Z</time>
  <course>172.06</course>
  <speed>2.36</speed>
  <fix>3d</fix>
</trkpt>
<trkpt lat="40.0737608" lon="-105.2292357">
  <ele>1612.37</ele>
  <time>2026-08-28T19:07:46Z</time>
  <course>173.18</course>
  <speed>2.400104164406203</speed>
  <fix>3d</fix>
</trkpt>
<trkpt lat="40.0737635" lon="-105.2292363">
  <ele>1612.56</ele>
  <time>2026-08-28T19:07:46Z</time>
  <course>172.59</course>
  <speed>2.37</speed>
  <fix>3d</fix>
</trkpt>
<trkpt lat="40.0737566" lon="-105.229235">
  <ele>1612.07</ele>
  <time>2026-08-28T19:07:46Z</time>
  <course>173.7</course>
  <speed>2.40634577731464</speed>
  <fix>3d</fix>
</trkpt>
<trkpt lat="40.0737593" lon="-105.2292356">
  <ele>1612.26</ele>
  <time>2026-08-28T19:07:46Z</time>
  <course>173.13</course>
  <speed>2.38</speed>
  <fix>3d</fix>
</trkpt>
<trkpt lat="40.0737522" lon="-105.2292344">
  <ele>1611.77</ele>
  <time>2026-08-28T19:07:46Z</time>
  <course>174.23</course>
  <speed>2.41404225315134</speed>
  <fix>3d</fix>
</trkpt>
<trkpt lat="40.073755" lon="-105.2292349">
  <ele>1611.96</ele>
  <time>2026-08-28T19:07:46Z</time>
  <course>173.65</course>
  <speed>2.39</speed>
  <fix>3d</fix>
</trkpt>
<trkpt lat="40.0737479" lon="-105.2292339">
  <ele>1611.46</ele>
  <time>2026-08-28T19:07:46Z</time>
  <course>174.7</course>
  <speed>2.4219207253748003</speed>
  <fix>3d</fix>
</trkpt>
<trkpt lat="40.0737507" lon="-105.2292343">
  <ele>1611.66</ele>
  <time>2026-08-28T19:07:46Z</time>
  <course>174.16</course>
  <speed>2.4</speed>
  <fix>3d</fix>
</trkpt>
<trkpt lat="40.0737436" lon="-105.2292333">
  <ele>1611.16</ele>
  <time>2026-08-28T19:07:46Z</time>
  <course>175.16</course>
  <speed>2.4408605040026354</speed>
  <fix>3d</fix>
</trkpt>
<trkpt lat="40.0737464" lon="-105.2292338">
  <ele>1611.36</ele>
  <time>2026-08-28T19:07:46Z</time>
  <course>174.63</course>
  <speed>2.41</speed>
  <fix>3d</fix>
</trkpt>
<trkpt lat="40.0737392" lon="-105.2292328">
  <ele>1610.86</ele>
  <time>2026-08-28T19:07:46Z</time>
  <course>175.58</course>
  <speed>2.4490202122481555</speed>
  <fix>3d</fix>
</trkpt>
<trkpt lat="40.0737421" lon="-105.2292332">
  <ele>1611.06</ele>
  <time>2026-08-28T19:07:46Z</time>
  <course>175.07</course>
  <speed>2.42</speed>
  <fix>3d</fix>
</trkpt>
<trkpt lat="40.0737348" lon="-105.2292324">
  <ele>1610.56</ele>
  <time>2026-08-28T19:07:46Z</time>
  <course>175.97</course>
  <speed>2.4673264883269908</speed>
  <fix>3d</fix>
</trkpt>
<trkpt lat="40.0737377" lon="-105.2292327">
  <ele>1610.76</ele>
  <time>2026-08-28T19:07:46Z</time>
  <course>175.48</course>
  <speed>2.44</speed>
  <fix>3d</fix>
</trkpt>
<trkpt lat="40.0737304" lon="-105.229232">
  <ele>1610.27</ele>
  <time>2026-08-28T19:07:46Z</time>
  <course>176.34</course>
  <speed>2.476550019684642</speed>
  <fix>3d</fix>
</trkpt>
<trkpt lat="40.0737333" lon="-105.2292324">
  <ele>1610.46</ele>
  <time>2026-08-28T19:07:46Z</time>
  <course>175.87</course>
  <speed>2.45</speed>
  <fix>3d</fix>
</trkpt>
<trkpt lat="40.073726" lon="-105.2292316">
  <ele>1609.97</ele>
  <time>2026-08-28T19:07:46Z</time>
  <course>176.68</course>
  <speed>2.495135266874323</speed>
  <fix>3d</fix>
</trkpt>
<trkpt lat="40.0737289" lon="-105.229232">
  <ele>1610.16</ele>
  <time>2026-08-28T19:07:46Z</time>
  <course>176.24</course>
  <speed>2.46</speed>
  <fix>3d</fix>
</trkpt>
<trkpt lat="40.0737215" lon="-105.2292313">
  <ele>1609.67</ele>
  <time>2026-08-28T19:07:46Z</time>
  <course>177.01</course>
  <speed>2.504495957273639</speed>
  <fix>3d</fix>
</trkpt>
<trkpt lat="40.0737245" lon="-105.2292316">
  <ele>1609.86</ele>
  <time>2026-08-28T19:07:46Z</time>
  <course>176.59</course>
  <speed>2.48</speed>
  <fix>3d</fix>
</trkpt>
<trkpt lat="40.0737171" lon="-105.229231">
  <ele>1609.37</ele>
  <time>2026-08-28T19:07:46Z</time>
  <course>177.32</course>
  <speed>2.5238858928247923</speed>
  <fix>3d</fix>
</trkpt>
<trkpt lat="40.07372" lon="-105.2292313">
  <ele>1609.56</ele>
  <time>2026-08-28T19:07:46Z</time>
  <course>176.91</course>
  <speed>2.5</speed>
  <fix>3d</fix>
</trkpt>
<trkpt lat="40.0737125" lon="-105.2292307">
  <ele>1609.07</ele>
  <time>2026-08-28T19:07:46Z</time>
  <course>177.6</course>
  <speed>2.553311575190149</speed>
  <fix>3d</fix>
</trkpt>
<trkpt lat="40.0737155" lon="-105.229231">
  <ele>1609.26</ele>
  <time>2026-08-28T19:07:46Z</time>
  <course>177.21</course>
  <speed>2.52</speed>
  <fix>3d</fix>
</trkpt>
<trkpt lat="40.073708" lon="-105.2292304">
  <ele>1608.78</ele>
  <time>2026-08-28T19:07:46Z</time>
  <course>177.87</course>
  <speed>2.572800031094527</speed>
  <fix>3d</fix>
</trkpt>
<trkpt lat="40.073711" lon="-105.2292307">
  <ele>1608.96</ele>
  <time>2026-08-28T19:07:46Z</time>
  <course>177.49</course>
  <speed>2.54</speed>
  <fix>3d</fix>
</trkpt>
<trkpt lat="40.0737034" lon="-105.2292302">
  <ele>1608.48</ele>
  <time>2026-08-28T19:07:46Z</time>
  <course>178.1</course>
  <speed>2.602325882744127</speed>
  <fix>3d</fix>
</trkpt>
<trkpt lat="40.0737064" lon="-105.2292305">
  <ele>1608.66</ele>
  <time>2026-08-28T19:07:46Z</time>
  <course>177.75</course>
  <speed>2.56</speed>
  <fix>3d</fix>
</trkpt>
<trkpt lat="40.0736987" lon="-105.22923">
  <ele>1608.17</ele>
  <time>2026-08-28T19:07:46Z</time>
  <course>178.31</course>
  <speed>2.631900454044567</speed>
  <fix>3d</fix>
</trkpt>
<trkpt lat="40.0737017" lon="-105.2292302">
  <ele>1608.36</ele>
  <time>2026-08-28T19:07:46Z</time>
  <course>177.99</course>
  <speed>2.59</speed>
  <fix>3d</fix>
</trkpt>
<trkpt lat="40.073694" lon="-105.2292298">
  <ele>1607.87</ele>
  <time>2026-08-28T19:07:46Z</time>
  <course>178.52</course>
  <speed>2.661522120892479</speed>
  <fix>3d</fix>
</trkpt>
<trkpt lat="40.073697" lon="-105.22923">
  <ele>1608.06</ele>
  <time>2026-08-28T19:07:46Z</time>
  <course>178.21</course>
  <speed>2.62</speed>
  <fix>3d</fix>
</trkpt>
<trkpt lat="40.0736892" lon="-105.2292297">
  <ele>1607.57</ele>
  <time>2026-08-28T19:07:46Z</time>
  <course>178.72</course>
  <speed>2.701184925176357</speed>
  <fix>3d</fix>
</trkpt>
<trkpt lat="40.0736923" lon="-105.2292299">
  <ele>1607.76</ele>
  <time>2026-08-28T19:07:46Z</time>
  <course>178.43</course>
  <speed>2.66</speed>
  <fix>3d</fix>
</trkpt>
<trkpt lat="40.0736843" lon="-105.2292295">
  <ele>1607.26</ele>
  <time>2026-08-28T19:07:46Z</time>
  <course>178.9</course>
  <speed>2.7408940147331493</speed>
  <fix>3d</fix>
</trkpt>
<trkpt lat="40.0736875" lon="-105.2292296">
  <ele>1607.45</ele>
  <time>2026-08-28T19:07:46Z</time>
  <course>178.66</course>
  <speed>2.69</speed>
  <fix>3d</fix>
</trkpt>
<trkpt lat="40.0736794" lon="-105.2292294">
  <ele>1606.96</ele>
  <time>2026-08-28T19:07:46Z</time>
  <course>179.11</course>
  <speed>2.780647406630334</speed>
  <fix>3d</fix>
</trkpt>
<trkpt lat="40.0736826" lon="-105.2292295">
  <ele>1607.15</ele>
  <time>2026-08-28T19:07:46Z</time>
  <course>178.88</course>
  <speed>2.73</speed>
  <fix>3d</fix>
</trkpt>
<trkpt lat="40.0736744" lon="-105.2292293">
  <ele>1606.66</ele>
  <time>2026-08-28T19:07:46Z</time>
  <course>179.31</course>
  <speed>2.8204432275796654</speed>
  <fix>3d</fix>
</trkpt>
<trkpt lat="40.0736777" lon="-105.2292294">
  <ele>1606.85</ele>
  <time>2026-08-28T19:07:46Z</time>
  <course>179.1</course>
  <speed>2.78</speed>
  <fix>3d</fix>
</trkpt>
<trkpt lat="40.0736693" lon="-105.2292292">
  <ele>1606.36</ele>
  <time>2026-08-28T19:07:46Z</time>
  <course>179.51</course>
  <speed>2.870278732109479</speed>
  <fix>3d</fix>
</trkpt>
<trkpt lat="40.0736726" lon="-105.2292293">
  <ele>1606.55</ele>
  <time>2026-08-28T19:07:46Z</time>
  <course>179.33</course>
  <speed>2.82</speed>
  <fix>3d</fix>
</trkpt>
<trkpt lat="40.0736641" lon="-105.2292292">
  <ele>1606.07</ele>
  <time>2026-08-28T19:07:46Z</time>
  <course>179.74</course>
  <speed>2.920068492347397</speed>
  <fix>3d</fix>
</trkpt>
<trkpt lat="40.0736675" lon="-105.2292293">
  <ele>1606.25</ele>
  <time>2026-08-28T19:07:46Z</time>
  <course>179.57</course>
  <speed>2.87</speed>
  <fix>3d</fix>
</trkpt>
<trkpt lat="40.0736588" lon="-105.2292291">
  <ele>1605.77</ele>
  <time>2026-08-28T19:07:46Z</time>
  <course>179.91</course>
  <speed>2.9800167784762555</speed>
  <fix>3d</fix>
</trkpt>
<trkpt lat="40.0736622" lon="-105.2292293">
  <ele>1605.95</ele>
  <time>2026-08-28T19:07:46Z</time>
  <course>179.82</course>
  <speed>2.93</speed>
  <fix>3d</fix>
</trkpt>
<trkpt lat="40.0736534" lon="-105.2292292">
  <ele>1605.47</ele>
  <time>2026-08-28T19:07:46Z</time>
  <course>180.2</course>
  <speed>3.0300165016052305</speed>
  <fix>3d</fix>
</trkpt>
<trkpt lat="40.0736569" lon="-105.2292293">
  <ele>1605.65</ele>
  <time>2026-08-28T19:07:46Z</time>
  <course>180.17</course>
  <speed>2.98</speed>
  <fix>3d</fix>
</trkpt>
<trkpt lat="40.073648" lon="-105.2292293">
  <ele>1605.17</ele>
  <time>2026-08-28T19:07:46Z</time>
  <course>180.92</course>
  <speed>3.0605881787656437</speed>
  <fix>3d</fix>
</trkpt>
<trkpt lat="40.0736515" lon="-105.2292293">
  <ele>1605.35</ele>
  <time>2026-08-28T19:07:46Z</time>
  <course>180.79</course>
  <speed>3.02</speed>
  <fix>3d</fix>
</trkpt>
<trkpt lat="40.0736425" lon="-105.2292295">
  <ele>1604.88</ele>
  <time>2026-08-28T19:07:46Z</time>
  <course>182.2</course>
  <speed>3.0831801763763336</speed>
  <fix>3d</fix>
</trkpt>
<trkpt lat="40.073646" lon="-105.2292294">
  <ele>1605.06</ele>
  <time>2026-08-28T19:07:46Z</time>
  <course>181.89</course>
  <speed>3.05</speed>
  <fix>3d</fix>
</trkpt>
<trkpt lat="40.073637" lon="-105.22923">
  <ele>1604.58</ele>
  <time>2026-08-28T19:07:46Z</time>
  <course>184.03</course>
  <speed>3.100096772683072</speed>
  <fix>3d</fix>
</trkpt>
<trkpt lat="40.0736405" lon="-105.2292296">
  <ele>1604.76</ele>
  <time>2026-08-28T19:07:46Z</time>
  <course>183.52</course>
  <speed>3.07</speed>
  <fix>3d</fix>
</trkpt>
<trkpt lat="40.0736314" lon="-105.2292307">
  <ele>1604.28</ele>
  <time>2026-08-28T19:07:46Z</time>
  <course>186.31</course>
  <speed>3.1244359490954525</speed>
  <fix>3d</fix>
</trkpt>
<trkpt lat="40.073635" lon="-105.2292303">
  <ele>1604.46</ele>
  <time>2026-08-28T19:07:46Z</time>
  <course>185.67</course>
  <speed>3.1</speed>
  <fix>3d</fix>
</trkpt>
<trkpt lat="40.0736258" lon="-105.2292319">
  <ele>1603.98</ele>
  <time>2026-08-28T19:07:46Z</time>
  <course>188.99</course>
  <speed>3.158259014077218</speed>
  <fix>3d</fix>
</trkpt>
<trkpt lat="40.0736294" lon="-105.2292312">
  <ele>1604.16</ele>
  <time>2026-08-28T19:07:46Z</time>
  <course>188.26</course>
  <speed>3.12</speed>
  <fix>3d</fix>
</trkpt>
<trkpt lat="40.0736202" lon="-105.2292334">
  <ele>1603.68</ele>
  <time>2026-08-28T19:07:46Z</time>
  <course>191.98</course>
  <speed>3.2042627857277877</speed>
  <fix>3d</fix>
</trkpt>
<trkpt lat="40.0736239" lon="-105.2292324">
  <ele>1603.86</ele>
  <time>2026-08-28T19:07:46Z</time>
  <course>191.23</course>
  <speed>3.16</speed>
  <fix>3d</fix>
</trkpt>
<trkpt lat="40.0736146" lon="-105.2292354">
  <ele>1603.38</ele>
  <time>2026-08-28T19:07:46Z</time>
  <course>195.26</course>
  <speed>3.268103425535979</speed>
  <fix>3d</fix>
</trkpt>
<trkpt lat="40.0736184" lon="-105.229234">
  <ele>1603.56</ele>
  <time>2026-08-28T19:07:46Z</time>
  <course>194.51</course>
  <speed>3.2</speed>
  <fix>3d</fix>
</trkpt>
<trkpt lat="40.0736091" lon="-105.2292378">
  <ele>1603.08</ele>
  <time>2026-08-28T19:07:46Z</time>
  <course>198.75</course>
  <speed>3.3380383460949035</speed>
  <fix>3d</fix>
</trkpt>
<trkpt lat="40.0736127" lon="-105.2292361">
  <ele>1603.25</ele>
  <time>2026-08-28T19:07:46Z</time>
  <course>198.07</course>
  <speed>3.26</speed>
  <fix>3d</fix>
</trkpt>
<trkpt lat="40.0736035" lon="-105.2292408">
  <ele>1602.78</ele>
  <time>2026-08-28T19:07:46Z</time>
  <course>202.41</course>
  <speed>3.41970758983864</speed>
  <fix>3d</fix>
</trkpt>
<trkpt lat="40.0736072" lon="-105.2292388">
  <ele>1602.95</ele>
  <time>2026-08-28T19:07:46Z</time>
  <course>201.84</course>
  <speed>3.34</speed>
  <fix>3d</fix>
</trkpt>
<trkpt lat="40.0735979" lon="-105.2292444">
  <ele>1602.47</ele>
  <time>2026-08-28T19:07:46Z</time>
  <course>206.2</course>
  <speed>3.5388274894377094</speed>
  <fix>3d</fix>
</trkpt>
<trkpt lat="40.0736016" lon="-105.229242">
  <ele>1602.64</ele>
  <time>2026-08-28T19:07:46Z</time>
  <course>205.76</course>
  <speed>3.44</speed>
  <fix>3d</fix>
</trkpt>
<trkpt lat="40.0735924" lon="-105.2292486">
  <ele>1602.16</ele>
  <time>2026-08-28T19:07:46Z</time>
  <course>210.01</course>
  <speed>3.676098475285993</speed>
  <fix>3d</fix>
</trkpt>
<trkpt lat="40.073596" lon="-105.2292459">
  <ele>1602.33</ele>
  <time>2026-08-28T19:07:46Z</time>
  <course>209.8</course>
  <speed>3.56</speed>
  <fix>3d</fix>
</trkpt>
<trkpt lat="40.0735869" lon="-105.2292536">
  <ele>1601.85</ele>
  <time>2026-08-28T19:07:46Z</time>
  <course>213.83</course>
  <speed>3.848168395483753</speed>
  <fix>3d</fix>
</trkpt>
<trkpt lat="40.0735904" lon="-105.2292504">
  <ele>1602.02</ele>
  <time>2026-08-28T19:07:46Z</time>
  <course>213.9</course>
  <speed>3.71</speed>
  <fix>3d</fix>
</trkpt>
<trkpt lat="40.0735813" lon="-105.2292593">
  <ele>1601.54</ele>
  <time>2026-08-28T19:07:46Z</time>
  <course>217.43</course>
  <speed>4.057708713054697</speed>
  <fix>3d</fix>
</trkpt>
<trkpt lat="40.0735849" lon="-105.2292557">
  <ele>1601.71</ele>
  <time>2026-08-28T19:07:46Z</time>
  <course>218.0</course>
  <speed>3.89</speed>
  <fix>3d</fix>
</trkpt>
<trkpt lat="40.0735759" lon="-105.2292659">
  <ele>1601.25</ele>
  <time>2026-08-28T19:07:46Z</time>
  <course>221.31</course>
  <speed>4.25</speed>
  <fix>3d</fix>
</trkpt>
<trkpt lat="40.0735794" lon="-105.2292617">
  <ele>1601.41</ele>
  <time>2026-08-28T19:07:46Z</time>
  <course>222.06</course>
  <speed>4.1</speed>
  <fix>3d</fix>
</trkpt>
<trkpt lat="40.0735706" lon="-105.2292732">
  <ele>1600.97</ele>
  <time>2026-08-28T19:07:46Z</time>
  <course>225.18</course>
  <speed>4.419683246568695</speed>
  <fix>3d</fix>
</trkpt>
<trkpt lat="40.073574" lon="-105.2292685">
  <ele>1601.12</ele>
  <time>2026-08-28T19:07:46Z</time>
  <course>226.0</course>
  <speed>4.29</speed>
  <fix>3d</fix>
</trkpt>
<trkpt lat="40.0735654" lon="-105.2292813">
  <ele>1600.71</ele>
  <time>2026-08-28T19:07:46Z</time>
  <course>228.93</course>
  <speed>4.566847928276132</speed>
  <fix>3d</fix>
</trkpt>
<trkpt lat="40.0735687" lon="-105.2292761">
  <ele>1600.85</ele>
  <time>2026-08-28T19:07:46Z</time>
  <course>229.82</course>
  <speed>4.46</speed>
  <fix>3d</fix>
</trkpt>
<trkpt lat="40.0735606" lon="-105.2292901">
  <ele>1600.47</ele>
  <time>2026-08-28T19:07:46Z</time>
  <course>232.62</course>
  <speed>4.71513520484832</speed>
  <fix>3d</fix>
</trkpt>
<trkpt lat="40.0735637" lon="-105.2292845">
  <ele>1600.6</ele>
  <time>2026-08-28T19:07:46Z</time>
  <course>233.56</course>
  <speed>4.62</speed>
  <fix>3d</fix>
</trkpt>
<trkpt lat="40.073556" lon="-105.2292996">
  <ele>1600.25</ele>
  <time>2026-08-28T19:07:46Z</time>
  <course>236.09</course>
  <speed>4.841539011512765</speed>
  <fix>3d</fix>
</trkpt>
<trkpt lat="40.0735589" lon="-105.2292936">
  <ele>1600.38</ele>
  <time>2026-08-28T19:07:46Z</time>
  <course>237.28</course>
  <speed>4.76</speed>
  <fix>3d</fix>
</trkpt>
<trkpt lat="40.0735518" lon="-105.2293097">
  <ele>1600.06</ele>
  <time>2026-08-28T19:07:46Z</time>
  <course>239.77</course>
  <speed>4.941760819788833</speed>
  <fix>3d</fix>
</trkpt>
<trkpt lat="40.0735545" lon="-105.2293033">
  <ele>1600.16</ele>
  <time>2026-08-28T19:07:46Z</time>
  <course>240.95</course>
  <speed>4.88</speed>
  <fix>3d</fix>
</trkpt>
<trkpt lat="40.073548" lon="-105.2293203">
  <ele>1599.9</ele>
  <time>2026-08-28T19:07:46Z</time>
  <course>243.52</course>
  <speed>5.0080335462135235</speed>
  <fix>3d</fix>
</trkpt>
<trkpt lat="40.0735504" lon="-105.2293136">
  <ele>1599.98</ele>
  <time>2026-08-28T19:07:46Z</time>
  <course>244.54</course>
  <speed>4.98</speed>
  <fix>3d</fix>
</trkpt>
<trkpt lat="40.0735447" lon="-105.2293313">
  <ele>1599.76</ele>
  <time>2026-08-28T19:07:46Z</time>
  <course>247.18</course>
  <speed>5.035633028726378</speed>
  <fix>3d</fix>
</trkpt>
<trkpt lat="40.0735468" lon="-105.2293244">
  <ele>1599.83</ele>
  <time>2026-08-28T19:07:46Z</time>
  <course>248.06</course>
  <speed>5.03</speed>
  <fix>3d</fix>
</trkpt>
<trkpt lat="40.0735419" lon="-105.2293426">
  <ele>1599.64</ele>
  <time>2026-08-28T19:07:46Z</time>
  <course>250.76</course>
  <speed>5.041200253907793</speed>
  <fix>3d</fix>
</trkpt>
<trkpt lat="40.0735436" lon="-105.2293356">
  <ele>1599.7</ele>
  <time>2026-08-28T19:07:46Z</time>
  <course>251.54</course>
  <speed>5.06</speed>
  <fix>3d</fix>
</trkpt>
<trkpt lat="40.0735397" lon="-105.2293541">
  <ele>1599.55</ele>
  <time>2026-08-28T19:07:46Z</time>
  <course>254.29</course>
  <speed>5.0339050447937534</speed>
  <fix>3d</fix>
</trkpt>
<trkpt lat="40.073541" lon="-105.2293469">
  <ele>1599.59</ele>
  <time>2026-08-28T19:07:46Z</time>
  <course>255.0</course>
  <speed>5.06</speed>
  <fix>3d</fix>
</trkpt>
<trkpt lat="40.0735379" lon="-105.2293657">
  <ele>1599.47</ele>
  <time>2026-08-28T19:07:46Z</time>
  <course>257.81</course>
  <speed>5.005966440159183</speed>
  <fix>3d</fix>
</trkpt>
<trkpt lat="40.0735389" lon="-105.2293585">
  <ele>1599.5</ele>
  <time>2026-08-28T19:07:46Z</time>
  <course>258.46</course>
  <speed>5.04</speed>
  <fix>3d</fix>
</trkpt>
<trkpt lat="40.0735367" lon="-105.2293773">
  <ele>1599.42</ele>
  <time>2026-08-28T19:07:47Z</time>
  <course>261.28</course>
  <speed>4.97620337204982</speed>
  <fix>3d</fix>
</trkpt>
<trkpt lat="40.0735374" lon="-105.2293702">
  <ele>1599.42</ele>
  <time>2026-08-28T19:07:47Z</time>
  <course>261.91</course>
  <speed>5.01</speed>
  <fix>3d</fix>
</trkpt>
<trkpt lat="40.0735361" lon="-105.2293889">
  <ele>1599.38</ele>
  <time>2026-08-28T19:07:47Z</time>
  <course>264.7</course>
  <speed>4.934470589637757</speed>
  <fix>3d</fix>
</trkpt>
<trkpt lat="40.0735364" lon="-105.2293818">
  <ele>1599.37</ele>
  <time>2026-08-28T19:07:47Z</time>
  <course>265.33</course>
  <speed>4.97</speed>
  <fix>3d</fix>
</trkpt>
<trkpt lat="40.073536" lon="-105.2294005">
  <ele>1599.36</ele>
  <time>2026-08-28T19:07:47Z</time>
  <course>268.09</course>
  <speed>4.8805020233578436</speed>
  <fix>3d</fix>
</trkpt>
<trkpt lat="40.073536" lon="-105.2293934">
  <ele>1599.33</ele>
  <time>2026-08-28T19:07:47Z</time>
  <course>268.71</course>
  <speed>4.93</speed>
  <fix>3d</fix>
</trkpt>
<trkpt lat="40.0735362" lon="-105.229412">
  <ele>1599.35</ele>
  <time>2026-08-28T19:07:47Z</time>
  <course>271.4</course>
  <speed>4.822717076503659</speed>
  <fix>3d</fix>
</trkpt>
<trkpt lat="40.073536" lon="-105.2294049">
  <ele>1599.31</ele>
  <time>2026-08-28T19:07:47Z</time>
  <course>272.05</course>
  <speed>4.87</speed>
  <fix>3d</fix>
</trkpt>
<trkpt lat="40.0735371" lon="-105.2294231">
  <ele>1599.36</ele>
  <time>2026-08-28T19:07:47Z</time>
  <course>274.61</course>
  <speed>4.749336795806337</speed>
  <fix>3d</fix>
</trkpt>
<trkpt lat="40.0735366" lon="-105.2294163">
  <ele>1599.3</ele>
  <time>2026-08-28T19:07:47Z</time>
  <course>275.35</course>
  <speed>4.81</speed>
  <fix>3d</fix>
</trkpt>
<trkpt lat="40.0735384" lon="-105.2294342">
  <ele>1599.39</ele>
  <time>2026-08-28T19:07:47Z</time>
  <course>277.77</course>
  <speed>4.689530893383687</speed>
  <fix>3d</fix>
</trkpt>
<trkpt lat="40.0735375" lon="-105.2294275">
  <ele>1599.32</ele>
  <time>2026-08-28T19:07:47Z</time>
  <course>278.59</course>
  <speed>4.74</speed>
  <fix>3d</fix>
</trkpt>
<trkpt lat="40.0735402" lon="-105.2294449">
  <ele>1599.44</ele>
  <time>2026-08-28T19:07:47Z</time>
  <course>280.87</course>
  <speed>4.610694090915163</speed>
  <fix>3d</fix>
</trkpt>
<trkpt lat="40.073539" lon="-105.2294383">
  <ele>1599.35</ele>
  <time>2026-08-28T19:07:47Z</time>
  <course>281.77</course>
  <speed>4.66</speed>
  <fix>3d</fix>
</trkpt>
<trkpt lat="40.0735424" lon="-105.2294553">
  <ele>1599.51</ele>
  <time>2026-08-28T19:07:47Z</time>
  <course>283.89</course>
  <speed>4.542972595118751</speed>
  <fix>3d</fix>
</trkpt>
<trkpt lat="40.0735409" lon="-105.2294489">
  <ele>1599.4</ele>
  <time>2026-08-28T19:07:47Z</time>
  <course>284.88</course>
  <speed>4.59</speed>
  <fix>3d</fix>
</trkpt>
<trkpt lat="40.0735449" lon="-105.2294653">
  <ele>1599.6</ele>
  <time>2026-08-28T19:07:47Z</time>
  <course>286.83</course>
  <speed>4.4631939236380935</speed>
  <fix>3d</fix>
</trkpt>
<trkpt lat="40.0735432" lon="-105.2294591">
  <ele>1599.48</ele>
  <time>2026-08-28T19:07:47Z</time>
  <course>287.93</course>
  <speed>4.51</speed>
  <fix>3d</fix>
</trkpt>
<trkpt lat="40.0735477" lon="-105.229475">
  <ele>1599.71</ele>
  <time>2026-08-28T19:07:47Z</time>
  <course>289.67</course>
  <speed>4.388462145216704</speed>
  <fix>3d</fix>
</trkpt>
<trkpt lat="40.0735459" lon="-105.229469">
  <ele>1599.58</ele>
  <time>2026-08-28T19:07:47Z</time>
  <course>290.92</course>
  <speed>4.44</speed>
  <fix>3d</fix>
</trkpt>
<trkpt lat="40.0735509" lon="-105.2294843">
  <ele>1599.84</ele>
  <time>2026-08-28T19:07:47Z</time>
  <course>292.48</course>
  <speed>4.325147396332292</speed>
  <fix>3d</fix>
</trkpt>
<trkpt lat="40.073549" lon="-105.2294786">
  <ele>1599.7</ele>
  <time>2026-08-28T19:07:47Z</time>
  <course>293.88</course>
  <speed>4.36</speed>
  <fix>3d</fix>
</trkpt>
<trkpt lat="40.0735544" lon="-105.2294933">
  <ele>1599.99</ele>
  <time>2026-08-28T19:07:47Z</time>
  <course>295.26</course>
  <speed>4.264199807701323</speed>
  <fix>3d</fix>
</trkpt>
<trkpt lat="40.0735523" lon="-105.2294878">
  <ele>1599.83</ele>
  <time>2026-08-28T19:07:47Z</time>
  <course>296.8</course>
  <speed>4.3</speed>
  <fix>3d</fix>
</trkpt>
<trkpt lat="40.0735582" lon="-105.2295019">
  <ele>1600.17</ele>
  <time>2026-08-28T19:07:47Z</time>
  <course>298.01</course>
  <speed>4.205258612737152</speed>
  <fix>3d</fix>
</trkpt>
<trkpt lat="40.0735559" lon="-105.2294967">
  <ele>1599.99</ele>
  <time>2026-08-28T19:07:47Z</time>
  <course>299.7</course>
  <speed>4.24</speed>
  <fix>3d</fix>
</trkpt>
<trkpt lat="40.0735623" lon="-105.2295102">
  <ele>1600.36</ele>
  <time>2026-08-28T19:07:47Z</time>
  <course>300.73</course>
  <speed>4.168704834837794</speed>
  <fix>3d</fix>
</trkpt>
<trkpt lat="40.0735598" lon="-105.2295051">
  <ele>1600.16</ele>
  <time>2026-08-28T19:07:47Z</time>
  <course>302.59</course>
  <speed>4.19</speed>
  <fix>3d</fix>
</trkpt>
<trkpt lat="40.0735667" lon="-105.2295181">
  <ele>1600.58</ele>
  <time>2026-08-28T19:07:47Z</time>
  <course>303.4</course>
  <speed>4.134017416509031</speed>
  <fix>3d</fix>
</trkpt>
<trkpt lat="40.073564" lon="-105.2295132">
  <ele>1600.36</ele>
  <time>2026-08-28T19:07:47Z</time>
  <course>305.47</course>
  <speed>4.15</speed>
  <fix>3d</fix>
</trkpt>
<trkpt lat="40.0735713" lon="-105.2295256">
  <ele>1600.81</ele>
  <time>2026-08-28T19:07:47Z</time>
  <course>305.99</course>
  <speed>4.11</speed>
  <fix>3d</fix>
</trkpt>
<trkpt lat="40.0735684" lon="-105.229521">
  <ele>1600.58</ele>
  <time>2026-08-28T19:07:47Z</time>
  <course>308.39</course>
  <speed>4.12</speed>
  <fix>3d</fix>
</trkpt>
<trkpt lat="40.0735762" lon="-105.2295329">
  <ele>1601.06</ele>
  <time>2026-08-28T19:07:47Z</time>
  <course>308.89</course>
  <speed>4.089523199591855</speed>
  <fix>3d</fix>
</trkpt>
<trkpt lat="40.0735732" lon="-105.2295284">
  <ele>1600.81</ele>
  <time>2026-08-28T19:07:47Z</time>
  <course>311.33</course>
  <speed>4.1</speed>
  <fix>3d</fix>
</trkpt>
<trkpt lat="40.0735813" lon="-105.2295396">
  <ele>1601.33</ele>
  <time>2026-08-28T19:07:47Z</time>
  <course>311.93</course>
  <speed>4.045268841498671</speed>
  <fix>3d</fix>
</trkpt>
<trkpt lat="40.0735782" lon="-105.2295355">
  <ele>1601.07</ele>
  <time>2026-08-28T19:07:47Z</time>
  <course>314.31</course>
  <speed>4.06</speed>
  <fix>3d</fix>
</trkpt>
<trkpt lat="40.0735867" lon="-105.229546">
  <ele>1601.62</ele>
  <time>2026-08-28T19:07:47Z</time>
  <course>315.06</course>
  <speed>3.9915535822534065</speed>
  <fix>3d</fix>
</trkpt>
<trkpt lat="40.0735834" lon="-105.2295421">
  <ele>1601.35</ele>
  <time>2026-08-28T19:07:47Z</time>
  <course>317.39</course>
  <speed>4.02</speed>
  <fix>3d</fix>
</trkpt>
<trkpt lat="40.0735922" lon="-105.2295518">
  <ele>1601.92</ele>
  <time>2026-08-28T19:07:47Z</time>
  <course>318.32</course>
  <speed>3.9442236244918973</speed>
  <fix>3d</fix>
</trkpt>
<trkpt lat="40.0735888" lon="-105.2295482">
  <ele>1601.64</ele>
  <time>2026-08-28T19:07:47Z</time>
  <course>320.62</course>
  <speed>3.96</speed>
  <fix>3d</fix>
</trkpt>
<trkpt lat="40.0735979" lon="-105.2295572">
  <ele>1602.24</ele>
  <time>2026-08-28T19:07:47Z</time>
  <course>321.73</course>
  <speed>3.896832046675864</speed>
  <fix>3d</fix>
</trkpt>
<trkpt lat="40.0735944" lon="-105.2295538">
  <ele>1601.95</ele>
  <time>2026-08-28T19:07:47Z</time>
  <course>324.04</course>
  <speed>3.92</speed>
  <fix>3d</fix>
</trkpt>
<trkpt lat="40.0736038" lon="-105.229562">
  <ele>1602.56</ele>
  <time>2026-08-28T19:07:47Z</time>
  <course>325.26</course>
  <speed>3.867570296710843</speed>
  <fix>3d</fix>
</trkpt>
<trkpt lat="40.0736002" lon="-105.229559">
  <ele>1602.27</ele>
  <time>2026-08-28T19:07:47Z</time>
  <course>327.61</course>
  <speed>3.88</speed>
  <fix>3d</fix>
</trkpt>
<trkpt lat="40.0736099" lon="-105.2295663">
  <ele>1602.91</ele>
  <time>2026-08-28T19:07:47Z</time>
  <course>328.87</course>
  <speed>3.8594559202042973</speed>
  <fix>3d</fix>
</trkpt>
<trkpt lat="40.0736062" lon="-105.2295636">
  <ele>1602.59</ele>
  <time>2026-08-28T19:07:47Z</time>
  <course>331.31</course>
  <speed>3.86</speed>
  <fix>3d</fix>
</trkpt>
<trkpt lat="40.0736163" lon="-105.2295701">
  <ele>1603.26</ele>
  <time>2026-08-28T19:07:47Z</time>
  <course>332.55</course>
  <speed>3.8631075573946942</speed>
  <fix>3d</fix>
</trkpt>
<trkpt lat="40.0736124" lon="-105.2295676">
  <ele>1602.92</ele>
  <time>2026-08-28T19:07:47Z</time>
  <course>335.07</course>
  <speed>3.85</speed>
  <fix>3d</fix>
</trkpt>
<trkpt lat="40.0736228" lon="-105.2295732">
  <ele>1603.62</ele>
  <time>2026-08-28T19:07:47Z</time>
  <course>336.2</course>
  <speed>3.880270609119936</speed>
  <fix>3d</fix>
</trkpt>
<trkpt lat="40.0736188" lon="-105.2295712">
  <ele>1603.28</ele>
  <time>2026-08-28T19:07:47Z</time>
  <course>338.86</course>
  <speed>3.86</speed>
  <fix>3d</fix>
</trkpt>
<trkpt lat="40.0736295" lon="-105.2295759">
  <ele>1603.99</ele>
  <time>2026-08-28T19:07:47Z</time>
  <course>339.85</course>
  <speed>3.9178182704153084</speed>
  <fix>3d</fix>
</trkpt>
<trkpt lat="40.0736254" lon="-105.2295742">
  <ele>1603.63</ele>
  <time>2026-08-28T19:07:47Z</time>
  <course>342.64</course>
  <speed>3.88</speed>
  <fix>3d</fix>
</trkpt>
<trkpt lat="40.0736364" lon="-105.229578">
  <ele>1604.37</ele>
  <time>2026-08-28T19:07:47Z</time>
  <course>343.44</course>
  <speed>3.981205847478877</speed>
  <fix>3d</fix>
</trkpt>
<trkpt lat="40.0736321" lon="-105.2295767">
  <ele>1604.01</ele>
  <time>2026-08-28T19:07:47Z</time>
  <course>346.38</course>
  <speed>3.92</speed>
  <fix>3d</fix>
</trkpt>
<trkpt lat="40.0736435" lon="-105.2295796">
  <ele>1604.76</ele>
  <time>2026-08-28T19:07:47Z</time>
  <course>346.92</course>
  <speed>4.048913434490789</speed>
  <fix>3d</fix>
</trkpt>
<trkpt lat="40.0736391" lon="-105.2295786">
  <ele>1604.38</ele>
  <time>2026-08-28T19:07:47Z</time>
  <course>350.04</course>
  <speed>3.99</speed>
  <fix>3d</fix>
</trkpt>
<trkpt lat="40.0736509" lon="-105.2295806">
  <ele>1605.16</ele>
  <time>2026-08-28T19:07:47Z</time>
  <course>350.26</course>
  <speed>4.153131348753613</speed>
  <fix>3d</fix>
</trkpt>
<trkpt lat="40.0736463" lon="-105.2295799">
  <ele>1604.78</ele>
  <time>2026-08-28T19:07:47Z</time>
  <course>353.6</course>
  <speed>4.07</speed>
  <fix>3d</fix>
</trkpt>
<trkpt lat="40.0736584" lon="-105.229581">
  <ele>1605.58</ele>
  <time>2026-08-28T19:07:47Z</time>
  <course>353.45</course>
  <speed>4.260950598164687</speed>
  <fix>3d</fix>
</trkpt>
<trkpt lat="40.0736536" lon="-105.2295807">
  <ele>1605.19</ele>
  <time>2026-08-28T19:07:47Z</time>
  <course>357.02</course>
  <speed>4.17</speed>
  <fix>3d</fix>
</trkpt>
<trkpt lat="40.0736662" lon="-105.2295809">
  <ele>1606.02</ele>
  <time>2026-08-28T19:07:47Z</time>
  <course>356.47</course>
  <speed>4.392231778947919</speed>
  <fix>3d</fix>
</trkpt>
<trkpt lat="40.0736612" lon="-105.229581">
  <ele>1605.61</ele>
  <time>2026-08-28T19:07:47Z</time>
  <course>0.29</course>
  <speed>4.29</speed>
  <fix>3d</fix>
</trkpt>
<trkpt lat="40.0736742" lon="-105.2295802">
  <ele>1606.46</ele>
  <time>2026-08-28T19:07:47Z</time>
  <course>359.4</course>
  <speed>4.5459102498839545</speed>
  <fix>3d</fix>
</trkpt>
<trkpt lat="40.0736691" lon="-105.2295806">
  <ele>1606.04</ele>
  <time>2026-08-28T19:07:47Z</time>
  <course>3.39</course>
  <speed>4.43</speed>
  <fix>3d</fix>
</trkpt>
<trkpt lat="40.0736825" lon="-105.2295791">
  <ele>1606.92</ele>
  <time>2026-08-28T19:07:47Z</time>
  <course>1.93</course>
  <speed>4.730803314448826</speed>
  <fix>3d</fix>
</trkpt>
<trkpt lat="40.0736772" lon="-105.2295798">
  <ele>1606.49</ele>
  <time>2026-08-28T19:07:47Z</time>
  <course>6.29</course>
  <speed>4.59</speed>
  <fix>3d</fix>
</trkpt>
<trkpt lat="40.0736911" lon="-105.2295773">
  <ele>1607.41</ele>
  <time>2026-08-28T19:07:47Z</time>
  <course>4.05</course>
  <speed>4.933771376948875</speed>
  <fix>3d</fix>
</trkpt>
<trkpt lat="40.0736855" lon="-105.2295784">
  <ele>1606.96</ele>
  <time>2026-08-28T19:07:47Z</time>
  <course>8.91</course>
  <speed>4.78</speed>
  <fix>3d</fix>
</trkpt>
<trkpt lat="40.0736999" lon="-105.2295749">
  <ele>1607.92</ele>
  <time>2026-08-28T19:07:47Z</time>
  <course>5.67</course>
  <speed>5.154415582779487</speed>
  <fix>3d</fix>
</trkpt>
<trkpt lat="40.0736942" lon="-105.2295763">
  <ele>1607.44</ele>
  <time>2026-08-28T19:07:47Z</time>
  <course>11.22</course>
  <speed>4.99</speed>
  <fix>3d</fix>
</trkpt>
<trkpt lat="40.073709" lon="-105.2295721">
  <ele>1608.43</ele>
  <time>2026-08-28T19:07:47Z</time>
  <course>7.62</course>
  <speed>5.3358035945862925</speed>
  <fix>3d</fix>
</trkpt>
<trkpt lat="40.0737031" lon="-105.2295738">
  <ele>1607.94</ele>
  <time>2026-08-28T19:07:47Z</time>
  <course>13.22</course>
  <speed>5.21</speed>
  <fix>3d</fix>
</trkpt>
<trkpt lat="40.0737184" lon="-105.2295688">
  <ele>1608.97</ele>
  <time>2026-08-28T19:07:47Z</time>
  <course>9.77</course>
  <speed>5.471179031982047</speed>
  <fix>3d</fix>
</trkpt>
<trkpt lat="40.0737124" lon="-105.2295707">
  <ele>1608.46</ele>
  <time>2026-08-28T19:07:47Z</time>
  <course>14.99</course>
  <speed>5.38</speed>
  <fix>3d</fix>
</trkpt>
<trkpt lat="40.0737279" lon="-105.2295651">
  <ele>1609.51</ele>
  <time>2026-08-28T19:07:47Z</time>
  <course>11.98</course>
  <speed>5.550900827793629</speed>
  <fix>3d</fix>
</trkpt>
<trkpt lat="40.0737218" lon="-105.2295672">
  <ele>1608.99</ele>
  <time>2026-08-28T19:07:47Z</time>
  <course>16.68</course>
  <speed>5.5</speed>
  <fix>3d</fix>
</trkpt>
<trkpt lat="40.0737373" lon="-105.2295609">
  <ele>1610.05</ele>
  <time>2026-08-28T19:07:47Z</time>
  <course>14.19</course>
  <speed>5.619759781342972</speed>
  <fix>3d</fix>
</trkpt>
<trkpt lat="40.0737313" lon="-105.2295633">
  <ele>1609.52</ele>
  <time>2026-08-28T19:07:47Z</time>
  <course>18.39</course>
  <speed>5.59</speed>
  <fix>3d</fix>
</trkpt>
<trkpt lat="40.0737468" lon="-105.2295563">
  <ele>1610.58</ele>
  <time>2026-08-28T19:07:47Z</time>
  <course>16.36</course>
  <speed>5.675464738679997</speed>
  <fix>3d</fix>
</trkpt>
<trkpt lat="40.0737408" lon="-105.229559">
  <ele>1610.05</ele>
  <time>2026-08-28T19:07:47Z</time>
  <course>20.18</course>
  <speed>5.65</speed>
  <fix>3d</fix>
</trkpt>
<trkpt lat="40.0737563" lon="-105.2295513">
  <ele>1611.1</ele>
  <time>2026-08-28T19:07:47Z</time>
  <course>18.46</course>
  <speed>5.718505049398837</speed>
  <fix>3d</fix>
</trkpt>
<trkpt lat="40.0737503" lon="-105.2295542">
  <ele>1610.56</ele>
  <time>2026-08-28T19:07:47Z</time>
  <course>22.0</course>
  <speed>5.71</speed>
  <fix>3d</fix>
</trkpt>
<trkpt lat="40.0737657" lon="-105.2295458">
  <ele>1611.61</ele>
  <time>2026-08-28T19:07:47Z</time>
  <course>20.46</course>
  <speed>5.767642499323272</speed>
  <fix>3d</fix>
</trkpt>
<trkpt lat="40.0737599" lon="-105.2295489">
  <ele>1611.07</ele>
  <time>2026-08-28T19:07:47Z</time>
  <course>23.81</course>
  <speed>5.76</speed>
  <fix>3d</fix>
</trkpt>
<trkpt lat="40.0737751" lon="-105.2295398">
  <ele>1612.12</ele>
  <time>2026-08-28T19:07:47Z</time>
  <course>22.37</course>
  <speed>5.8048600327656485</speed>
  <fix>3d</fix>
</trkpt>
<trkpt lat="40.0737692" lon="-105.2295432">
  <ele>1611.58</ele>
  <time>2026-08-28T19:07:47Z</time>
  <course>25.57</course>
  <speed>5.8</speed>
  <fix>3d</fix>
</trkpt>
<trkpt lat="40.0737843" lon="-105.2295335">
  <ele>1612.62</ele>
  <time>2026-08-28T19:07:47Z</time>
  <course>24.2</course>
  <speed>5.833532377556501</speed>
  <fix>3d</fix>
</trkpt>
<trkpt lat="40.0737787" lon="-105.2295371">
  <ele>1612.07</ele>
  <time>2026-08-28T19:07:47Z</time>
  <course>27.26</course>
  <speed>5.84</speed>
  <fix>3d</fix>
</trkpt>
<trkpt lat="40.0737936" lon="-105.2295268">
  <ele>1613.12</ele>
  <time>2026-08-28T19:07:47Z</time>
  <course>25.93</course>
  <speed>5.85322133529905</speed>
  <fix>3d</fix>
</trkpt>
<trkpt lat="40.0737879" lon="-105.2295307">
  <ele>1612.57</ele>
  <time>2026-08-28T19:07:47Z</time>
  <course>28.86</course>
  <speed>5.87</speed>
  <fix>3d</fix>
</trkpt>
<trkpt lat="40.0738027" lon="-105.2295198">
  <ele>1613.61</ele>
  <time>2026-08-28T19:07:47Z</time>
  <course>27.51</course>
  <speed>5.87212057096923</speed>
  <fix>3d</fix>
</trkpt>
<trkpt lat="40.0737972" lon="-105.2295239">
  <ele>1613.06</ele>
  <time>2026-08-28T19:07:47Z</time>
  <course>30.36</course>
  <speed>5.88</speed>
  <fix>3d</fix>
</trkpt>
<trkpt lat="40.0738117" lon="-105.2295125">
  <ele>1614.11</ele>
  <time>2026-08-28T19:07:47Z</time>
  <course>28.99</course>
  <speed>5.884165191426903</speed>
  <fix>3d</fix>
</trkpt>
<trkpt lat="40.0738063" lon="-105.2295167">
  <ele>1613.55</ele>
  <time>2026-08-28T19:07:47Z</time>
  <course>31.74</course>
  <speed>5.9</speed>
  <fix>3d</fix>
</trkpt>
<trkpt lat="40.0738206" lon="-105.2295048">
  <ele>1614.6</ele>
  <time>2026-08-28T19:07:47Z</time>
  <course>30.31</course>
  <speed>5.888174589802853</speed>
  <fix>3d</fix>
</trkpt>
<trkpt lat="40.0738152" lon="-105.2295092">
  <ele>1614.04</ele>
  <time>2026-08-28T19:07:47Z</time>
  <course>33.01</course>
  <speed>5.9</speed>
  <fix>3d</fix>
</trkpt>
<trkpt lat="40.0738294" lon="-105.229497">
  <ele>1615.09</ele>
  <time>2026-08-28T19:07:47Z</time>
  <course>31.52</course>
  <speed>5.888811425067031</speed>
  <fix>3d</fix>
</trkpt>
<trkpt lat="40.073824" lon="-105.2295015">
  <ele>1614.53</ele>
  <time>2026-08-28T19:07:47Z</time>
  <course>34.13</course>
  <speed>5.9</speed>
  <fix>3d</fix>
</trkpt>
<trkpt lat="40.0738381" lon="-105.229489">
  <ele>1615.58</ele>
  <time>2026-08-28T19:07:47Z</time>
  <course>32.55</course>
  <speed>5.893759411445297</speed>
  <fix>3d</fix>
</trkpt>
<trkpt lat="40.0738328" lon="-105.2294937">
  <ele>1615.02</ele>
  <time>2026-08-28T19:07:47Z</time>
  <course>35.12</course>
  <speed>5.9</speed>
  <fix>3d</fix>
</trkpt>
<trkpt lat="40.0738467" lon="-105.2294808">
  <ele>1616.07</ele>
  <time>2026-08-28T19:07:47Z</time>
  <course>33.43</course>
  <speed>5.88836989327267</speed>
  <fix>3d</fix>
</trkpt>
<trkpt lat="40.0738414" lon="-105.2294856">
  <ele>1615.52</ele>
  <time>2026-08-28T19:07:47Z</time>
  <course>35.96</course>
  <speed>5.9</speed>
  <fix>3d</fix>
</trkpt>
<trkpt lat="40.0738552" lon="-105.2294725">
  <ele>1616.57</ele>
  <time>2026-08-28T19:07:47Z</time>
  <course>34.14</course>
  <speed>5.88600033978932</speed>
  <fix>3d</fix>
</trkpt>
<trkpt lat="40.0738499" lon="-105.2294774">
  <ele>1616.01</ele>
  <time>2026-08-28T19:07:47Z</time>
  <course>36.66</course>
  <speed>5.9</speed>
  <fix>3d</fix>
</trkpt>
<trkpt lat="40.0738637" lon="-105.2294641">
  <ele>1617.06</ele>
  <time>2026-08-28T19:07:47Z</time>
  <course>34.71</course>
  <speed>5.888098164942565</speed>
  <fix>3d</fix>
</trkpt>
<trkpt lat="40.0738584" lon="-105.2294691">
  <ele>1616.51</ele>
  <time>2026-08-28T19:07:47Z</time>
  <course>37.21</course>
  <speed>5.89</speed>
  <fix>3d</fix>
</trkpt>
<trkpt lat="40.0738721" lon="-105.2294556">
  <ele>1617.56</ele>
  <time>2026-08-28T19:07:47Z</time>
  <course>35.13</course>
  <speed>5.890415944566224</speed>
  <fix>3d</fix>
</trkpt>
<trkpt lat="40.0738668" lon="-105.2294607">
  <ele>1617.01</ele>
  <time>2026-08-28T19:07:47Z</time>
  <course>37.63</course>
  <speed>5.89</speed>
  <fix>3d</fix>
</trkpt>
<trkpt lat="40.0738805" lon="-105.2294471">
  <ele>1618.06</ele>
  <time>2026-08-28T19:07:47Z</time>
  <course>35.42</course>
  <speed>5.894717974593865</speed>
  <fix>3d</fix>
</trkpt>
<trkpt lat="40.0738751" lon="-105.2294522">
  <ele>1617.51</ele>
  <time>2026-08-28T19:07:47Z</time>
  <course>37.92</course>
  <speed>5.89</speed>
  <fix>3d</fix>
</trkpt>
<trkpt lat="40.0738889" lon="-105.2294385">
  <ele>1618.55</ele>
  <time>2026-08-28T19:07:47Z</time>
  <course>35.59</course>
  <speed>5.892953419126949</speed>
  <fix>3d</fix>
</trkpt>
<trkpt lat="40.0738835" lon="-105.2294437">
  <ele>1618.01</ele>
  <time>2026-08-28T19:07:47Z</time>
  <course>38.09</course>
  <speed>5.89</speed>
  <fix>3d</fix>
</trkpt>
<trkpt lat="40.0738972" lon="-105.2294299">
  <ele>1619.05</ele>
  <time>2026-08-28T19:07:47Z</time>
  <course>35.68</course>
  <speed>5.906987387831465</speed>
  <fix>3d</fix>
</trkpt>
<trkpt lat="40.0738919" lon="-105.2294352">
  <ele>1618.51</ele>
  <time>2026-08-28T19:07:47Z</time>
  <course>38.15</course>
  <speed>5.9</speed>
  <fix>3d</fix>
</trkpt>
<trkpt lat="40.0739056" lon="-105.2294214">
  <ele>1619.55</ele>
  <time>2026-08-28T19:07:47Z</time>
  <course>35.67</course>
  <speed>5.908747752273743</speed>
  <fix>3d</fix>
</trkpt>
<trkpt lat="40.0739002" lon="-105.2294266">
  <ele>1619.01</ele>
  <time>2026-08-28T19:07:47Z</time>
  <course>38.12</course>
  <speed>5.9</speed>
  <fix>3d</fix>
</trkpt>
<trkpt lat="40.073914" lon="-105.2294128">
  <ele>1620.06</ele>
  <time>2026-08-28T19:07:47Z</time>
  <course>35.54</course>
  <speed>5.924567494762804</speed>
  <fix>3d</fix>
</trkpt>
<trkpt lat="40.0739085" lon="-105.229418">
  <ele>1619.51</ele>
  <time>2026-08-28T19:07:47Z</time>
  <course>38.0</course>
  <speed>5.91</speed>
  <fix>3d</fix>
</trkpt>
<trkpt lat="40.0739224" lon="-105.2294042">
  <ele>1620.56</ele>
  <time>2026-08-28T19:07:47Z</time>
  <course>35.39</course>
  <speed>5.934323887352291</speed>
  <fix>3d</fix>
</trkpt>
<trkpt lat="40.0739169" lon="-105.2294095">
  <ele>1620.01</ele>
  <time>2026-08-28T19:07:47Z</time>
  <course>37.82</course>
  <speed>5.92</speed>
  <fix>3d</fix>
</trkpt>
<trkpt lat="40.0739309" lon="-105.2293957">
  <ele>1621.07</ele>
  <time>2026-08-28T19:07:47Z</time>
  <course>35.19</course>
  <speed>5.946065926307915</speed>
  <fix>3d</fix>
</trkpt>
<trkpt lat="40.0739254" lon="-105.2294009">
  <ele>1620.51</ele>
  <time>2026-08-28T19:07:47Z</time>
  <course>37.58</course>
  <speed>5.93</speed>
  <fix>3d</fix>
</trkpt>
<trkpt lat="40.0739394" lon="-105.2293873">
  <ele>1621.58</ele>
  <time>2026-08-28T19:07:47Z</time>
  <course>34.96</course>
  <speed>5.95800302114727</speed>
  <fix>3d</fix>
</trkpt>
<trkpt lat="40.0739338" lon="-105.2293924">
  <ele>1621.02</ele>
  <time>2026-08-28T19:07:47Z</time>
  <course>37.29</course>
  <speed>5.94</speed>
  <fix>3d</fix>
</trkpt>
<trkpt lat="40.073948" lon="-105.2293788">
  <ele>1622.08</ele>
  <time>2026-08-28T19:07:47Z</time>
  <course>34.67</course>
  <speed>5.97013400184619</speed>
  <fix>3d</fix>
</trkpt>
<trkpt lat="40.0739424" lon="-105.2293841">
  <ele>1621.52</ele>
  <time>2026-08-28T19:07:47Z</time>
  <course>36.97</course>
  <speed>5.95</speed>
  <fix>3d</fix>
</trkpt>
<trkpt lat="40.0739566" lon="-105.2293705">
  <ele>1622.58</ele>
  <time>2026-08-28T19:07:47Z</time>
  <course>34.34</course>
  <speed>5.982457688943566</speed>
  <fix>3d</fix>
</trkpt>
<trkpt lat="40.073951" lon="-105.2293756">
  <ele>1622.02</ele>
  <time>2026-08-28T19:07:47Z</time>
  <course>36.62</course>
  <speed>5.96</speed>
  <fix>3d</fix>
</trkpt>
<trkpt lat="40.0739653" lon="-105.2293622">
  <ele>1623.07</ele>
  <time>2026-08-28T19:07:47Z</time>
  <course>33.95</course>
  <speed>5.989123475100509</speed>
  <fix>3d</fix>
</trkpt>
<trkpt lat="40.0739595" lon="-105.2293673">
  <ele>1622.51</ele>
  <time>2026-08-28T19:07:47Z</time>
  <course>36.24</course>
  <speed>5.97</speed>
  <fix>3d</fix>
</trkpt>
<trkpt lat="40.073974" lon="-105.229354">
  <ele>1623.58</ele>
  <time>2026-08-28T19:07:47Z</time>
  <course>33.6</course>
  <speed>5.996082054141688</speed>
  <fix>3d</fix>
</trkpt>
<trkpt lat="40.0739683" lon="-105.2293591">
  <ele>1623.01</ele>
  <time>2026-08-28T19:07:47Z</time>
  <course>35.83</course>
  <speed>5.98</speed>
  <fix>3d</fix>
</trkpt>
<trkpt lat="40.0739828" lon="-105.2293459">
  <ele>1624.07</ele>
  <time>2026-08-28T19:07:47Z</time>
  <course>33.23</course>
  <speed>5.997607856470778</speed>
  <fix>3d</fix>
</trkpt>
<trkpt lat="40.073977" lon="-105.2293509">
  <ele>1623.51</ele>
  <time>2026-08-28T19:07:47Z</time>
  <course>35.4</course>
  <speed>5.99</speed>
  <fix>3d</fix>
</trkpt>
<trkpt lat="40.0739916" lon="-105.2293378">
  <ele>1624.57</ele>
  <time>2026-08-28T19:07:47Z</time>
  <course>32.83</course>
  <speed>5.9995499831237336</speed>
  <fix>3d</fix>
</trkpt>
<trkpt lat="40.0739858" lon="-105.2293428">
  <ele>1624.01</ele>
  <time>2026-08-28T19:07:47Z</time>
  <course>34.95</course>
  <speed>5.99</speed>
  <fix>3d</fix>
</trkpt>
<trkpt lat="40.0740004" lon="-105.2293299">
  <ele>1625.07</ele>
  <time>2026-08-28T19:07:47Z</time>
  <course>32.44</course>
  <speed>5.988029726045121</speed>
  <fix>3d</fix>
</trkpt>
<trkpt lat="40.0739947" lon="-105.2293348">
  <ele>1624.51</ele>
  <time>2026-08-28T19:07:47Z</time>
  <course>34.48</course>
  <speed>5.99</speed>
  <fix>3d</fix>
</trkpt>
<trkpt lat="40.0740093" lon="-105.2293221">
  <ele>1625.57</ele>
  <time>2026-08-28T19:07:47Z</time>
  <course>32.02</course>
  <speed>5.968626307618864</speed>
  <fix>3d</fix>
</trkpt>
<trkpt lat="40.0740036" lon="-105.2293268">
  <ele>1625.01</ele>
  <time>2026-08-28T19:07:47Z</time>
  <course>33.99</course>
  <speed>5.98</speed>
  <fix>3d</fix>
</trkpt>
<trkpt lat="40.0740182" lon="-105.2293144">
  <ele>1626.07</ele>
  <time>2026-08-28T19:07:47Z</time>
  <course>31.56</course>
  <speed>5.952554073672913</speed>
  <fix>3d</fix>
</trkpt>
<trkpt lat="40.0740125" lon="-105.229319">
  <ele>1625.52</ele>
  <time>2026-08-28T19:07:47Z</time>
  <course>33.46</course>
  <speed>5.96</speed>
  <fix>3d</fix>
</trkpt>
<trkpt lat="40.0740272" lon="-105.2293068">
  <ele>1626.57</ele>
  <time>2026-08-28T19:07:47Z</time>
  <course>31.05</course>
  <speed>5.9233183267489515</speed>
  <fix>3d</fix>
</trkpt>
<trkpt lat="40.0740215" lon="-105.2293114">
  <ele>1626.02</ele>
  <time>2026-08-28T19:07:47Z</time>
  <course>32.89</course>
  <speed>5.94</speed>
  <fix>3d</fix>
</trkpt>
<trkpt lat="40.0740362" lon="-105.2292995">
  <ele>1627.07</ele>
  <time>2026-08-28T19:07:47Z</time>
  <course>30.48</course>
  <speed>5.894785831563349</speed>
  <fix>3d</fix>
</trkpt>
<trkpt lat="40.0740304" lon="-105.2293038">
  <ele>1626.52</ele>
  <time>2026-08-28T19:07:47Z</time>
  <course>32.27</course>
  <speed>5.91</speed>
  <fix>3d</fix>
</trkpt>
<trkpt lat="40.0740452" lon="-105.2292923">
  <ele>1627.58</ele>
  <time>2026-08-28T19:07:47Z</time>
  <course>29.87</course>
  <speed>5.848110806063784</speed>
  <fix>3d</fix>
</trkpt>
<trkpt lat="40.0740394" lon="-105.2292966">
  <ele>1627.02</ele>
  <time>2026-08-28T19:07:47Z</time>
  <course>31.58</course>
  <speed>5.87</speed>
  <fix>3d</fix>
</trkpt>
<trkpt lat="40.0740541" lon="-105.2292853">
  <ele>1628.08</ele>
  <time>2026-08-28T19:07:47Z</time>
  <course>29.15</course>
  <speed>5.797447714296352</speed>
  <fix>3d</fix>
</trkpt>
<trkpt lat="40.0740483" lon="-105.2292894">
  <ele>1627.53</ele>
  <time>2026-08-28T19:07:47Z</time>
  <course>30.82</course>
  <speed>5.83</speed>
  <fix>3d</fix>
</trkpt>
<trkpt lat="40.0740632" lon="-105.2292785">
  <ele>1628.58</ele>
  <time>2026-08-28T19:07:47Z</time>
  <course>28.41</course>
  <speed>5.73934665271231</speed>
  <fix>3d</fix>
</trkpt>
<trkpt lat="40.0740574" lon="-105.2292826">
  <ele>1628.03</ele>
  <time>2026-08-28T19:07:47Z</time>
  <course>29.97</course>
  <speed>5.78</speed>
  <fix>3d</fix>
</trkpt>
<trkpt lat="40.0740721" lon="-105.229272">
  <ele>1629.08</ele>
  <time>2026-08-28T19:07:47Z</time>
  <course>27.54</course>
  <speed>5.681769090697016</speed>
  <fix>3d</fix>
</trkpt>
<trkpt lat="40.0740664" lon="-105.2292759">
  <ele>1628.54</ele>
  <time>2026-08-28T19:07:47Z</time>
  <course>29.04</course>
  <speed>5.72</speed>
  <fix>3d</fix>
</trkpt>
<trkpt lat="40.0740811" lon="-105.2292659">
  <ele>1629.58</ele>
  <time>2026-08-28T19:07:47Z</time>
  <course>26.56</course>
  <speed>5.612708793443679</speed>
  <fix>3d</fix>
</trkpt>
<trkpt lat="40.0740754" lon="-105.2292695">
  <ele>1629.04</ele>
  <time>2026-08-28T19:07:47Z</time>
  <course>28.02</course>
  <speed>5.65</speed>
  <fix>3d</fix>
</trkpt>
<trkpt lat="40.0740901" lon="-105.22926">
  <ele>1630.08</ele>
  <time>2026-08-28T19:07:47Z</time>
  <course>25.46</course>
  <speed>5.532494916400737</speed>
  <fix>3d</fix>
</trkpt>
<trkpt lat="40.0740844" lon="-105.2292634">
  <ele>1629.55</ele>
  <time>2026-08-28T19:07:47Z</time>
  <course>26.87</course>
  <speed>5.58</speed>
  <fix>3d</fix>
</trkpt>
<trkpt lat="40.074099" lon="-105.2292544">
  <ele>1630.58</ele>
  <time>2026-08-28T19:07:47Z</time>
  <course>24.22</course>
  <speed>5.459716109835748</speed>
  <fix>3d</fix>
</trkpt>
<trkpt lat="40.0740933" lon="-105.2292577">
  <ele>1630.05</ele>
  <time>2026-08-28T19:07:47Z</time>
  <course>25.61</course>
  <speed>5.5</speed>
  <fix>3d</fix>
</trkpt>
<trkpt lat="40.0741079" lon="-105.2292492">
  <ele>1631.08</ele>
  <time>2026-08-28T19:07:47Z</time>
  <course>22.79</course>
  <speed>5.377034498680477</speed>
  <fix>3d</fix>
</trkpt>
<trkpt lat="40.0741022" lon="-105.2292523">
  <ele>1630.55</ele>
  <time>2026-08-28T19:07:47Z</time>
  <course>24.21</course>
  <speed>5.42</speed>
  <fix>3d</fix>
</trkpt>
<trkpt lat="40.0741168" lon="-105.2292445">
  <ele>1631.58</ele>
  <time>2026-08-28T19:07:47Z</time>
  <course>21.28</course>
  <speed>5.303630831798156</speed>
  <fix>3d</fix>
</trkpt>
<trkpt lat="40.074111" lon="-105.2292472">
  <ele>1631.05</ele>
  <time>2026-08-28T19:07:47Z</time>
  <course>22.68</course>
  <speed>5.34</speed>
  <fix>3d</fix>
</trkpt>
<trkpt lat="40.0741256" lon="-105.2292401">
  <ele>1632.08</ele>
  <time>2026-08-28T19:07:47Z</time>
  <course>19.57</course>
  <speed>5.221963232348539</speed>
  <fix>3d</fix>
</trkpt>
<trkpt lat="40.0741199" lon="-105.2292425">
  <ele>1631.55</ele>
  <time>2026-08-28T19:07:47Z</time>
  <course>20.99</course>
  <speed>5.26</speed>
  <fix>3d</fix>
</trkpt>
<trkpt lat="40.0741344" lon="-105.2292361">
  <ele>1632.59</ele>
  <time>2026-08-28T19:07:47Z</time>
  <course>17.74</course>
  <speed>5.151863740434135</speed>
  <fix>3d</fix>
</trkpt>
<trkpt lat="40.0741287" lon="-105.2292383">
  <ele>1632.05</ele>
  <time>2026-08-28T19:07:47Z</time>
  <course>19.16</course>
  <speed>5.19</speed>
  <fix>3d</fix>
</trkpt>
<trkpt lat="40.0741432" lon="-105.2292327">
  <ele>1633.09</ele>
  <time>2026-08-28T19:07:47Z</time>
  <course>15.71</course>
  <speed>5.08523352462795</speed>
  <fix>3d</fix>
</trkpt>
<trkpt lat="40.0741376" lon="-105.2292346">
  <ele>1632.55</ele>
  <time>2026-08-28T19:07:47Z</time>
  <course>17.16</course>
  <speed>5.11</speed>
  <fix>3d</fix>
</trkpt>
<trkpt lat="40.074152" lon="-105.2292296">
  <ele>1633.59</ele>
  <time>2026-08-28T19:07:47Z</time>
  <course>13.47</course>
  <speed>5.023405219569689</speed>
  <fix>3d</fix>
</trkpt>
<trkpt lat="40.0741463" lon="-105.2292313">
  <ele>1633.05</ele>
  <time>2026-08-28T19:07:47Z</time>
  <course>15.01</course>
  <speed>5.05</speed>
  <fix>3d</fix>
</trkpt>
<trkpt lat="40.0741607" lon="-105.2292271">
  <ele>1634.08</ele>
  <time>2026-08-28T19:07:47Z</time>
  <course>11.11</course>
  <speed>4.958003630494838</speed>
  <fix>3d</fix>
</trkpt>
<trkpt lat="40.0741551" lon="-105.2292285">
  <ele>1633.55</ele>
  <time>2026-08-28T19:07:47Z</time>
  <course>12.69</course>
  <speed>4.99</speed>
  <fix>3d</fix>
</trkpt>
<trkpt lat="40.0741694" lon="-105.2292252">
  <ele>1634.58</ele>
  <time>2026-08-28T19:07:47Z</time>
  <course>8.63</course>
  <speed>4.921483516176804</speed>
  <fix>3d</fix>
</trkpt>
<trkpt lat="40.0741638" lon="-105.2292261">
  <ele>1634.05</ele>
  <time>2026-08-28T19:07:47Z</time>
  <course>10.22</course>
  <speed>4.93</speed>
  <fix>3d</fix>
</trkpt>
<trkpt lat="40.0741781" lon="-105.2292237">
  <ele>1635.07</ele>
  <time>2026-08-28T19:07:47Z</time>
  <course>5.99</course>
  <speed>4.8836461788299115</speed>
  <fix>3d</fix>
</trkpt>
<trkpt lat="40.0741726" lon="-105.2292243">
  <ele>1634.55</ele>
  <time>2026-08-28T19:07:47Z</time>
  <course>7.62</course>
  <speed>4.89</speed>
  <fix>3d</fix>
</trkpt>
<trkpt lat="40.0741868" lon="-105.2292228">
  <ele>1635.57</ele>
  <time>2026-08-28T19:07:47Z</time>
  <course>3.35</course>
  <speed>4.835959056898642</speed>
  <fix>3d</fix>
</trkpt>
<trkpt lat="40.0741813" lon="-105.2292231">
  <ele>1635.04</ele>
  <time>2026-08-28T19:07:47Z</time>
  <course>4.91</course>
  <speed>4.85</speed>
  <fix>3d</fix>
</trkpt>
<trkpt lat="40.0741954" lon="-105.2292225">
  <ele>1636.06</ele>
  <time>2026-08-28T19:07:47Z</time>
  <course>0.72</course>
  <speed>4.76</speed>
  <fix>3d</fix>
</trkpt>
<trkpt lat="40.0741899" lon="-105.2292224">
  <ele>1635.53</ele>
  <time>2026-08-28T19:07:47Z</time>
  <course>2.08</course>
  <speed>4.8</speed>
  <fix>3d</fix>
</trkpt>
<trkpt lat="40.0742038" lon="-105.2292227">
  <ele>1636.54</ele>
  <time>2026-08-28T19:07:47Z</time>
  <course>358.08</course>
  <speed>4.63621612956083</speed>
  <fix>3d</fix>
</trkpt>
<trkpt lat="40.0741985" lon="-105.2292223">
  <ele>1636.02</ele>
  <time>2026-08-28T19:07:47Z</time>
  <course>359.11</course>
  <speed>4.71</speed>
  <fix>3d</fix>
</trkpt>
<trkpt lat="40.0742119" lon="-105.2292234">
  <ele>1637.0</ele>
  <time>2026-08-28T19:07:47Z</time>
  <course>355.39</course>
  <speed>4.484696199298231</speed>
  <fix>3d</fix>
</trkpt>
<trkpt lat="40.0742068" lon="-105.2292226">
  <ele>1636.49</ele>
  <time>2026-08-28T19:07:47Z</time>
  <course>356.04</course>
  <speed>4.58</speed>
  <fix>3d</fix>
</trkpt>
<trkpt lat="40.0742197" lon="-105.2292247">
  <ele>1637.43</ele>
  <time>2026-08-28T19:07:47Z</time>
  <course>352.57</course>
  <speed>4.3352623911362045</speed>
  <fix>3d</fix>
</trkpt>
<trkpt lat="40.0742149" lon="-105.2292236">
  <ele>1636.95</ele>
  <time>2026-08-28T19:07:47Z</time>
  <course>352.9</course>
  <speed>4.43</speed>
  <fix>3d</fix>
</trkpt>
<trkpt lat="40.0742273" lon="-105.2292266">
  <ele>1637.84</ele>
  <time>2026-08-28T19:07:47Z</time>
  <course>349.49</course>
  <speed>4.201951927378513</speed>
  <fix>3d</fix>
</trkpt>
<trkpt lat="40.0742226" lon="-105.2292252">
  <ele>1637.37</ele>
  <time>2026-08-28T19:07:47Z</time>
  <course>349.61</course>
  <speed>4.29</speed>
  <fix>3d</fix>
</trkpt>
<trkpt lat="40.0742344" lon="-105.229229">
  <ele>1638.22</ele>
  <time>2026-08-28T19:07:47Z</time>
  <course>346.08</course>
  <speed>4.072800019642506</speed>
  <fix>3d</fix>
</trkpt>
<trkpt lat="40.07423" lon="-105.2292273">
  <ele>1637.77</ele>
  <time>2026-08-28T19:07:47Z</time>
  <course>346.09</course>
  <speed>4.15</speed>
  <fix>3d</fix>
</trkpt>
<trkpt lat="40.0742413" lon="-105.2292319">
  <ele>1638.59</ele>
  <time>2026-08-28T19:07:47Z</time>
  <course>342.29</course>
  <speed>3.9642527669158536</speed>
  <fix>3d</fix>
</trkpt>
<trkpt lat="40.0742371" lon="-105.2292299">
  <ele>1638.15</ele>
  <time>2026-08-28T19:07:47Z</time>
  <course>342.29</course>
  <speed>4.03</speed>
  <fix>3d</fix>
</trkpt>
<trkpt lat="40.0742478" lon="-105.2292354">
  <ele>1638.93</ele>
  <time>2026-08-28T19:07:48Z</time>
  <course>338.23</course>
  <speed>3.8756805853940026</speed>
  <fix>3d</fix>
</trkpt>
<trkpt lat="40.0742439" lon="-105.229233">
  <ele>1638.51</ele>
  <time>2026-08-28T19:07:48Z</time>
  <course>338.21</course>
  <speed>3.93</speed>
  <fix>3d</fix>
</trkpt>
<trkpt lat="40.074254" lon="-105.2292394">
  <ele>1639.27</ele>
  <time>2026-08-28T19:07:48Z</time>
  <course>333.96</course>
  <speed>3.7997105152892896</speed>
  <fix>3d</fix>
</trkpt>
<trkpt lat="40.0742502" lon="-105.2292368">
  <ele>1638.86</ele>
  <time>2026-08-28T19:07:48Z</time>
  <course>333.92</course>
  <speed>3.84</speed>
  <fix>3d</fix>
</trkpt>
<trkpt lat="40.0742598" lon="-105.229244">
  <ele>1639.59</ele>
  <time>2026-08-28T19:07:48Z</time>
  <course>329.56</course>
  <speed>3.749946666287402</speed>
  <fix>3d</fix>
</trkpt>
<trkpt lat="40.0742563" lon="-105.229241">
  <ele>1639.19</ele>
  <time>2026-08-28T19:07:48Z</time>
  <course>329.53</course>
  <speed>3.77</speed>
  <fix>3d</fix>
</trkpt>
<trkpt lat="40.0742653" lon="-105.229249">
  <ele>1639.9</ele>
  <time>2026-08-28T19:07:48Z</time>
  <course>325.18</course>
  <speed>3.722284244922733</speed>
  <fix>3d</fix>
</trkpt>
<trkpt lat="40.0742619" lon="-105.2292458">
  <ele>1639.5</ele>
  <time>2026-08-28T19:07:48Z</time>
  <course>325.1</course>
  <speed>3.72</speed>
  <fix>3d</fix>
</trkpt>
<trkpt lat="40.0742704" lon="-105.2292546">
  <ele>1640.2</ele>
  <time>2026-08-28T19:07:48Z</time>
  <course>320.85</course>
  <speed>3.7254261501202786</speed>
  <fix>3d</fix>
</trkpt>
<trkpt lat="40.0742673" lon="-105.229251">
  <ele>1639.81</ele>
  <time>2026-08-28T19:07:48Z</time>
  <course>320.73</course>
  <speed>3.71</speed>
  <fix>3d</fix>
</trkpt>
<trkpt lat="40.0742753" lon="-105.2292607">
  <ele>1640.48</ele>
  <time>2026-08-28T19:07:48Z</time>
  <course>316.7</course>
  <speed>3.748092848369688</speed>
  <fix>3d</fix>
</trkpt>
<trkpt lat="40.0742722" lon="-105.2292568">
  <ele>1640.1</ele>
  <time>2026-08-28T19:07:48Z</time>
  <course>316.51</course>
  <speed>3.71</speed>
  <fix>3d</fix>
</trkpt>
<trkpt lat="40.0742798" lon="-105.2292672">
  <ele>1640.76</ele>
  <time>2026-08-28T19:07:48Z</time>
  <course>312.77</course>
  <speed>3.7887464945546303</speed>
  <fix>3d</fix>
</trkpt>
<trkpt lat="40.0742769" lon="-105.229263">
  <ele>1640.38</ele>
  <time>2026-08-28T19:07:48Z</time>
  <course>312.5</course>
  <speed>3.74</speed>
  <fix>3d</fix>
</trkpt>
<trkpt lat="40.074284" lon="-105.2292742">
  <ele>1641.01</ele>
  <time>2026-08-28T19:07:48Z</time>
  <course>309.11</course>
  <speed>3.858004665627039</speed>
  <fix>3d</fix>
</trkpt>
<trkpt lat="40.0742814" lon="-105.2292697">
  <ele>1640.65</ele>
  <time>2026-08-28T19:07:48Z</time>
  <course>308.74</course>
  <speed>3.79</speed>
  <fix>3d</fix>
</trkpt>
<trkpt lat="40.074288" lon="-105.2292817">
  <ele>1641.26</ele>
  <time>2026-08-28T19:07:48Z</time>
  <course>305.68</course>
  <speed>3.9495442775084824</speed>
  <fix>3d</fix>
</trkpt>
<trkpt lat="40.0742855" lon="-105.2292769">
  <ele>1640.9</ele>
  <time>2026-08-28T19:07:48Z</time>
  <course>305.24</course>
  <speed>3.87</speed>
  <fix>3d</fix>
</trkpt>
<trkpt lat="40.0742918" lon="-105.2292897">
  <ele>1641.49</ele>
  <time>2026-08-28T19:07:48Z</time>
  <course>302.5</course>
  <speed>4.0511233010117085</speed>
  <fix>3d</fix>
</trkpt>
<trkpt lat="40.0742894" lon="-105.2292846">
  <ele>1641.15</ele>
  <time>2026-08-28T19:07:48Z</time>
  <course>301.99</course>
  <speed>3.96</speed>
  <fix>3d</fix>
</trkpt>
<trkpt lat="40.0742953" lon="-105.2292982">
  <ele>1641.71</ele>
  <time>2026-08-28T19:07:48Z</time>
  <course>299.58</course>
  <speed>4.159627387158614</speed>
  <fix>3d</fix>
</trkpt>
<trkpt lat="40.074293" lon="-105.2292927">
  <ele>1641.38</ele>
  <time>2026-08-28T19:07:48Z</time>
  <course>298.99</course>
  <speed>4.06</speed>
  <fix>3d</fix>
</trkpt>
<trkpt lat="40.0742986" lon="-105.229307">
  <ele>1641.91</ele>
  <time>2026-08-28T19:07:48Z</time>
  <course>296.92</course>
  <speed>4.272996606598231</speed>
  <fix>3d</fix>
</trkpt>
<trkpt lat="40.0742965" lon="-105.2293013">
  <ele>1641.6</ele>
  <time>2026-08-28T19:07:48Z</time>
  <course>296.19</course>
  <speed>4.17</speed>
  <fix>3d</fix>
</trkpt>
<trkpt lat="40.0743017" lon="-105.2293163">
  <ele>1642.09</ele>
  <time>2026-08-28T19:07:48Z</time>
  <course>294.44</course>
  <speed>4.350919443060283</speed>
  <fix>3d</fix>
</trkpt>
<trkpt lat="40.0742997" lon="-105.2293103">
  <ele>1641.8</ele>
  <time>2026-08-28T19:07:48Z</time>
  <course>293.55</course>
  <speed>4.27</speed>
  <fix>3d</fix>
</trkpt>
<trkpt lat="40.0743044" lon="-105.229326">
  <ele>1642.26</ele>
  <time>2026-08-28T19:07:48Z</time>
  <course>292.04</course>
  <speed>4.415427499121687</speed>
  <fix>3d</fix>
</trkpt>
<trkpt lat="40.0743025" lon="-105.2293196">
  <ele>1641.99</ele>
  <time>2026-08-28T19:07:48Z</time>
  <course>291.01</course>
  <speed>4.35</speed>
  <fix>3d</fix>
</trkpt>
<trkpt lat="40.0743069" lon="-105.2293358">
  <ele>1642.42</ele>
  <time>2026-08-28T19:07:48Z</time>
  <course>289.8</course>
  <speed>4.459820624195552</speed>
  <fix>3d</fix>
</trkpt>
<trkpt lat="40.0743053" lon="-105.2293293">
  <ele>1642.15</ele>
  <time>2026-08-28T19:07:48Z</time>
  <course>288.56</course>
  <speed>4.4</speed>
  <fix>3d</fix>
</trkpt>
<trkpt lat="40.0743091" lon="-105.2293458">
  <ele>1642.55</ele>
  <time>2026-08-28T19:07:48Z</time>
  <course>287.72</course>
  <speed>4.482688925187649</speed>
  <fix>3d</fix>
</trkpt>
<trkpt lat="40.0743077" lon="-105.2293392">
  <ele>1642.3</ele>
  <time>2026-08-28T19:07:48Z</time>
  <course>286.21</course>
  <speed>4.44</speed>
  <fix>3d</fix>
</trkpt>
<trkpt lat="40.074311" lon="-105.2293559">
  <ele>1642.65</ele>
  <time>2026-08-28T19:07:48Z</time>
  <course>285.71</course>
  <speed>4.502454885948331</speed>
  <fix>3d</fix>
</trkpt>
<trkpt lat="40.0743097" lon="-105.2293493">
  <ele>1642.42</ele>
  <time>2026-08-28T19:07:48Z</time>
  <course>283.97</course>
  <speed>4.47</speed>
  <fix>3d</fix>
</trkpt>
<trkpt lat="40.0743126" lon="-105.2293662">
  <ele>1642.73</ele>
  <time>2026-08-28T19:07:48Z</time>
  <course>283.69</course>
  <speed>4.516912662427734</speed>
  <fix>3d</fix>
</trkpt>
<trkpt lat="40.0743115" lon="-105.2293596">
  <ele>1642.53</ele>
  <time>2026-08-28T19:07:48Z</time>
  <course>281.78</course>
  <speed>4.49</speed>
  <fix>3d</fix>
</trkpt>
<trkpt lat="40.0743139" lon="-105.2293766">
  <ele>1642.79</ele>
  <time>2026-08-28T19:07:48Z</time>
  <course>281.62</course>
  <speed>4.528355109750118</speed>
  <fix>3d</fix>
</trkpt>
<trkpt lat="40.074313" lon="-105.2293699">
  <ele>1642.61</ele>
  <time>2026-08-28T19:07:48Z</time>
  <course>279.58</course>
  <speed>4.5</speed>
  <fix>3d</fix>
</trkpt>
<trkpt lat="40.0743149" lon="-105.2293871">
  <ele>1642.84</ele>
  <time>2026-08-28T19:07:48Z</time>
  <course>279.46</course>
  <speed>4.525527593551939</speed>
  <fix>3d</fix>
</trkpt>
<trkpt lat="40.0743142" lon="-105.2293804">
  <ele>1642.66</ele>
  <time>2026-08-28T19:07:48Z</time>
  <course>277.32</course>
  <speed>4.51</speed>
  <fix>3d</fix>
</trkpt>
<trkpt lat="40.0743156" lon="-105.2293977">
  <ele>1642.85</ele>
  <time>2026-08-28T19:07:48Z</time>
  <course>277.22</course>
  <speed>4.519314107251232</speed>
  <fix>3d</fix>
</trkpt>
<trkpt lat="40.0743151" lon="-105.2293909">
  <ele>1642.7</ele>
  <time>2026-08-28T19:07:48Z</time>
  <course>274.97</course>
  <speed>4.51</speed>
  <fix>3d</fix>
</trkpt>
<trkpt lat="40.0743159" lon="-105.2294082">
  <ele>1642.85</ele>
  <time>2026-08-28T19:07:48Z</time>
  <course>274.89</course>
  <speed>4.500899910017996</speed>
  <fix>3d</fix>
</trkpt>
<trkpt lat="40.0743156" lon="-105.2294015">
  <ele>1642.71</ele>
  <time>2026-08-28T19:07:48Z</time>
  <course>272.54</course>
  <speed>4.5</speed>
  <fix>3d</fix>
</trkpt>
<trkpt lat="40.0743158" lon="-105.2294187">
  <ele>1642.83</ele>
  <time>2026-08-28T19:07:48Z</time>
  <course>272.45</course>
  <speed>4.481115932443614</speed>
  <fix>3d</fix>
</trkpt>
<trkpt lat="40.0743158" lon="-105.2294121">
  <ele>1642.7</ele>
  <time>2026-08-28T19:07:48Z</time>
  <course>270.02</course>
  <speed>4.48</speed>
  <fix>3d</fix>
</trkpt>
<trkpt lat="40.0743154" lon="-105.2294292">
  <ele>1642.78</ele>
  <time>2026-08-28T19:07:48Z</time>
  <course>269.9</course>
  <speed>4.450808915242262</speed>
  <fix>3d</fix>
</trkpt>
<trkpt lat="40.0743157" lon="-105.2294226">
  <ele>1642.67</ele>
  <time>2026-08-28T19:07:48Z</time>
  <course>267.41</course>
  <speed>4.45</speed>
  <fix>3d</fix>
</trkpt>
<trkpt lat="40.0743147" lon="-105.2294395">
  <ele>1642.72</ele>
  <time>2026-08-28T19:07:48Z</time>
  <course>267.25</course>
  <speed>4.410759571774458</speed>
  <fix>3d</fix>
</trkpt>
<trkpt lat="40.0743152" lon="-105.229433">
  <ele>1642.63</ele>
  <time>2026-08-28T19:07:48Z</time>
  <course>264.68</course>
  <speed>4.42</speed>
  <fix>3d</fix>
</trkpt>
<trkpt lat="40.0743136" lon="-105.2294496">
  <ele>1642.63</ele>
  <time>2026-08-28T19:07:48Z</time>
  <course>264.5</course>
  <speed>4.371384220129821</speed>
  <fix>3d</fix>
</trkpt>
<trkpt lat="40.0743142" lon="-105.2294432">
  <ele>1642.56</ele>
  <time>2026-08-28T19:07:48Z</time>
  <course>261.85</course>
  <speed>4.38</speed>
  <fix>3d</fix>
</trkpt>
<trkpt lat="40.074312" lon="-105.2294596">
  <ele>1642.53</ele>
  <time>2026-08-28T19:07:48Z</time>
  <course>261.62</course>
  <speed>4.3353661898391005</speed>
  <fix>3d</fix>
</trkpt>
<trkpt lat="40.0743129" lon="-105.2294534">
  <ele>1642.47</ele>
  <time>2026-08-28T19:07:48Z</time>
  <course>258.9</course>
  <speed>4.34</speed>
  <fix>3d</fix>
</trkpt>
<trkpt lat="40.0743101" lon="-105.2294694">
  <ele>1642.4</ele>
  <time>2026-08-28T19:07:48Z</time>
  <course>258.62</course>
  <speed>4.28981351576033</speed>
  <fix>3d</fix>
</trkpt>
<trkpt lat="40.0743112" lon="-105.2294632">
  <ele>1642.36</ele>
  <time>2026-08-28T19:07:48Z</time>
  <course>255.84</course>
  <speed>4.3</speed>
  <fix>3d</fix>
</trkpt>
<trkpt lat="40.0743078" lon="-105.2294789">
  <ele>1642.25</ele>
  <time>2026-08-28T19:07:48Z</time>
  <course>255.5</course>
  <speed>4.250270579621961</speed>
  <fix>3d</fix>
</trkpt>
<trkpt lat="40.0743091" lon="-105.229473">
  <ele>1642.23</ele>
  <time>2026-08-28T19:07:48Z</time>
  <course>252.67</course>
  <speed>4.27</speed>
  <fix>3d</fix>
</trkpt>
<trkpt lat="40.0743051" lon="-105.2294882">
  <ele>1642.09</ele>
  <time>2026-08-28T19:07:48Z</time>
  <course>252.25</course>
  <speed>4.224701172864183</speed>
  <fix>3d</fix>
</trkpt>
<trkpt lat="40.0743066" lon="-105.2294824">
  <ele>1642.08</ele>
  <time>2026-08-28T19:07:48Z</time>
  <course>249.38</course>
  <speed>4.23</speed>
  <fix>3d</fix>
</trkpt>
<trkpt lat="40.0743019" lon="-105.2294972">
  <ele>1641.9</ele>
  <time>2026-08-28T19:07:48Z</time>
  <course>248.89</course>
  <speed>4.195330737856075</speed>
  <fix>3d</fix>
</trkpt>
<trkpt lat="40.0743038" lon="-105.2294915">
  <ele>1641.91</ele>
  <time>2026-08-28T19:07:48Z</time>
  <course>246.0</course>
  <speed>4.2</speed>
  <fix>3d</fix>
</trkpt>
<trkpt lat="40.0742984" lon="-105.2295059">
  <ele>1641.69</ele>
  <time>2026-08-28T19:07:48Z</time>
  <course>245.46</course>
  <speed>4.172673004202462</speed>
  <fix>3d</fix>
</trkpt>
<trkpt lat="40.0743005" lon="-105.2295005">
  <ele>1641.73</ele>
  <time>2026-08-28T19:07:48Z</time>
  <course>242.52</course>
  <speed>4.18</speed>
  <fix>3d</fix>
</trkpt>
<trkpt lat="40.0742945" lon="-105.2295143">
  <ele>1641.46</ele>
  <time>2026-08-28T19:07:48Z</time>
  <course>241.98</course>
  <speed>4.166245312028566</speed>
  <fix>3d</fix>
</trkpt>
<trkpt lat="40.0742968" lon="-105.2295091">
  <ele>1641.52</ele>
  <time>2026-08-28T19:07:48Z</time>
  <course>238.97</course>
  <speed>4.16</speed>
  <fix>3d</fix>
</trkpt>
<trkpt lat="40.0742902" lon="-105.2295223">
  <ele>1641.21</ele>
  <time>2026-08-28T19:07:48Z</time>
  <course>238.43</course>
  <speed>4.168081093261022</speed>
  <fix>3d</fix>
</trkpt>
<trkpt lat="40.0742927" lon="-105.2295173">
  <ele>1641.29</ele>
  <time>2026-08-28T19:07:48Z</time>
  <course>235.36</course>
  <speed>4.16</speed>
  <fix>3d</fix>
</trkpt>
<trkpt lat="40.0742855" lon="-105.22953">
  <ele>1640.94</ele>
  <time>2026-08-28T19:07:48Z</time>
  <course>234.61</course>
  <speed>4.157523301197481</speed>
  <fix>3d</fix>
</trkpt>
<trkpt lat="40.0742884" lon="-105.2295251">
  <ele>1641.05</ele>
  <time>2026-08-28T19:07:48Z</time>
  <course>231.64</course>
  <speed>4.15</speed>
  <fix>3d</fix>
</trkpt>
<trkpt lat="40.0742804" lon="-105.2295371">
  <ele>1640.67</ele>
  <time>2026-08-28T19:07:48Z</time>
  <course>230.64</course>
  <speed>4.129721540249415</speed>
  <fix>3d</fix>
</trkpt>
<trkpt lat="40.0742835" lon="-105.2295326">
  <ele>1640.79</ele>
  <time>2026-08-28T19:07:48Z</time>
  <course>227.76</course>
  <speed>4.14</speed>
  <fix>3d</fix>
</trkpt>
<trkpt lat="40.074275" lon="-105.2295438">
  <ele>1640.39</ele>
  <time>2026-08-28T19:07:48Z</time>
  <course>226.65</course>
  <speed>4.09414215678938</speed>
  <fix>3d</fix>
</trkpt>
<trkpt lat="40.0742783" lon="-105.2295395">
  <ele>1640.52</ele>
  <time>2026-08-28T19:07:48Z</time>
  <course>223.77</course>
  <speed>4.11</speed>
  <fix>3d</fix>
</trkpt>
<trkpt lat="40.0742693" lon="-105.2295498">
  <ele>1640.09</ele>
  <time>2026-08-28T19:07:48Z</time>
  <course>222.64</course>
  <speed>4.056414673082623</speed>
  <fix>3d</fix>
</trkpt>
<trkpt lat="40.0742728" lon="-105.2295459">
  <ele>1640.23</ele>
  <time>2026-08-28T19:07:48Z</time>
  <course>219.75</course>
  <speed>4.08</speed>
  <fix>3d</fix>
</trkpt>
<trkpt lat="40.0742634" lon="-105.2295553">
  <ele>1639.78</ele>
  <time>2026-08-28T19:07:48Z</time>
  <course>218.8</course>
  <speed>4.016030378371159</speed>
  <fix>3d</fix>
</trkpt>
<trkpt lat="40.0742671" lon="-105.2295517">
  <ele>1639.93</ele>
  <time>2026-08-28T19:07:48Z</time>
  <course>215.74</course>
  <speed>4.04</speed>
  <fix>3d</fix>
</trkpt>
<trkpt lat="40.0742573" lon="-105.2295602">
  <ele>1639.46</ele>
  <time>2026-08-28T19:07:48Z</time>
  <course>214.6</course>
  <speed>3.9542508772206144</speed>
  <fix>3d</fix>
</trkpt>
<trkpt lat="40.0742611" lon="-105.229557">
  <ele>1639.62</ele>
  <time>2026-08-28T19:07:48Z</time>
  <course>211.68</course>
  <speed>4.0</speed>
  <fix>3d</fix>
</trkpt>
<trkpt lat="40.0742509" lon="-105.2295643">
  <ele>1639.14</ele>
  <time>2026-08-28T19:07:48Z</time>
  <course>210.11</course>
  <speed>3.8651778743028116</speed>
  <fix>3d</fix>
</trkpt>
<trkpt lat="40.0742549" lon="-105.2295616">
  <ele>1639.3</ele>
  <time>2026-08-28T19:07:48Z</time>
  <course>207.46</course>
  <speed>3.93</speed>
  <fix>3d</fix>
</trkpt>
<trkpt lat="40.0742446" lon="-105.2295678">
  <ele>1638.82</ele>
  <time>2026-08-28T19:07:48Z</time>
  <course>205.59</course>
  <speed>3.7441821536885724</speed>
  <fix>3d</fix>
</trkpt>
<trkpt lat="40.0742486" lon="-105.2295655">
  <ele>1638.99</ele>
  <time>2026-08-28T19:07:48Z</time>
  <course>203.08</course>
  <speed>3.83</speed>
  <fix>3d</fix>
</trkpt>
<trkpt lat="40.0742383" lon="-105.2295705">
  <ele>1638.51</ele>
  <time>2026-08-28T19:07:48Z</time>
  <course>201.24</course>
  <speed>3.6196408661633823</speed>
  <fix>3d</fix>
</trkpt>
<trkpt lat="40.0742422" lon="-105.2295686">
  <ele>1638.67</ele>
  <time>2026-08-28T19:07:48Z</time>
  <course>198.7</course>
  <speed>3.72</speed>
  <fix>3d</fix>
</trkpt>
<trkpt lat="40.0742321" lon="-105.2295725">
  <ele>1638.19</ele>
  <time>2026-08-28T19:07:48Z</time>
  <course>197.08</course>
  <speed>3.4936656966573088</speed>
  <fix>3d</fix>
</trkpt>
<trkpt lat="40.0742359" lon="-105.2295711">
  <ele>1638.36</ele>
  <time>2026-08-28T19:07:48Z</time>
  <course>194.46</course>
  <speed>3.59</speed>
  <fix>3d</fix>
</trkpt>
<trkpt lat="40.074226" lon="-105.229574">
  <ele>1637.88</ele>
  <time>2026-08-28T19:07:48Z</time>
  <course>193.1</course>
  <speed>3.3787127726399</speed>
  <fix>3d</fix>
</trkpt>
<trkpt lat="40.0742296" lon="-105.2295729">
  <ele>1638.05</ele>
  <time>2026-08-28T19:07:48Z</time>
  <course>190.43</course>
  <speed>3.47</speed>
  <fix>3d</fix>
</trkpt>
<trkpt lat="40.07422" lon="-105.2295749">
  <ele>1637.58</ele>
  <time>2026-08-28T19:07:48Z</time>
  <course>189.31</course>
  <speed>3.2728733553255616</speed>
  <fix>3d</fix>
</trkpt>
<trkpt lat="40.0742235" lon="-105.2295741">
  <ele>1637.75</ele>
  <time>2026-08-28T19:07:48Z</time>
  <course>186.59</course>
  <speed>3.36</speed>
  <fix>3d</fix>
</trkpt>
<trkpt lat="40.0742142" lon="-105.2295752">
  <ele>1637.26</ele>
  <time>2026-08-28T19:07:48Z</time>
  <course>185.73</course>
  <speed>3.181273329973393</speed>
  <fix>3d</fix>
</trkpt>
<trkpt lat="40.0742177" lon="-105.2295747">
  <ele>1637.44</ele>
  <time>2026-08-28T19:07:48Z</time>
  <course>182.95</course>
  <speed>3.26</speed>
  <fix>3d</fix>
</trkpt>
<trkpt lat="40.0742085" lon="-105.2295751">
  <ele>1636.95</ele>
  <time>2026-08-28T19:07:48Z</time>
  <course>182.36</course>
  <speed>3.0907927785602194</speed>
  <fix>3d</fix>
</trkpt>
<trkpt lat="40.0742119" lon="-105.2295748">
  <ele>1637.14</ele>
  <time>2026-08-28T19:07:48Z</time>
  <course>179.52</course>
  <speed>3.16</speed>
  <fix>3d</fix>
</trkpt>
<trkpt lat="40.074203" lon="-105.2295748">
  <ele>1636.65</ele>
  <time>2026-08-28T19:07:48Z</time>
  <course>179.2</course>
  <speed>3.008055850545332</speed>
  <fix>3d</fix>
</trkpt>
<trkpt lat="40.0742063" lon="-105.2295747">
  <ele>1636.84</ele>
  <time>2026-08-28T19:07:48Z</time>
  <course>176.35</course>
  <speed>3.07</speed>
  <fix>3d</fix>
</trkpt>
<trkpt lat="40.0741977" lon="-105.229574">
  <ele>1636.35</ele>
  <time>2026-08-28T19:07:48Z</time>
  <course>176.4</course>
  <speed>2.9309725348423177</speed>
  <fix>3d</fix>
</trkpt>
<trkpt lat="40.0742008" lon="-105.229574">
  <ele>1636.54</ele>
  <time>2026-08-28T19:07:48Z</time>
  <course>173.47</course>
  <speed>2.99</speed>
  <fix>3d</fix>
</trkpt>
<trkpt lat="40.0741925" lon="-105.2295729">
  <ele>1636.05</ele>
  <time>2026-08-28T19:07:48Z</time>
  <course>173.94</course>
  <speed>2.8770123392158053</speed>
  <fix>3d</fix>
</trkpt>
<trkpt lat="40.0741956" lon="-105.2295731">
  <ele>1636.24</ele>
  <time>2026-08-28T19:07:48Z</time>
  <course>170.94</course>
  <speed>2.91</speed>
  <fix>3d</fix>
</trkpt>
<trkpt lat="40.0741875" lon="-105.2295715">
  <ele>1635.75</ele>
  <time>2026-08-28T19:07:48Z</time>
  <course>171.82</course>
  <speed>2.8221445746098834</speed>
  <fix>3d</fix>
</trkpt>
<trkpt lat="40.0741905" lon="-105.2295719">
  <ele>1635.94</ele>
  <time>2026-08-28T19:07:48Z</time>
  <course>168.78</course>
  <speed>2.85</speed>
  <fix>3d</fix>
</trkpt>
<trkpt lat="40.0741825" lon="-105.2295701">
  <ele>1635.45</ele>
  <time>2026-08-28T19:07:48Z</time>
  <course>170.1</course>
  <speed>2.775626055505316</speed>
  <fix>3d</fix>
</trkpt>
<trkpt lat="40.0741855" lon="-105.2295705">
  <ele>1635.64</ele>
  <time>2026-08-28T19:07:48Z</time>
  <course>167.02</course>
  <speed>2.8</speed>
  <fix>3d</fix>
</trkpt>
<trkpt lat="40.0741777" lon="-105.2295685">
  <ele>1635.15</ele>
  <time>2026-08-28T19:07:48Z</time>
  <course>168.81</course>
  <speed>2.745632896073326</speed>
  <fix>3d</fix>
</trkpt>
<trkpt lat="40.0741807" lon="-105.229569">
  <ele>1635.34</ele>
  <time>2026-08-28T19:07:48Z</time>
  <course>165.69</course>
  <speed>2.75</speed>
  <fix>3d</fix>
</trkpt>
<trkpt lat="40.0741729" lon="-105.2295668">
  <ele>1634.85</ele>
  <time>2026-08-28T19:07:48Z</time>
  <course>167.95</course>
  <speed>2.723692346796899</speed>
  <fix>3d</fix>
</trkpt>
<trkpt lat="40.0741759" lon="-105.2295673">
  <ele>1635.05</ele>
  <time>2026-08-28T19:07:48Z</time>
  <course>164.83</course>
  <speed>2.71</speed>
  <fix>3d</fix>
</trkpt>
<trkpt lat="40.0741682" lon="-105.2295651">
  <ele>1634.55</ele>
  <time>2026-08-28T19:07:48Z</time>
  <course>167.47</course>
  <speed>2.706806236138819</speed>
  <fix>3d</fix>
</trkpt>
<trkpt lat="40.0741713" lon="-105.2295657">
  <ele>1634.75</ele>
  <time>2026-08-28T19:07:48Z</time>
  <course>164.39</course>
  <speed>2.69</speed>
  <fix>3d</fix>
</trkpt>
<trkpt lat="40.0741636" lon="-105.2295633">
  <ele>1634.25</ele>
  <time>2026-08-28T19:07:48Z</time>
  <course>167.29</course>
  <speed>2.7164867016055867</speed>
  <fix>3d</fix>
</trkpt>
<trkpt lat="40.0741666" lon="-105.229564">
  <ele>1634.45</ele>
  <time>2026-08-28T19:07:48Z</time>
  <course>164.28</course>
  <speed>2.67</speed>
  <fix>3d</fix>
</trkpt>
<trkpt lat="40.0741589" lon="-105.2295616">
  <ele>1633.95</ele>
  <time>2026-08-28T19:07:48Z</time>
  <course>167.27</course>
  <speed>2.726169473822198</speed>
  <fix>3d</fix>
</trkpt>
<trkpt lat="40.074162" lon="-105.2295623">
  <ele>1634.15</ele>
  <time>2026-08-28T19:07:48Z</time>
  <course>164.41</course>
  <speed>2.68</speed>
  <fix>3d</fix>
</trkpt>
<trkpt lat="40.0741542" lon="-105.2295599">
  <ele>1633.65</ele>
  <time>2026-08-28T19:07:48Z</time>
  <course>167.37</course>
  <speed>2.7552313877422345</speed>
  <fix>3d</fix>
</trkpt>
<trkpt lat="40.0741573" lon="-105.2295606">
  <ele>1633.85</ele>
  <time>2026-08-28T19:07:48Z</time>
  <course>164.68</course>
  <speed>2.69</speed>
  <fix>3d</fix>
</trkpt>
<trkpt lat="40.0741494" lon="-105.2295582">
  <ele>1633.35</ele>
  <time>2026-08-28T19:07:48Z</time>
  <course>167.49</course>
  <speed>2.794011453090341</speed>
  <fix>3d</fix>
</trkpt>
<trkpt lat="40.0741526" lon="-105.2295589">
  <ele>1633.55</ele>
  <time>2026-08-28T19:07:48Z</time>
  <course>165.01</course>
  <speed>2.72</speed>
  <fix>3d</fix>
</trkpt>
<trkpt lat="40.0741446" lon="-105.2295566">
  <ele>1633.05</ele>
  <time>2026-08-28T19:07:48Z</time>
  <course>167.6</course>
  <speed>2.8328254446753336</speed>
  <fix>3d</fix>
</trkpt>
<trkpt lat="40.0741479" lon="-105.2295573">
  <ele>1633.26</ele>
  <time>2026-08-28T19:07:48Z</time>
  <course>165.32</course>
  <speed>2.75</speed>
  <fix>3d</fix>
</trkpt>
<trkpt lat="40.0741397" lon="-105.2295549">
  <ele>1632.75</ele>
  <time>2026-08-28T19:07:48Z</time>
  <course>167.61</course>
  <speed>2.8861739379323628</speed>
  <fix>3d</fix>
</trkpt>
<trkpt lat="40.0741431" lon="-105.2295556">
  <ele>1632.96</ele>
  <time>2026-08-28T19:07:48Z</time>
  <course>165.55</course>
  <speed>2.8</speed>
  <fix>3d</fix>
</trkpt>
<trkpt lat="40.0741347" lon="-105.2295532">
  <ele>1632.45</ele>
  <time>2026-08-28T19:07:48Z</time>
  <course>167.51</course>
  <speed>2.939540780462145</speed>
  <fix>3d</fix>
</trkpt>
<trkpt lat="40.0741382" lon="-105.229554">
  <ele>1632.66</ele>
  <time>2026-08-28T19:07:48Z</time>
  <course>165.64</course>
  <speed>2.85</speed>
  <fix>3d</fix>
</trkpt>
<trkpt lat="40.0741296" lon="-105.2295514">
  <ele>1632.15</ele>
  <time>2026-08-28T19:07:48Z</time>
  <course>167.26</course>
  <speed>2.9929249907072513</speed>
  <fix>3d</fix>
</trkpt>
<trkpt lat="40.0741331" lon="-105.2295523">
  <ele>1632.36</ele>
  <time>2026-08-28T19:07:48Z</time>
  <course>165.58</course>
  <speed>2.9</speed>
  <fix>3d</fix>
</trkpt>
<trkpt lat="40.0741244" lon="-105.2295496">
  <ele>1631.86</ele>
  <time>2026-08-28T19:07:48Z</time>
  <course>166.83</course>
  <speed>3.051376738457577</speed>
  <fix>3d</fix>
</trkpt>
<trkpt lat="40.074128" lon="-105.2295506">
  <ele>1632.06</ele>
  <time>2026-08-28T19:07:48Z</time>
  <course>165.35</course>
  <speed>2.96</speed>
  <fix>3d</fix>
</trkpt>
<trkpt lat="40.0741191" lon="-105.2295477">
  <ele>1631.55</ele>
  <time>2026-08-28T19:07:48Z</time>
  <course>166.25</course>
  <speed>3.1030630029053548</speed>
  <fix>3d</fix>
</trkpt>
<trkpt lat="40.0741228" lon="-105.2295488">
  <ele>1631.77</ele>
  <time>2026-08-28T19:07:48Z</time>
  <course>164.94</course>
  <speed>3.01</speed>
  <fix>3d</fix>
</trkpt>
<trkpt lat="40.0741138" lon="-105.2295457">
  <ele>1631.26</ele>
  <time>2026-08-28T19:07:48Z</time>
  <course>165.53</course>
  <speed>3.155202053751867</speed>
  <fix>3d</fix>
</trkpt>
<trkpt lat="40.0741175" lon="-105.2295469">
  <ele>1631.47</ele>
  <time>2026-08-28T19:07:48Z</time>
  <course>164.35</course>
  <speed>3.07</speed>
  <fix>3d</fix>
</trkpt>
<trkpt lat="40.0741084" lon="-105.2295435">
  <ele>1630.96</ele>
  <time>2026-08-28T19:07:48Z</time>
  <course>164.64</course>
  <speed>3.2040755296965147</speed>
  <fix>3d</fix>
</trkpt>
<trkpt lat="40.0741122" lon="-105.2295449">
  <ele>1631.17</ele>
  <time>2026-08-28T19:07:48Z</time>
  <course>163.59</course>
  <speed>3.12</speed>
  <fix>3d</fix>
</trkpt>
<trkpt lat="40.074103" lon="-105.2295413">
  <ele>1630.66</ele>
  <time>2026-08-28T19:07:48Z</time>
  <course>163.64</course>
  <speed>3.2539975414864717</speed>
  <fix>3d</fix>
</trkpt>
<trkpt lat="40.0741067" lon="-105.2295427">
  <ele>1630.88</ele>
  <time>2026-08-28T19:07:48Z</time>
  <course>162.69</course>
  <speed>3.17</speed>
  <fix>3d</fix>
</trkpt>
<trkpt lat="40.0740975" lon="-105.2295388">
  <ele>1630.36</ele>
  <time>2026-08-28T19:07:48Z</time>
  <course>162.5</course>
  <speed>3.29548175537356</speed>
  <fix>3d</fix>
</trkpt>
<trkpt lat="40.0741013" lon="-105.2295405">
  <ele>1630.58</ele>
  <time>2026-08-28T19:07:48Z</time>
  <course>161.65</course>
  <speed>3.22</speed>
  <fix>3d</fix>
</trkpt>
<trkpt lat="40.0740919" lon="-105.2295362">
  <ele>1630.06</ele>
  <time>2026-08-28T19:07:48Z</time>
  <course>161.26</course>
  <speed>3.332161460673837</speed>
  <fix>3d</fix>
</trkpt>
<trkpt lat="40.0740957" lon="-105.2295379">
  <ele>1630.29</ele>
  <time>2026-08-28T19:07:48Z</time>
  <course>160.5</course>
  <speed>3.27</speed>
  <fix>3d</fix>
</trkpt>
<trkpt lat="40.0740864" lon="-105.2295334">
  <ele>1629.76</ele>
  <time>2026-08-28T19:07:48Z</time>
  <course>159.95</course>
  <speed>3.3648179742743882</speed>
  <fix>3d</fix>
</trkpt>
<trkpt lat="40.0740902" lon="-105.2295353">
  <ele>1629.99</ele>
  <time>2026-08-28T19:07:48Z</time>
  <course>159.26</course>
  <speed>3.31</speed>
  <fix>3d</fix>
</trkpt>
<trkpt lat="40.0740808" lon="-105.2295304">
  <ele>1629.46</ele>
  <time>2026-08-28T19:07:48Z</time>
  <course>158.57</course>
  <speed>3.395585369269929</speed>
  <fix>3d</fix>
</trkpt>
<trkpt lat="40.0740847" lon="-105.2295325">
  <ele>1629.7</ele>
  <time>2026-08-28T19:07:48Z</time>
  <course>157.95</course>
  <speed>3.34</speed>
  <fix>3d</fix>
</trkpt>
<trkpt lat="40.0740753" lon="-105.2295272">
  <ele>1629.18</ele>
  <time>2026-08-28T19:07:48Z</time>
  <course>157.2</course>
  <speed>3.432098483435462</speed>
  <fix>3d</fix>
</trkpt>
<trkpt lat="40.0740791" lon="-105.2295294">
  <ele>1629.4</ele>
  <time>2026-08-28T19:07:48Z</time>
  <course>156.6</course>
  <speed>3.38</speed>
  <fix>3d</fix>
</trkpt>
<trkpt lat="40.0740698" lon="-105.2295238">
  <ele>1628.89</ele>
  <time>2026-08-28T19:07:48Z</time>
  <course>155.84</course>
  <speed>3.4482024302526093</speed>
  <fix>3d</fix>
</trkpt>
<trkpt lat="40.0740735" lon="-105.2295262">
  <ele>1629.11</ele>
  <time>2026-08-28T19:07:48Z</time>
  <course>155.25</course>
  <speed>3.41</speed>
  <fix>3d</fix>
</trkpt>
<trkpt lat="40.0740642" lon="-105.2295202">
  <ele>1628.59</ele>
  <time>2026-08-28T19:07:48Z</time>
  <course>154.49</course>
  <speed>3.4750827328280978</speed>
  <fix>3d</fix>
</trkpt>
<trkpt lat="40.0740679" lon="-105.2295227">
  <ele>1628.81</ele>
  <time>2026-08-28T19:07:48Z</time>
  <course>153.92</course>
  <speed>3.43</speed>
  <fix>3d</fix>
</trkpt>
<trkpt lat="40.0740588" lon="-105.2295165">
  <ele>1628.29</ele>
  <time>2026-08-28T19:07:48Z</time>
  <course>153.21</course>
  <speed>3.4948247452483225</speed>
  <fix>3d</fix>
</trkpt>
<trkpt lat="40.0740624" lon="-105.229519">
  <ele>1628.52</ele>
  <time>2026-08-28T19:07:48Z</time>
  <course>152.63</course>
  <speed>3.46</speed>
  <fix>3d</fix>
</trkpt>
<trkpt lat="40.0740533" lon="-105.2295125">
  <ele>1627.99</ele>
  <time>2026-08-28T19:07:48Z</time>
  <course>151.94</course>
  <speed>3.520113634529431</speed>
  <fix>3d</fix>
</trkpt>
<trkpt lat="40.0740569" lon="-105.2295152">
  <ele>1628.22</ele>
  <time>2026-08-28T19:07:48Z</time>
  <course>151.38</course>
  <speed>3.48</speed>
  <fix>3d</fix>
</trkpt>
<trkpt lat="40.0740479" lon="-105.2295084">
  <ele>1627.69</ele>
  <time>2026-08-28T19:07:48Z</time>
  <course>150.75</course>
  <speed>3.538036178447021</speed>
  <fix>3d</fix>
</trkpt>
<trkpt lat="40.0740514" lon="-105.2295112">
  <ele>1627.91</ele>
  <time>2026-08-28T19:07:48Z</time>
  <course>150.21</course>
  <speed>3.51</speed>
  <fix>3d</fix>
</trkpt>
<trkpt lat="40.0740424" lon="-105.2295042">
  <ele>1627.39</ele>
  <time>2026-08-28T19:07:48Z</time>
  <course>149.67</course>
  <speed>3.5573585706251203</speed>
  <fix>3d</fix>
</trkpt>
<trkpt lat="40.0740459" lon="-105.229507">
  <ele>1627.62</ele>
  <time>2026-08-28T19:07:48Z</time>
  <course>149.11</course>
  <speed>3.53</speed>
  <fix>3d</fix>
</trkpt>
<trkpt lat="40.074037" lon="-105.2294997">
  <ele>1627.1</ele>
  <time>2026-08-28T19:07:48Z</time>
  <course>148.65</course>
  <speed>3.567197779770558</speed>
  <fix>3d</fix>
</trkpt>
<trkpt lat="40.0740404" lon="-105.2295027">
  <ele>1627.32</ele>
  <time>2026-08-28T19:07:48Z</time>
  <course>148.1</course>
  <speed>3.54</speed>
  <fix>3d</fix>
</trkpt>
<trkpt lat="40.0740317" lon="-105.2294952">
  <ele>1626.8</ele>
  <time>2026-08-28T19:07:48Z</time>
  <course>147.77</course>
  <speed>3.586153928653928</speed>
  <fix>3d</fix>
</trkpt>
<trkpt lat="40.0740351" lon="-105.2294982">
  <ele>1627.01</ele>
  <time>2026-08-28T19:07:48Z</time>
  <course>147.21</course>
  <speed>3.56</speed>
  <fix>3d</fix>
</trkpt>
<trkpt lat="40.0740263" lon="-105.2294905">
  <ele>1626.5</ele>
  <time>2026-08-28T19:07:48Z</time>
  <course>146.99</course>
  <speed>3.5974713341456943</speed>
  <fix>3d</fix>
</trkpt>
<trkpt lat="40.0740297" lon="-105.2294937">
  <ele>1626.71</ele>
  <time>2026-08-28T19:07:48Z</time>
  <course>146.42</course>
  <speed>3.58</speed>
  <fix>3d</fix>
</trkpt>
<trkpt lat="40.074021" lon="-105.2294857">
  <ele>1626.2</ele>
  <time>2026-08-28T19:07:48Z</time>
  <course>146.32</course>
  <speed>3.6062723136224752</speed>
  <fix>3d</fix>
</trkpt>
<trkpt lat="40.0740244" lon="-105.229489">
  <ele>1626.41</ele>
  <time>2026-08-28T19:07:48Z</time>
  <course>145.73</course>
  <speed>3.59</speed>
  <fix>3d</fix>
</trkpt>
<trkpt lat="40.0740157" lon="-105.2294809">
  <ele>1625.9</ele>
  <time>2026-08-28T19:07:48Z</time>
  <course>145.75</course>
  <speed>3.6211186116999814</speed>
  <fix>3d</fix>
</trkpt>
<trkpt lat="40.0740191" lon="-105.2294842">
  <ele>1626.11</ele>
  <time>2026-08-28T19:07:48Z</time>
  <course>145.14</course>
  <speed>3.6</speed>
  <fix>3d</fix>
</trkpt>
<trkpt lat="40.0740104" lon="-105.229476">
  <ele>1625.6</ele>
  <time>2026-08-28T19:07:48Z</time>
  <course>145.26</course>
  <speed>3.6246379129507544</speed>
  <fix>3d</fix>
</trkpt>
<trkpt lat="40.0740137" lon="-105.2294793">
  <ele>1625.8</ele>
  <time>2026-08-28T19:07:48Z</time>
  <course>144.64</course>
  <speed>3.61</speed>
  <fix>3d</fix>
</trkpt>
<trkpt lat="40.0740051" lon="-105.229471">
  <ele>1625.3</ele>
  <time>2026-08-28T19:07:48Z</time>
  <course>144.87</course>
  <speed>3.628291609008295</speed>
  <fix>3d</fix>
</trkpt>
<trkpt lat="40.0740085" lon="-105.2294743">
  <ele>1625.5</ele>
  <time>2026-08-28T19:07:48Z</time>
  <course>144.25</course>
  <speed>3.61</speed>
  <fix>3d</fix>
</trkpt>
<trkpt lat="40.0739998" lon="-105.229466">
  <ele>1625.0</ele>
  <time>2026-08-28T19:07:48Z</time>
  <course>144.55</course>
  <speed>3.6401236242743185</speed>
  <fix>3d</fix>
</trkpt>
<trkpt lat="40.0740032" lon="-105.2294694">
  <ele>1625.19</ele>
  <time>2026-08-28T19:07:48Z</time>
  <course>143.95</course>
  <speed>3.62</speed>
  <fix>3d</fix>
</trkpt>
<trkpt lat="40.0739946" lon="-105.229461">
  <ele>1624.7</ele>
  <time>2026-08-28T19:07:48Z</time>
  <course>144.35</course>
  <speed>3.646066373504465</speed>
  <fix>3d</fix>
</trkpt>
<trkpt lat="40.0739979" lon="-105.2294643">
  <ele>1624.89</ele>
  <time>2026-08-28T19:07:48Z</time>
  <course>143.73</course>
  <speed>3.63</speed>
  <fix>3d</fix>
</trkpt>
<trkpt lat="40.0739893" lon="-105.2294559">
  <ele>1624.39</ele>
  <time>2026-08-28T19:07:48Z</time>
  <course>144.21</course>
  <speed>3.6520268345125833</speed>
  <fix>3d</fix>
</trkpt>
<trkpt lat="40.0739927" lon="-105.2294593">
  <ele>1624.59</ele>
  <time>2026-08-28T19:07:48Z</time>
  <course>143.58</course>
  <speed>3.63</speed>
  <fix>3d</fix>
</trkpt>
<trkpt lat="40.073984" lon="-105.2294508">
  <ele>1624.09</ele>
  <time>2026-08-28T19:07:48Z</time>
  <course>144.13</course>
  <speed>3.6580049207183962</speed>
  <fix>3d</fix>
</trkpt>
<trkpt lat="40.0739874" lon="-105.2294542">
  <ele>1624.29</ele>
  <time>2026-08-28T19:07:48Z</time>
  <course>143.5</course>
  <speed>3.64</speed>
  <fix>3d</fix>
</trkpt>
<trkpt lat="40.0739788" lon="-105.2294457">
  <ele>1623.79</ele>
  <time>2026-08-28T19:07:48Z</time>
  <course>144.09</course>
  <speed>3.666019639881925</speed>
  <fix>3d</fix>
</trkpt>
<trkpt lat="40.0739822" lon="-105.2294491">
  <ele>1623.98</ele>
  <time>2026-08-28T19:07:48Z</time>
  <course>143.48</course>
  <speed>3.65</speed>
  <fix>3d</fix>
</trkpt>
<trkpt lat="40.0739735" lon="-105.2294406">
  <ele>1623.48</ele>
  <time>2026-08-28T19:07:48Z</time>
  <course>144.1</course>
  <speed>3.6740440933663274</speed>
  <fix>3d</fix>
</trkpt>
<trkpt lat="40.0739769" lon="-105.229444">
  <ele>1623.67</ele>
  <time>2026-08-28T19:07:48Z</time>
  <course>143.51</course>
  <speed>3.65</speed>
  <fix>3d</fix>
</trkpt>
<trkpt lat="40.0739682" lon="-105.2294355">
  <ele>1623.18</ele>
  <time>2026-08-28T19:07:48Z</time>
  <course>144.13</course>
  <speed>3.682078217528791</speed>
  <fix>3d</fix>
</trkpt>
<trkpt lat="40.0739716" lon="-105.2294389">
  <ele>1623.38</ele>
  <time>2026-08-28T19:07:48Z</time>
  <course>143.55</course>
  <speed>3.66</speed>
  <fix>3d</fix>
</trkpt>
<trkpt lat="40.0739629" lon="-105.2294304">
  <ele>1622.88</ele>
  <time>2026-08-28T19:07:48Z</time>
  <course>144.18</course>
  <speed>3.682078217528791</speed>
  <fix>3d</fix>
</trkpt>
<trkpt lat="40.0739662" lon="-105.2294338">
  <ele>1623.08</ele>
  <time>2026-08-28T19:07:48Z</time>
  <course>143.62</course>
  <speed>3.67</speed>
  <fix>3d</fix>
</trkpt>
<trkpt lat="40.0739576" lon="-105.2294253">
  <ele>1622.58</ele>
  <time>2026-08-28T19:07:48Z</time>
  <course>144.25</course>
  <speed>3.690121949204389</speed>
  <fix>3d</fix>
</trkpt>
<trkpt lat="40.0739609" lon="-105.2294286">
  <ele>1622.78</ele>
  <time>2026-08-28T19:07:48Z</time>
  <course>143.71</course>
  <speed>3.67</speed>
  <fix>3d</fix>
</trkpt>
<trkpt lat="40.0739522" lon="-105.2294202">
  <ele>1622.27</ele>
  <time>2026-08-28T19:07:48Z</time>
  <course>144.31</course>
  <speed>3.6981752257025358</speed>
  <fix>3d</fix>
</trkpt>
<trkpt lat="40.0739556" lon="-105.2294235">
  <ele>1622.48</ele>
  <time>2026-08-28T19:07:48Z</time>
  <course>143.81</course>
  <speed>3.68</speed>
  <fix>3d</fix>
</trkpt>
<trkpt lat="40.0739469" lon="-105.2294151">
  <ele>1621.97</ele>
  <time>2026-08-28T19:07:48Z</time>
  <course>144.38</course>
  <speed>3.7062379848034586</speed>
  <fix>3d</fix>
</trkpt>
<trkpt lat="40.0739502" lon="-105.2294184">
  <ele>1622.17</ele>
  <time>2026-08-28T19:07:48Z</time>
  <course>143.9</course>
  <speed>3.69</speed>
  <fix>3d</fix>
</trkpt>
<trkpt lat="40.0739415" lon="-105.22941">
  <ele>1621.67</ele>
  <time>2026-08-28T19:07:48Z</time>
  <course>144.46</course>
  <speed>3.7062379848034586</speed>
  <fix>3d</fix>
</trkpt>
<trkpt lat="40.0739449" lon="-105.2294133">
  <ele>1621.88</ele>
  <time>2026-08-28T19:07:48Z</time>
  <course>143.99</course>
  <speed>3.69</speed>
  <fix>3d</fix>
</trkpt>
<trkpt lat="40.0739361" lon="-105.2294049">
  <ele>1621.37</ele>
  <time>2026-08-28T19:07:48Z</time>
  <course>144.54</course>
  <speed>3.7143101647546883</speed>
  <fix>3d</fix>
</trkpt>
<trkpt lat="40.0739395" lon="-105.2294082">
  <ele>1621.58</ele>
  <time>2026-08-28T19:07:48Z</time>
  <course>144.07</course>
  <speed>3.7</speed>
  <fix>3d</fix>
</trkpt>
<trkpt lat="40.0739307" lon="-105.2293998">
  <ele>1621.08</ele>
  <time>2026-08-28T19:07:49Z</time>
  <course>144.57</course>
  <speed>3.716517186829626</speed>
  <fix>3d</fix>
</trkpt>
<trkpt lat="40.0739341" lon="-105.2294031">
  <ele>1621.28</ele>
  <time>2026-08-28T19:07:49Z</time>
  <course>144.15</course>
  <speed>3.7</speed>
  <fix>3d</fix>
</trkpt>
<trkpt lat="40.0739254" lon="-105.2293947">
  <ele>1620.78</ele>
  <time>2026-08-28T19:07:49Z</time>
  <course>144.64</course>
  <speed>3.716517186829626</speed>
  <fix>3d</fix>
</trkpt>
<trkpt lat="40.0739287" lon="-105.229398">
  <ele>1620.98</ele>
  <time>2026-08-28T19:07:49Z</time>
  <course>144.22</course>
  <speed>3.71</speed>
  <fix>3d</fix>
</trkpt>
<trkpt lat="40.0739199" lon="-105.2293896">
  <ele>1620.48</ele>
  <time>2026-08-28T19:07:49Z</time>
  <course>144.69</course>
  <speed>3.716517186829626</speed>
  <fix>3d</fix>
</trkpt>
<trkpt lat="40.0739233" lon="-105.2293929">
  <ele>1620.67</ele>
  <time>2026-08-28T19:07:49Z</time>
  <course>144.29</course>
  <speed>3.71</speed>
  <fix>3d</fix>
</trkpt>
<trkpt lat="40.0739145" lon="-105.2293845">
  <ele>1620.18</ele>
  <time>2026-08-28T19:07:49Z</time>
  <course>144.72</course>
  <speed>3.716517186829626</speed>
  <fix>3d</fix>
</trkpt>
<trkpt lat="40.0739179" lon="-105.2293879">
  <ele>1620.38</ele>
  <time>2026-08-28T19:07:49Z</time>
  <course>144.34</course>
  <speed>3.71</speed>
  <fix>3d</fix>
</trkpt>
<trkpt lat="40.0739091" lon="-105.2293795">
  <ele>1619.89</ele>
  <time>2026-08-28T19:07:49Z</time>
  <course>144.76</course>
  <speed>3.7106603185956</speed>
  <fix>3d</fix>
</trkpt>
<trkpt lat="40.0739124" lon="-105.2293828">
  <ele>1620.08</ele>
  <time>2026-08-28T19:07:49Z</time>
  <course>144.39</course>
  <speed>3.71</speed>
  <fix>3d</fix>
</trkpt>
<trkpt lat="40.0739037" lon="-105.2293744">
  <ele>1619.59</ele>
  <time>2026-08-28T19:07:49Z</time>
  <course>144.81</course>
  <speed>3.7106603185956</speed>
  <fix>3d</fix>
</trkpt>
<trkpt lat="40.073907" lon="-105.2293777">
  <ele>1619.78</ele>
  <time>2026-08-28T19:07:49Z</time>
  <course>144.44</course>
  <speed>3.7</speed>
  <fix>3d</fix>
</trkpt>
<trkpt lat="40.0738982" lon="-105.2293694">
  <ele>1619.29</ele>
  <time>2026-08-28T19:07:49Z</time>
  <course>144.88</course>
  <speed>3.7048211832691735</speed>
  <fix>3d</fix>
</trkpt>
<trkpt lat="40.0739016" lon="-105.2293726">
  <ele>1619.48</ele>
  <time>2026-08-28T19:07:49Z</time>
  <course>144.49</course>
  <speed>3.7</speed>
  <fix>3d</fix>
</trkpt>
<trkpt lat="40.0738928" lon="-105.2293643">
  <ele>1618.99</ele>
  <time>2026-08-28T19:07:49Z</time>
  <course>144.91</course>
  <speed>3.6908671067921155</speed>
  <fix>3d</fix>
</trkpt>
<trkpt lat="40.0738961" lon="-105.2293675">
  <ele>1619.17</ele>
  <time>2026-08-28T19:07:49Z</time>
  <course>144.53</course>
  <speed>3.69</speed>
  <fix>3d</fix>
</trkpt>
<trkpt lat="40.0738874" lon="-105.2293593">
  <ele>1618.69</ele>
  <time>2026-08-28T19:07:49Z</time>
  <course>144.95</course>
  <speed>3.6908671067921155</speed>
  <fix>3d</fix>
</trkpt>
<trkpt lat="40.0738908" lon="-105.2293626">
  <ele>1618.88</ele>
  <time>2026-08-28T19:07:49Z</time>
  <course>144.58</course>
  <speed>3.68</speed>
  <fix>3d</fix>
</trkpt>
<trkpt lat="40.073882" lon="-105.2293543">
  <ele>1618.39</ele>
  <time>2026-08-28T19:07:49Z</time>
  <course>145.02</course>
  <speed>3.671103376370652</speed>
  <fix>3d</fix>
</trkpt>
<trkpt lat="40.0738853" lon="-105.2293575">
  <ele>1618.58</ele>
  <time>2026-08-28T19:07:49Z</time>
  <course>144.65</course>
  <speed>3.67</speed>
  <fix>3d</fix>
</trkpt>
<trkpt lat="40.0738767" lon="-105.2293494">
  <ele>1618.09</ele>
  <time>2026-08-28T19:07:49Z</time>
  <course>145.1</course>
  <speed>3.6653103552086828</speed>
  <fix>3d</fix>
</trkpt>
<trkpt lat="40.07388" lon="-105.2293526">
  <ele>1618.28</ele>
  <time>2026-08-28T19:07:49Z</time>
  <course>144.73</course>
  <speed>3.66</speed>
  <fix>3d</fix>
</trkpt>
<trkpt lat="40.0738713" lon="-105.2293444">
  <ele>1617.79</ele>
  <time>2026-08-28T19:07:49Z</time>
  <course>145.21</course>
  <speed>3.651369606051954</speed>
  <fix>3d</fix>
</trkpt>
<trkpt lat="40.0738747" lon="-105.2293476">
  <ele>1617.98</ele>
  <time>2026-08-28T19:07:49Z</time>
  <course>144.84</course>
  <speed>3.65</speed>
  <fix>3d</fix>
</trkpt>
<trkpt lat="40.073866" lon="-105.2293395">
  <ele>1617.49</ele>
  <time>2026-08-28T19:07:49Z</time>
  <course>145.34</course>
  <speed>3.6316662842282192</speed>
  <fix>3d</fix>
</trkpt>
<trkpt lat="40.0738693" lon="-105.2293427">
  <ele>1617.67</ele>
  <time>2026-08-28T19:07:49Z</time>
  <course>144.97</course>
  <speed>3.64</speed>
  <fix>3d</fix>
</trkpt>
<trkpt lat="40.0738606" lon="-105.2293346">
  <ele>1617.19</ele>
  <time>2026-08-28T19:07:49Z</time>
  <course>145.5</course>
  <speed>3.620193365001378</speed>
  <fix>3d</fix>
</trkpt>
<trkpt lat="40.0738639" lon="-105.2293378">
  <ele>1617.37</ele>
  <time>2026-08-28T19:07:49Z</time>
  <course>145.14</course>
  <speed>3.62</speed>
  <fix>3d</fix>
</trkpt>
<trkpt lat="40.0738553" lon="-105.2293298">
  <ele>1616.89</ele>
  <time>2026-08-28T19:07:49Z</time>
  <course>145.71</course>
  <speed>3.608794812676387</speed>
  <fix>3d</fix>
</trkpt>
<trkpt lat="40.0738586" lon="-105.229333">
  <ele>1617.07</ele>
  <time>2026-08-28T19:07:49Z</time>
  <course>145.33</course>
  <speed>3.61</speed>
  <fix>3d</fix>
</trkpt>
<trkpt lat="40.0738499" lon="-105.2293251">
  <ele>1616.59</ele>
  <time>2026-08-28T19:07:49Z</time>
  <course>145.94</course>
  <speed>3.5892199709686223</speed>
  <fix>3d</fix>
</trkpt>
<trkpt lat="40.0738532" lon="-105.2293282">
  <ele>1616.77</ele>
  <time>2026-08-28T19:07:49Z</time>
  <course>145.56</course>
  <speed>3.59</speed>
  <fix>3d</fix>
</trkpt>
<trkpt lat="40.0738446" lon="-105.2293204">
  <ele>1616.29</ele>
  <time>2026-08-28T19:07:49Z</time>
  <course>146.22</course>
  <speed>3.5779463383343244</speed>
  <fix>3d</fix>
</trkpt>
<trkpt lat="40.0738479" lon="-105.2293234">
  <ele>1616.47</ele>
  <time>2026-08-28T19:07:49Z</time>
  <course>145.84</course>
  <speed>3.58</speed>
  <fix>3d</fix>
</trkpt>
<trkpt lat="40.0738393" lon="-105.2293157">
  <ele>1616.0</ele>
  <time>2026-08-28T19:07:49Z</time>
  <course>146.54</course>
  <speed>3.561179579858337</speed>
  <fix>3d</fix>
</trkpt>
<trkpt lat="40.0738426" lon="-105.2293187">
  <ele>1616.16</ele>
  <time>2026-08-28T19:07:49Z</time>
  <course>146.15</course>
  <speed>3.56</speed>
  <fix>3d</fix>
</trkpt>
<trkpt lat="40.0738339" lon="-105.2293111">
  <ele>1615.7</ele>
  <time>2026-08-28T19:07:49Z</time>
  <course>146.89</course>
  <speed>3.5445874231001837</speed>
  <fix>3d</fix>
</trkpt>
<trkpt lat="40.0738373" lon="-105.2293141">
  <ele>1615.86</ele>
  <time>2026-08-28T19:07:49Z</time>
  <course>146.5</course>
  <speed>3.54</speed>
  <fix>3d</fix>
</trkpt>
<trkpt lat="40.0738287" lon="-105.2293066">
  <ele>1615.39</ele>
  <time>2026-08-28T19:07:49Z</time>
  <course>147.28</course>
  <speed>3.519786925369205</speed>
  <fix>3d</fix>
</trkpt>
<trkpt lat="40.073832" lon="-105.2293095">
  <ele>1615.56</ele>
  <time>2026-08-28T19:07:49Z</time>
  <course>146.9</course>
  <speed>3.52</speed>
  <fix>3d</fix>
</trkpt>
<trkpt lat="40.0738234" lon="-105.2293022">
  <ele>1615.09</ele>
  <time>2026-08-28T19:07:49Z</time>
  <course>147.72</course>
  <speed>3.4981280708401745</speed>
  <fix>3d</fix>
</trkpt>
<trkpt lat="40.0738267" lon="-105.2293051">
  <ele>1615.26</ele>
  <time>2026-08-28T19:07:49Z</time>
  <course>147.33</course>
  <speed>3.51</speed>
  <fix>3d</fix>
</trkpt>
<trkpt lat="40.0738181" lon="-105.2292978">
  <ele>1614.78</ele>
  <time>2026-08-28T19:07:49Z</time>
  <course>148.19</course>
  <speed>3.490573018860944</speed>
  <fix>3d</fix>
</trkpt>
<trkpt lat="40.0738213" lon="-105.2293007">
  <ele>1614.96</ele>
  <time>2026-08-28T19:07:49Z</time>
  <course>147.82</course>
  <speed>3.49</speed>
  <fix>3d</fix>
</trkpt>
<trkpt lat="40.0738128" lon="-105.2292936">
  <ele>1614.47</ele>
  <time>2026-08-28T19:07:49Z</time>
  <course>148.72</course>
  <speed>3.4695388742598054</speed>
  <fix>3d</fix>
</trkpt>
<trkpt lat="40.073816" lon="-105.2292963">
  <ele>1614.65</ele>
  <time>2026-08-28T19:07:49Z</time>
  <course>148.36</course>
  <speed>3.47</speed>
  <fix>3d</fix>
</trkpt>
<trkpt lat="40.0738075" lon="-105.2292894">
  <ele>1614.16</ele>
  <time>2026-08-28T19:07:49Z</time>
  <course>149.3</course>
  <speed>3.4574267888127435</speed>
  <fix>3d</fix>
</trkpt>
<trkpt lat="40.0738107" lon="-105.2292921">
  <ele>1614.35</ele>
  <time>2026-08-28T19:07:49Z</time>
  <course>148.94</course>
  <speed>3.45</speed>
  <fix>3d</fix>
</trkpt>
<trkpt lat="40.0738021" lon="-105.2292853">
  <ele>1613.86</ele>
  <time>2026-08-28T19:07:49Z</time>
  <course>149.9</course>
  <speed>3.4371208881853423</speed>
  <fix>3d</fix>
</trkpt>
<trkpt lat="40.0738054" lon="-105.2292879">
  <ele>1614.05</ele>
  <time>2026-08-28T19:07:49Z</time>
  <course>149.56</course>
  <speed>3.44</speed>
  <fix>3d</fix>
</trkpt>
<trkpt lat="40.0737968" lon="-105.2292814">
  <ele>1613.57</ele>
  <time>2026-08-28T19:07:49Z</time>
  <course>150.54</course>
  <speed>3.4258575568753584</speed>
  <fix>3d</fix>
</trkpt>
<trkpt lat="40.0738001" lon="-105.2292838">
  <ele>1613.75</ele>
  <time>2026-08-28T19:07:49Z</time>
  <course>150.21</course>
  <speed>3.42</speed>
  <fix>3d</fix>
</trkpt>
<trkpt lat="40.0737914" lon="-105.2292775">
  <ele>1613.28</ele>
  <time>2026-08-28T19:07:49Z</time>
  <course>151.22</course>
  <speed>3.4014702703389896</speed>
  <fix>3d</fix>
</trkpt>
<trkpt lat="40.0737946" lon="-105.2292799">
  <ele>1613.46</ele>
  <time>2026-08-28T19:07:49Z</time>
  <course>150.88</course>
  <speed>3.4</speed>
  <fix>3d</fix>
</trkpt>
<trkpt lat="40.073786" lon="-105.2292737">
  <ele>1612.99</ele>
  <time>2026-08-28T19:07:49Z</time>
  <course>151.95</course>
  <speed>3.37764711004569</speed>
  <fix>3d</fix>
</trkpt>
<trkpt lat="40.0737893" lon="-105.2292761">
  <ele>1613.16</ele>
  <time>2026-08-28T19:07:49Z</time>
  <course>151.58</course>
  <speed>3.38</speed>
  <fix>3d</fix>
</trkpt>
<trkpt lat="40.0737807" lon="-105.22927">
  <ele>1612.69</ele>
  <time>2026-08-28T19:07:49Z</time>
  <course>152.73</course>
  <speed>3.354400095397089</speed>
  <fix>3d</fix>
</trkpt>
<trkpt lat="40.073784" lon="-105.2292724">
  <ele>1612.86</ele>
  <time>2026-08-28T19:07:49Z</time>
  <course>152.33</course>
  <speed>3.36</speed>
  <fix>3d</fix>
</trkpt>
<trkpt lat="40.0737753" lon="-105.2292665">
  <ele>1612.39</ele>
  <time>2026-08-28T19:07:49Z</time>
  <course>153.53</course>
  <speed>3.3406885517809046</speed>
  <fix>3d</fix>
</trkpt>
<trkpt lat="40.0737786" lon="-105.2292688">
  <ele>1612.57</ele>
  <time>2026-08-28T19:07:49Z</time>
  <course>153.13</course>
  <speed>3.34</speed>
  <fix>3d</fix>
</trkpt>
<trkpt lat="40.07377" lon="-105.2292631">
  <ele>1612.09</ele>
  <time>2026-08-28T19:07:49Z</time>
  <course>154.36</course>
  <speed>3.31436268383531</speed>
  <fix>3d</fix>
</trkpt>
<trkpt lat="40.0737733" lon="-105.2292653">
  <ele>1612.27</ele>
  <time>2026-08-28T19:07:49Z</time>
  <course>153.97</course>
  <speed>3.32</speed>
  <fix>3d</fix>
</trkpt>
<trkpt lat="40.0737646" lon="-105.2292598">
  <ele>1611.79</ele>
  <time>2026-08-28T19:07:49Z</time>
  <course>155.23</course>
  <speed>3.293098844553561</speed>
  <fix>3d</fix>
</trkpt>
<trkpt lat="40.0737678" lon="-105.2292619">
  <ele>1611.97</ele>
  <time>2026-08-28T19:07:49Z</time>
  <course>154.85</course>
  <speed>3.3</speed>
  <fix>3d</fix>
</trkpt>
<trkpt lat="40.0737592" lon="-105.2292567">
  <ele>1611.48</ele>
  <time>2026-08-28T19:07:49Z</time>
  <course>156.14</course>
  <speed>3.2684093990808436</speed>
  <fix>3d</fix>
</trkpt>
<trkpt lat="40.0737625" lon="-105.2292587">
  <ele>1611.66</ele>
  <time>2026-08-28T19:07:49Z</time>
  <course>155.75</course>
  <speed>3.28</speed>
  <fix>3d</fix>
</trkpt>
<trkpt lat="40.0737538" lon="-105.2292537">
  <ele>1611.18</ele>
  <time>2026-08-28T19:07:49Z</time>
  <course>157.07</course>
  <speed>3.2538592471094994</speed>
  <fix>3d</fix>
</trkpt>
<trkpt lat="40.0737572" lon="-105.2292556">
  <ele>1611.36</ele>
  <time>2026-08-28T19:07:49Z</time>
  <course>156.69</course>
  <speed>3.25</speed>
  <fix>3d</fix>
</trkpt>
<trkpt lat="40.0737484" lon="-105.2292508">
  <ele>1610.87</ele>
  <time>2026-08-28T19:07:49Z</time>
  <course>158.06</course>
  <speed>3.2310988842807022</speed>
  <fix>3d</fix>
</trkpt>
<trkpt lat="40.0737517" lon="-105.2292526">
  <ele>1611.06</ele>
  <time>2026-08-28T19:07:49Z</time>
  <course>157.67</course>
  <speed>3.23</speed>
  <fix>3d</fix>
</trkpt>
<trkpt lat="40.073743" lon="-105.2292481">
  <ele>1610.57</ele>
  <time>2026-08-28T19:07:49Z</time>
  <course>159.04</course>
  <speed>3.2092989888759194</speed>
  <fix>3d</fix>
</trkpt>
<trkpt lat="40.0737464" lon="-105.2292498">
  <ele>1610.76</ele>
  <time>2026-08-28T19:07:49Z</time>
  <course>158.67</course>
  <speed>3.21</speed>
  <fix>3d</fix>
</trkpt>
<trkpt lat="40.0737376" lon="-105.2292455">
  <ele>1610.27</ele>
  <time>2026-08-28T19:07:49Z</time>
  <course>160.06</course>
  <speed>3.1884792613407416</speed>
  <fix>3d</fix>
</trkpt>
<trkpt lat="40.073741" lon="-105.2292472">
  <ele>1610.46</ele>
  <time>2026-08-28T19:07:49Z</time>
  <course>159.71</course>
  <speed>3.19</speed>
  <fix>3d</fix>
</trkpt>
<trkpt lat="40.0737322" lon="-105.2292431">
  <ele>1609.97</ele>
  <time>2026-08-28T19:07:49Z</time>
  <course>161.13</course>
  <speed>3.165454153830063</speed>
  <fix>3d</fix>
</trkpt>
<trkpt lat="40.0737356" lon="-105.2292447">
  <ele>1610.16</ele>
  <time>2026-08-28T19:07:49Z</time>
  <course>160.78</course>
  <speed>3.16</speed>
  <fix>3d</fix>
</trkpt>
<trkpt lat="40.0737268" lon="-105.2292408">
  <ele>1609.67</ele>
  <time>2026-08-28T19:07:49Z</time>
  <course>162.24</course>
  <speed>3.1372918257631057</speed>
  <fix>3d</fix>
</trkpt>
<trkpt lat="40.0737302" lon="-105.2292423">
  <ele>1609.87</ele>
  <time>2026-08-28T19:07:49Z</time>
  <course>161.88</course>
  <speed>3.14</speed>
  <fix>3d</fix>
</trkpt>
<trkpt lat="40.0737215" lon="-105.2292387">
  <ele>1609.37</ele>
  <time>2026-08-28T19:07:49Z</time>
  <course>163.42</course>
  <speed>3.116809265899984</speed>
  <fix>3d</fix>
</trkpt>
<trkpt lat="40.0737249" lon="-105.2292401">
  <ele>1609.57</ele>
  <time>2026-08-28T19:07:49Z</time>
  <course>163.03</course>
  <speed>3.12</speed>
  <fix>3d</fix>
</trkpt>
<trkpt lat="40.0737161" lon="-105.2292367">
  <ele>1609.07</ele>
  <time>2026-08-28T19:07:49Z</time>
  <course>164.62</course>
  <speed>3.0977733939073078</speed>
  <fix>3d</fix>
</trkpt>
<trkpt lat="40.0737195" lon="-105.229238">
  <ele>1609.28</ele>
  <time>2026-08-28T19:07:49Z</time>
  <course>164.23</course>
  <speed>3.09</speed>
  <fix>3d</fix>
</trkpt>
<trkpt lat="40.0737107" lon="-105.2292349">
  <ele>1608.76</ele>
  <time>2026-08-28T19:07:49Z</time>
  <course>165.85</course>
  <speed>3.0802110317314297</speed>
  <fix>3d</fix>
</trkpt>
<trkpt lat="40.0737142" lon="-105.2292361">
  <ele>1608.98</ele>
  <time>2026-08-28T19:07:49Z</time>
  <course>165.47</course>
  <speed>3.07</speed>
  <fix>3d</fix>
</trkpt>
<trkpt lat="40.0737054" lon="-105.2292333">
  <ele>1608.47</ele>
  <time>2026-08-28T19:07:49Z</time>
  <course>167.13</course>
  <speed>3.052212312405544</speed>
  <fix>3d</fix>
</trkpt>
<trkpt lat="40.0737088" lon="-105.2292344">
  <ele>1608.68</ele>
  <time>2026-08-28T19:07:49Z</time>
  <course>166.75</course>
  <speed>3.05</speed>
  <fix>3d</fix>
</trkpt>
<trkpt lat="40.0737" lon="-105.2292318">
  <ele>1608.17</ele>
  <time>2026-08-28T19:07:49Z</time>
  <course>168.45</course>
  <speed>3.037844630655097</speed>
  <fix>3d</fix>
</trkpt>
<trkpt lat="40.0737034" lon="-105.2292328">
  <ele>1608.39</ele>
  <time>2026-08-28T19:07:49Z</time>
  <course>168.08</course>
  <speed>3.04</speed>
  <fix>3d</fix>
</trkpt>
<trkpt lat="40.0736947" lon="-105.2292306">
  <ele>1607.87</ele>
  <time>2026-08-28T19:07:49Z</time>
  <course>169.85</course>
  <speed>3.0233259830855155</speed>
  <fix>3d</fix>
</trkpt>
<trkpt lat="40.0736981" lon="-105.2292314">
  <ele>1608.09</ele>
  <time>2026-08-28T19:07:49Z</time>
  <course>169.46</course>
  <speed>3.02</speed>
  <fix>3d</fix>
</trkpt>
<trkpt lat="40.0736893" lon="-105.2292295">
  <ele>1607.57</ele>
  <time>2026-08-28T19:07:49Z</time>
  <course>171.29</course>
  <speed>3.0123080851732285</speed>
  <fix>3d</fix>
</trkpt>
<trkpt lat="40.0736928" lon="-105.2292302">
  <ele>1607.79</ele>
  <time>2026-08-28T19:07:49Z</time>
  <course>170.88</course>
  <speed>3.01</speed>
  <fix>3d</fix>
</trkpt>
<trkpt lat="40.073684" lon="-105.2292286">
  <ele>1607.28</ele>
  <time>2026-08-28T19:07:49Z</time>
  <course>172.73</course>
  <speed>3.0016662039607267</speed>
  <fix>3d</fix>
</trkpt>
<trkpt lat="40.0736875" lon="-105.2292292">
  <ele>1607.5</ele>
  <time>2026-08-28T19:07:49Z</time>
  <course>172.36</course>
  <speed>3.0</speed>
  <fix>3d</fix>
</trkpt>
<trkpt lat="40.0736786" lon="-105.2292278">
  <ele>1606.98</ele>
  <time>2026-08-28T19:07:49Z</time>
  <course>174.23</course>
  <speed>2.99312545677591</speed>
  <fix>3d</fix>
</trkpt>
<trkpt lat="40.0736821" lon="-105.2292284">
  <ele>1607.2</ele>
  <time>2026-08-28T19:07:49Z</time>
  <course>173.87</course>
  <speed>2.99</speed>
  <fix>3d</fix>
</trkpt>
<trkpt lat="40.0736733" lon="-105.2292273">
  <ele>1606.68</ele>
  <time>2026-08-28T19:07:49Z</time>
  <course>175.79</course>
  <speed>2.9860509037858014</speed>
  <fix>3d</fix>
</trkpt>
<trkpt lat="40.0736767" lon="-105.2292277">
  <ele>1606.9</ele>
  <time>2026-08-28T19:07:49Z</time>
  <course>175.43</course>
  <speed>2.98</speed>
  <fix>3d</fix>
</trkpt>
<trkpt lat="40.073668" lon="-105.229227">
  <ele>1606.38</ele>
  <time>2026-08-28T19:07:49Z</time>
  <course>177.38</course>
  <speed>2.982029510249689</speed>
  <fix>3d</fix>
</trkpt>
<trkpt lat="40.0736714" lon="-105.2292272">
  <ele>1606.6</ele>
  <time>2026-08-28T19:07:49Z</time>
  <course>177.02</course>
  <speed>2.97</speed>
  <fix>3d</fix>
</trkpt>
<trkpt lat="40.0736626" lon="-105.2292268">
  <ele>1606.08</ele>
  <time>2026-08-28T19:07:49Z</time>
  <course>179.02</course>
  <speed>2.990066888883926</speed>
  <fix>3d</fix>
</trkpt>
<trkpt lat="40.073666" lon="-105.229227">
  <ele>1606.31</ele>
  <time>2026-08-28T19:07:49Z</time>
  <course>178.66</course>
  <speed>2.97</speed>
  <fix>3d</fix>
</trkpt>
<trkpt lat="40.0736573" lon="-105.2292269">
  <ele>1605.78</ele>
  <time>2026-08-28T19:07:49Z</time>
  <course>180.69</course>
  <speed>2.9906019460971396</speed>
  <fix>3d</fix>
</trkpt>
<trkpt lat="40.0736607" lon="-105.2292269">
  <ele>1606.01</ele>
  <time>2026-08-28T19:07:49Z</time>
  <course>180.33</course>
  <speed>2.97</speed>
  <fix>3d</fix>
</trkpt>
<trkpt lat="40.073652" lon="-105.2292271">
  <ele>1605.48</ele>
  <time>2026-08-28T19:07:49Z</time>
  <course>182.42</course>
  <speed>2.993760177435728</speed>
  <fix>3d</fix>
</trkpt>
<trkpt lat="40.0736553" lon="-105.2292271">
  <ele>1605.71</ele>
  <time>2026-08-28T19:07:49Z</time>
  <course>182.07</course>
  <speed>2.98</speed>
  <fix>3d</fix>
</trkpt>
<trkpt lat="40.0736466" lon="-105.2292276">
  <ele>1605.18</ele>
  <time>2026-08-28T19:07:49Z</time>
  <course>184.28</course>
  <speed>3.0012830589599506</speed>
  <fix>3d</fix>
</trkpt>
<trkpt lat="40.07365" lon="-105.2292274">
  <ele>1605.41</ele>
  <time>2026-08-28T19:07:49Z</time>
  <course>183.93</course>
  <speed>2.99</speed>
  <fix>3d</fix>
</trkpt>
<trkpt lat="40.0736413" lon="-105.2292284">
  <ele>1604.89</ele>
  <time>2026-08-28T19:07:49Z</time>
  <course>186.34</course>
  <speed>3.0227305536550886</speed>
  <fix>3d</fix>
</trkpt>
<trkpt lat="40.0736447" lon="-105.2292279">
  <ele>1605.11</ele>
  <time>2026-08-28T19:07:49Z</time>
  <course>185.96</course>
  <speed>3.0</speed>
  <fix>3d</fix>
</trkpt>
<trkpt lat="40.0736359" lon="-105.2292294">
  <ele>1604.59</ele>
  <time>2026-08-28T19:07:49Z</time>
  <course>188.61</course>
  <speed>3.04138126514911</speed>
  <fix>3d</fix>
</trkpt>
<trkpt lat="40.0736392" lon="-105.2292287">
  <ele>1604.81</ele>
  <time>2026-08-28T19:07:49Z</time>
  <course>188.18</course>
  <speed>3.02</speed>
  <fix>3d</fix>
</trkpt>
<trkpt lat="40.0736305" lon="-105.2292308">
  <ele>1604.29</ele>
  <time>2026-08-28T19:07:49Z</time>
  <course>191.0</course>
  <speed>3.0654363474063526</speed>
  <fix>3d</fix>
</trkpt>
<trkpt lat="40.0736339" lon="-105.22923">
  <ele>1604.51</ele>
  <time>2026-08-28T19:07:49Z</time>
  <course>190.59</course>
  <speed>3.04</speed>
  <fix>3d</fix>
</trkpt>
<trkpt lat="40.0736251" lon="-105.2292325">
  <ele>1603.98</ele>
  <time>2026-08-28T19:07:49Z</time>
  <course>193.57</course>
  <speed>3.1094211679989576</speed>
  <fix>3d</fix>
</trkpt>
<trkpt lat="40.0736285" lon="-105.2292315">
  <ele>1604.2</ele>
  <time>2026-08-28T19:07:49Z</time>
  <course>193.16</course>
  <speed>3.07</speed>
  <fix>3d</fix>
</trkpt>
<trkpt lat="40.0736197" lon="-105.2292345">
  <ele>1603.68</ele>
  <time>2026-08-28T19:07:49Z</time>
  <course>196.3</course>
  <speed>3.15635866149587</speed>
  <fix>3d</fix>
</trkpt>
<trkpt lat="40.0736231" lon="-105.2292333">
  <ele>1603.9</ele>
  <time>2026-08-28T19:07:49Z</time>
  <course>195.89</course>
  <speed>3.11</speed>
  <fix>3d</fix>
</trkpt>
<trkpt lat="40.0736143" lon="-105.229237">
  <ele>1603.38</ele>
  <time>2026-08-28T19:07:49Z</time>
  <course>199.16</course>
  <speed>3.2244844549167855</speed>
  <fix>3d</fix>
</trkpt>
<trkpt lat="40.0736177" lon="-105.2292355">
  <ele>1603.6</ele>
  <time>2026-08-28T19:07:49Z</time>
  <course>198.78</course>
  <speed>3.17</speed>
  <fix>3d</fix>
</trkpt>
<trkpt lat="40.0736089" lon="-105.2292399">
  <ele>1603.08</ele>
  <time>2026-08-28T19:07:49Z</time>
  <course>202.14</course>
  <speed>3.29587621126765</speed>
  <fix>3d</fix>
</trkpt>
<trkpt lat="40.0736124" lon="-105.2292381">
  <ele>1603.3</ele>
  <time>2026-08-28T19:07:49Z</time>
  <course>201.8</course>
  <speed>3.23</speed>
  <fix>3d</fix>
</trkpt>
<trkpt lat="40.0736035" lon="-105.2292432">
  <ele>1602.78</ele>
  <time>2026-08-28T19:07:49Z</time>
  <course>205.22</course>
  <speed>3.3854541792793476</speed>
  <fix>3d</fix>
</trkpt>
<trkpt lat="40.0736069" lon="-105.2292411">
  <ele>1602.99</ele>
  <time>2026-08-28T19:07:49Z</time>
  <course>204.94</course>
  <speed>3.31</speed>
  <fix>3d</fix>
</trkpt>
<trkpt lat="40.0735981" lon="-105.2292471">
  <ele>1602.47</ele>
  <time>2026-08-28T19:07:49Z</time>
  <course>208.36</course>
  <speed>3.4990570158258354</speed>
  <fix>3d</fix>
</trkpt>
<trkpt lat="40.0736016" lon="-105.2292447">
  <ele>1602.69</ele>
  <time>2026-08-28T19:07:49Z</time>
  <course>208.18</course>
  <speed>3.41</speed>
  <fix>3d</fix>
</trkpt>
<trkpt lat="40.0735927" lon="-105.2292515">
  <ele>1602.17</ele>
  <time>2026-08-28T19:07:49Z</time>
  <course>211.56</course>
  <speed>3.6360693062701652</speed>
  <fix>3d</fix>
</trkpt>
<trkpt lat="40.0735961" lon="-105.2292487">
  <ele>1602.38</ele>
  <time>2026-08-28T19:07:49Z</time>
  <course>211.52</course>
  <speed>3.53</speed>
  <fix>3d</fix>
</trkpt>
<trkpt lat="40.0735872" lon="-105.2292566">
  <ele>1601.86</ele>
  <time>2026-08-28T19:07:49Z</time>
  <course>214.78</course>
  <speed>3.792004746832472</speed>
  <fix>3d</fix>
</trkpt>
<trkpt lat="40.0735906" lon="-105.2292533">
  <ele>1602.08</ele>
  <time>2026-08-28T19:07:49Z</time>
  <course>214.94</course>
  <speed>3.67</speed>
  <fix>3d</fix>
</trkpt>
<trkpt lat="40.0735818" lon="-105.2292623">
  <ele>1601.55</ele>
  <time>2026-08-28T19:07:49Z</time>
  <course>217.86</course>
  <speed>3.9785047442475165</speed>
  <fix>3d</fix>
</trkpt>
<trkpt lat="40.0735853" lon="-105.2292586">
  <ele>1601.77</ele>
  <time>2026-08-28T19:07:49Z</time>
  <course>218.45</course>
  <speed>3.84</speed>
  <fix>3d</fix>
</trkpt>
<trkpt lat="40.0735764" lon="-105.2292688">
  <ele>1601.26</ele>
  <time>2026-08-28T19:07:49Z</time>
  <course>221.32</course>
  <speed>4.158172675587198</speed>
  <fix>3d</fix>
</trkpt>
<trkpt lat="40.0735799" lon="-105.2292645">
  <ele>1601.47</ele>
  <time>2026-08-28T19:07:49Z</time>
  <course>222.02</course>
  <speed>4.02</speed>
  <fix>3d</fix>
</trkpt>
<trkpt lat="40.0735712" lon="-105.2292759">
  <ele>1600.99</ele>
  <time>2026-08-28T19:07:49Z</time>
  <course>224.82</course>
  <speed>4.311159936722366</speed>
  <fix>3d</fix>
</trkpt>
<trkpt lat="40.0735746" lon="-105.2292713">
  <ele>1601.18</ele>
  <time>2026-08-28T19:07:49Z</time>
  <course>225.59</course>
  <speed>4.2</speed>
  <fix>3d</fix>
</trkpt>
<trkpt lat="40.0735661" lon="-105.2292837">
  <ele>1600.73</ele>
  <time>2026-08-28T19:07:49Z</time>
  <course>228.32</course>
  <speed>4.460325100258949</speed>
  <fix>3d</fix>
</trkpt>
<trkpt lat="40.0735693" lon="-105.2292787">
  <ele>1600.91</ele>
  <time>2026-08-28T19:07:49Z</time>
  <course>229.14</course>
  <speed>4.35</speed>
  <fix>3d</fix>
</trkpt>
<trkpt lat="40.0735612" lon="-105.2292923">
  <ele>1600.49</ele>
  <time>2026-08-28T19:07:49Z</time>
  <course>231.82</course>
  <speed>4.58032749920789</speed>
  <fix>3d</fix>
</trkpt>
<trkpt lat="40.0735643" lon="-105.2292867">
  <ele>1600.66</ele>
  <time>2026-08-28T19:07:49Z</time>
  <course>232.7</course>
  <speed>4.49</speed>
  <fix>3d</fix>
</trkpt>
<trkpt lat="40.0735566" lon="-105.2293014">
  <ele>1600.28</ele>
  <time>2026-08-28T19:07:49Z</time>
  <course>235.22</course>
  <speed>4.707748931283401</speed>
  <fix>3d</fix>
</trkpt>
<trkpt lat="40.0735595" lon="-105.2292954">
  <ele>1600.42</ele>
  <time>2026-08-28T19:07:49Z</time>
  <course>236.32</course>
  <speed>4.62</speed>
  <fix>3d</fix>
</trkpt>
<trkpt lat="40.0735524" lon="-105.2293111">
  <ele>1600.08</ele>
  <time>2026-08-28T19:07:49Z</time>
  <course>238.82</course>
  <speed>4.813023997446927</speed>
  <fix>3d</fix>
</trkpt>
<trkpt lat="40.0735552" lon="-105.2293048">
  <ele>1600.22</ele>
  <time>2026-08-28T19:07:49Z</time>
  <course>239.96</course>
  <speed>4.74</speed>
  <fix>3d</fix>
</trkpt>
<trkpt lat="40.0735486" lon="-105.2293213">
  <ele>1599.91</ele>
  <time>2026-08-28T19:07:49Z</time>
  <course>242.51</course>
  <speed>4.878780585351221</speed>
  <fix>3d</fix>
</trkpt>
<trkpt lat="40.0735511" lon="-105.2293147">
  <ele>1600.03</ele>
  <time>2026-08-28T19:07:49Z</time>
  <course>243.57</course>
  <speed>4.83</speed>
  <fix>3d</fix>
</trkpt>
<trkpt lat="40.0735453" lon="-105.229332">
  <ele>1599.77</ele>
  <time>2026-08-28T19:07:49Z</time>
  <course>246.19</course>
  <speed>4.914560000651126</speed>
  <fix>3d</fix>
</trkpt>
<trkpt lat="40.0735474" lon="-105.2293251">
  <ele>1599.86</ele>
  <time>2026-08-28T19:07:49Z</time>
  <course>247.14</course>
  <speed>4.89</speed>
  <fix>3d</fix>
</trkpt>
<trkpt lat="40.0735425" lon="-105.2293429">
  <ele>1599.65</ele>
  <time>2026-08-28T19:07:49Z</time>
  <course>249.81</course>
  <speed>4.9377018946064375</speed>
  <fix>3d</fix>
</trkpt>
<trkpt lat="40.0735442" lon="-105.2293359">
  <ele>1599.73</ele>
  <time>2026-08-28T19:07:49Z</time>
  <course>250.68</course>
  <speed>4.93</speed>
  <fix>3d</fix>
</trkpt>
<trkpt lat="40.0735401" lon="-105.2293541">
  <ele>1599.55</ele>
  <time>2026-08-28T19:07:49Z</time>
  <course>253.37</course>
  <speed>4.935838327984416</speed>
  <fix>3d</fix>
</trkpt>
<trkpt lat="40.0735416" lon="-105.2293469">
  <ele>1599.61</ele>
  <time>2026-08-28T19:07:49Z</time>
  <course>254.23</course>
  <speed>4.94</speed>
  <fix>3d</fix>
</trkpt>
<trkpt lat="40.0735383" lon="-105.2293655">
  <ele>1599.46</ele>
  <time>2026-08-28T19:07:49Z</time>
  <course>256.93</course>
  <speed>4.933771376948875</speed>
  <fix>3d</fix>
</trkpt>
<trkpt lat="40.0735394" lon="-105.2293582">
  <ele>1599.51</ele>
  <time>2026-08-28T19:07:49Z</time>
  <course>257.77</course>
  <speed>4.94</speed>
  <fix>3d</fix>
</trkpt>
<trkpt lat="40.0735371" lon="-105.2293769">
  <ele>1599.41</ele>
  <time>2026-08-28T19:07:49Z</time>
  <course>260.43</course>
  <speed>4.920833262771662</speed>
  <fix>3d</fix>
</trkpt>
<trkpt lat="40.0735378" lon="-105.2293696">
  <ele>1599.44</ele>
  <time>2026-08-28T19:07:49Z</time>
  <course>261.3</course>
  <speed>4.93</speed>
  <fix>3d</fix>
</trkpt>
<trkpt lat="40.0735363" lon="-105.2293884">
  <ele>1599.36</ele>
  <time>2026-08-28T19:07:49Z</time>
  <course>263.86</course>
  <speed>4.896907187194791</speed>
  <fix>3d</fix>
</trkpt>
<trkpt lat="40.0735368" lon="-105.2293811">
  <ele>1599.38</ele>
  <time>2026-08-28T19:07:49Z</time>
  <course>264.79</course>
  <speed>4.92</speed>
  <fix>3d</fix>
</trkpt>
<trkpt lat="40.0735361" lon="-105.2293999">
  <ele>1599.34</ele>
  <time>2026-08-28T19:07:49Z</time>
  <course>267.29</course>
  <speed>4.860041152089146</speed>
  <fix>3d</fix>
</trkpt>
<trkpt lat="40.0735362" lon="-105.2293926">
  <ele>1599.34</ele>
  <time>2026-08-28T19:07:49Z</time>
  <course>268.23</course>
  <speed>4.89</speed>
  <fix>3d</fix>
</trkpt>
<trkpt lat="40.0735364" lon="-105.2294112">
  <ele>1599.33</ele>
  <time>2026-08-28T19:07:49Z</time>
  <course>270.59</course>
  <speed>4.819346428718317</speed>
  <fix>3d</fix>
</trkpt>
<trkpt lat="40.0735362" lon="-105.2294041">
  <ele>1599.32</ele>
  <time>2026-08-28T19:07:49Z</time>
  <course>271.6</course>
  <speed>4.85</speed>
  <fix>3d</fix>
</trkpt>
<trkpt lat="40.0735372" lon="-105.2294224">
  <ele>1599.35</ele>
  <time>2026-08-28T19:07:49Z</time>
  <course>273.85</course>
  <speed>4.774149138851865</speed>
  <fix>3d</fix>
</trkpt>
<trkpt lat="40.0735367" lon="-105.2294154">
  <ele>1599.32</ele>
  <time>2026-08-28T19:07:49Z</time>
  <course>274.92</course>
  <speed>4.81</speed>
  <fix>3d</fix>
</trkpt>
<trkpt lat="40.0735384" lon="-105.2294335">
  <ele>1599.38</ele>
  <time>2026-08-28T19:07:49Z</time>
  <course>277.01</course>
  <speed>4.723494469140405</speed>
  <fix>3d</fix>
</trkpt>
<trkpt lat="40.0735376" lon="-105.2294266">
  <ele>1599.34</ele>
  <time>2026-08-28T19:07:49Z</time>
  <course>278.17</course>
  <speed>4.76</speed>
  <fix>3d</fix>
</trkpt>
<trkpt lat="40.0735401" lon="-105.2294443">
  <ele>1599.44</ele>
  <time>2026-08-28T19:07:49Z</time>
  <course>280.11</course>
  <speed>4.662102529975075</speed>
  <fix>3d</fix>
</trkpt>
<trkpt lat="40.073539" lon="-105.2294375">
  <ele>1599.38</ele>
  <time>2026-08-28T19:07:49Z</time>
  <course>281.35</course>
  <speed>4.71</speed>
  <fix>3d</fix>
</trkpt>
<trkpt lat="40.0735423" lon="-105.2294548">
  <ele>1599.52</ele>
  <time>2026-08-28T19:07:49Z</time>
  <course>283.15</course>
  <speed>4.60440006949874</speed>
  <fix>3d</fix>
</trkpt>
<trkpt lat="40.0735409" lon="-105.2294483">
  <ele>1599.44</ele>
  <time>2026-08-28T19:07:49Z</time>
  <course>284.45</course>
  <speed>4.65</speed>
  <fix>3d</fix>
</trkpt>
<trkpt lat="40.0735448" lon="-105.229465">
  <ele>1599.61</ele>
  <time>2026-08-28T19:07:49Z</time>
  <course>286.09</course>
  <speed>4.54138745319093</speed>
  <fix>3d</fix>
</trkpt>
<trkpt lat="40.0735432" lon="-105.2294587">
  <ele>1599.52</ele>
  <time>2026-08-28T19:07:49Z</time>
  <course>287.5</course>
  <speed>4.59</speed>
  <fix>3d</fix>
</trkpt>
<trkpt lat="40.0735477" lon="-105.229475">
  <ele>1599.73</ele>
  <time>2026-08-28T19:07:49Z</time>
  <course>289.01</course>
  <speed>4.471655174541079</speed>
  <fix>3d</fix>
</trkpt>
<trkpt lat="40.0735459" lon="-105.2294688">
  <ele>1599.61</ele>
  <time>2026-08-28T19:07:49Z</time>
  <course>290.51</course>
  <speed>4.52</speed>
  <fix>3d</fix>
</trkpt>
<trkpt lat="40.0735509" lon="-105.2294846">
  <ele>1599.86</ele>
  <time>2026-08-28T19:07:49Z</time>
  <course>291.88</course>
  <speed>4.406472512112154</speed>
  <fix>3d</fix>
</trkpt>
<trkpt lat="40.0735489" lon="-105.2294785">
  <ele>1599.73</ele>
  <time>2026-08-28T19:07:49Z</time>
  <course>293.48</course>
  <speed>4.45</speed>
  <fix>3d</fix>
</trkpt>
<trkpt lat="40.0735545" lon="-105.2294937">
  <ele>1600.01</ele>
  <time>2026-08-28T19:07:49Z</time>
  <course>294.72</course>
  <speed>4.339412402618585</speed>
  <fix>3d</fix>
</trkpt>
<trkpt lat="40.0735522" lon="-105.229488">
  <ele>1599.87</ele>
  <time>2026-08-28T19:07:49Z</time>
  <course>296.43</course>
  <speed>4.38</speed>
  <fix>3d</fix>
</trkpt>
<trkpt lat="40.0735583" lon="-105.2295026">
  <ele>1600.18</ele>
  <time>2026-08-28T19:07:49Z</time>
  <course>297.55</course>
  <speed>4.278890042990121</speed>
  <fix>3d</fix>
</trkpt>
<trkpt lat="40.0735559" lon="-105.2294971">
  <ele>1600.03</ele>
  <time>2026-08-28T19:07:49Z</time>
  <course>299.37</course>
  <speed>4.32</speed>
  <fix>3d</fix>
</trkpt>
<trkpt lat="40.0735624" lon="-105.229511">
  <ele>1600.38</ele>
  <time>2026-08-28T19:07:49Z</time>
  <course>300.36</course>
  <speed>4.229621732495708</speed>
  <fix>3d</fix>
</trkpt>
<trkpt lat="40.0735599" lon="-105.2295057">
  <ele>1600.2</ele>
  <time>2026-08-28T19:07:49Z</time>
  <course>302.3</course>
  <speed>4.26</speed>
  <fix>3d</fix>
</trkpt>
<trkpt lat="40.0735669" lon="-105.2295191">
  <ele>1600.59</ele>
  <time>2026-08-28T19:07:49Z</time>
  <course>303.16</course>
  <speed>4.186000477783059</speed>
  <fix>3d</fix>
</trkpt>
<trkpt lat="40.0735641" lon="-105.229514">
  <ele>1600.4</ele>
  <time>2026-08-28T19:07:49Z</time>
  <course>305.27</course>
  <speed>4.2</speed>
  <fix>3d</fix>
</trkpt>
<trkpt lat="40.0735715" lon="-105.2295267">
  <ele>1600.82</ele>
  <time>2026-08-28T19:07:49Z</time>
  <course>305.86</course>
  <speed>4.1599278839902984</speed>
  <fix>3d</fix>
</trkpt>
<trkpt lat="40.0735686" lon="-105.2295218">
  <ele>1600.62</ele>
  <time>2026-08-28T19:07:49Z</time>
  <course>308.29</course>
  <speed>4.17</speed>
  <fix>3d</fix>
</trkpt>
<trkpt lat="40.0735765" lon="-105.229534">
  <ele>1601.08</ele>
  <time>2026-08-28T19:07:49Z</time>
  <course>308.89</course>
  <speed>4.1177906697645525</speed>
  <fix>3d</fix>
</trkpt>
<trkpt lat="40.0735734" lon="-105.2295293">
  <ele>1600.86</ele>
  <time>2026-08-28T19:07:49Z</time>
  <course>311.36</course>
  <speed>4.13</speed>
  <fix>3d</fix>
</trkpt>
<trkpt lat="40.0735817" lon="-105.2295408">
  <ele>1601.36</ele>
  <time>2026-08-28T19:07:49Z</time>
  <course>312.07</course>
  <speed>4.066902998597335</speed>
  <fix>3d</fix>
</trkpt>
<trkpt lat="40.0735784" lon="-105.2295364">
  <ele>1601.11</ele>
  <time>2026-08-28T19:07:49Z</time>
  <course>314.47</course>
  <speed>4.09</speed>
  <fix>3d</fix>
</trkpt>
<trkpt lat="40.0735871" lon="-105.2295471">
  <ele>1601.66</ele>
  <time>2026-08-28T19:07:49Z</time>
  <course>315.35</course>
  <speed>4.007804885470349</speed>
  <fix>3d</fix>
</trkpt>
<trkpt lat="40.0735837" lon="-105.2295431">
  <ele>1601.39</ele>
  <time>2026-08-28T19:07:49Z</time>
  <course>317.66</course>
  <speed>4.04</speed>
  <fix>3d</fix>
</trkpt>
<trkpt lat="40.0735926" lon="-105.2295529">
  <ele>1601.97</ele>
  <time>2026-08-28T19:07:49Z</time>
  <course>318.72</course>
  <speed>3.9480248226170005</speed>
  <fix>3d</fix>
</trkpt>
<trkpt lat="40.0735892" lon="-105.2295491">
  <ele>1601.69</ele>
  <time>2026-08-28T19:07:49Z</time>
  <course>321.01</course>
  <speed>3.98</speed>
  <fix>3d</fix>
</trkpt>
<trkpt lat="40.0735985" lon="-105.2295582">
  <ele>1602.28</ele>
  <time>2026-08-28T19:07:49Z</time>
  <course>322.24</course>
  <speed>3.905137641620331</speed>
  <fix>3d</fix>
</trkpt>
<trkpt lat="40.0735948" lon="-105.2295547">
  <ele>1601.99</ele>
  <time>2026-08-28T19:07:49Z</time>
  <course>324.52</course>
  <speed>3.93</speed>
  <fix>3d</fix>
</trkpt>
<trkpt lat="40.0736044" lon="-105.2295629">
  <ele>1602.61</ele>
  <time>2026-08-28T19:07:49Z</time>
  <course>325.85</course>
  <speed>3.8785693238615706</speed>
  <fix>3d</fix>
</trkpt>
<trkpt lat="40.0736007" lon="-105.2295599">
  <ele>1602.31</ele>
  <time>2026-08-28T19:07:49Z</time>
  <course>328.19</course>
  <speed>3.88</speed>
  <fix>3d</fix>
</trkpt>
<trkpt lat="40.0736105" lon="-105.2295671">
  <ele>1602.95</ele>
  <time>2026-08-28T19:07:49Z</time>
  <course>329.52</course>
  <speed>3.8596631977414817</speed>
  <fix>3d</fix>
</trkpt>
<trkpt lat="40.0736067" lon="-105.2295644">
  <ele>1602.63</ele>
  <time>2026-08-28T19:07:49Z</time>
  <course>331.96</course>
  <speed>3.86</speed>
  <fix>3d</fix>
</trkpt>
<trkpt lat="40.0736169" lon="-105.2295708">
  <ele>1603.3</ele>
  <time>2026-08-28T19:07:49Z</time>
  <course>333.23</course>
  <speed>3.8624991909384265</speed>
  <fix>3d</fix>
</trkpt>
<trkpt lat="40.0736129" lon="-105.2295684">
  <ele>1602.97</ele>
  <time>2026-08-28T19:07:49Z</time>
  <course>335.78</course>
  <speed>3.85</speed>
  <fix>3d</fix>
</trkpt>
<trkpt lat="40.0736234" lon="-105.2295739">
  <ele>1603.66</ele>
  <time>2026-08-28T19:07:49Z</time>
  <course>336.91</course>
  <speed>3.8864508230517982</speed>
  <fix>3d</fix>
</trkpt>
<trkpt lat="40.0736193" lon="-105.2295718">
  <ele>1603.31</ele>
  <time>2026-08-28T19:07:50Z</time>
  <course>339.61</course>
  <speed>3.86</speed>
  <fix>3d</fix>
</trkpt>
<trkpt lat="40.0736301" lon="-105.2295764">
  <ele>1604.03</ele>
  <time>2026-08-28T19:07:50Z</time>
  <course>340.54</course>
  <speed>3.924334338457925</speed>
  <fix>3d</fix>
</trkpt>
<trkpt lat="40.0736259" lon="-105.2295747">
  <ele>1603.66</ele>
  <time>2026-08-28T19:07:50Z</time>
  <course>343.42</course>
  <speed>3.88</speed>
  <fix>3d</fix>
</trkpt>
<trkpt lat="40.073637" lon="-105.2295784">
  <ele>1604.41</ele>
  <time>2026-08-28T19:07:50Z</time>
  <course>344.1</course>
  <speed>3.9812812008196556</speed>
  <fix>3d</fix>
</trkpt>
<trkpt lat="40.0736327" lon="-105.229577">
  <ele>1604.03</ele>
  <time>2026-08-28T19:07:50Z</time>
  <course>347.17</course>
  <speed>3.93</speed>
  <fix>3d</fix>
</trkpt>
<trkpt lat="40.0736441" lon="-105.2295798">
  <ele>1604.8</ele>
  <time>2026-08-28T19:07:50Z</time>
  <course>347.55</course>
  <speed>4.062142291943994</speed>
  <fix>3d</fix>
</trkpt>
<trkpt lat="40.0736397" lon="-105.2295788">
  <ele>1604.4</ele>
  <time>2026-08-28T19:07:50Z</time>
  <course>350.81</course>
  <speed>4.0</speed>
  <fix>3d</fix>
</trkpt>
<trkpt lat="40.0736515" lon="-105.2295807">
  <ele>1605.2</ele>
  <time>2026-08-28T19:07:50Z</time>
  <course>350.82</course>
  <speed>4.1594350577933055</speed>
  <fix>3d</fix>
</trkpt>
<trkpt lat="40.0736469" lon="-105.22958">
  <ele>1604.79</ele>
  <time>2026-08-28T19:07:50Z</time>
  <course>354.33</course>
  <speed>4.08</speed>
  <fix>3d</fix>
</trkpt>
<trkpt lat="40.073659" lon="-105.229581">
  <ele>1605.61</ele>
  <time>2026-08-28T19:07:50Z</time>
  <course>353.92</course>
  <speed>4.280292046110873</speed>
  <fix>3d</fix>
</trkpt>
<trkpt lat="40.0736543" lon="-105.2295807">
  <ele>1605.19</ele>
  <time>2026-08-28T19:07:50Z</time>
  <course>357.7</course>
  <speed>4.19</speed>
  <fix>3d</fix>
</trkpt>
<trkpt lat="40.0736668" lon="-105.2295809">
  <ele>1606.04</ele>
  <time>2026-08-28T19:07:50Z</time>
  <course>356.86</course>
  <speed>4.423663640016044</speed>
  <fix>3d</fix>
</trkpt>
<trkpt lat="40.073662" lon="-105.2295808">
  <ele>1605.61</ele>
  <time>2026-08-28T19:07:50Z</time>
  <course>0.91</course>
  <speed>4.32</speed>
  <fix>3d</fix>
</trkpt>
<trkpt lat="40.0736749" lon="-105.2295801">
  <ele>1606.48</ele>
  <time>2026-08-28T19:07:50Z</time>
  <course>359.71</course>
  <speed>4.5793012567421245</speed>
  <fix>3d</fix>
</trkpt>
<trkpt lat="40.0736699" lon="-105.2295804">
  <ele>1606.05</ele>
  <time>2026-08-28T19:07:50Z</time>
  <course>3.93</course>
  <speed>4.46</speed>
  <fix>3d</fix>
</trkpt>
<trkpt lat="40.0736832" lon="-105.2295788">
  <ele>1606.95</ele>
  <time>2026-08-28T19:07:50Z</time>
  <course>2.12</course>
  <speed>4.754639839146599</speed>
  <fix>3d</fix>
</trkpt>
<trkpt lat="40.073678" lon="-105.2295795">
  <ele>1606.5</ele>
  <time>2026-08-28T19:07:50Z</time>
  <course>6.74</course>
  <speed>4.63</speed>
  <fix>3d</fix>
</trkpt>
<trkpt lat="40.0736918" lon="-105.2295769">
  <ele>1607.44</ele>
  <time>2026-08-28T19:07:50Z</time>
  <course>4.14</course>
  <speed>4.968551096647794</speed>
  <fix>3d</fix>
</trkpt>
<trkpt lat="40.0736864" lon="-105.2295779">
  <ele>1606.97</ele>
  <time>2026-08-28T19:07:50Z</time>
  <course>9.25</course>
  <speed>4.82</speed>
  <fix>3d</fix>
</trkpt>
<trkpt lat="40.0737008" lon="-105.2295745">
  <ele>1607.95</ele>
  <time>2026-08-28T19:07:50Z</time>
  <course>5.7</course>
  <speed>5.176069937703702</speed>
  <fix>3d</fix>
</trkpt>
<trkpt lat="40.0736951" lon="-105.2295758">
  <ele>1607.46</ele>
  <time>2026-08-28T19:07:50Z</time>
  <course>11.46</course>
  <speed>5.03</speed>
  <fix>3d</fix>
</trkpt>
<trkpt lat="40.07371" lon="-105.2295716">
  <ele>1608.48</ele>
  <time>2026-08-28T19:07:50Z</time>
  <course>7.68</course>
  <speed>5.3576207405899865</speed>
  <fix>3d</fix>
</trkpt>
<trkpt lat="40.0737041" lon="-105.2295732">
  <ele>1607.97</ele>
  <time>2026-08-28T19:07:50Z</time>
  <course>13.39</course>
  <speed>5.23</speed>
  <fix>3d</fix>
</trkpt>
<trkpt lat="40.0737193" lon="-105.2295683">
  <ele>1609.02</ele>
  <time>2026-08-28T19:07:50Z</time>
  <course>9.84</course>
  <speed>5.473874313500448</speed>
  <fix>3d</fix>
</trkpt>
<trkpt lat="40.0737134" lon="-105.2295701">
  <ele>1608.49</ele>
  <time>2026-08-28T19:07:50Z</time>
  <course>15.1</course>
  <speed>5.4</speed>
  <fix>3d</fix>
</trkpt>
<trkpt lat="40.0737288" lon="-105.2295645">
  <ele>1609.55</ele>
  <time>2026-08-28T19:07:50Z</time>
  <course>12.04</course>
  <speed>5.5538815255639005</speed>
  <fix>3d</fix>
</trkpt>
<trkpt lat="40.0737228" lon="-105.2295666">
  <ele>1609.01</ele>
  <time>2026-08-28T19:07:50Z</time>
  <course>16.75</course>
  <speed>5.51</speed>
  <fix>3d</fix>
</trkpt>
<trkpt lat="40.0737383" lon="-105.2295603">
  <ele>1610.08</ele>
  <time>2026-08-28T19:07:50Z</time>
  <course>14.25</course>
  <speed>5.6135995582157445</speed>
  <fix>3d</fix>
</trkpt>
<trkpt lat="40.0737323" lon="-105.2295627">
  <ele>1609.54</ele>
  <time>2026-08-28T19:07:50Z</time>
  <course>18.46</course>
  <speed>5.59</speed>
  <fix>3d</fix>
</trkpt>
<trkpt lat="40.0737478" lon="-105.2295557">
  <ele>1610.6</ele>
  <time>2026-08-28T19:07:50Z</time>
  <course>16.38</course>
  <speed>5.669717806028798</speed>
  <fix>3d</fix>
</trkpt>
<trkpt lat="40.0737419" lon="-105.2295583">
  <ele>1610.07</ele>
  <time>2026-08-28T19:07:50Z</time>
  <course>20.25</course>
  <speed>5.65</speed>
  <fix>3d</fix>
</trkpt>
<trkpt lat="40.0737573" lon="-105.2295506">
  <ele>1611.12</ele>
  <time>2026-08-28T19:07:50Z</time>
  <course>18.46</course>
  <speed>5.713186501419326</speed>
  <fix>3d</fix>
</trkpt>
<trkpt lat="40.0737514" lon="-105.2295535">
  <ele>1610.59</ele>
  <time>2026-08-28T19:07:50Z</time>
  <course>22.09</course>
  <speed>5.7</speed>
  <fix>3d</fix>
</trkpt>
<trkpt lat="40.0737668" lon="-105.229545">
  <ele>1611.63</ele>
  <time>2026-08-28T19:07:50Z</time>
  <course>20.47</course>
  <speed>5.758558847489535</speed>
  <fix>3d</fix>
</trkpt>
<trkpt lat="40.0737608" lon="-105.2295482">
  <ele>1611.1</ele>
  <time>2026-08-28T19:07:50Z</time>
  <course>23.9</course>
  <speed>5.75</speed>
  <fix>3d</fix>
</trkpt>
<trkpt lat="40.0737761" lon="-105.2295391">
  <ele>1612.14</ele>
  <time>2026-08-28T19:07:50Z</time>
  <course>22.39</course>
  <speed>5.786950837876541</speed>
  <fix>3d</fix>
</trkpt>
<trkpt lat="40.0737703" lon="-105.2295425">
  <ele>1611.61</ele>
  <time>2026-08-28T19:07:50Z</time>
  <course>25.67</course>
  <speed>5.78</speed>
  <fix>3d</fix>
</trkpt>
<trkpt lat="40.0737854" lon="-105.2295327">
  <ele>1612.64</ele>
  <time>2026-08-28T19:07:50Z</time>
  <course>24.21</course>
  <speed>5.81588342386606</speed>
  <fix>3d</fix>
</trkpt>
<trkpt lat="40.0737796" lon="-105.2295364">
  <ele>1612.11</ele>
  <time>2026-08-28T19:07:50Z</time>
  <course>27.35</course>
  <speed>5.81</speed>
  <fix>3d</fix>
</trkpt>
<trkpt lat="40.0737946" lon="-105.229526">
  <ele>1613.14</ele>
  <time>2026-08-28T19:07:50Z</time>
  <course>25.94</course>
  <speed>5.835837557711832</speed>
  <fix>3d</fix>
</trkpt>
<trkpt lat="40.0737888" lon="-105.22953">
  <ele>1612.61</ele>
  <time>2026-08-28T19:07:50Z</time>
  <course>28.95</course>
  <speed>5.83</speed>
  <fix>3d</fix>
</trkpt>
<trkpt lat="40.0738036" lon="-105.229519">
  <ele>1613.64</ele>
  <time>2026-08-28T19:07:50Z</time>
  <course>27.55</course>
  <speed>5.841266985851615</speed>
  <fix>3d</fix>
</trkpt>
<trkpt lat="40.0737979" lon="-105.2295231">
  <ele>1613.1</ele>
  <time>2026-08-28T19:07:50Z</time>
  <course>30.44</course>
  <speed>5.85</speed>
  <fix>3d</fix>
</trkpt>
<trkpt lat="40.0738125" lon="-105.2295118">
  <ele>1614.14</ele>
  <time>2026-08-28T19:07:50Z</time>
  <course>29.01</course>
  <speed>5.848119355827136</speed>
  <fix>3d</fix>
</trkpt>
<trkpt lat="40.073807" lon="-105.2295161">
  <ele>1613.6</ele>
  <time>2026-08-28T19:07:50Z</time>
  <course>31.81</course>
  <speed>5.86</speed>
  <fix>3d</fix>
</trkpt>
<trkpt lat="40.0738213" lon="-105.2295042">
  <ele>1614.65</ele>
  <time>2026-08-28T19:07:50Z</time>
  <course>30.33</course>
  <speed>5.857644577814533</speed>
  <fix>3d</fix>
</trkpt>
<trkpt lat="40.0738159" lon="-105.2295087">
  <ele>1614.09</ele>
  <time>2026-08-28T19:07:50Z</time>
  <course>33.07</course>
  <speed>5.86</speed>
  <fix>3d</fix>
</trkpt>
<trkpt lat="40.07383" lon="-105.2294965">
  <ele>1615.15</ele>
  <time>2026-08-28T19:07:50Z</time>
  <course>31.52</course>
  <speed>5.8666685606057545</speed>
  <fix>3d</fix>
</trkpt>
<trkpt lat="40.0738246" lon="-105.229501">
  <ele>1614.59</ele>
  <time>2026-08-28T19:07:50Z</time>
  <course>34.2</course>
  <speed>5.87</speed>
  <fix>3d</fix>
</trkpt>
<trkpt lat="40.0738386" lon="-105.2294885">
  <ele>1615.65</ele>
  <time>2026-08-28T19:07:50Z</time>
  <course>32.54</course>
  <speed>5.871669268615186</speed>
  <fix>3d</fix>
</trkpt>
<trkpt lat="40.0738333" lon="-105.2294931">
  <ele>1615.08</ele>
  <time>2026-08-28T19:07:50Z</time>
  <course>35.19</course>
  <speed>5.88</speed>
  <fix>3d</fix>
</trkpt>
<trkpt lat="40.0738472" lon="-105.2294804">
  <ele>1616.15</ele>
  <time>2026-08-28T19:07:50Z</time>
  <course>33.41</course>
  <speed>5.874393585724403</speed>
  <fix>3d</fix>
</trkpt>
<trkpt lat="40.0738419" lon="-105.2294851">
  <ele>1615.57</ele>
  <time>2026-08-28T19:07:50Z</time>
  <course>36.03</course>
  <speed>5.88</speed>
  <fix>3d</fix>
</trkpt>
<trkpt lat="40.0738557" lon="-105.2294721">
  <ele>1616.64</ele>
  <time>2026-08-28T19:07:50Z</time>
  <course>34.12</course>
  <speed>5.88600033978932</speed>
  <fix>3d</fix>
</trkpt>
<trkpt lat="40.0738504" lon="-105.2294769">
  <ele>1616.06</ele>
  <time>2026-08-28T19:07:50Z</time>
  <course>36.73</course>
  <speed>5.89</speed>
  <fix>3d</fix>
</trkpt>
<trkpt lat="40.0738641" lon="-105.2294637">
  <ele>1617.14</ele>
  <time>2026-08-28T19:07:50Z</time>
  <course>34.67</course>
  <speed>5.894149641805848</speed>
  <fix>3d</fix>
</trkpt>
<trkpt lat="40.0738589" lon="-105.2294685">
  <ele>1616.55</ele>
  <time>2026-08-28T19:07:50Z</time>
  <course>37.28</course>
  <speed>5.9</speed>
  <fix>3d</fix>
</trkpt>
<trkpt lat="40.0738725" lon="-105.2294552">
  <ele>1617.63</ele>
  <time>2026-08-28T19:07:50Z</time>
  <course>35.11</course>
  <speed>5.904439008068421</speed>
  <fix>3d</fix>
</trkpt>
<trkpt lat="40.0738674" lon="-105.2294601">
  <ele>1617.04</ele>
  <time>2026-08-28T19:07:50Z</time>
  <course>37.68</course>
  <speed>5.91</speed>
  <fix>3d</fix>
</trkpt>
<trkpt lat="40.0738809" lon="-105.2294466">
  <ele>1618.12</ele>
  <time>2026-08-28T19:07:50Z</time>
  <course>35.38</course>
  <speed>5.916654460081305</speed>
  <fix>3d</fix>
</trkpt>
<trkpt lat="40.0738757" lon="-105.2294516">
  <ele>1617.53</ele>
  <time>2026-08-28T19:07:50Z</time>
  <course>37.95</course>
  <speed>5.91</speed>
  <fix>3d</fix>
</trkpt>
<trkpt lat="40.0738893" lon="-105.229438">
  <ele>1618.61</ele>
  <time>2026-08-28T19:07:50Z</time>
  <course>35.53</course>
  <speed>5.928912210515517</speed>
  <fix>3d</fix>
</trkpt>
<trkpt lat="40.0738841" lon="-105.2294431">
  <ele>1618.02</ele>
  <time>2026-08-28T19:07:50Z</time>
  <course>38.11</course>
  <speed>5.92</speed>
  <fix>3d</fix>
</trkpt>
<trkpt lat="40.0738977" lon="-105.2294294">
  <ele>1619.1</ele>
  <time>2026-08-28T19:07:50Z</time>
  <course>35.58</course>
  <speed>5.936808907148689</speed>
  <fix>3d</fix>
</trkpt>
<trkpt lat="40.0738925" lon="-105.2294345">
  <ele>1618.52</ele>
  <time>2026-08-28T19:07:50Z</time>
  <course>38.15</course>
  <speed>5.93</speed>
  <fix>3d</fix>
</trkpt>
<trkpt lat="40.0739061" lon="-105.2294208">
  <ele>1619.6</ele>
  <time>2026-08-28T19:07:50Z</time>
  <course>35.53</course>
  <speed>5.9447119358300275</speed>
  <fix>3d</fix>
</trkpt>
<trkpt lat="40.0739009" lon="-105.2294259">
  <ele>1619.02</ele>
  <time>2026-08-28T19:07:50Z</time>
  <course>38.11</course>
  <speed>5.94</speed>
  <fix>3d</fix>
</trkpt>
<trkpt lat="40.0739145" lon="-105.2294122">
  <ele>1620.1</ele>
  <time>2026-08-28T19:07:50Z</time>
  <course>35.42</course>
  <speed>5.9544353216740875</speed>
  <fix>3d</fix>
</trkpt>
<trkpt lat="40.0739092" lon="-105.2294172">
  <ele>1619.51</ele>
  <time>2026-08-28T19:07:50Z</time>
  <course>37.98</course>
  <speed>5.95</speed>
  <fix>3d</fix>
</trkpt>
<trkpt lat="40.073923" lon="-105.2294036">
  <ele>1620.59</ele>
  <time>2026-08-28T19:07:50Z</time>
  <course>35.26</course>
  <speed>5.972177157452716</speed>
  <fix>3d</fix>
</trkpt>
<trkpt lat="40.0739177" lon="-105.2294086">
  <ele>1620.01</ele>
  <time>2026-08-28T19:07:50Z</time>
  <course>37.79</course>
  <speed>5.96</speed>
  <fix>3d</fix>
</trkpt>
<trkpt lat="40.0739315" lon="-105.2293951">
  <ele>1621.09</ele>
  <time>2026-08-28T19:07:50Z</time>
  <course>35.05</course>
  <speed>5.982056502575014</speed>
  <fix>3d</fix>
</trkpt>
<trkpt lat="40.0739262" lon="-105.2294">
  <ele>1620.51</ele>
  <time>2026-08-28T19:07:50Z</time>
  <course>37.55</course>
  <speed>5.98</speed>
  <fix>3d</fix>
</trkpt>
<trkpt lat="40.0739402" lon="-105.2293865">
  <ele>1621.59</ele>
  <time>2026-08-28T19:07:50Z</time>
  <course>34.78</course>
  <speed>5.994005338669627</speed>
  <fix>3d</fix>
</trkpt>
<trkpt lat="40.0739347" lon="-105.2293915">
  <ele>1621.02</ele>
  <time>2026-08-28T19:07:50Z</time>
  <course>37.25</course>
  <speed>5.99</speed>
  <fix>3d</fix>
</trkpt>
<trkpt lat="40.0739488" lon="-105.229378">
  <ele>1622.09</ele>
  <time>2026-08-28T19:07:50Z</time>
  <course>34.5</course>
  <speed>6.006146851351539</speed>
  <fix>3d</fix>
</trkpt>
<trkpt lat="40.0739434" lon="-105.229383">
  <ele>1621.52</ele>
  <time>2026-08-28T19:07:50Z</time>
  <course>36.92</course>
  <speed>6.0</speed>
  <fix>3d</fix>
</trkpt>
<trkpt lat="40.0739575" lon="-105.2293696">
  <ele>1622.6</ele>
  <time>2026-08-28T19:07:50Z</time>
  <course>34.2</course>
  <speed>6.012586797710283</speed>
  <fix>3d</fix>
</trkpt>
<trkpt lat="40.073952" lon="-105.2293746">
  <ele>1622.02</ele>
  <time>2026-08-28T19:07:50Z</time>
  <course>36.55</course>
  <speed>6.0</speed>
  <fix>3d</fix>
</trkpt>
<trkpt lat="40.0739663" lon="-105.2293612">
  <ele>1623.1</ele>
  <time>2026-08-28T19:07:50Z</time>
  <course>33.89</course>
  <speed>6.011197883949587</speed>
  <fix>3d</fix>
</trkpt>
<trkpt lat="40.0739607" lon="-105.2293662">
  <ele>1622.53</ele>
  <time>2026-08-28T19:07:50Z</time>
  <course>36.17</course>
  <speed>6.01</speed>
  <fix>3d</fix>
</trkpt>
<trkpt lat="40.0739751" lon="-105.2293529">
  <ele>1623.61</ele>
  <time>2026-08-28T19:07:50Z</time>
  <course>33.56</course>
  <speed>6.004240168414318</speed>
  <fix>3d</fix>
</trkpt>
<trkpt lat="40.0739694" lon="-105.2293579">
  <ele>1623.03</ele>
  <time>2026-08-28T19:07:50Z</time>
  <course>35.76</course>
  <speed>6.0</speed>
  <fix>3d</fix>
</trkpt>
<trkpt lat="40.0739839" lon="-105.2293448">
  <ele>1624.12</ele>
  <time>2026-08-28T19:07:50Z</time>
  <course>33.22</course>
  <speed>5.997607856470778</speed>
  <fix>3d</fix>
</trkpt>
<trkpt lat="40.0739782" lon="-105.2293497">
  <ele>1623.54</ele>
  <time>2026-08-28T19:07:50Z</time>
  <course>35.34</course>
  <speed>6.0</speed>
  <fix>3d</fix>
</trkpt>
<trkpt lat="40.0739927" lon="-105.2293367">
  <ele>1624.62</ele>
  <time>2026-08-28T19:07:50Z</time>
  <course>32.86</course>
  <speed>5.985649505275096</speed>
  <fix>3d</fix>
</trkpt>
<trkpt lat="40.073987" lon="-105.2293416">
  <ele>1624.04</ele>
  <time>2026-08-28T19:07:50Z</time>
  <course>34.89</course>
  <speed>5.99</speed>
  <fix>3d</fix>
</trkpt>
<trkpt lat="40.0740016" lon="-105.2293288">
  <ele>1625.12</ele>
  <time>2026-08-28T19:07:50Z</time>
  <course>32.49</course>
  <speed>5.965852830903558</speed>
  <fix>3d</fix>
</trkpt>
<trkpt lat="40.0739959" lon="-105.2293336">
  <ele>1624.55</ele>
  <time>2026-08-28T19:07:50Z</time>
  <course>34.43</course>
  <speed>5.97</speed>
  <fix>3d</fix>
</trkpt>
<trkpt lat="40.0740105" lon="-105.229321">
  <ele>1625.62</ele>
  <time>2026-08-28T19:07:50Z</time>
  <course>32.07</course>
  <speed>5.940917437568039</speed>
  <fix>3d</fix>
</trkpt>
<trkpt lat="40.0740048" lon="-105.2293258">
  <ele>1625.05</ele>
  <time>2026-08-28T19:07:50Z</time>
  <course>33.93</course>
  <speed>5.95</speed>
  <fix>3d</fix>
</trkpt>
<trkpt lat="40.0740194" lon="-105.2293133">
  <ele>1626.12</ele>
  <time>2026-08-28T19:07:50Z</time>
  <course>31.58</course>
  <speed>5.916502345136019</speed>
  <fix>3d</fix>
</trkpt>
<trkpt lat="40.0740136" lon="-105.229318">
  <ele>1625.55</ele>
  <time>2026-08-28T19:07:50Z</time>
  <course>33.4</course>
  <speed>5.93</speed>
  <fix>3d</fix>
</trkpt>
<trkpt lat="40.0740283" lon="-105.2293058">
  <ele>1626.63</ele>
  <time>2026-08-28T19:07:50Z</time>
  <course>31.04</course>
  <speed>5.88727441181401</speed>
  <fix>3d</fix>
</trkpt>
<trkpt lat="40.0740225" lon="-105.2293104">
  <ele>1626.05</ele>
  <time>2026-08-28T19:07:50Z</time>
  <course>32.81</course>
  <speed>5.9</speed>
  <fix>3d</fix>
</trkpt>
<trkpt lat="40.0740373" lon="-105.2292985">
  <ele>1627.13</ele>
  <time>2026-08-28T19:07:50Z</time>
  <course>30.47</course>
  <speed>5.844997861419626</speed>
  <fix>3d</fix>
</trkpt>
<trkpt lat="40.0740315" lon="-105.229303">
  <ele>1626.55</ele>
  <time>2026-08-28T19:07:50Z</time>
  <course>32.18</course>
  <speed>5.86</speed>
  <fix>3d</fix>
</trkpt>
<trkpt lat="40.0740462" lon="-105.2292914">
  <ele>1627.63</ele>
  <time>2026-08-28T19:07:50Z</time>
  <course>29.85</course>
  <speed>5.798387706940612</speed>
  <fix>3d</fix>
</trkpt>
<trkpt lat="40.0740404" lon="-105.2292957">
  <ele>1627.05</ele>
  <time>2026-08-28T19:07:50Z</time>
  <course>31.47</course>
  <speed>5.82</speed>
  <fix>3d</fix>
</trkpt>
<trkpt lat="40.0740551" lon="-105.2292845">
  <ele>1628.13</ele>
  <time>2026-08-28T19:07:50Z</time>
  <course>29.13</course>
  <speed>5.7478082779438635</speed>
  <fix>3d</fix>
</trkpt>
<trkpt lat="40.0740493" lon="-105.2292887">
  <ele>1627.55</ele>
  <time>2026-08-28T19:07:50Z</time>
  <course>30.7</course>
  <speed>5.77</speed>
  <fix>3d</fix>
</trkpt>
<trkpt lat="40.074064" lon="-105.2292779">
  <ele>1628.62</ele>
  <time>2026-08-28T19:07:50Z</time>
  <course>28.33</course>
  <speed>5.684936235350403</speed>
  <fix>3d</fix>
</trkpt>
<trkpt lat="40.0740582" lon="-105.2292819">
  <ele>1628.05</ele>
  <time>2026-08-28T19:07:50Z</time>
  <course>29.84</course>
  <speed>5.72</speed>
  <fix>3d</fix>
</trkpt>
<trkpt lat="40.0740729" lon="-105.2292715">
  <ele>1629.12</ele>
  <time>2026-08-28T19:07:50Z</time>
  <course>27.39</course>
  <speed>5.632352971893718</speed>
  <fix>3d</fix>
</trkpt>
<trkpt lat="40.0740672" lon="-105.2292754">
  <ele>1628.55</ele>
  <time>2026-08-28T19:07:50Z</time>
  <course>28.9</course>
  <speed>5.66</speed>
  <fix>3d</fix>
</trkpt>
<trkpt lat="40.0740817" lon="-105.2292654">
  <ele>1629.63</ele>
  <time>2026-08-28T19:07:50Z</time>
  <course>26.37</course>
  <speed>5.563452165697122</speed>
  <fix>3d</fix>
</trkpt>
<trkpt lat="40.0740761" lon="-105.2292691">
  <ele>1629.05</ele>
  <time>2026-08-28T19:07:50Z</time>
  <course>27.85</course>
  <speed>5.6</speed>
  <fix>3d</fix>
</trkpt>
<trkpt lat="40.0740906" lon="-105.2292596">
  <ele>1630.13</ele>
  <time>2026-08-28T19:07:50Z</time>
  <course>25.24</course>
  <speed>5.501454353168806</speed>
  <fix>3d</fix>
</trkpt>
<trkpt lat="40.074085" lon="-105.2292631">
  <ele>1629.55</ele>
  <time>2026-08-28T19:07:50Z</time>
  <course>26.69</course>
  <speed>5.54</speed>
  <fix>3d</fix>
</trkpt>
<trkpt lat="40.0740995" lon="-105.2292542">
  <ele>1630.62</ele>
  <time>2026-08-28T19:07:50Z</time>
  <course>23.98</course>
  <speed>5.433240285501829</speed>
  <fix>3d</fix>
</trkpt>
<trkpt lat="40.0740938" lon="-105.2292574">
  <ele>1630.05</ele>
  <time>2026-08-28T19:07:50Z</time>
  <course>25.42</course>
  <speed>5.48</speed>
  <fix>3d</fix>
</trkpt>
<trkpt lat="40.0741083" lon="-105.2292491">
  <ele>1631.12</ele>
  <time>2026-08-28T19:07:50Z</time>
  <course>22.58</course>
  <speed>5.369255069374149</speed>
  <fix>3d</fix>
</trkpt>
<trkpt lat="40.0741027" lon="-105.229252">
  <ele>1630.55</ele>
  <time>2026-08-28T19:07:50Z</time>
  <course>24.02</course>
  <speed>5.41</speed>
  <fix>3d</fix>
</trkpt>
<trkpt lat="40.0741172" lon="-105.2292443">
  <ele>1631.63</ele>
  <time>2026-08-28T19:07:50Z</time>
  <course>21.01</course>
  <speed>5.3</speed>
  <fix>3d</fix>
</trkpt>
<trkpt lat="40.0741116" lon="-105.2292471">
  <ele>1631.05</ele>
  <time>2026-08-28T19:07:50Z</time>
  <course>22.47</course>
  <speed>5.34</speed>
  <fix>3d</fix>
</trkpt>
<trkpt lat="40.074126" lon="-105.22924">
  <ele>1632.13</ele>
  <time>2026-08-28T19:07:50Z</time>
  <course>19.31</course>
  <speed>5.237480310225519</speed>
  <fix>3d</fix>
</trkpt>
<trkpt lat="40.0741205" lon="-105.2292425">
  <ele>1631.55</ele>
  <time>2026-08-28T19:07:50Z</time>
  <course>20.79</course>
  <speed>5.28</speed>
  <fix>3d</fix>
</trkpt>
<trkpt lat="40.0741349" lon="-105.2292361">
  <ele>1632.63</ele>
  <time>2026-08-28T19:07:50Z</time>
  <course>17.46</course>
  <speed>5.167920278022872</speed>
  <fix>3d</fix>
</trkpt>
<trkpt lat="40.0741293" lon="-105.2292382">
  <ele>1632.05</ele>
  <time>2026-08-28T19:07:50Z</time>
  <course>18.95</course>
  <speed>5.21</speed>
  <fix>3d</fix>
</trkpt>
<trkpt lat="40.0741438" lon="-105.2292326">
  <ele>1633.12</ele>
  <time>2026-08-28T19:07:50Z</time>
  <course>15.47</course>
  <speed>5.10185260469175</speed>
  <fix>3d</fix>
</trkpt>
<trkpt lat="40.0741382" lon="-105.2292345">
  <ele>1632.55</ele>
  <time>2026-08-28T19:07:50Z</time>
  <course>16.96</course>
  <speed>5.14</speed>
  <fix>3d</fix>
</trkpt>
<trkpt lat="40.0741526" lon="-105.2292296">
  <ele>1633.62</ele>
  <time>2026-08-28T19:07:50Z</time>
  <course>13.29</course>
  <speed>5.04060512240346</speed>
  <fix>3d</fix>
</trkpt>
<trkpt lat="40.0741471" lon="-105.2292312">
  <ele>1633.05</ele>
  <time>2026-08-28T19:07:50Z</time>
  <course>14.81</course>
  <speed>5.08</speed>
  <fix>3d</fix>
</trkpt>
<trkpt lat="40.0741614" lon="-105.2292271">
  <ele>1634.12</ele>
  <time>2026-08-28T19:07:50Z</time>
  <course>10.96</course>
  <speed>4.987474310710783</speed>
  <fix>3d</fix>
</trkpt>
<trkpt lat="40.0741559" lon="-105.2292283">
  <ele>1633.55</ele>
  <time>2026-08-28T19:07:50Z</time>
  <course>12.52</course>
  <speed>5.02</speed>
  <fix>3d</fix>
</trkpt>
<trkpt lat="40.0741702" lon="-105.2292252">
  <ele>1634.62</ele>
  <time>2026-08-28T19:07:50Z</time>
  <course>8.48</course>
  <speed>4.939848175804596</speed>
  <fix>3d</fix>
</trkpt>
<trkpt lat="40.0741647" lon="-105.229226">
  <ele>1634.05</ele>
  <time>2026-08-28T19:07:50Z</time>
  <course>10.09</course>
  <speed>4.96</speed>
  <fix>3d</fix>
</trkpt>
<trkpt lat="40.074179" lon="-105.2292237">
  <ele>1635.12</ele>
  <time>2026-08-28T19:07:50Z</time>
  <course>5.89</course>
  <speed>4.9025809529267335</speed>
  <fix>3d</fix>
</trkpt>
<trkpt lat="40.0741735" lon="-105.2292243">
  <ele>1634.55</ele>
  <time>2026-08-28T19:07:50Z</time>
  <course>7.51</course>
  <speed>4.91</speed>
  <fix>3d</fix>
</trkpt>
<trkpt lat="40.0741877" lon="-105.2292228">
  <ele>1635.61</ele>
  <time>2026-08-28T19:07:50Z</time>
  <course>3.29</course>
  <speed>4.8554505455209815</speed>
  <fix>3d</fix>
</trkpt>
<trkpt lat="40.0741822" lon="-105.2292231">
  <ele>1635.05</ele>
  <time>2026-08-28T19:07:50Z</time>
  <course>4.82</course>
  <speed>4.87</speed>
  <fix>3d</fix>
</trkpt>
<trkpt lat="40.0741964" lon="-105.2292225">
  <ele>1636.1</ele>
  <time>2026-08-28T19:07:50Z</time>
  <course>0.65</course>
  <speed>4.760010504190091</speed>
  <fix>3d</fix>
</trkpt>
<trkpt lat="40.0741909" lon="-105.2292224">
  <ele>1635.54</ele>
  <time>2026-08-28T19:07:50Z</time>
  <course>1.98</course>
  <speed>4.81</speed>
  <fix>3d</fix>
</trkpt>
<trkpt lat="40.0742048" lon="-105.2292227">
  <ele>1636.57</ele>
  <time>2026-08-28T19:07:50Z</time>
  <course>357.99</course>
  <speed>4.626759124916705</speed>
  <fix>3d</fix>
</trkpt>
<trkpt lat="40.0741995" lon="-105.2292222">
  <ele>1636.03</ele>
  <time>2026-08-28T19:07:50Z</time>
  <course>359.0</course>
  <speed>4.71</speed>
  <fix>3d</fix>
</trkpt>
<trkpt lat="40.074213" lon="-105.2292235">
  <ele>1637.03</ele>
  <time>2026-08-28T19:07:50Z</time>
  <course>355.26</course>
  <speed>4.465870575822815</speed>
  <fix>3d</fix>
</trkpt>
<trkpt lat="40.0742079" lon="-105.2292226">
  <ele>1636.5</ele>
  <time>2026-08-28T19:07:50Z</time>
  <course>355.92</course>
  <speed>4.57</speed>
  <fix>3d</fix>
</trkpt>
<trkpt lat="40.0742208" lon="-105.2292249">
  <ele>1637.46</ele>
  <time>2026-08-28T19:07:50Z</time>
  <course>352.37</course>
  <speed>4.3088977708922265</speed>
  <fix>3d</fix>
</trkpt>
<trkpt lat="40.0742159" lon="-105.2292237">
  <ele>1636.95</ele>
  <time>2026-08-28T19:07:50Z</time>
  <course>352.74</course>
  <speed>4.42</speed>
  <fix>3d</fix>
</trkpt>
<trkpt lat="40.0742282" lon="-105.2292267">
  <ele>1637.86</ele>
  <time>2026-08-28T19:07:50Z</time>
  <course>349.23</course>
  <speed>4.165153058412139</speed>
  <fix>3d</fix>
</trkpt>
<trkpt lat="40.0742235" lon="-105.2292253">
  <ele>1637.37</ele>
  <time>2026-08-28T19:07:50Z</time>
  <course>349.39</course>
  <speed>4.26</speed>
  <fix>3d</fix>
</trkpt>
<trkpt lat="40.0742354" lon="-105.2292292">
  <ele>1638.25</ele>
  <time>2026-08-28T19:07:50Z</time>
  <course>345.74</course>
  <speed>4.0401113846031524</speed>
  <fix>3d</fix>
</trkpt>
<trkpt lat="40.074231" lon="-105.2292274">
  <ele>1637.77</ele>
  <time>2026-08-28T19:07:50Z</time>
  <course>345.8</course>
  <speed>4.12</speed>
  <fix>3d</fix>
</trkpt>
<trkpt lat="40.0742422" lon="-105.2292322">
  <ele>1638.62</ele>
  <time>2026-08-28T19:07:50Z</time>
  <course>341.89</course>
  <speed>3.933764100705582</speed>
  <fix>3d</fix>
</trkpt>
<trkpt lat="40.0742379" lon="-105.22923">
  <ele>1638.15</ele>
  <time>2026-08-28T19:07:50Z</time>
  <course>341.94</course>
  <speed>4.0</speed>
  <fix>3d</fix>
</trkpt>
<trkpt lat="40.0742487" lon="-105.2292357">
  <ele>1638.97</ele>
  <time>2026-08-28T19:07:50Z</time>
  <course>337.74</course>
  <speed>3.838593492413595</speed>
  <fix>3d</fix>
</trkpt>
<trkpt lat="40.0742446" lon="-105.2292332">
  <ele>1638.51</ele>
  <time>2026-08-28T19:07:50Z</time>
  <course>337.81</course>
  <speed>3.89</speed>
  <fix>3d</fix>
</trkpt>
<trkpt lat="40.0742547" lon="-105.2292397">
  <ele>1639.3</ele>
  <time>2026-08-28T19:07:50Z</time>
  <course>333.39</course>
  <speed>3.76575357664306</speed>
  <fix>3d</fix>
</trkpt>
<trkpt lat="40.0742509" lon="-105.2292369">
  <ele>1638.85</ele>
  <time>2026-08-28T19:07:50Z</time>
  <course>333.47</course>
  <speed>3.8</speed>
  <fix>3d</fix>
</trkpt>
<trkpt lat="40.0742605" lon="-105.2292443">
  <ele>1639.61</ele>
  <time>2026-08-28T19:07:50Z</time>
  <course>328.96</course>
  <speed>3.719274122728789</speed>
  <fix>3d</fix>
</trkpt>
<trkpt lat="40.0742568" lon="-105.2292412">
  <ele>1639.17</ele>
  <time>2026-08-28T19:07:50Z</time>
  <course>329.01</course>
  <speed>3.74</speed>
  <fix>3d</fix>
</trkpt>
<trkpt lat="40.0742658" lon="-105.2292494">
  <ele>1639.92</ele>
  <time>2026-08-28T19:07:50Z</time>
  <course>324.49</course>
  <speed>3.6951454639837933</speed>
  <fix>3d</fix>
</trkpt>
<trkpt lat="40.0742625" lon="-105.229246">
  <ele>1639.49</ele>
  <time>2026-08-28T19:07:50Z</time>
  <course>324.54</course>
  <speed>3.7</speed>
  <fix>3d</fix>
</trkpt>
<trkpt lat="40.0742709" lon="-105.229255">
  <ele>1640.22</ele>
  <time>2026-08-28T19:07:50Z</time>
  <course>320.17</course>
  <speed>3.7017428327748543</speed>
  <fix>3d</fix>
</trkpt>
<trkpt lat="40.0742677" lon="-105.2292513">
  <ele>1639.8</ele>
  <time>2026-08-28T19:07:50Z</time>
  <course>320.16</course>
  <speed>3.68</speed>
  <fix>3d</fix>
</trkpt>
<trkpt lat="40.0742757" lon="-105.2292611">
  <ele>1640.51</ele>
  <time>2026-08-28T19:07:50Z</time>
  <course>316.04</course>
  <speed>3.7348360071092817</speed>
  <fix>3d</fix>
</trkpt>
<trkpt lat="40.0742726" lon="-105.2292571">
  <ele>1640.09</ele>
  <time>2026-08-28T19:07:50Z</time>
  <course>315.95</course>
  <speed>3.7</speed>
  <fix>3d</fix>
</trkpt>
<trkpt lat="40.0742801" lon="-105.2292677">
  <ele>1640.78</ele>
  <time>2026-08-28T19:07:50Z</time>
  <course>312.11</course>
  <speed>3.7847721199564974</speed>
  <fix>3d</fix>
</trkpt>
<trkpt lat="40.0742773" lon="-105.2292634">
  <ele>1640.37</ele>
  <time>2026-08-28T19:07:50Z</time>
  <course>311.98</course>
  <speed>3.73</speed>
  <fix>3d</fix>
</trkpt>
<trkpt lat="40.0742843" lon="-105.2292748">
  <ele>1641.04</ele>
  <time>2026-08-28T19:07:50Z</time>
  <course>308.49</course>
  <speed>3.856228727656076</speed>
  <fix>3d</fix>
</trkpt>
<trkpt lat="40.0742817" lon="-105.2292702">
  <ele>1640.64</ele>
  <time>2026-08-28T19:07:50Z</time>
  <course>308.25</course>
  <speed>3.79</speed>
  <fix>3d</fix>
</trkpt>
<trkpt lat="40.0742883" lon="-105.2292823">
  <ele>1641.29</ele>
  <time>2026-08-28T19:07:50Z</time>
  <course>305.13</course>
  <speed>3.9469735241067934</speed>
  <fix>3d</fix>
</trkpt>
<trkpt lat="40.0742858" lon="-105.2292774">
  <ele>1640.89</ele>
  <time>2026-08-28T19:07:50Z</time>
  <course>304.8</course>
  <speed>3.87</speed>
  <fix>3d</fix>
</trkpt>
<trkpt lat="40.074292" lon="-105.2292903">
  <ele>1641.52</ele>
  <time>2026-08-28T19:07:50Z</time>
  <course>302.04</course>
  <speed>4.049753078892588</speed>
  <fix>3d</fix>
</trkpt>
<trkpt lat="40.0742896" lon="-105.2292851">
  <ele>1641.14</ele>
  <time>2026-08-28T19:07:50Z</time>
  <course>301.62</course>
  <speed>3.96</speed>
  <fix>3d</fix>
</trkpt>
<trkpt lat="40.0742955" lon="-105.2292987">
  <ele>1641.73</ele>
  <time>2026-08-28T19:07:50Z</time>
  <course>299.23</course>
  <speed>4.168225041909326</speed>
  <fix>3d</fix>
</trkpt>
<trkpt lat="40.0742932" lon="-105.2292933">
  <ele>1641.37</ele>
  <time>2026-08-28T19:07:50Z</time>
  <course>298.68</course>
  <speed>4.07</speed>
  <fix>3d</fix>
</trkpt>
<trkpt lat="40.0742987" lon="-105.2293076">
  <ele>1641.93</ele>
  <time>2026-08-28T19:07:50Z</time>
  <course>296.63</course>
  <speed>4.27375712927162</speed>
  <fix>3d</fix>
</trkpt>
<trkpt lat="40.0742966" lon="-105.2293019">
  <ele>1641.58</ele>
  <time>2026-08-28T19:07:50Z</time>
  <course>295.96</course>
  <speed>4.18</speed>
  <fix>3d</fix>
</trkpt>
<trkpt lat="40.0743018" lon="-105.2293169">
  <ele>1642.11</ele>
  <time>2026-08-28T19:07:50Z</time>
  <course>294.17</course>
  <speed>4.365707273741564</speed>
  <fix>3d</fix>
</trkpt>
<trkpt lat="40.0742998" lon="-105.2293109">
  <ele>1641.78</ele>
  <time>2026-08-28T19:07:50Z</time>
  <course>293.37</course>
  <speed>4.29</speed>
  <fix>3d</fix>
</trkpt>
<trkpt lat="40.0743045" lon="-105.2293265">
  <ele>1642.28</ele>
  <time>2026-08-28T19:07:50Z</time>
  <course>291.82</course>
  <speed>4.421515577265334</speed>
  <fix>3d</fix>
</trkpt>
<trkpt lat="40.0743028" lon="-105.2293203">
  <ele>1641.96</ele>
  <time>2026-08-28T19:07:50Z</time>
  <course>290.86</course>
  <speed>4.37</speed>
  <fix>3d</fix>
</trkpt>
<trkpt lat="40.074307" lon="-105.2293364">
  <ele>1642.42</ele>
  <time>2026-08-28T19:07:50Z</time>
  <course>289.61</course>
  <speed>4.466430342006914</speed>
  <fix>3d</fix>
</trkpt>
<trkpt lat="40.0743054" lon="-105.2293301">
  <ele>1642.13</ele>
  <time>2026-08-28T19:07:50Z</time>
  <course>288.44</course>
  <speed>4.43</speed>
  <fix>3d</fix>
</trkpt>
<trkpt lat="40.0743092" lon="-105.2293465">
  <ele>1642.54</ele>
  <time>2026-08-28T19:07:50Z</time>
  <course>287.53</course>
  <speed>4.499444410146657</speed>
  <fix>3d</fix>
</trkpt>
<trkpt lat="40.0743078" lon="-105.2293401">
  <ele>1642.27</ele>
  <time>2026-08-28T19:07:50Z</time>
  <course>286.12</course>
  <speed>4.47</speed>
  <fix>3d</fix>
</trkpt>
<trkpt lat="40.0743111" lon="-105.2293568">
  <ele>1642.65</ele>
  <time>2026-08-28T19:07:50Z</time>
  <course>285.51</course>
  <speed>4.519756630616299</speed>
  <fix>3d</fix>
</trkpt>
<trkpt lat="40.0743099" lon="-105.2293502">
  <ele>1642.39</ele>
  <time>2026-08-28T19:07:50Z</time>
  <course>283.9</course>
  <speed>4.49</speed>
  <fix>3d</fix>
</trkpt>
<trkpt lat="40.0743127" lon="-105.2293672">
  <ele>1642.73</ele>
  <time>2026-08-28T19:07:50Z</time>
  <course>283.5</course>
  <speed>4.5347546791419715</speed>
  <fix>3d</fix>
</trkpt>
<trkpt lat="40.0743116" lon="-105.2293605">
  <ele>1642.49</ele>
  <time>2026-08-28T19:07:50Z</time>
  <course>281.71</course>
  <speed>4.51</speed>
  <fix>3d</fix>
</trkpt>
<trkpt lat="40.074314" lon="-105.2293777">
  <ele>1642.79</ele>
  <time>2026-08-28T19:07:50Z</time>
  <course>281.44</course>
  <speed>4.536805043199454</speed>
  <fix>3d</fix>
</trkpt>
<trkpt lat="40.0743132" lon="-105.229371">
  <ele>1642.57</ele>
  <time>2026-08-28T19:07:50Z</time>
  <course>279.51</course>
  <speed>4.52</speed>
  <fix>3d</fix>
</trkpt>
<trkpt lat="40.074315" lon="-105.2293882">
  <ele>1642.83</ele>
  <time>2026-08-28T19:07:50Z</time>
  <course>279.3</course>
  <speed>4.524477870428808</speed>
  <fix>3d</fix>
</trkpt>
<trkpt lat="40.0743144" lon="-105.2293815">
  <ele>1642.63</ele>
  <time>2026-08-28T19:07:50Z</time>
  <course>277.25</course>
  <speed>4.52</speed>
  <fix>3d</fix>
</trkpt>
<trkpt lat="40.0743156" lon="-105.2293988">
  <ele>1642.85</ele>
  <time>2026-08-28T19:07:50Z</time>
  <course>277.07</course>
  <speed>4.508702695898234</speed>
  <fix>3d</fix>
</trkpt>
<trkpt lat="40.0743152" lon="-105.2293921">
  <ele>1642.67</ele>
  <time>2026-08-28T19:07:50Z</time>
  <course>274.92</course>
  <speed>4.51</speed>
  <fix>3d</fix>
</trkpt>
<trkpt lat="40.0743159" lon="-105.2294094">
  <ele>1642.85</ele>
  <time>2026-08-28T19:07:50Z</time>
  <course>274.74</course>
  <speed>4.490712638323677</speed>
  <fix>3d</fix>
</trkpt>
<trkpt lat="40.0743157" lon="-105.2294026">
  <ele>1642.68</ele>
  <time>2026-08-28T19:07:50Z</time>
  <course>272.49</course>
  <speed>4.49</speed>
  <fix>3d</fix>
</trkpt>
<trkpt lat="40.0743159" lon="-105.2294199">
  <ele>1642.82</ele>
  <time>2026-08-28T19:07:50Z</time>
  <course>272.3</course>
  <speed>4.451359342942333</speed>
  <fix>3d</fix>
</trkpt>
<trkpt lat="40.0743158" lon="-105.2294131">
  <ele>1642.67</ele>
  <time>2026-08-28T19:07:50Z</time>
  <course>269.97</course>
  <speed>4.46</speed>
  <fix>3d</fix>
</trkpt>
<trkpt lat="40.0743155" lon="-105.2294302">
  <ele>1642.77</ele>
  <time>2026-08-28T19:07:50Z</time>
  <course>269.73</course>
  <speed>4.421594734934445</speed>
  <fix>3d</fix>
</trkpt>
<trkpt lat="40.0743157" lon="-105.2294235">
  <ele>1642.65</ele>
  <time>2026-08-28T19:07:50Z</time>
  <course>267.33</course>
  <speed>4.43</speed>
  <fix>3d</fix>
</trkpt>
<trkpt lat="40.0743148" lon="-105.2294405">
  <ele>1642.7</ele>
  <time>2026-08-28T19:07:50Z</time>
  <course>267.03</course>
  <speed>4.382168413011987</speed>
  <fix>3d</fix>
</trkpt>
<trkpt lat="40.0743152" lon="-105.2294339">
  <ele>1642.6</ele>
  <time>2026-08-28T19:07:50Z</time>
  <course>264.57</course>
  <speed>4.39</speed>
  <fix>3d</fix>
</trkpt>
<trkpt lat="40.0743136" lon="-105.2294506">
  <ele>1642.61</ele>
  <time>2026-08-28T19:07:50Z</time>
  <course>264.22</course>
  <speed>4.3353661898391005</speed>
  <fix>3d</fix>
</trkpt>
<trkpt lat="40.0743143" lon="-105.2294441">
  <ele>1642.53</ele>
  <time>2026-08-28T19:07:50Z</time>
  <course>261.7</course>
  <speed>4.35</speed>
  <fix>3d</fix>
</trkpt>
<trkpt lat="40.074312" lon="-105.2294605">
  <ele>1642.5</ele>
  <time>2026-08-28T19:07:50Z</time>
  <course>261.27</course>
  <speed>4.298569529506298</speed>
  <fix>3d</fix>
</trkpt>
<trkpt lat="40.074313" lon="-105.2294541">
  <ele>1642.44</ele>
  <time>2026-08-28T19:07:50Z</time>
  <course>258.71</course>
  <speed>4.31</speed>
  <fix>3d</fix>
</trkpt>
<trkpt lat="40.07431" lon="-105.2294702">
  <ele>1642.38</ele>
  <time>2026-08-28T19:07:50Z</time>
  <course>258.2</course>
  <speed>4.256818060476628</speed>
  <fix>3d</fix>
</trkpt>
<trkpt lat="40.0743113" lon="-105.2294639">
  <ele>1642.33</ele>
  <time>2026-08-28T19:07:50Z</time>
  <course>255.6</course>
  <speed>4.27</speed>
  <fix>3d</fix>
</trkpt>
<trkpt lat="40.0743077" lon="-105.2294796">
  <ele>1642.23</ele>
  <time>2026-08-28T19:07:50Z</time>
  <course>255.05</course>
  <speed>4.219052026225797</speed>
  <fix>3d</fix>
</trkpt>
<trkpt lat="40.0743092" lon="-105.2294735">
  <ele>1642.21</ele>
  <time>2026-08-28T19:07:50Z</time>
  <course>252.37</course>
  <speed>4.23</speed>
  <fix>3d</fix>
</trkpt>
<trkpt lat="40.074305" lon="-105.2294888">
  <ele>1642.06</ele>
  <time>2026-08-28T19:07:51Z</time>
  <course>251.77</course>
  <speed>4.195390327490399</speed>
  <fix>3d</fix>
</trkpt>
<trkpt lat="40.0743066" lon="-105.2294829">
  <ele>1642.06</ele>
  <time>2026-08-28T19:07:51Z</time>
  <course>249.05</course>
  <speed>4.2</speed>
  <fix>3d</fix>
</trkpt>
<trkpt lat="40.0743018" lon="-105.2294977">
  <ele>1641.87</ele>
  <time>2026-08-28T19:07:51Z</time>
  <course>248.41</course>
  <speed>4.168117080889163</speed>
  <fix>3d</fix>
</trkpt>
<trkpt lat="40.0743037" lon="-105.229492">
  <ele>1641.9</ele>
  <time>2026-08-28T19:07:51Z</time>
  <course>245.64</course>
  <speed>4.17</speed>
  <fix>3d</fix>
</trkpt>
<trkpt lat="40.0742983" lon="-105.2295063">
  <ele>1641.67</ele>
  <time>2026-08-28T19:07:51Z</time>
  <course>244.98</course>
  <speed>4.156404696369207</speed>
  <fix>3d</fix>
</trkpt>
<trkpt lat="40.0743005" lon="-105.2295008">
  <ele>1641.71</ele>
  <time>2026-08-28T19:07:51Z</time>
  <course>242.16</course>
  <speed>4.15</speed>
  <fix>3d</fix>
</trkpt>
<trkpt lat="40.0742944" lon="-105.2295145">
  <ele>1641.44</ele>
  <time>2026-08-28T19:07:51Z</time>
  <course>241.52</course>
  <speed>4.152023603015763</speed>
  <fix>3d</fix>
</trkpt>
<trkpt lat="40.0742968" lon="-105.2295092">
  <ele>1641.51</ele>
  <time>2026-08-28T19:07:51Z</time>
  <course>238.61</course>
  <speed>4.14</speed>
  <fix>3d</fix>
</trkpt>
<trkpt lat="40.0742901" lon="-105.2295225">
  <ele>1641.2</ele>
  <time>2026-08-28T19:07:51Z</time>
  <course>238.0</course>
  <speed>4.164000480307369</speed>
  <fix>3d</fix>
</trkpt>
<trkpt lat="40.0742927" lon="-105.2295173">
  <ele>1641.28</ele>
  <time>2026-08-28T19:07:51Z</time>
  <course>235.01</course>
  <speed>4.15</speed>
  <fix>3d</fix>
</trkpt>
<trkpt lat="40.0742854" lon="-105.22953">
  <ele>1640.94</ele>
  <time>2026-08-28T19:07:51Z</time>
  <course>234.24</course>
  <speed>4.155309856075717</speed>
  <fix>3d</fix>
</trkpt>
<trkpt lat="40.0742882" lon="-105.2295252">
  <ele>1641.04</ele>
  <time>2026-08-28T19:07:51Z</time>
  <course>231.31</course>
  <speed>4.15</speed>
  <fix>3d</fix>
</trkpt>
<trkpt lat="40.0742803" lon="-105.2295371">
  <ele>1640.67</ele>
  <time>2026-08-28T19:07:51Z</time>
  <course>230.32</course>
  <speed>4.129600464936045</speed>
  <fix>3d</fix>
</trkpt>
<trkpt lat="40.0742834" lon="-105.2295326">
  <ele>1640.77</ele>
  <time>2026-08-28T19:07:51Z</time>
  <course>227.46</course>
  <speed>4.14</speed>
  <fix>3d</fix>
</trkpt>
<trkpt lat="40.0742749" lon="-105.2295437">
  <ele>1640.38</ele>
  <time>2026-08-28T19:07:51Z</time>
  <course>226.36</course>
  <speed>4.102499238269277</speed>
  <fix>3d</fix>
</trkpt>
<trkpt lat="40.0742781" lon="-105.2295395">
  <ele>1640.5</ele>
  <time>2026-08-28T19:07:51Z</time>
  <course>223.52</course>
  <speed>4.12</speed>
  <fix>3d</fix>
</trkpt>
<trkpt lat="40.0742692" lon="-105.2295498">
  <ele>1640.07</ele>
  <time>2026-08-28T19:07:51Z</time>
  <course>222.4</course>
  <speed>4.066177566216212</speed>
  <fix>3d</fix>
</trkpt>
<trkpt lat="40.0742726" lon="-105.2295459">
  <ele>1640.21</ele>
  <time>2026-08-28T19:07:51Z</time>
  <course>219.55</course>
  <speed>4.1</speed>
  <fix>3d</fix>
</trkpt>
<trkpt lat="40.0742632" lon="-105.2295553">
  <ele>1639.76</ele>
  <time>2026-08-28T19:07:51Z</time>
  <course>218.56</course>
  <speed>4.041014724051374</speed>
  <fix>3d</fix>
</trkpt>
<trkpt lat="40.0742668" lon="-105.2295518">
  <ele>1639.91</ele>
  <time>2026-08-28T19:07:51Z</time>
  <course>215.57</course>
  <speed>4.07</speed>
  <fix>3d</fix>
</trkpt>
<trkpt lat="40.074257" lon="-105.2295601">
  <ele>1639.43</ele>
  <time>2026-08-28T19:07:51Z</time>
  <course>214.37</course>
  <speed>3.9803768665793444</speed>
  <fix>3d</fix>
</trkpt>
<trkpt lat="40.0742608" lon="-105.229557">
  <ele>1639.6</ele>
  <time>2026-08-28T19:07:51Z</time>
  <course>211.54</course>
  <speed>4.03</speed>
  <fix>3d</fix>
</trkpt>
<trkpt lat="40.0742507" lon="-105.2295643">
  <ele>1639.12</ele>
  <time>2026-08-28T19:07:51Z</time>
  <course>209.94</course>
  <speed>3.88329756778952</speed>
  <fix>3d</fix>
</trkpt>
<trkpt lat="40.0742544" lon="-105.2295616">
  <ele>1639.28</ele>
  <time>2026-08-28T19:07:51Z</time>
  <course>207.35</course>
  <speed>3.96</speed>
  <fix>3d</fix>
</trkpt>
<trkpt lat="40.0742443" lon="-105.2295678">
  <ele>1638.81</ele>
  <time>2026-08-28T19:07:51Z</time>
  <course>205.48</course>
  <speed>3.762884531845217</speed>
  <fix>3d</fix>
</trkpt>
<trkpt lat="40.0742481" lon="-105.2295656">
  <ele>1638.97</ele>
  <time>2026-08-28T19:07:51Z</time>
  <course>203.02</course>
  <speed>3.86</speed>
  <fix>3d</fix>
</trkpt>
<trkpt lat="40.0742379" lon="-105.2295705">
  <ele>1638.5</ele>
  <time>2026-08-28T19:07:51Z</time>
  <course>201.17</course>
  <speed>3.6320792942886033</speed>
  <fix>3d</fix>
</trkpt>
<trkpt lat="40.0742417" lon="-105.2295688">
  <ele>1638.66</ele>
  <time>2026-08-28T19:07:51Z</time>
  <course>198.71</course>
  <speed>3.74</speed>
  <fix>3d</fix>
</trkpt>
<trkpt lat="40.0742317" lon="-105.2295726">
  <ele>1638.18</ele>
  <time>2026-08-28T19:07:51Z</time>
  <course>197.12</course>
  <speed>3.5056097900365355</speed>
  <fix>3d</fix>
</trkpt>
<trkpt lat="40.0742354" lon="-105.2295712">
  <ele>1638.35</ele>
  <time>2026-08-28T19:07:51Z</time>
  <course>194.56</course>
  <speed>3.61</speed>
  <fix>3d</fix>
</trkpt>
<trkpt lat="40.0742255" lon="-105.2295741">
  <ele>1637.87</ele>
  <time>2026-08-28T19:07:51Z</time>
  <course>193.21</course>
  <speed>3.3901179920468842</speed>
  <fix>3d</fix>
</trkpt>
<trkpt lat="40.0742292" lon="-105.229573">
  <ele>1638.05</ele>
  <time>2026-08-28T19:07:51Z</time>
  <course>190.58</course>
  <speed>3.49</speed>
  <fix>3d</fix>
</trkpt>
<trkpt lat="40.0742195" lon="-105.229575">
  <ele>1637.57</ele>
  <time>2026-08-28T19:07:51Z</time>
  <course>189.46</course>
  <speed>3.2737745799000884</speed>
  <fix>3d</fix>
</trkpt>
<trkpt lat="40.0742231" lon="-105.2295742">
  <ele>1637.74</ele>
  <time>2026-08-28T19:07:51Z</time>
  <course>186.76</course>
  <speed>3.37</speed>
  <fix>3d</fix>
</trkpt>
<trkpt lat="40.0742137" lon="-105.2295753">
  <ele>1637.26</ele>
  <time>2026-08-28T19:07:51Z</time>
  <course>185.83</course>
  <speed>3.1715768948584553</speed>
  <fix>3d</fix>
</trkpt>
<trkpt lat="40.0742172" lon="-105.2295748">
  <ele>1637.44</ele>
  <time>2026-08-28T19:07:51Z</time>
  <course>183.11</course>
  <speed>3.26</speed>
  <fix>3d</fix>
</trkpt>
<trkpt lat="40.074208" lon="-105.2295753">
  <ele>1636.95</ele>
  <time>2026-08-28T19:07:51Z</time>
  <course>182.43</course>
  <speed>3.0807953518531543</speed>
  <fix>3d</fix>
</trkpt>
<trkpt lat="40.0742114" lon="-105.229575">
  <ele>1637.13</ele>
  <time>2026-08-28T19:07:51Z</time>
  <course>179.66</course>
  <speed>3.15</speed>
  <fix>3d</fix>
</trkpt>
<trkpt lat="40.0742025" lon="-105.2295748">
  <ele>1636.64</ele>
  <time>2026-08-28T19:07:51Z</time>
  <course>179.24</course>
  <speed>2.988109770406703</speed>
  <fix>3d</fix>
</trkpt>
<trkpt lat="40.0742058" lon="-105.2295748">
  <ele>1636.83</ele>
  <time>2026-08-28T19:07:51Z</time>
  <course>176.46</course>
  <speed>3.06</speed>
  <fix>3d</fix>
</trkpt>
<trkpt lat="40.0741972" lon="-105.2295741">
  <ele>1636.34</ele>
  <time>2026-08-28T19:07:51Z</time>
  <course>176.38</course>
  <speed>2.921044333795706</speed>
  <fix>3d</fix>
</trkpt>
<trkpt lat="40.0742004" lon="-105.2295742">
  <ele>1636.52</ele>
  <time>2026-08-28T19:07:51Z</time>
  <course>173.53</course>
  <speed>2.97</speed>
  <fix>3d</fix>
</trkpt>
<trkpt lat="40.0741921" lon="-105.229573">
  <ele>1636.03</ele>
  <time>2026-08-28T19:07:51Z</time>
  <course>173.82</course>
  <speed>2.8572714256787015</speed>
  <fix>3d</fix>
</trkpt>
<trkpt lat="40.0741952" lon="-105.2295733">
  <ele>1636.22</ele>
  <time>2026-08-28T19:07:51Z</time>
  <course>170.94</course>
  <speed>2.9</speed>
  <fix>3d</fix>
</trkpt>
<trkpt lat="40.074187" lon="-105.2295717">
  <ele>1635.73</ele>
  <time>2026-08-28T19:07:51Z</time>
  <course>171.62</course>
  <speed>2.804460732476032</speed>
  <fix>3d</fix>
</trkpt>
<trkpt lat="40.07419" lon="-105.2295722">
  <ele>1635.91</ele>
  <time>2026-08-28T19:07:51Z</time>
  <course>168.71</course>
  <speed>2.83</speed>
  <fix>3d</fix>
</trkpt>
<trkpt lat="40.0741821" lon="-105.2295702">
  <ele>1635.43</ele>
  <time>2026-08-28T19:07:51Z</time>
  <course>169.86</course>
  <speed>2.7582965757873104</speed>
  <fix>3d</fix>
</trkpt>
<trkpt lat="40.0741851" lon="-105.2295708">
  <ele>1635.62</ele>
  <time>2026-08-28T19:07:51Z</time>
  <course>166.88</course>
  <speed>2.78</speed>
  <fix>3d</fix>
</trkpt>
<trkpt lat="40.0741774" lon="-105.2295686">
  <ele>1635.13</ele>
  <time>2026-08-28T19:07:51Z</time>
  <course>168.54</course>
  <speed>2.7188416651213805</speed>
  <fix>3d</fix>
</trkpt>
<trkpt lat="40.0741803" lon="-105.2295693">
  <ele>1635.33</ele>
  <time>2026-08-28T19:07:51Z</time>
  <course>165.51</course>
  <speed>2.73</speed>
  <fix>3d</fix>
</trkpt>
<trkpt lat="40.0741727" lon="-105.2295669">
  <ele>1634.84</ele>
  <time>2026-08-28T19:07:51Z</time>
  <course>167.66</course>
  <speed>2.69462427807663</speed>
  <fix>3d</fix>
</trkpt>
<trkpt lat="40.0741756" lon="-105.2295676">
  <ele>1635.03</ele>
  <time>2026-08-28T19:07:51Z</time>
  <course>164.61</course>
  <speed>2.69</speed>
  <fix>3d</fix>
</trkpt>
<trkpt lat="40.074168" lon="-105.2295652">
  <ele>1634.54</ele>
  <time>2026-08-28T19:07:51Z</time>
  <course>167.17</course>
  <speed>2.69</speed>
  <fix>3d</fix>
</trkpt>
<trkpt lat="40.074171" lon="-105.2295659">
  <ele>1634.73</ele>
  <time>2026-08-28T19:07:51Z</time>
  <course>164.13</course>
  <speed>2.67</speed>
  <fix>3d</fix>
</trkpt>
<trkpt lat="40.0741634" lon="-105.2295635">
  <ele>1634.23</ele>
  <time>2026-08-28T19:07:51Z</time>
  <course>166.97</course>
  <speed>2.6996666460879943</speed>
  <fix>3d</fix>
</trkpt>
<trkpt lat="40.0741663" lon="-105.2295642">
  <ele>1634.44</ele>
  <time>2026-08-28T19:07:51Z</time>
  <course>163.99</course>
  <speed>2.66</speed>
  <fix>3d</fix>
</trkpt>
<trkpt lat="40.0741588" lon="-105.2295618">
  <ele>1633.94</ele>
  <time>2026-08-28T19:07:51Z</time>
  <course>166.93</course>
  <speed>2.719007171744863</speed>
  <fix>3d</fix>
</trkpt>
<trkpt lat="40.0741618" lon="-105.2295624">
  <ele>1634.14</ele>
  <time>2026-08-28T19:07:51Z</time>
  <course>164.09</course>
  <speed>2.67</speed>
  <fix>3d</fix>
</trkpt>
<trkpt lat="40.0741541" lon="-105.22956">
  <ele>1633.64</ele>
  <time>2026-08-28T19:07:51Z</time>
  <course>167.02</course>
  <speed>2.7480356620684527</speed>
  <fix>3d</fix>
</trkpt>
<trkpt lat="40.0741572" lon="-105.2295607">
  <ele>1633.84</ele>
  <time>2026-08-28T19:07:51Z</time>
  <course>164.34</course>
  <speed>2.69</speed>
  <fix>3d</fix>
</trkpt>
<trkpt lat="40.0741493" lon="-105.2295583">
  <ele>1633.34</ele>
  <time>2026-08-28T19:07:51Z</time>
  <course>167.13</course>
  <speed>2.7867723265455324</speed>
  <fix>3d</fix>
</trkpt>
<trkpt lat="40.0741524" lon="-105.229559">
  <ele>1633.55</ele>
  <time>2026-08-28T19:07:51Z</time>
  <course>164.65</course>
  <speed>2.72</speed>
  <fix>3d</fix>
</trkpt>
<trkpt lat="40.0741445" lon="-105.2295566">
  <ele>1633.05</ele>
  <time>2026-08-28T19:07:51Z</time>
  <course>167.24</course>
  <speed>2.837692724732542</speed>
  <fix>3d</fix>
</trkpt>
<trkpt lat="40.0741477" lon="-105.2295573">
  <ele>1633.25</ele>
  <time>2026-08-28T19:07:51Z</time>
  <course>164.96</course>
  <speed>2.76</speed>
  <fix>3d</fix>
</trkpt>
<trkpt lat="40.0741396" lon="-105.2295549">
  <ele>1632.75</ele>
  <time>2026-08-28T19:07:51Z</time>
  <course>167.29</course>
  <speed>2.888615585362649</speed>
  <fix>3d</fix>
</trkpt>
<trkpt lat="40.0741429" lon="-105.2295556">
  <ele>1632.95</ele>
  <time>2026-08-28T19:07:51Z</time>
  <course>165.2</course>
  <speed>2.8</speed>
  <fix>3d</fix>
</trkpt>
<trkpt lat="40.0741346" lon="-105.2295531">
  <ele>1632.45</ele>
  <time>2026-08-28T19:07:51Z</time>
  <course>167.22</course>
  <speed>2.9420061182805175</speed>
  <fix>3d</fix>
</trkpt>
<trkpt lat="40.074138" lon="-105.229554">
  <ele>1632.65</ele>
  <time>2026-08-28T19:07:51Z</time>
  <course>165.32</course>
  <speed>2.86</speed>
  <fix>3d</fix>
</trkpt>
<trkpt lat="40.0741295" lon="-105.2295513">
  <ele>1632.15</ele>
  <time>2026-08-28T19:07:51Z</time>
  <course>166.97</course>
  <speed>2.997932620990672</speed>
  <fix>3d</fix>
</trkpt>
<trkpt lat="40.0741329" lon="-105.2295523">
  <ele>1632.35</ele>
  <time>2026-08-28T19:07:51Z</time>
  <course>165.29</course>
  <speed>2.91</speed>
  <fix>3d</fix>
</trkpt>
<trkpt lat="40.0741243" lon="-105.2295495">
  <ele>1631.85</ele>
  <time>2026-08-28T19:07:51Z</time>
  <course>166.61</course>
  <speed>3.053948264132842</speed>
  <fix>3d</fix>
</trkpt>
<trkpt lat="40.0741278" lon="-105.2295504">
  <ele>1632.05</ele>
  <time>2026-08-28T19:07:51Z</time>
  <course>165.09</course>
  <speed>2.97</speed>
  <fix>3d</fix>
</trkpt>
<trkpt lat="40.0741191" lon="-105.2295476">
  <ele>1631.55</ele>
  <time>2026-08-28T19:07:51Z</time>
  <course>166.06</course>
  <speed>3.1153811965793206</speed>
  <fix>3d</fix>
</trkpt>
<trkpt lat="40.0741226" lon="-105.2295486">
  <ele>1631.75</ele>
  <time>2026-08-28T19:07:51Z</time>
  <course>164.7</course>
  <speed>3.03</speed>
  <fix>3d</fix>
</trkpt>
<trkpt lat="40.0741137" lon="-105.2295455">
  <ele>1631.25</ele>
  <time>2026-08-28T19:07:51Z</time>
  <course>165.35</course>
  <speed>3.1676016163652907</speed>
  <fix>3d</fix>
</trkpt>
<trkpt lat="40.0741173" lon="-105.2295467">
  <ele>1631.46</ele>
  <time>2026-08-28T19:07:51Z</time>
  <course>164.15</course>
  <speed>3.09</speed>
  <fix>3d</fix>
</trkpt>
<trkpt lat="40.0741083" lon="-105.2295434">
  <ele>1630.96</ele>
  <time>2026-08-28T19:07:51Z</time>
  <course>164.52</course>
  <speed>3.213627234139019</speed>
  <fix>3d</fix>
</trkpt>
<trkpt lat="40.0741119" lon="-105.2295447">
  <ele>1631.16</ele>
  <time>2026-08-28T19:07:51Z</time>
  <course>163.44</course>
  <speed>3.14</speed>
  <fix>3d</fix>
</trkpt>
<trkpt lat="40.0741028" lon="-105.2295411">
  <ele>1630.66</ele>
  <time>2026-08-28T19:07:51Z</time>
  <course>163.57</course>
  <speed>3.263495058982011</speed>
  <fix>3d</fix>
</trkpt>
<trkpt lat="40.0741064" lon="-105.2295425">
  <ele>1630.86</ele>
  <time>2026-08-28T19:07:51Z</time>
  <course>162.58</course>
  <speed>3.2</speed>
  <fix>3d</fix>
</trkpt>
<trkpt lat="40.0740973" lon="-105.2295386">
  <ele>1630.36</ele>
  <time>2026-08-28T19:07:51Z</time>
  <course>162.49</course>
  <speed>3.308232156303424</speed>
  <fix>3d</fix>
</trkpt>
<trkpt lat="40.0741009" lon="-105.2295402">
  <ele>1630.56</ele>
  <time>2026-08-28T19:07:51Z</time>
  <course>161.59</course>
  <speed>3.24</speed>
  <fix>3d</fix>
</trkpt>
<trkpt lat="40.0740917" lon="-105.229536">
  <ele>1630.06</ele>
  <time>2026-08-28T19:07:51Z</time>
  <course>161.28</course>
  <speed>3.34504110587598</speed>
  <fix>3d</fix>
</trkpt>
<trkpt lat="40.0740954" lon="-105.2295377">
  <ele>1630.27</ele>
  <time>2026-08-28T19:07:51Z</time>
  <course>160.47</course>
  <speed>3.29</speed>
  <fix>3d</fix>
</trkpt>
<trkpt lat="40.0740861" lon="-105.2295331">
  <ele>1629.76</ele>
  <time>2026-08-28T19:07:51Z</time>
  <course>160.0</course>
  <speed>3.383371099953418</speed>
  <fix>3d</fix>
</trkpt>
<trkpt lat="40.0740897" lon="-105.229535">
  <ele>1629.97</ele>
  <time>2026-08-28T19:07:51Z</time>
  <course>159.26</course>
  <speed>3.32</speed>
  <fix>3d</fix>
</trkpt>
<trkpt lat="40.0740805" lon="-105.2295301">
  <ele>1629.46</ele>
  <time>2026-08-28T19:07:51Z</time>
  <course>158.67</course>
  <speed>3.404776057246644</speed>
  <fix>3d</fix>
</trkpt>
<trkpt lat="40.0740842" lon="-105.2295321">
  <ele>1629.66</ele>
  <time>2026-08-28T19:07:51Z</time>
  <course>157.98</course>
  <speed>3.36</speed>
  <fix>3d</fix>
</trkpt>
<trkpt lat="40.0740749" lon="-105.2295269">
  <ele>1629.16</ele>
  <time>2026-08-28T19:07:51Z</time>
  <course>157.3</course>
  <speed>3.4279439902075417</speed>
  <fix>3d</fix>
</trkpt>
<trkpt lat="40.0740785" lon="-105.229529">
  <ele>1629.37</ele>
  <time>2026-08-28T19:07:51Z</time>
  <course>156.64</course>
  <speed>3.39</speed>
  <fix>3d</fix>
</trkpt>
<trkpt lat="40.0740693" lon="-105.2295235">
  <ele>1628.87</ele>
  <time>2026-08-28T19:07:51Z</time>
  <course>155.9</course>
  <speed>3.4571953951143697</speed>
  <fix>3d</fix>
</trkpt>
<trkpt lat="40.074073" lon="-105.2295258">
  <ele>1629.07</ele>
  <time>2026-08-28T19:07:51Z</time>
  <course>155.29</course>
  <speed>3.41</speed>
  <fix>3d</fix>
</trkpt>
<trkpt lat="40.0740638" lon="-105.2295199">
  <ele>1628.57</ele>
  <time>2026-08-28T19:07:51Z</time>
  <course>154.56</course>
  <speed>3.4750827328280978</speed>
  <fix>3d</fix>
</trkpt>
<trkpt lat="40.0740675" lon="-105.2295224">
  <ele>1628.78</ele>
  <time>2026-08-28T19:07:51Z</time>
  <course>153.95</course>
  <speed>3.43</speed>
  <fix>3d</fix>
</trkpt>
<trkpt lat="40.0740583" lon="-105.2295162">
  <ele>1628.27</ele>
  <time>2026-08-28T19:07:51Z</time>
  <course>153.22</course>
  <speed>3.490057306119772</speed>
  <fix>3d</fix>
</trkpt>
<trkpt lat="40.0740619" lon="-105.2295187">
  <ele>1628.48</ele>
  <time>2026-08-28T19:07:51Z</time>
  <course>152.64</course>
  <speed>3.45</speed>
  <fix>3d</fix>
</trkpt>
<trkpt lat="40.0740528" lon="-105.2295122">
  <ele>1627.97</ele>
  <time>2026-08-28T19:07:51Z</time>
  <course>151.96</course>
  <speed>3.4977850134049118</speed>
  <fix>3d</fix>
</trkpt>
<trkpt lat="40.0740564" lon="-105.2295149">
  <ele>1628.17</ele>
  <time>2026-08-28T19:07:51Z</time>
  <course>151.39</course>
  <speed>3.47</speed>
  <fix>3d</fix>
</trkpt>
<trkpt lat="40.0740474" lon="-105.2295081">
  <ele>1627.67</ele>
  <time>2026-08-28T19:07:51Z</time>
  <course>150.77</course>
  <speed>3.5157360538015365</speed>
  <fix>3d</fix>
</trkpt>
<trkpt lat="40.074051" lon="-105.2295109">
  <ele>1627.88</ele>
  <time>2026-08-28T19:07:51Z</time>
  <course>150.19</course>
  <speed>3.49</speed>
  <fix>3d</fix>
</trkpt>
<trkpt lat="40.074042" lon="-105.2295038">
  <ele>1627.37</ele>
  <time>2026-08-28T19:07:51Z</time>
  <course>149.66</course>
  <speed>3.5298158592198545</speed>
  <fix>3d</fix>
</trkpt>
<trkpt lat="40.0740456" lon="-105.2295068">
  <ele>1627.59</ele>
  <time>2026-08-28T19:07:51Z</time>
  <course>149.08</course>
  <speed>3.5</speed>
  <fix>3d</fix>
</trkpt>
<trkpt lat="40.0740367" lon="-105.2294995">
  <ele>1627.07</ele>
  <time>2026-08-28T19:07:51Z</time>
  <course>148.66</course>
  <speed>3.5449682650201537</speed>
  <fix>3d</fix>
</trkpt>
<trkpt lat="40.0740402" lon="-105.2295025">
  <ele>1627.29</ele>
  <time>2026-08-28T19:07:51Z</time>
  <course>148.06</course>
  <speed>3.52</speed>
  <fix>3d</fix>
</trkpt>
<trkpt lat="40.0740314" lon="-105.229495">
  <ele>1626.77</ele>
  <time>2026-08-28T19:07:51Z</time>
  <course>147.75</course>
  <speed>3.5556293395122047</speed>
  <fix>3d</fix>
</trkpt>
<trkpt lat="40.0740348" lon="-105.229498">
  <ele>1626.99</ele>
  <time>2026-08-28T19:07:51Z</time>
  <course>147.14</course>
  <speed>3.53</speed>
  <fix>3d</fix>
</trkpt>
<trkpt lat="40.0740261" lon="-105.2294904">
  <ele>1626.47</ele>
  <time>2026-08-28T19:07:51Z</time>
  <course>146.94</course>
  <speed>3.5614182568184827</speed>
  <fix>3d</fix>
</trkpt>
<trkpt lat="40.0740295" lon="-105.2294934">
  <ele>1626.69</ele>
  <time>2026-08-28T19:07:51Z</time>
  <course>146.33</course>
  <speed>3.54</speed>
  <fix>3d</fix>
</trkpt>
<trkpt lat="40.0740208" lon="-105.2294856">
  <ele>1626.17</ele>
  <time>2026-08-28T19:07:51Z</time>
  <course>146.24</course>
  <speed>3.5759474269066094</speed>
  <fix>3d</fix>
</trkpt>
<trkpt lat="40.0740242" lon="-105.2294888">
  <ele>1626.39</ele>
  <time>2026-08-28T19:07:51Z</time>
  <course>145.63</course>
  <speed>3.56</speed>
  <fix>3d</fix>
</trkpt>
<trkpt lat="40.0740156" lon="-105.2294809">
  <ele>1625.87</ele>
  <time>2026-08-28T19:07:51Z</time>
  <course>145.67</course>
  <speed>3.5932297449509125</speed>
  <fix>3d</fix>
</trkpt>
<trkpt lat="40.0740189" lon="-105.229484">
  <ele>1626.09</ele>
  <time>2026-08-28T19:07:51Z</time>
  <course>145.03</course>
  <speed>3.57</speed>
  <fix>3d</fix>
</trkpt>
<trkpt lat="40.0740104" lon="-105.229476">
  <ele>1625.57</ele>
  <time>2026-08-28T19:07:51Z</time>
  <course>145.17</course>
  <speed>3.6025685281476605</speed>
  <fix>3d</fix>
</trkpt>
<trkpt lat="40.0740136" lon="-105.2294792">
  <ele>1625.79</ele>
  <time>2026-08-28T19:07:51Z</time>
  <course>144.54</course>
  <speed>3.58</speed>
  <fix>3d</fix>
</trkpt>
<trkpt lat="40.0740051" lon="-105.2294711">
  <ele>1625.26</ele>
  <time>2026-08-28T19:07:51Z</time>
  <course>144.79</course>
  <speed>3.6202209877298928</speed>
  <fix>3d</fix>
</trkpt>
<trkpt lat="40.0740084" lon="-105.2294742">
  <ele>1625.49</ele>
  <time>2026-08-28T19:07:51Z</time>
  <course>144.15</course>
  <speed>3.6</speed>
  <fix>3d</fix>
</trkpt>
<trkpt lat="40.0739999" lon="-105.2294661">
  <ele>1624.96</ele>
  <time>2026-08-28T19:07:51Z</time>
  <course>144.49</course>
  <speed>3.6320792942886033</speed>
  <fix>3d</fix>
</trkpt>
<trkpt lat="40.0740031" lon="-105.2294693">
  <ele>1625.19</ele>
  <time>2026-08-28T19:07:51Z</time>
  <course>143.85</course>
  <speed>3.61</speed>
  <fix>3d</fix>
</trkpt>
<trkpt lat="40.0739947" lon="-105.229461">
  <ele>1624.66</ele>
  <time>2026-08-28T19:07:51Z</time>
  <course>144.25</course>
  <speed>3.646066373504465</speed>
  <fix>3d</fix>
</trkpt>
<trkpt lat="40.0739979" lon="-105.2294642">
  <ele>1624.89</ele>
  <time>2026-08-28T19:07:51Z</time>
  <course>143.62</course>
  <speed>3.63</speed>
  <fix>3d</fix>
</trkpt>
<trkpt lat="40.0739894" lon="-105.2294559">
  <ele>1624.36</ele>
  <time>2026-08-28T19:07:51Z</time>
  <course>144.09</course>
  <speed>3.6520268345125833</speed>
  <fix>3d</fix>
</trkpt>
<trkpt lat="40.0739927" lon="-105.2294592">
  <ele>1624.6</ele>
  <time>2026-08-28T19:07:51Z</time>
  <course>143.48</course>
  <speed>3.64</speed>
  <fix>3d</fix>
</trkpt>
<trkpt lat="40.0739841" lon="-105.2294508">
  <ele>1624.06</ele>
  <time>2026-08-28T19:07:51Z</time>
  <course>144.03</course>
  <speed>3.666019639881925</speed>
  <fix>3d</fix>
</trkpt>
<trkpt lat="40.0739874" lon="-105.2294541">
  <ele>1624.3</ele>
  <time>2026-08-28T19:07:51Z</time>
  <course>143.4</course>
  <speed>3.66</speed>
  <fix>3d</fix>
</trkpt>
<trkpt lat="40.0739788" lon="-105.2294456">
  <ele>1623.77</ele>
  <time>2026-08-28T19:07:51Z</time>
  <course>144.02</course>
  <speed>3.6800135869314397</speed>
  <fix>3d</fix>
</trkpt>
<trkpt lat="40.0739821" lon="-105.2294489">
  <ele>1624.0</ele>
  <time>2026-08-28T19:07:51Z</time>
  <course>143.38</course>
  <speed>3.67</speed>
  <fix>3d</fix>
</trkpt>
<trkpt lat="40.0739735" lon="-105.2294405">
  <ele>1623.47</ele>
  <time>2026-08-28T19:07:51Z</time>
  <course>144.04</course>
  <speed>3.6880347069950417</speed>
  <fix>3d</fix>
</trkpt>
<trkpt lat="40.0739768" lon="-105.2294438">
  <ele>1623.71</ele>
  <time>2026-08-28T19:07:51Z</time>
  <course>143.4</course>
  <speed>3.68</speed>
  <fix>3d</fix>
</trkpt>
<trkpt lat="40.0739681" lon="-105.2294353">
  <ele>1623.18</ele>
  <time>2026-08-28T19:07:51Z</time>
  <course>144.08</course>
  <speed>3.6960654756105176</speed>
  <fix>3d</fix>
</trkpt>
<trkpt lat="40.0739715" lon="-105.2294386">
  <ele>1623.41</ele>
  <time>2026-08-28T19:07:51Z</time>
  <course>143.45</course>
  <speed>3.68</speed>
  <fix>3d</fix>
</trkpt>
<trkpt lat="40.0739628" lon="-105.2294302">
  <ele>1622.88</ele>
  <time>2026-08-28T19:07:51Z</time>
  <course>144.15</course>
  <speed>3.6960654756105176</speed>
  <fix>3d</fix>
</trkpt>
<trkpt lat="40.0739661" lon="-105.2294335">
  <ele>1623.11</ele>
  <time>2026-08-28T19:07:51Z</time>
  <course>143.54</course>
  <speed>3.69</speed>
  <fix>3d</fix>
</trkpt>
<trkpt lat="40.0739574" lon="-105.229425">
  <ele>1622.58</ele>
  <time>2026-08-28T19:07:51Z</time>
  <course>144.26</course>
  <speed>3.704105830021599</speed>
  <fix>3d</fix>
</trkpt>
<trkpt lat="40.0739607" lon="-105.2294283">
  <ele>1622.82</ele>
  <time>2026-08-28T19:07:51Z</time>
  <course>143.65</course>
  <speed>3.69</speed>
  <fix>3d</fix>
</trkpt>
<trkpt lat="40.0739521" lon="-105.2294199">
  <ele>1622.29</ele>
  <time>2026-08-28T19:07:51Z</time>
  <course>144.4</course>
  <speed>3.7062379848034586</speed>
  <fix>3d</fix>
</trkpt>
<trkpt lat="40.0739554" lon="-105.2294232">
  <ele>1622.52</ele>
  <time>2026-08-28T19:07:51Z</time>
  <course>143.76</course>
  <speed>3.7</speed>
  <fix>3d</fix>
</trkpt>
<trkpt lat="40.0739467" lon="-105.2294148">
  <ele>1621.99</ele>
  <time>2026-08-28T19:07:51Z</time>
  <course>144.51</course>
  <speed>3.7143101647546883</speed>
  <fix>3d</fix>
</trkpt>
<trkpt lat="40.0739501" lon="-105.229418">
  <ele>1622.22</ele>
  <time>2026-08-28T19:07:51Z</time>
  <course>143.88</course>
  <speed>3.7</speed>
  <fix>3d</fix>
</trkpt>
<trkpt lat="40.0739413" lon="-105.2294096">
  <ele>1621.69</ele>
  <time>2026-08-28T19:07:51Z</time>
  <course>144.61</course>
  <speed>3.7084228453616235</speed>
  <fix>3d</fix>
</trkpt>
<trkpt lat="40.0739447" lon="-105.2294129">
  <ele>1621.91</ele>
  <time>2026-08-28T19:07:51Z</time>
  <course>143.99</course>
  <speed>3.7</speed>
  <fix>3d</fix>
</trkpt>
<trkpt lat="40.0739359" lon="-105.2294045">
  <ele>1621.38</ele>
  <time>2026-08-28T19:07:51Z</time>
  <course>144.69</course>
  <speed>3.716517186829626</speed>
  <fix>3d</fix>
</trkpt>
<trkpt lat="40.0739392" lon="-105.2294078">
  <ele>1621.62</ele>
  <time>2026-08-28T19:07:51Z</time>
  <course>144.09</course>
  <speed>3.71</speed>
  <fix>3d</fix>
</trkpt>
<trkpt lat="40.0739305" lon="-105.2293994">
  <ele>1621.08</ele>
  <time>2026-08-28T19:07:51Z</time>
  <course>144.75</course>
  <speed>3.7106603185956</speed>
  <fix>3d</fix>
</trkpt>
<trkpt lat="40.0739339" lon="-105.2294027">
  <ele>1621.32</ele>
  <time>2026-08-28T19:07:51Z</time>
  <course>144.18</course>
  <speed>3.71</speed>
  <fix>3d</fix>
</trkpt>
<trkpt lat="40.0739251" lon="-105.2293943">
  <ele>1620.78</ele>
  <time>2026-08-28T19:07:51Z</time>
  <course>144.81</course>
  <speed>3.7106603185956</speed>
  <fix>3d</fix>
</trkpt>
<trkpt lat="40.0739284" lon="-105.2293976">
  <ele>1621.02</ele>
  <time>2026-08-28T19:07:51Z</time>
  <course>144.25</course>
  <speed>3.71</speed>
  <fix>3d</fix>
</trkpt>
<trkpt lat="40.0739196" lon="-105.2293893">
  <ele>1620.48</ele>
  <time>2026-08-28T19:07:51Z</time>
  <course>144.87</course>
  <speed>3.7106603185956</speed>
  <fix>3d</fix>
</trkpt>
<trkpt lat="40.0739231" lon="-105.2293925">
  <ele>1620.72</ele>
  <time>2026-08-28T19:07:51Z</time>
  <course>144.31</course>
  <speed>3.7</speed>
  <fix>3d</fix>
</trkpt>
<trkpt lat="40.0739142" lon="-105.2293842">
  <ele>1620.18</ele>
  <time>2026-08-28T19:07:51Z</time>
  <course>144.9</course>
  <speed>3.7048211832691735</speed>
  <fix>3d</fix>
</trkpt>
<trkpt lat="40.0739176" lon="-105.2293874">
  <ele>1620.41</ele>
  <time>2026-08-28T19:07:51Z</time>
  <course>144.36</course>
  <speed>3.7</speed>
  <fix>3d</fix>
</trkpt>
<trkpt lat="40.0739088" lon="-105.2293791">
  <ele>1619.88</ele>
  <time>2026-08-28T19:07:51Z</time>
  <course>144.93</course>
  <speed>3.6967012321798474</speed>
  <fix>3d</fix>
</trkpt>
<trkpt lat="40.0739123" lon="-105.2293823">
  <ele>1620.12</ele>
  <time>2026-08-28T19:07:51Z</time>
  <course>144.4</course>
  <speed>3.7</speed>
  <fix>3d</fix>
</trkpt>
<trkpt lat="40.0739034" lon="-105.2293741">
  <ele>1619.58</ele>
  <time>2026-08-28T19:07:51Z</time>
  <course>144.95</course>
  <speed>3.6908671067921155</speed>
  <fix>3d</fix>
</trkpt>
<trkpt lat="40.0739069" lon="-105.2293773">
  <ele>1619.82</ele>
  <time>2026-08-28T19:07:51Z</time>
  <course>144.44</course>
  <speed>3.69</speed>
  <fix>3d</fix>
</trkpt>
<trkpt lat="40.073898" lon="-105.229369">
  <ele>1619.28</ele>
  <time>2026-08-28T19:07:51Z</time>
  <course>144.98</course>
  <speed>3.6769144673217515</speed>
  <fix>3d</fix>
</trkpt>
<trkpt lat="40.0739015" lon="-105.2293723">
  <ele>1619.52</ele>
  <time>2026-08-28T19:07:51Z</time>
  <course>144.48</course>
  <speed>3.68</speed>
  <fix>3d</fix>
</trkpt>
<trkpt lat="40.0738926" lon="-105.229364">
  <ele>1618.98</ele>
  <time>2026-08-28T19:07:51Z</time>
  <course>145.03</course>
  <speed>3.671103376370652</speed>
  <fix>3d</fix>
</trkpt>
<trkpt lat="40.0738961" lon="-105.2293673">
  <ele>1619.22</ele>
  <time>2026-08-28T19:07:51Z</time>
  <course>144.52</course>
  <speed>3.68</speed>
  <fix>3d</fix>
</trkpt>
<trkpt lat="40.0738873" lon="-105.229359">
  <ele>1618.68</ele>
  <time>2026-08-28T19:07:51Z</time>
  <course>145.09</course>
  <speed>3.657157366042648</speed>
  <fix>3d</fix>
</trkpt>
<trkpt lat="40.0738906" lon="-105.2293622">
  <ele>1618.91</ele>
  <time>2026-08-28T19:07:51Z</time>
  <course>144.58</course>
  <speed>3.67</speed>
  <fix>3d</fix>
</trkpt>
<trkpt lat="40.0738819" lon="-105.2293541">
  <ele>1618.38</ele>
  <time>2026-08-28T19:07:51Z</time>
  <course>145.15</course>
  <speed>3.651369606051954</speed>
  <fix>3d</fix>
</trkpt>
<trkpt lat="40.0738853" lon="-105.2293573">
  <ele>1618.62</ele>
  <time>2026-08-28T19:07:51Z</time>
  <course>144.64</course>
  <speed>3.66</speed>
  <fix>3d</fix>
</trkpt>
<trkpt lat="40.0738765" lon="-105.2293491">
  <ele>1618.09</ele>
  <time>2026-08-28T19:07:51Z</time>
  <course>145.24</course>
  <speed>3.645600087777045</speed>
  <fix>3d</fix>
</trkpt>
<trkpt lat="40.0738799" lon="-105.2293523">
  <ele>1618.32</ele>
  <time>2026-08-28T19:07:51Z</time>
  <course>144.72</course>
  <speed>3.65</speed>
  <fix>3d</fix>
</trkpt>
<trkpt lat="40.0738711" lon="-105.2293442">
  <ele>1617.79</ele>
  <time>2026-08-28T19:07:51Z</time>
  <course>145.36</course>
  <speed>3.6316662842282192</speed>
  <fix>3d</fix>
</trkpt>
<trkpt lat="40.0738745" lon="-105.2293474">
  <ele>1618.02</ele>
  <time>2026-08-28T19:07:51Z</time>
  <course>144.83</course>
  <speed>3.64</speed>
  <fix>3d</fix>
</trkpt>
<trkpt lat="40.0738658" lon="-105.2293393">
  <ele>1617.49</ele>
  <time>2026-08-28T19:07:51Z</time>
  <course>145.5</course>
  <speed>3.6259205727649357</speed>
  <fix>3d</fix>
</trkpt>
<trkpt lat="40.0738692" lon="-105.2293425">
  <ele>1617.72</ele>
  <time>2026-08-28T19:07:51Z</time>
  <course>144.95</course>
  <speed>3.63</speed>
  <fix>3d</fix>
</trkpt>
<trkpt lat="40.0738605" lon="-105.2293345">
  <ele>1617.19</ele>
  <time>2026-08-28T19:07:51Z</time>
  <course>145.65</course>
  <speed>3.6062723136224752</speed>
  <fix>3d</fix>
</trkpt>
<trkpt lat="40.0738638" lon="-105.2293375">
  <ele>1617.41</ele>
  <time>2026-08-28T19:07:51Z</time>
  <course>145.11</course>
  <speed>3.62</speed>
  <fix>3d</fix>
</trkpt>
<trkpt lat="40.0738552" lon="-105.2293296">
  <ele>1616.88</ele>
  <time>2026-08-28T19:07:51Z</time>
  <course>145.84</course>
  <speed>3.594885255470611</speed>
  <fix>3d</fix>
</trkpt>
<trkpt lat="40.0738585" lon="-105.2293328">
  <ele>1617.11</ele>
  <time>2026-08-28T19:07:51Z</time>
  <course>145.29</course>
  <speed>3.6</speed>
  <fix>3d</fix>
</trkpt>
<trkpt lat="40.0738498" lon="-105.2293249">
  <ele>1616.58</ele>
  <time>2026-08-28T19:07:51Z</time>
  <course>146.05</course>
  <speed>3.5835736353534027</speed>
  <fix>3d</fix>
</trkpt>
<trkpt lat="40.0738532" lon="-105.229328">
  <ele>1616.81</ele>
  <time>2026-08-28T19:07:51Z</time>
  <course>145.5</course>
  <speed>3.59</speed>
  <fix>3d</fix>
</trkpt>
<trkpt lat="40.0738445" lon="-105.2293202">
  <ele>1616.28</ele>
  <time>2026-08-28T19:07:51Z</time>
  <course>146.32</course>
  <speed>3.5584547208022754</speed>
  <fix>3d</fix>
</trkpt>
<trkpt lat="40.0738479" lon="-105.2293232">
  <ele>1616.51</ele>
  <time>2026-08-28T19:07:51Z</time>
  <course>145.77</course>
  <speed>3.58</speed>
  <fix>3d</fix>
</trkpt>
<trkpt lat="40.0738392" lon="-105.2293156">
  <ele>1615.99</ele>
  <time>2026-08-28T19:07:51Z</time>
  <course>146.64</course>
  <speed>3.547308839106062</speed>
  <fix>3d</fix>
</trkpt>
<trkpt lat="40.0738426" lon="-105.2293185">
  <ele>1616.21</ele>
  <time>2026-08-28T19:07:51Z</time>
  <course>146.07</course>
  <speed>3.56</speed>
  <fix>3d</fix>
</trkpt>
<trkpt lat="40.0738339" lon="-105.229311">
  <ele>1615.68</ele>
  <time>2026-08-28T19:07:51Z</time>
  <course>146.99</course>
  <speed>3.530736467084452</speed>
  <fix>3d</fix>
</trkpt>
<trkpt lat="40.0738372" lon="-105.2293138">
  <ele>1615.91</ele>
  <time>2026-08-28T19:07:51Z</time>
  <course>146.41</course>
  <speed>3.55</speed>
  <fix>3d</fix>
</trkpt>
<trkpt lat="40.0738286" lon="-105.2293064">
  <ele>1615.38</ele>
  <time>2026-08-28T19:07:51Z</time>
  <course>147.4</course>
  <speed>3.5227404105326867</speed>
  <fix>3d</fix>
</trkpt>
<trkpt lat="40.0738319" lon="-105.2293092">
  <ele>1615.61</ele>
  <time>2026-08-28T19:07:51Z</time>
  <course>146.81</course>
  <speed>3.53</speed>
  <fix>3d</fix>
</trkpt>
<trkpt lat="40.0738233" lon="-105.229302">
  <ele>1615.08</ele>
  <time>2026-08-28T19:07:51Z</time>
  <course>147.85</course>
  <speed>3.5065652710308983</speed>
  <fix>3d</fix>
</trkpt>
<trkpt lat="40.0738266" lon="-105.2293048">
  <ele>1615.31</ele>
  <time>2026-08-28T19:07:51Z</time>
  <course>147.25</course>
  <speed>3.52</speed>
  <fix>3d</fix>
</trkpt>
<trkpt lat="40.0738179" lon="-105.2292976">
  <ele>1614.78</ele>
  <time>2026-08-28T19:07:51Z</time>
  <course>148.34</course>
  <speed>3.4852833457267143</speed>
  <fix>3d</fix>
</trkpt>
<trkpt lat="40.0738213" lon="-105.2293004">
  <ele>1615.01</ele>
  <time>2026-08-28T19:07:51Z</time>
  <course>147.73</course>
  <speed>3.5</speed>
  <fix>3d</fix>
</trkpt>
<trkpt lat="40.0738126" lon="-105.2292933">
  <ele>1614.48</ele>
  <time>2026-08-28T19:07:51Z</time>
  <course>148.88</course>
  <speed>3.4728806486834527</speed>
  <fix>3d</fix>
</trkpt>
<trkpt lat="40.0738159" lon="-105.229296">
  <ele>1614.7</ele>
  <time>2026-08-28T19:07:51Z</time>
  <course>148.26</course>
  <speed>3.49</speed>
  <fix>3d</fix>
</trkpt>
<trkpt lat="40.0738073" lon="-105.2292891">
  <ele>1614.19</ele>
  <time>2026-08-28T19:07:51Z</time>
  <course>149.47</course>
  <speed>3.4523180618245477</speed>
  <fix>3d</fix>
</trkpt>
<trkpt lat="40.0738106" lon="-105.2292917">
  <ele>1614.4</ele>
  <time>2026-08-28T19:07:51Z</time>
  <course>148.83</course>
  <speed>3.47</speed>
  <fix>3d</fix>
</trkpt>
<trkpt lat="40.0738019" lon="-105.229285">
  <ele>1613.88</ele>
  <time>2026-08-28T19:07:51Z</time>
  <course>150.09</course>
  <speed>3.432098483435462</speed>
  <fix>3d</fix>
</trkpt>
<trkpt lat="40.0738053" lon="-105.2292875">
  <ele>1614.1</ele>
  <time>2026-08-28T19:07:51Z</time>
  <course>149.44</course>
  <speed>3.45</speed>
  <fix>3d</fix>
</trkpt>
<trkpt lat="40.0737966" lon="-105.229281">
  <ele>1613.58</ele>
  <time>2026-08-28T19:07:51Z</time>
  <course>150.76</course>
  <speed>3.4073156589902265</speed>
  <fix>3d</fix>
</trkpt>
<trkpt lat="40.0738" lon="-105.2292834">
  <ele>1613.8</ele>
  <time>2026-08-28T19:07:51Z</time>
  <course>150.09</course>
  <speed>3.43</speed>
  <fix>3d</fix>
</trkpt>
<trkpt lat="40.0737912" lon="-105.2292771">
  <ele>1613.28</ele>
  <time>2026-08-28T19:07:51Z</time>
  <course>151.45</course>
  <speed>3.391872639118397</speed>
  <fix>3d</fix>
</trkpt>
<trkpt lat="40.0737946" lon="-105.2292795">
  <ele>1613.5</ele>
  <time>2026-08-28T19:07:51Z</time>
  <course>150.78</course>
  <speed>3.41</speed>
  <fix>3d</fix>
</trkpt>
<trkpt lat="40.0737859" lon="-105.2292733">
  <ele>1612.99</ele>
  <time>2026-08-28T19:07:51Z</time>
  <course>152.18</course>
  <speed>3.368278492049017</speed>
  <fix>3d</fix>
</trkpt>
<trkpt lat="40.0737893" lon="-105.2292756">
  <ele>1613.2</ele>
  <time>2026-08-28T19:07:51Z</time>
  <course>151.51</course>
  <speed>3.39</speed>
  <fix>3d</fix>
</trkpt>
<trkpt lat="40.0737805" lon="-105.2292697">
  <ele>1612.69</ele>
  <time>2026-08-28T19:07:51Z</time>
  <course>152.96</course>
  <speed>3.3452653108535357</speed>
  <fix>3d</fix>
</trkpt>
<trkpt lat="40.0737838" lon="-105.2292719">
  <ele>1612.9</ele>
  <time>2026-08-28T19:07:51Z</time>
  <course>152.29</course>
  <speed>3.36</speed>
  <fix>3d</fix>
</trkpt>
<trkpt lat="40.0737751" lon="-105.2292661">
  <ele>1612.39</ele>
  <time>2026-08-28T19:07:52Z</time>
  <course>153.79</course>
  <speed>3.322845166419886</speed>
  <fix>3d</fix>
</trkpt>
<trkpt lat="40.0737785" lon="-105.2292683">
  <ele>1612.6</ele>
  <time>2026-08-28T19:07:52Z</time>
  <course>153.11</course>
  <speed>3.34</speed>
  <fix>3d</fix>
</trkpt>
<trkpt lat="40.0737698" lon="-105.2292627">
  <ele>1612.09</ele>
  <time>2026-08-28T19:07:52Z</time>
  <course>154.66</course>
  <speed>3.2967408148048274</speed>
  <fix>3d</fix>
</trkpt>
<trkpt lat="40.0737732" lon="-105.2292648">
  <ele>1612.29</ele>
  <time>2026-08-28T19:07:52Z</time>
  <course>153.96</course>
  <speed>3.32</speed>
  <fix>3d</fix>
</trkpt>
<trkpt lat="40.0737644" lon="-105.2292594">
  <ele>1611.79</ele>
  <time>2026-08-28T19:07:52Z</time>
  <course>155.55</course>
  <speed>3.2847678761215384</speed>
  <fix>3d</fix>
</trkpt>
<trkpt lat="40.0737678" lon="-105.2292614">
  <ele>1611.99</ele>
  <time>2026-08-28T19:07:52Z</time>
  <course>154.84</course>
  <speed>3.3</speed>
  <fix>3d</fix>
</trkpt>
<trkpt lat="40.073759" lon="-105.2292563">
  <ele>1611.49</ele>
  <time>2026-08-28T19:07:52Z</time>
  <course>156.46</course>
  <speed>3.2603834130359575</speed>
  <fix>3d</fix>
</trkpt>
<trkpt lat="40.0737625" lon="-105.2292582">
  <ele>1611.69</ele>
  <time>2026-08-28T19:07:52Z</time>
  <course>155.76</course>
  <speed>3.27</speed>
  <fix>3d</fix>
</trkpt>
<trkpt lat="40.0737537" lon="-105.2292533">
  <ele>1611.18</ele>
  <time>2026-08-28T19:07:52Z</time>
  <course>157.43</course>
  <speed>3.2369275555687063</speed>
  <fix>3d</fix>
</trkpt>
<trkpt lat="40.073757" lon="-105.229255">
  <ele>1611.38</ele>
  <time>2026-08-28T19:07:52Z</time>
  <course>156.71</course>
  <speed>3.25</speed>
  <fix>3d</fix>
</trkpt>
<trkpt lat="40.0737483" lon="-105.2292505">
  <ele>1610.88</ele>
  <time>2026-08-28T19:07:52Z</time>
  <course>158.41</course>
  <speed>3.214420632089086</speed>
  <fix>3d</fix>
</trkpt>
<trkpt lat="40.0737517" lon="-105.2292521">
  <ele>1611.08</ele>
  <time>2026-08-28T19:07:52Z</time>
  <course>157.69</course>
  <speed>3.23</speed>
  <fix>3d</fix>
</trkpt>
<trkpt lat="40.0737429" lon="-105.2292477">
  <ele>1610.57</ele>
  <time>2026-08-28T19:07:52Z</time>
  <course>159.43</course>
  <speed>3.1893886561534015</speed>
  <fix>3d</fix>
</trkpt>
<trkpt lat="40.0737462" lon="-105.2292493">
  <ele>1610.78</ele>
  <time>2026-08-28T19:07:52Z</time>
  <course>158.72</course>
  <speed>3.21</speed>
  <fix>3d</fix>
</trkpt>
<trkpt lat="40.0737376" lon="-105.2292452">
  <ele>1610.27</ele>
  <time>2026-08-28T19:07:52Z</time>
  <course>160.5</course>
  <speed>3.1690061533547076</speed>
  <fix>3d</fix>
</trkpt>
<trkpt lat="40.0737409" lon="-105.2292467">
  <ele>1610.48</ele>
  <time>2026-08-28T19:07:52Z</time>
  <course>159.78</course>
  <speed>3.19</speed>
  <fix>3d</fix>
</trkpt>
<trkpt lat="40.0737322" lon="-105.2292428">
  <ele>1609.97</ele>
  <time>2026-08-28T19:07:52Z</time>
  <course>161.57</course>
  <speed>3.1496348994764456</speed>
  <fix>3d</fix>
</trkpt>
<trkpt lat="40.0737355" lon="-105.2292442">
  <ele>1610.17</ele>
  <time>2026-08-28T19:07:52Z</time>
  <course>160.88</course>
  <speed>3.17</speed>
  <fix>3d</fix>
</trkpt>
<trkpt lat="40.0737268" lon="-105.2292405">
  <ele>1609.67</ele>
  <time>2026-08-28T19:07:52Z</time>
  <course>162.69</course>
  <speed>3.1283382170091523</speed>
  <fix>3d</fix>
</trkpt>
<trkpt lat="40.0737302" lon="-105.2292418">
  <ele>1609.88</ele>
  <time>2026-08-28T19:07:52Z</time>
  <course>162.0</course>
  <speed>3.15</speed>
  <fix>3d</fix>
</trkpt>
<trkpt lat="40.0737215" lon="-105.2292384">
  <ele>1609.37</ele>
  <time>2026-08-28T19:07:52Z</time>
  <course>163.86</course>
  <speed>3.108472293587318</speed>
  <fix>3d</fix>
</trkpt>
<trkpt lat="40.0737247" lon="-105.2292396">
  <ele>1609.58</ele>
  <time>2026-08-28T19:07:52Z</time>
  <course>163.15</course>
  <speed>3.13</speed>
  <fix>3d</fix>
</trkpt>
<trkpt lat="40.0737161" lon="-105.2292365">
  <ele>1609.08</ele>
  <time>2026-08-28T19:07:52Z</time>
  <course>165.05</course>
  <speed>3.090064724241225</speed>
  <fix>3d</fix>
</trkpt>
<trkpt lat="40.0737194" lon="-105.2292376">
  <ele>1609.28</ele>
  <time>2026-08-28T19:07:52Z</time>
  <course>164.33</course>
  <speed>3.11</speed>
  <fix>3d</fix>
</trkpt>
<trkpt lat="40.0737107" lon="-105.2292347">
  <ele>1608.78</ele>
  <time>2026-08-28T19:07:52Z</time>
  <course>166.29</course>
  <speed>3.0731417149230196</speed>
  <fix>3d</fix>
</trkpt>
<trkpt lat="40.0737139" lon="-105.2292357">
  <ele>1608.98</ele>
  <time>2026-08-28T19:07:52Z</time>
  <course>165.56</course>
  <speed>3.09</speed>
  <fix>3d</fix>
</trkpt>
<trkpt lat="40.0737053" lon="-105.2292331">
  <ele>1608.48</ele>
  <time>2026-08-28T19:07:52Z</time>
  <course>167.57</course>
  <speed>3.057727914645121</speed>
  <fix>3d</fix>
</trkpt>
<trkpt lat="40.0737086" lon="-105.2292339">
  <ele>1608.67</ele>
  <time>2026-08-28T19:07:52Z</time>
  <course>166.82</course>
  <speed>3.07</speed>
  <fix>3d</fix>
</trkpt>
<trkpt lat="40.0736999" lon="-105.2292316">
  <ele>1608.18</ele>
  <time>2026-08-28T19:07:52Z</time>
  <course>168.89</course>
  <speed>3.0438462510448847</speed>
  <fix>3d</fix>
</trkpt>
<trkpt lat="40.0737032" lon="-105.2292323">
  <ele>1608.38</ele>
  <time>2026-08-28T19:07:52Z</time>
  <course>168.13</course>
  <speed>3.06</speed>
  <fix>3d</fix>
</trkpt>
<trkpt lat="40.0736945" lon="-105.2292303">
  <ele>1607.89</ele>
  <time>2026-08-28T19:07:52Z</time>
  <course>170.25</course>
  <speed>3.029884486246959</speed>
  <fix>3d</fix>
</trkpt>
<trkpt lat="40.0736978" lon="-105.2292309">
  <ele>1608.08</ele>
  <time>2026-08-28T19:07:52Z</time>
  <course>169.48</course>
  <speed>3.04</speed>
  <fix>3d</fix>
</trkpt>
<trkpt lat="40.0736891" lon="-105.2292292">
  <ele>1607.59</ele>
  <time>2026-08-28T19:07:52Z</time>
  <course>171.67</course>
  <speed>3.0193542355940948</speed>
  <fix>3d</fix>
</trkpt>
<trkpt lat="40.0736924" lon="-105.2292297">
  <ele>1607.78</ele>
  <time>2026-08-28T19:07:52Z</time>
  <course>170.89</course>
  <speed>3.03</speed>
  <fix>3d</fix>
</trkpt>
<trkpt lat="40.0736837" lon="-105.2292283">
  <ele>1607.28</ele>
  <time>2026-08-28T19:07:52Z</time>
  <course>173.13</course>
  <speed>2.9993332592427935</speed>
  <fix>3d</fix>
</trkpt>
<trkpt lat="40.0736871" lon="-105.2292287">
  <ele>1607.47</ele>
  <time>2026-08-28T19:07:52Z</time>
  <course>172.34</course>
  <speed>3.01</speed>
  <fix>3d</fix>
</trkpt>
<trkpt lat="40.0736784" lon="-105.2292276">
  <ele>1606.99</ele>
  <time>2026-08-28T19:07:52Z</time>
  <course>174.64</course>
  <speed>2.9904681907687967</speed>
  <fix>3d</fix>
</trkpt>
<trkpt lat="40.0736817" lon="-105.2292278">
  <ele>1607.16</ele>
  <time>2026-08-28T19:07:52Z</time>
  <course>173.86</course>
  <speed>3.0</speed>
  <fix>3d</fix>
</trkpt>
<trkpt lat="40.073673" lon="-105.229227">
  <ele>1606.68</ele>
  <time>2026-08-28T19:07:52Z</time>
  <course>176.23</course>
  <speed>2.984845054605012</speed>
  <fix>3d</fix>
</trkpt>
<trkpt lat="40.0736763" lon="-105.2292272">
  <ele>1606.87</ele>
  <time>2026-08-28T19:07:52Z</time>
  <course>175.41</course>
  <speed>2.99</speed>
  <fix>3d</fix>
</trkpt>
<trkpt lat="40.0736677" lon="-105.2292267">
  <ele>1606.38</ele>
  <time>2026-08-28T19:07:52Z</time>
  <course>177.85</course>
  <speed>2.981358750637031</speed>
  <fix>3d</fix>
</trkpt>
<trkpt lat="40.073671" lon="-105.2292267">
  <ele>1606.57</ele>
  <time>2026-08-28T19:07:52Z</time>
  <course>177.02</course>
  <speed>2.98</speed>
  <fix>3d</fix>
</trkpt>
<trkpt lat="40.0736623" lon="-105.2292266">
  <ele>1606.08</ele>
  <time>2026-08-28T19:07:52Z</time>
  <course>179.49</course>
  <speed>2.98</speed>
  <fix>3d</fix>
</trkpt>
<trkpt lat="40.0736656" lon="-105.2292265">
  <ele>1606.26</ele>
  <time>2026-08-28T19:07:52Z</time>
  <course>178.68</course>
  <speed>2.98</speed>
  <fix>3d</fix>
</trkpt>
<trkpt lat="40.0736569" lon="-105.2292266">
  <ele>1605.78</ele>
  <time>2026-08-28T19:07:52Z</time>
  <course>181.18</course>
  <speed>2.9810736320996836</speed>
  <fix>3d</fix>
</trkpt>
<trkpt lat="40.0736603" lon="-105.2292264">
  <ele>1605.96</ele>
  <time>2026-08-28T19:07:52Z</time>
  <course>180.38</course>
  <speed>2.98</speed>
  <fix>3d</fix>
</trkpt>
<trkpt lat="40.0736516" lon="-105.2292268">
  <ele>1605.47</ele>
  <time>2026-08-28T19:07:52Z</time>
  <course>182.93</course>
  <speed>2.9854312921251425</speed>
  <fix>3d</fix>
</trkpt>
<trkpt lat="40.0736549" lon="-105.2292266">
  <ele>1605.66</ele>
  <time>2026-08-28T19:07:52Z</time>
  <course>182.13</course>
  <speed>2.98</speed>
  <fix>3d</fix>
</trkpt>
<trkpt lat="40.0736462" lon="-105.2292273">
  <ele>1605.17</ele>
  <time>2026-08-28T19:07:52Z</time>
  <course>184.82</course>
  <speed>2.99312545677591</speed>
  <fix>3d</fix>
</trkpt>
<trkpt lat="40.0736495" lon="-105.2292268">
  <ele>1605.35</ele>
  <time>2026-08-28T19:07:52Z</time>
  <course>184.01</course>
  <speed>2.99</speed>
  <fix>3d</fix>
</trkpt>
<trkpt lat="40.0736408" lon="-105.2292281">
  <ele>1604.86</ele>
  <time>2026-08-28T19:07:52Z</time>
  <course>186.92</course>
  <speed>3.006725793949292</speed>
  <fix>3d</fix>
</trkpt>
<trkpt lat="40.0736442" lon="-105.2292274">
  <ele>1605.05</ele>
  <time>2026-08-28T19:07:52Z</time>
  <course>186.08</course>
  <speed>2.99</speed>
  <fix>3d</fix>
</trkpt>
<trkpt lat="40.0736355" lon="-105.2292292">
  <ele>1604.56</ele>
  <time>2026-08-28T19:07:52Z</time>
  <course>189.2</course>
  <speed>3.0267639485100255</speed>
  <fix>3d</fix>
</trkpt>
<trkpt lat="40.0736388" lon="-105.2292284">
  <ele>1604.75</ele>
  <time>2026-08-28T19:07:52Z</time>
  <course>188.34</course>
  <speed>3.01</speed>
  <fix>3d</fix>
</trkpt>
<trkpt lat="40.0736301" lon="-105.2292306">
  <ele>1604.25</ele>
  <time>2026-08-28T19:07:52Z</time>
  <course>191.65</course>
  <speed>3.054390282855156</speed>
  <fix>3d</fix>
</trkpt>
<trkpt lat="40.0736335" lon="-105.2292295">
  <ele>1604.45</ele>
  <time>2026-08-28T19:07:52Z</time>
  <course>190.78</course>
  <speed>3.03</speed>
  <fix>3d</fix>
</trkpt>
<trkpt lat="40.0736248" lon="-105.2292323">
  <ele>1603.96</ele>
  <time>2026-08-28T19:07:52Z</time>
  <course>194.23</course>
  <speed>3.0907604242321987</speed>
  <fix>3d</fix>
</trkpt>
<trkpt lat="40.073628" lon="-105.229231">
  <ele>1604.15</ele>
  <time>2026-08-28T19:07:52Z</time>
  <course>193.39</course>
  <speed>3.06</speed>
  <fix>3d</fix>
</trkpt>
<trkpt lat="40.0736194" lon="-105.2292343">
  <ele>1603.65</ele>
  <time>2026-08-28T19:07:52Z</time>
  <course>196.94</course>
  <speed>3.1465059987230277</speed>
  <fix>3d</fix>
</trkpt>
<trkpt lat="40.0736227" lon="-105.2292329">
  <ele>1603.86</ele>
  <time>2026-08-28T19:07:52Z</time>
  <course>196.13</course>
  <speed>3.1</speed>
  <fix>3d</fix>
</trkpt>
<trkpt lat="40.0736141" lon="-105.2292368">
  <ele>1603.36</ele>
  <time>2026-08-28T19:07:52Z</time>
  <course>199.78</course>
  <speed>3.2035293037523473</speed>
  <fix>3d</fix>
</trkpt>
<trkpt lat="40.0736174" lon="-105.2292351">
  <ele>1603.56</ele>
  <time>2026-08-28T19:07:52Z</time>
  <course>199.02</course>
  <speed>3.16</speed>
  <fix>3d</fix>
</trkpt>
<trkpt lat="40.0736087" lon="-105.2292397">
  <ele>1603.06</ele>
  <time>2026-08-28T19:07:52Z</time>
  <course>202.73</course>
  <speed>3.2897568299191966</speed>
  <fix>3d</fix>
</trkpt>
<trkpt lat="40.073612" lon="-105.2292377">
  <ele>1603.26</ele>
  <time>2026-08-28T19:07:52Z</time>
  <course>202.03</course>
  <speed>3.23</speed>
  <fix>3d</fix>
</trkpt>
<trkpt lat="40.0736033" lon="-105.229243">
  <ele>1602.76</ele>
  <time>2026-08-28T19:07:52Z</time>
  <course>205.77</course>
  <speed>3.3813606728652887</speed>
  <fix>3d</fix>
</trkpt>
<trkpt lat="40.0736066" lon="-105.2292408">
  <ele>1602.96</ele>
  <time>2026-08-28T19:07:52Z</time>
  <course>205.16</course>
  <speed>3.31</speed>
  <fix>3d</fix>
</trkpt>
<trkpt lat="40.0735979" lon="-105.2292469">
  <ele>1602.45</ele>
  <time>2026-08-28T19:07:52Z</time>
  <course>208.92</course>
  <speed>3.50202798389733</speed>
  <fix>3d</fix>
</trkpt>
<trkpt lat="40.0736012" lon="-105.2292444">
  <ele>1602.66</ele>
  <time>2026-08-28T19:07:52Z</time>
  <course>208.39</course>
  <speed>3.41</speed>
  <fix>3d</fix>
</trkpt>
<trkpt lat="40.0735925" lon="-105.2292514">
  <ele>1602.15</ele>
  <time>2026-08-28T19:07:52Z</time>
  <course>212.06</course>
  <speed>3.6444478319767457</speed>
  <fix>3d</fix>
</trkpt>
<trkpt lat="40.0735957" lon="-105.2292485">
  <ele>1602.36</ele>
  <time>2026-08-28T19:07:52Z</time>
  <course>211.7</course>
  <speed>3.54</speed>
  <fix>3d</fix>
</trkpt>
<trkpt lat="40.073587" lon="-105.2292565">
  <ele>1601.85</ele>
  <time>2026-08-28T19:07:52Z</time>
  <course>215.21</course>
  <speed>3.808254193196668</speed>
  <fix>3d</fix>
</trkpt>
<trkpt lat="40.0735904" lon="-105.2292531">
  <ele>1602.05</ele>
  <time>2026-08-28T19:07:52Z</time>
  <course>215.09</course>
  <speed>3.68</speed>
  <fix>3d</fix>
</trkpt>
<trkpt lat="40.0735816" lon="-105.2292622">
  <ele>1601.55</ele>
  <time>2026-08-28T19:07:52Z</time>
  <course>218.26</course>
  <speed>3.990551340353861</speed>
  <fix>3d</fix>
</trkpt>
<trkpt lat="40.0735849" lon="-105.2292584">
  <ele>1601.75</ele>
  <time>2026-08-28T19:07:52Z</time>
  <course>218.56</course>
  <speed>3.85</speed>
  <fix>3d</fix>
</trkpt>
<trkpt lat="40.0735762" lon="-105.2292687">
  <ele>1601.26</ele>
  <time>2026-08-28T19:07:52Z</time>
  <course>221.67</course>
  <speed>4.165009003591709</speed>
  <fix>3d</fix>
</trkpt>
<trkpt lat="40.0735796" lon="-105.2292645">
  <ele>1601.45</ele>
  <time>2026-08-28T19:07:52Z</time>
  <course>222.09</course>
  <speed>4.04</speed>
  <fix>3d</fix>
</trkpt>
<trkpt lat="40.0735709" lon="-105.2292759">
  <ele>1600.98</ele>
  <time>2026-08-28T19:07:52Z</time>
  <course>225.16</course>
  <speed>4.326719311441407</speed>
  <fix>3d</fix>
</trkpt>
<trkpt lat="40.0735742" lon="-105.2292712">
  <ele>1601.16</ele>
  <time>2026-08-28T19:07:52Z</time>
  <course>225.61</course>
  <speed>4.21</speed>
  <fix>3d</fix>
</trkpt>
<trkpt lat="40.0735659" lon="-105.2292837">
  <ele>1600.72</ele>
  <time>2026-08-28T19:07:52Z</time>
  <course>228.62</course>
  <speed>4.463507589329271</speed>
  <fix>3d</fix>
</trkpt>
<trkpt lat="40.073569" lon="-105.2292786">
  <ele>1600.89</ele>
  <time>2026-08-28T19:07:52Z</time>
  <course>229.13</course>
  <speed>4.37</speed>
  <fix>3d</fix>
</trkpt>
<trkpt lat="40.073561" lon="-105.2292922">
  <ele>1600.49</ele>
  <time>2026-08-28T19:07:52Z</time>
  <course>232.09</course>
  <speed>4.591002069265489</speed>
  <fix>3d</fix>
</trkpt>
<trkpt lat="40.0735639" lon="-105.2292866">
  <ele>1600.64</ele>
  <time>2026-08-28T19:07:52Z</time>
  <course>232.69</course>
  <speed>4.51</speed>
  <fix>3d</fix>
</trkpt>
<trkpt lat="40.0735565" lon="-105.2293013">
  <ele>1600.27</ele>
  <time>2026-08-28T19:07:52Z</time>
  <course>235.44</course>
  <speed>4.719661004775661</speed>
  <fix>3d</fix>
</trkpt>
<trkpt lat="40.0735592" lon="-105.2292954">
  <ele>1600.41</ele>
  <time>2026-08-28T19:07:52Z</time>
  <course>236.31</course>
  <speed>4.64</speed>
  <fix>3d</fix>
</trkpt>
<trkpt lat="40.0735522" lon="-105.229311">
  <ele>1600.07</ele>
  <time>2026-08-28T19:07:52Z</time>
  <course>239.02</course>
  <speed>4.826106090835551</speed>
  <fix>3d</fix>
</trkpt>
<trkpt lat="40.0735547" lon="-105.2293048">
  <ele>1600.2</ele>
  <time>2026-08-28T19:07:52Z</time>
  <course>239.95</course>
  <speed>4.76</speed>
  <fix>3d</fix>
</trkpt>
<trkpt lat="40.0735484" lon="-105.2293213">
  <ele>1599.91</ele>
  <time>2026-08-28T19:07:52Z</time>
  <course>242.74</course>
  <speed>4.898040424496311</speed>
  <fix>3d</fix>
</trkpt>
<trkpt lat="40.0735506" lon="-105.2293148">
  <ele>1600.01</ele>
  <time>2026-08-28T19:07:52Z</time>
  <course>243.56</course>
  <speed>4.86</speed>
  <fix>3d</fix>
</trkpt>
<trkpt lat="40.073545" lon="-105.229332">
  <ele>1599.77</ele>
  <time>2026-08-28T19:07:52Z</time>
  <course>246.4</course>
  <speed>4.935686375773891</speed>
  <fix>3d</fix>
</trkpt>
<trkpt lat="40.073547" lon="-105.2293252">
  <ele>1599.85</ele>
  <time>2026-08-28T19:07:52Z</time>
  <course>247.13</course>
  <speed>4.92</speed>
  <fix>3d</fix>
</trkpt>
<trkpt lat="40.0735422" lon="-105.229343">
  <ele>1599.65</ele>
  <time>2026-08-28T19:07:52Z</time>
  <course>249.99</course>
  <speed>4.9605846429629645</speed>
  <fix>3d</fix>
</trkpt>
<trkpt lat="40.0735437" lon="-105.2293361">
  <ele>1599.71</ele>
  <time>2026-08-28T19:07:52Z</time>
  <course>250.69</course>
  <speed>4.96</speed>
  <fix>3d</fix>
</trkpt>
<trkpt lat="40.0735398" lon="-105.2293543">
  <ele>1599.55</ele>
  <time>2026-08-28T19:07:52Z</time>
  <course>253.59</course>
  <speed>4.962710952695109</speed>
  <fix>3d</fix>
</trkpt>
<trkpt lat="40.0735411" lon="-105.2293472">
  <ele>1599.6</ele>
  <time>2026-08-28T19:07:52Z</time>
  <course>254.24</course>
  <speed>4.97</speed>
  <fix>3d</fix>
</trkpt>
<trkpt lat="40.073538" lon="-105.2293658">
  <ele>1599.46</ele>
  <time>2026-08-28T19:07:52Z</time>
  <course>257.16</course>
  <speed>4.950080807421228</speed>
  <fix>3d</fix>
</trkpt>
<trkpt lat="40.0735389" lon="-105.2293586">
  <ele>1599.5</ele>
  <time>2026-08-28T19:07:52Z</time>
  <course>257.79</course>
  <speed>4.97</speed>
  <fix>3d</fix>
</trkpt>
<trkpt lat="40.0735367" lon="-105.2293773">
  <ele>1599.4</ele>
  <time>2026-08-28T19:07:52Z</time>
  <course>260.69</course>
  <speed>4.938522046118656</speed>
  <fix>3d</fix>
</trkpt>
<trkpt lat="40.0735373" lon="-105.22937">
  <ele>1599.42</ele>
  <time>2026-08-28T19:07:52Z</time>
  <course>261.32</course>
  <speed>4.96</speed>
  <fix>3d</fix>
</trkpt>
<trkpt lat="40.073536" lon="-105.2293888">
  <ele>1599.36</ele>
  <time>2026-08-28T19:07:52Z</time>
  <course>264.15</course>
  <speed>4.905394989193021</speed>
  <fix>3d</fix>
</trkpt>
<trkpt lat="40.0735361" lon="-105.2293816">
  <ele>1599.37</ele>
  <time>2026-08-28T19:07:52Z</time>
  <course>264.83</course>
  <speed>4.93</speed>
  <fix>3d</fix>
</trkpt>
<trkpt lat="40.0735358" lon="-105.2294003">
  <ele>1599.34</ele>
  <time>2026-08-28T19:07:52Z</time>
  <course>267.57</course>
  <speed>4.8702566667476574</speed>
  <fix>3d</fix>
</trkpt>
<trkpt lat="40.0735356" lon="-105.2293931">
  <ele>1599.34</ele>
  <time>2026-08-28T19:07:52Z</time>
  <course>268.29</course>
  <speed>4.9</speed>
  <fix>3d</fix>
</trkpt>
<trkpt lat="40.073536" lon="-105.2294117">
  <ele>1599.34</ele>
  <time>2026-08-28T19:07:52Z</time>
  <course>270.92</course>
  <speed>4.831283473363988</speed>
  <fix>3d</fix>
</trkpt>
<trkpt lat="40.0735356" lon="-105.2294046">
  <ele>1599.32</ele>
  <time>2026-08-28T19:07:52Z</time>
  <course>271.7</course>
  <speed>4.86</speed>
  <fix>3d</fix>
</trkpt>
<trkpt lat="40.0735368" lon="-105.229423">
  <ele>1599.36</ele>
  <time>2026-08-28T19:07:52Z</time>
  <course>274.22</course>
  <speed>4.777823772388429</speed>
  <fix>3d</fix>
</trkpt>
<trkpt lat="40.0735361" lon="-105.2294159">
  <ele>1599.32</ele>
  <time>2026-08-28T19:07:52Z</time>
  <course>275.04</course>
  <speed>4.81</speed>
  <fix>3d</fix>
</trkpt>
<trkpt lat="40.0735381" lon="-105.229434">
  <ele>1599.4</ele>
  <time>2026-08-28T19:07:52Z</time>
  <course>277.45</course>
  <speed>4.719025323093742</speed>
  <fix>3d</fix>
</trkpt>
<trkpt lat="40.0735371" lon="-105.2294271">
  <ele>1599.34</ele>
  <time>2026-08-28T19:07:52Z</time>
  <course>278.33</course>
  <speed>4.76</speed>
  <fix>3d</fix>
</trkpt>
<trkpt lat="40.0735399" lon="-105.2294449">
  <ele>1599.46</ele>
  <time>2026-08-28T19:07:52Z</time>
  <course>280.59</course>
  <speed>4.661641341845166</speed>
  <fix>3d</fix>
</trkpt>
<trkpt lat="40.0735386" lon="-105.229438">
  <ele>1599.38</ele>
  <time>2026-08-28T19:07:52Z</time>
  <course>281.55</course>
  <speed>4.7</speed>
  <fix>3d</fix>
</trkpt>
<trkpt lat="40.073542" lon="-105.2294554">
  <ele>1599.54</ele>
  <time>2026-08-28T19:07:52Z</time>
  <course>283.64</course>
  <speed>4.593734863920642</speed>
  <fix>3d</fix>
</trkpt>
<trkpt lat="40.0735405" lon="-105.2294488">
  <ele>1599.44</ele>
  <time>2026-08-28T19:07:52Z</time>
  <course>284.7</course>
  <speed>4.64</speed>
  <fix>3d</fix>
</trkpt>
<trkpt lat="40.0735446" lon="-105.2294655">
  <ele>1599.64</ele>
  <time>2026-08-28T19:07:52Z</time>
  <course>286.65</course>
  <speed>4.52642242836437</speed>
  <fix>3d</fix>
</trkpt>
<trkpt lat="40.0735428" lon="-105.2294591">
  <ele>1599.51</ele>
  <time>2026-08-28T19:07:52Z</time>
  <course>287.79</course>
  <speed>4.57</speed>
  <fix>3d</fix>
</trkpt>
<trkpt lat="40.0735475" lon="-105.2294753">
  <ele>1599.75</ele>
  <time>2026-08-28T19:07:52Z</time>
  <course>289.55</course>
  <speed>4.464616444891991</speed>
  <fix>3d</fix>
</trkpt>
<trkpt lat="40.0735455" lon="-105.2294692">
  <ele>1599.61</ele>
  <time>2026-08-28T19:07:52Z</time>
  <course>290.83</course>
  <speed>4.51</speed>
  <fix>3d</fix>
</trkpt>
<trkpt lat="40.0735507" lon="-105.2294848">
  <ele>1599.88</ele>
  <time>2026-08-28T19:07:52Z</time>
  <course>292.42</course>
  <speed>4.392220395198765</speed>
  <fix>3d</fix>
</trkpt>
<trkpt lat="40.0735485" lon="-105.2294789">
  <ele>1599.72</ele>
  <time>2026-08-28T19:07:52Z</time>
  <course>293.82</course>
  <speed>4.44</speed>
  <fix>3d</fix>
</trkpt>
<trkpt lat="40.0735542" lon="-105.2294939">
  <ele>1600.04</ele>
  <time>2026-08-28T19:07:52Z</time>
  <course>295.26</course>
  <speed>4.336011992603342</speed>
  <fix>3d</fix>
</trkpt>
<trkpt lat="40.073552" lon="-105.2294882">
  <ele>1599.86</ele>
  <time>2026-08-28T19:07:52Z</time>
  <course>296.79</course>
  <speed>4.38</speed>
  <fix>3d</fix>
</trkpt>
<trkpt lat="40.0735581" lon="-105.2295027">
  <ele>1600.21</ele>
  <time>2026-08-28T19:07:52Z</time>
  <course>298.06</course>
  <speed>4.282534296418419</speed>
  <fix>3d</fix>
</trkpt>
<trkpt lat="40.0735557" lon="-105.2294972">
  <ele>1600.01</ele>
  <time>2026-08-28T19:07:52Z</time>
  <course>299.73</course>
  <speed>4.32</speed>
  <fix>3d</fix>
</trkpt>
<trkpt lat="40.0735623" lon="-105.229511">
  <ele>1600.4</ele>
  <time>2026-08-28T19:07:52Z</time>
  <course>300.84</course>
  <speed>4.229917256873945</speed>
  <fix>3d</fix>
</trkpt>
<trkpt lat="40.0735596" lon="-105.2295058">
  <ele>1600.17</ele>
  <time>2026-08-28T19:07:52Z</time>
  <course>302.67</course>
  <speed>4.27</speed>
  <fix>3d</fix>
</trkpt>
<trkpt lat="40.0735667" lon="-105.229519">
  <ele>1600.61</ele>
  <time>2026-08-28T19:07:52Z</time>
  <course>303.6</course>
  <speed>4.202154209450196</speed>
  <fix>3d</fix>
</trkpt>
<trkpt lat="40.0735639" lon="-105.2295141">
  <ele>1600.37</ele>
  <time>2026-08-28T19:07:52Z</time>
  <course>305.61</course>
  <speed>4.22</speed>
  <fix>3d</fix>
</trkpt>
<trkpt lat="40.0735714" lon="-105.2295267">
  <ele>1600.84</ele>
  <time>2026-08-28T19:07:52Z</time>
  <course>306.24</course>
  <speed>4.178097653238852</speed>
  <fix>3d</fix>
</trkpt>
<trkpt lat="40.0735685" lon="-105.229522">
  <ele>1600.58</ele>
  <time>2026-08-28T19:07:52Z</time>
  <course>308.58</course>
  <speed>4.19</speed>
  <fix>3d</fix>
</trkpt>
<trkpt lat="40.0735764" lon="-105.229534">
  <ele>1601.1</ele>
  <time>2026-08-28T19:07:52Z</time>
  <course>309.22</course>
  <speed>4.145189983583382</speed>
  <fix>3d</fix>
</trkpt>
<trkpt lat="40.0735733" lon="-105.2295295">
  <ele>1600.82</ele>
  <time>2026-08-28T19:07:52Z</time>
  <course>311.58</course>
  <speed>4.17</speed>
  <fix>3d</fix>
</trkpt>
<trkpt lat="40.0735816" lon="-105.2295408">
  <ele>1601.37</ele>
  <time>2026-08-28T19:07:52Z</time>
  <course>312.34</course>
  <speed>4.09552194475869</speed>
  <fix>3d</fix>
</trkpt>
<trkpt lat="40.0735784" lon="-105.2295366">
  <ele>1601.07</ele>
  <time>2026-08-28T19:07:52Z</time>
  <course>314.62</course>
  <speed>4.13</speed>
  <fix>3d</fix>
</trkpt>
<trkpt lat="40.0735871" lon="-105.2295472">
  <ele>1601.66</ele>
  <time>2026-08-28T19:07:52Z</time>
  <course>315.53</course>
  <speed>4.037140076836572</speed>
  <fix>3d</fix>
</trkpt>
<trkpt lat="40.0735837" lon="-105.2295433">
  <ele>1601.35</ele>
  <time>2026-08-28T19:07:52Z</time>
  <course>317.75</course>
  <speed>4.08</speed>
  <fix>3d</fix>
</trkpt>
<trkpt lat="40.0735927" lon="-105.229553">
  <ele>1601.97</ele>
  <time>2026-08-28T19:07:52Z</time>
  <course>318.89</course>
  <speed>3.978002011060326</speed>
  <fix>3d</fix>
</trkpt>
<trkpt lat="40.0735892" lon="-105.2295495">
  <ele>1601.64</ele>
  <time>2026-08-28T19:07:52Z</time>
  <course>321.02</course>
  <speed>4.02</speed>
  <fix>3d</fix>
</trkpt>
<trkpt lat="40.0735986" lon="-105.2295584">
  <ele>1602.29</ele>
  <time>2026-08-28T19:07:52Z</time>
  <course>322.35</course>
  <speed>3.9273400667627447</speed>
  <fix>3d</fix>
</trkpt>
<trkpt lat="40.073595" lon="-105.2295552">
  <ele>1601.94</ele>
  <time>2026-08-28T19:07:52Z</time>
  <course>324.47</course>
  <speed>3.96</speed>
  <fix>3d</fix>
</trkpt>
<trkpt lat="40.0736046" lon="-105.2295632">
  <ele>1602.61</ele>
  <time>2026-08-28T19:07:52Z</time>
  <course>325.95</course>
  <speed>3.8959594453741433</speed>
  <fix>3d</fix>
</trkpt>
<trkpt lat="40.0736008" lon="-105.2295604">
  <ele>1602.26</ele>
  <time>2026-08-28T19:07:52Z</time>
  <course>328.08</course>
  <speed>3.92</speed>
  <fix>3d</fix>
</trkpt>
<trkpt lat="40.0736108" lon="-105.2295675">
  <ele>1602.94</ele>
  <time>2026-08-28T19:07:52Z</time>
  <course>329.62</course>
  <speed>3.8733060813728626</speed>
  <fix>3d</fix>
</trkpt>
<trkpt lat="40.0736069" lon="-105.2295649">
  <ele>1602.58</ele>
  <time>2026-08-28T19:07:52Z</time>
  <course>331.81</course>
  <speed>3.88</speed>
  <fix>3d</fix>
</trkpt>
<trkpt lat="40.0736171" lon="-105.2295711">
  <ele>1603.29</ele>
  <time>2026-08-28T19:07:52Z</time>
  <course>333.32</course>
  <speed>3.8717696212455617</speed>
  <fix>3d</fix>
</trkpt>
<trkpt lat="40.0736132" lon="-105.229569">
  <ele>1602.91</ele>
  <time>2026-08-28T19:07:52Z</time>
  <course>335.64</course>
  <speed>3.87</speed>
  <fix>3d</fix>
</trkpt>
<trkpt lat="40.0736237" lon="-105.2295743">
  <ele>1603.64</ele>
  <time>2026-08-28T19:07:52Z</time>
  <course>337.04</course>
  <speed>3.8928267364474367</speed>
  <fix>3d</fix>
</trkpt>
<trkpt lat="40.0736196" lon="-105.2295724">
  <ele>1603.26</ele>
  <time>2026-08-28T19:07:52Z</time>
  <course>339.49</course>
  <speed>3.87</speed>
  <fix>3d</fix>
</trkpt>
<trkpt lat="40.0736304" lon="-105.2295768">
  <ele>1604.01</ele>
  <time>2026-08-28T19:07:52Z</time>
  <course>340.7</course>
  <speed>3.9218490536990327</speed>
  <fix>3d</fix>
</trkpt>
<trkpt lat="40.0736262" lon="-105.2295753">
  <ele>1603.62</ele>
  <time>2026-08-28T19:07:52Z</time>
  <course>343.32</course>
  <speed>3.89</speed>
  <fix>3d</fix>
</trkpt>
<trkpt lat="40.0736374" lon="-105.2295788">
  <ele>1604.39</ele>
  <time>2026-08-28T19:07:52Z</time>
  <course>344.29</course>
  <speed>3.9775620673975665</speed>
  <fix>3d</fix>
</trkpt>
<trkpt lat="40.073633" lon="-105.2295776">
  <ele>1603.99</ele>
  <time>2026-08-28T19:07:52Z</time>
  <course>347.1</course>
  <speed>3.93</speed>
  <fix>3d</fix>
</trkpt>
<trkpt lat="40.0736445" lon="-105.2295802">
  <ele>1604.79</ele>
  <time>2026-08-28T19:07:52Z</time>
  <course>347.47</course>
  <speed>4.039826728957568</speed>
  <fix>3d</fix>
</trkpt>
<trkpt lat="40.07364" lon="-105.2295794">
  <ele>1604.37</ele>
  <time>2026-08-28T19:07:52Z</time>
  <course>350.78</course>
  <speed>3.99</speed>
  <fix>3d</fix>
</trkpt>
<trkpt lat="40.0736517" lon="-105.2295811">
  <ele>1605.18</ele>
  <time>2026-08-28T19:07:52Z</time>
  <course>351.39</course>
  <speed>4.049012225222344</speed>
  <fix>3d</fix>
</trkpt>
<trkpt lat="40.0736472" lon="-105.2295807">
  <ele>1604.76</ele>
  <time>2026-08-28T19:07:52Z</time>
  <course>354.24</course>
  <speed>4.04</speed>
  <fix>3d</fix>
</trkpt>
<trkpt lat="40.0736589" lon="-105.2295815">
  <ele>1605.58</ele>
  <time>2026-08-28T19:07:52Z</time>
  <course>355.34</course>
  <speed>3.970314848976086</speed>
  <fix>3d</fix>
</trkpt>
<trkpt lat="40.0736544" lon="-105.2295814">
  <ele>1605.15</ele>
  <time>2026-08-28T19:07:52Z</time>
  <course>357.42</course>
  <speed>4.02</speed>
  <fix>3d</fix>
</trkpt>
<trkpt lat="40.073666" lon="-105.2295814">
  <ele>1605.95</ele>
  <time>2026-08-28T19:07:52Z</time>
  <course>359.16</course>
  <speed>3.8329362113137235</speed>
  <fix>3d</fix>
</trkpt>
<trkpt lat="40.0736616" lon="-105.2295815">
  <ele>1605.54</ele>
  <time>2026-08-28T19:07:52Z</time>
  <course>0.47</course>
  <speed>3.93</speed>
  <fix>3d</fix>
</trkpt>
<trkpt lat="40.0736727" lon="-105.2295807">
  <ele>1606.3</ele>
  <time>2026-08-28T19:07:52Z</time>
  <course>2.91</course>
  <speed>3.6667424234598207</speed>
  <fix>3d</fix>
</trkpt>
<trkpt lat="40.0736686" lon="-105.2295812">
  <ele>1605.9</ele>
  <time>2026-08-28T19:07:52Z</time>
  <course>3.58</course>
  <speed>3.79</speed>
  <fix>3d</fix>
</trkpt>
<trkpt lat="40.0736791" lon="-105.2295798">
  <ele>1606.62</ele>
  <time>2026-08-28T19:07:52Z</time>
  <course>7.33</course>
  <speed>3.482125787503949</speed>
  <fix>3d</fix>
</trkpt>
<trkpt lat="40.0736751" lon="-105.2295805">
  <ele>1606.25</ele>
  <time>2026-08-28T19:07:52Z</time>
  <course>6.81</course>
  <speed>3.62</speed>
  <fix>3d</fix>
</trkpt>
<trkpt lat="40.0736852" lon="-105.2295782">
  <ele>1606.91</ele>
  <time>2026-08-28T19:07:52Z</time>
  <course>10.85</course>
  <speed>3.3571565349265438</speed>
  <fix>3d</fix>
</trkpt>
<trkpt lat="40.0736814" lon="-105.2295793">
  <ele>1606.56</ele>
  <time>2026-08-28T19:07:52Z</time>
  <course>10.47</course>
  <speed>3.45</speed>
  <fix>3d</fix>
</trkpt>
<trkpt lat="40.073691" lon="-105.2295761">
  <ele>1607.18</ele>
  <time>2026-08-28T19:07:52Z</time>
  <course>14.61</course>
  <speed>3.3616811270553306</speed>
  <fix>3d</fix>
</trkpt>
<trkpt lat="40.0736874" lon="-105.2295776">
  <ele>1606.85</ele>
  <time>2026-08-28T19:07:52Z</time>
  <course>14.86</course>
  <speed>3.36</speed>
  <fix>3d</fix>
</trkpt>
<trkpt lat="40.0736968" lon="-105.2295733">
  <ele>1607.45</ele>
  <time>2026-08-28T19:07:52Z</time>
  <course>18.74</course>
  <speed>3.496927222576987</speed>
  <fix>3d</fix>
</trkpt>
<trkpt lat="40.0736932" lon="-105.2295752">
  <ele>1607.12</ele>
  <time>2026-08-28T19:07:52Z</time>
  <course>19.64</course>
  <speed>3.4</speed>
  <fix>3d</fix>
</trkpt>
<trkpt lat="40.0737027" lon="-105.2295698">
  <ele>1607.72</ele>
  <time>2026-08-28T19:07:52Z</time>
  <course>22.61</course>
  <speed>3.711872842649651</speed>
  <fix>3d</fix>
</trkpt>
<trkpt lat="40.073699" lon="-105.2295721">
  <ele>1607.38</ele>
  <time>2026-08-28T19:07:52Z</time>
  <course>24.13</course>
  <speed>3.54</speed>
  <fix>3d</fix>
</trkpt>
<trkpt lat="40.0737088" lon="-105.2295655">
  <ele>1608.0</ele>
  <time>2026-08-28T19:07:52Z</time>
  <course>25.65</course>
  <speed>3.9902130268946796</speed>
  <fix>3d</fix>
</trkpt>
<trkpt lat="40.0737048" lon="-105.2295684">
  <ele>1607.65</ele>
  <time>2026-08-28T19:07:52Z</time>
  <course>27.82</course>
  <speed>3.78</speed>
  <fix>3d</fix>
</trkpt>
<trkpt lat="40.0737152" lon="-105.2295605">
  <ele>1608.28</ele>
  <time>2026-08-28T19:07:52Z</time>
  <course>27.81</course>
  <speed>4.293029233536617</speed>
  <fix>3d</fix>
</trkpt>
<trkpt lat="40.073711" lon="-105.2295639">
  <ele>1607.92</ele>
  <time>2026-08-28T19:07:52Z</time>
  <course>30.59</course>
  <speed>4.06</speed>
  <fix>3d</fix>
</trkpt>
<trkpt lat="40.0737219" lon="-105.2295549">
  <ele>1608.57</ele>
  <time>2026-08-28T19:07:52Z</time>
  <course>29.32</course>
  <speed>4.606886150101824</speed>
  <fix>3d</fix>
</trkpt>
<trkpt lat="40.0737175" lon="-105.2295586">
  <ele>1608.21</ele>
  <time>2026-08-28T19:07:52Z</time>
  <course>32.61</course>
  <speed>4.36</speed>
  <fix>3d</fix>
</trkpt>
<trkpt lat="40.0737289" lon="-105.2295487">
  <ele>1608.88</ele>
  <time>2026-08-28T19:07:52Z</time>
  <course>30.43</course>
  <speed>4.931896187066391</speed>
  <fix>3d</fix>
</trkpt>
<trkpt lat="40.0737242" lon="-105.2295528">
  <ele>1608.51</ele>
  <time>2026-08-28T19:07:52Z</time>
  <course>34.09</course>
  <speed>4.69</speed>
  <fix>3d</fix>
</trkpt>
<trkpt lat="40.0737364" lon="-105.2295418">
  <ele>1609.19</ele>
  <time>2026-08-28T19:07:52Z</time>
  <course>31.34</course>
  <speed>5.261368643233432</speed>
  <fix>3d</fix>
</trkpt>
<trkpt lat="40.0737315" lon="-105.2295464">
  <ele>1608.81</ele>
  <time>2026-08-28T19:07:52Z</time>
  <course>35.21</course>
  <speed>5.02</speed>
  <fix>3d</fix>
</trkpt>
<trkpt lat="40.0737442" lon="-105.2295344">
  <ele>1609.51</ele>
  <time>2026-08-28T19:07:52Z</time>
  <course>32.06</course>
  <speed>5.6002232098372655</speed>
  <fix>3d</fix>
</trkpt>
<trkpt lat="40.073739" lon="-105.2295392">
  <ele>1609.12</ele>
  <time>2026-08-28T19:07:52Z</time>
  <course>36.1</course>
  <speed>5.35</speed>
  <fix>3d</fix>
</trkpt>
<trkpt lat="40.0737524" lon="-105.2295263">
  <ele>1609.82</ele>
  <time>2026-08-28T19:07:52Z</time>
  <course>32.66</course>
  <speed>5.934012133455744</speed>
  <fix>3d</fix>
</trkpt>
<trkpt lat="40.073747" lon="-105.2295314">
  <ele>1609.43</ele>
  <time>2026-08-28T19:07:52Z</time>
  <course>36.82</course>
  <speed>5.69</speed>
  <fix>3d</fix>
</trkpt>
<trkpt lat="40.0737611" lon="-105.2295176">
  <ele>1610.13</ele>
  <time>2026-08-28T19:07:52Z</time>
  <course>33.17</course>
  <speed>6.260511161239152</speed>
  <fix>3d</fix>
</trkpt>
<trkpt lat="40.0737553" lon="-105.2295231">
  <ele>1609.74</ele>
  <time>2026-08-28T19:07:52Z</time>
  <course>37.43</course>
  <speed>6.03</speed>
  <fix>3d</fix>
</trkpt>
<trkpt lat="40.0737701" lon="-105.2295084">
  <ele>1610.44</ele>
  <time>2026-08-28T19:07:52Z</time>
  <course>33.6</course>
  <speed>6.587662711462997</speed>
  <fix>3d</fix>
</trkpt>
<trkpt lat="40.0737642" lon="-105.2295143">
  <ele>1610.05</ele>
  <time>2026-08-28T19:07:52Z</time>
  <course>37.96</course>
  <speed>6.36</speed>
  <fix>3d</fix>
</trkpt>
<trkpt lat="40.0737796" lon="-105.2294985">
  <ele>1610.74</ele>
  <time>2026-08-28T19:07:52Z</time>
  <course>34.01</course>
  <speed>6.909131638635929</speed>
  <fix>3d</fix>
</trkpt>
<trkpt lat="40.0737735" lon="-105.2295048">
  <ele>1610.35</ele>
  <time>2026-08-28T19:07:52Z</time>
  <course>38.44</course>
  <speed>6.69</speed>
  <fix>3d</fix>
</trkpt>
<trkpt lat="40.0737894" lon="-105.2294881">
  <ele>1611.04</ele>
  <time>2026-08-28T19:07:52Z</time>
  <course>34.4</course>
  <speed>7.215434844830907</speed>
  <fix>3d</fix>
</trkpt>
<trkpt lat="40.0737831" lon="-105.2294947">
  <ele>1610.66</ele>
  <time>2026-08-28T19:07:52Z</time>
  <course>38.9</course>
  <speed>7.01</speed>
  <fix>3d</fix>
</trkpt>
<trkpt lat="40.0737997" lon="-105.2294771">
  <ele>1611.35</ele>
  <time>2026-08-28T19:07:52Z</time>
  <course>34.84</course>
  <speed>7.5081622252053135</speed>
  <fix>3d</fix>
</trkpt>
<trkpt lat="40.0737931" lon="-105.2294841">
  <ele>1610.96</ele>
  <time>2026-08-28T19:07:52Z</time>
  <course>39.34</course>
  <speed>7.32</speed>
  <fix>3d</fix>
</trkpt>
<trkpt lat="40.0738102" lon="-105.2294656">
  <ele>1611.65</ele>
  <time>2026-08-28T19:07:52Z</time>
  <course>35.27</course>
  <speed>7.800083332888181</speed>
  <fix>3d</fix>
</trkpt>
<trkpt lat="40.0738034" lon="-105.2294729">
  <ele>1611.26</ele>
  <time>2026-08-28T19:07:52Z</time>
  <course>39.8</course>
  <speed>7.62</speed>
  <fix>3d</fix>
</trkpt>
<trkpt lat="40.0738211" lon="-105.2294535">
  <ele>1611.95</ele>
  <time>2026-08-28T19:07:52Z</time>
  <course>35.75</course>
  <speed>8.064397063637182</speed>
  <fix>3d</fix>
</trkpt>
<trkpt lat="40.0738141" lon="-105.2294612">
  <ele>1611.56</ele>
  <time>2026-08-28T19:07:52Z</time>
  <course>40.26</course>
  <speed>7.9</speed>
  <fix>3d</fix>
</trkpt>
<trkpt lat="40.0738323" lon="-105.2294409">
  <ele>1612.26</ele>
  <time>2026-08-28T19:07:52Z</time>
  <course>36.27</course>
  <speed>8.328223099797459</speed>
  <fix>3d</fix>
</trkpt>
<trkpt lat="40.0738251" lon="-105.2294489">
  <ele>1611.86</ele>
  <time>2026-08-28T19:07:52Z</time>
  <course>40.75</course>
  <speed>8.17</speed>
  <fix>3d</fix>
</trkpt>
<trkpt lat="40.0738437" lon="-105.2294277">
  <ele>1612.56</ele>
  <time>2026-08-28T19:07:52Z</time>
  <course>36.75</course>
  <speed>8.571125947038697</speed>
  <fix>3d</fix>
</trkpt>
<trkpt lat="40.0738364" lon="-105.2294361">
  <ele>1612.16</ele>
  <time>2026-08-28T19:07:52Z</time>
  <course>41.25</course>
  <speed>8.43</speed>
  <fix>3d</fix>
</trkpt>
<trkpt lat="40.0738553" lon="-105.2294141">
  <ele>1612.87</ele>
  <time>2026-08-28T19:07:52Z</time>
  <course>37.28</course>
  <speed>8.821451127790711</speed>
  <fix>3d</fix>
</trkpt>
<trkpt lat="40.0738479" lon="-105.2294228">
  <ele>1612.47</ele>
  <time>2026-08-28T19:07:52Z</time>
  <course>41.75</course>
  <speed>8.68</speed>
  <fix>3d</fix>
</trkpt>
<trkpt lat="40.0738672" lon="-105.2293999">
  <ele>1613.18</ele>
  <time>2026-08-28T19:07:52Z</time>
  <course>37.75</course>
  <speed>9.051657306814041</speed>
  <fix>3d</fix>
</trkpt>
<trkpt lat="40.0738596" lon="-105.229409">
  <ele>1612.78</ele>
  <time>2026-08-28T19:07:52Z</time>
  <course>42.26</course>
  <speed>8.92</speed>
  <fix>3d</fix>
</trkpt>
<trkpt lat="40.0738793" lon="-105.2293853">
  <ele>1613.48</ele>
  <time>2026-08-28T19:07:52Z</time>
  <course>38.19</course>
  <speed>9.28928953149809</speed>
  <fix>3d</fix>
</trkpt>
<trkpt lat="40.0738716" lon="-105.2293946">
  <ele>1613.09</ele>
  <time>2026-08-28T19:07:52Z</time>
  <course>42.76</course>
  <speed>9.16</speed>
  <fix>3d</fix>
</trkpt>
<trkpt lat="40.0738916" lon="-105.2293701">
  <ele>1613.8</ele>
  <time>2026-08-28T19:07:52Z</time>
  <course>38.6</course>
  <speed>9.520346632344854</speed>
  <fix>3d</fix>
</trkpt>
<trkpt lat="40.0738838" lon="-105.2293797">
  <ele>1613.4</ele>
  <time>2026-08-28T19:07:52Z</time>
  <course>43.25</course>
  <speed>9.39</speed>
  <fix>3d</fix>
</trkpt>
<trkpt lat="40.0739041" lon="-105.2293544">
  <ele>1614.12</ele>
  <time>2026-08-28T19:07:53Z</time>
  <course>38.97</course>
  <speed>9.74517316418749</speed>
  <fix>3d</fix>
</trkpt>
<trkpt lat="40.0738962" lon="-105.2293644">
  <ele>1613.72</ele>
  <time>2026-08-28T19:07:53Z</time>
  <course>43.72</course>
  <speed>9.62</speed>
  <fix>3d</fix>
</trkpt>
<trkpt lat="40.0739169" lon="-105.2293381">
  <ele>1614.45</ele>
  <time>2026-08-28T19:07:53Z</time>
  <course>39.29</course>
  <speed>9.97770013580284</speed>
  <fix>3d</fix>
</trkpt>
<trkpt lat="40.0739088" lon="-105.2293485">
  <ele>1614.04</ele>
  <time>2026-08-28T19:07:53Z</time>
  <course>44.16</course>
  <speed>9.85</speed>
  <fix>3d</fix>
</trkpt>
<trkpt lat="40.0739297" lon="-105.2293215">
  <ele>1614.78</ele>
  <time>2026-08-28T19:07:53Z</time>
  <course>39.44</course>
  <speed>10.196519013859582</speed>
  <fix>3d</fix>
</trkpt>
<trkpt lat="40.0739216" lon="-105.2293321">
  <ele>1614.36</ele>
  <time>2026-08-28T19:07:53Z</time>
  <course>44.56</course>
  <speed>10.08</speed>
  <fix>3d</fix>
</trkpt>
<trkpt lat="40.0739428" lon="-105.2293045">
  <ele>1615.12</ele>
  <time>2026-08-28T19:07:53Z</time>
  <course>39.83</course>
  <speed>10.387458784515104</speed>
  <fix>3d</fix>
</trkpt>
<trkpt lat="40.0739346" lon="-105.2293153">
  <ele>1614.7</ele>
  <time>2026-08-28T19:07:53Z</time>
  <course>44.91</course>
  <speed>10.29</speed>
  <fix>3d</fix>
</trkpt>
<trkpt lat="40.073956" lon="-105.2292871">
  <ele>1615.48</ele>
  <time>2026-08-28T19:07:53Z</time>
  <course>40.73</course>
  <speed>10.493807697875924</speed>
  <fix>3d</fix>
</trkpt>
<trkpt lat="40.0739478" lon="-105.229298">
  <ele>1615.05</ele>
  <time>2026-08-28T19:07:53Z</time>
  <course>45.21</course>
  <speed>10.46</speed>
  <fix>3d</fix>
</trkpt>
<trkpt lat="40.0739693" lon="-105.2292694">
  <ele>1615.85</ele>
  <time>2026-08-28T19:07:53Z</time>
  <course>41.88</course>
  <speed>10.522518709890708</speed>
  <fix>3d</fix>
</trkpt>
<trkpt lat="40.0739611" lon="-105.2292804">
  <ele>1615.4</ele>
  <time>2026-08-28T19:07:53Z</time>
  <course>45.46</course>
  <speed>10.55</speed>
  <fix>3d</fix>
</trkpt>
<trkpt lat="40.0739824" lon="-105.2292517">
  <ele>1616.23</ele>
  <time>2026-08-28T19:07:53Z</time>
  <course>42.99</course>
  <speed>10.509215003985787</speed>
  <fix>3d</fix>
</trkpt>
<trkpt lat="40.0739744" lon="-105.2292627">
  <ele>1615.78</ele>
  <time>2026-08-28T19:07:53Z</time>
  <course>45.72</course>
  <speed>10.58</speed>
  <fix>3d</fix>
</trkpt>
<trkpt lat="40.0739955" lon="-105.229234">
  <ele>1616.6</ele>
  <time>2026-08-28T19:07:53Z</time>
  <course>43.93</course>
  <speed>10.460712212846694</speed>
  <fix>3d</fix>
</trkpt>
<trkpt lat="40.0739875" lon="-105.2292449">
  <ele>1616.15</ele>
  <time>2026-08-28T19:07:53Z</time>
  <course>46.02</course>
  <speed>10.55</speed>
  <fix>3d</fix>
</trkpt>
<trkpt lat="40.0740085" lon="-105.2292162">
  <ele>1616.97</ele>
  <time>2026-08-28T19:07:53Z</time>
  <course>44.67</course>
  <speed>10.39831717154271</speed>
  <fix>3d</fix>
</trkpt>
<trkpt lat="40.0740007" lon="-105.2292271">
  <ele>1616.52</ele>
  <time>2026-08-28T19:07:53Z</time>
  <course>46.32</course>
  <speed>10.5</speed>
  <fix>3d</fix>
</trkpt>
<trkpt lat="40.0740213" lon="-105.2291984">
  <ele>1617.32</ele>
  <time>2026-08-28T19:07:53Z</time>
  <course>45.22</course>
  <speed>10.322039527147725</speed>
  <fix>3d</fix>
</trkpt>
<trkpt lat="40.0740136" lon="-105.2292092">
  <ele>1616.88</ele>
  <time>2026-08-28T19:07:53Z</time>
  <course>46.59</course>
  <speed>10.43</speed>
  <fix>3d</fix>
</trkpt>
<trkpt lat="40.074034" lon="-105.2291808">
  <ele>1617.68</ele>
  <time>2026-08-28T19:07:53Z</time>
  <course>45.57</course>
  <speed>10.237699936997569</speed>
  <fix>3d</fix>
</trkpt>
<trkpt lat="40.0740264" lon="-105.2291915">
  <ele>1617.25</ele>
  <time>2026-08-28T19:07:53Z</time>
  <course>46.79</course>
  <speed>10.35</speed>
  <fix>3d</fix>
</trkpt>
<trkpt lat="40.0740466" lon="-105.2291631">
  <ele>1618.04</ele>
  <time>2026-08-28T19:07:53Z</time>
  <course>45.78</course>
  <speed>10.138762251872759</speed>
  <fix>3d</fix>
</trkpt>
<trkpt lat="40.074039" lon="-105.2291738">
  <ele>1617.6</ele>
  <time>2026-08-28T19:07:53Z</time>
  <course>46.89</course>
  <speed>10.26</speed>
  <fix>3d</fix>
</trkpt>
<trkpt lat="40.0740591" lon="-105.2291458">
  <ele>1618.41</ele>
  <time>2026-08-28T19:07:53Z</time>
  <course>45.79</course>
  <speed>10.038889380803038</speed>
  <fix>3d</fix>
</trkpt>
<trkpt lat="40.0740516" lon="-105.2291563">
  <ele>1617.96</ele>
  <time>2026-08-28T19:07:53Z</time>
  <course>46.87</course>
  <speed>10.16</speed>
  <fix>3d</fix>
</trkpt>
<trkpt lat="40.0740715" lon="-105.2291287">
  <ele>1618.79</ele>
  <time>2026-08-28T19:07:53Z</time>
  <course>45.6</course>
  <speed>9.931414803541337</speed>
  <fix>3d</fix>
</trkpt>
<trkpt lat="40.0740641" lon="-105.229139">
  <ele>1618.33</ele>
  <time>2026-08-28T19:07:53Z</time>
  <course>46.71</course>
  <speed>10.05</speed>
  <fix>3d</fix>
</trkpt>
<trkpt lat="40.0740838" lon="-105.2291118">
  <ele>1619.17</ele>
  <time>2026-08-28T19:07:53Z</time>
  <course>45.19</course>
  <speed>9.823853622687993</speed>
  <fix>3d</fix>
</trkpt>
<trkpt lat="40.0740764" lon="-105.2291219">
  <ele>1618.71</ele>
  <time>2026-08-28T19:07:53Z</time>
  <course>46.43</course>
  <speed>9.93</speed>
  <fix>3d</fix>
</trkpt>
<trkpt lat="40.0740961" lon="-105.2290951">
  <ele>1619.57</ele>
  <time>2026-08-28T19:07:53Z</time>
  <course>44.49</course>
  <speed>9.723296766015116</speed>
  <fix>3d</fix>
</trkpt>
<trkpt lat="40.0740887" lon="-105.2291051">
  <ele>1619.11</ele>
  <time>2026-08-28T19:07:53Z</time>
  <course>45.99</course>
  <speed>9.83</speed>
  <fix>3d</fix>
</trkpt>
<trkpt lat="40.0741084" lon="-105.2290789">
  <ele>1620.0</ele>
  <time>2026-08-28T19:07:53Z</time>
  <course>43.72</course>
  <speed>9.595462469313295</speed>
  <fix>3d</fix>
</trkpt>
<trkpt lat="40.074101" lon="-105.2290888">
  <ele>1619.52</ele>
  <time>2026-08-28T19:07:53Z</time>
  <course>45.39</course>
  <speed>9.71</speed>
  <fix>3d</fix>
</trkpt>
<trkpt lat="40.0741206" lon="-105.2290633">
  <ele>1620.46</ele>
  <time>2026-08-28T19:07:53Z</time>
  <course>43.06</course>
  <speed>9.377771590308647</speed>
  <fix>3d</fix>
</trkpt>
<trkpt lat="40.0741133" lon="-105.2290728">
  <ele>1619.95</ele>
  <time>2026-08-28T19:07:53Z</time>
  <course>44.59</course>
  <speed>9.55</speed>
  <fix>3d</fix>
</trkpt>
<trkpt lat="40.0741327" lon="-105.2290483">
  <ele>1620.95</ele>
  <time>2026-08-28T19:07:53Z</time>
  <course>42.41</course>
  <speed>9.092925821758364</speed>
  <fix>3d</fix>
</trkpt>
<trkpt lat="40.0741254" lon="-105.2290573">
  <ele>1620.42</ele>
  <time>2026-08-28T19:07:53Z</time>
  <course>43.59</course>
  <speed>9.32</speed>
  <fix>3d</fix>
</trkpt>
<trkpt lat="40.0741447" lon="-105.2290341">
  <ele>1621.46</ele>
  <time>2026-08-28T19:07:53Z</time>
  <course>41.58</course>
  <speed>8.768774144656708</speed>
  <fix>3d</fix>
</trkpt>
<trkpt lat="40.0741375" lon="-105.2290426">
  <ele>1620.91</ele>
  <time>2026-08-28T19:07:53Z</time>
  <course>42.47</course>
  <speed>9.02</speed>
  <fix>3d</fix>
</trkpt>
<trkpt lat="40.0741564" lon="-105.2290208">
  <ele>1621.98</ele>
  <time>2026-08-28T19:07:53Z</time>
  <course>40.45</course>
  <speed>8.42133599852185</speed>
  <fix>3d</fix>
</trkpt>
<trkpt lat="40.0741493" lon="-105.2290287">
  <ele>1621.43</ele>
  <time>2026-08-28T19:07:53Z</time>
  <course>41.22</course>
  <speed>8.69</speed>
  <fix>3d</fix>
</trkpt>
<trkpt lat="40.0741679" lon="-105.2290084">
  <ele>1622.53</ele>
  <time>2026-08-28T19:07:53Z</time>
  <course>38.8</course>
  <speed>8.061693370502255</speed>
  <fix>3d</fix>
</trkpt>
<trkpt lat="40.0741609" lon="-105.2290157">
  <ele>1621.97</ele>
  <time>2026-08-28T19:07:53Z</time>
  <course>39.76</course>
  <speed>8.33</speed>
  <fix>3d</fix>
</trkpt>
<trkpt lat="40.0741792" lon="-105.228997">
  <ele>1623.1</ele>
  <time>2026-08-28T19:07:53Z</time>
  <course>36.4</course>
  <speed>7.668376620902236</speed>
  <fix>3d</fix>
</trkpt>
<trkpt lat="40.0741723" lon="-105.2290037">
  <ele>1622.52</ele>
  <time>2026-08-28T19:07:53Z</time>
  <course>37.9</course>
  <speed>7.96</speed>
  <fix>3d</fix>
</trkpt>
<trkpt lat="40.0741902" lon="-105.228987">
  <ele>1623.71</ele>
  <time>2026-08-28T19:07:53Z</time>
  <course>33.01</course>
  <speed>7.247516816123989</speed>
  <fix>3d</fix>
</trkpt>
<trkpt lat="40.0741835" lon="-105.2289928">
  <ele>1623.11</ele>
  <time>2026-08-28T19:07:53Z</time>
  <course>35.38</course>
  <speed>7.55</speed>
  <fix>3d</fix>
</trkpt>
<trkpt lat="40.0742011" lon="-105.2289784">
  <ele>1624.38</ele>
  <time>2026-08-28T19:07:53Z</time>
  <course>28.11</course>
  <speed>6.7877684108991225</speed>
  <fix>3d</fix>
</trkpt>
<trkpt lat="40.0741945" lon="-105.2289833">
  <ele>1623.74</ele>
  <time>2026-08-28T19:07:53Z</time>
  <course>31.8</course>
  <speed>7.11</speed>
  <fix>3d</fix>
</trkpt>
<trkpt lat="40.0742118" lon="-105.2289718">
  <ele>1625.14</ele>
  <time>2026-08-28T19:07:53Z</time>
  <course>20.9</course>
  <speed>6.280700597863268</speed>
  <fix>3d</fix>
</trkpt>
<trkpt lat="40.0742053" lon="-105.2289754">
  <ele>1624.43</ele>
  <time>2026-08-28T19:07:53Z</time>
  <course>26.46</course>
  <speed>6.63</speed>
  <fix>3d</fix>
</trkpt>
<trkpt lat="40.0742223" lon="-105.2289679">
  <ele>1626.02</ele>
  <time>2026-08-28T19:07:53Z</time>
  <course>9.75</course>
  <speed>5.808588468810646</speed>
  <fix>3d</fix>
</trkpt>
<trkpt lat="40.0742159" lon="-105.2289696">
  <ele>1625.21</ele>
  <time>2026-08-28T19:07:53Z</time>
  <course>17.87</course>
  <speed>6.12</speed>
  <fix>3d</fix>
</trkpt>
<trkpt lat="40.0742324" lon="-105.2289675">
  <ele>1627.0</ele>
  <time>2026-08-28T19:07:53Z</time>
  <course>357.3</course>
  <speed>5.5470442579810015</speed>
  <fix>3d</fix>
</trkpt>
<trkpt lat="40.0742262" lon="-105.2289668">
  <ele>1626.11</ele>
  <time>2026-08-28T19:07:53Z</time>
  <course>4.77</course>
  <speed>5.69</speed>
  <fix>3d</fix>
</trkpt>
<trkpt lat="40.0742419" lon="-105.2289704">
  <ele>1628.05</ele>
  <time>2026-08-28T19:07:53Z</time>
  <course>342.38</course>
  <speed>5.343079636314623</speed>
  <fix>3d</fix>
</trkpt>
<trkpt lat="40.0742361" lon="-105.2289675">
  <ele>1627.1</ele>
  <time>2026-08-28T19:07:53Z</time>
  <course>348.93</course>
  <speed>5.45</speed>
  <fix>3d</fix>
</trkpt>
<trkpt lat="40.07425" lon="-105.2289761">
  <ele>1629.13</ele>
  <time>2026-08-28T19:07:53Z</time>
  <course>329.31</course>
  <speed>5.0680666925367115</speed>
  <fix>3d</fix>
</trkpt>
<trkpt lat="40.0742452" lon="-105.2289716">
  <ele>1628.15</ele>
  <time>2026-08-28T19:07:53Z</time>
  <course>333.32</course>
  <speed>5.26</speed>
  <fix>3d</fix>
</trkpt>
<trkpt lat="40.0742566" lon="-105.2289836">
  <ele>1630.15</ele>
  <time>2026-08-28T19:07:53Z</time>
  <course>318.92</course>
  <speed>4.74797851722183</speed>
  <fix>3d</fix>
</trkpt>
<trkpt lat="40.0742529" lon="-105.2289782">
  <ele>1629.2</ele>
  <time>2026-08-28T19:07:53Z</time>
  <course>320.11</course>
  <speed>5.02</speed>
  <fix>3d</fix>
</trkpt>
<trkpt lat="40.0742618" lon="-105.2289918">
  <ele>1631.05</ele>
  <time>2026-08-28T19:07:53Z</time>
  <course>308.21</course>
  <speed>4.4015679024638485</speed>
  <fix>3d</fix>
</trkpt>
<trkpt lat="40.074259" lon="-105.2289863">
  <ele>1630.17</ele>
  <time>2026-08-28T19:07:53Z</time>
  <course>309.64</course>
  <speed>4.72</speed>
  <fix>3d</fix>
</trkpt>
<trkpt lat="40.0742656" lon="-105.2290005">
  <ele>1631.8</ele>
  <time>2026-08-28T19:07:53Z</time>
  <course>297.73</course>
  <speed>4.075782133529711</speed>
  <fix>3d</fix>
</trkpt>
<trkpt lat="40.0742638" lon="-105.228995">
  <ele>1631.02</ele>
  <time>2026-08-28T19:07:53Z</time>
  <course>300.0</course>
  <speed>4.39</speed>
  <fix>3d</fix>
</trkpt>
<trkpt lat="40.0742679" lon="-105.2290095">
  <ele>1632.37</ele>
  <time>2026-08-28T19:07:53Z</time>
  <course>289.73</course>
  <speed>3.930801444998208</speed>
  <fix>3d</fix>
</trkpt>
<trkpt lat="40.074267" lon="-105.229004">
  <ele>1631.71</ele>
  <time>2026-08-28T19:07:53Z</time>
  <course>289.64</course>
  <speed>4.12</speed>
  <fix>3d</fix>
</trkpt>
<trkpt lat="40.0742689" lon="-105.2290188">
  <ele>1632.78</ele>
  <time>2026-08-28T19:07:53Z</time>
  <course>281.83</course>
  <speed>4.050999876573684</speed>
  <fix>3d</fix>
</trkpt>
<trkpt lat="40.0742687" lon="-105.2290132">
  <ele>1632.24</ele>
  <time>2026-08-28T19:07:53Z</time>
  <course>278.55</course>
  <speed>4.05</speed>
  <fix>3d</fix>
</trkpt>
<trkpt lat="40.0742684" lon="-105.2290289">
  <ele>1633.06</ele>
  <time>2026-08-28T19:07:53Z</time>
  <course>271.78</course>
  <speed>4.488786027424341</speed>
  <fix>3d</fix>
</trkpt>
<trkpt lat="40.0742691" lon="-105.229023">
  <ele>1632.62</ele>
  <time>2026-08-28T19:07:53Z</time>
  <course>267.81</course>
  <speed>4.25</speed>
  <fix>3d</fix>
</trkpt>
<trkpt lat="40.0742666" lon="-105.2290401">
  <ele>1633.27</ele>
  <time>2026-08-28T19:07:53Z</time>
  <course>259.27</course>
  <speed>5.164803965302071</speed>
  <fix>3d</fix>
</trkpt>
<trkpt lat="40.0742682" lon="-105.2290334">
  <ele>1632.88</ele>
  <time>2026-08-28T19:07:53Z</time>
  <course>258.66</course>
  <speed>4.75</speed>
  <fix>3d</fix>
</trkpt>
<trkpt lat="40.0742635" lon="-105.2290525">
  <ele>1633.44</ele>
  <time>2026-08-28T19:07:53Z</time>
  <course>249.75</course>
  <speed>5.955249784853696</speed>
  <fix>3d</fix>
</trkpt>
<trkpt lat="40.0742658" lon="-105.2290449">
  <ele>1633.07</ele>
  <time>2026-08-28T19:07:53Z</time>
  <course>251.62</course>
  <speed>5.46</speed>
  <fix>3d</fix>
</trkpt>
<trkpt lat="40.0742589" lon="-105.2290661">
  <ele>1633.6</ele>
  <time>2026-08-28T19:07:53Z</time>
  <course>242.89</course>
  <speed>6.677439629079397</speed>
  <fix>3d</fix>
</trkpt>
<trkpt lat="40.0742621" lon="-105.2290577">
  <ele>1633.24</ele>
  <time>2026-08-28T19:07:53Z</time>
  <course>246.53</course>
  <speed>6.23</speed>
  <fix>3d</fix>
</trkpt>
<trkpt lat="40.0742532" lon="-105.2290807">
  <ele>1633.77</ele>
  <time>2026-08-28T19:07:53Z</time>
  <course>238.79</course>
  <speed>7.267379169962168</speed>
  <fix>3d</fix>
</trkpt>
<trkpt lat="40.074257" lon="-105.2290717">
  <ele>1633.4</ele>
  <time>2026-08-28T19:07:53Z</time>
  <course>242.94</course>
  <speed>6.93</speed>
  <fix>3d</fix>
</trkpt>
<trkpt lat="40.0742466" lon="-105.2290961">
  <ele>1633.97</ele>
  <time>2026-08-28T19:07:53Z</time>
  <course>236.58</course>
  <speed>7.745243701782405</speed>
  <fix>3d</fix>
</trkpt>
<trkpt lat="40.0742508" lon="-105.2290867">
  <ele>1633.59</ele>
  <time>2026-08-28T19:07:53Z</time>
  <course>240.49</course>
  <speed>7.5</speed>
  <fix>3d</fix>
</trkpt>
<trkpt lat="40.0742392" lon="-105.2291121">
  <ele>1634.19</ele>
  <time>2026-08-28T19:07:53Z</time>
  <course>235.57</course>
  <speed>8.074416387578733</speed>
  <fix>3d</fix>
</trkpt>
<trkpt lat="40.0742438" lon="-105.2291023">
  <ele>1633.8</ele>
  <time>2026-08-28T19:07:53Z</time>
  <course>238.94</course>
  <speed>7.94</speed>
  <fix>3d</fix>
</trkpt>
<trkpt lat="40.0742315" lon="-105.2291284">
  <ele>1634.45</ele>
  <time>2026-08-28T19:07:53Z</time>
  <course>235.37</course>
  <speed>8.252084585121507</speed>
  <fix>3d</fix>
</trkpt>
<trkpt lat="40.0742362" lon="-105.2291185">
  <ele>1634.04</ele>
  <time>2026-08-28T19:07:53Z</time>
  <course>238.06</course>
  <speed>8.24</speed>
  <fix>3d</fix>
</trkpt>
<trkpt lat="40.0742235" lon="-105.2291451">
  <ele>1634.74</ele>
  <time>2026-08-28T19:07:53Z</time>
  <course>236.37</course>
  <speed>8.252084585121507</speed>
  <fix>3d</fix>
</trkpt>
<trkpt lat="40.0742282" lon="-105.2291351">
  <ele>1634.31</ele>
  <time>2026-08-28T19:07:53Z</time>
  <course>237.71</course>
  <speed>8.38</speed>
  <fix>3d</fix>
</trkpt>
<trkpt lat="40.0742157" lon="-105.2291615">
  <ele>1635.05</ele>
  <time>2026-08-28T19:07:53Z</time>
  <course>238.29</course>
  <speed>8.074416387578733</speed>
  <fix>3d</fix>
</trkpt>
<trkpt lat="40.0742202" lon="-105.2291518">
  <ele>1634.61</ele>
  <time>2026-08-28T19:07:53Z</time>
  <course>237.9</course>
  <speed>8.32</speed>
  <fix>3d</fix>
</trkpt>
<trkpt lat="40.0742082" lon="-105.2291777">
  <ele>1635.36</ele>
  <time>2026-08-28T19:07:53Z</time>
  <course>240.52</course>
  <speed>7.807124950966264</speed>
  <fix>3d</fix>
</trkpt>
<trkpt lat="40.0742123" lon="-105.2291682">
  <ele>1634.92</ele>
  <time>2026-08-28T19:07:53Z</time>
  <course>238.63</course>
  <speed>8.12</speed>
  <fix>3d</fix>
</trkpt>
<trkpt lat="40.0742012" lon="-105.2291936">
  <ele>1635.66</ele>
  <time>2026-08-28T19:07:53Z</time>
  <course>242.74</course>
  <speed>7.50523150875441</speed>
  <fix>3d</fix>
</trkpt>
<trkpt lat="40.074205" lon="-105.2291843">
  <ele>1635.24</ele>
  <time>2026-08-28T19:07:53Z</time>
  <course>239.88</course>
  <speed>7.84</speed>
  <fix>3d</fix>
</trkpt>
<trkpt lat="40.0741949" lon="-105.2292091">
  <ele>1635.94</ele>
  <time>2026-08-28T19:07:53Z</time>
  <course>244.91</course>
  <speed>7.186835186645093</speed>
  <fix>3d</fix>
</trkpt>
<trkpt lat="40.0741983" lon="-105.2292">
  <ele>1635.54</ele>
  <time>2026-08-28T19:07:53Z</time>
  <course>241.57</course>
  <speed>7.53</speed>
  <fix>3d</fix>
</trkpt>
<trkpt lat="40.0741892" lon="-105.2292242">
  <ele>1636.2</ele>
  <time>2026-08-28T19:07:53Z</time>
  <course>247.1</course>
  <speed>6.890718395058675</speed>
  <fix>3d</fix>
</trkpt>
<trkpt lat="40.0741922" lon="-105.2292155">
  <ele>1635.83</ele>
  <time>2026-08-28T19:07:53Z</time>
  <course>243.62</course>
  <speed>7.21</speed>
  <fix>3d</fix>
</trkpt>
<trkpt lat="40.0741842" lon="-105.229239">
  <ele>1636.46</ele>
  <time>2026-08-28T19:07:53Z</time>
  <course>249.31</course>
  <speed>6.614718436940457</speed>
  <fix>3d</fix>
</trkpt>
<trkpt lat="40.0741868" lon="-105.2292305">
  <ele>1636.09</ele>
  <time>2026-08-28T19:07:53Z</time>
  <course>245.94</course>
  <speed>6.9</speed>
  <fix>3d</fix>
</trkpt>
<trkpt lat="40.0741799" lon="-105.2292534">
  <ele>1636.7</ele>
  <time>2026-08-28T19:07:53Z</time>
  <course>251.4</course>
  <speed>6.389757428885701</speed>
  <fix>3d</fix>
</trkpt>
<trkpt lat="40.0741821" lon="-105.2292451">
  <ele>1636.34</ele>
  <time>2026-08-28T19:07:53Z</time>
  <course>248.44</course>
  <speed>6.63</speed>
  <fix>3d</fix>
</trkpt>
<trkpt lat="40.0741762" lon="-105.2292677">
  <ele>1636.95</ele>
  <time>2026-08-28T19:07:53Z</time>
  <course>253.22</course>
  <speed>6.236938351467009</speed>
  <fix>3d</fix>
</trkpt>
<trkpt lat="40.074178" lon="-105.2292594">
  <ele>1636.59</ele>
  <time>2026-08-28T19:07:53Z</time>
  <course>250.94</course>
  <speed>6.41</speed>
  <fix>3d</fix>
</trkpt>
<trkpt lat="40.0741729" lon="-105.2292818">
  <ele>1637.2</ele>
  <time>2026-08-28T19:07:53Z</time>
  <course>254.65</course>
  <speed>6.130660649554826</speed>
  <fix>3d</fix>
</trkpt>
<trkpt lat="40.0741745" lon="-105.2292736">
  <ele>1636.83</ele>
  <time>2026-08-28T19:07:53Z</time>
  <course>253.28</course>
  <speed>6.26</speed>
  <fix>3d</fix>
</trkpt>
<trkpt lat="40.0741701" lon="-105.2292959">
  <ele>1637.48</ele>
  <time>2026-08-28T19:07:53Z</time>
  <course>256.33</course>
  <speed>6.0198754139932165</speed>
  <fix>3d</fix>
</trkpt>
<trkpt lat="40.0741715" lon="-105.2292875">
  <ele>1637.09</ele>
  <time>2026-08-28T19:07:53Z</time>
  <course>255.33</course>
  <speed>6.14</speed>
  <fix>3d</fix>
</trkpt>
<trkpt lat="40.0741676" lon="-105.2293097">
  <ele>1637.77</ele>
  <time>2026-08-28T19:07:53Z</time>
  <course>257.72</course>
  <speed>5.927647088010554</speed>
  <fix>3d</fix>
</trkpt>
<trkpt lat="40.0741688" lon="-105.2293014">
  <ele>1637.37</ele>
  <time>2026-08-28T19:07:53Z</time>
  <course>257.02</course>
  <speed>6.03</speed>
  <fix>3d</fix>
</trkpt>
<trkpt lat="40.0741654" lon="-105.2293234">
  <ele>1638.09</ele>
  <time>2026-08-28T19:07:53Z</time>
  <course>258.63</course>
  <speed>5.873678574794504</speed>
  <fix>3d</fix>
</trkpt>
<trkpt lat="40.0741666" lon="-105.2293152">
  <ele>1637.67</ele>
  <time>2026-08-28T19:07:53Z</time>
  <course>258.33</course>
  <speed>5.94</speed>
  <fix>3d</fix>
</trkpt>
<trkpt lat="40.0741634" lon="-105.229337">
  <ele>1638.42</ele>
  <time>2026-08-28T19:07:53Z</time>
  <course>259.1</course>
  <speed>5.881878951491607</speed>
  <fix>3d</fix>
</trkpt>
<trkpt lat="40.0741646" lon="-105.2293288">
  <ele>1637.99</ele>
  <time>2026-08-28T19:07:53Z</time>
  <course>259.27</course>
  <speed>5.89</speed>
  <fix>3d</fix>
</trkpt>
<trkpt lat="40.0741615" lon="-105.2293508">
  <ele>1638.76</ele>
  <time>2026-08-28T19:07:53Z</time>
  <course>259.08</course>
  <speed>5.970343373709756</speed>
  <fix>3d</fix>
</trkpt>
<trkpt lat="40.0741626" lon="-105.2293425">
  <ele>1638.33</ele>
  <time>2026-08-28T19:07:53Z</time>
  <course>259.8</course>
  <speed>5.92</speed>
  <fix>3d</fix>
</trkpt>
<trkpt lat="40.0741595" lon="-105.2293648">
  <ele>1639.11</ele>
  <time>2026-08-28T19:07:53Z</time>
  <course>258.48</course>
  <speed>6.138680640007265</speed>
  <fix>3d</fix>
</trkpt>
<trkpt lat="40.0741607" lon="-105.2293563">
  <ele>1638.67</ele>
  <time>2026-08-28T19:07:53Z</time>
  <course>259.85</course>
  <speed>6.02</speed>
  <fix>3d</fix>
</trkpt>
<trkpt lat="40.0741574" lon="-105.2293792">
  <ele>1639.48</ele>
  <time>2026-08-28T19:07:53Z</time>
  <course>257.26</course>
  <speed>6.369929355966202</speed>
  <fix>3d</fix>
</trkpt>
<trkpt lat="40.0741587" lon="-105.2293704">
  <ele>1639.03</ele>
  <time>2026-08-28T19:07:53Z</time>
  <course>259.39</course>
  <speed>6.2</speed>
  <fix>3d</fix>
</trkpt>
<trkpt lat="40.074155" lon="-105.2293941">
  <ele>1639.87</ele>
  <time>2026-08-28T19:07:53Z</time>
  <course>255.59</course>
  <speed>6.66195166599098</speed>
  <fix>3d</fix>
</trkpt>
<trkpt lat="40.0741566" lon="-105.2293849">
  <ele>1639.4</ele>
  <time>2026-08-28T19:07:53Z</time>
  <course>258.48</course>
  <speed>6.44</speed>
  <fix>3d</fix>
</trkpt>
<trkpt lat="40.0741522" lon="-105.2294096">
  <ele>1640.28</ele>
  <time>2026-08-28T19:07:53Z</time>
  <course>253.71</course>
  <speed>6.9680485072938465</speed>
  <fix>3d</fix>
</trkpt>
<trkpt lat="40.0741541" lon="-105.2294">
  <ele>1639.8</ele>
  <time>2026-08-28T19:07:53Z</time>
  <course>257.27</course>
  <speed>6.73</speed>
  <fix>3d</fix>
</trkpt>
<trkpt lat="40.0741491" lon="-105.2294257">
  <ele>1640.71</ele>
  <time>2026-08-28T19:07:53Z</time>
  <course>251.88</course>
  <speed>7.277829346721452</speed>
  <fix>3d</fix>
</trkpt>
<trkpt lat="40.0741512" lon="-105.2294158">
  <ele>1640.21</ele>
  <time>2026-08-28T19:07:53Z</time>
  <course>255.9</course>
  <speed>7.04</speed>
  <fix>3d</fix>
</trkpt>
<trkpt lat="40.0741455" lon="-105.2294425">
  <ele>1641.16</ele>
  <time>2026-08-28T19:07:53Z</time>
  <course>250.32</course>
  <speed>7.542903950071219</speed>
  <fix>3d</fix>
</trkpt>
<trkpt lat="40.0741479" lon="-105.2294321">
  <ele>1640.65</ele>
  <time>2026-08-28T19:07:53Z</time>
  <course>254.55</course>
  <speed>7.34</speed>
  <fix>3d</fix>
</trkpt>
<trkpt lat="40.0741415" lon="-105.2294596">
  <ele>1641.63</ele>
  <time>2026-08-28T19:07:53Z</time>
  <course>249.2</course>
  <speed>7.773712111983566</speed>
  <fix>3d</fix>
</trkpt>
<trkpt lat="40.0741442" lon="-105.229449">
  <ele>1641.1</ele>
  <time>2026-08-28T19:07:53Z</time>
  <course>253.31</course>
  <speed>7.6</speed>
  <fix>3d</fix>
</trkpt>
<trkpt lat="40.0741372" lon="-105.2294771">
  <ele>1642.11</ele>
  <time>2026-08-28T19:07:53Z</time>
  <course>248.47</course>
  <speed>7.946804389186889</speed>
  <fix>3d</fix>
</trkpt>
<trkpt lat="40.0741401" lon="-105.2294663">
  <ele>1641.58</ele>
  <time>2026-08-28T19:07:53Z</time>
  <course>252.27</course>
  <speed>7.81</speed>
  <fix>3d</fix>
</trkpt>
<trkpt lat="40.0741326" lon="-105.229495">
  <ele>1642.59</ele>
  <time>2026-08-28T19:07:53Z</time>
  <course>248.06</course>
  <speed>8.073815702627847</speed>
  <fix>3d</fix>
</trkpt>
<trkpt lat="40.0741357" lon="-105.229484">
  <ele>1642.06</ele>
  <time>2026-08-28T19:07:53Z</time>
  <course>251.44</course>
  <speed>7.98</speed>
  <fix>3d</fix>
</trkpt>
<trkpt lat="40.0741278" lon="-105.229513">
  <ele>1643.09</ele>
  <time>2026-08-28T19:07:53Z</time>
  <course>247.92</course>
  <speed>8.16963279468545</speed>
  <fix>3d</fix>
</trkpt>
<trkpt lat="40.074131" lon="-105.2295019">
  <ele>1642.54</ele>
  <time>2026-08-28T19:07:53Z</time>
  <course>250.84</course>
  <speed>8.1</speed>
  <fix>3d</fix>
</trkpt>
<trkpt lat="40.0741229" lon="-105.2295312">
  <ele>1643.57</ele>
  <time>2026-08-28T19:07:53Z</time>
  <course>247.87</course>
  <speed>8.24293637000796</speed>
  <fix>3d</fix>
</trkpt>
<trkpt lat="40.0741261" lon="-105.2295199">
  <ele>1643.03</ele>
  <time>2026-08-28T19:07:53Z</time>
  <course>250.43</course>
  <speed>8.2</speed>
  <fix>3d</fix>
</trkpt>
<trkpt lat="40.0741179" lon="-105.2295495">
  <ele>1644.06</ele>
  <time>2026-08-28T19:07:53Z</time>
  <course>247.9</course>
  <speed>8.322337412049574</speed>
  <fix>3d</fix>
</trkpt>
<trkpt lat="40.0741212" lon="-105.2295381">
  <ele>1643.52</ele>
  <time>2026-08-28T19:07:53Z</time>
  <course>250.2</course>
  <speed>8.27</speed>
  <fix>3d</fix>
</trkpt>
<trkpt lat="40.0741128" lon="-105.229568">
  <ele>1644.53</ele>
  <time>2026-08-28T19:07:53Z</time>
  <course>247.87</course>
  <speed>8.407770215699285</speed>
  <fix>3d</fix>
</trkpt>
<trkpt lat="40.0741161" lon="-105.2295565">
  <ele>1643.99</ele>
  <time>2026-08-28T19:07:53Z</time>
  <course>250.11</course>
  <speed>8.35</speed>
  <fix>3d</fix>
</trkpt>
<trkpt lat="40.0741077" lon="-105.2295867">
  <ele>1644.99</ele>
  <time>2026-08-28T19:07:53Z</time>
  <course>247.88</course>
  <speed>8.49922937683176</speed>
  <fix>3d</fix>
</trkpt>
<trkpt lat="40.074111" lon="-105.229575">
  <ele>1644.46</ele>
  <time>2026-08-28T19:07:53Z</time>
  <course>250.13</course>
  <speed>8.44</speed>
  <fix>3d</fix>
</trkpt>
<trkpt lat="40.0741025" lon="-105.2296056">
  <ele>1645.46</ele>
  <time>2026-08-28T19:07:53Z</time>
  <course>247.92</course>
  <speed>8.587345340674265</speed>
  <fix>3d</fix>
</trkpt>
<trkpt lat="40.0741058" lon="-105.2295938">
  <ele>1644.92</ele>
  <time>2026-08-28T19:07:53Z</time>
  <course>250.22</course>
  <speed>8.53</speed>
  <fix>3d</fix>
</trkpt>
<trkpt lat="40.0740973" lon="-105.2296247">
  <ele>1645.92</ele>
  <time>2026-08-28T19:07:53Z</time>
  <course>247.98</course>
  <speed>8.68494099001254</speed>
  <fix>3d</fix>
</trkpt>
<trkpt lat="40.0741005" lon="-105.2296127">
  <ele>1645.39</ele>
  <time>2026-08-28T19:07:53Z</time>
  <course>250.34</course>
  <speed>8.62</speed>
  <fix>3d</fix>
</trkpt>
<trkpt lat="40.0740921" lon="-105.2296442">
  <ele>1646.39</ele>
  <time>2026-08-28T19:07:53Z</time>
  <course>248.15</course>
  <speed>8.760422364247058</speed>
  <fix>3d</fix>
</trkpt>
<trkpt lat="40.0740954" lon="-105.2296319">
  <ele>1645.86</ele>
  <time>2026-08-28T19:07:53Z</time>
  <course>250.5</course>
  <speed>8.71</speed>
  <fix>3d</fix>
</trkpt>
<trkpt lat="40.0740869" lon="-105.2296636">
  <ele>1646.86</ele>
  <time>2026-08-28T19:07:53Z</time>
  <course>248.38</course>
  <speed>8.83271758860205</speed>
  <fix>3d</fix>
</trkpt>
<trkpt lat="40.0740901" lon="-105.2296513">
  <ele>1646.33</ele>
  <time>2026-08-28T19:07:53Z</time>
  <course>250.68</course>
  <speed>8.79</speed>
  <fix>3d</fix>
</trkpt>
<trkpt lat="40.0740817" lon="-105.2296833">
  <ele>1647.34</ele>
  <time>2026-08-28T19:07:53Z</time>
  <course>248.69</course>
  <speed>8.89568996761915</speed>
  <fix>3d</fix>
</trkpt>
<trkpt lat="40.0740849" lon="-105.2296709">
  <ele>1646.8</ele>
  <time>2026-08-28T19:07:53Z</time>
  <course>250.89</course>
  <speed>8.86</speed>
  <fix>3d</fix>
</trkpt>
<trkpt lat="40.0740765" lon="-105.2297033">
  <ele>1647.82</ele>
  <time>2026-08-28T19:07:53Z</time>
  <course>249.03</course>
  <speed>8.946110886860279</speed>
  <fix>3d</fix>
</trkpt>
<trkpt lat="40.0740797" lon="-105.2296906">
  <ele>1647.28</ele>
  <time>2026-08-28T19:07:53Z</time>
  <course>251.12</course>
  <speed>8.92</speed>
  <fix>3d</fix>
</trkpt>
<trkpt lat="40.0740714" lon="-105.2297233">
  <ele>1648.3</ele>
  <time>2026-08-28T19:07:53Z</time>
  <course>249.37</course>
  <speed>8.98720201174982</speed>
  <fix>3d</fix>
</trkpt>
<trkpt lat="40.0740745" lon="-105.2297106">
  <ele>1647.76</ele>
  <time>2026-08-28T19:07:53Z</time>
  <course>251.36</course>
  <speed>8.97</speed>
  <fix>3d</fix>
</trkpt>
<trkpt lat="40.0740663" lon="-105.2297434">
  <ele>1648.79</ele>
  <time>2026-08-28T19:07:53Z</time>
  <course>249.75</course>
  <speed>9.015813884503162</speed>
  <fix>3d</fix>
</trkpt>
<trkpt lat="40.0740694" lon="-105.2297306">
  <ele>1648.24</ele>
  <time>2026-08-28T19:07:53Z</time>
  <course>251.6</course>
  <speed>9.01</speed>
  <fix>3d</fix>
</trkpt>
<trkpt lat="40.0740612" lon="-105.2297636">
  <ele>1649.28</ele>
  <time>2026-08-28T19:07:53Z</time>
  <course>250.1</course>
  <speed>9.035092694599209</speed>
  <fix>3d</fix>
</trkpt>
<trkpt lat="40.0740643" lon="-105.2297507">
  <ele>1648.73</ele>
  <time>2026-08-28T19:07:53Z</time>
  <course>251.83</course>
  <speed>9.03</speed>
  <fix>3d</fix>
</trkpt>
<trkpt lat="40.0740562" lon="-105.2297838">
  <ele>1649.78</ele>
  <time>2026-08-28T19:07:53Z</time>
  <course>250.45</course>
  <speed>9.048032935395405</speed>
  <fix>3d</fix>
</trkpt>
<trkpt lat="40.0740593" lon="-105.2297708">
  <ele>1649.21</ele>
  <time>2026-08-28T19:07:53Z</time>
  <course>252.05</course>
  <speed>9.05</speed>
  <fix>3d</fix>
</trkpt>
<trkpt lat="40.0740513" lon="-105.2298041">
  <ele>1650.27</ele>
  <time>2026-08-28T19:07:53Z</time>
  <course>250.77</course>
  <speed>9.048497112780664</speed>
  <fix>3d</fix>
</trkpt>
<trkpt lat="40.0740543" lon="-105.2297911">
  <ele>1649.7</ele>
  <time>2026-08-28T19:07:53Z</time>
  <course>252.25</course>
  <speed>9.06</speed>
  <fix>3d</fix>
</trkpt>
<trkpt lat="40.0740463" lon="-105.2298244">
  <ele>1650.75</ele>
  <time>2026-08-28T19:07:53Z</time>
  <course>251.04</course>
  <speed>9.042505183852537</speed>
  <fix>3d</fix>
</trkpt>
<trkpt lat="40.0740494" lon="-105.2298114">
  <ele>1650.19</ele>
  <time>2026-08-28T19:07:53Z</time>
  <course>252.43</course>
  <speed>9.06</speed>
  <fix>3d</fix>
</trkpt>
<trkpt lat="40.0740415" lon="-105.2298448">
  <ele>1651.24</ele>
  <time>2026-08-28T19:07:53Z</time>
  <course>251.23</course>
  <speed>9.036553546568515</speed>
  <fix>3d</fix>
</trkpt>
<trkpt lat="40.0740445" lon="-105.2298317">
  <ele>1650.67</ele>
  <time>2026-08-28T19:07:53Z</time>
  <course>252.57</course>
  <speed>9.06</speed>
  <fix>3d</fix>
</trkpt>
<trkpt lat="40.0740366" lon="-105.229865">
  <ele>1651.74</ele>
  <time>2026-08-28T19:07:53Z</time>
  <course>251.4</course>
  <speed>9.03064228059112</speed>
  <fix>3d</fix>
</trkpt>
<trkpt lat="40.0740396" lon="-105.229852">
  <ele>1651.15</ele>
  <time>2026-08-28T19:07:53Z</time>
  <course>252.68</course>
  <speed>9.05</speed>
  <fix>3d</fix>
</trkpt>
<trkpt lat="40.0740318" lon="-105.2298852">
  <ele>1652.22</ele>
  <time>2026-08-28T19:07:53Z</time>
  <course>251.54</course>
  <speed>9.0115315013598</speed>
  <fix>3d</fix>
</trkpt>
<trkpt lat="40.0740348" lon="-105.2298723">
  <ele>1651.64</ele>
  <time>2026-08-28T19:07:53Z</time>
  <course>252.74</course>
  <speed>9.04</speed>
  <fix>3d</fix>
</trkpt>
<trkpt lat="40.074027" lon="-105.2299054">
  <ele>1652.7</ele>
  <time>2026-08-28T19:07:53Z</time>
  <course>251.59</course>
  <speed>8.9990277252601</speed>
  <fix>3d</fix>
</trkpt>
<trkpt lat="40.07403" lon="-105.2298926">
  <ele>1652.12</ele>
  <time>2026-08-28T19:07:53Z</time>
  <course>252.77</course>
  <speed>9.03</speed>
  <fix>3d</fix>
</trkpt>
<trkpt lat="40.0740222" lon="-105.2299256">
  <ele>1653.19</ele>
  <time>2026-08-28T19:07:53Z</time>
  <course>251.6</course>
  <speed>8.979916480680652</speed>
  <fix>3d</fix>
</trkpt>
<trkpt lat="40.0740252" lon="-105.2299128">
  <ele>1652.61</ele>
  <time>2026-08-28T19:07:53Z</time>
  <course>252.76</course>
  <speed>9.01</speed>
  <fix>3d</fix>
</trkpt>
<trkpt lat="40.0740175" lon="-105.2299457">
  <ele>1653.67</ele>
  <time>2026-08-28T19:07:53Z</time>
  <course>251.57</course>
  <speed>8.97332157007649</speed>
  <fix>3d</fix>
</trkpt>
<trkpt lat="40.0740203" lon="-105.2299331">
  <ele>1653.09</ele>
  <time>2026-08-28T19:07:53Z</time>
  <course>252.72</course>
  <speed>9.0</speed>
  <fix>3d</fix>
</trkpt>
<trkpt lat="40.0740126" lon="-105.2299658">
  <ele>1654.15</ele>
  <time>2026-08-28T19:07:53Z</time>
  <course>251.49</course>
  <speed>8.957198222658691</speed>
  <fix>3d</fix>
</trkpt>
<trkpt lat="40.0740155" lon="-105.2299532">
  <ele>1653.58</ele>
  <time>2026-08-28T19:07:53Z</time>
  <course>252.65</course>
  <speed>8.98</speed>
  <fix>3d</fix>
</trkpt>
<trkpt lat="40.0740078" lon="-105.2299859">
  <ele>1654.64</ele>
  <time>2026-08-28T19:07:53Z</time>
  <course>251.37</course>
  <speed>8.941101721823772</speed>
  <fix>3d</fix>
</trkpt>
<trkpt lat="40.0740107" lon="-105.2299733">
  <ele>1654.06</ele>
  <time>2026-08-28T19:07:53Z</time>
  <course>252.56</course>
  <speed>8.97</speed>
  <fix>3d</fix>
</trkpt>
<trkpt lat="40.074003" lon="-105.2300059">
  <ele>1655.13</ele>
  <time>2026-08-28T19:07:53Z</time>
  <course>251.24</course>
  <speed>8.934567700790005</speed>
  <fix>3d</fix>
</trkpt>
<trkpt lat="40.0740058" lon="-105.2299934">
  <ele>1654.55</ele>
  <time>2026-08-28T19:07:53Z</time>
  <course>252.45</course>
  <speed>8.96</speed>
  <fix>3d</fix>
</trkpt>
<trkpt lat="40.0739981" lon="-105.2300259">
  <ele>1655.62</ele>
  <time>2026-08-28T19:07:53Z</time>
  <course>251.1</course>
  <speed>8.921552555469255</speed>
  <fix>3d</fix>
</trkpt>
<trkpt lat="40.074001" lon="-105.2300135">
  <ele>1655.04</ele>
  <time>2026-08-28T19:07:53Z</time>
  <course>252.32</course>
  <speed>8.95</speed>
  <fix>3d</fix>
</trkpt>
<trkpt lat="40.0739932" lon="-105.2300459">
  <ele>1656.11</ele>
  <time>2026-08-28T19:07:53Z</time>
  <course>250.96</course>
  <speed>8.927648066540257</speed>
  <fix>3d</fix>
</trkpt>
<trkpt lat="40.0739961" lon="-105.2300334">
  <ele>1655.54</ele>
  <time>2026-08-28T19:07:53Z</time>
  <course>252.19</course>
  <speed>8.94</speed>
  <fix>3d</fix>
</trkpt>
<trkpt lat="40.0739882" lon="-105.2300659">
  <ele>1656.6</ele>
  <time>2026-08-28T19:07:53Z</time>
  <course>250.82</course>
  <speed>8.924270278291665</speed>
  <fix>3d</fix>
</trkpt>
<trkpt lat="40.0739911" lon="-105.2300535">
  <ele>1656.03</ele>
  <time>2026-08-28T19:07:53Z</time>
  <course>252.06</course>
  <speed>8.94</speed>
  <fix>3d</fix>
</trkpt>
<trkpt lat="40.0739832" lon="-105.2300859">
  <ele>1657.09</ele>
  <time>2026-08-28T19:07:53Z</time>
  <course>250.66</course>
  <speed>8.92735683167196</speed>
  <fix>3d</fix>
</trkpt>
<trkpt lat="40.0739862" lon="-105.2300735">
  <ele>1656.53</ele>
  <time>2026-08-28T19:07:53Z</time>
  <course>251.93</course>
  <speed>8.94</speed>
  <fix>3d</fix>
</trkpt>
<trkpt lat="40.0739782" lon="-105.2301059">
  <ele>1657.59</ele>
  <time>2026-08-28T19:07:53Z</time>
  <course>250.55</course>
  <speed>8.92405737319074</speed>
  <fix>3d</fix>
</trkpt>
<trkpt lat="40.0739812" lon="-105.2300934">
  <ele>1657.03</ele>
  <time>2026-08-28T19:07:53Z</time>
  <course>251.81</course>
  <speed>8.94</speed>
  <fix>3d</fix>
</trkpt>
<trkpt lat="40.0739731" lon="-105.2301259">
  <ele>1658.09</ele>
  <time>2026-08-28T19:07:53Z</time>
  <course>250.47</course>
  <speed>8.930307945418232</speed>
  <fix>3d</fix>
</trkpt>
<trkpt lat="40.0739762" lon="-105.2301133">
  <ele>1657.52</ele>
  <time>2026-08-28T19:07:53Z</time>
  <course>251.7</course>
  <speed>8.94</speed>
  <fix>3d</fix>
</trkpt>
<trkpt lat="40.073968" lon="-105.2301458">
  <ele>1658.58</ele>
  <time>2026-08-28T19:07:53Z</time>
  <course>250.37</course>
  <speed>8.933448382343741</speed>
  <fix>3d</fix>
</trkpt>
<trkpt lat="40.0739711" lon="-105.2301333">
  <ele>1658.02</ele>
  <time>2026-08-28T19:07:53Z</time>
  <course>251.61</course>
  <speed>8.94</speed>
  <fix>3d</fix>
</trkpt>
<trkpt lat="40.0739629" lon="-105.2301658">
  <ele>1659.08</ele>
  <time>2026-08-28T19:07:53Z</time>
  <course>250.29</course>
  <speed>8.946088530749067</speed>
  <fix>3d</fix>
</trkpt>
<trkpt lat="40.073966" lon="-105.2301532">
  <ele>1658.52</ele>
  <time>2026-08-28T19:07:53Z</time>
  <course>251.54</course>
  <speed>8.95</speed>
  <fix>3d</fix>
</trkpt>
<trkpt lat="40.0739578" lon="-105.2301857">
  <ele>1659.58</ele>
  <time>2026-08-28T19:07:53Z</time>
  <course>250.22</course>
  <speed>8.949245778276513</speed>
  <fix>3d</fix>
</trkpt>
<trkpt lat="40.0739609" lon="-105.2301732">
  <ele>1659.02</ele>
  <time>2026-08-28T19:07:53Z</time>
  <course>251.49</course>
  <speed>8.96</speed>
  <fix>3d</fix>
</trkpt>
<trkpt lat="40.0739527" lon="-105.2302057">
  <ele>1660.08</ele>
  <time>2026-08-28T19:07:54Z</time>
  <course>250.2</course>
  <speed>8.968221674334327</speed>
  <fix>3d</fix>
</trkpt>
<trkpt lat="40.0739558" lon="-105.2301931">
  <ele>1659.52</ele>
  <time>2026-08-28T19:07:54Z</time>
  <course>251.45</course>
  <speed>8.97</speed>
  <fix>3d</fix>
</trkpt>
<trkpt lat="40.0739476" lon="-105.2302257">
  <ele>1660.58</ele>
  <time>2026-08-28T19:07:54Z</time>
  <course>250.2</course>
  <speed>8.980868554878198</speed>
  <fix>3d</fix>
</trkpt>
<trkpt lat="40.0739507" lon="-105.230213">
  <ele>1660.02</ele>
  <time>2026-08-28T19:07:54Z</time>
  <course>251.43</course>
  <speed>8.98</speed>
  <fix>3d</fix>
</trkpt>
<trkpt lat="40.0739424" lon="-105.2302458">
  <ele>1661.08</ele>
  <time>2026-08-28T19:07:54Z</time>
  <course>250.2</course>
  <speed>8.999844443100114</speed>
  <fix>3d</fix>
</trkpt>
<trkpt lat="40.0739456" lon="-105.2302331">
  <ele>1660.52</ele>
  <time>2026-08-28T19:07:54Z</time>
  <course>251.43</course>
  <speed>9.0</speed>
  <fix>3d</fix>
</trkpt>
<trkpt lat="40.0739373" lon="-105.2302659">
  <ele>1661.59</ele>
  <time>2026-08-28T19:07:54Z</time>
  <course>250.21</course>
  <speed>9.009334048640888</speed>
  <fix>3d</fix>
</trkpt>
<trkpt lat="40.0739404" lon="-105.2302531">
  <ele>1661.02</ele>
  <time>2026-08-28T19:07:54Z</time>
  <course>251.45</course>
  <speed>9.01</speed>
  <fix>3d</fix>
</trkpt>
<trkpt lat="40.0739321" lon="-105.2302861">
  <ele>1662.09</ele>
  <time>2026-08-28T19:07:54Z</time>
  <course>250.28</course>
  <speed>9.028316565118882</speed>
  <fix>3d</fix>
</trkpt>
<trkpt lat="40.0739353" lon="-105.2302732">
  <ele>1661.52</ele>
  <time>2026-08-28T19:07:54Z</time>
  <course>251.48</course>
  <speed>9.03</speed>
  <fix>3d</fix>
</trkpt>
<trkpt lat="40.073927" lon="-105.2303062">
  <ele>1662.59</ele>
  <time>2026-08-28T19:07:54Z</time>
  <course>250.33</course>
  <speed>9.04730346567418</speed>
  <fix>3d</fix>
</trkpt>
<trkpt lat="40.0739301" lon="-105.2302934">
  <ele>1662.02</ele>
  <time>2026-08-28T19:07:54Z</time>
  <course>251.52</course>
  <speed>9.05</speed>
  <fix>3d</fix>
</trkpt>
<trkpt lat="40.0739219" lon="-105.2303263">
  <ele>1663.08</ele>
  <time>2026-08-28T19:07:54Z</time>
  <course>250.41</course>
  <speed>9.056798551364604</speed>
  <fix>3d</fix>
</trkpt>
<trkpt lat="40.0739249" lon="-105.2303137">
  <ele>1662.52</ele>
  <time>2026-08-28T19:07:54Z</time>
  <course>251.56</course>
  <speed>9.06</speed>
  <fix>3d</fix>
</trkpt>
<trkpt lat="40.0739167" lon="-105.2303466">
  <ele>1663.59</ele>
  <time>2026-08-28T19:07:54Z</time>
  <course>250.49</course>
  <speed>9.072667744384779</speed>
  <fix>3d</fix>
</trkpt>
<trkpt lat="40.0739198" lon="-105.2303339">
  <ele>1663.01</ele>
  <time>2026-08-28T19:07:54Z</time>
  <course>251.62</course>
  <speed>9.08</speed>
  <fix>3d</fix>
</trkpt>
<trkpt lat="40.0739116" lon="-105.2303668">
  <ele>1664.08</ele>
  <time>2026-08-28T19:07:54Z</time>
  <course>250.59</course>
  <speed>9.079058321213715</speed>
  <fix>3d</fix>
</trkpt>
<trkpt lat="40.0739146" lon="-105.2303541">
  <ele>1663.51</ele>
  <time>2026-08-28T19:07:54Z</time>
  <course>251.68</course>
  <speed>9.09</speed>
  <fix>3d</fix>
</trkpt>
<trkpt lat="40.0739065" lon="-105.230387">
  <ele>1664.58</ele>
  <time>2026-08-28T19:07:54Z</time>
  <course>250.66</course>
  <speed>9.098071224166143</speed>
  <fix>3d</fix>
</trkpt>
<trkpt lat="40.0739095" lon="-105.2303744">
  <ele>1664.01</ele>
  <time>2026-08-28T19:07:54Z</time>
  <course>251.74</course>
  <speed>9.11</speed>
  <fix>3d</fix>
</trkpt>
<trkpt lat="40.0739014" lon="-105.2304073">
  <ele>1665.07</ele>
  <time>2026-08-28T19:07:54Z</time>
  <course>250.73</course>
  <speed>9.104487904324987</speed>
  <fix>3d</fix>
</trkpt>
<trkpt lat="40.0739044" lon="-105.2303947">
  <ele>1664.5</ele>
  <time>2026-08-28T19:07:54Z</time>
  <course>251.81</course>
  <speed>9.12</speed>
  <fix>3d</fix>
</trkpt>
<trkpt lat="40.0738963" lon="-105.2304277">
  <ele>1665.57</ele>
  <time>2026-08-28T19:07:54Z</time>
  <course>250.82</course>
  <speed>9.114000219442612</speed>
  <fix>3d</fix>
</trkpt>
<trkpt lat="40.0738993" lon="-105.230415">
  <ele>1665.0</ele>
  <time>2026-08-28T19:07:54Z</time>
  <course>251.87</course>
  <speed>9.13</speed>
  <fix>3d</fix>
</trkpt>
<trkpt lat="40.0738912" lon="-105.230448">
  <ele>1666.07</ele>
  <time>2026-08-28T19:07:54Z</time>
  <course>250.88</course>
  <speed>9.120438585945305</speed>
  <fix>3d</fix>
</trkpt>
<trkpt lat="40.0738942" lon="-105.2304355">
  <ele>1665.5</ele>
  <time>2026-08-28T19:07:54Z</time>
  <course>251.92</course>
  <speed>9.14</speed>
  <fix>3d</fix>
</trkpt>
<trkpt lat="40.0738861" lon="-105.2304685">
  <ele>1666.57</ele>
  <time>2026-08-28T19:07:54Z</time>
  <course>250.95</course>
  <speed>9.129956188284805</speed>
  <fix>3d</fix>
</trkpt>
<trkpt lat="40.0738891" lon="-105.2304559">
  <ele>1666.0</ele>
  <time>2026-08-28T19:07:54Z</time>
  <course>251.97</course>
  <speed>9.15</speed>
  <fix>3d</fix>
</trkpt>
<trkpt lat="40.073881" lon="-105.230489">
  <ele>1667.07</ele>
  <time>2026-08-28T19:07:54Z</time>
  <course>251.03</course>
  <speed>9.12689432391983</speed>
  <fix>3d</fix>
</trkpt>
<trkpt lat="40.073884" lon="-105.2304763">
  <ele>1666.5</ele>
  <time>2026-08-28T19:07:54Z</time>
  <course>252.01</course>
  <speed>9.16</speed>
  <fix>3d</fix>
</trkpt>
<trkpt lat="40.073876" lon="-105.2305094">
  <ele>1667.57</ele>
  <time>2026-08-28T19:07:54Z</time>
  <course>251.09</course>
  <speed>9.12689432391983</speed>
  <fix>3d</fix>
</trkpt>
<trkpt lat="40.0738789" lon="-105.2304968">
  <ele>1667.0</ele>
  <time>2026-08-28T19:07:54Z</time>
  <course>252.04</course>
  <speed>9.16</speed>
  <fix>3d</fix>
</trkpt>
<trkpt lat="40.0738709" lon="-105.2305299">
  <ele>1668.07</ele>
  <time>2026-08-28T19:07:54Z</time>
  <course>251.19</course>
  <speed>9.12689432391983</speed>
  <fix>3d</fix>
</trkpt>
<trkpt lat="40.0738738" lon="-105.2305173">
  <ele>1667.5</ele>
  <time>2026-08-28T19:07:54Z</time>
  <course>252.06</course>
  <speed>9.16</speed>
  <fix>3d</fix>
</trkpt>
<trkpt lat="40.0738658" lon="-105.2305504">
  <ele>1668.57</ele>
  <time>2026-08-28T19:07:54Z</time>
  <course>251.27</course>
  <speed>9.11431840567357</speed>
  <fix>3d</fix>
</trkpt>
<trkpt lat="40.0738688" lon="-105.2305378">
  <ele>1668.0</ele>
  <time>2026-08-28T19:07:54Z</time>
  <course>252.08</course>
  <speed>9.15</speed>
  <fix>3d</fix>
</trkpt>
<trkpt lat="40.0738608" lon="-105.2305708">
  <ele>1669.07</ele>
  <time>2026-08-28T19:07:54Z</time>
  <course>251.33</course>
  <speed>9.11431840567357</speed>
  <fix>3d</fix>
</trkpt>
<trkpt lat="40.0738637" lon="-105.2305582">
  <ele>1668.5</ele>
  <time>2026-08-28T19:07:54Z</time>
  <course>252.1</course>
  <speed>9.14</speed>
  <fix>3d</fix>
</trkpt>
<trkpt lat="40.0738557" lon="-105.2305912">
  <ele>1669.56</ele>
  <time>2026-08-28T19:07:54Z</time>
  <course>251.34</course>
  <speed>9.104795439766892</speed>
  <fix>3d</fix>
</trkpt>
<trkpt lat="40.0738587" lon="-105.2305787">
  <ele>1669.0</ele>
  <time>2026-08-28T19:07:54Z</time>
  <course>252.11</course>
  <speed>9.13</speed>
  <fix>3d</fix>
</trkpt>
<trkpt lat="40.0738507" lon="-105.2306116">
  <ele>1670.06</ele>
  <time>2026-08-28T19:07:54Z</time>
  <course>251.37</course>
  <speed>9.092221950656505</speed>
  <fix>3d</fix>
</trkpt>
<trkpt lat="40.0738537" lon="-105.230599">
  <ele>1669.5</ele>
  <time>2026-08-28T19:07:54Z</time>
  <course>252.11</course>
  <speed>9.12</speed>
  <fix>3d</fix>
</trkpt>
<trkpt lat="40.0738457" lon="-105.230632">
  <ele>1670.56</ele>
  <time>2026-08-28T19:07:54Z</time>
  <course>251.37</course>
  <speed>9.08269783709664</speed>
  <fix>3d</fix>
</trkpt>
<trkpt lat="40.0738486" lon="-105.2306194">
  <ele>1670.01</ele>
  <time>2026-08-28T19:07:54Z</time>
  <course>252.11</course>
  <speed>9.11</speed>
  <fix>3d</fix>
</trkpt>
<trkpt lat="40.0738406" lon="-105.2306523">
  <ele>1671.06</ele>
  <time>2026-08-28T19:07:54Z</time>
  <course>251.37</course>
  <speed>9.0731747475732</speed>
  <fix>3d</fix>
</trkpt>
<trkpt lat="40.0738435" lon="-105.2306397">
  <ele>1670.51</ele>
  <time>2026-08-28T19:07:54Z</time>
  <course>252.09</course>
  <speed>9.1</speed>
  <fix>3d</fix>
</trkpt>
<trkpt lat="40.0738356" lon="-105.2306726">
  <ele>1671.56</ele>
  <time>2026-08-28T19:07:54Z</time>
  <course>251.34</course>
  <speed>9.066713847916454</speed>
  <fix>3d</fix>
</trkpt>
<trkpt lat="40.0738386" lon="-105.2306601">
  <ele>1671.01</ele>
  <time>2026-08-28T19:07:54Z</time>
  <course>252.07</course>
  <speed>9.09</speed>
  <fix>3d</fix>
</trkpt>
<trkpt lat="40.0738306" lon="-105.230693">
  <ele>1672.07</ele>
  <time>2026-08-28T19:07:54Z</time>
  <course>251.31</course>
  <speed>9.057196034093554</speed>
  <fix>3d</fix>
</trkpt>
<trkpt lat="40.0738335" lon="-105.2306804">
  <ele>1671.51</ele>
  <time>2026-08-28T19:07:54Z</time>
  <course>252.04</course>
  <speed>9.09</speed>
  <fix>3d</fix>
</trkpt>
<trkpt lat="40.0738255" lon="-105.2307132">
  <ele>1672.57</ele>
  <time>2026-08-28T19:07:54Z</time>
  <course>251.31</course>
  <speed>9.057196034093554</speed>
  <fix>3d</fix>
</trkpt>
<trkpt lat="40.0738285" lon="-105.2307007">
  <ele>1672.01</ele>
  <time>2026-08-28T19:07:54Z</time>
  <course>252.01</course>
  <speed>9.08</speed>
  <fix>3d</fix>
</trkpt>
<trkpt lat="40.0738205" lon="-105.2307335">
  <ele>1673.07</ele>
  <time>2026-08-28T19:07:54Z</time>
  <course>251.3</course>
  <speed>9.050756874427686</speed>
  <fix>3d</fix>
</trkpt>
<trkpt lat="40.0738234" lon="-105.230721">
  <ele>1672.51</ele>
  <time>2026-08-28T19:07:54Z</time>
  <course>251.97</course>
  <speed>9.07</speed>
  <fix>3d</fix>
</trkpt>
<trkpt lat="40.0738154" lon="-105.2307538">
  <ele>1673.57</ele>
  <time>2026-08-28T19:07:54Z</time>
  <course>251.26</course>
  <speed>9.050756874427686</speed>
  <fix>3d</fix>
</trkpt>
<trkpt lat="40.0738184" lon="-105.2307412">
  <ele>1673.01</ele>
  <time>2026-08-28T19:07:54Z</time>
  <course>251.94</course>
  <speed>9.07</speed>
  <fix>3d</fix>
</trkpt>
<trkpt lat="40.0738103" lon="-105.2307741">
  <ele>1674.08</ele>
  <time>2026-08-28T19:07:54Z</time>
  <course>251.23</course>
  <speed>9.04124438337998</speed>
  <fix>3d</fix>
</trkpt>
<trkpt lat="40.0738133" lon="-105.2307615">
  <ele>1673.51</ele>
  <time>2026-08-28T19:07:54Z</time>
  <course>251.91</course>
  <speed>9.06</speed>
  <fix>3d</fix>
</trkpt>
<trkpt lat="40.0738053" lon="-105.2307943">
  <ele>1674.58</ele>
  <time>2026-08-28T19:07:54Z</time>
  <course>251.26</course>
  <speed>9.044335243676011</speed>
  <fix>3d</fix>
</trkpt>
<trkpt lat="40.0738082" lon="-105.2307817">
  <ele>1674.01</ele>
  <time>2026-08-28T19:07:54Z</time>
  <course>251.87</course>
  <speed>9.06</speed>
  <fix>3d</fix>
</trkpt>
<trkpt lat="40.0738002" lon="-105.2308144">
  <ele>1675.07</ele>
  <time>2026-08-28T19:07:54Z</time>
  <course>251.21</course>
  <speed>9.034827059772645</speed>
  <fix>3d</fix>
</trkpt>
<trkpt lat="40.0738032" lon="-105.2308018">
  <ele>1674.5</ele>
  <time>2026-08-28T19:07:54Z</time>
  <course>251.85</course>
  <speed>9.05</speed>
  <fix>3d</fix>
</trkpt>
<trkpt lat="40.0737951" lon="-105.2308346">
  <ele>1675.57</ele>
  <time>2026-08-28T19:07:54Z</time>
  <course>251.15</course>
  <speed>9.034827059772645</speed>
  <fix>3d</fix>
</trkpt>
<trkpt lat="40.0737981" lon="-105.2308221">
  <ele>1675.0</ele>
  <time>2026-08-28T19:07:54Z</time>
  <course>251.83</course>
  <speed>9.05</speed>
  <fix>3d</fix>
</trkpt>
<trkpt lat="40.0737901" lon="-105.2308547">
  <ele>1676.07</ele>
  <time>2026-08-28T19:07:54Z</time>
  <course>251.1</course>
  <speed>9.047436100907262</speed>
  <fix>3d</fix>
</trkpt>
<trkpt lat="40.073793" lon="-105.2308423">
  <ele>1675.49</ele>
  <time>2026-08-28T19:07:54Z</time>
  <course>251.81</course>
  <speed>9.06</speed>
  <fix>3d</fix>
</trkpt>
<trkpt lat="40.073785" lon="-105.2308749">
  <ele>1676.57</ele>
  <time>2026-08-28T19:07:54Z</time>
  <course>251.04</course>
  <speed>9.047436100907262</speed>
  <fix>3d</fix>
</trkpt>
<trkpt lat="40.073788" lon="-105.2308626">
  <ele>1675.99</ele>
  <time>2026-08-28T19:07:54Z</time>
  <course>251.79</course>
  <speed>9.07</speed>
  <fix>3d</fix>
</trkpt>
<trkpt lat="40.0737799" lon="-105.2308952">
  <ele>1677.07</ele>
  <time>2026-08-28T19:07:54Z</time>
  <course>251.01</course>
  <speed>9.060049668738026</speed>
  <fix>3d</fix>
</trkpt>
<trkpt lat="40.0737829" lon="-105.2308827">
  <ele>1676.48</ele>
  <time>2026-08-28T19:07:54Z</time>
  <course>251.77</course>
  <speed>9.08</speed>
  <fix>3d</fix>
</trkpt>
<trkpt lat="40.0737748" lon="-105.2309154">
  <ele>1677.57</ele>
  <time>2026-08-28T19:07:54Z</time>
  <course>251.03</course>
  <speed>9.0695534619958</speed>
  <fix>3d</fix>
</trkpt>
<trkpt lat="40.0737778" lon="-105.230903">
  <ele>1676.98</ele>
  <time>2026-08-28T19:07:54Z</time>
  <course>251.75</course>
  <speed>9.09</speed>
  <fix>3d</fix>
</trkpt>
<trkpt lat="40.0737697" lon="-105.2309357">
  <ele>1678.07</ele>
  <time>2026-08-28T19:07:54Z</time>
  <course>251.0</course>
  <speed>9.08216934438023</speed>
  <fix>3d</fix>
</trkpt>
<trkpt lat="40.0737727" lon="-105.2309234">
  <ele>1677.48</ele>
  <time>2026-08-28T19:07:54Z</time>
  <course>251.74</course>
  <speed>9.1</speed>
  <fix>3d</fix>
</trkpt>
<trkpt lat="40.0737646" lon="-105.230956">
  <ele>1678.56</ele>
  <time>2026-08-28T19:07:54Z</time>
  <course>251.01</course>
  <speed>9.091672013441752</speed>
  <fix>3d</fix>
</trkpt>
<trkpt lat="40.0737675" lon="-105.2309437">
  <ele>1677.97</ele>
  <time>2026-08-28T19:07:54Z</time>
  <course>251.74</course>
  <speed>9.11</speed>
  <fix>3d</fix>
</trkpt>
<trkpt lat="40.0737594" lon="-105.2309764">
  <ele>1679.05</ele>
  <time>2026-08-28T19:07:54Z</time>
  <course>250.99</course>
  <speed>9.091672013441752</speed>
  <fix>3d</fix>
</trkpt>
<trkpt lat="40.0737624" lon="-105.230964">
  <ele>1678.47</ele>
  <time>2026-08-28T19:07:54Z</time>
  <course>251.74</course>
  <speed>9.11</speed>
  <fix>3d</fix>
</trkpt>
<trkpt lat="40.0737543" lon="-105.2309967">
  <ele>1679.55</ele>
  <time>2026-08-28T19:07:54Z</time>
  <course>251.1</course>
  <speed>9.0695534619958</speed>
  <fix>3d</fix>
</trkpt>
<trkpt lat="40.0737572" lon="-105.2309843">
  <ele>1678.97</ele>
  <time>2026-08-28T19:07:54Z</time>
  <course>251.74</course>
  <speed>9.11</speed>
  <fix>3d</fix>
</trkpt>
<trkpt lat="40.0737492" lon="-105.2310169">
  <ele>1680.05</ele>
  <time>2026-08-28T19:07:54Z</time>
  <course>251.38</course>
  <speed>9.006308899876796</speed>
  <fix>3d</fix>
</trkpt>
<trkpt lat="40.0737521" lon="-105.2310046">
  <ele>1679.47</ele>
  <time>2026-08-28T19:07:54Z</time>
  <course>251.74</course>
  <speed>9.08</speed>
  <fix>3d</fix>
</trkpt>
<trkpt lat="40.0737441" lon="-105.2310369">
  <ele>1680.55</ele>
  <time>2026-08-28T19:07:54Z</time>
  <course>251.89</course>
  <speed>8.88932505874321</speed>
  <fix>3d</fix>
</trkpt>
<trkpt lat="40.073747" lon="-105.2310248">
  <ele>1679.97</ele>
  <time>2026-08-28T19:07:54Z</time>
  <course>251.75</course>
  <speed>9.0</speed>
  <fix>3d</fix>
</trkpt>
<trkpt lat="40.0737392" lon="-105.2310566">
  <ele>1681.06</ele>
  <time>2026-08-28T19:07:54Z</time>
  <course>252.56</course>
  <speed>8.70909869045012</speed>
  <fix>3d</fix>
</trkpt>
<trkpt lat="40.073742" lon="-105.2310448">
  <ele>1680.48</ele>
  <time>2026-08-28T19:07:54Z</time>
  <course>251.79</course>
  <speed>8.87</speed>
  <fix>3d</fix>
</trkpt>
<trkpt lat="40.0737343" lon="-105.2310759">
  <ele>1681.55</ele>
  <time>2026-08-28T19:07:54Z</time>
  <course>253.32</course>
  <speed>8.491083558651393</speed>
  <fix>3d</fix>
</trkpt>
<trkpt lat="40.0737371" lon="-105.2310643">
  <ele>1680.99</ele>
  <time>2026-08-28T19:07:54Z</time>
  <course>251.89</course>
  <speed>8.68</speed>
  <fix>3d</fix>
</trkpt>
<trkpt lat="40.0737297" lon="-105.2310946">
  <ele>1682.03</ele>
  <time>2026-08-28T19:07:54Z</time>
  <course>254.11</course>
  <speed>8.222469215509415</speed>
  <fix>3d</fix>
</trkpt>
<trkpt lat="40.0737323" lon="-105.2310834">
  <ele>1681.48</ele>
  <time>2026-08-28T19:07:54Z</time>
  <course>252.05</course>
  <speed>8.45</speed>
  <fix>3d</fix>
</trkpt>
<trkpt lat="40.0737252" lon="-105.2311129">
  <ele>1682.49</ele>
  <time>2026-08-28T19:07:54Z</time>
  <course>254.91</course>
  <speed>7.906706014517044</speed>
  <fix>3d</fix>
</trkpt>
<trkpt lat="40.0737278" lon="-105.231102">
  <ele>1681.96</ele>
  <time>2026-08-28T19:07:54Z</time>
  <course>252.25</course>
  <speed>8.17</speed>
  <fix>3d</fix>
</trkpt>
<trkpt lat="40.073721" lon="-105.2311303">
  <ele>1682.93</ele>
  <time>2026-08-28T19:07:54Z</time>
  <course>255.67</course>
  <speed>7.56246652885155</speed>
  <fix>3d</fix>
</trkpt>
<trkpt lat="40.0737234" lon="-105.23112">
  <ele>1682.42</ele>
  <time>2026-08-28T19:07:54Z</time>
  <course>252.5</course>
  <speed>7.84</speed>
  <fix>3d</fix>
</trkpt>
<trkpt lat="40.0737171" lon="-105.2311469">
  <ele>1683.34</ele>
  <time>2026-08-28T19:07:54Z</time>
  <course>256.42</course>
  <speed>7.164670264569054</speed>
  <fix>3d</fix>
</trkpt>
<trkpt lat="40.0737192" lon="-105.2311371">
  <ele>1682.86</ele>
  <time>2026-08-28T19:07:54Z</time>
  <course>252.76</course>
  <speed>7.47</speed>
  <fix>3d</fix>
</trkpt>
<trkpt lat="40.0737133" lon="-105.2311628">
  <ele>1683.73</ele>
  <time>2026-08-28T19:07:54Z</time>
  <course>257.11</course>
  <speed>6.7287517415936815</speed>
  <fix>3d</fix>
</trkpt>
<trkpt lat="40.0737154" lon="-105.2311535">
  <ele>1683.26</ele>
  <time>2026-08-28T19:07:54Z</time>
  <course>253.03</course>
  <speed>7.06</speed>
  <fix>3d</fix>
</trkpt>
<trkpt lat="40.0737099" lon="-105.2311775">
  <ele>1684.08</ele>
  <time>2026-08-28T19:07:54Z</time>
  <course>257.74</course>
  <speed>6.251735758971264</speed>
  <fix>3d</fix>
</trkpt>
<trkpt lat="40.0737119" lon="-105.2311689">
  <ele>1683.63</ele>
  <time>2026-08-28T19:07:54Z</time>
  <course>253.3</course>
  <speed>6.61</speed>
  <fix>3d</fix>
</trkpt>
<trkpt lat="40.0737068" lon="-105.2311911">
  <ele>1684.4</ele>
  <time>2026-08-28T19:07:54Z</time>
  <course>258.31</course>
  <speed>5.7336201478646975</speed>
  <fix>3d</fix>
</trkpt>
<trkpt lat="40.0737086" lon="-105.2311833">
  <ele>1683.98</ele>
  <time>2026-08-28T19:07:54Z</time>
  <course>253.56</course>
  <speed>6.12</speed>
  <fix>3d</fix>
</trkpt>
<trkpt lat="40.0737041" lon="-105.2312036">
  <ele>1684.69</ele>
  <time>2026-08-28T19:07:54Z</time>
  <course>258.82</course>
  <speed>5.186800555255619</speed>
  <fix>3d</fix>
</trkpt>
<trkpt lat="40.0737057" lon="-105.2311965">
  <ele>1684.3</ele>
  <time>2026-08-28T19:07:54Z</time>
  <course>253.81</course>
  <speed>5.59</speed>
  <fix>3d</fix>
</trkpt>
<trkpt lat="40.0737016" lon="-105.2312148">
  <ele>1684.94</ele>
  <time>2026-08-28T19:07:54Z</time>
  <course>259.17</course>
  <speed>4.620822437618654</speed>
  <fix>3d</fix>
</trkpt>
<trkpt lat="40.073703" lon="-105.2312084">
  <ele>1684.58</ele>
  <time>2026-08-28T19:07:54Z</time>
  <course>254.04</course>
  <speed>5.03</speed>
  <fix>3d</fix>
</trkpt>
<trkpt lat="40.0736994" lon="-105.2312248">
  <ele>1685.15</ele>
  <time>2026-08-28T19:07:54Z</time>
  <course>259.36</course>
  <speed>4.05763477903076</speed>
  <fix>3d</fix>
</trkpt>
<trkpt lat="40.0737006" lon="-105.2312192">
  <ele>1684.82</ele>
  <time>2026-08-28T19:07:54Z</time>
  <course>254.26</course>
  <speed>4.46</speed>
  <fix>3d</fix>
</trkpt>
<trkpt lat="40.0736976" lon="-105.2312334">
  <ele>1685.34</ele>
  <time>2026-08-28T19:07:54Z</time>
  <course>259.38</course>
  <speed>3.4944527468546487</speed>
  <fix>3d</fix>
</trkpt>
<trkpt lat="40.0736986" lon="-105.2312286">
  <ele>1685.03</ele>
  <time>2026-08-28T19:07:54Z</time>
  <course>254.46</course>
  <speed>3.89</speed>
  <fix>3d</fix>
</trkpt>
<trkpt lat="40.073696" lon="-105.2312409">
  <ele>1685.49</ele>
  <time>2026-08-28T19:07:54Z</time>
  <course>259.28</course>
  <speed>2.943637205907005</speed>
  <fix>3d</fix>
</trkpt>
<trkpt lat="40.0736969" lon="-105.2312368">
  <ele>1685.21</ele>
  <time>2026-08-28T19:07:54Z</time>
  <course>254.62</course>
  <speed>3.33</speed>
  <fix>3d</fix>
</trkpt>
<trkpt lat="40.0736947" lon="-105.231247">
  <ele>1685.62</ele>
  <time>2026-08-28T19:07:54Z</time>
  <course>258.99</course>
  <speed>2.4148084810187327</speed>
  <fix>3d</fix>
</trkpt>
<trkpt lat="40.0736955" lon="-105.2312437">
  <ele>1685.36</ele>
  <time>2026-08-28T19:07:54Z</time>
  <course>254.66</course>
  <speed>2.78</speed>
  <fix>3d</fix>
</trkpt>
<trkpt lat="40.0736936" lon="-105.231252">
  <ele>1685.72</ele>
  <time>2026-08-28T19:07:54Z</time>
  <course>258.43</course>
  <speed>1.8984203960134858</speed>
  <fix>3d</fix>
</trkpt>
<trkpt lat="40.0736943" lon="-105.2312494">
  <ele>1685.48</ele>
  <time>2026-08-28T19:07:54Z</time>
  <course>254.52</course>
  <speed>2.25</speed>
  <fix>3d</fix>
</trkpt>
<trkpt lat="40.0736928" lon="-105.2312558">
  <ele>1685.8</ele>
  <time>2026-08-28T19:07:54Z</time>
  <course>257.49</course>
  <speed>1.4358969322343438</speed>
  <fix>3d</fix>
</trkpt>
<trkpt lat="40.0736933" lon="-105.2312539">
  <ele>1685.58</ele>
  <time>2026-08-28T19:07:54Z</time>
  <course>254.1</course>
  <speed>1.74</speed>
  <fix>3d</fix>
</trkpt>
<trkpt lat="40.0736921" lon="-105.2312587">
  <ele>1685.87</ele>
  <time>2026-08-28T19:07:54Z</time>
  <course>256.1</course>
  <speed>1.0340696301506973</speed>
  <fix>3d</fix>
</trkpt>
<trkpt lat="40.0736925" lon="-105.2312573">
  <ele>1685.66</ele>
  <time>2026-08-28T19:07:54Z</time>
  <course>253.29</course>
  <speed>1.29</speed>
  <fix>3d</fix>
</trkpt>
<trkpt lat="40.0736916" lon="-105.2312606">
  <ele>1685.92</ele>
  <time>2026-08-28T19:07:54Z</time>
  <course>254.52</course>
  <speed>0.6946221994724903</speed>
  <fix>3d</fix>
</trkpt>
<trkpt lat="40.0736919" lon="-105.2312598">
  <ele>1685.72</ele>
  <time>2026-08-28T19:07:54Z</time>
  <course>251.56</course>
  <speed>0.9</speed>
  <fix>3d</fix>
</trkpt>
<trkpt lat="40.0736912" lon="-105.2312619">
  <ele>1685.96</ele>
  <time>2026-08-28T19:07:54Z</time>
  <course>254.61</course>
  <speed>0.4167733196834941</speed>
  <fix>3d</fix>
</trkpt>
<trkpt lat="40.0736914" lon="-105.2312614">
  <ele>1685.77</ele>
  <time>2026-08-28T19:07:54Z</time>
  <course>247.31</course>
  <speed>0.57</speed>
  <fix>3d</fix>
</trkpt>
<trkpt lat="40.0736909" lon="-105.2312625">
  <ele>1685.99</ele>
  <time>2026-08-28T19:07:54Z</time>
  <course>254.49</course>
  <speed>0.212602916254693</speed>
  <fix>3d</fix>
</trkpt>
<trkpt lat="40.0736911" lon="-105.2312623">
  <ele>1685.81</ele>
  <time>2026-08-28T19:07:54Z</time>
  <course>236.42</course>
  <speed>0.3</speed>
  <fix>3d</fix>
</trkpt>
<trkpt lat="40.0736907" lon="-105.2312626">
  <ele>1686.02</ele>
  <time>2026-08-28T19:07:54Z</time>
  <course>254.42</course>
  <speed>0.130384048104053</speed>
  <fix>3d</fix>
</trkpt>
<trkpt lat="40.0736909" lon="-105.2312626">
  <ele>1685.84</ele>
  <time>2026-08-28T19:07:54Z</time>
  <course>199.57</course>
  <speed>0.14</speed>
  <fix>3d</fix>
</trkpt>
<trkpt lat="40.0736905" lon="-105.2312624">
  <ele>1686.04</ele>
  <time>2026-08-28T19:07:54Z</time>
  <course>254.38</course>
  <speed>0.17029386365926402</speed>
  <fix>3d</fix>
</trkpt>
<trkpt lat="40.0736907" lon="-105.2312626">
  <ele>1685.87</ele>
  <time>2026-08-28T19:07:54Z</time>
  <course>136.08</course>
  <speed>0.15</speed>
  <fix>3d</fix>
</trkpt>
<trkpt lat="40.0736903" lon="-105.231262">
  <ele>1686.05</ele>
  <time>2026-08-28T19:07:54Z</time>
  <course>254.31</course>
  <speed>0.223606797749979</speed>
  <fix>3d</fix>
</trkpt>
<trkpt lat="40.0736905" lon="-105.2312623">
  <ele>1685.89</ele>
  <time>2026-08-28T19:07:54Z</time>
  <course>115.68</course>
  <speed>0.23</speed>
  <fix>3d</fix>
</trkpt>
<trkpt lat="40.0736901" lon="-105.2312615">
  <ele>1686.06</ele>
  <time>2026-08-28T19:07:54Z</time>
  <course>254.25</course>
  <speed>0.24166091947189144</speed>
  <fix>3d</fix>
</trkpt>
<trkpt lat="40.0736902" lon="-105.2312617">
  <ele>1685.91</ele>
  <time>2026-08-28T19:07:54Z</time>
  <course>110.91</course>
  <speed>0.29</speed>
  <fix>3d</fix>
</trkpt>
<trkpt lat="40.0736899" lon="-105.2312609">
  <ele>1686.06</ele>
  <time>2026-08-28T19:07:54Z</time>
  <course>254.15</course>
  <speed>0.23706539182259395</speed>
  <fix>3d</fix>
</trkpt>
<trkpt lat="40.0736901" lon="-105.231261">
  <ele>1685.92</ele>
  <time>2026-08-28T19:07:54Z</time>
  <course>111.79</course>
  <speed>0.3</speed>
  <fix>3d</fix>
</trkpt>
<trkpt lat="40.0736897" lon="-105.2312603">
  <ele>1686.07</ele>
  <time>2026-08-28T19:07:54Z</time>
  <course>254.09</course>
  <speed>0.21400934559032694</speed>
  <fix>3d</fix>
</trkpt>
<trkpt lat="40.0736899" lon="-105.2312604">
  <ele>1685.92</ele>
  <time>2026-08-28T19:07:54Z</time>
  <course>116.8</course>
  <speed>0.29</speed>
  <fix>3d</fix>
</trkpt>
<trkpt lat="40.0736895" lon="-105.2312599">
  <ele>1686.07</ele>
  <time>2026-08-28T19:07:54Z</time>
  <course>253.97</course>
  <speed>0.18027756377319945</speed>
  <fix>3d</fix>
</trkpt>
<trkpt lat="40.0736896" lon="-105.2312598">
  <ele>1685.93</ele>
  <time>2026-08-28T19:07:54Z</time>
  <course>127.06</course>
  <speed>0.25</speed>
  <fix>3d</fix>
</trkpt>
<trkpt lat="40.0736892" lon="-105.2312596">
  <ele>1686.07</ele>
  <time>2026-08-28T19:07:54Z</time>
  <course>253.89</course>
  <speed>0.17029386365926402</speed>
  <fix>3d</fix>
</trkpt>
<trkpt lat="40.0736893" lon="-105.2312594">
  <ele>1685.93</ele>
  <time>2026-08-28T19:07:54Z</time>
  <course>145.01</course>
  <speed>0.22</speed>
  <fix>3d</fix>
</trkpt>
<trkpt lat="40.0736888" lon="-105.2312595">
  <ele>1686.07</ele>
  <time>2026-08-28T19:07:54Z</time>
  <course>253.79</course>
  <speed>0.20248456731316586</speed>
  <fix>3d</fix>
</trkpt>
<trkpt lat="40.073689" lon="-105.2312592">
  <ele>1685.93</ele>
  <time>2026-08-28T19:07:54Z</time>
  <course>170.43</course>
  <speed>0.21</speed>
  <fix>3d</fix>
</trkpt>
<trkpt lat="40.0736884" lon="-105.2312597">
  <ele>1686.07</ele>
  <time>2026-08-28T19:07:54Z</time>
  <course>253.7</course>
  <speed>0.2640075756488817</speed>
  <fix>3d</fix>
</trkpt>
<trkpt lat="40.0736885" lon="-105.2312593">
  <ele>1685.93</ele>
  <time>2026-08-28T19:07:54Z</time>
  <course>194.53</course>
  <speed>0.24</speed>
  <fix>3d</fix>
</trkpt>
<trkpt lat="40.073688" lon="-105.2312601">
  <ele>1686.06</ele>
  <time>2026-08-28T19:07:54Z</time>
  <course>253.64</course>
  <speed>0.31827660925679097</speed>
  <fix>3d</fix>
</trkpt>
<trkpt lat="40.0736881" lon="-105.2312594">
  <ele>1685.93</ele>
  <time>2026-08-28T19:07:54Z</time>
  <course>210.32</course>
  <speed>0.3</speed>
  <fix>3d</fix>
</trkpt>
<trkpt lat="40.0736875" lon="-105.2312606">
  <ele>1686.06</ele>
  <time>2026-08-28T19:07:54Z</time>
  <course>253.59</course>
  <speed>0.35608987629529715</speed>
  <fix>3d</fix>
</trkpt>
<trkpt lat="40.0736876" lon="-105.2312599">
  <ele>1685.93</ele>
  <time>2026-08-28T19:07:54Z</time>
  <course>219.54</course>
  <speed>0.35</speed>
  <fix>3d</fix>
</trkpt>
<trkpt lat="40.0736871" lon="-105.2312612">
  <ele>1686.06</ele>
  <time>2026-08-28T19:07:54Z</time>
  <course>253.56</course>
  <speed>0.37443290453698114</speed>
  <fix>3d</fix>
</trkpt>
<trkpt lat="40.0736871" lon="-105.2312604">
  <ele>1685.93</ele>
  <time>2026-08-28T19:07:54Z</time>
  <course>225.33</course>
  <speed>0.38</speed>
  <fix>3d</fix>
</trkpt>
<trkpt lat="40.0736866" lon="-105.2312619">
  <ele>1686.06</ele>
  <time>2026-08-28T19:07:54Z</time>
  <course>253.53</course>
  <speed>0.3721558813185679</speed>
  <fix>3d</fix>
</trkpt>
<trkpt lat="40.0736866" lon="-105.2312611">
  <ele>1685.94</ele>
  <time>2026-08-28T19:07:54Z</time>
  <course>229.61</course>
  <speed>0.39</speed>
  <fix>3d</fix>
</trkpt>
<trkpt lat="40.0736862" lon="-105.2312625">
  <ele>1686.05</ele>
  <time>2026-08-28T19:07:54Z</time>
  <course>253.47</course>
  <speed>0.3488552708502482</speed>
  <fix>3d</fix>
</trkpt>
<trkpt lat="40.0736862" lon="-105.2312618">
  <ele>1685.94</ele>
  <time>2026-08-28T19:07:54Z</time>
  <course>233.42</course>
  <speed>0.39</speed>
  <fix>3d</fix>
</trkpt>
<trkpt lat="40.0736859" lon="-105.2312632">
  <ele>1686.05</ele>
  <time>2026-08-28T19:07:54Z</time>
  <course>253.45</course>
  <speed>0.3231098884280702</speed>
  <fix>3d</fix>
</trkpt>
<trkpt lat="40.0736858" lon="-105.2312626">
  <ele>1685.94</ele>
  <time>2026-08-28T19:07:54Z</time>
  <course>237.23</course>
  <speed>0.37</speed>
  <fix>3d</fix>
</trkpt>
<trkpt lat="40.0736856" lon="-105.2312639">
  <ele>1686.06</ele>
  <time>2026-08-28T19:07:54Z</time>
  <course>253.42</course>
  <speed>0.2816025568065745</speed>
  <fix>3d</fix>
</trkpt>
<trkpt lat="40.0736855" lon="-105.2312633">
  <ele>1685.95</ele>
  <time>2026-08-28T19:07:54Z</time>
  <course>241.29</course>
  <speed>0.34</speed>
  <fix>3d</fix>
</trkpt>
<trkpt lat="40.0736854" lon="-105.2312645">
  <ele>1686.06</ele>
  <time>2026-08-28T19:07:54Z</time>
  <course>253.36</course>
  <speed>0.23345235059857505</speed>
  <fix>3d</fix>
</trkpt>
<trkpt lat="40.0736852" lon="-105.231264">
  <ele>1685.95</ele>
  <time>2026-08-28T19:07:54Z</time>
  <course>246.01</course>
  <speed>0.3</speed>
  <fix>3d</fix>
</trkpt>
<trkpt lat="40.0736852" lon="-105.231265">
  <ele>1686.07</ele>
  <time>2026-08-28T19:07:54Z</time>
  <course>253.35</course>
  <speed>0.19</speed>
  <fix>3d</fix>
</trkpt>
<trkpt lat="40.073685" lon="-105.2312647">
  <ele>1685.96</ele>
  <time>2026-08-28T19:07:54Z</time>
  <course>251.85</course>
  <speed>0.25</speed>
  <fix>3d</fix>
</trkpt>
<trkpt lat="40.0736852" lon="-105.2312654">
  <ele>1686.08</ele>
  <time>2026-08-28T19:07:54Z</time>
  <course>253.31</course>
  <speed>0.14317821063276354</speed>
  <fix>3d</fix>
</trkpt>
<trkpt lat="40.0736849" lon="-105.2312652">
  <ele>1685.96</ele>
  <time>2026-08-28T19:07:54Z</time>
  <course>259.73</course>
  <speed>0.2</speed>
  <fix>3d</fix>
</trkpt>
<trkpt lat="40.0736852" lon="-105.2312657">
  <ele>1686.08</ele>
  <time>2026-08-28T19:07:54Z</time>
  <course>253.28</course>
  <speed>0.11401754250991379</speed>
  <fix>3d</fix>
</trkpt>
<trkpt lat="40.0736848" lon="-105.2312656">
  <ele>1685.97</ele>
  <time>2026-08-28T19:07:54Z</time>
  <course>271.9</course>
  <speed>0.15</speed>
  <fix>3d</fix>
</trkpt>
<trkpt lat="40.0736852" lon="-105.2312659">
  <ele>1686.08</ele>
  <time>2026-08-28T19:07:54Z</time>
  <course>253.23</course>
  <speed>0.11704699910719625</speed>
  <fix>3d</fix>
</trkpt>
<trkpt lat="40.0736848" lon="-105.2312658">
  <ele>1685.97</ele>
  <time>2026-08-28T19:07:54Z</time>
  <course>292.65</course>
  <speed>0.11</speed>
  <fix>3d</fix>
</trkpt>
<trkpt lat="40.0736854" lon="-105.231266">
  <ele>1686.09</ele>
  <time>2026-08-28T19:07:54Z</time>
  <course>253.18</course>
  <speed>0.13</speed>
  <fix>3d</fix>
</trkpt>
<trkpt lat="40.073685" lon="-105.2312661">
  <ele>1685.97</ele>
  <time>2026-08-28T19:07:54Z</time>
  <course>324.57</course>
  <speed>0.09</speed>
  <fix>3d</fix>
</trkpt>
<trkpt lat="40.0736856" lon="-105.2312661">
  <ele>1686.09</ele>
  <time>2026-08-28T19:07:54Z</time>
  <course>253.14</course>
  <speed>0.1649242250247064</speed>
  <fix>3d</fix>
</trkpt>
<trkpt lat="40.0736852" lon="-105.2312661">
  <ele>1685.97</ele>
  <time>2026-08-28T19:07:54Z</time>
  <course>355.4</course>
  <speed>0.1</speed>
  <fix>3d</fix>
</trkpt>
<trkpt lat="40.0736858" lon="-105.2312659">
  <ele>1686.09</ele>
  <time>2026-08-28T19:07:54Z</time>
  <course>253.08</course>
  <speed>0.20124611797498107</speed>
  <fix>3d</fix>
</trkpt>
<trkpt lat="40.0736854" lon="-105.2312661">
  <ele>1685.97</ele>
  <time>2026-08-28T19:07:54Z</time>
  <course>14.73</course>
  <speed>0.13</speed>
  <fix>3d</fix>
</trkpt>
<trkpt lat="40.0736861" lon="-105.2312657">
  <ele>1686.08</ele>
  <time>2026-08-28T19:07:54Z</time>
  <course>253.04</course>
  <speed>0.22472205054244232</speed>
  <fix>3d</fix>
</trkpt>
<trkpt lat="40.0736856" lon="-105.231266">
  <ele>1685.97</ele>
  <time>2026-08-28T19:07:54Z</time>
  <course>26.03</course>
  <speed>0.17</speed>
  <fix>3d</fix>
</trkpt>
<trkpt lat="40.0736863" lon="-105.2312655">
  <ele>1686.08</ele>
  <time>2026-08-28T19:07:54Z</time>
  <course>252.97</course>
  <speed>0.25</speed>
  <fix>3d</fix>
</trkpt>
<trkpt lat="40.0736859" lon="-105.2312658">
  <ele>1685.96</ele>
  <time>2026-08-28T19:07:54Z</time>
  <course>33.23</course>
  <speed>0.19</speed>
  <fix>3d</fix>
</trkpt>
<trkpt lat="40.0736866" lon="-105.2312651">
  <ele>1686.08</ele>
  <time>2026-08-28T19:07:54Z</time>
  <course>252.92</course>
  <speed>0.26248809496813374</speed>
  <fix>3d</fix>
</trkpt>
<trkpt lat="40.0736862" lon="-105.2312656">
  <ele>1685.96</ele>
  <time>2026-08-28T19:07:54Z</time>
  <course>38.29</course>
  <speed>0.21</speed>
  <fix>3d</fix>
</trkpt>
<trkpt lat="40.0736869" lon="-105.2312648">
  <ele>1686.07</ele>
  <time>2026-08-28T19:07:54Z</time>
  <course>252.86</course>
  <speed>0.26870057685088805</speed>
  <fix>3d</fix>
</trkpt>
<trkpt lat="40.0736865" lon="-105.2312652">
  <ele>1685.96</ele>
  <time>2026-08-28T19:07:54Z</time>
  <course>42.2</course>
  <speed>0.23</speed>
  <fix>3d</fix>
</trkpt>
<trkpt lat="40.0736872" lon="-105.2312644">
  <ele>1686.07</ele>
  <time>2026-08-28T19:07:54Z</time>
  <course>252.82</course>
  <speed>0.261725046566048</speed>
  <fix>3d</fix>
</trkpt>
<trkpt lat="40.0736868" lon="-105.2312649">
  <ele>1685.96</ele>
  <time>2026-08-28T19:07:54Z</time>
  <course>45.45</course>
  <speed>0.23</speed>
  <fix>3d</fix>
</trkpt>
<trkpt lat="40.0736875" lon="-105.231264">
  <ele>1686.07</ele>
  <time>2026-08-28T19:07:54Z</time>
  <course>252.77</course>
  <speed>0.26248809496813374</speed>
  <fix>3d</fix>
</trkpt>
<trkpt lat="40.0736871" lon="-105.2312645">
  <ele>1685.96</ele>
  <time>2026-08-28T19:07:54Z</time>
  <course>48.3</course>
  <speed>0.23</speed>
  <fix>3d</fix>
</trkpt>
<trkpt lat="40.0736877" lon="-105.2312636">
  <ele>1686.07</ele>
  <time>2026-08-28T19:07:54Z</time>
  <course>252.72</course>
  <speed>0.2420743687382041</speed>
  <fix>3d</fix>
</trkpt>
<trkpt lat="40.0736874" lon="-105.2312641">
  <ele>1685.96</ele>
  <time>2026-08-28T19:07:54Z</time>
  <course>50.97</course>
  <speed>0.23</speed>
  <fix>3d</fix>
</trkpt>
<trkpt lat="40.0736879" lon="-105.2312632">
  <ele>1686.07</ele>
  <time>2026-08-28T19:07:54Z</time>
  <course>252.67</course>
  <speed>0.22803508501982758</speed>
  <fix>3d</fix>
</trkpt>
<trkpt lat="40.0736876" lon="-105.2312636">
  <ele>1685.96</ele>
  <time>2026-08-28T19:07:54Z</time>
  <course>53.62</course>
  <speed>0.21</speed>
  <fix>3d</fix>
</trkpt>
<trkpt lat="40.0736881" lon="-105.2312628">
  <ele>1686.07</ele>
  <time>2026-08-28T19:07:54Z</time>
  <course>252.65</course>
  <speed>0.20808652046684814</speed>
  <fix>3d</fix>
</trkpt>
<trkpt lat="40.0736878" lon="-105.2312632">
  <ele>1685.96</ele>
  <time>2026-08-28T19:07:54Z</time>
  <course>56.37</course>
  <speed>0.2</speed>
  <fix>3d</fix>
</trkpt>
<trkpt lat="40.0736883" lon="-105.2312625">
  <ele>1686.07</ele>
  <time>2026-08-28T19:07:54Z</time>
  <course>252.66</course>
  <speed>0.17492855684535902</speed>
  <fix>3d</fix>
</trkpt>
<trkpt lat="40.073688" lon="-105.2312628">
  <ele>1685.97</ele>
  <time>2026-08-28T19:07:54Z</time>
  <course>59.34</course>
  <speed>0.17</speed>
  <fix>3d</fix>
</trkpt>
<trkpt lat="40.0736884" lon="-105.2312622">
  <ele>1686.06</ele>
  <time>2026-08-28T19:07:54Z</time>
  <course>252.62</course>
  <speed>0.12206555615733702</speed>
  <fix>3d</fix>
</trkpt>
<trkpt lat="40.0736882" lon="-105.2312625">
  <ele>1685.97</ele>
  <time>2026-08-28T19:07:54Z</time>
  <course>61.65</course>
  <speed>0.14</speed>
  <fix>3d</fix>
</trkpt>
<trkpt lat="40.0736884" lon="-105.2312621">
  <ele>1686.06</ele>
  <time>2026-08-28T19:07:54Z</time>
  <course>252.48</course>
  <speed>0.0316227766016838</speed>
  <fix>3d</fix>
</trkpt>
<trkpt lat="40.0736883" lon="-105.2312623">
  <ele>1685.97</ele>
  <time>2026-08-28T19:07:54Z</time>
  <course>54.81</course>
  <speed>0.06</speed>
  <fix>3d</fix>
</trkpt>
<trkpt lat="40.0736884" lon="-105.2312624">
  <ele>1686.06</ele>
  <time>2026-08-28T19:07:54Z</time>
  <course>252.34</course>
  <speed>0.19026297590440447</speed>
  <fix>3d</fix>
</trkpt>
<trkpt lat="40.0736883" lon="-105.2312623">
  <ele>1685.97</ele>
  <time>2026-08-28T19:07:54Z</time>
  <course>268.76</course>
  <speed>0.07</speed>
  <fix>3d</fix>
</trkpt>
<trkpt lat="40.0736883" lon="-105.231263">
  <ele>1686.05</ele>
  <time>2026-08-28T19:07:54Z</time>
  <course>252.24</course>
  <speed>0.39812058474788764</speed>
  <fix>3d</fix>
</trkpt>
<trkpt lat="40.0736882" lon="-105.2312626">
  <ele>1685.97</ele>
  <time>2026-08-28T19:07:54Z</time>
  <course>257.01</course>
  <speed>0.26</speed>
  <fix>3d</fix>
</trkpt>
<trkpt lat="40.0736881" lon="-105.2312642">
  <ele>1686.05</ele>
  <time>2026-08-28T19:07:54Z</time>
  <course>252.15</course>
  <speed>0.6016643582596529</speed>
  <fix>3d</fix>
</trkpt>
<trkpt lat="40.0736881" lon="-105.2312634">
  <ele>1685.97</ele>
  <time>2026-08-28T19:07:54Z</time>
  <course>253.75</course>
  <speed>0.47</speed>
  <fix>3d</fix>
</trkpt>
<trkpt lat="40.0736877" lon="-105.2312658">
  <ele>1686.05</ele>
  <time>2026-08-28T19:07:54Z</time>
  <course>252.07</course>
  <speed>0.8160882305241266</speed>
  <fix>3d</fix>
</trkpt>
<trkpt lat="40.0736878" lon="-105.2312647">
  <ele>1685.97</ele>
  <time>2026-08-28T19:07:54Z</time>
  <course>251.85</course>
  <speed>0.68</speed>
  <fix>3d</fix>
</trkpt>
<trkpt lat="40.0736872" lon="-105.2312678">
  <ele>1686.04</ele>
  <time>2026-08-28T19:07:54Z</time>
  <course>251.99</course>
  <speed>1.0088111815399352</speed>
  <fix>3d</fix>
</trkpt>
<trkpt lat="40.0736874" lon="-105.2312665">
  <ele>1685.98</ele>
  <time>2026-08-28T19:07:54Z</time>
  <course>250.7</course>
  <speed>0.89</speed>
  <fix>3d</fix>
</trkpt>
<trkpt lat="40.0736865" lon="-105.2312703">
  <ele>1686.05</ele>
  <time>2026-08-28T19:07:55Z</time>
  <course>252.7</course>
  <speed>1.1921828718783036</speed>
  <fix>3d</fix>
</trkpt>
<trkpt lat="40.0736868" lon="-105.2312687">
  <ele>1685.98</ele>
  <time>2026-08-28T19:07:55Z</time>
  <course>249.94</course>
  <speed>1.09</speed>
  <fix>3d</fix>
</trkpt>
<trkpt lat="40.0736857" lon="-105.2312731">
  <ele>1686.05</ele>
  <time>2026-08-28T19:07:55Z</time>
  <course>252.46</course>
  <speed>1.359779393872403</speed>
  <fix>3d</fix>
</trkpt>
<trkpt lat="40.0736861" lon="-105.2312713">
  <ele>1685.98</ele>
  <time>2026-08-28T19:07:55Z</time>
  <course>249.75</course>
  <speed>1.27</speed>
  <fix>3d</fix>
</trkpt>
<trkpt lat="40.0736848" lon="-105.2312764">
  <ele>1686.05</ele>
  <time>2026-08-28T19:07:55Z</time>
  <course>252.38</course>
  <speed>1.5305554547287727</speed>
  <fix>3d</fix>
</trkpt>
<trkpt lat="40.0736852" lon="-105.2312743">
  <ele>1685.98</ele>
  <time>2026-08-28T19:07:55Z</time>
  <course>250.01</course>
  <speed>1.44</speed>
  <fix>3d</fix>
</trkpt>
<trkpt lat="40.0736838" lon="-105.2312799">
  <ele>1686.05</ele>
  <time>2026-08-28T19:07:55Z</time>
  <course>252.47</course>
  <speed>1.676007159889241</speed>
  <fix>3d</fix>
</trkpt>
<trkpt lat="40.0736843" lon="-105.2312776">
  <ele>1685.99</ele>
  <time>2026-08-28T19:07:55Z</time>
  <course>250.31</course>
  <speed>1.6</speed>
  <fix>3d</fix>
</trkpt>
<trkpt lat="40.0736828" lon="-105.2312838">
  <ele>1686.06</ele>
  <time>2026-08-28T19:07:55Z</time>
  <course>252.73</course>
  <speed>1.808867048735202</speed>
  <fix>3d</fix>
</trkpt>
<trkpt lat="40.0736833" lon="-105.2312814">
  <ele>1685.99</ele>
  <time>2026-08-28T19:07:55Z</time>
  <course>250.68</course>
  <speed>1.75</speed>
  <fix>3d</fix>
</trkpt>
<trkpt lat="40.0736817" lon="-105.2312881">
  <ele>1686.07</ele>
  <time>2026-08-28T19:07:55Z</time>
  <course>253.09</course>
  <speed>1.9418032856085088</speed>
  <fix>3d</fix>
</trkpt>
<trkpt lat="40.0736822" lon="-105.2312855">
  <ele>1686.0</ele>
  <time>2026-08-28T19:07:55Z</time>
  <course>251.11</course>
  <speed>1.89</speed>
  <fix>3d</fix>
</trkpt>
<trkpt lat="40.0736806" lon="-105.2312926">
  <ele>1686.07</ele>
  <time>2026-08-28T19:07:55Z</time>
  <course>253.49</course>
  <speed>2.0718349355100663</speed>
  <fix>3d</fix>
</trkpt>
<trkpt lat="40.0736811" lon="-105.2312898">
  <ele>1686.0</ele>
  <time>2026-08-28T19:07:55Z</time>
  <course>251.6</course>
  <speed>2.02</speed>
  <fix>3d</fix>
</trkpt>
<trkpt lat="40.0736794" lon="-105.2312974">
  <ele>1686.07</ele>
  <time>2026-08-28T19:07:55Z</time>
  <course>253.94</course>
  <speed>2.1924643668712154</speed>
  <fix>3d</fix>
</trkpt>
<trkpt lat="40.0736799" lon="-105.2312944">
  <ele>1686.0</ele>
  <time>2026-08-28T19:07:55Z</time>
  <course>252.12</course>
  <speed>2.15</speed>
  <fix>3d</fix>
</trkpt>
<trkpt lat="40.0736782" lon="-105.2313025">
  <ele>1686.07</ele>
  <time>2026-08-28T19:07:55Z</time>
  <course>254.42</course>
  <speed>2.322800034441191</speed>
  <fix>3d</fix>
</trkpt>
<trkpt lat="40.0736787" lon="-105.2312994">
  <ele>1686.0</ele>
  <time>2026-08-28T19:07:55Z</time>
  <course>252.66</course>
  <speed>2.28</speed>
  <fix>3d</fix>
</trkpt>
<trkpt lat="40.0736769" lon="-105.231308">
  <ele>1686.07</ele>
  <time>2026-08-28T19:07:55Z</time>
  <course>254.86</course>
  <speed>2.4628844877500855</speed>
  <fix>3d</fix>
</trkpt>
<trkpt lat="40.0736775" lon="-105.2313048">
  <ele>1686.0</ele>
  <time>2026-08-28T19:07:55Z</time>
  <course>253.2</course>
  <speed>2.41</speed>
  <fix>3d</fix>
</trkpt>
<trkpt lat="40.0736757" lon="-105.2313137">
  <ele>1686.06</ele>
  <time>2026-08-28T19:07:55Z</time>
  <course>255.27</course>
  <speed>2.603113520382851</speed>
  <fix>3d</fix>
</trkpt>
<trkpt lat="40.0736762" lon="-105.2313103">
  <ele>1686.0</ele>
  <time>2026-08-28T19:07:55Z</time>
  <course>253.71</course>
  <speed>2.54</speed>
  <fix>3d</fix>
</trkpt>
<trkpt lat="40.0736743" lon="-105.2313198">
  <ele>1686.06</ele>
  <time>2026-08-28T19:07:55Z</time>
  <course>255.61</course>
  <speed>2.74346496241523</speed>
  <fix>3d</fix>
</trkpt>
<trkpt lat="40.0736749" lon="-105.2313162">
  <ele>1686.0</ele>
  <time>2026-08-28T19:07:55Z</time>
  <course>254.17</course>
  <speed>2.69</speed>
  <fix>3d</fix>
</trkpt>
<trkpt lat="40.073673" lon="-105.2313263">
  <ele>1686.06</ele>
  <time>2026-08-28T19:07:55Z</time>
  <course>255.89</course>
  <speed>2.9032740139366795</speed>
  <fix>3d</fix>
</trkpt>
<trkpt lat="40.0736736" lon="-105.2313225">
  <ele>1685.99</ele>
  <time>2026-08-28T19:07:55Z</time>
  <course>254.59</course>
  <speed>2.83</speed>
  <fix>3d</fix>
</trkpt>
<trkpt lat="40.0736716" lon="-105.2313331">
  <ele>1686.06</ele>
  <time>2026-08-28T19:07:55Z</time>
  <course>256.12</course>
  <speed>3.065697310564107</speed>
  <fix>3d</fix>
</trkpt>
<trkpt lat="40.0736722" lon="-105.2313291">
  <ele>1685.99</ele>
  <time>2026-08-28T19:07:55Z</time>
  <course>254.93</course>
  <speed>2.99</speed>
  <fix>3d</fix>
</trkpt>
<trkpt lat="40.0736701" lon="-105.2313404">
  <ele>1686.06</ele>
  <time>2026-08-28T19:07:55Z</time>
  <course>256.25</course>
  <speed>3.2378542277255162</speed>
  <fix>3d</fix>
</trkpt>
<trkpt lat="40.0736708" lon="-105.231336">
  <ele>1685.99</ele>
  <time>2026-08-28T19:07:55Z</time>
  <course>255.21</course>
  <speed>3.16</speed>
  <fix>3d</fix>
</trkpt>
<trkpt lat="40.0736686" lon="-105.231348">
  <ele>1686.06</ele>
  <time>2026-08-28T19:07:55Z</time>
  <course>256.34</course>
  <speed>3.422177669262658</speed>
  <fix>3d</fix>
</trkpt>
<trkpt lat="40.0736693" lon="-105.2313435">
  <ele>1685.99</ele>
  <time>2026-08-28T19:07:55Z</time>
  <course>255.43</course>
  <speed>3.33</speed>
  <fix>3d</fix>
</trkpt>
<trkpt lat="40.073667" lon="-105.2313561">
  <ele>1686.06</ele>
  <time>2026-08-28T19:07:55Z</time>
  <course>256.37</course>
  <speed>3.6162134892729996</speed>
  <fix>3d</fix>
</trkpt>
<trkpt lat="40.0736677" lon="-105.2313513">
  <ele>1685.98</ele>
  <time>2026-08-28T19:07:55Z</time>
  <course>255.6</course>
  <speed>3.52</speed>
  <fix>3d</fix>
</trkpt>
<trkpt lat="40.0736653" lon="-105.2313647">
  <ele>1686.05</ele>
  <time>2026-08-28T19:07:55Z</time>
  <course>256.34</course>
  <speed>3.8199738218998305</speed>
  <fix>3d</fix>
</trkpt>
<trkpt lat="40.0736662" lon="-105.2313595">
  <ele>1685.98</ele>
  <time>2026-08-28T19:07:55Z</time>
  <course>255.72</course>
  <speed>3.71</speed>
  <fix>3d</fix>
</trkpt>
<trkpt lat="40.0736636" lon="-105.2313737">
  <ele>1686.05</ele>
  <time>2026-08-28T19:07:55Z</time>
  <course>256.3</course>
  <speed>4.0261271713645606</speed>
  <fix>3d</fix>
</trkpt>
<trkpt lat="40.0736644" lon="-105.2313682">
  <ele>1685.98</ele>
  <time>2026-08-28T19:07:55Z</time>
  <course>255.8</course>
  <speed>3.92</speed>
  <fix>3d</fix>
</trkpt>
<trkpt lat="40.0736618" lon="-105.2313831">
  <ele>1686.04</ele>
  <time>2026-08-28T19:07:55Z</time>
  <course>256.21</course>
  <speed>4.251705540133277</speed>
  <fix>3d</fix>
</trkpt>
<trkpt lat="40.0736627" lon="-105.2313773">
  <ele>1685.97</ele>
  <time>2026-08-28T19:07:55Z</time>
  <course>255.87</course>
  <speed>4.13</speed>
  <fix>3d</fix>
</trkpt>
<trkpt lat="40.0736599" lon="-105.2313931">
  <ele>1686.04</ele>
  <time>2026-08-28T19:07:55Z</time>
  <course>256.1</course>
  <speed>4.477287125034533</speed>
  <fix>3d</fix>
</trkpt>
<trkpt lat="40.0736608" lon="-105.231387">
  <ele>1685.97</ele>
  <time>2026-08-28T19:07:55Z</time>
  <course>255.93</course>
  <speed>4.35</speed>
  <fix>3d</fix>
</trkpt>
<trkpt lat="40.0736579" lon="-105.2314037">
  <ele>1686.04</ele>
  <time>2026-08-28T19:07:55Z</time>
  <course>256.0</course>
  <speed>4.712589521696113</speed>
  <fix>3d</fix>
</trkpt>
<trkpt lat="40.0736589" lon="-105.2313972">
  <ele>1685.96</ele>
  <time>2026-08-28T19:07:55Z</time>
  <course>255.99</course>
  <speed>4.58</speed>
  <fix>3d</fix>
</trkpt>
<trkpt lat="40.0736558" lon="-105.2314147">
  <ele>1686.03</ele>
  <time>2026-08-28T19:07:55Z</time>
  <course>255.91</course>
  <speed>4.94789854382646</speed>
  <fix>3d</fix>
</trkpt>
<trkpt lat="40.0736568" lon="-105.231408">
  <ele>1685.96</ele>
  <time>2026-08-28T19:07:55Z</time>
  <course>256.05</course>
  <speed>4.82</speed>
  <fix>3d</fix>
</trkpt>
<trkpt lat="40.0736535" lon="-105.2314264">
  <ele>1686.03</ele>
  <time>2026-08-28T19:07:55Z</time>
  <course>255.83</course>
  <speed>5.204997598462462</speed>
  <fix>3d</fix>
</trkpt>
<trkpt lat="40.0736547" lon="-105.2314192">
  <ele>1685.96</ele>
  <time>2026-08-28T19:07:55Z</time>
  <course>256.13</course>
  <speed>5.06</speed>
  <fix>3d</fix>
</trkpt>
<trkpt lat="40.0736513" lon="-105.2314386">
  <ele>1686.02</ele>
  <time>2026-08-28T19:07:55Z</time>
  <course>255.78</course>
  <speed>5.450036697124158</speed>
  <fix>3d</fix>
</trkpt>
<trkpt lat="40.0736525" lon="-105.231431">
  <ele>1685.95</ele>
  <time>2026-08-28T19:07:55Z</time>
  <course>256.22</course>
  <speed>5.31</speed>
  <fix>3d</fix>
</trkpt>
<trkpt lat="40.0736489" lon="-105.2314513">
  <ele>1686.02</ele>
  <time>2026-08-28T19:07:55Z</time>
  <course>255.76</course>
  <speed>5.692776124177026</speed>
  <fix>3d</fix>
</trkpt>
<trkpt lat="40.0736501" lon="-105.2314435">
  <ele>1685.95</ele>
  <time>2026-08-28T19:07:55Z</time>
  <course>256.34</course>
  <speed>5.56</speed>
  <fix>3d</fix>
</trkpt>
<trkpt lat="40.0736464" lon="-105.2314647">
  <ele>1686.01</ele>
  <time>2026-08-28T19:07:55Z</time>
  <course>255.74</course>
  <speed>5.945300665231322</speed>
  <fix>3d</fix>
</trkpt>
<trkpt lat="40.0736477" lon="-105.2314565">
  <ele>1685.95</ele>
  <time>2026-08-28T19:07:55Z</time>
  <course>256.48</course>
  <speed>5.81</speed>
  <fix>3d</fix>
</trkpt>
<trkpt lat="40.0736439" lon="-105.2314787">
  <ele>1686.01</ele>
  <time>2026-08-28T19:07:55Z</time>
  <course>255.77</course>
  <speed>6.2076243443043495</speed>
  <fix>3d</fix>
</trkpt>
<trkpt lat="40.0736453" lon="-105.23147">
  <ele>1685.95</ele>
  <time>2026-08-28T19:07:55Z</time>
  <course>256.65</course>
  <speed>6.06</speed>
  <fix>3d</fix>
</trkpt>
<trkpt lat="40.0736413" lon="-105.2314932">
  <ele>1686.01</ele>
  <time>2026-08-28T19:07:55Z</time>
  <course>255.86</course>
  <speed>6.448294348120284</speed>
  <fix>3d</fix>
</trkpt>
<trkpt lat="40.0736428" lon="-105.2314842">
  <ele>1685.95</ele>
  <time>2026-08-28T19:07:55Z</time>
  <course>256.86</course>
  <speed>6.31</speed>
  <fix>3d</fix>
</trkpt>
<trkpt lat="40.0736387" lon="-105.2315083">
  <ele>1686.01</ele>
  <time>2026-08-28T19:07:55Z</time>
  <course>255.96</course>
  <speed>6.6988133277469375</speed>
  <fix>3d</fix>
</trkpt>
<trkpt lat="40.0736401" lon="-105.2314989">
  <ele>1685.95</ele>
  <time>2026-08-28T19:07:55Z</time>
  <course>257.1</course>
  <speed>6.57</speed>
  <fix>3d</fix>
</trkpt>
<trkpt lat="40.073636" lon="-105.2315239">
  <ele>1686.01</ele>
  <time>2026-08-28T19:07:55Z</time>
  <course>256.09</course>
  <speed>6.957075535021882</speed>
  <fix>3d</fix>
</trkpt>
<trkpt lat="40.0736374" lon="-105.2315142">
  <ele>1685.95</ele>
  <time>2026-08-28T19:07:55Z</time>
  <course>257.38</course>
  <speed>6.82</speed>
  <fix>3d</fix>
</trkpt>
<trkpt lat="40.0736333" lon="-105.2315402">
  <ele>1686.01</ele>
  <time>2026-08-28T19:07:55Z</time>
  <course>256.25</course>
  <speed>7.21345964153124</speed>
  <fix>3d</fix>
</trkpt>
<trkpt lat="40.0736348" lon="-105.2315302">
  <ele>1685.96</ele>
  <time>2026-08-28T19:07:55Z</time>
  <course>257.7</course>
  <speed>7.07</speed>
  <fix>3d</fix>
</trkpt>
<trkpt lat="40.0736306" lon="-105.2315571">
  <ele>1686.01</ele>
  <time>2026-08-28T19:07:55Z</time>
  <course>256.45</course>
  <speed>7.470107094279171</speed>
  <fix>3d</fix>
</trkpt>
<trkpt lat="40.0736321" lon="-105.2315467">
  <ele>1685.96</ele>
  <time>2026-08-28T19:07:55Z</time>
  <course>258.05</course>
  <speed>7.33</speed>
  <fix>3d</fix>
</trkpt>
<trkpt lat="40.0736279" lon="-105.2315746">
  <ele>1686.01</ele>
  <time>2026-08-28T19:07:55Z</time>
  <course>256.67</course>
  <speed>7.723134078856847</speed>
  <fix>3d</fix>
</trkpt>
<trkpt lat="40.0736293" lon="-105.2315639">
  <ele>1685.96</ele>
  <time>2026-08-28T19:07:55Z</time>
  <course>258.44</course>
  <speed>7.59</speed>
  <fix>3d</fix>
</trkpt>
<trkpt lat="40.0736252" lon="-105.2315928">
  <ele>1686.01</ele>
  <time>2026-08-28T19:07:55Z</time>
  <course>256.91</course>
  <speed>7.986451026582459</speed>
  <fix>3d</fix>
</trkpt>
<trkpt lat="40.0736266" lon="-105.2315817">
  <ele>1685.96</ele>
  <time>2026-08-28T19:07:55Z</time>
  <course>258.86</course>
  <speed>7.86</speed>
  <fix>3d</fix>
</trkpt>
<trkpt lat="40.0736225" lon="-105.2316115">
  <ele>1686.01</ele>
  <time>2026-08-28T19:07:55Z</time>
  <course>257.17</course>
  <speed>8.250212118485196</speed>
  <fix>3d</fix>
</trkpt>
<trkpt lat="40.0736239" lon="-105.2316002">
  <ele>1685.96</ele>
  <time>2026-08-28T19:07:55Z</time>
  <course>259.32</course>
  <speed>8.12</speed>
  <fix>3d</fix>
</trkpt>
<trkpt lat="40.0736198" lon="-105.231631">
  <ele>1686.02</ele>
  <time>2026-08-28T19:07:55Z</time>
  <course>257.53</course>
  <speed>8.509318421589358</speed>
  <fix>3d</fix>
</trkpt>
<trkpt lat="40.0736212" lon="-105.2316193">
  <ele>1685.96</ele>
  <time>2026-08-28T19:07:55Z</time>
  <course>259.82</course>
  <speed>8.38</speed>
  <fix>3d</fix>
</trkpt>
<trkpt lat="40.0736172" lon="-105.2316512">
  <ele>1686.03</ele>
  <time>2026-08-28T19:07:55Z</time>
  <course>257.91</course>
  <speed>8.769264507357502</speed>
  <fix>3d</fix>
</trkpt>
<trkpt lat="40.0736185" lon="-105.231639">
  <ele>1685.96</ele>
  <time>2026-08-28T19:07:55Z</time>
  <course>260.36</course>
  <speed>8.64</speed>
  <fix>3d</fix>
</trkpt>
<trkpt lat="40.0736147" lon="-105.2316719">
  <ele>1686.03</ele>
  <time>2026-08-28T19:07:55Z</time>
  <course>258.3</course>
  <speed>9.027031627284797</speed>
  <fix>3d</fix>
</trkpt>
<trkpt lat="40.073616" lon="-105.2316592">
  <ele>1685.96</ele>
  <time>2026-08-28T19:07:55Z</time>
  <course>260.95</course>
  <speed>8.9</speed>
  <fix>3d</fix>
</trkpt>
<trkpt lat="40.0736124" lon="-105.2316932">
  <ele>1686.03</ele>
  <time>2026-08-28T19:07:55Z</time>
  <course>258.4</course>
  <speed>9.263368717696602</speed>
  <fix>3d</fix>
</trkpt>
<trkpt lat="40.0736136" lon="-105.2316802">
  <ele>1685.96</ele>
  <time>2026-08-28T19:07:55Z</time>
  <course>261.62</course>
  <speed>9.15</speed>
  <fix>3d</fix>
</trkpt>
<trkpt lat="40.0736102" lon="-105.2317149">
  <ele>1686.05</ele>
  <time>2026-08-28T19:07:55Z</time>
  <course>259.74</course>
  <speed>9.379536235870086</speed>
  <fix>3d</fix>
</trkpt>
<trkpt lat="40.0736112" lon="-105.2317018">
  <ele>1685.96</ele>
  <time>2026-08-28T19:07:55Z</time>
  <course>262.34</course>
  <speed>9.35</speed>
  <fix>3d</fix>
</trkpt>
<trkpt lat="40.0736082" lon="-105.2317369">
  <ele>1686.1</ele>
  <time>2026-08-28T19:07:55Z</time>
  <course>261.83</course>
  <speed>9.354683319065376</speed>
  <fix>3d</fix>
</trkpt>
<trkpt lat="40.0736091" lon="-105.2317236">
  <ele>1685.99</ele>
  <time>2026-08-28T19:07:55Z</time>
  <course>263.11</course>
  <speed>9.44</speed>
  <fix>3d</fix>
</trkpt>
<trkpt lat="40.0736064" lon="-105.2317586">
  <ele>1686.17</ele>
  <time>2026-08-28T19:07:55Z</time>
  <course>264.12</course>
  <speed>9.207486084703033</speed>
  <fix>3d</fix>
</trkpt>
<trkpt lat="40.0736072" lon="-105.2317456">
  <ele>1686.04</ele>
  <time>2026-08-28T19:07:55Z</time>
  <course>263.99</course>
  <speed>9.38</speed>
  <fix>3d</fix>
</trkpt>
<trkpt lat="40.0736051" lon="-105.23178">
  <ele>1686.23</ele>
  <time>2026-08-28T19:07:55Z</time>
  <course>266.3</course>
  <speed>8.981425276647354</speed>
  <fix>3d</fix>
</trkpt>
<trkpt lat="40.0736056" lon="-105.2317674">
  <ele>1686.11</ele>
  <time>2026-08-28T19:07:55Z</time>
  <course>265.08</course>
  <speed>9.22</speed>
  <fix>3d</fix>
</trkpt>
<trkpt lat="40.0736041" lon="-105.2318011">
  <ele>1686.28</ele>
  <time>2026-08-28T19:07:55Z</time>
  <course>268.37</course>
  <speed>8.72827588931514</speed>
  <fix>3d</fix>
</trkpt>
<trkpt lat="40.0736043" lon="-105.2317887">
  <ele>1686.16</ele>
  <time>2026-08-28T19:07:55Z</time>
  <course>266.38</course>
  <speed>8.99</speed>
  <fix>3d</fix>
</trkpt>
<trkpt lat="40.0736036" lon="-105.2318214">
  <ele>1686.3</ele>
  <time>2026-08-28T19:07:55Z</time>
  <course>270.44</course>
  <speed>8.431002312892577</speed>
  <fix>3d</fix>
</trkpt>
<trkpt lat="40.0736036" lon="-105.2318095">
  <ele>1686.2</ele>
  <time>2026-08-28T19:07:55Z</time>
  <course>267.88</course>
  <speed>8.71</speed>
  <fix>3d</fix>
</trkpt>
<trkpt lat="40.0736035" lon="-105.231841">
  <ele>1686.31</ele>
  <time>2026-08-28T19:07:55Z</time>
  <course>272.58</course>
  <speed>8.100888840121188</speed>
  <fix>3d</fix>
</trkpt>
<trkpt lat="40.0736032" lon="-105.2318296">
  <ele>1686.22</ele>
  <time>2026-08-28T19:07:55Z</time>
  <course>269.57</course>
  <speed>8.4</speed>
  <fix>3d</fix>
</trkpt>
<trkpt lat="40.0736038" lon="-105.2318599">
  <ele>1686.3</ele>
  <time>2026-08-28T19:07:55Z</time>
  <course>274.8</course>
  <speed>7.749322551036316</speed>
  <fix>3d</fix>
</trkpt>
<trkpt lat="40.0736033" lon="-105.231849">
  <ele>1686.22</ele>
  <time>2026-08-28T19:07:55Z</time>
  <course>271.44</course>
  <speed>8.06</speed>
  <fix>3d</fix>
</trkpt>
<trkpt lat="40.0736047" lon="-105.2318779">
  <ele>1686.28</ele>
  <time>2026-08-28T19:07:55Z</time>
  <course>277.11</course>
  <speed>7.367849075544368</speed>
  <fix>3d</fix>
</trkpt>
<trkpt lat="40.0736038" lon="-105.2318674">
  <ele>1686.21</ele>
  <time>2026-08-28T19:07:55Z</time>
  <course>273.51</course>
  <speed>7.69</speed>
  <fix>3d</fix>
</trkpt>
<trkpt lat="40.0736061" lon="-105.2318948">
  <ele>1686.25</ele>
  <time>2026-08-28T19:07:55Z</time>
  <course>279.51</course>
  <speed>6.989492113165305</speed>
  <fix>3d</fix>
</trkpt>
<trkpt lat="40.0736049" lon="-105.231885">
  <ele>1686.19</ele>
  <time>2026-08-28T19:07:55Z</time>
  <course>275.8</course>
  <speed>7.31</speed>
  <fix>3d</fix>
</trkpt>
<trkpt lat="40.0736079" lon="-105.2319108">
  <ele>1686.22</ele>
  <time>2026-08-28T19:07:55Z</time>
  <course>282.0</course>
  <speed>6.614302684334911</speed>
  <fix>3d</fix>
</trkpt>
<trkpt lat="40.0736064" lon="-105.2319016">
  <ele>1686.16</ele>
  <time>2026-08-28T19:07:55Z</time>
  <course>278.35</course>
  <speed>6.93</speed>
  <fix>3d</fix>
</trkpt>
<trkpt lat="40.0736102" lon="-105.2319258">
  <ele>1686.19</ele>
  <time>2026-08-28T19:07:55Z</time>
  <course>284.84</course>
  <speed>6.255637457525812</speed>
  <fix>3d</fix>
</trkpt>
<trkpt lat="40.0736085" lon="-105.2319172">
  <ele>1686.13</ele>
  <time>2026-08-28T19:07:55Z</time>
  <course>281.19</course>
  <speed>6.55</speed>
  <fix>3d</fix>
</trkpt>
<trkpt lat="40.073613" lon="-105.2319398">
  <ele>1686.15</ele>
  <time>2026-08-28T19:07:55Z</time>
  <course>287.94</course>
  <speed>5.8973383826943495</speed>
  <fix>3d</fix>
</trkpt>
<trkpt lat="40.073611" lon="-105.2319318">
  <ele>1686.09</ele>
  <time>2026-08-28T19:07:55Z</time>
  <course>284.36</course>
  <speed>6.18</speed>
  <fix>3d</fix>
</trkpt>
<trkpt lat="40.0736163" lon="-105.2319528">
  <ele>1686.12</ele>
  <time>2026-08-28T19:07:55Z</time>
  <course>291.38</course>
  <speed>5.568841890375413</speed>
  <fix>3d</fix>
</trkpt>
<trkpt lat="40.0736141" lon="-105.2319454">
  <ele>1686.05</ele>
  <time>2026-08-28T19:07:55Z</time>
  <course>287.9</course>
  <speed>5.82</speed>
  <fix>3d</fix>
</trkpt>
<trkpt lat="40.07362" lon="-105.2319647">
  <ele>1686.1</ele>
  <time>2026-08-28T19:07:55Z</time>
  <course>295.22</course>
  <speed>5.261976814848199</speed>
  <fix>3d</fix>
</trkpt>
<trkpt lat="40.0736175" lon="-105.2319579">
  <ele>1686.02</ele>
  <time>2026-08-28T19:07:55Z</time>
  <course>291.88</course>
  <speed>5.5</speed>
  <fix>3d</fix>
</trkpt>
<trkpt lat="40.0736242" lon="-105.2319755">
  <ele>1686.07</ele>
  <time>2026-08-28T19:07:55Z</time>
  <course>299.48</course>
  <speed>4.997409328842296</speed>
  <fix>3d</fix>
</trkpt>
<trkpt lat="40.0736214" lon="-105.2319693">
  <ele>1686.0</ele>
  <time>2026-08-28T19:07:55Z</time>
  <course>296.36</course>
  <speed>5.2</speed>
  <fix>3d</fix>
</trkpt>
<trkpt lat="40.0736289" lon="-105.2319853">
  <ele>1686.05</ele>
  <time>2026-08-28T19:07:55Z</time>
  <course>304.19</course>
  <speed>4.782677074609993</speed>
  <fix>3d</fix>
</trkpt>
<trkpt lat="40.0736258" lon="-105.2319797">
  <ele>1685.98</ele>
  <time>2026-08-28T19:07:55Z</time>
  <course>301.39</course>
  <speed>4.94</speed>
  <fix>3d</fix>
</trkpt>
<trkpt lat="40.073634" lon="-105.2319941">
  <ele>1686.03</ele>
  <time>2026-08-28T19:07:55Z</time>
  <course>309.48</course>
  <speed>4.600141302177575</speed>
  <fix>3d</fix>
</trkpt>
<trkpt lat="40.0736307" lon="-105.2319891">
  <ele>1685.96</ele>
  <time>2026-08-28T19:07:55Z</time>
  <course>307.04</course>
  <speed>4.73</speed>
  <fix>3d</fix>
</trkpt>
<trkpt lat="40.0736397" lon="-105.2320018">
  <ele>1686.02</ele>
  <time>2026-08-28T19:07:55Z</time>
  <course>315.35</course>
  <speed>4.473946803438771</speed>
  <fix>3d</fix>
</trkpt>
<trkpt lat="40.0736361" lon="-105.2319975">
  <ele>1685.94</ele>
  <time>2026-08-28T19:07:55Z</time>
  <course>313.29</course>
  <speed>4.57</speed>
  <fix>3d</fix>
</trkpt>
<trkpt lat="40.0736459" lon="-105.2320084">
  <ele>1686.0</ele>
  <time>2026-08-28T19:07:55Z</time>
  <course>321.74</course>
  <speed>4.391924407364043</speed>
  <fix>3d</fix>
</trkpt>
<trkpt lat="40.073642" lon="-105.2320048">
  <ele>1685.93</ele>
  <time>2026-08-28T19:07:55Z</time>
  <course>320.14</course>
  <speed>4.46</speed>
  <fix>3d</fix>
</trkpt>
<trkpt lat="40.0736526" lon="-105.2320138">
  <ele>1686.0</ele>
  <time>2026-08-28T19:07:55Z</time>
  <course>328.63</course>
  <speed>4.351976562436889</speed>
  <fix>3d</fix>
</trkpt>
<trkpt lat="40.0736484" lon="-105.2320109">
  <ele>1685.92</ele>
  <time>2026-08-28T19:07:55Z</time>
  <course>327.49</course>
  <speed>4.39</speed>
  <fix>3d</fix>
</trkpt>
<trkpt lat="40.0736597" lon="-105.232018">
  <ele>1685.99</ele>
  <time>2026-08-28T19:07:55Z</time>
  <course>335.92</course>
  <speed>4.346147719532782</speed>
  <fix>3d</fix>
</trkpt>
<trkpt lat="40.0736553" lon="-105.2320158">
  <ele>1685.92</ele>
  <time>2026-08-28T19:07:55Z</time>
  <course>335.15</course>
  <speed>4.37</speed>
  <fix>3d</fix>
</trkpt>
<trkpt lat="40.0736673" lon="-105.2320208">
  <ele>1686.0</ele>
  <time>2026-08-28T19:07:55Z</time>
  <course>343.45</course>
  <speed>4.367985805837743</speed>
  <fix>3d</fix>
</trkpt>
<trkpt lat="40.0736626" lon="-105.2320194">
  <ele>1685.92</ele>
  <time>2026-08-28T19:07:55Z</time>
  <course>342.89</course>
  <speed>4.38</speed>
  <fix>3d</fix>
</trkpt>
<trkpt lat="40.073675" lon="-105.2320224">
  <ele>1686.0</ele>
  <time>2026-08-28T19:07:55Z</time>
  <course>350.98</course>
  <speed>4.384803302315852</speed>
  <fix>3d</fix>
</trkpt>
<trkpt lat="40.0736703" lon="-105.2320218">
  <ele>1685.92</ele>
  <time>2026-08-28T19:07:55Z</time>
  <course>350.47</course>
  <speed>4.4</speed>
  <fix>3d</fix>
</trkpt>
<trkpt lat="40.0736829" lon="-105.2320227">
  <ele>1686.01</ele>
  <time>2026-08-28T19:07:55Z</time>
  <course>358.34</course>
  <speed>4.382921400162225</speed>
  <fix>3d</fix>
</trkpt>
<trkpt lat="40.0736782" lon="-105.232023">
  <ele>1685.93</ele>
  <time>2026-08-28T19:07:55Z</time>
  <course>357.7</course>
  <speed>4.42</speed>
  <fix>3d</fix>
</trkpt>
<trkpt lat="40.0736908" lon="-105.2320218">
  <ele>1686.03</ele>
  <time>2026-08-28T19:07:55Z</time>
  <course>5.97</course>
  <speed>4.345906119556656</speed>
  <fix>3d</fix>
</trkpt>
<trkpt lat="40.0736861" lon="-105.2320227">
  <ele>1685.94</ele>
  <time>2026-08-28T19:07:55Z</time>
  <course>4.41</course>
  <speed>4.42</speed>
  <fix>3d</fix>
</trkpt>
<trkpt lat="40.0736985" lon="-105.2320198">
  <ele>1686.05</ele>
  <time>2026-08-28T19:07:55Z</time>
  <course>12.33</course>
  <speed>4.331697126993068</speed>
  <fix>3d</fix>
</trkpt>
<trkpt lat="40.073694" lon="-105.2320213">
  <ele>1685.96</ele>
  <time>2026-08-28T19:07:55Z</time>
  <course>10.6</course>
  <speed>4.39</speed>
  <fix>3d</fix>
</trkpt>
<trkpt lat="40.0737061" lon="-105.232017">
  <ele>1686.06</ele>
  <time>2026-08-28T19:07:55Z</time>
  <course>17.23</course>
  <speed>4.367298936413673</speed>
  <fix>3d</fix>
</trkpt>
<trkpt lat="40.0737017" lon="-105.232019">
  <ele>1685.97</ele>
  <time>2026-08-28T19:07:55Z</time>
  <course>16.15</course>
  <speed>4.39</speed>
  <fix>3d</fix>
</trkpt>
<trkpt lat="40.0737135" lon="-105.2320133">
  <ele>1686.06</ele>
  <time>2026-08-28T19:07:55Z</time>
  <course>21.77</course>
  <speed>4.3900455578501685</speed>
  <fix>3d</fix>
</trkpt>
<trkpt lat="40.0737091" lon="-105.2320158">
  <ele>1685.97</ele>
  <time>2026-08-28T19:07:55Z</time>
  <course>20.62</course>
  <speed>4.42</speed>
  <fix>3d</fix>
</trkpt>
<trkpt lat="40.0737208" lon="-105.2320092">
  <ele>1686.06</ele>
  <time>2026-08-28T19:07:55Z</time>
  <course>24.79</course>
  <speed>4.3681117201829895</speed>
  <fix>3d</fix>
</trkpt>
<trkpt lat="40.0737165" lon="-105.2320118">
  <ele>1685.98</ele>
  <time>2026-08-28T19:07:55Z</time>
  <course>23.69</course>
  <speed>4.43</speed>
  <fix>3d</fix>
</trkpt>
<trkpt lat="40.073728" lon="-105.2320048">
  <ele>1686.07</ele>
  <time>2026-08-28T19:07:55Z</time>
  <course>26.21</course>
  <speed>4.317059184213253</speed>
  <fix>3d</fix>
</trkpt>
<trkpt lat="40.0737237" lon="-105.2320075">
  <ele>1685.98</ele>
  <time>2026-08-28T19:07:55Z</time>
  <course>25.37</course>
  <speed>4.4</speed>
  <fix>3d</fix>
</trkpt>
<trkpt lat="40.073735" lon="-105.2320005">
  <ele>1686.07</ele>
  <time>2026-08-28T19:07:55Z</time>
  <course>26.38</course>
  <speed>4.24646912151731</speed>
  <fix>3d</fix>
</trkpt>
<trkpt lat="40.0737309" lon="-105.232003">
  <ele>1685.98</ele>
  <time>2026-08-28T19:07:55Z</time>
  <course>25.81</course>
  <speed>4.33</speed>
  <fix>3d</fix>
</trkpt>
<trkpt lat="40.073742" lon="-105.2319964">
  <ele>1686.08</ele>
  <time>2026-08-28T19:07:55Z</time>
  <course>25.41</course>
  <speed>4.18867520822515</speed>
  <fix>3d</fix>
</trkpt>
<trkpt lat="40.0737378" lon="-105.2319986">
  <ele>1685.99</ele>
  <time>2026-08-28T19:07:55Z</time>
  <course>25.14</course>
  <speed>4.25</speed>
  <fix>3d</fix>
</trkpt>
<trkpt lat="40.073749" lon="-105.2319926">
  <ele>1686.08</ele>
  <time>2026-08-28T19:07:55Z</time>
  <course>23.33</course>
  <speed>4.158485301164355</speed>
  <fix>3d</fix>
</trkpt>
<trkpt lat="40.0737447" lon="-105.2319946">
  <ele>1685.99</ele>
  <time>2026-08-28T19:07:55Z</time>
  <course>23.4</course>
  <speed>4.19</speed>
  <fix>3d</fix>
</trkpt>
<trkpt lat="40.0737561" lon="-105.2319892">
  <ele>1686.07</ele>
  <time>2026-08-28T19:07:55Z</time>
  <course>20.27</course>
  <speed>4.181219917679528</speed>
  <fix>3d</fix>
</trkpt>
<trkpt lat="40.0737517" lon="-105.2319909">
  <ele>1685.99</ele>
  <time>2026-08-28T19:07:55Z</time>
  <course>20.65</course>
  <speed>4.16</speed>
  <fix>3d</fix>
</trkpt>
<trkpt lat="40.0737634" lon="-105.2319865">
  <ele>1686.05</ele>
  <time>2026-08-28T19:07:55Z</time>
  <course>16.37</course>
  <speed>4.27387412074806</speed>
  <fix>3d</fix>
</trkpt>
<trkpt lat="40.0737588" lon="-105.2319877">
  <ele>1685.98</ele>
  <time>2026-08-28T19:07:55Z</time>
  <course>17.01</course>
  <speed>4.19</speed>
  <fix>3d</fix>
</trkpt>
<trkpt lat="40.0737711" lon="-105.2319843">
  <ele>1686.03</ele>
  <time>2026-08-28T19:07:55Z</time>
  <course>11.91</course>
  <speed>4.443894688221133</speed>
  <fix>3d</fix>
</trkpt>
<trkpt lat="40.0737661" lon="-105.2319852">
  <ele>1685.97</ele>
  <time>2026-08-28T19:07:55Z</time>
  <course>12.74</course>
  <speed>4.29</speed>
  <fix>3d</fix>
</trkpt>
<trkpt lat="40.0737792" lon="-105.2319829">
  <ele>1686.01</ele>
  <time>2026-08-28T19:07:55Z</time>
  <course>7.2</course>
  <speed>4.716153093359035</speed>
  <fix>3d</fix>
</trkpt>
<trkpt lat="40.0737738" lon="-105.2319833">
  <ele>1685.95</ele>
  <time>2026-08-28T19:07:55Z</time>
  <course>8.24</course>
  <speed>4.48</speed>
  <fix>3d</fix>
</trkpt>
<trkpt lat="40.0737879" lon="-105.2319823">
  <ele>1685.98</ele>
  <time>2026-08-28T19:07:55Z</time>
  <course>2.56</course>
  <speed>5.070631124426229</speed>
  <fix>3d</fix>
</trkpt>
<trkpt lat="40.0737821" lon="-105.2319822">
  <ele>1685.92</ele>
  <time>2026-08-28T19:07:55Z</time>
  <course>3.92</course>
  <speed>4.76</speed>
  <fix>3d</fix>
</trkpt>
<trkpt lat="40.0737974" lon="-105.2319823">
  <ele>1685.95</ele>
  <time>2026-08-28T19:07:55Z</time>
  <course>358.26</course>
  <speed>5.504007630808664</speed>
  <fix>3d</fix>
</trkpt>
<trkpt lat="40.073791" lon="-105.2319818">
  <ele>1685.9</ele>
  <time>2026-08-28T19:07:55Z</time>
  <course>0.11</course>
  <speed>5.14</speed>
  <fix>3d</fix>
</trkpt>
<trkpt lat="40.0738076" lon="-105.231983">
  <ele>1685.92</ele>
  <time>2026-08-28T19:07:55Z</time>
  <course>354.56</course>
  <speed>5.980108694664337</speed>
  <fix>3d</fix>
</trkpt>
<trkpt lat="40.0738007" lon="-105.2319821">
  <ele>1685.87</ele>
  <time>2026-08-28T19:07:55Z</time>
  <course>357.0</course>
  <speed>5.59</speed>
  <fix>3d</fix>
</trkpt>
<trkpt lat="40.0738186" lon="-105.2319843">
  <ele>1685.91</ele>
  <time>2026-08-28T19:07:55Z</time>
  <course>351.63</course>
  <speed>6.461369823806714</speed>
  <fix>3d</fix>
</trkpt>
<trkpt lat="40.0738111" lon="-105.2319831">
  <ele>1685.85</ele>
  <time>2026-08-28T19:07:55Z</time>
  <course>354.6</course>
  <speed>6.07</speed>
  <fix>3d</fix>
</trkpt>
<trkpt lat="40.0738304" lon="-105.2319862">
  <ele>1685.91</ele>
  <time>2026-08-28T19:07:55Z</time>
  <course>349.55</course>
  <speed>6.92275234281857</speed>
  <fix>3d</fix>
</trkpt>
<trkpt lat="40.0738224" lon="-105.2319846">
  <ele>1685.84</ele>
  <time>2026-08-28T19:07:55Z</time>
  <course>352.86</course>
  <speed>6.56</speed>
  <fix>3d</fix>
</trkpt>
<trkpt lat="40.073843" lon="-105.2319886">
  <ele>1685.92</ele>
  <time>2026-08-28T19:07:55Z</time>
  <course>348.35</course>
  <speed>7.310218874972212</speed>
  <fix>3d</fix>
</trkpt>
<trkpt lat="40.0738345" lon="-105.2319868">
  <ele>1685.84</ele>
  <time>2026-08-28T19:07:55Z</time>
  <course>351.7</course>
  <speed>7.01</speed>
  <fix>3d</fix>
</trkpt>
<trkpt lat="40.0738562" lon="-105.2319912">
  <ele>1685.94</ele>
  <time>2026-08-28T19:07:55Z</time>
  <course>347.87</course>
  <speed>7.65</speed>
  <fix>3d</fix>
</trkpt>
<trkpt lat="40.0738473" lon="-105.2319893">
  <ele>1685.86</ele>
  <time>2026-08-28T19:07:55Z</time>
  <course>351.04</course>
  <speed>7.4</speed>
  <fix>3d</fix>
</trkpt>
<trkpt lat="40.0738699" lon="-105.2319941">
  <ele>1685.98</ele>
  <time>2026-08-28T19:07:55Z</time>
  <course>348.02</course>
  <speed>7.921420327188805</speed>
  <fix>3d</fix>
</trkpt>
<trkpt lat="40.0738607" lon="-105.2319921">
  <ele>1685.88</ele>
  <time>2026-08-28T19:07:55Z</time>
  <course>350.83</course>
  <speed>7.73</speed>
  <fix>3d</fix>
</trkpt>
<trkpt lat="40.0738841" lon="-105.2319969">
  <ele>1686.02</ele>
  <time>2026-08-28T19:07:55Z</time>
  <course>348.63</course>
  <speed>8.136024827887388</speed>
  <fix>3d</fix>
</trkpt>
<trkpt lat="40.0738747" lon="-105.2319951">
  <ele>1685.91</ele>
  <time>2026-08-28T19:07:55Z</time>
  <course>351.0</course>
  <speed>7.99</speed>
  <fix>3d</fix>
</trkpt>
<trkpt lat="40.0738986" lon="-105.2319996">
  <ele>1686.05</ele>
  <time>2026-08-28T19:07:55Z</time>
  <course>349.55</course>
  <speed>8.30318613545427</speed>
  <fix>3d</fix>
</trkpt>
<trkpt lat="40.0738891" lon="-105.231998">
  <ele>1685.95</ele>
  <time>2026-08-28T19:07:55Z</time>
  <course>351.48</course>
  <speed>8.21</speed>
  <fix>3d</fix>
</trkpt>
<trkpt lat="40.0739135" lon="-105.2320022">
  <ele>1686.08</ele>
  <time>2026-08-28T19:07:55Z</time>
  <course>350.71</course>
  <speed>8.429525490797213</speed>
  <fix>3d</fix>
</trkpt>
<trkpt lat="40.0739039" lon="-105.2320008">
  <ele>1685.98</ele>
  <time>2026-08-28T19:07:55Z</time>
  <course>352.2</course>
  <speed>8.37</speed>
  <fix>3d</fix>
</trkpt>
<trkpt lat="40.0739286" lon="-105.2320045">
  <ele>1686.11</ele>
  <time>2026-08-28T19:07:55Z</time>
  <course>352.06</course>
  <speed>8.51354802652807</speed>
  <fix>3d</fix>
</trkpt>
<trkpt lat="40.0739189" lon="-105.2320033">
  <ele>1686.01</ele>
  <time>2026-08-28T19:07:55Z</time>
  <course>353.1</course>
  <speed>8.49</speed>
  <fix>3d</fix>
</trkpt>
<trkpt lat="40.0739439" lon="-105.2320064">
  <ele>1686.13</ele>
  <time>2026-08-28T19:07:55Z</time>
  <course>353.58</course>
  <speed>8.548707504646536</speed>
  <fix>3d</fix>
</trkpt>
<trkpt lat="40.0739341" lon="-105.2320055">
  <ele>1686.03</ele>
  <time>2026-08-28T19:07:55Z</time>
  <course>354.13</course>
  <speed>8.57</speed>
  <fix>3d</fix>
</trkpt>
<trkpt lat="40.0739592" lon="-105.232008">
  <ele>1686.15</ele>
  <time>2026-08-28T19:07:55Z</time>
  <course>355.22</course>
  <speed>8.546449555224672</speed>
  <fix>3d</fix>
</trkpt>
<trkpt lat="40.0739495" lon="-105.2320074">
  <ele>1686.06</ele>
  <time>2026-08-28T19:07:55Z</time>
  <course>355.25</course>
  <speed>8.6</speed>
  <fix>3d</fix>
</trkpt>
<trkpt lat="40.0739745" lon="-105.2320092">
  <ele>1686.16</ele>
  <time>2026-08-28T19:07:55Z</time>
  <course>356.76</course>
  <speed>8.53717751953185</speed>
  <fix>3d</fix>
</trkpt>
<trkpt lat="40.073965" lon="-105.2320088">
  <ele>1686.07</ele>
  <time>2026-08-28T19:07:55Z</time>
  <course>356.44</course>
  <speed>8.6</speed>
  <fix>3d</fix>
</trkpt>
<trkpt lat="40.0739899" lon="-105.2320099">
  <ele>1686.16</ele>
  <time>2026-08-28T19:07:55Z</time>
  <course>358.1</course>
  <speed>8.51169783298256</speed>
  <fix>3d</fix>
</trkpt>
<trkpt lat="40.0739803" lon="-105.2320099">
  <ele>1686.08</ele>
  <time>2026-08-28T19:07:55Z</time>
  <course>357.67</course>
  <speed>8.58</speed>
  <fix>3d</fix>
</trkpt>
<trkpt lat="40.0740052" lon="-105.2320102">
  <ele>1686.15</ele>
  <time>2026-08-28T19:07:55Z</time>
  <course>359.38</course>
  <speed>8.47</speed>
  <fix>3d</fix>
</trkpt>
<trkpt lat="40.0739957" lon="-105.2320105">
  <ele>1686.08</ele>
  <time>2026-08-28T19:07:55Z</time>
  <course>358.89</course>
  <speed>8.55</speed>
  <fix>3d</fix>
</trkpt>
<trkpt lat="40.0740204" lon="-105.2320101">
  <ele>1686.15</ele>
  <time>2026-08-28T19:07:55Z</time>
  <course>0.69</course>
  <speed>8.40133917896427</speed>
  <fix>3d</fix>
</trkpt>
<trkpt lat="40.074011" lon="-105.2320106">
  <ele>1686.08</ele>
  <time>2026-08-28T19:07:55Z</time>
  <course>0.05</course>
  <speed>8.5</speed>
  <fix>3d</fix>
</trkpt>
<trkpt lat="40.0740355" lon="-105.2320097">
  <ele>1686.15</ele>
  <time>2026-08-28T19:07:55Z</time>
  <course>2.02</course>
  <speed>8.274738666568268</speed>
  <fix>3d</fix>
</trkpt>
<trkpt lat="40.0740263" lon="-105.2320105">
  <ele>1686.08</ele>
  <time>2026-08-28T19:07:55Z</time>
  <course>1.09</course>
  <speed>8.42</speed>
  <fix>3d</fix>
</trkpt>
<trkpt lat="40.0740503" lon="-105.2320091">
  <ele>1686.16</ele>
  <time>2026-08-28T19:07:56Z</time>
  <course>3.29</course>
  <speed>8.0894066531483</speed>
  <fix>3d</fix>
</trkpt>
<trkpt lat="40.0740413" lon="-105.2320099">
  <ele>1686.08</ele>
  <time>2026-08-28T19:07:56Z</time>
  <course>2.01</course>
  <speed>8.27</speed>
  <fix>3d</fix>
</trkpt>
<trkpt lat="40.0740647" lon="-105.2320082">
  <ele>1686.17</ele>
  <time>2026-08-28T19:07:56Z</time>
  <course>4.48</course>
  <speed>7.854075375243098</speed>
  <fix>3d</fix>
</trkpt>
<trkpt lat="40.074056" lon="-105.2320091">
  <ele>1686.1</ele>
  <time>2026-08-28T19:07:56Z</time>
  <course>2.8</course>
  <speed>8.07</speed>
  <fix>3d</fix>
</trkpt>
<trkpt lat="40.0740786" lon="-105.2320071">
  <ele>1686.19</ele>
  <time>2026-08-28T19:07:56Z</time>
  <course>5.52</course>
  <speed>7.558604368532594</speed>
  <fix>3d</fix>
</trkpt>
<trkpt lat="40.0740703" lon="-105.2320082">
  <ele>1686.12</ele>
  <time>2026-08-28T19:07:56Z</time>
  <course>3.5</course>
  <speed>7.81</speed>
  <fix>3d</fix>
</trkpt>
<trkpt lat="40.074092" lon="-105.2320058">
  <ele>1686.21</ele>
  <time>2026-08-28T19:07:56Z</time>
  <course>6.43</course>
  <speed>7.21255849196386</speed>
  <fix>3d</fix>
</trkpt>
<trkpt lat="40.074084" lon="-105.232007">
  <ele>1686.14</ele>
  <time>2026-08-28T19:07:56Z</time>
  <course>4.11</course>
  <speed>7.5</speed>
  <fix>3d</fix>
</trkpt>
<trkpt lat="40.0741047" lon="-105.2320045">
  <ele>1686.21</ele>
  <time>2026-08-28T19:07:56Z</time>
  <course>7.16</course>
  <speed>6.825547597079666</speed>
  <fix>3d</fix>
</trkpt>
<trkpt lat="40.0740972" lon="-105.2320057">
  <ele>1686.15</ele>
  <time>2026-08-28T19:07:56Z</time>
  <course>4.62</course>
  <speed>7.14</speed>
  <fix>3d</fix>
</trkpt>
<trkpt lat="40.0741166" lon="-105.2320032">
  <ele>1686.22</ele>
  <time>2026-08-28T19:07:56Z</time>
  <course>7.74</course>
  <speed>6.387307727047445</speed>
  <fix>3d</fix>
</trkpt>
<trkpt lat="40.0741096" lon="-105.2320043">
  <ele>1686.16</ele>
  <time>2026-08-28T19:07:56Z</time>
  <course>5.04</course>
  <speed>6.74</speed>
  <fix>3d</fix>
</trkpt>
<trkpt lat="40.0741278" lon="-105.2320019">
  <ele>1686.22</ele>
  <time>2026-08-28T19:07:56Z</time>
  <course>8.12</course>
  <speed>5.9265166835165495</speed>
  <fix>3d</fix>
</trkpt>
<trkpt lat="40.0741212" lon="-105.2320029">
  <ele>1686.17</ele>
  <time>2026-08-28T19:07:56Z</time>
  <course>5.35</course>
  <speed>6.29</speed>
  <fix>3d</fix>
</trkpt>
<trkpt lat="40.0741381" lon="-105.2320006">
  <ele>1686.22</ele>
  <time>2026-08-28T19:07:56Z</time>
  <course>8.27</course>
  <speed>5.455804248687814</speed>
  <fix>3d</fix>
</trkpt>
<trkpt lat="40.0741321" lon="-105.2320015">
  <ele>1686.16</ele>
  <time>2026-08-28T19:07:56Z</time>
  <course>5.54</course>
  <speed>5.82</speed>
  <fix>3d</fix>
</trkpt>
<trkpt lat="40.0741475" lon="-105.2319994">
  <ele>1686.2</ele>
  <time>2026-08-28T19:07:56Z</time>
  <course>8.15</course>
  <speed>5.013033014054466</speed>
  <fix>3d</fix>
</trkpt>
<trkpt lat="40.074142" lon="-105.2320002">
  <ele>1686.15</ele>
  <time>2026-08-28T19:07:56Z</time>
  <course>5.6</course>
  <speed>5.35</speed>
  <fix>3d</fix>
</trkpt>
<trkpt lat="40.0741563" lon="-105.2319984">
  <ele>1686.18</ele>
  <time>2026-08-28T19:07:56Z</time>
  <course>7.76</course>
  <speed>4.609175631281585</speed>
  <fix>3d</fix>
</trkpt>
<trkpt lat="40.0741512" lon="-105.2319991">
  <ele>1686.12</ele>
  <time>2026-08-28T19:07:56Z</time>
  <course>5.51</course>
  <speed>4.91</speed>
  <fix>3d</fix>
</trkpt>
<trkpt lat="40.0741643" lon="-105.2319974">
  <ele>1686.15</ele>
  <time>2026-08-28T19:07:56Z</time>
  <course>7.11</course>
  <speed>4.274353752323268</speed>
  <fix>3d</fix>
</trkpt>
<trkpt lat="40.0741596" lon="-105.2319981">
  <ele>1686.09</ele>
  <time>2026-08-28T19:07:56Z</time>
  <course>5.22</course>
  <speed>4.52</speed>
  <fix>3d</fix>
</trkpt>
<trkpt lat="40.0741718" lon="-105.2319967">
  <ele>1686.11</ele>
  <time>2026-08-28T19:07:56Z</time>
  <course>6.17</course>
  <speed>4.009102143872116</speed>
  <fix>3d</fix>
</trkpt>
<trkpt lat="40.0741675" lon="-105.2319972">
  <ele>1686.05</ele>
  <time>2026-08-28T19:07:56Z</time>
  <course>4.66</course>
  <speed>4.19</speed>
  <fix>3d</fix>
</trkpt>
<trkpt lat="40.0741788" lon="-105.2319961">
  <ele>1686.07</ele>
  <time>2026-08-28T19:07:56Z</time>
  <course>4.91</course>
  <speed>3.814734591029892</speed>
  <fix>3d</fix>
</trkpt>
<trkpt lat="40.0741747" lon="-105.2319964">
  <ele>1686.01</ele>
  <time>2026-08-28T19:07:56Z</time>
  <course>3.77</course>
  <speed>3.94</speed>
  <fix>3d</fix>
</trkpt>
<trkpt lat="40.0741856" lon="-105.2319958">
  <ele>1686.04</ele>
  <time>2026-08-28T19:07:56Z</time>
  <course>3.35</course>
  <speed>3.6811003789627903</speed>
  <fix>3d</fix>
</trkpt>
<trkpt lat="40.0741816" lon="-105.231996">
  <ele>1685.97</ele>
  <time>2026-08-28T19:07:56Z</time>
  <course>2.55</course>
  <speed>3.75</speed>
  <fix>3d</fix>
</trkpt>
<trkpt lat="40.0741922" lon="-105.2319957">
  <ele>1686.01</ele>
  <time>2026-08-28T19:07:56Z</time>
  <course>1.61</course>
  <speed>3.62</speed>
  <fix>3d</fix>
</trkpt>
<trkpt lat="40.0741883" lon="-105.2319957">
  <ele>1685.93</ele>
  <time>2026-08-28T19:07:56Z</time>
  <course>1.08</course>
  <speed>3.63</speed>
  <fix>3d</fix>
</trkpt>
<trkpt lat="40.0741987" lon="-105.2319957">
  <ele>1685.99</ele>
  <time>2026-08-28T19:07:56Z</time>
  <course>359.81</course>
  <speed>3.6111217093861567</speed>
  <fix>3d</fix>
</trkpt>
<trkpt lat="40.0741948" lon="-105.2319957">
  <ele>1685.91</ele>
  <time>2026-08-28T19:07:56Z</time>
  <course>359.49</course>
  <speed>3.58</speed>
  <fix>3d</fix>
</trkpt>
<trkpt lat="40.0742052" lon="-105.231996">
  <ele>1685.98</ele>
  <time>2026-08-28T19:07:56Z</time>
  <course>358.13</course>
  <speed>3.6544356609468447</speed>
  <fix>3d</fix>
</trkpt>
<trkpt lat="40.0742012" lon="-105.2319957">
  <ele>1685.89</ele>
  <time>2026-08-28T19:07:56Z</time>
  <course>357.95</course>
  <speed>3.58</speed>
  <fix>3d</fix>
</trkpt>
<trkpt lat="40.0742118" lon="-105.2319965">
  <ele>1685.98</ele>
  <time>2026-08-28T19:07:56Z</time>
  <course>356.66</course>
  <speed>3.7390506816570435</speed>
  <fix>3d</fix>
</trkpt>
<trkpt lat="40.0742077" lon="-105.2319961">
  <ele>1685.88</ele>
  <time>2026-08-28T19:07:56Z</time>
  <course>356.61</course>
  <speed>3.64</speed>
  <fix>3d</fix>
</trkpt>
<trkpt lat="40.0742185" lon="-105.2319972">
  <ele>1685.98</ele>
  <time>2026-08-28T19:07:56Z</time>
  <course>355.27</course>
  <speed>3.8317619967842473</speed>
  <fix>3d</fix>
</trkpt>
<trkpt lat="40.0742143" lon="-105.2319967">
  <ele>1685.88</ele>
  <time>2026-08-28T19:07:56Z</time>
  <course>355.59</course>
  <speed>3.73</speed>
  <fix>3d</fix>
</trkpt>
<trkpt lat="40.0742254" lon="-105.2319979">
  <ele>1686.0</ele>
  <time>2026-08-28T19:07:56Z</time>
  <course>355.06</course>
  <speed>3.8509349514111504</speed>
  <fix>3d</fix>
</trkpt>
<trkpt lat="40.0742211" lon="-105.2319975">
  <ele>1685.88</ele>
  <time>2026-08-28T19:07:56Z</time>
  <course>355.15</course>
  <speed>3.81</speed>
  <fix>3d</fix>
</trkpt>
<trkpt lat="40.0742322" lon="-105.2319985">
  <ele>1686.02</ele>
  <time>2026-08-28T19:07:56Z</time>
  <course>356.21</course>
  <speed>3.7553295461250804</speed>
  <fix>3d</fix>
</trkpt>
<trkpt lat="40.0742278" lon="-105.2319982">
  <ele>1685.9</ele>
  <time>2026-08-28T19:07:56Z</time>
  <course>355.56</course>
  <speed>3.8</speed>
  <fix>3d</fix>
</trkpt>
<trkpt lat="40.0742387" lon="-105.2319988">
  <ele>1686.05</ele>
  <time>2026-08-28T19:07:56Z</time>
  <course>358.62</course>
  <speed>3.5903481725314608</speed>
  <fix>3d</fix>
</trkpt>
<trkpt lat="40.0742346" lon="-105.2319988">
  <ele>1685.93</ele>
  <time>2026-08-28T19:07:56Z</time>
  <course>357.01</course>
  <speed>3.69</speed>
  <fix>3d</fix>
</trkpt>
<trkpt lat="40.074245" lon="-105.2319988">
  <ele>1686.07</ele>
  <time>2026-08-28T19:07:56Z</time>
  <course>1.97</course>
  <speed>3.4037626239207692</speed>
  <fix>3d</fix>
</trkpt>
<trkpt lat="40.0742411" lon="-105.2319991">
  <ele>1685.96</ele>
  <time>2026-08-28T19:07:56Z</time>
  <course>359.64</course>
  <speed>3.53</speed>
  <fix>3d</fix>
</trkpt>
<trkpt lat="40.0742509" lon="-105.2319982">
  <ele>1686.09</ele>
  <time>2026-08-28T19:07:56Z</time>
  <course>6.33</course>
  <speed>3.2274448097527557</speed>
  <fix>3d</fix>
</trkpt>
<trkpt lat="40.0742472" lon="-105.2319988">
  <ele>1685.99</ele>
  <time>2026-08-28T19:07:56Z</time>
  <course>3.53</course>
  <speed>3.35</speed>
  <fix>3d</fix>
</trkpt>
<trkpt lat="40.0742565" lon="-105.231997">
  <ele>1686.09</ele>
  <time>2026-08-28T19:07:56Z</time>
  <course>11.71</course>
  <speed>3.0754674441456866</speed>
  <fix>3d</fix>
</trkpt>
<trkpt lat="40.0742531" lon="-105.2319981">
  <ele>1686.01</ele>
  <time>2026-08-28T19:07:56Z</time>
  <course>8.69</course>
  <speed>3.18</speed>
  <fix>3d</fix>
</trkpt>
<trkpt lat="40.0742617" lon="-105.231995">
  <ele>1686.09</ele>
  <time>2026-08-28T19:07:56Z</time>
  <course>18.06</course>
  <speed>2.962330163908135</speed>
  <fix>3d</fix>
</trkpt>
<trkpt lat="40.0742586" lon="-105.2319967">
  <ele>1686.02</ele>
  <time>2026-08-28T19:07:56Z</time>
  <course>15.06</course>
  <speed>3.03</speed>
  <fix>3d</fix>
</trkpt>
<trkpt lat="40.0742665" lon="-105.2319922">
  <ele>1686.09</ele>
  <time>2026-08-28T19:07:56Z</time>
  <course>25.27</course>
  <speed>2.9090376415577714</speed>
  <fix>3d</fix>
</trkpt>
<trkpt lat="40.0742636" lon="-105.2319944">
  <ele>1686.02</ele>
  <time>2026-08-28T19:07:56Z</time>
  <course>22.48</course>
  <speed>2.94</speed>
  <fix>3d</fix>
</trkpt>
<trkpt lat="40.0742709" lon="-105.2319886">
  <ele>1686.08</ele>
  <time>2026-08-28T19:07:56Z</time>
  <course>33.08</course>
  <speed>2.9260553651631405</speed>
  <fix>3d</fix>
</trkpt>
<trkpt lat="40.0742683" lon="-105.2319914">
  <ele>1686.01</ele>
  <time>2026-08-28T19:07:56Z</time>
  <course>30.68</course>
  <speed>2.9</speed>
  <fix>3d</fix>
</trkpt>
<trkpt lat="40.0742749" lon="-105.2319841">
  <ele>1686.07</ele>
  <time>2026-08-28T19:07:56Z</time>
  <course>41.13</course>
  <speed>3.0054117854297435</speed>
  <fix>3d</fix>
</trkpt>
<trkpt lat="40.0742726" lon="-105.2319875">
  <ele>1686.0</ele>
  <time>2026-08-28T19:07:56Z</time>
  <course>39.22</course>
  <speed>2.94</speed>
  <fix>3d</fix>
</trkpt>
<trkpt lat="40.0742786" lon="-105.2319787">
  <ele>1686.05</ele>
  <time>2026-08-28T19:07:56Z</time>
  <course>48.99</course>
  <speed>3.1681066901226673</speed>
  <fix>3d</fix>
</trkpt>
<trkpt lat="40.0742765" lon="-105.2319826">
  <ele>1685.98</ele>
  <time>2026-08-28T19:07:56Z</time>
  <course>47.57</course>
  <speed>3.05</speed>
  <fix>3d</fix>
</trkpt>
<trkpt lat="40.0742818" lon="-105.2319723">
  <ele>1686.04</ele>
  <time>2026-08-28T19:07:56Z</time>
  <course>56.28</course>
  <speed>3.398602654032978</speed>
  <fix>3d</fix>
</trkpt>
<trkpt lat="40.07428" lon="-105.2319768">
  <ele>1685.97</ele>
  <time>2026-08-28T19:07:56Z</time>
  <course>55.27</course>
  <speed>3.23</speed>
  <fix>3d</fix>
</trkpt>
<trkpt lat="40.0742847" lon="-105.231965">
  <ele>1686.02</ele>
  <time>2026-08-28T19:07:56Z</time>
  <course>62.68</course>
  <speed>3.659521826687197</speed>
  <fix>3d</fix>
</trkpt>
<trkpt lat="40.0742831" lon="-105.2319701">
  <ele>1685.95</ele>
  <time>2026-08-28T19:07:56Z</time>
  <course>62.05</course>
  <speed>3.46</speed>
  <fix>3d</fix>
</trkpt>
<trkpt lat="40.0742871" lon="-105.2319567">
  <ele>1686.01</ele>
  <time>2026-08-28T19:07:56Z</time>
  <course>68.09</course>
  <speed>3.949696190848101</speed>
  <fix>3d</fix>
</trkpt>
<trkpt lat="40.0742859" lon="-105.2319625">
  <ele>1685.94</ele>
  <time>2026-08-28T19:07:56Z</time>
  <course>67.84</course>
  <speed>3.74</speed>
  <fix>3d</fix>
</trkpt>
<trkpt lat="40.0742892" lon="-105.2319475">
  <ele>1686.0</ele>
  <time>2026-08-28T19:07:56Z</time>
  <course>72.62</course>
  <speed>4.256500910372274</speed>
  <fix>3d</fix>
</trkpt>
<trkpt lat="40.0742882" lon="-105.2319538">
  <ele>1685.93</ele>
  <time>2026-08-28T19:07:56Z</time>
  <course>72.72</course>
  <speed>4.04</speed>
  <fix>3d</fix>
</trkpt>
<trkpt lat="40.074291" lon="-105.2319374">
  <ele>1686.0</ele>
  <time>2026-08-28T19:07:56Z</time>
  <course>76.36</course>
  <speed>4.574101004569094</speed>
  <fix>3d</fix>
</trkpt>
<trkpt lat="40.0742901" lon="-105.2319443">
  <ele>1685.93</ele>
  <time>2026-08-28T19:07:56Z</time>
  <course>76.8</course>
  <speed>4.35</speed>
  <fix>3d</fix>
</trkpt>
<trkpt lat="40.0742923" lon="-105.2319266">
  <ele>1686.0</ele>
  <time>2026-08-28T19:07:56Z</time>
  <course>79.58</course>
  <speed>4.879549159502341</speed>
  <fix>3d</fix>
</trkpt>
<trkpt lat="40.0742918" lon="-105.231934">
  <ele>1685.93</ele>
  <time>2026-08-28T19:07:56Z</time>
  <course>80.27</course>
  <speed>4.67</speed>
  <fix>3d</fix>
</trkpt>
<trkpt lat="40.0742933" lon="-105.2319149">
  <ele>1686.0</ele>
  <time>2026-08-28T19:07:56Z</time>
  <course>82.35</course>
  <speed>5.177064805466511</speed>
  <fix>3d</fix>
</trkpt>
<trkpt lat="40.074293" lon="-105.2319227">
  <ele>1685.93</ele>
  <time>2026-08-28T19:07:56Z</time>
  <course>83.24</course>
  <speed>4.98</speed>
  <fix>3d</fix>
</trkpt>
<trkpt lat="40.074294" lon="-105.2319026">
  <ele>1686.0</ele>
  <time>2026-08-28T19:07:56Z</time>
  <course>84.84</course>
  <speed>5.454044370923287</speed>
  <fix>3d</fix>
</trkpt>
<trkpt lat="40.0742939" lon="-105.2319107">
  <ele>1685.93</ele>
  <time>2026-08-28T19:07:56Z</time>
  <course>85.83</course>
  <speed>5.27</speed>
  <fix>3d</fix>
</trkpt>
<trkpt lat="40.0742943" lon="-105.2318896">
  <ele>1686.01</ele>
  <time>2026-08-28T19:07:56Z</time>
  <course>87.08</course>
  <speed>5.720008741252062</speed>
  <fix>3d</fix>
</trkpt>
<trkpt lat="40.0742944" lon="-105.231898">
  <ele>1685.93</ele>
  <time>2026-08-28T19:07:56Z</time>
  <course>88.14</course>
  <speed>5.55</speed>
  <fix>3d</fix>
</trkpt>
<trkpt lat="40.0742942" lon="-105.2318759">
  <ele>1686.01</ele>
  <time>2026-08-28T19:07:56Z</time>
  <course>89.15</course>
  <speed>5.962717501274062</speed>
  <fix>3d</fix>
</trkpt>
<trkpt lat="40.0742945" lon="-105.2318847">
  <ele>1685.94</ele>
  <time>2026-08-28T19:07:56Z</time>
  <course>90.21</course>
  <speed>5.82</speed>
  <fix>3d</fix>
</trkpt>
<trkpt lat="40.0742937" lon="-105.2318617">
  <ele>1686.02</ele>
  <time>2026-08-28T19:07:56Z</time>
  <course>91.04</course>
  <speed>6.191066144049828</speed>
  <fix>3d</fix>
</trkpt>
<trkpt lat="40.0742944" lon="-105.2318707">
  <ele>1685.95</ele>
  <time>2026-08-28T19:07:56Z</time>
  <course>92.09</course>
  <speed>6.06</speed>
  <fix>3d</fix>
</trkpt>
<trkpt lat="40.0742931" lon="-105.231847">
  <ele>1686.03</ele>
  <time>2026-08-28T19:07:56Z</time>
  <course>92.81</course>
  <speed>6.405411774429495</speed>
  <fix>3d</fix>
</trkpt>
<trkpt lat="40.0742938" lon="-105.2318562">
  <ele>1685.96</ele>
  <time>2026-08-28T19:07:56Z</time>
  <course>93.8</course>
  <speed>6.28</speed>
  <fix>3d</fix>
</trkpt>
<trkpt lat="40.0742919" lon="-105.2318318">
  <ele>1686.03</ele>
  <time>2026-08-28T19:07:56Z</time>
  <course>94.4</course>
  <speed>6.5927991020506616</speed>
  <fix>3d</fix>
</trkpt>
<trkpt lat="40.0742929" lon="-105.2318412">
  <ele>1685.97</ele>
  <time>2026-08-28T19:07:56Z</time>
  <course>95.37</course>
  <speed>6.49</speed>
  <fix>3d</fix>
</trkpt>
<trkpt lat="40.0742905" lon="-105.2318162">
  <ele>1686.04</ele>
  <time>2026-08-28T19:07:56Z</time>
  <course>95.9</course>
  <speed>6.7727763878633995</speed>
  <fix>3d</fix>
</trkpt>
<trkpt lat="40.0742916" lon="-105.2318258">
  <ele>1685.98</ele>
  <time>2026-08-28T19:07:56Z</time>
  <course>96.8</course>
  <speed>6.69</speed>
  <fix>3d</fix>
</trkpt>
<trkpt lat="40.0742887" lon="-105.2318002">
  <ele>1686.04</ele>
  <time>2026-08-28T19:07:56Z</time>
  <course>97.26</course>
  <speed>6.946056435129217</speed>
  <fix>3d</fix>
</trkpt>
<trkpt lat="40.0742901" lon="-105.23181">
  <ele>1685.99</ele>
  <time>2026-08-28T19:07:56Z</time>
  <course>98.09</course>
  <speed>6.86</speed>
  <fix>3d</fix>
</trkpt>
<trkpt lat="40.0742867" lon="-105.2317839">
  <ele>1686.05</ele>
  <time>2026-08-28T19:07:56Z</time>
  <course>98.45</course>
  <speed>7.110731326663946</speed>
  <fix>3d</fix>
</trkpt>
<trkpt lat="40.0742882" lon="-105.2317939">
  <ele>1686.0</ele>
  <time>2026-08-28T19:07:56Z</time>
  <course>99.26</course>
  <speed>7.03</speed>
  <fix>3d</fix>
</trkpt>
<trkpt lat="40.0742843" lon="-105.2317672">
  <ele>1686.05</ele>
  <time>2026-08-28T19:07:56Z</time>
  <course>99.5</course>
  <speed>7.264227419347497</speed>
  <fix>3d</fix>
</trkpt>
<trkpt lat="40.074286" lon="-105.2317774">
  <ele>1686.0</ele>
  <time>2026-08-28T19:07:56Z</time>
  <course>100.31</course>
  <speed>7.19</speed>
  <fix>3d</fix>
</trkpt>
<trkpt lat="40.0742818" lon="-105.2317503">
  <ele>1686.05</ele>
  <time>2026-08-28T19:07:56Z</time>
  <course>100.4</course>
  <speed>7.4292529907117855</speed>
  <fix>3d</fix>
</trkpt>
<trkpt lat="40.0742836" lon="-105.2317607">
  <ele>1686.01</ele>
  <time>2026-08-28T19:07:56Z</time>
  <course>101.23</course>
  <speed>7.35</speed>
  <fix>3d</fix>
</trkpt>
<trkpt lat="40.0742789" lon="-105.231733">
  <ele>1686.06</ele>
  <time>2026-08-28T19:07:56Z</time>
  <course>101.16</course>
  <speed>7.593661830763864</speed>
  <fix>3d</fix>
</trkpt>
<trkpt lat="40.0742809" lon="-105.2317435">
  <ele>1686.01</ele>
  <time>2026-08-28T19:07:56Z</time>
  <course>102.03</course>
  <speed>7.51</speed>
  <fix>3d</fix>
</trkpt>
<trkpt lat="40.0742759" lon="-105.2317154">
  <ele>1686.06</ele>
  <time>2026-08-28T19:07:56Z</time>
  <course>101.76</course>
  <speed>7.75470179955361</speed>
  <fix>3d</fix>
</trkpt>
<trkpt lat="40.0742779" lon="-105.2317262">
  <ele>1686.02</ele>
  <time>2026-08-28T19:07:56Z</time>
  <course>102.71</course>
  <speed>7.67</speed>
  <fix>3d</fix>
</trkpt>
<trkpt lat="40.0742727" lon="-105.2316975">
  <ele>1686.05</ele>
  <time>2026-08-28T19:07:56Z</time>
  <course>102.22</course>
  <speed>7.933536411966608</speed>
  <fix>3d</fix>
</trkpt>
<trkpt lat="40.0742748" lon="-105.2317084">
  <ele>1686.01</ele>
  <time>2026-08-28T19:07:56Z</time>
  <course>103.26</course>
  <speed>7.84</speed>
  <fix>3d</fix>
</trkpt>
<trkpt lat="40.0742692" lon="-105.2316791">
  <ele>1686.04</ele>
  <time>2026-08-28T19:07:56Z</time>
  <course>102.51</course>
  <speed>8.110394565001139</speed>
  <fix>3d</fix>
</trkpt>
<trkpt lat="40.0742714" lon="-105.2316903">
  <ele>1686.01</ele>
  <time>2026-08-28T19:07:56Z</time>
  <course>103.7</course>
  <speed>8.01</speed>
  <fix>3d</fix>
</trkpt>
<trkpt lat="40.0742656" lon="-105.2316602">
  <ele>1686.04</ele>
  <time>2026-08-28T19:07:56Z</time>
  <course>102.69</course>
  <speed>8.304462655705064</speed>
  <fix>3d</fix>
</trkpt>
<trkpt lat="40.0742679" lon="-105.2316718">
  <ele>1686.0</ele>
  <time>2026-08-28T19:07:56Z</time>
  <course>104.02</course>
  <speed>8.2</speed>
  <fix>3d</fix>
</trkpt>
<trkpt lat="40.0742619" lon="-105.2316411">
  <ele>1686.04</ele>
  <time>2026-08-28T19:07:56Z</time>
  <course>102.75</course>
  <speed>8.505862684055039</speed>
  <fix>3d</fix>
</trkpt>
<trkpt lat="40.0742643" lon="-105.2316529">
  <ele>1686.0</ele>
  <time>2026-08-28T19:07:56Z</time>
  <course>104.23</course>
  <speed>8.39</speed>
  <fix>3d</fix>
</trkpt>
<trkpt lat="40.0742581" lon="-105.2316214">
  <ele>1686.03</ele>
  <time>2026-08-28T19:07:56Z</time>
  <course>102.7</course>
  <speed>8.714499411899688</speed>
  <fix>3d</fix>
</trkpt>
<trkpt lat="40.0742606" lon="-105.2316336">
  <ele>1685.99</ele>
  <time>2026-08-28T19:07:56Z</time>
  <course>104.34</course>
  <speed>8.59</speed>
  <fix>3d</fix>
</trkpt>
<trkpt lat="40.0742541" lon="-105.2316012">
  <ele>1686.03</ele>
  <time>2026-08-28T19:07:56Z</time>
  <course>102.23</course>
  <speed>8.920650200517898</speed>
  <fix>3d</fix>
</trkpt>
<trkpt lat="40.0742567" lon="-105.2316138">
  <ele>1685.99</ele>
  <time>2026-08-28T19:07:56Z</time>
  <course>104.37</course>
  <speed>8.8</speed>
  <fix>3d</fix>
</trkpt>
<trkpt lat="40.0742501" lon="-105.2315807">
  <ele>1686.04</ele>
  <time>2026-08-28T19:07:56Z</time>
  <course>102.42</course>
  <speed>9.027231026178516</speed>
  <fix>3d</fix>
</trkpt>
<trkpt lat="40.0742527" lon="-105.2315936">
  <ele>1685.99</ele>
  <time>2026-08-28T19:07:56Z</time>
  <course>104.31</course>
  <speed>8.97</speed>
  <fix>3d</fix>
</trkpt>
<trkpt lat="40.0742462" lon="-105.2315601">
  <ele>1686.08</ele>
  <time>2026-08-28T19:07:56Z</time>
  <course>103.17</course>
  <speed>8.978669166418818</speed>
  <fix>3d</fix>
</trkpt>
<trkpt lat="40.0742488" lon="-105.231573">
  <ele>1686.01</ele>
  <time>2026-08-28T19:07:56Z</time>
  <course>104.14</course>
  <speed>9.04</speed>
  <fix>3d</fix>
</trkpt>
<trkpt lat="40.0742423" lon="-105.2315398">
  <ele>1686.15</ele>
  <time>2026-08-28T19:07:56Z</time>
  <course>104.11</course>
  <speed>8.796800554747163</speed>
  <fix>3d</fix>
</trkpt>
<trkpt lat="40.0742448" lon="-105.2315525">
  <ele>1686.06</ele>
  <time>2026-08-28T19:07:56Z</time>
  <course>103.95</course>
  <speed>8.95</speed>
  <fix>3d</fix>
</trkpt>
<trkpt lat="40.0742386" lon="-105.23152">
  <ele>1686.22</ele>
  <time>2026-08-28T19:07:56Z</time>
  <course>105.01</course>
  <speed>8.539707254935616</speed>
  <fix>3d</fix>
</trkpt>
<trkpt lat="40.074241" lon="-105.2315323">
  <ele>1686.13</ele>
  <time>2026-08-28T19:07:56Z</time>
  <course>103.85</course>
  <speed>8.75</speed>
  <fix>3d</fix>
</trkpt>
<trkpt lat="40.074235" lon="-105.2315008">
  <ele>1686.27</ele>
  <time>2026-08-28T19:07:56Z</time>
  <course>105.72</course>
  <speed>8.234087684740793</speed>
  <fix>3d</fix>
</trkpt>
<trkpt lat="40.0742373" lon="-105.2315127">
  <ele>1686.2</ele>
  <time>2026-08-28T19:07:56Z</time>
  <course>103.86</course>
  <speed>8.48</speed>
  <fix>3d</fix>
</trkpt>
<trkpt lat="40.0742315" lon="-105.2314822">
  <ele>1686.3</ele>
  <time>2026-08-28T19:07:56Z</time>
  <course>106.24</course>
  <speed>7.906661748171602</speed>
  <fix>3d</fix>
</trkpt>
<trkpt lat="40.0742337" lon="-105.2314937">
  <ele>1686.24</ele>
  <time>2026-08-28T19:07:56Z</time>
  <course>103.95</course>
  <speed>8.17</speed>
  <fix>3d</fix>
</trkpt>
<trkpt lat="40.0742281" lon="-105.2314645">
  <ele>1686.3</ele>
  <time>2026-08-28T19:07:56Z</time>
  <course>106.56</course>
  <speed>7.535582260184014</speed>
  <fix>3d</fix>
</trkpt>
<trkpt lat="40.0742302" lon="-105.2314754">
  <ele>1686.26</ele>
  <time>2026-08-28T19:07:56Z</time>
  <course>104.01</course>
  <speed>7.82</speed>
  <fix>3d</fix>
</trkpt>
<trkpt lat="40.0742249" lon="-105.2314477">
  <ele>1686.3</ele>
  <time>2026-08-28T19:07:56Z</time>
  <course>106.65</course>
  <speed>7.140259098940318</speed>
  <fix>3d</fix>
</trkpt>
<trkpt lat="40.0742269" lon="-105.2314581">
  <ele>1686.27</ele>
  <time>2026-08-28T19:07:56Z</time>
  <course>104.0</course>
  <speed>7.44</speed>
  <fix>3d</fix>
</trkpt>
<trkpt lat="40.0742219" lon="-105.2314318">
  <ele>1686.28</ele>
  <time>2026-08-28T19:07:56Z</time>
  <course>106.53</course>
  <speed>6.720788644199429</speed>
  <fix>3d</fix>
</trkpt>
<trkpt lat="40.0742238" lon="-105.2314415">
  <ele>1686.26</ele>
  <time>2026-08-28T19:07:56Z</time>
  <course>103.88</course>
  <speed>7.03</speed>
  <fix>3d</fix>
</trkpt>
<trkpt lat="40.0742192" lon="-105.2314169">
  <ele>1686.25</ele>
  <time>2026-08-28T19:07:56Z</time>
  <course>106.17</course>
  <speed>6.279697444941117</speed>
  <fix>3d</fix>
</trkpt>
<trkpt lat="40.0742209" lon="-105.231426">
  <ele>1686.24</ele>
  <time>2026-08-28T19:07:56Z</time>
  <course>103.63</course>
  <speed>6.6</speed>
  <fix>3d</fix>
</trkpt>
<trkpt lat="40.0742167" lon="-105.231403">
  <ele>1686.22</ele>
  <time>2026-08-28T19:07:56Z</time>
  <course>105.6</course>
  <speed>5.844150922075849</speed>
  <fix>3d</fix>
</trkpt>
<trkpt lat="40.0742182" lon="-105.2314114">
  <ele>1686.21</ele>
  <time>2026-08-28T19:07:56Z</time>
  <course>103.24</course>
  <speed>6.16</speed>
  <fix>3d</fix>
</trkpt>
<trkpt lat="40.0742145" lon="-105.23139">
  <ele>1686.18</ele>
  <time>2026-08-28T19:07:56Z</time>
  <course>104.81</course>
  <speed>5.41912354537152</speed>
  <fix>3d</fix>
</trkpt>
<trkpt lat="40.0742158" lon="-105.2313978">
  <ele>1686.17</ele>
  <time>2026-08-28T19:07:56Z</time>
  <course>102.67</course>
  <speed>5.72</speed>
  <fix>3d</fix>
</trkpt>
<trkpt lat="40.0742126" lon="-105.231378">
  <ele>1686.15</ele>
  <time>2026-08-28T19:07:56Z</time>
  <course>103.81</course>
  <speed>5.004897601350102</speed>
  <fix>3d</fix>
</trkpt>
<trkpt lat="40.0742137" lon="-105.2313852">
  <ele>1686.14</ele>
  <time>2026-08-28T19:07:56Z</time>
  <course>101.92</course>
  <speed>5.29</speed>
  <fix>3d</fix>
</trkpt>
<trkpt lat="40.074211" lon="-105.2313668">
  <ele>1686.12</ele>
  <time>2026-08-28T19:07:56Z</time>
  <course>102.58</course>
  <speed>4.6197943677181135</speed>
  <fix>3d</fix>
</trkpt>
<trkpt lat="40.0742118" lon="-105.2313734">
  <ele>1686.11</ele>
  <time>2026-08-28T19:07:56Z</time>
  <course>100.95</course>
  <speed>4.88</speed>
  <fix>3d</fix>
</trkpt>
<trkpt lat="40.0742097" lon="-105.2313565">
  <ele>1686.09</ele>
  <time>2026-08-28T19:07:56Z</time>
  <course>101.16</course>
  <speed>4.258368232081392</speed>
  <fix>3d</fix>
</trkpt>
<trkpt lat="40.0742103" lon="-105.2313626">
  <ele>1686.07</ele>
  <time>2026-08-28T19:07:56Z</time>
  <course>99.75</course>
  <speed>4.49</speed>
  <fix>3d</fix>
</trkpt>
<trkpt lat="40.0742086" lon="-105.231347">
  <ele>1686.06</ele>
  <time>2026-08-28T19:07:56Z</time>
  <course>99.5</course>
  <speed>3.9195025194532023</speed>
  <fix>3d</fix>
</trkpt>
<trkpt lat="40.0742091" lon="-105.2313525">
  <ele>1686.05</ele>
  <time>2026-08-28T19:07:56Z</time>
  <course>98.32</course>
  <speed>4.13</speed>
  <fix>3d</fix>
</trkpt>
<trkpt lat="40.0742078" lon="-105.2313381">
  <ele>1686.05</ele>
  <time>2026-08-28T19:07:56Z</time>
  <course>97.62</course>
  <speed>3.616019911449604</speed>
  <fix>3d</fix>
</trkpt>
<trkpt lat="40.0742082" lon="-105.2313433">
  <ele>1686.03</ele>
  <time>2026-08-28T19:07:56Z</time>
  <course>96.66</course>
  <speed>3.8</speed>
  <fix>3d</fix>
</trkpt>
<trkpt lat="40.0742073" lon="-105.23133">
  <ele>1686.03</ele>
  <time>2026-08-28T19:07:56Z</time>
  <course>95.64</course>
  <speed>3.33600059952033</speed>
  <fix>3d</fix>
</trkpt>
<trkpt lat="40.0742075" lon="-105.2313348">
  <ele>1686.01</ele>
  <time>2026-08-28T19:07:56Z</time>
  <course>94.79</course>
  <speed>3.5</speed>
  <fix>3d</fix>
</trkpt>
<trkpt lat="40.0742071" lon="-105.2313224">
  <ele>1686.02</ele>
  <time>2026-08-28T19:07:56Z</time>
  <course>93.5</course>
  <speed>3.0907927785602194</speed>
  <fix>3d</fix>
</trkpt>
<trkpt lat="40.0742071" lon="-105.2313269">
  <ele>1686.0</ele>
  <time>2026-08-28T19:07:56Z</time>
  <course>92.75</course>
  <speed>3.23</speed>
  <fix>3d</fix>
</trkpt>
<trkpt lat="40.074207" lon="-105.2313154">
  <ele>1686.02</ele>
  <time>2026-08-28T19:07:56Z</time>
  <course>91.36</course>
  <speed>2.8700696855651433</speed>
  <fix>3d</fix>
</trkpt>
<trkpt lat="40.0742069" lon="-105.2313197">
  <ele>1685.99</ele>
  <time>2026-08-28T19:07:56Z</time>
  <course>90.62</course>
  <speed>2.99</speed>
  <fix>3d</fix>
</trkpt>
<trkpt lat="40.0742071" lon="-105.2313089">
  <ele>1686.02</ele>
  <time>2026-08-28T19:07:56Z</time>
  <course>89.23</course>
  <speed>2.6726952688250862</speed>
  <fix>3d</fix>
</trkpt>
<trkpt lat="40.0742069" lon="-105.2313129">
  <ele>1685.99</ele>
  <time>2026-08-28T19:07:56Z</time>
  <course>88.47</course>
  <speed>2.77</speed>
  <fix>3d</fix>
</trkpt>
<trkpt lat="40.0742073" lon="-105.2313029">
  <ele>1686.03</ele>
  <time>2026-08-28T19:07:56Z</time>
  <course>87.24</course>
  <speed>2.487267577081324</speed>
  <fix>3d</fix>
</trkpt>
<trkpt lat="40.0742071" lon="-105.2313066">
  <ele>1685.99</ele>
  <time>2026-08-28T19:07:56Z</time>
  <course>86.37</course>
  <speed>2.58</speed>
  <fix>3d</fix>
</trkpt>
<trkpt lat="40.0742077" lon="-105.2312973">
  <ele>1686.03</ele>
  <time>2026-08-28T19:07:56Z</time>
  <course>85.4</course>
  <speed>2.323488756159582</speed>
  <fix>3d</fix>
</trkpt>
<trkpt lat="40.0742075" lon="-105.2313007">
  <ele>1685.99</ele>
  <time>2026-08-28T19:07:56Z</time>
  <course>84.41</course>
  <speed>2.4</speed>
  <fix>3d</fix>
</trkpt>
<trkpt lat="40.0742082" lon="-105.2312921">
  <ele>1686.04</ele>
  <time>2026-08-28T19:07:56Z</time>
  <course>83.81</course>
  <speed>2.168155898453799</speed>
  <fix>3d</fix>
</trkpt>
<trkpt lat="40.0742079" lon="-105.2312953">
  <ele>1686.0</ele>
  <time>2026-08-28T19:07:56Z</time>
  <course>82.63</course>
  <speed>2.24</speed>
  <fix>3d</fix>
</trkpt>
<trkpt lat="40.0742088" lon="-105.2312872">
  <ele>1686.05</ele>
  <time>2026-08-28T19:07:56Z</time>
  <course>82.43</course>
  <speed>2.0140009930484144</speed>
  <fix>3d</fix>
</trkpt>
<trkpt lat="40.0742085" lon="-105.2312903">
  <ele>1686.0</ele>
  <time>2026-08-28T19:07:56Z</time>
  <course>81.08</course>
  <speed>2.09</speed>
  <fix>3d</fix>
</trkpt>
<trkpt lat="40.0742094" lon="-105.2312828">
  <ele>1686.05</ele>
  <time>2026-08-28T19:07:56Z</time>
  <course>81.33</course>
  <speed>1.8560711193270587</speed>
  <fix>3d</fix>
</trkpt>
<trkpt lat="40.0742091" lon="-105.2312856">
  <ele>1686.01</ele>
  <time>2026-08-28T19:07:56Z</time>
  <course>79.8</course>
  <speed>1.94</speed>
  <fix>3d</fix>
</trkpt>
<trkpt lat="40.07421" lon="-105.2312787">
  <ele>1686.06</ele>
  <time>2026-08-28T19:07:56Z</time>
  <course>80.49</course>
  <speed>1.6985287751463027</speed>
  <fix>3d</fix>
</trkpt>
<trkpt lat="40.0742097" lon="-105.2312813">
  <ele>1686.01</ele>
  <time>2026-08-28T19:07:56Z</time>
  <course>78.79</course>
  <speed>1.79</speed>
  <fix>3d</fix>
</trkpt>
<trkpt lat="40.0742106" lon="-105.231275">
  <ele>1686.06</ele>
  <time>2026-08-28T19:07:56Z</time>
  <course>79.95</course>
  <speed>1.537595525487766</speed>
  <fix>3d</fix>
</trkpt>
<trkpt lat="40.0742104" lon="-105.2312774">
  <ele>1686.01</ele>
  <time>2026-08-28T19:07:56Z</time>
  <course>78.09</course>
  <speed>1.64</speed>
  <fix>3d</fix>
</trkpt>
<trkpt lat="40.0742111" lon="-105.2312716">
  <ele>1686.06</ele>
  <time>2026-08-28T19:07:56Z</time>
  <course>79.71</course>
  <speed>1.3748090776540574</speed>
  <fix>3d</fix>
</trkpt>
<trkpt lat="40.0742109" lon="-105.2312738">
  <ele>1686.02</ele>
  <time>2026-08-28T19:07:56Z</time>
  <course>77.69</course>
  <speed>1.47</speed>
  <fix>3d</fix>
</trkpt>
<trkpt lat="40.0742116" lon="-105.2312687">
  <ele>1686.06</ele>
  <time>2026-08-28T19:07:56Z</time>
  <course>79.81</course>
  <speed>1.190504094911059</speed>
  <fix>3d</fix>
</trkpt>
<trkpt lat="40.0742114" lon="-105.2312705">
  <ele>1686.02</ele>
  <time>2026-08-28T19:07:56Z</time>
  <course>77.58</course>
  <speed>1.31</speed>
  <fix>3d</fix>
</trkpt>
<trkpt lat="40.074212" lon="-105.2312662">
  <ele>1686.06</ele>
  <time>2026-08-28T19:07:56Z</time>
  <course>80.26</course>
  <speed>1.0044899203078146</speed>
  <fix>3d</fix>
</trkpt>
<trkpt lat="40.0742119" lon="-105.2312677">
  <ele>1686.02</ele>
  <time>2026-08-28T19:07:56Z</time>
  <course>77.78</course>
  <speed>1.13</speed>
  <fix>3d</fix>
</trkpt>
<trkpt lat="40.0742123" lon="-105.2312641">
  <ele>1686.06</ele>
  <time>2026-08-28T19:07:56Z</time>
  <course>80.79</course>
  <speed>0.8089499366462674</speed>
  <fix>3d</fix>
</trkpt>
<trkpt lat="40.0742123" lon="-105.2312653">
  <ele>1686.03</ele>
  <time>2026-08-28T19:07:56Z</time>
  <course>78.41</course>
  <speed>0.94</speed>
  <fix>3d</fix>
</trkpt>
<trkpt lat="40.0742125" lon="-105.2312624">
  <ele>1686.06</ele>
  <time>2026-08-28T19:07:56Z</time>
  <course>80.66</course>
  <speed>0.6040695324215583</speed>
  <fix>3d</fix>
</trkpt>
<trkpt lat="40.0742126" lon="-105.2312634">
  <ele>1686.03</ele>
  <time>2026-08-28T19:07:56Z</time>
  <course>79.63</course>
  <speed>0.75</speed>
  <fix>3d</fix>
</trkpt>
<trkpt lat="40.0742127" lon="-105.2312612">
  <ele>1686.06</ele>
  <time>2026-08-28T19:07:56Z</time>
  <course>80.63</course>
  <speed>0.3901281840626232</speed>
  <fix>3d</fix>
</trkpt>
<trkpt lat="40.0742128" lon="-105.2312619">
  <ele>1686.03</ele>
  <time>2026-08-28T19:07:56Z</time>
  <course>81.53</course>
  <speed>0.54</speed>
  <fix>3d</fix>
</trkpt>
<trkpt lat="40.0742127" lon="-105.2312605">
  <ele>1686.06</ele>
  <time>2026-08-28T19:07:56Z</time>
  <course>80.65</course>
  <speed>0.1711724276862369</speed>
  <fix>3d</fix>
</trkpt>
<trkpt lat="40.0742129" lon="-105.2312609">
  <ele>1686.03</ele>
  <time>2026-08-28T19:07:56Z</time>
  <course>85.13</course>
  <speed>0.33</speed>
  <fix>3d</fix>
</trkpt>
<trkpt lat="40.0742127" lon="-105.2312604">
  <ele>1686.06</ele>
  <time>2026-08-28T19:07:56Z</time>
  <course>81.04</course>
  <speed>0.10816653826391968</speed>
  <fix>3d</fix>
</trkpt>
<trkpt lat="40.074213" lon="-105.2312604">
  <ele>1686.03</ele>
  <time>2026-08-28T19:07:56Z</time>
  <course>105.11</course>
  <speed>0.1</speed>
  <fix>3d</fix>
</trkpt>
<trkpt lat="40.0742125" lon="-105.2312607">
  <ele>1686.05</ele>
  <time>2026-08-28T19:07:56Z</time>
  <course>80.72</course>
  <speed>0.3</speed>
  <fix>3d</fix>
</trkpt>
<trkpt lat="40.0742129" lon="-105.2312604">
  <ele>1686.02</ele>
  <time>2026-08-28T19:07:56Z</time>
  <course>228.14</course>
  <speed>0.15</speed>
  <fix>3d</fix>
</trkpt>
<trkpt lat="40.0742122" lon="-105.2312614">
  <ele>1686.05</ele>
  <time>2026-08-28T19:07:56Z</time>
  <course>80.55</course>
  <speed>0.4482186966202994</speed>
  <fix>3d</fix>
</trkpt>
<trkpt lat="40.0742126" lon="-105.2312608">
  <ele>1686.02</ele>
  <time>2026-08-28T19:07:56Z</time>
  <course>234.74</course>
  <speed>0.33</speed>
  <fix>3d</fix>
</trkpt>
<trkpt lat="40.0742116" lon="-105.2312622">
  <ele>1686.05</ele>
  <time>2026-08-28T19:07:56Z</time>
  <course>80.43</course>
  <speed>0.5374011537017761</speed>
  <fix>3d</fix>
</trkpt>
<trkpt lat="40.0742122" lon="-105.2312616">
  <ele>1686.02</ele>
  <time>2026-08-28T19:07:56Z</time>
  <course>230.88</course>
  <speed>0.46</speed>
  <fix>3d</fix>
</trkpt>
<trkpt lat="40.0742109" lon="-105.2312631">
  <ele>1686.05</ele>
  <time>2026-08-28T19:07:56Z</time>
  <course>80.36</course>
  <speed>0.5981638571495272</speed>
  <fix>3d</fix>
</trkpt>
<trkpt lat="40.0742115" lon="-105.2312624">
  <ele>1686.02</ele>
  <time>2026-08-28T19:07:56Z</time>
  <course>224.75</course>
  <speed>0.54</speed>
  <fix>3d</fix>
</trkpt>
<trkpt lat="40.07421" lon="-105.2312639">
  <ele>1686.05</ele>
  <time>2026-08-28T19:07:56Z</time>
  <course>80.29</course>
  <speed>0.65</speed>
  <fix>3d</fix>
</trkpt>
<trkpt lat="40.0742108" lon="-105.2312633">
  <ele>1686.02</ele>
  <time>2026-08-28T19:07:56Z</time>
  <course>217.46</course>
  <speed>0.6</speed>
  <fix>3d</fix>
</trkpt>
<trkpt lat="40.074209" lon="-105.2312646">
  <ele>1686.05</ele>
  <time>2026-08-28T19:07:56Z</time>
  <course>80.22</course>
  <speed>0.7038465741907111</speed>
  <fix>3d</fix>
</trkpt>
<trkpt lat="40.0742098" lon="-105.2312642">
  <ele>1686.02</ele>
  <time>2026-08-28T19:07:56Z</time>
  <course>209.26</course>
  <speed>0.65</speed>
  <fix>3d</fix>
</trkpt>
<trkpt lat="40.0742078" lon="-105.2312651">
  <ele>1686.06</ele>
  <time>2026-08-28T19:07:56Z</time>
  <course>80.16</course>
  <speed>0.7712976079309465</speed>
  <fix>3d</fix>
</trkpt>
<trkpt lat="40.0742087" lon="-105.2312648">
  <ele>1686.03</ele>
  <time>2026-08-28T19:07:56Z</time>
  <course>200.51</course>
  <speed>0.71</speed>
  <fix>3d</fix>
</trkpt>
<trkpt lat="40.0742064" lon="-105.2312654">
  <ele>1686.06</ele>
  <time>2026-08-28T19:07:56Z</time>
  <course>80.07</course>
  <speed>0.8338465086573187</speed>
  <fix>3d</fix>
</trkpt>
<trkpt lat="40.0742074" lon="-105.2312653">
  <ele>1686.03</ele>
  <time>2026-08-28T19:07:56Z</time>
  <course>191.66</course>
  <speed>0.77</speed>
  <fix>3d</fix>
</trkpt>
<trkpt lat="40.0742048" lon="-105.2312655">
  <ele>1686.06</ele>
  <time>2026-08-28T19:07:56Z</time>
  <course>80.02</course>
  <speed>0.9204890004774636</speed>
  <fix>3d</fix>
</trkpt>
<trkpt lat="40.074206" lon="-105.2312656">
  <ele>1686.03</ele>
  <time>2026-08-28T19:07:56Z</time>
  <course>183.18</course>
  <speed>0.85</speed>
  <fix>3d</fix>
</trkpt>
<trkpt lat="40.0742032" lon="-105.2312654">
  <ele>1686.06</ele>
  <time>2026-08-28T19:07:57Z</time>
  <course>79.95</course>
  <speed>1.0111874208078342</speed>
  <fix>3d</fix>
</trkpt>
<trkpt lat="40.0742044" lon="-105.2312656">
  <ele>1686.03</ele>
  <time>2026-08-28T19:07:57Z</time>
  <course>175.51</course>
  <speed>0.93</speed>
  <fix>3d</fix>
</trkpt>
<trkpt lat="40.0742014" lon="-105.2312649">
  <ele>1686.06</ele>
  <time>2026-08-28T19:07:57Z</time>
  <course>86.19</course>
  <speed>1.0648004507887852</speed>
  <fix>3d</fix>
</trkpt>
<trkpt lat="40.0742027" lon="-105.2312653">
  <ele>1686.03</ele>
  <time>2026-08-28T19:07:57Z</time>
  <course>168.79</course>
  <speed>1.01</speed>
  <fix>3d</fix>
</trkpt>
<trkpt lat="40.0741995" lon="-105.2312641">
  <ele>1686.06</ele>
  <time>2026-08-28T19:07:57Z</time>
  <course>99.81</course>
  <speed>1.2313001258832064</speed>
  <fix>3d</fix>
</trkpt>
<trkpt lat="40.0742008" lon="-105.2312647">
  <ele>1686.03</ele>
  <time>2026-08-28T19:07:57Z</time>
  <course>162.43</course>
  <speed>1.11</speed>
  <fix>3d</fix>
</trkpt>
<trkpt lat="40.0741973" lon="-105.2312628">
  <ele>1686.07</ele>
  <time>2026-08-28T19:07:57Z</time>
  <course>111.89</course>
  <speed>1.453616180427282</speed>
  <fix>3d</fix>
</trkpt>
<trkpt lat="40.0741988" lon="-105.2312637">
  <ele>1686.03</ele>
  <time>2026-08-28T19:07:57Z</time>
  <course>156.69</course>
  <speed>1.29</speed>
  <fix>3d</fix>
</trkpt>
<trkpt lat="40.0741948" lon="-105.2312611">
  <ele>1686.07</ele>
  <time>2026-08-28T19:07:57Z</time>
  <course>123.93</course>
  <speed>1.7191858538273284</speed>
  <fix>3d</fix>
</trkpt>
<trkpt lat="40.0741965" lon="-105.2312623">
  <ele>1686.02</ele>
  <time>2026-08-28T19:07:57Z</time>
  <course>152.1</course>
  <speed>1.52</speed>
  <fix>3d</fix>
</trkpt>
<trkpt lat="40.0741919" lon="-105.2312589">
  <ele>1686.06</ele>
  <time>2026-08-28T19:07:57Z</time>
  <course>136.02</course>
  <speed>2.018539075668341</speed>
  <fix>3d</fix>
</trkpt>
<trkpt lat="40.0741939" lon="-105.2312604">
  <ele>1686.01</ele>
  <time>2026-08-28T19:07:57Z</time>
  <course>149.09</course>
  <speed>1.79</speed>
  <fix>3d</fix>
</trkpt>
<trkpt lat="40.0741886" lon="-105.2312562">
  <ele>1686.05</ele>
  <time>2026-08-28T19:07:57Z</time>
  <course>148.01</course>
  <speed>2.3461031520374376</speed>
  <fix>3d</fix>
</trkpt>
<trkpt lat="40.074191" lon="-105.2312579">
  <ele>1686.0</ele>
  <time>2026-08-28T19:07:57Z</time>
  <course>147.73</course>
  <speed>2.1</speed>
  <fix>3d</fix>
</trkpt>
<trkpt lat="40.0741848" lon="-105.2312532">
  <ele>1686.05</ele>
  <time>2026-08-28T19:07:57Z</time>
  <course>150.25</course>
  <speed>2.6828715958837837</speed>
  <fix>3d</fix>
</trkpt>
<trkpt lat="40.0741875" lon="-105.2312551">
  <ele>1685.99</ele>
  <time>2026-08-28T19:07:57Z</time>
  <course>148.34</course>
  <speed>2.43</speed>
  <fix>3d</fix>
</trkpt>
<trkpt lat="40.0741804" lon="-105.2312499">
  <ele>1686.05</ele>
  <time>2026-08-28T19:07:57Z</time>
  <course>150.0</course>
  <speed>3.021671722738921</speed>
  <fix>3d</fix>
</trkpt>
<trkpt lat="40.0741834" lon="-105.2312519">
  <ele>1685.98</ele>
  <time>2026-08-28T19:07:57Z</time>
  <course>149.43</course>
  <speed>2.78</speed>
  <fix>3d</fix>
</trkpt>
<trkpt lat="40.0741754" lon="-105.2312462">
  <ele>1686.04</ele>
  <time>2026-08-28T19:07:57Z</time>
  <course>150.18</course>
  <speed>3.369525189103058</speed>
  <fix>3d</fix>
</trkpt>
<trkpt lat="40.0741789" lon="-105.2312484">
  <ele>1685.97</ele>
  <time>2026-08-28T19:07:57Z</time>
  <course>150.03</course>
  <speed>3.12</speed>
  <fix>3d</fix>
</trkpt>
<trkpt lat="40.0741699" lon="-105.2312422">
  <ele>1686.03</ele>
  <time>2026-08-28T19:07:57Z</time>
  <course>150.7</course>
  <speed>3.7124789561693143</speed>
  <fix>3d</fix>
</trkpt>
<trkpt lat="40.0741737" lon="-105.2312446">
  <ele>1685.96</ele>
  <time>2026-08-28T19:07:57Z</time>
  <course>150.78</course>
  <speed>3.47</speed>
  <fix>3d</fix>
</trkpt>
<trkpt lat="40.0741638" lon="-105.231238">
  <ele>1686.03</ele>
  <time>2026-08-28T19:07:57Z</time>
  <course>151.41</course>
  <speed>4.065193722321237</speed>
  <fix>3d</fix>
</trkpt>
<trkpt lat="40.074168" lon="-105.2312405">
  <ele>1685.95</ele>
  <time>2026-08-28T19:07:57Z</time>
  <course>151.71</course>
  <speed>3.82</speed>
  <fix>3d</fix>
</trkpt>
<trkpt lat="40.074157" lon="-105.2312335">
  <ele>1686.02</ele>
  <time>2026-08-28T19:07:57Z</time>
  <course>152.25</course>
  <speed>4.418913893707367</speed>
  <fix>3d</fix>
</trkpt>
<trkpt lat="40.0741616" lon="-105.2312361">
  <ele>1685.94</ele>
  <time>2026-08-28T19:07:57Z</time>
  <course>152.74</course>
  <speed>4.18</speed>
  <fix>3d</fix>
</trkpt>
<trkpt lat="40.0741496" lon="-105.2312288">
  <ele>1686.01</ele>
  <time>2026-08-28T19:07:57Z</time>
  <course>153.07</course>
  <speed>4.769580694358782</speed>
  <fix>3d</fix>
</trkpt>
<trkpt lat="40.0741546" lon="-105.2312315">
  <ele>1685.93</ele>
  <time>2026-08-28T19:07:57Z</time>
  <course>153.76</course>
  <speed>4.53</speed>
  <fix>3d</fix>
</trkpt>
<trkpt lat="40.0741416" lon="-105.2312239">
  <ele>1686.01</ele>
  <time>2026-08-28T19:07:57Z</time>
  <course>153.88</course>
  <speed>5.108209079511136</speed>
  <fix>3d</fix>
</trkpt>
<trkpt lat="40.074147" lon="-105.2312267">
  <ele>1685.93</ele>
  <time>2026-08-28T19:07:57Z</time>
  <course>154.74</course>
  <speed>4.88</speed>
  <fix>3d</fix>
</trkpt>
<trkpt lat="40.074133" lon="-105.2312189">
  <ele>1686.0</ele>
  <time>2026-08-28T19:07:57Z</time>
  <course>154.65</course>
  <speed>5.4439875091700936</speed>
  <fix>3d</fix>
</trkpt>
<trkpt lat="40.0741388" lon="-105.2312217">
  <ele>1685.92</ele>
  <time>2026-08-28T19:07:57Z</time>
  <course>155.69</course>
  <speed>5.22</speed>
  <fix>3d</fix>
</trkpt>
<trkpt lat="40.0741238" lon="-105.2312137">
  <ele>1686.0</ele>
  <time>2026-08-28T19:07:57Z</time>
  <course>155.31</course>
  <speed>5.790138167608783</speed>
  <fix>3d</fix>
</trkpt>
<trkpt lat="40.0741299" lon="-105.2312166">
  <ele>1685.92</ele>
  <time>2026-08-28T19:07:57Z</time>
  <course>156.58</course>
  <speed>5.56</speed>
  <fix>3d</fix>
</trkpt>
<trkpt lat="40.0741139" lon="-105.2312083">
  <ele>1685.99</ele>
  <time>2026-08-28T19:07:57Z</time>
  <course>155.85</course>
  <speed>6.1502845462628795</speed>
  <fix>3d</fix>
</trkpt>
<trkpt lat="40.0741204" lon="-105.2312113">
  <ele>1685.91</ele>
  <time>2026-08-28T19:07:57Z</time>
  <course>157.4</course>
  <speed>5.92</speed>
  <fix>3d</fix>
</trkpt>
<trkpt lat="40.0741034" lon="-105.2312029">
  <ele>1685.98</ele>
  <time>2026-08-28T19:07:57Z</time>
  <course>156.22</course>
  <speed>6.520506115325711</speed>
  <fix>3d</fix>
</trkpt>
<trkpt lat="40.0741102" lon="-105.2312059">
  <ele>1685.9</ele>
  <time>2026-08-28T19:07:57Z</time>
  <course>158.13</course>
  <speed>6.28</speed>
  <fix>3d</fix>
</trkpt>
<trkpt lat="40.0740922" lon="-105.2311972">
  <ele>1685.97</ele>
  <time>2026-08-28T19:07:57Z</time>
  <course>156.46</course>
  <speed>6.907770986360216</speed>
  <fix>3d</fix>
</trkpt>
<trkpt lat="40.0740994" lon="-105.2312003">
  <ele>1685.89</ele>
  <time>2026-08-28T19:07:57Z</time>
  <course>158.74</course>
  <speed>6.67</speed>
  <fix>3d</fix>
</trkpt>
<trkpt lat="40.0740803" lon="-105.2311913">
  <ele>1685.97</ele>
  <time>2026-08-28T19:07:57Z</time>
  <course>156.67</course>
  <speed>7.28599341202008</speed>
  <fix>3d</fix>
</trkpt>
<trkpt lat="40.0740879" lon="-105.2311946">
  <ele>1685.89</ele>
  <time>2026-08-28T19:07:57Z</time>
  <course>159.21</course>
  <speed>7.05</speed>
  <fix>3d</fix>
</trkpt>
<trkpt lat="40.0740677" lon="-105.2311852">
  <ele>1685.98</ele>
  <time>2026-08-28T19:07:57Z</time>
  <course>156.9</course>
  <speed>7.626853872993766</speed>
  <fix>3d</fix>
</trkpt>
<trkpt lat="40.0740757" lon="-105.2311886">
  <ele>1685.88</ele>
  <time>2026-08-28T19:07:57Z</time>
  <course>159.55</course>
  <speed>7.42</speed>
  <fix>3d</fix>
</trkpt>
<trkpt lat="40.0740546" lon="-105.2311788">
  <ele>1685.99</ele>
  <time>2026-08-28T19:07:57Z</time>
  <course>157.12</course>
  <speed>7.939584371993285</speed>
  <fix>3d</fix>
</trkpt>
<trkpt lat="40.0740629" lon="-105.2311824">
  <ele>1685.88</ele>
  <time>2026-08-28T19:07:57Z</time>
  <course>159.78</course>
  <speed>7.76</speed>
  <fix>3d</fix>
</trkpt>
<trkpt lat="40.0740409" lon="-105.2311723">
  <ele>1686.0</ele>
  <time>2026-08-28T19:07:57Z</time>
  <course>157.39</course>
  <speed>8.22073597678456</speed>
  <fix>3d</fix>
</trkpt>
<trkpt lat="40.0740495" lon="-105.231176">
  <ele>1685.89</ele>
  <time>2026-08-28T19:07:57Z</time>
  <course>159.94</course>
  <speed>8.07</speed>
  <fix>3d</fix>
</trkpt>
<trkpt lat="40.0740268" lon="-105.2311656">
  <ele>1686.01</ele>
  <time>2026-08-28T19:07:57Z</time>
  <course>157.65</course>
  <speed>8.47030105722341</speed>
  <fix>3d</fix>
</trkpt>
<trkpt lat="40.0740356" lon="-105.2311694">
  <ele>1685.9</ele>
  <time>2026-08-28T19:07:57Z</time>
  <course>160.08</course>
  <speed>8.34</speed>
  <fix>3d</fix>
</trkpt>
<trkpt lat="40.0740122" lon="-105.2311587">
  <ele>1686.02</ele>
  <time>2026-08-28T19:07:57Z</time>
  <course>157.94</course>
  <speed>8.688273706554138</speed>
  <fix>3d</fix>
</trkpt>
<trkpt lat="40.0740213" lon="-105.2311626">
  <ele>1685.91</ele>
  <time>2026-08-28T19:07:57Z</time>
  <course>160.18</course>
  <speed>8.59</speed>
  <fix>3d</fix>
</trkpt>
<trkpt lat="40.0739973" lon="-105.2311517">
  <ele>1686.03</ele>
  <time>2026-08-28T19:07:57Z</time>
  <course>158.19</course>
  <speed>8.887406820889883</speed>
  <fix>3d</fix>
</trkpt>
<trkpt lat="40.0740066" lon="-105.2311556">
  <ele>1685.92</ele>
  <time>2026-08-28T19:07:57Z</time>
  <course>160.27</course>
  <speed>8.8</speed>
  <fix>3d</fix>
</trkpt>
<trkpt lat="40.073982" lon="-105.2311446">
  <ele>1686.04</ele>
  <time>2026-08-28T19:07:57Z</time>
  <course>158.38</course>
  <speed>9.058255902766271</speed>
  <fix>3d</fix>
</trkpt>
<trkpt lat="40.0739916" lon="-105.2311486">
  <ele>1685.93</ele>
  <time>2026-08-28T19:07:57Z</time>
  <course>160.33</course>
  <speed>8.99</speed>
  <fix>3d</fix>
</trkpt>
<trkpt lat="40.0739665" lon="-105.2311373">
  <ele>1686.05</ele>
  <time>2026-08-28T19:07:57Z</time>
  <course>158.59</course>
  <speed>9.197488787707218</speed>
  <fix>3d</fix>
</trkpt>
<trkpt lat="40.0739762" lon="-105.2311414">
  <ele>1685.95</ele>
  <time>2026-08-28T19:07:57Z</time>
  <course>160.36</course>
  <speed>9.15</speed>
  <fix>3d</fix>
</trkpt>
<trkpt lat="40.0739508" lon="-105.23113">
  <ele>1686.06</ele>
  <time>2026-08-28T19:07:57Z</time>
  <course>158.8</course>
  <speed>9.314531657576778</speed>
  <fix>3d</fix>
</trkpt>
<trkpt lat="40.0739606" lon="-105.2311342">
  <ele>1685.96</ele>
  <time>2026-08-28T19:07:57Z</time>
  <course>160.35</course>
  <speed>9.28</speed>
  <fix>3d</fix>
</trkpt>
<trkpt lat="40.073935" lon="-105.2311225">
  <ele>1686.07</ele>
  <time>2026-08-28T19:07:57Z</time>
  <course>159.01</course>
  <speed>9.390532466266224</speed>
  <fix>3d</fix>
</trkpt>
<trkpt lat="40.0739448" lon="-105.2311268">
  <ele>1685.97</ele>
  <time>2026-08-28T19:07:57Z</time>
  <course>160.33</course>
  <speed>9.39</speed>
  <fix>3d</fix>
</trkpt>
<trkpt lat="40.073919" lon="-105.231115">
  <ele>1686.08</ele>
  <time>2026-08-28T19:07:57Z</time>
  <course>159.26</course>
  <speed>9.438273147138728</speed>
  <fix>3d</fix>
</trkpt>
<trkpt lat="40.0739289" lon="-105.2311194">
  <ele>1685.99</ele>
  <time>2026-08-28T19:07:57Z</time>
  <course>160.29</course>
  <speed>9.46</speed>
  <fix>3d</fix>
</trkpt>
<trkpt lat="40.0739029" lon="-105.2311075">
  <ele>1686.1</ele>
  <time>2026-08-28T19:07:57Z</time>
  <course>159.49</course>
  <speed>9.463836431384472</speed>
  <fix>3d</fix>
</trkpt>
<trkpt lat="40.0739128" lon="-105.2311119">
  <ele>1686.0</ele>
  <time>2026-08-28T19:07:57Z</time>
  <course>160.24</course>
  <speed>9.5</speed>
  <fix>3d</fix>
</trkpt>
<trkpt lat="40.0738868" lon="-105.2310999">
  <ele>1686.11</ele>
  <time>2026-08-28T19:07:57Z</time>
  <course>159.65</course>
  <speed>9.476623871400616</speed>
  <fix>3d</fix>
</trkpt>
<trkpt lat="40.0738967" lon="-105.2311043">
  <ele>1686.01</ele>
  <time>2026-08-28T19:07:57Z</time>
  <course>160.17</course>
  <speed>9.52</speed>
  <fix>3d</fix>
</trkpt>
<trkpt lat="40.0738707" lon="-105.2310922">
  <ele>1686.11</ele>
  <time>2026-08-28T19:07:57Z</time>
  <course>159.7</course>
  <speed>9.492802536659024</speed>
  <fix>3d</fix>
</trkpt>
<trkpt lat="40.0738806" lon="-105.2310967">
  <ele>1686.02</ele>
  <time>2026-08-28T19:07:57Z</time>
  <course>160.11</course>
  <speed>9.53</speed>
  <fix>3d</fix>
</trkpt>
<trkpt lat="40.0738546" lon="-105.2310846">
  <ele>1686.11</ele>
  <time>2026-08-28T19:07:57Z</time>
  <course>159.57</course>
  <speed>9.531217131090866</speed>
  <fix>3d</fix>
</trkpt>
<trkpt lat="40.0738645" lon="-105.231089">
  <ele>1686.02</ele>
  <time>2026-08-28T19:07:57Z</time>
  <course>160.03</course>
  <speed>9.55</speed>
  <fix>3d</fix>
</trkpt>
<trkpt lat="40.0738384" lon="-105.2310768">
  <ele>1686.09</ele>
  <time>2026-08-28T19:07:57Z</time>
  <course>159.36</course>
  <speed>9.582489238188582</speed>
  <fix>3d</fix>
</trkpt>
<trkpt lat="40.0738483" lon="-105.2310814">
  <ele>1686.01</ele>
  <time>2026-08-28T19:07:57Z</time>
  <course>159.93</course>
  <speed>9.58</speed>
  <fix>3d</fix>
</trkpt>
<trkpt lat="40.0738221" lon="-105.2310689">
  <ele>1686.08</ele>
  <time>2026-08-28T19:07:57Z</time>
  <course>159.03</course>
  <speed>9.63728177444242</speed>
  <fix>3d</fix>
</trkpt>
<trkpt lat="40.0738321" lon="-105.2310736">
  <ele>1686.0</ele>
  <time>2026-08-28T19:07:57Z</time>
  <course>159.78</course>
  <speed>9.62</speed>
  <fix>3d</fix>
</trkpt>
<trkpt lat="40.0738058" lon="-105.231061">
  <ele>1686.06</ele>
  <time>2026-08-28T19:07:57Z</time>
  <course>158.74</course>
  <speed>9.692187575568273</speed>
  <fix>3d</fix>
</trkpt>
<trkpt lat="40.0738158" lon="-105.2310657">
  <ele>1685.99</ele>
  <time>2026-08-28T19:07:57Z</time>
  <course>159.59</course>
  <speed>9.68</speed>
  <fix>3d</fix>
</trkpt>
<trkpt lat="40.0737894" lon="-105.2310529">
  <ele>1686.06</ele>
  <time>2026-08-28T19:07:57Z</time>
  <course>158.43</course>
  <speed>9.741385938356</speed>
  <fix>3d</fix>
</trkpt>
<trkpt lat="40.0737995" lon="-105.2310578">
  <ele>1685.97</ele>
  <time>2026-08-28T19:07:57Z</time>
  <course>159.37</course>
  <speed>9.73</speed>
  <fix>3d</fix>
</trkpt>
<trkpt lat="40.073773" lon="-105.2310447">
  <ele>1686.05</ele>
  <time>2026-08-28T19:07:57Z</time>
  <course>158.18</course>
  <speed>9.787216151695027</speed>
  <fix>3d</fix>
</trkpt>
<trkpt lat="40.0737831" lon="-105.2310497">
  <ele>1685.97</ele>
  <time>2026-08-28T19:07:57Z</time>
  <course>159.15</course>
  <speed>9.78</speed>
  <fix>3d</fix>
</trkpt>
<trkpt lat="40.0737566" lon="-105.2310365">
  <ele>1686.05</ele>
  <time>2026-08-28T19:07:57Z</time>
  <course>157.95</course>
  <speed>9.842504762508373</speed>
  <fix>3d</fix>
</trkpt>
<trkpt lat="40.0737667" lon="-105.2310414">
  <ele>1685.97</ele>
  <time>2026-08-28T19:07:57Z</time>
  <course>158.94</course>
  <speed>9.83</speed>
  <fix>3d</fix>
</trkpt>
<trkpt lat="40.0737401" lon="-105.2310281">
  <ele>1686.06</ele>
  <time>2026-08-28T19:07:57Z</time>
  <course>157.75</course>
  <speed>9.88494815363237</speed>
  <fix>3d</fix>
</trkpt>
<trkpt lat="40.0737502" lon="-105.231033">
  <ele>1685.96</ele>
  <time>2026-08-28T19:07:57Z</time>
  <course>158.75</course>
  <speed>9.88</speed>
  <fix>3d</fix>
</trkpt>
<trkpt lat="40.0737235" lon="-105.2310196">
  <ele>1686.05</ele>
  <time>2026-08-28T19:07:57Z</time>
  <course>157.6</course>
  <speed>9.927461911284274</speed>
  <fix>3d</fix>
</trkpt>
<trkpt lat="40.0737336" lon="-105.2310246">
  <ele>1685.96</ele>
  <time>2026-08-28T19:07:57Z</time>
  <course>158.59</course>
  <speed>9.92</speed>
  <fix>3d</fix>
</trkpt>
<trkpt lat="40.0737068" lon="-105.2310109">
  <ele>1686.05</ele>
  <time>2026-08-28T19:07:57Z</time>
  <course>157.46</course>
  <speed>9.966368445928536</speed>
  <fix>3d</fix>
</trkpt>
<trkpt lat="40.073717" lon="-105.231016">
  <ele>1685.96</ele>
  <time>2026-08-28T19:07:57Z</time>
  <course>158.46</course>
  <speed>9.96</speed>
  <fix>3d</fix>
</trkpt>
<trkpt lat="40.0736901" lon="-105.2310023">
  <ele>1686.05</ele>
  <time>2026-08-28T19:07:57Z</time>
  <course>157.41</course>
  <speed>10.00530359359475</speed>
  <fix>3d</fix>
</trkpt>
<trkpt lat="40.0737003" lon="-105.2310074">
  <ele>1685.97</ele>
  <time>2026-08-28T19:07:57Z</time>
  <course>158.36</course>
  <speed>10.0</speed>
  <fix>3d</fix>
</trkpt>
<trkpt lat="40.0736734" lon="-105.2309935">
  <ele>1686.06</ele>
  <time>2026-08-28T19:07:57Z</time>
  <course>157.43</course>
  <speed>10.027581961769249</speed>
  <fix>3d</fix>
</trkpt>
<trkpt lat="40.0736835" lon="-105.2309987">
  <ele>1685.97</ele>
  <time>2026-08-28T19:07:57Z</time>
  <course>158.3</course>
  <speed>10.03</speed>
  <fix>3d</fix>
</trkpt>
<trkpt lat="40.0736565" lon="-105.2309848">
  <ele>1686.06</ele>
  <time>2026-08-28T19:07:57Z</time>
  <course>157.47</course>
  <speed>10.040567713032964</speed>
  <fix>3d</fix>
</trkpt>
<trkpt lat="40.0736668" lon="-105.23099">
  <ele>1685.97</ele>
  <time>2026-08-28T19:07:57Z</time>
  <course>158.27</course>
  <speed>10.05</speed>
  <fix>3d</fix>
</trkpt>
<trkpt lat="40.0736397" lon="-105.230976">
  <ele>1686.07</ele>
  <time>2026-08-28T19:07:57Z</time>
  <course>157.56</course>
  <speed>10.049860695551954</speed>
  <fix>3d</fix>
</trkpt>
<trkpt lat="40.07365" lon="-105.2309813">
  <ele>1685.98</ele>
  <time>2026-08-28T19:07:57Z</time>
  <course>158.27</course>
  <speed>10.06</speed>
  <fix>3d</fix>
</trkpt>
<trkpt lat="40.0736229" lon="-105.2309673">
  <ele>1686.07</ele>
  <time>2026-08-28T19:07:57Z</time>
  <course>157.68</course>
  <speed>10.055471147589257</speed>
  <fix>3d</fix>
</trkpt>
<trkpt lat="40.0736331" lon="-105.2309725">
  <ele>1685.98</ele>
  <time>2026-08-28T19:07:57Z</time>
  <course>158.31</course>
  <speed>10.07</speed>
  <fix>3d</fix>
</trkpt>
<trkpt lat="40.0736061" lon="-105.2309586">
  <ele>1686.08</ele>
  <time>2026-08-28T19:07:57Z</time>
  <course>157.79</course>
  <speed>10.04812917910593</speed>
  <fix>3d</fix>
</trkpt>
<trkpt lat="40.0736164" lon="-105.2309638">
  <ele>1685.99</ele>
  <time>2026-08-28T19:07:57Z</time>
  <course>158.38</course>
  <speed>10.07</speed>
  <fix>3d</fix>
</trkpt>
<trkpt lat="40.0735893" lon="-105.2309499">
  <ele>1686.08</ele>
  <time>2026-08-28T19:07:57Z</time>
  <course>157.95</course>
  <speed>10.04447111599212</speed>
  <fix>3d</fix>
</trkpt>
<trkpt lat="40.0735995" lon="-105.2309551">
  <ele>1685.99</ele>
  <time>2026-08-28T19:07:57Z</time>
  <course>158.46</course>
  <speed>10.07</speed>
  <fix>3d</fix>
</trkpt>
<trkpt lat="40.0735725" lon="-105.2309413">
  <ele>1686.08</ele>
  <time>2026-08-28T19:07:57Z</time>
  <course>158.12</course>
  <speed>10.037180879111425</speed>
  <fix>3d</fix>
</trkpt>
<trkpt lat="40.0735827" lon="-105.2309465">
  <ele>1686.0</ele>
  <time>2026-08-28T19:07:57Z</time>
  <course>158.56</course>
  <speed>10.06</speed>
  <fix>3d</fix>
</trkpt>
<trkpt lat="40.0735557" lon="-105.2309327">
  <ele>1686.07</ele>
  <time>2026-08-28T19:07:57Z</time>
  <course>158.22</course>
  <speed>10.029925224048283</speed>
  <fix>3d</fix>
</trkpt>
<trkpt lat="40.0735659" lon="-105.2309379">
  <ele>1686.0</ele>
  <time>2026-08-28T19:07:57Z</time>
  <course>158.66</course>
  <speed>10.05</speed>
  <fix>3d</fix>
</trkpt>
<trkpt lat="40.0735388" lon="-105.2309242">
  <ele>1686.08</ele>
  <time>2026-08-28T19:07:57Z</time>
  <course>158.38</course>
  <speed>10.013376054058892</speed>
  <fix>3d</fix>
</trkpt>
<trkpt lat="40.073549" lon="-105.2309293">
  <ele>1686.0</ele>
  <time>2026-08-28T19:07:57Z</time>
  <course>158.77</course>
  <speed>10.04</speed>
  <fix>3d</fix>
</trkpt>
<trkpt lat="40.0735219" lon="-105.2309156">
  <ele>1686.08</ele>
  <time>2026-08-28T19:07:57Z</time>
  <course>158.52</course>
  <speed>10.006183088470848</speed>
  <fix>3d</fix>
</trkpt>
<trkpt lat="40.0735322" lon="-105.2309208">
  <ele>1686.0</ele>
  <time>2026-08-28T19:07:57Z</time>
  <course>158.87</course>
  <speed>10.03</speed>
  <fix>3d</fix>
</trkpt>
<trkpt lat="40.073505" lon="-105.2309072">
  <ele>1686.09</ele>
  <time>2026-08-28T19:07:57Z</time>
  <course>158.64</course>
  <speed>9.989684679708365</speed>
  <fix>3d</fix>
</trkpt>
<trkpt lat="40.0735154" lon="-105.2309123">
  <ele>1686.0</ele>
  <time>2026-08-28T19:07:57Z</time>
  <course>158.96</course>
  <speed>10.01</speed>
  <fix>3d</fix>
</trkpt>
<trkpt lat="40.0734882" lon="-105.2308988">
  <ele>1686.09</ele>
  <time>2026-08-28T19:07:57Z</time>
  <course>158.81</course>
  <speed>9.973209112417125</speed>
  <fix>3d</fix>
</trkpt>
<trkpt lat="40.0734986" lon="-105.2309038">
  <ele>1686.0</ele>
  <time>2026-08-28T19:07:57Z</time>
  <course>159.04</course>
  <speed>9.99</speed>
  <fix>3d</fix>
</trkpt>
<trkpt lat="40.0734714" lon="-105.2308904">
  <ele>1686.08</ele>
  <time>2026-08-28T19:07:57Z</time>
  <course>158.9</course>
  <speed>9.947406697225162</speed>
  <fix>3d</fix>
</trkpt>
<trkpt lat="40.0734819" lon="-105.2308955">
  <ele>1685.99</ele>
  <time>2026-08-28T19:07:57Z</time>
  <course>159.11</course>
  <speed>9.97</speed>
  <fix>3d</fix>
</trkpt>
<trkpt lat="40.0734546" lon="-105.2308821">
  <ele>1686.08</ele>
  <time>2026-08-28T19:07:57Z</time>
  <course>158.98</course>
  <speed>9.925159948333327</speed>
  <fix>3d</fix>
</trkpt>
<trkpt lat="40.0734651" lon="-105.2308872">
  <ele>1685.99</ele>
  <time>2026-08-28T19:07:57Z</time>
  <course>159.18</course>
  <speed>9.94</speed>
  <fix>3d</fix>
</trkpt>
<trkpt lat="40.0734379" lon="-105.2308738">
  <ele>1686.07</ele>
  <time>2026-08-28T19:07:57Z</time>
  <course>159.01</course>
  <speed>9.908728475440226</speed>
  <fix>3d</fix>
</trkpt>
<trkpt lat="40.0734485" lon="-105.2308789">
  <ele>1685.99</ele>
  <time>2026-08-28T19:07:57Z</time>
  <course>159.23</course>
  <speed>9.92</speed>
  <fix>3d</fix>
</trkpt>
<trkpt lat="40.0734213" lon="-105.2308655">
  <ele>1686.07</ele>
  <time>2026-08-28T19:07:57Z</time>
  <course>159.03</course>
  <speed>9.886485725473941</speed>
  <fix>3d</fix>
</trkpt>
<trkpt lat="40.0734318" lon="-105.2308707">
  <ele>1685.99</ele>
  <time>2026-08-28T19:07:57Z</time>
  <course>159.26</course>
  <speed>9.9</speed>
  <fix>3d</fix>
</trkpt>
<trkpt lat="40.0734046" lon="-105.2308573">
  <ele>1686.07</ele>
  <time>2026-08-28T19:07:57Z</time>
  <course>159.01</course>
  <speed>9.877130149998024</speed>
  <fix>3d</fix>
</trkpt>
<trkpt lat="40.0734152" lon="-105.2308625">
  <ele>1685.98</ele>
  <time>2026-08-28T19:07:57Z</time>
  <course>159.28</course>
  <speed>9.89</speed>
  <fix>3d</fix>
</trkpt>
<trkpt lat="40.073388" lon="-105.2308491">
  <ele>1686.06</ele>
  <time>2026-08-28T19:07:57Z</time>
  <course>158.96</course>
  <speed>9.877130149998024</speed>
  <fix>3d</fix>
</trkpt>
<trkpt lat="40.0733986" lon="-105.2308542">
  <ele>1685.98</ele>
  <time>2026-08-28T19:07:57Z</time>
  <course>159.27</course>
  <speed>9.88</speed>
  <fix>3d</fix>
</trkpt>
<trkpt lat="40.0733714" lon="-105.2308409">
  <ele>1686.05</ele>
  <time>2026-08-28T19:07:57Z</time>
  <course>158.89</course>
  <speed>9.867775838556529</speed>
  <fix>3d</fix>
</trkpt>
<trkpt lat="40.0733819" lon="-105.230846">
  <ele>1685.97</ele>
  <time>2026-08-28T19:07:57Z</time>
  <course>159.25</course>
  <speed>9.87</speed>
  <fix>3d</fix>
</trkpt>
<trkpt lat="40.0733547" lon="-105.2308326">
  <ele>1686.05</ele>
  <time>2026-08-28T19:07:57Z</time>
  <course>158.82</course>
  <speed>9.871317034722367</speed>
  <fix>3d</fix>
</trkpt>
<trkpt lat="40.0733654" lon="-105.2308378">
  <ele>1685.97</ele>
  <time>2026-08-28T19:07:57Z</time>
  <course>159.21</course>
  <speed>9.87</speed>
  <fix>3d</fix>
</trkpt>
<trkpt lat="40.0733382" lon="-105.2308244">
  <ele>1686.05</ele>
  <time>2026-08-28T19:07:57Z</time>
  <course>158.74</course>
  <speed>9.874867087713131</speed>
  <fix>3d</fix>
</trkpt>
<trkpt lat="40.0733488" lon="-105.2308295">
  <ele>1685.97</ele>
  <time>2026-08-28T19:07:57Z</time>
  <course>159.16</course>
  <speed>9.87</speed>
  <fix>3d</fix>
</trkpt>
<trkpt lat="40.0733217" lon="-105.2308161">
  <ele>1686.05</ele>
  <time>2026-08-28T19:07:57Z</time>
  <course>158.65</course>
  <speed>9.86908303744578</speed>
  <fix>3d</fix>
</trkpt>
<trkpt lat="40.0733321" lon="-105.2308213">
  <ele>1685.97</ele>
  <time>2026-08-28T19:07:57Z</time>
  <course>159.1</course>
  <speed>9.87</speed>
  <fix>3d</fix>
</trkpt>
<trkpt lat="40.0733051" lon="-105.2308078">
  <ele>1686.05</ele>
  <time>2026-08-28T19:07:57Z</time>
  <course>158.57</course>
  <speed>9.872654151746632</speed>
  <fix>3d</fix>
</trkpt>
<trkpt lat="40.0733156" lon="-105.230813">
  <ele>1685.97</ele>
  <time>2026-08-28T19:07:57Z</time>
  <course>159.04</course>
  <speed>9.87</speed>
  <fix>3d</fix>
</trkpt>
<trkpt lat="40.0732886" lon="-105.2307995">
  <ele>1686.05</ele>
  <time>2026-08-28T19:07:57Z</time>
  <course>158.49</course>
  <speed>9.885570292097468</speed>
  <fix>3d</fix>
</trkpt>
<trkpt lat="40.0732991" lon="-105.2308047">
  <ele>1685.97</ele>
  <time>2026-08-28T19:07:57Z</time>
  <course>158.98</course>
  <speed>9.88</speed>
  <fix>3d</fix>
</trkpt>
<trkpt lat="40.073272" lon="-105.2307912">
  <ele>1686.05</ele>
  <time>2026-08-28T19:07:57Z</time>
  <course>158.38</course>
  <speed>9.902080589451895</speed>
  <fix>3d</fix>
</trkpt>
<trkpt lat="40.0732825" lon="-105.2307964">
  <ele>1685.97</ele>
  <time>2026-08-28T19:07:57Z</time>
  <course>158.92</course>
  <speed>9.9</speed>
  <fix>3d</fix>
</trkpt>
<trkpt lat="40.0732555" lon="-105.2307828">
  <ele>1686.05</ele>
  <time>2026-08-28T19:07:57Z</time>
  <course>158.29</course>
  <speed>9.91500882500868</speed>
  <fix>3d</fix>
</trkpt>
<trkpt lat="40.0732658" lon="-105.2307879">
  <ele>1685.96</ele>
  <time>2026-08-28T19:07:57Z</time>
  <course>158.87</course>
  <speed>9.92</speed>
  <fix>3d</fix>
</trkpt>
<trkpt lat="40.0732389" lon="-105.2307744">
  <ele>1686.05</ele>
  <time>2026-08-28T19:07:57Z</time>
  <course>158.19</course>
  <speed>9.94087521297798</speed>
  <fix>3d</fix>
</trkpt>
<trkpt lat="40.0732492" lon="-105.2307796">
  <ele>1685.96</ele>
  <time>2026-08-28T19:07:57Z</time>
  <course>158.82</course>
  <speed>9.94</speed>
  <fix>3d</fix>
</trkpt>
<trkpt lat="40.0732223" lon="-105.230766">
  <ele>1686.05</ele>
  <time>2026-08-28T19:07:57Z</time>
  <course>158.15</course>
  <speed>9.963137056168604</speed>
  <fix>3d</fix>
</trkpt>
<trkpt lat="40.0732325" lon="-105.2307711">
  <ele>1685.96</ele>
  <time>2026-08-28T19:07:57Z</time>
  <course>158.78</course>
  <speed>9.96</speed>
  <fix>3d</fix>
</trkpt>
<trkpt lat="40.0732056" lon="-105.2307575">
  <ele>1686.05</ele>
  <time>2026-08-28T19:07:57Z</time>
  <course>158.11</course>
  <speed>9.976076383027548</speed>
  <fix>3d</fix>
</trkpt>
<trkpt lat="40.0732158" lon="-105.2307626">
  <ele>1685.96</ele>
  <time>2026-08-28T19:07:57Z</time>
  <course>158.74</course>
  <speed>9.98</speed>
  <fix>3d</fix>
</trkpt>
<trkpt lat="40.0731888" lon="-105.230749">
  <ele>1686.05</ele>
  <time>2026-08-28T19:07:57Z</time>
  <course>158.09</course>
  <speed>9.998339862197124</speed>
  <fix>3d</fix>
</trkpt>
<trkpt lat="40.0731991" lon="-105.2307541">
  <ele>1685.96</ele>
  <time>2026-08-28T19:07:57Z</time>
  <course>158.72</course>
  <speed>10.0</speed>
  <fix>3d</fix>
</trkpt>
<trkpt lat="40.073172" lon="-105.2307404">
  <ele>1686.05</ele>
  <time>2026-08-28T19:07:57Z</time>
  <course>158.1</course>
  <speed>10.01128363398021</speed>
  <fix>3d</fix>
</trkpt>
<trkpt lat="40.0731823" lon="-105.2307455">
  <ele>1685.96</ele>
  <time>2026-08-28T19:07:57Z</time>
  <course>158.71</course>
  <speed>10.02</speed>
  <fix>3d</fix>
</trkpt>
<trkpt lat="40.0731552" lon="-105.2307319">
  <ele>1686.05</ele>
  <time>2026-08-28T19:07:57Z</time>
  <course>158.14</course>
  <speed>10.020603774224385</speed>
  <fix>3d</fix>
</trkpt>
<trkpt lat="40.0731655" lon="-105.230737">
  <ele>1685.97</ele>
  <time>2026-08-28T19:07:57Z</time>
  <course>158.71</course>
  <speed>10.04</speed>
  <fix>3d</fix>
</trkpt>
<trkpt lat="40.0731384" lon="-105.2307233">
  <ele>1686.05</ele>
  <time>2026-08-28T19:07:57Z</time>
  <course>158.19</course>
  <speed>10.029925224048283</speed>
  <fix>3d</fix>
</trkpt>
<trkpt lat="40.0731487" lon="-105.2307285">
  <ele>1685.97</ele>
  <time>2026-08-28T19:07:57Z</time>
  <course>158.72</course>
  <speed>10.05</speed>
  <fix>3d</fix>
</trkpt>
<trkpt lat="40.0731215" lon="-105.2307147">
  <ele>1686.06</ele>
  <time>2026-08-28T19:07:57Z</time>
  <course>158.26</course>
  <speed>10.035636501986309</speed>
  <fix>3d</fix>
</trkpt>
<trkpt lat="40.0731319" lon="-105.2307199">
  <ele>1685.97</ele>
  <time>2026-08-28T19:07:57Z</time>
  <course>158.74</course>
  <speed>10.05</speed>
  <fix>3d</fix>
</trkpt>
<trkpt lat="40.0731046" lon="-105.2307062">
  <ele>1686.06</ele>
  <time>2026-08-28T19:07:57Z</time>
  <course>158.34</course>
  <speed>10.035636501986309</speed>
  <fix>3d</fix>
</trkpt>
<trkpt lat="40.073115" lon="-105.2307113">
  <ele>1685.98</ele>
  <time>2026-08-28T19:07:57Z</time>
  <course>158.77</course>
  <speed>10.05</speed>
  <fix>3d</fix>
</trkpt>
<trkpt lat="40.0730878" lon="-105.2306976">
  <ele>1686.06</ele>
  <time>2026-08-28T19:07:57Z</time>
  <course>158.38</course>
  <speed>10.019106746611696</speed>
  <fix>3d</fix>
</trkpt>
<trkpt lat="40.0730981" lon="-105.2307028">
  <ele>1685.98</ele>
  <time>2026-08-28T19:07:57Z</time>
  <course>158.81</course>
  <speed>10.05</speed>
  <fix>3d</fix>
</trkpt>
<trkpt lat="40.0730709" lon="-105.2306891">
  <ele>1686.07</ele>
  <time>2026-08-28T19:07:57Z</time>
  <course>158.53</course>
  <speed>9.987517208996438</speed>
  <fix>3d</fix>
</trkpt>
<trkpt lat="40.0730814" lon="-105.2306943">
  <ele>1685.99</ele>
  <time>2026-08-28T19:07:57Z</time>
  <course>158.86</course>
  <speed>10.03</speed>
  <fix>3d</fix>
</trkpt>
<trkpt lat="40.0730542" lon="-105.2306807">
  <ele>1686.08</ele>
  <time>2026-08-28T19:07:57Z</time>
  <course>158.85</course>
  <speed>9.898489783800356</speed>
  <fix>3d</fix>
</trkpt>
<trkpt lat="40.0730645" lon="-105.2306858">
  <ele>1686.0</ele>
  <time>2026-08-28T19:07:57Z</time>
  <course>158.89</course>
  <speed>9.98</speed>
  <fix>3d</fix>
</trkpt>
<trkpt lat="40.0730377" lon="-105.2306724">
  <ele>1686.11</ele>
  <time>2026-08-28T19:07:57Z</time>
  <course>159.31</course>
  <speed>9.755624018995402</speed>
  <fix>3d</fix>
</trkpt>
<trkpt lat="40.0730479" lon="-105.2306774">
  <ele>1686.02</ele>
  <time>2026-08-28T19:07:57Z</time>
  <course>158.93</course>
  <speed>9.88</speed>
  <fix>3d</fix>
</trkpt>
<trkpt lat="40.0730213" lon="-105.2306642">
  <ele>1686.14</ele>
  <time>2026-08-28T19:07:57Z</time>
  <course>159.9</course>
  <speed>9.558922533423942</speed>
  <fix>3d</fix>
</trkpt>
<trkpt lat="40.0730315" lon="-105.2306692">
  <ele>1686.04</ele>
  <time>2026-08-28T19:07:57Z</time>
  <course>158.99</course>
  <speed>9.72</speed>
  <fix>3d</fix>
</trkpt>
<trkpt lat="40.0730054" lon="-105.2306563">
  <ele>1686.18</ele>
  <time>2026-08-28T19:07:57Z</time>
  <course>160.52</course>
  <speed>9.304837451562493</speed>
  <fix>3d</fix>
</trkpt>
<trkpt lat="40.0730153" lon="-105.230661">
  <ele>1686.08</ele>
  <time>2026-08-28T19:07:57Z</time>
  <course>159.09</course>
  <speed>9.51</speed>
  <fix>3d</fix>
</trkpt>
<trkpt lat="40.07299" lon="-105.2306486">
  <ele>1686.21</ele>
  <time>2026-08-28T19:07:57Z</time>
  <course>161.13</course>
  <speed>9.006320003197754</speed>
  <fix>3d</fix>
</trkpt>
<trkpt lat="40.0729996" lon="-105.2306532">
  <ele>1686.11</ele>
  <time>2026-08-28T19:07:57Z</time>
  <course>159.23</course>
  <speed>9.24</speed>
  <fix>3d</fix>
</trkpt>
<trkpt lat="40.0729751" lon="-105.2306413">
  <ele>1686.23</ele>
  <time>2026-08-28T19:07:57Z</time>
  <course>161.69</course>
  <speed>8.663417339595272</speed>
  <fix>3d</fix>
</trkpt>
<trkpt lat="40.0729842" lon="-105.2306457">
  <ele>1686.14</ele>
  <time>2026-08-28T19:07:57Z</time>
  <course>159.4</course>
  <speed>8.93</speed>
  <fix>3d</fix>
</trkpt>
<trkpt lat="40.0729607" lon="-105.2306343">
  <ele>1686.24</ele>
  <time>2026-08-28T19:07:57Z</time>
  <course>162.18</course>
  <speed>8.270259971730031</speed>
  <fix>3d</fix>
</trkpt>
<trkpt lat="40.0729695" lon="-105.2306385">
  <ele>1686.15</ele>
  <time>2026-08-28T19:07:57Z</time>
  <course>159.59</course>
  <speed>8.57</speed>
  <fix>3d</fix>
</trkpt>
<trkpt lat="40.072947" lon="-105.2306277">
  <ele>1686.24</ele>
  <time>2026-08-28T19:07:57Z</time>
  <course>162.6</course>
  <speed>7.836178915772662</speed>
  <fix>3d</fix>
</trkpt>
<trkpt lat="40.0729554" lon="-105.2306317">
  <ele>1686.16</ele>
  <time>2026-08-28T19:07:57Z</time>
  <course>159.78</course>
  <speed>8.17</speed>
  <fix>3d</fix>
</trkpt>
<trkpt lat="40.0729341" lon="-105.2306215">
  <ele>1686.23</ele>
  <time>2026-08-28T19:07:57Z</time>
  <course>162.94</course>
  <speed>7.361148008293271</speed>
  <fix>3d</fix>
</trkpt>
<trkpt lat="40.072942" lon="-105.2306253">
  <ele>1686.17</ele>
  <time>2026-08-28T19:07:57Z</time>
  <course>159.96</course>
  <speed>7.72</speed>
  <fix>3d</fix>
</trkpt>
<trkpt lat="40.072922" lon="-105.2306158">
  <ele>1686.22</ele>
  <time>2026-08-28T19:07:57Z</time>
  <course>163.2</course>
  <speed>6.848539990392113</speed>
  <fix>3d</fix>
</trkpt>
<trkpt lat="40.0729293" lon="-105.2306193">
  <ele>1686.16</ele>
  <time>2026-08-28T19:07:57Z</time>
  <course>160.11</course>
  <speed>7.23</speed>
  <fix>3d</fix>
</trkpt>
<trkpt lat="40.0729108" lon="-105.2306105">
  <ele>1686.2</ele>
  <time>2026-08-28T19:07:57Z</time>
  <course>163.33</course>
  <speed>6.2915260469936864</speed>
  <fix>3d</fix>
</trkpt>
<trkpt lat="40.0729175" lon="-105.2306137">
  <ele>1686.15</ele>
  <time>2026-08-28T19:07:57Z</time>
  <course>160.23</course>
  <speed>6.7</speed>
  <fix>3d</fix>
</trkpt>
<trkpt lat="40.0729005" lon="-105.2306057">
  <ele>1686.19</ele>
  <time>2026-08-28T19:07:57Z</time>
  <course>163.4</course>
  <speed>5.715706430529825</speed>
  <fix>3d</fix>
</trkpt>
<trkpt lat="40.0729067" lon="-105.2306086">
  <ele>1686.14</ele>
  <time>2026-08-28T19:07:57Z</time>
  <course>160.31</course>
  <speed>6.14</speed>
  <fix>3d</fix>
</trkpt>
<trkpt lat="40.0728913" lon="-105.2306014">
  <ele>1686.17</ele>
  <time>2026-08-28T19:07:57Z</time>
  <course>163.3</course>
  <speed>5.143267443950392</speed>
  <fix>3d</fix>
</trkpt>
<trkpt lat="40.0728967" lon="-105.230604">
  <ele>1686.12</ele>
  <time>2026-08-28T19:07:57Z</time>
  <course>160.36</course>
  <speed>5.56</speed>
  <fix>3d</fix>
</trkpt>
<trkpt lat="40.0728829" lon="-105.2305975">
  <ele>1686.14</ele>
  <time>2026-08-28T19:07:57Z</time>
  <course>163.1</course>
  <speed>4.580240168375453</speed>
  <fix>3d</fix>
</trkpt>
<trkpt lat="40.0728879" lon="-105.2305998">
  <ele>1686.09</ele>
  <time>2026-08-28T19:07:57Z</time>
  <course>160.39</course>
  <speed>4.99</speed>
  <fix>3d</fix>
</trkpt>
<trkpt lat="40.0728756" lon="-105.2305941">
  <ele>1686.11</ele>
  <time>2026-08-28T19:07:57Z</time>
  <course>162.78</course>
  <speed>4.042820797413608</speed>
  <fix>3d</fix>
</trkpt>
<trkpt lat="40.0728799" lon="-105.2305961">
  <ele>1686.06</ele>
  <time>2026-08-28T19:07:57Z</time>
  <course>160.36</course>
  <speed>4.42</speed>
  <fix>3d</fix>
</trkpt>
<trkpt lat="40.0728692" lon="-105.230591">
  <ele>1686.07</ele>
  <time>2026-08-28T19:07:57Z</time>
  <course>162.35</course>
  <speed>3.5054528951335233</speed>
  <fix>3d</fix>
</trkpt>
<trkpt lat="40.0728728" lon="-105.2305928">
  <ele>1686.03</ele>
  <time>2026-08-28T19:07:57Z</time>
  <course>160.24</course>
  <speed>3.87</speed>
  <fix>3d</fix>
</trkpt>
<trkpt lat="40.0728636" lon="-105.2305883">
  <ele>1686.05</ele>
  <time>2026-08-28T19:07:57Z</time>
  <course>161.74</course>
  <speed>2.9904013108611363</speed>
  <fix>3d</fix>
</trkpt>
<trkpt lat="40.0728668" lon="-105.2305899">
  <ele>1685.99</ele>
  <time>2026-08-28T19:07:57Z</time>
  <course>159.97</course>
  <speed>3.34</speed>
  <fix>3d</fix>
</trkpt>
<trkpt lat="40.0728589" lon="-105.230586">
  <ele>1686.03</ele>
  <time>2026-08-28T19:07:58Z</time>
  <course>160.95</course>
  <speed>2.492087478400387</speed>
  <fix>3d</fix>
</trkpt>
<trkpt lat="40.0728615" lon="-105.2305874">
  <ele>1685.97</ele>
  <time>2026-08-28T19:07:58Z</time>
  <course>159.48</course>
  <speed>2.83</speed>
  <fix>3d</fix>
</trkpt>
<trkpt lat="40.0728551" lon="-105.2305841">
  <ele>1686.01</ele>
  <time>2026-08-28T19:07:58Z</time>
  <course>159.87</course>
  <speed>2.0130822139197395</speed>
  <fix>3d</fix>
</trkpt>
<trkpt lat="40.0728572" lon="-105.2305853">
  <ele>1685.94</ele>
  <time>2026-08-28T19:07:58Z</time>
  <course>158.71</course>
  <speed>2.33</speed>
  <fix>3d</fix>
</trkpt>
<trkpt lat="40.0728521" lon="-105.2305825">
  <ele>1686.0</ele>
  <time>2026-08-28T19:07:58Z</time>
  <course>158.42</course>
  <speed>1.5717824276915684</speed>
  <fix>3d</fix>
</trkpt>
<trkpt lat="40.0728537" lon="-105.2305835">
  <ele>1685.92</ele>
  <time>2026-08-28T19:07:58Z</time>
  <course>157.58</course>
  <speed>1.85</speed>
  <fix>3d</fix>
</trkpt>
<trkpt lat="40.0728498" lon="-105.2305811">
  <ele>1685.99</ele>
  <time>2026-08-28T19:07:58Z</time>
  <course>156.54</course>
  <speed>1.1853269591129698</speed>
  <fix>3d</fix>
</trkpt>
<trkpt lat="40.072851" lon="-105.230582">
  <ele>1685.91</ele>
  <time>2026-08-28T19:07:58Z</time>
  <course>155.99</course>
  <speed>1.42</speed>
  <fix>3d</fix>
</trkpt>
<trkpt lat="40.0728482" lon="-105.2305801">
  <ele>1685.97</ele>
  <time>2026-08-28T19:07:58Z</time>
  <course>154.11</course>
  <speed>0.8635392289873113</speed>
  <fix>3d</fix>
</trkpt>
<trkpt lat="40.072849" lon="-105.2305807">
  <ele>1685.9</ele>
  <time>2026-08-28T19:07:58Z</time>
  <course>153.73</course>
  <speed>1.05</speed>
  <fix>3d</fix>
</trkpt>
<trkpt lat="40.072847" lon="-105.2305792">
  <ele>1685.97</ele>
  <time>2026-08-28T19:07:58Z</time>
  <course>153.73</course>
  <speed>0.5907622195096772</speed>
  <fix>3d</fix>
</trkpt>
<trkpt lat="40.0728476" lon="-105.2305797">
  <ele>1685.89</ele>
  <time>2026-08-28T19:07:58Z</time>
  <course>149.59</course>
  <speed>0.74</speed>
  <fix>3d</fix>
</trkpt>
<trkpt lat="40.0728463" lon="-105.2305785">
  <ele>1685.97</ele>
  <time>2026-08-28T19:07:58Z</time>
  <course>153.76</course>
  <speed>0.38948684188300897</speed>
  <fix>3d</fix>
</trkpt>
<trkpt lat="40.0728467" lon="-105.2305789">
  <ele>1685.89</ele>
  <time>2026-08-28T19:07:58Z</time>
  <course>142.47</course>
  <speed>0.49</speed>
  <fix>3d</fix>
</trkpt>
<trkpt lat="40.072846" lon="-105.230578">
  <ele>1685.98</ele>
  <time>2026-08-28T19:07:58Z</time>
  <course>153.71</course>
  <speed>0.24413111231467405</speed>
  <fix>3d</fix>
</trkpt>
<trkpt lat="40.0728462" lon="-105.2305783">
  <ele>1685.9</ele>
  <time>2026-08-28T19:07:58Z</time>
  <course>130.56</course>
  <speed>0.3</speed>
  <fix>3d</fix>
</trkpt>
<trkpt lat="40.0728459" lon="-105.2305776">
  <ele>1685.99</ele>
  <time>2026-08-28T19:07:58Z</time>
  <course>153.66</course>
  <speed>0.16278820596099705</speed>
  <fix>3d</fix>
</trkpt>
<trkpt lat="40.0728459" lon="-105.2305778">
  <ele>1685.9</ele>
  <time>2026-08-28T19:07:58Z</time>
  <course>107.63</course>
  <speed>0.19</speed>
  <fix>3d</fix>
</trkpt>
<trkpt lat="40.0728459" lon="-105.2305773">
  <ele>1686.0</ele>
  <time>2026-08-28T19:07:58Z</time>
  <course>153.65</course>
  <speed>0.13152946437965907</speed>
  <fix>3d</fix>
</trkpt>
<trkpt lat="40.0728459" lon="-105.2305775">
  <ele>1685.91</ele>
  <time>2026-08-28T19:07:58Z</time>
  <course>75.7</course>
  <speed>0.15</speed>
  <fix>3d</fix>
</trkpt>
<trkpt lat="40.072846" lon="-105.230577">
  <ele>1686.01</ele>
  <time>2026-08-28T19:07:58Z</time>
  <course>153.61</course>
  <speed>0.12083045973594572</speed>
  <fix>3d</fix>
</trkpt>
<trkpt lat="40.072846" lon="-105.2305771">
  <ele>1685.92</ele>
  <time>2026-08-28T19:07:58Z</time>
  <course>53.75</course>
  <speed>0.15</speed>
  <fix>3d</fix>
</trkpt>
<trkpt lat="40.0728462" lon="-105.2305767">
  <ele>1686.02</ele>
  <time>2026-08-28T19:07:58Z</time>
  <course>153.57</course>
  <speed>0.1118033988749895</speed>
  <fix>3d</fix>
</trkpt>
<trkpt lat="40.0728462" lon="-105.2305768">
  <ele>1685.93</ele>
  <time>2026-08-28T19:07:58Z</time>
  <course>46.35</course>
  <speed>0.15</speed>
  <fix>3d</fix>
</trkpt>
<trkpt lat="40.0728462" lon="-105.2305765">
  <ele>1686.03</ele>
  <time>2026-08-28T19:07:58Z</time>
  <course>153.57</course>
  <speed>0.1118033988749895</speed>
  <fix>3d</fix>
</trkpt>
<trkpt lat="40.0728463" lon="-105.2305766">
  <ele>1685.94</ele>
  <time>2026-08-28T19:07:58Z</time>
  <course>50.19</course>
  <speed>0.14</speed>
  <fix>3d</fix>
</trkpt>
<trkpt lat="40.0728463" lon="-105.2305762">
  <ele>1686.04</ele>
  <time>2026-08-28T19:07:58Z</time>
  <course>153.54</course>
  <speed>0.12369316876852982</speed>
  <fix>3d</fix>
</trkpt>
<trkpt lat="40.0728464" lon="-105.2305763">
  <ele>1685.95</ele>
  <time>2026-08-28T19:07:58Z</time>
  <course>65.79</course>
  <speed>0.13</speed>
  <fix>3d</fix>
</trkpt>
<trkpt lat="40.0728462" lon="-105.2305759">
  <ele>1686.04</ele>
  <time>2026-08-28T19:07:58Z</time>
  <course>153.49</course>
  <speed>0.15811388300841897</speed>
  <fix>3d</fix>
</trkpt>
<trkpt lat="40.0728465" lon="-105.230576">
  <ele>1685.96</ele>
  <time>2026-08-28T19:07:58Z</time>
  <course>92.28</course>
  <speed>0.13</speed>
  <fix>3d</fix>
</trkpt>
<trkpt lat="40.0728462" lon="-105.2305755">
  <ele>1686.04</ele>
  <time>2026-08-28T19:07:58Z</time>
  <course>153.45</course>
  <speed>0.212602916254693</speed>
  <fix>3d</fix>
</trkpt>
<trkpt lat="40.0728465" lon="-105.2305757">
  <ele>1685.96</ele>
  <time>2026-08-28T19:07:58Z</time>
  <course>117.04</course>
  <speed>0.17</speed>
  <fix>3d</fix>
</trkpt>
<trkpt lat="40.0728459" lon="-105.2305752">
  <ele>1686.04</ele>
  <time>2026-08-28T19:07:58Z</time>
  <course>153.46</course>
  <speed>0.280178514522438</speed>
  <fix>3d</fix>
</trkpt>
<trkpt lat="40.0728463" lon="-105.2305753">
  <ele>1685.97</ele>
  <time>2026-08-28T19:07:58Z</time>
  <course>131.78</course>
  <speed>0.22</speed>
  <fix>3d</fix>
</trkpt>
<trkpt lat="40.0728455" lon="-105.2305747">
  <ele>1686.03</ele>
  <time>2026-08-28T19:07:58Z</time>
  <course>153.81</course>
  <speed>0.31906112267087633</speed>
  <fix>3d</fix>
</trkpt>
<trkpt lat="40.072846" lon="-105.2305749">
  <ele>1685.96</ele>
  <time>2026-08-28T19:07:58Z</time>
  <course>139.18</course>
  <speed>0.28</speed>
  <fix>3d</fix>
</trkpt>
<trkpt lat="40.072845" lon="-105.2305743">
  <ele>1685.99</ele>
  <time>2026-08-28T19:07:58Z</time>
  <course>154.23</course>
  <speed>0.3312099032335839</speed>
  <fix>3d</fix>
</trkpt>
<trkpt lat="40.0728455" lon="-105.2305744">
  <ele>1685.94</ele>
  <time>2026-08-28T19:07:58Z</time>
  <course>143.18</course>
  <speed>0.32</speed>
  <fix>3d</fix>
</trkpt>
<trkpt lat="40.0728445" lon="-105.2305739">
  <ele>1685.91</ele>
  <time>2026-08-28T19:07:58Z</time>
  <course>154.59</course>
  <speed>0.33541019662496846</speed>
  <fix>3d</fix>
</trkpt>
<trkpt lat="40.072845" lon="-105.230574">
  <ele>1685.89</ele>
  <time>2026-08-28T19:07:58Z</time>
  <course>146.21</course>
  <speed>0.34</speed>
  <fix>3d</fix>
</trkpt>
<trkpt lat="40.072844" lon="-105.2305735">
  <ele>1685.78</ele>
  <time>2026-08-28T19:07:58Z</time>
  <course>154.91</course>
  <speed>0.32695565448543634</speed>
  <fix>3d</fix>
</trkpt>
<trkpt lat="40.0728445" lon="-105.2305736">
  <ele>1685.8</ele>
  <time>2026-08-28T19:07:58Z</time>
  <course>149.16</course>
  <speed>0.34</speed>
  <fix>3d</fix>
</trkpt>
<trkpt lat="40.0728435" lon="-105.2305732">
  <ele>1685.61</ele>
  <time>2026-08-28T19:07:58Z</time>
  <course>155.2</course>
  <speed>0.30675723300355934</speed>
  <fix>3d</fix>
</trkpt>
<trkpt lat="40.072844" lon="-105.2305732">
  <ele>1685.65</ele>
  <time>2026-08-28T19:07:58Z</time>
  <course>152.52</course>
  <speed>0.33</speed>
  <fix>3d</fix>
</trkpt>
<trkpt lat="40.0728431" lon="-105.2305729">
  <ele>1685.4</ele>
  <time>2026-08-28T19:07:58Z</time>
  <course>155.46</course>
  <speed>0.2692582403567252</speed>
  <fix>3d</fix>
</trkpt>
<trkpt lat="40.0728435" lon="-105.2305728">
  <ele>1685.46</ele>
  <time>2026-08-28T19:07:58Z</time>
  <course>156.57</course>
  <speed>0.3</speed>
  <fix>3d</fix>
</trkpt>
<trkpt lat="40.0728426" lon="-105.2305727">
  <ele>1685.13</ele>
  <time>2026-08-28T19:07:58Z</time>
  <course>155.66</course>
  <speed>0.23194827009486402</speed>
  <fix>3d</fix>
</trkpt>
<trkpt lat="40.072843" lon="-105.2305725">
  <ele>1685.23</ele>
  <time>2026-08-28T19:07:58Z</time>
  <course>161.62</course>
  <speed>0.27</speed>
  <fix>3d</fix>
</trkpt>
<trkpt lat="40.0728423" lon="-105.2305726">
  <ele>1684.83</ele>
  <time>2026-08-28T19:07:58Z</time>
  <course>155.68</course>
  <speed>0.19026297590440447</speed>
  <fix>3d</fix>
</trkpt>
<trkpt lat="40.0728426" lon="-105.2305724">
  <ele>1684.96</ele>
  <time>2026-08-28T19:07:58Z</time>
  <course>168.61</course>
  <speed>0.23</speed>
  <fix>3d</fix>
</trkpt>
<trkpt lat="40.072842" lon="-105.2305726">
  <ele>1684.51</ele>
  <time>2026-08-28T19:07:58Z</time>
  <course>155.58</course>
  <speed>0.15811388300841897</speed>
  <fix>3d</fix>
</trkpt>
<trkpt lat="40.0728421" lon="-105.2305724">
  <ele>1684.65</ele>
  <time>2026-08-28T19:07:58Z</time>
  <course>179.03</course>
  <speed>0.19</speed>
  <fix>3d</fix>
</trkpt>
<trkpt lat="40.0728417" lon="-105.2305727">
  <ele>1684.18</ele>
  <time>2026-08-28T19:07:58Z</time>
  <course>155.45</course>
  <speed>0.1345362404707371</speed>
  <fix>3d</fix>
</trkpt>
<trkpt lat="40.0728418" lon="-105.2305724">
  <ele>1684.32</ele>
  <time>2026-08-28T19:07:58Z</time>
  <course>194.77</course>
  <speed>0.15</speed>
  <fix>3d</fix>
</trkpt>
<trkpt lat="40.0728416" lon="-105.2305728">
  <ele>1683.85</ele>
  <time>2026-08-28T19:07:58Z</time>
  <course>155.35</course>
  <speed>0.1392838827718412</speed>
  <fix>3d</fix>
</trkpt>
<trkpt lat="40.0728416" lon="-105.2305724">
  <ele>1683.98</ele>
  <time>2026-08-28T19:07:58Z</time>
  <course>217.67</course>
  <speed>0.13</speed>
  <fix>3d</fix>
</trkpt>
<trkpt lat="40.0728415" lon="-105.2305731">
  <ele>1683.52</ele>
  <time>2026-08-28T19:07:58Z</time>
  <course>155.24</course>
  <speed>0.15</speed>
  <fix>3d</fix>
</trkpt>
<trkpt lat="40.0728415" lon="-105.2305727">
  <ele>1683.65</ele>
  <time>2026-08-28T19:07:58Z</time>
  <course>244.89</course>
  <speed>0.12</speed>
  <fix>3d</fix>
</trkpt>
<trkpt lat="40.0728415" lon="-105.2305734">
  <ele>1683.19</ele>
  <time>2026-08-28T19:07:58Z</time>
  <course>155.16</course>
  <speed>0.18439088914585774</speed>
  <fix>3d</fix>
</trkpt>
<trkpt lat="40.0728414" lon="-105.230573">
  <ele>1683.33</ele>
  <time>2026-08-28T19:07:58Z</time>
  <course>268.28</course>
  <speed>0.14</speed>
  <fix>3d</fix>
</trkpt>
<trkpt lat="40.0728416" lon="-105.2305738">
  <ele>1682.86</ele>
  <time>2026-08-28T19:07:58Z</time>
  <course>155.03</course>
  <speed>0.2102379604162864</speed>
  <fix>3d</fix>
</trkpt>
<trkpt lat="40.0728414" lon="-105.2305734">
  <ele>1683.01</ele>
  <time>2026-08-28T19:07:58Z</time>
  <course>284.58</course>
  <speed>0.16</speed>
  <fix>3d</fix>
</trkpt>
<trkpt lat="40.0728417" lon="-105.2305742">
  <ele>1682.55</ele>
  <time>2026-08-28T19:07:58Z</time>
  <course>154.95</course>
  <speed>0.23853720883753127</speed>
  <fix>3d</fix>
</trkpt>
<trkpt lat="40.0728415" lon="-105.2305738">
  <ele>1682.69</ele>
  <time>2026-08-28T19:07:58Z</time>
  <course>295.65</course>
  <speed>0.19</speed>
  <fix>3d</fix>
</trkpt>
<trkpt lat="40.0728419" lon="-105.2305746">
  <ele>1682.24</ele>
  <time>2026-08-28T19:07:58Z</time>
  <course>154.87</course>
  <speed>0.25612496949731395</speed>
  <fix>3d</fix>
</trkpt>
<trkpt lat="40.0728417" lon="-105.2305741">
  <ele>1682.39</ele>
  <time>2026-08-28T19:07:58Z</time>
  <course>303.65</course>
  <speed>0.21</speed>
  <fix>3d</fix>
</trkpt>
<trkpt lat="40.0728422" lon="-105.230575">
  <ele>1681.94</ele>
  <time>2026-08-28T19:07:58Z</time>
  <course>154.82</course>
  <speed>0.261725046566048</speed>
  <fix>3d</fix>
</trkpt>
<trkpt lat="40.0728419" lon="-105.2305746">
  <ele>1682.09</ele>
  <time>2026-08-28T19:07:58Z</time>
  <course>309.84</course>
  <speed>0.23</speed>
  <fix>3d</fix>
</trkpt>
<trkpt lat="40.0728425" lon="-105.2305754">
  <ele>1681.64</ele>
  <time>2026-08-28T19:07:58Z</time>
  <course>154.78</course>
  <speed>0.2690724809414742</speed>
  <fix>3d</fix>
</trkpt>
<trkpt lat="40.0728422" lon="-105.2305749">
  <ele>1681.79</ele>
  <time>2026-08-28T19:07:58Z</time>
  <course>314.88</course>
  <speed>0.24</speed>
  <fix>3d</fix>
</trkpt>
<trkpt lat="40.0728428" lon="-105.2305758">
  <ele>1681.35</ele>
  <time>2026-08-28T19:07:58Z</time>
  <course>154.77</course>
  <speed>0.27018512172212594</speed>
  <fix>3d</fix>
</trkpt>
<trkpt lat="40.0728425" lon="-105.2305753">
  <ele>1681.5</ele>
  <time>2026-08-28T19:07:58Z</time>
  <course>319.27</course>
  <speed>0.24</speed>
  <fix>3d</fix>
</trkpt>
<trkpt lat="40.0728432" lon="-105.2305761">
  <ele>1681.05</ele>
  <time>2026-08-28T19:07:58Z</time>
  <course>154.76</course>
  <speed>0.2580697580112788</speed>
  <fix>3d</fix>
</trkpt>
<trkpt lat="40.0728429" lon="-105.2305758">
  <ele>1681.2</ele>
  <time>2026-08-28T19:07:58Z</time>
  <course>323.36</course>
  <speed>0.24</speed>
  <fix>3d</fix>
</trkpt>
<trkpt lat="40.0728435" lon="-105.2305764">
  <ele>1680.75</ele>
  <time>2026-08-28T19:07:58Z</time>
  <course>154.7</course>
  <speed>0.24698178070456936</speed>
  <fix>3d</fix>
</trkpt>
<trkpt lat="40.0728432" lon="-105.2305761">
  <ele>1680.91</ele>
  <time>2026-08-28T19:07:58Z</time>
  <course>327.26</course>
  <speed>0.23</speed>
  <fix>3d</fix>
</trkpt>
<trkpt lat="40.0728439" lon="-105.2305766">
  <ele>1680.46</ele>
  <time>2026-08-28T19:07:58Z</time>
  <course>154.66</course>
  <speed>0.22825424421026652</speed>
  <fix>3d</fix>
</trkpt>
<trkpt lat="40.0728436" lon="-105.2305763">
  <ele>1680.62</ele>
  <time>2026-08-28T19:07:58Z</time>
  <course>331.14</course>
  <speed>0.22</speed>
  <fix>3d</fix>
</trkpt>
<trkpt lat="40.0728442" lon="-105.2305768">
  <ele>1680.17</ele>
  <time>2026-08-28T19:07:58Z</time>
  <course>154.64</course>
  <speed>0.20615528128088303</speed>
  <fix>3d</fix>
</trkpt>
<trkpt lat="40.0728439" lon="-105.2305766">
  <ele>1680.32</ele>
  <time>2026-08-28T19:07:58Z</time>
  <course>335.42</course>
  <speed>0.2</speed>
  <fix>3d</fix>
</trkpt>
<trkpt lat="40.0728445" lon="-105.2305769">
  <ele>1679.87</ele>
  <time>2026-08-28T19:07:58Z</time>
  <course>154.61</course>
  <speed>0.18027756377319945</speed>
  <fix>3d</fix>
</trkpt>
<trkpt lat="40.0728442" lon="-105.2305768">
  <ele>1680.03</ele>
  <time>2026-08-28T19:07:58Z</time>
  <course>340.2</course>
  <speed>0.18</speed>
  <fix>3d</fix>
</trkpt>
<trkpt lat="40.0728448" lon="-105.230577">
  <ele>1679.56</ele>
  <time>2026-08-28T19:07:58Z</time>
  <course>154.58</course>
  <speed>0.15524174696260024</speed>
  <fix>3d</fix>
</trkpt>
<trkpt lat="40.0728445" lon="-105.2305768">
  <ele>1679.73</ele>
  <time>2026-08-28T19:07:58Z</time>
  <course>345.69</course>
  <speed>0.15</speed>
  <fix>3d</fix>
</trkpt>
<trkpt lat="40.072845" lon="-105.2305771">
  <ele>1679.26</ele>
  <time>2026-08-28T19:07:58Z</time>
  <course>154.54</course>
  <speed>0.13152946437965907</speed>
  <fix>3d</fix>
</trkpt>
<trkpt lat="40.0728448" lon="-105.2305769">
  <ele>1679.42</ele>
  <time>2026-08-28T19:07:58Z</time>
  <course>352.63</course>
  <speed>0.13</speed>
  <fix>3d</fix>
</trkpt>
<trkpt lat="40.0728452" lon="-105.2305771">
  <ele>1678.95</ele>
  <time>2026-08-28T19:07:58Z</time>
  <course>154.49</course>
  <speed>0.1</speed>
  <fix>3d</fix>
</trkpt>
<trkpt lat="40.072845" lon="-105.230577">
  <ele>1679.13</ele>
  <time>2026-08-28T19:07:58Z</time>
  <course>1.96</course>
  <speed>0.1</speed>
  <fix>3d</fix>
</trkpt>
<trkpt lat="40.0728453" lon="-105.230577">
  <ele>1678.65</ele>
  <time>2026-08-28T19:07:58Z</time>
  <course>154.48</course>
  <speed>0.08062257748298549</speed>
  <fix>3d</fix>
</trkpt>
<trkpt lat="40.0728451" lon="-105.2305769">
  <ele>1678.83</ele>
  <time>2026-08-28T19:07:58Z</time>
  <course>14.93</course>
  <speed>0.08</speed>
  <fix>3d</fix>
</trkpt>
<trkpt lat="40.0728454" lon="-105.230577">
  <ele>1678.35</ele>
  <time>2026-08-28T19:07:58Z</time>
  <course>154.41</course>
  <speed>0.0632455532033676</speed>
  <fix>3d</fix>
</trkpt>
<trkpt lat="40.0728453" lon="-105.2305768">
  <ele>1678.54</ele>
  <time>2026-08-28T19:07:58Z</time>
  <course>32.57</course>
  <speed>0.07</speed>
  <fix>3d</fix>
</trkpt>
<trkpt lat="40.0728455" lon="-105.2305769">
  <ele>1678.05</ele>
  <time>2026-08-28T19:07:58Z</time>
  <course>154.39</course>
  <speed>0.04242640687119285</speed>
  <fix>3d</fix>
</trkpt>
<trkpt lat="40.0728454" lon="-105.2305768">
  <ele>1678.24</ele>
  <time>2026-08-28T19:07:58Z</time>
  <course>53.69</course>
  <speed>0.06</speed>
  <fix>3d</fix>
</trkpt>
<trkpt lat="40.0728455" lon="-105.2305767">
  <ele>1677.75</ele>
  <time>2026-08-28T19:07:58Z</time>
  <course>154.39</course>
  <speed>0.0412310562561766</speed>
  <fix>3d</fix>
</trkpt>
<trkpt lat="40.0728455" lon="-105.2305767">
  <ele>1677.95</ele>
  <time>2026-08-28T19:07:58Z</time>
  <course>74.15</course>
  <speed>0.06</speed>
  <fix>3d</fix>
</trkpt>
<trkpt lat="40.0728455" lon="-105.2305766">
  <ele>1677.45</ele>
  <time>2026-08-28T19:07:58Z</time>
  <course>154.33</course>
  <speed>0.05</speed>
  <fix>3d</fix>
</trkpt>
<trkpt lat="40.0728455" lon="-105.2305765">
  <ele>1677.65</ele>
  <time>2026-08-28T19:07:58Z</time>
  <course>90.52</course>
  <speed>0.07</speed>
  <fix>3d</fix>
</trkpt>
<trkpt lat="40.0728455" lon="-105.2305764">
  <ele>1677.15</ele>
  <time>2026-08-28T19:07:58Z</time>
  <course>154.3</course>
  <speed>0.05099019513592785</speed>
  <fix>3d</fix>
</trkpt>
<trkpt lat="40.0728455" lon="-105.2305763">
  <ele>1677.36</ele>
  <time>2026-08-28T19:07:58Z</time>
  <course>102.41</course>
  <speed>0.08</speed>
  <fix>3d</fix>
</trkpt>
<trkpt lat="40.0728454" lon="-105.2305762">
  <ele>1676.86</ele>
  <time>2026-08-28T19:07:58Z</time>
  <course>154.31</course>
  <speed>0.053851648071345036</speed>
  <fix>3d</fix>
</trkpt>
<trkpt lat="40.0728455" lon="-105.2305762">
  <ele>1677.06</ele>
  <time>2026-08-28T19:07:58Z</time>
  <course>111.09</course>
  <speed>0.08</speed>
  <fix>3d</fix>
</trkpt>
<trkpt lat="40.0728454" lon="-105.230576">
  <ele>1676.56</ele>
  <time>2026-08-28T19:07:58Z</time>
  <course>154.29</course>
  <speed>0.05830951894845301</speed>
  <fix>3d</fix>
</trkpt>
<trkpt lat="40.0728454" lon="-105.2305759">
  <ele>1676.77</ele>
  <time>2026-08-28T19:07:58Z</time>
  <course>118.06</course>
  <speed>0.09</speed>
  <fix>3d</fix>
</trkpt>
<trkpt lat="40.0728454" lon="-105.2305759">
  <ele>1676.27</ele>
  <time>2026-08-28T19:07:58Z</time>
  <course>154.28</course>
  <speed>0.05</speed>
  <fix>3d</fix>
</trkpt>
<trkpt lat="40.0728453" lon="-105.2305758">
  <ele>1676.47</ele>
  <time>2026-08-28T19:07:58Z</time>
  <course>124.14</course>
  <speed>0.09</speed>
  <fix>3d</fix>
</trkpt>
<trkpt lat="40.0728453" lon="-105.2305757">
  <ele>1675.97</ele>
  <time>2026-08-28T19:07:58Z</time>
  <course>154.27</course>
  <speed>0.05</speed>
  <fix>3d</fix>
</trkpt>
<trkpt lat="40.0728452" lon="-105.2305756">
  <ele>1676.17</ele>
  <time>2026-08-28T19:07:58Z</time>
  <course>129.28</course>
  <speed>0.09</speed>
  <fix>3d</fix>
</trkpt>
<trkpt lat="40.0728452" lon="-105.2305756">
  <ele>1675.67</ele>
  <time>2026-08-28T19:07:58Z</time>
  <course>154.25</course>
  <speed>0.05</speed>
  <fix>3d</fix>
</trkpt>
<trkpt lat="40.0728451" lon="-105.2305754">
  <ele>1675.88</ele>
  <time>2026-08-28T19:07:58Z</time>
  <course>133.96</course>
  <speed>0.08</speed>
  <fix>3d</fix>
</trkpt>
<trkpt lat="40.0728451" lon="-105.2305755">
  <ele>1675.38</ele>
  <time>2026-08-28T19:07:58Z</time>
  <course>154.23</course>
  <speed>0.044721359549995794</speed>
  <fix>3d</fix>
</trkpt>
<trkpt lat="40.072845" lon="-105.2305753">
  <ele>1675.59</ele>
  <time>2026-08-28T19:07:58Z</time>
  <course>138.71</course>
  <speed>0.08</speed>
  <fix>3d</fix>
</trkpt>
<trkpt lat="40.072845" lon="-105.2305754">
  <ele>1675.08</ele>
  <time>2026-08-28T19:07:58Z</time>
  <course>154.21</course>
  <speed>0.0412310562561766</speed>
  <fix>3d</fix>
</trkpt>
<trkpt lat="40.0728449" lon="-105.2305752">
  <ele>1675.29</ele>
  <time>2026-08-28T19:07:58Z</time>
  <course>143.49</course>
  <speed>0.07</speed>
  <fix>3d</fix>
</trkpt>
<trkpt lat="40.0728449" lon="-105.2305753">
  <ele>1674.78</ele>
  <time>2026-08-28T19:07:58Z</time>
  <course>154.19</course>
  <speed>0.03</speed>
  <fix>3d</fix>
</trkpt>
<trkpt lat="40.0728448" lon="-105.2305751">
  <ele>1674.99</ele>
  <time>2026-08-28T19:07:58Z</time>
  <course>148.67</course>
  <speed>0.06</speed>
  <fix>3d</fix>
</trkpt>
<trkpt lat="40.0728448" lon="-105.2305752">
  <ele>1674.48</ele>
  <time>2026-08-28T19:07:58Z</time>
  <course>154.17</course>
  <speed>0.03</speed>
  <fix>3d</fix>
</trkpt>
<trkpt lat="40.0728447" lon="-105.230575">
  <ele>1674.69</ele>
  <time>2026-08-28T19:07:58Z</time>
  <course>154.85</course>
  <speed>0.05</speed>
  <fix>3d</fix>
</trkpt>
<trkpt lat="40.0728447" lon="-105.2305752">
  <ele>1674.18</ele>
  <time>2026-08-28T19:07:58Z</time>
  <course>154.15</course>
  <speed>0.022360679774997897</speed>
  <fix>3d</fix>
</trkpt>
<trkpt lat="40.0728446" lon="-105.230575">
  <ele>1674.39</ele>
  <time>2026-08-28T19:07:58Z</time>
  <course>162.85</course>
  <speed>0.04</speed>
  <fix>3d</fix>
</trkpt>
<trkpt lat="40.0728446" lon="-105.2305752">
  <ele>1673.89</ele>
  <time>2026-08-28T19:07:58Z</time>
  <course>154.13</course>
  <speed>0.022360679774997897</speed>
  <fix>3d</fix>
</trkpt>
<trkpt lat="40.0728445" lon="-105.230575">
  <ele>1674.09</ele>
  <time>2026-08-28T19:07:58Z</time>
  <course>174.35</course>
  <speed>0.03</speed>
  <fix>3d</fix>
</trkpt>
<trkpt lat="40.0728446" lon="-105.2305752">
  <ele>1673.58</ele>
  <time>2026-08-28T19:07:58Z</time>
  <course>154.11</course>
  <speed>0.03</speed>
  <fix>3d</fix>
</trkpt>
<trkpt lat="40.0728444" lon="-105.230575">
  <ele>1673.79</ele>
  <time>2026-08-28T19:07:58Z</time>
  <course>191.9</course>
  <speed>0.02</speed>
  <fix>3d</fix>
</trkpt>
<trkpt lat="40.0728446" lon="-105.2305752">
  <ele>1673.28</ele>
  <time>2026-08-28T19:07:58Z</time>
  <course>154.08</course>
  <speed>0.04</speed>
  <fix>3d</fix>
</trkpt>
<trkpt lat="40.0728444" lon="-105.230575">
  <ele>1673.48</ele>
  <time>2026-08-28T19:07:58Z</time>
  <course>216.78</course>
  <speed>0.02</speed>
  <fix>3d</fix>
</trkpt>
<trkpt lat="40.0728445" lon="-105.2305752">
  <ele>1672.97</ele>
  <time>2026-08-28T19:07:58Z</time>
  <course>154.06</course>
  <speed>0.0412310562561766</speed>
  <fix>3d</fix>
</trkpt>
<trkpt lat="40.0728444" lon="-105.230575">
  <ele>1673.17</ele>
  <time>2026-08-28T19:07:58Z</time>
  <course>244.26</course>
  <speed>0.02</speed>
  <fix>3d</fix>
</trkpt>
<trkpt lat="40.0728445" lon="-105.2305753">
  <ele>1672.67</ele>
  <time>2026-08-28T19:07:58Z</time>
  <course>154.04</course>
  <speed>0.0412310562561766</speed>
  <fix>3d</fix>
</trkpt>
<trkpt lat="40.0728444" lon="-105.230575">
  <ele>1672.88</ele>
  <time>2026-08-28T19:07:58Z</time>
  <course>267.4</course>
  <speed>0.02</speed>
  <fix>3d</fix>
</trkpt>
<trkpt lat="40.0728446" lon="-105.2305753">
  <ele>1672.37</ele>
  <time>2026-08-28T19:07:58Z</time>
  <course>154.01</course>
  <speed>0.053851648071345036</speed>
  <fix>3d</fix>
</trkpt>
<trkpt lat="40.0728444" lon="-105.230575">
  <ele>1672.58</ele>
  <time>2026-08-28T19:07:58Z</time>
  <course>283.59</course>
  <speed>0.03</speed>
  <fix>3d</fix>
</trkpt>
<trkpt lat="40.0728445" lon="-105.2305754">
  <ele>1672.07</ele>
  <time>2026-08-28T19:07:58Z</time>
  <course>153.98</course>
  <speed>0.05830951894845301</speed>
  <fix>3d</fix>
</trkpt>
<trkpt lat="40.0728444" lon="-105.2305751">
  <ele>1672.28</ele>
  <time>2026-08-28T19:07:58Z</time>
  <course>294.08</course>
  <speed>0.03</speed>
  <fix>3d</fix>
</trkpt>
<trkpt lat="40.0728445" lon="-105.2305755">
  <ele>1671.77</ele>
  <time>2026-08-28T19:07:58Z</time>
  <course>153.95</course>
  <speed>0.05830951894845301</speed>
  <fix>3d</fix>
</trkpt>
<trkpt lat="40.0728444" lon="-105.2305752">
  <ele>1671.98</ele>
  <time>2026-08-28T19:07:58Z</time>
  <course>300.94</course>
  <speed>0.04</speed>
  <fix>3d</fix>
</trkpt>
<trkpt lat="40.0728446" lon="-105.2305755">
  <ele>1671.47</ele>
  <time>2026-08-28T19:07:58Z</time>
  <course>153.95</course>
  <speed>0.06403124237432849</speed>
  <fix>3d</fix>
</trkpt>
<trkpt lat="40.0728444" lon="-105.2305753">
  <ele>1671.69</ele>
  <time>2026-08-28T19:07:58Z</time>
  <course>305.61</course>
  <speed>0.04</speed>
  <fix>3d</fix>
</trkpt>
<trkpt lat="40.0728446" lon="-105.2305756">
  <ele>1671.17</ele>
  <time>2026-08-28T19:07:58Z</time>
  <course>153.94</course>
  <speed>0.06403124237432849</speed>
  <fix>3d</fix>
</trkpt>
<trkpt lat="40.0728444" lon="-105.2305754">
  <ele>1671.39</ele>
  <time>2026-08-28T19:07:58Z</time>
  <course>309.39</course>
  <speed>0.04</speed>
  <fix>3d</fix>
</trkpt>
<trkpt lat="40.0728446" lon="-105.2305757">
  <ele>1670.87</ele>
  <time>2026-08-28T19:07:58Z</time>
  <course>153.9</course>
  <speed>0.06403124237432849</speed>
  <fix>3d</fix>
</trkpt>
<trkpt lat="40.0728445" lon="-105.2305755">
  <ele>1671.09</ele>
  <time>2026-08-28T19:07:58Z</time>
  <course>312.31</course>
  <speed>0.04</speed>
  <fix>3d</fix>
</trkpt>
<trkpt lat="40.0728447" lon="-105.2305758">
  <ele>1670.57</ele>
  <time>2026-08-28T19:07:58Z</time>
  <course>153.88</course>
  <speed>0.0565685424949238</speed>
  <fix>3d</fix>
</trkpt>
<trkpt lat="40.0728445" lon="-105.2305755">
  <ele>1670.79</ele>
  <time>2026-08-28T19:07:58Z</time>
  <course>314.65</course>
  <speed>0.04</speed>
  <fix>3d</fix>
</trkpt>
<trkpt lat="40.0728447" lon="-105.2305758">
  <ele>1670.27</ele>
  <time>2026-08-28T19:07:58Z</time>
  <course>153.87</course>
  <speed>0.0565685424949238</speed>
  <fix>3d</fix>
</trkpt>
<trkpt lat="40.0728446" lon="-105.2305756">
  <ele>1670.49</ele>
  <time>2026-08-28T19:07:58Z</time>
  <course>317.37</course>
  <speed>0.04</speed>
  <fix>3d</fix>
</trkpt>
<trkpt lat="40.0728448" lon="-105.2305759">
  <ele>1669.97</ele>
  <time>2026-08-28T19:07:58Z</time>
  <course>153.85</course>
  <speed>0.05</speed>
  <fix>3d</fix>
</trkpt>
<trkpt lat="40.0728447" lon="-105.2305757">
  <ele>1670.19</ele>
  <time>2026-08-28T19:07:58Z</time>
  <course>320.51</course>
  <speed>0.04</speed>
  <fix>3d</fix>
</trkpt>
<trkpt lat="40.0728448" lon="-105.2305759">
  <ele>1669.66</ele>
  <time>2026-08-28T19:07:58Z</time>
  <course>153.83</course>
  <speed>0.04242640687119285</speed>
  <fix>3d</fix>
</trkpt>
<trkpt lat="40.0728448" lon="-105.2305758">
  <ele>1669.89</ele>
  <time>2026-08-28T19:07:58Z</time>
  <course>323.86</course>
  <speed>0.04</speed>
  <fix>3d</fix>
</trkpt>
<trkpt lat="40.0728449" lon="-105.230576">
  <ele>1669.37</ele>
  <time>2026-08-28T19:07:58Z</time>
  <course>153.81</course>
  <speed>0.04242640687119285</speed>
  <fix>3d</fix>
</trkpt>
<trkpt lat="40.0728448" lon="-105.2305758">
  <ele>1669.59</ele>
  <time>2026-08-28T19:07:58Z</time>
  <course>327.55</course>
  <speed>0.03</speed>
  <fix>3d</fix>
</trkpt>
<trkpt lat="40.0728449" lon="-105.230576">
  <ele>1669.07</ele>
  <time>2026-08-28T19:07:58Z</time>
  <course>153.79</course>
  <speed>0.03605551275463989</speed>
  <fix>3d</fix>
</trkpt>
<trkpt lat="40.0728449" lon="-105.2305758">
  <ele>1669.3</ele>
  <time>2026-08-28T19:07:58Z</time>
  <course>331.11</course>
  <speed>0.03</speed>
  <fix>3d</fix>
</trkpt>
<trkpt lat="40.072845" lon="-105.230576">
  <ele>1668.77</ele>
  <time>2026-08-28T19:07:58Z</time>
  <course>153.78</course>
  <speed>0.0282842712474619</speed>
  <fix>3d</fix>
</trkpt>
<trkpt lat="40.0728449" lon="-105.2305758">
  <ele>1669.0</ele>
  <time>2026-08-28T19:07:58Z</time>
  <course>335.09</course>
  <speed>0.02</speed>
  <fix>3d</fix>
</trkpt>
<trkpt lat="40.072845" lon="-105.230576">
  <ele>1668.47</ele>
  <time>2026-08-28T19:07:58Z</time>
  <course>153.76</course>
  <speed>0.022360679774997897</speed>
  <fix>3d</fix>
</trkpt>
<trkpt lat="40.072845" lon="-105.2305759">
  <ele>1668.7</ele>
  <time>2026-08-28T19:07:58Z</time>
  <course>340.62</course>
  <speed>0.02</speed>
  <fix>3d</fix>
</trkpt>
<trkpt lat="40.072845" lon="-105.230576">
  <ele>1668.17</ele>
  <time>2026-08-28T19:07:58Z</time>
  <course>153.74</course>
  <speed>0.01414213562373095</speed>
  <fix>3d</fix>
</trkpt>
<trkpt lat="40.072845" lon="-105.230576">
  <ele>1668.4</ele>
  <time>2026-08-28T19:07:58Z</time>
  <course>348.08</course>
  <speed>0.01</speed>
  <fix>3d</fix>
</trkpt>
<trkpt lat="40.072845" lon="-105.230576">
  <ele>1667.88</ele>
  <time>2026-08-28T19:07:58Z</time>
  <course>153.74</course>
  <speed>0.01414213562373095</speed>
  <fix>3d</fix>
</trkpt>
<trkpt lat="40.072845" lon="-105.230576">
  <ele>1668.11</ele>
  <time>2026-08-28T19:07:58Z</time>
  <course>1.84</course>
  <speed>0.01</speed>
  <fix>3d</fix>
</trkpt>
<trkpt lat="40.072845" lon="-105.230576">
  <ele>1667.58</ele>
  <time>2026-08-28T19:07:58Z</time>
  <course>153.73</course>
  <speed>0.0</speed>
  <fix>3d</fix>
</trkpt>
<trkpt lat="40.072845" lon="-105.230576">
  <ele>1667.81</ele>
  <time>2026-08-28T19:07:58Z</time>
  <course>31.24</course>
  <speed>0.0</speed>
  <fix>3d</fix>
</trkpt>
<trkpt lat="40.072845" lon="-105.230576">
  <ele>1667.28</ele>
  <time>2026-08-28T19:07:58Z</time>
  <course>153.72</course>
  <speed>0.0</speed>
  <fix>3d</fix>
</trkpt>
<trkpt lat="40.072845" lon="-105.230576">
  <ele>1667.51</ele>
  <time>2026-08-28T19:07:58Z</time>
  <course>69.8</course>
  <speed>0.0</speed>
  <fix>3d</fix>
</trkpt>
<trkpt lat="40.072845" lon="-105.230576">
  <ele>1666.97</ele>
  <time>2026-08-28T19:07:58Z</time>
  <course>153.71</course>
  <speed>0.0</speed>
  <fix>3d</fix>
</trkpt>
<trkpt lat="40.072845" lon="-105.230576">
  <ele>1667.21</ele>
  <time>2026-08-28T19:07:58Z</time>
  <course>94.28</course>
  <speed>0.01</speed>
  <fix>3d</fix>
</trkpt>
<trkpt lat="40.072845" lon="-105.230576">
  <ele>1666.67</ele>
  <time>2026-08-28T19:07:58Z</time>
  <course>153.69</course>
  <speed>0.0</speed>
  <fix>3d</fix>
</trkpt>
<trkpt lat="40.072845" lon="-105.230576">
  <ele>1666.91</ele>
  <time>2026-08-28T19:07:58Z</time>
  <course>106.63</course>
  <speed>0.01</speed>
  <fix>3d</fix>
</trkpt>
<trkpt lat="40.072845" lon="-105.230576">
  <ele>1666.37</ele>
  <time>2026-08-28T19:07:58Z</time>
  <course>153.67</course>
  <speed>0.0</speed>
  <fix>3d</fix>
</trkpt>
<trkpt lat="40.072845" lon="-105.2305759">
  <ele>1666.61</ele>
  <time>2026-08-28T19:07:58Z</time>
  <course>112.59</course>
  <speed>0.01</speed>
  <fix>3d</fix>
</trkpt>
<trkpt lat="40.072845" lon="-105.230576">
  <ele>1666.08</ele>
  <time>2026-08-28T19:07:58Z</time>
  <course>153.65</course>
  <speed>0.0</speed>
  <fix>3d</fix>
</trkpt>
<trkpt lat="40.072845" lon="-105.2305758">
  <ele>1666.31</ele>
  <time>2026-08-28T19:07:58Z</time>
  <course>115.93</course>
  <speed>0.01</speed>
  <fix>3d</fix>
</trkpt>
<trkpt lat="40.072845" lon="-105.230576">
  <ele>1665.78</ele>
  <time>2026-08-28T19:07:58Z</time>
  <course>153.65</course>
  <speed>0.0</speed>
  <fix>3d</fix>
</trkpt>
<trkpt lat="40.072845" lon="-105.2305758">
  <ele>1666.01</ele>
  <time>2026-08-28T19:07:58Z</time>
  <course>118.18</course>
  <speed>0.01</speed>
  <fix>3d</fix>
</trkpt>
<trkpt lat="40.072845" lon="-105.2305759">
  <ele>1665.49</ele>
  <time>2026-08-28T19:07:58Z</time>
  <course>153.65</course>
  <speed>0.0</speed>
  <fix>3d</fix>
</trkpt>
<trkpt lat="40.072845" lon="-105.2305758">
  <ele>1665.71</ele>
  <time>2026-08-28T19:07:58Z</time>
  <course>119.58</course>
  <speed>0.01</speed>
  <fix>3d</fix>
</trkpt>
<trkpt lat="40.072845" lon="-105.2305759">
  <ele>1665.19</ele>
  <time>2026-08-28T19:07:58Z</time>
  <course>153.65</course>
  <speed>0.0</speed>
  <fix>3d</fix>
</trkpt>
<trkpt lat="40.072845" lon="-105.2305758">
  <ele>1665.41</ele>
  <time>2026-08-28T19:07:58Z</time>
  <course>120.74</course>
  <speed>0.01</speed>
  <fix>3d</fix>
</trkpt>
<trkpt lat="40.072845" lon="-105.2305759">
  <ele>1664.89</ele>
  <time>2026-08-28T19:07:58Z</time>
  <course>153.64</course>
  <speed>0.0</speed>
  <fix>3d</fix>
</trkpt>
<trkpt lat="40.072845" lon="-105.2305758">
  <ele>1665.11</ele>
  <time>2026-08-28T19:07:58Z</time>
  <course>122.04</course>
  <speed>0.01</speed>
  <fix>3d</fix>
</trkpt>
<trkpt lat="40.072845" lon="-105.2305759">
  <ele>1664.59</ele>
  <time>2026-08-28T19:07:58Z</time>
  <course>153.61</course>
  <speed>0.0</speed>
  <fix>3d</fix>
</trkpt>
<trkpt lat="40.072845" lon="-105.2305757">
  <ele>1664.8</ele>
  <time>2026-08-28T19:07:58Z</time>
  <course>123.89</course>
  <speed>0.01</speed>
  <fix>3d</fix>
</trkpt>
<trkpt lat="40.072845" lon="-105.2305758">
  <ele>1664.29</ele>
  <time>2026-08-28T19:07:58Z</time>
  <course>153.61</course>
  <speed>0.0</speed>
  <fix>3d</fix>
</trkpt>
<trkpt lat="40.072845" lon="-105.2305756">
  <ele>1664.5</ele>
  <time>2026-08-28T19:07:58Z</time>
  <course>125.78</course>
  <speed>0.01</speed>
  <fix>3d</fix>
</trkpt>
<trkpt lat="40.072845" lon="-105.2305758">
  <ele>1663.98</ele>
  <time>2026-08-28T19:07:58Z</time>
  <course>153.59</course>
  <speed>0.0</speed>
  <fix>3d</fix>
</trkpt>
<trkpt lat="40.072845" lon="-105.2305756">
  <ele>1664.2</ele>
  <time>2026-08-28T19:07:58Z</time>
  <course>127.48</course>
  <speed>0.01</speed>
  <fix>3d</fix>
</trkpt>
<trkpt lat="40.072845" lon="-105.2305758">
  <ele>1663.68</ele>
  <time>2026-08-28T19:07:58Z</time>
  <course>153.57</course>
  <speed>0.01</speed>
  <fix>3d</fix>
</trkpt>
<trkpt lat="40.072845" lon="-105.2305756">
  <ele>1663.89</ele>
  <time>2026-08-28T19:07:58Z</time>
  <course>129.65</course>
  <speed>0.01</speed>
  <fix>3d</fix>
</trkpt>
<trkpt lat="40.072845" lon="-105.2305758">
  <ele>1663.38</ele>
  <time>2026-08-28T19:07:58Z</time>
  <course>153.56</course>
  <speed>0.01</speed>
  <fix>3d</fix>
</trkpt>
<trkpt lat="40.072845" lon="-105.2305756">
  <ele>1663.59</ele>
  <time>2026-08-28T19:07:58Z</time>
  <course>133.18</course>
  <speed>0.01</speed>
  <fix>3d</fix>
</trkpt>
<trkpt lat="40.072845" lon="-105.2305758">
  <ele>1663.08</ele>
  <time>2026-08-28T19:07:58Z</time>
  <course>153.55</course>
  <speed>0.01</speed>
  <fix>3d</fix>
</trkpt>
<trkpt lat="40.072845" lon="-105.2305756">
  <ele>1663.29</ele>
  <time>2026-08-28T19:07:58Z</time>
  <course>138.69</course>
  <speed>0.0</speed>
  <fix>3d</fix>
</trkpt>
<trkpt lat="40.072845" lon="-105.2305757">
  <ele>1662.78</ele>
  <time>2026-08-28T19:07:58Z</time>
  <course>153.54</course>
  <speed>0.01</speed>
  <fix>3d</fix>
</trkpt>
<trkpt lat="40.072845" lon="-105.2305756">
  <ele>1662.99</ele>
  <time>2026-08-28T19:07:58Z</time>
  <course>145.01</course>
  <speed>0.0</speed>
  <fix>3d</fix>
</trkpt>
<trkpt lat="40.072845" lon="-105.2305757">
  <ele>1662.48</ele>
  <time>2026-08-28T19:07:58Z</time>
  <course>153.52</course>
  <speed>0.01</speed>
  <fix>3d</fix>
</trkpt>
<trkpt lat="40.072845" lon="-105.2305756">
  <ele>1662.69</ele>
  <time>2026-08-28T19:07:58Z</time>
  <course>153.09</course>
  <speed>0.0</speed>
  <fix>3d</fix>
</trkpt>
<trkpt lat="40.072845" lon="-105.2305757">
  <ele>1662.18</ele>
  <time>2026-08-28T19:07:58Z</time>
  <course>153.52</course>
  <speed>0.01</speed>
  <fix>3d</fix>
</trkpt>
<trkpt lat="40.072845" lon="-105.2305756">
  <ele>1662.39</ele>
  <time>2026-08-28T19:07:58Z</time>
  <course>164.18</course>
  <speed>0.0</speed>
  <fix>3d</fix>
</trkpt>
<trkpt lat="40.072845" lon="-105.2305757">
  <ele>1661.88</ele>
  <time>2026-08-28T19:07:58Z</time>
  <course>153.5</course>
  <speed>0.01</speed>
  <fix>3d</fix>
</trkpt>
<trkpt lat="40.0728449" lon="-105.2305756">
  <ele>1662.09</ele>
  <time>2026-08-28T19:07:58Z</time>
  <course>177.25</course>
  <speed>0.0</speed>
  <fix>3d</fix>
</trkpt>
<trkpt lat="40.072845" lon="-105.2305757">
  <ele>1661.58</ele>
  <time>2026-08-28T19:07:58Z</time>
  <course>153.5</course>
  <speed>0.02</speed>
  <fix>3d</fix>
</trkpt>
<trkpt lat="40.0728449" lon="-105.2305756">
  <ele>1661.78</ele>
  <time>2026-08-28T19:07:58Z</time>
  <course>187.42</course>
  <speed>0.0</speed>
  <fix>3d</fix>
</trkpt>
<trkpt lat="40.072845" lon="-105.2305757">
  <ele>1661.29</ele>
  <time>2026-08-28T19:07:58Z</time>
  <course>153.49</course>
  <speed>0.02</speed>
  <fix>3d</fix>
</trkpt>
<trkpt lat="40.0728449" lon="-105.2305756">
  <ele>1661.48</ele>
  <time>2026-08-28T19:07:58Z</time>
  <course>191.9</course>
  <speed>0.0</speed>
  <fix>3d</fix>
</trkpt>
<trkpt lat="40.072845" lon="-105.2305757">
  <ele>1660.99</ele>
  <time>2026-08-28T19:07:58Z</time>
  <course>153.49</course>
  <speed>0.02</speed>
  <fix>3d</fix>
</trkpt>
<trkpt lat="40.0728449" lon="-105.2305756">
  <ele>1661.17</ele>
  <time>2026-08-28T19:07:58Z</time>
  <course>195.22</course>
  <speed>0.0</speed>
  <fix>3d</fix>
</trkpt>
<trkpt lat="40.072845" lon="-105.2305757">
  <ele>1660.69</ele>
  <time>2026-08-28T19:07:58Z</time>
  <course>153.49</course>
  <speed>0.02</speed>
  <fix>3d</fix>
</trkpt>
<trkpt lat="40.0728449" lon="-105.2305756">
  <ele>1660.88</ele>
  <time>2026-08-28T19:07:58Z</time>
  <course>198.9</course>
  <speed>0.0</speed>
  <fix>3d</fix>
</trkpt>
<trkpt lat="40.072845" lon="-105.2305757">
  <ele>1660.38</ele>
  <time>2026-08-28T19:07:58Z</time>
  <course>153.46</course>
  <speed>0.02</speed>
  <fix>3d</fix>
</trkpt>
<trkpt lat="40.0728449" lon="-105.2305756">
  <ele>1660.57</ele>
  <time>2026-08-28T19:07:58Z</time>
  <course>203.7</course>
  <speed>0.0</speed>
  <fix>3d</fix>
</trkpt>
<trkpt lat="40.072845" lon="-105.2305757">
  <ele>1660.08</ele>
  <time>2026-08-28T19:07:58Z</time>
  <course>153.45</course>
  <speed>0.02</speed>
  <fix>3d</fix>
</trkpt>
<trkpt lat="40.0728449" lon="-105.2305756">
  <ele>1660.27</ele>
  <time>2026-08-28T19:07:58Z</time>
  <course>211.54</course>
  <speed>0.0</speed>
  <fix>3d</fix>
</trkpt>
<trkpt lat="40.072845" lon="-105.2305757">
  <ele>1659.78</ele>
  <time>2026-08-28T19:07:58Z</time>
  <course>153.45</course>
  <speed>0.02</speed>
  <fix>3d</fix>
</trkpt>
<trkpt lat="40.0728449" lon="-105.2305756">
  <ele>1659.97</ele>
  <time>2026-08-28T19:07:58Z</time>
  <course>220.83</course>
  <speed>0.0</speed>
  <fix>3d</fix>
</trkpt>
<trkpt lat="40.072845" lon="-105.2305757">
  <ele>1659.48</ele>
  <time>2026-08-28T19:07:58Z</time>
  <course>153.45</course>
  <speed>0.02</speed>
  <fix>3d</fix>
</trkpt>
<trkpt lat="40.0728449" lon="-105.2305756">
  <ele>1659.66</ele>
  <time>2026-08-28T19:07:58Z</time>
  <course>229.35</course>
  <speed>0.0</speed>
  <fix>3d</fix>
</trkpt>
<trkpt lat="40.072845" lon="-105.2305757">
  <ele>1659.17</ele>
  <time>2026-08-28T19:07:58Z</time>
  <course>153.42</course>
  <speed>0.02</speed>
  <fix>3d</fix>
</trkpt>
<trkpt lat="40.0728449" lon="-105.2305756">
  <ele>1659.36</ele>
  <time>2026-08-28T19:07:58Z</time>
  <course>238.06</course>
  <speed>0.0</speed>
  <fix>3d</fix>
</trkpt>
<trkpt lat="40.072845" lon="-105.2305757">
  <ele>1658.87</ele>
  <time>2026-08-28T19:07:58Z</time>
  <course>153.4</course>
  <speed>0.02</speed>
  <fix>3d</fix>
</trkpt>
<trkpt lat="40.0728449" lon="-105.2305756">
  <ele>1659.06</ele>
  <time>2026-08-28T19:07:58Z</time>
  <course>244.77</course>
  <speed>0.0</speed>
  <fix>3d</fix>
</trkpt>
<trkpt lat="40.072845" lon="-105.2305757">
  <ele>1658.57</ele>
  <time>2026-08-28T19:07:58Z</time>
  <course>153.4</course>
  <speed>0.02</speed>
  <fix>3d</fix>
</trkpt>
<trkpt lat="40.0728449" lon="-105.2305756">
  <ele>1658.76</ele>
  <time>2026-08-28T19:07:58Z</time>
  <course>249.85</course>
  <speed>0.0</speed>
  <fix>3d</fix>
</trkpt>
<trkpt lat="40.072845" lon="-105.2305757">
  <ele>1658.27</ele>
  <time>2026-08-28T19:07:58Z</time>
  <course>153.39</course>
  <speed>0.02</speed>
  <fix>3d</fix>
</trkpt>
<trkpt lat="40.0728449" lon="-105.2305756">
  <ele>1658.46</ele>
  <time>2026-08-28T19:07:58Z</time>
  <course>253.61</course>
  <speed>0.0</speed>
  <fix>3d</fix>
</trkpt>
<trkpt lat="40.072845" lon="-105.2305757">
  <ele>1657.97</ele>
  <time>2026-08-28T19:07:58Z</time>
  <course>153.39</course>
  <speed>0.01</speed>
  <fix>3d</fix>
</trkpt>
<trkpt lat="40.0728449" lon="-105.2305756">
  <ele>1658.16</ele>
  <time>2026-08-28T19:07:58Z</time>
  <course>261.55</course>
  <speed>0.0</speed>
  <fix>3d</fix>
</trkpt>
<trkpt lat="40.072845" lon="-105.2305757">
  <ele>1657.67</ele>
  <time>2026-08-28T19:07:58Z</time>
  <course>153.38</course>
  <speed>0.01</speed>
  <fix>3d</fix>
</trkpt>
<trkpt lat="40.0728449" lon="-105.2305756">
  <ele>1657.86</ele>
  <time>2026-08-28T19:07:58Z</time>
  <course>270.63</course>
  <speed>0.0</speed>
  <fix>3d</fix>
</trkpt>
<trkpt lat="40.072845" lon="-105.2305757">
  <ele>1657.37</ele>
  <time>2026-08-28T19:07:58Z</time>
  <course>153.38</course>
  <speed>0.01</speed>
  <fix>3d</fix>
</trkpt>
<trkpt lat="40.0728449" lon="-105.2305756">
  <ele>1657.56</ele>
  <time>2026-08-28T19:07:58Z</time>
  <course>274.49</course>
  <speed>0.0</speed>
  <fix>3d</fix>
</trkpt>
<trkpt lat="40.072845" lon="-105.2305757">
  <ele>1657.08</ele>
  <time>2026-08-28T19:07:58Z</time>
  <course>153.37</course>
  <speed>0.01</speed>
  <fix>3d</fix>
</trkpt>
<trkpt lat="40.0728449" lon="-105.2305756">
  <ele>1657.26</ele>
  <time>2026-08-28T19:07:58Z</time>
  <course>279.56</course>
  <speed>0.0</speed>
  <fix>3d</fix>
</trkpt>
<trkpt lat="40.072845" lon="-105.2305757">
  <ele>1656.78</ele>
  <time>2026-08-28T19:07:58Z</time>
  <course>153.36</course>
  <speed>0.01</speed>
  <fix>3d</fix>
</trkpt>
<trkpt lat="40.0728449" lon="-105.2305756">
  <ele>1656.96</ele>
  <time>2026-08-28T19:07:58Z</time>
  <course>284.82</course>
  <speed>0.0</speed>
  <fix>3d</fix>
</trkpt>
<trkpt lat="40.072845" lon="-105.2305757">
  <ele>1656.48</ele>
  <time>2026-08-28T19:07:58Z</time>
  <course>153.35</course>
  <speed>0.01</speed>
  <fix>3d</fix>
</trkpt>
<trkpt lat="40.0728449" lon="-105.2305756">
  <ele>1656.66</ele>
  <time>2026-08-28T19:07:58Z</time>
  <course>283.76</course>
  <speed>0.0</speed>
  <fix>3d</fix>
</trkpt>
<trkpt lat="40.072845" lon="-105.2305757">
  <ele>1656.18</ele>
  <time>2026-08-28T19:07:58Z</time>
  <course>153.36</course>
  <speed>0.01</speed>
  <fix>3d</fix>
</trkpt>
<trkpt lat="40.0728449" lon="-105.2305756">
  <ele>1656.35</ele>
  <time>2026-08-28T19:07:58Z</time>
  <course>284.15</course>
  <speed>0.0</speed>
  <fix>3d</fix>
</trkpt>
<trkpt lat="40.072845" lon="-105.2305757">
  <ele>1655.88</ele>
  <time>2026-08-28T19:07:59Z</time>
  <course>153.36</course>
  <speed>0.01</speed>
  <fix>3d</fix>
</trkpt>
<trkpt lat="40.0728449" lon="-105.2305756">
  <ele>1656.05</ele>
  <time>2026-08-28T19:07:59Z</time>
  <course>286.94</course>
  <speed>0.0</speed>
  <fix>3d</fix>
</trkpt>
<trkpt lat="40.072845" lon="-105.2305757">
  <ele>1655.58</ele>
  <time>2026-08-28T19:07:59Z</time>
  <course>153.33</course>
  <speed>0.01</speed>
  <fix>3d</fix>
</trkpt>
<trkpt lat="40.0728449" lon="-105.2305756">
  <ele>1655.75</ele>
  <time>2026-08-28T19:07:59Z</time>
  <course>283.18</course>
  <speed>0.0</speed>
  <fix>3d</fix>
</trkpt>
<trkpt lat="40.072845" lon="-105.2305757">
  <ele>1655.28</ele>
  <time>2026-08-28T19:07:59Z</time>
  <course>153.32</course>
  <speed>0.01</speed>
  <fix>3d</fix>
</trkpt>
<trkpt lat="40.0728449" lon="-105.2305756">
  <ele>1655.45</ele>
  <time>2026-08-28T19:07:59Z</time>
  <course>275.84</course>
  <speed>0.0</speed>
  <fix>3d</fix>
</trkpt>
<trkpt lat="40.072845" lon="-105.2305757">
  <ele>1654.98</ele>
  <time>2026-08-28T19:07:59Z</time>
  <course>153.32</course>
  <speed>0.01</speed>
  <fix>3d</fix>
</trkpt>
<trkpt lat="40.0728449" lon="-105.2305756">
  <ele>1655.14</ele>
  <time>2026-08-28T19:07:59Z</time>
  <course>273.31</course>
  <speed>0.0</speed>
  <fix>3d</fix>
</trkpt>
<trkpt lat="40.072845" lon="-105.2305757">
  <ele>1654.67</ele>
  <time>2026-08-28T19:07:59Z</time>
  <course>153.31</course>
  <speed>0.01</speed>
  <fix>3d</fix>
</trkpt>
<trkpt lat="40.0728449" lon="-105.2305756">
  <ele>1654.84</ele>
  <time>2026-08-28T19:07:59Z</time>
  <course>273.23</course>
  <speed>0.0</speed>
  <fix>3d</fix>
</trkpt>
<trkpt lat="40.072845" lon="-105.2305757">
  <ele>1654.36</ele>
  <time>2026-08-28T19:07:59Z</time>
  <course>153.29</course>
  <speed>0.01</speed>
  <fix>3d</fix>
</trkpt>
<trkpt lat="40.0728449" lon="-105.2305756">
  <ele>1654.54</ele>
  <time>2026-08-28T19:07:59Z</time>
  <course>275.86</course>
  <speed>0.0</speed>
  <fix>3d</fix>
</trkpt>
<trkpt lat="40.072845" lon="-105.2305757">
  <ele>1654.05</ele>
  <time>2026-08-28T19:07:59Z</time>
  <course>153.29</course>
  <speed>0.01</speed>
  <fix>3d</fix>
</trkpt>
<trkpt lat="40.0728449" lon="-105.2305756">
  <ele>1654.24</ele>
  <time>2026-08-28T19:07:59Z</time>
  <course>279.76</course>
  <speed>0.0</speed>
  <fix>3d</fix>
</trkpt>
<trkpt lat="40.072845" lon="-105.2305757">
  <ele>1653.75</ele>
  <time>2026-08-28T19:07:59Z</time>
  <course>153.27</course>
  <speed>0.01</speed>
  <fix>3d</fix>
</trkpt>
<trkpt lat="40.0728449" lon="-105.2305756">
  <ele>1653.94</ele>
  <time>2026-08-28T19:07:59Z</time>
  <course>279.13</course>
  <speed>0.0</speed>
  <fix>3d</fix>
</trkpt>
<trkpt lat="40.072845" lon="-105.2305757">
  <ele>1653.46</ele>
  <time>2026-08-28T19:07:59Z</time>
  <course>153.27</course>
  <speed>0.01</speed>
  <fix>3d</fix>
</trkpt>
<trkpt lat="40.0728449" lon="-105.2305756">
  <ele>1653.64</ele>
  <time>2026-08-28T19:07:59Z</time>
  <course>281.05</course>
  <speed>0.0</speed>
  <fix>3d</fix>
</trkpt>
<trkpt lat="40.072845" lon="-105.2305757">
  <ele>1653.16</ele>
  <time>2026-08-28T19:07:59Z</time>
  <course>153.25</course>
  <speed>0.01</speed>
  <fix>3d</fix>
</trkpt>
<trkpt lat="40.0728449" lon="-105.2305756">
  <ele>1653.34</ele>
  <time>2026-08-28T19:07:59Z</time>
  <course>283.81</course>
  <speed>0.0</speed>
  <fix>3d</fix>
</trkpt>
<trkpt lat="40.072845" lon="-105.2305757">
  <ele>1652.86</ele>
  <time>2026-08-28T19:07:59Z</time>
  <course>153.26</course>
  <speed>0.01</speed>
  <fix>3d</fix>
</trkpt>
<trkpt lat="40.0728449" lon="-105.2305756">
  <ele>1653.05</ele>
  <time>2026-08-28T19:07:59Z</time>
  <course>287.6</course>
  <speed>0.0</speed>
  <fix>3d</fix>
</trkpt>
<trkpt lat="40.072845" lon="-105.2305757">
  <ele>1652.57</ele>
  <time>2026-08-28T19:07:59Z</time>
  <course>153.24</course>
  <speed>0.01</speed>
  <fix>3d</fix>
</trkpt>
<trkpt lat="40.0728449" lon="-105.2305756">
  <ele>1652.75</ele>
  <time>2026-08-28T19:07:59Z</time>
  <course>292.89</course>
  <speed>0.0</speed>
  <fix>3d</fix>
</trkpt>
<trkpt lat="40.072845" lon="-105.2305757">
  <ele>1652.27</ele>
  <time>2026-08-28T19:07:59Z</time>
  <course>153.26</course>
  <speed>0.01</speed>
  <fix>3d</fix>
</trkpt>
<trkpt lat="40.0728449" lon="-105.2305756">
  <ele>1652.45</ele>
  <time>2026-08-28T19:07:59Z</time>
  <course>299.43</course>
  <speed>0.0</speed>
  <fix>3d</fix>
</trkpt>
<trkpt lat="40.072845" lon="-105.2305757">
  <ele>1651.97</ele>
  <time>2026-08-28T19:07:59Z</time>
  <course>153.26</course>
  <speed>0.01</speed>
  <fix>3d</fix>
</trkpt>
<trkpt lat="40.0728449" lon="-105.2305756">
  <ele>1652.16</ele>
  <time>2026-08-28T19:07:59Z</time>
  <course>311.16</course>
  <speed>0.0</speed>
  <fix>3d</fix>
</trkpt>
<trkpt lat="40.072845" lon="-105.2305757">
  <ele>1651.67</ele>
  <time>2026-08-28T19:07:59Z</time>
  <course>153.26</course>
  <speed>0.01</speed>
  <fix>3d</fix>
</trkpt>
<trkpt lat="40.0728449" lon="-105.2305756">
  <ele>1651.86</ele>
  <time>2026-08-28T19:07:59Z</time>
  <course>316.4</course>
  <speed>0.0</speed>
  <fix>3d</fix>
</trkpt>
<trkpt lat="40.072845" lon="-105.2305757">
  <ele>1651.37</ele>
  <time>2026-08-28T19:07:59Z</time>
  <course>153.25</course>
  <speed>0.01</speed>
  <fix>3d</fix>
</trkpt>
<trkpt lat="40.0728449" lon="-105.2305756">
  <ele>1651.56</ele>
  <time>2026-08-28T19:07:59Z</time>
  <course>317.65</course>
  <speed>0.0</speed>
  <fix>3d</fix>
</trkpt>
<trkpt lat="40.072845" lon="-105.2305757">
  <ele>1651.07</ele>
  <time>2026-08-28T19:07:59Z</time>
  <course>153.25</course>
  <speed>0.01</speed>
  <fix>3d</fix>
</trkpt>
<trkpt lat="40.0728449" lon="-105.2305756">
  <ele>1651.26</ele>
  <time>2026-08-28T19:07:59Z</time>
  <course>314.73</course>
  <speed>0.0</speed>
  <fix>3d</fix>
</trkpt>
<trkpt lat="40.072845" lon="-105.2305757">
  <ele>1650.77</ele>
  <time>2026-08-28T19:07:59Z</time>
  <course>153.24</course>
  <speed>0.01</speed>
  <fix>3d</fix>
</trkpt>
<trkpt lat="40.0728449" lon="-105.2305756">
  <ele>1650.96</ele>
  <time>2026-08-28T19:07:59Z</time>
  <course>311.17</course>
  <speed>0.0</speed>
  <fix>3d</fix>
</trkpt>
<trkpt lat="40.072845" lon="-105.2305757">
  <ele>1650.46</ele>
  <time>2026-08-28T19:07:59Z</time>
  <course>153.22</course>
  <speed>0.01</speed>
  <fix>3d</fix>
</trkpt>
<trkpt lat="40.0728449" lon="-105.2305756">
  <ele>1650.66</ele>
  <time>2026-08-28T19:07:59Z</time>
  <course>311.71</course>
  <speed>0.0</speed>
  <fix>3d</fix>
</trkpt>
<trkpt lat="40.072845" lon="-105.2305757">
  <ele>1650.16</ele>
  <time>2026-08-28T19:07:59Z</time>
  <course>153.21</course>
  <speed>0.01</speed>
  <fix>3d</fix>
</trkpt>
<trkpt lat="40.0728449" lon="-105.2305756">
  <ele>1650.36</ele>
  <time>2026-08-28T19:07:59Z</time>
  <course>308.61</course>
  <speed>0.0</speed>
  <fix>3d</fix>
</trkpt>
<trkpt lat="40.072845" lon="-105.2305757">
  <ele>1649.86</ele>
  <time>2026-08-28T19:07:59Z</time>
  <course>153.21</course>
  <speed>0.01</speed>
  <fix>3d</fix>
</trkpt>
<trkpt lat="40.0728449" lon="-105.2305756">
  <ele>1650.07</ele>
  <time>2026-08-28T19:07:59Z</time>
  <course>305.35</course>
  <speed>0.0</speed>
  <fix>3d</fix>
</trkpt>
<trkpt lat="40.072845" lon="-105.2305757">
  <ele>1649.57</ele>
  <time>2026-08-28T19:07:59Z</time>
  <course>153.2</course>
  <speed>0.01</speed>
  <fix>3d</fix>
</trkpt>
<trkpt lat="40.0728449" lon="-105.2305756">
  <ele>1649.77</ele>
  <time>2026-08-28T19:07:59Z</time>
  <course>304.72</course>
  <speed>0.0</speed>
  <fix>3d</fix>
</trkpt>
<trkpt lat="40.072845" lon="-105.2305757">
  <ele>1649.27</ele>
  <time>2026-08-28T19:07:59Z</time>
  <course>153.2</course>
  <speed>0.01</speed>
  <fix>3d</fix>
</trkpt>
<trkpt lat="40.0728449" lon="-105.2305756">
  <ele>1649.47</ele>
  <time>2026-08-28T19:07:59Z</time>
  <course>304.94</course>
  <speed>0.0</speed>
  <fix>3d</fix>
</trkpt>
<trkpt lat="40.072845" lon="-105.2305757">
  <ele>1648.97</ele>
  <time>2026-08-28T19:07:59Z</time>
  <course>153.21</course>
  <speed>0.01</speed>
  <fix>3d</fix>
</trkpt>
<trkpt lat="40.0728449" lon="-105.2305756">
  <ele>1649.16</ele>
  <time>2026-08-28T19:07:59Z</time>
  <course>311.16</course>
  <speed>0.0</speed>
  <fix>3d</fix>
</trkpt>
<trkpt lat="40.072845" lon="-105.2305757">
  <ele>1648.68</ele>
  <time>2026-08-28T19:07:59Z</time>
  <course>153.22</course>
  <speed>0.01</speed>
  <fix>3d</fix>
</trkpt>
<trkpt lat="40.0728449" lon="-105.2305756">
  <ele>1648.87</ele>
  <time>2026-08-28T19:07:59Z</time>
  <course>314.43</course>
  <speed>0.0</speed>
  <fix>3d</fix>
</trkpt>
<trkpt lat="40.072845" lon="-105.2305757">
  <ele>1648.38</ele>
  <time>2026-08-28T19:07:59Z</time>
  <course>153.22</course>
  <speed>0.01</speed>
  <fix>3d</fix>
</trkpt>
<trkpt lat="40.0728449" lon="-105.2305756">
  <ele>1648.58</ele>
  <time>2026-08-28T19:07:59Z</time>
  <course>310.46</course>
  <speed>0.0</speed>
  <fix>3d</fix>
</trkpt>
<trkpt lat="40.072845" lon="-105.2305757">
  <ele>1648.07</ele>
  <time>2026-08-28T19:07:59Z</time>
  <course>153.2</course>
  <speed>0.01</speed>
  <fix>3d</fix>
</trkpt>
<trkpt lat="40.0728449" lon="-105.2305756">
  <ele>1648.28</ele>
  <time>2026-08-28T19:07:59Z</time>
  <course>303.93</course>
  <speed>0.0</speed>
  <fix>3d</fix>
</trkpt>
<trkpt lat="40.072845" lon="-105.2305757">
  <ele>1647.77</ele>
  <time>2026-08-28T19:07:59Z</time>
  <course>153.18</course>
  <speed>0.01</speed>
  <fix>3d</fix>
</trkpt>
<trkpt lat="40.0728449" lon="-105.2305756">
  <ele>1647.98</ele>
  <time>2026-08-28T19:07:59Z</time>
  <course>298.64</course>
  <speed>0.0</speed>
  <fix>3d</fix>
</trkpt>
<trkpt lat="40.072845" lon="-105.2305757">
  <ele>1647.47</ele>
  <time>2026-08-28T19:07:59Z</time>
  <course>153.18</course>
  <speed>0.01</speed>
  <fix>3d</fix>
</trkpt>
<trkpt lat="40.0728449" lon="-105.2305757">
  <ele>1647.67</ele>
  <time>2026-08-28T19:07:59Z</time>
  <course>297.07</course>
  <speed>0.0</speed>
  <fix>3d</fix>
</trkpt>
<trkpt lat="40.072845" lon="-105.2305757">
  <ele>1647.17</ele>
  <time>2026-08-28T19:07:59Z</time>
  <course>153.18</course>
  <speed>0.01</speed>
  <fix>3d</fix>
</trkpt>
<trkpt lat="40.0728449" lon="-105.2305758">
  <ele>1647.38</ele>
  <time>2026-08-28T19:07:59Z</time>
  <course>300.22</course>
  <speed>0.0</speed>
  <fix>3d</fix>
</trkpt>
<trkpt lat="40.072845" lon="-105.2305758">
  <ele>1646.87</ele>
  <time>2026-08-28T19:07:59Z</time>
  <course>153.18</course>
  <speed>0.01</speed>
  <fix>3d</fix>
</trkpt>
<trkpt lat="40.0728449" lon="-105.2305758">
  <ele>1647.08</ele>
  <time>2026-08-28T19:07:59Z</time>
  <course>299.65</course>
  <speed>0.0</speed>
  <fix>3d</fix>
</trkpt>
<trkpt lat="40.072845" lon="-105.2305758">
  <ele>1646.57</ele>
  <time>2026-08-28T19:07:59Z</time>
  <course>153.17</course>
  <speed>0.01</speed>
  <fix>3d</fix>
</trkpt>
<trkpt lat="40.0728449" lon="-105.2305758">
  <ele>1646.78</ele>
  <time>2026-08-28T19:07:59Z</time>
  <course>295.82</course>
  <speed>0.0</speed>
  <fix>3d</fix>
</trkpt>
<trkpt lat="40.072845" lon="-105.2305758">
  <ele>1646.27</ele>
  <time>2026-08-28T19:07:59Z</time>
  <course>153.17</course>
  <speed>0.01</speed>
  <fix>3d</fix>
</trkpt>
<trkpt lat="40.0728449" lon="-105.2305758">
  <ele>1646.48</ele>
  <time>2026-08-28T19:07:59Z</time>
  <course>305.63</course>
  <speed>0.0</speed>
  <fix>3d</fix>
</trkpt>
<trkpt lat="40.072845" lon="-105.2305758">
  <ele>1645.97</ele>
  <time>2026-08-28T19:07:59Z</time>
  <course>153.17</course>
  <speed>0.01</speed>
  <fix>3d</fix>
</trkpt>
<trkpt lat="40.0728449" lon="-105.2305758">
  <ele>1646.17</ele>
  <time>2026-08-28T19:07:59Z</time>
  <course>0.77</course>
  <speed>0.0</speed>
  <fix>3d</fix>
</trkpt>
<trkpt lat="40.072845" lon="-105.2305758">
  <ele>1645.68</ele>
  <time>2026-08-28T19:07:59Z</time>
  <course>153.17</course>
  <speed>0.01</speed>
  <fix>3d</fix>
</trkpt>
<trkpt lat="40.0728449" lon="-105.2305758">
  <ele>1645.88</ele>
  <time>2026-08-28T19:07:59Z</time>
  <course>49.72</course>
  <speed>0.0</speed>
  <fix>3d</fix>
</trkpt>
<trkpt lat="40.072845" lon="-105.2305758">
  <ele>1645.38</ele>
  <time>2026-08-28T19:07:59Z</time>
  <course>153.18</course>
  <speed>0.01</speed>
  <fix>3d</fix>
</trkpt>
<trkpt lat="40.0728449" lon="-105.2305758">
  <ele>1645.58</ele>
  <time>2026-08-28T19:07:59Z</time>
  <course>65.81</course>
  <speed>0.0</speed>
  <fix>3d</fix>
</trkpt>
<trkpt lat="40.072845" lon="-105.2305758">
  <ele>1645.08</ele>
  <time>2026-08-28T19:07:59Z</time>
  <course>153.16</course>
  <speed>0.01</speed>
  <fix>3d</fix>
</trkpt>
<trkpt lat="40.0728449" lon="-105.2305758">
  <ele>1645.28</ele>
  <time>2026-08-28T19:07:59Z</time>
  <course>73.02</course>
  <speed>0.0</speed>
  <fix>3d</fix>
</trkpt>
<trkpt lat="40.072845" lon="-105.2305758">
  <ele>1644.78</ele>
  <time>2026-08-28T19:07:59Z</time>
  <course>153.16</course>
  <speed>0.01</speed>
  <fix>3d</fix>
</trkpt>
<trkpt lat="40.0728449" lon="-105.2305758">
  <ele>1644.98</ele>
  <time>2026-08-28T19:07:59Z</time>
  <course>78.13</course>
  <speed>0.0</speed>
  <fix>3d</fix>
</trkpt>
<trkpt lat="40.072845" lon="-105.2305758">
  <ele>1644.48</ele>
  <time>2026-08-28T19:07:59Z</time>
  <course>153.15</course>
  <speed>0.01</speed>
  <fix>3d</fix>
</trkpt>
<trkpt lat="40.0728449" lon="-105.2305758">
  <ele>1644.69</ele>
  <time>2026-08-28T19:07:59Z</time>
  <course>82.09</course>
  <speed>0.0</speed>
  <fix>3d</fix>
</trkpt>
<trkpt lat="40.072845" lon="-105.2305758">
  <ele>1644.18</ele>
  <time>2026-08-28T19:07:59Z</time>
  <course>153.16</course>
  <speed>0.01</speed>
  <fix>3d</fix>
</trkpt>
<trkpt lat="40.0728449" lon="-105.2305758">
  <ele>1644.39</ele>
  <time>2026-08-28T19:07:59Z</time>
  <course>84.04</course>
  <speed>0.0</speed>
  <fix>3d</fix>
</trkpt>
<trkpt lat="40.072845" lon="-105.2305758">
  <ele>1643.88</ele>
  <time>2026-08-28T19:07:59Z</time>
  <course>153.17</course>
  <speed>0.01</speed>
  <fix>3d</fix>
</trkpt>
<trkpt lat="40.0728449" lon="-105.2305758">
  <ele>1644.08</ele>
  <time>2026-08-28T19:07:59Z</time>
  <course>84.24</course>
  <speed>0.0</speed>
  <fix>3d</fix>
</trkpt>
<trkpt lat="40.072845" lon="-105.2305758">
  <ele>1643.58</ele>
  <time>2026-08-28T19:07:59Z</time>
  <course>153.16</course>
  <speed>0.01</speed>
  <fix>3d</fix>
</trkpt>
<trkpt lat="40.0728449" lon="-105.2305758">
  <ele>1643.78</ele>
  <time>2026-08-28T19:07:59Z</time>
  <course>84.56</course>
  <speed>0.0</speed>
  <fix>3d</fix>
</trkpt>
<trkpt lat="40.072845" lon="-105.2305758">
  <ele>1643.28</ele>
  <time>2026-08-28T19:07:59Z</time>
  <course>153.15</course>
  <speed>0.01</speed>
  <fix>3d</fix>
</trkpt>
<trkpt lat="40.0728449" lon="-105.2305758">
  <ele>1643.48</ele>
  <time>2026-08-28T19:07:59Z</time>
  <course>85.65</course>
  <speed>0.0</speed>
  <fix>3d</fix>
</trkpt>
<trkpt lat="40.072845" lon="-105.2305758">
  <ele>1642.99</ele>
  <time>2026-08-28T19:07:59Z</time>
  <course>153.14</course>
  <speed>0.01</speed>
  <fix>3d</fix>
</trkpt>
<trkpt lat="40.0728449" lon="-105.2305757">
  <ele>1643.17</ele>
  <time>2026-08-28T19:07:59Z</time>
  <course>86.51</course>
  <speed>0.0</speed>
  <fix>3d</fix>
</trkpt>
<trkpt lat="40.072845" lon="-105.2305758">
  <ele>1642.69</ele>
  <time>2026-08-28T19:07:59Z</time>
  <course>153.16</course>
  <speed>0.01</speed>
  <fix>3d</fix>
</trkpt>
<trkpt lat="40.0728449" lon="-105.2305756">
  <ele>1642.88</ele>
  <time>2026-08-28T19:07:59Z</time>
  <course>86.94</course>
  <speed>0.0</speed>
  <fix>3d</fix>
</trkpt>
<trkpt lat="40.072845" lon="-105.2305758">
  <ele>1642.39</ele>
  <time>2026-08-28T19:07:59Z</time>
  <course>153.16</course>
  <speed>0.01</speed>
  <fix>3d</fix>
</trkpt>
<trkpt lat="40.0728449" lon="-105.2305756">
  <ele>1642.58</ele>
  <time>2026-08-28T19:07:59Z</time>
  <course>87.19</course>
  <speed>0.0</speed>
  <fix>3d</fix>
</trkpt>
<trkpt lat="40.072845" lon="-105.2305758">
  <ele>1642.09</ele>
  <time>2026-08-28T19:07:59Z</time>
  <course>153.15</course>
  <speed>0.01</speed>
  <fix>3d</fix>
</trkpt>
<trkpt lat="40.0728449" lon="-105.2305756">
  <ele>1642.27</ele>
  <time>2026-08-28T19:07:59Z</time>
  <course>87.47</course>
  <speed>0.0</speed>
  <fix>3d</fix>
</trkpt>
<trkpt lat="40.072845" lon="-105.2305758">
  <ele>1641.78</ele>
  <time>2026-08-28T19:07:59Z</time>
  <course>153.15</course>
  <speed>0.01</speed>
  <fix>3d</fix>
</trkpt>
<trkpt lat="40.0728449" lon="-105.2305756">
  <ele>1641.97</ele>
  <time>2026-08-28T19:07:59Z</time>
  <course>86.72</course>
  <speed>0.0</speed>
  <fix>3d</fix>
</trkpt>
<trkpt lat="40.072845" lon="-105.2305758">
  <ele>1641.48</ele>
  <time>2026-08-28T19:07:59Z</time>
  <course>153.13</course>
  <speed>0.01</speed>
  <fix>3d</fix>
</trkpt>
<trkpt lat="40.0728449" lon="-105.2305756">
  <ele>1641.66</ele>
  <time>2026-08-28T19:07:59Z</time>
  <course>83.76</course>
  <speed>0.0</speed>
  <fix>3d</fix>
</trkpt>
<trkpt lat="40.072845" lon="-105.2305758">
  <ele>1641.17</ele>
  <time>2026-08-28T19:07:59Z</time>
  <course>153.12</course>
  <speed>0.01</speed>
  <fix>3d</fix>
</trkpt>
<trkpt lat="40.0728449" lon="-105.2305756">
  <ele>1641.36</ele>
  <time>2026-08-28T19:07:59Z</time>
  <course>79.78</course>
  <speed>0.0</speed>
  <fix>3d</fix>
</trkpt>
<trkpt lat="40.072845" lon="-105.2305758">
  <ele>1640.87</ele>
  <time>2026-08-28T19:07:59Z</time>
  <course>153.12</course>
  <speed>0.01</speed>
  <fix>3d</fix>
</trkpt>
<trkpt lat="40.0728449" lon="-105.2305756">
  <ele>1641.06</ele>
  <time>2026-08-28T19:07:59Z</time>
  <course>74.09</course>
  <speed>0.0</speed>
  <fix>3d</fix>
</trkpt>
<trkpt lat="40.072845" lon="-105.2305758">
  <ele>1640.57</ele>
  <time>2026-08-28T19:07:59Z</time>
  <course>153.13</course>
  <speed>0.01</speed>
  <fix>3d</fix>
</trkpt>
<trkpt lat="40.0728449" lon="-105.2305756">
  <ele>1640.76</ele>
  <time>2026-08-28T19:07:59Z</time>
  <course>65.92</course>
  <speed>0.0</speed>
  <fix>3d</fix>
</trkpt>
<trkpt lat="40.072845" lon="-105.2305758">
  <ele>1640.27</ele>
  <time>2026-08-28T19:07:59Z</time>
  <course>153.1</course>
  <speed>0.01</speed>
  <fix>3d</fix>
</trkpt>
<trkpt lat="40.0728449" lon="-105.2305756">
  <ele>1640.46</ele>
  <time>2026-08-28T19:07:59Z</time>
  <course>58.66</course>
  <speed>0.0</speed>
  <fix>3d</fix>
</trkpt>
<trkpt lat="40.072845" lon="-105.2305758">
  <ele>1639.97</ele>
  <time>2026-08-28T19:07:59Z</time>
  <course>153.11</course>
  <speed>0.01</speed>
  <fix>3d</fix>
</trkpt>
<trkpt lat="40.0728449" lon="-105.2305756">
  <ele>1640.16</ele>
  <time>2026-08-28T19:07:59Z</time>
  <course>50.75</course>
  <speed>0.0</speed>
  <fix>3d</fix>
</trkpt>
<trkpt lat="40.072845" lon="-105.2305758">
  <ele>1639.66</ele>
  <time>2026-08-28T19:07:59Z</time>
  <course>153.11</course>
  <speed>0.01</speed>
  <fix>3d</fix>
</trkpt>
<trkpt lat="40.0728449" lon="-105.2305756">
  <ele>1639.86</ele>
  <time>2026-08-28T19:07:59Z</time>
  <course>41.56</course>
  <speed>0.0</speed>
  <fix>3d</fix>
</trkpt>
<trkpt lat="40.072845" lon="-105.2305758">
  <ele>1639.36</ele>
  <time>2026-08-28T19:07:59Z</time>
  <course>153.1</course>
  <speed>0.01</speed>
  <fix>3d</fix>
</trkpt>
<trkpt lat="40.0728449" lon="-105.2305756">
  <ele>1639.56</ele>
  <time>2026-08-28T19:07:59Z</time>
  <course>33.74</course>
  <speed>0.0</speed>
  <fix>3d</fix>
</trkpt>
<trkpt lat="40.072845" lon="-105.2305758">
  <ele>1639.06</ele>
  <time>2026-08-28T19:07:59Z</time>
  <course>153.11</course>
  <speed>0.01</speed>
  <fix>3d</fix>
</trkpt>
<trkpt lat="40.0728449" lon="-105.2305756">
  <ele>1639.26</ele>
  <time>2026-08-28T19:07:59Z</time>
  <course>31.43</course>
  <speed>0.0</speed>
  <fix>3d</fix>
</trkpt>
<trkpt lat="40.072845" lon="-105.2305758">
  <ele>1638.76</ele>
  <time>2026-08-28T19:07:59Z</time>
  <course>153.09</course>
  <speed>0.01</speed>
  <fix>3d</fix>
</trkpt>
<trkpt lat="40.0728449" lon="-105.2305756">
  <ele>1638.96</ele>
  <time>2026-08-28T19:07:59Z</time>
  <course>28.66</course>
  <speed>0.0</speed>
  <fix>3d</fix>
</trkpt>
<trkpt lat="40.072845" lon="-105.2305758">
  <ele>1638.46</ele>
  <time>2026-08-28T19:07:59Z</time>
  <course>153.1</course>
  <speed>0.01</speed>
  <fix>3d</fix>
</trkpt>
<trkpt lat="40.0728449" lon="-105.2305756">
  <ele>1638.66</ele>
  <time>2026-08-28T19:07:59Z</time>
  <course>23.56</course>
  <speed>0.0</speed>
  <fix>3d</fix>
</trkpt>
<trkpt lat="40.072845" lon="-105.2305758">
  <ele>1638.16</ele>
  <time>2026-08-28T19:07:59Z</time>
  <course>153.08</course>
  <speed>0.01</speed>
  <fix>3d</fix>
</trkpt>
<trkpt lat="40.0728449" lon="-105.2305756">
  <ele>1638.37</ele>
  <time>2026-08-28T19:07:59Z</time>
  <course>18.64</course>
  <speed>0.0</speed>
  <fix>3d</fix>
</trkpt>
<trkpt lat="40.072845" lon="-105.2305758">
  <ele>1637.86</ele>
  <time>2026-08-28T19:07:59Z</time>
  <course>153.09</course>
  <speed>0.01</speed>
  <fix>3d</fix>
</trkpt>
<trkpt lat="40.0728449" lon="-105.2305756">
  <ele>1638.07</ele>
  <time>2026-08-28T19:07:59Z</time>
  <course>4.96</course>
  <speed>0.0</speed>
  <fix>3d</fix>
</trkpt>
<trkpt lat="40.072845" lon="-105.2305758">
  <ele>1637.57</ele>
  <time>2026-08-28T19:07:59Z</time>
  <course>153.08</course>
  <speed>0.01</speed>
  <fix>3d</fix>
</trkpt>
<trkpt lat="40.0728449" lon="-105.2305756">
  <ele>1637.78</ele>
  <time>2026-08-28T19:07:59Z</time>
  <course>350.93</course>
  <speed>0.0</speed>
  <fix>3d</fix>
</trkpt>
<trkpt lat="40.072845" lon="-105.2305758">
  <ele>1637.28</ele>
  <time>2026-08-28T19:07:59Z</time>
  <course>153.09</course>
  <speed>0.01</speed>
  <fix>3d</fix>
</trkpt>
<trkpt lat="40.0728449" lon="-105.2305756">
  <ele>1637.48</ele>
  <time>2026-08-28T19:07:59Z</time>
  <course>330.39</course>
  <speed>0.0</speed>
  <fix>3d</fix>
</trkpt>
<trkpt lat="40.072845" lon="-105.2305758">
  <ele>1636.97</ele>
  <time>2026-08-28T19:07:59Z</time>
  <course>153.09</course>
  <speed>0.01</speed>
  <fix>3d</fix>
</trkpt>
<trkpt lat="40.0728449" lon="-105.2305756">
  <ele>1637.18</ele>
  <time>2026-08-28T19:07:59Z</time>
  <course>320.13</course>
  <speed>0.0</speed>
  <fix>3d</fix>
</trkpt>
<trkpt lat="40.072845" lon="-105.2305758">
  <ele>1636.68</ele>
  <time>2026-08-28T19:07:59Z</time>
  <course>153.09</course>
  <speed>0.01</speed>
  <fix>3d</fix>
</trkpt>
<trkpt lat="40.0728449" lon="-105.2305756">
  <ele>1636.89</ele>
  <time>2026-08-28T19:07:59Z</time>
  <course>329.89</course>
  <speed>0.0</speed>
  <fix>3d</fix>
</trkpt>
<trkpt lat="40.072845" lon="-105.2305758">
  <ele>1636.38</ele>
  <time>2026-08-28T19:07:59Z</time>
  <course>153.1</course>
  <speed>0.01</speed>
  <fix>3d</fix>
</trkpt>
<trkpt lat="40.0728449" lon="-105.2305756">
  <ele>1636.59</ele>
  <time>2026-08-28T19:07:59Z</time>
  <course>333.9</course>
  <speed>0.0</speed>
  <fix>3d</fix>
</trkpt>
<trkpt lat="40.072845" lon="-105.2305758">
  <ele>1636.08</ele>
  <time>2026-08-28T19:07:59Z</time>
  <course>153.1</course>
  <speed>0.01</speed>
  <fix>3d</fix>
</trkpt>
<trkpt lat="40.0728449" lon="-105.2305756">
  <ele>1636.29</ele>
  <time>2026-08-28T19:07:59Z</time>
  <course>331.57</course>
  <speed>0.0</speed>
  <fix>3d</fix>
</trkpt>
<trkpt lat="40.072845" lon="-105.2305758">
  <ele>1635.78</ele>
  <time>2026-08-28T19:07:59Z</time>
  <course>153.1</course>
  <speed>0.01</speed>
  <fix>3d</fix>
</trkpt>
<trkpt lat="40.0728449" lon="-105.2305756">
  <ele>1635.99</ele>
  <time>2026-08-28T19:07:59Z</time>
  <course>329.04</course>
  <speed>0.0</speed>
  <fix>3d</fix>
</trkpt>
<trkpt lat="40.072845" lon="-105.2305758">
  <ele>1635.47</ele>
  <time>2026-08-28T19:07:59Z</time>
  <course>153.08</course>
  <speed>0.01</speed>
  <fix>3d</fix>
</trkpt>
<trkpt lat="40.0728449" lon="-105.2305756">
  <ele>1635.69</ele>
  <time>2026-08-28T19:07:59Z</time>
  <course>325.78</course>
  <speed>0.0</speed>
  <fix>3d</fix>
</trkpt>
<trkpt lat="40.072845" lon="-105.2305758">
  <ele>1635.17</ele>
  <time>2026-08-28T19:07:59Z</time>
  <course>153.08</course>
  <speed>0.01</speed>
  <fix>3d</fix>
</trkpt>
<trkpt lat="40.0728449" lon="-105.2305756">
  <ele>1635.39</ele>
  <time>2026-08-28T19:07:59Z</time>
  <course>321.47</course>
  <speed>0.0</speed>
  <fix>3d</fix>
</trkpt>
<trkpt lat="40.072845" lon="-105.2305758">
  <ele>1634.87</ele>
  <time>2026-08-28T19:07:59Z</time>
  <course>153.08</course>
  <speed>0.01</speed>
  <fix>3d</fix>
</trkpt>
<trkpt lat="40.0728449" lon="-105.2305756">
  <ele>1635.09</ele>
  <time>2026-08-28T19:07:59Z</time>
  <course>318.38</course>
  <speed>0.0</speed>
  <fix>3d</fix>
</trkpt>
<trkpt lat="40.072845" lon="-105.2305758">
  <ele>1634.57</ele>
  <time>2026-08-28T19:07:59Z</time>
  <course>153.08</course>
  <speed>0.01</speed>
  <fix>3d</fix>
</trkpt>
<trkpt lat="40.0728449" lon="-105.2305756">
  <ele>1634.79</ele>
  <time>2026-08-28T19:07:59Z</time>
  <course>319.44</course>
  <speed>0.0</speed>
  <fix>3d</fix>
</trkpt>
<trkpt lat="40.072845" lon="-105.2305758">
  <ele>1634.28</ele>
  <time>2026-08-28T19:07:59Z</time>
  <course>153.07</course>
  <speed>0.01</speed>
  <fix>3d</fix>
</trkpt>
<trkpt lat="40.0728449" lon="-105.2305756">
  <ele>1634.49</ele>
  <time>2026-08-28T19:07:59Z</time>
  <course>321.45</course>
  <speed>0.0</speed>
  <fix>3d</fix>
</trkpt>
<trkpt lat="40.072845" lon="-105.2305758">
  <ele>1633.98</ele>
  <time>2026-08-28T19:07:59Z</time>
  <course>153.08</course>
  <speed>0.01</speed>
  <fix>3d</fix>
</trkpt>
<trkpt lat="40.0728449" lon="-105.2305756">
  <ele>1634.19</ele>
  <time>2026-08-28T19:07:59Z</time>
  <course>317.51</course>
  <speed>0.0</speed>
  <fix>3d</fix>
</trkpt>
<trkpt lat="40.072845" lon="-105.2305758">
  <ele>1633.68</ele>
  <time>2026-08-28T19:07:59Z</time>
  <course>153.08</course>
  <speed>0.01</speed>
  <fix>3d</fix>
</trkpt>
<trkpt lat="40.0728449" lon="-105.2305756">
  <ele>1633.89</ele>
  <time>2026-08-28T19:07:59Z</time>
  <course>312.56</course>
  <speed>0.0</speed>
  <fix>3d</fix>
</trkpt>
<trkpt lat="40.072845" lon="-105.2305758">
  <ele>1633.38</ele>
  <time>2026-08-28T19:07:59Z</time>
  <course>153.08</course>
  <speed>0.01</speed>
  <fix>3d</fix>
</trkpt>
<trkpt lat="40.0728449" lon="-105.2305756">
  <ele>1633.59</ele>
  <time>2026-08-28T19:07:59Z</time>
  <course>307.82</course>
  <speed>0.0</speed>
  <fix>3d</fix>
</trkpt>
<trkpt lat="40.072845" lon="-105.2305758">
  <ele>1633.07</ele>
  <time>2026-08-28T19:07:59Z</time>
  <course>153.08</course>
  <speed>0.01</speed>
  <fix>3d</fix>
</trkpt>
<trkpt lat="40.0728449" lon="-105.2305756">
  <ele>1633.29</ele>
  <time>2026-08-28T19:07:59Z</time>
  <course>303.59</course>
  <speed>0.0</speed>
  <fix>3d</fix>
</trkpt>
<trkpt lat="40.072845" lon="-105.2305758">
  <ele>1632.77</ele>
  <time>2026-08-28T19:07:59Z</time>
  <course>153.07</course>
  <speed>0.01</speed>
  <fix>3d</fix>
</trkpt>
<trkpt lat="40.0728449" lon="-105.2305756">
  <ele>1632.99</ele>
  <time>2026-08-28T19:07:59Z</time>
  <course>299.85</course>
  <speed>0.0</speed>
  <fix>3d</fix>
</trkpt>
<trkpt lat="40.072845" lon="-105.2305758">
  <ele>1632.47</ele>
  <time>2026-08-28T19:07:59Z</time>
  <course>153.05</course>
  <speed>0.01</speed>
  <fix>3d</fix>
</trkpt>
<trkpt lat="40.072845" lon="-105.2305756">
  <ele>1632.69</ele>
  <time>2026-08-28T19:07:59Z</time>
  <course>294.62</course>
  <speed>0.0</speed>
  <fix>3d</fix>
</trkpt>
<trkpt lat="40.072845" lon="-105.2305758">
  <ele>1632.17</ele>
  <time>2026-08-28T19:07:59Z</time>
  <course>153.07</course>
  <speed>0.01</speed>
  <fix>3d</fix>
</trkpt>
<trkpt lat="40.072845" lon="-105.2305756">
  <ele>1632.39</ele>
  <time>2026-08-28T19:07:59Z</time>
  <course>290.97</course>
  <speed>0.0</speed>
  <fix>3d</fix>
</trkpt>
<trkpt lat="40.072845" lon="-105.2305758">
  <ele>1631.87</ele>
  <time>2026-08-28T19:07:59Z</time>
  <course>153.07</course>
  <speed>0.01</speed>
  <fix>3d</fix>
</trkpt>
<trkpt lat="40.072845" lon="-105.2305756">
  <ele>1632.09</ele>
  <time>2026-08-28T19:07:59Z</time>
  <course>289.38</course>
  <speed>0.0</speed>
  <fix>3d</fix>
</trkpt>
<trkpt lat="40.072845" lon="-105.2305758">
  <ele>1631.57</ele>
  <time>2026-08-28T19:07:59Z</time>
  <course>153.06</course>
  <speed>0.01</speed>
  <fix>3d</fix>
</trkpt>
<trkpt lat="40.072845" lon="-105.2305756">
  <ele>1631.79</ele>
  <time>2026-08-28T19:07:59Z</time>
  <course>280.2</course>
  <speed>0.0</speed>
  <fix>3d</fix>
</trkpt>
<trkpt lat="40.072845" lon="-105.2305758">
  <ele>1631.28</ele>
  <time>2026-08-28T19:07:59Z</time>
  <course>153.07</course>
  <speed>0.01</speed>
  <fix>3d</fix>
</trkpt>
<trkpt lat="40.072845" lon="-105.2305756">
  <ele>1631.49</ele>
  <time>2026-08-28T19:07:59Z</time>
  <course>261.32</course>
  <speed>0.0</speed>
  <fix>3d</fix>
</trkpt>
<trkpt lat="40.072845" lon="-105.2305758">
  <ele>1630.98</ele>
  <time>2026-08-28T19:07:59Z</time>
  <course>153.07</course>
  <speed>0.01</speed>
  <fix>3d</fix>
</trkpt>
<trkpt lat="40.072845" lon="-105.2305756">
  <ele>1631.2</ele>
  <time>2026-08-28T19:07:59Z</time>
  <course>242.35</course>
  <speed>0.0</speed>
  <fix>3d</fix>
</trkpt>
<trkpt lat="40.072845" lon="-105.2305758">
  <ele>1630.68</ele>
  <time>2026-08-28T19:07:59Z</time>
  <course>153.07</course>
  <speed>0.01</speed>
  <fix>3d</fix>
</trkpt>
<trkpt lat="40.072845" lon="-105.2305756">
  <ele>1630.9</ele>
  <time>2026-08-28T19:07:59Z</time>
  <course>228.01</course>
  <speed>0.0</speed>
  <fix>3d</fix>
</trkpt>
<trkpt lat="40.072845" lon="-105.2305758">
  <ele>1630.38</ele>
  <time>2026-08-28T19:07:59Z</time>
  <course>153.08</course>
  <speed>0.01</speed>
  <fix>3d</fix>
</trkpt>
<trkpt lat="40.072845" lon="-105.2305756">
  <ele>1630.6</ele>
  <time>2026-08-28T19:07:59Z</time>
  <course>219.95</course>
  <speed>0.0</speed>
  <fix>3d</fix>
</trkpt>
<trkpt lat="40.072845" lon="-105.2305758">
  <ele>1630.08</ele>
  <time>2026-08-28T19:07:59Z</time>
  <course>153.08</course>
  <speed>0.01</speed>
  <fix>3d</fix>
</trkpt>
<trkpt lat="40.072845" lon="-105.2305756">
  <ele>1630.3</ele>
  <time>2026-08-28T19:07:59Z</time>
  <course>215.26</course>
  <speed>0.0</speed>
  <fix>3d</fix>
</trkpt>
<trkpt lat="40.072845" lon="-105.2305758">
  <ele>1629.79</ele>
  <time>2026-08-28T19:07:59Z</time>
  <course>153.07</course>
  <speed>0.01</speed>
  <fix>3d</fix>
</trkpt>
<trkpt lat="40.072845" lon="-105.2305756">
  <ele>1629.99</ele>
  <time>2026-08-28T19:07:59Z</time>
  <course>210.8</course>
  <speed>0.0</speed>
  <fix>3d</fix>
</trkpt>
<trkpt lat="40.072845" lon="-105.2305758">
  <ele>1629.49</ele>
  <time>2026-08-28T19:07:59Z</time>
  <course>153.08</course>
  <speed>0.01</speed>
  <fix>3d</fix>
</trkpt>
<trkpt lat="40.072845" lon="-105.2305756">
  <ele>1629.69</ele>
  <time>2026-08-28T19:07:59Z</time>
  <course>207.68</course>
  <speed>0.0</speed>
  <fix>3d</fix>
</trkpt>
<trkpt lat="40.072845" lon="-105.2305758">
  <ele>1629.19</ele>
  <time>2026-08-28T19:07:59Z</time>
  <course>153.07</course>
  <speed>0.01</speed>
  <fix>3d</fix>
</trkpt>
<trkpt lat="40.072845" lon="-105.2305756">
  <ele>1629.39</ele>
  <time>2026-08-28T19:07:59Z</time>
  <course>206.54</course>
  <speed>0.0</speed>
  <fix>3d</fix>
</trkpt>
<trkpt lat="40.072845" lon="-105.2305758">
  <ele>1628.89</ele>
  <time>2026-08-28T19:07:59Z</time>
  <course>153.06</course>
  <speed>0.01</speed>
  <fix>3d</fix>
</trkpt>
<trkpt lat="40.072845" lon="-105.2305756">
  <ele>1629.09</ele>
  <time>2026-08-28T19:07:59Z</time>
  <course>204.48</course>
  <speed>0.0</speed>
  <fix>3d</fix>
</trkpt>
<trkpt lat="40.072845" lon="-105.2305758">
  <ele>1628.59</ele>
  <time>2026-08-28T19:07:59Z</time>
  <course>153.06</course>
  <speed>0.01</speed>
  <fix>3d</fix>
</trkpt>
<trkpt lat="40.072845" lon="-105.2305756">
  <ele>1628.78</ele>
  <time>2026-08-28T19:07:59Z</time>
  <course>202.39</course>
  <speed>0.0</speed>
  <fix>3d</fix>
</trkpt>
<trkpt lat="40.072845" lon="-105.2305758">
  <ele>1628.29</ele>
  <time>2026-08-28T19:07:59Z</time>
  <course>153.06</course>
  <speed>0.01</speed>
  <fix>3d</fix>
</trkpt>
<trkpt lat="40.072845" lon="-105.2305756">
  <ele>1628.48</ele>
  <time>2026-08-28T19:07:59Z</time>
  <course>201.59</course>
  <speed>0.0</speed>
  <fix>3d</fix>
</trkpt>
<trkpt lat="40.072845" lon="-105.2305758">
  <ele>1627.98</ele>
  <time>2026-08-28T19:07:59Z</time>
  <course>153.06</course>
  <speed>0.01</speed>
  <fix>3d</fix>
</trkpt>
<trkpt lat="40.072845" lon="-105.2305756">
  <ele>1628.17</ele>
  <time>2026-08-28T19:07:59Z</time>
  <course>201.18</course>
  <speed>0.0</speed>
  <fix>3d</fix>
</trkpt>
<trkpt lat="40.072845" lon="-105.2305758">
  <ele>1627.68</ele>
  <time>2026-08-28T19:07:59Z</time>
  <course>153.06</course>
  <speed>0.01</speed>
  <fix>3d</fix>
</trkpt>
<trkpt lat="40.072845" lon="-105.2305756">
  <ele>1627.87</ele>
  <time>2026-08-28T19:07:59Z</time>
  <course>201.11</course>
  <speed>0.0</speed>
  <fix>3d</fix>
</trkpt>
<trkpt lat="40.072845" lon="-105.2305758">
  <ele>1627.38</ele>
  <time>2026-08-28T19:07:59Z</time>
  <course>153.05</course>
  <speed>0.01</speed>
  <fix>3d</fix>
</trkpt>
<trkpt lat="40.0728449" lon="-105.2305756">
  <ele>1627.57</ele>
  <time>2026-08-28T19:07:59Z</time>
  <course>199.46</course>
  <speed>0.0</speed>
  <fix>3d</fix>
</trkpt>
<trkpt lat="40.072845" lon="-105.2305758">
  <ele>1627.07</ele>
  <time>2026-08-28T19:07:59Z</time>
  <course>153.05</course>
  <speed>0.01</speed>
  <fix>3d</fix>
</trkpt>
<trkpt lat="40.0728449" lon="-105.2305756">
  <ele>1627.27</ele>
  <time>2026-08-28T19:07:59Z</time>
  <course>197.01</course>
  <speed>0.0</speed>
  <fix>3d</fix>
</trkpt>
<trkpt lat="40.072845" lon="-105.2305758">
  <ele>1626.77</ele>
  <time>2026-08-28T19:07:59Z</time>
  <course>153.04</course>
  <speed>0.01</speed>
  <fix>3d</fix>
</trkpt>
<trkpt lat="40.0728449" lon="-105.2305756">
  <ele>1626.97</ele>
  <time>2026-08-28T19:07:59Z</time>
  <course>195.3</course>
  <speed>0.0</speed>
  <fix>3d</fix>
</trkpt>
<trkpt lat="40.072845" lon="-105.2305758">
  <ele>1626.47</ele>
  <time>2026-08-28T19:07:59Z</time>
  <course>153.04</course>
  <speed>0.01</speed>
  <fix>3d</fix>
</trkpt>
<trkpt lat="40.0728449" lon="-105.2305756">
  <ele>1626.66</ele>
  <time>2026-08-28T19:07:59Z</time>
  <course>195.32</course>
  <speed>0.0</speed>
  <fix>3d</fix>
</trkpt>
<trkpt lat="40.072845" lon="-105.2305758">
  <ele>1626.17</ele>
  <time>2026-08-28T19:07:59Z</time>
  <course>153.04</course>
  <speed>0.01</speed>
  <fix>3d</fix>
</trkpt>
<trkpt lat="40.0728449" lon="-105.2305756">
  <ele>1626.37</ele>
  <time>2026-08-28T19:07:59Z</time>
  <course>197.21</course>
  <speed>0.0</speed>
  <fix>3d</fix>
</trkpt>
<trkpt lat="40.072845" lon="-105.2305758">
  <ele>1625.87</ele>
  <time>2026-08-28T19:07:59Z</time>
  <course>153.04</course>
  <speed>0.01</speed>
  <fix>3d</fix>
</trkpt>
<trkpt lat="40.0728449" lon="-105.2305756">
  <ele>1626.07</ele>
  <time>2026-08-28T19:07:59Z</time>
  <course>199.01</course>
  <speed>0.0</speed>
  <fix>3d</fix>
</trkpt>
<trkpt lat="40.072845" lon="-105.2305758">
  <ele>1625.56</ele>
  <time>2026-08-28T19:07:59Z</time>
  <course>153.05</course>
  <speed>0.01</speed>
  <fix>3d</fix>
</trkpt>
<trkpt lat="40.0728449" lon="-105.2305756">
  <ele>1625.77</ele>
  <time>2026-08-28T19:07:59Z</time>
  <course>200.56</course>
  <speed>0.0</speed>
  <fix>3d</fix>
</trkpt>
<trkpt lat="40.072845" lon="-105.2305758">
  <ele>1625.26</ele>
  <time>2026-08-28T19:07:59Z</time>
  <course>153.02</course>
  <speed>0.01</speed>
  <fix>3d</fix>
</trkpt>
<trkpt lat="40.0728449" lon="-105.2305756">
  <ele>1625.47</ele>
  <time>2026-08-28T19:07:59Z</time>
  <course>208.77</course>
  <speed>0.0</speed>
  <fix>3d</fix>
</trkpt>
<trkpt lat="40.072845" lon="-105.2305758">
  <ele>1624.97</ele>
  <time>2026-08-28T19:07:59Z</time>
  <course>153.04</course>
  <speed>0.01</speed>
  <fix>3d</fix>
</trkpt>
<trkpt lat="40.0728449" lon="-105.2305756">
  <ele>1625.16</ele>
  <time>2026-08-28T19:07:59Z</time>
  <course>226.46</course>
  <speed>0.0</speed>
  <fix>3d</fix>
</trkpt>
<trkpt lat="40.072845" lon="-105.2305758">
  <ele>1624.67</ele>
  <time>2026-08-28T19:07:59Z</time>
  <course>153.04</course>
  <speed>0.01</speed>
  <fix>3d</fix>
</trkpt>
<trkpt lat="40.0728449" lon="-105.2305756">
  <ele>1624.87</ele>
  <time>2026-08-28T19:07:59Z</time>
  <course>247.47</course>
  <speed>0.0</speed>
  <fix>3d</fix>
</trkpt>
<trkpt lat="40.072845" lon="-105.2305758">
  <ele>1624.37</ele>
  <time>2026-08-28T19:07:59Z</time>
  <course>153.04</course>
  <speed>0.01</speed>
  <fix>3d</fix>
</trkpt>
<trkpt lat="40.0728449" lon="-105.2305756">
  <ele>1624.57</ele>
  <time>2026-08-28T19:07:59Z</time>
  <course>257.72</course>
  <speed>0.0</speed>
  <fix>3d</fix>
</trkpt>
<trkpt lat="40.072845" lon="-105.2305758">
  <ele>1624.07</ele>
  <time>2026-08-28T19:07:59Z</time>
  <course>153.04</course>
  <speed>0.01</speed>
  <fix>3d</fix>
</trkpt>
<trkpt lat="40.0728449" lon="-105.2305756">
  <ele>1624.28</ele>
  <time>2026-08-28T19:07:59Z</time>
  <course>259.02</course>
  <speed>0.0</speed>
  <fix>3d</fix>
</trkpt>
<trkpt lat="40.072845" lon="-105.2305758">
  <ele>1623.77</ele>
  <time>2026-08-28T19:07:59Z</time>
  <course>153.02</course>
  <speed>0.01</speed>
  <fix>3d</fix>
</trkpt>
<trkpt lat="40.0728449" lon="-105.2305756">
  <ele>1623.98</ele>
  <time>2026-08-28T19:07:59Z</time>
  <course>258.74</course>
  <speed>0.0</speed>
  <fix>3d</fix>
</trkpt>
<trkpt lat="40.072845" lon="-105.2305758">
  <ele>1623.47</ele>
  <time>2026-08-28T19:07:59Z</time>
  <course>153.04</course>
  <speed>0.01</speed>
  <fix>3d</fix>
</trkpt>
<trkpt lat="40.0728449" lon="-105.2305756">
  <ele>1623.67</ele>
  <time>2026-08-28T19:07:59Z</time>
  <course>263.84</course>
  <speed>0.0</speed>
  <fix>3d</fix>
</trkpt>
<trkpt lat="40.072845" lon="-105.2305758">
  <ele>1623.17</ele>
  <time>2026-08-28T19:07:59Z</time>
  <course>153.04</course>
  <speed>0.01</speed>
  <fix>3d</fix>
</trkpt>
<trkpt lat="40.0728449" lon="-105.2305756">
  <ele>1623.38</ele>
  <time>2026-08-28T19:07:59Z</time>
  <course>274.66</course>
  <speed>0.0</speed>
  <fix>3d</fix>
</trkpt>
<trkpt lat="40.072845" lon="-105.2305758">
  <ele>1622.87</ele>
  <time>2026-08-28T19:07:59Z</time>
  <course>153.03</course>
  <speed>0.01</speed>
  <fix>3d</fix>
</trkpt>
<trkpt lat="40.0728449" lon="-105.2305756">
  <ele>1623.08</ele>
  <time>2026-08-28T19:07:59Z</time>
  <course>281.59</course>
  <speed>0.0</speed>
  <fix>3d</fix>
</trkpt>
<trkpt lat="40.072845" lon="-105.2305758">
  <ele>1622.57</ele>
  <time>2026-08-28T19:07:59Z</time>
  <course>153.01</course>
  <speed>0.01</speed>
  <fix>3d</fix>
</trkpt>
<trkpt lat="40.0728449" lon="-105.2305756">
  <ele>1622.78</ele>
  <time>2026-08-28T19:07:59Z</time>
  <course>280.59</course>
  <speed>0.0</speed>
  <fix>3d</fix>
</trkpt>
<trkpt lat="40.072845" lon="-105.2305758">
  <ele>1622.26</ele>
  <time>2026-08-28T19:07:59Z</time>
  <course>153.03</course>
  <speed>0.01</speed>
  <fix>3d</fix>
</trkpt>
<trkpt lat="40.0728449" lon="-105.2305756">
  <ele>1622.48</ele>
  <time>2026-08-28T19:07:59Z</time>
  <course>279.24</course>
  <speed>0.0</speed>
  <fix>3d</fix>
</trkpt>
<trkpt lat="40.072845" lon="-105.2305758">
  <ele>1621.97</ele>
  <time>2026-08-28T19:07:59Z</time>
  <course>153.03</course>
  <speed>0.01</speed>
  <fix>3d</fix>
</trkpt>
<trkpt lat="40.0728449" lon="-105.2305756">
  <ele>1622.18</ele>
  <time>2026-08-28T19:07:59Z</time>
  <course>283.83</course>
  <speed>0.0</speed>
  <fix>3d</fix>
</trkpt>
<trkpt lat="40.072845" lon="-105.2305758">
  <ele>1621.67</ele>
  <time>2026-08-28T19:07:59Z</time>
  <course>153.02</course>
  <speed>0.01</speed>
  <fix>3d</fix>
</trkpt>
<trkpt lat="40.0728449" lon="-105.2305756">
  <ele>1621.89</ele>
  <time>2026-08-28T19:07:59Z</time>
  <course>290.31</course>
  <speed>0.0</speed>
  <fix>3d</fix>
</trkpt>
<trkpt lat="40.072845" lon="-105.2305758">
  <ele>1621.37</ele>
  <time>2026-08-28T19:07:59Z</time>
  <course>153.04</course>
  <speed>0.01</speed>
  <fix>3d</fix>
</trkpt>
<trkpt lat="40.0728449" lon="-105.2305757">
  <ele>1621.59</ele>
  <time>2026-08-28T19:07:59Z</time>
  <course>296.7</course>
  <speed>0.0</speed>
  <fix>3d</fix>
</trkpt>
<trkpt lat="40.072845" lon="-105.2305758">
  <ele>1621.08</ele>
  <time>2026-08-28T19:07:59Z</time>
  <course>153.05</course>
  <speed>0.01</speed>
  <fix>3d</fix>
</trkpt>
<trkpt lat="40.0728449" lon="-105.2305758">
  <ele>1621.29</ele>
  <time>2026-08-28T19:07:59Z</time>
  <course>299.97</course>
  <speed>0.0</speed>
  <fix>3d</fix>
</trkpt>
<trkpt lat="40.072845" lon="-105.2305758">
  <ele>1620.78</ele>
  <time>2026-08-28T19:07:59Z</time>
  <course>153.04</course>
  <speed>0.01</speed>
  <fix>3d</fix>
</trkpt>
<trkpt lat="40.0728449" lon="-105.2305758">
  <ele>1620.99</ele>
  <time>2026-08-28T19:07:59Z</time>
  <course>297.31</course>
  <speed>0.0</speed>
  <fix>3d</fix>
</trkpt>
<trkpt lat="40.072845" lon="-105.2305758">
  <ele>1620.48</ele>
  <time>2026-08-28T19:07:59Z</time>
  <course>153.04</course>
  <speed>0.01</speed>
  <fix>3d</fix>
</trkpt>
<trkpt lat="40.0728449" lon="-105.2305758">
  <ele>1620.69</ele>
  <time>2026-08-28T19:07:59Z</time>
  <course>295.82</course>
  <speed>0.0</speed>
  <fix>3d</fix>
</trkpt>
<trkpt lat="40.072845" lon="-105.2305758">
  <ele>1620.18</ele>
  <time>2026-08-28T19:07:59Z</time>
  <course>153.04</course>
  <speed>0.01</speed>
  <fix>3d</fix>
</trkpt>
<trkpt lat="40.0728449" lon="-105.2305758">
  <ele>1620.39</ele>
  <time>2026-08-28T19:07:59Z</time>
  <course>305.97</course>
  <speed>0.0</speed>
  <fix>3d</fix>
</trkpt>
<trkpt lat="40.072845" lon="-105.2305758">
  <ele>1619.88</ele>
  <time>2026-08-28T19:08:00Z</time>
  <course>153.03</course>
  <speed>0.01</speed>
  <fix>3d</fix>
</trkpt>
<trkpt lat="40.0728449" lon="-105.2305758">
  <ele>1620.09</ele>
  <time>2026-08-28T19:08:00Z</time>
  <course>346.04</course>
  <speed>0.0</speed>
  <fix>3d</fix>
</trkpt>
<trkpt lat="40.072845" lon="-105.2305758">
  <ele>1619.58</ele>
  <time>2026-08-28T19:08:00Z</time>
  <course>153.02</course>
  <speed>0.01</speed>
  <fix>3d</fix>
</trkpt>
<trkpt lat="40.0728449" lon="-105.2305758">
  <ele>1619.79</ele>
  <time>2026-08-28T19:08:00Z</time>
  <course>45.86</course>
  <speed>0.0</speed>
  <fix>3d</fix>
</trkpt>
<trkpt lat="40.072845" lon="-105.2305758">
  <ele>1619.28</ele>
  <time>2026-08-28T19:08:00Z</time>
  <course>153.04</course>
  <speed>0.01</speed>
  <fix>3d</fix>
</trkpt>
<trkpt lat="40.0728449" lon="-105.2305758">
  <ele>1619.49</ele>
  <time>2026-08-28T19:08:00Z</time>
  <course>67.71</course>
  <speed>0.0</speed>
  <fix>3d</fix>
</trkpt>
<trkpt lat="40.072845" lon="-105.2305758">
  <ele>1618.99</ele>
  <time>2026-08-28T19:08:00Z</time>
  <course>153.05</course>
  <speed>0.01</speed>
  <fix>3d</fix>
</trkpt>
<trkpt lat="40.0728449" lon="-105.2305758">
  <ele>1619.19</ele>
  <time>2026-08-28T19:08:00Z</time>
  <course>71.84</course>
  <speed>0.0</speed>
  <fix>3d</fix>
</trkpt>
<trkpt lat="40.072845" lon="-105.2305758">
  <ele>1618.69</ele>
  <time>2026-08-28T19:08:00Z</time>
  <course>153.04</course>
  <speed>0.01</speed>
  <fix>3d</fix>
</trkpt>
<trkpt lat="40.0728449" lon="-105.2305758">
  <ele>1618.89</ele>
  <time>2026-08-28T19:08:00Z</time>
  <course>75.97</course>
  <speed>0.0</speed>
  <fix>3d</fix>
</trkpt>
<trkpt lat="40.072845" lon="-105.2305758">
  <ele>1618.39</ele>
  <time>2026-08-28T19:08:00Z</time>
  <course>153.05</course>
  <speed>0.01</speed>
  <fix>3d</fix>
</trkpt>
<trkpt lat="40.0728449" lon="-105.2305758">
  <ele>1618.58</ele>
  <time>2026-08-28T19:08:00Z</time>
  <course>81.27</course>
  <speed>0.0</speed>
  <fix>3d</fix>
</trkpt>
<trkpt lat="40.072845" lon="-105.2305758">
  <ele>1618.09</ele>
  <time>2026-08-28T19:08:00Z</time>
  <course>153.04</course>
  <speed>0.01</speed>
  <fix>3d</fix>
</trkpt>
<trkpt lat="40.0728449" lon="-105.2305758">
  <ele>1618.28</ele>
  <time>2026-08-28T19:08:00Z</time>
  <course>83.52</course>
  <speed>0.0</speed>
  <fix>3d</fix>
</trkpt>
<trkpt lat="40.072845" lon="-105.2305758">
  <ele>1617.79</ele>
  <time>2026-08-28T19:08:00Z</time>
  <course>153.04</course>
  <speed>0.01</speed>
  <fix>3d</fix>
</trkpt>
<trkpt lat="40.0728449" lon="-105.2305758">
  <ele>1617.98</ele>
  <time>2026-08-28T19:08:00Z</time>
  <course>83.59</course>
  <speed>0.0</speed>
  <fix>3d</fix>
</trkpt>
<trkpt lat="40.072845" lon="-105.2305758">
  <ele>1617.49</ele>
  <time>2026-08-28T19:08:00Z</time>
  <course>153.04</course>
  <speed>0.01</speed>
  <fix>3d</fix>
</trkpt>
<trkpt lat="40.0728449" lon="-105.2305758">
  <ele>1617.67</ele>
  <time>2026-08-28T19:08:00Z</time>
  <course>81.59</course>
  <speed>0.0</speed>
  <fix>3d</fix>
</trkpt>
<trkpt lat="40.072845" lon="-105.2305758">
  <ele>1617.18</ele>
  <time>2026-08-28T19:08:00Z</time>
  <course>153.03</course>
  <speed>0.01</speed>
  <fix>3d</fix>
</trkpt>
<trkpt lat="40.0728449" lon="-105.2305758">
  <ele>1617.37</ele>
  <time>2026-08-28T19:08:00Z</time>
  <course>78.72</course>
  <speed>0.0</speed>
  <fix>3d</fix>
</trkpt>
<trkpt lat="40.072845" lon="-105.2305758">
  <ele>1616.87</ele>
  <time>2026-08-28T19:08:00Z</time>
  <course>153.03</course>
  <speed>0.01</speed>
  <fix>3d</fix>
</trkpt>
<trkpt lat="40.0728449" lon="-105.2305757">
  <ele>1617.07</ele>
  <time>2026-08-28T19:08:00Z</time>
  <course>78.42</course>
  <speed>0.0</speed>
  <fix>3d</fix>
</trkpt>
<trkpt lat="40.072845" lon="-105.2305758">
  <ele>1616.57</ele>
  <time>2026-08-28T19:08:00Z</time>
  <course>153.02</course>
  <speed>0.01</speed>
  <fix>3d</fix>
</trkpt>
<trkpt lat="40.0728449" lon="-105.2305756">
  <ele>1616.77</ele>
  <time>2026-08-28T19:08:00Z</time>
  <course>80.26</course>
  <speed>0.0</speed>
  <fix>3d</fix>
</trkpt>
<trkpt lat="40.072845" lon="-105.2305758">
  <ele>1616.26</ele>
  <time>2026-08-28T19:08:00Z</time>
  <course>153.01</course>
  <speed>0.01</speed>
  <fix>3d</fix>
</trkpt>
<trkpt lat="40.0728449" lon="-105.2305756">
  <ele>1616.47</ele>
  <time>2026-08-28T19:08:00Z</time>
  <course>81.86</course>
  <speed>0.0</speed>
  <fix>3d</fix>
</trkpt>
<trkpt lat="40.072845" lon="-105.2305758">
  <ele>1615.96</ele>
  <time>2026-08-28T19:08:00Z</time>
  <course>153.02</course>
  <speed>0.01</speed>
  <fix>3d</fix>
</trkpt>
<trkpt lat="40.0728449" lon="-105.2305756">
  <ele>1616.16</ele>
  <time>2026-08-28T19:08:00Z</time>
  <course>80.85</course>
  <speed>0.0</speed>
  <fix>3d</fix>
</trkpt>
<trkpt lat="40.072845" lon="-105.2305758">
  <ele>1615.65</ele>
  <time>2026-08-28T19:08:00Z</time>
  <course>153.0</course>
  <speed>0.01</speed>
  <fix>3d</fix>
</trkpt>
<trkpt lat="40.0728449" lon="-105.2305756">
  <ele>1615.87</ele>
  <time>2026-08-28T19:08:00Z</time>
  <course>78.68</course>
  <speed>0.0</speed>
  <fix>3d</fix>
</trkpt>
<trkpt lat="40.072845" lon="-105.2305758">
  <ele>1615.36</ele>
  <time>2026-08-28T19:08:00Z</time>
  <course>153.0</course>
  <speed>0.01</speed>
  <fix>3d</fix>
</trkpt>
<trkpt lat="40.0728449" lon="-105.2305756">
  <ele>1615.57</ele>
  <time>2026-08-28T19:08:00Z</time>
  <course>75.93</course>
  <speed>0.0</speed>
  <fix>3d</fix>
</trkpt>
<trkpt lat="40.072845" lon="-105.2305758">
  <ele>1615.06</ele>
  <time>2026-08-28T19:08:00Z</time>
  <course>153.02</course>
  <speed>0.01</speed>
  <fix>3d</fix>
</trkpt>
<trkpt lat="40.0728449" lon="-105.2305756">
  <ele>1615.27</ele>
  <time>2026-08-28T19:08:00Z</time>
  <course>69.37</course>
  <speed>0.0</speed>
  <fix>3d</fix>
</trkpt>
<trkpt lat="40.072845" lon="-105.2305758">
  <ele>1614.77</ele>
  <time>2026-08-28T19:08:00Z</time>
  <course>152.99</course>
  <speed>0.01</speed>
  <fix>3d</fix>
</trkpt>
<trkpt lat="40.0728449" lon="-105.2305756">
  <ele>1614.98</ele>
  <time>2026-08-28T19:08:00Z</time>
  <course>60.31</course>
  <speed>0.0</speed>
  <fix>3d</fix>
</trkpt>
<trkpt lat="40.072845" lon="-105.2305758">
  <ele>1614.48</ele>
  <time>2026-08-28T19:08:00Z</time>
  <course>153.02</course>
  <speed>0.01</speed>
  <fix>3d</fix>
</trkpt>
<trkpt lat="40.0728449" lon="-105.2305756">
  <ele>1614.67</ele>
  <time>2026-08-28T19:08:00Z</time>
  <course>52.44</course>
  <speed>0.0</speed>
  <fix>3d</fix>
</trkpt>
<trkpt lat="40.072845" lon="-105.2305758">
  <ele>1614.18</ele>
  <time>2026-08-28T19:08:00Z</time>
  <course>153.02</course>
  <speed>0.01</speed>
  <fix>3d</fix>
</trkpt>
<trkpt lat="40.0728449" lon="-105.2305756">
  <ele>1614.38</ele>
  <time>2026-08-28T19:08:00Z</time>
  <course>45.19</course>
  <speed>0.0</speed>
  <fix>3d</fix>
</trkpt>
<trkpt lat="40.072845" lon="-105.2305758">
  <ele>1613.88</ele>
  <time>2026-08-28T19:08:00Z</time>
  <course>153.03</course>
  <speed>0.01</speed>
  <fix>3d</fix>
</trkpt>
<trkpt lat="40.0728449" lon="-105.2305756">
  <ele>1614.09</ele>
  <time>2026-08-28T19:08:00Z</time>
  <course>41.16</course>
  <speed>0.0</speed>
  <fix>3d</fix>
</trkpt>
<trkpt lat="40.072845" lon="-105.2305758">
  <ele>1613.58</ele>
  <time>2026-08-28T19:08:00Z</time>
  <course>153.03</course>
  <speed>0.01</speed>
  <fix>3d</fix>
</trkpt>
<trkpt lat="40.0728449" lon="-105.2305756">
  <ele>1613.79</ele>
  <time>2026-08-28T19:08:00Z</time>
  <course>37.09</course>
  <speed>0.0</speed>
  <fix>3d</fix>
</trkpt>
<trkpt lat="40.072845" lon="-105.2305758">
  <ele>1613.28</ele>
  <time>2026-08-28T19:08:00Z</time>
  <course>153.03</course>
  <speed>0.02</speed>
  <fix>3d</fix>
</trkpt>
<trkpt lat="40.0728449" lon="-105.2305756">
  <ele>1613.49</ele>
  <time>2026-08-28T19:08:00Z</time>
  <course>16.33</course>
  <speed>0.0</speed>
  <fix>3d</fix>
</trkpt>
<trkpt lat="40.072845" lon="-105.2305758">
  <ele>1612.98</ele>
  <time>2026-08-28T19:08:00Z</time>
  <course>153.03</course>
  <speed>0.02</speed>
  <fix>3d</fix>
</trkpt>
<trkpt lat="40.0728449" lon="-105.2305756">
  <ele>1613.19</ele>
  <time>2026-08-28T19:08:00Z</time>
  <course>350.64</course>
  <speed>0.0</speed>
  <fix>3d</fix>
</trkpt>
<trkpt lat="40.072845" lon="-105.2305758">
  <ele>1612.68</ele>
  <time>2026-08-28T19:08:00Z</time>
  <course>153.02</course>
  <speed>0.02</speed>
  <fix>3d</fix>
</trkpt>
<trkpt lat="40.0728449" lon="-105.2305756">
  <ele>1612.89</ele>
  <time>2026-08-28T19:08:00Z</time>
  <course>329.97</course>
  <speed>0.0</speed>
  <fix>3d</fix>
</trkpt>
<trkpt lat="40.072845" lon="-105.2305758">
  <ele>1612.38</ele>
  <time>2026-08-28T19:08:00Z</time>
  <course>153.02</course>
  <speed>0.02</speed>
  <fix>3d</fix>
</trkpt>
<trkpt lat="40.0728449" lon="-105.2305756">
  <ele>1612.58</ele>
  <time>2026-08-28T19:08:00Z</time>
  <course>315.74</course>
  <speed>0.0</speed>
  <fix>3d</fix>
</trkpt>
<trkpt lat="40.072845" lon="-105.2305758">
  <ele>1612.09</ele>
  <time>2026-08-28T19:08:00Z</time>
  <course>153.02</course>
  <speed>0.02</speed>
  <fix>3d</fix>
</trkpt>
<trkpt lat="40.0728449" lon="-105.2305756">
  <ele>1612.28</ele>
  <time>2026-08-28T19:08:00Z</time>
  <course>303.45</course>
  <speed>0.0</speed>
  <fix>3d</fix>
</trkpt>
<trkpt lat="40.072845" lon="-105.2305758">
  <ele>1611.79</ele>
  <time>2026-08-28T19:08:00Z</time>
  <course>153.03</course>
  <speed>0.02</speed>
  <fix>3d</fix>
</trkpt>
<trkpt lat="40.0728449" lon="-105.2305756">
  <ele>1611.98</ele>
  <time>2026-08-28T19:08:00Z</time>
  <course>291.85</course>
  <speed>0.0</speed>
  <fix>3d</fix>
</trkpt>
<trkpt lat="40.072845" lon="-105.2305758">
  <ele>1611.49</ele>
  <time>2026-08-28T19:08:00Z</time>
  <course>153.04</course>
  <speed>0.02</speed>
  <fix>3d</fix>
</trkpt>
<trkpt lat="40.0728449" lon="-105.2305756">
  <ele>1611.67</ele>
  <time>2026-08-28T19:08:00Z</time>
  <course>292.16</course>
  <speed>0.0</speed>
  <fix>3d</fix>
</trkpt>
<trkpt lat="40.072845" lon="-105.2305758">
  <ele>1611.19</ele>
  <time>2026-08-28T19:08:00Z</time>
  <course>153.04</course>
  <speed>0.02</speed>
  <fix>3d</fix>
</trkpt>
<trkpt lat="40.0728449" lon="-105.2305756">
  <ele>1611.38</ele>
  <time>2026-08-28T19:08:00Z</time>
  <course>299.15</course>
  <speed>0.0</speed>
  <fix>3d</fix>
</trkpt>
<trkpt lat="40.072845" lon="-105.2305758">
  <ele>1610.88</ele>
  <time>2026-08-28T19:08:00Z</time>
  <course>153.04</course>
  <speed>0.02</speed>
  <fix>3d</fix>
</trkpt>
<trkpt lat="40.0728449" lon="-105.2305756">
  <ele>1611.07</ele>
  <time>2026-08-28T19:08:00Z</time>
  <course>301.63</course>
  <speed>0.0</speed>
  <fix>3d</fix>
</trkpt>
<trkpt lat="40.072845" lon="-105.2305758">
  <ele>1610.58</ele>
  <time>2026-08-28T19:08:00Z</time>
  <course>153.02</course>
  <speed>0.02</speed>
  <fix>3d</fix>
</trkpt>
<trkpt lat="40.0728449" lon="-105.2305756">
  <ele>1610.77</ele>
  <time>2026-08-28T19:08:00Z</time>
  <course>297.54</course>
  <speed>0.0</speed>
  <fix>3d</fix>
</trkpt>
<trkpt lat="40.072845" lon="-105.2305758">
  <ele>1610.27</ele>
  <time>2026-08-28T19:08:00Z</time>
  <course>153.01</course>
  <speed>0.02</speed>
  <fix>3d</fix>
</trkpt>
<trkpt lat="40.0728449" lon="-105.2305756">
  <ele>1610.47</ele>
  <time>2026-08-28T19:08:00Z</time>
  <course>289.54</course>
  <speed>0.0</speed>
  <fix>3d</fix>
</trkpt>
<trkpt lat="40.072845" lon="-105.2305758">
  <ele>1609.96</ele>
  <time>2026-08-28T19:08:00Z</time>
  <course>153.01</course>
  <speed>0.01</speed>
  <fix>3d</fix>
</trkpt>
<trkpt lat="40.0728449" lon="-105.2305756">
  <ele>1610.16</ele>
  <time>2026-08-28T19:08:00Z</time>
  <course>292.19</course>
  <speed>0.0</speed>
  <fix>3d</fix>
</trkpt>
<trkpt lat="40.072845" lon="-105.2305758">
  <ele>1609.66</ele>
  <time>2026-08-28T19:08:00Z</time>
  <course>152.99</course>
  <speed>0.01</speed>
  <fix>3d</fix>
</trkpt>
<trkpt lat="40.0728449" lon="-105.2305756">
  <ele>1609.87</ele>
  <time>2026-08-28T19:08:00Z</time>
  <course>304.6</course>
  <speed>0.0</speed>
  <fix>3d</fix>
</trkpt>
<trkpt lat="40.072845" lon="-105.2305758">
  <ele>1609.36</ele>
  <time>2026-08-28T19:08:00Z</time>
  <course>153.0</course>
  <speed>0.01</speed>
  <fix>3d</fix>
</trkpt>
<trkpt lat="40.0728449" lon="-105.2305756">
  <ele>1609.57</ele>
  <time>2026-08-28T19:08:00Z</time>
  <course>328.19</course>
  <speed>0.0</speed>
  <fix>3d</fix>
</trkpt>
<trkpt lat="40.072845" lon="-105.2305758">
  <ele>1609.06</ele>
  <time>2026-08-28T19:08:00Z</time>
  <course>153.0</course>
  <speed>0.01</speed>
  <fix>3d</fix>
</trkpt>
<trkpt lat="40.0728449" lon="-105.2305756">
  <ele>1609.27</ele>
  <time>2026-08-28T19:08:00Z</time>
  <course>7.73</course>
  <speed>0.0</speed>
  <fix>3d</fix>
</trkpt>
<trkpt lat="40.072845" lon="-105.2305758">
  <ele>1608.76</ele>
  <time>2026-08-28T19:08:00Z</time>
  <course>152.99</course>
  <speed>0.01</speed>
  <fix>3d</fix>
</trkpt>
<trkpt lat="40.0728449" lon="-105.2305756">
  <ele>1608.97</ele>
  <time>2026-08-28T19:08:00Z</time>
  <course>12.94</course>
  <speed>0.0</speed>
  <fix>3d</fix>
</trkpt>
<trkpt lat="40.072845" lon="-105.2305758">
  <ele>1608.46</ele>
  <time>2026-08-28T19:08:00Z</time>
  <course>153.0</course>
  <speed>0.01</speed>
  <fix>3d</fix>
</trkpt>
<trkpt lat="40.0728449" lon="-105.2305756">
  <ele>1608.66</ele>
  <time>2026-08-28T19:08:00Z</time>
  <course>9.2</course>
  <speed>0.0</speed>
  <fix>3d</fix>
</trkpt>
<trkpt lat="40.072845" lon="-105.2305758">
  <ele>1608.17</ele>
  <time>2026-08-28T19:08:00Z</time>
  <course>153.0</course>
  <speed>0.01</speed>
  <fix>3d</fix>
</trkpt>
<trkpt lat="40.0728449" lon="-105.2305756">
  <ele>1608.37</ele>
  <time>2026-08-28T19:08:00Z</time>
  <course>6.94</course>
  <speed>0.0</speed>
  <fix>3d</fix>
</trkpt>
<trkpt lat="40.072845" lon="-105.2305758">
  <ele>1607.87</ele>
  <time>2026-08-28T19:08:00Z</time>
  <course>153.01</course>
  <speed>0.01</speed>
  <fix>3d</fix>
</trkpt>
<trkpt lat="40.0728449" lon="-105.2305756">
  <ele>1608.08</ele>
  <time>2026-08-28T19:08:00Z</time>
  <course>0.59</course>
  <speed>0.0</speed>
  <fix>3d</fix>
</trkpt>
<trkpt lat="40.072845" lon="-105.2305758">
  <ele>1607.58</ele>
  <time>2026-08-28T19:08:00Z</time>
  <course>153.02</course>
  <speed>0.01</speed>
  <fix>3d</fix>
</trkpt>
<trkpt lat="40.0728449" lon="-105.2305756">
  <ele>1607.78</ele>
  <time>2026-08-28T19:08:00Z</time>
  <course>348.54</course>
  <speed>0.0</speed>
  <fix>3d</fix>
</trkpt>
<trkpt lat="40.072845" lon="-105.2305758">
  <ele>1607.28</ele>
  <time>2026-08-28T19:08:00Z</time>
  <course>153.02</course>
  <speed>0.01</speed>
  <fix>3d</fix>
</trkpt>
<trkpt lat="40.0728449" lon="-105.2305756">
  <ele>1607.48</ele>
  <time>2026-08-28T19:08:00Z</time>
  <course>323.92</course>
  <speed>0.0</speed>
  <fix>3d</fix>
</trkpt>
<trkpt lat="40.072845" lon="-105.2305758">
  <ele>1606.98</ele>
  <time>2026-08-28T19:08:00Z</time>
  <course>153.02</course>
  <speed>0.01</speed>
  <fix>3d</fix>
</trkpt>
<trkpt lat="40.0728449" lon="-105.2305756">
  <ele>1607.17</ele>
  <time>2026-08-28T19:08:00Z</time>
  <course>299.5</course>
  <speed>0.0</speed>
  <fix>3d</fix>
</trkpt>
<trkpt lat="40.072845" lon="-105.2305758">
  <ele>1606.68</ele>
  <time>2026-08-28T19:08:00Z</time>
  <course>153.02</course>
  <speed>0.02</speed>
  <fix>3d</fix>
</trkpt>
<trkpt lat="40.0728449" lon="-105.2305756">
  <ele>1606.88</ele>
  <time>2026-08-28T19:08:00Z</time>
  <course>286.85</course>
  <speed>0.0</speed>
  <fix>3d</fix>
</trkpt>
<trkpt lat="40.072845" lon="-105.2305758">
  <ele>1606.37</ele>
  <time>2026-08-28T19:08:00Z</time>
  <course>153.01</course>
  <speed>0.02</speed>
  <fix>3d</fix>
</trkpt>
<trkpt lat="40.0728449" lon="-105.2305756">
  <ele>1606.58</ele>
  <time>2026-08-28T19:08:00Z</time>
  <course>281.73</course>
  <speed>0.0</speed>
  <fix>3d</fix>
</trkpt>
<trkpt lat="40.072845" lon="-105.2305758">
  <ele>1606.06</ele>
  <time>2026-08-28T19:08:00Z</time>
  <course>153.0</course>
  <speed>0.01</speed>
  <fix>3d</fix>
</trkpt>
<trkpt lat="40.0728449" lon="-105.2305756">
  <ele>1606.28</ele>
  <time>2026-08-28T19:08:00Z</time>
  <course>279.59</course>
  <speed>0.0</speed>
  <fix>3d</fix>
</trkpt>
<trkpt lat="40.072845" lon="-105.2305758">
  <ele>1605.76</ele>
  <time>2026-08-28T19:08:00Z</time>
  <course>153.01</course>
  <speed>0.01</speed>
  <fix>3d</fix>
</trkpt>
<trkpt lat="40.0728449" lon="-105.2305756">
  <ele>1605.98</ele>
  <time>2026-08-28T19:08:00Z</time>
  <course>278.55</course>
  <speed>0.0</speed>
  <fix>3d</fix>
</trkpt>
<trkpt lat="40.072845" lon="-105.2305758">
  <ele>1605.46</ele>
  <time>2026-08-28T19:08:00Z</time>
  <course>152.99</course>
  <speed>0.01</speed>
  <fix>3d</fix>
</trkpt>
<trkpt lat="40.0728449" lon="-105.2305756">
  <ele>1605.69</ele>
  <time>2026-08-28T19:08:00Z</time>
  <course>275.17</course>
  <speed>0.0</speed>
  <fix>3d</fix>
</trkpt>
<trkpt lat="40.072845" lon="-105.2305758">
  <ele>1605.16</ele>
  <time>2026-08-28T19:08:00Z</time>
  <course>153.0</course>
  <speed>0.01</speed>
  <fix>3d</fix>
</trkpt>
<trkpt lat="40.0728449" lon="-105.2305756">
  <ele>1605.39</ele>
  <time>2026-08-28T19:08:00Z</time>
  <course>271.82</course>
  <speed>0.0</speed>
  <fix>3d</fix>
</trkpt>
<trkpt lat="40.072845" lon="-105.2305758">
  <ele>1604.86</ele>
  <time>2026-08-28T19:08:00Z</time>
  <course>153.01</course>
  <speed>0.01</speed>
  <fix>3d</fix>
</trkpt>
<trkpt lat="40.0728449" lon="-105.2305756">
  <ele>1605.09</ele>
  <time>2026-08-28T19:08:00Z</time>
  <course>278.01</course>
  <speed>0.0</speed>
  <fix>3d</fix>
</trkpt>
<trkpt lat="40.072845" lon="-105.2305758">
  <ele>1604.57</ele>
  <time>2026-08-28T19:08:00Z</time>
  <course>152.99</course>
  <speed>0.01</speed>
  <fix>3d</fix>
</trkpt>
<trkpt lat="40.0728449" lon="-105.2305756">
  <ele>1604.79</ele>
  <time>2026-08-28T19:08:00Z</time>
  <course>292.06</course>
  <speed>0.0</speed>
  <fix>3d</fix>
</trkpt>
<trkpt lat="40.072845" lon="-105.2305758">
  <ele>1604.27</ele>
  <time>2026-08-28T19:08:00Z</time>
  <course>153.01</course>
  <speed>0.01</speed>
  <fix>3d</fix>
</trkpt>
<trkpt lat="40.0728449" lon="-105.2305756">
  <ele>1604.5</ele>
  <time>2026-08-28T19:08:00Z</time>
  <course>306.71</course>
  <speed>0.0</speed>
  <fix>3d</fix>
</trkpt>
<trkpt lat="40.072845" lon="-105.2305758">
  <ele>1603.97</ele>
  <time>2026-08-28T19:08:00Z</time>
  <course>153.0</course>
  <speed>0.01</speed>
  <fix>3d</fix>
</trkpt>
<trkpt lat="40.0728449" lon="-105.2305756">
  <ele>1604.2</ele>
  <time>2026-08-28T19:08:00Z</time>
  <course>316.03</course>
  <speed>0.0</speed>
  <fix>3d</fix>
</trkpt>
<trkpt lat="40.072845" lon="-105.2305758">
  <ele>1603.68</ele>
  <time>2026-08-28T19:08:00Z</time>
  <course>153.0</course>
  <speed>0.01</speed>
  <fix>3d</fix>
</trkpt>
<trkpt lat="40.0728449" lon="-105.2305756">
  <ele>1603.9</ele>
  <time>2026-08-28T19:08:00Z</time>
  <course>315.56</course>
  <speed>0.0</speed>
  <fix>3d</fix>
</trkpt>
<trkpt lat="40.072845" lon="-105.2305758">
  <ele>1603.39</ele>
  <time>2026-08-28T19:08:00Z</time>
  <course>153.03</course>
  <speed>0.01</speed>
  <fix>3d</fix>
</trkpt>
<trkpt lat="40.0728449" lon="-105.2305756">
  <ele>1603.61</ele>
  <time>2026-08-28T19:08:00Z</time>
  <course>309.5</course>
  <speed>0.0</speed>
  <fix>3d</fix>
</trkpt>
<trkpt lat="40.072845" lon="-105.2305758">
  <ele>1603.09</ele>
  <time>2026-08-28T19:08:00Z</time>
  <course>153.03</course>
  <speed>0.01</speed>
  <fix>3d</fix>
</trkpt>
<trkpt lat="40.0728449" lon="-105.2305756">
  <ele>1603.31</ele>
  <time>2026-08-28T19:08:00Z</time>
  <course>302.93</course>
  <speed>0.0</speed>
  <fix>3d</fix>
</trkpt>
<trkpt lat="40.072845" lon="-105.2305758">
  <ele>1602.79</ele>
  <time>2026-08-28T19:08:00Z</time>
  <course>153.03</course>
  <speed>0.01</speed>
  <fix>3d</fix>
</trkpt>
<trkpt lat="40.0728449" lon="-105.2305756">
  <ele>1603.01</ele>
  <time>2026-08-28T19:08:00Z</time>
  <course>293.68</course>
  <speed>0.0</speed>
  <fix>3d</fix>
</trkpt>
<trkpt lat="40.072845" lon="-105.2305758">
  <ele>1602.49</ele>
  <time>2026-08-28T19:08:00Z</time>
  <course>153.01</course>
  <speed>0.01</speed>
  <fix>3d</fix>
</trkpt>
<trkpt lat="40.0728449" lon="-105.2305756">
  <ele>1602.71</ele>
  <time>2026-08-28T19:08:00Z</time>
  <course>279.83</course>
  <speed>0.0</speed>
  <fix>3d</fix>
</trkpt>
<trkpt lat="40.072845" lon="-105.2305758">
  <ele>1602.19</ele>
  <time>2026-08-28T19:08:00Z</time>
  <course>153.02</course>
  <speed>0.01</speed>
  <fix>3d</fix>
</trkpt>
<trkpt lat="40.0728449" lon="-105.2305756">
  <ele>1602.4</ele>
  <time>2026-08-28T19:08:00Z</time>
  <course>271.59</course>
  <speed>0.0</speed>
  <fix>3d</fix>
</trkpt>
<trkpt lat="40.072845" lon="-105.2305758">
  <ele>1601.89</ele>
  <time>2026-08-28T19:08:00Z</time>
  <course>153.03</course>
  <speed>0.01</speed>
  <fix>3d</fix>
</trkpt>
<trkpt lat="40.0728449" lon="-105.2305756">
  <ele>1602.1</ele>
  <time>2026-08-28T19:08:00Z</time>
  <course>270.85</course>
  <speed>0.0</speed>
  <fix>3d</fix>
</trkpt>
<trkpt lat="40.072845" lon="-105.2305758">
  <ele>1601.59</ele>
  <time>2026-08-28T19:08:00Z</time>
  <course>153.03</course>
  <speed>0.01</speed>
  <fix>3d</fix>
</trkpt>
<trkpt lat="40.0728449" lon="-105.2305756">
  <ele>1601.8</ele>
  <time>2026-08-28T19:08:00Z</time>
  <course>274.08</course>
  <speed>0.0</speed>
  <fix>3d</fix>
</trkpt>
<trkpt lat="40.072845" lon="-105.2305758">
  <ele>1601.29</ele>
  <time>2026-08-28T19:08:00Z</time>
  <course>153.03</course>
  <speed>0.01</speed>
  <fix>3d</fix>
</trkpt>
<trkpt lat="40.0728449" lon="-105.2305756">
  <ele>1601.49</ele>
  <time>2026-08-28T19:08:00Z</time>
  <course>279.97</course>
  <speed>0.0</speed>
  <fix>3d</fix>
</trkpt>
<trkpt lat="40.072845" lon="-105.2305758">
  <ele>1600.99</ele>
  <time>2026-08-28T19:08:00Z</time>
  <course>153.03</course>
  <speed>0.01</speed>
  <fix>3d</fix>
</trkpt>
<trkpt lat="40.0728449" lon="-105.2305756">
  <ele>1601.19</ele>
  <time>2026-08-28T19:08:00Z</time>
  <course>284.67</course>
  <speed>0.0</speed>
  <fix>3d</fix>
</trkpt>
<trkpt lat="40.072845" lon="-105.2305758">
  <ele>1600.7</ele>
  <time>2026-08-28T19:08:00Z</time>
  <course>153.02</course>
  <speed>0.01</speed>
  <fix>3d</fix>
</trkpt>
<trkpt lat="40.0728449" lon="-105.2305756">
  <ele>1600.89</ele>
  <time>2026-08-28T19:08:00Z</time>
  <course>283.97</course>
  <speed>0.0</speed>
  <fix>3d</fix>
</trkpt>
<trkpt lat="40.072845" lon="-105.2305758">
  <ele>1600.39</ele>
  <time>2026-08-28T19:08:00Z</time>
  <course>153.03</course>
  <speed>0.01</speed>
  <fix>3d</fix>
</trkpt>
<trkpt lat="40.0728449" lon="-105.2305756">
  <ele>1600.58</ele>
  <time>2026-08-28T19:08:00Z</time>
  <course>280.78</course>
  <speed>0.0</speed>
  <fix>3d</fix>
</trkpt>
<trkpt lat="40.072845" lon="-105.2305758">
  <ele>1600.09</ele>
  <time>2026-08-28T19:08:00Z</time>
  <course>153.03</course>
  <speed>0.01</speed>
  <fix>3d</fix>
</trkpt>
<trkpt lat="40.0728449" lon="-105.2305756">
  <ele>1600.28</ele>
  <time>2026-08-28T19:08:00Z</time>
  <course>279.59</course>
  <speed>0.0</speed>
  <fix>3d</fix>
</trkpt>
<trkpt lat="40.072845" lon="-105.2305758">
  <ele>1599.78</ele>
  <time>2026-08-28T19:08:00Z</time>
  <course>153.02</course>
  <speed>0.01</speed>
  <fix>3d</fix>
</trkpt>
<trkpt lat="40.0728449" lon="-105.2305756">
  <ele>1599.97</ele>
  <time>2026-08-28T19:08:00Z</time>
  <course>279.21</course>
  <speed>0.0</speed>
  <fix>3d</fix>
</trkpt>
<trkpt lat="40.072845" lon="-105.2305758">
  <ele>1599.47</ele>
  <time>2026-08-28T19:08:00Z</time>
  <course>153.01</course>
  <speed>0.01</speed>
  <fix>3d</fix>
</trkpt>
<trkpt lat="40.0728449" lon="-105.2305756">
  <ele>1599.66</ele>
  <time>2026-08-28T19:08:00Z</time>
  <course>282.41</course>
  <speed>0.0</speed>
  <fix>3d</fix>
</trkpt>
<trkpt lat="40.072845" lon="-105.2305758">
  <ele>1599.17</ele>
  <time>2026-08-28T19:08:00Z</time>
  <course>152.99</course>
  <speed>0.01</speed>
  <fix>3d</fix>
</trkpt>
<trkpt lat="40.0728449" lon="-105.2305756">
  <ele>1599.37</ele>
  <time>2026-08-28T19:08:00Z</time>
  <course>283.29</course>
  <speed>0.0</speed>
  <fix>3d</fix>
</trkpt>
<trkpt lat="40.072845" lon="-105.2305758">
  <ele>1598.88</ele>
  <time>2026-08-28T19:08:00Z</time>
  <course>153.0</course>
  <speed>0.01</speed>
  <fix>3d</fix>
</trkpt>
<trkpt lat="40.0728449" lon="-105.2305756">
  <ele>1599.07</ele>
  <time>2026-08-28T19:08:00Z</time>
  <course>285.81</course>
  <speed>0.0</speed>
  <fix>3d</fix>
</trkpt>
<trkpt lat="40.072845" lon="-105.2305758">
  <ele>1598.58</ele>
  <time>2026-08-28T19:08:00Z</time>
  <course>153.01</course>
  <speed>0.01</speed>
  <fix>3d</fix>
</trkpt>
<trkpt lat="40.0728449" lon="-105.2305756">
  <ele>1598.77</ele>
  <time>2026-08-28T19:08:00Z</time>
  <course>293.16</course>
  <speed>0.0</speed>
  <fix>3d</fix>
</trkpt>
<trkpt lat="40.072845" lon="-105.2305758">
  <ele>1598.28</ele>
  <time>2026-08-28T19:08:00Z</time>
  <course>153.02</course>
  <speed>0.01</speed>
  <fix>3d</fix>
</trkpt>
<trkpt lat="40.0728449" lon="-105.2305756">
  <ele>1598.47</ele>
  <time>2026-08-28T19:08:00Z</time>
  <course>297.45</course>
  <speed>0.0</speed>
  <fix>3d</fix>
</trkpt>
<trkpt lat="40.072845" lon="-105.2305758">
  <ele>1597.98</ele>
  <time>2026-08-28T19:08:00Z</time>
  <course>153.02</course>
  <speed>0.01</speed>
  <fix>3d</fix>
</trkpt>
<trkpt lat="40.0728449" lon="-105.2305756">
  <ele>1598.16</ele>
  <time>2026-08-28T19:08:00Z</time>
  <course>300.8</course>
  <speed>0.0</speed>
  <fix>3d</fix>
</trkpt>
<trkpt lat="40.072845" lon="-105.2305758">
  <ele>1597.67</ele>
  <time>2026-08-28T19:08:00Z</time>
  <course>153.01</course>
  <speed>0.01</speed>
  <fix>3d</fix>
</trkpt>
<trkpt lat="40.0728449" lon="-105.2305756">
  <ele>1597.87</ele>
  <time>2026-08-28T19:08:00Z</time>
  <course>300.59</course>
  <speed>0.0</speed>
  <fix>3d</fix>
</trkpt>
<trkpt lat="40.072845" lon="-105.2305758">
  <ele>1597.37</ele>
  <time>2026-08-28T19:08:00Z</time>
  <course>152.97</course>
  <speed>0.01</speed>
  <fix>3d</fix>
</trkpt>
<trkpt lat="40.0728449" lon="-105.2305756">
  <ele>1597.57</ele>
  <time>2026-08-28T19:08:00Z</time>
  <course>293.84</course>
  <speed>0.0</speed>
  <fix>3d</fix>
</trkpt>
<trkpt lat="40.072845" lon="-105.2305758">
  <ele>1597.09</ele>
  <time>2026-08-28T19:08:00Z</time>
  <course>152.71</course>
  <speed>0.02</speed>
  <fix>3d</fix>
</trkpt>
<trkpt lat="40.0728449" lon="-105.2305756">
  <ele>1597.27</ele>
  <time>2026-08-28T19:08:00Z</time>
  <course>280.44</course>
  <speed>0.0</speed>
  <fix>3d</fix>
</trkpt>
<trkpt lat="40.072845" lon="-105.2305758">
  <ele>1596.83</ele>
  <time>2026-08-28T19:08:00Z</time>
  <course>152.37</course>
  <speed>0.01</speed>
  <fix>3d</fix>
</trkpt>
<trkpt lat="40.0728449" lon="-105.2305756">
  <ele>1596.99</ele>
  <time>2026-08-28T19:08:00Z</time>
  <course>284.97</course>
  <speed>0.0</speed>
  <fix>3d</fix>
</trkpt>
<trkpt lat="40.072845" lon="-105.2305758">
  <ele>1596.62</ele>
  <time>2026-08-28T19:08:00Z</time>
  <course>152.05</course>
  <speed>0.01414213562373095</speed>
  <fix>3d</fix>
</trkpt>
<trkpt lat="40.0728449" lon="-105.2305756">
  <ele>1596.75</ele>
  <time>2026-08-28T19:08:00Z</time>
  <course>330.02</course>
  <speed>0.0</speed>
  <fix>3d</fix>
</trkpt>
<trkpt lat="40.072845" lon="-105.2305758">
  <ele>1596.44</ele>
  <time>2026-08-28T19:08:00Z</time>
  <course>151.73</course>
  <speed>0.01414213562373095</speed>
  <fix>3d</fix>
</trkpt>
<trkpt lat="40.0728449" lon="-105.2305756">
  <ele>1596.54</ele>
  <time>2026-08-28T19:08:00Z</time>
  <course>17.05</course>
  <speed>0.0</speed>
  <fix>3d</fix>
</trkpt>
<trkpt lat="40.072845" lon="-105.2305758">
  <ele>1596.31</ele>
  <time>2026-08-28T19:08:00Z</time>
  <course>151.51</course>
  <speed>0.01</speed>
  <fix>3d</fix>
</trkpt>
<trkpt lat="40.072845" lon="-105.2305756">
  <ele>1596.38</ele>
  <time>2026-08-28T19:08:00Z</time>
  <course>34.0</course>
  <speed>0.01</speed>
  <fix>3d</fix>
</trkpt>
<trkpt lat="40.072845" lon="-105.2305758">
  <ele>1596.22</ele>
  <time>2026-08-28T19:08:00Z</time>
  <course>151.53</course>
  <speed>0.02</speed>
  <fix>3d</fix>
</trkpt>
<trkpt lat="40.072845" lon="-105.2305756">
  <ele>1596.26</ele>
  <time>2026-08-28T19:08:00Z</time>
  <course>41.05</course>
  <speed>0.01</speed>
  <fix>3d</fix>
</trkpt>
<trkpt lat="40.072845" lon="-105.2305757">
  <ele>1596.13</ele>
  <time>2026-08-28T19:08:00Z</time>
  <course>151.62</course>
  <speed>0.02</speed>
  <fix>3d</fix>
</trkpt>
<trkpt lat="40.072845" lon="-105.2305756">
  <ele>1596.16</ele>
  <time>2026-08-28T19:08:00Z</time>
  <course>44.69</course>
  <speed>0.02</speed>
  <fix>3d</fix>
</trkpt>
<trkpt lat="40.072845" lon="-105.2305757">
  <ele>1596.06</ele>
  <time>2026-08-28T19:08:00Z</time>
  <course>151.73</course>
  <speed>0.02</speed>
  <fix>3d</fix>
</trkpt>
<trkpt lat="40.072845" lon="-105.2305756">
  <ele>1596.09</ele>
  <time>2026-08-28T19:08:00Z</time>
  <course>47.32</course>
  <speed>0.02</speed>
  <fix>3d</fix>
</trkpt>
<trkpt lat="40.0728451" lon="-105.2305756">
  <ele>1595.98</ele>
  <time>2026-08-28T19:08:00Z</time>
  <course>151.79</course>
  <speed>0.02</speed>
  <fix>3d</fix>
</trkpt>
<trkpt lat="40.072845" lon="-105.2305756">
  <ele>1596.01</ele>
  <time>2026-08-28T19:08:00Z</time>
  <course>50.02</course>
  <speed>0.02</speed>
  <fix>3d</fix>
</trkpt>
<trkpt lat="40.0728451" lon="-105.2305756">
  <ele>1595.9</ele>
  <time>2026-08-28T19:08:00Z</time>
  <course>151.89</course>
  <speed>0.02</speed>
  <fix>3d</fix>
</trkpt>
<trkpt lat="40.072845" lon="-105.2305756">
  <ele>1595.94</ele>
  <time>2026-08-28T19:08:00Z</time>
  <course>53.17</course>
  <speed>0.02</speed>
  <fix>3d</fix>
</trkpt>
<trkpt lat="40.0728451" lon="-105.2305756">
  <ele>1595.82</ele>
  <time>2026-08-28T19:08:00Z</time>
  <course>151.94</course>
  <speed>0.01</speed>
  <fix>3d</fix>
</trkpt>
<trkpt lat="40.0728451" lon="-105.2305755">
  <ele>1595.86</ele>
  <time>2026-08-28T19:08:00Z</time>
  <course>56.73</course>
  <speed>0.02</speed>
  <fix>3d</fix>
</trkpt>
<trkpt lat="40.0728451" lon="-105.2305755">
  <ele>1595.73</ele>
  <time>2026-08-28T19:08:00Z</time>
  <course>152.0</course>
  <speed>0.01</speed>
  <fix>3d</fix>
</trkpt>
<trkpt lat="40.0728451" lon="-105.2305755">
  <ele>1595.77</ele>
  <time>2026-08-28T19:08:00Z</time>
  <course>61.14</course>
  <speed>0.02</speed>
  <fix>3d</fix>
</trkpt>
<trkpt lat="40.0728451" lon="-105.2305755">
  <ele>1595.64</ele>
  <time>2026-08-28T19:08:00Z</time>
  <course>152.05</course>
  <speed>0.01</speed>
  <fix>3d</fix>
</trkpt>
<trkpt lat="40.0728451" lon="-105.2305754">
  <ele>1595.67</ele>
  <time>2026-08-28T19:08:00Z</time>
  <course>66.8</course>
  <speed>0.02</speed>
  <fix>3d</fix>
</trkpt>
<trkpt lat="40.0728451" lon="-105.2305755">
  <ele>1595.54</ele>
  <time>2026-08-28T19:08:00Z</time>
  <course>152.09</course>
  <speed>0.0</speed>
  <fix>3d</fix>
</trkpt>
<trkpt lat="40.0728451" lon="-105.2305753">
  <ele>1595.58</ele>
  <time>2026-08-28T19:08:00Z</time>
  <course>73.42</course>
  <speed>0.01</speed>
  <fix>3d</fix>
</trkpt>
<trkpt lat="40.0728451" lon="-105.2305755">
  <ele>1595.45</ele>
  <time>2026-08-28T19:08:00Z</time>
  <course>152.11</course>
  <speed>0.01</speed>
  <fix>3d</fix>
</trkpt>
<trkpt lat="40.0728451" lon="-105.2305753">
  <ele>1595.49</ele>
  <time>2026-08-28T19:08:00Z</time>
  <course>81.39</course>
  <speed>0.01</speed>
  <fix>3d</fix>
</trkpt>
<trkpt lat="40.0728451" lon="-105.2305755">
  <ele>1595.35</ele>
  <time>2026-08-28T19:08:00Z</time>
  <course>152.13</course>
  <speed>0.01</speed>
  <fix>3d</fix>
</trkpt>
<trkpt lat="40.0728451" lon="-105.2305753">
  <ele>1595.38</ele>
  <time>2026-08-28T19:08:00Z</time>
  <course>93.63</course>
  <speed>0.0</speed>
  <fix>3d</fix>
</trkpt>
<trkpt lat="40.0728451" lon="-105.2305755">
  <ele>1595.25</ele>
  <time>2026-08-28T19:08:00Z</time>
  <course>152.14</course>
  <speed>0.01</speed>
  <fix>3d</fix>
</trkpt>
<trkpt lat="40.0728451" lon="-105.2305753">
  <ele>1595.28</ele>
  <time>2026-08-28T19:08:00Z</time>
  <course>115.46</course>
  <speed>0.0</speed>
  <fix>3d</fix>
</trkpt>
<trkpt lat="40.0728451" lon="-105.2305755">
  <ele>1595.15</ele>
  <time>2026-08-28T19:08:00Z</time>
  <course>152.17</course>
  <speed>0.02</speed>
  <fix>3d</fix>
</trkpt>
<trkpt lat="40.0728451" lon="-105.2305753">
  <ele>1595.17</ele>
  <time>2026-08-28T19:08:00Z</time>
  <course>149.82</course>
  <speed>0.0</speed>
  <fix>3d</fix>
</trkpt>
<trkpt lat="40.0728451" lon="-105.2305754">
  <ele>1595.05</ele>
  <time>2026-08-28T19:08:00Z</time>
  <course>152.19</course>
  <speed>0.02</speed>
  <fix>3d</fix>
</trkpt>
<trkpt lat="40.0728451" lon="-105.2305753">
  <ele>1595.08</ele>
  <time>2026-08-28T19:08:00Z</time>
  <course>182.45</course>
  <speed>0.0</speed>
  <fix>3d</fix>
</trkpt>
<trkpt lat="40.0728451" lon="-105.2305754">
  <ele>1594.95</ele>
  <time>2026-08-28T19:08:00Z</time>
  <course>152.2</course>
  <speed>0.02</speed>
  <fix>3d</fix>
</trkpt>
<trkpt lat="40.0728451" lon="-105.2305753">
  <ele>1594.98</ele>
  <time>2026-08-28T19:08:00Z</time>
  <course>200.49</course>
  <speed>0.0</speed>
  <fix>3d</fix>
</trkpt>
<trkpt lat="40.0728451" lon="-105.2305754">
  <ele>1594.85</ele>
  <time>2026-08-28T19:08:00Z</time>
  <course>152.21</course>
  <speed>0.02</speed>
  <fix>3d</fix>
</trkpt>
<trkpt lat="40.0728451" lon="-105.2305753">
  <ele>1594.87</ele>
  <time>2026-08-28T19:08:00Z</time>
  <course>208.82</course>
  <speed>0.01</speed>
  <fix>3d</fix>
</trkpt>
<trkpt lat="40.0728451" lon="-105.2305754">
  <ele>1594.74</ele>
  <time>2026-08-28T19:08:00Z</time>
  <course>152.22</course>
  <speed>0.02</speed>
  <fix>3d</fix>
</trkpt>
<trkpt lat="40.0728451" lon="-105.2305753">
  <ele>1594.77</ele>
  <time>2026-08-28T19:08:00Z</time>
  <course>213.23</course>
  <speed>0.01</speed>
  <fix>3d</fix>
</trkpt>
<trkpt lat="40.0728451" lon="-105.2305754">
  <ele>1594.64</ele>
  <time>2026-08-28T19:08:00Z</time>
  <course>152.23</course>
  <speed>0.03</speed>
  <fix>3d</fix>
</trkpt>
<trkpt lat="40.0728451" lon="-105.2305753">
  <ele>1594.66</ele>
  <time>2026-08-28T19:08:00Z</time>
  <course>216.91</course>
  <speed>0.01</speed>
  <fix>3d</fix>
</trkpt>
<trkpt lat="40.0728451" lon="-105.2305755">
  <ele>1594.54</ele>
  <time>2026-08-28T19:08:00Z</time>
  <course>152.24</course>
  <speed>0.03</speed>
  <fix>3d</fix>
</trkpt>
<trkpt lat="40.0728451" lon="-105.2305753">
  <ele>1594.57</ele>
  <time>2026-08-28T19:08:00Z</time>
  <course>220.31</course>
  <speed>0.01</speed>
  <fix>3d</fix>
</trkpt>
<trkpt lat="40.0728451" lon="-105.2305755">
  <ele>1594.44</ele>
  <time>2026-08-28T19:08:00Z</time>
  <course>152.27</course>
  <speed>0.03</speed>
  <fix>3d</fix>
</trkpt>
<trkpt lat="40.0728451" lon="-105.2305753">
  <ele>1594.46</ele>
  <time>2026-08-28T19:08:00Z</time>
  <course>222.52</course>
  <speed>0.01</speed>
  <fix>3d</fix>
</trkpt>
<trkpt lat="40.0728451" lon="-105.2305755">
  <ele>1594.34</ele>
  <time>2026-08-28T19:08:00Z</time>
  <course>152.27</course>
  <speed>0.03</speed>
  <fix>3d</fix>
</trkpt>
<trkpt lat="40.0728451" lon="-105.2305753">
  <ele>1594.36</ele>
  <time>2026-08-28T19:08:00Z</time>
  <course>224.26</course>
  <speed>0.01</speed>
  <fix>3d</fix>
</trkpt>
<trkpt lat="40.0728451" lon="-105.2305755">
  <ele>1594.23</ele>
  <time>2026-08-28T19:08:00Z</time>
  <course>152.28</course>
  <speed>0.03</speed>
  <fix>3d</fix>
</trkpt>
<trkpt lat="40.072845" lon="-105.2305753">
  <ele>1594.26</ele>
  <time>2026-08-28T19:08:00Z</time>
  <course>226.74</course>
  <speed>0.01</speed>
  <fix>3d</fix>
</trkpt>
<trkpt lat="40.072845" lon="-105.2305756">
  <ele>1594.13</ele>
  <time>2026-08-28T19:08:00Z</time>
  <course>152.29</course>
  <speed>0.03</speed>
  <fix>3d</fix>
</trkpt>
<trkpt lat="40.072845" lon="-105.2305753">
  <ele>1594.15</ele>
  <time>2026-08-28T19:08:00Z</time>
  <course>228.65</course>
  <speed>0.01</speed>
  <fix>3d</fix>
</trkpt>
<trkpt lat="40.072845" lon="-105.2305756">
  <ele>1594.03</ele>
  <time>2026-08-28T19:08:00Z</time>
  <course>152.32</course>
  <speed>0.03</speed>
  <fix>3d</fix>
</trkpt>
<trkpt lat="40.072845" lon="-105.2305754">
  <ele>1594.06</ele>
  <time>2026-08-28T19:08:00Z</time>
  <course>229.79</course>
  <speed>0.01</speed>
  <fix>3d</fix>
</trkpt>
<trkpt lat="40.072845" lon="-105.2305756">
  <ele>1593.93</ele>
  <time>2026-08-28T19:08:00Z</time>
  <course>152.31</course>
  <speed>0.03</speed>
  <fix>3d</fix>
</trkpt>
<trkpt lat="40.072845" lon="-105.2305755">
  <ele>1593.96</ele>
  <time>2026-08-28T19:08:00Z</time>
  <course>231.39</course>
  <speed>0.01</speed>
  <fix>3d</fix>
</trkpt>
<trkpt lat="40.072845" lon="-105.2305756">
  <ele>1593.84</ele>
  <time>2026-08-28T19:08:00Z</time>
  <course>152.34</course>
  <speed>0.03</speed>
  <fix>3d</fix>
</trkpt>
<trkpt lat="40.072845" lon="-105.2305755">
  <ele>1593.86</ele>
  <time>2026-08-28T19:08:00Z</time>
  <course>233.55</course>
  <speed>0.01</speed>
  <fix>3d</fix>
</trkpt>
<trkpt lat="40.072845" lon="-105.2305757">
  <ele>1593.74</ele>
  <time>2026-08-28T19:08:00Z</time>
  <course>152.36</course>
  <speed>0.02</speed>
  <fix>3d</fix>
</trkpt>
<trkpt lat="40.072845" lon="-105.2305755">
  <ele>1593.76</ele>
  <time>2026-08-28T19:08:00Z</time>
  <course>235.62</course>
  <speed>0.01</speed>
  <fix>3d</fix>
</trkpt>
<trkpt lat="40.072845" lon="-105.2305757">
  <ele>1593.64</ele>
  <time>2026-08-28T19:08:00Z</time>
  <course>152.37</course>
  <speed>0.02</speed>
  <fix>3d</fix>
</trkpt>
<trkpt lat="40.072845" lon="-105.2305755">
  <ele>1593.65</ele>
  <time>2026-08-28T19:08:00Z</time>
  <course>236.5</course>
  <speed>0.01</speed>
  <fix>3d</fix>
</trkpt>
<trkpt lat="40.072845" lon="-105.2305757">
  <ele>1593.54</ele>
  <time>2026-08-28T19:08:00Z</time>
  <course>152.37</course>
  <speed>0.02</speed>
  <fix>3d</fix>
</trkpt>
<trkpt lat="40.072845" lon="-105.2305756">
  <ele>1593.56</ele>
  <time>2026-08-28T19:08:00Z</time>
  <course>236.66</course>
  <speed>0.01</speed>
  <fix>3d</fix>
</trkpt>
<trkpt lat="40.072845" lon="-105.2305757">
  <ele>1593.43</ele>
  <time>2026-08-28T19:08:00Z</time>
  <course>152.38</course>
  <speed>0.02</speed>
  <fix>3d</fix>
</trkpt>
<trkpt lat="40.072845" lon="-105.2305756">
  <ele>1593.46</ele>
  <time>2026-08-28T19:08:00Z</time>
  <course>236.76</course>
  <speed>0.01</speed>
  <fix>3d</fix>
</trkpt>
<trkpt lat="40.072845" lon="-105.2305757">
  <ele>1593.33</ele>
  <time>2026-08-28T19:08:00Z</time>
  <course>152.41</course>
  <speed>0.02</speed>
  <fix>3d</fix>
</trkpt>
<trkpt lat="40.072845" lon="-105.2305756">
  <ele>1593.36</ele>
  <time>2026-08-28T19:08:00Z</time>
  <course>235.87</course>
  <speed>0.01</speed>
  <fix>3d</fix>
</trkpt>
<trkpt lat="40.072845" lon="-105.2305758">
  <ele>1593.23</ele>
  <time>2026-08-28T19:08:00Z</time>
  <course>152.41</course>
  <speed>0.02</speed>
  <fix>3d</fix>
</trkpt>
<trkpt lat="40.072845" lon="-105.2305756">
  <ele>1593.26</ele>
  <time>2026-08-28T19:08:00Z</time>
  <course>233.19</course>
  <speed>0.0</speed>
  <fix>3d</fix>
</trkpt>
<trkpt lat="40.072845" lon="-105.2305758">
  <ele>1593.13</ele>
  <time>2026-08-28T19:08:00Z</time>
  <course>152.43</course>
  <speed>0.02</speed>
  <fix>3d</fix>
</trkpt>
<trkpt lat="40.0728449" lon="-105.2305756">
  <ele>1593.15</ele>
  <time>2026-08-28T19:08:00Z</time>
  <course>228.36</course>
  <speed>0.0</speed>
  <fix>3d</fix>
</trkpt>
<trkpt lat="40.072845" lon="-105.2305758">
  <ele>1593.03</ele>
  <time>2026-08-28T19:08:00Z</time>
  <course>152.42</course>
  <speed>0.02</speed>
  <fix>3d</fix>
</trkpt>
<trkpt lat="40.0728449" lon="-105.2305756">
  <ele>1593.06</ele>
  <time>2026-08-28T19:08:00Z</time>
  <course>221.98</course>
  <speed>0.0</speed>
  <fix>3d</fix>
</trkpt>
<trkpt lat="40.072845" lon="-105.2305758">
  <ele>1592.93</ele>
  <time>2026-08-28T19:08:00Z</time>
  <course>152.42</course>
  <speed>0.01</speed>
  <fix>3d</fix>
</trkpt>
<trkpt lat="40.0728449" lon="-105.2305756">
  <ele>1592.96</ele>
  <time>2026-08-28T19:08:00Z</time>
  <course>216.04</course>
  <speed>0.0</speed>
  <fix>3d</fix>
</trkpt>
<trkpt lat="40.072845" lon="-105.2305758">
  <ele>1592.83</ele>
  <time>2026-08-28T19:08:00Z</time>
  <course>152.47</course>
  <speed>0.01</speed>
  <fix>3d</fix>
</trkpt>
<trkpt lat="40.0728449" lon="-105.2305756">
  <ele>1592.86</ele>
  <time>2026-08-28T19:08:00Z</time>
  <course>210.09</course>
  <speed>0.0</speed>
  <fix>3d</fix>
</trkpt>
<trkpt lat="40.072845" lon="-105.2305758">
  <ele>1592.74</ele>
  <time>2026-08-28T19:08:00Z</time>
  <course>152.46</course>
  <speed>0.01</speed>
  <fix>3d</fix>
</trkpt>
<trkpt lat="40.0728449" lon="-105.2305756">
  <ele>1592.76</ele>
  <time>2026-08-28T19:08:00Z</time>
  <course>205.04</course>
  <speed>0.0</speed>
  <fix>3d</fix>
</trkpt>
<trkpt lat="40.072845" lon="-105.2305758">
  <ele>1592.64</ele>
  <time>2026-08-28T19:08:00Z</time>
  <course>152.49</course>
  <speed>0.01</speed>
  <fix>3d</fix>
</trkpt>
<trkpt lat="40.0728449" lon="-105.2305756">
  <ele>1592.65</ele>
  <time>2026-08-28T19:08:00Z</time>
  <course>202.3</course>
  <speed>0.0</speed>
  <fix>3d</fix>
</trkpt>
<trkpt lat="40.072845" lon="-105.2305758">
  <ele>1592.54</ele>
  <time>2026-08-28T19:08:00Z</time>
  <course>152.5</course>
  <speed>0.01</speed>
  <fix>3d</fix>
</trkpt>
<trkpt lat="40.0728449" lon="-105.2305756">
  <ele>1592.56</ele>
  <time>2026-08-28T19:08:00Z</time>
  <course>203.1</course>
  <speed>0.0</speed>
  <fix>3d</fix>
</trkpt>
<trkpt lat="40.072845" lon="-105.2305757">
  <ele>1592.44</ele>
  <time>2026-08-28T19:08:00Z</time>
  <course>152.51</course>
  <speed>0.01</speed>
  <fix>3d</fix>
</trkpt>
<trkpt lat="40.0728449" lon="-105.2305756">
  <ele>1592.46</ele>
  <time>2026-08-28T19:08:00Z</time>
  <course>209.45</course>
  <speed>0.0</speed>
  <fix>3d</fix>
</trkpt>
<trkpt lat="40.072845" lon="-105.2305757">
  <ele>1592.34</ele>
  <time>2026-08-28T19:08:00Z</time>
  <course>152.52</course>
  <speed>0.01</speed>
  <fix>3d</fix>
</trkpt>
<trkpt lat="40.0728449" lon="-105.2305756">
  <ele>1592.36</ele>
  <time>2026-08-28T19:08:00Z</time>
  <course>217.31</course>
  <speed>0.0</speed>
  <fix>3d</fix>
</trkpt>
<trkpt lat="40.072845" lon="-105.2305757">
  <ele>1592.24</ele>
  <time>2026-08-28T19:08:01Z</time>
  <course>152.53</course>
  <speed>0.01</speed>
  <fix>3d</fix>
</trkpt>
<trkpt lat="40.0728449" lon="-105.2305756">
  <ele>1592.26</ele>
  <time>2026-08-28T19:08:01Z</time>
  <course>222.98</course>
  <speed>0.0</speed>
  <fix>3d</fix>
</trkpt>
<trkpt lat="40.072845" lon="-105.2305757">
  <ele>1592.14</ele>
  <time>2026-08-28T19:08:01Z</time>
  <course>152.53</course>
  <speed>0.01</speed>
  <fix>3d</fix>
</trkpt>
<trkpt lat="40.0728449" lon="-105.2305756">
  <ele>1592.15</ele>
  <time>2026-08-28T19:08:01Z</time>
  <course>232.17</course>
  <speed>0.0</speed>
  <fix>3d</fix>
</trkpt>
<trkpt lat="40.072845" lon="-105.2305757">
  <ele>1592.04</ele>
  <time>2026-08-28T19:08:01Z</time>
  <course>152.55</course>
  <speed>0.01</speed>
  <fix>3d</fix>
</trkpt>
<trkpt lat="40.0728449" lon="-105.2305756">
  <ele>1592.06</ele>
  <time>2026-08-28T19:08:01Z</time>
  <course>244.36</course>
  <speed>0.0</speed>
  <fix>3d</fix>
</trkpt>
<trkpt lat="40.072845" lon="-105.2305757">
  <ele>1591.94</ele>
  <time>2026-08-28T19:08:01Z</time>
  <course>152.57</course>
  <speed>0.01</speed>
  <fix>3d</fix>
</trkpt>
<trkpt lat="40.0728449" lon="-105.2305756">
  <ele>1591.96</ele>
  <time>2026-08-28T19:08:01Z</time>
  <course>257.37</course>
  <speed>0.0</speed>
  <fix>3d</fix>
</trkpt>
<trkpt lat="40.072845" lon="-105.2305757">
  <ele>1591.84</ele>
  <time>2026-08-28T19:08:01Z</time>
  <course>152.56</course>
  <speed>0.01</speed>
  <fix>3d</fix>
</trkpt>
<trkpt lat="40.0728449" lon="-105.2305756">
  <ele>1591.86</ele>
  <time>2026-08-28T19:08:01Z</time>
  <course>269.04</course>
  <speed>0.0</speed>
  <fix>3d</fix>
</trkpt>
<trkpt lat="40.072845" lon="-105.2305757">
  <ele>1591.74</ele>
  <time>2026-08-28T19:08:01Z</time>
  <course>152.56</course>
  <speed>0.01</speed>
  <fix>3d</fix>
</trkpt>
<trkpt lat="40.0728449" lon="-105.2305756">
  <ele>1591.76</ele>
  <time>2026-08-28T19:08:01Z</time>
  <course>277.5</course>
  <speed>0.0</speed>
  <fix>3d</fix>
</trkpt>
<trkpt lat="40.072845" lon="-105.2305757">
  <ele>1591.64</ele>
  <time>2026-08-28T19:08:01Z</time>
  <course>152.59</course>
  <speed>0.01</speed>
  <fix>3d</fix>
</trkpt>
<trkpt lat="40.0728449" lon="-105.2305757">
  <ele>1591.65</ele>
  <time>2026-08-28T19:08:01Z</time>
  <course>284.77</course>
  <speed>0.0</speed>
  <fix>3d</fix>
</trkpt>
<trkpt lat="40.072845" lon="-105.2305757">
  <ele>1591.54</ele>
  <time>2026-08-28T19:08:01Z</time>
  <course>152.59</course>
  <speed>0.01</speed>
  <fix>3d</fix>
</trkpt>
<trkpt lat="40.0728449" lon="-105.2305758">
  <ele>1591.55</ele>
  <time>2026-08-28T19:08:01Z</time>
  <course>289.73</course>
  <speed>0.0</speed>
  <fix>3d</fix>
</trkpt>
<trkpt lat="40.072845" lon="-105.2305758">
  <ele>1591.44</ele>
  <time>2026-08-28T19:08:01Z</time>
  <course>152.6</course>
  <speed>0.01</speed>
  <fix>3d</fix>
</trkpt>
<trkpt lat="40.0728449" lon="-105.2305758">
  <ele>1591.45</ele>
  <time>2026-08-28T19:08:01Z</time>
  <course>288.88</course>
  <speed>0.0</speed>
  <fix>3d</fix>
</trkpt>
<trkpt lat="40.072845" lon="-105.2305758">
  <ele>1591.34</ele>
  <time>2026-08-28T19:08:01Z</time>
  <course>152.61</course>
  <speed>0.01</speed>
  <fix>3d</fix>
</trkpt>
<trkpt lat="40.0728449" lon="-105.2305758">
  <ele>1591.35</ele>
  <time>2026-08-28T19:08:01Z</time>
  <course>292.48</course>
  <speed>0.0</speed>
  <fix>3d</fix>
</trkpt>
<trkpt lat="40.072845" lon="-105.2305758">
  <ele>1591.24</ele>
  <time>2026-08-28T19:08:01Z</time>
  <course>152.63</course>
  <speed>0.01</speed>
  <fix>3d</fix>
</trkpt>
<trkpt lat="40.0728449" lon="-105.2305758">
  <ele>1591.25</ele>
  <time>2026-08-28T19:08:01Z</time>
  <course>302.52</course>
  <speed>0.0</speed>
  <fix>3d</fix>
</trkpt>
<trkpt lat="40.072845" lon="-105.2305758">
  <ele>1591.13</ele>
  <time>2026-08-28T19:08:01Z</time>
  <course>152.6</course>
  <speed>0.01</speed>
  <fix>3d</fix>
</trkpt>
<trkpt lat="40.0728449" lon="-105.2305758">
  <ele>1591.14</ele>
  <time>2026-08-28T19:08:01Z</time>
  <course>350.25</course>
  <speed>0.0</speed>
  <fix>3d</fix>
</trkpt>
<trkpt lat="40.072845" lon="-105.2305758">
  <ele>1591.03</ele>
  <time>2026-08-28T19:08:01Z</time>
  <course>152.62</course>
  <speed>0.01</speed>
  <fix>3d</fix>
</trkpt>
<trkpt lat="40.0728449" lon="-105.2305758">
  <ele>1591.05</ele>
  <time>2026-08-28T19:08:01Z</time>
  <course>54.8</course>
  <speed>0.0</speed>
  <fix>3d</fix>
</trkpt>
<trkpt lat="40.072845" lon="-105.2305758">
  <ele>1590.93</ele>
  <time>2026-08-28T19:08:01Z</time>
  <course>152.61</course>
  <speed>0.01</speed>
  <fix>3d</fix>
</trkpt>
<trkpt lat="40.0728449" lon="-105.2305758">
  <ele>1590.95</ele>
  <time>2026-08-28T19:08:01Z</time>
  <course>70.48</course>
  <speed>0.0</speed>
  <fix>3d</fix>
</trkpt>
<trkpt lat="40.072845" lon="-105.2305758">
  <ele>1590.83</ele>
  <time>2026-08-28T19:08:01Z</time>
  <course>152.63</course>
  <speed>0.01</speed>
  <fix>3d</fix>
</trkpt>
<trkpt lat="40.0728449" lon="-105.2305758">
  <ele>1590.85</ele>
  <time>2026-08-28T19:08:01Z</time>
  <course>73.49</course>
  <speed>0.0</speed>
  <fix>3d</fix>
</trkpt>
<trkpt lat="40.072845" lon="-105.2305758">
  <ele>1590.73</ele>
  <time>2026-08-28T19:08:01Z</time>
  <course>152.64</course>
  <speed>0.01</speed>
  <fix>3d</fix>
</trkpt>
<trkpt lat="40.0728449" lon="-105.2305758">
  <ele>1590.75</ele>
  <time>2026-08-28T19:08:01Z</time>
  <course>75.18</course>
  <speed>0.0</speed>
  <fix>3d</fix>
</trkpt>
<trkpt lat="40.072845" lon="-105.2305758">
  <ele>1590.63</ele>
  <time>2026-08-28T19:08:01Z</time>
  <course>152.63</course>
  <speed>0.01</speed>
  <fix>3d</fix>
</trkpt>
<trkpt lat="40.0728449" lon="-105.2305758">
  <ele>1590.64</ele>
  <time>2026-08-28T19:08:01Z</time>
  <course>77.6</course>
  <speed>0.0</speed>
  <fix>3d</fix>
</trkpt>
<trkpt lat="40.072845" lon="-105.2305758">
  <ele>1590.53</ele>
  <time>2026-08-28T19:08:01Z</time>
  <course>152.65</course>
  <speed>0.01</speed>
  <fix>3d</fix>
</trkpt>
<trkpt lat="40.0728449" lon="-105.2305758">
  <ele>1590.55</ele>
  <time>2026-08-28T19:08:01Z</time>
  <course>77.82</course>
  <speed>0.0</speed>
  <fix>3d</fix>
</trkpt>
<trkpt lat="40.072845" lon="-105.2305758">
  <ele>1590.44</ele>
  <time>2026-08-28T19:08:01Z</time>
  <course>152.65</course>
  <speed>0.01</speed>
  <fix>3d</fix>
</trkpt>
<trkpt lat="40.0728449" lon="-105.2305758">
  <ele>1590.45</ele>
  <time>2026-08-28T19:08:01Z</time>
  <course>77.75</course>
  <speed>0.0</speed>
  <fix>3d</fix>
</trkpt>
<trkpt lat="40.072845" lon="-105.2305758">
  <ele>1590.34</ele>
  <time>2026-08-28T19:08:01Z</time>
  <course>152.68</course>
  <speed>0.01</speed>
  <fix>3d</fix>
</trkpt>
<trkpt lat="40.0728449" lon="-105.2305758">
  <ele>1590.35</ele>
  <time>2026-08-28T19:08:01Z</time>
  <course>78.2</course>
  <speed>0.0</speed>
  <fix>3d</fix>
</trkpt>
<trkpt lat="40.072845" lon="-105.2305758">
  <ele>1590.23</ele>
  <time>2026-08-28T19:08:01Z</time>
  <course>152.69</course>
  <speed>0.01</speed>
  <fix>3d</fix>
</trkpt>
<trkpt lat="40.0728449" lon="-105.2305757">
  <ele>1590.25</ele>
  <time>2026-08-28T19:08:01Z</time>
  <course>77.97</course>
  <speed>0.0</speed>
  <fix>3d</fix>
</trkpt>
<trkpt lat="40.072845" lon="-105.2305758">
  <ele>1590.13</ele>
  <time>2026-08-28T19:08:01Z</time>
  <course>152.67</course>
  <speed>0.01</speed>
  <fix>3d</fix>
</trkpt>
<trkpt lat="40.0728449" lon="-105.2305756">
  <ele>1590.14</ele>
  <time>2026-08-28T19:08:01Z</time>
  <course>77.88</course>
  <speed>0.0</speed>
  <fix>3d</fix>
</trkpt>
<trkpt lat="40.072845" lon="-105.2305758">
  <ele>1590.03</ele>
  <time>2026-08-28T19:08:01Z</time>
  <course>152.7</course>
  <speed>0.01</speed>
  <fix>3d</fix>
</trkpt>
<trkpt lat="40.0728449" lon="-105.2305756">
  <ele>1590.05</ele>
  <time>2026-08-28T19:08:01Z</time>
  <course>78.37</course>
  <speed>0.0</speed>
  <fix>3d</fix>
</trkpt>
<trkpt lat="40.072845" lon="-105.2305758">
  <ele>1589.93</ele>
  <time>2026-08-28T19:08:01Z</time>
  <course>152.68</course>
  <speed>0.01</speed>
  <fix>3d</fix>
</trkpt>
<trkpt lat="40.0728449" lon="-105.2305756">
  <ele>1589.95</ele>
  <time>2026-08-28T19:08:01Z</time>
  <course>78.26</course>
  <speed>0.0</speed>
  <fix>3d</fix>
</trkpt>
<trkpt lat="40.072845" lon="-105.2305758">
  <ele>1589.83</ele>
  <time>2026-08-28T19:08:01Z</time>
  <course>152.7</course>
  <speed>0.01</speed>
  <fix>3d</fix>
</trkpt>
<trkpt lat="40.0728449" lon="-105.2305756">
  <ele>1589.86</ele>
  <time>2026-08-28T19:08:01Z</time>
  <course>76.61</course>
  <speed>0.0</speed>
  <fix>3d</fix>
</trkpt>
<trkpt lat="40.072845" lon="-105.2305758">
  <ele>1589.73</ele>
  <time>2026-08-28T19:08:01Z</time>
  <course>152.7</course>
  <speed>0.01</speed>
  <fix>3d</fix>
</trkpt>
<trkpt lat="40.0728449" lon="-105.2305756">
  <ele>1589.76</ele>
  <time>2026-08-28T19:08:01Z</time>
  <course>74.8</course>
  <speed>0.0</speed>
  <fix>3d</fix>
</trkpt>
<trkpt lat="40.072845" lon="-105.2305758">
  <ele>1589.64</ele>
  <time>2026-08-28T19:08:01Z</time>
  <course>152.71</course>
  <speed>0.01</speed>
  <fix>3d</fix>
</trkpt>
<trkpt lat="40.0728449" lon="-105.2305756">
  <ele>1589.65</ele>
  <time>2026-08-28T19:08:01Z</time>
  <course>72.22</course>
  <speed>0.0</speed>
  <fix>3d</fix>
</trkpt>
<trkpt lat="40.072845" lon="-105.2305758">
  <ele>1589.54</ele>
  <time>2026-08-28T19:08:01Z</time>
  <course>152.72</course>
  <speed>0.01</speed>
  <fix>3d</fix>
</trkpt>
<trkpt lat="40.0728449" lon="-105.2305756">
  <ele>1589.56</ele>
  <time>2026-08-28T19:08:01Z</time>
  <course>67.44</course>
  <speed>0.0</speed>
  <fix>3d</fix>
</trkpt>
<trkpt lat="40.072845" lon="-105.2305758">
  <ele>1589.44</ele>
  <time>2026-08-28T19:08:01Z</time>
  <course>152.73</course>
  <speed>0.01</speed>
  <fix>3d</fix>
</trkpt>
<trkpt lat="40.0728449" lon="-105.2305756">
  <ele>1589.46</ele>
  <time>2026-08-28T19:08:01Z</time>
  <course>60.96</course>
  <speed>0.0</speed>
  <fix>3d</fix>
</trkpt>
<trkpt lat="40.072845" lon="-105.2305758">
  <ele>1589.34</ele>
  <time>2026-08-28T19:08:01Z</time>
  <course>152.73</course>
  <speed>0.01</speed>
  <fix>3d</fix>
</trkpt>
<trkpt lat="40.0728449" lon="-105.2305756">
  <ele>1589.36</ele>
  <time>2026-08-28T19:08:01Z</time>
  <course>51.18</course>
  <speed>0.0</speed>
  <fix>3d</fix>
</trkpt>
<trkpt lat="40.072845" lon="-105.2305758">
  <ele>1589.24</ele>
  <time>2026-08-28T19:08:01Z</time>
  <course>152.75</course>
  <speed>0.01</speed>
  <fix>3d</fix>
</trkpt>
<trkpt lat="40.0728449" lon="-105.2305756">
  <ele>1589.26</ele>
  <time>2026-08-28T19:08:01Z</time>
  <course>39.29</course>
  <speed>0.0</speed>
  <fix>3d</fix>
</trkpt>
<trkpt lat="40.072845" lon="-105.2305758">
  <ele>1589.14</ele>
  <time>2026-08-28T19:08:01Z</time>
  <course>152.75</course>
  <speed>0.01</speed>
  <fix>3d</fix>
</trkpt>
<trkpt lat="40.0728449" lon="-105.2305756">
  <ele>1589.15</ele>
  <time>2026-08-28T19:08:01Z</time>
  <course>26.74</course>
  <speed>0.0</speed>
  <fix>3d</fix>
</trkpt>
<trkpt lat="40.072845" lon="-105.2305758">
  <ele>1589.04</ele>
  <time>2026-08-28T19:08:01Z</time>
  <course>152.74</course>
  <speed>0.02</speed>
  <fix>3d</fix>
</trkpt>
<trkpt lat="40.0728449" lon="-105.2305756">
  <ele>1589.06</ele>
  <time>2026-08-28T19:08:01Z</time>
  <course>8.15</course>
  <speed>0.0</speed>
  <fix>3d</fix>
</trkpt>
<trkpt lat="40.072845" lon="-105.2305758">
  <ele>1588.94</ele>
  <time>2026-08-28T19:08:01Z</time>
  <course>152.77</course>
  <speed>0.02</speed>
  <fix>3d</fix>
</trkpt>
<trkpt lat="40.0728449" lon="-105.2305756">
  <ele>1588.96</ele>
  <time>2026-08-28T19:08:01Z</time>
  <course>355.22</course>
  <speed>0.0</speed>
  <fix>3d</fix>
</trkpt>
<trkpt lat="40.072845" lon="-105.2305758">
  <ele>1588.83</ele>
  <time>2026-08-28T19:08:01Z</time>
  <course>152.76</course>
  <speed>0.02</speed>
  <fix>3d</fix>
</trkpt>
<trkpt lat="40.0728449" lon="-105.2305756">
  <ele>1588.86</ele>
  <time>2026-08-28T19:08:01Z</time>
  <course>344.65</course>
  <speed>0.0</speed>
  <fix>3d</fix>
</trkpt>
<trkpt lat="40.072845" lon="-105.2305758">
  <ele>1588.73</ele>
  <time>2026-08-28T19:08:01Z</time>
  <course>152.76</course>
  <speed>0.02</speed>
  <fix>3d</fix>
</trkpt>
<trkpt lat="40.0728449" lon="-105.2305756">
  <ele>1588.76</ele>
  <time>2026-08-28T19:08:01Z</time>
  <course>332.06</course>
  <speed>0.0</speed>
  <fix>3d</fix>
</trkpt>
<trkpt lat="40.072845" lon="-105.2305758">
  <ele>1588.63</ele>
  <time>2026-08-28T19:08:01Z</time>
  <course>152.74</course>
  <speed>0.02</speed>
  <fix>3d</fix>
</trkpt>
<trkpt lat="40.0728449" lon="-105.2305756">
  <ele>1588.65</ele>
  <time>2026-08-28T19:08:01Z</time>
  <course>331.97</course>
  <speed>0.0</speed>
  <fix>3d</fix>
</trkpt>
<trkpt lat="40.072845" lon="-105.2305758">
  <ele>1588.53</ele>
  <time>2026-08-28T19:08:01Z</time>
  <course>152.74</course>
  <speed>0.02</speed>
  <fix>3d</fix>
</trkpt>
<trkpt lat="40.0728449" lon="-105.2305756">
  <ele>1588.56</ele>
  <time>2026-08-28T19:08:01Z</time>
  <course>335.35</course>
  <speed>0.0</speed>
  <fix>3d</fix>
</trkpt>
<trkpt lat="40.072845" lon="-105.2305758">
  <ele>1588.43</ele>
  <time>2026-08-28T19:08:01Z</time>
  <course>152.76</course>
  <speed>0.01</speed>
  <fix>3d</fix>
</trkpt>
<trkpt lat="40.0728449" lon="-105.2305756">
  <ele>1588.46</ele>
  <time>2026-08-28T19:08:01Z</time>
  <course>336.02</course>
  <speed>0.0</speed>
  <fix>3d</fix>
</trkpt>
<trkpt lat="40.072845" lon="-105.2305758">
  <ele>1588.33</ele>
  <time>2026-08-28T19:08:01Z</time>
  <course>152.79</course>
  <speed>0.02</speed>
  <fix>3d</fix>
</trkpt>
<trkpt lat="40.0728449" lon="-105.2305756">
  <ele>1588.36</ele>
  <time>2026-08-28T19:08:01Z</time>
  <course>334.48</course>
  <speed>0.0</speed>
  <fix>3d</fix>
</trkpt>
<trkpt lat="40.072845" lon="-105.2305758">
  <ele>1588.24</ele>
  <time>2026-08-28T19:08:01Z</time>
  <course>152.78</course>
  <speed>0.01</speed>
  <fix>3d</fix>
</trkpt>
<trkpt lat="40.0728449" lon="-105.2305756">
  <ele>1588.26</ele>
  <time>2026-08-28T19:08:01Z</time>
  <course>331.24</course>
  <speed>0.0</speed>
  <fix>3d</fix>
</trkpt>
<trkpt lat="40.072845" lon="-105.2305758">
  <ele>1588.14</ele>
  <time>2026-08-28T19:08:01Z</time>
  <course>152.79</course>
  <speed>0.02</speed>
  <fix>3d</fix>
</trkpt>
<trkpt lat="40.0728449" lon="-105.2305756">
  <ele>1588.15</ele>
  <time>2026-08-28T19:08:01Z</time>
  <course>326.22</course>
  <speed>0.0</speed>
  <fix>3d</fix>
</trkpt>
<trkpt lat="40.072845" lon="-105.2305758">
  <ele>1588.05</ele>
  <time>2026-08-28T19:08:01Z</time>
  <course>152.81</course>
  <speed>0.02</speed>
  <fix>3d</fix>
</trkpt>
<trkpt lat="40.0728449" lon="-105.2305756">
  <ele>1588.06</ele>
  <time>2026-08-28T19:08:01Z</time>
  <course>320.99</course>
  <speed>0.0</speed>
  <fix>3d</fix>
</trkpt>
<trkpt lat="40.072845" lon="-105.2305758">
  <ele>1587.95</ele>
  <time>2026-08-28T19:08:01Z</time>
  <course>152.81</course>
  <speed>0.01</speed>
  <fix>3d</fix>
</trkpt>
<trkpt lat="40.0728449" lon="-105.2305756">
  <ele>1587.96</ele>
  <time>2026-08-28T19:08:01Z</time>
  <course>319.43</course>
  <speed>0.0</speed>
  <fix>3d</fix>
</trkpt>
<trkpt lat="40.072845" lon="-105.2305758">
  <ele>1587.85</ele>
  <time>2026-08-28T19:08:01Z</time>
  <course>152.82</course>
  <speed>0.01</speed>
  <fix>3d</fix>
</trkpt>
<trkpt lat="40.0728449" lon="-105.2305756">
  <ele>1587.86</ele>
  <time>2026-08-28T19:08:01Z</time>
  <course>319.69</course>
  <speed>0.0</speed>
  <fix>3d</fix>
</trkpt>
<trkpt lat="40.072845" lon="-105.2305758">
  <ele>1587.75</ele>
  <time>2026-08-28T19:08:01Z</time>
  <course>152.82</course>
  <speed>0.01</speed>
  <fix>3d</fix>
</trkpt>
<trkpt lat="40.0728449" lon="-105.2305756">
  <ele>1587.76</ele>
  <time>2026-08-28T19:08:01Z</time>
  <course>316.4</course>
  <speed>0.0</speed>
  <fix>3d</fix>
</trkpt>
<trkpt lat="40.072845" lon="-105.2305758">
  <ele>1587.65</ele>
  <time>2026-08-28T19:08:01Z</time>
  <course>152.82</course>
  <speed>0.01</speed>
  <fix>3d</fix>
</trkpt>
<trkpt lat="40.0728449" lon="-105.2305756">
  <ele>1587.65</ele>
  <time>2026-08-28T19:08:01Z</time>
  <course>309.04</course>
  <speed>0.0</speed>
  <fix>3d</fix>
</trkpt>
<trkpt lat="40.072845" lon="-105.2305758">
  <ele>1587.55</ele>
  <time>2026-08-28T19:08:01Z</time>
  <course>152.82</course>
  <speed>0.01</speed>
  <fix>3d</fix>
</trkpt>
<trkpt lat="40.0728449" lon="-105.2305756">
  <ele>1587.55</ele>
  <time>2026-08-28T19:08:01Z</time>
  <course>300.39</course>
  <speed>0.0</speed>
  <fix>3d</fix>
</trkpt>
<trkpt lat="40.072845" lon="-105.2305758">
  <ele>1587.44</ele>
  <time>2026-08-28T19:08:01Z</time>
  <course>152.83</course>
  <speed>0.01</speed>
  <fix>3d</fix>
</trkpt>
<trkpt lat="40.0728449" lon="-105.2305756">
  <ele>1587.45</ele>
  <time>2026-08-28T19:08:01Z</time>
  <course>294.31</course>
  <speed>0.0</speed>
  <fix>3d</fix>
</trkpt>
<trkpt lat="40.072845" lon="-105.2305758">
  <ele>1587.34</ele>
  <time>2026-08-28T19:08:01Z</time>
  <course>152.84</course>
  <speed>0.01</speed>
  <fix>3d</fix>
</trkpt>
<trkpt lat="40.0728449" lon="-105.2305756">
  <ele>1587.35</ele>
  <time>2026-08-28T19:08:01Z</time>
  <course>302.32</course>
  <speed>0.0</speed>
  <fix>3d</fix>
</trkpt>
<trkpt lat="40.072845" lon="-105.2305758">
  <ele>1587.24</ele>
  <time>2026-08-28T19:08:01Z</time>
  <course>152.82</course>
  <speed>0.01</speed>
  <fix>3d</fix>
</trkpt>
<trkpt lat="40.0728449" lon="-105.2305756">
  <ele>1587.25</ele>
  <time>2026-08-28T19:08:01Z</time>
  <course>307.59</course>
  <speed>0.0</speed>
  <fix>3d</fix>
</trkpt>
<trkpt lat="40.072845" lon="-105.2305758">
  <ele>1587.13</ele>
  <time>2026-08-28T19:08:01Z</time>
  <course>152.82</course>
  <speed>0.01</speed>
  <fix>3d</fix>
</trkpt>
<trkpt lat="40.0728449" lon="-105.2305756">
  <ele>1587.14</ele>
  <time>2026-08-28T19:08:01Z</time>
  <course>302.97</course>
  <speed>0.0</speed>
  <fix>3d</fix>
</trkpt>
<trkpt lat="40.072845" lon="-105.2305758">
  <ele>1587.03</ele>
  <time>2026-08-28T19:08:01Z</time>
  <course>152.82</course>
  <speed>0.01</speed>
  <fix>3d</fix>
</trkpt>
<trkpt lat="40.0728449" lon="-105.2305756">
  <ele>1587.04</ele>
  <time>2026-08-28T19:08:01Z</time>
  <course>300.19</course>
  <speed>0.0</speed>
  <fix>3d</fix>
</trkpt>
<trkpt lat="40.072845" lon="-105.2305758">
  <ele>1586.93</ele>
  <time>2026-08-28T19:08:01Z</time>
  <course>152.84</course>
  <speed>0.01</speed>
  <fix>3d</fix>
</trkpt>
<trkpt lat="40.0728449" lon="-105.2305756">
  <ele>1586.94</ele>
  <time>2026-08-28T19:08:01Z</time>
  <course>305.52</course>
  <speed>0.0</speed>
  <fix>3d</fix>
</trkpt>
<trkpt lat="40.072845" lon="-105.2305758">
  <ele>1586.84</ele>
  <time>2026-08-28T19:08:01Z</time>
  <course>152.82</course>
  <speed>0.01</speed>
  <fix>3d</fix>
</trkpt>
<trkpt lat="40.0728449" lon="-105.2305756">
  <ele>1586.84</ele>
  <time>2026-08-28T19:08:01Z</time>
  <course>309.55</course>
  <speed>0.0</speed>
  <fix>3d</fix>
</trkpt>
<trkpt lat="40.072845" lon="-105.2305758">
  <ele>1586.74</ele>
  <time>2026-08-28T19:08:01Z</time>
  <course>152.85</course>
  <speed>0.01</speed>
  <fix>3d</fix>
</trkpt>
<trkpt lat="40.0728449" lon="-105.2305756">
  <ele>1586.74</ele>
  <time>2026-08-28T19:08:01Z</time>
  <course>310.42</course>
  <speed>0.0</speed>
  <fix>3d</fix>
</trkpt>
<trkpt lat="40.072845" lon="-105.2305758">
  <ele>1586.64</ele>
  <time>2026-08-28T19:08:01Z</time>
  <course>152.84</course>
  <speed>0.01</speed>
  <fix>3d</fix>
</trkpt>
<trkpt lat="40.0728449" lon="-105.2305756">
  <ele>1586.63</ele>
  <time>2026-08-28T19:08:01Z</time>
  <course>302.79</course>
  <speed>0.0</speed>
  <fix>3d</fix>
</trkpt>
<trkpt lat="40.072845" lon="-105.2305758">
  <ele>1586.54</ele>
  <time>2026-08-28T19:08:01Z</time>
  <course>152.85</course>
  <speed>0.01</speed>
  <fix>3d</fix>
</trkpt>
<trkpt lat="40.0728449" lon="-105.2305756">
  <ele>1586.54</ele>
  <time>2026-08-28T19:08:01Z</time>
  <course>289.17</course>
  <speed>0.0</speed>
  <fix>3d</fix>
</trkpt>
<trkpt lat="40.072845" lon="-105.2305758">
  <ele>1586.44</ele>
  <time>2026-08-28T19:08:01Z</time>
  <course>152.87</course>
  <speed>0.01</speed>
  <fix>3d</fix>
</trkpt>
<trkpt lat="40.0728449" lon="-105.2305756">
  <ele>1586.44</ele>
  <time>2026-08-28T19:08:01Z</time>
  <course>287.5</course>
  <speed>0.0</speed>
  <fix>3d</fix>
</trkpt>
<trkpt lat="40.072845" lon="-105.2305758">
  <ele>1586.34</ele>
  <time>2026-08-28T19:08:01Z</time>
  <course>152.87</course>
  <speed>0.01</speed>
  <fix>3d</fix>
</trkpt>
<trkpt lat="40.0728449" lon="-105.2305756">
  <ele>1586.34</ele>
  <time>2026-08-28T19:08:01Z</time>
  <course>288.73</course>
  <speed>0.0</speed>
  <fix>3d</fix>
</trkpt>
<trkpt lat="40.072845" lon="-105.2305758">
  <ele>1586.24</ele>
  <time>2026-08-28T19:08:01Z</time>
  <course>152.86</course>
  <speed>0.01</speed>
  <fix>3d</fix>
</trkpt>
<trkpt lat="40.0728449" lon="-105.2305756">
  <ele>1586.24</ele>
  <time>2026-08-28T19:08:01Z</time>
  <course>287.31</course>
  <speed>0.0</speed>
  <fix>3d</fix>
</trkpt>
<trkpt lat="40.072845" lon="-105.2305758">
  <ele>1586.14</ele>
  <time>2026-08-28T19:08:01Z</time>
  <course>152.87</course>
  <speed>0.01</speed>
  <fix>3d</fix>
</trkpt>
<trkpt lat="40.0728449" lon="-105.2305756">
  <ele>1586.13</ele>
  <time>2026-08-28T19:08:01Z</time>
  <course>287.22</course>
  <speed>0.0</speed>
  <fix>3d</fix>
</trkpt>
<trkpt lat="40.072845" lon="-105.2305758">
  <ele>1586.14</ele>
  <time>2026-08-28T19:08:01Z</time>
  <course>152.86</course>
  <speed>0.0</speed>
  <fix>3d</fix>
</trkpt>
<trkpt lat="40.0728449" lon="-105.2305756">
  <ele>1586.07</ele>
  <time>2026-08-28T19:08:01Z</time>
  <course>62.0</course>
  <speed>0.0</speed>
  <fix>3d</fix>
</trkpt>
<trkpt lat="40.072845" lon="-105.2305758">
  <ele>1586.15</ele>
  <time>2026-08-28T19:08:01Z</time>
  <course>152.86</course>
  <speed>0.02</speed>
  <fix>3d</fix>
</trkpt>
<trkpt lat="40.0728449" lon="-105.2305756">
  <ele>1586.07</ele>
  <time>2026-08-28T19:08:01Z</time>
  <course>77.62</course>
  <speed>0.0</speed>
  <fix>3d</fix>
</trkpt>
<trkpt lat="40.072845" lon="-105.2305758">
  <ele>1586.14</ele>
  <time>2026-08-28T19:08:01Z</time>
  <course>152.89</course>
  <speed>0.01</speed>
  <fix>3d</fix>
</trkpt>
<trkpt lat="40.0728449" lon="-105.2305756">
  <ele>1586.09</ele>
  <time>2026-08-28T19:08:01Z</time>
  <course>220.05</course>
  <speed>0.0</speed>
  <fix>3d</fix>
</trkpt>
<trkpt lat="40.072845" lon="-105.2305758">
  <ele>1586.13</ele>
  <time>2026-08-28T19:08:01Z</time>
  <course>152.93</course>
  <speed>0.01</speed>
  <fix>3d</fix>
</trkpt>
<trkpt lat="40.0728449" lon="-105.2305756">
  <ele>1586.08</ele>
  <time>2026-08-28T19:08:01Z</time>
  <course>254.09</course>
  <speed>0.0</speed>
  <fix>3d</fix>
</trkpt>
<trkpt lat="40.072845" lon="-105.2305758">
  <ele>1586.13</ele>
  <time>2026-08-28T19:08:01Z</time>
  <course>152.97</course>
  <speed>0.01</speed>
  <fix>3d</fix>
</trkpt>
<trkpt lat="40.0728449" lon="-105.2305756">
  <ele>1586.08</ele>
  <time>2026-08-28T19:08:01Z</time>
  <course>95.65</course>
  <speed>0.0</speed>
  <fix>3d</fix>
</trkpt>
<trkpt lat="40.072845" lon="-105.2305758">
  <ele>1586.13</ele>
  <time>2026-08-28T19:08:01Z</time>
  <course>153.0</course>
  <speed>0.01</speed>
  <fix>3d</fix>
</trkpt>
<trkpt lat="40.0728449" lon="-105.2305756">
  <ele>1586.09</ele>
  <time>2026-08-28T19:08:01Z</time>
  <course>167.11</course>
  <speed>0.0</speed>
  <fix>3d</fix>
</trkpt>
<trkpt lat="40.072845" lon="-105.2305758">
  <ele>1586.13</ele>
  <time>2026-08-28T19:08:01Z</time>
  <course>153.02</course>
  <speed>0.01</speed>
  <fix>3d</fix>
</trkpt>
<trkpt lat="40.0728449" lon="-105.2305756">
  <ele>1586.09</ele>
  <time>2026-08-28T19:08:01Z</time>
  <course>171.01</course>
  <speed>0.0</speed>
  <fix>3d</fix>
</trkpt>
<trkpt lat="40.072845" lon="-105.2305758">
  <ele>1586.13</ele>
  <time>2026-08-28T19:08:01Z</time>
  <course>153.05</course>
  <speed>0.01</speed>
  <fix>3d</fix>
</trkpt>
<trkpt lat="40.0728449" lon="-105.2305756">
  <ele>1586.09</ele>
  <time>2026-08-28T19:08:01Z</time>
  <course>114.45</course>
  <speed>0.0</speed>
  <fix>3d</fix>
</trkpt>
<trkpt lat="40.072845" lon="-105.2305758">
  <ele>1586.13</ele>
  <time>2026-08-28T19:08:01Z</time>
  <course>153.08</course>
  <speed>0.02</speed>
  <fix>3d</fix>
</trkpt>
<trkpt lat="40.0728449" lon="-105.2305756">
  <ele>1586.09</ele>
  <time>2026-08-28T19:08:01Z</time>
  <course>130.39</course>
  <speed>0.0</speed>
  <fix>3d</fix>
</trkpt>
<trkpt lat="40.072845" lon="-105.2305758">
  <ele>1586.13</ele>
  <time>2026-08-28T19:08:01Z</time>
  <course>153.1</course>
  <speed>0.02</speed>
  <fix>3d</fix>
</trkpt>
<trkpt lat="40.0728449" lon="-105.2305756">
  <ele>1586.09</ele>
  <time>2026-08-28T19:08:01Z</time>
  <course>182.65</course>
  <speed>0.0</speed>
  <fix>3d</fix>
</trkpt>
<trkpt lat="40.072845" lon="-105.2305758">
  <ele>1586.13</ele>
  <time>2026-08-28T19:08:01Z</time>
  <course>153.11</course>
  <speed>0.03</speed>
  <fix>3d</fix>
</trkpt>
<trkpt lat="40.0728449" lon="-105.2305756">
  <ele>1586.09</ele>
  <time>2026-08-28T19:08:01Z</time>
  <course>243.75</course>
  <speed>0.0</speed>
  <fix>3d</fix>
</trkpt>
<trkpt lat="40.072845" lon="-105.2305758">
  <ele>1586.13</ele>
  <time>2026-08-28T19:08:01Z</time>
  <course>153.09</course>
  <speed>0.02</speed>
  <fix>3d</fix>
</trkpt>
<trkpt lat="40.0728449" lon="-105.2305756">
  <ele>1586.09</ele>
  <time>2026-08-28T19:08:01Z</time>
  <course>247.7</course>
  <speed>0.01</speed>
  <fix>3d</fix>
</trkpt>
<trkpt lat="40.072845" lon="-105.2305758">
  <ele>1586.13</ele>
  <time>2026-08-28T19:08:01Z</time>
  <course>153.07</course>
  <speed>0.01</speed>
  <fix>3d</fix>
</trkpt>
<trkpt lat="40.0728449" lon="-105.2305756">
  <ele>1586.09</ele>
  <time>2026-08-28T19:08:01Z</time>
  <course>259.68</course>
  <speed>0.0</speed>
  <fix>3d</fix>
</trkpt>
<trkpt lat="40.072845" lon="-105.2305758">
  <ele>1586.14</ele>
  <time>2026-08-28T19:08:01Z</time>
  <course>153.06</course>
  <speed>0.02</speed>
  <fix>3d</fix>
</trkpt>
<trkpt lat="40.0728449" lon="-105.2305756">
  <ele>1586.09</ele>
  <time>2026-08-28T19:08:01Z</time>
  <course>34.61</course>
  <speed>0.0</speed>
  <fix>3d</fix>
</trkpt>
<trkpt lat="40.072845" lon="-105.2305758">
  <ele>1586.14</ele>
  <time>2026-08-28T19:08:01Z</time>
  <course>153.06</course>
  <speed>0.02</speed>
  <fix>3d</fix>
</trkpt>
<trkpt lat="40.0728449" lon="-105.2305756">
  <ele>1586.09</ele>
  <time>2026-08-28T19:08:01Z</time>
  <course>33.48</course>
  <speed>0.0</speed>
  <fix>3d</fix>
</trkpt>
<trkpt lat="40.072845" lon="-105.2305758">
  <ele>1586.14</ele>
  <time>2026-08-28T19:08:01Z</time>
  <course>153.06</course>
  <speed>0.02</speed>
  <fix>3d</fix>
</trkpt>
<trkpt lat="40.0728449" lon="-105.2305756">
  <ele>1586.09</ele>
  <time>2026-08-28T19:08:01Z</time>
  <course>19.91</course>
  <speed>0.0</speed>
  <fix>3d</fix>
</trkpt>
<trkpt lat="40.072845" lon="-105.2305758">
  <ele>1586.14</ele>
  <time>2026-08-28T19:08:01Z</time>
  <course>153.06</course>
  <speed>0.02</speed>
  <fix>3d</fix>
</trkpt>
<trkpt lat="40.0728449" lon="-105.2305756">
  <ele>1586.09</ele>
  <time>2026-08-28T19:08:01Z</time>
  <course>13.19</course>
  <speed>0.0</speed>
  <fix>3d</fix>
</trkpt>
<trkpt lat="40.072845" lon="-105.2305758">
  <ele>1586.14</ele>
  <time>2026-08-28T19:08:01Z</time>
  <course>153.06</course>
  <speed>0.02</speed>
  <fix>3d</fix>
</trkpt>
<trkpt lat="40.0728449" lon="-105.2305756">
  <ele>1586.09</ele>
  <time>2026-08-28T19:08:01Z</time>
  <course>6.8</course>
  <speed>0.0</speed>
  <fix>3d</fix>
</trkpt>
<trkpt lat="40.072845" lon="-105.2305758">
  <ele>1586.14</ele>
  <time>2026-08-28T19:08:01Z</time>
  <course>153.06</course>
  <speed>0.02</speed>
  <fix>3d</fix>
</trkpt>
<trkpt lat="40.0728449" lon="-105.2305756">
  <ele>1586.09</ele>
  <time>2026-08-28T19:08:01Z</time>
  <course>155.68</course>
  <speed>0.0</speed>
  <fix>3d</fix>
</trkpt>
<trkpt lat="40.072845" lon="-105.2305758">
  <ele>1586.14</ele>
  <time>2026-08-28T19:08:01Z</time>
  <course>153.06</course>
  <speed>0.02</speed>
  <fix>3d</fix>
</trkpt>
<trkpt lat="40.0728449" lon="-105.2305756">
  <ele>1586.09</ele>
  <time>2026-08-28T19:08:01Z</time>
  <course>170.88</course>
  <speed>0.0</speed>
  <fix>3d</fix>
</trkpt>
<trkpt lat="40.072845" lon="-105.2305758">
  <ele>1586.14</ele>
  <time>2026-08-28T19:08:01Z</time>
  <course>153.06</course>
  <speed>0.02</speed>
  <fix>3d</fix>
</trkpt>
<trkpt lat="40.0728449" lon="-105.2305756">
  <ele>1586.09</ele>
  <time>2026-08-28T19:08:01Z</time>
  <course>58.73</course>
  <speed>0.0</speed>
  <fix>3d</fix>
</trkpt>
<trkpt lat="40.072845" lon="-105.2305758">
  <ele>1586.15</ele>
  <time>2026-08-28T19:08:01Z</time>
  <course>153.06</course>
  <speed>0.02</speed>
  <fix>3d</fix>
</trkpt>
<trkpt lat="40.0728449" lon="-105.2305756">
  <ele>1586.09</ele>
  <time>2026-08-28T19:08:01Z</time>
  <course>94.54</course>
  <speed>0.0</speed>
  <fix>3d</fix>
</trkpt>
<trkpt lat="40.072845" lon="-105.2305758">
  <ele>1586.15</ele>
  <time>2026-08-28T19:08:01Z</time>
  <course>153.06</course>
  <speed>0.02</speed>
  <fix>3d</fix>
</trkpt>
<trkpt lat="40.0728449" lon="-105.2305756">
  <ele>1586.09</ele>
  <time>2026-08-28T19:08:01Z</time>
  <course>106.54</course>
  <speed>0.0</speed>
  <fix>3d</fix>
</trkpt>
<trkpt lat="40.072845" lon="-105.2305758">
  <ele>1586.15</ele>
  <time>2026-08-28T19:08:01Z</time>
  <course>153.06</course>
  <speed>0.02</speed>
  <fix>3d</fix>
</trkpt>
<trkpt lat="40.0728449" lon="-105.2305756">
  <ele>1586.09</ele>
  <time>2026-08-28T19:08:01Z</time>
  <course>100.26</course>
  <speed>0.0</speed>
  <fix>3d</fix>
</trkpt>
<trkpt lat="40.072845" lon="-105.2305758">
  <ele>1586.16</ele>
  <time>2026-08-28T19:08:01Z</time>
  <course>153.06</course>
  <speed>0.02</speed>
  <fix>3d</fix>
</trkpt>
<trkpt lat="40.0728449" lon="-105.2305756">
  <ele>1586.09</ele>
  <time>2026-08-28T19:08:01Z</time>
  <course>99.35</course>
  <speed>0.0</speed>
  <fix>3d</fix>
</trkpt>
<trkpt lat="40.072845" lon="-105.2305758">
  <ele>1586.16</ele>
  <time>2026-08-28T19:08:01Z</time>
  <course>153.06</course>
  <speed>0.01</speed>
  <fix>3d</fix>
</trkpt>
<trkpt lat="40.0728449" lon="-105.2305756">
  <ele>1586.09</ele>
  <time>2026-08-28T19:08:01Z</time>
  <course>100.32</course>
  <speed>0.0</speed>
  <fix>3d</fix>
</trkpt>
<trkpt lat="40.072845" lon="-105.2305758">
  <ele>1586.16</ele>
  <time>2026-08-28T19:08:01Z</time>
  <course>153.06</course>
  <speed>0.01</speed>
  <fix>3d</fix>
</trkpt>
<trkpt lat="40.0728449" lon="-105.2305756">
  <ele>1586.09</ele>
  <time>2026-08-28T19:08:01Z</time>
  <course>100.33</course>
  <speed>0.0</speed>
  <fix>3d</fix>
</trkpt>
<trkpt lat="40.072845" lon="-105.2305758">
  <ele>1586.17</ele>
  <time>2026-08-28T19:08:01Z</time>
  <course>153.06</course>
  <speed>0.01</speed>
  <fix>3d</fix>
</trkpt>
<trkpt lat="40.0728449" lon="-105.2305756">
  <ele>1586.09</ele>
  <time>2026-08-28T19:08:01Z</time>
  <course>100.2</course>
  <speed>0.0</speed>
  <fix>3d</fix>
</trkpt>
<trkpt lat="40.072845" lon="-105.2305758">
  <ele>1586.17</ele>
  <time>2026-08-28T19:08:01Z</time>
  <course>153.06</course>
  <speed>0.01</speed>
  <fix>3d</fix>
</trkpt>
<trkpt lat="40.0728449" lon="-105.2305756">
  <ele>1586.09</ele>
  <time>2026-08-28T19:08:01Z</time>
  <course>100.21</course>
  <speed>0.0</speed>
  <fix>3d</fix>
</trkpt>
<trkpt lat="40.072845" lon="-105.2305758">
  <ele>1586.17</ele>
  <time>2026-08-28T19:08:01Z</time>
  <course>153.06</course>
  <speed>0.01</speed>
  <fix>3d</fix>
</trkpt>
<trkpt lat="40.0728449" lon="-105.2305756">
  <ele>1586.09</ele>
  <time>2026-08-28T19:08:01Z</time>
  <course>100.23</course>
  <speed>0.0</speed>
  <fix>3d</fix>
</trkpt>
<trkpt lat="40.072845" lon="-105.2305758">
  <ele>1586.17</ele>
  <time>2026-08-28T19:08:01Z</time>
  <course>153.06</course>
  <speed>0.01</speed>
  <fix>3d</fix>
</trkpt>
<trkpt lat="40.0728449" lon="-105.2305756">
  <ele>1586.09</ele>
  <time>2026-08-28T19:08:01Z</time>
  <course>100.23</course>
  <speed>0.0</speed>
  <fix>3d</fix>
</trkpt>
<trkpt lat="40.072845" lon="-105.2305758">
  <ele>1586.16</ele>
  <time>2026-08-28T19:08:01Z</time>
  <course>153.06</course>
  <speed>0.01</speed>
  <fix>3d</fix>
</trkpt>
<trkpt lat="40.0728449" lon="-105.2305756">
  <ele>1586.09</ele>
  <time>2026-08-28T19:08:01Z</time>
  <course>100.23</course>
  <speed>0.0</speed>
  <fix>3d</fix>
</trkpt>
<trkpt lat="40.072845" lon="-105.2305758">
  <ele>1586.16</ele>
  <time>2026-08-28T19:08:01Z</time>
  <course>153.06</course>
  <speed>0.01</speed>
  <fix>3d</fix>
</trkpt>
<trkpt lat="40.0728449" lon="-105.2305756">
  <ele>1586.09</ele>
  <time>2026-08-28T19:08:01Z</time>
  <course>100.23</course>
  <speed>0.0</speed>
  <fix>3d</fix>
</trkpt>
<trkpt lat="40.072845" lon="-105.2305758">
  <ele>1586.16</ele>
  <time>2026-08-28T19:08:01Z</time>
  <course>153.06</course>
  <speed>0.01</speed>
  <fix>3d</fix>
</trkpt>
<trkpt lat="40.0728449" lon="-105.2305756">
  <ele>1586.09</ele>
  <time>2026-08-28T19:08:01Z</time>
  <course>100.23</course>
  <speed>0.0</speed>
  <fix>3d</fix>
</trkpt>
<trkpt lat="40.072845" lon="-105.2305758">
  <ele>1586.16</ele>
  <time>2026-08-28T19:08:01Z</time>
  <course>153.05</course>
  <speed>0.01</speed>
  <fix>3d</fix>
</trkpt>
<trkpt lat="40.0728449" lon="-105.2305756">
  <ele>1586.09</ele>
  <time>2026-08-28T19:08:01Z</time>
  <course>100.23</course>
  <speed>0.0</speed>
  <fix>3d</fix>
</trkpt>
<trkpt lat="40.072845" lon="-105.2305758">
  <ele>1586.16</ele>
  <time>2026-08-28T19:08:01Z</time>
  <course>153.05</course>
  <speed>0.01</speed>
  <fix>3d</fix>
</trkpt>
<trkpt lat="40.0728449" lon="-105.2305756">
  <ele>1586.09</ele>
  <time>2026-08-28T19:08:01Z</time>
  <course>100.23</course>
  <speed>0.0</speed>
  <fix>3d</fix>
</trkpt>
<trkpt lat="40.072845" lon="-105.2305758">
  <ele>1586.16</ele>
  <time>2026-08-28T19:08:01Z</time>
  <course>153.05</course>
  <speed>0.01</speed>
  <fix>3d</fix>
</trkpt>
<trkpt lat="40.0728449" lon="-105.2305756">
  <ele>1586.09</ele>
  <time>2026-08-28T19:08:01Z</time>
  <course>100.23</course>
  <speed>0.0</speed>
  <fix>3d</fix>
</trkpt>
<trkpt lat="40.072845" lon="-105.2305758">
  <ele>1586.16</ele>
  <time>2026-08-28T19:08:01Z</time>
  <course>153.05</course>
  <speed>0.01</speed>
  <fix>3d</fix>
</trkpt>
<trkpt lat="40.0728449" lon="-105.2305756">
  <ele>1586.09</ele>
  <time>2026-08-28T19:08:01Z</time>
  <course>100.23</course>
  <speed>0.0</speed>
  <fix>3d</fix>
</trkpt>
<trkpt lat="40.072845" lon="-105.2305758">
  <ele>1586.16</ele>
  <time>2026-08-28T19:08:01Z</time>
  <course>153.05</course>
  <speed>0.01</speed>
  <fix>3d</fix>
</trkpt>
<trkpt lat="40.0728449" lon="-105.2305756">
  <ele>1586.09</ele>
  <time>2026-08-28T19:08:01Z</time>
  <course>100.23</course>
  <speed>0.0</speed>
  <fix>3d</fix>
</trkpt>
<trkpt lat="40.072845" lon="-105.2305758">
  <ele>1586.16</ele>
  <time>2026-08-28T19:08:01Z</time>
  <course>153.05</course>
  <speed>0.01</speed>
  <fix>3d</fix>
</trkpt>
<trkpt lat="40.0728449" lon="-105.2305756">
  <ele>1586.09</ele>
  <time>2026-08-28T19:08:01Z</time>
  <course>100.23</course>
  <speed>0.0</speed>
  <fix>3d</fix>
</trkpt>
<trkpt lat="40.072845" lon="-105.2305758">
  <ele>1586.16</ele>
  <time>2026-08-28T19:08:01Z</time>
  <course>153.05</course>
  <speed>0.01</speed>
  <fix>3d</fix>
</trkpt>
<trkpt lat="40.0728449" lon="-105.2305756">
  <ele>1586.09</ele>
  <time>2026-08-28T19:08:01Z</time>
  <course>100.23</course>
  <speed>0.0</speed>
  <fix>3d</fix>
</trkpt>
<trkpt lat="40.072845" lon="-105.2305758">
  <ele>1586.16</ele>
  <time>2026-08-28T19:08:01Z</time>
  <course>153.05</course>
  <speed>0.01</speed>
  <fix>3d</fix>
</trkpt>
<trkpt lat="40.0728449" lon="-105.2305756">
  <ele>1586.09</ele>
  <time>2026-08-28T19:08:01Z</time>
  <course>100.23</course>
  <speed>0.0</speed>
  <fix>3d</fix>
</trkpt>
<trkpt lat="40.072845" lon="-105.2305758">
  <ele>1586.16</ele>
  <time>2026-08-28T19:08:01Z</time>
  <course>153.05</course>
  <speed>0.01</speed>
  <fix>3d</fix>
</trkpt>
<trkpt lat="40.0728449" lon="-105.2305756">
  <ele>1586.09</ele>
  <time>2026-08-28T19:08:01Z</time>
  <course>100.23</course>
  <speed>0.0</speed>
  <fix>3d</fix>
</trkpt>
<trkpt lat="40.072845" lon="-105.2305758">
  <ele>1586.16</ele>
  <time>2026-08-28T19:08:01Z</time>
  <course>153.05</course>
  <speed>0.01</speed>
  <fix>3d</fix>
</trkpt>
<trkpt lat="40.0728449" lon="-105.2305756">
  <ele>1586.09</ele>
  <time>2026-08-28T19:08:01Z</time>
  <course>100.23</course>
  <speed>0.0</speed>
  <fix>3d</fix>
</trkpt>
<trkpt lat="40.072845" lon="-105.2305758">
  <ele>1586.16</ele>
  <time>2026-08-28T19:08:01Z</time>
  <course>153.05</course>
  <speed>0.01</speed>
  <fix>3d</fix>
</trkpt>
<trkpt lat="40.0728449" lon="-105.2305756">
  <ele>1586.09</ele>
  <time>2026-08-28T19:08:01Z</time>
  <course>100.23</course>
  <speed>0.0</speed>
  <fix>3d</fix>
</trkpt>
<trkpt lat="40.072845" lon="-105.2305758">
  <ele>1586.16</ele>
  <time>2026-08-28T19:08:01Z</time>
  <course>153.05</course>
  <speed>0.01</speed>
  <fix>3d</fix>
</trkpt>
<trkpt lat="40.0728449" lon="-105.2305756">
  <ele>1586.09</ele>
  <time>2026-08-28T19:08:01Z</time>
  <course>100.23</course>
  <speed>0.0</speed>
  <fix>3d</fix>
</trkpt>
<trkpt lat="40.072845" lon="-105.2305758">
  <ele>1586.15</ele>
  <time>2026-08-28T19:08:01Z</time>
  <course>153.05</course>
  <speed>0.01</speed>
  <fix>3d</fix>
</trkpt>
<trkpt lat="40.0728449" lon="-105.2305756">
  <ele>1586.09</ele>
  <time>2026-08-28T19:08:01Z</time>
  <course>100.23</course>
  <speed>0.0</speed>
  <fix>3d</fix>
</trkpt>
<trkpt lat="40.072845" lon="-105.2305758">
  <ele>1586.15</ele>
  <time>2026-08-28T19:08:01Z</time>
  <course>153.05</course>
  <speed>0.01</speed>
  <fix>3d</fix>
</trkpt>
<trkpt lat="40.0728449" lon="-105.2305756">
  <ele>1586.09</ele>
  <time>2026-08-28T19:08:01Z</time>
  <course>100.23</course>
  <speed>0.0</speed>
  <fix>3d</fix>
</trkpt>
<trkpt lat="40.072845" lon="-105.2305758">
  <ele>1586.15</ele>
  <time>2026-08-28T19:08:01Z</time>
  <course>153.05</course>
  <speed>0.01</speed>
  <fix>3d</fix>
</trkpt>
<trkpt lat="40.0728449" lon="-105.2305756">
  <ele>1586.09</ele>
  <time>2026-08-28T19:08:01Z</time>
  <course>100.23</course>
  <speed>0.0</speed>
  <fix>3d</fix>
</trkpt>
<trkpt lat="40.072845" lon="-105.2305758">
  <ele>1586.15</ele>
  <time>2026-08-28T19:08:01Z</time>
  <course>153.05</course>
  <speed>0.01</speed>
  <fix>3d</fix>
</trkpt>
<trkpt lat="40.0728449" lon="-105.2305756">
  <ele>1586.09</ele>
  <time>2026-08-28T19:08:01Z</time>
  <course>100.23</course>
  <speed>0.0</speed>
  <fix>3d</fix>
</trkpt>
<trkpt lat="40.072845" lon="-105.2305758">
  <ele>1586.16</ele>
  <time>2026-08-28T19:08:01Z</time>
  <course>153.05</course>
  <speed>0.01</speed>
  <fix>3d</fix>
</trkpt>
<trkpt lat="40.0728449" lon="-105.2305756">
  <ele>1586.09</ele>
  <time>2026-08-28T19:08:01Z</time>
  <course>100.23</course>
  <speed>0.0</speed>
  <fix>3d</fix>
</trkpt>
<trkpt lat="40.072845" lon="-105.2305758">
  <ele>1586.16</ele>
  <time>2026-08-28T19:08:01Z</time>
  <course>153.05</course>
  <speed>0.01</speed>
  <fix>3d</fix>
</trkpt>
<trkpt lat="40.0728449" lon="-105.2305756">
  <ele>1586.09</ele>
  <time>2026-08-28T19:08:01Z</time>
  <course>100.24</course>
  <speed>0.0</speed>
  <fix>3d</fix>
</trkpt>
<trkpt lat="40.072845" lon="-105.2305758">
  <ele>1586.16</ele>
  <time>2026-08-28T19:08:01Z</time>
  <course>153.05</course>
  <speed>0.01</speed>
  <fix>3d</fix>
</trkpt>
<trkpt lat="40.0728449" lon="-105.2305756">
  <ele>1586.09</ele>
  <time>2026-08-28T19:08:01Z</time>
  <course>100.24</course>
  <speed>0.0</speed>
  <fix>3d</fix>
</trkpt>
<trkpt lat="40.072845" lon="-105.2305758">
  <ele>1586.16</ele>
  <time>2026-08-28T19:08:01Z</time>
  <course>153.05</course>
  <speed>0.01</speed>
  <fix>3d</fix>
</trkpt>
<trkpt lat="40.0728449" lon="-105.2305756">
  <ele>1586.09</ele>
  <time>2026-08-28T19:08:01Z</time>
  <course>100.24</course>
  <speed>0.0</speed>
  <fix>3d</fix>
</trkpt>
<trkpt lat="40.072845" lon="-105.2305758">
  <ele>1586.16</ele>
  <time>2026-08-28T19:08:02Z</time>
  <course>153.05</course>
  <speed>0.01</speed>
  <fix>3d</fix>
</trkpt>
<trkpt lat="40.0728449" lon="-105.2305756">
  <ele>1586.09</ele>
  <time>2026-08-28T19:08:02Z</time>
  <course>100.24</course>
  <speed>0.0</speed>
  <fix>3d</fix>
</trkpt>
<trkpt lat="40.072845" lon="-105.2305758">
  <ele>1586.16</ele>
  <time>2026-08-28T19:08:02Z</time>
  <course>153.05</course>
  <speed>0.01</speed>
  <fix>3d</fix>
</trkpt>
<trkpt lat="40.0728449" lon="-105.2305756">
  <ele>1586.09</ele>
  <time>2026-08-28T19:08:02Z</time>
  <course>100.24</course>
  <speed>0.0</speed>
  <fix>3d</fix>
</trkpt>
<trkpt lat="40.072845" lon="-105.2305758">
  <ele>1586.16</ele>
  <time>2026-08-28T19:08:02Z</time>
  <course>153.05</course>
  <speed>0.01</speed>
  <fix>3d</fix>
</trkpt>
<trkpt lat="40.0728449" lon="-105.2305756">
  <ele>1586.09</ele>
  <time>2026-08-28T19:08:02Z</time>
  <course>100.24</course>
  <speed>0.0</speed>
  <fix>3d</fix>
</trkpt>
<trkpt lat="40.072845" lon="-105.2305758">
  <ele>1586.15</ele>
  <time>2026-08-28T19:08:02Z</time>
  <course>153.05</course>
  <speed>0.01</speed>
  <fix>3d</fix>
</trkpt>
<trkpt lat="40.0728449" lon="-105.2305756">
  <ele>1586.09</ele>
  <time>2026-08-28T19:08:02Z</time>
  <course>100.23</course>
  <speed>0.0</speed>
  <fix>3d</fix>
</trkpt>
<trkpt lat="40.072845" lon="-105.2305758">
  <ele>1586.15</ele>
  <time>2026-08-28T19:08:02Z</time>
  <course>153.05</course>
  <speed>0.01</speed>
  <fix>3d</fix>
</trkpt>
<trkpt lat="40.0728449" lon="-105.2305756">
  <ele>1586.09</ele>
  <time>2026-08-28T19:08:02Z</time>
  <course>100.23</course>
  <speed>0.0</speed>
  <fix>3d</fix>
</trkpt>
<trkpt lat="40.072845" lon="-105.2305758">
  <ele>1586.15</ele>
  <time>2026-08-28T19:08:02Z</time>
  <course>153.04</course>
  <speed>0.01</speed>
  <fix>3d</fix>
</trkpt>
<trkpt lat="40.0728449" lon="-105.2305756">
  <ele>1586.09</ele>
  <time>2026-08-28T19:08:02Z</time>
  <course>100.23</course>
  <speed>0.0</speed>
  <fix>3d</fix>
</trkpt>
<trkpt lat="40.072845" lon="-105.2305758">
  <ele>1586.15</ele>
  <time>2026-08-28T19:08:02Z</time>
  <course>153.03</course>
  <speed>0.01</speed>
  <fix>3d</fix>
</trkpt>
<trkpt lat="40.0728449" lon="-105.2305756">
  <ele>1586.09</ele>
  <time>2026-08-28T19:08:02Z</time>
  <course>100.23</course>
  <speed>0.0</speed>
  <fix>3d</fix>
</trkpt>
<trkpt lat="40.072845" lon="-105.2305758">
  <ele>1586.16</ele>
  <time>2026-08-28T19:08:02Z</time>
  <course>153.01</course>
  <speed>0.01</speed>
  <fix>3d</fix>
</trkpt>
<trkpt lat="40.0728449" lon="-105.2305756">
  <ele>1586.09</ele>
  <time>2026-08-28T19:08:02Z</time>
  <course>100.23</course>
  <speed>0.0</speed>
  <fix>3d</fix>
</trkpt>
<trkpt lat="40.072845" lon="-105.2305758">
  <ele>1586.17</ele>
  <time>2026-08-28T19:08:02Z</time>
  <course>152.99</course>
  <speed>0.01</speed>
  <fix>3d</fix>
</trkpt>
<trkpt lat="40.0728449" lon="-105.2305756">
  <ele>1586.09</ele>
  <time>2026-08-28T19:08:02Z</time>
  <course>100.23</course>
  <speed>0.0</speed>
  <fix>3d</fix>
</trkpt>
<trkpt lat="40.072845" lon="-105.2305758">
  <ele>1586.16</ele>
  <time>2026-08-28T19:08:02Z</time>
  <course>152.97</course>
  <speed>0.01</speed>
  <fix>3d</fix>
</trkpt>
<trkpt lat="40.0728449" lon="-105.2305756">
  <ele>1586.09</ele>
  <time>2026-08-28T19:08:02Z</time>
  <course>100.23</course>
  <speed>0.0</speed>
  <fix>3d</fix>
</trkpt>
<trkpt lat="40.072845" lon="-105.2305758">
  <ele>1586.16</ele>
  <time>2026-08-28T19:08:02Z</time>
  <course>152.95</course>
  <speed>0.02</speed>
  <fix>3d</fix>
</trkpt>
<trkpt lat="40.0728449" lon="-105.2305756">
  <ele>1586.09</ele>
  <time>2026-08-28T19:08:02Z</time>
  <course>100.23</course>
  <speed>0.0</speed>
  <fix>3d</fix>
</trkpt>
<trkpt lat="40.072845" lon="-105.2305758">
  <ele>1586.16</ele>
  <time>2026-08-28T19:08:02Z</time>
  <course>152.93</course>
  <speed>0.02</speed>
  <fix>3d</fix>
</trkpt>
<trkpt lat="40.0728449" lon="-105.2305756">
  <ele>1586.09</ele>
  <time>2026-08-28T19:08:02Z</time>
  <course>100.23</course>
  <speed>0.0</speed>
  <fix>3d</fix>
</trkpt>
<trkpt lat="40.072845" lon="-105.2305758">
  <ele>1586.17</ele>
  <time>2026-08-28T19:08:02Z</time>
  <course>152.91</course>
  <speed>0.02</speed>
  <fix>3d</fix>
</trkpt>
<trkpt lat="40.0728449" lon="-105.2305756">
  <ele>1586.09</ele>
  <time>2026-08-28T19:08:02Z</time>
  <course>100.23</course>
  <speed>0.0</speed>
  <fix>3d</fix>
</trkpt>
<trkpt lat="40.072845" lon="-105.2305758">
  <ele>1586.17</ele>
  <time>2026-08-28T19:08:02Z</time>
  <course>152.89</course>
  <speed>0.02</speed>
  <fix>3d</fix>
</trkpt>
<trkpt lat="40.0728449" lon="-105.2305756">
  <ele>1586.09</ele>
  <time>2026-08-28T19:08:02Z</time>
  <course>100.23</course>
  <speed>0.0</speed>
  <fix>3d</fix>
</trkpt>
<trkpt lat="40.072845" lon="-105.2305758">
  <ele>1586.17</ele>
  <time>2026-08-28T19:08:02Z</time>
  <course>152.87</course>
  <speed>0.02</speed>
  <fix>3d</fix>
</trkpt>
<trkpt lat="40.0728449" lon="-105.2305756">
  <ele>1586.09</ele>
  <time>2026-08-28T19:08:02Z</time>
  <course>100.23</course>
  <speed>0.0</speed>
  <fix>3d</fix>
</trkpt>
<trkpt lat="40.072845" lon="-105.2305758">
  <ele>1586.17</ele>
  <time>2026-08-28T19:08:02Z</time>
  <course>152.85</course>
  <speed>0.02</speed>
  <fix>3d</fix>
</trkpt>
<trkpt lat="40.0728449" lon="-105.2305756">
  <ele>1586.09</ele>
  <time>2026-08-28T19:08:02Z</time>
  <course>100.23</course>
  <speed>0.0</speed>
  <fix>3d</fix>
</trkpt>
<trkpt lat="40.072845" lon="-105.2305758">
  <ele>1586.16</ele>
  <time>2026-08-28T19:08:02Z</time>
  <course>152.83</course>
  <speed>0.02</speed>
  <fix>3d</fix>
</trkpt>
<trkpt lat="40.0728449" lon="-105.2305756">
  <ele>1586.09</ele>
  <time>2026-08-28T19:08:02Z</time>
  <course>100.23</course>
  <speed>0.0</speed>
  <fix>3d</fix>
</trkpt>
<trkpt lat="40.072845" lon="-105.2305758">
  <ele>1586.15</ele>
  <time>2026-08-28T19:08:02Z</time>
  <course>152.77</course>
  <speed>0.02</speed>
  <fix>3d</fix>
</trkpt>
<trkpt lat="40.0728449" lon="-105.2305756">
  <ele>1586.09</ele>
  <time>2026-08-28T19:08:02Z</time>
  <course>100.23</course>
  <speed>0.0</speed>
  <fix>3d</fix>
</trkpt>
<trkpt lat="40.072845" lon="-105.2305758">
  <ele>1586.14</ele>
  <time>2026-08-28T19:08:02Z</time>
  <course>152.75</course>
  <speed>0.02</speed>
  <fix>3d</fix>
</trkpt>
<trkpt lat="40.0728449" lon="-105.2305756">
  <ele>1586.09</ele>
  <time>2026-08-28T19:08:02Z</time>
  <course>100.23</course>
  <speed>0.0</speed>
  <fix>3d</fix>
</trkpt>
<trkpt lat="40.072845" lon="-105.2305758">
  <ele>1586.14</ele>
  <time>2026-08-28T19:08:02Z</time>
  <course>152.72</course>
  <speed>0.02</speed>
  <fix>3d</fix>
</trkpt>
<trkpt lat="40.0728449" lon="-105.2305756">
  <ele>1586.09</ele>
  <time>2026-08-28T19:08:02Z</time>
  <course>100.23</course>
  <speed>0.0</speed>
  <fix>3d</fix>
</trkpt>
<trkpt lat="40.072845" lon="-105.2305758">
  <ele>1586.14</ele>
  <time>2026-08-28T19:08:02Z</time>
  <course>152.7</course>
  <speed>0.02</speed>
  <fix>3d</fix>
</trkpt>
<trkpt lat="40.0728449" lon="-105.2305756">
  <ele>1586.09</ele>
  <time>2026-08-28T19:08:02Z</time>
  <course>100.23</course>
  <speed>0.0</speed>
  <fix>3d</fix>
</trkpt>
<trkpt lat="40.072845" lon="-105.2305758">
  <ele>1586.14</ele>
  <time>2026-08-28T19:08:02Z</time>
  <course>152.68</course>
  <speed>0.02</speed>
  <fix>3d</fix>
</trkpt>
<trkpt lat="40.0728449" lon="-105.2305756">
  <ele>1586.09</ele>
  <time>2026-08-28T19:08:02Z</time>
  <course>100.23</course>
  <speed>0.0</speed>
  <fix>3d</fix>
</trkpt>
<trkpt lat="40.072845" lon="-105.2305758">
  <ele>1586.14</ele>
  <time>2026-08-28T19:08:02Z</time>
  <course>152.66</course>
  <speed>0.02</speed>
  <fix>3d</fix>
</trkpt>
<trkpt lat="40.0728449" lon="-105.2305756">
  <ele>1586.09</ele>
  <time>2026-08-28T19:08:02Z</time>
  <course>100.23</course>
  <speed>0.0</speed>
  <fix>3d</fix>
</trkpt>
<trkpt lat="40.072845" lon="-105.2305758">
  <ele>1586.14</ele>
  <time>2026-08-28T19:08:02Z</time>
  <course>152.64</course>
  <speed>0.02</speed>
  <fix>3d</fix>
</trkpt>
<trkpt lat="40.0728449" lon="-105.2305756">
  <ele>1586.09</ele>
  <time>2026-08-28T19:08:02Z</time>
  <course>100.23</course>
  <speed>0.0</speed>
  <fix>3d</fix>
</trkpt>
<trkpt lat="40.072845" lon="-105.2305758">
  <ele>1586.14</ele>
  <time>2026-08-28T19:08:02Z</time>
  <course>152.62</course>
  <speed>0.02</speed>
  <fix>3d</fix>
</trkpt>
<trkpt lat="40.0728449" lon="-105.2305756">
  <ele>1586.09</ele>
  <time>2026-08-28T19:08:02Z</time>
  <course>100.23</course>
  <speed>0.0</speed>
  <fix>3d</fix>
</trkpt>
<trkpt lat="40.072845" lon="-105.2305758">
  <ele>1586.14</ele>
  <time>2026-08-28T19:08:02Z</time>
  <course>152.6</course>
  <speed>0.02</speed>
  <fix>3d</fix>
</trkpt>
<trkpt lat="40.0728449" lon="-105.2305756">
  <ele>1586.09</ele>
  <time>2026-08-28T19:08:02Z</time>
  <course>100.23</course>
  <speed>0.0</speed>
  <fix>3d</fix>
</trkpt>
<trkpt lat="40.072845" lon="-105.2305758">
  <ele>1586.14</ele>
  <time>2026-08-28T19:08:02Z</time>
  <course>152.57</course>
  <speed>0.02</speed>
  <fix>3d</fix>
</trkpt>
<trkpt lat="40.0728449" lon="-105.2305756">
  <ele>1586.09</ele>
  <time>2026-08-28T19:08:02Z</time>
  <course>100.23</course>
  <speed>0.0</speed>
  <fix>3d</fix>
</trkpt>
<trkpt lat="40.072845" lon="-105.2305758">
  <ele>1586.14</ele>
  <time>2026-08-28T19:08:02Z</time>
  <course>152.55</course>
  <speed>0.02</speed>
  <fix>3d</fix>
</trkpt>
<trkpt lat="40.0728449" lon="-105.2305756">
  <ele>1586.09</ele>
  <time>2026-08-28T19:08:02Z</time>
  <course>100.23</course>
  <speed>0.0</speed>
  <fix>3d</fix>
</trkpt>
<trkpt lat="40.072845" lon="-105.2305758">
  <ele>1586.14</ele>
  <time>2026-08-28T19:08:02Z</time>
  <course>152.53</course>
  <speed>0.02</speed>
  <fix>3d</fix>
</trkpt>
<trkpt lat="40.0728449" lon="-105.2305756">
  <ele>1586.09</ele>
  <time>2026-08-28T19:08:02Z</time>
  <course>100.23</course>
  <speed>0.0</speed>
  <fix>3d</fix>
</trkpt>
<trkpt lat="40.072845" lon="-105.2305758">
  <ele>1586.14</ele>
  <time>2026-08-28T19:08:02Z</time>
  <course>152.51</course>
  <speed>0.02</speed>
  <fix>3d</fix>
</trkpt>
<trkpt lat="40.0728449" lon="-105.2305756">
  <ele>1586.09</ele>
  <time>2026-08-28T19:08:02Z</time>
  <course>100.23</course>
  <speed>0.0</speed>
  <fix>3d</fix>
</trkpt>
<trkpt lat="40.072845" lon="-105.2305758">
  <ele>1586.14</ele>
  <time>2026-08-28T19:08:02Z</time>
  <course>152.48</course>
  <speed>0.02</speed>
  <fix>3d</fix>
</trkpt>
<trkpt lat="40.0728449" lon="-105.2305756">
  <ele>1586.09</ele>
  <time>2026-08-28T19:08:02Z</time>
  <course>100.23</course>
  <speed>0.0</speed>
  <fix>3d</fix>
</trkpt>
<trkpt lat="39.654938" lon="-104.1331666">
  <ele>1569.54</ele>
  <time>2026-08-28T19:08:02Z</time>
  <course>168.11</course>
  <speed>0.0</speed>
  <fix>3d</fix>
</trkpt>
<trkpt lat="40.072842" lon="-105.230575">
  <ele>1586.09</ele>
  <time>2026-08-28T19:08:02Z</time>
  <course>2.03</course>
  <speed>0.0</speed>
  <fix>3d</fix>
</trkpt>
<trkpt lat="40.072842" lon="-105.230575">
  <ele>1586.09</ele>
  <time>2026-08-28T19:08:02Z</time>
  <course>238.4</course>
  <speed>0.0</speed>
  <fix>3d</fix>
</trkpt>
<trkpt lat="40.072842" lon="-105.230575">
  <ele>1586.09</ele>
  <time>2026-08-28T19:08:02Z</time>
  <course>2.41</course>
  <speed>0.0</speed>
  <fix>3d</fix>
</trkpt>
<trkpt lat="40.072842" lon="-105.230575">
  <ele>1586.09</ele>
  <time>2026-08-28T19:08:02Z</time>
  <course>194.29</course>
  <speed>0.0</speed>
  <fix>3d</fix>
</trkpt>
<trkpt lat="40.072842" lon="-105.230575">
  <ele>1586.09</ele>
  <time>2026-08-28T19:08:02Z</time>
  <course>3.14</course>
  <speed>0.0</speed>
  <fix>3d</fix>
</trkpt>
<trkpt lat="40.072842" lon="-105.230575">
  <ele>1586.09</ele>
  <time>2026-08-28T19:08:02Z</time>
  <course>193.66</course>
  <speed>0.0</speed>
  <fix>3d</fix>
</trkpt>
<trkpt lat="40.072842" lon="-105.230575">
  <ele>1586.09</ele>
  <time>2026-08-28T19:08:02Z</time>
  <course>3.83</course>
  <speed>0.0</speed>
  <fix>3d</fix>
</trkpt>
<trkpt lat="40.072842" lon="-105.230575">
  <ele>1586.09</ele>
  <time>2026-08-28T19:08:02Z</time>
  <course>303.54</course>
  <speed>0.0</speed>
  <fix>3d</fix>
</trkpt>
<trkpt lat="40.072842" lon="-105.230575">
  <ele>1586.09</ele>
  <time>2026-08-28T19:08:02Z</time>
  <course>4.46</course>
  <speed>0.0</speed>
  <fix>3d</fix>
</trkpt>
<trkpt lat="40.072842" lon="-105.230575">
  <ele>1586.09</ele>
  <time>2026-08-28T19:08:02Z</time>
  <course>110.94</course>
  <speed>0.0</speed>
  <fix>3d</fix>
</trkpt>
<trkpt lat="40.072842" lon="-105.230575">
  <ele>1586.09</ele>
  <time>2026-08-28T19:08:02Z</time>
  <course>5.04</course>
  <speed>0.0</speed>
  <fix>3d</fix>
</trkpt>
<trkpt lat="40.072842" lon="-105.230575">
  <ele>1586.09</ele>
  <time>2026-08-28T19:08:02Z</time>
  <course>191.21</course>
  <speed>0.0</speed>
  <fix>3d</fix>
</trkpt>
<trkpt lat="40.072842" lon="-105.230575">
  <ele>1586.09</ele>
  <time>2026-08-28T19:08:02Z</time>
  <course>5.6</course>
  <speed>0.0</speed>
  <fix>3d</fix>
</trkpt>
<trkpt lat="40.072842" lon="-105.230575">
  <ele>1586.09</ele>
  <time>2026-08-28T19:08:02Z</time>
  <course>252.23</course>
  <speed>0.0</speed>
  <fix>3d</fix>
</trkpt>
<trkpt lat="40.072842" lon="-105.230575">
  <ele>1586.09</ele>
  <time>2026-08-28T19:08:02Z</time>
  <course>6.13</course>
  <speed>0.0</speed>
  <fix>3d</fix>
</trkpt>
<trkpt lat="40.072842" lon="-105.230575">
  <ele>1586.09</ele>
  <time>2026-08-28T19:08:02Z</time>
  <course>170.36</course>
  <speed>0.0</speed>
  <fix>3d</fix>
</trkpt>
<trkpt lat="40.072842" lon="-105.230575">
  <ele>1586.09</ele>
  <time>2026-08-28T19:08:02Z</time>
  <course>6.63</course>
  <speed>0.0</speed>
  <fix>3d</fix>
</trkpt>
<trkpt lat="40.072842" lon="-105.230575">
  <ele>1586.09</ele>
  <time>2026-08-28T19:08:02Z</time>
  <course>179.36</course>
  <speed>0.0</speed>
  <fix>3d</fix>
</trkpt>
<trkpt lat="40.072842" lon="-105.230575">
  <ele>1586.09</ele>
  <time>2026-08-28T19:08:02Z</time>
  <course>7.09</course>
  <speed>0.0</speed>
  <fix>3d</fix>
</trkpt>
<trkpt lat="40.072842" lon="-105.230575">
  <ele>1586.09</ele>
  <time>2026-08-28T19:08:02Z</time>
  <course>19.98</course>
  <speed>0.0</speed>
  <fix>3d</fix>
</trkpt>
<trkpt lat="40.072842" lon="-105.230575">
  <ele>1586.09</ele>
  <time>2026-08-28T19:08:02Z</time>
  <course>7.52</course>
  <speed>0.0</speed>
  <fix>3d</fix>
</trkpt>
<trkpt lat="40.072842" lon="-105.230575">
  <ele>1586.09</ele>
  <time>2026-08-28T19:08:02Z</time>
  <course>17.49</course>
  <speed>0.0</speed>
  <fix>3d</fix>
</trkpt>
<trkpt lat="40.072842" lon="-105.230575">
  <ele>1586.09</ele>
  <time>2026-08-28T19:08:02Z</time>
  <course>7.91</course>
  <speed>0.0</speed>
  <fix>3d</fix>
</trkpt>
<trkpt lat="40.072842" lon="-105.230575">
  <ele>1586.09</ele>
  <time>2026-08-28T19:08:02Z</time>
  <course>356.19</course>
  <speed>0.0</speed>
  <fix>3d</fix>
</trkpt>
<trkpt lat="40.072842" lon="-105.230575">
  <ele>1586.09</ele>
  <time>2026-08-28T19:08:02Z</time>
  <course>8.28</course>
  <speed>0.0</speed>
  <fix>3d</fix>
</trkpt>
<trkpt lat="40.072842" lon="-105.230575">
  <ele>1586.09</ele>
  <time>2026-08-28T19:08:02Z</time>
  <course>77.32</course>
  <speed>0.0</speed>
  <fix>3d</fix>
</trkpt>
<trkpt lat="40.072842" lon="-105.230575">
  <ele>1586.09</ele>
  <time>2026-08-28T19:08:02Z</time>
  <course>8.62</course>
  <speed>0.0</speed>
  <fix>3d</fix>
</trkpt>
<trkpt lat="40.072842" lon="-105.230575">
  <ele>1586.09</ele>
  <time>2026-08-28T19:08:02Z</time>
  <course>290.54</course>
  <speed>0.0</speed>
  <fix>3d</fix>
</trkpt>
<trkpt lat="40.072842" lon="-105.230575">
  <ele>1586.09</ele>
  <time>2026-08-28T19:08:02Z</time>
  <course>8.93</course>
  <speed>0.0</speed>
  <fix>3d</fix>
</trkpt>
<trkpt lat="40.072842" lon="-105.230575">
  <ele>1586.09</ele>
  <time>2026-08-28T19:08:02Z</time>
  <course>338.69</course>
  <speed>0.0</speed>
  <fix>3d</fix>
</trkpt>
<trkpt lat="40.072842" lon="-105.230575">
  <ele>1586.09</ele>
  <time>2026-08-28T19:08:02Z</time>
  <course>9.22</course>
  <speed>0.0</speed>
  <fix>3d</fix>
</trkpt>
<trkpt lat="40.072842" lon="-105.230575">
  <ele>1586.09</ele>
  <time>2026-08-28T19:08:02Z</time>
  <course>326.81</course>
  <speed>0.0</speed>
  <fix>3d</fix>
</trkpt>
<trkpt lat="40.072842" lon="-105.230575">
  <ele>1586.09</ele>
  <time>2026-08-28T19:08:02Z</time>
  <course>9.48</course>
  <speed>0.0</speed>
  <fix>3d</fix>
</trkpt>
<trkpt lat="40.072842" lon="-105.230575">
  <ele>1586.09</ele>
  <time>2026-08-28T19:08:02Z</time>
  <course>262.23</course>
  <speed>0.0</speed>
  <fix>3d</fix>
</trkpt>
<trkpt lat="40.072842" lon="-105.230575">
  <ele>1586.09</ele>
  <time>2026-08-28T19:08:02Z</time>
  <course>9.72</course>
  <speed>0.0</speed>
  <fix>3d</fix>
</trkpt>
<trkpt lat="40.072842" lon="-105.230575">
  <ele>1586.09</ele>
  <time>2026-08-28T19:08:02Z</time>
  <course>159.08</course>
  <speed>0.0</speed>
  <fix>3d</fix>
</trkpt>
<trkpt lat="40.072842" lon="-105.230575">
  <ele>1586.09</ele>
  <time>2026-08-28T19:08:02Z</time>
  <course>9.95</course>
  <speed>0.0</speed>
  <fix>3d</fix>
</trkpt>
<trkpt lat="40.072842" lon="-105.230575">
  <ele>1586.09</ele>
  <time>2026-08-28T19:08:02Z</time>
  <course>287.98</course>
  <speed>0.0</speed>
  <fix>3d</fix>
</trkpt>
<trkpt lat="40.072842" lon="-105.230575">
  <ele>1586.09</ele>
  <time>2026-08-28T19:08:02Z</time>
  <course>10.15</course>
  <speed>0.0</speed>
  <fix>3d</fix>
</trkpt>
<trkpt lat="40.072842" lon="-105.230575">
  <ele>1586.09</ele>
  <time>2026-08-28T19:08:02Z</time>
  <course>278.3</course>
  <speed>0.0</speed>
  <fix>3d</fix>
</trkpt>
<trkpt lat="40.072842" lon="-105.230575">
  <ele>1586.09</ele>
  <time>2026-08-28T19:08:02Z</time>
  <course>10.34</course>
  <speed>0.0</speed>
  <fix>3d</fix>
</trkpt>
<trkpt lat="40.072842" lon="-105.230575">
  <ele>1586.09</ele>
  <time>2026-08-28T19:08:02Z</time>
  <course>261.72</course>
  <speed>0.0</speed>
  <fix>3d</fix>
</trkpt>
<trkpt lat="40.072842" lon="-105.230575">
  <ele>1586.09</ele>
  <time>2026-08-28T19:08:02Z</time>
  <course>10.51</course>
  <speed>0.0</speed>
  <fix>3d</fix>
</trkpt>
<trkpt lat="40.072842" lon="-105.230575">
  <ele>1586.09</ele>
  <time>2026-08-28T19:08:02Z</time>
  <course>264.4</course>
  <speed>0.0</speed>
  <fix>3d</fix>
</trkpt>
<trkpt lat="40.072842" lon="-105.230575">
  <ele>1586.09</ele>
  <time>2026-08-28T19:08:02Z</time>
  <course>10.67</course>
  <speed>0.0</speed>
  <fix>3d</fix>
</trkpt>
<trkpt lat="40.072842" lon="-105.230575">
  <ele>1586.09</ele>
  <time>2026-08-28T19:08:02Z</time>
  <course>266.8</course>
  <speed>0.0</speed>
  <fix>3d</fix>
</trkpt>
<trkpt lat="40.072842" lon="-105.230575">
  <ele>1586.09</ele>
  <time>2026-08-28T19:08:02Z</time>
  <course>10.81</course>
  <speed>0.0</speed>
  <fix>3d</fix>
</trkpt>
<trkpt lat="40.072842" lon="-105.230575">
  <ele>1586.09</ele>
  <time>2026-08-28T19:08:02Z</time>
  <course>266.15</course>
  <speed>0.0</speed>
  <fix>3d</fix>
</trkpt>
<trkpt lat="40.072842" lon="-105.230575">
  <ele>1586.09</ele>
  <time>2026-08-28T19:08:02Z</time>
  <course>10.94</course>
  <speed>0.0</speed>
  <fix>3d</fix>
</trkpt>
<trkpt lat="40.072842" lon="-105.230575">
  <ele>1586.09</ele>
  <time>2026-08-28T19:08:02Z</time>
  <course>265.92</course>
  <speed>0.0</speed>
  <fix>3d</fix>
</trkpt>
<trkpt lat="40.072842" lon="-105.230575">
  <ele>1586.09</ele>
  <time>2026-08-28T19:08:02Z</time>
  <course>11.07</course>
  <speed>0.0</speed>
  <fix>3d</fix>
</trkpt>
<trkpt lat="40.072842" lon="-105.230575">
  <ele>1586.09</ele>
  <time>2026-08-28T19:08:02Z</time>
  <course>266.03</course>
  <speed>0.0</speed>
  <fix>3d</fix>
</trkpt>
<trkpt lat="40.072842" lon="-105.230575">
  <ele>1586.09</ele>
  <time>2026-08-28T19:08:02Z</time>
  <course>11.18</course>
  <speed>0.0</speed>
  <fix>3d</fix>
</trkpt>
<trkpt lat="40.072842" lon="-105.230575">
  <ele>1586.09</ele>
  <time>2026-08-28T19:08:02Z</time>
  <course>266.05</course>
  <speed>0.0</speed>
  <fix>3d</fix>
</trkpt>
<trkpt lat="40.072842" lon="-105.230575">
  <ele>1586.09</ele>
  <time>2026-08-28T19:08:02Z</time>
  <course>11.28</course>
  <speed>0.0</speed>
  <fix>3d</fix>
</trkpt>
<trkpt lat="40.072842" lon="-105.230575">
  <ele>1586.09</ele>
  <time>2026-08-28T19:08:02Z</time>
  <course>266.03</course>
  <speed>0.0</speed>
  <fix>3d</fix>
</trkpt>
<trkpt lat="40.072842" lon="-105.230575">
  <ele>1586.09</ele>
  <time>2026-08-28T19:08:02Z</time>
  <course>11.37</course>
  <speed>0.0</speed>
  <fix>3d</fix>
</trkpt>
<trkpt lat="40.072842" lon="-105.230575">
  <ele>1586.09</ele>
  <time>2026-08-28T19:08:02Z</time>
  <course>266.03</course>
  <speed>0.0</speed>
  <fix>3d</fix>
</trkpt>
<trkpt lat="40.072842" lon="-105.230575">
  <ele>1586.09</ele>
  <time>2026-08-28T19:08:02Z</time>
  <course>11.45</course>
  <speed>0.0</speed>
  <fix>3d</fix>
</trkpt>
<trkpt lat="40.072842" lon="-105.230575">
  <ele>1586.09</ele>
  <time>2026-08-28T19:08:02Z</time>
  <course>266.03</course>
  <speed>0.0</speed>
  <fix>3d</fix>
</trkpt>
<trkpt lat="40.072842" lon="-105.230575">
  <ele>1586.09</ele>
  <time>2026-08-28T19:08:02Z</time>
  <course>11.53</course>
  <speed>0.0</speed>
  <fix>3d</fix>
</trkpt>
<trkpt lat="40.072842" lon="-105.230575">
  <ele>1586.09</ele>
  <time>2026-08-28T19:08:02Z</time>
  <course>266.03</course>
  <speed>0.0</speed>
  <fix>3d</fix>
</trkpt>
<trkpt lat="40.072842" lon="-105.230575">
  <ele>1586.09</ele>
  <time>2026-08-28T19:08:02Z</time>
  <course>11.59</course>
  <speed>0.0</speed>
  <fix>3d</fix>
</trkpt>
<trkpt lat="40.072842" lon="-105.230575">
  <ele>1586.09</ele>
  <time>2026-08-28T19:08:02Z</time>
  <course>266.03</course>
  <speed>0.0</speed>
  <fix>3d</fix>
</trkpt>
<trkpt lat="40.072842" lon="-105.230575">
  <ele>1586.09</ele>
  <time>2026-08-28T19:08:02Z</time>
  <course>11.65</course>
  <speed>0.0</speed>
  <fix>3d</fix>
</trkpt>
<trkpt lat="40.072842" lon="-105.230575">
  <ele>1586.09</ele>
  <time>2026-08-28T19:08:02Z</time>
  <course>266.03</course>
  <speed>0.0</speed>
  <fix>3d</fix>
</trkpt>
<trkpt lat="40.072842" lon="-105.230575">
  <ele>1586.09</ele>
  <time>2026-08-28T19:08:02Z</time>
  <course>11.71</course>
  <speed>0.0</speed>
  <fix>3d</fix>
</trkpt>
<trkpt lat="40.072842" lon="-105.230575">
  <ele>1586.09</ele>
  <time>2026-08-28T19:08:02Z</time>
  <course>266.03</course>
  <speed>0.0</speed>
  <fix>3d</fix>
</trkpt>
<trkpt lat="40.072842" lon="-105.230575">
  <ele>1586.09</ele>
  <time>2026-08-28T19:08:02Z</time>
  <course>11.76</course>
  <speed>0.0</speed>
  <fix>3d</fix>
</trkpt>
<trkpt lat="40.072842" lon="-105.230575">
  <ele>1586.09</ele>
  <time>2026-08-28T19:08:03Z</time>
  <course>266.03</course>
  <speed>0.0</speed>
  <fix>3d</fix>
</trkpt>
<trkpt lat="40.072842" lon="-105.230575">
  <ele>1586.09</ele>
  <time>2026-08-28T19:08:03Z</time>
  <course>11.81</course>
  <speed>0.0</speed>
  <fix>3d</fix>
</trkpt>
<trkpt lat="40.072842" lon="-105.230575">
  <ele>1586.09</ele>
  <time>2026-08-28T19:08:03Z</time>
  <course>266.03</course>
  <speed>0.0</speed>
  <fix>3d</fix>
</trkpt>
<trkpt lat="40.072842" lon="-105.230575">
  <ele>1586.09</ele>
  <time>2026-08-28T19:08:03Z</time>
  <course>11.85</course>
  <speed>0.0</speed>
  <fix>3d</fix>
</trkpt>
<trkpt lat="40.072842" lon="-105.230575">
  <ele>1586.09</ele>
  <time>2026-08-28T19:08:03Z</time>
  <course>266.03</course>
  <speed>0.0</speed>
  <fix>3d</fix>
</trkpt>
<trkpt lat="40.072842" lon="-105.230575">
  <ele>1586.09</ele>
  <time>2026-08-28T19:08:03Z</time>
  <course>11.88</course>
  <speed>0.0</speed>
  <fix>3d</fix>
</trkpt>
<trkpt lat="40.072842" lon="-105.230575">
  <ele>1586.09</ele>
  <time>2026-08-28T19:08:03Z</time>
  <course>266.03</course>
  <speed>0.0</speed>
  <fix>3d</fix>
</trkpt>
<trkpt lat="40.072842" lon="-105.230575">
  <ele>1586.09</ele>
  <time>2026-08-28T19:08:03Z</time>
  <course>11.92</course>
  <speed>0.0</speed>
  <fix>3d</fix>
</trkpt>
<trkpt lat="40.072842" lon="-105.230575">
  <ele>1586.09</ele>
  <time>2026-08-28T19:08:03Z</time>
  <course>266.03</course>
  <speed>0.0</speed>
  <fix>3d</fix>
</trkpt>
<trkpt lat="40.072842" lon="-105.230575">
  <ele>1586.09</ele>
  <time>2026-08-28T19:08:03Z</time>
  <course>11.95</course>
  <speed>0.0</speed>
  <fix>3d</fix>
</trkpt>
<trkpt lat="40.072842" lon="-105.230575">
  <ele>1586.09</ele>
  <time>2026-08-28T19:08:03Z</time>
  <course>266.03</course>
  <speed>0.0</speed>
  <fix>3d</fix>
</trkpt>
<trkpt lat="40.072842" lon="-105.230575">
  <ele>1586.09</ele>
  <time>2026-08-28T19:08:03Z</time>
  <course>11.97</course>
  <speed>0.0</speed>
  <fix>3d</fix>
</trkpt>
<trkpt lat="40.072842" lon="-105.230575">
  <ele>1586.09</ele>
  <time>2026-08-28T19:08:03Z</time>
  <course>266.03</course>
  <speed>0.0</speed>
  <fix>3d</fix>
</trkpt>
<trkpt lat="40.072842" lon="-105.230575">
  <ele>1586.09</ele>
  <time>2026-08-28T19:08:03Z</time>
  <course>12.0</course>
  <speed>0.0</speed>
  <fix>3d</fix>
</trkpt>
<trkpt lat="40.072842" lon="-105.230575">
  <ele>1586.09</ele>
  <time>2026-08-28T19:08:03Z</time>
  <course>266.03</course>
  <speed>0.0</speed>
  <fix>3d</fix>
</trkpt>
<trkpt lat="40.072842" lon="-105.230575">
  <ele>1586.09</ele>
  <time>2026-08-28T19:08:03Z</time>
  <course>12.02</course>
  <speed>0.0</speed>
  <fix>3d</fix>
</trkpt>
<trkpt lat="40.072842" lon="-105.230575">
  <ele>1586.09</ele>
  <time>2026-08-28T19:08:03Z</time>
  <course>266.03</course>
  <speed>0.0</speed>
  <fix>3d</fix>
</trkpt>
<trkpt lat="40.072842" lon="-105.230575">
  <ele>1586.09</ele>
  <time>2026-08-28T19:08:03Z</time>
  <course>12.04</course>
  <speed>0.0</speed>
  <fix>3d</fix>
</trkpt>
<trkpt lat="40.072842" lon="-105.230575">
  <ele>1586.09</ele>
  <time>2026-08-28T19:08:03Z</time>
  <course>266.03</course>
  <speed>0.0</speed>
  <fix>3d</fix>
</trkpt>
<trkpt lat="40.072842" lon="-105.230575">
  <ele>1586.09</ele>
  <time>2026-08-28T19:08:03Z</time>
  <course>12.05</course>
  <speed>0.0</speed>
  <fix>3d</fix>
</trkpt>
<trkpt lat="40.072842" lon="-105.230575">
  <ele>1586.09</ele>
  <time>2026-08-28T19:08:03Z</time>
  <course>266.03</course>
  <speed>0.0</speed>
  <fix>3d</fix>
</trkpt>
<trkpt lat="40.072842" lon="-105.230575">
  <ele>1586.09</ele>
  <time>2026-08-28T19:08:03Z</time>
  <course>12.07</course>
  <speed>0.0</speed>
  <fix>3d</fix>
</trkpt>
<trkpt lat="40.072842" lon="-105.230575">
  <ele>1586.09</ele>
  <time>2026-08-28T19:08:03Z</time>
  <course>266.03</course>
  <speed>0.0</speed>
  <fix>3d</fix>
</trkpt>
<trkpt lat="40.072842" lon="-105.230575">
  <ele>1586.09</ele>
  <time>2026-08-28T19:08:03Z</time>
  <course>12.08</course>
  <speed>0.0</speed>
  <fix>3d</fix>
</trkpt>
<trkpt lat="40.072842" lon="-105.230575">
  <ele>1586.09</ele>
  <time>2026-08-28T19:08:03Z</time>
  <course>266.03</course>
  <speed>0.0</speed>
  <fix>3d</fix>
</trkpt>
<trkpt lat="40.072842" lon="-105.230575">
  <ele>1586.09</ele>
  <time>2026-08-28T19:08:03Z</time>
  <course>12.09</course>
  <speed>0.0</speed>
  <fix>3d</fix>
</trkpt>
<trkpt lat="40.072842" lon="-105.230575">
  <ele>1586.09</ele>
  <time>2026-08-28T19:08:03Z</time>
  <course>266.03</course>
  <speed>0.0</speed>
  <fix>3d</fix>
</trkpt>
<trkpt lat="40.072842" lon="-105.230575">
  <ele>1586.09</ele>
  <time>2026-08-28T19:08:03Z</time>
  <course>12.1</course>
  <speed>0.0</speed>
  <fix>3d</fix>
</trkpt>
<trkpt lat="40.072842" lon="-105.230575">
  <ele>1586.09</ele>
  <time>2026-08-28T19:08:03Z</time>
  <course>266.03</course>
  <speed>0.0</speed>
  <fix>3d</fix>
</trkpt>
<trkpt lat="40.072842" lon="-105.230575">
  <ele>1586.09</ele>
  <time>2026-08-28T19:08:03Z</time>
  <course>12.1</course>
  <speed>0.0</speed>
  <fix>3d</fix>
</trkpt>
<trkpt lat="40.072842" lon="-105.230575">
  <ele>1586.09</ele>
  <time>2026-08-28T19:08:03Z</time>
  <course>266.03</course>
  <speed>0.0</speed>
  <fix>3d</fix>
</trkpt>
<trkpt lat="40.072842" lon="-105.230575">
  <ele>1586.09</ele>
  <time>2026-08-28T19:08:03Z</time>
  <course>12.11</course>
  <speed>0.0</speed>
  <fix>3d</fix>
</trkpt>
<trkpt lat="40.072842" lon="-105.230575">
  <ele>1586.09</ele>
  <time>2026-08-28T19:08:03Z</time>
  <course>266.03</course>
  <speed>0.0</speed>
  <fix>3d</fix>
</trkpt>
<trkpt lat="40.072842" lon="-105.230575">
  <ele>1586.09</ele>
  <time>2026-08-28T19:08:03Z</time>
  <course>12.12</course>
  <speed>0.0</speed>
  <fix>3d</fix>
</trkpt>
<trkpt lat="40.072842" lon="-105.230575">
  <ele>1586.09</ele>
  <time>2026-08-28T19:08:03Z</time>
  <course>266.03</course>
  <speed>0.0</speed>
  <fix>3d</fix>
</trkpt>
<trkpt lat="40.072842" lon="-105.230575">
  <ele>1586.09</ele>
  <time>2026-08-28T19:08:03Z</time>
  <course>12.12</course>
  <speed>0.0</speed>
  <fix>3d</fix>
</trkpt>
<trkpt lat="40.072842" lon="-105.230575">
  <ele>1586.09</ele>
  <time>2026-08-28T19:08:03Z</time>
  <course>266.03</course>
  <speed>0.0</speed>
  <fix>3d</fix>
</trkpt>
<trkpt lat="40.072842" lon="-105.230575">
  <ele>1586.09</ele>
  <time>2026-08-28T19:08:03Z</time>
  <course>12.12</course>
  <speed>0.0</speed>
  <fix>3d</fix>
</trkpt>
<trkpt lat="40.072842" lon="-105.230575">
  <ele>1586.09</ele>
  <time>2026-08-28T19:08:03Z</time>
  <course>266.03</course>
  <speed>0.0</speed>
  <fix>3d</fix>
</trkpt>
<trkpt lat="40.072842" lon="-105.230575">
  <ele>1586.09</ele>
  <time>2026-08-28T19:08:03Z</time>
  <course>12.13</course>
  <speed>0.0</speed>
  <fix>3d</fix>
</trkpt>
<trkpt lat="40.072842" lon="-105.230575">
  <ele>1586.09</ele>
  <time>2026-08-28T19:08:03Z</time>
  <course>266.03</course>
  <speed>0.0</speed>
  <fix>3d</fix>
</trkpt>
<trkpt lat="40.072842" lon="-105.230575">
  <ele>1586.09</ele>
  <time>2026-08-28T19:08:03Z</time>
  <course>12.13</course>
  <speed>0.0</speed>
  <fix>3d</fix>
</trkpt>
<trkpt lat="40.072842" lon="-105.230575">
  <ele>1586.09</ele>
  <time>2026-08-28T19:08:03Z</time>
  <course>266.03</course>
  <speed>0.0</speed>
  <fix>3d</fix>
</trkpt>
<trkpt lat="40.072842" lon="-105.230575">
  <ele>1586.09</ele>
  <time>2026-08-28T19:08:03Z</time>
  <course>12.13</course>
  <speed>0.0</speed>
  <fix>3d</fix>
</trkpt>
<trkpt lat="40.072842" lon="-105.230575">
  <ele>1586.09</ele>
  <time>2026-08-28T19:08:03Z</time>
  <course>266.03</course>
  <speed>0.0</speed>
  <fix>3d</fix>
</trkpt>
<trkpt lat="40.072842" lon="-105.230575">
  <ele>1586.09</ele>
  <time>2026-08-28T19:08:03Z</time>
  <course>12.12</course>
  <speed>0.01</speed>
  <fix>3d</fix>
</trkpt>
<trkpt lat="40.072842" lon="-105.230575">
  <ele>1586.09</ele>
  <time>2026-08-28T19:08:03Z</time>
  <course>266.03</course>
  <speed>0.0</speed>
  <fix>3d</fix>
</trkpt>
<trkpt lat="40.072842" lon="-105.230575">
  <ele>1586.09</ele>
  <time>2026-08-28T19:08:03Z</time>
  <course>12.12</course>
  <speed>0.01</speed>
  <fix>3d</fix>
</trkpt>
<trkpt lat="40.072842" lon="-105.230575">
  <ele>1586.09</ele>
  <time>2026-08-28T19:08:03Z</time>
  <course>266.03</course>
  <speed>0.0</speed>
  <fix>3d</fix>
</trkpt>
<trkpt lat="40.072842" lon="-105.230575">
  <ele>1586.09</ele>
  <time>2026-08-28T19:08:03Z</time>
  <course>12.12</course>
  <speed>0.01</speed>
  <fix>3d</fix>
</trkpt>
<trkpt lat="40.072842" lon="-105.230575">
  <ele>1586.09</ele>
  <time>2026-08-28T19:08:03Z</time>
  <course>266.03</course>
  <speed>0.0</speed>
  <fix>3d</fix>
</trkpt>
<trkpt lat="40.072842" lon="-105.230575">
  <ele>1586.09</ele>
  <time>2026-08-28T19:08:03Z</time>
  <course>12.12</course>
  <speed>0.01</speed>
  <fix>3d</fix>
</trkpt>
<trkpt lat="40.072842" lon="-105.230575">
  <ele>1586.09</ele>
  <time>2026-08-28T19:08:03Z</time>
  <course>266.03</course>
  <speed>0.0</speed>
  <fix>3d</fix>
</trkpt>
<trkpt lat="40.072842" lon="-105.230575">
  <ele>1586.09</ele>
  <time>2026-08-28T19:08:03Z</time>
  <course>12.11</course>
  <speed>0.01</speed>
  <fix>3d</fix>
</trkpt>
<trkpt lat="40.072842" lon="-105.230575">
  <ele>1586.09</ele>
  <time>2026-08-28T19:08:03Z</time>
  <course>266.03</course>
  <speed>0.0</speed>
  <fix>3d</fix>
</trkpt>
<trkpt lat="40.072842" lon="-105.230575">
  <ele>1586.09</ele>
  <time>2026-08-28T19:08:03Z</time>
  <course>12.11</course>
  <speed>0.01</speed>
  <fix>3d</fix>
</trkpt>
<trkpt lat="40.072842" lon="-105.230575">
  <ele>1586.09</ele>
  <time>2026-08-28T19:08:03Z</time>
  <course>266.03</course>
  <speed>0.0</speed>
  <fix>3d</fix>
</trkpt>
<trkpt lat="40.072842" lon="-105.230575">
  <ele>1586.09</ele>
  <time>2026-08-28T19:08:03Z</time>
  <course>12.1</course>
  <speed>0.01</speed>
  <fix>3d</fix>
</trkpt>
<trkpt lat="40.072842" lon="-105.230575">
  <ele>1586.09</ele>
  <time>2026-08-28T19:08:03Z</time>
  <course>266.03</course>
  <speed>0.0</speed>
  <fix>3d</fix>
</trkpt>
<trkpt lat="40.072842" lon="-105.230575">
  <ele>1586.09</ele>
  <time>2026-08-28T19:08:03Z</time>
  <course>12.1</course>
  <speed>0.01</speed>
  <fix>3d</fix>
</trkpt>
<trkpt lat="40.072842" lon="-105.230575">
  <ele>1586.09</ele>
  <time>2026-08-28T19:08:03Z</time>
  <course>266.03</course>
  <speed>0.0</speed>
  <fix>3d</fix>
</trkpt>
<trkpt lat="40.072842" lon="-105.230575">
  <ele>1586.09</ele>
  <time>2026-08-28T19:08:03Z</time>
  <course>12.09</course>
  <speed>0.01</speed>
  <fix>3d</fix>
</trkpt>
<trkpt lat="40.072842" lon="-105.230575">
  <ele>1586.09</ele>
  <time>2026-08-28T19:08:03Z</time>
  <course>266.03</course>
  <speed>0.0</speed>
  <fix>3d</fix>
</trkpt>
<trkpt lat="40.072842" lon="-105.230575">
  <ele>1586.09</ele>
  <time>2026-08-28T19:08:03Z</time>
  <course>12.09</course>
  <speed>0.01</speed>
  <fix>3d</fix>
</trkpt>
<trkpt lat="40.072842" lon="-105.230575">
  <ele>1586.09</ele>
  <time>2026-08-28T19:08:03Z</time>
  <course>266.03</course>
  <speed>0.0</speed>
  <fix>3d</fix>
</trkpt>
<trkpt lat="40.072842" lon="-105.230575">
  <ele>1586.09</ele>
  <time>2026-08-28T19:08:03Z</time>
  <course>12.08</course>
  <speed>0.01</speed>
  <fix>3d</fix>
</trkpt>
<trkpt lat="40.072842" lon="-105.230575">
  <ele>1586.09</ele>
  <time>2026-08-28T19:08:03Z</time>
  <course>266.03</course>
  <speed>0.0</speed>
  <fix>3d</fix>
</trkpt>
<trkpt lat="40.072842" lon="-105.230575">
  <ele>1586.09</ele>
  <time>2026-08-28T19:08:03Z</time>
  <course>12.08</course>
  <speed>0.01414213562373095</speed>
  <fix>3d</fix>
</trkpt>
<trkpt lat="40.072842" lon="-105.230575">
  <ele>1586.09</ele>
  <time>2026-08-28T19:08:03Z</time>
  <course>266.03</course>
  <speed>0.0</speed>
  <fix>3d</fix>
</trkpt>
<trkpt lat="40.072842" lon="-105.230575">
  <ele>1586.09</ele>
  <time>2026-08-28T19:08:03Z</time>
  <course>12.07</course>
  <speed>0.01414213562373095</speed>
  <fix>3d</fix>
</trkpt>
<trkpt lat="40.072842" lon="-105.230575">
  <ele>1586.09</ele>
  <time>2026-08-28T19:08:03Z</time>
  <course>266.03</course>
  <speed>0.0</speed>
  <fix>3d</fix>
</trkpt>
<trkpt lat="40.072842" lon="-105.230575">
  <ele>1586.09</ele>
  <time>2026-08-28T19:08:03Z</time>
  <course>12.06</course>
  <speed>0.01414213562373095</speed>
  <fix>3d</fix>
</trkpt>
<trkpt lat="40.072842" lon="-105.230575">
  <ele>1586.09</ele>
  <time>2026-08-28T19:08:03Z</time>
  <course>266.03</course>
  <speed>0.0</speed>
  <fix>3d</fix>
</trkpt>
<trkpt lat="40.072842" lon="-105.230575">
  <ele>1586.09</ele>
  <time>2026-08-28T19:08:03Z</time>
  <course>12.05</course>
  <speed>0.01414213562373095</speed>
  <fix>3d</fix>
</trkpt>
<trkpt lat="40.072842" lon="-105.230575">
  <ele>1586.09</ele>
  <time>2026-08-28T19:08:03Z</time>
  <course>266.03</course>
  <speed>0.0</speed>
  <fix>3d</fix>
</trkpt>
<trkpt lat="40.072842" lon="-105.230575">
  <ele>1586.09</ele>
  <time>2026-08-28T19:08:03Z</time>
  <course>12.05</course>
  <speed>0.01414213562373095</speed>
  <fix>3d</fix>
</trkpt>
<trkpt lat="40.072842" lon="-105.230575">
  <ele>1586.09</ele>
  <time>2026-08-28T19:08:03Z</time>
  <course>266.03</course>
  <speed>0.0</speed>
  <fix>3d</fix>
</trkpt>
<trkpt lat="40.072842" lon="-105.230575">
  <ele>1586.09</ele>
  <time>2026-08-28T19:08:03Z</time>
  <course>12.04</course>
  <speed>0.01414213562373095</speed>
  <fix>3d</fix>
</trkpt>
<trkpt lat="40.072842" lon="-105.230575">
  <ele>1586.09</ele>
  <time>2026-08-28T19:08:03Z</time>
  <course>266.03</course>
  <speed>0.0</speed>
  <fix>3d</fix>
</trkpt>
<trkpt lat="40.072842" lon="-105.230575">
  <ele>1586.09</ele>
  <time>2026-08-28T19:08:03Z</time>
  <course>12.03</course>
  <speed>0.01414213562373095</speed>
  <fix>3d</fix>
</trkpt>
<trkpt lat="40.072842" lon="-105.230575">
  <ele>1586.09</ele>
  <time>2026-08-28T19:08:03Z</time>
  <course>266.03</course>
  <speed>0.0</speed>
  <fix>3d</fix>
</trkpt>
<trkpt lat="40.072842" lon="-105.230575">
  <ele>1586.09</ele>
  <time>2026-08-28T19:08:03Z</time>
  <course>12.03</course>
  <speed>0.01414213562373095</speed>
  <fix>3d</fix>
</trkpt>
<trkpt lat="40.072842" lon="-105.230575">
  <ele>1586.09</ele>
  <time>2026-08-28T19:08:03Z</time>
  <course>266.03</course>
  <speed>0.0</speed>
  <fix>3d</fix>
</trkpt>
<trkpt lat="40.072842" lon="-105.230575">
  <ele>1586.09</ele>
  <time>2026-08-28T19:08:03Z</time>
  <course>12.02</course>
  <speed>0.01414213562373095</speed>
  <fix>3d</fix>
</trkpt>
<trkpt lat="40.072842" lon="-105.230575">
  <ele>1586.09</ele>
  <time>2026-08-28T19:08:03Z</time>
  <course>266.03</course>
  <speed>0.0</speed>
  <fix>3d</fix>
</trkpt>
<trkpt lat="40.072842" lon="-105.230575">
  <ele>1586.09</ele>
  <time>2026-08-28T19:08:03Z</time>
  <course>12.01</course>
  <speed>0.01414213562373095</speed>
  <fix>3d</fix>
</trkpt>
<trkpt lat="40.072842" lon="-105.230575">
  <ele>1586.09</ele>
  <time>2026-08-28T19:08:03Z</time>
  <course>266.03</course>
  <speed>0.0</speed>
  <fix>3d</fix>
</trkpt>
<trkpt lat="40.072842" lon="-105.230575">
  <ele>1586.09</ele>
  <time>2026-08-28T19:08:03Z</time>
  <course>12.01</course>
  <speed>0.01414213562373095</speed>
  <fix>3d</fix>
</trkpt>
<trkpt lat="40.072842" lon="-105.230575">
  <ele>1586.09</ele>
  <time>2026-08-28T19:08:03Z</time>
  <course>266.03</course>
  <speed>0.0</speed>
  <fix>3d</fix>
</trkpt>
<trkpt lat="40.072842" lon="-105.230575">
  <ele>1586.09</ele>
  <time>2026-08-28T19:08:03Z</time>
  <course>12.0</course>
  <speed>0.01414213562373095</speed>
  <fix>3d</fix>
</trkpt>
<trkpt lat="40.072842" lon="-105.230575">
  <ele>1586.09</ele>
  <time>2026-08-28T19:08:03Z</time>
  <course>266.03</course>
  <speed>0.0</speed>
  <fix>3d</fix>
</trkpt>
<trkpt lat="40.072842" lon="-105.230575">
  <ele>1586.09</ele>
  <time>2026-08-28T19:08:03Z</time>
  <course>11.99</course>
  <speed>0.01414213562373095</speed>
  <fix>3d</fix>
</trkpt>
<trkpt lat="40.072842" lon="-105.230575">
  <ele>1586.09</ele>
  <time>2026-08-28T19:08:03Z</time>
  <course>266.03</course>
  <speed>0.0</speed>
  <fix>3d</fix>
</trkpt>
<trkpt lat="40.072842" lon="-105.230575">
  <ele>1586.09</ele>
  <time>2026-08-28T19:08:03Z</time>
  <course>11.98</course>
  <speed>0.01414213562373095</speed>
  <fix>3d</fix>
</trkpt>
<trkpt lat="40.072842" lon="-105.230575">
  <ele>1586.09</ele>
  <time>2026-08-28T19:08:03Z</time>
  <course>266.03</course>
  <speed>0.0</speed>
  <fix>3d</fix>
</trkpt>
<trkpt lat="40.072842" lon="-105.230575">
  <ele>1586.09</ele>
  <time>2026-08-28T19:08:03Z</time>
  <course>11.98</course>
  <speed>0.01414213562373095</speed>
  <fix>3d</fix>
</trkpt>
<trkpt lat="40.072842" lon="-105.230575">
  <ele>1586.09</ele>
  <time>2026-08-28T19:08:03Z</time>
  <course>266.03</course>
  <speed>0.0</speed>
  <fix>3d</fix>
</trkpt>
<trkpt lat="40.072842" lon="-105.230575">
  <ele>1586.09</ele>
  <time>2026-08-28T19:08:03Z</time>
  <course>11.97</course>
  <speed>0.022360679774997897</speed>
  <fix>3d</fix>
</trkpt>
<trkpt lat="40.072842" lon="-105.230575">
  <ele>1586.09</ele>
  <time>2026-08-28T19:08:03Z</time>
  <course>266.03</course>
  <speed>0.0</speed>
  <fix>3d</fix>
</trkpt>
<trkpt lat="40.072842" lon="-105.230575">
  <ele>1586.09</ele>
  <time>2026-08-28T19:08:03Z</time>
  <course>11.96</course>
  <speed>0.022360679774997897</speed>
  <fix>3d</fix>
</trkpt>
<trkpt lat="40.072842" lon="-105.230575">
  <ele>1586.09</ele>
  <time>2026-08-28T19:08:03Z</time>
  <course>266.03</course>
  <speed>0.0</speed>
  <fix>3d</fix>
</trkpt>
<trkpt lat="40.072842" lon="-105.230575">
  <ele>1586.09</ele>
  <time>2026-08-28T19:08:03Z</time>
  <course>11.95</course>
  <speed>0.022360679774997897</speed>
  <fix>3d</fix>
</trkpt>
<trkpt lat="40.072842" lon="-105.230575">
  <ele>1586.09</ele>
  <time>2026-08-28T19:08:03Z</time>
  <course>266.03</course>
  <speed>0.0</speed>
  <fix>3d</fix>
</trkpt>
<trkpt lat="40.072842" lon="-105.230575">
  <ele>1586.09</ele>
  <time>2026-08-28T19:08:03Z</time>
  <course>11.94</course>
  <speed>0.022360679774997897</speed>
  <fix>3d</fix>
</trkpt>
<trkpt lat="40.072842" lon="-105.230575">
  <ele>1586.09</ele>
  <time>2026-08-28T19:08:03Z</time>
  <course>266.03</course>
  <speed>0.0</speed>
  <fix>3d</fix>
</trkpt>
<trkpt lat="40.072842" lon="-105.230575">
  <ele>1586.09</ele>
  <time>2026-08-28T19:08:03Z</time>
  <course>11.93</course>
  <speed>0.022360679774997897</speed>
  <fix>3d</fix>
</trkpt>
<trkpt lat="40.072842" lon="-105.230575">
  <ele>1586.09</ele>
  <time>2026-08-28T19:08:03Z</time>
  <course>266.03</course>
  <speed>0.0</speed>
  <fix>3d</fix>
</trkpt>
<trkpt lat="40.072842" lon="-105.230575">
  <ele>1586.09</ele>
  <time>2026-08-28T19:08:03Z</time>
  <course>11.92</course>
  <speed>0.022360679774997897</speed>
  <fix>3d</fix>
</trkpt>
<trkpt lat="40.072842" lon="-105.230575">
  <ele>1586.09</ele>
  <time>2026-08-28T19:08:03Z</time>
  <course>266.03</course>
  <speed>0.0</speed>
  <fix>3d</fix>
</trkpt>
<trkpt lat="40.072842" lon="-105.230575">
  <ele>1586.09</ele>
  <time>2026-08-28T19:08:03Z</time>
  <course>11.92</course>
  <speed>0.022360679774997897</speed>
  <fix>3d</fix>
</trkpt>
<trkpt lat="40.072842" lon="-105.230575">
  <ele>1586.09</ele>
  <time>2026-08-28T19:08:03Z</time>
  <course>266.03</course>
  <speed>0.0</speed>
  <fix>3d</fix>
</trkpt>
<trkpt lat="40.072842" lon="-105.230575">
  <ele>1586.09</ele>
  <time>2026-08-28T19:08:03Z</time>
  <course>11.91</course>
  <speed>0.022360679774997897</speed>
  <fix>3d</fix>
</trkpt>
<trkpt lat="40.072842" lon="-105.230575">
  <ele>1586.09</ele>
  <time>2026-08-28T19:08:03Z</time>
  <course>266.03</course>
  <speed>0.0</speed>
  <fix>3d</fix>
</trkpt>
<trkpt lat="40.072842" lon="-105.230575">
  <ele>1586.09</ele>
  <time>2026-08-28T19:08:03Z</time>
  <course>11.9</course>
  <speed>0.022360679774997897</speed>
  <fix>3d</fix>
</trkpt>
<trkpt lat="40.072842" lon="-105.230575">
  <ele>1586.09</ele>
  <time>2026-08-28T19:08:03Z</time>
  <course>266.03</course>
  <speed>0.0</speed>
  <fix>3d</fix>
</trkpt>
<trkpt lat="40.072842" lon="-105.230575">
  <ele>1586.09</ele>
  <time>2026-08-28T19:08:03Z</time>
  <course>11.89</course>
  <speed>0.022360679774997897</speed>
  <fix>3d</fix>
</trkpt>
<trkpt lat="40.072842" lon="-105.230575">
  <ele>1586.09</ele>
  <time>2026-08-28T19:08:03Z</time>
  <course>266.03</course>
  <speed>0.0</speed>
  <fix>3d</fix>
</trkpt>
<trkpt lat="40.072842" lon="-105.230575">
  <ele>1586.09</ele>
  <time>2026-08-28T19:08:03Z</time>
  <course>11.88</course>
  <speed>0.022360679774997897</speed>
  <fix>3d</fix>
</trkpt>
<trkpt lat="40.072842" lon="-105.230575">
  <ele>1586.09</ele>
  <time>2026-08-28T19:08:03Z</time>
  <course>266.03</course>
  <speed>0.0</speed>
  <fix>3d</fix>
</trkpt>
<trkpt lat="40.072842" lon="-105.230575">
  <ele>1586.09</ele>
  <time>2026-08-28T19:08:03Z</time>
  <course>11.87</course>
  <speed>0.022360679774997897</speed>
  <fix>3d</fix>
</trkpt>
<trkpt lat="40.072842" lon="-105.230575">
  <ele>1586.09</ele>
  <time>2026-08-28T19:08:03Z</time>
  <course>266.03</course>
  <speed>0.0</speed>
  <fix>3d</fix>
</trkpt>
<trkpt lat="40.072842" lon="-105.230575">
  <ele>1586.09</ele>
  <time>2026-08-28T19:08:03Z</time>
  <course>11.87</course>
  <speed>0.022360679774997897</speed>
  <fix>3d</fix>
</trkpt>
<trkpt lat="40.072842" lon="-105.230575">
  <ele>1586.09</ele>
  <time>2026-08-28T19:08:03Z</time>
  <course>266.03</course>
  <speed>0.0</speed>
  <fix>3d</fix>
</trkpt>
<trkpt lat="40.072842" lon="-105.230575">
  <ele>1586.09</ele>
  <time>2026-08-28T19:08:03Z</time>
  <course>11.86</course>
  <speed>0.022360679774997897</speed>
  <fix>3d</fix>
</trkpt>
<trkpt lat="40.072842" lon="-105.230575">
  <ele>1586.09</ele>
  <time>2026-08-28T19:08:03Z</time>
  <course>266.03</course>
  <speed>0.0</speed>
  <fix>3d</fix>
</trkpt>
<trkpt lat="40.072842" lon="-105.230575">
  <ele>1586.09</ele>
  <time>2026-08-28T19:08:03Z</time>
  <course>11.85</course>
  <speed>0.022360679774997897</speed>
  <fix>3d</fix>
</trkpt>
<trkpt lat="40.072842" lon="-105.230575">
  <ele>1586.09</ele>
  <time>2026-08-28T19:08:03Z</time>
  <course>266.03</course>
  <speed>0.0</speed>
  <fix>3d</fix>
</trkpt>
<trkpt lat="40.072842" lon="-105.230575">
  <ele>1586.09</ele>
  <time>2026-08-28T19:08:03Z</time>
  <course>11.84</course>
  <speed>0.0282842712474619</speed>
  <fix>3d</fix>
</trkpt>
<trkpt lat="40.072842" lon="-105.230575">
  <ele>1586.09</ele>
  <time>2026-08-28T19:08:03Z</time>
  <course>266.03</course>
  <speed>0.0</speed>
  <fix>3d</fix>
</trkpt>
<trkpt lat="40.072842" lon="-105.230575">
  <ele>1586.09</ele>
  <time>2026-08-28T19:08:03Z</time>
  <course>11.83</course>
  <speed>0.0282842712474619</speed>
  <fix>3d</fix>
</trkpt>
<trkpt lat="40.072842" lon="-105.230575">
  <ele>1586.09</ele>
  <time>2026-08-28T19:08:03Z</time>
  <course>266.03</course>
  <speed>0.0</speed>
  <fix>3d</fix>
</trkpt>
<trkpt lat="40.072842" lon="-105.230575">
  <ele>1586.09</ele>
  <time>2026-08-28T19:08:03Z</time>
  <course>11.83</course>
  <speed>0.0282842712474619</speed>
  <fix>3d</fix>
</trkpt>
<trkpt lat="40.072842" lon="-105.230575">
  <ele>1586.09</ele>
  <time>2026-08-28T19:08:03Z</time>
  <course>266.03</course>
  <speed>0.0</speed>
  <fix>3d</fix>
</trkpt>
<trkpt lat="40.072842" lon="-105.230575">
  <ele>1586.09</ele>
  <time>2026-08-28T19:08:03Z</time>
  <course>11.82</course>
  <speed>0.0282842712474619</speed>
  <fix>3d</fix>
</trkpt>
<trkpt lat="40.072842" lon="-105.230575">
  <ele>1586.09</ele>
  <time>2026-08-28T19:08:03Z</time>
  <course>266.03</course>
  <speed>0.0</speed>
  <fix>3d</fix>
</trkpt>
<trkpt lat="40.072842" lon="-105.230575">
  <ele>1586.09</ele>
  <time>2026-08-28T19:08:03Z</time>
  <course>11.81</course>
  <speed>0.0282842712474619</speed>
  <fix>3d</fix>
</trkpt>
<trkpt lat="40.072842" lon="-105.230575">
  <ele>1586.09</ele>
  <time>2026-08-28T19:08:03Z</time>
  <course>266.03</course>
  <speed>0.0</speed>
  <fix>3d</fix>
</trkpt>
<trkpt lat="40.072842" lon="-105.230575">
  <ele>1586.09</ele>
  <time>2026-08-28T19:08:03Z</time>
  <course>11.8</course>
  <speed>0.0282842712474619</speed>
  <fix>3d</fix>
</trkpt>
<trkpt lat="40.072842" lon="-105.230575">
  <ele>1586.09</ele>
  <time>2026-08-28T19:08:03Z</time>
  <course>266.03</course>
  <speed>0.0</speed>
  <fix>3d</fix>
</trkpt>
<trkpt lat="40.072842" lon="-105.230575">
  <ele>1586.09</ele>
  <time>2026-08-28T19:08:03Z</time>
  <course>11.79</course>
  <speed>0.0282842712474619</speed>
  <fix>3d</fix>
</trkpt>
<trkpt lat="40.072842" lon="-105.230575">
  <ele>1586.09</ele>
  <time>2026-08-28T19:08:03Z</time>
  <course>266.03</course>
  <speed>0.0</speed>
  <fix>3d</fix>
</trkpt>
<trkpt lat="40.072842" lon="-105.230575">
  <ele>1586.09</ele>
  <time>2026-08-28T19:08:03Z</time>
  <course>11.79</course>
  <speed>0.0282842712474619</speed>
  <fix>3d</fix>
</trkpt>
<trkpt lat="40.072842" lon="-105.230575">
  <ele>1586.09</ele>
  <time>2026-08-28T19:08:03Z</time>
  <course>266.03</course>
  <speed>0.0</speed>
  <fix>3d</fix>
</trkpt>
<trkpt lat="40.072842" lon="-105.230575">
  <ele>1586.09</ele>
  <time>2026-08-28T19:08:03Z</time>
  <course>11.78</course>
  <speed>0.0282842712474619</speed>
  <fix>3d</fix>
</trkpt>
<trkpt lat="40.072842" lon="-105.230575">
  <ele>1586.09</ele>
  <time>2026-08-28T19:08:03Z</time>
  <course>266.03</course>
  <speed>0.0</speed>
  <fix>3d</fix>
</trkpt>
<trkpt lat="40.072842" lon="-105.230575">
  <ele>1586.09</ele>
  <time>2026-08-28T19:08:03Z</time>
  <course>11.77</course>
  <speed>0.0282842712474619</speed>
  <fix>3d</fix>
</trkpt>
<trkpt lat="40.072842" lon="-105.230575">
  <ele>1586.09</ele>
  <time>2026-08-28T19:08:03Z</time>
  <course>266.03</course>
  <speed>0.0</speed>
  <fix>3d</fix>
</trkpt>
<trkpt lat="40.072842" lon="-105.230575">
  <ele>1586.09</ele>
  <time>2026-08-28T19:08:03Z</time>
  <course>11.77</course>
  <speed>0.0282842712474619</speed>
  <fix>3d</fix>
</trkpt>
<trkpt lat="40.072842" lon="-105.230575">
  <ele>1586.09</ele>
  <time>2026-08-28T19:08:03Z</time>
  <course>266.03</course>
  <speed>0.0</speed>
  <fix>3d</fix>
</trkpt>
<trkpt lat="40.072842" lon="-105.230575">
  <ele>1586.09</ele>
  <time>2026-08-28T19:08:03Z</time>
  <course>11.76</course>
  <speed>0.0282842712474619</speed>
  <fix>3d</fix>
</trkpt>
<trkpt lat="40.072842" lon="-105.230575">
  <ele>1586.09</ele>
  <time>2026-08-28T19:08:03Z</time>
  <course>266.03</course>
  <speed>0.0</speed>
  <fix>3d</fix>
</trkpt>
<trkpt lat="40.072842" lon="-105.230575">
  <ele>1586.09</ele>
  <time>2026-08-28T19:08:03Z</time>
  <course>11.75</course>
  <speed>0.0282842712474619</speed>
  <fix>3d</fix>
</trkpt>
<trkpt lat="40.072842" lon="-105.230575">
  <ele>1586.09</ele>
  <time>2026-08-28T19:08:03Z</time>
  <course>266.03</course>
  <speed>0.0</speed>
  <fix>3d</fix>
</trkpt>
<trkpt lat="40.072842" lon="-105.230575">
  <ele>1586.09</ele>
  <time>2026-08-28T19:08:03Z</time>
  <course>11.74</course>
  <speed>0.03605551275463989</speed>
  <fix>3d</fix>
</trkpt>
<trkpt lat="40.072842" lon="-105.230575">
  <ele>1586.09</ele>
  <time>2026-08-28T19:08:03Z</time>
  <course>266.03</course>
  <speed>0.0</speed>
  <fix>3d</fix>
</trkpt>
<trkpt lat="40.072842" lon="-105.230575">
  <ele>1586.09</ele>
  <time>2026-08-28T19:08:03Z</time>
  <course>11.73</course>
  <speed>0.03605551275463989</speed>
  <fix>3d</fix>
</trkpt>
<trkpt lat="40.072842" lon="-105.230575">
  <ele>1586.09</ele>
  <time>2026-08-28T19:08:03Z</time>
  <course>266.03</course>
  <speed>0.0</speed>
  <fix>3d</fix>
</trkpt>
<trkpt lat="40.072842" lon="-105.230575">
  <ele>1586.09</ele>
  <time>2026-08-28T19:08:03Z</time>
  <course>11.73</course>
  <speed>0.03605551275463989</speed>
  <fix>3d</fix>
</trkpt>
<trkpt lat="40.072842" lon="-105.230575">
  <ele>1586.09</ele>
  <time>2026-08-28T19:08:03Z</time>
  <course>266.03</course>
  <speed>0.0</speed>
  <fix>3d</fix>
</trkpt>
<trkpt lat="40.072842" lon="-105.230575">
  <ele>1586.09</ele>
  <time>2026-08-28T19:08:03Z</time>
  <course>11.72</course>
  <speed>0.03605551275463989</speed>
  <fix>3d</fix>
</trkpt>
<trkpt lat="40.072842" lon="-105.230575">
  <ele>1586.09</ele>
  <time>2026-08-28T19:08:03Z</time>
  <course>266.03</course>
  <speed>0.0</speed>
  <fix>3d</fix>
</trkpt>
<trkpt lat="40.072842" lon="-105.230575">
  <ele>1586.09</ele>
  <time>2026-08-28T19:08:03Z</time>
  <course>11.71</course>
  <speed>0.03605551275463989</speed>
  <fix>3d</fix>
</trkpt>
<trkpt lat="40.072842" lon="-105.230575">
  <ele>1586.09</ele>
  <time>2026-08-28T19:08:03Z</time>
  <course>266.03</course>
  <speed>0.0</speed>
  <fix>3d</fix>
</trkpt>
<trkpt lat="40.072842" lon="-105.230575">
  <ele>1586.09</ele>
  <time>2026-08-28T19:08:03Z</time>
  <course>11.71</course>
  <speed>0.03605551275463989</speed>
  <fix>3d</fix>
</trkpt>
<trkpt lat="40.072842" lon="-105.230575">
  <ele>1586.09</ele>
  <time>2026-08-28T19:08:03Z</time>
  <course>266.03</course>
  <speed>0.0</speed>
  <fix>3d</fix>
</trkpt>
<trkpt lat="40.072842" lon="-105.230575">
  <ele>1586.09</ele>
  <time>2026-08-28T19:08:03Z</time>
  <course>11.7</course>
  <speed>0.03605551275463989</speed>
  <fix>3d</fix>
</trkpt>
<trkpt lat="40.072842" lon="-105.230575">
  <ele>1586.09</ele>
  <time>2026-08-28T19:08:03Z</time>
  <course>266.03</course>
  <speed>0.0</speed>
  <fix>3d</fix>
</trkpt>
<trkpt lat="40.072842" lon="-105.230575">
  <ele>1586.09</ele>
  <time>2026-08-28T19:08:03Z</time>
  <course>11.69</course>
  <speed>0.03605551275463989</speed>
  <fix>3d</fix>
</trkpt>
<trkpt lat="40.072842" lon="-105.230575">
  <ele>1586.09</ele>
  <time>2026-08-28T19:08:03Z</time>
  <course>266.03</course>
  <speed>0.0</speed>
  <fix>3d</fix>
</trkpt>
<trkpt lat="40.072842" lon="-105.230575">
  <ele>1586.09</ele>
  <time>2026-08-28T19:08:03Z</time>
  <course>11.68</course>
  <speed>0.03605551275463989</speed>
  <fix>3d</fix>
</trkpt>
<trkpt lat="40.072842" lon="-105.230575">
  <ele>1586.09</ele>
  <time>2026-08-28T19:08:03Z</time>
  <course>266.03</course>
  <speed>0.0</speed>
  <fix>3d</fix>
</trkpt>
<trkpt lat="40.072842" lon="-105.230575">
  <ele>1586.09</ele>
  <time>2026-08-28T19:08:03Z</time>
  <course>11.68</course>
  <speed>0.03605551275463989</speed>
  <fix>3d</fix>
</trkpt>
<trkpt lat="40.072842" lon="-105.230575">
  <ele>1586.09</ele>
  <time>2026-08-28T19:08:03Z</time>
  <course>266.03</course>
  <speed>0.0</speed>
  <fix>3d</fix>
</trkpt>
<trkpt lat="40.072842" lon="-105.230575">
  <ele>1586.09</ele>
  <time>2026-08-28T19:08:03Z</time>
  <course>11.67</course>
  <speed>0.03605551275463989</speed>
  <fix>3d</fix>
</trkpt>
<trkpt lat="40.072842" lon="-105.230575">
  <ele>1586.09</ele>
  <time>2026-08-28T19:08:03Z</time>
  <course>266.03</course>
  <speed>0.0</speed>
  <fix>3d</fix>
</trkpt>
<trkpt lat="40.072842" lon="-105.230575">
  <ele>1586.09</ele>
  <time>2026-08-28T19:08:03Z</time>
  <course>11.66</course>
  <speed>0.03605551275463989</speed>
  <fix>3d</fix>
</trkpt>
<trkpt lat="40.072842" lon="-105.230575">
  <ele>1586.09</ele>
  <time>2026-08-28T19:08:03Z</time>
  <course>266.03</course>
  <speed>0.0</speed>
  <fix>3d</fix>
</trkpt>
<trkpt lat="40.072842" lon="-105.230575">
  <ele>1586.09</ele>
  <time>2026-08-28T19:08:03Z</time>
  <course>11.65</course>
  <speed>0.03605551275463989</speed>
  <fix>3d</fix>
</trkpt>
<trkpt lat="40.072842" lon="-105.230575">
  <ele>1586.09</ele>
  <time>2026-08-28T19:08:03Z</time>
  <course>266.03</course>
  <speed>0.0</speed>
  <fix>3d</fix>
</trkpt>
<trkpt lat="40.072842" lon="-105.230575">
  <ele>1586.09</ele>
  <time>2026-08-28T19:08:03Z</time>
  <course>11.65</course>
  <speed>0.03605551275463989</speed>
  <fix>3d</fix>
</trkpt>
<trkpt lat="40.072842" lon="-105.230575">
  <ele>1586.09</ele>
  <time>2026-08-28T19:08:03Z</time>
  <course>266.03</course>
  <speed>0.0</speed>
  <fix>3d</fix>
</trkpt>
<trkpt lat="40.072842" lon="-105.230575">
  <ele>1586.09</ele>
  <time>2026-08-28T19:08:03Z</time>
  <course>11.64</course>
  <speed>0.03605551275463989</speed>
  <fix>3d</fix>
</trkpt>
<trkpt lat="40.072842" lon="-105.230575">
  <ele>1586.09</ele>
  <time>2026-08-28T19:08:03Z</time>
  <course>266.03</course>
  <speed>0.0</speed>
  <fix>3d</fix>
</trkpt>
<trkpt lat="40.072842" lon="-105.230575">
  <ele>1586.09</ele>
  <time>2026-08-28T19:08:03Z</time>
  <course>11.63</course>
  <speed>0.03605551275463989</speed>
  <fix>3d</fix>
</trkpt>
<trkpt lat="40.072842" lon="-105.230575">
  <ele>1586.09</ele>
  <time>2026-08-28T19:08:03Z</time>
  <course>266.03</course>
  <speed>0.0</speed>
  <fix>3d</fix>
</trkpt>
<trkpt lat="40.072842" lon="-105.230575">
  <ele>1586.09</ele>
  <time>2026-08-28T19:08:03Z</time>
  <course>11.63</course>
  <speed>0.03605551275463989</speed>
  <fix>3d</fix>
</trkpt>
<trkpt lat="40.072842" lon="-105.230575">
  <ele>1586.09</ele>
  <time>2026-08-28T19:08:03Z</time>
  <course>266.03</course>
  <speed>0.0</speed>
  <fix>3d</fix>
</trkpt>
<trkpt lat="40.072842" lon="-105.230575">
  <ele>1586.09</ele>
  <time>2026-08-28T19:08:03Z</time>
  <course>11.62</course>
  <speed>0.03605551275463989</speed>
  <fix>3d</fix>
</trkpt>
<trkpt lat="40.072842" lon="-105.230575">
  <ele>1586.09</ele>
  <time>2026-08-28T19:08:03Z</time>
  <course>266.03</course>
  <speed>0.0</speed>
  <fix>3d</fix>
</trkpt>
<trkpt lat="40.072842" lon="-105.230575">
  <ele>1586.09</ele>
  <time>2026-08-28T19:08:03Z</time>
  <course>11.61</course>
  <speed>0.03605551275463989</speed>
  <fix>3d</fix>
</trkpt>
<trkpt lat="40.072842" lon="-105.230575">
  <ele>1586.09</ele>
  <time>2026-08-28T19:08:03Z</time>
  <course>266.03</course>
  <speed>0.0</speed>
  <fix>3d</fix>
</trkpt>
<trkpt lat="40.072842" lon="-105.230575">
  <ele>1586.09</ele>
  <time>2026-08-28T19:08:03Z</time>
  <course>11.61</course>
  <speed>0.03605551275463989</speed>
  <fix>3d</fix>
</trkpt>
<trkpt lat="40.072842" lon="-105.230575">
  <ele>1586.09</ele>
  <time>2026-08-28T19:08:03Z</time>
  <course>266.03</course>
  <speed>0.0</speed>
  <fix>3d</fix>
</trkpt>
<trkpt lat="40.072842" lon="-105.230575">
  <ele>1586.09</ele>
  <time>2026-08-28T19:08:03Z</time>
  <course>11.6</course>
  <speed>0.03605551275463989</speed>
  <fix>3d</fix>
</trkpt>
<trkpt lat="40.072842" lon="-105.230575">
  <ele>1586.09</ele>
  <time>2026-08-28T19:08:03Z</time>
  <course>266.03</course>
  <speed>0.0</speed>
  <fix>3d</fix>
</trkpt>
<trkpt lat="40.072842" lon="-105.230575">
  <ele>1586.09</ele>
  <time>2026-08-28T19:08:03Z</time>
  <course>11.6</course>
  <speed>0.03605551275463989</speed>
  <fix>3d</fix>
</trkpt>
<trkpt lat="40.072842" lon="-105.230575">
  <ele>1586.09</ele>
  <time>2026-08-28T19:08:03Z</time>
  <course>266.03</course>
  <speed>0.0</speed>
  <fix>3d</fix>
</trkpt>
<trkpt lat="40.072842" lon="-105.230575">
  <ele>1586.09</ele>
  <time>2026-08-28T19:08:03Z</time>
  <course>11.59</course>
  <speed>0.03605551275463989</speed>
  <fix>3d</fix>
</trkpt>
<trkpt lat="40.072842" lon="-105.230575">
  <ele>1586.09</ele>
  <time>2026-08-28T19:08:03Z</time>
  <course>266.03</course>
  <speed>0.0</speed>
  <fix>3d</fix>
</trkpt>
<trkpt lat="40.072842" lon="-105.230575">
  <ele>1586.09</ele>
  <time>2026-08-28T19:08:03Z</time>
  <course>11.58</course>
  <speed>0.03605551275463989</speed>
  <fix>3d</fix>
</trkpt>
<trkpt lat="40.072842" lon="-105.230575">
  <ele>1586.09</ele>
  <time>2026-08-28T19:08:03Z</time>
  <course>266.03</course>
  <speed>0.0</speed>
  <fix>3d</fix>
</trkpt>
<trkpt lat="40.072842" lon="-105.230575">
  <ele>1586.09</ele>
  <time>2026-08-28T19:08:03Z</time>
  <course>11.58</course>
  <speed>0.03605551275463989</speed>
  <fix>3d</fix>
</trkpt>
<trkpt lat="40.072842" lon="-105.230575">
  <ele>1586.09</ele>
  <time>2026-08-28T19:08:03Z</time>
  <course>266.03</course>
  <speed>0.0</speed>
  <fix>3d</fix>
</trkpt>
<trkpt lat="40.072842" lon="-105.230575">
  <ele>1586.09</ele>
  <time>2026-08-28T19:08:03Z</time>
  <course>11.57</course>
  <speed>0.03605551275463989</speed>
  <fix>3d</fix>
</trkpt>
<trkpt lat="40.072842" lon="-105.230575">
  <ele>1586.09</ele>
  <time>2026-08-28T19:08:03Z</time>
  <course>266.03</course>
  <speed>0.0</speed>
  <fix>3d</fix>
</trkpt>
<trkpt lat="40.072842" lon="-105.230575">
  <ele>1586.09</ele>
  <time>2026-08-28T19:08:03Z</time>
  <course>11.56</course>
  <speed>0.03605551275463989</speed>
  <fix>3d</fix>
</trkpt>
<trkpt lat="40.072842" lon="-105.230575">
  <ele>1586.09</ele>
  <time>2026-08-28T19:08:03Z</time>
  <course>266.03</course>
  <speed>0.0</speed>
  <fix>3d</fix>
</trkpt>
<trkpt lat="40.072842" lon="-105.230575">
  <ele>1586.09</ele>
  <time>2026-08-28T19:08:03Z</time>
  <course>11.56</course>
  <speed>0.03605551275463989</speed>
  <fix>3d</fix>
</trkpt>
<trkpt lat="40.072842" lon="-105.230575">
  <ele>1586.09</ele>
  <time>2026-08-28T19:08:03Z</time>
  <course>266.03</course>
  <speed>0.0</speed>
  <fix>3d</fix>
</trkpt>
<trkpt lat="40.072842" lon="-105.230575">
  <ele>1586.09</ele>
  <time>2026-08-28T19:08:03Z</time>
  <course>11.55</course>
  <speed>0.03605551275463989</speed>
  <fix>3d</fix>
</trkpt>
<trkpt lat="40.072842" lon="-105.230575">
  <ele>1586.09</ele>
  <time>2026-08-28T19:08:03Z</time>
  <course>266.03</course>
  <speed>0.0</speed>
  <fix>3d</fix>
</trkpt>
<trkpt lat="40.072842" lon="-105.230575">
  <ele>1586.09</ele>
  <time>2026-08-28T19:08:03Z</time>
  <course>11.55</course>
  <speed>0.03605551275463989</speed>
  <fix>3d</fix>
</trkpt>
<trkpt lat="40.072842" lon="-105.230575">
  <ele>1586.09</ele>
  <time>2026-08-28T19:08:03Z</time>
  <course>266.03</course>
  <speed>0.0</speed>
  <fix>3d</fix>
</trkpt>
<trkpt lat="40.072842" lon="-105.230575">
  <ele>1586.09</ele>
  <time>2026-08-28T19:08:03Z</time>
  <course>11.54</course>
  <speed>0.03605551275463989</speed>
  <fix>3d</fix>
</trkpt>
<trkpt lat="40.072842" lon="-105.230575">
  <ele>1586.09</ele>
  <time>2026-08-28T19:08:03Z</time>
  <course>266.03</course>
  <speed>0.0</speed>
  <fix>3d</fix>
</trkpt>
<trkpt lat="40.072842" lon="-105.230575">
  <ele>1586.09</ele>
  <time>2026-08-28T19:08:03Z</time>
  <course>11.53</course>
  <speed>0.03605551275463989</speed>
  <fix>3d</fix>
</trkpt>
<trkpt lat="40.072842" lon="-105.230575">
  <ele>1586.09</ele>
  <time>2026-08-28T19:08:03Z</time>
  <course>266.03</course>
  <speed>0.0</speed>
  <fix>3d</fix>
</trkpt>
<trkpt lat="40.072842" lon="-105.230575">
  <ele>1586.09</ele>
  <time>2026-08-28T19:08:03Z</time>
  <course>11.53</course>
  <speed>0.03605551275463989</speed>
  <fix>3d</fix>
</trkpt>
<trkpt lat="40.072842" lon="-105.230575">
  <ele>1586.09</ele>
  <time>2026-08-28T19:08:03Z</time>
  <course>266.03</course>
  <speed>0.0</speed>
  <fix>3d</fix>
</trkpt>
<trkpt lat="40.072842" lon="-105.230575">
  <ele>1586.09</ele>
  <time>2026-08-28T19:08:03Z</time>
  <course>11.52</course>
  <speed>0.03605551275463989</speed>
  <fix>3d</fix>
</trkpt>
<trkpt lat="40.072842" lon="-105.230575">
  <ele>1586.09</ele>
  <time>2026-08-28T19:08:03Z</time>
  <course>266.03</course>
  <speed>0.0</speed>
  <fix>3d</fix>
</trkpt>
<trkpt lat="40.072842" lon="-105.230575">
  <ele>1586.09</ele>
  <time>2026-08-28T19:08:03Z</time>
  <course>11.52</course>
  <speed>0.03605551275463989</speed>
  <fix>3d</fix>
</trkpt>
<trkpt lat="40.072842" lon="-105.230575">
  <ele>1586.09</ele>
  <time>2026-08-28T19:08:03Z</time>
  <course>266.03</course>
  <speed>0.0</speed>
  <fix>3d</fix>
</trkpt>
<trkpt lat="40.072842" lon="-105.230575">
  <ele>1586.09</ele>
  <time>2026-08-28T19:08:03Z</time>
  <course>11.51</course>
  <speed>0.03605551275463989</speed>
  <fix>3d</fix>
</trkpt>
<trkpt lat="40.072842" lon="-105.230575">
  <ele>1586.09</ele>
  <time>2026-08-28T19:08:03Z</time>
  <course>266.03</course>
  <speed>0.0</speed>
  <fix>3d</fix>
</trkpt>
<trkpt lat="40.072842" lon="-105.230575">
  <ele>1586.09</ele>
  <time>2026-08-28T19:08:03Z</time>
  <course>11.51</course>
  <speed>0.03605551275463989</speed>
  <fix>3d</fix>
</trkpt>
<trkpt lat="40.072842" lon="-105.230575">
  <ele>1586.09</ele>
  <time>2026-08-28T19:08:03Z</time>
  <course>266.03</course>
  <speed>0.0</speed>
  <fix>3d</fix>
</trkpt>
<trkpt lat="40.072842" lon="-105.230575">
  <ele>1586.09</ele>
  <time>2026-08-28T19:08:03Z</time>
  <course>11.5</course>
  <speed>0.044721359549995794</speed>
  <fix>3d</fix>
</trkpt>
<trkpt lat="40.072842" lon="-105.230575">
  <ele>1586.09</ele>
  <time>2026-08-28T19:08:03Z</time>
  <course>266.03</course>
  <speed>0.0</speed>
  <fix>3d</fix>
</trkpt>
<trkpt lat="40.072842" lon="-105.230575">
  <ele>1586.09</ele>
  <time>2026-08-28T19:08:03Z</time>
  <course>11.49</course>
  <speed>0.044721359549995794</speed>
  <fix>3d</fix>
</trkpt>
<trkpt lat="40.072842" lon="-105.230575">
  <ele>1586.09</ele>
  <time>2026-08-28T19:08:03Z</time>
  <course>266.03</course>
  <speed>0.0</speed>
  <fix>3d</fix>
</trkpt>
<trkpt lat="40.072842" lon="-105.230575">
  <ele>1586.09</ele>
  <time>2026-08-28T19:08:03Z</time>
  <course>11.49</course>
  <speed>0.044721359549995794</speed>
  <fix>3d</fix>
</trkpt>
<trkpt lat="40.072842" lon="-105.230575">
  <ele>1586.09</ele>
  <time>2026-08-28T19:08:03Z</time>
  <course>266.03</course>
  <speed>0.0</speed>
  <fix>3d</fix>
</trkpt>
<trkpt lat="40.072842" lon="-105.230575">
  <ele>1586.09</ele>
  <time>2026-08-28T19:08:03Z</time>
  <course>11.48</course>
  <speed>0.044721359549995794</speed>
  <fix>3d</fix>
</trkpt>
<trkpt lat="40.072842" lon="-105.230575">
  <ele>1586.09</ele>
  <time>2026-08-28T19:08:03Z</time>
  <course>266.03</course>
  <speed>0.0</speed>
  <fix>3d</fix>
</trkpt>
<trkpt lat="40.072842" lon="-105.230575">
  <ele>1586.09</ele>
  <time>2026-08-28T19:08:03Z</time>
  <course>11.48</course>
  <speed>0.044721359549995794</speed>
  <fix>3d</fix>
</trkpt>
<trkpt lat="40.072842" lon="-105.230575">
  <ele>1586.09</ele>
  <time>2026-08-28T19:08:03Z</time>
  <course>266.03</course>
  <speed>0.0</speed>
  <fix>3d</fix>
</trkpt>
<trkpt lat="40.072842" lon="-105.230575">
  <ele>1586.09</ele>
  <time>2026-08-28T19:08:03Z</time>
  <course>11.47</course>
  <speed>0.044721359549995794</speed>
  <fix>3d</fix>
</trkpt>
<trkpt lat="40.072842" lon="-105.230575">
  <ele>1586.09</ele>
  <time>2026-08-28T19:08:03Z</time>
  <course>266.03</course>
  <speed>0.0</speed>
  <fix>3d</fix>
</trkpt>
<trkpt lat="40.072842" lon="-105.230575">
  <ele>1586.09</ele>
  <time>2026-08-28T19:08:03Z</time>
  <course>11.47</course>
  <speed>0.044721359549995794</speed>
  <fix>3d</fix>
</trkpt>
<trkpt lat="40.072842" lon="-105.230575">
  <ele>1586.09</ele>
  <time>2026-08-28T19:08:03Z</time>
  <course>266.03</course>
  <speed>0.0</speed>
  <fix>3d</fix>
</trkpt>
<trkpt lat="40.072842" lon="-105.230575">
  <ele>1586.09</ele>
  <time>2026-08-28T19:08:03Z</time>
  <course>11.47</course>
  <speed>0.044721359549995794</speed>
  <fix>3d</fix>
</trkpt>
<trkpt lat="40.072842" lon="-105.230575">
  <ele>1586.09</ele>
  <time>2026-08-28T19:08:03Z</time>
  <course>266.03</course>
  <speed>0.0</speed>
  <fix>3d</fix>
</trkpt>
<trkpt lat="40.072842" lon="-105.230575">
  <ele>1586.09</ele>
  <time>2026-08-28T19:08:03Z</time>
  <course>11.46</course>
  <speed>0.044721359549995794</speed>
  <fix>3d</fix>
</trkpt>
<trkpt lat="40.072842" lon="-105.230575">
  <ele>1586.09</ele>
  <time>2026-08-28T19:08:03Z</time>
  <course>266.03</course>
  <speed>0.0</speed>
  <fix>3d</fix>
</trkpt>
<trkpt lat="40.072842" lon="-105.230575">
  <ele>1586.16</ele>
  <time>2026-08-28T19:08:03Z</time>
  <course>11.45</course>
  <speed>0.0</speed>
  <fix>3d</fix>
</trkpt>
<trkpt lat="40.072842" lon="-105.230575">
  <ele>1586.09</ele>
  <time>2026-08-28T19:08:03Z</time>
  <course>297.19</course>
  <speed>0.0</speed>
  <fix>3d</fix>
</trkpt>
<trkpt lat="40.072842" lon="-105.230575">
  <ele>1586.16</ele>
  <time>2026-08-28T19:08:03Z</time>
  <course>11.45</course>
  <speed>0.0</speed>
  <fix>3d</fix>
</trkpt>
<trkpt lat="40.072842" lon="-105.230575">
  <ele>1586.09</ele>
  <time>2026-08-28T19:08:03Z</time>
  <course>269.87</course>
  <speed>0.0</speed>
  <fix>3d</fix>
</trkpt>
<trkpt lat="40.072842" lon="-105.230575">
  <ele>1586.16</ele>
  <time>2026-08-28T19:08:03Z</time>
  <course>11.44</course>
  <speed>0.0</speed>
  <fix>3d</fix>
</trkpt>
<trkpt lat="40.072842" lon="-105.230575">
  <ele>1586.09</ele>
  <time>2026-08-28T19:08:03Z</time>
  <course>241.23</course>
  <speed>0.0</speed>
  <fix>3d</fix>
</trkpt>
<trkpt lat="40.072842" lon="-105.230575">
  <ele>1586.16</ele>
  <time>2026-08-28T19:08:03Z</time>
  <course>11.44</course>
  <speed>0.0</speed>
  <fix>3d</fix>
</trkpt>
<trkpt lat="40.072842" lon="-105.230575">
  <ele>1586.09</ele>
  <time>2026-08-28T19:08:03Z</time>
  <course>93.08</course>
  <speed>0.0</speed>
  <fix>3d</fix>
</trkpt>
<trkpt lat="40.072842" lon="-105.230575">
  <ele>1586.17</ele>
  <time>2026-08-28T19:08:03Z</time>
  <course>11.44</course>
  <speed>0.0</speed>
  <fix>3d</fix>
</trkpt>
<trkpt lat="40.072842" lon="-105.230575">
  <ele>1586.09</ele>
  <time>2026-08-28T19:08:03Z</time>
  <course>317.31</course>
  <speed>0.0</speed>
  <fix>3d</fix>
</trkpt>
<trkpt lat="40.072842" lon="-105.230575">
  <ele>1586.17</ele>
  <time>2026-08-28T19:08:03Z</time>
  <course>11.43</course>
  <speed>0.01</speed>
  <fix>3d</fix>
</trkpt>
<trkpt lat="40.072842" lon="-105.230575">
  <ele>1586.09</ele>
  <time>2026-08-28T19:08:03Z</time>
  <course>265.24</course>
  <speed>0.0</speed>
  <fix>3d</fix>
</trkpt>
<trkpt lat="40.072842" lon="-105.230575">
  <ele>1586.17</ele>
  <time>2026-08-28T19:08:03Z</time>
  <course>11.43</course>
  <speed>0.01</speed>
  <fix>3d</fix>
</trkpt>
<trkpt lat="40.072842" lon="-105.230575">
  <ele>1586.09</ele>
  <time>2026-08-28T19:08:03Z</time>
  <course>261.76</course>
  <speed>0.0</speed>
  <fix>3d</fix>
</trkpt>
<trkpt lat="40.072842" lon="-105.230575">
  <ele>1586.17</ele>
  <time>2026-08-28T19:08:03Z</time>
  <course>11.42</course>
  <speed>0.01</speed>
  <fix>3d</fix>
</trkpt>
<trkpt lat="40.072842" lon="-105.230575">
  <ele>1586.09</ele>
  <time>2026-08-28T19:08:03Z</time>
  <course>266.78</course>
  <speed>0.0</speed>
  <fix>3d</fix>
</trkpt>
<trkpt lat="40.072842" lon="-105.230575">
  <ele>1586.17</ele>
  <time>2026-08-28T19:08:03Z</time>
  <course>11.42</course>
  <speed>0.01414213562373095</speed>
  <fix>3d</fix>
</trkpt>
<trkpt lat="40.072842" lon="-105.230575">
  <ele>1586.09</ele>
  <time>2026-08-28T19:08:03Z</time>
  <course>266.53</course>
  <speed>0.0</speed>
  <fix>3d</fix>
</trkpt>
<trkpt lat="40.072842" lon="-105.230575">
  <ele>1586.17</ele>
  <time>2026-08-28T19:08:03Z</time>
  <course>11.42</course>
  <speed>0.01414213562373095</speed>
  <fix>3d</fix>
</trkpt>
<trkpt lat="40.072842" lon="-105.230575">
  <ele>1586.09</ele>
  <time>2026-08-28T19:08:03Z</time>
  <course>265.88</course>
  <speed>0.0</speed>
  <fix>3d</fix>
</trkpt>
<trkpt lat="40.072842" lon="-105.230575">
  <ele>1586.17</ele>
  <time>2026-08-28T19:08:03Z</time>
  <course>11.41</course>
  <speed>0.01414213562373095</speed>
  <fix>3d</fix>
</trkpt>
<trkpt lat="40.072842" lon="-105.230575">
  <ele>1586.09</ele>
  <time>2026-08-28T19:08:04Z</time>
  <course>265.99</course>
  <speed>0.0</speed>
  <fix>3d</fix>
</trkpt>
<trkpt lat="40.072842" lon="-105.230575">
  <ele>1586.17</ele>
  <time>2026-08-28T19:08:04Z</time>
  <course>11.41</course>
  <speed>0.022360679774997897</speed>
  <fix>3d</fix>
</trkpt>
<trkpt lat="40.072842" lon="-105.230575">
  <ele>1586.09</ele>
  <time>2026-08-28T19:08:04Z</time>
  <course>266.06</course>
  <speed>0.0</speed>
  <fix>3d</fix>
</trkpt>
<trkpt lat="40.072842" lon="-105.230575">
  <ele>1586.17</ele>
  <time>2026-08-28T19:08:04Z</time>
  <course>11.4</course>
  <speed>0.022360679774997897</speed>
  <fix>3d</fix>
</trkpt>
<trkpt lat="40.072842" lon="-105.230575">
  <ele>1586.09</ele>
  <time>2026-08-28T19:08:04Z</time>
  <course>266.04</course>
  <speed>0.0</speed>
  <fix>3d</fix>
</trkpt>
<trkpt lat="40.072842" lon="-105.230575">
  <ele>1586.17</ele>
  <time>2026-08-28T19:08:04Z</time>
  <course>11.4</course>
  <speed>0.022360679774997897</speed>
  <fix>3d</fix>
</trkpt>
<trkpt lat="40.072842" lon="-105.230575">
  <ele>1586.09</ele>
  <time>2026-08-28T19:08:04Z</time>
  <course>266.03</course>
  <speed>0.0</speed>
  <fix>3d</fix>
</trkpt>
<trkpt lat="40.072842" lon="-105.230575">
  <ele>1586.17</ele>
  <time>2026-08-28T19:08:04Z</time>
  <course>11.4</course>
  <speed>0.022360679774997897</speed>
  <fix>3d</fix>
</trkpt>
<trkpt lat="40.072842" lon="-105.230575">
  <ele>1586.09</ele>
  <time>2026-08-28T19:08:04Z</time>
  <course>266.04</course>
  <speed>0.0</speed>
  <fix>3d</fix>
</trkpt>
<trkpt lat="40.0728419" lon="-105.230575">
  <ele>1586.17</ele>
  <time>2026-08-28T19:08:04Z</time>
  <course>11.39</course>
  <speed>0.022360679774997897</speed>
  <fix>3d</fix>
</trkpt>
<trkpt lat="40.072842" lon="-105.230575">
  <ele>1586.09</ele>
  <time>2026-08-28T19:08:04Z</time>
  <course>266.04</course>
  <speed>0.0</speed>
  <fix>3d</fix>
</trkpt>
<trkpt lat="40.0728419" lon="-105.230575">
  <ele>1586.17</ele>
  <time>2026-08-28T19:08:04Z</time>
  <course>11.39</course>
  <speed>0.022360679774997897</speed>
  <fix>3d</fix>
</trkpt>
<trkpt lat="40.072842" lon="-105.230575">
  <ele>1586.09</ele>
  <time>2026-08-28T19:08:04Z</time>
  <course>266.03</course>
  <speed>0.0</speed>
  <fix>3d</fix>
</trkpt>
<trkpt lat="40.0728419" lon="-105.2305749">
  <ele>1586.17</ele>
  <time>2026-08-28T19:08:04Z</time>
  <course>11.38</course>
  <speed>0.022360679774997897</speed>
  <fix>3d</fix>
</trkpt>
<trkpt lat="40.072842" lon="-105.230575">
  <ele>1586.09</ele>
  <time>2026-08-28T19:08:04Z</time>
  <course>266.03</course>
  <speed>0.0</speed>
  <fix>3d</fix>
</trkpt>
<trkpt lat="40.0728419" lon="-105.2305749">
  <ele>1586.18</ele>
  <time>2026-08-28T19:08:04Z</time>
  <course>11.38</course>
  <speed>0.022360679774997897</speed>
  <fix>3d</fix>
</trkpt>
<trkpt lat="40.072842" lon="-105.230575">
  <ele>1586.09</ele>
  <time>2026-08-28T19:08:04Z</time>
  <course>266.04</course>
  <speed>0.0</speed>
  <fix>3d</fix>
</trkpt>
<trkpt lat="40.0728419" lon="-105.2305749">
  <ele>1586.18</ele>
  <time>2026-08-28T19:08:04Z</time>
  <course>11.37</course>
  <speed>0.022360679774997897</speed>
  <fix>3d</fix>
</trkpt>
<trkpt lat="40.072842" lon="-105.230575">
  <ele>1586.09</ele>
  <time>2026-08-28T19:08:04Z</time>
  <course>266.04</course>
  <speed>0.0</speed>
  <fix>3d</fix>
</trkpt>
<trkpt lat="40.0728419" lon="-105.2305749">
  <ele>1586.18</ele>
  <time>2026-08-28T19:08:04Z</time>
  <course>11.37</course>
  <speed>0.022360679774997897</speed>
  <fix>3d</fix>
</trkpt>
<trkpt lat="40.072842" lon="-105.230575">
  <ele>1586.09</ele>
  <time>2026-08-28T19:08:04Z</time>
  <course>178.09</course>
  <speed>0.0</speed>
  <fix>3d</fix>
</trkpt>
<trkpt lat="40.0728419" lon="-105.2305749">
  <ele>1586.17</ele>
  <time>2026-08-28T19:08:04Z</time>
  <course>11.37</course>
  <speed>0.022360679774997897</speed>
  <fix>3d</fix>
</trkpt>
<trkpt lat="40.072842" lon="-105.230575">
  <ele>1586.09</ele>
  <time>2026-08-28T19:08:04Z</time>
  <course>82.55</course>
  <speed>0.0</speed>
  <fix>3d</fix>
</trkpt>
<trkpt lat="40.0728419" lon="-105.2305749">
  <ele>1586.17</ele>
  <time>2026-08-28T19:08:04Z</time>
  <course>11.36</course>
  <speed>0.022360679774997897</speed>
  <fix>3d</fix>
</trkpt>
<trkpt lat="40.072842" lon="-105.230575">
  <ele>1586.09</ele>
  <time>2026-08-28T19:08:04Z</time>
  <course>70.11</course>
  <speed>0.0</speed>
  <fix>3d</fix>
</trkpt>
<trkpt lat="40.0728419" lon="-105.2305749">
  <ele>1586.17</ele>
  <time>2026-08-28T19:08:04Z</time>
  <course>11.36</course>
  <speed>0.022360679774997897</speed>
  <fix>3d</fix>
</trkpt>
<trkpt lat="40.072842" lon="-105.230575">
  <ele>1586.09</ele>
  <time>2026-08-28T19:08:04Z</time>
  <course>280.93</course>
  <speed>0.0</speed>
  <fix>3d</fix>
</trkpt>
<trkpt lat="40.0728419" lon="-105.2305749">
  <ele>1586.17</ele>
  <time>2026-08-28T19:08:04Z</time>
  <course>11.35</course>
  <speed>0.022360679774997897</speed>
  <fix>3d</fix>
</trkpt>
<trkpt lat="40.072842" lon="-105.230575">
  <ele>1586.09</ele>
  <time>2026-08-28T19:08:04Z</time>
  <course>245.32</course>
  <speed>0.0</speed>
  <fix>3d</fix>
</trkpt>
<trkpt lat="40.0728419" lon="-105.2305749">
  <ele>1586.16</ele>
  <time>2026-08-28T19:08:04Z</time>
  <course>11.35</course>
  <speed>0.01414213562373095</speed>
  <fix>3d</fix>
</trkpt>
<trkpt lat="40.072842" lon="-105.230575">
  <ele>1586.09</ele>
  <time>2026-08-28T19:08:04Z</time>
  <course>117.15</course>
  <speed>0.0</speed>
  <fix>3d</fix>
</trkpt>
<trkpt lat="40.0728419" lon="-105.2305749">
  <ele>1586.16</ele>
  <time>2026-08-28T19:08:04Z</time>
  <course>11.34</course>
  <speed>0.01414213562373095</speed>
  <fix>3d</fix>
</trkpt>
<trkpt lat="40.072842" lon="-105.230575">
  <ele>1586.09</ele>
  <time>2026-08-28T19:08:04Z</time>
  <course>279.17</course>
  <speed>0.0</speed>
  <fix>3d</fix>
</trkpt>
<trkpt lat="40.0728419" lon="-105.2305749">
  <ele>1586.16</ele>
  <time>2026-08-28T19:08:04Z</time>
  <course>11.34</course>
  <speed>0.01414213562373095</speed>
  <fix>3d</fix>
</trkpt>
<trkpt lat="40.072842" lon="-105.230575">
  <ele>1586.09</ele>
  <time>2026-08-28T19:08:04Z</time>
  <course>265.73</course>
  <speed>0.0</speed>
  <fix>3d</fix>
</trkpt>
<trkpt lat="40.0728419" lon="-105.2305749">
  <ele>1586.16</ele>
  <time>2026-08-28T19:08:04Z</time>
  <course>11.33</course>
  <speed>0.01414213562373095</speed>
  <fix>3d</fix>
</trkpt>
<trkpt lat="40.072842" lon="-105.230575">
  <ele>1586.09</ele>
  <time>2026-08-28T19:08:04Z</time>
  <course>264.62</course>
  <speed>0.0</speed>
  <fix>3d</fix>
</trkpt>
<trkpt lat="40.0728419" lon="-105.2305749">
  <ele>1586.16</ele>
  <time>2026-08-28T19:08:04Z</time>
  <course>11.33</course>
  <speed>0.01414213562373095</speed>
  <fix>3d</fix>
</trkpt>
<trkpt lat="40.072842" lon="-105.230575">
  <ele>1586.09</ele>
  <time>2026-08-28T19:08:04Z</time>
  <course>266.26</course>
  <speed>0.0</speed>
  <fix>3d</fix>
</trkpt>
<trkpt lat="40.0728419" lon="-105.2305749">
  <ele>1586.15</ele>
  <time>2026-08-28T19:08:04Z</time>
  <course>11.32</course>
  <speed>0.01414213562373095</speed>
  <fix>3d</fix>
</trkpt>
<trkpt lat="40.072842" lon="-105.230575">
  <ele>1586.09</ele>
  <time>2026-08-28T19:08:04Z</time>
  <course>266.2</course>
  <speed>0.0</speed>
  <fix>3d</fix>
</trkpt>
<trkpt lat="40.0728419" lon="-105.2305749">
  <ele>1586.15</ele>
  <time>2026-08-28T19:08:04Z</time>
  <course>11.32</course>
  <speed>0.01414213562373095</speed>
  <fix>3d</fix>
</trkpt>
<trkpt lat="40.072842" lon="-105.230575">
  <ele>1586.09</ele>
  <time>2026-08-28T19:08:04Z</time>
  <course>265.99</course>
  <speed>0.0</speed>
  <fix>3d</fix>
</trkpt>
<trkpt lat="40.0728419" lon="-105.2305749">
  <ele>1586.15</ele>
  <time>2026-08-28T19:08:04Z</time>
  <course>11.31</course>
  <speed>0.01414213562373095</speed>
  <fix>3d</fix>
</trkpt>
<trkpt lat="40.072842" lon="-105.230575">
  <ele>1586.09</ele>
  <time>2026-08-28T19:08:04Z</time>
  <course>266.02</course>
  <speed>0.0</speed>
  <fix>3d</fix>
</trkpt>
<trkpt lat="40.0728419" lon="-105.2305749">
  <ele>1586.15</ele>
  <time>2026-08-28T19:08:04Z</time>
  <course>11.31</course>
  <speed>0.01414213562373095</speed>
  <fix>3d</fix>
</trkpt>
<trkpt lat="40.072842" lon="-105.230575">
  <ele>1586.09</ele>
  <time>2026-08-28T19:08:04Z</time>
  <course>266.04</course>
  <speed>0.0</speed>
  <fix>3d</fix>
</trkpt>
<trkpt lat="40.0728419" lon="-105.2305749">
  <ele>1586.15</ele>
  <time>2026-08-28T19:08:04Z</time>
  <course>11.31</course>
  <speed>0.01414213562373095</speed>
  <fix>3d</fix>
</trkpt>
<trkpt lat="40.072842" lon="-105.230575">
  <ele>1586.09</ele>
  <time>2026-08-28T19:08:04Z</time>
  <course>266.04</course>
  <speed>0.0</speed>
  <fix>3d</fix>
</trkpt>
<trkpt lat="40.0728419" lon="-105.2305749">
  <ele>1586.16</ele>
  <time>2026-08-28T19:08:04Z</time>
  <course>11.3</course>
  <speed>0.01414213562373095</speed>
  <fix>3d</fix>
</trkpt>
<trkpt lat="40.072842" lon="-105.230575">
  <ele>1586.09</ele>
  <time>2026-08-28T19:08:04Z</time>
  <course>266.03</course>
  <speed>0.0</speed>
  <fix>3d</fix>
</trkpt>
<trkpt lat="40.0728419" lon="-105.2305749">
  <ele>1586.16</ele>
  <time>2026-08-28T19:08:04Z</time>
  <course>11.3</course>
  <speed>0.01414213562373095</speed>
  <fix>3d</fix>
</trkpt>
<trkpt lat="40.072842" lon="-105.230575">
  <ele>1586.09</ele>
  <time>2026-08-28T19:08:04Z</time>
  <course>266.03</course>
  <speed>0.0</speed>
  <fix>3d</fix>
</trkpt>
<trkpt lat="40.0728419" lon="-105.2305749">
  <ele>1586.16</ele>
  <time>2026-08-28T19:08:04Z</time>
  <course>11.29</course>
  <speed>0.01414213562373095</speed>
  <fix>3d</fix>
</trkpt>
<trkpt lat="40.072842" lon="-105.230575">
  <ele>1586.09</ele>
  <time>2026-08-28T19:08:04Z</time>
  <course>266.03</course>
  <speed>0.0</speed>
  <fix>3d</fix>
</trkpt>
<trkpt lat="40.0728419" lon="-105.2305749">
  <ele>1586.16</ele>
  <time>2026-08-28T19:08:04Z</time>
  <course>11.29</course>
  <speed>0.01414213562373095</speed>
  <fix>3d</fix>
</trkpt>
<trkpt lat="40.072842" lon="-105.230575">
  <ele>1586.09</ele>
  <time>2026-08-28T19:08:04Z</time>
  <course>266.03</course>
  <speed>0.0</speed>
  <fix>3d</fix>
</trkpt>
<trkpt lat="40.0728419" lon="-105.2305749">
  <ele>1586.16</ele>
  <time>2026-08-28T19:08:04Z</time>
  <course>11.28</course>
  <speed>0.01414213562373095</speed>
  <fix>3d</fix>
</trkpt>
<trkpt lat="40.072842" lon="-105.230575">
  <ele>1586.09</ele>
  <time>2026-08-28T19:08:04Z</time>
  <course>266.03</course>
  <speed>0.0</speed>
  <fix>3d</fix>
</trkpt>
<trkpt lat="40.0728419" lon="-105.2305749">
  <ele>1586.16</ele>
  <time>2026-08-28T19:08:04Z</time>
  <course>11.28</course>
  <speed>0.01414213562373095</speed>
  <fix>3d</fix>
</trkpt>
<trkpt lat="40.072842" lon="-105.230575">
  <ele>1586.09</ele>
  <time>2026-08-28T19:08:04Z</time>
  <course>266.03</course>
  <speed>0.0</speed>
  <fix>3d</fix>
</trkpt>
<trkpt lat="40.0728419" lon="-105.2305749">
  <ele>1586.15</ele>
  <time>2026-08-28T19:08:04Z</time>
  <course>11.27</course>
  <speed>0.01414213562373095</speed>
  <fix>3d</fix>
</trkpt>
<trkpt lat="40.072842" lon="-105.230575">
  <ele>1586.09</ele>
  <time>2026-08-28T19:08:04Z</time>
  <course>266.03</course>
  <speed>0.0</speed>
  <fix>3d</fix>
</trkpt>
<trkpt lat="40.0728419" lon="-105.2305749">
  <ele>1586.15</ele>
  <time>2026-08-28T19:08:04Z</time>
  <course>11.27</course>
  <speed>0.01414213562373095</speed>
  <fix>3d</fix>
</trkpt>
<trkpt lat="40.072842" lon="-105.230575">
  <ele>1586.09</ele>
  <time>2026-08-28T19:08:04Z</time>
  <course>266.03</course>
  <speed>0.0</speed>
  <fix>3d</fix>
</trkpt>
<trkpt lat="40.0728419" lon="-105.2305749">
  <ele>1586.15</ele>
  <time>2026-08-28T19:08:04Z</time>
  <course>11.26</course>
  <speed>0.01414213562373095</speed>
  <fix>3d</fix>
</trkpt>
<trkpt lat="40.072842" lon="-105.230575">
  <ele>1586.09</ele>
  <time>2026-08-28T19:08:04Z</time>
  <course>266.03</course>
  <speed>0.0</speed>
  <fix>3d</fix>
</trkpt>
<trkpt lat="40.0728419" lon="-105.2305749">
  <ele>1586.15</ele>
  <time>2026-08-28T19:08:04Z</time>
  <course>11.26</course>
  <speed>0.01414213562373095</speed>
  <fix>3d</fix>
</trkpt>
<trkpt lat="40.072842" lon="-105.230575">
  <ele>1586.09</ele>
  <time>2026-08-28T19:08:04Z</time>
  <course>266.03</course>
  <speed>0.0</speed>
  <fix>3d</fix>
</trkpt>
<trkpt lat="40.0728419" lon="-105.2305749">
  <ele>1586.16</ele>
  <time>2026-08-28T19:08:04Z</time>
  <course>11.25</course>
  <speed>0.01414213562373095</speed>
  <fix>3d</fix>
</trkpt>
<trkpt lat="40.072842" lon="-105.230575">
  <ele>1586.09</ele>
  <time>2026-08-28T19:08:04Z</time>
  <course>266.03</course>
  <speed>0.0</speed>
  <fix>3d</fix>
</trkpt>
<trkpt lat="40.0728419" lon="-105.2305749">
  <ele>1586.16</ele>
  <time>2026-08-28T19:08:04Z</time>
  <course>11.25</course>
  <speed>0.01414213562373095</speed>
  <fix>3d</fix>
</trkpt>
<trkpt lat="40.072842" lon="-105.230575">
  <ele>1586.09</ele>
  <time>2026-08-28T19:08:04Z</time>
  <course>266.03</course>
  <speed>0.0</speed>
  <fix>3d</fix>
</trkpt>
<trkpt lat="40.0728419" lon="-105.2305749">
  <ele>1586.17</ele>
  <time>2026-08-28T19:08:04Z</time>
  <course>11.25</course>
  <speed>0.01414213562373095</speed>
  <fix>3d</fix>
</trkpt>
<trkpt lat="40.072842" lon="-105.230575">
  <ele>1586.09</ele>
  <time>2026-08-28T19:08:04Z</time>
  <course>266.03</course>
  <speed>0.0</speed>
  <fix>3d</fix>
</trkpt>
<trkpt lat="40.0728419" lon="-105.2305749">
  <ele>1586.17</ele>
  <time>2026-08-28T19:08:04Z</time>
  <course>11.24</course>
  <speed>0.01414213562373095</speed>
  <fix>3d</fix>
</trkpt>
<trkpt lat="40.072842" lon="-105.230575">
  <ele>1586.09</ele>
  <time>2026-08-28T19:08:04Z</time>
  <course>266.03</course>
  <speed>0.0</speed>
  <fix>3d</fix>
</trkpt>
<trkpt lat="40.0728419" lon="-105.2305749">
  <ele>1586.17</ele>
  <time>2026-08-28T19:08:04Z</time>
  <course>11.24</course>
  <speed>0.01414213562373095</speed>
  <fix>3d</fix>
</trkpt>
<trkpt lat="40.072842" lon="-105.230575">
  <ele>1586.09</ele>
  <time>2026-08-28T19:08:04Z</time>
  <course>266.03</course>
  <speed>0.0</speed>
  <fix>3d</fix>
</trkpt>
<trkpt lat="40.0728419" lon="-105.2305749">
  <ele>1586.17</ele>
  <time>2026-08-28T19:08:04Z</time>
  <course>11.23</course>
  <speed>0.01414213562373095</speed>
  <fix>3d</fix>
</trkpt>
<trkpt lat="40.072842" lon="-105.230575">
  <ele>1586.09</ele>
  <time>2026-08-28T19:08:04Z</time>
  <course>266.03</course>
  <speed>0.0</speed>
  <fix>3d</fix>
</trkpt>
<trkpt lat="40.0728419" lon="-105.2305749">
  <ele>1586.17</ele>
  <time>2026-08-28T19:08:04Z</time>
  <course>11.23</course>
  <speed>0.01414213562373095</speed>
  <fix>3d</fix>
</trkpt>
<trkpt lat="40.072842" lon="-105.230575">
  <ele>1586.09</ele>
  <time>2026-08-28T19:08:04Z</time>
  <course>266.03</course>
  <speed>0.0</speed>
  <fix>3d</fix>
</trkpt>
<trkpt lat="40.0728419" lon="-105.2305749">
  <ele>1586.17</ele>
  <time>2026-08-28T19:08:04Z</time>
  <course>11.23</course>
  <speed>0.01414213562373095</speed>
  <fix>3d</fix>
</trkpt>
<trkpt lat="40.072842" lon="-105.230575">
  <ele>1586.09</ele>
  <time>2026-08-28T19:08:04Z</time>
  <course>266.03</course>
  <speed>0.0</speed>
  <fix>3d</fix>
</trkpt>
<trkpt lat="40.0728419" lon="-105.2305749">
  <ele>1586.17</ele>
  <time>2026-08-28T19:08:04Z</time>
  <course>11.22</course>
  <speed>0.01414213562373095</speed>
  <fix>3d</fix>
</trkpt>
<trkpt lat="40.072842" lon="-105.230575">
  <ele>1586.09</ele>
  <time>2026-08-28T19:08:04Z</time>
  <course>266.03</course>
  <speed>0.0</speed>
  <fix>3d</fix>
</trkpt>
<trkpt lat="40.0728419" lon="-105.2305749">
  <ele>1586.17</ele>
  <time>2026-08-28T19:08:04Z</time>
  <course>11.22</course>
  <speed>0.01414213562373095</speed>
  <fix>3d</fix>
</trkpt>
<trkpt lat="40.072842" lon="-105.230575">
  <ele>1586.09</ele>
  <time>2026-08-28T19:08:04Z</time>
  <course>266.03</course>
  <speed>0.0</speed>
  <fix>3d</fix>
</trkpt>
<trkpt lat="40.0728419" lon="-105.2305749">
  <ele>1586.17</ele>
  <time>2026-08-28T19:08:04Z</time>
  <course>11.21</course>
  <speed>0.01414213562373095</speed>
  <fix>3d</fix>
</trkpt>
<trkpt lat="40.072842" lon="-105.230575">
  <ele>1586.09</ele>
  <time>2026-08-28T19:08:04Z</time>
  <course>266.03</course>
  <speed>0.0</speed>
  <fix>3d</fix>
</trkpt>
<trkpt lat="40.0728419" lon="-105.2305749">
  <ele>1586.17</ele>
  <time>2026-08-28T19:08:04Z</time>
  <course>11.21</course>
  <speed>0.01414213562373095</speed>
  <fix>3d</fix>
</trkpt>
<trkpt lat="40.072842" lon="-105.230575">
  <ele>1586.09</ele>
  <time>2026-08-28T19:08:04Z</time>
  <course>266.03</course>
  <speed>0.0</speed>
  <fix>3d</fix>
</trkpt>
<trkpt lat="40.0728419" lon="-105.2305749">
  <ele>1586.17</ele>
  <time>2026-08-28T19:08:04Z</time>
  <course>11.21</course>
  <speed>0.01414213562373095</speed>
  <fix>3d</fix>
</trkpt>
<trkpt lat="40.072842" lon="-105.230575">
  <ele>1586.09</ele>
  <time>2026-08-28T19:08:04Z</time>
  <course>266.03</course>
  <speed>0.0</speed>
  <fix>3d</fix>
</trkpt>
<trkpt lat="40.0728419" lon="-105.2305749">
  <ele>1586.17</ele>
  <time>2026-08-28T19:08:04Z</time>
  <course>11.2</course>
  <speed>0.01414213562373095</speed>
  <fix>3d</fix>
</trkpt>
<trkpt lat="40.072842" lon="-105.230575">
  <ele>1586.09</ele>
  <time>2026-08-28T19:08:04Z</time>
  <course>266.03</course>
  <speed>0.0</speed>
  <fix>3d</fix>
</trkpt>
<trkpt lat="40.0728419" lon="-105.2305749">
  <ele>1586.16</ele>
  <time>2026-08-28T19:08:04Z</time>
  <course>11.2</course>
  <speed>0.01414213562373095</speed>
  <fix>3d</fix>
</trkpt>
<trkpt lat="40.072842" lon="-105.230575">
  <ele>1586.09</ele>
  <time>2026-08-28T19:08:04Z</time>
  <course>266.03</course>
  <speed>0.0</speed>
  <fix>3d</fix>
</trkpt>
<trkpt lat="40.0728419" lon="-105.2305749">
  <ele>1586.16</ele>
  <time>2026-08-28T19:08:04Z</time>
  <course>11.2</course>
  <speed>0.01414213562373095</speed>
  <fix>3d</fix>
</trkpt>
<trkpt lat="40.072842" lon="-105.230575">
  <ele>1586.09</ele>
  <time>2026-08-28T19:08:04Z</time>
  <course>266.03</course>
  <speed>0.0</speed>
  <fix>3d</fix>
</trkpt>
<trkpt lat="40.0728419" lon="-105.2305749">
  <ele>1586.15</ele>
  <time>2026-08-28T19:08:04Z</time>
  <course>11.19</course>
  <speed>0.01414213562373095</speed>
  <fix>3d</fix>
</trkpt>
<trkpt lat="40.072842" lon="-105.230575">
  <ele>1586.09</ele>
  <time>2026-08-28T19:08:04Z</time>
  <course>266.03</course>
  <speed>0.0</speed>
  <fix>3d</fix>
</trkpt>
<trkpt lat="40.0728419" lon="-105.2305749">
  <ele>1586.15</ele>
  <time>2026-08-28T19:08:04Z</time>
  <course>11.19</course>
  <speed>0.01414213562373095</speed>
  <fix>3d</fix>
</trkpt>
<trkpt lat="40.072842" lon="-105.230575">
  <ele>1586.09</ele>
  <time>2026-08-28T19:08:04Z</time>
  <course>266.03</course>
  <speed>0.0</speed>
  <fix>3d</fix>
</trkpt>
<trkpt lat="40.0728419" lon="-105.2305749">
  <ele>1586.16</ele>
  <time>2026-08-28T19:08:04Z</time>
  <course>11.19</course>
  <speed>0.01414213562373095</speed>
  <fix>3d</fix>
</trkpt>
<trkpt lat="40.072842" lon="-105.230575">
  <ele>1586.09</ele>
  <time>2026-08-28T19:08:04Z</time>
  <course>266.03</course>
  <speed>0.0</speed>
  <fix>3d</fix>
</trkpt>
<trkpt lat="40.0728419" lon="-105.2305749">
  <ele>1586.16</ele>
  <time>2026-08-28T19:08:04Z</time>
  <course>11.18</course>
  <speed>0.01414213562373095</speed>
  <fix>3d</fix>
</trkpt>
<trkpt lat="40.072842" lon="-105.230575">
  <ele>1586.09</ele>
  <time>2026-08-28T19:08:04Z</time>
  <course>266.03</course>
  <speed>0.0</speed>
  <fix>3d</fix>
</trkpt>
<trkpt lat="40.0728419" lon="-105.2305749">
  <ele>1586.16</ele>
  <time>2026-08-28T19:08:04Z</time>
  <course>11.18</course>
  <speed>0.01414213562373095</speed>
  <fix>3d</fix>
</trkpt>
<trkpt lat="40.072842" lon="-105.230575">
  <ele>1586.09</ele>
  <time>2026-08-28T19:08:04Z</time>
  <course>266.03</course>
  <speed>0.0</speed>
  <fix>3d</fix>
</trkpt>
<trkpt lat="40.0728419" lon="-105.2305749">
  <ele>1586.16</ele>
  <time>2026-08-28T19:08:04Z</time>
  <course>11.18</course>
  <speed>0.01414213562373095</speed>
  <fix>3d</fix>
</trkpt>
<trkpt lat="40.072842" lon="-105.230575">
  <ele>1586.09</ele>
  <time>2026-08-28T19:08:04Z</time>
  <course>266.03</course>
  <speed>0.0</speed>
  <fix>3d</fix>
</trkpt>
<trkpt lat="40.0728419" lon="-105.2305749">
  <ele>1586.16</ele>
  <time>2026-08-28T19:08:04Z</time>
  <course>11.17</course>
  <speed>0.01414213562373095</speed>
  <fix>3d</fix>
</trkpt>
<trkpt lat="40.072842" lon="-105.230575">
  <ele>1586.09</ele>
  <time>2026-08-28T19:08:04Z</time>
  <course>266.03</course>
  <speed>0.0</speed>
  <fix>3d</fix>
</trkpt>
<trkpt lat="40.0728419" lon="-105.2305749">
  <ele>1586.17</ele>
  <time>2026-08-28T19:08:04Z</time>
  <course>11.17</course>
  <speed>0.01414213562373095</speed>
  <fix>3d</fix>
</trkpt>
<trkpt lat="40.072842" lon="-105.230575">
  <ele>1586.09</ele>
  <time>2026-08-28T19:08:04Z</time>
  <course>266.03</course>
  <speed>0.0</speed>
  <fix>3d</fix>
</trkpt>
<trkpt lat="40.0728419" lon="-105.2305749">
  <ele>1586.18</ele>
  <time>2026-08-28T19:08:04Z</time>
  <course>11.16</course>
  <speed>0.01414213562373095</speed>
  <fix>3d</fix>
</trkpt>
<trkpt lat="40.072842" lon="-105.230575">
  <ele>1586.09</ele>
  <time>2026-08-28T19:08:04Z</time>
  <course>266.03</course>
  <speed>0.0</speed>
  <fix>3d</fix>
</trkpt>
<trkpt lat="40.0728419" lon="-105.2305749">
  <ele>1586.18</ele>
  <time>2026-08-28T19:08:04Z</time>
  <course>11.16</course>
  <speed>0.01414213562373095</speed>
  <fix>3d</fix>
</trkpt>
<trkpt lat="40.072842" lon="-105.230575">
  <ele>1586.09</ele>
  <time>2026-08-28T19:08:04Z</time>
  <course>266.03</course>
  <speed>0.0</speed>
  <fix>3d</fix>
</trkpt>
<trkpt lat="40.0728419" lon="-105.2305749">
  <ele>1586.18</ele>
  <time>2026-08-28T19:08:04Z</time>
  <course>11.16</course>
  <speed>0.01414213562373095</speed>
  <fix>3d</fix>
</trkpt>
<trkpt lat="40.072842" lon="-105.230575">
  <ele>1586.09</ele>
  <time>2026-08-28T19:08:04Z</time>
  <course>266.03</course>
  <speed>0.0</speed>
  <fix>3d</fix>
</trkpt>
<trkpt lat="40.0728419" lon="-105.2305749">
  <ele>1586.18</ele>
  <time>2026-08-28T19:08:04Z</time>
  <course>11.16</course>
  <speed>0.01414213562373095</speed>
  <fix>3d</fix>
</trkpt>
<trkpt lat="40.072842" lon="-105.230575">
  <ele>1586.09</ele>
  <time>2026-08-28T19:08:04Z</time>
  <course>266.03</course>
  <speed>0.0</speed>
  <fix>3d</fix>
</trkpt>
<trkpt lat="40.0728419" lon="-105.2305749">
  <ele>1586.18</ele>
  <time>2026-08-28T19:08:04Z</time>
  <course>11.15</course>
  <speed>0.01414213562373095</speed>
  <fix>3d</fix>
</trkpt>
<trkpt lat="40.072842" lon="-105.230575">
  <ele>1586.09</ele>
  <time>2026-08-28T19:08:04Z</time>
  <course>266.03</course>
  <speed>0.0</speed>
  <fix>3d</fix>
</trkpt>
<trkpt lat="40.0728419" lon="-105.2305749">
  <ele>1586.17</ele>
  <time>2026-08-28T19:08:04Z</time>
  <course>11.15</course>
  <speed>0.01414213562373095</speed>
  <fix>3d</fix>
</trkpt>
<trkpt lat="40.072842" lon="-105.230575">
  <ele>1586.09</ele>
  <time>2026-08-28T19:08:04Z</time>
  <course>266.03</course>
  <speed>0.0</speed>
  <fix>3d</fix>
</trkpt>
<trkpt lat="40.0728419" lon="-105.2305749">
  <ele>1586.17</ele>
  <time>2026-08-28T19:08:04Z</time>
  <course>11.15</course>
  <speed>0.01414213562373095</speed>
  <fix>3d</fix>
</trkpt>
<trkpt lat="40.072842" lon="-105.230575">
  <ele>1586.09</ele>
  <time>2026-08-28T19:08:04Z</time>
  <course>266.03</course>
  <speed>0.0</speed>
  <fix>3d</fix>
</trkpt>
<trkpt lat="40.0728419" lon="-105.2305749">
  <ele>1586.17</ele>
  <time>2026-08-28T19:08:04Z</time>
  <course>11.14</course>
  <speed>0.01414213562373095</speed>
  <fix>3d</fix>
</trkpt>
<trkpt lat="40.072842" lon="-105.230575">
  <ele>1586.09</ele>
  <time>2026-08-28T19:08:04Z</time>
  <course>266.03</course>
  <speed>0.0</speed>
  <fix>3d</fix>
</trkpt>
<trkpt lat="40.0728419" lon="-105.2305749">
  <ele>1586.17</ele>
  <time>2026-08-28T19:08:04Z</time>
  <course>11.14</course>
  <speed>0.01414213562373095</speed>
  <fix>3d</fix>
</trkpt>
<trkpt lat="40.072842" lon="-105.230575">
  <ele>1586.09</ele>
  <time>2026-08-28T19:08:04Z</time>
  <course>266.03</course>
  <speed>0.0</speed>
  <fix>3d</fix>
</trkpt>
<trkpt lat="40.0728419" lon="-105.2305749">
  <ele>1586.17</ele>
  <time>2026-08-28T19:08:04Z</time>
  <course>11.14</course>
  <speed>0.01414213562373095</speed>
  <fix>3d</fix>
</trkpt>
<trkpt lat="40.072842" lon="-105.230575">
  <ele>1586.09</ele>
  <time>2026-08-28T19:08:04Z</time>
  <course>266.03</course>
  <speed>0.0</speed>
  <fix>3d</fix>
</trkpt>
<trkpt lat="40.0728419" lon="-105.2305749">
  <ele>1586.17</ele>
  <time>2026-08-28T19:08:04Z</time>
  <course>11.14</course>
  <speed>0.01414213562373095</speed>
  <fix>3d</fix>
</trkpt>
<trkpt lat="40.072842" lon="-105.230575">
  <ele>1586.09</ele>
  <time>2026-08-28T19:08:04Z</time>
  <course>266.03</course>
  <speed>0.0</speed>
  <fix>3d</fix>
</trkpt>
<trkpt lat="40.0728419" lon="-105.2305749">
  <ele>1586.17</ele>
  <time>2026-08-28T19:08:04Z</time>
  <course>11.13</course>
  <speed>0.01414213562373095</speed>
  <fix>3d</fix>
</trkpt>
<trkpt lat="40.072842" lon="-105.230575">
  <ele>1586.09</ele>
  <time>2026-08-28T19:08:04Z</time>
  <course>266.03</course>
  <speed>0.0</speed>
  <fix>3d</fix>
</trkpt>
<trkpt lat="40.0728419" lon="-105.2305749">
  <ele>1586.17</ele>
  <time>2026-08-28T19:08:04Z</time>
  <course>11.13</course>
  <speed>0.01414213562373095</speed>
  <fix>3d</fix>
</trkpt>
<trkpt lat="40.072842" lon="-105.230575">
  <ele>1586.09</ele>
  <time>2026-08-28T19:08:04Z</time>
  <course>266.03</course>
  <speed>0.0</speed>
  <fix>3d</fix>
</trkpt>
<trkpt lat="40.0728419" lon="-105.2305749">
  <ele>1586.16</ele>
  <time>2026-08-28T19:08:04Z</time>
  <course>11.13</course>
  <speed>0.01414213562373095</speed>
  <fix>3d</fix>
</trkpt>
<trkpt lat="40.072842" lon="-105.230575">
  <ele>1586.09</ele>
  <time>2026-08-28T19:08:04Z</time>
  <course>266.03</course>
  <speed>0.0</speed>
  <fix>3d</fix>
</trkpt>
<trkpt lat="40.0728419" lon="-105.2305749">
  <ele>1586.16</ele>
  <time>2026-08-28T19:08:04Z</time>
  <course>11.12</course>
  <speed>0.01414213562373095</speed>
  <fix>3d</fix>
</trkpt>
<trkpt lat="40.072842" lon="-105.230575">
  <ele>1586.09</ele>
  <time>2026-08-28T19:08:04Z</time>
  <course>266.03</course>
  <speed>0.0</speed>
  <fix>3d</fix>
</trkpt>
<trkpt lat="40.0728419" lon="-105.2305749">
  <ele>1586.16</ele>
  <time>2026-08-28T19:08:04Z</time>
  <course>11.12</course>
  <speed>0.01414213562373095</speed>
  <fix>3d</fix>
</trkpt>
<trkpt lat="40.072842" lon="-105.230575">
  <ele>1586.09</ele>
  <time>2026-08-28T19:08:04Z</time>
  <course>266.03</course>
  <speed>0.0</speed>
  <fix>3d</fix>
</trkpt>
<trkpt lat="40.0728419" lon="-105.2305749">
  <ele>1586.16</ele>
  <time>2026-08-28T19:08:04Z</time>
  <course>11.12</course>
  <speed>0.01414213562373095</speed>
  <fix>3d</fix>
</trkpt>
<trkpt lat="40.072842" lon="-105.230575">
  <ele>1586.09</ele>
  <time>2026-08-28T19:08:04Z</time>
  <course>266.03</course>
  <speed>0.0</speed>
  <fix>3d</fix>
</trkpt>
<trkpt lat="40.0728419" lon="-105.2305749">
  <ele>1586.15</ele>
  <time>2026-08-28T19:08:04Z</time>
  <course>11.12</course>
  <speed>0.01414213562373095</speed>
  <fix>3d</fix>
</trkpt>
<trkpt lat="40.072842" lon="-105.230575">
  <ele>1586.09</ele>
  <time>2026-08-28T19:08:04Z</time>
  <course>266.03</course>
  <speed>0.0</speed>
  <fix>3d</fix>
</trkpt>
<trkpt lat="40.0728419" lon="-105.2305749">
  <ele>1586.16</ele>
  <time>2026-08-28T19:08:04Z</time>
  <course>11.11</course>
  <speed>0.01414213562373095</speed>
  <fix>3d</fix>
</trkpt>
<trkpt lat="40.072842" lon="-105.230575">
  <ele>1586.09</ele>
  <time>2026-08-28T19:08:04Z</time>
  <course>266.03</course>
  <speed>0.0</speed>
  <fix>3d</fix>
</trkpt>
<trkpt lat="40.0728419" lon="-105.2305749">
  <ele>1586.16</ele>
  <time>2026-08-28T19:08:04Z</time>
  <course>11.11</course>
  <speed>0.01414213562373095</speed>
  <fix>3d</fix>
</trkpt>
<trkpt lat="40.072842" lon="-105.230575">
  <ele>1586.09</ele>
  <time>2026-08-28T19:08:04Z</time>
  <course>266.03</course>
  <speed>0.0</speed>
  <fix>3d</fix>
</trkpt>
<trkpt lat="40.0728419" lon="-105.2305749">
  <ele>1586.16</ele>
  <time>2026-08-28T19:08:04Z</time>
  <course>11.11</course>
  <speed>0.01414213562373095</speed>
  <fix>3d</fix>
</trkpt>
<trkpt lat="40.072842" lon="-105.230575">
  <ele>1586.09</ele>
  <time>2026-08-28T19:08:04Z</time>
  <course>266.03</course>
  <speed>0.0</speed>
  <fix>3d</fix>
</trkpt>
<trkpt lat="40.0728419" lon="-105.2305749">
  <ele>1586.15</ele>
  <time>2026-08-28T19:08:04Z</time>
  <course>11.11</course>
  <speed>0.01414213562373095</speed>
  <fix>3d</fix>
</trkpt>
<trkpt lat="40.072842" lon="-105.230575">
  <ele>1586.09</ele>
  <time>2026-08-28T19:08:04Z</time>
  <course>266.03</course>
  <speed>0.0</speed>
  <fix>3d</fix>
</trkpt>
<trkpt lat="40.0728419" lon="-105.2305749">
  <ele>1586.15</ele>
  <time>2026-08-28T19:08:04Z</time>
  <course>11.1</course>
  <speed>0.01414213562373095</speed>
  <fix>3d</fix>
</trkpt>
<trkpt lat="40.072842" lon="-105.230575">
  <ele>1586.09</ele>
  <time>2026-08-28T19:08:04Z</time>
  <course>266.03</course>
  <speed>0.0</speed>
  <fix>3d</fix>
</trkpt>
<trkpt lat="40.0728419" lon="-105.2305749">
  <ele>1586.15</ele>
  <time>2026-08-28T19:08:04Z</time>
  <course>11.1</course>
  <speed>0.01414213562373095</speed>
  <fix>3d</fix>
</trkpt>
<trkpt lat="40.072842" lon="-105.230575">
  <ele>1586.09</ele>
  <time>2026-08-28T19:08:04Z</time>
  <course>266.03</course>
  <speed>0.0</speed>
  <fix>3d</fix>
</trkpt>
<trkpt lat="40.0728419" lon="-105.2305749">
  <ele>1586.15</ele>
  <time>2026-08-28T19:08:04Z</time>
  <course>11.1</course>
  <speed>0.01414213562373095</speed>
  <fix>3d</fix>
</trkpt>
<trkpt lat="40.072842" lon="-105.230575">
  <ele>1586.09</ele>
  <time>2026-08-28T19:08:04Z</time>
  <course>266.03</course>
  <speed>0.0</speed>
  <fix>3d</fix>
</trkpt>
<trkpt lat="40.0728419" lon="-105.2305749">
  <ele>1586.14</ele>
  <time>2026-08-28T19:08:04Z</time>
  <course>11.1</course>
  <speed>0.01414213562373095</speed>
  <fix>3d</fix>
</trkpt>
<trkpt lat="40.072842" lon="-105.230575">
  <ele>1586.09</ele>
  <time>2026-08-28T19:08:04Z</time>
  <course>266.03</course>
  <speed>0.0</speed>
  <fix>3d</fix>
</trkpt>
<trkpt lat="40.0728419" lon="-105.2305749">
  <ele>1586.14</ele>
  <time>2026-08-28T19:08:04Z</time>
  <course>11.09</course>
  <speed>0.01414213562373095</speed>
  <fix>3d</fix>
</trkpt>
<trkpt lat="40.072842" lon="-105.230575">
  <ele>1586.09</ele>
  <time>2026-08-28T19:08:04Z</time>
  <course>266.03</course>
  <speed>0.0</speed>
  <fix>3d</fix>
</trkpt>
<trkpt lat="40.0728419" lon="-105.2305749">
  <ele>1586.15</ele>
  <time>2026-08-28T19:08:04Z</time>
  <course>11.09</course>
  <speed>0.01414213562373095</speed>
  <fix>3d</fix>
</trkpt>
<trkpt lat="40.072842" lon="-105.230575">
  <ele>1586.09</ele>
  <time>2026-08-28T19:08:04Z</time>
  <course>266.03</course>
  <speed>0.0</speed>
  <fix>3d</fix>
</trkpt>
<trkpt lat="40.0728419" lon="-105.2305749">
  <ele>1586.15</ele>
  <time>2026-08-28T19:08:04Z</time>
  <course>11.09</course>
  <speed>0.01414213562373095</speed>
  <fix>3d</fix>
</trkpt>
<trkpt lat="40.072842" lon="-105.230575">
  <ele>1586.09</ele>
  <time>2026-08-28T19:08:04Z</time>
  <course>266.03</course>
  <speed>0.0</speed>
  <fix>3d</fix>
</trkpt>
<trkpt lat="40.0728419" lon="-105.2305749">
  <ele>1586.15</ele>
  <time>2026-08-28T19:08:04Z</time>
  <course>11.09</course>
  <speed>0.01414213562373095</speed>
  <fix>3d</fix>
</trkpt>
<trkpt lat="40.072842" lon="-105.230575">
  <ele>1586.09</ele>
  <time>2026-08-28T19:08:04Z</time>
  <course>266.03</course>
  <speed>0.0</speed>
  <fix>3d</fix>
</trkpt>
<trkpt lat="40.0728419" lon="-105.2305749">
  <ele>1586.16</ele>
  <time>2026-08-28T19:08:04Z</time>
  <course>11.08</course>
  <speed>0.01414213562373095</speed>
  <fix>3d</fix>
</trkpt>
<trkpt lat="40.072842" lon="-105.230575">
  <ele>1586.09</ele>
  <time>2026-08-28T19:08:04Z</time>
  <course>266.03</course>
  <speed>0.0</speed>
  <fix>3d</fix>
</trkpt>
<trkpt lat="40.0728419" lon="-105.2305749">
  <ele>1586.16</ele>
  <time>2026-08-28T19:08:04Z</time>
  <course>11.08</course>
  <speed>0.01414213562373095</speed>
  <fix>3d</fix>
</trkpt>
<trkpt lat="40.072842" lon="-105.230575">
  <ele>1586.09</ele>
  <time>2026-08-28T19:08:04Z</time>
  <course>266.03</course>
  <speed>0.0</speed>
  <fix>3d</fix>
</trkpt>
<trkpt lat="40.0728419" lon="-105.2305749">
  <ele>1586.16</ele>
  <time>2026-08-28T19:08:04Z</time>
  <course>11.08</course>
  <speed>0.01414213562373095</speed>
  <fix>3d</fix>
</trkpt>
<trkpt lat="40.072842" lon="-105.230575">
  <ele>1586.09</ele>
  <time>2026-08-28T19:08:04Z</time>
  <course>266.03</course>
  <speed>0.0</speed>
  <fix>3d</fix>
</trkpt>
<trkpt lat="40.0728419" lon="-105.2305749">
  <ele>1586.17</ele>
  <time>2026-08-28T19:08:04Z</time>
  <course>11.08</course>
  <speed>0.01414213562373095</speed>
  <fix>3d</fix>
</trkpt>
<trkpt lat="40.072842" lon="-105.230575">
  <ele>1586.09</ele>
  <time>2026-08-28T19:08:04Z</time>
  <course>266.03</course>
  <speed>0.0</speed>
  <fix>3d</fix>
</trkpt>
<trkpt lat="40.0728419" lon="-105.2305749">
  <ele>1586.18</ele>
  <time>2026-08-28T19:08:04Z</time>
  <course>11.08</course>
  <speed>0.01414213562373095</speed>
  <fix>3d</fix>
</trkpt>
<trkpt lat="40.072842" lon="-105.230575">
  <ele>1586.09</ele>
  <time>2026-08-28T19:08:04Z</time>
  <course>266.03</course>
  <speed>0.0</speed>
  <fix>3d</fix>
</trkpt>
<trkpt lat="40.0728419" lon="-105.2305749">
  <ele>1586.18</ele>
  <time>2026-08-28T19:08:04Z</time>
  <course>11.07</course>
  <speed>0.01414213562373095</speed>
  <fix>3d</fix>
</trkpt>
<trkpt lat="40.072842" lon="-105.230575">
  <ele>1586.09</ele>
  <time>2026-08-28T19:08:04Z</time>
  <course>266.03</course>
  <speed>0.0</speed>
  <fix>3d</fix>
</trkpt>
<trkpt lat="40.0728419" lon="-105.2305749">
  <ele>1586.18</ele>
  <time>2026-08-28T19:08:04Z</time>
  <course>11.07</course>
  <speed>0.01414213562373095</speed>
  <fix>3d</fix>
</trkpt>
<trkpt lat="40.072842" lon="-105.230575">
  <ele>1586.09</ele>
  <time>2026-08-28T19:08:04Z</time>
  <course>266.03</course>
  <speed>0.0</speed>
  <fix>3d</fix>
</trkpt>
<trkpt lat="39.654938" lon="-104.1331666">
  <ele>1569.54</ele>
  <time>2026-08-28T19:08:05Z</time>
  <course>168.11</course>
  <speed>0.0</speed>
  <fix>3d</fix>
</trkpt>
<trkpt lat="40.072842" lon="-105.230575">
  <ele>1586.09</ele>
  <time>2026-08-28T19:08:05Z</time>
  <course>2.03</course>
  <speed>0.0</speed>
  <fix>3d</fix>
</trkpt>
<trkpt lat="40.072842" lon="-105.230575">
  <ele>1586.09</ele>
  <time>2026-08-28T19:08:05Z</time>
  <course>238.4</course>
  <speed>0.0</speed>
  <fix>3d</fix>
</trkpt>
<trkpt lat="40.072842" lon="-105.230575">
  <ele>1586.09</ele>
  <time>2026-08-28T19:08:05Z</time>
  <course>2.42</course>
  <speed>0.0</speed>
  <fix>3d</fix>
</trkpt>
<trkpt lat="40.072842" lon="-105.230575">
  <ele>1586.09</ele>
  <time>2026-08-28T19:08:05Z</time>
  <course>194.29</course>
  <speed>0.0</speed>
  <fix>3d</fix>
</trkpt>
<trkpt lat="40.072842" lon="-105.230575">
  <ele>1586.09</ele>
  <time>2026-08-28T19:08:05Z</time>
  <course>3.15</course>
  <speed>0.0</speed>
  <fix>3d</fix>
</trkpt>
<trkpt lat="40.072842" lon="-105.230575">
  <ele>1586.09</ele>
  <time>2026-08-28T19:08:05Z</time>
  <course>193.66</course>
  <speed>0.0</speed>
  <fix>3d</fix>
</trkpt>
<trkpt lat="40.072842" lon="-105.230575">
  <ele>1586.09</ele>
  <time>2026-08-28T19:08:05Z</time>
  <course>3.84</course>
  <speed>0.0</speed>
  <fix>3d</fix>
</trkpt>
<trkpt lat="40.072842" lon="-105.230575">
  <ele>1586.09</ele>
  <time>2026-08-28T19:08:05Z</time>
  <course>303.54</course>
  <speed>0.0</speed>
  <fix>3d</fix>
</trkpt>
<trkpt lat="40.072842" lon="-105.230575">
  <ele>1586.09</ele>
  <time>2026-08-28T19:08:05Z</time>
  <course>4.47</course>
  <speed>0.0</speed>
  <fix>3d</fix>
</trkpt>
<trkpt lat="40.072842" lon="-105.230575">
  <ele>1586.09</ele>
  <time>2026-08-28T19:08:05Z</time>
  <course>110.94</course>
  <speed>0.0</speed>
  <fix>3d</fix>
</trkpt>
<trkpt lat="40.072842" lon="-105.230575">
  <ele>1586.09</ele>
  <time>2026-08-28T19:08:05Z</time>
  <course>5.05</course>
  <speed>0.0</speed>
  <fix>3d</fix>
</trkpt>
<trkpt lat="40.072842" lon="-105.230575">
  <ele>1586.09</ele>
  <time>2026-08-28T19:08:05Z</time>
  <course>191.21</course>
  <speed>0.0</speed>
  <fix>3d</fix>
</trkpt>
<trkpt lat="40.072842" lon="-105.230575">
  <ele>1586.09</ele>
  <time>2026-08-28T19:08:05Z</time>
  <course>5.61</course>
  <speed>0.0</speed>
  <fix>3d</fix>
</trkpt>
<trkpt lat="40.072842" lon="-105.230575">
  <ele>1586.09</ele>
  <time>2026-08-28T19:08:05Z</time>
  <course>252.23</course>
  <speed>0.0</speed>
  <fix>3d</fix>
</trkpt>
<trkpt lat="40.072842" lon="-105.230575">
  <ele>1586.09</ele>
  <time>2026-08-28T19:08:05Z</time>
  <course>6.14</course>
  <speed>0.0</speed>
  <fix>3d</fix>
</trkpt>
<trkpt lat="40.072842" lon="-105.230575">
  <ele>1586.09</ele>
  <time>2026-08-28T19:08:05Z</time>
  <course>170.36</course>
  <speed>0.0</speed>
  <fix>3d</fix>
</trkpt>
<trkpt lat="40.072842" lon="-105.230575">
  <ele>1586.09</ele>
  <time>2026-08-28T19:08:05Z</time>
  <course>6.64</course>
  <speed>0.0</speed>
  <fix>3d</fix>
</trkpt>
<trkpt lat="40.072842" lon="-105.230575">
  <ele>1586.09</ele>
  <time>2026-08-28T19:08:05Z</time>
  <course>179.36</course>
  <speed>0.0</speed>
  <fix>3d</fix>
</trkpt>
<trkpt lat="40.072842" lon="-105.230575">
  <ele>1586.09</ele>
  <time>2026-08-28T19:08:05Z</time>
  <course>7.09</course>
  <speed>0.0</speed>
  <fix>3d</fix>
</trkpt>
<trkpt lat="40.072842" lon="-105.230575">
  <ele>1586.09</ele>
  <time>2026-08-28T19:08:05Z</time>
  <course>19.98</course>
  <speed>0.0</speed>
  <fix>3d</fix>
</trkpt>
<trkpt lat="40.072842" lon="-105.230575">
  <ele>1586.09</ele>
  <time>2026-08-28T19:08:05Z</time>
  <course>7.52</course>
  <speed>0.0</speed>
  <fix>3d</fix>
</trkpt>
<trkpt lat="40.072842" lon="-105.230575">
  <ele>1586.09</ele>
  <time>2026-08-28T19:08:05Z</time>
  <course>17.49</course>
  <speed>0.0</speed>
  <fix>3d</fix>
</trkpt>
<trkpt lat="40.072842" lon="-105.230575">
  <ele>1586.09</ele>
  <time>2026-08-28T19:08:05Z</time>
  <course>7.92</course>
  <speed>0.0</speed>
  <fix>3d</fix>
</trkpt>
<trkpt lat="40.072842" lon="-105.230575">
  <ele>1586.09</ele>
  <time>2026-08-28T19:08:05Z</time>
  <course>356.19</course>
  <speed>0.0</speed>
  <fix>3d</fix>
</trkpt>
<trkpt lat="40.072842" lon="-105.230575">
  <ele>1586.09</ele>
  <time>2026-08-28T19:08:05Z</time>
  <course>8.28</course>
  <speed>0.0</speed>
  <fix>3d</fix>
</trkpt>
<trkpt lat="40.072842" lon="-105.230575">
  <ele>1586.09</ele>
  <time>2026-08-28T19:08:05Z</time>
  <course>77.32</course>
  <speed>0.0</speed>
  <fix>3d</fix>
</trkpt>
<trkpt lat="40.072842" lon="-105.230575">
  <ele>1586.09</ele>
  <time>2026-08-28T19:08:05Z</time>
  <course>8.62</course>
  <speed>0.0</speed>
  <fix>3d</fix>
</trkpt>
<trkpt lat="40.072842" lon="-105.230575">
  <ele>1586.09</ele>
  <time>2026-08-28T19:08:05Z</time>
  <course>290.54</course>
  <speed>0.0</speed>
  <fix>3d</fix>
</trkpt>
<trkpt lat="40.072842" lon="-105.230575">
  <ele>1586.09</ele>
  <time>2026-08-28T19:08:05Z</time>
  <course>8.93</course>
  <speed>0.0</speed>
  <fix>3d</fix>
</trkpt>
<trkpt lat="40.072842" lon="-105.230575">
  <ele>1586.09</ele>
  <time>2026-08-28T19:08:05Z</time>
  <course>338.69</course>
  <speed>0.0</speed>
  <fix>3d</fix>
</trkpt>
<trkpt lat="40.072842" lon="-105.230575">
  <ele>1586.09</ele>
  <time>2026-08-28T19:08:05Z</time>
  <course>9.22</course>
  <speed>0.0</speed>
  <fix>3d</fix>
</trkpt>
<trkpt lat="40.072842" lon="-105.230575">
  <ele>1586.09</ele>
  <time>2026-08-28T19:08:05Z</time>
  <course>326.81</course>
  <speed>0.0</speed>
  <fix>3d</fix>
</trkpt>
<trkpt lat="40.072842" lon="-105.230575">
  <ele>1586.09</ele>
  <time>2026-08-28T19:08:05Z</time>
  <course>9.48</course>
  <speed>0.0</speed>
  <fix>3d</fix>
</trkpt>
<trkpt lat="40.072842" lon="-105.230575">
  <ele>1586.09</ele>
  <time>2026-08-28T19:08:05Z</time>
  <course>262.23</course>
  <speed>0.0</speed>
  <fix>3d</fix>
</trkpt>
<trkpt lat="40.072842" lon="-105.230575">
  <ele>1586.09</ele>
  <time>2026-08-28T19:08:05Z</time>
  <course>9.73</course>
  <speed>0.0</speed>
  <fix>3d</fix>
</trkpt>
<trkpt lat="40.072842" lon="-105.230575">
  <ele>1586.09</ele>
  <time>2026-08-28T19:08:05Z</time>
  <course>159.08</course>
  <speed>0.0</speed>
  <fix>3d</fix>
</trkpt>
<trkpt lat="40.072842" lon="-105.230575">
  <ele>1586.09</ele>
  <time>2026-08-28T19:08:05Z</time>
  <course>9.95</course>
  <speed>0.0</speed>
  <fix>3d</fix>
</trkpt>
<trkpt lat="40.072842" lon="-105.230575">
  <ele>1586.09</ele>
  <time>2026-08-28T19:08:05Z</time>
  <course>287.98</course>
  <speed>0.0</speed>
  <fix>3d</fix>
</trkpt>
<trkpt lat="40.072842" lon="-105.230575">
  <ele>1586.09</ele>
  <time>2026-08-28T19:08:05Z</time>
  <course>10.16</course>
  <speed>0.0</speed>
  <fix>3d</fix>
</trkpt>
<trkpt lat="40.072842" lon="-105.230575">
  <ele>1586.09</ele>
  <time>2026-08-28T19:08:05Z</time>
  <course>278.3</course>
  <speed>0.0</speed>
  <fix>3d</fix>
</trkpt>
<trkpt lat="40.072842" lon="-105.230575">
  <ele>1586.09</ele>
  <time>2026-08-28T19:08:05Z</time>
  <course>10.34</course>
  <speed>0.0</speed>
  <fix>3d</fix>
</trkpt>
<trkpt lat="40.072842" lon="-105.230575">
  <ele>1586.09</ele>
  <time>2026-08-28T19:08:05Z</time>
  <course>261.72</course>
  <speed>0.0</speed>
  <fix>3d</fix>
</trkpt>
<trkpt lat="40.072842" lon="-105.230575">
  <ele>1586.09</ele>
  <time>2026-08-28T19:08:05Z</time>
  <course>10.51</course>
  <speed>0.0</speed>
  <fix>3d</fix>
</trkpt>
<trkpt lat="40.072842" lon="-105.230575">
  <ele>1586.09</ele>
  <time>2026-08-28T19:08:05Z</time>
  <course>264.4</course>
  <speed>0.0</speed>
  <fix>3d</fix>
</trkpt>
<trkpt lat="40.072842" lon="-105.230575">
  <ele>1586.09</ele>
  <time>2026-08-28T19:08:05Z</time>
  <course>10.67</course>
  <speed>0.0</speed>
  <fix>3d</fix>
</trkpt>
<trkpt lat="40.072842" lon="-105.230575">
  <ele>1586.09</ele>
  <time>2026-08-28T19:08:05Z</time>
  <course>266.8</course>
  <speed>0.0</speed>
  <fix>3d</fix>
</trkpt>
<trkpt lat="40.072842" lon="-105.230575">
  <ele>1586.09</ele>
  <time>2026-08-28T19:08:05Z</time>
  <course>10.81</course>
  <speed>0.0</speed>
  <fix>3d</fix>
</trkpt>
<trkpt lat="40.072842" lon="-105.230575">
  <ele>1586.09</ele>
  <time>2026-08-28T19:08:05Z</time>
  <course>266.15</course>
  <speed>0.0</speed>
  <fix>3d</fix>
</trkpt>
<trkpt lat="40.072842" lon="-105.230575">
  <ele>1586.09</ele>
  <time>2026-08-28T19:08:05Z</time>
  <course>10.95</course>
  <speed>0.0</speed>
  <fix>3d</fix>
</trkpt>
<trkpt lat="40.072842" lon="-105.230575">
  <ele>1586.09</ele>
  <time>2026-08-28T19:08:05Z</time>
  <course>265.92</course>
  <speed>0.0</speed>
  <fix>3d</fix>
</trkpt>
<trkpt lat="40.072842" lon="-105.230575">
  <ele>1586.09</ele>
  <time>2026-08-28T19:08:05Z</time>
  <course>11.07</course>
  <speed>0.0</speed>
  <fix>3d</fix>
</trkpt>
<trkpt lat="40.072842" lon="-105.230575">
  <ele>1586.09</ele>
  <time>2026-08-28T19:08:05Z</time>
  <course>266.03</course>
  <speed>0.0</speed>
  <fix>3d</fix>
</trkpt>
<trkpt lat="40.072842" lon="-105.230575">
  <ele>1586.09</ele>
  <time>2026-08-28T19:08:05Z</time>
  <course>11.18</course>
  <speed>0.0</speed>
  <fix>3d</fix>
</trkpt>
<trkpt lat="40.072842" lon="-105.230575">
  <ele>1586.09</ele>
  <time>2026-08-28T19:08:05Z</time>
  <course>266.05</course>
  <speed>0.0</speed>
  <fix>3d</fix>
</trkpt>
<trkpt lat="40.072842" lon="-105.230575">
  <ele>1586.09</ele>
  <time>2026-08-28T19:08:05Z</time>
  <course>11.28</course>
  <speed>0.0</speed>
  <fix>3d</fix>
</trkpt>
<trkpt lat="40.072842" lon="-105.230575">
  <ele>1586.09</ele>
  <time>2026-08-28T19:08:05Z</time>
  <course>266.03</course>
  <speed>0.0</speed>
  <fix>3d</fix>
</trkpt>
<trkpt lat="40.072842" lon="-105.230575">
  <ele>1586.09</ele>
  <time>2026-08-28T19:08:05Z</time>
  <course>11.37</course>
  <speed>0.0</speed>
  <fix>3d</fix>
</trkpt>
<trkpt lat="40.072842" lon="-105.230575">
  <ele>1586.09</ele>
  <time>2026-08-28T19:08:05Z</time>
  <course>266.03</course>
  <speed>0.0</speed>
  <fix>3d</fix>
</trkpt>
<trkpt lat="40.072842" lon="-105.230575">
  <ele>1586.09</ele>
  <time>2026-08-28T19:08:05Z</time>
  <course>11.45</course>
  <speed>0.0</speed>
  <fix>3d</fix>
</trkpt>
<trkpt lat="40.072842" lon="-105.230575">
  <ele>1586.09</ele>
  <time>2026-08-28T19:08:05Z</time>
  <course>266.03</course>
  <speed>0.0</speed>
  <fix>3d</fix>
</trkpt>
<trkpt lat="40.072842" lon="-105.230575">
  <ele>1586.09</ele>
  <time>2026-08-28T19:08:05Z</time>
  <course>11.53</course>
  <speed>0.0</speed>
  <fix>3d</fix>
</trkpt>
<trkpt lat="40.072842" lon="-105.230575">
  <ele>1586.09</ele>
  <time>2026-08-28T19:08:05Z</time>
  <course>266.03</course>
  <speed>0.0</speed>
  <fix>3d</fix>
</trkpt>
<trkpt lat="40.072842" lon="-105.230575">
  <ele>1586.09</ele>
  <time>2026-08-28T19:08:05Z</time>
  <course>11.59</course>
  <speed>0.0</speed>
  <fix>3d</fix>
</trkpt>
<trkpt lat="40.072842" lon="-105.230575">
  <ele>1586.09</ele>
  <time>2026-08-28T19:08:05Z</time>
  <course>266.03</course>
  <speed>0.0</speed>
  <fix>3d</fix>
</trkpt>
<trkpt lat="40.072842" lon="-105.230575">
  <ele>1586.09</ele>
  <time>2026-08-28T19:08:05Z</time>
  <course>11.66</course>
  <speed>0.0</speed>
  <fix>3d</fix>
</trkpt>
<trkpt lat="40.072842" lon="-105.230575">
  <ele>1586.09</ele>
  <time>2026-08-28T19:08:05Z</time>
  <course>266.03</course>
  <speed>0.0</speed>
  <fix>3d</fix>
</trkpt>
<trkpt lat="40.072842" lon="-105.230575">
  <ele>1586.09</ele>
  <time>2026-08-28T19:08:05Z</time>
  <course>11.71</course>
  <speed>0.0</speed>
  <fix>3d</fix>
</trkpt>
<trkpt lat="40.072842" lon="-105.230575">
  <ele>1586.09</ele>
  <time>2026-08-28T19:08:05Z</time>
  <course>266.03</course>
  <speed>0.0</speed>
  <fix>3d</fix>
</trkpt>
<trkpt lat="40.072842" lon="-105.230575">
  <ele>1586.09</ele>
  <time>2026-08-28T19:08:05Z</time>
  <course>11.76</course>
  <speed>0.0</speed>
  <fix>3d</fix>
</trkpt>
<trkpt lat="40.072842" lon="-105.230575">
  <ele>1586.09</ele>
  <time>2026-08-28T19:08:05Z</time>
  <course>266.03</course>
  <speed>0.0</speed>
  <fix>3d</fix>
</trkpt>
<trkpt lat="40.072842" lon="-105.230575">
  <ele>1586.09</ele>
  <time>2026-08-28T19:08:05Z</time>
  <course>11.81</course>
  <speed>0.0</speed>
  <fix>3d</fix>
</trkpt>
<trkpt lat="40.072842" lon="-105.230575">
  <ele>1586.09</ele>
  <time>2026-08-28T19:08:05Z</time>
  <course>266.03</course>
  <speed>0.0</speed>
  <fix>3d</fix>
</trkpt>
<trkpt lat="40.072842" lon="-105.230575">
  <ele>1586.09</ele>
  <time>2026-08-28T19:08:05Z</time>
  <course>11.85</course>
  <speed>0.0</speed>
  <fix>3d</fix>
</trkpt>
<trkpt lat="40.072842" lon="-105.230575">
  <ele>1586.09</ele>
  <time>2026-08-28T19:08:05Z</time>
  <course>266.03</course>
  <speed>0.0</speed>
  <fix>3d</fix>
</trkpt>
<trkpt lat="40.072842" lon="-105.230575">
  <ele>1586.09</ele>
  <time>2026-08-28T19:08:05Z</time>
  <course>11.88</course>
  <speed>0.0</speed>
  <fix>3d</fix>
</trkpt>
<trkpt lat="40.072842" lon="-105.230575">
  <ele>1586.09</ele>
  <time>2026-08-28T19:08:05Z</time>
  <course>266.03</course>
  <speed>0.0</speed>
  <fix>3d</fix>
</trkpt>
<trkpt lat="40.072842" lon="-105.230575">
  <ele>1586.09</ele>
  <time>2026-08-28T19:08:05Z</time>
  <course>11.92</course>
  <speed>0.0</speed>
  <fix>3d</fix>
</trkpt>
<trkpt lat="40.072842" lon="-105.230575">
  <ele>1586.09</ele>
  <time>2026-08-28T19:08:05Z</time>
  <course>266.03</course>
  <speed>0.0</speed>
  <fix>3d</fix>
</trkpt>
<trkpt lat="40.072842" lon="-105.230575">
  <ele>1586.09</ele>
  <time>2026-08-28T19:08:05Z</time>
  <course>11.95</course>
  <speed>0.0</speed>
  <fix>3d</fix>
</trkpt>
<trkpt lat="40.072842" lon="-105.230575">
  <ele>1586.09</ele>
  <time>2026-08-28T19:08:05Z</time>
  <course>266.03</course>
  <speed>0.0</speed>
  <fix>3d</fix>
</trkpt>
<trkpt lat="40.072842" lon="-105.230575">
  <ele>1586.09</ele>
  <time>2026-08-28T19:08:05Z</time>
  <course>11.97</course>
  <speed>0.0</speed>
  <fix>3d</fix>
</trkpt>
<trkpt lat="40.072842" lon="-105.230575">
  <ele>1586.09</ele>
  <time>2026-08-28T19:08:05Z</time>
  <course>266.03</course>
  <speed>0.0</speed>
  <fix>3d</fix>
</trkpt>
<trkpt lat="40.072842" lon="-105.230575">
  <ele>1586.09</ele>
  <time>2026-08-28T19:08:05Z</time>
  <course>12.0</course>
  <speed>0.0</speed>
  <fix>3d</fix>
</trkpt>
<trkpt lat="40.072842" lon="-105.230575">
  <ele>1586.09</ele>
  <time>2026-08-28T19:08:05Z</time>
  <course>266.03</course>
  <speed>0.0</speed>
  <fix>3d</fix>
</trkpt>
<trkpt lat="40.072842" lon="-105.230575">
  <ele>1586.09</ele>
  <time>2026-08-28T19:08:05Z</time>
  <course>12.02</course>
  <speed>0.0</speed>
  <fix>3d</fix>
</trkpt>
<trkpt lat="40.072842" lon="-105.230575">
  <ele>1586.09</ele>
  <time>2026-08-28T19:08:05Z</time>
  <course>266.03</course>
  <speed>0.0</speed>
  <fix>3d</fix>
</trkpt>
<trkpt lat="40.072842" lon="-105.230575">
  <ele>1586.09</ele>
  <time>2026-08-28T19:08:05Z</time>
  <course>12.04</course>
  <speed>0.0</speed>
  <fix>3d</fix>
</trkpt>
<trkpt lat="40.072842" lon="-105.230575">
  <ele>1586.09</ele>
  <time>2026-08-28T19:08:05Z</time>
  <course>266.03</course>
  <speed>0.0</speed>
  <fix>3d</fix>
</trkpt>
<trkpt lat="40.072842" lon="-105.230575">
  <ele>1586.09</ele>
  <time>2026-08-28T19:08:05Z</time>
  <course>12.05</course>
  <speed>0.0</speed>
  <fix>3d</fix>
</trkpt>
<trkpt lat="40.072842" lon="-105.230575">
  <ele>1586.09</ele>
  <time>2026-08-28T19:08:05Z</time>
  <course>266.03</course>
  <speed>0.0</speed>
  <fix>3d</fix>
</trkpt>
<trkpt lat="40.072842" lon="-105.230575">
  <ele>1586.09</ele>
  <time>2026-08-28T19:08:05Z</time>
  <course>12.07</course>
  <speed>0.0</speed>
  <fix>3d</fix>
</trkpt>
<trkpt lat="40.072842" lon="-105.230575">
  <ele>1586.09</ele>
  <time>2026-08-28T19:08:05Z</time>
  <course>266.03</course>
  <speed>0.0</speed>
  <fix>3d</fix>
</trkpt>
<trkpt lat="40.072842" lon="-105.230575">
  <ele>1586.09</ele>
  <time>2026-08-28T19:08:05Z</time>
  <course>12.08</course>
  <speed>0.0</speed>
  <fix>3d</fix>
</trkpt>
<trkpt lat="40.072842" lon="-105.230575">
  <ele>1586.09</ele>
  <time>2026-08-28T19:08:05Z</time>
  <course>266.03</course>
  <speed>0.0</speed>
  <fix>3d</fix>
</trkpt>
<trkpt lat="40.072842" lon="-105.230575">
  <ele>1586.09</ele>
  <time>2026-08-28T19:08:05Z</time>
  <course>12.09</course>
  <speed>0.0</speed>
  <fix>3d</fix>
</trkpt>
<trkpt lat="40.072842" lon="-105.230575">
  <ele>1586.09</ele>
  <time>2026-08-28T19:08:05Z</time>
  <course>266.03</course>
  <speed>0.0</speed>
  <fix>3d</fix>
</trkpt>
<trkpt lat="40.072842" lon="-105.230575">
  <ele>1586.09</ele>
  <time>2026-08-28T19:08:05Z</time>
  <course>12.1</course>
  <speed>0.0</speed>
  <fix>3d</fix>
</trkpt>
<trkpt lat="40.072842" lon="-105.230575">
  <ele>1586.09</ele>
  <time>2026-08-28T19:08:05Z</time>
  <course>266.03</course>
  <speed>0.0</speed>
  <fix>3d</fix>
</trkpt>
<trkpt lat="40.072842" lon="-105.230575">
  <ele>1586.09</ele>
  <time>2026-08-28T19:08:05Z</time>
  <course>12.1</course>
  <speed>0.0</speed>
  <fix>3d</fix>
</trkpt>
<trkpt lat="40.072842" lon="-105.230575">
  <ele>1586.09</ele>
  <time>2026-08-28T19:08:05Z</time>
  <course>266.03</course>
  <speed>0.0</speed>
  <fix>3d</fix>
</trkpt>
<trkpt lat="40.072842" lon="-105.230575">
  <ele>1586.09</ele>
  <time>2026-08-28T19:08:05Z</time>
  <course>12.11</course>
  <speed>0.0</speed>
  <fix>3d</fix>
</trkpt>
<trkpt lat="40.072842" lon="-105.230575">
  <ele>1586.09</ele>
  <time>2026-08-28T19:08:05Z</time>
  <course>266.03</course>
  <speed>0.0</speed>
  <fix>3d</fix>
</trkpt>
<trkpt lat="40.072842" lon="-105.230575">
  <ele>1586.09</ele>
  <time>2026-08-28T19:08:05Z</time>
  <course>12.12</course>
  <speed>0.0</speed>
  <fix>3d</fix>
</trkpt>
<trkpt lat="40.072842" lon="-105.230575">
  <ele>1586.09</ele>
  <time>2026-08-28T19:08:05Z</time>
  <course>266.03</course>
  <speed>0.0</speed>
  <fix>3d</fix>
</trkpt>
<trkpt lat="40.072842" lon="-105.230575">
  <ele>1586.09</ele>
  <time>2026-08-28T19:08:05Z</time>
  <course>12.12</course>
  <speed>0.0</speed>
  <fix>3d</fix>
</trkpt>
<trkpt lat="40.072842" lon="-105.230575">
  <ele>1586.09</ele>
  <time>2026-08-28T19:08:05Z</time>
  <course>266.03</course>
  <speed>0.0</speed>
  <fix>3d</fix>
</trkpt>
<trkpt lat="40.072842" lon="-105.230575">
  <ele>1586.09</ele>
  <time>2026-08-28T19:08:05Z</time>
  <course>12.12</course>
  <speed>0.0</speed>
  <fix>3d</fix>
</trkpt>
<trkpt lat="40.072842" lon="-105.230575">
  <ele>1586.09</ele>
  <time>2026-08-28T19:08:05Z</time>
  <course>266.03</course>
  <speed>0.0</speed>
  <fix>3d</fix>
</trkpt>
<trkpt lat="40.072842" lon="-105.230575">
  <ele>1586.09</ele>
  <time>2026-08-28T19:08:05Z</time>
  <course>12.13</course>
  <speed>0.0</speed>
  <fix>3d</fix>
</trkpt>
<trkpt lat="40.072842" lon="-105.230575">
  <ele>1586.09</ele>
  <time>2026-08-28T19:08:05Z</time>
  <course>266.03</course>
  <speed>0.0</speed>
  <fix>3d</fix>
</trkpt>
<trkpt lat="40.072842" lon="-105.230575">
  <ele>1586.09</ele>
  <time>2026-08-28T19:08:05Z</time>
  <course>12.13</course>
  <speed>0.0</speed>
  <fix>3d</fix>
</trkpt>
<trkpt lat="40.072842" lon="-105.230575">
  <ele>1586.09</ele>
  <time>2026-08-28T19:08:05Z</time>
  <course>266.03</course>
  <speed>0.0</speed>
  <fix>3d</fix>
</trkpt>
<trkpt lat="40.072842" lon="-105.230575">
  <ele>1586.09</ele>
  <time>2026-08-28T19:08:05Z</time>
  <course>12.13</course>
  <speed>0.0</speed>
  <fix>3d</fix>
</trkpt>
<trkpt lat="40.072842" lon="-105.230575">
  <ele>1586.09</ele>
  <time>2026-08-28T19:08:05Z</time>
  <course>266.03</course>
  <speed>0.0</speed>
  <fix>3d</fix>
</trkpt>
<trkpt lat="40.072842" lon="-105.230575">
  <ele>1586.09</ele>
  <time>2026-08-28T19:08:05Z</time>
  <course>12.12</course>
  <speed>0.01</speed>
  <fix>3d</fix>
</trkpt>
<trkpt lat="40.072842" lon="-105.230575">
  <ele>1586.09</ele>
  <time>2026-08-28T19:08:05Z</time>
  <course>266.03</course>
  <speed>0.0</speed>
  <fix>3d</fix>
</trkpt>
<trkpt lat="40.072842" lon="-105.230575">
  <ele>1586.09</ele>
  <time>2026-08-28T19:08:05Z</time>
  <course>12.12</course>
  <speed>0.01</speed>
  <fix>3d</fix>
</trkpt>
<trkpt lat="40.072842" lon="-105.230575">
  <ele>1586.09</ele>
  <time>2026-08-28T19:08:05Z</time>
  <course>266.03</course>
  <speed>0.0</speed>
  <fix>3d</fix>
</trkpt>
<trkpt lat="40.072842" lon="-105.230575">
  <ele>1586.09</ele>
  <time>2026-08-28T19:08:05Z</time>
  <course>12.12</course>
  <speed>0.01</speed>
  <fix>3d</fix>
</trkpt>
<trkpt lat="40.072842" lon="-105.230575">
  <ele>1586.09</ele>
  <time>2026-08-28T19:08:05Z</time>
  <course>266.03</course>
  <speed>0.0</speed>
  <fix>3d</fix>
</trkpt>
<trkpt lat="40.072842" lon="-105.230575">
  <ele>1586.09</ele>
  <time>2026-08-28T19:08:05Z</time>
  <course>12.12</course>
  <speed>0.01</speed>
  <fix>3d</fix>
</trkpt>
<trkpt lat="40.072842" lon="-105.230575">
  <ele>1586.09</ele>
  <time>2026-08-28T19:08:05Z</time>
  <course>266.03</course>
  <speed>0.0</speed>
  <fix>3d</fix>
</trkpt>
<trkpt lat="40.072842" lon="-105.230575">
  <ele>1586.09</ele>
  <time>2026-08-28T19:08:05Z</time>
  <course>12.11</course>
  <speed>0.01</speed>
  <fix>3d</fix>
</trkpt>
<trkpt lat="40.072842" lon="-105.230575">
  <ele>1586.09</ele>
  <time>2026-08-28T19:08:05Z</time>
  <course>266.03</course>
  <speed>0.0</speed>
  <fix>3d</fix>
</trkpt>
<trkpt lat="40.072842" lon="-105.230575">
  <ele>1586.09</ele>
  <time>2026-08-28T19:08:05Z</time>
  <course>12.11</course>
  <speed>0.01</speed>
  <fix>3d</fix>
</trkpt>
<trkpt lat="40.072842" lon="-105.230575">
  <ele>1586.09</ele>
  <time>2026-08-28T19:08:05Z</time>
  <course>266.03</course>
  <speed>0.0</speed>
  <fix>3d</fix>
</trkpt>
<trkpt lat="40.072842" lon="-105.230575">
  <ele>1586.09</ele>
  <time>2026-08-28T19:08:05Z</time>
  <course>12.1</course>
  <speed>0.01</speed>
  <fix>3d</fix>
</trkpt>
<trkpt lat="40.072842" lon="-105.230575">
  <ele>1586.09</ele>
  <time>2026-08-28T19:08:05Z</time>
  <course>266.03</course>
  <speed>0.0</speed>
  <fix>3d</fix>
</trkpt>
<trkpt lat="40.072842" lon="-105.230575">
  <ele>1586.09</ele>
  <time>2026-08-28T19:08:05Z</time>
  <course>12.1</course>
  <speed>0.01</speed>
  <fix>3d</fix>
</trkpt>
<trkpt lat="40.072842" lon="-105.230575">
  <ele>1586.09</ele>
  <time>2026-08-28T19:08:05Z</time>
  <course>266.03</course>
  <speed>0.0</speed>
  <fix>3d</fix>
</trkpt>
<trkpt lat="40.072842" lon="-105.230575">
  <ele>1586.09</ele>
  <time>2026-08-28T19:08:05Z</time>
  <course>12.09</course>
  <speed>0.01</speed>
  <fix>3d</fix>
</trkpt>
<trkpt lat="40.072842" lon="-105.230575">
  <ele>1586.09</ele>
  <time>2026-08-28T19:08:05Z</time>
  <course>266.03</course>
  <speed>0.0</speed>
  <fix>3d</fix>
</trkpt>
<trkpt lat="40.072842" lon="-105.230575">
  <ele>1586.09</ele>
  <time>2026-08-28T19:08:05Z</time>
  <course>12.09</course>
  <speed>0.01</speed>
  <fix>3d</fix>
</trkpt>
<trkpt lat="40.072842" lon="-105.230575">
  <ele>1586.09</ele>
  <time>2026-08-28T19:08:05Z</time>
  <course>266.03</course>
  <speed>0.0</speed>
  <fix>3d</fix>
</trkpt>
<trkpt lat="40.072842" lon="-105.230575">
  <ele>1586.09</ele>
  <time>2026-08-28T19:08:05Z</time>
  <course>12.08</course>
  <speed>0.01</speed>
  <fix>3d</fix>
</trkpt>
<trkpt lat="40.072842" lon="-105.230575">
  <ele>1586.09</ele>
  <time>2026-08-28T19:08:05Z</time>
  <course>266.03</course>
  <speed>0.0</speed>
  <fix>3d</fix>
</trkpt>
<trkpt lat="40.072842" lon="-105.230575">
  <ele>1586.09</ele>
  <time>2026-08-28T19:08:05Z</time>
  <course>12.08</course>
  <speed>0.01414213562373095</speed>
  <fix>3d</fix>
</trkpt>
<trkpt lat="40.072842" lon="-105.230575">
  <ele>1586.09</ele>
  <time>2026-08-28T19:08:05Z</time>
  <course>266.03</course>
  <speed>0.0</speed>
  <fix>3d</fix>
</trkpt>
<trkpt lat="40.072842" lon="-105.230575">
  <ele>1586.09</ele>
  <time>2026-08-28T19:08:05Z</time>
  <course>12.07</course>
  <speed>0.01414213562373095</speed>
  <fix>3d</fix>
</trkpt>
<trkpt lat="40.072842" lon="-105.230575">
  <ele>1586.09</ele>
  <time>2026-08-28T19:08:05Z</time>
  <course>266.03</course>
  <speed>0.0</speed>
  <fix>3d</fix>
</trkpt>
<trkpt lat="40.072842" lon="-105.230575">
  <ele>1586.09</ele>
  <time>2026-08-28T19:08:05Z</time>
  <course>12.06</course>
  <speed>0.01414213562373095</speed>
  <fix>3d</fix>
</trkpt>
<trkpt lat="40.072842" lon="-105.230575">
  <ele>1586.09</ele>
  <time>2026-08-28T19:08:05Z</time>
  <course>266.03</course>
  <speed>0.0</speed>
  <fix>3d</fix>
</trkpt>
<trkpt lat="40.072842" lon="-105.230575">
  <ele>1586.09</ele>
  <time>2026-08-28T19:08:05Z</time>
  <course>12.05</course>
  <speed>0.01414213562373095</speed>
  <fix>3d</fix>
</trkpt>
<trkpt lat="40.072842" lon="-105.230575">
  <ele>1586.09</ele>
  <time>2026-08-28T19:08:05Z</time>
  <course>266.03</course>
  <speed>0.0</speed>
  <fix>3d</fix>
</trkpt>
<trkpt lat="40.072842" lon="-105.230575">
  <ele>1586.09</ele>
  <time>2026-08-28T19:08:05Z</time>
  <course>12.05</course>
  <speed>0.01414213562373095</speed>
  <fix>3d</fix>
</trkpt>
<trkpt lat="40.072842" lon="-105.230575">
  <ele>1586.09</ele>
  <time>2026-08-28T19:08:05Z</time>
  <course>266.03</course>
  <speed>0.0</speed>
  <fix>3d</fix>
</trkpt>
<trkpt lat="40.072842" lon="-105.230575">
  <ele>1586.09</ele>
  <time>2026-08-28T19:08:05Z</time>
  <course>12.04</course>
  <speed>0.01414213562373095</speed>
  <fix>3d</fix>
</trkpt>
<trkpt lat="40.072842" lon="-105.230575">
  <ele>1586.09</ele>
  <time>2026-08-28T19:08:05Z</time>
  <course>266.03</course>
  <speed>0.0</speed>
  <fix>3d</fix>
</trkpt>
<trkpt lat="40.072842" lon="-105.230575">
  <ele>1586.09</ele>
  <time>2026-08-28T19:08:05Z</time>
  <course>12.03</course>
  <speed>0.01414213562373095</speed>
  <fix>3d</fix>
</trkpt>
<trkpt lat="40.072842" lon="-105.230575">
  <ele>1586.09</ele>
  <time>2026-08-28T19:08:05Z</time>
  <course>266.03</course>
  <speed>0.0</speed>
  <fix>3d</fix>
</trkpt>
<trkpt lat="40.072842" lon="-105.230575">
  <ele>1586.09</ele>
  <time>2026-08-28T19:08:05Z</time>
  <course>12.03</course>
  <speed>0.01414213562373095</speed>
  <fix>3d</fix>
</trkpt>
<trkpt lat="40.072842" lon="-105.230575">
  <ele>1586.09</ele>
  <time>2026-08-28T19:08:05Z</time>
  <course>266.03</course>
  <speed>0.0</speed>
  <fix>3d</fix>
</trkpt>
<trkpt lat="40.072842" lon="-105.230575">
  <ele>1586.09</ele>
  <time>2026-08-28T19:08:05Z</time>
  <course>12.02</course>
  <speed>0.01414213562373095</speed>
  <fix>3d</fix>
</trkpt>
<trkpt lat="40.072842" lon="-105.230575">
  <ele>1586.09</ele>
  <time>2026-08-28T19:08:05Z</time>
  <course>266.03</course>
  <speed>0.0</speed>
  <fix>3d</fix>
</trkpt>
<trkpt lat="40.072842" lon="-105.230575">
  <ele>1586.09</ele>
  <time>2026-08-28T19:08:05Z</time>
  <course>12.01</course>
  <speed>0.01414213562373095</speed>
  <fix>3d</fix>
</trkpt>
<trkpt lat="40.072842" lon="-105.230575">
  <ele>1586.09</ele>
  <time>2026-08-28T19:08:05Z</time>
  <course>266.03</course>
  <speed>0.0</speed>
  <fix>3d</fix>
</trkpt>
<trkpt lat="40.072842" lon="-105.230575">
  <ele>1586.09</ele>
  <time>2026-08-28T19:08:05Z</time>
  <course>12.01</course>
  <speed>0.01414213562373095</speed>
  <fix>3d</fix>
</trkpt>
<trkpt lat="40.072842" lon="-105.230575">
  <ele>1586.09</ele>
  <time>2026-08-28T19:08:05Z</time>
  <course>266.03</course>
  <speed>0.0</speed>
  <fix>3d</fix>
</trkpt>
<trkpt lat="40.072842" lon="-105.230575">
  <ele>1586.09</ele>
  <time>2026-08-28T19:08:05Z</time>
  <course>12.0</course>
  <speed>0.01414213562373095</speed>
  <fix>3d</fix>
</trkpt>
<trkpt lat="40.072842" lon="-105.230575">
  <ele>1586.09</ele>
  <time>2026-08-28T19:08:05Z</time>
  <course>266.03</course>
  <speed>0.0</speed>
  <fix>3d</fix>
</trkpt>
<trkpt lat="40.072842" lon="-105.230575">
  <ele>1586.09</ele>
  <time>2026-08-28T19:08:05Z</time>
  <course>11.99</course>
  <speed>0.01414213562373095</speed>
  <fix>3d</fix>
</trkpt>
<trkpt lat="40.072842" lon="-105.230575">
  <ele>1586.09</ele>
  <time>2026-08-28T19:08:05Z</time>
  <course>266.03</course>
  <speed>0.0</speed>
  <fix>3d</fix>
</trkpt>
<trkpt lat="40.072842" lon="-105.230575">
  <ele>1586.09</ele>
  <time>2026-08-28T19:08:05Z</time>
  <course>11.98</course>
  <speed>0.01414213562373095</speed>
  <fix>3d</fix>
</trkpt>
<trkpt lat="40.072842" lon="-105.230575">
  <ele>1586.09</ele>
  <time>2026-08-28T19:08:05Z</time>
  <course>266.03</course>
  <speed>0.0</speed>
  <fix>3d</fix>
</trkpt>
<trkpt lat="40.072842" lon="-105.230575">
  <ele>1586.09</ele>
  <time>2026-08-28T19:08:05Z</time>
  <course>11.98</course>
  <speed>0.01414213562373095</speed>
  <fix>3d</fix>
</trkpt>
<trkpt lat="40.072842" lon="-105.230575">
  <ele>1586.09</ele>
  <time>2026-08-28T19:08:05Z</time>
  <course>266.03</course>
  <speed>0.0</speed>
  <fix>3d</fix>
</trkpt>
<trkpt lat="40.072842" lon="-105.230575">
  <ele>1586.09</ele>
  <time>2026-08-28T19:08:05Z</time>
  <course>11.97</course>
  <speed>0.022360679774997897</speed>
  <fix>3d</fix>
</trkpt>
<trkpt lat="40.072842" lon="-105.230575">
  <ele>1586.09</ele>
  <time>2026-08-28T19:08:05Z</time>
  <course>266.03</course>
  <speed>0.0</speed>
  <fix>3d</fix>
</trkpt>
<trkpt lat="40.072842" lon="-105.230575">
  <ele>1586.09</ele>
  <time>2026-08-28T19:08:05Z</time>
  <course>11.96</course>
  <speed>0.022360679774997897</speed>
  <fix>3d</fix>
</trkpt>
<trkpt lat="40.072842" lon="-105.230575">
  <ele>1586.09</ele>
  <time>2026-08-28T19:08:05Z</time>
  <course>266.03</course>
  <speed>0.0</speed>
  <fix>3d</fix>
</trkpt>
<trkpt lat="40.072842" lon="-105.230575">
  <ele>1586.09</ele>
  <time>2026-08-28T19:08:05Z</time>
  <course>11.95</course>
  <speed>0.022360679774997897</speed>
  <fix>3d</fix>
</trkpt>
<trkpt lat="40.072842" lon="-105.230575">
  <ele>1586.09</ele>
  <time>2026-08-28T19:08:05Z</time>
  <course>266.03</course>
  <speed>0.0</speed>
  <fix>3d</fix>
</trkpt>
<trkpt lat="40.072842" lon="-105.230575">
  <ele>1586.09</ele>
  <time>2026-08-28T19:08:05Z</time>
  <course>11.94</course>
  <speed>0.022360679774997897</speed>
  <fix>3d</fix>
</trkpt>
<trkpt lat="40.072842" lon="-105.230575">
  <ele>1586.09</ele>
  <time>2026-08-28T19:08:05Z</time>
  <course>266.03</course>
  <speed>0.0</speed>
  <fix>3d</fix>
</trkpt>
<trkpt lat="40.072842" lon="-105.230575">
  <ele>1586.09</ele>
  <time>2026-08-28T19:08:05Z</time>
  <course>11.93</course>
  <speed>0.022360679774997897</speed>
  <fix>3d</fix>
</trkpt>
<trkpt lat="40.072842" lon="-105.230575">
  <ele>1586.09</ele>
  <time>2026-08-28T19:08:05Z</time>
  <course>266.03</course>
  <speed>0.0</speed>
  <fix>3d</fix>
</trkpt>
<trkpt lat="40.072842" lon="-105.230575">
  <ele>1586.09</ele>
  <time>2026-08-28T19:08:05Z</time>
  <course>11.92</course>
  <speed>0.022360679774997897</speed>
  <fix>3d</fix>
</trkpt>
<trkpt lat="40.072842" lon="-105.230575">
  <ele>1586.09</ele>
  <time>2026-08-28T19:08:05Z</time>
  <course>266.03</course>
  <speed>0.0</speed>
  <fix>3d</fix>
</trkpt>
<trkpt lat="40.072842" lon="-105.230575">
  <ele>1586.09</ele>
  <time>2026-08-28T19:08:05Z</time>
  <course>11.92</course>
  <speed>0.022360679774997897</speed>
  <fix>3d</fix>
</trkpt>
<trkpt lat="40.072842" lon="-105.230575">
  <ele>1586.09</ele>
  <time>2026-08-28T19:08:05Z</time>
  <course>266.03</course>
  <speed>0.0</speed>
  <fix>3d</fix>
</trkpt>
<trkpt lat="40.072842" lon="-105.230575">
  <ele>1586.09</ele>
  <time>2026-08-28T19:08:05Z</time>
  <course>11.91</course>
  <speed>0.022360679774997897</speed>
  <fix>3d</fix>
</trkpt>
<trkpt lat="40.072842" lon="-105.230575">
  <ele>1586.09</ele>
  <time>2026-08-28T19:08:05Z</time>
  <course>266.03</course>
  <speed>0.0</speed>
  <fix>3d</fix>
</trkpt>
<trkpt lat="40.072842" lon="-105.230575">
  <ele>1586.09</ele>
  <time>2026-08-28T19:08:05Z</time>
  <course>11.9</course>
  <speed>0.022360679774997897</speed>
  <fix>3d</fix>
</trkpt>
<trkpt lat="40.072842" lon="-105.230575">
  <ele>1586.09</ele>
  <time>2026-08-28T19:08:05Z</time>
  <course>266.03</course>
  <speed>0.0</speed>
  <fix>3d</fix>
</trkpt>
<trkpt lat="40.072842" lon="-105.230575">
  <ele>1586.09</ele>
  <time>2026-08-28T19:08:05Z</time>
  <course>11.89</course>
  <speed>0.022360679774997897</speed>
  <fix>3d</fix>
</trkpt>
<trkpt lat="40.072842" lon="-105.230575">
  <ele>1586.09</ele>
  <time>2026-08-28T19:08:05Z</time>
  <course>266.03</course>
  <speed>0.0</speed>
  <fix>3d</fix>
</trkpt>
<trkpt lat="40.072842" lon="-105.230575">
  <ele>1586.09</ele>
  <time>2026-08-28T19:08:05Z</time>
  <course>11.88</course>
  <speed>0.022360679774997897</speed>
  <fix>3d</fix>
</trkpt>
<trkpt lat="40.072842" lon="-105.230575">
  <ele>1586.09</ele>
  <time>2026-08-28T19:08:05Z</time>
  <course>266.03</course>
  <speed>0.0</speed>
  <fix>3d</fix>
</trkpt>
<trkpt lat="40.072842" lon="-105.230575">
  <ele>1586.09</ele>
  <time>2026-08-28T19:08:05Z</time>
  <course>11.87</course>
  <speed>0.022360679774997897</speed>
  <fix>3d</fix>
</trkpt>
<trkpt lat="40.072842" lon="-105.230575">
  <ele>1586.09</ele>
  <time>2026-08-28T19:08:05Z</time>
  <course>266.03</course>
  <speed>0.0</speed>
  <fix>3d</fix>
</trkpt>
<trkpt lat="40.072842" lon="-105.230575">
  <ele>1586.09</ele>
  <time>2026-08-28T19:08:05Z</time>
  <course>11.87</course>
  <speed>0.022360679774997897</speed>
  <fix>3d</fix>
</trkpt>
<trkpt lat="40.072842" lon="-105.230575">
  <ele>1586.09</ele>
  <time>2026-08-28T19:08:05Z</time>
  <course>266.03</course>
  <speed>0.0</speed>
  <fix>3d</fix>
</trkpt>
<trkpt lat="40.072842" lon="-105.230575">
  <ele>1586.09</ele>
  <time>2026-08-28T19:08:05Z</time>
  <course>11.86</course>
  <speed>0.022360679774997897</speed>
  <fix>3d</fix>
</trkpt>
<trkpt lat="40.072842" lon="-105.230575">
  <ele>1586.09</ele>
  <time>2026-08-28T19:08:05Z</time>
  <course>266.03</course>
  <speed>0.0</speed>
  <fix>3d</fix>
</trkpt>
<trkpt lat="40.072842" lon="-105.230575">
  <ele>1586.09</ele>
  <time>2026-08-28T19:08:05Z</time>
  <course>11.85</course>
  <speed>0.022360679774997897</speed>
  <fix>3d</fix>
</trkpt>
<trkpt lat="40.072842" lon="-105.230575">
  <ele>1586.09</ele>
  <time>2026-08-28T19:08:05Z</time>
  <course>266.03</course>
  <speed>0.0</speed>
  <fix>3d</fix>
</trkpt>
<trkpt lat="40.072842" lon="-105.230575">
  <ele>1586.09</ele>
  <time>2026-08-28T19:08:05Z</time>
  <course>11.84</course>
  <speed>0.0282842712474619</speed>
  <fix>3d</fix>
</trkpt>
<trkpt lat="40.072842" lon="-105.230575">
  <ele>1586.09</ele>
  <time>2026-08-28T19:08:05Z</time>
  <course>266.03</course>
  <speed>0.0</speed>
  <fix>3d</fix>
</trkpt>
<trkpt lat="40.072842" lon="-105.230575">
  <ele>1586.09</ele>
  <time>2026-08-28T19:08:05Z</time>
  <course>11.83</course>
  <speed>0.0282842712474619</speed>
  <fix>3d</fix>
</trkpt>
<trkpt lat="40.072842" lon="-105.230575">
  <ele>1586.09</ele>
  <time>2026-08-28T19:08:05Z</time>
  <course>266.03</course>
  <speed>0.0</speed>
  <fix>3d</fix>
</trkpt>
<trkpt lat="40.072842" lon="-105.230575">
  <ele>1586.09</ele>
  <time>2026-08-28T19:08:05Z</time>
  <course>11.83</course>
  <speed>0.0282842712474619</speed>
  <fix>3d</fix>
</trkpt>
<trkpt lat="40.072842" lon="-105.230575">
  <ele>1586.09</ele>
  <time>2026-08-28T19:08:05Z</time>
  <course>266.03</course>
  <speed>0.0</speed>
  <fix>3d</fix>
</trkpt>
<trkpt lat="40.072842" lon="-105.230575">
  <ele>1586.09</ele>
  <time>2026-08-28T19:08:05Z</time>
  <course>11.82</course>
  <speed>0.0282842712474619</speed>
  <fix>3d</fix>
</trkpt>
<trkpt lat="40.072842" lon="-105.230575">
  <ele>1586.09</ele>
  <time>2026-08-28T19:08:05Z</time>
  <course>266.03</course>
  <speed>0.0</speed>
  <fix>3d</fix>
</trkpt>
<trkpt lat="40.072842" lon="-105.230575">
  <ele>1586.09</ele>
  <time>2026-08-28T19:08:05Z</time>
  <course>11.81</course>
  <speed>0.0282842712474619</speed>
  <fix>3d</fix>
</trkpt>
<trkpt lat="40.072842" lon="-105.230575">
  <ele>1586.09</ele>
  <time>2026-08-28T19:08:05Z</time>
  <course>266.03</course>
  <speed>0.0</speed>
  <fix>3d</fix>
</trkpt>
<trkpt lat="40.072842" lon="-105.230575">
  <ele>1586.09</ele>
  <time>2026-08-28T19:08:05Z</time>
  <course>11.8</course>
  <speed>0.0282842712474619</speed>
  <fix>3d</fix>
</trkpt>
<trkpt lat="40.072842" lon="-105.230575">
  <ele>1586.09</ele>
  <time>2026-08-28T19:08:05Z</time>
  <course>266.03</course>
  <speed>0.0</speed>
  <fix>3d</fix>
</trkpt>
<trkpt lat="40.072842" lon="-105.230575">
  <ele>1586.09</ele>
  <time>2026-08-28T19:08:05Z</time>
  <course>11.79</course>
  <speed>0.0282842712474619</speed>
  <fix>3d</fix>
</trkpt>
<trkpt lat="40.072842" lon="-105.230575">
  <ele>1586.09</ele>
  <time>2026-08-28T19:08:05Z</time>
  <course>266.03</course>
  <speed>0.0</speed>
  <fix>3d</fix>
</trkpt>
<trkpt lat="40.072842" lon="-105.230575">
  <ele>1586.09</ele>
  <time>2026-08-28T19:08:05Z</time>
  <course>11.79</course>
  <speed>0.0282842712474619</speed>
  <fix>3d</fix>
</trkpt>
<trkpt lat="40.072842" lon="-105.230575">
  <ele>1586.09</ele>
  <time>2026-08-28T19:08:05Z</time>
  <course>266.03</course>
  <speed>0.0</speed>
  <fix>3d</fix>
</trkpt>
<trkpt lat="40.072842" lon="-105.230575">
  <ele>1586.09</ele>
  <time>2026-08-28T19:08:05Z</time>
  <course>11.78</course>
  <speed>0.0282842712474619</speed>
  <fix>3d</fix>
</trkpt>
<trkpt lat="40.072842" lon="-105.230575">
  <ele>1586.09</ele>
  <time>2026-08-28T19:08:05Z</time>
  <course>266.03</course>
  <speed>0.0</speed>
  <fix>3d</fix>
</trkpt>
<trkpt lat="40.072842" lon="-105.230575">
  <ele>1586.09</ele>
  <time>2026-08-28T19:08:05Z</time>
  <course>11.77</course>
  <speed>0.0282842712474619</speed>
  <fix>3d</fix>
</trkpt>
<trkpt lat="40.072842" lon="-105.230575">
  <ele>1586.09</ele>
  <time>2026-08-28T19:08:05Z</time>
  <course>266.03</course>
  <speed>0.0</speed>
  <fix>3d</fix>
</trkpt>
<trkpt lat="40.072842" lon="-105.230575">
  <ele>1586.09</ele>
  <time>2026-08-28T19:08:05Z</time>
  <course>11.77</course>
  <speed>0.0282842712474619</speed>
  <fix>3d</fix>
</trkpt>
<trkpt lat="40.072842" lon="-105.230575">
  <ele>1586.09</ele>
  <time>2026-08-28T19:08:05Z</time>
  <course>266.03</course>
  <speed>0.0</speed>
  <fix>3d</fix>
</trkpt>
<trkpt lat="40.072842" lon="-105.230575">
  <ele>1586.09</ele>
  <time>2026-08-28T19:08:05Z</time>
  <course>11.76</course>
  <speed>0.0282842712474619</speed>
  <fix>3d</fix>
</trkpt>
<trkpt lat="40.072842" lon="-105.230575">
  <ele>1586.09</ele>
  <time>2026-08-28T19:08:05Z</time>
  <course>266.03</course>
  <speed>0.0</speed>
  <fix>3d</fix>
</trkpt>
<trkpt lat="40.072842" lon="-105.230575">
  <ele>1586.09</ele>
  <time>2026-08-28T19:08:05Z</time>
  <course>11.75</course>
  <speed>0.0282842712474619</speed>
  <fix>3d</fix>
</trkpt>
<trkpt lat="40.072842" lon="-105.230575">
  <ele>1586.09</ele>
  <time>2026-08-28T19:08:05Z</time>
  <course>266.03</course>
  <speed>0.0</speed>
  <fix>3d</fix>
</trkpt>
<trkpt lat="40.072842" lon="-105.230575">
  <ele>1586.09</ele>
  <time>2026-08-28T19:08:05Z</time>
  <course>11.74</course>
  <speed>0.03605551275463989</speed>
  <fix>3d</fix>
</trkpt>
<trkpt lat="40.072842" lon="-105.230575">
  <ele>1586.09</ele>
  <time>2026-08-28T19:08:05Z</time>
  <course>266.03</course>
  <speed>0.0</speed>
  <fix>3d</fix>
</trkpt>
<trkpt lat="40.072842" lon="-105.230575">
  <ele>1586.09</ele>
  <time>2026-08-28T19:08:05Z</time>
  <course>11.73</course>
  <speed>0.03605551275463989</speed>
  <fix>3d</fix>
</trkpt>
<trkpt lat="40.072842" lon="-105.230575">
  <ele>1586.09</ele>
  <time>2026-08-28T19:08:05Z</time>
  <course>266.03</course>
  <speed>0.0</speed>
  <fix>3d</fix>
</trkpt>
<trkpt lat="40.072842" lon="-105.230575">
  <ele>1586.09</ele>
  <time>2026-08-28T19:08:05Z</time>
  <course>11.73</course>
  <speed>0.03605551275463989</speed>
  <fix>3d</fix>
</trkpt>
<trkpt lat="40.072842" lon="-105.230575">
  <ele>1586.09</ele>
  <time>2026-08-28T19:08:05Z</time>
  <course>266.03</course>
  <speed>0.0</speed>
  <fix>3d</fix>
</trkpt>
<trkpt lat="40.072842" lon="-105.230575">
  <ele>1586.09</ele>
  <time>2026-08-28T19:08:05Z</time>
  <course>11.72</course>
  <speed>0.03605551275463989</speed>
  <fix>3d</fix>
</trkpt>
<trkpt lat="40.072842" lon="-105.230575">
  <ele>1586.09</ele>
  <time>2026-08-28T19:08:05Z</time>
  <course>266.03</course>
  <speed>0.0</speed>
  <fix>3d</fix>
</trkpt>
<trkpt lat="40.072842" lon="-105.230575">
  <ele>1586.09</ele>
  <time>2026-08-28T19:08:05Z</time>
  <course>11.71</course>
  <speed>0.03605551275463989</speed>
  <fix>3d</fix>
</trkpt>
<trkpt lat="40.072842" lon="-105.230575">
  <ele>1586.09</ele>
  <time>2026-08-28T19:08:05Z</time>
  <course>266.03</course>
  <speed>0.0</speed>
  <fix>3d</fix>
</trkpt>
<trkpt lat="40.072842" lon="-105.230575">
  <ele>1586.09</ele>
  <time>2026-08-28T19:08:05Z</time>
  <course>11.71</course>
  <speed>0.03605551275463989</speed>
  <fix>3d</fix>
</trkpt>
<trkpt lat="40.072842" lon="-105.230575">
  <ele>1586.09</ele>
  <time>2026-08-28T19:08:05Z</time>
  <course>266.03</course>
  <speed>0.0</speed>
  <fix>3d</fix>
</trkpt>
<trkpt lat="40.072842" lon="-105.230575">
  <ele>1586.09</ele>
  <time>2026-08-28T19:08:05Z</time>
  <course>11.7</course>
  <speed>0.03605551275463989</speed>
  <fix>3d</fix>
</trkpt>
<trkpt lat="40.072842" lon="-105.230575">
  <ele>1586.09</ele>
  <time>2026-08-28T19:08:05Z</time>
  <course>266.03</course>
  <speed>0.0</speed>
  <fix>3d</fix>
</trkpt>
<trkpt lat="40.072842" lon="-105.230575">
  <ele>1586.09</ele>
  <time>2026-08-28T19:08:06Z</time>
  <course>11.69</course>
  <speed>0.03605551275463989</speed>
  <fix>3d</fix>
</trkpt>
<trkpt lat="40.072842" lon="-105.230575">
  <ele>1586.09</ele>
  <time>2026-08-28T19:08:06Z</time>
  <course>266.03</course>
  <speed>0.0</speed>
  <fix>3d</fix>
</trkpt>
<trkpt lat="40.072842" lon="-105.230575">
  <ele>1586.09</ele>
  <time>2026-08-28T19:08:06Z</time>
  <course>11.68</course>
  <speed>0.03605551275463989</speed>
  <fix>3d</fix>
</trkpt>
<trkpt lat="40.072842" lon="-105.230575">
  <ele>1586.09</ele>
  <time>2026-08-28T19:08:06Z</time>
  <course>266.03</course>
  <speed>0.0</speed>
  <fix>3d</fix>
</trkpt>
<trkpt lat="40.072842" lon="-105.230575">
  <ele>1586.09</ele>
  <time>2026-08-28T19:08:06Z</time>
  <course>11.68</course>
  <speed>0.03605551275463989</speed>
  <fix>3d</fix>
</trkpt>
<trkpt lat="40.072842" lon="-105.230575">
  <ele>1586.09</ele>
  <time>2026-08-28T19:08:06Z</time>
  <course>266.03</course>
  <speed>0.0</speed>
  <fix>3d</fix>
</trkpt>
<trkpt lat="40.072842" lon="-105.230575">
  <ele>1586.09</ele>
  <time>2026-08-28T19:08:06Z</time>
  <course>11.67</course>
  <speed>0.03605551275463989</speed>
  <fix>3d</fix>
</trkpt>
<trkpt lat="40.072842" lon="-105.230575">
  <ele>1586.09</ele>
  <time>2026-08-28T19:08:06Z</time>
  <course>266.03</course>
  <speed>0.0</speed>
  <fix>3d</fix>
</trkpt>
<trkpt lat="40.072842" lon="-105.230575">
  <ele>1586.09</ele>
  <time>2026-08-28T19:08:06Z</time>
  <course>11.66</course>
  <speed>0.03605551275463989</speed>
  <fix>3d</fix>
</trkpt>
<trkpt lat="40.072842" lon="-105.230575">
  <ele>1586.09</ele>
  <time>2026-08-28T19:08:06Z</time>
  <course>266.03</course>
  <speed>0.0</speed>
  <fix>3d</fix>
</trkpt>
<trkpt lat="40.072842" lon="-105.230575">
  <ele>1586.09</ele>
  <time>2026-08-28T19:08:06Z</time>
  <course>11.65</course>
  <speed>0.03605551275463989</speed>
  <fix>3d</fix>
</trkpt>
<trkpt lat="40.072842" lon="-105.230575">
  <ele>1586.09</ele>
  <time>2026-08-28T19:08:06Z</time>
  <course>266.03</course>
  <speed>0.0</speed>
  <fix>3d</fix>
</trkpt>
<trkpt lat="40.072842" lon="-105.230575">
  <ele>1586.09</ele>
  <time>2026-08-28T19:08:06Z</time>
  <course>11.65</course>
  <speed>0.03605551275463989</speed>
  <fix>3d</fix>
</trkpt>
<trkpt lat="40.072842" lon="-105.230575">
  <ele>1586.09</ele>
  <time>2026-08-28T19:08:06Z</time>
  <course>266.03</course>
  <speed>0.0</speed>
  <fix>3d</fix>
</trkpt>
<trkpt lat="40.072842" lon="-105.230575">
  <ele>1586.09</ele>
  <time>2026-08-28T19:08:06Z</time>
  <course>11.64</course>
  <speed>0.03605551275463989</speed>
  <fix>3d</fix>
</trkpt>
<trkpt lat="40.072842" lon="-105.230575">
  <ele>1586.09</ele>
  <time>2026-08-28T19:08:06Z</time>
  <course>266.03</course>
  <speed>0.0</speed>
  <fix>3d</fix>
</trkpt>
<trkpt lat="40.072842" lon="-105.230575">
  <ele>1586.09</ele>
  <time>2026-08-28T19:08:06Z</time>
  <course>11.63</course>
  <speed>0.03605551275463989</speed>
  <fix>3d</fix>
</trkpt>
<trkpt lat="40.072842" lon="-105.230575">
  <ele>1586.09</ele>
  <time>2026-08-28T19:08:06Z</time>
  <course>266.03</course>
  <speed>0.0</speed>
  <fix>3d</fix>
</trkpt>
<trkpt lat="40.072842" lon="-105.230575">
  <ele>1586.09</ele>
  <time>2026-08-28T19:08:06Z</time>
  <course>11.63</course>
  <speed>0.03605551275463989</speed>
  <fix>3d</fix>
</trkpt>
<trkpt lat="40.072842" lon="-105.230575">
  <ele>1586.09</ele>
  <time>2026-08-28T19:08:06Z</time>
  <course>266.03</course>
  <speed>0.0</speed>
  <fix>3d</fix>
</trkpt>
<trkpt lat="40.072842" lon="-105.230575">
  <ele>1586.09</ele>
  <time>2026-08-28T19:08:06Z</time>
  <course>11.62</course>
  <speed>0.03605551275463989</speed>
  <fix>3d</fix>
</trkpt>
<trkpt lat="40.072842" lon="-105.230575">
  <ele>1586.09</ele>
  <time>2026-08-28T19:08:06Z</time>
  <course>266.03</course>
  <speed>0.0</speed>
  <fix>3d</fix>
</trkpt>
<trkpt lat="40.072842" lon="-105.230575">
  <ele>1586.09</ele>
  <time>2026-08-28T19:08:06Z</time>
  <course>11.61</course>
  <speed>0.03605551275463989</speed>
  <fix>3d</fix>
</trkpt>
<trkpt lat="40.072842" lon="-105.230575">
  <ele>1586.09</ele>
  <time>2026-08-28T19:08:06Z</time>
  <course>266.03</course>
  <speed>0.0</speed>
  <fix>3d</fix>
</trkpt>
<trkpt lat="40.072842" lon="-105.230575">
  <ele>1586.09</ele>
  <time>2026-08-28T19:08:06Z</time>
  <course>11.61</course>
  <speed>0.03605551275463989</speed>
  <fix>3d</fix>
</trkpt>
<trkpt lat="40.072842" lon="-105.230575">
  <ele>1586.09</ele>
  <time>2026-08-28T19:08:06Z</time>
  <course>266.03</course>
  <speed>0.0</speed>
  <fix>3d</fix>
</trkpt>
<trkpt lat="40.072842" lon="-105.230575">
  <ele>1586.09</ele>
  <time>2026-08-28T19:08:06Z</time>
  <course>11.6</course>
  <speed>0.03605551275463989</speed>
  <fix>3d</fix>
</trkpt>
<trkpt lat="40.072842" lon="-105.230575">
  <ele>1586.09</ele>
  <time>2026-08-28T19:08:06Z</time>
  <course>266.03</course>
  <speed>0.0</speed>
  <fix>3d</fix>
</trkpt>
<trkpt lat="40.072842" lon="-105.230575">
  <ele>1586.09</ele>
  <time>2026-08-28T19:08:06Z</time>
  <course>11.6</course>
  <speed>0.03605551275463989</speed>
  <fix>3d</fix>
</trkpt>
<trkpt lat="40.072842" lon="-105.230575">
  <ele>1586.09</ele>
  <time>2026-08-28T19:08:06Z</time>
  <course>266.03</course>
  <speed>0.0</speed>
  <fix>3d</fix>
</trkpt>
<trkpt lat="40.072842" lon="-105.230575">
  <ele>1586.09</ele>
  <time>2026-08-28T19:08:06Z</time>
  <course>11.59</course>
  <speed>0.03605551275463989</speed>
  <fix>3d</fix>
</trkpt>
<trkpt lat="40.072842" lon="-105.230575">
  <ele>1586.09</ele>
  <time>2026-08-28T19:08:06Z</time>
  <course>266.03</course>
  <speed>0.0</speed>
  <fix>3d</fix>
</trkpt>
<trkpt lat="40.072842" lon="-105.230575">
  <ele>1586.09</ele>
  <time>2026-08-28T19:08:06Z</time>
  <course>11.58</course>
  <speed>0.03605551275463989</speed>
  <fix>3d</fix>
</trkpt>
<trkpt lat="40.072842" lon="-105.230575">
  <ele>1586.09</ele>
  <time>2026-08-28T19:08:06Z</time>
  <course>266.03</course>
  <speed>0.0</speed>
  <fix>3d</fix>
</trkpt>
<trkpt lat="40.072842" lon="-105.230575">
  <ele>1586.09</ele>
  <time>2026-08-28T19:08:06Z</time>
  <course>11.58</course>
  <speed>0.03605551275463989</speed>
  <fix>3d</fix>
</trkpt>
<trkpt lat="40.072842" lon="-105.230575">
  <ele>1586.09</ele>
  <time>2026-08-28T19:08:06Z</time>
  <course>266.03</course>
  <speed>0.0</speed>
  <fix>3d</fix>
</trkpt>
<trkpt lat="40.072842" lon="-105.230575">
  <ele>1586.09</ele>
  <time>2026-08-28T19:08:06Z</time>
  <course>11.57</course>
  <speed>0.03605551275463989</speed>
  <fix>3d</fix>
</trkpt>
<trkpt lat="40.072842" lon="-105.230575">
  <ele>1586.09</ele>
  <time>2026-08-28T19:08:06Z</time>
  <course>266.03</course>
  <speed>0.0</speed>
  <fix>3d</fix>
</trkpt>
<trkpt lat="40.072842" lon="-105.230575">
  <ele>1586.09</ele>
  <time>2026-08-28T19:08:06Z</time>
  <course>11.56</course>
  <speed>0.03605551275463989</speed>
  <fix>3d</fix>
</trkpt>
<trkpt lat="40.072842" lon="-105.230575">
  <ele>1586.09</ele>
  <time>2026-08-28T19:08:06Z</time>
  <course>266.03</course>
  <speed>0.0</speed>
  <fix>3d</fix>
</trkpt>
<trkpt lat="40.072842" lon="-105.230575">
  <ele>1586.09</ele>
  <time>2026-08-28T19:08:06Z</time>
  <course>11.56</course>
  <speed>0.03605551275463989</speed>
  <fix>3d</fix>
</trkpt>
<trkpt lat="40.072842" lon="-105.230575">
  <ele>1586.09</ele>
  <time>2026-08-28T19:08:06Z</time>
  <course>266.03</course>
  <speed>0.0</speed>
  <fix>3d</fix>
</trkpt>
<trkpt lat="40.072842" lon="-105.230575">
  <ele>1586.09</ele>
  <time>2026-08-28T19:08:06Z</time>
  <course>11.55</course>
  <speed>0.03605551275463989</speed>
  <fix>3d</fix>
</trkpt>
<trkpt lat="40.072842" lon="-105.230575">
  <ele>1586.09</ele>
  <time>2026-08-28T19:08:06Z</time>
  <course>266.03</course>
  <speed>0.0</speed>
  <fix>3d</fix>
</trkpt>
<trkpt lat="40.072842" lon="-105.230575">
  <ele>1586.09</ele>
  <time>2026-08-28T19:08:06Z</time>
  <course>11.55</course>
  <speed>0.03605551275463989</speed>
  <fix>3d</fix>
</trkpt>
<trkpt lat="40.072842" lon="-105.230575">
  <ele>1586.09</ele>
  <time>2026-08-28T19:08:06Z</time>
  <course>266.03</course>
  <speed>0.0</speed>
  <fix>3d</fix>
</trkpt>
<trkpt lat="40.072842" lon="-105.230575">
  <ele>1586.09</ele>
  <time>2026-08-28T19:08:06Z</time>
  <course>11.54</course>
  <speed>0.03605551275463989</speed>
  <fix>3d</fix>
</trkpt>
<trkpt lat="40.072842" lon="-105.230575">
  <ele>1586.09</ele>
  <time>2026-08-28T19:08:06Z</time>
  <course>266.03</course>
  <speed>0.0</speed>
  <fix>3d</fix>
</trkpt>
<trkpt lat="40.072842" lon="-105.230575">
  <ele>1586.09</ele>
  <time>2026-08-28T19:08:06Z</time>
  <course>11.53</course>
  <speed>0.03605551275463989</speed>
  <fix>3d</fix>
</trkpt>
<trkpt lat="40.072842" lon="-105.230575">
  <ele>1586.09</ele>
  <time>2026-08-28T19:08:06Z</time>
  <course>266.03</course>
  <speed>0.0</speed>
  <fix>3d</fix>
</trkpt>
<trkpt lat="40.072842" lon="-105.230575">
  <ele>1586.09</ele>
  <time>2026-08-28T19:08:06Z</time>
  <course>11.53</course>
  <speed>0.03605551275463989</speed>
  <fix>3d</fix>
</trkpt>
<trkpt lat="40.072842" lon="-105.230575">
  <ele>1586.09</ele>
  <time>2026-08-28T19:08:06Z</time>
  <course>266.03</course>
  <speed>0.0</speed>
  <fix>3d</fix>
</trkpt>
<trkpt lat="40.072842" lon="-105.230575">
  <ele>1586.09</ele>
  <time>2026-08-28T19:08:06Z</time>
  <course>11.52</course>
  <speed>0.03605551275463989</speed>
  <fix>3d</fix>
</trkpt>
<trkpt lat="40.072842" lon="-105.230575">
  <ele>1586.09</ele>
  <time>2026-08-28T19:08:06Z</time>
  <course>266.03</course>
  <speed>0.0</speed>
  <fix>3d</fix>
</trkpt>
<trkpt lat="40.072842" lon="-105.230575">
  <ele>1586.09</ele>
  <time>2026-08-28T19:08:06Z</time>
  <course>11.52</course>
  <speed>0.03605551275463989</speed>
  <fix>3d</fix>
</trkpt>
<trkpt lat="40.072842" lon="-105.230575">
  <ele>1586.09</ele>
  <time>2026-08-28T19:08:06Z</time>
  <course>266.03</course>
  <speed>0.0</speed>
  <fix>3d</fix>
</trkpt>
<trkpt lat="40.072842" lon="-105.230575">
  <ele>1586.09</ele>
  <time>2026-08-28T19:08:06Z</time>
  <course>11.51</course>
  <speed>0.03605551275463989</speed>
  <fix>3d</fix>
</trkpt>
<trkpt lat="40.072842" lon="-105.230575">
  <ele>1586.09</ele>
  <time>2026-08-28T19:08:06Z</time>
  <course>266.03</course>
  <speed>0.0</speed>
  <fix>3d</fix>
</trkpt>
<trkpt lat="40.072842" lon="-105.230575">
  <ele>1586.09</ele>
  <time>2026-08-28T19:08:06Z</time>
  <course>11.51</course>
  <speed>0.03605551275463989</speed>
  <fix>3d</fix>
</trkpt>
<trkpt lat="40.072842" lon="-105.230575">
  <ele>1586.09</ele>
  <time>2026-08-28T19:08:06Z</time>
  <course>266.03</course>
  <speed>0.0</speed>
  <fix>3d</fix>
</trkpt>
<trkpt lat="40.072842" lon="-105.230575">
  <ele>1586.09</ele>
  <time>2026-08-28T19:08:06Z</time>
  <course>11.5</course>
  <speed>0.044721359549995794</speed>
  <fix>3d</fix>
</trkpt>
<trkpt lat="40.072842" lon="-105.230575">
  <ele>1586.09</ele>
  <time>2026-08-28T19:08:06Z</time>
  <course>266.03</course>
  <speed>0.0</speed>
  <fix>3d</fix>
</trkpt>
<trkpt lat="40.072842" lon="-105.230575">
  <ele>1586.09</ele>
  <time>2026-08-28T19:08:06Z</time>
  <course>11.49</course>
  <speed>0.044721359549995794</speed>
  <fix>3d</fix>
</trkpt>
<trkpt lat="40.072842" lon="-105.230575">
  <ele>1586.09</ele>
  <time>2026-08-28T19:08:06Z</time>
  <course>266.03</course>
  <speed>0.0</speed>
  <fix>3d</fix>
</trkpt>
<trkpt lat="40.072842" lon="-105.230575">
  <ele>1586.09</ele>
  <time>2026-08-28T19:08:06Z</time>
  <course>11.49</course>
  <speed>0.044721359549995794</speed>
  <fix>3d</fix>
</trkpt>
<trkpt lat="40.072842" lon="-105.230575">
  <ele>1586.09</ele>
  <time>2026-08-28T19:08:06Z</time>
  <course>266.03</course>
  <speed>0.0</speed>
  <fix>3d</fix>
</trkpt>
<trkpt lat="40.072842" lon="-105.230575">
  <ele>1586.09</ele>
  <time>2026-08-28T19:08:06Z</time>
  <course>11.48</course>
  <speed>0.044721359549995794</speed>
  <fix>3d</fix>
</trkpt>
<trkpt lat="40.072842" lon="-105.230575">
  <ele>1586.09</ele>
  <time>2026-08-28T19:08:06Z</time>
  <course>266.03</course>
  <speed>0.0</speed>
  <fix>3d</fix>
</trkpt>
<trkpt lat="40.072842" lon="-105.230575">
  <ele>1586.09</ele>
  <time>2026-08-28T19:08:06Z</time>
  <course>11.48</course>
  <speed>0.044721359549995794</speed>
  <fix>3d</fix>
</trkpt>
<trkpt lat="40.072842" lon="-105.230575">
  <ele>1586.09</ele>
  <time>2026-08-28T19:08:06Z</time>
  <course>266.03</course>
  <speed>0.0</speed>
  <fix>3d</fix>
</trkpt>
<trkpt lat="40.072842" lon="-105.230575">
  <ele>1586.09</ele>
  <time>2026-08-28T19:08:06Z</time>
  <course>11.47</course>
  <speed>0.044721359549995794</speed>
  <fix>3d</fix>
</trkpt>
<trkpt lat="40.072842" lon="-105.230575">
  <ele>1586.09</ele>
  <time>2026-08-28T19:08:06Z</time>
  <course>266.03</course>
  <speed>0.0</speed>
  <fix>3d</fix>
</trkpt>
<trkpt lat="40.072842" lon="-105.230575">
  <ele>1586.09</ele>
  <time>2026-08-28T19:08:06Z</time>
  <course>11.47</course>
  <speed>0.044721359549995794</speed>
  <fix>3d</fix>
</trkpt>
<trkpt lat="40.072842" lon="-105.230575">
  <ele>1586.09</ele>
  <time>2026-08-28T19:08:06Z</time>
  <course>266.03</course>
  <speed>0.0</speed>
  <fix>3d</fix>
</trkpt>
<trkpt lat="40.072842" lon="-105.230575">
  <ele>1586.09</ele>
  <time>2026-08-28T19:08:06Z</time>
  <course>11.47</course>
  <speed>0.044721359549995794</speed>
  <fix>3d</fix>
</trkpt>
<trkpt lat="40.072842" lon="-105.230575">
  <ele>1586.09</ele>
  <time>2026-08-28T19:08:06Z</time>
  <course>266.03</course>
  <speed>0.0</speed>
  <fix>3d</fix>
</trkpt>
<trkpt lat="40.072842" lon="-105.230575">
  <ele>1586.09</ele>
  <time>2026-08-28T19:08:06Z</time>
  <course>11.46</course>
  <speed>0.044721359549995794</speed>
  <fix>3d</fix>
</trkpt>
<trkpt lat="40.072842" lon="-105.230575">
  <ele>1586.09</ele>
  <time>2026-08-28T19:08:06Z</time>
  <course>266.03</course>
  <speed>0.0</speed>
  <fix>3d</fix>
</trkpt>
<trkpt lat="40.072842" lon="-105.230575">
  <ele>1586.16</ele>
  <time>2026-08-28T19:08:06Z</time>
  <course>11.45</course>
  <speed>0.0</speed>
  <fix>3d</fix>
</trkpt>
<trkpt lat="40.072842" lon="-105.230575">
  <ele>1586.09</ele>
  <time>2026-08-28T19:08:06Z</time>
  <course>297.19</course>
  <speed>0.0</speed>
  <fix>3d</fix>
</trkpt>
<trkpt lat="40.072842" lon="-105.230575">
  <ele>1586.16</ele>
  <time>2026-08-28T19:08:06Z</time>
  <course>11.45</course>
  <speed>0.0</speed>
  <fix>3d</fix>
</trkpt>
<trkpt lat="40.072842" lon="-105.230575">
  <ele>1586.09</ele>
  <time>2026-08-28T19:08:06Z</time>
  <course>269.87</course>
  <speed>0.0</speed>
  <fix>3d</fix>
</trkpt>
<trkpt lat="40.072842" lon="-105.230575">
  <ele>1586.16</ele>
  <time>2026-08-28T19:08:06Z</time>
  <course>11.44</course>
  <speed>0.0</speed>
  <fix>3d</fix>
</trkpt>
<trkpt lat="40.072842" lon="-105.230575">
  <ele>1586.09</ele>
  <time>2026-08-28T19:08:06Z</time>
  <course>241.23</course>
  <speed>0.0</speed>
  <fix>3d</fix>
</trkpt>
<trkpt lat="40.072842" lon="-105.230575">
  <ele>1586.16</ele>
  <time>2026-08-28T19:08:06Z</time>
  <course>11.44</course>
  <speed>0.0</speed>
  <fix>3d</fix>
</trkpt>
<trkpt lat="40.072842" lon="-105.230575">
  <ele>1586.09</ele>
  <time>2026-08-28T19:08:06Z</time>
  <course>93.08</course>
  <speed>0.0</speed>
  <fix>3d</fix>
</trkpt>
<trkpt lat="40.072842" lon="-105.230575">
  <ele>1586.17</ele>
  <time>2026-08-28T19:08:06Z</time>
  <course>11.44</course>
  <speed>0.0</speed>
  <fix>3d</fix>
</trkpt>
<trkpt lat="40.072842" lon="-105.230575">
  <ele>1586.09</ele>
  <time>2026-08-28T19:08:06Z</time>
  <course>317.31</course>
  <speed>0.0</speed>
  <fix>3d</fix>
</trkpt>
<trkpt lat="40.072842" lon="-105.230575">
  <ele>1586.17</ele>
  <time>2026-08-28T19:08:06Z</time>
  <course>11.43</course>
  <speed>0.01</speed>
  <fix>3d</fix>
</trkpt>
<trkpt lat="40.072842" lon="-105.230575">
  <ele>1586.09</ele>
  <time>2026-08-28T19:08:06Z</time>
  <course>265.24</course>
  <speed>0.0</speed>
  <fix>3d</fix>
</trkpt>
<trkpt lat="40.072842" lon="-105.230575">
  <ele>1586.17</ele>
  <time>2026-08-28T19:08:06Z</time>
  <course>11.43</course>
  <speed>0.01</speed>
  <fix>3d</fix>
</trkpt>
<trkpt lat="40.072842" lon="-105.230575">
  <ele>1586.09</ele>
  <time>2026-08-28T19:08:06Z</time>
  <course>261.76</course>
  <speed>0.0</speed>
  <fix>3d</fix>
</trkpt>
<trkpt lat="40.072842" lon="-105.230575">
  <ele>1586.17</ele>
  <time>2026-08-28T19:08:06Z</time>
  <course>11.42</course>
  <speed>0.01</speed>
  <fix>3d</fix>
</trkpt>
<trkpt lat="40.072842" lon="-105.230575">
  <ele>1586.09</ele>
  <time>2026-08-28T19:08:06Z</time>
  <course>266.78</course>
  <speed>0.0</speed>
  <fix>3d</fix>
</trkpt>
<trkpt lat="40.072842" lon="-105.230575">
  <ele>1586.17</ele>
  <time>2026-08-28T19:08:06Z</time>
  <course>11.42</course>
  <speed>0.01414213562373095</speed>
  <fix>3d</fix>
</trkpt>
<trkpt lat="40.072842" lon="-105.230575">
  <ele>1586.09</ele>
  <time>2026-08-28T19:08:06Z</time>
  <course>266.53</course>
  <speed>0.0</speed>
  <fix>3d</fix>
</trkpt>
<trkpt lat="40.072842" lon="-105.230575">
  <ele>1586.17</ele>
  <time>2026-08-28T19:08:06Z</time>
  <course>11.42</course>
  <speed>0.01414213562373095</speed>
  <fix>3d</fix>
</trkpt>
<trkpt lat="40.072842" lon="-105.230575">
  <ele>1586.09</ele>
  <time>2026-08-28T19:08:06Z</time>
  <course>265.88</course>
  <speed>0.0</speed>
  <fix>3d</fix>
</trkpt>
<trkpt lat="40.072842" lon="-105.230575">
  <ele>1586.17</ele>
  <time>2026-08-28T19:08:06Z</time>
  <course>11.41</course>
  <speed>0.01414213562373095</speed>
  <fix>3d</fix>
</trkpt>
<trkpt lat="40.072842" lon="-105.230575">
  <ele>1586.09</ele>
  <time>2026-08-28T19:08:06Z</time>
  <course>265.99</course>
  <speed>0.0</speed>
  <fix>3d</fix>
</trkpt>
<trkpt lat="40.072842" lon="-105.230575">
  <ele>1586.17</ele>
  <time>2026-08-28T19:08:06Z</time>
  <course>11.41</course>
  <speed>0.022360679774997897</speed>
  <fix>3d</fix>
</trkpt>
<trkpt lat="40.072842" lon="-105.230575">
  <ele>1586.09</ele>
  <time>2026-08-28T19:08:06Z</time>
  <course>266.06</course>
  <speed>0.0</speed>
  <fix>3d</fix>
</trkpt>
<trkpt lat="40.072842" lon="-105.230575">
  <ele>1586.17</ele>
  <time>2026-08-28T19:08:06Z</time>
  <course>11.4</course>
  <speed>0.022360679774997897</speed>
  <fix>3d</fix>
</trkpt>
<trkpt lat="40.072842" lon="-105.230575">
  <ele>1586.09</ele>
  <time>2026-08-28T19:08:06Z</time>
  <course>266.04</course>
  <speed>0.0</speed>
  <fix>3d</fix>
</trkpt>
<trkpt lat="40.072842" lon="-105.230575">
  <ele>1586.17</ele>
  <time>2026-08-28T19:08:06Z</time>
  <course>11.4</course>
  <speed>0.022360679774997897</speed>
  <fix>3d</fix>
</trkpt>
<trkpt lat="40.072842" lon="-105.230575">
  <ele>1586.09</ele>
  <time>2026-08-28T19:08:06Z</time>
  <course>266.03</course>
  <speed>0.0</speed>
  <fix>3d</fix>
</trkpt>
<trkpt lat="40.072842" lon="-105.230575">
  <ele>1586.17</ele>
  <time>2026-08-28T19:08:06Z</time>
  <course>11.4</course>
  <speed>0.022360679774997897</speed>
  <fix>3d</fix>
</trkpt>
<trkpt lat="40.072842" lon="-105.230575">
  <ele>1586.09</ele>
  <time>2026-08-28T19:08:06Z</time>
  <course>266.04</course>
  <speed>0.0</speed>
  <fix>3d</fix>
</trkpt>
<trkpt lat="40.0728419" lon="-105.230575">
  <ele>1586.17</ele>
  <time>2026-08-28T19:08:06Z</time>
  <course>11.39</course>
  <speed>0.022360679774997897</speed>
  <fix>3d</fix>
</trkpt>
<trkpt lat="40.072842" lon="-105.230575">
  <ele>1586.09</ele>
  <time>2026-08-28T19:08:06Z</time>
  <course>266.04</course>
  <speed>0.0</speed>
  <fix>3d</fix>
</trkpt>
<trkpt lat="40.0728419" lon="-105.2305749">
  <ele>1586.17</ele>
  <time>2026-08-28T19:08:06Z</time>
  <course>11.39</course>
  <speed>0.022360679774997897</speed>
  <fix>3d</fix>
</trkpt>
<trkpt lat="40.072842" lon="-105.230575">
  <ele>1586.09</ele>
  <time>2026-08-28T19:08:06Z</time>
  <course>266.03</course>
  <speed>0.0</speed>
  <fix>3d</fix>
</trkpt>
<trkpt lat="40.0728419" lon="-105.2305749">
  <ele>1586.17</ele>
  <time>2026-08-28T19:08:06Z</time>
  <course>11.38</course>
  <speed>0.022360679774997897</speed>
  <fix>3d</fix>
</trkpt>
<trkpt lat="40.072842" lon="-105.230575">
  <ele>1586.09</ele>
  <time>2026-08-28T19:08:06Z</time>
  <course>266.03</course>
  <speed>0.0</speed>
  <fix>3d</fix>
</trkpt>
<trkpt lat="40.0728419" lon="-105.2305749">
  <ele>1586.18</ele>
  <time>2026-08-28T19:08:06Z</time>
  <course>11.38</course>
  <speed>0.022360679774997897</speed>
  <fix>3d</fix>
</trkpt>
<trkpt lat="40.072842" lon="-105.230575">
  <ele>1586.09</ele>
  <time>2026-08-28T19:08:06Z</time>
  <course>266.04</course>
  <speed>0.0</speed>
  <fix>3d</fix>
</trkpt>
<trkpt lat="40.0728419" lon="-105.2305749">
  <ele>1586.18</ele>
  <time>2026-08-28T19:08:06Z</time>
  <course>11.37</course>
  <speed>0.022360679774997897</speed>
  <fix>3d</fix>
</trkpt>
<trkpt lat="40.072842" lon="-105.230575">
  <ele>1586.09</ele>
  <time>2026-08-28T19:08:06Z</time>
  <course>266.04</course>
  <speed>0.0</speed>
  <fix>3d</fix>
</trkpt>
<trkpt lat="40.0728419" lon="-105.2305749">
  <ele>1586.18</ele>
  <time>2026-08-28T19:08:06Z</time>
  <course>11.37</course>
  <speed>0.022360679774997897</speed>
  <fix>3d</fix>
</trkpt>
<trkpt lat="40.072842" lon="-105.230575">
  <ele>1586.09</ele>
  <time>2026-08-28T19:08:06Z</time>
  <course>178.09</course>
  <speed>0.0</speed>
  <fix>3d</fix>
</trkpt>
<trkpt lat="40.0728419" lon="-105.2305749">
  <ele>1586.17</ele>
  <time>2026-08-28T19:08:06Z</time>
  <course>11.37</course>
  <speed>0.022360679774997897</speed>
  <fix>3d</fix>
</trkpt>
<trkpt lat="40.072842" lon="-105.230575">
  <ele>1586.09</ele>
  <time>2026-08-28T19:08:06Z</time>
  <course>82.55</course>
  <speed>0.0</speed>
  <fix>3d</fix>
</trkpt>
<trkpt lat="40.0728419" lon="-105.2305749">
  <ele>1586.17</ele>
  <time>2026-08-28T19:08:06Z</time>
  <course>11.36</course>
  <speed>0.022360679774997897</speed>
  <fix>3d</fix>
</trkpt>
<trkpt lat="40.072842" lon="-105.230575">
  <ele>1586.09</ele>
  <time>2026-08-28T19:08:06Z</time>
  <course>70.11</course>
  <speed>0.0</speed>
  <fix>3d</fix>
</trkpt>
<trkpt lat="40.0728419" lon="-105.2305749">
  <ele>1586.17</ele>
  <time>2026-08-28T19:08:06Z</time>
  <course>11.36</course>
  <speed>0.022360679774997897</speed>
  <fix>3d</fix>
</trkpt>
<trkpt lat="40.072842" lon="-105.230575">
  <ele>1586.09</ele>
  <time>2026-08-28T19:08:06Z</time>
  <course>280.93</course>
  <speed>0.0</speed>
  <fix>3d</fix>
</trkpt>
<trkpt lat="40.0728419" lon="-105.2305749">
  <ele>1586.17</ele>
  <time>2026-08-28T19:08:06Z</time>
  <course>11.35</course>
  <speed>0.022360679774997897</speed>
  <fix>3d</fix>
</trkpt>
<trkpt lat="40.072842" lon="-105.230575">
  <ele>1586.09</ele>
  <time>2026-08-28T19:08:06Z</time>
  <course>245.32</course>
  <speed>0.0</speed>
  <fix>3d</fix>
</trkpt>
<trkpt lat="40.0728419" lon="-105.2305749">
  <ele>1586.16</ele>
  <time>2026-08-28T19:08:06Z</time>
  <course>11.35</course>
  <speed>0.01414213562373095</speed>
  <fix>3d</fix>
</trkpt>
<trkpt lat="40.072842" lon="-105.230575">
  <ele>1586.09</ele>
  <time>2026-08-28T19:08:06Z</time>
  <course>117.15</course>
  <speed>0.0</speed>
  <fix>3d</fix>
</trkpt>
<trkpt lat="40.0728419" lon="-105.2305749">
  <ele>1586.16</ele>
  <time>2026-08-28T19:08:06Z</time>
  <course>11.34</course>
  <speed>0.01414213562373095</speed>
  <fix>3d</fix>
</trkpt>
<trkpt lat="40.072842" lon="-105.230575">
  <ele>1586.09</ele>
  <time>2026-08-28T19:08:06Z</time>
  <course>279.17</course>
  <speed>0.0</speed>
  <fix>3d</fix>
</trkpt>
<trkpt lat="40.0728419" lon="-105.2305749">
  <ele>1586.16</ele>
  <time>2026-08-28T19:08:06Z</time>
  <course>11.34</course>
  <speed>0.01414213562373095</speed>
  <fix>3d</fix>
</trkpt>
<trkpt lat="40.072842" lon="-105.230575">
  <ele>1586.09</ele>
  <time>2026-08-28T19:08:06Z</time>
  <course>265.73</course>
  <speed>0.0</speed>
  <fix>3d</fix>
</trkpt>
<trkpt lat="40.0728419" lon="-105.2305749">
  <ele>1586.16</ele>
  <time>2026-08-28T19:08:06Z</time>
  <course>11.33</course>
  <speed>0.01414213562373095</speed>
  <fix>3d</fix>
</trkpt>
<trkpt lat="40.072842" lon="-105.230575">
  <ele>1586.09</ele>
  <time>2026-08-28T19:08:06Z</time>
  <course>264.62</course>
  <speed>0.0</speed>
  <fix>3d</fix>
</trkpt>
<trkpt lat="40.0728419" lon="-105.2305749">
  <ele>1586.16</ele>
  <time>2026-08-28T19:08:06Z</time>
  <course>11.33</course>
  <speed>0.01414213562373095</speed>
  <fix>3d</fix>
</trkpt>
<trkpt lat="40.072842" lon="-105.230575">
  <ele>1586.09</ele>
  <time>2026-08-28T19:08:06Z</time>
  <course>266.26</course>
  <speed>0.0</speed>
  <fix>3d</fix>
</trkpt>
<trkpt lat="40.0728419" lon="-105.2305749">
  <ele>1586.15</ele>
  <time>2026-08-28T19:08:06Z</time>
  <course>11.32</course>
  <speed>0.01414213562373095</speed>
  <fix>3d</fix>
</trkpt>
<trkpt lat="40.072842" lon="-105.230575">
  <ele>1586.09</ele>
  <time>2026-08-28T19:08:06Z</time>
  <course>266.2</course>
  <speed>0.0</speed>
  <fix>3d</fix>
</trkpt>
<trkpt lat="40.0728419" lon="-105.2305749">
  <ele>1586.15</ele>
  <time>2026-08-28T19:08:06Z</time>
  <course>11.32</course>
  <speed>0.01414213562373095</speed>
  <fix>3d</fix>
</trkpt>
<trkpt lat="40.072842" lon="-105.230575">
  <ele>1586.09</ele>
  <time>2026-08-28T19:08:06Z</time>
  <course>265.99</course>
  <speed>0.0</speed>
  <fix>3d</fix>
</trkpt>
<trkpt lat="40.0728419" lon="-105.2305749">
  <ele>1586.15</ele>
  <time>2026-08-28T19:08:06Z</time>
  <course>11.31</course>
  <speed>0.01414213562373095</speed>
  <fix>3d</fix>
</trkpt>
<trkpt lat="40.072842" lon="-105.230575">
  <ele>1586.09</ele>
  <time>2026-08-28T19:08:06Z</time>
  <course>266.02</course>
  <speed>0.0</speed>
  <fix>3d</fix>
</trkpt>
<trkpt lat="40.0728419" lon="-105.2305749">
  <ele>1586.15</ele>
  <time>2026-08-28T19:08:06Z</time>
  <course>11.31</course>
  <speed>0.01414213562373095</speed>
  <fix>3d</fix>
</trkpt>
<trkpt lat="40.072842" lon="-105.230575">
  <ele>1586.09</ele>
  <time>2026-08-28T19:08:06Z</time>
  <course>266.04</course>
  <speed>0.0</speed>
  <fix>3d</fix>
</trkpt>
<trkpt lat="40.0728419" lon="-105.2305749">
  <ele>1586.15</ele>
  <time>2026-08-28T19:08:06Z</time>
  <course>11.3</course>
  <speed>0.01414213562373095</speed>
  <fix>3d</fix>
</trkpt>
<trkpt lat="40.072842" lon="-105.230575">
  <ele>1586.09</ele>
  <time>2026-08-28T19:08:06Z</time>
  <course>266.04</course>
  <speed>0.0</speed>
  <fix>3d</fix>
</trkpt>
<trkpt lat="40.0728419" lon="-105.2305749">
  <ele>1586.16</ele>
  <time>2026-08-28T19:08:06Z</time>
  <course>11.3</course>
  <speed>0.01414213562373095</speed>
  <fix>3d</fix>
</trkpt>
<trkpt lat="40.072842" lon="-105.230575">
  <ele>1586.09</ele>
  <time>2026-08-28T19:08:06Z</time>
  <course>266.03</course>
  <speed>0.0</speed>
  <fix>3d</fix>
</trkpt>
<trkpt lat="40.0728419" lon="-105.2305749">
  <ele>1586.16</ele>
  <time>2026-08-28T19:08:06Z</time>
  <course>11.3</course>
  <speed>0.01414213562373095</speed>
  <fix>3d</fix>
</trkpt>
<trkpt lat="40.072842" lon="-105.230575">
  <ele>1586.09</ele>
  <time>2026-08-28T19:08:06Z</time>
  <course>266.03</course>
  <speed>0.0</speed>
  <fix>3d</fix>
</trkpt>
<trkpt lat="40.0728419" lon="-105.2305749">
  <ele>1586.16</ele>
  <time>2026-08-28T19:08:06Z</time>
  <course>11.29</course>
  <speed>0.01414213562373095</speed>
  <fix>3d</fix>
</trkpt>
<trkpt lat="40.072842" lon="-105.230575">
  <ele>1586.09</ele>
  <time>2026-08-28T19:08:06Z</time>
  <course>266.03</course>
  <speed>0.0</speed>
  <fix>3d</fix>
</trkpt>
<trkpt lat="40.0728419" lon="-105.2305749">
  <ele>1586.16</ele>
  <time>2026-08-28T19:08:06Z</time>
  <course>11.29</course>
  <speed>0.01414213562373095</speed>
  <fix>3d</fix>
</trkpt>
<trkpt lat="40.072842" lon="-105.230575">
  <ele>1586.09</ele>
  <time>2026-08-28T19:08:06Z</time>
  <course>266.03</course>
  <speed>0.0</speed>
  <fix>3d</fix>
</trkpt>
<trkpt lat="40.0728419" lon="-105.2305749">
  <ele>1586.16</ele>
  <time>2026-08-28T19:08:06Z</time>
  <course>11.28</course>
  <speed>0.01414213562373095</speed>
  <fix>3d</fix>
</trkpt>
<trkpt lat="40.072842" lon="-105.230575">
  <ele>1586.09</ele>
  <time>2026-08-28T19:08:06Z</time>
  <course>266.03</course>
  <speed>0.0</speed>
  <fix>3d</fix>
</trkpt>
<trkpt lat="40.0728419" lon="-105.2305749">
  <ele>1586.16</ele>
  <time>2026-08-28T19:08:06Z</time>
  <course>11.28</course>
  <speed>0.01414213562373095</speed>
  <fix>3d</fix>
</trkpt>
<trkpt lat="40.072842" lon="-105.230575">
  <ele>1586.09</ele>
  <time>2026-08-28T19:08:06Z</time>
  <course>266.03</course>
  <speed>0.0</speed>
  <fix>3d</fix>
</trkpt>
<trkpt lat="40.0728419" lon="-105.2305749">
  <ele>1586.15</ele>
  <time>2026-08-28T19:08:06Z</time>
  <course>11.27</course>
  <speed>0.01414213562373095</speed>
  <fix>3d</fix>
</trkpt>
<trkpt lat="40.072842" lon="-105.230575">
  <ele>1586.09</ele>
  <time>2026-08-28T19:08:06Z</time>
  <course>266.03</course>
  <speed>0.0</speed>
  <fix>3d</fix>
</trkpt>
<trkpt lat="40.0728419" lon="-105.2305749">
  <ele>1586.15</ele>
  <time>2026-08-28T19:08:06Z</time>
  <course>11.27</course>
  <speed>0.01414213562373095</speed>
  <fix>3d</fix>
</trkpt>
<trkpt lat="40.072842" lon="-105.230575">
  <ele>1586.09</ele>
  <time>2026-08-28T19:08:06Z</time>
  <course>266.03</course>
  <speed>0.0</speed>
  <fix>3d</fix>
</trkpt>
<trkpt lat="40.0728419" lon="-105.2305749">
  <ele>1586.15</ele>
  <time>2026-08-28T19:08:06Z</time>
  <course>11.26</course>
  <speed>0.01414213562373095</speed>
  <fix>3d</fix>
</trkpt>
<trkpt lat="40.072842" lon="-105.230575">
  <ele>1586.09</ele>
  <time>2026-08-28T19:08:06Z</time>
  <course>266.03</course>
  <speed>0.0</speed>
  <fix>3d</fix>
</trkpt>
<trkpt lat="40.0728419" lon="-105.2305749">
  <ele>1586.15</ele>
  <time>2026-08-28T19:08:06Z</time>
  <course>11.26</course>
  <speed>0.01414213562373095</speed>
  <fix>3d</fix>
</trkpt>
<trkpt lat="40.072842" lon="-105.230575">
  <ele>1586.09</ele>
  <time>2026-08-28T19:08:06Z</time>
  <course>266.03</course>
  <speed>0.0</speed>
  <fix>3d</fix>
</trkpt>
<trkpt lat="40.0728419" lon="-105.2305749">
  <ele>1586.16</ele>
  <time>2026-08-28T19:08:06Z</time>
  <course>11.25</course>
  <speed>0.01414213562373095</speed>
  <fix>3d</fix>
</trkpt>
<trkpt lat="40.072842" lon="-105.230575">
  <ele>1586.09</ele>
  <time>2026-08-28T19:08:06Z</time>
  <course>266.03</course>
  <speed>0.0</speed>
  <fix>3d</fix>
</trkpt>
<trkpt lat="40.0728419" lon="-105.2305749">
  <ele>1586.16</ele>
  <time>2026-08-28T19:08:06Z</time>
  <course>11.25</course>
  <speed>0.01414213562373095</speed>
  <fix>3d</fix>
</trkpt>
<trkpt lat="40.072842" lon="-105.230575">
  <ele>1586.09</ele>
  <time>2026-08-28T19:08:06Z</time>
  <course>266.03</course>
  <speed>0.0</speed>
  <fix>3d</fix>
</trkpt>
<trkpt lat="40.0728419" lon="-105.2305749">
  <ele>1586.17</ele>
  <time>2026-08-28T19:08:06Z</time>
  <course>11.25</course>
  <speed>0.01414213562373095</speed>
  <fix>3d</fix>
</trkpt>
<trkpt lat="40.072842" lon="-105.230575">
  <ele>1586.09</ele>
  <time>2026-08-28T19:08:06Z</time>
  <course>266.03</course>
  <speed>0.0</speed>
  <fix>3d</fix>
</trkpt>
<trkpt lat="40.0728419" lon="-105.2305749">
  <ele>1586.17</ele>
  <time>2026-08-28T19:08:06Z</time>
  <course>11.24</course>
  <speed>0.01414213562373095</speed>
  <fix>3d</fix>
</trkpt>
<trkpt lat="40.072842" lon="-105.230575">
  <ele>1586.09</ele>
  <time>2026-08-28T19:08:06Z</time>
  <course>266.03</course>
  <speed>0.0</speed>
  <fix>3d</fix>
</trkpt>
<trkpt lat="40.0728419" lon="-105.2305749">
  <ele>1586.17</ele>
  <time>2026-08-28T19:08:06Z</time>
  <course>11.24</course>
  <speed>0.01414213562373095</speed>
  <fix>3d</fix>
</trkpt>
<trkpt lat="40.072842" lon="-105.230575">
  <ele>1586.09</ele>
  <time>2026-08-28T19:08:06Z</time>
  <course>266.03</course>
  <speed>0.0</speed>
  <fix>3d</fix>
</trkpt>
<trkpt lat="40.0728419" lon="-105.2305749">
  <ele>1586.17</ele>
  <time>2026-08-28T19:08:06Z</time>
  <course>11.23</course>
  <speed>0.01414213562373095</speed>
  <fix>3d</fix>
</trkpt>
<trkpt lat="40.072842" lon="-105.230575">
  <ele>1586.09</ele>
  <time>2026-08-28T19:08:06Z</time>
  <course>266.03</course>
  <speed>0.0</speed>
  <fix>3d</fix>
</trkpt>
<trkpt lat="40.0728419" lon="-105.2305749">
  <ele>1586.17</ele>
  <time>2026-08-28T19:08:06Z</time>
  <course>11.23</course>
  <speed>0.01414213562373095</speed>
  <fix>3d</fix>
</trkpt>
<trkpt lat="40.072842" lon="-105.230575">
  <ele>1586.09</ele>
  <time>2026-08-28T19:08:06Z</time>
  <course>266.03</course>
  <speed>0.0</speed>
  <fix>3d</fix>
</trkpt>
<trkpt lat="40.0728419" lon="-105.2305749">
  <ele>1586.17</ele>
  <time>2026-08-28T19:08:06Z</time>
  <course>11.23</course>
  <speed>0.01414213562373095</speed>
  <fix>3d</fix>
</trkpt>
<trkpt lat="40.072842" lon="-105.230575">
  <ele>1586.09</ele>
  <time>2026-08-28T19:08:06Z</time>
  <course>266.03</course>
  <speed>0.0</speed>
  <fix>3d</fix>
</trkpt>
<trkpt lat="40.0728419" lon="-105.2305749">
  <ele>1586.17</ele>
  <time>2026-08-28T19:08:06Z</time>
  <course>11.22</course>
  <speed>0.01414213562373095</speed>
  <fix>3d</fix>
</trkpt>
<trkpt lat="40.072842" lon="-105.230575">
  <ele>1586.09</ele>
  <time>2026-08-28T19:08:06Z</time>
  <course>266.03</course>
  <speed>0.0</speed>
  <fix>3d</fix>
</trkpt>
<trkpt lat="40.0728419" lon="-105.2305749">
  <ele>1586.17</ele>
  <time>2026-08-28T19:08:06Z</time>
  <course>11.22</course>
  <speed>0.01414213562373095</speed>
  <fix>3d</fix>
</trkpt>
<trkpt lat="40.072842" lon="-105.230575">
  <ele>1586.09</ele>
  <time>2026-08-28T19:08:06Z</time>
  <course>266.03</course>
  <speed>0.0</speed>
  <fix>3d</fix>
</trkpt>
<trkpt lat="40.0728419" lon="-105.2305749">
  <ele>1586.17</ele>
  <time>2026-08-28T19:08:06Z</time>
  <course>11.21</course>
  <speed>0.01414213562373095</speed>
  <fix>3d</fix>
</trkpt>
<trkpt lat="40.072842" lon="-105.230575">
  <ele>1586.09</ele>
  <time>2026-08-28T19:08:06Z</time>
  <course>266.03</course>
  <speed>0.0</speed>
  <fix>3d</fix>
</trkpt>
<trkpt lat="40.0728419" lon="-105.2305749">
  <ele>1586.17</ele>
  <time>2026-08-28T19:08:06Z</time>
  <course>11.21</course>
  <speed>0.01414213562373095</speed>
  <fix>3d</fix>
</trkpt>
<trkpt lat="40.072842" lon="-105.230575">
  <ele>1586.09</ele>
  <time>2026-08-28T19:08:06Z</time>
  <course>266.03</course>
  <speed>0.0</speed>
  <fix>3d</fix>
</trkpt>
<trkpt lat="40.0728419" lon="-105.2305749">
  <ele>1586.17</ele>
  <time>2026-08-28T19:08:06Z</time>
  <course>11.21</course>
  <speed>0.01414213562373095</speed>
  <fix>3d</fix>
</trkpt>
<trkpt lat="40.072842" lon="-105.230575">
  <ele>1586.09</ele>
  <time>2026-08-28T19:08:06Z</time>
  <course>266.03</course>
  <speed>0.0</speed>
  <fix>3d</fix>
</trkpt>
<trkpt lat="40.0728419" lon="-105.2305749">
  <ele>1586.17</ele>
  <time>2026-08-28T19:08:06Z</time>
  <course>11.2</course>
  <speed>0.01414213562373095</speed>
  <fix>3d</fix>
</trkpt>
<trkpt lat="40.072842" lon="-105.230575">
  <ele>1586.09</ele>
  <time>2026-08-28T19:08:06Z</time>
  <course>266.03</course>
  <speed>0.0</speed>
  <fix>3d</fix>
</trkpt>
<trkpt lat="40.0728419" lon="-105.2305749">
  <ele>1586.16</ele>
  <time>2026-08-28T19:08:06Z</time>
  <course>11.2</course>
  <speed>0.01414213562373095</speed>
  <fix>3d</fix>
</trkpt>
<trkpt lat="40.072842" lon="-105.230575">
  <ele>1586.09</ele>
  <time>2026-08-28T19:08:06Z</time>
  <course>266.03</course>
  <speed>0.0</speed>
  <fix>3d</fix>
</trkpt>
<trkpt lat="40.0728419" lon="-105.2305749">
  <ele>1586.16</ele>
  <time>2026-08-28T19:08:06Z</time>
  <course>11.2</course>
  <speed>0.01414213562373095</speed>
  <fix>3d</fix>
</trkpt>
<trkpt lat="40.072842" lon="-105.230575">
  <ele>1586.09</ele>
  <time>2026-08-28T19:08:06Z</time>
  <course>266.03</course>
  <speed>0.0</speed>
  <fix>3d</fix>
</trkpt>
<trkpt lat="40.0728419" lon="-105.2305749">
  <ele>1586.15</ele>
  <time>2026-08-28T19:08:06Z</time>
  <course>11.19</course>
  <speed>0.01414213562373095</speed>
  <fix>3d</fix>
</trkpt>
<trkpt lat="40.072842" lon="-105.230575">
  <ele>1586.09</ele>
  <time>2026-08-28T19:08:06Z</time>
  <course>266.03</course>
  <speed>0.0</speed>
  <fix>3d</fix>
</trkpt>
<trkpt lat="40.0728419" lon="-105.2305749">
  <ele>1586.15</ele>
  <time>2026-08-28T19:08:06Z</time>
  <course>11.19</course>
  <speed>0.01414213562373095</speed>
  <fix>3d</fix>
</trkpt>
<trkpt lat="40.072842" lon="-105.230575">
  <ele>1586.09</ele>
  <time>2026-08-28T19:08:06Z</time>
  <course>266.03</course>
  <speed>0.0</speed>
  <fix>3d</fix>
</trkpt>
<trkpt lat="40.0728419" lon="-105.2305749">
  <ele>1586.16</ele>
  <time>2026-08-28T19:08:06Z</time>
  <course>11.19</course>
  <speed>0.01414213562373095</speed>
  <fix>3d</fix>
</trkpt>
<trkpt lat="40.072842" lon="-105.230575">
  <ele>1586.09</ele>
  <time>2026-08-28T19:08:06Z</time>
  <course>266.03</course>
  <speed>0.0</speed>
  <fix>3d</fix>
</trkpt>
<trkpt lat="40.0728419" lon="-105.2305749">
  <ele>1586.16</ele>
  <time>2026-08-28T19:08:06Z</time>
  <course>11.18</course>
  <speed>0.01414213562373095</speed>
  <fix>3d</fix>
</trkpt>
<trkpt lat="40.072842" lon="-105.230575">
  <ele>1586.09</ele>
  <time>2026-08-28T19:08:06Z</time>
  <course>266.03</course>
  <speed>0.0</speed>
  <fix>3d</fix>
</trkpt>
<trkpt lat="40.0728419" lon="-105.2305749">
  <ele>1586.16</ele>
  <time>2026-08-28T19:08:06Z</time>
  <course>11.18</course>
  <speed>0.01414213562373095</speed>
  <fix>3d</fix>
</trkpt>
<trkpt lat="40.072842" lon="-105.230575">
  <ele>1586.09</ele>
  <time>2026-08-28T19:08:06Z</time>
  <course>266.03</course>
  <speed>0.0</speed>
  <fix>3d</fix>
</trkpt>
<trkpt lat="40.0728419" lon="-105.2305749">
  <ele>1586.16</ele>
  <time>2026-08-28T19:08:06Z</time>
  <course>11.18</course>
  <speed>0.01414213562373095</speed>
  <fix>3d</fix>
</trkpt>
<trkpt lat="40.072842" lon="-105.230575">
  <ele>1586.09</ele>
  <time>2026-08-28T19:08:06Z</time>
  <course>266.03</course>
  <speed>0.0</speed>
  <fix>3d</fix>
</trkpt>
<trkpt lat="40.0728419" lon="-105.2305749">
  <ele>1586.16</ele>
  <time>2026-08-28T19:08:06Z</time>
  <course>11.17</course>
  <speed>0.01414213562373095</speed>
  <fix>3d</fix>
</trkpt>
<trkpt lat="40.072842" lon="-105.230575">
  <ele>1586.09</ele>
  <time>2026-08-28T19:08:06Z</time>
  <course>266.03</course>
  <speed>0.0</speed>
  <fix>3d</fix>
</trkpt>
<trkpt lat="40.0728419" lon="-105.2305749">
  <ele>1586.17</ele>
  <time>2026-08-28T19:08:06Z</time>
  <course>11.17</course>
  <speed>0.01414213562373095</speed>
  <fix>3d</fix>
</trkpt>
<trkpt lat="40.072842" lon="-105.230575">
  <ele>1586.09</ele>
  <time>2026-08-28T19:08:06Z</time>
  <course>266.03</course>
  <speed>0.0</speed>
  <fix>3d</fix>
</trkpt>
<trkpt lat="40.0728419" lon="-105.2305749">
  <ele>1586.18</ele>
  <time>2026-08-28T19:08:06Z</time>
  <course>11.16</course>
  <speed>0.01414213562373095</speed>
  <fix>3d</fix>
</trkpt>
<trkpt lat="40.072842" lon="-105.230575">
  <ele>1586.09</ele>
  <time>2026-08-28T19:08:06Z</time>
  <course>266.03</course>
  <speed>0.0</speed>
  <fix>3d</fix>
</trkpt>
<trkpt lat="40.0728419" lon="-105.2305749">
  <ele>1586.18</ele>
  <time>2026-08-28T19:08:06Z</time>
  <course>11.16</course>
  <speed>0.01414213562373095</speed>
  <fix>3d</fix>
</trkpt>
<trkpt lat="40.072842" lon="-105.230575">
  <ele>1586.09</ele>
  <time>2026-08-28T19:08:06Z</time>
  <course>266.03</course>
  <speed>0.0</speed>
  <fix>3d</fix>
</trkpt>
<trkpt lat="40.0728419" lon="-105.2305749">
  <ele>1586.18</ele>
  <time>2026-08-28T19:08:06Z</time>
  <course>11.16</course>
  <speed>0.01414213562373095</speed>
  <fix>3d</fix>
</trkpt>
<trkpt lat="40.072842" lon="-105.230575">
  <ele>1586.09</ele>
  <time>2026-08-28T19:08:06Z</time>
  <course>266.03</course>
  <speed>0.0</speed>
  <fix>3d</fix>
</trkpt>
<trkpt lat="40.0728419" lon="-105.2305749">
  <ele>1586.18</ele>
  <time>2026-08-28T19:08:06Z</time>
  <course>11.16</course>
  <speed>0.01414213562373095</speed>
  <fix>3d</fix>
</trkpt>
<trkpt lat="40.072842" lon="-105.230575">
  <ele>1586.09</ele>
  <time>2026-08-28T19:08:06Z</time>
  <course>266.03</course>
  <speed>0.0</speed>
  <fix>3d</fix>
</trkpt>
<trkpt lat="40.0728419" lon="-105.2305749">
  <ele>1586.18</ele>
  <time>2026-08-28T19:08:06Z</time>
  <course>11.15</course>
  <speed>0.01414213562373095</speed>
  <fix>3d</fix>
</trkpt>
<trkpt lat="40.072842" lon="-105.230575">
  <ele>1586.09</ele>
  <time>2026-08-28T19:08:06Z</time>
  <course>266.03</course>
  <speed>0.0</speed>
  <fix>3d</fix>
</trkpt>
<trkpt lat="40.0728419" lon="-105.2305749">
  <ele>1586.17</ele>
  <time>2026-08-28T19:08:06Z</time>
  <course>11.15</course>
  <speed>0.01414213562373095</speed>
  <fix>3d</fix>
</trkpt>
<trkpt lat="40.072842" lon="-105.230575">
  <ele>1586.09</ele>
  <time>2026-08-28T19:08:06Z</time>
  <course>266.03</course>
  <speed>0.0</speed>
  <fix>3d</fix>
</trkpt>
<trkpt lat="40.0728419" lon="-105.2305749">
  <ele>1586.17</ele>
  <time>2026-08-28T19:08:06Z</time>
  <course>11.15</course>
  <speed>0.01414213562373095</speed>
  <fix>3d</fix>
</trkpt>
<trkpt lat="40.072842" lon="-105.230575">
  <ele>1586.09</ele>
  <time>2026-08-28T19:08:06Z</time>
  <course>266.03</course>
  <speed>0.0</speed>
  <fix>3d</fix>
</trkpt>
<trkpt lat="40.0728419" lon="-105.2305749">
  <ele>1586.17</ele>
  <time>2026-08-28T19:08:06Z</time>
  <course>11.14</course>
  <speed>0.01414213562373095</speed>
  <fix>3d</fix>
</trkpt>
<trkpt lat="40.072842" lon="-105.230575">
  <ele>1586.09</ele>
  <time>2026-08-28T19:08:06Z</time>
  <course>266.03</course>
  <speed>0.0</speed>
  <fix>3d</fix>
</trkpt>
<trkpt lat="40.0728419" lon="-105.2305749">
  <ele>1586.17</ele>
  <time>2026-08-28T19:08:06Z</time>
  <course>11.14</course>
  <speed>0.01414213562373095</speed>
  <fix>3d</fix>
</trkpt>
<trkpt lat="40.072842" lon="-105.230575">
  <ele>1586.09</ele>
  <time>2026-08-28T19:08:06Z</time>
  <course>266.03</course>
  <speed>0.0</speed>
  <fix>3d</fix>
</trkpt>
<trkpt lat="40.0728419" lon="-105.2305749">
  <ele>1586.17</ele>
  <time>2026-08-28T19:08:06Z</time>
  <course>11.14</course>
  <speed>0.01414213562373095</speed>
  <fix>3d</fix>
</trkpt>
<trkpt lat="40.072842" lon="-105.230575">
  <ele>1586.09</ele>
  <time>2026-08-28T19:08:06Z</time>
  <course>266.03</course>
  <speed>0.0</speed>
  <fix>3d</fix>
</trkpt>
<trkpt lat="40.0728419" lon="-105.2305749">
  <ele>1586.17</ele>
  <time>2026-08-28T19:08:06Z</time>
  <course>11.14</course>
  <speed>0.01414213562373095</speed>
  <fix>3d</fix>
</trkpt>
<trkpt lat="40.072842" lon="-105.230575">
  <ele>1586.09</ele>
  <time>2026-08-28T19:08:06Z</time>
  <course>266.03</course>
  <speed>0.0</speed>
  <fix>3d</fix>
</trkpt>
<trkpt lat="40.0728419" lon="-105.2305749">
  <ele>1586.17</ele>
  <time>2026-08-28T19:08:06Z</time>
  <course>11.13</course>
  <speed>0.01414213562373095</speed>
  <fix>3d</fix>
</trkpt>
<trkpt lat="40.072842" lon="-105.230575">
  <ele>1586.09</ele>
  <time>2026-08-28T19:08:06Z</time>
  <course>266.03</course>
  <speed>0.0</speed>
  <fix>3d</fix>
</trkpt>
<trkpt lat="40.0728419" lon="-105.2305749">
  <ele>1586.17</ele>
  <time>2026-08-28T19:08:06Z</time>
  <course>11.13</course>
  <speed>0.01414213562373095</speed>
  <fix>3d</fix>
</trkpt>
<trkpt lat="40.072842" lon="-105.230575">
  <ele>1586.09</ele>
  <time>2026-08-28T19:08:06Z</time>
  <course>266.03</course>
  <speed>0.0</speed>
  <fix>3d</fix>
</trkpt>
<trkpt lat="40.0728419" lon="-105.2305749">
  <ele>1586.16</ele>
  <time>2026-08-28T19:08:06Z</time>
  <course>11.13</course>
  <speed>0.01414213562373095</speed>
  <fix>3d</fix>
</trkpt>
<trkpt lat="40.072842" lon="-105.230575">
  <ele>1586.09</ele>
  <time>2026-08-28T19:08:06Z</time>
  <course>266.03</course>
  <speed>0.0</speed>
  <fix>3d</fix>
</trkpt>
<trkpt lat="40.0728419" lon="-105.2305749">
  <ele>1586.16</ele>
  <time>2026-08-28T19:08:06Z</time>
  <course>11.12</course>
  <speed>0.01414213562373095</speed>
  <fix>3d</fix>
</trkpt>
<trkpt lat="40.072842" lon="-105.230575">
  <ele>1586.09</ele>
  <time>2026-08-28T19:08:06Z</time>
  <course>266.03</course>
  <speed>0.0</speed>
  <fix>3d</fix>
</trkpt>
<trkpt lat="40.0728419" lon="-105.2305749">
  <ele>1586.16</ele>
  <time>2026-08-28T19:08:06Z</time>
  <course>11.12</course>
  <speed>0.01414213562373095</speed>
  <fix>3d</fix>
</trkpt>
<trkpt lat="40.072842" lon="-105.230575">
  <ele>1586.09</ele>
  <time>2026-08-28T19:08:06Z</time>
  <course>266.03</course>
  <speed>0.0</speed>
  <fix>3d</fix>
</trkpt>
<trkpt lat="40.0728419" lon="-105.2305749">
  <ele>1586.16</ele>
  <time>2026-08-28T19:08:06Z</time>
  <course>11.12</course>
  <speed>0.01414213562373095</speed>
  <fix>3d</fix>
</trkpt>
<trkpt lat="40.072842" lon="-105.230575">
  <ele>1586.09</ele>
  <time>2026-08-28T19:08:06Z</time>
  <course>266.03</course>
  <speed>0.0</speed>
  <fix>3d</fix>
</trkpt>
<trkpt lat="40.0728419" lon="-105.2305749">
  <ele>1586.15</ele>
  <time>2026-08-28T19:08:06Z</time>
  <course>11.12</course>
  <speed>0.01414213562373095</speed>
  <fix>3d</fix>
</trkpt>
<trkpt lat="40.072842" lon="-105.230575">
  <ele>1586.09</ele>
  <time>2026-08-28T19:08:06Z</time>
  <course>266.03</course>
  <speed>0.0</speed>
  <fix>3d</fix>
</trkpt>
<trkpt lat="40.0728419" lon="-105.2305749">
  <ele>1586.16</ele>
  <time>2026-08-28T19:08:06Z</time>
  <course>11.11</course>
  <speed>0.01414213562373095</speed>
  <fix>3d</fix>
</trkpt>
<trkpt lat="40.072842" lon="-105.230575">
  <ele>1586.09</ele>
  <time>2026-08-28T19:08:06Z</time>
  <course>266.03</course>
  <speed>0.0</speed>
  <fix>3d</fix>
</trkpt>
<trkpt lat="40.0728419" lon="-105.2305749">
  <ele>1586.16</ele>
  <time>2026-08-28T19:08:06Z</time>
  <course>11.11</course>
  <speed>0.01414213562373095</speed>
  <fix>3d</fix>
</trkpt>
<trkpt lat="40.072842" lon="-105.230575">
  <ele>1586.09</ele>
  <time>2026-08-28T19:08:06Z</time>
  <course>266.03</course>
  <speed>0.0</speed>
  <fix>3d</fix>
</trkpt>
<trkpt lat="40.0728419" lon="-105.2305749">
  <ele>1586.16</ele>
  <time>2026-08-28T19:08:06Z</time>
  <course>11.11</course>
  <speed>0.01414213562373095</speed>
  <fix>3d</fix>
</trkpt>
<trkpt lat="40.072842" lon="-105.230575">
  <ele>1586.09</ele>
  <time>2026-08-28T19:08:06Z</time>
  <course>266.03</course>
  <speed>0.0</speed>
  <fix>3d</fix>
</trkpt>
<trkpt lat="40.0728419" lon="-105.2305749">
  <ele>1586.15</ele>
  <time>2026-08-28T19:08:06Z</time>
  <course>11.11</course>
  <speed>0.01414213562373095</speed>
  <fix>3d</fix>
</trkpt>
<trkpt lat="40.072842" lon="-105.230575">
  <ele>1586.09</ele>
  <time>2026-08-28T19:08:06Z</time>
  <course>266.03</course>
  <speed>0.0</speed>
  <fix>3d</fix>
</trkpt>
<trkpt lat="40.0728419" lon="-105.2305749">
  <ele>1586.15</ele>
  <time>2026-08-28T19:08:06Z</time>
  <course>11.1</course>
  <speed>0.01414213562373095</speed>
  <fix>3d</fix>
</trkpt>
<trkpt lat="40.072842" lon="-105.230575">
  <ele>1586.09</ele>
  <time>2026-08-28T19:08:06Z</time>
  <course>266.03</course>
  <speed>0.0</speed>
  <fix>3d</fix>
</trkpt>
<trkpt lat="40.0728419" lon="-105.2305749">
  <ele>1586.15</ele>
  <time>2026-08-28T19:08:06Z</time>
  <course>11.1</course>
  <speed>0.01414213562373095</speed>
  <fix>3d</fix>
</trkpt>
<trkpt lat="40.072842" lon="-105.230575">
  <ele>1586.09</ele>
  <time>2026-08-28T19:08:06Z</time>
  <course>266.03</course>
  <speed>0.0</speed>
  <fix>3d</fix>
</trkpt>
<trkpt lat="40.0728419" lon="-105.2305749">
  <ele>1586.15</ele>
  <time>2026-08-28T19:08:06Z</time>
  <course>11.1</course>
  <speed>0.01414213562373095</speed>
  <fix>3d</fix>
</trkpt>
<trkpt lat="40.072842" lon="-105.230575">
  <ele>1586.09</ele>
  <time>2026-08-28T19:08:06Z</time>
  <course>266.03</course>
  <speed>0.0</speed>
  <fix>3d</fix>
</trkpt>
<trkpt lat="40.0728419" lon="-105.2305749">
  <ele>1586.14</ele>
  <time>2026-08-28T19:08:07Z</time>
  <course>11.1</course>
  <speed>0.01414213562373095</speed>
  <fix>3d</fix>
</trkpt>
<trkpt lat="40.072842" lon="-105.230575">
  <ele>1586.09</ele>
  <time>2026-08-28T19:08:07Z</time>
  <course>266.03</course>
  <speed>0.0</speed>
  <fix>3d</fix>
</trkpt>
<trkpt lat="40.0728419" lon="-105.2305749">
  <ele>1586.14</ele>
  <time>2026-08-28T19:08:07Z</time>
  <course>11.09</course>
  <speed>0.01414213562373095</speed>
  <fix>3d</fix>
</trkpt>
<trkpt lat="40.072842" lon="-105.230575">
  <ele>1586.09</ele>
  <time>2026-08-28T19:08:07Z</time>
  <course>266.03</course>
  <speed>0.0</speed>
  <fix>3d</fix>
</trkpt>
<trkpt lat="40.0728419" lon="-105.2305749">
  <ele>1586.15</ele>
  <time>2026-08-28T19:08:07Z</time>
  <course>11.09</course>
  <speed>0.01414213562373095</speed>
  <fix>3d</fix>
</trkpt>
<trkpt lat="40.072842" lon="-105.230575">
  <ele>1586.09</ele>
  <time>2026-08-28T19:08:07Z</time>
  <course>266.03</course>
  <speed>0.0</speed>
  <fix>3d</fix>
</trkpt>
<trkpt lat="40.0728419" lon="-105.2305749">
  <ele>1586.15</ele>
  <time>2026-08-28T19:08:07Z</time>
  <course>11.09</course>
  <speed>0.01414213562373095</speed>
  <fix>3d</fix>
</trkpt>
<trkpt lat="40.072842" lon="-105.230575">
  <ele>1586.09</ele>
  <time>2026-08-28T19:08:07Z</time>
  <course>266.03</course>
  <speed>0.0</speed>
  <fix>3d</fix>
</trkpt>
<trkpt lat="40.0728419" lon="-105.2305749">
  <ele>1586.15</ele>
  <time>2026-08-28T19:08:07Z</time>
  <course>11.09</course>
  <speed>0.01414213562373095</speed>
  <fix>3d</fix>
</trkpt>
<trkpt lat="40.072842" lon="-105.230575">
  <ele>1586.09</ele>
  <time>2026-08-28T19:08:07Z</time>
  <course>266.03</course>
  <speed>0.0</speed>
  <fix>3d</fix>
</trkpt>
<trkpt lat="40.0728419" lon="-105.2305749">
  <ele>1586.16</ele>
  <time>2026-08-28T19:08:07Z</time>
  <course>11.08</course>
  <speed>0.01414213562373095</speed>
  <fix>3d</fix>
</trkpt>
<trkpt lat="40.072842" lon="-105.230575">
  <ele>1586.09</ele>
  <time>2026-08-28T19:08:07Z</time>
  <course>266.03</course>
  <speed>0.0</speed>
  <fix>3d</fix>
</trkpt>
<trkpt lat="40.0728419" lon="-105.2305749">
  <ele>1586.16</ele>
  <time>2026-08-28T19:08:07Z</time>
  <course>11.08</course>
  <speed>0.01414213562373095</speed>
  <fix>3d</fix>
</trkpt>
<trkpt lat="40.072842" lon="-105.230575">
  <ele>1586.09</ele>
  <time>2026-08-28T19:08:07Z</time>
  <course>266.03</course>
  <speed>0.0</speed>
  <fix>3d</fix>
</trkpt>
<trkpt lat="40.0728419" lon="-105.2305749">
  <ele>1586.16</ele>
  <time>2026-08-28T19:08:07Z</time>
  <course>11.08</course>
  <speed>0.01414213562373095</speed>
  <fix>3d</fix>
</trkpt>
<trkpt lat="40.072842" lon="-105.230575">
  <ele>1586.09</ele>
  <time>2026-08-28T19:08:07Z</time>
  <course>266.03</course>
  <speed>0.0</speed>
  <fix>3d</fix>
</trkpt>
<trkpt lat="40.0728419" lon="-105.2305749">
  <ele>1586.17</ele>
  <time>2026-08-28T19:08:07Z</time>
  <course>11.08</course>
  <speed>0.01414213562373095</speed>
  <fix>3d</fix>
</trkpt>
<trkpt lat="40.072842" lon="-105.230575">
  <ele>1586.09</ele>
  <time>2026-08-28T19:08:07Z</time>
  <course>266.03</course>
  <speed>0.0</speed>
  <fix>3d</fix>
</trkpt>
<trkpt lat="40.0728419" lon="-105.2305749">
  <ele>1586.18</ele>
  <time>2026-08-28T19:08:07Z</time>
  <course>11.08</course>
  <speed>0.01414213562373095</speed>
  <fix>3d</fix>
</trkpt>
<trkpt lat="40.072842" lon="-105.230575">
  <ele>1586.09</ele>
  <time>2026-08-28T19:08:07Z</time>
  <course>266.03</course>
  <speed>0.0</speed>
  <fix>3d</fix>
</trkpt>
<trkpt lat="40.0728419" lon="-105.2305749">
  <ele>1586.18</ele>
  <time>2026-08-28T19:08:07Z</time>
  <course>11.07</course>
  <speed>0.01414213562373095</speed>
  <fix>3d</fix>
</trkpt>
<trkpt lat="40.072842" lon="-105.230575">
  <ele>1586.09</ele>
  <time>2026-08-28T19:08:07Z</time>
  <course>266.03</course>
  <speed>0.0</speed>
  <fix>3d</fix>
</trkpt>
<trkpt lat="40.0728419" lon="-105.2305749">
  <ele>1586.18</ele>
  <time>2026-08-28T19:08:07Z</time>
  <course>11.07</course>
  <speed>0.01414213562373095</speed>
  <fix>3d</fix>
</trkpt>
<trkpt lat="40.072842" lon="-105.230575">
  <ele>1586.09</ele>
  <time>2026-08-28T19:08:07Z</time>
  <course>266.03</course>
  <speed>0.0</speed>
  <fix>3d</fix>
</trkpt>
<trkpt lat="40.0728419" lon="-105.2305749">
  <ele>1586.18</ele>
  <time>2026-08-28T19:08:07Z</time>
  <course>11.07</course>
  <speed>0.01414213562373095</speed>
  <fix>3d</fix>
</trkpt>
<trkpt lat="40.072842" lon="-105.230575">
  <ele>1586.09</ele>
  <time>2026-08-28T19:08:07Z</time>
  <course>266.03</course>
  <speed>0.0</speed>
  <fix>3d</fix>
</trkpt>
<trkpt lat="40.0728419" lon="-105.2305749">
  <ele>1586.18</ele>
  <time>2026-08-28T19:08:07Z</time>
  <course>11.07</course>
  <speed>0.01414213562373095</speed>
  <fix>3d</fix>
</trkpt>
<trkpt lat="40.072842" lon="-105.230575">
  <ele>1586.09</ele>
  <time>2026-08-28T19:08:07Z</time>
  <course>266.03</course>
  <speed>0.0</speed>
  <fix>3d</fix>
</trkpt>
<trkpt lat="40.0728419" lon="-105.2305749">
  <ele>1586.19</ele>
  <time>2026-08-28T19:08:07Z</time>
  <course>11.07</course>
  <speed>0.01414213562373095</speed>
  <fix>3d</fix>
</trkpt>
<trkpt lat="40.072842" lon="-105.230575">
  <ele>1586.09</ele>
  <time>2026-08-28T19:08:07Z</time>
  <course>266.03</course>
  <speed>0.0</speed>
  <fix>3d</fix>
</trkpt>
<trkpt lat="40.0728419" lon="-105.2305749">
  <ele>1586.19</ele>
  <time>2026-08-28T19:08:07Z</time>
  <course>11.06</course>
  <speed>0.01414213562373095</speed>
  <fix>3d</fix>
</trkpt>
<trkpt lat="40.072842" lon="-105.230575">
  <ele>1586.09</ele>
  <time>2026-08-28T19:08:07Z</time>
  <course>266.03</course>
  <speed>0.0</speed>
  <fix>3d</fix>
</trkpt>
<trkpt lat="40.0728419" lon="-105.2305749">
  <ele>1586.19</ele>
  <time>2026-08-28T19:08:07Z</time>
  <course>11.06</course>
  <speed>0.01414213562373095</speed>
  <fix>3d</fix>
</trkpt>
<trkpt lat="40.072842" lon="-105.230575">
  <ele>1586.09</ele>
  <time>2026-08-28T19:08:07Z</time>
  <course>266.03</course>
  <speed>0.0</speed>
  <fix>3d</fix>
</trkpt>
<trkpt lat="40.0728419" lon="-105.2305749">
  <ele>1586.18</ele>
  <time>2026-08-28T19:08:07Z</time>
  <course>11.06</course>
  <speed>0.01414213562373095</speed>
  <fix>3d</fix>
</trkpt>
<trkpt lat="40.072842" lon="-105.230575">
  <ele>1586.09</ele>
  <time>2026-08-28T19:08:07Z</time>
  <course>266.03</course>
  <speed>0.0</speed>
  <fix>3d</fix>
</trkpt>
<trkpt lat="40.0728419" lon="-105.2305749">
  <ele>1586.18</ele>
  <time>2026-08-28T19:08:07Z</time>
  <course>11.06</course>
  <speed>0.01414213562373095</speed>
  <fix>3d</fix>
</trkpt>
<trkpt lat="40.072842" lon="-105.230575">
  <ele>1586.09</ele>
  <time>2026-08-28T19:08:07Z</time>
  <course>266.03</course>
  <speed>0.0</speed>
  <fix>3d</fix>
</trkpt>
<trkpt lat="40.0728419" lon="-105.2305749">
  <ele>1586.18</ele>
  <time>2026-08-28T19:08:07Z</time>
  <course>11.06</course>
  <speed>0.01414213562373095</speed>
  <fix>3d</fix>
</trkpt>
<trkpt lat="40.072842" lon="-105.230575">
  <ele>1586.09</ele>
  <time>2026-08-28T19:08:07Z</time>
  <course>266.03</course>
  <speed>0.0</speed>
  <fix>3d</fix>
</trkpt>
<trkpt lat="40.0728419" lon="-105.2305749">
  <ele>1586.18</ele>
  <time>2026-08-28T19:08:07Z</time>
  <course>11.05</course>
  <speed>0.01414213562373095</speed>
  <fix>3d</fix>
</trkpt>
<trkpt lat="40.072842" lon="-105.230575">
  <ele>1586.09</ele>
  <time>2026-08-28T19:08:07Z</time>
  <course>266.03</course>
  <speed>0.0</speed>
  <fix>3d</fix>
</trkpt>
<trkpt lat="40.0728419" lon="-105.2305749">
  <ele>1586.18</ele>
  <time>2026-08-28T19:08:07Z</time>
  <course>11.05</course>
  <speed>0.01414213562373095</speed>
  <fix>3d</fix>
</trkpt>
<trkpt lat="40.072842" lon="-105.230575">
  <ele>1586.09</ele>
  <time>2026-08-28T19:08:07Z</time>
  <course>266.03</course>
  <speed>0.0</speed>
  <fix>3d</fix>
</trkpt>
<trkpt lat="40.0728419" lon="-105.2305749">
  <ele>1586.18</ele>
  <time>2026-08-28T19:08:07Z</time>
  <course>11.05</course>
  <speed>0.01414213562373095</speed>
  <fix>3d</fix>
</trkpt>
<trkpt lat="40.072842" lon="-105.230575">
  <ele>1586.09</ele>
  <time>2026-08-28T19:08:07Z</time>
  <course>266.03</course>
  <speed>0.0</speed>
  <fix>3d</fix>
</trkpt>
<trkpt lat="40.0728419" lon="-105.2305749">
  <ele>1586.18</ele>
  <time>2026-08-28T19:08:07Z</time>
  <course>11.05</course>
  <speed>0.01414213562373095</speed>
  <fix>3d</fix>
</trkpt>
<trkpt lat="40.072842" lon="-105.230575">
  <ele>1586.09</ele>
  <time>2026-08-28T19:08:07Z</time>
  <course>266.03</course>
  <speed>0.0</speed>
  <fix>3d</fix>
</trkpt>
<trkpt lat="40.0728419" lon="-105.2305749">
  <ele>1586.18</ele>
  <time>2026-08-28T19:08:07Z</time>
  <course>11.05</course>
  <speed>0.01414213562373095</speed>
  <fix>3d</fix>
</trkpt>
<trkpt lat="40.072842" lon="-105.230575">
  <ele>1586.09</ele>
  <time>2026-08-28T19:08:07Z</time>
  <course>266.03</course>
  <speed>0.0</speed>
  <fix>3d</fix>
</trkpt>
<trkpt lat="40.0728419" lon="-105.2305749">
  <ele>1586.18</ele>
  <time>2026-08-28T19:08:07Z</time>
  <course>11.04</course>
  <speed>0.01414213562373095</speed>
  <fix>3d</fix>
</trkpt>
<trkpt lat="40.072842" lon="-105.230575">
  <ele>1586.09</ele>
  <time>2026-08-28T19:08:07Z</time>
  <course>266.03</course>
  <speed>0.0</speed>
  <fix>3d</fix>
</trkpt>
<trkpt lat="40.0728419" lon="-105.2305749">
  <ele>1586.18</ele>
  <time>2026-08-28T19:08:07Z</time>
  <course>11.04</course>
  <speed>0.01414213562373095</speed>
  <fix>3d</fix>
</trkpt>
<trkpt lat="40.072842" lon="-105.230575">
  <ele>1586.09</ele>
  <time>2026-08-28T19:08:07Z</time>
  <course>266.03</course>
  <speed>0.0</speed>
  <fix>3d</fix>
</trkpt>
<trkpt lat="40.0728419" lon="-105.2305749">
  <ele>1586.18</ele>
  <time>2026-08-28T19:08:07Z</time>
  <course>11.04</course>
  <speed>0.01414213562373095</speed>
  <fix>3d</fix>
</trkpt>
<trkpt lat="40.072842" lon="-105.230575">
  <ele>1586.09</ele>
  <time>2026-08-28T19:08:07Z</time>
  <course>266.03</course>
  <speed>0.0</speed>
  <fix>3d</fix>
</trkpt>
<trkpt lat="40.0728419" lon="-105.2305749">
  <ele>1586.17</ele>
  <time>2026-08-28T19:08:07Z</time>
  <course>11.04</course>
  <speed>0.01414213562373095</speed>
  <fix>3d</fix>
</trkpt>
<trkpt lat="40.072842" lon="-105.230575">
  <ele>1586.09</ele>
  <time>2026-08-28T19:08:07Z</time>
  <course>266.03</course>
  <speed>0.0</speed>
  <fix>3d</fix>
</trkpt>
<trkpt lat="40.0728419" lon="-105.2305749">
  <ele>1586.16</ele>
  <time>2026-08-28T19:08:07Z</time>
  <course>11.04</course>
  <speed>0.01414213562373095</speed>
  <fix>3d</fix>
</trkpt>
<trkpt lat="40.072842" lon="-105.230575">
  <ele>1586.09</ele>
  <time>2026-08-28T19:08:07Z</time>
  <course>266.03</course>
  <speed>0.0</speed>
  <fix>3d</fix>
</trkpt>
<trkpt lat="40.0728419" lon="-105.2305749">
  <ele>1586.16</ele>
  <time>2026-08-28T19:08:07Z</time>
  <course>11.04</course>
  <speed>0.01414213562373095</speed>
  <fix>3d</fix>
</trkpt>
<trkpt lat="40.072842" lon="-105.230575">
  <ele>1586.09</ele>
  <time>2026-08-28T19:08:07Z</time>
  <course>266.03</course>
  <speed>0.0</speed>
  <fix>3d</fix>
</trkpt>
<trkpt lat="40.0728419" lon="-105.2305749">
  <ele>1586.15</ele>
  <time>2026-08-28T19:08:07Z</time>
  <course>11.03</course>
  <speed>0.01414213562373095</speed>
  <fix>3d</fix>
</trkpt>
<trkpt lat="40.072842" lon="-105.230575">
  <ele>1586.09</ele>
  <time>2026-08-28T19:08:07Z</time>
  <course>266.03</course>
  <speed>0.0</speed>
  <fix>3d</fix>
</trkpt>
<trkpt lat="40.0728419" lon="-105.2305749">
  <ele>1586.16</ele>
  <time>2026-08-28T19:08:07Z</time>
  <course>11.03</course>
  <speed>0.01414213562373095</speed>
  <fix>3d</fix>
</trkpt>
<trkpt lat="40.072842" lon="-105.230575">
  <ele>1586.09</ele>
  <time>2026-08-28T19:08:07Z</time>
  <course>266.03</course>
  <speed>0.0</speed>
  <fix>3d</fix>
</trkpt>
<trkpt lat="40.0728419" lon="-105.2305749">
  <ele>1586.16</ele>
  <time>2026-08-28T19:08:07Z</time>
  <course>11.03</course>
  <speed>0.01414213562373095</speed>
  <fix>3d</fix>
</trkpt>
<trkpt lat="40.072842" lon="-105.230575">
  <ele>1586.09</ele>
  <time>2026-08-28T19:08:07Z</time>
  <course>266.03</course>
  <speed>0.0</speed>
  <fix>3d</fix>
</trkpt>
<trkpt lat="40.0728419" lon="-105.2305749">
  <ele>1586.16</ele>
  <time>2026-08-28T19:08:07Z</time>
  <course>11.03</course>
  <speed>0.01414213562373095</speed>
  <fix>3d</fix>
</trkpt>
<trkpt lat="40.072842" lon="-105.230575">
  <ele>1586.09</ele>
  <time>2026-08-28T19:08:07Z</time>
  <course>266.03</course>
  <speed>0.0</speed>
  <fix>3d</fix>
</trkpt>
<trkpt lat="40.0728419" lon="-105.2305749">
  <ele>1586.17</ele>
  <time>2026-08-28T19:08:07Z</time>
  <course>11.03</course>
  <speed>0.01414213562373095</speed>
  <fix>3d</fix>
</trkpt>
<trkpt lat="40.072842" lon="-105.230575">
  <ele>1586.09</ele>
  <time>2026-08-28T19:08:07Z</time>
  <course>266.03</course>
  <speed>0.0</speed>
  <fix>3d</fix>
</trkpt>
<trkpt lat="40.0728419" lon="-105.2305749">
  <ele>1586.17</ele>
  <time>2026-08-28T19:08:07Z</time>
  <course>11.03</course>
  <speed>0.01414213562373095</speed>
  <fix>3d</fix>
</trkpt>
<trkpt lat="40.072842" lon="-105.230575">
  <ele>1586.09</ele>
  <time>2026-08-28T19:08:07Z</time>
  <course>266.03</course>
  <speed>0.0</speed>
  <fix>3d</fix>
</trkpt>
<trkpt lat="40.0728419" lon="-105.2305749">
  <ele>1586.17</ele>
  <time>2026-08-28T19:08:07Z</time>
  <course>11.03</course>
  <speed>0.01414213562373095</speed>
  <fix>3d</fix>
</trkpt>
<trkpt lat="40.072842" lon="-105.230575">
  <ele>1586.09</ele>
  <time>2026-08-28T19:08:07Z</time>
  <course>266.03</course>
  <speed>0.0</speed>
  <fix>3d</fix>
</trkpt>
<trkpt lat="40.0728419" lon="-105.2305749">
  <ele>1586.18</ele>
  <time>2026-08-28T19:08:07Z</time>
  <course>11.02</course>
  <speed>0.01414213562373095</speed>
  <fix>3d</fix>
</trkpt>
<trkpt lat="40.072842" lon="-105.230575">
  <ele>1586.09</ele>
  <time>2026-08-28T19:08:07Z</time>
  <course>266.03</course>
  <speed>0.0</speed>
  <fix>3d</fix>
</trkpt>
<trkpt lat="40.0728419" lon="-105.2305749">
  <ele>1586.19</ele>
  <time>2026-08-28T19:08:07Z</time>
  <course>11.02</course>
  <speed>0.01414213562373095</speed>
  <fix>3d</fix>
</trkpt>
<trkpt lat="40.072842" lon="-105.230575">
  <ele>1586.09</ele>
  <time>2026-08-28T19:08:07Z</time>
  <course>266.03</course>
  <speed>0.0</speed>
  <fix>3d</fix>
</trkpt>
<trkpt lat="40.0728419" lon="-105.2305749">
  <ele>1586.19</ele>
  <time>2026-08-28T19:08:07Z</time>
  <course>11.02</course>
  <speed>0.01414213562373095</speed>
  <fix>3d</fix>
</trkpt>
<trkpt lat="40.072842" lon="-105.230575">
  <ele>1586.09</ele>
  <time>2026-08-28T19:08:07Z</time>
  <course>266.03</course>
  <speed>0.0</speed>
  <fix>3d</fix>
</trkpt>
<trkpt lat="40.0728419" lon="-105.2305749">
  <ele>1586.2</ele>
  <time>2026-08-28T19:08:07Z</time>
  <course>11.02</course>
  <speed>0.01414213562373095</speed>
  <fix>3d</fix>
</trkpt>
<trkpt lat="40.072842" lon="-105.230575">
  <ele>1586.09</ele>
  <time>2026-08-28T19:08:07Z</time>
  <course>266.03</course>
  <speed>0.0</speed>
  <fix>3d</fix>
</trkpt>
<trkpt lat="40.0728419" lon="-105.2305749">
  <ele>1586.2</ele>
  <time>2026-08-28T19:08:07Z</time>
  <course>11.02</course>
  <speed>0.01414213562373095</speed>
  <fix>3d</fix>
</trkpt>
<trkpt lat="40.072842" lon="-105.230575">
  <ele>1586.09</ele>
  <time>2026-08-28T19:08:07Z</time>
  <course>266.03</course>
  <speed>0.0</speed>
  <fix>3d</fix>
</trkpt>
<trkpt lat="40.0728419" lon="-105.2305749">
  <ele>1586.2</ele>
  <time>2026-08-28T19:08:07Z</time>
  <course>11.02</course>
  <speed>0.01414213562373095</speed>
  <fix>3d</fix>
</trkpt>
<trkpt lat="40.072842" lon="-105.230575">
  <ele>1586.09</ele>
  <time>2026-08-28T19:08:07Z</time>
  <course>266.03</course>
  <speed>0.0</speed>
  <fix>3d</fix>
</trkpt>
<trkpt lat="40.0728419" lon="-105.2305749">
  <ele>1586.2</ele>
  <time>2026-08-28T19:08:07Z</time>
  <course>11.01</course>
  <speed>0.01414213562373095</speed>
  <fix>3d</fix>
</trkpt>
<trkpt lat="40.072842" lon="-105.230575">
  <ele>1586.09</ele>
  <time>2026-08-28T19:08:07Z</time>
  <course>266.03</course>
  <speed>0.0</speed>
  <fix>3d</fix>
</trkpt>
<trkpt lat="40.0728419" lon="-105.2305749">
  <ele>1586.21</ele>
  <time>2026-08-28T19:08:07Z</time>
  <course>11.01</course>
  <speed>0.01414213562373095</speed>
  <fix>3d</fix>
</trkpt>
<trkpt lat="40.072842" lon="-105.230575">
  <ele>1586.09</ele>
  <time>2026-08-28T19:08:07Z</time>
  <course>266.03</course>
  <speed>0.0</speed>
  <fix>3d</fix>
</trkpt>
<trkpt lat="40.0728419" lon="-105.2305749">
  <ele>1586.21</ele>
  <time>2026-08-28T19:08:07Z</time>
  <course>11.01</course>
  <speed>0.01414213562373095</speed>
  <fix>3d</fix>
</trkpt>
<trkpt lat="40.072842" lon="-105.230575">
  <ele>1586.09</ele>
  <time>2026-08-28T19:08:07Z</time>
  <course>266.03</course>
  <speed>0.0</speed>
  <fix>3d</fix>
</trkpt>
<trkpt lat="40.0728419" lon="-105.2305749">
  <ele>1586.21</ele>
  <time>2026-08-28T19:08:07Z</time>
  <course>11.01</course>
  <speed>0.01414213562373095</speed>
  <fix>3d</fix>
</trkpt>
<trkpt lat="40.072842" lon="-105.230575">
  <ele>1586.09</ele>
  <time>2026-08-28T19:08:07Z</time>
  <course>266.03</course>
  <speed>0.0</speed>
  <fix>3d</fix>
</trkpt>
<trkpt lat="40.0728419" lon="-105.2305749">
  <ele>1586.21</ele>
  <time>2026-08-28T19:08:07Z</time>
  <course>11.01</course>
  <speed>0.01414213562373095</speed>
  <fix>3d</fix>
</trkpt>
<trkpt lat="40.072842" lon="-105.230575">
  <ele>1586.09</ele>
  <time>2026-08-28T19:08:07Z</time>
  <course>266.03</course>
  <speed>0.0</speed>
  <fix>3d</fix>
</trkpt>
<trkpt lat="40.0728419" lon="-105.2305749">
  <ele>1586.21</ele>
  <time>2026-08-28T19:08:07Z</time>
  <course>11.01</course>
  <speed>0.01414213562373095</speed>
  <fix>3d</fix>
</trkpt>
<trkpt lat="40.072842" lon="-105.230575">
  <ele>1586.09</ele>
  <time>2026-08-28T19:08:07Z</time>
  <course>266.03</course>
  <speed>0.0</speed>
  <fix>3d</fix>
</trkpt>
<trkpt lat="40.0728419" lon="-105.2305749">
  <ele>1586.2</ele>
  <time>2026-08-28T19:08:07Z</time>
  <course>11.01</course>
  <speed>0.01414213562373095</speed>
  <fix>3d</fix>
</trkpt>
<trkpt lat="40.072842" lon="-105.230575">
  <ele>1586.09</ele>
  <time>2026-08-28T19:08:07Z</time>
  <course>266.03</course>
  <speed>0.0</speed>
  <fix>3d</fix>
</trkpt>
<trkpt lat="40.0728419" lon="-105.2305749">
  <ele>1586.2</ele>
  <time>2026-08-28T19:08:07Z</time>
  <course>11.0</course>
  <speed>0.01414213562373095</speed>
  <fix>3d</fix>
</trkpt>
<trkpt lat="40.072842" lon="-105.230575">
  <ele>1586.09</ele>
  <time>2026-08-28T19:08:07Z</time>
  <course>266.03</course>
  <speed>0.0</speed>
  <fix>3d</fix>
</trkpt>
<trkpt lat="40.0728419" lon="-105.2305749">
  <ele>1586.19</ele>
  <time>2026-08-28T19:08:07Z</time>
  <course>11.0</course>
  <speed>0.01414213562373095</speed>
  <fix>3d</fix>
</trkpt>
<trkpt lat="40.072842" lon="-105.230575">
  <ele>1586.09</ele>
  <time>2026-08-28T19:08:07Z</time>
  <course>266.03</course>
  <speed>0.0</speed>
  <fix>3d</fix>
</trkpt>
<trkpt lat="40.0728419" lon="-105.2305749">
  <ele>1586.19</ele>
  <time>2026-08-28T19:08:07Z</time>
  <course>11.0</course>
  <speed>0.01414213562373095</speed>
  <fix>3d</fix>
</trkpt>
<trkpt lat="40.072842" lon="-105.230575">
  <ele>1586.09</ele>
  <time>2026-08-28T19:08:07Z</time>
  <course>266.03</course>
  <speed>0.0</speed>
  <fix>3d</fix>
</trkpt>
<trkpt lat="40.0728419" lon="-105.2305749">
  <ele>1586.19</ele>
  <time>2026-08-28T19:08:07Z</time>
  <course>11.0</course>
  <speed>0.01414213562373095</speed>
  <fix>3d</fix>
</trkpt>
<trkpt lat="40.072842" lon="-105.230575">
  <ele>1586.09</ele>
  <time>2026-08-28T19:08:07Z</time>
  <course>266.03</course>
  <speed>0.0</speed>
  <fix>3d</fix>
</trkpt>
<trkpt lat="40.0728419" lon="-105.2305749">
  <ele>1586.19</ele>
  <time>2026-08-28T19:08:07Z</time>
  <course>11.0</course>
  <speed>0.01414213562373095</speed>
  <fix>3d</fix>
</trkpt>
<trkpt lat="40.072842" lon="-105.230575">
  <ele>1586.09</ele>
  <time>2026-08-28T19:08:07Z</time>
  <course>266.03</course>
  <speed>0.0</speed>
  <fix>3d</fix>
</trkpt>
<trkpt lat="40.0728419" lon="-105.2305749">
  <ele>1586.2</ele>
  <time>2026-08-28T19:08:07Z</time>
  <course>11.0</course>
  <speed>0.01414213562373095</speed>
  <fix>3d</fix>
</trkpt>
<trkpt lat="40.072842" lon="-105.230575">
  <ele>1586.09</ele>
  <time>2026-08-28T19:08:07Z</time>
  <course>266.03</course>
  <speed>0.0</speed>
  <fix>3d</fix>
</trkpt>
<trkpt lat="40.0728419" lon="-105.2305749">
  <ele>1586.2</ele>
  <time>2026-08-28T19:08:07Z</time>
  <course>11.0</course>
  <speed>0.01414213562373095</speed>
  <fix>3d</fix>
</trkpt>
<trkpt lat="40.072842" lon="-105.230575">
  <ele>1586.09</ele>
  <time>2026-08-28T19:08:07Z</time>
  <course>266.03</course>
  <speed>0.0</speed>
  <fix>3d</fix>
</trkpt>
<trkpt lat="40.0728419" lon="-105.2305749">
  <ele>1586.2</ele>
  <time>2026-08-28T19:08:07Z</time>
  <course>11.0</course>
  <speed>0.01414213562373095</speed>
  <fix>3d</fix>
</trkpt>
<trkpt lat="40.072842" lon="-105.230575">
  <ele>1586.09</ele>
  <time>2026-08-28T19:08:07Z</time>
  <course>266.03</course>
  <speed>0.0</speed>
  <fix>3d</fix>
</trkpt>
<trkpt lat="40.0728419" lon="-105.2305749">
  <ele>1586.2</ele>
  <time>2026-08-28T19:08:07Z</time>
  <course>11.0</course>
  <speed>0.01414213562373095</speed>
  <fix>3d</fix>
</trkpt>
<trkpt lat="40.072842" lon="-105.230575">
  <ele>1586.09</ele>
  <time>2026-08-28T19:08:07Z</time>
  <course>266.03</course>
  <speed>0.0</speed>
  <fix>3d</fix>
</trkpt>
<trkpt lat="40.0728419" lon="-105.2305749">
  <ele>1586.2</ele>
  <time>2026-08-28T19:08:07Z</time>
  <course>10.99</course>
  <speed>0.01414213562373095</speed>
  <fix>3d</fix>
</trkpt>
<trkpt lat="40.072842" lon="-105.230575">
  <ele>1586.09</ele>
  <time>2026-08-28T19:08:07Z</time>
  <course>266.03</course>
  <speed>0.0</speed>
  <fix>3d</fix>
</trkpt>
<trkpt lat="40.0728419" lon="-105.2305749">
  <ele>1586.2</ele>
  <time>2026-08-28T19:08:07Z</time>
  <course>10.99</course>
  <speed>0.01414213562373095</speed>
  <fix>3d</fix>
</trkpt>
<trkpt lat="40.072842" lon="-105.230575">
  <ele>1586.09</ele>
  <time>2026-08-28T19:08:07Z</time>
  <course>266.03</course>
  <speed>0.0</speed>
  <fix>3d</fix>
</trkpt>
<trkpt lat="40.0728419" lon="-105.2305749">
  <ele>1586.2</ele>
  <time>2026-08-28T19:08:07Z</time>
  <course>10.99</course>
  <speed>0.01414213562373095</speed>
  <fix>3d</fix>
</trkpt>
<trkpt lat="40.072842" lon="-105.230575">
  <ele>1586.09</ele>
  <time>2026-08-28T19:08:07Z</time>
  <course>266.03</course>
  <speed>0.0</speed>
  <fix>3d</fix>
</trkpt>
<trkpt lat="40.0728419" lon="-105.2305749">
  <ele>1586.19</ele>
  <time>2026-08-28T19:08:07Z</time>
  <course>10.99</course>
  <speed>0.01414213562373095</speed>
  <fix>3d</fix>
</trkpt>
<trkpt lat="40.072842" lon="-105.230575">
  <ele>1586.09</ele>
  <time>2026-08-28T19:08:07Z</time>
  <course>266.03</course>
  <speed>0.0</speed>
  <fix>3d</fix>
</trkpt>
<trkpt lat="40.0728419" lon="-105.2305749">
  <ele>1586.18</ele>
  <time>2026-08-28T19:08:07Z</time>
  <course>10.99</course>
  <speed>0.01414213562373095</speed>
  <fix>3d</fix>
</trkpt>
<trkpt lat="40.072842" lon="-105.230575">
  <ele>1586.09</ele>
  <time>2026-08-28T19:08:07Z</time>
  <course>266.03</course>
  <speed>0.0</speed>
  <fix>3d</fix>
</trkpt>
<trkpt lat="40.0728419" lon="-105.2305749">
  <ele>1586.18</ele>
  <time>2026-08-28T19:08:07Z</time>
  <course>10.99</course>
  <speed>0.01414213562373095</speed>
  <fix>3d</fix>
</trkpt>
<trkpt lat="40.072842" lon="-105.230575">
  <ele>1586.09</ele>
  <time>2026-08-28T19:08:07Z</time>
  <course>266.03</course>
  <speed>0.0</speed>
  <fix>3d</fix>
</trkpt>
<trkpt lat="40.0728419" lon="-105.2305749">
  <ele>1586.18</ele>
  <time>2026-08-28T19:08:07Z</time>
  <course>10.99</course>
  <speed>0.01414213562373095</speed>
  <fix>3d</fix>
</trkpt>
<trkpt lat="40.072842" lon="-105.230575">
  <ele>1586.09</ele>
  <time>2026-08-28T19:08:07Z</time>
  <course>266.03</course>
  <speed>0.0</speed>
  <fix>3d</fix>
</trkpt>
<trkpt lat="40.0728419" lon="-105.2305749">
  <ele>1586.18</ele>
  <time>2026-08-28T19:08:07Z</time>
  <course>10.99</course>
  <speed>0.01414213562373095</speed>
  <fix>3d</fix>
</trkpt>
<trkpt lat="40.072842" lon="-105.230575">
  <ele>1586.09</ele>
  <time>2026-08-28T19:08:07Z</time>
  <course>266.03</course>
  <speed>0.0</speed>
  <fix>3d</fix>
</trkpt>
<trkpt lat="40.0728419" lon="-105.2305749">
  <ele>1586.18</ele>
  <time>2026-08-28T19:08:07Z</time>
  <course>10.99</course>
  <speed>0.01414213562373095</speed>
  <fix>3d</fix>
</trkpt>
<trkpt lat="40.072842" lon="-105.230575">
  <ele>1586.09</ele>
  <time>2026-08-28T19:08:07Z</time>
  <course>266.03</course>
  <speed>0.0</speed>
  <fix>3d</fix>
</trkpt>
<trkpt lat="40.0728419" lon="-105.2305749">
  <ele>1586.18</ele>
  <time>2026-08-28T19:08:07Z</time>
  <course>10.99</course>
  <speed>0.01414213562373095</speed>
  <fix>3d</fix>
</trkpt>
<trkpt lat="40.072842" lon="-105.230575">
  <ele>1586.09</ele>
  <time>2026-08-28T19:08:07Z</time>
  <course>266.03</course>
  <speed>0.0</speed>
  <fix>3d</fix>
</trkpt>
<trkpt lat="40.0728419" lon="-105.2305749">
  <ele>1586.17</ele>
  <time>2026-08-28T19:08:07Z</time>
  <course>10.98</course>
  <speed>0.01414213562373095</speed>
  <fix>3d</fix>
</trkpt>
<trkpt lat="40.072842" lon="-105.230575">
  <ele>1586.09</ele>
  <time>2026-08-28T19:08:07Z</time>
  <course>266.03</course>
  <speed>0.0</speed>
  <fix>3d</fix>
</trkpt>
<trkpt lat="40.0728419" lon="-105.2305749">
  <ele>1586.17</ele>
  <time>2026-08-28T19:08:07Z</time>
  <course>10.98</course>
  <speed>0.01414213562373095</speed>
  <fix>3d</fix>
</trkpt>
<trkpt lat="40.072842" lon="-105.230575">
  <ele>1586.09</ele>
  <time>2026-08-28T19:08:07Z</time>
  <course>266.03</course>
  <speed>0.0</speed>
  <fix>3d</fix>
</trkpt>
<trkpt lat="39.654938" lon="-104.1331666">
  <ele>1569.54</ele>
  <time>2026-08-28T19:08:08Z</time>
  <course>168.11</course>
  <speed>0.0</speed>
  <fix>3d</fix>
</trkpt>
<trkpt lat="40.072842" lon="-105.230575">
  <ele>1586.09</ele>
  <time>2026-08-28T19:08:08Z</time>
  <course>2.03</course>
  <speed>0.0</speed>
  <fix>3d</fix>
</trkpt>
<trkpt lat="40.072842" lon="-105.230575">
  <ele>1586.09</ele>
  <time>2026-08-28T19:08:08Z</time>
  <course>238.4</course>
  <speed>0.0</speed>
  <fix>3d</fix>
</trkpt>
<trkpt lat="40.072842" lon="-105.230575">
  <ele>1586.09</ele>
  <time>2026-08-28T19:08:08Z</time>
  <course>2.39</course>
  <speed>0.0</speed>
  <fix>3d</fix>
</trkpt>
<trkpt lat="40.072842" lon="-105.230575">
  <ele>1586.09</ele>
  <time>2026-08-28T19:08:08Z</time>
  <course>194.29</course>
  <speed>0.0</speed>
  <fix>3d</fix>
</trkpt>
<trkpt lat="40.072842" lon="-105.230575">
  <ele>1586.09</ele>
  <time>2026-08-28T19:08:08Z</time>
  <course>3.12</course>
  <speed>0.0</speed>
  <fix>3d</fix>
</trkpt>
<trkpt lat="40.072842" lon="-105.230575">
  <ele>1586.09</ele>
  <time>2026-08-28T19:08:08Z</time>
  <course>193.66</course>
  <speed>0.0</speed>
  <fix>3d</fix>
</trkpt>
<trkpt lat="40.072842" lon="-105.230575">
  <ele>1586.09</ele>
  <time>2026-08-28T19:08:08Z</time>
  <course>3.81</course>
  <speed>0.0</speed>
  <fix>3d</fix>
</trkpt>
<trkpt lat="40.072842" lon="-105.230575">
  <ele>1586.09</ele>
  <time>2026-08-28T19:08:08Z</time>
  <course>303.54</course>
  <speed>0.0</speed>
  <fix>3d</fix>
</trkpt>
<trkpt lat="40.072842" lon="-105.230575">
  <ele>1586.09</ele>
  <time>2026-08-28T19:08:08Z</time>
  <course>4.44</course>
  <speed>0.0</speed>
  <fix>3d</fix>
</trkpt>
<trkpt lat="40.072842" lon="-105.230575">
  <ele>1586.09</ele>
  <time>2026-08-28T19:08:08Z</time>
  <course>110.94</course>
  <speed>0.0</speed>
  <fix>3d</fix>
</trkpt>
<trkpt lat="40.072842" lon="-105.230575">
  <ele>1586.09</ele>
  <time>2026-08-28T19:08:08Z</time>
  <course>5.03</course>
  <speed>0.0</speed>
  <fix>3d</fix>
</trkpt>
<trkpt lat="40.072842" lon="-105.230575">
  <ele>1586.09</ele>
  <time>2026-08-28T19:08:08Z</time>
  <course>191.21</course>
  <speed>0.0</speed>
  <fix>3d</fix>
</trkpt>
<trkpt lat="40.072842" lon="-105.230575">
  <ele>1586.09</ele>
  <time>2026-08-28T19:08:08Z</time>
  <course>5.59</course>
  <speed>0.0</speed>
  <fix>3d</fix>
</trkpt>
<trkpt lat="40.072842" lon="-105.230575">
  <ele>1586.09</ele>
  <time>2026-08-28T19:08:08Z</time>
  <course>252.23</course>
  <speed>0.0</speed>
  <fix>3d</fix>
</trkpt>
<trkpt lat="40.072842" lon="-105.230575">
  <ele>1586.09</ele>
  <time>2026-08-28T19:08:08Z</time>
  <course>6.12</course>
  <speed>0.0</speed>
  <fix>3d</fix>
</trkpt>
<trkpt lat="40.072842" lon="-105.230575">
  <ele>1586.09</ele>
  <time>2026-08-28T19:08:08Z</time>
  <course>170.36</course>
  <speed>0.0</speed>
  <fix>3d</fix>
</trkpt>
<trkpt lat="40.072842" lon="-105.230575">
  <ele>1586.09</ele>
  <time>2026-08-28T19:08:08Z</time>
  <course>6.62</course>
  <speed>0.0</speed>
  <fix>3d</fix>
</trkpt>
<trkpt lat="40.072842" lon="-105.230575">
  <ele>1586.09</ele>
  <time>2026-08-28T19:08:08Z</time>
  <course>179.36</course>
  <speed>0.0</speed>
  <fix>3d</fix>
</trkpt>
<trkpt lat="40.072842" lon="-105.230575">
  <ele>1586.09</ele>
  <time>2026-08-28T19:08:08Z</time>
  <course>7.08</course>
  <speed>0.0</speed>
  <fix>3d</fix>
</trkpt>
<trkpt lat="40.072842" lon="-105.230575">
  <ele>1586.09</ele>
  <time>2026-08-28T19:08:08Z</time>
  <course>19.98</course>
  <speed>0.0</speed>
  <fix>3d</fix>
</trkpt>
<trkpt lat="40.072842" lon="-105.230575">
  <ele>1586.09</ele>
  <time>2026-08-28T19:08:08Z</time>
  <course>7.51</course>
  <speed>0.0</speed>
  <fix>3d</fix>
</trkpt>
<trkpt lat="40.072842" lon="-105.230575">
  <ele>1586.09</ele>
  <time>2026-08-28T19:08:08Z</time>
  <course>17.49</course>
  <speed>0.0</speed>
  <fix>3d</fix>
</trkpt>
<trkpt lat="40.072842" lon="-105.230575">
  <ele>1586.09</ele>
  <time>2026-08-28T19:08:08Z</time>
  <course>7.9</course>
  <speed>0.0</speed>
  <fix>3d</fix>
</trkpt>
<trkpt lat="40.072842" lon="-105.230575">
  <ele>1586.09</ele>
  <time>2026-08-28T19:08:08Z</time>
  <course>356.19</course>
  <speed>0.0</speed>
  <fix>3d</fix>
</trkpt>
<trkpt lat="40.072842" lon="-105.230575">
  <ele>1586.09</ele>
  <time>2026-08-28T19:08:08Z</time>
  <course>8.27</course>
  <speed>0.0</speed>
  <fix>3d</fix>
</trkpt>
<trkpt lat="40.072842" lon="-105.230575">
  <ele>1586.09</ele>
  <time>2026-08-28T19:08:08Z</time>
  <course>77.32</course>
  <speed>0.0</speed>
  <fix>3d</fix>
</trkpt>
<trkpt lat="40.072842" lon="-105.230575">
  <ele>1586.09</ele>
  <time>2026-08-28T19:08:08Z</time>
  <course>8.61</course>
  <speed>0.0</speed>
  <fix>3d</fix>
</trkpt>
<trkpt lat="40.072842" lon="-105.230575">
  <ele>1586.09</ele>
  <time>2026-08-28T19:08:08Z</time>
  <course>290.54</course>
  <speed>0.0</speed>
  <fix>3d</fix>
</trkpt>
<trkpt lat="40.072842" lon="-105.230575">
  <ele>1586.09</ele>
  <time>2026-08-28T19:08:08Z</time>
  <course>8.92</course>
  <speed>0.0</speed>
  <fix>3d</fix>
</trkpt>
<trkpt lat="40.072842" lon="-105.230575">
  <ele>1586.09</ele>
  <time>2026-08-28T19:08:08Z</time>
  <course>338.69</course>
  <speed>0.0</speed>
  <fix>3d</fix>
</trkpt>
<trkpt lat="40.072842" lon="-105.230575">
  <ele>1586.09</ele>
  <time>2026-08-28T19:08:08Z</time>
  <course>9.21</course>
  <speed>0.0</speed>
  <fix>3d</fix>
</trkpt>
<trkpt lat="40.072842" lon="-105.230575">
  <ele>1586.09</ele>
  <time>2026-08-28T19:08:08Z</time>
  <course>326.81</course>
  <speed>0.0</speed>
  <fix>3d</fix>
</trkpt>
<trkpt lat="40.072842" lon="-105.230575">
  <ele>1586.09</ele>
  <time>2026-08-28T19:08:08Z</time>
  <course>9.47</course>
  <speed>0.0</speed>
  <fix>3d</fix>
</trkpt>
<trkpt lat="40.072842" lon="-105.230575">
  <ele>1586.09</ele>
  <time>2026-08-28T19:08:08Z</time>
  <course>262.23</course>
  <speed>0.0</speed>
  <fix>3d</fix>
</trkpt>
<trkpt lat="40.072842" lon="-105.230575">
  <ele>1586.09</ele>
  <time>2026-08-28T19:08:08Z</time>
  <course>9.72</course>
  <speed>0.0</speed>
  <fix>3d</fix>
</trkpt>
<trkpt lat="40.072842" lon="-105.230575">
  <ele>1586.09</ele>
  <time>2026-08-28T19:08:08Z</time>
  <course>159.08</course>
  <speed>0.0</speed>
  <fix>3d</fix>
</trkpt>
<trkpt lat="40.072842" lon="-105.230575">
  <ele>1586.09</ele>
  <time>2026-08-28T19:08:08Z</time>
  <course>9.94</course>
  <speed>0.0</speed>
  <fix>3d</fix>
</trkpt>
<trkpt lat="40.072842" lon="-105.230575">
  <ele>1586.09</ele>
  <time>2026-08-28T19:08:08Z</time>
  <course>287.98</course>
  <speed>0.0</speed>
  <fix>3d</fix>
</trkpt>
<trkpt lat="40.072842" lon="-105.230575">
  <ele>1586.09</ele>
  <time>2026-08-28T19:08:08Z</time>
  <course>10.15</course>
  <speed>0.0</speed>
  <fix>3d</fix>
</trkpt>
<trkpt lat="40.072842" lon="-105.230575">
  <ele>1586.09</ele>
  <time>2026-08-28T19:08:08Z</time>
  <course>278.3</course>
  <speed>0.0</speed>
  <fix>3d</fix>
</trkpt>
<trkpt lat="40.072842" lon="-105.230575">
  <ele>1586.09</ele>
  <time>2026-08-28T19:08:08Z</time>
  <course>10.34</course>
  <speed>0.0</speed>
  <fix>3d</fix>
</trkpt>
<trkpt lat="40.072842" lon="-105.230575">
  <ele>1586.09</ele>
  <time>2026-08-28T19:08:08Z</time>
  <course>261.72</course>
  <speed>0.0</speed>
  <fix>3d</fix>
</trkpt>
<trkpt lat="40.072842" lon="-105.230575">
  <ele>1586.09</ele>
  <time>2026-08-28T19:08:08Z</time>
  <course>10.51</course>
  <speed>0.0</speed>
  <fix>3d</fix>
</trkpt>
<trkpt lat="40.072842" lon="-105.230575">
  <ele>1586.09</ele>
  <time>2026-08-28T19:08:08Z</time>
  <course>264.4</course>
  <speed>0.0</speed>
  <fix>3d</fix>
</trkpt>
<trkpt lat="40.072842" lon="-105.230575">
  <ele>1586.09</ele>
  <time>2026-08-28T19:08:08Z</time>
  <course>10.67</course>
  <speed>0.0</speed>
  <fix>3d</fix>
</trkpt>
<trkpt lat="40.072842" lon="-105.230575">
  <ele>1586.09</ele>
  <time>2026-08-28T19:08:08Z</time>
  <course>266.8</course>
  <speed>0.0</speed>
  <fix>3d</fix>
</trkpt>
<trkpt lat="40.072842" lon="-105.230575">
  <ele>1586.09</ele>
  <time>2026-08-28T19:08:08Z</time>
  <course>10.81</course>
  <speed>0.0</speed>
  <fix>3d</fix>
</trkpt>
<trkpt lat="40.072842" lon="-105.230575">
  <ele>1586.09</ele>
  <time>2026-08-28T19:08:08Z</time>
  <course>266.15</course>
  <speed>0.0</speed>
  <fix>3d</fix>
</trkpt>
<trkpt lat="40.072842" lon="-105.230575">
  <ele>1586.09</ele>
  <time>2026-08-28T19:08:08Z</time>
  <course>10.94</course>
  <speed>0.0</speed>
  <fix>3d</fix>
</trkpt>
<trkpt lat="40.072842" lon="-105.230575">
  <ele>1586.09</ele>
  <time>2026-08-28T19:08:08Z</time>
  <course>265.92</course>
  <speed>0.0</speed>
  <fix>3d</fix>
</trkpt>
<trkpt lat="40.072842" lon="-105.230575">
  <ele>1586.09</ele>
  <time>2026-08-28T19:08:08Z</time>
  <course>11.06</course>
  <speed>0.0</speed>
  <fix>3d</fix>
</trkpt>
<trkpt lat="40.072842" lon="-105.230575">
  <ele>1586.09</ele>
  <time>2026-08-28T19:08:08Z</time>
  <course>266.03</course>
  <speed>0.0</speed>
  <fix>3d</fix>
</trkpt>
<trkpt lat="40.072842" lon="-105.230575">
  <ele>1586.09</ele>
  <time>2026-08-28T19:08:08Z</time>
  <course>11.18</course>
  <speed>0.0</speed>
  <fix>3d</fix>
</trkpt>
<trkpt lat="40.072842" lon="-105.230575">
  <ele>1586.09</ele>
  <time>2026-08-28T19:08:08Z</time>
  <course>266.05</course>
  <speed>0.0</speed>
  <fix>3d</fix>
</trkpt>
<trkpt lat="40.072842" lon="-105.230575">
  <ele>1586.09</ele>
  <time>2026-08-28T19:08:08Z</time>
  <course>11.28</course>
  <speed>0.0</speed>
  <fix>3d</fix>
</trkpt>
<trkpt lat="40.072842" lon="-105.230575">
  <ele>1586.09</ele>
  <time>2026-08-28T19:08:08Z</time>
  <course>266.03</course>
  <speed>0.0</speed>
  <fix>3d</fix>
</trkpt>
<trkpt lat="40.072842" lon="-105.230575">
  <ele>1586.09</ele>
  <time>2026-08-28T19:08:08Z</time>
  <course>11.37</course>
  <speed>0.0</speed>
  <fix>3d</fix>
</trkpt>
<trkpt lat="40.072842" lon="-105.230575">
  <ele>1586.09</ele>
  <time>2026-08-28T19:08:08Z</time>
  <course>266.03</course>
  <speed>0.0</speed>
  <fix>3d</fix>
</trkpt>
<trkpt lat="40.072842" lon="-105.230575">
  <ele>1586.09</ele>
  <time>2026-08-28T19:08:08Z</time>
  <course>11.45</course>
  <speed>0.0</speed>
  <fix>3d</fix>
</trkpt>
<trkpt lat="40.072842" lon="-105.230575">
  <ele>1586.09</ele>
  <time>2026-08-28T19:08:08Z</time>
  <course>266.03</course>
  <speed>0.0</speed>
  <fix>3d</fix>
</trkpt>
<trkpt lat="40.072842" lon="-105.230575">
  <ele>1586.09</ele>
  <time>2026-08-28T19:08:08Z</time>
  <course>11.52</course>
  <speed>0.0</speed>
  <fix>3d</fix>
</trkpt>
<trkpt lat="40.072842" lon="-105.230575">
  <ele>1586.09</ele>
  <time>2026-08-28T19:08:08Z</time>
  <course>266.03</course>
  <speed>0.0</speed>
  <fix>3d</fix>
</trkpt>
<trkpt lat="40.072842" lon="-105.230575">
  <ele>1586.09</ele>
  <time>2026-08-28T19:08:08Z</time>
  <course>11.59</course>
  <speed>0.0</speed>
  <fix>3d</fix>
</trkpt>
<trkpt lat="40.072842" lon="-105.230575">
  <ele>1586.09</ele>
  <time>2026-08-28T19:08:08Z</time>
  <course>266.03</course>
  <speed>0.0</speed>
  <fix>3d</fix>
</trkpt>
<trkpt lat="40.072842" lon="-105.230575">
  <ele>1586.09</ele>
  <time>2026-08-28T19:08:08Z</time>
  <course>11.65</course>
  <speed>0.0</speed>
  <fix>3d</fix>
</trkpt>
<trkpt lat="40.072842" lon="-105.230575">
  <ele>1586.09</ele>
  <time>2026-08-28T19:08:08Z</time>
  <course>266.03</course>
  <speed>0.0</speed>
  <fix>3d</fix>
</trkpt>
<trkpt lat="40.072842" lon="-105.230575">
  <ele>1586.09</ele>
  <time>2026-08-28T19:08:08Z</time>
  <course>11.71</course>
  <speed>0.0</speed>
  <fix>3d</fix>
</trkpt>
<trkpt lat="40.072842" lon="-105.230575">
  <ele>1586.09</ele>
  <time>2026-08-28T19:08:08Z</time>
  <course>266.03</course>
  <speed>0.0</speed>
  <fix>3d</fix>
</trkpt>
<trkpt lat="40.072842" lon="-105.230575">
  <ele>1586.09</ele>
  <time>2026-08-28T19:08:08Z</time>
  <course>11.76</course>
  <speed>0.0</speed>
  <fix>3d</fix>
</trkpt>
<trkpt lat="40.072842" lon="-105.230575">
  <ele>1586.09</ele>
  <time>2026-08-28T19:08:08Z</time>
  <course>266.03</course>
  <speed>0.0</speed>
  <fix>3d</fix>
</trkpt>
<trkpt lat="40.072842" lon="-105.230575">
  <ele>1586.09</ele>
  <time>2026-08-28T19:08:08Z</time>
  <course>11.81</course>
  <speed>0.0</speed>
  <fix>3d</fix>
</trkpt>
<trkpt lat="40.072842" lon="-105.230575">
  <ele>1586.09</ele>
  <time>2026-08-28T19:08:08Z</time>
  <course>266.03</course>
  <speed>0.0</speed>
  <fix>3d</fix>
</trkpt>
<trkpt lat="40.072842" lon="-105.230575">
  <ele>1586.09</ele>
  <time>2026-08-28T19:08:08Z</time>
  <course>11.85</course>
  <speed>0.0</speed>
  <fix>3d</fix>
</trkpt>
<trkpt lat="40.072842" lon="-105.230575">
  <ele>1586.09</ele>
  <time>2026-08-28T19:08:08Z</time>
  <course>266.03</course>
  <speed>0.0</speed>
  <fix>3d</fix>
</trkpt>
<trkpt lat="40.072842" lon="-105.230575">
  <ele>1586.09</ele>
  <time>2026-08-28T19:08:08Z</time>
  <course>11.88</course>
  <speed>0.0</speed>
  <fix>3d</fix>
</trkpt>
<trkpt lat="40.072842" lon="-105.230575">
  <ele>1586.09</ele>
  <time>2026-08-28T19:08:08Z</time>
  <course>266.03</course>
  <speed>0.0</speed>
  <fix>3d</fix>
</trkpt>
<trkpt lat="40.072842" lon="-105.230575">
  <ele>1586.09</ele>
  <time>2026-08-28T19:08:08Z</time>
  <course>11.92</course>
  <speed>0.0</speed>
  <fix>3d</fix>
</trkpt>
<trkpt lat="40.072842" lon="-105.230575">
  <ele>1586.09</ele>
  <time>2026-08-28T19:08:08Z</time>
  <course>266.03</course>
  <speed>0.0</speed>
  <fix>3d</fix>
</trkpt>
<trkpt lat="40.072842" lon="-105.230575">
  <ele>1586.09</ele>
  <time>2026-08-28T19:08:08Z</time>
  <course>11.95</course>
  <speed>0.0</speed>
  <fix>3d</fix>
</trkpt>
<trkpt lat="40.072842" lon="-105.230575">
  <ele>1586.09</ele>
  <time>2026-08-28T19:08:08Z</time>
  <course>266.03</course>
  <speed>0.0</speed>
  <fix>3d</fix>
</trkpt>
<trkpt lat="40.072842" lon="-105.230575">
  <ele>1586.09</ele>
  <time>2026-08-28T19:08:08Z</time>
  <course>11.97</course>
  <speed>0.0</speed>
  <fix>3d</fix>
</trkpt>
<trkpt lat="40.072842" lon="-105.230575">
  <ele>1586.09</ele>
  <time>2026-08-28T19:08:08Z</time>
  <course>266.03</course>
  <speed>0.0</speed>
  <fix>3d</fix>
</trkpt>
<trkpt lat="40.072842" lon="-105.230575">
  <ele>1586.09</ele>
  <time>2026-08-28T19:08:08Z</time>
  <course>12.0</course>
  <speed>0.0</speed>
  <fix>3d</fix>
</trkpt>
<trkpt lat="40.072842" lon="-105.230575">
  <ele>1586.09</ele>
  <time>2026-08-28T19:08:08Z</time>
  <course>266.03</course>
  <speed>0.0</speed>
  <fix>3d</fix>
</trkpt>
<trkpt lat="40.072842" lon="-105.230575">
  <ele>1586.09</ele>
  <time>2026-08-28T19:08:08Z</time>
  <course>12.02</course>
  <speed>0.0</speed>
  <fix>3d</fix>
</trkpt>
<trkpt lat="40.072842" lon="-105.230575">
  <ele>1586.09</ele>
  <time>2026-08-28T19:08:08Z</time>
  <course>266.03</course>
  <speed>0.0</speed>
  <fix>3d</fix>
</trkpt>
<trkpt lat="40.072842" lon="-105.230575">
  <ele>1586.09</ele>
  <time>2026-08-28T19:08:08Z</time>
  <course>12.04</course>
  <speed>0.0</speed>
  <fix>3d</fix>
</trkpt>
<trkpt lat="40.072842" lon="-105.230575">
  <ele>1586.09</ele>
  <time>2026-08-28T19:08:08Z</time>
  <course>266.03</course>
  <speed>0.0</speed>
  <fix>3d</fix>
</trkpt>
<trkpt lat="40.072842" lon="-105.230575">
  <ele>1586.09</ele>
  <time>2026-08-28T19:08:08Z</time>
  <course>12.05</course>
  <speed>0.0</speed>
  <fix>3d</fix>
</trkpt>
<trkpt lat="40.072842" lon="-105.230575">
  <ele>1586.09</ele>
  <time>2026-08-28T19:08:08Z</time>
  <course>266.03</course>
  <speed>0.0</speed>
  <fix>3d</fix>
</trkpt>
<trkpt lat="40.072842" lon="-105.230575">
  <ele>1586.09</ele>
  <time>2026-08-28T19:08:08Z</time>
  <course>12.07</course>
  <speed>0.0</speed>
  <fix>3d</fix>
</trkpt>
<trkpt lat="40.072842" lon="-105.230575">
  <ele>1586.09</ele>
  <time>2026-08-28T19:08:08Z</time>
  <course>266.03</course>
  <speed>0.0</speed>
  <fix>3d</fix>
</trkpt>
<trkpt lat="40.072842" lon="-105.230575">
  <ele>1586.09</ele>
  <time>2026-08-28T19:08:08Z</time>
  <course>12.08</course>
  <speed>0.0</speed>
  <fix>3d</fix>
</trkpt>
<trkpt lat="40.072842" lon="-105.230575">
  <ele>1586.09</ele>
  <time>2026-08-28T19:08:08Z</time>
  <course>266.03</course>
  <speed>0.0</speed>
  <fix>3d</fix>
</trkpt>
<trkpt lat="40.072842" lon="-105.230575">
  <ele>1586.09</ele>
  <time>2026-08-28T19:08:08Z</time>
  <course>12.09</course>
  <speed>0.0</speed>
  <fix>3d</fix>
</trkpt>
<trkpt lat="40.072842" lon="-105.230575">
  <ele>1586.09</ele>
  <time>2026-08-28T19:08:08Z</time>
  <course>266.03</course>
  <speed>0.0</speed>
  <fix>3d</fix>
</trkpt>
<trkpt lat="40.072842" lon="-105.230575">
  <ele>1586.09</ele>
  <time>2026-08-28T19:08:08Z</time>
  <course>12.09</course>
  <speed>0.0</speed>
  <fix>3d</fix>
</trkpt>
<trkpt lat="40.072842" lon="-105.230575">
  <ele>1586.09</ele>
  <time>2026-08-28T19:08:08Z</time>
  <course>266.03</course>
  <speed>0.0</speed>
  <fix>3d</fix>
</trkpt>
<trkpt lat="40.072842" lon="-105.230575">
  <ele>1586.09</ele>
  <time>2026-08-28T19:08:08Z</time>
  <course>12.1</course>
  <speed>0.0</speed>
  <fix>3d</fix>
</trkpt>
<trkpt lat="40.072842" lon="-105.230575">
  <ele>1586.09</ele>
  <time>2026-08-28T19:08:08Z</time>
  <course>266.03</course>
  <speed>0.0</speed>
  <fix>3d</fix>
</trkpt>
<trkpt lat="40.072842" lon="-105.230575">
  <ele>1586.09</ele>
  <time>2026-08-28T19:08:08Z</time>
  <course>12.11</course>
  <speed>0.0</speed>
  <fix>3d</fix>
</trkpt>
<trkpt lat="40.072842" lon="-105.230575">
  <ele>1586.09</ele>
  <time>2026-08-28T19:08:08Z</time>
  <course>266.03</course>
  <speed>0.0</speed>
  <fix>3d</fix>
</trkpt>
<trkpt lat="40.072842" lon="-105.230575">
  <ele>1586.09</ele>
  <time>2026-08-28T19:08:08Z</time>
  <course>12.12</course>
  <speed>0.0</speed>
  <fix>3d</fix>
</trkpt>
<trkpt lat="40.072842" lon="-105.230575">
  <ele>1586.09</ele>
  <time>2026-08-28T19:08:08Z</time>
  <course>266.03</course>
  <speed>0.0</speed>
  <fix>3d</fix>
</trkpt>
<trkpt lat="40.072842" lon="-105.230575">
  <ele>1586.09</ele>
  <time>2026-08-28T19:08:08Z</time>
  <course>12.12</course>
  <speed>0.0</speed>
  <fix>3d</fix>
</trkpt>
<trkpt lat="40.072842" lon="-105.230575">
  <ele>1586.09</ele>
  <time>2026-08-28T19:08:08Z</time>
  <course>266.03</course>
  <speed>0.0</speed>
  <fix>3d</fix>
</trkpt>
<trkpt lat="40.072842" lon="-105.230575">
  <ele>1586.09</ele>
  <time>2026-08-28T19:08:08Z</time>
  <course>12.12</course>
  <speed>0.0</speed>
  <fix>3d</fix>
</trkpt>
<trkpt lat="40.072842" lon="-105.230575">
  <ele>1586.09</ele>
  <time>2026-08-28T19:08:08Z</time>
  <course>266.03</course>
  <speed>0.0</speed>
  <fix>3d</fix>
</trkpt>
<trkpt lat="40.072842" lon="-105.230575">
  <ele>1586.09</ele>
  <time>2026-08-28T19:08:08Z</time>
  <course>12.13</course>
  <speed>0.0</speed>
  <fix>3d</fix>
</trkpt>
<trkpt lat="40.072842" lon="-105.230575">
  <ele>1586.09</ele>
  <time>2026-08-28T19:08:08Z</time>
  <course>266.03</course>
  <speed>0.0</speed>
  <fix>3d</fix>
</trkpt>
<trkpt lat="40.072842" lon="-105.230575">
  <ele>1586.09</ele>
  <time>2026-08-28T19:08:08Z</time>
  <course>12.13</course>
  <speed>0.0</speed>
  <fix>3d</fix>
</trkpt>
<trkpt lat="40.072842" lon="-105.230575">
  <ele>1586.09</ele>
  <time>2026-08-28T19:08:08Z</time>
  <course>266.03</course>
  <speed>0.0</speed>
  <fix>3d</fix>
</trkpt>
<trkpt lat="40.072842" lon="-105.230575">
  <ele>1586.09</ele>
  <time>2026-08-28T19:08:08Z</time>
  <course>12.13</course>
  <speed>0.0</speed>
  <fix>3d</fix>
</trkpt>
<trkpt lat="40.072842" lon="-105.230575">
  <ele>1586.09</ele>
  <time>2026-08-28T19:08:08Z</time>
  <course>266.03</course>
  <speed>0.0</speed>
  <fix>3d</fix>
</trkpt>
<trkpt lat="40.072842" lon="-105.230575">
  <ele>1586.09</ele>
  <time>2026-08-28T19:08:08Z</time>
  <course>12.12</course>
  <speed>0.01</speed>
  <fix>3d</fix>
</trkpt>
<trkpt lat="40.072842" lon="-105.230575">
  <ele>1586.09</ele>
  <time>2026-08-28T19:08:08Z</time>
  <course>266.03</course>
  <speed>0.0</speed>
  <fix>3d</fix>
</trkpt>
<trkpt lat="40.072842" lon="-105.230575">
  <ele>1586.09</ele>
  <time>2026-08-28T19:08:08Z</time>
  <course>12.12</course>
  <speed>0.01</speed>
  <fix>3d</fix>
</trkpt>
<trkpt lat="40.072842" lon="-105.230575">
  <ele>1586.09</ele>
  <time>2026-08-28T19:08:08Z</time>
  <course>266.03</course>
  <speed>0.0</speed>
  <fix>3d</fix>
</trkpt>
<trkpt lat="40.072842" lon="-105.230575">
  <ele>1586.09</ele>
  <time>2026-08-28T19:08:08Z</time>
  <course>12.12</course>
  <speed>0.01</speed>
  <fix>3d</fix>
</trkpt>
<trkpt lat="40.072842" lon="-105.230575">
  <ele>1586.09</ele>
  <time>2026-08-28T19:08:08Z</time>
  <course>266.03</course>
  <speed>0.0</speed>
  <fix>3d</fix>
</trkpt>
<trkpt lat="40.072842" lon="-105.230575">
  <ele>1586.09</ele>
  <time>2026-08-28T19:08:08Z</time>
  <course>12.12</course>
  <speed>0.01</speed>
  <fix>3d</fix>
</trkpt>
<trkpt lat="40.072842" lon="-105.230575">
  <ele>1586.09</ele>
  <time>2026-08-28T19:08:08Z</time>
  <course>266.03</course>
  <speed>0.0</speed>
  <fix>3d</fix>
</trkpt>
<trkpt lat="40.072842" lon="-105.230575">
  <ele>1586.09</ele>
  <time>2026-08-28T19:08:08Z</time>
  <course>12.11</course>
  <speed>0.01</speed>
  <fix>3d</fix>
</trkpt>
<trkpt lat="40.072842" lon="-105.230575">
  <ele>1586.09</ele>
  <time>2026-08-28T19:08:08Z</time>
  <course>266.03</course>
  <speed>0.0</speed>
  <fix>3d</fix>
</trkpt>
<trkpt lat="40.072842" lon="-105.230575">
  <ele>1586.09</ele>
  <time>2026-08-28T19:08:08Z</time>
  <course>12.11</course>
  <speed>0.01</speed>
  <fix>3d</fix>
</trkpt>
<trkpt lat="40.072842" lon="-105.230575">
  <ele>1586.09</ele>
  <time>2026-08-28T19:08:08Z</time>
  <course>266.03</course>
  <speed>0.0</speed>
  <fix>3d</fix>
</trkpt>
<trkpt lat="40.072842" lon="-105.230575">
  <ele>1586.09</ele>
  <time>2026-08-28T19:08:08Z</time>
  <course>12.1</course>
  <speed>0.01</speed>
  <fix>3d</fix>
</trkpt>
<trkpt lat="40.072842" lon="-105.230575">
  <ele>1586.09</ele>
  <time>2026-08-28T19:08:08Z</time>
  <course>266.03</course>
  <speed>0.0</speed>
  <fix>3d</fix>
</trkpt>
<trkpt lat="40.072842" lon="-105.230575">
  <ele>1586.09</ele>
  <time>2026-08-28T19:08:08Z</time>
  <course>12.1</course>
  <speed>0.01</speed>
  <fix>3d</fix>
</trkpt>
<trkpt lat="40.072842" lon="-105.230575">
  <ele>1586.09</ele>
  <time>2026-08-28T19:08:08Z</time>
  <course>266.03</course>
  <speed>0.0</speed>
  <fix>3d</fix>
</trkpt>
<trkpt lat="40.072842" lon="-105.230575">
  <ele>1586.09</ele>
  <time>2026-08-28T19:08:08Z</time>
  <course>12.09</course>
  <speed>0.01</speed>
  <fix>3d</fix>
</trkpt>
<trkpt lat="40.072842" lon="-105.230575">
  <ele>1586.09</ele>
  <time>2026-08-28T19:08:08Z</time>
  <course>266.03</course>
  <speed>0.0</speed>
  <fix>3d</fix>
</trkpt>
<trkpt lat="40.072842" lon="-105.230575">
  <ele>1586.09</ele>
  <time>2026-08-28T19:08:08Z</time>
  <course>12.09</course>
  <speed>0.01</speed>
  <fix>3d</fix>
</trkpt>
<trkpt lat="40.072842" lon="-105.230575">
  <ele>1586.09</ele>
  <time>2026-08-28T19:08:08Z</time>
  <course>266.03</course>
  <speed>0.0</speed>
  <fix>3d</fix>
</trkpt>
<trkpt lat="40.072842" lon="-105.230575">
  <ele>1586.09</ele>
  <time>2026-08-28T19:08:08Z</time>
  <course>12.08</course>
  <speed>0.01</speed>
  <fix>3d</fix>
</trkpt>
<trkpt lat="40.072842" lon="-105.230575">
  <ele>1586.09</ele>
  <time>2026-08-28T19:08:08Z</time>
  <course>266.03</course>
  <speed>0.0</speed>
  <fix>3d</fix>
</trkpt>
<trkpt lat="40.072842" lon="-105.230575">
  <ele>1586.09</ele>
  <time>2026-08-28T19:08:08Z</time>
  <course>12.08</course>
  <speed>0.01414213562373095</speed>
  <fix>3d</fix>
</trkpt>
<trkpt lat="40.072842" lon="-105.230575">
  <ele>1586.09</ele>
  <time>2026-08-28T19:08:08Z</time>
  <course>266.03</course>
  <speed>0.0</speed>
  <fix>3d</fix>
</trkpt>
<trkpt lat="40.072842" lon="-105.230575">
  <ele>1586.09</ele>
  <time>2026-08-28T19:08:08Z</time>
  <course>12.07</course>
  <speed>0.01414213562373095</speed>
  <fix>3d</fix>
</trkpt>
<trkpt lat="40.072842" lon="-105.230575">
  <ele>1586.09</ele>
  <time>2026-08-28T19:08:08Z</time>
  <course>266.03</course>
  <speed>0.0</speed>
  <fix>3d</fix>
</trkpt>
<trkpt lat="40.072842" lon="-105.230575">
  <ele>1586.09</ele>
  <time>2026-08-28T19:08:08Z</time>
  <course>12.06</course>
  <speed>0.01414213562373095</speed>
  <fix>3d</fix>
</trkpt>
<trkpt lat="40.072842" lon="-105.230575">
  <ele>1586.09</ele>
  <time>2026-08-28T19:08:08Z</time>
  <course>266.03</course>
  <speed>0.0</speed>
  <fix>3d</fix>
</trkpt>
<trkpt lat="40.072842" lon="-105.230575">
  <ele>1586.09</ele>
  <time>2026-08-28T19:08:08Z</time>
  <course>12.05</course>
  <speed>0.01414213562373095</speed>
  <fix>3d</fix>
</trkpt>
<trkpt lat="40.072842" lon="-105.230575">
  <ele>1586.09</ele>
  <time>2026-08-28T19:08:08Z</time>
  <course>266.03</course>
  <speed>0.0</speed>
  <fix>3d</fix>
</trkpt>
<trkpt lat="40.072842" lon="-105.230575">
  <ele>1586.09</ele>
  <time>2026-08-28T19:08:08Z</time>
  <course>12.05</course>
  <speed>0.01414213562373095</speed>
  <fix>3d</fix>
</trkpt>
<trkpt lat="40.072842" lon="-105.230575">
  <ele>1586.09</ele>
  <time>2026-08-28T19:08:08Z</time>
  <course>266.03</course>
  <speed>0.0</speed>
  <fix>3d</fix>
</trkpt>
<trkpt lat="40.072842" lon="-105.230575">
  <ele>1586.09</ele>
  <time>2026-08-28T19:08:08Z</time>
  <course>12.04</course>
  <speed>0.01414213562373095</speed>
  <fix>3d</fix>
</trkpt>
<trkpt lat="40.072842" lon="-105.230575">
  <ele>1586.09</ele>
  <time>2026-08-28T19:08:08Z</time>
  <course>266.03</course>
  <speed>0.0</speed>
  <fix>3d</fix>
</trkpt>
<trkpt lat="40.072842" lon="-105.230575">
  <ele>1586.09</ele>
  <time>2026-08-28T19:08:08Z</time>
  <course>12.03</course>
  <speed>0.01414213562373095</speed>
  <fix>3d</fix>
</trkpt>
<trkpt lat="40.072842" lon="-105.230575">
  <ele>1586.09</ele>
  <time>2026-08-28T19:08:08Z</time>
  <course>266.03</course>
  <speed>0.0</speed>
  <fix>3d</fix>
</trkpt>
<trkpt lat="40.072842" lon="-105.230575">
  <ele>1586.09</ele>
  <time>2026-08-28T19:08:08Z</time>
  <course>12.03</course>
  <speed>0.01414213562373095</speed>
  <fix>3d</fix>
</trkpt>
<trkpt lat="40.072842" lon="-105.230575">
  <ele>1586.09</ele>
  <time>2026-08-28T19:08:08Z</time>
  <course>266.03</course>
  <speed>0.0</speed>
  <fix>3d</fix>
</trkpt>
<trkpt lat="40.072842" lon="-105.230575">
  <ele>1586.09</ele>
  <time>2026-08-28T19:08:08Z</time>
  <course>12.02</course>
  <speed>0.01414213562373095</speed>
  <fix>3d</fix>
</trkpt>
<trkpt lat="40.072842" lon="-105.230575">
  <ele>1586.09</ele>
  <time>2026-08-28T19:08:08Z</time>
  <course>266.03</course>
  <speed>0.0</speed>
  <fix>3d</fix>
</trkpt>
<trkpt lat="40.072842" lon="-105.230575">
  <ele>1586.09</ele>
  <time>2026-08-28T19:08:08Z</time>
  <course>12.01</course>
  <speed>0.01414213562373095</speed>
  <fix>3d</fix>
</trkpt>
<trkpt lat="40.072842" lon="-105.230575">
  <ele>1586.09</ele>
  <time>2026-08-28T19:08:08Z</time>
  <course>266.03</course>
  <speed>0.0</speed>
  <fix>3d</fix>
</trkpt>
<trkpt lat="40.072842" lon="-105.230575">
  <ele>1586.09</ele>
  <time>2026-08-28T19:08:08Z</time>
  <course>12.01</course>
  <speed>0.01414213562373095</speed>
  <fix>3d</fix>
</trkpt>
<trkpt lat="40.072842" lon="-105.230575">
  <ele>1586.09</ele>
  <time>2026-08-28T19:08:08Z</time>
  <course>266.03</course>
  <speed>0.0</speed>
  <fix>3d</fix>
</trkpt>
<trkpt lat="40.072842" lon="-105.230575">
  <ele>1586.09</ele>
  <time>2026-08-28T19:08:08Z</time>
  <course>12.0</course>
  <speed>0.01414213562373095</speed>
  <fix>3d</fix>
</trkpt>
<trkpt lat="40.072842" lon="-105.230575">
  <ele>1586.09</ele>
  <time>2026-08-28T19:08:08Z</time>
  <course>266.03</course>
  <speed>0.0</speed>
  <fix>3d</fix>
</trkpt>
<trkpt lat="40.072842" lon="-105.230575">
  <ele>1586.09</ele>
  <time>2026-08-28T19:08:08Z</time>
  <course>11.99</course>
  <speed>0.01414213562373095</speed>
  <fix>3d</fix>
</trkpt>
<trkpt lat="40.072842" lon="-105.230575">
  <ele>1586.09</ele>
  <time>2026-08-28T19:08:08Z</time>
  <course>266.03</course>
  <speed>0.0</speed>
  <fix>3d</fix>
</trkpt>
<trkpt lat="40.072842" lon="-105.230575">
  <ele>1586.09</ele>
  <time>2026-08-28T19:08:08Z</time>
  <course>11.98</course>
  <speed>0.01414213562373095</speed>
  <fix>3d</fix>
</trkpt>
<trkpt lat="40.072842" lon="-105.230575">
  <ele>1586.09</ele>
  <time>2026-08-28T19:08:08Z</time>
  <course>266.03</course>
  <speed>0.0</speed>
  <fix>3d</fix>
</trkpt>
<trkpt lat="40.072842" lon="-105.230575">
  <ele>1586.09</ele>
  <time>2026-08-28T19:08:08Z</time>
  <course>11.98</course>
  <speed>0.01414213562373095</speed>
  <fix>3d</fix>
</trkpt>
<trkpt lat="40.072842" lon="-105.230575">
  <ele>1586.09</ele>
  <time>2026-08-28T19:08:08Z</time>
  <course>266.03</course>
  <speed>0.0</speed>
  <fix>3d</fix>
</trkpt>
<trkpt lat="40.072842" lon="-105.230575">
  <ele>1586.09</ele>
  <time>2026-08-28T19:08:08Z</time>
  <course>11.97</course>
  <speed>0.022360679774997897</speed>
  <fix>3d</fix>
</trkpt>
<trkpt lat="40.072842" lon="-105.230575">
  <ele>1586.09</ele>
  <time>2026-08-28T19:08:08Z</time>
  <course>266.03</course>
  <speed>0.0</speed>
  <fix>3d</fix>
</trkpt>
<trkpt lat="40.072842" lon="-105.230575">
  <ele>1586.09</ele>
  <time>2026-08-28T19:08:08Z</time>
  <course>11.96</course>
  <speed>0.022360679774997897</speed>
  <fix>3d</fix>
</trkpt>
<trkpt lat="40.072842" lon="-105.230575">
  <ele>1586.09</ele>
  <time>2026-08-28T19:08:08Z</time>
  <course>266.03</course>
  <speed>0.0</speed>
  <fix>3d</fix>
</trkpt>
<trkpt lat="40.072842" lon="-105.230575">
  <ele>1586.09</ele>
  <time>2026-08-28T19:08:08Z</time>
  <course>11.95</course>
  <speed>0.022360679774997897</speed>
  <fix>3d</fix>
</trkpt>
<trkpt lat="40.072842" lon="-105.230575">
  <ele>1586.09</ele>
  <time>2026-08-28T19:08:08Z</time>
  <course>266.03</course>
  <speed>0.0</speed>
  <fix>3d</fix>
</trkpt>
<trkpt lat="40.072842" lon="-105.230575">
  <ele>1586.09</ele>
  <time>2026-08-28T19:08:08Z</time>
  <course>11.94</course>
  <speed>0.022360679774997897</speed>
  <fix>3d</fix>
</trkpt>
<trkpt lat="40.072842" lon="-105.230575">
  <ele>1586.09</ele>
  <time>2026-08-28T19:08:08Z</time>
  <course>266.03</course>
  <speed>0.0</speed>
  <fix>3d</fix>
</trkpt>
<trkpt lat="40.072842" lon="-105.230575">
  <ele>1586.09</ele>
  <time>2026-08-28T19:08:08Z</time>
  <course>11.93</course>
  <speed>0.022360679774997897</speed>
  <fix>3d</fix>
</trkpt>
<trkpt lat="40.072842" lon="-105.230575">
  <ele>1586.09</ele>
  <time>2026-08-28T19:08:08Z</time>
  <course>266.03</course>
  <speed>0.0</speed>
  <fix>3d</fix>
</trkpt>
<trkpt lat="40.072842" lon="-105.230575">
  <ele>1586.09</ele>
  <time>2026-08-28T19:08:08Z</time>
  <course>11.92</course>
  <speed>0.022360679774997897</speed>
  <fix>3d</fix>
</trkpt>
<trkpt lat="40.072842" lon="-105.230575">
  <ele>1586.09</ele>
  <time>2026-08-28T19:08:08Z</time>
  <course>266.03</course>
  <speed>0.0</speed>
  <fix>3d</fix>
</trkpt>
<trkpt lat="40.072842" lon="-105.230575">
  <ele>1586.09</ele>
  <time>2026-08-28T19:08:08Z</time>
  <course>11.92</course>
  <speed>0.022360679774997897</speed>
  <fix>3d</fix>
</trkpt>
<trkpt lat="40.072842" lon="-105.230575">
  <ele>1586.09</ele>
  <time>2026-08-28T19:08:08Z</time>
  <course>266.03</course>
  <speed>0.0</speed>
  <fix>3d</fix>
</trkpt>
<trkpt lat="40.072842" lon="-105.230575">
  <ele>1586.09</ele>
  <time>2026-08-28T19:08:08Z</time>
  <course>11.91</course>
  <speed>0.022360679774997897</speed>
  <fix>3d</fix>
</trkpt>
<trkpt lat="40.072842" lon="-105.230575">
  <ele>1586.09</ele>
  <time>2026-08-28T19:08:08Z</time>
  <course>266.03</course>
  <speed>0.0</speed>
  <fix>3d</fix>
</trkpt>
<trkpt lat="40.072842" lon="-105.230575">
  <ele>1586.09</ele>
  <time>2026-08-28T19:08:08Z</time>
  <course>11.9</course>
  <speed>0.022360679774997897</speed>
  <fix>3d</fix>
</trkpt>
<trkpt lat="40.072842" lon="-105.230575">
  <ele>1586.09</ele>
  <time>2026-08-28T19:08:08Z</time>
  <course>266.03</course>
  <speed>0.0</speed>
  <fix>3d</fix>
</trkpt>
<trkpt lat="40.072842" lon="-105.230575">
  <ele>1586.09</ele>
  <time>2026-08-28T19:08:08Z</time>
  <course>11.89</course>
  <speed>0.022360679774997897</speed>
  <fix>3d</fix>
</trkpt>
<trkpt lat="40.072842" lon="-105.230575">
  <ele>1586.09</ele>
  <time>2026-08-28T19:08:08Z</time>
  <course>266.03</course>
  <speed>0.0</speed>
  <fix>3d</fix>
</trkpt>
<trkpt lat="40.072842" lon="-105.230575">
  <ele>1586.09</ele>
  <time>2026-08-28T19:08:08Z</time>
  <course>11.88</course>
  <speed>0.022360679774997897</speed>
  <fix>3d</fix>
</trkpt>
<trkpt lat="40.072842" lon="-105.230575">
  <ele>1586.09</ele>
  <time>2026-08-28T19:08:08Z</time>
  <course>266.03</course>
  <speed>0.0</speed>
  <fix>3d</fix>
</trkpt>
<trkpt lat="40.072842" lon="-105.230575">
  <ele>1586.09</ele>
  <time>2026-08-28T19:08:08Z</time>
  <course>11.88</course>
  <speed>0.022360679774997897</speed>
  <fix>3d</fix>
</trkpt>
<trkpt lat="40.072842" lon="-105.230575">
  <ele>1586.09</ele>
  <time>2026-08-28T19:08:08Z</time>
  <course>266.03</course>
  <speed>0.0</speed>
  <fix>3d</fix>
</trkpt>
<trkpt lat="40.072842" lon="-105.230575">
  <ele>1586.09</ele>
  <time>2026-08-28T19:08:08Z</time>
  <course>11.87</course>
  <speed>0.022360679774997897</speed>
  <fix>3d</fix>
</trkpt>
<trkpt lat="40.072842" lon="-105.230575">
  <ele>1586.09</ele>
  <time>2026-08-28T19:08:08Z</time>
  <course>266.03</course>
  <speed>0.0</speed>
  <fix>3d</fix>
</trkpt>
<trkpt lat="40.072842" lon="-105.230575">
  <ele>1586.09</ele>
  <time>2026-08-28T19:08:08Z</time>
  <course>11.86</course>
  <speed>0.022360679774997897</speed>
  <fix>3d</fix>
</trkpt>
<trkpt lat="40.072842" lon="-105.230575">
  <ele>1586.09</ele>
  <time>2026-08-28T19:08:08Z</time>
  <course>266.03</course>
  <speed>0.0</speed>
  <fix>3d</fix>
</trkpt>
<trkpt lat="40.072842" lon="-105.230575">
  <ele>1586.09</ele>
  <time>2026-08-28T19:08:08Z</time>
  <course>11.85</course>
  <speed>0.022360679774997897</speed>
  <fix>3d</fix>
</trkpt>
<trkpt lat="40.072842" lon="-105.230575">
  <ele>1586.09</ele>
  <time>2026-08-28T19:08:08Z</time>
  <course>266.03</course>
  <speed>0.0</speed>
  <fix>3d</fix>
</trkpt>
<trkpt lat="40.072842" lon="-105.230575">
  <ele>1586.09</ele>
  <time>2026-08-28T19:08:08Z</time>
  <course>11.84</course>
  <speed>0.0282842712474619</speed>
  <fix>3d</fix>
</trkpt>
<trkpt lat="40.072842" lon="-105.230575">
  <ele>1586.09</ele>
  <time>2026-08-28T19:08:08Z</time>
  <course>266.03</course>
  <speed>0.0</speed>
  <fix>3d</fix>
</trkpt>
<trkpt lat="40.072842" lon="-105.230575">
  <ele>1586.09</ele>
  <time>2026-08-28T19:08:08Z</time>
  <course>11.83</course>
  <speed>0.0282842712474619</speed>
  <fix>3d</fix>
</trkpt>
<trkpt lat="40.072842" lon="-105.230575">
  <ele>1586.09</ele>
  <time>2026-08-28T19:08:08Z</time>
  <course>266.03</course>
  <speed>0.0</speed>
  <fix>3d</fix>
</trkpt>
<trkpt lat="40.072842" lon="-105.230575">
  <ele>1586.09</ele>
  <time>2026-08-28T19:08:08Z</time>
  <course>11.83</course>
  <speed>0.0282842712474619</speed>
  <fix>3d</fix>
</trkpt>
<trkpt lat="40.072842" lon="-105.230575">
  <ele>1586.09</ele>
  <time>2026-08-28T19:08:08Z</time>
  <course>266.03</course>
  <speed>0.0</speed>
  <fix>3d</fix>
</trkpt>
<trkpt lat="40.072842" lon="-105.230575">
  <ele>1586.09</ele>
  <time>2026-08-28T19:08:08Z</time>
  <course>11.82</course>
  <speed>0.0282842712474619</speed>
  <fix>3d</fix>
</trkpt>
<trkpt lat="40.072842" lon="-105.230575">
  <ele>1586.09</ele>
  <time>2026-08-28T19:08:08Z</time>
  <course>266.03</course>
  <speed>0.0</speed>
  <fix>3d</fix>
</trkpt>
<trkpt lat="40.072842" lon="-105.230575">
  <ele>1586.09</ele>
  <time>2026-08-28T19:08:08Z</time>
  <course>11.81</course>
  <speed>0.0282842712474619</speed>
  <fix>3d</fix>
</trkpt>
<trkpt lat="40.072842" lon="-105.230575">
  <ele>1586.09</ele>
  <time>2026-08-28T19:08:08Z</time>
  <course>266.03</course>
  <speed>0.0</speed>
  <fix>3d</fix>
</trkpt>
<trkpt lat="40.072842" lon="-105.230575">
  <ele>1586.09</ele>
  <time>2026-08-28T19:08:08Z</time>
  <course>11.8</course>
  <speed>0.0282842712474619</speed>
  <fix>3d</fix>
</trkpt>
<trkpt lat="40.072842" lon="-105.230575">
  <ele>1586.09</ele>
  <time>2026-08-28T19:08:08Z</time>
  <course>266.03</course>
  <speed>0.0</speed>
  <fix>3d</fix>
</trkpt>
<trkpt lat="40.072842" lon="-105.230575">
  <ele>1586.09</ele>
  <time>2026-08-28T19:08:08Z</time>
  <course>11.79</course>
  <speed>0.0282842712474619</speed>
  <fix>3d</fix>
</trkpt>
<trkpt lat="40.072842" lon="-105.230575">
  <ele>1586.09</ele>
  <time>2026-08-28T19:08:08Z</time>
  <course>266.03</course>
  <speed>0.0</speed>
  <fix>3d</fix>
</trkpt>
<trkpt lat="40.072842" lon="-105.230575">
  <ele>1586.09</ele>
  <time>2026-08-28T19:08:08Z</time>
  <course>11.79</course>
  <speed>0.0282842712474619</speed>
  <fix>3d</fix>
</trkpt>
<trkpt lat="40.072842" lon="-105.230575">
  <ele>1586.09</ele>
  <time>2026-08-28T19:08:08Z</time>
  <course>266.03</course>
  <speed>0.0</speed>
  <fix>3d</fix>
</trkpt>
<trkpt lat="40.072842" lon="-105.230575">
  <ele>1586.09</ele>
  <time>2026-08-28T19:08:08Z</time>
  <course>11.78</course>
  <speed>0.0282842712474619</speed>
  <fix>3d</fix>
</trkpt>
<trkpt lat="40.072842" lon="-105.230575">
  <ele>1586.09</ele>
  <time>2026-08-28T19:08:08Z</time>
  <course>266.03</course>
  <speed>0.0</speed>
  <fix>3d</fix>
</trkpt>
<trkpt lat="40.072842" lon="-105.230575">
  <ele>1586.09</ele>
  <time>2026-08-28T19:08:08Z</time>
  <course>11.77</course>
  <speed>0.0282842712474619</speed>
  <fix>3d</fix>
</trkpt>
<trkpt lat="40.072842" lon="-105.230575">
  <ele>1586.09</ele>
  <time>2026-08-28T19:08:08Z</time>
  <course>266.03</course>
  <speed>0.0</speed>
  <fix>3d</fix>
</trkpt>
<trkpt lat="40.072842" lon="-105.230575">
  <ele>1586.09</ele>
  <time>2026-08-28T19:08:08Z</time>
  <course>11.77</course>
  <speed>0.0282842712474619</speed>
  <fix>3d</fix>
</trkpt>
<trkpt lat="40.072842" lon="-105.230575">
  <ele>1586.09</ele>
  <time>2026-08-28T19:08:08Z</time>
  <course>266.03</course>
  <speed>0.0</speed>
  <fix>3d</fix>
</trkpt>
<trkpt lat="40.072842" lon="-105.230575">
  <ele>1586.09</ele>
  <time>2026-08-28T19:08:08Z</time>
  <course>11.76</course>
  <speed>0.0282842712474619</speed>
  <fix>3d</fix>
</trkpt>
<trkpt lat="40.072842" lon="-105.230575">
  <ele>1586.09</ele>
  <time>2026-08-28T19:08:08Z</time>
  <course>266.03</course>
  <speed>0.0</speed>
  <fix>3d</fix>
</trkpt>
<trkpt lat="40.072842" lon="-105.230575">
  <ele>1586.09</ele>
  <time>2026-08-28T19:08:08Z</time>
  <course>11.75</course>
  <speed>0.0282842712474619</speed>
  <fix>3d</fix>
</trkpt>
<trkpt lat="40.072842" lon="-105.230575">
  <ele>1586.09</ele>
  <time>2026-08-28T19:08:08Z</time>
  <course>266.03</course>
  <speed>0.0</speed>
  <fix>3d</fix>
</trkpt>
<trkpt lat="40.072842" lon="-105.230575">
  <ele>1586.09</ele>
  <time>2026-08-28T19:08:08Z</time>
  <course>11.74</course>
  <speed>0.03605551275463989</speed>
  <fix>3d</fix>
</trkpt>
<trkpt lat="40.072842" lon="-105.230575">
  <ele>1586.09</ele>
  <time>2026-08-28T19:08:08Z</time>
  <course>266.03</course>
  <speed>0.0</speed>
  <fix>3d</fix>
</trkpt>
<trkpt lat="40.072842" lon="-105.230575">
  <ele>1586.09</ele>
  <time>2026-08-28T19:08:08Z</time>
  <course>11.73</course>
  <speed>0.03605551275463989</speed>
  <fix>3d</fix>
</trkpt>
<trkpt lat="40.072842" lon="-105.230575">
  <ele>1586.09</ele>
  <time>2026-08-28T19:08:08Z</time>
  <course>266.03</course>
  <speed>0.0</speed>
  <fix>3d</fix>
</trkpt>
<trkpt lat="40.072842" lon="-105.230575">
  <ele>1586.09</ele>
  <time>2026-08-28T19:08:08Z</time>
  <course>11.73</course>
  <speed>0.03605551275463989</speed>
  <fix>3d</fix>
</trkpt>
<trkpt lat="40.072842" lon="-105.230575">
  <ele>1586.09</ele>
  <time>2026-08-28T19:08:08Z</time>
  <course>266.03</course>
  <speed>0.0</speed>
  <fix>3d</fix>
</trkpt>
<trkpt lat="40.072842" lon="-105.230575">
  <ele>1586.09</ele>
  <time>2026-08-28T19:08:08Z</time>
  <course>11.72</course>
  <speed>0.03605551275463989</speed>
  <fix>3d</fix>
</trkpt>
<trkpt lat="40.072842" lon="-105.230575">
  <ele>1586.09</ele>
  <time>2026-08-28T19:08:09Z</time>
  <course>266.03</course>
  <speed>0.0</speed>
  <fix>3d</fix>
</trkpt>
<trkpt lat="40.072842" lon="-105.230575">
  <ele>1586.09</ele>
  <time>2026-08-28T19:08:09Z</time>
  <course>11.71</course>
  <speed>0.03605551275463989</speed>
  <fix>3d</fix>
</trkpt>
<trkpt lat="40.072842" lon="-105.230575">
  <ele>1586.09</ele>
  <time>2026-08-28T19:08:09Z</time>
  <course>266.03</course>
  <speed>0.0</speed>
  <fix>3d</fix>
</trkpt>
<trkpt lat="40.072842" lon="-105.230575">
  <ele>1586.09</ele>
  <time>2026-08-28T19:08:09Z</time>
  <course>11.71</course>
  <speed>0.03605551275463989</speed>
  <fix>3d</fix>
</trkpt>
<trkpt lat="40.072842" lon="-105.230575">
  <ele>1586.09</ele>
  <time>2026-08-28T19:08:09Z</time>
  <course>266.03</course>
  <speed>0.0</speed>
  <fix>3d</fix>
</trkpt>
<trkpt lat="40.072842" lon="-105.230575">
  <ele>1586.09</ele>
  <time>2026-08-28T19:08:09Z</time>
  <course>11.7</course>
  <speed>0.03605551275463989</speed>
  <fix>3d</fix>
</trkpt>
<trkpt lat="40.072842" lon="-105.230575">
  <ele>1586.09</ele>
  <time>2026-08-28T19:08:09Z</time>
  <course>266.03</course>
  <speed>0.0</speed>
  <fix>3d</fix>
</trkpt>
<trkpt lat="40.072842" lon="-105.230575">
  <ele>1586.09</ele>
  <time>2026-08-28T19:08:09Z</time>
  <course>11.69</course>
  <speed>0.03605551275463989</speed>
  <fix>3d</fix>
</trkpt>
<trkpt lat="40.072842" lon="-105.230575">
  <ele>1586.09</ele>
  <time>2026-08-28T19:08:09Z</time>
  <course>266.03</course>
  <speed>0.0</speed>
  <fix>3d</fix>
</trkpt>
<trkpt lat="40.072842" lon="-105.230575">
  <ele>1586.09</ele>
  <time>2026-08-28T19:08:09Z</time>
  <course>11.68</course>
  <speed>0.03605551275463989</speed>
  <fix>3d</fix>
</trkpt>
<trkpt lat="40.072842" lon="-105.230575">
  <ele>1586.09</ele>
  <time>2026-08-28T19:08:09Z</time>
  <course>266.03</course>
  <speed>0.0</speed>
  <fix>3d</fix>
</trkpt>
<trkpt lat="40.072842" lon="-105.230575">
  <ele>1586.09</ele>
  <time>2026-08-28T19:08:09Z</time>
  <course>11.68</course>
  <speed>0.03605551275463989</speed>
  <fix>3d</fix>
</trkpt>
<trkpt lat="40.072842" lon="-105.230575">
  <ele>1586.09</ele>
  <time>2026-08-28T19:08:09Z</time>
  <course>266.03</course>
  <speed>0.0</speed>
  <fix>3d</fix>
</trkpt>
<trkpt lat="40.072842" lon="-105.230575">
  <ele>1586.09</ele>
  <time>2026-08-28T19:08:09Z</time>
  <course>11.67</course>
  <speed>0.03605551275463989</speed>
  <fix>3d</fix>
</trkpt>
<trkpt lat="40.072842" lon="-105.230575">
  <ele>1586.09</ele>
  <time>2026-08-28T19:08:09Z</time>
  <course>266.03</course>
  <speed>0.0</speed>
  <fix>3d</fix>
</trkpt>
<trkpt lat="40.072842" lon="-105.230575">
  <ele>1586.09</ele>
  <time>2026-08-28T19:08:09Z</time>
  <course>11.66</course>
  <speed>0.03605551275463989</speed>
  <fix>3d</fix>
</trkpt>
<trkpt lat="40.072842" lon="-105.230575">
  <ele>1586.09</ele>
  <time>2026-08-28T19:08:09Z</time>
  <course>266.03</course>
  <speed>0.0</speed>
  <fix>3d</fix>
</trkpt>
<trkpt lat="40.072842" lon="-105.230575">
  <ele>1586.09</ele>
  <time>2026-08-28T19:08:09Z</time>
  <course>11.65</course>
  <speed>0.03605551275463989</speed>
  <fix>3d</fix>
</trkpt>
<trkpt lat="40.072842" lon="-105.230575">
  <ele>1586.09</ele>
  <time>2026-08-28T19:08:09Z</time>
  <course>266.03</course>
  <speed>0.0</speed>
  <fix>3d</fix>
</trkpt>
<trkpt lat="40.072842" lon="-105.230575">
  <ele>1586.09</ele>
  <time>2026-08-28T19:08:09Z</time>
  <course>11.65</course>
  <speed>0.03605551275463989</speed>
  <fix>3d</fix>
</trkpt>
<trkpt lat="40.072842" lon="-105.230575">
  <ele>1586.09</ele>
  <time>2026-08-28T19:08:09Z</time>
  <course>266.03</course>
  <speed>0.0</speed>
  <fix>3d</fix>
</trkpt>
<trkpt lat="40.072842" lon="-105.230575">
  <ele>1586.09</ele>
  <time>2026-08-28T19:08:09Z</time>
  <course>11.64</course>
  <speed>0.03605551275463989</speed>
  <fix>3d</fix>
</trkpt>
<trkpt lat="40.072842" lon="-105.230575">
  <ele>1586.09</ele>
  <time>2026-08-28T19:08:09Z</time>
  <course>266.03</course>
  <speed>0.0</speed>
  <fix>3d</fix>
</trkpt>
<trkpt lat="40.072842" lon="-105.230575">
  <ele>1586.09</ele>
  <time>2026-08-28T19:08:09Z</time>
  <course>11.63</course>
  <speed>0.03605551275463989</speed>
  <fix>3d</fix>
</trkpt>
<trkpt lat="40.072842" lon="-105.230575">
  <ele>1586.09</ele>
  <time>2026-08-28T19:08:09Z</time>
  <course>266.03</course>
  <speed>0.0</speed>
  <fix>3d</fix>
</trkpt>
<trkpt lat="40.072842" lon="-105.230575">
  <ele>1586.09</ele>
  <time>2026-08-28T19:08:09Z</time>
  <course>11.63</course>
  <speed>0.03605551275463989</speed>
  <fix>3d</fix>
</trkpt>
<trkpt lat="40.072842" lon="-105.230575">
  <ele>1586.09</ele>
  <time>2026-08-28T19:08:09Z</time>
  <course>266.03</course>
  <speed>0.0</speed>
  <fix>3d</fix>
</trkpt>
<trkpt lat="40.072842" lon="-105.230575">
  <ele>1586.09</ele>
  <time>2026-08-28T19:08:09Z</time>
  <course>11.62</course>
  <speed>0.03605551275463989</speed>
  <fix>3d</fix>
</trkpt>
<trkpt lat="40.072842" lon="-105.230575">
  <ele>1586.09</ele>
  <time>2026-08-28T19:08:09Z</time>
  <course>266.03</course>
  <speed>0.0</speed>
  <fix>3d</fix>
</trkpt>
<trkpt lat="40.072842" lon="-105.230575">
  <ele>1586.09</ele>
  <time>2026-08-28T19:08:09Z</time>
  <course>11.61</course>
  <speed>0.03605551275463989</speed>
  <fix>3d</fix>
</trkpt>
<trkpt lat="40.072842" lon="-105.230575">
  <ele>1586.09</ele>
  <time>2026-08-28T19:08:09Z</time>
  <course>266.03</course>
  <speed>0.0</speed>
  <fix>3d</fix>
</trkpt>
<trkpt lat="40.072842" lon="-105.230575">
  <ele>1586.09</ele>
  <time>2026-08-28T19:08:09Z</time>
  <course>11.61</course>
  <speed>0.03605551275463989</speed>
  <fix>3d</fix>
</trkpt>
<trkpt lat="40.072842" lon="-105.230575">
  <ele>1586.09</ele>
  <time>2026-08-28T19:08:09Z</time>
  <course>266.03</course>
  <speed>0.0</speed>
  <fix>3d</fix>
</trkpt>
<trkpt lat="40.072842" lon="-105.230575">
  <ele>1586.09</ele>
  <time>2026-08-28T19:08:09Z</time>
  <course>11.6</course>
  <speed>0.03605551275463989</speed>
  <fix>3d</fix>
</trkpt>
<trkpt lat="40.072842" lon="-105.230575">
  <ele>1586.09</ele>
  <time>2026-08-28T19:08:09Z</time>
  <course>266.03</course>
  <speed>0.0</speed>
  <fix>3d</fix>
</trkpt>
<trkpt lat="40.072842" lon="-105.230575">
  <ele>1586.09</ele>
  <time>2026-08-28T19:08:09Z</time>
  <course>11.6</course>
  <speed>0.03605551275463989</speed>
  <fix>3d</fix>
</trkpt>
<trkpt lat="40.072842" lon="-105.230575">
  <ele>1586.09</ele>
  <time>2026-08-28T19:08:09Z</time>
  <course>266.03</course>
  <speed>0.0</speed>
  <fix>3d</fix>
</trkpt>
<trkpt lat="40.072842" lon="-105.230575">
  <ele>1586.09</ele>
  <time>2026-08-28T19:08:09Z</time>
  <course>11.59</course>
  <speed>0.03605551275463989</speed>
  <fix>3d</fix>
</trkpt>
<trkpt lat="40.072842" lon="-105.230575">
  <ele>1586.09</ele>
  <time>2026-08-28T19:08:09Z</time>
  <course>266.03</course>
  <speed>0.0</speed>
  <fix>3d</fix>
</trkpt>
<trkpt lat="40.072842" lon="-105.230575">
  <ele>1586.09</ele>
  <time>2026-08-28T19:08:09Z</time>
  <course>11.58</course>
  <speed>0.03605551275463989</speed>
  <fix>3d</fix>
</trkpt>
<trkpt lat="40.072842" lon="-105.230575">
  <ele>1586.09</ele>
  <time>2026-08-28T19:08:09Z</time>
  <course>266.03</course>
  <speed>0.0</speed>
  <fix>3d</fix>
</trkpt>
<trkpt lat="40.072842" lon="-105.230575">
  <ele>1586.09</ele>
  <time>2026-08-28T19:08:09Z</time>
  <course>11.58</course>
  <speed>0.03605551275463989</speed>
  <fix>3d</fix>
</trkpt>
<trkpt lat="40.072842" lon="-105.230575">
  <ele>1586.09</ele>
  <time>2026-08-28T19:08:09Z</time>
  <course>266.03</course>
  <speed>0.0</speed>
  <fix>3d</fix>
</trkpt>
<trkpt lat="40.072842" lon="-105.230575">
  <ele>1586.09</ele>
  <time>2026-08-28T19:08:09Z</time>
  <course>11.57</course>
  <speed>0.03605551275463989</speed>
  <fix>3d</fix>
</trkpt>
<trkpt lat="40.072842" lon="-105.230575">
  <ele>1586.09</ele>
  <time>2026-08-28T19:08:09Z</time>
  <course>266.03</course>
  <speed>0.0</speed>
  <fix>3d</fix>
</trkpt>
<trkpt lat="40.072842" lon="-105.230575">
  <ele>1586.09</ele>
  <time>2026-08-28T19:08:09Z</time>
  <course>11.57</course>
  <speed>0.03605551275463989</speed>
  <fix>3d</fix>
</trkpt>
<trkpt lat="40.072842" lon="-105.230575">
  <ele>1586.09</ele>
  <time>2026-08-28T19:08:09Z</time>
  <course>266.03</course>
  <speed>0.0</speed>
  <fix>3d</fix>
</trkpt>
<trkpt lat="40.072842" lon="-105.230575">
  <ele>1586.09</ele>
  <time>2026-08-28T19:08:09Z</time>
  <course>11.56</course>
  <speed>0.03605551275463989</speed>
  <fix>3d</fix>
</trkpt>
<trkpt lat="40.072842" lon="-105.230575">
  <ele>1586.09</ele>
  <time>2026-08-28T19:08:09Z</time>
  <course>266.03</course>
  <speed>0.0</speed>
  <fix>3d</fix>
</trkpt>
<trkpt lat="40.072842" lon="-105.230575">
  <ele>1586.09</ele>
  <time>2026-08-28T19:08:09Z</time>
  <course>11.55</course>
  <speed>0.03605551275463989</speed>
  <fix>3d</fix>
</trkpt>
<trkpt lat="40.072842" lon="-105.230575">
  <ele>1586.09</ele>
  <time>2026-08-28T19:08:09Z</time>
  <course>266.03</course>
  <speed>0.0</speed>
  <fix>3d</fix>
</trkpt>
<trkpt lat="40.072842" lon="-105.230575">
  <ele>1586.09</ele>
  <time>2026-08-28T19:08:09Z</time>
  <course>11.55</course>
  <speed>0.03605551275463989</speed>
  <fix>3d</fix>
</trkpt>
<trkpt lat="40.072842" lon="-105.230575">
  <ele>1586.09</ele>
  <time>2026-08-28T19:08:09Z</time>
  <course>266.03</course>
  <speed>0.0</speed>
  <fix>3d</fix>
</trkpt>
<trkpt lat="40.072842" lon="-105.230575">
  <ele>1586.09</ele>
  <time>2026-08-28T19:08:09Z</time>
  <course>11.54</course>
  <speed>0.03605551275463989</speed>
  <fix>3d</fix>
</trkpt>
<trkpt lat="40.072842" lon="-105.230575">
  <ele>1586.09</ele>
  <time>2026-08-28T19:08:09Z</time>
  <course>266.03</course>
  <speed>0.0</speed>
  <fix>3d</fix>
</trkpt>
<trkpt lat="40.072842" lon="-105.230575">
  <ele>1586.09</ele>
  <time>2026-08-28T19:08:09Z</time>
  <course>11.53</course>
  <speed>0.03605551275463989</speed>
  <fix>3d</fix>
</trkpt>
<trkpt lat="40.072842" lon="-105.230575">
  <ele>1586.09</ele>
  <time>2026-08-28T19:08:09Z</time>
  <course>266.03</course>
  <speed>0.0</speed>
  <fix>3d</fix>
</trkpt>
<trkpt lat="40.072842" lon="-105.230575">
  <ele>1586.09</ele>
  <time>2026-08-28T19:08:09Z</time>
  <course>11.53</course>
  <speed>0.03605551275463989</speed>
  <fix>3d</fix>
</trkpt>
<trkpt lat="40.072842" lon="-105.230575">
  <ele>1586.09</ele>
  <time>2026-08-28T19:08:09Z</time>
  <course>266.03</course>
  <speed>0.0</speed>
  <fix>3d</fix>
</trkpt>
<trkpt lat="40.072842" lon="-105.230575">
  <ele>1586.09</ele>
  <time>2026-08-28T19:08:09Z</time>
  <course>11.52</course>
  <speed>0.03605551275463989</speed>
  <fix>3d</fix>
</trkpt>
<trkpt lat="40.072842" lon="-105.230575">
  <ele>1586.09</ele>
  <time>2026-08-28T19:08:09Z</time>
  <course>266.03</course>
  <speed>0.0</speed>
  <fix>3d</fix>
</trkpt>
<trkpt lat="40.072842" lon="-105.230575">
  <ele>1586.09</ele>
  <time>2026-08-28T19:08:09Z</time>
  <course>11.52</course>
  <speed>0.03605551275463989</speed>
  <fix>3d</fix>
</trkpt>
<trkpt lat="40.072842" lon="-105.230575">
  <ele>1586.09</ele>
  <time>2026-08-28T19:08:09Z</time>
  <course>266.03</course>
  <speed>0.0</speed>
  <fix>3d</fix>
</trkpt>
<trkpt lat="40.072842" lon="-105.230575">
  <ele>1586.09</ele>
  <time>2026-08-28T19:08:09Z</time>
  <course>11.51</course>
  <speed>0.03605551275463989</speed>
  <fix>3d</fix>
</trkpt>
<trkpt lat="40.072842" lon="-105.230575">
  <ele>1586.09</ele>
  <time>2026-08-28T19:08:09Z</time>
  <course>266.03</course>
  <speed>0.0</speed>
  <fix>3d</fix>
</trkpt>
<trkpt lat="40.072842" lon="-105.230575">
  <ele>1586.09</ele>
  <time>2026-08-28T19:08:09Z</time>
  <course>11.51</course>
  <speed>0.044721359549995794</speed>
  <fix>3d</fix>
</trkpt>
<trkpt lat="40.072842" lon="-105.230575">
  <ele>1586.09</ele>
  <time>2026-08-28T19:08:09Z</time>
  <course>266.03</course>
  <speed>0.0</speed>
  <fix>3d</fix>
</trkpt>
<trkpt lat="40.072842" lon="-105.230575">
  <ele>1586.09</ele>
  <time>2026-08-28T19:08:09Z</time>
  <course>11.5</course>
  <speed>0.044721359549995794</speed>
  <fix>3d</fix>
</trkpt>
<trkpt lat="40.072842" lon="-105.230575">
  <ele>1586.09</ele>
  <time>2026-08-28T19:08:09Z</time>
  <course>266.03</course>
  <speed>0.0</speed>
  <fix>3d</fix>
</trkpt>
<trkpt lat="40.072842" lon="-105.230575">
  <ele>1586.09</ele>
  <time>2026-08-28T19:08:09Z</time>
  <course>11.5</course>
  <speed>0.044721359549995794</speed>
  <fix>3d</fix>
</trkpt>
<trkpt lat="40.072842" lon="-105.230575">
  <ele>1586.09</ele>
  <time>2026-08-28T19:08:09Z</time>
  <course>266.03</course>
  <speed>0.0</speed>
  <fix>3d</fix>
</trkpt>
<trkpt lat="40.072842" lon="-105.230575">
  <ele>1586.09</ele>
  <time>2026-08-28T19:08:09Z</time>
  <course>11.49</course>
  <speed>0.044721359549995794</speed>
  <fix>3d</fix>
</trkpt>
<trkpt lat="40.072842" lon="-105.230575">
  <ele>1586.09</ele>
  <time>2026-08-28T19:08:09Z</time>
  <course>266.03</course>
  <speed>0.0</speed>
  <fix>3d</fix>
</trkpt>
<trkpt lat="40.072842" lon="-105.230575">
  <ele>1586.09</ele>
  <time>2026-08-28T19:08:09Z</time>
  <course>11.48</course>
  <speed>0.044721359549995794</speed>
  <fix>3d</fix>
</trkpt>
<trkpt lat="40.072842" lon="-105.230575">
  <ele>1586.09</ele>
  <time>2026-08-28T19:08:09Z</time>
  <course>266.03</course>
  <speed>0.0</speed>
  <fix>3d</fix>
</trkpt>
<trkpt lat="40.072842" lon="-105.230575">
  <ele>1586.09</ele>
  <time>2026-08-28T19:08:09Z</time>
  <course>11.48</course>
  <speed>0.044721359549995794</speed>
  <fix>3d</fix>
</trkpt>
<trkpt lat="40.072842" lon="-105.230575">
  <ele>1586.09</ele>
  <time>2026-08-28T19:08:09Z</time>
  <course>266.03</course>
  <speed>0.0</speed>
  <fix>3d</fix>
</trkpt>
<trkpt lat="40.072842" lon="-105.230575">
  <ele>1586.09</ele>
  <time>2026-08-28T19:08:09Z</time>
  <course>11.47</course>
  <speed>0.044721359549995794</speed>
  <fix>3d</fix>
</trkpt>
<trkpt lat="40.072842" lon="-105.230575">
  <ele>1586.09</ele>
  <time>2026-08-28T19:08:09Z</time>
  <course>266.03</course>
  <speed>0.0</speed>
  <fix>3d</fix>
</trkpt>
<trkpt lat="40.072842" lon="-105.230575">
  <ele>1586.09</ele>
  <time>2026-08-28T19:08:09Z</time>
  <course>11.47</course>
  <speed>0.044721359549995794</speed>
  <fix>3d</fix>
</trkpt>
<trkpt lat="40.072842" lon="-105.230575">
  <ele>1586.09</ele>
  <time>2026-08-28T19:08:09Z</time>
  <course>266.03</course>
  <speed>0.0</speed>
  <fix>3d</fix>
</trkpt>
<trkpt lat="40.072842" lon="-105.230575">
  <ele>1586.09</ele>
  <time>2026-08-28T19:08:09Z</time>
  <course>11.47</course>
  <speed>0.044721359549995794</speed>
  <fix>3d</fix>
</trkpt>
<trkpt lat="40.072842" lon="-105.230575">
  <ele>1586.09</ele>
  <time>2026-08-28T19:08:09Z</time>
  <course>266.03</course>
  <speed>0.0</speed>
  <fix>3d</fix>
</trkpt>
<trkpt lat="40.072842" lon="-105.230575">
  <ele>1586.09</ele>
  <time>2026-08-28T19:08:09Z</time>
  <course>11.46</course>
  <speed>0.044721359549995794</speed>
  <fix>3d</fix>
</trkpt>
<trkpt lat="40.072842" lon="-105.230575">
  <ele>1586.09</ele>
  <time>2026-08-28T19:08:09Z</time>
  <course>266.03</course>
  <speed>0.0</speed>
  <fix>3d</fix>
</trkpt>
<trkpt lat="40.072842" lon="-105.230575">
  <ele>1586.16</ele>
  <time>2026-08-28T19:08:09Z</time>
  <course>11.45</course>
  <speed>0.0</speed>
  <fix>3d</fix>
</trkpt>
<trkpt lat="40.072842" lon="-105.230575">
  <ele>1586.09</ele>
  <time>2026-08-28T19:08:09Z</time>
  <course>297.19</course>
  <speed>0.0</speed>
  <fix>3d</fix>
</trkpt>
<trkpt lat="40.072842" lon="-105.230575">
  <ele>1586.16</ele>
  <time>2026-08-28T19:08:09Z</time>
  <course>11.45</course>
  <speed>0.0</speed>
  <fix>3d</fix>
</trkpt>
<trkpt lat="40.072842" lon="-105.230575">
  <ele>1586.09</ele>
  <time>2026-08-28T19:08:09Z</time>
  <course>269.87</course>
  <speed>0.0</speed>
  <fix>3d</fix>
</trkpt>
<trkpt lat="40.072842" lon="-105.230575">
  <ele>1586.16</ele>
  <time>2026-08-28T19:08:09Z</time>
  <course>11.45</course>
  <speed>0.0</speed>
  <fix>3d</fix>
</trkpt>
<trkpt lat="40.072842" lon="-105.230575">
  <ele>1586.09</ele>
  <time>2026-08-28T19:08:09Z</time>
  <course>241.23</course>
  <speed>0.0</speed>
  <fix>3d</fix>
</trkpt>
<trkpt lat="40.072842" lon="-105.230575">
  <ele>1586.16</ele>
  <time>2026-08-28T19:08:09Z</time>
  <course>11.44</course>
  <speed>0.0</speed>
  <fix>3d</fix>
</trkpt>
<trkpt lat="40.072842" lon="-105.230575">
  <ele>1586.09</ele>
  <time>2026-08-28T19:08:09Z</time>
  <course>93.08</course>
  <speed>0.0</speed>
  <fix>3d</fix>
</trkpt>
<trkpt lat="40.072842" lon="-105.230575">
  <ele>1586.17</ele>
  <time>2026-08-28T19:08:09Z</time>
  <course>11.44</course>
  <speed>0.0</speed>
  <fix>3d</fix>
</trkpt>
<trkpt lat="40.072842" lon="-105.230575">
  <ele>1586.09</ele>
  <time>2026-08-28T19:08:09Z</time>
  <course>317.31</course>
  <speed>0.0</speed>
  <fix>3d</fix>
</trkpt>
<trkpt lat="40.072842" lon="-105.230575">
  <ele>1586.17</ele>
  <time>2026-08-28T19:08:09Z</time>
  <course>11.43</course>
  <speed>0.01</speed>
  <fix>3d</fix>
</trkpt>
<trkpt lat="40.072842" lon="-105.230575">
  <ele>1586.09</ele>
  <time>2026-08-28T19:08:09Z</time>
  <course>265.24</course>
  <speed>0.0</speed>
  <fix>3d</fix>
</trkpt>
<trkpt lat="40.072842" lon="-105.230575">
  <ele>1586.17</ele>
  <time>2026-08-28T19:08:09Z</time>
  <course>11.43</course>
  <speed>0.01</speed>
  <fix>3d</fix>
</trkpt>
<trkpt lat="40.072842" lon="-105.230575">
  <ele>1586.09</ele>
  <time>2026-08-28T19:08:09Z</time>
  <course>261.76</course>
  <speed>0.0</speed>
  <fix>3d</fix>
</trkpt>
<trkpt lat="40.072842" lon="-105.230575">
  <ele>1586.17</ele>
  <time>2026-08-28T19:08:09Z</time>
  <course>11.42</course>
  <speed>0.01</speed>
  <fix>3d</fix>
</trkpt>
<trkpt lat="40.072842" lon="-105.230575">
  <ele>1586.09</ele>
  <time>2026-08-28T19:08:09Z</time>
  <course>266.78</course>
  <speed>0.0</speed>
  <fix>3d</fix>
</trkpt>
<trkpt lat="40.072842" lon="-105.230575">
  <ele>1586.17</ele>
  <time>2026-08-28T19:08:09Z</time>
  <course>11.42</course>
  <speed>0.01414213562373095</speed>
  <fix>3d</fix>
</trkpt>
<trkpt lat="40.072842" lon="-105.230575">
  <ele>1586.09</ele>
  <time>2026-08-28T19:08:09Z</time>
  <course>266.53</course>
  <speed>0.0</speed>
  <fix>3d</fix>
</trkpt>
<trkpt lat="40.072842" lon="-105.230575">
  <ele>1586.17</ele>
  <time>2026-08-28T19:08:09Z</time>
  <course>11.42</course>
  <speed>0.01414213562373095</speed>
  <fix>3d</fix>
</trkpt>
<trkpt lat="40.072842" lon="-105.230575">
  <ele>1586.09</ele>
  <time>2026-08-28T19:08:09Z</time>
  <course>265.88</course>
  <speed>0.0</speed>
  <fix>3d</fix>
</trkpt>
<trkpt lat="40.072842" lon="-105.230575">
  <ele>1586.17</ele>
  <time>2026-08-28T19:08:09Z</time>
  <course>11.41</course>
  <speed>0.01414213562373095</speed>
  <fix>3d</fix>
</trkpt>
<trkpt lat="40.072842" lon="-105.230575">
  <ele>1586.09</ele>
  <time>2026-08-28T19:08:09Z</time>
  <course>201.27</course>
  <speed>0.0</speed>
  <fix>3d</fix>
</trkpt>
<trkpt lat="40.072842" lon="-105.230575">
  <ele>1586.17</ele>
  <time>2026-08-28T19:08:09Z</time>
  <course>11.41</course>
  <speed>0.022360679774997897</speed>
  <fix>3d</fix>
</trkpt>
<trkpt lat="40.072842" lon="-105.230575">
  <ele>1586.09</ele>
  <time>2026-08-28T19:08:09Z</time>
  <course>250.46</course>
  <speed>0.0</speed>
  <fix>3d</fix>
</trkpt>
<trkpt lat="40.072842" lon="-105.230575">
  <ele>1586.17</ele>
  <time>2026-08-28T19:08:09Z</time>
  <course>11.4</course>
  <speed>0.01414213562373095</speed>
  <fix>3d</fix>
</trkpt>
<trkpt lat="40.072842" lon="-105.230575">
  <ele>1586.09</ele>
  <time>2026-08-28T19:08:09Z</time>
  <course>265.71</course>
  <speed>0.0</speed>
  <fix>3d</fix>
</trkpt>
<trkpt lat="40.072842" lon="-105.230575">
  <ele>1586.17</ele>
  <time>2026-08-28T19:08:09Z</time>
  <course>11.4</course>
  <speed>0.01414213562373095</speed>
  <fix>3d</fix>
</trkpt>
<trkpt lat="40.072842" lon="-105.230575">
  <ele>1586.09</ele>
  <time>2026-08-28T19:08:09Z</time>
  <course>261.82</course>
  <speed>0.0</speed>
  <fix>3d</fix>
</trkpt>
<trkpt lat="40.072842" lon="-105.230575">
  <ele>1586.17</ele>
  <time>2026-08-28T19:08:09Z</time>
  <course>11.4</course>
  <speed>0.01414213562373095</speed>
  <fix>3d</fix>
</trkpt>
<trkpt lat="40.072842" lon="-105.230575">
  <ele>1586.09</ele>
  <time>2026-08-28T19:08:09Z</time>
  <course>266.9</course>
  <speed>0.0</speed>
  <fix>3d</fix>
</trkpt>
<trkpt lat="40.072842" lon="-105.230575">
  <ele>1586.17</ele>
  <time>2026-08-28T19:08:09Z</time>
  <course>11.39</course>
  <speed>0.01</speed>
  <fix>3d</fix>
</trkpt>
<trkpt lat="40.072842" lon="-105.230575">
  <ele>1586.09</ele>
  <time>2026-08-28T19:08:09Z</time>
  <course>266.49</course>
  <speed>0.0</speed>
  <fix>3d</fix>
</trkpt>
<trkpt lat="40.072842" lon="-105.230575">
  <ele>1586.17</ele>
  <time>2026-08-28T19:08:09Z</time>
  <course>11.39</course>
  <speed>0.0</speed>
  <fix>3d</fix>
</trkpt>
<trkpt lat="40.072842" lon="-105.230575">
  <ele>1586.09</ele>
  <time>2026-08-28T19:08:09Z</time>
  <course>265.87</course>
  <speed>0.0</speed>
  <fix>3d</fix>
</trkpt>
<trkpt lat="40.072842" lon="-105.230575">
  <ele>1586.17</ele>
  <time>2026-08-28T19:08:09Z</time>
  <course>11.39</course>
  <speed>0.0</speed>
  <fix>3d</fix>
</trkpt>
<trkpt lat="40.072842" lon="-105.230575">
  <ele>1586.09</ele>
  <time>2026-08-28T19:08:09Z</time>
  <course>342.51</course>
  <speed>0.0</speed>
  <fix>3d</fix>
</trkpt>
<trkpt lat="40.072842" lon="-105.230575">
  <ele>1586.17</ele>
  <time>2026-08-28T19:08:09Z</time>
  <course>11.38</course>
  <speed>0.0</speed>
  <fix>3d</fix>
</trkpt>
<trkpt lat="40.072842" lon="-105.230575">
  <ele>1586.09</ele>
  <time>2026-08-28T19:08:09Z</time>
  <course>325.06</course>
  <speed>0.0</speed>
  <fix>3d</fix>
</trkpt>
<trkpt lat="40.072842" lon="-105.230575">
  <ele>1586.17</ele>
  <time>2026-08-28T19:08:09Z</time>
  <course>11.38</course>
  <speed>0.0</speed>
  <fix>3d</fix>
</trkpt>
<trkpt lat="40.072842" lon="-105.230575">
  <ele>1586.09</ele>
  <time>2026-08-28T19:08:09Z</time>
  <course>308.52</course>
  <speed>0.0</speed>
  <fix>3d</fix>
</trkpt>
<trkpt lat="40.072842" lon="-105.230575">
  <ele>1586.17</ele>
  <time>2026-08-28T19:08:09Z</time>
  <course>11.37</course>
  <speed>0.0</speed>
  <fix>3d</fix>
</trkpt>
<trkpt lat="40.072842" lon="-105.230575">
  <ele>1586.09</ele>
  <time>2026-08-28T19:08:09Z</time>
  <course>185.68</course>
  <speed>0.0</speed>
  <fix>3d</fix>
</trkpt>
<trkpt lat="40.072842" lon="-105.230575">
  <ele>1586.17</ele>
  <time>2026-08-28T19:08:09Z</time>
  <course>11.37</course>
  <speed>0.0</speed>
  <fix>3d</fix>
</trkpt>
<trkpt lat="40.072842" lon="-105.230575">
  <ele>1586.09</ele>
  <time>2026-08-28T19:08:09Z</time>
  <course>196.88</course>
  <speed>0.0</speed>
  <fix>3d</fix>
</trkpt>
<trkpt lat="40.072842" lon="-105.230575">
  <ele>1586.17</ele>
  <time>2026-08-28T19:08:09Z</time>
  <course>11.37</course>
  <speed>0.0</speed>
  <fix>3d</fix>
</trkpt>
<trkpt lat="40.072842" lon="-105.230575">
  <ele>1586.09</ele>
  <time>2026-08-28T19:08:09Z</time>
  <course>299.71</course>
  <speed>0.0</speed>
  <fix>3d</fix>
</trkpt>
<trkpt lat="40.072842" lon="-105.230575">
  <ele>1586.17</ele>
  <time>2026-08-28T19:08:09Z</time>
  <course>11.36</course>
  <speed>0.0</speed>
  <fix>3d</fix>
</trkpt>
<trkpt lat="40.072842" lon="-105.230575">
  <ele>1586.09</ele>
  <time>2026-08-28T19:08:09Z</time>
  <course>285.75</course>
  <speed>0.0</speed>
  <fix>3d</fix>
</trkpt>
<trkpt lat="40.072842" lon="-105.230575">
  <ele>1586.17</ele>
  <time>2026-08-28T19:08:09Z</time>
  <course>11.36</course>
  <speed>0.0</speed>
  <fix>3d</fix>
</trkpt>
<trkpt lat="40.072842" lon="-105.230575">
  <ele>1586.09</ele>
  <time>2026-08-28T19:08:09Z</time>
  <course>283.54</course>
  <speed>0.0</speed>
  <fix>3d</fix>
</trkpt>
<trkpt lat="40.072842" lon="-105.230575">
  <ele>1586.17</ele>
  <time>2026-08-28T19:08:09Z</time>
  <course>11.35</course>
  <speed>0.0</speed>
  <fix>3d</fix>
</trkpt>
<trkpt lat="40.072842" lon="-105.230575">
  <ele>1586.09</ele>
  <time>2026-08-28T19:08:09Z</time>
  <course>286.28</course>
  <speed>0.0</speed>
  <fix>3d</fix>
</trkpt>
<trkpt lat="40.072842" lon="-105.230575">
  <ele>1586.17</ele>
  <time>2026-08-28T19:08:09Z</time>
  <course>11.34</course>
  <speed>0.0</speed>
  <fix>3d</fix>
</trkpt>
<trkpt lat="40.072842" lon="-105.230575">
  <ele>1586.09</ele>
  <time>2026-08-28T19:08:09Z</time>
  <course>286.12</course>
  <speed>0.0</speed>
  <fix>3d</fix>
</trkpt>
<trkpt lat="40.072842" lon="-105.230575">
  <ele>1586.16</ele>
  <time>2026-08-28T19:08:09Z</time>
  <course>11.33</course>
  <speed>0.0</speed>
  <fix>3d</fix>
</trkpt>
<trkpt lat="40.072842" lon="-105.230575">
  <ele>1586.09</ele>
  <time>2026-08-28T19:08:09Z</time>
  <course>285.67</course>
  <speed>0.0</speed>
  <fix>3d</fix>
</trkpt>
<trkpt lat="40.072842" lon="-105.230575">
  <ele>1586.16</ele>
  <time>2026-08-28T19:08:09Z</time>
  <course>11.32</course>
  <speed>0.0</speed>
  <fix>3d</fix>
</trkpt>
<trkpt lat="40.072842" lon="-105.230575">
  <ele>1586.09</ele>
  <time>2026-08-28T19:08:09Z</time>
  <course>285.62</course>
  <speed>0.0</speed>
  <fix>3d</fix>
</trkpt>
<trkpt lat="40.072842" lon="-105.230575">
  <ele>1586.16</ele>
  <time>2026-08-28T19:08:09Z</time>
  <course>11.31</course>
  <speed>0.0</speed>
  <fix>3d</fix>
</trkpt>
<trkpt lat="40.072842" lon="-105.230575">
  <ele>1586.09</ele>
  <time>2026-08-28T19:08:09Z</time>
  <course>285.56</course>
  <speed>0.0</speed>
  <fix>3d</fix>
</trkpt>
<trkpt lat="40.072842" lon="-105.230575">
  <ele>1586.16</ele>
  <time>2026-08-28T19:08:09Z</time>
  <course>11.3</course>
  <speed>0.0</speed>
  <fix>3d</fix>
</trkpt>
<trkpt lat="40.072842" lon="-105.230575">
  <ele>1586.09</ele>
  <time>2026-08-28T19:08:09Z</time>
  <course>285.45</course>
  <speed>0.0</speed>
  <fix>3d</fix>
</trkpt>
<trkpt lat="40.072842" lon="-105.230575">
  <ele>1586.16</ele>
  <time>2026-08-28T19:08:09Z</time>
  <course>11.28</course>
  <speed>0.0</speed>
  <fix>3d</fix>
</trkpt>
<trkpt lat="40.072842" lon="-105.230575">
  <ele>1586.09</ele>
  <time>2026-08-28T19:08:09Z</time>
  <course>285.34</course>
  <speed>0.0</speed>
  <fix>3d</fix>
</trkpt>
<trkpt lat="40.072842" lon="-105.230575">
  <ele>1586.16</ele>
  <time>2026-08-28T19:08:09Z</time>
  <course>11.26</course>
  <speed>0.0</speed>
  <fix>3d</fix>
</trkpt>
<trkpt lat="40.072842" lon="-105.230575">
  <ele>1586.09</ele>
  <time>2026-08-28T19:08:09Z</time>
  <course>285.23</course>
  <speed>0.0</speed>
  <fix>3d</fix>
</trkpt>
<trkpt lat="40.072842" lon="-105.230575">
  <ele>1586.16</ele>
  <time>2026-08-28T19:08:09Z</time>
  <course>11.24</course>
  <speed>0.0</speed>
  <fix>3d</fix>
</trkpt>
<trkpt lat="40.072842" lon="-105.230575">
  <ele>1586.09</ele>
  <time>2026-08-28T19:08:09Z</time>
  <course>280.42</course>
  <speed>0.0</speed>
  <fix>3d</fix>
</trkpt>
<trkpt lat="40.072842" lon="-105.230575">
  <ele>1586.16</ele>
  <time>2026-08-28T19:08:09Z</time>
  <course>11.22</course>
  <speed>0.0</speed>
  <fix>3d</fix>
</trkpt>
<trkpt lat="40.072842" lon="-105.230575">
  <ele>1586.09</ele>
  <time>2026-08-28T19:08:09Z</time>
  <course>265.94</course>
  <speed>0.0</speed>
  <fix>3d</fix>
</trkpt>
<trkpt lat="40.072842" lon="-105.230575">
  <ele>1586.16</ele>
  <time>2026-08-28T19:08:09Z</time>
  <course>11.2</course>
  <speed>0.0</speed>
  <fix>3d</fix>
</trkpt>
<trkpt lat="40.072842" lon="-105.230575">
  <ele>1586.09</ele>
  <time>2026-08-28T19:08:09Z</time>
  <course>256.65</course>
  <speed>0.0</speed>
  <fix>3d</fix>
</trkpt>
<trkpt lat="40.072842" lon="-105.230575">
  <ele>1586.16</ele>
  <time>2026-08-28T19:08:09Z</time>
  <course>11.18</course>
  <speed>0.0</speed>
  <fix>3d</fix>
</trkpt>
<trkpt lat="40.072842" lon="-105.230575">
  <ele>1586.09</ele>
  <time>2026-08-28T19:08:09Z</time>
  <course>236.22</course>
  <speed>0.0</speed>
  <fix>3d</fix>
</trkpt>
<trkpt lat="40.072842" lon="-105.230575">
  <ele>1586.16</ele>
  <time>2026-08-28T19:08:09Z</time>
  <course>11.15</course>
  <speed>0.0</speed>
  <fix>3d</fix>
</trkpt>
<trkpt lat="40.072842" lon="-105.230575">
  <ele>1586.09</ele>
  <time>2026-08-28T19:08:09Z</time>
  <course>274.44</course>
  <speed>0.0</speed>
  <fix>3d</fix>
</trkpt>
<trkpt lat="40.072842" lon="-105.230575">
  <ele>1586.16</ele>
  <time>2026-08-28T19:08:09Z</time>
  <course>11.13</course>
  <speed>0.01</speed>
  <fix>3d</fix>
</trkpt>
<trkpt lat="40.072842" lon="-105.230575">
  <ele>1586.09</ele>
  <time>2026-08-28T19:08:09Z</time>
  <course>270.65</course>
  <speed>0.0</speed>
  <fix>3d</fix>
</trkpt>
<trkpt lat="40.072842" lon="-105.230575">
  <ele>1586.16</ele>
  <time>2026-08-28T19:08:09Z</time>
  <course>11.1</course>
  <speed>0.01</speed>
  <fix>3d</fix>
</trkpt>
<trkpt lat="40.072842" lon="-105.230575">
  <ele>1586.09</ele>
  <time>2026-08-28T19:08:09Z</time>
  <course>270.65</course>
  <speed>0.0</speed>
  <fix>3d</fix>
</trkpt>
<trkpt lat="40.072842" lon="-105.230575">
  <ele>1586.16</ele>
  <time>2026-08-28T19:08:09Z</time>
  <course>11.07</course>
  <speed>0.01</speed>
  <fix>3d</fix>
</trkpt>
<trkpt lat="40.072842" lon="-105.230575">
  <ele>1586.09</ele>
  <time>2026-08-28T19:08:09Z</time>
  <course>272.1</course>
  <speed>0.0</speed>
  <fix>3d</fix>
</trkpt>
<trkpt lat="40.072842" lon="-105.230575">
  <ele>1586.16</ele>
  <time>2026-08-28T19:08:09Z</time>
  <course>11.04</course>
  <speed>0.01</speed>
  <fix>3d</fix>
</trkpt>
<trkpt lat="40.072842" lon="-105.230575">
  <ele>1586.09</ele>
  <time>2026-08-28T19:08:09Z</time>
  <course>270.35</course>
  <speed>0.0</speed>
  <fix>3d</fix>
</trkpt>
<trkpt lat="40.072842" lon="-105.230575">
  <ele>1586.16</ele>
  <time>2026-08-28T19:08:09Z</time>
  <course>11.01</course>
  <speed>0.01</speed>
  <fix>3d</fix>
</trkpt>
<trkpt lat="40.072842" lon="-105.230575">
  <ele>1586.09</ele>
  <time>2026-08-28T19:08:09Z</time>
  <course>270.22</course>
  <speed>0.0</speed>
  <fix>3d</fix>
</trkpt>
<trkpt lat="40.072842" lon="-105.230575">
  <ele>1586.16</ele>
  <time>2026-08-28T19:08:09Z</time>
  <course>10.98</course>
  <speed>0.01</speed>
  <fix>3d</fix>
</trkpt>
<trkpt lat="40.072842" lon="-105.230575">
  <ele>1586.09</ele>
  <time>2026-08-28T19:08:09Z</time>
  <course>270.93</course>
  <speed>0.0</speed>
  <fix>3d</fix>
</trkpt>
<trkpt lat="40.072842" lon="-105.230575">
  <ele>1586.16</ele>
  <time>2026-08-28T19:08:09Z</time>
  <course>10.95</course>
  <speed>0.01414213562373095</speed>
  <fix>3d</fix>
</trkpt>
<trkpt lat="40.072842" lon="-105.230575">
  <ele>1586.09</ele>
  <time>2026-08-28T19:08:09Z</time>
  <course>270.01</course>
  <speed>0.0</speed>
  <fix>3d</fix>
</trkpt>
<trkpt lat="40.072842" lon="-105.230575">
  <ele>1586.16</ele>
  <time>2026-08-28T19:08:09Z</time>
  <course>10.91</course>
  <speed>0.01414213562373095</speed>
  <fix>3d</fix>
</trkpt>
<trkpt lat="40.072842" lon="-105.230575">
  <ele>1586.09</ele>
  <time>2026-08-28T19:08:09Z</time>
  <course>269.91</course>
  <speed>0.0</speed>
  <fix>3d</fix>
</trkpt>
<trkpt lat="40.072842" lon="-105.230575">
  <ele>1586.16</ele>
  <time>2026-08-28T19:08:09Z</time>
  <course>10.88</course>
  <speed>0.01414213562373095</speed>
  <fix>3d</fix>
</trkpt>
<trkpt lat="40.072842" lon="-105.230575">
  <ele>1586.09</ele>
  <time>2026-08-28T19:08:09Z</time>
  <course>270.28</course>
  <speed>0.0</speed>
  <fix>3d</fix>
</trkpt>
<trkpt lat="40.072842" lon="-105.230575">
  <ele>1586.17</ele>
  <time>2026-08-28T19:08:09Z</time>
  <course>10.84</course>
  <speed>0.01414213562373095</speed>
  <fix>3d</fix>
</trkpt>
<trkpt lat="40.072842" lon="-105.230575">
  <ele>1586.09</ele>
  <time>2026-08-28T19:08:09Z</time>
  <course>269.74</course>
  <speed>0.0</speed>
  <fix>3d</fix>
</trkpt>
<trkpt lat="40.072842" lon="-105.230575">
  <ele>1586.17</ele>
  <time>2026-08-28T19:08:09Z</time>
  <course>10.8</course>
  <speed>0.01414213562373095</speed>
  <fix>3d</fix>
</trkpt>
<trkpt lat="40.072842" lon="-105.230575">
  <ele>1586.09</ele>
  <time>2026-08-28T19:08:09Z</time>
  <course>269.67</course>
  <speed>0.0</speed>
  <fix>3d</fix>
</trkpt>
<trkpt lat="40.0728419" lon="-105.230575">
  <ele>1586.17</ele>
  <time>2026-08-28T19:08:09Z</time>
  <course>10.76</course>
  <speed>0.01414213562373095</speed>
  <fix>3d</fix>
</trkpt>
<trkpt lat="40.072842" lon="-105.230575">
  <ele>1586.09</ele>
  <time>2026-08-28T19:08:09Z</time>
  <course>269.58</course>
  <speed>0.0</speed>
  <fix>3d</fix>
</trkpt>
<trkpt lat="40.0728419" lon="-105.230575">
  <ele>1586.17</ele>
  <time>2026-08-28T19:08:09Z</time>
  <course>10.72</course>
  <speed>0.022360679774997897</speed>
  <fix>3d</fix>
</trkpt>
<trkpt lat="40.072842" lon="-105.230575">
  <ele>1586.09</ele>
  <time>2026-08-28T19:08:09Z</time>
  <course>282.62</course>
  <speed>0.0</speed>
  <fix>3d</fix>
</trkpt>
<trkpt lat="40.0728419" lon="-105.230575">
  <ele>1586.17</ele>
  <time>2026-08-28T19:08:09Z</time>
  <course>10.68</course>
  <speed>0.022360679774997897</speed>
  <fix>3d</fix>
</trkpt>
<trkpt lat="40.072842" lon="-105.230575">
  <ele>1586.09</ele>
  <time>2026-08-28T19:08:09Z</time>
  <course>289.2</course>
  <speed>0.0</speed>
  <fix>3d</fix>
</trkpt>
<trkpt lat="40.0728419" lon="-105.2305749">
  <ele>1586.17</ele>
  <time>2026-08-28T19:08:09Z</time>
  <course>10.64</course>
  <speed>0.022360679774997897</speed>
  <fix>3d</fix>
</trkpt>
<trkpt lat="40.072842" lon="-105.230575">
  <ele>1586.09</ele>
  <time>2026-08-28T19:08:09Z</time>
  <course>269.08</course>
  <speed>0.0</speed>
  <fix>3d</fix>
</trkpt>
<trkpt lat="40.0728419" lon="-105.2305749">
  <ele>1586.17</ele>
  <time>2026-08-28T19:08:09Z</time>
  <course>10.59</course>
  <speed>0.022360679774997897</speed>
  <fix>3d</fix>
</trkpt>
<trkpt lat="40.072842" lon="-105.230575">
  <ele>1586.09</ele>
  <time>2026-08-28T19:08:09Z</time>
  <course>267.15</course>
  <speed>0.0</speed>
  <fix>3d</fix>
</trkpt>
<trkpt lat="40.0728419" lon="-105.2305749">
  <ele>1586.17</ele>
  <time>2026-08-28T19:08:09Z</time>
  <course>10.55</course>
  <speed>0.022360679774997897</speed>
  <fix>3d</fix>
</trkpt>
<trkpt lat="40.072842" lon="-105.230575">
  <ele>1586.09</ele>
  <time>2026-08-28T19:08:09Z</time>
  <course>269.94</course>
  <speed>0.0</speed>
  <fix>3d</fix>
</trkpt>
<trkpt lat="40.0728419" lon="-105.2305749">
  <ele>1586.17</ele>
  <time>2026-08-28T19:08:09Z</time>
  <course>10.5</course>
  <speed>0.022360679774997897</speed>
  <fix>3d</fix>
</trkpt>
<trkpt lat="40.072842" lon="-105.230575">
  <ele>1586.09</ele>
  <time>2026-08-28T19:08:09Z</time>
  <course>269.71</course>
  <speed>0.0</speed>
  <fix>3d</fix>
</trkpt>
<trkpt lat="40.0728419" lon="-105.2305749">
  <ele>1586.17</ele>
  <time>2026-08-28T19:08:09Z</time>
  <course>10.46</course>
  <speed>0.022360679774997897</speed>
  <fix>3d</fix>
</trkpt>
<trkpt lat="40.072842" lon="-105.230575">
  <ele>1586.09</ele>
  <time>2026-08-28T19:08:09Z</time>
  <course>269.3</course>
  <speed>0.0</speed>
  <fix>3d</fix>
</trkpt>
<trkpt lat="40.0728419" lon="-105.2305749">
  <ele>1586.17</ele>
  <time>2026-08-28T19:08:09Z</time>
  <course>10.41</course>
  <speed>0.022360679774997897</speed>
  <fix>3d</fix>
</trkpt>
<trkpt lat="40.072842" lon="-105.230575">
  <ele>1586.09</ele>
  <time>2026-08-28T19:08:09Z</time>
  <course>269.24</course>
  <speed>0.0</speed>
  <fix>3d</fix>
</trkpt>
<trkpt lat="40.0728419" lon="-105.2305749">
  <ele>1586.17</ele>
  <time>2026-08-28T19:08:09Z</time>
  <course>10.36</course>
  <speed>0.022360679774997897</speed>
  <fix>3d</fix>
</trkpt>
<trkpt lat="40.072842" lon="-105.230575">
  <ele>1586.09</ele>
  <time>2026-08-28T19:08:09Z</time>
  <course>265.69</course>
  <speed>0.0</speed>
  <fix>3d</fix>
</trkpt>
<trkpt lat="40.0728419" lon="-105.2305749">
  <ele>1586.16</ele>
  <time>2026-08-28T19:08:09Z</time>
  <course>10.31</course>
  <speed>0.022360679774997897</speed>
  <fix>3d</fix>
</trkpt>
<trkpt lat="40.072842" lon="-105.230575">
  <ele>1586.09</ele>
  <time>2026-08-28T19:08:09Z</time>
  <course>259.56</course>
  <speed>0.0</speed>
  <fix>3d</fix>
</trkpt>
<trkpt lat="40.0728419" lon="-105.2305749">
  <ele>1586.16</ele>
  <time>2026-08-28T19:08:09Z</time>
  <course>10.26</course>
  <speed>0.022360679774997897</speed>
  <fix>3d</fix>
</trkpt>
<trkpt lat="40.072842" lon="-105.230575">
  <ele>1586.09</ele>
  <time>2026-08-28T19:08:09Z</time>
  <course>263.32</course>
  <speed>0.0</speed>
  <fix>3d</fix>
</trkpt>
<trkpt lat="40.0728419" lon="-105.2305749">
  <ele>1586.16</ele>
  <time>2026-08-28T19:08:09Z</time>
  <course>10.21</course>
  <speed>0.022360679774997897</speed>
  <fix>3d</fix>
</trkpt>
<trkpt lat="40.072842" lon="-105.230575">
  <ele>1586.09</ele>
  <time>2026-08-28T19:08:09Z</time>
  <course>269.46</course>
  <speed>0.0</speed>
  <fix>3d</fix>
</trkpt>
<trkpt lat="40.0728419" lon="-105.2305749">
  <ele>1586.16</ele>
  <time>2026-08-28T19:08:09Z</time>
  <course>10.16</course>
  <speed>0.022360679774997897</speed>
  <fix>3d</fix>
</trkpt>
<trkpt lat="40.072842" lon="-105.230575">
  <ele>1586.09</ele>
  <time>2026-08-28T19:08:09Z</time>
  <course>269.14</course>
  <speed>0.0</speed>
  <fix>3d</fix>
</trkpt>
<trkpt lat="40.0728419" lon="-105.2305749">
  <ele>1586.16</ele>
  <time>2026-08-28T19:08:09Z</time>
  <course>10.11</course>
  <speed>0.022360679774997897</speed>
  <fix>3d</fix>
</trkpt>
<trkpt lat="40.072842" lon="-105.230575">
  <ele>1586.09</ele>
  <time>2026-08-28T19:08:09Z</time>
  <course>268.24</course>
  <speed>0.0</speed>
  <fix>3d</fix>
</trkpt>
<trkpt lat="40.0728419" lon="-105.2305749">
  <ele>1586.16</ele>
  <time>2026-08-28T19:08:09Z</time>
  <course>10.06</course>
  <speed>0.022360679774997897</speed>
  <fix>3d</fix>
</trkpt>
<trkpt lat="40.072842" lon="-105.230575">
  <ele>1586.09</ele>
  <time>2026-08-28T19:08:09Z</time>
  <course>268.22</course>
  <speed>0.0</speed>
  <fix>3d</fix>
</trkpt>
<trkpt lat="40.0728419" lon="-105.2305749">
  <ele>1586.16</ele>
  <time>2026-08-28T19:08:09Z</time>
  <course>10.01</course>
  <speed>0.022360679774997897</speed>
  <fix>3d</fix>
</trkpt>
<trkpt lat="40.072842" lon="-105.230575">
  <ele>1586.09</ele>
  <time>2026-08-28T19:08:09Z</time>
  <course>268.25</course>
  <speed>0.0</speed>
  <fix>3d</fix>
</trkpt>
<trkpt lat="40.0728419" lon="-105.2305749">
  <ele>1586.16</ele>
  <time>2026-08-28T19:08:09Z</time>
  <course>9.96</course>
  <speed>0.022360679774997897</speed>
  <fix>3d</fix>
</trkpt>
<trkpt lat="40.072842" lon="-105.230575">
  <ele>1586.09</ele>
  <time>2026-08-28T19:08:09Z</time>
  <course>268.13</course>
  <speed>0.0</speed>
  <fix>3d</fix>
</trkpt>
<trkpt lat="40.0728419" lon="-105.2305749">
  <ele>1586.16</ele>
  <time>2026-08-28T19:08:09Z</time>
  <course>9.91</course>
  <speed>0.022360679774997897</speed>
  <fix>3d</fix>
</trkpt>
<trkpt lat="40.072842" lon="-105.230575">
  <ele>1586.09</ele>
  <time>2026-08-28T19:08:09Z</time>
  <course>268.07</course>
  <speed>0.0</speed>
  <fix>3d</fix>
</trkpt>
<trkpt lat="40.0728419" lon="-105.2305749">
  <ele>1586.17</ele>
  <time>2026-08-28T19:08:09Z</time>
  <course>9.86</course>
  <speed>0.022360679774997897</speed>
  <fix>3d</fix>
</trkpt>
<trkpt lat="40.072842" lon="-105.230575">
  <ele>1586.09</ele>
  <time>2026-08-28T19:08:09Z</time>
  <course>268.0</course>
  <speed>0.0</speed>
  <fix>3d</fix>
</trkpt>
<trkpt lat="40.0728419" lon="-105.2305749">
  <ele>1586.17</ele>
  <time>2026-08-28T19:08:09Z</time>
  <course>9.81</course>
  <speed>0.022360679774997897</speed>
  <fix>3d</fix>
</trkpt>
<trkpt lat="40.072842" lon="-105.230575">
  <ele>1586.09</ele>
  <time>2026-08-28T19:08:09Z</time>
  <course>267.95</course>
  <speed>0.0</speed>
  <fix>3d</fix>
</trkpt>
<trkpt lat="40.0728419" lon="-105.2305749">
  <ele>1586.17</ele>
  <time>2026-08-28T19:08:09Z</time>
  <course>9.77</course>
  <speed>0.022360679774997897</speed>
  <fix>3d</fix>
</trkpt>
<trkpt lat="40.072842" lon="-105.230575">
  <ele>1586.09</ele>
  <time>2026-08-28T19:08:09Z</time>
  <course>267.86</course>
  <speed>0.0</speed>
  <fix>3d</fix>
</trkpt>
<trkpt lat="40.0728419" lon="-105.2305749">
  <ele>1586.17</ele>
  <time>2026-08-28T19:08:09Z</time>
  <course>9.72</course>
  <speed>0.022360679774997897</speed>
  <fix>3d</fix>
</trkpt>
<trkpt lat="40.072842" lon="-105.230575">
  <ele>1586.09</ele>
  <time>2026-08-28T19:08:09Z</time>
  <course>267.84</course>
  <speed>0.0</speed>
  <fix>3d</fix>
</trkpt>
<trkpt lat="40.0728419" lon="-105.2305749">
  <ele>1586.17</ele>
  <time>2026-08-28T19:08:09Z</time>
  <course>9.67</course>
  <speed>0.022360679774997897</speed>
  <fix>3d</fix>
</trkpt>
<trkpt lat="40.072842" lon="-105.230575">
  <ele>1586.09</ele>
  <time>2026-08-28T19:08:09Z</time>
  <course>267.77</course>
  <speed>0.0</speed>
  <fix>3d</fix>
</trkpt>
<trkpt lat="40.0728419" lon="-105.2305749">
  <ele>1586.17</ele>
  <time>2026-08-28T19:08:09Z</time>
  <course>9.63</course>
  <speed>0.022360679774997897</speed>
  <fix>3d</fix>
</trkpt>
<trkpt lat="40.072842" lon="-105.230575">
  <ele>1586.09</ele>
  <time>2026-08-28T19:08:09Z</time>
  <course>267.73</course>
  <speed>0.0</speed>
  <fix>3d</fix>
</trkpt>
<trkpt lat="40.0728419" lon="-105.2305749">
  <ele>1586.17</ele>
  <time>2026-08-28T19:08:09Z</time>
  <course>9.58</course>
  <speed>0.022360679774997897</speed>
  <fix>3d</fix>
</trkpt>
<trkpt lat="40.072842" lon="-105.230575">
  <ele>1586.09</ele>
  <time>2026-08-28T19:08:09Z</time>
  <course>267.61</course>
  <speed>0.0</speed>
  <fix>3d</fix>
</trkpt>
<trkpt lat="40.0728419" lon="-105.2305749">
  <ele>1586.17</ele>
  <time>2026-08-28T19:08:09Z</time>
  <course>9.54</course>
  <speed>0.022360679774997897</speed>
  <fix>3d</fix>
</trkpt>
<trkpt lat="40.072842" lon="-105.230575">
  <ele>1586.09</ele>
  <time>2026-08-28T19:08:09Z</time>
  <course>267.63</course>
  <speed>0.0</speed>
  <fix>3d</fix>
</trkpt>
<trkpt lat="40.0728419" lon="-105.2305749">
  <ele>1586.17</ele>
  <time>2026-08-28T19:08:09Z</time>
  <course>9.49</course>
  <speed>0.022360679774997897</speed>
  <fix>3d</fix>
</trkpt>
<trkpt lat="40.072842" lon="-105.230575">
  <ele>1586.09</ele>
  <time>2026-08-28T19:08:09Z</time>
  <course>267.44</course>
  <speed>0.0</speed>
  <fix>3d</fix>
</trkpt>
<trkpt lat="40.0728419" lon="-105.2305749">
  <ele>1586.17</ele>
  <time>2026-08-28T19:08:09Z</time>
  <course>9.45</course>
  <speed>0.022360679774997897</speed>
  <fix>3d</fix>
</trkpt>
<trkpt lat="40.072842" lon="-105.230575">
  <ele>1586.09</ele>
  <time>2026-08-28T19:08:09Z</time>
  <course>267.47</course>
  <speed>0.0</speed>
  <fix>3d</fix>
</trkpt>
<trkpt lat="40.0728419" lon="-105.2305749">
  <ele>1586.17</ele>
  <time>2026-08-28T19:08:09Z</time>
  <course>9.41</course>
  <speed>0.022360679774997897</speed>
  <fix>3d</fix>
</trkpt>
<trkpt lat="40.072842" lon="-105.230575">
  <ele>1586.09</ele>
  <time>2026-08-28T19:08:09Z</time>
  <course>263.46</course>
  <speed>0.0</speed>
  <fix>3d</fix>
</trkpt>
<trkpt lat="40.0728419" lon="-105.2305749">
  <ele>1586.17</ele>
  <time>2026-08-28T19:08:09Z</time>
  <course>9.37</course>
  <speed>0.022360679774997897</speed>
  <fix>3d</fix>
</trkpt>
<trkpt lat="40.072842" lon="-105.230575">
  <ele>1586.09</ele>
  <time>2026-08-28T19:08:09Z</time>
  <course>267.8</course>
  <speed>0.0</speed>
  <fix>3d</fix>
</trkpt>
<trkpt lat="40.0728419" lon="-105.2305749">
  <ele>1586.17</ele>
  <time>2026-08-28T19:08:09Z</time>
  <course>9.32</course>
  <speed>0.022360679774997897</speed>
  <fix>3d</fix>
</trkpt>
<trkpt lat="40.072842" lon="-105.230575">
  <ele>1586.09</ele>
  <time>2026-08-28T19:08:09Z</time>
  <course>271.73</course>
  <speed>0.0</speed>
  <fix>3d</fix>
</trkpt>
<trkpt lat="40.0728419" lon="-105.2305749">
  <ele>1586.17</ele>
  <time>2026-08-28T19:08:09Z</time>
  <course>9.28</course>
  <speed>0.022360679774997897</speed>
  <fix>3d</fix>
</trkpt>
<trkpt lat="40.072842" lon="-105.230575">
  <ele>1586.09</ele>
  <time>2026-08-28T19:08:09Z</time>
  <course>267.56</course>
  <speed>0.0</speed>
  <fix>3d</fix>
</trkpt>
<trkpt lat="40.0728419" lon="-105.2305749">
  <ele>1586.16</ele>
  <time>2026-08-28T19:08:09Z</time>
  <course>9.24</course>
  <speed>0.022360679774997897</speed>
  <fix>3d</fix>
</trkpt>
<trkpt lat="40.072842" lon="-105.230575">
  <ele>1586.09</ele>
  <time>2026-08-28T19:08:09Z</time>
  <course>266.96</course>
  <speed>0.0</speed>
  <fix>3d</fix>
</trkpt>
<trkpt lat="40.0728419" lon="-105.2305749">
  <ele>1586.16</ele>
  <time>2026-08-28T19:08:09Z</time>
  <course>9.2</course>
  <speed>0.022360679774997897</speed>
  <fix>3d</fix>
</trkpt>
<trkpt lat="40.072842" lon="-105.230575">
  <ele>1586.09</ele>
  <time>2026-08-28T19:08:09Z</time>
  <course>266.99</course>
  <speed>0.0</speed>
  <fix>3d</fix>
</trkpt>
<trkpt lat="40.0728419" lon="-105.2305749">
  <ele>1586.16</ele>
  <time>2026-08-28T19:08:09Z</time>
  <course>9.16</course>
  <speed>0.022360679774997897</speed>
  <fix>3d</fix>
</trkpt>
<trkpt lat="40.072842" lon="-105.230575">
  <ele>1586.09</ele>
  <time>2026-08-28T19:08:09Z</time>
  <course>267.2</course>
  <speed>0.0</speed>
  <fix>3d</fix>
</trkpt>
<trkpt lat="40.0728419" lon="-105.2305749">
  <ele>1586.16</ele>
  <time>2026-08-28T19:08:10Z</time>
  <course>9.12</course>
  <speed>0.022360679774997897</speed>
  <fix>3d</fix>
</trkpt>
<trkpt lat="40.072842" lon="-105.230575">
  <ele>1586.09</ele>
  <time>2026-08-28T19:08:10Z</time>
  <course>266.99</course>
  <speed>0.0</speed>
  <fix>3d</fix>
</trkpt>
<trkpt lat="40.0728419" lon="-105.2305749">
  <ele>1586.16</ele>
  <time>2026-08-28T19:08:10Z</time>
  <course>9.08</course>
  <speed>0.022360679774997897</speed>
  <fix>3d</fix>
</trkpt>
<trkpt lat="40.072842" lon="-105.230575">
  <ele>1586.09</ele>
  <time>2026-08-28T19:08:10Z</time>
  <course>267.07</course>
  <speed>0.0</speed>
  <fix>3d</fix>
</trkpt>
<trkpt lat="40.0728419" lon="-105.2305749">
  <ele>1586.16</ele>
  <time>2026-08-28T19:08:10Z</time>
  <course>9.04</course>
  <speed>0.022360679774997897</speed>
  <fix>3d</fix>
</trkpt>
<trkpt lat="40.072842" lon="-105.230575">
  <ele>1586.09</ele>
  <time>2026-08-28T19:08:10Z</time>
  <course>267.18</course>
  <speed>0.0</speed>
  <fix>3d</fix>
</trkpt>
<trkpt lat="40.0728419" lon="-105.2305749">
  <ele>1586.16</ele>
  <time>2026-08-28T19:08:10Z</time>
  <course>9.01</course>
  <speed>0.022360679774997897</speed>
  <fix>3d</fix>
</trkpt>
<trkpt lat="40.072842" lon="-105.230575">
  <ele>1586.09</ele>
  <time>2026-08-28T19:08:10Z</time>
  <course>266.72</course>
  <speed>0.0</speed>
  <fix>3d</fix>
</trkpt>
<trkpt lat="40.0728419" lon="-105.2305749">
  <ele>1586.16</ele>
  <time>2026-08-28T19:08:10Z</time>
  <course>8.97</course>
  <speed>0.022360679774997897</speed>
  <fix>3d</fix>
</trkpt>
<trkpt lat="40.072842" lon="-105.230575">
  <ele>1586.09</ele>
  <time>2026-08-28T19:08:10Z</time>
  <course>267.0</course>
  <speed>0.0</speed>
  <fix>3d</fix>
</trkpt>
<trkpt lat="40.0728419" lon="-105.2305749">
  <ele>1586.16</ele>
  <time>2026-08-28T19:08:10Z</time>
  <course>8.93</course>
  <speed>0.022360679774997897</speed>
  <fix>3d</fix>
</trkpt>
<trkpt lat="40.072842" lon="-105.230575">
  <ele>1586.09</ele>
  <time>2026-08-28T19:08:10Z</time>
  <course>266.83</course>
  <speed>0.0</speed>
  <fix>3d</fix>
</trkpt>
<trkpt lat="40.0728419" lon="-105.2305749">
  <ele>1586.16</ele>
  <time>2026-08-28T19:08:10Z</time>
  <course>8.89</course>
  <speed>0.022360679774997897</speed>
  <fix>3d</fix>
</trkpt>
<trkpt lat="40.072842" lon="-105.230575">
  <ele>1586.09</ele>
  <time>2026-08-28T19:08:10Z</time>
  <course>266.81</course>
  <speed>0.0</speed>
  <fix>3d</fix>
</trkpt>
<trkpt lat="40.0728419" lon="-105.2305749">
  <ele>1586.15</ele>
  <time>2026-08-28T19:08:10Z</time>
  <course>8.86</course>
  <speed>0.022360679774997897</speed>
  <fix>3d</fix>
</trkpt>
<trkpt lat="40.072842" lon="-105.230575">
  <ele>1586.09</ele>
  <time>2026-08-28T19:08:10Z</time>
  <course>267.03</course>
  <speed>0.0</speed>
  <fix>3d</fix>
</trkpt>
<trkpt lat="40.0728419" lon="-105.2305749">
  <ele>1586.15</ele>
  <time>2026-08-28T19:08:10Z</time>
  <course>8.82</course>
  <speed>0.022360679774997897</speed>
  <fix>3d</fix>
</trkpt>
<trkpt lat="40.072842" lon="-105.230575">
  <ele>1586.09</ele>
  <time>2026-08-28T19:08:10Z</time>
  <course>266.53</course>
  <speed>0.0</speed>
  <fix>3d</fix>
</trkpt>
<trkpt lat="40.0728419" lon="-105.2305749">
  <ele>1586.15</ele>
  <time>2026-08-28T19:08:10Z</time>
  <course>8.79</course>
  <speed>0.01414213562373095</speed>
  <fix>3d</fix>
</trkpt>
<trkpt lat="40.072842" lon="-105.230575">
  <ele>1586.09</ele>
  <time>2026-08-28T19:08:10Z</time>
  <course>266.81</course>
  <speed>0.0</speed>
  <fix>3d</fix>
</trkpt>
<trkpt lat="40.0728419" lon="-105.2305749">
  <ele>1586.15</ele>
  <time>2026-08-28T19:08:10Z</time>
  <course>8.75</course>
  <speed>0.01414213562373095</speed>
  <fix>3d</fix>
</trkpt>
<trkpt lat="40.072842" lon="-105.230575">
  <ele>1586.09</ele>
  <time>2026-08-28T19:08:10Z</time>
  <course>266.92</course>
  <speed>0.0</speed>
  <fix>3d</fix>
</trkpt>
<trkpt lat="40.0728419" lon="-105.2305749">
  <ele>1586.15</ele>
  <time>2026-08-28T19:08:10Z</time>
  <course>8.72</course>
  <speed>0.01414213562373095</speed>
  <fix>3d</fix>
</trkpt>
<trkpt lat="40.072842" lon="-105.230575">
  <ele>1586.09</ele>
  <time>2026-08-28T19:08:10Z</time>
  <course>266.09</course>
  <speed>0.0</speed>
  <fix>3d</fix>
</trkpt>
<trkpt lat="40.0728419" lon="-105.2305749">
  <ele>1586.16</ele>
  <time>2026-08-28T19:08:10Z</time>
  <course>8.68</course>
  <speed>0.01414213562373095</speed>
  <fix>3d</fix>
</trkpt>
<trkpt lat="40.072842" lon="-105.230575">
  <ele>1586.09</ele>
  <time>2026-08-28T19:08:10Z</time>
  <course>266.69</course>
  <speed>0.0</speed>
  <fix>3d</fix>
</trkpt>
<trkpt lat="40.0728419" lon="-105.2305749">
  <ele>1586.16</ele>
  <time>2026-08-28T19:08:10Z</time>
  <course>8.65</course>
  <speed>0.01414213562373095</speed>
  <fix>3d</fix>
</trkpt>
<trkpt lat="40.072842" lon="-105.230575">
  <ele>1586.09</ele>
  <time>2026-08-28T19:08:10Z</time>
  <course>266.74</course>
  <speed>0.0</speed>
  <fix>3d</fix>
</trkpt>
<trkpt lat="40.0728419" lon="-105.2305749">
  <ele>1586.16</ele>
  <time>2026-08-28T19:08:10Z</time>
  <course>8.61</course>
  <speed>0.01414213562373095</speed>
  <fix>3d</fix>
</trkpt>
<trkpt lat="40.072842" lon="-105.230575">
  <ele>1586.09</ele>
  <time>2026-08-28T19:08:10Z</time>
  <course>266.2</course>
  <speed>0.0</speed>
  <fix>3d</fix>
</trkpt>
<trkpt lat="40.0728419" lon="-105.2305749">
  <ele>1586.16</ele>
  <time>2026-08-28T19:08:10Z</time>
  <course>8.58</course>
  <speed>0.01414213562373095</speed>
  <fix>3d</fix>
</trkpt>
<trkpt lat="40.072842" lon="-105.230575">
  <ele>1586.09</ele>
  <time>2026-08-28T19:08:10Z</time>
  <course>266.69</course>
  <speed>0.0</speed>
  <fix>3d</fix>
</trkpt>
<trkpt lat="40.0728419" lon="-105.2305749">
  <ele>1586.16</ele>
  <time>2026-08-28T19:08:10Z</time>
  <course>8.55</course>
  <speed>0.01414213562373095</speed>
  <fix>3d</fix>
</trkpt>
<trkpt lat="40.072842" lon="-105.230575">
  <ele>1586.09</ele>
  <time>2026-08-28T19:08:10Z</time>
  <course>266.57</course>
  <speed>0.0</speed>
  <fix>3d</fix>
</trkpt>
<trkpt lat="40.0728419" lon="-105.2305749">
  <ele>1586.17</ele>
  <time>2026-08-28T19:08:10Z</time>
  <course>8.52</course>
  <speed>0.01414213562373095</speed>
  <fix>3d</fix>
</trkpt>
<trkpt lat="40.072842" lon="-105.230575">
  <ele>1586.09</ele>
  <time>2026-08-28T19:08:10Z</time>
  <course>265.65</course>
  <speed>0.0</speed>
  <fix>3d</fix>
</trkpt>
<trkpt lat="40.0728419" lon="-105.2305749">
  <ele>1586.17</ele>
  <time>2026-08-28T19:08:10Z</time>
  <course>8.48</course>
  <speed>0.01414213562373095</speed>
  <fix>3d</fix>
</trkpt>
<trkpt lat="40.072842" lon="-105.230575">
  <ele>1586.09</ele>
  <time>2026-08-28T19:08:10Z</time>
  <course>266.61</course>
  <speed>0.0</speed>
  <fix>3d</fix>
</trkpt>
<trkpt lat="40.0728419" lon="-105.2305749">
  <ele>1586.17</ele>
  <time>2026-08-28T19:08:10Z</time>
  <course>8.45</course>
  <speed>0.01414213562373095</speed>
  <fix>3d</fix>
</trkpt>
<trkpt lat="40.072842" lon="-105.230575">
  <ele>1586.09</ele>
  <time>2026-08-28T19:08:10Z</time>
  <course>266.64</course>
  <speed>0.0</speed>
  <fix>3d</fix>
</trkpt>
<trkpt lat="40.0728419" lon="-105.2305749">
  <ele>1586.17</ele>
  <time>2026-08-28T19:08:10Z</time>
  <course>8.42</course>
  <speed>0.01414213562373095</speed>
  <fix>3d</fix>
</trkpt>
<trkpt lat="40.072842" lon="-105.230575">
  <ele>1586.09</ele>
  <time>2026-08-28T19:08:10Z</time>
  <course>265.78</course>
  <speed>0.0</speed>
  <fix>3d</fix>
</trkpt>
<trkpt lat="40.0728419" lon="-105.2305749">
  <ele>1586.17</ele>
  <time>2026-08-28T19:08:10Z</time>
  <course>8.39</course>
  <speed>0.01414213562373095</speed>
  <fix>3d</fix>
</trkpt>
<trkpt lat="40.072842" lon="-105.230575">
  <ele>1586.09</ele>
  <time>2026-08-28T19:08:10Z</time>
  <course>266.52</course>
  <speed>0.0</speed>
  <fix>3d</fix>
</trkpt>
<trkpt lat="40.0728419" lon="-105.2305749">
  <ele>1586.17</ele>
  <time>2026-08-28T19:08:10Z</time>
  <course>8.36</course>
  <speed>0.01414213562373095</speed>
  <fix>3d</fix>
</trkpt>
<trkpt lat="40.072842" lon="-105.230575">
  <ele>1586.09</ele>
  <time>2026-08-28T19:08:10Z</time>
  <course>266.58</course>
  <speed>0.0</speed>
  <fix>3d</fix>
</trkpt>
<trkpt lat="40.0728419" lon="-105.2305749">
  <ele>1586.18</ele>
  <time>2026-08-28T19:08:10Z</time>
  <course>8.33</course>
  <speed>0.01414213562373095</speed>
  <fix>3d</fix>
</trkpt>
<trkpt lat="40.072842" lon="-105.230575">
  <ele>1586.09</ele>
  <time>2026-08-28T19:08:10Z</time>
  <course>265.8</course>
  <speed>0.0</speed>
  <fix>3d</fix>
</trkpt>
<trkpt lat="40.0728419" lon="-105.2305749">
  <ele>1586.18</ele>
  <time>2026-08-28T19:08:10Z</time>
  <course>8.3</course>
  <speed>0.01414213562373095</speed>
  <fix>3d</fix>
</trkpt>
<trkpt lat="40.072842" lon="-105.230575">
  <ele>1586.09</ele>
  <time>2026-08-28T19:08:10Z</time>
  <course>266.48</course>
  <speed>0.0</speed>
  <fix>3d</fix>
</trkpt>
<trkpt lat="40.0728419" lon="-105.2305749">
  <ele>1586.18</ele>
  <time>2026-08-28T19:08:10Z</time>
  <course>8.27</course>
  <speed>0.01414213562373095</speed>
  <fix>3d</fix>
</trkpt>
<trkpt lat="40.072842" lon="-105.230575">
  <ele>1586.09</ele>
  <time>2026-08-28T19:08:10Z</time>
  <course>266.56</course>
  <speed>0.0</speed>
  <fix>3d</fix>
</trkpt>
<trkpt lat="40.0728419" lon="-105.2305749">
  <ele>1586.17</ele>
  <time>2026-08-28T19:08:10Z</time>
  <course>8.24</course>
  <speed>0.01414213562373095</speed>
  <fix>3d</fix>
</trkpt>
<trkpt lat="40.072842" lon="-105.230575">
  <ele>1586.09</ele>
  <time>2026-08-28T19:08:10Z</time>
  <course>265.93</course>
  <speed>0.0</speed>
  <fix>3d</fix>
</trkpt>
<trkpt lat="40.0728419" lon="-105.2305749">
  <ele>1586.17</ele>
  <time>2026-08-28T19:08:10Z</time>
  <course>8.21</course>
  <speed>0.01414213562373095</speed>
  <fix>3d</fix>
</trkpt>
<trkpt lat="40.072842" lon="-105.230575">
  <ele>1586.09</ele>
  <time>2026-08-28T19:08:10Z</time>
  <course>266.35</course>
  <speed>0.0</speed>
  <fix>3d</fix>
</trkpt>
<trkpt lat="40.0728419" lon="-105.2305749">
  <ele>1586.17</ele>
  <time>2026-08-28T19:08:10Z</time>
  <course>8.18</course>
  <speed>0.01414213562373095</speed>
  <fix>3d</fix>
</trkpt>
<trkpt lat="40.072842" lon="-105.230575">
  <ele>1586.09</ele>
  <time>2026-08-28T19:08:10Z</time>
  <course>266.52</course>
  <speed>0.0</speed>
  <fix>3d</fix>
</trkpt>
<trkpt lat="40.0728419" lon="-105.2305749">
  <ele>1586.17</ele>
  <time>2026-08-28T19:08:10Z</time>
  <course>8.16</course>
  <speed>0.01414213562373095</speed>
  <fix>3d</fix>
</trkpt>
<trkpt lat="40.072842" lon="-105.230575">
  <ele>1586.09</ele>
  <time>2026-08-28T19:08:10Z</time>
  <course>266.13</course>
  <speed>0.0</speed>
  <fix>3d</fix>
</trkpt>
<trkpt lat="40.0728419" lon="-105.2305749">
  <ele>1586.17</ele>
  <time>2026-08-28T19:08:10Z</time>
  <course>8.13</course>
  <speed>0.01414213562373095</speed>
  <fix>3d</fix>
</trkpt>
<trkpt lat="40.072842" lon="-105.230575">
  <ele>1586.09</ele>
  <time>2026-08-28T19:08:10Z</time>
  <course>265.61</course>
  <speed>0.0</speed>
  <fix>3d</fix>
</trkpt>
<trkpt lat="40.0728419" lon="-105.2305749">
  <ele>1586.17</ele>
  <time>2026-08-28T19:08:10Z</time>
  <course>8.1</course>
  <speed>0.01414213562373095</speed>
  <fix>3d</fix>
</trkpt>
<trkpt lat="40.072842" lon="-105.230575">
  <ele>1586.09</ele>
  <time>2026-08-28T19:08:10Z</time>
  <course>266.38</course>
  <speed>0.0</speed>
  <fix>3d</fix>
</trkpt>
<trkpt lat="40.0728419" lon="-105.2305749">
  <ele>1586.17</ele>
  <time>2026-08-28T19:08:10Z</time>
  <course>8.07</course>
  <speed>0.01414213562373095</speed>
  <fix>3d</fix>
</trkpt>
<trkpt lat="40.072842" lon="-105.230575">
  <ele>1586.09</ele>
  <time>2026-08-28T19:08:10Z</time>
  <course>266.43</course>
  <speed>0.0</speed>
  <fix>3d</fix>
</trkpt>
<trkpt lat="40.0728419" lon="-105.2305749">
  <ele>1586.17</ele>
  <time>2026-08-28T19:08:10Z</time>
  <course>8.05</course>
  <speed>0.01414213562373095</speed>
  <fix>3d</fix>
</trkpt>
<trkpt lat="40.072842" lon="-105.230575">
  <ele>1586.09</ele>
  <time>2026-08-28T19:08:10Z</time>
  <course>265.87</course>
  <speed>0.0</speed>
  <fix>3d</fix>
</trkpt>
<trkpt lat="40.0728419" lon="-105.2305749">
  <ele>1586.17</ele>
  <time>2026-08-28T19:08:10Z</time>
  <course>8.02</course>
  <speed>0.01414213562373095</speed>
  <fix>3d</fix>
</trkpt>
<trkpt lat="40.072842" lon="-105.230575">
  <ele>1586.09</ele>
  <time>2026-08-28T19:08:10Z</time>
  <course>265.66</course>
  <speed>0.0</speed>
  <fix>3d</fix>
</trkpt>
<trkpt lat="40.0728419" lon="-105.2305749">
  <ele>1586.18</ele>
  <time>2026-08-28T19:08:10Z</time>
  <course>7.99</course>
  <speed>0.01414213562373095</speed>
  <fix>3d</fix>
</trkpt>
<trkpt lat="40.072842" lon="-105.230575">
  <ele>1586.09</ele>
  <time>2026-08-28T19:08:10Z</time>
  <course>266.26</course>
  <speed>0.0</speed>
  <fix>3d</fix>
</trkpt>
<trkpt lat="40.0728419" lon="-105.2305749">
  <ele>1586.17</ele>
  <time>2026-08-28T19:08:10Z</time>
  <course>7.97</course>
  <speed>0.01414213562373095</speed>
  <fix>3d</fix>
</trkpt>
<trkpt lat="40.072842" lon="-105.230575">
  <ele>1586.09</ele>
  <time>2026-08-28T19:08:10Z</time>
  <course>266.24</course>
  <speed>0.0</speed>
  <fix>3d</fix>
</trkpt>
<trkpt lat="40.0728419" lon="-105.2305749">
  <ele>1586.17</ele>
  <time>2026-08-28T19:08:10Z</time>
  <course>7.94</course>
  <speed>0.01414213562373095</speed>
  <fix>3d</fix>
</trkpt>
<trkpt lat="40.072842" lon="-105.230575">
  <ele>1586.09</ele>
  <time>2026-08-28T19:08:10Z</time>
  <course>265.57</course>
  <speed>0.0</speed>
  <fix>3d</fix>
</trkpt>
<trkpt lat="40.0728419" lon="-105.2305749">
  <ele>1586.16</ele>
  <time>2026-08-28T19:08:10Z</time>
  <course>7.92</course>
  <speed>0.01414213562373095</speed>
  <fix>3d</fix>
</trkpt>
<trkpt lat="40.072842" lon="-105.230575">
  <ele>1586.09</ele>
  <time>2026-08-28T19:08:10Z</time>
  <course>263.51</course>
  <speed>0.0</speed>
  <fix>3d</fix>
</trkpt>
<trkpt lat="40.0728419" lon="-105.2305749">
  <ele>1586.16</ele>
  <time>2026-08-28T19:08:10Z</time>
  <course>7.89</course>
  <speed>0.01414213562373095</speed>
  <fix>3d</fix>
</trkpt>
<trkpt lat="40.072842" lon="-105.230575">
  <ele>1586.09</ele>
  <time>2026-08-28T19:08:10Z</time>
  <course>261.02</course>
  <speed>0.0</speed>
  <fix>3d</fix>
</trkpt>
<trkpt lat="40.0728419" lon="-105.2305749">
  <ele>1586.16</ele>
  <time>2026-08-28T19:08:10Z</time>
  <course>7.87</course>
  <speed>0.01414213562373095</speed>
  <fix>3d</fix>
</trkpt>
<trkpt lat="40.072842" lon="-105.230575">
  <ele>1586.09</ele>
  <time>2026-08-28T19:08:10Z</time>
  <course>257.3</course>
  <speed>0.0</speed>
  <fix>3d</fix>
</trkpt>
<trkpt lat="40.0728419" lon="-105.2305749">
  <ele>1586.16</ele>
  <time>2026-08-28T19:08:10Z</time>
  <course>7.84</course>
  <speed>0.01414213562373095</speed>
  <fix>3d</fix>
</trkpt>
<trkpt lat="40.072842" lon="-105.230575">
  <ele>1586.09</ele>
  <time>2026-08-28T19:08:10Z</time>
  <course>262.44</course>
  <speed>0.0</speed>
  <fix>3d</fix>
</trkpt>
<trkpt lat="40.0728419" lon="-105.2305749">
  <ele>1586.16</ele>
  <time>2026-08-28T19:08:10Z</time>
  <course>7.82</course>
  <speed>0.01414213562373095</speed>
  <fix>3d</fix>
</trkpt>
<trkpt lat="40.072842" lon="-105.230575">
  <ele>1586.09</ele>
  <time>2026-08-28T19:08:10Z</time>
  <course>267.14</course>
  <speed>0.0</speed>
  <fix>3d</fix>
</trkpt>
<trkpt lat="40.0728419" lon="-105.2305749">
  <ele>1586.17</ele>
  <time>2026-08-28T19:08:10Z</time>
  <course>7.8</course>
  <speed>0.01414213562373095</speed>
  <fix>3d</fix>
</trkpt>
<trkpt lat="40.072842" lon="-105.230575">
  <ele>1586.09</ele>
  <time>2026-08-28T19:08:10Z</time>
  <course>267.17</course>
  <speed>0.0</speed>
  <fix>3d</fix>
</trkpt>
<trkpt lat="40.0728419" lon="-105.2305749">
  <ele>1586.17</ele>
  <time>2026-08-28T19:08:10Z</time>
  <course>7.78</course>
  <speed>0.01414213562373095</speed>
  <fix>3d</fix>
</trkpt>
<trkpt lat="40.072842" lon="-105.230575">
  <ele>1586.09</ele>
  <time>2026-08-28T19:08:10Z</time>
  <course>272.39</course>
  <speed>0.0</speed>
  <fix>3d</fix>
</trkpt>
<trkpt lat="40.0728419" lon="-105.2305749">
  <ele>1586.17</ele>
  <time>2026-08-28T19:08:10Z</time>
  <course>7.77</course>
  <speed>0.01414213562373095</speed>
  <fix>3d</fix>
</trkpt>
<trkpt lat="40.072842" lon="-105.230575">
  <ele>1586.09</ele>
  <time>2026-08-28T19:08:10Z</time>
  <course>270.37</course>
  <speed>0.0</speed>
  <fix>3d</fix>
</trkpt>
<trkpt lat="40.0728419" lon="-105.2305749">
  <ele>1586.17</ele>
  <time>2026-08-28T19:08:10Z</time>
  <course>7.75</course>
  <speed>0.01414213562373095</speed>
  <fix>3d</fix>
</trkpt>
<trkpt lat="40.072842" lon="-105.230575">
  <ele>1586.09</ele>
  <time>2026-08-28T19:08:10Z</time>
  <course>265.63</course>
  <speed>0.0</speed>
  <fix>3d</fix>
</trkpt>
<trkpt lat="40.0728419" lon="-105.2305749">
  <ele>1586.17</ele>
  <time>2026-08-28T19:08:10Z</time>
  <course>7.75</course>
  <speed>0.01414213562373095</speed>
  <fix>3d</fix>
</trkpt>
<trkpt lat="40.0728419" lon="-105.2305749">
  <ele>1586.17</ele>
  <time>2026-08-28T19:08:10Z</time>
  <course>7.73</course>
  <speed>0.01414213562373095</speed>
  <fix>3d</fix>
</trkpt>
<trkpt lat="40.072842" lon="-105.230575">
  <ele>1586.09</ele>
  <time>2026-08-28T19:08:10Z</time>
  <course>266.69</course>
  <speed>0.0</speed>
  <fix>3d</fix>
</trkpt>
<trkpt lat="40.0728419" lon="-105.2305749">
  <ele>1586.17</ele>
  <time>2026-08-28T19:08:10Z</time>
  <course>7.72</course>
  <speed>0.01414213562373095</speed>
  <fix>3d</fix>
</trkpt>
<trkpt lat="40.0728419" lon="-105.2305749">
  <ele>1586.18</ele>
  <time>2026-08-28T19:08:10Z</time>
  <course>7.69</course>
  <speed>0.01414213562373095</speed>
  <fix>3d</fix>
</trkpt>
<trkpt lat="40.072842" lon="-105.230575">
  <ele>1586.09</ele>
  <time>2026-08-28T19:08:10Z</time>
  <course>266.9</course>
  <speed>0.0</speed>
  <fix>3d</fix>
</trkpt>
<trkpt lat="40.0728419" lon="-105.2305749">
  <ele>1586.18</ele>
  <time>2026-08-28T19:08:10Z</time>
  <course>7.69</course>
  <speed>0.01414213562373095</speed>
  <fix>3d</fix>
</trkpt>
<trkpt lat="40.0728419" lon="-105.2305749">
  <ele>1586.2</ele>
  <time>2026-08-28T19:08:10Z</time>
  <course>7.64</course>
  <speed>0.01414213562373095</speed>
  <fix>3d</fix>
</trkpt>
<trkpt lat="40.072842" lon="-105.230575">
  <ele>1586.09</ele>
  <time>2026-08-28T19:08:10Z</time>
  <course>266.21</course>
  <speed>0.0</speed>
  <fix>3d</fix>
</trkpt>
<trkpt lat="40.0728419" lon="-105.2305749">
  <ele>1586.21</ele>
  <time>2026-08-28T19:08:10Z</time>
  <course>7.63</course>
  <speed>0.01414213562373095</speed>
  <fix>3d</fix>
</trkpt>
<trkpt lat="40.0728419" lon="-105.2305749">
  <ele>1586.26</ele>
  <time>2026-08-28T19:08:10Z</time>
  <course>7.56</course>
  <speed>0.01414213562373095</speed>
  <fix>3d</fix>
</trkpt>
<trkpt lat="40.072842" lon="-105.230575">
  <ele>1586.12</ele>
  <time>2026-08-28T19:08:10Z</time>
  <course>269.75</course>
  <speed>0.0</speed>
  <fix>3d</fix>
</trkpt>
<trkpt lat="40.0728419" lon="-105.2305749">
  <ele>1586.26</ele>
  <time>2026-08-28T19:08:10Z</time>
  <course>7.56</course>
  <speed>0.01414213562373095</speed>
  <fix>3d</fix>
</trkpt>
<trkpt lat="40.0728419" lon="-105.2305749">
  <ele>1586.35</ele>
  <time>2026-08-28T19:08:10Z</time>
  <course>5.48</course>
  <speed>0.01</speed>
  <fix>3d</fix>
</trkpt>
<trkpt lat="40.072842" lon="-105.230575">
  <ele>1586.18</ele>
  <time>2026-08-28T19:08:10Z</time>
  <course>275.0</course>
  <speed>0.0</speed>
  <fix>3d</fix>
</trkpt>
<trkpt lat="40.0728419" lon="-105.2305749">
  <ele>1586.37</ele>
  <time>2026-08-28T19:08:10Z</time>
  <course>4.16</course>
  <speed>0.01414213562373095</speed>
  <fix>3d</fix>
</trkpt>
<trkpt lat="40.0728419" lon="-105.2305751">
  <ele>1586.65</ele>
  <time>2026-08-28T19:08:10Z</time>
  <course>359.26</course>
  <speed>0.18</speed>
  <fix>3d</fix>
</trkpt>
<trkpt lat="40.072842" lon="-105.2305751">
  <ele>1586.34</ele>
  <time>2026-08-28T19:08:10Z</time>
  <course>263.14</course>
  <speed>0.08</speed>
  <fix>3d</fix>
</trkpt>
<trkpt lat="40.0728419" lon="-105.2305752">
  <ele>1586.72</ele>
  <time>2026-08-28T19:08:10Z</time>
  <course>359.13</course>
  <speed>0.2002498439450079</speed>
  <fix>3d</fix>
</trkpt>
<trkpt lat="40.0728419" lon="-105.2305756">
  <ele>1587.03</ele>
  <time>2026-08-28T19:08:10Z</time>
  <course>358.48</course>
  <speed>0.25079872407968906</speed>
  <fix>3d</fix>
</trkpt>
<trkpt lat="40.072842" lon="-105.2305754">
  <ele>1586.65</ele>
  <time>2026-08-28T19:08:10Z</time>
  <course>261.22</course>
  <speed>0.2</speed>
  <fix>3d</fix>
</trkpt>
<trkpt lat="40.0728419" lon="-105.2305758">
  <ele>1587.1</ele>
  <time>2026-08-28T19:08:10Z</time>
  <course>358.22</course>
  <speed>0.25079872407968906</speed>
  <fix>3d</fix>
</trkpt>
<trkpt lat="40.0728418" lon="-105.2305763">
  <ele>1587.42</ele>
  <time>2026-08-28T19:08:10Z</time>
  <course>356.88</course>
  <speed>0.2668332812825267</speed>
  <fix>3d</fix>
</trkpt>
<trkpt lat="40.0728419" lon="-105.2305759">
  <ele>1587.04</ele>
  <time>2026-08-28T19:08:10Z</time>
  <course>256.91</course>
  <speed>0.27</speed>
  <fix>3d</fix>
</trkpt>
<trkpt lat="40.0728418" lon="-105.2305764">
  <ele>1587.48</ele>
  <time>2026-08-28T19:08:10Z</time>
  <course>356.66</course>
  <speed>0.2668332812825267</speed>
  <fix>3d</fix>
</trkpt>
<trkpt lat="40.0728417" lon="-105.2305769">
  <ele>1587.85</ele>
  <time>2026-08-28T19:08:10Z</time>
  <course>355.69</course>
  <speed>0.25079872407968906</speed>
  <fix>3d</fix>
</trkpt>
<trkpt lat="40.0728418" lon="-105.2305765">
  <ele>1587.44</ele>
  <time>2026-08-28T19:08:10Z</time>
  <course>249.69</course>
  <speed>0.27</speed>
  <fix>3d</fix>
</trkpt>
<trkpt lat="40.0728417" lon="-105.2305769">
  <ele>1587.86</ele>
  <time>2026-08-28T19:08:10Z</time>
  <course>355.68</course>
  <speed>0.25079872407968906</speed>
  <fix>3d</fix>
</trkpt>
<trkpt lat="40.0728415" lon="-105.2305773">
  <ele>1588.31</ele>
  <time>2026-08-28T19:08:10Z</time>
  <course>355.15</course>
  <speed>0.21400934559032694</speed>
  <fix>3d</fix>
</trkpt>
<trkpt lat="40.0728415" lon="-105.2305771">
  <ele>1587.87</ele>
  <time>2026-08-28T19:08:10Z</time>
  <course>240.27</course>
  <speed>0.24</speed>
  <fix>3d</fix>
</trkpt>
<trkpt lat="40.0728414" lon="-105.2305774">
  <ele>1588.38</ele>
  <time>2026-08-28T19:08:10Z</time>
  <course>355.11</course>
  <speed>0.212602916254693</speed>
  <fix>3d</fix>
</trkpt>
<trkpt lat="40.0728412" lon="-105.2305777">
  <ele>1588.8</ele>
  <time>2026-08-28T19:08:10Z</time>
  <course>354.98</course>
  <speed>0.17492855684535902</speed>
  <fix>3d</fix>
</trkpt>
<trkpt lat="40.0728413" lon="-105.2305776">
  <ele>1588.32</ele>
  <time>2026-08-28T19:08:10Z</time>
  <course>228.4</course>
  <speed>0.2</speed>
  <fix>3d</fix>
</trkpt>
<trkpt lat="40.0728412" lon="-105.2305777">
  <ele>1588.82</ele>
  <time>2026-08-28T19:08:10Z</time>
  <course>354.98</course>
  <speed>0.17492855684535902</speed>
  <fix>3d</fix>
</trkpt>
<trkpt lat="40.0728409" lon="-105.2305778">
  <ele>1589.28</ele>
  <time>2026-08-28T19:08:10Z</time>
  <course>353.05</course>
  <speed>0.14317821063276354</speed>
  <fix>3d</fix>
</trkpt>
<trkpt lat="40.0728411" lon="-105.2305778">
  <ele>1588.8</ele>
  <time>2026-08-28T19:08:10Z</time>
  <course>213.2</course>
  <speed>0.15</speed>
  <fix>3d</fix>
</trkpt>
<trkpt lat="40.0728409" lon="-105.2305778">
  <ele>1589.35</ele>
  <time>2026-08-28T19:08:10Z</time>
  <course>353.01</course>
  <speed>0.1414213562373095</speed>
  <fix>3d</fix>
</trkpt>
<trkpt lat="40.0728407" lon="-105.2305779">
  <ele>1589.78</ele>
  <time>2026-08-28T19:08:10Z</time>
  <course>353.12</course>
  <speed>0.13152946437965907</speed>
  <fix>3d</fix>
</trkpt>
<trkpt lat="40.0728409" lon="-105.230578">
  <ele>1589.28</ele>
  <time>2026-08-28T19:08:10Z</time>
  <course>192.56</course>
  <speed>0.11</speed>
  <fix>3d</fix>
</trkpt>
<trkpt lat="40.0728407" lon="-105.2305779">
  <ele>1589.84</ele>
  <time>2026-08-28T19:08:10Z</time>
  <course>353.2</course>
  <speed>0.12369316876852982</speed>
  <fix>3d</fix>
</trkpt>
<trkpt lat="40.0728405" lon="-105.2305778">
  <ele>1590.27</ele>
  <time>2026-08-28T19:08:10Z</time>
  <course>353.72</course>
  <speed>0.12041594578792296</speed>
  <fix>3d</fix>
</trkpt>
<trkpt lat="40.0728407" lon="-105.230578">
  <ele>1589.77</ele>
  <time>2026-08-28T19:08:10Z</time>
  <course>159.15</course>
  <speed>0.08</speed>
  <fix>3d</fix>
</trkpt>
<trkpt lat="40.0728405" lon="-105.2305778">
  <ele>1590.27</ele>
  <time>2026-08-28T19:08:10Z</time>
  <course>353.73</course>
  <speed>0.12041594578792296</speed>
  <fix>3d</fix>
</trkpt>
<trkpt lat="40.0728404" lon="-105.2305776">
  <ele>1590.76</ele>
  <time>2026-08-28T19:08:10Z</time>
  <course>354.22</course>
  <speed>0.13</speed>
  <fix>3d</fix>
</trkpt>
<trkpt lat="40.0728406" lon="-105.2305779">
  <ele>1590.26</ele>
  <time>2026-08-28T19:08:10Z</time>
  <course>119.27</course>
  <speed>0.09</speed>
  <fix>3d</fix>
</trkpt>
<trkpt lat="40.0728404" lon="-105.2305776">
  <ele>1590.83</ele>
  <time>2026-08-28T19:08:10Z</time>
  <course>354.29</course>
  <speed>0.13601470508735444</speed>
  <fix>3d</fix>
</trkpt>
<trkpt lat="40.0728405" lon="-105.2305773">
  <ele>1591.26</ele>
  <time>2026-08-28T19:08:10Z</time>
  <course>354.65</course>
  <speed>0.15033296378372907</speed>
  <fix>3d</fix>
</trkpt>
<trkpt lat="40.0728406" lon="-105.2305777">
  <ele>1590.76</ele>
  <time>2026-08-28T19:08:10Z</time>
  <course>94.73</course>
  <speed>0.11</speed>
  <fix>3d</fix>
</trkpt>
<trkpt lat="40.0728405" lon="-105.2305773">
  <ele>1591.33</ele>
  <time>2026-08-28T19:08:10Z</time>
  <course>354.71</course>
  <speed>0.15</speed>
  <fix>3d</fix>
</trkpt>
<trkpt lat="40.0728405" lon="-105.230577">
  <ele>1591.76</ele>
  <time>2026-08-28T19:08:10Z</time>
  <course>355.05</course>
  <speed>0.1711724276862369</speed>
  <fix>3d</fix>
</trkpt>
<trkpt lat="40.0728406" lon="-105.2305774">
  <ele>1591.25</ele>
  <time>2026-08-28T19:08:10Z</time>
  <course>82.84</course>
  <speed>0.14</speed>
  <fix>3d</fix>
</trkpt>
<trkpt lat="40.0728405" lon="-105.230577">
  <ele>1591.83</ele>
  <time>2026-08-28T19:08:10Z</time>
  <course>355.11</course>
  <speed>0.1711724276862369</speed>
  <fix>3d</fix>
</trkpt>
<trkpt lat="40.0728406" lon="-105.2305767">
  <ele>1592.27</ele>
  <time>2026-08-28T19:08:10Z</time>
  <course>355.46</course>
  <speed>0.17464249196572978</speed>
  <fix>3d</fix>
</trkpt>
<trkpt lat="40.0728406" lon="-105.230577">
  <ele>1591.75</ele>
  <time>2026-08-28T19:08:10Z</time>
  <course>77.23</course>
  <speed>0.15</speed>
  <fix>3d</fix>
</trkpt>
<trkpt lat="40.0728406" lon="-105.2305766">
  <ele>1592.33</ele>
  <time>2026-08-28T19:08:10Z</time>
  <course>355.51</course>
  <speed>0.1772004514666935</speed>
  <fix>3d</fix>
</trkpt>
<trkpt lat="40.0728407" lon="-105.2305763">
  <ele>1592.77</ele>
  <time>2026-08-28T19:08:10Z</time>
  <course>355.89</course>
  <speed>0.18027756377319945</speed>
  <fix>3d</fix>
</trkpt>
<trkpt lat="40.0728407" lon="-105.2305767">
  <ele>1592.25</ele>
  <time>2026-08-28T19:08:10Z</time>
  <course>74.67</course>
  <speed>0.16</speed>
  <fix>3d</fix>
</trkpt>
<trkpt lat="40.0728407" lon="-105.2305763">
  <ele>1592.78</ele>
  <time>2026-08-28T19:08:10Z</time>
  <course>355.89</course>
  <speed>0.18027756377319945</speed>
  <fix>3d</fix>
</trkpt>
<trkpt lat="40.0728408" lon="-105.230576">
  <ele>1593.28</ele>
  <time>2026-08-28T19:08:10Z</time>
  <course>356.35</course>
  <speed>0.17464249196572978</speed>
  <fix>3d</fix>
</trkpt>
<trkpt lat="40.0728407" lon="-105.2305763">
  <ele>1592.75</ele>
  <time>2026-08-28T19:08:10Z</time>
  <course>73.49</course>
  <speed>0.16</speed>
  <fix>3d</fix>
</trkpt>
<trkpt lat="40.0728408" lon="-105.2305759">
  <ele>1593.35</ele>
  <time>2026-08-28T19:08:10Z</time>
  <course>356.41</course>
  <speed>0.17464249196572978</speed>
  <fix>3d</fix>
</trkpt>
<trkpt lat="40.0728409" lon="-105.2305756">
  <ele>1593.78</ele>
  <time>2026-08-28T19:08:10Z</time>
  <course>356.77</course>
  <speed>0.16552945357246848</speed>
  <fix>3d</fix>
</trkpt>
<trkpt lat="40.0728407" lon="-105.230576">
  <ele>1593.25</ele>
  <time>2026-08-28T19:08:10Z</time>
  <course>72.55</course>
  <speed>0.16</speed>
  <fix>3d</fix>
</trkpt>
<trkpt lat="40.0728409" lon="-105.2305756">
  <ele>1593.85</ele>
  <time>2026-08-28T19:08:10Z</time>
  <course>356.83</course>
  <speed>0.16552945357246848</speed>
  <fix>3d</fix>
</trkpt>
<trkpt lat="40.072841" lon="-105.2305753">
  <ele>1594.28</ele>
  <time>2026-08-28T19:08:10Z</time>
  <course>357.22</course>
  <speed>0.16124515496597097</speed>
  <fix>3d</fix>
</trkpt>
<trkpt lat="40.0728408" lon="-105.2305756">
  <ele>1593.74</ele>
  <time>2026-08-28T19:08:10Z</time>
  <course>71.06</course>
  <speed>0.15</speed>
  <fix>3d</fix>
</trkpt>
<trkpt lat="40.072841" lon="-105.2305753">
  <ele>1594.35</ele>
  <time>2026-08-28T19:08:10Z</time>
  <course>357.28</course>
  <speed>0.16124515496597097</speed>
  <fix>3d</fix>
</trkpt>
<trkpt lat="40.0728411" lon="-105.230575">
  <ele>1594.78</ele>
  <time>2026-08-28T19:08:10Z</time>
  <course>357.62</course>
  <speed>0.14422205101855956</speed>
  <fix>3d</fix>
</trkpt>
<trkpt lat="40.0728409" lon="-105.2305753">
  <ele>1594.23</ele>
  <time>2026-08-28T19:08:10Z</time>
  <course>68.6</course>
  <speed>0.14</speed>
  <fix>3d</fix>
</trkpt>
<trkpt lat="40.0728411" lon="-105.230575">
  <ele>1594.84</ele>
  <time>2026-08-28T19:08:10Z</time>
  <course>357.67</course>
  <speed>0.14422205101855956</speed>
  <fix>3d</fix>
</trkpt>
<trkpt lat="40.0728412" lon="-105.2305748">
  <ele>1595.28</ele>
  <time>2026-08-28T19:08:10Z</time>
  <course>357.99</course>
  <speed>0.14212670403551894</speed>
  <fix>3d</fix>
</trkpt>
<trkpt lat="40.072841" lon="-105.2305749">
  <ele>1594.73</ele>
  <time>2026-08-28T19:08:10Z</time>
  <course>64.95</course>
  <speed>0.13</speed>
  <fix>3d</fix>
</trkpt>
<trkpt lat="40.0728412" lon="-105.2305747">
  <ele>1595.3</ele>
  <time>2026-08-28T19:08:10Z</time>
  <course>358.01</course>
  <speed>0.1345362404707371</speed>
  <fix>3d</fix>
</trkpt>
<trkpt lat="40.0728413" lon="-105.2305745">
  <ele>1595.77</ele>
  <time>2026-08-28T19:08:10Z</time>
  <course>358.38</course>
  <speed>0.12727922061357855</speed>
  <fix>3d</fix>
</trkpt>
<trkpt lat="40.0728411" lon="-105.2305747">
  <ele>1595.22</ele>
  <time>2026-08-28T19:08:10Z</time>
  <course>59.91</course>
  <speed>0.11</speed>
  <fix>3d</fix>
</trkpt>
<trkpt lat="40.0728413" lon="-105.2305745">
  <ele>1595.85</ele>
  <time>2026-08-28T19:08:10Z</time>
  <course>358.44</course>
  <speed>0.12041594578792296</speed>
  <fix>3d</fix>
</trkpt>
<trkpt lat="40.0728414" lon="-105.2305744">
  <ele>1596.26</ele>
  <time>2026-08-28T19:08:10Z</time>
  <course>358.72</course>
  <speed>0.11401754250991379</speed>
  <fix>3d</fix>
</trkpt>
<trkpt lat="40.0728412" lon="-105.2305744">
  <ele>1595.72</ele>
  <time>2026-08-28T19:08:10Z</time>
  <course>53.37</course>
  <speed>0.1</speed>
  <fix>3d</fix>
</trkpt>
<trkpt lat="40.0728414" lon="-105.2305743">
  <ele>1596.32</ele>
  <time>2026-08-28T19:08:10Z</time>
  <course>358.77</course>
  <speed>0.10816653826391968</speed>
  <fix>3d</fix>
</trkpt>
<trkpt lat="40.0728415" lon="-105.2305742">
  <ele>1596.75</ele>
  <time>2026-08-28T19:08:10Z</time>
  <course>359.04</course>
  <speed>0.10295630140987001</speed>
  <fix>3d</fix>
</trkpt>
<trkpt lat="40.0728413" lon="-105.2305743">
  <ele>1596.21</ele>
  <time>2026-08-28T19:08:10Z</time>
  <course>45.27</course>
  <speed>0.09</speed>
  <fix>3d</fix>
</trkpt>
<trkpt lat="40.0728415" lon="-105.2305742">
  <ele>1596.76</ele>
  <time>2026-08-28T19:08:10Z</time>
  <course>359.05</course>
  <speed>0.10295630140987001</speed>
  <fix>3d</fix>
</trkpt>
<trkpt lat="40.0728416" lon="-105.2305741">
  <ele>1597.25</ele>
  <time>2026-08-28T19:08:10Z</time>
  <course>359.37</course>
  <speed>0.09486832980505139</speed>
  <fix>3d</fix>
</trkpt>
<trkpt lat="40.0728414" lon="-105.2305742">
  <ele>1596.71</ele>
  <time>2026-08-28T19:08:10Z</time>
  <course>34.81</course>
  <speed>0.07</speed>
  <fix>3d</fix>
</trkpt>
<trkpt lat="40.0728416" lon="-105.2305741">
  <ele>1597.32</ele>
  <time>2026-08-28T19:08:10Z</time>
  <course>359.41</course>
  <speed>0.09219544457292887</speed>
  <fix>3d</fix>
</trkpt>
<trkpt lat="40.0728417" lon="-105.2305741">
  <ele>1597.76</ele>
  <time>2026-08-28T19:08:10Z</time>
  <course>359.67</course>
  <speed>0.09055385138137417</speed>
  <fix>3d</fix>
</trkpt>
<trkpt lat="40.0728415" lon="-105.2305741">
  <ele>1597.21</ele>
  <time>2026-08-28T19:08:10Z</time>
  <course>21.7</course>
  <speed>0.06</speed>
  <fix>3d</fix>
</trkpt>
<trkpt lat="40.0728417" lon="-105.2305741">
  <ele>1597.82</ele>
  <time>2026-08-28T19:08:10Z</time>
  <course>359.71</course>
  <speed>0.09055385138137417</speed>
  <fix>3d</fix>
</trkpt>
<trkpt lat="40.0728418" lon="-105.2305741">
  <ele>1598.26</ele>
  <time>2026-08-28T19:08:10Z</time>
  <course>0.0</course>
  <speed>0.08</speed>
  <fix>3d</fix>
</trkpt>
<trkpt lat="40.0728417" lon="-105.2305741">
  <ele>1597.71</ele>
  <time>2026-08-28T19:08:10Z</time>
  <course>6.87</course>
  <speed>0.05</speed>
  <fix>3d</fix>
</trkpt>
<trkpt lat="40.0728418" lon="-105.2305741">
  <ele>1598.27</ele>
  <time>2026-08-28T19:08:10Z</time>
  <course>0.0</course>
  <speed>0.08</speed>
  <fix>3d</fix>
</trkpt>
<trkpt lat="40.0728419" lon="-105.2305741">
  <ele>1598.76</ele>
  <time>2026-08-28T19:08:10Z</time>
  <course>0.33</course>
  <speed>0.08062257748298549</speed>
  <fix>3d</fix>
</trkpt>
<trkpt lat="40.0728418" lon="-105.2305741">
  <ele>1598.21</ele>
  <time>2026-08-28T19:08:10Z</time>
  <course>351.61</course>
  <speed>0.05</speed>
  <fix>3d</fix>
</trkpt>
<trkpt lat="40.0728419" lon="-105.2305741">
  <ele>1598.83</ele>
  <time>2026-08-28T19:08:10Z</time>
  <course>0.37</course>
  <speed>0.07071067811865475</speed>
  <fix>3d</fix>
</trkpt>
<trkpt lat="40.072842" lon="-105.2305742">
  <ele>1599.26</ele>
  <time>2026-08-28T19:08:10Z</time>
  <course>0.64</course>
  <speed>0.07280109889280519</speed>
  <fix>3d</fix>
</trkpt>
<trkpt lat="40.0728419" lon="-105.2305741">
  <ele>1598.71</ele>
  <time>2026-08-28T19:08:10Z</time>
  <course>337.68</course>
  <speed>0.05</speed>
  <fix>3d</fix>
</trkpt>
<trkpt lat="40.072842" lon="-105.2305741">
  <ele>1599.33</ele>
  <time>2026-08-28T19:08:10Z</time>
  <course>0.68</course>
  <speed>0.07280109889280519</speed>
  <fix>3d</fix>
</trkpt>
<trkpt lat="40.0728421" lon="-105.2305741">
  <ele>1599.76</ele>
  <time>2026-08-28T19:08:10Z</time>
  <course>0.92</course>
  <speed>0.0670820393249937</speed>
  <fix>3d</fix>
</trkpt>
<trkpt lat="40.072842" lon="-105.2305741">
  <ele>1599.21</ele>
  <time>2026-08-28T19:08:10Z</time>
  <course>326.22</course>
  <speed>0.05</speed>
  <fix>3d</fix>
</trkpt>
<trkpt lat="40.0728421" lon="-105.2305742">
  <ele>1599.82</ele>
  <time>2026-08-28T19:08:10Z</time>
  <course>0.96</course>
  <speed>0.0670820393249937</speed>
  <fix>3d</fix>
</trkpt>
<trkpt lat="40.0728421" lon="-105.2305742">
  <ele>1600.26</ele>
  <time>2026-08-28T19:08:10Z</time>
  <course>1.22</course>
  <speed>0.06403124237432849</speed>
  <fix>3d</fix>
</trkpt>
<trkpt lat="40.072842" lon="-105.2305741">
  <ele>1599.7</ele>
  <time>2026-08-28T19:08:10Z</time>
  <course>316.85</course>
  <speed>0.05</speed>
  <fix>3d</fix>
</trkpt>
<trkpt lat="40.0728421" lon="-105.2305742">
  <ele>1600.33</ele>
  <time>2026-08-28T19:08:10Z</time>
  <course>1.26</course>
  <speed>0.06403124237432849</speed>
  <fix>3d</fix>
</trkpt>
<trkpt lat="40.0728422" lon="-105.2305743">
  <ele>1600.76</ele>
  <time>2026-08-28T19:08:10Z</time>
  <course>1.5</course>
  <speed>0.0565685424949238</speed>
  <fix>3d</fix>
</trkpt>
<trkpt lat="40.0728421" lon="-105.2305742">
  <ele>1600.2</ele>
  <time>2026-08-28T19:08:10Z</time>
  <course>308.83</course>
  <speed>0.05</speed>
  <fix>3d</fix>
</trkpt>
<trkpt lat="40.0728422" lon="-105.2305743">
  <ele>1600.76</ele>
  <time>2026-08-28T19:08:10Z</time>
  <course>1.5</course>
  <speed>0.0565685424949238</speed>
  <fix>3d</fix>
</trkpt>
<trkpt lat="40.0728422" lon="-105.2305744">
  <ele>1601.25</ele>
  <time>2026-08-28T19:08:10Z</time>
  <course>1.78</course>
  <speed>0.0565685424949238</speed>
  <fix>3d</fix>
</trkpt>
<trkpt lat="40.0728421" lon="-105.2305743">
  <ele>1600.7</ele>
  <time>2026-08-28T19:08:10Z</time>
  <course>302.04</course>
  <speed>0.05</speed>
  <fix>3d</fix>
</trkpt>
<trkpt lat="40.0728422" lon="-105.2305744">
  <ele>1601.32</ele>
  <time>2026-08-28T19:08:10Z</time>
  <course>1.82</course>
  <speed>0.05</speed>
  <fix>3d</fix>
</trkpt>
<trkpt lat="40.0728423" lon="-105.2305745">
  <ele>1601.75</ele>
  <time>2026-08-28T19:08:10Z</time>
  <course>2.01</course>
  <speed>0.05</speed>
  <fix>3d</fix>
</trkpt>
<trkpt lat="40.0728422" lon="-105.2305744">
  <ele>1601.2</ele>
  <time>2026-08-28T19:08:10Z</time>
  <course>296.64</course>
  <speed>0.05</speed>
  <fix>3d</fix>
</trkpt>
<trkpt lat="40.0728423" lon="-105.2305745">
  <ele>1601.81</ele>
  <time>2026-08-28T19:08:10Z</time>
  <course>2.04</course>
  <speed>0.05</speed>
  <fix>3d</fix>
</trkpt>
<trkpt lat="40.0728423" lon="-105.2305746">
  <ele>1602.24</ele>
  <time>2026-08-28T19:08:10Z</time>
  <course>2.26</course>
  <speed>0.044721359549995794</speed>
  <fix>3d</fix>
</trkpt>
<trkpt lat="40.0728423" lon="-105.2305746">
  <ele>1601.7</ele>
  <time>2026-08-28T19:08:10Z</time>
  <course>292.1</course>
  <speed>0.05</speed>
  <fix>3d</fix>
</trkpt>
<trkpt lat="40.0728423" lon="-105.2305746">
  <ele>1602.31</ele>
  <time>2026-08-28T19:08:10Z</time>
  <course>2.29</course>
  <speed>0.044721359549995794</speed>
  <fix>3d</fix>
</trkpt>
<trkpt lat="40.0728423" lon="-105.2305747">
  <ele>1602.75</ele>
  <time>2026-08-28T19:08:10Z</time>
  <course>2.49</course>
  <speed>0.0412310562561766</speed>
  <fix>3d</fix>
</trkpt>
<trkpt lat="40.0728423" lon="-105.2305747">
  <ele>1602.2</ele>
  <time>2026-08-28T19:08:10Z</time>
  <course>287.76</course>
  <speed>0.05</speed>
  <fix>3d</fix>
</trkpt>
<trkpt lat="40.0728423" lon="-105.2305747">
  <ele>1602.75</ele>
  <time>2026-08-28T19:08:10Z</time>
  <course>2.49</course>
  <speed>0.0412310562561766</speed>
  <fix>3d</fix>
</trkpt>
<trkpt lat="40.0728423" lon="-105.2305748">
  <ele>1603.25</ele>
  <time>2026-08-28T19:08:10Z</time>
  <course>2.72</course>
  <speed>0.0316227766016838</speed>
  <fix>3d</fix>
</trkpt>
<trkpt lat="40.0728423" lon="-105.2305748">
  <ele>1602.7</ele>
  <time>2026-08-28T19:08:10Z</time>
  <course>283.23</course>
  <speed>0.04</speed>
  <fix>3d</fix>
</trkpt>
<trkpt lat="40.0728423" lon="-105.2305748">
  <ele>1603.31</ele>
  <time>2026-08-28T19:08:10Z</time>
  <course>2.75</course>
  <speed>0.0316227766016838</speed>
  <fix>3d</fix>
</trkpt>
<trkpt lat="40.0728423" lon="-105.2305749">
  <ele>1603.74</ele>
  <time>2026-08-28T19:08:10Z</time>
  <course>2.92</course>
  <speed>0.03</speed>
  <fix>3d</fix>
</trkpt>
<trkpt lat="40.0728424" lon="-105.2305749">
  <ele>1603.2</ele>
  <time>2026-08-28T19:08:10Z</time>
  <course>278.5</course>
  <speed>0.04</speed>
  <fix>3d</fix>
</trkpt>
<trkpt lat="40.0728423" lon="-105.2305749">
  <ele>1603.75</ele>
  <time>2026-08-28T19:08:10Z</time>
  <course>2.93</course>
  <speed>0.03</speed>
  <fix>3d</fix>
</trkpt>
<trkpt lat="40.0728423" lon="-105.230575">
  <ele>1604.24</ele>
  <time>2026-08-28T19:08:10Z</time>
  <course>3.14</course>
  <speed>0.02</speed>
  <fix>3d</fix>
</trkpt>
<trkpt lat="40.0728424" lon="-105.230575">
  <ele>1603.7</ele>
  <time>2026-08-28T19:08:10Z</time>
  <course>274.26</course>
  <speed>0.04</speed>
  <fix>3d</fix>
</trkpt>
<trkpt lat="40.0728423" lon="-105.230575">
  <ele>1604.32</ele>
  <time>2026-08-28T19:08:10Z</time>
  <course>3.17</course>
  <speed>0.02</speed>
  <fix>3d</fix>
</trkpt>
<trkpt lat="40.0728423" lon="-105.2305751">
  <ele>1604.74</ele>
  <time>2026-08-28T19:08:10Z</time>
  <course>3.31</course>
  <speed>0.02</speed>
  <fix>3d</fix>
</trkpt>
<trkpt lat="40.0728424" lon="-105.2305751">
  <ele>1604.2</ele>
  <time>2026-08-28T19:08:10Z</time>
  <course>270.55</course>
  <speed>0.03</speed>
  <fix>3d</fix>
</trkpt>
<trkpt lat="40.0728423" lon="-105.2305751">
  <ele>1604.81</ele>
  <time>2026-08-28T19:08:10Z</time>
  <course>3.33</course>
  <speed>0.02</speed>
  <fix>3d</fix>
</trkpt>
<trkpt lat="40.0728423" lon="-105.2305751">
  <ele>1605.25</ele>
  <time>2026-08-28T19:08:10Z</time>
  <course>3.53</course>
  <speed>0.01</speed>
  <fix>3d</fix>
</trkpt>
<trkpt lat="40.0728424" lon="-105.2305752">
  <ele>1604.71</ele>
  <time>2026-08-28T19:08:10Z</time>
  <course>267.11</course>
  <speed>0.03</speed>
  <fix>3d</fix>
</trkpt>
<trkpt lat="40.0728423" lon="-105.2305751">
  <ele>1605.25</ele>
  <time>2026-08-28T19:08:10Z</time>
  <course>3.53</course>
  <speed>0.01</speed>
  <fix>3d</fix>
</trkpt>
<trkpt lat="40.0728423" lon="-105.2305752">
  <ele>1605.75</ele>
  <time>2026-08-28T19:08:10Z</time>
  <course>3.73</course>
  <speed>0.01</speed>
  <fix>3d</fix>
</trkpt>
<trkpt lat="40.0728424" lon="-105.2305753">
  <ele>1605.21</ele>
  <time>2026-08-28T19:08:10Z</time>
  <course>263.66</course>
  <speed>0.02</speed>
  <fix>3d</fix>
</trkpt>
<trkpt lat="40.0728423" lon="-105.2305752">
  <ele>1605.82</ele>
  <time>2026-08-28T19:08:10Z</time>
  <course>3.76</course>
  <speed>0.01</speed>
  <fix>3d</fix>
</trkpt>
<trkpt lat="40.0728423" lon="-105.2305752">
  <ele>1606.25</ele>
  <time>2026-08-28T19:08:10Z</time>
  <course>3.91</course>
  <speed>0.01</speed>
  <fix>3d</fix>
</trkpt>
<trkpt lat="40.0728424" lon="-105.2305753">
  <ele>1605.71</ele>
  <time>2026-08-28T19:08:10Z</time>
  <course>259.05</course>
  <speed>0.02</speed>
  <fix>3d</fix>
</trkpt>
<trkpt lat="40.0728423" lon="-105.2305752">
  <ele>1606.33</ele>
  <time>2026-08-28T19:08:10Z</time>
  <course>3.94</course>
  <speed>0.01</speed>
  <fix>3d</fix>
</trkpt>
<trkpt lat="40.0728423" lon="-105.2305752">
  <ele>1606.75</ele>
  <time>2026-08-28T19:08:10Z</time>
  <course>4.05</course>
  <speed>0.01</speed>
  <fix>3d</fix>
</trkpt>
<trkpt lat="40.0728424" lon="-105.2305753">
  <ele>1606.21</ele>
  <time>2026-08-28T19:08:10Z</time>
  <course>253.35</course>
  <speed>0.01</speed>
  <fix>3d</fix>
</trkpt>
<trkpt lat="40.0728423" lon="-105.2305752">
  <ele>1606.75</ele>
  <time>2026-08-28T19:08:10Z</time>
  <course>4.05</course>
  <speed>0.01</speed>
  <fix>3d</fix>
</trkpt>
<trkpt lat="40.0728423" lon="-105.2305753">
  <ele>1607.25</ele>
  <time>2026-08-28T19:08:10Z</time>
  <course>4.17</course>
  <speed>0.01</speed>
  <fix>3d</fix>
</trkpt>
<trkpt lat="40.0728424" lon="-105.2305754">
  <ele>1606.71</ele>
  <time>2026-08-28T19:08:10Z</time>
  <course>246.61</course>
  <speed>0.01</speed>
  <fix>3d</fix>
</trkpt>
<trkpt lat="40.0728423" lon="-105.2305753">
  <ele>1607.31</ele>
  <time>2026-08-28T19:08:10Z</time>
  <course>4.18</course>
  <speed>0.01</speed>
  <fix>3d</fix>
</trkpt>
<trkpt lat="40.0728423" lon="-105.2305753">
  <ele>1607.76</ele>
  <time>2026-08-28T19:08:10Z</time>
  <course>4.33</course>
  <speed>0.01414213562373095</speed>
  <fix>3d</fix>
</trkpt>
<trkpt lat="40.0728424" lon="-105.2305755">
  <ele>1607.21</ele>
  <time>2026-08-28T19:08:10Z</time>
  <course>238.43</course>
  <speed>0.01</speed>
  <fix>3d</fix>
</trkpt>
<trkpt lat="40.0728423" lon="-105.2305753">
  <ele>1607.76</ele>
  <time>2026-08-28T19:08:10Z</time>
  <course>4.33</course>
  <speed>0.01414213562373095</speed>
  <fix>3d</fix>
</trkpt>
<trkpt lat="40.0728423" lon="-105.2305753">
  <ele>1608.26</ele>
  <time>2026-08-28T19:08:10Z</time>
  <course>4.48</course>
  <speed>0.01414213562373095</speed>
  <fix>3d</fix>
</trkpt>
<trkpt lat="40.0728424" lon="-105.2305755">
  <ele>1607.71</ele>
  <time>2026-08-28T19:08:10Z</time>
  <course>228.24</course>
  <speed>0.0</speed>
  <fix>3d</fix>
</trkpt>
<trkpt lat="40.0728423" lon="-105.2305753">
  <ele>1608.32</ele>
  <time>2026-08-28T19:08:10Z</time>
  <course>4.5</course>
  <speed>0.01414213562373095</speed>
  <fix>3d</fix>
</trkpt>
<trkpt lat="40.0728423" lon="-105.2305753">
  <ele>1608.76</ele>
  <time>2026-08-28T19:08:10Z</time>
  <course>4.62</course>
  <speed>0.01414213562373095</speed>
  <fix>3d</fix>
</trkpt>
<trkpt lat="40.0728424" lon="-105.2305755">
  <ele>1608.21</ele>
  <time>2026-08-28T19:08:10Z</time>
  <course>215.48</course>
  <speed>0.0</speed>
  <fix>3d</fix>
</trkpt>
<trkpt lat="40.0728423" lon="-105.2305753">
  <ele>1608.83</ele>
  <time>2026-08-28T19:08:10Z</time>
  <course>4.64</course>
  <speed>0.01414213562373095</speed>
  <fix>3d</fix>
</trkpt>
<trkpt lat="40.0728423" lon="-105.2305753">
  <ele>1609.26</ele>
  <time>2026-08-28T19:08:10Z</time>
  <course>4.74</course>
  <speed>0.022360679774997897</speed>
  <fix>3d</fix>
</trkpt>
<trkpt lat="40.0728424" lon="-105.2305755">
  <ele>1608.71</ele>
  <time>2026-08-28T19:08:10Z</time>
  <course>195.38</course>
  <speed>0.0</speed>
  <fix>3d</fix>
</trkpt>
<trkpt lat="40.0728423" lon="-105.2305753">
  <ele>1609.27</ele>
  <time>2026-08-28T19:08:10Z</time>
  <course>4.74</course>
  <speed>0.022360679774997897</speed>
  <fix>3d</fix>
</trkpt>
<trkpt lat="40.0728423" lon="-105.2305753">
  <ele>1609.76</ele>
  <time>2026-08-28T19:08:10Z</time>
  <course>4.87</course>
  <speed>0.022360679774997897</speed>
  <fix>3d</fix>
</trkpt>
<trkpt lat="40.0728424" lon="-105.2305755">
  <ele>1609.21</ele>
  <time>2026-08-28T19:08:10Z</time>
  <course>171.92</course>
  <speed>0.0</speed>
  <fix>3d</fix>
</trkpt>
<trkpt lat="40.0728423" lon="-105.2305753">
  <ele>1609.82</ele>
  <time>2026-08-28T19:08:10Z</time>
  <course>4.89</course>
  <speed>0.022360679774997897</speed>
  <fix>3d</fix>
</trkpt>
<trkpt lat="40.0728423" lon="-105.2305753">
  <ele>1610.26</ele>
  <time>2026-08-28T19:08:10Z</time>
  <course>4.97</course>
  <speed>0.022360679774997897</speed>
  <fix>3d</fix>
</trkpt>
<trkpt lat="40.0728424" lon="-105.2305755">
  <ele>1609.71</ele>
  <time>2026-08-28T19:08:10Z</time>
  <course>156.68</course>
  <speed>0.0</speed>
  <fix>3d</fix>
</trkpt>
<trkpt lat="40.0728423" lon="-105.2305753">
  <ele>1610.27</ele>
  <time>2026-08-28T19:08:10Z</time>
  <course>4.98</course>
  <speed>0.022360679774997897</speed>
  <fix>3d</fix>
</trkpt>
<trkpt lat="40.0728423" lon="-105.2305753">
  <ele>1610.76</ele>
  <time>2026-08-28T19:08:10Z</time>
  <course>5.09</course>
  <speed>0.022360679774997897</speed>
  <fix>3d</fix>
</trkpt>
<trkpt lat="40.0728424" lon="-105.2305755">
  <ele>1610.21</ele>
  <time>2026-08-28T19:08:10Z</time>
  <course>146.37</course>
  <speed>0.0</speed>
  <fix>3d</fix>
</trkpt>
<trkpt lat="40.0728423" lon="-105.2305753">
  <ele>1610.82</ele>
  <time>2026-08-28T19:08:10Z</time>
  <course>5.1</course>
  <speed>0.022360679774997897</speed>
  <fix>3d</fix>
</trkpt>
<trkpt lat="40.0728423" lon="-105.2305753">
  <ele>1611.26</ele>
  <time>2026-08-28T19:08:10Z</time>
  <course>5.2</course>
  <speed>0.022360679774997897</speed>
  <fix>3d</fix>
</trkpt>
<trkpt lat="40.0728424" lon="-105.2305755">
  <ele>1610.71</ele>
  <time>2026-08-28T19:08:10Z</time>
  <course>141.72</course>
  <speed>0.0</speed>
  <fix>3d</fix>
</trkpt>
<trkpt lat="40.0728423" lon="-105.2305753">
  <ele>1611.32</ele>
  <time>2026-08-28T19:08:10Z</time>
  <course>5.22</course>
  <speed>0.022360679774997897</speed>
  <fix>3d</fix>
</trkpt>
<trkpt lat="40.0728423" lon="-105.2305753">
  <ele>1611.75</ele>
  <time>2026-08-28T19:08:10Z</time>
  <course>5.29</course>
  <speed>0.022360679774997897</speed>
  <fix>3d</fix>
</trkpt>
<trkpt lat="40.0728424" lon="-105.2305755">
  <ele>1611.21</ele>
  <time>2026-08-28T19:08:10Z</time>
  <course>138.18</course>
  <speed>0.0</speed>
  <fix>3d</fix>
</trkpt>
<trkpt lat="40.0728423" lon="-105.2305753">
  <ele>1611.82</ele>
  <time>2026-08-28T19:08:10Z</time>
  <course>5.3</course>
  <speed>0.022360679774997897</speed>
  <fix>3d</fix>
</trkpt>
<trkpt lat="40.0728423" lon="-105.2305753">
  <ele>1612.25</ele>
  <time>2026-08-28T19:08:10Z</time>
  <course>5.39</course>
  <speed>0.022360679774997897</speed>
  <fix>3d</fix>
</trkpt>
<trkpt lat="40.0728423" lon="-105.2305755">
  <ele>1611.71</ele>
  <time>2026-08-28T19:08:10Z</time>
  <course>134.0</course>
  <speed>0.0</speed>
  <fix>3d</fix>
</trkpt>
<trkpt lat="40.0728423" lon="-105.2305753">
  <ele>1612.31</ele>
  <time>2026-08-28T19:08:10Z</time>
  <course>5.4</course>
  <speed>0.022360679774997897</speed>
  <fix>3d</fix>
</trkpt>
<trkpt lat="40.0728423" lon="-105.2305753">
  <ele>1612.75</ele>
  <time>2026-08-28T19:08:10Z</time>
  <course>5.48</course>
  <speed>0.022360679774997897</speed>
  <fix>3d</fix>
</trkpt>
<trkpt lat="40.0728423" lon="-105.2305755">
  <ele>1612.21</ele>
  <time>2026-08-28T19:08:10Z</time>
  <course>131.17</course>
  <speed>0.0</speed>
  <fix>3d</fix>
</trkpt>
<trkpt lat="40.0728423" lon="-105.2305753">
  <ele>1612.76</ele>
  <time>2026-08-28T19:08:10Z</time>
  <course>5.48</course>
  <speed>0.022360679774997897</speed>
  <fix>3d</fix>
</trkpt>
<trkpt lat="40.0728423" lon="-105.2305753">
  <ele>1613.26</ele>
  <time>2026-08-28T19:08:10Z</time>
  <course>5.57</course>
  <speed>0.022360679774997897</speed>
  <fix>3d</fix>
</trkpt>
<trkpt lat="40.0728423" lon="-105.2305755">
  <ele>1612.71</ele>
  <time>2026-08-28T19:08:10Z</time>
  <course>129.82</course>
  <speed>0.0</speed>
  <fix>3d</fix>
</trkpt>
<trkpt lat="40.0728423" lon="-105.2305753">
  <ele>1613.33</ele>
  <time>2026-08-28T19:08:10Z</time>
  <course>5.58</course>
  <speed>0.022360679774997897</speed>
  <fix>3d</fix>
</trkpt>
<trkpt lat="40.0728423" lon="-105.2305753">
  <ele>1613.75</ele>
  <time>2026-08-28T19:08:10Z</time>
  <course>5.66</course>
  <speed>0.022360679774997897</speed>
  <fix>3d</fix>
</trkpt>
<trkpt lat="40.0728423" lon="-105.2305755">
  <ele>1613.21</ele>
  <time>2026-08-28T19:08:10Z</time>
  <course>130.06</course>
  <speed>0.0</speed>
  <fix>3d</fix>
</trkpt>
<trkpt lat="40.0728423" lon="-105.2305753">
  <ele>1613.82</ele>
  <time>2026-08-28T19:08:10Z</time>
  <course>5.67</course>
  <speed>0.022360679774997897</speed>
  <fix>3d</fix>
</trkpt>
<trkpt lat="40.0728423" lon="-105.2305753">
  <ele>1614.25</ele>
  <time>2026-08-28T19:08:10Z</time>
  <course>5.74</course>
  <speed>0.022360679774997897</speed>
  <fix>3d</fix>
</trkpt>
<trkpt lat="40.0728423" lon="-105.2305755">
  <ele>1613.71</ele>
  <time>2026-08-28T19:08:10Z</time>
  <course>131.72</course>
  <speed>0.0</speed>
  <fix>3d</fix>
</trkpt>
<trkpt lat="40.0728423" lon="-105.2305753">
  <ele>1614.32</ele>
  <time>2026-08-28T19:08:10Z</time>
  <course>5.76</course>
  <speed>0.022360679774997897</speed>
  <fix>3d</fix>
</trkpt>
<trkpt lat="40.0728422" lon="-105.2305752">
  <ele>1614.75</ele>
  <time>2026-08-28T19:08:10Z</time>
  <course>5.79</course>
  <speed>0.022360679774997897</speed>
  <fix>3d</fix>
</trkpt>
<trkpt lat="40.0728423" lon="-105.2305755">
  <ele>1614.2</ele>
  <time>2026-08-28T19:08:10Z</time>
  <course>131.93</course>
  <speed>0.0</speed>
  <fix>3d</fix>
</trkpt>
<trkpt lat="40.0728422" lon="-105.2305753">
  <ele>1614.81</ele>
  <time>2026-08-28T19:08:10Z</time>
  <course>5.8</course>
  <speed>0.022360679774997897</speed>
  <fix>3d</fix>
</trkpt>
<trkpt lat="40.0728422" lon="-105.2305752">
  <ele>1615.24</ele>
  <time>2026-08-28T19:08:10Z</time>
  <course>5.88</course>
  <speed>0.0282842712474619</speed>
  <fix>3d</fix>
</trkpt>
<trkpt lat="40.0728423" lon="-105.2305755">
  <ele>1614.7</ele>
  <time>2026-08-28T19:08:10Z</time>
  <course>134.27</course>
  <speed>0.0</speed>
  <fix>3d</fix>
</trkpt>
<trkpt lat="40.0728422" lon="-105.2305752">
  <ele>1615.25</ele>
  <time>2026-08-28T19:08:10Z</time>
  <course>5.88</course>
  <speed>0.022360679774997897</speed>
  <fix>3d</fix>
</trkpt>
<trkpt lat="40.0728422" lon="-105.2305752">
  <ele>1615.75</ele>
  <time>2026-08-28T19:08:10Z</time>
  <course>5.94</course>
  <speed>0.0282842712474619</speed>
  <fix>3d</fix>
</trkpt>
<trkpt lat="40.0728423" lon="-105.2305754">
  <ele>1615.2</ele>
  <time>2026-08-28T19:08:10Z</time>
  <course>140.87</course>
  <speed>0.0</speed>
  <fix>3d</fix>
</trkpt>
<trkpt lat="40.0728422" lon="-105.2305752">
  <ele>1615.82</ele>
  <time>2026-08-28T19:08:10Z</time>
  <course>5.95</course>
  <speed>0.0282842712474619</speed>
  <fix>3d</fix>
</trkpt>
<trkpt lat="40.0728422" lon="-105.2305752">
  <ele>1616.25</ele>
  <time>2026-08-28T19:08:10Z</time>
  <course>6.03</course>
  <speed>0.0282842712474619</speed>
  <fix>3d</fix>
</trkpt>
<trkpt lat="40.0728422" lon="-105.2305753">
  <ele>1615.71</ele>
  <time>2026-08-28T19:08:10Z</time>
  <course>143.79</course>
  <speed>0.0</speed>
  <fix>3d</fix>
</trkpt>
<trkpt lat="40.0728422" lon="-105.2305752">
  <ele>1616.33</ele>
  <time>2026-08-28T19:08:10Z</time>
  <course>6.04</course>
  <speed>0.0282842712474619</speed>
  <fix>3d</fix>
</trkpt>
<trkpt lat="40.0728422" lon="-105.2305752">
  <ele>1616.76</ele>
  <time>2026-08-28T19:08:10Z</time>
  <course>6.12</course>
  <speed>0.0282842712474619</speed>
  <fix>3d</fix>
</trkpt>
<trkpt lat="40.0728421" lon="-105.2305753">
  <ele>1616.21</ele>
  <time>2026-08-28T19:08:10Z</time>
  <course>144.66</course>
  <speed>0.0</speed>
  <fix>3d</fix>
</trkpt>
<trkpt lat="40.0728422" lon="-105.2305752">
  <ele>1616.83</ele>
  <time>2026-08-28T19:08:10Z</time>
  <course>6.12</course>
  <speed>0.0282842712474619</speed>
  <fix>3d</fix>
</trkpt>
<trkpt lat="40.0728422" lon="-105.2305752">
  <ele>1617.26</ele>
  <time>2026-08-28T19:08:10Z</time>
  <course>6.18</course>
  <speed>0.0282842712474619</speed>
  <fix>3d</fix>
</trkpt>
<trkpt lat="40.0728421" lon="-105.2305753">
  <ele>1616.71</ele>
  <time>2026-08-28T19:08:10Z</time>
  <course>144.88</course>
  <speed>0.0</speed>
  <fix>3d</fix>
</trkpt>
<trkpt lat="40.0728422" lon="-105.2305752">
  <ele>1617.33</ele>
  <time>2026-08-28T19:08:10Z</time>
  <course>6.2</course>
  <speed>0.0282842712474619</speed>
  <fix>3d</fix>
</trkpt>
<trkpt lat="40.0728421" lon="-105.2305752">
  <ele>1617.76</ele>
  <time>2026-08-28T19:08:10Z</time>
  <course>6.26</course>
  <speed>0.022360679774997897</speed>
  <fix>3d</fix>
</trkpt>
<trkpt lat="40.0728421" lon="-105.2305753">
  <ele>1617.21</ele>
  <time>2026-08-28T19:08:10Z</time>
  <course>143.61</course>
  <speed>0.0</speed>
  <fix>3d</fix>
</trkpt>
<trkpt lat="40.0728422" lon="-105.2305752">
  <ele>1617.77</ele>
  <time>2026-08-28T19:08:10Z</time>
  <course>6.26</course>
  <speed>0.022360679774997897</speed>
  <fix>3d</fix>
</trkpt>
<trkpt lat="40.0728421" lon="-105.2305752">
  <ele>1618.26</ele>
  <time>2026-08-28T19:08:10Z</time>
  <course>6.32</course>
  <speed>0.022360679774997897</speed>
  <fix>3d</fix>
</trkpt>
<trkpt lat="40.0728421" lon="-105.2305753">
  <ele>1617.71</ele>
  <time>2026-08-28T19:08:10Z</time>
  <course>145.64</course>
  <speed>0.0</speed>
  <fix>3d</fix>
</trkpt>
<trkpt lat="40.0728421" lon="-105.2305752">
  <ele>1618.33</ele>
  <time>2026-08-28T19:08:10Z</time>
  <course>6.33</course>
  <speed>0.022360679774997897</speed>
  <fix>3d</fix>
</trkpt>
<trkpt lat="40.0728421" lon="-105.2305752">
  <ele>1618.76</ele>
  <time>2026-08-28T19:08:10Z</time>
  <course>6.38</course>
  <speed>0.022360679774997897</speed>
  <fix>3d</fix>
</trkpt>
<trkpt lat="40.0728421" lon="-105.2305753">
  <ele>1618.2</ele>
  <time>2026-08-28T19:08:10Z</time>
  <course>146.1</course>
  <speed>0.0</speed>
  <fix>3d</fix>
</trkpt>
<trkpt lat="40.0728421" lon="-105.2305752">
  <ele>1618.83</ele>
  <time>2026-08-28T19:08:10Z</time>
  <course>6.38</course>
  <speed>0.022360679774997897</speed>
  <fix>3d</fix>
</trkpt>
<trkpt lat="40.0728421" lon="-105.2305752">
  <ele>1619.26</ele>
  <time>2026-08-28T19:08:10Z</time>
  <course>6.44</course>
  <speed>0.022360679774997897</speed>
  <fix>3d</fix>
</trkpt>
<trkpt lat="40.0728421" lon="-105.2305753">
  <ele>1618.7</ele>
  <time>2026-08-28T19:08:10Z</time>
  <course>140.48</course>
  <speed>0.0</speed>
  <fix>3d</fix>
</trkpt>
<trkpt lat="40.0728421" lon="-105.2305752">
  <ele>1619.33</ele>
  <time>2026-08-28T19:08:10Z</time>
  <course>6.45</course>
  <speed>0.022360679774997897</speed>
  <fix>3d</fix>
</trkpt>
<trkpt lat="40.0728421" lon="-105.2305751">
  <ele>1619.76</ele>
  <time>2026-08-28T19:08:10Z</time>
  <course>6.5</course>
  <speed>0.022360679774997897</speed>
  <fix>3d</fix>
</trkpt>
<trkpt lat="40.0728421" lon="-105.2305753">
  <ele>1619.2</ele>
  <time>2026-08-28T19:08:10Z</time>
  <course>131.25</course>
  <speed>0.0</speed>
  <fix>3d</fix>
</trkpt>
<trkpt lat="40.0728421" lon="-105.2305751">
  <ele>1619.82</ele>
  <time>2026-08-28T19:08:10Z</time>
  <course>6.5</course>
  <speed>0.022360679774997897</speed>
  <fix>3d</fix>
</trkpt>
<trkpt lat="40.0728421" lon="-105.2305751">
  <ele>1620.26</ele>
  <time>2026-08-28T19:08:10Z</time>
  <course>6.57</course>
  <speed>0.022360679774997897</speed>
  <fix>3d</fix>
</trkpt>
<trkpt lat="40.0728421" lon="-105.2305753">
  <ele>1619.7</ele>
  <time>2026-08-28T19:08:10Z</time>
  <course>68.17</course>
  <speed>0.0</speed>
  <fix>3d</fix>
</trkpt>
<trkpt lat="40.0728421" lon="-105.2305751">
  <ele>1620.32</ele>
  <time>2026-08-28T19:08:10Z</time>
  <course>6.57</course>
  <speed>0.022360679774997897</speed>
  <fix>3d</fix>
</trkpt>
<trkpt lat="40.0728421" lon="-105.2305751">
  <ele>1620.76</ele>
  <time>2026-08-28T19:08:10Z</time>
  <course>6.63</course>
  <speed>0.022360679774997897</speed>
  <fix>3d</fix>
</trkpt>
<trkpt lat="40.0728421" lon="-105.2305753">
  <ele>1620.2</ele>
  <time>2026-08-28T19:08:10Z</time>
  <course>354.57</course>
  <speed>0.0</speed>
  <fix>3d</fix>
</trkpt>
<trkpt lat="40.0728421" lon="-105.2305751">
  <ele>1620.76</ele>
  <time>2026-08-28T19:08:10Z</time>
  <course>6.63</course>
  <speed>0.022360679774997897</speed>
  <fix>3d</fix>
</trkpt>
<trkpt lat="40.0728421" lon="-105.2305751">
  <ele>1621.25</ele>
  <time>2026-08-28T19:08:10Z</time>
  <course>6.67</course>
  <speed>0.022360679774997897</speed>
  <fix>3d</fix>
</trkpt>
<trkpt lat="40.0728421" lon="-105.2305753">
  <ele>1620.69</ele>
  <time>2026-08-28T19:08:10Z</time>
  <course>347.92</course>
  <speed>0.0</speed>
  <fix>3d</fix>
</trkpt>
<trkpt lat="40.0728421" lon="-105.2305751">
  <ele>1621.32</ele>
  <time>2026-08-28T19:08:10Z</time>
  <course>6.68</course>
  <speed>0.022360679774997897</speed>
  <fix>3d</fix>
</trkpt>
<trkpt lat="40.0728421" lon="-105.2305751">
  <ele>1621.75</ele>
  <time>2026-08-28T19:08:11Z</time>
  <course>6.72</course>
  <speed>0.022360679774997897</speed>
  <fix>3d</fix>
</trkpt>
<trkpt lat="40.0728421" lon="-105.2305753">
  <ele>1621.19</ele>
  <time>2026-08-28T19:08:11Z</time>
  <course>351.94</course>
  <speed>0.0</speed>
  <fix>3d</fix>
</trkpt>
<trkpt lat="40.0728421" lon="-105.2305751">
  <ele>1621.81</ele>
  <time>2026-08-28T19:08:11Z</time>
  <course>6.73</course>
  <speed>0.022360679774997897</speed>
  <fix>3d</fix>
</trkpt>
<trkpt lat="40.0728421" lon="-105.2305751">
  <ele>1622.25</ele>
  <time>2026-08-28T19:08:11Z</time>
  <course>6.77</course>
  <speed>0.02</speed>
  <fix>3d</fix>
</trkpt>
<trkpt lat="40.0728421" lon="-105.2305753">
  <ele>1621.69</ele>
  <time>2026-08-28T19:08:11Z</time>
  <course>353.17</course>
  <speed>0.0</speed>
  <fix>3d</fix>
</trkpt>
<trkpt lat="40.0728421" lon="-105.2305751">
  <ele>1622.31</ele>
  <time>2026-08-28T19:08:11Z</time>
  <course>6.78</course>
  <speed>0.02</speed>
  <fix>3d</fix>
</trkpt>
<trkpt lat="40.0728421" lon="-105.2305751">
  <ele>1622.75</ele>
  <time>2026-08-28T19:08:11Z</time>
  <course>6.82</course>
  <speed>0.02</speed>
  <fix>3d</fix>
</trkpt>
<trkpt lat="40.0728421" lon="-105.2305753">
  <ele>1622.19</ele>
  <time>2026-08-28T19:08:11Z</time>
  <course>352.56</course>
  <speed>0.0</speed>
  <fix>3d</fix>
</trkpt>
<trkpt lat="40.0728421" lon="-105.2305751">
  <ele>1622.82</ele>
  <time>2026-08-28T19:08:11Z</time>
  <course>6.82</course>
  <speed>0.02</speed>
  <fix>3d</fix>
</trkpt>
<trkpt lat="40.0728421" lon="-105.2305751">
  <ele>1623.26</ele>
  <time>2026-08-28T19:08:11Z</time>
  <course>6.86</course>
  <speed>0.01</speed>
  <fix>3d</fix>
</trkpt>
<trkpt lat="40.0728421" lon="-105.2305753">
  <ele>1622.69</ele>
  <time>2026-08-28T19:08:11Z</time>
  <course>349.04</course>
  <speed>0.0</speed>
  <fix>3d</fix>
</trkpt>
<trkpt lat="40.0728421" lon="-105.2305751">
  <ele>1623.26</ele>
  <time>2026-08-28T19:08:11Z</time>
  <course>6.86</course>
  <speed>0.01</speed>
  <fix>3d</fix>
</trkpt>
<trkpt lat="40.0728421" lon="-105.2305752">
  <ele>1623.76</ele>
  <time>2026-08-28T19:08:11Z</time>
  <course>6.93</course>
  <speed>0.01</speed>
  <fix>3d</fix>
</trkpt>
<trkpt lat="40.0728421" lon="-105.2305753">
  <ele>1623.19</ele>
  <time>2026-08-28T19:08:11Z</time>
  <course>342.75</course>
  <speed>0.0</speed>
  <fix>3d</fix>
</trkpt>
<trkpt lat="40.0728421" lon="-105.2305752">
  <ele>1623.83</ele>
  <time>2026-08-28T19:08:11Z</time>
  <course>6.94</course>
  <speed>0.01</speed>
  <fix>3d</fix>
</trkpt>
<trkpt lat="40.0728421" lon="-105.2305752">
  <ele>1624.26</ele>
  <time>2026-08-28T19:08:11Z</time>
  <course>7.0</course>
  <speed>0.01414213562373095</speed>
  <fix>3d</fix>
</trkpt>
<trkpt lat="40.0728421" lon="-105.2305753">
  <ele>1623.69</ele>
  <time>2026-08-28T19:08:11Z</time>
  <course>338.24</course>
  <speed>0.0</speed>
  <fix>3d</fix>
</trkpt>
<trkpt lat="40.0728421" lon="-105.2305752">
  <ele>1624.33</ele>
  <time>2026-08-28T19:08:11Z</time>
  <course>7.01</course>
  <speed>0.01414213562373095</speed>
  <fix>3d</fix>
</trkpt>
<trkpt lat="40.0728421" lon="-105.2305752">
  <ele>1624.77</ele>
  <time>2026-08-28T19:08:11Z</time>
  <course>7.05</course>
  <speed>0.01414213562373095</speed>
  <fix>3d</fix>
</trkpt>
<trkpt lat="40.0728421" lon="-105.2305753">
  <ele>1624.19</ele>
  <time>2026-08-28T19:08:11Z</time>
  <course>339.23</course>
  <speed>0.0</speed>
  <fix>3d</fix>
</trkpt>
<trkpt lat="40.0728421" lon="-105.2305752">
  <ele>1624.84</ele>
  <time>2026-08-28T19:08:11Z</time>
  <course>7.06</course>
  <speed>0.01414213562373095</speed>
  <fix>3d</fix>
</trkpt>
<trkpt lat="40.0728421" lon="-105.2305752">
  <ele>1625.26</ele>
  <time>2026-08-28T19:08:11Z</time>
  <course>7.12</course>
  <speed>0.022360679774997897</speed>
  <fix>3d</fix>
</trkpt>
<trkpt lat="40.0728421" lon="-105.2305753">
  <ele>1624.69</ele>
  <time>2026-08-28T19:08:11Z</time>
  <course>344.24</course>
  <speed>0.0</speed>
  <fix>3d</fix>
</trkpt>
<trkpt lat="40.0728421" lon="-105.2305752">
  <ele>1625.33</ele>
  <time>2026-08-28T19:08:11Z</time>
  <course>7.11</course>
  <speed>0.022360679774997897</speed>
  <fix>3d</fix>
</trkpt>
<trkpt lat="40.0728421" lon="-105.2305752">
  <ele>1625.76</ele>
  <time>2026-08-28T19:08:11Z</time>
  <course>7.16</course>
  <speed>0.022360679774997897</speed>
  <fix>3d</fix>
</trkpt>
<trkpt lat="40.0728421" lon="-105.2305753">
  <ele>1625.19</ele>
  <time>2026-08-28T19:08:11Z</time>
  <course>348.1</course>
  <speed>0.0</speed>
  <fix>3d</fix>
</trkpt>
<trkpt lat="40.0728421" lon="-105.2305752">
  <ele>1625.78</ele>
  <time>2026-08-28T19:08:11Z</time>
  <course>7.16</course>
  <speed>0.022360679774997897</speed>
  <fix>3d</fix>
</trkpt>
<trkpt lat="40.0728421" lon="-105.2305752">
  <ele>1626.26</ele>
  <time>2026-08-28T19:08:11Z</time>
  <course>7.2</course>
  <speed>0.022360679774997897</speed>
  <fix>3d</fix>
</trkpt>
<trkpt lat="40.0728421" lon="-105.2305753">
  <ele>1625.68</ele>
  <time>2026-08-28T19:08:11Z</time>
  <course>350.39</course>
  <speed>0.0</speed>
  <fix>3d</fix>
</trkpt>
<trkpt lat="40.0728421" lon="-105.2305752">
  <ele>1626.33</ele>
  <time>2026-08-28T19:08:11Z</time>
  <course>7.21</course>
  <speed>0.022360679774997897</speed>
  <fix>3d</fix>
</trkpt>
<trkpt lat="40.0728421" lon="-105.2305752">
  <ele>1626.76</ele>
  <time>2026-08-28T19:08:11Z</time>
  <course>7.24</course>
  <speed>0.022360679774997897</speed>
  <fix>3d</fix>
</trkpt>
<trkpt lat="40.0728421" lon="-105.2305753">
  <ele>1626.18</ele>
  <time>2026-08-28T19:08:11Z</time>
  <course>356.55</course>
  <speed>0.0</speed>
  <fix>3d</fix>
</trkpt>
<trkpt lat="40.0728421" lon="-105.2305752">
  <ele>1626.82</ele>
  <time>2026-08-28T19:08:11Z</time>
  <course>7.25</course>
  <speed>0.022360679774997897</speed>
  <fix>3d</fix>
</trkpt>
<trkpt lat="40.0728421" lon="-105.2305752">
  <ele>1627.26</ele>
  <time>2026-08-28T19:08:11Z</time>
  <course>7.28</course>
  <speed>0.022360679774997897</speed>
  <fix>3d</fix>
</trkpt>
<trkpt lat="40.0728421" lon="-105.2305753">
  <ele>1626.68</ele>
  <time>2026-08-28T19:08:11Z</time>
  <course>4.32</course>
  <speed>0.0</speed>
  <fix>3d</fix>
</trkpt>
<trkpt lat="40.0728421" lon="-105.2305752">
  <ele>1627.32</ele>
  <time>2026-08-28T19:08:11Z</time>
  <course>7.29</course>
  <speed>0.022360679774997897</speed>
  <fix>3d</fix>
</trkpt>
<trkpt lat="40.0728421" lon="-105.2305752">
  <ele>1627.76</ele>
  <time>2026-08-28T19:08:11Z</time>
  <course>7.32</course>
  <speed>0.022360679774997897</speed>
  <fix>3d</fix>
</trkpt>
<trkpt lat="40.0728421" lon="-105.2305753">
  <ele>1627.18</ele>
  <time>2026-08-28T19:08:11Z</time>
  <course>8.89</course>
  <speed>0.0</speed>
  <fix>3d</fix>
</trkpt>
<trkpt lat="40.0728421" lon="-105.2305752">
  <ele>1627.77</ele>
  <time>2026-08-28T19:08:11Z</time>
  <course>7.32</course>
  <speed>0.022360679774997897</speed>
  <fix>3d</fix>
</trkpt>
<trkpt lat="40.0728421" lon="-105.2305752">
  <ele>1628.26</ele>
  <time>2026-08-28T19:08:11Z</time>
  <course>7.38</course>
  <speed>0.022360679774997897</speed>
  <fix>3d</fix>
</trkpt>
<trkpt lat="40.0728421" lon="-105.2305753">
  <ele>1627.67</ele>
  <time>2026-08-28T19:08:11Z</time>
  <course>10.22</course>
  <speed>0.0</speed>
  <fix>3d</fix>
</trkpt>
<trkpt lat="40.0728421" lon="-105.2305752">
  <ele>1628.32</ele>
  <time>2026-08-28T19:08:11Z</time>
  <course>7.38</course>
  <speed>0.022360679774997897</speed>
  <fix>3d</fix>
</trkpt>
<trkpt lat="40.0728421" lon="-105.2305752">
  <ele>1628.76</ele>
  <time>2026-08-28T19:08:11Z</time>
  <course>7.42</course>
  <speed>0.022360679774997897</speed>
  <fix>3d</fix>
</trkpt>
<trkpt lat="40.0728421" lon="-105.2305753">
  <ele>1628.17</ele>
  <time>2026-08-28T19:08:11Z</time>
  <course>11.63</course>
  <speed>0.0</speed>
  <fix>3d</fix>
</trkpt>
<trkpt lat="40.0728421" lon="-105.2305752">
  <ele>1628.77</ele>
  <time>2026-08-28T19:08:11Z</time>
  <course>7.42</course>
  <speed>0.022360679774997897</speed>
  <fix>3d</fix>
</trkpt>
<trkpt lat="40.0728421" lon="-105.2305752">
  <ele>1629.26</ele>
  <time>2026-08-28T19:08:11Z</time>
  <course>7.47</course>
  <speed>0.022360679774997897</speed>
  <fix>3d</fix>
</trkpt>
<trkpt lat="40.0728421" lon="-105.2305753">
  <ele>1628.67</ele>
  <time>2026-08-28T19:08:11Z</time>
  <course>15.67</course>
  <speed>0.0</speed>
  <fix>3d</fix>
</trkpt>
<trkpt lat="40.0728421" lon="-105.2305752">
  <ele>1629.33</ele>
  <time>2026-08-28T19:08:11Z</time>
  <course>7.47</course>
  <speed>0.022360679774997897</speed>
  <fix>3d</fix>
</trkpt>
<trkpt lat="40.0728421" lon="-105.2305752">
  <ele>1629.76</ele>
  <time>2026-08-28T19:08:11Z</time>
  <course>7.5</course>
  <speed>0.022360679774997897</speed>
  <fix>3d</fix>
</trkpt>
<trkpt lat="40.0728422" lon="-105.2305753">
  <ele>1629.17</ele>
  <time>2026-08-28T19:08:11Z</time>
  <course>20.31</course>
  <speed>0.0</speed>
  <fix>3d</fix>
</trkpt>
<trkpt lat="40.0728421" lon="-105.2305752">
  <ele>1629.82</ele>
  <time>2026-08-28T19:08:11Z</time>
  <course>7.51</course>
  <speed>0.022360679774997897</speed>
  <fix>3d</fix>
</trkpt>
<trkpt lat="40.0728421" lon="-105.2305752">
  <ele>1630.26</ele>
  <time>2026-08-28T19:08:11Z</time>
  <course>7.54</course>
  <speed>0.022360679774997897</speed>
  <fix>3d</fix>
</trkpt>
<trkpt lat="40.0728423" lon="-105.2305753">
  <ele>1629.66</ele>
  <time>2026-08-28T19:08:11Z</time>
  <course>23.51</course>
  <speed>0.0</speed>
  <fix>3d</fix>
</trkpt>
<trkpt lat="40.0728421" lon="-105.2305752">
  <ele>1630.27</ele>
  <time>2026-08-28T19:08:11Z</time>
  <course>7.54</course>
  <speed>0.022360679774997897</speed>
  <fix>3d</fix>
</trkpt>
<trkpt lat="40.0728421" lon="-105.2305751">
  <ele>1630.76</ele>
  <time>2026-08-28T19:08:11Z</time>
  <course>7.58</course>
  <speed>0.022360679774997897</speed>
  <fix>3d</fix>
</trkpt>
<trkpt lat="40.0728423" lon="-105.2305753">
  <ele>1630.16</ele>
  <time>2026-08-28T19:08:11Z</time>
  <course>27.1</course>
  <speed>0.0</speed>
  <fix>3d</fix>
</trkpt>
<trkpt lat="40.0728421" lon="-105.2305751">
  <ele>1630.8</ele>
  <time>2026-08-28T19:08:11Z</time>
  <course>7.58</course>
  <speed>0.022360679774997897</speed>
  <fix>3d</fix>
</trkpt>
<trkpt lat="40.0728421" lon="-105.2305751">
  <ele>1631.26</ele>
  <time>2026-08-28T19:08:11Z</time>
  <course>7.62</course>
  <speed>0.022360679774997897</speed>
  <fix>3d</fix>
</trkpt>
<trkpt lat="40.0728423" lon="-105.2305753">
  <ele>1630.66</ele>
  <time>2026-08-28T19:08:11Z</time>
  <course>31.57</course>
  <speed>0.0</speed>
  <fix>3d</fix>
</trkpt>
<trkpt lat="40.0728421" lon="-105.2305751">
  <ele>1631.27</ele>
  <time>2026-08-28T19:08:11Z</time>
  <course>7.62</course>
  <speed>0.022360679774997897</speed>
  <fix>3d</fix>
</trkpt>
<trkpt lat="40.0728421" lon="-105.2305751">
  <ele>1631.76</ele>
  <time>2026-08-28T19:08:11Z</time>
  <course>7.65</course>
  <speed>0.01414213562373095</speed>
  <fix>3d</fix>
</trkpt>
<trkpt lat="40.0728423" lon="-105.2305753">
  <ele>1631.16</ele>
  <time>2026-08-28T19:08:11Z</time>
  <course>40.42</course>
  <speed>0.0</speed>
  <fix>3d</fix>
</trkpt>
<trkpt lat="40.0728421" lon="-105.2305751">
  <ele>1631.83</ele>
  <time>2026-08-28T19:08:11Z</time>
  <course>7.66</course>
  <speed>0.01414213562373095</speed>
  <fix>3d</fix>
</trkpt>
<trkpt lat="40.0728421" lon="-105.2305751">
  <ele>1632.26</ele>
  <time>2026-08-28T19:08:11Z</time>
  <course>7.69</course>
  <speed>0.022360679774997897</speed>
  <fix>3d</fix>
</trkpt>
<trkpt lat="40.0728423" lon="-105.2305753">
  <ele>1631.65</ele>
  <time>2026-08-28T19:08:11Z</time>
  <course>69.69</course>
  <speed>0.0</speed>
  <fix>3d</fix>
</trkpt>
<trkpt lat="40.0728421" lon="-105.2305751">
  <ele>1632.36</ele>
  <time>2026-08-28T19:08:11Z</time>
  <course>7.69</course>
  <speed>0.01414213562373095</speed>
  <fix>3d</fix>
</trkpt>
<trkpt lat="40.0728421" lon="-105.2305751">
  <ele>1632.75</ele>
  <time>2026-08-28T19:08:11Z</time>
  <course>7.72</course>
  <speed>0.022360679774997897</speed>
  <fix>3d</fix>
</trkpt>
<trkpt lat="40.0728423" lon="-105.2305753">
  <ele>1632.15</ele>
  <time>2026-08-28T19:08:11Z</time>
  <course>112.78</course>
  <speed>0.0</speed>
  <fix>3d</fix>
</trkpt>
<trkpt lat="40.0728421" lon="-105.2305751">
  <ele>1632.76</ele>
  <time>2026-08-28T19:08:11Z</time>
  <course>7.72</course>
  <speed>0.022360679774997897</speed>
  <fix>3d</fix>
</trkpt>
<trkpt lat="40.0728421" lon="-105.2305751">
  <ele>1633.25</ele>
  <time>2026-08-28T19:08:11Z</time>
  <course>7.76</course>
  <speed>0.022360679774997897</speed>
  <fix>3d</fix>
</trkpt>
<trkpt lat="40.0728423" lon="-105.2305753">
  <ele>1632.65</ele>
  <time>2026-08-28T19:08:11Z</time>
  <course>137.12</course>
  <speed>0.0</speed>
  <fix>3d</fix>
</trkpt>
<trkpt lat="40.0728421" lon="-105.2305751">
  <ele>1633.32</ele>
  <time>2026-08-28T19:08:11Z</time>
  <course>7.76</course>
  <speed>0.022360679774997897</speed>
  <fix>3d</fix>
</trkpt>
<trkpt lat="40.0728421" lon="-105.2305751">
  <ele>1633.75</ele>
  <time>2026-08-28T19:08:11Z</time>
  <course>7.8</course>
  <speed>0.022360679774997897</speed>
  <fix>3d</fix>
</trkpt>
<trkpt lat="40.0728423" lon="-105.2305753">
  <ele>1633.15</ele>
  <time>2026-08-28T19:08:11Z</time>
  <course>146.49</course>
  <speed>0.0</speed>
  <fix>3d</fix>
</trkpt>
<trkpt lat="40.0728421" lon="-105.2305751">
  <ele>1633.82</ele>
  <time>2026-08-28T19:08:11Z</time>
  <course>7.8</course>
  <speed>0.022360679774997897</speed>
  <fix>3d</fix>
</trkpt>
<trkpt lat="40.0728421" lon="-105.2305751">
  <ele>1634.25</ele>
  <time>2026-08-28T19:08:11Z</time>
  <course>7.83</course>
  <speed>0.0282842712474619</speed>
  <fix>3d</fix>
</trkpt>
<trkpt lat="40.0728423" lon="-105.2305753">
  <ele>1633.65</ele>
  <time>2026-08-28T19:08:11Z</time>
  <course>151.03</course>
  <speed>0.0</speed>
  <fix>3d</fix>
</trkpt>
<trkpt lat="40.0728421" lon="-105.2305751">
  <ele>1634.26</ele>
  <time>2026-08-28T19:08:11Z</time>
  <course>7.83</course>
  <speed>0.0282842712474619</speed>
  <fix>3d</fix>
</trkpt>
<trkpt lat="40.0728421" lon="-105.2305751">
  <ele>1634.75</ele>
  <time>2026-08-28T19:08:11Z</time>
  <course>7.86</course>
  <speed>0.0282842712474619</speed>
  <fix>3d</fix>
</trkpt>
<trkpt lat="40.0728423" lon="-105.2305753">
  <ele>1634.15</ele>
  <time>2026-08-28T19:08:11Z</time>
  <course>153.43</course>
  <speed>0.0</speed>
  <fix>3d</fix>
</trkpt>
<trkpt lat="40.0728421" lon="-105.2305751">
  <ele>1634.81</ele>
  <time>2026-08-28T19:08:11Z</time>
  <course>7.87</course>
  <speed>0.0282842712474619</speed>
  <fix>3d</fix>
</trkpt>
<trkpt lat="40.0728421" lon="-105.2305751">
  <ele>1635.25</ele>
  <time>2026-08-28T19:08:11Z</time>
  <course>7.89</course>
  <speed>0.0282842712474619</speed>
  <fix>3d</fix>
</trkpt>
<trkpt lat="40.0728423" lon="-105.2305753">
  <ele>1634.65</ele>
  <time>2026-08-28T19:08:11Z</time>
  <course>154.92</course>
  <speed>0.0</speed>
  <fix>3d</fix>
</trkpt>
<trkpt lat="40.0728421" lon="-105.2305751">
  <ele>1635.26</ele>
  <time>2026-08-28T19:08:11Z</time>
  <course>7.89</course>
  <speed>0.0282842712474619</speed>
  <fix>3d</fix>
</trkpt>
<trkpt lat="40.0728421" lon="-105.2305751">
  <ele>1635.75</ele>
  <time>2026-08-28T19:08:11Z</time>
  <course>7.92</course>
  <speed>0.0282842712474619</speed>
  <fix>3d</fix>
</trkpt>
<trkpt lat="40.0728423" lon="-105.2305753">
  <ele>1635.15</ele>
  <time>2026-08-28T19:08:11Z</time>
  <course>155.81</course>
  <speed>0.01</speed>
  <fix>3d</fix>
</trkpt>
<trkpt lat="40.0728421" lon="-105.2305751">
  <ele>1635.81</ele>
  <time>2026-08-28T19:08:11Z</time>
  <course>7.93</course>
  <speed>0.0282842712474619</speed>
  <fix>3d</fix>
</trkpt>
<trkpt lat="40.0728421" lon="-105.2305751">
  <ele>1636.24</ele>
  <time>2026-08-28T19:08:11Z</time>
  <course>7.93</course>
  <speed>0.0282842712474619</speed>
  <fix>3d</fix>
</trkpt>
<trkpt lat="40.0728423" lon="-105.2305753">
  <ele>1635.64</ele>
  <time>2026-08-28T19:08:11Z</time>
  <course>156.73</course>
  <speed>0.01</speed>
  <fix>3d</fix>
</trkpt>
<trkpt lat="40.0728421" lon="-105.2305751">
  <ele>1636.3</ele>
  <time>2026-08-28T19:08:11Z</time>
  <course>7.93</course>
  <speed>0.0282842712474619</speed>
  <fix>3d</fix>
</trkpt>
<trkpt lat="40.0728421" lon="-105.2305751">
  <ele>1636.74</ele>
  <time>2026-08-28T19:08:11Z</time>
  <course>7.95</course>
  <speed>0.022360679774997897</speed>
  <fix>3d</fix>
</trkpt>
<trkpt lat="40.0728423" lon="-105.2305753">
  <ele>1636.14</ele>
  <time>2026-08-28T19:08:11Z</time>
  <course>159.67</course>
  <speed>0.01</speed>
  <fix>3d</fix>
</trkpt>
<trkpt lat="40.0728421" lon="-105.2305751">
  <ele>1636.74</ele>
  <time>2026-08-28T19:08:11Z</time>
  <course>7.95</course>
  <speed>0.022360679774997897</speed>
  <fix>3d</fix>
</trkpt>
<trkpt lat="40.0728421" lon="-105.2305751">
  <ele>1637.24</ele>
  <time>2026-08-28T19:08:11Z</time>
  <course>7.98</course>
  <speed>0.022360679774997897</speed>
  <fix>3d</fix>
</trkpt>
<trkpt lat="40.0728422" lon="-105.2305753">
  <ele>1636.65</ele>
  <time>2026-08-28T19:08:11Z</time>
  <course>164.52</course>
  <speed>0.01</speed>
  <fix>3d</fix>
</trkpt>
<trkpt lat="40.0728421" lon="-105.2305751">
  <ele>1637.3</ele>
  <time>2026-08-28T19:08:11Z</time>
  <course>7.98</course>
  <speed>0.022360679774997897</speed>
  <fix>3d</fix>
</trkpt>
<trkpt lat="40.0728421" lon="-105.2305751">
  <ele>1637.74</ele>
  <time>2026-08-28T19:08:11Z</time>
  <course>8.01</course>
  <speed>0.022360679774997897</speed>
  <fix>3d</fix>
</trkpt>
<trkpt lat="40.0728421" lon="-105.2305753">
  <ele>1637.15</ele>
  <time>2026-08-28T19:08:11Z</time>
  <course>169.14</course>
  <speed>0.01</speed>
  <fix>3d</fix>
</trkpt>
<trkpt lat="40.0728421" lon="-105.2305751">
  <ele>1637.74</ele>
  <time>2026-08-28T19:08:11Z</time>
  <course>8.01</course>
  <speed>0.022360679774997897</speed>
  <fix>3d</fix>
</trkpt>
<trkpt lat="40.0728421" lon="-105.2305751">
  <ele>1638.24</ele>
  <time>2026-08-28T19:08:11Z</time>
  <course>8.04</course>
  <speed>0.022360679774997897</speed>
  <fix>3d</fix>
</trkpt>
<trkpt lat="40.0728421" lon="-105.2305753">
  <ele>1637.65</ele>
  <time>2026-08-28T19:08:11Z</time>
  <course>172.01</course>
  <speed>0.01</speed>
  <fix>3d</fix>
</trkpt>
<trkpt lat="40.0728421" lon="-105.2305751">
  <ele>1638.3</ele>
  <time>2026-08-28T19:08:11Z</time>
  <course>8.05</course>
  <speed>0.022360679774997897</speed>
  <fix>3d</fix>
</trkpt>
<trkpt lat="40.0728421" lon="-105.2305751">
  <ele>1638.74</ele>
  <time>2026-08-28T19:08:11Z</time>
  <course>8.09</course>
  <speed>0.022360679774997897</speed>
  <fix>3d</fix>
</trkpt>
<trkpt lat="40.0728421" lon="-105.2305753">
  <ele>1638.15</ele>
  <time>2026-08-28T19:08:11Z</time>
  <course>173.16</course>
  <speed>0.01</speed>
  <fix>3d</fix>
</trkpt>
<trkpt lat="40.0728421" lon="-105.2305751">
  <ele>1638.81</ele>
  <time>2026-08-28T19:08:11Z</time>
  <course>8.1</course>
  <speed>0.022360679774997897</speed>
  <fix>3d</fix>
</trkpt>
<trkpt lat="40.0728421" lon="-105.2305751">
  <ele>1639.25</ele>
  <time>2026-08-28T19:08:11Z</time>
  <course>8.12</course>
  <speed>0.022360679774997897</speed>
  <fix>3d</fix>
</trkpt>
<trkpt lat="40.0728421" lon="-105.2305753">
  <ele>1638.65</ele>
  <time>2026-08-28T19:08:11Z</time>
  <course>174.05</course>
  <speed>0.01</speed>
  <fix>3d</fix>
</trkpt>
<trkpt lat="40.0728421" lon="-105.2305751">
  <ele>1639.31</ele>
  <time>2026-08-28T19:08:11Z</time>
  <course>8.12</course>
  <speed>0.022360679774997897</speed>
  <fix>3d</fix>
</trkpt>
<trkpt lat="40.072842" lon="-105.2305751">
  <ele>1639.74</ele>
  <time>2026-08-28T19:08:11Z</time>
  <course>8.15</course>
  <speed>0.01414213562373095</speed>
  <fix>3d</fix>
</trkpt>
<trkpt lat="40.0728421" lon="-105.2305753">
  <ele>1639.16</ele>
  <time>2026-08-28T19:08:11Z</time>
  <course>173.98</course>
  <speed>0.0</speed>
  <fix>3d</fix>
</trkpt>
<trkpt lat="40.072842" lon="-105.2305751">
  <ele>1639.81</ele>
  <time>2026-08-28T19:08:11Z</time>
  <course>8.15</course>
  <speed>0.01414213562373095</speed>
  <fix>3d</fix>
</trkpt>
<trkpt lat="40.072842" lon="-105.2305751">
  <ele>1640.24</ele>
  <time>2026-08-28T19:08:11Z</time>
  <course>8.18</course>
  <speed>0.01414213562373095</speed>
  <fix>3d</fix>
</trkpt>
<trkpt lat="40.072842" lon="-105.2305753">
  <ele>1639.66</ele>
  <time>2026-08-28T19:08:11Z</time>
  <course>174.41</course>
  <speed>0.0</speed>
  <fix>3d</fix>
</trkpt>
<trkpt lat="40.072842" lon="-105.2305751">
  <ele>1640.25</ele>
  <time>2026-08-28T19:08:11Z</time>
  <course>8.18</course>
  <speed>0.01414213562373095</speed>
  <fix>3d</fix>
</trkpt>
<trkpt lat="40.072842" lon="-105.2305751">
  <ele>1640.75</ele>
  <time>2026-08-28T19:08:11Z</time>
  <course>8.18</course>
  <speed>0.01414213562373095</speed>
  <fix>3d</fix>
</trkpt>
<trkpt lat="40.072842" lon="-105.2305753">
  <ele>1640.16</ele>
  <time>2026-08-28T19:08:11Z</time>
  <course>174.37</course>
  <speed>0.0</speed>
  <fix>3d</fix>
</trkpt>
<trkpt lat="40.072842" lon="-105.2305751">
  <ele>1640.82</ele>
  <time>2026-08-28T19:08:11Z</time>
  <course>8.19</course>
  <speed>0.01414213562373095</speed>
  <fix>3d</fix>
</trkpt>
<trkpt lat="40.072842" lon="-105.2305751">
  <ele>1641.26</ele>
  <time>2026-08-28T19:08:11Z</time>
  <course>8.23</course>
  <speed>0.01414213562373095</speed>
  <fix>3d</fix>
</trkpt>
<trkpt lat="40.072842" lon="-105.2305753">
  <ele>1640.66</ele>
  <time>2026-08-28T19:08:11Z</time>
  <course>172.8</course>
  <speed>0.0</speed>
  <fix>3d</fix>
</trkpt>
<trkpt lat="40.072842" lon="-105.2305751">
  <ele>1641.32</ele>
  <time>2026-08-28T19:08:11Z</time>
  <course>8.23</course>
  <speed>0.01414213562373095</speed>
  <fix>3d</fix>
</trkpt>
<trkpt lat="40.072842" lon="-105.2305751">
  <ele>1641.76</ele>
  <time>2026-08-28T19:08:11Z</time>
  <course>8.26</course>
  <speed>0.01414213562373095</speed>
  <fix>3d</fix>
</trkpt>
<trkpt lat="40.072842" lon="-105.2305753">
  <ele>1641.16</ele>
  <time>2026-08-28T19:08:11Z</time>
  <course>173.05</course>
  <speed>0.0</speed>
  <fix>3d</fix>
</trkpt>
<trkpt lat="40.072842" lon="-105.2305751">
  <ele>1641.82</ele>
  <time>2026-08-28T19:08:11Z</time>
  <course>8.26</course>
  <speed>0.01414213562373095</speed>
  <fix>3d</fix>
</trkpt>
<trkpt lat="40.072842" lon="-105.2305751">
  <ele>1642.26</ele>
  <time>2026-08-28T19:08:11Z</time>
  <course>8.29</course>
  <speed>0.01414213562373095</speed>
  <fix>3d</fix>
</trkpt>
<trkpt lat="40.072842" lon="-105.2305753">
  <ele>1641.66</ele>
  <time>2026-08-28T19:08:11Z</time>
  <course>13.37</course>
  <speed>0.0</speed>
  <fix>3d</fix>
</trkpt>
<trkpt lat="40.072842" lon="-105.2305751">
  <ele>1642.32</ele>
  <time>2026-08-28T19:08:11Z</time>
  <course>8.29</course>
  <speed>0.01414213562373095</speed>
  <fix>3d</fix>
</trkpt>
<trkpt lat="40.072842" lon="-105.2305751">
  <ele>1642.76</ele>
  <time>2026-08-28T19:08:11Z</time>
  <course>8.32</course>
  <speed>0.01</speed>
  <fix>3d</fix>
</trkpt>
<trkpt lat="40.072842" lon="-105.2305753">
  <ele>1642.16</ele>
  <time>2026-08-28T19:08:11Z</time>
  <course>358.12</course>
  <speed>0.0</speed>
  <fix>3d</fix>
</trkpt>
<trkpt lat="40.072842" lon="-105.2305751">
  <ele>1642.77</ele>
  <time>2026-08-28T19:08:11Z</time>
  <course>8.32</course>
  <speed>0.01</speed>
  <fix>3d</fix>
</trkpt>
<trkpt lat="40.072842" lon="-105.2305751">
  <ele>1643.26</ele>
  <time>2026-08-28T19:08:11Z</time>
  <course>8.34</course>
  <speed>0.01</speed>
  <fix>3d</fix>
</trkpt>
<trkpt lat="40.072842" lon="-105.2305753">
  <ele>1642.66</ele>
  <time>2026-08-28T19:08:11Z</time>
  <course>359.1</course>
  <speed>0.0</speed>
  <fix>3d</fix>
</trkpt>
<trkpt lat="40.072842" lon="-105.2305751">
  <ele>1643.32</ele>
  <time>2026-08-28T19:08:11Z</time>
  <course>8.35</course>
  <speed>0.01</speed>
  <fix>3d</fix>
</trkpt>
<trkpt lat="40.072842" lon="-105.2305751">
  <ele>1643.75</ele>
  <time>2026-08-28T19:08:11Z</time>
  <course>8.37</course>
  <speed>0.01</speed>
  <fix>3d</fix>
</trkpt>
<trkpt lat="40.072842" lon="-105.2305753">
  <ele>1643.16</ele>
  <time>2026-08-28T19:08:11Z</time>
  <course>359.71</course>
  <speed>0.0</speed>
  <fix>3d</fix>
</trkpt>
<trkpt lat="40.072842" lon="-105.2305751">
  <ele>1643.81</ele>
  <time>2026-08-28T19:08:11Z</time>
  <course>8.37</course>
  <speed>0.01</speed>
  <fix>3d</fix>
</trkpt>
<trkpt lat="40.072842" lon="-105.2305751">
  <ele>1644.25</ele>
  <time>2026-08-28T19:08:11Z</time>
  <course>8.37</course>
  <speed>0.01</speed>
  <fix>3d</fix>
</trkpt>
<trkpt lat="40.072842" lon="-105.2305753">
  <ele>1643.66</ele>
  <time>2026-08-28T19:08:11Z</time>
  <course>1.02</course>
  <speed>0.0</speed>
  <fix>3d</fix>
</trkpt>
<trkpt lat="40.072842" lon="-105.2305751">
  <ele>1644.26</ele>
  <time>2026-08-28T19:08:11Z</time>
  <course>8.37</course>
  <speed>0.01</speed>
  <fix>3d</fix>
</trkpt>
<trkpt lat="40.072842" lon="-105.2305751">
  <ele>1644.75</ele>
  <time>2026-08-28T19:08:11Z</time>
  <course>8.39</course>
  <speed>0.01</speed>
  <fix>3d</fix>
</trkpt>
<trkpt lat="40.072842" lon="-105.2305753">
  <ele>1644.16</ele>
  <time>2026-08-28T19:08:11Z</time>
  <course>4.68</course>
  <speed>0.0</speed>
  <fix>3d</fix>
</trkpt>
<trkpt lat="40.072842" lon="-105.2305751">
  <ele>1644.81</ele>
  <time>2026-08-28T19:08:11Z</time>
  <course>8.39</course>
  <speed>0.01</speed>
  <fix>3d</fix>
</trkpt>
<trkpt lat="40.072842" lon="-105.2305751">
  <ele>1645.25</ele>
  <time>2026-08-28T19:08:11Z</time>
  <course>8.41</course>
  <speed>0.02</speed>
  <fix>3d</fix>
</trkpt>
<trkpt lat="40.072842" lon="-105.2305753">
  <ele>1644.66</ele>
  <time>2026-08-28T19:08:11Z</time>
  <course>9.84</course>
  <speed>0.0</speed>
  <fix>3d</fix>
</trkpt>
<trkpt lat="40.072842" lon="-105.2305751">
  <ele>1645.26</ele>
  <time>2026-08-28T19:08:11Z</time>
  <course>8.41</course>
  <speed>0.02</speed>
  <fix>3d</fix>
</trkpt>
<trkpt lat="40.072842" lon="-105.2305751">
  <ele>1645.75</ele>
  <time>2026-08-28T19:08:11Z</time>
  <course>8.41</course>
  <speed>0.02</speed>
  <fix>3d</fix>
</trkpt>
<trkpt lat="40.072842" lon="-105.2305752">
  <ele>1645.16</ele>
  <time>2026-08-28T19:08:11Z</time>
  <course>14.57</course>
  <speed>0.0</speed>
  <fix>3d</fix>
</trkpt>
<trkpt lat="40.072842" lon="-105.2305751">
  <ele>1645.81</ele>
  <time>2026-08-28T19:08:11Z</time>
  <course>8.42</course>
  <speed>0.02</speed>
  <fix>3d</fix>
</trkpt>
<trkpt lat="40.072842" lon="-105.2305751">
  <ele>1646.25</ele>
  <time>2026-08-28T19:08:11Z</time>
  <course>8.46</course>
  <speed>0.02</speed>
  <fix>3d</fix>
</trkpt>
<trkpt lat="40.072842" lon="-105.2305751">
  <ele>1645.66</ele>
  <time>2026-08-28T19:08:11Z</time>
  <course>16.76</course>
  <speed>0.0</speed>
  <fix>3d</fix>
</trkpt>
<trkpt lat="40.072842" lon="-105.2305751">
  <ele>1646.25</ele>
  <time>2026-08-28T19:08:11Z</time>
  <course>8.46</course>
  <speed>0.02</speed>
  <fix>3d</fix>
</trkpt>
<trkpt lat="40.072842" lon="-105.2305751">
  <ele>1646.74</ele>
  <time>2026-08-28T19:08:11Z</time>
  <course>8.47</course>
  <speed>0.02</speed>
  <fix>3d</fix>
</trkpt>
<trkpt lat="40.072842" lon="-105.2305751">
  <ele>1646.16</ele>
  <time>2026-08-28T19:08:11Z</time>
  <course>16.59</course>
  <speed>0.0</speed>
  <fix>3d</fix>
</trkpt>
<trkpt lat="40.072842" lon="-105.2305751">
  <ele>1646.8</ele>
  <time>2026-08-28T19:08:11Z</time>
  <course>8.47</course>
  <speed>0.02</speed>
  <fix>3d</fix>
</trkpt>
<trkpt lat="40.072842" lon="-105.2305751">
  <ele>1647.24</ele>
  <time>2026-08-28T19:08:11Z</time>
  <course>8.48</course>
  <speed>0.02</speed>
  <fix>3d</fix>
</trkpt>
<trkpt lat="40.072842" lon="-105.2305751">
  <ele>1646.66</ele>
  <time>2026-08-28T19:08:11Z</time>
  <course>14.61</course>
  <speed>0.0</speed>
  <fix>3d</fix>
</trkpt>
<trkpt lat="40.072842" lon="-105.2305751">
  <ele>1647.3</ele>
  <time>2026-08-28T19:08:11Z</time>
  <course>8.48</course>
  <speed>0.02</speed>
  <fix>3d</fix>
</trkpt>
<trkpt lat="40.072842" lon="-105.2305751">
  <ele>1647.74</ele>
  <time>2026-08-28T19:08:11Z</time>
  <course>8.48</course>
  <speed>0.01</speed>
  <fix>3d</fix>
</trkpt>
<trkpt lat="40.0728421" lon="-105.2305751">
  <ele>1647.17</ele>
  <time>2026-08-28T19:08:11Z</time>
  <course>9.43</course>
  <speed>0.0</speed>
  <fix>3d</fix>
</trkpt>
<trkpt lat="40.072842" lon="-105.2305751">
  <ele>1647.81</ele>
  <time>2026-08-28T19:08:11Z</time>
  <course>8.48</course>
  <speed>0.01</speed>
  <fix>3d</fix>
</trkpt>
<trkpt lat="40.072842" lon="-105.2305751">
  <ele>1648.24</ele>
  <time>2026-08-28T19:08:11Z</time>
  <course>8.49</course>
  <speed>0.01</speed>
  <fix>3d</fix>
</trkpt>
<trkpt lat="40.0728421" lon="-105.2305751">
  <ele>1647.67</ele>
  <time>2026-08-28T19:08:11Z</time>
  <course>2.16</course>
  <speed>0.0</speed>
  <fix>3d</fix>
</trkpt>
<trkpt lat="40.072842" lon="-105.2305751">
  <ele>1648.24</ele>
  <time>2026-08-28T19:08:11Z</time>
  <course>8.49</course>
  <speed>0.01</speed>
  <fix>3d</fix>
</trkpt>
<trkpt lat="40.072842" lon="-105.2305751">
  <ele>1648.74</ele>
  <time>2026-08-28T19:08:11Z</time>
  <course>8.49</course>
  <speed>0.01</speed>
  <fix>3d</fix>
</trkpt>
<trkpt lat="40.0728421" lon="-105.2305751">
  <ele>1648.17</ele>
  <time>2026-08-28T19:08:11Z</time>
  <course>354.24</course>
  <speed>0.0</speed>
  <fix>3d</fix>
</trkpt>
<trkpt lat="40.072842" lon="-105.2305751">
  <ele>1648.8</ele>
  <time>2026-08-28T19:08:11Z</time>
  <course>8.5</course>
  <speed>0.01</speed>
  <fix>3d</fix>
</trkpt>
<trkpt lat="40.072842" lon="-105.230575">
  <ele>1649.24</ele>
  <time>2026-08-28T19:08:11Z</time>
  <course>8.56</course>
  <speed>0.01414213562373095</speed>
  <fix>3d</fix>
</trkpt>
<trkpt lat="40.0728421" lon="-105.2305751">
  <ele>1648.68</ele>
  <time>2026-08-28T19:08:11Z</time>
  <course>343.29</course>
  <speed>0.0</speed>
  <fix>3d</fix>
</trkpt>
<trkpt lat="40.072842" lon="-105.230575">
  <ele>1649.31</ele>
  <time>2026-08-28T19:08:11Z</time>
  <course>8.57</course>
  <speed>0.01414213562373095</speed>
  <fix>3d</fix>
</trkpt>
<trkpt lat="40.072842" lon="-105.230575">
  <ele>1649.75</ele>
  <time>2026-08-28T19:08:11Z</time>
  <course>8.57</course>
  <speed>0.01414213562373095</speed>
  <fix>3d</fix>
</trkpt>
<trkpt lat="40.0728421" lon="-105.2305751">
  <ele>1649.18</ele>
  <time>2026-08-28T19:08:11Z</time>
  <course>332.1</course>
  <speed>0.0</speed>
  <fix>3d</fix>
</trkpt>
<trkpt lat="40.072842" lon="-105.230575">
  <ele>1649.81</ele>
  <time>2026-08-28T19:08:11Z</time>
  <course>8.58</course>
  <speed>0.01414213562373095</speed>
  <fix>3d</fix>
</trkpt>
<trkpt lat="40.072842" lon="-105.230575">
  <ele>1650.26</ele>
  <time>2026-08-28T19:08:11Z</time>
  <course>8.62</course>
  <speed>0.01414213562373095</speed>
  <fix>3d</fix>
</trkpt>
<trkpt lat="40.0728421" lon="-105.2305751">
  <ele>1649.68</ele>
  <time>2026-08-28T19:08:11Z</time>
  <course>322.73</course>
  <speed>0.0</speed>
  <fix>3d</fix>
</trkpt>
<trkpt lat="40.072842" lon="-105.230575">
  <ele>1650.33</ele>
  <time>2026-08-28T19:08:11Z</time>
  <course>8.62</course>
  <speed>0.01414213562373095</speed>
  <fix>3d</fix>
</trkpt>
<trkpt lat="40.072842" lon="-105.230575">
  <ele>1650.76</ele>
  <time>2026-08-28T19:08:11Z</time>
  <course>8.65</course>
  <speed>0.01414213562373095</speed>
  <fix>3d</fix>
</trkpt>
<trkpt lat="40.0728421" lon="-105.2305751">
  <ele>1650.19</ele>
  <time>2026-08-28T19:08:11Z</time>
  <course>311.7</course>
  <speed>0.0</speed>
  <fix>3d</fix>
</trkpt>
<trkpt lat="40.072842" lon="-105.230575">
  <ele>1650.77</ele>
  <time>2026-08-28T19:08:11Z</time>
  <course>8.65</course>
  <speed>0.01414213562373095</speed>
  <fix>3d</fix>
</trkpt>
<trkpt lat="40.072842" lon="-105.230575">
  <ele>1651.27</ele>
  <time>2026-08-28T19:08:11Z</time>
  <course>8.68</course>
  <speed>0.01414213562373095</speed>
  <fix>3d</fix>
</trkpt>
<trkpt lat="40.0728421" lon="-105.2305751">
  <ele>1650.69</ele>
  <time>2026-08-28T19:08:11Z</time>
  <course>301.46</course>
  <speed>0.0</speed>
  <fix>3d</fix>
</trkpt>
<trkpt lat="40.072842" lon="-105.230575">
  <ele>1651.34</ele>
  <time>2026-08-28T19:08:11Z</time>
  <course>8.68</course>
  <speed>0.01414213562373095</speed>
  <fix>3d</fix>
</trkpt>
<trkpt lat="40.072842" lon="-105.230575">
  <ele>1651.77</ele>
  <time>2026-08-28T19:08:11Z</time>
  <course>8.7</course>
  <speed>0.01414213562373095</speed>
  <fix>3d</fix>
</trkpt>
<trkpt lat="40.0728421" lon="-105.2305751">
  <ele>1651.19</ele>
  <time>2026-08-28T19:08:11Z</time>
  <course>294.47</course>
  <speed>0.0</speed>
  <fix>3d</fix>
</trkpt>
<trkpt lat="40.072842" lon="-105.2305751">
  <ele>1651.84</ele>
  <time>2026-08-28T19:08:11Z</time>
  <course>8.7</course>
  <speed>0.01414213562373095</speed>
  <fix>3d</fix>
</trkpt>
<trkpt lat="40.072842" lon="-105.2305751">
  <ele>1652.27</ele>
  <time>2026-08-28T19:08:11Z</time>
  <course>8.73</course>
  <speed>0.01414213562373095</speed>
  <fix>3d</fix>
</trkpt>
<trkpt lat="40.0728421" lon="-105.2305751">
  <ele>1651.69</ele>
  <time>2026-08-28T19:08:11Z</time>
  <course>291.9</course>
  <speed>0.0</speed>
  <fix>3d</fix>
</trkpt>
<trkpt lat="40.072842" lon="-105.2305751">
  <ele>1652.34</ele>
  <time>2026-08-28T19:08:11Z</time>
  <course>8.74</course>
  <speed>0.01414213562373095</speed>
  <fix>3d</fix>
</trkpt>
<trkpt lat="40.072842" lon="-105.2305751">
  <ele>1652.76</ele>
  <time>2026-08-28T19:08:11Z</time>
  <course>8.73</course>
  <speed>0.01414213562373095</speed>
  <fix>3d</fix>
</trkpt>
<trkpt lat="40.0728422" lon="-105.2305751">
  <ele>1652.19</ele>
  <time>2026-08-28T19:08:11Z</time>
  <course>292.2</course>
  <speed>0.0</speed>
  <fix>3d</fix>
</trkpt>
<trkpt lat="40.072842" lon="-105.2305751">
  <ele>1652.77</ele>
  <time>2026-08-28T19:08:11Z</time>
  <course>8.73</course>
  <speed>0.01414213562373095</speed>
  <fix>3d</fix>
</trkpt>
<trkpt lat="40.072842" lon="-105.2305751">
  <ele>1653.26</ele>
  <time>2026-08-28T19:08:11Z</time>
  <course>8.74</course>
  <speed>0.01414213562373095</speed>
  <fix>3d</fix>
</trkpt>
<trkpt lat="40.0728423" lon="-105.2305751">
  <ele>1652.69</ele>
  <time>2026-08-28T19:08:11Z</time>
  <course>290.33</course>
  <speed>0.0</speed>
  <fix>3d</fix>
</trkpt>
<trkpt lat="40.072842" lon="-105.2305751">
  <ele>1653.33</ele>
  <time>2026-08-28T19:08:11Z</time>
  <course>8.75</course>
  <speed>0.01414213562373095</speed>
  <fix>3d</fix>
</trkpt>
<trkpt lat="40.072842" lon="-105.2305751">
  <ele>1653.76</ele>
  <time>2026-08-28T19:08:11Z</time>
  <course>8.75</course>
  <speed>0.01414213562373095</speed>
  <fix>3d</fix>
</trkpt>
<trkpt lat="40.0728423" lon="-105.2305752">
  <ele>1653.18</ele>
  <time>2026-08-28T19:08:11Z</time>
  <course>286.85</course>
  <speed>0.0</speed>
  <fix>3d</fix>
</trkpt>
<trkpt lat="40.072842" lon="-105.2305751">
  <ele>1653.76</ele>
  <time>2026-08-28T19:08:11Z</time>
  <course>8.75</course>
  <speed>0.01414213562373095</speed>
  <fix>3d</fix>
</trkpt>
<trkpt lat="40.072842" lon="-105.2305751">
  <ele>1654.26</ele>
  <time>2026-08-28T19:08:11Z</time>
  <course>8.76</course>
  <speed>0.01414213562373095</speed>
  <fix>3d</fix>
</trkpt>
<trkpt lat="40.0728423" lon="-105.2305753">
  <ele>1653.68</ele>
  <time>2026-08-28T19:08:11Z</time>
  <course>284.23</course>
  <speed>0.0</speed>
  <fix>3d</fix>
</trkpt>
<trkpt lat="40.072842" lon="-105.2305751">
  <ele>1654.32</ele>
  <time>2026-08-28T19:08:11Z</time>
  <course>8.76</course>
  <speed>0.01414213562373095</speed>
  <fix>3d</fix>
</trkpt>
<trkpt lat="40.0728421" lon="-105.2305751">
  <ele>1654.76</ele>
  <time>2026-08-28T19:08:11Z</time>
  <course>8.78</course>
  <speed>0.01414213562373095</speed>
  <fix>3d</fix>
</trkpt>
<trkpt lat="40.0728423" lon="-105.2305753">
  <ele>1654.18</ele>
  <time>2026-08-28T19:08:11Z</time>
  <course>281.74</course>
  <speed>0.0</speed>
  <fix>3d</fix>
</trkpt>
<trkpt lat="40.0728421" lon="-105.2305751">
  <ele>1654.82</ele>
  <time>2026-08-28T19:08:11Z</time>
  <course>8.78</course>
  <speed>0.01414213562373095</speed>
  <fix>3d</fix>
</trkpt>
<trkpt lat="40.0728421" lon="-105.2305751">
  <ele>1655.25</ele>
  <time>2026-08-28T19:08:11Z</time>
  <course>8.78</course>
  <speed>0.01414213562373095</speed>
  <fix>3d</fix>
</trkpt>
<trkpt lat="40.0728423" lon="-105.2305753">
  <ele>1654.68</ele>
  <time>2026-08-28T19:08:11Z</time>
  <course>275.19</course>
  <speed>0.0</speed>
  <fix>3d</fix>
</trkpt>
<trkpt lat="40.0728421" lon="-105.2305751">
  <ele>1655.26</ele>
  <time>2026-08-28T19:08:11Z</time>
  <course>8.78</course>
  <speed>0.01414213562373095</speed>
  <fix>3d</fix>
</trkpt>
<trkpt lat="40.0728421" lon="-105.2305751">
  <ele>1655.75</ele>
  <time>2026-08-28T19:08:11Z</time>
  <course>8.81</course>
  <speed>0.01414213562373095</speed>
  <fix>3d</fix>
</trkpt>
<trkpt lat="40.0728423" lon="-105.2305753">
  <ele>1655.18</ele>
  <time>2026-08-28T19:08:11Z</time>
  <course>256.48</course>
  <speed>0.0</speed>
  <fix>3d</fix>
</trkpt>
<trkpt lat="40.0728421" lon="-105.2305751">
  <ele>1655.82</ele>
  <time>2026-08-28T19:08:11Z</time>
  <course>8.81</course>
  <speed>0.01414213562373095</speed>
  <fix>3d</fix>
</trkpt>
<trkpt lat="40.0728421" lon="-105.2305751">
  <ele>1656.24</ele>
  <time>2026-08-28T19:08:11Z</time>
  <course>8.79</course>
  <speed>0.01414213562373095</speed>
  <fix>3d</fix>
</trkpt>
<trkpt lat="40.0728423" lon="-105.2305753">
  <ele>1655.68</ele>
  <time>2026-08-28T19:08:11Z</time>
  <course>231.64</course>
  <speed>0.0</speed>
  <fix>3d</fix>
</trkpt>
<trkpt lat="40.0728421" lon="-105.2305751">
  <ele>1656.25</ele>
  <time>2026-08-28T19:08:11Z</time>
  <course>8.79</course>
  <speed>0.022360679774997897</speed>
  <fix>3d</fix>
</trkpt>
<trkpt lat="40.0728421" lon="-105.2305751">
  <ele>1656.74</ele>
  <time>2026-08-28T19:08:11Z</time>
  <course>8.81</course>
  <speed>0.022360679774997897</speed>
  <fix>3d</fix>
</trkpt>
<trkpt lat="40.0728423" lon="-105.2305753">
  <ele>1656.18</ele>
  <time>2026-08-28T19:08:11Z</time>
  <course>210.4</course>
  <speed>0.0</speed>
  <fix>3d</fix>
</trkpt>
<trkpt lat="40.0728421" lon="-105.2305751">
  <ele>1656.81</ele>
  <time>2026-08-28T19:08:11Z</time>
  <course>8.81</course>
  <speed>0.022360679774997897</speed>
  <fix>3d</fix>
</trkpt>
<trkpt lat="40.0728421" lon="-105.2305751">
  <ele>1657.24</ele>
  <time>2026-08-28T19:08:11Z</time>
  <course>8.83</course>
  <speed>0.022360679774997897</speed>
  <fix>3d</fix>
</trkpt>
<trkpt lat="40.0728423" lon="-105.2305753">
  <ele>1656.68</ele>
  <time>2026-08-28T19:08:11Z</time>
  <course>197.05</course>
  <speed>0.0</speed>
  <fix>3d</fix>
</trkpt>
<trkpt lat="40.0728421" lon="-105.2305751">
  <ele>1657.31</ele>
  <time>2026-08-28T19:08:11Z</time>
  <course>8.84</course>
  <speed>0.022360679774997897</speed>
  <fix>3d</fix>
</trkpt>
<trkpt lat="40.0728421" lon="-105.2305751">
  <ele>1657.75</ele>
  <time>2026-08-28T19:08:11Z</time>
  <course>8.85</course>
  <speed>0.022360679774997897</speed>
  <fix>3d</fix>
</trkpt>
<trkpt lat="40.0728423" lon="-105.2305753">
  <ele>1657.18</ele>
  <time>2026-08-28T19:08:11Z</time>
  <course>188.69</course>
  <speed>0.0</speed>
  <fix>3d</fix>
</trkpt>
<trkpt lat="40.0728421" lon="-105.2305751">
  <ele>1657.75</ele>
  <time>2026-08-28T19:08:11Z</time>
  <course>8.85</course>
  <speed>0.022360679774997897</speed>
  <fix>3d</fix>
</trkpt>
<trkpt lat="40.0728421" lon="-105.2305751">
  <ele>1658.25</ele>
  <time>2026-08-28T19:08:11Z</time>
  <course>8.87</course>
  <speed>0.022360679774997897</speed>
  <fix>3d</fix>
</trkpt>
<trkpt lat="40.0728423" lon="-105.2305753">
  <ele>1657.69</ele>
  <time>2026-08-28T19:08:11Z</time>
  <course>185.3</course>
  <speed>0.0</speed>
  <fix>3d</fix>
</trkpt>
<trkpt lat="40.0728421" lon="-105.2305751">
  <ele>1658.32</ele>
  <time>2026-08-28T19:08:11Z</time>
  <course>8.87</course>
  <speed>0.022360679774997897</speed>
  <fix>3d</fix>
</trkpt>
<trkpt lat="40.0728421" lon="-105.2305751">
  <ele>1658.75</ele>
  <time>2026-08-28T19:08:11Z</time>
  <course>8.87</course>
  <speed>0.022360679774997897</speed>
  <fix>3d</fix>
</trkpt>
<trkpt lat="40.0728423" lon="-105.2305753">
  <ele>1658.19</ele>
  <time>2026-08-28T19:08:11Z</time>
  <course>183.72</course>
  <speed>0.01</speed>
  <fix>3d</fix>
</trkpt>
<trkpt lat="40.0728421" lon="-105.2305751">
  <ele>1658.82</ele>
  <time>2026-08-28T19:08:11Z</time>
  <course>8.88</course>
  <speed>0.022360679774997897</speed>
  <fix>3d</fix>
</trkpt>
<trkpt lat="40.0728421" lon="-105.2305751">
  <ele>1659.25</ele>
  <time>2026-08-28T19:08:11Z</time>
  <course>8.89</course>
  <speed>0.022360679774997897</speed>
  <fix>3d</fix>
</trkpt>
<trkpt lat="40.0728423" lon="-105.2305753">
  <ele>1658.69</ele>
  <time>2026-08-28T19:08:11Z</time>
  <course>181.65</course>
  <speed>0.01</speed>
  <fix>3d</fix>
</trkpt>
<trkpt lat="40.0728421" lon="-105.2305751">
  <ele>1659.32</ele>
  <time>2026-08-28T19:08:11Z</time>
  <course>8.89</course>
  <speed>0.022360679774997897</speed>
  <fix>3d</fix>
</trkpt>
<trkpt lat="40.0728421" lon="-105.2305751">
  <ele>1659.75</ele>
  <time>2026-08-28T19:08:11Z</time>
  <course>8.91</course>
  <speed>0.022360679774997897</speed>
  <fix>3d</fix>
</trkpt>
<trkpt lat="40.0728422" lon="-105.2305753">
  <ele>1659.19</ele>
  <time>2026-08-28T19:08:11Z</time>
  <course>180.14</course>
  <speed>0.01</speed>
  <fix>3d</fix>
</trkpt>
<trkpt lat="40.0728421" lon="-105.2305751">
  <ele>1659.82</ele>
  <time>2026-08-28T19:08:11Z</time>
  <course>8.91</course>
  <speed>0.022360679774997897</speed>
  <fix>3d</fix>
</trkpt>
<trkpt lat="40.0728421" lon="-105.2305751">
  <ele>1660.25</ele>
  <time>2026-08-28T19:08:11Z</time>
  <course>8.93</course>
  <speed>0.022360679774997897</speed>
  <fix>3d</fix>
</trkpt>
<trkpt lat="40.0728421" lon="-105.2305753">
  <ele>1659.69</ele>
  <time>2026-08-28T19:08:11Z</time>
  <course>179.56</course>
  <speed>0.01</speed>
  <fix>3d</fix>
</trkpt>
<trkpt lat="40.0728421" lon="-105.2305751">
  <ele>1660.26</ele>
  <time>2026-08-28T19:08:11Z</time>
  <course>8.93</course>
  <speed>0.022360679774997897</speed>
  <fix>3d</fix>
</trkpt>
<trkpt lat="40.0728421" lon="-105.2305751">
  <ele>1660.75</ele>
  <time>2026-08-28T19:08:11Z</time>
  <course>8.93</course>
  <speed>0.022360679774997897</speed>
  <fix>3d</fix>
</trkpt>
<trkpt lat="40.0728421" lon="-105.2305753">
  <ele>1660.19</ele>
  <time>2026-08-28T19:08:11Z</time>
  <course>179.08</course>
  <speed>0.01</speed>
  <fix>3d</fix>
</trkpt>
<trkpt lat="40.0728421" lon="-105.2305751">
  <ele>1660.81</ele>
  <time>2026-08-28T19:08:11Z</time>
  <course>8.93</course>
  <speed>0.022360679774997897</speed>
  <fix>3d</fix>
</trkpt>
<trkpt lat="40.0728421" lon="-105.2305751">
  <ele>1661.26</ele>
  <time>2026-08-28T19:08:11Z</time>
  <course>8.93</course>
  <speed>0.022360679774997897</speed>
  <fix>3d</fix>
</trkpt>
<trkpt lat="40.0728421" lon="-105.2305753">
  <ele>1660.69</ele>
  <time>2026-08-28T19:08:11Z</time>
  <course>175.95</course>
  <speed>0.01</speed>
  <fix>3d</fix>
</trkpt>
<trkpt lat="40.0728421" lon="-105.2305751">
  <ele>1661.33</ele>
  <time>2026-08-28T19:08:11Z</time>
  <course>8.93</course>
  <speed>0.022360679774997897</speed>
  <fix>3d</fix>
</trkpt>
<trkpt lat="40.072842" lon="-105.2305751">
  <ele>1661.76</ele>
  <time>2026-08-28T19:08:11Z</time>
  <course>8.96</course>
  <speed>0.0282842712474619</speed>
  <fix>3d</fix>
</trkpt>
<trkpt lat="40.0728421" lon="-105.2305753">
  <ele>1661.2</ele>
  <time>2026-08-28T19:08:11Z</time>
  <course>173.78</course>
  <speed>0.01</speed>
  <fix>3d</fix>
</trkpt>
<trkpt lat="40.072842" lon="-105.2305751">
  <ele>1661.78</ele>
  <time>2026-08-28T19:08:11Z</time>
  <course>8.96</course>
  <speed>0.0282842712474619</speed>
  <fix>3d</fix>
</trkpt>
<trkpt lat="40.072842" lon="-105.2305751">
  <ele>1662.26</ele>
  <time>2026-08-28T19:08:11Z</time>
  <course>8.98</course>
  <speed>0.0282842712474619</speed>
  <fix>3d</fix>
</trkpt>
<trkpt lat="40.0728421" lon="-105.2305753">
  <ele>1661.7</ele>
  <time>2026-08-28T19:08:11Z</time>
  <course>172.96</course>
  <speed>0.0</speed>
  <fix>3d</fix>
</trkpt>
<trkpt lat="40.072842" lon="-105.2305751">
  <ele>1662.36</ele>
  <time>2026-08-28T19:08:11Z</time>
  <course>8.98</course>
  <speed>0.0282842712474619</speed>
  <fix>3d</fix>
</trkpt>
<trkpt lat="40.072842" lon="-105.2305751">
  <ele>1662.77</ele>
  <time>2026-08-28T19:08:11Z</time>
  <course>9.0</course>
  <speed>0.0282842712474619</speed>
  <fix>3d</fix>
</trkpt>
<trkpt lat="40.072842" lon="-105.2305753">
  <ele>1662.2</ele>
  <time>2026-08-28T19:08:11Z</time>
  <course>170.83</course>
  <speed>0.0</speed>
  <fix>3d</fix>
</trkpt>
<trkpt lat="40.072842" lon="-105.2305751">
  <ele>1662.77</ele>
  <time>2026-08-28T19:08:11Z</time>
  <course>9.0</course>
  <speed>0.0282842712474619</speed>
  <fix>3d</fix>
</trkpt>
<trkpt lat="40.072842" lon="-105.2305751">
  <ele>1663.27</ele>
  <time>2026-08-28T19:08:11Z</time>
  <course>9.01</course>
  <speed>0.01414213562373095</speed>
  <fix>3d</fix>
</trkpt>
<trkpt lat="40.072842" lon="-105.2305753">
  <ele>1662.7</ele>
  <time>2026-08-28T19:08:11Z</time>
  <course>170.06</course>
  <speed>0.0</speed>
  <fix>3d</fix>
</trkpt>
<trkpt lat="40.072842" lon="-105.2305751">
  <ele>1663.34</ele>
  <time>2026-08-28T19:08:11Z</time>
  <course>9.02</course>
  <speed>0.01414213562373095</speed>
  <fix>3d</fix>
</trkpt>
<trkpt lat="40.072842" lon="-105.2305751">
  <ele>1663.77</ele>
  <time>2026-08-28T19:08:11Z</time>
  <course>9.02</course>
  <speed>0.022360679774997897</speed>
  <fix>3d</fix>
</trkpt>
<trkpt lat="40.072842" lon="-105.2305753">
  <ele>1663.19</ele>
  <time>2026-08-28T19:08:11Z</time>
  <course>166.18</course>
  <speed>0.0</speed>
  <fix>3d</fix>
</trkpt>
<trkpt lat="40.072842" lon="-105.2305751">
  <ele>1663.83</ele>
  <time>2026-08-28T19:08:11Z</time>
  <course>9.02</course>
  <speed>0.022360679774997897</speed>
  <fix>3d</fix>
</trkpt>
<trkpt lat="40.072842" lon="-105.2305751">
  <ele>1664.26</ele>
  <time>2026-08-28T19:08:11Z</time>
  <course>9.03</course>
  <speed>0.022360679774997897</speed>
  <fix>3d</fix>
</trkpt>
<trkpt lat="40.072842" lon="-105.2305753">
  <ele>1663.69</ele>
  <time>2026-08-28T19:08:11Z</time>
  <course>148.34</course>
  <speed>0.0</speed>
  <fix>3d</fix>
</trkpt>
<trkpt lat="40.072842" lon="-105.2305751">
  <ele>1664.33</ele>
  <time>2026-08-28T19:08:11Z</time>
  <course>9.03</course>
  <speed>0.022360679774997897</speed>
  <fix>3d</fix>
</trkpt>
<trkpt lat="40.072842" lon="-105.2305751">
  <ele>1664.76</ele>
  <time>2026-08-28T19:08:11Z</time>
  <course>9.03</course>
  <speed>0.022360679774997897</speed>
  <fix>3d</fix>
</trkpt>
<trkpt lat="40.072842" lon="-105.2305753">
  <ele>1664.19</ele>
  <time>2026-08-28T19:08:11Z</time>
  <course>44.08</course>
  <speed>0.0</speed>
  <fix>3d</fix>
</trkpt>
<trkpt lat="40.072842" lon="-105.2305751">
  <ele>1664.82</ele>
  <time>2026-08-28T19:08:11Z</time>
  <course>9.04</course>
  <speed>0.022360679774997897</speed>
  <fix>3d</fix>
</trkpt>
<trkpt lat="40.072842" lon="-105.2305751">
  <ele>1665.26</ele>
  <time>2026-08-28T19:08:11Z</time>
  <course>9.03</course>
  <speed>0.022360679774997897</speed>
  <fix>3d</fix>
</trkpt>
<trkpt lat="40.072842" lon="-105.2305753">
  <ele>1664.69</ele>
  <time>2026-08-28T19:08:11Z</time>
  <course>21.14</course>
  <speed>0.0</speed>
  <fix>3d</fix>
</trkpt>
<trkpt lat="40.072842" lon="-105.2305751">
  <ele>1665.27</ele>
  <time>2026-08-28T19:08:11Z</time>
  <course>9.03</course>
  <speed>0.022360679774997897</speed>
  <fix>3d</fix>
</trkpt>
<trkpt lat="40.072842" lon="-105.2305751">
  <ele>1665.76</ele>
  <time>2026-08-28T19:08:11Z</time>
  <course>9.04</course>
  <speed>0.022360679774997897</speed>
  <fix>3d</fix>
</trkpt>
<trkpt lat="40.072842" lon="-105.2305753">
  <ele>1665.19</ele>
  <time>2026-08-28T19:08:11Z</time>
  <course>13.89</course>
  <speed>0.0</speed>
  <fix>3d</fix>
</trkpt>
<trkpt lat="40.072842" lon="-105.2305751">
  <ele>1665.82</ele>
  <time>2026-08-28T19:08:11Z</time>
  <course>9.04</course>
  <speed>0.01</speed>
  <fix>3d</fix>
</trkpt>
<trkpt lat="40.072842" lon="-105.2305751">
  <ele>1666.26</ele>
  <time>2026-08-28T19:08:11Z</time>
  <course>9.05</course>
  <speed>0.01</speed>
  <fix>3d</fix>
</trkpt>
<trkpt lat="40.072842" lon="-105.2305753">
  <ele>1665.68</ele>
  <time>2026-08-28T19:08:11Z</time>
  <course>7.54</course>
  <speed>0.0</speed>
  <fix>3d</fix>
</trkpt>
<trkpt lat="40.072842" lon="-105.2305751">
  <ele>1666.32</ele>
  <time>2026-08-28T19:08:11Z</time>
  <course>9.05</course>
  <speed>0.01</speed>
  <fix>3d</fix>
</trkpt>
<trkpt lat="40.072842" lon="-105.2305751">
  <ele>1666.76</ele>
  <time>2026-08-28T19:08:11Z</time>
  <course>9.06</course>
  <speed>0.01</speed>
  <fix>3d</fix>
</trkpt>
<trkpt lat="40.072842" lon="-105.2305753">
  <ele>1666.18</ele>
  <time>2026-08-28T19:08:11Z</time>
  <course>3.62</course>
  <speed>0.0</speed>
  <fix>3d</fix>
</trkpt>
<trkpt lat="40.072842" lon="-105.2305751">
  <ele>1666.83</ele>
  <time>2026-08-28T19:08:11Z</time>
  <course>9.05</course>
  <speed>0.01</speed>
  <fix>3d</fix>
</trkpt>
<trkpt lat="40.072842" lon="-105.2305751">
  <ele>1667.26</ele>
  <time>2026-08-28T19:08:11Z</time>
  <course>9.08</course>
  <speed>0.01</speed>
  <fix>3d</fix>
</trkpt>
<trkpt lat="40.072842" lon="-105.2305753">
  <ele>1666.68</ele>
  <time>2026-08-28T19:08:11Z</time>
  <course>0.47</course>
  <speed>0.0</speed>
  <fix>3d</fix>
</trkpt>
<trkpt lat="40.072842" lon="-105.2305751">
  <ele>1667.32</ele>
  <time>2026-08-28T19:08:11Z</time>
  <course>9.08</course>
  <speed>0.01</speed>
  <fix>3d</fix>
</trkpt>
<trkpt lat="40.072842" lon="-105.2305751">
  <ele>1667.75</ele>
  <time>2026-08-28T19:08:11Z</time>
  <course>9.08</course>
  <speed>0.01</speed>
  <fix>3d</fix>
</trkpt>
<trkpt lat="40.072842" lon="-105.2305753">
  <ele>1667.18</ele>
  <time>2026-08-28T19:08:11Z</time>
  <course>357.68</course>
  <speed>0.0</speed>
  <fix>3d</fix>
</trkpt>
<trkpt lat="40.072842" lon="-105.2305751">
  <ele>1667.76</ele>
  <time>2026-08-28T19:08:11Z</time>
  <course>9.08</course>
  <speed>0.01</speed>
  <fix>3d</fix>
</trkpt>
<trkpt lat="40.072842" lon="-105.2305751">
  <ele>1668.25</ele>
  <time>2026-08-28T19:08:11Z</time>
  <course>9.08</course>
  <speed>0.01</speed>
  <fix>3d</fix>
</trkpt>
<trkpt lat="40.072842" lon="-105.2305753">
  <ele>1667.68</ele>
  <time>2026-08-28T19:08:11Z</time>
  <course>355.52</course>
  <speed>0.01</speed>
  <fix>3d</fix>
</trkpt>
<trkpt lat="40.072842" lon="-105.2305751">
  <ele>1668.31</ele>
  <time>2026-08-28T19:08:11Z</time>
  <course>9.08</course>
  <speed>0.01</speed>
  <fix>3d</fix>
</trkpt>
<trkpt lat="40.072842" lon="-105.2305751">
  <ele>1668.74</ele>
  <time>2026-08-28T19:08:11Z</time>
  <course>9.08</course>
  <speed>0.01</speed>
  <fix>3d</fix>
</trkpt>
<trkpt lat="40.072842" lon="-105.2305753">
  <ele>1668.18</ele>
  <time>2026-08-28T19:08:11Z</time>
  <course>355.85</course>
  <speed>0.01</speed>
  <fix>3d</fix>
</trkpt>
<trkpt lat="40.072842" lon="-105.2305751">
  <ele>1668.82</ele>
  <time>2026-08-28T19:08:11Z</time>
  <course>9.08</course>
  <speed>0.01</speed>
  <fix>3d</fix>
</trkpt>
<trkpt lat="40.072842" lon="-105.2305751">
  <ele>1669.24</ele>
  <time>2026-08-28T19:08:11Z</time>
  <course>9.07</course>
  <speed>0.01</speed>
  <fix>3d</fix>
</trkpt>
<trkpt lat="40.072842" lon="-105.2305753">
  <ele>1668.68</ele>
  <time>2026-08-28T19:08:11Z</time>
  <course>358.7</course>
  <speed>0.01</speed>
  <fix>3d</fix>
</trkpt>
<trkpt lat="40.072842" lon="-105.2305751">
  <ele>1669.3</ele>
  <time>2026-08-28T19:08:11Z</time>
  <course>9.07</course>
  <speed>0.01</speed>
  <fix>3d</fix>
</trkpt>
<trkpt lat="40.072842" lon="-105.2305751">
  <ele>1669.73</ele>
  <time>2026-08-28T19:08:11Z</time>
  <course>9.06</course>
  <speed>0.01</speed>
  <fix>3d</fix>
</trkpt>
<trkpt lat="40.0728421" lon="-105.2305753">
  <ele>1669.18</ele>
  <time>2026-08-28T19:08:11Z</time>
  <course>2.53</course>
  <speed>0.0</speed>
  <fix>3d</fix>
</trkpt>
<trkpt lat="40.072842" lon="-105.2305751">
  <ele>1669.81</ele>
  <time>2026-08-28T19:08:11Z</time>
  <course>9.06</course>
  <speed>0.01</speed>
  <fix>3d</fix>
</trkpt>
<trkpt lat="40.072842" lon="-105.2305751">
  <ele>1670.24</ele>
  <time>2026-08-28T19:08:11Z</time>
  <course>9.07</course>
  <speed>0.01</speed>
  <fix>3d</fix>
</trkpt>
<trkpt lat="40.0728421" lon="-105.2305753">
  <ele>1669.68</ele>
  <time>2026-08-28T19:08:11Z</time>
  <course>3.98</course>
  <speed>0.0</speed>
  <fix>3d</fix>
</trkpt>
<trkpt lat="40.072842" lon="-105.2305751">
  <ele>1670.25</ele>
  <time>2026-08-28T19:08:11Z</time>
  <course>9.07</course>
  <speed>0.01</speed>
  <fix>3d</fix>
</trkpt>
<trkpt lat="40.072842" lon="-105.2305751">
  <ele>1670.74</ele>
  <time>2026-08-28T19:08:11Z</time>
  <course>9.1</course>
  <speed>0.01</speed>
  <fix>3d</fix>
</trkpt>
<trkpt lat="40.0728421" lon="-105.2305753">
  <ele>1670.18</ele>
  <time>2026-08-28T19:08:11Z</time>
  <course>2.75</course>
  <speed>0.0</speed>
  <fix>3d</fix>
</trkpt>
<trkpt lat="40.072842" lon="-105.2305751">
  <ele>1670.82</ele>
  <time>2026-08-28T19:08:11Z</time>
  <course>9.11</course>
  <speed>0.01414213562373095</speed>
  <fix>3d</fix>
</trkpt>
<trkpt lat="40.072842" lon="-105.2305751">
  <ele>1671.24</ele>
  <time>2026-08-28T19:08:11Z</time>
  <course>9.09</course>
  <speed>0.01414213562373095</speed>
  <fix>3d</fix>
</trkpt>
<trkpt lat="40.0728421" lon="-105.2305753">
  <ele>1670.69</ele>
  <time>2026-08-28T19:08:11Z</time>
  <course>4.57</course>
  <speed>0.0</speed>
  <fix>3d</fix>
</trkpt>
<trkpt lat="40.072842" lon="-105.2305751">
  <ele>1671.31</ele>
  <time>2026-08-28T19:08:11Z</time>
  <course>9.09</course>
  <speed>0.01414213562373095</speed>
  <fix>3d</fix>
</trkpt>
<trkpt lat="40.072842" lon="-105.2305751">
  <ele>1671.74</ele>
  <time>2026-08-28T19:08:11Z</time>
  <course>9.09</course>
  <speed>0.01414213562373095</speed>
  <fix>3d</fix>
</trkpt>
<trkpt lat="40.0728421" lon="-105.2305753">
  <ele>1671.19</ele>
  <time>2026-08-28T19:08:11Z</time>
  <course>8.43</course>
  <speed>0.0</speed>
  <fix>3d</fix>
</trkpt>
<trkpt lat="40.072842" lon="-105.2305751">
  <ele>1671.81</ele>
  <time>2026-08-28T19:08:11Z</time>
  <course>9.09</course>
  <speed>0.01414213562373095</speed>
  <fix>3d</fix>
</trkpt>
<trkpt lat="40.072842" lon="-105.2305751">
  <ele>1672.25</ele>
  <time>2026-08-28T19:08:11Z</time>
  <course>9.13</course>
  <speed>0.01414213562373095</speed>
  <fix>3d</fix>
</trkpt>
<trkpt lat="40.0728421" lon="-105.2305753">
  <ele>1671.7</ele>
  <time>2026-08-28T19:08:11Z</time>
  <course>11.61</course>
  <speed>0.0</speed>
  <fix>3d</fix>
</trkpt>
<trkpt lat="40.072842" lon="-105.2305751">
  <ele>1672.35</ele>
  <time>2026-08-28T19:08:11Z</time>
  <course>9.13</course>
  <speed>0.01414213562373095</speed>
  <fix>3d</fix>
</trkpt>
<trkpt lat="40.072842" lon="-105.2305751">
  <ele>1672.75</ele>
  <time>2026-08-28T19:08:11Z</time>
  <course>9.13</course>
  <speed>0.01414213562373095</speed>
  <fix>3d</fix>
</trkpt>
<trkpt lat="40.0728421" lon="-105.2305753">
  <ele>1672.2</ele>
  <time>2026-08-28T19:08:11Z</time>
  <course>18.52</course>
  <speed>0.0</speed>
  <fix>3d</fix>
</trkpt>
<trkpt lat="40.072842" lon="-105.2305751">
  <ele>1672.79</ele>
  <time>2026-08-28T19:08:11Z</time>
  <course>9.13</course>
  <speed>0.01414213562373095</speed>
  <fix>3d</fix>
</trkpt>
<trkpt lat="40.072842" lon="-105.2305751">
  <ele>1673.24</ele>
  <time>2026-08-28T19:08:11Z</time>
  <course>9.15</course>
  <speed>0.01414213562373095</speed>
  <fix>3d</fix>
</trkpt>
<trkpt lat="40.0728421" lon="-105.2305753">
  <ele>1672.7</ele>
  <time>2026-08-28T19:08:11Z</time>
  <course>24.82</course>
  <speed>0.0</speed>
  <fix>3d</fix>
</trkpt>
<trkpt lat="40.072842" lon="-105.2305751">
  <ele>1673.35</ele>
  <time>2026-08-28T19:08:11Z</time>
  <course>9.15</course>
  <speed>0.01414213562373095</speed>
  <fix>3d</fix>
</trkpt>
<trkpt lat="40.072842" lon="-105.2305751">
  <ele>1673.75</ele>
  <time>2026-08-28T19:08:11Z</time>
  <course>9.13</course>
  <speed>0.01414213562373095</speed>
  <fix>3d</fix>
</trkpt>
<trkpt lat="40.0728422" lon="-105.2305753">
  <ele>1673.21</ele>
  <time>2026-08-28T19:08:11Z</time>
  <course>31.47</course>
  <speed>0.0</speed>
  <fix>3d</fix>
</trkpt>
<trkpt lat="40.072842" lon="-105.2305751">
  <ele>1673.85</ele>
  <time>2026-08-28T19:08:11Z</time>
  <course>9.13</course>
  <speed>0.01414213562373095</speed>
  <fix>3d</fix>
</trkpt>
<trkpt lat="40.072842" lon="-105.2305751">
  <ele>1674.25</ele>
  <time>2026-08-28T19:08:11Z</time>
  <course>9.16</course>
  <speed>0.01414213562373095</speed>
  <fix>3d</fix>
</trkpt>
<trkpt lat="40.0728423" lon="-105.2305753">
  <ele>1673.71</ele>
  <time>2026-08-28T19:08:11Z</time>
  <course>40.86</course>
  <speed>0.0</speed>
  <fix>3d</fix>
</trkpt>
<trkpt lat="40.072842" lon="-105.2305751">
  <ele>1674.38</ele>
  <time>2026-08-28T19:08:11Z</time>
  <course>9.18</course>
  <speed>0.01414213562373095</speed>
  <fix>3d</fix>
</trkpt>
<trkpt lat="40.072842" lon="-105.2305751">
  <ele>1674.75</ele>
  <time>2026-08-28T19:08:11Z</time>
  <course>9.17</course>
  <speed>0.01414213562373095</speed>
  <fix>3d</fix>
</trkpt>
<trkpt lat="40.0728423" lon="-105.2305753">
  <ele>1674.21</ele>
  <time>2026-08-28T19:08:11Z</time>
  <course>48.69</course>
  <speed>0.0</speed>
  <fix>3d</fix>
</trkpt>
<trkpt lat="40.0728421" lon="-105.2305751">
  <ele>1674.87</ele>
  <time>2026-08-28T19:08:11Z</time>
  <course>9.17</course>
  <speed>0.01414213562373095</speed>
  <fix>3d</fix>
</trkpt>
<trkpt lat="40.0728421" lon="-105.2305751">
  <ele>1675.26</ele>
  <time>2026-08-28T19:08:11Z</time>
  <course>9.19</course>
  <speed>0.01414213562373095</speed>
  <fix>3d</fix>
</trkpt>
<trkpt lat="40.0728423" lon="-105.2305753">
  <ele>1674.71</ele>
  <time>2026-08-28T19:08:11Z</time>
  <course>59.39</course>
  <speed>0.0</speed>
  <fix>3d</fix>
</trkpt>
<trkpt lat="40.0728421" lon="-105.2305751">
  <ele>1675.37</ele>
  <time>2026-08-28T19:08:11Z</time>
  <course>9.19</course>
  <speed>0.01414213562373095</speed>
  <fix>3d</fix>
</trkpt>
<trkpt lat="40.0728421" lon="-105.2305751">
  <ele>1675.76</ele>
  <time>2026-08-28T19:08:11Z</time>
  <course>9.21</course>
  <speed>0.01414213562373095</speed>
  <fix>3d</fix>
</trkpt>
<trkpt lat="40.0728423" lon="-105.2305753">
  <ele>1675.21</ele>
  <time>2026-08-28T19:08:11Z</time>
  <course>92.21</course>
  <speed>0.0</speed>
  <fix>3d</fix>
</trkpt>
<trkpt lat="40.0728421" lon="-105.2305751">
  <ele>1675.81</ele>
  <time>2026-08-28T19:08:11Z</time>
  <course>9.21</course>
  <speed>0.01414213562373095</speed>
  <fix>3d</fix>
</trkpt>
<trkpt lat="40.0728421" lon="-105.2305751">
  <ele>1676.26</ele>
  <time>2026-08-28T19:08:11Z</time>
  <course>9.22</course>
  <speed>0.01414213562373095</speed>
  <fix>3d</fix>
</trkpt>
<trkpt lat="40.0728423" lon="-105.2305753">
  <ele>1675.71</ele>
  <time>2026-08-28T19:08:11Z</time>
  <course>134.21</course>
  <speed>0.0</speed>
  <fix>3d</fix>
</trkpt>
<trkpt lat="40.0728421" lon="-105.2305751">
  <ele>1676.36</ele>
  <time>2026-08-28T19:08:11Z</time>
  <course>9.22</course>
  <speed>0.01414213562373095</speed>
  <fix>3d</fix>
</trkpt>
<trkpt lat="40.0728421" lon="-105.2305751">
  <ele>1676.77</ele>
  <time>2026-08-28T19:08:11Z</time>
  <course>9.23</course>
  <speed>0.022360679774997897</speed>
  <fix>3d</fix>
</trkpt>
<trkpt lat="40.0728423" lon="-105.2305753">
  <ele>1676.22</ele>
  <time>2026-08-28T19:08:11Z</time>
  <course>152.27</course>
  <speed>0.0</speed>
  <fix>3d</fix>
</trkpt>
<trkpt lat="40.0728421" lon="-105.2305751">
  <ele>1676.89</ele>
  <time>2026-08-28T19:08:11Z</time>
  <course>9.24</course>
  <speed>0.022360679774997897</speed>
  <fix>3d</fix>
</trkpt>
<trkpt lat="40.0728421" lon="-105.2305751">
  <ele>1677.28</ele>
  <time>2026-08-28T19:08:11Z</time>
  <course>9.23</course>
  <speed>0.022360679774997897</speed>
  <fix>3d</fix>
</trkpt>
<trkpt lat="40.0728423" lon="-105.2305753">
  <ele>1676.72</ele>
  <time>2026-08-28T19:08:11Z</time>
  <course>156.35</course>
  <speed>0.0</speed>
  <fix>3d</fix>
</trkpt>
<trkpt lat="40.0728421" lon="-105.2305751">
  <ele>1677.37</ele>
  <time>2026-08-28T19:08:11Z</time>
  <course>9.24</course>
  <speed>0.022360679774997897</speed>
  <fix>3d</fix>
</trkpt>
<trkpt lat="40.0728421" lon="-105.2305751">
  <ele>1677.78</ele>
  <time>2026-08-28T19:08:11Z</time>
  <course>9.29</course>
  <speed>0.022360679774997897</speed>
  <fix>3d</fix>
</trkpt>
<trkpt lat="40.0728423" lon="-105.2305753">
  <ele>1677.21</ele>
  <time>2026-08-28T19:08:11Z</time>
  <course>156.16</course>
  <speed>0.0</speed>
  <fix>3d</fix>
</trkpt>
<trkpt lat="40.0728421" lon="-105.2305751">
  <ele>1677.87</ele>
  <time>2026-08-28T19:08:11Z</time>
  <course>9.29</course>
  <speed>0.022360679774997897</speed>
  <fix>3d</fix>
</trkpt>
<trkpt lat="40.0728421" lon="-105.2305751">
  <ele>1678.28</ele>
  <time>2026-08-28T19:08:11Z</time>
  <course>9.3</course>
  <speed>0.0282842712474619</speed>
  <fix>3d</fix>
</trkpt>
<trkpt lat="40.0728423" lon="-105.2305753">
  <ele>1677.71</ele>
  <time>2026-08-28T19:08:11Z</time>
  <course>155.83</course>
  <speed>0.0</speed>
  <fix>3d</fix>
</trkpt>
<trkpt lat="40.0728421" lon="-105.2305751">
  <ele>1678.3</ele>
  <time>2026-08-28T19:08:11Z</time>
  <course>9.3</course>
  <speed>0.022360679774997897</speed>
  <fix>3d</fix>
</trkpt>
<trkpt lat="40.0728421" lon="-105.2305751">
  <ele>1678.78</ele>
  <time>2026-08-28T19:08:11Z</time>
  <course>9.28</course>
  <speed>0.022360679774997897</speed>
  <fix>3d</fix>
</trkpt>
<trkpt lat="40.0728423" lon="-105.2305753">
  <ele>1678.2</ele>
  <time>2026-08-28T19:08:11Z</time>
  <course>156.77</course>
  <speed>0.0</speed>
  <fix>3d</fix>
</trkpt>
<trkpt lat="40.0728421" lon="-105.2305751">
  <ele>1678.86</ele>
  <time>2026-08-28T19:08:11Z</time>
  <course>9.28</course>
  <speed>0.022360679774997897</speed>
  <fix>3d</fix>
</trkpt>
<trkpt lat="40.0728421" lon="-105.2305751">
  <ele>1679.28</ele>
  <time>2026-08-28T19:08:11Z</time>
  <course>9.27</course>
  <speed>0.022360679774997897</speed>
  <fix>3d</fix>
</trkpt>
<trkpt lat="40.0728423" lon="-105.2305753">
  <ele>1678.7</ele>
  <time>2026-08-28T19:08:11Z</time>
  <course>159.38</course>
  <speed>0.0</speed>
  <fix>3d</fix>
</trkpt>
<trkpt lat="40.0728421" lon="-105.2305751">
  <ele>1679.39</ele>
  <time>2026-08-28T19:08:11Z</time>
  <course>9.27</course>
  <speed>0.022360679774997897</speed>
  <fix>3d</fix>
</trkpt>
<trkpt lat="40.0728421" lon="-105.2305751">
  <ele>1679.77</ele>
  <time>2026-08-28T19:08:11Z</time>
  <course>9.27</course>
  <speed>0.022360679774997897</speed>
  <fix>3d</fix>
</trkpt>
<trkpt lat="40.0728423" lon="-105.2305753">
  <ele>1679.19</ele>
  <time>2026-08-28T19:08:11Z</time>
  <course>160.42</course>
  <speed>0.01</speed>
  <fix>3d</fix>
</trkpt>
<trkpt lat="40.0728421" lon="-105.2305751">
  <ele>1679.87</ele>
  <time>2026-08-28T19:08:11Z</time>
  <course>9.27</course>
  <speed>0.022360679774997897</speed>
  <fix>3d</fix>
</trkpt>
<trkpt lat="40.0728421" lon="-105.2305751">
  <ele>1680.26</ele>
  <time>2026-08-28T19:08:11Z</time>
  <course>9.26</course>
  <speed>0.0282842712474619</speed>
  <fix>3d</fix>
</trkpt>
<trkpt lat="40.0728423" lon="-105.2305753">
  <ele>1679.69</ele>
  <time>2026-08-28T19:08:11Z</time>
  <course>159.07</course>
  <speed>0.01</speed>
  <fix>3d</fix>
</trkpt>
<trkpt lat="40.0728421" lon="-105.2305751">
  <ele>1680.28</ele>
  <time>2026-08-28T19:08:11Z</time>
  <course>9.26</course>
  <speed>0.0282842712474619</speed>
  <fix>3d</fix>
</trkpt>
<trkpt lat="40.0728421" lon="-105.2305751">
  <ele>1680.77</ele>
  <time>2026-08-28T19:08:12Z</time>
  <course>9.26</course>
  <speed>0.0282842712474619</speed>
  <fix>3d</fix>
</trkpt>
<trkpt lat="40.0728422" lon="-105.2305753">
  <ele>1680.18</ele>
  <time>2026-08-28T19:08:12Z</time>
  <course>158.44</course>
  <speed>0.01</speed>
  <fix>3d</fix>
</trkpt>
<trkpt lat="40.0728421" lon="-105.2305751">
  <ele>1680.84</ele>
  <time>2026-08-28T19:08:12Z</time>
  <course>9.26</course>
  <speed>0.0282842712474619</speed>
  <fix>3d</fix>
</trkpt>
<trkpt lat="40.0728421" lon="-105.2305751">
  <ele>1681.27</ele>
  <time>2026-08-28T19:08:12Z</time>
  <course>9.28</course>
  <speed>0.022360679774997897</speed>
  <fix>3d</fix>
</trkpt>
<trkpt lat="40.0728421" lon="-105.2305753">
  <ele>1680.68</ele>
  <time>2026-08-28T19:08:12Z</time>
  <course>160.18</course>
  <speed>0.01</speed>
  <fix>3d</fix>
</trkpt>
<trkpt lat="40.0728421" lon="-105.2305751">
  <ele>1681.27</ele>
  <time>2026-08-28T19:08:12Z</time>
  <course>9.28</course>
  <speed>0.022360679774997897</speed>
  <fix>3d</fix>
</trkpt>
<trkpt lat="40.0728421" lon="-105.2305751">
  <ele>1681.76</ele>
  <time>2026-08-28T19:08:12Z</time>
  <course>9.28</course>
  <speed>0.022360679774997897</speed>
  <fix>3d</fix>
</trkpt>
<trkpt lat="40.0728421" lon="-105.2305753">
  <ele>1681.18</ele>
  <time>2026-08-28T19:08:12Z</time>
  <course>162.87</course>
  <speed>0.01</speed>
  <fix>3d</fix>
</trkpt>
<trkpt lat="40.0728421" lon="-105.2305751">
  <ele>1681.83</ele>
  <time>2026-08-28T19:08:12Z</time>
  <course>9.28</course>
  <speed>0.022360679774997897</speed>
  <fix>3d</fix>
</trkpt>
<trkpt lat="40.0728421" lon="-105.2305751">
  <ele>1682.26</ele>
  <time>2026-08-28T19:08:12Z</time>
  <course>9.28</course>
  <speed>0.022360679774997897</speed>
  <fix>3d</fix>
</trkpt>
<trkpt lat="40.0728421" lon="-105.2305753">
  <ele>1681.67</ele>
  <time>2026-08-28T19:08:12Z</time>
  <course>165.47</course>
  <speed>0.01</speed>
  <fix>3d</fix>
</trkpt>
<trkpt lat="40.0728421" lon="-105.2305751">
  <ele>1682.32</ele>
  <time>2026-08-28T19:08:12Z</time>
  <course>9.28</course>
  <speed>0.022360679774997897</speed>
  <fix>3d</fix>
</trkpt>
<trkpt lat="40.0728421" lon="-105.2305751">
  <ele>1682.76</ele>
  <time>2026-08-28T19:08:12Z</time>
  <course>9.29</course>
  <speed>0.022360679774997897</speed>
  <fix>3d</fix>
</trkpt>
<trkpt lat="40.0728421" lon="-105.2305753">
  <ele>1682.17</ele>
  <time>2026-08-28T19:08:12Z</time>
  <course>168.22</course>
  <speed>0.01</speed>
  <fix>3d</fix>
</trkpt>
<trkpt lat="40.072842" lon="-105.2305751">
  <ele>1682.77</ele>
  <time>2026-08-28T19:08:12Z</time>
  <course>9.29</course>
  <speed>0.022360679774997897</speed>
  <fix>3d</fix>
</trkpt>
<trkpt lat="40.072842" lon="-105.2305751">
  <ele>1683.26</ele>
  <time>2026-08-28T19:08:12Z</time>
  <course>9.29</course>
  <speed>0.022360679774997897</speed>
  <fix>3d</fix>
</trkpt>
<trkpt lat="40.0728421" lon="-105.2305753">
  <ele>1682.67</ele>
  <time>2026-08-28T19:08:12Z</time>
  <course>170.06</course>
  <speed>0.0</speed>
  <fix>3d</fix>
</trkpt>
<trkpt lat="40.072842" lon="-105.2305751">
  <ele>1683.33</ele>
  <time>2026-08-28T19:08:12Z</time>
  <course>9.29</course>
  <speed>0.022360679774997897</speed>
  <fix>3d</fix>
</trkpt>
<trkpt lat="40.072842" lon="-105.2305751">
  <ele>1683.75</ele>
  <time>2026-08-28T19:08:12Z</time>
  <course>9.28</course>
  <speed>0.01414213562373095</speed>
  <fix>3d</fix>
</trkpt>
<trkpt lat="40.072842" lon="-105.2305753">
  <ele>1683.17</ele>
  <time>2026-08-28T19:08:12Z</time>
  <course>170.67</course>
  <speed>0.0</speed>
  <fix>3d</fix>
</trkpt>
<trkpt lat="40.072842" lon="-105.2305751">
  <ele>1683.76</ele>
  <time>2026-08-28T19:08:12Z</time>
  <course>9.28</course>
  <speed>0.01414213562373095</speed>
  <fix>3d</fix>
</trkpt>
<trkpt lat="40.072842" lon="-105.2305751">
  <ele>1684.25</ele>
  <time>2026-08-28T19:08:12Z</time>
  <course>9.28</course>
  <speed>0.01414213562373095</speed>
  <fix>3d</fix>
</trkpt>
<trkpt lat="40.072842" lon="-105.2305753">
  <ele>1683.66</ele>
  <time>2026-08-28T19:08:12Z</time>
  <course>171.62</course>
  <speed>0.0</speed>
  <fix>3d</fix>
</trkpt>
<trkpt lat="40.072842" lon="-105.2305751">
  <ele>1684.31</ele>
  <time>2026-08-28T19:08:12Z</time>
  <course>9.29</course>
  <speed>0.01414213562373095</speed>
  <fix>3d</fix>
</trkpt>
<trkpt lat="40.072842" lon="-105.2305751">
  <ele>1684.75</ele>
  <time>2026-08-28T19:08:12Z</time>
  <course>9.29</course>
  <speed>0.01414213562373095</speed>
  <fix>3d</fix>
</trkpt>
<trkpt lat="40.072842" lon="-105.2305753">
  <ele>1684.16</ele>
  <time>2026-08-28T19:08:12Z</time>
  <course>173.78</course>
  <speed>0.0</speed>
  <fix>3d</fix>
</trkpt>
<trkpt lat="40.072842" lon="-105.2305751">
  <ele>1684.81</ele>
  <time>2026-08-28T19:08:12Z</time>
  <course>9.28</course>
  <speed>0.01414213562373095</speed>
  <fix>3d</fix>
</trkpt>
<trkpt lat="40.072842" lon="-105.2305751">
  <ele>1685.24</ele>
  <time>2026-08-28T19:08:12Z</time>
  <course>9.29</course>
  <speed>0.01414213562373095</speed>
  <fix>3d</fix>
</trkpt>
<trkpt lat="40.072842" lon="-105.2305753">
  <ele>1684.66</ele>
  <time>2026-08-28T19:08:12Z</time>
  <course>179.47</course>
  <speed>0.0</speed>
  <fix>3d</fix>
</trkpt>
<trkpt lat="40.072842" lon="-105.2305751">
  <ele>1685.25</ele>
  <time>2026-08-28T19:08:12Z</time>
  <course>9.29</course>
  <speed>0.01414213562373095</speed>
  <fix>3d</fix>
</trkpt>
<trkpt lat="40.072842" lon="-105.2305751">
  <ele>1685.75</ele>
  <time>2026-08-28T19:08:12Z</time>
  <course>9.28</course>
  <speed>0.01414213562373095</speed>
  <fix>3d</fix>
</trkpt>
<trkpt lat="40.072842" lon="-105.2305753">
  <ele>1685.16</ele>
  <time>2026-08-28T19:08:12Z</time>
  <course>351.76</course>
  <speed>0.0</speed>
  <fix>3d</fix>
</trkpt>
<trkpt lat="40.072842" lon="-105.2305751">
  <ele>1686.24</ele>
  <time>2026-08-28T19:08:12Z</time>
  <course>9.74</course>
  <speed>0.01414213562373095</speed>
  <fix>3d</fix>
</trkpt>
<trkpt lat="40.072842" lon="-105.2305753">
  <ele>1685.65</ele>
  <time>2026-08-28T19:08:12Z</time>
  <course>313.23</course>
  <speed>0.0</speed>
  <fix>3d</fix>
</trkpt>
<trkpt lat="40.072842" lon="-105.2305751">
  <ele>1686.68</ele>
  <time>2026-08-28T19:08:12Z</time>
  <course>10.66</course>
  <speed>0.0</speed>
  <fix>3d</fix>
</trkpt>
<trkpt lat="40.072842" lon="-105.2305753">
  <ele>1686.13</ele>
  <time>2026-08-28T19:08:12Z</time>
  <course>305.75</course>
  <speed>0.0</speed>
  <fix>3d</fix>
</trkpt>
<trkpt lat="40.072842" lon="-105.2305751">
  <ele>1687.01</ele>
  <time>2026-08-28T19:08:12Z</time>
  <course>12.92</course>
  <speed>0.03</speed>
  <fix>3d</fix>
</trkpt>
<trkpt lat="40.072842" lon="-105.2305753">
  <ele>1686.55</ele>
  <time>2026-08-28T19:08:12Z</time>
  <course>295.46</course>
  <speed>0.02</speed>
  <fix>3d</fix>
</trkpt>
<trkpt lat="40.072842" lon="-105.2305753">
  <ele>1687.0</ele>
  <time>2026-08-28T19:08:12Z</time>
  <course>16.41</course>
  <speed>0.053851648071345036</speed>
  <fix>3d</fix>
</trkpt>
<trkpt lat="40.072842" lon="-105.2305753">
  <ele>1686.78</ele>
  <time>2026-08-28T19:08:12Z</time>
  <course>289.58</course>
  <speed>0.05</speed>
  <fix>3d</fix>
</trkpt>
<trkpt lat="40.0728421" lon="-105.2305755">
  <ele>1686.69</ele>
  <time>2026-08-28T19:08:12Z</time>
  <course>16.33</course>
  <speed>0.10816653826391968</speed>
  <fix>3d</fix>
</trkpt>
<trkpt lat="40.072842" lon="-105.2305754">
  <ele>1686.69</ele>
  <time>2026-08-28T19:08:12Z</time>
  <course>301.86</course>
  <speed>0.09</speed>
  <fix>3d</fix>
</trkpt>
<trkpt lat="40.0728424" lon="-105.2305756">
  <ele>1686.2</ele>
  <time>2026-08-28T19:08:12Z</time>
  <course>16.65</course>
  <speed>0.2601922366251538</speed>
  <fix>3d</fix>
</trkpt>
<trkpt lat="40.0728422" lon="-105.2305756">
  <ele>1686.33</ele>
  <time>2026-08-28T19:08:12Z</time>
  <course>333.05</course>
  <speed>0.16</speed>
  <fix>3d</fix>
</trkpt>
<trkpt lat="40.0728431" lon="-105.2305755">
  <ele>1685.6</ele>
  <time>2026-08-28T19:08:12Z</time>
  <course>17.47</course>
  <speed>0.5246903848937962</speed>
  <fix>3d</fix>
</trkpt>
<trkpt lat="40.0728426" lon="-105.2305757">
  <ele>1685.81</ele>
  <time>2026-08-28T19:08:12Z</time>
  <course>354.51</course>
  <speed>0.34</speed>
  <fix>3d</fix>
</trkpt>
<trkpt lat="40.0728443" lon="-105.2305753">
  <ele>1684.95</ele>
  <time>2026-08-28T19:08:12Z</time>
  <course>18.56</course>
  <speed>0.8514693182963201</speed>
  <fix>3d</fix>
</trkpt>
<trkpt lat="40.0728435" lon="-105.2305757">
  <ele>1685.2</ele>
  <time>2026-08-28T19:08:12Z</time>
  <course>3.9</course>
  <speed>0.62</speed>
  <fix>3d</fix>
</trkpt>
<trkpt lat="40.0728461" lon="-105.2305749">
  <ele>1684.26</ele>
  <time>2026-08-28T19:08:12Z</time>
  <course>19.4</course>
  <speed>1.1884864324004711</speed>
  <fix>3d</fix>
</trkpt>
<trkpt lat="40.0728449" lon="-105.2305756">
  <ele>1684.54</ele>
  <time>2026-08-28T19:08:12Z</time>
  <course>8.09</course>
  <speed>0.95</speed>
  <fix>3d</fix>
</trkpt>
<trkpt lat="40.0728484" lon="-105.2305742">
  <ele>1683.54</ele>
  <time>2026-08-28T19:08:12Z</time>
  <course>19.35</course>
  <speed>1.4918780110987626</speed>
  <fix>3d</fix>
</trkpt>
<trkpt lat="40.0728469" lon="-105.2305752">
  <ele>1683.86</ele>
  <time>2026-08-28T19:08:12Z</time>
  <course>10.1</course>
  <speed>1.28</speed>
  <fix>3d</fix>
</trkpt>
<trkpt lat="40.0728513" lon="-105.2305734">
  <ele>1682.74</ele>
  <time>2026-08-28T19:08:12Z</time>
  <course>18.8</course>
  <speed>1.768219443394965</speed>
  <fix>3d</fix>
</trkpt>
<trkpt lat="40.0728495" lon="-105.2305746">
  <ele>1683.13</ele>
  <time>2026-08-28T19:08:12Z</time>
  <course>11.01</course>
  <speed>1.58</speed>
  <fix>3d</fix>
</trkpt>
<trkpt lat="40.0728546" lon="-105.2305725">
  <ele>1681.87</ele>
  <time>2026-08-28T19:08:12Z</time>
  <course>18.05</course>
  <speed>2.0227703774773844</speed>
  <fix>3d</fix>
</trkpt>
<trkpt lat="40.0728525" lon="-105.2305738">
  <ele>1682.33</ele>
  <time>2026-08-28T19:08:12Z</time>
  <course>11.43</course>
  <speed>1.85</speed>
  <fix>3d</fix>
</trkpt>
<trkpt lat="40.0728584" lon="-105.2305716">
  <ele>1680.91</ele>
  <time>2026-08-28T19:08:12Z</time>
  <course>17.22</course>
  <speed>2.2532199182503247</speed>
  <fix>3d</fix>
</trkpt>
<trkpt lat="40.072856" lon="-105.2305729">
  <ele>1681.45</ele>
  <time>2026-08-28T19:08:12Z</time>
  <course>11.59</course>
  <speed>2.1</speed>
  <fix>3d</fix>
</trkpt>
<trkpt lat="40.0728625" lon="-105.2305705">
  <ele>1679.86</ele>
  <time>2026-08-28T19:08:12Z</time>
  <course>16.34</course>
  <speed>2.486222033527979</speed>
  <fix>3d</fix>
</trkpt>
<trkpt lat="40.0728599" lon="-105.2305718">
  <ele>1680.48</ele>
  <time>2026-08-28T19:08:12Z</time>
  <course>11.62</course>
  <speed>2.34</speed>
  <fix>3d</fix>
</trkpt>
<trkpt lat="40.0728671" lon="-105.2305694">
  <ele>1678.73</ele>
  <time>2026-08-28T19:08:12Z</time>
  <course>15.55</course>
  <speed>2.726829660979945</speed>
  <fix>3d</fix>
</trkpt>
<trkpt lat="40.0728643" lon="-105.2305706">
  <ele>1679.42</ele>
  <time>2026-08-28T19:08:12Z</time>
  <course>11.6</course>
  <speed>2.58</speed>
  <fix>3d</fix>
</trkpt>
<trkpt lat="40.0728722" lon="-105.2305681">
  <ele>1677.54</ele>
  <time>2026-08-28T19:08:12Z</time>
  <course>14.94</course>
  <speed>2.9697811367169806</speed>
  <fix>3d</fix>
</trkpt>
<trkpt lat="40.072869" lon="-105.2305693">
  <ele>1678.3</ele>
  <time>2026-08-28T19:08:12Z</time>
  <course>11.58</course>
  <speed>2.82</speed>
  <fix>3d</fix>
</trkpt>
<trkpt lat="40.0728776" lon="-105.2305667">
  <ele>1676.31</ele>
  <time>2026-08-28T19:08:12Z</time>
  <course>14.5</course>
  <speed>3.222561093292104</speed>
  <fix>3d</fix>
</trkpt>
<trkpt lat="40.0728742" lon="-105.2305679">
  <ele>1677.11</ele>
  <time>2026-08-28T19:08:12Z</time>
  <course>11.56</course>
  <speed>3.07</speed>
  <fix>3d</fix>
</trkpt>
<trkpt lat="40.0728835" lon="-105.2305651">
  <ele>1675.03</ele>
  <time>2026-08-28T19:08:12Z</time>
  <course>14.2</course>
  <speed>3.4774847231871484</speed>
  <fix>3d</fix>
</trkpt>
<trkpt lat="40.0728798" lon="-105.2305665">
  <ele>1675.88</ele>
  <time>2026-08-28T19:08:12Z</time>
  <course>11.55</course>
  <speed>3.33</speed>
  <fix>3d</fix>
</trkpt>
<trkpt lat="40.0728899" lon="-105.2305635">
  <ele>1673.72</ele>
  <time>2026-08-28T19:08:12Z</time>
  <course>13.96</course>
  <speed>3.7205510344571273</speed>
  <fix>3d</fix>
</trkpt>
<trkpt lat="40.0728859" lon="-105.2305648">
  <ele>1674.6</ele>
  <time>2026-08-28T19:08:12Z</time>
  <course>11.55</course>
  <speed>3.58</speed>
  <fix>3d</fix>
</trkpt>
<trkpt lat="40.0728967" lon="-105.2305617">
  <ele>1672.38</ele>
  <time>2026-08-28T19:08:12Z</time>
  <course>13.81</course>
  <speed>3.985272889025292</speed>
  <fix>3d</fix>
</trkpt>
<trkpt lat="40.0728924" lon="-105.2305631">
  <ele>1673.3</ele>
  <time>2026-08-28T19:08:12Z</time>
  <course>11.54</course>
  <speed>3.84</speed>
  <fix>3d</fix>
</trkpt>
<trkpt lat="40.072904" lon="-105.2305598">
  <ele>1671.02</ele>
  <time>2026-08-28T19:08:12Z</time>
  <course>13.8</course>
  <speed>4.240212258837993</speed>
  <fix>3d</fix>
</trkpt>
<trkpt lat="40.0728995" lon="-105.2305612">
  <ele>1671.97</ele>
  <time>2026-08-28T19:08:12Z</time>
  <course>11.56</course>
  <speed>4.1</speed>
  <fix>3d</fix>
</trkpt>
<trkpt lat="40.0729117" lon="-105.2305578">
  <ele>1669.68</ele>
  <time>2026-08-28T19:08:12Z</time>
  <course>13.75</course>
  <speed>4.504941731032711</speed>
  <fix>3d</fix>
</trkpt>
<trkpt lat="40.0729069" lon="-105.2305592">
  <ele>1670.64</ele>
  <time>2026-08-28T19:08:12Z</time>
  <course>11.6</course>
  <speed>4.36</speed>
  <fix>3d</fix>
</trkpt>
<trkpt lat="40.0729199" lon="-105.2305556">
  <ele>1668.34</ele>
  <time>2026-08-28T19:08:12Z</time>
  <course>13.73</course>
  <speed>4.77171876790743</speed>
  <fix>3d</fix>
</trkpt>
<trkpt lat="40.0729149" lon="-105.2305571">
  <ele>1669.3</ele>
  <time>2026-08-28T19:08:12Z</time>
  <course>11.66</course>
  <speed>4.63</speed>
  <fix>3d</fix>
</trkpt>
<trkpt lat="40.0729286" lon="-105.2305532">
  <ele>1667.0</ele>
  <time>2026-08-28T19:08:12Z</time>
  <course>13.73</course>
  <speed>5.028717530345088</speed>
  <fix>3d</fix>
</trkpt>
<trkpt lat="40.0729233" lon="-105.2305548">
  <ele>1667.96</ele>
  <time>2026-08-28T19:08:12Z</time>
  <course>11.72</course>
  <speed>4.89</speed>
  <fix>3d</fix>
</trkpt>
<trkpt lat="40.0729378" lon="-105.2305508">
  <ele>1665.67</ele>
  <time>2026-08-28T19:08:12Z</time>
  <course>13.74</course>
  <speed>5.293439335630475</speed>
  <fix>3d</fix>
</trkpt>
<trkpt lat="40.0729321" lon="-105.2305524">
  <ele>1666.64</ele>
  <time>2026-08-28T19:08:12Z</time>
  <course>11.79</course>
  <speed>5.15</speed>
  <fix>3d</fix>
</trkpt>
<trkpt lat="40.0729473" lon="-105.2305481">
  <ele>1664.36</ele>
  <time>2026-08-28T19:08:12Z</time>
  <course>13.83</course>
  <speed>5.540658805593429</speed>
  <fix>3d</fix>
</trkpt>
<trkpt lat="40.0729414" lon="-105.2305499">
  <ele>1665.32</ele>
  <time>2026-08-28T19:08:12Z</time>
  <course>11.87</course>
  <speed>5.41</speed>
  <fix>3d</fix>
</trkpt>
<trkpt lat="40.0729574" lon="-105.2305454">
  <ele>1663.07</ele>
  <time>2026-08-28T19:08:12Z</time>
  <course>14.59</course>
  <speed>5.801879005977288</speed>
  <fix>3d</fix>
</trkpt>
<trkpt lat="40.0729511" lon="-105.2305471">
  <ele>1664.03</ele>
  <time>2026-08-28T19:08:12Z</time>
  <course>12.01</course>
  <speed>5.67</speed>
  <fix>3d</fix>
</trkpt>
<trkpt lat="40.0729678" lon="-105.2305424">
  <ele>1661.79</ele>
  <time>2026-08-28T19:08:12Z</time>
  <course>14.9</course>
  <speed>6.043682652158368</speed>
  <fix>3d</fix>
</trkpt>
<trkpt lat="40.0729613" lon="-105.2305443">
  <ele>1662.75</ele>
  <time>2026-08-28T19:08:12Z</time>
  <course>12.26</course>
  <speed>5.92</speed>
  <fix>3d</fix>
</trkpt>
<trkpt lat="40.0729787" lon="-105.2305392">
  <ele>1660.53</ele>
  <time>2026-08-28T19:08:12Z</time>
  <course>14.95</course>
  <speed>6.266115223964526</speed>
  <fix>3d</fix>
</trkpt>
<trkpt lat="40.0729719" lon="-105.2305413">
  <ele>1661.49</ele>
  <time>2026-08-28T19:08:12Z</time>
  <course>12.54</course>
  <speed>6.16</speed>
  <fix>3d</fix>
</trkpt>
<trkpt lat="40.0729899" lon="-105.2305359">
  <ele>1659.26</ele>
  <time>2026-08-28T19:08:12Z</time>
  <course>14.88</course>
  <speed>6.484203883284362</speed>
  <fix>3d</fix>
</trkpt>
<trkpt lat="40.0729829" lon="-105.230538">
  <ele>1660.24</ele>
  <time>2026-08-28T19:08:12Z</time>
  <course>12.78</course>
  <speed>6.38</speed>
  <fix>3d</fix>
</trkpt>
<trkpt lat="40.0730015" lon="-105.2305324">
  <ele>1658.0</ele>
  <time>2026-08-28T19:08:12Z</time>
  <course>14.75</course>
  <speed>6.685095362072257</speed>
  <fix>3d</fix>
</trkpt>
<trkpt lat="40.0729943" lon="-105.2305346">
  <ele>1658.99</ele>
  <time>2026-08-28T19:08:12Z</time>
  <course>12.98</course>
  <speed>6.59</speed>
  <fix>3d</fix>
</trkpt>
<trkpt lat="40.0730135" lon="-105.2305287">
  <ele>1656.72</ele>
  <time>2026-08-28T19:08:12Z</time>
  <course>14.6</course>
  <speed>6.883778032447008</speed>
  <fix>3d</fix>
</trkpt>
<trkpt lat="40.073006" lon="-105.2305311">
  <ele>1657.73</ele>
  <time>2026-08-28T19:08:12Z</time>
  <course>13.15</course>
  <speed>6.8</speed>
  <fix>3d</fix>
</trkpt>
<trkpt lat="40.0730257" lon="-105.230525">
  <ele>1655.43</ele>
  <time>2026-08-28T19:08:12Z</time>
  <course>14.38</course>
  <speed>7.07276466454243</speed>
  <fix>3d</fix>
</trkpt>
<trkpt lat="40.0730181" lon="-105.2305274">
  <ele>1656.46</ele>
  <time>2026-08-28T19:08:12Z</time>
  <course>13.29</course>
  <speed>6.99</speed>
  <fix>3d</fix>
</trkpt>
<trkpt lat="40.0730382" lon="-105.2305211">
  <ele>1654.13</ele>
  <time>2026-08-28T19:08:12Z</time>
  <course>14.17</course>
  <speed>7.249731029493439</speed>
  <fix>3d</fix>
</trkpt>
<trkpt lat="40.0730305" lon="-105.2305235">
  <ele>1655.17</ele>
  <time>2026-08-28T19:08:12Z</time>
  <course>13.39</course>
  <speed>7.17</speed>
  <fix>3d</fix>
</trkpt>
<trkpt lat="40.0730511" lon="-105.230517">
  <ele>1652.8</ele>
  <time>2026-08-28T19:08:12Z</time>
  <course>13.98</course>
  <speed>7.426708557631705</speed>
  <fix>3d</fix>
</trkpt>
<trkpt lat="40.0730432" lon="-105.2305195">
  <ele>1653.88</ele>
  <time>2026-08-28T19:08:12Z</time>
  <course>13.47</course>
  <speed>7.35</speed>
  <fix>3d</fix>
</trkpt>
<trkpt lat="40.0730643" lon="-105.2305129">
  <ele>1651.46</ele>
  <time>2026-08-28T19:08:12Z</time>
  <course>13.78</course>
  <speed>7.591626966599453</speed>
  <fix>3d</fix>
</trkpt>
<trkpt lat="40.0730561" lon="-105.2305155">
  <ele>1652.57</ele>
  <time>2026-08-28T19:08:12Z</time>
  <course>13.52</course>
  <speed>7.53</speed>
  <fix>3d</fix>
</trkpt>
<trkpt lat="40.0730777" lon="-105.2305087">
  <ele>1650.12</ele>
  <time>2026-08-28T19:08:12Z</time>
  <course>13.61</course>
  <speed>7.756545622891675</speed>
  <fix>3d</fix>
</trkpt>
<trkpt lat="40.0730694" lon="-105.2305112">
  <ele>1651.24</ele>
  <time>2026-08-28T19:08:12Z</time>
  <course>13.55</course>
  <speed>7.69</speed>
  <fix>3d</fix>
</trkpt>
<trkpt lat="40.0730914" lon="-105.2305043">
  <ele>1648.76</ele>
  <time>2026-08-28T19:08:12Z</time>
  <course>13.46</course>
  <speed>7.911744434699594</speed>
  <fix>3d</fix>
</trkpt>
<trkpt lat="40.0730831" lon="-105.230507">
  <ele>1649.89</ele>
  <time>2026-08-28T19:08:12Z</time>
  <course>13.56</course>
  <speed>7.86</speed>
  <fix>3d</fix>
</trkpt>
<trkpt lat="40.0731054" lon="-105.2304999">
  <ele>1647.38</ele>
  <time>2026-08-28T19:08:12Z</time>
  <course>13.3</course>
  <speed>8.064595464125897</speed>
  <fix>3d</fix>
</trkpt>
<trkpt lat="40.073097" lon="-105.2305026">
  <ele>1648.53</ele>
  <time>2026-08-28T19:08:12Z</time>
  <course>13.56</course>
  <speed>8.01</speed>
  <fix>3d</fix>
</trkpt>
<trkpt lat="40.0731197" lon="-105.2304954">
  <ele>1645.99</ele>
  <time>2026-08-28T19:08:12Z</time>
  <course>13.15</course>
  <speed>8.219793184746194</speed>
  <fix>3d</fix>
</trkpt>
<trkpt lat="40.0731111" lon="-105.2304982">
  <ele>1647.15</ele>
  <time>2026-08-28T19:08:12Z</time>
  <course>13.55</course>
  <speed>8.17</speed>
  <fix>3d</fix>
</trkpt>
<trkpt lat="40.0731342" lon="-105.2304908">
  <ele>1644.59</ele>
  <time>2026-08-28T19:08:12Z</time>
  <course>13.04</course>
  <speed>8.362924129752702</speed>
  <fix>3d</fix>
</trkpt>
<trkpt lat="40.0731254" lon="-105.2304937">
  <ele>1645.77</ele>
  <time>2026-08-28T19:08:12Z</time>
  <course>13.53</course>
  <speed>8.32</speed>
  <fix>3d</fix>
</trkpt>
<trkpt lat="40.0731491" lon="-105.2304862">
  <ele>1643.17</ele>
  <time>2026-08-28T19:08:12Z</time>
  <course>12.92</course>
  <speed>8.515779471076034</speed>
  <fix>3d</fix>
</trkpt>
<trkpt lat="40.0731402" lon="-105.2304891">
  <ele>1644.37</ele>
  <time>2026-08-28T19:08:12Z</time>
  <course>13.5</course>
  <speed>8.46</speed>
  <fix>3d</fix>
</trkpt>
<trkpt lat="40.0731642" lon="-105.2304815">
  <ele>1641.75</ele>
  <time>2026-08-28T19:08:12Z</time>
  <course>12.82</course>
  <speed>8.656587087299474</speed>
  <fix>3d</fix>
</trkpt>
<trkpt lat="40.073155" lon="-105.2304844">
  <ele>1642.96</ele>
  <time>2026-08-28T19:08:12Z</time>
  <course>13.46</course>
  <speed>8.61</speed>
  <fix>3d</fix>
</trkpt>
<trkpt lat="40.0731795" lon="-105.2304767">
  <ele>1640.32</ele>
  <time>2026-08-28T19:08:12Z</time>
  <course>12.76</course>
  <speed>8.79</speed>
  <fix>3d</fix>
</trkpt>
<trkpt lat="40.0731702" lon="-105.2304796">
  <ele>1641.52</ele>
  <time>2026-08-28T19:08:12Z</time>
  <course>13.42</course>
  <speed>8.75</speed>
  <fix>3d</fix>
</trkpt>
<trkpt lat="40.0731951" lon="-105.2304719">
  <ele>1638.87</ele>
  <time>2026-08-28T19:08:12Z</time>
  <course>12.66</course>
  <speed>8.933140545183424</speed>
  <fix>3d</fix>
</trkpt>
<trkpt lat="40.0731856" lon="-105.2304748">
  <ele>1640.08</ele>
  <time>2026-08-28T19:08:12Z</time>
  <course>13.38</course>
  <speed>8.88</speed>
  <fix>3d</fix>
</trkpt>
<trkpt lat="40.0732109" lon="-105.2304669">
  <ele>1637.4</ele>
  <time>2026-08-28T19:08:12Z</time>
  <course>12.56</course>
  <speed>9.064242935844117</speed>
  <fix>3d</fix>
</trkpt>
<trkpt lat="40.0732013" lon="-105.23047">
  <ele>1638.63</ele>
  <time>2026-08-28T19:08:12Z</time>
  <course>13.33</course>
  <speed>9.01</speed>
  <fix>3d</fix>
</trkpt>
<trkpt lat="40.073227" lon="-105.230462">
  <ele>1635.93</ele>
  <time>2026-08-28T19:08:12Z</time>
  <course>12.46</course>
  <speed>9.185624638531666</speed>
  <fix>3d</fix>
</trkpt>
<trkpt lat="40.0732172" lon="-105.2304651">
  <ele>1637.16</ele>
  <time>2026-08-28T19:08:12Z</time>
  <course>13.27</course>
  <speed>9.14</speed>
  <fix>3d</fix>
</trkpt>
<trkpt lat="40.0732432" lon="-105.230457">
  <ele>1634.44</ele>
  <time>2026-08-28T19:08:12Z</time>
  <course>12.39</course>
  <speed>9.316748359808802</speed>
  <fix>3d</fix>
</trkpt>
<trkpt lat="40.0732333" lon="-105.23046">
  <ele>1635.69</ele>
  <time>2026-08-28T19:08:12Z</time>
  <course>13.22</course>
  <speed>9.27</speed>
  <fix>3d</fix>
</trkpt>
<trkpt lat="40.0732597" lon="-105.230452">
  <ele>1632.95</ele>
  <time>2026-08-28T19:08:12Z</time>
  <course>12.31</course>
  <speed>9.43814600438031</speed>
  <fix>3d</fix>
</trkpt>
<trkpt lat="40.0732496" lon="-105.2304551">
  <ele>1634.2</ele>
  <time>2026-08-28T19:08:12Z</time>
  <course>13.16</course>
  <speed>9.39</speed>
  <fix>3d</fix>
</trkpt>
<trkpt lat="40.0732763" lon="-105.2304469">
  <ele>1631.45</ele>
  <time>2026-08-28T19:08:12Z</time>
  <course>12.21</course>
  <speed>9.549811516464604</speed>
  <fix>3d</fix>
</trkpt>
<trkpt lat="40.0732662" lon="-105.23045">
  <ele>1632.71</ele>
  <time>2026-08-28T19:08:12Z</time>
  <course>13.1</course>
  <speed>9.51</speed>
  <fix>3d</fix>
</trkpt>
<trkpt lat="40.0732932" lon="-105.2304418">
  <ele>1629.94</ele>
  <time>2026-08-28T19:08:12Z</time>
  <course>12.1</course>
  <speed>9.659218394880613</speed>
  <fix>3d</fix>
</trkpt>
<trkpt lat="40.0732828" lon="-105.230445">
  <ele>1631.2</ele>
  <time>2026-08-28T19:08:12Z</time>
  <course>13.04</course>
  <speed>9.62</speed>
  <fix>3d</fix>
</trkpt>
<trkpt lat="40.0733102" lon="-105.2304367">
  <ele>1628.43</ele>
  <time>2026-08-28T19:08:12Z</time>
  <course>12.01</course>
  <speed>9.758903626944985</speed>
  <fix>3d</fix>
</trkpt>
<trkpt lat="40.0732998" lon="-105.2304398">
  <ele>1629.69</ele>
  <time>2026-08-28T19:08:12Z</time>
  <course>12.97</course>
  <speed>9.72</speed>
  <fix>3d</fix>
</trkpt>
<trkpt lat="40.0733275" lon="-105.2304315">
  <ele>1626.92</ele>
  <time>2026-08-28T19:08:12Z</time>
  <course>11.95</course>
  <speed>9.83687958653556</speed>
  <fix>3d</fix>
</trkpt>
<trkpt lat="40.0733169" lon="-105.2304347">
  <ele>1628.19</ele>
  <time>2026-08-28T19:08:12Z</time>
  <course>12.89</course>
  <speed>9.81</speed>
  <fix>3d</fix>
</trkpt>
<trkpt lat="40.0733448" lon="-105.2304263">
  <ele>1625.42</ele>
  <time>2026-08-28T19:08:12Z</time>
  <course>11.89</course>
  <speed>9.907350806345761</speed>
  <fix>3d</fix>
</trkpt>
<trkpt lat="40.0733343" lon="-105.2304295">
  <ele>1626.68</ele>
  <time>2026-08-28T19:08:12Z</time>
  <course>12.82</course>
  <speed>9.89</speed>
  <fix>3d</fix>
</trkpt>
<trkpt lat="40.0733623" lon="-105.2304212">
  <ele>1623.92</ele>
  <time>2026-08-28T19:08:12Z</time>
  <course>11.84</course>
  <speed>9.965861728922391</speed>
  <fix>3d</fix>
</trkpt>
<trkpt lat="40.0733517" lon="-105.2304244">
  <ele>1625.18</ele>
  <time>2026-08-28T19:08:12Z</time>
  <course>12.76</course>
  <speed>9.96</speed>
  <fix>3d</fix>
</trkpt>
<trkpt lat="40.07338" lon="-105.2304159">
  <ele>1622.43</ele>
  <time>2026-08-28T19:08:12Z</time>
  <course>11.8</course>
  <speed>10.016835827745206</speed>
  <fix>3d</fix>
</trkpt>
<trkpt lat="40.0733692" lon="-105.2304192">
  <ele>1623.7</ele>
  <time>2026-08-28T19:08:12Z</time>
  <course>12.71</course>
  <speed>10.01</speed>
  <fix>3d</fix>
</trkpt>
<trkpt lat="40.0733976" lon="-105.2304108">
  <ele>1620.96</ele>
  <time>2026-08-28T19:08:12Z</time>
  <course>11.79</course>
  <speed>10.055854016442362</speed>
  <fix>3d</fix>
</trkpt>
<trkpt lat="40.0733867" lon="-105.230414">
  <ele>1622.23</ele>
  <time>2026-08-28T19:08:12Z</time>
  <course>12.66</course>
  <speed>10.06</speed>
  <fix>3d</fix>
</trkpt>
<trkpt lat="40.0734153" lon="-105.2304056">
  <ele>1619.49</ele>
  <time>2026-08-28T19:08:12Z</time>
  <course>11.79</course>
  <speed>10.085122706244084</speed>
  <fix>3d</fix>
</trkpt>
<trkpt lat="40.0734044" lon="-105.2304088">
  <ele>1620.77</ele>
  <time>2026-08-28T19:08:12Z</time>
  <course>12.63</course>
  <speed>10.09</speed>
  <fix>3d</fix>
</trkpt>
<trkpt lat="40.073433" lon="-105.2304004">
  <ele>1618.04</ele>
  <time>2026-08-28T19:08:12Z</time>
  <course>11.77</course>
  <speed>10.104637549165234</speed>
  <fix>3d</fix>
</trkpt>
<trkpt lat="40.0734221" lon="-105.2304037">
  <ele>1619.32</ele>
  <time>2026-08-28T19:08:12Z</time>
  <course>12.6</course>
  <speed>10.12</speed>
  <fix>3d</fix>
</trkpt>
<trkpt lat="40.0734507" lon="-105.2303953">
  <ele>1616.6</ele>
  <time>2026-08-28T19:08:12Z</time>
  <course>11.75</course>
  <speed>10.12415428566752</speed>
  <fix>3d</fix>
</trkpt>
<trkpt lat="40.0734398" lon="-105.2303984">
  <ele>1617.88</ele>
  <time>2026-08-28T19:08:12Z</time>
  <course>12.58</course>
  <speed>10.14</speed>
  <fix>3d</fix>
</trkpt>
<trkpt lat="40.0734685" lon="-105.2303901">
  <ele>1615.17</ele>
  <time>2026-08-28T19:08:12Z</time>
  <course>11.75</course>
  <speed>10.133913360592738</speed>
  <fix>3d</fix>
</trkpt>
<trkpt lat="40.0734577" lon="-105.2303933">
  <ele>1616.46</ele>
  <time>2026-08-28T19:08:12Z</time>
  <course>12.55</course>
  <speed>10.15</speed>
  <fix>3d</fix>
</trkpt>
<trkpt lat="40.0734862" lon="-105.2303849">
  <ele>1613.75</ele>
  <time>2026-08-28T19:08:12Z</time>
  <course>11.73</course>
  <speed>10.143672904821015</speed>
  <fix>3d</fix>
</trkpt>
<trkpt lat="40.0734755" lon="-105.2303881">
  <ele>1615.04</ele>
  <time>2026-08-28T19:08:12Z</time>
  <course>12.54</course>
  <speed>10.16</speed>
  <fix>3d</fix>
</trkpt>
<trkpt lat="40.0735041" lon="-105.2303797">
  <ele>1612.33</ele>
  <time>2026-08-28T19:08:12Z</time>
  <course>11.7</course>
  <speed>10.141498903022176</speed>
  <fix>3d</fix>
</trkpt>
<trkpt lat="40.0734933" lon="-105.2303829">
  <ele>1613.62</ele>
  <time>2026-08-28T19:08:12Z</time>
  <course>12.53</course>
  <speed>10.17</speed>
  <fix>3d</fix>
</trkpt>
<trkpt lat="40.073522" lon="-105.2303745">
  <ele>1610.92</ele>
  <time>2026-08-28T19:08:12Z</time>
  <course>11.67</course>
  <speed>10.151261005412087</speed>
  <fix>3d</fix>
</trkpt>
<trkpt lat="40.0735112" lon="-105.2303778">
  <ele>1612.22</ele>
  <time>2026-08-28T19:08:12Z</time>
  <course>12.51</course>
  <speed>10.17</speed>
  <fix>3d</fix>
</trkpt>
<trkpt lat="40.0735399" lon="-105.2303694">
  <ele>1609.53</ele>
  <time>2026-08-28T19:08:12Z</time>
  <course>11.63</course>
  <speed>10.151261005412087</speed>
  <fix>3d</fix>
</trkpt>
<trkpt lat="40.073529" lon="-105.2303726">
  <ele>1610.82</ele>
  <time>2026-08-28T19:08:12Z</time>
  <course>12.49</course>
  <speed>10.17</speed>
  <fix>3d</fix>
</trkpt>
<trkpt lat="40.0735577" lon="-105.2303642">
  <ele>1608.13</ele>
  <time>2026-08-28T19:08:12Z</time>
  <course>11.57</course>
  <speed>10.149098482131306</speed>
  <fix>3d</fix>
</trkpt>
<trkpt lat="40.0735469" lon="-105.2303674">
  <ele>1609.41</ele>
  <time>2026-08-28T19:08:12Z</time>
  <course>12.47</course>
  <speed>10.17</speed>
  <fix>3d</fix>
</trkpt>
<trkpt lat="40.0735756" lon="-105.230359">
  <ele>1606.74</ele>
  <time>2026-08-28T19:08:12Z</time>
  <course>11.54</course>
  <speed>10.149098482131306</speed>
  <fix>3d</fix>
</trkpt>
<trkpt lat="40.0735648" lon="-105.2303623">
  <ele>1608.02</ele>
  <time>2026-08-28T19:08:12Z</time>
  <course>12.45</course>
  <speed>10.16</speed>
  <fix>3d</fix>
</trkpt>
<trkpt lat="40.0735935" lon="-105.2303539">
  <ele>1605.35</ele>
  <time>2026-08-28T19:08:12Z</time>
  <course>11.51</course>
  <speed>10.139334297674576</speed>
  <fix>3d</fix>
</trkpt>
<trkpt lat="40.0735825" lon="-105.2303571">
  <ele>1606.63</ele>
  <time>2026-08-28T19:08:12Z</time>
  <course>12.43</course>
  <speed>10.16</speed>
  <fix>3d</fix>
</trkpt>
<trkpt lat="40.0736113" lon="-105.2303488">
  <ele>1603.96</ele>
  <time>2026-08-28T19:08:12Z</time>
  <course>11.46</course>
  <speed>10.137179094797526</speed>
  <fix>3d</fix>
</trkpt>
<trkpt lat="40.0736004" lon="-105.230352">
  <ele>1605.24</ele>
  <time>2026-08-28T19:08:12Z</time>
  <course>12.41</course>
  <speed>10.15</speed>
  <fix>3d</fix>
</trkpt>
<trkpt lat="40.073629" lon="-105.2303437">
  <ele>1602.57</ele>
  <time>2026-08-28T19:08:12Z</time>
  <course>11.42</course>
  <speed>10.125265428619636</speed>
  <fix>3d</fix>
</trkpt>
<trkpt lat="40.0736182" lon="-105.2303469">
  <ele>1603.85</ele>
  <time>2026-08-28T19:08:12Z</time>
  <course>12.38</course>
  <speed>10.14</speed>
  <fix>3d</fix>
</trkpt>
<trkpt lat="40.0736468" lon="-105.2303386">
  <ele>1601.18</ele>
  <time>2026-08-28T19:08:12Z</time>
  <course>11.37</course>
  <speed>10.125265428619636</speed>
  <fix>3d</fix>
</trkpt>
<trkpt lat="40.0736359" lon="-105.2303417">
  <ele>1602.45</ele>
  <time>2026-08-28T19:08:12Z</time>
  <course>12.35</course>
  <speed>10.14</speed>
  <fix>3d</fix>
</trkpt>
<trkpt lat="40.0736646" lon="-105.2303335">
  <ele>1599.79</ele>
  <time>2026-08-28T19:08:12Z</time>
  <course>11.33</course>
  <speed>10.12312698725053</speed>
  <fix>3d</fix>
</trkpt>
<trkpt lat="40.0736538" lon="-105.2303367">
  <ele>1601.06</ele>
  <time>2026-08-28T19:08:12Z</time>
  <course>12.32</course>
  <speed>10.13</speed>
  <fix>3d</fix>
</trkpt>
<trkpt lat="40.0736825" lon="-105.2303285">
  <ele>1598.39</ele>
  <time>2026-08-28T19:08:12Z</time>
  <course>11.29</course>
  <speed>10.111226434018773</speed>
  <fix>3d</fix>
</trkpt>
<trkpt lat="40.0736716" lon="-105.2303316">
  <ele>1599.67</ele>
  <time>2026-08-28T19:08:12Z</time>
  <course>12.29</course>
  <speed>10.13</speed>
  <fix>3d</fix>
</trkpt>
<trkpt lat="40.0737003" lon="-105.2303234">
  <ele>1597.0</ele>
  <time>2026-08-28T19:08:12Z</time>
  <course>11.25</course>
  <speed>10.111226434018773</speed>
  <fix>3d</fix>
</trkpt>
<trkpt lat="40.0736893" lon="-105.2303265">
  <ele>1598.28</ele>
  <time>2026-08-28T19:08:12Z</time>
  <course>12.25</course>
  <speed>10.12</speed>
  <fix>3d</fix>
</trkpt>
<trkpt lat="40.073718" lon="-105.2303184">
  <ele>1595.61</ele>
  <time>2026-08-28T19:08:12Z</time>
  <course>11.18</course>
  <speed>10.109104807053887</speed>
  <fix>3d</fix>
</trkpt>
<trkpt lat="40.0737072" lon="-105.2303215">
  <ele>1596.87</ele>
  <time>2026-08-28T19:08:12Z</time>
  <course>12.22</course>
  <speed>10.12</speed>
  <fix>3d</fix>
</trkpt>
<trkpt lat="40.0737359" lon="-105.2303133">
  <ele>1594.21</ele>
  <time>2026-08-28T19:08:12Z</time>
  <course>11.13</course>
  <speed>10.106992628868392</speed>
  <fix>3d</fix>
</trkpt>
<trkpt lat="40.0737249" lon="-105.2303164">
  <ele>1595.47</ele>
  <time>2026-08-28T19:08:12Z</time>
  <course>12.18</course>
  <speed>10.11</speed>
  <fix>3d</fix>
</trkpt>
<trkpt lat="40.0737537" lon="-105.2303083">
  <ele>1592.8</ele>
  <time>2026-08-28T19:08:12Z</time>
  <course>11.08</course>
  <speed>10.106992628868392</speed>
  <fix>3d</fix>
</trkpt>
<trkpt lat="40.0737427" lon="-105.2303115">
  <ele>1594.07</ele>
  <time>2026-08-28T19:08:12Z</time>
  <course>12.13</course>
  <speed>10.11</speed>
  <fix>3d</fix>
</trkpt>
<trkpt lat="40.0737715" lon="-105.2303033">
  <ele>1591.4</ele>
  <time>2026-08-28T19:08:12Z</time>
  <course>11.05</course>
  <speed>10.104889905387392</speed>
  <fix>3d</fix>
</trkpt>
<trkpt lat="40.0737605" lon="-105.2303064">
  <ele>1592.66</ele>
  <time>2026-08-28T19:08:12Z</time>
  <course>12.09</course>
  <speed>10.11</speed>
  <fix>3d</fix>
</trkpt>
<trkpt lat="40.0737893" lon="-105.2302984">
  <ele>1589.98</ele>
  <time>2026-08-28T19:08:12Z</time>
  <course>11.01</course>
  <speed>10.102796642514388</speed>
  <fix>3d</fix>
</trkpt>
<trkpt lat="40.0737782" lon="-105.2303015">
  <ele>1591.26</ele>
  <time>2026-08-28T19:08:12Z</time>
  <course>12.04</course>
  <speed>10.1</speed>
  <fix>3d</fix>
</trkpt>
<trkpt lat="40.0738071" lon="-105.2302934">
  <ele>1588.57</ele>
  <time>2026-08-28T19:08:12Z</time>
  <course>10.98</course>
  <speed>10.100712846131207</speed>
  <fix>3d</fix>
</trkpt>
<trkpt lat="40.073796" lon="-105.2302966">
  <ele>1589.85</ele>
  <time>2026-08-28T19:08:12Z</time>
  <course>11.99</course>
  <speed>10.1</speed>
  <fix>3d</fix>
</trkpt>
<trkpt lat="40.0738249" lon="-105.2302885">
  <ele>1587.15</ele>
  <time>2026-08-28T19:08:12Z</time>
  <course>10.95</course>
  <speed>10.098638522097918</speed>
  <fix>3d</fix>
</trkpt>
<trkpt lat="40.0738137" lon="-105.2302917">
  <ele>1588.44</ele>
  <time>2026-08-28T19:08:12Z</time>
  <course>11.95</course>
  <speed>10.09</speed>
  <fix>3d</fix>
</trkpt>
<trkpt lat="40.0738427" lon="-105.2302836">
  <ele>1585.73</ele>
  <time>2026-08-28T19:08:12Z</time>
  <course>10.91</course>
  <speed>10.096573676252751</speed>
  <fix>3d</fix>
</trkpt>
<trkpt lat="40.0738315" lon="-105.2302868">
  <ele>1587.03</ele>
  <time>2026-08-28T19:08:12Z</time>
  <course>11.9</course>
  <speed>10.09</speed>
  <fix>3d</fix>
</trkpt>
<trkpt lat="40.0738605" lon="-105.2302787">
  <ele>1584.31</ele>
  <time>2026-08-28T19:08:12Z</time>
  <course>10.87</course>
  <speed>10.096573676252751</speed>
  <fix>3d</fix>
</trkpt>
<trkpt lat="40.0738492" lon="-105.2302819">
  <ele>1585.61</ele>
  <time>2026-08-28T19:08:12Z</time>
  <course>11.85</course>
  <speed>10.09</speed>
  <fix>3d</fix>
</trkpt>
<trkpt lat="40.0738766" lon="-105.2302744">
  <ele>1583.02</ele>
  <time>2026-08-28T19:08:12Z</time>
  <course>10.92</course>
  <speed>4.2011665046746245</speed>
  <fix>3d</fix>
</trkpt>
<trkpt lat="40.0738669" lon="-105.2302771">
  <ele>1584.2</ele>
  <time>2026-08-28T19:08:12Z</time>
  <course>11.79</course>
  <speed>9.62</speed>
  <fix>3d</fix>
</trkpt>
<trkpt lat="40.0738752" lon="-105.2302751">
  <ele>1583.15</ele>
  <time>2026-08-28T19:08:12Z</time>
  <course>10.94</course>
  <speed>2.894304752440558</speed>
  <fix>3d</fix>
</trkpt>
<trkpt lat="40.0738771" lon="-105.2302743">
  <ele>1583.38</ele>
  <time>2026-08-28T19:08:12Z</time>
  <course>11.63</course>
  <speed>3.17</speed>
  <fix>3d</fix>
</trkpt>
<trkpt lat="40.073875" lon="-105.2302754">
  <ele>1583.31</ele>
  <time>2026-08-28T19:08:12Z</time>
  <course>10.98</course>
  <speed>0.1345362404707371</speed>
  <fix>3d</fix>
</trkpt>
<trkpt lat="40.0738765" lon="-105.2302745">
  <ele>1583.44</ele>
  <time>2026-08-28T19:08:12Z</time>
  <course>192.02</course>
  <speed>1.84</speed>
  <fix>3d</fix>
</trkpt>
<trkpt lat="40.0738772" lon="-105.2302747">
  <ele>1583.24</ele>
  <time>2026-08-28T19:08:12Z</time>
  <course>10.78</course>
  <speed>0.8260750571225353</speed>
  <fix>3d</fix>
</trkpt>
<trkpt lat="40.0738746" lon="-105.230275">
  <ele>1583.59</ele>
  <time>2026-08-28T19:08:12Z</time>
  <course>191.98</course>
  <speed>0.19</speed>
  <fix>3d</fix>
</trkpt>
<trkpt lat="40.073878" lon="-105.2302744">
  <ele>1583.23</ele>
  <time>2026-08-28T19:08:12Z</time>
  <course>10.71</course>
  <speed>0.38118237105091834</speed>
  <fix>3d</fix>
</trkpt>
<trkpt lat="40.0738749" lon="-105.2302749">
  <ele>1583.57</ele>
  <time>2026-08-28T19:08:12Z</time>
  <course>11.95</course>
  <speed>0.27</speed>
  <fix>3d</fix>
</trkpt>
<trkpt lat="40.0738781" lon="-105.2302743">
  <ele>1583.25</ele>
  <time>2026-08-28T19:08:12Z</time>
  <course>10.72</course>
  <speed>0.32249030993194194</speed>
  <fix>3d</fix>
</trkpt>
<trkpt lat="40.0738751" lon="-105.2302749">
  <ele>1583.55</ele>
  <time>2026-08-28T19:08:12Z</time>
  <course>197.74</course>
  <speed>0.0</speed>
  <fix>3d</fix>
</trkpt>
<trkpt lat="40.0738781" lon="-105.2302742">
  <ele>1583.27</ele>
  <time>2026-08-28T19:08:12Z</time>
  <course>10.74</course>
  <speed>0.35510561809129404</speed>
  <fix>3d</fix>
</trkpt>
<trkpt lat="40.073875" lon="-105.2302749">
  <ele>1583.55</ele>
  <time>2026-08-28T19:08:12Z</time>
  <course>192.5</course>
  <speed>0.03</speed>
  <fix>3d</fix>
</trkpt>
<trkpt lat="40.073878" lon="-105.2302742">
  <ele>1583.28</ele>
  <time>2026-08-28T19:08:12Z</time>
  <course>10.76</course>
  <speed>0.3059411708155671</speed>
  <fix>3d</fix>
</trkpt>
<trkpt lat="40.073875" lon="-105.2302749">
  <ele>1583.56</ele>
  <time>2026-08-28T19:08:12Z</time>
  <course>17.62</course>
  <speed>0.0</speed>
  <fix>3d</fix>
</trkpt>
<trkpt lat="40.0738778" lon="-105.2302741">
  <ele>1583.3</ele>
  <time>2026-08-28T19:08:12Z</time>
  <course>10.77</course>
  <speed>0.2668332812825267</speed>
  <fix>3d</fix>
</trkpt>
<trkpt lat="40.073875" lon="-105.2302749">
  <ele>1583.56</ele>
  <time>2026-08-28T19:08:12Z</time>
  <course>48.52</course>
  <speed>0.0</speed>
  <fix>3d</fix>
</trkpt>
<trkpt lat="40.0738776" lon="-105.2302742">
  <ele>1583.32</ele>
  <time>2026-08-28T19:08:12Z</time>
  <course>10.77</course>
  <speed>0.23769728648009425</speed>
  <fix>3d</fix>
</trkpt>
<trkpt lat="40.073875" lon="-105.2302749">
  <ele>1583.56</ele>
  <time>2026-08-28T19:08:12Z</time>
  <course>121.0</course>
  <speed>0.0</speed>
  <fix>3d</fix>
</trkpt>
<trkpt lat="40.0738773" lon="-105.2302742">
  <ele>1583.34</ele>
  <time>2026-08-28T19:08:12Z</time>
  <course>10.78</course>
  <speed>0.196468827043885</speed>
  <fix>3d</fix>
</trkpt>
<trkpt lat="40.073875" lon="-105.2302749">
  <ele>1583.56</ele>
  <time>2026-08-28T19:08:12Z</time>
  <course>40.09</course>
  <speed>0.0</speed>
  <fix>3d</fix>
</trkpt>
<trkpt lat="40.0738771" lon="-105.2302742">
  <ele>1583.34</ele>
  <time>2026-08-28T19:08:12Z</time>
  <course>10.78</course>
  <speed>0.1676305461424021</speed>
  <fix>3d</fix>
</trkpt>
<trkpt lat="40.073875" lon="-105.2302749">
  <ele>1583.56</ele>
  <time>2026-08-28T19:08:12Z</time>
  <course>353.27</course>
  <speed>0.0</speed>
  <fix>3d</fix>
</trkpt>
<trkpt lat="40.0738769" lon="-105.2302743">
  <ele>1583.35</ele>
  <time>2026-08-28T19:08:12Z</time>
  <course>10.79</course>
  <speed>0.14866068747318506</speed>
  <fix>3d</fix>
</trkpt>
<trkpt lat="40.073875" lon="-105.2302749">
  <ele>1583.56</ele>
  <time>2026-08-28T19:08:12Z</time>
  <course>355.49</course>
  <speed>0.0</speed>
  <fix>3d</fix>
</trkpt>
<trkpt lat="40.0738767" lon="-105.2302743">
  <ele>1583.35</ele>
  <time>2026-08-28T19:08:12Z</time>
  <course>10.8</course>
  <speed>0.12083045973594572</speed>
  <fix>3d</fix>
</trkpt>
<trkpt lat="40.073875" lon="-105.2302749">
  <ele>1583.56</ele>
  <time>2026-08-28T19:08:12Z</time>
  <course>312.26</course>
  <speed>0.0</speed>
  <fix>3d</fix>
</trkpt>
<trkpt lat="40.0738766" lon="-105.2302743">
  <ele>1583.36</ele>
  <time>2026-08-28T19:08:12Z</time>
  <course>10.8</course>
  <speed>0.10295630140987001</speed>
  <fix>3d</fix>
</trkpt>
<trkpt lat="40.073875" lon="-105.2302749">
  <ele>1583.56</ele>
  <time>2026-08-28T19:08:12Z</time>
  <course>286.75</course>
  <speed>0.0</speed>
  <fix>3d</fix>
</trkpt>
<trkpt lat="40.0738765" lon="-105.2302743">
  <ele>1583.36</ele>
  <time>2026-08-28T19:08:12Z</time>
  <course>10.8</course>
  <speed>0.08602325267042626</speed>
  <fix>3d</fix>
</trkpt>
<trkpt lat="40.073875" lon="-105.2302749">
  <ele>1583.56</ele>
  <time>2026-08-28T19:08:12Z</time>
  <course>281.21</course>
  <speed>0.0</speed>
  <fix>3d</fix>
</trkpt>
<trkpt lat="40.0738763" lon="-105.2302744">
  <ele>1583.36</ele>
  <time>2026-08-28T19:08:12Z</time>
  <course>10.81</course>
  <speed>0.06403124237432849</speed>
  <fix>3d</fix>
</trkpt>
<trkpt lat="40.073875" lon="-105.2302749">
  <ele>1583.56</ele>
  <time>2026-08-28T19:08:12Z</time>
  <course>278.5</course>
  <speed>0.0</speed>
  <fix>3d</fix>
</trkpt>
<trkpt lat="40.0738762" lon="-105.2302744">
  <ele>1583.37</ele>
  <time>2026-08-28T19:08:12Z</time>
  <course>10.81</course>
  <speed>0.0565685424949238</speed>
  <fix>3d</fix>
</trkpt>
<trkpt lat="40.073875" lon="-105.2302749">
  <ele>1583.56</ele>
  <time>2026-08-28T19:08:12Z</time>
  <course>280.44</course>
  <speed>0.0</speed>
  <fix>3d</fix>
</trkpt>
<trkpt lat="40.073876" lon="-105.2302744">
  <ele>1583.37</ele>
  <time>2026-08-28T19:08:12Z</time>
  <course>10.81</course>
  <speed>0.044721359549995794</speed>
  <fix>3d</fix>
</trkpt>
<trkpt lat="40.073875" lon="-105.2302749">
  <ele>1583.56</ele>
  <time>2026-08-28T19:08:12Z</time>
  <course>304.96</course>
  <speed>0.0</speed>
  <fix>3d</fix>
</trkpt>
<trkpt lat="40.0738759" lon="-105.2302744">
  <ele>1583.37</ele>
  <time>2026-08-28T19:08:12Z</time>
  <course>10.81</course>
  <speed>0.0412310562561766</speed>
  <fix>3d</fix>
</trkpt>
<trkpt lat="40.073875" lon="-105.2302749">
  <ele>1583.56</ele>
  <time>2026-08-28T19:08:12Z</time>
  <course>332.58</course>
  <speed>0.0</speed>
  <fix>3d</fix>
</trkpt>
<trkpt lat="40.0738758" lon="-105.2302744">
  <ele>1583.38</ele>
  <time>2026-08-28T19:08:12Z</time>
  <course>10.81</course>
  <speed>0.04</speed>
  <fix>3d</fix>
</trkpt>
<trkpt lat="40.073875" lon="-105.2302749">
  <ele>1583.56</ele>
  <time>2026-08-28T19:08:12Z</time>
  <course>330.96</course>
  <speed>0.0</speed>
  <fix>3d</fix>
</trkpt>
<trkpt lat="40.0738757" lon="-105.2302745">
  <ele>1583.38</ele>
  <time>2026-08-28T19:08:12Z</time>
  <course>10.81</course>
  <speed>0.04</speed>
  <fix>3d</fix>
</trkpt>
<trkpt lat="40.073875" lon="-105.2302749">
  <ele>1583.56</ele>
  <time>2026-08-28T19:08:12Z</time>
  <course>336.64</course>
  <speed>0.0</speed>
  <fix>3d</fix>
</trkpt>
<trkpt lat="40.0738756" lon="-105.2302745">
  <ele>1583.39</ele>
  <time>2026-08-28T19:08:12Z</time>
  <course>10.8</course>
  <speed>0.0412310562561766</speed>
  <fix>3d</fix>
</trkpt>
<trkpt lat="40.073875" lon="-105.2302749">
  <ele>1583.56</ele>
  <time>2026-08-28T19:08:12Z</time>
  <course>341.58</course>
  <speed>0.0</speed>
  <fix>3d</fix>
</trkpt>
<trkpt lat="40.0738755" lon="-105.2302745">
  <ele>1583.39</ele>
  <time>2026-08-28T19:08:12Z</time>
  <course>10.8</course>
  <speed>0.03605551275463989</speed>
  <fix>3d</fix>
</trkpt>
<trkpt lat="40.073875" lon="-105.2302749">
  <ele>1583.56</ele>
  <time>2026-08-28T19:08:12Z</time>
  <course>339.32</course>
  <speed>0.0</speed>
  <fix>3d</fix>
</trkpt>
<trkpt lat="40.0738754" lon="-105.2302745">
  <ele>1583.4</ele>
  <time>2026-08-28T19:08:12Z</time>
  <course>10.79</course>
  <speed>0.04242640687119285</speed>
  <fix>3d</fix>
</trkpt>
<trkpt lat="40.073875" lon="-105.2302749">
  <ele>1583.56</ele>
  <time>2026-08-28T19:08:12Z</time>
  <course>333.16</course>
  <speed>0.0</speed>
  <fix>3d</fix>
</trkpt>
<trkpt lat="40.0738753" lon="-105.2302745">
  <ele>1583.4</ele>
  <time>2026-08-28T19:08:12Z</time>
  <course>10.79</course>
  <speed>0.04242640687119285</speed>
  <fix>3d</fix>
</trkpt>
<trkpt lat="40.073875" lon="-105.2302749">
  <ele>1583.56</ele>
  <time>2026-08-28T19:08:12Z</time>
  <course>329.18</course>
  <speed>0.0</speed>
  <fix>3d</fix>
</trkpt>
<trkpt lat="40.0738752" lon="-105.2302745">
  <ele>1583.41</ele>
  <time>2026-08-28T19:08:12Z</time>
  <course>10.78</course>
  <speed>0.05</speed>
  <fix>3d</fix>
</trkpt>
<trkpt lat="40.073875" lon="-105.2302749">
  <ele>1583.56</ele>
  <time>2026-08-28T19:08:12Z</time>
  <course>338.79</course>
  <speed>0.0</speed>
  <fix>3d</fix>
</trkpt>
<trkpt lat="40.0738752" lon="-105.2302745">
  <ele>1583.42</ele>
  <time>2026-08-28T19:08:12Z</time>
  <course>10.78</course>
  <speed>0.05</speed>
  <fix>3d</fix>
</trkpt>
<trkpt lat="40.073875" lon="-105.2302749">
  <ele>1583.56</ele>
  <time>2026-08-28T19:08:12Z</time>
  <course>343.19</course>
  <speed>0.0</speed>
  <fix>3d</fix>
</trkpt>
<trkpt lat="40.0738751" lon="-105.2302745">
  <ele>1583.42</ele>
  <time>2026-08-28T19:08:12Z</time>
  <course>10.77</course>
  <speed>0.053851648071345036</speed>
  <fix>3d</fix>
</trkpt>
<trkpt lat="40.073875" lon="-105.2302749">
  <ele>1583.56</ele>
  <time>2026-08-28T19:08:12Z</time>
  <course>341.13</course>
  <speed>0.0</speed>
  <fix>3d</fix>
</trkpt>
<trkpt lat="40.073875" lon="-105.2302745">
  <ele>1583.43</ele>
  <time>2026-08-28T19:08:12Z</time>
  <course>10.76</course>
  <speed>0.053851648071345036</speed>
  <fix>3d</fix>
</trkpt>
<trkpt lat="40.073875" lon="-105.2302749">
  <ele>1583.56</ele>
  <time>2026-08-28T19:08:12Z</time>
  <course>335.25</course>
  <speed>0.0</speed>
  <fix>3d</fix>
</trkpt>
<trkpt lat="40.073875" lon="-105.2302745">
  <ele>1583.44</ele>
  <time>2026-08-28T19:08:12Z</time>
  <course>10.76</course>
  <speed>0.053851648071345036</speed>
  <fix>3d</fix>
</trkpt>
<trkpt lat="40.073875" lon="-105.2302749">
  <ele>1583.56</ele>
  <time>2026-08-28T19:08:12Z</time>
  <course>334.27</course>
  <speed>0.0</speed>
  <fix>3d</fix>
</trkpt>
<trkpt lat="40.0738749" lon="-105.2302745">
  <ele>1583.44</ele>
  <time>2026-08-28T19:08:12Z</time>
  <course>10.75</course>
  <speed>0.053851648071345036</speed>
  <fix>3d</fix>
</trkpt>
<trkpt lat="40.073875" lon="-105.2302749">
  <ele>1583.56</ele>
  <time>2026-08-28T19:08:12Z</time>
  <course>333.95</course>
  <speed>0.0</speed>
  <fix>3d</fix>
</trkpt>
<trkpt lat="40.0738749" lon="-105.2302745">
  <ele>1583.45</ele>
  <time>2026-08-28T19:08:12Z</time>
  <course>10.75</course>
  <speed>0.0632455532033676</speed>
  <fix>3d</fix>
</trkpt>
<trkpt lat="40.073875" lon="-105.2302749">
  <ele>1583.56</ele>
  <time>2026-08-28T19:08:12Z</time>
  <course>187.05</course>
  <speed>0.0</speed>
  <fix>3d</fix>
</trkpt>
<trkpt lat="40.0738749" lon="-105.2302746">
  <ele>1583.45</ele>
  <time>2026-08-28T19:08:13Z</time>
  <course>10.74</course>
  <speed>0.0632455532033676</speed>
  <fix>3d</fix>
</trkpt>
<trkpt lat="40.073875" lon="-105.2302749">
  <ele>1583.56</ele>
  <time>2026-08-28T19:08:13Z</time>
  <course>163.15</course>
  <speed>0.0</speed>
  <fix>3d</fix>
</trkpt>
<trkpt lat="40.0738748" lon="-105.2302746">
  <ele>1583.46</ele>
  <time>2026-08-28T19:08:13Z</time>
  <course>10.74</course>
  <speed>0.0632455532033676</speed>
  <fix>3d</fix>
</trkpt>
<trkpt lat="40.073875" lon="-105.2302749">
  <ele>1583.56</ele>
  <time>2026-08-28T19:08:13Z</time>
  <course>153.55</course>
  <speed>0.0</speed>
  <fix>3d</fix>
</trkpt>
<trkpt lat="40.0738748" lon="-105.2302746">
  <ele>1583.46</ele>
  <time>2026-08-28T19:08:13Z</time>
  <course>10.74</course>
  <speed>0.053851648071345036</speed>
  <fix>3d</fix>
</trkpt>
<trkpt lat="40.073875" lon="-105.2302749">
  <ele>1583.56</ele>
  <time>2026-08-28T19:08:13Z</time>
  <course>141.0</course>
  <speed>0.0</speed>
  <fix>3d</fix>
</trkpt>
<trkpt lat="40.0738748" lon="-105.2302746">
  <ele>1583.46</ele>
  <time>2026-08-28T19:08:13Z</time>
  <course>10.73</course>
  <speed>0.05099019513592785</speed>
  <fix>3d</fix>
</trkpt>
<trkpt lat="40.073875" lon="-105.2302749">
  <ele>1583.56</ele>
  <time>2026-08-28T19:08:13Z</time>
  <course>35.39</course>
  <speed>0.0</speed>
  <fix>3d</fix>
</trkpt>
<trkpt lat="40.0738748" lon="-105.2302746">
  <ele>1583.47</ele>
  <time>2026-08-28T19:08:13Z</time>
  <course>10.73</course>
  <speed>0.05099019513592785</speed>
  <fix>3d</fix>
</trkpt>
<trkpt lat="40.073875" lon="-105.2302749">
  <ele>1583.56</ele>
  <time>2026-08-28T19:08:13Z</time>
  <course>341.09</course>
  <speed>0.0</speed>
  <fix>3d</fix>
</trkpt>
<trkpt lat="40.0738748" lon="-105.2302746">
  <ele>1583.47</ele>
  <time>2026-08-28T19:08:13Z</time>
  <course>10.73</course>
  <speed>0.05099019513592785</speed>
  <fix>3d</fix>
</trkpt>
<trkpt lat="40.073875" lon="-105.2302749">
  <ele>1583.56</ele>
  <time>2026-08-28T19:08:13Z</time>
  <course>340.83</course>
  <speed>0.0</speed>
  <fix>3d</fix>
</trkpt>
<trkpt lat="40.0738747" lon="-105.2302746">
  <ele>1583.48</ele>
  <time>2026-08-28T19:08:13Z</time>
  <course>10.73</course>
  <speed>0.05099019513592785</speed>
  <fix>3d</fix>
</trkpt>
<trkpt lat="40.073875" lon="-105.2302749">
  <ele>1583.56</ele>
  <time>2026-08-28T19:08:13Z</time>
  <course>341.32</course>
  <speed>0.0</speed>
  <fix>3d</fix>
</trkpt>
<trkpt lat="40.0738747" lon="-105.2302746">
  <ele>1583.48</ele>
  <time>2026-08-28T19:08:13Z</time>
  <course>10.73</course>
  <speed>0.05099019513592785</speed>
  <fix>3d</fix>
</trkpt>
<trkpt lat="40.073875" lon="-105.2302749">
  <ele>1583.56</ele>
  <time>2026-08-28T19:08:13Z</time>
  <course>338.76</course>
  <speed>0.0</speed>
  <fix>3d</fix>
</trkpt>
<trkpt lat="40.0738747" lon="-105.2302746">
  <ele>1583.49</ele>
  <time>2026-08-28T19:08:13Z</time>
  <course>10.72</course>
  <speed>0.05099019513592785</speed>
  <fix>3d</fix>
</trkpt>
<trkpt lat="40.073875" lon="-105.2302749">
  <ele>1583.56</ele>
  <time>2026-08-28T19:08:13Z</time>
  <course>336.73</course>
  <speed>0.0</speed>
  <fix>3d</fix>
</trkpt>
<trkpt lat="40.0738747" lon="-105.2302747">
  <ele>1583.49</ele>
  <time>2026-08-28T19:08:13Z</time>
  <course>10.72</course>
  <speed>0.05099019513592785</speed>
  <fix>3d</fix>
</trkpt>
<trkpt lat="40.073875" lon="-105.2302749">
  <ele>1583.56</ele>
  <time>2026-08-28T19:08:13Z</time>
  <course>334.71</course>
  <speed>0.0</speed>
  <fix>3d</fix>
</trkpt>
<trkpt lat="40.0738747" lon="-105.2302747">
  <ele>1583.5</ele>
  <time>2026-08-28T19:08:13Z</time>
  <course>10.72</course>
  <speed>0.0412310562561766</speed>
  <fix>3d</fix>
</trkpt>
<trkpt lat="40.073875" lon="-105.2302749">
  <ele>1583.56</ele>
  <time>2026-08-28T19:08:13Z</time>
  <course>339.73</course>
  <speed>0.0</speed>
  <fix>3d</fix>
</trkpt>
<trkpt lat="40.0738747" lon="-105.2302747">
  <ele>1583.5</ele>
  <time>2026-08-28T19:08:13Z</time>
  <course>10.72</course>
  <speed>0.0412310562561766</speed>
  <fix>3d</fix>
</trkpt>
<trkpt lat="40.073875" lon="-105.2302749">
  <ele>1583.56</ele>
  <time>2026-08-28T19:08:13Z</time>
  <course>337.38</course>
  <speed>0.0</speed>
  <fix>3d</fix>
</trkpt>
<trkpt lat="40.0738747" lon="-105.2302747">
  <ele>1583.5</ele>
  <time>2026-08-28T19:08:13Z</time>
  <course>10.72</course>
  <speed>0.0412310562561766</speed>
  <fix>3d</fix>
</trkpt>
<trkpt lat="40.073875" lon="-105.2302749">
  <ele>1583.56</ele>
  <time>2026-08-28T19:08:13Z</time>
  <course>332.27</course>
  <speed>0.0</speed>
  <fix>3d</fix>
</trkpt>
<trkpt lat="40.0738747" lon="-105.2302747">
  <ele>1583.51</ele>
  <time>2026-08-28T19:08:13Z</time>
  <course>10.73</course>
  <speed>0.0412310562561766</speed>
  <fix>3d</fix>
</trkpt>
<trkpt lat="40.073875" lon="-105.2302749">
  <ele>1583.56</ele>
  <time>2026-08-28T19:08:13Z</time>
  <course>338.33</course>
  <speed>0.0</speed>
  <fix>3d</fix>
</trkpt>
<trkpt lat="40.0738747" lon="-105.2302747">
  <ele>1583.51</ele>
  <time>2026-08-28T19:08:13Z</time>
  <course>10.73</course>
  <speed>0.0412310562561766</speed>
  <fix>3d</fix>
</trkpt>
<trkpt lat="40.073875" lon="-105.2302749">
  <ele>1583.56</ele>
  <time>2026-08-28T19:08:13Z</time>
  <course>340.62</course>
  <speed>0.0</speed>
  <fix>3d</fix>
</trkpt>
<trkpt lat="40.0738747" lon="-105.2302747">
  <ele>1583.51</ele>
  <time>2026-08-28T19:08:13Z</time>
  <course>10.73</course>
  <speed>0.0412310562561766</speed>
  <fix>3d</fix>
</trkpt>
<trkpt lat="40.073875" lon="-105.2302749">
  <ele>1583.56</ele>
  <time>2026-08-28T19:08:13Z</time>
  <course>336.08</course>
  <speed>0.0</speed>
  <fix>3d</fix>
</trkpt>
<trkpt lat="40.0738748" lon="-105.2302747">
  <ele>1583.52</ele>
  <time>2026-08-28T19:08:13Z</time>
  <course>10.73</course>
  <speed>0.0316227766016838</speed>
  <fix>3d</fix>
</trkpt>
<trkpt lat="40.073875" lon="-105.2302749">
  <ele>1583.56</ele>
  <time>2026-08-28T19:08:13Z</time>
  <course>339.34</course>
  <speed>0.0</speed>
  <fix>3d</fix>
</trkpt>
<trkpt lat="40.0738748" lon="-105.2302747">
  <ele>1583.52</ele>
  <time>2026-08-28T19:08:13Z</time>
  <course>10.73</course>
  <speed>0.0316227766016838</speed>
  <fix>3d</fix>
</trkpt>
<trkpt lat="40.073875" lon="-105.2302749">
  <ele>1583.56</ele>
  <time>2026-08-28T19:08:13Z</time>
  <course>340.88</course>
  <speed>0.0</speed>
  <fix>3d</fix>
</trkpt>
<trkpt lat="40.0738748" lon="-105.2302747">
  <ele>1583.53</ele>
  <time>2026-08-28T19:08:13Z</time>
  <course>10.73</course>
  <speed>0.0316227766016838</speed>
  <fix>3d</fix>
</trkpt>
<trkpt lat="40.073875" lon="-105.2302749">
  <ele>1583.56</ele>
  <time>2026-08-28T19:08:13Z</time>
  <course>338.21</course>
  <speed>0.0</speed>
  <fix>3d</fix>
</trkpt>
<trkpt lat="40.0738748" lon="-105.2302747">
  <ele>1583.53</ele>
  <time>2026-08-28T19:08:13Z</time>
  <course>10.74</course>
  <speed>0.0316227766016838</speed>
  <fix>3d</fix>
</trkpt>
<trkpt lat="40.073875" lon="-105.2302749">
  <ele>1583.56</ele>
  <time>2026-08-28T19:08:13Z</time>
  <course>334.22</course>
  <speed>0.0</speed>
  <fix>3d</fix>
</trkpt>
<trkpt lat="40.0738748" lon="-105.2302747">
  <ele>1583.53</ele>
  <time>2026-08-28T19:08:13Z</time>
  <course>10.74</course>
  <speed>0.0316227766016838</speed>
  <fix>3d</fix>
</trkpt>
<trkpt lat="40.073875" lon="-105.2302749">
  <ele>1583.56</ele>
  <time>2026-08-28T19:08:13Z</time>
  <course>332.7</course>
  <speed>0.0</speed>
  <fix>3d</fix>
</trkpt>
<trkpt lat="40.0738748" lon="-105.2302747">
  <ele>1583.53</ele>
  <time>2026-08-28T19:08:13Z</time>
  <course>10.74</course>
  <speed>0.0316227766016838</speed>
  <fix>3d</fix>
</trkpt>
<trkpt lat="40.073875" lon="-105.2302749">
  <ele>1583.56</ele>
  <time>2026-08-28T19:08:13Z</time>
  <course>338.36</course>
  <speed>0.0</speed>
  <fix>3d</fix>
</trkpt>
<trkpt lat="40.0738748" lon="-105.2302747">
  <ele>1583.54</ele>
  <time>2026-08-28T19:08:13Z</time>
  <course>10.74</course>
  <speed>0.0316227766016838</speed>
  <fix>3d</fix>
</trkpt>
<trkpt lat="40.073875" lon="-105.2302749">
  <ele>1583.56</ele>
  <time>2026-08-28T19:08:13Z</time>
  <course>340.95</course>
  <speed>0.0</speed>
  <fix>3d</fix>
</trkpt>
<trkpt lat="40.0738748" lon="-105.2302747">
  <ele>1583.54</ele>
  <time>2026-08-28T19:08:13Z</time>
  <course>10.75</course>
  <speed>0.022360679774997897</speed>
  <fix>3d</fix>
</trkpt>
<trkpt lat="40.073875" lon="-105.2302749">
  <ele>1583.56</ele>
  <time>2026-08-28T19:08:13Z</time>
  <course>344.89</course>
  <speed>0.0</speed>
  <fix>3d</fix>
</trkpt>
<trkpt lat="40.0738748" lon="-105.2302747">
  <ele>1583.54</ele>
  <time>2026-08-28T19:08:13Z</time>
  <course>10.75</course>
  <speed>0.022360679774997897</speed>
  <fix>3d</fix>
</trkpt>
<trkpt lat="40.073875" lon="-105.2302749">
  <ele>1583.56</ele>
  <time>2026-08-28T19:08:13Z</time>
  <course>335.25</course>
  <speed>0.0</speed>
  <fix>3d</fix>
</trkpt>
<trkpt lat="40.0738748" lon="-105.2302747">
  <ele>1583.54</ele>
  <time>2026-08-28T19:08:13Z</time>
  <course>10.75</course>
  <speed>0.022360679774997897</speed>
  <fix>3d</fix>
</trkpt>
<trkpt lat="40.073875" lon="-105.2302749">
  <ele>1583.56</ele>
  <time>2026-08-28T19:08:13Z</time>
  <course>335.07</course>
  <speed>0.0</speed>
  <fix>3d</fix>
</trkpt>
<trkpt lat="40.0738748" lon="-105.2302747">
  <ele>1583.54</ele>
  <time>2026-08-28T19:08:13Z</time>
  <course>10.76</course>
  <speed>0.022360679774997897</speed>
  <fix>3d</fix>
</trkpt>
<trkpt lat="40.073875" lon="-105.2302749">
  <ele>1583.56</ele>
  <time>2026-08-28T19:08:13Z</time>
  <course>342.37</course>
  <speed>0.0</speed>
  <fix>3d</fix>
</trkpt>
<trkpt lat="40.0738748" lon="-105.2302747">
  <ele>1583.54</ele>
  <time>2026-08-28T19:08:13Z</time>
  <course>10.76</course>
  <speed>0.022360679774997897</speed>
  <fix>3d</fix>
</trkpt>
<trkpt lat="40.073875" lon="-105.2302749">
  <ele>1583.56</ele>
  <time>2026-08-28T19:08:13Z</time>
  <course>335.94</course>
  <speed>0.0</speed>
  <fix>3d</fix>
</trkpt>
<trkpt lat="40.0738748" lon="-105.2302747">
  <ele>1583.55</ele>
  <time>2026-08-28T19:08:13Z</time>
  <course>10.77</course>
  <speed>0.022360679774997897</speed>
  <fix>3d</fix>
</trkpt>
<trkpt lat="40.073875" lon="-105.2302749">
  <ele>1583.56</ele>
  <time>2026-08-28T19:08:13Z</time>
  <course>336.66</course>
  <speed>0.0</speed>
  <fix>3d</fix>
</trkpt>
<trkpt lat="40.0738748" lon="-105.2302747">
  <ele>1583.55</ele>
  <time>2026-08-28T19:08:13Z</time>
  <course>10.77</course>
  <speed>0.022360679774997897</speed>
  <fix>3d</fix>
</trkpt>
<trkpt lat="40.073875" lon="-105.2302749">
  <ele>1583.56</ele>
  <time>2026-08-28T19:08:13Z</time>
  <course>339.64</course>
  <speed>0.0</speed>
  <fix>3d</fix>
</trkpt>
<trkpt lat="40.0738748" lon="-105.2302747">
  <ele>1583.55</ele>
  <time>2026-08-28T19:08:13Z</time>
  <course>10.77</course>
  <speed>0.022360679774997897</speed>
  <fix>3d</fix>
</trkpt>
<trkpt lat="40.073875" lon="-105.2302749">
  <ele>1583.56</ele>
  <time>2026-08-28T19:08:13Z</time>
  <course>336.16</course>
  <speed>0.0</speed>
  <fix>3d</fix>
</trkpt>
<trkpt lat="40.0738748" lon="-105.2302747">
  <ele>1583.56</ele>
  <time>2026-08-28T19:08:13Z</time>
  <course>10.78</course>
  <speed>0.022360679774997897</speed>
  <fix>3d</fix>
</trkpt>
<trkpt lat="40.073875" lon="-105.2302749">
  <ele>1583.56</ele>
  <time>2026-08-28T19:08:13Z</time>
  <course>336.76</course>
  <speed>0.0</speed>
  <fix>3d</fix>
</trkpt>
<trkpt lat="40.0738748" lon="-105.2302747">
  <ele>1583.56</ele>
  <time>2026-08-28T19:08:13Z</time>
  <course>10.78</course>
  <speed>0.022360679774997897</speed>
  <fix>3d</fix>
</trkpt>
<trkpt lat="40.073875" lon="-105.2302749">
  <ele>1583.56</ele>
  <time>2026-08-28T19:08:13Z</time>
  <course>342.08</course>
  <speed>0.0</speed>
  <fix>3d</fix>
</trkpt>
<trkpt lat="40.0738748" lon="-105.2302747">
  <ele>1583.56</ele>
  <time>2026-08-28T19:08:13Z</time>
  <course>10.78</course>
  <speed>0.022360679774997897</speed>
  <fix>3d</fix>
</trkpt>
<trkpt lat="40.073875" lon="-105.2302749">
  <ele>1583.56</ele>
  <time>2026-08-28T19:08:13Z</time>
  <course>334.86</course>
  <speed>0.0</speed>
  <fix>3d</fix>
</trkpt>
<trkpt lat="40.0738748" lon="-105.2302747">
  <ele>1583.57</ele>
  <time>2026-08-28T19:08:13Z</time>
  <course>10.79</course>
  <speed>0.01414213562373095</speed>
  <fix>3d</fix>
</trkpt>
<trkpt lat="40.073875" lon="-105.2302749">
  <ele>1583.56</ele>
  <time>2026-08-28T19:08:13Z</time>
  <course>339.65</course>
  <speed>0.0</speed>
  <fix>3d</fix>
</trkpt>
<trkpt lat="40.0738748" lon="-105.2302747">
  <ele>1583.58</ele>
  <time>2026-08-28T19:08:13Z</time>
  <course>10.79</course>
  <speed>0.01414213562373095</speed>
  <fix>3d</fix>
</trkpt>
<trkpt lat="40.073875" lon="-105.2302749">
  <ele>1583.56</ele>
  <time>2026-08-28T19:08:13Z</time>
  <course>348.28</course>
  <speed>0.0</speed>
  <fix>3d</fix>
</trkpt>
<trkpt lat="40.0738748" lon="-105.2302747">
  <ele>1583.58</ele>
  <time>2026-08-28T19:08:13Z</time>
  <course>10.8</course>
  <speed>0.01414213562373095</speed>
  <fix>3d</fix>
</trkpt>
<trkpt lat="40.073875" lon="-105.2302749">
  <ele>1583.56</ele>
  <time>2026-08-28T19:08:13Z</time>
  <course>333.26</course>
  <speed>0.0</speed>
  <fix>3d</fix>
</trkpt>
<trkpt lat="40.0738748" lon="-105.2302747">
  <ele>1583.58</ele>
  <time>2026-08-28T19:08:13Z</time>
  <course>10.8</course>
  <speed>0.01414213562373095</speed>
  <fix>3d</fix>
</trkpt>
<trkpt lat="40.073875" lon="-105.2302749">
  <ele>1583.56</ele>
  <time>2026-08-28T19:08:13Z</time>
  <course>331.33</course>
  <speed>0.0</speed>
  <fix>3d</fix>
</trkpt>
<trkpt lat="40.0738748" lon="-105.2302747">
  <ele>1583.58</ele>
  <time>2026-08-28T19:08:13Z</time>
  <course>10.8</course>
  <speed>0.01414213562373095</speed>
  <fix>3d</fix>
</trkpt>
<trkpt lat="40.073875" lon="-105.2302749">
  <ele>1583.56</ele>
  <time>2026-08-28T19:08:13Z</time>
  <course>342.16</course>
  <speed>0.0</speed>
  <fix>3d</fix>
</trkpt>
<trkpt lat="40.0738748" lon="-105.2302747">
  <ele>1583.59</ele>
  <time>2026-08-28T19:08:13Z</time>
  <course>10.81</course>
  <speed>0.01414213562373095</speed>
  <fix>3d</fix>
</trkpt>
<trkpt lat="40.073875" lon="-105.2302749">
  <ele>1583.56</ele>
  <time>2026-08-28T19:08:13Z</time>
  <course>337.31</course>
  <speed>0.0</speed>
  <fix>3d</fix>
</trkpt>
<trkpt lat="40.0738748" lon="-105.2302747">
  <ele>1583.59</ele>
  <time>2026-08-28T19:08:13Z</time>
  <course>10.81</course>
  <speed>0.01414213562373095</speed>
  <fix>3d</fix>
</trkpt>
<trkpt lat="40.073875" lon="-105.2302749">
  <ele>1583.56</ele>
  <time>2026-08-28T19:08:13Z</time>
  <course>332.07</course>
  <speed>0.0</speed>
  <fix>3d</fix>
</trkpt>
<trkpt lat="40.0738748" lon="-105.2302747">
  <ele>1583.59</ele>
  <time>2026-08-28T19:08:13Z</time>
  <course>10.82</course>
  <speed>0.01414213562373095</speed>
  <fix>3d</fix>
</trkpt>
<trkpt lat="40.073875" lon="-105.2302749">
  <ele>1583.56</ele>
  <time>2026-08-28T19:08:13Z</time>
  <course>338.71</course>
  <speed>0.0</speed>
  <fix>3d</fix>
</trkpt>
<trkpt lat="40.0738748" lon="-105.2302747">
  <ele>1583.59</ele>
  <time>2026-08-28T19:08:13Z</time>
  <course>10.82</course>
  <speed>0.01414213562373095</speed>
  <fix>3d</fix>
</trkpt>
<trkpt lat="40.073875" lon="-105.2302749">
  <ele>1583.56</ele>
  <time>2026-08-28T19:08:13Z</time>
  <course>342.43</course>
  <speed>0.0</speed>
  <fix>3d</fix>
</trkpt>
<trkpt lat="40.0738748" lon="-105.2302747">
  <ele>1583.59</ele>
  <time>2026-08-28T19:08:13Z</time>
  <course>10.82</course>
  <speed>0.01414213562373095</speed>
  <fix>3d</fix>
</trkpt>
<trkpt lat="40.073875" lon="-105.2302749">
  <ele>1583.56</ele>
  <time>2026-08-28T19:08:13Z</time>
  <course>333.67</course>
  <speed>0.0</speed>
  <fix>3d</fix>
</trkpt>
<trkpt lat="40.0738748" lon="-105.2302747">
  <ele>1583.59</ele>
  <time>2026-08-28T19:08:13Z</time>
  <course>10.83</course>
  <speed>0.01414213562373095</speed>
  <fix>3d</fix>
</trkpt>
<trkpt lat="40.073875" lon="-105.2302749">
  <ele>1583.56</ele>
  <time>2026-08-28T19:08:13Z</time>
  <course>333.72</course>
  <speed>0.0</speed>
  <fix>3d</fix>
</trkpt>
<trkpt lat="40.0738748" lon="-105.2302747">
  <ele>1583.59</ele>
  <time>2026-08-28T19:08:13Z</time>
  <course>10.83</course>
  <speed>0.01414213562373095</speed>
  <fix>3d</fix>
</trkpt>
<trkpt lat="40.073875" lon="-105.2302749">
  <ele>1583.56</ele>
  <time>2026-08-28T19:08:13Z</time>
  <course>343.05</course>
  <speed>0.0</speed>
  <fix>3d</fix>
</trkpt>
<trkpt lat="40.0738748" lon="-105.2302747">
  <ele>1583.6</ele>
  <time>2026-08-28T19:08:13Z</time>
  <course>10.84</course>
  <speed>0.01414213562373095</speed>
  <fix>3d</fix>
</trkpt>
<trkpt lat="40.0738751" lon="-105.2302749">
  <ele>1583.56</ele>
  <time>2026-08-28T19:08:13Z</time>
  <course>334.12</course>
  <speed>0.0</speed>
  <fix>3d</fix>
</trkpt>
<trkpt lat="40.0738748" lon="-105.2302747">
  <ele>1583.6</ele>
  <time>2026-08-28T19:08:13Z</time>
  <course>10.84</course>
  <speed>0.01414213562373095</speed>
  <fix>3d</fix>
</trkpt>
<trkpt lat="40.0738751" lon="-105.2302749">
  <ele>1583.56</ele>
  <time>2026-08-28T19:08:13Z</time>
  <course>331.29</course>
  <speed>0.0</speed>
  <fix>3d</fix>
</trkpt>
<trkpt lat="40.0738748" lon="-105.2302747">
  <ele>1583.6</ele>
  <time>2026-08-28T19:08:13Z</time>
  <course>10.84</course>
  <speed>0.01414213562373095</speed>
  <fix>3d</fix>
</trkpt>
<trkpt lat="40.0738751" lon="-105.2302749">
  <ele>1583.56</ele>
  <time>2026-08-28T19:08:13Z</time>
  <course>342.74</course>
  <speed>0.0</speed>
  <fix>3d</fix>
</trkpt>
<trkpt lat="40.0738748" lon="-105.2302747">
  <ele>1583.61</ele>
  <time>2026-08-28T19:08:13Z</time>
  <course>10.86</course>
  <speed>0.01414213562373095</speed>
  <fix>3d</fix>
</trkpt>
<trkpt lat="40.0738751" lon="-105.2302749">
  <ele>1583.56</ele>
  <time>2026-08-28T19:08:13Z</time>
  <course>337.9</course>
  <speed>0.0</speed>
  <fix>3d</fix>
</trkpt>
<trkpt lat="40.0738749" lon="-105.2302747">
  <ele>1583.61</ele>
  <time>2026-08-28T19:08:13Z</time>
  <course>10.89</course>
  <speed>0.01414213562373095</speed>
  <fix>3d</fix>
</trkpt>
<trkpt lat="40.0738751" lon="-105.2302749">
  <ele>1583.56</ele>
  <time>2026-08-28T19:08:13Z</time>
  <course>331.52</course>
  <speed>0.0</speed>
  <fix>3d</fix>
</trkpt>
<trkpt lat="40.0738749" lon="-105.2302747">
  <ele>1583.62</ele>
  <time>2026-08-28T19:08:13Z</time>
  <course>10.92</course>
  <speed>0.01414213562373095</speed>
  <fix>3d</fix>
</trkpt>
<trkpt lat="40.0738751" lon="-105.2302749">
  <ele>1583.56</ele>
  <time>2026-08-28T19:08:13Z</time>
  <course>338.99</course>
  <speed>0.0</speed>
  <fix>3d</fix>
</trkpt>
<trkpt lat="40.0738749" lon="-105.2302747">
  <ele>1583.61</ele>
  <time>2026-08-28T19:08:13Z</time>
  <course>10.95</course>
  <speed>0.01414213562373095</speed>
  <fix>3d</fix>
</trkpt>
<trkpt lat="40.0738751" lon="-105.2302749">
  <ele>1583.56</ele>
  <time>2026-08-28T19:08:13Z</time>
  <course>341.2</course>
  <speed>0.0</speed>
  <fix>3d</fix>
</trkpt>
<trkpt lat="40.0738749" lon="-105.2302747">
  <ele>1583.61</ele>
  <time>2026-08-28T19:08:13Z</time>
  <course>10.98</course>
  <speed>0.01414213562373095</speed>
  <fix>3d</fix>
</trkpt>
<trkpt lat="40.0738751" lon="-105.2302749">
  <ele>1583.56</ele>
  <time>2026-08-28T19:08:13Z</time>
  <course>332.58</course>
  <speed>0.0</speed>
  <fix>3d</fix>
</trkpt>
<trkpt lat="40.0738749" lon="-105.2302747">
  <ele>1583.6</ele>
  <time>2026-08-28T19:08:13Z</time>
  <course>11.02</course>
  <speed>0.01414213562373095</speed>
  <fix>3d</fix>
</trkpt>
<trkpt lat="40.0738751" lon="-105.2302749">
  <ele>1583.56</ele>
  <time>2026-08-28T19:08:13Z</time>
  <course>333.62</course>
  <speed>0.0</speed>
  <fix>3d</fix>
</trkpt>
<trkpt lat="40.0738749" lon="-105.2302747">
  <ele>1583.6</ele>
  <time>2026-08-28T19:08:13Z</time>
  <course>11.05</course>
  <speed>0.01414213562373095</speed>
  <fix>3d</fix>
</trkpt>
<trkpt lat="40.0738751" lon="-105.2302749">
  <ele>1583.56</ele>
  <time>2026-08-28T19:08:13Z</time>
  <course>344.09</course>
  <speed>0.0</speed>
  <fix>3d</fix>
</trkpt>
<trkpt lat="40.0738749" lon="-105.2302747">
  <ele>1583.61</ele>
  <time>2026-08-28T19:08:13Z</time>
  <course>11.08</course>
  <speed>0.01414213562373095</speed>
  <fix>3d</fix>
</trkpt>
<trkpt lat="40.0738751" lon="-105.2302749">
  <ele>1583.56</ele>
  <time>2026-08-28T19:08:13Z</time>
  <course>334.11</course>
  <speed>0.0</speed>
  <fix>3d</fix>
</trkpt>
<trkpt lat="40.0738749" lon="-105.2302747">
  <ele>1583.61</ele>
  <time>2026-08-28T19:08:13Z</time>
  <course>11.11</course>
  <speed>0.01414213562373095</speed>
  <fix>3d</fix>
</trkpt>
<trkpt lat="40.0738751" lon="-105.2302749">
  <ele>1583.56</ele>
  <time>2026-08-28T19:08:13Z</time>
  <course>322.61</course>
  <speed>0.0</speed>
  <fix>3d</fix>
</trkpt>
<trkpt lat="40.0738749" lon="-105.2302747">
  <ele>1583.61</ele>
  <time>2026-08-28T19:08:13Z</time>
  <course>11.14</course>
  <speed>0.01414213562373095</speed>
  <fix>3d</fix>
</trkpt>
<trkpt lat="40.0738751" lon="-105.2302749">
  <ele>1583.56</ele>
  <time>2026-08-28T19:08:13Z</time>
  <course>330.75</course>
  <speed>0.0</speed>
  <fix>3d</fix>
</trkpt>
<trkpt lat="40.0738749" lon="-105.2302747">
  <ele>1583.62</ele>
  <time>2026-08-28T19:08:13Z</time>
  <course>11.17</course>
  <speed>0.01414213562373095</speed>
  <fix>3d</fix>
</trkpt>
<trkpt lat="40.0738751" lon="-105.2302749">
  <ele>1583.56</ele>
  <time>2026-08-28T19:08:13Z</time>
  <course>338.36</course>
  <speed>0.0</speed>
  <fix>3d</fix>
</trkpt>
<trkpt lat="40.0738749" lon="-105.2302747">
  <ele>1583.62</ele>
  <time>2026-08-28T19:08:13Z</time>
  <course>11.2</course>
  <speed>0.01414213562373095</speed>
  <fix>3d</fix>
</trkpt>
<trkpt lat="40.0738751" lon="-105.2302749">
  <ele>1583.56</ele>
  <time>2026-08-28T19:08:13Z</time>
  <course>334.37</course>
  <speed>0.0</speed>
  <fix>3d</fix>
</trkpt>
<trkpt lat="40.0738749" lon="-105.2302747">
  <ele>1583.63</ele>
  <time>2026-08-28T19:08:13Z</time>
  <course>11.34</course>
  <speed>0.01414213562373095</speed>
  <fix>3d</fix>
</trkpt>
<trkpt lat="40.0738751" lon="-105.2302749">
  <ele>1583.56</ele>
  <time>2026-08-28T19:08:13Z</time>
  <course>335.94</course>
  <speed>0.0</speed>
  <fix>3d</fix>
</trkpt>
<trkpt lat="40.073875" lon="-105.2302747">
  <ele>1583.63</ele>
  <time>2026-08-28T19:08:13Z</time>
  <course>11.37</course>
  <speed>0.01414213562373095</speed>
  <fix>3d</fix>
</trkpt>
<trkpt lat="40.0738751" lon="-105.2302749">
  <ele>1583.56</ele>
  <time>2026-08-28T19:08:13Z</time>
  <course>341.16</course>
  <speed>0.0</speed>
  <fix>3d</fix>
</trkpt>
<trkpt lat="40.073875" lon="-105.2302747">
  <ele>1583.64</ele>
  <time>2026-08-28T19:08:13Z</time>
  <course>11.4</course>
  <speed>0.01414213562373095</speed>
  <fix>3d</fix>
</trkpt>
<trkpt lat="40.0738751" lon="-105.2302749">
  <ele>1583.56</ele>
  <time>2026-08-28T19:08:13Z</time>
  <course>331.42</course>
  <speed>0.0</speed>
  <fix>3d</fix>
</trkpt>
<trkpt lat="40.073875" lon="-105.2302747">
  <ele>1583.64</ele>
  <time>2026-08-28T19:08:13Z</time>
  <course>11.44</course>
  <speed>0.01414213562373095</speed>
  <fix>3d</fix>
</trkpt>
<trkpt lat="40.0738751" lon="-105.2302749">
  <ele>1583.56</ele>
  <time>2026-08-28T19:08:13Z</time>
  <course>331.94</course>
  <speed>0.0</speed>
  <fix>3d</fix>
</trkpt>
<trkpt lat="40.073875" lon="-105.2302747">
  <ele>1583.64</ele>
  <time>2026-08-28T19:08:13Z</time>
  <course>11.48</course>
  <speed>0.01414213562373095</speed>
  <fix>3d</fix>
</trkpt>
<trkpt lat="40.0738751" lon="-105.2302749">
  <ele>1583.56</ele>
  <time>2026-08-28T19:08:13Z</time>
  <course>342.37</course>
  <speed>0.0</speed>
  <fix>3d</fix>
</trkpt>
<trkpt lat="40.073875" lon="-105.2302747">
  <ele>1583.63</ele>
  <time>2026-08-28T19:08:13Z</time>
  <course>11.51</course>
  <speed>0.01414213562373095</speed>
  <fix>3d</fix>
</trkpt>
<trkpt lat="40.0738751" lon="-105.2302749">
  <ele>1583.56</ele>
  <time>2026-08-28T19:08:13Z</time>
  <course>327.27</course>
  <speed>0.0</speed>
  <fix>3d</fix>
</trkpt>
<trkpt lat="40.073875" lon="-105.2302747">
  <ele>1583.63</ele>
  <time>2026-08-28T19:08:13Z</time>
  <course>11.55</course>
  <speed>0.01414213562373095</speed>
  <fix>3d</fix>
</trkpt>
<trkpt lat="40.0738751" lon="-105.2302749">
  <ele>1583.56</ele>
  <time>2026-08-28T19:08:13Z</time>
  <course>322.68</course>
  <speed>0.0</speed>
  <fix>3d</fix>
</trkpt>
<trkpt lat="40.073875" lon="-105.2302747">
  <ele>1583.63</ele>
  <time>2026-08-28T19:08:13Z</time>
  <course>11.58</course>
  <speed>0.01414213562373095</speed>
  <fix>3d</fix>
</trkpt>
<trkpt lat="40.0738751" lon="-105.2302749">
  <ele>1583.56</ele>
  <time>2026-08-28T19:08:13Z</time>
  <course>336.8</course>
  <speed>0.0</speed>
  <fix>3d</fix>
</trkpt>
<trkpt lat="40.073875" lon="-105.2302747">
  <ele>1583.63</ele>
  <time>2026-08-28T19:08:13Z</time>
  <course>11.62</course>
  <speed>0.022360679774997897</speed>
  <fix>3d</fix>
</trkpt>
<trkpt lat="40.0738751" lon="-105.2302749">
  <ele>1583.56</ele>
  <time>2026-08-28T19:08:13Z</time>
  <course>205.76</course>
  <speed>0.0</speed>
  <fix>3d</fix>
</trkpt>
<trkpt lat="40.073875" lon="-105.2302748">
  <ele>1583.63</ele>
  <time>2026-08-28T19:08:13Z</time>
  <course>11.66</course>
  <speed>0.022360679774997897</speed>
  <fix>3d</fix>
</trkpt>
<trkpt lat="40.0738751" lon="-105.2302749">
  <ele>1583.56</ele>
  <time>2026-08-28T19:08:13Z</time>
  <course>167.3</course>
  <speed>0.0</speed>
  <fix>3d</fix>
</trkpt>
<trkpt lat="40.073875" lon="-105.2302748">
  <ele>1583.63</ele>
  <time>2026-08-28T19:08:13Z</time>
  <course>11.7</course>
  <speed>0.01414213562373095</speed>
  <fix>3d</fix>
</trkpt>
<trkpt lat="40.073875" lon="-105.2302749">
  <ele>1583.56</ele>
  <time>2026-08-28T19:08:13Z</time>
  <course>150.79</course>
  <speed>0.0</speed>
  <fix>3d</fix>
</trkpt>
<trkpt lat="40.073875" lon="-105.2302748">
  <ele>1583.64</ele>
  <time>2026-08-28T19:08:13Z</time>
  <course>11.73</course>
  <speed>0.01414213562373095</speed>
  <fix>3d</fix>
</trkpt>
<trkpt lat="40.073875" lon="-105.2302749">
  <ele>1583.56</ele>
  <time>2026-08-28T19:08:13Z</time>
  <course>128.27</course>
  <speed>0.0</speed>
  <fix>3d</fix>
</trkpt>
<trkpt lat="40.073875" lon="-105.2302748">
  <ele>1583.63</ele>
  <time>2026-08-28T19:08:13Z</time>
  <course>11.77</course>
  <speed>0.01414213562373095</speed>
  <fix>3d</fix>
</trkpt>
<trkpt lat="40.073875" lon="-105.2302749">
  <ele>1583.56</ele>
  <time>2026-08-28T19:08:13Z</time>
  <course>147.22</course>
  <speed>0.0</speed>
  <fix>3d</fix>
</trkpt>
<trkpt lat="40.073875" lon="-105.2302748">
  <ele>1583.63</ele>
  <time>2026-08-28T19:08:13Z</time>
  <course>11.81</course>
  <speed>0.01414213562373095</speed>
  <fix>3d</fix>
</trkpt>
<trkpt lat="40.073875" lon="-105.2302749">
  <ele>1583.56</ele>
  <time>2026-08-28T19:08:13Z</time>
  <course>161.34</course>
  <speed>0.0</speed>
  <fix>3d</fix>
</trkpt>
<trkpt lat="40.073875" lon="-105.2302748">
  <ele>1583.63</ele>
  <time>2026-08-28T19:08:13Z</time>
  <course>11.85</course>
  <speed>0.01414213562373095</speed>
  <fix>3d</fix>
</trkpt>
<trkpt lat="40.073875" lon="-105.2302749">
  <ele>1583.56</ele>
  <time>2026-08-28T19:08:13Z</time>
  <course>141.68</course>
  <speed>0.0</speed>
  <fix>3d</fix>
</trkpt>
<trkpt lat="40.073875" lon="-105.2302748">
  <ele>1583.63</ele>
  <time>2026-08-28T19:08:13Z</time>
  <course>11.89</course>
  <speed>0.01414213562373095</speed>
  <fix>3d</fix>
</trkpt>
<trkpt lat="40.073875" lon="-105.2302749">
  <ele>1583.56</ele>
  <time>2026-08-28T19:08:13Z</time>
  <course>101.3</course>
  <speed>0.0</speed>
  <fix>3d</fix>
</trkpt>
<trkpt lat="40.073875" lon="-105.2302748">
  <ele>1583.63</ele>
  <time>2026-08-28T19:08:13Z</time>
  <course>11.93</course>
  <speed>0.01414213562373095</speed>
  <fix>3d</fix>
</trkpt>
<trkpt lat="40.073875" lon="-105.2302749">
  <ele>1583.56</ele>
  <time>2026-08-28T19:08:13Z</time>
  <course>218.7</course>
  <speed>0.0</speed>
  <fix>3d</fix>
</trkpt>
<trkpt lat="40.073875" lon="-105.2302748">
  <ele>1583.64</ele>
  <time>2026-08-28T19:08:13Z</time>
  <course>11.97</course>
  <speed>0.01414213562373095</speed>
  <fix>3d</fix>
</trkpt>
<trkpt lat="40.073875" lon="-105.2302749">
  <ele>1583.56</ele>
  <time>2026-08-28T19:08:13Z</time>
  <course>217.97</course>
  <speed>0.0</speed>
  <fix>3d</fix>
</trkpt>
<trkpt lat="40.073875" lon="-105.2302748">
  <ele>1583.63</ele>
  <time>2026-08-28T19:08:13Z</time>
  <course>12.01</course>
  <speed>0.01414213562373095</speed>
  <fix>3d</fix>
</trkpt>
<trkpt lat="40.073875" lon="-105.2302749">
  <ele>1583.56</ele>
  <time>2026-08-28T19:08:13Z</time>
  <course>141.34</course>
  <speed>0.0</speed>
  <fix>3d</fix>
</trkpt>
<trkpt lat="40.073875" lon="-105.2302748">
  <ele>1583.63</ele>
  <time>2026-08-28T19:08:13Z</time>
  <course>12.05</course>
  <speed>0.022360679774997897</speed>
  <fix>3d</fix>
</trkpt>
<trkpt lat="40.073875" lon="-105.2302749">
  <ele>1583.56</ele>
  <time>2026-08-28T19:08:13Z</time>
  <course>53.62</course>
  <speed>0.0</speed>
  <fix>3d</fix>
</trkpt>
<trkpt lat="40.0738749" lon="-105.2302748">
  <ele>1583.63</ele>
  <time>2026-08-28T19:08:13Z</time>
  <course>12.09</course>
  <speed>0.022360679774997897</speed>
  <fix>3d</fix>
</trkpt>
<trkpt lat="40.073875" lon="-105.2302749">
  <ele>1583.56</ele>
  <time>2026-08-28T19:08:13Z</time>
  <course>192.92</course>
  <speed>0.0</speed>
  <fix>3d</fix>
</trkpt>
<trkpt lat="40.0738749" lon="-105.2302748">
  <ele>1583.63</ele>
  <time>2026-08-28T19:08:13Z</time>
  <course>12.13</course>
  <speed>0.022360679774997897</speed>
  <fix>3d</fix>
</trkpt>
<trkpt lat="40.073875" lon="-105.2302749">
  <ele>1583.56</ele>
  <time>2026-08-28T19:08:13Z</time>
  <course>178.82</course>
  <speed>0.0</speed>
  <fix>3d</fix>
</trkpt>
<trkpt lat="40.0738749" lon="-105.2302748">
  <ele>1583.63</ele>
  <time>2026-08-28T19:08:13Z</time>
  <course>12.17</course>
  <speed>0.022360679774997897</speed>
  <fix>3d</fix>
</trkpt>
<trkpt lat="40.073875" lon="-105.2302749">
  <ele>1583.56</ele>
  <time>2026-08-28T19:08:13Z</time>
  <course>169.15</course>
  <speed>0.0</speed>
  <fix>3d</fix>
</trkpt>
<trkpt lat="40.0738749" lon="-105.2302748">
  <ele>1583.63</ele>
  <time>2026-08-28T19:08:13Z</time>
  <course>12.21</course>
  <speed>0.022360679774997897</speed>
  <fix>3d</fix>
</trkpt>
<trkpt lat="40.073875" lon="-105.2302749">
  <ele>1583.56</ele>
  <time>2026-08-28T19:08:13Z</time>
  <course>172.35</course>
  <speed>0.0</speed>
  <fix>3d</fix>
</trkpt>
<trkpt lat="40.0738749" lon="-105.2302748">
  <ele>1583.63</ele>
  <time>2026-08-28T19:08:13Z</time>
  <course>12.26</course>
  <speed>0.022360679774997897</speed>
  <fix>3d</fix>
</trkpt>
<trkpt lat="40.073875" lon="-105.2302749">
  <ele>1583.56</ele>
  <time>2026-08-28T19:08:13Z</time>
  <course>173.47</course>
  <speed>0.0</speed>
  <fix>3d</fix>
</trkpt>
<trkpt lat="40.0738749" lon="-105.2302748">
  <ele>1583.63</ele>
  <time>2026-08-28T19:08:13Z</time>
  <course>12.3</course>
  <speed>0.022360679774997897</speed>
  <fix>3d</fix>
</trkpt>
<trkpt lat="40.073875" lon="-105.2302749">
  <ele>1583.56</ele>
  <time>2026-08-28T19:08:13Z</time>
  <course>172.92</course>
  <speed>0.0</speed>
  <fix>3d</fix>
</trkpt>
<trkpt lat="40.0738749" lon="-105.2302748">
  <ele>1583.63</ele>
  <time>2026-08-28T19:08:13Z</time>
  <course>12.34</course>
  <speed>0.022360679774997897</speed>
  <fix>3d</fix>
</trkpt>
<trkpt lat="40.073875" lon="-105.2302749">
  <ele>1583.56</ele>
  <time>2026-08-28T19:08:13Z</time>
  <course>172.84</course>
  <speed>0.0</speed>
  <fix>3d</fix>
</trkpt>
<trkpt lat="40.0738749" lon="-105.2302748">
  <ele>1583.64</ele>
  <time>2026-08-28T19:08:13Z</time>
  <course>12.38</course>
  <speed>0.022360679774997897</speed>
  <fix>3d</fix>
</trkpt>
<trkpt lat="40.073875" lon="-105.2302749">
  <ele>1583.56</ele>
  <time>2026-08-28T19:08:13Z</time>
  <course>172.92</course>
  <speed>0.0</speed>
  <fix>3d</fix>
</trkpt>
<trkpt lat="40.0738749" lon="-105.2302748">
  <ele>1583.64</ele>
  <time>2026-08-28T19:08:13Z</time>
  <course>12.43</course>
  <speed>0.022360679774997897</speed>
  <fix>3d</fix>
</trkpt>
<trkpt lat="40.073875" lon="-105.2302749">
  <ele>1583.56</ele>
  <time>2026-08-28T19:08:13Z</time>
  <course>172.92</course>
  <speed>0.0</speed>
  <fix>3d</fix>
</trkpt>
<trkpt lat="40.0738749" lon="-105.2302748">
  <ele>1583.65</ele>
  <time>2026-08-28T19:08:13Z</time>
  <course>12.47</course>
  <speed>0.022360679774997897</speed>
  <fix>3d</fix>
</trkpt>
<trkpt lat="40.073875" lon="-105.2302749">
  <ele>1583.56</ele>
  <time>2026-08-28T19:08:13Z</time>
  <course>172.91</course>
  <speed>0.0</speed>
  <fix>3d</fix>
</trkpt>
<trkpt lat="40.0738749" lon="-105.2302748">
  <ele>1583.65</ele>
  <time>2026-08-28T19:08:13Z</time>
  <course>12.51</course>
  <speed>0.022360679774997897</speed>
  <fix>3d</fix>
</trkpt>
<trkpt lat="40.073875" lon="-105.2302749">
  <ele>1583.56</ele>
  <time>2026-08-28T19:08:13Z</time>
  <course>172.91</course>
  <speed>0.0</speed>
  <fix>3d</fix>
</trkpt>
<trkpt lat="40.0738749" lon="-105.2302748">
  <ele>1583.65</ele>
  <time>2026-08-28T19:08:13Z</time>
  <course>12.56</course>
  <speed>0.022360679774997897</speed>
  <fix>3d</fix>
</trkpt>
<trkpt lat="40.073875" lon="-105.2302749">
  <ele>1583.56</ele>
  <time>2026-08-28T19:08:13Z</time>
  <course>172.91</course>
  <speed>0.0</speed>
  <fix>3d</fix>
</trkpt>
<trkpt lat="40.0738749" lon="-105.2302748">
  <ele>1583.65</ele>
  <time>2026-08-28T19:08:13Z</time>
  <course>12.6</course>
  <speed>0.022360679774997897</speed>
  <fix>3d</fix>
</trkpt>
<trkpt lat="40.073875" lon="-105.2302749">
  <ele>1583.56</ele>
  <time>2026-08-28T19:08:13Z</time>
  <course>172.91</course>
  <speed>0.0</speed>
  <fix>3d</fix>
</trkpt>
<trkpt lat="40.0738749" lon="-105.2302748">
  <ele>1583.64</ele>
  <time>2026-08-28T19:08:13Z</time>
  <course>12.65</course>
  <speed>0.022360679774997897</speed>
  <fix>3d</fix>
</trkpt>
<trkpt lat="40.073875" lon="-105.2302749">
  <ele>1583.56</ele>
  <time>2026-08-28T19:08:13Z</time>
  <course>111.15</course>
  <speed>0.0</speed>
  <fix>3d</fix>
</trkpt>
<trkpt lat="40.0738749" lon="-105.2302748">
  <ele>1583.64</ele>
  <time>2026-08-28T19:08:13Z</time>
  <course>12.69</course>
  <speed>0.022360679774997897</speed>
  <fix>3d</fix>
</trkpt>
<trkpt lat="40.073875" lon="-105.2302749">
  <ele>1583.56</ele>
  <time>2026-08-28T19:08:13Z</time>
  <course>159.18</course>
  <speed>0.0</speed>
  <fix>3d</fix>
</trkpt>
<trkpt lat="40.0738749" lon="-105.2302748">
  <ele>1583.64</ele>
  <time>2026-08-28T19:08:13Z</time>
  <course>12.73</course>
  <speed>0.022360679774997897</speed>
  <fix>3d</fix>
</trkpt>
<trkpt lat="40.073875" lon="-105.2302749">
  <ele>1583.56</ele>
  <time>2026-08-28T19:08:13Z</time>
  <course>172.39</course>
  <speed>0.0</speed>
  <fix>3d</fix>
</trkpt>
<trkpt lat="40.0738749" lon="-105.2302748">
  <ele>1583.64</ele>
  <time>2026-08-28T19:08:13Z</time>
  <course>12.78</course>
  <speed>0.022360679774997897</speed>
  <fix>3d</fix>
</trkpt>
<trkpt lat="40.073875" lon="-105.2302749">
  <ele>1583.56</ele>
  <time>2026-08-28T19:08:13Z</time>
  <course>168.9</course>
  <speed>0.0</speed>
  <fix>3d</fix>
</trkpt>
<trkpt lat="40.0738749" lon="-105.2302748">
  <ele>1583.64</ele>
  <time>2026-08-28T19:08:13Z</time>
  <course>12.82</course>
  <speed>0.022360679774997897</speed>
  <fix>3d</fix>
</trkpt>
<trkpt lat="40.073875" lon="-105.2302749">
  <ele>1583.56</ele>
  <time>2026-08-28T19:08:13Z</time>
  <course>173.76</course>
  <speed>0.0</speed>
  <fix>3d</fix>
</trkpt>
<trkpt lat="40.0738749" lon="-105.2302748">
  <ele>1583.64</ele>
  <time>2026-08-28T19:08:13Z</time>
  <course>12.87</course>
  <speed>0.022360679774997897</speed>
  <fix>3d</fix>
</trkpt>
<trkpt lat="40.073875" lon="-105.2302749">
  <ele>1583.56</ele>
  <time>2026-08-28T19:08:13Z</time>
  <course>173.34</course>
  <speed>0.0</speed>
  <fix>3d</fix>
</trkpt>
<trkpt lat="40.0738749" lon="-105.2302748">
  <ele>1583.63</ele>
  <time>2026-08-28T19:08:13Z</time>
  <course>12.92</course>
  <speed>0.022360679774997897</speed>
  <fix>3d</fix>
</trkpt>
<trkpt lat="40.073875" lon="-105.2302749">
  <ele>1583.56</ele>
  <time>2026-08-28T19:08:13Z</time>
  <course>172.76</course>
  <speed>0.0</speed>
  <fix>3d</fix>
</trkpt>
<trkpt lat="40.0738749" lon="-105.2302748">
  <ele>1583.63</ele>
  <time>2026-08-28T19:08:13Z</time>
  <course>12.96</course>
  <speed>0.022360679774997897</speed>
  <fix>3d</fix>
</trkpt>
<trkpt lat="40.073875" lon="-105.2302749">
  <ele>1583.56</ele>
  <time>2026-08-28T19:08:13Z</time>
  <course>172.87</course>
  <speed>0.0</speed>
  <fix>3d</fix>
</trkpt>
<trkpt lat="40.0738749" lon="-105.2302748">
  <ele>1583.63</ele>
  <time>2026-08-28T19:08:13Z</time>
  <course>13.01</course>
  <speed>0.022360679774997897</speed>
  <fix>3d</fix>
</trkpt>
<trkpt lat="40.073875" lon="-105.2302749">
  <ele>1583.56</ele>
  <time>2026-08-28T19:08:13Z</time>
  <course>172.94</course>
  <speed>0.0</speed>
  <fix>3d</fix>
</trkpt>
<trkpt lat="40.0738749" lon="-105.2302748">
  <ele>1583.63</ele>
  <time>2026-08-28T19:08:13Z</time>
  <course>13.06</course>
  <speed>0.01414213562373095</speed>
  <fix>3d</fix>
</trkpt>
<trkpt lat="40.073875" lon="-105.2302749">
  <ele>1583.56</ele>
  <time>2026-08-28T19:08:13Z</time>
  <course>172.91</course>
  <speed>0.0</speed>
  <fix>3d</fix>
</trkpt>
<trkpt lat="40.0738749" lon="-105.2302748">
  <ele>1583.63</ele>
  <time>2026-08-28T19:08:13Z</time>
  <course>13.1</course>
  <speed>0.01414213562373095</speed>
  <fix>3d</fix>
</trkpt>
<trkpt lat="40.073875" lon="-105.2302749">
  <ele>1583.56</ele>
  <time>2026-08-28T19:08:13Z</time>
  <course>172.91</course>
  <speed>0.0</speed>
  <fix>3d</fix>
</trkpt>
<trkpt lat="40.0738749" lon="-105.2302748">
  <ele>1583.64</ele>
  <time>2026-08-28T19:08:13Z</time>
  <course>13.15</course>
  <speed>0.01</speed>
  <fix>3d</fix>
</trkpt>
<trkpt lat="40.073875" lon="-105.2302749">
  <ele>1583.56</ele>
  <time>2026-08-28T19:08:13Z</time>
  <course>172.91</course>
  <speed>0.0</speed>
  <fix>3d</fix>
</trkpt>
<trkpt lat="40.0738749" lon="-105.2302748">
  <ele>1583.64</ele>
  <time>2026-08-28T19:08:13Z</time>
  <course>13.2</course>
  <speed>0.01</speed>
  <fix>3d</fix>
</trkpt>
<trkpt lat="40.073875" lon="-105.2302749">
  <ele>1583.56</ele>
  <time>2026-08-28T19:08:13Z</time>
  <course>172.91</course>
  <speed>0.0</speed>
  <fix>3d</fix>
</trkpt>
<trkpt lat="40.0738749" lon="-105.2302748">
  <ele>1583.63</ele>
  <time>2026-08-28T19:08:14Z</time>
  <course>13.24</course>
  <speed>0.01</speed>
  <fix>3d</fix>
</trkpt>
<trkpt lat="40.073875" lon="-105.2302749">
  <ele>1583.56</ele>
  <time>2026-08-28T19:08:14Z</time>
  <course>172.91</course>
  <speed>0.0</speed>
  <fix>3d</fix>
</trkpt>
<trkpt lat="40.0738749" lon="-105.2302748">
  <ele>1583.63</ele>
  <time>2026-08-28T19:08:14Z</time>
  <course>13.29</course>
  <speed>0.01</speed>
  <fix>3d</fix>
</trkpt>
<trkpt lat="40.073875" lon="-105.2302749">
  <ele>1583.56</ele>
  <time>2026-08-28T19:08:14Z</time>
  <course>172.91</course>
  <speed>0.0</speed>
  <fix>3d</fix>
</trkpt>
<trkpt lat="40.0738749" lon="-105.2302748">
  <ele>1583.63</ele>
  <time>2026-08-28T19:08:14Z</time>
  <course>13.34</course>
  <speed>0.01</speed>
  <fix>3d</fix>
</trkpt>
<trkpt lat="40.073875" lon="-105.2302749">
  <ele>1583.56</ele>
  <time>2026-08-28T19:08:14Z</time>
  <course>172.91</course>
  <speed>0.0</speed>
  <fix>3d</fix>
</trkpt>
<trkpt lat="40.0738749" lon="-105.2302748">
  <ele>1583.63</ele>
  <time>2026-08-28T19:08:14Z</time>
  <course>13.39</course>
  <speed>0.01</speed>
  <fix>3d</fix>
</trkpt>
<trkpt lat="40.073875" lon="-105.2302749">
  <ele>1583.56</ele>
  <time>2026-08-28T19:08:14Z</time>
  <course>172.91</course>
  <speed>0.0</speed>
  <fix>3d</fix>
</trkpt>
<trkpt lat="40.0738749" lon="-105.2302748">
  <ele>1583.63</ele>
  <time>2026-08-28T19:08:14Z</time>
  <course>13.43</course>
  <speed>0.01</speed>
  <fix>3d</fix>
</trkpt>
<trkpt lat="40.073875" lon="-105.2302749">
  <ele>1583.56</ele>
  <time>2026-08-28T19:08:14Z</time>
  <course>172.91</course>
  <speed>0.0</speed>
  <fix>3d</fix>
</trkpt>
<trkpt lat="40.0738749" lon="-105.2302748">
  <ele>1583.63</ele>
  <time>2026-08-28T19:08:14Z</time>
  <course>13.48</course>
  <speed>0.01</speed>
  <fix>3d</fix>
</trkpt>
<trkpt lat="40.073875" lon="-105.2302749">
  <ele>1583.56</ele>
  <time>2026-08-28T19:08:14Z</time>
  <course>172.91</course>
  <speed>0.0</speed>
  <fix>3d</fix>
</trkpt>
<trkpt lat="40.0738749" lon="-105.2302748">
  <ele>1583.63</ele>
  <time>2026-08-28T19:08:14Z</time>
  <course>13.53</course>
  <speed>0.01</speed>
  <fix>3d</fix>
</trkpt>
<trkpt lat="40.073875" lon="-105.2302749">
  <ele>1583.56</ele>
  <time>2026-08-28T19:08:14Z</time>
  <course>172.91</course>
  <speed>0.0</speed>
  <fix>3d</fix>
</trkpt>
<trkpt lat="40.0738749" lon="-105.2302748">
  <ele>1583.63</ele>
  <time>2026-08-28T19:08:14Z</time>
  <course>13.58</course>
  <speed>0.01</speed>
  <fix>3d</fix>
</trkpt>
<trkpt lat="40.073875" lon="-105.2302749">
  <ele>1583.56</ele>
  <time>2026-08-28T19:08:14Z</time>
  <course>172.91</course>
  <speed>0.0</speed>
  <fix>3d</fix>
</trkpt>
<trkpt lat="40.0738749" lon="-105.2302748">
  <ele>1583.63</ele>
  <time>2026-08-28T19:08:14Z</time>
  <course>13.63</course>
  <speed>0.01</speed>
  <fix>3d</fix>
</trkpt>
<trkpt lat="40.073875" lon="-105.2302749">
  <ele>1583.56</ele>
  <time>2026-08-28T19:08:14Z</time>
  <course>172.91</course>
  <speed>0.0</speed>
  <fix>3d</fix>
</trkpt>
<trkpt lat="40.0738749" lon="-105.2302748">
  <ele>1583.63</ele>
  <time>2026-08-28T19:08:14Z</time>
  <course>13.68</course>
  <speed>0.01</speed>
  <fix>3d</fix>
</trkpt>
<trkpt lat="40.073875" lon="-105.2302749">
  <ele>1583.56</ele>
  <time>2026-08-28T19:08:14Z</time>
  <course>172.91</course>
  <speed>0.0</speed>
  <fix>3d</fix>
</trkpt>
<trkpt lat="40.0738749" lon="-105.2302748">
  <ele>1583.63</ele>
  <time>2026-08-28T19:08:14Z</time>
  <course>13.72</course>
  <speed>0.01</speed>
  <fix>3d</fix>
</trkpt>
<trkpt lat="40.073875" lon="-105.2302749">
  <ele>1583.56</ele>
  <time>2026-08-28T19:08:14Z</time>
  <course>172.91</course>
  <speed>0.0</speed>
  <fix>3d</fix>
</trkpt>
<trkpt lat="40.0738749" lon="-105.2302748">
  <ele>1583.64</ele>
  <time>2026-08-28T19:08:14Z</time>
  <course>13.77</course>
  <speed>0.01</speed>
  <fix>3d</fix>
</trkpt>
<trkpt lat="40.073875" lon="-105.2302749">
  <ele>1583.56</ele>
  <time>2026-08-28T19:08:14Z</time>
  <course>172.91</course>
  <speed>0.0</speed>
  <fix>3d</fix>
</trkpt>
<trkpt lat="40.0738749" lon="-105.2302748">
  <ele>1583.64</ele>
  <time>2026-08-28T19:08:14Z</time>
  <course>13.82</course>
  <speed>0.01</speed>
  <fix>3d</fix>
</trkpt>
<trkpt lat="40.073875" lon="-105.2302749">
  <ele>1583.56</ele>
  <time>2026-08-28T19:08:14Z</time>
  <course>286.32</course>
  <speed>0.0</speed>
  <fix>3d</fix>
</trkpt>
<trkpt lat="40.0738749" lon="-105.2302748">
  <ele>1583.64</ele>
  <time>2026-08-28T19:08:14Z</time>
  <course>13.87</course>
  <speed>0.01</speed>
  <fix>3d</fix>
</trkpt>
<trkpt lat="40.073875" lon="-105.2302749">
  <ele>1583.56</ele>
  <time>2026-08-28T19:08:14Z</time>
  <course>275.15</course>
  <speed>0.0</speed>
  <fix>3d</fix>
</trkpt>
<trkpt lat="40.0738749" lon="-105.2302748">
  <ele>1583.64</ele>
  <time>2026-08-28T19:08:14Z</time>
  <course>13.92</course>
  <speed>0.01</speed>
  <fix>3d</fix>
</trkpt>
<trkpt lat="40.073875" lon="-105.2302749">
  <ele>1583.56</ele>
  <time>2026-08-28T19:08:14Z</time>
  <course>200.17</course>
  <speed>0.0</speed>
  <fix>3d</fix>
</trkpt>
<trkpt lat="40.0738749" lon="-105.2302748">
  <ele>1583.64</ele>
  <time>2026-08-28T19:08:14Z</time>
  <course>13.97</course>
  <speed>0.01</speed>
  <fix>3d</fix>
</trkpt>
<trkpt lat="40.073875" lon="-105.2302749">
  <ele>1583.56</ele>
  <time>2026-08-28T19:08:14Z</time>
  <course>115.41</course>
  <speed>0.0</speed>
  <fix>3d</fix>
</trkpt>
<trkpt lat="40.0738749" lon="-105.2302748">
  <ele>1583.64</ele>
  <time>2026-08-28T19:08:14Z</time>
  <course>14.01</course>
  <speed>0.01414213562373095</speed>
  <fix>3d</fix>
</trkpt>
<trkpt lat="40.073875" lon="-105.2302749">
  <ele>1583.56</ele>
  <time>2026-08-28T19:08:14Z</time>
  <course>195.33</course>
  <speed>0.0</speed>
  <fix>3d</fix>
</trkpt>
<trkpt lat="40.0738749" lon="-105.2302748">
  <ele>1583.64</ele>
  <time>2026-08-28T19:08:14Z</time>
  <course>14.06</course>
  <speed>0.01414213562373095</speed>
  <fix>3d</fix>
</trkpt>
<trkpt lat="40.073875" lon="-105.2302749">
  <ele>1583.56</ele>
  <time>2026-08-28T19:08:14Z</time>
  <course>178.93</course>
  <speed>0.0</speed>
  <fix>3d</fix>
</trkpt>
<trkpt lat="40.0738749" lon="-105.2302748">
  <ele>1583.64</ele>
  <time>2026-08-28T19:08:14Z</time>
  <course>14.1</course>
  <speed>0.01414213562373095</speed>
  <fix>3d</fix>
</trkpt>
<trkpt lat="40.073875" lon="-105.2302749">
  <ele>1583.56</ele>
  <time>2026-08-28T19:08:14Z</time>
  <course>137.56</course>
  <speed>0.0</speed>
  <fix>3d</fix>
</trkpt>
<trkpt lat="40.0738749" lon="-105.2302748">
  <ele>1583.64</ele>
  <time>2026-08-28T19:08:14Z</time>
  <course>14.14</course>
  <speed>0.01414213562373095</speed>
  <fix>3d</fix>
</trkpt>
<trkpt lat="40.073875" lon="-105.2302749">
  <ele>1583.56</ele>
  <time>2026-08-28T19:08:14Z</time>
  <course>121.65</course>
  <speed>0.0</speed>
  <fix>3d</fix>
</trkpt>
<trkpt lat="40.0738749" lon="-105.2302748">
  <ele>1583.64</ele>
  <time>2026-08-28T19:08:14Z</time>
  <course>14.18</course>
  <speed>0.01414213562373095</speed>
  <fix>3d</fix>
</trkpt>
<trkpt lat="40.073875" lon="-105.2302749">
  <ele>1583.56</ele>
  <time>2026-08-28T19:08:14Z</time>
  <course>112.68</course>
  <speed>0.0</speed>
  <fix>3d</fix>
</trkpt>
<trkpt lat="40.0738749" lon="-105.2302748">
  <ele>1583.64</ele>
  <time>2026-08-28T19:08:14Z</time>
  <course>14.22</course>
  <speed>0.022360679774997897</speed>
  <fix>3d</fix>
</trkpt>
<trkpt lat="40.073875" lon="-105.2302749">
  <ele>1583.56</ele>
  <time>2026-08-28T19:08:14Z</time>
  <course>108.25</course>
  <speed>0.0</speed>
  <fix>3d</fix>
</trkpt>
<trkpt lat="40.0738749" lon="-105.2302748">
  <ele>1583.64</ele>
  <time>2026-08-28T19:08:14Z</time>
  <course>14.26</course>
  <speed>0.022360679774997897</speed>
  <fix>3d</fix>
</trkpt>
<trkpt lat="40.073875" lon="-105.2302749">
  <ele>1583.56</ele>
  <time>2026-08-28T19:08:14Z</time>
  <course>106.24</course>
  <speed>0.0</speed>
  <fix>3d</fix>
</trkpt>
<trkpt lat="40.0738749" lon="-105.2302748">
  <ele>1583.64</ele>
  <time>2026-08-28T19:08:14Z</time>
  <course>14.29</course>
  <speed>0.022360679774997897</speed>
  <fix>3d</fix>
</trkpt>
<trkpt lat="40.073875" lon="-105.2302749">
  <ele>1583.56</ele>
  <time>2026-08-28T19:08:14Z</time>
  <course>104.22</course>
  <speed>0.0</speed>
  <fix>3d</fix>
</trkpt>
<trkpt lat="40.0738749" lon="-105.2302748">
  <ele>1583.64</ele>
  <time>2026-08-28T19:08:14Z</time>
  <course>14.33</course>
  <speed>0.022360679774997897</speed>
  <fix>3d</fix>
</trkpt>
<trkpt lat="40.073875" lon="-105.2302749">
  <ele>1583.56</ele>
  <time>2026-08-28T19:08:14Z</time>
  <course>97.53</course>
  <speed>0.0</speed>
  <fix>3d</fix>
</trkpt>
<trkpt lat="40.0738749" lon="-105.2302748">
  <ele>1583.64</ele>
  <time>2026-08-28T19:08:14Z</time>
  <course>14.36</course>
  <speed>0.022360679774997897</speed>
  <fix>3d</fix>
</trkpt>
<trkpt lat="40.073875" lon="-105.2302749">
  <ele>1583.56</ele>
  <time>2026-08-28T19:08:14Z</time>
  <course>61.4</course>
  <speed>0.0</speed>
  <fix>3d</fix>
</trkpt>
<trkpt lat="40.0738749" lon="-105.2302748">
  <ele>1583.64</ele>
  <time>2026-08-28T19:08:14Z</time>
  <course>14.39</course>
  <speed>0.022360679774997897</speed>
  <fix>3d</fix>
</trkpt>
<trkpt lat="40.073875" lon="-105.2302749">
  <ele>1583.56</ele>
  <time>2026-08-28T19:08:14Z</time>
  <course>81.54</course>
  <speed>0.0</speed>
  <fix>3d</fix>
</trkpt>
<trkpt lat="40.0738749" lon="-105.2302748">
  <ele>1583.64</ele>
  <time>2026-08-28T19:08:14Z</time>
  <course>14.42</course>
  <speed>0.022360679774997897</speed>
  <fix>3d</fix>
</trkpt>
<trkpt lat="40.073875" lon="-105.2302749">
  <ele>1583.56</ele>
  <time>2026-08-28T19:08:14Z</time>
  <course>105.75</course>
  <speed>0.0</speed>
  <fix>3d</fix>
</trkpt>
<trkpt lat="40.0738749" lon="-105.2302748">
  <ele>1583.64</ele>
  <time>2026-08-28T19:08:14Z</time>
  <course>14.44</course>
  <speed>0.022360679774997897</speed>
  <fix>3d</fix>
</trkpt>
<trkpt lat="40.073875" lon="-105.2302749">
  <ele>1583.56</ele>
  <time>2026-08-28T19:08:14Z</time>
  <course>102.39</course>
  <speed>0.0</speed>
  <fix>3d</fix>
</trkpt>
<trkpt lat="40.0738749" lon="-105.2302748">
  <ele>1583.64</ele>
  <time>2026-08-28T19:08:14Z</time>
  <course>14.47</course>
  <speed>0.022360679774997897</speed>
  <fix>3d</fix>
</trkpt>
<trkpt lat="40.073875" lon="-105.2302749">
  <ele>1583.56</ele>
  <time>2026-08-28T19:08:14Z</time>
  <course>100.44</course>
  <speed>0.0</speed>
  <fix>3d</fix>
</trkpt>
<trkpt lat="40.0738749" lon="-105.2302748">
  <ele>1583.64</ele>
  <time>2026-08-28T19:08:14Z</time>
  <course>14.49</course>
  <speed>0.022360679774997897</speed>
  <fix>3d</fix>
</trkpt>
<trkpt lat="40.073875" lon="-105.2302749">
  <ele>1583.56</ele>
  <time>2026-08-28T19:08:14Z</time>
  <course>100.79</course>
  <speed>0.0</speed>
  <fix>3d</fix>
</trkpt>
<trkpt lat="40.0738749" lon="-105.2302748">
  <ele>1583.64</ele>
  <time>2026-08-28T19:08:14Z</time>
  <course>14.51</course>
  <speed>0.022360679774997897</speed>
  <fix>3d</fix>
</trkpt>
<trkpt lat="40.073875" lon="-105.2302749">
  <ele>1583.56</ele>
  <time>2026-08-28T19:08:14Z</time>
  <course>100.79</course>
  <speed>0.0</speed>
  <fix>3d</fix>
</trkpt>
<trkpt lat="40.0738749" lon="-105.2302748">
  <ele>1583.64</ele>
  <time>2026-08-28T19:08:14Z</time>
  <course>14.52</course>
  <speed>0.022360679774997897</speed>
  <fix>3d</fix>
</trkpt>
<trkpt lat="40.073875" lon="-105.2302749">
  <ele>1583.56</ele>
  <time>2026-08-28T19:08:14Z</time>
  <course>100.82</course>
  <speed>0.0</speed>
  <fix>3d</fix>
</trkpt>
<trkpt lat="40.0738749" lon="-105.2302748">
  <ele>1583.64</ele>
  <time>2026-08-28T19:08:14Z</time>
  <course>14.54</course>
  <speed>0.022360679774997897</speed>
  <fix>3d</fix>
</trkpt>
<trkpt lat="40.073875" lon="-105.2302749">
  <ele>1583.56</ele>
  <time>2026-08-28T19:08:14Z</time>
  <course>100.76</course>
  <speed>0.0</speed>
  <fix>3d</fix>
</trkpt>
<trkpt lat="40.0738749" lon="-105.2302748">
  <ele>1583.64</ele>
  <time>2026-08-28T19:08:14Z</time>
  <course>14.55</course>
  <speed>0.022360679774997897</speed>
  <fix>3d</fix>
</trkpt>
<trkpt lat="40.073875" lon="-105.2302749">
  <ele>1583.56</ele>
  <time>2026-08-28T19:08:14Z</time>
  <course>100.66</course>
  <speed>0.0</speed>
  <fix>3d</fix>
</trkpt>
<trkpt lat="40.0738749" lon="-105.2302748">
  <ele>1583.64</ele>
  <time>2026-08-28T19:08:14Z</time>
  <course>14.56</course>
  <speed>0.022360679774997897</speed>
  <fix>3d</fix>
</trkpt>
<trkpt lat="40.073875" lon="-105.2302749">
  <ele>1583.56</ele>
  <time>2026-08-28T19:08:14Z</time>
  <course>100.58</course>
  <speed>0.0</speed>
  <fix>3d</fix>
</trkpt>
<trkpt lat="40.0738749" lon="-105.2302748">
  <ele>1583.64</ele>
  <time>2026-08-28T19:08:14Z</time>
  <course>14.57</course>
  <speed>0.022360679774997897</speed>
  <fix>3d</fix>
</trkpt>
<trkpt lat="40.073875" lon="-105.2302749">
  <ele>1583.56</ele>
  <time>2026-08-28T19:08:14Z</time>
  <course>100.48</course>
  <speed>0.0</speed>
  <fix>3d</fix>
</trkpt>
<trkpt lat="40.0738749" lon="-105.2302748">
  <ele>1583.64</ele>
  <time>2026-08-28T19:08:14Z</time>
  <course>14.57</course>
  <speed>0.022360679774997897</speed>
  <fix>3d</fix>
</trkpt>
<trkpt lat="40.073875" lon="-105.2302749">
  <ele>1583.56</ele>
  <time>2026-08-28T19:08:14Z</time>
  <course>100.39</course>
  <speed>0.0</speed>
  <fix>3d</fix>
</trkpt>
<trkpt lat="40.0738749" lon="-105.2302748">
  <ele>1583.64</ele>
  <time>2026-08-28T19:08:14Z</time>
  <course>14.58</course>
  <speed>0.022360679774997897</speed>
  <fix>3d</fix>
</trkpt>
<trkpt lat="40.073875" lon="-105.2302749">
  <ele>1583.56</ele>
  <time>2026-08-28T19:08:14Z</time>
  <course>100.1</course>
  <speed>0.0</speed>
  <fix>3d</fix>
</trkpt>
<trkpt lat="40.0738749" lon="-105.2302748">
  <ele>1583.64</ele>
  <time>2026-08-28T19:08:14Z</time>
  <course>14.58</course>
  <speed>0.022360679774997897</speed>
  <fix>3d</fix>
</trkpt>
<trkpt lat="40.073875" lon="-105.2302749">
  <ele>1583.56</ele>
  <time>2026-08-28T19:08:14Z</time>
  <course>99.95</course>
  <speed>0.0</speed>
  <fix>3d</fix>
</trkpt>
<trkpt lat="40.0738749" lon="-105.2302748">
  <ele>1583.64</ele>
  <time>2026-08-28T19:08:14Z</time>
  <course>14.58</course>
  <speed>0.022360679774997897</speed>
  <fix>3d</fix>
</trkpt>
<trkpt lat="40.073875" lon="-105.2302749">
  <ele>1583.56</ele>
  <time>2026-08-28T19:08:14Z</time>
  <course>99.97</course>
  <speed>0.0</speed>
  <fix>3d</fix>
</trkpt>
<trkpt lat="40.0738749" lon="-105.2302748">
  <ele>1583.64</ele>
  <time>2026-08-28T19:08:14Z</time>
  <course>14.58</course>
  <speed>0.022360679774997897</speed>
  <fix>3d</fix>
</trkpt>
<trkpt lat="40.073875" lon="-105.2302749">
  <ele>1583.56</ele>
  <time>2026-08-28T19:08:14Z</time>
  <course>100.47</course>
  <speed>0.0</speed>
  <fix>3d</fix>
</trkpt>
<trkpt lat="40.0738749" lon="-105.2302748">
  <ele>1583.63</ele>
  <time>2026-08-28T19:08:14Z</time>
  <course>14.57</course>
  <speed>0.022360679774997897</speed>
  <fix>3d</fix>
</trkpt>
<trkpt lat="40.073875" lon="-105.2302749">
  <ele>1583.56</ele>
  <time>2026-08-28T19:08:14Z</time>
  <course>123.58</course>
  <speed>0.0</speed>
  <fix>3d</fix>
</trkpt>
<trkpt lat="40.0738749" lon="-105.2302748">
  <ele>1583.63</ele>
  <time>2026-08-28T19:08:14Z</time>
  <course>14.57</course>
  <speed>0.022360679774997897</speed>
  <fix>3d</fix>
</trkpt>
<trkpt lat="40.073875" lon="-105.2302749">
  <ele>1583.56</ele>
  <time>2026-08-28T19:08:14Z</time>
  <course>115.42</course>
  <speed>0.0</speed>
  <fix>3d</fix>
</trkpt>
<trkpt lat="40.0738749" lon="-105.2302748">
  <ele>1583.63</ele>
  <time>2026-08-28T19:08:14Z</time>
  <course>14.56</course>
  <speed>0.022360679774997897</speed>
  <fix>3d</fix>
</trkpt>
<trkpt lat="40.073875" lon="-105.2302749">
  <ele>1583.56</ele>
  <time>2026-08-28T19:08:14Z</time>
  <course>102.61</course>
  <speed>0.0</speed>
  <fix>3d</fix>
</trkpt>
<trkpt lat="40.0738749" lon="-105.2302748">
  <ele>1583.63</ele>
  <time>2026-08-28T19:08:14Z</time>
  <course>14.55</course>
  <speed>0.022360679774997897</speed>
  <fix>3d</fix>
</trkpt>
<trkpt lat="40.073875" lon="-105.2302749">
  <ele>1583.56</ele>
  <time>2026-08-28T19:08:14Z</time>
  <course>96.14</course>
  <speed>0.0</speed>
  <fix>3d</fix>
</trkpt>
<trkpt lat="40.0738749" lon="-105.2302748">
  <ele>1583.63</ele>
  <time>2026-08-28T19:08:14Z</time>
  <course>14.54</course>
  <speed>0.022360679774997897</speed>
  <fix>3d</fix>
</trkpt>
<trkpt lat="40.073875" lon="-105.2302749">
  <ele>1583.56</ele>
  <time>2026-08-28T19:08:14Z</time>
  <course>99.83</course>
  <speed>0.0</speed>
  <fix>3d</fix>
</trkpt>
<trkpt lat="40.0738749" lon="-105.2302748">
  <ele>1583.63</ele>
  <time>2026-08-28T19:08:14Z</time>
  <course>14.52</course>
  <speed>0.022360679774997897</speed>
  <fix>3d</fix>
</trkpt>
<trkpt lat="40.073875" lon="-105.2302749">
  <ele>1583.56</ele>
  <time>2026-08-28T19:08:14Z</time>
  <course>100.09</course>
  <speed>0.0</speed>
  <fix>3d</fix>
</trkpt>
<trkpt lat="40.0738749" lon="-105.2302748">
  <ele>1583.63</ele>
  <time>2026-08-28T19:08:14Z</time>
  <course>14.5</course>
  <speed>0.022360679774997897</speed>
  <fix>3d</fix>
</trkpt>
<trkpt lat="40.073875" lon="-105.2302749">
  <ele>1583.56</ele>
  <time>2026-08-28T19:08:14Z</time>
  <course>99.41</course>
  <speed>0.0</speed>
  <fix>3d</fix>
</trkpt>
<trkpt lat="40.0738749" lon="-105.2302748">
  <ele>1583.63</ele>
  <time>2026-08-28T19:08:14Z</time>
  <course>14.49</course>
  <speed>0.022360679774997897</speed>
  <fix>3d</fix>
</trkpt>
<trkpt lat="40.073875" lon="-105.2302749">
  <ele>1583.56</ele>
  <time>2026-08-28T19:08:14Z</time>
  <course>99.26</course>
  <speed>0.0</speed>
  <fix>3d</fix>
</trkpt>
<trkpt lat="40.0738749" lon="-105.2302748">
  <ele>1583.62</ele>
  <time>2026-08-28T19:08:14Z</time>
  <course>14.47</course>
  <speed>0.022360679774997897</speed>
  <fix>3d</fix>
</trkpt>
<trkpt lat="40.073875" lon="-105.2302749">
  <ele>1583.56</ele>
  <time>2026-08-28T19:08:14Z</time>
  <course>99.77</course>
  <speed>0.0</speed>
  <fix>3d</fix>
</trkpt>
<trkpt lat="40.0738749" lon="-105.2302748">
  <ele>1583.62</ele>
  <time>2026-08-28T19:08:14Z</time>
  <course>14.44</course>
  <speed>0.022360679774997897</speed>
  <fix>3d</fix>
</trkpt>
<trkpt lat="40.073875" lon="-105.2302749">
  <ele>1583.56</ele>
  <time>2026-08-28T19:08:14Z</time>
  <course>99.44</course>
  <speed>0.0</speed>
  <fix>3d</fix>
</trkpt>
<trkpt lat="40.0738749" lon="-105.2302748">
  <ele>1583.62</ele>
  <time>2026-08-28T19:08:14Z</time>
  <course>14.42</course>
  <speed>0.022360679774997897</speed>
  <fix>3d</fix>
</trkpt>
<trkpt lat="40.073875" lon="-105.2302749">
  <ele>1583.56</ele>
  <time>2026-08-28T19:08:14Z</time>
  <course>98.98</course>
  <speed>0.0</speed>
  <fix>3d</fix>
</trkpt>
<trkpt lat="40.0738749" lon="-105.2302748">
  <ele>1583.62</ele>
  <time>2026-08-28T19:08:14Z</time>
  <course>14.39</course>
  <speed>0.022360679774997897</speed>
  <fix>3d</fix>
</trkpt>
<trkpt lat="40.073875" lon="-105.2302749">
  <ele>1583.56</ele>
  <time>2026-08-28T19:08:14Z</time>
  <course>98.82</course>
  <speed>0.0</speed>
  <fix>3d</fix>
</trkpt>
<trkpt lat="40.0738749" lon="-105.2302748">
  <ele>1583.62</ele>
  <time>2026-08-28T19:08:14Z</time>
  <course>14.37</course>
  <speed>0.022360679774997897</speed>
  <fix>3d</fix>
</trkpt>
<trkpt lat="40.073875" lon="-105.2302749">
  <ele>1583.56</ele>
  <time>2026-08-28T19:08:14Z</time>
  <course>98.93</course>
  <speed>0.0</speed>
  <fix>3d</fix>
</trkpt>
<trkpt lat="40.0738749" lon="-105.2302748">
  <ele>1583.62</ele>
  <time>2026-08-28T19:08:14Z</time>
  <course>14.34</course>
  <speed>0.022360679774997897</speed>
  <fix>3d</fix>
</trkpt>
<trkpt lat="40.073875" lon="-105.2302749">
  <ele>1583.56</ele>
  <time>2026-08-28T19:08:14Z</time>
  <course>278.83</course>
  <speed>0.0</speed>
  <fix>3d</fix>
</trkpt>
<trkpt lat="40.0738749" lon="-105.2302748">
  <ele>1583.62</ele>
  <time>2026-08-28T19:08:14Z</time>
  <course>14.31</course>
  <speed>0.022360679774997897</speed>
  <fix>3d</fix>
</trkpt>
<trkpt lat="40.073875" lon="-105.2302749">
  <ele>1583.56</ele>
  <time>2026-08-28T19:08:14Z</time>
  <course>98.61</course>
  <speed>0.0</speed>
  <fix>3d</fix>
</trkpt>
<trkpt lat="40.0738749" lon="-105.2302748">
  <ele>1583.62</ele>
  <time>2026-08-28T19:08:14Z</time>
  <course>14.29</course>
  <speed>0.022360679774997897</speed>
  <fix>3d</fix>
</trkpt>
<trkpt lat="40.073875" lon="-105.2302749">
  <ele>1583.56</ele>
  <time>2026-08-28T19:08:14Z</time>
  <course>98.51</course>
  <speed>0.0</speed>
  <fix>3d</fix>
</trkpt>
<trkpt lat="40.0738749" lon="-105.2302748">
  <ele>1583.61</ele>
  <time>2026-08-28T19:08:14Z</time>
  <course>14.26</course>
  <speed>0.022360679774997897</speed>
  <fix>3d</fix>
</trkpt>
<trkpt lat="40.073875" lon="-105.2302749">
  <ele>1583.56</ele>
  <time>2026-08-28T19:08:14Z</time>
  <course>278.2</course>
  <speed>0.0</speed>
  <fix>3d</fix>
</trkpt>
<trkpt lat="40.0738749" lon="-105.2302748">
  <ele>1583.61</ele>
  <time>2026-08-28T19:08:14Z</time>
  <course>14.23</course>
  <speed>0.022360679774997897</speed>
  <fix>3d</fix>
</trkpt>
<trkpt lat="40.073875" lon="-105.2302749">
  <ele>1583.56</ele>
  <time>2026-08-28T19:08:14Z</time>
  <course>277.98</course>
  <speed>0.0</speed>
  <fix>3d</fix>
</trkpt>
<trkpt lat="40.0738749" lon="-105.2302748">
  <ele>1583.61</ele>
  <time>2026-08-28T19:08:14Z</time>
  <course>14.2</course>
  <speed>0.022360679774997897</speed>
  <fix>3d</fix>
</trkpt>
<trkpt lat="40.073875" lon="-105.2302749">
  <ele>1583.56</ele>
  <time>2026-08-28T19:08:14Z</time>
  <course>98.58</course>
  <speed>0.0</speed>
  <fix>3d</fix>
</trkpt>
<trkpt lat="40.0738749" lon="-105.2302748">
  <ele>1583.6</ele>
  <time>2026-08-28T19:08:14Z</time>
  <course>14.18</course>
  <speed>0.022360679774997897</speed>
  <fix>3d</fix>
</trkpt>
<trkpt lat="40.073875" lon="-105.2302749">
  <ele>1583.56</ele>
  <time>2026-08-28T19:08:14Z</time>
  <course>277.49</course>
  <speed>0.0</speed>
  <fix>3d</fix>
</trkpt>
<trkpt lat="40.0738749" lon="-105.2302748">
  <ele>1583.6</ele>
  <time>2026-08-28T19:08:14Z</time>
  <course>14.15</course>
  <speed>0.022360679774997897</speed>
  <fix>3d</fix>
</trkpt>
<trkpt lat="40.073875" lon="-105.2302749">
  <ele>1583.56</ele>
  <time>2026-08-28T19:08:14Z</time>
  <course>277.82</course>
  <speed>0.0</speed>
  <fix>3d</fix>
</trkpt>
<trkpt lat="40.0738749" lon="-105.2302748">
  <ele>1583.6</ele>
  <time>2026-08-28T19:08:14Z</time>
  <course>14.13</course>
  <speed>0.022360679774997897</speed>
  <fix>3d</fix>
</trkpt>
<trkpt lat="40.073875" lon="-105.2302749">
  <ele>1583.56</ele>
  <time>2026-08-28T19:08:14Z</time>
  <course>102.18</course>
  <speed>0.0</speed>
  <fix>3d</fix>
</trkpt>
<trkpt lat="40.0738749" lon="-105.2302748">
  <ele>1583.61</ele>
  <time>2026-08-28T19:08:14Z</time>
  <course>14.1</course>
  <speed>0.022360679774997897</speed>
  <fix>3d</fix>
</trkpt>
<trkpt lat="40.073875" lon="-105.2302749">
  <ele>1583.56</ele>
  <time>2026-08-28T19:08:14Z</time>
  <course>98.58</course>
  <speed>0.0</speed>
  <fix>3d</fix>
</trkpt>
<trkpt lat="40.0738749" lon="-105.2302748">
  <ele>1583.61</ele>
  <time>2026-08-28T19:08:14Z</time>
  <course>14.08</course>
  <speed>0.022360679774997897</speed>
  <fix>3d</fix>
</trkpt>
<trkpt lat="40.073875" lon="-105.2302749">
  <ele>1583.56</ele>
  <time>2026-08-28T19:08:14Z</time>
  <course>277.26</course>
  <speed>0.0</speed>
  <fix>3d</fix>
</trkpt>
<trkpt lat="40.0738749" lon="-105.2302748">
  <ele>1583.61</ele>
  <time>2026-08-28T19:08:14Z</time>
  <course>14.05</course>
  <speed>0.022360679774997897</speed>
  <fix>3d</fix>
</trkpt>
<trkpt lat="40.073875" lon="-105.2302749">
  <ele>1583.56</ele>
  <time>2026-08-28T19:08:14Z</time>
  <course>277.35</course>
  <speed>0.0</speed>
  <fix>3d</fix>
</trkpt>
<trkpt lat="40.0738749" lon="-105.2302748">
  <ele>1583.61</ele>
  <time>2026-08-28T19:08:14Z</time>
  <course>14.03</course>
  <speed>0.022360679774997897</speed>
  <fix>3d</fix>
</trkpt>
<trkpt lat="40.073875" lon="-105.2302749">
  <ele>1583.56</ele>
  <time>2026-08-28T19:08:14Z</time>
  <course>99.67</course>
  <speed>0.0</speed>
  <fix>3d</fix>
</trkpt>
<trkpt lat="40.0738749" lon="-105.2302748">
  <ele>1583.61</ele>
  <time>2026-08-28T19:08:14Z</time>
  <course>14.0</course>
  <speed>0.022360679774997897</speed>
  <fix>3d</fix>
</trkpt>
<trkpt lat="40.073875" lon="-105.2302749">
  <ele>1583.56</ele>
  <time>2026-08-28T19:08:14Z</time>
  <course>98.7</course>
  <speed>0.0</speed>
  <fix>3d</fix>
</trkpt>
<trkpt lat="40.0738749" lon="-105.2302748">
  <ele>1583.62</ele>
  <time>2026-08-28T19:08:14Z</time>
  <course>13.98</course>
  <speed>0.022360679774997897</speed>
  <fix>3d</fix>
</trkpt>
<trkpt lat="40.073875" lon="-105.2302749">
  <ele>1583.56</ele>
  <time>2026-08-28T19:08:14Z</time>
  <course>276.81</course>
  <speed>0.0</speed>
  <fix>3d</fix>
</trkpt>
<trkpt lat="40.0738749" lon="-105.2302748">
  <ele>1583.62</ele>
  <time>2026-08-28T19:08:14Z</time>
  <course>13.95</course>
  <speed>0.022360679774997897</speed>
  <fix>3d</fix>
</trkpt>
<trkpt lat="40.073875" lon="-105.2302749">
  <ele>1583.56</ele>
  <time>2026-08-28T19:08:14Z</time>
  <course>276.91</course>
  <speed>0.0</speed>
  <fix>3d</fix>
</trkpt>
<trkpt lat="40.0738749" lon="-105.2302748">
  <ele>1583.62</ele>
  <time>2026-08-28T19:08:14Z</time>
  <course>13.93</course>
  <speed>0.022360679774997897</speed>
  <fix>3d</fix>
</trkpt>
<trkpt lat="40.073875" lon="-105.2302749">
  <ele>1583.56</ele>
  <time>2026-08-28T19:08:14Z</time>
  <course>112.31</course>
  <speed>0.0</speed>
  <fix>3d</fix>
</trkpt>
<trkpt lat="40.0738749" lon="-105.2302748">
  <ele>1583.62</ele>
  <time>2026-08-28T19:08:14Z</time>
  <course>13.9</course>
  <speed>0.022360679774997897</speed>
  <fix>3d</fix>
</trkpt>
<trkpt lat="40.073875" lon="-105.2302749">
  <ele>1583.56</ele>
  <time>2026-08-28T19:08:14Z</time>
  <course>98.07</course>
  <speed>0.0</speed>
  <fix>3d</fix>
</trkpt>
<trkpt lat="40.0738749" lon="-105.2302748">
  <ele>1583.63</ele>
  <time>2026-08-28T19:08:14Z</time>
  <course>13.88</course>
  <speed>0.022360679774997897</speed>
  <fix>3d</fix>
</trkpt>
<trkpt lat="40.073875" lon="-105.2302749">
  <ele>1583.56</ele>
  <time>2026-08-28T19:08:14Z</time>
  <course>85.6</course>
  <speed>0.0</speed>
  <fix>3d</fix>
</trkpt>
<trkpt lat="40.0738749" lon="-105.2302748">
  <ele>1583.63</ele>
  <time>2026-08-28T19:08:14Z</time>
  <course>13.86</course>
  <speed>0.022360679774997897</speed>
  <fix>3d</fix>
</trkpt>
<trkpt lat="40.073875" lon="-105.2302749">
  <ele>1583.56</ele>
  <time>2026-08-28T19:08:14Z</time>
  <course>276.89</course>
  <speed>0.0</speed>
  <fix>3d</fix>
</trkpt>
<trkpt lat="40.0738749" lon="-105.2302748">
  <ele>1583.63</ele>
  <time>2026-08-28T19:08:14Z</time>
  <course>13.83</course>
  <speed>0.022360679774997897</speed>
  <fix>3d</fix>
</trkpt>
<trkpt lat="40.073875" lon="-105.2302749">
  <ele>1583.56</ele>
  <time>2026-08-28T19:08:14Z</time>
  <course>275.06</course>
  <speed>0.0</speed>
  <fix>3d</fix>
</trkpt>
<trkpt lat="40.0738749" lon="-105.2302748">
  <ele>1583.62</ele>
  <time>2026-08-28T19:08:14Z</time>
  <course>13.81</course>
  <speed>0.022360679774997897</speed>
  <fix>3d</fix>
</trkpt>
<trkpt lat="40.073875" lon="-105.2302749">
  <ele>1583.56</ele>
  <time>2026-08-28T19:08:14Z</time>
  <course>98.83</course>
  <speed>0.0</speed>
  <fix>3d</fix>
</trkpt>
<trkpt lat="40.0738749" lon="-105.2302748">
  <ele>1583.63</ele>
  <time>2026-08-28T19:08:14Z</time>
  <course>13.79</course>
  <speed>0.022360679774997897</speed>
  <fix>3d</fix>
</trkpt>
<trkpt lat="40.073875" lon="-105.2302749">
  <ele>1583.56</ele>
  <time>2026-08-28T19:08:14Z</time>
  <course>98.84</course>
  <speed>0.0</speed>
  <fix>3d</fix>
</trkpt>
<trkpt lat="40.0738749" lon="-105.2302748">
  <ele>1583.63</ele>
  <time>2026-08-28T19:08:14Z</time>
  <course>13.76</course>
  <speed>0.022360679774997897</speed>
  <fix>3d</fix>
</trkpt>
<trkpt lat="40.073875" lon="-105.2302749">
  <ele>1583.56</ele>
  <time>2026-08-28T19:08:14Z</time>
  <course>275.95</course>
  <speed>0.0</speed>
  <fix>3d</fix>
</trkpt>
<trkpt lat="40.0738749" lon="-105.2302748">
  <ele>1583.63</ele>
  <time>2026-08-28T19:08:14Z</time>
  <course>13.74</course>
  <speed>0.022360679774997897</speed>
  <fix>3d</fix>
</trkpt>
<trkpt lat="40.073875" lon="-105.2302749">
  <ele>1583.56</ele>
  <time>2026-08-28T19:08:14Z</time>
  <course>276.0</course>
  <speed>0.0</speed>
  <fix>3d</fix>
</trkpt>
<trkpt lat="40.0738749" lon="-105.2302748">
  <ele>1583.63</ele>
  <time>2026-08-28T19:08:14Z</time>
  <course>13.72</course>
  <speed>0.022360679774997897</speed>
  <fix>3d</fix>
</trkpt>
<trkpt lat="40.073875" lon="-105.2302749">
  <ele>1583.56</ele>
  <time>2026-08-28T19:08:14Z</time>
  <course>100.75</course>
  <speed>0.0</speed>
  <fix>3d</fix>
</trkpt>
<trkpt lat="40.0738749" lon="-105.2302748">
  <ele>1583.63</ele>
  <time>2026-08-28T19:08:14Z</time>
  <course>13.7</course>
  <speed>0.022360679774997897</speed>
  <fix>3d</fix>
</trkpt>
<trkpt lat="40.073875" lon="-105.2302749">
  <ele>1583.56</ele>
  <time>2026-08-28T19:08:14Z</time>
  <course>99.13</course>
  <speed>0.0</speed>
  <fix>3d</fix>
</trkpt>
<trkpt lat="40.0738749" lon="-105.2302748">
  <ele>1583.63</ele>
  <time>2026-08-28T19:08:14Z</time>
  <course>13.67</course>
  <speed>0.022360679774997897</speed>
  <fix>3d</fix>
</trkpt>
<trkpt lat="40.073875" lon="-105.2302749">
  <ele>1583.56</ele>
  <time>2026-08-28T19:08:14Z</time>
  <course>275.27</course>
  <speed>0.0</speed>
  <fix>3d</fix>
</trkpt>
<trkpt lat="40.0738749" lon="-105.2302748">
  <ele>1583.63</ele>
  <time>2026-08-28T19:08:14Z</time>
  <course>13.65</course>
  <speed>0.022360679774997897</speed>
  <fix>3d</fix>
</trkpt>
<trkpt lat="40.073875" lon="-105.2302749">
  <ele>1583.56</ele>
  <time>2026-08-28T19:08:14Z</time>
  <course>275.7</course>
  <speed>0.0</speed>
  <fix>3d</fix>
</trkpt>
<trkpt lat="40.0738749" lon="-105.2302748">
  <ele>1583.63</ele>
  <time>2026-08-28T19:08:14Z</time>
  <course>13.63</course>
  <speed>0.022360679774997897</speed>
  <fix>3d</fix>
</trkpt>
<trkpt lat="40.073875" lon="-105.2302749">
  <ele>1583.56</ele>
  <time>2026-08-28T19:08:14Z</time>
  <course>263.78</course>
  <speed>0.0</speed>
  <fix>3d</fix>
</trkpt>
<trkpt lat="40.0738749" lon="-105.2302748">
  <ele>1583.64</ele>
  <time>2026-08-28T19:08:14Z</time>
  <course>13.61</course>
  <speed>0.022360679774997897</speed>
  <fix>3d</fix>
</trkpt>
<trkpt lat="40.073875" lon="-105.2302749">
  <ele>1583.56</ele>
  <time>2026-08-28T19:08:14Z</time>
  <course>99.17</course>
  <speed>0.0</speed>
  <fix>3d</fix>
</trkpt>
<trkpt lat="40.0738749" lon="-105.2302748">
  <ele>1583.64</ele>
  <time>2026-08-28T19:08:14Z</time>
  <course>13.58</course>
  <speed>0.022360679774997897</speed>
  <fix>3d</fix>
</trkpt>
<trkpt lat="40.073875" lon="-105.2302749">
  <ele>1583.56</ele>
  <time>2026-08-28T19:08:14Z</time>
  <course>101.9</course>
  <speed>0.0</speed>
  <fix>3d</fix>
</trkpt>
<trkpt lat="40.0738749" lon="-105.2302748">
  <ele>1583.64</ele>
  <time>2026-08-28T19:08:14Z</time>
  <course>13.56</course>
  <speed>0.022360679774997897</speed>
  <fix>3d</fix>
</trkpt>
<trkpt lat="40.073875" lon="-105.2302749">
  <ele>1583.56</ele>
  <time>2026-08-28T19:08:14Z</time>
  <course>274.72</course>
  <speed>0.0</speed>
  <fix>3d</fix>
</trkpt>
<trkpt lat="40.0738749" lon="-105.2302748">
  <ele>1583.64</ele>
  <time>2026-08-28T19:08:14Z</time>
  <course>13.54</course>
  <speed>0.022360679774997897</speed>
  <fix>3d</fix>
</trkpt>
<trkpt lat="40.073875" lon="-105.2302749">
  <ele>1583.56</ele>
  <time>2026-08-28T19:08:14Z</time>
  <course>274.35</course>
  <speed>0.0</speed>
  <fix>3d</fix>
</trkpt>
<trkpt lat="40.0738749" lon="-105.2302748">
  <ele>1583.64</ele>
  <time>2026-08-28T19:08:14Z</time>
  <course>13.52</course>
  <speed>0.022360679774997897</speed>
  <fix>3d</fix>
</trkpt>
<trkpt lat="40.073875" lon="-105.2302749">
  <ele>1583.56</ele>
  <time>2026-08-28T19:08:14Z</time>
  <course>99.78</course>
  <speed>0.0</speed>
  <fix>3d</fix>
</trkpt>
<trkpt lat="40.0738749" lon="-105.2302748">
  <ele>1583.64</ele>
  <time>2026-08-28T19:08:14Z</time>
  <course>13.5</course>
  <speed>0.022360679774997897</speed>
  <fix>3d</fix>
</trkpt>
<trkpt lat="40.073875" lon="-105.2302749">
  <ele>1583.56</ele>
  <time>2026-08-28T19:08:14Z</time>
  <course>101.39</course>
  <speed>0.0</speed>
  <fix>3d</fix>
</trkpt>
<trkpt lat="40.0738749" lon="-105.2302748">
  <ele>1583.64</ele>
  <time>2026-08-28T19:08:14Z</time>
  <course>13.48</course>
  <speed>0.022360679774997897</speed>
  <fix>3d</fix>
</trkpt>
<trkpt lat="40.073875" lon="-105.2302749">
  <ele>1583.56</ele>
  <time>2026-08-28T19:08:14Z</time>
  <course>271.78</course>
  <speed>0.0</speed>
  <fix>3d</fix>
</trkpt>
<trkpt lat="40.0738749" lon="-105.2302748">
  <ele>1583.64</ele>
  <time>2026-08-28T19:08:14Z</time>
  <course>13.45</course>
  <speed>0.022360679774997897</speed>
  <fix>3d</fix>
</trkpt>
<trkpt lat="40.073875" lon="-105.2302749">
  <ele>1583.56</ele>
  <time>2026-08-28T19:08:14Z</time>
  <course>274.59</course>
  <speed>0.0</speed>
  <fix>3d</fix>
</trkpt>
<trkpt lat="40.0738749" lon="-105.2302748">
  <ele>1583.64</ele>
  <time>2026-08-28T19:08:14Z</time>
  <course>13.43</course>
  <speed>0.022360679774997897</speed>
  <fix>3d</fix>
</trkpt>
<trkpt lat="40.073875" lon="-105.2302749">
  <ele>1583.56</ele>
  <time>2026-08-28T19:08:14Z</time>
  <course>272.88</course>
  <speed>0.0</speed>
  <fix>3d</fix>
</trkpt>
<trkpt lat="40.0738749" lon="-105.2302748">
  <ele>1583.64</ele>
  <time>2026-08-28T19:08:14Z</time>
  <course>13.41</course>
  <speed>0.022360679774997897</speed>
  <fix>3d</fix>
</trkpt>
<trkpt lat="40.073875" lon="-105.2302749">
  <ele>1583.56</ele>
  <time>2026-08-28T19:08:14Z</time>
  <course>100.03</course>
  <speed>0.0</speed>
  <fix>3d</fix>
</trkpt>
<trkpt lat="40.0738749" lon="-105.2302748">
  <ele>1583.64</ele>
  <time>2026-08-28T19:08:14Z</time>
  <course>13.39</course>
  <speed>0.022360679774997897</speed>
  <fix>3d</fix>
</trkpt>
<trkpt lat="40.073875" lon="-105.2302749">
  <ele>1583.56</ele>
  <time>2026-08-28T19:08:14Z</time>
  <course>104.05</course>
  <speed>0.0</speed>
  <fix>3d</fix>
</trkpt>
<trkpt lat="40.0738749" lon="-105.2302748">
  <ele>1583.65</ele>
  <time>2026-08-28T19:08:14Z</time>
  <course>13.37</course>
  <speed>0.022360679774997897</speed>
  <fix>3d</fix>
</trkpt>
<trkpt lat="40.073875" lon="-105.2302749">
  <ele>1583.56</ele>
  <time>2026-08-28T19:08:14Z</time>
  <course>274.18</course>
  <speed>0.0</speed>
  <fix>3d</fix>
</trkpt>
<trkpt lat="40.0738749" lon="-105.2302748">
  <ele>1583.65</ele>
  <time>2026-08-28T19:08:14Z</time>
  <course>13.35</course>
  <speed>0.022360679774997897</speed>
  <fix>3d</fix>
</trkpt>
<trkpt lat="40.073875" lon="-105.2302749">
  <ele>1583.56</ele>
  <time>2026-08-28T19:08:14Z</time>
  <course>274.42</course>
  <speed>0.0</speed>
  <fix>3d</fix>
</trkpt>
<trkpt lat="40.0738749" lon="-105.2302748">
  <ele>1583.65</ele>
  <time>2026-08-28T19:08:14Z</time>
  <course>13.33</course>
  <speed>0.022360679774997897</speed>
  <fix>3d</fix>
</trkpt>
<trkpt lat="40.073875" lon="-105.2302749">
  <ele>1583.56</ele>
  <time>2026-08-28T19:08:14Z</time>
  <course>236.16</course>
  <speed>0.0</speed>
  <fix>3d</fix>
</trkpt>
<trkpt lat="40.0738749" lon="-105.2302748">
  <ele>1583.65</ele>
  <time>2026-08-28T19:08:14Z</time>
  <course>13.31</course>
  <speed>0.022360679774997897</speed>
  <fix>3d</fix>
</trkpt>
<trkpt lat="40.073875" lon="-105.2302749">
  <ele>1583.56</ele>
  <time>2026-08-28T19:08:14Z</time>
  <course>101.08</course>
  <speed>0.0</speed>
  <fix>3d</fix>
</trkpt>
<trkpt lat="40.0738749" lon="-105.2302748">
  <ele>1583.65</ele>
  <time>2026-08-28T19:08:14Z</time>
  <course>13.29</course>
  <speed>0.022360679774997897</speed>
  <fix>3d</fix>
</trkpt>
<trkpt lat="40.073875" lon="-105.2302749">
  <ele>1583.56</ele>
  <time>2026-08-28T19:08:14Z</time>
  <course>115.73</course>
  <speed>0.0</speed>
  <fix>3d</fix>
</trkpt>
<trkpt lat="40.0738749" lon="-105.2302748">
  <ele>1583.64</ele>
  <time>2026-08-28T19:08:14Z</time>
  <course>13.27</course>
  <speed>0.022360679774997897</speed>
  <fix>3d</fix>
</trkpt>
<trkpt lat="40.073875" lon="-105.2302749">
  <ele>1583.56</ele>
  <time>2026-08-28T19:08:14Z</time>
  <course>273.71</course>
  <speed>0.0</speed>
  <fix>3d</fix>
</trkpt>
<trkpt lat="40.0738749" lon="-105.2302748">
  <ele>1583.64</ele>
  <time>2026-08-28T19:08:14Z</time>
  <course>13.25</course>
  <speed>0.022360679774997897</speed>
  <fix>3d</fix>
</trkpt>
<trkpt lat="40.073875" lon="-105.2302749">
  <ele>1583.56</ele>
  <time>2026-08-28T19:08:14Z</time>
  <course>273.65</course>
  <speed>0.0</speed>
  <fix>3d</fix>
</trkpt>
<trkpt lat="40.0738749" lon="-105.2302748">
  <ele>1583.64</ele>
  <time>2026-08-28T19:08:14Z</time>
  <course>13.22</course>
  <speed>0.022360679774997897</speed>
  <fix>3d</fix>
</trkpt>
<trkpt lat="40.073875" lon="-105.2302749">
  <ele>1583.56</ele>
  <time>2026-08-28T19:08:14Z</time>
  <course>105.25</course>
  <speed>0.0</speed>
  <fix>3d</fix>
</trkpt>
<trkpt lat="40.0738749" lon="-105.2302748">
  <ele>1583.64</ele>
  <time>2026-08-28T19:08:14Z</time>
  <course>13.2</course>
  <speed>0.022360679774997897</speed>
  <fix>3d</fix>
</trkpt>
<trkpt lat="40.073875" lon="-105.2302749">
  <ele>1583.56</ele>
  <time>2026-08-28T19:08:14Z</time>
  <course>104.63</course>
  <speed>0.0</speed>
  <fix>3d</fix>
</trkpt>
<trkpt lat="40.0738749" lon="-105.2302748">
  <ele>1583.64</ele>
  <time>2026-08-28T19:08:14Z</time>
  <course>13.18</course>
  <speed>0.022360679774997897</speed>
  <fix>3d</fix>
</trkpt>
<trkpt lat="40.073875" lon="-105.2302749">
  <ele>1583.56</ele>
  <time>2026-08-28T19:08:14Z</time>
  <course>263.95</course>
  <speed>0.0</speed>
  <fix>3d</fix>
</trkpt>
<trkpt lat="40.0738749" lon="-105.2302748">
  <ele>1583.64</ele>
  <time>2026-08-28T19:08:14Z</time>
  <course>13.16</course>
  <speed>0.022360679774997897</speed>
  <fix>3d</fix>
</trkpt>
<trkpt lat="40.073875" lon="-105.2302749">
  <ele>1583.56</ele>
  <time>2026-08-28T19:08:14Z</time>
  <course>273.15</course>
  <speed>0.0</speed>
  <fix>3d</fix>
</trkpt>
<trkpt lat="40.0738749" lon="-105.2302748">
  <ele>1583.64</ele>
  <time>2026-08-28T19:08:14Z</time>
  <course>13.14</course>
  <speed>0.022360679774997897</speed>
  <fix>3d</fix>
</trkpt>
<trkpt lat="40.073875" lon="-105.2302749">
  <ele>1583.56</ele>
  <time>2026-08-28T19:08:14Z</time>
  <course>272.27</course>
  <speed>0.0</speed>
  <fix>3d</fix>
</trkpt>
<trkpt lat="40.0738749" lon="-105.2302748">
  <ele>1583.64</ele>
  <time>2026-08-28T19:08:14Z</time>
  <course>13.12</course>
  <speed>0.022360679774997897</speed>
  <fix>3d</fix>
</trkpt>
<trkpt lat="40.073875" lon="-105.2302749">
  <ele>1583.56</ele>
  <time>2026-08-28T19:08:14Z</time>
  <course>103.04</course>
  <speed>0.0</speed>
  <fix>3d</fix>
</trkpt>
<trkpt lat="40.0738749" lon="-105.2302748">
  <ele>1583.64</ele>
  <time>2026-08-28T19:08:14Z</time>
  <course>13.1</course>
  <speed>0.022360679774997897</speed>
  <fix>3d</fix>
</trkpt>
<trkpt lat="40.073875" lon="-105.2302749">
  <ele>1583.56</ele>
  <time>2026-08-28T19:08:14Z</time>
  <course>116.83</course>
  <speed>0.0</speed>
  <fix>3d</fix>
</trkpt>
<trkpt lat="40.0738749" lon="-105.2302748">
  <ele>1583.64</ele>
  <time>2026-08-28T19:08:14Z</time>
  <course>13.08</course>
  <speed>0.022360679774997897</speed>
  <fix>3d</fix>
</trkpt>
<trkpt lat="40.073875" lon="-105.2302749">
  <ele>1583.56</ele>
  <time>2026-08-28T19:08:14Z</time>
  <course>222.35</course>
  <speed>0.0</speed>
  <fix>3d</fix>
</trkpt>
<trkpt lat="40.0738749" lon="-105.2302748">
  <ele>1583.64</ele>
  <time>2026-08-28T19:08:14Z</time>
  <course>13.06</course>
  <speed>0.022360679774997897</speed>
  <fix>3d</fix>
</trkpt>
<trkpt lat="40.073875" lon="-105.2302749">
  <ele>1583.56</ele>
  <time>2026-08-28T19:08:14Z</time>
  <course>171.0</course>
  <speed>0.0</speed>
  <fix>3d</fix>
</trkpt>
<trkpt lat="40.0738749" lon="-105.2302748">
  <ele>1583.65</ele>
  <time>2026-08-28T19:08:14Z</time>
  <course>13.04</course>
  <speed>0.022360679774997897</speed>
  <fix>3d</fix>
</trkpt>
<trkpt lat="40.073875" lon="-105.2302749">
  <ele>1583.56</ele>
  <time>2026-08-28T19:08:14Z</time>
  <course>155.41</course>
  <speed>0.0</speed>
  <fix>3d</fix>
</trkpt>
<trkpt lat="40.0738749" lon="-105.2302748">
  <ele>1583.65</ele>
  <time>2026-08-28T19:08:14Z</time>
  <course>13.02</course>
  <speed>0.022360679774997897</speed>
  <fix>3d</fix>
</trkpt>
<trkpt lat="40.073875" lon="-105.2302749">
  <ele>1583.56</ele>
  <time>2026-08-28T19:08:14Z</time>
  <course>163.42</course>
  <speed>0.0</speed>
  <fix>3d</fix>
</trkpt>
<trkpt lat="40.0738749" lon="-105.2302748">
  <ele>1583.65</ele>
  <time>2026-08-28T19:08:14Z</time>
  <course>13.0</course>
  <speed>0.022360679774997897</speed>
  <fix>3d</fix>
</trkpt>
<trkpt lat="40.073875" lon="-105.2302749">
  <ele>1583.56</ele>
  <time>2026-08-28T19:08:14Z</time>
  <course>164.45</course>
  <speed>0.0</speed>
  <fix>3d</fix>
</trkpt>
<trkpt lat="40.0738749" lon="-105.2302748">
  <ele>1583.65</ele>
  <time>2026-08-28T19:08:14Z</time>
  <course>12.98</course>
  <speed>0.022360679774997897</speed>
  <fix>3d</fix>
</trkpt>
<trkpt lat="40.073875" lon="-105.2302749">
  <ele>1583.56</ele>
  <time>2026-08-28T19:08:14Z</time>
  <course>163.09</course>
  <speed>0.0</speed>
  <fix>3d</fix>
</trkpt>
<trkpt lat="40.0738749" lon="-105.2302748">
  <ele>1583.65</ele>
  <time>2026-08-28T19:08:14Z</time>
  <course>12.95</course>
  <speed>0.022360679774997897</speed>
  <fix>3d</fix>
</trkpt>
<trkpt lat="40.073875" lon="-105.2302749">
  <ele>1583.56</ele>
  <time>2026-08-28T19:08:14Z</time>
  <course>272.41</course>
  <speed>0.0</speed>
  <fix>3d</fix>
</trkpt>
<trkpt lat="40.0738749" lon="-105.2302748">
  <ele>1583.65</ele>
  <time>2026-08-28T19:08:14Z</time>
  <course>12.93</course>
  <speed>0.022360679774997897</speed>
  <fix>3d</fix>
</trkpt>
<trkpt lat="40.073875" lon="-105.2302749">
  <ele>1583.56</ele>
  <time>2026-08-28T19:08:14Z</time>
  <course>272.29</course>
  <speed>0.0</speed>
  <fix>3d</fix>
</trkpt>
<trkpt lat="40.0738749" lon="-105.2302748">
  <ele>1583.64</ele>
  <time>2026-08-28T19:08:14Z</time>
  <course>12.91</course>
  <speed>0.022360679774997897</speed>
  <fix>3d</fix>
</trkpt>
<trkpt lat="40.073875" lon="-105.2302749">
  <ele>1583.56</ele>
  <time>2026-08-28T19:08:14Z</time>
  <course>107.68</course>
  <speed>0.0</speed>
  <fix>3d</fix>
</trkpt>
<trkpt lat="40.0738749" lon="-105.2302748">
  <ele>1583.64</ele>
  <time>2026-08-28T19:08:14Z</time>
  <course>12.89</course>
  <speed>0.022360679774997897</speed>
  <fix>3d</fix>
</trkpt>
<trkpt lat="40.073875" lon="-105.2302749">
  <ele>1583.56</ele>
  <time>2026-08-28T19:08:14Z</time>
  <course>116.26</course>
  <speed>0.0</speed>
  <fix>3d</fix>
</trkpt>
<trkpt lat="40.0738749" lon="-105.2302748">
  <ele>1583.65</ele>
  <time>2026-08-28T19:08:14Z</time>
  <course>12.87</course>
  <speed>0.022360679774997897</speed>
  <fix>3d</fix>
</trkpt>
<trkpt lat="40.073875" lon="-105.2302749">
  <ele>1583.56</ele>
  <time>2026-08-28T19:08:14Z</time>
  <course>271.96</course>
  <speed>0.0</speed>
  <fix>3d</fix>
</trkpt>
<trkpt lat="40.0738749" lon="-105.2302748">
  <ele>1583.65</ele>
  <time>2026-08-28T19:08:15Z</time>
  <course>12.85</course>
  <speed>0.022360679774997897</speed>
  <fix>3d</fix>
</trkpt>
<trkpt lat="40.073875" lon="-105.2302749">
  <ele>1583.56</ele>
  <time>2026-08-28T19:08:15Z</time>
  <course>272.61</course>
  <speed>0.0</speed>
  <fix>3d</fix>
</trkpt>
<trkpt lat="40.0738749" lon="-105.2302748">
  <ele>1583.64</ele>
  <time>2026-08-28T19:08:15Z</time>
  <course>12.83</course>
  <speed>0.022360679774997897</speed>
  <fix>3d</fix>
</trkpt>
<trkpt lat="40.073875" lon="-105.2302749">
  <ele>1583.56</ele>
  <time>2026-08-28T19:08:15Z</time>
  <course>268.41</course>
  <speed>0.0</speed>
  <fix>3d</fix>
</trkpt>
<trkpt lat="40.0738749" lon="-105.2302748">
  <ele>1583.64</ele>
  <time>2026-08-28T19:08:15Z</time>
  <course>12.81</course>
  <speed>0.022360679774997897</speed>
  <fix>3d</fix>
</trkpt>
<trkpt lat="40.073875" lon="-105.2302749">
  <ele>1583.56</ele>
  <time>2026-08-28T19:08:15Z</time>
  <course>106.38</course>
  <speed>0.0</speed>
  <fix>3d</fix>
</trkpt>
<trkpt lat="40.0738749" lon="-105.2302748">
  <ele>1583.64</ele>
  <time>2026-08-28T19:08:15Z</time>
  <course>12.78</course>
  <speed>0.022360679774997897</speed>
  <fix>3d</fix>
</trkpt>
<trkpt lat="40.073875" lon="-105.2302749">
  <ele>1583.56</ele>
  <time>2026-08-28T19:08:15Z</time>
  <course>232.02</course>
  <speed>0.0</speed>
  <fix>3d</fix>
</trkpt>
<trkpt lat="40.0738749" lon="-105.2302748">
  <ele>1583.64</ele>
  <time>2026-08-28T19:08:15Z</time>
  <course>12.76</course>
  <speed>0.022360679774997897</speed>
  <fix>3d</fix>
</trkpt>
<trkpt lat="40.073875" lon="-105.2302749">
  <ele>1583.56</ele>
  <time>2026-08-28T19:08:15Z</time>
  <course>272.0</course>
  <speed>0.0</speed>
  <fix>3d</fix>
</trkpt>
<trkpt lat="40.0738749" lon="-105.2302748">
  <ele>1583.64</ele>
  <time>2026-08-28T19:08:15Z</time>
  <course>12.74</course>
  <speed>0.022360679774997897</speed>
  <fix>3d</fix>
</trkpt>
<trkpt lat="40.073875" lon="-105.2302749">
  <ele>1583.56</ele>
  <time>2026-08-28T19:08:15Z</time>
  <course>272.03</course>
  <speed>0.0</speed>
  <fix>3d</fix>
</trkpt>
<trkpt lat="40.0738749" lon="-105.2302748">
  <ele>1583.65</ele>
  <time>2026-08-28T19:08:15Z</time>
  <course>12.72</course>
  <speed>0.022360679774997897</speed>
  <fix>3d</fix>
</trkpt>
<trkpt lat="40.073875" lon="-105.2302749">
  <ele>1583.56</ele>
  <time>2026-08-28T19:08:15Z</time>
  <course>211.83</course>
  <speed>0.0</speed>
  <fix>3d</fix>
</trkpt>
<trkpt lat="40.0738749" lon="-105.2302748">
  <ele>1583.65</ele>
  <time>2026-08-28T19:08:15Z</time>
  <course>12.7</course>
  <speed>0.022360679774997897</speed>
  <fix>3d</fix>
</trkpt>
<trkpt lat="40.073875" lon="-105.2302749">
  <ele>1583.56</ele>
  <time>2026-08-28T19:08:15Z</time>
  <course>125.91</course>
  <speed>0.0</speed>
  <fix>3d</fix>
</trkpt>
<trkpt lat="40.0738749" lon="-105.2302748">
  <ele>1583.65</ele>
  <time>2026-08-28T19:08:15Z</time>
  <course>12.68</course>
  <speed>0.022360679774997897</speed>
  <fix>3d</fix>
</trkpt>
<trkpt lat="40.073875" lon="-105.2302749">
  <ele>1583.56</ele>
  <time>2026-08-28T19:08:15Z</time>
  <course>257.75</course>
  <speed>0.0</speed>
  <fix>3d</fix>
</trkpt>
<trkpt lat="40.0738749" lon="-105.2302748">
  <ele>1583.65</ele>
  <time>2026-08-28T19:08:15Z</time>
  <course>12.66</course>
  <speed>0.022360679774997897</speed>
  <fix>3d</fix>
</trkpt>
<trkpt lat="40.073875" lon="-105.2302749">
  <ele>1583.56</ele>
  <time>2026-08-28T19:08:15Z</time>
  <course>271.34</course>
  <speed>0.0</speed>
  <fix>3d</fix>
</trkpt>
<trkpt lat="40.0738749" lon="-105.2302748">
  <ele>1583.65</ele>
  <time>2026-08-28T19:08:15Z</time>
  <course>12.64</course>
  <speed>0.022360679774997897</speed>
  <fix>3d</fix>
</trkpt>
<trkpt lat="40.073875" lon="-105.2302749">
  <ele>1583.56</ele>
  <time>2026-08-28T19:08:15Z</time>
  <course>271.05</course>
  <speed>0.0</speed>
  <fix>3d</fix>
</trkpt>
<trkpt lat="40.0738749" lon="-105.2302748">
  <ele>1583.65</ele>
  <time>2026-08-28T19:08:15Z</time>
  <course>12.62</course>
  <speed>0.022360679774997897</speed>
  <fix>3d</fix>
</trkpt>
<trkpt lat="40.073875" lon="-105.2302749">
  <ele>1583.56</ele>
  <time>2026-08-28T19:08:15Z</time>
  <course>126.08</course>
  <speed>0.0</speed>
  <fix>3d</fix>
</trkpt>
<trkpt lat="40.0738749" lon="-105.2302748">
  <ele>1583.65</ele>
  <time>2026-08-28T19:08:15Z</time>
  <course>12.6</course>
  <speed>0.022360679774997897</speed>
  <fix>3d</fix>
</trkpt>
<trkpt lat="40.073875" lon="-105.2302749">
  <ele>1583.56</ele>
  <time>2026-08-28T19:08:15Z</time>
  <course>223.57</course>
  <speed>0.0</speed>
  <fix>3d</fix>
</trkpt>
<trkpt lat="40.0738749" lon="-105.2302748">
  <ele>1583.65</ele>
  <time>2026-08-28T19:08:15Z</time>
  <course>12.58</course>
  <speed>0.022360679774997897</speed>
  <fix>3d</fix>
</trkpt>
<trkpt lat="40.073875" lon="-105.2302749">
  <ele>1583.56</ele>
  <time>2026-08-28T19:08:15Z</time>
  <course>259.23</course>
  <speed>0.0</speed>
  <fix>3d</fix>
</trkpt>
<trkpt lat="40.0738749" lon="-105.2302748">
  <ele>1583.65</ele>
  <time>2026-08-28T19:08:15Z</time>
  <course>12.56</course>
  <speed>0.022360679774997897</speed>
  <fix>3d</fix>
</trkpt>
<trkpt lat="40.073875" lon="-105.2302749">
  <ele>1583.56</ele>
  <time>2026-08-28T19:08:15Z</time>
  <course>271.14</course>
  <speed>0.0</speed>
  <fix>3d</fix>
</trkpt>
<trkpt lat="40.0738749" lon="-105.2302748">
  <ele>1583.65</ele>
  <time>2026-08-28T19:08:15Z</time>
  <course>12.54</course>
  <speed>0.022360679774997897</speed>
  <fix>3d</fix>
</trkpt>
<trkpt lat="40.073875" lon="-105.2302749">
  <ele>1583.56</ele>
  <time>2026-08-28T19:08:15Z</time>
  <course>271.07</course>
  <speed>0.0</speed>
  <fix>3d</fix>
</trkpt>
<trkpt lat="40.0738749" lon="-105.2302748">
  <ele>1583.66</ele>
  <time>2026-08-28T19:08:15Z</time>
  <course>12.52</course>
  <speed>0.022360679774997897</speed>
  <fix>3d</fix>
</trkpt>
<trkpt lat="40.073875" lon="-105.2302749">
  <ele>1583.56</ele>
  <time>2026-08-28T19:08:15Z</time>
  <course>201.43</course>
  <speed>0.0</speed>
  <fix>3d</fix>
</trkpt>
<trkpt lat="40.0738749" lon="-105.2302748">
  <ele>1583.66</ele>
  <time>2026-08-28T19:08:15Z</time>
  <course>12.49</course>
  <speed>0.022360679774997897</speed>
  <fix>3d</fix>
</trkpt>
<trkpt lat="40.073875" lon="-105.2302749">
  <ele>1583.56</ele>
  <time>2026-08-28T19:08:15Z</time>
  <course>227.11</course>
  <speed>0.0</speed>
  <fix>3d</fix>
</trkpt>
<trkpt lat="40.0738749" lon="-105.2302748">
  <ele>1583.66</ele>
  <time>2026-08-28T19:08:15Z</time>
  <course>12.47</course>
  <speed>0.022360679774997897</speed>
  <fix>3d</fix>
</trkpt>
<trkpt lat="40.073875" lon="-105.2302749">
  <ele>1583.56</ele>
  <time>2026-08-28T19:08:15Z</time>
  <course>269.28</course>
  <speed>0.0</speed>
  <fix>3d</fix>
</trkpt>
<trkpt lat="40.0738749" lon="-105.2302748">
  <ele>1583.66</ele>
  <time>2026-08-28T19:08:15Z</time>
  <course>12.45</course>
  <speed>0.022360679774997897</speed>
  <fix>3d</fix>
</trkpt>
<trkpt lat="40.073875" lon="-105.2302749">
  <ele>1583.56</ele>
  <time>2026-08-28T19:08:15Z</time>
  <course>271.05</course>
  <speed>0.0</speed>
  <fix>3d</fix>
</trkpt>
<trkpt lat="40.0738749" lon="-105.2302748">
  <ele>1583.66</ele>
  <time>2026-08-28T19:08:15Z</time>
  <course>12.43</course>
  <speed>0.022360679774997897</speed>
  <fix>3d</fix>
</trkpt>
<trkpt lat="40.073875" lon="-105.2302749">
  <ele>1583.56</ele>
  <time>2026-08-28T19:08:15Z</time>
  <course>269.42</course>
  <speed>0.0</speed>
  <fix>3d</fix>
</trkpt>
<trkpt lat="40.0738749" lon="-105.2302748">
  <ele>1583.66</ele>
  <time>2026-08-28T19:08:15Z</time>
  <course>12.41</course>
  <speed>0.022360679774997897</speed>
  <fix>3d</fix>
</trkpt>
<trkpt lat="40.073875" lon="-105.2302749">
  <ele>1583.56</ele>
  <time>2026-08-28T19:08:15Z</time>
  <course>149.9</course>
  <speed>0.0</speed>
  <fix>3d</fix>
</trkpt>
<trkpt lat="40.0738749" lon="-105.2302748">
  <ele>1583.66</ele>
  <time>2026-08-28T19:08:15Z</time>
  <course>12.39</course>
  <speed>0.022360679774997897</speed>
  <fix>3d</fix>
</trkpt>
<trkpt lat="40.073875" lon="-105.2302749">
  <ele>1583.56</ele>
  <time>2026-08-28T19:08:15Z</time>
  <course>256.01</course>
  <speed>0.0</speed>
  <fix>3d</fix>
</trkpt>
<trkpt lat="40.0738749" lon="-105.2302748">
  <ele>1583.66</ele>
  <time>2026-08-28T19:08:15Z</time>
  <course>12.37</course>
  <speed>0.022360679774997897</speed>
  <fix>3d</fix>
</trkpt>
<trkpt lat="40.073875" lon="-105.2302749">
  <ele>1583.56</ele>
  <time>2026-08-28T19:08:15Z</time>
  <course>270.52</course>
  <speed>0.0</speed>
  <fix>3d</fix>
</trkpt>
<trkpt lat="40.0738749" lon="-105.2302748">
  <ele>1583.66</ele>
  <time>2026-08-28T19:08:15Z</time>
  <course>12.35</course>
  <speed>0.022360679774997897</speed>
  <fix>3d</fix>
</trkpt>
<trkpt lat="40.073875" lon="-105.2302749">
  <ele>1583.56</ele>
  <time>2026-08-28T19:08:15Z</time>
  <course>271.0</course>
  <speed>0.0</speed>
  <fix>3d</fix>
</trkpt>
<trkpt lat="40.0738749" lon="-105.2302748">
  <ele>1583.66</ele>
  <time>2026-08-28T19:08:15Z</time>
  <course>12.33</course>
  <speed>0.022360679774997897</speed>
  <fix>3d</fix>
</trkpt>
<trkpt lat="40.073875" lon="-105.2302749">
  <ele>1583.56</ele>
  <time>2026-08-28T19:08:15Z</time>
  <course>266.93</course>
  <speed>0.0</speed>
  <fix>3d</fix>
</trkpt>
<trkpt lat="40.0738749" lon="-105.2302748">
  <ele>1583.66</ele>
  <time>2026-08-28T19:08:15Z</time>
  <course>12.31</course>
  <speed>0.022360679774997897</speed>
  <fix>3d</fix>
</trkpt>
<trkpt lat="40.073875" lon="-105.2302749">
  <ele>1583.56</ele>
  <time>2026-08-28T19:08:15Z</time>
  <course>198.05</course>
  <speed>0.0</speed>
  <fix>3d</fix>
</trkpt>
<trkpt lat="40.0738749" lon="-105.2302748">
  <ele>1583.66</ele>
  <time>2026-08-28T19:08:15Z</time>
  <course>12.29</course>
  <speed>0.022360679774997897</speed>
  <fix>3d</fix>
</trkpt>
<trkpt lat="40.073875" lon="-105.2302749">
  <ele>1583.56</ele>
  <time>2026-08-28T19:08:15Z</time>
  <course>260.74</course>
  <speed>0.0</speed>
  <fix>3d</fix>
</trkpt>
<trkpt lat="40.0738749" lon="-105.2302748">
  <ele>1583.65</ele>
  <time>2026-08-28T19:08:15Z</time>
  <course>12.27</course>
  <speed>0.022360679774997897</speed>
  <fix>3d</fix>
</trkpt>
<trkpt lat="40.073875" lon="-105.2302749">
  <ele>1583.56</ele>
  <time>2026-08-28T19:08:15Z</time>
  <course>272.13</course>
  <speed>0.0</speed>
  <fix>3d</fix>
</trkpt>
<trkpt lat="40.0738749" lon="-105.2302748">
  <ele>1583.65</ele>
  <time>2026-08-28T19:08:15Z</time>
  <course>12.25</course>
  <speed>0.022360679774997897</speed>
  <fix>3d</fix>
</trkpt>
<trkpt lat="40.073875" lon="-105.2302749">
  <ele>1583.56</ele>
  <time>2026-08-28T19:08:15Z</time>
  <course>273.96</course>
  <speed>0.0</speed>
  <fix>3d</fix>
</trkpt>
<trkpt lat="40.0738749" lon="-105.2302748">
  <ele>1583.65</ele>
  <time>2026-08-28T19:08:15Z</time>
  <course>12.24</course>
  <speed>0.022360679774997897</speed>
  <fix>3d</fix>
</trkpt>
<trkpt lat="40.073875" lon="-105.2302749">
  <ele>1583.56</ele>
  <time>2026-08-28T19:08:15Z</time>
  <course>248.67</course>
  <speed>0.0</speed>
  <fix>3d</fix>
</trkpt>
<trkpt lat="40.0738749" lon="-105.2302748">
  <ele>1583.65</ele>
  <time>2026-08-28T19:08:15Z</time>
  <course>12.23</course>
  <speed>0.022360679774997897</speed>
  <fix>3d</fix>
</trkpt>
<trkpt lat="40.073875" lon="-105.2302749">
  <ele>1583.56</ele>
  <time>2026-08-28T19:08:15Z</time>
  <course>191.06</course>
  <speed>0.0</speed>
  <fix>3d</fix>
</trkpt>
<trkpt lat="40.0738749" lon="-105.2302748">
  <ele>1583.65</ele>
  <time>2026-08-28T19:08:15Z</time>
  <course>12.23</course>
  <speed>0.022360679774997897</speed>
  <fix>3d</fix>
</trkpt>
<trkpt lat="40.0738749" lon="-105.2302748">
  <ele>1583.65</ele>
  <time>2026-08-28T19:08:15Z</time>
  <course>12.21</course>
  <speed>0.022360679774997897</speed>
  <fix>3d</fix>
</trkpt>
<trkpt lat="40.073875" lon="-105.2302749">
  <ele>1583.56</ele>
  <time>2026-08-28T19:08:15Z</time>
  <course>264.0</course>
  <speed>0.0</speed>
  <fix>3d</fix>
</trkpt>
<trkpt lat="40.0738749" lon="-105.2302748">
  <ele>1583.65</ele>
  <time>2026-08-28T19:08:15Z</time>
  <course>12.2</course>
  <speed>0.022360679774997897</speed>
  <fix>3d</fix>
</trkpt>
<trkpt lat="40.0738749" lon="-105.2302748">
  <ele>1583.65</ele>
  <time>2026-08-28T19:08:15Z</time>
  <course>12.17</course>
  <speed>0.022360679774997897</speed>
  <fix>3d</fix>
</trkpt>
<trkpt lat="40.073875" lon="-105.2302749">
  <ele>1583.56</ele>
  <time>2026-08-28T19:08:15Z</time>
  <course>265.02</course>
  <speed>0.0</speed>
  <fix>3d</fix>
</trkpt>
<trkpt lat="40.0738749" lon="-105.2302748">
  <ele>1583.65</ele>
  <time>2026-08-28T19:08:15Z</time>
  <course>12.16</course>
  <speed>0.022360679774997897</speed>
  <fix>3d</fix>
</trkpt>
<trkpt lat="40.0738749" lon="-105.2302748">
  <ele>1583.67</ele>
  <time>2026-08-28T19:08:15Z</time>
  <course>12.11</course>
  <speed>0.01414213562373095</speed>
  <fix>3d</fix>
</trkpt>
<trkpt lat="40.073875" lon="-105.2302749">
  <ele>1583.56</ele>
  <time>2026-08-28T19:08:15Z</time>
  <course>260.9</course>
  <speed>0.0</speed>
  <fix>3d</fix>
</trkpt>
<trkpt lat="40.0738749" lon="-105.2302748">
  <ele>1583.68</ele>
  <time>2026-08-28T19:08:15Z</time>
  <course>12.1</course>
  <speed>0.01414213562373095</speed>
  <fix>3d</fix>
</trkpt>
<trkpt lat="40.0738749" lon="-105.2302748">
  <ele>1583.73</ele>
  <time>2026-08-28T19:08:15Z</time>
  <course>12.03</course>
  <speed>0.01414213562373095</speed>
  <fix>3d</fix>
</trkpt>
<trkpt lat="40.073875" lon="-105.2302749">
  <ele>1583.59</ele>
  <time>2026-08-28T19:08:15Z</time>
  <course>277.35</course>
  <speed>0.0</speed>
  <fix>3d</fix>
</trkpt>
<trkpt lat="40.0738749" lon="-105.2302748">
  <ele>1583.74</ele>
  <time>2026-08-28T19:08:15Z</time>
  <course>12.02</course>
  <speed>0.01414213562373095</speed>
  <fix>3d</fix>
</trkpt>
<trkpt lat="40.0738749" lon="-105.2302748">
  <ele>1583.84</ele>
  <time>2026-08-28T19:08:15Z</time>
  <course>7.92</course>
  <speed>0.01</speed>
  <fix>3d</fix>
</trkpt>
<trkpt lat="40.073875" lon="-105.2302749">
  <ele>1583.65</ele>
  <time>2026-08-28T19:08:15Z</time>
  <course>276.5</course>
  <speed>0.0</speed>
  <fix>3d</fix>
</trkpt>
<trkpt lat="40.0738749" lon="-105.2302748">
  <ele>1583.84</ele>
  <time>2026-08-28T19:08:15Z</time>
  <course>7.81</course>
  <speed>0.01414213562373095</speed>
  <fix>3d</fix>
</trkpt>
<trkpt lat="40.0738749" lon="-105.230275">
  <ele>1584.16</ele>
  <time>2026-08-28T19:08:15Z</time>
  <course>1.06</course>
  <speed>0.19026297590440447</speed>
  <fix>3d</fix>
</trkpt>
<trkpt lat="40.073875" lon="-105.2302749">
  <ele>1583.83</ele>
  <time>2026-08-28T19:08:15Z</time>
  <course>262.6</course>
  <speed>0.09</speed>
  <fix>3d</fix>
</trkpt>
<trkpt lat="40.0738749" lon="-105.2302751">
  <ele>1584.2</ele>
  <time>2026-08-28T19:08:15Z</time>
  <course>0.94</course>
  <speed>0.2002498439450079</speed>
  <fix>3d</fix>
</trkpt>
<trkpt lat="40.0738749" lon="-105.2302756">
  <ele>1584.53</ele>
  <time>2026-08-28T19:08:15Z</time>
  <course>359.76</course>
  <speed>0.25179356624028343</speed>
  <fix>3d</fix>
</trkpt>
<trkpt lat="40.073875" lon="-105.2302752">
  <ele>1584.15</ele>
  <time>2026-08-28T19:08:15Z</time>
  <course>259.66</course>
  <speed>0.22</speed>
  <fix>3d</fix>
</trkpt>
<trkpt lat="40.0738749" lon="-105.2302757">
  <ele>1584.57</ele>
  <time>2026-08-28T19:08:15Z</time>
  <course>359.53</course>
  <speed>0.25317977802344327</speed>
  <fix>3d</fix>
</trkpt>
<trkpt lat="40.0738748" lon="-105.2302762">
  <ele>1584.91</ele>
  <time>2026-08-28T19:08:15Z</time>
  <course>357.82</course>
  <speed>0.26248809496813374</speed>
  <fix>3d</fix>
</trkpt>
<trkpt lat="40.073875" lon="-105.2302758">
  <ele>1584.54</ele>
  <time>2026-08-28T19:08:15Z</time>
  <course>253.36</course>
  <speed>0.27</speed>
  <fix>3d</fix>
</trkpt>
<trkpt lat="40.0738748" lon="-105.2302762">
  <ele>1584.91</ele>
  <time>2026-08-28T19:08:15Z</time>
  <course>357.79</course>
  <speed>0.26248809496813374</speed>
  <fix>3d</fix>
</trkpt>
<trkpt lat="40.0738746" lon="-105.2302768">
  <ele>1585.33</ele>
  <time>2026-08-28T19:08:15Z</time>
  <course>356.43</course>
  <speed>0.25553864678361277</speed>
  <fix>3d</fix>
</trkpt>
<trkpt lat="40.0738749" lon="-105.2302765">
  <ele>1584.94</ele>
  <time>2026-08-28T19:08:15Z</time>
  <course>244.19</course>
  <speed>0.28</speed>
  <fix>3d</fix>
</trkpt>
<trkpt lat="40.0738746" lon="-105.2302768">
  <ele>1585.39</ele>
  <time>2026-08-28T19:08:15Z</time>
  <course>356.32</course>
  <speed>0.25238858928247926</speed>
  <fix>3d</fix>
</trkpt>
<trkpt lat="40.0738743" lon="-105.2302772">
  <ele>1585.79</ele>
  <time>2026-08-28T19:08:15Z</time>
  <course>355.75</course>
  <speed>0.22671568097509268</speed>
  <fix>3d</fix>
</trkpt>
<trkpt lat="40.0738746" lon="-105.230277">
  <ele>1585.38</ele>
  <time>2026-08-28T19:08:15Z</time>
  <course>232.89</course>
  <speed>0.25</speed>
  <fix>3d</fix>
</trkpt>
<trkpt lat="40.0738743" lon="-105.2302772">
  <ele>1585.8</ele>
  <time>2026-08-28T19:08:15Z</time>
  <course>355.75</course>
  <speed>0.22671568097509268</speed>
  <fix>3d</fix>
</trkpt>
<trkpt lat="40.073874" lon="-105.2302775">
  <ele>1586.27</ele>
  <time>2026-08-28T19:08:15Z</time>
  <course>355.45</course>
  <speed>0.19697715603592209</speed>
  <fix>3d</fix>
</trkpt>
<trkpt lat="40.0738743" lon="-105.2302773">
  <ele>1585.84</ele>
  <time>2026-08-28T19:08:15Z</time>
  <course>218.95</course>
  <speed>0.22</speed>
  <fix>3d</fix>
</trkpt>
<trkpt lat="40.073874" lon="-105.2302775">
  <ele>1586.33</ele>
  <time>2026-08-28T19:08:15Z</time>
  <course>355.43</course>
  <speed>0.19313207915827968</speed>
  <fix>3d</fix>
</trkpt>
<trkpt lat="40.0738737" lon="-105.2302776">
  <ele>1586.77</ele>
  <time>2026-08-28T19:08:15Z</time>
  <course>353.27</course>
  <speed>0.18027756377319945</speed>
  <fix>3d</fix>
</trkpt>
<trkpt lat="40.073874" lon="-105.2302776">
  <ele>1586.32</ele>
  <time>2026-08-28T19:08:15Z</time>
  <course>202.54</course>
  <speed>0.18</speed>
  <fix>3d</fix>
</trkpt>
<trkpt lat="40.0738736" lon="-105.2302776">
  <ele>1586.84</ele>
  <time>2026-08-28T19:08:15Z</time>
  <course>352.64</course>
  <speed>0.18</speed>
  <fix>3d</fix>
</trkpt>
<trkpt lat="40.0738734" lon="-105.2302776">
  <ele>1587.28</ele>
  <time>2026-08-28T19:08:15Z</time>
  <course>349.97</course>
  <speed>0.18439088914585774</speed>
  <fix>3d</fix>
</trkpt>
<trkpt lat="40.0738737" lon="-105.2302777">
  <ele>1586.82</ele>
  <time>2026-08-28T19:08:15Z</time>
  <course>184.52</course>
  <speed>0.15</speed>
  <fix>3d</fix>
</trkpt>
<trkpt lat="40.0738733" lon="-105.2302776">
  <ele>1587.35</ele>
  <time>2026-08-28T19:08:15Z</time>
  <course>349.94</course>
  <speed>0.1772004514666935</speed>
  <fix>3d</fix>
</trkpt>
<trkpt lat="40.0738731" lon="-105.2302775">
  <ele>1587.79</ele>
  <time>2026-08-28T19:08:15Z</time>
  <course>351.02</course>
  <speed>0.18027756377319945</speed>
  <fix>3d</fix>
</trkpt>
<trkpt lat="40.0738735" lon="-105.2302777">
  <ele>1587.32</ele>
  <time>2026-08-28T19:08:15Z</time>
  <course>161.71</course>
  <speed>0.12</speed>
  <fix>3d</fix>
</trkpt>
<trkpt lat="40.0738731" lon="-105.2302775">
  <ele>1587.86</ele>
  <time>2026-08-28T19:08:15Z</time>
  <course>351.26</course>
  <speed>0.17204650534085253</speed>
  <fix>3d</fix>
</trkpt>
<trkpt lat="40.073873" lon="-105.2302773">
  <ele>1588.3</ele>
  <time>2026-08-28T19:08:15Z</time>
  <course>352.76</course>
  <speed>0.18027756377319945</speed>
  <fix>3d</fix>
</trkpt>
<trkpt lat="40.0738733" lon="-105.2302776">
  <ele>1587.82</ele>
  <time>2026-08-28T19:08:15Z</time>
  <course>129.89</course>
  <speed>0.11</speed>
  <fix>3d</fix>
</trkpt>
<trkpt lat="40.073873" lon="-105.2302773">
  <ele>1588.31</ele>
  <time>2026-08-28T19:08:15Z</time>
  <course>352.78</course>
  <speed>0.18027756377319945</speed>
  <fix>3d</fix>
</trkpt>
<trkpt lat="40.0738729" lon="-105.2302769">
  <ele>1588.81</ele>
  <time>2026-08-28T19:08:15Z</time>
  <course>354.05</course>
  <speed>0.1824828759089466</speed>
  <fix>3d</fix>
</trkpt>
<trkpt lat="40.0738732" lon="-105.2302774">
  <ele>1588.31</ele>
  <time>2026-08-28T19:08:15Z</time>
  <course>100.26</course>
  <speed>0.13</speed>
  <fix>3d</fix>
</trkpt>
<trkpt lat="40.073873" lon="-105.2302769">
  <ele>1588.87</ele>
  <time>2026-08-28T19:08:15Z</time>
  <course>354.19</course>
  <speed>0.1824828759089466</speed>
  <fix>3d</fix>
</trkpt>
<trkpt lat="40.073873" lon="-105.2302766">
  <ele>1589.32</ele>
  <time>2026-08-28T19:08:15Z</time>
  <course>355.07</course>
  <speed>0.19026297590440447</speed>
  <fix>3d</fix>
</trkpt>
<trkpt lat="40.0738732" lon="-105.2302771">
  <ele>1588.81</ele>
  <time>2026-08-28T19:08:15Z</time>
  <course>81.23</course>
  <speed>0.16</speed>
  <fix>3d</fix>
</trkpt>
<trkpt lat="40.0738731" lon="-105.2302765">
  <ele>1589.39</ele>
  <time>2026-08-28T19:08:15Z</time>
  <course>355.19</course>
  <speed>0.191049731745428</speed>
  <fix>3d</fix>
</trkpt>
<trkpt lat="40.0738732" lon="-105.2302762">
  <ele>1589.82</ele>
  <time>2026-08-28T19:08:15Z</time>
  <course>355.92</course>
  <speed>0.19924858845171275</speed>
  <fix>3d</fix>
</trkpt>
<trkpt lat="40.0738733" lon="-105.2302766">
  <ele>1589.3</ele>
  <time>2026-08-28T19:08:15Z</time>
  <course>69.39</course>
  <speed>0.17</speed>
  <fix>3d</fix>
</trkpt>
<trkpt lat="40.0738732" lon="-105.2302761">
  <ele>1589.9</ele>
  <time>2026-08-28T19:08:15Z</time>
  <course>356.03</course>
  <speed>0.18973665961010278</speed>
  <fix>3d</fix>
</trkpt>
<trkpt lat="40.0738733" lon="-105.2302758">
  <ele>1590.32</ele>
  <time>2026-08-28T19:08:15Z</time>
  <course>356.7</course>
  <speed>0.19235384061671343</speed>
  <fix>3d</fix>
</trkpt>
<trkpt lat="40.0738733" lon="-105.2302763">
  <ele>1589.8</ele>
  <time>2026-08-28T19:08:15Z</time>
  <course>61.36</course>
  <speed>0.18</speed>
  <fix>3d</fix>
</trkpt>
<trkpt lat="40.0738734" lon="-105.2302758">
  <ele>1590.38</ele>
  <time>2026-08-28T19:08:15Z</time>
  <course>356.79</course>
  <speed>0.19235384061671343</speed>
  <fix>3d</fix>
</trkpt>
<trkpt lat="40.0738736" lon="-105.2302755">
  <ele>1590.82</ele>
  <time>2026-08-28T19:08:15Z</time>
  <course>357.4</course>
  <speed>0.18867962264113206</speed>
  <fix>3d</fix>
</trkpt>
<trkpt lat="40.0738735" lon="-105.2302759">
  <ele>1590.29</ele>
  <time>2026-08-28T19:08:15Z</time>
  <course>55.45</course>
  <speed>0.18</speed>
  <fix>3d</fix>
</trkpt>
<trkpt lat="40.0738736" lon="-105.2302755">
  <ele>1590.83</ele>
  <time>2026-08-28T19:08:15Z</time>
  <course>357.41</course>
  <speed>0.18867962264113206</speed>
  <fix>3d</fix>
</trkpt>
<trkpt lat="40.0738738" lon="-105.2302752">
  <ele>1591.32</ele>
  <time>2026-08-28T19:08:15Z</time>
  <course>358.05</course>
  <speed>0.17804493814764857</speed>
  <fix>3d</fix>
</trkpt>
<trkpt lat="40.0738737" lon="-105.2302755">
  <ele>1590.78</ele>
  <time>2026-08-28T19:08:15Z</time>
  <course>50.64</course>
  <speed>0.17</speed>
  <fix>3d</fix>
</trkpt>
<trkpt lat="40.0738738" lon="-105.2302752">
  <ele>1591.38</ele>
  <time>2026-08-28T19:08:15Z</time>
  <course>358.13</course>
  <speed>0.17029386365926402</speed>
  <fix>3d</fix>
</trkpt>
<trkpt lat="40.073874" lon="-105.2302749">
  <ele>1591.81</ele>
  <time>2026-08-28T19:08:15Z</time>
  <course>358.65</course>
  <speed>0.1697056274847714</speed>
  <fix>3d</fix>
</trkpt>
<trkpt lat="40.0738738" lon="-105.2302752">
  <ele>1591.26</ele>
  <time>2026-08-28T19:08:15Z</time>
  <course>46.11</course>
  <speed>0.16</speed>
  <fix>3d</fix>
</trkpt>
<trkpt lat="40.073874" lon="-105.2302749">
  <ele>1591.87</ele>
  <time>2026-08-28T19:08:15Z</time>
  <course>358.71</course>
  <speed>0.1697056274847714</speed>
  <fix>3d</fix>
</trkpt>
<trkpt lat="40.0738742" lon="-105.2302747">
  <ele>1592.3</ele>
  <time>2026-08-28T19:08:15Z</time>
  <course>359.14</course>
  <speed>0.15620499351813308</speed>
  <fix>3d</fix>
</trkpt>
<trkpt lat="40.0738741" lon="-105.230275">
  <ele>1591.75</ele>
  <time>2026-08-28T19:08:15Z</time>
  <course>41.46</course>
  <speed>0.15</speed>
  <fix>3d</fix>
</trkpt>
<trkpt lat="40.0738743" lon="-105.2302747">
  <ele>1592.37</ele>
  <time>2026-08-28T19:08:15Z</time>
  <course>359.2</course>
  <speed>0.15620499351813308</speed>
  <fix>3d</fix>
</trkpt>
<trkpt lat="40.0738744" lon="-105.2302745">
  <ele>1592.79</ele>
  <time>2026-08-28T19:08:15Z</time>
  <course>359.58</course>
  <speed>0.14422205101855956</speed>
  <fix>3d</fix>
</trkpt>
<trkpt lat="40.0738743" lon="-105.2302747">
  <ele>1592.24</ele>
  <time>2026-08-28T19:08:15Z</time>
  <course>36.3</course>
  <speed>0.14</speed>
  <fix>3d</fix>
</trkpt>
<trkpt lat="40.0738745" lon="-105.2302745">
  <ele>1592.86</ele>
  <time>2026-08-28T19:08:15Z</time>
  <course>359.65</course>
  <speed>0.14422205101855956</speed>
  <fix>3d</fix>
</trkpt>
<trkpt lat="40.0738747" lon="-105.2302744">
  <ele>1593.29</ele>
  <time>2026-08-28T19:08:15Z</time>
  <course>0.01</course>
  <speed>0.1341640786499874</speed>
  <fix>3d</fix>
</trkpt>
<trkpt lat="40.0738745" lon="-105.2302746">
  <ele>1592.74</ele>
  <time>2026-08-28T19:08:15Z</time>
  <course>30.39</course>
  <speed>0.13</speed>
  <fix>3d</fix>
</trkpt>
<trkpt lat="40.0738747" lon="-105.2302744">
  <ele>1593.3</ele>
  <time>2026-08-28T19:08:15Z</time>
  <course>0.01</course>
  <speed>0.1341640786499874</speed>
  <fix>3d</fix>
</trkpt>
<trkpt lat="40.0738749" lon="-105.2302743">
  <ele>1593.79</ele>
  <time>2026-08-28T19:08:15Z</time>
  <course>0.46</course>
  <speed>0.11704699910719625</speed>
  <fix>3d</fix>
</trkpt>
<trkpt lat="40.0738748" lon="-105.2302744">
  <ele>1593.23</ele>
  <time>2026-08-28T19:08:15Z</time>
  <course>23.8</course>
  <speed>0.12</speed>
  <fix>3d</fix>
</trkpt>
<trkpt lat="40.0738749" lon="-105.2302743">
  <ele>1593.85</ele>
  <time>2026-08-28T19:08:15Z</time>
  <course>0.51</course>
  <speed>0.11401754250991379</speed>
  <fix>3d</fix>
</trkpt>
<trkpt lat="40.073875" lon="-105.2302743">
  <ele>1594.3</ele>
  <time>2026-08-28T19:08:15Z</time>
  <course>0.86</course>
  <speed>0.1019803902718557</speed>
  <fix>3d</fix>
</trkpt>
<trkpt lat="40.0738749" lon="-105.2302743">
  <ele>1593.72</ele>
  <time>2026-08-28T19:08:15Z</time>
  <course>16.62</course>
  <speed>0.1</speed>
  <fix>3d</fix>
</trkpt>
<trkpt lat="40.0738751" lon="-105.2302743">
  <ele>1594.36</ele>
  <time>2026-08-28T19:08:15Z</time>
  <course>0.91</course>
  <speed>0.1019803902718557</speed>
  <fix>3d</fix>
</trkpt>
<trkpt lat="40.0738752" lon="-105.2302742">
  <ele>1594.8</ele>
  <time>2026-08-28T19:08:15Z</time>
  <course>1.26</course>
  <speed>0.09</speed>
  <fix>3d</fix>
</trkpt>
<trkpt lat="40.073875" lon="-105.2302742">
  <ele>1594.22</ele>
  <time>2026-08-28T19:08:15Z</time>
  <course>8.65</course>
  <speed>0.09</speed>
  <fix>3d</fix>
</trkpt>
<trkpt lat="40.0738752" lon="-105.2302742">
  <ele>1594.86</ele>
  <time>2026-08-28T19:08:15Z</time>
  <course>1.31</course>
  <speed>0.09</speed>
  <fix>3d</fix>
</trkpt>
<trkpt lat="40.0738753" lon="-105.2302742">
  <ele>1595.29</ele>
  <time>2026-08-28T19:08:15Z</time>
  <course>1.67</course>
  <speed>0.07</speed>
  <fix>3d</fix>
</trkpt>
<trkpt lat="40.0738752" lon="-105.2302742">
  <ele>1594.72</ele>
  <time>2026-08-28T19:08:15Z</time>
  <course>359.61</course>
  <speed>0.07</speed>
  <fix>3d</fix>
</trkpt>
<trkpt lat="40.0738753" lon="-105.2302742">
  <ele>1595.35</ele>
  <time>2026-08-28T19:08:15Z</time>
  <course>1.71</course>
  <speed>0.07</speed>
  <fix>3d</fix>
</trkpt>
<trkpt lat="40.0738754" lon="-105.2302742">
  <ele>1595.78</ele>
  <time>2026-08-28T19:08:15Z</time>
  <course>2.03</course>
  <speed>0.06082762530298219</speed>
  <fix>3d</fix>
</trkpt>
<trkpt lat="40.0738754" lon="-105.2302742">
  <ele>1595.21</ele>
  <time>2026-08-28T19:08:15Z</time>
  <course>349.52</course>
  <speed>0.06</speed>
  <fix>3d</fix>
</trkpt>
<trkpt lat="40.0738754" lon="-105.2302742">
  <ele>1595.79</ele>
  <time>2026-08-28T19:08:15Z</time>
  <course>2.04</course>
  <speed>0.06082762530298219</speed>
  <fix>3d</fix>
</trkpt>
<trkpt lat="40.0738755" lon="-105.2302742">
  <ele>1596.28</ele>
  <time>2026-08-28T19:08:15Z</time>
  <course>2.37</course>
  <speed>0.053851648071345036</speed>
  <fix>3d</fix>
</trkpt>
<trkpt lat="40.0738755" lon="-105.2302742">
  <ele>1595.7</ele>
  <time>2026-08-28T19:08:15Z</time>
  <course>337.62</course>
  <speed>0.05</speed>
  <fix>3d</fix>
</trkpt>
<trkpt lat="40.0738755" lon="-105.2302742">
  <ele>1596.34</ele>
  <time>2026-08-28T19:08:15Z</time>
  <course>2.41</course>
  <speed>0.044721359549995794</speed>
  <fix>3d</fix>
</trkpt>
<trkpt lat="40.0738756" lon="-105.2302743">
  <ele>1596.77</ele>
  <time>2026-08-28T19:08:15Z</time>
  <course>2.66</course>
  <speed>0.04242640687119285</speed>
  <fix>3d</fix>
</trkpt>
<trkpt lat="40.0738756" lon="-105.2302743">
  <ele>1596.2</ele>
  <time>2026-08-28T19:08:15Z</time>
  <course>322.95</course>
  <speed>0.04</speed>
  <fix>3d</fix>
</trkpt>
<trkpt lat="40.0738756" lon="-105.2302743">
  <ele>1596.84</ele>
  <time>2026-08-28T19:08:15Z</time>
  <course>2.7</course>
  <speed>0.04242640687119285</speed>
  <fix>3d</fix>
</trkpt>
<trkpt lat="40.0738756" lon="-105.2302744">
  <ele>1597.26</ele>
  <time>2026-08-28T19:08:15Z</time>
  <course>2.93</course>
  <speed>0.03605551275463989</speed>
  <fix>3d</fix>
</trkpt>
<trkpt lat="40.0738756" lon="-105.2302744">
  <ele>1596.7</ele>
  <time>2026-08-28T19:08:15Z</time>
  <course>305.38</course>
  <speed>0.04</speed>
  <fix>3d</fix>
</trkpt>
<trkpt lat="40.0738756" lon="-105.2302744">
  <ele>1597.34</ele>
  <time>2026-08-28T19:08:15Z</time>
  <course>2.98</course>
  <speed>0.03605551275463989</speed>
  <fix>3d</fix>
</trkpt>
<trkpt lat="40.0738756" lon="-105.2302745">
  <ele>1597.76</ele>
  <time>2026-08-28T19:08:15Z</time>
  <course>3.21</course>
  <speed>0.03</speed>
  <fix>3d</fix>
</trkpt>
<trkpt lat="40.0738756" lon="-105.2302744">
  <ele>1597.2</ele>
  <time>2026-08-28T19:08:15Z</time>
  <course>285.78</course>
  <speed>0.03</speed>
  <fix>3d</fix>
</trkpt>
<trkpt lat="40.0738756" lon="-105.2302745">
  <ele>1597.83</ele>
  <time>2026-08-28T19:08:15Z</time>
  <course>3.24</course>
  <speed>0.03</speed>
  <fix>3d</fix>
</trkpt>
<trkpt lat="40.0738756" lon="-105.2302745">
  <ele>1598.26</ele>
  <time>2026-08-28T19:08:15Z</time>
  <course>3.5</course>
  <speed>0.03</speed>
  <fix>3d</fix>
</trkpt>
<trkpt lat="40.0738756" lon="-105.2302745">
  <ele>1597.7</ele>
  <time>2026-08-28T19:08:15Z</time>
  <course>267.04</course>
  <speed>0.03</speed>
  <fix>3d</fix>
</trkpt>
<trkpt lat="40.0738756" lon="-105.2302746">
  <ele>1598.33</ele>
  <time>2026-08-28T19:08:15Z</time>
  <course>3.54</course>
  <speed>0.03</speed>
  <fix>3d</fix>
</trkpt>
<trkpt lat="40.0738756" lon="-105.2302746">
  <ele>1598.77</ele>
  <time>2026-08-28T19:08:15Z</time>
  <course>3.77</course>
  <speed>0.0316227766016838</speed>
  <fix>3d</fix>
</trkpt>
<trkpt lat="40.0738756" lon="-105.2302746">
  <ele>1598.2</ele>
  <time>2026-08-28T19:08:15Z</time>
  <course>252.18</course>
  <speed>0.04</speed>
  <fix>3d</fix>
</trkpt>
<trkpt lat="40.0738756" lon="-105.2302746">
  <ele>1598.77</ele>
  <time>2026-08-28T19:08:15Z</time>
  <course>3.77</course>
  <speed>0.0316227766016838</speed>
  <fix>3d</fix>
</trkpt>
<trkpt lat="40.0738756" lon="-105.2302747">
  <ele>1599.27</ele>
  <time>2026-08-28T19:08:15Z</time>
  <course>4.05</course>
  <speed>0.03605551275463989</speed>
  <fix>3d</fix>
</trkpt>
<trkpt lat="40.0738756" lon="-105.2302747">
  <ele>1598.7</ele>
  <time>2026-08-28T19:08:15Z</time>
  <course>241.24</course>
  <speed>0.04</speed>
  <fix>3d</fix>
</trkpt>
<trkpt lat="40.0738756" lon="-105.2302747">
  <ele>1599.35</ele>
  <time>2026-08-28T19:08:15Z</time>
  <course>4.09</course>
  <speed>0.03605551275463989</speed>
  <fix>3d</fix>
</trkpt>
<trkpt lat="40.0738756" lon="-105.2302748">
  <ele>1599.78</ele>
  <time>2026-08-28T19:08:15Z</time>
  <course>4.32</course>
  <speed>0.03605551275463989</speed>
  <fix>3d</fix>
</trkpt>
<trkpt lat="40.0738756" lon="-105.2302748">
  <ele>1599.2</ele>
  <time>2026-08-28T19:08:15Z</time>
  <course>233.43</course>
  <speed>0.04</speed>
  <fix>3d</fix>
</trkpt>
<trkpt lat="40.0738756" lon="-105.2302748">
  <ele>1599.85</ele>
  <time>2026-08-28T19:08:15Z</time>
  <course>4.36</course>
  <speed>0.0282842712474619</speed>
  <fix>3d</fix>
</trkpt>
<trkpt lat="40.0738755" lon="-105.2302749">
  <ele>1600.28</ele>
  <time>2026-08-28T19:08:15Z</time>
  <course>4.6</course>
  <speed>0.03605551275463989</speed>
  <fix>3d</fix>
</trkpt>
<trkpt lat="40.0738756" lon="-105.2302749">
  <ele>1599.7</ele>
  <time>2026-08-28T19:08:15Z</time>
  <course>227.14</course>
  <speed>0.04</speed>
  <fix>3d</fix>
</trkpt>
<trkpt lat="40.0738755" lon="-105.2302749">
  <ele>1600.35</ele>
  <time>2026-08-28T19:08:15Z</time>
  <course>4.63</course>
  <speed>0.03605551275463989</speed>
  <fix>3d</fix>
</trkpt>
<trkpt lat="40.0738755" lon="-105.2302749">
  <ele>1600.78</ele>
  <time>2026-08-28T19:08:15Z</time>
  <course>4.85</course>
  <speed>0.03605551275463989</speed>
  <fix>3d</fix>
</trkpt>
<trkpt lat="40.0738756" lon="-105.2302749">
  <ele>1600.2</ele>
  <time>2026-08-28T19:08:15Z</time>
  <course>221.31</course>
  <speed>0.04</speed>
  <fix>3d</fix>
</trkpt>
<trkpt lat="40.0738755" lon="-105.2302749">
  <ele>1600.86</ele>
  <time>2026-08-28T19:08:15Z</time>
  <course>4.88</course>
  <speed>0.0316227766016838</speed>
  <fix>3d</fix>
</trkpt>
<trkpt lat="40.0738754" lon="-105.230275">
  <ele>1601.28</ele>
  <time>2026-08-28T19:08:15Z</time>
  <course>5.07</course>
  <speed>0.0316227766016838</speed>
  <fix>3d</fix>
</trkpt>
<trkpt lat="40.0738755" lon="-105.230275">
  <ele>1600.7</ele>
  <time>2026-08-28T19:08:15Z</time>
  <course>216.02</course>
  <speed>0.04</speed>
  <fix>3d</fix>
</trkpt>
<trkpt lat="40.0738754" lon="-105.230275">
  <ele>1601.28</ele>
  <time>2026-08-28T19:08:15Z</time>
  <course>5.07</course>
  <speed>0.0316227766016838</speed>
  <fix>3d</fix>
</trkpt>
<trkpt lat="40.0738754" lon="-105.230275">
  <ele>1601.78</ele>
  <time>2026-08-28T19:08:15Z</time>
  <course>5.26</course>
  <speed>0.0316227766016838</speed>
  <fix>3d</fix>
</trkpt>
<trkpt lat="40.0738754" lon="-105.2302751">
  <ele>1601.19</ele>
  <time>2026-08-28T19:08:15Z</time>
  <course>211.56</course>
  <speed>0.03</speed>
  <fix>3d</fix>
</trkpt>
<trkpt lat="40.0738754" lon="-105.230275">
  <ele>1601.85</ele>
  <time>2026-08-28T19:08:15Z</time>
  <course>5.29</course>
  <speed>0.03</speed>
  <fix>3d</fix>
</trkpt>
<trkpt lat="40.0738753" lon="-105.230275">
  <ele>1602.27</ele>
  <time>2026-08-28T19:08:15Z</time>
  <course>5.47</course>
  <speed>0.02</speed>
  <fix>3d</fix>
</trkpt>
<trkpt lat="40.0738754" lon="-105.2302751">
  <ele>1601.69</ele>
  <time>2026-08-28T19:08:15Z</time>
  <course>208.31</course>
  <speed>0.03</speed>
  <fix>3d</fix>
</trkpt>
<trkpt lat="40.0738753" lon="-105.230275">
  <ele>1602.35</ele>
  <time>2026-08-28T19:08:15Z</time>
  <course>5.5</course>
  <speed>0.02</speed>
  <fix>3d</fix>
</trkpt>
<trkpt lat="40.0738753" lon="-105.2302751">
  <ele>1602.77</ele>
  <time>2026-08-28T19:08:15Z</time>
  <course>5.64</course>
  <speed>0.02</speed>
  <fix>3d</fix>
</trkpt>
<trkpt lat="40.0738753" lon="-105.2302752">
  <ele>1602.19</ele>
  <time>2026-08-28T19:08:15Z</time>
  <course>205.74</course>
  <speed>0.03</speed>
  <fix>3d</fix>
</trkpt>
<trkpt lat="40.0738753" lon="-105.2302751">
  <ele>1602.84</ele>
  <time>2026-08-28T19:08:15Z</time>
  <course>5.67</course>
  <speed>0.02</speed>
  <fix>3d</fix>
</trkpt>
<trkpt lat="40.0738752" lon="-105.2302751">
  <ele>1603.27</ele>
  <time>2026-08-28T19:08:15Z</time>
  <course>5.84</course>
  <speed>0.02</speed>
  <fix>3d</fix>
</trkpt>
<trkpt lat="40.0738753" lon="-105.2302752">
  <ele>1602.69</ele>
  <time>2026-08-28T19:08:15Z</time>
  <course>203.11</course>
  <speed>0.02</speed>
  <fix>3d</fix>
</trkpt>
<trkpt lat="40.0738752" lon="-105.2302751">
  <ele>1603.28</ele>
  <time>2026-08-28T19:08:15Z</time>
  <course>5.84</course>
  <speed>0.02</speed>
  <fix>3d</fix>
</trkpt>
<trkpt lat="40.0738752" lon="-105.2302751">
  <ele>1603.76</ele>
  <time>2026-08-28T19:08:15Z</time>
  <course>6.0</course>
  <speed>0.02</speed>
  <fix>3d</fix>
</trkpt>
<trkpt lat="40.0738752" lon="-105.2302752">
  <ele>1603.19</ele>
  <time>2026-08-28T19:08:15Z</time>
  <course>200.3</course>
  <speed>0.02</speed>
  <fix>3d</fix>
</trkpt>
<trkpt lat="40.0738752" lon="-105.2302751">
  <ele>1603.83</ele>
  <time>2026-08-28T19:08:15Z</time>
  <course>6.02</course>
  <speed>0.02</speed>
  <fix>3d</fix>
</trkpt>
<trkpt lat="40.0738752" lon="-105.2302751">
  <ele>1604.27</ele>
  <time>2026-08-28T19:08:15Z</time>
  <course>6.17</course>
  <speed>0.01</speed>
  <fix>3d</fix>
</trkpt>
<trkpt lat="40.0738751" lon="-105.2302752">
  <ele>1603.69</ele>
  <time>2026-08-28T19:08:15Z</time>
  <course>197.07</course>
  <speed>0.01</speed>
  <fix>3d</fix>
</trkpt>
<trkpt lat="40.0738752" lon="-105.2302751">
  <ele>1604.27</ele>
  <time>2026-08-28T19:08:15Z</time>
  <course>6.17</course>
  <speed>0.01</speed>
  <fix>3d</fix>
</trkpt>
<trkpt lat="40.0738751" lon="-105.2302751">
  <ele>1604.77</ele>
  <time>2026-08-28T19:08:15Z</time>
  <course>6.34</course>
  <speed>0.01414213562373095</speed>
  <fix>3d</fix>
</trkpt>
<trkpt lat="40.0738751" lon="-105.2302752">
  <ele>1604.19</ele>
  <time>2026-08-28T19:08:15Z</time>
  <course>193.89</course>
  <speed>0.01</speed>
  <fix>3d</fix>
</trkpt>
<trkpt lat="40.0738751" lon="-105.2302751">
  <ele>1604.85</ele>
  <time>2026-08-28T19:08:15Z</time>
  <course>6.36</course>
  <speed>0.01414213562373095</speed>
  <fix>3d</fix>
</trkpt>
<trkpt lat="40.0738751" lon="-105.2302751">
  <ele>1605.28</ele>
  <time>2026-08-28T19:08:15Z</time>
  <course>6.47</course>
  <speed>0.01414213562373095</speed>
  <fix>3d</fix>
</trkpt>
<trkpt lat="40.0738751" lon="-105.2302752">
  <ele>1604.69</ele>
  <time>2026-08-28T19:08:15Z</time>
  <course>190.01</course>
  <speed>0.01</speed>
  <fix>3d</fix>
</trkpt>
<trkpt lat="40.0738751" lon="-105.2302751">
  <ele>1605.35</ele>
  <time>2026-08-28T19:08:15Z</time>
  <course>6.5</course>
  <speed>0.01414213562373095</speed>
  <fix>3d</fix>
</trkpt>
<trkpt lat="40.0738751" lon="-105.2302751">
  <ele>1605.78</ele>
  <time>2026-08-28T19:08:15Z</time>
  <course>6.63</course>
  <speed>0.01</speed>
  <fix>3d</fix>
</trkpt>
<trkpt lat="40.073875" lon="-105.2302752">
  <ele>1605.19</ele>
  <time>2026-08-28T19:08:15Z</time>
  <course>183.93</course>
  <speed>0.0</speed>
  <fix>3d</fix>
</trkpt>
<trkpt lat="40.0738751" lon="-105.2302751">
  <ele>1605.79</ele>
  <time>2026-08-28T19:08:15Z</time>
  <course>6.63</course>
  <speed>0.01</speed>
  <fix>3d</fix>
</trkpt>
<trkpt lat="40.0738751" lon="-105.2302751">
  <ele>1606.27</ele>
  <time>2026-08-28T19:08:15Z</time>
  <course>6.78</course>
  <speed>0.01</speed>
  <fix>3d</fix>
</trkpt>
<trkpt lat="40.073875" lon="-105.2302752">
  <ele>1605.69</ele>
  <time>2026-08-28T19:08:15Z</time>
  <course>173.04</course>
  <speed>0.0</speed>
  <fix>3d</fix>
</trkpt>
<trkpt lat="40.0738751" lon="-105.2302751">
  <ele>1606.34</ele>
  <time>2026-08-28T19:08:15Z</time>
  <course>6.79</course>
  <speed>0.01</speed>
  <fix>3d</fix>
</trkpt>
<trkpt lat="40.0738751" lon="-105.2302751">
  <ele>1606.77</ele>
  <time>2026-08-28T19:08:15Z</time>
  <course>6.91</course>
  <speed>0.01</speed>
  <fix>3d</fix>
</trkpt>
<trkpt lat="40.073875" lon="-105.2302752">
  <ele>1606.18</ele>
  <time>2026-08-28T19:08:15Z</time>
  <course>86.28</course>
  <speed>0.0</speed>
  <fix>3d</fix>
</trkpt>
<trkpt lat="40.0738751" lon="-105.2302751">
  <ele>1606.78</ele>
  <time>2026-08-28T19:08:15Z</time>
  <course>6.91</course>
  <speed>0.01</speed>
  <fix>3d</fix>
</trkpt>
<trkpt lat="40.0738751" lon="-105.2302751">
  <ele>1607.26</ele>
  <time>2026-08-28T19:08:15Z</time>
  <course>7.03</course>
  <speed>0.01</speed>
  <fix>3d</fix>
</trkpt>
<trkpt lat="40.073875" lon="-105.2302752">
  <ele>1606.68</ele>
  <time>2026-08-28T19:08:15Z</time>
  <course>20.96</course>
  <speed>0.0</speed>
  <fix>3d</fix>
</trkpt>
<trkpt lat="40.0738751" lon="-105.2302751">
  <ele>1607.33</ele>
  <time>2026-08-28T19:08:15Z</time>
  <course>7.04</course>
  <speed>0.01</speed>
  <fix>3d</fix>
</trkpt>
<trkpt lat="40.0738751" lon="-105.2302751">
  <ele>1607.76</ele>
  <time>2026-08-28T19:08:15Z</time>
  <course>7.15</course>
  <speed>0.01</speed>
  <fix>3d</fix>
</trkpt>
<trkpt lat="40.073875" lon="-105.2302752">
  <ele>1607.18</ele>
  <time>2026-08-28T19:08:15Z</time>
  <course>10.33</course>
  <speed>0.0</speed>
  <fix>3d</fix>
</trkpt>
<trkpt lat="40.0738751" lon="-105.2302751">
  <ele>1607.82</ele>
  <time>2026-08-28T19:08:15Z</time>
  <course>7.16</course>
  <speed>0.01</speed>
  <fix>3d</fix>
</trkpt>
<trkpt lat="40.0738751" lon="-105.2302751">
  <ele>1608.25</ele>
  <time>2026-08-28T19:08:15Z</time>
  <course>7.24</course>
  <speed>0.01</speed>
  <fix>3d</fix>
</trkpt>
<trkpt lat="40.073875" lon="-105.2302752">
  <ele>1607.68</ele>
  <time>2026-08-28T19:08:15Z</time>
  <course>2.45</course>
  <speed>0.01</speed>
  <fix>3d</fix>
</trkpt>
<trkpt lat="40.0738751" lon="-105.2302751">
  <ele>1608.26</ele>
  <time>2026-08-28T19:08:15Z</time>
  <course>7.24</course>
  <speed>0.01</speed>
  <fix>3d</fix>
</trkpt>
<trkpt lat="40.0738751" lon="-105.2302751">
  <ele>1608.75</ele>
  <time>2026-08-28T19:08:15Z</time>
  <course>7.32</course>
  <speed>0.01</speed>
  <fix>3d</fix>
</trkpt>
<trkpt lat="40.073875" lon="-105.2302752">
  <ele>1608.18</ele>
  <time>2026-08-28T19:08:15Z</time>
  <course>357.53</course>
  <speed>0.01</speed>
  <fix>3d</fix>
</trkpt>
<trkpt lat="40.0738751" lon="-105.2302751">
  <ele>1608.82</ele>
  <time>2026-08-28T19:08:15Z</time>
  <course>7.34</course>
  <speed>0.01</speed>
  <fix>3d</fix>
</trkpt>
<trkpt lat="40.0738751" lon="-105.2302751">
  <ele>1609.25</ele>
  <time>2026-08-28T19:08:15Z</time>
  <course>7.42</course>
  <speed>0.01</speed>
  <fix>3d</fix>
</trkpt>
<trkpt lat="40.073875" lon="-105.2302752">
  <ele>1608.68</ele>
  <time>2026-08-28T19:08:15Z</time>
  <course>355.48</course>
  <speed>0.01</speed>
  <fix>3d</fix>
</trkpt>
<trkpt lat="40.0738751" lon="-105.2302751">
  <ele>1609.31</ele>
  <time>2026-08-28T19:08:15Z</time>
  <course>7.43</course>
  <speed>0.01</speed>
  <fix>3d</fix>
</trkpt>
<trkpt lat="40.0738751" lon="-105.2302751">
  <ele>1609.75</ele>
  <time>2026-08-28T19:08:15Z</time>
  <course>7.53</course>
  <speed>0.01</speed>
  <fix>3d</fix>
</trkpt>
<trkpt lat="40.073875" lon="-105.2302752">
  <ele>1609.19</ele>
  <time>2026-08-28T19:08:15Z</time>
  <course>354.19</course>
  <speed>0.01</speed>
  <fix>3d</fix>
</trkpt>
<trkpt lat="40.0738751" lon="-105.2302751">
  <ele>1609.75</ele>
  <time>2026-08-28T19:08:15Z</time>
  <course>7.53</course>
  <speed>0.01</speed>
  <fix>3d</fix>
</trkpt>
<trkpt lat="40.0738751" lon="-105.2302751">
  <ele>1610.25</ele>
  <time>2026-08-28T19:08:15Z</time>
  <course>7.66</course>
  <speed>0.01</speed>
  <fix>3d</fix>
</trkpt>
<trkpt lat="40.0738751" lon="-105.2302752">
  <ele>1609.69</ele>
  <time>2026-08-28T19:08:15Z</time>
  <course>351.21</course>
  <speed>0.01</speed>
  <fix>3d</fix>
</trkpt>
<trkpt lat="40.0738751" lon="-105.2302751">
  <ele>1610.31</ele>
  <time>2026-08-28T19:08:15Z</time>
  <course>7.67</course>
  <speed>0.01</speed>
  <fix>3d</fix>
</trkpt>
<trkpt lat="40.0738751" lon="-105.2302751">
  <ele>1610.75</ele>
  <time>2026-08-28T19:08:15Z</time>
  <course>7.76</course>
  <speed>0.01</speed>
  <fix>3d</fix>
</trkpt>
<trkpt lat="40.0738751" lon="-105.2302752">
  <ele>1610.2</ele>
  <time>2026-08-28T19:08:15Z</time>
  <course>349.26</course>
  <speed>0.01</speed>
  <fix>3d</fix>
</trkpt>
<trkpt lat="40.0738751" lon="-105.2302751">
  <ele>1610.77</ele>
  <time>2026-08-28T19:08:15Z</time>
  <course>7.76</course>
  <speed>0.01</speed>
  <fix>3d</fix>
</trkpt>
<trkpt lat="40.0738751" lon="-105.2302751">
  <ele>1611.25</ele>
  <time>2026-08-28T19:08:15Z</time>
  <course>7.83</course>
  <speed>0.01</speed>
  <fix>3d</fix>
</trkpt>
<trkpt lat="40.0738751" lon="-105.2302752">
  <ele>1610.7</ele>
  <time>2026-08-28T19:08:15Z</time>
  <course>349.24</course>
  <speed>0.01</speed>
  <fix>3d</fix>
</trkpt>
<trkpt lat="40.0738751" lon="-105.2302751">
  <ele>1611.25</ele>
  <time>2026-08-28T19:08:15Z</time>
  <course>7.83</course>
  <speed>0.01</speed>
  <fix>3d</fix>
</trkpt>
<trkpt lat="40.0738751" lon="-105.2302751">
  <ele>1611.75</ele>
  <time>2026-08-28T19:08:15Z</time>
  <course>7.93</course>
  <speed>0.01</speed>
  <fix>3d</fix>
</trkpt>
<trkpt lat="40.0738751" lon="-105.2302752">
  <ele>1611.21</ele>
  <time>2026-08-28T19:08:15Z</time>
  <course>348.84</course>
  <speed>0.01</speed>
  <fix>3d</fix>
</trkpt>
<trkpt lat="40.0738751" lon="-105.2302751">
  <ele>1611.85</ele>
  <time>2026-08-28T19:08:15Z</time>
  <course>7.94</course>
  <speed>0.01</speed>
  <fix>3d</fix>
</trkpt>
<trkpt lat="40.0738751" lon="-105.2302751">
  <ele>1612.25</ele>
  <time>2026-08-28T19:08:15Z</time>
  <course>8.03</course>
  <speed>0.01</speed>
  <fix>3d</fix>
</trkpt>
<trkpt lat="40.0738752" lon="-105.2302752">
  <ele>1611.71</ele>
  <time>2026-08-28T19:08:15Z</time>
  <course>346.67</course>
  <speed>0.01</speed>
  <fix>3d</fix>
</trkpt>
<trkpt lat="40.0738751" lon="-105.2302751">
  <ele>1612.26</ele>
  <time>2026-08-28T19:08:15Z</time>
  <course>8.03</course>
  <speed>0.01</speed>
  <fix>3d</fix>
</trkpt>
<trkpt lat="40.0738751" lon="-105.2302751">
  <ele>1612.76</ele>
  <time>2026-08-28T19:08:15Z</time>
  <course>8.1</course>
  <speed>0.01</speed>
  <fix>3d</fix>
</trkpt>
<trkpt lat="40.0738753" lon="-105.2302752">
  <ele>1612.22</ele>
  <time>2026-08-28T19:08:15Z</time>
  <course>344.61</course>
  <speed>0.01</speed>
  <fix>3d</fix>
</trkpt>
<trkpt lat="40.0738751" lon="-105.2302751">
  <ele>1612.82</ele>
  <time>2026-08-28T19:08:15Z</time>
  <course>8.12</course>
  <speed>0.01</speed>
  <fix>3d</fix>
</trkpt>
<trkpt lat="40.0738751" lon="-105.2302751">
  <ele>1613.26</ele>
  <time>2026-08-28T19:08:15Z</time>
  <course>8.18</course>
  <speed>0.01</speed>
  <fix>3d</fix>
</trkpt>
<trkpt lat="40.0738753" lon="-105.2302752">
  <ele>1612.73</ele>
  <time>2026-08-28T19:08:15Z</time>
  <course>343.9</course>
  <speed>0.01</speed>
  <fix>3d</fix>
</trkpt>
<trkpt lat="40.0738751" lon="-105.2302751">
  <ele>1613.27</ele>
  <time>2026-08-28T19:08:15Z</time>
  <course>8.18</course>
  <speed>0.01</speed>
  <fix>3d</fix>
</trkpt>
<trkpt lat="40.0738751" lon="-105.2302751">
  <ele>1613.77</ele>
  <time>2026-08-28T19:08:15Z</time>
  <course>8.27</course>
  <speed>0.01</speed>
  <fix>3d</fix>
</trkpt>
<trkpt lat="40.0738753" lon="-105.2302752">
  <ele>1613.23</ele>
  <time>2026-08-28T19:08:15Z</time>
  <course>342.34</course>
  <speed>0.0</speed>
  <fix>3d</fix>
</trkpt>
<trkpt lat="40.0738751" lon="-105.2302751">
  <ele>1613.86</ele>
  <time>2026-08-28T19:08:15Z</time>
  <course>8.29</course>
  <speed>0.01</speed>
  <fix>3d</fix>
</trkpt>
<trkpt lat="40.0738752" lon="-105.2302751">
  <ele>1614.28</ele>
  <time>2026-08-28T19:08:15Z</time>
  <course>8.39</course>
  <speed>0.01</speed>
  <fix>3d</fix>
</trkpt>
<trkpt lat="40.0738753" lon="-105.2302752">
  <ele>1613.73</ele>
  <time>2026-08-28T19:08:15Z</time>
  <course>336.46</course>
  <speed>0.0</speed>
  <fix>3d</fix>
</trkpt>
<trkpt lat="40.0738752" lon="-105.2302751">
  <ele>1614.35</ele>
  <time>2026-08-28T19:08:15Z</time>
  <course>8.41</course>
  <speed>0.01</speed>
  <fix>3d</fix>
</trkpt>
<trkpt lat="40.0738752" lon="-105.2302751">
  <ele>1614.78</ele>
  <time>2026-08-28T19:08:15Z</time>
  <course>8.48</course>
  <speed>0.01414213562373095</speed>
  <fix>3d</fix>
</trkpt>
<trkpt lat="40.0738753" lon="-105.2302752">
  <ele>1614.24</ele>
  <time>2026-08-28T19:08:15Z</time>
  <course>325.16</course>
  <speed>0.0</speed>
  <fix>3d</fix>
</trkpt>
<trkpt lat="40.0738752" lon="-105.2302751">
  <ele>1614.85</ele>
  <time>2026-08-28T19:08:15Z</time>
  <course>8.49</course>
  <speed>0.01414213562373095</speed>
  <fix>3d</fix>
</trkpt>
<trkpt lat="40.0738752" lon="-105.2302751">
  <ele>1615.28</ele>
  <time>2026-08-28T19:08:15Z</time>
  <course>8.55</course>
  <speed>0.01414213562373095</speed>
  <fix>3d</fix>
</trkpt>
<trkpt lat="40.0738753" lon="-105.2302752">
  <ele>1614.74</ele>
  <time>2026-08-28T19:08:15Z</time>
  <course>303.03</course>
  <speed>0.0</speed>
  <fix>3d</fix>
</trkpt>
<trkpt lat="40.0738752" lon="-105.2302751">
  <ele>1615.35</ele>
  <time>2026-08-28T19:08:15Z</time>
  <course>8.56</course>
  <speed>0.01414213562373095</speed>
  <fix>3d</fix>
</trkpt>
<trkpt lat="40.0738752" lon="-105.2302751">
  <ele>1615.78</ele>
  <time>2026-08-28T19:08:15Z</time>
  <course>8.61</course>
  <speed>0.01414213562373095</speed>
  <fix>3d</fix>
</trkpt>
<trkpt lat="40.0738753" lon="-105.2302753">
  <ele>1615.24</ele>
  <time>2026-08-28T19:08:15Z</time>
  <course>249.82</course>
  <speed>0.0</speed>
  <fix>3d</fix>
</trkpt>
<trkpt lat="40.0738752" lon="-105.2302751">
  <ele>1615.78</ele>
  <time>2026-08-28T19:08:15Z</time>
  <course>8.61</course>
  <speed>0.01414213562373095</speed>
  <fix>3d</fix>
</trkpt>
<trkpt lat="40.0738752" lon="-105.2302751">
  <ele>1616.28</ele>
  <time>2026-08-28T19:08:15Z</time>
  <course>8.68</course>
  <speed>0.01414213562373095</speed>
  <fix>3d</fix>
</trkpt>
<trkpt lat="40.0738753" lon="-105.2302754">
  <ele>1615.74</ele>
  <time>2026-08-28T19:08:15Z</time>
  <course>207.3</course>
  <speed>0.0</speed>
  <fix>3d</fix>
</trkpt>
<trkpt lat="40.0738752" lon="-105.2302751">
  <ele>1616.34</ele>
  <time>2026-08-28T19:08:15Z</time>
  <course>8.69</course>
  <speed>0.01414213562373095</speed>
  <fix>3d</fix>
</trkpt>
<trkpt lat="40.0738752" lon="-105.2302751">
  <ele>1616.78</ele>
  <time>2026-08-28T19:08:15Z</time>
  <course>8.74</course>
  <speed>0.022360679774997897</speed>
  <fix>3d</fix>
</trkpt>
<trkpt lat="40.0738753" lon="-105.2302754">
  <ele>1616.24</ele>
  <time>2026-08-28T19:08:15Z</time>
  <course>192.1</course>
  <speed>0.0</speed>
  <fix>3d</fix>
</trkpt>
<trkpt lat="40.0738752" lon="-105.2302751">
  <ele>1616.85</ele>
  <time>2026-08-28T19:08:15Z</time>
  <course>8.75</course>
  <speed>0.01414213562373095</speed>
  <fix>3d</fix>
</trkpt>
<trkpt lat="40.0738752" lon="-105.2302751">
  <ele>1617.29</ele>
  <time>2026-08-28T19:08:15Z</time>
  <course>8.82</course>
  <speed>0.022360679774997897</speed>
  <fix>3d</fix>
</trkpt>
<trkpt lat="40.0738753" lon="-105.2302754">
  <ele>1616.74</ele>
  <time>2026-08-28T19:08:15Z</time>
  <course>184.69</course>
  <speed>0.0</speed>
  <fix>3d</fix>
</trkpt>
<trkpt lat="40.0738752" lon="-105.2302751">
  <ele>1617.36</ele>
  <time>2026-08-28T19:08:15Z</time>
  <course>8.83</course>
  <speed>0.022360679774997897</speed>
  <fix>3d</fix>
</trkpt>
<trkpt lat="40.0738752" lon="-105.2302751">
  <ele>1617.79</ele>
  <time>2026-08-28T19:08:15Z</time>
  <course>8.91</course>
  <speed>0.022360679774997897</speed>
  <fix>3d</fix>
</trkpt>
<trkpt lat="40.0738753" lon="-105.2302754">
  <ele>1617.24</ele>
  <time>2026-08-28T19:08:15Z</time>
  <course>177.66</course>
  <speed>0.0</speed>
  <fix>3d</fix>
</trkpt>
<trkpt lat="40.0738752" lon="-105.2302751">
  <ele>1617.85</ele>
  <time>2026-08-28T19:08:15Z</time>
  <course>8.91</course>
  <speed>0.022360679774997897</speed>
  <fix>3d</fix>
</trkpt>
<trkpt lat="40.0738752" lon="-105.2302751">
  <ele>1618.29</ele>
  <time>2026-08-28T19:08:15Z</time>
  <course>8.96</course>
  <speed>0.0282842712474619</speed>
  <fix>3d</fix>
</trkpt>
<trkpt lat="40.0738753" lon="-105.2302754">
  <ele>1617.74</ele>
  <time>2026-08-28T19:08:15Z</time>
  <course>170.25</course>
  <speed>0.0</speed>
  <fix>3d</fix>
</trkpt>
<trkpt lat="40.0738752" lon="-105.2302751">
  <ele>1618.29</ele>
  <time>2026-08-28T19:08:15Z</time>
  <course>8.96</course>
  <speed>0.0282842712474619</speed>
  <fix>3d</fix>
</trkpt>
<trkpt lat="40.0738752" lon="-105.2302751">
  <ele>1618.78</ele>
  <time>2026-08-28T19:08:15Z</time>
  <course>9.0</course>
  <speed>0.0282842712474619</speed>
  <fix>3d</fix>
</trkpt>
<trkpt lat="40.0738753" lon="-105.2302754">
  <ele>1618.23</ele>
  <time>2026-08-28T19:08:15Z</time>
  <course>162.31</course>
  <speed>0.0</speed>
  <fix>3d</fix>
</trkpt>
<trkpt lat="40.0738752" lon="-105.2302751">
  <ele>1618.85</ele>
  <time>2026-08-28T19:08:15Z</time>
  <course>9.01</course>
  <speed>0.0282842712474619</speed>
  <fix>3d</fix>
</trkpt>
<trkpt lat="40.0738752" lon="-105.2302751">
  <ele>1619.28</ele>
  <time>2026-08-28T19:08:15Z</time>
  <course>9.05</course>
  <speed>0.0282842712474619</speed>
  <fix>3d</fix>
</trkpt>
<trkpt lat="40.0738753" lon="-105.2302754">
  <ele>1618.73</ele>
  <time>2026-08-28T19:08:15Z</time>
  <course>156.87</course>
  <speed>0.0</speed>
  <fix>3d</fix>
</trkpt>
<trkpt lat="40.0738752" lon="-105.2302751">
  <ele>1619.35</ele>
  <time>2026-08-28T19:08:15Z</time>
  <course>9.06</course>
  <speed>0.0282842712474619</speed>
  <fix>3d</fix>
</trkpt>
<trkpt lat="40.0738752" lon="-105.2302751">
  <ele>1619.78</ele>
  <time>2026-08-28T19:08:15Z</time>
  <course>9.12</course>
  <speed>0.0282842712474619</speed>
  <fix>3d</fix>
</trkpt>
<trkpt lat="40.0738753" lon="-105.2302754">
  <ele>1619.23</ele>
  <time>2026-08-28T19:08:15Z</time>
  <course>154.58</course>
  <speed>0.01</speed>
  <fix>3d</fix>
</trkpt>
<trkpt lat="40.0738752" lon="-105.2302751">
  <ele>1619.85</ele>
  <time>2026-08-28T19:08:15Z</time>
  <course>9.13</course>
  <speed>0.0282842712474619</speed>
  <fix>3d</fix>
</trkpt>
<trkpt lat="40.0738752" lon="-105.2302751">
  <ele>1620.28</ele>
  <time>2026-08-28T19:08:15Z</time>
  <course>9.17</course>
  <speed>0.0282842712474619</speed>
  <fix>3d</fix>
</trkpt>
<trkpt lat="40.0738753" lon="-105.2302754">
  <ele>1619.72</ele>
  <time>2026-08-28T19:08:15Z</time>
  <course>152.52</course>
  <speed>0.01</speed>
  <fix>3d</fix>
</trkpt>
<trkpt lat="40.0738752" lon="-105.2302751">
  <ele>1620.35</ele>
  <time>2026-08-28T19:08:15Z</time>
  <course>9.18</course>
  <speed>0.0282842712474619</speed>
  <fix>3d</fix>
</trkpt>
<trkpt lat="40.0738752" lon="-105.2302751">
  <ele>1620.79</ele>
  <time>2026-08-28T19:08:15Z</time>
  <course>9.22</course>
  <speed>0.0282842712474619</speed>
  <fix>3d</fix>
</trkpt>
<trkpt lat="40.0738753" lon="-105.2302754">
  <ele>1620.22</ele>
  <time>2026-08-28T19:08:15Z</time>
  <course>149.54</course>
  <speed>0.01</speed>
  <fix>3d</fix>
</trkpt>
<trkpt lat="40.0738752" lon="-105.2302751">
  <ele>1620.79</ele>
  <time>2026-08-28T19:08:15Z</time>
  <course>9.22</course>
  <speed>0.0282842712474619</speed>
  <fix>3d</fix>
</trkpt>
<trkpt lat="40.0738752" lon="-105.2302751">
  <ele>1621.28</ele>
  <time>2026-08-28T19:08:15Z</time>
  <course>9.28</course>
  <speed>0.022360679774997897</speed>
  <fix>3d</fix>
</trkpt>
<trkpt lat="40.0738753" lon="-105.2302754">
  <ele>1620.72</ele>
  <time>2026-08-28T19:08:15Z</time>
  <course>148.0</course>
  <speed>0.01</speed>
  <fix>3d</fix>
</trkpt>
<trkpt lat="40.0738752" lon="-105.2302751">
  <ele>1621.35</ele>
  <time>2026-08-28T19:08:15Z</time>
  <course>9.29</course>
  <speed>0.022360679774997897</speed>
  <fix>3d</fix>
</trkpt>
<trkpt lat="40.0738752" lon="-105.2302751">
  <ele>1621.77</ele>
  <time>2026-08-28T19:08:15Z</time>
  <course>9.34</course>
  <speed>0.022360679774997897</speed>
  <fix>3d</fix>
</trkpt>
<trkpt lat="40.0738753" lon="-105.2302754">
  <ele>1621.22</ele>
  <time>2026-08-28T19:08:15Z</time>
  <course>147.65</course>
  <speed>0.01</speed>
  <fix>3d</fix>
</trkpt>
<trkpt lat="40.0738752" lon="-105.2302751">
  <ele>1621.83</ele>
  <time>2026-08-28T19:08:15Z</time>
  <course>9.34</course>
  <speed>0.022360679774997897</speed>
  <fix>3d</fix>
</trkpt>
<trkpt lat="40.0738752" lon="-105.2302751">
  <ele>1622.27</ele>
  <time>2026-08-28T19:08:15Z</time>
  <course>9.38</course>
  <speed>0.0282842712474619</speed>
  <fix>3d</fix>
</trkpt>
<trkpt lat="40.0738752" lon="-105.2302754">
  <ele>1621.71</ele>
  <time>2026-08-28T19:08:15Z</time>
  <course>147.67</course>
  <speed>0.01</speed>
  <fix>3d</fix>
</trkpt>
<trkpt lat="40.0738752" lon="-105.2302751">
  <ele>1622.33</ele>
  <time>2026-08-28T19:08:15Z</time>
  <course>9.38</course>
  <speed>0.0282842712474619</speed>
  <fix>3d</fix>
</trkpt>
<trkpt lat="40.0738751" lon="-105.2302751">
  <ele>1622.76</ele>
  <time>2026-08-28T19:08:15Z</time>
  <course>9.42</course>
  <speed>0.022360679774997897</speed>
  <fix>3d</fix>
</trkpt>
<trkpt lat="40.0738751" lon="-105.2302753">
  <ele>1622.21</ele>
  <time>2026-08-28T19:08:15Z</time>
  <course>148.05</course>
  <speed>0.01</speed>
  <fix>3d</fix>
</trkpt>
<trkpt lat="40.0738751" lon="-105.2302751">
  <ele>1622.83</ele>
  <time>2026-08-28T19:08:15Z</time>
  <course>9.42</course>
  <speed>0.022360679774997897</speed>
  <fix>3d</fix>
</trkpt>
<trkpt lat="40.0738751" lon="-105.2302751">
  <ele>1623.26</ele>
  <time>2026-08-28T19:08:15Z</time>
  <course>9.45</course>
  <speed>0.022360679774997897</speed>
  <fix>3d</fix>
</trkpt>
<trkpt lat="40.0738751" lon="-105.2302752">
  <ele>1622.71</ele>
  <time>2026-08-28T19:08:15Z</time>
  <course>145.72</course>
  <speed>0.01</speed>
  <fix>3d</fix>
</trkpt>
<trkpt lat="40.0738751" lon="-105.2302751">
  <ele>1623.26</ele>
  <time>2026-08-28T19:08:15Z</time>
  <course>9.45</course>
  <speed>0.022360679774997897</speed>
  <fix>3d</fix>
</trkpt>
<trkpt lat="40.0738751" lon="-105.2302751">
  <ele>1623.76</ele>
  <time>2026-08-28T19:08:16Z</time>
  <course>9.46</course>
  <speed>0.022360679774997897</speed>
  <fix>3d</fix>
</trkpt>
<trkpt lat="40.0738751" lon="-105.2302752">
  <ele>1623.21</ele>
  <time>2026-08-28T19:08:16Z</time>
  <course>143.38</course>
  <speed>0.01</speed>
  <fix>3d</fix>
</trkpt>
<trkpt lat="40.0738751" lon="-105.2302751">
  <ele>1623.82</ele>
  <time>2026-08-28T19:08:16Z</time>
  <course>9.46</course>
  <speed>0.022360679774997897</speed>
  <fix>3d</fix>
</trkpt>
<trkpt lat="40.0738751" lon="-105.2302751">
  <ele>1624.26</ele>
  <time>2026-08-28T19:08:16Z</time>
  <course>9.51</course>
  <speed>0.022360679774997897</speed>
  <fix>3d</fix>
</trkpt>
<trkpt lat="40.0738751" lon="-105.2302752">
  <ele>1623.71</ele>
  <time>2026-08-28T19:08:16Z</time>
  <course>143.98</course>
  <speed>0.01</speed>
  <fix>3d</fix>
</trkpt>
<trkpt lat="40.0738751" lon="-105.2302751">
  <ele>1624.32</ele>
  <time>2026-08-28T19:08:16Z</time>
  <course>9.53</course>
  <speed>0.022360679774997897</speed>
  <fix>3d</fix>
</trkpt>
<trkpt lat="40.0738751" lon="-105.2302751">
  <ele>1624.76</ele>
  <time>2026-08-28T19:08:16Z</time>
  <course>9.56</course>
  <speed>0.022360679774997897</speed>
  <fix>3d</fix>
</trkpt>
<trkpt lat="40.0738751" lon="-105.2302752">
  <ele>1624.22</ele>
  <time>2026-08-28T19:08:16Z</time>
  <course>145.21</course>
  <speed>0.0</speed>
  <fix>3d</fix>
</trkpt>
<trkpt lat="40.0738751" lon="-105.2302751">
  <ele>1624.82</ele>
  <time>2026-08-28T19:08:16Z</time>
  <course>9.56</course>
  <speed>0.022360679774997897</speed>
  <fix>3d</fix>
</trkpt>
<trkpt lat="40.0738751" lon="-105.2302751">
  <ele>1625.26</ele>
  <time>2026-08-28T19:08:16Z</time>
  <course>9.6</course>
  <speed>0.022360679774997897</speed>
  <fix>3d</fix>
</trkpt>
<trkpt lat="40.0738751" lon="-105.2302752">
  <ele>1624.72</ele>
  <time>2026-08-28T19:08:16Z</time>
  <course>148.0</course>
  <speed>0.0</speed>
  <fix>3d</fix>
</trkpt>
<trkpt lat="40.0738751" lon="-105.2302751">
  <ele>1625.32</ele>
  <time>2026-08-28T19:08:16Z</time>
  <course>9.6</course>
  <speed>0.022360679774997897</speed>
  <fix>3d</fix>
</trkpt>
<trkpt lat="40.073875" lon="-105.230275">
  <ele>1625.77</ele>
  <time>2026-08-28T19:08:16Z</time>
  <course>9.66</course>
  <speed>0.022360679774997897</speed>
  <fix>3d</fix>
</trkpt>
<trkpt lat="40.073875" lon="-105.2302752">
  <ele>1625.22</ele>
  <time>2026-08-28T19:08:16Z</time>
  <course>158.37</course>
  <speed>0.0</speed>
  <fix>3d</fix>
</trkpt>
<trkpt lat="40.073875" lon="-105.230275">
  <ele>1625.83</ele>
  <time>2026-08-28T19:08:16Z</time>
  <course>9.67</course>
  <speed>0.022360679774997897</speed>
  <fix>3d</fix>
</trkpt>
<trkpt lat="40.073875" lon="-105.230275">
  <ele>1626.27</ele>
  <time>2026-08-28T19:08:16Z</time>
  <course>9.75</course>
  <speed>0.022360679774997897</speed>
  <fix>3d</fix>
</trkpt>
<trkpt lat="40.073875" lon="-105.2302752">
  <ele>1625.72</ele>
  <time>2026-08-28T19:08:16Z</time>
  <course>179.59</course>
  <speed>0.0</speed>
  <fix>3d</fix>
</trkpt>
<trkpt lat="40.073875" lon="-105.230275">
  <ele>1626.34</ele>
  <time>2026-08-28T19:08:16Z</time>
  <course>9.76</course>
  <speed>0.022360679774997897</speed>
  <fix>3d</fix>
</trkpt>
<trkpt lat="40.073875" lon="-105.230275">
  <ele>1626.78</ele>
  <time>2026-08-28T19:08:16Z</time>
  <course>9.8</course>
  <speed>0.022360679774997897</speed>
  <fix>3d</fix>
</trkpt>
<trkpt lat="40.073875" lon="-105.2302752">
  <ele>1626.23</ele>
  <time>2026-08-28T19:08:16Z</time>
  <course>211.01</course>
  <speed>0.0</speed>
  <fix>3d</fix>
</trkpt>
<trkpt lat="40.073875" lon="-105.230275">
  <ele>1626.84</ele>
  <time>2026-08-28T19:08:16Z</time>
  <course>9.81</course>
  <speed>0.022360679774997897</speed>
  <fix>3d</fix>
</trkpt>
<trkpt lat="40.073875" lon="-105.230275">
  <ele>1627.28</ele>
  <time>2026-08-28T19:08:16Z</time>
  <course>9.85</course>
  <speed>0.022360679774997897</speed>
  <fix>3d</fix>
</trkpt>
<trkpt lat="40.073875" lon="-105.2302752">
  <ele>1626.73</ele>
  <time>2026-08-28T19:08:16Z</time>
  <course>247.26</course>
  <speed>0.0</speed>
  <fix>3d</fix>
</trkpt>
<trkpt lat="40.073875" lon="-105.230275">
  <ele>1627.34</ele>
  <time>2026-08-28T19:08:16Z</time>
  <course>9.85</course>
  <speed>0.022360679774997897</speed>
  <fix>3d</fix>
</trkpt>
<trkpt lat="40.073875" lon="-105.230275">
  <ele>1627.79</ele>
  <time>2026-08-28T19:08:16Z</time>
  <course>9.91</course>
  <speed>0.01414213562373095</speed>
  <fix>3d</fix>
</trkpt>
<trkpt lat="40.073875" lon="-105.2302752">
  <ele>1627.23</ele>
  <time>2026-08-28T19:08:16Z</time>
  <course>275.44</course>
  <speed>0.0</speed>
  <fix>3d</fix>
</trkpt>
<trkpt lat="40.073875" lon="-105.230275">
  <ele>1627.85</ele>
  <time>2026-08-28T19:08:16Z</time>
  <course>9.92</course>
  <speed>0.01414213562373095</speed>
  <fix>3d</fix>
</trkpt>
<trkpt lat="40.073875" lon="-105.230275">
  <ele>1628.29</ele>
  <time>2026-08-28T19:08:16Z</time>
  <course>9.94</course>
  <speed>0.01</speed>
  <fix>3d</fix>
</trkpt>
<trkpt lat="40.073875" lon="-105.2302752">
  <ele>1627.73</ele>
  <time>2026-08-28T19:08:16Z</time>
  <course>299.45</course>
  <speed>0.0</speed>
  <fix>3d</fix>
</trkpt>
<trkpt lat="40.073875" lon="-105.230275">
  <ele>1628.35</ele>
  <time>2026-08-28T19:08:16Z</time>
  <course>9.96</course>
  <speed>0.01</speed>
  <fix>3d</fix>
</trkpt>
<trkpt lat="40.073875" lon="-105.2302751">
  <ele>1628.79</ele>
  <time>2026-08-28T19:08:16Z</time>
  <course>9.99</course>
  <speed>0.02</speed>
  <fix>3d</fix>
</trkpt>
<trkpt lat="40.073875" lon="-105.2302752">
  <ele>1628.23</ele>
  <time>2026-08-28T19:08:16Z</time>
  <course>317.94</course>
  <speed>0.0</speed>
  <fix>3d</fix>
</trkpt>
<trkpt lat="40.073875" lon="-105.230275">
  <ele>1628.8</ele>
  <time>2026-08-28T19:08:16Z</time>
  <course>9.99</course>
  <speed>0.02</speed>
  <fix>3d</fix>
</trkpt>
<trkpt lat="40.073875" lon="-105.2302751">
  <ele>1629.29</ele>
  <time>2026-08-28T19:08:16Z</time>
  <course>10.05</course>
  <speed>0.02</speed>
  <fix>3d</fix>
</trkpt>
<trkpt lat="40.073875" lon="-105.2302752">
  <ele>1628.72</ele>
  <time>2026-08-28T19:08:16Z</time>
  <course>324.3</course>
  <speed>0.0</speed>
  <fix>3d</fix>
</trkpt>
<trkpt lat="40.073875" lon="-105.2302751">
  <ele>1629.35</ele>
  <time>2026-08-28T19:08:16Z</time>
  <course>10.06</course>
  <speed>0.02</speed>
  <fix>3d</fix>
</trkpt>
<trkpt lat="40.073875" lon="-105.2302751">
  <ele>1629.78</ele>
  <time>2026-08-28T19:08:16Z</time>
  <course>10.08</course>
  <speed>0.02</speed>
  <fix>3d</fix>
</trkpt>
<trkpt lat="40.073875" lon="-105.2302752">
  <ele>1629.22</ele>
  <time>2026-08-28T19:08:16Z</time>
  <course>328.65</course>
  <speed>0.0</speed>
  <fix>3d</fix>
</trkpt>
<trkpt lat="40.073875" lon="-105.2302751">
  <ele>1629.85</ele>
  <time>2026-08-28T19:08:16Z</time>
  <course>10.07</course>
  <speed>0.02</speed>
  <fix>3d</fix>
</trkpt>
<trkpt lat="40.073875" lon="-105.2302751">
  <ele>1630.28</ele>
  <time>2026-08-28T19:08:16Z</time>
  <course>10.09</course>
  <speed>0.02</speed>
  <fix>3d</fix>
</trkpt>
<trkpt lat="40.073875" lon="-105.2302752">
  <ele>1629.72</ele>
  <time>2026-08-28T19:08:16Z</time>
  <course>332.31</course>
  <speed>0.0</speed>
  <fix>3d</fix>
</trkpt>
<trkpt lat="40.073875" lon="-105.2302751">
  <ele>1630.35</ele>
  <time>2026-08-28T19:08:16Z</time>
  <course>10.1</course>
  <speed>0.02</speed>
  <fix>3d</fix>
</trkpt>
<trkpt lat="40.073875" lon="-105.2302751">
  <ele>1630.78</ele>
  <time>2026-08-28T19:08:16Z</time>
  <course>10.12</course>
  <speed>0.02</speed>
  <fix>3d</fix>
</trkpt>
<trkpt lat="40.073875" lon="-105.2302752">
  <ele>1630.21</ele>
  <time>2026-08-28T19:08:16Z</time>
  <course>334.11</course>
  <speed>0.01</speed>
  <fix>3d</fix>
</trkpt>
<trkpt lat="40.073875" lon="-105.2302751">
  <ele>1630.78</ele>
  <time>2026-08-28T19:08:16Z</time>
  <course>10.12</course>
  <speed>0.02</speed>
  <fix>3d</fix>
</trkpt>
<trkpt lat="40.073875" lon="-105.2302751">
  <ele>1631.28</ele>
  <time>2026-08-28T19:08:16Z</time>
  <course>10.16</course>
  <speed>0.02</speed>
  <fix>3d</fix>
</trkpt>
<trkpt lat="40.073875" lon="-105.2302752">
  <ele>1630.71</ele>
  <time>2026-08-28T19:08:16Z</time>
  <course>335.13</course>
  <speed>0.01</speed>
  <fix>3d</fix>
</trkpt>
<trkpt lat="40.073875" lon="-105.2302751">
  <ele>1631.35</ele>
  <time>2026-08-28T19:08:16Z</time>
  <course>10.16</course>
  <speed>0.02</speed>
  <fix>3d</fix>
</trkpt>
<trkpt lat="40.073875" lon="-105.2302751">
  <ele>1631.78</ele>
  <time>2026-08-28T19:08:16Z</time>
  <course>10.18</course>
  <speed>0.02</speed>
  <fix>3d</fix>
</trkpt>
<trkpt lat="40.073875" lon="-105.2302752">
  <ele>1631.21</ele>
  <time>2026-08-28T19:08:16Z</time>
  <course>335.25</course>
  <speed>0.01</speed>
  <fix>3d</fix>
</trkpt>
<trkpt lat="40.073875" lon="-105.2302751">
  <ele>1631.79</ele>
  <time>2026-08-28T19:08:16Z</time>
  <course>10.18</course>
  <speed>0.02</speed>
  <fix>3d</fix>
</trkpt>
<trkpt lat="40.073875" lon="-105.2302751">
  <ele>1632.28</ele>
  <time>2026-08-28T19:08:16Z</time>
  <course>10.25</course>
  <speed>0.02</speed>
  <fix>3d</fix>
</trkpt>
<trkpt lat="40.073875" lon="-105.2302752">
  <ele>1631.71</ele>
  <time>2026-08-28T19:08:16Z</time>
  <course>335.06</course>
  <speed>0.01</speed>
  <fix>3d</fix>
</trkpt>
<trkpt lat="40.073875" lon="-105.2302751">
  <ele>1632.35</ele>
  <time>2026-08-28T19:08:16Z</time>
  <course>10.25</course>
  <speed>0.02</speed>
  <fix>3d</fix>
</trkpt>
<trkpt lat="40.073875" lon="-105.2302751">
  <ele>1632.77</ele>
  <time>2026-08-28T19:08:16Z</time>
  <course>10.27</course>
  <speed>0.02</speed>
  <fix>3d</fix>
</trkpt>
<trkpt lat="40.0738751" lon="-105.2302752">
  <ele>1632.21</ele>
  <time>2026-08-28T19:08:16Z</time>
  <course>335.85</course>
  <speed>0.01</speed>
  <fix>3d</fix>
</trkpt>
<trkpt lat="40.073875" lon="-105.2302751">
  <ele>1632.84</ele>
  <time>2026-08-28T19:08:16Z</time>
  <course>10.28</course>
  <speed>0.02</speed>
  <fix>3d</fix>
</trkpt>
<trkpt lat="40.073875" lon="-105.2302751">
  <ele>1633.26</ele>
  <time>2026-08-28T19:08:16Z</time>
  <course>10.3</course>
  <speed>0.02</speed>
  <fix>3d</fix>
</trkpt>
<trkpt lat="40.0738751" lon="-105.2302752">
  <ele>1632.7</ele>
  <time>2026-08-28T19:08:16Z</time>
  <course>337.23</course>
  <speed>0.01</speed>
  <fix>3d</fix>
</trkpt>
<trkpt lat="40.073875" lon="-105.2302751">
  <ele>1633.27</ele>
  <time>2026-08-28T19:08:16Z</time>
  <course>10.3</course>
  <speed>0.02</speed>
  <fix>3d</fix>
</trkpt>
<trkpt lat="40.073875" lon="-105.2302751">
  <ele>1633.76</ele>
  <time>2026-08-28T19:08:16Z</time>
  <course>10.29</course>
  <speed>0.02</speed>
  <fix>3d</fix>
</trkpt>
<trkpt lat="40.0738751" lon="-105.2302752">
  <ele>1633.2</ele>
  <time>2026-08-28T19:08:16Z</time>
  <course>337.51</course>
  <speed>0.01</speed>
  <fix>3d</fix>
</trkpt>
<trkpt lat="40.073875" lon="-105.2302751">
  <ele>1633.83</ele>
  <time>2026-08-28T19:08:16Z</time>
  <course>10.3</course>
  <speed>0.02</speed>
  <fix>3d</fix>
</trkpt>
<trkpt lat="40.073875" lon="-105.2302751">
  <ele>1634.26</ele>
  <time>2026-08-28T19:08:16Z</time>
  <course>10.34</course>
  <speed>0.02</speed>
  <fix>3d</fix>
</trkpt>
<trkpt lat="40.0738751" lon="-105.2302752">
  <ele>1633.7</ele>
  <time>2026-08-28T19:08:16Z</time>
  <course>333.93</course>
  <speed>0.01</speed>
  <fix>3d</fix>
</trkpt>
<trkpt lat="40.073875" lon="-105.2302751">
  <ele>1634.26</ele>
  <time>2026-08-28T19:08:16Z</time>
  <course>10.34</course>
  <speed>0.02</speed>
  <fix>3d</fix>
</trkpt>
<trkpt lat="40.073875" lon="-105.2302751">
  <ele>1634.76</ele>
  <time>2026-08-28T19:08:16Z</time>
  <course>10.33</course>
  <speed>0.02</speed>
  <fix>3d</fix>
</trkpt>
<trkpt lat="40.0738751" lon="-105.2302752">
  <ele>1634.2</ele>
  <time>2026-08-28T19:08:16Z</time>
  <course>327.27</course>
  <speed>0.01</speed>
  <fix>3d</fix>
</trkpt>
<trkpt lat="40.073875" lon="-105.2302751">
  <ele>1634.76</ele>
  <time>2026-08-28T19:08:16Z</time>
  <course>10.33</course>
  <speed>0.02</speed>
  <fix>3d</fix>
</trkpt>
<trkpt lat="40.073875" lon="-105.2302751">
  <ele>1635.26</ele>
  <time>2026-08-28T19:08:16Z</time>
  <course>10.37</course>
  <speed>0.022360679774997897</speed>
  <fix>3d</fix>
</trkpt>
<trkpt lat="40.0738751" lon="-105.2302752">
  <ele>1634.7</ele>
  <time>2026-08-28T19:08:16Z</time>
  <course>320.53</course>
  <speed>0.0</speed>
  <fix>3d</fix>
</trkpt>
<trkpt lat="40.073875" lon="-105.2302751">
  <ele>1635.33</ele>
  <time>2026-08-28T19:08:16Z</time>
  <course>10.38</course>
  <speed>0.022360679774997897</speed>
  <fix>3d</fix>
</trkpt>
<trkpt lat="40.073875" lon="-105.2302751">
  <ele>1635.77</ele>
  <time>2026-08-28T19:08:16Z</time>
  <course>10.44</course>
  <speed>0.022360679774997897</speed>
  <fix>3d</fix>
</trkpt>
<trkpt lat="40.0738752" lon="-105.2302753">
  <ele>1635.2</ele>
  <time>2026-08-28T19:08:16Z</time>
  <course>313.26</course>
  <speed>0.0</speed>
  <fix>3d</fix>
</trkpt>
<trkpt lat="40.073875" lon="-105.2302751">
  <ele>1635.78</ele>
  <time>2026-08-28T19:08:16Z</time>
  <course>10.44</course>
  <speed>0.022360679774997897</speed>
  <fix>3d</fix>
</trkpt>
<trkpt lat="40.073875" lon="-105.2302751">
  <ele>1636.27</ele>
  <time>2026-08-28T19:08:16Z</time>
  <course>10.48</course>
  <speed>0.022360679774997897</speed>
  <fix>3d</fix>
</trkpt>
<trkpt lat="40.0738753" lon="-105.2302754">
  <ele>1635.71</ele>
  <time>2026-08-28T19:08:16Z</time>
  <course>307.06</course>
  <speed>0.0</speed>
  <fix>3d</fix>
</trkpt>
<trkpt lat="40.073875" lon="-105.2302751">
  <ele>1636.34</ele>
  <time>2026-08-28T19:08:16Z</time>
  <course>10.49</course>
  <speed>0.022360679774997897</speed>
  <fix>3d</fix>
</trkpt>
<trkpt lat="40.073875" lon="-105.2302751">
  <ele>1636.78</ele>
  <time>2026-08-28T19:08:16Z</time>
  <course>10.52</course>
  <speed>0.022360679774997897</speed>
  <fix>3d</fix>
</trkpt>
<trkpt lat="40.0738753" lon="-105.2302754">
  <ele>1636.21</ele>
  <time>2026-08-28T19:08:16Z</time>
  <course>304.24</course>
  <speed>0.0</speed>
  <fix>3d</fix>
</trkpt>
<trkpt lat="40.073875" lon="-105.2302751">
  <ele>1636.85</ele>
  <time>2026-08-28T19:08:16Z</time>
  <course>10.52</course>
  <speed>0.022360679774997897</speed>
  <fix>3d</fix>
</trkpt>
<trkpt lat="40.073875" lon="-105.2302751">
  <ele>1637.28</ele>
  <time>2026-08-28T19:08:16Z</time>
  <course>10.55</course>
  <speed>0.022360679774997897</speed>
  <fix>3d</fix>
</trkpt>
<trkpt lat="40.0738753" lon="-105.2302754">
  <ele>1636.71</ele>
  <time>2026-08-28T19:08:16Z</time>
  <course>303.14</course>
  <speed>0.0</speed>
  <fix>3d</fix>
</trkpt>
<trkpt lat="40.073875" lon="-105.2302751">
  <ele>1637.29</ele>
  <time>2026-08-28T19:08:16Z</time>
  <course>10.55</course>
  <speed>0.022360679774997897</speed>
  <fix>3d</fix>
</trkpt>
<trkpt lat="40.0738751" lon="-105.2302751">
  <ele>1637.78</ele>
  <time>2026-08-28T19:08:16Z</time>
  <course>10.57</course>
  <speed>0.022360679774997897</speed>
  <fix>3d</fix>
</trkpt>
<trkpt lat="40.0738753" lon="-105.2302754">
  <ele>1637.21</ele>
  <time>2026-08-28T19:08:16Z</time>
  <course>296.49</course>
  <speed>0.0</speed>
  <fix>3d</fix>
</trkpt>
<trkpt lat="40.0738751" lon="-105.2302751">
  <ele>1637.84</ele>
  <time>2026-08-28T19:08:16Z</time>
  <course>10.59</course>
  <speed>0.022360679774997897</speed>
  <fix>3d</fix>
</trkpt>
<trkpt lat="40.0738751" lon="-105.2302751">
  <ele>1638.28</ele>
  <time>2026-08-28T19:08:16Z</time>
  <course>10.62</course>
  <speed>0.022360679774997897</speed>
  <fix>3d</fix>
</trkpt>
<trkpt lat="40.0738753" lon="-105.2302754">
  <ele>1637.71</ele>
  <time>2026-08-28T19:08:16Z</time>
  <course>276.55</course>
  <speed>0.0</speed>
  <fix>3d</fix>
</trkpt>
<trkpt lat="40.0738751" lon="-105.2302751">
  <ele>1638.29</ele>
  <time>2026-08-28T19:08:16Z</time>
  <course>10.62</course>
  <speed>0.022360679774997897</speed>
  <fix>3d</fix>
</trkpt>
<trkpt lat="40.0738751" lon="-105.2302751">
  <ele>1638.78</ele>
  <time>2026-08-28T19:08:16Z</time>
  <course>10.63</course>
  <speed>0.022360679774997897</speed>
  <fix>3d</fix>
</trkpt>
<trkpt lat="40.0738753" lon="-105.2302754">
  <ele>1638.21</ele>
  <time>2026-08-28T19:08:16Z</time>
  <course>227.7</course>
  <speed>0.0</speed>
  <fix>3d</fix>
</trkpt>
<trkpt lat="40.0738751" lon="-105.2302751">
  <ele>1638.84</ele>
  <time>2026-08-28T19:08:16Z</time>
  <course>10.63</course>
  <speed>0.022360679774997897</speed>
  <fix>3d</fix>
</trkpt>
<trkpt lat="40.0738751" lon="-105.2302751">
  <ele>1639.27</ele>
  <time>2026-08-28T19:08:16Z</time>
  <course>10.66</course>
  <speed>0.022360679774997897</speed>
  <fix>3d</fix>
</trkpt>
<trkpt lat="40.0738753" lon="-105.2302754">
  <ele>1638.7</ele>
  <time>2026-08-28T19:08:16Z</time>
  <course>185.27</course>
  <speed>0.0</speed>
  <fix>3d</fix>
</trkpt>
<trkpt lat="40.0738751" lon="-105.2302751">
  <ele>1639.28</ele>
  <time>2026-08-28T19:08:16Z</time>
  <course>10.66</course>
  <speed>0.022360679774997897</speed>
  <fix>3d</fix>
</trkpt>
<trkpt lat="40.0738751" lon="-105.2302751">
  <ele>1639.77</ele>
  <time>2026-08-28T19:08:16Z</time>
  <course>10.68</course>
  <speed>0.0282842712474619</speed>
  <fix>3d</fix>
</trkpt>
<trkpt lat="40.0738753" lon="-105.2302754">
  <ele>1639.2</ele>
  <time>2026-08-28T19:08:16Z</time>
  <course>169.05</course>
  <speed>0.0</speed>
  <fix>3d</fix>
</trkpt>
<trkpt lat="40.0738751" lon="-105.2302751">
  <ele>1639.84</ele>
  <time>2026-08-28T19:08:16Z</time>
  <course>10.68</course>
  <speed>0.0282842712474619</speed>
  <fix>3d</fix>
</trkpt>
<trkpt lat="40.0738751" lon="-105.2302751">
  <ele>1640.27</ele>
  <time>2026-08-28T19:08:16Z</time>
  <course>10.71</course>
  <speed>0.0282842712474619</speed>
  <fix>3d</fix>
</trkpt>
<trkpt lat="40.0738753" lon="-105.2302754">
  <ele>1639.7</ele>
  <time>2026-08-28T19:08:16Z</time>
  <course>161.32</course>
  <speed>0.0</speed>
  <fix>3d</fix>
</trkpt>
<trkpt lat="40.0738751" lon="-105.2302751">
  <ele>1640.33</ele>
  <time>2026-08-28T19:08:16Z</time>
  <course>10.7</course>
  <speed>0.0282842712474619</speed>
  <fix>3d</fix>
</trkpt>
<trkpt lat="40.0738751" lon="-105.2302751">
  <ele>1640.77</ele>
  <time>2026-08-28T19:08:16Z</time>
  <course>10.73</course>
  <speed>0.0282842712474619</speed>
  <fix>3d</fix>
</trkpt>
<trkpt lat="40.0738753" lon="-105.2302754">
  <ele>1640.2</ele>
  <time>2026-08-28T19:08:16Z</time>
  <course>157.52</course>
  <speed>0.0</speed>
  <fix>3d</fix>
</trkpt>
<trkpt lat="40.0738751" lon="-105.2302751">
  <ele>1640.77</ele>
  <time>2026-08-28T19:08:16Z</time>
  <course>10.73</course>
  <speed>0.0282842712474619</speed>
  <fix>3d</fix>
</trkpt>
<trkpt lat="40.0738751" lon="-105.2302751">
  <ele>1641.27</ele>
  <time>2026-08-28T19:08:16Z</time>
  <course>10.76</course>
  <speed>0.0282842712474619</speed>
  <fix>3d</fix>
</trkpt>
<trkpt lat="40.0738753" lon="-105.2302754">
  <ele>1640.7</ele>
  <time>2026-08-28T19:08:16Z</time>
  <course>155.61</course>
  <speed>0.0</speed>
  <fix>3d</fix>
</trkpt>
<trkpt lat="40.0738751" lon="-105.2302751">
  <ele>1641.34</ele>
  <time>2026-08-28T19:08:16Z</time>
  <course>10.76</course>
  <speed>0.0282842712474619</speed>
  <fix>3d</fix>
</trkpt>
<trkpt lat="40.0738751" lon="-105.2302751">
  <ele>1641.77</ele>
  <time>2026-08-28T19:08:16Z</time>
  <course>10.76</course>
  <speed>0.0282842712474619</speed>
  <fix>3d</fix>
</trkpt>
<trkpt lat="40.0738753" lon="-105.2302754">
  <ele>1641.2</ele>
  <time>2026-08-28T19:08:16Z</time>
  <course>154.74</course>
  <speed>0.01</speed>
  <fix>3d</fix>
</trkpt>
<trkpt lat="40.0738751" lon="-105.2302751">
  <ele>1641.83</ele>
  <time>2026-08-28T19:08:16Z</time>
  <course>10.77</course>
  <speed>0.0282842712474619</speed>
  <fix>3d</fix>
</trkpt>
<trkpt lat="40.0738751" lon="-105.2302751">
  <ele>1642.27</ele>
  <time>2026-08-28T19:08:16Z</time>
  <course>10.79</course>
  <speed>0.0282842712474619</speed>
  <fix>3d</fix>
</trkpt>
<trkpt lat="40.0738753" lon="-105.2302754">
  <ele>1641.7</ele>
  <time>2026-08-28T19:08:16Z</time>
  <course>154.57</course>
  <speed>0.01</speed>
  <fix>3d</fix>
</trkpt>
<trkpt lat="40.0738751" lon="-105.2302751">
  <ele>1642.33</ele>
  <time>2026-08-28T19:08:16Z</time>
  <course>10.8</course>
  <speed>0.0282842712474619</speed>
  <fix>3d</fix>
</trkpt>
<trkpt lat="40.0738751" lon="-105.2302751">
  <ele>1642.77</ele>
  <time>2026-08-28T19:08:16Z</time>
  <course>10.8</course>
  <speed>0.0282842712474619</speed>
  <fix>3d</fix>
</trkpt>
<trkpt lat="40.0738753" lon="-105.2302754">
  <ele>1642.2</ele>
  <time>2026-08-28T19:08:16Z</time>
  <course>154.63</course>
  <speed>0.01</speed>
  <fix>3d</fix>
</trkpt>
<trkpt lat="40.0738751" lon="-105.2302751">
  <ele>1642.83</ele>
  <time>2026-08-28T19:08:16Z</time>
  <course>10.8</course>
  <speed>0.0282842712474619</speed>
  <fix>3d</fix>
</trkpt>
<trkpt lat="40.0738751" lon="-105.2302751">
  <ele>1643.27</ele>
  <time>2026-08-28T19:08:16Z</time>
  <course>10.84</course>
  <speed>0.0282842712474619</speed>
  <fix>3d</fix>
</trkpt>
<trkpt lat="40.0738752" lon="-105.2302754">
  <ele>1642.7</ele>
  <time>2026-08-28T19:08:16Z</time>
  <course>156.53</course>
  <speed>0.01</speed>
  <fix>3d</fix>
</trkpt>
<trkpt lat="40.0738751" lon="-105.2302751">
  <ele>1643.28</ele>
  <time>2026-08-28T19:08:16Z</time>
  <course>10.84</course>
  <speed>0.0282842712474619</speed>
  <fix>3d</fix>
</trkpt>
<trkpt lat="40.0738751" lon="-105.2302751">
  <ele>1643.77</ele>
  <time>2026-08-28T19:08:16Z</time>
  <course>10.87</course>
  <speed>0.0282842712474619</speed>
  <fix>3d</fix>
</trkpt>
<trkpt lat="40.0738751" lon="-105.2302754">
  <ele>1643.2</ele>
  <time>2026-08-28T19:08:16Z</time>
  <course>159.16</course>
  <speed>0.01</speed>
  <fix>3d</fix>
</trkpt>
<trkpt lat="40.0738751" lon="-105.2302751">
  <ele>1643.83</ele>
  <time>2026-08-28T19:08:16Z</time>
  <course>10.87</course>
  <speed>0.0282842712474619</speed>
  <fix>3d</fix>
</trkpt>
<trkpt lat="40.0738751" lon="-105.2302751">
  <ele>1644.27</ele>
  <time>2026-08-28T19:08:16Z</time>
  <course>10.89</course>
  <speed>0.0282842712474619</speed>
  <fix>3d</fix>
</trkpt>
<trkpt lat="40.0738751" lon="-105.2302754">
  <ele>1643.7</ele>
  <time>2026-08-28T19:08:16Z</time>
  <course>160.19</course>
  <speed>0.01</speed>
  <fix>3d</fix>
</trkpt>
<trkpt lat="40.0738751" lon="-105.2302751">
  <ele>1644.35</ele>
  <time>2026-08-28T19:08:16Z</time>
  <course>10.88</course>
  <speed>0.0282842712474619</speed>
  <fix>3d</fix>
</trkpt>
<trkpt lat="40.0738751" lon="-105.2302751">
  <ele>1644.77</ele>
  <time>2026-08-28T19:08:16Z</time>
  <course>10.91</course>
  <speed>0.0282842712474619</speed>
  <fix>3d</fix>
</trkpt>
<trkpt lat="40.0738751" lon="-105.2302754">
  <ele>1644.2</ele>
  <time>2026-08-28T19:08:16Z</time>
  <course>160.27</course>
  <speed>0.01</speed>
  <fix>3d</fix>
</trkpt>
<trkpt lat="40.0738751" lon="-105.2302751">
  <ele>1644.83</ele>
  <time>2026-08-28T19:08:16Z</time>
  <course>10.91</course>
  <speed>0.0282842712474619</speed>
  <fix>3d</fix>
</trkpt>
<trkpt lat="40.073875" lon="-105.2302751">
  <ele>1645.27</ele>
  <time>2026-08-28T19:08:16Z</time>
  <course>10.93</course>
  <speed>0.0282842712474619</speed>
  <fix>3d</fix>
</trkpt>
<trkpt lat="40.0738751" lon="-105.2302754">
  <ele>1644.7</ele>
  <time>2026-08-28T19:08:16Z</time>
  <course>160.09</course>
  <speed>0.01</speed>
  <fix>3d</fix>
</trkpt>
<trkpt lat="40.073875" lon="-105.2302751">
  <ele>1645.33</ele>
  <time>2026-08-28T19:08:16Z</time>
  <course>10.94</course>
  <speed>0.0282842712474619</speed>
  <fix>3d</fix>
</trkpt>
<trkpt lat="40.073875" lon="-105.2302751">
  <ele>1645.77</ele>
  <time>2026-08-28T19:08:16Z</time>
  <course>10.94</course>
  <speed>0.0282842712474619</speed>
  <fix>3d</fix>
</trkpt>
<trkpt lat="40.0738751" lon="-105.2302754">
  <ele>1645.2</ele>
  <time>2026-08-28T19:08:16Z</time>
  <course>159.44</course>
  <speed>0.0</speed>
  <fix>3d</fix>
</trkpt>
<trkpt lat="40.073875" lon="-105.2302751">
  <ele>1645.77</ele>
  <time>2026-08-28T19:08:16Z</time>
  <course>10.94</course>
  <speed>0.0282842712474619</speed>
  <fix>3d</fix>
</trkpt>
<trkpt lat="40.073875" lon="-105.2302751">
  <ele>1646.27</ele>
  <time>2026-08-28T19:08:16Z</time>
  <course>10.96</course>
  <speed>0.022360679774997897</speed>
  <fix>3d</fix>
</trkpt>
<trkpt lat="40.073875" lon="-105.2302754">
  <ele>1645.7</ele>
  <time>2026-08-28T19:08:16Z</time>
  <course>156.01</course>
  <speed>0.0</speed>
  <fix>3d</fix>
</trkpt>
<trkpt lat="40.073875" lon="-105.2302751">
  <ele>1646.33</ele>
  <time>2026-08-28T19:08:16Z</time>
  <course>10.96</course>
  <speed>0.022360679774997897</speed>
  <fix>3d</fix>
</trkpt>
<trkpt lat="40.073875" lon="-105.2302751">
  <ele>1646.77</ele>
  <time>2026-08-28T19:08:16Z</time>
  <course>10.99</course>
  <speed>0.022360679774997897</speed>
  <fix>3d</fix>
</trkpt>
<trkpt lat="40.073875" lon="-105.2302754">
  <ele>1646.2</ele>
  <time>2026-08-28T19:08:16Z</time>
  <course>152.52</course>
  <speed>0.0</speed>
  <fix>3d</fix>
</trkpt>
<trkpt lat="40.073875" lon="-105.2302751">
  <ele>1646.84</ele>
  <time>2026-08-28T19:08:16Z</time>
  <course>10.99</course>
  <speed>0.022360679774997897</speed>
  <fix>3d</fix>
</trkpt>
<trkpt lat="40.073875" lon="-105.2302751">
  <ele>1647.27</ele>
  <time>2026-08-28T19:08:16Z</time>
  <course>11.01</course>
  <speed>0.022360679774997897</speed>
  <fix>3d</fix>
</trkpt>
<trkpt lat="40.073875" lon="-105.2302754">
  <ele>1646.7</ele>
  <time>2026-08-28T19:08:16Z</time>
  <course>150.71</course>
  <speed>0.0</speed>
  <fix>3d</fix>
</trkpt>
<trkpt lat="40.073875" lon="-105.2302751">
  <ele>1647.33</ele>
  <time>2026-08-28T19:08:16Z</time>
  <course>11.01</course>
  <speed>0.022360679774997897</speed>
  <fix>3d</fix>
</trkpt>
<trkpt lat="40.073875" lon="-105.2302751">
  <ele>1647.78</ele>
  <time>2026-08-28T19:08:16Z</time>
  <course>11.03</course>
  <speed>0.022360679774997897</speed>
  <fix>3d</fix>
</trkpt>
<trkpt lat="40.073875" lon="-105.2302754">
  <ele>1647.2</ele>
  <time>2026-08-28T19:08:16Z</time>
  <course>138.69</course>
  <speed>0.0</speed>
  <fix>3d</fix>
</trkpt>
<trkpt lat="40.073875" lon="-105.2302751">
  <ele>1647.85</ele>
  <time>2026-08-28T19:08:16Z</time>
  <course>11.03</course>
  <speed>0.022360679774997897</speed>
  <fix>3d</fix>
</trkpt>
<trkpt lat="40.073875" lon="-105.2302751">
  <ele>1648.28</ele>
  <time>2026-08-28T19:08:16Z</time>
  <course>11.05</course>
  <speed>0.022360679774997897</speed>
  <fix>3d</fix>
</trkpt>
<trkpt lat="40.073875" lon="-105.2302754">
  <ele>1647.7</ele>
  <time>2026-08-28T19:08:16Z</time>
  <course>0.02</course>
  <speed>0.0</speed>
  <fix>3d</fix>
</trkpt>
<trkpt lat="40.073875" lon="-105.2302751">
  <ele>1648.28</ele>
  <time>2026-08-28T19:08:16Z</time>
  <course>11.05</course>
  <speed>0.022360679774997897</speed>
  <fix>3d</fix>
</trkpt>
<trkpt lat="40.073875" lon="-105.2302751">
  <ele>1648.78</ele>
  <time>2026-08-28T19:08:16Z</time>
  <course>11.07</course>
  <speed>0.022360679774997897</speed>
  <fix>3d</fix>
</trkpt>
<trkpt lat="40.073875" lon="-105.2302754">
  <ele>1648.2</ele>
  <time>2026-08-28T19:08:16Z</time>
  <course>346.09</course>
  <speed>0.0</speed>
  <fix>3d</fix>
</trkpt>
<trkpt lat="40.073875" lon="-105.2302751">
  <ele>1648.84</ele>
  <time>2026-08-28T19:08:16Z</time>
  <course>11.08</course>
  <speed>0.022360679774997897</speed>
  <fix>3d</fix>
</trkpt>
<trkpt lat="40.073875" lon="-105.2302751">
  <ele>1649.27</ele>
  <time>2026-08-28T19:08:16Z</time>
  <course>11.08</course>
  <speed>0.02</speed>
  <fix>3d</fix>
</trkpt>
<trkpt lat="40.073875" lon="-105.2302754">
  <ele>1648.7</ele>
  <time>2026-08-28T19:08:16Z</time>
  <course>349.7</course>
  <speed>0.0</speed>
  <fix>3d</fix>
</trkpt>
<trkpt lat="40.073875" lon="-105.2302751">
  <ele>1649.33</ele>
  <time>2026-08-28T19:08:16Z</time>
  <course>11.08</course>
  <speed>0.02</speed>
  <fix>3d</fix>
</trkpt>
<trkpt lat="40.073875" lon="-105.2302751">
  <ele>1649.76</ele>
  <time>2026-08-28T19:08:16Z</time>
  <course>11.09</course>
  <speed>0.02</speed>
  <fix>3d</fix>
</trkpt>
<trkpt lat="40.073875" lon="-105.2302754">
  <ele>1649.2</ele>
  <time>2026-08-28T19:08:16Z</time>
  <course>356.11</course>
  <speed>0.0</speed>
  <fix>3d</fix>
</trkpt>
<trkpt lat="40.073875" lon="-105.2302751">
  <ele>1649.82</ele>
  <time>2026-08-28T19:08:16Z</time>
  <course>11.1</course>
  <speed>0.02</speed>
  <fix>3d</fix>
</trkpt>
<trkpt lat="40.073875" lon="-105.2302751">
  <ele>1650.26</ele>
  <time>2026-08-28T19:08:16Z</time>
  <course>11.1</course>
  <speed>0.02</speed>
  <fix>3d</fix>
</trkpt>
<trkpt lat="40.073875" lon="-105.2302754">
  <ele>1649.7</ele>
  <time>2026-08-28T19:08:16Z</time>
  <course>359.67</course>
  <speed>0.0</speed>
  <fix>3d</fix>
</trkpt>
<trkpt lat="40.073875" lon="-105.2302751">
  <ele>1650.32</ele>
  <time>2026-08-28T19:08:16Z</time>
  <course>11.09</course>
  <speed>0.02</speed>
  <fix>3d</fix>
</trkpt>
<trkpt lat="40.073875" lon="-105.2302751">
  <ele>1650.76</ele>
  <time>2026-08-28T19:08:16Z</time>
  <course>11.08</course>
  <speed>0.02</speed>
  <fix>3d</fix>
</trkpt>
<trkpt lat="40.073875" lon="-105.2302754">
  <ele>1650.2</ele>
  <time>2026-08-28T19:08:16Z</time>
  <course>0.13</course>
  <speed>0.0</speed>
  <fix>3d</fix>
</trkpt>
<trkpt lat="40.073875" lon="-105.2302751">
  <ele>1650.81</ele>
  <time>2026-08-28T19:08:16Z</time>
  <course>11.08</course>
  <speed>0.02</speed>
  <fix>3d</fix>
</trkpt>
<trkpt lat="40.073875" lon="-105.2302751">
  <ele>1651.26</ele>
  <time>2026-08-28T19:08:16Z</time>
  <course>11.12</course>
  <speed>0.02</speed>
  <fix>3d</fix>
</trkpt>
<trkpt lat="40.073875" lon="-105.2302754">
  <ele>1650.7</ele>
  <time>2026-08-28T19:08:16Z</time>
  <course>357.77</course>
  <speed>0.0</speed>
  <fix>3d</fix>
</trkpt>
<trkpt lat="40.073875" lon="-105.2302751">
  <ele>1651.26</ele>
  <time>2026-08-28T19:08:16Z</time>
  <course>11.12</course>
  <speed>0.02</speed>
  <fix>3d</fix>
</trkpt>
<trkpt lat="40.073875" lon="-105.2302751">
  <ele>1651.76</ele>
  <time>2026-08-28T19:08:16Z</time>
  <course>11.14</course>
  <speed>0.02</speed>
  <fix>3d</fix>
</trkpt>
<trkpt lat="40.073875" lon="-105.2302754">
  <ele>1651.2</ele>
  <time>2026-08-28T19:08:16Z</time>
  <course>356.48</course>
  <speed>0.01</speed>
  <fix>3d</fix>
</trkpt>
<trkpt lat="40.073875" lon="-105.2302751">
  <ele>1651.83</ele>
  <time>2026-08-28T19:08:16Z</time>
  <course>11.14</course>
  <speed>0.02</speed>
  <fix>3d</fix>
</trkpt>
<trkpt lat="40.073875" lon="-105.2302751">
  <ele>1652.26</ele>
  <time>2026-08-28T19:08:16Z</time>
  <course>11.17</course>
  <speed>0.02</speed>
  <fix>3d</fix>
</trkpt>
<trkpt lat="40.073875" lon="-105.2302754">
  <ele>1651.7</ele>
  <time>2026-08-28T19:08:16Z</time>
  <course>355.8</course>
  <speed>0.01</speed>
  <fix>3d</fix>
</trkpt>
<trkpt lat="40.073875" lon="-105.2302751">
  <ele>1652.32</ele>
  <time>2026-08-28T19:08:16Z</time>
  <course>11.17</course>
  <speed>0.02</speed>
  <fix>3d</fix>
</trkpt>
<trkpt lat="40.073875" lon="-105.2302751">
  <ele>1652.76</ele>
  <time>2026-08-28T19:08:16Z</time>
  <course>11.15</course>
  <speed>0.02</speed>
  <fix>3d</fix>
</trkpt>
<trkpt lat="40.073875" lon="-105.2302754">
  <ele>1652.2</ele>
  <time>2026-08-28T19:08:16Z</time>
  <course>356.84</course>
  <speed>0.01</speed>
  <fix>3d</fix>
</trkpt>
<trkpt lat="40.073875" lon="-105.2302751">
  <ele>1652.82</ele>
  <time>2026-08-28T19:08:16Z</time>
  <course>11.15</course>
  <speed>0.02</speed>
  <fix>3d</fix>
</trkpt>
<trkpt lat="40.073875" lon="-105.2302751">
  <ele>1653.26</ele>
  <time>2026-08-28T19:08:16Z</time>
  <course>11.18</course>
  <speed>0.02</speed>
  <fix>3d</fix>
</trkpt>
<trkpt lat="40.0738751" lon="-105.2302754">
  <ele>1652.71</ele>
  <time>2026-08-28T19:08:16Z</time>
  <course>358.64</course>
  <speed>0.01</speed>
  <fix>3d</fix>
</trkpt>
<trkpt lat="40.073875" lon="-105.2302751">
  <ele>1653.32</ele>
  <time>2026-08-28T19:08:16Z</time>
  <course>11.19</course>
  <speed>0.02</speed>
  <fix>3d</fix>
</trkpt>
<trkpt lat="40.073875" lon="-105.2302751">
  <ele>1653.76</ele>
  <time>2026-08-28T19:08:16Z</time>
  <course>11.19</course>
  <speed>0.02</speed>
  <fix>3d</fix>
</trkpt>
<trkpt lat="40.0738751" lon="-105.2302754">
  <ele>1653.21</ele>
  <time>2026-08-28T19:08:16Z</time>
  <course>359.84</course>
  <speed>0.01</speed>
  <fix>3d</fix>
</trkpt>
<trkpt lat="40.073875" lon="-105.2302751">
  <ele>1653.77</ele>
  <time>2026-08-28T19:08:16Z</time>
  <course>11.19</course>
  <speed>0.02</speed>
  <fix>3d</fix>
</trkpt>
<trkpt lat="40.073875" lon="-105.2302751">
  <ele>1654.26</ele>
  <time>2026-08-28T19:08:16Z</time>
  <course>11.23</course>
  <speed>0.02</speed>
  <fix>3d</fix>
</trkpt>
<trkpt lat="40.0738751" lon="-105.2302754">
  <ele>1653.71</ele>
  <time>2026-08-28T19:08:16Z</time>
  <course>0.2</course>
  <speed>0.01</speed>
  <fix>3d</fix>
</trkpt>
<trkpt lat="40.073875" lon="-105.2302751">
  <ele>1654.33</ele>
  <time>2026-08-28T19:08:16Z</time>
  <course>11.23</course>
  <speed>0.02</speed>
  <fix>3d</fix>
</trkpt>
<trkpt lat="40.073875" lon="-105.2302751">
  <ele>1654.77</ele>
  <time>2026-08-28T19:08:16Z</time>
  <course>11.23</course>
  <speed>0.02</speed>
  <fix>3d</fix>
</trkpt>
<trkpt lat="40.0738751" lon="-105.2302754">
  <ele>1654.22</ele>
  <time>2026-08-28T19:08:16Z</time>
  <course>359.6</course>
  <speed>0.01</speed>
  <fix>3d</fix>
</trkpt>
<trkpt lat="40.073875" lon="-105.2302751">
  <ele>1654.84</ele>
  <time>2026-08-28T19:08:16Z</time>
  <course>11.23</course>
  <speed>0.02</speed>
  <fix>3d</fix>
</trkpt>
<trkpt lat="40.073875" lon="-105.2302751">
  <ele>1655.27</ele>
  <time>2026-08-28T19:08:16Z</time>
  <course>11.27</course>
  <speed>0.022360679774997897</speed>
  <fix>3d</fix>
</trkpt>
<trkpt lat="40.0738751" lon="-105.2302754">
  <ele>1654.72</ele>
  <time>2026-08-28T19:08:16Z</time>
  <course>0.56</course>
  <speed>0.0</speed>
  <fix>3d</fix>
</trkpt>
<trkpt lat="40.073875" lon="-105.2302751">
  <ele>1655.34</ele>
  <time>2026-08-28T19:08:16Z</time>
  <course>11.27</course>
  <speed>0.022360679774997897</speed>
  <fix>3d</fix>
</trkpt>
<trkpt lat="40.073875" lon="-105.2302751">
  <ele>1655.77</ele>
  <time>2026-08-28T19:08:16Z</time>
  <course>11.29</course>
  <speed>0.022360679774997897</speed>
  <fix>3d</fix>
</trkpt>
<trkpt lat="40.0738752" lon="-105.2302754">
  <ele>1655.22</ele>
  <time>2026-08-28T19:08:16Z</time>
  <course>2.23</course>
  <speed>0.0</speed>
  <fix>3d</fix>
</trkpt>
<trkpt lat="40.073875" lon="-105.2302751">
  <ele>1655.78</ele>
  <time>2026-08-28T19:08:16Z</time>
  <course>11.29</course>
  <speed>0.022360679774997897</speed>
  <fix>3d</fix>
</trkpt>
<trkpt lat="40.073875" lon="-105.2302751">
  <ele>1656.27</ele>
  <time>2026-08-28T19:08:16Z</time>
  <course>11.3</course>
  <speed>0.022360679774997897</speed>
  <fix>3d</fix>
</trkpt>
<trkpt lat="40.0738753" lon="-105.2302754">
  <ele>1655.72</ele>
  <time>2026-08-28T19:08:16Z</time>
  <course>5.39</course>
  <speed>0.0</speed>
  <fix>3d</fix>
</trkpt>
<trkpt lat="40.073875" lon="-105.2302751">
  <ele>1656.34</ele>
  <time>2026-08-28T19:08:16Z</time>
  <course>11.3</course>
  <speed>0.022360679774997897</speed>
  <fix>3d</fix>
</trkpt>
<trkpt lat="40.073875" lon="-105.2302751">
  <ele>1656.78</ele>
  <time>2026-08-28T19:08:16Z</time>
  <course>11.32</course>
  <speed>0.022360679774997897</speed>
  <fix>3d</fix>
</trkpt>
<trkpt lat="40.0738753" lon="-105.2302754">
  <ele>1656.22</ele>
  <time>2026-08-28T19:08:16Z</time>
  <course>10.36</course>
  <speed>0.0</speed>
  <fix>3d</fix>
</trkpt>
<trkpt lat="40.073875" lon="-105.2302751">
  <ele>1656.78</ele>
  <time>2026-08-28T19:08:16Z</time>
  <course>11.32</course>
  <speed>0.022360679774997897</speed>
  <fix>3d</fix>
</trkpt>
<trkpt lat="40.073875" lon="-105.2302751">
  <ele>1657.28</ele>
  <time>2026-08-28T19:08:16Z</time>
  <course>11.33</course>
  <speed>0.022360679774997897</speed>
  <fix>3d</fix>
</trkpt>
<trkpt lat="40.0738753" lon="-105.2302754">
  <ele>1656.72</ele>
  <time>2026-08-28T19:08:16Z</time>
  <course>18.0</course>
  <speed>0.0</speed>
  <fix>3d</fix>
</trkpt>
<trkpt lat="40.0738751" lon="-105.2302751">
  <ele>1657.36</ele>
  <time>2026-08-28T19:08:16Z</time>
  <course>11.33</course>
  <speed>0.022360679774997897</speed>
  <fix>3d</fix>
</trkpt>
<trkpt lat="40.0738751" lon="-105.2302751">
  <ele>1657.78</ele>
  <time>2026-08-28T19:08:16Z</time>
  <course>11.34</course>
  <speed>0.022360679774997897</speed>
  <fix>3d</fix>
</trkpt>
<trkpt lat="40.0738753" lon="-105.2302754">
  <ele>1657.22</ele>
  <time>2026-08-28T19:08:16Z</time>
  <course>30.89</course>
  <speed>0.0</speed>
  <fix>3d</fix>
</trkpt>
<trkpt lat="40.0738751" lon="-105.2302751">
  <ele>1657.84</ele>
  <time>2026-08-28T19:08:16Z</time>
  <course>11.34</course>
  <speed>0.022360679774997897</speed>
  <fix>3d</fix>
</trkpt>
<trkpt lat="40.0738751" lon="-105.2302751">
  <ele>1658.27</ele>
  <time>2026-08-28T19:08:16Z</time>
  <course>11.36</course>
  <speed>0.022360679774997897</speed>
  <fix>3d</fix>
</trkpt>
<trkpt lat="40.0738753" lon="-105.2302754">
  <ele>1657.72</ele>
  <time>2026-08-28T19:08:16Z</time>
  <course>54.16</course>
  <speed>0.0</speed>
  <fix>3d</fix>
</trkpt>
<trkpt lat="40.0738751" lon="-105.2302751">
  <ele>1658.28</ele>
  <time>2026-08-28T19:08:16Z</time>
  <course>11.36</course>
  <speed>0.022360679774997897</speed>
  <fix>3d</fix>
</trkpt>
<trkpt lat="40.0738751" lon="-105.2302751">
  <ele>1658.77</ele>
  <time>2026-08-28T19:08:16Z</time>
  <course>11.37</course>
  <speed>0.022360679774997897</speed>
  <fix>3d</fix>
</trkpt>
<trkpt lat="40.0738753" lon="-105.2302754">
  <ele>1658.22</ele>
  <time>2026-08-28T19:08:16Z</time>
  <course>89.53</course>
  <speed>0.0</speed>
  <fix>3d</fix>
</trkpt>
<trkpt lat="40.0738751" lon="-105.2302751">
  <ele>1658.83</ele>
  <time>2026-08-28T19:08:16Z</time>
  <course>11.37</course>
  <speed>0.022360679774997897</speed>
  <fix>3d</fix>
</trkpt>
<trkpt lat="40.0738751" lon="-105.2302751">
  <ele>1659.26</ele>
  <time>2026-08-28T19:08:16Z</time>
  <course>11.36</course>
  <speed>0.0282842712474619</speed>
  <fix>3d</fix>
</trkpt>
<trkpt lat="40.0738753" lon="-105.2302753">
  <ele>1658.72</ele>
  <time>2026-08-28T19:08:16Z</time>
  <course>120.34</course>
  <speed>0.0</speed>
  <fix>3d</fix>
</trkpt>
<trkpt lat="40.0738751" lon="-105.2302751">
  <ele>1659.27</ele>
  <time>2026-08-28T19:08:16Z</time>
  <course>11.36</course>
  <speed>0.0282842712474619</speed>
  <fix>3d</fix>
</trkpt>
<trkpt lat="40.0738751" lon="-105.2302751">
  <ele>1659.76</ele>
  <time>2026-08-28T19:08:16Z</time>
  <course>11.36</course>
  <speed>0.0282842712474619</speed>
  <fix>3d</fix>
</trkpt>
<trkpt lat="40.0738753" lon="-105.2302752">
  <ele>1659.22</ele>
  <time>2026-08-28T19:08:16Z</time>
  <course>143.15</course>
  <speed>0.0</speed>
  <fix>3d</fix>
</trkpt>
<trkpt lat="40.0738751" lon="-105.2302751">
  <ele>1659.83</ele>
  <time>2026-08-28T19:08:16Z</time>
  <course>11.36</course>
  <speed>0.0282842712474619</speed>
  <fix>3d</fix>
</trkpt>
<trkpt lat="40.0738751" lon="-105.2302751">
  <ele>1660.27</ele>
  <time>2026-08-28T19:08:16Z</time>
  <course>11.37</course>
  <speed>0.0282842712474619</speed>
  <fix>3d</fix>
</trkpt>
<trkpt lat="40.0738753" lon="-105.2302752">
  <ele>1659.72</ele>
  <time>2026-08-28T19:08:16Z</time>
  <course>157.33</course>
  <speed>0.0</speed>
  <fix>3d</fix>
</trkpt>
<trkpt lat="40.0738751" lon="-105.2302751">
  <ele>1660.33</ele>
  <time>2026-08-28T19:08:16Z</time>
  <course>11.37</course>
  <speed>0.0282842712474619</speed>
  <fix>3d</fix>
</trkpt>
<trkpt lat="40.0738751" lon="-105.2302751">
  <ele>1660.77</ele>
  <time>2026-08-28T19:08:16Z</time>
  <course>11.4</course>
  <speed>0.0282842712474619</speed>
  <fix>3d</fix>
</trkpt>
<trkpt lat="40.0738753" lon="-105.2302752">
  <ele>1660.22</ele>
  <time>2026-08-28T19:08:16Z</time>
  <course>166.33</course>
  <speed>0.0</speed>
  <fix>3d</fix>
</trkpt>
<trkpt lat="40.0738751" lon="-105.2302751">
  <ele>1660.77</ele>
  <time>2026-08-28T19:08:16Z</time>
  <course>11.4</course>
  <speed>0.0282842712474619</speed>
  <fix>3d</fix>
</trkpt>
<trkpt lat="40.0738751" lon="-105.2302751">
  <ele>1661.27</ele>
  <time>2026-08-28T19:08:16Z</time>
  <course>11.42</course>
  <speed>0.0282842712474619</speed>
  <fix>3d</fix>
</trkpt>
<trkpt lat="40.0738753" lon="-105.2302752">
  <ele>1660.72</ele>
  <time>2026-08-28T19:08:16Z</time>
  <course>175.99</course>
  <speed>0.0</speed>
  <fix>3d</fix>
</trkpt>
<trkpt lat="40.0738751" lon="-105.2302751">
  <ele>1661.33</ele>
  <time>2026-08-28T19:08:16Z</time>
  <course>11.42</course>
  <speed>0.0282842712474619</speed>
  <fix>3d</fix>
</trkpt>
<trkpt lat="40.0738751" lon="-105.2302751">
  <ele>1661.77</ele>
  <time>2026-08-28T19:08:16Z</time>
  <course>11.43</course>
  <speed>0.0282842712474619</speed>
  <fix>3d</fix>
</trkpt>
<trkpt lat="40.0738753" lon="-105.2302752">
  <ele>1661.23</ele>
  <time>2026-08-28T19:08:16Z</time>
  <course>185.58</course>
  <speed>0.01</speed>
  <fix>3d</fix>
</trkpt>
<trkpt lat="40.0738751" lon="-105.2302751">
  <ele>1661.83</ele>
  <time>2026-08-28T19:08:16Z</time>
  <course>11.44</course>
  <speed>0.0282842712474619</speed>
  <fix>3d</fix>
</trkpt>
<trkpt lat="40.0738751" lon="-105.2302751">
  <ele>1662.27</ele>
  <time>2026-08-28T19:08:16Z</time>
  <course>11.43</course>
  <speed>0.0282842712474619</speed>
  <fix>3d</fix>
</trkpt>
<trkpt lat="40.0738753" lon="-105.2302752">
  <ele>1661.73</ele>
  <time>2026-08-28T19:08:16Z</time>
  <course>193.46</course>
  <speed>0.01</speed>
  <fix>3d</fix>
</trkpt>
<trkpt lat="40.0738751" lon="-105.2302751">
  <ele>1662.28</ele>
  <time>2026-08-28T19:08:16Z</time>
  <course>11.43</course>
  <speed>0.0282842712474619</speed>
  <fix>3d</fix>
</trkpt>
<trkpt lat="40.0738751" lon="-105.2302751">
  <ele>1662.77</ele>
  <time>2026-08-28T19:08:16Z</time>
  <course>11.44</course>
  <speed>0.0282842712474619</speed>
  <fix>3d</fix>
</trkpt>
<trkpt lat="40.0738753" lon="-105.2302752">
  <ele>1662.23</ele>
  <time>2026-08-28T19:08:16Z</time>
  <course>199.49</course>
  <speed>0.01</speed>
  <fix>3d</fix>
</trkpt>
<trkpt lat="40.0738751" lon="-105.2302751">
  <ele>1662.84</ele>
  <time>2026-08-28T19:08:16Z</time>
  <course>11.44</course>
  <speed>0.0282842712474619</speed>
  <fix>3d</fix>
</trkpt>
<trkpt lat="40.0738751" lon="-105.2302751">
  <ele>1663.27</ele>
  <time>2026-08-28T19:08:16Z</time>
  <course>11.47</course>
  <speed>0.0282842712474619</speed>
  <fix>3d</fix>
</trkpt>
<trkpt lat="40.0738753" lon="-105.2302752">
  <ele>1662.73</ele>
  <time>2026-08-28T19:08:16Z</time>
  <course>203.65</course>
  <speed>0.01</speed>
  <fix>3d</fix>
</trkpt>
<trkpt lat="40.0738751" lon="-105.230275">
  <ele>1663.28</ele>
  <time>2026-08-28T19:08:16Z</time>
  <course>11.47</course>
  <speed>0.0282842712474619</speed>
  <fix>3d</fix>
</trkpt>
<trkpt lat="40.0738751" lon="-105.230275">
  <ele>1663.77</ele>
  <time>2026-08-28T19:08:16Z</time>
  <course>11.46</course>
  <speed>0.0282842712474619</speed>
  <fix>3d</fix>
</trkpt>
<trkpt lat="40.0738752" lon="-105.2302752">
  <ele>1663.23</ele>
  <time>2026-08-28T19:08:16Z</time>
  <course>206.19</course>
  <speed>0.01</speed>
  <fix>3d</fix>
</trkpt>
<trkpt lat="40.0738751" lon="-105.2302751">
  <ele>1663.83</ele>
  <time>2026-08-28T19:08:16Z</time>
  <course>11.47</course>
  <speed>0.0282842712474619</speed>
  <fix>3d</fix>
</trkpt>
<trkpt lat="40.0738751" lon="-105.2302751">
  <ele>1664.27</ele>
  <time>2026-08-28T19:08:16Z</time>
  <course>11.46</course>
  <speed>0.0282842712474619</speed>
  <fix>3d</fix>
</trkpt>
<trkpt lat="40.0738751" lon="-105.2302752">
  <ele>1663.73</ele>
  <time>2026-08-28T19:08:16Z</time>
  <course>208.61</course>
  <speed>0.01</speed>
  <fix>3d</fix>
</trkpt>
<trkpt lat="40.0738751" lon="-105.2302751">
  <ele>1664.36</ele>
  <time>2026-08-28T19:08:16Z</time>
  <course>11.46</course>
  <speed>0.0282842712474619</speed>
  <fix>3d</fix>
</trkpt>
<trkpt lat="40.0738751" lon="-105.2302751">
  <ele>1664.77</ele>
  <time>2026-08-28T19:08:16Z</time>
  <course>11.49</course>
  <speed>0.0282842712474619</speed>
  <fix>3d</fix>
</trkpt>
<trkpt lat="40.0738751" lon="-105.2302752">
  <ele>1664.23</ele>
  <time>2026-08-28T19:08:16Z</time>
  <course>213.65</course>
  <speed>0.01</speed>
  <fix>3d</fix>
</trkpt>
<trkpt lat="40.0738751" lon="-105.2302751">
  <ele>1664.78</ele>
  <time>2026-08-28T19:08:16Z</time>
  <course>11.49</course>
  <speed>0.0282842712474619</speed>
  <fix>3d</fix>
</trkpt>
<trkpt lat="40.0738751" lon="-105.2302751">
  <ele>1665.28</ele>
  <time>2026-08-28T19:08:16Z</time>
  <course>11.5</course>
  <speed>0.0282842712474619</speed>
  <fix>3d</fix>
</trkpt>
<trkpt lat="40.0738751" lon="-105.2302752">
  <ele>1664.73</ele>
  <time>2026-08-28T19:08:16Z</time>
  <course>219.68</course>
  <speed>0.01</speed>
  <fix>3d</fix>
</trkpt>
<trkpt lat="40.073875" lon="-105.2302751">
  <ele>1665.34</ele>
  <time>2026-08-28T19:08:16Z</time>
  <course>11.5</course>
  <speed>0.0282842712474619</speed>
  <fix>3d</fix>
</trkpt>
<trkpt lat="40.073875" lon="-105.2302751">
  <ele>1665.78</ele>
  <time>2026-08-28T19:08:16Z</time>
  <course>11.51</course>
  <speed>0.0282842712474619</speed>
  <fix>3d</fix>
</trkpt>
<trkpt lat="40.0738751" lon="-105.2302753">
  <ele>1665.23</ele>
  <time>2026-08-28T19:08:16Z</time>
  <course>224.86</course>
  <speed>0.01</speed>
  <fix>3d</fix>
</trkpt>
<trkpt lat="40.073875" lon="-105.2302751">
  <ele>1665.84</ele>
  <time>2026-08-28T19:08:16Z</time>
  <course>11.51</course>
  <speed>0.0282842712474619</speed>
  <fix>3d</fix>
</trkpt>
<trkpt lat="40.073875" lon="-105.2302751">
  <ele>1666.29</ele>
  <time>2026-08-28T19:08:16Z</time>
  <course>11.53</course>
  <speed>0.0282842712474619</speed>
  <fix>3d</fix>
</trkpt>
<trkpt lat="40.0738751" lon="-105.2302754">
  <ele>1665.73</ele>
  <time>2026-08-28T19:08:16Z</time>
  <course>230.27</course>
  <speed>0.01</speed>
  <fix>3d</fix>
</trkpt>
<trkpt lat="40.073875" lon="-105.2302751">
  <ele>1666.29</ele>
  <time>2026-08-28T19:08:16Z</time>
  <course>11.53</course>
  <speed>0.0282842712474619</speed>
  <fix>3d</fix>
</trkpt>
<trkpt lat="40.073875" lon="-105.2302751">
  <ele>1666.79</ele>
  <time>2026-08-28T19:08:16Z</time>
  <course>11.55</course>
  <speed>0.0282842712474619</speed>
  <fix>3d</fix>
</trkpt>
<trkpt lat="40.073875" lon="-105.2302754">
  <ele>1666.23</ele>
  <time>2026-08-28T19:08:16Z</time>
  <course>236.18</course>
  <speed>0.01</speed>
  <fix>3d</fix>
</trkpt>
<trkpt lat="40.073875" lon="-105.2302751">
  <ele>1666.85</ele>
  <time>2026-08-28T19:08:16Z</time>
  <course>11.55</course>
  <speed>0.0282842712474619</speed>
  <fix>3d</fix>
</trkpt>
<trkpt lat="40.073875" lon="-105.2302751">
  <ele>1667.29</ele>
  <time>2026-08-28T19:08:16Z</time>
  <course>11.55</course>
  <speed>0.022360679774997897</speed>
  <fix>3d</fix>
</trkpt>
<trkpt lat="40.073875" lon="-105.2302754">
  <ele>1666.73</ele>
  <time>2026-08-28T19:08:16Z</time>
  <course>244.67</course>
  <speed>0.01</speed>
  <fix>3d</fix>
</trkpt>
<trkpt lat="40.073875" lon="-105.2302751">
  <ele>1667.35</ele>
  <time>2026-08-28T19:08:16Z</time>
  <course>11.56</course>
  <speed>0.022360679774997897</speed>
  <fix>3d</fix>
</trkpt>
<trkpt lat="40.073875" lon="-105.2302751">
  <ele>1667.79</ele>
  <time>2026-08-28T19:08:16Z</time>
  <course>11.59</course>
  <speed>0.022360679774997897</speed>
  <fix>3d</fix>
</trkpt>
<trkpt lat="40.073875" lon="-105.2302754">
  <ele>1667.23</ele>
  <time>2026-08-28T19:08:16Z</time>
  <course>257.61</course>
  <speed>0.01</speed>
  <fix>3d</fix>
</trkpt>
<trkpt lat="40.073875" lon="-105.2302751">
  <ele>1667.85</ele>
  <time>2026-08-28T19:08:16Z</time>
  <course>11.59</course>
  <speed>0.022360679774997897</speed>
  <fix>3d</fix>
</trkpt>
<trkpt lat="40.073875" lon="-105.2302751">
  <ele>1668.28</ele>
  <time>2026-08-28T19:08:16Z</time>
  <course>11.6</course>
  <speed>0.022360679774997897</speed>
  <fix>3d</fix>
</trkpt>
<trkpt lat="40.073875" lon="-105.2302754">
  <ele>1667.72</ele>
  <time>2026-08-28T19:08:16Z</time>
  <course>273.96</course>
  <speed>0.0</speed>
  <fix>3d</fix>
</trkpt>
<trkpt lat="40.073875" lon="-105.2302751">
  <ele>1668.29</ele>
  <time>2026-08-28T19:08:16Z</time>
  <course>11.6</course>
  <speed>0.022360679774997897</speed>
  <fix>3d</fix>
</trkpt>
<trkpt lat="40.073875" lon="-105.2302751">
  <ele>1668.78</ele>
  <time>2026-08-28T19:08:16Z</time>
  <course>11.57</course>
  <speed>0.022360679774997897</speed>
  <fix>3d</fix>
</trkpt>
<trkpt lat="40.073875" lon="-105.2302754">
  <ele>1668.22</ele>
  <time>2026-08-28T19:08:16Z</time>
  <course>293.16</course>
  <speed>0.0</speed>
  <fix>3d</fix>
</trkpt>
<trkpt lat="40.073875" lon="-105.2302751">
  <ele>1668.84</ele>
  <time>2026-08-28T19:08:16Z</time>
  <course>11.57</course>
  <speed>0.022360679774997897</speed>
  <fix>3d</fix>
</trkpt>
<trkpt lat="40.073875" lon="-105.2302751">
  <ele>1669.28</ele>
  <time>2026-08-28T19:08:16Z</time>
  <course>11.56</course>
  <speed>0.022360679774997897</speed>
  <fix>3d</fix>
</trkpt>
<trkpt lat="40.073875" lon="-105.2302754">
  <ele>1668.72</ele>
  <time>2026-08-28T19:08:16Z</time>
  <course>311.38</course>
  <speed>0.0</speed>
  <fix>3d</fix>
</trkpt>
<trkpt lat="40.073875" lon="-105.2302751">
  <ele>1669.34</ele>
  <time>2026-08-28T19:08:16Z</time>
  <course>11.56</course>
  <speed>0.022360679774997897</speed>
  <fix>3d</fix>
</trkpt>
<trkpt lat="40.073875" lon="-105.2302751">
  <ele>1669.78</ele>
  <time>2026-08-28T19:08:16Z</time>
  <course>11.56</course>
  <speed>0.02</speed>
  <fix>3d</fix>
</trkpt>
<trkpt lat="40.073875" lon="-105.2302754">
  <ele>1669.21</ele>
  <time>2026-08-28T19:08:16Z</time>
  <course>324.72</course>
  <speed>0.0</speed>
  <fix>3d</fix>
</trkpt>
<trkpt lat="40.073875" lon="-105.2302751">
  <ele>1669.84</ele>
  <time>2026-08-28T19:08:16Z</time>
  <course>11.56</course>
  <speed>0.02</speed>
  <fix>3d</fix>
</trkpt>
<trkpt lat="40.073875" lon="-105.2302751">
  <ele>1670.28</ele>
  <time>2026-08-28T19:08:16Z</time>
  <course>11.58</course>
  <speed>0.02</speed>
  <fix>3d</fix>
</trkpt>
<trkpt lat="40.073875" lon="-105.2302754">
  <ele>1669.71</ele>
  <time>2026-08-28T19:08:16Z</time>
  <course>332.26</course>
  <speed>0.01</speed>
  <fix>3d</fix>
</trkpt>
<trkpt lat="40.073875" lon="-105.2302751">
  <ele>1670.34</ele>
  <time>2026-08-28T19:08:16Z</time>
  <course>11.57</course>
  <speed>0.02</speed>
  <fix>3d</fix>
</trkpt>
<trkpt lat="40.073875" lon="-105.2302751">
  <ele>1670.78</ele>
  <time>2026-08-28T19:08:16Z</time>
  <course>11.6</course>
  <speed>0.02</speed>
  <fix>3d</fix>
</trkpt>
<trkpt lat="40.073875" lon="-105.2302754">
  <ele>1670.21</ele>
  <time>2026-08-28T19:08:16Z</time>
  <course>335.36</course>
  <speed>0.01</speed>
  <fix>3d</fix>
</trkpt>
<trkpt lat="40.073875" lon="-105.2302751">
  <ele>1670.79</ele>
  <time>2026-08-28T19:08:16Z</time>
  <course>11.6</course>
  <speed>0.02</speed>
  <fix>3d</fix>
</trkpt>
<trkpt lat="40.073875" lon="-105.2302751">
  <ele>1671.28</ele>
  <time>2026-08-28T19:08:16Z</time>
  <course>11.59</course>
  <speed>0.02</speed>
  <fix>3d</fix>
</trkpt>
<trkpt lat="40.073875" lon="-105.2302755">
  <ele>1670.71</ele>
  <time>2026-08-28T19:08:16Z</time>
  <course>339.03</course>
  <speed>0.01</speed>
  <fix>3d</fix>
</trkpt>
<trkpt lat="40.073875" lon="-105.2302751">
  <ele>1671.34</ele>
  <time>2026-08-28T19:08:16Z</time>
  <course>11.59</course>
  <speed>0.02</speed>
  <fix>3d</fix>
</trkpt>
<trkpt lat="40.073875" lon="-105.2302751">
  <ele>1671.77</ele>
  <time>2026-08-28T19:08:16Z</time>
  <course>11.6</course>
  <speed>0.02</speed>
  <fix>3d</fix>
</trkpt>
<trkpt lat="40.073875" lon="-105.2302756">
  <ele>1671.21</ele>
  <time>2026-08-28T19:08:16Z</time>
  <course>343.2</course>
  <speed>0.01</speed>
  <fix>3d</fix>
</trkpt>
<trkpt lat="40.073875" lon="-105.2302751">
  <ele>1671.84</ele>
  <time>2026-08-28T19:08:16Z</time>
  <course>11.59</course>
  <speed>0.02</speed>
  <fix>3d</fix>
</trkpt>
<trkpt lat="40.073875" lon="-105.2302751">
  <ele>1672.27</ele>
  <time>2026-08-28T19:08:16Z</time>
  <course>11.6</course>
  <speed>0.02</speed>
  <fix>3d</fix>
</trkpt>
<trkpt lat="40.0738751" lon="-105.2302756">
  <ele>1671.7</ele>
  <time>2026-08-28T19:08:16Z</time>
  <course>344.59</course>
  <speed>0.01</speed>
  <fix>3d</fix>
</trkpt>
<trkpt lat="40.073875" lon="-105.2302751">
  <ele>1672.34</ele>
  <time>2026-08-28T19:08:16Z</time>
  <course>11.6</course>
  <speed>0.02</speed>
  <fix>3d</fix>
</trkpt>
<trkpt lat="40.073875" lon="-105.2302751">
  <ele>1672.77</ele>
  <time>2026-08-28T19:08:16Z</time>
  <course>11.62</course>
  <speed>0.02</speed>
  <fix>3d</fix>
</trkpt>
<trkpt lat="40.0738751" lon="-105.2302756">
  <ele>1672.2</ele>
  <time>2026-08-28T19:08:16Z</time>
  <course>345.45</course>
  <speed>0.01</speed>
  <fix>3d</fix>
</trkpt>
<trkpt lat="40.073875" lon="-105.2302752">
  <ele>1672.84</ele>
  <time>2026-08-28T19:08:16Z</time>
  <course>11.62</course>
  <speed>0.02</speed>
  <fix>3d</fix>
</trkpt>
<trkpt lat="40.073875" lon="-105.2302752">
  <ele>1673.27</ele>
  <time>2026-08-28T19:08:16Z</time>
  <course>11.62</course>
  <speed>0.02</speed>
  <fix>3d</fix>
</trkpt>
<trkpt lat="40.0738751" lon="-105.2302756">
  <ele>1672.7</ele>
  <time>2026-08-28T19:08:16Z</time>
  <course>348.47</course>
  <speed>0.01</speed>
  <fix>3d</fix>
</trkpt>
<trkpt lat="40.073875" lon="-105.2302752">
  <ele>1673.28</ele>
  <time>2026-08-28T19:08:16Z</time>
  <course>11.62</course>
  <speed>0.02</speed>
  <fix>3d</fix>
</trkpt>
<trkpt lat="40.073875" lon="-105.2302752">
  <ele>1673.77</ele>
  <time>2026-08-28T19:08:16Z</time>
  <course>11.62</course>
  <speed>0.02</speed>
  <fix>3d</fix>
</trkpt>
<trkpt lat="40.0738751" lon="-105.2302756">
  <ele>1673.2</ele>
  <time>2026-08-28T19:08:16Z</time>
  <course>353.1</course>
  <speed>0.01</speed>
  <fix>3d</fix>
</trkpt>
<trkpt lat="40.073875" lon="-105.2302752">
  <ele>1673.8</ele>
  <time>2026-08-28T19:08:16Z</time>
  <course>11.62</course>
  <speed>0.02</speed>
  <fix>3d</fix>
</trkpt>
<trkpt lat="40.073875" lon="-105.2302752">
  <ele>1674.28</ele>
  <time>2026-08-28T19:08:16Z</time>
  <course>11.64</course>
  <speed>0.02</speed>
  <fix>3d</fix>
</trkpt>
<trkpt lat="40.0738751" lon="-105.2302756">
  <ele>1673.7</ele>
  <time>2026-08-28T19:08:16Z</time>
  <course>357.32</course>
  <speed>0.01</speed>
  <fix>3d</fix>
</trkpt>
<trkpt lat="40.073875" lon="-105.2302752">
  <ele>1674.34</ele>
  <time>2026-08-28T19:08:16Z</time>
  <course>11.64</course>
  <speed>0.02</speed>
  <fix>3d</fix>
</trkpt>
<trkpt lat="40.073875" lon="-105.2302752">
  <ele>1674.78</ele>
  <time>2026-08-28T19:08:16Z</time>
  <course>11.64</course>
  <speed>0.0316227766016838</speed>
  <fix>3d</fix>
</trkpt>
<trkpt lat="40.0738752" lon="-105.2302756">
  <ele>1674.2</ele>
  <time>2026-08-28T19:08:16Z</time>
  <course>2.98</course>
  <speed>0.01</speed>
  <fix>3d</fix>
</trkpt>
<trkpt lat="40.073875" lon="-105.2302752">
  <ele>1674.84</ele>
  <time>2026-08-28T19:08:16Z</time>
  <course>11.65</course>
  <speed>0.0316227766016838</speed>
  <fix>3d</fix>
</trkpt>
<trkpt lat="40.073875" lon="-105.2302752">
  <ele>1675.28</ele>
  <time>2026-08-28T19:08:16Z</time>
  <course>11.65</course>
  <speed>0.0316227766016838</speed>
  <fix>3d</fix>
</trkpt>
<trkpt lat="40.0738753" lon="-105.2302756">
  <ele>1674.7</ele>
  <time>2026-08-28T19:08:16Z</time>
  <course>12.84</course>
  <speed>0.01</speed>
  <fix>3d</fix>
</trkpt>
<trkpt lat="40.073875" lon="-105.2302752">
  <ele>1675.34</ele>
  <time>2026-08-28T19:08:16Z</time>
  <course>11.66</course>
  <speed>0.0316227766016838</speed>
  <fix>3d</fix>
</trkpt>
<trkpt lat="40.0738751" lon="-105.2302752">
  <ele>1675.77</ele>
  <time>2026-08-28T19:08:16Z</time>
  <course>11.65</course>
  <speed>0.0316227766016838</speed>
  <fix>3d</fix>
</trkpt>
<trkpt lat="40.0738753" lon="-105.2302756">
  <ele>1675.19</ele>
  <time>2026-08-28T19:08:16Z</time>
  <course>26.07</course>
  <speed>0.01</speed>
  <fix>3d</fix>
</trkpt>
<trkpt lat="40.0738751" lon="-105.2302752">
  <ele>1675.78</ele>
  <time>2026-08-28T19:08:16Z</time>
  <course>11.65</course>
  <speed>0.0316227766016838</speed>
  <fix>3d</fix>
</trkpt>
<trkpt lat="40.0738751" lon="-105.2302752">
  <ele>1676.27</ele>
  <time>2026-08-28T19:08:16Z</time>
  <course>11.66</course>
  <speed>0.0316227766016838</speed>
  <fix>3d</fix>
</trkpt>
<trkpt lat="40.0738753" lon="-105.2302756">
  <ele>1675.69</ele>
  <time>2026-08-28T19:08:16Z</time>
  <course>41.11</course>
  <speed>0.01</speed>
  <fix>3d</fix>
</trkpt>
<trkpt lat="40.0738751" lon="-105.2302752">
  <ele>1676.33</ele>
  <time>2026-08-28T19:08:16Z</time>
  <course>11.65</course>
  <speed>0.0316227766016838</speed>
  <fix>3d</fix>
</trkpt>
<trkpt lat="40.0738751" lon="-105.2302752">
  <ele>1676.76</ele>
  <time>2026-08-28T19:08:16Z</time>
  <course>11.66</course>
  <speed>0.0316227766016838</speed>
  <fix>3d</fix>
</trkpt>
<trkpt lat="40.0738753" lon="-105.2302756">
  <ele>1676.19</ele>
  <time>2026-08-28T19:08:16Z</time>
  <course>54.83</course>
  <speed>0.01</speed>
  <fix>3d</fix>
</trkpt>
<trkpt lat="40.0738751" lon="-105.2302752">
  <ele>1676.83</ele>
  <time>2026-08-28T19:08:16Z</time>
  <course>11.65</course>
  <speed>0.0316227766016838</speed>
  <fix>3d</fix>
</trkpt>
<trkpt lat="40.0738751" lon="-105.2302752">
  <ele>1677.26</ele>
  <time>2026-08-28T19:08:16Z</time>
  <course>11.66</course>
  <speed>0.0316227766016838</speed>
  <fix>3d</fix>
</trkpt>
<trkpt lat="40.0738753" lon="-105.2302756">
  <ele>1676.69</ele>
  <time>2026-08-28T19:08:16Z</time>
  <course>65.85</course>
  <speed>0.01</speed>
  <fix>3d</fix>
</trkpt>
<trkpt lat="40.0738751" lon="-105.2302752">
  <ele>1677.32</ele>
  <time>2026-08-28T19:08:16Z</time>
  <course>11.66</course>
  <speed>0.0316227766016838</speed>
  <fix>3d</fix>
</trkpt>
<trkpt lat="40.0738751" lon="-105.2302752">
  <ele>1677.75</ele>
  <time>2026-08-28T19:08:16Z</time>
  <course>11.63</course>
  <speed>0.03605551275463989</speed>
  <fix>3d</fix>
</trkpt>
<trkpt lat="40.0738753" lon="-105.2302756">
  <ele>1677.19</ele>
  <time>2026-08-28T19:08:16Z</time>
  <course>76.36</course>
  <speed>0.01</speed>
  <fix>3d</fix>
</trkpt>
<trkpt lat="40.0738751" lon="-105.2302752">
  <ele>1677.82</ele>
  <time>2026-08-28T19:08:16Z</time>
  <course>11.63</course>
  <speed>0.03605551275463989</speed>
  <fix>3d</fix>
</trkpt>
<trkpt lat="40.0738751" lon="-105.2302752">
  <ele>1678.26</ele>
  <time>2026-08-28T19:08:16Z</time>
  <course>11.62</course>
  <speed>0.03605551275463989</speed>
  <fix>3d</fix>
</trkpt>
<trkpt lat="40.0738754" lon="-105.2302756">
  <ele>1677.69</ele>
  <time>2026-08-28T19:08:16Z</time>
  <course>88.53</course>
  <speed>0.01</speed>
  <fix>3d</fix>
</trkpt>
<trkpt lat="40.0738751" lon="-105.2302752">
  <ele>1678.33</ele>
  <time>2026-08-28T19:08:16Z</time>
  <course>11.62</course>
  <speed>0.03605551275463989</speed>
  <fix>3d</fix>
</trkpt>
<trkpt lat="40.0738751" lon="-105.2302752">
  <ele>1678.76</ele>
  <time>2026-08-28T19:08:16Z</time>
  <course>11.65</course>
  <speed>0.03605551275463989</speed>
  <fix>3d</fix>
</trkpt>
<trkpt lat="40.0738754" lon="-105.2302755">
  <ele>1678.19</ele>
  <time>2026-08-28T19:08:16Z</time>
  <course>101.7</course>
  <speed>0.01</speed>
  <fix>3d</fix>
</trkpt>
<trkpt lat="40.0738751" lon="-105.2302752">
  <ele>1678.77</ele>
  <time>2026-08-28T19:08:16Z</time>
  <course>11.65</course>
  <speed>0.03605551275463989</speed>
  <fix>3d</fix>
</trkpt>
<trkpt lat="40.0738751" lon="-105.2302752">
  <ele>1679.26</ele>
  <time>2026-08-28T19:08:16Z</time>
  <course>11.66</course>
  <speed>0.03605551275463989</speed>
  <fix>3d</fix>
</trkpt>
<trkpt lat="40.0738754" lon="-105.2302754">
  <ele>1678.69</ele>
  <time>2026-08-28T19:08:16Z</time>
  <course>111.86</course>
  <speed>0.01</speed>
  <fix>3d</fix>
</trkpt>
<trkpt lat="40.0738751" lon="-105.2302752">
  <ele>1679.32</ele>
  <time>2026-08-28T19:08:16Z</time>
  <course>11.66</course>
  <speed>0.03605551275463989</speed>
  <fix>3d</fix>
</trkpt>
<trkpt lat="40.0738751" lon="-105.2302752">
  <ele>1679.76</ele>
  <time>2026-08-28T19:08:16Z</time>
  <course>11.67</course>
  <speed>0.03605551275463989</speed>
  <fix>3d</fix>
</trkpt>
<trkpt lat="40.0738754" lon="-105.2302754">
  <ele>1679.19</ele>
  <time>2026-08-28T19:08:16Z</time>
  <course>119.65</course>
  <speed>0.01</speed>
  <fix>3d</fix>
</trkpt>
<trkpt lat="40.0738751" lon="-105.2302752">
  <ele>1679.82</ele>
  <time>2026-08-28T19:08:16Z</time>
  <course>11.67</course>
  <speed>0.03605551275463989</speed>
  <fix>3d</fix>
</trkpt>
<trkpt lat="40.0738751" lon="-105.2302751">
  <ele>1680.26</ele>
  <time>2026-08-28T19:08:16Z</time>
  <course>11.68</course>
  <speed>0.03605551275463989</speed>
  <fix>3d</fix>
</trkpt>
<trkpt lat="40.0738754" lon="-105.2302754">
  <ele>1679.7</ele>
  <time>2026-08-28T19:08:16Z</time>
  <course>128.64</course>
  <speed>0.01</speed>
  <fix>3d</fix>
</trkpt>
<trkpt lat="40.0738751" lon="-105.2302751">
  <ele>1680.33</ele>
  <time>2026-08-28T19:08:16Z</time>
  <course>11.68</course>
  <speed>0.03605551275463989</speed>
  <fix>3d</fix>
</trkpt>
<trkpt lat="40.0738751" lon="-105.2302751">
  <ele>1680.77</ele>
  <time>2026-08-28T19:08:16Z</time>
  <course>11.7</course>
  <speed>0.03605551275463989</speed>
  <fix>3d</fix>
</trkpt>
<trkpt lat="40.0738754" lon="-105.2302754">
  <ele>1680.2</ele>
  <time>2026-08-28T19:08:16Z</time>
  <course>137.78</course>
  <speed>0.01</speed>
  <fix>3d</fix>
</trkpt>
<trkpt lat="40.0738751" lon="-105.2302751">
  <ele>1680.77</ele>
  <time>2026-08-28T19:08:16Z</time>
  <course>11.7</course>
  <speed>0.04242640687119285</speed>
  <fix>3d</fix>
</trkpt>
<trkpt lat="40.0738751" lon="-105.2302751">
  <ele>1681.27</ele>
  <time>2026-08-28T19:08:17Z</time>
  <course>11.7</course>
  <speed>0.04242640687119285</speed>
  <fix>3d</fix>
</trkpt>
<trkpt lat="40.0738754" lon="-105.2302754">
  <ele>1680.7</ele>
  <time>2026-08-28T19:08:17Z</time>
  <course>145.84</course>
  <speed>0.01</speed>
  <fix>3d</fix>
</trkpt>
<trkpt lat="40.0738751" lon="-105.2302751">
  <ele>1681.34</ele>
  <time>2026-08-28T19:08:17Z</time>
  <course>11.71</course>
  <speed>0.04242640687119285</speed>
  <fix>3d</fix>
</trkpt>
<trkpt lat="40.0738751" lon="-105.2302751">
  <ele>1681.77</ele>
  <time>2026-08-28T19:08:17Z</time>
  <course>11.71</course>
  <speed>0.03605551275463989</speed>
  <fix>3d</fix>
</trkpt>
<trkpt lat="40.0738753" lon="-105.2302754">
  <ele>1681.2</ele>
  <time>2026-08-28T19:08:17Z</time>
  <course>152.44</course>
  <speed>0.01</speed>
  <fix>3d</fix>
</trkpt>
<trkpt lat="40.0738751" lon="-105.2302751">
  <ele>1681.78</ele>
  <time>2026-08-28T19:08:17Z</time>
  <course>11.71</course>
  <speed>0.03605551275463989</speed>
  <fix>3d</fix>
</trkpt>
<trkpt lat="40.0738751" lon="-105.2302751">
  <ele>1682.28</ele>
  <time>2026-08-28T19:08:17Z</time>
  <course>11.71</course>
  <speed>0.03605551275463989</speed>
  <fix>3d</fix>
</trkpt>
<trkpt lat="40.0738753" lon="-105.2302754">
  <ele>1681.7</ele>
  <time>2026-08-28T19:08:17Z</time>
  <course>156.99</course>
  <speed>0.01</speed>
  <fix>3d</fix>
</trkpt>
<trkpt lat="40.0738751" lon="-105.2302751">
  <ele>1682.34</ele>
  <time>2026-08-28T19:08:17Z</time>
  <course>11.72</course>
  <speed>0.03605551275463989</speed>
  <fix>3d</fix>
</trkpt>
<trkpt lat="40.0738751" lon="-105.2302751">
  <ele>1682.78</ele>
  <time>2026-08-28T19:08:17Z</time>
  <course>11.72</course>
  <speed>0.03605551275463989</speed>
  <fix>3d</fix>
</trkpt>
<trkpt lat="40.0738753" lon="-105.2302753">
  <ele>1682.2</ele>
  <time>2026-08-28T19:08:17Z</time>
  <course>160.87</course>
  <speed>0.01</speed>
  <fix>3d</fix>
</trkpt>
<trkpt lat="40.0738751" lon="-105.2302751">
  <ele>1682.84</ele>
  <time>2026-08-28T19:08:17Z</time>
  <course>11.72</course>
  <speed>0.03605551275463989</speed>
  <fix>3d</fix>
</trkpt>
<trkpt lat="40.0738751" lon="-105.2302751">
  <ele>1683.28</ele>
  <time>2026-08-28T19:08:17Z</time>
  <course>11.73</course>
  <speed>0.03605551275463989</speed>
  <fix>3d</fix>
</trkpt>
<trkpt lat="40.0738753" lon="-105.2302752">
  <ele>1682.7</ele>
  <time>2026-08-28T19:08:17Z</time>
  <course>164.77</course>
  <speed>0.01</speed>
  <fix>3d</fix>
</trkpt>
<trkpt lat="40.0738751" lon="-105.2302751">
  <ele>1683.28</ele>
  <time>2026-08-28T19:08:17Z</time>
  <course>11.73</course>
  <speed>0.03605551275463989</speed>
  <fix>3d</fix>
</trkpt>
<trkpt lat="40.0738751" lon="-105.2302751">
  <ele>1683.77</ele>
  <time>2026-08-28T19:08:17Z</time>
  <course>11.74</course>
  <speed>0.03605551275463989</speed>
  <fix>3d</fix>
</trkpt>
<trkpt lat="40.0738752" lon="-105.2302752">
  <ele>1683.2</ele>
  <time>2026-08-28T19:08:17Z</time>
  <course>169.06</course>
  <speed>0.01</speed>
  <fix>3d</fix>
</trkpt>
<trkpt lat="40.0738751" lon="-105.2302751">
  <ele>1683.85</ele>
  <time>2026-08-28T19:08:17Z</time>
  <course>11.74</course>
  <speed>0.03605551275463989</speed>
  <fix>3d</fix>
</trkpt>
<trkpt lat="40.0738751" lon="-105.230275">
  <ele>1684.27</ele>
  <time>2026-08-28T19:08:17Z</time>
  <course>11.74</course>
  <speed>0.0282842712474619</speed>
  <fix>3d</fix>
</trkpt>
<trkpt lat="40.0738751" lon="-105.2302752">
  <ele>1683.7</ele>
  <time>2026-08-28T19:08:17Z</time>
  <course>173.97</course>
  <speed>0.01</speed>
  <fix>3d</fix>
</trkpt>
<trkpt lat="40.073875" lon="-105.230275">
  <ele>1684.78</ele>
  <time>2026-08-28T19:08:17Z</time>
  <course>11.49</course>
  <speed>0.03605551275463989</speed>
  <fix>3d</fix>
</trkpt>
<trkpt lat="40.0738751" lon="-105.2302752">
  <ele>1684.2</ele>
  <time>2026-08-28T19:08:17Z</time>
  <course>175.21</course>
  <speed>0.01</speed>
  <fix>3d</fix>
</trkpt>
<trkpt lat="40.073875" lon="-105.230275">
  <ele>1685.35</ele>
  <time>2026-08-28T19:08:17Z</time>
  <course>9.51</course>
  <speed>0.0282842712474619</speed>
  <fix>3d</fix>
</trkpt>
<trkpt lat="40.0738751" lon="-105.2302752">
  <ele>1684.72</ele>
  <time>2026-08-28T19:08:17Z</time>
  <course>173.89</course>
  <speed>0.01</speed>
  <fix>3d</fix>
</trkpt>
<trkpt lat="40.073875" lon="-105.2302751">
  <ele>1685.82</ele>
  <time>2026-08-28T19:08:17Z</time>
  <course>14.78</course>
  <speed>0.13</speed>
  <fix>3d</fix>
</trkpt>
<trkpt lat="40.073875" lon="-105.2302752">
  <ele>1685.27</ele>
  <time>2026-08-28T19:08:17Z</time>
  <course>257.08</course>
  <speed>0.06</speed>
  <fix>3d</fix>
</trkpt>
<trkpt lat="40.073875" lon="-105.2302755">
  <ele>1685.7</ele>
  <time>2026-08-28T19:08:17Z</time>
  <course>17.98</course>
  <speed>0.19</speed>
  <fix>3d</fix>
</trkpt>
<trkpt lat="40.073875" lon="-105.2302754">
  <ele>1685.58</ele>
  <time>2026-08-28T19:08:17Z</time>
  <course>264.99</course>
  <speed>0.16</speed>
  <fix>3d</fix>
</trkpt>
<trkpt lat="40.073875" lon="-105.2302761">
  <ele>1685.2</ele>
  <time>2026-08-28T19:08:17Z</time>
  <course>18.27</course>
  <speed>0.23021728866442676</speed>
  <fix>3d</fix>
</trkpt>
<trkpt lat="40.073875" lon="-105.2302759">
  <ele>1685.39</ele>
  <time>2026-08-28T19:08:17Z</time>
  <course>267.87</course>
  <speed>0.22</speed>
  <fix>3d</fix>
</trkpt>
<trkpt lat="40.073875" lon="-105.2302767">
  <ele>1684.45</ele>
  <time>2026-08-28T19:08:17Z</time>
  <course>17.33</course>
  <speed>0.280713376952364</speed>
  <fix>3d</fix>
</trkpt>
<trkpt lat="40.073875" lon="-105.2302765">
  <ele>1684.82</ele>
  <time>2026-08-28T19:08:17Z</time>
  <course>270.27</course>
  <speed>0.27</speed>
  <fix>3d</fix>
</trkpt>
<trkpt lat="40.073875" lon="-105.2302774">
  <ele>1683.53</ele>
  <time>2026-08-28T19:08:17Z</time>
  <course>17.59</course>
  <speed>0.30066592756745814</speed>
  <fix>3d</fix>
</trkpt>
<trkpt lat="40.073875" lon="-105.2302772">
  <ele>1684.02</ele>
  <time>2026-08-28T19:08:17Z</time>
  <course>271.78</course>
  <speed>0.3</speed>
  <fix>3d</fix>
</trkpt>
<trkpt lat="40.073875" lon="-105.2302782">
  <ele>1682.48</ele>
  <time>2026-08-28T19:08:17Z</time>
  <course>18.3</course>
  <speed>0.2906888370749727</speed>
  <fix>3d</fix>
</trkpt>
<trkpt lat="40.073875" lon="-105.230278">
  <ele>1683.06</ele>
  <time>2026-08-28T19:08:17Z</time>
  <course>272.68</course>
  <speed>0.32</speed>
  <fix>3d</fix>
</trkpt>
<trkpt lat="40.0738751" lon="-105.2302789">
  <ele>1681.36</ele>
  <time>2026-08-28T19:08:17Z</time>
  <course>19.15</course>
  <speed>0.2601922366251538</speed>
  <fix>3d</fix>
</trkpt>
<trkpt lat="40.073875" lon="-105.2302787">
  <ele>1681.99</ele>
  <time>2026-08-28T19:08:17Z</time>
  <course>273.44</course>
  <speed>0.31</speed>
  <fix>3d</fix>
</trkpt>
<trkpt lat="40.0738751" lon="-105.2302795">
  <ele>1680.19</ele>
  <time>2026-08-28T19:08:17Z</time>
  <course>19.38</course>
  <speed>0.23021728866442676</speed>
  <fix>3d</fix>
</trkpt>
<trkpt lat="40.073875" lon="-105.2302794">
  <ele>1680.86</ele>
  <time>2026-08-28T19:08:17Z</time>
  <course>274.3</course>
  <speed>0.28</speed>
  <fix>3d</fix>
</trkpt>
<trkpt lat="40.0738751" lon="-105.2302801">
  <ele>1678.98</ele>
  <time>2026-08-28T19:08:17Z</time>
  <course>19.24</course>
  <speed>0.21</speed>
  <fix>3d</fix>
</trkpt>
<trkpt lat="40.073875" lon="-105.23028">
  <ele>1679.69</ele>
  <time>2026-08-28T19:08:17Z</time>
  <course>275.49</course>
  <speed>0.25</speed>
  <fix>3d</fix>
</trkpt>
<trkpt lat="40.0738751" lon="-105.2302806">
  <ele>1677.75</ele>
  <time>2026-08-28T19:08:17Z</time>
  <course>18.94</course>
  <speed>0.18</speed>
  <fix>3d</fix>
</trkpt>
<trkpt lat="40.0738751" lon="-105.2302806">
  <ele>1678.5</ele>
  <time>2026-08-28T19:08:17Z</time>
  <course>277.02</course>
  <speed>0.22</speed>
  <fix>3d</fix>
</trkpt>
<trkpt lat="40.0738751" lon="-105.2302811">
  <ele>1676.52</ele>
  <time>2026-08-28T19:08:17Z</time>
  <course>18.64</course>
  <speed>0.16</speed>
  <fix>3d</fix>
</trkpt>
<trkpt lat="40.0738751" lon="-105.2302811">
  <ele>1677.29</ele>
  <time>2026-08-28T19:08:17Z</time>
  <course>278.86</course>
  <speed>0.2</speed>
  <fix>3d</fix>
</trkpt>
<trkpt lat="40.0738751" lon="-105.2302815">
  <ele>1675.27</ele>
  <time>2026-08-28T19:08:17Z</time>
  <course>18.34</course>
  <speed>0.13</speed>
  <fix>3d</fix>
</trkpt>
<trkpt lat="40.0738752" lon="-105.2302816">
  <ele>1676.08</ele>
  <time>2026-08-28T19:08:17Z</time>
  <course>281.05</course>
  <speed>0.18</speed>
  <fix>3d</fix>
</trkpt>
<trkpt lat="40.0738751" lon="-105.2302818">
  <ele>1674.03</ele>
  <time>2026-08-28T19:08:17Z</time>
  <course>18.1</course>
  <speed>0.11</speed>
  <fix>3d</fix>
</trkpt>
<trkpt lat="40.0738753" lon="-105.2302819">
  <ele>1674.86</ele>
  <time>2026-08-28T19:08:17Z</time>
  <course>283.65</course>
  <speed>0.15</speed>
  <fix>3d</fix>
</trkpt>
<trkpt lat="40.0738752" lon="-105.2302821">
  <ele>1672.78</ele>
  <time>2026-08-28T19:08:17Z</time>
  <course>17.85</course>
  <speed>0.09</speed>
  <fix>3d</fix>
</trkpt>
<trkpt lat="40.0738754" lon="-105.2302823">
  <ele>1673.64</ele>
  <time>2026-08-28T19:08:17Z</time>
  <course>286.79</course>
  <speed>0.14</speed>
  <fix>3d</fix>
</trkpt>
<trkpt lat="40.0738752" lon="-105.2302824">
  <ele>1671.53</ele>
  <time>2026-08-28T19:08:17Z</time>
  <course>17.63</course>
  <speed>0.07</speed>
  <fix>3d</fix>
</trkpt>
<trkpt lat="40.0738754" lon="-105.2302826">
  <ele>1672.41</ele>
  <time>2026-08-28T19:08:17Z</time>
  <course>290.58</course>
  <speed>0.12</speed>
  <fix>3d</fix>
</trkpt>
<trkpt lat="40.0738753" lon="-105.2302826">
  <ele>1670.28</ele>
  <time>2026-08-28T19:08:17Z</time>
  <course>17.44</course>
  <speed>0.05</speed>
  <fix>3d</fix>
</trkpt>
<trkpt lat="40.0738755" lon="-105.2302828">
  <ele>1671.18</ele>
  <time>2026-08-28T19:08:17Z</time>
  <course>295.17</course>
  <speed>0.1</speed>
  <fix>3d</fix>
</trkpt>
<trkpt lat="40.0738754" lon="-105.2302828">
  <ele>1669.03</ele>
  <time>2026-08-28T19:08:17Z</time>
  <course>17.25</course>
  <speed>0.04</speed>
  <fix>3d</fix>
</trkpt>
<trkpt lat="40.0738756" lon="-105.2302829">
  <ele>1669.96</ele>
  <time>2026-08-28T19:08:17Z</time>
  <course>300.79</course>
  <speed>0.09</speed>
  <fix>3d</fix>
</trkpt>
<trkpt lat="40.0738754" lon="-105.2302829">
  <ele>1667.79</ele>
  <time>2026-08-28T19:08:17Z</time>
  <course>17.11</course>
  <speed>0.02</speed>
  <fix>3d</fix>
</trkpt>
<trkpt lat="40.0738757" lon="-105.2302832">
  <ele>1668.73</ele>
  <time>2026-08-28T19:08:17Z</time>
  <course>307.72</course>
  <speed>0.07</speed>
  <fix>3d</fix>
</trkpt>
<trkpt lat="40.0738755" lon="-105.230283">
  <ele>1666.54</ele>
  <time>2026-08-28T19:08:17Z</time>
  <course>16.98</course>
  <speed>0.01</speed>
  <fix>3d</fix>
</trkpt>
<trkpt lat="40.0738758" lon="-105.2302833">
  <ele>1667.5</ele>
  <time>2026-08-28T19:08:17Z</time>
  <course>316.12</course>
  <speed>0.06</speed>
  <fix>3d</fix>
</trkpt>
<trkpt lat="40.0738756" lon="-105.2302831">
  <ele>1665.29</ele>
  <time>2026-08-28T19:08:17Z</time>
  <course>16.85</course>
  <speed>0.0</speed>
  <fix>3d</fix>
</trkpt>
<trkpt lat="40.0738759" lon="-105.2302834">
  <ele>1666.27</ele>
  <time>2026-08-28T19:08:17Z</time>
  <course>326.13</course>
  <speed>0.06</speed>
  <fix>3d</fix>
</trkpt>
<trkpt lat="40.0738757" lon="-105.2302832">
  <ele>1664.05</ele>
  <time>2026-08-28T19:08:17Z</time>
  <course>16.7</course>
  <speed>0.01</speed>
  <fix>3d</fix>
</trkpt>
<trkpt lat="40.073876" lon="-105.2302835">
  <ele>1665.05</ele>
  <time>2026-08-28T19:08:17Z</time>
  <course>337.56</course>
  <speed>0.05</speed>
  <fix>3d</fix>
</trkpt>
<trkpt lat="40.0738758" lon="-105.2302832">
  <ele>1662.81</ele>
  <time>2026-08-28T19:08:17Z</time>
  <course>16.54</course>
  <speed>0.02</speed>
  <fix>3d</fix>
</trkpt>
<trkpt lat="40.073876" lon="-105.2302835">
  <ele>1663.82</ele>
  <time>2026-08-28T19:08:17Z</time>
  <course>349.71</course>
  <speed>0.05</speed>
  <fix>3d</fix>
</trkpt>
<trkpt lat="40.0738759" lon="-105.2302832">
  <ele>1661.57</ele>
  <time>2026-08-28T19:08:17Z</time>
  <course>16.37</course>
  <speed>0.022360679774997897</speed>
  <fix>3d</fix>
</trkpt>
<trkpt lat="40.0738761" lon="-105.2302835">
  <ele>1662.59</ele>
  <time>2026-08-28T19:08:17Z</time>
  <course>1.45</course>
  <speed>0.05</speed>
  <fix>3d</fix>
</trkpt>
<trkpt lat="40.073876" lon="-105.2302832">
  <ele>1660.33</ele>
  <time>2026-08-28T19:08:17Z</time>
  <course>16.15</course>
  <speed>0.0316227766016838</speed>
  <fix>3d</fix>
</trkpt>
<trkpt lat="40.0738762" lon="-105.2302835">
  <ele>1661.37</ele>
  <time>2026-08-28T19:08:17Z</time>
  <course>11.19</course>
  <speed>0.05</speed>
  <fix>3d</fix>
</trkpt>
<trkpt lat="40.0738761" lon="-105.2302831">
  <ele>1659.09</ele>
  <time>2026-08-28T19:08:17Z</time>
  <course>15.96</course>
  <speed>0.0412310562561766</speed>
  <fix>3d</fix>
</trkpt>
<trkpt lat="40.0738763" lon="-105.2302835">
  <ele>1660.14</ele>
  <time>2026-08-28T19:08:17Z</time>
  <course>17.93</course>
  <speed>0.05</speed>
  <fix>3d</fix>
</trkpt>
<trkpt lat="40.0738762" lon="-105.2302832">
  <ele>1657.85</ele>
  <time>2026-08-28T19:08:17Z</time>
  <course>15.77</course>
  <speed>0.0412310562561766</speed>
  <fix>3d</fix>
</trkpt>
<trkpt lat="40.0738764" lon="-105.2302835">
  <ele>1658.91</ele>
  <time>2026-08-28T19:08:17Z</time>
  <course>22.05</course>
  <speed>0.05</speed>
  <fix>3d</fix>
</trkpt>
<trkpt lat="40.0738763" lon="-105.2302832">
  <ele>1656.61</ele>
  <time>2026-08-28T19:08:17Z</time>
  <course>15.62</course>
  <speed>0.044721359549995794</speed>
  <fix>3d</fix>
</trkpt>
<trkpt lat="40.0738765" lon="-105.2302835">
  <ele>1657.68</ele>
  <time>2026-08-28T19:08:17Z</time>
  <course>24.18</course>
  <speed>0.05</speed>
  <fix>3d</fix>
</trkpt>
<trkpt lat="40.0738764" lon="-105.2302831">
  <ele>1655.38</ele>
  <time>2026-08-28T19:08:17Z</time>
  <course>15.51</course>
  <speed>0.044721359549995794</speed>
  <fix>3d</fix>
</trkpt>
<trkpt lat="40.0738766" lon="-105.2302834">
  <ele>1656.45</ele>
  <time>2026-08-28T19:08:17Z</time>
  <course>24.41</course>
  <speed>0.05</speed>
  <fix>3d</fix>
</trkpt>
<trkpt lat="40.0738765" lon="-105.2302831">
  <ele>1654.14</ele>
  <time>2026-08-28T19:08:17Z</time>
  <course>15.39</course>
  <speed>0.03605551275463989</speed>
  <fix>3d</fix>
</trkpt>
<trkpt lat="40.0738767" lon="-105.2302833">
  <ele>1655.22</ele>
  <time>2026-08-28T19:08:17Z</time>
  <course>23.07</course>
  <speed>0.05</speed>
  <fix>3d</fix>
</trkpt>
<trkpt lat="40.0738766" lon="-105.230283">
  <ele>1652.97</ele>
  <time>2026-08-28T19:08:17Z</time>
  <course>15.39</course>
  <speed>0.09055385138137417</speed>
  <fix>3d</fix>
</trkpt>
<trkpt lat="40.0738768" lon="-105.2302833">
  <ele>1653.99</ele>
  <time>2026-08-28T19:08:17Z</time>
  <course>37.06</course>
  <speed>0.05</speed>
  <fix>3d</fix>
</trkpt>
<trkpt lat="40.0738766" lon="-105.2302827">
  <ele>1652.11</ele>
  <time>2026-08-28T19:08:17Z</time>
  <course>16.08</course>
  <speed>0.18</speed>
  <fix>3d</fix>
</trkpt>
<trkpt lat="40.0738768" lon="-105.2302832">
  <ele>1652.91</ele>
  <time>2026-08-28T19:08:17Z</time>
  <course>68.02</course>
  <speed>0.1</speed>
  <fix>3d</fix>
</trkpt>
<trkpt lat="40.0738767" lon="-105.2302823">
  <ele>1651.45</ele>
  <time>2026-08-28T19:08:17Z</time>
  <course>16.55</course>
  <speed>0.2501999200639361</speed>
  <fix>3d</fix>
</trkpt>
<trkpt lat="40.0738769" lon="-105.2302828">
  <ele>1652.1</ele>
  <time>2026-08-28T19:08:17Z</time>
  <course>80.65</course>
  <speed>0.18</speed>
  <fix>3d</fix>
</trkpt>
<trkpt lat="40.0738767" lon="-105.2302817">
  <ele>1650.92</ele>
  <time>2026-08-28T19:08:17Z</time>
  <course>16.45</course>
  <speed>0.30066592756745814</speed>
  <fix>3d</fix>
</trkpt>
<trkpt lat="40.0738769" lon="-105.2302823">
  <ele>1651.48</ele>
  <time>2026-08-28T19:08:17Z</time>
  <course>84.76</course>
  <speed>0.24</speed>
  <fix>3d</fix>
</trkpt>
<trkpt lat="40.0738767" lon="-105.230281">
  <ele>1650.45</ele>
  <time>2026-08-28T19:08:17Z</time>
  <course>15.96</course>
  <speed>0.34132096331752027</speed>
  <fix>3d</fix>
</trkpt>
<trkpt lat="40.073877" lon="-105.2302817">
  <ele>1650.97</ele>
  <time>2026-08-28T19:08:17Z</time>
  <course>86.72</course>
  <speed>0.29</speed>
  <fix>3d</fix>
</trkpt>
<trkpt lat="40.0738767" lon="-105.2302802">
  <ele>1650.01</ele>
  <time>2026-08-28T19:08:17Z</time>
  <course>15.33</course>
  <speed>0.3712142238654117</speed>
  <fix>3d</fix>
</trkpt>
<trkpt lat="40.0738771" lon="-105.2302809">
  <ele>1650.51</ele>
  <time>2026-08-28T19:08:17Z</time>
  <course>87.93</course>
  <speed>0.33</speed>
  <fix>3d</fix>
</trkpt>
<trkpt lat="40.0738768" lon="-105.2302794">
  <ele>1649.59</ele>
  <time>2026-08-28T19:08:17Z</time>
  <course>14.75</course>
  <speed>0.3911521443121589</speed>
  <fix>3d</fix>
</trkpt>
<trkpt lat="40.0738771" lon="-105.2302802">
  <ele>1650.08</ele>
  <time>2026-08-28T19:08:17Z</time>
  <course>88.86</course>
  <speed>0.36</speed>
  <fix>3d</fix>
</trkpt>
<trkpt lat="40.0738768" lon="-105.2302785">
  <ele>1649.17</ele>
  <time>2026-08-28T19:08:17Z</time>
  <course>14.3</course>
  <speed>0.4119465984809196</speed>
  <fix>3d</fix>
</trkpt>
<trkpt lat="40.0738771" lon="-105.2302792">
  <ele>1649.66</ele>
  <time>2026-08-28T19:08:17Z</time>
  <course>89.69</course>
  <speed>0.38</speed>
  <fix>3d</fix>
</trkpt>
<trkpt lat="40.0738768" lon="-105.2302775">
  <ele>1648.76</ele>
  <time>2026-08-28T19:08:17Z</time>
  <course>13.96</course>
  <speed>0.4219004621945798</speed>
  <fix>3d</fix>
</trkpt>
<trkpt lat="40.0738771" lon="-105.2302783">
  <ele>1649.25</ele>
  <time>2026-08-28T19:08:17Z</time>
  <course>90.48</course>
  <speed>0.4</speed>
  <fix>3d</fix>
</trkpt>
<trkpt lat="40.0738768" lon="-105.2302766">
  <ele>1648.35</ele>
  <time>2026-08-28T19:08:17Z</time>
  <course>13.72</course>
  <speed>0.43185645763378366</speed>
  <fix>3d</fix>
</trkpt>
<trkpt lat="40.0738771" lon="-105.2302773">
  <ele>1648.83</ele>
  <time>2026-08-28T19:08:17Z</time>
  <course>91.26</course>
  <speed>0.41</speed>
  <fix>3d</fix>
</trkpt>
<trkpt lat="40.0738768" lon="-105.2302756">
  <ele>1647.94</ele>
  <time>2026-08-28T19:08:17Z</time>
  <course>13.56</course>
  <speed>0.44181444068749043</speed>
  <fix>3d</fix>
</trkpt>
<trkpt lat="40.0738771" lon="-105.2302763">
  <ele>1648.41</ele>
  <time>2026-08-28T19:08:17Z</time>
  <course>92.02</course>
  <speed>0.43</speed>
  <fix>3d</fix>
</trkpt>
<trkpt lat="40.0738768" lon="-105.2302745">
  <ele>1647.53</ele>
  <time>2026-08-28T19:08:17Z</time>
  <course>13.47</course>
  <speed>0.45276925690687087</speed>
  <fix>3d</fix>
</trkpt>
<trkpt lat="40.0738771" lon="-105.2302754">
  <ele>1648.0</ele>
  <time>2026-08-28T19:08:17Z</time>
  <course>92.77</course>
  <speed>0.44</speed>
  <fix>3d</fix>
</trkpt>
<trkpt lat="40.0738768" lon="-105.2302735">
  <ele>1647.13</ele>
  <time>2026-08-28T19:08:17Z</time>
  <course>13.41</course>
  <speed>0.46270941205037097</speed>
  <fix>3d</fix>
</trkpt>
<trkpt lat="40.0738771" lon="-105.2302743">
  <ele>1647.59</ele>
  <time>2026-08-28T19:08:17Z</time>
  <course>93.5</course>
  <speed>0.45</speed>
  <fix>3d</fix>
</trkpt>
<trkpt lat="40.0738767" lon="-105.2302724">
  <ele>1646.74</ele>
  <time>2026-08-28T19:08:17Z</time>
  <course>13.36</course>
  <speed>0.4825971404805462</speed>
  <fix>3d</fix>
</trkpt>
<trkpt lat="40.073877" lon="-105.2302732">
  <ele>1647.19</ele>
  <time>2026-08-28T19:08:17Z</time>
  <course>94.24</course>
  <speed>0.46</speed>
  <fix>3d</fix>
</trkpt>
<trkpt lat="40.0738767" lon="-105.2302712">
  <ele>1646.41</ele>
  <time>2026-08-28T19:08:17Z</time>
  <course>13.19</course>
  <speed>0.5035871324805669</speed>
  <fix>3d</fix>
</trkpt>
<trkpt lat="40.0738769" lon="-105.2302721">
  <ele>1646.82</ele>
  <time>2026-08-28T19:08:17Z</time>
  <course>95.0</course>
  <speed>0.48</speed>
  <fix>3d</fix>
</trkpt>
<trkpt lat="40.0738766" lon="-105.2302701">
  <ele>1646.12</ele>
  <time>2026-08-28T19:08:17Z</time>
  <course>12.88</course>
  <speed>0.5246903848937962</speed>
  <fix>3d</fix>
</trkpt>
<trkpt lat="40.0738768" lon="-105.2302709">
  <ele>1646.49</ele>
  <time>2026-08-28T19:08:17Z</time>
  <course>95.73</course>
  <speed>0.5</speed>
  <fix>3d</fix>
</trkpt>
<trkpt lat="40.0738765" lon="-105.2302689">
  <ele>1645.85</ele>
  <time>2026-08-28T19:08:17Z</time>
  <course>12.52</course>
  <speed>0.5346026561849464</speed>
  <fix>3d</fix>
</trkpt>
<trkpt lat="40.0738767" lon="-105.2302698">
  <ele>1646.2</ele>
  <time>2026-08-28T19:08:17Z</time>
  <course>96.43</course>
  <speed>0.51</speed>
  <fix>3d</fix>
</trkpt>
<trkpt lat="40.0738764" lon="-105.2302676">
  <ele>1645.59</ele>
  <time>2026-08-28T19:08:17Z</time>
  <course>12.22</course>
  <speed>0.5360037313302959</speed>
  <fix>3d</fix>
</trkpt>
<trkpt lat="40.0738766" lon="-105.2302685">
  <ele>1645.92</ele>
  <time>2026-08-28T19:08:17Z</time>
  <course>97.15</course>
  <speed>0.52</speed>
  <fix>3d</fix>
</trkpt>
<trkpt lat="40.0738763" lon="-105.2302664">
  <ele>1645.34</ele>
  <time>2026-08-28T19:08:17Z</time>
  <course>12.01</course>
  <speed>0.5458937625582473</speed>
  <fix>3d</fix>
</trkpt>
<trkpt lat="40.0738765" lon="-105.2302674">
  <ele>1645.66</ele>
  <time>2026-08-28T19:08:17Z</time>
  <course>97.9</course>
  <speed>0.52</speed>
  <fix>3d</fix>
</trkpt>
<trkpt lat="40.0738762" lon="-105.2302652">
  <ele>1645.09</ele>
  <time>2026-08-28T19:08:17Z</time>
  <course>11.89</course>
  <speed>0.5474486277268398</speed>
  <fix>3d</fix>
</trkpt>
<trkpt lat="40.0738763" lon="-105.2302661">
  <ele>1645.4</ele>
  <time>2026-08-28T19:08:17Z</time>
  <course>98.68</course>
  <speed>0.53</speed>
  <fix>3d</fix>
</trkpt>
<trkpt lat="40.073876" lon="-105.2302639">
  <ele>1644.85</ele>
  <time>2026-08-28T19:08:17Z</time>
  <course>11.81</course>
  <speed>0.5474486277268398</speed>
  <fix>3d</fix>
</trkpt>
<trkpt lat="40.0738762" lon="-105.2302649">
  <ele>1645.14</ele>
  <time>2026-08-28T19:08:17Z</time>
  <course>99.48</course>
  <speed>0.53</speed>
  <fix>3d</fix>
</trkpt>
<trkpt lat="40.0738759" lon="-105.2302627">
  <ele>1644.61</ele>
  <time>2026-08-28T19:08:17Z</time>
  <course>11.79</course>
  <speed>0.5491812087098392</speed>
  <fix>3d</fix>
</trkpt>
<trkpt lat="40.0738761" lon="-105.2302637">
  <ele>1644.89</ele>
  <time>2026-08-28T19:08:17Z</time>
  <course>100.28</course>
  <speed>0.53</speed>
  <fix>3d</fix>
</trkpt>
<trkpt lat="40.0738757" lon="-105.2302615">
  <ele>1644.38</ele>
  <time>2026-08-28T19:08:17Z</time>
  <course>11.78</course>
  <speed>0.5491812087098392</speed>
  <fix>3d</fix>
</trkpt>
<trkpt lat="40.0738759" lon="-105.2302624">
  <ele>1644.65</ele>
  <time>2026-08-28T19:08:17Z</time>
  <course>101.1</course>
  <speed>0.53</speed>
  <fix>3d</fix>
</trkpt>
<trkpt lat="40.0738755" lon="-105.2302602">
  <ele>1644.15</ele>
  <time>2026-08-28T19:08:17Z</time>
  <course>11.78</course>
  <speed>0.5510898293381942</speed>
  <fix>3d</fix>
</trkpt>
<trkpt lat="40.0738757" lon="-105.2302612">
  <ele>1644.41</ele>
  <time>2026-08-28T19:08:17Z</time>
  <course>101.92</course>
  <speed>0.53</speed>
  <fix>3d</fix>
</trkpt>
<trkpt lat="40.0738753" lon="-105.230259">
  <ele>1643.93</ele>
  <time>2026-08-28T19:08:17Z</time>
  <course>11.79</course>
  <speed>0.5412947441089743</speed>
  <fix>3d</fix>
</trkpt>
<trkpt lat="40.0738755" lon="-105.2302599">
  <ele>1644.17</ele>
  <time>2026-08-28T19:08:17Z</time>
  <course>102.75</course>
  <speed>0.53</speed>
  <fix>3d</fix>
</trkpt>
<trkpt lat="40.0738751" lon="-105.2302578">
  <ele>1643.71</ele>
  <time>2026-08-28T19:08:17Z</time>
  <course>11.79</course>
  <speed>0.5434151267677411</speed>
  <fix>3d</fix>
</trkpt>
<trkpt lat="40.0738753" lon="-105.2302588">
  <ele>1643.95</ele>
  <time>2026-08-28T19:08:17Z</time>
  <course>103.58</course>
  <speed>0.53</speed>
  <fix>3d</fix>
</trkpt>
<trkpt lat="40.0738749" lon="-105.2302566">
  <ele>1643.5</ele>
  <time>2026-08-28T19:08:17Z</time>
  <course>11.79</course>
  <speed>0.5360037313302959</speed>
  <fix>3d</fix>
</trkpt>
<trkpt lat="40.073875" lon="-105.2302575">
  <ele>1643.73</ele>
  <time>2026-08-28T19:08:17Z</time>
  <course>104.43</course>
  <speed>0.52</speed>
  <fix>3d</fix>
</trkpt>
<trkpt lat="40.0738746" lon="-105.2302554">
  <ele>1643.29</ele>
  <time>2026-08-28T19:08:17Z</time>
  <course>11.81</course>
  <speed>0.5360037313302959</speed>
  <fix>3d</fix>
</trkpt>
<trkpt lat="40.0738748" lon="-105.2302564">
  <ele>1643.51</ele>
  <time>2026-08-28T19:08:17Z</time>
  <course>105.29</course>
  <speed>0.52</speed>
  <fix>3d</fix>
</trkpt>
<trkpt lat="40.0738744" lon="-105.2302542">
  <ele>1643.09</ele>
  <time>2026-08-28T19:08:17Z</time>
  <course>11.8</course>
  <speed>0.5288667128870941</speed>
  <fix>3d</fix>
</trkpt>
<trkpt lat="40.0738745" lon="-105.2302551">
  <ele>1643.3</ele>
  <time>2026-08-28T19:08:17Z</time>
  <course>106.17</course>
  <speed>0.52</speed>
  <fix>3d</fix>
</trkpt>
<trkpt lat="40.0738741" lon="-105.2302531">
  <ele>1642.9</ele>
  <time>2026-08-28T19:08:17Z</time>
  <course>11.8</course>
  <speed>0.5288667128870941</speed>
  <fix>3d</fix>
</trkpt>
<trkpt lat="40.0738743" lon="-105.230254">
  <ele>1643.1</ele>
  <time>2026-08-28T19:08:17Z</time>
  <course>107.04</course>
  <speed>0.51</speed>
  <fix>3d</fix>
</trkpt>
<trkpt lat="40.0738739" lon="-105.2302519">
  <ele>1642.72</ele>
  <time>2026-08-28T19:08:17Z</time>
  <course>11.83</course>
  <speed>0.5220153254455275</speed>
  <fix>3d</fix>
</trkpt>
<trkpt lat="40.073874" lon="-105.2302528">
  <ele>1642.91</ele>
  <time>2026-08-28T19:08:17Z</time>
  <course>107.92</course>
  <speed>0.5</speed>
  <fix>3d</fix>
</trkpt>
<trkpt lat="40.0738736" lon="-105.2302508">
  <ele>1642.55</ele>
  <time>2026-08-28T19:08:17Z</time>
  <course>11.87</course>
  <speed>0.5124451190127582</speed>
  <fix>3d</fix>
</trkpt>
<trkpt lat="40.0738737" lon="-105.2302517">
  <ele>1642.72</ele>
  <time>2026-08-28T19:08:17Z</time>
  <course>108.82</course>
  <speed>0.5</speed>
  <fix>3d</fix>
</trkpt>
<trkpt lat="40.0738733" lon="-105.2302497">
  <ele>1642.38</ele>
  <time>2026-08-28T19:08:17Z</time>
  <course>11.87</course>
  <speed>0.5059644256269408</speed>
  <fix>3d</fix>
</trkpt>
<trkpt lat="40.0738734" lon="-105.2302506">
  <ele>1642.54</ele>
  <time>2026-08-28T19:08:17Z</time>
  <course>109.72</course>
  <speed>0.49</speed>
  <fix>3d</fix>
</trkpt>
<trkpt lat="40.073873" lon="-105.2302486">
  <ele>1642.21</ele>
  <time>2026-08-28T19:08:17Z</time>
  <course>11.93</course>
  <speed>0.49648766349225637</speed>
  <fix>3d</fix>
</trkpt>
<trkpt lat="40.0738731" lon="-105.2302495">
  <ele>1642.36</ele>
  <time>2026-08-28T19:08:17Z</time>
  <course>110.62</course>
  <speed>0.48</speed>
  <fix>3d</fix>
</trkpt>
<trkpt lat="40.0738727" lon="-105.2302476">
  <ele>1642.06</ele>
  <time>2026-08-28T19:08:17Z</time>
  <course>12.02</course>
  <speed>0.49648766349225637</speed>
  <fix>3d</fix>
</trkpt>
<trkpt lat="40.0738728" lon="-105.2302484">
  <ele>1642.2</ele>
  <time>2026-08-28T19:08:17Z</time>
  <course>111.49</course>
  <speed>0.47</speed>
  <fix>3d</fix>
</trkpt>
<trkpt lat="40.0738723" lon="-105.2302465">
  <ele>1641.9</ele>
  <time>2026-08-28T19:08:17Z</time>
  <course>12.06</course>
  <speed>0.49040799340956914</speed>
  <fix>3d</fix>
</trkpt>
<trkpt lat="40.0738725" lon="-105.2302474">
  <ele>1642.04</ele>
  <time>2026-08-28T19:08:17Z</time>
  <course>112.23</course>
  <speed>0.47</speed>
  <fix>3d</fix>
</trkpt>
<trkpt lat="40.073872" lon="-105.2302455">
  <ele>1641.75</ele>
  <time>2026-08-28T19:08:17Z</time>
  <course>12.09</course>
  <speed>0.48104053883222775</speed>
  <fix>3d</fix>
</trkpt>
<trkpt lat="40.0738721" lon="-105.2302464">
  <ele>1641.88</ele>
  <time>2026-08-28T19:08:17Z</time>
  <course>112.9</course>
  <speed>0.46</speed>
  <fix>3d</fix>
</trkpt>
<trkpt lat="40.0738717" lon="-105.2302445">
  <ele>1641.6</ele>
  <time>2026-08-28T19:08:17Z</time>
  <course>12.08</course>
  <speed>0.48104053883222775</speed>
  <fix>3d</fix>
</trkpt>
<trkpt lat="40.0738718" lon="-105.2302454">
  <ele>1641.72</ele>
  <time>2026-08-28T19:08:17Z</time>
  <course>113.55</course>
  <speed>0.46</speed>
  <fix>3d</fix>
</trkpt>
<trkpt lat="40.0738713" lon="-105.2302435">
  <ele>1641.45</ele>
  <time>2026-08-28T19:08:17Z</time>
  <course>12.08</course>
  <speed>0.4753945729601885</speed>
  <fix>3d</fix>
</trkpt>
<trkpt lat="40.0738715" lon="-105.2302444">
  <ele>1641.57</ele>
  <time>2026-08-28T19:08:17Z</time>
  <course>114.19</course>
  <speed>0.45</speed>
  <fix>3d</fix>
</trkpt>
<trkpt lat="40.073871" lon="-105.2302426">
  <ele>1641.31</ele>
  <time>2026-08-28T19:08:17Z</time>
  <course>12.08</course>
  <speed>0.4661544808322666</speed>
  <fix>3d</fix>
</trkpt>
<trkpt lat="40.0738712" lon="-105.2302435">
  <ele>1641.41</ele>
  <time>2026-08-28T19:08:17Z</time>
  <course>114.81</course>
  <speed>0.44</speed>
  <fix>3d</fix>
</trkpt>
<trkpt lat="40.0738707" lon="-105.2302416">
  <ele>1641.15</ele>
  <time>2026-08-28T19:08:17Z</time>
  <course>12.07</course>
  <speed>0.47010637094172636</speed>
  <fix>3d</fix>
</trkpt>
<trkpt lat="40.0738708" lon="-105.2302425">
  <ele>1641.26</ele>
  <time>2026-08-28T19:08:17Z</time>
  <course>115.41</course>
  <speed>0.44</speed>
  <fix>3d</fix>
</trkpt>
<trkpt lat="40.0738703" lon="-105.2302407">
  <ele>1640.93</ele>
  <time>2026-08-28T19:08:17Z</time>
  <course>12.03</course>
  <speed>0.40249223594996214</speed>
  <fix>3d</fix>
</trkpt>
<trkpt lat="40.0738705" lon="-105.2302416">
  <ele>1641.1</ele>
  <time>2026-08-28T19:08:17Z</time>
  <course>116.84</course>
  <speed>0.42</speed>
  <fix>3d</fix>
</trkpt>
<trkpt lat="40.07387" lon="-105.2302401">
  <ele>1640.37</ele>
  <time>2026-08-28T19:08:17Z</time>
  <course>13.1</course>
  <speed>0.30528675044947495</speed>
  <fix>3d</fix>
</trkpt>
<trkpt lat="40.0738701" lon="-105.2302407">
  <ele>1640.79</ele>
  <time>2026-08-28T19:08:17Z</time>
  <course>121.62</course>
  <speed>0.35</speed>
  <fix>3d</fix>
</trkpt>
<trkpt lat="40.0738697" lon="-105.2302396">
  <ele>1639.6</ele>
  <time>2026-08-28T19:08:17Z</time>
  <course>14.25</course>
  <speed>0.266270539113887</speed>
  <fix>3d</fix>
</trkpt>
<trkpt lat="40.0738698" lon="-105.2302401">
  <ele>1640.19</ele>
  <time>2026-08-28T19:08:17Z</time>
  <course>128.54</course>
  <speed>0.28</speed>
  <fix>3d</fix>
</trkpt>
<trkpt lat="40.0738694" lon="-105.2302392">
  <ele>1638.67</ele>
  <time>2026-08-28T19:08:17Z</time>
  <course>13.51</course>
  <speed>0.23430749027719963</speed>
  <fix>3d</fix>
</trkpt>
<trkpt lat="40.0738695" lon="-105.2302397">
  <ele>1639.37</ele>
  <time>2026-08-28T19:08:17Z</time>
  <course>133.18</course>
  <speed>0.25</speed>
  <fix>3d</fix>
</trkpt>
<trkpt lat="40.0738691" lon="-105.2302389">
  <ele>1637.64</ele>
  <time>2026-08-28T19:08:17Z</time>
  <course>12.23</course>
  <speed>0.16401219466856726</speed>
  <fix>3d</fix>
</trkpt>
<trkpt lat="40.0738692" lon="-105.2302393">
  <ele>1638.41</ele>
  <time>2026-08-28T19:08:17Z</time>
  <course>142.35</course>
  <speed>0.21</speed>
  <fix>3d</fix>
</trkpt>
<trkpt lat="40.0738689" lon="-105.2302387">
  <ele>1636.53</ele>
  <time>2026-08-28T19:08:17Z</time>
  <course>13.18</course>
  <speed>0.147648230602334</speed>
  <fix>3d</fix>
</trkpt>
<trkpt lat="40.0738689" lon="-105.2302391">
  <ele>1637.35</ele>
  <time>2026-08-28T19:08:17Z</time>
  <course>157.5</course>
  <speed>0.17</speed>
  <fix>3d</fix>
</trkpt>
<trkpt lat="40.0738686" lon="-105.2302386">
  <ele>1635.36</ele>
  <time>2026-08-28T19:08:17Z</time>
  <course>14.21</course>
  <speed>0.1392838827718412</speed>
  <fix>3d</fix>
</trkpt>
<trkpt lat="40.0738686" lon="-105.230239">
  <ele>1636.22</ele>
  <time>2026-08-28T19:08:17Z</time>
  <course>168.24</course>
  <speed>0.16</speed>
  <fix>3d</fix>
</trkpt>
<trkpt lat="40.0738683" lon="-105.2302386">
  <ele>1634.17</ele>
  <time>2026-08-28T19:08:17Z</time>
  <course>15.08</course>
  <speed>0.14317821063276354</speed>
  <fix>3d</fix>
</trkpt>
<trkpt lat="40.0738683" lon="-105.2302389">
  <ele>1635.04</ele>
  <time>2026-08-28T19:08:17Z</time>
  <course>172.41</course>
  <speed>0.15</speed>
  <fix>3d</fix>
</trkpt>
<trkpt lat="40.073868" lon="-105.2302385">
  <ele>1632.94</ele>
  <time>2026-08-28T19:08:17Z</time>
  <course>15.2</course>
  <speed>0.15231546211727817</speed>
  <fix>3d</fix>
</trkpt>
<trkpt lat="40.073868" lon="-105.2302388">
  <ele>1633.84</ele>
  <time>2026-08-28T19:08:17Z</time>
  <course>171.26</course>
  <speed>0.15</speed>
  <fix>3d</fix>
</trkpt>
<trkpt lat="40.0738677" lon="-105.2302384">
  <ele>1631.71</ele>
  <time>2026-08-28T19:08:17Z</time>
  <course>15.09</course>
  <speed>0.15652475842498528</speed>
  <fix>3d</fix>
</trkpt>
<trkpt lat="40.0738678" lon="-105.2302388">
  <ele>1632.62</ele>
  <time>2026-08-28T19:08:17Z</time>
  <course>168.65</course>
  <speed>0.15</speed>
  <fix>3d</fix>
</trkpt>
<trkpt lat="40.0738675" lon="-105.2302383">
  <ele>1630.47</ele>
  <time>2026-08-28T19:08:17Z</time>
  <course>14.94</course>
  <speed>0.15652475842498528</speed>
  <fix>3d</fix>
</trkpt>
<trkpt lat="40.0738675" lon="-105.2302387">
  <ele>1631.39</ele>
  <time>2026-08-28T19:08:17Z</time>
  <course>166.46</course>
  <speed>0.14</speed>
  <fix>3d</fix>
</trkpt>
<trkpt lat="40.0738672" lon="-105.2302382">
  <ele>1629.23</ele>
  <time>2026-08-28T19:08:17Z</time>
  <course>14.82</course>
  <speed>0.16124515496597097</speed>
  <fix>3d</fix>
</trkpt>
<trkpt lat="40.0738672" lon="-105.2302386">
  <ele>1630.16</ele>
  <time>2026-08-28T19:08:17Z</time>
  <course>164.18</course>
  <speed>0.14</speed>
  <fix>3d</fix>
</trkpt>
<trkpt lat="40.0738669" lon="-105.2302381">
  <ele>1627.98</ele>
  <time>2026-08-28T19:08:17Z</time>
  <course>14.72</course>
  <speed>0.16124515496597097</speed>
  <fix>3d</fix>
</trkpt>
<trkpt lat="40.073867" lon="-105.2302385">
  <ele>1628.92</ele>
  <time>2026-08-28T19:08:17Z</time>
  <course>161.9</course>
  <speed>0.14</speed>
  <fix>3d</fix>
</trkpt>
<trkpt lat="40.0738667" lon="-105.230238">
  <ele>1626.73</ele>
  <time>2026-08-28T19:08:17Z</time>
  <course>14.62</course>
  <speed>0.1664331697709324</speed>
  <fix>3d</fix>
</trkpt>
<trkpt lat="40.0738668" lon="-105.2302384">
  <ele>1627.68</ele>
  <time>2026-08-28T19:08:17Z</time>
  <course>159.58</course>
  <speed>0.13</speed>
  <fix>3d</fix>
</trkpt>
<trkpt lat="40.0738664" lon="-105.2302379">
  <ele>1625.49</ele>
  <time>2026-08-28T19:08:17Z</time>
  <course>14.53</course>
  <speed>0.1664331697709324</speed>
  <fix>3d</fix>
</trkpt>
<trkpt lat="40.0738666" lon="-105.2302383">
  <ele>1626.45</ele>
  <time>2026-08-28T19:08:17Z</time>
  <course>157.23</course>
  <speed>0.13</speed>
  <fix>3d</fix>
</trkpt>
<trkpt lat="40.0738662" lon="-105.2302377">
  <ele>1624.25</ele>
  <time>2026-08-28T19:08:17Z</time>
  <course>14.43</course>
  <speed>0.1664331697709324</speed>
  <fix>3d</fix>
</trkpt>
<trkpt lat="40.0738663" lon="-105.2302382">
  <ele>1625.21</ele>
  <time>2026-08-28T19:08:17Z</time>
  <course>154.86</course>
  <speed>0.13</speed>
  <fix>3d</fix>
</trkpt>
<trkpt lat="40.0738659" lon="-105.2302376">
  <ele>1623.02</ele>
  <time>2026-08-28T19:08:17Z</time>
  <course>14.34</course>
  <speed>0.17204650534085253</speed>
  <fix>3d</fix>
</trkpt>
<trkpt lat="40.073866" lon="-105.230238">
  <ele>1623.98</ele>
  <time>2026-08-28T19:08:17Z</time>
  <course>152.5</course>
  <speed>0.13</speed>
  <fix>3d</fix>
</trkpt>
<trkpt lat="40.0738657" lon="-105.2302374">
  <ele>1621.78</ele>
  <time>2026-08-28T19:08:17Z</time>
  <course>14.28</course>
  <speed>0.17204650534085253</speed>
  <fix>3d</fix>
</trkpt>
<trkpt lat="40.0738659" lon="-105.2302378">
  <ele>1622.74</ele>
  <time>2026-08-28T19:08:17Z</time>
  <course>150.29</course>
  <speed>0.13</speed>
  <fix>3d</fix>
</trkpt>
<trkpt lat="40.0738655" lon="-105.2302373">
  <ele>1620.54</ele>
  <time>2026-08-28T19:08:17Z</time>
  <course>14.22</course>
  <speed>0.17204650534085253</speed>
  <fix>3d</fix>
</trkpt>
<trkpt lat="40.0738657" lon="-105.2302377">
  <ele>1621.51</ele>
  <time>2026-08-28T19:08:17Z</time>
  <course>148.16</course>
  <speed>0.13</speed>
  <fix>3d</fix>
</trkpt>
<trkpt lat="40.0738652" lon="-105.2302371">
  <ele>1619.29</ele>
  <time>2026-08-28T19:08:17Z</time>
  <course>14.17</course>
  <speed>0.17204650534085253</speed>
  <fix>3d</fix>
</trkpt>
<trkpt lat="40.0738654" lon="-105.2302376">
  <ele>1620.28</ele>
  <time>2026-08-28T19:08:17Z</time>
  <course>146.08</course>
  <speed>0.13</speed>
  <fix>3d</fix>
</trkpt>
<trkpt lat="40.073865" lon="-105.2302369">
  <ele>1618.05</ele>
  <time>2026-08-28T19:08:17Z</time>
  <course>14.1</course>
  <speed>0.17804493814764857</speed>
  <fix>3d</fix>
</trkpt>
<trkpt lat="40.0738652" lon="-105.2302373">
  <ele>1619.04</ele>
  <time>2026-08-28T19:08:17Z</time>
  <course>144.02</course>
  <speed>0.12</speed>
  <fix>3d</fix>
</trkpt>
<trkpt lat="40.0738648" lon="-105.2302367">
  <ele>1616.81</ele>
  <time>2026-08-28T19:08:17Z</time>
  <course>14.07</course>
  <speed>0.17804493814764857</speed>
  <fix>3d</fix>
</trkpt>
<trkpt lat="40.0738651" lon="-105.2302372">
  <ele>1617.81</ele>
  <time>2026-08-28T19:08:17Z</time>
  <course>142.1</course>
  <speed>0.12</speed>
  <fix>3d</fix>
</trkpt>
<trkpt lat="40.0738646" lon="-105.2302366">
  <ele>1615.56</ele>
  <time>2026-08-28T19:08:17Z</time>
  <course>13.98</course>
  <speed>0.17804493814764857</speed>
  <fix>3d</fix>
</trkpt>
<trkpt lat="40.073865" lon="-105.2302369">
  <ele>1616.58</ele>
  <time>2026-08-28T19:08:17Z</time>
  <course>140.32</course>
  <speed>0.12</speed>
  <fix>3d</fix>
</trkpt>
<trkpt lat="40.0738644" lon="-105.2302364">
  <ele>1614.31</ele>
  <time>2026-08-28T19:08:17Z</time>
  <course>13.91</course>
  <speed>0.17804493814764857</speed>
  <fix>3d</fix>
</trkpt>
<trkpt lat="40.0738647" lon="-105.2302368">
  <ele>1615.35</ele>
  <time>2026-08-28T19:08:17Z</time>
  <course>138.63</course>
  <speed>0.13</speed>
  <fix>3d</fix>
</trkpt>
<trkpt lat="40.0738643" lon="-105.2302361">
  <ele>1613.07</ele>
  <time>2026-08-28T19:08:17Z</time>
  <course>13.89</course>
  <speed>0.17029386365926402</speed>
  <fix>3d</fix>
</trkpt>
<trkpt lat="40.0738646" lon="-105.2302365">
  <ele>1614.12</ele>
  <time>2026-08-28T19:08:17Z</time>
  <course>137.09</course>
  <speed>0.13</speed>
  <fix>3d</fix>
</trkpt>
<trkpt lat="40.0738641" lon="-105.2302359">
  <ele>1611.83</ele>
  <time>2026-08-28T19:08:17Z</time>
  <course>13.83</course>
  <speed>0.1769180601295413</speed>
  <fix>3d</fix>
</trkpt>
<trkpt lat="40.0738644" lon="-105.2302364">
  <ele>1612.89</ele>
  <time>2026-08-28T19:08:17Z</time>
  <course>135.61</course>
  <speed>0.13</speed>
  <fix>3d</fix>
</trkpt>
<trkpt lat="40.0738639" lon="-105.2302357">
  <ele>1610.59</ele>
  <time>2026-08-28T19:08:17Z</time>
  <course>13.8</course>
  <speed>0.1769180601295413</speed>
  <fix>3d</fix>
</trkpt>
<trkpt lat="40.0738642" lon="-105.2302362">
  <ele>1611.66</ele>
  <time>2026-08-28T19:08:17Z</time>
  <course>134.29</course>
  <speed>0.13</speed>
  <fix>3d</fix>
</trkpt>
<trkpt lat="40.0738638" lon="-105.2302355">
  <ele>1609.35</ele>
  <time>2026-08-28T19:08:17Z</time>
  <course>13.75</course>
  <speed>0.1769180601295413</speed>
  <fix>3d</fix>
</trkpt>
<trkpt lat="40.073864" lon="-105.2302359">
  <ele>1610.43</ele>
  <time>2026-08-28T19:08:17Z</time>
  <course>133.14</course>
  <speed>0.13</speed>
  <fix>3d</fix>
</trkpt>
<trkpt lat="40.0738636" lon="-105.2302353">
  <ele>1608.12</ele>
  <time>2026-08-28T19:08:17Z</time>
  <course>13.7</course>
  <speed>0.1769180601295413</speed>
  <fix>3d</fix>
</trkpt>
<trkpt lat="40.0738639" lon="-105.2302357">
  <ele>1609.2</ele>
  <time>2026-08-28T19:08:17Z</time>
  <course>132.02</course>
  <speed>0.13</speed>
  <fix>3d</fix>
</trkpt>
<trkpt lat="40.0738634" lon="-105.2302351">
  <ele>1606.88</ele>
  <time>2026-08-28T19:08:17Z</time>
  <course>13.67</course>
  <speed>0.1697056274847714</speed>
  <fix>3d</fix>
</trkpt>
<trkpt lat="40.0738638" lon="-105.2302354">
  <ele>1607.98</ele>
  <time>2026-08-28T19:08:17Z</time>
  <course>130.97</course>
  <speed>0.13</speed>
  <fix>3d</fix>
</trkpt>
<trkpt lat="40.0738633" lon="-105.2302348">
  <ele>1605.65</ele>
  <time>2026-08-28T19:08:17Z</time>
  <course>13.63</course>
  <speed>0.1697056274847714</speed>
  <fix>3d</fix>
</trkpt>
<trkpt lat="40.0738636" lon="-105.2302352">
  <ele>1606.75</ele>
  <time>2026-08-28T19:08:17Z</time>
  <course>130.11</course>
  <speed>0.13</speed>
  <fix>3d</fix>
</trkpt>
<trkpt lat="40.0738631" lon="-105.2302346">
  <ele>1604.42</ele>
  <time>2026-08-28T19:08:17Z</time>
  <course>13.6</course>
  <speed>0.1697056274847714</speed>
  <fix>3d</fix>
</trkpt>
<trkpt lat="40.0738635" lon="-105.2302349">
  <ele>1605.52</ele>
  <time>2026-08-28T19:08:17Z</time>
  <course>129.39</course>
  <speed>0.13</speed>
  <fix>3d</fix>
</trkpt>
<trkpt lat="40.073863" lon="-105.2302343">
  <ele>1603.18</ele>
  <time>2026-08-28T19:08:17Z</time>
  <course>13.57</course>
  <speed>0.1769180601295413</speed>
  <fix>3d</fix>
</trkpt>
<trkpt lat="40.0738633" lon="-105.2302347">
  <ele>1604.29</ele>
  <time>2026-08-28T19:08:17Z</time>
  <course>128.75</course>
  <speed>0.13</speed>
  <fix>3d</fix>
</trkpt>
<trkpt lat="40.0738628" lon="-105.2302341">
  <ele>1601.95</ele>
  <time>2026-08-28T19:08:17Z</time>
  <course>13.54</course>
  <speed>0.1769180601295413</speed>
  <fix>3d</fix>
</trkpt>
<trkpt lat="40.0738631" lon="-105.2302345">
  <ele>1603.06</ele>
  <time>2026-08-28T19:08:17Z</time>
  <course>128.17</course>
  <speed>0.14</speed>
  <fix>3d</fix>
</trkpt>
<trkpt lat="40.0738627" lon="-105.2302338">
  <ele>1600.73</ele>
  <time>2026-08-28T19:08:17Z</time>
  <course>13.51</course>
  <speed>0.1769180601295413</speed>
  <fix>3d</fix>
</trkpt>
<trkpt lat="40.073863" lon="-105.2302342">
  <ele>1601.83</ele>
  <time>2026-08-28T19:08:17Z</time>
  <course>127.68</course>
  <speed>0.14</speed>
  <fix>3d</fix>
</trkpt>
<trkpt lat="40.0738625" lon="-105.2302335">
  <ele>1599.51</ele>
  <time>2026-08-28T19:08:17Z</time>
  <course>13.47</course>
  <speed>0.1769180601295413</speed>
  <fix>3d</fix>
</trkpt>
<trkpt lat="40.0738628" lon="-105.2302339">
  <ele>1600.61</ele>
  <time>2026-08-28T19:08:17Z</time>
  <course>127.27</course>
  <speed>0.14</speed>
  <fix>3d</fix>
</trkpt>
<trkpt lat="40.0738624" lon="-105.2302333">
  <ele>1598.29</ele>
  <time>2026-08-28T19:08:17Z</time>
  <course>13.44</course>
  <speed>0.1769180601295413</speed>
  <fix>3d</fix>
</trkpt>
<trkpt lat="40.0738627" lon="-105.2302336">
  <ele>1599.38</ele>
  <time>2026-08-28T19:08:17Z</time>
  <course>126.94</course>
  <speed>0.14</speed>
  <fix>3d</fix>
</trkpt>
<trkpt lat="40.0738622" lon="-105.230233">
  <ele>1597.06</ele>
  <time>2026-08-28T19:08:17Z</time>
  <course>13.41</course>
  <speed>0.17029386365926402</speed>
  <fix>3d</fix>
</trkpt>
<trkpt lat="40.0738625" lon="-105.2302334">
  <ele>1598.15</ele>
  <time>2026-08-28T19:08:17Z</time>
  <course>126.66</course>
  <speed>0.14</speed>
  <fix>3d</fix>
</trkpt>
<trkpt lat="40.0738621" lon="-105.2302327">
  <ele>1595.84</ele>
  <time>2026-08-28T19:08:17Z</time>
  <course>13.38</course>
  <speed>0.17029386365926402</speed>
  <fix>3d</fix>
</trkpt>
<trkpt lat="40.0738623" lon="-105.2302331">
  <ele>1596.92</ele>
  <time>2026-08-28T19:08:17Z</time>
  <course>126.45</course>
  <speed>0.14</speed>
  <fix>3d</fix>
</trkpt>
<trkpt lat="40.0738619" lon="-105.2302325">
  <ele>1594.61</ele>
  <time>2026-08-28T19:08:17Z</time>
  <course>13.35</course>
  <speed>0.17029386365926402</speed>
  <fix>3d</fix>
</trkpt>
<trkpt lat="40.0738621" lon="-105.2302328">
  <ele>1595.7</ele>
  <time>2026-08-28T19:08:17Z</time>
  <course>126.3</course>
  <speed>0.15</speed>
  <fix>3d</fix>
</trkpt>
<trkpt lat="40.0738617" lon="-105.2302322">
  <ele>1593.38</ele>
  <time>2026-08-28T19:08:17Z</time>
  <course>13.32</course>
  <speed>0.17029386365926402</speed>
  <fix>3d</fix>
</trkpt>
<trkpt lat="40.073862" lon="-105.2302325">
  <ele>1594.47</ele>
  <time>2026-08-28T19:08:17Z</time>
  <course>126.21</course>
  <speed>0.15</speed>
  <fix>3d</fix>
</trkpt>
<trkpt lat="40.0738616" lon="-105.2302319">
  <ele>1592.15</ele>
  <time>2026-08-28T19:08:17Z</time>
  <course>13.29</course>
  <speed>0.17804493814764857</speed>
  <fix>3d</fix>
</trkpt>
<trkpt lat="40.0738619" lon="-105.2302322">
  <ele>1593.24</ele>
  <time>2026-08-28T19:08:17Z</time>
  <course>126.16</course>
  <speed>0.15</speed>
  <fix>3d</fix>
</trkpt>
<trkpt lat="40.0738614" lon="-105.2302316">
  <ele>1590.93</ele>
  <time>2026-08-28T19:08:17Z</time>
  <course>13.26</course>
  <speed>0.17804493814764857</speed>
  <fix>3d</fix>
</trkpt>
<trkpt lat="40.0738616" lon="-105.2302319">
  <ele>1592.01</ele>
  <time>2026-08-28T19:08:17Z</time>
  <course>126.15</course>
  <speed>0.15</speed>
  <fix>3d</fix>
</trkpt>
<trkpt lat="40.0738613" lon="-105.2302313">
  <ele>1589.7</ele>
  <time>2026-08-28T19:08:17Z</time>
  <course>13.24</course>
  <speed>0.17804493814764857</speed>
  <fix>3d</fix>
</trkpt>
<trkpt lat="40.0738615" lon="-105.2302316">
  <ele>1590.78</ele>
  <time>2026-08-28T19:08:17Z</time>
  <course>126.18</course>
  <speed>0.15</speed>
  <fix>3d</fix>
</trkpt>
<trkpt lat="40.0738611" lon="-105.230231">
  <ele>1588.46</ele>
  <time>2026-08-28T19:08:17Z</time>
  <course>13.21</course>
  <speed>0.17804493814764857</speed>
  <fix>3d</fix>
</trkpt>
<trkpt lat="40.0738614" lon="-105.2302314">
  <ele>1589.56</ele>
  <time>2026-08-28T19:08:17Z</time>
  <course>126.26</course>
  <speed>0.15</speed>
  <fix>3d</fix>
</trkpt>
<trkpt lat="40.0738609" lon="-105.2302307">
  <ele>1587.23</ele>
  <time>2026-08-28T19:08:17Z</time>
  <course>13.19</course>
  <speed>0.17804493814764857</speed>
  <fix>3d</fix>
</trkpt>
<trkpt lat="40.0738611" lon="-105.2302311">
  <ele>1588.33</ele>
  <time>2026-08-28T19:08:17Z</time>
  <course>126.39</course>
  <speed>0.15</speed>
  <fix>3d</fix>
</trkpt>
<trkpt lat="40.0738608" lon="-105.2302304">
  <ele>1586.0</ele>
  <time>2026-08-28T19:08:17Z</time>
  <course>13.16</course>
  <speed>0.18439088914585774</speed>
  <fix>3d</fix>
</trkpt>
<trkpt lat="40.073861" lon="-105.2302308">
  <ele>1587.1</ele>
  <time>2026-08-28T19:08:17Z</time>
  <course>126.55</course>
  <speed>0.16</speed>
  <fix>3d</fix>
</trkpt>
<trkpt lat="40.0738606" lon="-105.2302301">
  <ele>1584.78</ele>
  <time>2026-08-28T19:08:17Z</time>
  <course>13.14</course>
  <speed>0.18439088914585774</speed>
  <fix>3d</fix>
</trkpt>
<trkpt lat="40.0738609" lon="-105.2302305">
  <ele>1585.88</ele>
  <time>2026-08-28T19:08:17Z</time>
  <course>126.72</course>
  <speed>0.16</speed>
  <fix>3d</fix>
</trkpt>
<trkpt lat="40.0738604" lon="-105.2302298">
  <ele>1583.54</ele>
  <time>2026-08-28T19:08:17Z</time>
  <course>13.12</course>
  <speed>0.18439088914585774</speed>
  <fix>3d</fix>
</trkpt>
<trkpt lat="40.0738607" lon="-105.2302301">
  <ele>1584.65</ele>
  <time>2026-08-28T19:08:17Z</time>
  <course>126.92</course>
  <speed>0.16</speed>
  <fix>3d</fix>
</trkpt>
<trkpt lat="40.0738604" lon="-105.2302297">
  <ele>1583.08</ele>
  <time>2026-08-28T19:08:17Z</time>
  <course>13.13</course>
  <speed>0.0412310562561766</speed>
  <fix>3d</fix>
</trkpt>
<trkpt lat="40.0738605" lon="-105.2302299">
  <ele>1583.63</ele>
  <time>2026-08-28T19:08:17Z</time>
  <course>130.42</course>
  <speed>0.07</speed>
  <fix>3d</fix>
</trkpt>
<trkpt lat="40.0738605" lon="-105.2302297">
  <ele>1583.39</ele>
  <time>2026-08-28T19:08:18Z</time>
  <course>13.19</course>
  <speed>0.04242640687119285</speed>
  <fix>3d</fix>
</trkpt>
<trkpt lat="40.0738604" lon="-105.2302299">
  <ele>1583.37</ele>
  <time>2026-08-28T19:08:18Z</time>
  <course>301.55</course>
  <speed>0.02</speed>
  <fix>3d</fix>
</trkpt>
<trkpt lat="40.0738604" lon="-105.2302297">
  <ele>1583.4</ele>
  <time>2026-08-28T19:08:18Z</time>
  <course>13.17</course>
  <speed>0.04</speed>
  <fix>3d</fix>
</trkpt>
<trkpt lat="40.0738605" lon="-105.2302299">
  <ele>1583.56</ele>
  <time>2026-08-28T19:08:18Z</time>
  <course>321.41</course>
  <speed>0.01</speed>
  <fix>3d</fix>
</trkpt>
<trkpt lat="40.0738604" lon="-105.2302297">
  <ele>1583.37</ele>
  <time>2026-08-28T19:08:18Z</time>
  <course>13.15</course>
  <speed>0.03</speed>
  <fix>3d</fix>
</trkpt>
<trkpt lat="40.0738605" lon="-105.2302299">
  <ele>1583.58</ele>
  <time>2026-08-28T19:08:18Z</time>
  <course>112.34</course>
  <speed>0.0</speed>
  <fix>3d</fix>
</trkpt>
<trkpt lat="40.0738604" lon="-105.2302297">
  <ele>1583.39</ele>
  <time>2026-08-28T19:08:18Z</time>
  <course>13.15</course>
  <speed>0.03</speed>
  <fix>3d</fix>
</trkpt>
<trkpt lat="40.0738605" lon="-105.2302299">
  <ele>1583.55</ele>
  <time>2026-08-28T19:08:18Z</time>
  <course>111.27</course>
  <speed>0.0</speed>
  <fix>3d</fix>
</trkpt>
<trkpt lat="40.0738604" lon="-105.2302297">
  <ele>1583.41</ele>
  <time>2026-08-28T19:08:18Z</time>
  <course>13.13</course>
  <speed>0.03</speed>
  <fix>3d</fix>
</trkpt>
<trkpt lat="40.0738605" lon="-105.2302299">
  <ele>1583.55</ele>
  <time>2026-08-28T19:08:18Z</time>
  <course>84.42</course>
  <speed>0.0</speed>
  <fix>3d</fix>
</trkpt>
<trkpt lat="40.0738604" lon="-105.2302297">
  <ele>1583.43</ele>
  <time>2026-08-28T19:08:18Z</time>
  <course>13.1</course>
  <speed>0.02</speed>
  <fix>3d</fix>
</trkpt>
<trkpt lat="40.0738605" lon="-105.2302299">
  <ele>1583.56</ele>
  <time>2026-08-28T19:08:18Z</time>
  <course>91.04</course>
  <speed>0.0</speed>
  <fix>3d</fix>
</trkpt>
<trkpt lat="40.0738604" lon="-105.2302297">
  <ele>1583.45</ele>
  <time>2026-08-28T19:08:18Z</time>
  <course>13.06</course>
  <speed>0.02</speed>
  <fix>3d</fix>
</trkpt>
<trkpt lat="40.0738605" lon="-105.2302299">
  <ele>1583.56</ele>
  <time>2026-08-28T19:08:18Z</time>
  <course>86.92</course>
  <speed>0.0</speed>
  <fix>3d</fix>
</trkpt>
<trkpt lat="40.0738604" lon="-105.2302297">
  <ele>1583.46</ele>
  <time>2026-08-28T19:08:18Z</time>
  <course>13.03</course>
  <speed>0.022360679774997897</speed>
  <fix>3d</fix>
</trkpt>
<trkpt lat="40.0738605" lon="-105.2302299">
  <ele>1583.56</ele>
  <time>2026-08-28T19:08:18Z</time>
  <course>325.86</course>
  <speed>0.0</speed>
  <fix>3d</fix>
</trkpt>
<trkpt lat="40.0738604" lon="-105.2302297">
  <ele>1583.46</ele>
  <time>2026-08-28T19:08:18Z</time>
  <course>13.0</course>
  <speed>0.022360679774997897</speed>
  <fix>3d</fix>
</trkpt>
<trkpt lat="40.0738605" lon="-105.2302299">
  <ele>1583.56</ele>
  <time>2026-08-28T19:08:18Z</time>
  <course>33.61</course>
  <speed>0.0</speed>
  <fix>3d</fix>
</trkpt>
<trkpt lat="40.0738604" lon="-105.2302297">
  <ele>1583.47</ele>
  <time>2026-08-28T19:08:18Z</time>
  <course>12.97</course>
  <speed>0.01414213562373095</speed>
  <fix>3d</fix>
</trkpt>
<trkpt lat="40.0738605" lon="-105.2302299">
  <ele>1583.56</ele>
  <time>2026-08-28T19:08:18Z</time>
  <course>308.45</course>
  <speed>0.0</speed>
  <fix>3d</fix>
</trkpt>
<trkpt lat="40.0738604" lon="-105.2302297">
  <ele>1583.47</ele>
  <time>2026-08-28T19:08:18Z</time>
  <course>12.94</course>
  <speed>0.01414213562373095</speed>
  <fix>3d</fix>
</trkpt>
<trkpt lat="40.0738605" lon="-105.2302299">
  <ele>1583.56</ele>
  <time>2026-08-28T19:08:18Z</time>
  <course>249.7</course>
  <speed>0.0</speed>
  <fix>3d</fix>
</trkpt>
<trkpt lat="40.0738604" lon="-105.2302297">
  <ele>1583.48</ele>
  <time>2026-08-28T19:08:18Z</time>
  <course>12.91</course>
  <speed>0.022360679774997897</speed>
  <fix>3d</fix>
</trkpt>
<trkpt lat="40.0738605" lon="-105.2302299">
  <ele>1583.56</ele>
  <time>2026-08-28T19:08:18Z</time>
  <course>240.82</course>
  <speed>0.0</speed>
  <fix>3d</fix>
</trkpt>
<trkpt lat="40.0738604" lon="-105.2302297">
  <ele>1583.48</ele>
  <time>2026-08-28T19:08:18Z</time>
  <course>12.89</course>
  <speed>0.022360679774997897</speed>
  <fix>3d</fix>
</trkpt>
<trkpt lat="40.0738605" lon="-105.2302299">
  <ele>1583.56</ele>
  <time>2026-08-28T19:08:18Z</time>
  <course>236.6</course>
  <speed>0.0</speed>
  <fix>3d</fix>
</trkpt>
<trkpt lat="40.0738604" lon="-105.2302297">
  <ele>1583.48</ele>
  <time>2026-08-28T19:08:18Z</time>
  <course>12.86</course>
  <speed>0.022360679774997897</speed>
  <fix>3d</fix>
</trkpt>
<trkpt lat="40.0738605" lon="-105.2302299">
  <ele>1583.56</ele>
  <time>2026-08-28T19:08:18Z</time>
  <course>232.89</course>
  <speed>0.0</speed>
  <fix>3d</fix>
</trkpt>
<trkpt lat="40.0738604" lon="-105.2302297">
  <ele>1583.49</ele>
  <time>2026-08-28T19:08:18Z</time>
  <course>12.83</course>
  <speed>0.022360679774997897</speed>
  <fix>3d</fix>
</trkpt>
<trkpt lat="40.0738605" lon="-105.2302299">
  <ele>1583.56</ele>
  <time>2026-08-28T19:08:18Z</time>
  <course>229.33</course>
  <speed>0.0</speed>
  <fix>3d</fix>
</trkpt>
<trkpt lat="40.0738604" lon="-105.2302297">
  <ele>1583.49</ele>
  <time>2026-08-28T19:08:18Z</time>
  <course>12.8</course>
  <speed>0.022360679774997897</speed>
  <fix>3d</fix>
</trkpt>
<trkpt lat="40.0738605" lon="-105.2302299">
  <ele>1583.56</ele>
  <time>2026-08-28T19:08:18Z</time>
  <course>201.99</course>
  <speed>0.0</speed>
  <fix>3d</fix>
</trkpt>
<trkpt lat="40.0738604" lon="-105.2302297">
  <ele>1583.49</ele>
  <time>2026-08-28T19:08:18Z</time>
  <course>12.78</course>
  <speed>0.022360679774997897</speed>
  <fix>3d</fix>
</trkpt>
<trkpt lat="40.0738605" lon="-105.2302299">
  <ele>1583.56</ele>
  <time>2026-08-28T19:08:18Z</time>
  <course>77.79</course>
  <speed>0.0</speed>
  <fix>3d</fix>
</trkpt>
<trkpt lat="40.0738604" lon="-105.2302297">
  <ele>1583.5</ele>
  <time>2026-08-28T19:08:18Z</time>
  <course>12.75</course>
  <speed>0.0316227766016838</speed>
  <fix>3d</fix>
</trkpt>
<trkpt lat="40.0738605" lon="-105.2302299">
  <ele>1583.56</ele>
  <time>2026-08-28T19:08:18Z</time>
  <course>194.49</course>
  <speed>0.0</speed>
  <fix>3d</fix>
</trkpt>
<trkpt lat="40.0738604" lon="-105.2302297">
  <ele>1583.5</ele>
  <time>2026-08-28T19:08:18Z</time>
  <course>12.72</course>
  <speed>0.0316227766016838</speed>
  <fix>3d</fix>
</trkpt>
<trkpt lat="40.0738605" lon="-105.2302299">
  <ele>1583.56</ele>
  <time>2026-08-28T19:08:18Z</time>
  <course>64.78</course>
  <speed>0.0</speed>
  <fix>3d</fix>
</trkpt>
<trkpt lat="40.0738604" lon="-105.2302297">
  <ele>1583.5</ele>
  <time>2026-08-28T19:08:18Z</time>
  <course>12.7</course>
  <speed>0.0316227766016838</speed>
  <fix>3d</fix>
</trkpt>
<trkpt lat="40.0738605" lon="-105.2302299">
  <ele>1583.56</ele>
  <time>2026-08-28T19:08:18Z</time>
  <course>50.81</course>
  <speed>0.0</speed>
  <fix>3d</fix>
</trkpt>
<trkpt lat="40.0738604" lon="-105.2302297">
  <ele>1583.51</ele>
  <time>2026-08-28T19:08:18Z</time>
  <course>12.67</course>
  <speed>0.0316227766016838</speed>
  <fix>3d</fix>
</trkpt>
<trkpt lat="40.0738605" lon="-105.2302299">
  <ele>1583.56</ele>
  <time>2026-08-28T19:08:18Z</time>
  <course>41.37</course>
  <speed>0.0</speed>
  <fix>3d</fix>
</trkpt>
<trkpt lat="40.0738604" lon="-105.2302297">
  <ele>1583.51</ele>
  <time>2026-08-28T19:08:18Z</time>
  <course>12.65</course>
  <speed>0.0316227766016838</speed>
  <fix>3d</fix>
</trkpt>
<trkpt lat="40.0738605" lon="-105.2302299">
  <ele>1583.56</ele>
  <time>2026-08-28T19:08:18Z</time>
  <course>118.29</course>
  <speed>0.0</speed>
  <fix>3d</fix>
</trkpt>
<trkpt lat="40.0738603" lon="-105.2302297">
  <ele>1583.51</ele>
  <time>2026-08-28T19:08:18Z</time>
  <course>12.62</course>
  <speed>0.0316227766016838</speed>
  <fix>3d</fix>
</trkpt>
<trkpt lat="40.0738605" lon="-105.2302299">
  <ele>1583.56</ele>
  <time>2026-08-28T19:08:18Z</time>
  <course>108.91</course>
  <speed>0.0</speed>
  <fix>3d</fix>
</trkpt>
<trkpt lat="40.0738603" lon="-105.2302297">
  <ele>1583.52</ele>
  <time>2026-08-28T19:08:18Z</time>
  <course>12.59</course>
  <speed>0.0316227766016838</speed>
  <fix>3d</fix>
</trkpt>
<trkpt lat="40.0738605" lon="-105.2302299">
  <ele>1583.56</ele>
  <time>2026-08-28T19:08:18Z</time>
  <course>47.65</course>
  <speed>0.0</speed>
  <fix>3d</fix>
</trkpt>
<trkpt lat="40.0738603" lon="-105.2302297">
  <ele>1583.52</ele>
  <time>2026-08-28T19:08:18Z</time>
  <course>12.57</course>
  <speed>0.0316227766016838</speed>
  <fix>3d</fix>
</trkpt>
<trkpt lat="40.0738605" lon="-105.2302299">
  <ele>1583.56</ele>
  <time>2026-08-28T19:08:18Z</time>
  <course>34.37</course>
  <speed>0.0</speed>
  <fix>3d</fix>
</trkpt>
<trkpt lat="40.0738603" lon="-105.2302297">
  <ele>1583.52</ele>
  <time>2026-08-28T19:08:18Z</time>
  <course>12.54</course>
  <speed>0.0316227766016838</speed>
  <fix>3d</fix>
</trkpt>
<trkpt lat="40.0738605" lon="-105.2302299">
  <ele>1583.56</ele>
  <time>2026-08-28T19:08:18Z</time>
  <course>62.66</course>
  <speed>0.0</speed>
  <fix>3d</fix>
</trkpt>
<trkpt lat="40.0738603" lon="-105.2302297">
  <ele>1583.52</ele>
  <time>2026-08-28T19:08:18Z</time>
  <course>12.51</course>
  <speed>0.0316227766016838</speed>
  <fix>3d</fix>
</trkpt>
<trkpt lat="40.0738605" lon="-105.2302299">
  <ele>1583.56</ele>
  <time>2026-08-28T19:08:18Z</time>
  <course>130.29</course>
  <speed>0.0</speed>
  <fix>3d</fix>
</trkpt>
<trkpt lat="40.0738603" lon="-105.2302297">
  <ele>1583.52</ele>
  <time>2026-08-28T19:08:18Z</time>
  <course>12.49</course>
  <speed>0.0316227766016838</speed>
  <fix>3d</fix>
</trkpt>
<trkpt lat="40.0738605" lon="-105.2302299">
  <ele>1583.56</ele>
  <time>2026-08-28T19:08:18Z</time>
  <course>137.39</course>
  <speed>0.0</speed>
  <fix>3d</fix>
</trkpt>
<trkpt lat="40.0738603" lon="-105.2302297">
  <ele>1583.53</ele>
  <time>2026-08-28T19:08:18Z</time>
  <course>12.46</course>
  <speed>0.0316227766016838</speed>
  <fix>3d</fix>
</trkpt>
<trkpt lat="40.0738605" lon="-105.2302299">
  <ele>1583.56</ele>
  <time>2026-08-28T19:08:18Z</time>
  <course>54.33</course>
  <speed>0.0</speed>
  <fix>3d</fix>
</trkpt>
<trkpt lat="40.0738603" lon="-105.2302297">
  <ele>1583.53</ele>
  <time>2026-08-28T19:08:18Z</time>
  <course>12.43</course>
  <speed>0.0316227766016838</speed>
  <fix>3d</fix>
</trkpt>
<trkpt lat="40.0738605" lon="-105.2302299">
  <ele>1583.56</ele>
  <time>2026-08-28T19:08:18Z</time>
  <course>60.89</course>
  <speed>0.0</speed>
  <fix>3d</fix>
</trkpt>
<trkpt lat="40.0738603" lon="-105.2302297">
  <ele>1583.53</ele>
  <time>2026-08-28T19:08:18Z</time>
  <course>12.41</course>
  <speed>0.0316227766016838</speed>
  <fix>3d</fix>
</trkpt>
<trkpt lat="40.0738605" lon="-105.2302299">
  <ele>1583.56</ele>
  <time>2026-08-28T19:08:18Z</time>
  <course>118.76</course>
  <speed>0.0</speed>
  <fix>3d</fix>
</trkpt>
<trkpt lat="40.0738603" lon="-105.2302297">
  <ele>1583.53</ele>
  <time>2026-08-28T19:08:18Z</time>
  <course>12.38</course>
  <speed>0.0316227766016838</speed>
  <fix>3d</fix>
</trkpt>
<trkpt lat="40.0738605" lon="-105.2302299">
  <ele>1583.56</ele>
  <time>2026-08-28T19:08:18Z</time>
  <course>118.65</course>
  <speed>0.0</speed>
  <fix>3d</fix>
</trkpt>
<trkpt lat="40.0738603" lon="-105.2302297">
  <ele>1583.54</ele>
  <time>2026-08-28T19:08:18Z</time>
  <course>12.36</course>
  <speed>0.0316227766016838</speed>
  <fix>3d</fix>
</trkpt>
<trkpt lat="40.0738605" lon="-105.2302299">
  <ele>1583.56</ele>
  <time>2026-08-28T19:08:18Z</time>
  <course>65.34</course>
  <speed>0.0</speed>
  <fix>3d</fix>
</trkpt>
<trkpt lat="40.0738603" lon="-105.2302297">
  <ele>1583.54</ele>
  <time>2026-08-28T19:08:18Z</time>
  <course>12.33</course>
  <speed>0.0316227766016838</speed>
  <fix>3d</fix>
</trkpt>
<trkpt lat="40.0738605" lon="-105.2302299">
  <ele>1583.56</ele>
  <time>2026-08-28T19:08:18Z</time>
  <course>58.6</course>
  <speed>0.0</speed>
  <fix>3d</fix>
</trkpt>
<trkpt lat="40.0738603" lon="-105.2302297">
  <ele>1583.54</ele>
  <time>2026-08-28T19:08:18Z</time>
  <course>12.31</course>
  <speed>0.0316227766016838</speed>
  <fix>3d</fix>
</trkpt>
<trkpt lat="40.0738605" lon="-105.2302299">
  <ele>1583.56</ele>
  <time>2026-08-28T19:08:18Z</time>
  <course>69.83</course>
  <speed>0.0</speed>
  <fix>3d</fix>
</trkpt>
<trkpt lat="40.0738603" lon="-105.2302297">
  <ele>1583.54</ele>
  <time>2026-08-28T19:08:18Z</time>
  <course>12.28</course>
  <speed>0.0316227766016838</speed>
  <fix>3d</fix>
</trkpt>
<trkpt lat="40.0738605" lon="-105.2302299">
  <ele>1583.56</ele>
  <time>2026-08-28T19:08:18Z</time>
  <course>143.13</course>
  <speed>0.0</speed>
  <fix>3d</fix>
</trkpt>
<trkpt lat="40.0738603" lon="-105.2302297">
  <ele>1583.55</ele>
  <time>2026-08-28T19:08:18Z</time>
  <course>12.26</course>
  <speed>0.0316227766016838</speed>
  <fix>3d</fix>
</trkpt>
<trkpt lat="40.0738605" lon="-105.2302299">
  <ele>1583.56</ele>
  <time>2026-08-28T19:08:18Z</time>
  <course>135.84</course>
  <speed>0.0</speed>
  <fix>3d</fix>
</trkpt>
<trkpt lat="40.0738603" lon="-105.2302297">
  <ele>1583.55</ele>
  <time>2026-08-28T19:08:18Z</time>
  <course>12.23</course>
  <speed>0.022360679774997897</speed>
  <fix>3d</fix>
</trkpt>
<trkpt lat="40.0738605" lon="-105.2302299">
  <ele>1583.56</ele>
  <time>2026-08-28T19:08:18Z</time>
  <course>67.71</course>
  <speed>0.0</speed>
  <fix>3d</fix>
</trkpt>
<trkpt lat="40.0738603" lon="-105.2302297">
  <ele>1583.56</ele>
  <time>2026-08-28T19:08:18Z</time>
  <course>12.21</course>
  <speed>0.022360679774997897</speed>
  <fix>3d</fix>
</trkpt>
<trkpt lat="40.0738605" lon="-105.2302299">
  <ele>1583.56</ele>
  <time>2026-08-28T19:08:18Z</time>
  <course>107.1</course>
  <speed>0.0</speed>
  <fix>3d</fix>
</trkpt>
<trkpt lat="40.0738603" lon="-105.2302297">
  <ele>1583.56</ele>
  <time>2026-08-28T19:08:18Z</time>
  <course>12.19</course>
  <speed>0.022360679774997897</speed>
  <fix>3d</fix>
</trkpt>
<trkpt lat="40.0738605" lon="-105.2302299">
  <ele>1583.56</ele>
  <time>2026-08-28T19:08:18Z</time>
  <course>120.76</course>
  <speed>0.0</speed>
  <fix>3d</fix>
</trkpt>
<trkpt lat="40.0738603" lon="-105.2302297">
  <ele>1583.56</ele>
  <time>2026-08-28T19:08:18Z</time>
  <course>12.16</course>
  <speed>0.022360679774997897</speed>
  <fix>3d</fix>
</trkpt>
<trkpt lat="40.0738605" lon="-105.2302299">
  <ele>1583.56</ele>
  <time>2026-08-28T19:08:18Z</time>
  <course>81.75</course>
  <speed>0.0</speed>
  <fix>3d</fix>
</trkpt>
<trkpt lat="40.0738603" lon="-105.2302297">
  <ele>1583.57</ele>
  <time>2026-08-28T19:08:18Z</time>
  <course>12.14</course>
  <speed>0.022360679774997897</speed>
  <fix>3d</fix>
</trkpt>
<trkpt lat="40.0738605" lon="-105.2302299">
  <ele>1583.56</ele>
  <time>2026-08-28T19:08:18Z</time>
  <course>59.3</course>
  <speed>0.0</speed>
  <fix>3d</fix>
</trkpt>
<trkpt lat="40.0738603" lon="-105.2302297">
  <ele>1583.57</ele>
  <time>2026-08-28T19:08:18Z</time>
  <course>12.12</course>
  <speed>0.022360679774997897</speed>
  <fix>3d</fix>
</trkpt>
<trkpt lat="40.0738605" lon="-105.2302299">
  <ele>1583.56</ele>
  <time>2026-08-28T19:08:18Z</time>
  <course>71.74</course>
  <speed>0.0</speed>
  <fix>3d</fix>
</trkpt>
<trkpt lat="40.0738603" lon="-105.2302297">
  <ele>1583.57</ele>
  <time>2026-08-28T19:08:18Z</time>
  <course>12.1</course>
  <speed>0.022360679774997897</speed>
  <fix>3d</fix>
</trkpt>
<trkpt lat="40.0738605" lon="-105.2302299">
  <ele>1583.56</ele>
  <time>2026-08-28T19:08:18Z</time>
  <course>91.38</course>
  <speed>0.0</speed>
  <fix>3d</fix>
</trkpt>
<trkpt lat="40.0738603" lon="-105.2302297">
  <ele>1583.58</ele>
  <time>2026-08-28T19:08:18Z</time>
  <course>12.08</course>
  <speed>0.022360679774997897</speed>
  <fix>3d</fix>
</trkpt>
<trkpt lat="40.0738605" lon="-105.2302299">
  <ele>1583.56</ele>
  <time>2026-08-28T19:08:18Z</time>
  <course>153.83</course>
  <speed>0.0</speed>
  <fix>3d</fix>
</trkpt>
<trkpt lat="40.0738603" lon="-105.2302297">
  <ele>1583.58</ele>
  <time>2026-08-28T19:08:18Z</time>
  <course>12.05</course>
  <speed>0.022360679774997897</speed>
  <fix>3d</fix>
</trkpt>
<trkpt lat="40.0738605" lon="-105.2302299">
  <ele>1583.56</ele>
  <time>2026-08-28T19:08:18Z</time>
  <course>100.29</course>
  <speed>0.0</speed>
  <fix>3d</fix>
</trkpt>
<trkpt lat="40.0738603" lon="-105.2302297">
  <ele>1583.58</ele>
  <time>2026-08-28T19:08:18Z</time>
  <course>12.03</course>
  <speed>0.022360679774997897</speed>
  <fix>3d</fix>
</trkpt>
<trkpt lat="40.0738605" lon="-105.2302299">
  <ele>1583.56</ele>
  <time>2026-08-28T19:08:18Z</time>
  <course>103.05</course>
  <speed>0.0</speed>
  <fix>3d</fix>
</trkpt>
<trkpt lat="40.0738603" lon="-105.2302297">
  <ele>1583.59</ele>
  <time>2026-08-28T19:08:18Z</time>
  <course>12.01</course>
  <speed>0.022360679774997897</speed>
  <fix>3d</fix>
</trkpt>
<trkpt lat="40.0738605" lon="-105.2302299">
  <ele>1583.56</ele>
  <time>2026-08-28T19:08:18Z</time>
  <course>118.61</course>
  <speed>0.0</speed>
  <fix>3d</fix>
</trkpt>
<trkpt lat="40.0738603" lon="-105.2302297">
  <ele>1583.59</ele>
  <time>2026-08-28T19:08:18Z</time>
  <course>11.99</course>
  <speed>0.022360679774997897</speed>
  <fix>3d</fix>
</trkpt>
<trkpt lat="40.0738605" lon="-105.2302299">
  <ele>1583.56</ele>
  <time>2026-08-28T19:08:18Z</time>
  <course>86.01</course>
  <speed>0.0</speed>
  <fix>3d</fix>
</trkpt>
<trkpt lat="40.0738603" lon="-105.2302297">
  <ele>1583.59</ele>
  <time>2026-08-28T19:08:18Z</time>
  <course>11.97</course>
  <speed>0.022360679774997897</speed>
  <fix>3d</fix>
</trkpt>
<trkpt lat="40.0738605" lon="-105.2302299">
  <ele>1583.56</ele>
  <time>2026-08-28T19:08:18Z</time>
  <course>60.41</course>
  <speed>0.0</speed>
  <fix>3d</fix>
</trkpt>
<trkpt lat="40.0738603" lon="-105.2302297">
  <ele>1583.59</ele>
  <time>2026-08-28T19:08:18Z</time>
  <course>11.95</course>
  <speed>0.022360679774997897</speed>
  <fix>3d</fix>
</trkpt>
<trkpt lat="40.0738605" lon="-105.2302299">
  <ele>1583.56</ele>
  <time>2026-08-28T19:08:18Z</time>
  <course>74.87</course>
  <speed>0.0</speed>
  <fix>3d</fix>
</trkpt>
<trkpt lat="40.0738603" lon="-105.2302297">
  <ele>1583.59</ele>
  <time>2026-08-28T19:08:18Z</time>
  <course>11.93</course>
  <speed>0.022360679774997897</speed>
  <fix>3d</fix>
</trkpt>
<trkpt lat="40.0738605" lon="-105.2302299">
  <ele>1583.56</ele>
  <time>2026-08-28T19:08:18Z</time>
  <course>76.77</course>
  <speed>0.0</speed>
  <fix>3d</fix>
</trkpt>
<trkpt lat="40.0738603" lon="-105.2302297">
  <ele>1583.59</ele>
  <time>2026-08-28T19:08:18Z</time>
  <course>11.91</course>
  <speed>0.022360679774997897</speed>
  <fix>3d</fix>
</trkpt>
<trkpt lat="40.0738605" lon="-105.2302299">
  <ele>1583.56</ele>
  <time>2026-08-28T19:08:18Z</time>
  <course>148.37</course>
  <speed>0.0</speed>
  <fix>3d</fix>
</trkpt>
<trkpt lat="40.0738603" lon="-105.2302297">
  <ele>1583.6</ele>
  <time>2026-08-28T19:08:18Z</time>
  <course>11.89</course>
  <speed>0.022360679774997897</speed>
  <fix>3d</fix>
</trkpt>
<trkpt lat="40.0738605" lon="-105.2302299">
  <ele>1583.56</ele>
  <time>2026-08-28T19:08:18Z</time>
  <course>153.55</course>
  <speed>0.0</speed>
  <fix>3d</fix>
</trkpt>
<trkpt lat="40.0738603" lon="-105.2302297">
  <ele>1583.6</ele>
  <time>2026-08-28T19:08:18Z</time>
  <course>11.87</course>
  <speed>0.022360679774997897</speed>
  <fix>3d</fix>
</trkpt>
<trkpt lat="40.0738605" lon="-105.2302299">
  <ele>1583.56</ele>
  <time>2026-08-28T19:08:18Z</time>
  <course>121.41</course>
  <speed>0.0</speed>
  <fix>3d</fix>
</trkpt>
<trkpt lat="40.0738603" lon="-105.2302297">
  <ele>1583.6</ele>
  <time>2026-08-28T19:08:18Z</time>
  <course>11.85</course>
  <speed>0.022360679774997897</speed>
  <fix>3d</fix>
</trkpt>
<trkpt lat="40.0738605" lon="-105.2302299">
  <ele>1583.56</ele>
  <time>2026-08-28T19:08:18Z</time>
  <course>115.55</course>
  <speed>0.0</speed>
  <fix>3d</fix>
</trkpt>
<trkpt lat="40.0738603" lon="-105.2302297">
  <ele>1583.61</ele>
  <time>2026-08-28T19:08:18Z</time>
  <course>11.83</course>
  <speed>0.022360679774997897</speed>
  <fix>3d</fix>
</trkpt>
<trkpt lat="40.0738605" lon="-105.2302299">
  <ele>1583.56</ele>
  <time>2026-08-28T19:08:18Z</time>
  <course>83.0</course>
  <speed>0.0</speed>
  <fix>3d</fix>
</trkpt>
<trkpt lat="40.0738603" lon="-105.2302297">
  <ele>1583.61</ele>
  <time>2026-08-28T19:08:18Z</time>
  <course>11.82</course>
  <speed>0.022360679774997897</speed>
  <fix>3d</fix>
</trkpt>
<trkpt lat="40.0738605" lon="-105.2302299">
  <ele>1583.56</ele>
  <time>2026-08-28T19:08:18Z</time>
  <course>66.78</course>
  <speed>0.0</speed>
  <fix>3d</fix>
</trkpt>
<trkpt lat="40.0738603" lon="-105.2302297">
  <ele>1583.61</ele>
  <time>2026-08-28T19:08:18Z</time>
  <course>11.8</course>
  <speed>0.022360679774997897</speed>
  <fix>3d</fix>
</trkpt>
<trkpt lat="40.0738605" lon="-105.2302299">
  <ele>1583.56</ele>
  <time>2026-08-28T19:08:18Z</time>
  <course>77.82</course>
  <speed>0.0</speed>
  <fix>3d</fix>
</trkpt>
<trkpt lat="40.0738603" lon="-105.2302297">
  <ele>1583.61</ele>
  <time>2026-08-28T19:08:18Z</time>
  <course>11.78</course>
  <speed>0.022360679774997897</speed>
  <fix>3d</fix>
</trkpt>
<trkpt lat="40.0738605" lon="-105.2302299">
  <ele>1583.56</ele>
  <time>2026-08-28T19:08:18Z</time>
  <course>78.63</course>
  <speed>0.0</speed>
  <fix>3d</fix>
</trkpt>
<trkpt lat="40.0738603" lon="-105.2302297">
  <ele>1583.62</ele>
  <time>2026-08-28T19:08:18Z</time>
  <course>11.76</course>
  <speed>0.022360679774997897</speed>
  <fix>3d</fix>
</trkpt>
<trkpt lat="40.0738605" lon="-105.2302299">
  <ele>1583.56</ele>
  <time>2026-08-28T19:08:18Z</time>
  <course>77.92</course>
  <speed>0.0</speed>
  <fix>3d</fix>
</trkpt>
<trkpt lat="40.0738603" lon="-105.2302297">
  <ele>1583.62</ele>
  <time>2026-08-28T19:08:18Z</time>
  <course>11.74</course>
  <speed>0.022360679774997897</speed>
  <fix>3d</fix>
</trkpt>
<trkpt lat="40.0738605" lon="-105.2302299">
  <ele>1583.56</ele>
  <time>2026-08-28T19:08:18Z</time>
  <course>137.13</course>
  <speed>0.0</speed>
  <fix>3d</fix>
</trkpt>
<trkpt lat="40.0738603" lon="-105.2302297">
  <ele>1583.62</ele>
  <time>2026-08-28T19:08:18Z</time>
  <course>11.72</course>
  <speed>0.022360679774997897</speed>
  <fix>3d</fix>
</trkpt>
<trkpt lat="40.0738605" lon="-105.2302299">
  <ele>1583.56</ele>
  <time>2026-08-28T19:08:18Z</time>
  <course>146.22</course>
  <speed>0.0</speed>
  <fix>3d</fix>
</trkpt>
<trkpt lat="40.0738603" lon="-105.2302297">
  <ele>1583.62</ele>
  <time>2026-08-28T19:08:18Z</time>
  <course>11.7</course>
  <speed>0.022360679774997897</speed>
  <fix>3d</fix>
</trkpt>
<trkpt lat="40.0738605" lon="-105.2302299">
  <ele>1583.56</ele>
  <time>2026-08-28T19:08:18Z</time>
  <course>114.62</course>
  <speed>0.0</speed>
  <fix>3d</fix>
</trkpt>
<trkpt lat="40.0738603" lon="-105.2302297">
  <ele>1583.62</ele>
  <time>2026-08-28T19:08:18Z</time>
  <course>11.68</course>
  <speed>0.022360679774997897</speed>
  <fix>3d</fix>
</trkpt>
<trkpt lat="40.0738605" lon="-105.2302299">
  <ele>1583.56</ele>
  <time>2026-08-28T19:08:18Z</time>
  <course>72.57</course>
  <speed>0.0</speed>
  <fix>3d</fix>
</trkpt>
<trkpt lat="40.0738603" lon="-105.2302297">
  <ele>1583.63</ele>
  <time>2026-08-28T19:08:18Z</time>
  <course>11.67</course>
  <speed>0.022360679774997897</speed>
  <fix>3d</fix>
</trkpt>
<trkpt lat="40.0738605" lon="-105.2302299">
  <ele>1583.56</ele>
  <time>2026-08-28T19:08:18Z</time>
  <course>73.05</course>
  <speed>0.0</speed>
  <fix>3d</fix>
</trkpt>
<trkpt lat="40.0738603" lon="-105.2302297">
  <ele>1583.63</ele>
  <time>2026-08-28T19:08:18Z</time>
  <course>11.65</course>
  <speed>0.022360679774997897</speed>
  <fix>3d</fix>
</trkpt>
<trkpt lat="40.0738605" lon="-105.2302299">
  <ele>1583.56</ele>
  <time>2026-08-28T19:08:18Z</time>
  <course>83.5</course>
  <speed>0.0</speed>
  <fix>3d</fix>
</trkpt>
<trkpt lat="40.0738603" lon="-105.2302297">
  <ele>1583.64</ele>
  <time>2026-08-28T19:08:18Z</time>
  <course>11.63</course>
  <speed>0.022360679774997897</speed>
  <fix>3d</fix>
</trkpt>
<trkpt lat="40.0738605" lon="-105.2302299">
  <ele>1583.56</ele>
  <time>2026-08-28T19:08:18Z</time>
  <course>81.96</course>
  <speed>0.0</speed>
  <fix>3d</fix>
</trkpt>
<trkpt lat="40.0738603" lon="-105.2302297">
  <ele>1583.63</ele>
  <time>2026-08-28T19:08:18Z</time>
  <course>11.61</course>
  <speed>0.022360679774997897</speed>
  <fix>3d</fix>
</trkpt>
<trkpt lat="40.0738605" lon="-105.2302299">
  <ele>1583.56</ele>
  <time>2026-08-28T19:08:18Z</time>
  <course>80.8</course>
  <speed>0.0</speed>
  <fix>3d</fix>
</trkpt>
<trkpt lat="40.0738603" lon="-105.2302297">
  <ele>1583.63</ele>
  <time>2026-08-28T19:08:18Z</time>
  <course>11.59</course>
  <speed>0.022360679774997897</speed>
  <fix>3d</fix>
</trkpt>
<trkpt lat="40.0738605" lon="-105.2302299">
  <ele>1583.56</ele>
  <time>2026-08-28T19:08:18Z</time>
  <course>140.91</course>
  <speed>0.0</speed>
  <fix>3d</fix>
</trkpt>
<trkpt lat="40.0738603" lon="-105.2302297">
  <ele>1583.63</ele>
  <time>2026-08-28T19:08:18Z</time>
  <course>11.58</course>
  <speed>0.022360679774997897</speed>
  <fix>3d</fix>
</trkpt>
<trkpt lat="40.0738605" lon="-105.2302299">
  <ele>1583.56</ele>
  <time>2026-08-28T19:08:18Z</time>
  <course>158.39</course>
  <speed>0.0</speed>
  <fix>3d</fix>
</trkpt>
<trkpt lat="40.0738603" lon="-105.2302297">
  <ele>1583.63</ele>
  <time>2026-08-28T19:08:18Z</time>
  <course>11.56</course>
  <speed>0.022360679774997897</speed>
  <fix>3d</fix>
</trkpt>
<trkpt lat="40.0738605" lon="-105.2302299">
  <ele>1583.56</ele>
  <time>2026-08-28T19:08:18Z</time>
  <course>125.89</course>
  <speed>0.0</speed>
  <fix>3d</fix>
</trkpt>
<trkpt lat="40.0738603" lon="-105.2302297">
  <ele>1583.63</ele>
  <time>2026-08-28T19:08:18Z</time>
  <course>11.54</course>
  <speed>0.022360679774997897</speed>
  <fix>3d</fix>
</trkpt>
<trkpt lat="40.0738605" lon="-105.2302299">
  <ele>1583.56</ele>
  <time>2026-08-28T19:08:18Z</time>
  <course>71.46</course>
  <speed>0.0</speed>
  <fix>3d</fix>
</trkpt>
<trkpt lat="40.0738603" lon="-105.2302297">
  <ele>1583.63</ele>
  <time>2026-08-28T19:08:18Z</time>
  <course>11.52</course>
  <speed>0.022360679774997897</speed>
  <fix>3d</fix>
</trkpt>
<trkpt lat="40.0738605" lon="-105.2302299">
  <ele>1583.56</ele>
  <time>2026-08-28T19:08:18Z</time>
  <course>74.13</course>
  <speed>0.0</speed>
  <fix>3d</fix>
</trkpt>
<trkpt lat="40.0738603" lon="-105.2302297">
  <ele>1583.63</ele>
  <time>2026-08-28T19:08:18Z</time>
  <course>11.51</course>
  <speed>0.022360679774997897</speed>
  <fix>3d</fix>
</trkpt>
<trkpt lat="40.0738605" lon="-105.2302299">
  <ele>1583.56</ele>
  <time>2026-08-28T19:08:18Z</time>
  <course>87.65</course>
  <speed>0.0</speed>
  <fix>3d</fix>
</trkpt>
<trkpt lat="40.0738603" lon="-105.2302297">
  <ele>1583.63</ele>
  <time>2026-08-28T19:08:18Z</time>
  <course>11.49</course>
  <speed>0.022360679774997897</speed>
  <fix>3d</fix>
</trkpt>
<trkpt lat="40.0738605" lon="-105.2302299">
  <ele>1583.56</ele>
  <time>2026-08-28T19:08:18Z</time>
  <course>85.15</course>
  <speed>0.0</speed>
  <fix>3d</fix>
</trkpt>
<trkpt lat="40.0738603" lon="-105.2302297">
  <ele>1583.63</ele>
  <time>2026-08-28T19:08:18Z</time>
  <course>11.47</course>
  <speed>0.022360679774997897</speed>
  <fix>3d</fix>
</trkpt>
<trkpt lat="40.0738605" lon="-105.2302299">
  <ele>1583.56</ele>
  <time>2026-08-28T19:08:18Z</time>
  <course>83.84</course>
  <speed>0.0</speed>
  <fix>3d</fix>
</trkpt>
<trkpt lat="40.0738603" lon="-105.2302297">
  <ele>1583.63</ele>
  <time>2026-08-28T19:08:18Z</time>
  <course>11.46</course>
  <speed>0.022360679774997897</speed>
  <fix>3d</fix>
</trkpt>
<trkpt lat="40.0738605" lon="-105.2302299">
  <ele>1583.56</ele>
  <time>2026-08-28T19:08:18Z</time>
  <course>84.32</course>
  <speed>0.0</speed>
  <fix>3d</fix>
</trkpt>
<trkpt lat="40.0738603" lon="-105.2302297">
  <ele>1583.62</ele>
  <time>2026-08-28T19:08:18Z</time>
  <course>11.44</course>
  <speed>0.022360679774997897</speed>
  <fix>3d</fix>
</trkpt>
<trkpt lat="40.0738605" lon="-105.2302299">
  <ele>1583.56</ele>
  <time>2026-08-28T19:08:18Z</time>
  <course>154.91</course>
  <speed>0.0</speed>
  <fix>3d</fix>
</trkpt>
<trkpt lat="40.0738603" lon="-105.2302297">
  <ele>1583.62</ele>
  <time>2026-08-28T19:08:18Z</time>
  <course>11.42</course>
  <speed>0.022360679774997897</speed>
  <fix>3d</fix>
</trkpt>
<trkpt lat="40.0738605" lon="-105.2302299">
  <ele>1583.56</ele>
  <time>2026-08-28T19:08:18Z</time>
  <course>147.05</course>
  <speed>0.0</speed>
  <fix>3d</fix>
</trkpt>
<trkpt lat="40.0738603" lon="-105.2302297">
  <ele>1583.62</ele>
  <time>2026-08-28T19:08:18Z</time>
  <course>11.41</course>
  <speed>0.022360679774997897</speed>
  <fix>3d</fix>
</trkpt>
<trkpt lat="40.0738605" lon="-105.2302299">
  <ele>1583.56</ele>
  <time>2026-08-28T19:08:18Z</time>
  <course>84.8</course>
  <speed>0.0</speed>
  <fix>3d</fix>
</trkpt>
<trkpt lat="40.0738603" lon="-105.2302297">
  <ele>1583.62</ele>
  <time>2026-08-28T19:08:18Z</time>
  <course>11.39</course>
  <speed>0.022360679774997897</speed>
  <fix>3d</fix>
</trkpt>
<trkpt lat="40.0738605" lon="-105.2302299">
  <ele>1583.56</ele>
  <time>2026-08-28T19:08:18Z</time>
  <course>70.95</course>
  <speed>0.0</speed>
  <fix>3d</fix>
</trkpt>
<trkpt lat="40.0738603" lon="-105.2302297">
  <ele>1583.62</ele>
  <time>2026-08-28T19:08:18Z</time>
  <course>11.37</course>
  <speed>0.022360679774997897</speed>
  <fix>3d</fix>
</trkpt>
<trkpt lat="40.0738605" lon="-105.2302299">
  <ele>1583.56</ele>
  <time>2026-08-28T19:08:18Z</time>
  <course>87.78</course>
  <speed>0.0</speed>
  <fix>3d</fix>
</trkpt>
<trkpt lat="40.0738603" lon="-105.2302297">
  <ele>1583.62</ele>
  <time>2026-08-28T19:08:18Z</time>
  <course>11.35</course>
  <speed>0.022360679774997897</speed>
  <fix>3d</fix>
</trkpt>
<trkpt lat="40.0738605" lon="-105.2302299">
  <ele>1583.56</ele>
  <time>2026-08-28T19:08:18Z</time>
  <course>91.27</course>
  <speed>0.0</speed>
  <fix>3d</fix>
</trkpt>
<trkpt lat="40.0738603" lon="-105.2302297">
  <ele>1583.63</ele>
  <time>2026-08-28T19:08:18Z</time>
  <course>11.34</course>
  <speed>0.022360679774997897</speed>
  <fix>3d</fix>
</trkpt>
<trkpt lat="40.0738605" lon="-105.2302299">
  <ele>1583.56</ele>
  <time>2026-08-28T19:08:18Z</time>
  <course>87.15</course>
  <speed>0.0</speed>
  <fix>3d</fix>
</trkpt>
<trkpt lat="40.0738603" lon="-105.2302297">
  <ele>1583.63</ele>
  <time>2026-08-28T19:08:18Z</time>
  <course>11.32</course>
  <speed>0.022360679774997897</speed>
  <fix>3d</fix>
</trkpt>
<trkpt lat="40.0738605" lon="-105.2302299">
  <ele>1583.56</ele>
  <time>2026-08-28T19:08:18Z</time>
  <course>87.15</course>
  <speed>0.0</speed>
  <fix>3d</fix>
</trkpt>
<trkpt lat="40.0738603" lon="-105.2302297">
  <ele>1583.63</ele>
  <time>2026-08-28T19:08:18Z</time>
  <course>11.31</course>
  <speed>0.022360679774997897</speed>
  <fix>3d</fix>
</trkpt>
<trkpt lat="40.0738605" lon="-105.2302299">
  <ele>1583.56</ele>
  <time>2026-08-28T19:08:18Z</time>
  <course>128.91</course>
  <speed>0.0</speed>
  <fix>3d</fix>
</trkpt>
<trkpt lat="40.0738603" lon="-105.2302297">
  <ele>1583.63</ele>
  <time>2026-08-28T19:08:18Z</time>
  <course>11.29</course>
  <speed>0.022360679774997897</speed>
  <fix>3d</fix>
</trkpt>
<trkpt lat="40.0738605" lon="-105.2302299">
  <ele>1583.56</ele>
  <time>2026-08-28T19:08:18Z</time>
  <course>147.22</course>
  <speed>0.0</speed>
  <fix>3d</fix>
</trkpt>
<trkpt lat="40.0738603" lon="-105.2302297">
  <ele>1583.63</ele>
  <time>2026-08-28T19:08:18Z</time>
  <course>11.27</course>
  <speed>0.022360679774997897</speed>
  <fix>3d</fix>
</trkpt>
<trkpt lat="40.0738605" lon="-105.2302299">
  <ele>1583.56</ele>
  <time>2026-08-28T19:08:18Z</time>
  <course>124.23</course>
  <speed>0.0</speed>
  <fix>3d</fix>
</trkpt>
<trkpt lat="40.0738603" lon="-105.2302297">
  <ele>1583.63</ele>
  <time>2026-08-28T19:08:18Z</time>
  <course>11.26</course>
  <speed>0.022360679774997897</speed>
  <fix>3d</fix>
</trkpt>
<trkpt lat="40.0738605" lon="-105.2302299">
  <ele>1583.56</ele>
  <time>2026-08-28T19:08:18Z</time>
  <course>74.34</course>
  <speed>0.0</speed>
  <fix>3d</fix>
</trkpt>
<trkpt lat="40.0738603" lon="-105.2302297">
  <ele>1583.63</ele>
  <time>2026-08-28T19:08:18Z</time>
  <course>11.24</course>
  <speed>0.022360679774997897</speed>
  <fix>3d</fix>
</trkpt>
<trkpt lat="40.0738605" lon="-105.2302299">
  <ele>1583.56</ele>
  <time>2026-08-28T19:08:18Z</time>
  <course>87.5</course>
  <speed>0.0</speed>
  <fix>3d</fix>
</trkpt>
<trkpt lat="40.0738603" lon="-105.2302297">
  <ele>1583.62</ele>
  <time>2026-08-28T19:08:18Z</time>
  <course>11.31</course>
  <speed>0.01414213562373095</speed>
  <fix>3d</fix>
</trkpt>
<trkpt lat="40.0738605" lon="-105.2302299">
  <ele>1583.56</ele>
  <time>2026-08-28T19:08:18Z</time>
  <course>292.27</course>
  <speed>0.0</speed>
  <fix>3d</fix>
</trkpt>
<trkpt lat="40.0738603" lon="-105.2302297">
  <ele>1583.62</ele>
  <time>2026-08-28T19:08:18Z</time>
  <course>11.46</course>
  <speed>0.022360679774997897</speed>
  <fix>3d</fix>
</trkpt>
<trkpt lat="40.0738605" lon="-105.2302299">
  <ele>1583.56</ele>
  <time>2026-08-28T19:08:18Z</time>
  <course>271.57</course>
  <speed>0.0</speed>
  <fix>3d</fix>
</trkpt>
<trkpt lat="40.0738603" lon="-105.2302297">
  <ele>1583.62</ele>
  <time>2026-08-28T19:08:18Z</time>
  <course>11.61</course>
  <speed>0.022360679774997897</speed>
  <fix>3d</fix>
</trkpt>
<trkpt lat="40.0738605" lon="-105.2302299">
  <ele>1583.56</ele>
  <time>2026-08-28T19:08:18Z</time>
  <course>226.64</course>
  <speed>0.0</speed>
  <fix>3d</fix>
</trkpt>
<trkpt lat="40.0738603" lon="-105.2302297">
  <ele>1583.62</ele>
  <time>2026-08-28T19:08:18Z</time>
  <course>11.73</course>
  <speed>0.01414213562373095</speed>
  <fix>3d</fix>
</trkpt>
<trkpt lat="40.0738605" lon="-105.2302299">
  <ele>1583.56</ele>
  <time>2026-08-28T19:08:18Z</time>
  <course>86.55</course>
  <speed>0.0</speed>
  <fix>3d</fix>
</trkpt>
<trkpt lat="40.0738603" lon="-105.2302297">
  <ele>1583.61</ele>
  <time>2026-08-28T19:08:18Z</time>
  <course>11.85</course>
  <speed>0.01414213562373095</speed>
  <fix>3d</fix>
</trkpt>
<trkpt lat="40.0738605" lon="-105.2302299">
  <ele>1583.56</ele>
  <time>2026-08-28T19:08:18Z</time>
  <course>18.31</course>
  <speed>0.0</speed>
  <fix>3d</fix>
</trkpt>
<trkpt lat="40.0738603" lon="-105.2302297">
  <ele>1583.6</ele>
  <time>2026-08-28T19:08:18Z</time>
  <course>11.96</course>
  <speed>0.01414213562373095</speed>
  <fix>3d</fix>
</trkpt>
<trkpt lat="40.0738605" lon="-105.2302299">
  <ele>1583.56</ele>
  <time>2026-08-28T19:08:18Z</time>
  <course>254.42</course>
  <speed>0.0</speed>
  <fix>3d</fix>
</trkpt>
<trkpt lat="40.0738603" lon="-105.2302297">
  <ele>1583.61</ele>
  <time>2026-08-28T19:08:18Z</time>
  <course>12.06</course>
  <speed>0.01414213562373095</speed>
  <fix>3d</fix>
</trkpt>
<trkpt lat="40.0738605" lon="-105.2302299">
  <ele>1583.56</ele>
  <time>2026-08-28T19:08:18Z</time>
  <course>153.05</course>
  <speed>0.0</speed>
  <fix>3d</fix>
</trkpt>
<trkpt lat="40.0738603" lon="-105.2302297">
  <ele>1583.61</ele>
  <time>2026-08-28T19:08:18Z</time>
  <course>12.16</course>
  <speed>0.01414213562373095</speed>
  <fix>3d</fix>
</trkpt>
<trkpt lat="40.0738605" lon="-105.2302299">
  <ele>1583.56</ele>
  <time>2026-08-28T19:08:18Z</time>
  <course>106.6</course>
  <speed>0.0</speed>
  <fix>3d</fix>
</trkpt>
<trkpt lat="40.0738603" lon="-105.2302297">
  <ele>1583.62</ele>
  <time>2026-08-28T19:08:18Z</time>
  <course>12.25</course>
  <speed>0.01414213562373095</speed>
  <fix>3d</fix>
</trkpt>
<trkpt lat="40.0738605" lon="-105.2302299">
  <ele>1583.56</ele>
  <time>2026-08-28T19:08:18Z</time>
  <course>185.88</course>
  <speed>0.0</speed>
  <fix>3d</fix>
</trkpt>
<trkpt lat="40.0738603" lon="-105.2302297">
  <ele>1583.62</ele>
  <time>2026-08-28T19:08:18Z</time>
  <course>12.33</course>
  <speed>0.01414213562373095</speed>
  <fix>3d</fix>
</trkpt>
<trkpt lat="40.0738605" lon="-105.2302299">
  <ele>1583.56</ele>
  <time>2026-08-28T19:08:18Z</time>
  <course>176.86</course>
  <speed>0.0</speed>
  <fix>3d</fix>
</trkpt>
<trkpt lat="40.0738603" lon="-105.2302297">
  <ele>1583.63</ele>
  <time>2026-08-28T19:08:18Z</time>
  <course>12.41</course>
  <speed>0.01414213562373095</speed>
  <fix>3d</fix>
</trkpt>
<trkpt lat="40.0738605" lon="-105.2302299">
  <ele>1583.56</ele>
  <time>2026-08-28T19:08:18Z</time>
  <course>164.09</course>
  <speed>0.0</speed>
  <fix>3d</fix>
</trkpt>
<trkpt lat="40.0738603" lon="-105.2302297">
  <ele>1583.63</ele>
  <time>2026-08-28T19:08:18Z</time>
  <course>12.49</course>
  <speed>0.01414213562373095</speed>
  <fix>3d</fix>
</trkpt>
<trkpt lat="40.0738605" lon="-105.2302299">
  <ele>1583.56</ele>
  <time>2026-08-28T19:08:18Z</time>
  <course>166.33</course>
  <speed>0.0</speed>
  <fix>3d</fix>
</trkpt>
<trkpt lat="40.0738603" lon="-105.2302297">
  <ele>1583.64</ele>
  <time>2026-08-28T19:08:18Z</time>
  <course>12.56</course>
  <speed>0.01414213562373095</speed>
  <fix>3d</fix>
</trkpt>
<trkpt lat="40.0738605" lon="-105.2302299">
  <ele>1583.56</ele>
  <time>2026-08-28T19:08:18Z</time>
  <course>167.85</course>
  <speed>0.0</speed>
  <fix>3d</fix>
</trkpt>
<trkpt lat="40.0738603" lon="-105.2302297">
  <ele>1583.65</ele>
  <time>2026-08-28T19:08:18Z</time>
  <course>12.63</course>
  <speed>0.01414213562373095</speed>
  <fix>3d</fix>
</trkpt>
<trkpt lat="40.0738605" lon="-105.2302299">
  <ele>1583.56</ele>
  <time>2026-08-28T19:08:18Z</time>
  <course>167.36</course>
  <speed>0.0</speed>
  <fix>3d</fix>
</trkpt>
<trkpt lat="40.0738603" lon="-105.2302297">
  <ele>1583.66</ele>
  <time>2026-08-28T19:08:18Z</time>
  <course>12.7</course>
  <speed>0.01414213562373095</speed>
  <fix>3d</fix>
</trkpt>
<trkpt lat="40.0738605" lon="-105.2302299">
  <ele>1583.56</ele>
  <time>2026-08-28T19:08:18Z</time>
  <course>167.22</course>
  <speed>0.0</speed>
  <fix>3d</fix>
</trkpt>
<trkpt lat="40.0738603" lon="-105.2302297">
  <ele>1583.67</ele>
  <time>2026-08-28T19:08:18Z</time>
  <course>12.76</course>
  <speed>0.01414213562373095</speed>
  <fix>3d</fix>
</trkpt>
<trkpt lat="40.0738605" lon="-105.2302299">
  <ele>1583.56</ele>
  <time>2026-08-28T19:08:18Z</time>
  <course>167.3</course>
  <speed>0.0</speed>
  <fix>3d</fix>
</trkpt>
<trkpt lat="40.0738603" lon="-105.2302297">
  <ele>1583.67</ele>
  <time>2026-08-28T19:08:18Z</time>
  <course>12.82</course>
  <speed>0.01414213562373095</speed>
  <fix>3d</fix>
</trkpt>
<trkpt lat="40.0738605" lon="-105.2302299">
  <ele>1583.56</ele>
  <time>2026-08-28T19:08:18Z</time>
  <course>167.31</course>
  <speed>0.0</speed>
  <fix>3d</fix>
</trkpt>
<trkpt lat="40.0738603" lon="-105.2302297">
  <ele>1583.66</ele>
  <time>2026-08-28T19:08:18Z</time>
  <course>12.87</course>
  <speed>0.01414213562373095</speed>
  <fix>3d</fix>
</trkpt>
<trkpt lat="40.0738605" lon="-105.2302299">
  <ele>1583.56</ele>
  <time>2026-08-28T19:08:18Z</time>
  <course>167.3</course>
  <speed>0.0</speed>
  <fix>3d</fix>
</trkpt>
<trkpt lat="40.0738603" lon="-105.2302297">
  <ele>1583.66</ele>
  <time>2026-08-28T19:08:18Z</time>
  <course>12.93</course>
  <speed>0.01414213562373095</speed>
  <fix>3d</fix>
</trkpt>
<trkpt lat="40.0738605" lon="-105.2302299">
  <ele>1583.56</ele>
  <time>2026-08-28T19:08:18Z</time>
  <course>167.3</course>
  <speed>0.0</speed>
  <fix>3d</fix>
</trkpt>
<trkpt lat="40.0738603" lon="-105.2302297">
  <ele>1583.65</ele>
  <time>2026-08-28T19:08:18Z</time>
  <course>12.98</course>
  <speed>0.01414213562373095</speed>
  <fix>3d</fix>
</trkpt>
<trkpt lat="40.0738605" lon="-105.2302299">
  <ele>1583.56</ele>
  <time>2026-08-28T19:08:18Z</time>
  <course>167.3</course>
  <speed>0.0</speed>
  <fix>3d</fix>
</trkpt>
<trkpt lat="40.0738603" lon="-105.2302297">
  <ele>1583.65</ele>
  <time>2026-08-28T19:08:18Z</time>
  <course>13.03</course>
  <speed>0.01414213562373095</speed>
  <fix>3d</fix>
</trkpt>
<trkpt lat="40.0738605" lon="-105.2302299">
  <ele>1583.56</ele>
  <time>2026-08-28T19:08:18Z</time>
  <course>167.3</course>
  <speed>0.0</speed>
  <fix>3d</fix>
</trkpt>
<trkpt lat="40.0738604" lon="-105.2302297">
  <ele>1583.64</ele>
  <time>2026-08-28T19:08:18Z</time>
  <course>13.08</course>
  <speed>0.01414213562373095</speed>
  <fix>3d</fix>
</trkpt>
<trkpt lat="40.0738605" lon="-105.2302299">
  <ele>1583.56</ele>
  <time>2026-08-28T19:08:18Z</time>
  <course>167.3</course>
  <speed>0.0</speed>
  <fix>3d</fix>
</trkpt>
<trkpt lat="40.0738604" lon="-105.2302297">
  <ele>1583.65</ele>
  <time>2026-08-28T19:08:18Z</time>
  <course>13.12</course>
  <speed>0.01414213562373095</speed>
  <fix>3d</fix>
</trkpt>
<trkpt lat="40.0738605" lon="-105.2302299">
  <ele>1583.56</ele>
  <time>2026-08-28T19:08:18Z</time>
  <course>167.3</course>
  <speed>0.0</speed>
  <fix>3d</fix>
</trkpt>
<trkpt lat="40.0738604" lon="-105.2302298">
  <ele>1583.65</ele>
  <time>2026-08-28T19:08:18Z</time>
  <course>13.17</course>
  <speed>0.01</speed>
  <fix>3d</fix>
</trkpt>
<trkpt lat="40.0738605" lon="-105.2302299">
  <ele>1583.56</ele>
  <time>2026-08-28T19:08:18Z</time>
  <course>167.3</course>
  <speed>0.0</speed>
  <fix>3d</fix>
</trkpt>
<trkpt lat="40.0738604" lon="-105.2302298">
  <ele>1583.66</ele>
  <time>2026-08-28T19:08:18Z</time>
  <course>13.21</course>
  <speed>0.01</speed>
  <fix>3d</fix>
</trkpt>
<trkpt lat="40.0738605" lon="-105.2302299">
  <ele>1583.56</ele>
  <time>2026-08-28T19:08:18Z</time>
  <course>102.07</course>
  <speed>0.0</speed>
  <fix>3d</fix>
</trkpt>
<trkpt lat="40.0738604" lon="-105.2302298">
  <ele>1583.65</ele>
  <time>2026-08-28T19:08:18Z</time>
  <course>13.25</course>
  <speed>0.01414213562373095</speed>
  <fix>3d</fix>
</trkpt>
<trkpt lat="40.0738605" lon="-105.2302299">
  <ele>1583.56</ele>
  <time>2026-08-28T19:08:18Z</time>
  <course>146.12</course>
  <speed>0.0</speed>
  <fix>3d</fix>
</trkpt>
<trkpt lat="40.0738604" lon="-105.2302298">
  <ele>1583.66</ele>
  <time>2026-08-28T19:08:18Z</time>
  <course>13.29</course>
  <speed>0.01414213562373095</speed>
  <fix>3d</fix>
</trkpt>
<trkpt lat="40.0738605" lon="-105.2302299">
  <ele>1583.56</ele>
  <time>2026-08-28T19:08:18Z</time>
  <course>168.68</course>
  <speed>0.0</speed>
  <fix>3d</fix>
</trkpt>
<trkpt lat="40.0738604" lon="-105.2302298">
  <ele>1583.66</ele>
  <time>2026-08-28T19:08:18Z</time>
  <course>13.33</course>
  <speed>0.01414213562373095</speed>
  <fix>3d</fix>
</trkpt>
<trkpt lat="40.0738605" lon="-105.2302299">
  <ele>1583.56</ele>
  <time>2026-08-28T19:08:18Z</time>
  <course>162.74</course>
  <speed>0.0</speed>
  <fix>3d</fix>
</trkpt>
<trkpt lat="40.0738604" lon="-105.2302298">
  <ele>1583.66</ele>
  <time>2026-08-28T19:08:18Z</time>
  <course>13.37</course>
  <speed>0.01414213562373095</speed>
  <fix>3d</fix>
</trkpt>
<trkpt lat="40.0738605" lon="-105.2302299">
  <ele>1583.56</ele>
  <time>2026-08-28T19:08:18Z</time>
  <course>167.96</course>
  <speed>0.0</speed>
  <fix>3d</fix>
</trkpt>
<trkpt lat="40.0738604" lon="-105.2302298">
  <ele>1583.66</ele>
  <time>2026-08-28T19:08:18Z</time>
  <course>13.4</course>
  <speed>0.01414213562373095</speed>
  <fix>3d</fix>
</trkpt>
<trkpt lat="40.0738605" lon="-105.2302299">
  <ele>1583.56</ele>
  <time>2026-08-28T19:08:18Z</time>
  <course>167.84</course>
  <speed>0.0</speed>
  <fix>3d</fix>
</trkpt>
<trkpt lat="40.0738604" lon="-105.2302298">
  <ele>1583.65</ele>
  <time>2026-08-28T19:08:18Z</time>
  <course>13.44</course>
  <speed>0.01414213562373095</speed>
  <fix>3d</fix>
</trkpt>
<trkpt lat="40.0738605" lon="-105.2302299">
  <ele>1583.56</ele>
  <time>2026-08-28T19:08:19Z</time>
  <course>167.15</course>
  <speed>0.0</speed>
  <fix>3d</fix>
</trkpt>
<trkpt lat="40.0738604" lon="-105.2302298">
  <ele>1583.65</ele>
  <time>2026-08-28T19:08:19Z</time>
  <course>13.47</course>
  <speed>0.01414213562373095</speed>
  <fix>3d</fix>
</trkpt>
<trkpt lat="40.0738605" lon="-105.2302299">
  <ele>1583.56</ele>
  <time>2026-08-28T19:08:19Z</time>
  <course>167.24</course>
  <speed>0.0</speed>
  <fix>3d</fix>
</trkpt>
<trkpt lat="40.0738604" lon="-105.2302298">
  <ele>1583.66</ele>
  <time>2026-08-28T19:08:19Z</time>
  <course>13.51</course>
  <speed>0.01414213562373095</speed>
  <fix>3d</fix>
</trkpt>
<trkpt lat="40.0738605" lon="-105.2302299">
  <ele>1583.56</ele>
  <time>2026-08-28T19:08:19Z</time>
  <course>167.33</course>
  <speed>0.0</speed>
  <fix>3d</fix>
</trkpt>
<trkpt lat="40.0738604" lon="-105.2302298">
  <ele>1583.66</ele>
  <time>2026-08-28T19:08:19Z</time>
  <course>13.54</course>
  <speed>0.01414213562373095</speed>
  <fix>3d</fix>
</trkpt>
<trkpt lat="40.0738605" lon="-105.2302299">
  <ele>1583.56</ele>
  <time>2026-08-28T19:08:19Z</time>
  <course>167.3</course>
  <speed>0.0</speed>
  <fix>3d</fix>
</trkpt>
<trkpt lat="40.0738604" lon="-105.2302298">
  <ele>1583.66</ele>
  <time>2026-08-28T19:08:19Z</time>
  <course>13.57</course>
  <speed>0.01414213562373095</speed>
  <fix>3d</fix>
</trkpt>
<trkpt lat="40.0738605" lon="-105.2302299">
  <ele>1583.56</ele>
  <time>2026-08-28T19:08:19Z</time>
  <course>167.29</course>
  <speed>0.0</speed>
  <fix>3d</fix>
</trkpt>
<trkpt lat="40.0738604" lon="-105.2302298">
  <ele>1583.66</ele>
  <time>2026-08-28T19:08:19Z</time>
  <course>13.6</course>
  <speed>0.01</speed>
  <fix>3d</fix>
</trkpt>
<trkpt lat="40.0738605" lon="-105.2302299">
  <ele>1583.56</ele>
  <time>2026-08-28T19:08:19Z</time>
  <course>167.3</course>
  <speed>0.0</speed>
  <fix>3d</fix>
</trkpt>
<trkpt lat="40.0738604" lon="-105.2302298">
  <ele>1583.66</ele>
  <time>2026-08-28T19:08:19Z</time>
  <course>13.63</course>
  <speed>0.01</speed>
  <fix>3d</fix>
</trkpt>
<trkpt lat="40.0738605" lon="-105.2302299">
  <ele>1583.56</ele>
  <time>2026-08-28T19:08:19Z</time>
  <course>167.3</course>
  <speed>0.0</speed>
  <fix>3d</fix>
</trkpt>
<trkpt lat="40.0738604" lon="-105.2302298">
  <ele>1583.66</ele>
  <time>2026-08-28T19:08:19Z</time>
  <course>13.66</course>
  <speed>0.01</speed>
  <fix>3d</fix>
</trkpt>
<trkpt lat="40.0738605" lon="-105.2302299">
  <ele>1583.56</ele>
  <time>2026-08-28T19:08:19Z</time>
  <course>167.3</course>
  <speed>0.0</speed>
  <fix>3d</fix>
</trkpt>
<trkpt lat="40.0738604" lon="-105.2302298">
  <ele>1583.66</ele>
  <time>2026-08-28T19:08:19Z</time>
  <course>13.69</course>
  <speed>0.01</speed>
  <fix>3d</fix>
</trkpt>
<trkpt lat="40.0738605" lon="-105.2302299">
  <ele>1583.56</ele>
  <time>2026-08-28T19:08:19Z</time>
  <course>167.3</course>
  <speed>0.0</speed>
  <fix>3d</fix>
</trkpt>
<trkpt lat="40.0738604" lon="-105.2302298">
  <ele>1583.66</ele>
  <time>2026-08-28T19:08:19Z</time>
  <course>13.71</course>
  <speed>0.01</speed>
  <fix>3d</fix>
</trkpt>
<trkpt lat="40.0738605" lon="-105.2302299">
  <ele>1583.56</ele>
  <time>2026-08-28T19:08:19Z</time>
  <course>167.3</course>
  <speed>0.0</speed>
  <fix>3d</fix>
</trkpt>
<trkpt lat="40.0738604" lon="-105.2302298">
  <ele>1583.66</ele>
  <time>2026-08-28T19:08:19Z</time>
  <course>13.74</course>
  <speed>0.01</speed>
  <fix>3d</fix>
</trkpt>
<trkpt lat="40.0738605" lon="-105.2302299">
  <ele>1583.56</ele>
  <time>2026-08-28T19:08:19Z</time>
  <course>167.3</course>
  <speed>0.0</speed>
  <fix>3d</fix>
</trkpt>
<trkpt lat="40.0738604" lon="-105.2302298">
  <ele>1583.66</ele>
  <time>2026-08-28T19:08:19Z</time>
  <course>13.77</course>
  <speed>0.01</speed>
  <fix>3d</fix>
</trkpt>
<trkpt lat="40.0738605" lon="-105.2302299">
  <ele>1583.56</ele>
  <time>2026-08-28T19:08:19Z</time>
  <course>280.04</course>
  <speed>0.0</speed>
  <fix>3d</fix>
</trkpt>
<trkpt lat="40.0738604" lon="-105.2302298">
  <ele>1583.66</ele>
  <time>2026-08-28T19:08:19Z</time>
  <course>13.79</course>
  <speed>0.01</speed>
  <fix>3d</fix>
</trkpt>
<trkpt lat="40.0738605" lon="-105.2302299">
  <ele>1583.56</ele>
  <time>2026-08-28T19:08:19Z</time>
  <course>269.16</course>
  <speed>0.0</speed>
  <fix>3d</fix>
</trkpt>
<trkpt lat="40.0738604" lon="-105.2302298">
  <ele>1583.65</ele>
  <time>2026-08-28T19:08:19Z</time>
  <course>13.82</course>
  <speed>0.01</speed>
  <fix>3d</fix>
</trkpt>
<trkpt lat="40.0738605" lon="-105.2302299">
  <ele>1583.56</ele>
  <time>2026-08-28T19:08:19Z</time>
  <course>192.61</course>
  <speed>0.0</speed>
  <fix>3d</fix>
</trkpt>
<trkpt lat="40.0738604" lon="-105.2302298">
  <ele>1583.65</ele>
  <time>2026-08-28T19:08:19Z</time>
  <course>13.85</course>
  <speed>0.01</speed>
  <fix>3d</fix>
</trkpt>
<trkpt lat="40.0738605" lon="-105.2302299">
  <ele>1583.56</ele>
  <time>2026-08-28T19:08:19Z</time>
  <course>109.93</course>
  <speed>0.0</speed>
  <fix>3d</fix>
</trkpt>
<trkpt lat="40.0738604" lon="-105.2302298">
  <ele>1583.65</ele>
  <time>2026-08-28T19:08:19Z</time>
  <course>13.87</course>
  <speed>0.01414213562373095</speed>
  <fix>3d</fix>
</trkpt>
<trkpt lat="40.0738605" lon="-105.2302299">
  <ele>1583.56</ele>
  <time>2026-08-28T19:08:19Z</time>
  <course>202.71</course>
  <speed>0.0</speed>
  <fix>3d</fix>
</trkpt>
<trkpt lat="40.0738604" lon="-105.2302298">
  <ele>1583.65</ele>
  <time>2026-08-28T19:08:19Z</time>
  <course>13.89</course>
  <speed>0.01414213562373095</speed>
  <fix>3d</fix>
</trkpt>
<trkpt lat="40.0738605" lon="-105.2302299">
  <ele>1583.56</ele>
  <time>2026-08-28T19:08:19Z</time>
  <course>200.47</course>
  <speed>0.0</speed>
  <fix>3d</fix>
</trkpt>
<trkpt lat="40.0738604" lon="-105.2302298">
  <ele>1583.65</ele>
  <time>2026-08-28T19:08:19Z</time>
  <course>13.92</course>
  <speed>0.01414213562373095</speed>
  <fix>3d</fix>
</trkpt>
<trkpt lat="40.0738605" lon="-105.2302299">
  <ele>1583.56</ele>
  <time>2026-08-28T19:08:19Z</time>
  <course>184.05</course>
  <speed>0.0</speed>
  <fix>3d</fix>
</trkpt>
<trkpt lat="40.0738604" lon="-105.2302298">
  <ele>1583.65</ele>
  <time>2026-08-28T19:08:19Z</time>
  <course>13.94</course>
  <speed>0.01414213562373095</speed>
  <fix>3d</fix>
</trkpt>
<trkpt lat="40.0738605" lon="-105.2302299">
  <ele>1583.56</ele>
  <time>2026-08-28T19:08:19Z</time>
  <course>185.8</course>
  <speed>0.0</speed>
  <fix>3d</fix>
</trkpt>
<trkpt lat="40.0738604" lon="-105.2302298">
  <ele>1583.65</ele>
  <time>2026-08-28T19:08:19Z</time>
  <course>13.96</course>
  <speed>0.01414213562373095</speed>
  <fix>3d</fix>
</trkpt>
<trkpt lat="40.0738605" lon="-105.2302299">
  <ele>1583.56</ele>
  <time>2026-08-28T19:08:19Z</time>
  <course>188.02</course>
  <speed>0.0</speed>
  <fix>3d</fix>
</trkpt>
<trkpt lat="40.0738604" lon="-105.2302298">
  <ele>1583.65</ele>
  <time>2026-08-28T19:08:19Z</time>
  <course>13.99</course>
  <speed>0.01414213562373095</speed>
  <fix>3d</fix>
</trkpt>
<trkpt lat="40.0738605" lon="-105.2302299">
  <ele>1583.56</ele>
  <time>2026-08-28T19:08:19Z</time>
  <course>187.51</course>
  <speed>0.0</speed>
  <fix>3d</fix>
</trkpt>
<trkpt lat="40.0738604" lon="-105.2302298">
  <ele>1583.65</ele>
  <time>2026-08-28T19:08:19Z</time>
  <course>14.01</course>
  <speed>0.01414213562373095</speed>
  <fix>3d</fix>
</trkpt>
<trkpt lat="40.0738605" lon="-105.2302299">
  <ele>1583.56</ele>
  <time>2026-08-28T19:08:19Z</time>
  <course>187.28</course>
  <speed>0.0</speed>
  <fix>3d</fix>
</trkpt>
<trkpt lat="40.0738604" lon="-105.2302298">
  <ele>1583.65</ele>
  <time>2026-08-28T19:08:19Z</time>
  <course>14.03</course>
  <speed>0.01414213562373095</speed>
  <fix>3d</fix>
</trkpt>
<trkpt lat="40.0738605" lon="-105.2302299">
  <ele>1583.56</ele>
  <time>2026-08-28T19:08:19Z</time>
  <course>187.37</course>
  <speed>0.0</speed>
  <fix>3d</fix>
</trkpt>
<trkpt lat="40.0738604" lon="-105.2302298">
  <ele>1583.65</ele>
  <time>2026-08-28T19:08:19Z</time>
  <course>14.05</course>
  <speed>0.022360679774997897</speed>
  <fix>3d</fix>
</trkpt>
<trkpt lat="40.0738605" lon="-105.2302299">
  <ele>1583.56</ele>
  <time>2026-08-28T19:08:19Z</time>
  <course>187.39</course>
  <speed>0.0</speed>
  <fix>3d</fix>
</trkpt>
<trkpt lat="40.0738604" lon="-105.2302298">
  <ele>1583.65</ele>
  <time>2026-08-28T19:08:19Z</time>
  <course>14.07</course>
  <speed>0.022360679774997897</speed>
  <fix>3d</fix>
</trkpt>
<trkpt lat="40.0738605" lon="-105.2302299">
  <ele>1583.56</ele>
  <time>2026-08-28T19:08:19Z</time>
  <course>187.13</course>
  <speed>0.0</speed>
  <fix>3d</fix>
</trkpt>
<trkpt lat="40.0738604" lon="-105.2302298">
  <ele>1583.65</ele>
  <time>2026-08-28T19:08:19Z</time>
  <course>14.09</course>
  <speed>0.022360679774997897</speed>
  <fix>3d</fix>
</trkpt>
<trkpt lat="40.0738605" lon="-105.2302299">
  <ele>1583.56</ele>
  <time>2026-08-28T19:08:19Z</time>
  <course>185.23</course>
  <speed>0.0</speed>
  <fix>3d</fix>
</trkpt>
<trkpt lat="40.0738604" lon="-105.2302298">
  <ele>1583.65</ele>
  <time>2026-08-28T19:08:19Z</time>
  <course>14.11</course>
  <speed>0.022360679774997897</speed>
  <fix>3d</fix>
</trkpt>
<trkpt lat="40.0738605" lon="-105.2302299">
  <ele>1583.56</ele>
  <time>2026-08-28T19:08:19Z</time>
  <course>178.73</course>
  <speed>0.0</speed>
  <fix>3d</fix>
</trkpt>
<trkpt lat="40.0738604" lon="-105.2302298">
  <ele>1583.65</ele>
  <time>2026-08-28T19:08:19Z</time>
  <course>14.12</course>
  <speed>0.022360679774997897</speed>
  <fix>3d</fix>
</trkpt>
<trkpt lat="40.0738605" lon="-105.2302299">
  <ele>1583.56</ele>
  <time>2026-08-28T19:08:19Z</time>
  <course>165.06</course>
  <speed>0.0</speed>
  <fix>3d</fix>
</trkpt>
<trkpt lat="40.0738604" lon="-105.2302298">
  <ele>1583.65</ele>
  <time>2026-08-28T19:08:19Z</time>
  <course>14.13</course>
  <speed>0.022360679774997897</speed>
  <fix>3d</fix>
</trkpt>
<trkpt lat="40.0738605" lon="-105.2302299">
  <ele>1583.56</ele>
  <time>2026-08-28T19:08:19Z</time>
  <course>146.26</course>
  <speed>0.0</speed>
  <fix>3d</fix>
</trkpt>
<trkpt lat="40.0738604" lon="-105.2302298">
  <ele>1583.65</ele>
  <time>2026-08-28T19:08:19Z</time>
  <course>14.14</course>
  <speed>0.022360679774997897</speed>
  <fix>3d</fix>
</trkpt>
<trkpt lat="40.0738605" lon="-105.2302299">
  <ele>1583.56</ele>
  <time>2026-08-28T19:08:19Z</time>
  <course>129.33</course>
  <speed>0.0</speed>
  <fix>3d</fix>
</trkpt>
<trkpt lat="40.0738604" lon="-105.2302298">
  <ele>1583.65</ele>
  <time>2026-08-28T19:08:19Z</time>
  <course>14.15</course>
  <speed>0.022360679774997897</speed>
  <fix>3d</fix>
</trkpt>
<trkpt lat="40.0738605" lon="-105.2302299">
  <ele>1583.56</ele>
  <time>2026-08-28T19:08:19Z</time>
  <course>113.16</course>
  <speed>0.0</speed>
  <fix>3d</fix>
</trkpt>
<trkpt lat="40.0738604" lon="-105.2302298">
  <ele>1583.65</ele>
  <time>2026-08-28T19:08:19Z</time>
  <course>14.16</course>
  <speed>0.022360679774997897</speed>
  <fix>3d</fix>
</trkpt>
<trkpt lat="40.0738605" lon="-105.2302299">
  <ele>1583.56</ele>
  <time>2026-08-28T19:08:19Z</time>
  <course>107.03</course>
  <speed>0.0</speed>
  <fix>3d</fix>
</trkpt>
<trkpt lat="40.0738604" lon="-105.2302298">
  <ele>1583.65</ele>
  <time>2026-08-28T19:08:19Z</time>
  <course>14.17</course>
  <speed>0.022360679774997897</speed>
  <fix>3d</fix>
</trkpt>
<trkpt lat="40.0738605" lon="-105.2302299">
  <ele>1583.56</ele>
  <time>2026-08-28T19:08:19Z</time>
  <course>104.7</course>
  <speed>0.0</speed>
  <fix>3d</fix>
</trkpt>
<trkpt lat="40.0738604" lon="-105.2302298">
  <ele>1583.65</ele>
  <time>2026-08-28T19:08:19Z</time>
  <course>14.17</course>
  <speed>0.022360679774997897</speed>
  <fix>3d</fix>
</trkpt>
<trkpt lat="40.0738605" lon="-105.2302299">
  <ele>1583.56</ele>
  <time>2026-08-28T19:08:19Z</time>
  <course>102.53</course>
  <speed>0.0</speed>
  <fix>3d</fix>
</trkpt>
<trkpt lat="40.0738604" lon="-105.2302298">
  <ele>1583.65</ele>
  <time>2026-08-28T19:08:19Z</time>
  <course>14.17</course>
  <speed>0.022360679774997897</speed>
  <fix>3d</fix>
</trkpt>
<trkpt lat="40.0738605" lon="-105.2302299">
  <ele>1583.56</ele>
  <time>2026-08-28T19:08:19Z</time>
  <course>100.99</course>
  <speed>0.0</speed>
  <fix>3d</fix>
</trkpt>
<trkpt lat="40.0738604" lon="-105.2302298">
  <ele>1583.65</ele>
  <time>2026-08-28T19:08:19Z</time>
  <course>14.17</course>
  <speed>0.022360679774997897</speed>
  <fix>3d</fix>
</trkpt>
<trkpt lat="40.0738605" lon="-105.2302299">
  <ele>1583.56</ele>
  <time>2026-08-28T19:08:19Z</time>
  <course>100.02</course>
  <speed>0.0</speed>
  <fix>3d</fix>
</trkpt>
<trkpt lat="40.0738604" lon="-105.2302298">
  <ele>1583.65</ele>
  <time>2026-08-28T19:08:19Z</time>
  <course>14.16</course>
  <speed>0.022360679774997897</speed>
  <fix>3d</fix>
</trkpt>
<trkpt lat="40.0738605" lon="-105.2302299">
  <ele>1583.56</ele>
  <time>2026-08-28T19:08:19Z</time>
  <course>99.35</course>
  <speed>0.0</speed>
  <fix>3d</fix>
</trkpt>
<trkpt lat="40.0738604" lon="-105.2302298">
  <ele>1583.65</ele>
  <time>2026-08-28T19:08:19Z</time>
  <course>14.16</course>
  <speed>0.022360679774997897</speed>
  <fix>3d</fix>
</trkpt>
<trkpt lat="40.0738605" lon="-105.2302299">
  <ele>1583.56</ele>
  <time>2026-08-28T19:08:19Z</time>
  <course>98.88</course>
  <speed>0.0</speed>
  <fix>3d</fix>
</trkpt>
<trkpt lat="40.0738604" lon="-105.2302298">
  <ele>1583.65</ele>
  <time>2026-08-28T19:08:19Z</time>
  <course>14.15</course>
  <speed>0.022360679774997897</speed>
  <fix>3d</fix>
</trkpt>
<trkpt lat="40.0738605" lon="-105.2302299">
  <ele>1583.56</ele>
  <time>2026-08-28T19:08:19Z</time>
  <course>98.56</course>
  <speed>0.0</speed>
  <fix>3d</fix>
</trkpt>
<trkpt lat="40.0738604" lon="-105.2302298">
  <ele>1583.65</ele>
  <time>2026-08-28T19:08:19Z</time>
  <course>14.14</course>
  <speed>0.022360679774997897</speed>
  <fix>3d</fix>
</trkpt>
<trkpt lat="40.0738605" lon="-105.2302299">
  <ele>1583.56</ele>
  <time>2026-08-28T19:08:19Z</time>
  <course>103.25</course>
  <speed>0.0</speed>
  <fix>3d</fix>
</trkpt>
<trkpt lat="40.0738604" lon="-105.2302298">
  <ele>1583.65</ele>
  <time>2026-08-28T19:08:19Z</time>
  <course>14.13</course>
  <speed>0.022360679774997897</speed>
  <fix>3d</fix>
</trkpt>
<trkpt lat="40.0738605" lon="-105.2302299">
  <ele>1583.56</ele>
  <time>2026-08-28T19:08:19Z</time>
  <course>105.06</course>
  <speed>0.0</speed>
  <fix>3d</fix>
</trkpt>
<trkpt lat="40.0738604" lon="-105.2302298">
  <ele>1583.65</ele>
  <time>2026-08-28T19:08:19Z</time>
  <course>14.12</course>
  <speed>0.022360679774997897</speed>
  <fix>3d</fix>
</trkpt>
<trkpt lat="40.0738605" lon="-105.2302299">
  <ele>1583.56</ele>
  <time>2026-08-28T19:08:19Z</time>
  <course>98.63</course>
  <speed>0.0</speed>
  <fix>3d</fix>
</trkpt>
<trkpt lat="40.0738604" lon="-105.2302298">
  <ele>1583.65</ele>
  <time>2026-08-28T19:08:19Z</time>
  <course>14.1</course>
  <speed>0.022360679774997897</speed>
  <fix>3d</fix>
</trkpt>
<trkpt lat="40.0738605" lon="-105.2302299">
  <ele>1583.56</ele>
  <time>2026-08-28T19:08:19Z</time>
  <course>98.48</course>
  <speed>0.0</speed>
  <fix>3d</fix>
</trkpt>
<trkpt lat="40.0738604" lon="-105.2302298">
  <ele>1583.65</ele>
  <time>2026-08-28T19:08:19Z</time>
  <course>14.09</course>
  <speed>0.022360679774997897</speed>
  <fix>3d</fix>
</trkpt>
<trkpt lat="40.0738605" lon="-105.2302299">
  <ele>1583.56</ele>
  <time>2026-08-28T19:08:19Z</time>
  <course>98.77</course>
  <speed>0.0</speed>
  <fix>3d</fix>
</trkpt>
<trkpt lat="40.0738604" lon="-105.2302298">
  <ele>1583.66</ele>
  <time>2026-08-28T19:08:19Z</time>
  <course>14.07</course>
  <speed>0.022360679774997897</speed>
  <fix>3d</fix>
</trkpt>
<trkpt lat="40.0738605" lon="-105.2302299">
  <ele>1583.56</ele>
  <time>2026-08-28T19:08:19Z</time>
  <course>98.68</course>
  <speed>0.0</speed>
  <fix>3d</fix>
</trkpt>
<trkpt lat="40.0738604" lon="-105.2302298">
  <ele>1583.66</ele>
  <time>2026-08-28T19:08:19Z</time>
  <course>14.05</course>
  <speed>0.022360679774997897</speed>
  <fix>3d</fix>
</trkpt>
<trkpt lat="40.0738605" lon="-105.2302299">
  <ele>1583.56</ele>
  <time>2026-08-28T19:08:19Z</time>
  <course>223.73</course>
  <speed>0.0</speed>
  <fix>3d</fix>
</trkpt>
<trkpt lat="40.0738604" lon="-105.2302298">
  <ele>1583.66</ele>
  <time>2026-08-28T19:08:19Z</time>
  <course>14.03</course>
  <speed>0.022360679774997897</speed>
  <fix>3d</fix>
</trkpt>
<trkpt lat="40.0738605" lon="-105.2302299">
  <ele>1583.56</ele>
  <time>2026-08-28T19:08:19Z</time>
  <course>267.78</course>
  <speed>0.0</speed>
  <fix>3d</fix>
</trkpt>
<trkpt lat="40.0738604" lon="-105.2302298">
  <ele>1583.66</ele>
  <time>2026-08-28T19:08:19Z</time>
  <course>14.0</course>
  <speed>0.022360679774997897</speed>
  <fix>3d</fix>
</trkpt>
<trkpt lat="40.0738605" lon="-105.2302299">
  <ele>1583.56</ele>
  <time>2026-08-28T19:08:19Z</time>
  <course>103.38</course>
  <speed>0.0</speed>
  <fix>3d</fix>
</trkpt>
<trkpt lat="40.0738604" lon="-105.2302298">
  <ele>1583.66</ele>
  <time>2026-08-28T19:08:19Z</time>
  <course>13.98</course>
  <speed>0.022360679774997897</speed>
  <fix>3d</fix>
</trkpt>
<trkpt lat="40.0738605" lon="-105.2302299">
  <ele>1583.56</ele>
  <time>2026-08-28T19:08:19Z</time>
  <course>98.39</course>
  <speed>0.0</speed>
  <fix>3d</fix>
</trkpt>
<trkpt lat="40.0738604" lon="-105.2302298">
  <ele>1583.66</ele>
  <time>2026-08-28T19:08:19Z</time>
  <course>13.95</course>
  <speed>0.022360679774997897</speed>
  <fix>3d</fix>
</trkpt>
<trkpt lat="40.0738605" lon="-105.2302299">
  <ele>1583.56</ele>
  <time>2026-08-28T19:08:19Z</time>
  <course>138.8</course>
  <speed>0.0</speed>
  <fix>3d</fix>
</trkpt>
<trkpt lat="40.0738604" lon="-105.2302298">
  <ele>1583.66</ele>
  <time>2026-08-28T19:08:19Z</time>
  <course>13.92</course>
  <speed>0.022360679774997897</speed>
  <fix>3d</fix>
</trkpt>
<trkpt lat="40.0738605" lon="-105.2302299">
  <ele>1583.56</ele>
  <time>2026-08-28T19:08:19Z</time>
  <course>269.94</course>
  <speed>0.0</speed>
  <fix>3d</fix>
</trkpt>
<trkpt lat="40.0738604" lon="-105.2302298">
  <ele>1583.66</ele>
  <time>2026-08-28T19:08:19Z</time>
  <course>13.89</course>
  <speed>0.022360679774997897</speed>
  <fix>3d</fix>
</trkpt>
<trkpt lat="40.0738605" lon="-105.2302299">
  <ele>1583.56</ele>
  <time>2026-08-28T19:08:19Z</time>
  <course>253.02</course>
  <speed>0.0</speed>
  <fix>3d</fix>
</trkpt>
<trkpt lat="40.0738604" lon="-105.2302298">
  <ele>1583.66</ele>
  <time>2026-08-28T19:08:19Z</time>
  <course>13.86</course>
  <speed>0.022360679774997897</speed>
  <fix>3d</fix>
</trkpt>
<trkpt lat="40.0738605" lon="-105.2302299">
  <ele>1583.56</ele>
  <time>2026-08-28T19:08:19Z</time>
  <course>99.46</course>
  <speed>0.0</speed>
  <fix>3d</fix>
</trkpt>
<trkpt lat="40.0738604" lon="-105.2302298">
  <ele>1583.65</ele>
  <time>2026-08-28T19:08:19Z</time>
  <course>13.82</course>
  <speed>0.022360679774997897</speed>
  <fix>3d</fix>
</trkpt>
<trkpt lat="40.0738605" lon="-105.2302299">
  <ele>1583.56</ele>
  <time>2026-08-28T19:08:19Z</time>
  <course>269.15</course>
  <speed>0.0</speed>
  <fix>3d</fix>
</trkpt>
<trkpt lat="40.0738604" lon="-105.2302298">
  <ele>1583.65</ele>
  <time>2026-08-28T19:08:19Z</time>
  <course>13.79</course>
  <speed>0.022360679774997897</speed>
  <fix>3d</fix>
</trkpt>
<trkpt lat="40.0738605" lon="-105.2302299">
  <ele>1583.56</ele>
  <time>2026-08-28T19:08:19Z</time>
  <course>268.77</course>
  <speed>0.0</speed>
  <fix>3d</fix>
</trkpt>
<trkpt lat="40.0738604" lon="-105.2302298">
  <ele>1583.65</ele>
  <time>2026-08-28T19:08:19Z</time>
  <course>13.75</course>
  <speed>0.022360679774997897</speed>
  <fix>3d</fix>
</trkpt>
<trkpt lat="40.0738605" lon="-105.2302299">
  <ele>1583.56</ele>
  <time>2026-08-28T19:08:19Z</time>
  <course>267.94</course>
  <speed>0.0</speed>
  <fix>3d</fix>
</trkpt>
<trkpt lat="40.0738604" lon="-105.2302298">
  <ele>1583.65</ele>
  <time>2026-08-28T19:08:19Z</time>
  <course>13.71</course>
  <speed>0.022360679774997897</speed>
  <fix>3d</fix>
</trkpt>
<trkpt lat="40.0738605" lon="-105.2302299">
  <ele>1583.56</ele>
  <time>2026-08-28T19:08:19Z</time>
  <course>271.55</course>
  <speed>0.0</speed>
  <fix>3d</fix>
</trkpt>
<trkpt lat="40.0738604" lon="-105.2302298">
  <ele>1583.65</ele>
  <time>2026-08-28T19:08:19Z</time>
  <course>13.67</course>
  <speed>0.022360679774997897</speed>
  <fix>3d</fix>
</trkpt>
<trkpt lat="40.0738605" lon="-105.2302299">
  <ele>1583.56</ele>
  <time>2026-08-28T19:08:19Z</time>
  <course>265.38</course>
  <speed>0.0</speed>
  <fix>3d</fix>
</trkpt>
<trkpt lat="40.0738604" lon="-105.2302298">
  <ele>1583.65</ele>
  <time>2026-08-28T19:08:19Z</time>
  <course>13.63</course>
  <speed>0.022360679774997897</speed>
  <fix>3d</fix>
</trkpt>
<trkpt lat="40.0738605" lon="-105.2302299">
  <ele>1583.56</ele>
  <time>2026-08-28T19:08:19Z</time>
  <course>270.51</course>
  <speed>0.0</speed>
  <fix>3d</fix>
</trkpt>
<trkpt lat="40.0738604" lon="-105.2302298">
  <ele>1583.65</ele>
  <time>2026-08-28T19:08:19Z</time>
  <course>13.59</course>
  <speed>0.022360679774997897</speed>
  <fix>3d</fix>
</trkpt>
<trkpt lat="40.0738605" lon="-105.2302299">
  <ele>1583.56</ele>
  <time>2026-08-28T19:08:19Z</time>
  <course>271.16</course>
  <speed>0.0</speed>
  <fix>3d</fix>
</trkpt>
<trkpt lat="40.0738604" lon="-105.2302298">
  <ele>1583.65</ele>
  <time>2026-08-28T19:08:19Z</time>
  <course>13.54</course>
  <speed>0.022360679774997897</speed>
  <fix>3d</fix>
</trkpt>
<trkpt lat="40.0738605" lon="-105.2302299">
  <ele>1583.56</ele>
  <time>2026-08-28T19:08:19Z</time>
  <course>114.69</course>
  <speed>0.0</speed>
  <fix>3d</fix>
</trkpt>
<trkpt lat="40.0738604" lon="-105.2302298">
  <ele>1583.66</ele>
  <time>2026-08-28T19:08:19Z</time>
  <course>13.5</course>
  <speed>0.022360679774997897</speed>
  <fix>3d</fix>
</trkpt>
<trkpt lat="40.0738605" lon="-105.2302299">
  <ele>1583.56</ele>
  <time>2026-08-28T19:08:19Z</time>
  <course>113.0</course>
  <speed>0.0</speed>
  <fix>3d</fix>
</trkpt>
<trkpt lat="40.0738604" lon="-105.2302298">
  <ele>1583.66</ele>
  <time>2026-08-28T19:08:19Z</time>
  <course>13.45</course>
  <speed>0.022360679774997897</speed>
  <fix>3d</fix>
</trkpt>
<trkpt lat="40.0738605" lon="-105.2302299">
  <ele>1583.56</ele>
  <time>2026-08-28T19:08:19Z</time>
  <course>265.99</course>
  <speed>0.0</speed>
  <fix>3d</fix>
</trkpt>
<trkpt lat="40.0738604" lon="-105.2302298">
  <ele>1583.66</ele>
  <time>2026-08-28T19:08:19Z</time>
  <course>13.4</course>
  <speed>0.022360679774997897</speed>
  <fix>3d</fix>
</trkpt>
<trkpt lat="40.0738605" lon="-105.2302299">
  <ele>1583.56</ele>
  <time>2026-08-28T19:08:19Z</time>
  <course>271.37</course>
  <speed>0.0</speed>
  <fix>3d</fix>
</trkpt>
<trkpt lat="40.0738604" lon="-105.2302298">
  <ele>1583.66</ele>
  <time>2026-08-28T19:08:19Z</time>
  <course>13.35</course>
  <speed>0.022360679774997897</speed>
  <fix>3d</fix>
</trkpt>
<trkpt lat="40.0738605" lon="-105.2302299">
  <ele>1583.56</ele>
  <time>2026-08-28T19:08:19Z</time>
  <course>271.28</course>
  <speed>0.0</speed>
  <fix>3d</fix>
</trkpt>
<trkpt lat="40.0738604" lon="-105.2302298">
  <ele>1583.66</ele>
  <time>2026-08-28T19:08:19Z</time>
  <course>13.31</course>
  <speed>0.022360679774997897</speed>
  <fix>3d</fix>
</trkpt>
<trkpt lat="40.0738605" lon="-105.2302299">
  <ele>1583.56</ele>
  <time>2026-08-28T19:08:19Z</time>
  <course>270.98</course>
  <speed>0.0</speed>
  <fix>3d</fix>
</trkpt>
<trkpt lat="40.0738604" lon="-105.2302298">
  <ele>1583.66</ele>
  <time>2026-08-28T19:08:19Z</time>
  <course>13.26</course>
  <speed>0.022360679774997897</speed>
  <fix>3d</fix>
</trkpt>
<trkpt lat="40.0738605" lon="-105.2302299">
  <ele>1583.56</ele>
  <time>2026-08-28T19:08:19Z</time>
  <course>270.92</course>
  <speed>0.0</speed>
  <fix>3d</fix>
</trkpt>
<trkpt lat="40.0738604" lon="-105.2302298">
  <ele>1583.66</ele>
  <time>2026-08-28T19:08:19Z</time>
  <course>13.21</course>
  <speed>0.022360679774997897</speed>
  <fix>3d</fix>
</trkpt>
<trkpt lat="40.0738605" lon="-105.2302299">
  <ele>1583.56</ele>
  <time>2026-08-28T19:08:19Z</time>
  <course>270.84</course>
  <speed>0.0</speed>
  <fix>3d</fix>
</trkpt>
<trkpt lat="40.0738604" lon="-105.2302298">
  <ele>1583.66</ele>
  <time>2026-08-28T19:08:19Z</time>
  <course>13.16</course>
  <speed>0.022360679774997897</speed>
  <fix>3d</fix>
</trkpt>
<trkpt lat="40.0738605" lon="-105.2302299">
  <ele>1583.56</ele>
  <time>2026-08-28T19:08:19Z</time>
  <course>269.78</course>
  <speed>0.0</speed>
  <fix>3d</fix>
</trkpt>
<trkpt lat="40.0738604" lon="-105.2302298">
  <ele>1583.66</ele>
  <time>2026-08-28T19:08:19Z</time>
  <course>13.12</course>
  <speed>0.022360679774997897</speed>
  <fix>3d</fix>
</trkpt>
<trkpt lat="40.0738605" lon="-105.2302299">
  <ele>1583.56</ele>
  <time>2026-08-28T19:08:19Z</time>
  <course>270.07</course>
  <speed>0.0</speed>
  <fix>3d</fix>
</trkpt>
<trkpt lat="40.0738604" lon="-105.2302298">
  <ele>1583.66</ele>
  <time>2026-08-28T19:08:19Z</time>
  <course>13.07</course>
  <speed>0.022360679774997897</speed>
  <fix>3d</fix>
</trkpt>
<trkpt lat="40.0738605" lon="-105.2302299">
  <ele>1583.56</ele>
  <time>2026-08-28T19:08:19Z</time>
  <course>270.11</course>
  <speed>0.0</speed>
  <fix>3d</fix>
</trkpt>
<trkpt lat="40.0738604" lon="-105.2302298">
  <ele>1583.66</ele>
  <time>2026-08-28T19:08:19Z</time>
  <course>13.02</course>
  <speed>0.022360679774997897</speed>
  <fix>3d</fix>
</trkpt>
<trkpt lat="40.0738605" lon="-105.2302299">
  <ele>1583.56</ele>
  <time>2026-08-28T19:08:19Z</time>
  <course>270.56</course>
  <speed>0.0</speed>
  <fix>3d</fix>
</trkpt>
<trkpt lat="40.0738604" lon="-105.2302298">
  <ele>1583.66</ele>
  <time>2026-08-28T19:08:19Z</time>
  <course>12.98</course>
  <speed>0.022360679774997897</speed>
  <fix>3d</fix>
</trkpt>
<trkpt lat="40.0738605" lon="-105.2302299">
  <ele>1583.56</ele>
  <time>2026-08-28T19:08:19Z</time>
  <course>270.84</course>
  <speed>0.0</speed>
  <fix>3d</fix>
</trkpt>
<trkpt lat="40.0738604" lon="-105.2302298">
  <ele>1583.66</ele>
  <time>2026-08-28T19:08:19Z</time>
  <course>12.93</course>
  <speed>0.022360679774997897</speed>
  <fix>3d</fix>
</trkpt>
<trkpt lat="40.0738605" lon="-105.2302299">
  <ele>1583.56</ele>
  <time>2026-08-28T19:08:19Z</time>
  <course>270.68</course>
  <speed>0.0</speed>
  <fix>3d</fix>
</trkpt>
<trkpt lat="40.0738604" lon="-105.2302298">
  <ele>1583.66</ele>
  <time>2026-08-28T19:08:19Z</time>
  <course>12.89</course>
  <speed>0.022360679774997897</speed>
  <fix>3d</fix>
</trkpt>
<trkpt lat="40.0738605" lon="-105.2302299">
  <ele>1583.56</ele>
  <time>2026-08-28T19:08:19Z</time>
  <course>270.83</course>
  <speed>0.0</speed>
  <fix>3d</fix>
</trkpt>
<trkpt lat="40.0738604" lon="-105.2302298">
  <ele>1583.66</ele>
  <time>2026-08-28T19:08:19Z</time>
  <course>12.85</course>
  <speed>0.022360679774997897</speed>
  <fix>3d</fix>
</trkpt>
<trkpt lat="40.0738605" lon="-105.2302299">
  <ele>1583.56</ele>
  <time>2026-08-28T19:08:19Z</time>
  <course>270.45</course>
  <speed>0.0</speed>
  <fix>3d</fix>
</trkpt>
<trkpt lat="40.0738604" lon="-105.2302298">
  <ele>1583.66</ele>
  <time>2026-08-28T19:08:19Z</time>
  <course>12.8</course>
  <speed>0.022360679774997897</speed>
  <fix>3d</fix>
</trkpt>
<trkpt lat="40.0738605" lon="-105.2302299">
  <ele>1583.56</ele>
  <time>2026-08-28T19:08:19Z</time>
  <course>270.72</course>
  <speed>0.0</speed>
  <fix>3d</fix>
</trkpt>
<trkpt lat="40.0738604" lon="-105.2302298">
  <ele>1583.66</ele>
  <time>2026-08-28T19:08:19Z</time>
  <course>12.76</course>
  <speed>0.022360679774997897</speed>
  <fix>3d</fix>
</trkpt>
<trkpt lat="40.0738605" lon="-105.2302299">
  <ele>1583.56</ele>
  <time>2026-08-28T19:08:19Z</time>
  <course>269.35</course>
  <speed>0.0</speed>
  <fix>3d</fix>
</trkpt>
<trkpt lat="40.0738604" lon="-105.2302298">
  <ele>1583.66</ele>
  <time>2026-08-28T19:08:19Z</time>
  <course>12.72</course>
  <speed>0.022360679774997897</speed>
  <fix>3d</fix>
</trkpt>
<trkpt lat="40.0738605" lon="-105.2302299">
  <ele>1583.56</ele>
  <time>2026-08-28T19:08:19Z</time>
  <course>270.03</course>
  <speed>0.0</speed>
  <fix>3d</fix>
</trkpt>
<trkpt lat="40.0738604" lon="-105.2302298">
  <ele>1583.67</ele>
  <time>2026-08-28T19:08:19Z</time>
  <course>12.68</course>
  <speed>0.022360679774997897</speed>
  <fix>3d</fix>
</trkpt>
<trkpt lat="40.0738605" lon="-105.2302299">
  <ele>1583.56</ele>
  <time>2026-08-28T19:08:19Z</time>
  <course>269.26</course>
  <speed>0.0</speed>
  <fix>3d</fix>
</trkpt>
<trkpt lat="40.0738604" lon="-105.2302298">
  <ele>1583.67</ele>
  <time>2026-08-28T19:08:19Z</time>
  <course>12.63</course>
  <speed>0.022360679774997897</speed>
  <fix>3d</fix>
</trkpt>
<trkpt lat="40.0738605" lon="-105.2302299">
  <ele>1583.56</ele>
  <time>2026-08-28T19:08:19Z</time>
  <course>269.98</course>
  <speed>0.0</speed>
  <fix>3d</fix>
</trkpt>
<trkpt lat="40.0738604" lon="-105.2302298">
  <ele>1583.67</ele>
  <time>2026-08-28T19:08:19Z</time>
  <course>12.59</course>
  <speed>0.022360679774997897</speed>
  <fix>3d</fix>
</trkpt>
<trkpt lat="40.0738605" lon="-105.2302299">
  <ele>1583.56</ele>
  <time>2026-08-28T19:08:19Z</time>
  <course>270.4</course>
  <speed>0.0</speed>
  <fix>3d</fix>
</trkpt>
<trkpt lat="40.0738604" lon="-105.2302298">
  <ele>1583.67</ele>
  <time>2026-08-28T19:08:19Z</time>
  <course>12.55</course>
  <speed>0.022360679774997897</speed>
  <fix>3d</fix>
</trkpt>
<trkpt lat="40.0738605" lon="-105.2302299">
  <ele>1583.56</ele>
  <time>2026-08-28T19:08:19Z</time>
  <course>270.0</course>
  <speed>0.0</speed>
  <fix>3d</fix>
</trkpt>
<trkpt lat="40.0738604" lon="-105.2302298">
  <ele>1583.67</ele>
  <time>2026-08-28T19:08:19Z</time>
  <course>12.51</course>
  <speed>0.022360679774997897</speed>
  <fix>3d</fix>
</trkpt>
<trkpt lat="40.0738605" lon="-105.2302299">
  <ele>1583.56</ele>
  <time>2026-08-28T19:08:19Z</time>
  <course>270.3</course>
  <speed>0.0</speed>
  <fix>3d</fix>
</trkpt>
<trkpt lat="40.0738604" lon="-105.2302298">
  <ele>1583.67</ele>
  <time>2026-08-28T19:08:19Z</time>
  <course>12.47</course>
  <speed>0.022360679774997897</speed>
  <fix>3d</fix>
</trkpt>
<trkpt lat="40.0738605" lon="-105.2302299">
  <ele>1583.56</ele>
  <time>2026-08-28T19:08:19Z</time>
  <course>267.26</course>
  <speed>0.0</speed>
  <fix>3d</fix>
</trkpt>
<trkpt lat="40.0738604" lon="-105.2302298">
  <ele>1583.67</ele>
  <time>2026-08-28T19:08:19Z</time>
  <course>12.43</course>
  <speed>0.022360679774997897</speed>
  <fix>3d</fix>
</trkpt>
<trkpt lat="40.0738605" lon="-105.2302299">
  <ele>1583.56</ele>
  <time>2026-08-28T19:08:19Z</time>
  <course>269.19</course>
  <speed>0.0</speed>
  <fix>3d</fix>
</trkpt>
<trkpt lat="40.0738604" lon="-105.2302298">
  <ele>1583.66</ele>
  <time>2026-08-28T19:08:19Z</time>
  <course>12.39</course>
  <speed>0.022360679774997897</speed>
  <fix>3d</fix>
</trkpt>
<trkpt lat="40.0738605" lon="-105.2302299">
  <ele>1583.56</ele>
  <time>2026-08-28T19:08:19Z</time>
  <course>269.37</course>
  <speed>0.0</speed>
  <fix>3d</fix>
</trkpt>
<trkpt lat="40.0738604" lon="-105.2302298">
  <ele>1583.66</ele>
  <time>2026-08-28T19:08:19Z</time>
  <course>12.36</course>
  <speed>0.022360679774997897</speed>
  <fix>3d</fix>
</trkpt>
<trkpt lat="40.0738605" lon="-105.2302299">
  <ele>1583.56</ele>
  <time>2026-08-28T19:08:19Z</time>
  <course>269.53</course>
  <speed>0.0</speed>
  <fix>3d</fix>
</trkpt>
<trkpt lat="40.0738604" lon="-105.2302298">
  <ele>1583.66</ele>
  <time>2026-08-28T19:08:19Z</time>
  <course>12.32</course>
  <speed>0.022360679774997897</speed>
  <fix>3d</fix>
</trkpt>
<trkpt lat="40.0738605" lon="-105.2302299">
  <ele>1583.56</ele>
  <time>2026-08-28T19:08:19Z</time>
  <course>270.11</course>
  <speed>0.0</speed>
  <fix>3d</fix>
</trkpt>
<trkpt lat="40.0738604" lon="-105.2302298">
  <ele>1583.66</ele>
  <time>2026-08-28T19:08:19Z</time>
  <course>12.28</course>
  <speed>0.022360679774997897</speed>
  <fix>3d</fix>
</trkpt>
<trkpt lat="40.0738605" lon="-105.2302299">
  <ele>1583.56</ele>
  <time>2026-08-28T19:08:19Z</time>
  <course>266.54</course>
  <speed>0.0</speed>
  <fix>3d</fix>
</trkpt>
<trkpt lat="40.0738604" lon="-105.2302298">
  <ele>1583.66</ele>
  <time>2026-08-28T19:08:19Z</time>
  <course>12.24</course>
  <speed>0.022360679774997897</speed>
  <fix>3d</fix>
</trkpt>
<trkpt lat="40.0738605" lon="-105.2302299">
  <ele>1583.56</ele>
  <time>2026-08-28T19:08:19Z</time>
  <course>269.43</course>
  <speed>0.0</speed>
  <fix>3d</fix>
</trkpt>
<trkpt lat="40.0738604" lon="-105.2302298">
  <ele>1583.65</ele>
  <time>2026-08-28T19:08:19Z</time>
  <course>12.21</course>
  <speed>0.022360679774997897</speed>
  <fix>3d</fix>
</trkpt>
<trkpt lat="40.0738605" lon="-105.2302299">
  <ele>1583.56</ele>
  <time>2026-08-28T19:08:19Z</time>
  <course>269.85</course>
  <speed>0.0</speed>
  <fix>3d</fix>
</trkpt>
<trkpt lat="40.0738604" lon="-105.2302298">
  <ele>1583.65</ele>
  <time>2026-08-28T19:08:19Z</time>
  <course>12.17</course>
  <speed>0.022360679774997897</speed>
  <fix>3d</fix>
</trkpt>
<trkpt lat="40.0738605" lon="-105.2302299">
  <ele>1583.56</ele>
  <time>2026-08-28T19:08:19Z</time>
  <course>267.43</course>
  <speed>0.0</speed>
  <fix>3d</fix>
</trkpt>
<trkpt lat="40.0738604" lon="-105.2302298">
  <ele>1583.65</ele>
  <time>2026-08-28T19:08:19Z</time>
  <course>12.13</course>
  <speed>0.022360679774997897</speed>
  <fix>3d</fix>
</trkpt>
<trkpt lat="40.0738605" lon="-105.2302299">
  <ele>1583.56</ele>
  <time>2026-08-28T19:08:19Z</time>
  <course>269.36</course>
  <speed>0.0</speed>
  <fix>3d</fix>
</trkpt>
<trkpt lat="40.0738604" lon="-105.2302298">
  <ele>1583.65</ele>
  <time>2026-08-28T19:08:19Z</time>
  <course>12.1</course>
  <speed>0.022360679774997897</speed>
  <fix>3d</fix>
</trkpt>
<trkpt lat="40.0738605" lon="-105.2302299">
  <ele>1583.56</ele>
  <time>2026-08-28T19:08:19Z</time>
  <course>268.75</course>
  <speed>0.0</speed>
  <fix>3d</fix>
</trkpt>
<trkpt lat="40.0738604" lon="-105.2302298">
  <ele>1583.65</ele>
  <time>2026-08-28T19:08:19Z</time>
  <course>12.06</course>
  <speed>0.022360679774997897</speed>
  <fix>3d</fix>
</trkpt>
<trkpt lat="40.0738605" lon="-105.2302299">
  <ele>1583.56</ele>
  <time>2026-08-28T19:08:19Z</time>
  <course>268.91</course>
  <speed>0.0</speed>
  <fix>3d</fix>
</trkpt>
<trkpt lat="40.0738604" lon="-105.2302298">
  <ele>1583.65</ele>
  <time>2026-08-28T19:08:19Z</time>
  <course>12.03</course>
  <speed>0.022360679774997897</speed>
  <fix>3d</fix>
</trkpt>
<trkpt lat="40.0738605" lon="-105.2302299">
  <ele>1583.56</ele>
  <time>2026-08-28T19:08:19Z</time>
  <course>269.74</course>
  <speed>0.0</speed>
  <fix>3d</fix>
</trkpt>
<trkpt lat="40.0738604" lon="-105.2302298">
  <ele>1583.65</ele>
  <time>2026-08-28T19:08:19Z</time>
  <course>11.99</course>
  <speed>0.022360679774997897</speed>
  <fix>3d</fix>
</trkpt>
<trkpt lat="40.0738605" lon="-105.2302299">
  <ele>1583.56</ele>
  <time>2026-08-28T19:08:19Z</time>
  <course>267.39</course>
  <speed>0.0</speed>
  <fix>3d</fix>
</trkpt>
<trkpt lat="40.0738604" lon="-105.2302298">
  <ele>1583.65</ele>
  <time>2026-08-28T19:08:19Z</time>
  <course>11.96</course>
  <speed>0.022360679774997897</speed>
  <fix>3d</fix>
</trkpt>
<trkpt lat="40.0738605" lon="-105.2302299">
  <ele>1583.56</ele>
  <time>2026-08-28T19:08:19Z</time>
  <course>269.08</course>
  <speed>0.0</speed>
  <fix>3d</fix>
</trkpt>
<trkpt lat="40.0738604" lon="-105.2302298">
  <ele>1583.65</ele>
  <time>2026-08-28T19:08:19Z</time>
  <course>11.92</course>
  <speed>0.022360679774997897</speed>
  <fix>3d</fix>
</trkpt>
<trkpt lat="40.0738605" lon="-105.2302299">
  <ele>1583.56</ele>
  <time>2026-08-28T19:08:19Z</time>
  <course>269.58</course>
  <speed>0.0</speed>
  <fix>3d</fix>
</trkpt>
<trkpt lat="40.0738604" lon="-105.2302298">
  <ele>1583.65</ele>
  <time>2026-08-28T19:08:19Z</time>
  <course>11.89</course>
  <speed>0.022360679774997897</speed>
  <fix>3d</fix>
</trkpt>
<trkpt lat="40.0738605" lon="-105.2302299">
  <ele>1583.56</ele>
  <time>2026-08-28T19:08:19Z</time>
  <course>265.74</course>
  <speed>0.0</speed>
  <fix>3d</fix>
</trkpt>
<trkpt lat="40.0738604" lon="-105.2302298">
  <ele>1583.65</ele>
  <time>2026-08-28T19:08:19Z</time>
  <course>11.86</course>
  <speed>0.022360679774997897</speed>
  <fix>3d</fix>
</trkpt>
<trkpt lat="40.0738605" lon="-105.2302299">
  <ele>1583.56</ele>
  <time>2026-08-28T19:08:19Z</time>
  <course>268.89</course>
  <speed>0.0</speed>
  <fix>3d</fix>
</trkpt>
<trkpt lat="40.0738604" lon="-105.2302298">
  <ele>1583.65</ele>
  <time>2026-08-28T19:08:19Z</time>
  <course>11.82</course>
  <speed>0.022360679774997897</speed>
  <fix>3d</fix>
</trkpt>
<trkpt lat="40.0738605" lon="-105.2302299">
  <ele>1583.56</ele>
  <time>2026-08-28T19:08:19Z</time>
  <course>269.55</course>
  <speed>0.0</speed>
  <fix>3d</fix>
</trkpt>
<trkpt lat="40.0738604" lon="-105.2302298">
  <ele>1583.65</ele>
  <time>2026-08-28T19:08:19Z</time>
  <course>11.79</course>
  <speed>0.022360679774997897</speed>
  <fix>3d</fix>
</trkpt>
<trkpt lat="40.0738605" lon="-105.2302299">
  <ele>1583.56</ele>
  <time>2026-08-28T19:08:19Z</time>
  <course>266.82</course>
  <speed>0.0</speed>
  <fix>3d</fix>
</trkpt>
<trkpt lat="40.0738604" lon="-105.2302298">
  <ele>1583.65</ele>
  <time>2026-08-28T19:08:19Z</time>
  <course>11.76</course>
  <speed>0.022360679774997897</speed>
  <fix>3d</fix>
</trkpt>
<trkpt lat="40.0738605" lon="-105.2302299">
  <ele>1583.56</ele>
  <time>2026-08-28T19:08:19Z</time>
  <course>268.82</course>
  <speed>0.0</speed>
  <fix>3d</fix>
</trkpt>
<trkpt lat="40.0738604" lon="-105.2302298">
  <ele>1583.65</ele>
  <time>2026-08-28T19:08:19Z</time>
  <course>11.73</course>
  <speed>0.022360679774997897</speed>
  <fix>3d</fix>
</trkpt>
<trkpt lat="40.0738605" lon="-105.2302299">
  <ele>1583.56</ele>
  <time>2026-08-28T19:08:19Z</time>
  <course>269.39</course>
  <speed>0.0</speed>
  <fix>3d</fix>
</trkpt>
<trkpt lat="40.0738604" lon="-105.2302298">
  <ele>1583.65</ele>
  <time>2026-08-28T19:08:19Z</time>
  <course>11.7</course>
  <speed>0.022360679774997897</speed>
  <fix>3d</fix>
</trkpt>
<trkpt lat="40.0738605" lon="-105.2302299">
  <ele>1583.56</ele>
  <time>2026-08-28T19:08:19Z</time>
  <course>266.39</course>
  <speed>0.0</speed>
  <fix>3d</fix>
</trkpt>
<trkpt lat="40.0738604" lon="-105.2302298">
  <ele>1583.65</ele>
  <time>2026-08-28T19:08:19Z</time>
  <course>11.67</course>
  <speed>0.022360679774997897</speed>
  <fix>3d</fix>
</trkpt>
<trkpt lat="40.0738605" lon="-105.2302299">
  <ele>1583.56</ele>
  <time>2026-08-28T19:08:19Z</time>
  <course>268.69</course>
  <speed>0.0</speed>
  <fix>3d</fix>
</trkpt>
<trkpt lat="40.0738604" lon="-105.2302298">
  <ele>1583.65</ele>
  <time>2026-08-28T19:08:19Z</time>
  <course>11.63</course>
  <speed>0.022360679774997897</speed>
  <fix>3d</fix>
</trkpt>
<trkpt lat="40.0738605" lon="-105.2302299">
  <ele>1583.56</ele>
  <time>2026-08-28T19:08:19Z</time>
  <course>269.3</course>
  <speed>0.0</speed>
  <fix>3d</fix>
</trkpt>
<trkpt lat="40.0738604" lon="-105.2302298">
  <ele>1583.65</ele>
  <time>2026-08-28T19:08:19Z</time>
  <course>11.6</course>
  <speed>0.022360679774997897</speed>
  <fix>3d</fix>
</trkpt>
<trkpt lat="40.0738605" lon="-105.2302299">
  <ele>1583.56</ele>
  <time>2026-08-28T19:08:19Z</time>
  <course>266.7</course>
  <speed>0.0</speed>
  <fix>3d</fix>
</trkpt>
<trkpt lat="40.0738604" lon="-105.2302298">
  <ele>1583.64</ele>
  <time>2026-08-28T19:08:19Z</time>
  <course>11.57</course>
  <speed>0.022360679774997897</speed>
  <fix>3d</fix>
</trkpt>
<trkpt lat="40.0738605" lon="-105.2302299">
  <ele>1583.56</ele>
  <time>2026-08-28T19:08:19Z</time>
  <course>267.97</course>
  <speed>0.0</speed>
  <fix>3d</fix>
</trkpt>
<trkpt lat="40.0738604" lon="-105.2302298">
  <ele>1583.64</ele>
  <time>2026-08-28T19:08:19Z</time>
  <course>11.54</course>
  <speed>0.022360679774997897</speed>
  <fix>3d</fix>
</trkpt>
<trkpt lat="40.0738605" lon="-105.2302299">
  <ele>1583.56</ele>
  <time>2026-08-28T19:08:19Z</time>
  <course>269.12</course>
  <speed>0.0</speed>
  <fix>3d</fix>
</trkpt>
<trkpt lat="40.0738604" lon="-105.2302298">
  <ele>1583.64</ele>
  <time>2026-08-28T19:08:19Z</time>
  <course>11.52</course>
  <speed>0.022360679774997897</speed>
  <fix>3d</fix>
</trkpt>
<trkpt lat="40.0738605" lon="-105.2302299">
  <ele>1583.56</ele>
  <time>2026-08-28T19:08:19Z</time>
  <course>267.69</course>
  <speed>0.0</speed>
  <fix>3d</fix>
</trkpt>
<trkpt lat="40.0738604" lon="-105.2302298">
  <ele>1583.64</ele>
  <time>2026-08-28T19:08:19Z</time>
  <course>11.49</course>
  <speed>0.022360679774997897</speed>
  <fix>3d</fix>
</trkpt>
<trkpt lat="40.0738605" lon="-105.2302299">
  <ele>1583.56</ele>
  <time>2026-08-28T19:08:19Z</time>
  <course>263.05</course>
  <speed>0.0</speed>
  <fix>3d</fix>
</trkpt>
<trkpt lat="40.0738604" lon="-105.2302298">
  <ele>1583.64</ele>
  <time>2026-08-28T19:08:20Z</time>
  <course>11.46</course>
  <speed>0.022360679774997897</speed>
  <fix>3d</fix>
</trkpt>
<trkpt lat="40.0738605" lon="-105.2302299">
  <ele>1583.56</ele>
  <time>2026-08-28T19:08:20Z</time>
  <course>268.75</course>
  <speed>0.0</speed>
  <fix>3d</fix>
</trkpt>
<trkpt lat="40.0738604" lon="-105.2302298">
  <ele>1583.64</ele>
  <time>2026-08-28T19:08:20Z</time>
  <course>11.43</course>
  <speed>0.022360679774997897</speed>
  <fix>3d</fix>
</trkpt>
<trkpt lat="40.0738605" lon="-105.2302299">
  <ele>1583.56</ele>
  <time>2026-08-28T19:08:20Z</time>
  <course>268.93</course>
  <speed>0.0</speed>
  <fix>3d</fix>
</trkpt>
<trkpt lat="40.0738604" lon="-105.2302298">
  <ele>1583.64</ele>
  <time>2026-08-28T19:08:20Z</time>
  <course>11.4</course>
  <speed>0.022360679774997897</speed>
  <fix>3d</fix>
</trkpt>
<trkpt lat="40.0738605" lon="-105.2302299">
  <ele>1583.56</ele>
  <time>2026-08-28T19:08:20Z</time>
  <course>265.37</course>
  <speed>0.0</speed>
  <fix>3d</fix>
</trkpt>
<trkpt lat="40.0738604" lon="-105.2302298">
  <ele>1583.64</ele>
  <time>2026-08-28T19:08:20Z</time>
  <course>11.37</course>
  <speed>0.022360679774997897</speed>
  <fix>3d</fix>
</trkpt>
<trkpt lat="40.0738605" lon="-105.2302299">
  <ele>1583.56</ele>
  <time>2026-08-28T19:08:20Z</time>
  <course>268.0</course>
  <speed>0.0</speed>
  <fix>3d</fix>
</trkpt>
<trkpt lat="40.0738604" lon="-105.2302298">
  <ele>1583.64</ele>
  <time>2026-08-28T19:08:20Z</time>
  <course>11.34</course>
  <speed>0.022360679774997897</speed>
  <fix>3d</fix>
</trkpt>
<trkpt lat="40.0738605" lon="-105.2302299">
  <ele>1583.56</ele>
  <time>2026-08-28T19:08:20Z</time>
  <course>268.92</course>
  <speed>0.0</speed>
  <fix>3d</fix>
</trkpt>
<trkpt lat="40.0738604" lon="-105.2302298">
  <ele>1583.64</ele>
  <time>2026-08-28T19:08:20Z</time>
  <course>11.32</course>
  <speed>0.022360679774997897</speed>
  <fix>3d</fix>
</trkpt>
<trkpt lat="40.0738605" lon="-105.2302299">
  <ele>1583.56</ele>
  <time>2026-08-28T19:08:20Z</time>
  <course>267.44</course>
  <speed>0.0</speed>
  <fix>3d</fix>
</trkpt>
<trkpt lat="40.0738604" lon="-105.2302298">
  <ele>1583.64</ele>
  <time>2026-08-28T19:08:20Z</time>
  <course>11.29</course>
  <speed>0.022360679774997897</speed>
  <fix>3d</fix>
</trkpt>
<trkpt lat="40.0738605" lon="-105.2302299">
  <ele>1583.56</ele>
  <time>2026-08-28T19:08:20Z</time>
  <course>263.68</course>
  <speed>0.0</speed>
  <fix>3d</fix>
</trkpt>
<trkpt lat="40.0738604" lon="-105.2302298">
  <ele>1583.64</ele>
  <time>2026-08-28T19:08:20Z</time>
  <course>11.26</course>
  <speed>0.022360679774997897</speed>
  <fix>3d</fix>
</trkpt>
<trkpt lat="40.0738605" lon="-105.2302299">
  <ele>1583.56</ele>
  <time>2026-08-28T19:08:20Z</time>
  <course>268.52</course>
  <speed>0.0</speed>
  <fix>3d</fix>
</trkpt>
<trkpt lat="40.0738604" lon="-105.2302298">
  <ele>1583.64</ele>
  <time>2026-08-28T19:08:20Z</time>
  <course>11.24</course>
  <speed>0.022360679774997897</speed>
  <fix>3d</fix>
</trkpt>
<trkpt lat="40.0738605" lon="-105.2302299">
  <ele>1583.56</ele>
  <time>2026-08-28T19:08:20Z</time>
  <course>268.64</course>
  <speed>0.0</speed>
  <fix>3d</fix>
</trkpt>
<trkpt lat="40.0738604" lon="-105.2302298">
  <ele>1583.63</ele>
  <time>2026-08-28T19:08:20Z</time>
  <course>11.21</course>
  <speed>0.022360679774997897</speed>
  <fix>3d</fix>
</trkpt>
<trkpt lat="40.0738605" lon="-105.2302299">
  <ele>1583.56</ele>
  <time>2026-08-28T19:08:20Z</time>
  <course>265.24</course>
  <speed>0.0</speed>
  <fix>3d</fix>
</trkpt>
<trkpt lat="40.0738604" lon="-105.2302298">
  <ele>1583.63</ele>
  <time>2026-08-28T19:08:20Z</time>
  <course>11.18</course>
  <speed>0.022360679774997897</speed>
  <fix>3d</fix>
</trkpt>
<trkpt lat="40.0738605" lon="-105.2302299">
  <ele>1583.56</ele>
  <time>2026-08-28T19:08:20Z</time>
  <course>266.84</course>
  <speed>0.0</speed>
  <fix>3d</fix>
</trkpt>
<trkpt lat="40.0738604" lon="-105.2302298">
  <ele>1583.63</ele>
  <time>2026-08-28T19:08:20Z</time>
  <course>11.16</course>
  <speed>0.022360679774997897</speed>
  <fix>3d</fix>
</trkpt>
<trkpt lat="40.0738605" lon="-105.2302299">
  <ele>1583.56</ele>
  <time>2026-08-28T19:08:20Z</time>
  <course>268.5</course>
  <speed>0.0</speed>
  <fix>3d</fix>
</trkpt>
<trkpt lat="40.0738604" lon="-105.2302298">
  <ele>1583.63</ele>
  <time>2026-08-28T19:08:20Z</time>
  <course>11.13</course>
  <speed>0.022360679774997897</speed>
  <fix>3d</fix>
</trkpt>
<trkpt lat="40.0738605" lon="-105.2302299">
  <ele>1583.56</ele>
  <time>2026-08-28T19:08:20Z</time>
  <course>267.81</course>
  <speed>0.0</speed>
  <fix>3d</fix>
</trkpt>
<trkpt lat="40.0738604" lon="-105.2302298">
  <ele>1583.63</ele>
  <time>2026-08-28T19:08:20Z</time>
  <course>11.11</course>
  <speed>0.022360679774997897</speed>
  <fix>3d</fix>
</trkpt>
<trkpt lat="40.0738605" lon="-105.2302299">
  <ele>1583.56</ele>
  <time>2026-08-28T19:08:20Z</time>
  <course>264.18</course>
  <speed>0.0</speed>
  <fix>3d</fix>
</trkpt>
<trkpt lat="40.0738604" lon="-105.2302298">
  <ele>1583.63</ele>
  <time>2026-08-28T19:08:20Z</time>
  <course>11.08</course>
  <speed>0.022360679774997897</speed>
  <fix>3d</fix>
</trkpt>
<trkpt lat="40.0738605" lon="-105.2302299">
  <ele>1583.56</ele>
  <time>2026-08-28T19:08:20Z</time>
  <course>260.14</course>
  <speed>0.0</speed>
  <fix>3d</fix>
</trkpt>
<trkpt lat="40.0738604" lon="-105.2302298">
  <ele>1583.63</ele>
  <time>2026-08-28T19:08:20Z</time>
  <course>11.06</course>
  <speed>0.022360679774997897</speed>
  <fix>3d</fix>
</trkpt>
<trkpt lat="40.0738605" lon="-105.2302299">
  <ele>1583.56</ele>
  <time>2026-08-28T19:08:20Z</time>
  <course>266.53</course>
  <speed>0.0</speed>
  <fix>3d</fix>
</trkpt>
<trkpt lat="40.0738604" lon="-105.2302298">
  <ele>1583.63</ele>
  <time>2026-08-28T19:08:20Z</time>
  <course>11.03</course>
  <speed>0.022360679774997897</speed>
  <fix>3d</fix>
</trkpt>
<trkpt lat="40.0738605" lon="-105.2302299">
  <ele>1583.56</ele>
  <time>2026-08-28T19:08:20Z</time>
  <course>269.18</course>
  <speed>0.0</speed>
  <fix>3d</fix>
</trkpt>
<trkpt lat="40.0738604" lon="-105.2302298">
  <ele>1583.63</ele>
  <time>2026-08-28T19:08:20Z</time>
  <course>11.01</course>
  <speed>0.022360679774997897</speed>
  <fix>3d</fix>
</trkpt>
<trkpt lat="40.0738605" lon="-105.2302299">
  <ele>1583.56</ele>
  <time>2026-08-28T19:08:20Z</time>
  <course>267.56</course>
  <speed>0.0</speed>
  <fix>3d</fix>
</trkpt>
<trkpt lat="40.0738604" lon="-105.2302298">
  <ele>1583.63</ele>
  <time>2026-08-28T19:08:20Z</time>
  <course>10.98</course>
  <speed>0.022360679774997897</speed>
  <fix>3d</fix>
</trkpt>
<trkpt lat="40.0738605" lon="-105.2302299">
  <ele>1583.56</ele>
  <time>2026-08-28T19:08:20Z</time>
  <course>266.52</course>
  <speed>0.0</speed>
  <fix>3d</fix>
</trkpt>
<trkpt lat="40.0738604" lon="-105.2302298">
  <ele>1583.63</ele>
  <time>2026-08-28T19:08:20Z</time>
  <course>10.96</course>
  <speed>0.022360679774997897</speed>
  <fix>3d</fix>
</trkpt>
<trkpt lat="40.0738605" lon="-105.2302299">
  <ele>1583.56</ele>
  <time>2026-08-28T19:08:20Z</time>
  <course>268.07</course>
  <speed>0.0</speed>
  <fix>3d</fix>
</trkpt>
<trkpt lat="40.0738604" lon="-105.2302298">
  <ele>1583.62</ele>
  <time>2026-08-28T19:08:20Z</time>
  <course>10.94</course>
  <speed>0.022360679774997897</speed>
  <fix>3d</fix>
</trkpt>
<trkpt lat="40.0738605" lon="-105.2302299">
  <ele>1583.56</ele>
  <time>2026-08-28T19:08:20Z</time>
  <course>267.79</course>
  <speed>0.0</speed>
  <fix>3d</fix>
</trkpt>
<trkpt lat="40.0738604" lon="-105.2302298">
  <ele>1583.62</ele>
  <time>2026-08-28T19:08:20Z</time>
  <course>10.91</course>
  <speed>0.022360679774997897</speed>
  <fix>3d</fix>
</trkpt>
<trkpt lat="40.0738605" lon="-105.2302299">
  <ele>1583.56</ele>
  <time>2026-08-28T19:08:20Z</time>
  <course>264.65</course>
  <speed>0.0</speed>
  <fix>3d</fix>
</trkpt>
<trkpt lat="40.0738604" lon="-105.2302298">
  <ele>1583.62</ele>
  <time>2026-08-28T19:08:20Z</time>
  <course>10.89</course>
  <speed>0.01414213562373095</speed>
  <fix>3d</fix>
</trkpt>
<trkpt lat="40.0738605" lon="-105.2302299">
  <ele>1583.56</ele>
  <time>2026-08-28T19:08:20Z</time>
  <course>265.59</course>
  <speed>0.0</speed>
  <fix>3d</fix>
</trkpt>
<trkpt lat="40.0738604" lon="-105.2302298">
  <ele>1583.63</ele>
  <time>2026-08-28T19:08:20Z</time>
  <course>10.87</course>
  <speed>0.01414213562373095</speed>
  <fix>3d</fix>
</trkpt>
<trkpt lat="40.0738605" lon="-105.2302299">
  <ele>1583.56</ele>
  <time>2026-08-28T19:08:20Z</time>
  <course>268.03</course>
  <speed>0.0</speed>
  <fix>3d</fix>
</trkpt>
<trkpt lat="40.0738604" lon="-105.2302298">
  <ele>1583.63</ele>
  <time>2026-08-28T19:08:20Z</time>
  <course>10.84</course>
  <speed>0.01414213562373095</speed>
  <fix>3d</fix>
</trkpt>
<trkpt lat="40.0738605" lon="-105.2302299">
  <ele>1583.56</ele>
  <time>2026-08-28T19:08:20Z</time>
  <course>267.93</course>
  <speed>0.0</speed>
  <fix>3d</fix>
</trkpt>
<trkpt lat="40.0738604" lon="-105.2302298">
  <ele>1583.63</ele>
  <time>2026-08-28T19:08:20Z</time>
  <course>10.82</course>
  <speed>0.01414213562373095</speed>
  <fix>3d</fix>
</trkpt>
<trkpt lat="40.0738605" lon="-105.2302299">
  <ele>1583.56</ele>
  <time>2026-08-28T19:08:20Z</time>
  <course>264.95</course>
  <speed>0.0</speed>
  <fix>3d</fix>
</trkpt>
<trkpt lat="40.0738604" lon="-105.2302298">
  <ele>1583.63</ele>
  <time>2026-08-28T19:08:20Z</time>
  <course>10.8</course>
  <speed>0.01414213562373095</speed>
  <fix>3d</fix>
</trkpt>
<trkpt lat="40.0738605" lon="-105.2302299">
  <ele>1583.56</ele>
  <time>2026-08-28T19:08:20Z</time>
  <course>265.5</course>
  <speed>0.0</speed>
  <fix>3d</fix>
</trkpt>
<trkpt lat="40.0738604" lon="-105.2302298">
  <ele>1583.63</ele>
  <time>2026-08-28T19:08:20Z</time>
  <course>10.77</course>
  <speed>0.01414213562373095</speed>
  <fix>3d</fix>
</trkpt>
<trkpt lat="40.0738605" lon="-105.2302299">
  <ele>1583.56</ele>
  <time>2026-08-28T19:08:20Z</time>
  <course>268.08</course>
  <speed>0.0</speed>
  <fix>3d</fix>
</trkpt>
<trkpt lat="40.0738604" lon="-105.2302298">
  <ele>1583.62</ele>
  <time>2026-08-28T19:08:20Z</time>
  <course>10.75</course>
  <speed>0.01414213562373095</speed>
  <fix>3d</fix>
</trkpt>
<trkpt lat="40.0738605" lon="-105.2302299">
  <ele>1583.56</ele>
  <time>2026-08-28T19:08:20Z</time>
  <course>268.11</course>
  <speed>0.0</speed>
  <fix>3d</fix>
</trkpt>
<trkpt lat="40.0738604" lon="-105.2302298">
  <ele>1583.62</ele>
  <time>2026-08-28T19:08:20Z</time>
  <course>10.73</course>
  <speed>0.01414213562373095</speed>
  <fix>3d</fix>
</trkpt>
<trkpt lat="40.0738605" lon="-105.2302299">
  <ele>1583.56</ele>
  <time>2026-08-28T19:08:20Z</time>
  <course>265.58</course>
  <speed>0.0</speed>
  <fix>3d</fix>
</trkpt>
<trkpt lat="40.0738604" lon="-105.2302298">
  <ele>1583.63</ele>
  <time>2026-08-28T19:08:20Z</time>
  <course>10.71</course>
  <speed>0.01414213562373095</speed>
  <fix>3d</fix>
</trkpt>
<trkpt lat="40.0738605" lon="-105.2302299">
  <ele>1583.56</ele>
  <time>2026-08-28T19:08:20Z</time>
  <course>265.3</course>
  <speed>0.0</speed>
  <fix>3d</fix>
</trkpt>
<trkpt lat="40.0738604" lon="-105.2302298">
  <ele>1583.63</ele>
  <time>2026-08-28T19:08:20Z</time>
  <course>10.68</course>
  <speed>0.01414213562373095</speed>
  <fix>3d</fix>
</trkpt>
<trkpt lat="40.0738605" lon="-105.2302299">
  <ele>1583.56</ele>
  <time>2026-08-28T19:08:20Z</time>
  <course>266.13</course>
  <speed>0.0</speed>
  <fix>3d</fix>
</trkpt>
<trkpt lat="40.0738604" lon="-105.2302298">
  <ele>1583.63</ele>
  <time>2026-08-28T19:08:20Z</time>
  <course>10.66</course>
  <speed>0.01414213562373095</speed>
  <fix>3d</fix>
</trkpt>
<trkpt lat="40.0738605" lon="-105.2302299">
  <ele>1583.56</ele>
  <time>2026-08-28T19:08:20Z</time>
  <course>267.75</course>
  <speed>0.0</speed>
  <fix>3d</fix>
</trkpt>
<trkpt lat="40.0738604" lon="-105.2302298">
  <ele>1583.63</ele>
  <time>2026-08-28T19:08:20Z</time>
  <course>10.64</course>
  <speed>0.01414213562373095</speed>
  <fix>3d</fix>
</trkpt>
<trkpt lat="40.0738605" lon="-105.2302299">
  <ele>1583.56</ele>
  <time>2026-08-28T19:08:20Z</time>
  <course>267.6</course>
  <speed>0.0</speed>
  <fix>3d</fix>
</trkpt>
<trkpt lat="40.0738604" lon="-105.2302298">
  <ele>1583.63</ele>
  <time>2026-08-28T19:08:20Z</time>
  <course>10.62</course>
  <speed>0.01414213562373095</speed>
  <fix>3d</fix>
</trkpt>
<trkpt lat="40.0738605" lon="-105.2302299">
  <ele>1583.56</ele>
  <time>2026-08-28T19:08:20Z</time>
  <course>265.04</course>
  <speed>0.0</speed>
  <fix>3d</fix>
</trkpt>
<trkpt lat="40.0738604" lon="-105.2302298">
  <ele>1583.63</ele>
  <time>2026-08-28T19:08:20Z</time>
  <course>10.6</course>
  <speed>0.01414213562373095</speed>
  <fix>3d</fix>
</trkpt>
<trkpt lat="40.0738605" lon="-105.2302299">
  <ele>1583.56</ele>
  <time>2026-08-28T19:08:20Z</time>
  <course>265.67</course>
  <speed>0.0</speed>
  <fix>3d</fix>
</trkpt>
<trkpt lat="40.0738604" lon="-105.2302298">
  <ele>1583.63</ele>
  <time>2026-08-28T19:08:20Z</time>
  <course>10.57</course>
  <speed>0.01414213562373095</speed>
  <fix>3d</fix>
</trkpt>
<trkpt lat="40.0738605" lon="-105.2302299">
  <ele>1583.56</ele>
  <time>2026-08-28T19:08:20Z</time>
  <course>267.9</course>
  <speed>0.0</speed>
  <fix>3d</fix>
</trkpt>
<trkpt lat="40.0738604" lon="-105.2302298">
  <ele>1583.63</ele>
  <time>2026-08-28T19:08:20Z</time>
  <course>10.55</course>
  <speed>0.01414213562373095</speed>
  <fix>3d</fix>
</trkpt>
<trkpt lat="40.0738605" lon="-105.2302299">
  <ele>1583.56</ele>
  <time>2026-08-28T19:08:20Z</time>
  <course>268.01</course>
  <speed>0.0</speed>
  <fix>3d</fix>
</trkpt>
<trkpt lat="40.0738604" lon="-105.2302298">
  <ele>1583.63</ele>
  <time>2026-08-28T19:08:20Z</time>
  <course>10.53</course>
  <speed>0.01414213562373095</speed>
  <fix>3d</fix>
</trkpt>
<trkpt lat="40.0738605" lon="-105.2302299">
  <ele>1583.56</ele>
  <time>2026-08-28T19:08:20Z</time>
  <course>266.04</course>
  <speed>0.0</speed>
  <fix>3d</fix>
</trkpt>
<trkpt lat="40.0738604" lon="-105.2302298">
  <ele>1583.63</ele>
  <time>2026-08-28T19:08:20Z</time>
  <course>10.51</course>
  <speed>0.01414213562373095</speed>
  <fix>3d</fix>
</trkpt>
<trkpt lat="40.0738605" lon="-105.2302299">
  <ele>1583.56</ele>
  <time>2026-08-28T19:08:20Z</time>
  <course>265.26</course>
  <speed>0.0</speed>
  <fix>3d</fix>
</trkpt>
<trkpt lat="40.0738604" lon="-105.2302298">
  <ele>1583.63</ele>
  <time>2026-08-28T19:08:20Z</time>
  <course>10.49</course>
  <speed>0.01</speed>
  <fix>3d</fix>
</trkpt>
<trkpt lat="40.0738605" lon="-105.2302299">
  <ele>1583.56</ele>
  <time>2026-08-28T19:08:20Z</time>
  <course>266.04</course>
  <speed>0.0</speed>
  <fix>3d</fix>
</trkpt>
<trkpt lat="40.0738604" lon="-105.2302298">
  <ele>1583.63</ele>
  <time>2026-08-28T19:08:20Z</time>
  <course>10.47</course>
  <speed>0.01</speed>
  <fix>3d</fix>
</trkpt>
<trkpt lat="40.0738605" lon="-105.2302299">
  <ele>1583.56</ele>
  <time>2026-08-28T19:08:20Z</time>
  <course>267.58</course>
  <speed>0.0</speed>
  <fix>3d</fix>
</trkpt>
<trkpt lat="40.0738604" lon="-105.2302298">
  <ele>1583.63</ele>
  <time>2026-08-28T19:08:20Z</time>
  <course>10.45</course>
  <speed>0.01</speed>
  <fix>3d</fix>
</trkpt>
<trkpt lat="40.0738605" lon="-105.2302299">
  <ele>1583.56</ele>
  <time>2026-08-28T19:08:20Z</time>
  <course>267.79</course>
  <speed>0.0</speed>
  <fix>3d</fix>
</trkpt>
<trkpt lat="40.0738604" lon="-105.2302298">
  <ele>1583.63</ele>
  <time>2026-08-28T19:08:20Z</time>
  <course>10.43</course>
  <speed>0.01</speed>
  <fix>3d</fix>
</trkpt>
<trkpt lat="40.0738605" lon="-105.2302299">
  <ele>1583.56</ele>
  <time>2026-08-28T19:08:20Z</time>
  <course>265.15</course>
  <speed>0.0</speed>
  <fix>3d</fix>
</trkpt>
<trkpt lat="40.0738604" lon="-105.2302298">
  <ele>1583.64</ele>
  <time>2026-08-28T19:08:20Z</time>
  <course>10.43</course>
  <speed>0.01</speed>
  <fix>3d</fix>
</trkpt>
<trkpt lat="40.0738605" lon="-105.2302299">
  <ele>1583.56</ele>
  <time>2026-08-28T19:08:20Z</time>
  <course>264.02</course>
  <speed>0.0</speed>
  <fix>3d</fix>
</trkpt>
<trkpt lat="40.0738604" lon="-105.2302298">
  <ele>1583.64</ele>
  <time>2026-08-28T19:08:20Z</time>
  <course>10.41</course>
  <speed>0.01</speed>
  <fix>3d</fix>
</trkpt>
<trkpt lat="40.0738605" lon="-105.2302299">
  <ele>1583.56</ele>
  <time>2026-08-28T19:08:20Z</time>
  <course>263.84</course>
  <speed>0.0</speed>
  <fix>3d</fix>
</trkpt>
<trkpt lat="40.0738604" lon="-105.2302298">
  <ele>1583.64</ele>
  <time>2026-08-28T19:08:20Z</time>
  <course>10.41</course>
  <speed>0.01</speed>
  <fix>3d</fix>
</trkpt>
<trkpt lat="40.0738604" lon="-105.2302298">
  <ele>1583.64</ele>
  <time>2026-08-28T19:08:20Z</time>
  <course>10.39</course>
  <speed>0.01</speed>
  <fix>3d</fix>
</trkpt>
<trkpt lat="40.0738605" lon="-105.2302299">
  <ele>1583.56</ele>
  <time>2026-08-28T19:08:20Z</time>
  <course>264.41</course>
  <speed>0.0</speed>
  <fix>3d</fix>
</trkpt>
<trkpt lat="40.0738604" lon="-105.2302298">
  <ele>1583.64</ele>
  <time>2026-08-28T19:08:20Z</time>
  <course>10.39</course>
  <speed>0.01</speed>
  <fix>3d</fix>
</trkpt>
<trkpt lat="40.0738604" lon="-105.2302298">
  <ele>1583.64</ele>
  <time>2026-08-28T19:08:20Z</time>
  <course>10.35</course>
  <speed>0.01</speed>
  <fix>3d</fix>
</trkpt>
<trkpt lat="40.0738605" lon="-105.2302299">
  <ele>1583.56</ele>
  <time>2026-08-28T19:08:20Z</time>
  <course>264.48</course>
  <speed>0.0</speed>
  <fix>3d</fix>
</trkpt>
<trkpt lat="40.0738604" lon="-105.2302298">
  <ele>1583.64</ele>
  <time>2026-08-28T19:08:20Z</time>
  <course>10.35</course>
  <speed>0.01</speed>
  <fix>3d</fix>
</trkpt>
<trkpt lat="40.0738604" lon="-105.2302298">
  <ele>1583.66</ele>
  <time>2026-08-28T19:08:20Z</time>
  <course>10.3</course>
  <speed>0.01</speed>
  <fix>3d</fix>
</trkpt>
<trkpt lat="40.0738605" lon="-105.2302299">
  <ele>1583.56</ele>
  <time>2026-08-28T19:08:20Z</time>
  <course>264.32</course>
  <speed>0.0</speed>
  <fix>3d</fix>
</trkpt>
<trkpt lat="40.0738604" lon="-105.2302298">
  <ele>1583.67</ele>
  <time>2026-08-28T19:08:20Z</time>
  <course>10.29</course>
  <speed>0.01</speed>
  <fix>3d</fix>
</trkpt>
<trkpt lat="40.0738604" lon="-105.2302298">
  <ele>1583.72</ele>
  <time>2026-08-28T19:08:20Z</time>
  <course>10.22</course>
  <speed>0.01</speed>
  <fix>3d</fix>
</trkpt>
<trkpt lat="40.0738605" lon="-105.2302299">
  <ele>1583.59</ele>
  <time>2026-08-28T19:08:20Z</time>
  <course>269.03</course>
  <speed>0.0</speed>
  <fix>3d</fix>
</trkpt>
<trkpt lat="40.0738604" lon="-105.2302298">
  <ele>1583.73</ele>
  <time>2026-08-28T19:08:20Z</time>
  <course>10.21</course>
  <speed>0.01</speed>
  <fix>3d</fix>
</trkpt>
<trkpt lat="40.0738604" lon="-105.2302298">
  <ele>1583.82</ele>
  <time>2026-08-28T19:08:20Z</time>
  <course>6.99</course>
  <speed>0.01</speed>
  <fix>3d</fix>
</trkpt>
<trkpt lat="40.0738605" lon="-105.2302299">
  <ele>1583.65</ele>
  <time>2026-08-28T19:08:20Z</time>
  <course>269.62</course>
  <speed>0.0</speed>
  <fix>3d</fix>
</trkpt>
<trkpt lat="40.0738604" lon="-105.2302298">
  <ele>1583.82</ele>
  <time>2026-08-28T19:08:20Z</time>
  <course>6.85</course>
  <speed>0.01</speed>
  <fix>3d</fix>
</trkpt>
<trkpt lat="40.0738604" lon="-105.2302301">
  <ele>1584.14</ele>
  <time>2026-08-28T19:08:20Z</time>
  <course>1.41</course>
  <speed>0.19</speed>
  <fix>3d</fix>
</trkpt>
<trkpt lat="40.0738605" lon="-105.2302299">
  <ele>1583.83</ele>
  <time>2026-08-28T19:08:20Z</time>
  <course>260.45</course>
  <speed>0.08</speed>
  <fix>3d</fix>
</trkpt>
<trkpt lat="40.0738604" lon="-105.2302301">
  <ele>1584.19</ele>
  <time>2026-08-28T19:08:20Z</time>
  <course>1.33</course>
  <speed>0.21</speed>
  <fix>3d</fix>
</trkpt>
<trkpt lat="40.0738604" lon="-105.2302306">
  <ele>1584.5</ele>
  <time>2026-08-28T19:08:20Z</time>
  <course>0.48</course>
  <speed>0.261725046566048</speed>
  <fix>3d</fix>
</trkpt>
<trkpt lat="40.0738604" lon="-105.2302302">
  <ele>1584.15</ele>
  <time>2026-08-28T19:08:20Z</time>
  <course>257.47</course>
  <speed>0.21</speed>
  <fix>3d</fix>
</trkpt>
<trkpt lat="40.0738604" lon="-105.2302306">
  <ele>1584.51</ele>
  <time>2026-08-28T19:08:20Z</time>
  <course>0.46</course>
  <speed>0.261725046566048</speed>
  <fix>3d</fix>
</trkpt>
<trkpt lat="40.0738603" lon="-105.2302312">
  <ele>1584.88</ele>
  <time>2026-08-28T19:08:20Z</time>
  <course>358.78</course>
  <speed>0.2720294101747089</speed>
  <fix>3d</fix>
</trkpt>
<trkpt lat="40.0738603" lon="-105.2302309">
  <ele>1584.54</ele>
  <time>2026-08-28T19:08:20Z</time>
  <course>251.11</course>
  <speed>0.27</speed>
  <fix>3d</fix>
</trkpt>
<trkpt lat="40.0738603" lon="-105.2302313">
  <ele>1584.93</ele>
  <time>2026-08-28T19:08:20Z</time>
  <course>358.59</course>
  <speed>0.2751363298439521</speed>
  <fix>3d</fix>
</trkpt>
<trkpt lat="40.0738601" lon="-105.2302318">
  <ele>1585.31</ele>
  <time>2026-08-28T19:08:20Z</time>
  <course>357.55</course>
  <speed>0.25553864678361277</speed>
  <fix>3d</fix>
</trkpt>
<trkpt lat="40.0738601" lon="-105.2302315">
  <ele>1584.94</ele>
  <time>2026-08-28T19:08:20Z</time>
  <course>241.71</course>
  <speed>0.28</speed>
  <fix>3d</fix>
</trkpt>
<trkpt lat="40.07386" lon="-105.2302318">
  <ele>1585.36</ele>
  <time>2026-08-28T19:08:20Z</time>
  <course>357.45</course>
  <speed>0.25238858928247926</speed>
  <fix>3d</fix>
</trkpt>
<trkpt lat="40.0738598" lon="-105.2302322">
  <ele>1585.77</ele>
  <time>2026-08-28T19:08:20Z</time>
  <course>356.98</course>
  <speed>0.23345235059857505</speed>
  <fix>3d</fix>
</trkpt>
<trkpt lat="40.0738598" lon="-105.230232">
  <ele>1585.38</ele>
  <time>2026-08-28T19:08:20Z</time>
  <course>230.26</course>
  <speed>0.26</speed>
  <fix>3d</fix>
</trkpt>
<trkpt lat="40.0738598" lon="-105.2302322">
  <ele>1585.78</ele>
  <time>2026-08-28T19:08:20Z</time>
  <course>356.97</course>
  <speed>0.23345235059857505</speed>
  <fix>3d</fix>
</trkpt>
<trkpt lat="40.0738594" lon="-105.2302325">
  <ele>1586.27</ele>
  <time>2026-08-28T19:08:20Z</time>
  <course>356.72</course>
  <speed>0.19697715603592209</speed>
  <fix>3d</fix>
</trkpt>
<trkpt lat="40.0738595" lon="-105.2302324">
  <ele>1585.85</ele>
  <time>2026-08-28T19:08:20Z</time>
  <course>216.36</course>
  <speed>0.22</speed>
  <fix>3d</fix>
</trkpt>
<trkpt lat="40.0738594" lon="-105.2302325">
  <ele>1586.33</ele>
  <time>2026-08-28T19:08:20Z</time>
  <course>356.71</course>
  <speed>0.20248456731316586</speed>
  <fix>3d</fix>
</trkpt>
<trkpt lat="40.073859" lon="-105.2302326">
  <ele>1586.77</ele>
  <time>2026-08-28T19:08:20Z</time>
  <course>354.0</course>
  <speed>0.18027756377319945</speed>
  <fix>3d</fix>
</trkpt>
<trkpt lat="40.0738592" lon="-105.2302326">
  <ele>1586.33</ele>
  <time>2026-08-28T19:08:20Z</time>
  <course>200.2</course>
  <speed>0.18</speed>
  <fix>3d</fix>
</trkpt>
<trkpt lat="40.073859" lon="-105.2302326">
  <ele>1586.84</ele>
  <time>2026-08-28T19:08:20Z</time>
  <course>353.48</course>
  <speed>0.18</speed>
  <fix>3d</fix>
</trkpt>
<trkpt lat="40.0738587" lon="-105.2302326">
  <ele>1587.28</ele>
  <time>2026-08-28T19:08:20Z</time>
  <course>351.7</course>
  <speed>0.17464249196572978</speed>
  <fix>3d</fix>
</trkpt>
<trkpt lat="40.0738589" lon="-105.2302327">
  <ele>1586.83</ele>
  <time>2026-08-28T19:08:20Z</time>
  <course>181.65</course>
  <speed>0.15</speed>
  <fix>3d</fix>
</trkpt>
<trkpt lat="40.0738587" lon="-105.2302326">
  <ele>1587.29</ele>
  <time>2026-08-28T19:08:20Z</time>
  <course>351.7</course>
  <speed>0.17464249196572978</speed>
  <fix>3d</fix>
</trkpt>
<trkpt lat="40.0738584" lon="-105.2302325">
  <ele>1587.79</ele>
  <time>2026-08-28T19:08:20Z</time>
  <course>353.02</course>
  <speed>0.17204650534085253</speed>
  <fix>3d</fix>
</trkpt>
<trkpt lat="40.0738587" lon="-105.2302326">
  <ele>1587.33</ele>
  <time>2026-08-28T19:08:20Z</time>
  <course>156.13</course>
  <speed>0.12</speed>
  <fix>3d</fix>
</trkpt>
<trkpt lat="40.0738584" lon="-105.2302325">
  <ele>1587.87</ele>
  <time>2026-08-28T19:08:20Z</time>
  <course>353.28</course>
  <speed>0.17029386365926402</speed>
  <fix>3d</fix>
</trkpt>
<trkpt lat="40.0738583" lon="-105.2302322">
  <ele>1588.3</ele>
  <time>2026-08-28T19:08:20Z</time>
  <course>354.59</course>
  <speed>0.17</speed>
  <fix>3d</fix>
</trkpt>
<trkpt lat="40.0738585" lon="-105.2302325">
  <ele>1587.83</ele>
  <time>2026-08-28T19:08:20Z</time>
  <course>119.91</course>
  <speed>0.11</speed>
  <fix>3d</fix>
</trkpt>
<trkpt lat="40.0738583" lon="-105.2302322">
  <ele>1588.31</ele>
  <time>2026-08-28T19:08:20Z</time>
  <course>354.6</course>
  <speed>0.17</speed>
  <fix>3d</fix>
</trkpt>
<trkpt lat="40.0738583" lon="-105.2302319">
  <ele>1588.81</ele>
  <time>2026-08-28T19:08:20Z</time>
  <course>355.65</course>
  <speed>0.18</speed>
  <fix>3d</fix>
</trkpt>
<trkpt lat="40.0738585" lon="-105.2302323">
  <ele>1588.32</ele>
  <time>2026-08-28T19:08:20Z</time>
  <course>87.85</course>
  <speed>0.13</speed>
  <fix>3d</fix>
</trkpt>
<trkpt lat="40.0738583" lon="-105.2302318">
  <ele>1588.88</ele>
  <time>2026-08-28T19:08:20Z</time>
  <course>355.78</course>
  <speed>0.18</speed>
  <fix>3d</fix>
</trkpt>
<trkpt lat="40.0738585" lon="-105.2302315">
  <ele>1589.31</ele>
  <time>2026-08-28T19:08:20Z</time>
  <course>356.49</course>
  <speed>0.18681541692269404</speed>
  <fix>3d</fix>
</trkpt>
<trkpt lat="40.0738585" lon="-105.230232">
  <ele>1588.82</ele>
  <time>2026-08-28T19:08:20Z</time>
  <course>68.54</course>
  <speed>0.16</speed>
  <fix>3d</fix>
</trkpt>
<trkpt lat="40.0738585" lon="-105.2302315">
  <ele>1589.38</ele>
  <time>2026-08-28T19:08:20Z</time>
  <course>356.59</course>
  <speed>0.18973665961010278</speed>
  <fix>3d</fix>
</trkpt>
<trkpt lat="40.0738586" lon="-105.2302311">
  <ele>1589.81</ele>
  <time>2026-08-28T19:08:20Z</time>
  <course>357.21</course>
  <speed>0.19235384061671343</speed>
  <fix>3d</fix>
</trkpt>
<trkpt lat="40.0738586" lon="-105.2302316">
  <ele>1589.31</ele>
  <time>2026-08-28T19:08:20Z</time>
  <course>56.99</course>
  <speed>0.19</speed>
  <fix>3d</fix>
</trkpt>
<trkpt lat="40.0738586" lon="-105.2302311">
  <ele>1589.88</ele>
  <time>2026-08-28T19:08:20Z</time>
  <course>357.31</course>
  <speed>0.1972308292331602</speed>
  <fix>3d</fix>
</trkpt>
<trkpt lat="40.0738589" lon="-105.2302308">
  <ele>1590.3</ele>
  <time>2026-08-28T19:08:20Z</time>
  <course>357.83</course>
  <speed>0.2</speed>
  <fix>3d</fix>
</trkpt>
<trkpt lat="40.0738587" lon="-105.2302312">
  <ele>1589.8</ele>
  <time>2026-08-28T19:08:20Z</time>
  <course>49.6</course>
  <speed>0.19</speed>
  <fix>3d</fix>
</trkpt>
<trkpt lat="40.0738589" lon="-105.2302308">
  <ele>1590.37</ele>
  <time>2026-08-28T19:08:20Z</time>
  <course>357.91</course>
  <speed>0.19209372712298545</speed>
  <fix>3d</fix>
</trkpt>
<trkpt lat="40.0738591" lon="-105.2302305">
  <ele>1590.79</ele>
  <time>2026-08-28T19:08:20Z</time>
  <course>358.38</course>
  <speed>0.191049731745428</speed>
  <fix>3d</fix>
</trkpt>
<trkpt lat="40.073859" lon="-105.2302309">
  <ele>1590.29</ele>
  <time>2026-08-28T19:08:20Z</time>
  <course>44.68</course>
  <speed>0.19</speed>
  <fix>3d</fix>
</trkpt>
<trkpt lat="40.0738591" lon="-105.2302305">
  <ele>1590.79</ele>
  <time>2026-08-28T19:08:20Z</time>
  <course>358.39</course>
  <speed>0.191049731745428</speed>
  <fix>3d</fix>
</trkpt>
<trkpt lat="40.0738594" lon="-105.2302303">
  <ele>1591.28</ele>
  <time>2026-08-28T19:08:20Z</time>
  <course>358.84</course>
  <speed>0.1769180601295413</speed>
  <fix>3d</fix>
</trkpt>
<trkpt lat="40.0738592" lon="-105.2302306">
  <ele>1590.78</ele>
  <time>2026-08-28T19:08:20Z</time>
  <course>41.25</course>
  <speed>0.18</speed>
  <fix>3d</fix>
</trkpt>
<trkpt lat="40.0738595" lon="-105.2302302">
  <ele>1591.36</ele>
  <time>2026-08-28T19:08:20Z</time>
  <course>358.92</course>
  <speed>0.1769180601295413</speed>
  <fix>3d</fix>
</trkpt>
<trkpt lat="40.0738597" lon="-105.23023">
  <ele>1591.78</ele>
  <time>2026-08-28T19:08:20Z</time>
  <course>359.3</course>
  <speed>0.16401219466856726</speed>
  <fix>3d</fix>
</trkpt>
<trkpt lat="40.0738595" lon="-105.2302303">
  <ele>1591.27</ele>
  <time>2026-08-28T19:08:20Z</time>
  <course>38.68</course>
  <speed>0.17</speed>
  <fix>3d</fix>
</trkpt>
<trkpt lat="40.0738597" lon="-105.23023">
  <ele>1591.85</ele>
  <time>2026-08-28T19:08:20Z</time>
  <course>359.36</course>
  <speed>0.16401219466856726</speed>
  <fix>3d</fix>
</trkpt>
<trkpt lat="40.0738599" lon="-105.2302298">
  <ele>1592.28</ele>
  <time>2026-08-28T19:08:20Z</time>
  <course>359.73</course>
  <speed>0.15811388300841897</speed>
  <fix>3d</fix>
</trkpt>
<trkpt lat="40.0738597" lon="-105.2302301">
  <ele>1591.77</ele>
  <time>2026-08-28T19:08:20Z</time>
  <course>36.48</course>
  <speed>0.15</speed>
  <fix>3d</fix>
</trkpt>
<trkpt lat="40.0738599" lon="-105.2302298">
  <ele>1592.36</ele>
  <time>2026-08-28T19:08:20Z</time>
  <course>359.81</course>
  <speed>0.15264337522473748</speed>
  <fix>3d</fix>
</trkpt>
<trkpt lat="40.0738601" lon="-105.2302297">
  <ele>1592.78</ele>
  <time>2026-08-28T19:08:20Z</time>
  <course>0.14</course>
  <speed>0.13892443989449804</speed>
  <fix>3d</fix>
</trkpt>
<trkpt lat="40.0738599" lon="-105.2302298">
  <ele>1592.26</ele>
  <time>2026-08-28T19:08:20Z</time>
  <course>34.15</course>
  <speed>0.14</speed>
  <fix>3d</fix>
</trkpt>
<trkpt lat="40.0738601" lon="-105.2302297">
  <ele>1592.85</ele>
  <time>2026-08-28T19:08:20Z</time>
  <course>0.2</course>
  <speed>0.13892443989449804</speed>
  <fix>3d</fix>
</trkpt>
<trkpt lat="40.0738603" lon="-105.2302296">
  <ele>1593.28</ele>
  <time>2026-08-28T19:08:20Z</time>
  <course>0.55</course>
  <speed>0.12083045973594572</speed>
  <fix>3d</fix>
</trkpt>
<trkpt lat="40.0738602" lon="-105.2302297">
  <ele>1592.76</ele>
  <time>2026-08-28T19:08:20Z</time>
  <course>31.31</course>
  <speed>0.12</speed>
  <fix>3d</fix>
</trkpt>
<trkpt lat="40.0738603" lon="-105.2302295">
  <ele>1593.29</ele>
  <time>2026-08-28T19:08:20Z</time>
  <course>0.55</course>
  <speed>0.12083045973594572</speed>
  <fix>3d</fix>
</trkpt>
<trkpt lat="40.0738605" lon="-105.2302295">
  <ele>1593.78</ele>
  <time>2026-08-28T19:08:20Z</time>
  <course>0.95</course>
  <speed>0.10770329614269007</speed>
  <fix>3d</fix>
</trkpt>
<trkpt lat="40.0738604" lon="-105.2302295">
  <ele>1593.26</ele>
  <time>2026-08-28T19:08:20Z</time>
  <course>27.97</course>
  <speed>0.11</speed>
  <fix>3d</fix>
</trkpt>
<trkpt lat="40.0738605" lon="-105.2302294">
  <ele>1593.85</ele>
  <time>2026-08-28T19:08:20Z</time>
  <course>1.0</course>
  <speed>0.1044030650891055</speed>
  <fix>3d</fix>
</trkpt>
<trkpt lat="40.0738606" lon="-105.2302294">
  <ele>1594.29</ele>
  <time>2026-08-28T19:08:20Z</time>
  <course>1.33</course>
  <speed>0.09219544457292887</speed>
  <fix>3d</fix>
</trkpt>
<trkpt lat="40.0738605" lon="-105.2302294">
  <ele>1593.75</ele>
  <time>2026-08-28T19:08:20Z</time>
  <course>24.23</course>
  <speed>0.09</speed>
  <fix>3d</fix>
</trkpt>
<trkpt lat="40.0738607" lon="-105.2302294">
  <ele>1594.36</ele>
  <time>2026-08-28T19:08:20Z</time>
  <course>1.38</course>
  <speed>0.09219544457292887</speed>
  <fix>3d</fix>
</trkpt>
<trkpt lat="40.0738608" lon="-105.2302293">
  <ele>1594.8</ele>
  <time>2026-08-28T19:08:20Z</time>
  <course>1.71</course>
  <speed>0.08062257748298549</speed>
  <fix>3d</fix>
</trkpt>
<trkpt lat="40.0738607" lon="-105.2302294">
  <ele>1594.25</ele>
  <time>2026-08-28T19:08:20Z</time>
  <course>19.73</course>
  <speed>0.07</speed>
  <fix>3d</fix>
</trkpt>
<trkpt lat="40.0738608" lon="-105.2302293">
  <ele>1594.86</ele>
  <time>2026-08-28T19:08:20Z</time>
  <course>1.76</course>
  <speed>0.08</speed>
  <fix>3d</fix>
</trkpt>
<trkpt lat="40.0738609" lon="-105.2302293">
  <ele>1595.3</ele>
  <time>2026-08-28T19:08:20Z</time>
  <course>2.05</course>
  <speed>0.06</speed>
  <fix>3d</fix>
</trkpt>
<trkpt lat="40.0738608" lon="-105.2302293">
  <ele>1594.74</ele>
  <time>2026-08-28T19:08:20Z</time>
  <course>14.37</course>
  <speed>0.06</speed>
  <fix>3d</fix>
</trkpt>
<trkpt lat="40.0738609" lon="-105.2302293">
  <ele>1595.36</ele>
  <time>2026-08-28T19:08:20Z</time>
  <course>2.1</course>
  <speed>0.06</speed>
  <fix>3d</fix>
</trkpt>
<trkpt lat="40.073861" lon="-105.2302293">
  <ele>1595.8</ele>
  <time>2026-08-28T19:08:20Z</time>
  <course>2.39</course>
  <speed>0.05</speed>
  <fix>3d</fix>
</trkpt>
<trkpt lat="40.0738609" lon="-105.2302292">
  <ele>1595.24</ele>
  <time>2026-08-28T19:08:20Z</time>
  <course>8.11</course>
  <speed>0.04</speed>
  <fix>3d</fix>
</trkpt>
<trkpt lat="40.073861" lon="-105.2302293">
  <ele>1595.8</ele>
  <time>2026-08-28T19:08:20Z</time>
  <course>2.4</course>
  <speed>0.05</speed>
  <fix>3d</fix>
</trkpt>
<trkpt lat="40.073861" lon="-105.2302293">
  <ele>1596.29</ele>
  <time>2026-08-28T19:08:20Z</time>
  <course>2.71</course>
  <speed>0.0316227766016838</speed>
  <fix>3d</fix>
</trkpt>
<trkpt lat="40.073861" lon="-105.2302292">
  <ele>1595.73</ele>
  <time>2026-08-28T19:08:20Z</time>
  <course>358.53</course>
  <speed>0.03</speed>
  <fix>3d</fix>
</trkpt>
<trkpt lat="40.073861" lon="-105.2302293">
  <ele>1596.36</ele>
  <time>2026-08-28T19:08:20Z</time>
  <course>2.75</course>
  <speed>0.0316227766016838</speed>
  <fix>3d</fix>
</trkpt>
<trkpt lat="40.073861" lon="-105.2302293">
  <ele>1596.79</ele>
  <time>2026-08-28T19:08:20Z</time>
  <course>3.02</course>
  <speed>0.0282842712474619</speed>
  <fix>3d</fix>
</trkpt>
<trkpt lat="40.073861" lon="-105.2302292">
  <ele>1596.22</ele>
  <time>2026-08-28T19:08:20Z</time>
  <course>338.67</course>
  <speed>0.01</speed>
  <fix>3d</fix>
</trkpt>
<trkpt lat="40.073861" lon="-105.2302293">
  <ele>1596.85</ele>
  <time>2026-08-28T19:08:20Z</time>
  <course>3.05</course>
  <speed>0.0282842712474619</speed>
  <fix>3d</fix>
</trkpt>
<trkpt lat="40.073861" lon="-105.2302293">
  <ele>1597.28</ele>
  <time>2026-08-28T19:08:20Z</time>
  <course>3.26</course>
  <speed>0.022360679774997897</speed>
  <fix>3d</fix>
</trkpt>
<trkpt lat="40.073861" lon="-105.2302292">
  <ele>1596.72</ele>
  <time>2026-08-28T19:08:20Z</time>
  <course>293.37</course>
  <speed>0.01</speed>
  <fix>3d</fix>
</trkpt>
<trkpt lat="40.073861" lon="-105.2302293">
  <ele>1597.34</ele>
  <time>2026-08-28T19:08:20Z</time>
  <course>3.29</course>
  <speed>0.022360679774997897</speed>
  <fix>3d</fix>
</trkpt>
<trkpt lat="40.073861" lon="-105.2302293">
  <ele>1597.77</ele>
  <time>2026-08-28T19:08:20Z</time>
  <course>3.54</course>
  <speed>0.02</speed>
  <fix>3d</fix>
</trkpt>
<trkpt lat="40.073861" lon="-105.2302292">
  <ele>1597.21</ele>
  <time>2026-08-28T19:08:20Z</time>
  <course>249.13</course>
  <speed>0.01</speed>
  <fix>3d</fix>
</trkpt>
<trkpt lat="40.073861" lon="-105.2302293">
  <ele>1597.84</ele>
  <time>2026-08-28T19:08:20Z</time>
  <course>3.57</course>
  <speed>0.02</speed>
  <fix>3d</fix>
</trkpt>
<trkpt lat="40.073861" lon="-105.2302294">
  <ele>1598.27</ele>
  <time>2026-08-28T19:08:20Z</time>
  <course>3.77</course>
  <speed>0.03</speed>
  <fix>3d</fix>
</trkpt>
<trkpt lat="40.073861" lon="-105.2302292">
  <ele>1597.71</ele>
  <time>2026-08-28T19:08:20Z</time>
  <course>230.66</course>
  <speed>0.02</speed>
  <fix>3d</fix>
</trkpt>
<trkpt lat="40.073861" lon="-105.2302294">
  <ele>1598.28</ele>
  <time>2026-08-28T19:08:20Z</time>
  <course>3.77</course>
  <speed>0.03</speed>
  <fix>3d</fix>
</trkpt>
<trkpt lat="40.073861" lon="-105.2302294">
  <ele>1598.78</ele>
  <time>2026-08-28T19:08:20Z</time>
  <course>3.99</course>
  <speed>0.0316227766016838</speed>
  <fix>3d</fix>
</trkpt>
<trkpt lat="40.073861" lon="-105.2302293">
  <ele>1598.2</ele>
  <time>2026-08-28T19:08:20Z</time>
  <course>222.58</course>
  <speed>0.02</speed>
  <fix>3d</fix>
</trkpt>
<trkpt lat="40.073861" lon="-105.2302294">
  <ele>1598.84</ele>
  <time>2026-08-28T19:08:20Z</time>
  <course>4.02</course>
  <speed>0.0316227766016838</speed>
  <fix>3d</fix>
</trkpt>
<trkpt lat="40.073861" lon="-105.2302294">
  <ele>1599.28</ele>
  <time>2026-08-28T19:08:20Z</time>
  <course>4.26</course>
  <speed>0.0316227766016838</speed>
  <fix>3d</fix>
</trkpt>
<trkpt lat="40.073861" lon="-105.2302294">
  <ele>1598.7</ele>
  <time>2026-08-28T19:08:20Z</time>
  <course>218.81</course>
  <speed>0.03</speed>
  <fix>3d</fix>
</trkpt>
<trkpt lat="40.073861" lon="-105.2302294">
  <ele>1599.29</ele>
  <time>2026-08-28T19:08:20Z</time>
  <course>4.26</course>
  <speed>0.0316227766016838</speed>
  <fix>3d</fix>
</trkpt>
<trkpt lat="40.073861" lon="-105.2302295">
  <ele>1599.79</ele>
  <time>2026-08-28T19:08:20Z</time>
  <course>4.52</course>
  <speed>0.0316227766016838</speed>
  <fix>3d</fix>
</trkpt>
<trkpt lat="40.073861" lon="-105.2302294">
  <ele>1599.19</ele>
  <time>2026-08-28T19:08:20Z</time>
  <course>216.73</course>
  <speed>0.03</speed>
  <fix>3d</fix>
</trkpt>
<trkpt lat="40.073861" lon="-105.2302295">
  <ele>1599.85</ele>
  <time>2026-08-28T19:08:20Z</time>
  <course>4.54</course>
  <speed>0.0316227766016838</speed>
  <fix>3d</fix>
</trkpt>
<trkpt lat="40.0738609" lon="-105.2302295">
  <ele>1600.28</ele>
  <time>2026-08-28T19:08:20Z</time>
  <course>4.75</course>
  <speed>0.03605551275463989</speed>
  <fix>3d</fix>
</trkpt>
<trkpt lat="40.0738609" lon="-105.2302294">
  <ele>1599.69</ele>
  <time>2026-08-28T19:08:20Z</time>
  <course>215.27</course>
  <speed>0.04</speed>
  <fix>3d</fix>
</trkpt>
<trkpt lat="40.0738609" lon="-105.2302295">
  <ele>1600.34</ele>
  <time>2026-08-28T19:08:20Z</time>
  <course>4.78</course>
  <speed>0.03605551275463989</speed>
  <fix>3d</fix>
</trkpt>
<trkpt lat="40.0738609" lon="-105.2302296">
  <ele>1600.78</ele>
  <time>2026-08-28T19:08:20Z</time>
  <course>4.95</course>
  <speed>0.03605551275463989</speed>
  <fix>3d</fix>
</trkpt>
<trkpt lat="40.0738609" lon="-105.2302295">
  <ele>1600.18</ele>
  <time>2026-08-28T19:08:20Z</time>
  <course>213.72</course>
  <speed>0.04</speed>
  <fix>3d</fix>
</trkpt>
<trkpt lat="40.0738609" lon="-105.2302296">
  <ele>1600.84</ele>
  <time>2026-08-28T19:08:20Z</time>
  <course>4.98</course>
  <speed>0.03605551275463989</speed>
  <fix>3d</fix>
</trkpt>
<trkpt lat="40.0738608" lon="-105.2302296">
  <ele>1601.27</ele>
  <time>2026-08-28T19:08:20Z</time>
  <course>5.15</course>
  <speed>0.0282842712474619</speed>
  <fix>3d</fix>
</trkpt>
<trkpt lat="40.0738608" lon="-105.2302296">
  <ele>1600.68</ele>
  <time>2026-08-28T19:08:20Z</time>
  <course>212.06</course>
  <speed>0.04</speed>
  <fix>3d</fix>
</trkpt>
<trkpt lat="40.0738608" lon="-105.2302296">
  <ele>1601.28</ele>
  <time>2026-08-28T19:08:20Z</time>
  <course>5.15</course>
  <speed>0.0282842712474619</speed>
  <fix>3d</fix>
</trkpt>
<trkpt lat="40.0738608" lon="-105.2302297">
  <ele>1601.77</ele>
  <time>2026-08-28T19:08:20Z</time>
  <course>5.34</course>
  <speed>0.022360679774997897</speed>
  <fix>3d</fix>
</trkpt>
<trkpt lat="40.0738607" lon="-105.2302296">
  <ele>1601.17</ele>
  <time>2026-08-28T19:08:20Z</time>
  <course>211.36</course>
  <speed>0.03</speed>
  <fix>3d</fix>
</trkpt>
<trkpt lat="40.0738607" lon="-105.2302297">
  <ele>1601.83</ele>
  <time>2026-08-28T19:08:20Z</time>
  <course>5.36</course>
  <speed>0.022360679774997897</speed>
  <fix>3d</fix>
</trkpt>
<trkpt lat="40.0738607" lon="-105.2302297">
  <ele>1602.27</ele>
  <time>2026-08-28T19:08:20Z</time>
  <course>5.51</course>
  <speed>0.022360679774997897</speed>
  <fix>3d</fix>
</trkpt>
<trkpt lat="40.0738607" lon="-105.2302297">
  <ele>1601.67</ele>
  <time>2026-08-28T19:08:20Z</time>
  <course>211.33</course>
  <speed>0.03</speed>
  <fix>3d</fix>
</trkpt>
<trkpt lat="40.0738607" lon="-105.2302297">
  <ele>1602.33</ele>
  <time>2026-08-28T19:08:20Z</time>
  <course>5.53</course>
  <speed>0.022360679774997897</speed>
  <fix>3d</fix>
</trkpt>
<trkpt lat="40.0738607" lon="-105.2302297">
  <ele>1602.76</ele>
  <time>2026-08-28T19:08:20Z</time>
  <course>5.71</course>
  <speed>0.022360679774997897</speed>
  <fix>3d</fix>
</trkpt>
<trkpt lat="40.0738606" lon="-105.2302297">
  <ele>1602.17</ele>
  <time>2026-08-28T19:08:20Z</time>
  <course>211.32</course>
  <speed>0.03</speed>
  <fix>3d</fix>
</trkpt>
<trkpt lat="40.0738607" lon="-105.2302297">
  <ele>1602.83</ele>
  <time>2026-08-28T19:08:20Z</time>
  <course>5.73</course>
  <speed>0.022360679774997897</speed>
  <fix>3d</fix>
</trkpt>
<trkpt lat="40.0738606" lon="-105.2302298">
  <ele>1603.26</ele>
  <time>2026-08-28T19:08:20Z</time>
  <course>5.85</course>
  <speed>0.022360679774997897</speed>
  <fix>3d</fix>
</trkpt>
<trkpt lat="40.0738605" lon="-105.2302297">
  <ele>1602.66</ele>
  <time>2026-08-28T19:08:20Z</time>
  <course>211.07</course>
  <speed>0.03</speed>
  <fix>3d</fix>
</trkpt>
<trkpt lat="40.0738606" lon="-105.2302298">
  <ele>1603.33</ele>
  <time>2026-08-28T19:08:20Z</time>
  <course>5.87</course>
  <speed>0.01414213562373095</speed>
  <fix>3d</fix>
</trkpt>
<trkpt lat="40.0738606" lon="-105.2302298">
  <ele>1603.75</ele>
  <time>2026-08-28T19:08:20Z</time>
  <course>6.02</course>
  <speed>0.01414213562373095</speed>
  <fix>3d</fix>
</trkpt>
<trkpt lat="40.0738605" lon="-105.2302298">
  <ele>1603.16</ele>
  <time>2026-08-28T19:08:20Z</time>
  <course>211.01</course>
  <speed>0.02</speed>
  <fix>3d</fix>
</trkpt>
<trkpt lat="40.0738606" lon="-105.2302298">
  <ele>1603.76</ele>
  <time>2026-08-28T19:08:20Z</time>
  <course>6.02</course>
  <speed>0.01414213562373095</speed>
  <fix>3d</fix>
</trkpt>
<trkpt lat="40.0738605" lon="-105.2302298">
  <ele>1604.25</ele>
  <time>2026-08-28T19:08:20Z</time>
  <course>6.18</course>
  <speed>0.01</speed>
  <fix>3d</fix>
</trkpt>
<trkpt lat="40.0738604" lon="-105.2302299">
  <ele>1603.66</ele>
  <time>2026-08-28T19:08:20Z</time>
  <course>212.18</course>
  <speed>0.02</speed>
  <fix>3d</fix>
</trkpt>
<trkpt lat="40.0738605" lon="-105.2302298">
  <ele>1604.31</ele>
  <time>2026-08-28T19:08:20Z</time>
  <course>6.2</course>
  <speed>0.01</speed>
  <fix>3d</fix>
</trkpt>
<trkpt lat="40.0738605" lon="-105.2302299">
  <ele>1604.74</ele>
  <time>2026-08-28T19:08:20Z</time>
  <course>6.31</course>
  <speed>0.01</speed>
  <fix>3d</fix>
</trkpt>
<trkpt lat="40.0738604" lon="-105.2302299">
  <ele>1604.16</ele>
  <time>2026-08-28T19:08:20Z</time>
  <course>213.93</course>
  <speed>0.01</speed>
  <fix>3d</fix>
</trkpt>
<trkpt lat="40.0738605" lon="-105.2302299">
  <ele>1604.81</ele>
  <time>2026-08-28T19:08:20Z</time>
  <course>6.32</course>
  <speed>0.01</speed>
  <fix>3d</fix>
</trkpt>
<trkpt lat="40.0738605" lon="-105.2302299">
  <ele>1605.24</ele>
  <time>2026-08-28T19:08:20Z</time>
  <course>6.43</course>
  <speed>0.01</speed>
  <fix>3d</fix>
</trkpt>
<trkpt lat="40.0738604" lon="-105.2302299">
  <ele>1604.66</ele>
  <time>2026-08-28T19:08:20Z</time>
  <course>216.83</course>
  <speed>0.01</speed>
  <fix>3d</fix>
</trkpt>
<trkpt lat="40.0738605" lon="-105.2302299">
  <ele>1605.31</ele>
  <time>2026-08-28T19:08:20Z</time>
  <course>6.45</course>
  <speed>0.01</speed>
  <fix>3d</fix>
</trkpt>
<trkpt lat="40.0738605" lon="-105.2302299">
  <ele>1605.75</ele>
  <time>2026-08-28T19:08:20Z</time>
  <course>6.54</course>
  <speed>0.0</speed>
  <fix>3d</fix>
</trkpt>
<trkpt lat="40.0738604" lon="-105.2302299">
  <ele>1605.16</ele>
  <time>2026-08-28T19:08:20Z</time>
  <course>222.77</course>
  <speed>0.0</speed>
  <fix>3d</fix>
</trkpt>
<trkpt lat="40.0738605" lon="-105.2302299">
  <ele>1605.75</ele>
  <time>2026-08-28T19:08:20Z</time>
  <course>6.54</course>
  <speed>0.0</speed>
  <fix>3d</fix>
</trkpt>
<trkpt lat="40.0738605" lon="-105.2302299">
  <ele>1606.25</ele>
  <time>2026-08-28T19:08:20Z</time>
  <course>6.7</course>
  <speed>0.0</speed>
  <fix>3d</fix>
</trkpt>
<trkpt lat="40.0738604" lon="-105.2302299">
  <ele>1605.66</ele>
  <time>2026-08-28T19:08:20Z</time>
  <course>237.86</course>
  <speed>0.0</speed>
  <fix>3d</fix>
</trkpt>
<trkpt lat="40.0738605" lon="-105.2302299">
  <ele>1606.32</ele>
  <time>2026-08-28T19:08:20Z</time>
  <course>6.72</course>
  <speed>0.0</speed>
  <fix>3d</fix>
</trkpt>
<trkpt lat="40.0738605" lon="-105.2302299">
  <ele>1606.76</ele>
  <time>2026-08-28T19:08:20Z</time>
  <course>6.83</course>
  <speed>0.01</speed>
  <fix>3d</fix>
</trkpt>
<trkpt lat="40.0738604" lon="-105.2302299">
  <ele>1606.17</ele>
  <time>2026-08-28T19:08:20Z</time>
  <course>286.37</course>
  <speed>0.0</speed>
  <fix>3d</fix>
</trkpt>
<trkpt lat="40.0738605" lon="-105.2302299">
  <ele>1606.76</ele>
  <time>2026-08-28T19:08:20Z</time>
  <course>6.83</course>
  <speed>0.01</speed>
  <fix>3d</fix>
</trkpt>
<trkpt lat="40.0738605" lon="-105.2302299">
  <ele>1607.26</ele>
  <time>2026-08-28T19:08:20Z</time>
  <course>6.97</course>
  <speed>0.01</speed>
  <fix>3d</fix>
</trkpt>
<trkpt lat="40.0738604" lon="-105.2302299">
  <ele>1606.67</ele>
  <time>2026-08-28T19:08:20Z</time>
  <course>351.59</course>
  <speed>0.0</speed>
  <fix>3d</fix>
</trkpt>
<trkpt lat="40.0738605" lon="-105.2302299">
  <ele>1607.33</ele>
  <time>2026-08-28T19:08:20Z</time>
  <course>6.99</course>
  <speed>0.01</speed>
  <fix>3d</fix>
</trkpt>
<trkpt lat="40.0738605" lon="-105.2302299">
  <ele>1607.76</ele>
  <time>2026-08-28T19:08:20Z</time>
  <course>7.12</course>
  <speed>0.01</speed>
  <fix>3d</fix>
</trkpt>
<trkpt lat="40.0738604" lon="-105.2302299">
  <ele>1607.17</ele>
  <time>2026-08-28T19:08:20Z</time>
  <course>10.6</course>
  <speed>0.0</speed>
  <fix>3d</fix>
</trkpt>
<trkpt lat="40.0738605" lon="-105.2302299">
  <ele>1607.83</ele>
  <time>2026-08-28T19:08:20Z</time>
  <course>7.14</course>
  <speed>0.01</speed>
  <fix>3d</fix>
</trkpt>
<trkpt lat="40.0738605" lon="-105.2302299">
  <ele>1608.27</ele>
  <time>2026-08-28T19:08:20Z</time>
  <course>7.24</course>
  <speed>0.01</speed>
  <fix>3d</fix>
</trkpt>
<trkpt lat="40.0738604" lon="-105.2302299">
  <ele>1607.67</ele>
  <time>2026-08-28T19:08:20Z</time>
  <course>18.97</course>
  <speed>0.0</speed>
  <fix>3d</fix>
</trkpt>
<trkpt lat="40.0738605" lon="-105.2302299">
  <ele>1608.34</ele>
  <time>2026-08-28T19:08:20Z</time>
  <course>7.25</course>
  <speed>0.01</speed>
  <fix>3d</fix>
</trkpt>
<trkpt lat="40.0738605" lon="-105.2302299">
  <ele>1608.77</ele>
  <time>2026-08-28T19:08:20Z</time>
  <course>7.36</course>
  <speed>0.01</speed>
  <fix>3d</fix>
</trkpt>
<trkpt lat="40.0738604" lon="-105.2302299">
  <ele>1608.17</ele>
  <time>2026-08-28T19:08:20Z</time>
  <course>21.58</course>
  <speed>0.01</speed>
  <fix>3d</fix>
</trkpt>
<trkpt lat="40.0738605" lon="-105.2302299">
  <ele>1608.83</ele>
  <time>2026-08-28T19:08:20Z</time>
  <course>7.37</course>
  <speed>0.01</speed>
  <fix>3d</fix>
</trkpt>
<trkpt lat="40.0738605" lon="-105.2302299">
  <ele>1609.27</ele>
  <time>2026-08-28T19:08:20Z</time>
  <course>7.47</course>
  <speed>0.01</speed>
  <fix>3d</fix>
</trkpt>
<trkpt lat="40.0738604" lon="-105.2302299">
  <ele>1608.67</ele>
  <time>2026-08-28T19:08:20Z</time>
  <course>21.35</course>
  <speed>0.01</speed>
  <fix>3d</fix>
</trkpt>
<trkpt lat="40.0738605" lon="-105.2302299">
  <ele>1609.28</ele>
  <time>2026-08-28T19:08:20Z</time>
  <course>7.47</course>
  <speed>0.01</speed>
  <fix>3d</fix>
</trkpt>
<trkpt lat="40.0738605" lon="-105.2302299">
  <ele>1609.77</ele>
  <time>2026-08-28T19:08:20Z</time>
  <course>7.57</course>
  <speed>0.01</speed>
  <fix>3d</fix>
</trkpt>
<trkpt lat="40.0738604" lon="-105.2302299">
  <ele>1609.17</ele>
  <time>2026-08-28T19:08:20Z</time>
  <course>22.37</course>
  <speed>0.01</speed>
  <fix>3d</fix>
</trkpt>
<trkpt lat="40.0738605" lon="-105.2302299">
  <ele>1609.83</ele>
  <time>2026-08-28T19:08:20Z</time>
  <course>7.59</course>
  <speed>0.01</speed>
  <fix>3d</fix>
</trkpt>
<trkpt lat="40.0738605" lon="-105.2302299">
  <ele>1610.26</ele>
  <time>2026-08-28T19:08:20Z</time>
  <course>7.65</course>
  <speed>0.01</speed>
  <fix>3d</fix>
</trkpt>
<trkpt lat="40.0738604" lon="-105.2302299">
  <ele>1609.67</ele>
  <time>2026-08-28T19:08:20Z</time>
  <course>27.36</course>
  <speed>0.01</speed>
  <fix>3d</fix>
</trkpt>
<trkpt lat="40.0738605" lon="-105.2302299">
  <ele>1610.32</ele>
  <time>2026-08-28T19:08:20Z</time>
  <course>7.66</course>
  <speed>0.01</speed>
  <fix>3d</fix>
</trkpt>
<trkpt lat="40.0738605" lon="-105.2302299">
  <ele>1610.75</ele>
  <time>2026-08-28T19:08:20Z</time>
  <course>7.74</course>
  <speed>0.01</speed>
  <fix>3d</fix>
</trkpt>
<trkpt lat="40.0738604" lon="-105.2302299">
  <ele>1610.16</ele>
  <time>2026-08-28T19:08:20Z</time>
  <course>34.6</course>
  <speed>0.01</speed>
  <fix>3d</fix>
</trkpt>
<trkpt lat="40.0738605" lon="-105.2302299">
  <ele>1610.76</ele>
  <time>2026-08-28T19:08:20Z</time>
  <course>7.74</course>
  <speed>0.01</speed>
  <fix>3d</fix>
</trkpt>
<trkpt lat="40.0738605" lon="-105.2302299">
  <ele>1611.25</ele>
  <time>2026-08-28T19:08:20Z</time>
  <course>7.81</course>
  <speed>0.01</speed>
  <fix>3d</fix>
</trkpt>
<trkpt lat="40.0738604" lon="-105.2302299">
  <ele>1610.66</ele>
  <time>2026-08-28T19:08:20Z</time>
  <course>42.99</course>
  <speed>0.01</speed>
  <fix>3d</fix>
</trkpt>
<trkpt lat="40.0738605" lon="-105.2302299">
  <ele>1611.32</ele>
  <time>2026-08-28T19:08:20Z</time>
  <course>7.82</course>
  <speed>0.01</speed>
  <fix>3d</fix>
</trkpt>
<trkpt lat="40.0738605" lon="-105.2302299">
  <ele>1611.75</ele>
  <time>2026-08-28T19:08:20Z</time>
  <course>7.87</course>
  <speed>0.01</speed>
  <fix>3d</fix>
</trkpt>
<trkpt lat="40.0738604" lon="-105.2302299">
  <ele>1611.16</ele>
  <time>2026-08-28T19:08:20Z</time>
  <course>54.13</course>
  <speed>0.0</speed>
  <fix>3d</fix>
</trkpt>
<trkpt lat="40.0738605" lon="-105.2302299">
  <ele>1611.82</ele>
  <time>2026-08-28T19:08:20Z</time>
  <course>7.88</course>
  <speed>0.01</speed>
  <fix>3d</fix>
</trkpt>
<trkpt lat="40.0738605" lon="-105.2302299">
  <ele>1612.26</ele>
  <time>2026-08-28T19:08:20Z</time>
  <course>7.95</course>
  <speed>0.0</speed>
  <fix>3d</fix>
</trkpt>
<trkpt lat="40.0738604" lon="-105.2302299">
  <ele>1611.66</ele>
  <time>2026-08-28T19:08:20Z</time>
  <course>65.51</course>
  <speed>0.0</speed>
  <fix>3d</fix>
</trkpt>
<trkpt lat="40.0738605" lon="-105.2302299">
  <ele>1612.26</ele>
  <time>2026-08-28T19:08:20Z</time>
  <course>7.95</course>
  <speed>0.0</speed>
  <fix>3d</fix>
</trkpt>
<trkpt lat="40.0738605" lon="-105.2302299">
  <ele>1612.76</ele>
  <time>2026-08-28T19:08:20Z</time>
  <course>8.06</course>
  <speed>0.0</speed>
  <fix>3d</fix>
</trkpt>
<trkpt lat="40.0738604" lon="-105.2302299">
  <ele>1612.16</ele>
  <time>2026-08-28T19:08:20Z</time>
  <course>74.49</course>
  <speed>0.0</speed>
  <fix>3d</fix>
</trkpt>
<trkpt lat="40.0738605" lon="-105.2302299">
  <ele>1612.82</ele>
  <time>2026-08-28T19:08:20Z</time>
  <course>8.07</course>
  <speed>0.0</speed>
  <fix>3d</fix>
</trkpt>
<trkpt lat="40.0738605" lon="-105.2302299">
  <ele>1613.26</ele>
  <time>2026-08-28T19:08:20Z</time>
  <course>8.13</course>
  <speed>0.0</speed>
  <fix>3d</fix>
</trkpt>
<trkpt lat="40.0738604" lon="-105.2302299">
  <ele>1612.66</ele>
  <time>2026-08-28T19:08:20Z</time>
  <course>81.58</course>
  <speed>0.01</speed>
  <fix>3d</fix>
</trkpt>
<trkpt lat="40.0738605" lon="-105.2302299">
  <ele>1613.26</ele>
  <time>2026-08-28T19:08:20Z</time>
  <course>8.13</course>
  <speed>0.0</speed>
  <fix>3d</fix>
</trkpt>
<trkpt lat="40.0738605" lon="-105.2302299">
  <ele>1613.75</ele>
  <time>2026-08-28T19:08:20Z</time>
  <course>8.2</course>
  <speed>0.0</speed>
  <fix>3d</fix>
</trkpt>
<trkpt lat="40.0738604" lon="-105.2302299">
  <ele>1613.17</ele>
  <time>2026-08-28T19:08:20Z</time>
  <course>86.84</course>
  <speed>0.01</speed>
  <fix>3d</fix>
</trkpt>
<trkpt lat="40.0738605" lon="-105.2302299">
  <ele>1613.82</ele>
  <time>2026-08-28T19:08:20Z</time>
  <course>8.21</course>
  <speed>0.0</speed>
  <fix>3d</fix>
</trkpt>
<trkpt lat="40.0738605" lon="-105.2302299">
  <ele>1614.25</ele>
  <time>2026-08-28T19:08:20Z</time>
  <course>8.27</course>
  <speed>0.0</speed>
  <fix>3d</fix>
</trkpt>
<trkpt lat="40.0738604" lon="-105.2302298">
  <ele>1613.67</ele>
  <time>2026-08-28T19:08:20Z</time>
  <course>90.89</course>
  <speed>0.01</speed>
  <fix>3d</fix>
</trkpt>
<trkpt lat="40.0738605" lon="-105.2302299">
  <ele>1614.32</ele>
  <time>2026-08-28T19:08:20Z</time>
  <course>8.28</course>
  <speed>0.0</speed>
  <fix>3d</fix>
</trkpt>
<trkpt lat="40.0738605" lon="-105.2302299">
  <ele>1614.75</ele>
  <time>2026-08-28T19:08:20Z</time>
  <course>8.33</course>
  <speed>0.0</speed>
  <fix>3d</fix>
</trkpt>
<trkpt lat="40.0738604" lon="-105.2302297">
  <ele>1614.17</ele>
  <time>2026-08-28T19:08:20Z</time>
  <course>93.91</course>
  <speed>0.01</speed>
  <fix>3d</fix>
</trkpt>
<trkpt lat="40.0738605" lon="-105.2302299">
  <ele>1614.75</ele>
  <time>2026-08-28T19:08:20Z</time>
  <course>8.33</course>
  <speed>0.0</speed>
  <fix>3d</fix>
</trkpt>
<trkpt lat="40.0738605" lon="-105.2302298">
  <ele>1615.25</ele>
  <time>2026-08-28T19:08:20Z</time>
  <course>8.38</course>
  <speed>0.0</speed>
  <fix>3d</fix>
</trkpt>
<trkpt lat="40.0738604" lon="-105.2302297">
  <ele>1614.67</ele>
  <time>2026-08-28T19:08:20Z</time>
  <course>95.85</course>
  <speed>0.01</speed>
  <fix>3d</fix>
</trkpt>
<trkpt lat="40.0738605" lon="-105.2302298">
  <ele>1615.31</ele>
  <time>2026-08-28T19:08:20Z</time>
  <course>8.38</course>
  <speed>0.0</speed>
  <fix>3d</fix>
</trkpt>
<trkpt lat="40.0738605" lon="-105.2302298">
  <ele>1615.75</ele>
  <time>2026-08-28T19:08:20Z</time>
  <course>8.43</course>
  <speed>0.0</speed>
  <fix>3d</fix>
</trkpt>
<trkpt lat="40.0738604" lon="-105.2302297">
  <ele>1615.17</ele>
  <time>2026-08-28T19:08:20Z</time>
  <course>97.73</course>
  <speed>0.01</speed>
  <fix>3d</fix>
</trkpt>
<trkpt lat="40.0738605" lon="-105.2302298">
  <ele>1615.81</ele>
  <time>2026-08-28T19:08:20Z</time>
  <course>8.45</course>
  <speed>0.0</speed>
  <fix>3d</fix>
</trkpt>
<trkpt lat="40.0738605" lon="-105.2302298">
  <ele>1616.26</ele>
  <time>2026-08-28T19:08:20Z</time>
  <course>8.53</course>
  <speed>0.0</speed>
  <fix>3d</fix>
</trkpt>
<trkpt lat="40.0738604" lon="-105.2302297">
  <ele>1615.68</ele>
  <time>2026-08-28T19:08:20Z</time>
  <course>101.39</course>
  <speed>0.0</speed>
  <fix>3d</fix>
</trkpt>
<trkpt lat="40.0738605" lon="-105.2302298">
  <ele>1616.32</ele>
  <time>2026-08-28T19:08:20Z</time>
  <course>8.54</course>
  <speed>0.0</speed>
  <fix>3d</fix>
</trkpt>
<trkpt lat="40.0738605" lon="-105.2302298">
  <ele>1616.76</ele>
  <time>2026-08-28T19:08:21Z</time>
  <course>8.61</course>
  <speed>0.0</speed>
  <fix>3d</fix>
</trkpt>
<trkpt lat="40.0738604" lon="-105.2302297">
  <ele>1616.18</ele>
  <time>2026-08-28T19:08:21Z</time>
  <course>107.31</course>
  <speed>0.0</speed>
  <fix>3d</fix>
</trkpt>
<trkpt lat="40.0738605" lon="-105.2302298">
  <ele>1616.82</ele>
  <time>2026-08-28T19:08:21Z</time>
  <course>8.61</course>
  <speed>0.0</speed>
  <fix>3d</fix>
</trkpt>
<trkpt lat="40.0738605" lon="-105.2302298">
  <ele>1617.26</ele>
  <time>2026-08-28T19:08:21Z</time>
  <course>8.67</course>
  <speed>0.0</speed>
  <fix>3d</fix>
</trkpt>
<trkpt lat="40.0738604" lon="-105.2302297">
  <ele>1616.68</ele>
  <time>2026-08-28T19:08:21Z</time>
  <course>114.46</course>
  <speed>0.0</speed>
  <fix>3d</fix>
</trkpt>
<trkpt lat="40.0738605" lon="-105.2302298">
  <ele>1617.32</ele>
  <time>2026-08-28T19:08:21Z</time>
  <course>8.69</course>
  <speed>0.0</speed>
  <fix>3d</fix>
</trkpt>
<trkpt lat="40.0738605" lon="-105.2302298">
  <ele>1617.76</ele>
  <time>2026-08-28T19:08:21Z</time>
  <course>8.71</course>
  <speed>0.0</speed>
  <fix>3d</fix>
</trkpt>
<trkpt lat="40.0738604" lon="-105.2302297">
  <ele>1617.18</ele>
  <time>2026-08-28T19:08:21Z</time>
  <course>121.94</course>
  <speed>0.0</speed>
  <fix>3d</fix>
</trkpt>
<trkpt lat="40.0738605" lon="-105.2302298">
  <ele>1617.82</ele>
  <time>2026-08-28T19:08:21Z</time>
  <course>8.72</course>
  <speed>0.0</speed>
  <fix>3d</fix>
</trkpt>
<trkpt lat="40.0738605" lon="-105.2302298">
  <ele>1618.25</ele>
  <time>2026-08-28T19:08:21Z</time>
  <course>8.76</course>
  <speed>0.0</speed>
  <fix>3d</fix>
</trkpt>
<trkpt lat="40.0738604" lon="-105.2302297">
  <ele>1617.68</ele>
  <time>2026-08-28T19:08:21Z</time>
  <course>130.58</course>
  <speed>0.0</speed>
  <fix>3d</fix>
</trkpt>
<trkpt lat="40.0738605" lon="-105.2302298">
  <ele>1618.26</ele>
  <time>2026-08-28T19:08:21Z</time>
  <course>8.76</course>
  <speed>0.0</speed>
  <fix>3d</fix>
</trkpt>
<trkpt lat="40.0738605" lon="-105.2302298">
  <ele>1618.75</ele>
  <time>2026-08-28T19:08:21Z</time>
  <course>8.81</course>
  <speed>0.0</speed>
  <fix>3d</fix>
</trkpt>
<trkpt lat="40.0738604" lon="-105.2302297">
  <ele>1618.19</ele>
  <time>2026-08-28T19:08:21Z</time>
  <course>140.72</course>
  <speed>0.0</speed>
  <fix>3d</fix>
</trkpt>
<trkpt lat="40.0738605" lon="-105.2302298">
  <ele>1618.82</ele>
  <time>2026-08-28T19:08:21Z</time>
  <course>8.82</course>
  <speed>0.0</speed>
  <fix>3d</fix>
</trkpt>
<trkpt lat="40.0738605" lon="-105.2302298">
  <ele>1619.25</ele>
  <time>2026-08-28T19:08:21Z</time>
  <course>8.87</course>
  <speed>0.0</speed>
  <fix>3d</fix>
</trkpt>
<trkpt lat="40.0738604" lon="-105.2302297">
  <ele>1618.69</ele>
  <time>2026-08-28T19:08:21Z</time>
  <course>149.9</course>
  <speed>0.0</speed>
  <fix>3d</fix>
</trkpt>
<trkpt lat="40.0738605" lon="-105.2302298">
  <ele>1619.32</ele>
  <time>2026-08-28T19:08:21Z</time>
  <course>8.88</course>
  <speed>0.0</speed>
  <fix>3d</fix>
</trkpt>
<trkpt lat="40.0738605" lon="-105.2302298">
  <ele>1619.75</ele>
  <time>2026-08-28T19:08:21Z</time>
  <course>8.95</course>
  <speed>0.0</speed>
  <fix>3d</fix>
</trkpt>
<trkpt lat="40.0738604" lon="-105.2302297">
  <ele>1619.19</ele>
  <time>2026-08-28T19:08:21Z</time>
  <course>161.07</course>
  <speed>0.0</speed>
  <fix>3d</fix>
</trkpt>
<trkpt lat="40.0738605" lon="-105.2302298">
  <ele>1619.82</ele>
  <time>2026-08-28T19:08:21Z</time>
  <course>8.95</course>
  <speed>0.0</speed>
  <fix>3d</fix>
</trkpt>
<trkpt lat="40.0738605" lon="-105.2302298">
  <ele>1620.25</ele>
  <time>2026-08-28T19:08:21Z</time>
  <course>8.98</course>
  <speed>0.0</speed>
  <fix>3d</fix>
</trkpt>
<trkpt lat="40.0738604" lon="-105.2302297">
  <ele>1619.69</ele>
  <time>2026-08-28T19:08:21Z</time>
  <course>168.62</course>
  <speed>0.0</speed>
  <fix>3d</fix>
</trkpt>
<trkpt lat="40.0738605" lon="-105.2302298">
  <ele>1620.31</ele>
  <time>2026-08-28T19:08:21Z</time>
  <course>8.99</course>
  <speed>0.0</speed>
  <fix>3d</fix>
</trkpt>
<trkpt lat="40.0738605" lon="-105.2302298">
  <ele>1620.75</ele>
  <time>2026-08-28T19:08:21Z</time>
  <course>9.01</course>
  <speed>0.0</speed>
  <fix>3d</fix>
</trkpt>
<trkpt lat="40.0738604" lon="-105.2302297">
  <ele>1620.19</ele>
  <time>2026-08-28T19:08:21Z</time>
  <course>172.58</course>
  <speed>0.0</speed>
  <fix>3d</fix>
</trkpt>
<trkpt lat="40.0738605" lon="-105.2302298">
  <ele>1620.76</ele>
  <time>2026-08-28T19:08:21Z</time>
  <course>9.01</course>
  <speed>0.0</speed>
  <fix>3d</fix>
</trkpt>
<trkpt lat="40.0738605" lon="-105.2302298">
  <ele>1621.26</ele>
  <time>2026-08-28T19:08:21Z</time>
  <course>9.08</course>
  <speed>0.0</speed>
  <fix>3d</fix>
</trkpt>
<trkpt lat="40.0738604" lon="-105.2302297">
  <ele>1620.7</ele>
  <time>2026-08-28T19:08:21Z</time>
  <course>177.72</course>
  <speed>0.0</speed>
  <fix>3d</fix>
</trkpt>
<trkpt lat="40.0738605" lon="-105.2302298">
  <ele>1621.32</ele>
  <time>2026-08-28T19:08:21Z</time>
  <course>9.09</course>
  <speed>0.0</speed>
  <fix>3d</fix>
</trkpt>
<trkpt lat="40.0738605" lon="-105.2302298">
  <ele>1621.75</ele>
  <time>2026-08-28T19:08:21Z</time>
  <course>9.13</course>
  <speed>0.0</speed>
  <fix>3d</fix>
</trkpt>
<trkpt lat="40.0738604" lon="-105.2302297">
  <ele>1621.2</ele>
  <time>2026-08-28T19:08:21Z</time>
  <course>181.38</course>
  <speed>0.0</speed>
  <fix>3d</fix>
</trkpt>
<trkpt lat="40.0738605" lon="-105.2302298">
  <ele>1621.81</ele>
  <time>2026-08-28T19:08:21Z</time>
  <course>9.14</course>
  <speed>0.0</speed>
  <fix>3d</fix>
</trkpt>
<trkpt lat="40.0738605" lon="-105.2302298">
  <ele>1622.25</ele>
  <time>2026-08-28T19:08:21Z</time>
  <course>9.18</course>
  <speed>0.0</speed>
  <fix>3d</fix>
</trkpt>
<trkpt lat="40.0738604" lon="-105.2302297">
  <ele>1621.7</ele>
  <time>2026-08-28T19:08:21Z</time>
  <course>180.46</course>
  <speed>0.0</speed>
  <fix>3d</fix>
</trkpt>
<trkpt lat="40.0738605" lon="-105.2302298">
  <ele>1622.31</ele>
  <time>2026-08-28T19:08:21Z</time>
  <course>9.19</course>
  <speed>0.0</speed>
  <fix>3d</fix>
</trkpt>
<trkpt lat="40.0738605" lon="-105.2302298">
  <ele>1622.75</ele>
  <time>2026-08-28T19:08:21Z</time>
  <course>9.21</course>
  <speed>0.0</speed>
  <fix>3d</fix>
</trkpt>
<trkpt lat="40.0738604" lon="-105.2302297">
  <ele>1622.21</ele>
  <time>2026-08-28T19:08:21Z</time>
  <course>176.78</course>
  <speed>0.0</speed>
  <fix>3d</fix>
</trkpt>
<trkpt lat="40.0738605" lon="-105.2302298">
  <ele>1622.82</ele>
  <time>2026-08-28T19:08:21Z</time>
  <course>9.22</course>
  <speed>0.0</speed>
  <fix>3d</fix>
</trkpt>
<trkpt lat="40.0738605" lon="-105.2302298">
  <ele>1623.26</ele>
  <time>2026-08-28T19:08:21Z</time>
  <course>9.28</course>
  <speed>0.0</speed>
  <fix>3d</fix>
</trkpt>
<trkpt lat="40.0738604" lon="-105.2302297">
  <ele>1622.71</ele>
  <time>2026-08-28T19:08:21Z</time>
  <course>176.25</course>
  <speed>0.0</speed>
  <fix>3d</fix>
</trkpt>
<trkpt lat="40.0738605" lon="-105.2302298">
  <ele>1623.26</ele>
  <time>2026-08-28T19:08:21Z</time>
  <course>9.28</course>
  <speed>0.0</speed>
  <fix>3d</fix>
</trkpt>
<trkpt lat="40.0738605" lon="-105.2302298">
  <ele>1623.76</ele>
  <time>2026-08-28T19:08:21Z</time>
  <course>9.36</course>
  <speed>0.0</speed>
  <fix>3d</fix>
</trkpt>
<trkpt lat="40.0738604" lon="-105.2302297">
  <ele>1623.21</ele>
  <time>2026-08-28T19:08:21Z</time>
  <course>182.05</course>
  <speed>0.0</speed>
  <fix>3d</fix>
</trkpt>
<trkpt lat="40.0738605" lon="-105.2302298">
  <ele>1623.83</ele>
  <time>2026-08-28T19:08:21Z</time>
  <course>9.36</course>
  <speed>0.0</speed>
  <fix>3d</fix>
</trkpt>
<trkpt lat="40.0738605" lon="-105.2302298">
  <ele>1624.26</ele>
  <time>2026-08-28T19:08:21Z</time>
  <course>9.41</course>
  <speed>0.0</speed>
  <fix>3d</fix>
</trkpt>
<trkpt lat="40.0738604" lon="-105.2302297">
  <ele>1623.72</ele>
  <time>2026-08-28T19:08:21Z</time>
  <course>185.54</course>
  <speed>0.0</speed>
  <fix>3d</fix>
</trkpt>
<trkpt lat="40.0738605" lon="-105.2302298">
  <ele>1624.27</ele>
  <time>2026-08-28T19:08:21Z</time>
  <course>9.42</course>
  <speed>0.0</speed>
  <fix>3d</fix>
</trkpt>
<trkpt lat="40.0738605" lon="-105.2302298">
  <ele>1624.77</ele>
  <time>2026-08-28T19:08:21Z</time>
  <course>9.45</course>
  <speed>0.0</speed>
  <fix>3d</fix>
</trkpt>
<trkpt lat="40.0738604" lon="-105.2302297">
  <ele>1624.22</ele>
  <time>2026-08-28T19:08:21Z</time>
  <course>182.62</course>
  <speed>0.0</speed>
  <fix>3d</fix>
</trkpt>
<trkpt lat="40.0738605" lon="-105.2302298">
  <ele>1624.83</ele>
  <time>2026-08-28T19:08:21Z</time>
  <course>9.46</course>
  <speed>0.0</speed>
  <fix>3d</fix>
</trkpt>
<trkpt lat="40.0738605" lon="-105.2302298">
  <ele>1625.27</ele>
  <time>2026-08-28T19:08:21Z</time>
  <course>9.5</course>
  <speed>0.0</speed>
  <fix>3d</fix>
</trkpt>
<trkpt lat="40.0738604" lon="-105.2302297">
  <ele>1624.72</ele>
  <time>2026-08-28T19:08:21Z</time>
  <course>179.01</course>
  <speed>0.0</speed>
  <fix>3d</fix>
</trkpt>
<trkpt lat="40.0738605" lon="-105.2302298">
  <ele>1625.33</ele>
  <time>2026-08-28T19:08:21Z</time>
  <course>9.5</course>
  <speed>0.0</speed>
  <fix>3d</fix>
</trkpt>
<trkpt lat="40.0738605" lon="-105.2302298">
  <ele>1625.77</ele>
  <time>2026-08-28T19:08:21Z</time>
  <course>9.55</course>
  <speed>0.0</speed>
  <fix>3d</fix>
</trkpt>
<trkpt lat="40.0738604" lon="-105.2302297">
  <ele>1625.22</ele>
  <time>2026-08-28T19:08:21Z</time>
  <course>178.69</course>
  <speed>0.0</speed>
  <fix>3d</fix>
</trkpt>
<trkpt lat="40.0738605" lon="-105.2302298">
  <ele>1625.77</ele>
  <time>2026-08-28T19:08:21Z</time>
  <course>9.55</course>
  <speed>0.0</speed>
  <fix>3d</fix>
</trkpt>
<trkpt lat="40.0738605" lon="-105.2302298">
  <ele>1626.26</ele>
  <time>2026-08-28T19:08:21Z</time>
  <course>9.58</course>
  <speed>0.0</speed>
  <fix>3d</fix>
</trkpt>
<trkpt lat="40.0738604" lon="-105.2302297">
  <ele>1625.72</ele>
  <time>2026-08-28T19:08:21Z</time>
  <course>179.0</course>
  <speed>0.0</speed>
  <fix>3d</fix>
</trkpt>
<trkpt lat="40.0738605" lon="-105.2302298">
  <ele>1626.33</ele>
  <time>2026-08-28T19:08:21Z</time>
  <course>9.59</course>
  <speed>0.0</speed>
  <fix>3d</fix>
</trkpt>
<trkpt lat="40.0738605" lon="-105.2302298">
  <ele>1626.77</ele>
  <time>2026-08-28T19:08:21Z</time>
  <course>9.63</course>
  <speed>0.0</speed>
  <fix>3d</fix>
</trkpt>
<trkpt lat="40.0738604" lon="-105.2302297">
  <ele>1626.22</ele>
  <time>2026-08-28T19:08:21Z</time>
  <course>179.58</course>
  <speed>0.0</speed>
  <fix>3d</fix>
</trkpt>
<trkpt lat="40.0738605" lon="-105.2302298">
  <ele>1626.83</ele>
  <time>2026-08-28T19:08:21Z</time>
  <course>9.63</course>
  <speed>0.0</speed>
  <fix>3d</fix>
</trkpt>
<trkpt lat="40.0738605" lon="-105.2302298">
  <ele>1627.27</ele>
  <time>2026-08-28T19:08:21Z</time>
  <course>9.67</course>
  <speed>0.0</speed>
  <fix>3d</fix>
</trkpt>
<trkpt lat="40.0738604" lon="-105.2302297">
  <ele>1626.72</ele>
  <time>2026-08-28T19:08:21Z</time>
  <course>182.53</course>
  <speed>0.0</speed>
  <fix>3d</fix>
</trkpt>
<trkpt lat="40.0738605" lon="-105.2302298">
  <ele>1627.33</ele>
  <time>2026-08-28T19:08:21Z</time>
  <course>9.68</course>
  <speed>0.0</speed>
  <fix>3d</fix>
</trkpt>
<trkpt lat="40.0738604" lon="-105.2302298">
  <ele>1627.78</ele>
  <time>2026-08-28T19:08:21Z</time>
  <course>9.71</course>
  <speed>0.0</speed>
  <fix>3d</fix>
</trkpt>
<trkpt lat="40.0738604" lon="-105.2302297">
  <ele>1627.22</ele>
  <time>2026-08-28T19:08:21Z</time>
  <course>183.1</course>
  <speed>0.0</speed>
  <fix>3d</fix>
</trkpt>
<trkpt lat="40.0738604" lon="-105.2302298">
  <ele>1627.84</ele>
  <time>2026-08-28T19:08:21Z</time>
  <course>9.72</course>
  <speed>0.0</speed>
  <fix>3d</fix>
</trkpt>
<trkpt lat="40.0738604" lon="-105.2302298">
  <ele>1628.28</ele>
  <time>2026-08-28T19:08:21Z</time>
  <course>9.76</course>
  <speed>0.0</speed>
  <fix>3d</fix>
</trkpt>
<trkpt lat="40.0738604" lon="-105.2302297">
  <ele>1627.72</ele>
  <time>2026-08-28T19:08:21Z</time>
  <course>181.22</course>
  <speed>0.0</speed>
  <fix>3d</fix>
</trkpt>
<trkpt lat="40.0738604" lon="-105.2302298">
  <ele>1628.34</ele>
  <time>2026-08-28T19:08:21Z</time>
  <course>9.77</course>
  <speed>0.0</speed>
  <fix>3d</fix>
</trkpt>
<trkpt lat="40.0738604" lon="-105.2302298">
  <ele>1628.78</ele>
  <time>2026-08-28T19:08:21Z</time>
  <course>9.8</course>
  <speed>0.0</speed>
  <fix>3d</fix>
</trkpt>
<trkpt lat="40.0738604" lon="-105.2302297">
  <ele>1628.22</ele>
  <time>2026-08-28T19:08:21Z</time>
  <course>179.73</course>
  <speed>0.0</speed>
  <fix>3d</fix>
</trkpt>
<trkpt lat="40.0738604" lon="-105.2302298">
  <ele>1628.79</ele>
  <time>2026-08-28T19:08:21Z</time>
  <course>9.8</course>
  <speed>0.0</speed>
  <fix>3d</fix>
</trkpt>
<trkpt lat="40.0738604" lon="-105.2302298">
  <ele>1629.28</ele>
  <time>2026-08-28T19:08:21Z</time>
  <course>9.88</course>
  <speed>0.0</speed>
  <fix>3d</fix>
</trkpt>
<trkpt lat="40.0738603" lon="-105.2302297">
  <ele>1628.72</ele>
  <time>2026-08-28T19:08:21Z</time>
  <course>180.6</course>
  <speed>0.0</speed>
  <fix>3d</fix>
</trkpt>
<trkpt lat="40.0738604" lon="-105.2302298">
  <ele>1629.35</ele>
  <time>2026-08-28T19:08:21Z</time>
  <course>9.88</course>
  <speed>0.0</speed>
  <fix>3d</fix>
</trkpt>
<trkpt lat="40.0738604" lon="-105.2302298">
  <ele>1629.78</ele>
  <time>2026-08-28T19:08:21Z</time>
  <course>9.91</course>
  <speed>0.0</speed>
  <fix>3d</fix>
</trkpt>
<trkpt lat="40.0738603" lon="-105.2302297">
  <ele>1629.22</ele>
  <time>2026-08-28T19:08:21Z</time>
  <course>181.77</course>
  <speed>0.0</speed>
  <fix>3d</fix>
</trkpt>
<trkpt lat="40.0738604" lon="-105.2302298">
  <ele>1629.85</ele>
  <time>2026-08-28T19:08:21Z</time>
  <course>9.91</course>
  <speed>0.0</speed>
  <fix>3d</fix>
</trkpt>
<trkpt lat="40.0738604" lon="-105.2302298">
  <ele>1630.28</ele>
  <time>2026-08-28T19:08:21Z</time>
  <course>9.93</course>
  <speed>0.0</speed>
  <fix>3d</fix>
</trkpt>
<trkpt lat="40.0738603" lon="-105.2302297">
  <ele>1629.72</ele>
  <time>2026-08-28T19:08:21Z</time>
  <course>181.35</course>
  <speed>0.0</speed>
  <fix>3d</fix>
</trkpt>
<trkpt lat="40.0738604" lon="-105.2302298">
  <ele>1630.34</ele>
  <time>2026-08-28T19:08:21Z</time>
  <course>9.94</course>
  <speed>0.0</speed>
  <fix>3d</fix>
</trkpt>
<trkpt lat="40.0738604" lon="-105.2302298">
  <ele>1630.78</ele>
  <time>2026-08-28T19:08:21Z</time>
  <course>9.94</course>
  <speed>0.0</speed>
  <fix>3d</fix>
</trkpt>
<trkpt lat="40.0738603" lon="-105.2302297">
  <ele>1630.21</ele>
  <time>2026-08-28T19:08:21Z</time>
  <course>179.0</course>
  <speed>0.0</speed>
  <fix>3d</fix>
</trkpt>
<trkpt lat="40.0738604" lon="-105.2302298">
  <ele>1630.78</ele>
  <time>2026-08-28T19:08:21Z</time>
  <course>9.95</course>
  <speed>0.0</speed>
  <fix>3d</fix>
</trkpt>
<trkpt lat="40.0738604" lon="-105.2302298">
  <ele>1631.27</ele>
  <time>2026-08-28T19:08:21Z</time>
  <course>9.98</course>
  <speed>0.0</speed>
  <fix>3d</fix>
</trkpt>
<trkpt lat="40.0738603" lon="-105.2302297">
  <ele>1630.71</ele>
  <time>2026-08-28T19:08:21Z</time>
  <course>175.67</course>
  <speed>0.0</speed>
  <fix>3d</fix>
</trkpt>
<trkpt lat="40.0738604" lon="-105.2302298">
  <ele>1631.34</ele>
  <time>2026-08-28T19:08:21Z</time>
  <course>9.98</course>
  <speed>0.0</speed>
  <fix>3d</fix>
</trkpt>
<trkpt lat="40.0738604" lon="-105.2302298">
  <ele>1631.77</ele>
  <time>2026-08-28T19:08:21Z</time>
  <course>10.02</course>
  <speed>0.0</speed>
  <fix>3d</fix>
</trkpt>
<trkpt lat="40.0738603" lon="-105.2302297">
  <ele>1631.21</ele>
  <time>2026-08-28T19:08:21Z</time>
  <course>175.77</course>
  <speed>0.0</speed>
  <fix>3d</fix>
</trkpt>
<trkpt lat="40.0738604" lon="-105.2302298">
  <ele>1631.84</ele>
  <time>2026-08-28T19:08:21Z</time>
  <course>10.02</course>
  <speed>0.0</speed>
  <fix>3d</fix>
</trkpt>
<trkpt lat="40.0738604" lon="-105.2302298">
  <ele>1632.27</ele>
  <time>2026-08-28T19:08:21Z</time>
  <course>10.05</course>
  <speed>0.0</speed>
  <fix>3d</fix>
</trkpt>
<trkpt lat="40.0738603" lon="-105.2302297">
  <ele>1631.71</ele>
  <time>2026-08-28T19:08:21Z</time>
  <course>178.93</course>
  <speed>0.0</speed>
  <fix>3d</fix>
</trkpt>
<trkpt lat="40.0738604" lon="-105.2302298">
  <ele>1632.33</ele>
  <time>2026-08-28T19:08:21Z</time>
  <course>10.05</course>
  <speed>0.0</speed>
  <fix>3d</fix>
</trkpt>
<trkpt lat="40.0738604" lon="-105.2302298">
  <ele>1632.77</ele>
  <time>2026-08-28T19:08:21Z</time>
  <course>10.09</course>
  <speed>0.0</speed>
  <fix>3d</fix>
</trkpt>
<trkpt lat="40.0738603" lon="-105.2302297">
  <ele>1632.2</ele>
  <time>2026-08-28T19:08:21Z</time>
  <course>183.49</course>
  <speed>0.0</speed>
  <fix>3d</fix>
</trkpt>
<trkpt lat="40.0738604" lon="-105.2302298">
  <ele>1632.83</ele>
  <time>2026-08-28T19:08:21Z</time>
  <course>10.09</course>
  <speed>0.0</speed>
  <fix>3d</fix>
</trkpt>
<trkpt lat="40.0738604" lon="-105.2302298">
  <ele>1633.27</ele>
  <time>2026-08-28T19:08:21Z</time>
  <course>10.12</course>
  <speed>0.0</speed>
  <fix>3d</fix>
</trkpt>
<trkpt lat="40.0738602" lon="-105.2302297">
  <ele>1632.7</ele>
  <time>2026-08-28T19:08:21Z</time>
  <course>189.4</course>
  <speed>0.0</speed>
  <fix>3d</fix>
</trkpt>
<trkpt lat="40.0738604" lon="-105.2302298">
  <ele>1633.28</ele>
  <time>2026-08-28T19:08:21Z</time>
  <course>10.12</course>
  <speed>0.0</speed>
  <fix>3d</fix>
</trkpt>
<trkpt lat="40.0738604" lon="-105.2302298">
  <ele>1633.77</ele>
  <time>2026-08-28T19:08:21Z</time>
  <course>10.14</course>
  <speed>0.0</speed>
  <fix>3d</fix>
</trkpt>
<trkpt lat="40.0738602" lon="-105.2302297">
  <ele>1633.2</ele>
  <time>2026-08-28T19:08:21Z</time>
  <course>191.69</course>
  <speed>0.0</speed>
  <fix>3d</fix>
</trkpt>
<trkpt lat="40.0738604" lon="-105.2302298">
  <ele>1633.83</ele>
  <time>2026-08-28T19:08:21Z</time>
  <course>10.15</course>
  <speed>0.0</speed>
  <fix>3d</fix>
</trkpt>
<trkpt lat="40.0738604" lon="-105.2302298">
  <ele>1634.27</ele>
  <time>2026-08-28T19:08:21Z</time>
  <course>10.17</course>
  <speed>0.0</speed>
  <fix>3d</fix>
</trkpt>
<trkpt lat="40.0738602" lon="-105.2302297">
  <ele>1633.7</ele>
  <time>2026-08-28T19:08:21Z</time>
  <course>190.8</course>
  <speed>0.0</speed>
  <fix>3d</fix>
</trkpt>
<trkpt lat="40.0738604" lon="-105.2302298">
  <ele>1634.28</ele>
  <time>2026-08-28T19:08:21Z</time>
  <course>10.17</course>
  <speed>0.0</speed>
  <fix>3d</fix>
</trkpt>
<trkpt lat="40.0738604" lon="-105.2302298">
  <ele>1634.77</ele>
  <time>2026-08-28T19:08:21Z</time>
  <course>10.2</course>
  <speed>0.01</speed>
  <fix>3d</fix>
</trkpt>
<trkpt lat="40.0738602" lon="-105.2302297">
  <ele>1634.2</ele>
  <time>2026-08-28T19:08:21Z</time>
  <course>193.01</course>
  <speed>0.0</speed>
  <fix>3d</fix>
</trkpt>
<trkpt lat="40.0738604" lon="-105.2302298">
  <ele>1634.84</ele>
  <time>2026-08-28T19:08:21Z</time>
  <course>10.21</course>
  <speed>0.01</speed>
  <fix>3d</fix>
</trkpt>
<trkpt lat="40.0738603" lon="-105.2302298">
  <ele>1635.27</ele>
  <time>2026-08-28T19:08:21Z</time>
  <course>10.24</course>
  <speed>0.01</speed>
  <fix>3d</fix>
</trkpt>
<trkpt lat="40.0738602" lon="-105.2302297">
  <ele>1634.7</ele>
  <time>2026-08-28T19:08:21Z</time>
  <course>200.75</course>
  <speed>0.0</speed>
  <fix>3d</fix>
</trkpt>
<trkpt lat="40.0738603" lon="-105.2302298">
  <ele>1635.34</ele>
  <time>2026-08-28T19:08:21Z</time>
  <course>10.24</course>
  <speed>0.01</speed>
  <fix>3d</fix>
</trkpt>
<trkpt lat="40.0738603" lon="-105.2302298">
  <ele>1635.77</ele>
  <time>2026-08-28T19:08:21Z</time>
  <course>10.26</course>
  <speed>0.01</speed>
  <fix>3d</fix>
</trkpt>
<trkpt lat="40.0738602" lon="-105.2302297">
  <ele>1635.2</ele>
  <time>2026-08-28T19:08:21Z</time>
  <course>211.14</course>
  <speed>0.0</speed>
  <fix>3d</fix>
</trkpt>
<trkpt lat="40.0738603" lon="-105.2302298">
  <ele>1635.78</ele>
  <time>2026-08-28T19:08:21Z</time>
  <course>10.26</course>
  <speed>0.01</speed>
  <fix>3d</fix>
</trkpt>
<trkpt lat="40.0738603" lon="-105.2302298">
  <ele>1636.27</ele>
  <time>2026-08-28T19:08:21Z</time>
  <course>10.28</course>
  <speed>0.01</speed>
  <fix>3d</fix>
</trkpt>
<trkpt lat="40.0738602" lon="-105.2302297">
  <ele>1635.69</ele>
  <time>2026-08-28T19:08:21Z</time>
  <course>228.56</course>
  <speed>0.0</speed>
  <fix>3d</fix>
</trkpt>
<trkpt lat="40.0738603" lon="-105.2302298">
  <ele>1636.35</ele>
  <time>2026-08-28T19:08:21Z</time>
  <course>10.28</course>
  <speed>0.01</speed>
  <fix>3d</fix>
</trkpt>
<trkpt lat="40.0738603" lon="-105.2302298">
  <ele>1636.77</ele>
  <time>2026-08-28T19:08:21Z</time>
  <course>10.33</course>
  <speed>0.01</speed>
  <fix>3d</fix>
</trkpt>
<trkpt lat="40.0738602" lon="-105.2302297">
  <ele>1636.19</ele>
  <time>2026-08-28T19:08:21Z</time>
  <course>294.38</course>
  <speed>0.0</speed>
  <fix>3d</fix>
</trkpt>
<trkpt lat="40.0738603" lon="-105.2302298">
  <ele>1636.85</ele>
  <time>2026-08-28T19:08:21Z</time>
  <course>10.33</course>
  <speed>0.01</speed>
  <fix>3d</fix>
</trkpt>
<trkpt lat="40.0738603" lon="-105.2302298">
  <ele>1637.27</ele>
  <time>2026-08-28T19:08:21Z</time>
  <course>10.36</course>
  <speed>0.01</speed>
  <fix>3d</fix>
</trkpt>
<trkpt lat="40.0738602" lon="-105.2302297">
  <ele>1636.69</ele>
  <time>2026-08-28T19:08:21Z</time>
  <course>317.88</course>
  <speed>0.0</speed>
  <fix>3d</fix>
</trkpt>
<trkpt lat="40.0738603" lon="-105.2302298">
  <ele>1637.28</ele>
  <time>2026-08-28T19:08:21Z</time>
  <course>10.36</course>
  <speed>0.01</speed>
  <fix>3d</fix>
</trkpt>
<trkpt lat="40.0738603" lon="-105.2302298">
  <ele>1637.77</ele>
  <time>2026-08-28T19:08:21Z</time>
  <course>10.37</course>
  <speed>0.01</speed>
  <fix>3d</fix>
</trkpt>
<trkpt lat="40.0738602" lon="-105.2302297">
  <ele>1637.19</ele>
  <time>2026-08-28T19:08:21Z</time>
  <course>330.84</course>
  <speed>0.0</speed>
  <fix>3d</fix>
</trkpt>
<trkpt lat="40.0738603" lon="-105.2302298">
  <ele>1637.84</ele>
  <time>2026-08-28T19:08:21Z</time>
  <course>10.37</course>
  <speed>0.01</speed>
  <fix>3d</fix>
</trkpt>
<trkpt lat="40.0738603" lon="-105.2302298">
  <ele>1638.27</ele>
  <time>2026-08-28T19:08:21Z</time>
  <course>10.39</course>
  <speed>0.01</speed>
  <fix>3d</fix>
</trkpt>
<trkpt lat="40.0738602" lon="-105.2302297">
  <ele>1637.69</ele>
  <time>2026-08-28T19:08:21Z</time>
  <course>344.22</course>
  <speed>0.0</speed>
  <fix>3d</fix>
</trkpt>
<trkpt lat="40.0738603" lon="-105.2302298">
  <ele>1638.28</ele>
  <time>2026-08-28T19:08:21Z</time>
  <course>10.39</course>
  <speed>0.01</speed>
  <fix>3d</fix>
</trkpt>
<trkpt lat="40.0738603" lon="-105.2302298">
  <ele>1638.78</ele>
  <time>2026-08-28T19:08:21Z</time>
  <course>10.42</course>
  <speed>0.01</speed>
  <fix>3d</fix>
</trkpt>
<trkpt lat="40.0738602" lon="-105.2302297">
  <ele>1638.18</ele>
  <time>2026-08-28T19:08:21Z</time>
  <course>345.49</course>
  <speed>0.0</speed>
  <fix>3d</fix>
</trkpt>
<trkpt lat="40.0738603" lon="-105.2302298">
  <ele>1638.85</ele>
  <time>2026-08-28T19:08:21Z</time>
  <course>10.42</course>
  <speed>0.01</speed>
  <fix>3d</fix>
</trkpt>
<trkpt lat="40.0738603" lon="-105.2302298">
  <ele>1639.27</ele>
  <time>2026-08-28T19:08:21Z</time>
  <course>10.48</course>
  <speed>0.01</speed>
  <fix>3d</fix>
</trkpt>
<trkpt lat="40.0738602" lon="-105.2302297">
  <ele>1638.68</ele>
  <time>2026-08-28T19:08:21Z</time>
  <course>341.55</course>
  <speed>0.0</speed>
  <fix>3d</fix>
</trkpt>
<trkpt lat="40.0738603" lon="-105.2302298">
  <ele>1639.34</ele>
  <time>2026-08-28T19:08:21Z</time>
  <course>10.48</course>
  <speed>0.01</speed>
  <fix>3d</fix>
</trkpt>
<trkpt lat="40.0738603" lon="-105.2302298">
  <ele>1639.77</ele>
  <time>2026-08-28T19:08:21Z</time>
  <course>10.49</course>
  <speed>0.01</speed>
  <fix>3d</fix>
</trkpt>
<trkpt lat="40.0738602" lon="-105.2302297">
  <ele>1639.18</ele>
  <time>2026-08-28T19:08:21Z</time>
  <course>339.73</course>
  <speed>0.0</speed>
  <fix>3d</fix>
</trkpt>
<trkpt lat="40.0738603" lon="-105.2302298">
  <ele>1639.78</ele>
  <time>2026-08-28T19:08:21Z</time>
  <course>10.49</course>
  <speed>0.01</speed>
  <fix>3d</fix>
</trkpt>
<trkpt lat="40.0738603" lon="-105.2302298">
  <ele>1640.27</ele>
  <time>2026-08-28T19:08:21Z</time>
  <course>10.5</course>
  <speed>0.01</speed>
  <fix>3d</fix>
</trkpt>
<trkpt lat="40.0738602" lon="-105.2302297">
  <ele>1639.68</ele>
  <time>2026-08-28T19:08:21Z</time>
  <course>340.89</course>
  <speed>0.0</speed>
  <fix>3d</fix>
</trkpt>
<trkpt lat="40.0738603" lon="-105.2302298">
  <ele>1640.33</ele>
  <time>2026-08-28T19:08:21Z</time>
  <course>10.51</course>
  <speed>0.01</speed>
  <fix>3d</fix>
</trkpt>
<trkpt lat="40.0738603" lon="-105.2302298">
  <ele>1640.76</ele>
  <time>2026-08-28T19:08:21Z</time>
  <course>10.52</course>
  <speed>0.01</speed>
  <fix>3d</fix>
</trkpt>
<trkpt lat="40.0738602" lon="-105.2302297">
  <ele>1640.18</ele>
  <time>2026-08-28T19:08:21Z</time>
  <course>342.48</course>
  <speed>0.0</speed>
  <fix>3d</fix>
</trkpt>
<trkpt lat="40.0738603" lon="-105.2302298">
  <ele>1640.82</ele>
  <time>2026-08-28T19:08:21Z</time>
  <course>10.52</course>
  <speed>0.01</speed>
  <fix>3d</fix>
</trkpt>
<trkpt lat="40.0738603" lon="-105.2302298">
  <ele>1641.26</ele>
  <time>2026-08-28T19:08:21Z</time>
  <course>10.54</course>
  <speed>0.01</speed>
  <fix>3d</fix>
</trkpt>
<trkpt lat="40.0738602" lon="-105.2302297">
  <ele>1640.67</ele>
  <time>2026-08-28T19:08:21Z</time>
  <course>342.86</course>
  <speed>0.0</speed>
  <fix>3d</fix>
</trkpt>
<trkpt lat="40.0738603" lon="-105.2302298">
  <ele>1641.27</ele>
  <time>2026-08-28T19:08:21Z</time>
  <course>10.54</course>
  <speed>0.01</speed>
  <fix>3d</fix>
</trkpt>
<trkpt lat="40.0738603" lon="-105.2302298">
  <ele>1641.76</ele>
  <time>2026-08-28T19:08:21Z</time>
  <course>10.55</course>
  <speed>0.01</speed>
  <fix>3d</fix>
</trkpt>
<trkpt lat="40.0738602" lon="-105.2302297">
  <ele>1641.17</ele>
  <time>2026-08-28T19:08:21Z</time>
  <course>342.72</course>
  <speed>0.0</speed>
  <fix>3d</fix>
</trkpt>
<trkpt lat="40.0738603" lon="-105.2302298">
  <ele>1641.83</ele>
  <time>2026-08-28T19:08:21Z</time>
  <course>10.56</course>
  <speed>0.01</speed>
  <fix>3d</fix>
</trkpt>
<trkpt lat="40.0738603" lon="-105.2302298">
  <ele>1642.26</ele>
  <time>2026-08-28T19:08:21Z</time>
  <course>10.57</course>
  <speed>0.01</speed>
  <fix>3d</fix>
</trkpt>
<trkpt lat="40.0738602" lon="-105.2302297">
  <ele>1641.67</ele>
  <time>2026-08-28T19:08:21Z</time>
  <course>345.63</course>
  <speed>0.0</speed>
  <fix>3d</fix>
</trkpt>
<trkpt lat="40.0738603" lon="-105.2302298">
  <ele>1642.32</ele>
  <time>2026-08-28T19:08:21Z</time>
  <course>10.57</course>
  <speed>0.01</speed>
  <fix>3d</fix>
</trkpt>
<trkpt lat="40.0738603" lon="-105.2302298">
  <ele>1642.75</ele>
  <time>2026-08-28T19:08:21Z</time>
  <course>10.58</course>
  <speed>0.01</speed>
  <fix>3d</fix>
</trkpt>
<trkpt lat="40.0738602" lon="-105.2302297">
  <ele>1642.17</ele>
  <time>2026-08-28T19:08:21Z</time>
  <course>346.44</course>
  <speed>0.0</speed>
  <fix>3d</fix>
</trkpt>
<trkpt lat="40.0738603" lon="-105.2302298">
  <ele>1642.82</ele>
  <time>2026-08-28T19:08:21Z</time>
  <course>10.58</course>
  <speed>0.01</speed>
  <fix>3d</fix>
</trkpt>
<trkpt lat="40.0738603" lon="-105.2302298">
  <ele>1643.26</ele>
  <time>2026-08-28T19:08:21Z</time>
  <course>10.62</course>
  <speed>0.01</speed>
  <fix>3d</fix>
</trkpt>
<trkpt lat="40.0738602" lon="-105.2302297">
  <ele>1642.67</ele>
  <time>2026-08-28T19:08:21Z</time>
  <course>347.19</course>
  <speed>0.0</speed>
  <fix>3d</fix>
</trkpt>
<trkpt lat="40.0738603" lon="-105.2302298">
  <ele>1643.26</ele>
  <time>2026-08-28T19:08:21Z</time>
  <course>10.62</course>
  <speed>0.01</speed>
  <fix>3d</fix>
</trkpt>
<trkpt lat="40.0738603" lon="-105.2302298">
  <ele>1643.76</ele>
  <time>2026-08-28T19:08:21Z</time>
  <course>10.63</course>
  <speed>0.01</speed>
  <fix>3d</fix>
</trkpt>
<trkpt lat="40.0738602" lon="-105.2302297">
  <ele>1643.17</ele>
  <time>2026-08-28T19:08:21Z</time>
  <course>351.49</course>
  <speed>0.0</speed>
  <fix>3d</fix>
</trkpt>
<trkpt lat="40.0738603" lon="-105.2302298">
  <ele>1643.82</ele>
  <time>2026-08-28T19:08:21Z</time>
  <course>10.63</course>
  <speed>0.01</speed>
  <fix>3d</fix>
</trkpt>
<trkpt lat="40.0738603" lon="-105.2302298">
  <ele>1644.26</ele>
  <time>2026-08-28T19:08:21Z</time>
  <course>10.67</course>
  <speed>0.01</speed>
  <fix>3d</fix>
</trkpt>
<trkpt lat="40.0738602" lon="-105.2302297">
  <ele>1643.68</ele>
  <time>2026-08-28T19:08:21Z</time>
  <course>338.69</course>
  <speed>0.0</speed>
  <fix>3d</fix>
</trkpt>
<trkpt lat="40.0738603" lon="-105.2302298">
  <ele>1644.33</ele>
  <time>2026-08-28T19:08:21Z</time>
  <course>10.67</course>
  <speed>0.01</speed>
  <fix>3d</fix>
</trkpt>
<trkpt lat="40.0738603" lon="-105.2302298">
  <ele>1644.76</ele>
  <time>2026-08-28T19:08:21Z</time>
  <course>10.69</course>
  <speed>0.01</speed>
  <fix>3d</fix>
</trkpt>
<trkpt lat="40.0738602" lon="-105.2302297">
  <ele>1644.18</ele>
  <time>2026-08-28T19:08:21Z</time>
  <course>319.09</course>
  <speed>0.0</speed>
  <fix>3d</fix>
</trkpt>
<trkpt lat="40.0738603" lon="-105.2302298">
  <ele>1644.83</ele>
  <time>2026-08-28T19:08:21Z</time>
  <course>10.69</course>
  <speed>0.01</speed>
  <fix>3d</fix>
</trkpt>
<trkpt lat="40.0738603" lon="-105.2302298">
  <ele>1645.27</ele>
  <time>2026-08-28T19:08:21Z</time>
  <course>10.71</course>
  <speed>0.01</speed>
  <fix>3d</fix>
</trkpt>
<trkpt lat="40.0738602" lon="-105.2302297">
  <ele>1644.68</ele>
  <time>2026-08-28T19:08:21Z</time>
  <course>315.38</course>
  <speed>0.0</speed>
  <fix>3d</fix>
</trkpt>
<trkpt lat="40.0738603" lon="-105.2302298">
  <ele>1645.34</ele>
  <time>2026-08-28T19:08:21Z</time>
  <course>10.71</course>
  <speed>0.01</speed>
  <fix>3d</fix>
</trkpt>
<trkpt lat="40.0738603" lon="-105.2302298">
  <ele>1645.77</ele>
  <time>2026-08-28T19:08:21Z</time>
  <course>10.73</course>
  <speed>0.01</speed>
  <fix>3d</fix>
</trkpt>
<trkpt lat="40.0738602" lon="-105.2302297">
  <ele>1645.18</ele>
  <time>2026-08-28T19:08:21Z</time>
  <course>318.44</course>
  <speed>0.0</speed>
  <fix>3d</fix>
</trkpt>
<trkpt lat="40.0738603" lon="-105.2302298">
  <ele>1645.78</ele>
  <time>2026-08-28T19:08:21Z</time>
  <course>10.73</course>
  <speed>0.01</speed>
  <fix>3d</fix>
</trkpt>
<trkpt lat="40.0738603" lon="-105.2302298">
  <ele>1646.27</ele>
  <time>2026-08-28T19:08:21Z</time>
  <course>10.77</course>
  <speed>0.01</speed>
  <fix>3d</fix>
</trkpt>
<trkpt lat="40.0738602" lon="-105.2302297">
  <ele>1645.68</ele>
  <time>2026-08-28T19:08:21Z</time>
  <course>324.33</course>
  <speed>0.0</speed>
  <fix>3d</fix>
</trkpt>
<trkpt lat="40.0738603" lon="-105.2302298">
  <ele>1646.34</ele>
  <time>2026-08-28T19:08:21Z</time>
  <course>10.78</course>
  <speed>0.01</speed>
  <fix>3d</fix>
</trkpt>
<trkpt lat="40.0738603" lon="-105.2302298">
  <ele>1646.78</ele>
  <time>2026-08-28T19:08:21Z</time>
  <course>10.79</course>
  <speed>0.01</speed>
  <fix>3d</fix>
</trkpt>
<trkpt lat="40.0738602" lon="-105.2302297">
  <ele>1646.18</ele>
  <time>2026-08-28T19:08:21Z</time>
  <course>345.95</course>
  <speed>0.0</speed>
  <fix>3d</fix>
</trkpt>
<trkpt lat="40.0738603" lon="-105.2302298">
  <ele>1646.84</ele>
  <time>2026-08-28T19:08:21Z</time>
  <course>10.79</course>
  <speed>0.01</speed>
  <fix>3d</fix>
</trkpt>
<trkpt lat="40.0738603" lon="-105.2302298">
  <ele>1647.27</ele>
  <time>2026-08-28T19:08:21Z</time>
  <course>10.8</course>
  <speed>0.01</speed>
  <fix>3d</fix>
</trkpt>
<trkpt lat="40.0738602" lon="-105.2302297">
  <ele>1646.68</ele>
  <time>2026-08-28T19:08:21Z</time>
  <course>2.9</course>
  <speed>0.0</speed>
  <fix>3d</fix>
</trkpt>
<trkpt lat="40.0738603" lon="-105.2302298">
  <ele>1647.34</ele>
  <time>2026-08-28T19:08:21Z</time>
  <course>10.81</course>
  <speed>0.01</speed>
  <fix>3d</fix>
</trkpt>
<trkpt lat="40.0738603" lon="-105.2302298">
  <ele>1647.77</ele>
  <time>2026-08-28T19:08:21Z</time>
  <course>10.81</course>
  <speed>0.01</speed>
  <fix>3d</fix>
</trkpt>
<trkpt lat="40.0738602" lon="-105.2302297">
  <ele>1647.17</ele>
  <time>2026-08-28T19:08:21Z</time>
  <course>15.58</course>
  <speed>0.0</speed>
  <fix>3d</fix>
</trkpt>
<trkpt lat="40.0738603" lon="-105.2302298">
  <ele>1647.85</ele>
  <time>2026-08-28T19:08:21Z</time>
  <course>10.82</course>
  <speed>0.01</speed>
  <fix>3d</fix>
</trkpt>
<trkpt lat="40.0738603" lon="-105.2302298">
  <ele>1648.27</ele>
  <time>2026-08-28T19:08:21Z</time>
  <course>10.82</course>
  <speed>0.01</speed>
  <fix>3d</fix>
</trkpt>
<trkpt lat="40.0738602" lon="-105.2302297">
  <ele>1647.67</ele>
  <time>2026-08-28T19:08:21Z</time>
  <course>33.05</course>
  <speed>0.0</speed>
  <fix>3d</fix>
</trkpt>
<trkpt lat="40.0738603" lon="-105.2302298">
  <ele>1648.27</ele>
  <time>2026-08-28T19:08:21Z</time>
  <course>10.82</course>
  <speed>0.01</speed>
  <fix>3d</fix>
</trkpt>
<trkpt lat="40.0738603" lon="-105.2302298">
  <ele>1648.76</ele>
  <time>2026-08-28T19:08:21Z</time>
  <course>10.84</course>
  <speed>0.01</speed>
  <fix>3d</fix>
</trkpt>
<trkpt lat="40.0738602" lon="-105.2302297">
  <ele>1648.17</ele>
  <time>2026-08-28T19:08:21Z</time>
  <course>45.93</course>
  <speed>0.0</speed>
  <fix>3d</fix>
</trkpt>
<trkpt lat="40.0738603" lon="-105.2302298">
  <ele>1648.84</ele>
  <time>2026-08-28T19:08:21Z</time>
  <course>10.84</course>
  <speed>0.01</speed>
  <fix>3d</fix>
</trkpt>
<trkpt lat="40.0738603" lon="-105.2302298">
  <ele>1649.26</ele>
  <time>2026-08-28T19:08:21Z</time>
  <course>10.84</course>
  <speed>0.01</speed>
  <fix>3d</fix>
</trkpt>
<trkpt lat="40.0738602" lon="-105.2302297">
  <ele>1648.67</ele>
  <time>2026-08-28T19:08:21Z</time>
  <course>54.03</course>
  <speed>0.0</speed>
  <fix>3d</fix>
</trkpt>
<trkpt lat="40.0738603" lon="-105.2302298">
  <ele>1649.3</ele>
  <time>2026-08-28T19:08:21Z</time>
  <course>10.84</course>
  <speed>0.01</speed>
  <fix>3d</fix>
</trkpt>
<trkpt lat="40.0738603" lon="-105.2302298">
  <ele>1649.76</ele>
  <time>2026-08-28T19:08:21Z</time>
  <course>10.87</course>
  <speed>0.01</speed>
  <fix>3d</fix>
</trkpt>
<trkpt lat="40.0738602" lon="-105.2302297">
  <ele>1649.17</ele>
  <time>2026-08-28T19:08:21Z</time>
  <course>54.49</course>
  <speed>0.0</speed>
  <fix>3d</fix>
</trkpt>
<trkpt lat="40.0738603" lon="-105.2302298">
  <ele>1649.83</ele>
  <time>2026-08-28T19:08:21Z</time>
  <course>10.87</course>
  <speed>0.01</speed>
  <fix>3d</fix>
</trkpt>
<trkpt lat="40.0738603" lon="-105.2302298">
  <ele>1650.26</ele>
  <time>2026-08-28T19:08:21Z</time>
  <course>10.86</course>
  <speed>0.01</speed>
  <fix>3d</fix>
</trkpt>
<trkpt lat="40.0738602" lon="-105.2302297">
  <ele>1649.67</ele>
  <time>2026-08-28T19:08:21Z</time>
  <course>52.35</course>
  <speed>0.0</speed>
  <fix>3d</fix>
</trkpt>
<trkpt lat="40.0738603" lon="-105.2302298">
  <ele>1650.33</ele>
  <time>2026-08-28T19:08:21Z</time>
  <course>10.86</course>
  <speed>0.01</speed>
  <fix>3d</fix>
</trkpt>
<trkpt lat="40.0738603" lon="-105.2302298">
  <ele>1650.76</ele>
  <time>2026-08-28T19:08:21Z</time>
  <course>10.9</course>
  <speed>0.01</speed>
  <fix>3d</fix>
</trkpt>
<trkpt lat="40.0738602" lon="-105.2302297">
  <ele>1650.17</ele>
  <time>2026-08-28T19:08:21Z</time>
  <course>52.89</course>
  <speed>0.0</speed>
  <fix>3d</fix>
</trkpt>
<trkpt lat="40.0738603" lon="-105.2302298">
  <ele>1650.77</ele>
  <time>2026-08-28T19:08:21Z</time>
  <course>10.9</course>
  <speed>0.01</speed>
  <fix>3d</fix>
</trkpt>
<trkpt lat="40.0738603" lon="-105.2302298">
  <ele>1651.26</ele>
  <time>2026-08-28T19:08:21Z</time>
  <course>10.91</course>
  <speed>0.01</speed>
  <fix>3d</fix>
</trkpt>
<trkpt lat="40.0738602" lon="-105.2302297">
  <ele>1650.67</ele>
  <time>2026-08-28T19:08:21Z</time>
  <course>57.05</course>
  <speed>0.0</speed>
  <fix>3d</fix>
</trkpt>
<trkpt lat="40.0738603" lon="-105.2302298">
  <ele>1651.33</ele>
  <time>2026-08-28T19:08:21Z</time>
  <course>10.92</course>
  <speed>0.01</speed>
  <fix>3d</fix>
</trkpt>
<trkpt lat="40.0738603" lon="-105.2302298">
  <ele>1651.76</ele>
  <time>2026-08-28T19:08:21Z</time>
  <course>10.92</course>
  <speed>0.01</speed>
  <fix>3d</fix>
</trkpt>
<trkpt lat="40.0738602" lon="-105.2302297">
  <ele>1651.17</ele>
  <time>2026-08-28T19:08:21Z</time>
  <course>82.03</course>
  <speed>0.0</speed>
  <fix>3d</fix>
</trkpt>
<trkpt lat="40.0738603" lon="-105.2302298">
  <ele>1651.83</ele>
  <time>2026-08-28T19:08:21Z</time>
  <course>10.93</course>
  <speed>0.01</speed>
  <fix>3d</fix>
</trkpt>
<trkpt lat="40.0738603" lon="-105.2302298">
  <ele>1652.26</ele>
  <time>2026-08-28T19:08:21Z</time>
  <course>10.94</course>
  <speed>0.01</speed>
  <fix>3d</fix>
</trkpt>
<trkpt lat="40.0738602" lon="-105.2302297">
  <ele>1651.67</ele>
  <time>2026-08-28T19:08:21Z</time>
  <course>96.76</course>
  <speed>0.0</speed>
  <fix>3d</fix>
</trkpt>
<trkpt lat="40.0738603" lon="-105.2302298">
  <ele>1652.34</ele>
  <time>2026-08-28T19:08:21Z</time>
  <course>10.94</course>
  <speed>0.01</speed>
  <fix>3d</fix>
</trkpt>
<trkpt lat="40.0738603" lon="-105.2302298">
  <ele>1652.77</ele>
  <time>2026-08-28T19:08:21Z</time>
  <course>10.97</course>
  <speed>0.01</speed>
  <fix>3d</fix>
</trkpt>
<trkpt lat="40.0738602" lon="-105.2302297">
  <ele>1652.17</ele>
  <time>2026-08-28T19:08:21Z</time>
  <course>92.32</course>
  <speed>0.0</speed>
  <fix>3d</fix>
</trkpt>
<trkpt lat="40.0738603" lon="-105.2302298">
  <ele>1652.83</ele>
  <time>2026-08-28T19:08:21Z</time>
  <course>10.97</course>
  <speed>0.01</speed>
  <fix>3d</fix>
</trkpt>
<trkpt lat="40.0738603" lon="-105.2302298">
  <ele>1653.26</ele>
  <time>2026-08-28T19:08:21Z</time>
  <course>10.99</course>
  <speed>0.01</speed>
  <fix>3d</fix>
</trkpt>
<trkpt lat="40.0738602" lon="-105.2302297">
  <ele>1652.67</ele>
  <time>2026-08-28T19:08:21Z</time>
  <course>78.17</course>
  <speed>0.0</speed>
  <fix>3d</fix>
</trkpt>
<trkpt lat="40.0738603" lon="-105.2302298">
  <ele>1653.33</ele>
  <time>2026-08-28T19:08:21Z</time>
  <course>10.98</course>
  <speed>0.01</speed>
  <fix>3d</fix>
</trkpt>
<trkpt lat="40.0738603" lon="-105.2302298">
  <ele>1653.76</ele>
  <time>2026-08-28T19:08:21Z</time>
  <course>11.0</course>
  <speed>0.01</speed>
  <fix>3d</fix>
</trkpt>
<trkpt lat="40.0738602" lon="-105.2302297">
  <ele>1653.17</ele>
  <time>2026-08-28T19:08:21Z</time>
  <course>57.87</course>
  <speed>0.0</speed>
  <fix>3d</fix>
</trkpt>
<trkpt lat="40.0738603" lon="-105.2302298">
  <ele>1653.77</ele>
  <time>2026-08-28T19:08:21Z</time>
  <course>11.0</course>
  <speed>0.01</speed>
  <fix>3d</fix>
</trkpt>
<trkpt lat="40.0738603" lon="-105.2302298">
  <ele>1654.26</ele>
  <time>2026-08-28T19:08:21Z</time>
  <course>11.01</course>
  <speed>0.01</speed>
  <fix>3d</fix>
</trkpt>
<trkpt lat="40.0738602" lon="-105.2302297">
  <ele>1653.67</ele>
  <time>2026-08-28T19:08:21Z</time>
  <course>62.49</course>
  <speed>0.0</speed>
  <fix>3d</fix>
</trkpt>
<trkpt lat="40.0738603" lon="-105.2302298">
  <ele>1654.31</ele>
  <time>2026-08-28T19:08:21Z</time>
  <course>11.01</course>
  <speed>0.01</speed>
  <fix>3d</fix>
</trkpt>
<trkpt lat="40.0738603" lon="-105.2302298">
  <ele>1654.75</ele>
  <time>2026-08-28T19:08:21Z</time>
  <course>10.99</course>
  <speed>0.01</speed>
  <fix>3d</fix>
</trkpt>
<trkpt lat="40.0738602" lon="-105.2302297">
  <ele>1654.17</ele>
  <time>2026-08-28T19:08:21Z</time>
  <course>92.84</course>
  <speed>0.0</speed>
  <fix>3d</fix>
</trkpt>
<trkpt lat="40.0738603" lon="-105.2302298">
  <ele>1654.83</ele>
  <time>2026-08-28T19:08:21Z</time>
  <course>10.99</course>
  <speed>0.01</speed>
  <fix>3d</fix>
</trkpt>
<trkpt lat="40.0738603" lon="-105.2302298">
  <ele>1655.25</ele>
  <time>2026-08-28T19:08:21Z</time>
  <course>11.02</course>
  <speed>0.01</speed>
  <fix>3d</fix>
</trkpt>
<trkpt lat="40.0738602" lon="-105.2302297">
  <ele>1654.67</ele>
  <time>2026-08-28T19:08:21Z</time>
  <course>104.32</course>
  <speed>0.0</speed>
  <fix>3d</fix>
</trkpt>
<trkpt lat="40.0738603" lon="-105.2302298">
  <ele>1655.32</ele>
  <time>2026-08-28T19:08:21Z</time>
  <course>11.02</course>
  <speed>0.01</speed>
  <fix>3d</fix>
</trkpt>
<trkpt lat="40.0738603" lon="-105.2302298">
  <ele>1655.75</ele>
  <time>2026-08-28T19:08:21Z</time>
  <course>11.04</course>
  <speed>0.01</speed>
  <fix>3d</fix>
</trkpt>
<trkpt lat="40.0738602" lon="-105.2302297">
  <ele>1655.17</ele>
  <time>2026-08-28T19:08:21Z</time>
  <course>107.98</course>
  <speed>0.0</speed>
  <fix>3d</fix>
</trkpt>
<trkpt lat="40.0738603" lon="-105.2302298">
  <ele>1655.82</ele>
  <time>2026-08-28T19:08:21Z</time>
  <course>11.03</course>
  <speed>0.01</speed>
  <fix>3d</fix>
</trkpt>
<trkpt lat="40.0738603" lon="-105.2302298">
  <ele>1656.25</ele>
  <time>2026-08-28T19:08:21Z</time>
  <course>11.03</course>
  <speed>0.01</speed>
  <fix>3d</fix>
</trkpt>
<trkpt lat="40.0738602" lon="-105.2302297">
  <ele>1655.67</ele>
  <time>2026-08-28T19:08:21Z</time>
  <course>117.7</course>
  <speed>0.0</speed>
  <fix>3d</fix>
</trkpt>
<trkpt lat="40.0738603" lon="-105.2302298">
  <ele>1656.26</ele>
  <time>2026-08-28T19:08:21Z</time>
  <course>11.03</course>
  <speed>0.01</speed>
  <fix>3d</fix>
</trkpt>
<trkpt lat="40.0738603" lon="-105.2302298">
  <ele>1656.75</ele>
  <time>2026-08-28T19:08:21Z</time>
  <course>11.05</course>
  <speed>0.01</speed>
  <fix>3d</fix>
</trkpt>
<trkpt lat="40.0738602" lon="-105.2302297">
  <ele>1656.18</ele>
  <time>2026-08-28T19:08:21Z</time>
  <course>126.66</course>
  <speed>0.0</speed>
  <fix>3d</fix>
</trkpt>
<trkpt lat="40.0738603" lon="-105.2302298">
  <ele>1656.82</ele>
  <time>2026-08-28T19:08:21Z</time>
  <course>11.05</course>
  <speed>0.01</speed>
  <fix>3d</fix>
</trkpt>
<trkpt lat="40.0738603" lon="-105.2302298">
  <ele>1657.25</ele>
  <time>2026-08-28T19:08:21Z</time>
  <course>11.07</course>
  <speed>0.01</speed>
  <fix>3d</fix>
</trkpt>
<trkpt lat="40.0738602" lon="-105.2302297">
  <ele>1656.68</ele>
  <time>2026-08-28T19:08:21Z</time>
  <course>128.49</course>
  <speed>0.0</speed>
  <fix>3d</fix>
</trkpt>
<trkpt lat="40.0738603" lon="-105.2302298">
  <ele>1657.3</ele>
  <time>2026-08-28T19:08:21Z</time>
  <course>11.07</course>
  <speed>0.01</speed>
  <fix>3d</fix>
</trkpt>
<trkpt lat="40.0738603" lon="-105.2302298">
  <ele>1657.75</ele>
  <time>2026-08-28T19:08:21Z</time>
  <course>11.07</course>
  <speed>0.01</speed>
  <fix>3d</fix>
</trkpt>
<trkpt lat="40.0738602" lon="-105.2302297">
  <ele>1657.18</ele>
  <time>2026-08-28T19:08:21Z</time>
  <course>129.47</course>
  <speed>0.0</speed>
  <fix>3d</fix>
</trkpt>
<trkpt lat="40.0738603" lon="-105.2302298">
  <ele>1657.8</ele>
  <time>2026-08-28T19:08:21Z</time>
  <course>11.07</course>
  <speed>0.01</speed>
  <fix>3d</fix>
</trkpt>
<trkpt lat="40.0738603" lon="-105.2302298">
  <ele>1658.25</ele>
  <time>2026-08-28T19:08:21Z</time>
  <course>11.09</course>
  <speed>0.01</speed>
  <fix>3d</fix>
</trkpt>
<trkpt lat="40.0738602" lon="-105.2302297">
  <ele>1657.68</ele>
  <time>2026-08-28T19:08:21Z</time>
  <course>130.56</course>
  <speed>0.0</speed>
  <fix>3d</fix>
</trkpt>
<trkpt lat="40.0738603" lon="-105.2302298">
  <ele>1658.26</ele>
  <time>2026-08-28T19:08:21Z</time>
  <course>11.09</course>
  <speed>0.01</speed>
  <fix>3d</fix>
</trkpt>
<trkpt lat="40.0738603" lon="-105.2302298">
  <ele>1658.75</ele>
  <time>2026-08-28T19:08:21Z</time>
  <course>11.12</course>
  <speed>0.01</speed>
  <fix>3d</fix>
</trkpt>
<trkpt lat="40.0738602" lon="-105.2302297">
  <ele>1658.18</ele>
  <time>2026-08-28T19:08:21Z</time>
  <course>132.09</course>
  <speed>0.0</speed>
  <fix>3d</fix>
</trkpt>
<trkpt lat="40.0738603" lon="-105.2302298">
  <ele>1658.81</ele>
  <time>2026-08-28T19:08:21Z</time>
  <course>11.11</course>
  <speed>0.01</speed>
  <fix>3d</fix>
</trkpt>
<trkpt lat="40.0738603" lon="-105.2302298">
  <ele>1659.26</ele>
  <time>2026-08-28T19:08:21Z</time>
  <course>11.09</course>
  <speed>0.01</speed>
  <fix>3d</fix>
</trkpt>
<trkpt lat="40.0738602" lon="-105.2302297">
  <ele>1658.69</ele>
  <time>2026-08-28T19:08:21Z</time>
  <course>134.24</course>
  <speed>0.0</speed>
  <fix>3d</fix>
</trkpt>
<trkpt lat="40.0738603" lon="-105.2302298">
  <ele>1659.26</ele>
  <time>2026-08-28T19:08:21Z</time>
  <course>11.09</course>
  <speed>0.01</speed>
  <fix>3d</fix>
</trkpt>
<trkpt lat="40.0738603" lon="-105.2302298">
  <ele>1659.76</ele>
  <time>2026-08-28T19:08:21Z</time>
  <course>11.11</course>
  <speed>0.01</speed>
  <fix>3d</fix>
</trkpt>
<trkpt lat="40.0738602" lon="-105.2302297">
  <ele>1659.19</ele>
  <time>2026-08-28T19:08:21Z</time>
  <course>138.09</course>
  <speed>0.0</speed>
  <fix>3d</fix>
</trkpt>
<trkpt lat="40.0738603" lon="-105.2302298">
  <ele>1659.82</ele>
  <time>2026-08-28T19:08:21Z</time>
  <course>11.12</course>
  <speed>0.01</speed>
  <fix>3d</fix>
</trkpt>
<trkpt lat="40.0738603" lon="-105.2302298">
  <ele>1660.26</ele>
  <time>2026-08-28T19:08:21Z</time>
  <course>11.13</course>
  <speed>0.01</speed>
  <fix>3d</fix>
</trkpt>
<trkpt lat="40.0738602" lon="-105.2302296">
  <ele>1659.7</ele>
  <time>2026-08-28T19:08:21Z</time>
  <course>136.71</course>
  <speed>0.0</speed>
  <fix>3d</fix>
</trkpt>
<trkpt lat="40.0738603" lon="-105.2302298">
  <ele>1660.33</ele>
  <time>2026-08-28T19:08:21Z</time>
  <course>11.13</course>
  <speed>0.01</speed>
  <fix>3d</fix>
</trkpt>
<trkpt lat="40.0738603" lon="-105.2302298">
  <ele>1660.76</ele>
  <time>2026-08-28T19:08:21Z</time>
  <course>11.14</course>
  <speed>0.01</speed>
  <fix>3d</fix>
</trkpt>
<trkpt lat="40.0738602" lon="-105.2302296">
  <ele>1660.2</ele>
  <time>2026-08-28T19:08:21Z</time>
  <course>133.47</course>
  <speed>0.0</speed>
  <fix>3d</fix>
</trkpt>
<trkpt lat="40.0738603" lon="-105.2302298">
  <ele>1660.77</ele>
  <time>2026-08-28T19:08:21Z</time>
  <course>11.15</course>
  <speed>0.01</speed>
  <fix>3d</fix>
</trkpt>
<trkpt lat="40.0738603" lon="-105.2302298">
  <ele>1661.26</ele>
  <time>2026-08-28T19:08:21Z</time>
  <course>11.16</course>
  <speed>0.01</speed>
  <fix>3d</fix>
</trkpt>
<trkpt lat="40.0738602" lon="-105.2302296">
  <ele>1660.7</ele>
  <time>2026-08-28T19:08:21Z</time>
  <course>136.35</course>
  <speed>0.0</speed>
  <fix>3d</fix>
</trkpt>
<trkpt lat="40.0738603" lon="-105.2302298">
  <ele>1661.33</ele>
  <time>2026-08-28T19:08:21Z</time>
  <course>11.17</course>
  <speed>0.01</speed>
  <fix>3d</fix>
</trkpt>
<trkpt lat="40.0738603" lon="-105.2302298">
  <ele>1661.77</ele>
  <time>2026-08-28T19:08:21Z</time>
  <course>11.19</course>
  <speed>0.01</speed>
  <fix>3d</fix>
</trkpt>
<trkpt lat="40.0738602" lon="-105.2302296">
  <ele>1661.2</ele>
  <time>2026-08-28T19:08:21Z</time>
  <course>144.07</course>
  <speed>0.0</speed>
  <fix>3d</fix>
</trkpt>
<trkpt lat="40.0738603" lon="-105.2302298">
  <ele>1661.77</ele>
  <time>2026-08-28T19:08:21Z</time>
  <course>11.19</course>
  <speed>0.01</speed>
  <fix>3d</fix>
</trkpt>
<trkpt lat="40.0738603" lon="-105.2302297">
  <ele>1662.27</ele>
  <time>2026-08-28T19:08:21Z</time>
  <course>11.21</course>
  <speed>0.01</speed>
  <fix>3d</fix>
</trkpt>
<trkpt lat="40.0738602" lon="-105.2302296">
  <ele>1661.7</ele>
  <time>2026-08-28T19:08:21Z</time>
  <course>150.54</course>
  <speed>0.0</speed>
  <fix>3d</fix>
</trkpt>
<trkpt lat="40.0738603" lon="-105.2302297">
  <ele>1662.34</ele>
  <time>2026-08-28T19:08:21Z</time>
  <course>11.21</course>
  <speed>0.01</speed>
  <fix>3d</fix>
</trkpt>
<trkpt lat="40.0738603" lon="-105.2302297">
  <ele>1662.77</ele>
  <time>2026-08-28T19:08:21Z</time>
  <course>11.22</course>
  <speed>0.01</speed>
  <fix>3d</fix>
</trkpt>
<trkpt lat="40.0738602" lon="-105.2302296">
  <ele>1662.2</ele>
  <time>2026-08-28T19:08:21Z</time>
  <course>151.91</course>
  <speed>0.0</speed>
  <fix>3d</fix>
</trkpt>
<trkpt lat="40.0738603" lon="-105.2302297">
  <ele>1662.84</ele>
  <time>2026-08-28T19:08:21Z</time>
  <course>11.22</course>
  <speed>0.01</speed>
  <fix>3d</fix>
</trkpt>
<trkpt lat="40.0738603" lon="-105.2302297">
  <ele>1663.27</ele>
  <time>2026-08-28T19:08:21Z</time>
  <course>11.23</course>
  <speed>0.01</speed>
  <fix>3d</fix>
</trkpt>
<trkpt lat="40.0738602" lon="-105.2302296">
  <ele>1662.7</ele>
  <time>2026-08-28T19:08:21Z</time>
  <course>151.95</course>
  <speed>0.0</speed>
  <fix>3d</fix>
</trkpt>
<trkpt lat="40.0738603" lon="-105.2302297">
  <ele>1663.34</ele>
  <time>2026-08-28T19:08:21Z</time>
  <course>11.23</course>
  <speed>0.01</speed>
  <fix>3d</fix>
</trkpt>
<trkpt lat="40.0738603" lon="-105.2302297">
  <ele>1663.77</ele>
  <time>2026-08-28T19:08:21Z</time>
  <course>11.23</course>
  <speed>0.01</speed>
  <fix>3d</fix>
</trkpt>
<trkpt lat="40.0738602" lon="-105.2302296">
  <ele>1663.2</ele>
  <time>2026-08-28T19:08:21Z</time>
  <course>150.94</course>
  <speed>0.0</speed>
  <fix>3d</fix>
</trkpt>
<trkpt lat="40.0738603" lon="-105.2302297">
  <ele>1663.84</ele>
  <time>2026-08-28T19:08:21Z</time>
  <course>11.24</course>
  <speed>0.01</speed>
  <fix>3d</fix>
</trkpt>
<trkpt lat="40.0738603" lon="-105.2302297">
  <ele>1664.27</ele>
  <time>2026-08-28T19:08:21Z</time>
  <course>11.24</course>
  <speed>0.01</speed>
  <fix>3d</fix>
</trkpt>
<trkpt lat="40.0738602" lon="-105.2302296">
  <ele>1663.7</ele>
  <time>2026-08-28T19:08:21Z</time>
  <course>150.36</course>
  <speed>0.0</speed>
  <fix>3d</fix>
</trkpt>
<trkpt lat="40.0738603" lon="-105.2302297">
  <ele>1664.34</ele>
  <time>2026-08-28T19:08:21Z</time>
  <course>11.24</course>
  <speed>0.01</speed>
  <fix>3d</fix>
</trkpt>
<trkpt lat="40.0738603" lon="-105.2302297">
  <ele>1664.78</ele>
  <time>2026-08-28T19:08:21Z</time>
  <course>11.26</course>
  <speed>0.01</speed>
  <fix>3d</fix>
</trkpt>
<trkpt lat="40.0738602" lon="-105.2302296">
  <ele>1664.2</ele>
  <time>2026-08-28T19:08:21Z</time>
  <course>154.62</course>
  <speed>0.0</speed>
  <fix>3d</fix>
</trkpt>
<trkpt lat="40.0738603" lon="-105.2302297">
  <ele>1664.78</ele>
  <time>2026-08-28T19:08:21Z</time>
  <course>11.26</course>
  <speed>0.01</speed>
  <fix>3d</fix>
</trkpt>
<trkpt lat="40.0738603" lon="-105.2302297">
  <ele>1665.28</ele>
  <time>2026-08-28T19:08:21Z</time>
  <course>11.26</course>
  <speed>0.01</speed>
  <fix>3d</fix>
</trkpt>
<trkpt lat="40.0738602" lon="-105.2302296">
  <ele>1664.7</ele>
  <time>2026-08-28T19:08:21Z</time>
  <course>171.94</course>
  <speed>0.0</speed>
  <fix>3d</fix>
</trkpt>
<trkpt lat="40.0738603" lon="-105.2302297">
  <ele>1665.34</ele>
  <time>2026-08-28T19:08:21Z</time>
  <course>11.27</course>
  <speed>0.01</speed>
  <fix>3d</fix>
</trkpt>
<trkpt lat="40.0738603" lon="-105.2302297">
  <ele>1665.78</ele>
  <time>2026-08-28T19:08:21Z</time>
  <course>11.28</course>
  <speed>0.01</speed>
  <fix>3d</fix>
</trkpt>
<trkpt lat="40.0738602" lon="-105.2302296">
  <ele>1665.2</ele>
  <time>2026-08-28T19:08:21Z</time>
  <course>195.34</course>
  <speed>0.0</speed>
  <fix>3d</fix>
</trkpt>
<trkpt lat="40.0738603" lon="-105.2302297">
  <ele>1665.84</ele>
  <time>2026-08-28T19:08:21Z</time>
  <course>11.28</course>
  <speed>0.01</speed>
  <fix>3d</fix>
</trkpt>
<trkpt lat="40.0738603" lon="-105.2302297">
  <ele>1666.28</ele>
  <time>2026-08-28T19:08:21Z</time>
  <course>11.32</course>
  <speed>0.01414213562373095</speed>
  <fix>3d</fix>
</trkpt>
<trkpt lat="40.0738602" lon="-105.2302296">
  <ele>1665.7</ele>
  <time>2026-08-28T19:08:21Z</time>
  <course>213.81</course>
  <speed>0.0</speed>
  <fix>3d</fix>
</trkpt>
<trkpt lat="40.0738603" lon="-105.2302297">
  <ele>1666.29</ele>
  <time>2026-08-28T19:08:21Z</time>
  <course>11.32</course>
  <speed>0.01414213562373095</speed>
  <fix>3d</fix>
</trkpt>
<trkpt lat="40.0738603" lon="-105.2302297">
  <ele>1666.78</ele>
  <time>2026-08-28T19:08:21Z</time>
  <course>11.31</course>
  <speed>0.01414213562373095</speed>
  <fix>3d</fix>
</trkpt>
<trkpt lat="40.0738602" lon="-105.2302296">
  <ele>1666.2</ele>
  <time>2026-08-28T19:08:21Z</time>
  <course>219.85</course>
  <speed>0.0</speed>
  <fix>3d</fix>
</trkpt>
<trkpt lat="40.0738603" lon="-105.2302297">
  <ele>1666.86</ele>
  <time>2026-08-28T19:08:21Z</time>
  <course>11.31</course>
  <speed>0.01414213562373095</speed>
  <fix>3d</fix>
</trkpt>
<trkpt lat="40.0738603" lon="-105.2302297">
  <ele>1667.28</ele>
  <time>2026-08-28T19:08:21Z</time>
  <course>11.31</course>
  <speed>0.01414213562373095</speed>
  <fix>3d</fix>
</trkpt>
<trkpt lat="40.0738602" lon="-105.2302296">
  <ele>1666.69</ele>
  <time>2026-08-28T19:08:21Z</time>
  <course>220.53</course>
  <speed>0.0</speed>
  <fix>3d</fix>
</trkpt>
<trkpt lat="40.0738603" lon="-105.2302297">
  <ele>1667.28</ele>
  <time>2026-08-28T19:08:21Z</time>
  <course>11.31</course>
  <speed>0.01414213562373095</speed>
  <fix>3d</fix>
</trkpt>
<trkpt lat="40.0738603" lon="-105.2302297">
  <ele>1667.77</ele>
  <time>2026-08-28T19:08:21Z</time>
  <course>11.31</course>
  <speed>0.01414213562373095</speed>
  <fix>3d</fix>
</trkpt>
<trkpt lat="40.0738602" lon="-105.2302296">
  <ele>1667.19</ele>
  <time>2026-08-28T19:08:21Z</time>
  <course>220.54</course>
  <speed>0.0</speed>
  <fix>3d</fix>
</trkpt>
<trkpt lat="40.0738603" lon="-105.2302297">
  <ele>1667.85</ele>
  <time>2026-08-28T19:08:21Z</time>
  <course>11.31</course>
  <speed>0.01414213562373095</speed>
  <fix>3d</fix>
</trkpt>
<trkpt lat="40.0738603" lon="-105.2302297">
  <ele>1668.27</ele>
  <time>2026-08-28T19:08:21Z</time>
  <course>11.32</course>
  <speed>0.01414213562373095</speed>
  <fix>3d</fix>
</trkpt>
<trkpt lat="40.0738602" lon="-105.2302296">
  <ele>1667.69</ele>
  <time>2026-08-28T19:08:21Z</time>
  <course>219.4</course>
  <speed>0.0</speed>
  <fix>3d</fix>
</trkpt>
<trkpt lat="40.0738603" lon="-105.2302297">
  <ele>1668.27</ele>
  <time>2026-08-28T19:08:21Z</time>
  <course>11.32</course>
  <speed>0.01414213562373095</speed>
  <fix>3d</fix>
</trkpt>
<trkpt lat="40.0738603" lon="-105.2302297">
  <ele>1668.77</ele>
  <time>2026-08-28T19:08:21Z</time>
  <course>11.32</course>
  <speed>0.01414213562373095</speed>
  <fix>3d</fix>
</trkpt>
<trkpt lat="40.0738602" lon="-105.2302296">
  <ele>1668.18</ele>
  <time>2026-08-28T19:08:21Z</time>
  <course>219.19</course>
  <speed>0.0</speed>
  <fix>3d</fix>
</trkpt>
<trkpt lat="40.0738603" lon="-105.2302297">
  <ele>1668.84</ele>
  <time>2026-08-28T19:08:21Z</time>
  <course>11.32</course>
  <speed>0.01414213562373095</speed>
  <fix>3d</fix>
</trkpt>
<trkpt lat="40.0738603" lon="-105.2302297">
  <ele>1669.27</ele>
  <time>2026-08-28T19:08:21Z</time>
  <course>11.34</course>
  <speed>0.01414213562373095</speed>
  <fix>3d</fix>
</trkpt>
<trkpt lat="40.0738602" lon="-105.2302296">
  <ele>1668.68</ele>
  <time>2026-08-28T19:08:21Z</time>
  <course>219.59</course>
  <speed>0.0</speed>
  <fix>3d</fix>
</trkpt>
<trkpt lat="40.0738603" lon="-105.2302297">
  <ele>1669.34</ele>
  <time>2026-08-28T19:08:21Z</time>
  <course>11.35</course>
  <speed>0.01414213562373095</speed>
  <fix>3d</fix>
</trkpt>
<trkpt lat="40.0738603" lon="-105.2302297">
  <ele>1669.77</ele>
  <time>2026-08-28T19:08:21Z</time>
  <course>11.34</course>
  <speed>0.01414213562373095</speed>
  <fix>3d</fix>
</trkpt>
<trkpt lat="40.0738602" lon="-105.2302296">
  <ele>1669.18</ele>
  <time>2026-08-28T19:08:21Z</time>
  <course>220.31</course>
  <speed>0.0</speed>
  <fix>3d</fix>
</trkpt>
<trkpt lat="40.0738603" lon="-105.2302297">
  <ele>1669.83</ele>
  <time>2026-08-28T19:08:21Z</time>
  <course>11.35</course>
  <speed>0.01414213562373095</speed>
  <fix>3d</fix>
</trkpt>
<trkpt lat="40.0738603" lon="-105.2302297">
  <ele>1670.26</ele>
  <time>2026-08-28T19:08:21Z</time>
  <course>11.35</course>
  <speed>0.01414213562373095</speed>
  <fix>3d</fix>
</trkpt>
<trkpt lat="40.0738602" lon="-105.2302296">
  <ele>1669.68</ele>
  <time>2026-08-28T19:08:21Z</time>
  <course>221.82</course>
  <speed>0.0</speed>
  <fix>3d</fix>
</trkpt>
<trkpt lat="40.0738603" lon="-105.2302297">
  <ele>1670.32</ele>
  <time>2026-08-28T19:08:21Z</time>
  <course>11.35</course>
  <speed>0.01414213562373095</speed>
  <fix>3d</fix>
</trkpt>
<trkpt lat="40.0738603" lon="-105.2302297">
  <ele>1670.76</ele>
  <time>2026-08-28T19:08:21Z</time>
  <course>11.35</course>
  <speed>0.01</speed>
  <fix>3d</fix>
</trkpt>
<trkpt lat="40.0738602" lon="-105.2302296">
  <ele>1670.18</ele>
  <time>2026-08-28T19:08:21Z</time>
  <course>222.34</course>
  <speed>0.0</speed>
  <fix>3d</fix>
</trkpt>
<trkpt lat="40.0738603" lon="-105.2302297">
  <ele>1670.82</ele>
  <time>2026-08-28T19:08:21Z</time>
  <course>11.35</course>
  <speed>0.01</speed>
  <fix>3d</fix>
</trkpt>
<trkpt lat="40.0738603" lon="-105.2302297">
  <ele>1671.26</ele>
  <time>2026-08-28T19:08:21Z</time>
  <course>11.34</course>
  <speed>0.01</speed>
  <fix>3d</fix>
</trkpt>
<trkpt lat="40.0738602" lon="-105.2302296">
  <ele>1670.68</ele>
  <time>2026-08-28T19:08:21Z</time>
  <course>220.74</course>
  <speed>0.0</speed>
  <fix>3d</fix>
</trkpt>
<trkpt lat="40.0738603" lon="-105.2302297">
  <ele>1671.32</ele>
  <time>2026-08-28T19:08:21Z</time>
  <course>11.34</course>
  <speed>0.01</speed>
  <fix>3d</fix>
</trkpt>
<trkpt lat="40.0738603" lon="-105.2302297">
  <ele>1671.76</ele>
  <time>2026-08-28T19:08:21Z</time>
  <course>11.35</course>
  <speed>0.01</speed>
  <fix>3d</fix>
</trkpt>
<trkpt lat="40.0738602" lon="-105.2302296">
  <ele>1671.18</ele>
  <time>2026-08-28T19:08:21Z</time>
  <course>221.05</course>
  <speed>0.0</speed>
  <fix>3d</fix>
</trkpt>
<trkpt lat="40.0738603" lon="-105.2302297">
  <ele>1671.82</ele>
  <time>2026-08-28T19:08:21Z</time>
  <course>11.35</course>
  <speed>0.01</speed>
  <fix>3d</fix>
</trkpt>
<trkpt lat="40.0738603" lon="-105.2302297">
  <ele>1672.26</ele>
  <time>2026-08-28T19:08:21Z</time>
  <course>11.35</course>
  <speed>0.01</speed>
  <fix>3d</fix>
</trkpt>
<trkpt lat="40.0738602" lon="-105.2302296">
  <ele>1671.68</ele>
  <time>2026-08-28T19:08:21Z</time>
  <course>221.88</course>
  <speed>0.0</speed>
  <fix>3d</fix>
</trkpt>
<trkpt lat="40.0738603" lon="-105.2302297">
  <ele>1672.32</ele>
  <time>2026-08-28T19:08:21Z</time>
  <course>11.35</course>
  <speed>0.01</speed>
  <fix>3d</fix>
</trkpt>
<trkpt lat="40.0738603" lon="-105.2302297">
  <ele>1672.75</ele>
  <time>2026-08-28T19:08:21Z</time>
  <course>11.37</course>
  <speed>0.01</speed>
  <fix>3d</fix>
</trkpt>
<trkpt lat="40.0738601" lon="-105.2302296">
  <ele>1672.18</ele>
  <time>2026-08-28T19:08:21Z</time>
  <course>222.69</course>
  <speed>0.0</speed>
  <fix>3d</fix>
</trkpt>
<trkpt lat="40.0738603" lon="-105.2302297">
  <ele>1672.82</ele>
  <time>2026-08-28T19:08:21Z</time>
  <course>11.37</course>
  <speed>0.01</speed>
  <fix>3d</fix>
</trkpt>
<trkpt lat="40.0738603" lon="-105.2302297">
  <ele>1673.25</ele>
  <time>2026-08-28T19:08:22Z</time>
  <course>11.33</course>
  <speed>0.01</speed>
  <fix>3d</fix>
</trkpt>
<trkpt lat="40.0738601" lon="-105.2302296">
  <ele>1672.68</ele>
  <time>2026-08-28T19:08:22Z</time>
  <course>223.14</course>
  <speed>0.0</speed>
  <fix>3d</fix>
</trkpt>
<trkpt lat="40.0738603" lon="-105.2302297">
  <ele>1673.26</ele>
  <time>2026-08-28T19:08:22Z</time>
  <course>11.33</course>
  <speed>0.01</speed>
  <fix>3d</fix>
</trkpt>
<trkpt lat="40.0738603" lon="-105.2302297">
  <ele>1673.76</ele>
  <time>2026-08-28T19:08:22Z</time>
  <course>11.35</course>
  <speed>0.01</speed>
  <fix>3d</fix>
</trkpt>
<trkpt lat="40.0738601" lon="-105.2302296">
  <ele>1673.18</ele>
  <time>2026-08-28T19:08:22Z</time>
  <course>224.34</course>
  <speed>0.0</speed>
  <fix>3d</fix>
</trkpt>
<trkpt lat="40.0738603" lon="-105.2302297">
  <ele>1673.82</ele>
  <time>2026-08-28T19:08:22Z</time>
  <course>11.35</course>
  <speed>0.01</speed>
  <fix>3d</fix>
</trkpt>
<trkpt lat="40.0738603" lon="-105.2302297">
  <ele>1674.25</ele>
  <time>2026-08-28T19:08:22Z</time>
  <course>11.38</course>
  <speed>0.01</speed>
  <fix>3d</fix>
</trkpt>
<trkpt lat="40.0738601" lon="-105.2302296">
  <ele>1673.68</ele>
  <time>2026-08-28T19:08:22Z</time>
  <course>229.58</course>
  <speed>0.0</speed>
  <fix>3d</fix>
</trkpt>
<trkpt lat="40.0738603" lon="-105.2302297">
  <ele>1674.32</ele>
  <time>2026-08-28T19:08:22Z</time>
  <course>11.38</course>
  <speed>0.01</speed>
  <fix>3d</fix>
</trkpt>
<trkpt lat="40.0738603" lon="-105.2302297">
  <ele>1674.76</ele>
  <time>2026-08-28T19:08:22Z</time>
  <course>11.38</course>
  <speed>0.01</speed>
  <fix>3d</fix>
</trkpt>
<trkpt lat="40.0738601" lon="-105.2302297">
  <ele>1674.18</ele>
  <time>2026-08-28T19:08:22Z</time>
  <course>236.07</course>
  <speed>0.0</speed>
  <fix>3d</fix>
</trkpt>
<trkpt lat="40.0738603" lon="-105.2302297">
  <ele>1674.82</ele>
  <time>2026-08-28T19:08:22Z</time>
  <course>11.39</course>
  <speed>0.01</speed>
  <fix>3d</fix>
</trkpt>
<trkpt lat="40.0738603" lon="-105.2302297">
  <ele>1675.26</ele>
  <time>2026-08-28T19:08:22Z</time>
  <course>11.37</course>
  <speed>0.01</speed>
  <fix>3d</fix>
</trkpt>
<trkpt lat="40.0738601" lon="-105.2302297">
  <ele>1674.68</ele>
  <time>2026-08-28T19:08:22Z</time>
  <course>244.58</course>
  <speed>0.0</speed>
  <fix>3d</fix>
</trkpt>
<trkpt lat="40.0738603" lon="-105.2302297">
  <ele>1675.32</ele>
  <time>2026-08-28T19:08:22Z</time>
  <course>11.37</course>
  <speed>0.01</speed>
  <fix>3d</fix>
</trkpt>
<trkpt lat="40.0738603" lon="-105.2302297">
  <ele>1675.75</ele>
  <time>2026-08-28T19:08:22Z</time>
  <course>11.4</course>
  <speed>0.01</speed>
  <fix>3d</fix>
</trkpt>
<trkpt lat="40.0738601" lon="-105.2302297">
  <ele>1675.19</ele>
  <time>2026-08-28T19:08:22Z</time>
  <course>255.1</course>
  <speed>0.0</speed>
  <fix>3d</fix>
</trkpt>
<trkpt lat="40.0738603" lon="-105.2302297">
  <ele>1675.76</ele>
  <time>2026-08-28T19:08:22Z</time>
  <course>11.4</course>
  <speed>0.01</speed>
  <fix>3d</fix>
</trkpt>
<trkpt lat="40.0738603" lon="-105.2302297">
  <ele>1676.26</ele>
  <time>2026-08-28T19:08:22Z</time>
  <course>11.39</course>
  <speed>0.01</speed>
  <fix>3d</fix>
</trkpt>
<trkpt lat="40.0738601" lon="-105.2302297">
  <ele>1675.69</ele>
  <time>2026-08-28T19:08:22Z</time>
  <course>263.07</course>
  <speed>0.0</speed>
  <fix>3d</fix>
</trkpt>
<trkpt lat="40.0738603" lon="-105.2302297">
  <ele>1676.33</ele>
  <time>2026-08-28T19:08:22Z</time>
  <course>11.38</course>
  <speed>0.01</speed>
  <fix>3d</fix>
</trkpt>
<trkpt lat="40.0738603" lon="-105.2302297">
  <ele>1676.76</ele>
  <time>2026-08-28T19:08:22Z</time>
  <course>11.41</course>
  <speed>0.01</speed>
  <fix>3d</fix>
</trkpt>
<trkpt lat="40.0738601" lon="-105.2302297">
  <ele>1676.19</ele>
  <time>2026-08-28T19:08:22Z</time>
  <course>272.57</course>
  <speed>0.0</speed>
  <fix>3d</fix>
</trkpt>
<trkpt lat="40.0738603" lon="-105.2302297">
  <ele>1676.77</ele>
  <time>2026-08-28T19:08:22Z</time>
  <course>11.41</course>
  <speed>0.01</speed>
  <fix>3d</fix>
</trkpt>
<trkpt lat="40.0738603" lon="-105.2302297">
  <ele>1677.26</ele>
  <time>2026-08-28T19:08:22Z</time>
  <course>11.42</course>
  <speed>0.01</speed>
  <fix>3d</fix>
</trkpt>
<trkpt lat="40.0738601" lon="-105.2302297">
  <ele>1676.69</ele>
  <time>2026-08-28T19:08:22Z</time>
  <course>283.25</course>
  <speed>0.0</speed>
  <fix>3d</fix>
</trkpt>
<trkpt lat="40.0738603" lon="-105.2302297">
  <ele>1677.32</ele>
  <time>2026-08-28T19:08:22Z</time>
  <course>11.42</course>
  <speed>0.01</speed>
  <fix>3d</fix>
</trkpt>
<trkpt lat="40.0738603" lon="-105.2302297">
  <ele>1677.76</ele>
  <time>2026-08-28T19:08:22Z</time>
  <course>11.42</course>
  <speed>0.01</speed>
  <fix>3d</fix>
</trkpt>
<trkpt lat="40.0738601" lon="-105.2302297">
  <ele>1677.2</ele>
  <time>2026-08-28T19:08:22Z</time>
  <course>299.78</course>
  <speed>0.0</speed>
  <fix>3d</fix>
</trkpt>
<trkpt lat="40.0738603" lon="-105.2302297">
  <ele>1677.83</ele>
  <time>2026-08-28T19:08:22Z</time>
  <course>11.42</course>
  <speed>0.01</speed>
  <fix>3d</fix>
</trkpt>
<trkpt lat="40.0738603" lon="-105.2302297">
  <ele>1678.26</ele>
  <time>2026-08-28T19:08:22Z</time>
  <course>11.42</course>
  <speed>0.01</speed>
  <fix>3d</fix>
</trkpt>
<trkpt lat="40.0738601" lon="-105.2302297">
  <ele>1677.7</ele>
  <time>2026-08-28T19:08:22Z</time>
  <course>332.2</course>
  <speed>0.0</speed>
  <fix>3d</fix>
</trkpt>
<trkpt lat="40.0738603" lon="-105.2302297">
  <ele>1678.32</ele>
  <time>2026-08-28T19:08:22Z</time>
  <course>11.42</course>
  <speed>0.01</speed>
  <fix>3d</fix>
</trkpt>
<trkpt lat="40.0738603" lon="-105.2302297">
  <ele>1678.75</ele>
  <time>2026-08-28T19:08:22Z</time>
  <course>11.43</course>
  <speed>0.01</speed>
  <fix>3d</fix>
</trkpt>
<trkpt lat="40.0738601" lon="-105.2302297">
  <ele>1678.2</ele>
  <time>2026-08-28T19:08:22Z</time>
  <course>352.68</course>
  <speed>0.0</speed>
  <fix>3d</fix>
</trkpt>
<trkpt lat="40.0738603" lon="-105.2302297">
  <ele>1678.77</ele>
  <time>2026-08-28T19:08:22Z</time>
  <course>11.43</course>
  <speed>0.01</speed>
  <fix>3d</fix>
</trkpt>
<trkpt lat="40.0738603" lon="-105.2302297">
  <ele>1679.26</ele>
  <time>2026-08-28T19:08:22Z</time>
  <course>11.43</course>
  <speed>0.01</speed>
  <fix>3d</fix>
</trkpt>
<trkpt lat="40.0738601" lon="-105.2302297">
  <ele>1678.7</ele>
  <time>2026-08-28T19:08:22Z</time>
  <course>3.44</course>
  <speed>0.0</speed>
  <fix>3d</fix>
</trkpt>
<trkpt lat="40.0738603" lon="-105.2302297">
  <ele>1679.26</ele>
  <time>2026-08-28T19:08:22Z</time>
  <course>11.43</course>
  <speed>0.01</speed>
  <fix>3d</fix>
</trkpt>
<trkpt lat="40.0738603" lon="-105.2302297">
  <ele>1679.76</ele>
  <time>2026-08-28T19:08:22Z</time>
  <course>11.4</course>
  <speed>0.01</speed>
  <fix>3d</fix>
</trkpt>
<trkpt lat="40.0738601" lon="-105.2302297">
  <ele>1679.2</ele>
  <time>2026-08-28T19:08:22Z</time>
  <course>11.24</course>
  <speed>0.0</speed>
  <fix>3d</fix>
</trkpt>
<trkpt lat="40.0738603" lon="-105.2302297">
  <ele>1679.83</ele>
  <time>2026-08-28T19:08:22Z</time>
  <course>11.41</course>
  <speed>0.01</speed>
  <fix>3d</fix>
</trkpt>
<trkpt lat="40.0738603" lon="-105.2302297">
  <ele>1680.25</ele>
  <time>2026-08-28T19:08:22Z</time>
  <course>11.43</course>
  <speed>0.01</speed>
  <fix>3d</fix>
</trkpt>
<trkpt lat="40.0738601" lon="-105.2302297">
  <ele>1679.7</ele>
  <time>2026-08-28T19:08:22Z</time>
  <course>11.98</course>
  <speed>0.0</speed>
  <fix>3d</fix>
</trkpt>
<trkpt lat="40.0738603" lon="-105.2302297">
  <ele>1680.3</ele>
  <time>2026-08-28T19:08:22Z</time>
  <course>11.44</course>
  <speed>0.01</speed>
  <fix>3d</fix>
</trkpt>
<trkpt lat="40.0738603" lon="-105.2302297">
  <ele>1680.75</ele>
  <time>2026-08-28T19:08:22Z</time>
  <course>11.42</course>
  <speed>0.01</speed>
  <fix>3d</fix>
</trkpt>
<trkpt lat="40.0738601" lon="-105.2302297">
  <ele>1680.2</ele>
  <time>2026-08-28T19:08:22Z</time>
  <course>19.03</course>
  <speed>0.0</speed>
  <fix>3d</fix>
</trkpt>
<trkpt lat="40.0738603" lon="-105.2302297">
  <ele>1680.8</ele>
  <time>2026-08-28T19:08:22Z</time>
  <course>11.42</course>
  <speed>0.01</speed>
  <fix>3d</fix>
</trkpt>
<trkpt lat="40.0738603" lon="-105.2302297">
  <ele>1681.25</ele>
  <time>2026-08-28T19:08:22Z</time>
  <course>11.44</course>
  <speed>0.01</speed>
  <fix>3d</fix>
</trkpt>
<trkpt lat="40.0738601" lon="-105.2302297">
  <ele>1680.71</ele>
  <time>2026-08-28T19:08:22Z</time>
  <course>25.46</course>
  <speed>0.0</speed>
  <fix>3d</fix>
</trkpt>
<trkpt lat="40.0738603" lon="-105.2302297">
  <ele>1681.25</ele>
  <time>2026-08-28T19:08:22Z</time>
  <course>11.44</course>
  <speed>0.01</speed>
  <fix>3d</fix>
</trkpt>
<trkpt lat="40.0738603" lon="-105.2302297">
  <ele>1681.75</ele>
  <time>2026-08-28T19:08:22Z</time>
  <course>11.44</course>
  <speed>0.01</speed>
  <fix>3d</fix>
</trkpt>
<trkpt lat="40.0738601" lon="-105.2302297">
  <ele>1681.21</ele>
  <time>2026-08-28T19:08:22Z</time>
  <course>21.95</course>
  <speed>0.0</speed>
  <fix>3d</fix>
</trkpt>
<trkpt lat="40.0738603" lon="-105.2302297">
  <ele>1681.82</ele>
  <time>2026-08-28T19:08:22Z</time>
  <course>11.44</course>
  <speed>0.01</speed>
  <fix>3d</fix>
</trkpt>
<trkpt lat="40.0738603" lon="-105.2302297">
  <ele>1682.25</ele>
  <time>2026-08-28T19:08:22Z</time>
  <course>11.43</course>
  <speed>0.01</speed>
  <fix>3d</fix>
</trkpt>
<trkpt lat="40.0738601" lon="-105.2302297">
  <ele>1681.72</ele>
  <time>2026-08-28T19:08:22Z</time>
  <course>20.01</course>
  <speed>0.0</speed>
  <fix>3d</fix>
</trkpt>
<trkpt lat="40.0738603" lon="-105.2302297">
  <ele>1682.34</ele>
  <time>2026-08-28T19:08:22Z</time>
  <course>11.43</course>
  <speed>0.01</speed>
  <fix>3d</fix>
</trkpt>
<trkpt lat="40.0738603" lon="-105.2302297">
  <ele>1682.76</ele>
  <time>2026-08-28T19:08:22Z</time>
  <course>11.45</course>
  <speed>0.01</speed>
  <fix>3d</fix>
</trkpt>
<trkpt lat="40.0738601" lon="-105.2302297">
  <ele>1682.22</ele>
  <time>2026-08-28T19:08:22Z</time>
  <course>22.72</course>
  <speed>0.0</speed>
  <fix>3d</fix>
</trkpt>
<trkpt lat="40.0738603" lon="-105.2302297">
  <ele>1682.83</ele>
  <time>2026-08-28T19:08:22Z</time>
  <course>11.45</course>
  <speed>0.01</speed>
  <fix>3d</fix>
</trkpt>
<trkpt lat="40.0738603" lon="-105.2302297">
  <ele>1683.26</ele>
  <time>2026-08-28T19:08:22Z</time>
  <course>11.46</course>
  <speed>0.01</speed>
  <fix>3d</fix>
</trkpt>
<trkpt lat="40.0738601" lon="-105.2302297">
  <ele>1682.72</ele>
  <time>2026-08-28T19:08:22Z</time>
  <course>28.18</course>
  <speed>0.0</speed>
  <fix>3d</fix>
</trkpt>
<trkpt lat="40.0738603" lon="-105.2302297">
  <ele>1683.27</ele>
  <time>2026-08-28T19:08:22Z</time>
  <course>11.46</course>
  <speed>0.01</speed>
  <fix>3d</fix>
</trkpt>
<trkpt lat="40.0738603" lon="-105.2302297">
  <ele>1683.77</ele>
  <time>2026-08-28T19:08:22Z</time>
  <course>11.48</course>
  <speed>0.01</speed>
  <fix>3d</fix>
</trkpt>
<trkpt lat="40.0738601" lon="-105.2302297">
  <ele>1683.23</ele>
  <time>2026-08-28T19:08:22Z</time>
  <course>32.47</course>
  <speed>0.0</speed>
  <fix>3d</fix>
</trkpt>
<trkpt lat="40.0738603" lon="-105.2302297">
  <ele>1683.83</ele>
  <time>2026-08-28T19:08:22Z</time>
  <course>11.49</course>
  <speed>0.01</speed>
  <fix>3d</fix>
</trkpt>
<trkpt lat="40.0738603" lon="-105.2302297">
  <ele>1684.27</ele>
  <time>2026-08-28T19:08:22Z</time>
  <course>11.5</course>
  <speed>0.01</speed>
  <fix>3d</fix>
</trkpt>
<trkpt lat="40.0738601" lon="-105.2302297">
  <ele>1683.73</ele>
  <time>2026-08-28T19:08:22Z</time>
  <course>36.81</course>
  <speed>0.0</speed>
  <fix>3d</fix>
</trkpt>
<trkpt lat="40.0738603" lon="-105.2302297">
  <ele>1684.78</ele>
  <time>2026-08-28T19:08:22Z</time>
  <course>11.2</course>
  <speed>0.01</speed>
  <fix>3d</fix>
</trkpt>
<trkpt lat="40.0738601" lon="-105.2302297">
  <ele>1684.23</ele>
  <time>2026-08-28T19:08:22Z</time>
  <course>55.51</course>
  <speed>0.0</speed>
  <fix>3d</fix>
</trkpt>
<trkpt lat="40.0738603" lon="-105.2302297">
  <ele>1685.36</ele>
  <time>2026-08-28T19:08:22Z</time>
  <course>9.16</course>
  <speed>0.01</speed>
  <fix>3d</fix>
</trkpt>
<trkpt lat="40.0738601" lon="-105.2302297">
  <ele>1684.75</ele>
  <time>2026-08-28T19:08:22Z</time>
  <course>77.03</course>
  <speed>0.0</speed>
  <fix>3d</fix>
</trkpt>
<trkpt lat="40.0738603" lon="-105.2302298">
  <ele>1685.84</ele>
  <time>2026-08-28T19:08:22Z</time>
  <course>14.47</course>
  <speed>0.16278820596099705</speed>
  <fix>3d</fix>
</trkpt>
<trkpt lat="40.0738601" lon="-105.2302297">
  <ele>1685.32</ele>
  <time>2026-08-28T19:08:22Z</time>
  <course>276.47</course>
  <speed>0.06</speed>
  <fix>3d</fix>
</trkpt>
<trkpt lat="40.0738603" lon="-105.2302303">
  <ele>1685.71</ele>
  <time>2026-08-28T19:08:22Z</time>
  <course>17.72</course>
  <speed>0.2220360331117452</speed>
  <fix>3d</fix>
</trkpt>
<trkpt lat="40.0738601" lon="-105.2302299">
  <ele>1685.63</ele>
  <time>2026-08-28T19:08:22Z</time>
  <course>276.9</course>
  <speed>0.16</speed>
  <fix>3d</fix>
</trkpt>
<trkpt lat="40.0738603" lon="-105.2302308">
  <ele>1685.21</ele>
  <time>2026-08-28T19:08:22Z</time>
  <course>18.07</course>
  <speed>0.26305892875931813</speed>
  <fix>3d</fix>
</trkpt>
<trkpt lat="40.0738602" lon="-105.2302303">
  <ele>1685.44</ele>
  <time>2026-08-28T19:08:22Z</time>
  <course>278.59</course>
  <speed>0.21</speed>
  <fix>3d</fix>
</trkpt>
<trkpt lat="40.0738604" lon="-105.2302315">
  <ele>1684.45</ele>
  <time>2026-08-28T19:08:22Z</time>
  <course>17.15</course>
  <speed>0.304138126514911</speed>
  <fix>3d</fix>
</trkpt>
<trkpt lat="40.0738602" lon="-105.2302309">
  <ele>1684.87</ele>
  <time>2026-08-28T19:08:22Z</time>
  <course>280.06</course>
  <speed>0.26</speed>
  <fix>3d</fix>
</trkpt>
<trkpt lat="40.0738605" lon="-105.2302322">
  <ele>1683.52</ele>
  <time>2026-08-28T19:08:22Z</time>
  <course>17.43</course>
  <speed>0.3255764119219941</speed>
  <fix>3d</fix>
</trkpt>
<trkpt lat="40.0738603" lon="-105.2302315">
  <ele>1684.07</ele>
  <time>2026-08-28T19:08:22Z</time>
  <course>280.9</course>
  <speed>0.3</speed>
  <fix>3d</fix>
</trkpt>
<trkpt lat="40.0738605" lon="-105.2302329">
  <ele>1682.46</ele>
  <time>2026-08-28T19:08:22Z</time>
  <course>18.15</course>
  <speed>0.31575306807693887</speed>
  <fix>3d</fix>
</trkpt>
<trkpt lat="40.0738604" lon="-105.2302323">
  <ele>1683.1</ele>
  <time>2026-08-28T19:08:22Z</time>
  <course>281.33</course>
  <speed>0.31</speed>
  <fix>3d</fix>
</trkpt>
<trkpt lat="40.0738606" lon="-105.2302336">
  <ele>1681.34</ele>
  <time>2026-08-28T19:08:22Z</time>
  <course>19.01</course>
  <speed>0.28442925306655786</speed>
  <fix>3d</fix>
</trkpt>
<trkpt lat="40.0738605" lon="-105.230233">
  <ele>1682.04</ele>
  <time>2026-08-28T19:08:22Z</time>
  <course>281.67</course>
  <speed>0.3</speed>
  <fix>3d</fix>
</trkpt>
<trkpt lat="40.0738607" lon="-105.2302342">
  <ele>1680.16</ele>
  <time>2026-08-28T19:08:22Z</time>
  <course>19.25</course>
  <speed>0.25495097567963926</speed>
  <fix>3d</fix>
</trkpt>
<trkpt lat="40.0738606" lon="-105.2302336">
  <ele>1680.91</ele>
  <time>2026-08-28T19:08:22Z</time>
  <course>282.08</course>
  <speed>0.27</speed>
  <fix>3d</fix>
</trkpt>
<trkpt lat="40.0738608" lon="-105.2302347">
  <ele>1678.95</ele>
  <time>2026-08-28T19:08:22Z</time>
  <course>19.1</course>
  <speed>0.22561028345356957</speed>
  <fix>3d</fix>
</trkpt>
<trkpt lat="40.0738607" lon="-105.2302342">
  <ele>1679.75</ele>
  <time>2026-08-28T19:08:22Z</time>
  <course>282.66</course>
  <speed>0.24</speed>
  <fix>3d</fix>
</trkpt>
<trkpt lat="40.0738609" lon="-105.2302352">
  <ele>1677.73</ele>
  <time>2026-08-28T19:08:22Z</time>
  <course>18.8</course>
  <speed>0.2039607805437114</speed>
  <fix>3d</fix>
</trkpt>
<trkpt lat="40.0738608" lon="-105.2302347">
  <ele>1678.55</ele>
  <time>2026-08-28T19:08:22Z</time>
  <course>283.43</course>
  <speed>0.21</speed>
  <fix>3d</fix>
</trkpt>
<trkpt lat="40.073861" lon="-105.2302356">
  <ele>1676.49</ele>
  <time>2026-08-28T19:08:22Z</time>
  <course>18.49</course>
  <speed>0.17464249196572978</speed>
  <fix>3d</fix>
</trkpt>
<trkpt lat="40.0738609" lon="-105.2302352">
  <ele>1677.34</ele>
  <time>2026-08-28T19:08:22Z</time>
  <course>284.33</course>
  <speed>0.18</speed>
  <fix>3d</fix>
</trkpt>
<trkpt lat="40.073861" lon="-105.2302359">
  <ele>1675.27</ele>
  <time>2026-08-28T19:08:22Z</time>
  <course>18.19</course>
  <speed>0.15524174696260024</speed>
  <fix>3d</fix>
</trkpt>
<trkpt lat="40.073861" lon="-105.2302356">
  <ele>1676.13</ele>
  <time>2026-08-28T19:08:22Z</time>
  <course>285.38</course>
  <speed>0.15</speed>
  <fix>3d</fix>
</trkpt>
<trkpt lat="40.0738611" lon="-105.2302362">
  <ele>1674.03</ele>
  <time>2026-08-28T19:08:22Z</time>
  <course>17.96</course>
  <speed>0.1264911064067352</speed>
  <fix>3d</fix>
</trkpt>
<trkpt lat="40.073861" lon="-105.2302359">
  <ele>1674.91</ele>
  <time>2026-08-28T19:08:22Z</time>
  <course>286.6</course>
  <speed>0.13</speed>
  <fix>3d</fix>
</trkpt>
<trkpt lat="40.0738612" lon="-105.2302364">
  <ele>1672.79</ele>
  <time>2026-08-28T19:08:22Z</time>
  <course>17.7</course>
  <speed>0.1044030650891055</speed>
  <fix>3d</fix>
</trkpt>
<trkpt lat="40.0738611" lon="-105.2302362">
  <ele>1673.68</ele>
  <time>2026-08-28T19:08:22Z</time>
  <course>288.08</course>
  <speed>0.11</speed>
  <fix>3d</fix>
</trkpt>
<trkpt lat="40.0738612" lon="-105.2302366">
  <ele>1671.56</ele>
  <time>2026-08-28T19:08:22Z</time>
  <course>17.48</course>
  <speed>0.0854400374531753</speed>
  <fix>3d</fix>
</trkpt>
<trkpt lat="40.0738612" lon="-105.2302364">
  <ele>1672.46</ele>
  <time>2026-08-28T19:08:22Z</time>
  <course>289.94</course>
  <speed>0.08</speed>
  <fix>3d</fix>
</trkpt>
<trkpt lat="40.0738613" lon="-105.2302368">
  <ele>1670.33</ele>
  <time>2026-08-28T19:08:22Z</time>
  <course>17.29</course>
  <speed>0.0670820393249937</speed>
  <fix>3d</fix>
</trkpt>
<trkpt lat="40.0738613" lon="-105.2302366">
  <ele>1671.23</ele>
  <time>2026-08-28T19:08:22Z</time>
  <course>292.44</course>
  <speed>0.06</speed>
  <fix>3d</fix>
</trkpt>
<trkpt lat="40.0738613" lon="-105.2302369">
  <ele>1669.1</ele>
  <time>2026-08-28T19:08:22Z</time>
  <course>17.11</course>
  <speed>0.05</speed>
  <fix>3d</fix>
</trkpt>
<trkpt lat="40.0738613" lon="-105.2302367">
  <ele>1670.0</ele>
  <time>2026-08-28T19:08:22Z</time>
  <course>296.25</course>
  <speed>0.05</speed>
  <fix>3d</fix>
</trkpt>
<trkpt lat="40.0738614" lon="-105.2302369">
  <ele>1667.86</ele>
  <time>2026-08-28T19:08:22Z</time>
  <course>16.96</course>
  <speed>0.03605551275463989</speed>
  <fix>3d</fix>
</trkpt>
<trkpt lat="40.0738613" lon="-105.2302368">
  <ele>1668.78</ele>
  <time>2026-08-28T19:08:22Z</time>
  <course>303.16</course>
  <speed>0.03</speed>
  <fix>3d</fix>
</trkpt>
<trkpt lat="40.0738614" lon="-105.230237">
  <ele>1666.63</ele>
  <time>2026-08-28T19:08:22Z</time>
  <course>16.71</course>
  <speed>0.022360679774997897</speed>
  <fix>3d</fix>
</trkpt>
<trkpt lat="40.0738614" lon="-105.2302369">
  <ele>1667.55</ele>
  <time>2026-08-28T19:08:22Z</time>
  <course>319.1</course>
  <speed>0.01</speed>
  <fix>3d</fix>
</trkpt>
<trkpt lat="40.0738614" lon="-105.230237">
  <ele>1665.4</ele>
  <time>2026-08-28T19:08:22Z</time>
  <course>16.45</course>
  <speed>0.02</speed>
  <fix>3d</fix>
</trkpt>
<trkpt lat="40.0738614" lon="-105.2302369">
  <ele>1666.32</ele>
  <time>2026-08-28T19:08:22Z</time>
  <course>2.66</course>
  <speed>0.01</speed>
  <fix>3d</fix>
</trkpt>
<trkpt lat="40.0738614" lon="-105.2302369">
  <ele>1664.23</ele>
  <time>2026-08-28T19:08:22Z</time>
  <course>16.34</course>
  <speed>0.06082762530298219</speed>
  <fix>3d</fix>
</trkpt>
<trkpt lat="40.0738614" lon="-105.2302369">
  <ele>1665.1</ele>
  <time>2026-08-28T19:08:22Z</time>
  <course>83.61</course>
  <speed>0.02</speed>
  <fix>3d</fix>
</trkpt>
<trkpt lat="40.0738614" lon="-105.2302367">
  <ele>1663.37</ele>
  <time>2026-08-28T19:08:22Z</time>
  <course>16.97</course>
  <speed>0.15</speed>
  <fix>3d</fix>
</trkpt>
<trkpt lat="40.0738614" lon="-105.2302368">
  <ele>1664.03</ele>
  <time>2026-08-28T19:08:22Z</time>
  <course>99.15</course>
  <speed>0.1</speed>
  <fix>3d</fix>
</trkpt>
<trkpt lat="40.0738614" lon="-105.2302362">
  <ele>1662.7</ele>
  <time>2026-08-28T19:08:22Z</time>
  <course>17.31</course>
  <speed>0.2308679276123039</speed>
  <fix>3d</fix>
</trkpt>
<trkpt lat="40.0738614" lon="-105.2302364">
  <ele>1663.2</ele>
  <time>2026-08-28T19:08:22Z</time>
  <course>101.7</course>
  <speed>0.19</speed>
  <fix>3d</fix>
</trkpt>
<trkpt lat="40.0738614" lon="-105.2302356">
  <ele>1662.13</ele>
  <time>2026-08-28T19:08:22Z</time>
  <course>17.2</course>
  <speed>0.29274562336608895</speed>
  <fix>3d</fix>
</trkpt>
<trkpt lat="40.0738613" lon="-105.2302359">
  <ele>1662.56</ele>
  <time>2026-08-28T19:08:22Z</time>
  <course>102.35</course>
  <speed>0.27</speed>
  <fix>3d</fix>
</trkpt>
<trkpt lat="40.0738612" lon="-105.2302348">
  <ele>1661.62</ele>
  <time>2026-08-28T19:08:22Z</time>
  <course>16.75</course>
  <speed>0.33376638536557274</speed>
  <fix>3d</fix>
</trkpt>
<trkpt lat="40.0738612" lon="-105.2302352">
  <ele>1662.03</ele>
  <time>2026-08-28T19:08:22Z</time>
  <course>102.64</course>
  <speed>0.32</speed>
  <fix>3d</fix>
</trkpt>
<trkpt lat="40.0738611" lon="-105.2302339">
  <ele>1661.15</ele>
  <time>2026-08-28T19:08:22Z</time>
  <course>16.08</course>
  <speed>0.37483329627982626</speed>
  <fix>3d</fix>
</trkpt>
<trkpt lat="40.0738611" lon="-105.2302344">
  <ele>1661.54</ele>
  <time>2026-08-28T19:08:22Z</time>
  <course>102.86</course>
  <speed>0.37</speed>
  <fix>3d</fix>
</trkpt>
<trkpt lat="40.0738609" lon="-105.230233">
  <ele>1660.68</ele>
  <time>2026-08-28T19:08:22Z</time>
  <course>15.36</course>
  <speed>0.40607881008493907</speed>
  <fix>3d</fix>
</trkpt>
<trkpt lat="40.0738609" lon="-105.2302335">
  <ele>1661.08</ele>
  <time>2026-08-28T19:08:22Z</time>
  <course>103.08</course>
  <speed>0.4</speed>
  <fix>3d</fix>
</trkpt>
<trkpt lat="40.0738608" lon="-105.230232">
  <ele>1660.23</ele>
  <time>2026-08-28T19:08:22Z</time>
  <course>14.76</course>
  <speed>0.42755116652863895</speed>
  <fix>3d</fix>
</trkpt>
<trkpt lat="40.0738608" lon="-105.2302325">
  <ele>1660.62</ele>
  <time>2026-08-28T19:08:22Z</time>
  <course>103.36</course>
  <speed>0.43</speed>
  <fix>3d</fix>
</trkpt>
<trkpt lat="40.0738606" lon="-105.2302309">
  <ele>1659.78</ele>
  <time>2026-08-28T19:08:22Z</time>
  <course>14.36</course>
  <speed>0.4491102314577124</speed>
  <fix>3d</fix>
</trkpt>
<trkpt lat="40.0738605" lon="-105.2302315">
  <ele>1660.17</ele>
  <time>2026-08-28T19:08:22Z</time>
  <course>103.69</course>
  <speed>0.46</speed>
  <fix>3d</fix>
</trkpt>
<trkpt lat="40.0738604" lon="-105.2302298">
  <ele>1659.33</ele>
  <time>2026-08-28T19:08:22Z</time>
  <course>14.09</course>
  <speed>0.4687216658103186</speed>
  <fix>3d</fix>
</trkpt>
<trkpt lat="40.0738604" lon="-105.2302304">
  <ele>1659.73</ele>
  <time>2026-08-28T19:08:22Z</time>
  <course>104.05</course>
  <speed>0.48</speed>
  <fix>3d</fix>
</trkpt>
<trkpt lat="40.0738601" lon="-105.2302287">
  <ele>1658.89</ele>
  <time>2026-08-28T19:08:22Z</time>
  <course>13.9</course>
  <speed>0.4903060268852505</speed>
  <fix>3d</fix>
</trkpt>
<trkpt lat="40.0738602" lon="-105.2302293">
  <ele>1659.28</ele>
  <time>2026-08-28T19:08:22Z</time>
  <course>104.42</course>
  <speed>0.5</speed>
  <fix>3d</fix>
</trkpt>
<trkpt lat="40.0738599" lon="-105.2302275">
  <ele>1658.45</ele>
  <time>2026-08-28T19:08:22Z</time>
  <course>13.78</course>
  <speed>0.5021951811795887</speed>
  <fix>3d</fix>
</trkpt>
<trkpt lat="40.0738599" lon="-105.2302282">
  <ele>1658.84</ele>
  <time>2026-08-28T19:08:22Z</time>
  <course>104.81</course>
  <speed>0.51</speed>
  <fix>3d</fix>
</trkpt>
<trkpt lat="40.0738597" lon="-105.2302263">
  <ele>1658.02</ele>
  <time>2026-08-28T19:08:22Z</time>
  <course>13.73</course>
  <speed>0.5119570294468082</speed>
  <fix>3d</fix>
</trkpt>
<trkpt lat="40.0738597" lon="-105.2302269">
  <ele>1658.39</ele>
  <time>2026-08-28T19:08:22Z</time>
  <course>105.21</course>
  <speed>0.53</speed>
  <fix>3d</fix>
</trkpt>
<trkpt lat="40.0738594" lon="-105.2302251">
  <ele>1657.59</ele>
  <time>2026-08-28T19:08:22Z</time>
  <course>13.66</course>
  <speed>0.5336665625650534</speed>
  <fix>3d</fix>
</trkpt>
<trkpt lat="40.0738594" lon="-105.2302258">
  <ele>1657.95</ele>
  <time>2026-08-28T19:08:22Z</time>
  <course>105.59</course>
  <speed>0.54</speed>
  <fix>3d</fix>
</trkpt>
<trkpt lat="40.0738591" lon="-105.2302238">
  <ele>1657.23</ele>
  <time>2026-08-28T19:08:22Z</time>
  <course>13.5</course>
  <speed>0.5554277630799526</speed>
  <fix>3d</fix>
</trkpt>
<trkpt lat="40.0738591" lon="-105.2302245">
  <ele>1657.55</ele>
  <time>2026-08-28T19:08:22Z</time>
  <course>105.95</course>
  <speed>0.56</speed>
  <fix>3d</fix>
</trkpt>
<trkpt lat="40.0738589" lon="-105.2302225">
  <ele>1656.89</ele>
  <time>2026-08-28T19:08:22Z</time>
  <course>13.2</course>
  <speed>0.5772347875864725</speed>
  <fix>3d</fix>
</trkpt>
<trkpt lat="40.0738588" lon="-105.2302232">
  <ele>1657.19</ele>
  <time>2026-08-28T19:08:22Z</time>
  <course>106.31</course>
  <speed>0.58</speed>
  <fix>3d</fix>
</trkpt>
<trkpt lat="40.0738585" lon="-105.2302211">
  <ele>1656.58</ele>
  <time>2026-08-28T19:08:22Z</time>
  <course>12.84</course>
  <speed>0.5894064811316551</speed>
  <fix>3d</fix>
</trkpt>
<trkpt lat="40.0738585" lon="-105.2302218">
  <ele>1656.86</ele>
  <time>2026-08-28T19:08:22Z</time>
  <course>106.68</course>
  <speed>0.6</speed>
  <fix>3d</fix>
</trkpt>
<trkpt lat="40.0738582" lon="-105.2302197">
  <ele>1656.27</ele>
  <time>2026-08-28T19:08:22Z</time>
  <course>12.5</course>
  <speed>0.6016643582596529</speed>
  <fix>3d</fix>
</trkpt>
<trkpt lat="40.0738582" lon="-105.2302205">
  <ele>1656.55</ele>
  <time>2026-08-28T19:08:22Z</time>
  <course>107.11</course>
  <speed>0.61</speed>
  <fix>3d</fix>
</trkpt>
<trkpt lat="40.0738579" lon="-105.2302183">
  <ele>1655.98</ele>
  <time>2026-08-28T19:08:22Z</time>
  <course>12.26</course>
  <speed>0.6016643582596529</speed>
  <fix>3d</fix>
</trkpt>
<trkpt lat="40.0738579" lon="-105.2302191">
  <ele>1656.25</ele>
  <time>2026-08-28T19:08:22Z</time>
  <course>107.58</course>
  <speed>0.62</speed>
  <fix>3d</fix>
</trkpt>
<trkpt lat="40.0738575" lon="-105.2302169">
  <ele>1655.68</ele>
  <time>2026-08-28T19:08:22Z</time>
  <course>12.1</course>
  <speed>0.6140032573203501</speed>
  <fix>3d</fix>
</trkpt>
<trkpt lat="40.0738575" lon="-105.2302177">
  <ele>1655.95</ele>
  <time>2026-08-28T19:08:22Z</time>
  <course>108.09</course>
  <speed>0.63</speed>
  <fix>3d</fix>
</trkpt>
<trkpt lat="40.0738572" lon="-105.2302155">
  <ele>1655.4</ele>
  <time>2026-08-28T19:08:22Z</time>
  <course>12.02</course>
  <speed>0.6168468205316454</speed>
  <fix>3d</fix>
</trkpt>
<trkpt lat="40.0738572" lon="-105.2302163">
  <ele>1655.66</ele>
  <time>2026-08-28T19:08:22Z</time>
  <course>108.62</course>
  <speed>0.63</speed>
  <fix>3d</fix>
</trkpt>
<trkpt lat="40.0738568" lon="-105.2302141">
  <ele>1655.12</ele>
  <time>2026-08-28T19:08:22Z</time>
  <course>11.97</course>
  <speed>0.6168468205316454</speed>
  <fix>3d</fix>
</trkpt>
<trkpt lat="40.0738568" lon="-105.2302148">
  <ele>1655.37</ele>
  <time>2026-08-28T19:08:22Z</time>
  <course>109.17</course>
  <speed>0.63</speed>
  <fix>3d</fix>
</trkpt>
<trkpt lat="40.0738564" lon="-105.2302127">
  <ele>1654.85</ele>
  <time>2026-08-28T19:08:22Z</time>
  <course>11.94</course>
  <speed>0.6198386886924694</speed>
  <fix>3d</fix>
</trkpt>
<trkpt lat="40.0738565" lon="-105.2302134">
  <ele>1655.09</ele>
  <time>2026-08-28T19:08:22Z</time>
  <course>109.72</course>
  <speed>0.63</speed>
  <fix>3d</fix>
</trkpt>
<trkpt lat="40.073856" lon="-105.2302113">
  <ele>1654.58</ele>
  <time>2026-08-28T19:08:22Z</time>
  <course>11.92</course>
  <speed>0.6198386886924694</speed>
  <fix>3d</fix>
</trkpt>
<trkpt lat="40.0738561" lon="-105.230212">
  <ele>1654.81</ele>
  <time>2026-08-28T19:08:22Z</time>
  <course>110.27</course>
  <speed>0.63</speed>
  <fix>3d</fix>
</trkpt>
<trkpt lat="40.0738556" lon="-105.2302099">
  <ele>1654.31</ele>
  <time>2026-08-28T19:08:22Z</time>
  <course>11.92</course>
  <speed>0.6135144660071187</speed>
  <fix>3d</fix>
</trkpt>
<trkpt lat="40.0738556" lon="-105.2302107">
  <ele>1654.55</ele>
  <time>2026-08-28T19:08:22Z</time>
  <course>110.83</course>
  <speed>0.63</speed>
  <fix>3d</fix>
</trkpt>
<trkpt lat="40.0738552" lon="-105.2302085">
  <ele>1654.06</ele>
  <time>2026-08-28T19:08:22Z</time>
  <course>11.94</course>
  <speed>0.6168468205316454</speed>
  <fix>3d</fix>
</trkpt>
<trkpt lat="40.0738552" lon="-105.2302093">
  <ele>1654.29</ele>
  <time>2026-08-28T19:08:22Z</time>
  <course>111.39</course>
  <speed>0.63</speed>
  <fix>3d</fix>
</trkpt>
<trkpt lat="40.0738548" lon="-105.2302071">
  <ele>1653.82</ele>
  <time>2026-08-28T19:08:22Z</time>
  <course>11.97</course>
  <speed>0.6074537019394977</speed>
  <fix>3d</fix>
</trkpt>
<trkpt lat="40.0738547" lon="-105.2302079">
  <ele>1654.03</ele>
  <time>2026-08-28T19:08:22Z</time>
  <course>111.95</course>
  <speed>0.63</speed>
  <fix>3d</fix>
</trkpt>
<trkpt lat="40.0738543" lon="-105.2302057">
  <ele>1653.58</ele>
  <time>2026-08-28T19:08:22Z</time>
  <course>11.97</course>
  <speed>0.6074537019394977</speed>
  <fix>3d</fix>
</trkpt>
<trkpt lat="40.0738544" lon="-105.2302065">
  <ele>1653.78</ele>
  <time>2026-08-28T19:08:22Z</time>
  <course>112.51</course>
  <speed>0.63</speed>
  <fix>3d</fix>
</trkpt>
<trkpt lat="40.0738539" lon="-105.2302044">
  <ele>1653.34</ele>
  <time>2026-08-28T19:08:22Z</time>
  <course>11.97</course>
  <speed>0.6016643582596529</speed>
  <fix>3d</fix>
</trkpt>
<trkpt lat="40.0738539" lon="-105.2302051">
  <ele>1653.54</ele>
  <time>2026-08-28T19:08:22Z</time>
  <course>113.08</course>
  <speed>0.63</speed>
  <fix>3d</fix>
</trkpt>
<trkpt lat="40.0738534" lon="-105.230203">
  <ele>1653.11</ele>
  <time>2026-08-28T19:08:22Z</time>
  <course>11.96</course>
  <speed>0.6016643582596529</speed>
  <fix>3d</fix>
</trkpt>
<trkpt lat="40.0738535" lon="-105.2302038">
  <ele>1653.3</ele>
  <time>2026-08-28T19:08:22Z</time>
  <course>113.65</course>
  <speed>0.62</speed>
  <fix>3d</fix>
</trkpt>
<trkpt lat="40.073853" lon="-105.2302017">
  <ele>1652.89</ele>
  <time>2026-08-28T19:08:22Z</time>
  <course>11.96</course>
  <speed>0.5961543424315552</speed>
  <fix>3d</fix>
</trkpt>
<trkpt lat="40.073853" lon="-105.2302024">
  <ele>1653.08</ele>
  <time>2026-08-28T19:08:22Z</time>
  <course>114.23</course>
  <speed>0.62</speed>
  <fix>3d</fix>
</trkpt>
<trkpt lat="40.0738525" lon="-105.2302004">
  <ele>1652.68</ele>
  <time>2026-08-28T19:08:22Z</time>
  <course>11.95</course>
  <speed>0.5869412236331676</speed>
  <fix>3d</fix>
</trkpt>
<trkpt lat="40.0738525" lon="-105.2302011">
  <ele>1652.86</ele>
  <time>2026-08-28T19:08:22Z</time>
  <course>114.82</course>
  <speed>0.61</speed>
  <fix>3d</fix>
</trkpt>
<trkpt lat="40.073852" lon="-105.2301991">
  <ele>1652.47</ele>
  <time>2026-08-28T19:08:22Z</time>
  <course>11.96</course>
  <speed>0.5777542730261715</speed>
  <fix>3d</fix>
</trkpt>
<trkpt lat="40.0738521" lon="-105.2301998">
  <ele>1652.64</ele>
  <time>2026-08-28T19:08:22Z</time>
  <course>115.43</course>
  <speed>0.6</speed>
  <fix>3d</fix>
</trkpt>
<trkpt lat="40.0738515" lon="-105.2301978">
  <ele>1652.27</ele>
  <time>2026-08-28T19:08:22Z</time>
  <course>11.95</course>
  <speed>0.5727128425310541</speed>
  <fix>3d</fix>
</trkpt>
<trkpt lat="40.0738516" lon="-105.2301985">
  <ele>1652.43</ele>
  <time>2026-08-28T19:08:22Z</time>
  <course>116.04</course>
  <speed>0.6</speed>
  <fix>3d</fix>
</trkpt>
<trkpt lat="40.0738511" lon="-105.2301966">
  <ele>1652.07</ele>
  <time>2026-08-28T19:08:22Z</time>
  <course>11.97</course>
  <speed>0.563648826841678</speed>
  <fix>3d</fix>
</trkpt>
<trkpt lat="40.0738511" lon="-105.2301972">
  <ele>1652.23</ele>
  <time>2026-08-28T19:08:22Z</time>
  <course>116.68</course>
  <speed>0.59</speed>
  <fix>3d</fix>
</trkpt>
<trkpt lat="40.0738506" lon="-105.2301954">
  <ele>1651.88</ele>
  <time>2026-08-28T19:08:22Z</time>
  <course>11.97</course>
  <speed>0.5546169849544819</speed>
  <fix>3d</fix>
</trkpt>
<trkpt lat="40.0738506" lon="-105.230196">
  <ele>1652.04</ele>
  <time>2026-08-28T19:08:22Z</time>
  <course>117.32</course>
  <speed>0.58</speed>
  <fix>3d</fix>
</trkpt>
<trkpt lat="40.0738501" lon="-105.2301941">
  <ele>1651.7</ele>
  <time>2026-08-28T19:08:22Z</time>
  <course>11.97</course>
  <speed>0.5456189146281496</speed>
  <fix>3d</fix>
</trkpt>
<trkpt lat="40.0738502" lon="-105.2301947">
  <ele>1651.86</ele>
  <time>2026-08-28T19:08:22Z</time>
  <course>117.98</course>
  <speed>0.57</speed>
  <fix>3d</fix>
</trkpt>
<trkpt lat="40.0738496" lon="-105.230193">
  <ele>1651.52</ele>
  <time>2026-08-28T19:08:22Z</time>
  <course>11.99</course>
  <speed>0.5412023651093923</speed>
  <fix>3d</fix>
</trkpt>
<trkpt lat="40.0738497" lon="-105.2301936">
  <ele>1651.67</ele>
  <time>2026-08-28T19:08:22Z</time>
  <course>118.65</course>
  <speed>0.56</speed>
  <fix>3d</fix>
</trkpt>
<trkpt lat="40.0738491" lon="-105.2301918">
  <ele>1651.35</ele>
  <time>2026-08-28T19:08:22Z</time>
  <course>12.07</course>
  <speed>0.5323532661682466</speed>
  <fix>3d</fix>
</trkpt>
<trkpt lat="40.0738492" lon="-105.2301924">
  <ele>1651.5</ele>
  <time>2026-08-28T19:08:22Z</time>
  <course>119.33</course>
  <speed>0.56</speed>
  <fix>3d</fix>
</trkpt>
<trkpt lat="40.0738486" lon="-105.2301907">
  <ele>1651.2</ele>
  <time>2026-08-28T19:08:22Z</time>
  <course>12.16</course>
  <speed>0.523545604508337</speed>
  <fix>3d</fix>
</trkpt>
<trkpt lat="40.0738487" lon="-105.2301913">
  <ele>1651.34</ele>
  <time>2026-08-28T19:08:22Z</time>
  <course>119.98</course>
  <speed>0.55</speed>
  <fix>3d</fix>
</trkpt>
<trkpt lat="40.0738481" lon="-105.2301896">
  <ele>1651.04</ele>
  <time>2026-08-28T19:08:22Z</time>
  <course>12.19</course>
  <speed>0.51478150704935</speed>
  <fix>3d</fix>
</trkpt>
<trkpt lat="40.0738482" lon="-105.2301902">
  <ele>1651.17</ele>
  <time>2026-08-28T19:08:22Z</time>
  <course>120.59</course>
  <speed>0.54</speed>
  <fix>3d</fix>
</trkpt>
<trkpt lat="40.0738476" lon="-105.2301885">
  <ele>1650.88</ele>
  <time>2026-08-28T19:08:22Z</time>
  <course>12.19</course>
  <speed>0.51478150704935</speed>
  <fix>3d</fix>
</trkpt>
<trkpt lat="40.0738477" lon="-105.2301891">
  <ele>1651.02</ele>
  <time>2026-08-28T19:08:22Z</time>
  <course>121.16</course>
  <speed>0.53</speed>
  <fix>3d</fix>
</trkpt>
<trkpt lat="40.0738471" lon="-105.2301875">
  <ele>1650.65</ele>
  <time>2026-08-28T19:08:22Z</time>
  <course>12.15</course>
  <speed>0.4410215414239989</speed>
  <fix>3d</fix>
</trkpt>
<trkpt lat="40.0738472" lon="-105.230188">
  <ele>1650.85</ele>
  <time>2026-08-28T19:08:22Z</time>
  <course>122.35</course>
  <speed>0.51</speed>
  <fix>3d</fix>
</trkpt>
<trkpt lat="40.0738466" lon="-105.2301867">
  <ele>1650.1</ele>
  <time>2026-08-28T19:08:22Z</time>
  <course>13.23</course>
  <speed>0.34828149534535996</speed>
  <fix>3d</fix>
</trkpt>
<trkpt lat="40.0738467" lon="-105.2301871">
  <ele>1650.53</ele>
  <time>2026-08-28T19:08:22Z</time>
  <course>126.02</course>
  <speed>0.44</speed>
  <fix>3d</fix>
</trkpt>
<trkpt lat="40.0738462" lon="-105.2301861">
  <ele>1649.32</ele>
  <time>2026-08-28T19:08:22Z</time>
  <course>14.36</course>
  <speed>0.31144823004794875</speed>
  <fix>3d</fix>
</trkpt>
<trkpt lat="40.0738463" lon="-105.2301863">
  <ele>1649.93</ele>
  <time>2026-08-28T19:08:22Z</time>
  <course>131.08</course>
  <speed>0.36</speed>
  <fix>3d</fix>
</trkpt>
<trkpt lat="40.0738458" lon="-105.2301856">
  <ele>1648.39</ele>
  <time>2026-08-28T19:08:22Z</time>
  <course>13.63</course>
  <speed>0.27586228448267447</speed>
  <fix>3d</fix>
</trkpt>
<trkpt lat="40.0738458" lon="-105.2301858">
  <ele>1649.11</ele>
  <time>2026-08-28T19:08:22Z</time>
  <course>134.42</course>
  <speed>0.32</speed>
  <fix>3d</fix>
</trkpt>
<trkpt lat="40.0738454" lon="-105.2301852">
  <ele>1647.35</ele>
  <time>2026-08-28T19:08:22Z</time>
  <course>12.35</course>
  <speed>0.2195449840010015</speed>
  <fix>3d</fix>
</trkpt>
<trkpt lat="40.0738455" lon="-105.2301853">
  <ele>1648.14</ele>
  <time>2026-08-28T19:08:22Z</time>
  <course>140.69</course>
  <speed>0.27</speed>
  <fix>3d</fix>
</trkpt>
<trkpt lat="40.073845" lon="-105.230185">
  <ele>1646.25</ele>
  <time>2026-08-28T19:08:22Z</time>
  <course>13.31</course>
  <speed>0.19313207915827968</speed>
  <fix>3d</fix>
</trkpt>
<trkpt lat="40.0738451" lon="-105.230185">
  <ele>1647.08</ele>
  <time>2026-08-28T19:08:22Z</time>
  <course>150.78</course>
  <speed>0.23</speed>
  <fix>3d</fix>
</trkpt>
<trkpt lat="40.0738447" lon="-105.2301848">
  <ele>1645.08</ele>
  <time>2026-08-28T19:08:22Z</time>
  <course>14.34</course>
  <speed>0.1772004514666935</speed>
  <fix>3d</fix>
</trkpt>
<trkpt lat="40.0738447" lon="-105.2301847">
  <ele>1645.95</ele>
  <time>2026-08-28T19:08:22Z</time>
  <course>158.18</course>
  <speed>0.21</speed>
  <fix>3d</fix>
</trkpt>
<trkpt lat="40.0738443" lon="-105.2301846">
  <ele>1643.88</ele>
  <time>2026-08-28T19:08:22Z</time>
  <course>15.21</course>
  <speed>0.18027756377319945</speed>
  <fix>3d</fix>
</trkpt>
<trkpt lat="40.0738444" lon="-105.2301846">
  <ele>1644.78</ele>
  <time>2026-08-28T19:08:22Z</time>
  <course>161.15</course>
  <speed>0.2</speed>
  <fix>3d</fix>
</trkpt>
<trkpt lat="40.073844" lon="-105.2301844">
  <ele>1642.65</ele>
  <time>2026-08-28T19:08:22Z</time>
  <course>15.32</course>
  <speed>0.18027756377319945</speed>
  <fix>3d</fix>
</trkpt>
<trkpt lat="40.073844" lon="-105.2301844">
  <ele>1643.57</ele>
  <time>2026-08-28T19:08:22Z</time>
  <course>160.34</course>
  <speed>0.2</speed>
  <fix>3d</fix>
</trkpt>
<trkpt lat="40.0738437" lon="-105.2301843">
  <ele>1641.42</ele>
  <time>2026-08-28T19:08:22Z</time>
  <course>15.2</course>
  <speed>0.18384776310850234</speed>
  <fix>3d</fix>
</trkpt>
<trkpt lat="40.0738437" lon="-105.2301842">
  <ele>1642.35</ele>
  <time>2026-08-28T19:08:22Z</time>
  <course>158.58</course>
  <speed>0.2</speed>
  <fix>3d</fix>
</trkpt>
<trkpt lat="40.0738433" lon="-105.2301841">
  <ele>1640.18</ele>
  <time>2026-08-28T19:08:22Z</time>
  <course>15.03</course>
  <speed>0.17464249196572978</speed>
  <fix>3d</fix>
</trkpt>
<trkpt lat="40.0738434" lon="-105.2301841">
  <ele>1641.12</ele>
  <time>2026-08-28T19:08:22Z</time>
  <course>157.21</course>
  <speed>0.2</speed>
  <fix>3d</fix>
</trkpt>
<trkpt lat="40.073843" lon="-105.2301839">
  <ele>1638.94</ele>
  <time>2026-08-28T19:08:22Z</time>
  <course>14.9</course>
  <speed>0.17464249196572978</speed>
  <fix>3d</fix>
</trkpt>
<trkpt lat="40.073843" lon="-105.2301838">
  <ele>1639.89</ele>
  <time>2026-08-28T19:08:22Z</time>
  <course>155.88</course>
  <speed>0.2</speed>
  <fix>3d</fix>
</trkpt>
<trkpt lat="40.0738427" lon="-105.2301837">
  <ele>1637.71</ele>
  <time>2026-08-28T19:08:22Z</time>
  <course>14.79</course>
  <speed>0.17888543819998318</speed>
  <fix>3d</fix>
</trkpt>
<trkpt lat="40.0738427" lon="-105.2301837">
  <ele>1638.65</ele>
  <time>2026-08-28T19:08:22Z</time>
  <course>154.6</course>
  <speed>0.2</speed>
  <fix>3d</fix>
</trkpt>
<trkpt lat="40.0738423" lon="-105.2301835">
  <ele>1636.46</ele>
  <time>2026-08-28T19:08:22Z</time>
  <course>14.69</course>
  <speed>0.17888543819998318</speed>
  <fix>3d</fix>
</trkpt>
<trkpt lat="40.0738424" lon="-105.2301835">
  <ele>1637.41</ele>
  <time>2026-08-28T19:08:22Z</time>
  <course>153.35</course>
  <speed>0.2</speed>
  <fix>3d</fix>
</trkpt>
<trkpt lat="40.073842" lon="-105.2301832">
  <ele>1635.22</ele>
  <time>2026-08-28T19:08:22Z</time>
  <course>14.59</course>
  <speed>0.17888543819998318</speed>
  <fix>3d</fix>
</trkpt>
<trkpt lat="40.073842" lon="-105.2301832">
  <ele>1636.18</ele>
  <time>2026-08-28T19:08:22Z</time>
  <course>152.14</course>
  <speed>0.2</speed>
  <fix>3d</fix>
</trkpt>
<trkpt lat="40.0738417" lon="-105.230183">
  <ele>1633.98</ele>
  <time>2026-08-28T19:08:22Z</time>
  <course>14.49</course>
  <speed>0.1835755975068582</speed>
  <fix>3d</fix>
</trkpt>
<trkpt lat="40.0738417" lon="-105.2301831">
  <ele>1634.94</ele>
  <time>2026-08-28T19:08:22Z</time>
  <course>151.05</course>
  <speed>0.2</speed>
  <fix>3d</fix>
</trkpt>
<trkpt lat="40.0738414" lon="-105.2301828">
  <ele>1632.73</ele>
  <time>2026-08-28T19:08:22Z</time>
  <course>14.4</course>
  <speed>0.1835755975068582</speed>
  <fix>3d</fix>
</trkpt>
<trkpt lat="40.0738414" lon="-105.2301828">
  <ele>1633.7</ele>
  <time>2026-08-28T19:08:22Z</time>
  <course>150.07</course>
  <speed>0.2</speed>
  <fix>3d</fix>
</trkpt>
<trkpt lat="40.073841" lon="-105.2301825">
  <ele>1631.49</ele>
  <time>2026-08-28T19:08:22Z</time>
  <course>14.35</course>
  <speed>0.1835755975068582</speed>
  <fix>3d</fix>
</trkpt>
<trkpt lat="40.0738411" lon="-105.2301826">
  <ele>1632.47</ele>
  <time>2026-08-28T19:08:22Z</time>
  <course>149.2</course>
  <speed>0.2</speed>
  <fix>3d</fix>
</trkpt>
<trkpt lat="40.0738407" lon="-105.2301823">
  <ele>1630.25</ele>
  <time>2026-08-28T19:08:22Z</time>
  <course>14.28</course>
  <speed>0.18867962264113206</speed>
  <fix>3d</fix>
</trkpt>
<trkpt lat="40.0738408" lon="-105.2301823">
  <ele>1631.23</ele>
  <time>2026-08-28T19:08:22Z</time>
  <course>148.4</course>
  <speed>0.21</speed>
  <fix>3d</fix>
</trkpt>
<trkpt lat="40.0738404" lon="-105.230182">
  <ele>1629.01</ele>
  <time>2026-08-28T19:08:22Z</time>
  <course>14.22</course>
  <speed>0.18867962264113206</speed>
  <fix>3d</fix>
</trkpt>
<trkpt lat="40.0738404" lon="-105.230182">
  <ele>1630.0</ele>
  <time>2026-08-28T19:08:22Z</time>
  <course>147.67</course>
  <speed>0.21</speed>
  <fix>3d</fix>
</trkpt>
<trkpt lat="40.0738401" lon="-105.2301817">
  <ele>1627.76</ele>
  <time>2026-08-28T19:08:22Z</time>
  <course>14.16</course>
  <speed>0.18867962264113206</speed>
  <fix>3d</fix>
</trkpt>
<trkpt lat="40.0738401" lon="-105.2301818">
  <ele>1628.77</ele>
  <time>2026-08-28T19:08:22Z</time>
  <course>147.02</course>
  <speed>0.21</speed>
  <fix>3d</fix>
</trkpt>
<trkpt lat="40.0738398" lon="-105.2301815">
  <ele>1626.52</ele>
  <time>2026-08-28T19:08:22Z</time>
  <course>14.1</course>
  <speed>0.18867962264113206</speed>
  <fix>3d</fix>
</trkpt>
<trkpt lat="40.0738398" lon="-105.2301815">
  <ele>1627.53</ele>
  <time>2026-08-28T19:08:22Z</time>
  <course>146.4</course>
  <speed>0.21</speed>
  <fix>3d</fix>
</trkpt>
<trkpt lat="40.0738394" lon="-105.2301812">
  <ele>1625.28</ele>
  <time>2026-08-28T19:08:22Z</time>
  <course>14.04</course>
  <speed>0.194164878389476</speed>
  <fix>3d</fix>
</trkpt>
<trkpt lat="40.0738395" lon="-105.2301812">
  <ele>1626.3</ele>
  <time>2026-08-28T19:08:22Z</time>
  <course>145.88</course>
  <speed>0.21</speed>
  <fix>3d</fix>
</trkpt>
<trkpt lat="40.0738391" lon="-105.2301809">
  <ele>1624.04</ele>
  <time>2026-08-28T19:08:22Z</time>
  <course>13.99</course>
  <speed>0.194164878389476</speed>
  <fix>3d</fix>
</trkpt>
<trkpt lat="40.0738391" lon="-105.2301809">
  <ele>1625.07</ele>
  <time>2026-08-28T19:08:22Z</time>
  <course>145.43</course>
  <speed>0.21</speed>
  <fix>3d</fix>
</trkpt>
<trkpt lat="40.0738388" lon="-105.2301806">
  <ele>1622.79</ele>
  <time>2026-08-28T19:08:22Z</time>
  <course>13.94</course>
  <speed>0.194164878389476</speed>
  <fix>3d</fix>
</trkpt>
<trkpt lat="40.0738388" lon="-105.2301806">
  <ele>1623.84</ele>
  <time>2026-08-28T19:08:22Z</time>
  <course>145.0</course>
  <speed>0.22</speed>
  <fix>3d</fix>
</trkpt>
<trkpt lat="40.0738385" lon="-105.2301803">
  <ele>1621.55</ele>
  <time>2026-08-28T19:08:22Z</time>
  <course>13.88</course>
  <speed>0.194164878389476</speed>
  <fix>3d</fix>
</trkpt>
<trkpt lat="40.0738385" lon="-105.2301803">
  <ele>1622.61</ele>
  <time>2026-08-28T19:08:22Z</time>
  <course>144.61</course>
  <speed>0.22</speed>
  <fix>3d</fix>
</trkpt>
<trkpt lat="40.0738381" lon="-105.23018">
  <ele>1620.32</ele>
  <time>2026-08-28T19:08:22Z</time>
  <course>13.83</course>
  <speed>0.2</speed>
  <fix>3d</fix>
</trkpt>
<trkpt lat="40.0738382" lon="-105.23018">
  <ele>1621.38</ele>
  <time>2026-08-28T19:08:22Z</time>
  <course>144.31</course>
  <speed>0.22</speed>
  <fix>3d</fix>
</trkpt>
<trkpt lat="40.0738378" lon="-105.2301797">
  <ele>1619.09</ele>
  <time>2026-08-28T19:08:22Z</time>
  <course>13.78</course>
  <speed>0.2</speed>
  <fix>3d</fix>
</trkpt>
<trkpt lat="40.0738378" lon="-105.2301797">
  <ele>1620.15</ele>
  <time>2026-08-28T19:08:22Z</time>
  <course>144.04</course>
  <speed>0.22</speed>
  <fix>3d</fix>
</trkpt>
<trkpt lat="40.0738375" lon="-105.2301794">
  <ele>1617.86</ele>
  <time>2026-08-28T19:08:23Z</time>
  <course>13.75</course>
  <speed>0.2</speed>
  <fix>3d</fix>
</trkpt>
<trkpt lat="40.0738375" lon="-105.2301794">
  <ele>1618.92</ele>
  <time>2026-08-28T19:08:23Z</time>
  <course>143.79</course>
  <speed>0.22</speed>
  <fix>3d</fix>
</trkpt>
<trkpt lat="40.0738372" lon="-105.230179">
  <ele>1616.64</ele>
  <time>2026-08-28T19:08:23Z</time>
  <course>13.69</course>
  <speed>0.2</speed>
  <fix>3d</fix>
</trkpt>
<trkpt lat="40.0738372" lon="-105.2301791">
  <ele>1617.69</ele>
  <time>2026-08-28T19:08:23Z</time>
  <course>143.59</course>
  <speed>0.22</speed>
  <fix>3d</fix>
</trkpt>
<trkpt lat="40.0738368" lon="-105.2301787">
  <ele>1615.41</ele>
  <time>2026-08-28T19:08:23Z</time>
  <course>13.64</course>
  <speed>0.2</speed>
  <fix>3d</fix>
</trkpt>
<trkpt lat="40.0738369" lon="-105.2301788">
  <ele>1616.46</ele>
  <time>2026-08-28T19:08:23Z</time>
  <course>143.41</course>
  <speed>0.22</speed>
  <fix>3d</fix>
</trkpt>
<trkpt lat="40.0738365" lon="-105.2301784">
  <ele>1614.17</ele>
  <time>2026-08-28T19:08:23Z</time>
  <course>13.61</course>
  <speed>0.2</speed>
  <fix>3d</fix>
</trkpt>
<trkpt lat="40.0738365" lon="-105.2301784">
  <ele>1615.23</ele>
  <time>2026-08-28T19:08:23Z</time>
  <course>143.26</course>
  <speed>0.23</speed>
  <fix>3d</fix>
</trkpt>
<trkpt lat="40.0738362" lon="-105.2301781">
  <ele>1612.95</ele>
  <time>2026-08-28T19:08:23Z</time>
  <course>13.57</course>
  <speed>0.2</speed>
  <fix>3d</fix>
</trkpt>
<trkpt lat="40.0738362" lon="-105.2301781">
  <ele>1614.0</ele>
  <time>2026-08-28T19:08:23Z</time>
  <course>143.15</course>
  <speed>0.23</speed>
  <fix>3d</fix>
</trkpt>
<trkpt lat="40.0738358" lon="-105.2301777">
  <ele>1611.71</ele>
  <time>2026-08-28T19:08:23Z</time>
  <course>13.54</course>
  <speed>0.20615528128088303</speed>
  <fix>3d</fix>
</trkpt>
<trkpt lat="40.0738359" lon="-105.2301778">
  <ele>1612.77</ele>
  <time>2026-08-28T19:08:23Z</time>
  <course>143.08</course>
  <speed>0.23</speed>
  <fix>3d</fix>
</trkpt>
<trkpt lat="40.0738355" lon="-105.2301774">
  <ele>1610.48</ele>
  <time>2026-08-28T19:08:23Z</time>
  <course>13.5</course>
  <speed>0.20615528128088303</speed>
  <fix>3d</fix>
</trkpt>
<trkpt lat="40.0738355" lon="-105.2301775">
  <ele>1611.54</ele>
  <time>2026-08-28T19:08:23Z</time>
  <course>143.02</course>
  <speed>0.23</speed>
  <fix>3d</fix>
</trkpt>
<trkpt lat="40.0738352" lon="-105.2301771">
  <ele>1609.25</ele>
  <time>2026-08-28T19:08:23Z</time>
  <course>13.46</course>
  <speed>0.21400934559032694</speed>
  <fix>3d</fix>
</trkpt>
<trkpt lat="40.0738352" lon="-105.2301771">
  <ele>1610.31</ele>
  <time>2026-08-28T19:08:23Z</time>
  <course>142.98</course>
  <speed>0.23</speed>
  <fix>3d</fix>
</trkpt>
<trkpt lat="40.0738348" lon="-105.2301767">
  <ele>1608.02</ele>
  <time>2026-08-28T19:08:23Z</time>
  <course>13.43</course>
  <speed>0.21400934559032694</speed>
  <fix>3d</fix>
</trkpt>
<trkpt lat="40.0738348" lon="-105.2301768">
  <ele>1609.09</ele>
  <time>2026-08-28T19:08:23Z</time>
  <course>142.95</course>
  <speed>0.23</speed>
  <fix>3d</fix>
</trkpt>
<trkpt lat="40.0738345" lon="-105.2301764">
  <ele>1606.79</ele>
  <time>2026-08-28T19:08:23Z</time>
  <course>13.39</course>
  <speed>0.21400934559032694</speed>
  <fix>3d</fix>
</trkpt>
<trkpt lat="40.0738345" lon="-105.2301765">
  <ele>1607.86</ele>
  <time>2026-08-28T19:08:23Z</time>
  <course>142.93</course>
  <speed>0.23</speed>
  <fix>3d</fix>
</trkpt>
<trkpt lat="40.0738341" lon="-105.2301761">
  <ele>1605.56</ele>
  <time>2026-08-28T19:08:23Z</time>
  <course>13.35</course>
  <speed>0.21400934559032694</speed>
  <fix>3d</fix>
</trkpt>
<trkpt lat="40.0738341" lon="-105.2301761">
  <ele>1606.63</ele>
  <time>2026-08-28T19:08:23Z</time>
  <course>142.93</course>
  <speed>0.24</speed>
  <fix>3d</fix>
</trkpt>
<trkpt lat="40.0738338" lon="-105.2301757">
  <ele>1604.32</ele>
  <time>2026-08-28T19:08:23Z</time>
  <course>13.32</course>
  <speed>0.21400934559032694</speed>
  <fix>3d</fix>
</trkpt>
<trkpt lat="40.0738338" lon="-105.2301758">
  <ele>1605.4</ele>
  <time>2026-08-28T19:08:23Z</time>
  <course>142.95</course>
  <speed>0.24</speed>
  <fix>3d</fix>
</trkpt>
<trkpt lat="40.0738334" lon="-105.2301754">
  <ele>1603.09</ele>
  <time>2026-08-28T19:08:23Z</time>
  <course>13.28</course>
  <speed>0.21400934559032694</speed>
  <fix>3d</fix>
</trkpt>
<trkpt lat="40.0738335" lon="-105.2301754">
  <ele>1604.17</ele>
  <time>2026-08-28T19:08:23Z</time>
  <course>142.98</course>
  <speed>0.24</speed>
  <fix>3d</fix>
</trkpt>
<trkpt lat="40.0738331" lon="-105.230175">
  <ele>1601.86</ele>
  <time>2026-08-28T19:08:23Z</time>
  <course>13.25</course>
  <speed>0.21400934559032694</speed>
  <fix>3d</fix>
</trkpt>
<trkpt lat="40.0738331" lon="-105.2301751">
  <ele>1602.95</ele>
  <time>2026-08-28T19:08:23Z</time>
  <course>143.02</course>
  <speed>0.24</speed>
  <fix>3d</fix>
</trkpt>
<trkpt lat="40.0738327" lon="-105.2301747">
  <ele>1600.63</ele>
  <time>2026-08-28T19:08:23Z</time>
  <course>13.22</course>
  <speed>0.21400934559032694</speed>
  <fix>3d</fix>
</trkpt>
<trkpt lat="40.0738328" lon="-105.2301747">
  <ele>1601.72</ele>
  <time>2026-08-28T19:08:23Z</time>
  <course>143.08</course>
  <speed>0.24</speed>
  <fix>3d</fix>
</trkpt>
<trkpt lat="40.0738324" lon="-105.2301743">
  <ele>1599.4</ele>
  <time>2026-08-28T19:08:23Z</time>
  <course>13.19</course>
  <speed>0.21400934559032694</speed>
  <fix>3d</fix>
</trkpt>
<trkpt lat="40.0738324" lon="-105.2301744">
  <ele>1600.49</ele>
  <time>2026-08-28T19:08:23Z</time>
  <course>143.16</course>
  <speed>0.24</speed>
  <fix>3d</fix>
</trkpt>
<trkpt lat="40.073832" lon="-105.230174">
  <ele>1598.17</ele>
  <time>2026-08-28T19:08:23Z</time>
  <course>13.16</course>
  <speed>0.21400934559032694</speed>
  <fix>3d</fix>
</trkpt>
<trkpt lat="40.0738321" lon="-105.2301741">
  <ele>1599.26</ele>
  <time>2026-08-28T19:08:23Z</time>
  <course>143.24</course>
  <speed>0.24</speed>
  <fix>3d</fix>
</trkpt>
<trkpt lat="40.0738317" lon="-105.2301736">
  <ele>1596.93</ele>
  <time>2026-08-28T19:08:23Z</time>
  <course>13.13</course>
  <speed>0.2220360331117452</speed>
  <fix>3d</fix>
</trkpt>
<trkpt lat="40.0738317" lon="-105.2301737">
  <ele>1598.03</ele>
  <time>2026-08-28T19:08:23Z</time>
  <course>143.34</course>
  <speed>0.24</speed>
  <fix>3d</fix>
</trkpt>
<trkpt lat="40.0738313" lon="-105.2301733">
  <ele>1595.7</ele>
  <time>2026-08-28T19:08:23Z</time>
  <course>13.11</course>
  <speed>0.2220360331117452</speed>
  <fix>3d</fix>
</trkpt>
<trkpt lat="40.0738314" lon="-105.2301734">
  <ele>1596.8</ele>
  <time>2026-08-28T19:08:23Z</time>
  <course>143.45</course>
  <speed>0.24</speed>
  <fix>3d</fix>
</trkpt>
<trkpt lat="40.0738309" lon="-105.2301729">
  <ele>1594.47</ele>
  <time>2026-08-28T19:08:23Z</time>
  <course>13.08</course>
  <speed>0.2220360331117452</speed>
  <fix>3d</fix>
</trkpt>
<trkpt lat="40.073831" lon="-105.230173">
  <ele>1595.57</ele>
  <time>2026-08-28T19:08:23Z</time>
  <course>143.58</course>
  <speed>0.25</speed>
  <fix>3d</fix>
</trkpt>
<trkpt lat="40.0738306" lon="-105.2301726">
  <ele>1593.24</ele>
  <time>2026-08-28T19:08:23Z</time>
  <course>13.05</course>
  <speed>0.2220360331117452</speed>
  <fix>3d</fix>
</trkpt>
<trkpt lat="40.0738306" lon="-105.2301727">
  <ele>1594.35</ele>
  <time>2026-08-28T19:08:23Z</time>
  <course>143.7</course>
  <speed>0.25</speed>
  <fix>3d</fix>
</trkpt>
<trkpt lat="40.0738302" lon="-105.2301722">
  <ele>1592.0</ele>
  <time>2026-08-28T19:08:23Z</time>
  <course>13.03</course>
  <speed>0.2220360331117452</speed>
  <fix>3d</fix>
</trkpt>
<trkpt lat="40.0738303" lon="-105.2301723">
  <ele>1593.12</ele>
  <time>2026-08-28T19:08:23Z</time>
  <course>143.82</course>
  <speed>0.25</speed>
  <fix>3d</fix>
</trkpt>
<trkpt lat="40.0738299" lon="-105.2301719">
  <ele>1590.76</ele>
  <time>2026-08-28T19:08:23Z</time>
  <course>13.0</course>
  <speed>0.2220360331117452</speed>
  <fix>3d</fix>
</trkpt>
<trkpt lat="40.0738298" lon="-105.230172">
  <ele>1591.89</ele>
  <time>2026-08-28T19:08:23Z</time>
  <course>143.96</course>
  <speed>0.25</speed>
  <fix>3d</fix>
</trkpt>
<trkpt lat="40.0738295" lon="-105.2301716">
  <ele>1589.53</ele>
  <time>2026-08-28T19:08:23Z</time>
  <course>12.98</course>
  <speed>0.2220360331117452</speed>
  <fix>3d</fix>
</trkpt>
<trkpt lat="40.0738295" lon="-105.2301716">
  <ele>1590.66</ele>
  <time>2026-08-28T19:08:23Z</time>
  <course>144.09</course>
  <speed>0.25</speed>
  <fix>3d</fix>
</trkpt>
<trkpt lat="40.0738291" lon="-105.2301712">
  <ele>1588.29</ele>
  <time>2026-08-28T19:08:23Z</time>
  <course>12.95</course>
  <speed>0.2220360331117452</speed>
  <fix>3d</fix>
</trkpt>
<trkpt lat="40.0738292" lon="-105.2301713">
  <ele>1589.44</ele>
  <time>2026-08-28T19:08:23Z</time>
  <course>144.21</course>
  <speed>0.25</speed>
  <fix>3d</fix>
</trkpt>
<trkpt lat="40.0738287" lon="-105.2301709">
  <ele>1587.07</ele>
  <time>2026-08-28T19:08:23Z</time>
  <course>12.93</course>
  <speed>0.2220360331117452</speed>
  <fix>3d</fix>
</trkpt>
<trkpt lat="40.0738288" lon="-105.2301709">
  <ele>1588.21</ele>
  <time>2026-08-28T19:08:23Z</time>
  <course>144.34</course>
  <speed>0.25</speed>
  <fix>3d</fix>
</trkpt>
<trkpt lat="40.0738284" lon="-105.2301705">
  <ele>1585.84</ele>
  <time>2026-08-28T19:08:23Z</time>
  <course>12.9</course>
  <speed>0.23021728866442676</speed>
  <fix>3d</fix>
</trkpt>
<trkpt lat="40.0738283" lon="-105.2301705">
  <ele>1586.98</ele>
  <time>2026-08-28T19:08:23Z</time>
  <course>144.48</course>
  <speed>0.25</speed>
  <fix>3d</fix>
</trkpt>
<trkpt lat="40.073828" lon="-105.2301701">
  <ele>1584.61</ele>
  <time>2026-08-28T19:08:23Z</time>
  <course>12.88</course>
  <speed>0.23021728866442676</speed>
  <fix>3d</fix>
</trkpt>
<trkpt lat="40.073828" lon="-105.2301702">
  <ele>1585.75</ele>
  <time>2026-08-28T19:08:23Z</time>
  <course>144.62</course>
  <speed>0.25</speed>
  <fix>3d</fix>
</trkpt>
<trkpt lat="40.0738276" lon="-105.2301698">
  <ele>1583.38</ele>
  <time>2026-08-28T19:08:23Z</time>
  <course>12.85</course>
  <speed>0.23021728866442676</speed>
  <fix>3d</fix>
</trkpt>
<trkpt lat="40.0738276" lon="-105.2301698">
  <ele>1584.52</ele>
  <time>2026-08-28T19:08:23Z</time>
  <course>144.76</course>
  <speed>0.25</speed>
  <fix>3d</fix>
</trkpt>
<trkpt lat="40.0738275" lon="-105.2301697">
  <ele>1583.08</ele>
  <time>2026-08-28T19:08:23Z</time>
  <course>12.88</course>
  <speed>0.11704699910719625</speed>
  <fix>3d</fix>
</trkpt>
<trkpt lat="40.0738274" lon="-105.2301695">
  <ele>1583.57</ele>
  <time>2026-08-28T19:08:23Z</time>
  <course>147.41</course>
  <speed>0.11</speed>
  <fix>3d</fix>
</trkpt>
<trkpt lat="40.0738277" lon="-105.2301698">
  <ele>1583.34</ele>
  <time>2026-08-28T19:08:23Z</time>
  <course>12.94</course>
  <speed>0.07071067811865475</speed>
  <fix>3d</fix>
</trkpt>
<trkpt lat="40.0738273" lon="-105.2301695">
  <ele>1583.38</ele>
  <time>2026-08-28T19:08:23Z</time>
  <course>321.6</course>
  <speed>0.04</speed>
  <fix>3d</fix>
</trkpt>
<trkpt lat="40.0738275" lon="-105.2301697">
  <ele>1583.31</ele>
  <time>2026-08-28T19:08:23Z</time>
  <course>12.95</course>
  <speed>0.02</speed>
  <fix>3d</fix>
</trkpt>
<trkpt lat="40.0738274" lon="-105.2301696">
  <ele>1583.57</ele>
  <time>2026-08-28T19:08:23Z</time>
  <course>337.71</course>
  <speed>0.01</speed>
  <fix>3d</fix>
</trkpt>
<trkpt lat="40.0738275" lon="-105.2301697">
  <ele>1583.28</ele>
  <time>2026-08-28T19:08:23Z</time>
  <course>12.95</course>
  <speed>0.03</speed>
  <fix>3d</fix>
</trkpt>
<trkpt lat="40.0738274" lon="-105.2301696">
  <ele>1583.58</ele>
  <time>2026-08-28T19:08:23Z</time>
  <course>132.91</course>
  <speed>0.0</speed>
  <fix>3d</fix>
</trkpt>
<trkpt lat="40.0738275" lon="-105.2301697">
  <ele>1583.3</ele>
  <time>2026-08-28T19:08:23Z</time>
  <course>12.96</course>
  <speed>0.03</speed>
  <fix>3d</fix>
</trkpt>
<trkpt lat="40.0738274" lon="-105.2301696">
  <ele>1583.55</ele>
  <time>2026-08-28T19:08:23Z</time>
  <course>126.59</course>
  <speed>0.0</speed>
  <fix>3d</fix>
</trkpt>
<trkpt lat="40.0738275" lon="-105.2301697">
  <ele>1583.32</ele>
  <time>2026-08-28T19:08:23Z</time>
  <course>12.96</course>
  <speed>0.02</speed>
  <fix>3d</fix>
</trkpt>
<trkpt lat="40.0738274" lon="-105.2301696">
  <ele>1583.55</ele>
  <time>2026-08-28T19:08:23Z</time>
  <course>85.0</course>
  <speed>0.0</speed>
  <fix>3d</fix>
</trkpt>
<trkpt lat="40.0738275" lon="-105.2301697">
  <ele>1583.34</ele>
  <time>2026-08-28T19:08:23Z</time>
  <course>12.94</course>
  <speed>0.02</speed>
  <fix>3d</fix>
</trkpt>
<trkpt lat="40.0738274" lon="-105.2301696">
  <ele>1583.56</ele>
  <time>2026-08-28T19:08:23Z</time>
  <course>97.52</course>
  <speed>0.0</speed>
  <fix>3d</fix>
</trkpt>
<trkpt lat="40.0738275" lon="-105.2301697">
  <ele>1583.35</ele>
  <time>2026-08-28T19:08:23Z</time>
  <course>12.93</course>
  <speed>0.02</speed>
  <fix>3d</fix>
</trkpt>
<trkpt lat="40.0738274" lon="-105.2301696">
  <ele>1583.56</ele>
  <time>2026-08-28T19:08:23Z</time>
  <course>94.15</course>
  <speed>0.0</speed>
  <fix>3d</fix>
</trkpt>
<trkpt lat="40.0738275" lon="-105.2301697">
  <ele>1583.37</ele>
  <time>2026-08-28T19:08:23Z</time>
  <course>12.91</course>
  <speed>0.02</speed>
  <fix>3d</fix>
</trkpt>
<trkpt lat="40.0738274" lon="-105.2301696">
  <ele>1583.56</ele>
  <time>2026-08-28T19:08:23Z</time>
  <course>340.26</course>
  <speed>0.0</speed>
  <fix>3d</fix>
</trkpt>
<trkpt lat="40.0738275" lon="-105.2301697">
  <ele>1583.38</ele>
  <time>2026-08-28T19:08:23Z</time>
  <course>12.89</course>
  <speed>0.01</speed>
  <fix>3d</fix>
</trkpt>
<trkpt lat="40.0738274" lon="-105.2301696">
  <ele>1583.56</ele>
  <time>2026-08-28T19:08:23Z</time>
  <course>48.82</course>
  <speed>0.0</speed>
  <fix>3d</fix>
</trkpt>
<trkpt lat="40.0738275" lon="-105.2301697">
  <ele>1583.38</ele>
  <time>2026-08-28T19:08:23Z</time>
  <course>12.88</course>
  <speed>0.01</speed>
  <fix>3d</fix>
</trkpt>
<trkpt lat="40.0738274" lon="-105.2301696">
  <ele>1583.56</ele>
  <time>2026-08-28T19:08:23Z</time>
  <course>299.1</course>
  <speed>0.0</speed>
  <fix>3d</fix>
</trkpt>
<trkpt lat="40.0738275" lon="-105.2301697">
  <ele>1583.39</ele>
  <time>2026-08-28T19:08:23Z</time>
  <course>12.86</course>
  <speed>0.01414213562373095</speed>
  <fix>3d</fix>
</trkpt>
<trkpt lat="40.0738274" lon="-105.2301696">
  <ele>1583.56</ele>
  <time>2026-08-28T19:08:23Z</time>
  <course>247.42</course>
  <speed>0.0</speed>
  <fix>3d</fix>
</trkpt>
<trkpt lat="40.0738275" lon="-105.2301697">
  <ele>1583.39</ele>
  <time>2026-08-28T19:08:23Z</time>
  <course>12.85</course>
  <speed>0.01414213562373095</speed>
  <fix>3d</fix>
</trkpt>
<trkpt lat="40.0738274" lon="-105.2301696">
  <ele>1583.56</ele>
  <time>2026-08-28T19:08:23Z</time>
  <course>239.4</course>
  <speed>0.0</speed>
  <fix>3d</fix>
</trkpt>
<trkpt lat="40.0738275" lon="-105.2301697">
  <ele>1583.39</ele>
  <time>2026-08-28T19:08:23Z</time>
  <course>12.84</course>
  <speed>0.01414213562373095</speed>
  <fix>3d</fix>
</trkpt>
<trkpt lat="40.0738274" lon="-105.2301696">
  <ele>1583.56</ele>
  <time>2026-08-28T19:08:23Z</time>
  <course>245.67</course>
  <speed>0.0</speed>
  <fix>3d</fix>
</trkpt>
<trkpt lat="40.0738275" lon="-105.2301697">
  <ele>1583.4</ele>
  <time>2026-08-28T19:08:23Z</time>
  <course>12.83</course>
  <speed>0.01414213562373095</speed>
  <fix>3d</fix>
</trkpt>
<trkpt lat="40.0738274" lon="-105.2301696">
  <ele>1583.56</ele>
  <time>2026-08-28T19:08:23Z</time>
  <course>242.87</course>
  <speed>0.0</speed>
  <fix>3d</fix>
</trkpt>
<trkpt lat="40.0738275" lon="-105.2301697">
  <ele>1583.4</ele>
  <time>2026-08-28T19:08:23Z</time>
  <course>12.82</course>
  <speed>0.01414213562373095</speed>
  <fix>3d</fix>
</trkpt>
<trkpt lat="40.0738274" lon="-105.2301696">
  <ele>1583.56</ele>
  <time>2026-08-28T19:08:23Z</time>
  <course>222.24</course>
  <speed>0.0</speed>
  <fix>3d</fix>
</trkpt>
<trkpt lat="40.0738275" lon="-105.2301697">
  <ele>1583.41</ele>
  <time>2026-08-28T19:08:23Z</time>
  <course>12.8</course>
  <speed>0.01414213562373095</speed>
  <fix>3d</fix>
</trkpt>
<trkpt lat="40.0738274" lon="-105.2301696">
  <ele>1583.56</ele>
  <time>2026-08-28T19:08:23Z</time>
  <course>134.26</course>
  <speed>0.0</speed>
  <fix>3d</fix>
</trkpt>
<trkpt lat="40.0738275" lon="-105.2301697">
  <ele>1583.41</ele>
  <time>2026-08-28T19:08:23Z</time>
  <course>12.79</course>
  <speed>0.01414213562373095</speed>
  <fix>3d</fix>
</trkpt>
<trkpt lat="40.0738274" lon="-105.2301696">
  <ele>1583.56</ele>
  <time>2026-08-28T19:08:23Z</time>
  <course>60.7</course>
  <speed>0.0</speed>
  <fix>3d</fix>
</trkpt>
<trkpt lat="40.0738275" lon="-105.2301697">
  <ele>1583.41</ele>
  <time>2026-08-28T19:08:23Z</time>
  <course>12.78</course>
  <speed>0.01414213562373095</speed>
  <fix>3d</fix>
</trkpt>
<trkpt lat="40.0738274" lon="-105.2301696">
  <ele>1583.56</ele>
  <time>2026-08-28T19:08:23Z</time>
  <course>231.01</course>
  <speed>0.0</speed>
  <fix>3d</fix>
</trkpt>
<trkpt lat="40.0738275" lon="-105.2301697">
  <ele>1583.42</ele>
  <time>2026-08-28T19:08:23Z</time>
  <course>12.77</course>
  <speed>0.01414213562373095</speed>
  <fix>3d</fix>
</trkpt>
<trkpt lat="40.0738274" lon="-105.2301696">
  <ele>1583.56</ele>
  <time>2026-08-28T19:08:23Z</time>
  <course>62.04</course>
  <speed>0.0</speed>
  <fix>3d</fix>
</trkpt>
<trkpt lat="40.0738275" lon="-105.2301697">
  <ele>1583.42</ele>
  <time>2026-08-28T19:08:23Z</time>
  <course>12.76</course>
  <speed>0.01414213562373095</speed>
  <fix>3d</fix>
</trkpt>
<trkpt lat="40.0738274" lon="-105.2301696">
  <ele>1583.56</ele>
  <time>2026-08-28T19:08:23Z</time>
  <course>108.78</course>
  <speed>0.0</speed>
  <fix>3d</fix>
</trkpt>
<trkpt lat="40.0738275" lon="-105.2301697">
  <ele>1583.42</ele>
  <time>2026-08-28T19:08:23Z</time>
  <course>12.75</course>
  <speed>0.01414213562373095</speed>
  <fix>3d</fix>
</trkpt>
<trkpt lat="40.0738274" lon="-105.2301696">
  <ele>1583.56</ele>
  <time>2026-08-28T19:08:23Z</time>
  <course>108.47</course>
  <speed>0.0</speed>
  <fix>3d</fix>
</trkpt>
<trkpt lat="40.0738275" lon="-105.2301697">
  <ele>1583.43</ele>
  <time>2026-08-28T19:08:23Z</time>
  <course>12.74</course>
  <speed>0.01414213562373095</speed>
  <fix>3d</fix>
</trkpt>
<trkpt lat="40.0738274" lon="-105.2301696">
  <ele>1583.56</ele>
  <time>2026-08-28T19:08:23Z</time>
  <course>81.68</course>
  <speed>0.0</speed>
  <fix>3d</fix>
</trkpt>
<trkpt lat="40.0738275" lon="-105.2301697">
  <ele>1583.43</ele>
  <time>2026-08-28T19:08:23Z</time>
  <course>12.73</course>
  <speed>0.01414213562373095</speed>
  <fix>3d</fix>
</trkpt>
<trkpt lat="40.0738274" lon="-105.2301696">
  <ele>1583.56</ele>
  <time>2026-08-28T19:08:23Z</time>
  <course>81.92</course>
  <speed>0.0</speed>
  <fix>3d</fix>
</trkpt>
<trkpt lat="40.0738275" lon="-105.2301697">
  <ele>1583.43</ele>
  <time>2026-08-28T19:08:23Z</time>
  <course>12.73</course>
  <speed>0.01414213562373095</speed>
  <fix>3d</fix>
</trkpt>
<trkpt lat="40.0738274" lon="-105.2301696">
  <ele>1583.56</ele>
  <time>2026-08-28T19:08:23Z</time>
  <course>65.56</course>
  <speed>0.0</speed>
  <fix>3d</fix>
</trkpt>
<trkpt lat="40.0738275" lon="-105.2301697">
  <ele>1583.44</ele>
  <time>2026-08-28T19:08:23Z</time>
  <course>12.72</course>
  <speed>0.01414213562373095</speed>
  <fix>3d</fix>
</trkpt>
<trkpt lat="40.0738274" lon="-105.2301696">
  <ele>1583.56</ele>
  <time>2026-08-28T19:08:23Z</time>
  <course>116.64</course>
  <speed>0.0</speed>
  <fix>3d</fix>
</trkpt>
<trkpt lat="40.0738275" lon="-105.2301697">
  <ele>1583.44</ele>
  <time>2026-08-28T19:08:23Z</time>
  <course>12.71</course>
  <speed>0.01414213562373095</speed>
  <fix>3d</fix>
</trkpt>
<trkpt lat="40.0738274" lon="-105.2301696">
  <ele>1583.56</ele>
  <time>2026-08-28T19:08:23Z</time>
  <course>109.42</course>
  <speed>0.0</speed>
  <fix>3d</fix>
</trkpt>
<trkpt lat="40.0738275" lon="-105.2301697">
  <ele>1583.44</ele>
  <time>2026-08-28T19:08:23Z</time>
  <course>12.7</course>
  <speed>0.01414213562373095</speed>
  <fix>3d</fix>
</trkpt>
<trkpt lat="40.0738274" lon="-105.2301696">
  <ele>1583.56</ele>
  <time>2026-08-28T19:08:23Z</time>
  <course>57.61</course>
  <speed>0.0</speed>
  <fix>3d</fix>
</trkpt>
<trkpt lat="40.0738275" lon="-105.2301697">
  <ele>1583.45</ele>
  <time>2026-08-28T19:08:23Z</time>
  <course>12.69</course>
  <speed>0.01414213562373095</speed>
  <fix>3d</fix>
</trkpt>
<trkpt lat="40.0738274" lon="-105.2301696">
  <ele>1583.56</ele>
  <time>2026-08-28T19:08:23Z</time>
  <course>60.12</course>
  <speed>0.0</speed>
  <fix>3d</fix>
</trkpt>
<trkpt lat="40.0738275" lon="-105.2301697">
  <ele>1583.46</ele>
  <time>2026-08-28T19:08:23Z</time>
  <course>12.68</course>
  <speed>0.01414213562373095</speed>
  <fix>3d</fix>
</trkpt>
<trkpt lat="40.0738274" lon="-105.2301696">
  <ele>1583.56</ele>
  <time>2026-08-28T19:08:23Z</time>
  <course>131.45</course>
  <speed>0.0</speed>
  <fix>3d</fix>
</trkpt>
<trkpt lat="40.0738275" lon="-105.2301697">
  <ele>1583.46</ele>
  <time>2026-08-28T19:08:23Z</time>
  <course>12.67</course>
  <speed>0.01414213562373095</speed>
  <fix>3d</fix>
</trkpt>
<trkpt lat="40.0738274" lon="-105.2301696">
  <ele>1583.56</ele>
  <time>2026-08-28T19:08:23Z</time>
  <course>134.05</course>
  <speed>0.0</speed>
  <fix>3d</fix>
</trkpt>
<trkpt lat="40.0738275" lon="-105.2301697">
  <ele>1583.46</ele>
  <time>2026-08-28T19:08:23Z</time>
  <course>12.66</course>
  <speed>0.01414213562373095</speed>
  <fix>3d</fix>
</trkpt>
<trkpt lat="40.0738274" lon="-105.2301696">
  <ele>1583.56</ele>
  <time>2026-08-28T19:08:23Z</time>
  <course>107.13</course>
  <speed>0.0</speed>
  <fix>3d</fix>
</trkpt>
<trkpt lat="40.0738275" lon="-105.2301697">
  <ele>1583.47</ele>
  <time>2026-08-28T19:08:23Z</time>
  <course>12.65</course>
  <speed>0.01414213562373095</speed>
  <fix>3d</fix>
</trkpt>
<trkpt lat="40.0738274" lon="-105.2301696">
  <ele>1583.56</ele>
  <time>2026-08-28T19:08:23Z</time>
  <course>56.11</course>
  <speed>0.0</speed>
  <fix>3d</fix>
</trkpt>
<trkpt lat="40.0738275" lon="-105.2301697">
  <ele>1583.47</ele>
  <time>2026-08-28T19:08:23Z</time>
  <course>12.64</course>
  <speed>0.01414213562373095</speed>
  <fix>3d</fix>
</trkpt>
<trkpt lat="40.0738274" lon="-105.2301696">
  <ele>1583.56</ele>
  <time>2026-08-28T19:08:23Z</time>
  <course>74.74</course>
  <speed>0.0</speed>
  <fix>3d</fix>
</trkpt>
<trkpt lat="40.0738275" lon="-105.2301697">
  <ele>1583.47</ele>
  <time>2026-08-28T19:08:23Z</time>
  <course>12.63</course>
  <speed>0.01414213562373095</speed>
  <fix>3d</fix>
</trkpt>
<trkpt lat="40.0738274" lon="-105.2301696">
  <ele>1583.56</ele>
  <time>2026-08-28T19:08:23Z</time>
  <course>111.28</course>
  <speed>0.0</speed>
  <fix>3d</fix>
</trkpt>
<trkpt lat="40.0738275" lon="-105.2301697">
  <ele>1583.48</ele>
  <time>2026-08-28T19:08:23Z</time>
  <course>12.62</course>
  <speed>0.01414213562373095</speed>
  <fix>3d</fix>
</trkpt>
<trkpt lat="40.0738274" lon="-105.2301696">
  <ele>1583.56</ele>
  <time>2026-08-28T19:08:23Z</time>
  <course>119.6</course>
  <speed>0.0</speed>
  <fix>3d</fix>
</trkpt>
<trkpt lat="40.0738275" lon="-105.2301697">
  <ele>1583.48</ele>
  <time>2026-08-28T19:08:23Z</time>
  <course>12.61</course>
  <speed>0.01414213562373095</speed>
  <fix>3d</fix>
</trkpt>
<trkpt lat="40.0738274" lon="-105.2301696">
  <ele>1583.56</ele>
  <time>2026-08-28T19:08:23Z</time>
  <course>95.9</course>
  <speed>0.0</speed>
  <fix>3d</fix>
</trkpt>
<trkpt lat="40.0738275" lon="-105.2301697">
  <ele>1583.49</ele>
  <time>2026-08-28T19:08:23Z</time>
  <course>12.6</course>
  <speed>0.01414213562373095</speed>
  <fix>3d</fix>
</trkpt>
<trkpt lat="40.0738274" lon="-105.2301696">
  <ele>1583.56</ele>
  <time>2026-08-28T19:08:23Z</time>
  <course>69.02</course>
  <speed>0.0</speed>
  <fix>3d</fix>
</trkpt>
<trkpt lat="40.0738275" lon="-105.2301697">
  <ele>1583.49</ele>
  <time>2026-08-28T19:08:23Z</time>
  <course>12.59</course>
  <speed>0.01414213562373095</speed>
  <fix>3d</fix>
</trkpt>
<trkpt lat="40.0738274" lon="-105.2301696">
  <ele>1583.56</ele>
  <time>2026-08-28T19:08:23Z</time>
  <course>87.26</course>
  <speed>0.0</speed>
  <fix>3d</fix>
</trkpt>
<trkpt lat="40.0738275" lon="-105.2301697">
  <ele>1583.5</ele>
  <time>2026-08-28T19:08:23Z</time>
  <course>12.59</course>
  <speed>0.01414213562373095</speed>
  <fix>3d</fix>
</trkpt>
<trkpt lat="40.0738274" lon="-105.2301696">
  <ele>1583.56</ele>
  <time>2026-08-28T19:08:23Z</time>
  <course>111.33</course>
  <speed>0.0</speed>
  <fix>3d</fix>
</trkpt>
<trkpt lat="40.0738275" lon="-105.2301697">
  <ele>1583.51</ele>
  <time>2026-08-28T19:08:23Z</time>
  <course>12.58</course>
  <speed>0.01414213562373095</speed>
  <fix>3d</fix>
</trkpt>
<trkpt lat="40.0738274" lon="-105.2301696">
  <ele>1583.56</ele>
  <time>2026-08-28T19:08:23Z</time>
  <course>122.34</course>
  <speed>0.0</speed>
  <fix>3d</fix>
</trkpt>
<trkpt lat="40.0738275" lon="-105.2301697">
  <ele>1583.51</ele>
  <time>2026-08-28T19:08:23Z</time>
  <course>12.57</course>
  <speed>0.01414213562373095</speed>
  <fix>3d</fix>
</trkpt>
<trkpt lat="40.0738274" lon="-105.2301696">
  <ele>1583.56</ele>
  <time>2026-08-28T19:08:23Z</time>
  <course>116.4</course>
  <speed>0.0</speed>
  <fix>3d</fix>
</trkpt>
<trkpt lat="40.0738275" lon="-105.2301697">
  <ele>1583.52</ele>
  <time>2026-08-28T19:08:23Z</time>
  <course>12.56</course>
  <speed>0.01414213562373095</speed>
  <fix>3d</fix>
</trkpt>
<trkpt lat="40.0738274" lon="-105.2301696">
  <ele>1583.56</ele>
  <time>2026-08-28T19:08:23Z</time>
  <course>145.86</course>
  <speed>0.0</speed>
  <fix>3d</fix>
</trkpt>
<trkpt lat="40.0738275" lon="-105.2301697">
  <ele>1583.53</ele>
  <time>2026-08-28T19:08:23Z</time>
  <course>12.55</course>
  <speed>0.01414213562373095</speed>
  <fix>3d</fix>
</trkpt>
<trkpt lat="40.0738274" lon="-105.2301696">
  <ele>1583.56</ele>
  <time>2026-08-28T19:08:23Z</time>
  <course>101.89</course>
  <speed>0.0</speed>
  <fix>3d</fix>
</trkpt>
<trkpt lat="40.0738275" lon="-105.2301697">
  <ele>1583.53</ele>
  <time>2026-08-28T19:08:23Z</time>
  <course>12.54</course>
  <speed>0.01414213562373095</speed>
  <fix>3d</fix>
</trkpt>
<trkpt lat="40.0738274" lon="-105.2301696">
  <ele>1583.56</ele>
  <time>2026-08-28T19:08:23Z</time>
  <course>114.54</course>
  <speed>0.0</speed>
  <fix>3d</fix>
</trkpt>
<trkpt lat="40.0738275" lon="-105.2301697">
  <ele>1583.54</ele>
  <time>2026-08-28T19:08:23Z</time>
  <course>12.54</course>
  <speed>0.01414213562373095</speed>
  <fix>3d</fix>
</trkpt>
<trkpt lat="40.0738274" lon="-105.2301696">
  <ele>1583.56</ele>
  <time>2026-08-28T19:08:23Z</time>
  <course>118.58</course>
  <speed>0.0</speed>
  <fix>3d</fix>
</trkpt>
<trkpt lat="40.0738275" lon="-105.2301697">
  <ele>1583.54</ele>
  <time>2026-08-28T19:08:23Z</time>
  <course>12.53</course>
  <speed>0.01414213562373095</speed>
  <fix>3d</fix>
</trkpt>
<trkpt lat="40.0738274" lon="-105.2301696">
  <ele>1583.56</ele>
  <time>2026-08-28T19:08:23Z</time>
  <course>86.16</course>
  <speed>0.0</speed>
  <fix>3d</fix>
</trkpt>
<trkpt lat="40.0738275" lon="-105.2301697">
  <ele>1583.54</ele>
  <time>2026-08-28T19:08:23Z</time>
  <course>12.52</course>
  <speed>0.01414213562373095</speed>
  <fix>3d</fix>
</trkpt>
<trkpt lat="40.0738274" lon="-105.2301696">
  <ele>1583.56</ele>
  <time>2026-08-28T19:08:23Z</time>
  <course>81.54</course>
  <speed>0.0</speed>
  <fix>3d</fix>
</trkpt>
<trkpt lat="40.0738275" lon="-105.2301697">
  <ele>1583.54</ele>
  <time>2026-08-28T19:08:23Z</time>
  <course>12.51</course>
  <speed>0.01414213562373095</speed>
  <fix>3d</fix>
</trkpt>
<trkpt lat="40.0738274" lon="-105.2301696">
  <ele>1583.56</ele>
  <time>2026-08-28T19:08:23Z</time>
  <course>95.93</course>
  <speed>0.0</speed>
  <fix>3d</fix>
</trkpt>
<trkpt lat="40.0738275" lon="-105.2301697">
  <ele>1583.55</ele>
  <time>2026-08-28T19:08:23Z</time>
  <course>12.5</course>
  <speed>0.01414213562373095</speed>
  <fix>3d</fix>
</trkpt>
<trkpt lat="40.0738274" lon="-105.2301696">
  <ele>1583.56</ele>
  <time>2026-08-28T19:08:23Z</time>
  <course>119.79</course>
  <speed>0.0</speed>
  <fix>3d</fix>
</trkpt>
<trkpt lat="40.0738275" lon="-105.2301697">
  <ele>1583.55</ele>
  <time>2026-08-28T19:08:23Z</time>
  <course>12.49</course>
  <speed>0.01414213562373095</speed>
  <fix>3d</fix>
</trkpt>
<trkpt lat="40.0738274" lon="-105.2301696">
  <ele>1583.56</ele>
  <time>2026-08-28T19:08:23Z</time>
  <course>106.1</course>
  <speed>0.0</speed>
  <fix>3d</fix>
</trkpt>
<trkpt lat="40.0738275" lon="-105.2301697">
  <ele>1583.55</ele>
  <time>2026-08-28T19:08:23Z</time>
  <course>12.48</course>
  <speed>0.01414213562373095</speed>
  <fix>3d</fix>
</trkpt>
<trkpt lat="40.0738274" lon="-105.2301696">
  <ele>1583.56</ele>
  <time>2026-08-28T19:08:23Z</time>
  <course>75.77</course>
  <speed>0.0</speed>
  <fix>3d</fix>
</trkpt>
<trkpt lat="40.0738275" lon="-105.2301697">
  <ele>1583.55</ele>
  <time>2026-08-28T19:08:23Z</time>
  <course>12.47</course>
  <speed>0.01414213562373095</speed>
  <fix>3d</fix>
</trkpt>
<trkpt lat="40.0738274" lon="-105.2301696">
  <ele>1583.56</ele>
  <time>2026-08-28T19:08:23Z</time>
  <course>86.73</course>
  <speed>0.0</speed>
  <fix>3d</fix>
</trkpt>
<trkpt lat="40.0738275" lon="-105.2301697">
  <ele>1583.56</ele>
  <time>2026-08-28T19:08:23Z</time>
  <course>12.47</course>
  <speed>0.01414213562373095</speed>
  <fix>3d</fix>
</trkpt>
<trkpt lat="40.0738274" lon="-105.2301696">
  <ele>1583.56</ele>
  <time>2026-08-28T19:08:23Z</time>
  <course>153.78</course>
  <speed>0.0</speed>
  <fix>3d</fix>
</trkpt>
<trkpt lat="40.0738275" lon="-105.2301697">
  <ele>1583.56</ele>
  <time>2026-08-28T19:08:23Z</time>
  <course>12.46</course>
  <speed>0.01414213562373095</speed>
  <fix>3d</fix>
</trkpt>
<trkpt lat="40.0738274" lon="-105.2301696">
  <ele>1583.56</ele>
  <time>2026-08-28T19:08:23Z</time>
  <course>139.26</course>
  <speed>0.0</speed>
  <fix>3d</fix>
</trkpt>
<trkpt lat="40.0738275" lon="-105.2301697">
  <ele>1583.57</ele>
  <time>2026-08-28T19:08:23Z</time>
  <course>12.45</course>
  <speed>0.01414213562373095</speed>
  <fix>3d</fix>
</trkpt>
<trkpt lat="40.0738274" lon="-105.2301696">
  <ele>1583.56</ele>
  <time>2026-08-28T19:08:23Z</time>
  <course>88.58</course>
  <speed>0.0</speed>
  <fix>3d</fix>
</trkpt>
<trkpt lat="40.0738275" lon="-105.2301697">
  <ele>1583.57</ele>
  <time>2026-08-28T19:08:23Z</time>
  <course>12.44</course>
  <speed>0.01414213562373095</speed>
  <fix>3d</fix>
</trkpt>
<trkpt lat="40.0738274" lon="-105.2301696">
  <ele>1583.56</ele>
  <time>2026-08-28T19:08:23Z</time>
  <course>70.86</course>
  <speed>0.0</speed>
  <fix>3d</fix>
</trkpt>
<trkpt lat="40.0738275" lon="-105.2301697">
  <ele>1583.57</ele>
  <time>2026-08-28T19:08:23Z</time>
  <course>12.43</course>
  <speed>0.01414213562373095</speed>
  <fix>3d</fix>
</trkpt>
<trkpt lat="40.0738274" lon="-105.2301696">
  <ele>1583.56</ele>
  <time>2026-08-28T19:08:23Z</time>
  <course>94.14</course>
  <speed>0.0</speed>
  <fix>3d</fix>
</trkpt>
<trkpt lat="40.0738275" lon="-105.2301697">
  <ele>1583.58</ele>
  <time>2026-08-28T19:08:23Z</time>
  <course>12.42</course>
  <speed>0.01414213562373095</speed>
  <fix>3d</fix>
</trkpt>
<trkpt lat="40.0738274" lon="-105.2301696">
  <ele>1583.56</ele>
  <time>2026-08-28T19:08:23Z</time>
  <course>124.85</course>
  <speed>0.0</speed>
  <fix>3d</fix>
</trkpt>
<trkpt lat="40.0738275" lon="-105.2301697">
  <ele>1583.58</ele>
  <time>2026-08-28T19:08:23Z</time>
  <course>12.42</course>
  <speed>0.01414213562373095</speed>
  <fix>3d</fix>
</trkpt>
<trkpt lat="40.0738274" lon="-105.2301696">
  <ele>1583.56</ele>
  <time>2026-08-28T19:08:23Z</time>
  <course>121.61</course>
  <speed>0.0</speed>
  <fix>3d</fix>
</trkpt>
<trkpt lat="40.0738275" lon="-105.2301697">
  <ele>1583.58</ele>
  <time>2026-08-28T19:08:23Z</time>
  <course>12.41</course>
  <speed>0.01414213562373095</speed>
  <fix>3d</fix>
</trkpt>
<trkpt lat="40.0738274" lon="-105.2301696">
  <ele>1583.56</ele>
  <time>2026-08-28T19:08:23Z</time>
  <course>86.4</course>
  <speed>0.0</speed>
  <fix>3d</fix>
</trkpt>
<trkpt lat="40.0738275" lon="-105.2301697">
  <ele>1583.59</ele>
  <time>2026-08-28T19:08:23Z</time>
  <course>12.4</course>
  <speed>0.01414213562373095</speed>
  <fix>3d</fix>
</trkpt>
<trkpt lat="40.0738274" lon="-105.2301696">
  <ele>1583.56</ele>
  <time>2026-08-28T19:08:23Z</time>
  <course>100.04</course>
  <speed>0.0</speed>
  <fix>3d</fix>
</trkpt>
<trkpt lat="40.0738275" lon="-105.2301697">
  <ele>1583.59</ele>
  <time>2026-08-28T19:08:23Z</time>
  <course>12.39</course>
  <speed>0.01414213562373095</speed>
  <fix>3d</fix>
</trkpt>
<trkpt lat="40.0738274" lon="-105.2301696">
  <ele>1583.56</ele>
  <time>2026-08-28T19:08:23Z</time>
  <course>101.27</course>
  <speed>0.0</speed>
  <fix>3d</fix>
</trkpt>
<trkpt lat="40.0738275" lon="-105.2301697">
  <ele>1583.6</ele>
  <time>2026-08-28T19:08:23Z</time>
  <course>12.38</course>
  <speed>0.01414213562373095</speed>
  <fix>3d</fix>
</trkpt>
<trkpt lat="40.0738274" lon="-105.2301696">
  <ele>1583.56</ele>
  <time>2026-08-28T19:08:23Z</time>
  <course>110.95</course>
  <speed>0.0</speed>
  <fix>3d</fix>
</trkpt>
<trkpt lat="40.0738275" lon="-105.2301697">
  <ele>1583.6</ele>
  <time>2026-08-28T19:08:23Z</time>
  <course>12.37</course>
  <speed>0.01414213562373095</speed>
  <fix>3d</fix>
</trkpt>
<trkpt lat="40.0738274" lon="-105.2301696">
  <ele>1583.56</ele>
  <time>2026-08-28T19:08:23Z</time>
  <course>120.82</course>
  <speed>0.0</speed>
  <fix>3d</fix>
</trkpt>
<trkpt lat="40.0738275" lon="-105.2301697">
  <ele>1583.6</ele>
  <time>2026-08-28T19:08:23Z</time>
  <course>12.37</course>
  <speed>0.01414213562373095</speed>
  <fix>3d</fix>
</trkpt>
<trkpt lat="40.0738274" lon="-105.2301696">
  <ele>1583.56</ele>
  <time>2026-08-28T19:08:23Z</time>
  <course>133.9</course>
  <speed>0.0</speed>
  <fix>3d</fix>
</trkpt>
<trkpt lat="40.0738275" lon="-105.2301697">
  <ele>1583.6</ele>
  <time>2026-08-28T19:08:23Z</time>
  <course>12.36</course>
  <speed>0.01414213562373095</speed>
  <fix>3d</fix>
</trkpt>
<trkpt lat="40.0738274" lon="-105.2301696">
  <ele>1583.56</ele>
  <time>2026-08-28T19:08:23Z</time>
  <course>119.13</course>
  <speed>0.0</speed>
  <fix>3d</fix>
</trkpt>
<trkpt lat="40.0738275" lon="-105.2301697">
  <ele>1583.6</ele>
  <time>2026-08-28T19:08:23Z</time>
  <course>12.35</course>
  <speed>0.01414213562373095</speed>
  <fix>3d</fix>
</trkpt>
<trkpt lat="40.0738274" lon="-105.2301696">
  <ele>1583.56</ele>
  <time>2026-08-28T19:08:23Z</time>
  <course>117.16</course>
  <speed>0.0</speed>
  <fix>3d</fix>
</trkpt>
<trkpt lat="40.0738275" lon="-105.2301697">
  <ele>1583.6</ele>
  <time>2026-08-28T19:08:23Z</time>
  <course>12.34</course>
  <speed>0.01414213562373095</speed>
  <fix>3d</fix>
</trkpt>
<trkpt lat="40.0738274" lon="-105.2301696">
  <ele>1583.56</ele>
  <time>2026-08-28T19:08:23Z</time>
  <course>125.64</course>
  <speed>0.0</speed>
  <fix>3d</fix>
</trkpt>
<trkpt lat="40.0738275" lon="-105.2301697">
  <ele>1583.6</ele>
  <time>2026-08-28T19:08:23Z</time>
  <course>12.33</course>
  <speed>0.01414213562373095</speed>
  <fix>3d</fix>
</trkpt>
<trkpt lat="40.0738274" lon="-105.2301696">
  <ele>1583.56</ele>
  <time>2026-08-28T19:08:23Z</time>
  <course>106.47</course>
  <speed>0.0</speed>
  <fix>3d</fix>
</trkpt>
<trkpt lat="40.0738275" lon="-105.2301697">
  <ele>1583.6</ele>
  <time>2026-08-28T19:08:23Z</time>
  <course>12.32</course>
  <speed>0.01414213562373095</speed>
  <fix>3d</fix>
</trkpt>
<trkpt lat="40.0738274" lon="-105.2301696">
  <ele>1583.56</ele>
  <time>2026-08-28T19:08:23Z</time>
  <course>94.22</course>
  <speed>0.0</speed>
  <fix>3d</fix>
</trkpt>
<trkpt lat="40.0738275" lon="-105.2301697">
  <ele>1583.61</ele>
  <time>2026-08-28T19:08:23Z</time>
  <course>12.31</course>
  <speed>0.01414213562373095</speed>
  <fix>3d</fix>
</trkpt>
<trkpt lat="40.0738274" lon="-105.2301696">
  <ele>1583.56</ele>
  <time>2026-08-28T19:08:23Z</time>
  <course>88.82</course>
  <speed>0.0</speed>
  <fix>3d</fix>
</trkpt>
<trkpt lat="40.0738275" lon="-105.2301697">
  <ele>1583.61</ele>
  <time>2026-08-28T19:08:23Z</time>
  <course>12.31</course>
  <speed>0.01414213562373095</speed>
  <fix>3d</fix>
</trkpt>
<trkpt lat="40.0738274" lon="-105.2301696">
  <ele>1583.56</ele>
  <time>2026-08-28T19:08:23Z</time>
  <course>129.88</course>
  <speed>0.0</speed>
  <fix>3d</fix>
</trkpt>
<trkpt lat="40.0738275" lon="-105.2301697">
  <ele>1583.61</ele>
  <time>2026-08-28T19:08:23Z</time>
  <course>12.3</course>
  <speed>0.01414213562373095</speed>
  <fix>3d</fix>
</trkpt>
<trkpt lat="40.0738274" lon="-105.2301696">
  <ele>1583.56</ele>
  <time>2026-08-28T19:08:23Z</time>
  <course>124.54</course>
  <speed>0.0</speed>
  <fix>3d</fix>
</trkpt>
<trkpt lat="40.0738275" lon="-105.2301697">
  <ele>1583.61</ele>
  <time>2026-08-28T19:08:23Z</time>
  <course>12.29</course>
  <speed>0.01414213562373095</speed>
  <fix>3d</fix>
</trkpt>
<trkpt lat="40.0738274" lon="-105.2301696">
  <ele>1583.56</ele>
  <time>2026-08-28T19:08:23Z</time>
  <course>92.11</course>
  <speed>0.0</speed>
  <fix>3d</fix>
</trkpt>
<trkpt lat="40.0738275" lon="-105.2301697">
  <ele>1583.61</ele>
  <time>2026-08-28T19:08:23Z</time>
  <course>12.28</course>
  <speed>0.022360679774997897</speed>
  <fix>3d</fix>
</trkpt>
<trkpt lat="40.0738274" lon="-105.2301696">
  <ele>1583.56</ele>
  <time>2026-08-28T19:08:23Z</time>
  <course>92.03</course>
  <speed>0.0</speed>
  <fix>3d</fix>
</trkpt>
<trkpt lat="40.0738275" lon="-105.2301697">
  <ele>1583.61</ele>
  <time>2026-08-28T19:08:23Z</time>
  <course>12.27</course>
  <speed>0.01414213562373095</speed>
  <fix>3d</fix>
</trkpt>
<trkpt lat="40.0738274" lon="-105.2301696">
  <ele>1583.56</ele>
  <time>2026-08-28T19:08:23Z</time>
  <course>142.75</course>
  <speed>0.0</speed>
  <fix>3d</fix>
</trkpt>
<trkpt lat="40.0738275" lon="-105.2301697">
  <ele>1583.61</ele>
  <time>2026-08-28T19:08:23Z</time>
  <course>12.26</course>
  <speed>0.01414213562373095</speed>
  <fix>3d</fix>
</trkpt>
<trkpt lat="40.0738274" lon="-105.2301696">
  <ele>1583.56</ele>
  <time>2026-08-28T19:08:23Z</time>
  <course>138.71</course>
  <speed>0.0</speed>
  <fix>3d</fix>
</trkpt>
<trkpt lat="40.0738275" lon="-105.2301697">
  <ele>1583.62</ele>
  <time>2026-08-28T19:08:23Z</time>
  <course>12.26</course>
  <speed>0.01414213562373095</speed>
  <fix>3d</fix>
</trkpt>
<trkpt lat="40.0738274" lon="-105.2301696">
  <ele>1583.56</ele>
  <time>2026-08-28T19:08:23Z</time>
  <course>112.99</course>
  <speed>0.0</speed>
  <fix>3d</fix>
</trkpt>
<trkpt lat="40.0738275" lon="-105.2301697">
  <ele>1583.62</ele>
  <time>2026-08-28T19:08:23Z</time>
  <course>12.25</course>
  <speed>0.01414213562373095</speed>
  <fix>3d</fix>
</trkpt>
<trkpt lat="40.0738274" lon="-105.2301696">
  <ele>1583.56</ele>
  <time>2026-08-28T19:08:23Z</time>
  <course>78.57</course>
  <speed>0.0</speed>
  <fix>3d</fix>
</trkpt>
<trkpt lat="40.0738275" lon="-105.2301697">
  <ele>1583.62</ele>
  <time>2026-08-28T19:08:23Z</time>
  <course>12.24</course>
  <speed>0.01414213562373095</speed>
  <fix>3d</fix>
</trkpt>
<trkpt lat="40.0738274" lon="-105.2301696">
  <ele>1583.56</ele>
  <time>2026-08-28T19:08:23Z</time>
  <course>98.62</course>
  <speed>0.0</speed>
  <fix>3d</fix>
</trkpt>
<trkpt lat="40.0738275" lon="-105.2301697">
  <ele>1583.62</ele>
  <time>2026-08-28T19:08:23Z</time>
  <course>12.23</course>
  <speed>0.01414213562373095</speed>
  <fix>3d</fix>
</trkpt>
<trkpt lat="40.0738274" lon="-105.2301696">
  <ele>1583.56</ele>
  <time>2026-08-28T19:08:23Z</time>
  <course>120.02</course>
  <speed>0.0</speed>
  <fix>3d</fix>
</trkpt>
<trkpt lat="40.0738275" lon="-105.2301697">
  <ele>1583.62</ele>
  <time>2026-08-28T19:08:23Z</time>
  <course>12.22</course>
  <speed>0.01414213562373095</speed>
  <fix>3d</fix>
</trkpt>
<trkpt lat="40.0738274" lon="-105.2301696">
  <ele>1583.56</ele>
  <time>2026-08-28T19:08:23Z</time>
  <course>124.69</course>
  <speed>0.0</speed>
  <fix>3d</fix>
</trkpt>
<trkpt lat="40.0738275" lon="-105.2301697">
  <ele>1583.62</ele>
  <time>2026-08-28T19:08:23Z</time>
  <course>12.22</course>
  <speed>0.01414213562373095</speed>
  <fix>3d</fix>
</trkpt>
<trkpt lat="40.0738274" lon="-105.2301696">
  <ele>1583.56</ele>
  <time>2026-08-28T19:08:23Z</time>
  <course>108.53</course>
  <speed>0.0</speed>
  <fix>3d</fix>
</trkpt>
<trkpt lat="40.0738275" lon="-105.2301697">
  <ele>1583.62</ele>
  <time>2026-08-28T19:08:23Z</time>
  <course>12.21</course>
  <speed>0.01414213562373095</speed>
  <fix>3d</fix>
</trkpt>
<trkpt lat="40.0738274" lon="-105.2301696">
  <ele>1583.56</ele>
  <time>2026-08-28T19:08:23Z</time>
  <course>91.95</course>
  <speed>0.0</speed>
  <fix>3d</fix>
</trkpt>
<trkpt lat="40.0738275" lon="-105.2301697">
  <ele>1583.62</ele>
  <time>2026-08-28T19:08:23Z</time>
  <course>12.2</course>
  <speed>0.01414213562373095</speed>
  <fix>3d</fix>
</trkpt>
<trkpt lat="40.0738274" lon="-105.2301696">
  <ele>1583.56</ele>
  <time>2026-08-28T19:08:23Z</time>
  <course>101.2</course>
  <speed>0.0</speed>
  <fix>3d</fix>
</trkpt>
<trkpt lat="40.0738275" lon="-105.2301697">
  <ele>1583.62</ele>
  <time>2026-08-28T19:08:23Z</time>
  <course>12.19</course>
  <speed>0.01414213562373095</speed>
  <fix>3d</fix>
</trkpt>
<trkpt lat="40.0738274" lon="-105.2301696">
  <ele>1583.56</ele>
  <time>2026-08-28T19:08:23Z</time>
  <course>117.66</course>
  <speed>0.0</speed>
  <fix>3d</fix>
</trkpt>
<trkpt lat="40.0738275" lon="-105.2301697">
  <ele>1583.63</ele>
  <time>2026-08-28T19:08:23Z</time>
  <course>12.18</course>
  <speed>0.01414213562373095</speed>
  <fix>3d</fix>
</trkpt>
<trkpt lat="40.0738274" lon="-105.2301696">
  <ele>1583.56</ele>
  <time>2026-08-28T19:08:23Z</time>
  <course>126.29</course>
  <speed>0.0</speed>
  <fix>3d</fix>
</trkpt>
<trkpt lat="40.0738275" lon="-105.2301697">
  <ele>1583.63</ele>
  <time>2026-08-28T19:08:23Z</time>
  <course>12.18</course>
  <speed>0.01414213562373095</speed>
  <fix>3d</fix>
</trkpt>
<trkpt lat="40.0738274" lon="-105.2301696">
  <ele>1583.56</ele>
  <time>2026-08-28T19:08:23Z</time>
  <course>142.2</course>
  <speed>0.0</speed>
  <fix>3d</fix>
</trkpt>
<trkpt lat="40.0738275" lon="-105.2301697">
  <ele>1583.63</ele>
  <time>2026-08-28T19:08:23Z</time>
  <course>12.17</course>
  <speed>0.01414213562373095</speed>
  <fix>3d</fix>
</trkpt>
<trkpt lat="40.0738274" lon="-105.2301696">
  <ele>1583.56</ele>
  <time>2026-08-28T19:08:24Z</time>
  <course>145.66</course>
  <speed>0.0</speed>
  <fix>3d</fix>
</trkpt>
<trkpt lat="40.0738275" lon="-105.2301697">
  <ele>1583.63</ele>
  <time>2026-08-28T19:08:24Z</time>
  <course>12.16</course>
  <speed>0.01414213562373095</speed>
  <fix>3d</fix>
</trkpt>
<trkpt lat="40.0738274" lon="-105.2301696">
  <ele>1583.56</ele>
  <time>2026-08-28T19:08:24Z</time>
  <course>103.6</course>
  <speed>0.0</speed>
  <fix>3d</fix>
</trkpt>
<trkpt lat="40.0738275" lon="-105.2301697">
  <ele>1583.64</ele>
  <time>2026-08-28T19:08:24Z</time>
  <course>12.19</course>
  <speed>0.022360679774997897</speed>
  <fix>3d</fix>
</trkpt>
<trkpt lat="40.0738274" lon="-105.2301696">
  <ele>1583.56</ele>
  <time>2026-08-28T19:08:24Z</time>
  <course>123.55</course>
  <speed>0.0</speed>
  <fix>3d</fix>
</trkpt>
<trkpt lat="40.0738275" lon="-105.2301697">
  <ele>1583.64</ele>
  <time>2026-08-28T19:08:24Z</time>
  <course>12.5</course>
  <speed>0.01414213562373095</speed>
  <fix>3d</fix>
</trkpt>
<trkpt lat="40.0738274" lon="-105.2301696">
  <ele>1583.56</ele>
  <time>2026-08-28T19:08:24Z</time>
  <course>279.88</course>
  <speed>0.0</speed>
  <fix>3d</fix>
</trkpt>
<trkpt lat="40.0738275" lon="-105.2301697">
  <ele>1583.64</ele>
  <time>2026-08-28T19:08:24Z</time>
  <course>12.86</course>
  <speed>0.01414213562373095</speed>
  <fix>3d</fix>
</trkpt>
<trkpt lat="40.0738274" lon="-105.2301696">
  <ele>1583.56</ele>
  <time>2026-08-28T19:08:24Z</time>
  <course>273.53</course>
  <speed>0.0</speed>
  <fix>3d</fix>
</trkpt>
<trkpt lat="40.0738275" lon="-105.2301697">
  <ele>1583.65</ele>
  <time>2026-08-28T19:08:24Z</time>
  <course>13.17</course>
  <speed>0.01414213562373095</speed>
  <fix>3d</fix>
</trkpt>
<trkpt lat="40.0738274" lon="-105.2301696">
  <ele>1583.56</ele>
  <time>2026-08-28T19:08:24Z</time>
  <course>136.46</course>
  <speed>0.0</speed>
  <fix>3d</fix>
</trkpt>
<trkpt lat="40.0738275" lon="-105.2301697">
  <ele>1583.65</ele>
  <time>2026-08-28T19:08:24Z</time>
  <course>13.45</course>
  <speed>0.022360679774997897</speed>
  <fix>3d</fix>
</trkpt>
<trkpt lat="40.0738274" lon="-105.2301696">
  <ele>1583.56</ele>
  <time>2026-08-28T19:08:24Z</time>
  <course>83.48</course>
  <speed>0.0</speed>
  <fix>3d</fix>
</trkpt>
<trkpt lat="40.0738275" lon="-105.2301697">
  <ele>1583.66</ele>
  <time>2026-08-28T19:08:24Z</time>
  <course>13.72</course>
  <speed>0.022360679774997897</speed>
  <fix>3d</fix>
</trkpt>
<trkpt lat="40.0738274" lon="-105.2301696">
  <ele>1583.56</ele>
  <time>2026-08-28T19:08:24Z</time>
  <course>294.78</course>
  <speed>0.0</speed>
  <fix>3d</fix>
</trkpt>
<trkpt lat="40.0738275" lon="-105.2301697">
  <ele>1583.67</ele>
  <time>2026-08-28T19:08:24Z</time>
  <course>13.97</course>
  <speed>0.022360679774997897</speed>
  <fix>3d</fix>
</trkpt>
<trkpt lat="40.0738274" lon="-105.2301696">
  <ele>1583.56</ele>
  <time>2026-08-28T19:08:24Z</time>
  <course>242.14</course>
  <speed>0.0</speed>
  <fix>3d</fix>
</trkpt>
<trkpt lat="40.0738275" lon="-105.2301697">
  <ele>1583.67</ele>
  <time>2026-08-28T19:08:24Z</time>
  <course>14.2</course>
  <speed>0.022360679774997897</speed>
  <fix>3d</fix>
</trkpt>
<trkpt lat="40.0738274" lon="-105.2301696">
  <ele>1583.56</ele>
  <time>2026-08-28T19:08:24Z</time>
  <course>116.58</course>
  <speed>0.0</speed>
  <fix>3d</fix>
</trkpt>
<trkpt lat="40.0738275" lon="-105.2301697">
  <ele>1583.67</ele>
  <time>2026-08-28T19:08:24Z</time>
  <course>14.42</course>
  <speed>0.02</speed>
  <fix>3d</fix>
</trkpt>
<trkpt lat="40.0738274" lon="-105.2301696">
  <ele>1583.56</ele>
  <time>2026-08-28T19:08:24Z</time>
  <course>116.18</course>
  <speed>0.0</speed>
  <fix>3d</fix>
</trkpt>
<trkpt lat="40.0738275" lon="-105.2301697">
  <ele>1583.67</ele>
  <time>2026-08-28T19:08:24Z</time>
  <course>14.62</course>
  <speed>0.02</speed>
  <fix>3d</fix>
</trkpt>
<trkpt lat="40.0738274" lon="-105.2301696">
  <ele>1583.56</ele>
  <time>2026-08-28T19:08:24Z</time>
  <course>231.05</course>
  <speed>0.0</speed>
  <fix>3d</fix>
</trkpt>
<trkpt lat="40.0738275" lon="-105.2301697">
  <ele>1583.68</ele>
  <time>2026-08-28T19:08:24Z</time>
  <course>14.81</course>
  <speed>0.02</speed>
  <fix>3d</fix>
</trkpt>
<trkpt lat="40.0738274" lon="-105.2301696">
  <ele>1583.56</ele>
  <time>2026-08-28T19:08:24Z</time>
  <course>196.94</course>
  <speed>0.0</speed>
  <fix>3d</fix>
</trkpt>
<trkpt lat="40.0738275" lon="-105.2301697">
  <ele>1583.68</ele>
  <time>2026-08-28T19:08:24Z</time>
  <course>15.0</course>
  <speed>0.02</speed>
  <fix>3d</fix>
</trkpt>
<trkpt lat="40.0738274" lon="-105.2301696">
  <ele>1583.56</ele>
  <time>2026-08-28T19:08:24Z</time>
  <course>131.22</course>
  <speed>0.0</speed>
  <fix>3d</fix>
</trkpt>
<trkpt lat="40.0738275" lon="-105.2301697">
  <ele>1583.68</ele>
  <time>2026-08-28T19:08:24Z</time>
  <course>15.17</course>
  <speed>0.01</speed>
  <fix>3d</fix>
</trkpt>
<trkpt lat="40.0738274" lon="-105.2301696">
  <ele>1583.56</ele>
  <time>2026-08-28T19:08:24Z</time>
  <course>35.1</course>
  <speed>0.0</speed>
  <fix>3d</fix>
</trkpt>
<trkpt lat="40.0738275" lon="-105.2301697">
  <ele>1583.68</ele>
  <time>2026-08-28T19:08:24Z</time>
  <course>15.33</course>
  <speed>0.01</speed>
  <fix>3d</fix>
</trkpt>
<trkpt lat="40.0738274" lon="-105.2301696">
  <ele>1583.56</ele>
  <time>2026-08-28T19:08:24Z</time>
  <course>61.82</course>
  <speed>0.0</speed>
  <fix>3d</fix>
</trkpt>
<trkpt lat="40.0738275" lon="-105.2301697">
  <ele>1583.68</ele>
  <time>2026-08-28T19:08:24Z</time>
  <course>15.48</course>
  <speed>0.01</speed>
  <fix>3d</fix>
</trkpt>
<trkpt lat="40.0738274" lon="-105.2301696">
  <ele>1583.56</ele>
  <time>2026-08-28T19:08:24Z</time>
  <course>155.71</course>
  <speed>0.0</speed>
  <fix>3d</fix>
</trkpt>
<trkpt lat="40.0738275" lon="-105.2301697">
  <ele>1583.67</ele>
  <time>2026-08-28T19:08:24Z</time>
  <course>15.62</course>
  <speed>0.01</speed>
  <fix>3d</fix>
</trkpt>
<trkpt lat="40.0738274" lon="-105.2301696">
  <ele>1583.56</ele>
  <time>2026-08-28T19:08:24Z</time>
  <course>154.4</course>
  <speed>0.0</speed>
  <fix>3d</fix>
</trkpt>
<trkpt lat="40.0738275" lon="-105.2301697">
  <ele>1583.68</ele>
  <time>2026-08-28T19:08:24Z</time>
  <course>15.76</course>
  <speed>0.01</speed>
  <fix>3d</fix>
</trkpt>
<trkpt lat="40.0738274" lon="-105.2301696">
  <ele>1583.56</ele>
  <time>2026-08-28T19:08:24Z</time>
  <course>141.33</course>
  <speed>0.0</speed>
  <fix>3d</fix>
</trkpt>
<trkpt lat="40.0738275" lon="-105.2301697">
  <ele>1583.68</ele>
  <time>2026-08-28T19:08:24Z</time>
  <course>15.89</course>
  <speed>0.01</speed>
  <fix>3d</fix>
</trkpt>
<trkpt lat="40.0738274" lon="-105.2301696">
  <ele>1583.56</ele>
  <time>2026-08-28T19:08:24Z</time>
  <course>142.75</course>
  <speed>0.0</speed>
  <fix>3d</fix>
</trkpt>
<trkpt lat="40.0738275" lon="-105.2301697">
  <ele>1583.67</ele>
  <time>2026-08-28T19:08:24Z</time>
  <course>16.02</course>
  <speed>0.01</speed>
  <fix>3d</fix>
</trkpt>
<trkpt lat="40.0738274" lon="-105.2301696">
  <ele>1583.56</ele>
  <time>2026-08-28T19:08:24Z</time>
  <course>144.56</course>
  <speed>0.0</speed>
  <fix>3d</fix>
</trkpt>
<trkpt lat="40.0738275" lon="-105.2301697">
  <ele>1583.67</ele>
  <time>2026-08-28T19:08:24Z</time>
  <course>16.14</course>
  <speed>0.01</speed>
  <fix>3d</fix>
</trkpt>
<trkpt lat="40.0738274" lon="-105.2301696">
  <ele>1583.56</ele>
  <time>2026-08-28T19:08:24Z</time>
  <course>144.15</course>
  <speed>0.0</speed>
  <fix>3d</fix>
</trkpt>
<trkpt lat="40.0738275" lon="-105.2301697">
  <ele>1583.66</ele>
  <time>2026-08-28T19:08:24Z</time>
  <course>16.25</course>
  <speed>0.01</speed>
  <fix>3d</fix>
</trkpt>
<trkpt lat="40.0738274" lon="-105.2301696">
  <ele>1583.56</ele>
  <time>2026-08-28T19:08:24Z</time>
  <course>143.96</course>
  <speed>0.0</speed>
  <fix>3d</fix>
</trkpt>
<trkpt lat="40.0738275" lon="-105.2301697">
  <ele>1583.65</ele>
  <time>2026-08-28T19:08:24Z</time>
  <course>16.36</course>
  <speed>0.01</speed>
  <fix>3d</fix>
</trkpt>
<trkpt lat="40.0738274" lon="-105.2301696">
  <ele>1583.56</ele>
  <time>2026-08-28T19:08:24Z</time>
  <course>144.04</course>
  <speed>0.0</speed>
  <fix>3d</fix>
</trkpt>
<trkpt lat="40.0738275" lon="-105.2301697">
  <ele>1583.65</ele>
  <time>2026-08-28T19:08:24Z</time>
  <course>16.46</course>
  <speed>0.01</speed>
  <fix>3d</fix>
</trkpt>
<trkpt lat="40.0738274" lon="-105.2301696">
  <ele>1583.56</ele>
  <time>2026-08-28T19:08:24Z</time>
  <course>144.06</course>
  <speed>0.0</speed>
  <fix>3d</fix>
</trkpt>
<trkpt lat="40.0738275" lon="-105.2301697">
  <ele>1583.65</ele>
  <time>2026-08-28T19:08:24Z</time>
  <course>16.55</course>
  <speed>0.01</speed>
  <fix>3d</fix>
</trkpt>
<trkpt lat="40.0738274" lon="-105.2301696">
  <ele>1583.56</ele>
  <time>2026-08-28T19:08:24Z</time>
  <course>144.05</course>
  <speed>0.0</speed>
  <fix>3d</fix>
</trkpt>
<trkpt lat="40.0738275" lon="-105.2301697">
  <ele>1583.65</ele>
  <time>2026-08-28T19:08:24Z</time>
  <course>16.65</course>
  <speed>0.01</speed>
  <fix>3d</fix>
</trkpt>
<trkpt lat="40.0738274" lon="-105.2301696">
  <ele>1583.56</ele>
  <time>2026-08-28T19:08:24Z</time>
  <course>144.04</course>
  <speed>0.0</speed>
  <fix>3d</fix>
</trkpt>
<trkpt lat="40.0738275" lon="-105.2301697">
  <ele>1583.65</ele>
  <time>2026-08-28T19:08:24Z</time>
  <course>16.74</course>
  <speed>0.01</speed>
  <fix>3d</fix>
</trkpt>
<trkpt lat="40.0738274" lon="-105.2301696">
  <ele>1583.56</ele>
  <time>2026-08-28T19:08:24Z</time>
  <course>78.95</course>
  <speed>0.0</speed>
  <fix>3d</fix>
</trkpt>
<trkpt lat="40.0738275" lon="-105.2301697">
  <ele>1583.65</ele>
  <time>2026-08-28T19:08:24Z</time>
  <course>16.83</course>
  <speed>0.01</speed>
  <fix>3d</fix>
</trkpt>
<trkpt lat="40.0738274" lon="-105.2301696">
  <ele>1583.56</ele>
  <time>2026-08-28T19:08:24Z</time>
  <course>128.56</course>
  <speed>0.0</speed>
  <fix>3d</fix>
</trkpt>
<trkpt lat="40.0738275" lon="-105.2301697">
  <ele>1583.65</ele>
  <time>2026-08-28T19:08:24Z</time>
  <course>16.91</course>
  <speed>0.01</speed>
  <fix>3d</fix>
</trkpt>
<trkpt lat="40.0738274" lon="-105.2301696">
  <ele>1583.56</ele>
  <time>2026-08-28T19:08:24Z</time>
  <course>143.74</course>
  <speed>0.0</speed>
  <fix>3d</fix>
</trkpt>
<trkpt lat="40.0738275" lon="-105.2301697">
  <ele>1583.65</ele>
  <time>2026-08-28T19:08:24Z</time>
  <course>16.99</course>
  <speed>0.01</speed>
  <fix>3d</fix>
</trkpt>
<trkpt lat="40.0738274" lon="-105.2301696">
  <ele>1583.56</ele>
  <time>2026-08-28T19:08:24Z</time>
  <course>139.89</course>
  <speed>0.0</speed>
  <fix>3d</fix>
</trkpt>
<trkpt lat="40.0738275" lon="-105.2301697">
  <ele>1583.65</ele>
  <time>2026-08-28T19:08:24Z</time>
  <course>17.07</course>
  <speed>0.01</speed>
  <fix>3d</fix>
</trkpt>
<trkpt lat="40.0738274" lon="-105.2301696">
  <ele>1583.56</ele>
  <time>2026-08-28T19:08:24Z</time>
  <course>144.89</course>
  <speed>0.0</speed>
  <fix>3d</fix>
</trkpt>
<trkpt lat="40.0738275" lon="-105.2301697">
  <ele>1583.65</ele>
  <time>2026-08-28T19:08:24Z</time>
  <course>17.14</course>
  <speed>0.01414213562373095</speed>
  <fix>3d</fix>
</trkpt>
<trkpt lat="40.0738274" lon="-105.2301696">
  <ele>1583.56</ele>
  <time>2026-08-28T19:08:24Z</time>
  <course>144.5</course>
  <speed>0.0</speed>
  <fix>3d</fix>
</trkpt>
<trkpt lat="40.0738275" lon="-105.2301697">
  <ele>1583.65</ele>
  <time>2026-08-28T19:08:24Z</time>
  <course>17.22</course>
  <speed>0.01414213562373095</speed>
  <fix>3d</fix>
</trkpt>
<trkpt lat="40.0738274" lon="-105.2301696">
  <ele>1583.56</ele>
  <time>2026-08-28T19:08:24Z</time>
  <course>143.89</course>
  <speed>0.0</speed>
  <fix>3d</fix>
</trkpt>
<trkpt lat="40.0738275" lon="-105.2301697">
  <ele>1583.65</ele>
  <time>2026-08-28T19:08:24Z</time>
  <course>17.29</course>
  <speed>0.01414213562373095</speed>
  <fix>3d</fix>
</trkpt>
<trkpt lat="40.0738274" lon="-105.2301696">
  <ele>1583.56</ele>
  <time>2026-08-28T19:08:24Z</time>
  <course>144.0</course>
  <speed>0.0</speed>
  <fix>3d</fix>
</trkpt>
<trkpt lat="40.0738275" lon="-105.2301697">
  <ele>1583.64</ele>
  <time>2026-08-28T19:08:24Z</time>
  <course>17.35</course>
  <speed>0.01414213562373095</speed>
  <fix>3d</fix>
</trkpt>
<trkpt lat="40.0738274" lon="-105.2301696">
  <ele>1583.56</ele>
  <time>2026-08-28T19:08:24Z</time>
  <course>144.07</course>
  <speed>0.0</speed>
  <fix>3d</fix>
</trkpt>
<trkpt lat="40.0738275" lon="-105.2301697">
  <ele>1583.64</ele>
  <time>2026-08-28T19:08:24Z</time>
  <course>17.42</course>
  <speed>0.01414213562373095</speed>
  <fix>3d</fix>
</trkpt>
<trkpt lat="40.0738274" lon="-105.2301696">
  <ele>1583.56</ele>
  <time>2026-08-28T19:08:24Z</time>
  <course>144.05</course>
  <speed>0.0</speed>
  <fix>3d</fix>
</trkpt>
<trkpt lat="40.0738275" lon="-105.2301697">
  <ele>1583.64</ele>
  <time>2026-08-28T19:08:24Z</time>
  <course>17.48</course>
  <speed>0.01414213562373095</speed>
  <fix>3d</fix>
</trkpt>
<trkpt lat="40.0738274" lon="-105.2301696">
  <ele>1583.56</ele>
  <time>2026-08-28T19:08:24Z</time>
  <course>144.04</course>
  <speed>0.0</speed>
  <fix>3d</fix>
</trkpt>
<trkpt lat="40.0738275" lon="-105.2301697">
  <ele>1583.64</ele>
  <time>2026-08-28T19:08:24Z</time>
  <course>17.54</course>
  <speed>0.01414213562373095</speed>
  <fix>3d</fix>
</trkpt>
<trkpt lat="40.0738274" lon="-105.2301696">
  <ele>1583.56</ele>
  <time>2026-08-28T19:08:24Z</time>
  <course>144.05</course>
  <speed>0.0</speed>
  <fix>3d</fix>
</trkpt>
<trkpt lat="40.0738275" lon="-105.2301697">
  <ele>1583.65</ele>
  <time>2026-08-28T19:08:24Z</time>
  <course>17.6</course>
  <speed>0.01414213562373095</speed>
  <fix>3d</fix>
</trkpt>
<trkpt lat="40.0738274" lon="-105.2301696">
  <ele>1583.56</ele>
  <time>2026-08-28T19:08:24Z</time>
  <course>144.05</course>
  <speed>0.0</speed>
  <fix>3d</fix>
</trkpt>
<trkpt lat="40.0738275" lon="-105.2301697">
  <ele>1583.65</ele>
  <time>2026-08-28T19:08:24Z</time>
  <course>17.66</course>
  <speed>0.01414213562373095</speed>
  <fix>3d</fix>
</trkpt>
<trkpt lat="40.0738274" lon="-105.2301696">
  <ele>1583.56</ele>
  <time>2026-08-28T19:08:24Z</time>
  <course>144.05</course>
  <speed>0.0</speed>
  <fix>3d</fix>
</trkpt>
<trkpt lat="40.0738275" lon="-105.2301697">
  <ele>1583.65</ele>
  <time>2026-08-28T19:08:24Z</time>
  <course>17.71</course>
  <speed>0.01414213562373095</speed>
  <fix>3d</fix>
</trkpt>
<trkpt lat="40.0738274" lon="-105.2301696">
  <ele>1583.56</ele>
  <time>2026-08-28T19:08:24Z</time>
  <course>144.05</course>
  <speed>0.0</speed>
  <fix>3d</fix>
</trkpt>
<trkpt lat="40.0738275" lon="-105.2301697">
  <ele>1583.65</ele>
  <time>2026-08-28T19:08:24Z</time>
  <course>17.76</course>
  <speed>0.01414213562373095</speed>
  <fix>3d</fix>
</trkpt>
<trkpt lat="40.0738274" lon="-105.2301696">
  <ele>1583.56</ele>
  <time>2026-08-28T19:08:24Z</time>
  <course>144.05</course>
  <speed>0.0</speed>
  <fix>3d</fix>
</trkpt>
<trkpt lat="40.0738275" lon="-105.2301697">
  <ele>1583.65</ele>
  <time>2026-08-28T19:08:24Z</time>
  <course>17.82</course>
  <speed>0.01414213562373095</speed>
  <fix>3d</fix>
</trkpt>
<trkpt lat="40.0738274" lon="-105.2301696">
  <ele>1583.56</ele>
  <time>2026-08-28T19:08:24Z</time>
  <course>144.05</course>
  <speed>0.0</speed>
  <fix>3d</fix>
</trkpt>
<trkpt lat="40.0738275" lon="-105.2301697">
  <ele>1583.65</ele>
  <time>2026-08-28T19:08:24Z</time>
  <course>17.86</course>
  <speed>0.01414213562373095</speed>
  <fix>3d</fix>
</trkpt>
<trkpt lat="40.0738274" lon="-105.2301696">
  <ele>1583.56</ele>
  <time>2026-08-28T19:08:24Z</time>
  <course>144.05</course>
  <speed>0.0</speed>
  <fix>3d</fix>
</trkpt>
<trkpt lat="40.0738275" lon="-105.2301697">
  <ele>1583.64</ele>
  <time>2026-08-28T19:08:24Z</time>
  <course>17.91</course>
  <speed>0.01414213562373095</speed>
  <fix>3d</fix>
</trkpt>
<trkpt lat="40.0738274" lon="-105.2301696">
  <ele>1583.56</ele>
  <time>2026-08-28T19:08:24Z</time>
  <course>144.05</course>
  <speed>0.0</speed>
  <fix>3d</fix>
</trkpt>
<trkpt lat="40.0738275" lon="-105.2301697">
  <ele>1583.64</ele>
  <time>2026-08-28T19:08:24Z</time>
  <course>17.96</course>
  <speed>0.01414213562373095</speed>
  <fix>3d</fix>
</trkpt>
<trkpt lat="40.0738274" lon="-105.2301696">
  <ele>1583.56</ele>
  <time>2026-08-28T19:08:24Z</time>
  <course>144.05</course>
  <speed>0.0</speed>
  <fix>3d</fix>
</trkpt>
<trkpt lat="40.0738275" lon="-105.2301697">
  <ele>1583.64</ele>
  <time>2026-08-28T19:08:24Z</time>
  <course>18.01</course>
  <speed>0.01414213562373095</speed>
  <fix>3d</fix>
</trkpt>
<trkpt lat="40.0738274" lon="-105.2301696">
  <ele>1583.56</ele>
  <time>2026-08-28T19:08:24Z</time>
  <course>144.05</course>
  <speed>0.0</speed>
  <fix>3d</fix>
</trkpt>
<trkpt lat="40.0738275" lon="-105.2301697">
  <ele>1583.64</ele>
  <time>2026-08-28T19:08:24Z</time>
  <course>18.05</course>
  <speed>0.01414213562373095</speed>
  <fix>3d</fix>
</trkpt>
<trkpt lat="40.0738274" lon="-105.2301696">
  <ele>1583.56</ele>
  <time>2026-08-28T19:08:24Z</time>
  <course>144.05</course>
  <speed>0.0</speed>
  <fix>3d</fix>
</trkpt>
<trkpt lat="40.0738275" lon="-105.2301697">
  <ele>1583.64</ele>
  <time>2026-08-28T19:08:24Z</time>
  <course>18.09</course>
  <speed>0.01414213562373095</speed>
  <fix>3d</fix>
</trkpt>
<trkpt lat="40.0738274" lon="-105.2301696">
  <ele>1583.56</ele>
  <time>2026-08-28T19:08:24Z</time>
  <course>144.05</course>
  <speed>0.0</speed>
  <fix>3d</fix>
</trkpt>
<trkpt lat="40.0738275" lon="-105.2301697">
  <ele>1583.63</ele>
  <time>2026-08-28T19:08:24Z</time>
  <course>18.13</course>
  <speed>0.01414213562373095</speed>
  <fix>3d</fix>
</trkpt>
<trkpt lat="40.0738274" lon="-105.2301696">
  <ele>1583.56</ele>
  <time>2026-08-28T19:08:24Z</time>
  <course>144.05</course>
  <speed>0.0</speed>
  <fix>3d</fix>
</trkpt>
<trkpt lat="40.0738275" lon="-105.2301697">
  <ele>1583.63</ele>
  <time>2026-08-28T19:08:24Z</time>
  <course>18.17</course>
  <speed>0.01414213562373095</speed>
  <fix>3d</fix>
</trkpt>
<trkpt lat="40.0738274" lon="-105.2301696">
  <ele>1583.56</ele>
  <time>2026-08-28T19:08:24Z</time>
  <course>144.05</course>
  <speed>0.0</speed>
  <fix>3d</fix>
</trkpt>
<trkpt lat="40.0738275" lon="-105.2301697">
  <ele>1583.63</ele>
  <time>2026-08-28T19:08:24Z</time>
  <course>18.21</course>
  <speed>0.01414213562373095</speed>
  <fix>3d</fix>
</trkpt>
<trkpt lat="40.0738274" lon="-105.2301696">
  <ele>1583.56</ele>
  <time>2026-08-28T19:08:24Z</time>
  <course>144.05</course>
  <speed>0.0</speed>
  <fix>3d</fix>
</trkpt>
<trkpt lat="40.0738275" lon="-105.2301697">
  <ele>1583.63</ele>
  <time>2026-08-28T19:08:24Z</time>
  <course>18.25</course>
  <speed>0.01414213562373095</speed>
  <fix>3d</fix>
</trkpt>
<trkpt lat="40.0738274" lon="-105.2301696">
  <ele>1583.56</ele>
  <time>2026-08-28T19:08:24Z</time>
  <course>144.05</course>
  <speed>0.0</speed>
  <fix>3d</fix>
</trkpt>
<trkpt lat="40.0738275" lon="-105.2301697">
  <ele>1583.63</ele>
  <time>2026-08-28T19:08:24Z</time>
  <course>18.29</course>
  <speed>0.01414213562373095</speed>
  <fix>3d</fix>
</trkpt>
<trkpt lat="40.0738274" lon="-105.2301696">
  <ele>1583.56</ele>
  <time>2026-08-28T19:08:24Z</time>
  <course>143.99</course>
  <speed>0.0</speed>
  <fix>3d</fix>
</trkpt>
<trkpt lat="40.0738275" lon="-105.2301697">
  <ele>1583.63</ele>
  <time>2026-08-28T19:08:24Z</time>
  <course>18.32</course>
  <speed>0.01414213562373095</speed>
  <fix>3d</fix>
</trkpt>
<trkpt lat="40.0738274" lon="-105.2301696">
  <ele>1583.56</ele>
  <time>2026-08-28T19:08:24Z</time>
  <course>143.18</course>
  <speed>0.0</speed>
  <fix>3d</fix>
</trkpt>
<trkpt lat="40.0738275" lon="-105.2301697">
  <ele>1583.63</ele>
  <time>2026-08-28T19:08:24Z</time>
  <course>18.35</course>
  <speed>0.01414213562373095</speed>
  <fix>3d</fix>
</trkpt>
<trkpt lat="40.0738274" lon="-105.2301696">
  <ele>1583.56</ele>
  <time>2026-08-28T19:08:24Z</time>
  <course>139.81</course>
  <speed>0.0</speed>
  <fix>3d</fix>
</trkpt>
<trkpt lat="40.0738275" lon="-105.2301697">
  <ele>1583.63</ele>
  <time>2026-08-28T19:08:24Z</time>
  <course>18.38</course>
  <speed>0.01414213562373095</speed>
  <fix>3d</fix>
</trkpt>
<trkpt lat="40.0738274" lon="-105.2301696">
  <ele>1583.56</ele>
  <time>2026-08-28T19:08:24Z</time>
  <course>132.53</course>
  <speed>0.0</speed>
  <fix>3d</fix>
</trkpt>
<trkpt lat="40.0738275" lon="-105.2301697">
  <ele>1583.64</ele>
  <time>2026-08-28T19:08:24Z</time>
  <course>18.41</course>
  <speed>0.01414213562373095</speed>
  <fix>3d</fix>
</trkpt>
<trkpt lat="40.0738274" lon="-105.2301696">
  <ele>1583.56</ele>
  <time>2026-08-28T19:08:24Z</time>
  <course>124.23</course>
  <speed>0.0</speed>
  <fix>3d</fix>
</trkpt>
<trkpt lat="40.0738275" lon="-105.2301697">
  <ele>1583.64</ele>
  <time>2026-08-28T19:08:24Z</time>
  <course>18.43</course>
  <speed>0.01414213562373095</speed>
  <fix>3d</fix>
</trkpt>
<trkpt lat="40.0738274" lon="-105.2301696">
  <ele>1583.56</ele>
  <time>2026-08-28T19:08:24Z</time>
  <course>117.43</course>
  <speed>0.0</speed>
  <fix>3d</fix>
</trkpt>
<trkpt lat="40.0738275" lon="-105.2301697">
  <ele>1583.64</ele>
  <time>2026-08-28T19:08:24Z</time>
  <course>18.45</course>
  <speed>0.01414213562373095</speed>
  <fix>3d</fix>
</trkpt>
<trkpt lat="40.0738274" lon="-105.2301696">
  <ele>1583.56</ele>
  <time>2026-08-28T19:08:24Z</time>
  <course>111.63</course>
  <speed>0.0</speed>
  <fix>3d</fix>
</trkpt>
<trkpt lat="40.0738275" lon="-105.2301697">
  <ele>1583.64</ele>
  <time>2026-08-28T19:08:24Z</time>
  <course>18.47</course>
  <speed>0.022360679774997897</speed>
  <fix>3d</fix>
</trkpt>
<trkpt lat="40.0738274" lon="-105.2301696">
  <ele>1583.56</ele>
  <time>2026-08-28T19:08:24Z</time>
  <course>106.66</course>
  <speed>0.0</speed>
  <fix>3d</fix>
</trkpt>
<trkpt lat="40.0738275" lon="-105.2301697">
  <ele>1583.64</ele>
  <time>2026-08-28T19:08:24Z</time>
  <course>18.49</course>
  <speed>0.022360679774997897</speed>
  <fix>3d</fix>
</trkpt>
<trkpt lat="40.0738274" lon="-105.2301696">
  <ele>1583.56</ele>
  <time>2026-08-28T19:08:24Z</time>
  <course>101.12</course>
  <speed>0.0</speed>
  <fix>3d</fix>
</trkpt>
<trkpt lat="40.0738275" lon="-105.2301697">
  <ele>1583.64</ele>
  <time>2026-08-28T19:08:24Z</time>
  <course>18.5</course>
  <speed>0.022360679774997897</speed>
  <fix>3d</fix>
</trkpt>
<trkpt lat="40.0738274" lon="-105.2301696">
  <ele>1583.56</ele>
  <time>2026-08-28T19:08:24Z</time>
  <course>98.0</course>
  <speed>0.0</speed>
  <fix>3d</fix>
</trkpt>
<trkpt lat="40.0738275" lon="-105.2301697">
  <ele>1583.64</ele>
  <time>2026-08-28T19:08:24Z</time>
  <course>18.52</course>
  <speed>0.022360679774997897</speed>
  <fix>3d</fix>
</trkpt>
<trkpt lat="40.0738274" lon="-105.2301696">
  <ele>1583.56</ele>
  <time>2026-08-28T19:08:24Z</time>
  <course>100.49</course>
  <speed>0.0</speed>
  <fix>3d</fix>
</trkpt>
<trkpt lat="40.0738275" lon="-105.2301697">
  <ele>1583.64</ele>
  <time>2026-08-28T19:08:24Z</time>
  <course>18.52</course>
  <speed>0.022360679774997897</speed>
  <fix>3d</fix>
</trkpt>
<trkpt lat="40.0738274" lon="-105.2301696">
  <ele>1583.56</ele>
  <time>2026-08-28T19:08:24Z</time>
  <course>106.22</course>
  <speed>0.0</speed>
  <fix>3d</fix>
</trkpt>
<trkpt lat="40.0738275" lon="-105.2301697">
  <ele>1583.64</ele>
  <time>2026-08-28T19:08:24Z</time>
  <course>18.53</course>
  <speed>0.022360679774997897</speed>
  <fix>3d</fix>
</trkpt>
<trkpt lat="40.0738274" lon="-105.2301696">
  <ele>1583.56</ele>
  <time>2026-08-28T19:08:24Z</time>
  <course>103.96</course>
  <speed>0.0</speed>
  <fix>3d</fix>
</trkpt>
<trkpt lat="40.0738275" lon="-105.2301697">
  <ele>1583.64</ele>
  <time>2026-08-28T19:08:24Z</time>
  <course>18.54</course>
  <speed>0.022360679774997897</speed>
  <fix>3d</fix>
</trkpt>
<trkpt lat="40.0738274" lon="-105.2301696">
  <ele>1583.56</ele>
  <time>2026-08-28T19:08:24Z</time>
  <course>103.3</course>
  <speed>0.0</speed>
  <fix>3d</fix>
</trkpt>
<trkpt lat="40.0738275" lon="-105.2301697">
  <ele>1583.64</ele>
  <time>2026-08-28T19:08:24Z</time>
  <course>18.54</course>
  <speed>0.022360679774997897</speed>
  <fix>3d</fix>
</trkpt>
<trkpt lat="40.0738274" lon="-105.2301696">
  <ele>1583.56</ele>
  <time>2026-08-28T19:08:24Z</time>
  <course>103.32</course>
  <speed>0.0</speed>
  <fix>3d</fix>
</trkpt>
<trkpt lat="40.0738275" lon="-105.2301697">
  <ele>1583.64</ele>
  <time>2026-08-28T19:08:24Z</time>
  <course>18.54</course>
  <speed>0.022360679774997897</speed>
  <fix>3d</fix>
</trkpt>
<trkpt lat="40.0738274" lon="-105.2301696">
  <ele>1583.56</ele>
  <time>2026-08-28T19:08:24Z</time>
  <course>103.19</course>
  <speed>0.0</speed>
  <fix>3d</fix>
</trkpt>
<trkpt lat="40.0738275" lon="-105.2301697">
  <ele>1583.64</ele>
  <time>2026-08-28T19:08:24Z</time>
  <course>18.53</course>
  <speed>0.022360679774997897</speed>
  <fix>3d</fix>
</trkpt>
<trkpt lat="40.0738274" lon="-105.2301696">
  <ele>1583.56</ele>
  <time>2026-08-28T19:08:24Z</time>
  <course>103.03</course>
  <speed>0.0</speed>
  <fix>3d</fix>
</trkpt>
<trkpt lat="40.0738275" lon="-105.2301697">
  <ele>1583.63</ele>
  <time>2026-08-28T19:08:24Z</time>
  <course>18.53</course>
  <speed>0.022360679774997897</speed>
  <fix>3d</fix>
</trkpt>
<trkpt lat="40.0738274" lon="-105.2301696">
  <ele>1583.56</ele>
  <time>2026-08-28T19:08:24Z</time>
  <course>102.93</course>
  <speed>0.0</speed>
  <fix>3d</fix>
</trkpt>
<trkpt lat="40.0738275" lon="-105.2301697">
  <ele>1583.63</ele>
  <time>2026-08-28T19:08:24Z</time>
  <course>18.52</course>
  <speed>0.022360679774997897</speed>
  <fix>3d</fix>
</trkpt>
<trkpt lat="40.0738274" lon="-105.2301696">
  <ele>1583.56</ele>
  <time>2026-08-28T19:08:24Z</time>
  <course>102.85</course>
  <speed>0.0</speed>
  <fix>3d</fix>
</trkpt>
<trkpt lat="40.0738275" lon="-105.2301697">
  <ele>1583.63</ele>
  <time>2026-08-28T19:08:24Z</time>
  <course>18.51</course>
  <speed>0.022360679774997897</speed>
  <fix>3d</fix>
</trkpt>
<trkpt lat="40.0738274" lon="-105.2301696">
  <ele>1583.56</ele>
  <time>2026-08-28T19:08:24Z</time>
  <course>102.77</course>
  <speed>0.0</speed>
  <fix>3d</fix>
</trkpt>
<trkpt lat="40.0738275" lon="-105.2301697">
  <ele>1583.63</ele>
  <time>2026-08-28T19:08:24Z</time>
  <course>18.49</course>
  <speed>0.022360679774997897</speed>
  <fix>3d</fix>
</trkpt>
<trkpt lat="40.0738274" lon="-105.2301696">
  <ele>1583.56</ele>
  <time>2026-08-28T19:08:24Z</time>
  <course>102.69</course>
  <speed>0.0</speed>
  <fix>3d</fix>
</trkpt>
<trkpt lat="40.0738275" lon="-105.2301697">
  <ele>1583.63</ele>
  <time>2026-08-28T19:08:24Z</time>
  <course>18.48</course>
  <speed>0.022360679774997897</speed>
  <fix>3d</fix>
</trkpt>
<trkpt lat="40.0738274" lon="-105.2301696">
  <ele>1583.56</ele>
  <time>2026-08-28T19:08:24Z</time>
  <course>102.61</course>
  <speed>0.0</speed>
  <fix>3d</fix>
</trkpt>
<trkpt lat="40.0738275" lon="-105.2301697">
  <ele>1583.63</ele>
  <time>2026-08-28T19:08:24Z</time>
  <course>18.46</course>
  <speed>0.022360679774997897</speed>
  <fix>3d</fix>
</trkpt>
<trkpt lat="40.0738274" lon="-105.2301696">
  <ele>1583.56</ele>
  <time>2026-08-28T19:08:24Z</time>
  <course>102.52</course>
  <speed>0.0</speed>
  <fix>3d</fix>
</trkpt>
<trkpt lat="40.0738275" lon="-105.2301697">
  <ele>1583.63</ele>
  <time>2026-08-28T19:08:24Z</time>
  <course>18.44</course>
  <speed>0.022360679774997897</speed>
  <fix>3d</fix>
</trkpt>
<trkpt lat="40.0738274" lon="-105.2301696">
  <ele>1583.56</ele>
  <time>2026-08-28T19:08:24Z</time>
  <course>105.04</course>
  <speed>0.0</speed>
  <fix>3d</fix>
</trkpt>
<trkpt lat="40.0738275" lon="-105.2301697">
  <ele>1583.63</ele>
  <time>2026-08-28T19:08:24Z</time>
  <course>18.41</course>
  <speed>0.022360679774997897</speed>
  <fix>3d</fix>
</trkpt>
<trkpt lat="40.0738274" lon="-105.2301696">
  <ele>1583.56</ele>
  <time>2026-08-28T19:08:24Z</time>
  <course>105.85</course>
  <speed>0.0</speed>
  <fix>3d</fix>
</trkpt>
<trkpt lat="40.0738275" lon="-105.2301697">
  <ele>1583.63</ele>
  <time>2026-08-28T19:08:24Z</time>
  <course>18.39</course>
  <speed>0.022360679774997897</speed>
  <fix>3d</fix>
</trkpt>
<trkpt lat="40.0738274" lon="-105.2301696">
  <ele>1583.56</ele>
  <time>2026-08-28T19:08:24Z</time>
  <course>102.36</course>
  <speed>0.0</speed>
  <fix>3d</fix>
</trkpt>
<trkpt lat="40.0738275" lon="-105.2301697">
  <ele>1583.63</ele>
  <time>2026-08-28T19:08:24Z</time>
  <course>18.36</course>
  <speed>0.022360679774997897</speed>
  <fix>3d</fix>
</trkpt>
<trkpt lat="40.0738274" lon="-105.2301696">
  <ele>1583.56</ele>
  <time>2026-08-28T19:08:24Z</time>
  <course>102.23</course>
  <speed>0.0</speed>
  <fix>3d</fix>
</trkpt>
<trkpt lat="40.0738275" lon="-105.2301697">
  <ele>1583.63</ele>
  <time>2026-08-28T19:08:24Z</time>
  <course>18.33</course>
  <speed>0.022360679774997897</speed>
  <fix>3d</fix>
</trkpt>
<trkpt lat="40.0738274" lon="-105.2301696">
  <ele>1583.56</ele>
  <time>2026-08-28T19:08:24Z</time>
  <course>110.12</course>
  <speed>0.0</speed>
  <fix>3d</fix>
</trkpt>
<trkpt lat="40.0738275" lon="-105.2301697">
  <ele>1583.63</ele>
  <time>2026-08-28T19:08:24Z</time>
  <course>18.3</course>
  <speed>0.022360679774997897</speed>
  <fix>3d</fix>
</trkpt>
<trkpt lat="40.0738274" lon="-105.2301696">
  <ele>1583.56</ele>
  <time>2026-08-28T19:08:24Z</time>
  <course>114.08</course>
  <speed>0.0</speed>
  <fix>3d</fix>
</trkpt>
<trkpt lat="40.0738275" lon="-105.2301697">
  <ele>1583.63</ele>
  <time>2026-08-28T19:08:24Z</time>
  <course>18.27</course>
  <speed>0.022360679774997897</speed>
  <fix>3d</fix>
</trkpt>
<trkpt lat="40.0738274" lon="-105.2301696">
  <ele>1583.56</ele>
  <time>2026-08-28T19:08:24Z</time>
  <course>97.44</course>
  <speed>0.0</speed>
  <fix>3d</fix>
</trkpt>
<trkpt lat="40.0738275" lon="-105.2301697">
  <ele>1583.63</ele>
  <time>2026-08-28T19:08:24Z</time>
  <course>18.23</course>
  <speed>0.022360679774997897</speed>
  <fix>3d</fix>
</trkpt>
<trkpt lat="40.0738274" lon="-105.2301696">
  <ele>1583.56</ele>
  <time>2026-08-28T19:08:24Z</time>
  <course>275.55</course>
  <speed>0.0</speed>
  <fix>3d</fix>
</trkpt>
<trkpt lat="40.0738275" lon="-105.2301697">
  <ele>1583.63</ele>
  <time>2026-08-28T19:08:24Z</time>
  <course>18.19</course>
  <speed>0.022360679774997897</speed>
  <fix>3d</fix>
</trkpt>
<trkpt lat="40.0738274" lon="-105.2301696">
  <ele>1583.56</ele>
  <time>2026-08-28T19:08:24Z</time>
  <course>265.94</course>
  <speed>0.0</speed>
  <fix>3d</fix>
</trkpt>
<trkpt lat="40.0738275" lon="-105.2301697">
  <ele>1583.63</ele>
  <time>2026-08-28T19:08:24Z</time>
  <course>18.15</course>
  <speed>0.022360679774997897</speed>
  <fix>3d</fix>
</trkpt>
<trkpt lat="40.0738274" lon="-105.2301696">
  <ele>1583.56</ele>
  <time>2026-08-28T19:08:24Z</time>
  <course>102.08</course>
  <speed>0.0</speed>
  <fix>3d</fix>
</trkpt>
<trkpt lat="40.0738275" lon="-105.2301697">
  <ele>1583.63</ele>
  <time>2026-08-28T19:08:24Z</time>
  <course>18.11</course>
  <speed>0.022360679774997897</speed>
  <fix>3d</fix>
</trkpt>
<trkpt lat="40.0738274" lon="-105.2301696">
  <ele>1583.56</ele>
  <time>2026-08-28T19:08:24Z</time>
  <course>275.48</course>
  <speed>0.0</speed>
  <fix>3d</fix>
</trkpt>
<trkpt lat="40.0738275" lon="-105.2301697">
  <ele>1583.63</ele>
  <time>2026-08-28T19:08:24Z</time>
  <course>18.07</course>
  <speed>0.022360679774997897</speed>
  <fix>3d</fix>
</trkpt>
<trkpt lat="40.0738274" lon="-105.2301696">
  <ele>1583.56</ele>
  <time>2026-08-28T19:08:24Z</time>
  <course>192.62</course>
  <speed>0.0</speed>
  <fix>3d</fix>
</trkpt>
<trkpt lat="40.0738275" lon="-105.2301697">
  <ele>1583.64</ele>
  <time>2026-08-28T19:08:24Z</time>
  <course>18.03</course>
  <speed>0.022360679774997897</speed>
  <fix>3d</fix>
</trkpt>
<trkpt lat="40.0738274" lon="-105.2301696">
  <ele>1583.56</ele>
  <time>2026-08-28T19:08:24Z</time>
  <course>275.28</course>
  <speed>0.0</speed>
  <fix>3d</fix>
</trkpt>
<trkpt lat="40.0738275" lon="-105.2301697">
  <ele>1583.64</ele>
  <time>2026-08-28T19:08:24Z</time>
  <course>17.98</course>
  <speed>0.022360679774997897</speed>
  <fix>3d</fix>
</trkpt>
<trkpt lat="40.0738274" lon="-105.2301696">
  <ele>1583.56</ele>
  <time>2026-08-28T19:08:24Z</time>
  <course>277.64</course>
  <speed>0.0</speed>
  <fix>3d</fix>
</trkpt>
<trkpt lat="40.0738275" lon="-105.2301697">
  <ele>1583.64</ele>
  <time>2026-08-28T19:08:24Z</time>
  <course>17.93</course>
  <speed>0.022360679774997897</speed>
  <fix>3d</fix>
</trkpt>
<trkpt lat="40.0738274" lon="-105.2301696">
  <ele>1583.56</ele>
  <time>2026-08-28T19:08:24Z</time>
  <course>277.89</course>
  <speed>0.0</speed>
  <fix>3d</fix>
</trkpt>
<trkpt lat="40.0738275" lon="-105.2301697">
  <ele>1583.64</ele>
  <time>2026-08-28T19:08:24Z</time>
  <course>17.89</course>
  <speed>0.022360679774997897</speed>
  <fix>3d</fix>
</trkpt>
<trkpt lat="40.0738274" lon="-105.2301696">
  <ele>1583.56</ele>
  <time>2026-08-28T19:08:24Z</time>
  <course>278.24</course>
  <speed>0.0</speed>
  <fix>3d</fix>
</trkpt>
<trkpt lat="40.0738275" lon="-105.2301697">
  <ele>1583.64</ele>
  <time>2026-08-28T19:08:24Z</time>
  <course>17.83</course>
  <speed>0.022360679774997897</speed>
  <fix>3d</fix>
</trkpt>
<trkpt lat="40.0738274" lon="-105.2301696">
  <ele>1583.56</ele>
  <time>2026-08-28T19:08:24Z</time>
  <course>278.13</course>
  <speed>0.0</speed>
  <fix>3d</fix>
</trkpt>
<trkpt lat="40.0738275" lon="-105.2301697">
  <ele>1583.64</ele>
  <time>2026-08-28T19:08:24Z</time>
  <course>17.78</course>
  <speed>0.022360679774997897</speed>
  <fix>3d</fix>
</trkpt>
<trkpt lat="40.0738274" lon="-105.2301696">
  <ele>1583.56</ele>
  <time>2026-08-28T19:08:24Z</time>
  <course>278.65</course>
  <speed>0.0</speed>
  <fix>3d</fix>
</trkpt>
<trkpt lat="40.0738275" lon="-105.2301697">
  <ele>1583.64</ele>
  <time>2026-08-28T19:08:24Z</time>
  <course>17.73</course>
  <speed>0.022360679774997897</speed>
  <fix>3d</fix>
</trkpt>
<trkpt lat="40.0738274" lon="-105.2301696">
  <ele>1583.56</ele>
  <time>2026-08-28T19:08:24Z</time>
  <course>278.71</course>
  <speed>0.0</speed>
  <fix>3d</fix>
</trkpt>
<trkpt lat="40.0738275" lon="-105.2301697">
  <ele>1583.64</ele>
  <time>2026-08-28T19:08:24Z</time>
  <course>17.68</course>
  <speed>0.022360679774997897</speed>
  <fix>3d</fix>
</trkpt>
<trkpt lat="40.0738274" lon="-105.2301696">
  <ele>1583.56</ele>
  <time>2026-08-28T19:08:24Z</time>
  <course>278.55</course>
  <speed>0.0</speed>
  <fix>3d</fix>
</trkpt>
<trkpt lat="40.0738275" lon="-105.2301697">
  <ele>1583.64</ele>
  <time>2026-08-28T19:08:24Z</time>
  <course>17.63</course>
  <speed>0.022360679774997897</speed>
  <fix>3d</fix>
</trkpt>
<trkpt lat="40.0738274" lon="-105.2301696">
  <ele>1583.56</ele>
  <time>2026-08-28T19:08:24Z</time>
  <course>278.45</course>
  <speed>0.0</speed>
  <fix>3d</fix>
</trkpt>
<trkpt lat="40.0738275" lon="-105.2301697">
  <ele>1583.64</ele>
  <time>2026-08-28T19:08:24Z</time>
  <course>17.58</course>
  <speed>0.022360679774997897</speed>
  <fix>3d</fix>
</trkpt>
<trkpt lat="40.0738274" lon="-105.2301696">
  <ele>1583.56</ele>
  <time>2026-08-28T19:08:24Z</time>
  <course>278.27</course>
  <speed>0.0</speed>
  <fix>3d</fix>
</trkpt>
<trkpt lat="40.0738275" lon="-105.2301697">
  <ele>1583.64</ele>
  <time>2026-08-28T19:08:24Z</time>
  <course>17.53</course>
  <speed>0.022360679774997897</speed>
  <fix>3d</fix>
</trkpt>
<trkpt lat="40.0738274" lon="-105.2301696">
  <ele>1583.56</ele>
  <time>2026-08-28T19:08:24Z</time>
  <course>278.11</course>
  <speed>0.0</speed>
  <fix>3d</fix>
</trkpt>
<trkpt lat="40.0738275" lon="-105.2301697">
  <ele>1583.64</ele>
  <time>2026-08-28T19:08:24Z</time>
  <course>17.48</course>
  <speed>0.022360679774997897</speed>
  <fix>3d</fix>
</trkpt>
<trkpt lat="40.0738274" lon="-105.2301696">
  <ele>1583.56</ele>
  <time>2026-08-28T19:08:24Z</time>
  <course>278.04</course>
  <speed>0.0</speed>
  <fix>3d</fix>
</trkpt>
<trkpt lat="40.0738275" lon="-105.2301697">
  <ele>1583.64</ele>
  <time>2026-08-28T19:08:24Z</time>
  <course>17.43</course>
  <speed>0.022360679774997897</speed>
  <fix>3d</fix>
</trkpt>
<trkpt lat="40.0738274" lon="-105.2301696">
  <ele>1583.56</ele>
  <time>2026-08-28T19:08:24Z</time>
  <course>116.56</course>
  <speed>0.0</speed>
  <fix>3d</fix>
</trkpt>
<trkpt lat="40.0738275" lon="-105.2301697">
  <ele>1583.64</ele>
  <time>2026-08-28T19:08:24Z</time>
  <course>17.38</course>
  <speed>0.022360679774997897</speed>
  <fix>3d</fix>
</trkpt>
<trkpt lat="40.0738274" lon="-105.2301696">
  <ele>1583.56</ele>
  <time>2026-08-28T19:08:24Z</time>
  <course>109.52</course>
  <speed>0.0</speed>
  <fix>3d</fix>
</trkpt>
<trkpt lat="40.0738275" lon="-105.2301697">
  <ele>1583.64</ele>
  <time>2026-08-28T19:08:24Z</time>
  <course>17.33</course>
  <speed>0.022360679774997897</speed>
  <fix>3d</fix>
</trkpt>
<trkpt lat="40.0738274" lon="-105.2301696">
  <ele>1583.56</ele>
  <time>2026-08-28T19:08:24Z</time>
  <course>277.86</course>
  <speed>0.0</speed>
  <fix>3d</fix>
</trkpt>
<trkpt lat="40.0738275" lon="-105.2301697">
  <ele>1583.63</ele>
  <time>2026-08-28T19:08:24Z</time>
  <course>17.28</course>
  <speed>0.022360679774997897</speed>
  <fix>3d</fix>
</trkpt>
<trkpt lat="40.0738274" lon="-105.2301696">
  <ele>1583.56</ele>
  <time>2026-08-28T19:08:24Z</time>
  <course>278.19</course>
  <speed>0.0</speed>
  <fix>3d</fix>
</trkpt>
<trkpt lat="40.0738275" lon="-105.2301697">
  <ele>1583.63</ele>
  <time>2026-08-28T19:08:24Z</time>
  <course>17.23</course>
  <speed>0.022360679774997897</speed>
  <fix>3d</fix>
</trkpt>
<trkpt lat="40.0738274" lon="-105.2301696">
  <ele>1583.56</ele>
  <time>2026-08-28T19:08:24Z</time>
  <course>277.86</course>
  <speed>0.0</speed>
  <fix>3d</fix>
</trkpt>
<trkpt lat="40.0738275" lon="-105.2301697">
  <ele>1583.63</ele>
  <time>2026-08-28T19:08:24Z</time>
  <course>17.18</course>
  <speed>0.022360679774997897</speed>
  <fix>3d</fix>
</trkpt>
<trkpt lat="40.0738274" lon="-105.2301696">
  <ele>1583.56</ele>
  <time>2026-08-28T19:08:24Z</time>
  <course>277.74</course>
  <speed>0.0</speed>
  <fix>3d</fix>
</trkpt>
<trkpt lat="40.0738275" lon="-105.2301697">
  <ele>1583.63</ele>
  <time>2026-08-28T19:08:24Z</time>
  <course>17.14</course>
  <speed>0.022360679774997897</speed>
  <fix>3d</fix>
</trkpt>
<trkpt lat="40.0738274" lon="-105.2301696">
  <ele>1583.56</ele>
  <time>2026-08-28T19:08:24Z</time>
  <course>277.65</course>
  <speed>0.0</speed>
  <fix>3d</fix>
</trkpt>
<trkpt lat="40.0738275" lon="-105.2301697">
  <ele>1583.64</ele>
  <time>2026-08-28T19:08:24Z</time>
  <course>17.09</course>
  <speed>0.022360679774997897</speed>
  <fix>3d</fix>
</trkpt>
<trkpt lat="40.0738274" lon="-105.2301696">
  <ele>1583.56</ele>
  <time>2026-08-28T19:08:24Z</time>
  <course>277.62</course>
  <speed>0.0</speed>
  <fix>3d</fix>
</trkpt>
<trkpt lat="40.0738275" lon="-105.2301697">
  <ele>1583.64</ele>
  <time>2026-08-28T19:08:24Z</time>
  <course>17.04</course>
  <speed>0.022360679774997897</speed>
  <fix>3d</fix>
</trkpt>
<trkpt lat="40.0738274" lon="-105.2301696">
  <ele>1583.56</ele>
  <time>2026-08-28T19:08:24Z</time>
  <course>277.45</course>
  <speed>0.0</speed>
  <fix>3d</fix>
</trkpt>
<trkpt lat="40.0738275" lon="-105.2301697">
  <ele>1583.64</ele>
  <time>2026-08-28T19:08:24Z</time>
  <course>16.99</course>
  <speed>0.022360679774997897</speed>
  <fix>3d</fix>
</trkpt>
<trkpt lat="40.0738274" lon="-105.2301696">
  <ele>1583.56</ele>
  <time>2026-08-28T19:08:24Z</time>
  <course>277.45</course>
  <speed>0.0</speed>
  <fix>3d</fix>
</trkpt>
<trkpt lat="40.0738275" lon="-105.2301697">
  <ele>1583.64</ele>
  <time>2026-08-28T19:08:24Z</time>
  <course>16.95</course>
  <speed>0.022360679774997897</speed>
  <fix>3d</fix>
</trkpt>
<trkpt lat="40.0738274" lon="-105.2301696">
  <ele>1583.56</ele>
  <time>2026-08-28T19:08:24Z</time>
  <course>276.38</course>
  <speed>0.0</speed>
  <fix>3d</fix>
</trkpt>
<trkpt lat="40.0738275" lon="-105.2301697">
  <ele>1583.64</ele>
  <time>2026-08-28T19:08:24Z</time>
  <course>16.9</course>
  <speed>0.022360679774997897</speed>
  <fix>3d</fix>
</trkpt>
<trkpt lat="40.0738274" lon="-105.2301696">
  <ele>1583.56</ele>
  <time>2026-08-28T19:08:24Z</time>
  <course>277.01</course>
  <speed>0.0</speed>
  <fix>3d</fix>
</trkpt>
<trkpt lat="40.0738275" lon="-105.2301697">
  <ele>1583.65</ele>
  <time>2026-08-28T19:08:24Z</time>
  <course>16.86</course>
  <speed>0.022360679774997897</speed>
  <fix>3d</fix>
</trkpt>
<trkpt lat="40.0738274" lon="-105.2301696">
  <ele>1583.56</ele>
  <time>2026-08-28T19:08:24Z</time>
  <course>276.55</course>
  <speed>0.0</speed>
  <fix>3d</fix>
</trkpt>
<trkpt lat="40.0738275" lon="-105.2301697">
  <ele>1583.65</ele>
  <time>2026-08-28T19:08:24Z</time>
  <course>16.81</course>
  <speed>0.022360679774997897</speed>
  <fix>3d</fix>
</trkpt>
<trkpt lat="40.0738274" lon="-105.2301696">
  <ele>1583.56</ele>
  <time>2026-08-28T19:08:24Z</time>
  <course>276.54</course>
  <speed>0.0</speed>
  <fix>3d</fix>
</trkpt>
<trkpt lat="40.0738275" lon="-105.2301697">
  <ele>1583.65</ele>
  <time>2026-08-28T19:08:24Z</time>
  <course>16.77</course>
  <speed>0.022360679774997897</speed>
  <fix>3d</fix>
</trkpt>
<trkpt lat="40.0738274" lon="-105.2301696">
  <ele>1583.56</ele>
  <time>2026-08-28T19:08:24Z</time>
  <course>275.7</course>
  <speed>0.0</speed>
  <fix>3d</fix>
</trkpt>
<trkpt lat="40.0738275" lon="-105.2301697">
  <ele>1583.65</ele>
  <time>2026-08-28T19:08:24Z</time>
  <course>16.72</course>
  <speed>0.022360679774997897</speed>
  <fix>3d</fix>
</trkpt>
<trkpt lat="40.0738274" lon="-105.2301696">
  <ele>1583.56</ele>
  <time>2026-08-28T19:08:24Z</time>
  <course>275.99</course>
  <speed>0.0</speed>
  <fix>3d</fix>
</trkpt>
<trkpt lat="40.0738275" lon="-105.2301697">
  <ele>1583.65</ele>
  <time>2026-08-28T19:08:24Z</time>
  <course>16.68</course>
  <speed>0.022360679774997897</speed>
  <fix>3d</fix>
</trkpt>
<trkpt lat="40.0738274" lon="-105.2301696">
  <ele>1583.56</ele>
  <time>2026-08-28T19:08:24Z</time>
  <course>276.11</course>
  <speed>0.0</speed>
  <fix>3d</fix>
</trkpt>
<trkpt lat="40.0738275" lon="-105.2301697">
  <ele>1583.65</ele>
  <time>2026-08-28T19:08:24Z</time>
  <course>16.63</course>
  <speed>0.022360679774997897</speed>
  <fix>3d</fix>
</trkpt>
<trkpt lat="40.0738274" lon="-105.2301696">
  <ele>1583.56</ele>
  <time>2026-08-28T19:08:24Z</time>
  <course>276.32</course>
  <speed>0.0</speed>
  <fix>3d</fix>
</trkpt>
<trkpt lat="40.0738275" lon="-105.2301697">
  <ele>1583.65</ele>
  <time>2026-08-28T19:08:24Z</time>
  <course>16.59</course>
  <speed>0.022360679774997897</speed>
  <fix>3d</fix>
</trkpt>
<trkpt lat="40.0738274" lon="-105.2301696">
  <ele>1583.56</ele>
  <time>2026-08-28T19:08:24Z</time>
  <course>276.5</course>
  <speed>0.0</speed>
  <fix>3d</fix>
</trkpt>
<trkpt lat="40.0738275" lon="-105.2301697">
  <ele>1583.65</ele>
  <time>2026-08-28T19:08:25Z</time>
  <course>16.55</course>
  <speed>0.022360679774997897</speed>
  <fix>3d</fix>
</trkpt>
<trkpt lat="40.0738274" lon="-105.2301696">
  <ele>1583.56</ele>
  <time>2026-08-28T19:08:25Z</time>
  <course>276.01</course>
  <speed>0.0</speed>
  <fix>3d</fix>
</trkpt>
<trkpt lat="40.0738275" lon="-105.2301697">
  <ele>1583.64</ele>
  <time>2026-08-28T19:08:25Z</time>
  <course>16.5</course>
  <speed>0.022360679774997897</speed>
  <fix>3d</fix>
</trkpt>
<trkpt lat="40.0738274" lon="-105.2301696">
  <ele>1583.56</ele>
  <time>2026-08-28T19:08:25Z</time>
  <course>276.7</course>
  <speed>0.0</speed>
  <fix>3d</fix>
</trkpt>
<trkpt lat="40.0738275" lon="-105.2301697">
  <ele>1583.64</ele>
  <time>2026-08-28T19:08:25Z</time>
  <course>16.46</course>
  <speed>0.022360679774997897</speed>
  <fix>3d</fix>
</trkpt>
<trkpt lat="40.0738274" lon="-105.2301696">
  <ele>1583.56</ele>
  <time>2026-08-28T19:08:25Z</time>
  <course>275.31</course>
  <speed>0.0</speed>
  <fix>3d</fix>
</trkpt>
<trkpt lat="40.0738275" lon="-105.2301697">
  <ele>1583.64</ele>
  <time>2026-08-28T19:08:25Z</time>
  <course>16.42</course>
  <speed>0.022360679774997897</speed>
  <fix>3d</fix>
</trkpt>
<trkpt lat="40.0738274" lon="-105.2301696">
  <ele>1583.56</ele>
  <time>2026-08-28T19:08:25Z</time>
  <course>275.9</course>
  <speed>0.0</speed>
  <fix>3d</fix>
</trkpt>
<trkpt lat="40.0738275" lon="-105.2301697">
  <ele>1583.64</ele>
  <time>2026-08-28T19:08:25Z</time>
  <course>16.38</course>
  <speed>0.022360679774997897</speed>
  <fix>3d</fix>
</trkpt>
<trkpt lat="40.0738274" lon="-105.2301696">
  <ele>1583.56</ele>
  <time>2026-08-28T19:08:25Z</time>
  <course>275.41</course>
  <speed>0.0</speed>
  <fix>3d</fix>
</trkpt>
<trkpt lat="40.0738275" lon="-105.2301697">
  <ele>1583.64</ele>
  <time>2026-08-28T19:08:25Z</time>
  <course>16.34</course>
  <speed>0.022360679774997897</speed>
  <fix>3d</fix>
</trkpt>
<trkpt lat="40.0738274" lon="-105.2301696">
  <ele>1583.56</ele>
  <time>2026-08-28T19:08:25Z</time>
  <course>275.92</course>
  <speed>0.0</speed>
  <fix>3d</fix>
</trkpt>
<trkpt lat="40.0738275" lon="-105.2301697">
  <ele>1583.64</ele>
  <time>2026-08-28T19:08:25Z</time>
  <course>16.3</course>
  <speed>0.022360679774997897</speed>
  <fix>3d</fix>
</trkpt>
<trkpt lat="40.0738274" lon="-105.2301696">
  <ele>1583.56</ele>
  <time>2026-08-28T19:08:25Z</time>
  <course>276.19</course>
  <speed>0.0</speed>
  <fix>3d</fix>
</trkpt>
<trkpt lat="40.0738275" lon="-105.2301697">
  <ele>1583.63</ele>
  <time>2026-08-28T19:08:25Z</time>
  <course>16.26</course>
  <speed>0.022360679774997897</speed>
  <fix>3d</fix>
</trkpt>
<trkpt lat="40.0738274" lon="-105.2301696">
  <ele>1583.56</ele>
  <time>2026-08-28T19:08:25Z</time>
  <course>275.76</course>
  <speed>0.0</speed>
  <fix>3d</fix>
</trkpt>
<trkpt lat="40.0738275" lon="-105.2301697">
  <ele>1583.63</ele>
  <time>2026-08-28T19:08:25Z</time>
  <course>16.22</course>
  <speed>0.022360679774997897</speed>
  <fix>3d</fix>
</trkpt>
<trkpt lat="40.0738274" lon="-105.2301696">
  <ele>1583.56</ele>
  <time>2026-08-28T19:08:25Z</time>
  <course>276.29</course>
  <speed>0.0</speed>
  <fix>3d</fix>
</trkpt>
<trkpt lat="40.0738275" lon="-105.2301697">
  <ele>1583.63</ele>
  <time>2026-08-28T19:08:25Z</time>
  <course>16.18</course>
  <speed>0.022360679774997897</speed>
  <fix>3d</fix>
</trkpt>
<trkpt lat="40.0738274" lon="-105.2301696">
  <ele>1583.56</ele>
  <time>2026-08-28T19:08:25Z</time>
  <course>273.75</course>
  <speed>0.0</speed>
  <fix>3d</fix>
</trkpt>
<trkpt lat="40.0738275" lon="-105.2301697">
  <ele>1583.64</ele>
  <time>2026-08-28T19:08:25Z</time>
  <course>16.14</course>
  <speed>0.022360679774997897</speed>
  <fix>3d</fix>
</trkpt>
<trkpt lat="40.0738274" lon="-105.2301696">
  <ele>1583.56</ele>
  <time>2026-08-28T19:08:25Z</time>
  <course>275.65</course>
  <speed>0.0</speed>
  <fix>3d</fix>
</trkpt>
<trkpt lat="40.0738275" lon="-105.2301697">
  <ele>1583.64</ele>
  <time>2026-08-28T19:08:25Z</time>
  <course>16.1</course>
  <speed>0.022360679774997897</speed>
  <fix>3d</fix>
</trkpt>
<trkpt lat="40.0738274" lon="-105.2301696">
  <ele>1583.56</ele>
  <time>2026-08-28T19:08:25Z</time>
  <course>276.03</course>
  <speed>0.0</speed>
  <fix>3d</fix>
</trkpt>
<trkpt lat="40.0738275" lon="-105.2301697">
  <ele>1583.64</ele>
  <time>2026-08-28T19:08:25Z</time>
  <course>16.06</course>
  <speed>0.022360679774997897</speed>
  <fix>3d</fix>
</trkpt>
<trkpt lat="40.0738274" lon="-105.2301696">
  <ele>1583.56</ele>
  <time>2026-08-28T19:08:25Z</time>
  <course>275.03</course>
  <speed>0.0</speed>
  <fix>3d</fix>
</trkpt>
<trkpt lat="40.0738275" lon="-105.2301697">
  <ele>1583.64</ele>
  <time>2026-08-28T19:08:25Z</time>
  <course>16.02</course>
  <speed>0.022360679774997897</speed>
  <fix>3d</fix>
</trkpt>
<trkpt lat="40.0738274" lon="-105.2301696">
  <ele>1583.56</ele>
  <time>2026-08-28T19:08:25Z</time>
  <course>275.91</course>
  <speed>0.0</speed>
  <fix>3d</fix>
</trkpt>
<trkpt lat="40.0738275" lon="-105.2301697">
  <ele>1583.64</ele>
  <time>2026-08-28T19:08:25Z</time>
  <course>15.99</course>
  <speed>0.022360679774997897</speed>
  <fix>3d</fix>
</trkpt>
<trkpt lat="40.0738274" lon="-105.2301696">
  <ele>1583.56</ele>
  <time>2026-08-28T19:08:25Z</time>
  <course>274.46</course>
  <speed>0.0</speed>
  <fix>3d</fix>
</trkpt>
<trkpt lat="40.0738275" lon="-105.2301697">
  <ele>1583.64</ele>
  <time>2026-08-28T19:08:25Z</time>
  <course>15.95</course>
  <speed>0.022360679774997897</speed>
  <fix>3d</fix>
</trkpt>
<trkpt lat="40.0738274" lon="-105.2301696">
  <ele>1583.56</ele>
  <time>2026-08-28T19:08:25Z</time>
  <course>275.46</course>
  <speed>0.0</speed>
  <fix>3d</fix>
</trkpt>
<trkpt lat="40.0738275" lon="-105.2301697">
  <ele>1583.64</ele>
  <time>2026-08-28T19:08:25Z</time>
  <course>15.91</course>
  <speed>0.022360679774997897</speed>
  <fix>3d</fix>
</trkpt>
<trkpt lat="40.0738274" lon="-105.2301696">
  <ele>1583.56</ele>
  <time>2026-08-28T19:08:25Z</time>
  <course>275.87</course>
  <speed>0.0</speed>
  <fix>3d</fix>
</trkpt>
<trkpt lat="40.0738275" lon="-105.2301697">
  <ele>1583.64</ele>
  <time>2026-08-28T19:08:25Z</time>
  <course>15.87</course>
  <speed>0.022360679774997897</speed>
  <fix>3d</fix>
</trkpt>
<trkpt lat="40.0738274" lon="-105.2301696">
  <ele>1583.56</ele>
  <time>2026-08-28T19:08:25Z</time>
  <course>272.07</course>
  <speed>0.0</speed>
  <fix>3d</fix>
</trkpt>
<trkpt lat="40.0738275" lon="-105.2301697">
  <ele>1583.64</ele>
  <time>2026-08-28T19:08:25Z</time>
  <course>15.84</course>
  <speed>0.022360679774997897</speed>
  <fix>3d</fix>
</trkpt>
<trkpt lat="40.0738274" lon="-105.2301696">
  <ele>1583.56</ele>
  <time>2026-08-28T19:08:25Z</time>
  <course>275.05</course>
  <speed>0.0</speed>
  <fix>3d</fix>
</trkpt>
<trkpt lat="40.0738275" lon="-105.2301697">
  <ele>1583.64</ele>
  <time>2026-08-28T19:08:25Z</time>
  <course>15.8</course>
  <speed>0.022360679774997897</speed>
  <fix>3d</fix>
</trkpt>
<trkpt lat="40.0738274" lon="-105.2301696">
  <ele>1583.56</ele>
  <time>2026-08-28T19:08:25Z</time>
  <course>275.08</course>
  <speed>0.0</speed>
  <fix>3d</fix>
</trkpt>
<trkpt lat="40.0738275" lon="-105.2301697">
  <ele>1583.64</ele>
  <time>2026-08-28T19:08:25Z</time>
  <course>15.77</course>
  <speed>0.022360679774997897</speed>
  <fix>3d</fix>
</trkpt>
<trkpt lat="40.0738274" lon="-105.2301696">
  <ele>1583.56</ele>
  <time>2026-08-28T19:08:25Z</time>
  <course>271.62</course>
  <speed>0.0</speed>
  <fix>3d</fix>
</trkpt>
<trkpt lat="40.0738275" lon="-105.2301697">
  <ele>1583.64</ele>
  <time>2026-08-28T19:08:25Z</time>
  <course>15.73</course>
  <speed>0.022360679774997897</speed>
  <fix>3d</fix>
</trkpt>
<trkpt lat="40.0738274" lon="-105.2301696">
  <ele>1583.56</ele>
  <time>2026-08-28T19:08:25Z</time>
  <course>275.27</course>
  <speed>0.0</speed>
  <fix>3d</fix>
</trkpt>
<trkpt lat="40.0738275" lon="-105.2301697">
  <ele>1583.65</ele>
  <time>2026-08-28T19:08:25Z</time>
  <course>15.7</course>
  <speed>0.022360679774997897</speed>
  <fix>3d</fix>
</trkpt>
<trkpt lat="40.0738274" lon="-105.2301696">
  <ele>1583.56</ele>
  <time>2026-08-28T19:08:25Z</time>
  <course>274.89</course>
  <speed>0.0</speed>
  <fix>3d</fix>
</trkpt>
<trkpt lat="40.0738275" lon="-105.2301697">
  <ele>1583.65</ele>
  <time>2026-08-28T19:08:25Z</time>
  <course>15.66</course>
  <speed>0.022360679774997897</speed>
  <fix>3d</fix>
</trkpt>
<trkpt lat="40.0738274" lon="-105.2301696">
  <ele>1583.56</ele>
  <time>2026-08-28T19:08:25Z</time>
  <course>274.7</course>
  <speed>0.0</speed>
  <fix>3d</fix>
</trkpt>
<trkpt lat="40.0738275" lon="-105.2301697">
  <ele>1583.65</ele>
  <time>2026-08-28T19:08:25Z</time>
  <course>15.63</course>
  <speed>0.022360679774997897</speed>
  <fix>3d</fix>
</trkpt>
<trkpt lat="40.0738274" lon="-105.2301696">
  <ele>1583.56</ele>
  <time>2026-08-28T19:08:25Z</time>
  <course>275.59</course>
  <speed>0.0</speed>
  <fix>3d</fix>
</trkpt>
<trkpt lat="40.0738275" lon="-105.2301697">
  <ele>1583.65</ele>
  <time>2026-08-28T19:08:25Z</time>
  <course>15.59</course>
  <speed>0.022360679774997897</speed>
  <fix>3d</fix>
</trkpt>
<trkpt lat="40.0738274" lon="-105.2301696">
  <ele>1583.56</ele>
  <time>2026-08-28T19:08:25Z</time>
  <course>273.84</course>
  <speed>0.0</speed>
  <fix>3d</fix>
</trkpt>
<trkpt lat="40.0738275" lon="-105.2301697">
  <ele>1583.65</ele>
  <time>2026-08-28T19:08:25Z</time>
  <course>15.56</course>
  <speed>0.022360679774997897</speed>
  <fix>3d</fix>
</trkpt>
<trkpt lat="40.0738274" lon="-105.2301696">
  <ele>1583.56</ele>
  <time>2026-08-28T19:08:25Z</time>
  <course>274.94</course>
  <speed>0.0</speed>
  <fix>3d</fix>
</trkpt>
<trkpt lat="40.0738275" lon="-105.2301697">
  <ele>1583.66</ele>
  <time>2026-08-28T19:08:25Z</time>
  <course>15.53</course>
  <speed>0.022360679774997897</speed>
  <fix>3d</fix>
</trkpt>
<trkpt lat="40.0738274" lon="-105.2301696">
  <ele>1583.56</ele>
  <time>2026-08-28T19:08:25Z</time>
  <course>275.53</course>
  <speed>0.0</speed>
  <fix>3d</fix>
</trkpt>
<trkpt lat="40.0738275" lon="-105.2301697">
  <ele>1583.65</ele>
  <time>2026-08-28T19:08:25Z</time>
  <course>15.49</course>
  <speed>0.022360679774997897</speed>
  <fix>3d</fix>
</trkpt>
<trkpt lat="40.0738274" lon="-105.2301696">
  <ele>1583.56</ele>
  <time>2026-08-28T19:08:25Z</time>
  <course>272.94</course>
  <speed>0.0</speed>
  <fix>3d</fix>
</trkpt>
<trkpt lat="40.0738275" lon="-105.2301697">
  <ele>1583.65</ele>
  <time>2026-08-28T19:08:25Z</time>
  <course>15.46</course>
  <speed>0.022360679774997897</speed>
  <fix>3d</fix>
</trkpt>
<trkpt lat="40.0738274" lon="-105.2301696">
  <ele>1583.56</ele>
  <time>2026-08-28T19:08:25Z</time>
  <course>274.94</course>
  <speed>0.0</speed>
  <fix>3d</fix>
</trkpt>
<trkpt lat="40.0738275" lon="-105.2301697">
  <ele>1583.65</ele>
  <time>2026-08-28T19:08:25Z</time>
  <course>15.43</course>
  <speed>0.022360679774997897</speed>
  <fix>3d</fix>
</trkpt>
<trkpt lat="40.0738274" lon="-105.2301696">
  <ele>1583.56</ele>
  <time>2026-08-28T19:08:25Z</time>
  <course>275.4</course>
  <speed>0.0</speed>
  <fix>3d</fix>
</trkpt>
<trkpt lat="40.0738275" lon="-105.2301697">
  <ele>1583.65</ele>
  <time>2026-08-28T19:08:25Z</time>
  <course>15.4</course>
  <speed>0.022360679774997897</speed>
  <fix>3d</fix>
</trkpt>
<trkpt lat="40.0738274" lon="-105.2301696">
  <ele>1583.56</ele>
  <time>2026-08-28T19:08:25Z</time>
  <course>272.43</course>
  <speed>0.0</speed>
  <fix>3d</fix>
</trkpt>
<trkpt lat="40.0738275" lon="-105.2301697">
  <ele>1583.64</ele>
  <time>2026-08-28T19:08:25Z</time>
  <course>15.36</course>
  <speed>0.022360679774997897</speed>
  <fix>3d</fix>
</trkpt>
<trkpt lat="40.0738274" lon="-105.2301696">
  <ele>1583.56</ele>
  <time>2026-08-28T19:08:25Z</time>
  <course>274.35</course>
  <speed>0.0</speed>
  <fix>3d</fix>
</trkpt>
<trkpt lat="40.0738275" lon="-105.2301697">
  <ele>1583.64</ele>
  <time>2026-08-28T19:08:25Z</time>
  <course>15.33</course>
  <speed>0.022360679774997897</speed>
  <fix>3d</fix>
</trkpt>
<trkpt lat="40.0738274" lon="-105.2301696">
  <ele>1583.56</ele>
  <time>2026-08-28T19:08:25Z</time>
  <course>275.31</course>
  <speed>0.0</speed>
  <fix>3d</fix>
</trkpt>
<trkpt lat="40.0738275" lon="-105.2301697">
  <ele>1583.64</ele>
  <time>2026-08-28T19:08:25Z</time>
  <course>15.3</course>
  <speed>0.022360679774997897</speed>
  <fix>3d</fix>
</trkpt>
<trkpt lat="40.0738274" lon="-105.2301696">
  <ele>1583.56</ele>
  <time>2026-08-28T19:08:25Z</time>
  <course>273.81</course>
  <speed>0.0</speed>
  <fix>3d</fix>
</trkpt>
<trkpt lat="40.0738275" lon="-105.2301697">
  <ele>1583.64</ele>
  <time>2026-08-28T19:08:25Z</time>
  <course>15.27</course>
  <speed>0.022360679774997897</speed>
  <fix>3d</fix>
</trkpt>
<trkpt lat="40.0738274" lon="-105.2301696">
  <ele>1583.56</ele>
  <time>2026-08-28T19:08:25Z</time>
  <course>273.68</course>
  <speed>0.0</speed>
  <fix>3d</fix>
</trkpt>
<trkpt lat="40.0738275" lon="-105.2301697">
  <ele>1583.64</ele>
  <time>2026-08-28T19:08:25Z</time>
  <course>15.24</course>
  <speed>0.022360679774997897</speed>
  <fix>3d</fix>
</trkpt>
<trkpt lat="40.0738274" lon="-105.2301696">
  <ele>1583.56</ele>
  <time>2026-08-28T19:08:25Z</time>
  <course>275.09</course>
  <speed>0.0</speed>
  <fix>3d</fix>
</trkpt>
<trkpt lat="40.0738275" lon="-105.2301697">
  <ele>1583.65</ele>
  <time>2026-08-28T19:08:25Z</time>
  <course>15.21</course>
  <speed>0.022360679774997897</speed>
  <fix>3d</fix>
</trkpt>
<trkpt lat="40.0738274" lon="-105.2301696">
  <ele>1583.56</ele>
  <time>2026-08-28T19:08:25Z</time>
  <course>274.1</course>
  <speed>0.0</speed>
  <fix>3d</fix>
</trkpt>
<trkpt lat="40.0738275" lon="-105.2301697">
  <ele>1583.65</ele>
  <time>2026-08-28T19:08:25Z</time>
  <course>15.18</course>
  <speed>0.022360679774997897</speed>
  <fix>3d</fix>
</trkpt>
<trkpt lat="40.0738274" lon="-105.2301696">
  <ele>1583.56</ele>
  <time>2026-08-28T19:08:25Z</time>
  <course>269.9</course>
  <speed>0.0</speed>
  <fix>3d</fix>
</trkpt>
<trkpt lat="40.0738275" lon="-105.2301697">
  <ele>1583.65</ele>
  <time>2026-08-28T19:08:25Z</time>
  <course>15.15</course>
  <speed>0.022360679774997897</speed>
  <fix>3d</fix>
</trkpt>
<trkpt lat="40.0738274" lon="-105.2301696">
  <ele>1583.56</ele>
  <time>2026-08-28T19:08:25Z</time>
  <course>274.59</course>
  <speed>0.0</speed>
  <fix>3d</fix>
</trkpt>
<trkpt lat="40.0738275" lon="-105.2301697">
  <ele>1583.64</ele>
  <time>2026-08-28T19:08:25Z</time>
  <course>15.12</course>
  <speed>0.022360679774997897</speed>
  <fix>3d</fix>
</trkpt>
<trkpt lat="40.0738274" lon="-105.2301696">
  <ele>1583.56</ele>
  <time>2026-08-28T19:08:25Z</time>
  <course>274.6</course>
  <speed>0.0</speed>
  <fix>3d</fix>
</trkpt>
<trkpt lat="40.0738275" lon="-105.2301697">
  <ele>1583.64</ele>
  <time>2026-08-28T19:08:25Z</time>
  <course>15.09</course>
  <speed>0.022360679774997897</speed>
  <fix>3d</fix>
</trkpt>
<trkpt lat="40.0738274" lon="-105.2301696">
  <ele>1583.56</ele>
  <time>2026-08-28T19:08:25Z</time>
  <course>270.6</course>
  <speed>0.0</speed>
  <fix>3d</fix>
</trkpt>
<trkpt lat="40.0738275" lon="-105.2301697">
  <ele>1583.64</ele>
  <time>2026-08-28T19:08:25Z</time>
  <course>15.06</course>
  <speed>0.022360679774997897</speed>
  <fix>3d</fix>
</trkpt>
<trkpt lat="40.0738274" lon="-105.2301696">
  <ele>1583.56</ele>
  <time>2026-08-28T19:08:25Z</time>
  <course>274.68</course>
  <speed>0.0</speed>
  <fix>3d</fix>
</trkpt>
<trkpt lat="40.0738275" lon="-105.2301697">
  <ele>1583.64</ele>
  <time>2026-08-28T19:08:25Z</time>
  <course>15.04</course>
  <speed>0.022360679774997897</speed>
  <fix>3d</fix>
</trkpt>
<trkpt lat="40.0738274" lon="-105.2301696">
  <ele>1583.56</ele>
  <time>2026-08-28T19:08:25Z</time>
  <course>274.94</course>
  <speed>0.0</speed>
  <fix>3d</fix>
</trkpt>
<trkpt lat="40.0738275" lon="-105.2301697">
  <ele>1583.64</ele>
  <time>2026-08-28T19:08:25Z</time>
  <course>15.01</course>
  <speed>0.022360679774997897</speed>
  <fix>3d</fix>
</trkpt>
<trkpt lat="40.0738274" lon="-105.2301696">
  <ele>1583.56</ele>
  <time>2026-08-28T19:08:25Z</time>
  <course>272.09</course>
  <speed>0.0</speed>
  <fix>3d</fix>
</trkpt>
<trkpt lat="40.0738275" lon="-105.2301697">
  <ele>1583.65</ele>
  <time>2026-08-28T19:08:25Z</time>
  <course>14.98</course>
  <speed>0.022360679774997897</speed>
  <fix>3d</fix>
</trkpt>
<trkpt lat="40.0738274" lon="-105.2301696">
  <ele>1583.56</ele>
  <time>2026-08-28T19:08:25Z</time>
  <course>270.95</course>
  <speed>0.0</speed>
  <fix>3d</fix>
</trkpt>
<trkpt lat="40.0738275" lon="-105.2301697">
  <ele>1583.65</ele>
  <time>2026-08-28T19:08:25Z</time>
  <course>14.95</course>
  <speed>0.022360679774997897</speed>
  <fix>3d</fix>
</trkpt>
<trkpt lat="40.0738274" lon="-105.2301696">
  <ele>1583.56</ele>
  <time>2026-08-28T19:08:25Z</time>
  <course>274.57</course>
  <speed>0.0</speed>
  <fix>3d</fix>
</trkpt>
<trkpt lat="40.0738275" lon="-105.2301697">
  <ele>1583.65</ele>
  <time>2026-08-28T19:08:25Z</time>
  <course>14.92</course>
  <speed>0.022360679774997897</speed>
  <fix>3d</fix>
</trkpt>
<trkpt lat="40.0738274" lon="-105.2301696">
  <ele>1583.56</ele>
  <time>2026-08-28T19:08:25Z</time>
  <course>274.52</course>
  <speed>0.0</speed>
  <fix>3d</fix>
</trkpt>
<trkpt lat="40.0738275" lon="-105.2301697">
  <ele>1583.66</ele>
  <time>2026-08-28T19:08:25Z</time>
  <course>14.9</course>
  <speed>0.022360679774997897</speed>
  <fix>3d</fix>
</trkpt>
<trkpt lat="40.0738274" lon="-105.2301696">
  <ele>1583.56</ele>
  <time>2026-08-28T19:08:25Z</time>
  <course>271.11</course>
  <speed>0.0</speed>
  <fix>3d</fix>
</trkpt>
<trkpt lat="40.0738275" lon="-105.2301697">
  <ele>1583.66</ele>
  <time>2026-08-28T19:08:25Z</time>
  <course>14.87</course>
  <speed>0.022360679774997897</speed>
  <fix>3d</fix>
</trkpt>
<trkpt lat="40.0738274" lon="-105.2301696">
  <ele>1583.56</ele>
  <time>2026-08-28T19:08:25Z</time>
  <course>274.38</course>
  <speed>0.0</speed>
  <fix>3d</fix>
</trkpt>
<trkpt lat="40.0738275" lon="-105.2301697">
  <ele>1583.65</ele>
  <time>2026-08-28T19:08:25Z</time>
  <course>14.84</course>
  <speed>0.022360679774997897</speed>
  <fix>3d</fix>
</trkpt>
<trkpt lat="40.0738274" lon="-105.2301696">
  <ele>1583.56</ele>
  <time>2026-08-28T19:08:25Z</time>
  <course>274.84</course>
  <speed>0.0</speed>
  <fix>3d</fix>
</trkpt>
<trkpt lat="40.0738275" lon="-105.2301697">
  <ele>1583.65</ele>
  <time>2026-08-28T19:08:25Z</time>
  <course>14.82</course>
  <speed>0.022360679774997897</speed>
  <fix>3d</fix>
</trkpt>
<trkpt lat="40.0738274" lon="-105.2301696">
  <ele>1583.56</ele>
  <time>2026-08-28T19:08:25Z</time>
  <course>273.09</course>
  <speed>0.0</speed>
  <fix>3d</fix>
</trkpt>
<trkpt lat="40.0738275" lon="-105.2301697">
  <ele>1583.65</ele>
  <time>2026-08-28T19:08:25Z</time>
  <course>14.79</course>
  <speed>0.022360679774997897</speed>
  <fix>3d</fix>
</trkpt>
<trkpt lat="40.0738274" lon="-105.2301696">
  <ele>1583.56</ele>
  <time>2026-08-28T19:08:25Z</time>
  <course>270.89</course>
  <speed>0.0</speed>
  <fix>3d</fix>
</trkpt>
<trkpt lat="40.0738275" lon="-105.2301697">
  <ele>1583.65</ele>
  <time>2026-08-28T19:08:25Z</time>
  <course>14.77</course>
  <speed>0.022360679774997897</speed>
  <fix>3d</fix>
</trkpt>
<trkpt lat="40.0738274" lon="-105.2301696">
  <ele>1583.56</ele>
  <time>2026-08-28T19:08:25Z</time>
  <course>274.48</course>
  <speed>0.0</speed>
  <fix>3d</fix>
</trkpt>
<trkpt lat="40.0738275" lon="-105.2301697">
  <ele>1583.65</ele>
  <time>2026-08-28T19:08:25Z</time>
  <course>14.74</course>
  <speed>0.022360679774997897</speed>
  <fix>3d</fix>
</trkpt>
<trkpt lat="40.0738274" lon="-105.2301696">
  <ele>1583.56</ele>
  <time>2026-08-28T19:08:25Z</time>
  <course>274.58</course>
  <speed>0.0</speed>
  <fix>3d</fix>
</trkpt>
<trkpt lat="40.0738275" lon="-105.2301697">
  <ele>1583.65</ele>
  <time>2026-08-28T19:08:25Z</time>
  <course>14.71</course>
  <speed>0.022360679774997897</speed>
  <fix>3d</fix>
</trkpt>
<trkpt lat="40.0738274" lon="-105.2301696">
  <ele>1583.56</ele>
  <time>2026-08-28T19:08:25Z</time>
  <course>271.94</course>
  <speed>0.0</speed>
  <fix>3d</fix>
</trkpt>
<trkpt lat="40.0738275" lon="-105.2301697">
  <ele>1583.65</ele>
  <time>2026-08-28T19:08:25Z</time>
  <course>14.69</course>
  <speed>0.022360679774997897</speed>
  <fix>3d</fix>
</trkpt>
<trkpt lat="40.0738274" lon="-105.2301696">
  <ele>1583.56</ele>
  <time>2026-08-28T19:08:25Z</time>
  <course>271.47</course>
  <speed>0.0</speed>
  <fix>3d</fix>
</trkpt>
<trkpt lat="40.0738275" lon="-105.2301697">
  <ele>1583.65</ele>
  <time>2026-08-28T19:08:25Z</time>
  <course>14.67</course>
  <speed>0.022360679774997897</speed>
  <fix>3d</fix>
</trkpt>
<trkpt lat="40.0738274" lon="-105.2301696">
  <ele>1583.56</ele>
  <time>2026-08-28T19:08:25Z</time>
  <course>274.32</course>
  <speed>0.0</speed>
  <fix>3d</fix>
</trkpt>
<trkpt lat="40.0738275" lon="-105.2301697">
  <ele>1583.66</ele>
  <time>2026-08-28T19:08:25Z</time>
  <course>14.64</course>
  <speed>0.022360679774997897</speed>
  <fix>3d</fix>
</trkpt>
<trkpt lat="40.0738274" lon="-105.2301696">
  <ele>1583.56</ele>
  <time>2026-08-28T19:08:25Z</time>
  <course>274.28</course>
  <speed>0.0</speed>
  <fix>3d</fix>
</trkpt>
<trkpt lat="40.0738275" lon="-105.2301697">
  <ele>1583.66</ele>
  <time>2026-08-28T19:08:25Z</time>
  <course>14.62</course>
  <speed>0.022360679774997897</speed>
  <fix>3d</fix>
</trkpt>
<trkpt lat="40.0738274" lon="-105.2301696">
  <ele>1583.56</ele>
  <time>2026-08-28T19:08:25Z</time>
  <course>271.5</course>
  <speed>0.0</speed>
  <fix>3d</fix>
</trkpt>
<trkpt lat="40.0738275" lon="-105.2301697">
  <ele>1583.66</ele>
  <time>2026-08-28T19:08:25Z</time>
  <course>14.59</course>
  <speed>0.022360679774997897</speed>
  <fix>3d</fix>
</trkpt>
<trkpt lat="40.0738274" lon="-105.2301696">
  <ele>1583.56</ele>
  <time>2026-08-28T19:08:25Z</time>
  <course>271.8</course>
  <speed>0.0</speed>
  <fix>3d</fix>
</trkpt>
<trkpt lat="40.0738275" lon="-105.2301697">
  <ele>1583.66</ele>
  <time>2026-08-28T19:08:25Z</time>
  <course>14.57</course>
  <speed>0.022360679774997897</speed>
  <fix>3d</fix>
</trkpt>
<trkpt lat="40.0738274" lon="-105.2301696">
  <ele>1583.56</ele>
  <time>2026-08-28T19:08:25Z</time>
  <course>274.33</course>
  <speed>0.0</speed>
  <fix>3d</fix>
</trkpt>
<trkpt lat="40.0738275" lon="-105.2301697">
  <ele>1583.66</ele>
  <time>2026-08-28T19:08:25Z</time>
  <course>14.55</course>
  <speed>0.022360679774997897</speed>
  <fix>3d</fix>
</trkpt>
<trkpt lat="40.0738274" lon="-105.2301696">
  <ele>1583.56</ele>
  <time>2026-08-28T19:08:25Z</time>
  <course>274.48</course>
  <speed>0.0</speed>
  <fix>3d</fix>
</trkpt>
<trkpt lat="40.0738275" lon="-105.2301697">
  <ele>1583.66</ele>
  <time>2026-08-28T19:08:25Z</time>
  <course>14.52</course>
  <speed>0.022360679774997897</speed>
  <fix>3d</fix>
</trkpt>
<trkpt lat="40.0738274" lon="-105.2301696">
  <ele>1583.56</ele>
  <time>2026-08-28T19:08:25Z</time>
  <course>272.57</course>
  <speed>0.0</speed>
  <fix>3d</fix>
</trkpt>
<trkpt lat="40.0738275" lon="-105.2301697">
  <ele>1583.66</ele>
  <time>2026-08-28T19:08:25Z</time>
  <course>14.5</course>
  <speed>0.022360679774997897</speed>
  <fix>3d</fix>
</trkpt>
<trkpt lat="40.0738274" lon="-105.2301696">
  <ele>1583.56</ele>
  <time>2026-08-28T19:08:25Z</time>
  <course>271.44</course>
  <speed>0.0</speed>
  <fix>3d</fix>
</trkpt>
<trkpt lat="40.0738275" lon="-105.2301697">
  <ele>1583.66</ele>
  <time>2026-08-28T19:08:25Z</time>
  <course>14.48</course>
  <speed>0.022360679774997897</speed>
  <fix>3d</fix>
</trkpt>
<trkpt lat="40.0738274" lon="-105.2301696">
  <ele>1583.56</ele>
  <time>2026-08-28T19:08:25Z</time>
  <course>274.11</course>
  <speed>0.0</speed>
  <fix>3d</fix>
</trkpt>
<trkpt lat="40.0738275" lon="-105.2301697">
  <ele>1583.65</ele>
  <time>2026-08-28T19:08:25Z</time>
  <course>14.45</course>
  <speed>0.022360679774997897</speed>
  <fix>3d</fix>
</trkpt>
<trkpt lat="40.0738274" lon="-105.2301696">
  <ele>1583.56</ele>
  <time>2026-08-28T19:08:25Z</time>
  <course>274.43</course>
  <speed>0.0</speed>
  <fix>3d</fix>
</trkpt>
<trkpt lat="40.0738275" lon="-105.2301697">
  <ele>1583.65</ele>
  <time>2026-08-28T19:08:25Z</time>
  <course>14.43</course>
  <speed>0.022360679774997897</speed>
  <fix>3d</fix>
</trkpt>
<trkpt lat="40.0738274" lon="-105.2301696">
  <ele>1583.56</ele>
  <time>2026-08-28T19:08:25Z</time>
  <course>273.06</course>
  <speed>0.0</speed>
  <fix>3d</fix>
</trkpt>
<trkpt lat="40.0738275" lon="-105.2301697">
  <ele>1583.65</ele>
  <time>2026-08-28T19:08:25Z</time>
  <course>14.41</course>
  <speed>0.022360679774997897</speed>
  <fix>3d</fix>
</trkpt>
<trkpt lat="40.0738274" lon="-105.2301696">
  <ele>1583.56</ele>
  <time>2026-08-28T19:08:25Z</time>
  <course>271.39</course>
  <speed>0.0</speed>
  <fix>3d</fix>
</trkpt>
<trkpt lat="40.0738275" lon="-105.2301697">
  <ele>1583.65</ele>
  <time>2026-08-28T19:08:25Z</time>
  <course>14.39</course>
  <speed>0.022360679774997897</speed>
  <fix>3d</fix>
</trkpt>
<trkpt lat="40.0738274" lon="-105.2301696">
  <ele>1583.56</ele>
  <time>2026-08-28T19:08:25Z</time>
  <course>269.99</course>
  <speed>0.0</speed>
  <fix>3d</fix>
</trkpt>
<trkpt lat="40.0738275" lon="-105.2301697">
  <ele>1583.65</ele>
  <time>2026-08-28T19:08:25Z</time>
  <course>14.37</course>
  <speed>0.022360679774997897</speed>
  <fix>3d</fix>
</trkpt>
<trkpt lat="40.0738274" lon="-105.2301696">
  <ele>1583.56</ele>
  <time>2026-08-28T19:08:25Z</time>
  <course>265.54</course>
  <speed>0.0</speed>
  <fix>3d</fix>
</trkpt>
<trkpt lat="40.0738275" lon="-105.2301697">
  <ele>1583.65</ele>
  <time>2026-08-28T19:08:25Z</time>
  <course>14.36</course>
  <speed>0.022360679774997897</speed>
  <fix>3d</fix>
</trkpt>
<trkpt lat="40.0738274" lon="-105.2301696">
  <ele>1583.56</ele>
  <time>2026-08-28T19:08:25Z</time>
  <course>265.42</course>
  <speed>0.0</speed>
  <fix>3d</fix>
</trkpt>
<trkpt lat="40.0738275" lon="-105.2301697">
  <ele>1583.65</ele>
  <time>2026-08-28T19:08:25Z</time>
  <course>14.35</course>
  <speed>0.022360679774997897</speed>
  <fix>3d</fix>
</trkpt>
<trkpt lat="40.0738274" lon="-105.2301696">
  <ele>1583.56</ele>
  <time>2026-08-28T19:08:25Z</time>
  <course>270.58</course>
  <speed>0.0</speed>
  <fix>3d</fix>
</trkpt>
<trkpt lat="40.0738275" lon="-105.2301697">
  <ele>1583.66</ele>
  <time>2026-08-28T19:08:25Z</time>
  <course>14.34</course>
  <speed>0.022360679774997897</speed>
  <fix>3d</fix>
</trkpt>
<trkpt lat="40.0738275" lon="-105.2301697">
  <ele>1583.66</ele>
  <time>2026-08-28T19:08:25Z</time>
  <course>14.32</course>
  <speed>0.022360679774997897</speed>
  <fix>3d</fix>
</trkpt>
<trkpt lat="40.0738274" lon="-105.2301696">
  <ele>1583.56</ele>
  <time>2026-08-28T19:08:25Z</time>
  <course>270.63</course>
  <speed>0.0</speed>
  <fix>3d</fix>
</trkpt>
<trkpt lat="40.0738275" lon="-105.2301697">
  <ele>1583.66</ele>
  <time>2026-08-28T19:08:25Z</time>
  <course>14.32</course>
  <speed>0.022360679774997897</speed>
  <fix>3d</fix>
</trkpt>
<trkpt lat="40.0738275" lon="-105.2301697">
  <ele>1583.66</ele>
  <time>2026-08-28T19:08:25Z</time>
  <course>14.29</course>
  <speed>0.022360679774997897</speed>
  <fix>3d</fix>
</trkpt>
<trkpt lat="40.0738274" lon="-105.2301696">
  <ele>1583.56</ele>
  <time>2026-08-28T19:08:25Z</time>
  <course>270.23</course>
  <speed>0.0</speed>
  <fix>3d</fix>
</trkpt>
<trkpt lat="40.0738275" lon="-105.2301697">
  <ele>1583.66</ele>
  <time>2026-08-28T19:08:25Z</time>
  <course>14.28</course>
  <speed>0.022360679774997897</speed>
  <fix>3d</fix>
</trkpt>
<trkpt lat="40.0738275" lon="-105.2301697">
  <ele>1583.68</ele>
  <time>2026-08-28T19:08:25Z</time>
  <course>14.23</course>
  <speed>0.022360679774997897</speed>
  <fix>3d</fix>
</trkpt>
<trkpt lat="40.0738274" lon="-105.2301696">
  <ele>1583.56</ele>
  <time>2026-08-28T19:08:25Z</time>
  <course>270.51</course>
  <speed>0.0</speed>
  <fix>3d</fix>
</trkpt>
<trkpt lat="40.0738275" lon="-105.2301697">
  <ele>1583.68</ele>
  <time>2026-08-28T19:08:25Z</time>
  <course>14.22</course>
  <speed>0.022360679774997897</speed>
  <fix>3d</fix>
</trkpt>
<trkpt lat="40.0738275" lon="-105.2301697">
  <ele>1583.74</ele>
  <time>2026-08-28T19:08:25Z</time>
  <course>14.15</course>
  <speed>0.022360679774997897</speed>
  <fix>3d</fix>
</trkpt>
<trkpt lat="40.0738274" lon="-105.2301696">
  <ele>1583.59</ele>
  <time>2026-08-28T19:08:25Z</time>
  <course>262.15</course>
  <speed>0.0</speed>
  <fix>3d</fix>
</trkpt>
<trkpt lat="40.0738275" lon="-105.2301697">
  <ele>1583.75</ele>
  <time>2026-08-28T19:08:25Z</time>
  <course>14.14</course>
  <speed>0.022360679774997897</speed>
  <fix>3d</fix>
</trkpt>
<trkpt lat="40.0738275" lon="-105.2301697">
  <ele>1583.84</ele>
  <time>2026-08-28T19:08:25Z</time>
  <course>10.87</course>
  <speed>0.03605551275463989</speed>
  <fix>3d</fix>
</trkpt>
<trkpt lat="40.0738274" lon="-105.2301696">
  <ele>1583.65</ele>
  <time>2026-08-28T19:08:25Z</time>
  <course>268.35</course>
  <speed>0.0</speed>
  <fix>3d</fix>
</trkpt>
<trkpt lat="40.0738275" lon="-105.2301697">
  <ele>1583.84</ele>
  <time>2026-08-28T19:08:25Z</time>
  <course>10.73</course>
  <speed>0.03605551275463989</speed>
  <fix>3d</fix>
</trkpt>
<trkpt lat="40.0738275" lon="-105.2301699">
  <ele>1584.16</ele>
  <time>2026-08-28T19:08:25Z</time>
  <course>5.32</course>
  <speed>0.2109502310972899</speed>
  <fix>3d</fix>
</trkpt>
<trkpt lat="40.0738273" lon="-105.2301696">
  <ele>1583.83</ele>
  <time>2026-08-28T19:08:25Z</time>
  <course>262.31</course>
  <speed>0.08</speed>
  <fix>3d</fix>
</trkpt>
<trkpt lat="40.0738275" lon="-105.23017">
  <ele>1584.22</ele>
  <time>2026-08-28T19:08:25Z</time>
  <course>5.23</course>
  <speed>0.22090722034374521</speed>
  <fix>3d</fix>
</trkpt>
<trkpt lat="40.0738275" lon="-105.2301705">
  <ele>1584.54</ele>
  <time>2026-08-28T19:08:25Z</time>
  <course>4.39</course>
  <speed>0.2601922366251538</speed>
  <fix>3d</fix>
</trkpt>
<trkpt lat="40.0738273" lon="-105.2301699">
  <ele>1584.15</ele>
  <time>2026-08-28T19:08:25Z</time>
  <course>258.13</course>
  <speed>0.2</speed>
  <fix>3d</fix>
</trkpt>
<trkpt lat="40.0738275" lon="-105.2301705">
  <ele>1584.55</ele>
  <time>2026-08-28T19:08:25Z</time>
  <course>4.37</course>
  <speed>0.2601922366251538</speed>
  <fix>3d</fix>
</trkpt>
<trkpt lat="40.0738274" lon="-105.2301711">
  <ele>1584.94</ele>
  <time>2026-08-28T19:08:25Z</time>
  <course>2.72</course>
  <speed>0.2692582403567252</speed>
  <fix>3d</fix>
</trkpt>
<trkpt lat="40.0738271" lon="-105.2301704">
  <ele>1584.54</ele>
  <time>2026-08-28T19:08:25Z</time>
  <course>249.26</course>
  <speed>0.26</speed>
  <fix>3d</fix>
</trkpt>
<trkpt lat="40.0738274" lon="-105.2301712">
  <ele>1585.0</ele>
  <time>2026-08-28T19:08:25Z</time>
  <course>2.5</course>
  <speed>0.26248809496813374</speed>
  <fix>3d</fix>
</trkpt>
<trkpt lat="40.0738271" lon="-105.2301716">
  <ele>1585.38</ele>
  <time>2026-08-28T19:08:25Z</time>
  <course>1.56</course>
  <speed>0.24698178070456936</speed>
  <fix>3d</fix>
</trkpt>
<trkpt lat="40.0738269" lon="-105.230171">
  <ele>1584.94</ele>
  <time>2026-08-28T19:08:25Z</time>
  <course>236.52</course>
  <speed>0.27</speed>
  <fix>3d</fix>
</trkpt>
<trkpt lat="40.0738271" lon="-105.2301716">
  <ele>1585.44</ele>
  <time>2026-08-28T19:08:25Z</time>
  <course>1.47</course>
  <speed>0.24413111231467405</speed>
  <fix>3d</fix>
</trkpt>
<trkpt lat="40.0738267" lon="-105.2301719">
  <ele>1585.85</ele>
  <time>2026-08-28T19:08:25Z</time>
  <course>1.06</course>
  <speed>0.22022715545545238</speed>
  <fix>3d</fix>
</trkpt>
<trkpt lat="40.0738266" lon="-105.2301715">
  <ele>1585.37</ele>
  <time>2026-08-28T19:08:25Z</time>
  <course>221.46</course>
  <speed>0.25</speed>
  <fix>3d</fix>
</trkpt>
<trkpt lat="40.0738267" lon="-105.230172">
  <ele>1585.92</ele>
  <time>2026-08-28T19:08:25Z</time>
  <course>1.02</course>
  <speed>0.2220360331117452</speed>
  <fix>3d</fix>
</trkpt>
<trkpt lat="40.0738263" lon="-105.2301721">
  <ele>1586.32</ele>
  <time>2026-08-28T19:08:25Z</time>
  <course>0.88</course>
  <speed>0.19924858845171275</speed>
  <fix>3d</fix>
</trkpt>
<trkpt lat="40.0738262" lon="-105.2301717">
  <ele>1585.83</ele>
  <time>2026-08-28T19:08:25Z</time>
  <course>204.33</course>
  <speed>0.23</speed>
  <fix>3d</fix>
</trkpt>
<trkpt lat="40.0738263" lon="-105.2301721">
  <ele>1586.33</ele>
  <time>2026-08-28T19:08:25Z</time>
  <course>0.88</course>
  <speed>0.19924858845171275</speed>
  <fix>3d</fix>
</trkpt>
<trkpt lat="40.0738259" lon="-105.2301721">
  <ele>1586.81</ele>
  <time>2026-08-28T19:08:25Z</time>
  <course>0.39</course>
  <speed>0.19</speed>
  <fix>3d</fix>
</trkpt>
<trkpt lat="40.0738259" lon="-105.2301719">
  <ele>1586.31</ele>
  <time>2026-08-28T19:08:25Z</time>
  <course>186.68</course>
  <speed>0.2</speed>
  <fix>3d</fix>
</trkpt>
<trkpt lat="40.0738259" lon="-105.2301721">
  <ele>1586.87</ele>
  <time>2026-08-28T19:08:25Z</time>
  <course>359.81</course>
  <speed>0.19</speed>
  <fix>3d</fix>
</trkpt>
<trkpt lat="40.0738255" lon="-105.2301721">
  <ele>1587.29</ele>
  <time>2026-08-28T19:08:25Z</time>
  <course>357.17</course>
  <speed>0.18439088914585774</speed>
  <fix>3d</fix>
</trkpt>
<trkpt lat="40.0738255" lon="-105.2301719">
  <ele>1586.79</ele>
  <time>2026-08-28T19:08:25Z</time>
  <course>170.29</course>
  <speed>0.18</speed>
  <fix>3d</fix>
</trkpt>
<trkpt lat="40.0738255" lon="-105.2301721">
  <ele>1587.3</ele>
  <time>2026-08-28T19:08:25Z</time>
  <course>357.16</course>
  <speed>0.18439088914585774</speed>
  <fix>3d</fix>
</trkpt>
<trkpt lat="40.0738252" lon="-105.2301719">
  <ele>1587.79</ele>
  <time>2026-08-28T19:08:25Z</time>
  <course>358.32</course>
  <speed>0.17492855684535902</speed>
  <fix>3d</fix>
</trkpt>
<trkpt lat="40.0738252" lon="-105.2301717">
  <ele>1587.27</ele>
  <time>2026-08-28T19:08:25Z</time>
  <course>151.14</course>
  <speed>0.16</speed>
  <fix>3d</fix>
</trkpt>
<trkpt lat="40.0738251" lon="-105.2301719">
  <ele>1587.86</ele>
  <time>2026-08-28T19:08:25Z</time>
  <course>358.58</course>
  <speed>0.17204650534085253</speed>
  <fix>3d</fix>
</trkpt>
<trkpt lat="40.073825" lon="-105.2301716">
  <ele>1588.29</ele>
  <time>2026-08-28T19:08:25Z</time>
  <course>0.04</course>
  <speed>0.16124515496597097</speed>
  <fix>3d</fix>
</trkpt>
<trkpt lat="40.073825" lon="-105.2301716">
  <ele>1587.77</ele>
  <time>2026-08-28T19:08:25Z</time>
  <course>122.55</course>
  <speed>0.14</speed>
  <fix>3d</fix>
</trkpt>
<trkpt lat="40.073825" lon="-105.2301716">
  <ele>1588.3</ele>
  <time>2026-08-28T19:08:25Z</time>
  <course>0.06</course>
  <speed>0.16124515496597097</speed>
  <fix>3d</fix>
</trkpt>
<trkpt lat="40.0738249" lon="-105.2301712">
  <ele>1588.79</ele>
  <time>2026-08-28T19:08:25Z</time>
  <course>1.3</course>
  <speed>0.17</speed>
  <fix>3d</fix>
</trkpt>
<trkpt lat="40.073825" lon="-105.2301713">
  <ele>1588.26</ele>
  <time>2026-08-28T19:08:25Z</time>
  <course>90.96</course>
  <speed>0.15</speed>
  <fix>3d</fix>
</trkpt>
<trkpt lat="40.0738249" lon="-105.2301711">
  <ele>1588.86</ele>
  <time>2026-08-28T19:08:25Z</time>
  <course>1.45</course>
  <speed>0.17</speed>
  <fix>3d</fix>
</trkpt>
<trkpt lat="40.0738251" lon="-105.2301707">
  <ele>1589.3</ele>
  <time>2026-08-28T19:08:25Z</time>
  <course>2.31</course>
  <speed>0.18027756377319945</speed>
  <fix>3d</fix>
</trkpt>
<trkpt lat="40.073825" lon="-105.230171">
  <ele>1588.76</ele>
  <time>2026-08-28T19:08:25Z</time>
  <course>67.48</course>
  <speed>0.19</speed>
  <fix>3d</fix>
</trkpt>
<trkpt lat="40.0738251" lon="-105.2301707">
  <ele>1589.37</ele>
  <time>2026-08-28T19:08:25Z</time>
  <course>2.45</course>
  <speed>0.18384776310850234</speed>
  <fix>3d</fix>
</trkpt>
<trkpt lat="40.0738253" lon="-105.2301703">
  <ele>1589.8</ele>
  <time>2026-08-28T19:08:25Z</time>
  <course>3.2</course>
  <speed>0.2</speed>
  <fix>3d</fix>
</trkpt>
<trkpt lat="40.0738252" lon="-105.2301705">
  <ele>1589.26</ele>
  <time>2026-08-28T19:08:25Z</time>
  <course>51.58</course>
  <speed>0.22</speed>
  <fix>3d</fix>
</trkpt>
<trkpt lat="40.0738253" lon="-105.2301703">
  <ele>1589.81</ele>
  <time>2026-08-28T19:08:25Z</time>
  <course>3.22</course>
  <speed>0.20615528128088303</speed>
  <fix>3d</fix>
</trkpt>
<trkpt lat="40.0738256" lon="-105.23017">
  <ele>1590.3</ele>
  <time>2026-08-28T19:08:25Z</time>
  <course>3.97</course>
  <speed>0.20615528128088303</speed>
  <fix>3d</fix>
</trkpt>
<trkpt lat="40.0738254" lon="-105.2301702">
  <ele>1589.75</ele>
  <time>2026-08-28T19:08:25Z</time>
  <course>40.09</course>
  <speed>0.23</speed>
  <fix>3d</fix>
</trkpt>
<trkpt lat="40.0738256" lon="-105.2301699">
  <ele>1590.37</ele>
  <time>2026-08-28T19:08:25Z</time>
  <course>4.07</course>
  <speed>0.21400934559032694</speed>
  <fix>3d</fix>
</trkpt>
<trkpt lat="40.073826" lon="-105.2301697">
  <ele>1590.8</ele>
  <time>2026-08-28T19:08:25Z</time>
  <course>4.66</course>
  <speed>0.21470910553583888</speed>
  <fix>3d</fix>
</trkpt>
<trkpt lat="40.0738257" lon="-105.2301698">
  <ele>1590.25</ele>
  <time>2026-08-28T19:08:25Z</time>
  <course>31.22</course>
  <speed>0.24</speed>
  <fix>3d</fix>
</trkpt>
<trkpt lat="40.073826" lon="-105.2301697">
  <ele>1590.8</ele>
  <time>2026-08-28T19:08:25Z</time>
  <course>4.66</course>
  <speed>0.21470910553583888</speed>
  <fix>3d</fix>
</trkpt>
<trkpt lat="40.0738264" lon="-105.2301695">
  <ele>1591.3</ele>
  <time>2026-08-28T19:08:25Z</time>
  <course>5.26</course>
  <speed>0.20248456731316586</speed>
  <fix>3d</fix>
</trkpt>
<trkpt lat="40.0738262" lon="-105.2301695">
  <ele>1590.74</ele>
  <time>2026-08-28T19:08:25Z</time>
  <course>24.17</course>
  <speed>0.24</speed>
  <fix>3d</fix>
</trkpt>
<trkpt lat="40.0738264" lon="-105.2301694">
  <ele>1591.37</ele>
  <time>2026-08-28T19:08:25Z</time>
  <course>5.34</course>
  <speed>0.20248456731316586</speed>
  <fix>3d</fix>
</trkpt>
<trkpt lat="40.0738268" lon="-105.2301693">
  <ele>1591.8</ele>
  <time>2026-08-28T19:08:25Z</time>
  <course>5.8</course>
  <speed>0.196468827043885</speed>
  <fix>3d</fix>
</trkpt>
<trkpt lat="40.0738266" lon="-105.2301694">
  <ele>1591.24</ele>
  <time>2026-08-28T19:08:25Z</time>
  <course>18.49</course>
  <speed>0.23</speed>
  <fix>3d</fix>
</trkpt>
<trkpt lat="40.0738268" lon="-105.2301693">
  <ele>1591.87</ele>
  <time>2026-08-28T19:08:25Z</time>
  <course>5.88</course>
  <speed>0.196468827043885</speed>
  <fix>3d</fix>
</trkpt>
<trkpt lat="40.0738272" lon="-105.2301692">
  <ele>1592.3</ele>
  <time>2026-08-28T19:08:25Z</time>
  <course>6.28</course>
  <speed>0.19235384061671343</speed>
  <fix>3d</fix>
</trkpt>
<trkpt lat="40.0738269" lon="-105.2301692">
  <ele>1591.73</ele>
  <time>2026-08-28T19:08:25Z</time>
  <course>13.77</course>
  <speed>0.21</speed>
  <fix>3d</fix>
</trkpt>
<trkpt lat="40.0738272" lon="-105.2301692">
  <ele>1592.37</ele>
  <time>2026-08-28T19:08:25Z</time>
  <course>6.34</course>
  <speed>0.19235384061671343</speed>
  <fix>3d</fix>
</trkpt>
<trkpt lat="40.0738275" lon="-105.2301691">
  <ele>1592.8</ele>
  <time>2026-08-28T19:08:25Z</time>
  <course>6.72</course>
  <speed>0.17029386365926402</speed>
  <fix>3d</fix>
</trkpt>
<trkpt lat="40.0738273" lon="-105.2301691">
  <ele>1592.23</ele>
  <time>2026-08-28T19:08:25Z</time>
  <course>9.54</course>
  <speed>0.2</speed>
  <fix>3d</fix>
</trkpt>
<trkpt lat="40.0738276" lon="-105.2301691">
  <ele>1592.86</ele>
  <time>2026-08-28T19:08:25Z</time>
  <course>6.78</course>
  <speed>0.17029386365926402</speed>
  <fix>3d</fix>
</trkpt>
<trkpt lat="40.0738278" lon="-105.2301691">
  <ele>1593.3</ele>
  <time>2026-08-28T19:08:25Z</time>
  <course>7.16</course>
  <speed>0.16</speed>
  <fix>3d</fix>
</trkpt>
<trkpt lat="40.0738276" lon="-105.2301691">
  <ele>1592.72</ele>
  <time>2026-08-28T19:08:25Z</time>
  <course>5.33</course>
  <speed>0.18</speed>
  <fix>3d</fix>
</trkpt>
<trkpt lat="40.0738278" lon="-105.2301691">
  <ele>1593.31</ele>
  <time>2026-08-28T19:08:25Z</time>
  <course>7.18</course>
  <speed>0.16</speed>
  <fix>3d</fix>
</trkpt>
<trkpt lat="40.0738281" lon="-105.2301691">
  <ele>1593.8</ele>
  <time>2026-08-28T19:08:25Z</time>
  <course>7.55</course>
  <speed>0.130384048104053</speed>
  <fix>3d</fix>
</trkpt>
<trkpt lat="40.0738279" lon="-105.230169">
  <ele>1593.21</ele>
  <time>2026-08-28T19:08:25Z</time>
  <course>1.11</course>
  <speed>0.15</speed>
  <fix>3d</fix>
</trkpt>
<trkpt lat="40.0738281" lon="-105.2301691">
  <ele>1593.87</ele>
  <time>2026-08-28T19:08:25Z</time>
  <course>7.61</course>
  <speed>0.13152946437965907</speed>
  <fix>3d</fix>
</trkpt>
<trkpt lat="40.0738283" lon="-105.2301692">
  <ele>1594.29</ele>
  <time>2026-08-28T19:08:25Z</time>
  <course>7.9</course>
  <speed>0.1118033988749895</speed>
  <fix>3d</fix>
</trkpt>
<trkpt lat="40.0738281" lon="-105.230169">
  <ele>1593.71</ele>
  <time>2026-08-28T19:08:25Z</time>
  <course>356.74</course>
  <speed>0.13</speed>
  <fix>3d</fix>
</trkpt>
<trkpt lat="40.0738283" lon="-105.2301692">
  <ele>1594.37</ele>
  <time>2026-08-28T19:08:25Z</time>
  <course>7.95</course>
  <speed>0.1044030650891055</speed>
  <fix>3d</fix>
</trkpt>
<trkpt lat="40.0738285" lon="-105.2301692">
  <ele>1594.79</ele>
  <time>2026-08-28T19:08:25Z</time>
  <course>8.24</course>
  <speed>0.0854400374531753</speed>
  <fix>3d</fix>
</trkpt>
<trkpt lat="40.0738283" lon="-105.2301691">
  <ele>1594.21</ele>
  <time>2026-08-28T19:08:25Z</time>
  <course>351.57</course>
  <speed>0.1</speed>
  <fix>3d</fix>
</trkpt>
<trkpt lat="40.0738285" lon="-105.2301692">
  <ele>1594.87</ele>
  <time>2026-08-28T19:08:25Z</time>
  <course>8.29</course>
  <speed>0.07615773105863909</speed>
  <fix>3d</fix>
</trkpt>
<trkpt lat="40.0738286" lon="-105.2301692">
  <ele>1595.29</ele>
  <time>2026-08-28T19:08:25Z</time>
  <course>8.56</course>
  <speed>0.06403124237432849</speed>
  <fix>3d</fix>
</trkpt>
<trkpt lat="40.0738286" lon="-105.2301691">
  <ele>1594.7</ele>
  <time>2026-08-28T19:08:25Z</time>
  <course>344.6</course>
  <speed>0.07</speed>
  <fix>3d</fix>
</trkpt>
<trkpt lat="40.0738286" lon="-105.2301692">
  <ele>1595.36</ele>
  <time>2026-08-28T19:08:25Z</time>
  <course>8.6</course>
  <speed>0.06403124237432849</speed>
  <fix>3d</fix>
</trkpt>
<trkpt lat="40.0738287" lon="-105.2301693">
  <ele>1595.79</ele>
  <time>2026-08-28T19:08:25Z</time>
  <course>8.86</course>
  <speed>0.05</speed>
  <fix>3d</fix>
</trkpt>
<trkpt lat="40.0738287" lon="-105.2301691">
  <ele>1595.2</ele>
  <time>2026-08-28T19:08:25Z</time>
  <course>333.53</course>
  <speed>0.05</speed>
  <fix>3d</fix>
</trkpt>
<trkpt lat="40.0738287" lon="-105.2301693">
  <ele>1595.79</ele>
  <time>2026-08-28T19:08:25Z</time>
  <course>8.87</course>
  <speed>0.05</speed>
  <fix>3d</fix>
</trkpt>
<trkpt lat="40.0738287" lon="-105.2301693">
  <ele>1596.28</ele>
  <time>2026-08-28T19:08:25Z</time>
  <course>9.15</course>
  <speed>0.04</speed>
  <fix>3d</fix>
</trkpt>
<trkpt lat="40.0738287" lon="-105.2301691">
  <ele>1595.7</ele>
  <time>2026-08-28T19:08:25Z</time>
  <course>311.13</course>
  <speed>0.02</speed>
  <fix>3d</fix>
</trkpt>
<trkpt lat="40.0738287" lon="-105.2301693">
  <ele>1596.34</ele>
  <time>2026-08-28T19:08:25Z</time>
  <course>9.17</course>
  <speed>0.04</speed>
  <fix>3d</fix>
</trkpt>
<trkpt lat="40.0738287" lon="-105.2301694">
  <ele>1596.78</ele>
  <time>2026-08-28T19:08:25Z</time>
  <course>9.4</course>
  <speed>0.0412310562561766</speed>
  <fix>3d</fix>
</trkpt>
<trkpt lat="40.0738288" lon="-105.2301691">
  <ele>1596.19</ele>
  <time>2026-08-28T19:08:25Z</time>
  <course>259.08</course>
  <speed>0.02</speed>
  <fix>3d</fix>
</trkpt>
<trkpt lat="40.0738287" lon="-105.2301694">
  <ele>1596.85</ele>
  <time>2026-08-28T19:08:25Z</time>
  <course>9.43</course>
  <speed>0.0412310562561766</speed>
  <fix>3d</fix>
</trkpt>
<trkpt lat="40.0738287" lon="-105.2301694">
  <ele>1597.27</ele>
  <time>2026-08-28T19:08:25Z</time>
  <course>9.63</course>
  <speed>0.044721359549995794</speed>
  <fix>3d</fix>
</trkpt>
<trkpt lat="40.0738287" lon="-105.2301691">
  <ele>1596.69</ele>
  <time>2026-08-28T19:08:25Z</time>
  <course>217.33</course>
  <speed>0.03</speed>
  <fix>3d</fix>
</trkpt>
<trkpt lat="40.0738287" lon="-105.2301694">
  <ele>1597.34</ele>
  <time>2026-08-28T19:08:25Z</time>
  <course>9.67</course>
  <speed>0.05</speed>
  <fix>3d</fix>
</trkpt>
<trkpt lat="40.0738287" lon="-105.2301694">
  <ele>1597.77</ele>
  <time>2026-08-28T19:08:25Z</time>
  <course>9.85</course>
  <speed>0.05</speed>
  <fix>3d</fix>
</trkpt>
<trkpt lat="40.0738287" lon="-105.2301692">
  <ele>1597.19</ele>
  <time>2026-08-28T19:08:25Z</time>
  <course>201.92</course>
  <speed>0.04</speed>
  <fix>3d</fix>
</trkpt>
<trkpt lat="40.0738287" lon="-105.2301694">
  <ele>1597.84</ele>
  <time>2026-08-28T19:08:25Z</time>
  <course>9.88</course>
  <speed>0.05</speed>
  <fix>3d</fix>
</trkpt>
<trkpt lat="40.0738286" lon="-105.2301694">
  <ele>1598.27</ele>
  <time>2026-08-28T19:08:25Z</time>
  <course>10.08</course>
  <speed>0.05830951894845301</speed>
  <fix>3d</fix>
</trkpt>
<trkpt lat="40.0738286" lon="-105.2301693">
  <ele>1597.69</ele>
  <time>2026-08-28T19:08:25Z</time>
  <course>194.77</course>
  <speed>0.05</speed>
  <fix>3d</fix>
</trkpt>
<trkpt lat="40.0738286" lon="-105.2301694">
  <ele>1598.27</ele>
  <time>2026-08-28T19:08:25Z</time>
  <course>10.08</course>
  <speed>0.05830951894845301</speed>
  <fix>3d</fix>
</trkpt>
<trkpt lat="40.0738285" lon="-105.2301695">
  <ele>1598.77</ele>
  <time>2026-08-28T19:08:25Z</time>
  <course>10.31</course>
  <speed>0.0670820393249937</speed>
  <fix>3d</fix>
</trkpt>
<trkpt lat="40.0738285" lon="-105.2301693">
  <ele>1598.19</ele>
  <time>2026-08-28T19:08:25Z</time>
  <course>190.82</course>
  <speed>0.06</speed>
  <fix>3d</fix>
</trkpt>
<trkpt lat="40.0738285" lon="-105.2301695">
  <ele>1598.84</ele>
  <time>2026-08-28T19:08:25Z</time>
  <course>10.34</course>
  <speed>0.0670820393249937</speed>
  <fix>3d</fix>
</trkpt>
<trkpt lat="40.0738283" lon="-105.2301695">
  <ele>1599.27</ele>
  <time>2026-08-28T19:08:25Z</time>
  <course>10.55</course>
  <speed>0.0670820393249937</speed>
  <fix>3d</fix>
</trkpt>
<trkpt lat="40.0738284" lon="-105.2301694">
  <ele>1598.69</ele>
  <time>2026-08-28T19:08:25Z</time>
  <course>188.52</course>
  <speed>0.07</speed>
  <fix>3d</fix>
</trkpt>
<trkpt lat="40.0738283" lon="-105.2301695">
  <ele>1599.28</ele>
  <time>2026-08-28T19:08:25Z</time>
  <course>10.55</course>
  <speed>0.0670820393249937</speed>
  <fix>3d</fix>
</trkpt>
<trkpt lat="40.0738282" lon="-105.2301695">
  <ele>1599.76</ele>
  <time>2026-08-28T19:08:25Z</time>
  <course>10.77</course>
  <speed>0.0632455532033676</speed>
  <fix>3d</fix>
</trkpt>
<trkpt lat="40.0738283" lon="-105.2301694">
  <ele>1599.19</ele>
  <time>2026-08-28T19:08:25Z</time>
  <course>186.87</course>
  <speed>0.07</speed>
  <fix>3d</fix>
</trkpt>
<trkpt lat="40.0738282" lon="-105.2301695">
  <ele>1599.83</ele>
  <time>2026-08-28T19:08:25Z</time>
  <course>10.81</course>
  <speed>0.0632455532033676</speed>
  <fix>3d</fix>
</trkpt>
<trkpt lat="40.0738281" lon="-105.2301695">
  <ele>1600.26</ele>
  <time>2026-08-28T19:08:25Z</time>
  <course>11.01</course>
  <speed>0.0632455532033676</speed>
  <fix>3d</fix>
</trkpt>
<trkpt lat="40.0738281" lon="-105.2301694">
  <ele>1599.69</ele>
  <time>2026-08-28T19:08:25Z</time>
  <course>185.47</course>
  <speed>0.07</speed>
  <fix>3d</fix>
</trkpt>
<trkpt lat="40.0738281" lon="-105.2301695">
  <ele>1600.34</ele>
  <time>2026-08-28T19:08:25Z</time>
  <course>11.04</course>
  <speed>0.0632455532033676</speed>
  <fix>3d</fix>
</trkpt>
<trkpt lat="40.073828" lon="-105.2301695">
  <ele>1600.77</ele>
  <time>2026-08-28T19:08:25Z</time>
  <course>11.22</course>
  <speed>0.053851648071345036</speed>
  <fix>3d</fix>
</trkpt>
<trkpt lat="40.073828" lon="-105.2301694">
  <ele>1600.2</ele>
  <time>2026-08-28T19:08:25Z</time>
  <course>184.55</course>
  <speed>0.07</speed>
  <fix>3d</fix>
</trkpt>
<trkpt lat="40.073828" lon="-105.2301695">
  <ele>1600.79</ele>
  <time>2026-08-28T19:08:25Z</time>
  <course>11.23</course>
  <speed>0.053851648071345036</speed>
  <fix>3d</fix>
</trkpt>
<trkpt lat="40.0738279" lon="-105.2301695">
  <ele>1601.27</ele>
  <time>2026-08-28T19:08:25Z</time>
  <course>11.46</course>
  <speed>0.053851648071345036</speed>
  <fix>3d</fix>
</trkpt>
<trkpt lat="40.0738279" lon="-105.2301694">
  <ele>1600.7</ele>
  <time>2026-08-28T19:08:25Z</time>
  <course>184.0</course>
  <speed>0.07</speed>
  <fix>3d</fix>
</trkpt>
<trkpt lat="40.0738278" lon="-105.2301695">
  <ele>1601.34</ele>
  <time>2026-08-28T19:08:25Z</time>
  <course>11.49</course>
  <speed>0.053851648071345036</speed>
  <fix>3d</fix>
</trkpt>
<trkpt lat="40.0738277" lon="-105.2301695">
  <ele>1601.77</ele>
  <time>2026-08-28T19:08:25Z</time>
  <course>11.65</course>
  <speed>0.044721359549995794</speed>
  <fix>3d</fix>
</trkpt>
<trkpt lat="40.0738277" lon="-105.2301694">
  <ele>1601.2</ele>
  <time>2026-08-28T19:08:25Z</time>
  <course>183.5</course>
  <speed>0.06</speed>
  <fix>3d</fix>
</trkpt>
<trkpt lat="40.0738277" lon="-105.2301695">
  <ele>1601.84</ele>
  <time>2026-08-28T19:08:25Z</time>
  <course>11.68</course>
  <speed>0.044721359549995794</speed>
  <fix>3d</fix>
</trkpt>
<trkpt lat="40.0738277" lon="-105.2301695">
  <ele>1602.28</ele>
  <time>2026-08-28T19:08:25Z</time>
  <course>11.87</course>
  <speed>0.0316227766016838</speed>
  <fix>3d</fix>
</trkpt>
<trkpt lat="40.0738276" lon="-105.2301694">
  <ele>1601.7</ele>
  <time>2026-08-28T19:08:25Z</time>
  <course>183.19</course>
  <speed>0.05</speed>
  <fix>3d</fix>
</trkpt>
<trkpt lat="40.0738276" lon="-105.2301695">
  <ele>1602.35</ele>
  <time>2026-08-28T19:08:25Z</time>
  <course>11.9</course>
  <speed>0.0316227766016838</speed>
  <fix>3d</fix>
</trkpt>
<trkpt lat="40.0738276" lon="-105.2301695">
  <ele>1602.78</ele>
  <time>2026-08-28T19:08:25Z</time>
  <course>12.09</course>
  <speed>0.022360679774997897</speed>
  <fix>3d</fix>
</trkpt>
<trkpt lat="40.0738275" lon="-105.2301694">
  <ele>1602.2</ele>
  <time>2026-08-28T19:08:25Z</time>
  <course>182.88</course>
  <speed>0.05</speed>
  <fix>3d</fix>
</trkpt>
<trkpt lat="40.0738276" lon="-105.2301695">
  <ele>1602.85</ele>
  <time>2026-08-28T19:08:26Z</time>
  <course>12.12</course>
  <speed>0.022360679774997897</speed>
  <fix>3d</fix>
</trkpt>
<trkpt lat="40.0738275" lon="-105.2301695">
  <ele>1603.29</ele>
  <time>2026-08-28T19:08:26Z</time>
  <course>12.31</course>
  <speed>0.01414213562373095</speed>
  <fix>3d</fix>
</trkpt>
<trkpt lat="40.0738274" lon="-105.2301694">
  <ele>1602.7</ele>
  <time>2026-08-28T19:08:26Z</time>
  <course>182.27</course>
  <speed>0.04</speed>
  <fix>3d</fix>
</trkpt>
<trkpt lat="40.0738275" lon="-105.2301695">
  <ele>1603.36</ele>
  <time>2026-08-28T19:08:26Z</time>
  <course>12.33</course>
  <speed>0.01414213562373095</speed>
  <fix>3d</fix>
</trkpt>
<trkpt lat="40.0738275" lon="-105.2301695">
  <ele>1603.79</ele>
  <time>2026-08-28T19:08:26Z</time>
  <course>12.47</course>
  <speed>0.01</speed>
  <fix>3d</fix>
</trkpt>
<trkpt lat="40.0738274" lon="-105.2301694">
  <ele>1603.2</ele>
  <time>2026-08-28T19:08:26Z</time>
  <course>181.65</course>
  <speed>0.03</speed>
  <fix>3d</fix>
</trkpt>
<trkpt lat="40.0738275" lon="-105.2301695">
  <ele>1603.8</ele>
  <time>2026-08-28T19:08:26Z</time>
  <course>12.47</course>
  <speed>0.01</speed>
  <fix>3d</fix>
</trkpt>
<trkpt lat="40.0738274" lon="-105.2301695">
  <ele>1604.3</ele>
  <time>2026-08-28T19:08:26Z</time>
  <course>12.64</course>
  <speed>0.01</speed>
  <fix>3d</fix>
</trkpt>
<trkpt lat="40.0738273" lon="-105.2301694">
  <ele>1603.7</ele>
  <time>2026-08-28T19:08:26Z</time>
  <course>181.69</course>
  <speed>0.02</speed>
  <fix>3d</fix>
</trkpt>
<trkpt lat="40.0738274" lon="-105.2301695">
  <ele>1604.36</ele>
  <time>2026-08-28T19:08:26Z</time>
  <course>12.66</course>
  <speed>0.01</speed>
  <fix>3d</fix>
</trkpt>
<trkpt lat="40.0738274" lon="-105.2301695">
  <ele>1604.79</ele>
  <time>2026-08-28T19:08:26Z</time>
  <course>12.82</course>
  <speed>0.01414213562373095</speed>
  <fix>3d</fix>
</trkpt>
<trkpt lat="40.0738273" lon="-105.2301694">
  <ele>1604.2</ele>
  <time>2026-08-28T19:08:26Z</time>
  <course>184.3</course>
  <speed>0.01</speed>
  <fix>3d</fix>
</trkpt>
<trkpt lat="40.0738274" lon="-105.2301695">
  <ele>1604.86</ele>
  <time>2026-08-28T19:08:26Z</time>
  <course>12.84</course>
  <speed>0.01414213562373095</speed>
  <fix>3d</fix>
</trkpt>
<trkpt lat="40.0738274" lon="-105.2301695">
  <ele>1605.29</ele>
  <time>2026-08-28T19:08:26Z</time>
  <course>12.96</course>
  <speed>0.01414213562373095</speed>
  <fix>3d</fix>
</trkpt>
<trkpt lat="40.0738273" lon="-105.2301694">
  <ele>1604.7</ele>
  <time>2026-08-28T19:08:26Z</time>
  <course>191.65</course>
  <speed>0.0</speed>
  <fix>3d</fix>
</trkpt>
<trkpt lat="40.0738274" lon="-105.2301695">
  <ele>1605.35</ele>
  <time>2026-08-28T19:08:26Z</time>
  <course>12.98</course>
  <speed>0.022360679774997897</speed>
  <fix>3d</fix>
</trkpt>
<trkpt lat="40.0738274" lon="-105.2301695">
  <ele>1605.79</ele>
  <time>2026-08-28T19:08:26Z</time>
  <course>13.09</course>
  <speed>0.022360679774997897</speed>
  <fix>3d</fix>
</trkpt>
<trkpt lat="40.0738273" lon="-105.2301694">
  <ele>1605.2</ele>
  <time>2026-08-28T19:08:26Z</time>
  <course>231.02</course>
  <speed>0.0</speed>
  <fix>3d</fix>
</trkpt>
<trkpt lat="40.0738274" lon="-105.2301695">
  <ele>1605.85</ele>
  <time>2026-08-28T19:08:26Z</time>
  <course>13.11</course>
  <speed>0.022360679774997897</speed>
  <fix>3d</fix>
</trkpt>
<trkpt lat="40.0738274" lon="-105.2301695">
  <ele>1606.28</ele>
  <time>2026-08-28T19:08:26Z</time>
  <course>13.22</course>
  <speed>0.0316227766016838</speed>
  <fix>3d</fix>
</trkpt>
<trkpt lat="40.0738273" lon="-105.2301694">
  <ele>1605.69</ele>
  <time>2026-08-28T19:08:26Z</time>
  <course>347.59</course>
  <speed>0.0</speed>
  <fix>3d</fix>
</trkpt>
<trkpt lat="40.0738274" lon="-105.2301695">
  <ele>1606.29</ele>
  <time>2026-08-28T19:08:26Z</time>
  <course>13.22</course>
  <speed>0.0316227766016838</speed>
  <fix>3d</fix>
</trkpt>
<trkpt lat="40.0738274" lon="-105.2301695">
  <ele>1606.78</ele>
  <time>2026-08-28T19:08:26Z</time>
  <course>13.34</course>
  <speed>0.0316227766016838</speed>
  <fix>3d</fix>
</trkpt>
<trkpt lat="40.0738273" lon="-105.2301694">
  <ele>1606.19</ele>
  <time>2026-08-28T19:08:26Z</time>
  <course>352.98</course>
  <speed>0.0</speed>
  <fix>3d</fix>
</trkpt>
<trkpt lat="40.0738274" lon="-105.2301695">
  <ele>1606.84</ele>
  <time>2026-08-28T19:08:26Z</time>
  <course>13.36</course>
  <speed>0.0316227766016838</speed>
  <fix>3d</fix>
</trkpt>
<trkpt lat="40.0738274" lon="-105.2301695">
  <ele>1607.27</ele>
  <time>2026-08-28T19:08:26Z</time>
  <course>13.46</course>
  <speed>0.0316227766016838</speed>
  <fix>3d</fix>
</trkpt>
<trkpt lat="40.0738273" lon="-105.2301694">
  <ele>1606.69</ele>
  <time>2026-08-28T19:08:26Z</time>
  <course>355.22</course>
  <speed>0.01</speed>
  <fix>3d</fix>
</trkpt>
<trkpt lat="40.0738274" lon="-105.2301695">
  <ele>1607.34</ele>
  <time>2026-08-28T19:08:26Z</time>
  <course>13.48</course>
  <speed>0.0316227766016838</speed>
  <fix>3d</fix>
</trkpt>
<trkpt lat="40.0738274" lon="-105.2301695">
  <ele>1607.78</ele>
  <time>2026-08-28T19:08:26Z</time>
  <course>13.58</course>
  <speed>0.0412310562561766</speed>
  <fix>3d</fix>
</trkpt>
<trkpt lat="40.0738273" lon="-105.2301694">
  <ele>1607.19</ele>
  <time>2026-08-28T19:08:26Z</time>
  <course>358.23</course>
  <speed>0.01</speed>
  <fix>3d</fix>
</trkpt>
<trkpt lat="40.0738274" lon="-105.2301695">
  <ele>1607.84</ele>
  <time>2026-08-28T19:08:26Z</time>
  <course>13.59</course>
  <speed>0.0412310562561766</speed>
  <fix>3d</fix>
</trkpt>
<trkpt lat="40.0738275" lon="-105.2301695">
  <ele>1608.28</ele>
  <time>2026-08-28T19:08:26Z</time>
  <course>13.69</course>
  <speed>0.0412310562561766</speed>
  <fix>3d</fix>
</trkpt>
<trkpt lat="40.0738273" lon="-105.2301694">
  <ele>1607.69</ele>
  <time>2026-08-28T19:08:26Z</time>
  <course>1.17</course>
  <speed>0.01</speed>
  <fix>3d</fix>
</trkpt>
<trkpt lat="40.0738275" lon="-105.2301695">
  <ele>1608.28</ele>
  <time>2026-08-28T19:08:26Z</time>
  <course>13.69</course>
  <speed>0.0412310562561766</speed>
  <fix>3d</fix>
</trkpt>
<trkpt lat="40.0738275" lon="-105.2301695">
  <ele>1608.78</ele>
  <time>2026-08-28T19:08:26Z</time>
  <course>13.78</course>
  <speed>0.0412310562561766</speed>
  <fix>3d</fix>
</trkpt>
<trkpt lat="40.0738273" lon="-105.2301694">
  <ele>1608.19</ele>
  <time>2026-08-28T19:08:26Z</time>
  <course>4.36</course>
  <speed>0.01</speed>
  <fix>3d</fix>
</trkpt>
<trkpt lat="40.0738275" lon="-105.2301695">
  <ele>1608.85</ele>
  <time>2026-08-28T19:08:26Z</time>
  <course>13.8</course>
  <speed>0.0412310562561766</speed>
  <fix>3d</fix>
</trkpt>
<trkpt lat="40.0738275" lon="-105.2301695">
  <ele>1609.28</ele>
  <time>2026-08-28T19:08:26Z</time>
  <course>13.89</course>
  <speed>0.0316227766016838</speed>
  <fix>3d</fix>
</trkpt>
<trkpt lat="40.0738273" lon="-105.2301694">
  <ele>1608.69</ele>
  <time>2026-08-28T19:08:26Z</time>
  <course>6.6</course>
  <speed>0.01</speed>
  <fix>3d</fix>
</trkpt>
<trkpt lat="40.0738275" lon="-105.2301695">
  <ele>1609.31</ele>
  <time>2026-08-28T19:08:26Z</time>
  <course>13.9</course>
  <speed>0.0316227766016838</speed>
  <fix>3d</fix>
</trkpt>
<trkpt lat="40.0738275" lon="-105.2301695">
  <ele>1609.78</ele>
  <time>2026-08-28T19:08:26Z</time>
  <course>14.0</course>
  <speed>0.0316227766016838</speed>
  <fix>3d</fix>
</trkpt>
<trkpt lat="40.0738274" lon="-105.2301694">
  <ele>1609.19</ele>
  <time>2026-08-28T19:08:26Z</time>
  <course>7.52</course>
  <speed>0.01</speed>
  <fix>3d</fix>
</trkpt>
<trkpt lat="40.0738275" lon="-105.2301695">
  <ele>1609.83</ele>
  <time>2026-08-28T19:08:26Z</time>
  <course>14.01</course>
  <speed>0.0316227766016838</speed>
  <fix>3d</fix>
</trkpt>
<trkpt lat="40.0738275" lon="-105.2301695">
  <ele>1610.27</ele>
  <time>2026-08-28T19:08:26Z</time>
  <course>14.1</course>
  <speed>0.0316227766016838</speed>
  <fix>3d</fix>
</trkpt>
<trkpt lat="40.0738274" lon="-105.2301694">
  <ele>1609.69</ele>
  <time>2026-08-28T19:08:26Z</time>
  <course>8.69</course>
  <speed>0.01</speed>
  <fix>3d</fix>
</trkpt>
<trkpt lat="40.0738276" lon="-105.2301695">
  <ele>1610.34</ele>
  <time>2026-08-28T19:08:26Z</time>
  <course>14.11</course>
  <speed>0.0316227766016838</speed>
  <fix>3d</fix>
</trkpt>
<trkpt lat="40.0738276" lon="-105.2301695">
  <ele>1610.77</ele>
  <time>2026-08-28T19:08:26Z</time>
  <course>14.15</course>
  <speed>0.0316227766016838</speed>
  <fix>3d</fix>
</trkpt>
<trkpt lat="40.0738274" lon="-105.2301694">
  <ele>1610.19</ele>
  <time>2026-08-28T19:08:26Z</time>
  <course>12.38</course>
  <speed>0.01</speed>
  <fix>3d</fix>
</trkpt>
<trkpt lat="40.0738276" lon="-105.2301695">
  <ele>1610.83</ele>
  <time>2026-08-28T19:08:26Z</time>
  <course>14.16</course>
  <speed>0.0316227766016838</speed>
  <fix>3d</fix>
</trkpt>
<trkpt lat="40.0738276" lon="-105.2301695">
  <ele>1611.28</ele>
  <time>2026-08-28T19:08:26Z</time>
  <course>14.23</course>
  <speed>0.022360679774997897</speed>
  <fix>3d</fix>
</trkpt>
<trkpt lat="40.0738274" lon="-105.2301694">
  <ele>1610.69</ele>
  <time>2026-08-28T19:08:26Z</time>
  <course>20.17</course>
  <speed>0.0</speed>
  <fix>3d</fix>
</trkpt>
<trkpt lat="40.0738276" lon="-105.2301695">
  <ele>1611.35</ele>
  <time>2026-08-28T19:08:26Z</time>
  <course>14.24</course>
  <speed>0.022360679774997897</speed>
  <fix>3d</fix>
</trkpt>
<trkpt lat="40.0738276" lon="-105.2301695">
  <ele>1611.78</ele>
  <time>2026-08-28T19:08:26Z</time>
  <course>14.34</course>
  <speed>0.022360679774997897</speed>
  <fix>3d</fix>
</trkpt>
<trkpt lat="40.0738274" lon="-105.2301694">
  <ele>1611.19</ele>
  <time>2026-08-28T19:08:26Z</time>
  <course>31.1</course>
  <speed>0.0</speed>
  <fix>3d</fix>
</trkpt>
<trkpt lat="40.0738276" lon="-105.2301695">
  <ele>1611.79</ele>
  <time>2026-08-28T19:08:26Z</time>
  <course>14.34</course>
  <speed>0.022360679774997897</speed>
  <fix>3d</fix>
</trkpt>
<trkpt lat="40.0738276" lon="-105.2301695">
  <ele>1612.28</ele>
  <time>2026-08-28T19:08:26Z</time>
  <course>14.42</course>
  <speed>0.022360679774997897</speed>
  <fix>3d</fix>
</trkpt>
<trkpt lat="40.0738275" lon="-105.2301694">
  <ele>1611.69</ele>
  <time>2026-08-28T19:08:26Z</time>
  <course>61.73</course>
  <speed>0.0</speed>
  <fix>3d</fix>
</trkpt>
<trkpt lat="40.0738276" lon="-105.2301695">
  <ele>1612.34</ele>
  <time>2026-08-28T19:08:26Z</time>
  <course>14.43</course>
  <speed>0.022360679774997897</speed>
  <fix>3d</fix>
</trkpt>
<trkpt lat="40.0738276" lon="-105.2301695">
  <ele>1612.78</ele>
  <time>2026-08-28T19:08:26Z</time>
  <course>14.51</course>
  <speed>0.022360679774997897</speed>
  <fix>3d</fix>
</trkpt>
<trkpt lat="40.0738275" lon="-105.2301694">
  <ele>1612.19</ele>
  <time>2026-08-28T19:08:26Z</time>
  <course>114.8</course>
  <speed>0.0</speed>
  <fix>3d</fix>
</trkpt>
<trkpt lat="40.0738276" lon="-105.2301695">
  <ele>1612.84</ele>
  <time>2026-08-28T19:08:26Z</time>
  <course>14.51</course>
  <speed>0.022360679774997897</speed>
  <fix>3d</fix>
</trkpt>
<trkpt lat="40.0738276" lon="-105.2301695">
  <ele>1613.28</ele>
  <time>2026-08-28T19:08:26Z</time>
  <course>14.59</course>
  <speed>0.01414213562373095</speed>
  <fix>3d</fix>
</trkpt>
<trkpt lat="40.0738275" lon="-105.2301694">
  <ele>1612.69</ele>
  <time>2026-08-28T19:08:26Z</time>
  <course>138.31</course>
  <speed>0.0</speed>
  <fix>3d</fix>
</trkpt>
<trkpt lat="40.0738276" lon="-105.2301695">
  <ele>1613.29</ele>
  <time>2026-08-28T19:08:26Z</time>
  <course>14.59</course>
  <speed>0.01414213562373095</speed>
  <fix>3d</fix>
</trkpt>
<trkpt lat="40.0738276" lon="-105.2301695">
  <ele>1613.78</ele>
  <time>2026-08-28T19:08:26Z</time>
  <course>14.63</course>
  <speed>0.01414213562373095</speed>
  <fix>3d</fix>
</trkpt>
<trkpt lat="40.0738275" lon="-105.2301694">
  <ele>1613.19</ele>
  <time>2026-08-28T19:08:26Z</time>
  <course>145.59</course>
  <speed>0.0</speed>
  <fix>3d</fix>
</trkpt>
<trkpt lat="40.0738276" lon="-105.2301695">
  <ele>1613.78</ele>
  <time>2026-08-28T19:08:26Z</time>
  <course>14.64</course>
  <speed>0.01414213562373095</speed>
  <fix>3d</fix>
</trkpt>
<trkpt lat="40.0738276" lon="-105.2301695">
  <ele>1614.28</ele>
  <time>2026-08-28T19:08:26Z</time>
  <course>14.72</course>
  <speed>0.01414213562373095</speed>
  <fix>3d</fix>
</trkpt>
<trkpt lat="40.0738275" lon="-105.2301694">
  <ele>1613.69</ele>
  <time>2026-08-28T19:08:26Z</time>
  <course>148.1</course>
  <speed>0.0</speed>
  <fix>3d</fix>
</trkpt>
<trkpt lat="40.0738276" lon="-105.2301695">
  <ele>1614.35</ele>
  <time>2026-08-28T19:08:26Z</time>
  <course>14.73</course>
  <speed>0.01414213562373095</speed>
  <fix>3d</fix>
</trkpt>
<trkpt lat="40.0738275" lon="-105.2301695">
  <ele>1614.78</ele>
  <time>2026-08-28T19:08:26Z</time>
  <course>14.78</course>
  <speed>0.01414213562373095</speed>
  <fix>3d</fix>
</trkpt>
<trkpt lat="40.0738275" lon="-105.2301694">
  <ele>1614.2</ele>
  <time>2026-08-28T19:08:26Z</time>
  <course>150.89</course>
  <speed>0.0</speed>
  <fix>3d</fix>
</trkpt>
<trkpt lat="40.0738275" lon="-105.2301695">
  <ele>1614.8</ele>
  <time>2026-08-28T19:08:26Z</time>
  <course>14.78</course>
  <speed>0.01414213562373095</speed>
  <fix>3d</fix>
</trkpt>
<trkpt lat="40.0738275" lon="-105.2301695">
  <ele>1615.28</ele>
  <time>2026-08-28T19:08:26Z</time>
  <course>14.82</course>
  <speed>0.01414213562373095</speed>
  <fix>3d</fix>
</trkpt>
<trkpt lat="40.0738275" lon="-105.2301694">
  <ele>1614.7</ele>
  <time>2026-08-28T19:08:26Z</time>
  <course>154.44</course>
  <speed>0.01</speed>
  <fix>3d</fix>
</trkpt>
<trkpt lat="40.0738275" lon="-105.2301695">
  <ele>1615.35</ele>
  <time>2026-08-28T19:08:26Z</time>
  <course>14.84</course>
  <speed>0.01414213562373095</speed>
  <fix>3d</fix>
</trkpt>
<trkpt lat="40.0738275" lon="-105.2301695">
  <ele>1615.78</ele>
  <time>2026-08-28T19:08:26Z</time>
  <course>14.91</course>
  <speed>0.01414213562373095</speed>
  <fix>3d</fix>
</trkpt>
<trkpt lat="40.0738275" lon="-105.2301694">
  <ele>1615.2</ele>
  <time>2026-08-28T19:08:26Z</time>
  <course>157.17</course>
  <speed>0.01</speed>
  <fix>3d</fix>
</trkpt>
<trkpt lat="40.0738275" lon="-105.2301695">
  <ele>1615.78</ele>
  <time>2026-08-28T19:08:26Z</time>
  <course>14.91</course>
  <speed>0.01414213562373095</speed>
  <fix>3d</fix>
</trkpt>
<trkpt lat="40.0738275" lon="-105.2301695">
  <ele>1616.28</ele>
  <time>2026-08-28T19:08:26Z</time>
  <course>14.95</course>
  <speed>0.01414213562373095</speed>
  <fix>3d</fix>
</trkpt>
<trkpt lat="40.0738274" lon="-105.2301694">
  <ele>1615.7</ele>
  <time>2026-08-28T19:08:26Z</time>
  <course>158.93</course>
  <speed>0.01</speed>
  <fix>3d</fix>
</trkpt>
<trkpt lat="40.0738275" lon="-105.2301695">
  <ele>1616.35</ele>
  <time>2026-08-28T19:08:26Z</time>
  <course>14.96</course>
  <speed>0.01414213562373095</speed>
  <fix>3d</fix>
</trkpt>
<trkpt lat="40.0738275" lon="-105.2301695">
  <ele>1616.78</ele>
  <time>2026-08-28T19:08:26Z</time>
  <course>15.02</course>
  <speed>0.01414213562373095</speed>
  <fix>3d</fix>
</trkpt>
<trkpt lat="40.0738274" lon="-105.2301694">
  <ele>1616.2</ele>
  <time>2026-08-28T19:08:26Z</time>
  <course>160.03</course>
  <speed>0.01</speed>
  <fix>3d</fix>
</trkpt>
<trkpt lat="40.0738275" lon="-105.2301695">
  <ele>1616.87</ele>
  <time>2026-08-28T19:08:26Z</time>
  <course>15.03</course>
  <speed>0.01414213562373095</speed>
  <fix>3d</fix>
</trkpt>
<trkpt lat="40.0738275" lon="-105.2301695">
  <ele>1617.28</ele>
  <time>2026-08-28T19:08:26Z</time>
  <course>15.08</course>
  <speed>0.01414213562373095</speed>
  <fix>3d</fix>
</trkpt>
<trkpt lat="40.0738274" lon="-105.2301694">
  <ele>1616.7</ele>
  <time>2026-08-28T19:08:26Z</time>
  <course>161.44</course>
  <speed>0.01</speed>
  <fix>3d</fix>
</trkpt>
<trkpt lat="40.0738275" lon="-105.2301695">
  <ele>1617.29</ele>
  <time>2026-08-28T19:08:26Z</time>
  <course>15.08</course>
  <speed>0.01414213562373095</speed>
  <fix>3d</fix>
</trkpt>
<trkpt lat="40.0738275" lon="-105.2301695">
  <ele>1617.79</ele>
  <time>2026-08-28T19:08:26Z</time>
  <course>15.16</course>
  <speed>0.01414213562373095</speed>
  <fix>3d</fix>
</trkpt>
<trkpt lat="40.0738274" lon="-105.2301694">
  <ele>1617.2</ele>
  <time>2026-08-28T19:08:26Z</time>
  <course>162.23</course>
  <speed>0.01</speed>
  <fix>3d</fix>
</trkpt>
<trkpt lat="40.0738275" lon="-105.2301695">
  <ele>1617.85</ele>
  <time>2026-08-28T19:08:26Z</time>
  <course>15.17</course>
  <speed>0.01414213562373095</speed>
  <fix>3d</fix>
</trkpt>
<trkpt lat="40.0738275" lon="-105.2301695">
  <ele>1618.29</ele>
  <time>2026-08-28T19:08:26Z</time>
  <course>15.23</course>
  <speed>0.01414213562373095</speed>
  <fix>3d</fix>
</trkpt>
<trkpt lat="40.0738273" lon="-105.2301694">
  <ele>1617.7</ele>
  <time>2026-08-28T19:08:26Z</time>
  <course>161.03</course>
  <speed>0.01</speed>
  <fix>3d</fix>
</trkpt>
<trkpt lat="40.0738275" lon="-105.2301695">
  <ele>1618.29</ele>
  <time>2026-08-28T19:08:26Z</time>
  <course>15.23</course>
  <speed>0.01414213562373095</speed>
  <fix>3d</fix>
</trkpt>
<trkpt lat="40.0738275" lon="-105.2301695">
  <ele>1618.79</ele>
  <time>2026-08-28T19:08:26Z</time>
  <course>15.29</course>
  <speed>0.01414213562373095</speed>
  <fix>3d</fix>
</trkpt>
<trkpt lat="40.0738273" lon="-105.2301694">
  <ele>1618.2</ele>
  <time>2026-08-28T19:08:26Z</time>
  <course>159.4</course>
  <speed>0.01</speed>
  <fix>3d</fix>
</trkpt>
<trkpt lat="40.0738275" lon="-105.2301695">
  <ele>1618.85</ele>
  <time>2026-08-28T19:08:26Z</time>
  <course>15.29</course>
  <speed>0.01414213562373095</speed>
  <fix>3d</fix>
</trkpt>
<trkpt lat="40.0738275" lon="-105.2301695">
  <ele>1619.29</ele>
  <time>2026-08-28T19:08:26Z</time>
  <course>15.34</course>
  <speed>0.01414213562373095</speed>
  <fix>3d</fix>
</trkpt>
<trkpt lat="40.0738273" lon="-105.2301694">
  <ele>1618.7</ele>
  <time>2026-08-28T19:08:26Z</time>
  <course>156.6</course>
  <speed>0.01</speed>
  <fix>3d</fix>
</trkpt>
<trkpt lat="40.0738275" lon="-105.2301695">
  <ele>1619.34</ele>
  <time>2026-08-28T19:08:26Z</time>
  <course>15.35</course>
  <speed>0.01414213562373095</speed>
  <fix>3d</fix>
</trkpt>
<trkpt lat="40.0738275" lon="-105.2301695">
  <ele>1619.79</ele>
  <time>2026-08-28T19:08:26Z</time>
  <course>15.41</course>
  <speed>0.01414213562373095</speed>
  <fix>3d</fix>
</trkpt>
<trkpt lat="40.0738273" lon="-105.2301694">
  <ele>1619.2</ele>
  <time>2026-08-28T19:08:26Z</time>
  <course>152.9</course>
  <speed>0.01</speed>
  <fix>3d</fix>
</trkpt>
<trkpt lat="40.0738275" lon="-105.2301695">
  <ele>1619.85</ele>
  <time>2026-08-28T19:08:26Z</time>
  <course>15.42</course>
  <speed>0.01414213562373095</speed>
  <fix>3d</fix>
</trkpt>
<trkpt lat="40.0738275" lon="-105.2301695">
  <ele>1620.29</ele>
  <time>2026-08-28T19:08:26Z</time>
  <course>15.46</course>
  <speed>0.01414213562373095</speed>
  <fix>3d</fix>
</trkpt>
<trkpt lat="40.0738273" lon="-105.2301694">
  <ele>1619.7</ele>
  <time>2026-08-28T19:08:26Z</time>
  <course>151.33</course>
  <speed>0.0</speed>
  <fix>3d</fix>
</trkpt>
<trkpt lat="40.0738275" lon="-105.2301695">
  <ele>1620.35</ele>
  <time>2026-08-28T19:08:26Z</time>
  <course>15.47</course>
  <speed>0.01414213562373095</speed>
  <fix>3d</fix>
</trkpt>
<trkpt lat="40.0738275" lon="-105.2301695">
  <ele>1620.78</ele>
  <time>2026-08-28T19:08:26Z</time>
  <course>15.51</course>
  <speed>0.01414213562373095</speed>
  <fix>3d</fix>
</trkpt>
<trkpt lat="40.0738273" lon="-105.2301694">
  <ele>1620.2</ele>
  <time>2026-08-28T19:08:26Z</time>
  <course>153.35</course>
  <speed>0.0</speed>
  <fix>3d</fix>
</trkpt>
<trkpt lat="40.0738275" lon="-105.2301695">
  <ele>1620.79</ele>
  <time>2026-08-28T19:08:26Z</time>
  <course>15.51</course>
  <speed>0.01414213562373095</speed>
  <fix>3d</fix>
</trkpt>
<trkpt lat="40.0738275" lon="-105.2301695">
  <ele>1621.28</ele>
  <time>2026-08-28T19:08:26Z</time>
  <course>15.55</course>
  <speed>0.022360679774997897</speed>
  <fix>3d</fix>
</trkpt>
<trkpt lat="40.0738272" lon="-105.2301694">
  <ele>1620.7</ele>
  <time>2026-08-28T19:08:26Z</time>
  <course>153.33</course>
  <speed>0.0</speed>
  <fix>3d</fix>
</trkpt>
<trkpt lat="40.0738275" lon="-105.2301695">
  <ele>1621.34</ele>
  <time>2026-08-28T19:08:26Z</time>
  <course>15.56</course>
  <speed>0.022360679774997897</speed>
  <fix>3d</fix>
</trkpt>
<trkpt lat="40.0738275" lon="-105.2301695">
  <ele>1621.77</ele>
  <time>2026-08-28T19:08:26Z</time>
  <course>15.58</course>
  <speed>0.022360679774997897</speed>
  <fix>3d</fix>
</trkpt>
<trkpt lat="40.0738271" lon="-105.2301694">
  <ele>1621.19</ele>
  <time>2026-08-28T19:08:26Z</time>
  <course>145.07</course>
  <speed>0.0</speed>
  <fix>3d</fix>
</trkpt>
<trkpt lat="40.0738275" lon="-105.2301695">
  <ele>1621.83</ele>
  <time>2026-08-28T19:08:26Z</time>
  <course>15.58</course>
  <speed>0.022360679774997897</speed>
  <fix>3d</fix>
</trkpt>
<trkpt lat="40.0738274" lon="-105.2301695">
  <ele>1622.26</ele>
  <time>2026-08-28T19:08:26Z</time>
  <course>15.61</course>
  <speed>0.022360679774997897</speed>
  <fix>3d</fix>
</trkpt>
<trkpt lat="40.0738271" lon="-105.2301694">
  <ele>1621.69</ele>
  <time>2026-08-28T19:08:26Z</time>
  <course>139.18</course>
  <speed>0.0</speed>
  <fix>3d</fix>
</trkpt>
<trkpt lat="40.0738274" lon="-105.2301695">
  <ele>1622.33</ele>
  <time>2026-08-28T19:08:26Z</time>
  <course>15.61</course>
  <speed>0.022360679774997897</speed>
  <fix>3d</fix>
</trkpt>
<trkpt lat="40.0738274" lon="-105.2301695">
  <ele>1622.76</ele>
  <time>2026-08-28T19:08:26Z</time>
  <course>15.64</course>
  <speed>0.022360679774997897</speed>
  <fix>3d</fix>
</trkpt>
<trkpt lat="40.0738271" lon="-105.2301694">
  <ele>1622.19</ele>
  <time>2026-08-28T19:08:26Z</time>
  <course>143.36</course>
  <speed>0.0</speed>
  <fix>3d</fix>
</trkpt>
<trkpt lat="40.0738274" lon="-105.2301695">
  <ele>1622.82</ele>
  <time>2026-08-28T19:08:26Z</time>
  <course>15.65</course>
  <speed>0.022360679774997897</speed>
  <fix>3d</fix>
</trkpt>
<trkpt lat="40.0738274" lon="-105.2301695">
  <ele>1623.26</ele>
  <time>2026-08-28T19:08:26Z</time>
  <course>15.68</course>
  <speed>0.022360679774997897</speed>
  <fix>3d</fix>
</trkpt>
<trkpt lat="40.0738271" lon="-105.2301694">
  <ele>1622.69</ele>
  <time>2026-08-28T19:08:26Z</time>
  <course>127.92</course>
  <speed>0.0</speed>
  <fix>3d</fix>
</trkpt>
<trkpt lat="40.0738274" lon="-105.2301695">
  <ele>1623.27</ele>
  <time>2026-08-28T19:08:26Z</time>
  <course>15.68</course>
  <speed>0.022360679774997897</speed>
  <fix>3d</fix>
</trkpt>
<trkpt lat="40.0738274" lon="-105.2301695">
  <ele>1623.76</ele>
  <time>2026-08-28T19:08:26Z</time>
  <course>15.74</course>
  <speed>0.022360679774997897</speed>
  <fix>3d</fix>
</trkpt>
<trkpt lat="40.0738271" lon="-105.2301694">
  <ele>1623.2</ele>
  <time>2026-08-28T19:08:26Z</time>
  <course>44.52</course>
  <speed>0.0</speed>
  <fix>3d</fix>
</trkpt>
<trkpt lat="40.0738274" lon="-105.2301695">
  <ele>1623.83</ele>
  <time>2026-08-28T19:08:26Z</time>
  <course>15.74</course>
  <speed>0.022360679774997897</speed>
  <fix>3d</fix>
</trkpt>
<trkpt lat="40.0738274" lon="-105.2301695">
  <ele>1624.26</ele>
  <time>2026-08-28T19:08:26Z</time>
  <course>15.8</course>
  <speed>0.022360679774997897</speed>
  <fix>3d</fix>
</trkpt>
<trkpt lat="40.0738271" lon="-105.2301694">
  <ele>1623.7</ele>
  <time>2026-08-28T19:08:26Z</time>
  <course>11.13</course>
  <speed>0.0</speed>
  <fix>3d</fix>
</trkpt>
<trkpt lat="40.0738274" lon="-105.2301695">
  <ele>1624.32</ele>
  <time>2026-08-28T19:08:26Z</time>
  <course>15.81</course>
  <speed>0.022360679774997897</speed>
  <fix>3d</fix>
</trkpt>
<trkpt lat="40.0738274" lon="-105.2301695">
  <ele>1624.76</ele>
  <time>2026-08-28T19:08:26Z</time>
  <course>15.85</course>
  <speed>0.022360679774997897</speed>
  <fix>3d</fix>
</trkpt>
<trkpt lat="40.0738271" lon="-105.2301694">
  <ele>1624.21</ele>
  <time>2026-08-28T19:08:26Z</time>
  <course>0.77</course>
  <speed>0.0</speed>
  <fix>3d</fix>
</trkpt>
<trkpt lat="40.0738274" lon="-105.2301695">
  <ele>1624.83</ele>
  <time>2026-08-28T19:08:26Z</time>
  <course>15.85</course>
  <speed>0.022360679774997897</speed>
  <fix>3d</fix>
</trkpt>
<trkpt lat="40.0738274" lon="-105.2301695">
  <ele>1625.26</ele>
  <time>2026-08-28T19:08:26Z</time>
  <course>15.87</course>
  <speed>0.022360679774997897</speed>
  <fix>3d</fix>
</trkpt>
<trkpt lat="40.0738271" lon="-105.2301694">
  <ele>1624.71</ele>
  <time>2026-08-28T19:08:26Z</time>
  <course>357.74</course>
  <speed>0.0</speed>
  <fix>3d</fix>
</trkpt>
<trkpt lat="40.0738274" lon="-105.2301695">
  <ele>1625.33</ele>
  <time>2026-08-28T19:08:26Z</time>
  <course>15.88</course>
  <speed>0.022360679774997897</speed>
  <fix>3d</fix>
</trkpt>
<trkpt lat="40.0738274" lon="-105.2301695">
  <ele>1625.76</ele>
  <time>2026-08-28T19:08:26Z</time>
  <course>15.93</course>
  <speed>0.022360679774997897</speed>
  <fix>3d</fix>
</trkpt>
<trkpt lat="40.0738271" lon="-105.2301694">
  <ele>1625.21</ele>
  <time>2026-08-28T19:08:26Z</time>
  <course>358.08</course>
  <speed>0.0</speed>
  <fix>3d</fix>
</trkpt>
<trkpt lat="40.0738274" lon="-105.2301695">
  <ele>1625.77</ele>
  <time>2026-08-28T19:08:26Z</time>
  <course>15.93</course>
  <speed>0.022360679774997897</speed>
  <fix>3d</fix>
</trkpt>
<trkpt lat="40.0738274" lon="-105.2301695">
  <ele>1626.26</ele>
  <time>2026-08-28T19:08:26Z</time>
  <course>15.98</course>
  <speed>0.022360679774997897</speed>
  <fix>3d</fix>
</trkpt>
<trkpt lat="40.0738271" lon="-105.2301694">
  <ele>1625.72</ele>
  <time>2026-08-28T19:08:26Z</time>
  <course>357.71</course>
  <speed>0.0</speed>
  <fix>3d</fix>
</trkpt>
<trkpt lat="40.0738274" lon="-105.2301695">
  <ele>1626.33</ele>
  <time>2026-08-28T19:08:26Z</time>
  <course>15.98</course>
  <speed>0.022360679774997897</speed>
  <fix>3d</fix>
</trkpt>
<trkpt lat="40.0738274" lon="-105.2301695">
  <ele>1626.77</ele>
  <time>2026-08-28T19:08:26Z</time>
  <course>16.0</course>
  <speed>0.022360679774997897</speed>
  <fix>3d</fix>
</trkpt>
<trkpt lat="40.0738271" lon="-105.2301694">
  <ele>1626.23</ele>
  <time>2026-08-28T19:08:26Z</time>
  <course>357.47</course>
  <speed>0.0</speed>
  <fix>3d</fix>
</trkpt>
<trkpt lat="40.0738274" lon="-105.2301695">
  <ele>1626.84</ele>
  <time>2026-08-28T19:08:26Z</time>
  <course>16.01</course>
  <speed>0.022360679774997897</speed>
  <fix>3d</fix>
</trkpt>
<trkpt lat="40.0738274" lon="-105.2301695">
  <ele>1627.27</ele>
  <time>2026-08-28T19:08:26Z</time>
  <course>16.05</course>
  <speed>0.0316227766016838</speed>
  <fix>3d</fix>
</trkpt>
<trkpt lat="40.0738271" lon="-105.2301694">
  <ele>1626.73</ele>
  <time>2026-08-28T19:08:26Z</time>
  <course>357.42</course>
  <speed>0.01</speed>
  <fix>3d</fix>
</trkpt>
<trkpt lat="40.0738274" lon="-105.2301695">
  <ele>1627.34</ele>
  <time>2026-08-28T19:08:26Z</time>
  <course>16.06</course>
  <speed>0.022360679774997897</speed>
  <fix>3d</fix>
</trkpt>
<trkpt lat="40.0738274" lon="-105.2301695">
  <ele>1627.78</ele>
  <time>2026-08-28T19:08:26Z</time>
  <course>16.13</course>
  <speed>0.022360679774997897</speed>
  <fix>3d</fix>
</trkpt>
<trkpt lat="40.0738271" lon="-105.2301694">
  <ele>1627.24</ele>
  <time>2026-08-28T19:08:26Z</time>
  <course>355.8</course>
  <speed>0.01</speed>
  <fix>3d</fix>
</trkpt>
<trkpt lat="40.0738274" lon="-105.2301695">
  <ele>1627.84</ele>
  <time>2026-08-28T19:08:26Z</time>
  <course>16.14</course>
  <speed>0.022360679774997897</speed>
  <fix>3d</fix>
</trkpt>
<trkpt lat="40.0738274" lon="-105.2301695">
  <ele>1628.28</ele>
  <time>2026-08-28T19:08:26Z</time>
  <course>16.18</course>
  <speed>0.022360679774997897</speed>
  <fix>3d</fix>
</trkpt>
<trkpt lat="40.0738272" lon="-105.2301694">
  <ele>1627.74</ele>
  <time>2026-08-28T19:08:26Z</time>
  <course>356.96</course>
  <speed>0.01</speed>
  <fix>3d</fix>
</trkpt>
<trkpt lat="40.0738274" lon="-105.2301695">
  <ele>1628.34</ele>
  <time>2026-08-28T19:08:26Z</time>
  <course>16.18</course>
  <speed>0.022360679774997897</speed>
  <fix>3d</fix>
</trkpt>
<trkpt lat="40.0738274" lon="-105.2301695">
  <ele>1628.78</ele>
  <time>2026-08-28T19:08:26Z</time>
  <course>16.23</course>
  <speed>0.0316227766016838</speed>
  <fix>3d</fix>
</trkpt>
<trkpt lat="40.0738273" lon="-105.2301694">
  <ele>1628.24</ele>
  <time>2026-08-28T19:08:26Z</time>
  <course>357.78</course>
  <speed>0.01</speed>
  <fix>3d</fix>
</trkpt>
<trkpt lat="40.0738274" lon="-105.2301695">
  <ele>1628.85</ele>
  <time>2026-08-28T19:08:26Z</time>
  <course>16.24</course>
  <speed>0.0316227766016838</speed>
  <fix>3d</fix>
</trkpt>
<trkpt lat="40.0738274" lon="-105.2301695">
  <ele>1629.28</ele>
  <time>2026-08-28T19:08:26Z</time>
  <course>16.26</course>
  <speed>0.0316227766016838</speed>
  <fix>3d</fix>
</trkpt>
<trkpt lat="40.0738273" lon="-105.2301694">
  <ele>1628.75</ele>
  <time>2026-08-28T19:08:26Z</time>
  <course>357.33</course>
  <speed>0.01</speed>
  <fix>3d</fix>
</trkpt>
<trkpt lat="40.0738274" lon="-105.2301695">
  <ele>1629.36</ele>
  <time>2026-08-28T19:08:26Z</time>
  <course>16.27</course>
  <speed>0.0316227766016838</speed>
  <fix>3d</fix>
</trkpt>
<trkpt lat="40.0738274" lon="-105.2301695">
  <ele>1629.78</ele>
  <time>2026-08-28T19:08:26Z</time>
  <course>16.3</course>
  <speed>0.0316227766016838</speed>
  <fix>3d</fix>
</trkpt>
<trkpt lat="40.0738273" lon="-105.2301694">
  <ele>1629.25</ele>
  <time>2026-08-28T19:08:26Z</time>
  <course>358.0</course>
  <speed>0.01</speed>
  <fix>3d</fix>
</trkpt>
<trkpt lat="40.0738274" lon="-105.2301695">
  <ele>1629.85</ele>
  <time>2026-08-28T19:08:26Z</time>
  <course>16.3</course>
  <speed>0.0316227766016838</speed>
  <fix>3d</fix>
</trkpt>
<trkpt lat="40.0738274" lon="-105.2301695">
  <ele>1630.29</ele>
  <time>2026-08-28T19:08:26Z</time>
  <course>16.33</course>
  <speed>0.022360679774997897</speed>
  <fix>3d</fix>
</trkpt>
<trkpt lat="40.0738273" lon="-105.2301694">
  <ele>1629.75</ele>
  <time>2026-08-28T19:08:26Z</time>
  <course>357.04</course>
  <speed>0.01</speed>
  <fix>3d</fix>
</trkpt>
<trkpt lat="40.0738274" lon="-105.2301695">
  <ele>1630.35</ele>
  <time>2026-08-28T19:08:26Z</time>
  <course>16.34</course>
  <speed>0.022360679774997897</speed>
  <fix>3d</fix>
</trkpt>
<trkpt lat="40.0738274" lon="-105.2301695">
  <ele>1630.79</ele>
  <time>2026-08-28T19:08:26Z</time>
  <course>16.37</course>
  <speed>0.022360679774997897</speed>
  <fix>3d</fix>
</trkpt>
<trkpt lat="40.0738274" lon="-105.2301694">
  <ele>1630.25</ele>
  <time>2026-08-28T19:08:26Z</time>
  <course>354.86</course>
  <speed>0.01</speed>
  <fix>3d</fix>
</trkpt>
<trkpt lat="40.0738274" lon="-105.2301695">
  <ele>1630.86</ele>
  <time>2026-08-28T19:08:26Z</time>
  <course>16.38</course>
  <speed>0.022360679774997897</speed>
  <fix>3d</fix>
</trkpt>
<trkpt lat="40.0738274" lon="-105.2301695">
  <ele>1631.3</ele>
  <time>2026-08-28T19:08:26Z</time>
  <course>16.41</course>
  <speed>0.022360679774997897</speed>
  <fix>3d</fix>
</trkpt>
<trkpt lat="40.0738274" lon="-105.2301694">
  <ele>1630.75</ele>
  <time>2026-08-28T19:08:26Z</time>
  <course>351.84</course>
  <speed>0.0</speed>
  <fix>3d</fix>
</trkpt>
<trkpt lat="40.0738274" lon="-105.2301695">
  <ele>1631.3</ele>
  <time>2026-08-28T19:08:26Z</time>
  <course>16.41</course>
  <speed>0.022360679774997897</speed>
  <fix>3d</fix>
</trkpt>
<trkpt lat="40.0738275" lon="-105.2301695">
  <ele>1631.8</ele>
  <time>2026-08-28T19:08:26Z</time>
  <course>16.48</course>
  <speed>0.022360679774997897</speed>
  <fix>3d</fix>
</trkpt>
<trkpt lat="40.0738274" lon="-105.2301694">
  <ele>1631.25</ele>
  <time>2026-08-28T19:08:26Z</time>
  <course>344.07</course>
  <speed>0.0</speed>
  <fix>3d</fix>
</trkpt>
<trkpt lat="40.0738275" lon="-105.2301695">
  <ele>1631.86</ele>
  <time>2026-08-28T19:08:26Z</time>
  <course>16.48</course>
  <speed>0.022360679774997897</speed>
  <fix>3d</fix>
</trkpt>
<trkpt lat="40.0738275" lon="-105.2301695">
  <ele>1632.3</ele>
  <time>2026-08-28T19:08:26Z</time>
  <course>16.5</course>
  <speed>0.022360679774997897</speed>
  <fix>3d</fix>
</trkpt>
<trkpt lat="40.0738274" lon="-105.2301694">
  <ele>1631.75</ele>
  <time>2026-08-28T19:08:26Z</time>
  <course>331.13</course>
  <speed>0.0</speed>
  <fix>3d</fix>
</trkpt>
<trkpt lat="40.0738275" lon="-105.2301695">
  <ele>1632.36</ele>
  <time>2026-08-28T19:08:26Z</time>
  <course>16.5</course>
  <speed>0.022360679774997897</speed>
  <fix>3d</fix>
</trkpt>
<trkpt lat="40.0738275" lon="-105.2301695">
  <ele>1632.79</ele>
  <time>2026-08-28T19:08:26Z</time>
  <course>16.52</course>
  <speed>0.01414213562373095</speed>
  <fix>3d</fix>
</trkpt>
<trkpt lat="40.0738274" lon="-105.2301694">
  <ele>1632.25</ele>
  <time>2026-08-28T19:08:26Z</time>
  <course>304.86</course>
  <speed>0.0</speed>
  <fix>3d</fix>
</trkpt>
<trkpt lat="40.0738275" lon="-105.2301695">
  <ele>1632.85</ele>
  <time>2026-08-28T19:08:26Z</time>
  <course>16.53</course>
  <speed>0.01414213562373095</speed>
  <fix>3d</fix>
</trkpt>
<trkpt lat="40.0738275" lon="-105.2301695">
  <ele>1633.29</ele>
  <time>2026-08-28T19:08:26Z</time>
  <course>16.54</course>
  <speed>0.01414213562373095</speed>
  <fix>3d</fix>
</trkpt>
<trkpt lat="40.0738274" lon="-105.2301694">
  <ele>1632.74</ele>
  <time>2026-08-28T19:08:26Z</time>
  <course>223.56</course>
  <speed>0.0</speed>
  <fix>3d</fix>
</trkpt>
<trkpt lat="40.0738275" lon="-105.2301695">
  <ele>1633.3</ele>
  <time>2026-08-28T19:08:26Z</time>
  <course>16.54</course>
  <speed>0.01414213562373095</speed>
  <fix>3d</fix>
</trkpt>
<trkpt lat="40.0738275" lon="-105.2301695">
  <ele>1633.79</ele>
  <time>2026-08-28T19:08:26Z</time>
  <course>16.58</course>
  <speed>0.01414213562373095</speed>
  <fix>3d</fix>
</trkpt>
<trkpt lat="40.0738274" lon="-105.2301694">
  <ele>1633.24</ele>
  <time>2026-08-28T19:08:26Z</time>
  <course>190.82</course>
  <speed>0.0</speed>
  <fix>3d</fix>
</trkpt>
<trkpt lat="40.0738275" lon="-105.2301695">
  <ele>1633.86</ele>
  <time>2026-08-28T19:08:26Z</time>
  <course>16.58</course>
  <speed>0.01414213562373095</speed>
  <fix>3d</fix>
</trkpt>
<trkpt lat="40.0738275" lon="-105.2301695">
  <ele>1634.29</ele>
  <time>2026-08-28T19:08:26Z</time>
  <course>16.6</course>
  <speed>0.01414213562373095</speed>
  <fix>3d</fix>
</trkpt>
<trkpt lat="40.0738274" lon="-105.2301694">
  <ele>1633.74</ele>
  <time>2026-08-28T19:08:26Z</time>
  <course>181.7</course>
  <speed>0.0</speed>
  <fix>3d</fix>
</trkpt>
<trkpt lat="40.0738275" lon="-105.2301695">
  <ele>1634.29</ele>
  <time>2026-08-28T19:08:26Z</time>
  <course>16.6</course>
  <speed>0.01414213562373095</speed>
  <fix>3d</fix>
</trkpt>
<trkpt lat="40.0738275" lon="-105.2301695">
  <ele>1634.78</ele>
  <time>2026-08-28T19:08:26Z</time>
  <course>16.63</course>
  <speed>0.01414213562373095</speed>
  <fix>3d</fix>
</trkpt>
<trkpt lat="40.0738274" lon="-105.2301694">
  <ele>1634.24</ele>
  <time>2026-08-28T19:08:26Z</time>
  <course>178.77</course>
  <speed>0.0</speed>
  <fix>3d</fix>
</trkpt>
<trkpt lat="40.0738275" lon="-105.2301695">
  <ele>1634.85</ele>
  <time>2026-08-28T19:08:26Z</time>
  <course>16.63</course>
  <speed>0.01414213562373095</speed>
  <fix>3d</fix>
</trkpt>
<trkpt lat="40.0738275" lon="-105.2301695">
  <ele>1635.28</ele>
  <time>2026-08-28T19:08:26Z</time>
  <course>16.66</course>
  <speed>0.01414213562373095</speed>
  <fix>3d</fix>
</trkpt>
<trkpt lat="40.0738274" lon="-105.2301694">
  <ele>1634.74</ele>
  <time>2026-08-28T19:08:26Z</time>
  <course>177.1</course>
  <speed>0.0</speed>
  <fix>3d</fix>
</trkpt>
<trkpt lat="40.0738275" lon="-105.2301695">
  <ele>1635.34</ele>
  <time>2026-08-28T19:08:26Z</time>
  <course>16.66</course>
  <speed>0.01414213562373095</speed>
  <fix>3d</fix>
</trkpt>
<trkpt lat="40.0738275" lon="-105.2301695">
  <ele>1635.78</ele>
  <time>2026-08-28T19:08:26Z</time>
  <course>16.69</course>
  <speed>0.01414213562373095</speed>
  <fix>3d</fix>
</trkpt>
<trkpt lat="40.0738274" lon="-105.2301694">
  <ele>1635.24</ele>
  <time>2026-08-28T19:08:26Z</time>
  <course>178.82</course>
  <speed>0.0</speed>
  <fix>3d</fix>
</trkpt>
<trkpt lat="40.0738275" lon="-105.2301695">
  <ele>1635.84</ele>
  <time>2026-08-28T19:08:26Z</time>
  <course>16.69</course>
  <speed>0.01414213562373095</speed>
  <fix>3d</fix>
</trkpt>
<trkpt lat="40.0738275" lon="-105.2301695">
  <ele>1636.27</ele>
  <time>2026-08-28T19:08:26Z</time>
  <course>16.68</course>
  <speed>0.01414213562373095</speed>
  <fix>3d</fix>
</trkpt>
<trkpt lat="40.0738274" lon="-105.2301694">
  <ele>1635.74</ele>
  <time>2026-08-28T19:08:26Z</time>
  <course>183.22</course>
  <speed>0.01</speed>
  <fix>3d</fix>
</trkpt>
<trkpt lat="40.0738275" lon="-105.2301695">
  <ele>1636.35</ele>
  <time>2026-08-28T19:08:26Z</time>
  <course>16.68</course>
  <speed>0.01414213562373095</speed>
  <fix>3d</fix>
</trkpt>
<trkpt lat="40.0738275" lon="-105.2301695">
  <ele>1636.77</ele>
  <time>2026-08-28T19:08:26Z</time>
  <course>16.69</course>
  <speed>0.01414213562373095</speed>
  <fix>3d</fix>
</trkpt>
<trkpt lat="40.0738274" lon="-105.2301694">
  <ele>1636.24</ele>
  <time>2026-08-28T19:08:26Z</time>
  <course>188.24</course>
  <speed>0.01</speed>
  <fix>3d</fix>
</trkpt>
<trkpt lat="40.0738275" lon="-105.2301695">
  <ele>1636.84</ele>
  <time>2026-08-28T19:08:26Z</time>
  <course>16.69</course>
  <speed>0.01414213562373095</speed>
  <fix>3d</fix>
</trkpt>
<trkpt lat="40.0738275" lon="-105.2301695">
  <ele>1637.27</ele>
  <time>2026-08-28T19:08:26Z</time>
  <course>16.73</course>
  <speed>0.01414213562373095</speed>
  <fix>3d</fix>
</trkpt>
<trkpt lat="40.0738274" lon="-105.2301694">
  <ele>1636.74</ele>
  <time>2026-08-28T19:08:26Z</time>
  <course>192.66</course>
  <speed>0.01</speed>
  <fix>3d</fix>
</trkpt>
<trkpt lat="40.0738275" lon="-105.2301695">
  <ele>1637.34</ele>
  <time>2026-08-28T19:08:26Z</time>
  <course>16.73</course>
  <speed>0.01414213562373095</speed>
  <fix>3d</fix>
</trkpt>
<trkpt lat="40.0738275" lon="-105.2301695">
  <ele>1637.77</ele>
  <time>2026-08-28T19:08:26Z</time>
  <course>16.79</course>
  <speed>0.01414213562373095</speed>
  <fix>3d</fix>
</trkpt>
<trkpt lat="40.0738274" lon="-105.2301694">
  <ele>1637.24</ele>
  <time>2026-08-28T19:08:26Z</time>
  <course>195.72</course>
  <speed>0.01</speed>
  <fix>3d</fix>
</trkpt>
<trkpt lat="40.0738275" lon="-105.2301695">
  <ele>1637.84</ele>
  <time>2026-08-28T19:08:26Z</time>
  <course>16.78</course>
  <speed>0.01414213562373095</speed>
  <fix>3d</fix>
</trkpt>
<trkpt lat="40.0738275" lon="-105.2301695">
  <ele>1638.28</ele>
  <time>2026-08-28T19:08:26Z</time>
  <course>16.79</course>
  <speed>0.01414213562373095</speed>
  <fix>3d</fix>
</trkpt>
<trkpt lat="40.0738274" lon="-105.2301694">
  <ele>1637.74</ele>
  <time>2026-08-28T19:08:26Z</time>
  <course>196.91</course>
  <speed>0.01</speed>
  <fix>3d</fix>
</trkpt>
<trkpt lat="40.0738275" lon="-105.2301695">
  <ele>1638.28</ele>
  <time>2026-08-28T19:08:26Z</time>
  <course>16.79</course>
  <speed>0.01414213562373095</speed>
  <fix>3d</fix>
</trkpt>
<trkpt lat="40.0738275" lon="-105.2301695">
  <ele>1638.78</ele>
  <time>2026-08-28T19:08:26Z</time>
  <course>16.84</course>
  <speed>0.01414213562373095</speed>
  <fix>3d</fix>
</trkpt>
<trkpt lat="40.0738273" lon="-105.2301694">
  <ele>1638.25</ele>
  <time>2026-08-28T19:08:26Z</time>
  <course>198.49</course>
  <speed>0.01</speed>
  <fix>3d</fix>
</trkpt>
<trkpt lat="40.0738275" lon="-105.2301695">
  <ele>1638.85</ele>
  <time>2026-08-28T19:08:26Z</time>
  <course>16.84</course>
  <speed>0.01414213562373095</speed>
  <fix>3d</fix>
</trkpt>
<trkpt lat="40.0738275" lon="-105.2301695">
  <ele>1639.28</ele>
  <time>2026-08-28T19:08:26Z</time>
  <course>16.85</course>
  <speed>0.01414213562373095</speed>
  <fix>3d</fix>
</trkpt>
<trkpt lat="40.0738273" lon="-105.2301694">
  <ele>1638.75</ele>
  <time>2026-08-28T19:08:26Z</time>
  <course>200.53</course>
  <speed>0.01</speed>
  <fix>3d</fix>
</trkpt>
<trkpt lat="40.0738275" lon="-105.2301695">
  <ele>1639.34</ele>
  <time>2026-08-28T19:08:26Z</time>
  <course>16.86</course>
  <speed>0.01414213562373095</speed>
  <fix>3d</fix>
</trkpt>
<trkpt lat="40.0738275" lon="-105.2301695">
  <ele>1639.79</ele>
  <time>2026-08-28T19:08:26Z</time>
  <course>16.9</course>
  <speed>0.01414213562373095</speed>
  <fix>3d</fix>
</trkpt>
<trkpt lat="40.0738273" lon="-105.2301694">
  <ele>1639.25</ele>
  <time>2026-08-28T19:08:26Z</time>
  <course>202.63</course>
  <speed>0.01</speed>
  <fix>3d</fix>
</trkpt>
<trkpt lat="40.0738275" lon="-105.2301695">
  <ele>1639.79</ele>
  <time>2026-08-28T19:08:26Z</time>
  <course>16.9</course>
  <speed>0.01414213562373095</speed>
  <fix>3d</fix>
</trkpt>
<trkpt lat="40.0738274" lon="-105.2301695">
  <ele>1640.29</ele>
  <time>2026-08-28T19:08:26Z</time>
  <course>16.93</course>
  <speed>0.01414213562373095</speed>
  <fix>3d</fix>
</trkpt>
<trkpt lat="40.0738273" lon="-105.2301694">
  <ele>1639.75</ele>
  <time>2026-08-28T19:08:26Z</time>
  <course>205.9</course>
  <speed>0.01</speed>
  <fix>3d</fix>
</trkpt>
<trkpt lat="40.0738274" lon="-105.2301695">
  <ele>1640.35</ele>
  <time>2026-08-28T19:08:26Z</time>
  <course>16.93</course>
  <speed>0.01414213562373095</speed>
  <fix>3d</fix>
</trkpt>
<trkpt lat="40.0738274" lon="-105.2301695">
  <ele>1640.79</ele>
  <time>2026-08-28T19:08:26Z</time>
  <course>16.96</course>
  <speed>0.01414213562373095</speed>
  <fix>3d</fix>
</trkpt>
<trkpt lat="40.0738273" lon="-105.2301694">
  <ele>1640.25</ele>
  <time>2026-08-28T19:08:26Z</time>
  <course>208.95</course>
  <speed>0.0</speed>
  <fix>3d</fix>
</trkpt>
<trkpt lat="40.0738274" lon="-105.2301695">
  <ele>1640.8</ele>
  <time>2026-08-28T19:08:26Z</time>
  <course>16.96</course>
  <speed>0.01414213562373095</speed>
  <fix>3d</fix>
</trkpt>
<trkpt lat="40.0738274" lon="-105.2301695">
  <ele>1641.29</ele>
  <time>2026-08-28T19:08:26Z</time>
  <course>16.99</course>
  <speed>0.01414213562373095</speed>
  <fix>3d</fix>
</trkpt>
<trkpt lat="40.0738272" lon="-105.2301694">
  <ele>1640.75</ele>
  <time>2026-08-28T19:08:26Z</time>
  <course>212.59</course>
  <speed>0.0</speed>
  <fix>3d</fix>
</trkpt>
<trkpt lat="40.0738274" lon="-105.2301695">
  <ele>1641.36</ele>
  <time>2026-08-28T19:08:26Z</time>
  <course>16.99</course>
  <speed>0.01414213562373095</speed>
  <fix>3d</fix>
</trkpt>
<trkpt lat="40.0738274" lon="-105.2301695">
  <ele>1641.79</ele>
  <time>2026-08-28T19:08:26Z</time>
  <course>17.01</course>
  <speed>0.01414213562373095</speed>
  <fix>3d</fix>
</trkpt>
<trkpt lat="40.0738271" lon="-105.2301694">
  <ele>1641.25</ele>
  <time>2026-08-28T19:08:26Z</time>
  <course>215.28</course>
  <speed>0.0</speed>
  <fix>3d</fix>
</trkpt>
<trkpt lat="40.0738274" lon="-105.2301695">
  <ele>1641.86</ele>
  <time>2026-08-28T19:08:26Z</time>
  <course>17.01</course>
  <speed>0.01414213562373095</speed>
  <fix>3d</fix>
</trkpt>
<trkpt lat="40.0738274" lon="-105.2301695">
  <ele>1642.29</ele>
  <time>2026-08-28T19:08:26Z</time>
  <course>17.03</course>
  <speed>0.01414213562373095</speed>
  <fix>3d</fix>
</trkpt>
<trkpt lat="40.0738271" lon="-105.2301694">
  <ele>1641.75</ele>
  <time>2026-08-28T19:08:26Z</time>
  <course>216.65</course>
  <speed>0.0</speed>
  <fix>3d</fix>
</trkpt>
<trkpt lat="40.0738274" lon="-105.2301695">
  <ele>1642.3</ele>
  <time>2026-08-28T19:08:26Z</time>
  <course>17.03</course>
  <speed>0.01414213562373095</speed>
  <fix>3d</fix>
</trkpt>
<trkpt lat="40.0738274" lon="-105.2301695">
  <ele>1642.79</ele>
  <time>2026-08-28T19:08:26Z</time>
  <course>17.08</course>
  <speed>0.01414213562373095</speed>
  <fix>3d</fix>
</trkpt>
<trkpt lat="40.0738271" lon="-105.2301694">
  <ele>1642.25</ele>
  <time>2026-08-28T19:08:26Z</time>
  <course>220.76</course>
  <speed>0.0</speed>
  <fix>3d</fix>
</trkpt>
<trkpt lat="40.0738274" lon="-105.2301695">
  <ele>1642.84</ele>
  <time>2026-08-28T19:08:26Z</time>
  <course>17.08</course>
  <speed>0.01414213562373095</speed>
  <fix>3d</fix>
</trkpt>
<trkpt lat="40.0738274" lon="-105.2301695">
  <ele>1643.29</ele>
  <time>2026-08-28T19:08:26Z</time>
  <course>17.08</course>
  <speed>0.022360679774997897</speed>
  <fix>3d</fix>
</trkpt>
<trkpt lat="40.0738271" lon="-105.2301694">
  <ele>1642.75</ele>
  <time>2026-08-28T19:08:26Z</time>
  <course>229.45</course>
  <speed>0.0</speed>
  <fix>3d</fix>
</trkpt>
<trkpt lat="40.0738274" lon="-105.2301695">
  <ele>1643.3</ele>
  <time>2026-08-28T19:08:26Z</time>
  <course>17.08</course>
  <speed>0.022360679774997897</speed>
  <fix>3d</fix>
</trkpt>
<trkpt lat="40.0738274" lon="-105.2301695">
  <ele>1643.79</ele>
  <time>2026-08-28T19:08:26Z</time>
  <course>17.11</course>
  <speed>0.022360679774997897</speed>
  <fix>3d</fix>
</trkpt>
<trkpt lat="40.0738271" lon="-105.2301694">
  <ele>1643.25</ele>
  <time>2026-08-28T19:08:26Z</time>
  <course>261.99</course>
  <speed>0.0</speed>
  <fix>3d</fix>
</trkpt>
<trkpt lat="40.0738274" lon="-105.2301695">
  <ele>1643.86</ele>
  <time>2026-08-28T19:08:26Z</time>
  <course>17.11</course>
  <speed>0.022360679774997897</speed>
  <fix>3d</fix>
</trkpt>
<trkpt lat="40.0738274" lon="-105.2301695">
  <ele>1644.29</ele>
  <time>2026-08-28T19:08:26Z</time>
  <course>17.13</course>
  <speed>0.022360679774997897</speed>
  <fix>3d</fix>
</trkpt>
<trkpt lat="40.0738271" lon="-105.2301694">
  <ele>1643.74</ele>
  <time>2026-08-28T19:08:26Z</time>
  <course>312.94</course>
  <speed>0.0</speed>
  <fix>3d</fix>
</trkpt>
<trkpt lat="40.0738274" lon="-105.2301695">
  <ele>1644.37</ele>
  <time>2026-08-28T19:08:26Z</time>
  <course>17.12</course>
  <speed>0.022360679774997897</speed>
  <fix>3d</fix>
</trkpt>
<trkpt lat="40.0738274" lon="-105.2301695">
  <ele>1644.79</ele>
  <time>2026-08-28T19:08:26Z</time>
  <course>17.15</course>
  <speed>0.022360679774997897</speed>
  <fix>3d</fix>
</trkpt>
<trkpt lat="40.0738271" lon="-105.2301694">
  <ele>1644.24</ele>
  <time>2026-08-28T19:08:26Z</time>
  <course>326.96</course>
  <speed>0.0</speed>
  <fix>3d</fix>
</trkpt>
<trkpt lat="40.0738274" lon="-105.2301695">
  <ele>1644.85</ele>
  <time>2026-08-28T19:08:26Z</time>
  <course>17.15</course>
  <speed>0.022360679774997897</speed>
  <fix>3d</fix>
</trkpt>
<trkpt lat="40.0738274" lon="-105.2301695">
  <ele>1645.29</ele>
  <time>2026-08-28T19:08:26Z</time>
  <course>17.16</course>
  <speed>0.022360679774997897</speed>
  <fix>3d</fix>
</trkpt>
<trkpt lat="40.0738271" lon="-105.2301694">
  <ele>1644.74</ele>
  <time>2026-08-28T19:08:26Z</time>
  <course>336.71</course>
  <speed>0.0</speed>
  <fix>3d</fix>
</trkpt>
<trkpt lat="40.0738274" lon="-105.2301695">
  <ele>1645.35</ele>
  <time>2026-08-28T19:08:26Z</time>
  <course>17.16</course>
  <speed>0.022360679774997897</speed>
  <fix>3d</fix>
</trkpt>
<trkpt lat="40.0738274" lon="-105.2301695">
  <ele>1645.79</ele>
  <time>2026-08-28T19:08:26Z</time>
  <course>17.18</course>
  <speed>0.022360679774997897</speed>
  <fix>3d</fix>
</trkpt>
<trkpt lat="40.0738271" lon="-105.2301694">
  <ele>1645.24</ele>
  <time>2026-08-28T19:08:26Z</time>
  <course>346.35</course>
  <speed>0.0</speed>
  <fix>3d</fix>
</trkpt>
<trkpt lat="40.0738274" lon="-105.2301695">
  <ele>1645.8</ele>
  <time>2026-08-28T19:08:26Z</time>
  <course>17.18</course>
  <speed>0.022360679774997897</speed>
  <fix>3d</fix>
</trkpt>
<trkpt lat="40.0738274" lon="-105.2301695">
  <ele>1646.29</ele>
  <time>2026-08-28T19:08:26Z</time>
  <course>17.2</course>
  <speed>0.022360679774997897</speed>
  <fix>3d</fix>
</trkpt>
<trkpt lat="40.0738271" lon="-105.2301694">
  <ele>1645.73</ele>
  <time>2026-08-28T19:08:26Z</time>
  <course>350.07</course>
  <speed>0.0</speed>
  <fix>3d</fix>
</trkpt>
<trkpt lat="40.0738274" lon="-105.2301695">
  <ele>1646.37</ele>
  <time>2026-08-28T19:08:26Z</time>
  <course>17.21</course>
  <speed>0.022360679774997897</speed>
  <fix>3d</fix>
</trkpt>
<trkpt lat="40.0738274" lon="-105.2301695">
  <ele>1646.79</ele>
  <time>2026-08-28T19:08:26Z</time>
  <course>17.22</course>
  <speed>0.022360679774997897</speed>
  <fix>3d</fix>
</trkpt>
<trkpt lat="40.0738271" lon="-105.2301694">
  <ele>1646.23</ele>
  <time>2026-08-28T19:08:26Z</time>
  <course>349.08</course>
  <speed>0.0</speed>
  <fix>3d</fix>
</trkpt>
<trkpt lat="40.0738274" lon="-105.2301695">
  <ele>1646.86</ele>
  <time>2026-08-28T19:08:26Z</time>
  <course>17.23</course>
  <speed>0.022360679774997897</speed>
  <fix>3d</fix>
</trkpt>
<trkpt lat="40.0738274" lon="-105.2301695">
  <ele>1647.28</ele>
  <time>2026-08-28T19:08:26Z</time>
  <course>17.23</course>
  <speed>0.022360679774997897</speed>
  <fix>3d</fix>
</trkpt>
<trkpt lat="40.0738271" lon="-105.2301694">
  <ele>1646.73</ele>
  <time>2026-08-28T19:08:26Z</time>
  <course>345.77</course>
  <speed>0.0</speed>
  <fix>3d</fix>
</trkpt>
<trkpt lat="40.0738274" lon="-105.2301695">
  <ele>1647.35</ele>
  <time>2026-08-28T19:08:26Z</time>
  <course>17.24</course>
  <speed>0.022360679774997897</speed>
  <fix>3d</fix>
</trkpt>
<trkpt lat="40.0738273" lon="-105.2301695">
  <ele>1647.78</ele>
  <time>2026-08-28T19:08:26Z</time>
  <course>17.24</course>
  <speed>0.022360679774997897</speed>
  <fix>3d</fix>
</trkpt>
<trkpt lat="40.0738271" lon="-105.2301694">
  <ele>1647.23</ele>
  <time>2026-08-28T19:08:26Z</time>
  <course>344.19</course>
  <speed>0.01</speed>
  <fix>3d</fix>
</trkpt>
<trkpt lat="40.0738273" lon="-105.2301695">
  <ele>1647.85</ele>
  <time>2026-08-28T19:08:26Z</time>
  <course>17.25</course>
  <speed>0.022360679774997897</speed>
  <fix>3d</fix>
</trkpt>
<trkpt lat="40.0738273" lon="-105.2301695">
  <ele>1648.28</ele>
  <time>2026-08-28T19:08:26Z</time>
  <course>17.26</course>
  <speed>0.022360679774997897</speed>
  <fix>3d</fix>
</trkpt>
<trkpt lat="40.0738271" lon="-105.2301694">
  <ele>1647.73</ele>
  <time>2026-08-28T19:08:26Z</time>
  <course>344.75</course>
  <speed>0.01</speed>
  <fix>3d</fix>
</trkpt>
<trkpt lat="40.0738273" lon="-105.2301695">
  <ele>1648.29</ele>
  <time>2026-08-28T19:08:26Z</time>
  <course>17.26</course>
  <speed>0.022360679774997897</speed>
  <fix>3d</fix>
</trkpt>
<trkpt lat="40.0738273" lon="-105.2301695">
  <ele>1648.78</ele>
  <time>2026-08-28T19:08:26Z</time>
  <course>17.27</course>
  <speed>0.022360679774997897</speed>
  <fix>3d</fix>
</trkpt>
<trkpt lat="40.0738271" lon="-105.2301694">
  <ele>1648.23</ele>
  <time>2026-08-28T19:08:26Z</time>
  <course>345.41</course>
  <speed>0.01</speed>
  <fix>3d</fix>
</trkpt>
<trkpt lat="40.0738273" lon="-105.2301695">
  <ele>1648.85</ele>
  <time>2026-08-28T19:08:26Z</time>
  <course>17.28</course>
  <speed>0.022360679774997897</speed>
  <fix>3d</fix>
</trkpt>
<trkpt lat="40.0738273" lon="-105.2301695">
  <ele>1649.28</ele>
  <time>2026-08-28T19:08:26Z</time>
  <course>17.29</course>
  <speed>0.022360679774997897</speed>
  <fix>3d</fix>
</trkpt>
<trkpt lat="40.0738272" lon="-105.2301694">
  <ele>1648.73</ele>
  <time>2026-08-28T19:08:26Z</time>
  <course>345.91</course>
  <speed>0.01</speed>
  <fix>3d</fix>
</trkpt>
<trkpt lat="40.0738273" lon="-105.2301695">
  <ele>1649.35</ele>
  <time>2026-08-28T19:08:26Z</time>
  <course>17.29</course>
  <speed>0.022360679774997897</speed>
  <fix>3d</fix>
</trkpt>
<trkpt lat="40.0738273" lon="-105.2301695">
  <ele>1649.78</ele>
  <time>2026-08-28T19:08:26Z</time>
  <course>17.31</course>
  <speed>0.022360679774997897</speed>
  <fix>3d</fix>
</trkpt>
<trkpt lat="40.0738273" lon="-105.2301694">
  <ele>1649.23</ele>
  <time>2026-08-28T19:08:26Z</time>
  <course>345.45</course>
  <speed>0.01</speed>
  <fix>3d</fix>
</trkpt>
<trkpt lat="40.0738273" lon="-105.2301695">
  <ele>1649.83</ele>
  <time>2026-08-28T19:08:26Z</time>
  <course>17.32</course>
  <speed>0.022360679774997897</speed>
  <fix>3d</fix>
</trkpt>
<trkpt lat="40.0738273" lon="-105.2301695">
  <ele>1650.28</ele>
  <time>2026-08-28T19:08:26Z</time>
  <course>17.31</course>
  <speed>0.022360679774997897</speed>
  <fix>3d</fix>
</trkpt>
<trkpt lat="40.0738273" lon="-105.2301694">
  <ele>1649.73</ele>
  <time>2026-08-28T19:08:26Z</time>
  <course>343.98</course>
  <speed>0.01</speed>
  <fix>3d</fix>
</trkpt>
<trkpt lat="40.0738273" lon="-105.2301695">
  <ele>1650.35</ele>
  <time>2026-08-28T19:08:26Z</time>
  <course>17.32</course>
  <speed>0.022360679774997897</speed>
  <fix>3d</fix>
</trkpt>
<trkpt lat="40.0738274" lon="-105.2301695">
  <ele>1650.79</ele>
  <time>2026-08-28T19:08:26Z</time>
  <course>17.34</course>
  <speed>0.022360679774997897</speed>
  <fix>3d</fix>
</trkpt>
<trkpt lat="40.0738273" lon="-105.2301694">
  <ele>1650.23</ele>
  <time>2026-08-28T19:08:26Z</time>
  <course>341.16</course>
  <speed>0.0</speed>
  <fix>3d</fix>
</trkpt>
<trkpt lat="40.0738274" lon="-105.2301695">
  <ele>1650.8</ele>
  <time>2026-08-28T19:08:26Z</time>
  <course>17.34</course>
  <speed>0.022360679774997897</speed>
  <fix>3d</fix>
</trkpt>
<trkpt lat="40.0738274" lon="-105.2301695">
  <ele>1651.29</ele>
  <time>2026-08-28T19:08:26Z</time>
  <course>17.36</course>
  <speed>0.022360679774997897</speed>
  <fix>3d</fix>
</trkpt>
<trkpt lat="40.0738273" lon="-105.2301694">
  <ele>1650.72</ele>
  <time>2026-08-28T19:08:26Z</time>
  <course>336.9</course>
  <speed>0.0</speed>
  <fix>3d</fix>
</trkpt>
<trkpt lat="40.0738274" lon="-105.2301695">
  <ele>1651.36</ele>
  <time>2026-08-28T19:08:26Z</time>
  <course>17.36</course>
  <speed>0.022360679774997897</speed>
  <fix>3d</fix>
</trkpt>
<trkpt lat="40.0738274" lon="-105.2301695">
  <ele>1651.79</ele>
  <time>2026-08-28T19:08:26Z</time>
  <course>17.4</course>
  <speed>0.022360679774997897</speed>
  <fix>3d</fix>
</trkpt>
<trkpt lat="40.0738273" lon="-105.2301694">
  <ele>1651.22</ele>
  <time>2026-08-28T19:08:26Z</time>
  <course>331.19</course>
  <speed>0.0</speed>
  <fix>3d</fix>
</trkpt>
<trkpt lat="40.0738274" lon="-105.2301695">
  <ele>1651.85</ele>
  <time>2026-08-28T19:08:26Z</time>
  <course>17.4</course>
  <speed>0.022360679774997897</speed>
  <fix>3d</fix>
</trkpt>
<trkpt lat="40.0738274" lon="-105.2301695">
  <ele>1652.29</ele>
  <time>2026-08-28T19:08:26Z</time>
  <course>17.4</course>
  <speed>0.022360679774997897</speed>
  <fix>3d</fix>
</trkpt>
<trkpt lat="40.0738273" lon="-105.2301694">
  <ele>1651.72</ele>
  <time>2026-08-28T19:08:26Z</time>
  <course>324.63</course>
  <speed>0.0</speed>
  <fix>3d</fix>
</trkpt>
<trkpt lat="40.0738274" lon="-105.2301695">
  <ele>1652.36</ele>
  <time>2026-08-28T19:08:26Z</time>
  <course>17.41</course>
  <speed>0.022360679774997897</speed>
  <fix>3d</fix>
</trkpt>
<trkpt lat="40.0738274" lon="-105.2301695">
  <ele>1652.79</ele>
  <time>2026-08-28T19:08:26Z</time>
  <course>17.4</course>
  <speed>0.022360679774997897</speed>
  <fix>3d</fix>
</trkpt>
<trkpt lat="40.0738274" lon="-105.2301694">
  <ele>1652.22</ele>
  <time>2026-08-28T19:08:26Z</time>
  <course>319.99</course>
  <speed>0.0</speed>
  <fix>3d</fix>
</trkpt>
<trkpt lat="40.0738274" lon="-105.2301695">
  <ele>1652.86</ele>
  <time>2026-08-28T19:08:26Z</time>
  <course>17.41</course>
  <speed>0.022360679774997897</speed>
  <fix>3d</fix>
</trkpt>
<trkpt lat="40.0738274" lon="-105.2301695">
  <ele>1653.29</ele>
  <time>2026-08-28T19:08:26Z</time>
  <course>17.42</course>
  <speed>0.01414213562373095</speed>
  <fix>3d</fix>
</trkpt>
<trkpt lat="40.0738274" lon="-105.2301694">
  <ele>1652.72</ele>
  <time>2026-08-28T19:08:26Z</time>
  <course>314.52</course>
  <speed>0.0</speed>
  <fix>3d</fix>
</trkpt>
<trkpt lat="40.0738274" lon="-105.2301695">
  <ele>1653.3</ele>
  <time>2026-08-28T19:08:26Z</time>
  <course>17.43</course>
  <speed>0.01414213562373095</speed>
  <fix>3d</fix>
</trkpt>
<trkpt lat="40.0738274" lon="-105.2301695">
  <ele>1653.79</ele>
  <time>2026-08-28T19:08:26Z</time>
  <course>17.44</course>
  <speed>0.01414213562373095</speed>
  <fix>3d</fix>
</trkpt>
<trkpt lat="40.0738274" lon="-105.2301694">
  <ele>1653.22</ele>
  <time>2026-08-28T19:08:26Z</time>
  <course>291.44</course>
  <speed>0.0</speed>
  <fix>3d</fix>
</trkpt>
<trkpt lat="40.0738274" lon="-105.2301695">
  <ele>1653.86</ele>
  <time>2026-08-28T19:08:26Z</time>
  <course>17.44</course>
  <speed>0.01414213562373095</speed>
  <fix>3d</fix>
</trkpt>
<trkpt lat="40.0738274" lon="-105.2301695">
  <ele>1654.29</ele>
  <time>2026-08-28T19:08:26Z</time>
  <course>17.46</course>
  <speed>0.01414213562373095</speed>
  <fix>3d</fix>
</trkpt>
<trkpt lat="40.0738274" lon="-105.2301694">
  <ele>1653.72</ele>
  <time>2026-08-28T19:08:26Z</time>
  <course>251.52</course>
  <speed>0.0</speed>
  <fix>3d</fix>
</trkpt>
<trkpt lat="40.0738274" lon="-105.2301695">
  <ele>1654.35</ele>
  <time>2026-08-28T19:08:26Z</time>
  <course>17.46</course>
  <speed>0.01414213562373095</speed>
  <fix>3d</fix>
</trkpt>
<trkpt lat="40.0738274" lon="-105.2301695">
  <ele>1654.78</ele>
  <time>2026-08-28T19:08:26Z</time>
  <course>17.47</course>
  <speed>0.01414213562373095</speed>
  <fix>3d</fix>
</trkpt>
<trkpt lat="40.0738274" lon="-105.2301694">
  <ele>1654.21</ele>
  <time>2026-08-28T19:08:26Z</time>
  <course>221.13</course>
  <speed>0.0</speed>
  <fix>3d</fix>
</trkpt>
<trkpt lat="40.0738274" lon="-105.2301695">
  <ele>1654.85</ele>
  <time>2026-08-28T19:08:26Z</time>
  <course>17.47</course>
  <speed>0.01414213562373095</speed>
  <fix>3d</fix>
</trkpt>
<trkpt lat="40.0738274" lon="-105.2301695">
  <ele>1655.28</ele>
  <time>2026-08-28T19:08:26Z</time>
  <course>17.48</course>
  <speed>0.01414213562373095</speed>
  <fix>3d</fix>
</trkpt>
<trkpt lat="40.0738274" lon="-105.2301694">
  <ele>1654.71</ele>
  <time>2026-08-28T19:08:26Z</time>
  <course>205.29</course>
  <speed>0.0</speed>
  <fix>3d</fix>
</trkpt>
<trkpt lat="40.0738274" lon="-105.2301695">
  <ele>1655.34</ele>
  <time>2026-08-28T19:08:26Z</time>
  <course>17.48</course>
  <speed>0.01414213562373095</speed>
  <fix>3d</fix>
</trkpt>
<trkpt lat="40.0738274" lon="-105.2301695">
  <ele>1655.78</ele>
  <time>2026-08-28T19:08:26Z</time>
  <course>17.49</course>
  <speed>0.01414213562373095</speed>
  <fix>3d</fix>
</trkpt>
<trkpt lat="40.0738274" lon="-105.2301695">
  <ele>1655.21</ele>
  <time>2026-08-28T19:08:26Z</time>
  <course>197.09</course>
  <speed>0.0</speed>
  <fix>3d</fix>
</trkpt>
<trkpt lat="40.0738274" lon="-105.2301695">
  <ele>1655.85</ele>
  <time>2026-08-28T19:08:26Z</time>
  <course>17.49</course>
  <speed>0.01414213562373095</speed>
  <fix>3d</fix>
</trkpt>
<trkpt lat="40.0738274" lon="-105.2301695">
  <ele>1656.28</ele>
  <time>2026-08-28T19:08:26Z</time>
  <course>17.47</course>
  <speed>0.01414213562373095</speed>
  <fix>3d</fix>
</trkpt>
<trkpt lat="40.0738274" lon="-105.2301696">
  <ele>1655.71</ele>
  <time>2026-08-28T19:08:26Z</time>
  <course>191.86</course>
  <speed>0.0</speed>
  <fix>3d</fix>
</trkpt>
<trkpt lat="40.0738274" lon="-105.2301695">
  <ele>1656.29</ele>
  <time>2026-08-28T19:08:26Z</time>
  <course>17.47</course>
  <speed>0.01414213562373095</speed>
  <fix>3d</fix>
</trkpt>
<trkpt lat="40.0738274" lon="-105.2301695">
  <ele>1656.77</ele>
  <time>2026-08-28T19:08:26Z</time>
  <course>17.5</course>
  <speed>0.01414213562373095</speed>
  <fix>3d</fix>
</trkpt>
<trkpt lat="40.0738274" lon="-105.2301696">
  <ele>1656.21</ele>
  <time>2026-08-28T19:08:26Z</time>
  <course>191.15</course>
  <speed>0.0</speed>
  <fix>3d</fix>
</trkpt>
<trkpt lat="40.0738274" lon="-105.2301695">
  <ele>1656.82</ele>
  <time>2026-08-28T19:08:26Z</time>
  <course>17.5</course>
  <speed>0.01414213562373095</speed>
  <fix>3d</fix>
</trkpt>
<trkpt lat="40.0738274" lon="-105.2301695">
  <ele>1657.27</ele>
  <time>2026-08-28T19:08:26Z</time>
  <course>17.51</course>
  <speed>0.01414213562373095</speed>
  <fix>3d</fix>
</trkpt>
<trkpt lat="40.0738274" lon="-105.2301696">
  <ele>1656.71</ele>
  <time>2026-08-28T19:08:26Z</time>
  <course>190.56</course>
  <speed>0.0</speed>
  <fix>3d</fix>
</trkpt>
<trkpt lat="40.0738274" lon="-105.2301696">
  <ele>1657.34</ele>
  <time>2026-08-28T19:08:26Z</time>
  <course>17.52</course>
  <speed>0.01414213562373095</speed>
  <fix>3d</fix>
</trkpt>
<trkpt lat="40.0738274" lon="-105.2301696">
  <ele>1657.78</ele>
  <time>2026-08-28T19:08:26Z</time>
  <course>17.51</course>
  <speed>0.01414213562373095</speed>
  <fix>3d</fix>
</trkpt>
<trkpt lat="40.0738274" lon="-105.2301696">
  <ele>1657.21</ele>
  <time>2026-08-28T19:08:26Z</time>
  <course>185.18</course>
  <speed>0.01</speed>
  <fix>3d</fix>
</trkpt>
<trkpt lat="40.0738274" lon="-105.2301696">
  <ele>1657.84</ele>
  <time>2026-08-28T19:08:26Z</time>
  <course>17.51</course>
  <speed>0.01414213562373095</speed>
  <fix>3d</fix>
</trkpt>
<trkpt lat="40.0738274" lon="-105.2301696">
  <ele>1658.29</ele>
  <time>2026-08-28T19:08:26Z</time>
  <course>17.54</course>
  <speed>0.01414213562373095</speed>
  <fix>3d</fix>
</trkpt>
<trkpt lat="40.0738274" lon="-105.2301696">
  <ele>1657.71</ele>
  <time>2026-08-28T19:08:26Z</time>
  <course>180.67</course>
  <speed>0.01</speed>
  <fix>3d</fix>
</trkpt>
<trkpt lat="40.0738274" lon="-105.2301696">
  <ele>1658.35</ele>
  <time>2026-08-28T19:08:26Z</time>
  <course>17.54</course>
  <speed>0.01414213562373095</speed>
  <fix>3d</fix>
</trkpt>
<trkpt lat="40.0738274" lon="-105.2301696">
  <ele>1658.79</ele>
  <time>2026-08-28T19:08:26Z</time>
  <course>17.57</course>
  <speed>0.01414213562373095</speed>
  <fix>3d</fix>
</trkpt>
<trkpt lat="40.0738273" lon="-105.2301696">
  <ele>1658.21</ele>
  <time>2026-08-28T19:08:26Z</time>
  <course>178.32</course>
  <speed>0.01</speed>
  <fix>3d</fix>
</trkpt>
<trkpt lat="40.0738274" lon="-105.2301696">
  <ele>1658.81</ele>
  <time>2026-08-28T19:08:26Z</time>
  <course>17.57</course>
  <speed>0.01414213562373095</speed>
  <fix>3d</fix>
</trkpt>
<trkpt lat="40.0738274" lon="-105.2301696">
  <ele>1659.3</ele>
  <time>2026-08-28T19:08:26Z</time>
  <course>17.59</course>
  <speed>0.01414213562373095</speed>
  <fix>3d</fix>
</trkpt>
<trkpt lat="40.0738273" lon="-105.2301696">
  <ele>1658.71</ele>
  <time>2026-08-28T19:08:26Z</time>
  <course>174.46</course>
  <speed>0.01</speed>
  <fix>3d</fix>
</trkpt>
<trkpt lat="40.0738274" lon="-105.2301696">
  <ele>1659.37</ele>
  <time>2026-08-28T19:08:26Z</time>
  <course>17.6</course>
  <speed>0.01414213562373095</speed>
  <fix>3d</fix>
</trkpt>
<trkpt lat="40.0738274" lon="-105.2301696">
  <ele>1659.8</ele>
  <time>2026-08-28T19:08:26Z</time>
  <course>17.62</course>
  <speed>0.01414213562373095</speed>
  <fix>3d</fix>
</trkpt>
<trkpt lat="40.0738273" lon="-105.2301696">
  <ele>1659.21</ele>
  <time>2026-08-28T19:08:26Z</time>
  <course>167.54</course>
  <speed>0.01</speed>
  <fix>3d</fix>
</trkpt>
<trkpt lat="40.0738274" lon="-105.2301696">
  <ele>1659.87</ele>
  <time>2026-08-28T19:08:26Z</time>
  <course>17.62</course>
  <speed>0.01414213562373095</speed>
  <fix>3d</fix>
</trkpt>
<trkpt lat="40.0738274" lon="-105.2301696">
  <ele>1660.3</ele>
  <time>2026-08-28T19:08:27Z</time>
  <course>17.61</course>
  <speed>0.01</speed>
  <fix>3d</fix>
</trkpt>
<trkpt lat="40.0738273" lon="-105.2301696">
  <ele>1659.7</ele>
  <time>2026-08-28T19:08:27Z</time>
  <course>158.6</course>
  <speed>0.01</speed>
  <fix>3d</fix>
</trkpt>
<trkpt lat="40.0738274" lon="-105.2301696">
  <ele>1660.37</ele>
  <time>2026-08-28T19:08:27Z</time>
  <course>17.62</course>
  <speed>0.01</speed>
  <fix>3d</fix>
</trkpt>
<trkpt lat="40.0738274" lon="-105.2301696">
  <ele>1660.8</ele>
  <time>2026-08-28T19:08:27Z</time>
  <course>17.64</course>
  <speed>0.01</speed>
  <fix>3d</fix>
</trkpt>
<trkpt lat="40.0738273" lon="-105.2301696">
  <ele>1660.2</ele>
  <time>2026-08-28T19:08:27Z</time>
  <course>150.04</course>
  <speed>0.01</speed>
  <fix>3d</fix>
</trkpt>
<trkpt lat="40.0738274" lon="-105.2301696">
  <ele>1660.87</ele>
  <time>2026-08-28T19:08:27Z</time>
  <course>17.64</course>
  <speed>0.01</speed>
  <fix>3d</fix>
</trkpt>
<trkpt lat="40.0738274" lon="-105.2301696">
  <ele>1661.3</ele>
  <time>2026-08-28T19:08:27Z</time>
  <course>17.63</course>
  <speed>0.01</speed>
  <fix>3d</fix>
</trkpt>
<trkpt lat="40.0738272" lon="-105.2301696">
  <ele>1660.69</ele>
  <time>2026-08-28T19:08:27Z</time>
  <course>141.6</course>
  <speed>0.01</speed>
  <fix>3d</fix>
</trkpt>
<trkpt lat="40.0738274" lon="-105.2301696">
  <ele>1661.38</ele>
  <time>2026-08-28T19:08:27Z</time>
  <course>17.63</course>
  <speed>0.01</speed>
  <fix>3d</fix>
</trkpt>
<trkpt lat="40.0738274" lon="-105.2301696">
  <ele>1661.79</ele>
  <time>2026-08-28T19:08:27Z</time>
  <course>17.65</course>
  <speed>0.01</speed>
  <fix>3d</fix>
</trkpt>
<trkpt lat="40.0738271" lon="-105.2301696">
  <ele>1661.19</ele>
  <time>2026-08-28T19:08:27Z</time>
  <course>134.28</course>
  <speed>0.01</speed>
  <fix>3d</fix>
</trkpt>
<trkpt lat="40.0738274" lon="-105.2301696">
  <ele>1661.8</ele>
  <time>2026-08-28T19:08:27Z</time>
  <course>17.65</course>
  <speed>0.01</speed>
  <fix>3d</fix>
</trkpt>
<trkpt lat="40.0738274" lon="-105.2301696">
  <ele>1662.29</ele>
  <time>2026-08-28T19:08:27Z</time>
  <course>17.65</course>
  <speed>0.01</speed>
  <fix>3d</fix>
</trkpt>
<trkpt lat="40.0738271" lon="-105.2301696">
  <ele>1661.69</ele>
  <time>2026-08-28T19:08:27Z</time>
  <course>128.36</course>
  <speed>0.01</speed>
  <fix>3d</fix>
</trkpt>
<trkpt lat="40.0738274" lon="-105.2301696">
  <ele>1662.36</ele>
  <time>2026-08-28T19:08:27Z</time>
  <course>17.65</course>
  <speed>0.01</speed>
  <fix>3d</fix>
</trkpt>
<trkpt lat="40.0738273" lon="-105.2301696">
  <ele>1662.78</ele>
  <time>2026-08-28T19:08:27Z</time>
  <course>17.66</course>
  <speed>0.01</speed>
  <fix>3d</fix>
</trkpt>
<trkpt lat="40.0738271" lon="-105.2301696">
  <ele>1662.18</ele>
  <time>2026-08-28T19:08:27Z</time>
  <course>120.14</course>
  <speed>0.0</speed>
  <fix>3d</fix>
</trkpt>
<trkpt lat="40.0738273" lon="-105.2301696">
  <ele>1662.84</ele>
  <time>2026-08-28T19:08:27Z</time>
  <course>17.66</course>
  <speed>0.01</speed>
  <fix>3d</fix>
</trkpt>
<trkpt lat="40.0738273" lon="-105.2301696">
  <ele>1663.28</ele>
  <time>2026-08-28T19:08:27Z</time>
  <course>17.65</course>
  <speed>0.02</speed>
  <fix>3d</fix>
</trkpt>
<trkpt lat="40.0738271" lon="-105.2301695">
  <ele>1662.68</ele>
  <time>2026-08-28T19:08:27Z</time>
  <course>107.81</course>
  <speed>0.0</speed>
  <fix>3d</fix>
</trkpt>
<trkpt lat="40.0738273" lon="-105.2301696">
  <ele>1663.28</ele>
  <time>2026-08-28T19:08:27Z</time>
  <course>17.65</course>
  <speed>0.02</speed>
  <fix>3d</fix>
</trkpt>
<trkpt lat="40.0738273" lon="-105.2301696">
  <ele>1663.77</ele>
  <time>2026-08-28T19:08:27Z</time>
  <course>17.66</course>
  <speed>0.02</speed>
  <fix>3d</fix>
</trkpt>
<trkpt lat="40.0738271" lon="-105.2301694">
  <ele>1663.18</ele>
  <time>2026-08-28T19:08:27Z</time>
  <course>92.89</course>
  <speed>0.0</speed>
  <fix>3d</fix>
</trkpt>
<trkpt lat="40.0738273" lon="-105.2301696">
  <ele>1663.83</ele>
  <time>2026-08-28T19:08:27Z</time>
  <course>17.66</course>
  <speed>0.02</speed>
  <fix>3d</fix>
</trkpt>
<trkpt lat="40.0738273" lon="-105.2301696">
  <ele>1664.27</ele>
  <time>2026-08-28T19:08:27Z</time>
  <course>17.64</course>
  <speed>0.02</speed>
  <fix>3d</fix>
</trkpt>
<trkpt lat="40.0738271" lon="-105.2301694">
  <ele>1663.68</ele>
  <time>2026-08-28T19:08:27Z</time>
  <course>78.59</course>
  <speed>0.0</speed>
  <fix>3d</fix>
</trkpt>
<trkpt lat="40.0738273" lon="-105.2301696">
  <ele>1664.27</ele>
  <time>2026-08-28T19:08:27Z</time>
  <course>17.64</course>
  <speed>0.02</speed>
  <fix>3d</fix>
</trkpt>
<trkpt lat="40.0738273" lon="-105.2301696">
  <ele>1664.77</ele>
  <time>2026-08-28T19:08:27Z</time>
  <course>17.63</course>
  <speed>0.02</speed>
  <fix>3d</fix>
</trkpt>
<trkpt lat="40.0738271" lon="-105.2301694">
  <ele>1664.18</ele>
  <time>2026-08-28T19:08:27Z</time>
  <course>67.59</course>
  <speed>0.0</speed>
  <fix>3d</fix>
</trkpt>
<trkpt lat="40.0738273" lon="-105.2301696">
  <ele>1664.85</ele>
  <time>2026-08-28T19:08:27Z</time>
  <course>17.62</course>
  <speed>0.02</speed>
  <fix>3d</fix>
</trkpt>
<trkpt lat="40.0738273" lon="-105.2301696">
  <ele>1665.27</ele>
  <time>2026-08-28T19:08:27Z</time>
  <course>17.64</course>
  <speed>0.02</speed>
  <fix>3d</fix>
</trkpt>
<trkpt lat="40.0738271" lon="-105.2301694">
  <ele>1664.68</ele>
  <time>2026-08-28T19:08:27Z</time>
  <course>56.52</course>
  <speed>0.0</speed>
  <fix>3d</fix>
</trkpt>
<trkpt lat="40.0738273" lon="-105.2301696">
  <ele>1665.33</ele>
  <time>2026-08-28T19:08:27Z</time>
  <course>17.65</course>
  <speed>0.02</speed>
  <fix>3d</fix>
</trkpt>
<trkpt lat="40.0738273" lon="-105.2301696">
  <ele>1665.77</ele>
  <time>2026-08-28T19:08:27Z</time>
  <course>17.69</course>
  <speed>0.022360679774997897</speed>
  <fix>3d</fix>
</trkpt>
<trkpt lat="40.0738271" lon="-105.2301694">
  <ele>1665.18</ele>
  <time>2026-08-28T19:08:27Z</time>
  <course>43.98</course>
  <speed>0.0</speed>
  <fix>3d</fix>
</trkpt>
<trkpt lat="40.0738273" lon="-105.2301696">
  <ele>1665.77</ele>
  <time>2026-08-28T19:08:27Z</time>
  <course>17.69</course>
  <speed>0.022360679774997897</speed>
  <fix>3d</fix>
</trkpt>
<trkpt lat="40.0738273" lon="-105.2301696">
  <ele>1666.26</ele>
  <time>2026-08-28T19:08:27Z</time>
  <course>17.66</course>
  <speed>0.022360679774997897</speed>
  <fix>3d</fix>
</trkpt>
<trkpt lat="40.0738271" lon="-105.2301694">
  <ele>1665.68</ele>
  <time>2026-08-28T19:08:27Z</time>
  <course>34.03</course>
  <speed>0.0</speed>
  <fix>3d</fix>
</trkpt>
<trkpt lat="40.0738273" lon="-105.2301696">
  <ele>1666.33</ele>
  <time>2026-08-28T19:08:27Z</time>
  <course>17.66</course>
  <speed>0.022360679774997897</speed>
  <fix>3d</fix>
</trkpt>
<trkpt lat="40.0738273" lon="-105.2301696">
  <ele>1666.76</ele>
  <time>2026-08-28T19:08:27Z</time>
  <course>17.67</course>
  <speed>0.022360679774997897</speed>
  <fix>3d</fix>
</trkpt>
<trkpt lat="40.0738271" lon="-105.2301694">
  <ele>1666.18</ele>
  <time>2026-08-28T19:08:27Z</time>
  <course>25.5</course>
  <speed>0.0</speed>
  <fix>3d</fix>
</trkpt>
<trkpt lat="40.0738273" lon="-105.2301696">
  <ele>1666.82</ele>
  <time>2026-08-28T19:08:27Z</time>
  <course>17.66</course>
  <speed>0.022360679774997897</speed>
  <fix>3d</fix>
</trkpt>
<trkpt lat="40.0738273" lon="-105.2301696">
  <ele>1667.26</ele>
  <time>2026-08-28T19:08:27Z</time>
  <course>17.69</course>
  <speed>0.022360679774997897</speed>
  <fix>3d</fix>
</trkpt>
<trkpt lat="40.0738271" lon="-105.2301694">
  <ele>1666.68</ele>
  <time>2026-08-28T19:08:27Z</time>
  <course>13.52</course>
  <speed>0.0</speed>
  <fix>3d</fix>
</trkpt>
<trkpt lat="40.0738273" lon="-105.2301696">
  <ele>1667.26</ele>
  <time>2026-08-28T19:08:27Z</time>
  <course>17.69</course>
  <speed>0.022360679774997897</speed>
  <fix>3d</fix>
</trkpt>
<trkpt lat="40.0738273" lon="-105.2301696">
  <ele>1667.76</ele>
  <time>2026-08-28T19:08:27Z</time>
  <course>17.69</course>
  <speed>0.022360679774997897</speed>
  <fix>3d</fix>
</trkpt>
<trkpt lat="40.0738271" lon="-105.2301694">
  <ele>1667.19</ele>
  <time>2026-08-28T19:08:27Z</time>
  <course>4.82</course>
  <speed>0.0</speed>
  <fix>3d</fix>
</trkpt>
<trkpt lat="40.0738273" lon="-105.2301695">
  <ele>1667.82</ele>
  <time>2026-08-28T19:08:27Z</time>
  <course>17.69</course>
  <speed>0.022360679774997897</speed>
  <fix>3d</fix>
</trkpt>
<trkpt lat="40.0738273" lon="-105.2301695">
  <ele>1668.27</ele>
  <time>2026-08-28T19:08:27Z</time>
  <course>17.7</course>
  <speed>0.022360679774997897</speed>
  <fix>3d</fix>
</trkpt>
<trkpt lat="40.0738271" lon="-105.2301694">
  <ele>1667.69</ele>
  <time>2026-08-28T19:08:27Z</time>
  <course>359.21</course>
  <speed>0.0</speed>
  <fix>3d</fix>
</trkpt>
<trkpt lat="40.0738273" lon="-105.2301695">
  <ele>1668.28</ele>
  <time>2026-08-28T19:08:27Z</time>
  <course>17.7</course>
  <speed>0.022360679774997897</speed>
  <fix>3d</fix>
</trkpt>
<trkpt lat="40.0738273" lon="-105.2301695">
  <ele>1668.78</ele>
  <time>2026-08-28T19:08:27Z</time>
  <course>17.74</course>
  <speed>0.022360679774997897</speed>
  <fix>3d</fix>
</trkpt>
<trkpt lat="40.0738271" lon="-105.2301694">
  <ele>1668.2</ele>
  <time>2026-08-28T19:08:27Z</time>
  <course>353.2</course>
  <speed>0.0</speed>
  <fix>3d</fix>
</trkpt>
<trkpt lat="40.0738273" lon="-105.2301695">
  <ele>1668.78</ele>
  <time>2026-08-28T19:08:27Z</time>
  <course>17.74</course>
  <speed>0.022360679774997897</speed>
  <fix>3d</fix>
</trkpt>
<trkpt lat="40.0738273" lon="-105.2301695">
  <ele>1669.28</ele>
  <time>2026-08-28T19:08:27Z</time>
  <course>17.76</course>
  <speed>0.022360679774997897</speed>
  <fix>3d</fix>
</trkpt>
<trkpt lat="40.0738271" lon="-105.2301694">
  <ele>1668.7</ele>
  <time>2026-08-28T19:08:27Z</time>
  <course>348.34</course>
  <speed>0.0</speed>
  <fix>3d</fix>
</trkpt>
<trkpt lat="40.0738273" lon="-105.2301695">
  <ele>1669.35</ele>
  <time>2026-08-28T19:08:27Z</time>
  <course>17.76</course>
  <speed>0.022360679774997897</speed>
  <fix>3d</fix>
</trkpt>
<trkpt lat="40.0738273" lon="-105.2301695">
  <ele>1669.78</ele>
  <time>2026-08-28T19:08:27Z</time>
  <course>17.77</course>
  <speed>0.022360679774997897</speed>
  <fix>3d</fix>
</trkpt>
<trkpt lat="40.0738271" lon="-105.2301694">
  <ele>1669.2</ele>
  <time>2026-08-28T19:08:27Z</time>
  <course>345.05</course>
  <speed>0.0</speed>
  <fix>3d</fix>
</trkpt>
<trkpt lat="40.0738273" lon="-105.2301695">
  <ele>1669.79</ele>
  <time>2026-08-28T19:08:27Z</time>
  <course>17.77</course>
  <speed>0.022360679774997897</speed>
  <fix>3d</fix>
</trkpt>
<trkpt lat="40.0738273" lon="-105.2301695">
  <ele>1670.29</ele>
  <time>2026-08-28T19:08:27Z</time>
  <course>17.77</course>
  <speed>0.022360679774997897</speed>
  <fix>3d</fix>
</trkpt>
<trkpt lat="40.0738272" lon="-105.2301694">
  <ele>1669.71</ele>
  <time>2026-08-28T19:08:27Z</time>
  <course>342.79</course>
  <speed>0.0</speed>
  <fix>3d</fix>
</trkpt>
<trkpt lat="40.0738273" lon="-105.2301695">
  <ele>1670.35</ele>
  <time>2026-08-28T19:08:27Z</time>
  <course>17.78</course>
  <speed>0.022360679774997897</speed>
  <fix>3d</fix>
</trkpt>
<trkpt lat="40.0738273" lon="-105.2301695">
  <ele>1670.79</ele>
  <time>2026-08-28T19:08:27Z</time>
  <course>17.78</course>
  <speed>0.022360679774997897</speed>
  <fix>3d</fix>
</trkpt>
<trkpt lat="40.0738273" lon="-105.2301694">
  <ele>1670.21</ele>
  <time>2026-08-28T19:08:27Z</time>
  <course>342.35</course>
  <speed>0.0</speed>
  <fix>3d</fix>
</trkpt>
<trkpt lat="40.0738273" lon="-105.2301695">
  <ele>1670.79</ele>
  <time>2026-08-28T19:08:27Z</time>
  <course>17.78</course>
  <speed>0.022360679774997897</speed>
  <fix>3d</fix>
</trkpt>
<trkpt lat="40.0738273" lon="-105.2301695">
  <ele>1671.29</ele>
  <time>2026-08-28T19:08:27Z</time>
  <course>17.79</course>
  <speed>0.022360679774997897</speed>
  <fix>3d</fix>
</trkpt>
<trkpt lat="40.0738273" lon="-105.2301694">
  <ele>1670.71</ele>
  <time>2026-08-28T19:08:27Z</time>
  <course>343.94</course>
  <speed>0.0</speed>
  <fix>3d</fix>
</trkpt>
<trkpt lat="40.0738273" lon="-105.2301695">
  <ele>1671.35</ele>
  <time>2026-08-28T19:08:27Z</time>
  <course>17.79</course>
  <speed>0.022360679774997897</speed>
  <fix>3d</fix>
</trkpt>
<trkpt lat="40.0738273" lon="-105.2301695">
  <ele>1671.8</ele>
  <time>2026-08-28T19:08:27Z</time>
  <course>17.81</course>
  <speed>0.022360679774997897</speed>
  <fix>3d</fix>
</trkpt>
<trkpt lat="40.0738273" lon="-105.2301694">
  <ele>1671.2</ele>
  <time>2026-08-28T19:08:27Z</time>
  <course>344.7</course>
  <speed>0.0</speed>
  <fix>3d</fix>
</trkpt>
<trkpt lat="40.0738274" lon="-105.2301695">
  <ele>1671.87</ele>
  <time>2026-08-28T19:08:27Z</time>
  <course>17.81</course>
  <speed>0.022360679774997897</speed>
  <fix>3d</fix>
</trkpt>
<trkpt lat="40.0738274" lon="-105.2301695">
  <ele>1672.29</ele>
  <time>2026-08-28T19:08:27Z</time>
  <course>17.85</course>
  <speed>0.022360679774997897</speed>
  <fix>3d</fix>
</trkpt>
<trkpt lat="40.0738273" lon="-105.2301694">
  <ele>1671.7</ele>
  <time>2026-08-28T19:08:27Z</time>
  <course>343.35</course>
  <speed>0.0</speed>
  <fix>3d</fix>
</trkpt>
<trkpt lat="40.0738274" lon="-105.2301695">
  <ele>1672.36</ele>
  <time>2026-08-28T19:08:27Z</time>
  <course>17.85</course>
  <speed>0.022360679774997897</speed>
  <fix>3d</fix>
</trkpt>
<trkpt lat="40.0738274" lon="-105.2301695">
  <ele>1672.78</ele>
  <time>2026-08-28T19:08:27Z</time>
  <course>17.83</course>
  <speed>0.022360679774997897</speed>
  <fix>3d</fix>
</trkpt>
<trkpt lat="40.0738273" lon="-105.2301694">
  <ele>1672.2</ele>
  <time>2026-08-28T19:08:27Z</time>
  <course>343.64</course>
  <speed>0.0</speed>
  <fix>3d</fix>
</trkpt>
<trkpt lat="40.0738274" lon="-105.2301695">
  <ele>1672.85</ele>
  <time>2026-08-28T19:08:27Z</time>
  <course>17.83</course>
  <speed>0.022360679774997897</speed>
  <fix>3d</fix>
</trkpt>
<trkpt lat="40.0738274" lon="-105.2301695">
  <ele>1673.28</ele>
  <time>2026-08-28T19:08:27Z</time>
  <course>17.82</course>
  <speed>0.022360679774997897</speed>
  <fix>3d</fix>
</trkpt>
<trkpt lat="40.0738273" lon="-105.2301694">
  <ele>1672.7</ele>
  <time>2026-08-28T19:08:27Z</time>
  <course>349.71</course>
  <speed>0.0</speed>
  <fix>3d</fix>
</trkpt>
<trkpt lat="40.0738274" lon="-105.2301695">
  <ele>1673.29</ele>
  <time>2026-08-28T19:08:27Z</time>
  <course>17.82</course>
  <speed>0.022360679774997897</speed>
  <fix>3d</fix>
</trkpt>
<trkpt lat="40.0738274" lon="-105.2301695">
  <ele>1673.78</ele>
  <time>2026-08-28T19:08:27Z</time>
  <course>17.82</course>
  <speed>0.01414213562373095</speed>
  <fix>3d</fix>
</trkpt>
<trkpt lat="40.0738273" lon="-105.2301694">
  <ele>1673.2</ele>
  <time>2026-08-28T19:08:27Z</time>
  <course>3.54</course>
  <speed>0.0</speed>
  <fix>3d</fix>
</trkpt>
<trkpt lat="40.0738274" lon="-105.2301695">
  <ele>1673.85</ele>
  <time>2026-08-28T19:08:27Z</time>
  <course>17.82</course>
  <speed>0.01414213562373095</speed>
  <fix>3d</fix>
</trkpt>
<trkpt lat="40.0738274" lon="-105.2301695">
  <ele>1674.28</ele>
  <time>2026-08-28T19:08:27Z</time>
  <course>17.83</course>
  <speed>0.01414213562373095</speed>
  <fix>3d</fix>
</trkpt>
<trkpt lat="40.0738273" lon="-105.2301694">
  <ele>1673.7</ele>
  <time>2026-08-28T19:08:27Z</time>
  <course>41.11</course>
  <speed>0.0</speed>
  <fix>3d</fix>
</trkpt>
<trkpt lat="40.0738274" lon="-105.2301695">
  <ele>1674.33</ele>
  <time>2026-08-28T19:08:27Z</time>
  <course>17.82</course>
  <speed>0.01414213562373095</speed>
  <fix>3d</fix>
</trkpt>
<trkpt lat="40.0738274" lon="-105.2301695">
  <ele>1674.78</ele>
  <time>2026-08-28T19:08:27Z</time>
  <course>17.84</course>
  <speed>0.01414213562373095</speed>
  <fix>3d</fix>
</trkpt>
<trkpt lat="40.0738273" lon="-105.2301694">
  <ele>1674.19</ele>
  <time>2026-08-28T19:08:27Z</time>
  <course>162.04</course>
  <speed>0.0</speed>
  <fix>3d</fix>
</trkpt>
<trkpt lat="40.0738274" lon="-105.2301695">
  <ele>1674.85</ele>
  <time>2026-08-28T19:08:27Z</time>
  <course>17.83</course>
  <speed>0.01414213562373095</speed>
  <fix>3d</fix>
</trkpt>
<trkpt lat="40.0738274" lon="-105.2301695">
  <ele>1675.28</ele>
  <time>2026-08-28T19:08:27Z</time>
  <course>17.85</course>
  <speed>0.01414213562373095</speed>
  <fix>3d</fix>
</trkpt>
<trkpt lat="40.0738273" lon="-105.2301694">
  <ele>1674.69</ele>
  <time>2026-08-28T19:08:27Z</time>
  <course>183.55</course>
  <speed>0.0</speed>
  <fix>3d</fix>
</trkpt>
<trkpt lat="40.0738274" lon="-105.2301695">
  <ele>1675.35</ele>
  <time>2026-08-28T19:08:27Z</time>
  <course>17.84</course>
  <speed>0.01414213562373095</speed>
  <fix>3d</fix>
</trkpt>
<trkpt lat="40.0738274" lon="-105.2301695">
  <ele>1675.78</ele>
  <time>2026-08-28T19:08:27Z</time>
  <course>17.84</course>
  <speed>0.01414213562373095</speed>
  <fix>3d</fix>
</trkpt>
<trkpt lat="40.0738273" lon="-105.2301694">
  <ele>1675.19</ele>
  <time>2026-08-28T19:08:27Z</time>
  <course>187.65</course>
  <speed>0.0</speed>
  <fix>3d</fix>
</trkpt>
<trkpt lat="40.0738274" lon="-105.2301695">
  <ele>1675.78</ele>
  <time>2026-08-28T19:08:27Z</time>
  <course>17.84</course>
  <speed>0.01414213562373095</speed>
  <fix>3d</fix>
</trkpt>
<trkpt lat="40.0738274" lon="-105.2301695">
  <ele>1676.28</ele>
  <time>2026-08-28T19:08:27Z</time>
  <course>17.83</course>
  <speed>0.01414213562373095</speed>
  <fix>3d</fix>
</trkpt>
<trkpt lat="40.0738273" lon="-105.2301694">
  <ele>1675.69</ele>
  <time>2026-08-28T19:08:27Z</time>
  <course>187.68</course>
  <speed>0.0</speed>
  <fix>3d</fix>
</trkpt>
<trkpt lat="40.0738274" lon="-105.2301695">
  <ele>1676.34</ele>
  <time>2026-08-28T19:08:27Z</time>
  <course>17.84</course>
  <speed>0.01414213562373095</speed>
  <fix>3d</fix>
</trkpt>
<trkpt lat="40.0738274" lon="-105.2301695">
  <ele>1676.78</ele>
  <time>2026-08-28T19:08:27Z</time>
  <course>17.85</course>
  <speed>0.01414213562373095</speed>
  <fix>3d</fix>
</trkpt>
<trkpt lat="40.0738273" lon="-105.2301694">
  <ele>1676.19</ele>
  <time>2026-08-28T19:08:27Z</time>
  <course>191.93</course>
  <speed>0.0</speed>
  <fix>3d</fix>
</trkpt>
<trkpt lat="40.0738274" lon="-105.2301695">
  <ele>1676.79</ele>
  <time>2026-08-28T19:08:27Z</time>
  <course>17.85</course>
  <speed>0.01414213562373095</speed>
  <fix>3d</fix>
</trkpt>
<trkpt lat="40.0738274" lon="-105.2301695">
  <ele>1677.28</ele>
  <time>2026-08-28T19:08:27Z</time>
  <course>17.85</course>
  <speed>0.01414213562373095</speed>
  <fix>3d</fix>
</trkpt>
<trkpt lat="40.0738273" lon="-105.2301694">
  <ele>1676.69</ele>
  <time>2026-08-28T19:08:27Z</time>
  <course>198.57</course>
  <speed>0.0</speed>
  <fix>3d</fix>
</trkpt>
<trkpt lat="40.0738274" lon="-105.2301695">
  <ele>1677.35</ele>
  <time>2026-08-28T19:08:27Z</time>
  <course>17.85</course>
  <speed>0.01414213562373095</speed>
  <fix>3d</fix>
</trkpt>
<trkpt lat="40.0738274" lon="-105.2301695">
  <ele>1677.78</ele>
  <time>2026-08-28T19:08:27Z</time>
  <course>17.86</course>
  <speed>0.01414213562373095</speed>
  <fix>3d</fix>
</trkpt>
<trkpt lat="40.0738273" lon="-105.2301694">
  <ele>1677.19</ele>
  <time>2026-08-28T19:08:27Z</time>
  <course>202.84</course>
  <speed>0.0</speed>
  <fix>3d</fix>
</trkpt>
<trkpt lat="40.0738274" lon="-105.2301695">
  <ele>1677.85</ele>
  <time>2026-08-28T19:08:27Z</time>
  <course>17.86</course>
  <speed>0.01414213562373095</speed>
  <fix>3d</fix>
</trkpt>
<trkpt lat="40.0738274" lon="-105.2301695">
  <ele>1678.28</ele>
  <time>2026-08-28T19:08:27Z</time>
  <course>17.87</course>
  <speed>0.01414213562373095</speed>
  <fix>3d</fix>
</trkpt>
<trkpt lat="40.0738273" lon="-105.2301694">
  <ele>1677.69</ele>
  <time>2026-08-28T19:08:27Z</time>
  <course>207.02</course>
  <speed>0.0</speed>
  <fix>3d</fix>
</trkpt>
<trkpt lat="40.0738274" lon="-105.2301695">
  <ele>1678.29</ele>
  <time>2026-08-28T19:08:27Z</time>
  <course>17.87</course>
  <speed>0.01414213562373095</speed>
  <fix>3d</fix>
</trkpt>
<trkpt lat="40.0738274" lon="-105.2301695">
  <ele>1678.78</ele>
  <time>2026-08-28T19:08:27Z</time>
  <course>17.88</course>
  <speed>0.01414213562373095</speed>
  <fix>3d</fix>
</trkpt>
<trkpt lat="40.0738273" lon="-105.2301694">
  <ele>1678.19</ele>
  <time>2026-08-28T19:08:27Z</time>
  <course>211.11</course>
  <speed>0.0</speed>
  <fix>3d</fix>
</trkpt>
<trkpt lat="40.0738274" lon="-105.2301695">
  <ele>1678.84</ele>
  <time>2026-08-28T19:08:27Z</time>
  <course>17.88</course>
  <speed>0.01414213562373095</speed>
  <fix>3d</fix>
</trkpt>
<trkpt lat="40.0738274" lon="-105.2301695">
  <ele>1679.27</ele>
  <time>2026-08-28T19:08:27Z</time>
  <course>17.88</course>
  <speed>0.01414213562373095</speed>
  <fix>3d</fix>
</trkpt>
<trkpt lat="40.0738273" lon="-105.2301694">
  <ele>1678.69</ele>
  <time>2026-08-28T19:08:27Z</time>
  <course>214.37</course>
  <speed>0.0</speed>
  <fix>3d</fix>
</trkpt>
<trkpt lat="40.0738274" lon="-105.2301695">
  <ele>1679.34</ele>
  <time>2026-08-28T19:08:27Z</time>
  <course>17.88</course>
  <speed>0.01414213562373095</speed>
  <fix>3d</fix>
</trkpt>
<trkpt lat="40.0738274" lon="-105.2301695">
  <ele>1679.77</ele>
  <time>2026-08-28T19:08:27Z</time>
  <course>17.86</course>
  <speed>0.01414213562373095</speed>
  <fix>3d</fix>
</trkpt>
<trkpt lat="40.0738273" lon="-105.2301694">
  <ele>1679.19</ele>
  <time>2026-08-28T19:08:27Z</time>
  <course>215.18</course>
  <speed>0.0</speed>
  <fix>3d</fix>
</trkpt>
<trkpt lat="40.0738274" lon="-105.2301695">
  <ele>1679.83</ele>
  <time>2026-08-28T19:08:27Z</time>
  <course>17.86</course>
  <speed>0.01414213562373095</speed>
  <fix>3d</fix>
</trkpt>
<trkpt lat="40.0738274" lon="-105.2301695">
  <ele>1680.27</ele>
  <time>2026-08-28T19:08:27Z</time>
  <course>17.88</course>
  <speed>0.01414213562373095</speed>
  <fix>3d</fix>
</trkpt>
<trkpt lat="40.0738273" lon="-105.2301694">
  <ele>1679.69</ele>
  <time>2026-08-28T19:08:27Z</time>
  <course>216.7</course>
  <speed>0.0</speed>
  <fix>3d</fix>
</trkpt>
<trkpt lat="40.0738274" lon="-105.2301695">
  <ele>1680.34</ele>
  <time>2026-08-28T19:08:27Z</time>
  <course>17.88</course>
  <speed>0.01414213562373095</speed>
  <fix>3d</fix>
</trkpt>
<trkpt lat="40.0738274" lon="-105.2301695">
  <ele>1680.77</ele>
  <time>2026-08-28T19:08:27Z</time>
  <course>17.88</course>
  <speed>0.01414213562373095</speed>
  <fix>3d</fix>
</trkpt>
<trkpt lat="40.0738273" lon="-105.2301694">
  <ele>1680.19</ele>
  <time>2026-08-28T19:08:27Z</time>
  <course>218.9</course>
  <speed>0.0</speed>
  <fix>3d</fix>
</trkpt>
<trkpt lat="40.0738274" lon="-105.2301695">
  <ele>1680.84</ele>
  <time>2026-08-28T19:08:27Z</time>
  <course>17.88</course>
  <speed>0.01414213562373095</speed>
  <fix>3d</fix>
</trkpt>
<trkpt lat="40.0738274" lon="-105.2301695">
  <ele>1681.28</ele>
  <time>2026-08-28T19:08:27Z</time>
  <course>17.88</course>
  <speed>0.01414213562373095</speed>
  <fix>3d</fix>
</trkpt>
<trkpt lat="40.0738273" lon="-105.2301694">
  <ele>1680.69</ele>
  <time>2026-08-28T19:08:27Z</time>
  <course>219.85</course>
  <speed>0.0</speed>
  <fix>3d</fix>
</trkpt>
<trkpt lat="40.0738274" lon="-105.2301695">
  <ele>1681.28</ele>
  <time>2026-08-28T19:08:27Z</time>
  <course>17.88</course>
  <speed>0.01414213562373095</speed>
  <fix>3d</fix>
</trkpt>
<trkpt lat="40.0738274" lon="-105.2301695">
  <ele>1681.77</ele>
  <time>2026-08-28T19:08:27Z</time>
  <course>17.91</course>
  <speed>0.01414213562373095</speed>
  <fix>3d</fix>
</trkpt>
<trkpt lat="40.0738273" lon="-105.2301694">
  <ele>1681.2</ele>
  <time>2026-08-28T19:08:27Z</time>
  <course>222.49</course>
  <speed>0.0</speed>
  <fix>3d</fix>
</trkpt>
<trkpt lat="40.0738274" lon="-105.2301695">
  <ele>1681.83</ele>
  <time>2026-08-28T19:08:27Z</time>
  <course>17.91</course>
  <speed>0.01414213562373095</speed>
  <fix>3d</fix>
</trkpt>
<trkpt lat="40.0738274" lon="-105.2301695">
  <ele>1682.28</ele>
  <time>2026-08-28T19:08:27Z</time>
  <course>17.88</course>
  <speed>0.01414213562373095</speed>
  <fix>3d</fix>
</trkpt>
<trkpt lat="40.0738273" lon="-105.2301694">
  <ele>1681.7</ele>
  <time>2026-08-28T19:08:27Z</time>
  <course>221.34</course>
  <speed>0.0</speed>
  <fix>3d</fix>
</trkpt>
<trkpt lat="40.0738274" lon="-105.2301695">
  <ele>1682.34</ele>
  <time>2026-08-28T19:08:27Z</time>
  <course>17.88</course>
  <speed>0.01414213562373095</speed>
  <fix>3d</fix>
</trkpt>
<trkpt lat="40.0738274" lon="-105.2301695">
  <ele>1682.77</ele>
  <time>2026-08-28T19:08:27Z</time>
  <course>17.91</course>
  <speed>0.01414213562373095</speed>
  <fix>3d</fix>
</trkpt>
<trkpt lat="40.0738273" lon="-105.2301694">
  <ele>1682.2</ele>
  <time>2026-08-28T19:08:27Z</time>
  <course>217.38</course>
  <speed>0.0</speed>
  <fix>3d</fix>
</trkpt>
<trkpt lat="40.0738274" lon="-105.2301695">
  <ele>1682.84</ele>
  <time>2026-08-28T19:08:27Z</time>
  <course>17.91</course>
  <speed>0.01414213562373095</speed>
  <fix>3d</fix>
</trkpt>
<trkpt lat="40.0738274" lon="-105.2301695">
  <ele>1683.27</ele>
  <time>2026-08-28T19:08:27Z</time>
  <course>17.91</course>
  <speed>0.01414213562373095</speed>
  <fix>3d</fix>
</trkpt>
<trkpt lat="40.0738273" lon="-105.2301694">
  <ele>1682.7</ele>
  <time>2026-08-28T19:08:27Z</time>
  <course>216.02</course>
  <speed>0.0</speed>
  <fix>3d</fix>
</trkpt>
<trkpt lat="40.0738274" lon="-105.2301695">
  <ele>1683.34</ele>
  <time>2026-08-28T19:08:27Z</time>
  <course>17.91</course>
  <speed>0.01414213562373095</speed>
  <fix>3d</fix>
</trkpt>
<trkpt lat="40.0738274" lon="-105.2301695">
  <ele>1683.77</ele>
  <time>2026-08-28T19:08:27Z</time>
  <course>17.92</course>
  <speed>0.01414213562373095</speed>
  <fix>3d</fix>
</trkpt>
<trkpt lat="40.0738273" lon="-105.2301694">
  <ele>1683.2</ele>
  <time>2026-08-28T19:08:27Z</time>
  <course>215.08</course>
  <speed>0.0</speed>
  <fix>3d</fix>
</trkpt>
<trkpt lat="40.0738274" lon="-105.2301695">
  <ele>1683.85</ele>
  <time>2026-08-28T19:08:27Z</time>
  <course>17.92</course>
  <speed>0.01414213562373095</speed>
  <fix>3d</fix>
</trkpt>
<trkpt lat="40.0738274" lon="-105.2301695">
  <ele>1684.28</ele>
  <time>2026-08-28T19:08:27Z</time>
  <course>17.92</course>
  <speed>0.01414213562373095</speed>
  <fix>3d</fix>
</trkpt>
<trkpt lat="40.0738273" lon="-105.2301694">
  <ele>1683.7</ele>
  <time>2026-08-28T19:08:27Z</time>
  <course>213.91</course>
  <speed>0.0</speed>
  <fix>3d</fix>
</trkpt>
<trkpt lat="40.0738274" lon="-105.2301695">
  <ele>1684.78</ele>
  <time>2026-08-28T19:08:27Z</time>
  <course>17.67</course>
  <speed>0.01</speed>
  <fix>3d</fix>
</trkpt>
<trkpt lat="40.0738273" lon="-105.2301694">
  <ele>1684.2</ele>
  <time>2026-08-28T19:08:27Z</time>
  <course>198.49</course>
  <speed>0.0</speed>
  <fix>3d</fix>
</trkpt>
<trkpt lat="40.0738274" lon="-105.2301695">
  <ele>1685.35</ele>
  <time>2026-08-28T19:08:27Z</time>
  <course>15.69</course>
  <speed>0.01414213562373095</speed>
  <fix>3d</fix>
</trkpt>
<trkpt lat="40.0738273" lon="-105.2301694">
  <ele>1684.73</ele>
  <time>2026-08-28T19:08:27Z</time>
  <course>172.62</course>
  <speed>0.0</speed>
  <fix>3d</fix>
</trkpt>
<trkpt lat="40.0738274" lon="-105.2301697">
  <ele>1685.82</ele>
  <time>2026-08-28T19:08:27Z</time>
  <course>20.97</course>
  <speed>0.1676305461424021</speed>
  <fix>3d</fix>
</trkpt>
<trkpt lat="40.0738273" lon="-105.2301695">
  <ele>1685.28</ele>
  <time>2026-08-28T19:08:27Z</time>
  <course>277.18</course>
  <speed>0.06</speed>
  <fix>3d</fix>
</trkpt>
<trkpt lat="40.0738274" lon="-105.2301701">
  <ele>1685.7</ele>
  <time>2026-08-28T19:08:27Z</time>
  <course>24.18</course>
  <speed>0.21840329667841554</speed>
  <fix>3d</fix>
</trkpt>
<trkpt lat="40.0738273" lon="-105.2301698">
  <ele>1685.59</ele>
  <time>2026-08-28T19:08:27Z</time>
  <course>282.33</course>
  <speed>0.16</speed>
  <fix>3d</fix>
</trkpt>
<trkpt lat="40.0738275" lon="-105.2301706">
  <ele>1685.21</ele>
  <time>2026-08-28T19:08:27Z</time>
  <course>24.51</course>
  <speed>0.2596150997149434</speed>
  <fix>3d</fix>
</trkpt>
<trkpt lat="40.0738273" lon="-105.2301702">
  <ele>1685.39</ele>
  <time>2026-08-28T19:08:27Z</time>
  <course>284.81</course>
  <speed>0.21</speed>
  <fix>3d</fix>
</trkpt>
<trkpt lat="40.0738276" lon="-105.2301713">
  <ele>1684.46</ele>
  <time>2026-08-28T19:08:27Z</time>
  <course>23.61</course>
  <speed>0.3132091952673165</speed>
  <fix>3d</fix>
</trkpt>
<trkpt lat="40.0738274" lon="-105.2301708">
  <ele>1684.84</ele>
  <time>2026-08-28T19:08:27Z</time>
  <course>286.75</course>
  <speed>0.26</speed>
  <fix>3d</fix>
</trkpt>
<trkpt lat="40.0738278" lon="-105.230172">
  <ele>1683.53</ele>
  <time>2026-08-28T19:08:27Z</time>
  <course>23.88</course>
  <speed>0.32572994949804657</speed>
  <fix>3d</fix>
</trkpt>
<trkpt lat="40.0738275" lon="-105.2301714">
  <ele>1684.04</ele>
  <time>2026-08-28T19:08:27Z</time>
  <course>287.87</course>
  <speed>0.3</speed>
  <fix>3d</fix>
</trkpt>
<trkpt lat="40.0738279" lon="-105.2301727">
  <ele>1682.49</ele>
  <time>2026-08-28T19:08:27Z</time>
  <course>24.6</course>
  <speed>0.31622776601683794</speed>
  <fix>3d</fix>
</trkpt>
<trkpt lat="40.0738276" lon="-105.2301721">
  <ele>1683.07</ele>
  <time>2026-08-28T19:08:27Z</time>
  <course>288.45</course>
  <speed>0.31</speed>
  <fix>3d</fix>
</trkpt>
<trkpt lat="40.0738281" lon="-105.2301733">
  <ele>1681.37</ele>
  <time>2026-08-28T19:08:27Z</time>
  <course>25.47</course>
  <speed>0.28460498941515416</speed>
  <fix>3d</fix>
</trkpt>
<trkpt lat="40.0738279" lon="-105.2301728">
  <ele>1682.0</ele>
  <time>2026-08-28T19:08:27Z</time>
  <course>288.85</course>
  <speed>0.3</speed>
  <fix>3d</fix>
</trkpt>
<trkpt lat="40.0738282" lon="-105.2301739">
  <ele>1680.2</ele>
  <time>2026-08-28T19:08:27Z</time>
  <course>25.71</course>
  <speed>0.2529822128134704</speed>
  <fix>3d</fix>
</trkpt>
<trkpt lat="40.0738281" lon="-105.2301734">
  <ele>1680.87</ele>
  <time>2026-08-28T19:08:27Z</time>
  <course>289.25</course>
  <speed>0.27</speed>
  <fix>3d</fix>
</trkpt>
<trkpt lat="40.0738284" lon="-105.2301744">
  <ele>1679.0</ele>
  <time>2026-08-28T19:08:27Z</time>
  <course>25.56</course>
  <speed>0.22472205054244232</speed>
  <fix>3d</fix>
</trkpt>
<trkpt lat="40.0738282" lon="-105.230174">
  <ele>1679.71</ele>
  <time>2026-08-28T19:08:27Z</time>
  <course>289.84</course>
  <speed>0.23</speed>
  <fix>3d</fix>
</trkpt>
<trkpt lat="40.0738285" lon="-105.2301749">
  <ele>1677.79</ele>
  <time>2026-08-28T19:08:27Z</time>
  <course>25.25</course>
  <speed>0.20248456731316586</speed>
  <fix>3d</fix>
</trkpt>
<trkpt lat="40.0738283" lon="-105.2301745">
  <ele>1678.52</ele>
  <time>2026-08-28T19:08:27Z</time>
  <course>290.63</course>
  <speed>0.2</speed>
  <fix>3d</fix>
</trkpt>
<trkpt lat="40.0738286" lon="-105.2301753">
  <ele>1676.56</ele>
  <time>2026-08-28T19:08:27Z</time>
  <course>24.94</course>
  <speed>0.17464249196572978</speed>
  <fix>3d</fix>
</trkpt>
<trkpt lat="40.0738284" lon="-105.2301749">
  <ele>1677.31</ele>
  <time>2026-08-28T19:08:27Z</time>
  <course>291.59</course>
  <speed>0.18</speed>
  <fix>3d</fix>
</trkpt>
<trkpt lat="40.0738287" lon="-105.2301756">
  <ele>1675.32</ele>
  <time>2026-08-28T19:08:27Z</time>
  <course>24.63</course>
  <speed>0.15231546211727817</speed>
  <fix>3d</fix>
</trkpt>
<trkpt lat="40.0738286" lon="-105.2301753">
  <ele>1676.1</ele>
  <time>2026-08-28T19:08:27Z</time>
  <course>292.73</course>
  <speed>0.15</speed>
  <fix>3d</fix>
</trkpt>
<trkpt lat="40.0738288" lon="-105.2301759">
  <ele>1674.08</ele>
  <time>2026-08-28T19:08:27Z</time>
  <course>24.4</course>
  <speed>0.12529964086141668</speed>
  <fix>3d</fix>
</trkpt>
<trkpt lat="40.0738287" lon="-105.2301756">
  <ele>1674.88</ele>
  <time>2026-08-28T19:08:27Z</time>
  <course>294.1</course>
  <speed>0.12</speed>
  <fix>3d</fix>
</trkpt>
<trkpt lat="40.0738289" lon="-105.2301761">
  <ele>1672.84</ele>
  <time>2026-08-28T19:08:27Z</time>
  <course>24.15</course>
  <speed>0.10295630140987001</speed>
  <fix>3d</fix>
</trkpt>
<trkpt lat="40.0738287" lon="-105.2301758">
  <ele>1673.65</ele>
  <time>2026-08-28T19:08:27Z</time>
  <course>295.87</course>
  <speed>0.1</speed>
  <fix>3d</fix>
</trkpt>
<trkpt lat="40.0738289" lon="-105.2301762">
  <ele>1671.59</ele>
  <time>2026-08-28T19:08:27Z</time>
  <course>23.92</course>
  <speed>0.08602325267042626</speed>
  <fix>3d</fix>
</trkpt>
<trkpt lat="40.0738288" lon="-105.230176">
  <ele>1672.42</ele>
  <time>2026-08-28T19:08:27Z</time>
  <course>298.27</course>
  <speed>0.08</speed>
  <fix>3d</fix>
</trkpt>
<trkpt lat="40.073829" lon="-105.2301764">
  <ele>1670.35</ele>
  <time>2026-08-28T19:08:27Z</time>
  <course>23.74</course>
  <speed>0.06403124237432849</speed>
  <fix>3d</fix>
</trkpt>
<trkpt lat="40.0738289" lon="-105.2301761">
  <ele>1671.2</ele>
  <time>2026-08-28T19:08:27Z</time>
  <course>301.71</course>
  <speed>0.06</speed>
  <fix>3d</fix>
</trkpt>
<trkpt lat="40.0738291" lon="-105.2301764">
  <ele>1669.11</ele>
  <time>2026-08-28T19:08:27Z</time>
  <course>23.56</course>
  <speed>0.0565685424949238</speed>
  <fix>3d</fix>
</trkpt>
<trkpt lat="40.0738289" lon="-105.2301763">
  <ele>1669.97</ele>
  <time>2026-08-28T19:08:27Z</time>
  <course>307.35</course>
  <speed>0.04</speed>
  <fix>3d</fix>
</trkpt>
<trkpt lat="40.0738291" lon="-105.2301765">
  <ele>1667.85</ele>
  <time>2026-08-28T19:08:27Z</time>
  <course>23.39</course>
  <speed>0.03605551275463989</speed>
  <fix>3d</fix>
</trkpt>
<trkpt lat="40.0738289" lon="-105.2301763">
  <ele>1668.74</ele>
  <time>2026-08-28T19:08:27Z</time>
  <course>318.87</course>
  <speed>0.02</speed>
  <fix>3d</fix>
</trkpt>
<trkpt lat="40.0738291" lon="-105.2301765">
  <ele>1666.6</ele>
  <time>2026-08-28T19:08:27Z</time>
  <course>23.23</course>
  <speed>0.03</speed>
  <fix>3d</fix>
</trkpt>
<trkpt lat="40.073829" lon="-105.2301763">
  <ele>1667.51</ele>
  <time>2026-08-28T19:08:27Z</time>
  <course>349.83</course>
  <speed>0.01</speed>
  <fix>3d</fix>
</trkpt>
<trkpt lat="40.0738291" lon="-105.2301764">
  <ele>1665.36</ele>
  <time>2026-08-28T19:08:27Z</time>
  <course>23.09</course>
  <speed>0.02</speed>
  <fix>3d</fix>
</trkpt>
<trkpt lat="40.0738291" lon="-105.2301763">
  <ele>1666.29</ele>
  <time>2026-08-28T19:08:27Z</time>
  <course>49.44</course>
  <speed>0.01</speed>
  <fix>3d</fix>
</trkpt>
<trkpt lat="40.0738292" lon="-105.2301764">
  <ele>1664.11</ele>
  <time>2026-08-28T19:08:27Z</time>
  <course>22.95</course>
  <speed>0.022360679774997897</speed>
  <fix>3d</fix>
</trkpt>
<trkpt lat="40.0738291" lon="-105.2301763">
  <ele>1665.06</ele>
  <time>2026-08-28T19:08:27Z</time>
  <course>79.43</course>
  <speed>0.02</speed>
  <fix>3d</fix>
</trkpt>
<trkpt lat="40.0738292" lon="-105.2301764">
  <ele>1662.86</ele>
  <time>2026-08-28T19:08:27Z</time>
  <course>22.76</course>
  <speed>0.0282842712474619</speed>
  <fix>3d</fix>
</trkpt>
<trkpt lat="40.0738291" lon="-105.2301763">
  <ele>1663.83</ele>
  <time>2026-08-28T19:08:27Z</time>
  <course>90.54</course>
  <speed>0.03</speed>
  <fix>3d</fix>
</trkpt>
<trkpt lat="40.0738292" lon="-105.2301763">
  <ele>1661.62</ele>
  <time>2026-08-28T19:08:27Z</time>
  <course>22.54</course>
  <speed>0.0316227766016838</speed>
  <fix>3d</fix>
</trkpt>
<trkpt lat="40.0738291" lon="-105.2301762">
  <ele>1662.6</ele>
  <time>2026-08-28T19:08:27Z</time>
  <course>95.79</course>
  <speed>0.04</speed>
  <fix>3d</fix>
</trkpt>
<trkpt lat="40.0738292" lon="-105.2301761">
  <ele>1660.37</ele>
  <time>2026-08-28T19:08:27Z</time>
  <course>22.32</course>
  <speed>0.0412310562561766</speed>
  <fix>3d</fix>
</trkpt>
<trkpt lat="40.0738291" lon="-105.2301761">
  <ele>1661.38</ele>
  <time>2026-08-28T19:08:27Z</time>
  <course>98.83</course>
  <speed>0.05</speed>
  <fix>3d</fix>
</trkpt>
<trkpt lat="40.0738291" lon="-105.230176">
  <ele>1659.12</ele>
  <time>2026-08-28T19:08:27Z</time>
  <course>22.13</course>
  <speed>0.0412310562561766</speed>
  <fix>3d</fix>
</trkpt>
<trkpt lat="40.0738291" lon="-105.230176">
  <ele>1660.15</ele>
  <time>2026-08-28T19:08:27Z</time>
  <course>101.01</course>
  <speed>0.06</speed>
  <fix>3d</fix>
</trkpt>
<trkpt lat="40.0738291" lon="-105.2301759">
  <ele>1657.88</ele>
  <time>2026-08-28T19:08:27Z</time>
  <course>21.97</course>
  <speed>0.0412310562561766</speed>
  <fix>3d</fix>
</trkpt>
<trkpt lat="40.0738291" lon="-105.2301758">
  <ele>1658.92</ele>
  <time>2026-08-28T19:08:27Z</time>
  <course>102.76</course>
  <speed>0.06</speed>
  <fix>3d</fix>
</trkpt>
<trkpt lat="40.0738291" lon="-105.2301757">
  <ele>1656.64</ele>
  <time>2026-08-28T19:08:27Z</time>
  <course>21.83</course>
  <speed>0.0412310562561766</speed>
  <fix>3d</fix>
</trkpt>
<trkpt lat="40.0738291" lon="-105.2301756">
  <ele>1657.69</ele>
  <time>2026-08-28T19:08:27Z</time>
  <course>104.28</course>
  <speed>0.06</speed>
  <fix>3d</fix>
</trkpt>
<trkpt lat="40.0738291" lon="-105.2301756">
  <ele>1655.4</ele>
  <time>2026-08-28T19:08:27Z</time>
  <course>21.72</course>
  <speed>0.0412310562561766</speed>
  <fix>3d</fix>
</trkpt>
<trkpt lat="40.0738291" lon="-105.2301755">
  <ele>1656.45</ele>
  <time>2026-08-28T19:08:27Z</time>
  <course>105.74</course>
  <speed>0.06</speed>
  <fix>3d</fix>
</trkpt>
<trkpt lat="40.0738291" lon="-105.2301754">
  <ele>1654.23</ele>
  <time>2026-08-28T19:08:27Z</time>
  <course>21.7</course>
  <speed>0.1</speed>
  <fix>3d</fix>
</trkpt>
<trkpt lat="40.073829" lon="-105.2301754">
  <ele>1655.23</ele>
  <time>2026-08-28T19:08:27Z</time>
  <course>108.39</course>
  <speed>0.07</speed>
  <fix>3d</fix>
</trkpt>
<trkpt lat="40.0738291" lon="-105.230175">
  <ele>1653.38</ele>
  <time>2026-08-28T19:08:27Z</time>
  <course>22.38</course>
  <speed>0.19235384061671343</speed>
  <fix>3d</fix>
</trkpt>
<trkpt lat="40.0738289" lon="-105.2301751">
  <ele>1654.15</ele>
  <time>2026-08-28T19:08:27Z</time>
  <course>110.61</course>
  <speed>0.14</speed>
  <fix>3d</fix>
</trkpt>
<trkpt lat="40.0738289" lon="-105.2301745">
  <ele>1652.73</ele>
  <time>2026-08-28T19:08:27Z</time>
  <course>22.88</course>
  <speed>0.2570992026436488</speed>
  <fix>3d</fix>
</trkpt>
<trkpt lat="40.0738288" lon="-105.2301747">
  <ele>1653.33</ele>
  <time>2026-08-28T19:08:27Z</time>
  <course>111.24</course>
  <speed>0.23</speed>
  <fix>3d</fix>
</trkpt>
<trkpt lat="40.0738287" lon="-105.2301738">
  <ele>1652.19</ele>
  <time>2026-08-28T19:08:27Z</time>
  <course>22.81</course>
  <speed>0.32015621187164245</speed>
  <fix>3d</fix>
</trkpt>
<trkpt lat="40.0738287" lon="-105.2301741">
  <ele>1652.71</ele>
  <time>2026-08-28T19:08:27Z</time>
  <course>111.35</course>
  <speed>0.3</speed>
  <fix>3d</fix>
</trkpt>
<trkpt lat="40.0738285" lon="-105.230173">
  <ele>1651.71</ele>
  <time>2026-08-28T19:08:27Z</time>
  <course>22.34</course>
  <speed>0.354400902933387</speed>
  <fix>3d</fix>
</trkpt>
<trkpt lat="40.0738285" lon="-105.2301734">
  <ele>1652.2</ele>
  <time>2026-08-28T19:08:27Z</time>
  <course>111.37</course>
  <speed>0.35</speed>
  <fix>3d</fix>
</trkpt>
<trkpt lat="40.0738283" lon="-105.2301721">
  <ele>1651.27</ele>
  <time>2026-08-28T19:08:27Z</time>
  <course>21.71</course>
  <speed>0.38600518131237566</speed>
  <fix>3d</fix>
</trkpt>
<trkpt lat="40.0738282" lon="-105.2301726">
  <ele>1651.74</ele>
  <time>2026-08-28T19:08:27Z</time>
  <course>111.41</course>
  <speed>0.39</speed>
  <fix>3d</fix>
</trkpt>
<trkpt lat="40.073828" lon="-105.2301712">
  <ele>1650.84</ele>
  <time>2026-08-28T19:08:27Z</time>
  <course>21.11</course>
  <speed>0.4080441152620633</speed>
  <fix>3d</fix>
</trkpt>
<trkpt lat="40.0738279" lon="-105.2301717">
  <ele>1651.31</ele>
  <time>2026-08-28T19:08:27Z</time>
  <course>111.52</course>
  <speed>0.42</speed>
  <fix>3d</fix>
</trkpt>
<trkpt lat="40.0738277" lon="-105.2301702">
  <ele>1650.43</ele>
  <time>2026-08-28T19:08:27Z</time>
  <course>20.63</course>
  <speed>0.4301162633521314</speed>
  <fix>3d</fix>
</trkpt>
<trkpt lat="40.0738276" lon="-105.2301708">
  <ele>1650.89</ele>
  <time>2026-08-28T19:08:27Z</time>
  <course>111.7</course>
  <speed>0.44</speed>
  <fix>3d</fix>
</trkpt>
<trkpt lat="40.0738274" lon="-105.2301692">
  <ele>1650.02</ele>
  <time>2026-08-28T19:08:27Z</time>
  <course>20.28</course>
  <speed>0.4427188724235731</speed>
  <fix>3d</fix>
</trkpt>
<trkpt lat="40.0738273" lon="-105.2301698">
  <ele>1650.47</ele>
  <time>2026-08-28T19:08:27Z</time>
  <course>111.94</course>
  <speed>0.46</speed>
  <fix>3d</fix>
</trkpt>
<trkpt lat="40.073827" lon="-105.2301682">
  <ele>1649.61</ele>
  <time>2026-08-28T19:08:27Z</time>
  <course>20.03</course>
  <speed>0.46486557196677836</speed>
  <fix>3d</fix>
</trkpt>
<trkpt lat="40.073827" lon="-105.2301687">
  <ele>1650.06</ele>
  <time>2026-08-28T19:08:27Z</time>
  <course>112.21</course>
  <speed>0.48</speed>
  <fix>3d</fix>
</trkpt>
<trkpt lat="40.0738267" lon="-105.2301671">
  <ele>1649.2</ele>
  <time>2026-08-28T19:08:27Z</time>
  <course>19.86</course>
  <speed>0.4775981574503821</speed>
  <fix>3d</fix>
</trkpt>
<trkpt lat="40.0738267" lon="-105.2301677">
  <ele>1649.64</ele>
  <time>2026-08-28T19:08:27Z</time>
  <course>112.52</course>
  <speed>0.49</speed>
  <fix>3d</fix>
</trkpt>
<trkpt lat="40.0738263" lon="-105.230166">
  <ele>1648.8</ele>
  <time>2026-08-28T19:08:27Z</time>
  <course>19.76</course>
  <speed>0.48104053883222775</speed>
  <fix>3d</fix>
</trkpt>
<trkpt lat="40.0738263" lon="-105.2301666">
  <ele>1649.23</ele>
  <time>2026-08-28T19:08:27Z</time>
  <course>112.83</course>
  <speed>0.5</speed>
  <fix>3d</fix>
</trkpt>
<trkpt lat="40.073826" lon="-105.2301649">
  <ele>1648.39</ele>
  <time>2026-08-28T19:08:27Z</time>
  <course>19.68</course>
  <speed>0.4939635614091387</speed>
  <fix>3d</fix>
</trkpt>
<trkpt lat="40.0738259" lon="-105.2301655">
  <ele>1648.81</ele>
  <time>2026-08-28T19:08:27Z</time>
  <course>113.16</course>
  <speed>0.51</speed>
  <fix>3d</fix>
</trkpt>
<trkpt lat="40.0738256" lon="-105.2301638">
  <ele>1648.0</ele>
  <time>2026-08-28T19:08:27Z</time>
  <course>19.64</course>
  <speed>0.5126402247190519</speed>
  <fix>3d</fix>
</trkpt>
<trkpt lat="40.0738256" lon="-105.2301644">
  <ele>1648.4</ele>
  <time>2026-08-28T19:08:27Z</time>
  <course>113.48</course>
  <speed>0.52</speed>
  <fix>3d</fix>
</trkpt>
<trkpt lat="40.0738252" lon="-105.2301626">
  <ele>1647.66</ele>
  <time>2026-08-28T19:08:27Z</time>
  <course>19.48</course>
  <speed>0.5385164807134504</speed>
  <fix>3d</fix>
</trkpt>
<trkpt lat="40.0738252" lon="-105.2301632">
  <ele>1648.03</ele>
  <time>2026-08-28T19:08:27Z</time>
  <course>113.72</course>
  <speed>0.54</speed>
  <fix>3d</fix>
</trkpt>
<trkpt lat="40.0738248" lon="-105.2301614">
  <ele>1647.36</ele>
  <time>2026-08-28T19:08:27Z</time>
  <course>19.17</course>
  <speed>0.5478138369920935</speed>
  <fix>3d</fix>
</trkpt>
<trkpt lat="40.0738248" lon="-105.230162">
  <ele>1647.7</ele>
  <time>2026-08-28T19:08:27Z</time>
  <course>113.92</course>
  <speed>0.56</speed>
  <fix>3d</fix>
</trkpt>
<trkpt lat="40.0738243" lon="-105.2301601">
  <ele>1647.09</ele>
  <time>2026-08-28T19:08:27Z</time>
  <course>18.81</course>
  <speed>0.5608029957123981</speed>
  <fix>3d</fix>
</trkpt>
<trkpt lat="40.0738243" lon="-105.2301607">
  <ele>1647.41</ele>
  <time>2026-08-28T19:08:27Z</time>
  <course>114.18</course>
  <speed>0.57</speed>
  <fix>3d</fix>
</trkpt>
<trkpt lat="40.0738239" lon="-105.2301589">
  <ele>1646.83</ele>
  <time>2026-08-28T19:08:27Z</time>
  <course>18.5</course>
  <speed>0.5646237685397242</speed>
  <fix>3d</fix>
</trkpt>
<trkpt lat="40.073824" lon="-105.2301595">
  <ele>1647.13</ele>
  <time>2026-08-28T19:08:27Z</time>
  <course>114.51</course>
  <speed>0.58</speed>
  <fix>3d</fix>
</trkpt>
<trkpt lat="40.0738234" lon="-105.2301576">
  <ele>1646.57</ele>
  <time>2026-08-28T19:08:27Z</time>
  <course>18.28</course>
  <speed>0.5777542730261715</speed>
  <fix>3d</fix>
</trkpt>
<trkpt lat="40.0738235" lon="-105.2301583">
  <ele>1646.87</ele>
  <time>2026-08-28T19:08:27Z</time>
  <course>114.89</course>
  <speed>0.59</speed>
  <fix>3d</fix>
</trkpt>
<trkpt lat="40.073823" lon="-105.2301563">
  <ele>1646.32</ele>
  <time>2026-08-28T19:08:27Z</time>
  <course>18.14</course>
  <speed>0.5777542730261715</speed>
  <fix>3d</fix>
</trkpt>
<trkpt lat="40.0738231" lon="-105.230157">
  <ele>1646.61</ele>
  <time>2026-08-28T19:08:27Z</time>
  <course>115.32</course>
  <speed>0.59</speed>
  <fix>3d</fix>
</trkpt>
<trkpt lat="40.0738225" lon="-105.2301551">
  <ele>1646.07</ele>
  <time>2026-08-28T19:08:27Z</time>
  <course>18.06</course>
  <speed>0.5818075283115542</speed>
  <fix>3d</fix>
</trkpt>
<trkpt lat="40.0738226" lon="-105.2301557">
  <ele>1646.35</ele>
  <time>2026-08-28T19:08:27Z</time>
  <course>115.77</course>
  <speed>0.6</speed>
  <fix>3d</fix>
</trkpt>
<trkpt lat="40.073822" lon="-105.2301538">
  <ele>1645.82</ele>
  <time>2026-08-28T19:08:27Z</time>
  <course>18.03</course>
  <speed>0.5727128425310541</speed>
  <fix>3d</fix>
</trkpt>
<trkpt lat="40.0738221" lon="-105.2301545">
  <ele>1646.09</ele>
  <time>2026-08-28T19:08:27Z</time>
  <course>116.24</course>
  <speed>0.6</speed>
  <fix>3d</fix>
</trkpt>
<trkpt lat="40.0738215" lon="-105.2301525">
  <ele>1645.59</ele>
  <time>2026-08-28T19:08:27Z</time>
  <course>18.02</course>
  <speed>0.5769748694700663</speed>
  <fix>3d</fix>
</trkpt>
<trkpt lat="40.0738216" lon="-105.2301532">
  <ele>1645.85</ele>
  <time>2026-08-28T19:08:27Z</time>
  <course>116.72</course>
  <speed>0.6</speed>
  <fix>3d</fix>
</trkpt>
<trkpt lat="40.073821" lon="-105.2301513">
  <ele>1645.36</ele>
  <time>2026-08-28T19:08:27Z</time>
  <course>18.02</course>
  <speed>0.5769748694700663</speed>
  <fix>3d</fix>
</trkpt>
<trkpt lat="40.0738211" lon="-105.2301519">
  <ele>1645.61</ele>
  <time>2026-08-28T19:08:27Z</time>
  <course>117.21</course>
  <speed>0.6</speed>
  <fix>3d</fix>
</trkpt>
<trkpt lat="40.0738205" lon="-105.2301501">
  <ele>1645.14</ele>
  <time>2026-08-28T19:08:27Z</time>
  <course>18.02</course>
  <speed>0.567978872846517</speed>
  <fix>3d</fix>
</trkpt>
<trkpt lat="40.0738206" lon="-105.2301507">
  <ele>1645.37</ele>
  <time>2026-08-28T19:08:27Z</time>
  <course>117.7</course>
  <speed>0.6</speed>
  <fix>3d</fix>
</trkpt>
<trkpt lat="40.07382" lon="-105.2301488">
  <ele>1644.92</ele>
  <time>2026-08-28T19:08:27Z</time>
  <course>18.03</course>
  <speed>0.5724508712544685</speed>
  <fix>3d</fix>
</trkpt>
<trkpt lat="40.0738201" lon="-105.2301494">
  <ele>1645.15</ele>
  <time>2026-08-28T19:08:27Z</time>
  <course>118.19</course>
  <speed>0.59</speed>
  <fix>3d</fix>
</trkpt>
<trkpt lat="40.0738195" lon="-105.2301476">
  <ele>1644.71</ele>
  <time>2026-08-28T19:08:27Z</time>
  <course>18.03</course>
  <speed>0.5635601121442149</speed>
  <fix>3d</fix>
</trkpt>
<trkpt lat="40.0738196" lon="-105.2301482">
  <ele>1644.92</ele>
  <time>2026-08-28T19:08:27Z</time>
  <course>118.69</course>
  <speed>0.59</speed>
  <fix>3d</fix>
</trkpt>
<trkpt lat="40.073819" lon="-105.2301464">
  <ele>1644.5</ele>
  <time>2026-08-28T19:08:27Z</time>
  <course>18.04</course>
  <speed>0.5635601121442149</speed>
  <fix>3d</fix>
</trkpt>
<trkpt lat="40.0738191" lon="-105.2301469">
  <ele>1644.71</ele>
  <time>2026-08-28T19:08:27Z</time>
  <course>119.2</course>
  <speed>0.59</speed>
  <fix>3d</fix>
</trkpt>
<trkpt lat="40.0738185" lon="-105.2301452">
  <ele>1644.29</ele>
  <time>2026-08-28T19:08:27Z</time>
  <course>18.05</course>
  <speed>0.5594640292279746</speed>
  <fix>3d</fix>
</trkpt>
<trkpt lat="40.0738186" lon="-105.2301458">
  <ele>1644.5</ele>
  <time>2026-08-28T19:08:27Z</time>
  <course>119.72</course>
  <speed>0.58</speed>
  <fix>3d</fix>
</trkpt>
<trkpt lat="40.0738179" lon="-105.230144">
  <ele>1644.1</ele>
  <time>2026-08-28T19:08:27Z</time>
  <course>18.06</course>
  <speed>0.5507267925205745</speed>
  <fix>3d</fix>
</trkpt>
<trkpt lat="40.073818" lon="-105.2301446">
  <ele>1644.3</ele>
  <time>2026-08-28T19:08:27Z</time>
  <course>120.26</course>
  <speed>0.57</speed>
  <fix>3d</fix>
</trkpt>
<trkpt lat="40.0738174" lon="-105.2301429">
  <ele>1643.91</ele>
  <time>2026-08-28T19:08:27Z</time>
  <course>18.06</course>
  <speed>0.5420332093147061</speed>
  <fix>3d</fix>
</trkpt>
<trkpt lat="40.0738175" lon="-105.2301435">
  <ele>1644.1</ele>
  <time>2026-08-28T19:08:27Z</time>
  <course>120.79</course>
  <speed>0.57</speed>
  <fix>3d</fix>
</trkpt>
<trkpt lat="40.0738169" lon="-105.2301417">
  <ele>1643.74</ele>
  <time>2026-08-28T19:08:27Z</time>
  <course>18.06</course>
  <speed>0.5333854141237835</speed>
  <fix>3d</fix>
</trkpt>
<trkpt lat="40.073817" lon="-105.2301423">
  <ele>1643.91</ele>
  <time>2026-08-28T19:08:27Z</time>
  <course>121.35</course>
  <speed>0.56</speed>
  <fix>3d</fix>
</trkpt>
<trkpt lat="40.0738163" lon="-105.2301406">
  <ele>1643.57</ele>
  <time>2026-08-28T19:08:27Z</time>
  <course>18.08</course>
  <speed>0.524785670536077</speed>
  <fix>3d</fix>
</trkpt>
<trkpt lat="40.0738165" lon="-105.2301412">
  <ele>1643.74</ele>
  <time>2026-08-28T19:08:27Z</time>
  <course>121.92</course>
  <speed>0.55</speed>
  <fix>3d</fix>
</trkpt>
<trkpt lat="40.0738158" lon="-105.2301396">
  <ele>1643.4</ele>
  <time>2026-08-28T19:08:27Z</time>
  <course>18.16</course>
  <speed>0.5162363799656123</speed>
  <fix>3d</fix>
</trkpt>
<trkpt lat="40.0738159" lon="-105.2301401">
  <ele>1643.56</ele>
  <time>2026-08-28T19:08:27Z</time>
  <course>122.5</course>
  <speed>0.55</speed>
  <fix>3d</fix>
</trkpt>
<trkpt lat="40.0738153" lon="-105.2301385">
  <ele>1643.24</ele>
  <time>2026-08-28T19:08:27Z</time>
  <course>18.27</course>
  <speed>0.5077400909914441</speed>
  <fix>3d</fix>
</trkpt>
<trkpt lat="40.0738154" lon="-105.230139">
  <ele>1643.39</ele>
  <time>2026-08-28T19:08:27Z</time>
  <course>123.05</course>
  <speed>0.54</speed>
  <fix>3d</fix>
</trkpt>
<trkpt lat="40.0738147" lon="-105.2301374">
  <ele>1643.08</ele>
  <time>2026-08-28T19:08:27Z</time>
  <course>18.31</course>
  <speed>0.5077400909914441</speed>
  <fix>3d</fix>
</trkpt>
<trkpt lat="40.0738149" lon="-105.2301379">
  <ele>1643.23</ele>
  <time>2026-08-28T19:08:27Z</time>
  <course>123.56</course>
  <speed>0.53</speed>
  <fix>3d</fix>
</trkpt>
<trkpt lat="40.0738142" lon="-105.2301364">
  <ele>1642.92</ele>
  <time>2026-08-28T19:08:27Z</time>
  <course>18.33</course>
  <speed>0.49929950931279715</speed>
  <fix>3d</fix>
</trkpt>
<trkpt lat="40.0738144" lon="-105.2301368">
  <ele>1643.07</ele>
  <time>2026-08-28T19:08:27Z</time>
  <course>124.04</course>
  <speed>0.53</speed>
  <fix>3d</fix>
</trkpt>
<trkpt lat="40.0738137" lon="-105.2301354">
  <ele>1642.77</ele>
  <time>2026-08-28T19:08:27Z</time>
  <course>18.34</course>
  <speed>0.4909175083453431</speed>
  <fix>3d</fix>
</trkpt>
<trkpt lat="40.0738138" lon="-105.2301358">
  <ele>1642.91</ele>
  <time>2026-08-28T19:08:27Z</time>
  <course>124.51</course>
  <speed>0.52</speed>
  <fix>3d</fix>
</trkpt>
<trkpt lat="40.0738131" lon="-105.2301344">
  <ele>1642.62</ele>
  <time>2026-08-28T19:08:27Z</time>
  <course>18.33</course>
  <speed>0.4909175083453431</speed>
  <fix>3d</fix>
</trkpt>
<trkpt lat="40.0738133" lon="-105.2301349">
  <ele>1642.76</ele>
  <time>2026-08-28T19:08:27Z</time>
  <course>124.96</course>
  <speed>0.51</speed>
  <fix>3d</fix>
</trkpt>
<trkpt lat="40.0738126" lon="-105.2301334">
  <ele>1642.48</ele>
  <time>2026-08-28T19:08:27Z</time>
  <course>18.33</course>
  <speed>0.4825971404805462</speed>
  <fix>3d</fix>
</trkpt>
<trkpt lat="40.0738128" lon="-105.2301339">
  <ele>1642.6</ele>
  <time>2026-08-28T19:08:27Z</time>
  <course>125.39</course>
  <speed>0.51</speed>
  <fix>3d</fix>
</trkpt>
<trkpt lat="40.0738121" lon="-105.2301324">
  <ele>1642.33</ele>
  <time>2026-08-28T19:08:27Z</time>
  <course>18.33</course>
  <speed>0.4743416490252569</speed>
  <fix>3d</fix>
</trkpt>
<trkpt lat="40.0738122" lon="-105.2301329">
  <ele>1642.45</ele>
  <time>2026-08-28T19:08:27Z</time>
  <course>125.82</course>
  <speed>0.5</speed>
  <fix>3d</fix>
</trkpt>
<trkpt lat="40.0738115" lon="-105.2301315">
  <ele>1642.1</ele>
  <time>2026-08-28T19:08:27Z</time>
  <course>18.27</course>
  <speed>0.40607881008493907</speed>
  <fix>3d</fix>
</trkpt>
<trkpt lat="40.0738117" lon="-105.2301319">
  <ele>1642.29</ele>
  <time>2026-08-28T19:08:27Z</time>
  <course>126.84</course>
  <speed>0.48</speed>
  <fix>3d</fix>
</trkpt>
<trkpt lat="40.0738111" lon="-105.2301309">
  <ele>1641.55</ele>
  <time>2026-08-28T19:08:27Z</time>
  <course>19.36</course>
  <speed>0.3252691193458119</speed>
  <fix>3d</fix>
</trkpt>
<trkpt lat="40.0738112" lon="-105.2301311">
  <ele>1641.97</ele>
  <time>2026-08-28T19:08:27Z</time>
  <course>130.2</course>
  <speed>0.41</speed>
  <fix>3d</fix>
</trkpt>
<trkpt lat="40.0738106" lon="-105.2301303">
  <ele>1640.76</ele>
  <time>2026-08-28T19:08:28Z</time>
  <course>20.51</course>
  <speed>0.2831960451701259</speed>
  <fix>3d</fix>
</trkpt>
<trkpt lat="40.0738107" lon="-105.2301305">
  <ele>1641.37</ele>
  <time>2026-08-28T19:08:28Z</time>
  <course>135.03</course>
  <speed>0.33</speed>
  <fix>3d</fix>
</trkpt>
<trkpt lat="40.0738102" lon="-105.2301299">
  <ele>1639.82</ele>
  <time>2026-08-28T19:08:28Z</time>
  <course>19.78</course>
  <speed>0.25</speed>
  <fix>3d</fix>
</trkpt>
<trkpt lat="40.0738103" lon="-105.2301299">
  <ele>1640.55</ele>
  <time>2026-08-28T19:08:28Z</time>
  <course>138.32</course>
  <speed>0.29</speed>
  <fix>3d</fix>
</trkpt>
<trkpt lat="40.0738099" lon="-105.2301296">
  <ele>1638.77</ele>
  <time>2026-08-28T19:08:28Z</time>
  <course>18.52</course>
  <speed>0.18788294228055935</speed>
  <fix>3d</fix>
</trkpt>
<trkpt lat="40.0738099" lon="-105.2301295">
  <ele>1639.59</ele>
  <time>2026-08-28T19:08:28Z</time>
  <course>144.67</course>
  <speed>0.25</speed>
  <fix>3d</fix>
</trkpt>
<trkpt lat="40.0738095" lon="-105.2301294">
  <ele>1637.65</ele>
  <time>2026-08-28T19:08:28Z</time>
  <course>19.48</course>
  <speed>0.1649242250247064</speed>
  <fix>3d</fix>
</trkpt>
<trkpt lat="40.0738096" lon="-105.2301292">
  <ele>1638.53</ele>
  <time>2026-08-28T19:08:28Z</time>
  <course>155.42</course>
  <speed>0.2</speed>
  <fix>3d</fix>
</trkpt>
<trkpt lat="40.0738092" lon="-105.2301293">
  <ele>1636.48</ele>
  <time>2026-08-28T19:08:28Z</time>
  <course>20.52</course>
  <speed>0.16124515496597097</speed>
  <fix>3d</fix>
</trkpt>
<trkpt lat="40.0738092" lon="-105.2301291">
  <ele>1637.39</ele>
  <time>2026-08-28T19:08:28Z</time>
  <course>163.63</course>
  <speed>0.18</speed>
  <fix>3d</fix>
</trkpt>
<trkpt lat="40.0738089" lon="-105.2301292">
  <ele>1635.27</ele>
  <time>2026-08-28T19:08:28Z</time>
  <course>21.39</course>
  <speed>0.16278820596099705</speed>
  <fix>3d</fix>
</trkpt>
<trkpt lat="40.0738089" lon="-105.230129">
  <ele>1636.22</ele>
  <time>2026-08-28T19:08:28Z</time>
  <course>166.87</course>
  <speed>0.17</speed>
  <fix>3d</fix>
</trkpt>
<trkpt lat="40.0738086" lon="-105.230129">
  <ele>1634.04</ele>
  <time>2026-08-28T19:08:28Z</time>
  <course>21.5</course>
  <speed>0.15297058540778355</speed>
  <fix>3d</fix>
</trkpt>
<trkpt lat="40.0738086" lon="-105.2301289">
  <ele>1635.02</ele>
  <time>2026-08-28T19:08:28Z</time>
  <course>165.8</course>
  <speed>0.17</speed>
  <fix>3d</fix>
</trkpt>
<trkpt lat="40.0738083" lon="-105.2301289">
  <ele>1632.81</ele>
  <time>2026-08-28T19:08:28Z</time>
  <course>21.39</course>
  <speed>0.15524174696260024</speed>
  <fix>3d</fix>
</trkpt>
<trkpt lat="40.0738083" lon="-105.2301288">
  <ele>1633.8</ele>
  <time>2026-08-28T19:08:28Z</time>
  <course>163.68</course>
  <speed>0.17</speed>
  <fix>3d</fix>
</trkpt>
<trkpt lat="40.073808" lon="-105.2301288">
  <ele>1631.57</ele>
  <time>2026-08-28T19:08:28Z</time>
  <course>21.23</course>
  <speed>0.15524174696260024</speed>
  <fix>3d</fix>
</trkpt>
<trkpt lat="40.073808" lon="-105.2301287">
  <ele>1632.57</ele>
  <time>2026-08-28T19:08:28Z</time>
  <course>162.01</course>
  <speed>0.17</speed>
  <fix>3d</fix>
</trkpt>
<trkpt lat="40.0738077" lon="-105.2301286">
  <ele>1630.33</ele>
  <time>2026-08-28T19:08:28Z</time>
  <course>21.1</course>
  <speed>0.15811388300841897</speed>
  <fix>3d</fix>
</trkpt>
<trkpt lat="40.0738077" lon="-105.2301285">
  <ele>1631.33</ele>
  <time>2026-08-28T19:08:28Z</time>
  <course>160.45</course>
  <speed>0.18</speed>
  <fix>3d</fix>
</trkpt>
<trkpt lat="40.0738074" lon="-105.2301285">
  <ele>1629.09</ele>
  <time>2026-08-28T19:08:28Z</time>
  <course>20.98</course>
  <speed>0.15811388300841897</speed>
  <fix>3d</fix>
</trkpt>
<trkpt lat="40.0738074" lon="-105.2301283">
  <ele>1630.1</ele>
  <time>2026-08-28T19:08:28Z</time>
  <course>158.97</course>
  <speed>0.18</speed>
  <fix>3d</fix>
</trkpt>
<trkpt lat="40.0738071" lon="-105.2301283">
  <ele>1627.84</ele>
  <time>2026-08-28T19:08:28Z</time>
  <course>20.88</course>
  <speed>0.1615549442140351</speed>
  <fix>3d</fix>
</trkpt>
<trkpt lat="40.0738071" lon="-105.2301282">
  <ele>1628.86</ele>
  <time>2026-08-28T19:08:28Z</time>
  <course>157.57</course>
  <speed>0.18</speed>
  <fix>3d</fix>
</trkpt>
<trkpt lat="40.0738068" lon="-105.2301281">
  <ele>1626.6</ele>
  <time>2026-08-28T19:08:28Z</time>
  <course>20.79</course>
  <speed>0.1615549442140351</speed>
  <fix>3d</fix>
</trkpt>
<trkpt lat="40.0738068" lon="-105.2301281">
  <ele>1627.62</ele>
  <time>2026-08-28T19:08:28Z</time>
  <course>156.3</course>
  <speed>0.18</speed>
  <fix>3d</fix>
</trkpt>
<trkpt lat="40.0738065" lon="-105.2301279">
  <ele>1625.36</ele>
  <time>2026-08-28T19:08:28Z</time>
  <course>20.7</course>
  <speed>0.16552945357246848</speed>
  <fix>3d</fix>
</trkpt>
<trkpt lat="40.0738065" lon="-105.2301278">
  <ele>1626.39</ele>
  <time>2026-08-28T19:08:28Z</time>
  <course>155.15</course>
  <speed>0.19</speed>
  <fix>3d</fix>
</trkpt>
<trkpt lat="40.0738061" lon="-105.2301277">
  <ele>1624.13</ele>
  <time>2026-08-28T19:08:28Z</time>
  <course>20.63</course>
  <speed>0.16552945357246848</speed>
  <fix>3d</fix>
</trkpt>
<trkpt lat="40.0738062" lon="-105.2301277">
  <ele>1625.15</ele>
  <time>2026-08-28T19:08:28Z</time>
  <course>154.08</course>
  <speed>0.19</speed>
  <fix>3d</fix>
</trkpt>
<trkpt lat="40.0738058" lon="-105.2301275">
  <ele>1622.89</ele>
  <time>2026-08-28T19:08:28Z</time>
  <course>20.56</course>
  <speed>0.16552945357246848</speed>
  <fix>3d</fix>
</trkpt>
<trkpt lat="40.0738058" lon="-105.2301275">
  <ele>1623.92</ele>
  <time>2026-08-28T19:08:28Z</time>
  <course>153.15</course>
  <speed>0.19</speed>
  <fix>3d</fix>
</trkpt>
<trkpt lat="40.0738055" lon="-105.2301273">
  <ele>1621.65</ele>
  <time>2026-08-28T19:08:28Z</time>
  <course>20.49</course>
  <speed>0.17</speed>
  <fix>3d</fix>
</trkpt>
<trkpt lat="40.0738055" lon="-105.2301272">
  <ele>1622.68</ele>
  <time>2026-08-28T19:08:28Z</time>
  <course>152.3</course>
  <speed>0.19</speed>
  <fix>3d</fix>
</trkpt>
<trkpt lat="40.0738052" lon="-105.2301271">
  <ele>1620.42</ele>
  <time>2026-08-28T19:08:28Z</time>
  <course>20.44</course>
  <speed>0.17</speed>
  <fix>3d</fix>
</trkpt>
<trkpt lat="40.0738052" lon="-105.2301271">
  <ele>1621.45</ele>
  <time>2026-08-28T19:08:28Z</time>
  <course>151.51</course>
  <speed>0.2</speed>
  <fix>3d</fix>
</trkpt>
<trkpt lat="40.0738049" lon="-105.2301268">
  <ele>1619.19</ele>
  <time>2026-08-28T19:08:28Z</time>
  <course>20.38</course>
  <speed>0.17</speed>
  <fix>3d</fix>
</trkpt>
<trkpt lat="40.0738049" lon="-105.2301268">
  <ele>1620.21</ele>
  <time>2026-08-28T19:08:28Z</time>
  <course>150.81</course>
  <speed>0.2</speed>
  <fix>3d</fix>
</trkpt>
<trkpt lat="40.0738046" lon="-105.2301266">
  <ele>1617.95</ele>
  <time>2026-08-28T19:08:28Z</time>
  <course>20.34</course>
  <speed>0.17492855684535902</speed>
  <fix>3d</fix>
</trkpt>
<trkpt lat="40.0738046" lon="-105.2301266">
  <ele>1618.98</ele>
  <time>2026-08-28T19:08:28Z</time>
  <course>150.22</course>
  <speed>0.2</speed>
  <fix>3d</fix>
</trkpt>
<trkpt lat="40.0738042" lon="-105.2301264">
  <ele>1616.71</ele>
  <time>2026-08-28T19:08:28Z</time>
  <course>20.28</course>
  <speed>0.17492855684535902</speed>
  <fix>3d</fix>
</trkpt>
<trkpt lat="40.0738043" lon="-105.2301263">
  <ele>1617.75</ele>
  <time>2026-08-28T19:08:28Z</time>
  <course>149.69</course>
  <speed>0.21</speed>
  <fix>3d</fix>
</trkpt>
<trkpt lat="40.0738039" lon="-105.2301261">
  <ele>1615.47</ele>
  <time>2026-08-28T19:08:28Z</time>
  <course>20.22</course>
  <speed>0.17492855684535902</speed>
  <fix>3d</fix>
</trkpt>
<trkpt lat="40.0738039" lon="-105.2301261">
  <ele>1616.52</ele>
  <time>2026-08-28T19:08:28Z</time>
  <course>149.2</course>
  <speed>0.21</speed>
  <fix>3d</fix>
</trkpt>
<trkpt lat="40.0738036" lon="-105.2301258">
  <ele>1614.24</ele>
  <time>2026-08-28T19:08:28Z</time>
  <course>20.16</course>
  <speed>0.1835755975068582</speed>
  <fix>3d</fix>
</trkpt>
<trkpt lat="40.0738036" lon="-105.2301258">
  <ele>1615.29</ele>
  <time>2026-08-28T19:08:28Z</time>
  <course>148.79</course>
  <speed>0.21</speed>
  <fix>3d</fix>
</trkpt>
<trkpt lat="40.0738033" lon="-105.2301256">
  <ele>1613.0</ele>
  <time>2026-08-28T19:08:28Z</time>
  <course>20.1</course>
  <speed>0.18867962264113206</speed>
  <fix>3d</fix>
</trkpt>
<trkpt lat="40.0738032" lon="-105.2301255">
  <ele>1614.06</ele>
  <time>2026-08-28T19:08:28Z</time>
  <course>148.41</course>
  <speed>0.21</speed>
  <fix>3d</fix>
</trkpt>
<trkpt lat="40.0738029" lon="-105.2301253">
  <ele>1611.77</ele>
  <time>2026-08-28T19:08:28Z</time>
  <course>20.09</course>
  <speed>0.18867962264113206</speed>
  <fix>3d</fix>
</trkpt>
<trkpt lat="40.0738029" lon="-105.2301253">
  <ele>1612.83</ele>
  <time>2026-08-28T19:08:28Z</time>
  <course>148.1</course>
  <speed>0.21</speed>
  <fix>3d</fix>
</trkpt>
<trkpt lat="40.0738026" lon="-105.230125">
  <ele>1610.53</ele>
  <time>2026-08-28T19:08:28Z</time>
  <course>20.03</course>
  <speed>0.18867962264113206</speed>
  <fix>3d</fix>
</trkpt>
<trkpt lat="40.0738026" lon="-105.230125">
  <ele>1611.6</ele>
  <time>2026-08-28T19:08:28Z</time>
  <course>147.81</course>
  <speed>0.22</speed>
  <fix>3d</fix>
</trkpt>
<trkpt lat="40.0738022" lon="-105.2301247">
  <ele>1609.28</ele>
  <time>2026-08-28T19:08:28Z</time>
  <course>20.0</course>
  <speed>0.18867962264113206</speed>
  <fix>3d</fix>
</trkpt>
<trkpt lat="40.0738022" lon="-105.2301247">
  <ele>1610.37</ele>
  <time>2026-08-28T19:08:28Z</time>
  <course>147.56</course>
  <speed>0.22</speed>
  <fix>3d</fix>
</trkpt>
<trkpt lat="40.0738019" lon="-105.2301244">
  <ele>1608.05</ele>
  <time>2026-08-28T19:08:28Z</time>
  <course>19.96</course>
  <speed>0.194164878389476</speed>
  <fix>3d</fix>
</trkpt>
<trkpt lat="40.0738019" lon="-105.2301244">
  <ele>1609.14</ele>
  <time>2026-08-28T19:08:28Z</time>
  <course>147.36</course>
  <speed>0.22</speed>
  <fix>3d</fix>
</trkpt>
<trkpt lat="40.0738016" lon="-105.2301241">
  <ele>1606.82</ele>
  <time>2026-08-28T19:08:28Z</time>
  <course>19.91</course>
  <speed>0.194164878389476</speed>
  <fix>3d</fix>
</trkpt>
<trkpt lat="40.0738015" lon="-105.2301241">
  <ele>1607.91</ele>
  <time>2026-08-28T19:08:28Z</time>
  <course>147.18</course>
  <speed>0.22</speed>
  <fix>3d</fix>
</trkpt>
<trkpt lat="40.0738012" lon="-105.2301239">
  <ele>1605.59</ele>
  <time>2026-08-28T19:08:28Z</time>
  <course>19.87</course>
  <speed>0.194164878389476</speed>
  <fix>3d</fix>
</trkpt>
<trkpt lat="40.0738012" lon="-105.2301239">
  <ele>1606.67</ele>
  <time>2026-08-28T19:08:28Z</time>
  <course>147.01</course>
  <speed>0.22</speed>
  <fix>3d</fix>
</trkpt>
<trkpt lat="40.0738009" lon="-105.2301236">
  <ele>1604.35</ele>
  <time>2026-08-28T19:08:28Z</time>
  <course>19.84</course>
  <speed>0.20248456731316586</speed>
  <fix>3d</fix>
</trkpt>
<trkpt lat="40.0738008" lon="-105.2301236">
  <ele>1605.45</ele>
  <time>2026-08-28T19:08:28Z</time>
  <course>146.89</course>
  <speed>0.23</speed>
  <fix>3d</fix>
</trkpt>
<trkpt lat="40.0738005" lon="-105.2301233">
  <ele>1603.11</ele>
  <time>2026-08-28T19:08:28Z</time>
  <course>19.81</course>
  <speed>0.20248456731316586</speed>
  <fix>3d</fix>
</trkpt>
<trkpt lat="40.0738005" lon="-105.2301233">
  <ele>1604.22</ele>
  <time>2026-08-28T19:08:28Z</time>
  <course>146.81</course>
  <speed>0.23</speed>
  <fix>3d</fix>
</trkpt>
<trkpt lat="40.0738002" lon="-105.230123">
  <ele>1601.88</ele>
  <time>2026-08-28T19:08:28Z</time>
  <course>19.78</course>
  <speed>0.20248456731316586</speed>
  <fix>3d</fix>
</trkpt>
<trkpt lat="40.0738001" lon="-105.230123">
  <ele>1602.99</ele>
  <time>2026-08-28T19:08:28Z</time>
  <course>146.73</course>
  <speed>0.23</speed>
  <fix>3d</fix>
</trkpt>
<trkpt lat="40.0737998" lon="-105.2301227">
  <ele>1600.66</ele>
  <time>2026-08-28T19:08:28Z</time>
  <course>19.74</course>
  <speed>0.20248456731316586</speed>
  <fix>3d</fix>
</trkpt>
<trkpt lat="40.0737998" lon="-105.2301227">
  <ele>1601.76</ele>
  <time>2026-08-28T19:08:28Z</time>
  <course>146.67</course>
  <speed>0.23</speed>
  <fix>3d</fix>
</trkpt>
<trkpt lat="40.0737994" lon="-105.2301224">
  <ele>1599.43</ele>
  <time>2026-08-28T19:08:28Z</time>
  <course>19.71</course>
  <speed>0.20248456731316586</speed>
  <fix>3d</fix>
</trkpt>
<trkpt lat="40.0737994" lon="-105.2301224">
  <ele>1600.53</ele>
  <time>2026-08-28T19:08:28Z</time>
  <course>146.63</course>
  <speed>0.23</speed>
  <fix>3d</fix>
</trkpt>
<trkpt lat="40.0737991" lon="-105.2301221">
  <ele>1598.2</ele>
  <time>2026-08-28T19:08:28Z</time>
  <course>19.68</course>
  <speed>0.20248456731316586</speed>
  <fix>3d</fix>
</trkpt>
<trkpt lat="40.0737991" lon="-105.230122">
  <ele>1599.31</ele>
  <time>2026-08-28T19:08:28Z</time>
  <course>146.6</course>
  <speed>0.23</speed>
  <fix>3d</fix>
</trkpt>
<trkpt lat="40.0737987" lon="-105.2301217">
  <ele>1596.97</ele>
  <time>2026-08-28T19:08:28Z</time>
  <course>19.65</course>
  <speed>0.20248456731316586</speed>
  <fix>3d</fix>
</trkpt>
<trkpt lat="40.0737988" lon="-105.2301217">
  <ele>1598.08</ele>
  <time>2026-08-28T19:08:28Z</time>
  <course>146.58</course>
  <speed>0.23</speed>
  <fix>3d</fix>
</trkpt>
<trkpt lat="40.0737984" lon="-105.2301214">
  <ele>1595.74</ele>
  <time>2026-08-28T19:08:28Z</time>
  <course>19.61</course>
  <speed>0.20808652046684814</speed>
  <fix>3d</fix>
</trkpt>
<trkpt lat="40.0737984" lon="-105.2301214">
  <ele>1596.85</ele>
  <time>2026-08-28T19:08:28Z</time>
  <course>146.57</course>
  <speed>0.24</speed>
  <fix>3d</fix>
</trkpt>
<trkpt lat="40.073798" lon="-105.2301211">
  <ele>1594.52</ele>
  <time>2026-08-28T19:08:28Z</time>
  <course>19.58</course>
  <speed>0.21633307652783937</speed>
  <fix>3d</fix>
</trkpt>
<trkpt lat="40.0737981" lon="-105.2301211">
  <ele>1595.62</ele>
  <time>2026-08-28T19:08:28Z</time>
  <course>146.58</course>
  <speed>0.24</speed>
  <fix>3d</fix>
</trkpt>
<trkpt lat="40.0737976" lon="-105.2301208">
  <ele>1593.3</ele>
  <time>2026-08-28T19:08:28Z</time>
  <course>19.55</course>
  <speed>0.21633307652783937</speed>
  <fix>3d</fix>
</trkpt>
<trkpt lat="40.0737977" lon="-105.2301208">
  <ele>1594.39</ele>
  <time>2026-08-28T19:08:28Z</time>
  <course>146.6</course>
  <speed>0.24</speed>
  <fix>3d</fix>
</trkpt>
<trkpt lat="40.0737973" lon="-105.2301205">
  <ele>1592.07</ele>
  <time>2026-08-28T19:08:28Z</time>
  <course>19.52</course>
  <speed>0.21633307652783937</speed>
  <fix>3d</fix>
</trkpt>
<trkpt lat="40.0737973" lon="-105.2301205">
  <ele>1593.16</ele>
  <time>2026-08-28T19:08:28Z</time>
  <course>146.64</course>
  <speed>0.24</speed>
  <fix>3d</fix>
</trkpt>
<trkpt lat="40.0737969" lon="-105.2301202">
  <ele>1590.85</ele>
  <time>2026-08-28T19:08:28Z</time>
  <course>19.49</course>
  <speed>0.21633307652783937</speed>
  <fix>3d</fix>
</trkpt>
<trkpt lat="40.073797" lon="-105.2301202">
  <ele>1591.93</ele>
  <time>2026-08-28T19:08:28Z</time>
  <course>146.7</course>
  <speed>0.24</speed>
  <fix>3d</fix>
</trkpt>
<trkpt lat="40.0737966" lon="-105.2301198">
  <ele>1589.62</ele>
  <time>2026-08-28T19:08:28Z</time>
  <course>19.46</course>
  <speed>0.21633307652783937</speed>
  <fix>3d</fix>
</trkpt>
<trkpt lat="40.0737965" lon="-105.2301198">
  <ele>1590.71</ele>
  <time>2026-08-28T19:08:28Z</time>
  <course>146.77</course>
  <speed>0.24</speed>
  <fix>3d</fix>
</trkpt>
<trkpt lat="40.0737962" lon="-105.2301195">
  <ele>1588.39</ele>
  <time>2026-08-28T19:08:28Z</time>
  <course>19.44</course>
  <speed>0.21633307652783937</speed>
  <fix>3d</fix>
</trkpt>
<trkpt lat="40.0737962" lon="-105.2301195">
  <ele>1589.48</ele>
  <time>2026-08-28T19:08:28Z</time>
  <course>146.84</course>
  <speed>0.24</speed>
  <fix>3d</fix>
</trkpt>
<trkpt lat="40.0737958" lon="-105.2301192">
  <ele>1587.17</ele>
  <time>2026-08-28T19:08:28Z</time>
  <course>19.41</course>
  <speed>0.21633307652783937</speed>
  <fix>3d</fix>
</trkpt>
<trkpt lat="40.0737958" lon="-105.2301192">
  <ele>1588.25</ele>
  <time>2026-08-28T19:08:28Z</time>
  <course>146.91</course>
  <speed>0.24</speed>
  <fix>3d</fix>
</trkpt>
<trkpt lat="40.0737954" lon="-105.2301189">
  <ele>1585.94</ele>
  <time>2026-08-28T19:08:28Z</time>
  <course>19.39</course>
  <speed>0.21633307652783937</speed>
  <fix>3d</fix>
</trkpt>
<trkpt lat="40.0737955" lon="-105.2301189">
  <ele>1587.02</ele>
  <time>2026-08-28T19:08:28Z</time>
  <course>147.01</course>
  <speed>0.24</speed>
  <fix>3d</fix>
</trkpt>
<trkpt lat="40.0737951" lon="-105.2301186">
  <ele>1584.71</ele>
  <time>2026-08-28T19:08:28Z</time>
  <course>19.37</course>
  <speed>0.21633307652783937</speed>
  <fix>3d</fix>
</trkpt>
<trkpt lat="40.0737951" lon="-105.2301186">
  <ele>1585.79</ele>
  <time>2026-08-28T19:08:28Z</time>
  <course>147.12</course>
  <speed>0.24</speed>
  <fix>3d</fix>
</trkpt>
<trkpt lat="40.0737947" lon="-105.2301182">
  <ele>1583.48</ele>
  <time>2026-08-28T19:08:28Z</time>
  <course>19.34</course>
  <speed>0.21633307652783937</speed>
  <fix>3d</fix>
</trkpt>
<trkpt lat="40.0737947" lon="-105.2301183">
  <ele>1584.57</ele>
  <time>2026-08-28T19:08:28Z</time>
  <course>147.23</course>
  <speed>0.25</speed>
  <fix>3d</fix>
</trkpt>
<trkpt lat="40.0737946" lon="-105.2301182">
  <ele>1583.12</ele>
  <time>2026-08-28T19:08:28Z</time>
  <course>19.37</course>
  <speed>0.12083045973594572</speed>
  <fix>3d</fix>
</trkpt>
<trkpt lat="40.0737944" lon="-105.2301181">
  <ele>1583.59</ele>
  <time>2026-08-28T19:08:28Z</time>
  <course>149.77</course>
  <speed>0.11</speed>
  <fix>3d</fix>
</trkpt>
<trkpt lat="40.0737947" lon="-105.2301182">
  <ele>1583.41</ele>
  <time>2026-08-28T19:08:28Z</time>
  <course>19.44</course>
  <speed>0.07071067811865475</speed>
  <fix>3d</fix>
</trkpt>
<trkpt lat="40.0737943" lon="-105.230118">
  <ele>1583.38</ele>
  <time>2026-08-28T19:08:28Z</time>
  <course>323.95</course>
  <speed>0.04</speed>
  <fix>3d</fix>
</trkpt>
<trkpt lat="40.0737946" lon="-105.2301182">
  <ele>1583.4</ele>
  <time>2026-08-28T19:08:28Z</time>
  <course>19.46</course>
  <speed>0.02</speed>
  <fix>3d</fix>
</trkpt>
<trkpt lat="40.0737944" lon="-105.2301181">
  <ele>1583.57</ele>
  <time>2026-08-28T19:08:28Z</time>
  <course>339.29</course>
  <speed>0.01</speed>
  <fix>3d</fix>
</trkpt>
<trkpt lat="40.0737946" lon="-105.2301182">
  <ele>1583.37</ele>
  <time>2026-08-28T19:08:28Z</time>
  <course>19.48</course>
  <speed>0.03</speed>
  <fix>3d</fix>
</trkpt>
<trkpt lat="40.0737944" lon="-105.2301181">
  <ele>1583.58</ele>
  <time>2026-08-28T19:08:28Z</time>
  <course>135.57</course>
  <speed>0.0</speed>
  <fix>3d</fix>
</trkpt>
<trkpt lat="40.0737946" lon="-105.2301182">
  <ele>1583.39</ele>
  <time>2026-08-28T19:08:28Z</time>
  <course>19.5</course>
  <speed>0.03</speed>
  <fix>3d</fix>
</trkpt>
<trkpt lat="40.0737944" lon="-105.2301181">
  <ele>1583.55</ele>
  <time>2026-08-28T19:08:28Z</time>
  <course>131.05</course>
  <speed>0.0</speed>
  <fix>3d</fix>
</trkpt>
<trkpt lat="40.0737946" lon="-105.2301182">
  <ele>1583.41</ele>
  <time>2026-08-28T19:08:28Z</time>
  <course>19.51</course>
  <speed>0.02</speed>
  <fix>3d</fix>
</trkpt>
<trkpt lat="40.0737944" lon="-105.230118">
  <ele>1583.55</ele>
  <time>2026-08-28T19:08:28Z</time>
  <course>93.45</course>
  <speed>0.0</speed>
  <fix>3d</fix>
</trkpt>
<trkpt lat="40.0737946" lon="-105.2301182">
  <ele>1583.43</ele>
  <time>2026-08-28T19:08:28Z</time>
  <course>19.5</course>
  <speed>0.02</speed>
  <fix>3d</fix>
</trkpt>
<trkpt lat="40.0737944" lon="-105.2301179">
  <ele>1583.56</ele>
  <time>2026-08-28T19:08:28Z</time>
  <course>104.99</course>
  <speed>0.0</speed>
  <fix>3d</fix>
</trkpt>
<trkpt lat="40.0737946" lon="-105.2301182">
  <ele>1583.44</ele>
  <time>2026-08-28T19:08:28Z</time>
  <course>19.49</course>
  <speed>0.02</speed>
  <fix>3d</fix>
</trkpt>
<trkpt lat="40.0737944" lon="-105.2301179">
  <ele>1583.56</ele>
  <time>2026-08-28T19:08:28Z</time>
  <course>103.81</course>
  <speed>0.0</speed>
  <fix>3d</fix>
</trkpt>
<trkpt lat="40.0737946" lon="-105.2301182">
  <ele>1583.45</ele>
  <time>2026-08-28T19:08:28Z</time>
  <course>19.48</course>
  <speed>0.02</speed>
  <fix>3d</fix>
</trkpt>
<trkpt lat="40.0737944" lon="-105.2301179">
  <ele>1583.56</ele>
  <time>2026-08-28T19:08:28Z</time>
  <course>343.02</course>
  <speed>0.0</speed>
  <fix>3d</fix>
</trkpt>
<trkpt lat="40.0737946" lon="-105.2301181">
  <ele>1583.46</ele>
  <time>2026-08-28T19:08:28Z</time>
  <course>19.47</course>
  <speed>0.02</speed>
  <fix>3d</fix>
</trkpt>
<trkpt lat="40.0737944" lon="-105.2301179">
  <ele>1583.56</ele>
  <time>2026-08-28T19:08:28Z</time>
  <course>54.07</course>
  <speed>0.0</speed>
  <fix>3d</fix>
</trkpt>
<trkpt lat="40.0737946" lon="-105.2301181">
  <ele>1583.46</ele>
  <time>2026-08-28T19:08:28Z</time>
  <course>19.46</course>
  <speed>0.01</speed>
  <fix>3d</fix>
</trkpt>
<trkpt lat="40.0737944" lon="-105.2301179">
  <ele>1583.56</ele>
  <time>2026-08-28T19:08:28Z</time>
  <course>325.9</course>
  <speed>0.0</speed>
  <fix>3d</fix>
</trkpt>
<trkpt lat="40.0737946" lon="-105.2301181">
  <ele>1583.47</ele>
  <time>2026-08-28T19:08:28Z</time>
  <course>19.45</course>
  <speed>0.01</speed>
  <fix>3d</fix>
</trkpt>
<trkpt lat="40.0737944" lon="-105.2301179">
  <ele>1583.56</ele>
  <time>2026-08-28T19:08:28Z</time>
  <course>261.54</course>
  <speed>0.0</speed>
  <fix>3d</fix>
</trkpt>
<trkpt lat="40.0737946" lon="-105.2301181">
  <ele>1583.47</ele>
  <time>2026-08-28T19:08:28Z</time>
  <course>19.44</course>
  <speed>0.01414213562373095</speed>
  <fix>3d</fix>
</trkpt>
<trkpt lat="40.0737944" lon="-105.2301179">
  <ele>1583.56</ele>
  <time>2026-08-28T19:08:28Z</time>
  <course>254.64</course>
  <speed>0.0</speed>
  <fix>3d</fix>
</trkpt>
<trkpt lat="40.0737946" lon="-105.2301181">
  <ele>1583.47</ele>
  <time>2026-08-28T19:08:28Z</time>
  <course>19.44</course>
  <speed>0.01414213562373095</speed>
  <fix>3d</fix>
</trkpt>
<trkpt lat="40.0737944" lon="-105.2301179">
  <ele>1583.56</ele>
  <time>2026-08-28T19:08:28Z</time>
  <course>248.41</course>
  <speed>0.0</speed>
  <fix>3d</fix>
</trkpt>
<trkpt lat="40.0737946" lon="-105.2301181">
  <ele>1583.48</ele>
  <time>2026-08-28T19:08:28Z</time>
  <course>19.43</course>
  <speed>0.01414213562373095</speed>
  <fix>3d</fix>
</trkpt>
<trkpt lat="40.0737944" lon="-105.2301179">
  <ele>1583.56</ele>
  <time>2026-08-28T19:08:28Z</time>
  <course>246.06</course>
  <speed>0.0</speed>
  <fix>3d</fix>
</trkpt>
<trkpt lat="40.0737946" lon="-105.2301181">
  <ele>1583.48</ele>
  <time>2026-08-28T19:08:28Z</time>
  <course>19.43</course>
  <speed>0.01414213562373095</speed>
  <fix>3d</fix>
</trkpt>
<trkpt lat="40.0737944" lon="-105.2301179">
  <ele>1583.56</ele>
  <time>2026-08-28T19:08:28Z</time>
  <course>249.93</course>
  <speed>0.0</speed>
  <fix>3d</fix>
</trkpt>
<trkpt lat="40.0737946" lon="-105.2301181">
  <ele>1583.48</ele>
  <time>2026-08-28T19:08:28Z</time>
  <course>19.42</course>
  <speed>0.01414213562373095</speed>
  <fix>3d</fix>
</trkpt>
<trkpt lat="40.0737944" lon="-105.2301179">
  <ele>1583.56</ele>
  <time>2026-08-28T19:08:28Z</time>
  <course>245.86</course>
  <speed>0.0</speed>
  <fix>3d</fix>
</trkpt>
<trkpt lat="40.0737946" lon="-105.2301181">
  <ele>1583.49</ele>
  <time>2026-08-28T19:08:28Z</time>
  <course>19.42</course>
  <speed>0.01414213562373095</speed>
  <fix>3d</fix>
</trkpt>
<trkpt lat="40.0737944" lon="-105.2301179">
  <ele>1583.56</ele>
  <time>2026-08-28T19:08:28Z</time>
  <course>121.66</course>
  <speed>0.0</speed>
  <fix>3d</fix>
</trkpt>
<trkpt lat="40.0737946" lon="-105.2301181">
  <ele>1583.49</ele>
  <time>2026-08-28T19:08:28Z</time>
  <course>19.41</course>
  <speed>0.01414213562373095</speed>
  <fix>3d</fix>
</trkpt>
<trkpt lat="40.0737944" lon="-105.2301179">
  <ele>1583.56</ele>
  <time>2026-08-28T19:08:28Z</time>
  <course>112.57</course>
  <speed>0.0</speed>
  <fix>3d</fix>
</trkpt>
<trkpt lat="40.0737946" lon="-105.2301181">
  <ele>1583.5</ele>
  <time>2026-08-28T19:08:28Z</time>
  <course>19.41</course>
  <speed>0.01414213562373095</speed>
  <fix>3d</fix>
</trkpt>
<trkpt lat="40.0737944" lon="-105.2301179">
  <ele>1583.56</ele>
  <time>2026-08-28T19:08:28Z</time>
  <course>57.43</course>
  <speed>0.0</speed>
  <fix>3d</fix>
</trkpt>
<trkpt lat="40.0737946" lon="-105.2301181">
  <ele>1583.5</ele>
  <time>2026-08-28T19:08:28Z</time>
  <course>19.4</course>
  <speed>0.01414213562373095</speed>
  <fix>3d</fix>
</trkpt>
<trkpt lat="40.0737944" lon="-105.2301179">
  <ele>1583.56</ele>
  <time>2026-08-28T19:08:28Z</time>
  <course>87.31</course>
  <speed>0.0</speed>
  <fix>3d</fix>
</trkpt>
<trkpt lat="40.0737946" lon="-105.2301181">
  <ele>1583.5</ele>
  <time>2026-08-28T19:08:28Z</time>
  <course>19.4</course>
  <speed>0.01414213562373095</speed>
  <fix>3d</fix>
</trkpt>
<trkpt lat="40.0737944" lon="-105.2301179">
  <ele>1583.56</ele>
  <time>2026-08-28T19:08:28Z</time>
  <course>92.35</course>
  <speed>0.0</speed>
  <fix>3d</fix>
</trkpt>
<trkpt lat="40.0737946" lon="-105.2301181">
  <ele>1583.5</ele>
  <time>2026-08-28T19:08:28Z</time>
  <course>19.39</course>
  <speed>0.01414213562373095</speed>
  <fix>3d</fix>
</trkpt>
<trkpt lat="40.0737944" lon="-105.2301179">
  <ele>1583.56</ele>
  <time>2026-08-28T19:08:28Z</time>
  <course>109.12</course>
  <speed>0.0</speed>
  <fix>3d</fix>
</trkpt>
<trkpt lat="40.0737946" lon="-105.2301181">
  <ele>1583.51</ele>
  <time>2026-08-28T19:08:28Z</time>
  <course>19.39</course>
  <speed>0.01414213562373095</speed>
  <fix>3d</fix>
</trkpt>
<trkpt lat="40.0737944" lon="-105.2301179">
  <ele>1583.56</ele>
  <time>2026-08-28T19:08:28Z</time>
  <course>132.8</course>
  <speed>0.0</speed>
  <fix>3d</fix>
</trkpt>
<trkpt lat="40.0737946" lon="-105.2301181">
  <ele>1583.51</ele>
  <time>2026-08-28T19:08:28Z</time>
  <course>19.38</course>
  <speed>0.01414213562373095</speed>
  <fix>3d</fix>
</trkpt>
<trkpt lat="40.0737944" lon="-105.2301179">
  <ele>1583.56</ele>
  <time>2026-08-28T19:08:28Z</time>
  <course>89.97</course>
  <speed>0.0</speed>
  <fix>3d</fix>
</trkpt>
<trkpt lat="40.0737946" lon="-105.2301181">
  <ele>1583.51</ele>
  <time>2026-08-28T19:08:28Z</time>
  <course>19.38</course>
  <speed>0.01414213562373095</speed>
  <fix>3d</fix>
</trkpt>
<trkpt lat="40.0737944" lon="-105.2301179">
  <ele>1583.56</ele>
  <time>2026-08-28T19:08:28Z</time>
  <course>66.5</course>
  <speed>0.0</speed>
  <fix>3d</fix>
</trkpt>
<trkpt lat="40.0737946" lon="-105.2301181">
  <ele>1583.51</ele>
  <time>2026-08-28T19:08:28Z</time>
  <course>19.37</course>
  <speed>0.01414213562373095</speed>
  <fix>3d</fix>
</trkpt>
<trkpt lat="40.0737944" lon="-105.2301179">
  <ele>1583.56</ele>
  <time>2026-08-28T19:08:28Z</time>
  <course>78.07</course>
  <speed>0.0</speed>
  <fix>3d</fix>
</trkpt>
<trkpt lat="40.0737946" lon="-105.2301181">
  <ele>1583.52</ele>
  <time>2026-08-28T19:08:28Z</time>
  <course>19.37</course>
  <speed>0.01414213562373095</speed>
  <fix>3d</fix>
</trkpt>
<trkpt lat="40.0737944" lon="-105.2301179">
  <ele>1583.56</ele>
  <time>2026-08-28T19:08:28Z</time>
  <course>150.96</course>
  <speed>0.0</speed>
  <fix>3d</fix>
</trkpt>
<trkpt lat="40.0737946" lon="-105.2301181">
  <ele>1583.52</ele>
  <time>2026-08-28T19:08:28Z</time>
  <course>19.36</course>
  <speed>0.01414213562373095</speed>
  <fix>3d</fix>
</trkpt>
<trkpt lat="40.0737944" lon="-105.2301179">
  <ele>1583.56</ele>
  <time>2026-08-28T19:08:28Z</time>
  <course>133.63</course>
  <speed>0.0</speed>
  <fix>3d</fix>
</trkpt>
<trkpt lat="40.0737946" lon="-105.2301181">
  <ele>1583.53</ele>
  <time>2026-08-28T19:08:28Z</time>
  <course>19.36</course>
  <speed>0.01414213562373095</speed>
  <fix>3d</fix>
</trkpt>
<trkpt lat="40.0737944" lon="-105.2301179">
  <ele>1583.56</ele>
  <time>2026-08-28T19:08:28Z</time>
  <course>106.04</course>
  <speed>0.0</speed>
  <fix>3d</fix>
</trkpt>
<trkpt lat="40.0737946" lon="-105.2301181">
  <ele>1583.53</ele>
  <time>2026-08-28T19:08:28Z</time>
  <course>19.35</course>
  <speed>0.01414213562373095</speed>
  <fix>3d</fix>
</trkpt>
<trkpt lat="40.0737944" lon="-105.2301179">
  <ele>1583.56</ele>
  <time>2026-08-28T19:08:28Z</time>
  <course>64.54</course>
  <speed>0.0</speed>
  <fix>3d</fix>
</trkpt>
<trkpt lat="40.0737946" lon="-105.2301181">
  <ele>1583.53</ele>
  <time>2026-08-28T19:08:28Z</time>
  <course>19.35</course>
  <speed>0.01414213562373095</speed>
  <fix>3d</fix>
</trkpt>
<trkpt lat="40.0737944" lon="-105.2301179">
  <ele>1583.56</ele>
  <time>2026-08-28T19:08:28Z</time>
  <course>78.11</course>
  <speed>0.0</speed>
  <fix>3d</fix>
</trkpt>
<trkpt lat="40.0737946" lon="-105.2301181">
  <ele>1583.53</ele>
  <time>2026-08-28T19:08:28Z</time>
  <course>19.34</course>
  <speed>0.01414213562373095</speed>
  <fix>3d</fix>
</trkpt>
<trkpt lat="40.0737944" lon="-105.2301179">
  <ele>1583.56</ele>
  <time>2026-08-28T19:08:28Z</time>
  <course>87.81</course>
  <speed>0.0</speed>
  <fix>3d</fix>
</trkpt>
<trkpt lat="40.0737946" lon="-105.2301181">
  <ele>1583.54</ele>
  <time>2026-08-28T19:08:28Z</time>
  <course>19.34</course>
  <speed>0.01414213562373095</speed>
  <fix>3d</fix>
</trkpt>
<trkpt lat="40.0737944" lon="-105.2301179">
  <ele>1583.56</ele>
  <time>2026-08-28T19:08:28Z</time>
  <course>125.43</course>
  <speed>0.0</speed>
  <fix>3d</fix>
</trkpt>
<trkpt lat="40.0737946" lon="-105.2301181">
  <ele>1583.54</ele>
  <time>2026-08-28T19:08:28Z</time>
  <course>19.33</course>
  <speed>0.01414213562373095</speed>
  <fix>3d</fix>
</trkpt>
<trkpt lat="40.0737944" lon="-105.2301179">
  <ele>1583.56</ele>
  <time>2026-08-28T19:08:28Z</time>
  <course>122.97</course>
  <speed>0.0</speed>
  <fix>3d</fix>
</trkpt>
<trkpt lat="40.0737946" lon="-105.2301181">
  <ele>1583.54</ele>
  <time>2026-08-28T19:08:28Z</time>
  <course>19.33</course>
  <speed>0.01414213562373095</speed>
  <fix>3d</fix>
</trkpt>
<trkpt lat="40.0737944" lon="-105.2301179">
  <ele>1583.56</ele>
  <time>2026-08-28T19:08:28Z</time>
  <course>80.77</course>
  <speed>0.0</speed>
  <fix>3d</fix>
</trkpt>
<trkpt lat="40.0737946" lon="-105.2301181">
  <ele>1583.55</ele>
  <time>2026-08-28T19:08:28Z</time>
  <course>19.32</course>
  <speed>0.01414213562373095</speed>
  <fix>3d</fix>
</trkpt>
<trkpt lat="40.0737944" lon="-105.2301179">
  <ele>1583.56</ele>
  <time>2026-08-28T19:08:28Z</time>
  <course>89.45</course>
  <speed>0.0</speed>
  <fix>3d</fix>
</trkpt>
<trkpt lat="40.0737946" lon="-105.2301181">
  <ele>1583.56</ele>
  <time>2026-08-28T19:08:28Z</time>
  <course>19.32</course>
  <speed>0.01414213562373095</speed>
  <fix>3d</fix>
</trkpt>
<trkpt lat="40.0737944" lon="-105.2301179">
  <ele>1583.56</ele>
  <time>2026-08-28T19:08:28Z</time>
  <course>88.73</course>
  <speed>0.0</speed>
  <fix>3d</fix>
</trkpt>
<trkpt lat="40.0737946" lon="-105.2301181">
  <ele>1583.56</ele>
  <time>2026-08-28T19:08:28Z</time>
  <course>19.31</course>
  <speed>0.01414213562373095</speed>
  <fix>3d</fix>
</trkpt>
<trkpt lat="40.0737944" lon="-105.2301179">
  <ele>1583.56</ele>
  <time>2026-08-28T19:08:28Z</time>
  <course>131.37</course>
  <speed>0.0</speed>
  <fix>3d</fix>
</trkpt>
<trkpt lat="40.0737946" lon="-105.2301181">
  <ele>1583.57</ele>
  <time>2026-08-28T19:08:28Z</time>
  <course>19.31</course>
  <speed>0.01414213562373095</speed>
  <fix>3d</fix>
</trkpt>
<trkpt lat="40.0737944" lon="-105.2301179">
  <ele>1583.56</ele>
  <time>2026-08-28T19:08:28Z</time>
  <course>128.54</course>
  <speed>0.0</speed>
  <fix>3d</fix>
</trkpt>
<trkpt lat="40.0737946" lon="-105.2301181">
  <ele>1583.57</ele>
  <time>2026-08-28T19:08:28Z</time>
  <course>19.31</course>
  <speed>0.01414213562373095</speed>
  <fix>3d</fix>
</trkpt>
<trkpt lat="40.0737944" lon="-105.2301179">
  <ele>1583.56</ele>
  <time>2026-08-28T19:08:28Z</time>
  <course>86.4</course>
  <speed>0.0</speed>
  <fix>3d</fix>
</trkpt>
<trkpt lat="40.0737946" lon="-105.2301181">
  <ele>1583.57</ele>
  <time>2026-08-28T19:08:28Z</time>
  <course>19.3</course>
  <speed>0.01414213562373095</speed>
  <fix>3d</fix>
</trkpt>
<trkpt lat="40.0737944" lon="-105.2301179">
  <ele>1583.56</ele>
  <time>2026-08-28T19:08:28Z</time>
  <course>81.25</course>
  <speed>0.0</speed>
  <fix>3d</fix>
</trkpt>
<trkpt lat="40.0737946" lon="-105.2301181">
  <ele>1583.58</ele>
  <time>2026-08-28T19:08:28Z</time>
  <course>19.3</course>
  <speed>0.01414213562373095</speed>
  <fix>3d</fix>
</trkpt>
<trkpt lat="40.0737944" lon="-105.2301179">
  <ele>1583.56</ele>
  <time>2026-08-28T19:08:28Z</time>
  <course>90.44</course>
  <speed>0.0</speed>
  <fix>3d</fix>
</trkpt>
<trkpt lat="40.0737946" lon="-105.2301181">
  <ele>1583.58</ele>
  <time>2026-08-28T19:08:28Z</time>
  <course>19.29</course>
  <speed>0.01414213562373095</speed>
  <fix>3d</fix>
</trkpt>
<trkpt lat="40.0737944" lon="-105.2301179">
  <ele>1583.56</ele>
  <time>2026-08-28T19:08:28Z</time>
  <course>149.63</course>
  <speed>0.0</speed>
  <fix>3d</fix>
</trkpt>
<trkpt lat="40.0737946" lon="-105.2301181">
  <ele>1583.59</ele>
  <time>2026-08-28T19:08:28Z</time>
  <course>19.29</course>
  <speed>0.022360679774997897</speed>
  <fix>3d</fix>
</trkpt>
<trkpt lat="40.0737944" lon="-105.2301179">
  <ele>1583.56</ele>
  <time>2026-08-28T19:08:28Z</time>
  <course>143.06</course>
  <speed>0.0</speed>
  <fix>3d</fix>
</trkpt>
<trkpt lat="40.0737946" lon="-105.2301181">
  <ele>1583.59</ele>
  <time>2026-08-28T19:08:28Z</time>
  <course>19.28</course>
  <speed>0.022360679774997897</speed>
  <fix>3d</fix>
</trkpt>
<trkpt lat="40.0737944" lon="-105.2301179">
  <ele>1583.56</ele>
  <time>2026-08-28T19:08:28Z</time>
  <course>87.46</course>
  <speed>0.0</speed>
  <fix>3d</fix>
</trkpt>
<trkpt lat="40.0737946" lon="-105.2301181">
  <ele>1583.59</ele>
  <time>2026-08-28T19:08:28Z</time>
  <course>19.28</course>
  <speed>0.022360679774997897</speed>
  <fix>3d</fix>
</trkpt>
<trkpt lat="40.0737944" lon="-105.2301179">
  <ele>1583.56</ele>
  <time>2026-08-28T19:08:28Z</time>
  <course>73.49</course>
  <speed>0.0</speed>
  <fix>3d</fix>
</trkpt>
<trkpt lat="40.0737946" lon="-105.2301181">
  <ele>1583.59</ele>
  <time>2026-08-28T19:08:28Z</time>
  <course>19.28</course>
  <speed>0.022360679774997897</speed>
  <fix>3d</fix>
</trkpt>
<trkpt lat="40.0737944" lon="-105.2301179">
  <ele>1583.56</ele>
  <time>2026-08-28T19:08:28Z</time>
  <course>94.33</course>
  <speed>0.0</speed>
  <fix>3d</fix>
</trkpt>
<trkpt lat="40.0737946" lon="-105.2301181">
  <ele>1583.6</ele>
  <time>2026-08-28T19:08:28Z</time>
  <course>19.27</course>
  <speed>0.022360679774997897</speed>
  <fix>3d</fix>
</trkpt>
<trkpt lat="40.0737944" lon="-105.2301179">
  <ele>1583.56</ele>
  <time>2026-08-28T19:08:28Z</time>
  <course>131.73</course>
  <speed>0.0</speed>
  <fix>3d</fix>
</trkpt>
<trkpt lat="40.0737946" lon="-105.2301181">
  <ele>1583.6</ele>
  <time>2026-08-28T19:08:28Z</time>
  <course>19.27</course>
  <speed>0.022360679774997897</speed>
  <fix>3d</fix>
</trkpt>
<trkpt lat="40.0737944" lon="-105.2301179">
  <ele>1583.56</ele>
  <time>2026-08-28T19:08:28Z</time>
  <course>130.48</course>
  <speed>0.0</speed>
  <fix>3d</fix>
</trkpt>
<trkpt lat="40.0737946" lon="-105.2301181">
  <ele>1583.6</ele>
  <time>2026-08-28T19:08:28Z</time>
  <course>19.26</course>
  <speed>0.022360679774997897</speed>
  <fix>3d</fix>
</trkpt>
<trkpt lat="40.0737944" lon="-105.2301179">
  <ele>1583.56</ele>
  <time>2026-08-28T19:08:28Z</time>
  <course>98.45</course>
  <speed>0.0</speed>
  <fix>3d</fix>
</trkpt>
<trkpt lat="40.0737946" lon="-105.2301181">
  <ele>1583.6</ele>
  <time>2026-08-28T19:08:28Z</time>
  <course>19.26</course>
  <speed>0.022360679774997897</speed>
  <fix>3d</fix>
</trkpt>
<trkpt lat="40.0737944" lon="-105.2301179">
  <ele>1583.56</ele>
  <time>2026-08-28T19:08:28Z</time>
  <course>92.87</course>
  <speed>0.0</speed>
  <fix>3d</fix>
</trkpt>
<trkpt lat="40.0737946" lon="-105.2301181">
  <ele>1583.61</ele>
  <time>2026-08-28T19:08:28Z</time>
  <course>19.25</course>
  <speed>0.022360679774997897</speed>
  <fix>3d</fix>
</trkpt>
<trkpt lat="40.0737944" lon="-105.2301179">
  <ele>1583.56</ele>
  <time>2026-08-28T19:08:28Z</time>
  <course>91.5</course>
  <speed>0.0</speed>
  <fix>3d</fix>
</trkpt>
<trkpt lat="40.0737946" lon="-105.2301181">
  <ele>1583.61</ele>
  <time>2026-08-28T19:08:28Z</time>
  <course>19.25</course>
  <speed>0.022360679774997897</speed>
  <fix>3d</fix>
</trkpt>
<trkpt lat="40.0737944" lon="-105.2301179">
  <ele>1583.56</ele>
  <time>2026-08-28T19:08:28Z</time>
  <course>132.7</course>
  <speed>0.0</speed>
  <fix>3d</fix>
</trkpt>
<trkpt lat="40.0737946" lon="-105.2301181">
  <ele>1583.61</ele>
  <time>2026-08-28T19:08:28Z</time>
  <course>19.25</course>
  <speed>0.022360679774997897</speed>
  <fix>3d</fix>
</trkpt>
<trkpt lat="40.0737944" lon="-105.2301179">
  <ele>1583.56</ele>
  <time>2026-08-28T19:08:28Z</time>
  <course>132.92</course>
  <speed>0.0</speed>
  <fix>3d</fix>
</trkpt>
<trkpt lat="40.0737946" lon="-105.2301181">
  <ele>1583.62</ele>
  <time>2026-08-28T19:08:28Z</time>
  <course>19.24</course>
  <speed>0.022360679774997897</speed>
  <fix>3d</fix>
</trkpt>
<trkpt lat="40.0737944" lon="-105.2301179">
  <ele>1583.56</ele>
  <time>2026-08-28T19:08:28Z</time>
  <course>97.92</course>
  <speed>0.0</speed>
  <fix>3d</fix>
</trkpt>
<trkpt lat="40.0737946" lon="-105.2301181">
  <ele>1583.62</ele>
  <time>2026-08-28T19:08:28Z</time>
  <course>19.24</course>
  <speed>0.022360679774997897</speed>
  <fix>3d</fix>
</trkpt>
<trkpt lat="40.0737944" lon="-105.2301179">
  <ele>1583.56</ele>
  <time>2026-08-28T19:08:28Z</time>
  <course>85.32</course>
  <speed>0.0</speed>
  <fix>3d</fix>
</trkpt>
<trkpt lat="40.0737946" lon="-105.2301181">
  <ele>1583.62</ele>
  <time>2026-08-28T19:08:28Z</time>
  <course>19.23</course>
  <speed>0.022360679774997897</speed>
  <fix>3d</fix>
</trkpt>
<trkpt lat="40.0737944" lon="-105.2301179">
  <ele>1583.56</ele>
  <time>2026-08-28T19:08:28Z</time>
  <course>95.42</course>
  <speed>0.0</speed>
  <fix>3d</fix>
</trkpt>
<trkpt lat="40.0737946" lon="-105.2301181">
  <ele>1583.62</ele>
  <time>2026-08-28T19:08:28Z</time>
  <course>19.23</course>
  <speed>0.022360679774997897</speed>
  <fix>3d</fix>
</trkpt>
<trkpt lat="40.0737944" lon="-105.2301179">
  <ele>1583.56</ele>
  <time>2026-08-28T19:08:28Z</time>
  <course>121.85</course>
  <speed>0.0</speed>
  <fix>3d</fix>
</trkpt>
<trkpt lat="40.0737946" lon="-105.2301181">
  <ele>1583.62</ele>
  <time>2026-08-28T19:08:28Z</time>
  <course>19.22</course>
  <speed>0.022360679774997897</speed>
  <fix>3d</fix>
</trkpt>
<trkpt lat="40.0737944" lon="-105.2301179">
  <ele>1583.56</ele>
  <time>2026-08-28T19:08:28Z</time>
  <course>141.2</course>
  <speed>0.0</speed>
  <fix>3d</fix>
</trkpt>
<trkpt lat="40.0737946" lon="-105.2301181">
  <ele>1583.63</ele>
  <time>2026-08-28T19:08:28Z</time>
  <course>19.22</course>
  <speed>0.022360679774997897</speed>
  <fix>3d</fix>
</trkpt>
<trkpt lat="40.0737944" lon="-105.2301179">
  <ele>1583.56</ele>
  <time>2026-08-28T19:08:28Z</time>
  <course>136.78</course>
  <speed>0.0</speed>
  <fix>3d</fix>
</trkpt>
<trkpt lat="40.0737946" lon="-105.2301181">
  <ele>1583.63</ele>
  <time>2026-08-28T19:08:28Z</time>
  <course>19.21</course>
  <speed>0.022360679774997897</speed>
  <fix>3d</fix>
</trkpt>
<trkpt lat="40.0737944" lon="-105.2301179">
  <ele>1583.56</ele>
  <time>2026-08-28T19:08:28Z</time>
  <course>85.24</course>
  <speed>0.0</speed>
  <fix>3d</fix>
</trkpt>
<trkpt lat="40.0737946" lon="-105.2301181">
  <ele>1583.63</ele>
  <time>2026-08-28T19:08:28Z</time>
  <course>19.21</course>
  <speed>0.022360679774997897</speed>
  <fix>3d</fix>
</trkpt>
<trkpt lat="40.0737944" lon="-105.2301179">
  <ele>1583.56</ele>
  <time>2026-08-28T19:08:28Z</time>
  <course>93.24</course>
  <speed>0.0</speed>
  <fix>3d</fix>
</trkpt>
<trkpt lat="40.0737946" lon="-105.2301181">
  <ele>1583.63</ele>
  <time>2026-08-28T19:08:28Z</time>
  <course>19.21</course>
  <speed>0.022360679774997897</speed>
  <fix>3d</fix>
</trkpt>
<trkpt lat="40.0737944" lon="-105.2301179">
  <ele>1583.56</ele>
  <time>2026-08-28T19:08:28Z</time>
  <course>123.22</course>
  <speed>0.0</speed>
  <fix>3d</fix>
</trkpt>
<trkpt lat="40.0737946" lon="-105.2301181">
  <ele>1583.64</ele>
  <time>2026-08-28T19:08:28Z</time>
  <course>19.2</course>
  <speed>0.022360679774997897</speed>
  <fix>3d</fix>
</trkpt>
<trkpt lat="40.0737944" lon="-105.2301179">
  <ele>1583.56</ele>
  <time>2026-08-28T19:08:28Z</time>
  <course>130.08</course>
  <speed>0.0</speed>
  <fix>3d</fix>
</trkpt>
<trkpt lat="40.0737946" lon="-105.2301181">
  <ele>1583.64</ele>
  <time>2026-08-28T19:08:28Z</time>
  <course>19.2</course>
  <speed>0.022360679774997897</speed>
  <fix>3d</fix>
</trkpt>
<trkpt lat="40.0737944" lon="-105.2301179">
  <ele>1583.56</ele>
  <time>2026-08-28T19:08:28Z</time>
  <course>109.76</course>
  <speed>0.0</speed>
  <fix>3d</fix>
</trkpt>
<trkpt lat="40.0737946" lon="-105.2301181">
  <ele>1583.64</ele>
  <time>2026-08-28T19:08:28Z</time>
  <course>19.19</course>
  <speed>0.022360679774997897</speed>
  <fix>3d</fix>
</trkpt>
<trkpt lat="40.0737944" lon="-105.2301179">
  <ele>1583.56</ele>
  <time>2026-08-28T19:08:28Z</time>
  <course>94.01</course>
  <speed>0.0</speed>
  <fix>3d</fix>
</trkpt>
<trkpt lat="40.0737946" lon="-105.2301181">
  <ele>1583.64</ele>
  <time>2026-08-28T19:08:28Z</time>
  <course>19.19</course>
  <speed>0.022360679774997897</speed>
  <fix>3d</fix>
</trkpt>
<trkpt lat="40.0737944" lon="-105.2301179">
  <ele>1583.56</ele>
  <time>2026-08-28T19:08:28Z</time>
  <course>95.48</course>
  <speed>0.0</speed>
  <fix>3d</fix>
</trkpt>
<trkpt lat="40.0737946" lon="-105.2301181">
  <ele>1583.64</ele>
  <time>2026-08-28T19:08:28Z</time>
  <course>19.18</course>
  <speed>0.022360679774997897</speed>
  <fix>3d</fix>
</trkpt>
<trkpt lat="40.0737944" lon="-105.2301179">
  <ele>1583.56</ele>
  <time>2026-08-28T19:08:28Z</time>
  <course>108.54</course>
  <speed>0.0</speed>
  <fix>3d</fix>
</trkpt>
<trkpt lat="40.0737946" lon="-105.2301181">
  <ele>1583.64</ele>
  <time>2026-08-28T19:08:28Z</time>
  <course>19.18</course>
  <speed>0.022360679774997897</speed>
  <fix>3d</fix>
</trkpt>
<trkpt lat="40.0737944" lon="-105.2301179">
  <ele>1583.56</ele>
  <time>2026-08-28T19:08:28Z</time>
  <course>127.81</course>
  <speed>0.0</speed>
  <fix>3d</fix>
</trkpt>
<trkpt lat="40.0737946" lon="-105.2301181">
  <ele>1583.64</ele>
  <time>2026-08-28T19:08:28Z</time>
  <course>19.17</course>
  <speed>0.022360679774997897</speed>
  <fix>3d</fix>
</trkpt>
<trkpt lat="40.0737944" lon="-105.2301179">
  <ele>1583.56</ele>
  <time>2026-08-28T19:08:28Z</time>
  <course>114.54</course>
  <speed>0.0</speed>
  <fix>3d</fix>
</trkpt>
<trkpt lat="40.0737946" lon="-105.2301181">
  <ele>1583.64</ele>
  <time>2026-08-28T19:08:28Z</time>
  <course>19.17</course>
  <speed>0.022360679774997897</speed>
  <fix>3d</fix>
</trkpt>
<trkpt lat="40.0737944" lon="-105.2301179">
  <ele>1583.56</ele>
  <time>2026-08-28T19:08:28Z</time>
  <course>90.34</course>
  <speed>0.0</speed>
  <fix>3d</fix>
</trkpt>
<trkpt lat="40.0737946" lon="-105.2301181">
  <ele>1583.64</ele>
  <time>2026-08-28T19:08:28Z</time>
  <course>19.17</course>
  <speed>0.022360679774997897</speed>
  <fix>3d</fix>
</trkpt>
<trkpt lat="40.0737944" lon="-105.2301179">
  <ele>1583.56</ele>
  <time>2026-08-28T19:08:28Z</time>
  <course>98.83</course>
  <speed>0.0</speed>
  <fix>3d</fix>
</trkpt>
<trkpt lat="40.0737946" lon="-105.2301181">
  <ele>1583.64</ele>
  <time>2026-08-28T19:08:28Z</time>
  <course>19.16</course>
  <speed>0.022360679774997897</speed>
  <fix>3d</fix>
</trkpt>
<trkpt lat="40.0737944" lon="-105.2301179">
  <ele>1583.56</ele>
  <time>2026-08-28T19:08:28Z</time>
  <course>111.87</course>
  <speed>0.0</speed>
  <fix>3d</fix>
</trkpt>
<trkpt lat="40.0737946" lon="-105.2301181">
  <ele>1583.64</ele>
  <time>2026-08-28T19:08:28Z</time>
  <course>19.16</course>
  <speed>0.022360679774997897</speed>
  <fix>3d</fix>
</trkpt>
<trkpt lat="40.0737944" lon="-105.2301179">
  <ele>1583.56</ele>
  <time>2026-08-28T19:08:28Z</time>
  <course>124.33</course>
  <speed>0.0</speed>
  <fix>3d</fix>
</trkpt>
<trkpt lat="40.0737946" lon="-105.2301181">
  <ele>1583.65</ele>
  <time>2026-08-28T19:08:28Z</time>
  <course>19.15</course>
  <speed>0.022360679774997897</speed>
  <fix>3d</fix>
</trkpt>
<trkpt lat="40.0737944" lon="-105.2301179">
  <ele>1583.56</ele>
  <time>2026-08-28T19:08:28Z</time>
  <course>138.25</course>
  <speed>0.0</speed>
  <fix>3d</fix>
</trkpt>
<trkpt lat="40.0737946" lon="-105.2301181">
  <ele>1583.65</ele>
  <time>2026-08-28T19:08:28Z</time>
  <course>19.15</course>
  <speed>0.022360679774997897</speed>
  <fix>3d</fix>
</trkpt>
<trkpt lat="40.0737944" lon="-105.2301179">
  <ele>1583.56</ele>
  <time>2026-08-28T19:08:28Z</time>
  <course>120.77</course>
  <speed>0.0</speed>
  <fix>3d</fix>
</trkpt>
<trkpt lat="40.0737946" lon="-105.2301181">
  <ele>1583.65</ele>
  <time>2026-08-28T19:08:28Z</time>
  <course>19.14</course>
  <speed>0.022360679774997897</speed>
  <fix>3d</fix>
</trkpt>
<trkpt lat="40.0737944" lon="-105.2301179">
  <ele>1583.56</ele>
  <time>2026-08-28T19:08:28Z</time>
  <course>94.38</course>
  <speed>0.0</speed>
  <fix>3d</fix>
</trkpt>
<trkpt lat="40.0737946" lon="-105.2301181">
  <ele>1583.65</ele>
  <time>2026-08-28T19:08:29Z</time>
  <course>19.14</course>
  <speed>0.022360679774997897</speed>
  <fix>3d</fix>
</trkpt>
<trkpt lat="40.0737944" lon="-105.2301179">
  <ele>1583.56</ele>
  <time>2026-08-28T19:08:29Z</time>
  <course>101.76</course>
  <speed>0.0</speed>
  <fix>3d</fix>
</trkpt>
<trkpt lat="40.0737946" lon="-105.2301181">
  <ele>1583.65</ele>
  <time>2026-08-28T19:08:29Z</time>
  <course>19.14</course>
  <speed>0.022360679774997897</speed>
  <fix>3d</fix>
</trkpt>
<trkpt lat="40.0737944" lon="-105.2301179">
  <ele>1583.56</ele>
  <time>2026-08-28T19:08:29Z</time>
  <course>130.59</course>
  <speed>0.0</speed>
  <fix>3d</fix>
</trkpt>
<trkpt lat="40.0737946" lon="-105.2301181">
  <ele>1583.65</ele>
  <time>2026-08-28T19:08:29Z</time>
  <course>19.13</course>
  <speed>0.022360679774997897</speed>
  <fix>3d</fix>
</trkpt>
<trkpt lat="40.0737944" lon="-105.2301179">
  <ele>1583.56</ele>
  <time>2026-08-28T19:08:29Z</time>
  <course>126.99</course>
  <speed>0.0</speed>
  <fix>3d</fix>
</trkpt>
<trkpt lat="40.0737946" lon="-105.2301181">
  <ele>1583.65</ele>
  <time>2026-08-28T19:08:29Z</time>
  <course>19.13</course>
  <speed>0.022360679774997897</speed>
  <fix>3d</fix>
</trkpt>
<trkpt lat="40.0737944" lon="-105.2301179">
  <ele>1583.56</ele>
  <time>2026-08-28T19:08:29Z</time>
  <course>102.36</course>
  <speed>0.0</speed>
  <fix>3d</fix>
</trkpt>
<trkpt lat="40.0737946" lon="-105.2301181">
  <ele>1583.65</ele>
  <time>2026-08-28T19:08:29Z</time>
  <course>19.12</course>
  <speed>0.022360679774997897</speed>
  <fix>3d</fix>
</trkpt>
<trkpt lat="40.0737944" lon="-105.2301179">
  <ele>1583.56</ele>
  <time>2026-08-28T19:08:29Z</time>
  <course>101.01</course>
  <speed>0.0</speed>
  <fix>3d</fix>
</trkpt>
<trkpt lat="40.0737946" lon="-105.2301181">
  <ele>1583.66</ele>
  <time>2026-08-28T19:08:29Z</time>
  <course>19.12</course>
  <speed>0.022360679774997897</speed>
  <fix>3d</fix>
</trkpt>
<trkpt lat="40.0737944" lon="-105.2301179">
  <ele>1583.56</ele>
  <time>2026-08-28T19:08:29Z</time>
  <course>99.58</course>
  <speed>0.0</speed>
  <fix>3d</fix>
</trkpt>
<trkpt lat="40.0737946" lon="-105.2301181">
  <ele>1583.66</ele>
  <time>2026-08-28T19:08:29Z</time>
  <course>19.11</course>
  <speed>0.022360679774997897</speed>
  <fix>3d</fix>
</trkpt>
<trkpt lat="40.0737944" lon="-105.2301179">
  <ele>1583.56</ele>
  <time>2026-08-28T19:08:29Z</time>
  <course>135.5</course>
  <speed>0.0</speed>
  <fix>3d</fix>
</trkpt>
<trkpt lat="40.0737946" lon="-105.2301181">
  <ele>1583.66</ele>
  <time>2026-08-28T19:08:29Z</time>
  <course>19.11</course>
  <speed>0.022360679774997897</speed>
  <fix>3d</fix>
</trkpt>
<trkpt lat="40.0737944" lon="-105.2301179">
  <ele>1583.56</ele>
  <time>2026-08-28T19:08:29Z</time>
  <course>130.88</course>
  <speed>0.0</speed>
  <fix>3d</fix>
</trkpt>
<trkpt lat="40.0737946" lon="-105.2301181">
  <ele>1583.66</ele>
  <time>2026-08-28T19:08:29Z</time>
  <course>19.11</course>
  <speed>0.022360679774997897</speed>
  <fix>3d</fix>
</trkpt>
<trkpt lat="40.0737944" lon="-105.2301179">
  <ele>1583.56</ele>
  <time>2026-08-28T19:08:29Z</time>
  <course>100.34</course>
  <speed>0.0</speed>
  <fix>3d</fix>
</trkpt>
<trkpt lat="40.0737946" lon="-105.2301181">
  <ele>1583.67</ele>
  <time>2026-08-28T19:08:29Z</time>
  <course>19.1</course>
  <speed>0.022360679774997897</speed>
  <fix>3d</fix>
</trkpt>
<trkpt lat="40.0737944" lon="-105.2301179">
  <ele>1583.56</ele>
  <time>2026-08-28T19:08:29Z</time>
  <course>99.55</course>
  <speed>0.0</speed>
  <fix>3d</fix>
</trkpt>
<trkpt lat="40.0737946" lon="-105.2301181">
  <ele>1583.67</ele>
  <time>2026-08-28T19:08:29Z</time>
  <course>19.1</course>
  <speed>0.022360679774997897</speed>
  <fix>3d</fix>
</trkpt>
<trkpt lat="40.0737944" lon="-105.2301179">
  <ele>1583.56</ele>
  <time>2026-08-28T19:08:29Z</time>
  <course>110.2</course>
  <speed>0.0</speed>
  <fix>3d</fix>
</trkpt>
<trkpt lat="40.0737946" lon="-105.2301181">
  <ele>1583.66</ele>
  <time>2026-08-28T19:08:29Z</time>
  <course>19.09</course>
  <speed>0.022360679774997897</speed>
  <fix>3d</fix>
</trkpt>
<trkpt lat="40.0737944" lon="-105.2301179">
  <ele>1583.56</ele>
  <time>2026-08-28T19:08:29Z</time>
  <course>125.02</course>
  <speed>0.0</speed>
  <fix>3d</fix>
</trkpt>
<trkpt lat="40.0737946" lon="-105.2301181">
  <ele>1583.66</ele>
  <time>2026-08-28T19:08:29Z</time>
  <course>19.09</course>
  <speed>0.022360679774997897</speed>
  <fix>3d</fix>
</trkpt>
<trkpt lat="40.0737944" lon="-105.2301179">
  <ele>1583.56</ele>
  <time>2026-08-28T19:08:29Z</time>
  <course>137.0</course>
  <speed>0.0</speed>
  <fix>3d</fix>
</trkpt>
<trkpt lat="40.0737946" lon="-105.2301181">
  <ele>1583.66</ele>
  <time>2026-08-28T19:08:29Z</time>
  <course>19.14</course>
  <speed>0.022360679774997897</speed>
  <fix>3d</fix>
</trkpt>
<trkpt lat="40.0737944" lon="-105.2301179">
  <ele>1583.56</ele>
  <time>2026-08-28T19:08:29Z</time>
  <course>148.63</course>
  <speed>0.0</speed>
  <fix>3d</fix>
</trkpt>
<trkpt lat="40.0737946" lon="-105.2301181">
  <ele>1583.66</ele>
  <time>2026-08-28T19:08:29Z</time>
  <course>19.52</course>
  <speed>0.022360679774997897</speed>
  <fix>3d</fix>
</trkpt>
<trkpt lat="40.0737944" lon="-105.2301179">
  <ele>1583.56</ele>
  <time>2026-08-28T19:08:29Z</time>
  <course>283.73</course>
  <speed>0.0</speed>
  <fix>3d</fix>
</trkpt>
<trkpt lat="40.0737946" lon="-105.2301181">
  <ele>1583.65</ele>
  <time>2026-08-28T19:08:29Z</time>
  <course>19.96</course>
  <speed>0.022360679774997897</speed>
  <fix>3d</fix>
</trkpt>
<trkpt lat="40.0737944" lon="-105.2301179">
  <ele>1583.56</ele>
  <time>2026-08-28T19:08:29Z</time>
  <course>276.54</course>
  <speed>0.0</speed>
  <fix>3d</fix>
</trkpt>
<trkpt lat="40.0737946" lon="-105.2301181">
  <ele>1583.64</ele>
  <time>2026-08-28T19:08:29Z</time>
  <course>20.34</course>
  <speed>0.022360679774997897</speed>
  <fix>3d</fix>
</trkpt>
<trkpt lat="40.0737944" lon="-105.2301179">
  <ele>1583.56</ele>
  <time>2026-08-28T19:08:29Z</time>
  <course>139.73</course>
  <speed>0.0</speed>
  <fix>3d</fix>
</trkpt>
<trkpt lat="40.0737946" lon="-105.2301181">
  <ele>1583.64</ele>
  <time>2026-08-28T19:08:29Z</time>
  <course>20.67</course>
  <speed>0.022360679774997897</speed>
  <fix>3d</fix>
</trkpt>
<trkpt lat="40.0737944" lon="-105.2301179">
  <ele>1583.56</ele>
  <time>2026-08-28T19:08:29Z</time>
  <course>86.21</course>
  <speed>0.0</speed>
  <fix>3d</fix>
</trkpt>
<trkpt lat="40.0737946" lon="-105.2301181">
  <ele>1583.64</ele>
  <time>2026-08-28T19:08:29Z</time>
  <course>20.98</course>
  <speed>0.022360679774997897</speed>
  <fix>3d</fix>
</trkpt>
<trkpt lat="40.0737944" lon="-105.2301179">
  <ele>1583.56</ele>
  <time>2026-08-28T19:08:29Z</time>
  <course>297.56</course>
  <speed>0.0</speed>
  <fix>3d</fix>
</trkpt>
<trkpt lat="40.0737946" lon="-105.2301181">
  <ele>1583.64</ele>
  <time>2026-08-28T19:08:29Z</time>
  <course>21.26</course>
  <speed>0.02</speed>
  <fix>3d</fix>
</trkpt>
<trkpt lat="40.0737944" lon="-105.2301179">
  <ele>1583.56</ele>
  <time>2026-08-28T19:08:29Z</time>
  <course>244.42</course>
  <speed>0.0</speed>
  <fix>3d</fix>
</trkpt>
<trkpt lat="40.0737946" lon="-105.230118">
  <ele>1583.64</ele>
  <time>2026-08-28T19:08:29Z</time>
  <course>21.52</course>
  <speed>0.02</speed>
  <fix>3d</fix>
</trkpt>
<trkpt lat="40.0737944" lon="-105.2301179">
  <ele>1583.56</ele>
  <time>2026-08-28T19:08:29Z</time>
  <course>120.59</course>
  <speed>0.0</speed>
  <fix>3d</fix>
</trkpt>
<trkpt lat="40.0737946" lon="-105.230118">
  <ele>1583.64</ele>
  <time>2026-08-28T19:08:29Z</time>
  <course>21.76</course>
  <speed>0.02</speed>
  <fix>3d</fix>
</trkpt>
<trkpt lat="40.0737944" lon="-105.2301179">
  <ele>1583.56</ele>
  <time>2026-08-28T19:08:29Z</time>
  <course>122.34</course>
  <speed>0.0</speed>
  <fix>3d</fix>
</trkpt>
<trkpt lat="40.0737946" lon="-105.230118">
  <ele>1583.64</ele>
  <time>2026-08-28T19:08:29Z</time>
  <course>21.98</course>
  <speed>0.02</speed>
  <fix>3d</fix>
</trkpt>
<trkpt lat="40.0737944" lon="-105.2301179">
  <ele>1583.56</ele>
  <time>2026-08-28T19:08:29Z</time>
  <course>172.72</course>
  <speed>0.0</speed>
  <fix>3d</fix>
</trkpt>
<trkpt lat="40.0737946" lon="-105.230118">
  <ele>1583.65</ele>
  <time>2026-08-28T19:08:29Z</time>
  <course>22.19</course>
  <speed>0.02</speed>
  <fix>3d</fix>
</trkpt>
<trkpt lat="40.0737944" lon="-105.2301179">
  <ele>1583.56</ele>
  <time>2026-08-28T19:08:29Z</time>
  <course>153.35</course>
  <speed>0.0</speed>
  <fix>3d</fix>
</trkpt>
<trkpt lat="40.0737946" lon="-105.230118">
  <ele>1583.66</ele>
  <time>2026-08-28T19:08:29Z</time>
  <course>22.38</course>
  <speed>0.02</speed>
  <fix>3d</fix>
</trkpt>
<trkpt lat="40.0737944" lon="-105.2301179">
  <ele>1583.56</ele>
  <time>2026-08-28T19:08:29Z</time>
  <course>148.94</course>
  <speed>0.0</speed>
  <fix>3d</fix>
</trkpt>
<trkpt lat="40.0737946" lon="-105.230118">
  <ele>1583.66</ele>
  <time>2026-08-28T19:08:29Z</time>
  <course>22.56</course>
  <speed>0.02</speed>
  <fix>3d</fix>
</trkpt>
<trkpt lat="40.0737944" lon="-105.2301179">
  <ele>1583.56</ele>
  <time>2026-08-28T19:08:29Z</time>
  <course>151.4</course>
  <speed>0.0</speed>
  <fix>3d</fix>
</trkpt>
<trkpt lat="40.0737946" lon="-105.230118">
  <ele>1583.65</ele>
  <time>2026-08-28T19:08:29Z</time>
  <course>22.73</course>
  <speed>0.02</speed>
  <fix>3d</fix>
</trkpt>
<trkpt lat="40.0737944" lon="-105.2301179">
  <ele>1583.56</ele>
  <time>2026-08-28T19:08:29Z</time>
  <course>151.71</course>
  <speed>0.0</speed>
  <fix>3d</fix>
</trkpt>
<trkpt lat="40.0737946" lon="-105.230118">
  <ele>1583.65</ele>
  <time>2026-08-28T19:08:29Z</time>
  <course>22.89</course>
  <speed>0.02</speed>
  <fix>3d</fix>
</trkpt>
<trkpt lat="40.0737944" lon="-105.2301179">
  <ele>1583.56</ele>
  <time>2026-08-28T19:08:29Z</time>
  <course>151.33</course>
  <speed>0.0</speed>
  <fix>3d</fix>
</trkpt>
<trkpt lat="40.0737946" lon="-105.230118">
  <ele>1583.64</ele>
  <time>2026-08-28T19:08:29Z</time>
  <course>23.04</course>
  <speed>0.02</speed>
  <fix>3d</fix>
</trkpt>
<trkpt lat="40.0737944" lon="-105.2301179">
  <ele>1583.56</ele>
  <time>2026-08-28T19:08:29Z</time>
  <course>151.34</course>
  <speed>0.0</speed>
  <fix>3d</fix>
</trkpt>
<trkpt lat="40.0737946" lon="-105.230118">
  <ele>1583.64</ele>
  <time>2026-08-28T19:08:29Z</time>
  <course>23.18</course>
  <speed>0.02</speed>
  <fix>3d</fix>
</trkpt>
<trkpt lat="40.0737944" lon="-105.2301179">
  <ele>1583.56</ele>
  <time>2026-08-28T19:08:29Z</time>
  <course>151.39</course>
  <speed>0.0</speed>
  <fix>3d</fix>
</trkpt>
<trkpt lat="40.0737946" lon="-105.230118">
  <ele>1583.64</ele>
  <time>2026-08-28T19:08:29Z</time>
  <course>23.31</course>
  <speed>0.02</speed>
  <fix>3d</fix>
</trkpt>
<trkpt lat="40.0737944" lon="-105.2301179">
  <ele>1583.56</ele>
  <time>2026-08-28T19:08:29Z</time>
  <course>151.38</course>
  <speed>0.0</speed>
  <fix>3d</fix>
</trkpt>
<trkpt lat="40.0737946" lon="-105.230118">
  <ele>1583.64</ele>
  <time>2026-08-28T19:08:29Z</time>
  <course>23.44</course>
  <speed>0.02</speed>
  <fix>3d</fix>
</trkpt>
<trkpt lat="40.0737944" lon="-105.2301179">
  <ele>1583.56</ele>
  <time>2026-08-28T19:08:29Z</time>
  <course>151.37</course>
  <speed>0.0</speed>
  <fix>3d</fix>
</trkpt>
<trkpt lat="40.0737946" lon="-105.230118">
  <ele>1583.64</ele>
  <time>2026-08-28T19:08:29Z</time>
  <course>23.56</course>
  <speed>0.02</speed>
  <fix>3d</fix>
</trkpt>
<trkpt lat="40.0737944" lon="-105.2301179">
  <ele>1583.56</ele>
  <time>2026-08-28T19:08:29Z</time>
  <course>151.38</course>
  <speed>0.0</speed>
  <fix>3d</fix>
</trkpt>
<trkpt lat="40.0737946" lon="-105.230118">
  <ele>1583.64</ele>
  <time>2026-08-28T19:08:29Z</time>
  <course>23.67</course>
  <speed>0.02</speed>
  <fix>3d</fix>
</trkpt>
<trkpt lat="40.0737944" lon="-105.2301179">
  <ele>1583.56</ele>
  <time>2026-08-28T19:08:29Z</time>
  <course>151.38</course>
  <speed>0.0</speed>
  <fix>3d</fix>
</trkpt>
<trkpt lat="40.0737946" lon="-105.230118">
  <ele>1583.63</ele>
  <time>2026-08-28T19:08:29Z</time>
  <course>23.78</course>
  <speed>0.02</speed>
  <fix>3d</fix>
</trkpt>
<trkpt lat="40.0737944" lon="-105.2301179">
  <ele>1583.56</ele>
  <time>2026-08-28T19:08:29Z</time>
  <course>151.38</course>
  <speed>0.0</speed>
  <fix>3d</fix>
</trkpt>
<trkpt lat="40.0737946" lon="-105.230118">
  <ele>1583.63</ele>
  <time>2026-08-28T19:08:29Z</time>
  <course>23.88</course>
  <speed>0.02</speed>
  <fix>3d</fix>
</trkpt>
<trkpt lat="40.0737944" lon="-105.2301179">
  <ele>1583.56</ele>
  <time>2026-08-28T19:08:29Z</time>
  <course>151.38</course>
  <speed>0.0</speed>
  <fix>3d</fix>
</trkpt>
<trkpt lat="40.0737946" lon="-105.230118">
  <ele>1583.63</ele>
  <time>2026-08-28T19:08:29Z</time>
  <course>23.98</course>
  <speed>0.02</speed>
  <fix>3d</fix>
</trkpt>
<trkpt lat="40.0737944" lon="-105.2301179">
  <ele>1583.56</ele>
  <time>2026-08-28T19:08:29Z</time>
  <course>151.38</course>
  <speed>0.0</speed>
  <fix>3d</fix>
</trkpt>
<trkpt lat="40.0737946" lon="-105.230118">
  <ele>1583.63</ele>
  <time>2026-08-28T19:08:29Z</time>
  <course>24.07</course>
  <speed>0.02</speed>
  <fix>3d</fix>
</trkpt>
<trkpt lat="40.0737944" lon="-105.2301179">
  <ele>1583.56</ele>
  <time>2026-08-28T19:08:29Z</time>
  <course>151.38</course>
  <speed>0.0</speed>
  <fix>3d</fix>
</trkpt>
<trkpt lat="40.0737946" lon="-105.230118">
  <ele>1583.63</ele>
  <time>2026-08-28T19:08:29Z</time>
  <course>24.16</course>
  <speed>0.02</speed>
  <fix>3d</fix>
</trkpt>
<trkpt lat="40.0737944" lon="-105.2301179">
  <ele>1583.56</ele>
  <time>2026-08-28T19:08:29Z</time>
  <course>151.38</course>
  <speed>0.0</speed>
  <fix>3d</fix>
</trkpt>
<trkpt lat="40.0737946" lon="-105.230118">
  <ele>1583.63</ele>
  <time>2026-08-28T19:08:29Z</time>
  <course>24.24</course>
  <speed>0.02</speed>
  <fix>3d</fix>
</trkpt>
<trkpt lat="40.0737944" lon="-105.2301179">
  <ele>1583.56</ele>
  <time>2026-08-28T19:08:29Z</time>
  <course>151.38</course>
  <speed>0.0</speed>
  <fix>3d</fix>
</trkpt>
<trkpt lat="40.0737946" lon="-105.230118">
  <ele>1583.62</ele>
  <time>2026-08-28T19:08:29Z</time>
  <course>24.32</course>
  <speed>0.02</speed>
  <fix>3d</fix>
</trkpt>
<trkpt lat="40.0737944" lon="-105.2301179">
  <ele>1583.56</ele>
  <time>2026-08-28T19:08:29Z</time>
  <course>151.38</course>
  <speed>0.0</speed>
  <fix>3d</fix>
</trkpt>
<trkpt lat="40.0737946" lon="-105.230118">
  <ele>1583.62</ele>
  <time>2026-08-28T19:08:29Z</time>
  <course>24.4</course>
  <speed>0.02</speed>
  <fix>3d</fix>
</trkpt>
<trkpt lat="40.0737944" lon="-105.2301179">
  <ele>1583.56</ele>
  <time>2026-08-28T19:08:29Z</time>
  <course>151.38</course>
  <speed>0.0</speed>
  <fix>3d</fix>
</trkpt>
<trkpt lat="40.0737946" lon="-105.230118">
  <ele>1583.62</ele>
  <time>2026-08-28T19:08:29Z</time>
  <course>24.47</course>
  <speed>0.02</speed>
  <fix>3d</fix>
</trkpt>
<trkpt lat="40.0737944" lon="-105.2301179">
  <ele>1583.56</ele>
  <time>2026-08-28T19:08:29Z</time>
  <course>151.38</course>
  <speed>0.0</speed>
  <fix>3d</fix>
</trkpt>
<trkpt lat="40.0737946" lon="-105.230118">
  <ele>1583.61</ele>
  <time>2026-08-28T19:08:29Z</time>
  <course>24.54</course>
  <speed>0.02</speed>
  <fix>3d</fix>
</trkpt>
<trkpt lat="40.0737944" lon="-105.2301179">
  <ele>1583.56</ele>
  <time>2026-08-28T19:08:29Z</time>
  <course>89.02</course>
  <speed>0.0</speed>
  <fix>3d</fix>
</trkpt>
<trkpt lat="40.0737946" lon="-105.230118">
  <ele>1583.61</ele>
  <time>2026-08-28T19:08:29Z</time>
  <course>24.61</course>
  <speed>0.02</speed>
  <fix>3d</fix>
</trkpt>
<trkpt lat="40.0737944" lon="-105.2301179">
  <ele>1583.56</ele>
  <time>2026-08-28T19:08:29Z</time>
  <course>137.4</course>
  <speed>0.0</speed>
  <fix>3d</fix>
</trkpt>
<trkpt lat="40.0737946" lon="-105.230118">
  <ele>1583.61</ele>
  <time>2026-08-28T19:08:29Z</time>
  <course>24.67</course>
  <speed>0.02</speed>
  <fix>3d</fix>
</trkpt>
<trkpt lat="40.0737944" lon="-105.2301179">
  <ele>1583.56</ele>
  <time>2026-08-28T19:08:29Z</time>
  <course>150.85</course>
  <speed>0.0</speed>
  <fix>3d</fix>
</trkpt>
<trkpt lat="40.0737946" lon="-105.230118">
  <ele>1583.61</ele>
  <time>2026-08-28T19:08:29Z</time>
  <course>24.73</course>
  <speed>0.02</speed>
  <fix>3d</fix>
</trkpt>
<trkpt lat="40.0737944" lon="-105.2301179">
  <ele>1583.56</ele>
  <time>2026-08-28T19:08:29Z</time>
  <course>147.3</course>
  <speed>0.0</speed>
  <fix>3d</fix>
</trkpt>
<trkpt lat="40.0737946" lon="-105.230118">
  <ele>1583.61</ele>
  <time>2026-08-28T19:08:29Z</time>
  <course>24.79</course>
  <speed>0.02</speed>
  <fix>3d</fix>
</trkpt>
<trkpt lat="40.0737944" lon="-105.2301179">
  <ele>1583.56</ele>
  <time>2026-08-28T19:08:29Z</time>
  <course>152.24</course>
  <speed>0.0</speed>
  <fix>3d</fix>
</trkpt>
<trkpt lat="40.0737946" lon="-105.230118">
  <ele>1583.61</ele>
  <time>2026-08-28T19:08:29Z</time>
  <course>24.85</course>
  <speed>0.02</speed>
  <fix>3d</fix>
</trkpt>
<trkpt lat="40.0737944" lon="-105.2301179">
  <ele>1583.56</ele>
  <time>2026-08-28T19:08:29Z</time>
  <course>151.81</course>
  <speed>0.0</speed>
  <fix>3d</fix>
</trkpt>
<trkpt lat="40.0737946" lon="-105.230118">
  <ele>1583.61</ele>
  <time>2026-08-28T19:08:29Z</time>
  <course>24.91</course>
  <speed>0.02</speed>
  <fix>3d</fix>
</trkpt>
<trkpt lat="40.0737944" lon="-105.2301179">
  <ele>1583.56</ele>
  <time>2026-08-28T19:08:29Z</time>
  <course>151.22</course>
  <speed>0.0</speed>
  <fix>3d</fix>
</trkpt>
<trkpt lat="40.0737946" lon="-105.230118">
  <ele>1583.61</ele>
  <time>2026-08-28T19:08:29Z</time>
  <course>24.96</course>
  <speed>0.02</speed>
  <fix>3d</fix>
</trkpt>
<trkpt lat="40.0737944" lon="-105.2301179">
  <ele>1583.56</ele>
  <time>2026-08-28T19:08:29Z</time>
  <course>151.34</course>
  <speed>0.0</speed>
  <fix>3d</fix>
</trkpt>
<trkpt lat="40.0737946" lon="-105.230118">
  <ele>1583.61</ele>
  <time>2026-08-28T19:08:29Z</time>
  <course>25.01</course>
  <speed>0.02</speed>
  <fix>3d</fix>
</trkpt>
<trkpt lat="40.0737944" lon="-105.2301179">
  <ele>1583.56</ele>
  <time>2026-08-28T19:08:29Z</time>
  <course>151.4</course>
  <speed>0.0</speed>
  <fix>3d</fix>
</trkpt>
<trkpt lat="40.0737946" lon="-105.230118">
  <ele>1583.61</ele>
  <time>2026-08-28T19:08:29Z</time>
  <course>25.06</course>
  <speed>0.01</speed>
  <fix>3d</fix>
</trkpt>
<trkpt lat="40.0737944" lon="-105.2301179">
  <ele>1583.56</ele>
  <time>2026-08-28T19:08:29Z</time>
  <course>151.38</course>
  <speed>0.0</speed>
  <fix>3d</fix>
</trkpt>
<trkpt lat="40.0737946" lon="-105.230118">
  <ele>1583.6</ele>
  <time>2026-08-28T19:08:29Z</time>
  <course>25.11</course>
  <speed>0.01</speed>
  <fix>3d</fix>
</trkpt>
<trkpt lat="40.0737944" lon="-105.2301179">
  <ele>1583.56</ele>
  <time>2026-08-28T19:08:29Z</time>
  <course>151.37</course>
  <speed>0.0</speed>
  <fix>3d</fix>
</trkpt>
<trkpt lat="40.0737946" lon="-105.230118">
  <ele>1583.6</ele>
  <time>2026-08-28T19:08:29Z</time>
  <course>25.15</course>
  <speed>0.01</speed>
  <fix>3d</fix>
</trkpt>
<trkpt lat="40.0737944" lon="-105.2301179">
  <ele>1583.56</ele>
  <time>2026-08-28T19:08:29Z</time>
  <course>151.38</course>
  <speed>0.0</speed>
  <fix>3d</fix>
</trkpt>
<trkpt lat="40.0737946" lon="-105.230118">
  <ele>1583.6</ele>
  <time>2026-08-28T19:08:29Z</time>
  <course>25.2</course>
  <speed>0.01</speed>
  <fix>3d</fix>
</trkpt>
<trkpt lat="40.0737944" lon="-105.2301179">
  <ele>1583.56</ele>
  <time>2026-08-28T19:08:29Z</time>
  <course>151.38</course>
  <speed>0.0</speed>
  <fix>3d</fix>
</trkpt>
<trkpt lat="40.0737946" lon="-105.230118">
  <ele>1583.6</ele>
  <time>2026-08-28T19:08:29Z</time>
  <course>25.24</course>
  <speed>0.01</speed>
  <fix>3d</fix>
</trkpt>
<trkpt lat="40.0737944" lon="-105.2301179">
  <ele>1583.56</ele>
  <time>2026-08-28T19:08:29Z</time>
  <course>151.38</course>
  <speed>0.0</speed>
  <fix>3d</fix>
</trkpt>
<trkpt lat="40.0737946" lon="-105.230118">
  <ele>1583.6</ele>
  <time>2026-08-28T19:08:29Z</time>
  <course>25.28</course>
  <speed>0.01</speed>
  <fix>3d</fix>
</trkpt>
<trkpt lat="40.0737944" lon="-105.2301179">
  <ele>1583.56</ele>
  <time>2026-08-28T19:08:29Z</time>
  <course>151.38</course>
  <speed>0.0</speed>
  <fix>3d</fix>
</trkpt>
<trkpt lat="40.0737946" lon="-105.230118">
  <ele>1583.6</ele>
  <time>2026-08-28T19:08:29Z</time>
  <course>25.32</course>
  <speed>0.01</speed>
  <fix>3d</fix>
</trkpt>
<trkpt lat="40.0737944" lon="-105.2301179">
  <ele>1583.56</ele>
  <time>2026-08-28T19:08:29Z</time>
  <course>151.38</course>
  <speed>0.0</speed>
  <fix>3d</fix>
</trkpt>
<trkpt lat="40.0737946" lon="-105.230118">
  <ele>1583.6</ele>
  <time>2026-08-28T19:08:29Z</time>
  <course>25.36</course>
  <speed>0.01</speed>
  <fix>3d</fix>
</trkpt>
<trkpt lat="40.0737944" lon="-105.2301179">
  <ele>1583.56</ele>
  <time>2026-08-28T19:08:29Z</time>
  <course>151.38</course>
  <speed>0.0</speed>
  <fix>3d</fix>
</trkpt>
<trkpt lat="40.0737946" lon="-105.230118">
  <ele>1583.6</ele>
  <time>2026-08-28T19:08:29Z</time>
  <course>25.4</course>
  <speed>0.01</speed>
  <fix>3d</fix>
</trkpt>
<trkpt lat="40.0737944" lon="-105.2301179">
  <ele>1583.56</ele>
  <time>2026-08-28T19:08:29Z</time>
  <course>151.38</course>
  <speed>0.0</speed>
  <fix>3d</fix>
</trkpt>
<trkpt lat="40.0737946" lon="-105.230118">
  <ele>1583.61</ele>
  <time>2026-08-28T19:08:29Z</time>
  <course>25.43</course>
  <speed>0.01</speed>
  <fix>3d</fix>
</trkpt>
<trkpt lat="40.0737944" lon="-105.2301179">
  <ele>1583.56</ele>
  <time>2026-08-28T19:08:29Z</time>
  <course>151.38</course>
  <speed>0.0</speed>
  <fix>3d</fix>
</trkpt>
<trkpt lat="40.0737946" lon="-105.230118">
  <ele>1583.61</ele>
  <time>2026-08-28T19:08:29Z</time>
  <course>25.47</course>
  <speed>0.01</speed>
  <fix>3d</fix>
</trkpt>
<trkpt lat="40.0737944" lon="-105.2301179">
  <ele>1583.56</ele>
  <time>2026-08-28T19:08:29Z</time>
  <course>151.38</course>
  <speed>0.0</speed>
  <fix>3d</fix>
</trkpt>
<trkpt lat="40.0737946" lon="-105.230118">
  <ele>1583.61</ele>
  <time>2026-08-28T19:08:29Z</time>
  <course>25.5</course>
  <speed>0.01</speed>
  <fix>3d</fix>
</trkpt>
<trkpt lat="40.0737944" lon="-105.2301179">
  <ele>1583.56</ele>
  <time>2026-08-28T19:08:29Z</time>
  <course>151.38</course>
  <speed>0.0</speed>
  <fix>3d</fix>
</trkpt>
<trkpt lat="40.0737946" lon="-105.230118">
  <ele>1583.61</ele>
  <time>2026-08-28T19:08:29Z</time>
  <course>25.54</course>
  <speed>0.01</speed>
  <fix>3d</fix>
</trkpt>
<trkpt lat="40.0737944" lon="-105.2301179">
  <ele>1583.56</ele>
  <time>2026-08-28T19:08:29Z</time>
  <course>151.38</course>
  <speed>0.0</speed>
  <fix>3d</fix>
</trkpt>
<trkpt lat="40.0737946" lon="-105.230118">
  <ele>1583.62</ele>
  <time>2026-08-28T19:08:29Z</time>
  <course>25.57</course>
  <speed>0.01</speed>
  <fix>3d</fix>
</trkpt>
<trkpt lat="40.0737944" lon="-105.2301179">
  <ele>1583.56</ele>
  <time>2026-08-28T19:08:29Z</time>
  <course>151.38</course>
  <speed>0.0</speed>
  <fix>3d</fix>
</trkpt>
<trkpt lat="40.0737946" lon="-105.230118">
  <ele>1583.62</ele>
  <time>2026-08-28T19:08:29Z</time>
  <course>25.6</course>
  <speed>0.01</speed>
  <fix>3d</fix>
</trkpt>
<trkpt lat="40.0737944" lon="-105.2301179">
  <ele>1583.56</ele>
  <time>2026-08-28T19:08:29Z</time>
  <course>151.38</course>
  <speed>0.0</speed>
  <fix>3d</fix>
</trkpt>
<trkpt lat="40.0737946" lon="-105.230118">
  <ele>1583.62</ele>
  <time>2026-08-28T19:08:29Z</time>
  <course>25.63</course>
  <speed>0.01</speed>
  <fix>3d</fix>
</trkpt>
<trkpt lat="40.0737944" lon="-105.2301179">
  <ele>1583.56</ele>
  <time>2026-08-28T19:08:29Z</time>
  <course>151.38</course>
  <speed>0.0</speed>
  <fix>3d</fix>
</trkpt>
<trkpt lat="40.0737946" lon="-105.230118">
  <ele>1583.62</ele>
  <time>2026-08-28T19:08:29Z</time>
  <course>25.66</course>
  <speed>0.01</speed>
  <fix>3d</fix>
</trkpt>
<trkpt lat="40.0737944" lon="-105.2301179">
  <ele>1583.56</ele>
  <time>2026-08-28T19:08:29Z</time>
  <course>151.38</course>
  <speed>0.0</speed>
  <fix>3d</fix>
</trkpt>
<trkpt lat="40.0737946" lon="-105.230118">
  <ele>1583.62</ele>
  <time>2026-08-28T19:08:29Z</time>
  <course>25.69</course>
  <speed>0.01</speed>
  <fix>3d</fix>
</trkpt>
<trkpt lat="40.0737944" lon="-105.2301179">
  <ele>1583.56</ele>
  <time>2026-08-28T19:08:29Z</time>
  <course>151.38</course>
  <speed>0.0</speed>
  <fix>3d</fix>
</trkpt>
<trkpt lat="40.0737946" lon="-105.230118">
  <ele>1583.62</ele>
  <time>2026-08-28T19:08:29Z</time>
  <course>25.72</course>
  <speed>0.01</speed>
  <fix>3d</fix>
</trkpt>
<trkpt lat="40.0737944" lon="-105.2301179">
  <ele>1583.56</ele>
  <time>2026-08-28T19:08:29Z</time>
  <course>151.32</course>
  <speed>0.0</speed>
  <fix>3d</fix>
</trkpt>
<trkpt lat="40.0737946" lon="-105.230118">
  <ele>1583.62</ele>
  <time>2026-08-28T19:08:29Z</time>
  <course>25.74</course>
  <speed>0.01</speed>
  <fix>3d</fix>
</trkpt>
<trkpt lat="40.0737944" lon="-105.2301179">
  <ele>1583.56</ele>
  <time>2026-08-28T19:08:29Z</time>
  <course>150.68</course>
  <speed>0.0</speed>
  <fix>3d</fix>
</trkpt>
<trkpt lat="40.0737946" lon="-105.230118">
  <ele>1583.62</ele>
  <time>2026-08-28T19:08:29Z</time>
  <course>25.77</course>
  <speed>0.01</speed>
  <fix>3d</fix>
</trkpt>
<trkpt lat="40.0737944" lon="-105.2301179">
  <ele>1583.56</ele>
  <time>2026-08-28T19:08:29Z</time>
  <course>148.17</course>
  <speed>0.0</speed>
  <fix>3d</fix>
</trkpt>
<trkpt lat="40.0737946" lon="-105.230118">
  <ele>1583.62</ele>
  <time>2026-08-28T19:08:29Z</time>
  <course>25.79</course>
  <speed>0.022360679774997897</speed>
  <fix>3d</fix>
</trkpt>
<trkpt lat="40.0737944" lon="-105.2301179">
  <ele>1583.56</ele>
  <time>2026-08-28T19:08:29Z</time>
  <course>142.17</course>
  <speed>0.0</speed>
  <fix>3d</fix>
</trkpt>
<trkpt lat="40.0737946" lon="-105.230118">
  <ele>1583.62</ele>
  <time>2026-08-28T19:08:29Z</time>
  <course>25.8</course>
  <speed>0.022360679774997897</speed>
  <fix>3d</fix>
</trkpt>
<trkpt lat="40.0737944" lon="-105.2301179">
  <ele>1583.56</ele>
  <time>2026-08-28T19:08:29Z</time>
  <course>133.99</course>
  <speed>0.0</speed>
  <fix>3d</fix>
</trkpt>
<trkpt lat="40.0737946" lon="-105.230118">
  <ele>1583.62</ele>
  <time>2026-08-28T19:08:29Z</time>
  <course>25.82</course>
  <speed>0.022360679774997897</speed>
  <fix>3d</fix>
</trkpt>
<trkpt lat="40.0737944" lon="-105.2301179">
  <ele>1583.56</ele>
  <time>2026-08-28T19:08:29Z</time>
  <course>127.2</course>
  <speed>0.0</speed>
  <fix>3d</fix>
</trkpt>
<trkpt lat="40.0737946" lon="-105.230118">
  <ele>1583.62</ele>
  <time>2026-08-28T19:08:29Z</time>
  <course>25.83</course>
  <speed>0.022360679774997897</speed>
  <fix>3d</fix>
</trkpt>
<trkpt lat="40.0737944" lon="-105.2301179">
  <ele>1583.56</ele>
  <time>2026-08-28T19:08:29Z</time>
  <course>122.19</course>
  <speed>0.0</speed>
  <fix>3d</fix>
</trkpt>
<trkpt lat="40.0737946" lon="-105.230118">
  <ele>1583.62</ele>
  <time>2026-08-28T19:08:29Z</time>
  <course>25.84</course>
  <speed>0.022360679774997897</speed>
  <fix>3d</fix>
</trkpt>
<trkpt lat="40.0737944" lon="-105.2301179">
  <ele>1583.56</ele>
  <time>2026-08-28T19:08:29Z</time>
  <course>118.29</course>
  <speed>0.0</speed>
  <fix>3d</fix>
</trkpt>
<trkpt lat="40.0737946" lon="-105.230118">
  <ele>1583.62</ele>
  <time>2026-08-28T19:08:29Z</time>
  <course>25.85</course>
  <speed>0.022360679774997897</speed>
  <fix>3d</fix>
</trkpt>
<trkpt lat="40.0737944" lon="-105.2301179">
  <ele>1583.56</ele>
  <time>2026-08-28T19:08:29Z</time>
  <course>110.05</course>
  <speed>0.0</speed>
  <fix>3d</fix>
</trkpt>
<trkpt lat="40.0737946" lon="-105.230118">
  <ele>1583.61</ele>
  <time>2026-08-28T19:08:29Z</time>
  <course>25.86</course>
  <speed>0.022360679774997897</speed>
  <fix>3d</fix>
</trkpt>
<trkpt lat="40.0737944" lon="-105.2301179">
  <ele>1583.56</ele>
  <time>2026-08-28T19:08:29Z</time>
  <course>100.62</course>
  <speed>0.0</speed>
  <fix>3d</fix>
</trkpt>
<trkpt lat="40.0737946" lon="-105.230118">
  <ele>1583.61</ele>
  <time>2026-08-28T19:08:29Z</time>
  <course>25.86</course>
  <speed>0.022360679774997897</speed>
  <fix>3d</fix>
</trkpt>
<trkpt lat="40.0737944" lon="-105.2301179">
  <ele>1583.56</ele>
  <time>2026-08-28T19:08:29Z</time>
  <course>117.15</course>
  <speed>0.0</speed>
  <fix>3d</fix>
</trkpt>
<trkpt lat="40.0737946" lon="-105.230118">
  <ele>1583.61</ele>
  <time>2026-08-28T19:08:29Z</time>
  <course>25.86</course>
  <speed>0.022360679774997897</speed>
  <fix>3d</fix>
</trkpt>
<trkpt lat="40.0737944" lon="-105.2301179">
  <ele>1583.56</ele>
  <time>2026-08-28T19:08:29Z</time>
  <course>113.52</course>
  <speed>0.0</speed>
  <fix>3d</fix>
</trkpt>
<trkpt lat="40.0737946" lon="-105.230118">
  <ele>1583.61</ele>
  <time>2026-08-28T19:08:29Z</time>
  <course>25.86</course>
  <speed>0.022360679774997897</speed>
  <fix>3d</fix>
</trkpt>
<trkpt lat="40.0737944" lon="-105.2301179">
  <ele>1583.56</ele>
  <time>2026-08-28T19:08:29Z</time>
  <course>111.69</course>
  <speed>0.0</speed>
  <fix>3d</fix>
</trkpt>
<trkpt lat="40.0737946" lon="-105.230118">
  <ele>1583.62</ele>
  <time>2026-08-28T19:08:29Z</time>
  <course>25.86</course>
  <speed>0.022360679774997897</speed>
  <fix>3d</fix>
</trkpt>
<trkpt lat="40.0737944" lon="-105.2301179">
  <ele>1583.56</ele>
  <time>2026-08-28T19:08:29Z</time>
  <course>111.68</course>
  <speed>0.0</speed>
  <fix>3d</fix>
</trkpt>
<trkpt lat="40.0737946" lon="-105.230118">
  <ele>1583.62</ele>
  <time>2026-08-28T19:08:29Z</time>
  <course>25.85</course>
  <speed>0.022360679774997897</speed>
  <fix>3d</fix>
</trkpt>
<trkpt lat="40.0737944" lon="-105.2301179">
  <ele>1583.56</ele>
  <time>2026-08-28T19:08:29Z</time>
  <course>111.54</course>
  <speed>0.0</speed>
  <fix>3d</fix>
</trkpt>
<trkpt lat="40.0737946" lon="-105.230118">
  <ele>1583.62</ele>
  <time>2026-08-28T19:08:29Z</time>
  <course>25.85</course>
  <speed>0.022360679774997897</speed>
  <fix>3d</fix>
</trkpt>
<trkpt lat="40.0737944" lon="-105.2301179">
  <ele>1583.56</ele>
  <time>2026-08-28T19:08:29Z</time>
  <course>111.3</course>
  <speed>0.0</speed>
  <fix>3d</fix>
</trkpt>
<trkpt lat="40.0737946" lon="-105.230118">
  <ele>1583.62</ele>
  <time>2026-08-28T19:08:29Z</time>
  <course>25.84</course>
  <speed>0.022360679774997897</speed>
  <fix>3d</fix>
</trkpt>
<trkpt lat="40.0737944" lon="-105.2301179">
  <ele>1583.56</ele>
  <time>2026-08-28T19:08:29Z</time>
  <course>111.15</course>
  <speed>0.0</speed>
  <fix>3d</fix>
</trkpt>
<trkpt lat="40.0737946" lon="-105.230118">
  <ele>1583.62</ele>
  <time>2026-08-28T19:08:29Z</time>
  <course>25.83</course>
  <speed>0.022360679774997897</speed>
  <fix>3d</fix>
</trkpt>
<trkpt lat="40.0737944" lon="-105.2301179">
  <ele>1583.56</ele>
  <time>2026-08-28T19:08:29Z</time>
  <course>111.04</course>
  <speed>0.0</speed>
  <fix>3d</fix>
</trkpt>
<trkpt lat="40.0737946" lon="-105.230118">
  <ele>1583.62</ele>
  <time>2026-08-28T19:08:29Z</time>
  <course>25.81</course>
  <speed>0.022360679774997897</speed>
  <fix>3d</fix>
</trkpt>
<trkpt lat="40.0737944" lon="-105.2301179">
  <ele>1583.56</ele>
  <time>2026-08-28T19:08:29Z</time>
  <course>110.95</course>
  <speed>0.0</speed>
  <fix>3d</fix>
</trkpt>
<trkpt lat="40.0737946" lon="-105.230118">
  <ele>1583.62</ele>
  <time>2026-08-28T19:08:29Z</time>
  <course>25.8</course>
  <speed>0.022360679774997897</speed>
  <fix>3d</fix>
</trkpt>
<trkpt lat="40.0737944" lon="-105.2301179">
  <ele>1583.56</ele>
  <time>2026-08-28T19:08:29Z</time>
  <course>110.87</course>
  <speed>0.0</speed>
  <fix>3d</fix>
</trkpt>
<trkpt lat="40.0737946" lon="-105.230118">
  <ele>1583.62</ele>
  <time>2026-08-28T19:08:29Z</time>
  <course>25.78</course>
  <speed>0.022360679774997897</speed>
  <fix>3d</fix>
</trkpt>
<trkpt lat="40.0737944" lon="-105.2301179">
  <ele>1583.56</ele>
  <time>2026-08-28T19:08:29Z</time>
  <course>117.7</course>
  <speed>0.0</speed>
  <fix>3d</fix>
</trkpt>
<trkpt lat="40.0737946" lon="-105.230118">
  <ele>1583.62</ele>
  <time>2026-08-28T19:08:29Z</time>
  <course>25.76</course>
  <speed>0.022360679774997897</speed>
  <fix>3d</fix>
</trkpt>
<trkpt lat="40.0737944" lon="-105.2301179">
  <ele>1583.56</ele>
  <time>2026-08-28T19:08:29Z</time>
  <course>138.29</course>
  <speed>0.0</speed>
  <fix>3d</fix>
</trkpt>
<trkpt lat="40.0737946" lon="-105.230118">
  <ele>1583.62</ele>
  <time>2026-08-28T19:08:29Z</time>
  <course>25.73</course>
  <speed>0.022360679774997897</speed>
  <fix>3d</fix>
</trkpt>
<trkpt lat="40.0737944" lon="-105.2301179">
  <ele>1583.56</ele>
  <time>2026-08-28T19:08:29Z</time>
  <course>111.09</course>
  <speed>0.0</speed>
  <fix>3d</fix>
</trkpt>
<trkpt lat="40.0737946" lon="-105.230118">
  <ele>1583.62</ele>
  <time>2026-08-28T19:08:29Z</time>
  <course>25.71</course>
  <speed>0.022360679774997897</speed>
  <fix>3d</fix>
</trkpt>
<trkpt lat="40.0737944" lon="-105.2301179">
  <ele>1583.56</ele>
  <time>2026-08-28T19:08:29Z</time>
  <course>110.71</course>
  <speed>0.0</speed>
  <fix>3d</fix>
</trkpt>
<trkpt lat="40.0737946" lon="-105.230118">
  <ele>1583.61</ele>
  <time>2026-08-28T19:08:29Z</time>
  <course>25.68</course>
  <speed>0.022360679774997897</speed>
  <fix>3d</fix>
</trkpt>
<trkpt lat="40.0737944" lon="-105.2301179">
  <ele>1583.56</ele>
  <time>2026-08-28T19:08:29Z</time>
  <course>252.23</course>
  <speed>0.0</speed>
  <fix>3d</fix>
</trkpt>
<trkpt lat="40.0737946" lon="-105.230118">
  <ele>1583.62</ele>
  <time>2026-08-28T19:08:29Z</time>
  <course>25.65</course>
  <speed>0.02</speed>
  <fix>3d</fix>
</trkpt>
<trkpt lat="40.0737944" lon="-105.2301179">
  <ele>1583.56</ele>
  <time>2026-08-28T19:08:29Z</time>
  <course>283.44</course>
  <speed>0.0</speed>
  <fix>3d</fix>
</trkpt>
<trkpt lat="40.0737946" lon="-105.230118">
  <ele>1583.62</ele>
  <time>2026-08-28T19:08:29Z</time>
  <course>25.62</course>
  <speed>0.02</speed>
  <fix>3d</fix>
</trkpt>
<trkpt lat="40.0737944" lon="-105.2301179">
  <ele>1583.56</ele>
  <time>2026-08-28T19:08:29Z</time>
  <course>112.28</course>
  <speed>0.0</speed>
  <fix>3d</fix>
</trkpt>
<trkpt lat="40.0737946" lon="-105.230118">
  <ele>1583.62</ele>
  <time>2026-08-28T19:08:29Z</time>
  <course>25.59</course>
  <speed>0.02</speed>
  <fix>3d</fix>
</trkpt>
<trkpt lat="40.0737944" lon="-105.2301179">
  <ele>1583.56</ele>
  <time>2026-08-28T19:08:29Z</time>
  <course>125.37</course>
  <speed>0.0</speed>
  <fix>3d</fix>
</trkpt>
<trkpt lat="40.0737946" lon="-105.230118">
  <ele>1583.62</ele>
  <time>2026-08-28T19:08:29Z</time>
  <course>25.56</course>
  <speed>0.02</speed>
  <fix>3d</fix>
</trkpt>
<trkpt lat="40.0737944" lon="-105.2301179">
  <ele>1583.56</ele>
  <time>2026-08-28T19:08:29Z</time>
  <course>285.02</course>
  <speed>0.0</speed>
  <fix>3d</fix>
</trkpt>
<trkpt lat="40.0737946" lon="-105.230118">
  <ele>1583.61</ele>
  <time>2026-08-28T19:08:29Z</time>
  <course>25.52</course>
  <speed>0.02</speed>
  <fix>3d</fix>
</trkpt>
<trkpt lat="40.0737944" lon="-105.2301179">
  <ele>1583.56</ele>
  <time>2026-08-28T19:08:29Z</time>
  <course>121.71</course>
  <speed>0.0</speed>
  <fix>3d</fix>
</trkpt>
<trkpt lat="40.0737946" lon="-105.230118">
  <ele>1583.62</ele>
  <time>2026-08-28T19:08:29Z</time>
  <course>25.48</course>
  <speed>0.02</speed>
  <fix>3d</fix>
</trkpt>
<trkpt lat="40.0737944" lon="-105.2301179">
  <ele>1583.56</ele>
  <time>2026-08-28T19:08:29Z</time>
  <course>273.74</course>
  <speed>0.0</speed>
  <fix>3d</fix>
</trkpt>
<trkpt lat="40.0737946" lon="-105.230118">
  <ele>1583.61</ele>
  <time>2026-08-28T19:08:29Z</time>
  <course>25.44</course>
  <speed>0.02</speed>
  <fix>3d</fix>
</trkpt>
<trkpt lat="40.0737944" lon="-105.2301179">
  <ele>1583.56</ele>
  <time>2026-08-28T19:08:29Z</time>
  <course>291.63</course>
  <speed>0.0</speed>
  <fix>3d</fix>
</trkpt>
<trkpt lat="40.0737946" lon="-105.230118">
  <ele>1583.61</ele>
  <time>2026-08-28T19:08:29Z</time>
  <course>25.4</course>
  <speed>0.02</speed>
  <fix>3d</fix>
</trkpt>
<trkpt lat="40.0737944" lon="-105.2301179">
  <ele>1583.56</ele>
  <time>2026-08-28T19:08:29Z</time>
  <course>285.61</course>
  <speed>0.0</speed>
  <fix>3d</fix>
</trkpt>
<trkpt lat="40.0737946" lon="-105.230118">
  <ele>1583.61</ele>
  <time>2026-08-28T19:08:29Z</time>
  <course>25.36</course>
  <speed>0.02</speed>
  <fix>3d</fix>
</trkpt>
<trkpt lat="40.0737944" lon="-105.2301179">
  <ele>1583.56</ele>
  <time>2026-08-28T19:08:29Z</time>
  <course>276.37</course>
  <speed>0.0</speed>
  <fix>3d</fix>
</trkpt>
<trkpt lat="40.0737946" lon="-105.230118">
  <ele>1583.61</ele>
  <time>2026-08-28T19:08:29Z</time>
  <course>25.32</course>
  <speed>0.02</speed>
  <fix>3d</fix>
</trkpt>
<trkpt lat="40.0737944" lon="-105.2301179">
  <ele>1583.56</ele>
  <time>2026-08-28T19:08:29Z</time>
  <course>284.05</course>
  <speed>0.0</speed>
  <fix>3d</fix>
</trkpt>
<trkpt lat="40.0737946" lon="-105.230118">
  <ele>1583.61</ele>
  <time>2026-08-28T19:08:29Z</time>
  <course>25.27</course>
  <speed>0.02</speed>
  <fix>3d</fix>
</trkpt>
<trkpt lat="40.0737944" lon="-105.2301179">
  <ele>1583.56</ele>
  <time>2026-08-28T19:08:29Z</time>
  <course>286.25</course>
  <speed>0.0</speed>
  <fix>3d</fix>
</trkpt>
<trkpt lat="40.0737946" lon="-105.230118">
  <ele>1583.61</ele>
  <time>2026-08-28T19:08:29Z</time>
  <course>25.22</course>
  <speed>0.02</speed>
  <fix>3d</fix>
</trkpt>
<trkpt lat="40.0737944" lon="-105.2301179">
  <ele>1583.56</ele>
  <time>2026-08-28T19:08:29Z</time>
  <course>285.78</course>
  <speed>0.0</speed>
  <fix>3d</fix>
</trkpt>
<trkpt lat="40.0737946" lon="-105.230118">
  <ele>1583.62</ele>
  <time>2026-08-28T19:08:29Z</time>
  <course>25.17</course>
  <speed>0.02</speed>
  <fix>3d</fix>
</trkpt>
<trkpt lat="40.0737944" lon="-105.2301179">
  <ele>1583.56</ele>
  <time>2026-08-28T19:08:29Z</time>
  <course>285.71</course>
  <speed>0.0</speed>
  <fix>3d</fix>
</trkpt>
<trkpt lat="40.0737946" lon="-105.230118">
  <ele>1583.61</ele>
  <time>2026-08-28T19:08:29Z</time>
  <course>25.12</course>
  <speed>0.02</speed>
  <fix>3d</fix>
</trkpt>
<trkpt lat="40.0737944" lon="-105.2301179">
  <ele>1583.56</ele>
  <time>2026-08-28T19:08:29Z</time>
  <course>285.92</course>
  <speed>0.0</speed>
  <fix>3d</fix>
</trkpt>
<trkpt lat="40.0737946" lon="-105.230118">
  <ele>1583.61</ele>
  <time>2026-08-28T19:08:29Z</time>
  <course>25.07</course>
  <speed>0.02</speed>
  <fix>3d</fix>
</trkpt>
<trkpt lat="40.0737944" lon="-105.2301179">
  <ele>1583.56</ele>
  <time>2026-08-28T19:08:29Z</time>
  <course>187.45</course>
  <speed>0.0</speed>
  <fix>3d</fix>
</trkpt>
<trkpt lat="40.0737946" lon="-105.230118">
  <ele>1583.61</ele>
  <time>2026-08-28T19:08:29Z</time>
  <course>25.02</course>
  <speed>0.02</speed>
  <fix>3d</fix>
</trkpt>
<trkpt lat="40.0737944" lon="-105.2301179">
  <ele>1583.56</ele>
  <time>2026-08-28T19:08:29Z</time>
  <course>117.02</course>
  <speed>0.0</speed>
  <fix>3d</fix>
</trkpt>
<trkpt lat="40.0737946" lon="-105.230118">
  <ele>1583.61</ele>
  <time>2026-08-28T19:08:29Z</time>
  <course>24.97</course>
  <speed>0.02</speed>
  <fix>3d</fix>
</trkpt>
<trkpt lat="40.0737944" lon="-105.2301179">
  <ele>1583.56</ele>
  <time>2026-08-28T19:08:29Z</time>
  <course>285.75</course>
  <speed>0.0</speed>
  <fix>3d</fix>
</trkpt>
<trkpt lat="40.0737946" lon="-105.230118">
  <ele>1583.61</ele>
  <time>2026-08-28T19:08:29Z</time>
  <course>24.92</course>
  <speed>0.02</speed>
  <fix>3d</fix>
</trkpt>
<trkpt lat="40.0737944" lon="-105.2301179">
  <ele>1583.56</ele>
  <time>2026-08-28T19:08:29Z</time>
  <course>286.09</course>
  <speed>0.0</speed>
  <fix>3d</fix>
</trkpt>
<trkpt lat="40.0737946" lon="-105.230118">
  <ele>1583.61</ele>
  <time>2026-08-28T19:08:29Z</time>
  <course>24.86</course>
  <speed>0.02</speed>
  <fix>3d</fix>
</trkpt>
<trkpt lat="40.0737944" lon="-105.2301179">
  <ele>1583.56</ele>
  <time>2026-08-28T19:08:29Z</time>
  <course>285.8</course>
  <speed>0.0</speed>
  <fix>3d</fix>
</trkpt>
<trkpt lat="40.0737946" lon="-105.230118">
  <ele>1583.61</ele>
  <time>2026-08-28T19:08:29Z</time>
  <course>24.81</course>
  <speed>0.02</speed>
  <fix>3d</fix>
</trkpt>
<trkpt lat="40.0737944" lon="-105.2301179">
  <ele>1583.56</ele>
  <time>2026-08-28T19:08:29Z</time>
  <course>285.51</course>
  <speed>0.0</speed>
  <fix>3d</fix>
</trkpt>
<trkpt lat="40.0737946" lon="-105.230118">
  <ele>1583.61</ele>
  <time>2026-08-28T19:08:29Z</time>
  <course>24.76</course>
  <speed>0.02</speed>
  <fix>3d</fix>
</trkpt>
<trkpt lat="40.0737944" lon="-105.2301179">
  <ele>1583.56</ele>
  <time>2026-08-28T19:08:29Z</time>
  <course>285.41</course>
  <speed>0.0</speed>
  <fix>3d</fix>
</trkpt>
<trkpt lat="40.0737946" lon="-105.230118">
  <ele>1583.61</ele>
  <time>2026-08-28T19:08:29Z</time>
  <course>24.71</course>
  <speed>0.02</speed>
  <fix>3d</fix>
</trkpt>
<trkpt lat="40.0737944" lon="-105.2301179">
  <ele>1583.56</ele>
  <time>2026-08-28T19:08:29Z</time>
  <course>285.25</course>
  <speed>0.0</speed>
  <fix>3d</fix>
</trkpt>
<trkpt lat="40.0737946" lon="-105.230118">
  <ele>1583.61</ele>
  <time>2026-08-28T19:08:30Z</time>
  <course>24.66</course>
  <speed>0.02</speed>
  <fix>3d</fix>
</trkpt>
<trkpt lat="40.0737944" lon="-105.2301179">
  <ele>1583.56</ele>
  <time>2026-08-28T19:08:30Z</time>
  <course>285.1</course>
  <speed>0.0</speed>
  <fix>3d</fix>
</trkpt>
<trkpt lat="40.0737946" lon="-105.230118">
  <ele>1583.61</ele>
  <time>2026-08-28T19:08:30Z</time>
  <course>24.61</course>
  <speed>0.02</speed>
  <fix>3d</fix>
</trkpt>
<trkpt lat="40.0737944" lon="-105.2301179">
  <ele>1583.56</ele>
  <time>2026-08-28T19:08:30Z</time>
  <course>285.03</course>
  <speed>0.0</speed>
  <fix>3d</fix>
</trkpt>
<trkpt lat="40.0737946" lon="-105.230118">
  <ele>1583.61</ele>
  <time>2026-08-28T19:08:30Z</time>
  <course>24.56</course>
  <speed>0.02</speed>
  <fix>3d</fix>
</trkpt>
<trkpt lat="40.0737944" lon="-105.2301179">
  <ele>1583.56</ele>
  <time>2026-08-28T19:08:30Z</time>
  <course>284.98</course>
  <speed>0.0</speed>
  <fix>3d</fix>
</trkpt>
<trkpt lat="40.0737946" lon="-105.230118">
  <ele>1583.61</ele>
  <time>2026-08-28T19:08:30Z</time>
  <course>24.51</course>
  <speed>0.02</speed>
  <fix>3d</fix>
</trkpt>
<trkpt lat="40.0737944" lon="-105.2301179">
  <ele>1583.56</ele>
  <time>2026-08-28T19:08:30Z</time>
  <course>285.05</course>
  <speed>0.0</speed>
  <fix>3d</fix>
</trkpt>
<trkpt lat="40.0737946" lon="-105.230118">
  <ele>1583.62</ele>
  <time>2026-08-28T19:08:30Z</time>
  <course>24.46</course>
  <speed>0.02</speed>
  <fix>3d</fix>
</trkpt>
<trkpt lat="40.0737944" lon="-105.2301179">
  <ele>1583.56</ele>
  <time>2026-08-28T19:08:30Z</time>
  <course>284.93</course>
  <speed>0.0</speed>
  <fix>3d</fix>
</trkpt>
<trkpt lat="40.0737946" lon="-105.230118">
  <ele>1583.62</ele>
  <time>2026-08-28T19:08:30Z</time>
  <course>24.42</course>
  <speed>0.02</speed>
  <fix>3d</fix>
</trkpt>
<trkpt lat="40.0737944" lon="-105.2301179">
  <ele>1583.56</ele>
  <time>2026-08-28T19:08:30Z</time>
  <course>284.95</course>
  <speed>0.0</speed>
  <fix>3d</fix>
</trkpt>
<trkpt lat="40.0737946" lon="-105.230118">
  <ele>1583.62</ele>
  <time>2026-08-28T19:08:30Z</time>
  <course>24.37</course>
  <speed>0.02</speed>
  <fix>3d</fix>
</trkpt>
<trkpt lat="40.0737944" lon="-105.2301179">
  <ele>1583.56</ele>
  <time>2026-08-28T19:08:30Z</time>
  <course>284.84</course>
  <speed>0.0</speed>
  <fix>3d</fix>
</trkpt>
<trkpt lat="40.0737946" lon="-105.230118">
  <ele>1583.62</ele>
  <time>2026-08-28T19:08:30Z</time>
  <course>24.32</course>
  <speed>0.02</speed>
  <fix>3d</fix>
</trkpt>
<trkpt lat="40.0737944" lon="-105.2301179">
  <ele>1583.56</ele>
  <time>2026-08-28T19:08:30Z</time>
  <course>284.83</course>
  <speed>0.0</speed>
  <fix>3d</fix>
</trkpt>
<trkpt lat="40.0737946" lon="-105.230118">
  <ele>1583.62</ele>
  <time>2026-08-28T19:08:30Z</time>
  <course>24.28</course>
  <speed>0.02</speed>
  <fix>3d</fix>
</trkpt>
<trkpt lat="40.0737944" lon="-105.2301179">
  <ele>1583.56</ele>
  <time>2026-08-28T19:08:30Z</time>
  <course>284.69</course>
  <speed>0.0</speed>
  <fix>3d</fix>
</trkpt>
<trkpt lat="40.0737946" lon="-105.230118">
  <ele>1583.63</ele>
  <time>2026-08-28T19:08:30Z</time>
  <course>24.23</course>
  <speed>0.02</speed>
  <fix>3d</fix>
</trkpt>
<trkpt lat="40.0737944" lon="-105.2301179">
  <ele>1583.56</ele>
  <time>2026-08-28T19:08:30Z</time>
  <course>284.77</course>
  <speed>0.0</speed>
  <fix>3d</fix>
</trkpt>
<trkpt lat="40.0737946" lon="-105.230118">
  <ele>1583.63</ele>
  <time>2026-08-28T19:08:30Z</time>
  <course>24.18</course>
  <speed>0.02</speed>
  <fix>3d</fix>
</trkpt>
<trkpt lat="40.0737944" lon="-105.2301179">
  <ele>1583.56</ele>
  <time>2026-08-28T19:08:30Z</time>
  <course>283.93</course>
  <speed>0.0</speed>
  <fix>3d</fix>
</trkpt>
<trkpt lat="40.0737946" lon="-105.230118">
  <ele>1583.62</ele>
  <time>2026-08-28T19:08:30Z</time>
  <course>24.14</course>
  <speed>0.02</speed>
  <fix>3d</fix>
</trkpt>
<trkpt lat="40.0737944" lon="-105.2301179">
  <ele>1583.56</ele>
  <time>2026-08-28T19:08:30Z</time>
  <course>284.5</course>
  <speed>0.0</speed>
  <fix>3d</fix>
</trkpt>
<trkpt lat="40.0737946" lon="-105.230118">
  <ele>1583.62</ele>
  <time>2026-08-28T19:08:30Z</time>
  <course>24.09</course>
  <speed>0.02</speed>
  <fix>3d</fix>
</trkpt>
<trkpt lat="40.0737944" lon="-105.2301179">
  <ele>1583.56</ele>
  <time>2026-08-28T19:08:30Z</time>
  <course>284.43</course>
  <speed>0.0</speed>
  <fix>3d</fix>
</trkpt>
<trkpt lat="40.0737946" lon="-105.230118">
  <ele>1583.62</ele>
  <time>2026-08-28T19:08:30Z</time>
  <course>24.05</course>
  <speed>0.02</speed>
  <fix>3d</fix>
</trkpt>
<trkpt lat="40.0737944" lon="-105.2301179">
  <ele>1583.56</ele>
  <time>2026-08-28T19:08:30Z</time>
  <course>284.31</course>
  <speed>0.0</speed>
  <fix>3d</fix>
</trkpt>
<trkpt lat="40.0737946" lon="-105.230118">
  <ele>1583.62</ele>
  <time>2026-08-28T19:08:30Z</time>
  <course>24.0</course>
  <speed>0.02</speed>
  <fix>3d</fix>
</trkpt>
<trkpt lat="40.0737944" lon="-105.2301179">
  <ele>1583.56</ele>
  <time>2026-08-28T19:08:30Z</time>
  <course>283.63</course>
  <speed>0.0</speed>
  <fix>3d</fix>
</trkpt>
<trkpt lat="40.0737946" lon="-105.230118">
  <ele>1583.62</ele>
  <time>2026-08-28T19:08:30Z</time>
  <course>23.96</course>
  <speed>0.02</speed>
  <fix>3d</fix>
</trkpt>
<trkpt lat="40.0737944" lon="-105.2301179">
  <ele>1583.56</ele>
  <time>2026-08-28T19:08:30Z</time>
  <course>283.87</course>
  <speed>0.0</speed>
  <fix>3d</fix>
</trkpt>
<trkpt lat="40.0737946" lon="-105.230118">
  <ele>1583.62</ele>
  <time>2026-08-28T19:08:30Z</time>
  <course>23.92</course>
  <speed>0.02</speed>
  <fix>3d</fix>
</trkpt>
<trkpt lat="40.0737944" lon="-105.2301179">
  <ele>1583.56</ele>
  <time>2026-08-28T19:08:30Z</time>
  <course>283.21</course>
  <speed>0.0</speed>
  <fix>3d</fix>
</trkpt>
<trkpt lat="40.0737946" lon="-105.230118">
  <ele>1583.62</ele>
  <time>2026-08-28T19:08:30Z</time>
  <course>23.88</course>
  <speed>0.02</speed>
  <fix>3d</fix>
</trkpt>
<trkpt lat="40.0737944" lon="-105.2301179">
  <ele>1583.56</ele>
  <time>2026-08-28T19:08:30Z</time>
  <course>283.69</course>
  <speed>0.0</speed>
  <fix>3d</fix>
</trkpt>
<trkpt lat="40.0737946" lon="-105.230118">
  <ele>1583.62</ele>
  <time>2026-08-28T19:08:30Z</time>
  <course>23.83</course>
  <speed>0.02</speed>
  <fix>3d</fix>
</trkpt>
<trkpt lat="40.0737944" lon="-105.2301179">
  <ele>1583.56</ele>
  <time>2026-08-28T19:08:30Z</time>
  <course>283.9</course>
  <speed>0.0</speed>
  <fix>3d</fix>
</trkpt>
<trkpt lat="40.0737946" lon="-105.230118">
  <ele>1583.62</ele>
  <time>2026-08-28T19:08:30Z</time>
  <course>23.79</course>
  <speed>0.02</speed>
  <fix>3d</fix>
</trkpt>
<trkpt lat="40.0737944" lon="-105.2301179">
  <ele>1583.56</ele>
  <time>2026-08-28T19:08:30Z</time>
  <course>283.52</course>
  <speed>0.0</speed>
  <fix>3d</fix>
</trkpt>
<trkpt lat="40.0737946" lon="-105.230118">
  <ele>1583.62</ele>
  <time>2026-08-28T19:08:30Z</time>
  <course>23.75</course>
  <speed>0.02</speed>
  <fix>3d</fix>
</trkpt>
<trkpt lat="40.0737944" lon="-105.2301179">
  <ele>1583.56</ele>
  <time>2026-08-28T19:08:30Z</time>
  <course>284.19</course>
  <speed>0.0</speed>
  <fix>3d</fix>
</trkpt>
<trkpt lat="40.0737946" lon="-105.230118">
  <ele>1583.62</ele>
  <time>2026-08-28T19:08:30Z</time>
  <course>23.71</course>
  <speed>0.02</speed>
  <fix>3d</fix>
</trkpt>
<trkpt lat="40.0737944" lon="-105.2301179">
  <ele>1583.56</ele>
  <time>2026-08-28T19:08:30Z</time>
  <course>281.86</course>
  <speed>0.0</speed>
  <fix>3d</fix>
</trkpt>
<trkpt lat="40.0737946" lon="-105.230118">
  <ele>1583.62</ele>
  <time>2026-08-28T19:08:30Z</time>
  <course>23.67</course>
  <speed>0.02</speed>
  <fix>3d</fix>
</trkpt>
<trkpt lat="40.0737944" lon="-105.2301179">
  <ele>1583.56</ele>
  <time>2026-08-28T19:08:30Z</time>
  <course>283.14</course>
  <speed>0.0</speed>
  <fix>3d</fix>
</trkpt>
<trkpt lat="40.0737946" lon="-105.230118">
  <ele>1583.63</ele>
  <time>2026-08-28T19:08:30Z</time>
  <course>23.63</course>
  <speed>0.02</speed>
  <fix>3d</fix>
</trkpt>
<trkpt lat="40.0737944" lon="-105.2301179">
  <ele>1583.56</ele>
  <time>2026-08-28T19:08:30Z</time>
  <course>283.37</course>
  <speed>0.0</speed>
  <fix>3d</fix>
</trkpt>
<trkpt lat="40.0737946" lon="-105.230118">
  <ele>1583.63</ele>
  <time>2026-08-28T19:08:30Z</time>
  <course>23.59</course>
  <speed>0.02</speed>
  <fix>3d</fix>
</trkpt>
<trkpt lat="40.0737944" lon="-105.2301179">
  <ele>1583.56</ele>
  <time>2026-08-28T19:08:30Z</time>
  <course>283.56</course>
  <speed>0.0</speed>
  <fix>3d</fix>
</trkpt>
<trkpt lat="40.0737946" lon="-105.230118">
  <ele>1583.63</ele>
  <time>2026-08-28T19:08:30Z</time>
  <course>23.55</course>
  <speed>0.02</speed>
  <fix>3d</fix>
</trkpt>
<trkpt lat="40.0737944" lon="-105.2301179">
  <ele>1583.56</ele>
  <time>2026-08-28T19:08:30Z</time>
  <course>283.89</course>
  <speed>0.0</speed>
  <fix>3d</fix>
</trkpt>
<trkpt lat="40.0737946" lon="-105.230118">
  <ele>1583.63</ele>
  <time>2026-08-28T19:08:30Z</time>
  <course>23.51</course>
  <speed>0.02</speed>
  <fix>3d</fix>
</trkpt>
<trkpt lat="40.0737944" lon="-105.2301179">
  <ele>1583.56</ele>
  <time>2026-08-28T19:08:30Z</time>
  <course>282.24</course>
  <speed>0.0</speed>
  <fix>3d</fix>
</trkpt>
<trkpt lat="40.0737946" lon="-105.230118">
  <ele>1583.63</ele>
  <time>2026-08-28T19:08:30Z</time>
  <course>23.47</course>
  <speed>0.02</speed>
  <fix>3d</fix>
</trkpt>
<trkpt lat="40.0737944" lon="-105.2301179">
  <ele>1583.56</ele>
  <time>2026-08-28T19:08:30Z</time>
  <course>283.45</course>
  <speed>0.0</speed>
  <fix>3d</fix>
</trkpt>
<trkpt lat="40.0737946" lon="-105.230118">
  <ele>1583.63</ele>
  <time>2026-08-28T19:08:30Z</time>
  <course>23.43</course>
  <speed>0.02</speed>
  <fix>3d</fix>
</trkpt>
<trkpt lat="40.0737944" lon="-105.2301179">
  <ele>1583.56</ele>
  <time>2026-08-28T19:08:30Z</time>
  <course>282.8</course>
  <speed>0.0</speed>
  <fix>3d</fix>
</trkpt>
<trkpt lat="40.0737946" lon="-105.230118">
  <ele>1583.63</ele>
  <time>2026-08-28T19:08:30Z</time>
  <course>23.4</course>
  <speed>0.02</speed>
  <fix>3d</fix>
</trkpt>
<trkpt lat="40.0737944" lon="-105.2301179">
  <ele>1583.56</ele>
  <time>2026-08-28T19:08:30Z</time>
  <course>282.94</course>
  <speed>0.0</speed>
  <fix>3d</fix>
</trkpt>
<trkpt lat="40.0737946" lon="-105.230118">
  <ele>1583.63</ele>
  <time>2026-08-28T19:08:30Z</time>
  <course>23.36</course>
  <speed>0.02</speed>
  <fix>3d</fix>
</trkpt>
<trkpt lat="40.0737944" lon="-105.2301179">
  <ele>1583.56</ele>
  <time>2026-08-28T19:08:30Z</time>
  <course>283.78</course>
  <speed>0.0</speed>
  <fix>3d</fix>
</trkpt>
<trkpt lat="40.0737946" lon="-105.230118">
  <ele>1583.63</ele>
  <time>2026-08-28T19:08:30Z</time>
  <course>23.32</course>
  <speed>0.02</speed>
  <fix>3d</fix>
</trkpt>
<trkpt lat="40.0737944" lon="-105.2301179">
  <ele>1583.56</ele>
  <time>2026-08-28T19:08:30Z</time>
  <course>281.79</course>
  <speed>0.0</speed>
  <fix>3d</fix>
</trkpt>
<trkpt lat="40.0737946" lon="-105.230118">
  <ele>1583.63</ele>
  <time>2026-08-28T19:08:30Z</time>
  <course>23.29</course>
  <speed>0.02</speed>
  <fix>3d</fix>
</trkpt>
<trkpt lat="40.0737944" lon="-105.2301179">
  <ele>1583.56</ele>
  <time>2026-08-28T19:08:30Z</time>
  <course>283.14</course>
  <speed>0.0</speed>
  <fix>3d</fix>
</trkpt>
<trkpt lat="40.0737946" lon="-105.230118">
  <ele>1583.63</ele>
  <time>2026-08-28T19:08:30Z</time>
  <course>23.25</course>
  <speed>0.02</speed>
  <fix>3d</fix>
</trkpt>
<trkpt lat="40.0737944" lon="-105.2301179">
  <ele>1583.56</ele>
  <time>2026-08-28T19:08:30Z</time>
  <course>283.51</course>
  <speed>0.0</speed>
  <fix>3d</fix>
</trkpt>
<trkpt lat="40.0737946" lon="-105.230118">
  <ele>1583.63</ele>
  <time>2026-08-28T19:08:30Z</time>
  <course>23.21</course>
  <speed>0.02</speed>
  <fix>3d</fix>
</trkpt>
<trkpt lat="40.0737944" lon="-105.2301179">
  <ele>1583.56</ele>
  <time>2026-08-28T19:08:30Z</time>
  <course>280.35</course>
  <speed>0.0</speed>
  <fix>3d</fix>
</trkpt>
<trkpt lat="40.0737946" lon="-105.230118">
  <ele>1583.63</ele>
  <time>2026-08-28T19:08:30Z</time>
  <course>23.18</course>
  <speed>0.02</speed>
  <fix>3d</fix>
</trkpt>
<trkpt lat="40.0737944" lon="-105.2301179">
  <ele>1583.56</ele>
  <time>2026-08-28T19:08:30Z</time>
  <course>282.9</course>
  <speed>0.0</speed>
  <fix>3d</fix>
</trkpt>
<trkpt lat="40.0737946" lon="-105.230118">
  <ele>1583.62</ele>
  <time>2026-08-28T19:08:30Z</time>
  <course>23.14</course>
  <speed>0.02</speed>
  <fix>3d</fix>
</trkpt>
<trkpt lat="40.0737944" lon="-105.2301179">
  <ele>1583.56</ele>
  <time>2026-08-28T19:08:30Z</time>
  <course>282.81</course>
  <speed>0.0</speed>
  <fix>3d</fix>
</trkpt>
<trkpt lat="40.0737946" lon="-105.230118">
  <ele>1583.62</ele>
  <time>2026-08-28T19:08:30Z</time>
  <course>23.11</course>
  <speed>0.02</speed>
  <fix>3d</fix>
</trkpt>
<trkpt lat="40.0737944" lon="-105.2301179">
  <ele>1583.56</ele>
  <time>2026-08-28T19:08:30Z</time>
  <course>282.59</course>
  <speed>0.0</speed>
  <fix>3d</fix>
</trkpt>
<trkpt lat="40.0737946" lon="-105.230118">
  <ele>1583.62</ele>
  <time>2026-08-28T19:08:30Z</time>
  <course>23.07</course>
  <speed>0.02</speed>
  <fix>3d</fix>
</trkpt>
<trkpt lat="40.0737944" lon="-105.2301179">
  <ele>1583.56</ele>
  <time>2026-08-28T19:08:30Z</time>
  <course>283.42</course>
  <speed>0.0</speed>
  <fix>3d</fix>
</trkpt>
<trkpt lat="40.0737946" lon="-105.230118">
  <ele>1583.63</ele>
  <time>2026-08-28T19:08:30Z</time>
  <course>23.04</course>
  <speed>0.02</speed>
  <fix>3d</fix>
</trkpt>
<trkpt lat="40.0737944" lon="-105.2301179">
  <ele>1583.56</ele>
  <time>2026-08-28T19:08:30Z</time>
  <course>281.87</course>
  <speed>0.0</speed>
  <fix>3d</fix>
</trkpt>
<trkpt lat="40.0737946" lon="-105.230118">
  <ele>1583.63</ele>
  <time>2026-08-28T19:08:30Z</time>
  <course>23.01</course>
  <speed>0.02</speed>
  <fix>3d</fix>
</trkpt>
<trkpt lat="40.0737944" lon="-105.2301179">
  <ele>1583.56</ele>
  <time>2026-08-28T19:08:30Z</time>
  <course>282.36</course>
  <speed>0.0</speed>
  <fix>3d</fix>
</trkpt>
<trkpt lat="40.0737946" lon="-105.230118">
  <ele>1583.63</ele>
  <time>2026-08-28T19:08:30Z</time>
  <course>22.97</course>
  <speed>0.02</speed>
  <fix>3d</fix>
</trkpt>
<trkpt lat="40.0737944" lon="-105.2301179">
  <ele>1583.56</ele>
  <time>2026-08-28T19:08:30Z</time>
  <course>283.35</course>
  <speed>0.0</speed>
  <fix>3d</fix>
</trkpt>
<trkpt lat="40.0737946" lon="-105.230118">
  <ele>1583.63</ele>
  <time>2026-08-28T19:08:30Z</time>
  <course>22.94</course>
  <speed>0.02</speed>
  <fix>3d</fix>
</trkpt>
<trkpt lat="40.0737944" lon="-105.2301179">
  <ele>1583.56</ele>
  <time>2026-08-28T19:08:30Z</time>
  <course>281.92</course>
  <speed>0.0</speed>
  <fix>3d</fix>
</trkpt>
<trkpt lat="40.0737946" lon="-105.230118">
  <ele>1583.63</ele>
  <time>2026-08-28T19:08:30Z</time>
  <course>22.91</course>
  <speed>0.02</speed>
  <fix>3d</fix>
</trkpt>
<trkpt lat="40.0737944" lon="-105.2301179">
  <ele>1583.56</ele>
  <time>2026-08-28T19:08:30Z</time>
  <course>282.37</course>
  <speed>0.0</speed>
  <fix>3d</fix>
</trkpt>
<trkpt lat="40.0737946" lon="-105.230118">
  <ele>1583.63</ele>
  <time>2026-08-28T19:08:30Z</time>
  <course>22.87</course>
  <speed>0.02</speed>
  <fix>3d</fix>
</trkpt>
<trkpt lat="40.0737944" lon="-105.2301179">
  <ele>1583.56</ele>
  <time>2026-08-28T19:08:30Z</time>
  <course>283.26</course>
  <speed>0.0</speed>
  <fix>3d</fix>
</trkpt>
<trkpt lat="40.0737946" lon="-105.230118">
  <ele>1583.63</ele>
  <time>2026-08-28T19:08:30Z</time>
  <course>22.84</course>
  <speed>0.02</speed>
  <fix>3d</fix>
</trkpt>
<trkpt lat="40.0737944" lon="-105.2301179">
  <ele>1583.56</ele>
  <time>2026-08-28T19:08:30Z</time>
  <course>281.78</course>
  <speed>0.0</speed>
  <fix>3d</fix>
</trkpt>
<trkpt lat="40.0737946" lon="-105.230118">
  <ele>1583.63</ele>
  <time>2026-08-28T19:08:30Z</time>
  <course>22.81</course>
  <speed>0.02</speed>
  <fix>3d</fix>
</trkpt>
<trkpt lat="40.0737944" lon="-105.2301179">
  <ele>1583.56</ele>
  <time>2026-08-28T19:08:30Z</time>
  <course>282.16</course>
  <speed>0.0</speed>
  <fix>3d</fix>
</trkpt>
<trkpt lat="40.0737946" lon="-105.230118">
  <ele>1583.64</ele>
  <time>2026-08-28T19:08:30Z</time>
  <course>22.78</course>
  <speed>0.02</speed>
  <fix>3d</fix>
</trkpt>
<trkpt lat="40.0737944" lon="-105.2301179">
  <ele>1583.56</ele>
  <time>2026-08-28T19:08:30Z</time>
  <course>283.15</course>
  <speed>0.0</speed>
  <fix>3d</fix>
</trkpt>
<trkpt lat="40.0737946" lon="-105.230118">
  <ele>1583.64</ele>
  <time>2026-08-28T19:08:30Z</time>
  <course>22.75</course>
  <speed>0.02</speed>
  <fix>3d</fix>
</trkpt>
<trkpt lat="40.0737944" lon="-105.2301179">
  <ele>1583.56</ele>
  <time>2026-08-28T19:08:30Z</time>
  <course>281.88</course>
  <speed>0.0</speed>
  <fix>3d</fix>
</trkpt>
<trkpt lat="40.0737946" lon="-105.230118">
  <ele>1583.64</ele>
  <time>2026-08-28T19:08:30Z</time>
  <course>22.72</course>
  <speed>0.02</speed>
  <fix>3d</fix>
</trkpt>
<trkpt lat="40.0737944" lon="-105.2301179">
  <ele>1583.56</ele>
  <time>2026-08-28T19:08:30Z</time>
  <course>281.51</course>
  <speed>0.0</speed>
  <fix>3d</fix>
</trkpt>
<trkpt lat="40.0737946" lon="-105.230118">
  <ele>1583.64</ele>
  <time>2026-08-28T19:08:30Z</time>
  <course>22.69</course>
  <speed>0.02</speed>
  <fix>3d</fix>
</trkpt>
<trkpt lat="40.0737944" lon="-105.2301179">
  <ele>1583.56</ele>
  <time>2026-08-28T19:08:30Z</time>
  <course>282.94</course>
  <speed>0.0</speed>
  <fix>3d</fix>
</trkpt>
<trkpt lat="40.0737946" lon="-105.230118">
  <ele>1583.64</ele>
  <time>2026-08-28T19:08:30Z</time>
  <course>22.66</course>
  <speed>0.02</speed>
  <fix>3d</fix>
</trkpt>
<trkpt lat="40.0737944" lon="-105.2301179">
  <ele>1583.56</ele>
  <time>2026-08-28T19:08:30Z</time>
  <course>282.12</course>
  <speed>0.0</speed>
  <fix>3d</fix>
</trkpt>
<trkpt lat="40.0737946" lon="-105.230118">
  <ele>1583.64</ele>
  <time>2026-08-28T19:08:30Z</time>
  <course>22.63</course>
  <speed>0.02</speed>
  <fix>3d</fix>
</trkpt>
<trkpt lat="40.0737944" lon="-105.2301179">
  <ele>1583.56</ele>
  <time>2026-08-28T19:08:30Z</time>
  <course>278.51</course>
  <speed>0.0</speed>
  <fix>3d</fix>
</trkpt>
<trkpt lat="40.0737946" lon="-105.230118">
  <ele>1583.64</ele>
  <time>2026-08-28T19:08:30Z</time>
  <course>22.6</course>
  <speed>0.02</speed>
  <fix>3d</fix>
</trkpt>
<trkpt lat="40.0737944" lon="-105.2301179">
  <ele>1583.56</ele>
  <time>2026-08-28T19:08:30Z</time>
  <course>282.72</course>
  <speed>0.0</speed>
  <fix>3d</fix>
</trkpt>
<trkpt lat="40.0737946" lon="-105.230118">
  <ele>1583.64</ele>
  <time>2026-08-28T19:08:30Z</time>
  <course>22.57</course>
  <speed>0.02</speed>
  <fix>3d</fix>
</trkpt>
<trkpt lat="40.0737944" lon="-105.2301179">
  <ele>1583.56</ele>
  <time>2026-08-28T19:08:30Z</time>
  <course>282.91</course>
  <speed>0.0</speed>
  <fix>3d</fix>
</trkpt>
<trkpt lat="40.0737946" lon="-105.230118">
  <ele>1583.64</ele>
  <time>2026-08-28T19:08:30Z</time>
  <course>22.54</course>
  <speed>0.02</speed>
  <fix>3d</fix>
</trkpt>
<trkpt lat="40.0737944" lon="-105.2301179">
  <ele>1583.56</ele>
  <time>2026-08-28T19:08:30Z</time>
  <course>280.09</course>
  <speed>0.0</speed>
  <fix>3d</fix>
</trkpt>
<trkpt lat="40.0737946" lon="-105.230118">
  <ele>1583.64</ele>
  <time>2026-08-28T19:08:30Z</time>
  <course>22.51</course>
  <speed>0.02</speed>
  <fix>3d</fix>
</trkpt>
<trkpt lat="40.0737944" lon="-105.2301179">
  <ele>1583.56</ele>
  <time>2026-08-28T19:08:30Z</time>
  <course>282.32</course>
  <speed>0.0</speed>
  <fix>3d</fix>
</trkpt>
<trkpt lat="40.0737946" lon="-105.230118">
  <ele>1583.64</ele>
  <time>2026-08-28T19:08:30Z</time>
  <course>22.48</course>
  <speed>0.02</speed>
  <fix>3d</fix>
</trkpt>
<trkpt lat="40.0737944" lon="-105.2301179">
  <ele>1583.56</ele>
  <time>2026-08-28T19:08:30Z</time>
  <course>282.93</course>
  <speed>0.0</speed>
  <fix>3d</fix>
</trkpt>
<trkpt lat="40.0737946" lon="-105.230118">
  <ele>1583.64</ele>
  <time>2026-08-28T19:08:30Z</time>
  <course>22.45</course>
  <speed>0.02</speed>
  <fix>3d</fix>
</trkpt>
<trkpt lat="40.0737944" lon="-105.2301179">
  <ele>1583.56</ele>
  <time>2026-08-28T19:08:30Z</time>
  <course>281.43</course>
  <speed>0.0</speed>
  <fix>3d</fix>
</trkpt>
<trkpt lat="40.0737946" lon="-105.230118">
  <ele>1583.64</ele>
  <time>2026-08-28T19:08:30Z</time>
  <course>22.43</course>
  <speed>0.02</speed>
  <fix>3d</fix>
</trkpt>
<trkpt lat="40.0737944" lon="-105.2301179">
  <ele>1583.56</ele>
  <time>2026-08-28T19:08:30Z</time>
  <course>278.92</course>
  <speed>0.0</speed>
  <fix>3d</fix>
</trkpt>
<trkpt lat="40.0737946" lon="-105.230118">
  <ele>1583.64</ele>
  <time>2026-08-28T19:08:30Z</time>
  <course>22.4</course>
  <speed>0.02</speed>
  <fix>3d</fix>
</trkpt>
<trkpt lat="40.0737944" lon="-105.2301179">
  <ele>1583.56</ele>
  <time>2026-08-28T19:08:30Z</time>
  <course>282.48</course>
  <speed>0.0</speed>
  <fix>3d</fix>
</trkpt>
<trkpt lat="40.0737946" lon="-105.230118">
  <ele>1583.64</ele>
  <time>2026-08-28T19:08:30Z</time>
  <course>22.37</course>
  <speed>0.02</speed>
  <fix>3d</fix>
</trkpt>
<trkpt lat="40.0737944" lon="-105.2301179">
  <ele>1583.56</ele>
  <time>2026-08-28T19:08:30Z</time>
  <course>282.5</course>
  <speed>0.0</speed>
  <fix>3d</fix>
</trkpt>
<trkpt lat="40.0737946" lon="-105.230118">
  <ele>1583.64</ele>
  <time>2026-08-28T19:08:30Z</time>
  <course>22.35</course>
  <speed>0.02</speed>
  <fix>3d</fix>
</trkpt>
<trkpt lat="40.0737944" lon="-105.2301179">
  <ele>1583.56</ele>
  <time>2026-08-28T19:08:30Z</time>
  <course>279.56</course>
  <speed>0.0</speed>
  <fix>3d</fix>
</trkpt>
<trkpt lat="40.0737946" lon="-105.230118">
  <ele>1583.64</ele>
  <time>2026-08-28T19:08:30Z</time>
  <course>22.32</course>
  <speed>0.02</speed>
  <fix>3d</fix>
</trkpt>
<trkpt lat="40.0737944" lon="-105.2301179">
  <ele>1583.56</ele>
  <time>2026-08-28T19:08:30Z</time>
  <course>282.1</course>
  <speed>0.0</speed>
  <fix>3d</fix>
</trkpt>
<trkpt lat="40.0737946" lon="-105.230118">
  <ele>1583.64</ele>
  <time>2026-08-28T19:08:30Z</time>
  <course>22.29</course>
  <speed>0.02</speed>
  <fix>3d</fix>
</trkpt>
<trkpt lat="40.0737944" lon="-105.2301179">
  <ele>1583.56</ele>
  <time>2026-08-28T19:08:30Z</time>
  <course>282.73</course>
  <speed>0.0</speed>
  <fix>3d</fix>
</trkpt>
<trkpt lat="40.0737946" lon="-105.230118">
  <ele>1583.64</ele>
  <time>2026-08-28T19:08:30Z</time>
  <course>22.27</course>
  <speed>0.02</speed>
  <fix>3d</fix>
</trkpt>
<trkpt lat="40.0737944" lon="-105.2301179">
  <ele>1583.56</ele>
  <time>2026-08-28T19:08:30Z</time>
  <course>281.54</course>
  <speed>0.0</speed>
  <fix>3d</fix>
</trkpt>
<trkpt lat="40.0737946" lon="-105.230118">
  <ele>1583.64</ele>
  <time>2026-08-28T19:08:30Z</time>
  <course>22.24</course>
  <speed>0.02</speed>
  <fix>3d</fix>
</trkpt>
<trkpt lat="40.0737944" lon="-105.2301179">
  <ele>1583.56</ele>
  <time>2026-08-28T19:08:30Z</time>
  <course>279.22</course>
  <speed>0.0</speed>
  <fix>3d</fix>
</trkpt>
<trkpt lat="40.0737946" lon="-105.230118">
  <ele>1583.64</ele>
  <time>2026-08-28T19:08:30Z</time>
  <course>22.22</course>
  <speed>0.02</speed>
  <fix>3d</fix>
</trkpt>
<trkpt lat="40.0737944" lon="-105.2301179">
  <ele>1583.56</ele>
  <time>2026-08-28T19:08:30Z</time>
  <course>281.78</course>
  <speed>0.0</speed>
  <fix>3d</fix>
</trkpt>
<trkpt lat="40.0737946" lon="-105.230118">
  <ele>1583.64</ele>
  <time>2026-08-28T19:08:30Z</time>
  <course>22.19</course>
  <speed>0.02</speed>
  <fix>3d</fix>
</trkpt>
<trkpt lat="40.0737944" lon="-105.2301179">
  <ele>1583.56</ele>
  <time>2026-08-28T19:08:30Z</time>
  <course>282.54</course>
  <speed>0.0</speed>
  <fix>3d</fix>
</trkpt>
<trkpt lat="40.0737946" lon="-105.230118">
  <ele>1583.64</ele>
  <time>2026-08-28T19:08:30Z</time>
  <course>22.17</course>
  <speed>0.02</speed>
  <fix>3d</fix>
</trkpt>
<trkpt lat="40.0737944" lon="-105.2301179">
  <ele>1583.56</ele>
  <time>2026-08-28T19:08:30Z</time>
  <course>281.74</course>
  <speed>0.0</speed>
  <fix>3d</fix>
</trkpt>
<trkpt lat="40.0737946" lon="-105.230118">
  <ele>1583.63</ele>
  <time>2026-08-28T19:08:30Z</time>
  <course>22.14</course>
  <speed>0.02</speed>
  <fix>3d</fix>
</trkpt>
<trkpt lat="40.0737944" lon="-105.2301179">
  <ele>1583.56</ele>
  <time>2026-08-28T19:08:30Z</time>
  <course>279.33</course>
  <speed>0.0</speed>
  <fix>3d</fix>
</trkpt>
<trkpt lat="40.0737946" lon="-105.230118">
  <ele>1583.63</ele>
  <time>2026-08-28T19:08:30Z</time>
  <course>22.12</course>
  <speed>0.02</speed>
  <fix>3d</fix>
</trkpt>
<trkpt lat="40.0737944" lon="-105.2301179">
  <ele>1583.56</ele>
  <time>2026-08-28T19:08:30Z</time>
  <course>281.95</course>
  <speed>0.0</speed>
  <fix>3d</fix>
</trkpt>
<trkpt lat="40.0737946" lon="-105.230118">
  <ele>1583.63</ele>
  <time>2026-08-28T19:08:30Z</time>
  <course>22.09</course>
  <speed>0.02</speed>
  <fix>3d</fix>
</trkpt>
<trkpt lat="40.0737944" lon="-105.2301179">
  <ele>1583.56</ele>
  <time>2026-08-28T19:08:30Z</time>
  <course>282.53</course>
  <speed>0.0</speed>
  <fix>3d</fix>
</trkpt>
<trkpt lat="40.0737946" lon="-105.230118">
  <ele>1583.63</ele>
  <time>2026-08-28T19:08:30Z</time>
  <course>22.07</course>
  <speed>0.02</speed>
  <fix>3d</fix>
</trkpt>
<trkpt lat="40.0737944" lon="-105.2301179">
  <ele>1583.56</ele>
  <time>2026-08-28T19:08:30Z</time>
  <course>281.53</course>
  <speed>0.0</speed>
  <fix>3d</fix>
</trkpt>
<trkpt lat="40.0737946" lon="-105.230118">
  <ele>1583.63</ele>
  <time>2026-08-28T19:08:30Z</time>
  <course>22.05</course>
  <speed>0.02</speed>
  <fix>3d</fix>
</trkpt>
<trkpt lat="40.0737944" lon="-105.2301179">
  <ele>1583.56</ele>
  <time>2026-08-28T19:08:30Z</time>
  <course>279.45</course>
  <speed>0.0</speed>
  <fix>3d</fix>
</trkpt>
<trkpt lat="40.0737946" lon="-105.230118">
  <ele>1583.63</ele>
  <time>2026-08-28T19:08:30Z</time>
  <course>22.02</course>
  <speed>0.02</speed>
  <fix>3d</fix>
</trkpt>
<trkpt lat="40.0737944" lon="-105.2301179">
  <ele>1583.56</ele>
  <time>2026-08-28T19:08:30Z</time>
  <course>281.42</course>
  <speed>0.0</speed>
  <fix>3d</fix>
</trkpt>
<trkpt lat="40.0737946" lon="-105.230118">
  <ele>1583.63</ele>
  <time>2026-08-28T19:08:30Z</time>
  <course>22.0</course>
  <speed>0.02</speed>
  <fix>3d</fix>
</trkpt>
<trkpt lat="40.0737944" lon="-105.2301179">
  <ele>1583.56</ele>
  <time>2026-08-28T19:08:30Z</time>
  <course>282.31</course>
  <speed>0.0</speed>
  <fix>3d</fix>
</trkpt>
<trkpt lat="40.0737946" lon="-105.230118">
  <ele>1583.63</ele>
  <time>2026-08-28T19:08:30Z</time>
  <course>21.98</course>
  <speed>0.02</speed>
  <fix>3d</fix>
</trkpt>
<trkpt lat="40.0737944" lon="-105.2301179">
  <ele>1583.56</ele>
  <time>2026-08-28T19:08:30Z</time>
  <course>281.75</course>
  <speed>0.0</speed>
  <fix>3d</fix>
</trkpt>
<trkpt lat="40.0737946" lon="-105.230118">
  <ele>1583.64</ele>
  <time>2026-08-28T19:08:30Z</time>
  <course>21.96</course>
  <speed>0.02</speed>
  <fix>3d</fix>
</trkpt>
<trkpt lat="40.0737944" lon="-105.2301179">
  <ele>1583.56</ele>
  <time>2026-08-28T19:08:30Z</time>
  <course>279.58</course>
  <speed>0.0</speed>
  <fix>3d</fix>
</trkpt>
<trkpt lat="40.0737946" lon="-105.230118">
  <ele>1583.64</ele>
  <time>2026-08-28T19:08:30Z</time>
  <course>21.93</course>
  <speed>0.02</speed>
  <fix>3d</fix>
</trkpt>
<trkpt lat="40.0737944" lon="-105.2301179">
  <ele>1583.56</ele>
  <time>2026-08-28T19:08:30Z</time>
  <course>280.31</course>
  <speed>0.0</speed>
  <fix>3d</fix>
</trkpt>
<trkpt lat="40.0737946" lon="-105.230118">
  <ele>1583.63</ele>
  <time>2026-08-28T19:08:30Z</time>
  <course>21.91</course>
  <speed>0.02</speed>
  <fix>3d</fix>
</trkpt>
<trkpt lat="40.0737944" lon="-105.2301179">
  <ele>1583.56</ele>
  <time>2026-08-28T19:08:30Z</time>
  <course>282.16</course>
  <speed>0.0</speed>
  <fix>3d</fix>
</trkpt>
<trkpt lat="40.0737946" lon="-105.230118">
  <ele>1583.63</ele>
  <time>2026-08-28T19:08:30Z</time>
  <course>21.89</course>
  <speed>0.02</speed>
  <fix>3d</fix>
</trkpt>
<trkpt lat="40.0737944" lon="-105.2301179">
  <ele>1583.56</ele>
  <time>2026-08-28T19:08:30Z</time>
  <course>282.14</course>
  <speed>0.0</speed>
  <fix>3d</fix>
</trkpt>
<trkpt lat="40.0737946" lon="-105.230118">
  <ele>1583.64</ele>
  <time>2026-08-28T19:08:30Z</time>
  <course>21.87</course>
  <speed>0.02</speed>
  <fix>3d</fix>
</trkpt>
<trkpt lat="40.0737944" lon="-105.2301179">
  <ele>1583.56</ele>
  <time>2026-08-28T19:08:30Z</time>
  <course>280.05</course>
  <speed>0.0</speed>
  <fix>3d</fix>
</trkpt>
<trkpt lat="40.0737946" lon="-105.230118">
  <ele>1583.64</ele>
  <time>2026-08-28T19:08:30Z</time>
  <course>21.85</course>
  <speed>0.02</speed>
  <fix>3d</fix>
</trkpt>
<trkpt lat="40.0737944" lon="-105.2301179">
  <ele>1583.56</ele>
  <time>2026-08-28T19:08:30Z</time>
  <course>280.11</course>
  <speed>0.0</speed>
  <fix>3d</fix>
</trkpt>
<trkpt lat="40.0737946" lon="-105.230118">
  <ele>1583.64</ele>
  <time>2026-08-28T19:08:30Z</time>
  <course>21.83</course>
  <speed>0.02</speed>
  <fix>3d</fix>
</trkpt>
<trkpt lat="40.0737944" lon="-105.2301179">
  <ele>1583.56</ele>
  <time>2026-08-28T19:08:30Z</time>
  <course>280.6</course>
  <speed>0.0</speed>
  <fix>3d</fix>
</trkpt>
<trkpt lat="40.0737946" lon="-105.230118">
  <ele>1583.64</ele>
  <time>2026-08-28T19:08:30Z</time>
  <course>21.81</course>
  <speed>0.02</speed>
  <fix>3d</fix>
</trkpt>
<trkpt lat="40.0737944" lon="-105.2301179">
  <ele>1583.56</ele>
  <time>2026-08-28T19:08:30Z</time>
  <course>282.01</course>
  <speed>0.0</speed>
  <fix>3d</fix>
</trkpt>
<trkpt lat="40.0737946" lon="-105.230118">
  <ele>1583.65</ele>
  <time>2026-08-28T19:08:30Z</time>
  <course>21.79</course>
  <speed>0.02</speed>
  <fix>3d</fix>
</trkpt>
<trkpt lat="40.0737944" lon="-105.2301179">
  <ele>1583.56</ele>
  <time>2026-08-28T19:08:30Z</time>
  <course>281.96</course>
  <speed>0.0</speed>
  <fix>3d</fix>
</trkpt>
<trkpt lat="40.0737946" lon="-105.230118">
  <ele>1583.65</ele>
  <time>2026-08-28T19:08:30Z</time>
  <course>21.77</course>
  <speed>0.02</speed>
  <fix>3d</fix>
</trkpt>
<trkpt lat="40.0737944" lon="-105.2301179">
  <ele>1583.56</ele>
  <time>2026-08-28T19:08:30Z</time>
  <course>278.84</course>
  <speed>0.0</speed>
  <fix>3d</fix>
</trkpt>
<trkpt lat="40.0737946" lon="-105.230118">
  <ele>1583.64</ele>
  <time>2026-08-28T19:08:30Z</time>
  <course>21.75</course>
  <speed>0.02</speed>
  <fix>3d</fix>
</trkpt>
<trkpt lat="40.0737944" lon="-105.2301179">
  <ele>1583.56</ele>
  <time>2026-08-28T19:08:30Z</time>
  <course>278.26</course>
  <speed>0.0</speed>
  <fix>3d</fix>
</trkpt>
<trkpt lat="40.0737946" lon="-105.230118">
  <ele>1583.65</ele>
  <time>2026-08-28T19:08:30Z</time>
  <course>21.74</course>
  <speed>0.02</speed>
  <fix>3d</fix>
</trkpt>
<trkpt lat="40.0737944" lon="-105.2301179">
  <ele>1583.56</ele>
  <time>2026-08-28T19:08:30Z</time>
  <course>278.36</course>
  <speed>0.0</speed>
  <fix>3d</fix>
</trkpt>
<trkpt lat="40.0737946" lon="-105.230118">
  <ele>1583.65</ele>
  <time>2026-08-28T19:08:30Z</time>
  <course>21.73</course>
  <speed>0.02</speed>
  <fix>3d</fix>
</trkpt>
<trkpt lat="40.0737944" lon="-105.2301179">
  <ele>1583.56</ele>
  <time>2026-08-28T19:08:30Z</time>
  <course>277.91</course>
  <speed>0.0</speed>
  <fix>3d</fix>
</trkpt>
<trkpt lat="40.0737946" lon="-105.230118">
  <ele>1583.65</ele>
  <time>2026-08-28T19:08:30Z</time>
  <course>21.73</course>
  <speed>0.02</speed>
  <fix>3d</fix>
</trkpt>
<trkpt lat="40.0737946" lon="-105.230118">
  <ele>1583.65</ele>
  <time>2026-08-28T19:08:30Z</time>
  <course>21.71</course>
  <speed>0.02</speed>
  <fix>3d</fix>
</trkpt>
<trkpt lat="40.0737944" lon="-105.2301179">
  <ele>1583.56</ele>
  <time>2026-08-28T19:08:30Z</time>
  <course>277.53</course>
  <speed>0.0</speed>
  <fix>3d</fix>
</trkpt>
<trkpt lat="40.0737946" lon="-105.230118">
  <ele>1583.65</ele>
  <time>2026-08-28T19:08:30Z</time>
  <course>21.71</course>
  <speed>0.02</speed>
  <fix>3d</fix>
</trkpt>
<trkpt lat="40.0737946" lon="-105.230118">
  <ele>1583.65</ele>
  <time>2026-08-28T19:08:30Z</time>
  <course>21.68</course>
  <speed>0.02</speed>
  <fix>3d</fix>
</trkpt>
<trkpt lat="40.0737944" lon="-105.2301179">
  <ele>1583.56</ele>
  <time>2026-08-28T19:08:30Z</time>
  <course>277.68</course>
  <speed>0.0</speed>
  <fix>3d</fix>
</trkpt>
<trkpt lat="40.0737946" lon="-105.230118">
  <ele>1583.65</ele>
  <time>2026-08-28T19:08:30Z</time>
  <course>21.68</course>
  <speed>0.02</speed>
  <fix>3d</fix>
</trkpt>
<trkpt lat="40.0737946" lon="-105.230118">
  <ele>1583.67</ele>
  <time>2026-08-28T19:08:30Z</time>
  <course>21.62</course>
  <speed>0.02</speed>
  <fix>3d</fix>
</trkpt>
<trkpt lat="40.0737944" lon="-105.2301179">
  <ele>1583.56</ele>
  <time>2026-08-28T19:08:30Z</time>
  <course>278.67</course>
  <speed>0.0</speed>
  <fix>3d</fix>
</trkpt>
<trkpt lat="40.0737946" lon="-105.230118">
  <ele>1583.67</ele>
  <time>2026-08-28T19:08:30Z</time>
  <course>21.61</course>
  <speed>0.02</speed>
  <fix>3d</fix>
</trkpt>
<trkpt lat="40.0737946" lon="-105.230118">
  <ele>1583.72</ele>
  <time>2026-08-28T19:08:30Z</time>
  <course>21.55</course>
  <speed>0.02</speed>
  <fix>3d</fix>
</trkpt>
<trkpt lat="40.0737944" lon="-105.2301179">
  <ele>1583.59</ele>
  <time>2026-08-28T19:08:30Z</time>
  <course>274.01</course>
  <speed>0.0</speed>
  <fix>3d</fix>
</trkpt>
<trkpt lat="40.0737946" lon="-105.230118">
  <ele>1583.73</ele>
  <time>2026-08-28T19:08:30Z</time>
  <course>21.54</course>
  <speed>0.02</speed>
  <fix>3d</fix>
</trkpt>
<trkpt lat="40.0737946" lon="-105.230118">
  <ele>1583.81</ele>
  <time>2026-08-28T19:08:30Z</time>
  <course>19.36</course>
  <speed>0.0282842712474619</speed>
  <fix>3d</fix>
</trkpt>
<trkpt lat="40.0737944" lon="-105.2301179">
  <ele>1583.64</ele>
  <time>2026-08-28T19:08:30Z</time>
  <course>282.39</course>
  <speed>0.0</speed>
  <fix>3d</fix>
</trkpt>
<trkpt lat="40.0737946" lon="-105.230118">
  <ele>1583.83</ele>
  <time>2026-08-28T19:08:30Z</time>
  <course>18.09</course>
  <speed>0.04242640687119285</speed>
  <fix>3d</fix>
</trkpt>
<trkpt lat="40.0737946" lon="-105.2301182">
  <ele>1584.11</ele>
  <time>2026-08-28T19:08:30Z</time>
  <course>13.02</course>
  <speed>0.196468827043885</speed>
  <fix>3d</fix>
</trkpt>
<trkpt lat="40.0737944" lon="-105.230118">
  <ele>1583.8</ele>
  <time>2026-08-28T19:08:30Z</time>
  <course>271.07</course>
  <speed>0.07</speed>
  <fix>3d</fix>
</trkpt>
<trkpt lat="40.0737946" lon="-105.2301182">
  <ele>1584.17</ele>
  <time>2026-08-28T19:08:30Z</time>
  <course>12.9</course>
  <speed>0.215870331449229</speed>
  <fix>3d</fix>
</trkpt>
<trkpt lat="40.0737946" lon="-105.2301187">
  <ele>1584.5</ele>
  <time>2026-08-28T19:08:30Z</time>
  <course>12.2</course>
  <speed>0.260768096208106</speed>
  <fix>3d</fix>
</trkpt>
<trkpt lat="40.0737944" lon="-105.2301183">
  <ele>1584.11</ele>
  <time>2026-08-28T19:08:30Z</time>
  <course>267.11</course>
  <speed>0.19</speed>
  <fix>3d</fix>
</trkpt>
<trkpt lat="40.0737946" lon="-105.2301187">
  <ele>1584.51</ele>
  <time>2026-08-28T19:08:30Z</time>
  <course>12.17</course>
  <speed>0.260768096208106</speed>
  <fix>3d</fix>
</trkpt>
<trkpt lat="40.0737946" lon="-105.2301193">
  <ele>1584.89</ele>
  <time>2026-08-28T19:08:30Z</time>
  <course>10.58</course>
  <speed>0.27166155414412246</speed>
  <fix>3d</fix>
</trkpt>
<trkpt lat="40.0737943" lon="-105.2301188">
  <ele>1584.5</ele>
  <time>2026-08-28T19:08:30Z</time>
  <course>258.75</course>
  <speed>0.25</speed>
  <fix>3d</fix>
</trkpt>
<trkpt lat="40.0737946" lon="-105.2301194">
  <ele>1584.94</ele>
  <time>2026-08-28T19:08:30Z</time>
  <course>10.39</course>
  <speed>0.27294688127912364</speed>
  <fix>3d</fix>
</trkpt>
<trkpt lat="40.0737944" lon="-105.2301199">
  <ele>1585.32</ele>
  <time>2026-08-28T19:08:30Z</time>
  <course>9.38</course>
  <speed>0.24698178070456936</speed>
  <fix>3d</fix>
</trkpt>
<trkpt lat="40.0737941" lon="-105.2301195">
  <ele>1584.9</ele>
  <time>2026-08-28T19:08:30Z</time>
  <course>246.17</course>
  <speed>0.26</speed>
  <fix>3d</fix>
</trkpt>
<trkpt lat="40.0737944" lon="-105.23012">
  <ele>1585.39</ele>
  <time>2026-08-28T19:08:30Z</time>
  <course>9.26</course>
  <speed>0.24166091947189144</speed>
  <fix>3d</fix>
</trkpt>
<trkpt lat="40.0737941" lon="-105.2301203">
  <ele>1585.78</ele>
  <time>2026-08-28T19:08:30Z</time>
  <course>8.84</course>
  <speed>0.22671568097509268</speed>
  <fix>3d</fix>
</trkpt>
<trkpt lat="40.073794" lon="-105.23012">
  <ele>1585.33</ele>
  <time>2026-08-28T19:08:30Z</time>
  <course>231.03</course>
  <speed>0.25</speed>
  <fix>3d</fix>
</trkpt>
<trkpt lat="40.073794" lon="-105.2301204">
  <ele>1585.84</ele>
  <time>2026-08-28T19:08:30Z</time>
  <course>8.8</course>
  <speed>0.2193171219946131</speed>
  <fix>3d</fix>
</trkpt>
<trkpt lat="40.0737937" lon="-105.2301206">
  <ele>1586.25</ele>
  <time>2026-08-28T19:08:30Z</time>
  <course>8.62</course>
  <speed>0.19235384061671343</speed>
  <fix>3d</fix>
</trkpt>
<trkpt lat="40.0737936" lon="-105.2301204">
  <ele>1585.78</ele>
  <time>2026-08-28T19:08:30Z</time>
  <course>213.62</course>
  <speed>0.22</speed>
  <fix>3d</fix>
</trkpt>
<trkpt lat="40.0737937" lon="-105.2301206">
  <ele>1586.26</ele>
  <time>2026-08-28T19:08:30Z</time>
  <course>8.62</course>
  <speed>0.19235384061671343</speed>
  <fix>3d</fix>
</trkpt>
<trkpt lat="40.0737933" lon="-105.2301207">
  <ele>1586.74</ele>
  <time>2026-08-28T19:08:30Z</time>
  <course>8.91</course>
  <speed>0.1824828759089466</speed>
  <fix>3d</fix>
</trkpt>
<trkpt lat="40.0737933" lon="-105.2301206">
  <ele>1586.26</ele>
  <time>2026-08-28T19:08:30Z</time>
  <course>195.46</course>
  <speed>0.2</speed>
  <fix>3d</fix>
</trkpt>
<trkpt lat="40.0737933" lon="-105.2301207">
  <ele>1586.81</ele>
  <time>2026-08-28T19:08:30Z</time>
  <course>8.3</course>
  <speed>0.18110770276274835</speed>
  <fix>3d</fix>
</trkpt>
<trkpt lat="40.0737929" lon="-105.2301207">
  <ele>1587.23</ele>
  <time>2026-08-28T19:08:30Z</time>
  <course>5.94</course>
  <speed>0.18027756377319945</speed>
  <fix>3d</fix>
</trkpt>
<trkpt lat="40.0737929" lon="-105.2301207">
  <ele>1586.74</ele>
  <time>2026-08-28T19:08:30Z</time>
  <course>178.64</course>
  <speed>0.18</speed>
  <fix>3d</fix>
</trkpt>
<trkpt lat="40.0737929" lon="-105.2301207">
  <ele>1587.24</ele>
  <time>2026-08-28T19:08:30Z</time>
  <course>5.93</course>
  <speed>0.18027756377319945</speed>
  <fix>3d</fix>
</trkpt>
<trkpt lat="40.0737926" lon="-105.2301206">
  <ele>1587.74</ele>
  <time>2026-08-28T19:08:30Z</time>
  <course>6.83</course>
  <speed>0.17464249196572978</speed>
  <fix>3d</fix>
</trkpt>
<trkpt lat="40.0737926" lon="-105.2301205">
  <ele>1587.23</ele>
  <time>2026-08-28T19:08:30Z</time>
  <course>160.03</course>
  <speed>0.16</speed>
  <fix>3d</fix>
</trkpt>
<trkpt lat="40.0737925" lon="-105.2301206">
  <ele>1587.8</ele>
  <time>2026-08-28T19:08:30Z</time>
  <course>7.06</course>
  <speed>0.17</speed>
  <fix>3d</fix>
</trkpt>
<trkpt lat="40.0737923" lon="-105.2301204">
  <ele>1588.24</ele>
  <time>2026-08-28T19:08:30Z</time>
  <course>8.43</course>
  <speed>0.16278820596099705</speed>
  <fix>3d</fix>
</trkpt>
<trkpt lat="40.0737924" lon="-105.2301204">
  <ele>1587.73</ele>
  <time>2026-08-28T19:08:30Z</time>
  <course>134.17</course>
  <speed>0.15</speed>
  <fix>3d</fix>
</trkpt>
<trkpt lat="40.0737923" lon="-105.2301203">
  <ele>1588.3</ele>
  <time>2026-08-28T19:08:30Z</time>
  <course>8.61</course>
  <speed>0.16401219466856726</speed>
  <fix>3d</fix>
</trkpt>
<trkpt lat="40.0737922" lon="-105.23012">
  <ele>1588.74</ele>
  <time>2026-08-28T19:08:30Z</time>
  <course>9.67</course>
  <speed>0.1649242250247064</speed>
  <fix>3d</fix>
</trkpt>
<trkpt lat="40.0737923" lon="-105.2301201">
  <ele>1588.22</ele>
  <time>2026-08-28T19:08:30Z</time>
  <course>105.49</course>
  <speed>0.15</speed>
  <fix>3d</fix>
</trkpt>
<trkpt lat="40.0737922" lon="-105.23012">
  <ele>1588.75</ele>
  <time>2026-08-28T19:08:30Z</time>
  <course>9.68</course>
  <speed>0.1649242250247064</speed>
  <fix>3d</fix>
</trkpt>
<trkpt lat="40.0737923" lon="-105.2301196">
  <ele>1589.24</ele>
  <time>2026-08-28T19:08:30Z</time>
  <course>10.68</course>
  <speed>0.18110770276274835</speed>
  <fix>3d</fix>
</trkpt>
<trkpt lat="40.0737923" lon="-105.2301198">
  <ele>1588.72</ele>
  <time>2026-08-28T19:08:30Z</time>
  <course>82.44</course>
  <speed>0.18</speed>
  <fix>3d</fix>
</trkpt>
<trkpt lat="40.0737923" lon="-105.2301195">
  <ele>1589.3</ele>
  <time>2026-08-28T19:08:30Z</time>
  <course>10.8</course>
  <speed>0.1824828759089466</speed>
  <fix>3d</fix>
</trkpt>
<trkpt lat="40.0737925" lon="-105.2301191">
  <ele>1589.74</ele>
  <time>2026-08-28T19:08:30Z</time>
  <course>11.53</course>
  <speed>0.19697715603592209</speed>
  <fix>3d</fix>
</trkpt>
<trkpt lat="40.0737923" lon="-105.2301193">
  <ele>1589.22</ele>
  <time>2026-08-28T19:08:30Z</time>
  <course>65.94</course>
  <speed>0.21</speed>
  <fix>3d</fix>
</trkpt>
<trkpt lat="40.0737925" lon="-105.2301191">
  <ele>1589.75</ele>
  <time>2026-08-28T19:08:30Z</time>
  <course>11.54</course>
  <speed>0.19697715603592209</speed>
  <fix>3d</fix>
</trkpt>
<trkpt lat="40.0737927" lon="-105.2301187">
  <ele>1590.24</ele>
  <time>2026-08-28T19:08:30Z</time>
  <course>12.27</course>
  <speed>0.20615528128088303</speed>
  <fix>3d</fix>
</trkpt>
<trkpt lat="40.0737924" lon="-105.2301188">
  <ele>1589.71</ele>
  <time>2026-08-28T19:08:30Z</time>
  <course>53.74</course>
  <speed>0.22</speed>
  <fix>3d</fix>
</trkpt>
<trkpt lat="40.0737927" lon="-105.2301186">
  <ele>1590.3</ele>
  <time>2026-08-28T19:08:30Z</time>
  <course>12.36</course>
  <speed>0.20615528128088303</speed>
  <fix>3d</fix>
</trkpt>
<trkpt lat="40.0737929" lon="-105.2301183">
  <ele>1590.74</ele>
  <time>2026-08-28T19:08:30Z</time>
  <course>12.93</course>
  <speed>0.212602916254693</speed>
  <fix>3d</fix>
</trkpt>
<trkpt lat="40.0737927" lon="-105.2301185">
  <ele>1590.21</ele>
  <time>2026-08-28T19:08:30Z</time>
  <course>44.19</course>
  <speed>0.23</speed>
  <fix>3d</fix>
</trkpt>
<trkpt lat="40.073793" lon="-105.2301183">
  <ele>1590.8</ele>
  <time>2026-08-28T19:08:30Z</time>
  <course>13.01</course>
  <speed>0.20615528128088303</speed>
  <fix>3d</fix>
</trkpt>
<trkpt lat="40.0737933" lon="-105.230118">
  <ele>1591.24</ele>
  <time>2026-08-28T19:08:30Z</time>
  <course>13.5</course>
  <speed>0.20248456731316586</speed>
  <fix>3d</fix>
</trkpt>
<trkpt lat="40.0737931" lon="-105.2301181">
  <ele>1590.7</ele>
  <time>2026-08-28T19:08:30Z</time>
  <course>36.41</course>
  <speed>0.23</speed>
  <fix>3d</fix>
</trkpt>
<trkpt lat="40.0737933" lon="-105.230118">
  <ele>1591.24</ele>
  <time>2026-08-28T19:08:30Z</time>
  <course>13.51</course>
  <speed>0.20248456731316586</speed>
  <fix>3d</fix>
</trkpt>
<trkpt lat="40.0737936" lon="-105.2301177">
  <ele>1591.73</ele>
  <time>2026-08-28T19:08:30Z</time>
  <course>14.02</course>
  <speed>0.20124611797498107</speed>
  <fix>3d</fix>
</trkpt>
<trkpt lat="40.0737934" lon="-105.2301178">
  <ele>1591.2</ele>
  <time>2026-08-28T19:08:30Z</time>
  <course>30.01</course>
  <speed>0.22</speed>
  <fix>3d</fix>
</trkpt>
<trkpt lat="40.0737937" lon="-105.2301177">
  <ele>1591.81</ele>
  <time>2026-08-28T19:08:30Z</time>
  <course>14.09</course>
  <speed>0.19697715603592209</speed>
  <fix>3d</fix>
</trkpt>
<trkpt lat="40.073794" lon="-105.2301175">
  <ele>1592.24</ele>
  <time>2026-08-28T19:08:30Z</time>
  <course>14.48</course>
  <speed>0.18973665961010278</speed>
  <fix>3d</fix>
</trkpt>
<trkpt lat="40.0737938" lon="-105.2301176">
  <ele>1591.69</ele>
  <time>2026-08-28T19:08:30Z</time>
  <course>24.64</course>
  <speed>0.21</speed>
  <fix>3d</fix>
</trkpt>
<trkpt lat="40.073794" lon="-105.2301175">
  <ele>1592.32</ele>
  <time>2026-08-28T19:08:30Z</time>
  <course>14.56</course>
  <speed>0.18973665961010278</speed>
  <fix>3d</fix>
</trkpt>
<trkpt lat="40.0737943" lon="-105.2301174">
  <ele>1592.73</ele>
  <time>2026-08-28T19:08:30Z</time>
  <course>14.94</course>
  <speed>0.17464249196572978</speed>
  <fix>3d</fix>
</trkpt>
<trkpt lat="40.0737941" lon="-105.2301173">
  <ele>1592.19</ele>
  <time>2026-08-28T19:08:30Z</time>
  <course>19.84</course>
  <speed>0.2</speed>
  <fix>3d</fix>
</trkpt>
<trkpt lat="40.0737944" lon="-105.2301174">
  <ele>1592.8</ele>
  <time>2026-08-28T19:08:30Z</time>
  <course>15.0</course>
  <speed>0.17464249196572978</speed>
  <fix>3d</fix>
</trkpt>
<trkpt lat="40.0737946" lon="-105.2301173">
  <ele>1593.23</ele>
  <time>2026-08-28T19:08:30Z</time>
  <course>15.35</course>
  <speed>0.16124515496597097</speed>
  <fix>3d</fix>
</trkpt>
<trkpt lat="40.0737944" lon="-105.2301172">
  <ele>1592.69</ele>
  <time>2026-08-28T19:08:30Z</time>
  <course>15.26</course>
  <speed>0.18</speed>
  <fix>3d</fix>
</trkpt>
<trkpt lat="40.0737947" lon="-105.2301173">
  <ele>1593.31</ele>
  <time>2026-08-28T19:08:30Z</time>
  <course>15.4</course>
  <speed>0.16124515496597097</speed>
  <fix>3d</fix>
</trkpt>
<trkpt lat="40.0737949" lon="-105.2301172">
  <ele>1593.74</ele>
  <time>2026-08-28T19:08:30Z</time>
  <course>15.74</course>
  <speed>0.14</speed>
  <fix>3d</fix>
</trkpt>
<trkpt lat="40.0737947" lon="-105.2301172">
  <ele>1593.19</ele>
  <time>2026-08-28T19:08:30Z</time>
  <course>10.68</course>
  <speed>0.16</speed>
  <fix>3d</fix>
</trkpt>
<trkpt lat="40.0737949" lon="-105.2301172">
  <ele>1593.74</ele>
  <time>2026-08-28T19:08:30Z</time>
  <course>15.74</course>
  <speed>0.14</speed>
  <fix>3d</fix>
</trkpt>
<trkpt lat="40.0737951" lon="-105.2301172">
  <ele>1594.24</ele>
  <time>2026-08-28T19:08:30Z</time>
  <course>16.12</course>
  <speed>0.12041594578792296</speed>
  <fix>3d</fix>
</trkpt>
<trkpt lat="40.0737949" lon="-105.2301171">
  <ele>1593.68</ele>
  <time>2026-08-28T19:08:30Z</time>
  <course>5.99</course>
  <speed>0.13</speed>
  <fix>3d</fix>
</trkpt>
<trkpt lat="40.0737952" lon="-105.2301172">
  <ele>1594.3</ele>
  <time>2026-08-28T19:08:30Z</time>
  <course>16.16</course>
  <speed>0.11045361017187261</speed>
  <fix>3d</fix>
</trkpt>
<trkpt lat="40.0737953" lon="-105.2301172">
  <ele>1594.74</ele>
  <time>2026-08-28T19:08:31Z</time>
  <course>16.49</course>
  <speed>0.09219544457292887</speed>
  <fix>3d</fix>
</trkpt>
<trkpt lat="40.0737952" lon="-105.2301171">
  <ele>1594.18</ele>
  <time>2026-08-28T19:08:31Z</time>
  <course>0.87</course>
  <speed>0.11</speed>
  <fix>3d</fix>
</trkpt>
<trkpt lat="40.0737954" lon="-105.2301172">
  <ele>1594.83</ele>
  <time>2026-08-28T19:08:31Z</time>
  <course>16.54</course>
  <speed>0.09219544457292887</speed>
  <fix>3d</fix>
</trkpt>
<trkpt lat="40.0737955" lon="-105.2301172">
  <ele>1595.25</ele>
  <time>2026-08-28T19:08:31Z</time>
  <course>16.8</course>
  <speed>0.07615773105863909</speed>
  <fix>3d</fix>
</trkpt>
<trkpt lat="40.0737954" lon="-105.2301171">
  <ele>1594.68</ele>
  <time>2026-08-28T19:08:31Z</time>
  <course>354.46</course>
  <speed>0.08</speed>
  <fix>3d</fix>
</trkpt>
<trkpt lat="40.0737955" lon="-105.2301172">
  <ele>1595.25</ele>
  <time>2026-08-28T19:08:31Z</time>
  <course>16.81</course>
  <speed>0.07615773105863909</speed>
  <fix>3d</fix>
</trkpt>
<trkpt lat="40.0737956" lon="-105.2301172">
  <ele>1595.75</ele>
  <time>2026-08-28T19:08:31Z</time>
  <course>17.12</course>
  <speed>0.0565685424949238</speed>
  <fix>3d</fix>
</trkpt>
<trkpt lat="40.0737955" lon="-105.2301171">
  <ele>1595.17</ele>
  <time>2026-08-28T19:08:31Z</time>
  <course>345.03</course>
  <speed>0.06</speed>
  <fix>3d</fix>
</trkpt>
<trkpt lat="40.0737956" lon="-105.2301172">
  <ele>1595.82</ele>
  <time>2026-08-28T19:08:31Z</time>
  <course>17.15</course>
  <speed>0.0565685424949238</speed>
  <fix>3d</fix>
</trkpt>
<trkpt lat="40.0737956" lon="-105.2301173">
  <ele>1596.25</ele>
  <time>2026-08-28T19:08:31Z</time>
  <course>17.43</course>
  <speed>0.044721359549995794</speed>
  <fix>3d</fix>
</trkpt>
<trkpt lat="40.0737956" lon="-105.2301172">
  <ele>1595.67</ele>
  <time>2026-08-28T19:08:31Z</time>
  <course>328.57</course>
  <speed>0.04</speed>
  <fix>3d</fix>
</trkpt>
<trkpt lat="40.0737956" lon="-105.2301173">
  <ele>1596.26</ele>
  <time>2026-08-28T19:08:31Z</time>
  <course>17.43</course>
  <speed>0.044721359549995794</speed>
  <fix>3d</fix>
</trkpt>
<trkpt lat="40.0737956" lon="-105.2301174">
  <ele>1596.75</ele>
  <time>2026-08-28T19:08:31Z</time>
  <course>17.69</course>
  <speed>0.04</speed>
  <fix>3d</fix>
</trkpt>
<trkpt lat="40.0737957" lon="-105.2301172">
  <ele>1596.16</ele>
  <time>2026-08-28T19:08:31Z</time>
  <course>296.18</course>
  <speed>0.02</speed>
  <fix>3d</fix>
</trkpt>
<trkpt lat="40.0737956" lon="-105.2301174">
  <ele>1596.81</ele>
  <time>2026-08-28T19:08:31Z</time>
  <course>17.72</course>
  <speed>0.04</speed>
  <fix>3d</fix>
</trkpt>
<trkpt lat="40.0737956" lon="-105.2301174">
  <ele>1597.25</ele>
  <time>2026-08-28T19:08:31Z</time>
  <course>17.95</course>
  <speed>0.0412310562561766</speed>
  <fix>3d</fix>
</trkpt>
<trkpt lat="40.0737957" lon="-105.2301172">
  <ele>1596.65</ele>
  <time>2026-08-28T19:08:31Z</time>
  <course>250.5</course>
  <speed>0.02</speed>
  <fix>3d</fix>
</trkpt>
<trkpt lat="40.0737956" lon="-105.2301174">
  <ele>1597.27</ele>
  <time>2026-08-28T19:08:31Z</time>
  <course>17.97</course>
  <speed>0.0412310562561766</speed>
  <fix>3d</fix>
</trkpt>
<trkpt lat="40.0737956" lon="-105.2301175">
  <ele>1597.74</ele>
  <time>2026-08-28T19:08:31Z</time>
  <course>18.21</course>
  <speed>0.044721359549995794</speed>
  <fix>3d</fix>
</trkpt>
<trkpt lat="40.0737956" lon="-105.2301172">
  <ele>1597.14</ele>
  <time>2026-08-28T19:08:31Z</time>
  <course>222.95</course>
  <speed>0.03</speed>
  <fix>3d</fix>
</trkpt>
<trkpt lat="40.0737956" lon="-105.2301175">
  <ele>1597.8</ele>
  <time>2026-08-28T19:08:31Z</time>
  <course>18.23</course>
  <speed>0.044721359549995794</speed>
  <fix>3d</fix>
</trkpt>
<trkpt lat="40.0737956" lon="-105.2301175">
  <ele>1598.23</ele>
  <time>2026-08-28T19:08:31Z</time>
  <course>18.43</course>
  <speed>0.05</speed>
  <fix>3d</fix>
</trkpt>
<trkpt lat="40.0737955" lon="-105.2301173">
  <ele>1597.64</ele>
  <time>2026-08-28T19:08:31Z</time>
  <course>209.93</course>
  <speed>0.04</speed>
  <fix>3d</fix>
</trkpt>
<trkpt lat="40.0737956" lon="-105.2301175">
  <ele>1598.3</ele>
  <time>2026-08-28T19:08:31Z</time>
  <course>18.46</course>
  <speed>0.0565685424949238</speed>
  <fix>3d</fix>
</trkpt>
<trkpt lat="40.0737955" lon="-105.2301176">
  <ele>1598.72</ele>
  <time>2026-08-28T19:08:31Z</time>
  <course>18.65</course>
  <speed>0.0565685424949238</speed>
  <fix>3d</fix>
</trkpt>
<trkpt lat="40.0737955" lon="-105.2301174">
  <ele>1598.13</ele>
  <time>2026-08-28T19:08:31Z</time>
  <course>203.07</course>
  <speed>0.05</speed>
  <fix>3d</fix>
</trkpt>
<trkpt lat="40.0737955" lon="-105.2301176">
  <ele>1598.73</ele>
  <time>2026-08-28T19:08:31Z</time>
  <course>18.65</course>
  <speed>0.0565685424949238</speed>
  <fix>3d</fix>
</trkpt>
<trkpt lat="40.0737954" lon="-105.2301176">
  <ele>1599.22</ele>
  <time>2026-08-28T19:08:31Z</time>
  <course>18.83</course>
  <speed>0.06403124237432849</speed>
  <fix>3d</fix>
</trkpt>
<trkpt lat="40.0737955" lon="-105.2301174">
  <ele>1598.63</ele>
  <time>2026-08-28T19:08:31Z</time>
  <course>199.37</course>
  <speed>0.06</speed>
  <fix>3d</fix>
</trkpt>
<trkpt lat="40.0737954" lon="-105.2301176">
  <ele>1599.29</ele>
  <time>2026-08-28T19:08:31Z</time>
  <course>18.86</course>
  <speed>0.06403124237432849</speed>
  <fix>3d</fix>
</trkpt>
<trkpt lat="40.0737953" lon="-105.2301177">
  <ele>1599.72</ele>
  <time>2026-08-28T19:08:31Z</time>
  <course>19.06</course>
  <speed>0.06403124237432849</speed>
  <fix>3d</fix>
</trkpt>
<trkpt lat="40.0737953" lon="-105.2301174">
  <ele>1599.13</ele>
  <time>2026-08-28T19:08:31Z</time>
  <course>197.06</course>
  <speed>0.07</speed>
  <fix>3d</fix>
</trkpt>
<trkpt lat="40.0737953" lon="-105.2301177">
  <ele>1599.79</ele>
  <time>2026-08-28T19:08:31Z</time>
  <course>19.08</course>
  <speed>0.05830951894845301</speed>
  <fix>3d</fix>
</trkpt>
<trkpt lat="40.0737952" lon="-105.2301177">
  <ele>1600.22</ele>
  <time>2026-08-28T19:08:31Z</time>
  <course>19.29</course>
  <speed>0.05830951894845301</speed>
  <fix>3d</fix>
</trkpt>
<trkpt lat="40.0737952" lon="-105.2301175">
  <ele>1599.63</ele>
  <time>2026-08-28T19:08:31Z</time>
  <course>195.32</course>
  <speed>0.07</speed>
  <fix>3d</fix>
</trkpt>
<trkpt lat="40.0737952" lon="-105.2301177">
  <ele>1600.29</ele>
  <time>2026-08-28T19:08:31Z</time>
  <course>19.33</course>
  <speed>0.05830951894845301</speed>
  <fix>3d</fix>
</trkpt>
<trkpt lat="40.0737951" lon="-105.2301177">
  <ele>1600.73</ele>
  <time>2026-08-28T19:08:31Z</time>
  <course>19.54</course>
  <speed>0.05830951894845301</speed>
  <fix>3d</fix>
</trkpt>
<trkpt lat="40.0737951" lon="-105.2301176">
  <ele>1600.13</ele>
  <time>2026-08-28T19:08:31Z</time>
  <course>193.83</course>
  <speed>0.07</speed>
  <fix>3d</fix>
</trkpt>
<trkpt lat="40.073795" lon="-105.2301177">
  <ele>1600.79</ele>
  <time>2026-08-28T19:08:31Z</time>
  <course>19.57</course>
  <speed>0.05830951894845301</speed>
  <fix>3d</fix>
</trkpt>
<trkpt lat="40.0737949" lon="-105.2301177">
  <ele>1601.22</ele>
  <time>2026-08-28T19:08:31Z</time>
  <course>19.76</course>
  <speed>0.05830951894845301</speed>
  <fix>3d</fix>
</trkpt>
<trkpt lat="40.0737949" lon="-105.2301176">
  <ele>1600.62</ele>
  <time>2026-08-28T19:08:31Z</time>
  <course>192.69</course>
  <speed>0.07</speed>
  <fix>3d</fix>
</trkpt>
<trkpt lat="40.0737949" lon="-105.2301177">
  <ele>1601.23</ele>
  <time>2026-08-28T19:08:31Z</time>
  <course>19.76</course>
  <speed>0.05830951894845301</speed>
  <fix>3d</fix>
</trkpt>
<trkpt lat="40.0737948" lon="-105.2301178">
  <ele>1601.72</ele>
  <time>2026-08-28T19:08:31Z</time>
  <course>19.98</course>
  <speed>0.044721359549995794</speed>
  <fix>3d</fix>
</trkpt>
<trkpt lat="40.0737948" lon="-105.2301176">
  <ele>1601.12</ele>
  <time>2026-08-28T19:08:31Z</time>
  <course>192.03</course>
  <speed>0.06</speed>
  <fix>3d</fix>
</trkpt>
<trkpt lat="40.0737948" lon="-105.2301178">
  <ele>1601.78</ele>
  <time>2026-08-28T19:08:31Z</time>
  <course>20.01</course>
  <speed>0.044721359549995794</speed>
  <fix>3d</fix>
</trkpt>
<trkpt lat="40.0737947" lon="-105.2301178">
  <ele>1602.22</ele>
  <time>2026-08-28T19:08:31Z</time>
  <course>20.17</course>
  <speed>0.03605551275463989</speed>
  <fix>3d</fix>
</trkpt>
<trkpt lat="40.0737947" lon="-105.2301176">
  <ele>1601.62</ele>
  <time>2026-08-28T19:08:31Z</time>
  <course>191.33</course>
  <speed>0.06</speed>
  <fix>3d</fix>
</trkpt>
<trkpt lat="40.0737947" lon="-105.2301178">
  <ele>1602.27</ele>
  <time>2026-08-28T19:08:31Z</time>
  <course>20.19</course>
  <speed>0.03605551275463989</speed>
  <fix>3d</fix>
</trkpt>
<trkpt lat="40.0737946" lon="-105.2301178">
  <ele>1602.72</ele>
  <time>2026-08-28T19:08:31Z</time>
  <course>20.34</course>
  <speed>0.03605551275463989</speed>
  <fix>3d</fix>
</trkpt>
<trkpt lat="40.0737946" lon="-105.2301176">
  <ele>1602.12</ele>
  <time>2026-08-28T19:08:31Z</time>
  <course>190.31</course>
  <speed>0.05</speed>
  <fix>3d</fix>
</trkpt>
<trkpt lat="40.0737946" lon="-105.2301178">
  <ele>1602.78</ele>
  <time>2026-08-28T19:08:31Z</time>
  <course>20.36</course>
  <speed>0.0282842712474619</speed>
  <fix>3d</fix>
</trkpt>
<trkpt lat="40.0737946" lon="-105.2301178">
  <ele>1603.21</ele>
  <time>2026-08-28T19:08:31Z</time>
  <course>20.5</course>
  <speed>0.0282842712474619</speed>
  <fix>3d</fix>
</trkpt>
<trkpt lat="40.0737945" lon="-105.2301177">
  <ele>1602.62</ele>
  <time>2026-08-28T19:08:31Z</time>
  <course>189.71</course>
  <speed>0.04</speed>
  <fix>3d</fix>
</trkpt>
<trkpt lat="40.0737946" lon="-105.2301178">
  <ele>1603.27</ele>
  <time>2026-08-28T19:08:31Z</time>
  <course>20.52</course>
  <speed>0.022360679774997897</speed>
  <fix>3d</fix>
</trkpt>
<trkpt lat="40.0737945" lon="-105.2301178">
  <ele>1603.7</ele>
  <time>2026-08-28T19:08:31Z</time>
  <course>20.63</course>
  <speed>0.01414213562373095</speed>
  <fix>3d</fix>
</trkpt>
<trkpt lat="40.0737944" lon="-105.2301178">
  <ele>1603.12</ele>
  <time>2026-08-28T19:08:31Z</time>
  <course>190.2</course>
  <speed>0.03</speed>
  <fix>3d</fix>
</trkpt>
<trkpt lat="40.0737945" lon="-105.2301178">
  <ele>1603.76</ele>
  <time>2026-08-28T19:08:31Z</time>
  <course>20.66</course>
  <speed>0.01414213562373095</speed>
  <fix>3d</fix>
</trkpt>
<trkpt lat="40.0737945" lon="-105.2301178">
  <ele>1604.2</ele>
  <time>2026-08-28T19:08:31Z</time>
  <course>20.78</course>
  <speed>0.01</speed>
  <fix>3d</fix>
</trkpt>
<trkpt lat="40.0737944" lon="-105.2301178">
  <ele>1603.62</ele>
  <time>2026-08-28T19:08:31Z</time>
  <course>191.73</course>
  <speed>0.03</speed>
  <fix>3d</fix>
</trkpt>
<trkpt lat="40.0737945" lon="-105.2301178">
  <ele>1604.2</ele>
  <time>2026-08-28T19:08:31Z</time>
  <course>20.78</course>
  <speed>0.01</speed>
  <fix>3d</fix>
</trkpt>
<trkpt lat="40.0737944" lon="-105.2301178">
  <ele>1604.7</ele>
  <time>2026-08-28T19:08:31Z</time>
  <course>20.91</course>
  <speed>0.01</speed>
  <fix>3d</fix>
</trkpt>
<trkpt lat="40.0737944" lon="-105.2301178">
  <ele>1604.12</ele>
  <time>2026-08-28T19:08:31Z</time>
  <course>194.5</course>
  <speed>0.02</speed>
  <fix>3d</fix>
</trkpt>
<trkpt lat="40.0737944" lon="-105.2301178">
  <ele>1604.76</ele>
  <time>2026-08-28T19:08:31Z</time>
  <course>20.93</course>
  <speed>0.01</speed>
  <fix>3d</fix>
</trkpt>
<trkpt lat="40.0737944" lon="-105.2301179">
  <ele>1605.19</ele>
  <time>2026-08-28T19:08:31Z</time>
  <course>21.07</course>
  <speed>0.01414213562373095</speed>
  <fix>3d</fix>
</trkpt>
<trkpt lat="40.0737943" lon="-105.2301178">
  <ele>1604.62</ele>
  <time>2026-08-28T19:08:31Z</time>
  <course>200.84</course>
  <speed>0.01</speed>
  <fix>3d</fix>
</trkpt>
<trkpt lat="40.0737944" lon="-105.2301179">
  <ele>1605.26</ele>
  <time>2026-08-28T19:08:31Z</time>
  <course>21.08</course>
  <speed>0.01414213562373095</speed>
  <fix>3d</fix>
</trkpt>
<trkpt lat="40.0737944" lon="-105.2301179">
  <ele>1605.7</ele>
  <time>2026-08-28T19:08:31Z</time>
  <course>21.21</course>
  <speed>0.022360679774997897</speed>
  <fix>3d</fix>
</trkpt>
<trkpt lat="40.0737942" lon="-105.2301178">
  <ele>1605.13</ele>
  <time>2026-08-28T19:08:31Z</time>
  <course>217.85</course>
  <speed>0.0</speed>
  <fix>3d</fix>
</trkpt>
<trkpt lat="40.0737944" lon="-105.2301179">
  <ele>1605.76</ele>
  <time>2026-08-28T19:08:31Z</time>
  <course>21.23</course>
  <speed>0.022360679774997897</speed>
  <fix>3d</fix>
</trkpt>
<trkpt lat="40.0737944" lon="-105.2301179">
  <ele>1606.2</ele>
  <time>2026-08-28T19:08:31Z</time>
  <course>21.34</course>
  <speed>0.022360679774997897</speed>
  <fix>3d</fix>
</trkpt>
<trkpt lat="40.0737942" lon="-105.2301178">
  <ele>1605.64</ele>
  <time>2026-08-28T19:08:31Z</time>
  <course>270.75</course>
  <speed>0.0</speed>
  <fix>3d</fix>
</trkpt>
<trkpt lat="40.0737944" lon="-105.2301179">
  <ele>1606.21</ele>
  <time>2026-08-28T19:08:31Z</time>
  <course>21.35</course>
  <speed>0.022360679774997897</speed>
  <fix>3d</fix>
</trkpt>
<trkpt lat="40.0737944" lon="-105.2301179">
  <ele>1606.71</ele>
  <time>2026-08-28T19:08:31Z</time>
  <course>21.5</course>
  <speed>0.0316227766016838</speed>
  <fix>3d</fix>
</trkpt>
<trkpt lat="40.0737942" lon="-105.2301178">
  <ele>1606.14</ele>
  <time>2026-08-28T19:08:31Z</time>
  <course>339.07</course>
  <speed>0.0</speed>
  <fix>3d</fix>
</trkpt>
<trkpt lat="40.0737944" lon="-105.2301179">
  <ele>1606.77</ele>
  <time>2026-08-28T19:08:31Z</time>
  <course>21.52</course>
  <speed>0.0316227766016838</speed>
  <fix>3d</fix>
</trkpt>
<trkpt lat="40.0737944" lon="-105.2301179">
  <ele>1607.21</ele>
  <time>2026-08-28T19:08:31Z</time>
  <course>21.62</course>
  <speed>0.0316227766016838</speed>
  <fix>3d</fix>
</trkpt>
<trkpt lat="40.0737942" lon="-105.2301178">
  <ele>1606.65</ele>
  <time>2026-08-28T19:08:31Z</time>
  <course>359.52</course>
  <speed>0.0</speed>
  <fix>3d</fix>
</trkpt>
<trkpt lat="40.0737944" lon="-105.2301179">
  <ele>1607.28</ele>
  <time>2026-08-28T19:08:31Z</time>
  <course>21.64</course>
  <speed>0.0316227766016838</speed>
  <fix>3d</fix>
</trkpt>
<trkpt lat="40.0737944" lon="-105.2301179">
  <ele>1607.71</ele>
  <time>2026-08-28T19:08:31Z</time>
  <course>21.76</course>
  <speed>0.03</speed>
  <fix>3d</fix>
</trkpt>
<trkpt lat="40.0737942" lon="-105.2301178">
  <ele>1607.15</ele>
  <time>2026-08-28T19:08:31Z</time>
  <course>9.79</course>
  <speed>0.01</speed>
  <fix>3d</fix>
</trkpt>
<trkpt lat="40.0737944" lon="-105.2301179">
  <ele>1607.78</ele>
  <time>2026-08-28T19:08:31Z</time>
  <course>21.78</course>
  <speed>0.03</speed>
  <fix>3d</fix>
</trkpt>
<trkpt lat="40.0737944" lon="-105.2301179">
  <ele>1608.22</ele>
  <time>2026-08-28T19:08:31Z</time>
  <course>21.87</course>
  <speed>0.03</speed>
  <fix>3d</fix>
</trkpt>
<trkpt lat="40.0737942" lon="-105.2301178">
  <ele>1607.66</ele>
  <time>2026-08-28T19:08:31Z</time>
  <course>15.27</course>
  <speed>0.01</speed>
  <fix>3d</fix>
</trkpt>
<trkpt lat="40.0737944" lon="-105.2301179">
  <ele>1608.28</ele>
  <time>2026-08-28T19:08:31Z</time>
  <course>21.88</course>
  <speed>0.03</speed>
  <fix>3d</fix>
</trkpt>
<trkpt lat="40.0737944" lon="-105.2301179">
  <ele>1608.72</ele>
  <time>2026-08-28T19:08:31Z</time>
  <course>21.97</course>
  <speed>0.03</speed>
  <fix>3d</fix>
</trkpt>
<trkpt lat="40.0737942" lon="-105.2301178">
  <ele>1608.16</ele>
  <time>2026-08-28T19:08:31Z</time>
  <course>17.49</course>
  <speed>0.01</speed>
  <fix>3d</fix>
</trkpt>
<trkpt lat="40.0737944" lon="-105.2301179">
  <ele>1608.78</ele>
  <time>2026-08-28T19:08:31Z</time>
  <course>21.99</course>
  <speed>0.03</speed>
  <fix>3d</fix>
</trkpt>
<trkpt lat="40.0737944" lon="-105.2301179">
  <ele>1609.22</ele>
  <time>2026-08-28T19:08:31Z</time>
  <course>22.12</course>
  <speed>0.03</speed>
  <fix>3d</fix>
</trkpt>
<trkpt lat="40.0737942" lon="-105.2301178">
  <ele>1608.66</ele>
  <time>2026-08-28T19:08:31Z</time>
  <course>18.98</course>
  <speed>0.01</speed>
  <fix>3d</fix>
</trkpt>
<trkpt lat="40.0737944" lon="-105.2301179">
  <ele>1609.23</ele>
  <time>2026-08-28T19:08:31Z</time>
  <course>22.12</course>
  <speed>0.03</speed>
  <fix>3d</fix>
</trkpt>
<trkpt lat="40.0737945" lon="-105.2301179">
  <ele>1609.73</ele>
  <time>2026-08-28T19:08:31Z</time>
  <course>22.23</course>
  <speed>0.03</speed>
  <fix>3d</fix>
</trkpt>
<trkpt lat="40.0737943" lon="-105.2301178">
  <ele>1609.17</ele>
  <time>2026-08-28T19:08:31Z</time>
  <course>22.69</course>
  <speed>0.01</speed>
  <fix>3d</fix>
</trkpt>
<trkpt lat="40.0737945" lon="-105.2301179">
  <ele>1609.79</ele>
  <time>2026-08-28T19:08:31Z</time>
  <course>22.24</course>
  <speed>0.03</speed>
  <fix>3d</fix>
</trkpt>
<trkpt lat="40.0737945" lon="-105.2301179">
  <ele>1610.23</ele>
  <time>2026-08-28T19:08:31Z</time>
  <course>22.34</course>
  <speed>0.03</speed>
  <fix>3d</fix>
</trkpt>
<trkpt lat="40.0737944" lon="-105.2301178">
  <ele>1609.67</ele>
  <time>2026-08-28T19:08:31Z</time>
  <course>26.71</course>
  <speed>0.01</speed>
  <fix>3d</fix>
</trkpt>
<trkpt lat="40.0737945" lon="-105.2301179">
  <ele>1610.29</ele>
  <time>2026-08-28T19:08:31Z</time>
  <course>22.35</course>
  <speed>0.03</speed>
  <fix>3d</fix>
</trkpt>
<trkpt lat="40.0737945" lon="-105.2301179">
  <ele>1610.74</ele>
  <time>2026-08-28T19:08:31Z</time>
  <course>22.44</course>
  <speed>0.03</speed>
  <fix>3d</fix>
</trkpt>
<trkpt lat="40.0737944" lon="-105.2301178">
  <ele>1610.17</ele>
  <time>2026-08-28T19:08:31Z</time>
  <course>29.57</course>
  <speed>0.01</speed>
  <fix>3d</fix>
</trkpt>
<trkpt lat="40.0737945" lon="-105.2301179">
  <ele>1610.8</ele>
  <time>2026-08-28T19:08:31Z</time>
  <course>22.45</course>
  <speed>0.03</speed>
  <fix>3d</fix>
</trkpt>
<trkpt lat="40.0737945" lon="-105.2301179">
  <ele>1611.24</ele>
  <time>2026-08-28T19:08:31Z</time>
  <course>22.53</course>
  <speed>0.03</speed>
  <fix>3d</fix>
</trkpt>
<trkpt lat="40.0737944" lon="-105.2301178">
  <ele>1610.67</ele>
  <time>2026-08-28T19:08:31Z</time>
  <course>31.77</course>
  <speed>0.01</speed>
  <fix>3d</fix>
</trkpt>
<trkpt lat="40.0737945" lon="-105.2301179">
  <ele>1611.3</ele>
  <time>2026-08-28T19:08:31Z</time>
  <course>22.54</course>
  <speed>0.03</speed>
  <fix>3d</fix>
</trkpt>
<trkpt lat="40.0737946" lon="-105.2301179">
  <ele>1611.74</ele>
  <time>2026-08-28T19:08:31Z</time>
  <course>22.62</course>
  <speed>0.03</speed>
  <fix>3d</fix>
</trkpt>
<trkpt lat="40.0737945" lon="-105.2301178">
  <ele>1611.17</ele>
  <time>2026-08-28T19:08:31Z</time>
  <course>32.88</course>
  <speed>0.01</speed>
  <fix>3d</fix>
</trkpt>
<trkpt lat="40.0737946" lon="-105.2301179">
  <ele>1611.75</ele>
  <time>2026-08-28T19:08:31Z</time>
  <course>22.62</course>
  <speed>0.03</speed>
  <fix>3d</fix>
</trkpt>
<trkpt lat="40.0737946" lon="-105.2301179">
  <ele>1612.24</ele>
  <time>2026-08-28T19:08:31Z</time>
  <course>22.7</course>
  <speed>0.03</speed>
  <fix>3d</fix>
</trkpt>
<trkpt lat="40.0737945" lon="-105.2301178">
  <ele>1611.67</ele>
  <time>2026-08-28T19:08:31Z</time>
  <course>34.99</course>
  <speed>0.01</speed>
  <fix>3d</fix>
</trkpt>
<trkpt lat="40.0737946" lon="-105.2301179">
  <ele>1612.31</ele>
  <time>2026-08-28T19:08:31Z</time>
  <course>22.71</course>
  <speed>0.03</speed>
  <fix>3d</fix>
</trkpt>
<trkpt lat="40.0737946" lon="-105.2301179">
  <ele>1612.74</ele>
  <time>2026-08-28T19:08:31Z</time>
  <course>22.76</course>
  <speed>0.0316227766016838</speed>
  <fix>3d</fix>
</trkpt>
<trkpt lat="40.0737945" lon="-105.2301178">
  <ele>1612.16</ele>
  <time>2026-08-28T19:08:31Z</time>
  <course>42.46</course>
  <speed>0.01</speed>
  <fix>3d</fix>
</trkpt>
<trkpt lat="40.0737946" lon="-105.2301179">
  <ele>1612.79</ele>
  <time>2026-08-28T19:08:31Z</time>
  <course>22.78</course>
  <speed>0.02</speed>
  <fix>3d</fix>
</trkpt>
<trkpt lat="40.0737946" lon="-105.2301179">
  <ele>1613.23</ele>
  <time>2026-08-28T19:08:31Z</time>
  <course>22.82</course>
  <speed>0.02</speed>
  <fix>3d</fix>
</trkpt>
<trkpt lat="40.0737945" lon="-105.2301177">
  <ele>1612.66</ele>
  <time>2026-08-28T19:08:31Z</time>
  <course>59.63</course>
  <speed>0.0</speed>
  <fix>3d</fix>
</trkpt>
<trkpt lat="40.0737946" lon="-105.2301179">
  <ele>1613.3</ele>
  <time>2026-08-28T19:08:31Z</time>
  <course>22.83</course>
  <speed>0.022360679774997897</speed>
  <fix>3d</fix>
</trkpt>
<trkpt lat="40.0737946" lon="-105.2301179">
  <ele>1613.74</ele>
  <time>2026-08-28T19:08:31Z</time>
  <course>22.89</course>
  <speed>0.022360679774997897</speed>
  <fix>3d</fix>
</trkpt>
<trkpt lat="40.0737945" lon="-105.2301176">
  <ele>1613.16</ele>
  <time>2026-08-28T19:08:31Z</time>
  <course>84.36</course>
  <speed>0.0</speed>
  <fix>3d</fix>
</trkpt>
<trkpt lat="40.0737946" lon="-105.2301179">
  <ele>1613.74</ele>
  <time>2026-08-28T19:08:31Z</time>
  <course>22.89</course>
  <speed>0.022360679774997897</speed>
  <fix>3d</fix>
</trkpt>
<trkpt lat="40.0737946" lon="-105.2301179">
  <ele>1614.24</ele>
  <time>2026-08-28T19:08:31Z</time>
  <course>22.98</course>
  <speed>0.01414213562373095</speed>
  <fix>3d</fix>
</trkpt>
<trkpt lat="40.0737945" lon="-105.2301176">
  <ele>1613.66</ele>
  <time>2026-08-28T19:08:31Z</time>
  <course>109.71</course>
  <speed>0.0</speed>
  <fix>3d</fix>
</trkpt>
<trkpt lat="40.0737946" lon="-105.2301178">
  <ele>1614.3</ele>
  <time>2026-08-28T19:08:31Z</time>
  <course>22.99</course>
  <speed>0.01</speed>
  <fix>3d</fix>
</trkpt>
<trkpt lat="40.0737946" lon="-105.2301178">
  <ele>1614.74</ele>
  <time>2026-08-28T19:08:31Z</time>
  <course>23.04</course>
  <speed>0.01414213562373095</speed>
  <fix>3d</fix>
</trkpt>
<trkpt lat="40.0737945" lon="-105.2301176">
  <ele>1614.15</ele>
  <time>2026-08-28T19:08:31Z</time>
  <course>129.33</course>
  <speed>0.0</speed>
  <fix>3d</fix>
</trkpt>
<trkpt lat="40.0737946" lon="-105.2301178">
  <ele>1614.75</ele>
  <time>2026-08-28T19:08:31Z</time>
  <course>23.04</course>
  <speed>0.01414213562373095</speed>
  <fix>3d</fix>
</trkpt>
<trkpt lat="40.0737946" lon="-105.2301178">
  <ele>1615.23</ele>
  <time>2026-08-28T19:08:31Z</time>
  <course>23.1</course>
  <speed>0.01414213562373095</speed>
  <fix>3d</fix>
</trkpt>
<trkpt lat="40.0737945" lon="-105.2301176">
  <ele>1614.65</ele>
  <time>2026-08-28T19:08:31Z</time>
  <course>141.39</course>
  <speed>0.01</speed>
  <fix>3d</fix>
</trkpt>
<trkpt lat="40.0737946" lon="-105.2301178">
  <ele>1615.3</ele>
  <time>2026-08-28T19:08:31Z</time>
  <course>23.11</course>
  <speed>0.01414213562373095</speed>
  <fix>3d</fix>
</trkpt>
<trkpt lat="40.0737946" lon="-105.2301178">
  <ele>1615.73</ele>
  <time>2026-08-28T19:08:31Z</time>
  <course>23.17</course>
  <speed>0.01414213562373095</speed>
  <fix>3d</fix>
</trkpt>
<trkpt lat="40.0737945" lon="-105.2301176">
  <ele>1615.15</ele>
  <time>2026-08-28T19:08:31Z</time>
  <course>150.43</course>
  <speed>0.01</speed>
  <fix>3d</fix>
</trkpt>
<trkpt lat="40.0737946" lon="-105.2301178">
  <ele>1615.79</ele>
  <time>2026-08-28T19:08:31Z</time>
  <course>23.17</course>
  <speed>0.01414213562373095</speed>
  <fix>3d</fix>
</trkpt>
<trkpt lat="40.0737946" lon="-105.2301178">
  <ele>1616.22</ele>
  <time>2026-08-28T19:08:31Z</time>
  <course>23.23</course>
  <speed>0.01414213562373095</speed>
  <fix>3d</fix>
</trkpt>
<trkpt lat="40.0737945" lon="-105.2301176">
  <ele>1615.65</ele>
  <time>2026-08-28T19:08:31Z</time>
  <course>159.44</course>
  <speed>0.01</speed>
  <fix>3d</fix>
</trkpt>
<trkpt lat="40.0737946" lon="-105.2301178">
  <ele>1616.29</ele>
  <time>2026-08-28T19:08:31Z</time>
  <course>23.23</course>
  <speed>0.01414213562373095</speed>
  <fix>3d</fix>
</trkpt>
<trkpt lat="40.0737946" lon="-105.2301178">
  <ele>1616.72</ele>
  <time>2026-08-28T19:08:31Z</time>
  <course>23.27</course>
  <speed>0.01414213562373095</speed>
  <fix>3d</fix>
</trkpt>
<trkpt lat="40.0737945" lon="-105.2301176">
  <ele>1616.14</ele>
  <time>2026-08-28T19:08:31Z</time>
  <course>167.29</course>
  <speed>0.01</speed>
  <fix>3d</fix>
</trkpt>
<trkpt lat="40.0737946" lon="-105.2301178">
  <ele>1616.77</ele>
  <time>2026-08-28T19:08:31Z</time>
  <course>23.28</course>
  <speed>0.01414213562373095</speed>
  <fix>3d</fix>
</trkpt>
<trkpt lat="40.0737946" lon="-105.2301178">
  <ele>1617.22</ele>
  <time>2026-08-28T19:08:31Z</time>
  <course>23.32</course>
  <speed>0.01414213562373095</speed>
  <fix>3d</fix>
</trkpt>
<trkpt lat="40.0737945" lon="-105.2301176">
  <ele>1616.64</ele>
  <time>2026-08-28T19:08:31Z</time>
  <course>172.78</course>
  <speed>0.01</speed>
  <fix>3d</fix>
</trkpt>
<trkpt lat="40.0737946" lon="-105.2301178">
  <ele>1617.22</ele>
  <time>2026-08-28T19:08:31Z</time>
  <course>23.32</course>
  <speed>0.01414213562373095</speed>
  <fix>3d</fix>
</trkpt>
<trkpt lat="40.0737946" lon="-105.2301178">
  <ele>1617.72</ele>
  <time>2026-08-28T19:08:31Z</time>
  <course>23.36</course>
  <speed>0.01</speed>
  <fix>3d</fix>
</trkpt>
<trkpt lat="40.0737945" lon="-105.2301176">
  <ele>1617.14</ele>
  <time>2026-08-28T19:08:31Z</time>
  <course>177.17</course>
  <speed>0.01</speed>
  <fix>3d</fix>
</trkpt>
<trkpt lat="40.0737946" lon="-105.2301178">
  <ele>1617.77</ele>
  <time>2026-08-28T19:08:31Z</time>
  <course>23.38</course>
  <speed>0.01</speed>
  <fix>3d</fix>
</trkpt>
<trkpt lat="40.0737946" lon="-105.2301178">
  <ele>1618.22</ele>
  <time>2026-08-28T19:08:31Z</time>
  <course>23.44</course>
  <speed>0.01</speed>
  <fix>3d</fix>
</trkpt>
<trkpt lat="40.0737944" lon="-105.2301176">
  <ele>1617.64</ele>
  <time>2026-08-28T19:08:31Z</time>
  <course>180.62</course>
  <speed>0.01</speed>
  <fix>3d</fix>
</trkpt>
<trkpt lat="40.0737946" lon="-105.2301178">
  <ele>1618.28</ele>
  <time>2026-08-28T19:08:31Z</time>
  <course>23.45</course>
  <speed>0.01</speed>
  <fix>3d</fix>
</trkpt>
<trkpt lat="40.0737946" lon="-105.2301178">
  <ele>1618.71</ele>
  <time>2026-08-28T19:08:31Z</time>
  <course>23.48</course>
  <speed>0.01414213562373095</speed>
  <fix>3d</fix>
</trkpt>
<trkpt lat="40.0737944" lon="-105.2301176">
  <ele>1618.14</ele>
  <time>2026-08-28T19:08:31Z</time>
  <course>182.48</course>
  <speed>0.01</speed>
  <fix>3d</fix>
</trkpt>
<trkpt lat="40.0737946" lon="-105.2301178">
  <ele>1618.72</ele>
  <time>2026-08-28T19:08:31Z</time>
  <course>23.48</course>
  <speed>0.01414213562373095</speed>
  <fix>3d</fix>
</trkpt>
<trkpt lat="40.0737945" lon="-105.2301178">
  <ele>1619.21</ele>
  <time>2026-08-28T19:08:31Z</time>
  <course>23.5</course>
  <speed>0.01414213562373095</speed>
  <fix>3d</fix>
</trkpt>
<trkpt lat="40.0737944" lon="-105.2301176">
  <ele>1618.64</ele>
  <time>2026-08-28T19:08:31Z</time>
  <course>184.2</course>
  <speed>0.01</speed>
  <fix>3d</fix>
</trkpt>
<trkpt lat="40.0737945" lon="-105.2301178">
  <ele>1619.28</ele>
  <time>2026-08-28T19:08:31Z</time>
  <course>23.51</course>
  <speed>0.01414213562373095</speed>
  <fix>3d</fix>
</trkpt>
<trkpt lat="40.0737945" lon="-105.2301178">
  <ele>1619.71</ele>
  <time>2026-08-28T19:08:31Z</time>
  <course>23.59</course>
  <speed>0.01414213562373095</speed>
  <fix>3d</fix>
</trkpt>
<trkpt lat="40.0737943" lon="-105.2301176">
  <ele>1619.14</ele>
  <time>2026-08-28T19:08:31Z</time>
  <course>187.54</course>
  <speed>0.01</speed>
  <fix>3d</fix>
</trkpt>
<trkpt lat="40.0737945" lon="-105.2301178">
  <ele>1619.78</ele>
  <time>2026-08-28T19:08:31Z</time>
  <course>23.6</course>
  <speed>0.01414213562373095</speed>
  <fix>3d</fix>
</trkpt>
<trkpt lat="40.0737945" lon="-105.2301178">
  <ele>1620.22</ele>
  <time>2026-08-28T19:08:31Z</time>
  <course>23.64</course>
  <speed>0.01414213562373095</speed>
  <fix>3d</fix>
</trkpt>
<trkpt lat="40.0737942" lon="-105.2301176">
  <ele>1619.65</ele>
  <time>2026-08-28T19:08:31Z</time>
  <course>191.24</course>
  <speed>0.01</speed>
  <fix>3d</fix>
</trkpt>
<trkpt lat="40.0737945" lon="-105.2301178">
  <ele>1620.23</ele>
  <time>2026-08-28T19:08:31Z</time>
  <course>23.64</course>
  <speed>0.01414213562373095</speed>
  <fix>3d</fix>
</trkpt>
<trkpt lat="40.0737945" lon="-105.2301178">
  <ele>1620.72</ele>
  <time>2026-08-28T19:08:31Z</time>
  <course>23.72</course>
  <speed>0.01414213562373095</speed>
  <fix>3d</fix>
</trkpt>
<trkpt lat="40.0737942" lon="-105.2301176">
  <ele>1620.15</ele>
  <time>2026-08-28T19:08:31Z</time>
  <course>195.42</course>
  <speed>0.01</speed>
  <fix>3d</fix>
</trkpt>
<trkpt lat="40.0737945" lon="-105.2301178">
  <ele>1620.79</ele>
  <time>2026-08-28T19:08:31Z</time>
  <course>23.73</course>
  <speed>0.01414213562373095</speed>
  <fix>3d</fix>
</trkpt>
<trkpt lat="40.0737944" lon="-105.2301178">
  <ele>1621.22</ele>
  <time>2026-08-28T19:08:31Z</time>
  <course>23.78</course>
  <speed>0.01414213562373095</speed>
  <fix>3d</fix>
</trkpt>
<trkpt lat="40.0737942" lon="-105.2301176">
  <ele>1620.65</ele>
  <time>2026-08-28T19:08:31Z</time>
  <course>201.0</course>
  <speed>0.01</speed>
  <fix>3d</fix>
</trkpt>
<trkpt lat="40.0737944" lon="-105.2301178">
  <ele>1621.23</ele>
  <time>2026-08-28T19:08:31Z</time>
  <course>23.78</course>
  <speed>0.01414213562373095</speed>
  <fix>3d</fix>
</trkpt>
<trkpt lat="40.0737944" lon="-105.2301178">
  <ele>1621.73</ele>
  <time>2026-08-28T19:08:31Z</time>
  <course>23.83</course>
  <speed>0.01414213562373095</speed>
  <fix>3d</fix>
</trkpt>
<trkpt lat="40.0737942" lon="-105.2301176">
  <ele>1621.16</ele>
  <time>2026-08-28T19:08:31Z</time>
  <course>206.79</course>
  <speed>0.01</speed>
  <fix>3d</fix>
</trkpt>
<trkpt lat="40.0737944" lon="-105.2301178">
  <ele>1621.79</ele>
  <time>2026-08-28T19:08:31Z</time>
  <course>23.84</course>
  <speed>0.01414213562373095</speed>
  <fix>3d</fix>
</trkpt>
<trkpt lat="40.0737944" lon="-105.2301178">
  <ele>1622.23</ele>
  <time>2026-08-28T19:08:31Z</time>
  <course>23.89</course>
  <speed>0.01414213562373095</speed>
  <fix>3d</fix>
</trkpt>
<trkpt lat="40.0737941" lon="-105.2301176">
  <ele>1621.66</ele>
  <time>2026-08-28T19:08:31Z</time>
  <course>214.02</course>
  <speed>0.01</speed>
  <fix>3d</fix>
</trkpt>
<trkpt lat="40.0737944" lon="-105.2301178">
  <ele>1622.29</ele>
  <time>2026-08-28T19:08:31Z</time>
  <course>23.89</course>
  <speed>0.01414213562373095</speed>
  <fix>3d</fix>
</trkpt>
<trkpt lat="40.0737944" lon="-105.2301178">
  <ele>1622.73</ele>
  <time>2026-08-28T19:08:31Z</time>
  <course>23.94</course>
  <speed>0.022360679774997897</speed>
  <fix>3d</fix>
</trkpt>
<trkpt lat="40.0737941" lon="-105.2301176">
  <ele>1622.16</ele>
  <time>2026-08-28T19:08:31Z</time>
  <course>223.69</course>
  <speed>0.0</speed>
  <fix>3d</fix>
</trkpt>
<trkpt lat="40.0737944" lon="-105.2301178">
  <ele>1622.74</ele>
  <time>2026-08-28T19:08:31Z</time>
  <course>23.94</course>
  <speed>0.022360679774997897</speed>
  <fix>3d</fix>
</trkpt>
<trkpt lat="40.0737944" lon="-105.2301178">
  <ele>1623.23</ele>
  <time>2026-08-28T19:08:31Z</time>
  <course>23.98</course>
  <speed>0.022360679774997897</speed>
  <fix>3d</fix>
</trkpt>
<trkpt lat="40.0737941" lon="-105.2301176">
  <ele>1622.66</ele>
  <time>2026-08-28T19:08:31Z</time>
  <course>236.1</course>
  <speed>0.0</speed>
  <fix>3d</fix>
</trkpt>
<trkpt lat="40.0737944" lon="-105.2301178">
  <ele>1623.29</ele>
  <time>2026-08-28T19:08:31Z</time>
  <course>23.99</course>
  <speed>0.022360679774997897</speed>
  <fix>3d</fix>
</trkpt>
<trkpt lat="40.0737944" lon="-105.2301178">
  <ele>1623.73</ele>
  <time>2026-08-28T19:08:31Z</time>
  <course>24.03</course>
  <speed>0.022360679774997897</speed>
  <fix>3d</fix>
</trkpt>
<trkpt lat="40.0737941" lon="-105.2301176">
  <ele>1623.16</ele>
  <time>2026-08-28T19:08:31Z</time>
  <course>253.58</course>
  <speed>0.0</speed>
  <fix>3d</fix>
</trkpt>
<trkpt lat="40.0737944" lon="-105.2301178">
  <ele>1623.74</ele>
  <time>2026-08-28T19:08:31Z</time>
  <course>24.03</course>
  <speed>0.022360679774997897</speed>
  <fix>3d</fix>
</trkpt>
<trkpt lat="40.0737944" lon="-105.2301178">
  <ele>1624.23</ele>
  <time>2026-08-28T19:08:31Z</time>
  <course>24.09</course>
  <speed>0.022360679774997897</speed>
  <fix>3d</fix>
</trkpt>
<trkpt lat="40.0737941" lon="-105.2301176">
  <ele>1623.66</ele>
  <time>2026-08-28T19:08:31Z</time>
  <course>278.38</course>
  <speed>0.0</speed>
  <fix>3d</fix>
</trkpt>
<trkpt lat="40.0737944" lon="-105.2301178">
  <ele>1624.29</ele>
  <time>2026-08-28T19:08:31Z</time>
  <course>24.09</course>
  <speed>0.022360679774997897</speed>
  <fix>3d</fix>
</trkpt>
<trkpt lat="40.0737944" lon="-105.2301178">
  <ele>1624.73</ele>
  <time>2026-08-28T19:08:31Z</time>
  <course>24.14</course>
  <speed>0.022360679774997897</speed>
  <fix>3d</fix>
</trkpt>
<trkpt lat="40.0737941" lon="-105.2301176">
  <ele>1624.15</ele>
  <time>2026-08-28T19:08:31Z</time>
  <course>305.74</course>
  <speed>0.0</speed>
  <fix>3d</fix>
</trkpt>
<trkpt lat="40.0737944" lon="-105.2301178">
  <ele>1624.73</ele>
  <time>2026-08-28T19:08:31Z</time>
  <course>24.14</course>
  <speed>0.022360679774997897</speed>
  <fix>3d</fix>
</trkpt>
<trkpt lat="40.0737944" lon="-105.2301178">
  <ele>1625.23</ele>
  <time>2026-08-28T19:08:31Z</time>
  <course>24.17</course>
  <speed>0.0316227766016838</speed>
  <fix>3d</fix>
</trkpt>
<trkpt lat="40.0737941" lon="-105.2301176">
  <ele>1624.65</ele>
  <time>2026-08-28T19:08:31Z</time>
  <course>323.77</course>
  <speed>0.0</speed>
  <fix>3d</fix>
</trkpt>
<trkpt lat="40.0737944" lon="-105.2301178">
  <ele>1625.28</ele>
  <time>2026-08-28T19:08:31Z</time>
  <course>24.18</course>
  <speed>0.0316227766016838</speed>
  <fix>3d</fix>
</trkpt>
<trkpt lat="40.0737944" lon="-105.2301178">
  <ele>1625.73</ele>
  <time>2026-08-28T19:08:31Z</time>
  <course>24.21</course>
  <speed>0.0316227766016838</speed>
  <fix>3d</fix>
</trkpt>
<trkpt lat="40.0737941" lon="-105.2301176">
  <ele>1625.15</ele>
  <time>2026-08-28T19:08:31Z</time>
  <course>333.71</course>
  <speed>0.0</speed>
  <fix>3d</fix>
</trkpt>
<trkpt lat="40.0737944" lon="-105.2301178">
  <ele>1625.79</ele>
  <time>2026-08-28T19:08:31Z</time>
  <course>24.22</course>
  <speed>0.0316227766016838</speed>
  <fix>3d</fix>
</trkpt>
<trkpt lat="40.0737944" lon="-105.2301178">
  <ele>1626.22</ele>
  <time>2026-08-28T19:08:31Z</time>
  <course>24.26</course>
  <speed>0.0316227766016838</speed>
  <fix>3d</fix>
</trkpt>
<trkpt lat="40.0737941" lon="-105.2301176">
  <ele>1625.65</ele>
  <time>2026-08-28T19:08:31Z</time>
  <course>340.73</course>
  <speed>0.01</speed>
  <fix>3d</fix>
</trkpt>
<trkpt lat="40.0737944" lon="-105.2301178">
  <ele>1626.23</ele>
  <time>2026-08-28T19:08:31Z</time>
  <course>24.26</course>
  <speed>0.0316227766016838</speed>
  <fix>3d</fix>
</trkpt>
<trkpt lat="40.0737944" lon="-105.2301178">
  <ele>1626.72</ele>
  <time>2026-08-28T19:08:31Z</time>
  <course>24.27</course>
  <speed>0.0316227766016838</speed>
  <fix>3d</fix>
</trkpt>
<trkpt lat="40.0737941" lon="-105.2301176">
  <ele>1626.15</ele>
  <time>2026-08-28T19:08:31Z</time>
  <course>344.06</course>
  <speed>0.01</speed>
  <fix>3d</fix>
</trkpt>
<trkpt lat="40.0737944" lon="-105.2301178">
  <ele>1626.79</ele>
  <time>2026-08-28T19:08:31Z</time>
  <course>24.28</course>
  <speed>0.0316227766016838</speed>
  <fix>3d</fix>
</trkpt>
<trkpt lat="40.0737944" lon="-105.2301178">
  <ele>1627.21</ele>
  <time>2026-08-28T19:08:31Z</time>
  <course>24.32</course>
  <speed>0.0316227766016838</speed>
  <fix>3d</fix>
</trkpt>
<trkpt lat="40.0737941" lon="-105.2301176">
  <ele>1626.65</ele>
  <time>2026-08-28T19:08:31Z</time>
  <course>343.97</course>
  <speed>0.01</speed>
  <fix>3d</fix>
</trkpt>
<trkpt lat="40.0737944" lon="-105.2301178">
  <ele>1627.29</ele>
  <time>2026-08-28T19:08:31Z</time>
  <course>24.32</course>
  <speed>0.0316227766016838</speed>
  <fix>3d</fix>
</trkpt>
<trkpt lat="40.0737944" lon="-105.2301178">
  <ele>1627.71</ele>
  <time>2026-08-28T19:08:31Z</time>
  <course>24.33</course>
  <speed>0.0316227766016838</speed>
  <fix>3d</fix>
</trkpt>
<trkpt lat="40.0737941" lon="-105.2301176">
  <ele>1627.15</ele>
  <time>2026-08-28T19:08:31Z</time>
  <course>342.23</course>
  <speed>0.01</speed>
  <fix>3d</fix>
</trkpt>
<trkpt lat="40.0737944" lon="-105.2301178">
  <ele>1627.78</ele>
  <time>2026-08-28T19:08:31Z</time>
  <course>24.33</course>
  <speed>0.0316227766016838</speed>
  <fix>3d</fix>
</trkpt>
<trkpt lat="40.0737944" lon="-105.2301178">
  <ele>1628.21</ele>
  <time>2026-08-28T19:08:31Z</time>
  <course>24.36</course>
  <speed>0.0316227766016838</speed>
  <fix>3d</fix>
</trkpt>
<trkpt lat="40.0737941" lon="-105.2301176">
  <ele>1627.65</ele>
  <time>2026-08-28T19:08:31Z</time>
  <course>337.99</course>
  <speed>0.01</speed>
  <fix>3d</fix>
</trkpt>
<trkpt lat="40.0737944" lon="-105.2301178">
  <ele>1628.27</ele>
  <time>2026-08-28T19:08:31Z</time>
  <course>24.38</course>
  <speed>0.0316227766016838</speed>
  <fix>3d</fix>
</trkpt>
<trkpt lat="40.0737944" lon="-105.2301178">
  <ele>1628.71</ele>
  <time>2026-08-28T19:08:31Z</time>
  <course>24.42</course>
  <speed>0.0316227766016838</speed>
  <fix>3d</fix>
</trkpt>
<trkpt lat="40.0737942" lon="-105.2301177">
  <ele>1628.15</ele>
  <time>2026-08-28T19:08:31Z</time>
  <course>333.75</course>
  <speed>0.01</speed>
  <fix>3d</fix>
</trkpt>
<trkpt lat="40.0737944" lon="-105.2301178">
  <ele>1628.78</ele>
  <time>2026-08-28T19:08:31Z</time>
  <course>24.42</course>
  <speed>0.0316227766016838</speed>
  <fix>3d</fix>
</trkpt>
<trkpt lat="40.0737944" lon="-105.2301178">
  <ele>1629.21</ele>
  <time>2026-08-28T19:08:31Z</time>
  <course>24.44</course>
  <speed>0.0316227766016838</speed>
  <fix>3d</fix>
</trkpt>
<trkpt lat="40.0737942" lon="-105.2301178">
  <ele>1628.65</ele>
  <time>2026-08-28T19:08:31Z</time>
  <course>330.75</course>
  <speed>0.01</speed>
  <fix>3d</fix>
</trkpt>
<trkpt lat="40.0737944" lon="-105.2301178">
  <ele>1629.22</ele>
  <time>2026-08-28T19:08:31Z</time>
  <course>24.44</course>
  <speed>0.0316227766016838</speed>
  <fix>3d</fix>
</trkpt>
<trkpt lat="40.0737944" lon="-105.2301178">
  <ele>1629.71</ele>
  <time>2026-08-28T19:08:31Z</time>
  <course>24.47</course>
  <speed>0.022360679774997897</speed>
  <fix>3d</fix>
</trkpt>
<trkpt lat="40.0737942" lon="-105.2301178">
  <ele>1629.16</ele>
  <time>2026-08-28T19:08:31Z</time>
  <course>326.86</course>
  <speed>0.01</speed>
  <fix>3d</fix>
</trkpt>
<trkpt lat="40.0737944" lon="-105.2301178">
  <ele>1629.78</ele>
  <time>2026-08-28T19:08:31Z</time>
  <course>24.48</course>
  <speed>0.022360679774997897</speed>
  <fix>3d</fix>
</trkpt>
<trkpt lat="40.0737944" lon="-105.2301178">
  <ele>1630.21</ele>
  <time>2026-08-28T19:08:31Z</time>
  <course>24.53</course>
  <speed>0.022360679774997897</speed>
  <fix>3d</fix>
</trkpt>
<trkpt lat="40.0737942" lon="-105.2301178">
  <ele>1629.66</ele>
  <time>2026-08-28T19:08:31Z</time>
  <course>323.79</course>
  <speed>0.01</speed>
  <fix>3d</fix>
</trkpt>
<trkpt lat="40.0737944" lon="-105.2301178">
  <ele>1630.28</ele>
  <time>2026-08-28T19:08:31Z</time>
  <course>24.53</course>
  <speed>0.022360679774997897</speed>
  <fix>3d</fix>
</trkpt>
<trkpt lat="40.0737944" lon="-105.2301178">
  <ele>1630.71</ele>
  <time>2026-08-28T19:08:31Z</time>
  <course>24.57</course>
  <speed>0.022360679774997897</speed>
  <fix>3d</fix>
</trkpt>
<trkpt lat="40.0737942" lon="-105.2301178">
  <ele>1630.16</ele>
  <time>2026-08-28T19:08:31Z</time>
  <course>322.94</course>
  <speed>0.01</speed>
  <fix>3d</fix>
</trkpt>
<trkpt lat="40.0737944" lon="-105.2301178">
  <ele>1630.78</ele>
  <time>2026-08-28T19:08:31Z</time>
  <course>24.58</course>
  <speed>0.022360679774997897</speed>
  <fix>3d</fix>
</trkpt>
<trkpt lat="40.0737944" lon="-105.2301178">
  <ele>1631.21</ele>
  <time>2026-08-28T19:08:31Z</time>
  <course>24.62</course>
  <speed>0.022360679774997897</speed>
  <fix>3d</fix>
</trkpt>
<trkpt lat="40.0737943" lon="-105.2301178">
  <ele>1630.67</ele>
  <time>2026-08-28T19:08:31Z</time>
  <course>324.66</course>
  <speed>0.0</speed>
  <fix>3d</fix>
</trkpt>
<trkpt lat="40.0737944" lon="-105.2301178">
  <ele>1631.22</ele>
  <time>2026-08-28T19:08:31Z</time>
  <course>24.62</course>
  <speed>0.022360679774997897</speed>
  <fix>3d</fix>
</trkpt>
<trkpt lat="40.0737944" lon="-105.2301178">
  <ele>1631.71</ele>
  <time>2026-08-28T19:08:31Z</time>
  <course>24.66</course>
  <speed>0.022360679774997897</speed>
  <fix>3d</fix>
</trkpt>
<trkpt lat="40.0737944" lon="-105.2301178">
  <ele>1631.17</ele>
  <time>2026-08-28T19:08:31Z</time>
  <course>328.26</course>
  <speed>0.0</speed>
  <fix>3d</fix>
</trkpt>
<trkpt lat="40.0737944" lon="-105.2301178">
  <ele>1631.77</ele>
  <time>2026-08-28T19:08:31Z</time>
  <course>24.66</course>
  <speed>0.022360679774997897</speed>
  <fix>3d</fix>
</trkpt>
<trkpt lat="40.0737944" lon="-105.2301179">
  <ele>1632.21</ele>
  <time>2026-08-28T19:08:31Z</time>
  <course>24.68</course>
  <speed>0.022360679774997897</speed>
  <fix>3d</fix>
</trkpt>
<trkpt lat="40.0737944" lon="-105.2301178">
  <ele>1631.67</ele>
  <time>2026-08-28T19:08:31Z</time>
  <course>333.78</course>
  <speed>0.0</speed>
  <fix>3d</fix>
</trkpt>
<trkpt lat="40.0737944" lon="-105.2301179">
  <ele>1632.27</ele>
  <time>2026-08-28T19:08:31Z</time>
  <course>24.68</course>
  <speed>0.022360679774997897</speed>
  <fix>3d</fix>
</trkpt>
<trkpt lat="40.0737944" lon="-105.2301179">
  <ele>1632.71</ele>
  <time>2026-08-28T19:08:31Z</time>
  <course>24.71</course>
  <speed>0.022360679774997897</speed>
  <fix>3d</fix>
</trkpt>
<trkpt lat="40.0737944" lon="-105.2301178">
  <ele>1632.18</ele>
  <time>2026-08-28T19:08:31Z</time>
  <course>338.08</course>
  <speed>0.0</speed>
  <fix>3d</fix>
</trkpt>
<trkpt lat="40.0737944" lon="-105.2301179">
  <ele>1632.71</ele>
  <time>2026-08-28T19:08:31Z</time>
  <course>24.71</course>
  <speed>0.022360679774997897</speed>
  <fix>3d</fix>
</trkpt>
<trkpt lat="40.0737944" lon="-105.2301179">
  <ele>1633.21</ele>
  <time>2026-08-28T19:08:31Z</time>
  <course>24.71</course>
  <speed>0.022360679774997897</speed>
  <fix>3d</fix>
</trkpt>
<trkpt lat="40.0737944" lon="-105.2301178">
  <ele>1632.68</ele>
  <time>2026-08-28T19:08:31Z</time>
  <course>341.47</course>
  <speed>0.0</speed>
  <fix>3d</fix>
</trkpt>
<trkpt lat="40.0737944" lon="-105.2301179">
  <ele>1633.27</ele>
  <time>2026-08-28T19:08:31Z</time>
  <course>24.71</course>
  <speed>0.022360679774997897</speed>
  <fix>3d</fix>
</trkpt>
<trkpt lat="40.0737945" lon="-105.2301179">
  <ele>1633.72</ele>
  <time>2026-08-28T19:08:31Z</time>
  <course>24.77</course>
  <speed>0.022360679774997897</speed>
  <fix>3d</fix>
</trkpt>
<trkpt lat="40.0737944" lon="-105.2301179">
  <ele>1633.18</ele>
  <time>2026-08-28T19:08:31Z</time>
  <course>337.92</course>
  <speed>0.0</speed>
  <fix>3d</fix>
</trkpt>
<trkpt lat="40.0737945" lon="-105.2301179">
  <ele>1633.78</ele>
  <time>2026-08-28T19:08:31Z</time>
  <course>24.78</course>
  <speed>0.022360679774997897</speed>
  <fix>3d</fix>
</trkpt>
<trkpt lat="40.0737945" lon="-105.2301179">
  <ele>1634.22</ele>
  <time>2026-08-28T19:08:31Z</time>
  <course>24.83</course>
  <speed>0.01414213562373095</speed>
  <fix>3d</fix>
</trkpt>
<trkpt lat="40.0737944" lon="-105.2301179">
  <ele>1633.69</ele>
  <time>2026-08-28T19:08:31Z</time>
  <course>200.93</course>
  <speed>0.0</speed>
  <fix>3d</fix>
</trkpt>
<trkpt lat="40.0737945" lon="-105.2301179">
  <ele>1634.23</ele>
  <time>2026-08-28T19:08:31Z</time>
  <course>24.83</course>
  <speed>0.01414213562373095</speed>
  <fix>3d</fix>
</trkpt>
<trkpt lat="40.0737945" lon="-105.2301179">
  <ele>1634.73</ele>
  <time>2026-08-28T19:08:31Z</time>
  <course>24.86</course>
  <speed>0.01</speed>
  <fix>3d</fix>
</trkpt>
<trkpt lat="40.0737944" lon="-105.2301179">
  <ele>1634.19</ele>
  <time>2026-08-28T19:08:31Z</time>
  <course>163.47</course>
  <speed>0.0</speed>
  <fix>3d</fix>
</trkpt>
<trkpt lat="40.0737945" lon="-105.2301179">
  <ele>1634.79</ele>
  <time>2026-08-28T19:08:31Z</time>
  <course>24.87</course>
  <speed>0.01</speed>
  <fix>3d</fix>
</trkpt>
<trkpt lat="40.0737945" lon="-105.2301179">
  <ele>1635.23</ele>
  <time>2026-08-28T19:08:31Z</time>
  <course>24.89</course>
  <speed>0.01</speed>
  <fix>3d</fix>
</trkpt>
<trkpt lat="40.0737944" lon="-105.2301179">
  <ele>1634.7</ele>
  <time>2026-08-28T19:08:31Z</time>
  <course>155.52</course>
  <speed>0.0</speed>
  <fix>3d</fix>
</trkpt>
<trkpt lat="40.0737945" lon="-105.2301179">
  <ele>1635.29</ele>
  <time>2026-08-28T19:08:31Z</time>
  <course>24.9</course>
  <speed>0.01</speed>
  <fix>3d</fix>
</trkpt>
<trkpt lat="40.0737945" lon="-105.2301179">
  <ele>1635.73</ele>
  <time>2026-08-28T19:08:31Z</time>
  <course>24.92</course>
  <speed>0.01</speed>
  <fix>3d</fix>
</trkpt>
<trkpt lat="40.0737944" lon="-105.2301179">
  <ele>1635.2</ele>
  <time>2026-08-28T19:08:31Z</time>
  <course>152.2</course>
  <speed>0.0</speed>
  <fix>3d</fix>
</trkpt>
<trkpt lat="40.0737945" lon="-105.2301179">
  <ele>1635.79</ele>
  <time>2026-08-28T19:08:31Z</time>
  <course>24.93</course>
  <speed>0.01</speed>
  <fix>3d</fix>
</trkpt>
<trkpt lat="40.0737945" lon="-105.2301179">
  <ele>1636.23</ele>
  <time>2026-08-28T19:08:31Z</time>
  <course>24.95</course>
  <speed>0.01</speed>
  <fix>3d</fix>
</trkpt>
<trkpt lat="40.0737944" lon="-105.2301179">
  <ele>1635.7</ele>
  <time>2026-08-28T19:08:31Z</time>
  <course>150.04</course>
  <speed>0.0</speed>
  <fix>3d</fix>
</trkpt>
<trkpt lat="40.0737945" lon="-105.2301179">
  <ele>1636.29</ele>
  <time>2026-08-28T19:08:31Z</time>
  <course>24.96</course>
  <speed>0.01</speed>
  <fix>3d</fix>
</trkpt>
<trkpt lat="40.0737945" lon="-105.2301179">
  <ele>1636.73</ele>
  <time>2026-08-28T19:08:31Z</time>
  <course>24.99</course>
  <speed>0.01</speed>
  <fix>3d</fix>
</trkpt>
<trkpt lat="40.0737944" lon="-105.2301179">
  <ele>1636.2</ele>
  <time>2026-08-28T19:08:31Z</time>
  <course>148.5</course>
  <speed>0.01</speed>
  <fix>3d</fix>
</trkpt>
<trkpt lat="40.0737945" lon="-105.2301179">
  <ele>1636.74</ele>
  <time>2026-08-28T19:08:31Z</time>
  <course>24.99</course>
  <speed>0.01</speed>
  <fix>3d</fix>
</trkpt>
<trkpt lat="40.0737945" lon="-105.2301179">
  <ele>1637.24</ele>
  <time>2026-08-28T19:08:31Z</time>
  <course>25.03</course>
  <speed>0.01</speed>
  <fix>3d</fix>
</trkpt>
<trkpt lat="40.0737944" lon="-105.2301179">
  <ele>1636.7</ele>
  <time>2026-08-28T19:08:31Z</time>
  <course>147.37</course>
  <speed>0.01</speed>
  <fix>3d</fix>
</trkpt>
<trkpt lat="40.0737945" lon="-105.2301179">
  <ele>1637.31</ele>
  <time>2026-08-28T19:08:31Z</time>
  <course>25.03</course>
  <speed>0.01</speed>
  <fix>3d</fix>
</trkpt>
<trkpt lat="40.0737945" lon="-105.2301179">
  <ele>1637.74</ele>
  <time>2026-08-28T19:08:31Z</time>
  <course>25.05</course>
  <speed>0.01</speed>
  <fix>3d</fix>
</trkpt>
<trkpt lat="40.0737944" lon="-105.2301179">
  <ele>1637.2</ele>
  <time>2026-08-28T19:08:31Z</time>
  <course>145.48</course>
  <speed>0.01</speed>
  <fix>3d</fix>
</trkpt>
<trkpt lat="40.0737945" lon="-105.2301179">
  <ele>1637.81</ele>
  <time>2026-08-28T19:08:31Z</time>
  <course>25.05</course>
  <speed>0.01</speed>
  <fix>3d</fix>
</trkpt>
<trkpt lat="40.0737945" lon="-105.2301179">
  <ele>1638.25</ele>
  <time>2026-08-28T19:08:31Z</time>
  <course>25.08</course>
  <speed>0.01</speed>
  <fix>3d</fix>
</trkpt>
<trkpt lat="40.0737944" lon="-105.2301179">
  <ele>1637.7</ele>
  <time>2026-08-28T19:08:31Z</time>
  <course>142.37</course>
  <speed>0.01</speed>
  <fix>3d</fix>
</trkpt>
<trkpt lat="40.0737945" lon="-105.2301179">
  <ele>1638.31</ele>
  <time>2026-08-28T19:08:31Z</time>
  <course>25.09</course>
  <speed>0.01</speed>
  <fix>3d</fix>
</trkpt>
<trkpt lat="40.0737945" lon="-105.2301179">
  <ele>1638.75</ele>
  <time>2026-08-28T19:08:31Z</time>
  <course>25.12</course>
  <speed>0.01</speed>
  <fix>3d</fix>
</trkpt>
<trkpt lat="40.0737944" lon="-105.2301178">
  <ele>1638.19</ele>
  <time>2026-08-28T19:08:31Z</time>
  <course>140.28</course>
  <speed>0.01</speed>
  <fix>3d</fix>
</trkpt>
<trkpt lat="40.0737945" lon="-105.2301179">
  <ele>1638.75</ele>
  <time>2026-08-28T19:08:31Z</time>
  <course>25.12</course>
  <speed>0.01</speed>
  <fix>3d</fix>
</trkpt>
<trkpt lat="40.0737945" lon="-105.2301179">
  <ele>1639.24</ele>
  <time>2026-08-28T19:08:31Z</time>
  <course>25.15</course>
  <speed>0.01</speed>
  <fix>3d</fix>
</trkpt>
<trkpt lat="40.0737944" lon="-105.2301178">
  <ele>1638.69</ele>
  <time>2026-08-28T19:08:31Z</time>
  <course>141.09</course>
  <speed>0.01</speed>
  <fix>3d</fix>
</trkpt>
<trkpt lat="40.0737945" lon="-105.2301179">
  <ele>1639.3</ele>
  <time>2026-08-28T19:08:31Z</time>
  <course>25.15</course>
  <speed>0.01</speed>
  <fix>3d</fix>
</trkpt>
<trkpt lat="40.0737945" lon="-105.2301179">
  <ele>1639.73</ele>
  <time>2026-08-28T19:08:31Z</time>
  <course>25.14</course>
  <speed>0.01</speed>
  <fix>3d</fix>
</trkpt>
<trkpt lat="40.0737943" lon="-105.2301178">
  <ele>1639.19</ele>
  <time>2026-08-28T19:08:31Z</time>
  <course>142.13</course>
  <speed>0.01</speed>
  <fix>3d</fix>
</trkpt>
<trkpt lat="40.0737945" lon="-105.2301179">
  <ele>1639.73</ele>
  <time>2026-08-28T19:08:31Z</time>
  <course>25.14</course>
  <speed>0.01</speed>
  <fix>3d</fix>
</trkpt>
<trkpt lat="40.0737945" lon="-105.2301179">
  <ele>1640.22</ele>
  <time>2026-08-28T19:08:31Z</time>
  <course>25.16</course>
  <speed>0.01</speed>
  <fix>3d</fix>
</trkpt>
<trkpt lat="40.0737942" lon="-105.2301178">
  <ele>1639.68</ele>
  <time>2026-08-28T19:08:31Z</time>
  <course>141.4</course>
  <speed>0.01</speed>
  <fix>3d</fix>
</trkpt>
<trkpt lat="40.0737945" lon="-105.2301179">
  <ele>1640.28</ele>
  <time>2026-08-28T19:08:31Z</time>
  <course>25.16</course>
  <speed>0.01</speed>
  <fix>3d</fix>
</trkpt>
<trkpt lat="40.0737944" lon="-105.2301179">
  <ele>1640.72</ele>
  <time>2026-08-28T19:08:31Z</time>
  <course>25.18</course>
  <speed>0.01</speed>
  <fix>3d</fix>
</trkpt>
<trkpt lat="40.0737942" lon="-105.2301178">
  <ele>1640.18</ele>
  <time>2026-08-28T19:08:31Z</time>
  <course>140.96</course>
  <speed>0.01</speed>
  <fix>3d</fix>
</trkpt>
<trkpt lat="40.0737944" lon="-105.2301179">
  <ele>1640.78</ele>
  <time>2026-08-28T19:08:31Z</time>
  <course>25.18</course>
  <speed>0.01</speed>
  <fix>3d</fix>
</trkpt>
<trkpt lat="40.0737944" lon="-105.2301179">
  <ele>1641.21</ele>
  <time>2026-08-28T19:08:31Z</time>
  <course>25.18</course>
  <speed>0.01</speed>
  <fix>3d</fix>
</trkpt>
<trkpt lat="40.0737942" lon="-105.2301178">
  <ele>1640.68</ele>
  <time>2026-08-28T19:08:31Z</time>
  <course>142.42</course>
  <speed>0.01</speed>
  <fix>3d</fix>
</trkpt>
<trkpt lat="40.0737944" lon="-105.2301179">
  <ele>1641.22</ele>
  <time>2026-08-28T19:08:31Z</time>
  <course>25.18</course>
  <speed>0.01</speed>
  <fix>3d</fix>
</trkpt>
<trkpt lat="40.0737944" lon="-105.2301179">
  <ele>1641.71</ele>
  <time>2026-08-28T19:08:31Z</time>
  <course>25.18</course>
  <speed>0.01</speed>
  <fix>3d</fix>
</trkpt>
<trkpt lat="40.0737942" lon="-105.2301178">
  <ele>1641.18</ele>
  <time>2026-08-28T19:08:31Z</time>
  <course>145.74</course>
  <speed>0.0</speed>
  <fix>3d</fix>
</trkpt>
<trkpt lat="40.0737944" lon="-105.2301179">
  <ele>1641.77</ele>
  <time>2026-08-28T19:08:31Z</time>
  <course>25.18</course>
  <speed>0.01</speed>
  <fix>3d</fix>
</trkpt>
<trkpt lat="40.0737944" lon="-105.2301179">
  <ele>1642.21</ele>
  <time>2026-08-28T19:08:31Z</time>
  <course>25.21</course>
  <speed>0.01</speed>
  <fix>3d</fix>
</trkpt>
<trkpt lat="40.0737942" lon="-105.2301177">
  <ele>1641.68</ele>
  <time>2026-08-28T19:08:31Z</time>
  <course>149.71</course>
  <speed>0.0</speed>
  <fix>3d</fix>
</trkpt>
<trkpt lat="40.0737944" lon="-105.2301179">
  <ele>1642.22</ele>
  <time>2026-08-28T19:08:31Z</time>
  <course>25.21</course>
  <speed>0.01</speed>
  <fix>3d</fix>
</trkpt>
<trkpt lat="40.0737944" lon="-105.2301179">
  <ele>1642.73</ele>
  <time>2026-08-28T19:08:31Z</time>
  <course>25.27</course>
  <speed>0.01</speed>
  <fix>3d</fix>
</trkpt>
<trkpt lat="40.0737942" lon="-105.2301176">
  <ele>1642.19</ele>
  <time>2026-08-28T19:08:31Z</time>
  <course>150.1</course>
  <speed>0.0</speed>
  <fix>3d</fix>
</trkpt>
<trkpt lat="40.0737944" lon="-105.2301179">
  <ele>1642.79</ele>
  <time>2026-08-28T19:08:31Z</time>
  <course>25.27</course>
  <speed>0.01</speed>
  <fix>3d</fix>
</trkpt>
<trkpt lat="40.0737944" lon="-105.2301178">
  <ele>1643.24</ele>
  <time>2026-08-28T19:08:31Z</time>
  <course>25.3</course>
  <speed>0.02</speed>
  <fix>3d</fix>
</trkpt>
<trkpt lat="40.0737942" lon="-105.2301176">
  <ele>1642.69</ele>
  <time>2026-08-28T19:08:31Z</time>
  <course>148.67</course>
  <speed>0.0</speed>
  <fix>3d</fix>
</trkpt>
<trkpt lat="40.0737944" lon="-105.2301178">
  <ele>1643.31</ele>
  <time>2026-08-28T19:08:31Z</time>
  <course>25.3</course>
  <speed>0.02</speed>
  <fix>3d</fix>
</trkpt>
<trkpt lat="40.0737944" lon="-105.2301178">
  <ele>1643.74</ele>
  <time>2026-08-28T19:08:31Z</time>
  <course>25.33</course>
  <speed>0.022360679774997897</speed>
  <fix>3d</fix>
</trkpt>
<trkpt lat="40.0737941" lon="-105.2301176">
  <ele>1643.19</ele>
  <time>2026-08-28T19:08:31Z</time>
  <course>148.85</course>
  <speed>0.0</speed>
  <fix>3d</fix>
</trkpt>
<trkpt lat="40.0737944" lon="-105.2301178">
  <ele>1643.75</ele>
  <time>2026-08-28T19:08:31Z</time>
  <course>25.33</course>
  <speed>0.022360679774997897</speed>
  <fix>3d</fix>
</trkpt>
<trkpt lat="40.0737944" lon="-105.2301178">
  <ele>1644.24</ele>
  <time>2026-08-28T19:08:31Z</time>
  <course>25.37</course>
  <speed>0.022360679774997897</speed>
  <fix>3d</fix>
</trkpt>
<trkpt lat="40.0737941" lon="-105.2301176">
  <ele>1643.69</ele>
  <time>2026-08-28T19:08:31Z</time>
  <course>152.17</course>
  <speed>0.0</speed>
  <fix>3d</fix>
</trkpt>
<trkpt lat="40.0737944" lon="-105.2301178">
  <ele>1644.3</ele>
  <time>2026-08-28T19:08:31Z</time>
  <course>25.36</course>
  <speed>0.022360679774997897</speed>
  <fix>3d</fix>
</trkpt>
<trkpt lat="40.0737944" lon="-105.2301178">
  <ele>1644.74</ele>
  <time>2026-08-28T19:08:31Z</time>
  <course>25.39</course>
  <speed>0.022360679774997897</speed>
  <fix>3d</fix>
</trkpt>
<trkpt lat="40.0737941" lon="-105.2301176">
  <ele>1644.19</ele>
  <time>2026-08-28T19:08:31Z</time>
  <course>279.41</course>
  <speed>0.0</speed>
  <fix>3d</fix>
</trkpt>
<trkpt lat="40.0737944" lon="-105.2301178">
  <ele>1644.8</ele>
  <time>2026-08-28T19:08:31Z</time>
  <course>25.39</course>
  <speed>0.022360679774997897</speed>
  <fix>3d</fix>
</trkpt>
<trkpt lat="40.0737944" lon="-105.2301178">
  <ele>1645.23</ele>
  <time>2026-08-28T19:08:31Z</time>
  <course>25.39</course>
  <speed>0.022360679774997897</speed>
  <fix>3d</fix>
</trkpt>
<trkpt lat="40.0737941" lon="-105.2301176">
  <ele>1644.69</ele>
  <time>2026-08-28T19:08:31Z</time>
  <course>305.68</course>
  <speed>0.0</speed>
  <fix>3d</fix>
</trkpt>
<trkpt lat="40.0737944" lon="-105.2301178">
  <ele>1645.24</ele>
  <time>2026-08-28T19:08:31Z</time>
  <course>25.39</course>
  <speed>0.022360679774997897</speed>
  <fix>3d</fix>
</trkpt>
<trkpt lat="40.0737943" lon="-105.2301178">
  <ele>1645.73</ele>
  <time>2026-08-28T19:08:31Z</time>
  <course>25.41</course>
  <speed>0.022360679774997897</speed>
  <fix>3d</fix>
</trkpt>
<trkpt lat="40.0737941" lon="-105.2301176">
  <ele>1645.19</ele>
  <time>2026-08-28T19:08:31Z</time>
  <course>312.14</course>
  <speed>0.0</speed>
  <fix>3d</fix>
</trkpt>
<trkpt lat="40.0737943" lon="-105.2301178">
  <ele>1645.8</ele>
  <time>2026-08-28T19:08:31Z</time>
  <course>25.41</course>
  <speed>0.022360679774997897</speed>
  <fix>3d</fix>
</trkpt>
<trkpt lat="40.0737943" lon="-105.2301178">
  <ele>1646.23</ele>
  <time>2026-08-28T19:08:31Z</time>
  <course>25.43</course>
  <speed>0.022360679774997897</speed>
  <fix>3d</fix>
</trkpt>
<trkpt lat="40.0737941" lon="-105.2301176">
  <ele>1645.68</ele>
  <time>2026-08-28T19:08:31Z</time>
  <course>314.73</course>
  <speed>0.0</speed>
  <fix>3d</fix>
</trkpt>
<trkpt lat="40.0737943" lon="-105.2301178">
  <ele>1646.24</ele>
  <time>2026-08-28T19:08:31Z</time>
  <course>25.43</course>
  <speed>0.022360679774997897</speed>
  <fix>3d</fix>
</trkpt>
<trkpt lat="40.0737943" lon="-105.2301178">
  <ele>1646.73</ele>
  <time>2026-08-28T19:08:31Z</time>
  <course>25.44</course>
  <speed>0.022360679774997897</speed>
  <fix>3d</fix>
</trkpt>
<trkpt lat="40.0737941" lon="-105.2301176">
  <ele>1646.18</ele>
  <time>2026-08-28T19:08:31Z</time>
  <course>317.04</course>
  <speed>0.0</speed>
  <fix>3d</fix>
</trkpt>
<trkpt lat="40.0737943" lon="-105.2301178">
  <ele>1646.79</ele>
  <time>2026-08-28T19:08:31Z</time>
  <course>25.45</course>
  <speed>0.022360679774997897</speed>
  <fix>3d</fix>
</trkpt>
<trkpt lat="40.0737943" lon="-105.2301178">
  <ele>1647.23</ele>
  <time>2026-08-28T19:08:31Z</time>
  <course>25.46</course>
  <speed>0.022360679774997897</speed>
  <fix>3d</fix>
</trkpt>
<trkpt lat="40.0737941" lon="-105.2301176">
  <ele>1646.68</ele>
  <time>2026-08-28T19:08:31Z</time>
  <course>318.81</course>
  <speed>0.0</speed>
  <fix>3d</fix>
</trkpt>
<trkpt lat="40.0737943" lon="-105.2301178">
  <ele>1647.3</ele>
  <time>2026-08-28T19:08:31Z</time>
  <course>25.46</course>
  <speed>0.022360679774997897</speed>
  <fix>3d</fix>
</trkpt>
<trkpt lat="40.0737943" lon="-105.2301178">
  <ele>1647.73</ele>
  <time>2026-08-28T19:08:31Z</time>
  <course>25.48</course>
  <speed>0.022360679774997897</speed>
  <fix>3d</fix>
</trkpt>
<trkpt lat="40.0737941" lon="-105.2301176">
  <ele>1647.18</ele>
  <time>2026-08-28T19:08:31Z</time>
  <course>319.72</course>
  <speed>0.01</speed>
  <fix>3d</fix>
</trkpt>
<trkpt lat="40.0737943" lon="-105.2301178">
  <ele>1647.79</ele>
  <time>2026-08-28T19:08:31Z</time>
  <course>25.48</course>
  <speed>0.022360679774997897</speed>
  <fix>3d</fix>
</trkpt>
<trkpt lat="40.0737943" lon="-105.2301178">
  <ele>1648.23</ele>
  <time>2026-08-28T19:08:31Z</time>
  <course>25.5</course>
  <speed>0.022360679774997897</speed>
  <fix>3d</fix>
</trkpt>
<trkpt lat="40.0737941" lon="-105.2301176">
  <ele>1647.68</ele>
  <time>2026-08-28T19:08:31Z</time>
  <course>320.0</course>
  <speed>0.01</speed>
  <fix>3d</fix>
</trkpt>
<trkpt lat="40.0737943" lon="-105.2301178">
  <ele>1648.29</ele>
  <time>2026-08-28T19:08:31Z</time>
  <course>25.5</course>
  <speed>0.022360679774997897</speed>
  <fix>3d</fix>
</trkpt>
<trkpt lat="40.0737943" lon="-105.2301178">
  <ele>1648.73</ele>
  <time>2026-08-28T19:08:31Z</time>
  <course>25.52</course>
  <speed>0.022360679774997897</speed>
  <fix>3d</fix>
</trkpt>
<trkpt lat="40.0737941" lon="-105.2301176">
  <ele>1648.18</ele>
  <time>2026-08-28T19:08:31Z</time>
  <course>319.06</course>
  <speed>0.01</speed>
  <fix>3d</fix>
</trkpt>
<trkpt lat="40.0737943" lon="-105.2301178">
  <ele>1648.74</ele>
  <time>2026-08-28T19:08:31Z</time>
  <course>25.52</course>
  <speed>0.022360679774997897</speed>
  <fix>3d</fix>
</trkpt>
<trkpt lat="40.0737943" lon="-105.2301178">
  <ele>1649.24</ele>
  <time>2026-08-28T19:08:31Z</time>
  <course>25.54</course>
  <speed>0.022360679774997897</speed>
  <fix>3d</fix>
</trkpt>
<trkpt lat="40.0737941" lon="-105.2301177">
  <ele>1648.68</ele>
  <time>2026-08-28T19:08:31Z</time>
  <course>318.1</course>
  <speed>0.01</speed>
  <fix>3d</fix>
</trkpt>
<trkpt lat="40.0737943" lon="-105.2301178">
  <ele>1649.3</ele>
  <time>2026-08-28T19:08:31Z</time>
  <course>25.55</course>
  <speed>0.022360679774997897</speed>
  <fix>3d</fix>
</trkpt>
<trkpt lat="40.0737943" lon="-105.2301178">
  <ele>1649.75</ele>
  <time>2026-08-28T19:08:31Z</time>
  <course>25.56</course>
  <speed>0.022360679774997897</speed>
  <fix>3d</fix>
</trkpt>
<trkpt lat="40.0737942" lon="-105.2301178">
  <ele>1649.17</ele>
  <time>2026-08-28T19:08:31Z</time>
  <course>317.47</course>
  <speed>0.01</speed>
  <fix>3d</fix>
</trkpt>
<trkpt lat="40.0737943" lon="-105.2301178">
  <ele>1649.81</ele>
  <time>2026-08-28T19:08:31Z</time>
  <course>25.56</course>
  <speed>0.022360679774997897</speed>
  <fix>3d</fix>
</trkpt>
<trkpt lat="40.0737943" lon="-105.2301178">
  <ele>1650.25</ele>
  <time>2026-08-28T19:08:31Z</time>
  <course>25.6</course>
  <speed>0.022360679774997897</speed>
  <fix>3d</fix>
</trkpt>
<trkpt lat="40.0737942" lon="-105.2301178">
  <ele>1649.67</ele>
  <time>2026-08-28T19:08:31Z</time>
  <course>317.82</course>
  <speed>0.01</speed>
  <fix>3d</fix>
</trkpt>
<trkpt lat="40.0737943" lon="-105.2301178">
  <ele>1650.31</ele>
  <time>2026-08-28T19:08:31Z</time>
  <course>25.61</course>
  <speed>0.022360679774997897</speed>
  <fix>3d</fix>
</trkpt>
<trkpt lat="40.0737943" lon="-105.2301178">
  <ele>1650.75</ele>
  <time>2026-08-28T19:08:31Z</time>
  <course>25.64</course>
  <speed>0.022360679774997897</speed>
  <fix>3d</fix>
</trkpt>
<trkpt lat="40.0737942" lon="-105.2301178">
  <ele>1650.17</ele>
  <time>2026-08-28T19:08:31Z</time>
  <course>320.06</course>
  <speed>0.01</speed>
  <fix>3d</fix>
</trkpt>
<trkpt lat="40.0737943" lon="-105.2301178">
  <ele>1650.81</ele>
  <time>2026-08-28T19:08:31Z</time>
  <course>25.65</course>
  <speed>0.022360679774997897</speed>
  <fix>3d</fix>
</trkpt>
<trkpt lat="40.0737943" lon="-105.2301178">
  <ele>1651.25</ele>
  <time>2026-08-28T19:08:31Z</time>
  <course>25.67</course>
  <speed>0.022360679774997897</speed>
  <fix>3d</fix>
</trkpt>
<trkpt lat="40.0737942" lon="-105.2301178">
  <ele>1650.66</ele>
  <time>2026-08-28T19:08:31Z</time>
  <course>322.53</course>
  <speed>0.0</speed>
  <fix>3d</fix>
</trkpt>
<trkpt lat="40.0737943" lon="-105.2301178">
  <ele>1651.26</ele>
  <time>2026-08-28T19:08:31Z</time>
  <course>25.67</course>
  <speed>0.022360679774997897</speed>
  <fix>3d</fix>
</trkpt>
<trkpt lat="40.0737943" lon="-105.2301178">
  <ele>1651.74</ele>
  <time>2026-08-28T19:08:32Z</time>
  <course>25.66</course>
  <speed>0.022360679774997897</speed>
  <fix>3d</fix>
</trkpt>
<trkpt lat="40.0737942" lon="-105.2301178">
  <ele>1651.16</ele>
  <time>2026-08-28T19:08:32Z</time>
  <course>326.77</course>
  <speed>0.0</speed>
  <fix>3d</fix>
</trkpt>
<trkpt lat="40.0737943" lon="-105.2301178">
  <ele>1651.8</ele>
  <time>2026-08-28T19:08:32Z</time>
  <course>25.67</course>
  <speed>0.022360679774997897</speed>
  <fix>3d</fix>
</trkpt>
<trkpt lat="40.0737944" lon="-105.2301178">
  <ele>1652.24</ele>
  <time>2026-08-28T19:08:32Z</time>
  <course>25.66</course>
  <speed>0.022360679774997897</speed>
  <fix>3d</fix>
</trkpt>
<trkpt lat="40.0737942" lon="-105.2301178">
  <ele>1651.65</ele>
  <time>2026-08-28T19:08:32Z</time>
  <course>334.53</course>
  <speed>0.0</speed>
  <fix>3d</fix>
</trkpt>
<trkpt lat="40.0737943" lon="-105.2301178">
  <ele>1652.3</ele>
  <time>2026-08-28T19:08:32Z</time>
  <course>25.66</course>
  <speed>0.02</speed>
  <fix>3d</fix>
</trkpt>
<trkpt lat="40.0737944" lon="-105.2301178">
  <ele>1652.73</ele>
  <time>2026-08-28T19:08:32Z</time>
  <course>25.66</course>
  <speed>0.02</speed>
  <fix>3d</fix>
</trkpt>
<trkpt lat="40.0737942" lon="-105.2301178">
  <ele>1652.14</ele>
  <time>2026-08-28T19:08:32Z</time>
  <course>343.94</course>
  <speed>0.0</speed>
  <fix>3d</fix>
</trkpt>
<trkpt lat="40.0737944" lon="-105.2301178">
  <ele>1652.79</ele>
  <time>2026-08-28T19:08:32Z</time>
  <course>25.66</course>
  <speed>0.02</speed>
  <fix>3d</fix>
</trkpt>
<trkpt lat="40.0737944" lon="-105.2301178">
  <ele>1653.22</ele>
  <time>2026-08-28T19:08:32Z</time>
  <course>25.66</course>
  <speed>0.02</speed>
  <fix>3d</fix>
</trkpt>
<trkpt lat="40.0737942" lon="-105.2301178">
  <ele>1652.64</ele>
  <time>2026-08-28T19:08:32Z</time>
  <course>354.25</course>
  <speed>0.0</speed>
  <fix>3d</fix>
</trkpt>
<trkpt lat="40.0737944" lon="-105.2301178">
  <ele>1653.28</ele>
  <time>2026-08-28T19:08:32Z</time>
  <course>25.66</course>
  <speed>0.02</speed>
  <fix>3d</fix>
</trkpt>
<trkpt lat="40.0737944" lon="-105.2301178">
  <ele>1653.72</ele>
  <time>2026-08-28T19:08:32Z</time>
  <course>25.67</course>
  <speed>0.02</speed>
  <fix>3d</fix>
</trkpt>
<trkpt lat="40.0737942" lon="-105.2301178">
  <ele>1653.14</ele>
  <time>2026-08-28T19:08:32Z</time>
  <course>4.93</course>
  <speed>0.0</speed>
  <fix>3d</fix>
</trkpt>
<trkpt lat="40.0737944" lon="-105.2301178">
  <ele>1653.78</ele>
  <time>2026-08-28T19:08:32Z</time>
  <course>25.67</course>
  <speed>0.02</speed>
  <fix>3d</fix>
</trkpt>
<trkpt lat="40.0737944" lon="-105.2301178">
  <ele>1654.21</ele>
  <time>2026-08-28T19:08:32Z</time>
  <course>25.65</course>
  <speed>0.02</speed>
  <fix>3d</fix>
</trkpt>
<trkpt lat="40.0737943" lon="-105.2301178">
  <ele>1653.63</ele>
  <time>2026-08-28T19:08:32Z</time>
  <course>16.35</course>
  <speed>0.0</speed>
  <fix>3d</fix>
</trkpt>
<trkpt lat="40.0737943" lon="-105.2301178">
  <ele>1654.22</ele>
  <time>2026-08-28T19:08:32Z</time>
  <course>25.65</course>
  <speed>0.02</speed>
  <fix>3d</fix>
</trkpt>
<trkpt lat="40.0737944" lon="-105.2301178">
  <ele>1654.71</ele>
  <time>2026-08-28T19:08:32Z</time>
  <course>25.66</course>
  <speed>0.02</speed>
  <fix>3d</fix>
</trkpt>
<trkpt lat="40.0737944" lon="-105.2301178">
  <ele>1654.13</ele>
  <time>2026-08-28T19:08:32Z</time>
  <course>22.61</course>
  <speed>0.0</speed>
  <fix>3d</fix>
</trkpt>
<trkpt lat="40.0737944" lon="-105.2301178">
  <ele>1654.77</ele>
  <time>2026-08-28T19:08:32Z</time>
  <course>25.67</course>
  <speed>0.02</speed>
  <fix>3d</fix>
</trkpt>
<trkpt lat="40.0737944" lon="-105.2301178">
  <ele>1655.21</ele>
  <time>2026-08-28T19:08:32Z</time>
  <course>25.7</course>
  <speed>0.02</speed>
  <fix>3d</fix>
</trkpt>
<trkpt lat="40.0737944" lon="-105.2301178">
  <ele>1654.63</ele>
  <time>2026-08-28T19:08:32Z</time>
  <course>20.31</course>
  <speed>0.0</speed>
  <fix>3d</fix>
</trkpt>
<trkpt lat="40.0737944" lon="-105.2301178">
  <ele>1655.27</ele>
  <time>2026-08-28T19:08:32Z</time>
  <course>25.7</course>
  <speed>0.02</speed>
  <fix>3d</fix>
</trkpt>
<trkpt lat="40.0737944" lon="-105.2301178">
  <ele>1655.71</ele>
  <time>2026-08-28T19:08:32Z</time>
  <course>25.67</course>
  <speed>0.02</speed>
  <fix>3d</fix>
</trkpt>
<trkpt lat="40.0737944" lon="-105.2301178">
  <ele>1655.13</ele>
  <time>2026-08-28T19:08:32Z</time>
  <course>28.37</course>
  <speed>0.0</speed>
  <fix>3d</fix>
</trkpt>
<trkpt lat="40.0737944" lon="-105.2301178">
  <ele>1655.77</ele>
  <time>2026-08-28T19:08:32Z</time>
  <course>25.67</course>
  <speed>0.02</speed>
  <fix>3d</fix>
</trkpt>
<trkpt lat="40.0737944" lon="-105.2301178">
  <ele>1656.21</ele>
  <time>2026-08-28T19:08:32Z</time>
  <course>25.68</course>
  <speed>0.02</speed>
  <fix>3d</fix>
</trkpt>
<trkpt lat="40.0737944" lon="-105.2301178">
  <ele>1655.64</ele>
  <time>2026-08-28T19:08:32Z</time>
  <course>59.55</course>
  <speed>0.0</speed>
  <fix>3d</fix>
</trkpt>
<trkpt lat="40.0737944" lon="-105.2301178">
  <ele>1656.21</ele>
  <time>2026-08-28T19:08:32Z</time>
  <course>25.68</course>
  <speed>0.02</speed>
  <fix>3d</fix>
</trkpt>
<trkpt lat="40.0737944" lon="-105.2301178">
  <ele>1656.71</ele>
  <time>2026-08-28T19:08:32Z</time>
  <course>25.69</course>
  <speed>0.01</speed>
  <fix>3d</fix>
</trkpt>
<trkpt lat="40.0737944" lon="-105.2301178">
  <ele>1656.14</ele>
  <time>2026-08-28T19:08:32Z</time>
  <course>144.08</course>
  <speed>0.0</speed>
  <fix>3d</fix>
</trkpt>
<trkpt lat="40.0737944" lon="-105.2301178">
  <ele>1656.77</ele>
  <time>2026-08-28T19:08:32Z</time>
  <course>25.7</course>
  <speed>0.01</speed>
  <fix>3d</fix>
</trkpt>
<trkpt lat="40.0737944" lon="-105.2301178">
  <ele>1657.21</ele>
  <time>2026-08-28T19:08:32Z</time>
  <course>25.71</course>
  <speed>0.01</speed>
  <fix>3d</fix>
</trkpt>
<trkpt lat="40.0737944" lon="-105.2301178">
  <ele>1656.64</ele>
  <time>2026-08-28T19:08:32Z</time>
  <course>174.93</course>
  <speed>0.0</speed>
  <fix>3d</fix>
</trkpt>
<trkpt lat="40.0737944" lon="-105.2301178">
  <ele>1657.29</ele>
  <time>2026-08-28T19:08:32Z</time>
  <course>25.72</course>
  <speed>0.01</speed>
  <fix>3d</fix>
</trkpt>
<trkpt lat="40.0737944" lon="-105.2301178">
  <ele>1657.71</ele>
  <time>2026-08-28T19:08:32Z</time>
  <course>25.73</course>
  <speed>0.01</speed>
  <fix>3d</fix>
</trkpt>
<trkpt lat="40.0737944" lon="-105.2301178">
  <ele>1657.15</ele>
  <time>2026-08-28T19:08:32Z</time>
  <course>173.15</course>
  <speed>0.0</speed>
  <fix>3d</fix>
</trkpt>
<trkpt lat="40.0737944" lon="-105.2301178">
  <ele>1657.79</ele>
  <time>2026-08-28T19:08:32Z</time>
  <course>25.73</course>
  <speed>0.01</speed>
  <fix>3d</fix>
</trkpt>
<trkpt lat="40.0737944" lon="-105.2301178">
  <ele>1658.22</ele>
  <time>2026-08-28T19:08:32Z</time>
  <course>25.76</course>
  <speed>0.01</speed>
  <fix>3d</fix>
</trkpt>
<trkpt lat="40.0737944" lon="-105.2301178">
  <ele>1657.65</ele>
  <time>2026-08-28T19:08:32Z</time>
  <course>170.97</course>
  <speed>0.0</speed>
  <fix>3d</fix>
</trkpt>
<trkpt lat="40.0737944" lon="-105.2301178">
  <ele>1658.28</ele>
  <time>2026-08-28T19:08:32Z</time>
  <course>25.77</course>
  <speed>0.01</speed>
  <fix>3d</fix>
</trkpt>
<trkpt lat="40.0737944" lon="-105.2301178">
  <ele>1658.72</ele>
  <time>2026-08-28T19:08:32Z</time>
  <course>25.79</course>
  <speed>0.01</speed>
  <fix>3d</fix>
</trkpt>
<trkpt lat="40.0737944" lon="-105.2301178">
  <ele>1658.15</ele>
  <time>2026-08-28T19:08:32Z</time>
  <course>171.62</course>
  <speed>0.0</speed>
  <fix>3d</fix>
</trkpt>
<trkpt lat="40.0737944" lon="-105.2301178">
  <ele>1658.73</ele>
  <time>2026-08-28T19:08:32Z</time>
  <course>25.79</course>
  <speed>0.01</speed>
  <fix>3d</fix>
</trkpt>
<trkpt lat="40.0737944" lon="-105.2301178">
  <ele>1659.23</ele>
  <time>2026-08-28T19:08:32Z</time>
  <course>25.8</course>
  <speed>0.01</speed>
  <fix>3d</fix>
</trkpt>
<trkpt lat="40.0737944" lon="-105.2301178">
  <ele>1658.65</ele>
  <time>2026-08-28T19:08:32Z</time>
  <course>172.02</course>
  <speed>0.0</speed>
  <fix>3d</fix>
</trkpt>
<trkpt lat="40.0737944" lon="-105.2301178">
  <ele>1659.3</ele>
  <time>2026-08-28T19:08:32Z</time>
  <course>25.81</course>
  <speed>0.01</speed>
  <fix>3d</fix>
</trkpt>
<trkpt lat="40.0737944" lon="-105.2301178">
  <ele>1659.73</ele>
  <time>2026-08-28T19:08:32Z</time>
  <course>25.81</course>
  <speed>0.01</speed>
  <fix>3d</fix>
</trkpt>
<trkpt lat="40.0737944" lon="-105.2301178">
  <ele>1659.16</ele>
  <time>2026-08-28T19:08:32Z</time>
  <course>171.95</course>
  <speed>0.01</speed>
  <fix>3d</fix>
</trkpt>
<trkpt lat="40.0737944" lon="-105.2301178">
  <ele>1659.78</ele>
  <time>2026-08-28T19:08:32Z</time>
  <course>25.82</course>
  <speed>0.01</speed>
  <fix>3d</fix>
</trkpt>
<trkpt lat="40.0737944" lon="-105.2301178">
  <ele>1660.22</ele>
  <time>2026-08-28T19:08:32Z</time>
  <course>25.82</course>
  <speed>0.01</speed>
  <fix>3d</fix>
</trkpt>
<trkpt lat="40.0737944" lon="-105.2301178">
  <ele>1659.66</ele>
  <time>2026-08-28T19:08:32Z</time>
  <course>171.73</course>
  <speed>0.01</speed>
  <fix>3d</fix>
</trkpt>
<trkpt lat="40.0737944" lon="-105.2301178">
  <ele>1660.3</ele>
  <time>2026-08-28T19:08:32Z</time>
  <course>25.83</course>
  <speed>0.01</speed>
  <fix>3d</fix>
</trkpt>
<trkpt lat="40.0737944" lon="-105.2301178">
  <ele>1660.72</ele>
  <time>2026-08-28T19:08:32Z</time>
  <course>25.82</course>
  <speed>0.01</speed>
  <fix>3d</fix>
</trkpt>
<trkpt lat="40.0737944" lon="-105.2301178">
  <ele>1660.16</ele>
  <time>2026-08-28T19:08:32Z</time>
  <course>170.91</course>
  <speed>0.01</speed>
  <fix>3d</fix>
</trkpt>
<trkpt lat="40.0737944" lon="-105.2301178">
  <ele>1660.79</ele>
  <time>2026-08-28T19:08:32Z</time>
  <course>25.82</course>
  <speed>0.01</speed>
  <fix>3d</fix>
</trkpt>
<trkpt lat="40.0737944" lon="-105.2301178">
  <ele>1661.23</ele>
  <time>2026-08-28T19:08:32Z</time>
  <course>25.85</course>
  <speed>0.01</speed>
  <fix>3d</fix>
</trkpt>
<trkpt lat="40.0737943" lon="-105.2301178">
  <ele>1660.65</ele>
  <time>2026-08-28T19:08:32Z</time>
  <course>169.36</course>
  <speed>0.01</speed>
  <fix>3d</fix>
</trkpt>
<trkpt lat="40.0737944" lon="-105.2301178">
  <ele>1661.29</ele>
  <time>2026-08-28T19:08:32Z</time>
  <course>25.85</course>
  <speed>0.01</speed>
  <fix>3d</fix>
</trkpt>
<trkpt lat="40.0737944" lon="-105.2301178">
  <ele>1661.73</ele>
  <time>2026-08-28T19:08:32Z</time>
  <course>25.86</course>
  <speed>0.01</speed>
  <fix>3d</fix>
</trkpt>
<trkpt lat="40.0737942" lon="-105.2301178">
  <ele>1661.15</ele>
  <time>2026-08-28T19:08:32Z</time>
  <course>166.68</course>
  <speed>0.01</speed>
  <fix>3d</fix>
</trkpt>
<trkpt lat="40.0737944" lon="-105.2301178">
  <ele>1661.74</ele>
  <time>2026-08-28T19:08:32Z</time>
  <course>25.86</course>
  <speed>0.01</speed>
  <fix>3d</fix>
</trkpt>
<trkpt lat="40.0737944" lon="-105.2301178">
  <ele>1662.23</ele>
  <time>2026-08-28T19:08:32Z</time>
  <course>25.87</course>
  <speed>0.01</speed>
  <fix>3d</fix>
</trkpt>
<trkpt lat="40.0737942" lon="-105.2301178">
  <ele>1661.65</ele>
  <time>2026-08-28T19:08:32Z</time>
  <course>162.89</course>
  <speed>0.01</speed>
  <fix>3d</fix>
</trkpt>
<trkpt lat="40.0737944" lon="-105.2301178">
  <ele>1662.28</ele>
  <time>2026-08-28T19:08:32Z</time>
  <course>25.88</course>
  <speed>0.01</speed>
  <fix>3d</fix>
</trkpt>
<trkpt lat="40.0737944" lon="-105.2301178">
  <ele>1662.72</ele>
  <time>2026-08-28T19:08:32Z</time>
  <course>25.88</course>
  <speed>0.01</speed>
  <fix>3d</fix>
</trkpt>
<trkpt lat="40.0737942" lon="-105.2301178">
  <ele>1662.15</ele>
  <time>2026-08-28T19:08:32Z</time>
  <course>158.3</course>
  <speed>0.01</speed>
  <fix>3d</fix>
</trkpt>
<trkpt lat="40.0737944" lon="-105.2301178">
  <ele>1662.8</ele>
  <time>2026-08-28T19:08:32Z</time>
  <course>25.88</course>
  <speed>0.01</speed>
  <fix>3d</fix>
</trkpt>
<trkpt lat="40.0737944" lon="-105.2301178">
  <ele>1663.22</ele>
  <time>2026-08-28T19:08:32Z</time>
  <course>25.87</course>
  <speed>0.01</speed>
  <fix>3d</fix>
</trkpt>
<trkpt lat="40.0737942" lon="-105.2301178">
  <ele>1662.65</ele>
  <time>2026-08-28T19:08:32Z</time>
  <course>152.87</course>
  <speed>0.01</speed>
  <fix>3d</fix>
</trkpt>
<trkpt lat="40.0737944" lon="-105.2301178">
  <ele>1663.29</ele>
  <time>2026-08-28T19:08:32Z</time>
  <course>25.88</course>
  <speed>0.01</speed>
  <fix>3d</fix>
</trkpt>
<trkpt lat="40.0737944" lon="-105.2301178">
  <ele>1663.72</ele>
  <time>2026-08-28T19:08:32Z</time>
  <course>25.88</course>
  <speed>0.01</speed>
  <fix>3d</fix>
</trkpt>
<trkpt lat="40.0737942" lon="-105.2301178">
  <ele>1663.15</ele>
  <time>2026-08-28T19:08:32Z</time>
  <course>147.93</course>
  <speed>0.0</speed>
  <fix>3d</fix>
</trkpt>
<trkpt lat="40.0737944" lon="-105.2301178">
  <ele>1663.79</ele>
  <time>2026-08-28T19:08:32Z</time>
  <course>25.88</course>
  <speed>0.01</speed>
  <fix>3d</fix>
</trkpt>
<trkpt lat="40.0737944" lon="-105.2301178">
  <ele>1664.22</ele>
  <time>2026-08-28T19:08:32Z</time>
  <course>25.89</course>
  <speed>0.01</speed>
  <fix>3d</fix>
</trkpt>
<trkpt lat="40.0737941" lon="-105.2301178">
  <ele>1663.65</ele>
  <time>2026-08-28T19:08:32Z</time>
  <course>146.56</course>
  <speed>0.0</speed>
  <fix>3d</fix>
</trkpt>
<trkpt lat="40.0737944" lon="-105.2301178">
  <ele>1664.23</ele>
  <time>2026-08-28T19:08:32Z</time>
  <course>25.89</course>
  <speed>0.01</speed>
  <fix>3d</fix>
</trkpt>
<trkpt lat="40.0737944" lon="-105.2301178">
  <ele>1664.72</ele>
  <time>2026-08-28T19:08:32Z</time>
  <course>25.91</course>
  <speed>0.022360679774997897</speed>
  <fix>3d</fix>
</trkpt>
<trkpt lat="40.0737941" lon="-105.2301178">
  <ele>1664.15</ele>
  <time>2026-08-28T19:08:32Z</time>
  <course>148.23</course>
  <speed>0.0</speed>
  <fix>3d</fix>
</trkpt>
<trkpt lat="40.0737944" lon="-105.2301178">
  <ele>1664.79</ele>
  <time>2026-08-28T19:08:32Z</time>
  <course>25.91</course>
  <speed>0.022360679774997897</speed>
  <fix>3d</fix>
</trkpt>
<trkpt lat="40.0737944" lon="-105.2301178">
  <ele>1665.22</ele>
  <time>2026-08-28T19:08:32Z</time>
  <course>25.91</course>
  <speed>0.022360679774997897</speed>
  <fix>3d</fix>
</trkpt>
<trkpt lat="40.0737941" lon="-105.2301178">
  <ele>1664.65</ele>
  <time>2026-08-28T19:08:32Z</time>
  <course>140.99</course>
  <speed>0.0</speed>
  <fix>3d</fix>
</trkpt>
<trkpt lat="40.0737944" lon="-105.2301178">
  <ele>1665.28</ele>
  <time>2026-08-28T19:08:32Z</time>
  <course>25.9</course>
  <speed>0.022360679774997897</speed>
  <fix>3d</fix>
</trkpt>
<trkpt lat="40.0737944" lon="-105.2301178">
  <ele>1665.72</ele>
  <time>2026-08-28T19:08:32Z</time>
  <course>25.91</course>
  <speed>0.022360679774997897</speed>
  <fix>3d</fix>
</trkpt>
<trkpt lat="40.0737941" lon="-105.2301178">
  <ele>1665.15</ele>
  <time>2026-08-28T19:08:32Z</time>
  <course>98.28</course>
  <speed>0.0</speed>
  <fix>3d</fix>
</trkpt>
<trkpt lat="40.0737943" lon="-105.2301178">
  <ele>1665.77</ele>
  <time>2026-08-28T19:08:32Z</time>
  <course>25.92</course>
  <speed>0.022360679774997897</speed>
  <fix>3d</fix>
</trkpt>
<trkpt lat="40.0737943" lon="-105.2301178">
  <ele>1666.22</ele>
  <time>2026-08-28T19:08:32Z</time>
  <course>25.92</course>
  <speed>0.022360679774997897</speed>
  <fix>3d</fix>
</trkpt>
<trkpt lat="40.0737941" lon="-105.2301178">
  <ele>1665.65</ele>
  <time>2026-08-28T19:08:32Z</time>
  <course>46.12</course>
  <speed>0.0</speed>
  <fix>3d</fix>
</trkpt>
<trkpt lat="40.0737943" lon="-105.2301178">
  <ele>1666.23</ele>
  <time>2026-08-28T19:08:32Z</time>
  <course>25.92</course>
  <speed>0.022360679774997897</speed>
  <fix>3d</fix>
</trkpt>
<trkpt lat="40.0737943" lon="-105.2301178">
  <ele>1666.73</ele>
  <time>2026-08-28T19:08:32Z</time>
  <course>25.95</course>
  <speed>0.022360679774997897</speed>
  <fix>3d</fix>
</trkpt>
<trkpt lat="40.0737941" lon="-105.2301178">
  <ele>1666.15</ele>
  <time>2026-08-28T19:08:32Z</time>
  <course>24.77</course>
  <speed>0.0</speed>
  <fix>3d</fix>
</trkpt>
<trkpt lat="40.0737943" lon="-105.2301178">
  <ele>1666.8</ele>
  <time>2026-08-28T19:08:32Z</time>
  <course>25.94</course>
  <speed>0.022360679774997897</speed>
  <fix>3d</fix>
</trkpt>
<trkpt lat="40.0737943" lon="-105.2301178">
  <ele>1667.23</ele>
  <time>2026-08-28T19:08:32Z</time>
  <course>25.96</course>
  <speed>0.022360679774997897</speed>
  <fix>3d</fix>
</trkpt>
<trkpt lat="40.0737941" lon="-105.2301178">
  <ele>1666.66</ele>
  <time>2026-08-28T19:08:32Z</time>
  <course>16.9</course>
  <speed>0.0</speed>
  <fix>3d</fix>
</trkpt>
<trkpt lat="40.0737943" lon="-105.2301178">
  <ele>1667.23</ele>
  <time>2026-08-28T19:08:32Z</time>
  <course>25.96</course>
  <speed>0.022360679774997897</speed>
  <fix>3d</fix>
</trkpt>
<trkpt lat="40.0737943" lon="-105.2301178">
  <ele>1667.72</ele>
  <time>2026-08-28T19:08:32Z</time>
  <course>25.97</course>
  <speed>0.02</speed>
  <fix>3d</fix>
</trkpt>
<trkpt lat="40.0737941" lon="-105.2301178">
  <ele>1667.16</ele>
  <time>2026-08-28T19:08:32Z</time>
  <course>15.73</course>
  <speed>0.0</speed>
  <fix>3d</fix>
</trkpt>
<trkpt lat="40.0737943" lon="-105.2301178">
  <ele>1667.8</ele>
  <time>2026-08-28T19:08:32Z</time>
  <course>25.97</course>
  <speed>0.02</speed>
  <fix>3d</fix>
</trkpt>
<trkpt lat="40.0737943" lon="-105.2301178">
  <ele>1668.22</ele>
  <time>2026-08-28T19:08:32Z</time>
  <course>25.98</course>
  <speed>0.02</speed>
  <fix>3d</fix>
</trkpt>
<trkpt lat="40.0737941" lon="-105.2301178">
  <ele>1667.66</ele>
  <time>2026-08-28T19:08:32Z</time>
  <course>15.17</course>
  <speed>0.0</speed>
  <fix>3d</fix>
</trkpt>
<trkpt lat="40.0737943" lon="-105.2301178">
  <ele>1668.28</ele>
  <time>2026-08-28T19:08:32Z</time>
  <course>25.97</course>
  <speed>0.02</speed>
  <fix>3d</fix>
</trkpt>
<trkpt lat="40.0737943" lon="-105.2301178">
  <ele>1668.72</ele>
  <time>2026-08-28T19:08:32Z</time>
  <course>25.97</course>
  <speed>0.02</speed>
  <fix>3d</fix>
</trkpt>
<trkpt lat="40.0737941" lon="-105.2301178">
  <ele>1668.16</ele>
  <time>2026-08-28T19:08:32Z</time>
  <course>15.89</course>
  <speed>0.0</speed>
  <fix>3d</fix>
</trkpt>
<trkpt lat="40.0737943" lon="-105.2301178">
  <ele>1668.73</ele>
  <time>2026-08-28T19:08:32Z</time>
  <course>25.97</course>
  <speed>0.02</speed>
  <fix>3d</fix>
</trkpt>
<trkpt lat="40.0737943" lon="-105.2301178">
  <ele>1669.22</ele>
  <time>2026-08-28T19:08:32Z</time>
  <course>25.98</course>
  <speed>0.02</speed>
  <fix>3d</fix>
</trkpt>
<trkpt lat="40.0737941" lon="-105.2301178">
  <ele>1668.66</ele>
  <time>2026-08-28T19:08:32Z</time>
  <course>16.39</course>
  <speed>0.0</speed>
  <fix>3d</fix>
</trkpt>
<trkpt lat="40.0737943" lon="-105.2301178">
  <ele>1669.31</ele>
  <time>2026-08-28T19:08:32Z</time>
  <course>25.98</course>
  <speed>0.02</speed>
  <fix>3d</fix>
</trkpt>
<trkpt lat="40.0737943" lon="-105.2301178">
  <ele>1669.72</ele>
  <time>2026-08-28T19:08:32Z</time>
  <course>25.99</course>
  <speed>0.02</speed>
  <fix>3d</fix>
</trkpt>
<trkpt lat="40.0737941" lon="-105.2301178">
  <ele>1669.16</ele>
  <time>2026-08-28T19:08:32Z</time>
  <course>16.38</course>
  <speed>0.01</speed>
  <fix>3d</fix>
</trkpt>
<trkpt lat="40.0737943" lon="-105.2301178">
  <ele>1669.73</ele>
  <time>2026-08-28T19:08:32Z</time>
  <course>25.99</course>
  <speed>0.02</speed>
  <fix>3d</fix>
</trkpt>
<trkpt lat="40.0737943" lon="-105.2301178">
  <ele>1670.22</ele>
  <time>2026-08-28T19:08:32Z</time>
  <course>26.0</course>
  <speed>0.02</speed>
  <fix>3d</fix>
</trkpt>
<trkpt lat="40.0737941" lon="-105.2301178">
  <ele>1669.66</ele>
  <time>2026-08-28T19:08:32Z</time>
  <course>17.76</course>
  <speed>0.01</speed>
  <fix>3d</fix>
</trkpt>
<trkpt lat="40.0737943" lon="-105.2301178">
  <ele>1670.29</ele>
  <time>2026-08-28T19:08:32Z</time>
  <course>25.99</course>
  <speed>0.02</speed>
  <fix>3d</fix>
</trkpt>
<trkpt lat="40.0737943" lon="-105.2301178">
  <ele>1670.72</ele>
  <time>2026-08-28T19:08:32Z</time>
  <course>26.01</course>
  <speed>0.02</speed>
  <fix>3d</fix>
</trkpt>
<trkpt lat="40.0737941" lon="-105.2301178">
  <ele>1670.16</ele>
  <time>2026-08-28T19:08:32Z</time>
  <course>17.49</course>
  <speed>0.01</speed>
  <fix>3d</fix>
</trkpt>
<trkpt lat="40.0737943" lon="-105.2301178">
  <ele>1670.78</ele>
  <time>2026-08-28T19:08:32Z</time>
  <course>26.0</course>
  <speed>0.02</speed>
  <fix>3d</fix>
</trkpt>
<trkpt lat="40.0737943" lon="-105.2301178">
  <ele>1671.22</ele>
  <time>2026-08-28T19:08:32Z</time>
  <course>25.98</course>
  <speed>0.02</speed>
  <fix>3d</fix>
</trkpt>
<trkpt lat="40.0737942" lon="-105.2301178">
  <ele>1670.66</ele>
  <time>2026-08-28T19:08:32Z</time>
  <course>15.61</course>
  <speed>0.0</speed>
  <fix>3d</fix>
</trkpt>
<trkpt lat="40.0737943" lon="-105.2301178">
  <ele>1671.22</ele>
  <time>2026-08-28T19:08:32Z</time>
  <course>25.98</course>
  <speed>0.022360679774997897</speed>
  <fix>3d</fix>
</trkpt>
<trkpt lat="40.0737943" lon="-105.2301178">
  <ele>1671.72</ele>
  <time>2026-08-28T19:08:32Z</time>
  <course>26.0</course>
  <speed>0.02</speed>
  <fix>3d</fix>
</trkpt>
<trkpt lat="40.0737942" lon="-105.2301178">
  <ele>1671.16</ele>
  <time>2026-08-28T19:08:32Z</time>
  <course>15.39</course>
  <speed>0.0</speed>
  <fix>3d</fix>
</trkpt>
<trkpt lat="40.0737943" lon="-105.2301178">
  <ele>1671.8</ele>
  <time>2026-08-28T19:08:32Z</time>
  <course>25.99</course>
  <speed>0.02</speed>
  <fix>3d</fix>
</trkpt>
<trkpt lat="40.0737943" lon="-105.2301178">
  <ele>1672.22</ele>
  <time>2026-08-28T19:08:32Z</time>
  <course>26.0</course>
  <speed>0.022360679774997897</speed>
  <fix>3d</fix>
</trkpt>
<trkpt lat="40.0737942" lon="-105.2301178">
  <ele>1671.66</ele>
  <time>2026-08-28T19:08:32Z</time>
  <course>14.71</course>
  <speed>0.0</speed>
  <fix>3d</fix>
</trkpt>
<trkpt lat="40.0737943" lon="-105.2301178">
  <ele>1672.29</ele>
  <time>2026-08-28T19:08:32Z</time>
  <course>26.01</course>
  <speed>0.022360679774997897</speed>
  <fix>3d</fix>
</trkpt>
<trkpt lat="40.0737943" lon="-105.2301178">
  <ele>1672.72</ele>
  <time>2026-08-28T19:08:32Z</time>
  <course>26.04</course>
  <speed>0.022360679774997897</speed>
  <fix>3d</fix>
</trkpt>
<trkpt lat="40.0737942" lon="-105.2301178">
  <ele>1672.16</ele>
  <time>2026-08-28T19:08:32Z</time>
  <course>13.86</course>
  <speed>0.0</speed>
  <fix>3d</fix>
</trkpt>
<trkpt lat="40.0737943" lon="-105.2301178">
  <ele>1672.73</ele>
  <time>2026-08-28T19:08:32Z</time>
  <course>26.04</course>
  <speed>0.022360679774997897</speed>
  <fix>3d</fix>
</trkpt>
<trkpt lat="40.0737943" lon="-105.2301178">
  <ele>1673.22</ele>
  <time>2026-08-28T19:08:32Z</time>
  <course>26.04</course>
  <speed>0.022360679774997897</speed>
  <fix>3d</fix>
</trkpt>
<trkpt lat="40.0737942" lon="-105.2301178">
  <ele>1672.66</ele>
  <time>2026-08-28T19:08:32Z</time>
  <course>14.85</course>
  <speed>0.0</speed>
  <fix>3d</fix>
</trkpt>
<trkpt lat="40.0737943" lon="-105.2301178">
  <ele>1673.29</ele>
  <time>2026-08-28T19:08:32Z</time>
  <course>26.05</course>
  <speed>0.02</speed>
  <fix>3d</fix>
</trkpt>
<trkpt lat="40.0737943" lon="-105.2301178">
  <ele>1673.73</ele>
  <time>2026-08-28T19:08:32Z</time>
  <course>26.05</course>
  <speed>0.022360679774997897</speed>
  <fix>3d</fix>
</trkpt>
<trkpt lat="40.0737942" lon="-105.2301177">
  <ele>1673.17</ele>
  <time>2026-08-28T19:08:32Z</time>
  <course>19.25</course>
  <speed>0.0</speed>
  <fix>3d</fix>
</trkpt>
<trkpt lat="40.0737943" lon="-105.2301178">
  <ele>1673.74</ele>
  <time>2026-08-28T19:08:32Z</time>
  <course>26.05</course>
  <speed>0.022360679774997897</speed>
  <fix>3d</fix>
</trkpt>
<trkpt lat="40.0737943" lon="-105.2301178">
  <ele>1674.23</ele>
  <time>2026-08-28T19:08:32Z</time>
  <course>26.06</course>
  <speed>0.02</speed>
  <fix>3d</fix>
</trkpt>
<trkpt lat="40.0737942" lon="-105.2301176">
  <ele>1673.67</ele>
  <time>2026-08-28T19:08:32Z</time>
  <course>25.99</course>
  <speed>0.0</speed>
  <fix>3d</fix>
</trkpt>
<trkpt lat="40.0737943" lon="-105.2301178">
  <ele>1674.31</ele>
  <time>2026-08-28T19:08:32Z</time>
  <course>26.07</course>
  <speed>0.02</speed>
  <fix>3d</fix>
</trkpt>
<trkpt lat="40.0737943" lon="-105.2301178">
  <ele>1674.73</ele>
  <time>2026-08-28T19:08:32Z</time>
  <course>26.08</course>
  <speed>0.02</speed>
  <fix>3d</fix>
</trkpt>
<trkpt lat="40.0737942" lon="-105.2301176">
  <ele>1674.17</ele>
  <time>2026-08-28T19:08:32Z</time>
  <course>32.07</course>
  <speed>0.0</speed>
  <fix>3d</fix>
</trkpt>
<trkpt lat="40.0737943" lon="-105.2301178">
  <ele>1674.74</ele>
  <time>2026-08-28T19:08:32Z</time>
  <course>26.08</course>
  <speed>0.02</speed>
  <fix>3d</fix>
</trkpt>
<trkpt lat="40.0737943" lon="-105.2301178">
  <ele>1675.23</ele>
  <time>2026-08-28T19:08:32Z</time>
  <course>26.09</course>
  <speed>0.02</speed>
  <fix>3d</fix>
</trkpt>
<trkpt lat="40.0737942" lon="-105.2301176">
  <ele>1674.67</ele>
  <time>2026-08-28T19:08:32Z</time>
  <course>33.85</course>
  <speed>0.0</speed>
  <fix>3d</fix>
</trkpt>
<trkpt lat="40.0737943" lon="-105.2301178">
  <ele>1675.31</ele>
  <time>2026-08-28T19:08:32Z</time>
  <course>26.09</course>
  <speed>0.02</speed>
  <fix>3d</fix>
</trkpt>
<trkpt lat="40.0737943" lon="-105.2301178">
  <ele>1675.74</ele>
  <time>2026-08-28T19:08:32Z</time>
  <course>26.1</course>
  <speed>0.02</speed>
  <fix>3d</fix>
</trkpt>
<trkpt lat="40.0737943" lon="-105.2301176">
  <ele>1675.17</ele>
  <time>2026-08-28T19:08:32Z</time>
  <course>25.56</course>
  <speed>0.0</speed>
  <fix>3d</fix>
</trkpt>
<trkpt lat="40.0737943" lon="-105.2301178">
  <ele>1675.8</ele>
  <time>2026-08-28T19:08:32Z</time>
  <course>26.1</course>
  <speed>0.02</speed>
  <fix>3d</fix>
</trkpt>
<trkpt lat="40.0737944" lon="-105.2301178">
  <ele>1676.24</ele>
  <time>2026-08-28T19:08:32Z</time>
  <course>26.1</course>
  <speed>0.022360679774997897</speed>
  <fix>3d</fix>
</trkpt>
<trkpt lat="40.0737944" lon="-105.2301176">
  <ele>1675.66</ele>
  <time>2026-08-28T19:08:32Z</time>
  <course>1.8</course>
  <speed>0.0</speed>
  <fix>3d</fix>
</trkpt>
<trkpt lat="40.0737944" lon="-105.2301178">
  <ele>1676.25</ele>
  <time>2026-08-28T19:08:32Z</time>
  <course>26.1</course>
  <speed>0.022360679774997897</speed>
  <fix>3d</fix>
</trkpt>
<trkpt lat="40.0737944" lon="-105.2301178">
  <ele>1676.74</ele>
  <time>2026-08-28T19:08:32Z</time>
  <course>26.14</course>
  <speed>0.022360679774997897</speed>
  <fix>3d</fix>
</trkpt>
<trkpt lat="40.0737944" lon="-105.2301176">
  <ele>1676.16</ele>
  <time>2026-08-28T19:08:32Z</time>
  <course>333.58</course>
  <speed>0.0</speed>
  <fix>3d</fix>
</trkpt>
<trkpt lat="40.0737944" lon="-105.2301178">
  <ele>1676.82</ele>
  <time>2026-08-28T19:08:32Z</time>
  <course>26.14</course>
  <speed>0.022360679774997897</speed>
  <fix>3d</fix>
</trkpt>
<trkpt lat="40.0737944" lon="-105.2301178">
  <ele>1677.25</ele>
  <time>2026-08-28T19:08:32Z</time>
  <course>26.13</course>
  <speed>0.022360679774997897</speed>
  <fix>3d</fix>
</trkpt>
<trkpt lat="40.0737944" lon="-105.2301176">
  <ele>1676.66</ele>
  <time>2026-08-28T19:08:32Z</time>
  <course>305.62</course>
  <speed>0.0</speed>
  <fix>3d</fix>
</trkpt>
<trkpt lat="40.0737944" lon="-105.2301178">
  <ele>1677.31</ele>
  <time>2026-08-28T19:08:32Z</time>
  <course>26.13</course>
  <speed>0.022360679774997897</speed>
  <fix>3d</fix>
</trkpt>
<trkpt lat="40.0737944" lon="-105.2301178">
  <ele>1677.74</ele>
  <time>2026-08-28T19:08:32Z</time>
  <course>26.14</course>
  <speed>0.01414213562373095</speed>
  <fix>3d</fix>
</trkpt>
<trkpt lat="40.0737944" lon="-105.2301176">
  <ele>1677.15</ele>
  <time>2026-08-28T19:08:32Z</time>
  <course>272.9</course>
  <speed>0.0</speed>
  <fix>3d</fix>
</trkpt>
<trkpt lat="40.0737944" lon="-105.2301178">
  <ele>1677.81</ele>
  <time>2026-08-28T19:08:32Z</time>
  <course>26.14</course>
  <speed>0.01414213562373095</speed>
  <fix>3d</fix>
</trkpt>
<trkpt lat="40.0737944" lon="-105.2301178">
  <ele>1678.24</ele>
  <time>2026-08-28T19:08:32Z</time>
  <course>26.16</course>
  <speed>0.01414213562373095</speed>
  <fix>3d</fix>
</trkpt>
<trkpt lat="40.0737944" lon="-105.2301176">
  <ele>1677.65</ele>
  <time>2026-08-28T19:08:32Z</time>
  <course>248.01</course>
  <speed>0.0</speed>
  <fix>3d</fix>
</trkpt>
<trkpt lat="40.0737944" lon="-105.2301178">
  <ele>1678.3</ele>
  <time>2026-08-28T19:08:32Z</time>
  <course>26.16</course>
  <speed>0.01414213562373095</speed>
  <fix>3d</fix>
</trkpt>
<trkpt lat="40.0737944" lon="-105.2301178">
  <ele>1678.74</ele>
  <time>2026-08-28T19:08:32Z</time>
  <course>26.13</course>
  <speed>0.01414213562373095</speed>
  <fix>3d</fix>
</trkpt>
<trkpt lat="40.0737944" lon="-105.2301176">
  <ele>1678.14</ele>
  <time>2026-08-28T19:08:32Z</time>
  <course>229.87</course>
  <speed>0.0</speed>
  <fix>3d</fix>
</trkpt>
<trkpt lat="40.0737944" lon="-105.2301178">
  <ele>1678.81</ele>
  <time>2026-08-28T19:08:32Z</time>
  <course>26.14</course>
  <speed>0.01414213562373095</speed>
  <fix>3d</fix>
</trkpt>
<trkpt lat="40.0737944" lon="-105.2301178">
  <ele>1679.23</ele>
  <time>2026-08-28T19:08:32Z</time>
  <course>26.13</course>
  <speed>0.01414213562373095</speed>
  <fix>3d</fix>
</trkpt>
<trkpt lat="40.0737944" lon="-105.2301176">
  <ele>1678.64</ele>
  <time>2026-08-28T19:08:32Z</time>
  <course>219.78</course>
  <speed>0.0</speed>
  <fix>3d</fix>
</trkpt>
<trkpt lat="40.0737944" lon="-105.2301178">
  <ele>1679.3</ele>
  <time>2026-08-28T19:08:32Z</time>
  <course>26.13</course>
  <speed>0.01414213562373095</speed>
  <fix>3d</fix>
</trkpt>
<trkpt lat="40.0737944" lon="-105.2301178">
  <ele>1679.72</ele>
  <time>2026-08-28T19:08:32Z</time>
  <course>26.12</course>
  <speed>0.01414213562373095</speed>
  <fix>3d</fix>
</trkpt>
<trkpt lat="40.0737944" lon="-105.2301176">
  <ele>1679.13</ele>
  <time>2026-08-28T19:08:32Z</time>
  <course>215.37</course>
  <speed>0.0</speed>
  <fix>3d</fix>
</trkpt>
<trkpt lat="40.0737944" lon="-105.2301178">
  <ele>1679.73</ele>
  <time>2026-08-28T19:08:32Z</time>
  <course>26.12</course>
  <speed>0.01414213562373095</speed>
  <fix>3d</fix>
</trkpt>
<trkpt lat="40.0737944" lon="-105.2301178">
  <ele>1680.22</ele>
  <time>2026-08-28T19:08:32Z</time>
  <course>26.12</course>
  <speed>0.01414213562373095</speed>
  <fix>3d</fix>
</trkpt>
<trkpt lat="40.0737944" lon="-105.2301176">
  <ele>1679.63</ele>
  <time>2026-08-28T19:08:32Z</time>
  <course>213.43</course>
  <speed>0.01</speed>
  <fix>3d</fix>
</trkpt>
<trkpt lat="40.0737944" lon="-105.2301178">
  <ele>1680.3</ele>
  <time>2026-08-28T19:08:32Z</time>
  <course>26.12</course>
  <speed>0.01414213562373095</speed>
  <fix>3d</fix>
</trkpt>
<trkpt lat="40.0737944" lon="-105.2301178">
  <ele>1680.71</ele>
  <time>2026-08-28T19:08:32Z</time>
  <course>26.11</course>
  <speed>0.01414213562373095</speed>
  <fix>3d</fix>
</trkpt>
<trkpt lat="40.0737944" lon="-105.2301176">
  <ele>1680.13</ele>
  <time>2026-08-28T19:08:32Z</time>
  <course>212.29</course>
  <speed>0.01</speed>
  <fix>3d</fix>
</trkpt>
<trkpt lat="40.0737944" lon="-105.2301178">
  <ele>1680.79</ele>
  <time>2026-08-28T19:08:32Z</time>
  <course>26.11</course>
  <speed>0.01414213562373095</speed>
  <fix>3d</fix>
</trkpt>
<trkpt lat="40.0737944" lon="-105.2301178">
  <ele>1681.21</ele>
  <time>2026-08-28T19:08:32Z</time>
  <course>26.11</course>
  <speed>0.01414213562373095</speed>
  <fix>3d</fix>
</trkpt>
<trkpt lat="40.0737944" lon="-105.2301176">
  <ele>1680.63</ele>
  <time>2026-08-28T19:08:32Z</time>
  <course>212.02</course>
  <speed>0.01</speed>
  <fix>3d</fix>
</trkpt>
<trkpt lat="40.0737944" lon="-105.2301178">
  <ele>1681.21</ele>
  <time>2026-08-28T19:08:32Z</time>
  <course>26.11</course>
  <speed>0.01414213562373095</speed>
  <fix>3d</fix>
</trkpt>
<trkpt lat="40.0737944" lon="-105.2301178">
  <ele>1681.71</ele>
  <time>2026-08-28T19:08:32Z</time>
  <course>26.11</course>
  <speed>0.01414213562373095</speed>
  <fix>3d</fix>
</trkpt>
<trkpt lat="40.0737944" lon="-105.2301176">
  <ele>1681.13</ele>
  <time>2026-08-28T19:08:32Z</time>
  <course>213.5</course>
  <speed>0.01</speed>
  <fix>3d</fix>
</trkpt>
<trkpt lat="40.0737944" lon="-105.2301178">
  <ele>1681.78</ele>
  <time>2026-08-28T19:08:32Z</time>
  <course>26.11</course>
  <speed>0.01414213562373095</speed>
  <fix>3d</fix>
</trkpt>
<trkpt lat="40.0737944" lon="-105.2301178">
  <ele>1682.21</ele>
  <time>2026-08-28T19:08:32Z</time>
  <course>26.11</course>
  <speed>0.01414213562373095</speed>
  <fix>3d</fix>
</trkpt>
<trkpt lat="40.0737943" lon="-105.2301177">
  <ele>1681.63</ele>
  <time>2026-08-28T19:08:32Z</time>
  <course>214.67</course>
  <speed>0.01</speed>
  <fix>3d</fix>
</trkpt>
<trkpt lat="40.0737944" lon="-105.2301178">
  <ele>1682.28</ele>
  <time>2026-08-28T19:08:32Z</time>
  <course>26.11</course>
  <speed>0.01414213562373095</speed>
  <fix>3d</fix>
</trkpt>
<trkpt lat="40.0737944" lon="-105.2301178">
  <ele>1682.71</ele>
  <time>2026-08-28T19:08:32Z</time>
  <course>26.12</course>
  <speed>0.01414213562373095</speed>
  <fix>3d</fix>
</trkpt>
<trkpt lat="40.0737942" lon="-105.2301178">
  <ele>1682.13</ele>
  <time>2026-08-28T19:08:32Z</time>
  <course>215.43</course>
  <speed>0.01</speed>
  <fix>3d</fix>
</trkpt>
<trkpt lat="40.0737944" lon="-105.2301178">
  <ele>1682.78</ele>
  <time>2026-08-28T19:08:32Z</time>
  <course>26.13</course>
  <speed>0.01414213562373095</speed>
  <fix>3d</fix>
</trkpt>
<trkpt lat="40.0737944" lon="-105.2301178">
  <ele>1683.22</ele>
  <time>2026-08-28T19:08:32Z</time>
  <course>26.15</course>
  <speed>0.01414213562373095</speed>
  <fix>3d</fix>
</trkpt>
<trkpt lat="40.0737942" lon="-105.2301178">
  <ele>1682.64</ele>
  <time>2026-08-28T19:08:32Z</time>
  <course>216.41</course>
  <speed>0.01</speed>
  <fix>3d</fix>
</trkpt>
<trkpt lat="40.0737944" lon="-105.2301178">
  <ele>1683.29</ele>
  <time>2026-08-28T19:08:32Z</time>
  <course>26.14</course>
  <speed>0.01414213562373095</speed>
  <fix>3d</fix>
</trkpt>
<trkpt lat="40.0737944" lon="-105.2301178">
  <ele>1683.72</ele>
  <time>2026-08-28T19:08:32Z</time>
  <course>26.15</course>
  <speed>0.01414213562373095</speed>
  <fix>3d</fix>
</trkpt>
<trkpt lat="40.0737942" lon="-105.2301178">
  <ele>1683.14</ele>
  <time>2026-08-28T19:08:32Z</time>
  <course>216.69</course>
  <speed>0.01</speed>
  <fix>3d</fix>
</trkpt>
<trkpt lat="40.0737944" lon="-105.2301178">
  <ele>1683.73</ele>
  <time>2026-08-28T19:08:32Z</time>
  <course>26.15</course>
  <speed>0.01414213562373095</speed>
  <fix>3d</fix>
</trkpt>
<trkpt lat="40.0737944" lon="-105.2301178">
  <ele>1684.23</ele>
  <time>2026-08-28T19:08:32Z</time>
  <course>26.16</course>
  <speed>0.01414213562373095</speed>
  <fix>3d</fix>
</trkpt>
<trkpt lat="40.0737942" lon="-105.2301178">
  <ele>1683.64</ele>
  <time>2026-08-28T19:08:32Z</time>
  <course>215.5</course>
  <speed>0.01</speed>
  <fix>3d</fix>
</trkpt>
<trkpt lat="40.0737944" lon="-105.2301179">
  <ele>1684.73</ele>
  <time>2026-08-28T19:08:32Z</time>
  <course>25.91</course>
  <speed>0.01</speed>
  <fix>3d</fix>
</trkpt>
<trkpt lat="40.0737942" lon="-105.2301179">
  <ele>1684.15</ele>
  <time>2026-08-28T19:08:32Z</time>
  <course>206.36</course>
  <speed>0.01</speed>
  <fix>3d</fix>
</trkpt>
<trkpt lat="40.0737944" lon="-105.2301179">
  <ele>1685.3</ele>
  <time>2026-08-28T19:08:32Z</time>
  <course>23.93</course>
  <speed>0.01414213562373095</speed>
  <fix>3d</fix>
</trkpt>
<trkpt lat="40.0737941" lon="-105.2301179">
  <ele>1684.66</ele>
  <time>2026-08-28T19:08:32Z</time>
  <course>188.16</course>
  <speed>0.01</speed>
  <fix>3d</fix>
</trkpt>
<trkpt lat="40.0737944" lon="-105.2301179">
  <ele>1686.02</ele>
  <time>2026-08-28T19:08:32Z</time>
  <course>21.3</course>
  <speed>0.05099019513592785</speed>
  <fix>3d</fix>
</trkpt>
<trkpt lat="40.0737941" lon="-105.2301179">
  <ele>1685.28</ele>
  <time>2026-08-28T19:08:32Z</time>
  <course>234.52</course>
  <speed>0.01</speed>
  <fix>3d</fix>
</trkpt>
<trkpt lat="40.0737943" lon="-105.2301183">
  <ele>1686.68</ele>
  <time>2026-08-28T19:08:32Z</time>
  <course>26.26</course>
  <speed>0.2529822128134704</speed>
  <fix>3d</fix>
</trkpt>
<trkpt lat="40.0737941" lon="-105.230118">
  <ele>1686.0</ele>
  <time>2026-08-28T19:08:32Z</time>
  <course>279.29</course>
  <speed>0.11</speed>
  <fix>3d</fix>
</trkpt>
<trkpt lat="40.0737944" lon="-105.2301189">
  <ele>1686.66</ele>
  <time>2026-08-28T19:08:32Z</time>
  <course>32.02</course>
  <speed>0.2973213749463701</speed>
  <fix>3d</fix>
</trkpt>
<trkpt lat="40.0737941" lon="-105.2301184">
  <ele>1686.47</ele>
  <time>2026-08-28T19:08:32Z</time>
  <course>285.72</course>
  <speed>0.23</speed>
  <fix>3d</fix>
</trkpt>
<trkpt lat="40.0737946" lon="-105.2301196">
  <ele>1686.23</ele>
  <time>2026-08-28T19:08:32Z</time>
  <course>32.73</course>
  <speed>0.3417601498127012</speed>
  <fix>3d</fix>
</trkpt>
<trkpt lat="40.0737942" lon="-105.230119">
  <ele>1686.39</ele>
  <time>2026-08-28T19:08:32Z</time>
  <course>288.74</course>
  <speed>0.29</speed>
  <fix>3d</fix>
</trkpt>
<trkpt lat="40.0737948" lon="-105.2301204">
  <ele>1685.51</ele>
  <time>2026-08-28T19:08:32Z</time>
  <course>32.1</course>
  <speed>0.38626415831655936</speed>
  <fix>3d</fix>
</trkpt>
<trkpt lat="40.0737945" lon="-105.2301196">
  <ele>1685.89</ele>
  <time>2026-08-28T19:08:32Z</time>
  <course>290.89</course>
  <speed>0.34</speed>
  <fix>3d</fix>
</trkpt>
<trkpt lat="40.073795" lon="-105.2301212">
  <ele>1684.61</ele>
  <time>2026-08-28T19:08:32Z</time>
  <course>32.41</course>
  <speed>0.39</speed>
  <fix>3d</fix>
</trkpt>
<trkpt lat="40.0737947" lon="-105.2301205">
  <ele>1685.13</ele>
  <time>2026-08-28T19:08:32Z</time>
  <course>292.28</course>
  <speed>0.37</speed>
  <fix>3d</fix>
</trkpt>
<trkpt lat="40.0737952" lon="-105.230122">
  <ele>1683.59</ele>
  <time>2026-08-28T19:08:32Z</time>
  <course>33.1</course>
  <speed>0.3769615364994153</speed>
  <fix>3d</fix>
</trkpt>
<trkpt lat="40.073795" lon="-105.2301212">
  <ele>1684.21</ele>
  <time>2026-08-28T19:08:32Z</time>
  <course>293.01</course>
  <speed>0.38</speed>
  <fix>3d</fix>
</trkpt>
<trkpt lat="40.0737955" lon="-105.2301227">
  <ele>1682.46</ele>
  <time>2026-08-28T19:08:32Z</time>
  <course>33.96</course>
  <speed>0.3453983207834109</speed>
  <fix>3d</fix>
</trkpt>
<trkpt lat="40.0737953" lon="-105.230122">
  <ele>1683.16</ele>
  <time>2026-08-28T19:08:32Z</time>
  <course>293.37</course>
  <speed>0.36</speed>
  <fix>3d</fix>
</trkpt>
<trkpt lat="40.0737957" lon="-105.2301234">
  <ele>1681.3</ele>
  <time>2026-08-28T19:08:32Z</time>
  <course>34.18</course>
  <speed>0.3138470965295043</speed>
  <fix>3d</fix>
</trkpt>
<trkpt lat="40.0737955" lon="-105.2301228">
  <ele>1682.05</ele>
  <time>2026-08-28T19:08:32Z</time>
  <course>293.54</course>
  <speed>0.33</speed>
  <fix>3d</fix>
</trkpt>
<trkpt lat="40.0737959" lon="-105.230124">
  <ele>1680.11</ele>
  <time>2026-08-28T19:08:32Z</time>
  <course>34.02</course>
  <speed>0.27313000567495327</speed>
  <fix>3d</fix>
</trkpt>
<trkpt lat="40.0737957" lon="-105.2301235">
  <ele>1680.89</ele>
  <time>2026-08-28T19:08:32Z</time>
  <course>293.73</course>
  <speed>0.29</speed>
  <fix>3d</fix>
</trkpt>
<trkpt lat="40.0737961" lon="-105.2301246">
  <ele>1678.9</ele>
  <time>2026-08-28T19:08:32Z</time>
  <course>33.69</course>
  <speed>0.24166091947189144</speed>
  <fix>3d</fix>
</trkpt>
<trkpt lat="40.0737959" lon="-105.2301241">
  <ele>1679.71</ele>
  <time>2026-08-28T19:08:32Z</time>
  <course>294.04</course>
  <speed>0.25</speed>
  <fix>3d</fix>
</trkpt>
<trkpt lat="40.0737962" lon="-105.230125">
  <ele>1677.67</ele>
  <time>2026-08-28T19:08:32Z</time>
  <course>33.36</course>
  <speed>0.2102379604162864</speed>
  <fix>3d</fix>
</trkpt>
<trkpt lat="40.073796" lon="-105.2301246">
  <ele>1678.5</ele>
  <time>2026-08-28T19:08:32Z</time>
  <course>294.45</course>
  <speed>0.22</speed>
  <fix>3d</fix>
</trkpt>
<trkpt lat="40.0737964" lon="-105.2301254">
  <ele>1676.45</ele>
  <time>2026-08-28T19:08:32Z</time>
  <course>33.06</course>
  <speed>0.18788294228055935</speed>
  <fix>3d</fix>
</trkpt>
<trkpt lat="40.0737963" lon="-105.2301251">
  <ele>1677.29</ele>
  <time>2026-08-28T19:08:32Z</time>
  <course>294.93</course>
  <speed>0.19</speed>
  <fix>3d</fix>
</trkpt>
<trkpt lat="40.0737965" lon="-105.2301258">
  <ele>1675.21</ele>
  <time>2026-08-28T19:08:32Z</time>
  <course>32.79</course>
  <speed>0.15652475842498528</speed>
  <fix>3d</fix>
</trkpt>
<trkpt lat="40.0737964" lon="-105.2301255">
  <ele>1676.08</ele>
  <time>2026-08-28T19:08:32Z</time>
  <course>295.45</course>
  <speed>0.16</speed>
  <fix>3d</fix>
</trkpt>
<trkpt lat="40.0737966" lon="-105.230126">
  <ele>1673.97</ele>
  <time>2026-08-28T19:08:32Z</time>
  <course>32.53</course>
  <speed>0.13892443989449804</speed>
  <fix>3d</fix>
</trkpt>
<trkpt lat="40.0737965" lon="-105.2301258">
  <ele>1674.86</ele>
  <time>2026-08-28T19:08:32Z</time>
  <course>296.03</course>
  <speed>0.13</speed>
  <fix>3d</fix>
</trkpt>
<trkpt lat="40.0737967" lon="-105.2301263">
  <ele>1672.73</ele>
  <time>2026-08-28T19:08:32Z</time>
  <course>32.32</course>
  <speed>0.11661903789690602</speed>
  <fix>3d</fix>
</trkpt>
<trkpt lat="40.0737966" lon="-105.2301261">
  <ele>1673.64</ele>
  <time>2026-08-28T19:08:32Z</time>
  <course>296.7</course>
  <speed>0.11</speed>
  <fix>3d</fix>
</trkpt>
<trkpt lat="40.0737968" lon="-105.2301265">
  <ele>1671.49</ele>
  <time>2026-08-28T19:08:32Z</time>
  <course>32.11</course>
  <speed>0.09433981132056603</speed>
  <fix>3d</fix>
</trkpt>
<trkpt lat="40.0737967" lon="-105.2301263">
  <ele>1672.41</ele>
  <time>2026-08-28T19:08:32Z</time>
  <course>297.54</course>
  <speed>0.09</speed>
  <fix>3d</fix>
</trkpt>
<trkpt lat="40.0737969" lon="-105.2301266">
  <ele>1670.26</ele>
  <time>2026-08-28T19:08:32Z</time>
  <course>31.95</course>
  <speed>0.07211102550927978</speed>
  <fix>3d</fix>
</trkpt>
<trkpt lat="40.0737967" lon="-105.2301264">
  <ele>1671.18</ele>
  <time>2026-08-28T19:08:32Z</time>
  <course>298.73</course>
  <speed>0.06</speed>
  <fix>3d</fix>
</trkpt>
<trkpt lat="40.0737969" lon="-105.2301267">
  <ele>1669.02</ele>
  <time>2026-08-28T19:08:32Z</time>
  <course>31.8</course>
  <speed>0.0565685424949238</speed>
  <fix>3d</fix>
</trkpt>
<trkpt lat="40.0737968" lon="-105.2301265">
  <ele>1669.95</ele>
  <time>2026-08-28T19:08:32Z</time>
  <course>300.62</course>
  <speed>0.04</speed>
  <fix>3d</fix>
</trkpt>
<trkpt lat="40.073797" lon="-105.2301267">
  <ele>1667.78</ele>
  <time>2026-08-28T19:08:32Z</time>
  <course>31.65</course>
  <speed>0.03605551275463989</speed>
  <fix>3d</fix>
</trkpt>
<trkpt lat="40.0737969" lon="-105.2301266">
  <ele>1668.73</ele>
  <time>2026-08-28T19:08:32Z</time>
  <course>304.48</course>
  <speed>0.02</speed>
  <fix>3d</fix>
</trkpt>
<trkpt lat="40.073797" lon="-105.2301267">
  <ele>1666.54</ele>
  <time>2026-08-28T19:08:32Z</time>
  <course>31.5</course>
  <speed>0.022360679774997897</speed>
  <fix>3d</fix>
</trkpt>
<trkpt lat="40.0737969" lon="-105.2301267">
  <ele>1667.5</ele>
  <time>2026-08-28T19:08:32Z</time>
  <course>318.34</course>
  <speed>0.01</speed>
  <fix>3d</fix>
</trkpt>
<trkpt lat="40.073797" lon="-105.2301267">
  <ele>1665.31</ele>
  <time>2026-08-28T19:08:32Z</time>
  <course>31.31</course>
  <speed>0.02</speed>
  <fix>3d</fix>
</trkpt>
<trkpt lat="40.0737969" lon="-105.2301267">
  <ele>1666.28</ele>
  <time>2026-08-28T19:08:32Z</time>
  <course>75.35</course>
  <speed>0.0</speed>
  <fix>3d</fix>
</trkpt>
<trkpt lat="40.073797" lon="-105.2301267">
  <ele>1664.08</ele>
  <time>2026-08-28T19:08:32Z</time>
  <course>31.07</course>
  <speed>0.01414213562373095</speed>
  <fix>3d</fix>
</trkpt>
<trkpt lat="40.0737969" lon="-105.2301267">
  <ele>1665.05</ele>
  <time>2026-08-28T19:08:32Z</time>
  <course>102.93</course>
  <speed>0.02</speed>
  <fix>3d</fix>
</trkpt>
<trkpt lat="40.073797" lon="-105.2301267">
  <ele>1662.84</ele>
  <time>2026-08-28T19:08:32Z</time>
  <course>30.83</course>
  <speed>0.022360679774997897</speed>
  <fix>3d</fix>
</trkpt>
<trkpt lat="40.0737969" lon="-105.2301267">
  <ele>1663.82</ele>
  <time>2026-08-28T19:08:32Z</time>
  <course>107.96</course>
  <speed>0.03</speed>
  <fix>3d</fix>
</trkpt>
<trkpt lat="40.073797" lon="-105.2301266">
  <ele>1661.6</ele>
  <time>2026-08-28T19:08:32Z</time>
  <course>30.62</course>
  <speed>0.022360679774997897</speed>
  <fix>3d</fix>
</trkpt>
<trkpt lat="40.0737969" lon="-105.2301266">
  <ele>1662.6</ele>
  <time>2026-08-28T19:08:32Z</time>
  <course>110.17</course>
  <speed>0.04</speed>
  <fix>3d</fix>
</trkpt>
<trkpt lat="40.073797" lon="-105.2301265">
  <ele>1660.36</ele>
  <time>2026-08-28T19:08:32Z</time>
  <course>30.45</course>
  <speed>0.0316227766016838</speed>
  <fix>3d</fix>
</trkpt>
<trkpt lat="40.0737969" lon="-105.2301265">
  <ele>1661.37</ele>
  <time>2026-08-28T19:08:32Z</time>
  <course>111.58</course>
  <speed>0.04</speed>
  <fix>3d</fix>
</trkpt>
<trkpt lat="40.073797" lon="-105.2301264">
  <ele>1659.12</ele>
  <time>2026-08-28T19:08:32Z</time>
  <course>30.27</course>
  <speed>0.03</speed>
  <fix>3d</fix>
</trkpt>
<trkpt lat="40.0737969" lon="-105.2301264">
  <ele>1660.14</ele>
  <time>2026-08-28T19:08:32Z</time>
  <course>112.6</course>
  <speed>0.05</speed>
  <fix>3d</fix>
</trkpt>
<trkpt lat="40.073797" lon="-105.2301263">
  <ele>1657.87</ele>
  <time>2026-08-28T19:08:32Z</time>
  <course>30.15</course>
  <speed>0.03</speed>
  <fix>3d</fix>
</trkpt>
<trkpt lat="40.0737969" lon="-105.2301263">
  <ele>1658.9</ele>
  <time>2026-08-28T19:08:32Z</time>
  <course>113.42</course>
  <speed>0.05</speed>
  <fix>3d</fix>
</trkpt>
<trkpt lat="40.073797" lon="-105.2301262">
  <ele>1656.62</ele>
  <time>2026-08-28T19:08:32Z</time>
  <course>30.01</course>
  <speed>0.0316227766016838</speed>
  <fix>3d</fix>
</trkpt>
<trkpt lat="40.0737968" lon="-105.2301262">
  <ele>1657.67</ele>
  <time>2026-08-28T19:08:32Z</time>
  <course>114.27</course>
  <speed>0.05</speed>
  <fix>3d</fix>
</trkpt>
<trkpt lat="40.0737969" lon="-105.2301261">
  <ele>1655.44</ele>
  <time>2026-08-28T19:08:32Z</time>
  <course>30.01</course>
  <speed>0.08062257748298549</speed>
  <fix>3d</fix>
</trkpt>
<trkpt lat="40.0737967" lon="-105.230126">
  <ele>1656.44</ele>
  <time>2026-08-28T19:08:32Z</time>
  <course>116.46</course>
  <speed>0.06</speed>
  <fix>3d</fix>
</trkpt>
<trkpt lat="40.0737968" lon="-105.2301257">
  <ele>1654.58</ele>
  <time>2026-08-28T19:08:32Z</time>
  <course>30.7</course>
  <speed>0.18027756377319945</speed>
  <fix>3d</fix>
</trkpt>
<trkpt lat="40.0737967" lon="-105.2301258">
  <ele>1655.37</ele>
  <time>2026-08-28T19:08:32Z</time>
  <course>118.52</course>
  <speed>0.13</speed>
  <fix>3d</fix>
</trkpt>
<trkpt lat="40.0737966" lon="-105.2301252">
  <ele>1653.92</ele>
  <time>2026-08-28T19:08:32Z</time>
  <course>31.2</course>
  <speed>0.24698178070456936</speed>
  <fix>3d</fix>
</trkpt>
<trkpt lat="40.0737965" lon="-105.2301255">
  <ele>1654.55</ele>
  <time>2026-08-28T19:08:32Z</time>
  <course>119.1</course>
  <speed>0.22</speed>
  <fix>3d</fix>
</trkpt>
<trkpt lat="40.0737964" lon="-105.2301246">
  <ele>1653.38</ele>
  <time>2026-08-28T19:08:32Z</time>
  <course>31.18</course>
  <speed>0.30463092423455634</speed>
  <fix>3d</fix>
</trkpt>
<trkpt lat="40.0737963" lon="-105.2301249">
  <ele>1653.93</ele>
  <time>2026-08-28T19:08:32Z</time>
  <course>119.17</course>
  <speed>0.29</speed>
  <fix>3d</fix>
</trkpt>
<trkpt lat="40.0737961" lon="-105.2301239">
  <ele>1652.91</ele>
  <time>2026-08-28T19:08:32Z</time>
  <course>30.71</course>
  <speed>0.34928498393145957</speed>
  <fix>3d</fix>
</trkpt>
<trkpt lat="40.073796" lon="-105.2301243">
  <ele>1653.42</ele>
  <time>2026-08-28T19:08:32Z</time>
  <course>119.13</course>
  <speed>0.34</speed>
  <fix>3d</fix>
</trkpt>
<trkpt lat="40.0737957" lon="-105.2301231">
  <ele>1652.47</ele>
  <time>2026-08-28T19:08:32Z</time>
  <course>30.06</course>
  <speed>0.3757658845611187</speed>
  <fix>3d</fix>
</trkpt>
<trkpt lat="40.0737957" lon="-105.2301235">
  <ele>1652.97</ele>
  <time>2026-08-28T19:08:32Z</time>
  <course>119.13</course>
  <speed>0.38</speed>
  <fix>3d</fix>
</trkpt>
<trkpt lat="40.0737954" lon="-105.2301223">
  <ele>1652.06</ele>
  <time>2026-08-28T19:08:32Z</time>
  <course>29.43</course>
  <speed>0.40718546143004664</speed>
  <fix>3d</fix>
</trkpt>
<trkpt lat="40.0737953" lon="-105.2301227">
  <ele>1652.54</ele>
  <time>2026-08-28T19:08:32Z</time>
  <course>119.19</course>
  <speed>0.41</speed>
  <fix>3d</fix>
</trkpt>
<trkpt lat="40.073795" lon="-105.2301214">
  <ele>1651.65</ele>
  <time>2026-08-28T19:08:32Z</time>
  <course>28.95</course>
  <speed>0.4204759208325728</speed>
  <fix>3d</fix>
</trkpt>
<trkpt lat="40.073795" lon="-105.2301218">
  <ele>1652.12</ele>
  <time>2026-08-28T19:08:32Z</time>
  <course>119.33</course>
  <speed>0.44</speed>
  <fix>3d</fix>
</trkpt>
<trkpt lat="40.0737946" lon="-105.2301204">
  <ele>1651.24</ele>
  <time>2026-08-28T19:08:32Z</time>
  <course>28.59</course>
  <speed>0.447213595499958</speed>
  <fix>3d</fix>
</trkpt>
<trkpt lat="40.0737946" lon="-105.2301209">
  <ele>1651.71</ele>
  <time>2026-08-28T19:08:32Z</time>
  <course>119.53</course>
  <speed>0.46</speed>
  <fix>3d</fix>
</trkpt>
<trkpt lat="40.0737941" lon="-105.2301195">
  <ele>1650.84</ele>
  <time>2026-08-28T19:08:32Z</time>
  <course>28.35</course>
  <speed>0.4606517122512408</speed>
  <fix>3d</fix>
</trkpt>
<trkpt lat="40.0737941" lon="-105.23012">
  <ele>1651.3</ele>
  <time>2026-08-28T19:08:32Z</time>
  <course>119.77</course>
  <speed>0.47</speed>
  <fix>3d</fix>
</trkpt>
<trkpt lat="40.0737937" lon="-105.2301185">
  <ele>1650.44</ele>
  <time>2026-08-28T19:08:32Z</time>
  <course>28.18</course>
  <speed>0.4741307836451879</speed>
  <fix>3d</fix>
</trkpt>
<trkpt lat="40.0737937" lon="-105.230119">
  <ele>1650.89</ele>
  <time>2026-08-28T19:08:32Z</time>
  <course>120.04</course>
  <speed>0.49</speed>
  <fix>3d</fix>
</trkpt>
<trkpt lat="40.0737932" lon="-105.2301175">
  <ele>1650.03</ele>
  <time>2026-08-28T19:08:32Z</time>
  <course>28.08</course>
  <speed>0.4741307836451879</speed>
  <fix>3d</fix>
</trkpt>
<trkpt lat="40.0737933" lon="-105.2301179">
  <ele>1650.48</ele>
  <time>2026-08-28T19:08:32Z</time>
  <course>120.31</course>
  <speed>0.5</speed>
  <fix>3d</fix>
</trkpt>
<trkpt lat="40.0737928" lon="-105.2301164">
  <ele>1649.63</ele>
  <time>2026-08-28T19:08:32Z</time>
  <course>28.01</course>
  <speed>0.4876474136094644</speed>
  <fix>3d</fix>
</trkpt>
<trkpt lat="40.0737928" lon="-105.2301169">
  <ele>1650.07</ele>
  <time>2026-08-28T19:08:32Z</time>
  <course>120.59</course>
  <speed>0.51</speed>
  <fix>3d</fix>
</trkpt>
<trkpt lat="40.0737923" lon="-105.2301154">
  <ele>1649.25</ele>
  <time>2026-08-28T19:08:32Z</time>
  <course>27.94</course>
  <speed>0.5011985634456667</speed>
  <fix>3d</fix>
</trkpt>
<trkpt lat="40.0737923" lon="-105.2301158">
  <ele>1649.66</ele>
  <time>2026-08-28T19:08:32Z</time>
  <course>120.86</course>
  <speed>0.52</speed>
  <fix>3d</fix>
</trkpt>
<trkpt lat="40.0737918" lon="-105.2301143">
  <ele>1648.94</ele>
  <time>2026-08-28T19:08:32Z</time>
  <course>27.79</course>
  <speed>0.5283937925449163</speed>
  <fix>3d</fix>
</trkpt>
<trkpt lat="40.0737918" lon="-105.2301148">
  <ele>1649.3</ele>
  <time>2026-08-28T19:08:32Z</time>
  <course>121.08</course>
  <speed>0.54</speed>
  <fix>3d</fix>
</trkpt>
<trkpt lat="40.0737912" lon="-105.2301131">
  <ele>1648.66</ele>
  <time>2026-08-28T19:08:32Z</time>
  <course>27.45</course>
  <speed>0.5420332093147061</speed>
  <fix>3d</fix>
</trkpt>
<trkpt lat="40.0737913" lon="-105.2301137">
  <ele>1648.98</ele>
  <time>2026-08-28T19:08:32Z</time>
  <course>121.29</course>
  <speed>0.56</speed>
  <fix>3d</fix>
</trkpt>
<trkpt lat="40.0737907" lon="-105.230112">
  <ele>1648.39</ele>
  <time>2026-08-28T19:08:32Z</time>
  <course>27.08</course>
  <speed>0.5507267925205745</speed>
  <fix>3d</fix>
</trkpt>
<trkpt lat="40.0737908" lon="-105.2301125">
  <ele>1648.69</ele>
  <time>2026-08-28T19:08:32Z</time>
  <course>121.54</course>
  <speed>0.57</speed>
  <fix>3d</fix>
</trkpt>
<trkpt lat="40.0737901" lon="-105.2301108">
  <ele>1648.13</ele>
  <time>2026-08-28T19:08:32Z</time>
  <course>26.77</course>
  <speed>0.5556977595779922</speed>
  <fix>3d</fix>
</trkpt>
<trkpt lat="40.0737903" lon="-105.2301114">
  <ele>1648.42</ele>
  <time>2026-08-28T19:08:32Z</time>
  <course>121.86</course>
  <speed>0.58</speed>
  <fix>3d</fix>
</trkpt>
<trkpt lat="40.0737896" lon="-105.2301096">
  <ele>1647.87</ele>
  <time>2026-08-28T19:08:32Z</time>
  <course>26.56</course>
  <speed>0.5693856338194704</speed>
  <fix>3d</fix>
</trkpt>
<trkpt lat="40.0737896" lon="-105.2301103">
  <ele>1648.16</ele>
  <time>2026-08-28T19:08:32Z</time>
  <course>122.23</course>
  <speed>0.58</speed>
  <fix>3d</fix>
</trkpt>
<trkpt lat="40.073789" lon="-105.2301085">
  <ele>1647.62</ele>
  <time>2026-08-28T19:08:32Z</time>
  <course>26.44</course>
  <speed>0.5608029957123981</speed>
  <fix>3d</fix>
</trkpt>
<trkpt lat="40.0737891" lon="-105.230109">
  <ele>1647.9</ele>
  <time>2026-08-28T19:08:32Z</time>
  <course>122.64</course>
  <speed>0.59</speed>
  <fix>3d</fix>
</trkpt>
<trkpt lat="40.0737884" lon="-105.2301073">
  <ele>1647.38</ele>
  <time>2026-08-28T19:08:32Z</time>
  <course>26.36</course>
  <speed>0.5660388679233962</speed>
  <fix>3d</fix>
</trkpt>
<trkpt lat="40.0737886" lon="-105.2301079">
  <ele>1647.65</ele>
  <time>2026-08-28T19:08:32Z</time>
  <course>123.07</course>
  <speed>0.59</speed>
  <fix>3d</fix>
</trkpt>
<trkpt lat="40.0737878" lon="-105.2301061">
  <ele>1647.14</ele>
  <time>2026-08-28T19:08:32Z</time>
  <course>26.33</course>
  <speed>0.5660388679233962</speed>
  <fix>3d</fix>
</trkpt>
<trkpt lat="40.0737879" lon="-105.2301067">
  <ele>1647.4</ele>
  <time>2026-08-28T19:08:32Z</time>
  <course>123.52</course>
  <speed>0.59</speed>
  <fix>3d</fix>
</trkpt>
<trkpt lat="40.0737872" lon="-105.230105">
  <ele>1646.91</ele>
  <time>2026-08-28T19:08:32Z</time>
  <course>26.32</course>
  <speed>0.5714017850864661</speed>
  <fix>3d</fix>
</trkpt>
<trkpt lat="40.0737874" lon="-105.2301056">
  <ele>1647.16</ele>
  <time>2026-08-28T19:08:32Z</time>
  <course>123.98</course>
  <speed>0.59</speed>
  <fix>3d</fix>
</trkpt>
<trkpt lat="40.0737866" lon="-105.2301038">
  <ele>1646.68</ele>
  <time>2026-08-28T19:08:32Z</time>
  <course>26.32</course>
  <speed>0.5630275304103699</speed>
  <fix>3d</fix>
</trkpt>
<trkpt lat="40.0737867" lon="-105.2301044">
  <ele>1646.92</ele>
  <time>2026-08-28T19:08:32Z</time>
  <course>124.43</course>
  <speed>0.59</speed>
  <fix>3d</fix>
</trkpt>
<trkpt lat="40.073786" lon="-105.2301027">
  <ele>1646.46</ele>
  <time>2026-08-28T19:08:32Z</time>
  <course>26.32</course>
  <speed>0.5630275304103699</speed>
  <fix>3d</fix>
</trkpt>
<trkpt lat="40.0737862" lon="-105.2301033">
  <ele>1646.69</ele>
  <time>2026-08-28T19:08:32Z</time>
  <course>124.9</course>
  <speed>0.59</speed>
  <fix>3d</fix>
</trkpt>
<trkpt lat="40.0737854" lon="-105.2301016">
  <ele>1646.25</ele>
  <time>2026-08-28T19:08:33Z</time>
  <course>26.32</course>
  <speed>0.560357029044876</speed>
  <fix>3d</fix>
</trkpt>
<trkpt lat="40.0737855" lon="-105.2301022">
  <ele>1646.47</ele>
  <time>2026-08-28T19:08:33Z</time>
  <course>125.36</course>
  <speed>0.58</speed>
  <fix>3d</fix>
</trkpt>
<trkpt lat="40.0737848" lon="-105.2301005">
  <ele>1646.04</ele>
  <time>2026-08-28T19:08:33Z</time>
  <course>26.32</course>
  <speed>0.560357029044876</speed>
  <fix>3d</fix>
</trkpt>
<trkpt lat="40.073785" lon="-105.230101">
  <ele>1646.25</ele>
  <time>2026-08-28T19:08:33Z</time>
  <course>125.84</course>
  <speed>0.58</speed>
  <fix>3d</fix>
</trkpt>
<trkpt lat="40.0737841" lon="-105.2300994">
  <ele>1645.84</ele>
  <time>2026-08-28T19:08:33Z</time>
  <course>26.34</course>
  <speed>0.5521775076911409</speed>
  <fix>3d</fix>
</trkpt>
<trkpt lat="40.0737843" lon="-105.2300999">
  <ele>1646.04</ele>
  <time>2026-08-28T19:08:33Z</time>
  <course>126.32</course>
  <speed>0.57</speed>
  <fix>3d</fix>
</trkpt>
<trkpt lat="40.0737835" lon="-105.2300983">
  <ele>1645.65</ele>
  <time>2026-08-28T19:08:33Z</time>
  <course>26.33</course>
  <speed>0.5440588203494178</speed>
  <fix>3d</fix>
</trkpt>
<trkpt lat="40.0737837" lon="-105.2300988">
  <ele>1645.84</ele>
  <time>2026-08-28T19:08:33Z</time>
  <course>126.81</course>
  <speed>0.57</speed>
  <fix>3d</fix>
</trkpt>
<trkpt lat="40.0737829" lon="-105.2300972">
  <ele>1645.46</ele>
  <time>2026-08-28T19:08:33Z</time>
  <course>26.36</course>
  <speed>0.5360037313302959</speed>
  <fix>3d</fix>
</trkpt>
<trkpt lat="40.0737831" lon="-105.2300978">
  <ele>1645.64</ele>
  <time>2026-08-28T19:08:33Z</time>
  <course>127.31</course>
  <speed>0.56</speed>
  <fix>3d</fix>
</trkpt>
<trkpt lat="40.0737823" lon="-105.2300962">
  <ele>1645.28</ele>
  <time>2026-08-28T19:08:33Z</time>
  <course>26.39</course>
  <speed>0.5360037313302959</speed>
  <fix>3d</fix>
</trkpt>
<trkpt lat="40.0737824" lon="-105.2300967">
  <ele>1645.44</ele>
  <time>2026-08-28T19:08:33Z</time>
  <course>127.83</course>
  <speed>0.56</speed>
  <fix>3d</fix>
</trkpt>
<trkpt lat="40.0737817" lon="-105.2300952">
  <ele>1645.1</ele>
  <time>2026-08-28T19:08:33Z</time>
  <course>26.41</course>
  <speed>0.5280151512977634</speed>
  <fix>3d</fix>
</trkpt>
<trkpt lat="40.0737819" lon="-105.2300956">
  <ele>1645.26</ele>
  <time>2026-08-28T19:08:33Z</time>
  <course>128.34</course>
  <speed>0.55</speed>
  <fix>3d</fix>
</trkpt>
<trkpt lat="40.073781" lon="-105.2300942">
  <ele>1644.93</ele>
  <time>2026-08-28T19:08:33Z</time>
  <course>26.42</course>
  <speed>0.5200961449578337</speed>
  <fix>3d</fix>
</trkpt>
<trkpt lat="40.0737812" lon="-105.2300947">
  <ele>1645.08</ele>
  <time>2026-08-28T19:08:33Z</time>
  <course>128.87</course>
  <speed>0.54</speed>
  <fix>3d</fix>
</trkpt>
<trkpt lat="40.0737804" lon="-105.2300932">
  <ele>1644.77</ele>
  <time>2026-08-28T19:08:33Z</time>
  <course>26.52</course>
  <speed>0.5122499389946279</speed>
  <fix>3d</fix>
</trkpt>
<trkpt lat="40.0737807" lon="-105.2300937">
  <ele>1644.91</ele>
  <time>2026-08-28T19:08:33Z</time>
  <course>129.4</course>
  <speed>0.53</speed>
  <fix>3d</fix>
</trkpt>
<trkpt lat="40.0737798" lon="-105.2300923">
  <ele>1644.61</ele>
  <time>2026-08-28T19:08:33Z</time>
  <course>26.59</course>
  <speed>0.5044799302251776</speed>
  <fix>3d</fix>
</trkpt>
<trkpt lat="40.07378" lon="-105.2300928">
  <ele>1644.75</ele>
  <time>2026-08-28T19:08:33Z</time>
  <course>129.89</course>
  <speed>0.53</speed>
  <fix>3d</fix>
</trkpt>
<trkpt lat="40.0737792" lon="-105.2300913">
  <ele>1644.45</ele>
  <time>2026-08-28T19:08:33Z</time>
  <course>26.62</course>
  <speed>0.49678969393496886</speed>
  <fix>3d</fix>
</trkpt>
<trkpt lat="40.0737793" lon="-105.2300918">
  <ele>1644.59</ele>
  <time>2026-08-28T19:08:33Z</time>
  <course>130.35</course>
  <speed>0.52</speed>
  <fix>3d</fix>
</trkpt>
<trkpt lat="40.0737786" lon="-105.2300904">
  <ele>1644.29</ele>
  <time>2026-08-28T19:08:33Z</time>
  <course>26.61</course>
  <speed>0.49678969393496886</speed>
  <fix>3d</fix>
</trkpt>
<trkpt lat="40.0737788" lon="-105.2300908">
  <ele>1644.43</ele>
  <time>2026-08-28T19:08:33Z</time>
  <course>130.8</course>
  <speed>0.51</speed>
  <fix>3d</fix>
</trkpt>
<trkpt lat="40.073778" lon="-105.2300895">
  <ele>1644.14</ele>
  <time>2026-08-28T19:08:33Z</time>
  <course>26.62</course>
  <speed>0.48918299234540036</speed>
  <fix>3d</fix>
</trkpt>
<trkpt lat="40.0737781" lon="-105.2300899">
  <ele>1644.28</ele>
  <time>2026-08-28T19:08:33Z</time>
  <course>131.23</course>
  <speed>0.51</speed>
  <fix>3d</fix>
</trkpt>
<trkpt lat="40.0737774" lon="-105.2300886">
  <ele>1643.99</ele>
  <time>2026-08-28T19:08:33Z</time>
  <course>26.61</course>
  <speed>0.48166378315169184</speed>
  <fix>3d</fix>
</trkpt>
<trkpt lat="40.0737776" lon="-105.230089">
  <ele>1644.12</ele>
  <time>2026-08-28T19:08:33Z</time>
  <course>131.64</course>
  <speed>0.5</speed>
  <fix>3d</fix>
</trkpt>
<trkpt lat="40.0737767" lon="-105.2300877">
  <ele>1643.84</ele>
  <time>2026-08-28T19:08:33Z</time>
  <course>26.61</course>
  <speed>0.48166378315169184</speed>
  <fix>3d</fix>
</trkpt>
<trkpt lat="40.0737769" lon="-105.2300882">
  <ele>1643.97</ele>
  <time>2026-08-28T19:08:33Z</time>
  <course>132.05</course>
  <speed>0.5</speed>
  <fix>3d</fix>
</trkpt>
<trkpt lat="40.0737761" lon="-105.2300869">
  <ele>1643.69</ele>
  <time>2026-08-28T19:08:33Z</time>
  <course>26.6</course>
  <speed>0.474236228055175</speed>
  <fix>3d</fix>
</trkpt>
<trkpt lat="40.0737764" lon="-105.2300873">
  <ele>1643.81</ele>
  <time>2026-08-28T19:08:33Z</time>
  <course>132.45</course>
  <speed>0.49</speed>
  <fix>3d</fix>
</trkpt>
<trkpt lat="40.0737755" lon="-105.2300861">
  <ele>1643.47</ele>
  <time>2026-08-28T19:08:33Z</time>
  <course>26.55</course>
  <speed>0.41012193308819755</speed>
  <fix>3d</fix>
</trkpt>
<trkpt lat="40.0737757" lon="-105.2300865">
  <ele>1643.65</ele>
  <time>2026-08-28T19:08:33Z</time>
  <course>133.38</course>
  <speed>0.47</speed>
  <fix>3d</fix>
</trkpt>
<trkpt lat="40.073775" lon="-105.2300855">
  <ele>1642.92</ele>
  <time>2026-08-28T19:08:33Z</time>
  <course>27.64</course>
  <speed>0.32015621187164245</speed>
  <fix>3d</fix>
</trkpt>
<trkpt lat="40.0737752" lon="-105.2300857">
  <ele>1643.33</ele>
  <time>2026-08-28T19:08:33Z</time>
  <course>136.47</course>
  <speed>0.4</speed>
  <fix>3d</fix>
</trkpt>
<trkpt lat="40.0737746" lon="-105.230085">
  <ele>1642.14</ele>
  <time>2026-08-28T19:08:33Z</time>
  <course>28.79</course>
  <speed>0.280178514522438</speed>
  <fix>3d</fix>
</trkpt>
<trkpt lat="40.0737747" lon="-105.2300851">
  <ele>1642.73</ele>
  <time>2026-08-28T19:08:33Z</time>
  <course>140.91</course>
  <speed>0.32</speed>
  <fix>3d</fix>
</trkpt>
<trkpt lat="40.0737742" lon="-105.2300847">
  <ele>1641.21</ele>
  <time>2026-08-28T19:08:33Z</time>
  <course>28.07</course>
  <speed>0.24698178070456936</speed>
  <fix>3d</fix>
</trkpt>
<trkpt lat="40.0737742" lon="-105.2300846">
  <ele>1641.91</ele>
  <time>2026-08-28T19:08:33Z</time>
  <course>143.8</course>
  <speed>0.28</speed>
  <fix>3d</fix>
</trkpt>
<trkpt lat="40.0737738" lon="-105.2300844">
  <ele>1640.17</ele>
  <time>2026-08-28T19:08:33Z</time>
  <course>26.79</course>
  <speed>0.18027756377319945</speed>
  <fix>3d</fix>
</trkpt>
<trkpt lat="40.0737739" lon="-105.2300844">
  <ele>1640.95</ele>
  <time>2026-08-28T19:08:33Z</time>
  <course>149.59</course>
  <speed>0.23</speed>
  <fix>3d</fix>
</trkpt>
<trkpt lat="40.0737735" lon="-105.2300843">
  <ele>1639.05</ele>
  <time>2026-08-28T19:08:33Z</time>
  <course>27.76</course>
  <speed>0.16124515496597097</speed>
  <fix>3d</fix>
</trkpt>
<trkpt lat="40.0737735" lon="-105.2300841">
  <ele>1639.88</ele>
  <time>2026-08-28T19:08:33Z</time>
  <course>159.99</course>
  <speed>0.18</speed>
  <fix>3d</fix>
</trkpt>
<trkpt lat="40.0737732" lon="-105.2300842">
  <ele>1637.88</ele>
  <time>2026-08-28T19:08:33Z</time>
  <course>28.8</course>
  <speed>0.15033296378372907</speed>
  <fix>3d</fix>
</trkpt>
<trkpt lat="40.0737733" lon="-105.230084">
  <ele>1638.76</ele>
  <time>2026-08-28T19:08:33Z</time>
  <course>168.23</course>
  <speed>0.16</speed>
  <fix>3d</fix>
</trkpt>
<trkpt lat="40.0737729" lon="-105.2300841">
  <ele>1636.67</ele>
  <time>2026-08-28T19:08:33Z</time>
  <course>29.67</course>
  <speed>0.140356688476182</speed>
  <fix>3d</fix>
</trkpt>
<trkpt lat="40.073773" lon="-105.2300839">
  <ele>1637.59</ele>
  <time>2026-08-28T19:08:33Z</time>
  <course>171.34</course>
  <speed>0.15</speed>
  <fix>3d</fix>
</trkpt>
<trkpt lat="40.0737726" lon="-105.230084">
  <ele>1635.45</ele>
  <time>2026-08-28T19:08:33Z</time>
  <course>29.78</course>
  <speed>0.1414213562373095</speed>
  <fix>3d</fix>
</trkpt>
<trkpt lat="40.0737727" lon="-105.2300839">
  <ele>1636.38</ele>
  <time>2026-08-28T19:08:33Z</time>
  <course>169.76</course>
  <speed>0.15</speed>
  <fix>3d</fix>
</trkpt>
<trkpt lat="40.0737724" lon="-105.2300839">
  <ele>1634.21</ele>
  <time>2026-08-28T19:08:33Z</time>
  <course>29.65</course>
  <speed>0.14317821063276354</speed>
  <fix>3d</fix>
</trkpt>
<trkpt lat="40.0737724" lon="-105.2300839">
  <ele>1635.16</ele>
  <time>2026-08-28T19:08:33Z</time>
  <course>167.04</course>
  <speed>0.15</speed>
  <fix>3d</fix>
</trkpt>
<trkpt lat="40.0737721" lon="-105.2300838">
  <ele>1632.96</ele>
  <time>2026-08-28T19:08:33Z</time>
  <course>29.49</course>
  <speed>0.14317821063276354</speed>
  <fix>3d</fix>
</trkpt>
<trkpt lat="40.0737722" lon="-105.2300838">
  <ele>1633.93</ele>
  <time>2026-08-28T19:08:33Z</time>
  <course>164.83</course>
  <speed>0.15</speed>
  <fix>3d</fix>
</trkpt>
<trkpt lat="40.0737718" lon="-105.2300837">
  <ele>1631.71</ele>
  <time>2026-08-28T19:08:33Z</time>
  <course>29.36</course>
  <speed>0.14560219778561037</speed>
  <fix>3d</fix>
</trkpt>
<trkpt lat="40.0737719" lon="-105.2300837">
  <ele>1632.7</ele>
  <time>2026-08-28T19:08:33Z</time>
  <course>162.71</course>
  <speed>0.15</speed>
  <fix>3d</fix>
</trkpt>
<trkpt lat="40.0737716" lon="-105.2300836">
  <ele>1630.46</ele>
  <time>2026-08-28T19:08:33Z</time>
  <course>29.25</course>
  <speed>0.14866068747318506</speed>
  <fix>3d</fix>
</trkpt>
<trkpt lat="40.0737716" lon="-105.2300835">
  <ele>1631.46</ele>
  <time>2026-08-28T19:08:33Z</time>
  <course>160.71</course>
  <speed>0.15</speed>
  <fix>3d</fix>
</trkpt>
<trkpt lat="40.0737713" lon="-105.2300835">
  <ele>1629.21</ele>
  <time>2026-08-28T19:08:33Z</time>
  <course>29.16</course>
  <speed>0.14866068747318506</speed>
  <fix>3d</fix>
</trkpt>
<trkpt lat="40.0737714" lon="-105.2300834">
  <ele>1630.23</ele>
  <time>2026-08-28T19:08:33Z</time>
  <course>158.86</course>
  <speed>0.15</speed>
  <fix>3d</fix>
</trkpt>
<trkpt lat="40.073771" lon="-105.2300833">
  <ele>1627.97</ele>
  <time>2026-08-28T19:08:33Z</time>
  <course>29.06</course>
  <speed>0.15231546211727817</speed>
  <fix>3d</fix>
</trkpt>
<trkpt lat="40.0737711" lon="-105.2300832">
  <ele>1628.99</ele>
  <time>2026-08-28T19:08:33Z</time>
  <course>157.14</course>
  <speed>0.16</speed>
  <fix>3d</fix>
</trkpt>
<trkpt lat="40.0737708" lon="-105.2300831">
  <ele>1626.72</ele>
  <time>2026-08-28T19:08:33Z</time>
  <course>28.96</course>
  <speed>0.15231546211727817</speed>
  <fix>3d</fix>
</trkpt>
<trkpt lat="40.0737709" lon="-105.2300831">
  <ele>1627.75</ele>
  <time>2026-08-28T19:08:33Z</time>
  <course>155.56</course>
  <speed>0.16</speed>
  <fix>3d</fix>
</trkpt>
<trkpt lat="40.0737705" lon="-105.230083">
  <ele>1625.48</ele>
  <time>2026-08-28T19:08:33Z</time>
  <course>28.87</course>
  <speed>0.15652475842498528</speed>
  <fix>3d</fix>
</trkpt>
<trkpt lat="40.0737706" lon="-105.230083">
  <ele>1626.52</ele>
  <time>2026-08-28T19:08:33Z</time>
  <course>154.13</course>
  <speed>0.16</speed>
  <fix>3d</fix>
</trkpt>
<trkpt lat="40.0737702" lon="-105.2300828">
  <ele>1624.23</ele>
  <time>2026-08-28T19:08:33Z</time>
  <course>28.82</course>
  <speed>0.15652475842498528</speed>
  <fix>3d</fix>
</trkpt>
<trkpt lat="40.0737703" lon="-105.2300827">
  <ele>1625.28</ele>
  <time>2026-08-28T19:08:33Z</time>
  <course>152.88</course>
  <speed>0.16</speed>
  <fix>3d</fix>
</trkpt>
<trkpt lat="40.07377" lon="-105.2300826">
  <ele>1622.99</ele>
  <time>2026-08-28T19:08:33Z</time>
  <course>28.76</course>
  <speed>0.15652475842498528</speed>
  <fix>3d</fix>
</trkpt>
<trkpt lat="40.07377" lon="-105.2300826">
  <ele>1624.05</ele>
  <time>2026-08-28T19:08:33Z</time>
  <course>151.74</course>
  <speed>0.17</speed>
  <fix>3d</fix>
</trkpt>
<trkpt lat="40.0737697" lon="-105.2300824">
  <ele>1621.76</ele>
  <time>2026-08-28T19:08:33Z</time>
  <course>28.7</course>
  <speed>0.16124515496597097</speed>
  <fix>3d</fix>
</trkpt>
<trkpt lat="40.0737697" lon="-105.2300823">
  <ele>1622.81</ele>
  <time>2026-08-28T19:08:33Z</time>
  <course>150.68</course>
  <speed>0.17</speed>
  <fix>3d</fix>
</trkpt>
<trkpt lat="40.0737694" lon="-105.2300822">
  <ele>1620.52</ele>
  <time>2026-08-28T19:08:33Z</time>
  <course>28.64</course>
  <speed>0.16124515496597097</speed>
  <fix>3d</fix>
</trkpt>
<trkpt lat="40.0737695" lon="-105.2300822">
  <ele>1621.57</ele>
  <time>2026-08-28T19:08:33Z</time>
  <course>149.69</course>
  <speed>0.17</speed>
  <fix>3d</fix>
</trkpt>
<trkpt lat="40.0737692" lon="-105.230082">
  <ele>1619.28</ele>
  <time>2026-08-28T19:08:33Z</time>
  <course>28.58</course>
  <speed>0.16124515496597097</speed>
  <fix>3d</fix>
</trkpt>
<trkpt lat="40.0737692" lon="-105.230082">
  <ele>1620.34</ele>
  <time>2026-08-28T19:08:33Z</time>
  <course>148.79</course>
  <speed>0.17</speed>
  <fix>3d</fix>
</trkpt>
<trkpt lat="40.0737689" lon="-105.2300817">
  <ele>1618.05</ele>
  <time>2026-08-28T19:08:33Z</time>
  <course>28.53</course>
  <speed>0.1664331697709324</speed>
  <fix>3d</fix>
</trkpt>
<trkpt lat="40.073769" lon="-105.2300817">
  <ele>1619.11</ele>
  <time>2026-08-28T19:08:33Z</time>
  <course>148.0</course>
  <speed>0.17</speed>
  <fix>3d</fix>
</trkpt>
<trkpt lat="40.0737686" lon="-105.2300815">
  <ele>1616.82</ele>
  <time>2026-08-28T19:08:33Z</time>
  <course>28.49</course>
  <speed>0.1664331697709324</speed>
  <fix>3d</fix>
</trkpt>
<trkpt lat="40.0737687" lon="-105.2300816">
  <ele>1617.88</ele>
  <time>2026-08-28T19:08:33Z</time>
  <course>147.3</course>
  <speed>0.18</speed>
  <fix>3d</fix>
</trkpt>
<trkpt lat="40.0737683" lon="-105.2300813">
  <ele>1615.58</ele>
  <time>2026-08-28T19:08:33Z</time>
  <course>28.44</course>
  <speed>0.1664331697709324</speed>
  <fix>3d</fix>
</trkpt>
<trkpt lat="40.0737684" lon="-105.2300813">
  <ele>1616.65</ele>
  <time>2026-08-28T19:08:33Z</time>
  <course>146.66</course>
  <speed>0.18</speed>
  <fix>3d</fix>
</trkpt>
<trkpt lat="40.0737681" lon="-105.230081">
  <ele>1614.35</ele>
  <time>2026-08-28T19:08:33Z</time>
  <course>28.38</course>
  <speed>0.1664331697709324</speed>
  <fix>3d</fix>
</trkpt>
<trkpt lat="40.0737681" lon="-105.2300811">
  <ele>1615.42</ele>
  <time>2026-08-28T19:08:33Z</time>
  <course>146.05</course>
  <speed>0.18</speed>
  <fix>3d</fix>
</trkpt>
<trkpt lat="40.0737678" lon="-105.2300808">
  <ele>1613.12</ele>
  <time>2026-08-28T19:08:33Z</time>
  <course>28.32</course>
  <speed>0.17204650534085253</speed>
  <fix>3d</fix>
</trkpt>
<trkpt lat="40.0737679" lon="-105.2300808">
  <ele>1614.19</ele>
  <time>2026-08-28T19:08:33Z</time>
  <course>145.51</course>
  <speed>0.18</speed>
  <fix>3d</fix>
</trkpt>
<trkpt lat="40.0737675" lon="-105.2300805">
  <ele>1611.88</ele>
  <time>2026-08-28T19:08:33Z</time>
  <course>28.28</course>
  <speed>0.17204650534085253</speed>
  <fix>3d</fix>
</trkpt>
<trkpt lat="40.0737676" lon="-105.2300806">
  <ele>1612.96</ele>
  <time>2026-08-28T19:08:33Z</time>
  <course>144.99</course>
  <speed>0.18</speed>
  <fix>3d</fix>
</trkpt>
<trkpt lat="40.0737672" lon="-105.2300803">
  <ele>1610.65</ele>
  <time>2026-08-28T19:08:33Z</time>
  <course>28.25</course>
  <speed>0.17204650534085253</speed>
  <fix>3d</fix>
</trkpt>
<trkpt lat="40.0737673" lon="-105.2300803">
  <ele>1611.73</ele>
  <time>2026-08-28T19:08:33Z</time>
  <course>144.52</course>
  <speed>0.18</speed>
  <fix>3d</fix>
</trkpt>
<trkpt lat="40.073767" lon="-105.23008">
  <ele>1609.43</ele>
  <time>2026-08-28T19:08:33Z</time>
  <course>28.2</course>
  <speed>0.17204650534085253</speed>
  <fix>3d</fix>
</trkpt>
<trkpt lat="40.073767" lon="-105.2300801">
  <ele>1610.5</ele>
  <time>2026-08-28T19:08:33Z</time>
  <course>144.11</course>
  <speed>0.18</speed>
  <fix>3d</fix>
</trkpt>
<trkpt lat="40.0737667" lon="-105.2300797">
  <ele>1608.2</ele>
  <time>2026-08-28T19:08:33Z</time>
  <course>28.15</course>
  <speed>0.17204650534085253</speed>
  <fix>3d</fix>
</trkpt>
<trkpt lat="40.0737668" lon="-105.2300798">
  <ele>1609.27</ele>
  <time>2026-08-28T19:08:33Z</time>
  <course>143.72</course>
  <speed>0.18</speed>
  <fix>3d</fix>
</trkpt>
<trkpt lat="40.0737664" lon="-105.2300795">
  <ele>1606.97</ele>
  <time>2026-08-28T19:08:33Z</time>
  <course>28.12</course>
  <speed>0.17804493814764857</speed>
  <fix>3d</fix>
</trkpt>
<trkpt lat="40.0737665" lon="-105.2300796">
  <ele>1608.04</ele>
  <time>2026-08-28T19:08:33Z</time>
  <course>143.38</course>
  <speed>0.19</speed>
  <fix>3d</fix>
</trkpt>
<trkpt lat="40.0737661" lon="-105.2300792">
  <ele>1605.73</ele>
  <time>2026-08-28T19:08:33Z</time>
  <course>28.09</course>
  <speed>0.17804493814764857</speed>
  <fix>3d</fix>
</trkpt>
<trkpt lat="40.0737662" lon="-105.2300793">
  <ele>1606.81</ele>
  <time>2026-08-28T19:08:33Z</time>
  <course>143.1</course>
  <speed>0.19</speed>
  <fix>3d</fix>
</trkpt>
<trkpt lat="40.0737659" lon="-105.2300789">
  <ele>1604.51</ele>
  <time>2026-08-28T19:08:33Z</time>
  <course>28.06</course>
  <speed>0.17804493814764857</speed>
  <fix>3d</fix>
</trkpt>
<trkpt lat="40.0737659" lon="-105.230079">
  <ele>1605.58</ele>
  <time>2026-08-28T19:08:33Z</time>
  <course>142.84</course>
  <speed>0.19</speed>
  <fix>3d</fix>
</trkpt>
<trkpt lat="40.0737656" lon="-105.2300787">
  <ele>1603.28</ele>
  <time>2026-08-28T19:08:33Z</time>
  <course>28.02</course>
  <speed>0.17804493814764857</speed>
  <fix>3d</fix>
</trkpt>
<trkpt lat="40.0737656" lon="-105.2300787">
  <ele>1604.36</ele>
  <time>2026-08-28T19:08:33Z</time>
  <course>142.58</course>
  <speed>0.19</speed>
  <fix>3d</fix>
</trkpt>
<trkpt lat="40.0737653" lon="-105.2300784">
  <ele>1602.06</ele>
  <time>2026-08-28T19:08:33Z</time>
  <course>27.99</course>
  <speed>0.17804493814764857</speed>
  <fix>3d</fix>
</trkpt>
<trkpt lat="40.0737654" lon="-105.2300784">
  <ele>1603.13</ele>
  <time>2026-08-28T19:08:33Z</time>
  <course>142.34</course>
  <speed>0.19</speed>
  <fix>3d</fix>
</trkpt>
<trkpt lat="40.073765" lon="-105.2300781">
  <ele>1600.83</ele>
  <time>2026-08-28T19:08:33Z</time>
  <course>27.95</course>
  <speed>0.18601075237738274</speed>
  <fix>3d</fix>
</trkpt>
<trkpt lat="40.0737651" lon="-105.2300782">
  <ele>1601.9</ele>
  <time>2026-08-28T19:08:33Z</time>
  <course>142.11</course>
  <speed>0.19</speed>
  <fix>3d</fix>
</trkpt>
<trkpt lat="40.0737647" lon="-105.2300778">
  <ele>1599.6</ele>
  <time>2026-08-28T19:08:33Z</time>
  <course>27.92</course>
  <speed>0.18601075237738274</speed>
  <fix>3d</fix>
</trkpt>
<trkpt lat="40.0737648" lon="-105.2300779">
  <ele>1600.67</ele>
  <time>2026-08-28T19:08:33Z</time>
  <course>141.9</course>
  <speed>0.19</speed>
  <fix>3d</fix>
</trkpt>
<trkpt lat="40.0737645" lon="-105.2300775">
  <ele>1598.37</ele>
  <time>2026-08-28T19:08:33Z</time>
  <course>27.89</course>
  <speed>0.18601075237738274</speed>
  <fix>3d</fix>
</trkpt>
<trkpt lat="40.0737645" lon="-105.2300776">
  <ele>1599.44</ele>
  <time>2026-08-28T19:08:33Z</time>
  <course>141.71</course>
  <speed>0.19</speed>
  <fix>3d</fix>
</trkpt>
<trkpt lat="40.0737642" lon="-105.2300772">
  <ele>1597.14</ele>
  <time>2026-08-28T19:08:33Z</time>
  <course>27.85</course>
  <speed>0.18601075237738274</speed>
  <fix>3d</fix>
</trkpt>
<trkpt lat="40.0737643" lon="-105.2300773">
  <ele>1598.21</ele>
  <time>2026-08-28T19:08:33Z</time>
  <course>141.54</course>
  <speed>0.19</speed>
  <fix>3d</fix>
</trkpt>
<trkpt lat="40.0737639" lon="-105.230077">
  <ele>1595.91</ele>
  <time>2026-08-28T19:08:33Z</time>
  <course>27.82</course>
  <speed>0.19209372712298545</speed>
  <fix>3d</fix>
</trkpt>
<trkpt lat="40.073764" lon="-105.230077">
  <ele>1596.98</ele>
  <time>2026-08-28T19:08:33Z</time>
  <course>141.38</course>
  <speed>0.19</speed>
  <fix>3d</fix>
</trkpt>
<trkpt lat="40.0737636" lon="-105.2300767">
  <ele>1594.66</ele>
  <time>2026-08-28T19:08:33Z</time>
  <course>27.79</course>
  <speed>0.19209372712298545</speed>
  <fix>3d</fix>
</trkpt>
<trkpt lat="40.0737637" lon="-105.2300768">
  <ele>1595.76</ele>
  <time>2026-08-28T19:08:33Z</time>
  <course>141.24</course>
  <speed>0.19</speed>
  <fix>3d</fix>
</trkpt>
<trkpt lat="40.0737633" lon="-105.2300764">
  <ele>1593.43</ele>
  <time>2026-08-28T19:08:33Z</time>
  <course>27.76</course>
  <speed>0.19209372712298545</speed>
  <fix>3d</fix>
</trkpt>
<trkpt lat="40.0737635" lon="-105.2300765">
  <ele>1594.53</ele>
  <time>2026-08-28T19:08:33Z</time>
  <course>141.13</course>
  <speed>0.19</speed>
  <fix>3d</fix>
</trkpt>
<trkpt lat="40.0737631" lon="-105.2300761">
  <ele>1592.2</ele>
  <time>2026-08-28T19:08:33Z</time>
  <course>27.73</course>
  <speed>0.19209372712298545</speed>
  <fix>3d</fix>
</trkpt>
<trkpt lat="40.0737632" lon="-105.2300762">
  <ele>1593.3</ele>
  <time>2026-08-28T19:08:33Z</time>
  <course>141.03</course>
  <speed>0.19</speed>
  <fix>3d</fix>
</trkpt>
<trkpt lat="40.0737628" lon="-105.2300758">
  <ele>1590.97</ele>
  <time>2026-08-28T19:08:33Z</time>
  <course>27.71</course>
  <speed>0.19209372712298545</speed>
  <fix>3d</fix>
</trkpt>
<trkpt lat="40.0737629" lon="-105.2300759">
  <ele>1592.07</ele>
  <time>2026-08-28T19:08:33Z</time>
  <course>140.93</course>
  <speed>0.19</speed>
  <fix>3d</fix>
</trkpt>
<trkpt lat="40.0737625" lon="-105.2300755">
  <ele>1589.74</ele>
  <time>2026-08-28T19:08:33Z</time>
  <course>27.68</course>
  <speed>0.19209372712298545</speed>
  <fix>3d</fix>
</trkpt>
<trkpt lat="40.0737626" lon="-105.2300756">
  <ele>1590.85</ele>
  <time>2026-08-28T19:08:33Z</time>
  <course>140.83</course>
  <speed>0.19</speed>
  <fix>3d</fix>
</trkpt>
<trkpt lat="40.0737622" lon="-105.2300752">
  <ele>1588.52</ele>
  <time>2026-08-28T19:08:33Z</time>
  <course>27.65</course>
  <speed>0.19209372712298545</speed>
  <fix>3d</fix>
</trkpt>
<trkpt lat="40.0737624" lon="-105.2300753">
  <ele>1589.62</ele>
  <time>2026-08-28T19:08:33Z</time>
  <course>140.76</course>
  <speed>0.19</speed>
  <fix>3d</fix>
</trkpt>
<trkpt lat="40.073762" lon="-105.2300749">
  <ele>1587.3</ele>
  <time>2026-08-28T19:08:33Z</time>
  <course>27.63</course>
  <speed>0.19209372712298545</speed>
  <fix>3d</fix>
</trkpt>
<trkpt lat="40.0737621" lon="-105.230075">
  <ele>1588.39</ele>
  <time>2026-08-28T19:08:33Z</time>
  <course>140.7</course>
  <speed>0.19</speed>
  <fix>3d</fix>
</trkpt>
<trkpt lat="40.0737617" lon="-105.2300746">
  <ele>1586.07</ele>
  <time>2026-08-28T19:08:33Z</time>
  <course>27.61</course>
  <speed>0.19209372712298545</speed>
  <fix>3d</fix>
</trkpt>
<trkpt lat="40.0737618" lon="-105.2300747">
  <ele>1587.16</ele>
  <time>2026-08-28T19:08:33Z</time>
  <course>140.64</course>
  <speed>0.19</speed>
  <fix>3d</fix>
</trkpt>
<trkpt lat="40.0737614" lon="-105.2300743">
  <ele>1584.84</ele>
  <time>2026-08-28T19:08:33Z</time>
  <course>27.58</course>
  <speed>0.19209372712298545</speed>
  <fix>3d</fix>
</trkpt>
<trkpt lat="40.0737615" lon="-105.2300744">
  <ele>1585.93</ele>
  <time>2026-08-28T19:08:33Z</time>
  <course>140.58</course>
  <speed>0.19</speed>
  <fix>3d</fix>
</trkpt>
<trkpt lat="40.0737611" lon="-105.230074">
  <ele>1583.62</ele>
  <time>2026-08-28T19:08:33Z</time>
  <course>27.56</course>
  <speed>0.19209372712298545</speed>
  <fix>3d</fix>
</trkpt>
<trkpt lat="40.0737613" lon="-105.2300741">
  <ele>1584.7</ele>
  <time>2026-08-28T19:08:33Z</time>
  <course>140.54</course>
  <speed>0.19</speed>
  <fix>3d</fix>
</trkpt>
<trkpt lat="40.0737611" lon="-105.2300739">
  <ele>1583.11</ele>
  <time>2026-08-28T19:08:33Z</time>
  <course>27.58</course>
  <speed>0.044721359549995794</speed>
  <fix>3d</fix>
</trkpt>
<trkpt lat="40.0737611" lon="-105.2300739">
  <ele>1583.65</ele>
  <time>2026-08-28T19:08:33Z</time>
  <course>142.55</course>
  <speed>0.09</speed>
  <fix>3d</fix>
</trkpt>
<trkpt lat="40.0737611" lon="-105.2300739">
  <ele>1583.44</ele>
  <time>2026-08-28T19:08:33Z</time>
  <course>27.65</course>
  <speed>0.0316227766016838</speed>
  <fix>3d</fix>
</trkpt>
<trkpt lat="40.073761" lon="-105.2300738">
  <ele>1583.36</ele>
  <time>2026-08-28T19:08:33Z</time>
  <course>317.23</course>
  <speed>0.02</speed>
  <fix>3d</fix>
</trkpt>
<trkpt lat="40.0737611" lon="-105.2300739">
  <ele>1583.45</ele>
  <time>2026-08-28T19:08:33Z</time>
  <course>27.69</course>
  <speed>0.01</speed>
  <fix>3d</fix>
</trkpt>
<trkpt lat="40.0737611" lon="-105.2300738">
  <ele>1583.55</ele>
  <time>2026-08-28T19:08:33Z</time>
  <course>330.41</course>
  <speed>0.01</speed>
  <fix>3d</fix>
</trkpt>
<trkpt lat="40.0737611" lon="-105.2300739">
  <ele>1583.42</ele>
  <time>2026-08-28T19:08:33Z</time>
  <course>27.72</course>
  <speed>0.0</speed>
  <fix>3d</fix>
</trkpt>
<trkpt lat="40.0737611" lon="-105.2300738">
  <ele>1583.58</ele>
  <time>2026-08-28T19:08:33Z</time>
  <course>129.51</course>
  <speed>0.0</speed>
  <fix>3d</fix>
</trkpt>
<trkpt lat="40.0737611" lon="-105.2300739">
  <ele>1583.44</ele>
  <time>2026-08-28T19:08:33Z</time>
  <course>27.75</course>
  <speed>0.0</speed>
  <fix>3d</fix>
</trkpt>
<trkpt lat="40.0737611" lon="-105.2300738">
  <ele>1583.55</ele>
  <time>2026-08-28T19:08:33Z</time>
  <course>130.8</course>
  <speed>0.0</speed>
  <fix>3d</fix>
</trkpt>
<trkpt lat="40.0737611" lon="-105.2300739">
  <ele>1583.46</ele>
  <time>2026-08-28T19:08:33Z</time>
  <course>27.77</course>
  <speed>0.0</speed>
  <fix>3d</fix>
</trkpt>
<trkpt lat="40.0737611" lon="-105.2300738">
  <ele>1583.55</ele>
  <time>2026-08-28T19:08:33Z</time>
  <course>107.3</course>
  <speed>0.0</speed>
  <fix>3d</fix>
</trkpt>
<trkpt lat="40.0737611" lon="-105.2300739">
  <ele>1583.47</ele>
  <time>2026-08-28T19:08:33Z</time>
  <course>27.76</course>
  <speed>0.0</speed>
  <fix>3d</fix>
</trkpt>
<trkpt lat="40.0737611" lon="-105.2300738">
  <ele>1583.56</ele>
  <time>2026-08-28T19:08:33Z</time>
  <course>113.56</course>
  <speed>0.0</speed>
  <fix>3d</fix>
</trkpt>
<trkpt lat="40.0737611" lon="-105.2300739">
  <ele>1583.48</ele>
  <time>2026-08-28T19:08:33Z</time>
  <course>27.76</course>
  <speed>0.0</speed>
  <fix>3d</fix>
</trkpt>
<trkpt lat="40.0737611" lon="-105.2300738">
  <ele>1583.56</ele>
  <time>2026-08-28T19:08:33Z</time>
  <course>110.0</course>
  <speed>0.0</speed>
  <fix>3d</fix>
</trkpt>
<trkpt lat="40.0737611" lon="-105.2300739">
  <ele>1583.49</ele>
  <time>2026-08-28T19:08:33Z</time>
  <course>27.75</course>
  <speed>0.0</speed>
  <fix>3d</fix>
</trkpt>
<trkpt lat="40.0737611" lon="-105.2300738">
  <ele>1583.56</ele>
  <time>2026-08-28T19:08:33Z</time>
  <course>349.31</course>
  <speed>0.0</speed>
  <fix>3d</fix>
</trkpt>
<trkpt lat="40.0737611" lon="-105.2300739">
  <ele>1583.49</ele>
  <time>2026-08-28T19:08:33Z</time>
  <course>27.74</course>
  <speed>0.0</speed>
  <fix>3d</fix>
</trkpt>
<trkpt lat="40.0737611" lon="-105.2300738">
  <ele>1583.56</ele>
  <time>2026-08-28T19:08:33Z</time>
  <course>44.82</course>
  <speed>0.0</speed>
  <fix>3d</fix>
</trkpt>
<trkpt lat="40.0737611" lon="-105.2300739">
  <ele>1583.5</ele>
  <time>2026-08-28T19:08:33Z</time>
  <course>27.74</course>
  <speed>0.0</speed>
  <fix>3d</fix>
</trkpt>
<trkpt lat="40.0737611" lon="-105.2300738">
  <ele>1583.56</ele>
  <time>2026-08-28T19:08:33Z</time>
  <course>3.89</course>
  <speed>0.0</speed>
  <fix>3d</fix>
</trkpt>
<trkpt lat="40.0737611" lon="-105.2300739">
  <ele>1583.5</ele>
  <time>2026-08-28T19:08:33Z</time>
  <course>27.73</course>
  <speed>0.0</speed>
  <fix>3d</fix>
</trkpt>
<trkpt lat="40.0737611" lon="-105.2300738">
  <ele>1583.56</ele>
  <time>2026-08-28T19:08:33Z</time>
  <course>271.41</course>
  <speed>0.0</speed>
  <fix>3d</fix>
</trkpt>
<trkpt lat="40.0737611" lon="-105.2300739">
  <ele>1583.5</ele>
  <time>2026-08-28T19:08:33Z</time>
  <course>27.73</course>
  <speed>0.0</speed>
  <fix>3d</fix>
</trkpt>
<trkpt lat="40.0737611" lon="-105.2300738">
  <ele>1583.56</ele>
  <time>2026-08-28T19:08:33Z</time>
  <course>261.46</course>
  <speed>0.0</speed>
  <fix>3d</fix>
</trkpt>
<trkpt lat="40.0737611" lon="-105.2300739">
  <ele>1583.51</ele>
  <time>2026-08-28T19:08:33Z</time>
  <course>27.72</course>
  <speed>0.0</speed>
  <fix>3d</fix>
</trkpt>
<trkpt lat="40.0737611" lon="-105.2300738">
  <ele>1583.56</ele>
  <time>2026-08-28T19:08:33Z</time>
  <course>257.2</course>
  <speed>0.0</speed>
  <fix>3d</fix>
</trkpt>
<trkpt lat="40.0737611" lon="-105.2300739">
  <ele>1583.51</ele>
  <time>2026-08-28T19:08:33Z</time>
  <course>27.72</course>
  <speed>0.0</speed>
  <fix>3d</fix>
</trkpt>
<trkpt lat="40.0737611" lon="-105.2300738">
  <ele>1583.56</ele>
  <time>2026-08-28T19:08:33Z</time>
  <course>258.79</course>
  <speed>0.0</speed>
  <fix>3d</fix>
</trkpt>
<trkpt lat="40.0737611" lon="-105.2300739">
  <ele>1583.51</ele>
  <time>2026-08-28T19:08:33Z</time>
  <course>27.71</course>
  <speed>0.0</speed>
  <fix>3d</fix>
</trkpt>
<trkpt lat="40.0737611" lon="-105.2300738">
  <ele>1583.56</ele>
  <time>2026-08-28T19:08:33Z</time>
  <course>257.92</course>
  <speed>0.0</speed>
  <fix>3d</fix>
</trkpt>
<trkpt lat="40.0737611" lon="-105.2300739">
  <ele>1583.52</ele>
  <time>2026-08-28T19:08:33Z</time>
  <course>27.71</course>
  <speed>0.0</speed>
  <fix>3d</fix>
</trkpt>
<trkpt lat="40.0737611" lon="-105.2300738">
  <ele>1583.56</ele>
  <time>2026-08-28T19:08:33Z</time>
  <course>219.99</course>
  <speed>0.0</speed>
  <fix>3d</fix>
</trkpt>
<trkpt lat="40.0737611" lon="-105.2300739">
  <ele>1583.52</ele>
  <time>2026-08-28T19:08:33Z</time>
  <course>27.71</course>
  <speed>0.0</speed>
  <fix>3d</fix>
</trkpt>
<trkpt lat="40.0737611" lon="-105.2300738">
  <ele>1583.56</ele>
  <time>2026-08-28T19:08:33Z</time>
  <course>92.37</course>
  <speed>0.0</speed>
  <fix>3d</fix>
</trkpt>
<trkpt lat="40.0737611" lon="-105.2300739">
  <ele>1583.53</ele>
  <time>2026-08-28T19:08:33Z</time>
  <course>27.7</course>
  <speed>0.01</speed>
  <fix>3d</fix>
</trkpt>
<trkpt lat="40.0737611" lon="-105.2300738">
  <ele>1583.56</ele>
  <time>2026-08-28T19:08:33Z</time>
  <course>57.96</course>
  <speed>0.0</speed>
  <fix>3d</fix>
</trkpt>
<trkpt lat="40.0737611" lon="-105.2300739">
  <ele>1583.53</ele>
  <time>2026-08-28T19:08:33Z</time>
  <course>27.7</course>
  <speed>0.01</speed>
  <fix>3d</fix>
</trkpt>
<trkpt lat="40.0737611" lon="-105.2300738">
  <ele>1583.56</ele>
  <time>2026-08-28T19:08:33Z</time>
  <course>59.13</course>
  <speed>0.0</speed>
  <fix>3d</fix>
</trkpt>
<trkpt lat="40.0737611" lon="-105.2300739">
  <ele>1583.53</ele>
  <time>2026-08-28T19:08:33Z</time>
  <course>27.7</course>
  <speed>0.01</speed>
  <fix>3d</fix>
</trkpt>
<trkpt lat="40.0737611" lon="-105.2300738">
  <ele>1583.56</ele>
  <time>2026-08-28T19:08:33Z</time>
  <course>68.81</course>
  <speed>0.0</speed>
  <fix>3d</fix>
</trkpt>
<trkpt lat="40.0737611" lon="-105.2300739">
  <ele>1583.54</ele>
  <time>2026-08-28T19:08:33Z</time>
  <course>27.69</course>
  <speed>0.01</speed>
  <fix>3d</fix>
</trkpt>
<trkpt lat="40.0737611" lon="-105.2300738">
  <ele>1583.56</ele>
  <time>2026-08-28T19:08:33Z</time>
  <course>135.31</course>
  <speed>0.0</speed>
  <fix>3d</fix>
</trkpt>
<trkpt lat="40.0737611" lon="-105.2300738">
  <ele>1583.54</ele>
  <time>2026-08-28T19:08:33Z</time>
  <course>27.69</course>
  <speed>0.01</speed>
  <fix>3d</fix>
</trkpt>
<trkpt lat="40.0737611" lon="-105.2300738">
  <ele>1583.56</ele>
  <time>2026-08-28T19:08:33Z</time>
  <course>131.58</course>
  <speed>0.0</speed>
  <fix>3d</fix>
</trkpt>
<trkpt lat="40.0737611" lon="-105.2300738">
  <ele>1583.54</ele>
  <time>2026-08-28T19:08:33Z</time>
  <course>27.68</course>
  <speed>0.01</speed>
  <fix>3d</fix>
</trkpt>
<trkpt lat="40.0737611" lon="-105.2300738">
  <ele>1583.56</ele>
  <time>2026-08-28T19:08:33Z</time>
  <course>70.78</course>
  <speed>0.0</speed>
  <fix>3d</fix>
</trkpt>
<trkpt lat="40.0737611" lon="-105.2300738">
  <ele>1583.55</ele>
  <time>2026-08-28T19:08:33Z</time>
  <course>27.68</course>
  <speed>0.01</speed>
  <fix>3d</fix>
</trkpt>
<trkpt lat="40.0737611" lon="-105.2300738">
  <ele>1583.56</ele>
  <time>2026-08-28T19:08:33Z</time>
  <course>66.6</course>
  <speed>0.0</speed>
  <fix>3d</fix>
</trkpt>
<trkpt lat="40.0737611" lon="-105.2300738">
  <ele>1583.55</ele>
  <time>2026-08-28T19:08:33Z</time>
  <course>27.68</course>
  <speed>0.01</speed>
  <fix>3d</fix>
</trkpt>
<trkpt lat="40.0737611" lon="-105.2300738">
  <ele>1583.56</ele>
  <time>2026-08-28T19:08:33Z</time>
  <course>79.37</course>
  <speed>0.0</speed>
  <fix>3d</fix>
</trkpt>
<trkpt lat="40.0737611" lon="-105.2300738">
  <ele>1583.55</ele>
  <time>2026-08-28T19:08:33Z</time>
  <course>27.67</course>
  <speed>0.01</speed>
  <fix>3d</fix>
</trkpt>
<trkpt lat="40.0737611" lon="-105.2300738">
  <ele>1583.56</ele>
  <time>2026-08-28T19:08:33Z</time>
  <course>79.45</course>
  <speed>0.0</speed>
  <fix>3d</fix>
</trkpt>
<trkpt lat="40.0737611" lon="-105.2300738">
  <ele>1583.55</ele>
  <time>2026-08-28T19:08:33Z</time>
  <course>27.67</course>
  <speed>0.01</speed>
  <fix>3d</fix>
</trkpt>
<trkpt lat="40.0737611" lon="-105.2300738">
  <ele>1583.56</ele>
  <time>2026-08-28T19:08:33Z</time>
  <course>78.84</course>
  <speed>0.0</speed>
  <fix>3d</fix>
</trkpt>
<trkpt lat="40.0737611" lon="-105.2300738">
  <ele>1583.56</ele>
  <time>2026-08-28T19:08:33Z</time>
  <course>27.67</course>
  <speed>0.01</speed>
  <fix>3d</fix>
</trkpt>
<trkpt lat="40.0737611" lon="-105.2300738">
  <ele>1583.56</ele>
  <time>2026-08-28T19:08:33Z</time>
  <course>167.83</course>
  <speed>0.0</speed>
  <fix>3d</fix>
</trkpt>
<trkpt lat="40.0737611" lon="-105.2300738">
  <ele>1583.56</ele>
  <time>2026-08-28T19:08:33Z</time>
  <course>27.66</course>
  <speed>0.01</speed>
  <fix>3d</fix>
</trkpt>
<trkpt lat="40.0737611" lon="-105.2300738">
  <ele>1583.56</ele>
  <time>2026-08-28T19:08:33Z</time>
  <course>164.8</course>
  <speed>0.0</speed>
  <fix>3d</fix>
</trkpt>
<trkpt lat="40.0737611" lon="-105.2300738">
  <ele>1583.56</ele>
  <time>2026-08-28T19:08:33Z</time>
  <course>27.66</course>
  <speed>0.01</speed>
  <fix>3d</fix>
</trkpt>
<trkpt lat="40.0737611" lon="-105.2300738">
  <ele>1583.56</ele>
  <time>2026-08-28T19:08:33Z</time>
  <course>84.54</course>
  <speed>0.0</speed>
  <fix>3d</fix>
</trkpt>
<trkpt lat="40.0737611" lon="-105.2300738">
  <ele>1583.56</ele>
  <time>2026-08-28T19:08:33Z</time>
  <course>27.66</course>
  <speed>0.01</speed>
  <fix>3d</fix>
</trkpt>
<trkpt lat="40.0737611" lon="-105.2300738">
  <ele>1583.56</ele>
  <time>2026-08-28T19:08:33Z</time>
  <course>76.77</course>
  <speed>0.0</speed>
  <fix>3d</fix>
</trkpt>
<trkpt lat="40.0737611" lon="-105.2300738">
  <ele>1583.57</ele>
  <time>2026-08-28T19:08:33Z</time>
  <course>27.65</course>
  <speed>0.01</speed>
  <fix>3d</fix>
</trkpt>
<trkpt lat="40.0737611" lon="-105.2300738">
  <ele>1583.56</ele>
  <time>2026-08-28T19:08:33Z</time>
  <course>80.01</course>
  <speed>0.0</speed>
  <fix>3d</fix>
</trkpt>
<trkpt lat="40.0737611" lon="-105.2300738">
  <ele>1583.57</ele>
  <time>2026-08-28T19:08:33Z</time>
  <course>27.65</course>
  <speed>0.01</speed>
  <fix>3d</fix>
</trkpt>
<trkpt lat="40.0737611" lon="-105.2300738">
  <ele>1583.56</ele>
  <time>2026-08-28T19:08:33Z</time>
  <course>76.85</course>
  <speed>0.0</speed>
  <fix>3d</fix>
</trkpt>
<trkpt lat="40.0737611" lon="-105.2300738">
  <ele>1583.57</ele>
  <time>2026-08-28T19:08:33Z</time>
  <course>27.65</course>
  <speed>0.01</speed>
  <fix>3d</fix>
</trkpt>
<trkpt lat="40.0737611" lon="-105.2300738">
  <ele>1583.56</ele>
  <time>2026-08-28T19:08:33Z</time>
  <course>129.81</course>
  <speed>0.0</speed>
  <fix>3d</fix>
</trkpt>
<trkpt lat="40.0737611" lon="-105.2300738">
  <ele>1583.57</ele>
  <time>2026-08-28T19:08:33Z</time>
  <course>27.64</course>
  <speed>0.01</speed>
  <fix>3d</fix>
</trkpt>
<trkpt lat="40.0737611" lon="-105.2300738">
  <ele>1583.56</ele>
  <time>2026-08-28T19:08:33Z</time>
  <course>125.06</course>
  <speed>0.0</speed>
  <fix>3d</fix>
</trkpt>
<trkpt lat="40.0737611" lon="-105.2300738">
  <ele>1583.57</ele>
  <time>2026-08-28T19:08:33Z</time>
  <course>27.64</course>
  <speed>0.01</speed>
  <fix>3d</fix>
</trkpt>
<trkpt lat="40.0737611" lon="-105.2300738">
  <ele>1583.56</ele>
  <time>2026-08-28T19:08:33Z</time>
  <course>77.23</course>
  <speed>0.0</speed>
  <fix>3d</fix>
</trkpt>
<trkpt lat="40.0737611" lon="-105.2300738">
  <ele>1583.58</ele>
  <time>2026-08-28T19:08:33Z</time>
  <course>27.64</course>
  <speed>0.01</speed>
  <fix>3d</fix>
</trkpt>
<trkpt lat="40.0737611" lon="-105.2300738">
  <ele>1583.56</ele>
  <time>2026-08-28T19:08:33Z</time>
  <course>79.62</course>
  <speed>0.0</speed>
  <fix>3d</fix>
</trkpt>
<trkpt lat="40.0737611" lon="-105.2300738">
  <ele>1583.58</ele>
  <time>2026-08-28T19:08:33Z</time>
  <course>27.64</course>
  <speed>0.01</speed>
  <fix>3d</fix>
</trkpt>
<trkpt lat="40.0737611" lon="-105.2300738">
  <ele>1583.56</ele>
  <time>2026-08-28T19:08:33Z</time>
  <course>88.48</course>
  <speed>0.0</speed>
  <fix>3d</fix>
</trkpt>
<trkpt lat="40.0737611" lon="-105.2300738">
  <ele>1583.59</ele>
  <time>2026-08-28T19:08:33Z</time>
  <course>27.64</course>
  <speed>0.01</speed>
  <fix>3d</fix>
</trkpt>
<trkpt lat="40.0737611" lon="-105.2300738">
  <ele>1583.56</ele>
  <time>2026-08-28T19:08:33Z</time>
  <course>87.19</course>
  <speed>0.0</speed>
  <fix>3d</fix>
</trkpt>
<trkpt lat="40.0737611" lon="-105.2300738">
  <ele>1583.59</ele>
  <time>2026-08-28T19:08:33Z</time>
  <course>27.63</course>
  <speed>0.01</speed>
  <fix>3d</fix>
</trkpt>
<trkpt lat="40.0737611" lon="-105.2300738">
  <ele>1583.56</ele>
  <time>2026-08-28T19:08:33Z</time>
  <course>86.4</course>
  <speed>0.0</speed>
  <fix>3d</fix>
</trkpt>
<trkpt lat="40.0737611" lon="-105.2300738">
  <ele>1583.6</ele>
  <time>2026-08-28T19:08:33Z</time>
  <course>27.63</course>
  <speed>0.01</speed>
  <fix>3d</fix>
</trkpt>
<trkpt lat="40.0737611" lon="-105.2300738">
  <ele>1583.56</ele>
  <time>2026-08-28T19:08:33Z</time>
  <course>86.84</course>
  <speed>0.0</speed>
  <fix>3d</fix>
</trkpt>
<trkpt lat="40.0737611" lon="-105.2300738">
  <ele>1583.6</ele>
  <time>2026-08-28T19:08:33Z</time>
  <course>27.63</course>
  <speed>0.01</speed>
  <fix>3d</fix>
</trkpt>
<trkpt lat="40.0737611" lon="-105.2300738">
  <ele>1583.56</ele>
  <time>2026-08-28T19:08:33Z</time>
  <course>87.05</course>
  <speed>0.0</speed>
  <fix>3d</fix>
</trkpt>
<trkpt lat="40.0737611" lon="-105.2300738">
  <ele>1583.6</ele>
  <time>2026-08-28T19:08:33Z</time>
  <course>27.63</course>
  <speed>0.01</speed>
  <fix>3d</fix>
</trkpt>
<trkpt lat="40.0737611" lon="-105.2300738">
  <ele>1583.56</ele>
  <time>2026-08-28T19:08:33Z</time>
  <course>87.1</course>
  <speed>0.0</speed>
  <fix>3d</fix>
</trkpt>
<trkpt lat="40.0737611" lon="-105.2300738">
  <ele>1583.61</ele>
  <time>2026-08-28T19:08:33Z</time>
  <course>27.63</course>
  <speed>0.01</speed>
  <fix>3d</fix>
</trkpt>
<trkpt lat="40.0737611" lon="-105.2300738">
  <ele>1583.56</ele>
  <time>2026-08-28T19:08:33Z</time>
  <course>87.2</course>
  <speed>0.0</speed>
  <fix>3d</fix>
</trkpt>
<trkpt lat="40.0737611" lon="-105.2300738">
  <ele>1583.61</ele>
  <time>2026-08-28T19:08:33Z</time>
  <course>27.63</course>
  <speed>0.01</speed>
  <fix>3d</fix>
</trkpt>
<trkpt lat="40.0737611" lon="-105.2300738">
  <ele>1583.56</ele>
  <time>2026-08-28T19:08:33Z</time>
  <course>158.9</course>
  <speed>0.0</speed>
  <fix>3d</fix>
</trkpt>
<trkpt lat="40.0737611" lon="-105.2300738">
  <ele>1583.61</ele>
  <time>2026-08-28T19:08:33Z</time>
  <course>27.63</course>
  <speed>0.01</speed>
  <fix>3d</fix>
</trkpt>
<trkpt lat="40.0737611" lon="-105.2300738">
  <ele>1583.56</ele>
  <time>2026-08-28T19:08:33Z</time>
  <course>184.15</course>
  <speed>0.0</speed>
  <fix>3d</fix>
</trkpt>
<trkpt lat="40.0737611" lon="-105.2300738">
  <ele>1583.61</ele>
  <time>2026-08-28T19:08:33Z</time>
  <course>27.63</course>
  <speed>0.01</speed>
  <fix>3d</fix>
</trkpt>
<trkpt lat="40.0737611" lon="-105.2300738">
  <ele>1583.56</ele>
  <time>2026-08-28T19:08:33Z</time>
  <course>136.57</course>
  <speed>0.0</speed>
  <fix>3d</fix>
</trkpt>
<trkpt lat="40.0737611" lon="-105.2300738">
  <ele>1583.62</ele>
  <time>2026-08-28T19:08:33Z</time>
  <course>27.63</course>
  <speed>0.01</speed>
  <fix>3d</fix>
</trkpt>
<trkpt lat="40.0737611" lon="-105.2300738">
  <ele>1583.56</ele>
  <time>2026-08-28T19:08:33Z</time>
  <course>98.94</course>
  <speed>0.0</speed>
  <fix>3d</fix>
</trkpt>
<trkpt lat="40.0737611" lon="-105.2300738">
  <ele>1583.62</ele>
  <time>2026-08-28T19:08:33Z</time>
  <course>27.62</course>
  <speed>0.01</speed>
  <fix>3d</fix>
</trkpt>
<trkpt lat="40.0737611" lon="-105.2300738">
  <ele>1583.56</ele>
  <time>2026-08-28T19:08:33Z</time>
  <course>75.41</course>
  <speed>0.0</speed>
  <fix>3d</fix>
</trkpt>
<trkpt lat="40.0737611" lon="-105.2300738">
  <ele>1583.62</ele>
  <time>2026-08-28T19:08:33Z</time>
  <course>27.62</course>
  <speed>0.01</speed>
  <fix>3d</fix>
</trkpt>
<trkpt lat="40.0737611" lon="-105.2300738">
  <ele>1583.56</ele>
  <time>2026-08-28T19:08:33Z</time>
  <course>89.02</course>
  <speed>0.0</speed>
  <fix>3d</fix>
</trkpt>
<trkpt lat="40.0737611" lon="-105.2300738">
  <ele>1583.62</ele>
  <time>2026-08-28T19:08:33Z</time>
  <course>27.62</course>
  <speed>0.01</speed>
  <fix>3d</fix>
</trkpt>
<trkpt lat="40.0737611" lon="-105.2300738">
  <ele>1583.56</ele>
  <time>2026-08-28T19:08:33Z</time>
  <course>106.91</course>
  <speed>0.0</speed>
  <fix>3d</fix>
</trkpt>
<trkpt lat="40.0737611" lon="-105.2300738">
  <ele>1583.63</ele>
  <time>2026-08-28T19:08:33Z</time>
  <course>27.62</course>
  <speed>0.01</speed>
  <fix>3d</fix>
</trkpt>
<trkpt lat="40.0737611" lon="-105.2300738">
  <ele>1583.56</ele>
  <time>2026-08-28T19:08:33Z</time>
  <course>101.96</course>
  <speed>0.0</speed>
  <fix>3d</fix>
</trkpt>
<trkpt lat="40.0737611" lon="-105.2300738">
  <ele>1583.63</ele>
  <time>2026-08-28T19:08:33Z</time>
  <course>27.62</course>
  <speed>0.01</speed>
  <fix>3d</fix>
</trkpt>
<trkpt lat="40.0737611" lon="-105.2300738">
  <ele>1583.56</ele>
  <time>2026-08-28T19:08:33Z</time>
  <course>81.82</course>
  <speed>0.0</speed>
  <fix>3d</fix>
</trkpt>
<trkpt lat="40.0737611" lon="-105.2300738">
  <ele>1583.63</ele>
  <time>2026-08-28T19:08:33Z</time>
  <course>27.62</course>
  <speed>0.01</speed>
  <fix>3d</fix>
</trkpt>
<trkpt lat="40.0737611" lon="-105.2300738">
  <ele>1583.56</ele>
  <time>2026-08-28T19:08:33Z</time>
  <course>87.62</course>
  <speed>0.0</speed>
  <fix>3d</fix>
</trkpt>
<trkpt lat="40.0737611" lon="-105.2300738">
  <ele>1583.63</ele>
  <time>2026-08-28T19:08:33Z</time>
  <course>27.62</course>
  <speed>0.01</speed>
  <fix>3d</fix>
</trkpt>
<trkpt lat="40.0737611" lon="-105.2300738">
  <ele>1583.56</ele>
  <time>2026-08-28T19:08:33Z</time>
  <course>91.37</course>
  <speed>0.0</speed>
  <fix>3d</fix>
</trkpt>
<trkpt lat="40.0737611" lon="-105.2300738">
  <ele>1583.63</ele>
  <time>2026-08-28T19:08:33Z</time>
  <course>27.62</course>
  <speed>0.01</speed>
  <fix>3d</fix>
</trkpt>
<trkpt lat="40.0737611" lon="-105.2300738">
  <ele>1583.56</ele>
  <time>2026-08-28T19:08:33Z</time>
  <course>90.19</course>
  <speed>0.0</speed>
  <fix>3d</fix>
</trkpt>
<trkpt lat="40.0737611" lon="-105.2300738">
  <ele>1583.63</ele>
  <time>2026-08-28T19:08:33Z</time>
  <course>27.62</course>
  <speed>0.01</speed>
  <fix>3d</fix>
</trkpt>
<trkpt lat="40.0737611" lon="-105.2300738">
  <ele>1583.56</ele>
  <time>2026-08-28T19:08:33Z</time>
  <course>89.93</course>
  <speed>0.0</speed>
  <fix>3d</fix>
</trkpt>
<trkpt lat="40.0737611" lon="-105.2300738">
  <ele>1583.63</ele>
  <time>2026-08-28T19:08:33Z</time>
  <course>27.62</course>
  <speed>0.01</speed>
  <fix>3d</fix>
</trkpt>
<trkpt lat="40.0737611" lon="-105.2300738">
  <ele>1583.56</ele>
  <time>2026-08-28T19:08:33Z</time>
  <course>90.19</course>
  <speed>0.0</speed>
  <fix>3d</fix>
</trkpt>
<trkpt lat="40.0737611" lon="-105.2300738">
  <ele>1583.63</ele>
  <time>2026-08-28T19:08:33Z</time>
  <course>27.62</course>
  <speed>0.01</speed>
  <fix>3d</fix>
</trkpt>
<trkpt lat="40.0737611" lon="-105.2300738">
  <ele>1583.56</ele>
  <time>2026-08-28T19:08:33Z</time>
  <course>134.55</course>
  <speed>0.0</speed>
  <fix>3d</fix>
</trkpt>
<trkpt lat="40.0737611" lon="-105.2300738">
  <ele>1583.63</ele>
  <time>2026-08-28T19:08:33Z</time>
  <course>27.62</course>
  <speed>0.01</speed>
  <fix>3d</fix>
</trkpt>
<trkpt lat="40.0737611" lon="-105.2300738">
  <ele>1583.56</ele>
  <time>2026-08-28T19:08:33Z</time>
  <course>138.51</course>
  <speed>0.0</speed>
  <fix>3d</fix>
</trkpt>
<trkpt lat="40.0737611" lon="-105.2300738">
  <ele>1583.63</ele>
  <time>2026-08-28T19:08:33Z</time>
  <course>27.62</course>
  <speed>0.01</speed>
  <fix>3d</fix>
</trkpt>
<trkpt lat="40.0737611" lon="-105.2300738">
  <ele>1583.56</ele>
  <time>2026-08-28T19:08:33Z</time>
  <course>113.43</course>
  <speed>0.0</speed>
  <fix>3d</fix>
</trkpt>
<trkpt lat="40.0737611" lon="-105.2300738">
  <ele>1583.63</ele>
  <time>2026-08-28T19:08:34Z</time>
  <course>27.62</course>
  <speed>0.01</speed>
  <fix>3d</fix>
</trkpt>
<trkpt lat="40.0737611" lon="-105.2300738">
  <ele>1583.56</ele>
  <time>2026-08-28T19:08:34Z</time>
  <course>158.77</course>
  <speed>0.0</speed>
  <fix>3d</fix>
</trkpt>
<trkpt lat="40.0737611" lon="-105.2300738">
  <ele>1583.63</ele>
  <time>2026-08-28T19:08:34Z</time>
  <course>27.62</course>
  <speed>0.01</speed>
  <fix>3d</fix>
</trkpt>
<trkpt lat="40.0737611" lon="-105.2300738">
  <ele>1583.56</ele>
  <time>2026-08-28T19:08:34Z</time>
  <course>121.4</course>
  <speed>0.0</speed>
  <fix>3d</fix>
</trkpt>
<trkpt lat="40.0737611" lon="-105.2300738">
  <ele>1583.63</ele>
  <time>2026-08-28T19:08:34Z</time>
  <course>27.62</course>
  <speed>0.01</speed>
  <fix>3d</fix>
</trkpt>
<trkpt lat="40.0737611" lon="-105.2300738">
  <ele>1583.56</ele>
  <time>2026-08-28T19:08:34Z</time>
  <course>87.82</course>
  <speed>0.0</speed>
  <fix>3d</fix>
</trkpt>
<trkpt lat="40.0737611" lon="-105.2300738">
  <ele>1583.63</ele>
  <time>2026-08-28T19:08:34Z</time>
  <course>27.62</course>
  <speed>0.01</speed>
  <fix>3d</fix>
</trkpt>
<trkpt lat="40.0737611" lon="-105.2300738">
  <ele>1583.56</ele>
  <time>2026-08-28T19:08:34Z</time>
  <course>90.82</course>
  <speed>0.0</speed>
  <fix>3d</fix>
</trkpt>
<trkpt lat="40.0737611" lon="-105.2300738">
  <ele>1583.63</ele>
  <time>2026-08-28T19:08:34Z</time>
  <course>27.63</course>
  <speed>0.01</speed>
  <fix>3d</fix>
</trkpt>
<trkpt lat="40.0737611" lon="-105.2300738">
  <ele>1583.56</ele>
  <time>2026-08-28T19:08:34Z</time>
  <course>94.62</course>
  <speed>0.0</speed>
  <fix>3d</fix>
</trkpt>
<trkpt lat="40.0737611" lon="-105.2300738">
  <ele>1583.63</ele>
  <time>2026-08-28T19:08:34Z</time>
  <course>27.63</course>
  <speed>0.01</speed>
  <fix>3d</fix>
</trkpt>
<trkpt lat="40.0737611" lon="-105.2300738">
  <ele>1583.56</ele>
  <time>2026-08-28T19:08:34Z</time>
  <course>93.69</course>
  <speed>0.0</speed>
  <fix>3d</fix>
</trkpt>
<trkpt lat="40.0737611" lon="-105.2300738">
  <ele>1583.63</ele>
  <time>2026-08-28T19:08:34Z</time>
  <course>27.63</course>
  <speed>0.01</speed>
  <fix>3d</fix>
</trkpt>
<trkpt lat="40.0737611" lon="-105.2300738">
  <ele>1583.56</ele>
  <time>2026-08-28T19:08:34Z</time>
  <course>93.37</course>
  <speed>0.0</speed>
  <fix>3d</fix>
</trkpt>
<trkpt lat="40.0737611" lon="-105.2300738">
  <ele>1583.63</ele>
  <time>2026-08-28T19:08:34Z</time>
  <course>27.63</course>
  <speed>0.01</speed>
  <fix>3d</fix>
</trkpt>
<trkpt lat="40.0737611" lon="-105.2300738">
  <ele>1583.56</ele>
  <time>2026-08-28T19:08:34Z</time>
  <course>93.6</course>
  <speed>0.0</speed>
  <fix>3d</fix>
</trkpt>
<trkpt lat="40.0737611" lon="-105.2300738">
  <ele>1583.63</ele>
  <time>2026-08-28T19:08:34Z</time>
  <course>27.63</course>
  <speed>0.01</speed>
  <fix>3d</fix>
</trkpt>
<trkpt lat="40.0737611" lon="-105.2300738">
  <ele>1583.56</ele>
  <time>2026-08-28T19:08:34Z</time>
  <course>93.69</course>
  <speed>0.0</speed>
  <fix>3d</fix>
</trkpt>
<trkpt lat="40.073761" lon="-105.2300738">
  <ele>1583.63</ele>
  <time>2026-08-28T19:08:34Z</time>
  <course>27.63</course>
  <speed>0.01</speed>
  <fix>3d</fix>
</trkpt>
<trkpt lat="40.0737611" lon="-105.2300738">
  <ele>1583.56</ele>
  <time>2026-08-28T19:08:34Z</time>
  <course>93.72</course>
  <speed>0.0</speed>
  <fix>3d</fix>
</trkpt>
<trkpt lat="40.073761" lon="-105.2300738">
  <ele>1583.63</ele>
  <time>2026-08-28T19:08:34Z</time>
  <course>27.63</course>
  <speed>0.01</speed>
  <fix>3d</fix>
</trkpt>
<trkpt lat="40.0737611" lon="-105.2300738">
  <ele>1583.56</ele>
  <time>2026-08-28T19:08:34Z</time>
  <course>116.84</course>
  <speed>0.0</speed>
  <fix>3d</fix>
</trkpt>
<trkpt lat="40.073761" lon="-105.2300738">
  <ele>1583.63</ele>
  <time>2026-08-28T19:08:34Z</time>
  <course>27.63</course>
  <speed>0.01</speed>
  <fix>3d</fix>
</trkpt>
<trkpt lat="40.0737611" lon="-105.2300738">
  <ele>1583.56</ele>
  <time>2026-08-28T19:08:34Z</time>
  <course>134.58</course>
  <speed>0.0</speed>
  <fix>3d</fix>
</trkpt>
<trkpt lat="40.073761" lon="-105.2300738">
  <ele>1583.64</ele>
  <time>2026-08-28T19:08:34Z</time>
  <course>27.63</course>
  <speed>0.01</speed>
  <fix>3d</fix>
</trkpt>
<trkpt lat="40.0737611" lon="-105.2300738">
  <ele>1583.56</ele>
  <time>2026-08-28T19:08:34Z</time>
  <course>113.65</course>
  <speed>0.0</speed>
  <fix>3d</fix>
</trkpt>
<trkpt lat="40.073761" lon="-105.2300738">
  <ele>1583.64</ele>
  <time>2026-08-28T19:08:34Z</time>
  <course>27.63</course>
  <speed>0.01</speed>
  <fix>3d</fix>
</trkpt>
<trkpt lat="40.0737611" lon="-105.2300738">
  <ele>1583.56</ele>
  <time>2026-08-28T19:08:34Z</time>
  <course>82.92</course>
  <speed>0.0</speed>
  <fix>3d</fix>
</trkpt>
<trkpt lat="40.073761" lon="-105.2300738">
  <ele>1583.64</ele>
  <time>2026-08-28T19:08:34Z</time>
  <course>27.63</course>
  <speed>0.01</speed>
  <fix>3d</fix>
</trkpt>
<trkpt lat="40.0737611" lon="-105.2300738">
  <ele>1583.56</ele>
  <time>2026-08-28T19:08:34Z</time>
  <course>93.95</course>
  <speed>0.0</speed>
  <fix>3d</fix>
</trkpt>
<trkpt lat="40.073761" lon="-105.2300738">
  <ele>1583.64</ele>
  <time>2026-08-28T19:08:34Z</time>
  <course>27.63</course>
  <speed>0.01</speed>
  <fix>3d</fix>
</trkpt>
<trkpt lat="40.0737611" lon="-105.2300738">
  <ele>1583.56</ele>
  <time>2026-08-28T19:08:34Z</time>
  <course>107.93</course>
  <speed>0.0</speed>
  <fix>3d</fix>
</trkpt>
<trkpt lat="40.073761" lon="-105.2300738">
  <ele>1583.65</ele>
  <time>2026-08-28T19:08:34Z</time>
  <course>27.63</course>
  <speed>0.01</speed>
  <fix>3d</fix>
</trkpt>
<trkpt lat="40.0737611" lon="-105.2300738">
  <ele>1583.56</ele>
  <time>2026-08-28T19:08:34Z</time>
  <course>159.82</course>
  <speed>0.0</speed>
  <fix>3d</fix>
</trkpt>
<trkpt lat="40.073761" lon="-105.2300738">
  <ele>1583.65</ele>
  <time>2026-08-28T19:08:34Z</time>
  <course>27.63</course>
  <speed>0.01</speed>
  <fix>3d</fix>
</trkpt>
<trkpt lat="40.0737611" lon="-105.2300738">
  <ele>1583.56</ele>
  <time>2026-08-28T19:08:34Z</time>
  <course>125.93</course>
  <speed>0.0</speed>
  <fix>3d</fix>
</trkpt>
<trkpt lat="40.073761" lon="-105.2300738">
  <ele>1583.65</ele>
  <time>2026-08-28T19:08:34Z</time>
  <course>27.64</course>
  <speed>0.01</speed>
  <fix>3d</fix>
</trkpt>
<trkpt lat="40.0737611" lon="-105.2300738">
  <ele>1583.56</ele>
  <time>2026-08-28T19:08:34Z</time>
  <course>90.04</course>
  <speed>0.0</speed>
  <fix>3d</fix>
</trkpt>
<trkpt lat="40.073761" lon="-105.2300738">
  <ele>1583.65</ele>
  <time>2026-08-28T19:08:34Z</time>
  <course>27.64</course>
  <speed>0.01</speed>
  <fix>3d</fix>
</trkpt>
<trkpt lat="40.0737611" lon="-105.2300738">
  <ele>1583.56</ele>
  <time>2026-08-28T19:08:34Z</time>
  <course>94.59</course>
  <speed>0.0</speed>
  <fix>3d</fix>
</trkpt>
<trkpt lat="40.073761" lon="-105.2300738">
  <ele>1583.65</ele>
  <time>2026-08-28T19:08:34Z</time>
  <course>27.64</course>
  <speed>0.01</speed>
  <fix>3d</fix>
</trkpt>
<trkpt lat="40.0737611" lon="-105.2300738">
  <ele>1583.56</ele>
  <time>2026-08-28T19:08:34Z</time>
  <course>98.64</course>
  <speed>0.0</speed>
  <fix>3d</fix>
</trkpt>
<trkpt lat="40.073761" lon="-105.2300738">
  <ele>1583.65</ele>
  <time>2026-08-28T19:08:34Z</time>
  <course>27.64</course>
  <speed>0.01</speed>
  <fix>3d</fix>
</trkpt>
<trkpt lat="40.0737611" lon="-105.2300738">
  <ele>1583.56</ele>
  <time>2026-08-28T19:08:34Z</time>
  <course>97.43</course>
  <speed>0.0</speed>
  <fix>3d</fix>
</trkpt>
<trkpt lat="40.073761" lon="-105.2300738">
  <ele>1583.65</ele>
  <time>2026-08-28T19:08:34Z</time>
  <course>27.64</course>
  <speed>0.01</speed>
  <fix>3d</fix>
</trkpt>
<trkpt lat="40.0737611" lon="-105.2300738">
  <ele>1583.56</ele>
  <time>2026-08-28T19:08:34Z</time>
  <course>97.06</course>
  <speed>0.0</speed>
  <fix>3d</fix>
</trkpt>
<trkpt lat="40.073761" lon="-105.2300738">
  <ele>1583.65</ele>
  <time>2026-08-28T19:08:34Z</time>
  <course>27.64</course>
  <speed>0.01</speed>
  <fix>3d</fix>
</trkpt>
<trkpt lat="40.0737611" lon="-105.2300738">
  <ele>1583.56</ele>
  <time>2026-08-28T19:08:34Z</time>
  <course>97.26</course>
  <speed>0.0</speed>
  <fix>3d</fix>
</trkpt>
<trkpt lat="40.073761" lon="-105.2300738">
  <ele>1583.65</ele>
  <time>2026-08-28T19:08:34Z</time>
  <course>27.64</course>
  <speed>0.01</speed>
  <fix>3d</fix>
</trkpt>
<trkpt lat="40.0737611" lon="-105.2300738">
  <ele>1583.56</ele>
  <time>2026-08-28T19:08:34Z</time>
  <course>106.08</course>
  <speed>0.0</speed>
  <fix>3d</fix>
</trkpt>
<trkpt lat="40.073761" lon="-105.2300738">
  <ele>1583.65</ele>
  <time>2026-08-28T19:08:34Z</time>
  <course>27.64</course>
  <speed>0.01</speed>
  <fix>3d</fix>
</trkpt>
<trkpt lat="40.0737611" lon="-105.2300738">
  <ele>1583.56</ele>
  <time>2026-08-28T19:08:34Z</time>
  <course>132.39</course>
  <speed>0.0</speed>
  <fix>3d</fix>
</trkpt>
<trkpt lat="40.073761" lon="-105.2300738">
  <ele>1583.65</ele>
  <time>2026-08-28T19:08:34Z</time>
  <course>27.64</course>
  <speed>0.01</speed>
  <fix>3d</fix>
</trkpt>
<trkpt lat="40.0737611" lon="-105.2300738">
  <ele>1583.56</ele>
  <time>2026-08-28T19:08:34Z</time>
  <course>121.3</course>
  <speed>0.0</speed>
  <fix>3d</fix>
</trkpt>
<trkpt lat="40.073761" lon="-105.2300738">
  <ele>1583.65</ele>
  <time>2026-08-28T19:08:34Z</time>
  <course>27.64</course>
  <speed>0.01</speed>
  <fix>3d</fix>
</trkpt>
<trkpt lat="40.0737611" lon="-105.2300738">
  <ele>1583.56</ele>
  <time>2026-08-28T19:08:34Z</time>
  <course>86.61</course>
  <speed>0.0</speed>
  <fix>3d</fix>
</trkpt>
<trkpt lat="40.073761" lon="-105.2300738">
  <ele>1583.65</ele>
  <time>2026-08-28T19:08:34Z</time>
  <course>27.65</course>
  <speed>0.01</speed>
  <fix>3d</fix>
</trkpt>
<trkpt lat="40.0737611" lon="-105.2300738">
  <ele>1583.56</ele>
  <time>2026-08-28T19:08:34Z</time>
  <course>96.02</course>
  <speed>0.0</speed>
  <fix>3d</fix>
</trkpt>
<trkpt lat="40.073761" lon="-105.2300738">
  <ele>1583.65</ele>
  <time>2026-08-28T19:08:34Z</time>
  <course>27.65</course>
  <speed>0.01</speed>
  <fix>3d</fix>
</trkpt>
<trkpt lat="40.0737611" lon="-105.2300738">
  <ele>1583.56</ele>
  <time>2026-08-28T19:08:34Z</time>
  <course>100.81</course>
  <speed>0.0</speed>
  <fix>3d</fix>
</trkpt>
<trkpt lat="40.073761" lon="-105.2300738">
  <ele>1583.65</ele>
  <time>2026-08-28T19:08:34Z</time>
  <course>27.85</course>
  <speed>0.01</speed>
  <fix>3d</fix>
</trkpt>
<trkpt lat="40.0737611" lon="-105.2300738">
  <ele>1583.56</ele>
  <time>2026-08-28T19:08:34Z</time>
  <course>303.77</course>
  <speed>0.0</speed>
  <fix>3d</fix>
</trkpt>
<trkpt lat="40.073761" lon="-105.2300738">
  <ele>1583.65</ele>
  <time>2026-08-28T19:08:34Z</time>
  <course>28.27</course>
  <speed>0.01</speed>
  <fix>3d</fix>
</trkpt>
<trkpt lat="40.0737611" lon="-105.2300738">
  <ele>1583.56</ele>
  <time>2026-08-28T19:08:34Z</time>
  <course>282.93</course>
  <speed>0.0</speed>
  <fix>3d</fix>
</trkpt>
<trkpt lat="40.073761" lon="-105.2300738">
  <ele>1583.65</ele>
  <time>2026-08-28T19:08:34Z</time>
  <course>28.65</course>
  <speed>0.01</speed>
  <fix>3d</fix>
</trkpt>
<trkpt lat="40.0737611" lon="-105.2300738">
  <ele>1583.56</ele>
  <time>2026-08-28T19:08:34Z</time>
  <course>238.36</course>
  <speed>0.0</speed>
  <fix>3d</fix>
</trkpt>
<trkpt lat="40.073761" lon="-105.2300738">
  <ele>1583.65</ele>
  <time>2026-08-28T19:08:34Z</time>
  <course>28.99</course>
  <speed>0.01</speed>
  <fix>3d</fix>
</trkpt>
<trkpt lat="40.0737611" lon="-105.2300738">
  <ele>1583.56</ele>
  <time>2026-08-28T19:08:34Z</time>
  <course>97.4</course>
  <speed>0.0</speed>
  <fix>3d</fix>
</trkpt>
<trkpt lat="40.073761" lon="-105.2300738">
  <ele>1583.65</ele>
  <time>2026-08-28T19:08:34Z</time>
  <course>29.3</course>
  <speed>0.01</speed>
  <fix>3d</fix>
</trkpt>
<trkpt lat="40.0737611" lon="-105.2300738">
  <ele>1583.56</ele>
  <time>2026-08-28T19:08:34Z</time>
  <course>28.43</course>
  <speed>0.0</speed>
  <fix>3d</fix>
</trkpt>
<trkpt lat="40.073761" lon="-105.2300738">
  <ele>1583.65</ele>
  <time>2026-08-28T19:08:34Z</time>
  <course>29.59</course>
  <speed>0.01</speed>
  <fix>3d</fix>
</trkpt>
<trkpt lat="40.0737611" lon="-105.2300738">
  <ele>1583.56</ele>
  <time>2026-08-28T19:08:34Z</time>
  <course>268.98</course>
  <speed>0.0</speed>
  <fix>3d</fix>
</trkpt>
<trkpt lat="40.073761" lon="-105.2300738">
  <ele>1583.65</ele>
  <time>2026-08-28T19:08:34Z</time>
  <course>29.85</course>
  <speed>0.01</speed>
  <fix>3d</fix>
</trkpt>
<trkpt lat="40.0737611" lon="-105.2300738">
  <ele>1583.56</ele>
  <time>2026-08-28T19:08:34Z</time>
  <course>159.81</course>
  <speed>0.0</speed>
  <fix>3d</fix>
</trkpt>
<trkpt lat="40.073761" lon="-105.2300738">
  <ele>1583.65</ele>
  <time>2026-08-28T19:08:34Z</time>
  <course>30.09</course>
  <speed>0.01</speed>
  <fix>3d</fix>
</trkpt>
<trkpt lat="40.0737611" lon="-105.2300738">
  <ele>1583.56</ele>
  <time>2026-08-28T19:08:34Z</time>
  <course>96.37</course>
  <speed>0.0</speed>
  <fix>3d</fix>
</trkpt>
<trkpt lat="40.073761" lon="-105.2300738">
  <ele>1583.65</ele>
  <time>2026-08-28T19:08:34Z</time>
  <course>30.32</course>
  <speed>0.01</speed>
  <fix>3d</fix>
</trkpt>
<trkpt lat="40.0737611" lon="-105.2300738">
  <ele>1583.56</ele>
  <time>2026-08-28T19:08:34Z</time>
  <course>235.36</course>
  <speed>0.0</speed>
  <fix>3d</fix>
</trkpt>
<trkpt lat="40.073761" lon="-105.2300738">
  <ele>1583.66</ele>
  <time>2026-08-28T19:08:34Z</time>
  <course>30.53</course>
  <speed>0.01</speed>
  <fix>3d</fix>
</trkpt>
<trkpt lat="40.0737611" lon="-105.2300738">
  <ele>1583.56</ele>
  <time>2026-08-28T19:08:34Z</time>
  <course>198.71</course>
  <speed>0.0</speed>
  <fix>3d</fix>
</trkpt>
<trkpt lat="40.0737611" lon="-105.2300738">
  <ele>1583.66</ele>
  <time>2026-08-28T19:08:34Z</time>
  <course>30.73</course>
  <speed>0.01</speed>
  <fix>3d</fix>
</trkpt>
<trkpt lat="40.0737611" lon="-105.2300738">
  <ele>1583.56</ele>
  <time>2026-08-28T19:08:34Z</time>
  <course>164.37</course>
  <speed>0.0</speed>
  <fix>3d</fix>
</trkpt>
<trkpt lat="40.0737611" lon="-105.2300738">
  <ele>1583.67</ele>
  <time>2026-08-28T19:08:34Z</time>
  <course>30.92</course>
  <speed>0.01</speed>
  <fix>3d</fix>
</trkpt>
<trkpt lat="40.0737611" lon="-105.2300738">
  <ele>1583.56</ele>
  <time>2026-08-28T19:08:34Z</time>
  <course>169.68</course>
  <speed>0.0</speed>
  <fix>3d</fix>
</trkpt>
<trkpt lat="40.0737611" lon="-105.2300738">
  <ele>1583.66</ele>
  <time>2026-08-28T19:08:34Z</time>
  <course>31.55</course>
  <speed>0.01</speed>
  <fix>3d</fix>
</trkpt>
<trkpt lat="40.0737611" lon="-105.2300738">
  <ele>1583.56</ele>
  <time>2026-08-28T19:08:34Z</time>
  <course>172.65</course>
  <speed>0.0</speed>
  <fix>3d</fix>
</trkpt>
<trkpt lat="40.0737611" lon="-105.2300738">
  <ele>1583.65</ele>
  <time>2026-08-28T19:08:34Z</time>
  <course>31.69</course>
  <speed>0.01</speed>
  <fix>3d</fix>
</trkpt>
<trkpt lat="40.0737611" lon="-105.2300738">
  <ele>1583.56</ele>
  <time>2026-08-28T19:08:34Z</time>
  <course>172.68</course>
  <speed>0.0</speed>
  <fix>3d</fix>
</trkpt>
<trkpt lat="40.0737611" lon="-105.2300738">
  <ele>1583.65</ele>
  <time>2026-08-28T19:08:34Z</time>
  <course>31.81</course>
  <speed>0.01</speed>
  <fix>3d</fix>
</trkpt>
<trkpt lat="40.0737611" lon="-105.2300738">
  <ele>1583.56</ele>
  <time>2026-08-28T19:08:34Z</time>
  <course>172.65</course>
  <speed>0.0</speed>
  <fix>3d</fix>
</trkpt>
<trkpt lat="40.0737611" lon="-105.2300738">
  <ele>1583.64</ele>
  <time>2026-08-28T19:08:34Z</time>
  <course>31.94</course>
  <speed>0.01</speed>
  <fix>3d</fix>
</trkpt>
<trkpt lat="40.0737611" lon="-105.2300738">
  <ele>1583.56</ele>
  <time>2026-08-28T19:08:34Z</time>
  <course>172.65</course>
  <speed>0.0</speed>
  <fix>3d</fix>
</trkpt>
<trkpt lat="40.0737611" lon="-105.2300738">
  <ele>1583.64</ele>
  <time>2026-08-28T19:08:34Z</time>
  <course>32.05</course>
  <speed>0.01</speed>
  <fix>3d</fix>
</trkpt>
<trkpt lat="40.0737611" lon="-105.2300738">
  <ele>1583.56</ele>
  <time>2026-08-28T19:08:34Z</time>
  <course>172.65</course>
  <speed>0.0</speed>
  <fix>3d</fix>
</trkpt>
<trkpt lat="40.0737611" lon="-105.2300738">
  <ele>1583.63</ele>
  <time>2026-08-28T19:08:34Z</time>
  <course>32.16</course>
  <speed>0.01</speed>
  <fix>3d</fix>
</trkpt>
<trkpt lat="40.0737611" lon="-105.2300738">
  <ele>1583.56</ele>
  <time>2026-08-28T19:08:34Z</time>
  <course>172.65</course>
  <speed>0.0</speed>
  <fix>3d</fix>
</trkpt>
<trkpt lat="40.0737611" lon="-105.2300738">
  <ele>1583.63</ele>
  <time>2026-08-28T19:08:34Z</time>
  <course>32.27</course>
  <speed>0.01</speed>
  <fix>3d</fix>
</trkpt>
<trkpt lat="40.0737611" lon="-105.2300738">
  <ele>1583.56</ele>
  <time>2026-08-28T19:08:34Z</time>
  <course>172.65</course>
  <speed>0.0</speed>
  <fix>3d</fix>
</trkpt>
<trkpt lat="40.0737611" lon="-105.2300738">
  <ele>1583.62</ele>
  <time>2026-08-28T19:08:34Z</time>
  <course>32.37</course>
  <speed>0.01</speed>
  <fix>3d</fix>
</trkpt>
<trkpt lat="40.0737611" lon="-105.2300738">
  <ele>1583.56</ele>
  <time>2026-08-28T19:08:34Z</time>
  <course>172.65</course>
  <speed>0.0</speed>
  <fix>3d</fix>
</trkpt>
<trkpt lat="40.0737611" lon="-105.2300738">
  <ele>1583.62</ele>
  <time>2026-08-28T19:08:34Z</time>
  <course>32.46</course>
  <speed>0.01</speed>
  <fix>3d</fix>
</trkpt>
<trkpt lat="40.0737611" lon="-105.2300738">
  <ele>1583.56</ele>
  <time>2026-08-28T19:08:34Z</time>
  <course>172.65</course>
  <speed>0.0</speed>
  <fix>3d</fix>
</trkpt>
<trkpt lat="40.0737611" lon="-105.2300738">
  <ele>1583.62</ele>
  <time>2026-08-28T19:08:34Z</time>
  <course>32.56</course>
  <speed>0.01</speed>
  <fix>3d</fix>
</trkpt>
<trkpt lat="40.0737611" lon="-105.2300738">
  <ele>1583.56</ele>
  <time>2026-08-28T19:08:34Z</time>
  <course>172.65</course>
  <speed>0.0</speed>
  <fix>3d</fix>
</trkpt>
<trkpt lat="40.0737611" lon="-105.2300738">
  <ele>1583.62</ele>
  <time>2026-08-28T19:08:34Z</time>
  <course>32.64</course>
  <speed>0.01</speed>
  <fix>3d</fix>
</trkpt>
<trkpt lat="40.0737611" lon="-105.2300738">
  <ele>1583.56</ele>
  <time>2026-08-28T19:08:34Z</time>
  <course>172.65</course>
  <speed>0.0</speed>
  <fix>3d</fix>
</trkpt>
<trkpt lat="40.0737611" lon="-105.2300738">
  <ele>1583.63</ele>
  <time>2026-08-28T19:08:34Z</time>
  <course>32.73</course>
  <speed>0.01</speed>
  <fix>3d</fix>
</trkpt>
<trkpt lat="40.0737611" lon="-105.2300738">
  <ele>1583.56</ele>
  <time>2026-08-28T19:08:34Z</time>
  <course>172.65</course>
  <speed>0.0</speed>
  <fix>3d</fix>
</trkpt>
<trkpt lat="39.6562421" lon="-104.1365912">
  <ele>1569.6</ele>
  <time>2026-08-28T19:08:35Z</time>
  <course>14.17</course>
  <speed>0.0</speed>
  <fix>3d</fix>
</trkpt>
<trkpt lat="40.072842" lon="-105.230575">
  <ele>1586.09</ele>
  <time>2026-08-28T19:08:35Z</time>
  <course>2.03</course>
  <speed>0.0</speed>
  <fix>3d</fix>
</trkpt>
<trkpt lat="40.072842" lon="-105.230575">
  <ele>1586.09</ele>
  <time>2026-08-28T19:08:35Z</time>
  <course>344.04</course>
  <speed>0.0</speed>
  <fix>3d</fix>
</trkpt>
<trkpt lat="40.072842" lon="-105.230575">
  <ele>1586.09</ele>
  <time>2026-08-28T19:08:35Z</time>
  <course>2.44</course>
  <speed>0.0</speed>
  <fix>3d</fix>
</trkpt>
<trkpt lat="40.072842" lon="-105.230575">
  <ele>1586.09</ele>
  <time>2026-08-28T19:08:35Z</time>
  <course>236.53</course>
  <speed>0.0</speed>
  <fix>3d</fix>
</trkpt>
<trkpt lat="40.072842" lon="-105.230575">
  <ele>1586.09</ele>
  <time>2026-08-28T19:08:35Z</time>
  <course>3.19</course>
  <speed>0.0</speed>
  <fix>3d</fix>
</trkpt>
<trkpt lat="40.072842" lon="-105.230575">
  <ele>1586.09</ele>
  <time>2026-08-28T19:08:35Z</time>
  <course>181.85</course>
  <speed>0.0</speed>
  <fix>3d</fix>
</trkpt>
<trkpt lat="40.072842" lon="-105.230575">
  <ele>1586.09</ele>
  <time>2026-08-28T19:08:35Z</time>
  <course>3.87</course>
  <speed>0.0</speed>
  <fix>3d</fix>
</trkpt>
<trkpt lat="40.072842" lon="-105.230575">
  <ele>1586.09</ele>
  <time>2026-08-28T19:08:35Z</time>
  <course>38.5</course>
  <speed>0.0</speed>
  <fix>3d</fix>
</trkpt>
<trkpt lat="40.072842" lon="-105.230575">
  <ele>1586.09</ele>
  <time>2026-08-28T19:08:35Z</time>
  <course>4.49</course>
  <speed>0.0</speed>
  <fix>3d</fix>
</trkpt>
<trkpt lat="40.072842" lon="-105.230575">
  <ele>1586.09</ele>
  <time>2026-08-28T19:08:35Z</time>
  <course>341.08</course>
  <speed>0.0</speed>
  <fix>3d</fix>
</trkpt>
<trkpt lat="40.072842" lon="-105.230575">
  <ele>1586.09</ele>
  <time>2026-08-28T19:08:35Z</time>
  <course>5.09</course>
  <speed>0.0</speed>
  <fix>3d</fix>
</trkpt>
<trkpt lat="40.072842" lon="-105.230575">
  <ele>1586.09</ele>
  <time>2026-08-28T19:08:35Z</time>
  <course>79.87</course>
  <speed>0.0</speed>
  <fix>3d</fix>
</trkpt>
<trkpt lat="40.072842" lon="-105.230575">
  <ele>1586.09</ele>
  <time>2026-08-28T19:08:35Z</time>
  <course>5.65</course>
  <speed>0.0</speed>
  <fix>3d</fix>
</trkpt>
<trkpt lat="40.072842" lon="-105.230575">
  <ele>1586.09</ele>
  <time>2026-08-28T19:08:35Z</time>
  <course>78.75</course>
  <speed>0.0</speed>
  <fix>3d</fix>
</trkpt>
<trkpt lat="40.072842" lon="-105.230575">
  <ele>1586.09</ele>
  <time>2026-08-28T19:08:35Z</time>
  <course>6.17</course>
  <speed>0.0</speed>
  <fix>3d</fix>
</trkpt>
<trkpt lat="40.072842" lon="-105.230575">
  <ele>1586.09</ele>
  <time>2026-08-28T19:08:35Z</time>
  <course>198.3</course>
  <speed>0.0</speed>
  <fix>3d</fix>
</trkpt>
<trkpt lat="40.072842" lon="-105.230575">
  <ele>1586.09</ele>
  <time>2026-08-28T19:08:35Z</time>
  <course>6.66</course>
  <speed>0.0</speed>
  <fix>3d</fix>
</trkpt>
<trkpt lat="40.072842" lon="-105.230575">
  <ele>1586.09</ele>
  <time>2026-08-28T19:08:35Z</time>
  <course>208.9</course>
  <speed>0.0</speed>
  <fix>3d</fix>
</trkpt>
<trkpt lat="40.072842" lon="-105.230575">
  <ele>1586.09</ele>
  <time>2026-08-28T19:08:35Z</time>
  <course>7.11</course>
  <speed>0.0</speed>
  <fix>3d</fix>
</trkpt>
<trkpt lat="40.072842" lon="-105.230575">
  <ele>1586.09</ele>
  <time>2026-08-28T19:08:35Z</time>
  <course>59.22</course>
  <speed>0.0</speed>
  <fix>3d</fix>
</trkpt>
<trkpt lat="40.072842" lon="-105.230575">
  <ele>1586.09</ele>
  <time>2026-08-28T19:08:35Z</time>
  <course>7.54</course>
  <speed>0.0</speed>
  <fix>3d</fix>
</trkpt>
<trkpt lat="40.072842" lon="-105.230575">
  <ele>1586.09</ele>
  <time>2026-08-28T19:08:35Z</time>
  <course>78.2</course>
  <speed>0.0</speed>
  <fix>3d</fix>
</trkpt>
<trkpt lat="40.072842" lon="-105.230575">
  <ele>1586.09</ele>
  <time>2026-08-28T19:08:35Z</time>
  <course>7.93</course>
  <speed>0.0</speed>
  <fix>3d</fix>
</trkpt>
<trkpt lat="40.072842" lon="-105.230575">
  <ele>1586.09</ele>
  <time>2026-08-28T19:08:35Z</time>
  <course>275.97</course>
  <speed>0.0</speed>
  <fix>3d</fix>
</trkpt>
<trkpt lat="40.072842" lon="-105.230575">
  <ele>1586.09</ele>
  <time>2026-08-28T19:08:35Z</time>
  <course>8.29</course>
  <speed>0.0</speed>
  <fix>3d</fix>
</trkpt>
<trkpt lat="40.072842" lon="-105.230575">
  <ele>1586.09</ele>
  <time>2026-08-28T19:08:35Z</time>
  <course>272.6</course>
  <speed>0.0</speed>
  <fix>3d</fix>
</trkpt>
<trkpt lat="40.072842" lon="-105.230575">
  <ele>1586.09</ele>
  <time>2026-08-28T19:08:35Z</time>
  <course>8.63</course>
  <speed>0.0</speed>
  <fix>3d</fix>
</trkpt>
<trkpt lat="40.072842" lon="-105.230575">
  <ele>1586.09</ele>
  <time>2026-08-28T19:08:35Z</time>
  <course>135.8</course>
  <speed>0.0</speed>
  <fix>3d</fix>
</trkpt>
<trkpt lat="40.072842" lon="-105.230575">
  <ele>1586.09</ele>
  <time>2026-08-28T19:08:35Z</time>
  <course>8.94</course>
  <speed>0.0</speed>
  <fix>3d</fix>
</trkpt>
<trkpt lat="40.072842" lon="-105.230575">
  <ele>1586.09</ele>
  <time>2026-08-28T19:08:35Z</time>
  <course>4.81</course>
  <speed>0.0</speed>
  <fix>3d</fix>
</trkpt>
<trkpt lat="40.072842" lon="-105.230575">
  <ele>1586.09</ele>
  <time>2026-08-28T19:08:35Z</time>
  <course>9.23</course>
  <speed>0.0</speed>
  <fix>3d</fix>
</trkpt>
<trkpt lat="40.072842" lon="-105.230575">
  <ele>1586.09</ele>
  <time>2026-08-28T19:08:35Z</time>
  <course>333.21</course>
  <speed>0.0</speed>
  <fix>3d</fix>
</trkpt>
<trkpt lat="40.072842" lon="-105.230575">
  <ele>1586.09</ele>
  <time>2026-08-28T19:08:35Z</time>
  <course>9.49</course>
  <speed>0.0</speed>
  <fix>3d</fix>
</trkpt>
<trkpt lat="40.072842" lon="-105.230575">
  <ele>1586.09</ele>
  <time>2026-08-28T19:08:35Z</time>
  <course>207.41</course>
  <speed>0.0</speed>
  <fix>3d</fix>
</trkpt>
<trkpt lat="40.072842" lon="-105.230575">
  <ele>1586.09</ele>
  <time>2026-08-28T19:08:35Z</time>
  <course>9.73</course>
  <speed>0.0</speed>
  <fix>3d</fix>
</trkpt>
<trkpt lat="40.072842" lon="-105.230575">
  <ele>1586.09</ele>
  <time>2026-08-28T19:08:35Z</time>
  <course>250.02</course>
  <speed>0.0</speed>
  <fix>3d</fix>
</trkpt>
<trkpt lat="40.072842" lon="-105.230575">
  <ele>1586.09</ele>
  <time>2026-08-28T19:08:35Z</time>
  <course>9.95</course>
  <speed>0.0</speed>
  <fix>3d</fix>
</trkpt>
<trkpt lat="40.072842" lon="-105.230575">
  <ele>1586.09</ele>
  <time>2026-08-28T19:08:35Z</time>
  <course>260.86</course>
  <speed>0.0</speed>
  <fix>3d</fix>
</trkpt>
<trkpt lat="40.072842" lon="-105.230575">
  <ele>1586.09</ele>
  <time>2026-08-28T19:08:35Z</time>
  <course>10.16</course>
  <speed>0.0</speed>
  <fix>3d</fix>
</trkpt>
<trkpt lat="40.072842" lon="-105.230575">
  <ele>1586.09</ele>
  <time>2026-08-28T19:08:35Z</time>
  <course>291.3</course>
  <speed>0.0</speed>
  <fix>3d</fix>
</trkpt>
<trkpt lat="40.072842" lon="-105.230575">
  <ele>1586.09</ele>
  <time>2026-08-28T19:08:35Z</time>
  <course>10.34</course>
  <speed>0.0</speed>
  <fix>3d</fix>
</trkpt>
<trkpt lat="40.072842" lon="-105.230575">
  <ele>1586.09</ele>
  <time>2026-08-28T19:08:35Z</time>
  <course>266.59</course>
  <speed>0.0</speed>
  <fix>3d</fix>
</trkpt>
<trkpt lat="40.072842" lon="-105.230575">
  <ele>1586.09</ele>
  <time>2026-08-28T19:08:35Z</time>
  <course>10.52</course>
  <speed>0.0</speed>
  <fix>3d</fix>
</trkpt>
<trkpt lat="40.072842" lon="-105.230575">
  <ele>1586.09</ele>
  <time>2026-08-28T19:08:35Z</time>
  <course>264.88</course>
  <speed>0.0</speed>
  <fix>3d</fix>
</trkpt>
<trkpt lat="40.072842" lon="-105.230575">
  <ele>1586.09</ele>
  <time>2026-08-28T19:08:35Z</time>
  <course>10.67</course>
  <speed>0.0</speed>
  <fix>3d</fix>
</trkpt>
<trkpt lat="40.072842" lon="-105.230575">
  <ele>1586.09</ele>
  <time>2026-08-28T19:08:35Z</time>
  <course>266.12</course>
  <speed>0.0</speed>
  <fix>3d</fix>
</trkpt>
<trkpt lat="40.072842" lon="-105.230575">
  <ele>1586.09</ele>
  <time>2026-08-28T19:08:35Z</time>
  <course>10.82</course>
  <speed>0.0</speed>
  <fix>3d</fix>
</trkpt>
<trkpt lat="40.072842" lon="-105.230575">
  <ele>1586.09</ele>
  <time>2026-08-28T19:08:35Z</time>
  <course>266.2</course>
  <speed>0.0</speed>
  <fix>3d</fix>
</trkpt>
<trkpt lat="40.072842" lon="-105.230575">
  <ele>1586.09</ele>
  <time>2026-08-28T19:08:35Z</time>
  <course>10.95</course>
  <speed>0.0</speed>
  <fix>3d</fix>
</trkpt>
<trkpt lat="40.072842" lon="-105.230575">
  <ele>1586.09</ele>
  <time>2026-08-28T19:08:35Z</time>
  <course>266.0</course>
  <speed>0.0</speed>
  <fix>3d</fix>
</trkpt>
<trkpt lat="40.072842" lon="-105.230575">
  <ele>1586.09</ele>
  <time>2026-08-28T19:08:35Z</time>
  <course>11.07</course>
  <speed>0.0</speed>
  <fix>3d</fix>
</trkpt>
<trkpt lat="40.072842" lon="-105.230575">
  <ele>1586.09</ele>
  <time>2026-08-28T19:08:35Z</time>
  <course>266.02</course>
  <speed>0.0</speed>
  <fix>3d</fix>
</trkpt>
<trkpt lat="40.072842" lon="-105.230575">
  <ele>1586.09</ele>
  <time>2026-08-28T19:08:35Z</time>
  <course>11.18</course>
  <speed>0.0</speed>
  <fix>3d</fix>
</trkpt>
<trkpt lat="40.072842" lon="-105.230575">
  <ele>1586.09</ele>
  <time>2026-08-28T19:08:35Z</time>
  <course>266.04</course>
  <speed>0.0</speed>
  <fix>3d</fix>
</trkpt>
<trkpt lat="40.072842" lon="-105.230575">
  <ele>1586.09</ele>
  <time>2026-08-28T19:08:35Z</time>
  <course>11.28</course>
  <speed>0.0</speed>
  <fix>3d</fix>
</trkpt>
<trkpt lat="40.072842" lon="-105.230575">
  <ele>1586.09</ele>
  <time>2026-08-28T19:08:35Z</time>
  <course>266.04</course>
  <speed>0.0</speed>
  <fix>3d</fix>
</trkpt>
<trkpt lat="40.072842" lon="-105.230575">
  <ele>1586.09</ele>
  <time>2026-08-28T19:08:35Z</time>
  <course>11.37</course>
  <speed>0.0</speed>
  <fix>3d</fix>
</trkpt>
<trkpt lat="40.072842" lon="-105.230575">
  <ele>1586.09</ele>
  <time>2026-08-28T19:08:35Z</time>
  <course>266.03</course>
  <speed>0.0</speed>
  <fix>3d</fix>
</trkpt>
<trkpt lat="40.072842" lon="-105.230575">
  <ele>1586.09</ele>
  <time>2026-08-28T19:08:35Z</time>
  <course>11.45</course>
  <speed>0.0</speed>
  <fix>3d</fix>
</trkpt>
<trkpt lat="40.072842" lon="-105.230575">
  <ele>1586.09</ele>
  <time>2026-08-28T19:08:35Z</time>
  <course>266.03</course>
  <speed>0.0</speed>
  <fix>3d</fix>
</trkpt>
<trkpt lat="40.072842" lon="-105.230575">
  <ele>1586.09</ele>
  <time>2026-08-28T19:08:35Z</time>
  <course>11.52</course>
  <speed>0.0</speed>
  <fix>3d</fix>
</trkpt>
<trkpt lat="40.072842" lon="-105.230575">
  <ele>1586.09</ele>
  <time>2026-08-28T19:08:35Z</time>
  <course>266.03</course>
  <speed>0.0</speed>
  <fix>3d</fix>
</trkpt>
<trkpt lat="40.072842" lon="-105.230575">
  <ele>1586.09</ele>
  <time>2026-08-28T19:08:35Z</time>
  <course>11.59</course>
  <speed>0.0</speed>
  <fix>3d</fix>
</trkpt>
<trkpt lat="40.072842" lon="-105.230575">
  <ele>1586.09</ele>
  <time>2026-08-28T19:08:35Z</time>
  <course>266.03</course>
  <speed>0.0</speed>
  <fix>3d</fix>
</trkpt>
<trkpt lat="40.072842" lon="-105.230575">
  <ele>1586.09</ele>
  <time>2026-08-28T19:08:35Z</time>
  <course>11.65</course>
  <speed>0.0</speed>
  <fix>3d</fix>
</trkpt>
<trkpt lat="40.072842" lon="-105.230575">
  <ele>1586.09</ele>
  <time>2026-08-28T19:08:35Z</time>
  <course>266.03</course>
  <speed>0.0</speed>
  <fix>3d</fix>
</trkpt>
<trkpt lat="40.072842" lon="-105.230575">
  <ele>1586.09</ele>
  <time>2026-08-28T19:08:35Z</time>
  <course>11.71</course>
  <speed>0.0</speed>
  <fix>3d</fix>
</trkpt>
<trkpt lat="40.072842" lon="-105.230575">
  <ele>1586.09</ele>
  <time>2026-08-28T19:08:35Z</time>
  <course>266.03</course>
  <speed>0.0</speed>
  <fix>3d</fix>
</trkpt>
<trkpt lat="40.072842" lon="-105.230575">
  <ele>1586.09</ele>
  <time>2026-08-28T19:08:35Z</time>
  <course>11.77</course>
  <speed>0.0</speed>
  <fix>3d</fix>
</trkpt>
<trkpt lat="40.072842" lon="-105.230575">
  <ele>1586.09</ele>
  <time>2026-08-28T19:08:35Z</time>
  <course>266.03</course>
  <speed>0.0</speed>
  <fix>3d</fix>
</trkpt>
<trkpt lat="40.072842" lon="-105.230575">
  <ele>1586.09</ele>
  <time>2026-08-28T19:08:35Z</time>
  <course>11.81</course>
  <speed>0.0</speed>
  <fix>3d</fix>
</trkpt>
<trkpt lat="40.072842" lon="-105.230575">
  <ele>1586.09</ele>
  <time>2026-08-28T19:08:35Z</time>
  <course>266.03</course>
  <speed>0.0</speed>
  <fix>3d</fix>
</trkpt>
<trkpt lat="40.072842" lon="-105.230575">
  <ele>1586.09</ele>
  <time>2026-08-28T19:08:35Z</time>
  <course>11.85</course>
  <speed>0.0</speed>
  <fix>3d</fix>
</trkpt>
<trkpt lat="40.072842" lon="-105.230575">
  <ele>1586.09</ele>
  <time>2026-08-28T19:08:35Z</time>
  <course>266.03</course>
  <speed>0.0</speed>
  <fix>3d</fix>
</trkpt>
<trkpt lat="40.072842" lon="-105.230575">
  <ele>1586.09</ele>
  <time>2026-08-28T19:08:35Z</time>
  <course>11.89</course>
  <speed>0.0</speed>
  <fix>3d</fix>
</trkpt>
<trkpt lat="40.072842" lon="-105.230575">
  <ele>1586.09</ele>
  <time>2026-08-28T19:08:35Z</time>
  <course>266.03</course>
  <speed>0.0</speed>
  <fix>3d</fix>
</trkpt>
<trkpt lat="40.072842" lon="-105.230575">
  <ele>1586.09</ele>
  <time>2026-08-28T19:08:35Z</time>
  <course>11.92</course>
  <speed>0.0</speed>
  <fix>3d</fix>
</trkpt>
<trkpt lat="40.072842" lon="-105.230575">
  <ele>1586.09</ele>
  <time>2026-08-28T19:08:35Z</time>
  <course>266.03</course>
  <speed>0.0</speed>
  <fix>3d</fix>
</trkpt>
<trkpt lat="40.072842" lon="-105.230575">
  <ele>1586.09</ele>
  <time>2026-08-28T19:08:35Z</time>
  <course>11.95</course>
  <speed>0.0</speed>
  <fix>3d</fix>
</trkpt>
<trkpt lat="40.072842" lon="-105.230575">
  <ele>1586.09</ele>
  <time>2026-08-28T19:08:35Z</time>
  <course>266.03</course>
  <speed>0.0</speed>
  <fix>3d</fix>
</trkpt>
<trkpt lat="40.072842" lon="-105.230575">
  <ele>1586.09</ele>
  <time>2026-08-28T19:08:35Z</time>
  <course>11.98</course>
  <speed>0.0</speed>
  <fix>3d</fix>
</trkpt>
<trkpt lat="40.072842" lon="-105.230575">
  <ele>1586.09</ele>
  <time>2026-08-28T19:08:35Z</time>
  <course>266.03</course>
  <speed>0.0</speed>
  <fix>3d</fix>
</trkpt>
<trkpt lat="40.072842" lon="-105.230575">
  <ele>1586.09</ele>
  <time>2026-08-28T19:08:35Z</time>
  <course>12.0</course>
  <speed>0.0</speed>
  <fix>3d</fix>
</trkpt>
<trkpt lat="40.072842" lon="-105.230575">
  <ele>1586.09</ele>
  <time>2026-08-28T19:08:35Z</time>
  <course>266.03</course>
  <speed>0.0</speed>
  <fix>3d</fix>
</trkpt>
<trkpt lat="40.072842" lon="-105.230575">
  <ele>1586.09</ele>
  <time>2026-08-28T19:08:35Z</time>
  <course>12.02</course>
  <speed>0.0</speed>
  <fix>3d</fix>
</trkpt>
<trkpt lat="40.072842" lon="-105.230575">
  <ele>1586.09</ele>
  <time>2026-08-28T19:08:35Z</time>
  <course>266.03</course>
  <speed>0.0</speed>
  <fix>3d</fix>
</trkpt>
<trkpt lat="40.072842" lon="-105.230575">
  <ele>1586.09</ele>
  <time>2026-08-28T19:08:35Z</time>
  <course>12.04</course>
  <speed>0.0</speed>
  <fix>3d</fix>
</trkpt>
<trkpt lat="40.072842" lon="-105.230575">
  <ele>1586.09</ele>
  <time>2026-08-28T19:08:35Z</time>
  <course>266.03</course>
  <speed>0.0</speed>
  <fix>3d</fix>
</trkpt>
<trkpt lat="40.072842" lon="-105.230575">
  <ele>1586.09</ele>
  <time>2026-08-28T19:08:35Z</time>
  <course>12.05</course>
  <speed>0.0</speed>
  <fix>3d</fix>
</trkpt>
<trkpt lat="40.072842" lon="-105.230575">
  <ele>1586.09</ele>
  <time>2026-08-28T19:08:35Z</time>
  <course>266.03</course>
  <speed>0.0</speed>
  <fix>3d</fix>
</trkpt>
<trkpt lat="40.072842" lon="-105.230575">
  <ele>1586.09</ele>
  <time>2026-08-28T19:08:35Z</time>
  <course>12.07</course>
  <speed>0.0</speed>
  <fix>3d</fix>
</trkpt>
<trkpt lat="40.072842" lon="-105.230575">
  <ele>1586.09</ele>
  <time>2026-08-28T19:08:35Z</time>
  <course>266.03</course>
  <speed>0.0</speed>
  <fix>3d</fix>
</trkpt>
<trkpt lat="40.072842" lon="-105.230575">
  <ele>1586.09</ele>
  <time>2026-08-28T19:08:35Z</time>
  <course>12.08</course>
  <speed>0.0</speed>
  <fix>3d</fix>
</trkpt>
<trkpt lat="40.072842" lon="-105.230575">
  <ele>1586.09</ele>
  <time>2026-08-28T19:08:35Z</time>
  <course>266.03</course>
  <speed>0.0</speed>
  <fix>3d</fix>
</trkpt>
<trkpt lat="40.072842" lon="-105.230575">
  <ele>1586.09</ele>
  <time>2026-08-28T19:08:35Z</time>
  <course>12.09</course>
  <speed>0.0</speed>
  <fix>3d</fix>
</trkpt>
<trkpt lat="40.072842" lon="-105.230575">
  <ele>1586.09</ele>
  <time>2026-08-28T19:08:35Z</time>
  <course>266.03</course>
  <speed>0.0</speed>
  <fix>3d</fix>
</trkpt>
<trkpt lat="40.072842" lon="-105.230575">
  <ele>1586.09</ele>
  <time>2026-08-28T19:08:35Z</time>
  <course>12.1</course>
  <speed>0.0</speed>
  <fix>3d</fix>
</trkpt>
<trkpt lat="40.072842" lon="-105.230575">
  <ele>1586.09</ele>
  <time>2026-08-28T19:08:35Z</time>
  <course>266.03</course>
  <speed>0.0</speed>
  <fix>3d</fix>
</trkpt>
<trkpt lat="40.072842" lon="-105.230575">
  <ele>1586.09</ele>
  <time>2026-08-28T19:08:35Z</time>
  <course>12.1</course>
  <speed>0.0</speed>
  <fix>3d</fix>
</trkpt>
<trkpt lat="40.072842" lon="-105.230575">
  <ele>1586.09</ele>
  <time>2026-08-28T19:08:35Z</time>
  <course>266.03</course>
  <speed>0.0</speed>
  <fix>3d</fix>
</trkpt>
<trkpt lat="40.072842" lon="-105.230575">
  <ele>1586.09</ele>
  <time>2026-08-28T19:08:35Z</time>
  <course>12.11</course>
  <speed>0.0</speed>
  <fix>3d</fix>
</trkpt>
<trkpt lat="40.072842" lon="-105.230575">
  <ele>1586.09</ele>
  <time>2026-08-28T19:08:35Z</time>
  <course>266.03</course>
  <speed>0.0</speed>
  <fix>3d</fix>
</trkpt>
<trkpt lat="40.072842" lon="-105.230575">
  <ele>1586.09</ele>
  <time>2026-08-28T19:08:35Z</time>
  <course>12.11</course>
  <speed>0.0</speed>
  <fix>3d</fix>
</trkpt>
<trkpt lat="40.072842" lon="-105.230575">
  <ele>1586.09</ele>
  <time>2026-08-28T19:08:35Z</time>
  <course>266.03</course>
  <speed>0.0</speed>
  <fix>3d</fix>
</trkpt>
<trkpt lat="40.072842" lon="-105.230575">
  <ele>1586.09</ele>
  <time>2026-08-28T19:08:35Z</time>
  <course>12.12</course>
  <speed>0.0</speed>
  <fix>3d</fix>
</trkpt>
<trkpt lat="40.072842" lon="-105.230575">
  <ele>1586.09</ele>
  <time>2026-08-28T19:08:35Z</time>
  <course>266.03</course>
  <speed>0.0</speed>
  <fix>3d</fix>
</trkpt>
<trkpt lat="40.072842" lon="-105.230575">
  <ele>1586.09</ele>
  <time>2026-08-28T19:08:35Z</time>
  <course>12.12</course>
  <speed>0.0</speed>
  <fix>3d</fix>
</trkpt>
<trkpt lat="40.072842" lon="-105.230575">
  <ele>1586.09</ele>
  <time>2026-08-28T19:08:35Z</time>
  <course>266.03</course>
  <speed>0.0</speed>
  <fix>3d</fix>
</trkpt>
<trkpt lat="40.072842" lon="-105.230575">
  <ele>1586.09</ele>
  <time>2026-08-28T19:08:35Z</time>
  <course>12.12</course>
  <speed>0.0</speed>
  <fix>3d</fix>
</trkpt>
<trkpt lat="40.072842" lon="-105.230575">
  <ele>1586.09</ele>
  <time>2026-08-28T19:08:35Z</time>
  <course>266.03</course>
  <speed>0.0</speed>
  <fix>3d</fix>
</trkpt>
<trkpt lat="40.072842" lon="-105.230575">
  <ele>1586.09</ele>
  <time>2026-08-28T19:08:35Z</time>
  <course>12.12</course>
  <speed>0.0</speed>
  <fix>3d</fix>
</trkpt>
<trkpt lat="40.072842" lon="-105.230575">
  <ele>1586.09</ele>
  <time>2026-08-28T19:08:35Z</time>
  <course>266.03</course>
  <speed>0.0</speed>
  <fix>3d</fix>
</trkpt>
<trkpt lat="40.072842" lon="-105.230575">
  <ele>1586.09</ele>
  <time>2026-08-28T19:08:35Z</time>
  <course>12.12</course>
  <speed>0.0</speed>
  <fix>3d</fix>
</trkpt>
<trkpt lat="40.072842" lon="-105.230575">
  <ele>1586.09</ele>
  <time>2026-08-28T19:08:35Z</time>
  <course>266.03</course>
  <speed>0.0</speed>
  <fix>3d</fix>
</trkpt>
<trkpt lat="40.072842" lon="-105.230575">
  <ele>1586.09</ele>
  <time>2026-08-28T19:08:35Z</time>
  <course>12.12</course>
  <speed>0.01</speed>
  <fix>3d</fix>
</trkpt>
<trkpt lat="40.072842" lon="-105.230575">
  <ele>1586.09</ele>
  <time>2026-08-28T19:08:35Z</time>
  <course>266.03</course>
  <speed>0.0</speed>
  <fix>3d</fix>
</trkpt>
<trkpt lat="40.072842" lon="-105.230575">
  <ele>1586.09</ele>
  <time>2026-08-28T19:08:35Z</time>
  <course>12.12</course>
  <speed>0.01</speed>
  <fix>3d</fix>
</trkpt>
<trkpt lat="40.072842" lon="-105.230575">
  <ele>1586.09</ele>
  <time>2026-08-28T19:08:35Z</time>
  <course>266.03</course>
  <speed>0.0</speed>
  <fix>3d</fix>
</trkpt>
<trkpt lat="40.072842" lon="-105.230575">
  <ele>1586.09</ele>
  <time>2026-08-28T19:08:35Z</time>
  <course>12.12</course>
  <speed>0.01</speed>
  <fix>3d</fix>
</trkpt>
<trkpt lat="40.072842" lon="-105.230575">
  <ele>1586.09</ele>
  <time>2026-08-28T19:08:35Z</time>
  <course>266.03</course>
  <speed>0.0</speed>
  <fix>3d</fix>
</trkpt>
<trkpt lat="40.072842" lon="-105.230575">
  <ele>1586.09</ele>
  <time>2026-08-28T19:08:35Z</time>
  <course>12.11</course>
  <speed>0.01</speed>
  <fix>3d</fix>
</trkpt>
<trkpt lat="40.072842" lon="-105.230575">
  <ele>1586.09</ele>
  <time>2026-08-28T19:08:35Z</time>
  <course>266.03</course>
  <speed>0.0</speed>
  <fix>3d</fix>
</trkpt>
<trkpt lat="40.072842" lon="-105.230575">
  <ele>1586.09</ele>
  <time>2026-08-28T19:08:35Z</time>
  <course>12.11</course>
  <speed>0.01</speed>
  <fix>3d</fix>
</trkpt>
<trkpt lat="40.072842" lon="-105.230575">
  <ele>1586.09</ele>
  <time>2026-08-28T19:08:35Z</time>
  <course>266.03</course>
  <speed>0.0</speed>
  <fix>3d</fix>
</trkpt>
<trkpt lat="40.072842" lon="-105.230575">
  <ele>1586.09</ele>
  <time>2026-08-28T19:08:35Z</time>
  <course>12.11</course>
  <speed>0.01</speed>
  <fix>3d</fix>
</trkpt>
<trkpt lat="40.072842" lon="-105.230575">
  <ele>1586.09</ele>
  <time>2026-08-28T19:08:35Z</time>
  <course>266.03</course>
  <speed>0.0</speed>
  <fix>3d</fix>
</trkpt>
<trkpt lat="40.072842" lon="-105.230575">
  <ele>1586.09</ele>
  <time>2026-08-28T19:08:35Z</time>
  <course>12.1</course>
  <speed>0.01</speed>
  <fix>3d</fix>
</trkpt>
<trkpt lat="40.072842" lon="-105.230575">
  <ele>1586.09</ele>
  <time>2026-08-28T19:08:35Z</time>
  <course>266.03</course>
  <speed>0.0</speed>
  <fix>3d</fix>
</trkpt>
<trkpt lat="40.072842" lon="-105.230575">
  <ele>1586.09</ele>
  <time>2026-08-28T19:08:35Z</time>
  <course>12.1</course>
  <speed>0.01</speed>
  <fix>3d</fix>
</trkpt>
<trkpt lat="40.072842" lon="-105.230575">
  <ele>1586.09</ele>
  <time>2026-08-28T19:08:35Z</time>
  <course>266.03</course>
  <speed>0.0</speed>
  <fix>3d</fix>
</trkpt>
<trkpt lat="40.072842" lon="-105.230575">
  <ele>1586.09</ele>
  <time>2026-08-28T19:08:35Z</time>
  <course>12.09</course>
  <speed>0.01</speed>
  <fix>3d</fix>
</trkpt>
<trkpt lat="40.072842" lon="-105.230575">
  <ele>1586.09</ele>
  <time>2026-08-28T19:08:35Z</time>
  <course>266.03</course>
  <speed>0.0</speed>
  <fix>3d</fix>
</trkpt>
<trkpt lat="40.072842" lon="-105.230575">
  <ele>1586.09</ele>
  <time>2026-08-28T19:08:35Z</time>
  <course>12.09</course>
  <speed>0.01</speed>
  <fix>3d</fix>
</trkpt>
<trkpt lat="40.072842" lon="-105.230575">
  <ele>1586.09</ele>
  <time>2026-08-28T19:08:35Z</time>
  <course>266.03</course>
  <speed>0.0</speed>
  <fix>3d</fix>
</trkpt>
<trkpt lat="40.072842" lon="-105.230575">
  <ele>1586.09</ele>
  <time>2026-08-28T19:08:35Z</time>
  <course>12.08</course>
  <speed>0.01414213562373095</speed>
  <fix>3d</fix>
</trkpt>
<trkpt lat="40.072842" lon="-105.230575">
  <ele>1586.09</ele>
  <time>2026-08-28T19:08:35Z</time>
  <course>266.03</course>
  <speed>0.0</speed>
  <fix>3d</fix>
</trkpt>
<trkpt lat="40.072842" lon="-105.230575">
  <ele>1586.09</ele>
  <time>2026-08-28T19:08:35Z</time>
  <course>12.07</course>
  <speed>0.01414213562373095</speed>
  <fix>3d</fix>
</trkpt>
<trkpt lat="40.072842" lon="-105.230575">
  <ele>1586.09</ele>
  <time>2026-08-28T19:08:35Z</time>
  <course>266.03</course>
  <speed>0.0</speed>
  <fix>3d</fix>
</trkpt>
<trkpt lat="40.072842" lon="-105.230575">
  <ele>1586.09</ele>
  <time>2026-08-28T19:08:35Z</time>
  <course>12.07</course>
  <speed>0.01414213562373095</speed>
  <fix>3d</fix>
</trkpt>
<trkpt lat="40.072842" lon="-105.230575">
  <ele>1586.09</ele>
  <time>2026-08-28T19:08:35Z</time>
  <course>266.03</course>
  <speed>0.0</speed>
  <fix>3d</fix>
</trkpt>
<trkpt lat="40.072842" lon="-105.230575">
  <ele>1586.09</ele>
  <time>2026-08-28T19:08:35Z</time>
  <course>12.06</course>
  <speed>0.01414213562373095</speed>
  <fix>3d</fix>
</trkpt>
<trkpt lat="40.072842" lon="-105.230575">
  <ele>1586.09</ele>
  <time>2026-08-28T19:08:35Z</time>
  <course>266.03</course>
  <speed>0.0</speed>
  <fix>3d</fix>
</trkpt>
<trkpt lat="40.072842" lon="-105.230575">
  <ele>1586.09</ele>
  <time>2026-08-28T19:08:35Z</time>
  <course>12.05</course>
  <speed>0.01414213562373095</speed>
  <fix>3d</fix>
</trkpt>
<trkpt lat="40.072842" lon="-105.230575">
  <ele>1586.09</ele>
  <time>2026-08-28T19:08:35Z</time>
  <course>266.03</course>
  <speed>0.0</speed>
  <fix>3d</fix>
</trkpt>
<trkpt lat="40.072842" lon="-105.230575">
  <ele>1586.09</ele>
  <time>2026-08-28T19:08:35Z</time>
  <course>12.05</course>
  <speed>0.01414213562373095</speed>
  <fix>3d</fix>
</trkpt>
<trkpt lat="40.072842" lon="-105.230575">
  <ele>1586.09</ele>
  <time>2026-08-28T19:08:35Z</time>
  <course>266.03</course>
  <speed>0.0</speed>
  <fix>3d</fix>
</trkpt>
<trkpt lat="40.072842" lon="-105.230575">
  <ele>1586.09</ele>
  <time>2026-08-28T19:08:35Z</time>
  <course>12.04</course>
  <speed>0.01414213562373095</speed>
  <fix>3d</fix>
</trkpt>
<trkpt lat="40.072842" lon="-105.230575">
  <ele>1586.09</ele>
  <time>2026-08-28T19:08:35Z</time>
  <course>266.03</course>
  <speed>0.0</speed>
  <fix>3d</fix>
</trkpt>
<trkpt lat="40.072842" lon="-105.230575">
  <ele>1586.09</ele>
  <time>2026-08-28T19:08:35Z</time>
  <course>12.03</course>
  <speed>0.01414213562373095</speed>
  <fix>3d</fix>
</trkpt>
<trkpt lat="40.072842" lon="-105.230575">
  <ele>1586.09</ele>
  <time>2026-08-28T19:08:35Z</time>
  <course>266.03</course>
  <speed>0.0</speed>
  <fix>3d</fix>
</trkpt>
<trkpt lat="40.072842" lon="-105.230575">
  <ele>1586.09</ele>
  <time>2026-08-28T19:08:35Z</time>
  <course>12.02</course>
  <speed>0.01414213562373095</speed>
  <fix>3d</fix>
</trkpt>
<trkpt lat="40.072842" lon="-105.230575">
  <ele>1586.09</ele>
  <time>2026-08-28T19:08:35Z</time>
  <course>266.03</course>
  <speed>0.0</speed>
  <fix>3d</fix>
</trkpt>
<trkpt lat="40.072842" lon="-105.230575">
  <ele>1586.09</ele>
  <time>2026-08-28T19:08:35Z</time>
  <course>12.02</course>
  <speed>0.01414213562373095</speed>
  <fix>3d</fix>
</trkpt>
<trkpt lat="40.072842" lon="-105.230575">
  <ele>1586.09</ele>
  <time>2026-08-28T19:08:35Z</time>
  <course>266.03</course>
  <speed>0.0</speed>
  <fix>3d</fix>
</trkpt>
<trkpt lat="40.072842" lon="-105.230575">
  <ele>1586.09</ele>
  <time>2026-08-28T19:08:35Z</time>
  <course>12.01</course>
  <speed>0.01414213562373095</speed>
  <fix>3d</fix>
</trkpt>
<trkpt lat="40.072842" lon="-105.230575">
  <ele>1586.09</ele>
  <time>2026-08-28T19:08:35Z</time>
  <course>266.03</course>
  <speed>0.0</speed>
  <fix>3d</fix>
</trkpt>
<trkpt lat="40.072842" lon="-105.230575">
  <ele>1586.09</ele>
  <time>2026-08-28T19:08:35Z</time>
  <course>12.0</course>
  <speed>0.01414213562373095</speed>
  <fix>3d</fix>
</trkpt>
<trkpt lat="40.072842" lon="-105.230575">
  <ele>1586.09</ele>
  <time>2026-08-28T19:08:35Z</time>
  <course>266.03</course>
  <speed>0.0</speed>
  <fix>3d</fix>
</trkpt>
<trkpt lat="40.072842" lon="-105.230575">
  <ele>1586.09</ele>
  <time>2026-08-28T19:08:35Z</time>
  <course>11.99</course>
  <speed>0.01414213562373095</speed>
  <fix>3d</fix>
</trkpt>
<trkpt lat="40.072842" lon="-105.230575">
  <ele>1586.09</ele>
  <time>2026-08-28T19:08:35Z</time>
  <course>266.03</course>
  <speed>0.0</speed>
  <fix>3d</fix>
</trkpt>
<trkpt lat="40.072842" lon="-105.230575">
  <ele>1586.09</ele>
  <time>2026-08-28T19:08:35Z</time>
  <course>11.99</course>
  <speed>0.01414213562373095</speed>
  <fix>3d</fix>
</trkpt>
<trkpt lat="40.072842" lon="-105.230575">
  <ele>1586.09</ele>
  <time>2026-08-28T19:08:35Z</time>
  <course>266.03</course>
  <speed>0.0</speed>
  <fix>3d</fix>
</trkpt>
<trkpt lat="40.072842" lon="-105.230575">
  <ele>1586.09</ele>
  <time>2026-08-28T19:08:35Z</time>
  <course>11.98</course>
  <speed>0.01414213562373095</speed>
  <fix>3d</fix>
</trkpt>
<trkpt lat="40.072842" lon="-105.230575">
  <ele>1586.09</ele>
  <time>2026-08-28T19:08:35Z</time>
  <course>266.03</course>
  <speed>0.0</speed>
  <fix>3d</fix>
</trkpt>
<trkpt lat="40.072842" lon="-105.230575">
  <ele>1586.09</ele>
  <time>2026-08-28T19:08:35Z</time>
  <course>11.97</course>
  <speed>0.01414213562373095</speed>
  <fix>3d</fix>
</trkpt>
<trkpt lat="40.072842" lon="-105.230575">
  <ele>1586.09</ele>
  <time>2026-08-28T19:08:35Z</time>
  <course>266.03</course>
  <speed>0.0</speed>
  <fix>3d</fix>
</trkpt>
<trkpt lat="40.072842" lon="-105.230575">
  <ele>1586.09</ele>
  <time>2026-08-28T19:08:35Z</time>
  <course>11.96</course>
  <speed>0.01414213562373095</speed>
  <fix>3d</fix>
</trkpt>
<trkpt lat="40.072842" lon="-105.230575">
  <ele>1586.09</ele>
  <time>2026-08-28T19:08:35Z</time>
  <course>266.03</course>
  <speed>0.0</speed>
  <fix>3d</fix>
</trkpt>
<trkpt lat="40.072842" lon="-105.230575">
  <ele>1586.09</ele>
  <time>2026-08-28T19:08:35Z</time>
  <course>11.95</course>
  <speed>0.022360679774997897</speed>
  <fix>3d</fix>
</trkpt>
<trkpt lat="40.072842" lon="-105.230575">
  <ele>1586.09</ele>
  <time>2026-08-28T19:08:35Z</time>
  <course>266.03</course>
  <speed>0.0</speed>
  <fix>3d</fix>
</trkpt>
<trkpt lat="40.072842" lon="-105.230575">
  <ele>1586.09</ele>
  <time>2026-08-28T19:08:35Z</time>
  <course>11.95</course>
  <speed>0.022360679774997897</speed>
  <fix>3d</fix>
</trkpt>
<trkpt lat="40.072842" lon="-105.230575">
  <ele>1586.09</ele>
  <time>2026-08-28T19:08:35Z</time>
  <course>266.03</course>
  <speed>0.0</speed>
  <fix>3d</fix>
</trkpt>
<trkpt lat="40.072842" lon="-105.230575">
  <ele>1586.09</ele>
  <time>2026-08-28T19:08:35Z</time>
  <course>11.94</course>
  <speed>0.022360679774997897</speed>
  <fix>3d</fix>
</trkpt>
<trkpt lat="40.072842" lon="-105.230575">
  <ele>1586.09</ele>
  <time>2026-08-28T19:08:35Z</time>
  <course>266.03</course>
  <speed>0.0</speed>
  <fix>3d</fix>
</trkpt>
<trkpt lat="40.072842" lon="-105.230575">
  <ele>1586.09</ele>
  <time>2026-08-28T19:08:35Z</time>
  <course>11.93</course>
  <speed>0.022360679774997897</speed>
  <fix>3d</fix>
</trkpt>
<trkpt lat="40.072842" lon="-105.230575">
  <ele>1586.09</ele>
  <time>2026-08-28T19:08:35Z</time>
  <course>266.03</course>
  <speed>0.0</speed>
  <fix>3d</fix>
</trkpt>
<trkpt lat="40.072842" lon="-105.230575">
  <ele>1586.09</ele>
  <time>2026-08-28T19:08:35Z</time>
  <course>11.92</course>
  <speed>0.022360679774997897</speed>
  <fix>3d</fix>
</trkpt>
<trkpt lat="40.072842" lon="-105.230575">
  <ele>1586.09</ele>
  <time>2026-08-28T19:08:35Z</time>
  <course>266.03</course>
  <speed>0.0</speed>
  <fix>3d</fix>
</trkpt>
<trkpt lat="40.072842" lon="-105.230575">
  <ele>1586.09</ele>
  <time>2026-08-28T19:08:35Z</time>
  <course>11.91</course>
  <speed>0.022360679774997897</speed>
  <fix>3d</fix>
</trkpt>
<trkpt lat="40.072842" lon="-105.230575">
  <ele>1586.09</ele>
  <time>2026-08-28T19:08:35Z</time>
  <course>266.03</course>
  <speed>0.0</speed>
  <fix>3d</fix>
</trkpt>
<trkpt lat="40.072842" lon="-105.230575">
  <ele>1586.09</ele>
  <time>2026-08-28T19:08:35Z</time>
  <course>11.91</course>
  <speed>0.022360679774997897</speed>
  <fix>3d</fix>
</trkpt>
<trkpt lat="40.072842" lon="-105.230575">
  <ele>1586.09</ele>
  <time>2026-08-28T19:08:35Z</time>
  <course>266.03</course>
  <speed>0.0</speed>
  <fix>3d</fix>
</trkpt>
<trkpt lat="40.072842" lon="-105.230575">
  <ele>1586.09</ele>
  <time>2026-08-28T19:08:35Z</time>
  <course>11.9</course>
  <speed>0.022360679774997897</speed>
  <fix>3d</fix>
</trkpt>
<trkpt lat="40.072842" lon="-105.230575">
  <ele>1586.09</ele>
  <time>2026-08-28T19:08:35Z</time>
  <course>266.03</course>
  <speed>0.0</speed>
  <fix>3d</fix>
</trkpt>
<trkpt lat="40.072842" lon="-105.230575">
  <ele>1586.09</ele>
  <time>2026-08-28T19:08:35Z</time>
  <course>11.89</course>
  <speed>0.022360679774997897</speed>
  <fix>3d</fix>
</trkpt>
<trkpt lat="40.072842" lon="-105.230575">
  <ele>1586.09</ele>
  <time>2026-08-28T19:08:35Z</time>
  <course>266.03</course>
  <speed>0.0</speed>
  <fix>3d</fix>
</trkpt>
<trkpt lat="40.072842" lon="-105.230575">
  <ele>1586.09</ele>
  <time>2026-08-28T19:08:35Z</time>
  <course>11.88</course>
  <speed>0.022360679774997897</speed>
  <fix>3d</fix>
</trkpt>
<trkpt lat="40.072842" lon="-105.230575">
  <ele>1586.09</ele>
  <time>2026-08-28T19:08:35Z</time>
  <course>266.03</course>
  <speed>0.0</speed>
  <fix>3d</fix>
</trkpt>
<trkpt lat="40.072842" lon="-105.230575">
  <ele>1586.09</ele>
  <time>2026-08-28T19:08:35Z</time>
  <course>11.87</course>
  <speed>0.022360679774997897</speed>
  <fix>3d</fix>
</trkpt>
<trkpt lat="40.072842" lon="-105.230575">
  <ele>1586.09</ele>
  <time>2026-08-28T19:08:35Z</time>
  <course>266.03</course>
  <speed>0.0</speed>
  <fix>3d</fix>
</trkpt>
<trkpt lat="40.072842" lon="-105.230575">
  <ele>1586.09</ele>
  <time>2026-08-28T19:08:35Z</time>
  <course>11.86</course>
  <speed>0.022360679774997897</speed>
  <fix>3d</fix>
</trkpt>
<trkpt lat="40.072842" lon="-105.230575">
  <ele>1586.09</ele>
  <time>2026-08-28T19:08:35Z</time>
  <course>266.03</course>
  <speed>0.0</speed>
  <fix>3d</fix>
</trkpt>
<trkpt lat="40.072842" lon="-105.230575">
  <ele>1586.09</ele>
  <time>2026-08-28T19:08:35Z</time>
  <course>11.86</course>
  <speed>0.022360679774997897</speed>
  <fix>3d</fix>
</trkpt>
<trkpt lat="40.072842" lon="-105.230575">
  <ele>1586.09</ele>
  <time>2026-08-28T19:08:35Z</time>
  <course>266.03</course>
  <speed>0.0</speed>
  <fix>3d</fix>
</trkpt>
<trkpt lat="40.072842" lon="-105.230575">
  <ele>1586.09</ele>
  <time>2026-08-28T19:08:35Z</time>
  <course>11.85</course>
  <speed>0.022360679774997897</speed>
  <fix>3d</fix>
</trkpt>
<trkpt lat="40.072842" lon="-105.230575">
  <ele>1586.09</ele>
  <time>2026-08-28T19:08:35Z</time>
  <course>266.03</course>
  <speed>0.0</speed>
  <fix>3d</fix>
</trkpt>
<trkpt lat="40.072842" lon="-105.230575">
  <ele>1586.09</ele>
  <time>2026-08-28T19:08:35Z</time>
  <course>11.84</course>
  <speed>0.022360679774997897</speed>
  <fix>3d</fix>
</trkpt>
<trkpt lat="40.072842" lon="-105.230575">
  <ele>1586.09</ele>
  <time>2026-08-28T19:08:35Z</time>
  <course>266.03</course>
  <speed>0.0</speed>
  <fix>3d</fix>
</trkpt>
<trkpt lat="40.072842" lon="-105.230575">
  <ele>1586.09</ele>
  <time>2026-08-28T19:08:35Z</time>
  <course>11.83</course>
  <speed>0.022360679774997897</speed>
  <fix>3d</fix>
</trkpt>
<trkpt lat="40.072842" lon="-105.230575">
  <ele>1586.09</ele>
  <time>2026-08-28T19:08:35Z</time>
  <course>266.03</course>
  <speed>0.0</speed>
  <fix>3d</fix>
</trkpt>
<trkpt lat="40.072842" lon="-105.230575">
  <ele>1586.09</ele>
  <time>2026-08-28T19:08:35Z</time>
  <course>11.82</course>
  <speed>0.022360679774997897</speed>
  <fix>3d</fix>
</trkpt>
<trkpt lat="40.072842" lon="-105.230575">
  <ele>1586.09</ele>
  <time>2026-08-28T19:08:35Z</time>
  <course>266.03</course>
  <speed>0.0</speed>
  <fix>3d</fix>
</trkpt>
<trkpt lat="40.072842" lon="-105.230575">
  <ele>1586.09</ele>
  <time>2026-08-28T19:08:35Z</time>
  <course>11.82</course>
  <speed>0.0282842712474619</speed>
  <fix>3d</fix>
</trkpt>
<trkpt lat="40.072842" lon="-105.230575">
  <ele>1586.09</ele>
  <time>2026-08-28T19:08:35Z</time>
  <course>266.03</course>
  <speed>0.0</speed>
  <fix>3d</fix>
</trkpt>
<trkpt lat="40.072842" lon="-105.230575">
  <ele>1586.09</ele>
  <time>2026-08-28T19:08:35Z</time>
  <course>11.81</course>
  <speed>0.0282842712474619</speed>
  <fix>3d</fix>
</trkpt>
<trkpt lat="40.072842" lon="-105.230575">
  <ele>1586.09</ele>
  <time>2026-08-28T19:08:35Z</time>
  <course>266.03</course>
  <speed>0.0</speed>
  <fix>3d</fix>
</trkpt>
<trkpt lat="40.072842" lon="-105.230575">
  <ele>1586.09</ele>
  <time>2026-08-28T19:08:35Z</time>
  <course>11.8</course>
  <speed>0.0282842712474619</speed>
  <fix>3d</fix>
</trkpt>
<trkpt lat="40.072842" lon="-105.230575">
  <ele>1586.09</ele>
  <time>2026-08-28T19:08:35Z</time>
  <course>266.03</course>
  <speed>0.0</speed>
  <fix>3d</fix>
</trkpt>
<trkpt lat="40.072842" lon="-105.230575">
  <ele>1586.09</ele>
  <time>2026-08-28T19:08:36Z</time>
  <course>11.79</course>
  <speed>0.0282842712474619</speed>
  <fix>3d</fix>
</trkpt>
<trkpt lat="40.072842" lon="-105.230575">
  <ele>1586.09</ele>
  <time>2026-08-28T19:08:36Z</time>
  <course>266.03</course>
  <speed>0.0</speed>
  <fix>3d</fix>
</trkpt>
<trkpt lat="40.072842" lon="-105.230575">
  <ele>1586.09</ele>
  <time>2026-08-28T19:08:36Z</time>
  <course>11.78</course>
  <speed>0.0282842712474619</speed>
  <fix>3d</fix>
</trkpt>
<trkpt lat="40.072842" lon="-105.230575">
  <ele>1586.09</ele>
  <time>2026-08-28T19:08:36Z</time>
  <course>266.03</course>
  <speed>0.0</speed>
  <fix>3d</fix>
</trkpt>
<trkpt lat="40.072842" lon="-105.230575">
  <ele>1586.09</ele>
  <time>2026-08-28T19:08:36Z</time>
  <course>11.78</course>
  <speed>0.0282842712474619</speed>
  <fix>3d</fix>
</trkpt>
<trkpt lat="40.072842" lon="-105.230575">
  <ele>1586.09</ele>
  <time>2026-08-28T19:08:36Z</time>
  <course>266.03</course>
  <speed>0.0</speed>
  <fix>3d</fix>
</trkpt>
<trkpt lat="40.072842" lon="-105.230575">
  <ele>1586.09</ele>
  <time>2026-08-28T19:08:36Z</time>
  <course>11.77</course>
  <speed>0.0282842712474619</speed>
  <fix>3d</fix>
</trkpt>
<trkpt lat="40.072842" lon="-105.230575">
  <ele>1586.09</ele>
  <time>2026-08-28T19:08:36Z</time>
  <course>266.03</course>
  <speed>0.0</speed>
  <fix>3d</fix>
</trkpt>
<trkpt lat="40.072842" lon="-105.230575">
  <ele>1586.09</ele>
  <time>2026-08-28T19:08:36Z</time>
  <course>11.76</course>
  <speed>0.0282842712474619</speed>
  <fix>3d</fix>
</trkpt>
<trkpt lat="40.072842" lon="-105.230575">
  <ele>1586.09</ele>
  <time>2026-08-28T19:08:36Z</time>
  <course>266.03</course>
  <speed>0.0</speed>
  <fix>3d</fix>
</trkpt>
<trkpt lat="40.072842" lon="-105.230575">
  <ele>1586.09</ele>
  <time>2026-08-28T19:08:36Z</time>
  <course>11.76</course>
  <speed>0.0282842712474619</speed>
  <fix>3d</fix>
</trkpt>
<trkpt lat="40.072842" lon="-105.230575">
  <ele>1586.09</ele>
  <time>2026-08-28T19:08:36Z</time>
  <course>266.03</course>
  <speed>0.0</speed>
  <fix>3d</fix>
</trkpt>
<trkpt lat="40.072842" lon="-105.230575">
  <ele>1586.09</ele>
  <time>2026-08-28T19:08:36Z</time>
  <course>11.75</course>
  <speed>0.0282842712474619</speed>
  <fix>3d</fix>
</trkpt>
<trkpt lat="40.072842" lon="-105.230575">
  <ele>1586.09</ele>
  <time>2026-08-28T19:08:36Z</time>
  <course>266.03</course>
  <speed>0.0</speed>
  <fix>3d</fix>
</trkpt>
<trkpt lat="40.072842" lon="-105.230575">
  <ele>1586.09</ele>
  <time>2026-08-28T19:08:36Z</time>
  <course>11.74</course>
  <speed>0.03605551275463989</speed>
  <fix>3d</fix>
</trkpt>
<trkpt lat="40.072842" lon="-105.230575">
  <ele>1586.09</ele>
  <time>2026-08-28T19:08:36Z</time>
  <course>266.03</course>
  <speed>0.0</speed>
  <fix>3d</fix>
</trkpt>
<trkpt lat="40.072842" lon="-105.230575">
  <ele>1586.09</ele>
  <time>2026-08-28T19:08:36Z</time>
  <course>11.73</course>
  <speed>0.03605551275463989</speed>
  <fix>3d</fix>
</trkpt>
<trkpt lat="40.072842" lon="-105.230575">
  <ele>1586.09</ele>
  <time>2026-08-28T19:08:36Z</time>
  <course>266.03</course>
  <speed>0.0</speed>
  <fix>3d</fix>
</trkpt>
<trkpt lat="40.072842" lon="-105.230575">
  <ele>1586.09</ele>
  <time>2026-08-28T19:08:36Z</time>
  <course>11.73</course>
  <speed>0.03605551275463989</speed>
  <fix>3d</fix>
</trkpt>
<trkpt lat="40.072842" lon="-105.230575">
  <ele>1586.09</ele>
  <time>2026-08-28T19:08:36Z</time>
  <course>266.03</course>
  <speed>0.0</speed>
  <fix>3d</fix>
</trkpt>
<trkpt lat="40.072842" lon="-105.230575">
  <ele>1586.09</ele>
  <time>2026-08-28T19:08:36Z</time>
  <course>11.72</course>
  <speed>0.03605551275463989</speed>
  <fix>3d</fix>
</trkpt>
<trkpt lat="40.072842" lon="-105.230575">
  <ele>1586.09</ele>
  <time>2026-08-28T19:08:36Z</time>
  <course>266.03</course>
  <speed>0.0</speed>
  <fix>3d</fix>
</trkpt>
<trkpt lat="40.072842" lon="-105.230575">
  <ele>1586.09</ele>
  <time>2026-08-28T19:08:36Z</time>
  <course>11.71</course>
  <speed>0.03605551275463989</speed>
  <fix>3d</fix>
</trkpt>
<trkpt lat="40.072842" lon="-105.230575">
  <ele>1586.09</ele>
  <time>2026-08-28T19:08:36Z</time>
  <course>266.03</course>
  <speed>0.0</speed>
  <fix>3d</fix>
</trkpt>
<trkpt lat="40.072842" lon="-105.230575">
  <ele>1586.09</ele>
  <time>2026-08-28T19:08:36Z</time>
  <course>11.7</course>
  <speed>0.03605551275463989</speed>
  <fix>3d</fix>
</trkpt>
<trkpt lat="40.072842" lon="-105.230575">
  <ele>1586.09</ele>
  <time>2026-08-28T19:08:36Z</time>
  <course>266.03</course>
  <speed>0.0</speed>
  <fix>3d</fix>
</trkpt>
<trkpt lat="40.072842" lon="-105.230575">
  <ele>1586.09</ele>
  <time>2026-08-28T19:08:36Z</time>
  <course>11.69</course>
  <speed>0.03605551275463989</speed>
  <fix>3d</fix>
</trkpt>
<trkpt lat="40.072842" lon="-105.230575">
  <ele>1586.09</ele>
  <time>2026-08-28T19:08:36Z</time>
  <course>266.03</course>
  <speed>0.0</speed>
  <fix>3d</fix>
</trkpt>
<trkpt lat="40.072842" lon="-105.230575">
  <ele>1586.09</ele>
  <time>2026-08-28T19:08:36Z</time>
  <course>11.69</course>
  <speed>0.03605551275463989</speed>
  <fix>3d</fix>
</trkpt>
<trkpt lat="40.072842" lon="-105.230575">
  <ele>1586.09</ele>
  <time>2026-08-28T19:08:36Z</time>
  <course>266.03</course>
  <speed>0.0</speed>
  <fix>3d</fix>
</trkpt>
<trkpt lat="40.072842" lon="-105.230575">
  <ele>1586.09</ele>
  <time>2026-08-28T19:08:36Z</time>
  <course>11.68</course>
  <speed>0.03605551275463989</speed>
  <fix>3d</fix>
</trkpt>
<trkpt lat="40.072842" lon="-105.230575">
  <ele>1586.09</ele>
  <time>2026-08-28T19:08:36Z</time>
  <course>266.03</course>
  <speed>0.0</speed>
  <fix>3d</fix>
</trkpt>
<trkpt lat="40.072842" lon="-105.230575">
  <ele>1586.09</ele>
  <time>2026-08-28T19:08:36Z</time>
  <course>11.67</course>
  <speed>0.03605551275463989</speed>
  <fix>3d</fix>
</trkpt>
<trkpt lat="40.072842" lon="-105.230575">
  <ele>1586.09</ele>
  <time>2026-08-28T19:08:36Z</time>
  <course>266.03</course>
  <speed>0.0</speed>
  <fix>3d</fix>
</trkpt>
<trkpt lat="40.072842" lon="-105.230575">
  <ele>1586.09</ele>
  <time>2026-08-28T19:08:36Z</time>
  <course>11.67</course>
  <speed>0.03605551275463989</speed>
  <fix>3d</fix>
</trkpt>
<trkpt lat="40.072842" lon="-105.230575">
  <ele>1586.09</ele>
  <time>2026-08-28T19:08:36Z</time>
  <course>266.03</course>
  <speed>0.0</speed>
  <fix>3d</fix>
</trkpt>
<trkpt lat="40.072842" lon="-105.230575">
  <ele>1586.09</ele>
  <time>2026-08-28T19:08:36Z</time>
  <course>11.66</course>
  <speed>0.03605551275463989</speed>
  <fix>3d</fix>
</trkpt>
<trkpt lat="40.072842" lon="-105.230575">
  <ele>1586.09</ele>
  <time>2026-08-28T19:08:36Z</time>
  <course>266.03</course>
  <speed>0.0</speed>
  <fix>3d</fix>
</trkpt>
<trkpt lat="40.072842" lon="-105.230575">
  <ele>1586.09</ele>
  <time>2026-08-28T19:08:36Z</time>
  <course>11.65</course>
  <speed>0.03605551275463989</speed>
  <fix>3d</fix>
</trkpt>
<trkpt lat="40.072842" lon="-105.230575">
  <ele>1586.09</ele>
  <time>2026-08-28T19:08:36Z</time>
  <course>266.03</course>
  <speed>0.0</speed>
  <fix>3d</fix>
</trkpt>
<trkpt lat="40.072842" lon="-105.230575">
  <ele>1586.09</ele>
  <time>2026-08-28T19:08:36Z</time>
  <course>11.65</course>
  <speed>0.03605551275463989</speed>
  <fix>3d</fix>
</trkpt>
<trkpt lat="40.072842" lon="-105.230575">
  <ele>1586.09</ele>
  <time>2026-08-28T19:08:36Z</time>
  <course>266.03</course>
  <speed>0.0</speed>
  <fix>3d</fix>
</trkpt>
<trkpt lat="40.072842" lon="-105.230575">
  <ele>1586.09</ele>
  <time>2026-08-28T19:08:36Z</time>
  <course>11.64</course>
  <speed>0.03605551275463989</speed>
  <fix>3d</fix>
</trkpt>
<trkpt lat="40.072842" lon="-105.230575">
  <ele>1586.09</ele>
  <time>2026-08-28T19:08:36Z</time>
  <course>266.03</course>
  <speed>0.0</speed>
  <fix>3d</fix>
</trkpt>
<trkpt lat="40.072842" lon="-105.230575">
  <ele>1586.09</ele>
  <time>2026-08-28T19:08:36Z</time>
  <course>11.63</course>
  <speed>0.03605551275463989</speed>
  <fix>3d</fix>
</trkpt>
<trkpt lat="40.072842" lon="-105.230575">
  <ele>1586.09</ele>
  <time>2026-08-28T19:08:36Z</time>
  <course>266.03</course>
  <speed>0.0</speed>
  <fix>3d</fix>
</trkpt>
<trkpt lat="40.072842" lon="-105.230575">
  <ele>1586.09</ele>
  <time>2026-08-28T19:08:36Z</time>
  <course>11.62</course>
  <speed>0.03605551275463989</speed>
  <fix>3d</fix>
</trkpt>
<trkpt lat="40.072842" lon="-105.230575">
  <ele>1586.09</ele>
  <time>2026-08-28T19:08:36Z</time>
  <course>266.03</course>
  <speed>0.0</speed>
  <fix>3d</fix>
</trkpt>
<trkpt lat="40.072842" lon="-105.230575">
  <ele>1586.09</ele>
  <time>2026-08-28T19:08:36Z</time>
  <course>11.62</course>
  <speed>0.03605551275463989</speed>
  <fix>3d</fix>
</trkpt>
<trkpt lat="40.072842" lon="-105.230575">
  <ele>1586.09</ele>
  <time>2026-08-28T19:08:36Z</time>
  <course>266.03</course>
  <speed>0.0</speed>
  <fix>3d</fix>
</trkpt>
<trkpt lat="40.072842" lon="-105.230575">
  <ele>1586.09</ele>
  <time>2026-08-28T19:08:36Z</time>
  <course>11.61</course>
  <speed>0.03605551275463989</speed>
  <fix>3d</fix>
</trkpt>
<trkpt lat="40.072842" lon="-105.230575">
  <ele>1586.09</ele>
  <time>2026-08-28T19:08:36Z</time>
  <course>266.03</course>
  <speed>0.0</speed>
  <fix>3d</fix>
</trkpt>
<trkpt lat="40.072842" lon="-105.230575">
  <ele>1586.09</ele>
  <time>2026-08-28T19:08:36Z</time>
  <course>11.61</course>
  <speed>0.03605551275463989</speed>
  <fix>3d</fix>
</trkpt>
<trkpt lat="40.072842" lon="-105.230575">
  <ele>1586.09</ele>
  <time>2026-08-28T19:08:36Z</time>
  <course>266.03</course>
  <speed>0.0</speed>
  <fix>3d</fix>
</trkpt>
<trkpt lat="40.072842" lon="-105.230575">
  <ele>1586.09</ele>
  <time>2026-08-28T19:08:36Z</time>
  <course>11.6</course>
  <speed>0.03605551275463989</speed>
  <fix>3d</fix>
</trkpt>
<trkpt lat="40.072842" lon="-105.230575">
  <ele>1586.09</ele>
  <time>2026-08-28T19:08:36Z</time>
  <course>266.03</course>
  <speed>0.0</speed>
  <fix>3d</fix>
</trkpt>
<trkpt lat="40.072842" lon="-105.230575">
  <ele>1586.09</ele>
  <time>2026-08-28T19:08:36Z</time>
  <course>11.59</course>
  <speed>0.03605551275463989</speed>
  <fix>3d</fix>
</trkpt>
<trkpt lat="40.072842" lon="-105.230575">
  <ele>1586.09</ele>
  <time>2026-08-28T19:08:36Z</time>
  <course>266.03</course>
  <speed>0.0</speed>
  <fix>3d</fix>
</trkpt>
<trkpt lat="40.072842" lon="-105.230575">
  <ele>1586.09</ele>
  <time>2026-08-28T19:08:36Z</time>
  <course>11.59</course>
  <speed>0.03605551275463989</speed>
  <fix>3d</fix>
</trkpt>
<trkpt lat="40.072842" lon="-105.230575">
  <ele>1586.09</ele>
  <time>2026-08-28T19:08:36Z</time>
  <course>266.03</course>
  <speed>0.0</speed>
  <fix>3d</fix>
</trkpt>
<trkpt lat="40.072842" lon="-105.230575">
  <ele>1586.09</ele>
  <time>2026-08-28T19:08:36Z</time>
  <course>11.58</course>
  <speed>0.03605551275463989</speed>
  <fix>3d</fix>
</trkpt>
<trkpt lat="40.072842" lon="-105.230575">
  <ele>1586.09</ele>
  <time>2026-08-28T19:08:36Z</time>
  <course>266.03</course>
  <speed>0.0</speed>
  <fix>3d</fix>
</trkpt>
<trkpt lat="40.072842" lon="-105.230575">
  <ele>1586.09</ele>
  <time>2026-08-28T19:08:36Z</time>
  <course>11.57</course>
  <speed>0.03605551275463989</speed>
  <fix>3d</fix>
</trkpt>
<trkpt lat="40.072842" lon="-105.230575">
  <ele>1586.09</ele>
  <time>2026-08-28T19:08:36Z</time>
  <course>266.03</course>
  <speed>0.0</speed>
  <fix>3d</fix>
</trkpt>
<trkpt lat="40.072842" lon="-105.230575">
  <ele>1586.09</ele>
  <time>2026-08-28T19:08:36Z</time>
  <course>11.57</course>
  <speed>0.03605551275463989</speed>
  <fix>3d</fix>
</trkpt>
<trkpt lat="40.072842" lon="-105.230575">
  <ele>1586.09</ele>
  <time>2026-08-28T19:08:36Z</time>
  <course>266.03</course>
  <speed>0.0</speed>
  <fix>3d</fix>
</trkpt>
<trkpt lat="40.072842" lon="-105.230575">
  <ele>1586.09</ele>
  <time>2026-08-28T19:08:36Z</time>
  <course>11.56</course>
  <speed>0.03605551275463989</speed>
  <fix>3d</fix>
</trkpt>
<trkpt lat="40.072842" lon="-105.230575">
  <ele>1586.09</ele>
  <time>2026-08-28T19:08:36Z</time>
  <course>266.03</course>
  <speed>0.0</speed>
  <fix>3d</fix>
</trkpt>
<trkpt lat="40.072842" lon="-105.230575">
  <ele>1586.09</ele>
  <time>2026-08-28T19:08:36Z</time>
  <course>11.56</course>
  <speed>0.03605551275463989</speed>
  <fix>3d</fix>
</trkpt>
<trkpt lat="40.072842" lon="-105.230575">
  <ele>1586.09</ele>
  <time>2026-08-28T19:08:36Z</time>
  <course>266.03</course>
  <speed>0.0</speed>
  <fix>3d</fix>
</trkpt>
<trkpt lat="40.072842" lon="-105.230575">
  <ele>1586.09</ele>
  <time>2026-08-28T19:08:36Z</time>
  <course>11.55</course>
  <speed>0.03605551275463989</speed>
  <fix>3d</fix>
</trkpt>
<trkpt lat="40.072842" lon="-105.230575">
  <ele>1586.09</ele>
  <time>2026-08-28T19:08:36Z</time>
  <course>266.03</course>
  <speed>0.0</speed>
  <fix>3d</fix>
</trkpt>
<trkpt lat="40.072842" lon="-105.230575">
  <ele>1586.09</ele>
  <time>2026-08-28T19:08:36Z</time>
  <course>11.54</course>
  <speed>0.03605551275463989</speed>
  <fix>3d</fix>
</trkpt>
<trkpt lat="40.072842" lon="-105.230575">
  <ele>1586.09</ele>
  <time>2026-08-28T19:08:36Z</time>
  <course>266.03</course>
  <speed>0.0</speed>
  <fix>3d</fix>
</trkpt>
<trkpt lat="40.072842" lon="-105.230575">
  <ele>1586.09</ele>
  <time>2026-08-28T19:08:36Z</time>
  <course>11.54</course>
  <speed>0.03605551275463989</speed>
  <fix>3d</fix>
</trkpt>
<trkpt lat="40.072842" lon="-105.230575">
  <ele>1586.09</ele>
  <time>2026-08-28T19:08:36Z</time>
  <course>266.03</course>
  <speed>0.0</speed>
  <fix>3d</fix>
</trkpt>
<trkpt lat="40.072842" lon="-105.230575">
  <ele>1586.09</ele>
  <time>2026-08-28T19:08:36Z</time>
  <course>11.53</course>
  <speed>0.03605551275463989</speed>
  <fix>3d</fix>
</trkpt>
<trkpt lat="40.072842" lon="-105.230575">
  <ele>1586.09</ele>
  <time>2026-08-28T19:08:36Z</time>
  <course>266.03</course>
  <speed>0.0</speed>
  <fix>3d</fix>
</trkpt>
<trkpt lat="40.072842" lon="-105.230575">
  <ele>1586.09</ele>
  <time>2026-08-28T19:08:36Z</time>
  <course>11.53</course>
  <speed>0.03605551275463989</speed>
  <fix>3d</fix>
</trkpt>
<trkpt lat="40.072842" lon="-105.230575">
  <ele>1586.09</ele>
  <time>2026-08-28T19:08:36Z</time>
  <course>266.03</course>
  <speed>0.0</speed>
  <fix>3d</fix>
</trkpt>
<trkpt lat="40.072842" lon="-105.230575">
  <ele>1586.09</ele>
  <time>2026-08-28T19:08:36Z</time>
  <course>11.52</course>
  <speed>0.03605551275463989</speed>
  <fix>3d</fix>
</trkpt>
<trkpt lat="40.072842" lon="-105.230575">
  <ele>1586.09</ele>
  <time>2026-08-28T19:08:36Z</time>
  <course>266.03</course>
  <speed>0.0</speed>
  <fix>3d</fix>
</trkpt>
<trkpt lat="40.072842" lon="-105.230575">
  <ele>1586.09</ele>
  <time>2026-08-28T19:08:36Z</time>
  <course>11.51</course>
  <speed>0.03605551275463989</speed>
  <fix>3d</fix>
</trkpt>
<trkpt lat="40.072842" lon="-105.230575">
  <ele>1586.09</ele>
  <time>2026-08-28T19:08:36Z</time>
  <course>266.03</course>
  <speed>0.0</speed>
  <fix>3d</fix>
</trkpt>
<trkpt lat="40.072842" lon="-105.230575">
  <ele>1586.09</ele>
  <time>2026-08-28T19:08:36Z</time>
  <course>11.51</course>
  <speed>0.03605551275463989</speed>
  <fix>3d</fix>
</trkpt>
<trkpt lat="40.072842" lon="-105.230575">
  <ele>1586.09</ele>
  <time>2026-08-28T19:08:36Z</time>
  <course>266.03</course>
  <speed>0.0</speed>
  <fix>3d</fix>
</trkpt>
<trkpt lat="40.072842" lon="-105.230575">
  <ele>1586.09</ele>
  <time>2026-08-28T19:08:36Z</time>
  <course>11.5</course>
  <speed>0.03605551275463989</speed>
  <fix>3d</fix>
</trkpt>
<trkpt lat="40.072842" lon="-105.230575">
  <ele>1586.09</ele>
  <time>2026-08-28T19:08:36Z</time>
  <course>266.03</course>
  <speed>0.0</speed>
  <fix>3d</fix>
</trkpt>
<trkpt lat="40.072842" lon="-105.230575">
  <ele>1586.09</ele>
  <time>2026-08-28T19:08:36Z</time>
  <course>11.5</course>
  <speed>0.03605551275463989</speed>
  <fix>3d</fix>
</trkpt>
<trkpt lat="40.072842" lon="-105.230575">
  <ele>1586.09</ele>
  <time>2026-08-28T19:08:36Z</time>
  <course>266.03</course>
  <speed>0.0</speed>
  <fix>3d</fix>
</trkpt>
<trkpt lat="40.072842" lon="-105.230575">
  <ele>1586.09</ele>
  <time>2026-08-28T19:08:36Z</time>
  <course>11.49</course>
  <speed>0.044721359549995794</speed>
  <fix>3d</fix>
</trkpt>
<trkpt lat="40.072842" lon="-105.230575">
  <ele>1586.09</ele>
  <time>2026-08-28T19:08:36Z</time>
  <course>266.03</course>
  <speed>0.0</speed>
  <fix>3d</fix>
</trkpt>
<trkpt lat="40.072842" lon="-105.230575">
  <ele>1586.09</ele>
  <time>2026-08-28T19:08:36Z</time>
  <course>11.49</course>
  <speed>0.044721359549995794</speed>
  <fix>3d</fix>
</trkpt>
<trkpt lat="40.072842" lon="-105.230575">
  <ele>1586.09</ele>
  <time>2026-08-28T19:08:36Z</time>
  <course>266.03</course>
  <speed>0.0</speed>
  <fix>3d</fix>
</trkpt>
<trkpt lat="40.072842" lon="-105.230575">
  <ele>1586.09</ele>
  <time>2026-08-28T19:08:36Z</time>
  <course>11.48</course>
  <speed>0.044721359549995794</speed>
  <fix>3d</fix>
</trkpt>
<trkpt lat="40.072842" lon="-105.230575">
  <ele>1586.09</ele>
  <time>2026-08-28T19:08:36Z</time>
  <course>266.03</course>
  <speed>0.0</speed>
  <fix>3d</fix>
</trkpt>
<trkpt lat="40.072842" lon="-105.230575">
  <ele>1586.09</ele>
  <time>2026-08-28T19:08:36Z</time>
  <course>11.48</course>
  <speed>0.044721359549995794</speed>
  <fix>3d</fix>
</trkpt>
<trkpt lat="40.072842" lon="-105.230575">
  <ele>1586.09</ele>
  <time>2026-08-28T19:08:36Z</time>
  <course>266.03</course>
  <speed>0.0</speed>
  <fix>3d</fix>
</trkpt>
<trkpt lat="40.072842" lon="-105.230575">
  <ele>1586.09</ele>
  <time>2026-08-28T19:08:36Z</time>
  <course>11.47</course>
  <speed>0.044721359549995794</speed>
  <fix>3d</fix>
</trkpt>
<trkpt lat="40.072842" lon="-105.230575">
  <ele>1586.09</ele>
  <time>2026-08-28T19:08:36Z</time>
  <course>266.03</course>
  <speed>0.0</speed>
  <fix>3d</fix>
</trkpt>
<trkpt lat="40.072842" lon="-105.230575">
  <ele>1586.09</ele>
  <time>2026-08-28T19:08:36Z</time>
  <course>11.47</course>
  <speed>0.044721359549995794</speed>
  <fix>3d</fix>
</trkpt>
<trkpt lat="40.072842" lon="-105.230575">
  <ele>1586.09</ele>
  <time>2026-08-28T19:08:36Z</time>
  <course>266.03</course>
  <speed>0.0</speed>
  <fix>3d</fix>
</trkpt>
<trkpt lat="40.072842" lon="-105.230575">
  <ele>1586.09</ele>
  <time>2026-08-28T19:08:36Z</time>
  <course>11.46</course>
  <speed>0.044721359549995794</speed>
  <fix>3d</fix>
</trkpt>
<trkpt lat="40.072842" lon="-105.230575">
  <ele>1586.09</ele>
  <time>2026-08-28T19:08:36Z</time>
  <course>266.03</course>
  <speed>0.0</speed>
  <fix>3d</fix>
</trkpt>
<trkpt lat="40.072842" lon="-105.230575">
  <ele>1586.09</ele>
  <time>2026-08-28T19:08:36Z</time>
  <course>11.46</course>
  <speed>0.044721359549995794</speed>
  <fix>3d</fix>
</trkpt>
<trkpt lat="40.072842" lon="-105.230575">
  <ele>1586.09</ele>
  <time>2026-08-28T19:08:36Z</time>
  <course>266.03</course>
  <speed>0.0</speed>
  <fix>3d</fix>
</trkpt>
<trkpt lat="40.072842" lon="-105.230575">
  <ele>1586.15</ele>
  <time>2026-08-28T19:08:36Z</time>
  <course>11.45</course>
  <speed>0.0</speed>
  <fix>3d</fix>
</trkpt>
<trkpt lat="40.072842" lon="-105.230575">
  <ele>1586.09</ele>
  <time>2026-08-28T19:08:36Z</time>
  <course>266.03</course>
  <speed>0.0</speed>
  <fix>3d</fix>
</trkpt>
<trkpt lat="40.072842" lon="-105.230575">
  <ele>1586.15</ele>
  <time>2026-08-28T19:08:36Z</time>
  <course>11.45</course>
  <speed>0.0</speed>
  <fix>3d</fix>
</trkpt>
<trkpt lat="40.072842" lon="-105.230575">
  <ele>1586.09</ele>
  <time>2026-08-28T19:08:36Z</time>
  <course>266.03</course>
  <speed>0.0</speed>
  <fix>3d</fix>
</trkpt>
<trkpt lat="40.072842" lon="-105.230575">
  <ele>1586.14</ele>
  <time>2026-08-28T19:08:36Z</time>
  <course>11.44</course>
  <speed>0.0</speed>
  <fix>3d</fix>
</trkpt>
<trkpt lat="40.072842" lon="-105.230575">
  <ele>1586.09</ele>
  <time>2026-08-28T19:08:36Z</time>
  <course>281.49</course>
  <speed>0.0</speed>
  <fix>3d</fix>
</trkpt>
<trkpt lat="40.072842" lon="-105.230575">
  <ele>1586.14</ele>
  <time>2026-08-28T19:08:36Z</time>
  <course>11.44</course>
  <speed>0.0</speed>
  <fix>3d</fix>
</trkpt>
<trkpt lat="40.072842" lon="-105.230575">
  <ele>1586.09</ele>
  <time>2026-08-28T19:08:36Z</time>
  <course>269.42</course>
  <speed>0.0</speed>
  <fix>3d</fix>
</trkpt>
<trkpt lat="40.072842" lon="-105.230575">
  <ele>1586.14</ele>
  <time>2026-08-28T19:08:36Z</time>
  <course>11.43</course>
  <speed>0.0</speed>
  <fix>3d</fix>
</trkpt>
<trkpt lat="40.072842" lon="-105.230575">
  <ele>1586.09</ele>
  <time>2026-08-28T19:08:36Z</time>
  <course>211.84</course>
  <speed>0.0</speed>
  <fix>3d</fix>
</trkpt>
<trkpt lat="40.072842" lon="-105.230575">
  <ele>1586.14</ele>
  <time>2026-08-28T19:08:36Z</time>
  <course>11.43</course>
  <speed>0.01</speed>
  <fix>3d</fix>
</trkpt>
<trkpt lat="40.072842" lon="-105.230575">
  <ele>1586.09</ele>
  <time>2026-08-28T19:08:36Z</time>
  <course>76.8</course>
  <speed>0.0</speed>
  <fix>3d</fix>
</trkpt>
<trkpt lat="40.072842" lon="-105.230575">
  <ele>1586.14</ele>
  <time>2026-08-28T19:08:36Z</time>
  <course>11.42</course>
  <speed>0.01</speed>
  <fix>3d</fix>
</trkpt>
<trkpt lat="40.072842" lon="-105.230575">
  <ele>1586.09</ele>
  <time>2026-08-28T19:08:36Z</time>
  <course>283.66</course>
  <speed>0.0</speed>
  <fix>3d</fix>
</trkpt>
<trkpt lat="40.072842" lon="-105.230575">
  <ele>1586.14</ele>
  <time>2026-08-28T19:08:36Z</time>
  <course>11.42</course>
  <speed>0.01</speed>
  <fix>3d</fix>
</trkpt>
<trkpt lat="40.072842" lon="-105.230575">
  <ele>1586.09</ele>
  <time>2026-08-28T19:08:36Z</time>
  <course>262.24</course>
  <speed>0.0</speed>
  <fix>3d</fix>
</trkpt>
<trkpt lat="40.072842" lon="-105.230575">
  <ele>1586.14</ele>
  <time>2026-08-28T19:08:36Z</time>
  <course>11.41</course>
  <speed>0.01414213562373095</speed>
  <fix>3d</fix>
</trkpt>
<trkpt lat="40.072842" lon="-105.230575">
  <ele>1586.09</ele>
  <time>2026-08-28T19:08:36Z</time>
  <course>263.53</course>
  <speed>0.0</speed>
  <fix>3d</fix>
</trkpt>
<trkpt lat="40.072842" lon="-105.230575">
  <ele>1586.14</ele>
  <time>2026-08-28T19:08:36Z</time>
  <course>11.41</course>
  <speed>0.01414213562373095</speed>
  <fix>3d</fix>
</trkpt>
<trkpt lat="40.072842" lon="-105.230575">
  <ele>1586.09</ele>
  <time>2026-08-28T19:08:36Z</time>
  <course>267.07</course>
  <speed>0.0</speed>
  <fix>3d</fix>
</trkpt>
<trkpt lat="40.072842" lon="-105.230575">
  <ele>1586.15</ele>
  <time>2026-08-28T19:08:36Z</time>
  <course>11.41</course>
  <speed>0.01414213562373095</speed>
  <fix>3d</fix>
</trkpt>
<trkpt lat="40.072842" lon="-105.230575">
  <ele>1586.09</ele>
  <time>2026-08-28T19:08:36Z</time>
  <course>266.23</course>
  <speed>0.0</speed>
  <fix>3d</fix>
</trkpt>
<trkpt lat="40.072842" lon="-105.230575">
  <ele>1586.15</ele>
  <time>2026-08-28T19:08:36Z</time>
  <course>11.4</course>
  <speed>0.022360679774997897</speed>
  <fix>3d</fix>
</trkpt>
<trkpt lat="40.072842" lon="-105.230575">
  <ele>1586.09</ele>
  <time>2026-08-28T19:08:36Z</time>
  <course>265.88</course>
  <speed>0.0</speed>
  <fix>3d</fix>
</trkpt>
<trkpt lat="40.072842" lon="-105.230575">
  <ele>1586.15</ele>
  <time>2026-08-28T19:08:36Z</time>
  <course>11.39</course>
  <speed>0.022360679774997897</speed>
  <fix>3d</fix>
</trkpt>
<trkpt lat="40.072842" lon="-105.230575">
  <ele>1586.09</ele>
  <time>2026-08-28T19:08:36Z</time>
  <course>254.53</course>
  <speed>0.0</speed>
  <fix>3d</fix>
</trkpt>
<trkpt lat="40.072842" lon="-105.230575">
  <ele>1586.16</ele>
  <time>2026-08-28T19:08:36Z</time>
  <course>11.36</course>
  <speed>0.022360679774997897</speed>
  <fix>3d</fix>
</trkpt>
<trkpt lat="40.072842" lon="-105.230575">
  <ele>1586.09</ele>
  <time>2026-08-28T19:08:36Z</time>
  <course>258.61</course>
  <speed>0.0</speed>
  <fix>3d</fix>
</trkpt>
<trkpt lat="40.072842" lon="-105.230575">
  <ele>1586.16</ele>
  <time>2026-08-28T19:08:36Z</time>
  <course>11.32</course>
  <speed>0.022360679774997897</speed>
  <fix>3d</fix>
</trkpt>
<trkpt lat="40.072842" lon="-105.230575">
  <ele>1586.09</ele>
  <time>2026-08-28T19:08:36Z</time>
  <course>265.3</course>
  <speed>0.0</speed>
  <fix>3d</fix>
</trkpt>
<trkpt lat="40.072842" lon="-105.230575">
  <ele>1586.16</ele>
  <time>2026-08-28T19:08:36Z</time>
  <course>11.28</course>
  <speed>0.01414213562373095</speed>
  <fix>3d</fix>
</trkpt>
<trkpt lat="40.072842" lon="-105.230575">
  <ele>1586.09</ele>
  <time>2026-08-28T19:08:36Z</time>
  <course>262.33</course>
  <speed>0.0</speed>
  <fix>3d</fix>
</trkpt>
<trkpt lat="40.072842" lon="-105.230575">
  <ele>1586.16</ele>
  <time>2026-08-28T19:08:36Z</time>
  <course>11.25</course>
  <speed>0.01414213562373095</speed>
  <fix>3d</fix>
</trkpt>
<trkpt lat="40.072842" lon="-105.230575">
  <ele>1586.09</ele>
  <time>2026-08-28T19:08:36Z</time>
  <course>264.17</course>
  <speed>0.0</speed>
  <fix>3d</fix>
</trkpt>
<trkpt lat="40.072842" lon="-105.230575">
  <ele>1586.16</ele>
  <time>2026-08-28T19:08:36Z</time>
  <course>11.21</course>
  <speed>0.01</speed>
  <fix>3d</fix>
</trkpt>
<trkpt lat="40.072842" lon="-105.230575">
  <ele>1586.09</ele>
  <time>2026-08-28T19:08:36Z</time>
  <course>264.18</course>
  <speed>0.0</speed>
  <fix>3d</fix>
</trkpt>
<trkpt lat="40.072842" lon="-105.230575">
  <ele>1586.16</ele>
  <time>2026-08-28T19:08:36Z</time>
  <course>11.17</course>
  <speed>0.0</speed>
  <fix>3d</fix>
</trkpt>
<trkpt lat="40.072842" lon="-105.230575">
  <ele>1586.09</ele>
  <time>2026-08-28T19:08:36Z</time>
  <course>263.9</course>
  <speed>0.0</speed>
  <fix>3d</fix>
</trkpt>
<trkpt lat="40.072842" lon="-105.230575">
  <ele>1586.16</ele>
  <time>2026-08-28T19:08:36Z</time>
  <course>11.14</course>
  <speed>0.0</speed>
  <fix>3d</fix>
</trkpt>
<trkpt lat="40.072842" lon="-105.230575">
  <ele>1586.09</ele>
  <time>2026-08-28T19:08:36Z</time>
  <course>263.89</course>
  <speed>0.0</speed>
  <fix>3d</fix>
</trkpt>
<trkpt lat="40.072842" lon="-105.230575">
  <ele>1586.16</ele>
  <time>2026-08-28T19:08:36Z</time>
  <course>11.1</course>
  <speed>0.0</speed>
  <fix>3d</fix>
</trkpt>
<trkpt lat="40.072842" lon="-105.230575">
  <ele>1586.09</ele>
  <time>2026-08-28T19:08:36Z</time>
  <course>263.89</course>
  <speed>0.0</speed>
  <fix>3d</fix>
</trkpt>
<trkpt lat="40.072842" lon="-105.230575">
  <ele>1586.16</ele>
  <time>2026-08-28T19:08:36Z</time>
  <course>11.07</course>
  <speed>0.0</speed>
  <fix>3d</fix>
</trkpt>
<trkpt lat="40.072842" lon="-105.230575">
  <ele>1586.09</ele>
  <time>2026-08-28T19:08:36Z</time>
  <course>343.94</course>
  <speed>0.0</speed>
  <fix>3d</fix>
</trkpt>
<trkpt lat="40.072842" lon="-105.230575">
  <ele>1586.16</ele>
  <time>2026-08-28T19:08:36Z</time>
  <course>11.03</course>
  <speed>0.0</speed>
  <fix>3d</fix>
</trkpt>
<trkpt lat="40.072842" lon="-105.230575">
  <ele>1586.09</ele>
  <time>2026-08-28T19:08:36Z</time>
  <course>328.06</course>
  <speed>0.0</speed>
  <fix>3d</fix>
</trkpt>
<trkpt lat="40.072842" lon="-105.230575">
  <ele>1586.16</ele>
  <time>2026-08-28T19:08:36Z</time>
  <course>10.99</course>
  <speed>0.0</speed>
  <fix>3d</fix>
</trkpt>
<trkpt lat="40.072842" lon="-105.230575">
  <ele>1586.09</ele>
  <time>2026-08-28T19:08:36Z</time>
  <course>282.14</course>
  <speed>0.0</speed>
  <fix>3d</fix>
</trkpt>
<trkpt lat="40.072842" lon="-105.230575">
  <ele>1586.16</ele>
  <time>2026-08-28T19:08:36Z</time>
  <course>10.96</course>
  <speed>0.0</speed>
  <fix>3d</fix>
</trkpt>
<trkpt lat="40.072842" lon="-105.230575">
  <ele>1586.09</ele>
  <time>2026-08-28T19:08:36Z</time>
  <course>160.95</course>
  <speed>0.0</speed>
  <fix>3d</fix>
</trkpt>
<trkpt lat="40.072842" lon="-105.230575">
  <ele>1586.16</ele>
  <time>2026-08-28T19:08:36Z</time>
  <course>10.92</course>
  <speed>0.0</speed>
  <fix>3d</fix>
</trkpt>
<trkpt lat="40.072842" lon="-105.230575">
  <ele>1586.09</ele>
  <time>2026-08-28T19:08:36Z</time>
  <course>302.69</course>
  <speed>0.0</speed>
  <fix>3d</fix>
</trkpt>
<trkpt lat="40.072842" lon="-105.230575">
  <ele>1586.16</ele>
  <time>2026-08-28T19:08:36Z</time>
  <course>10.88</course>
  <speed>0.0</speed>
  <fix>3d</fix>
</trkpt>
<trkpt lat="40.072842" lon="-105.230575">
  <ele>1586.09</ele>
  <time>2026-08-28T19:08:36Z</time>
  <course>301.62</course>
  <speed>0.0</speed>
  <fix>3d</fix>
</trkpt>
<trkpt lat="40.072842" lon="-105.230575">
  <ele>1586.16</ele>
  <time>2026-08-28T19:08:36Z</time>
  <course>10.85</course>
  <speed>0.0</speed>
  <fix>3d</fix>
</trkpt>
<trkpt lat="40.072842" lon="-105.230575">
  <ele>1586.09</ele>
  <time>2026-08-28T19:08:36Z</time>
  <course>264.06</course>
  <speed>0.0</speed>
  <fix>3d</fix>
</trkpt>
<trkpt lat="40.072842" lon="-105.230575">
  <ele>1586.16</ele>
  <time>2026-08-28T19:08:36Z</time>
  <course>10.81</course>
  <speed>0.0</speed>
  <fix>3d</fix>
</trkpt>
<trkpt lat="40.072842" lon="-105.230575">
  <ele>1586.09</ele>
  <time>2026-08-28T19:08:36Z</time>
  <course>253.84</course>
  <speed>0.0</speed>
  <fix>3d</fix>
</trkpt>
<trkpt lat="40.072842" lon="-105.230575">
  <ele>1586.16</ele>
  <time>2026-08-28T19:08:36Z</time>
  <course>10.77</course>
  <speed>0.0</speed>
  <fix>3d</fix>
</trkpt>
<trkpt lat="40.072842" lon="-105.230575">
  <ele>1586.09</ele>
  <time>2026-08-28T19:08:36Z</time>
  <course>205.38</course>
  <speed>0.0</speed>
  <fix>3d</fix>
</trkpt>
<trkpt lat="40.072842" lon="-105.230575">
  <ele>1586.16</ele>
  <time>2026-08-28T19:08:36Z</time>
  <course>10.73</course>
  <speed>0.0</speed>
  <fix>3d</fix>
</trkpt>
<trkpt lat="40.072842" lon="-105.230575">
  <ele>1586.09</ele>
  <time>2026-08-28T19:08:36Z</time>
  <course>316.68</course>
  <speed>0.0</speed>
  <fix>3d</fix>
</trkpt>
<trkpt lat="40.072842" lon="-105.230575">
  <ele>1586.16</ele>
  <time>2026-08-28T19:08:36Z</time>
  <course>10.69</course>
  <speed>0.0</speed>
  <fix>3d</fix>
</trkpt>
<trkpt lat="40.072842" lon="-105.230575">
  <ele>1586.09</ele>
  <time>2026-08-28T19:08:36Z</time>
  <course>303.8</course>
  <speed>0.0</speed>
  <fix>3d</fix>
</trkpt>
<trkpt lat="40.072842" lon="-105.230575">
  <ele>1586.16</ele>
  <time>2026-08-28T19:08:36Z</time>
  <course>10.65</course>
  <speed>0.0</speed>
  <fix>3d</fix>
</trkpt>
<trkpt lat="40.072842" lon="-105.230575">
  <ele>1586.09</ele>
  <time>2026-08-28T19:08:36Z</time>
  <course>273.81</course>
  <speed>0.0</speed>
  <fix>3d</fix>
</trkpt>
<trkpt lat="40.072842" lon="-105.230575">
  <ele>1586.16</ele>
  <time>2026-08-28T19:08:36Z</time>
  <course>10.61</course>
  <speed>0.0</speed>
  <fix>3d</fix>
</trkpt>
<trkpt lat="40.072842" lon="-105.230575">
  <ele>1586.09</ele>
  <time>2026-08-28T19:08:36Z</time>
  <course>268.26</course>
  <speed>0.0</speed>
  <fix>3d</fix>
</trkpt>
<trkpt lat="40.072842" lon="-105.230575">
  <ele>1586.16</ele>
  <time>2026-08-28T19:08:36Z</time>
  <course>10.57</course>
  <speed>0.0</speed>
  <fix>3d</fix>
</trkpt>
<trkpt lat="40.072842" lon="-105.230575">
  <ele>1586.09</ele>
  <time>2026-08-28T19:08:36Z</time>
  <course>261.4</course>
  <speed>0.0</speed>
  <fix>3d</fix>
</trkpt>
<trkpt lat="40.072842" lon="-105.230575">
  <ele>1586.16</ele>
  <time>2026-08-28T19:08:36Z</time>
  <course>10.53</course>
  <speed>0.0</speed>
  <fix>3d</fix>
</trkpt>
<trkpt lat="40.072842" lon="-105.230575">
  <ele>1586.09</ele>
  <time>2026-08-28T19:08:36Z</time>
  <course>271.45</course>
  <speed>0.0</speed>
  <fix>3d</fix>
</trkpt>
<trkpt lat="40.072842" lon="-105.230575">
  <ele>1586.16</ele>
  <time>2026-08-28T19:08:36Z</time>
  <course>10.49</course>
  <speed>0.0</speed>
  <fix>3d</fix>
</trkpt>
<trkpt lat="40.072842" lon="-105.230575">
  <ele>1586.09</ele>
  <time>2026-08-28T19:08:36Z</time>
  <course>292.56</course>
  <speed>0.0</speed>
  <fix>3d</fix>
</trkpt>
<trkpt lat="40.072842" lon="-105.230575">
  <ele>1586.16</ele>
  <time>2026-08-28T19:08:36Z</time>
  <course>10.45</course>
  <speed>0.0</speed>
  <fix>3d</fix>
</trkpt>
<trkpt lat="40.072842" lon="-105.230575">
  <ele>1586.09</ele>
  <time>2026-08-28T19:08:36Z</time>
  <course>297.85</course>
  <speed>0.0</speed>
  <fix>3d</fix>
</trkpt>
<trkpt lat="40.072842" lon="-105.230575">
  <ele>1586.16</ele>
  <time>2026-08-28T19:08:36Z</time>
  <course>10.41</course>
  <speed>0.0</speed>
  <fix>3d</fix>
</trkpt>
<trkpt lat="40.072842" lon="-105.230575">
  <ele>1586.09</ele>
  <time>2026-08-28T19:08:36Z</time>
  <course>271.58</course>
  <speed>0.0</speed>
  <fix>3d</fix>
</trkpt>
<trkpt lat="40.072842" lon="-105.230575">
  <ele>1586.17</ele>
  <time>2026-08-28T19:08:36Z</time>
  <course>10.36</course>
  <speed>0.0</speed>
  <fix>3d</fix>
</trkpt>
<trkpt lat="40.072842" lon="-105.230575">
  <ele>1586.09</ele>
  <time>2026-08-28T19:08:36Z</time>
  <course>260.01</course>
  <speed>0.0</speed>
  <fix>3d</fix>
</trkpt>
<trkpt lat="40.072842" lon="-105.230575">
  <ele>1586.17</ele>
  <time>2026-08-28T19:08:36Z</time>
  <course>10.32</course>
  <speed>0.0</speed>
  <fix>3d</fix>
</trkpt>
<trkpt lat="40.072842" lon="-105.230575">
  <ele>1586.09</ele>
  <time>2026-08-28T19:08:36Z</time>
  <course>269.4</course>
  <speed>0.0</speed>
  <fix>3d</fix>
</trkpt>
<trkpt lat="40.072842" lon="-105.230575">
  <ele>1586.17</ele>
  <time>2026-08-28T19:08:36Z</time>
  <course>10.27</course>
  <speed>0.01</speed>
  <fix>3d</fix>
</trkpt>
<trkpt lat="40.072842" lon="-105.230575">
  <ele>1586.09</ele>
  <time>2026-08-28T19:08:36Z</time>
  <course>271.67</course>
  <speed>0.0</speed>
  <fix>3d</fix>
</trkpt>
<trkpt lat="40.072842" lon="-105.230575">
  <ele>1586.17</ele>
  <time>2026-08-28T19:08:36Z</time>
  <course>10.22</course>
  <speed>0.01</speed>
  <fix>3d</fix>
</trkpt>
<trkpt lat="40.072842" lon="-105.230575">
  <ele>1586.09</ele>
  <time>2026-08-28T19:08:36Z</time>
  <course>287.18</course>
  <speed>0.0</speed>
  <fix>3d</fix>
</trkpt>
<trkpt lat="40.072842" lon="-105.230575">
  <ele>1586.18</ele>
  <time>2026-08-28T19:08:36Z</time>
  <course>10.18</course>
  <speed>0.01</speed>
  <fix>3d</fix>
</trkpt>
<trkpt lat="40.072842" lon="-105.230575">
  <ele>1586.09</ele>
  <time>2026-08-28T19:08:36Z</time>
  <course>282.37</course>
  <speed>0.0</speed>
  <fix>3d</fix>
</trkpt>
<trkpt lat="40.072842" lon="-105.230575">
  <ele>1586.18</ele>
  <time>2026-08-28T19:08:36Z</time>
  <course>10.13</course>
  <speed>0.01</speed>
  <fix>3d</fix>
</trkpt>
<trkpt lat="40.072842" lon="-105.230575">
  <ele>1586.09</ele>
  <time>2026-08-28T19:08:36Z</time>
  <course>254.52</course>
  <speed>0.0</speed>
  <fix>3d</fix>
</trkpt>
<trkpt lat="40.072842" lon="-105.230575">
  <ele>1586.18</ele>
  <time>2026-08-28T19:08:36Z</time>
  <course>10.08</course>
  <speed>0.01414213562373095</speed>
  <fix>3d</fix>
</trkpt>
<trkpt lat="40.072842" lon="-105.230575">
  <ele>1586.09</ele>
  <time>2026-08-28T19:08:36Z</time>
  <course>252.86</course>
  <speed>0.0</speed>
  <fix>3d</fix>
</trkpt>
<trkpt lat="40.072842" lon="-105.230575">
  <ele>1586.18</ele>
  <time>2026-08-28T19:08:36Z</time>
  <course>10.04</course>
  <speed>0.01414213562373095</speed>
  <fix>3d</fix>
</trkpt>
<trkpt lat="40.072842" lon="-105.230575">
  <ele>1586.09</ele>
  <time>2026-08-28T19:08:36Z</time>
  <course>271.86</course>
  <speed>0.0</speed>
  <fix>3d</fix>
</trkpt>
<trkpt lat="40.072842" lon="-105.230575">
  <ele>1586.18</ele>
  <time>2026-08-28T19:08:36Z</time>
  <course>9.99</course>
  <speed>0.01414213562373095</speed>
  <fix>3d</fix>
</trkpt>
<trkpt lat="40.072842" lon="-105.230575">
  <ele>1586.09</ele>
  <time>2026-08-28T19:08:36Z</time>
  <course>272.64</course>
  <speed>0.0</speed>
  <fix>3d</fix>
</trkpt>
<trkpt lat="40.072842" lon="-105.230575">
  <ele>1586.18</ele>
  <time>2026-08-28T19:08:36Z</time>
  <course>9.94</course>
  <speed>0.01414213562373095</speed>
  <fix>3d</fix>
</trkpt>
<trkpt lat="40.072842" lon="-105.230575">
  <ele>1586.09</ele>
  <time>2026-08-28T19:08:36Z</time>
  <course>275.45</course>
  <speed>0.0</speed>
  <fix>3d</fix>
</trkpt>
<trkpt lat="40.072842" lon="-105.230575">
  <ele>1586.18</ele>
  <time>2026-08-28T19:08:36Z</time>
  <course>9.89</course>
  <speed>0.01414213562373095</speed>
  <fix>3d</fix>
</trkpt>
<trkpt lat="40.072842" lon="-105.230575">
  <ele>1586.09</ele>
  <time>2026-08-28T19:08:36Z</time>
  <course>273.46</course>
  <speed>0.0</speed>
  <fix>3d</fix>
</trkpt>
<trkpt lat="40.072842" lon="-105.230575">
  <ele>1586.18</ele>
  <time>2026-08-28T19:08:36Z</time>
  <course>9.84</course>
  <speed>0.01414213562373095</speed>
  <fix>3d</fix>
</trkpt>
<trkpt lat="40.072842" lon="-105.230575">
  <ele>1586.09</ele>
  <time>2026-08-28T19:08:36Z</time>
  <course>266.87</course>
  <speed>0.0</speed>
  <fix>3d</fix>
</trkpt>
<trkpt lat="40.0728419" lon="-105.230575">
  <ele>1586.18</ele>
  <time>2026-08-28T19:08:36Z</time>
  <course>9.8</course>
  <speed>0.01414213562373095</speed>
  <fix>3d</fix>
</trkpt>
<trkpt lat="40.072842" lon="-105.230575">
  <ele>1586.09</ele>
  <time>2026-08-28T19:08:36Z</time>
  <course>268.61</course>
  <speed>0.0</speed>
  <fix>3d</fix>
</trkpt>
<trkpt lat="40.0728419" lon="-105.230575">
  <ele>1586.17</ele>
  <time>2026-08-28T19:08:36Z</time>
  <course>9.75</course>
  <speed>0.01414213562373095</speed>
  <fix>3d</fix>
</trkpt>
<trkpt lat="40.072842" lon="-105.230575">
  <ele>1586.09</ele>
  <time>2026-08-28T19:08:36Z</time>
  <course>268.51</course>
  <speed>0.0</speed>
  <fix>3d</fix>
</trkpt>
<trkpt lat="40.0728419" lon="-105.230575">
  <ele>1586.17</ele>
  <time>2026-08-28T19:08:36Z</time>
  <course>9.7</course>
  <speed>0.022360679774997897</speed>
  <fix>3d</fix>
</trkpt>
<trkpt lat="40.072842" lon="-105.230575">
  <ele>1586.09</ele>
  <time>2026-08-28T19:08:36Z</time>
  <course>275.07</course>
  <speed>0.0</speed>
  <fix>3d</fix>
</trkpt>
<trkpt lat="40.0728419" lon="-105.2305749">
  <ele>1586.17</ele>
  <time>2026-08-28T19:08:36Z</time>
  <course>9.65</course>
  <speed>0.022360679774997897</speed>
  <fix>3d</fix>
</trkpt>
<trkpt lat="40.072842" lon="-105.230575">
  <ele>1586.09</ele>
  <time>2026-08-28T19:08:36Z</time>
  <course>277.87</course>
  <speed>0.0</speed>
  <fix>3d</fix>
</trkpt>
<trkpt lat="40.0728419" lon="-105.2305749">
  <ele>1586.17</ele>
  <time>2026-08-28T19:08:36Z</time>
  <course>9.6</course>
  <speed>0.022360679774997897</speed>
  <fix>3d</fix>
</trkpt>
<trkpt lat="40.072842" lon="-105.230575">
  <ele>1586.09</ele>
  <time>2026-08-28T19:08:36Z</time>
  <course>269.34</course>
  <speed>0.0</speed>
  <fix>3d</fix>
</trkpt>
<trkpt lat="40.0728419" lon="-105.2305749">
  <ele>1586.17</ele>
  <time>2026-08-28T19:08:36Z</time>
  <course>9.55</course>
  <speed>0.022360679774997897</speed>
  <fix>3d</fix>
</trkpt>
<trkpt lat="40.072842" lon="-105.230575">
  <ele>1586.09</ele>
  <time>2026-08-28T19:08:36Z</time>
  <course>267.07</course>
  <speed>0.0</speed>
  <fix>3d</fix>
</trkpt>
<trkpt lat="40.0728419" lon="-105.2305749">
  <ele>1586.17</ele>
  <time>2026-08-28T19:08:36Z</time>
  <course>9.5</course>
  <speed>0.022360679774997897</speed>
  <fix>3d</fix>
</trkpt>
<trkpt lat="40.072842" lon="-105.230575">
  <ele>1586.09</ele>
  <time>2026-08-28T19:08:36Z</time>
  <course>267.66</course>
  <speed>0.0</speed>
  <fix>3d</fix>
</trkpt>
<trkpt lat="40.0728419" lon="-105.2305749">
  <ele>1586.17</ele>
  <time>2026-08-28T19:08:36Z</time>
  <course>9.45</course>
  <speed>0.022360679774997897</speed>
  <fix>3d</fix>
</trkpt>
<trkpt lat="40.072842" lon="-105.230575">
  <ele>1586.09</ele>
  <time>2026-08-28T19:08:36Z</time>
  <course>266.78</course>
  <speed>0.0</speed>
  <fix>3d</fix>
</trkpt>
<trkpt lat="40.0728419" lon="-105.2305749">
  <ele>1586.18</ele>
  <time>2026-08-28T19:08:36Z</time>
  <course>9.4</course>
  <speed>0.022360679774997897</speed>
  <fix>3d</fix>
</trkpt>
<trkpt lat="40.072842" lon="-105.230575">
  <ele>1586.09</ele>
  <time>2026-08-28T19:08:36Z</time>
  <course>276.68</course>
  <speed>0.0</speed>
  <fix>3d</fix>
</trkpt>
<trkpt lat="40.0728419" lon="-105.2305749">
  <ele>1586.18</ele>
  <time>2026-08-28T19:08:36Z</time>
  <course>9.35</course>
  <speed>0.022360679774997897</speed>
  <fix>3d</fix>
</trkpt>
<trkpt lat="40.072842" lon="-105.230575">
  <ele>1586.09</ele>
  <time>2026-08-28T19:08:36Z</time>
  <course>277.32</course>
  <speed>0.0</speed>
  <fix>3d</fix>
</trkpt>
<trkpt lat="40.0728419" lon="-105.2305749">
  <ele>1586.18</ele>
  <time>2026-08-28T19:08:36Z</time>
  <course>9.29</course>
  <speed>0.022360679774997897</speed>
  <fix>3d</fix>
</trkpt>
<trkpt lat="40.072842" lon="-105.230575">
  <ele>1586.09</ele>
  <time>2026-08-28T19:08:36Z</time>
  <course>267.43</course>
  <speed>0.0</speed>
  <fix>3d</fix>
</trkpt>
<trkpt lat="40.0728419" lon="-105.2305749">
  <ele>1586.18</ele>
  <time>2026-08-28T19:08:36Z</time>
  <course>9.24</course>
  <speed>0.022360679774997897</speed>
  <fix>3d</fix>
</trkpt>
<trkpt lat="40.072842" lon="-105.230575">
  <ele>1586.09</ele>
  <time>2026-08-28T19:08:36Z</time>
  <course>268.02</course>
  <speed>0.0</speed>
  <fix>3d</fix>
</trkpt>
<trkpt lat="40.0728419" lon="-105.2305749">
  <ele>1586.18</ele>
  <time>2026-08-28T19:08:36Z</time>
  <course>9.19</course>
  <speed>0.022360679774997897</speed>
  <fix>3d</fix>
</trkpt>
<trkpt lat="40.072842" lon="-105.230575">
  <ele>1586.09</ele>
  <time>2026-08-28T19:08:36Z</time>
  <course>267.83</course>
  <speed>0.0</speed>
  <fix>3d</fix>
</trkpt>
<trkpt lat="40.0728419" lon="-105.2305749">
  <ele>1586.18</ele>
  <time>2026-08-28T19:08:36Z</time>
  <course>9.15</course>
  <speed>0.022360679774997897</speed>
  <fix>3d</fix>
</trkpt>
<trkpt lat="40.072842" lon="-105.230575">
  <ele>1586.09</ele>
  <time>2026-08-28T19:08:36Z</time>
  <course>266.53</course>
  <speed>0.0</speed>
  <fix>3d</fix>
</trkpt>
<trkpt lat="40.0728419" lon="-105.2305749">
  <ele>1586.18</ele>
  <time>2026-08-28T19:08:36Z</time>
  <course>9.1</course>
  <speed>0.022360679774997897</speed>
  <fix>3d</fix>
</trkpt>
<trkpt lat="40.072842" lon="-105.230575">
  <ele>1586.09</ele>
  <time>2026-08-28T19:08:36Z</time>
  <course>273.19</course>
  <speed>0.0</speed>
  <fix>3d</fix>
</trkpt>
<trkpt lat="40.0728419" lon="-105.2305749">
  <ele>1586.18</ele>
  <time>2026-08-28T19:08:36Z</time>
  <course>9.05</course>
  <speed>0.022360679774997897</speed>
  <fix>3d</fix>
</trkpt>
<trkpt lat="40.072842" lon="-105.230575">
  <ele>1586.09</ele>
  <time>2026-08-28T19:08:36Z</time>
  <course>277.2</course>
  <speed>0.0</speed>
  <fix>3d</fix>
</trkpt>
<trkpt lat="40.0728419" lon="-105.2305749">
  <ele>1586.18</ele>
  <time>2026-08-28T19:08:36Z</time>
  <course>9.0</course>
  <speed>0.022360679774997897</speed>
  <fix>3d</fix>
</trkpt>
<trkpt lat="40.072842" lon="-105.230575">
  <ele>1586.09</ele>
  <time>2026-08-28T19:08:36Z</time>
  <course>271.49</course>
  <speed>0.0</speed>
  <fix>3d</fix>
</trkpt>
<trkpt lat="40.0728419" lon="-105.2305749">
  <ele>1586.18</ele>
  <time>2026-08-28T19:08:36Z</time>
  <course>8.96</course>
  <speed>0.022360679774997897</speed>
  <fix>3d</fix>
</trkpt>
<trkpt lat="40.072842" lon="-105.230575">
  <ele>1586.09</ele>
  <time>2026-08-28T19:08:36Z</time>
  <course>266.17</course>
  <speed>0.0</speed>
  <fix>3d</fix>
</trkpt>
<trkpt lat="40.0728419" lon="-105.2305749">
  <ele>1586.18</ele>
  <time>2026-08-28T19:08:36Z</time>
  <course>8.91</course>
  <speed>0.022360679774997897</speed>
  <fix>3d</fix>
</trkpt>
<trkpt lat="40.072842" lon="-105.230575">
  <ele>1586.09</ele>
  <time>2026-08-28T19:08:36Z</time>
  <course>266.75</course>
  <speed>0.0</speed>
  <fix>3d</fix>
</trkpt>
<trkpt lat="40.0728419" lon="-105.2305749">
  <ele>1586.18</ele>
  <time>2026-08-28T19:08:36Z</time>
  <course>8.86</course>
  <speed>0.022360679774997897</speed>
  <fix>3d</fix>
</trkpt>
<trkpt lat="40.072842" lon="-105.230575">
  <ele>1586.09</ele>
  <time>2026-08-28T19:08:36Z</time>
  <course>267.15</course>
  <speed>0.0</speed>
  <fix>3d</fix>
</trkpt>
<trkpt lat="40.0728419" lon="-105.2305749">
  <ele>1586.18</ele>
  <time>2026-08-28T19:08:36Z</time>
  <course>8.82</course>
  <speed>0.022360679774997897</speed>
  <fix>3d</fix>
</trkpt>
<trkpt lat="40.072842" lon="-105.230575">
  <ele>1586.09</ele>
  <time>2026-08-28T19:08:36Z</time>
  <course>268.6</course>
  <speed>0.0</speed>
  <fix>3d</fix>
</trkpt>
<trkpt lat="40.0728419" lon="-105.2305749">
  <ele>1586.18</ele>
  <time>2026-08-28T19:08:36Z</time>
  <course>8.78</course>
  <speed>0.022360679774997897</speed>
  <fix>3d</fix>
</trkpt>
<trkpt lat="40.072842" lon="-105.230575">
  <ele>1586.09</ele>
  <time>2026-08-28T19:08:36Z</time>
  <course>268.77</course>
  <speed>0.0</speed>
  <fix>3d</fix>
</trkpt>
<trkpt lat="40.0728419" lon="-105.2305749">
  <ele>1586.18</ele>
  <time>2026-08-28T19:08:36Z</time>
  <course>8.73</course>
  <speed>0.022360679774997897</speed>
  <fix>3d</fix>
</trkpt>
<trkpt lat="40.072842" lon="-105.230575">
  <ele>1586.09</ele>
  <time>2026-08-28T19:08:36Z</time>
  <course>276.99</course>
  <speed>0.0</speed>
  <fix>3d</fix>
</trkpt>
<trkpt lat="40.0728419" lon="-105.2305749">
  <ele>1586.18</ele>
  <time>2026-08-28T19:08:37Z</time>
  <course>8.69</course>
  <speed>0.022360679774997897</speed>
  <fix>3d</fix>
</trkpt>
<trkpt lat="40.072842" lon="-105.230575">
  <ele>1586.09</ele>
  <time>2026-08-28T19:08:37Z</time>
  <course>278.35</course>
  <speed>0.0</speed>
  <fix>3d</fix>
</trkpt>
<trkpt lat="40.0728419" lon="-105.2305749">
  <ele>1586.18</ele>
  <time>2026-08-28T19:08:37Z</time>
  <course>8.64</course>
  <speed>0.022360679774997897</speed>
  <fix>3d</fix>
</trkpt>
<trkpt lat="40.072842" lon="-105.230575">
  <ele>1586.09</ele>
  <time>2026-08-28T19:08:37Z</time>
  <course>265.55</course>
  <speed>0.0</speed>
  <fix>3d</fix>
</trkpt>
<trkpt lat="40.0728419" lon="-105.2305749">
  <ele>1586.18</ele>
  <time>2026-08-28T19:08:37Z</time>
  <course>8.6</course>
  <speed>0.022360679774997897</speed>
  <fix>3d</fix>
</trkpt>
<trkpt lat="40.072842" lon="-105.230575">
  <ele>1586.09</ele>
  <time>2026-08-28T19:08:37Z</time>
  <course>264.49</course>
  <speed>0.0</speed>
  <fix>3d</fix>
</trkpt>
<trkpt lat="40.0728419" lon="-105.2305749">
  <ele>1586.18</ele>
  <time>2026-08-28T19:08:37Z</time>
  <course>8.56</course>
  <speed>0.022360679774997897</speed>
  <fix>3d</fix>
</trkpt>
<trkpt lat="40.072842" lon="-105.230575">
  <ele>1586.09</ele>
  <time>2026-08-28T19:08:37Z</time>
  <course>268.45</course>
  <speed>0.0</speed>
  <fix>3d</fix>
</trkpt>
<trkpt lat="40.0728419" lon="-105.2305749">
  <ele>1586.18</ele>
  <time>2026-08-28T19:08:37Z</time>
  <course>8.52</course>
  <speed>0.022360679774997897</speed>
  <fix>3d</fix>
</trkpt>
<trkpt lat="40.072842" lon="-105.230575">
  <ele>1586.09</ele>
  <time>2026-08-28T19:08:37Z</time>
  <course>268.34</course>
  <speed>0.0</speed>
  <fix>3d</fix>
</trkpt>
<trkpt lat="40.0728419" lon="-105.2305749">
  <ele>1586.18</ele>
  <time>2026-08-28T19:08:37Z</time>
  <course>8.47</course>
  <speed>0.022360679774997897</speed>
  <fix>3d</fix>
</trkpt>
<trkpt lat="40.072842" lon="-105.230575">
  <ele>1586.09</ele>
  <time>2026-08-28T19:08:37Z</time>
  <course>268.09</course>
  <speed>0.0</speed>
  <fix>3d</fix>
</trkpt>
<trkpt lat="40.0728419" lon="-105.2305749">
  <ele>1586.18</ele>
  <time>2026-08-28T19:08:37Z</time>
  <course>8.43</course>
  <speed>0.022360679774997897</speed>
  <fix>3d</fix>
</trkpt>
<trkpt lat="40.072842" lon="-105.230575">
  <ele>1586.09</ele>
  <time>2026-08-28T19:08:37Z</time>
  <course>267.92</course>
  <speed>0.0</speed>
  <fix>3d</fix>
</trkpt>
<trkpt lat="40.0728419" lon="-105.2305749">
  <ele>1586.17</ele>
  <time>2026-08-28T19:08:37Z</time>
  <course>8.39</course>
  <speed>0.022360679774997897</speed>
  <fix>3d</fix>
</trkpt>
<trkpt lat="40.072842" lon="-105.230575">
  <ele>1586.09</ele>
  <time>2026-08-28T19:08:37Z</time>
  <course>277.16</course>
  <speed>0.0</speed>
  <fix>3d</fix>
</trkpt>
<trkpt lat="40.0728419" lon="-105.2305749">
  <ele>1586.17</ele>
  <time>2026-08-28T19:08:37Z</time>
  <course>8.35</course>
  <speed>0.022360679774997897</speed>
  <fix>3d</fix>
</trkpt>
<trkpt lat="40.072842" lon="-105.230575">
  <ele>1586.09</ele>
  <time>2026-08-28T19:08:37Z</time>
  <course>272.92</course>
  <speed>0.0</speed>
  <fix>3d</fix>
</trkpt>
<trkpt lat="40.0728419" lon="-105.2305749">
  <ele>1586.17</ele>
  <time>2026-08-28T19:08:37Z</time>
  <course>8.32</course>
  <speed>0.022360679774997897</speed>
  <fix>3d</fix>
</trkpt>
<trkpt lat="40.072842" lon="-105.230575">
  <ele>1586.09</ele>
  <time>2026-08-28T19:08:37Z</time>
  <course>264.29</course>
  <speed>0.0</speed>
  <fix>3d</fix>
</trkpt>
<trkpt lat="40.0728419" lon="-105.2305749">
  <ele>1586.17</ele>
  <time>2026-08-28T19:08:37Z</time>
  <course>8.28</course>
  <speed>0.022360679774997897</speed>
  <fix>3d</fix>
</trkpt>
<trkpt lat="40.072842" lon="-105.230575">
  <ele>1586.09</ele>
  <time>2026-08-28T19:08:37Z</time>
  <course>266.27</course>
  <speed>0.0</speed>
  <fix>3d</fix>
</trkpt>
<trkpt lat="40.0728419" lon="-105.2305749">
  <ele>1586.17</ele>
  <time>2026-08-28T19:08:37Z</time>
  <course>8.24</course>
  <speed>0.022360679774997897</speed>
  <fix>3d</fix>
</trkpt>
<trkpt lat="40.072842" lon="-105.230575">
  <ele>1586.09</ele>
  <time>2026-08-28T19:08:37Z</time>
  <course>269.0</course>
  <speed>0.0</speed>
  <fix>3d</fix>
</trkpt>
<trkpt lat="40.0728419" lon="-105.2305749">
  <ele>1586.18</ele>
  <time>2026-08-28T19:08:37Z</time>
  <course>8.2</course>
  <speed>0.022360679774997897</speed>
  <fix>3d</fix>
</trkpt>
<trkpt lat="40.072842" lon="-105.230575">
  <ele>1586.09</ele>
  <time>2026-08-28T19:08:37Z</time>
  <course>268.31</course>
  <speed>0.0</speed>
  <fix>3d</fix>
</trkpt>
<trkpt lat="40.0728419" lon="-105.2305749">
  <ele>1586.18</ele>
  <time>2026-08-28T19:08:37Z</time>
  <course>8.16</course>
  <speed>0.022360679774997897</speed>
  <fix>3d</fix>
</trkpt>
<trkpt lat="40.072842" lon="-105.230575">
  <ele>1586.09</ele>
  <time>2026-08-28T19:08:37Z</time>
  <course>267.7</course>
  <speed>0.0</speed>
  <fix>3d</fix>
</trkpt>
<trkpt lat="40.0728419" lon="-105.2305749">
  <ele>1586.18</ele>
  <time>2026-08-28T19:08:37Z</time>
  <course>8.12</course>
  <speed>0.022360679774997897</speed>
  <fix>3d</fix>
</trkpt>
<trkpt lat="40.072842" lon="-105.230575">
  <ele>1586.09</ele>
  <time>2026-08-28T19:08:37Z</time>
  <course>267.77</course>
  <speed>0.0</speed>
  <fix>3d</fix>
</trkpt>
<trkpt lat="40.0728419" lon="-105.2305749">
  <ele>1586.18</ele>
  <time>2026-08-28T19:08:37Z</time>
  <course>8.08</course>
  <speed>0.022360679774997897</speed>
  <fix>3d</fix>
</trkpt>
<trkpt lat="40.072842" lon="-105.230575">
  <ele>1586.09</ele>
  <time>2026-08-28T19:08:37Z</time>
  <course>268.63</course>
  <speed>0.0</speed>
  <fix>3d</fix>
</trkpt>
<trkpt lat="40.0728419" lon="-105.2305749">
  <ele>1586.18</ele>
  <time>2026-08-28T19:08:37Z</time>
  <course>8.04</course>
  <speed>0.022360679774997897</speed>
  <fix>3d</fix>
</trkpt>
<trkpt lat="40.072842" lon="-105.230575">
  <ele>1586.09</ele>
  <time>2026-08-28T19:08:37Z</time>
  <course>268.99</course>
  <speed>0.0</speed>
  <fix>3d</fix>
</trkpt>
<trkpt lat="40.0728419" lon="-105.2305749">
  <ele>1586.18</ele>
  <time>2026-08-28T19:08:37Z</time>
  <course>8.01</course>
  <speed>0.022360679774997897</speed>
  <fix>3d</fix>
</trkpt>
<trkpt lat="40.072842" lon="-105.230575">
  <ele>1586.09</ele>
  <time>2026-08-28T19:08:37Z</time>
  <course>263.2</course>
  <speed>0.0</speed>
  <fix>3d</fix>
</trkpt>
<trkpt lat="40.0728419" lon="-105.2305749">
  <ele>1586.18</ele>
  <time>2026-08-28T19:08:37Z</time>
  <course>7.97</course>
  <speed>0.022360679774997897</speed>
  <fix>3d</fix>
</trkpt>
<trkpt lat="40.072842" lon="-105.230575">
  <ele>1586.09</ele>
  <time>2026-08-28T19:08:37Z</time>
  <course>260.73</course>
  <speed>0.0</speed>
  <fix>3d</fix>
</trkpt>
<trkpt lat="40.0728419" lon="-105.2305749">
  <ele>1586.19</ele>
  <time>2026-08-28T19:08:37Z</time>
  <course>7.94</course>
  <speed>0.022360679774997897</speed>
  <fix>3d</fix>
</trkpt>
<trkpt lat="40.072842" lon="-105.230575">
  <ele>1586.09</ele>
  <time>2026-08-28T19:08:37Z</time>
  <course>269.19</course>
  <speed>0.0</speed>
  <fix>3d</fix>
</trkpt>
<trkpt lat="40.0728419" lon="-105.2305749">
  <ele>1586.19</ele>
  <time>2026-08-28T19:08:37Z</time>
  <course>7.9</course>
  <speed>0.022360679774997897</speed>
  <fix>3d</fix>
</trkpt>
<trkpt lat="40.072842" lon="-105.230575">
  <ele>1586.09</ele>
  <time>2026-08-28T19:08:37Z</time>
  <course>268.98</course>
  <speed>0.0</speed>
  <fix>3d</fix>
</trkpt>
<trkpt lat="40.0728419" lon="-105.2305749">
  <ele>1586.19</ele>
  <time>2026-08-28T19:08:37Z</time>
  <course>7.87</course>
  <speed>0.01414213562373095</speed>
  <fix>3d</fix>
</trkpt>
<trkpt lat="40.072842" lon="-105.230575">
  <ele>1586.09</ele>
  <time>2026-08-28T19:08:37Z</time>
  <course>267.25</course>
  <speed>0.0</speed>
  <fix>3d</fix>
</trkpt>
<trkpt lat="40.0728419" lon="-105.2305749">
  <ele>1586.19</ele>
  <time>2026-08-28T19:08:37Z</time>
  <course>7.83</course>
  <speed>0.01414213562373095</speed>
  <fix>3d</fix>
</trkpt>
<trkpt lat="40.072842" lon="-105.230575">
  <ele>1586.09</ele>
  <time>2026-08-28T19:08:37Z</time>
  <course>267.37</course>
  <speed>0.0</speed>
  <fix>3d</fix>
</trkpt>
<trkpt lat="40.0728419" lon="-105.2305749">
  <ele>1586.19</ele>
  <time>2026-08-28T19:08:37Z</time>
  <course>7.8</course>
  <speed>0.01414213562373095</speed>
  <fix>3d</fix>
</trkpt>
<trkpt lat="40.072842" lon="-105.230575">
  <ele>1586.09</ele>
  <time>2026-08-28T19:08:37Z</time>
  <course>268.32</course>
  <speed>0.0</speed>
  <fix>3d</fix>
</trkpt>
<trkpt lat="40.0728419" lon="-105.2305749">
  <ele>1586.19</ele>
  <time>2026-08-28T19:08:37Z</time>
  <course>7.76</course>
  <speed>0.01414213562373095</speed>
  <fix>3d</fix>
</trkpt>
<trkpt lat="40.072842" lon="-105.230575">
  <ele>1586.09</ele>
  <time>2026-08-28T19:08:37Z</time>
  <course>268.51</course>
  <speed>0.0</speed>
  <fix>3d</fix>
</trkpt>
<trkpt lat="40.0728419" lon="-105.2305749">
  <ele>1586.18</ele>
  <time>2026-08-28T19:08:37Z</time>
  <course>7.73</course>
  <speed>0.01414213562373095</speed>
  <fix>3d</fix>
</trkpt>
<trkpt lat="40.072842" lon="-105.230575">
  <ele>1586.09</ele>
  <time>2026-08-28T19:08:37Z</time>
  <course>266.4</course>
  <speed>0.0</speed>
  <fix>3d</fix>
</trkpt>
<trkpt lat="40.0728419" lon="-105.2305749">
  <ele>1586.18</ele>
  <time>2026-08-28T19:08:37Z</time>
  <course>7.7</course>
  <speed>0.01414213562373095</speed>
  <fix>3d</fix>
</trkpt>
<trkpt lat="40.072842" lon="-105.230575">
  <ele>1586.09</ele>
  <time>2026-08-28T19:08:37Z</time>
  <course>271.3</course>
  <speed>0.0</speed>
  <fix>3d</fix>
</trkpt>
<trkpt lat="40.0728419" lon="-105.2305749">
  <ele>1586.18</ele>
  <time>2026-08-28T19:08:37Z</time>
  <course>7.67</course>
  <speed>0.01414213562373095</speed>
  <fix>3d</fix>
</trkpt>
<trkpt lat="40.072842" lon="-105.230575">
  <ele>1586.09</ele>
  <time>2026-08-28T19:08:37Z</time>
  <course>273.19</course>
  <speed>0.0</speed>
  <fix>3d</fix>
</trkpt>
<trkpt lat="40.0728419" lon="-105.2305749">
  <ele>1586.18</ele>
  <time>2026-08-28T19:08:37Z</time>
  <course>7.64</course>
  <speed>0.01414213562373095</speed>
  <fix>3d</fix>
</trkpt>
<trkpt lat="40.072842" lon="-105.230575">
  <ele>1586.09</ele>
  <time>2026-08-28T19:08:37Z</time>
  <course>266.18</course>
  <speed>0.0</speed>
  <fix>3d</fix>
</trkpt>
<trkpt lat="40.0728419" lon="-105.2305749">
  <ele>1586.18</ele>
  <time>2026-08-28T19:08:37Z</time>
  <course>7.61</course>
  <speed>0.01414213562373095</speed>
  <fix>3d</fix>
</trkpt>
<trkpt lat="40.072842" lon="-105.230575">
  <ele>1586.09</ele>
  <time>2026-08-28T19:08:37Z</time>
  <course>266.76</course>
  <speed>0.0</speed>
  <fix>3d</fix>
</trkpt>
<trkpt lat="40.0728419" lon="-105.2305749">
  <ele>1586.18</ele>
  <time>2026-08-28T19:08:37Z</time>
  <course>7.59</course>
  <speed>0.01414213562373095</speed>
  <fix>3d</fix>
</trkpt>
<trkpt lat="40.072842" lon="-105.230575">
  <ele>1586.09</ele>
  <time>2026-08-28T19:08:37Z</time>
  <course>267.45</course>
  <speed>0.0</speed>
  <fix>3d</fix>
</trkpt>
<trkpt lat="40.0728419" lon="-105.2305749">
  <ele>1586.18</ele>
  <time>2026-08-28T19:08:37Z</time>
  <course>7.56</course>
  <speed>0.01414213562373095</speed>
  <fix>3d</fix>
</trkpt>
<trkpt lat="40.072842" lon="-105.230575">
  <ele>1586.09</ele>
  <time>2026-08-28T19:08:37Z</time>
  <course>267.26</course>
  <speed>0.0</speed>
  <fix>3d</fix>
</trkpt>
<trkpt lat="40.0728419" lon="-105.2305749">
  <ele>1586.18</ele>
  <time>2026-08-28T19:08:37Z</time>
  <course>7.54</course>
  <speed>0.01414213562373095</speed>
  <fix>3d</fix>
</trkpt>
<trkpt lat="40.072842" lon="-105.230575">
  <ele>1586.09</ele>
  <time>2026-08-28T19:08:37Z</time>
  <course>267.15</course>
  <speed>0.0</speed>
  <fix>3d</fix>
</trkpt>
<trkpt lat="40.0728419" lon="-105.2305749">
  <ele>1586.18</ele>
  <time>2026-08-28T19:08:37Z</time>
  <course>7.52</course>
  <speed>0.01414213562373095</speed>
  <fix>3d</fix>
</trkpt>
<trkpt lat="40.072842" lon="-105.230575">
  <ele>1586.09</ele>
  <time>2026-08-28T19:08:37Z</time>
  <course>267.12</course>
  <speed>0.0</speed>
  <fix>3d</fix>
</trkpt>
<trkpt lat="40.0728419" lon="-105.2305749">
  <ele>1586.19</ele>
  <time>2026-08-28T19:08:37Z</time>
  <course>7.5</course>
  <speed>0.01414213562373095</speed>
  <fix>3d</fix>
</trkpt>
<trkpt lat="40.072842" lon="-105.230575">
  <ele>1586.09</ele>
  <time>2026-08-28T19:08:37Z</time>
  <course>267.46</course>
  <speed>0.0</speed>
  <fix>3d</fix>
</trkpt>
<trkpt lat="40.0728419" lon="-105.2305749">
  <ele>1586.19</ele>
  <time>2026-08-28T19:08:37Z</time>
  <course>7.47</course>
  <speed>0.01414213562373095</speed>
  <fix>3d</fix>
</trkpt>
<trkpt lat="40.072842" lon="-105.230575">
  <ele>1586.09</ele>
  <time>2026-08-28T19:08:37Z</time>
  <course>266.53</course>
  <speed>0.0</speed>
  <fix>3d</fix>
</trkpt>
<trkpt lat="40.0728419" lon="-105.2305749">
  <ele>1586.19</ele>
  <time>2026-08-28T19:08:37Z</time>
  <course>7.46</course>
  <speed>0.01414213562373095</speed>
  <fix>3d</fix>
</trkpt>
<trkpt lat="40.072842" lon="-105.230575">
  <ele>1586.09</ele>
  <time>2026-08-28T19:08:37Z</time>
  <course>266.23</course>
  <speed>0.0</speed>
  <fix>3d</fix>
</trkpt>
<trkpt lat="40.0728419" lon="-105.2305749">
  <ele>1586.19</ele>
  <time>2026-08-28T19:08:37Z</time>
  <course>7.44</course>
  <speed>0.01414213562373095</speed>
  <fix>3d</fix>
</trkpt>
<trkpt lat="40.072842" lon="-105.230575">
  <ele>1586.09</ele>
  <time>2026-08-28T19:08:37Z</time>
  <course>272.61</course>
  <speed>0.0</speed>
  <fix>3d</fix>
</trkpt>
<trkpt lat="40.0728419" lon="-105.2305749">
  <ele>1586.19</ele>
  <time>2026-08-28T19:08:37Z</time>
  <course>7.42</course>
  <speed>0.01414213562373095</speed>
  <fix>3d</fix>
</trkpt>
<trkpt lat="40.072842" lon="-105.230575">
  <ele>1586.09</ele>
  <time>2026-08-28T19:08:37Z</time>
  <course>271.97</course>
  <speed>0.0</speed>
  <fix>3d</fix>
</trkpt>
<trkpt lat="40.0728419" lon="-105.2305749">
  <ele>1586.19</ele>
  <time>2026-08-28T19:08:37Z</time>
  <course>7.4</course>
  <speed>0.01414213562373095</speed>
  <fix>3d</fix>
</trkpt>
<trkpt lat="40.072842" lon="-105.230575">
  <ele>1586.09</ele>
  <time>2026-08-28T19:08:37Z</time>
  <course>266.03</course>
  <speed>0.0</speed>
  <fix>3d</fix>
</trkpt>
<trkpt lat="40.0728419" lon="-105.2305749">
  <ele>1586.19</ele>
  <time>2026-08-28T19:08:37Z</time>
  <course>7.39</course>
  <speed>0.01414213562373095</speed>
  <fix>3d</fix>
</trkpt>
<trkpt lat="40.072842" lon="-105.230575">
  <ele>1586.09</ele>
  <time>2026-08-28T19:08:37Z</time>
  <course>266.99</course>
  <speed>0.0</speed>
  <fix>3d</fix>
</trkpt>
<trkpt lat="40.0728419" lon="-105.2305749">
  <ele>1586.19</ele>
  <time>2026-08-28T19:08:37Z</time>
  <course>7.37</course>
  <speed>0.01414213562373095</speed>
  <fix>3d</fix>
</trkpt>
<trkpt lat="40.072842" lon="-105.230575">
  <ele>1586.09</ele>
  <time>2026-08-28T19:08:37Z</time>
  <course>267.62</course>
  <speed>0.0</speed>
  <fix>3d</fix>
</trkpt>
<trkpt lat="40.0728419" lon="-105.2305749">
  <ele>1586.19</ele>
  <time>2026-08-28T19:08:37Z</time>
  <course>7.36</course>
  <speed>0.01414213562373095</speed>
  <fix>3d</fix>
</trkpt>
<trkpt lat="40.072842" lon="-105.230575">
  <ele>1586.09</ele>
  <time>2026-08-28T19:08:37Z</time>
  <course>267.33</course>
  <speed>0.0</speed>
  <fix>3d</fix>
</trkpt>
<trkpt lat="40.0728419" lon="-105.2305749">
  <ele>1586.19</ele>
  <time>2026-08-28T19:08:37Z</time>
  <course>7.35</course>
  <speed>0.01414213562373095</speed>
  <fix>3d</fix>
</trkpt>
<trkpt lat="40.072842" lon="-105.230575">
  <ele>1586.09</ele>
  <time>2026-08-28T19:08:37Z</time>
  <course>267.18</course>
  <speed>0.0</speed>
  <fix>3d</fix>
</trkpt>
<trkpt lat="40.0728419" lon="-105.2305749">
  <ele>1586.19</ele>
  <time>2026-08-28T19:08:37Z</time>
  <course>7.34</course>
  <speed>0.01414213562373095</speed>
  <fix>3d</fix>
</trkpt>
<trkpt lat="40.072842" lon="-105.230575">
  <ele>1586.09</ele>
  <time>2026-08-28T19:08:37Z</time>
  <course>268.57</course>
  <speed>0.0</speed>
  <fix>3d</fix>
</trkpt>
<trkpt lat="40.0728419" lon="-105.2305749">
  <ele>1586.18</ele>
  <time>2026-08-28T19:08:37Z</time>
  <course>7.33</course>
  <speed>0.01414213562373095</speed>
  <fix>3d</fix>
</trkpt>
<trkpt lat="40.072842" lon="-105.230575">
  <ele>1586.09</ele>
  <time>2026-08-28T19:08:37Z</time>
  <course>267.77</course>
  <speed>0.0</speed>
  <fix>3d</fix>
</trkpt>
<trkpt lat="40.0728419" lon="-105.2305749">
  <ele>1586.18</ele>
  <time>2026-08-28T19:08:37Z</time>
  <course>7.32</course>
  <speed>0.01414213562373095</speed>
  <fix>3d</fix>
</trkpt>
<trkpt lat="40.072842" lon="-105.230575">
  <ele>1586.09</ele>
  <time>2026-08-28T19:08:37Z</time>
  <course>265.95</course>
  <speed>0.0</speed>
  <fix>3d</fix>
</trkpt>
<trkpt lat="40.0728419" lon="-105.2305749">
  <ele>1586.18</ele>
  <time>2026-08-28T19:08:37Z</time>
  <course>7.31</course>
  <speed>0.01414213562373095</speed>
  <fix>3d</fix>
</trkpt>
<trkpt lat="40.072842" lon="-105.230575">
  <ele>1586.09</ele>
  <time>2026-08-28T19:08:37Z</time>
  <course>267.58</course>
  <speed>0.0</speed>
  <fix>3d</fix>
</trkpt>
<trkpt lat="40.0728419" lon="-105.2305749">
  <ele>1586.18</ele>
  <time>2026-08-28T19:08:37Z</time>
  <course>7.31</course>
  <speed>0.01414213562373095</speed>
  <fix>3d</fix>
</trkpt>
<trkpt lat="40.072842" lon="-105.230575">
  <ele>1586.09</ele>
  <time>2026-08-28T19:08:37Z</time>
  <course>267.53</course>
  <speed>0.0</speed>
  <fix>3d</fix>
</trkpt>
<trkpt lat="40.0728419" lon="-105.2305749">
  <ele>1586.18</ele>
  <time>2026-08-28T19:08:37Z</time>
  <course>7.3</course>
  <speed>0.01414213562373095</speed>
  <fix>3d</fix>
</trkpt>
<trkpt lat="40.072842" lon="-105.230575">
  <ele>1586.09</ele>
  <time>2026-08-28T19:08:37Z</time>
  <course>271.53</course>
  <speed>0.0</speed>
  <fix>3d</fix>
</trkpt>
<trkpt lat="40.0728419" lon="-105.2305749">
  <ele>1586.18</ele>
  <time>2026-08-28T19:08:37Z</time>
  <course>7.3</course>
  <speed>0.01414213562373095</speed>
  <fix>3d</fix>
</trkpt>
<trkpt lat="40.072842" lon="-105.230575">
  <ele>1586.09</ele>
  <time>2026-08-28T19:08:37Z</time>
  <course>272.1</course>
  <speed>0.0</speed>
  <fix>3d</fix>
</trkpt>
<trkpt lat="40.0728419" lon="-105.2305749">
  <ele>1586.18</ele>
  <time>2026-08-28T19:08:37Z</time>
  <course>7.29</course>
  <speed>0.01414213562373095</speed>
  <fix>3d</fix>
</trkpt>
<trkpt lat="40.072842" lon="-105.230575">
  <ele>1586.09</ele>
  <time>2026-08-28T19:08:37Z</time>
  <course>266.53</course>
  <speed>0.0</speed>
  <fix>3d</fix>
</trkpt>
<trkpt lat="40.0728419" lon="-105.2305749">
  <ele>1586.18</ele>
  <time>2026-08-28T19:08:37Z</time>
  <course>7.29</course>
  <speed>0.01414213562373095</speed>
  <fix>3d</fix>
</trkpt>
<trkpt lat="40.072842" lon="-105.230575">
  <ele>1586.09</ele>
  <time>2026-08-28T19:08:37Z</time>
  <course>267.32</course>
  <speed>0.0</speed>
  <fix>3d</fix>
</trkpt>
<trkpt lat="40.0728419" lon="-105.2305749">
  <ele>1586.17</ele>
  <time>2026-08-28T19:08:37Z</time>
  <course>7.29</course>
  <speed>0.01414213562373095</speed>
  <fix>3d</fix>
</trkpt>
<trkpt lat="40.072842" lon="-105.230575">
  <ele>1586.09</ele>
  <time>2026-08-28T19:08:37Z</time>
  <course>267.78</course>
  <speed>0.0</speed>
  <fix>3d</fix>
</trkpt>
<trkpt lat="40.0728419" lon="-105.2305749">
  <ele>1586.17</ele>
  <time>2026-08-28T19:08:37Z</time>
  <course>7.29</course>
  <speed>0.01414213562373095</speed>
  <fix>3d</fix>
</trkpt>
<trkpt lat="40.072842" lon="-105.230575">
  <ele>1586.09</ele>
  <time>2026-08-28T19:08:37Z</time>
  <course>267.75</course>
  <speed>0.0</speed>
  <fix>3d</fix>
</trkpt>
<trkpt lat="40.0728419" lon="-105.2305749">
  <ele>1586.17</ele>
  <time>2026-08-28T19:08:37Z</time>
  <course>7.29</course>
  <speed>0.01414213562373095</speed>
  <fix>3d</fix>
</trkpt>
<trkpt lat="40.072842" lon="-105.230575">
  <ele>1586.09</ele>
  <time>2026-08-28T19:08:37Z</time>
  <course>269.29</course>
  <speed>0.0</speed>
  <fix>3d</fix>
</trkpt>
<trkpt lat="40.0728419" lon="-105.2305749">
  <ele>1586.17</ele>
  <time>2026-08-28T19:08:37Z</time>
  <course>7.29</course>
  <speed>0.01414213562373095</speed>
  <fix>3d</fix>
</trkpt>
<trkpt lat="40.072842" lon="-105.230575">
  <ele>1586.09</ele>
  <time>2026-08-28T19:08:37Z</time>
  <course>267.69</course>
  <speed>0.0</speed>
  <fix>3d</fix>
</trkpt>
<trkpt lat="40.0728419" lon="-105.2305749">
  <ele>1586.17</ele>
  <time>2026-08-28T19:08:37Z</time>
  <course>7.29</course>
  <speed>0.01414213562373095</speed>
  <fix>3d</fix>
</trkpt>
<trkpt lat="40.072842" lon="-105.230575">
  <ele>1586.09</ele>
  <time>2026-08-28T19:08:37Z</time>
  <course>266.3</course>
  <speed>0.0</speed>
  <fix>3d</fix>
</trkpt>
<trkpt lat="40.0728419" lon="-105.2305749">
  <ele>1586.17</ele>
  <time>2026-08-28T19:08:37Z</time>
  <course>7.29</course>
  <speed>0.01414213562373095</speed>
  <fix>3d</fix>
</trkpt>
<trkpt lat="40.072842" lon="-105.230575">
  <ele>1586.09</ele>
  <time>2026-08-28T19:08:37Z</time>
  <course>267.9</course>
  <speed>0.0</speed>
  <fix>3d</fix>
</trkpt>
<trkpt lat="40.0728419" lon="-105.2305749">
  <ele>1586.17</ele>
  <time>2026-08-28T19:08:37Z</time>
  <course>7.29</course>
  <speed>0.01414213562373095</speed>
  <fix>3d</fix>
</trkpt>
<trkpt lat="40.072842" lon="-105.2305751">
  <ele>1586.09</ele>
  <time>2026-08-28T19:08:37Z</time>
  <course>268.37</course>
  <speed>0.0</speed>
  <fix>3d</fix>
</trkpt>
<trkpt lat="40.0728419" lon="-105.2305749">
  <ele>1586.17</ele>
  <time>2026-08-28T19:08:37Z</time>
  <course>7.3</course>
  <speed>0.01414213562373095</speed>
  <fix>3d</fix>
</trkpt>
<trkpt lat="40.072842" lon="-105.2305751">
  <ele>1586.09</ele>
  <time>2026-08-28T19:08:37Z</time>
  <course>267.87</course>
  <speed>0.0</speed>
  <fix>3d</fix>
</trkpt>
<trkpt lat="40.0728419" lon="-105.2305749">
  <ele>1586.17</ele>
  <time>2026-08-28T19:08:37Z</time>
  <course>7.3</course>
  <speed>0.01414213562373095</speed>
  <fix>3d</fix>
</trkpt>
<trkpt lat="40.072842" lon="-105.2305751">
  <ele>1586.09</ele>
  <time>2026-08-28T19:08:37Z</time>
  <course>267.97</course>
  <speed>0.0</speed>
  <fix>3d</fix>
</trkpt>
<trkpt lat="40.0728419" lon="-105.2305749">
  <ele>1586.17</ele>
  <time>2026-08-28T19:08:37Z</time>
  <course>7.31</course>
  <speed>0.01414213562373095</speed>
  <fix>3d</fix>
</trkpt>
<trkpt lat="40.072842" lon="-105.2305751">
  <ele>1586.09</ele>
  <time>2026-08-28T19:08:37Z</time>
  <course>274.39</course>
  <speed>0.0</speed>
  <fix>3d</fix>
</trkpt>
<trkpt lat="40.0728419" lon="-105.2305749">
  <ele>1586.17</ele>
  <time>2026-08-28T19:08:37Z</time>
  <course>7.32</course>
  <speed>0.01414213562373095</speed>
  <fix>3d</fix>
</trkpt>
<trkpt lat="40.072842" lon="-105.2305751">
  <ele>1586.09</ele>
  <time>2026-08-28T19:08:37Z</time>
  <course>273.27</course>
  <speed>0.0</speed>
  <fix>3d</fix>
</trkpt>
<trkpt lat="40.0728419" lon="-105.2305749">
  <ele>1586.17</ele>
  <time>2026-08-28T19:08:37Z</time>
  <course>7.32</course>
  <speed>0.01414213562373095</speed>
  <fix>3d</fix>
</trkpt>
<trkpt lat="40.072842" lon="-105.2305751">
  <ele>1586.09</ele>
  <time>2026-08-28T19:08:37Z</time>
  <course>267.45</course>
  <speed>0.0</speed>
  <fix>3d</fix>
</trkpt>
<trkpt lat="40.0728419" lon="-105.2305749">
  <ele>1586.17</ele>
  <time>2026-08-28T19:08:37Z</time>
  <course>7.33</course>
  <speed>0.01414213562373095</speed>
  <fix>3d</fix>
</trkpt>
<trkpt lat="40.072842" lon="-105.2305751">
  <ele>1586.09</ele>
  <time>2026-08-28T19:08:37Z</time>
  <course>267.8</course>
  <speed>0.0</speed>
  <fix>3d</fix>
</trkpt>
<trkpt lat="40.0728419" lon="-105.2305749">
  <ele>1586.17</ele>
  <time>2026-08-28T19:08:37Z</time>
  <course>7.34</course>
  <speed>0.01414213562373095</speed>
  <fix>3d</fix>
</trkpt>
<trkpt lat="40.072842" lon="-105.2305751">
  <ele>1586.09</ele>
  <time>2026-08-28T19:08:37Z</time>
  <course>268.61</course>
  <speed>0.0</speed>
  <fix>3d</fix>
</trkpt>
<trkpt lat="40.0728419" lon="-105.2305749">
  <ele>1586.17</ele>
  <time>2026-08-28T19:08:37Z</time>
  <course>7.35</course>
  <speed>0.01414213562373095</speed>
  <fix>3d</fix>
</trkpt>
<trkpt lat="40.072842" lon="-105.2305751">
  <ele>1586.09</ele>
  <time>2026-08-28T19:08:37Z</time>
  <course>269.57</course>
  <speed>0.0</speed>
  <fix>3d</fix>
</trkpt>
<trkpt lat="40.0728419" lon="-105.2305749">
  <ele>1586.17</ele>
  <time>2026-08-28T19:08:37Z</time>
  <course>7.36</course>
  <speed>0.01414213562373095</speed>
  <fix>3d</fix>
</trkpt>
<trkpt lat="40.072842" lon="-105.2305751">
  <ele>1586.09</ele>
  <time>2026-08-28T19:08:37Z</time>
  <course>268.21</course>
  <speed>0.0</speed>
  <fix>3d</fix>
</trkpt>
<trkpt lat="40.0728419" lon="-105.2305749">
  <ele>1586.17</ele>
  <time>2026-08-28T19:08:37Z</time>
  <course>7.37</course>
  <speed>0.01414213562373095</speed>
  <fix>3d</fix>
</trkpt>
<trkpt lat="40.072842" lon="-105.2305751">
  <ele>1586.09</ele>
  <time>2026-08-28T19:08:37Z</time>
  <course>266.9</course>
  <speed>0.0</speed>
  <fix>3d</fix>
</trkpt>
<trkpt lat="40.0728419" lon="-105.2305749">
  <ele>1586.17</ele>
  <time>2026-08-28T19:08:37Z</time>
  <course>7.39</course>
  <speed>0.01414213562373095</speed>
  <fix>3d</fix>
</trkpt>
<trkpt lat="40.072842" lon="-105.2305751">
  <ele>1586.09</ele>
  <time>2026-08-28T19:08:37Z</time>
  <course>268.57</course>
  <speed>0.0</speed>
  <fix>3d</fix>
</trkpt>
<trkpt lat="40.0728419" lon="-105.2305749">
  <ele>1586.17</ele>
  <time>2026-08-28T19:08:37Z</time>
  <course>7.4</course>
  <speed>0.01414213562373095</speed>
  <fix>3d</fix>
</trkpt>
<trkpt lat="40.072842" lon="-105.2305751">
  <ele>1586.09</ele>
  <time>2026-08-28T19:08:37Z</time>
  <course>269.05</course>
  <speed>0.0</speed>
  <fix>3d</fix>
</trkpt>
<trkpt lat="40.0728419" lon="-105.2305749">
  <ele>1586.17</ele>
  <time>2026-08-28T19:08:37Z</time>
  <course>7.41</course>
  <speed>0.01414213562373095</speed>
  <fix>3d</fix>
</trkpt>
<trkpt lat="40.072842" lon="-105.2305751">
  <ele>1586.09</ele>
  <time>2026-08-28T19:08:37Z</time>
  <course>268.58</course>
  <speed>0.0</speed>
  <fix>3d</fix>
</trkpt>
<trkpt lat="40.0728419" lon="-105.2305749">
  <ele>1586.17</ele>
  <time>2026-08-28T19:08:37Z</time>
  <course>7.43</course>
  <speed>0.01414213562373095</speed>
  <fix>3d</fix>
</trkpt>
<trkpt lat="40.072842" lon="-105.2305751">
  <ele>1586.09</ele>
  <time>2026-08-28T19:08:37Z</time>
  <course>268.87</course>
  <speed>0.0</speed>
  <fix>3d</fix>
</trkpt>
<trkpt lat="40.0728419" lon="-105.2305749">
  <ele>1586.17</ele>
  <time>2026-08-28T19:08:37Z</time>
  <course>7.44</course>
  <speed>0.01414213562373095</speed>
  <fix>3d</fix>
</trkpt>
<trkpt lat="40.072842" lon="-105.2305751">
  <ele>1586.09</ele>
  <time>2026-08-28T19:08:37Z</time>
  <course>268.9</course>
  <speed>0.0</speed>
  <fix>3d</fix>
</trkpt>
<trkpt lat="40.0728419" lon="-105.2305749">
  <ele>1586.17</ele>
  <time>2026-08-28T19:08:37Z</time>
  <course>7.46</course>
  <speed>0.01414213562373095</speed>
  <fix>3d</fix>
</trkpt>
<trkpt lat="40.072842" lon="-105.2305751">
  <ele>1586.09</ele>
  <time>2026-08-28T19:08:37Z</time>
  <course>269.02</course>
  <speed>0.0</speed>
  <fix>3d</fix>
</trkpt>
<trkpt lat="40.0728419" lon="-105.2305749">
  <ele>1586.17</ele>
  <time>2026-08-28T19:08:37Z</time>
  <course>7.48</course>
  <speed>0.01414213562373095</speed>
  <fix>3d</fix>
</trkpt>
<trkpt lat="40.072842" lon="-105.2305751">
  <ele>1586.09</ele>
  <time>2026-08-28T19:08:37Z</time>
  <course>269.13</course>
  <speed>0.0</speed>
  <fix>3d</fix>
</trkpt>
<trkpt lat="40.0728419" lon="-105.2305749">
  <ele>1586.17</ele>
  <time>2026-08-28T19:08:37Z</time>
  <course>7.49</course>
  <speed>0.01414213562373095</speed>
  <fix>3d</fix>
</trkpt>
<trkpt lat="40.072842" lon="-105.2305751">
  <ele>1586.09</ele>
  <time>2026-08-28T19:08:37Z</time>
  <course>272.79</course>
  <speed>0.0</speed>
  <fix>3d</fix>
</trkpt>
<trkpt lat="40.0728419" lon="-105.2305749">
  <ele>1586.17</ele>
  <time>2026-08-28T19:08:37Z</time>
  <course>7.51</course>
  <speed>0.01414213562373095</speed>
  <fix>3d</fix>
</trkpt>
<trkpt lat="40.072842" lon="-105.2305751">
  <ele>1586.09</ele>
  <time>2026-08-28T19:08:37Z</time>
  <course>272.08</course>
  <speed>0.0</speed>
  <fix>3d</fix>
</trkpt>
<trkpt lat="40.0728419" lon="-105.2305749">
  <ele>1586.17</ele>
  <time>2026-08-28T19:08:37Z</time>
  <course>7.53</course>
  <speed>0.01414213562373095</speed>
  <fix>3d</fix>
</trkpt>
<trkpt lat="40.072842" lon="-105.2305751">
  <ele>1586.09</ele>
  <time>2026-08-28T19:08:37Z</time>
  <course>267.97</course>
  <speed>0.0</speed>
  <fix>3d</fix>
</trkpt>
<trkpt lat="40.0728419" lon="-105.2305749">
  <ele>1586.17</ele>
  <time>2026-08-28T19:08:37Z</time>
  <course>7.55</course>
  <speed>0.01414213562373095</speed>
  <fix>3d</fix>
</trkpt>
<trkpt lat="40.072842" lon="-105.2305751">
  <ele>1586.09</ele>
  <time>2026-08-28T19:08:37Z</time>
  <course>270.04</course>
  <speed>0.0</speed>
  <fix>3d</fix>
</trkpt>
<trkpt lat="40.0728419" lon="-105.2305749">
  <ele>1586.17</ele>
  <time>2026-08-28T19:08:37Z</time>
  <course>7.57</course>
  <speed>0.01414213562373095</speed>
  <fix>3d</fix>
</trkpt>
<trkpt lat="40.072842" lon="-105.2305751">
  <ele>1586.09</ele>
  <time>2026-08-28T19:08:37Z</time>
  <course>269.69</course>
  <speed>0.0</speed>
  <fix>3d</fix>
</trkpt>
<trkpt lat="40.0728419" lon="-105.2305749">
  <ele>1586.17</ele>
  <time>2026-08-28T19:08:37Z</time>
  <course>7.59</course>
  <speed>0.01414213562373095</speed>
  <fix>3d</fix>
</trkpt>
<trkpt lat="40.072842" lon="-105.2305751">
  <ele>1586.09</ele>
  <time>2026-08-28T19:08:37Z</time>
  <course>268.37</course>
  <speed>0.0</speed>
  <fix>3d</fix>
</trkpt>
<trkpt lat="40.0728419" lon="-105.2305749">
  <ele>1586.17</ele>
  <time>2026-08-28T19:08:37Z</time>
  <course>7.61</course>
  <speed>0.01414213562373095</speed>
  <fix>3d</fix>
</trkpt>
<trkpt lat="40.072842" lon="-105.2305751">
  <ele>1586.09</ele>
  <time>2026-08-28T19:08:37Z</time>
  <course>269.54</course>
  <speed>0.0</speed>
  <fix>3d</fix>
</trkpt>
<trkpt lat="40.0728419" lon="-105.2305749">
  <ele>1586.17</ele>
  <time>2026-08-28T19:08:37Z</time>
  <course>7.63</course>
  <speed>0.01414213562373095</speed>
  <fix>3d</fix>
</trkpt>
<trkpt lat="40.072842" lon="-105.2305751">
  <ele>1586.09</ele>
  <time>2026-08-28T19:08:37Z</time>
  <course>269.59</course>
  <speed>0.0</speed>
  <fix>3d</fix>
</trkpt>
<trkpt lat="40.0728419" lon="-105.2305749">
  <ele>1586.17</ele>
  <time>2026-08-28T19:08:37Z</time>
  <course>7.66</course>
  <speed>0.01414213562373095</speed>
  <fix>3d</fix>
</trkpt>
<trkpt lat="40.072842" lon="-105.2305751">
  <ele>1586.09</ele>
  <time>2026-08-28T19:08:37Z</time>
  <course>269.17</course>
  <speed>0.0</speed>
  <fix>3d</fix>
</trkpt>
<trkpt lat="40.0728419" lon="-105.2305749">
  <ele>1586.17</ele>
  <time>2026-08-28T19:08:37Z</time>
  <course>7.68</course>
  <speed>0.01414213562373095</speed>
  <fix>3d</fix>
</trkpt>
<trkpt lat="40.072842" lon="-105.2305751">
  <ele>1586.09</ele>
  <time>2026-08-28T19:08:37Z</time>
  <course>269.23</course>
  <speed>0.0</speed>
  <fix>3d</fix>
</trkpt>
<trkpt lat="40.0728419" lon="-105.2305749">
  <ele>1586.17</ele>
  <time>2026-08-28T19:08:37Z</time>
  <course>7.7</course>
  <speed>0.01414213562373095</speed>
  <fix>3d</fix>
</trkpt>
<trkpt lat="40.072842" lon="-105.2305751">
  <ele>1586.09</ele>
  <time>2026-08-28T19:08:37Z</time>
  <course>269.17</course>
  <speed>0.0</speed>
  <fix>3d</fix>
</trkpt>
<trkpt lat="40.0728419" lon="-105.2305749">
  <ele>1586.17</ele>
  <time>2026-08-28T19:08:37Z</time>
  <course>7.73</course>
  <speed>0.01414213562373095</speed>
  <fix>3d</fix>
</trkpt>
<trkpt lat="40.072842" lon="-105.2305751">
  <ele>1586.09</ele>
  <time>2026-08-28T19:08:37Z</time>
  <course>269.44</course>
  <speed>0.0</speed>
  <fix>3d</fix>
</trkpt>
<trkpt lat="40.0728419" lon="-105.2305749">
  <ele>1586.17</ele>
  <time>2026-08-28T19:08:37Z</time>
  <course>7.75</course>
  <speed>0.01414213562373095</speed>
  <fix>3d</fix>
</trkpt>
<trkpt lat="40.072842" lon="-105.2305751">
  <ele>1586.09</ele>
  <time>2026-08-28T19:08:37Z</time>
  <course>269.32</course>
  <speed>0.0</speed>
  <fix>3d</fix>
</trkpt>
<trkpt lat="40.0728419" lon="-105.2305749">
  <ele>1586.17</ele>
  <time>2026-08-28T19:08:37Z</time>
  <course>7.78</course>
  <speed>0.01414213562373095</speed>
  <fix>3d</fix>
</trkpt>
<trkpt lat="40.072842" lon="-105.2305751">
  <ele>1586.09</ele>
  <time>2026-08-28T19:08:37Z</time>
  <course>269.73</course>
  <speed>0.0</speed>
  <fix>3d</fix>
</trkpt>
<trkpt lat="40.0728419" lon="-105.2305749">
  <ele>1586.17</ele>
  <time>2026-08-28T19:08:37Z</time>
  <course>7.8</course>
  <speed>0.01414213562373095</speed>
  <fix>3d</fix>
</trkpt>
<trkpt lat="40.072842" lon="-105.2305751">
  <ele>1586.09</ele>
  <time>2026-08-28T19:08:37Z</time>
  <course>269.55</course>
  <speed>0.0</speed>
  <fix>3d</fix>
</trkpt>
<trkpt lat="40.0728419" lon="-105.2305749">
  <ele>1586.17</ele>
  <time>2026-08-28T19:08:37Z</time>
  <course>7.83</course>
  <speed>0.01414213562373095</speed>
  <fix>3d</fix>
</trkpt>
<trkpt lat="40.072842" lon="-105.2305751">
  <ele>1586.09</ele>
  <time>2026-08-28T19:08:37Z</time>
  <course>269.45</course>
  <speed>0.0</speed>
  <fix>3d</fix>
</trkpt>
<trkpt lat="40.0728419" lon="-105.2305749">
  <ele>1586.17</ele>
  <time>2026-08-28T19:08:37Z</time>
  <course>7.85</course>
  <speed>0.01414213562373095</speed>
  <fix>3d</fix>
</trkpt>
<trkpt lat="40.072842" lon="-105.2305751">
  <ele>1586.09</ele>
  <time>2026-08-28T19:08:37Z</time>
  <course>276.59</course>
  <speed>0.0</speed>
  <fix>3d</fix>
</trkpt>
<trkpt lat="40.0728419" lon="-105.2305749">
  <ele>1586.17</ele>
  <time>2026-08-28T19:08:37Z</time>
  <course>7.88</course>
  <speed>0.01414213562373095</speed>
  <fix>3d</fix>
</trkpt>
<trkpt lat="40.072842" lon="-105.2305751">
  <ele>1586.09</ele>
  <time>2026-08-28T19:08:37Z</time>
  <course>274.76</course>
  <speed>0.0</speed>
  <fix>3d</fix>
</trkpt>
<trkpt lat="40.0728419" lon="-105.2305749">
  <ele>1586.17</ele>
  <time>2026-08-28T19:08:37Z</time>
  <course>7.91</course>
  <speed>0.01414213562373095</speed>
  <fix>3d</fix>
</trkpt>
<trkpt lat="40.072842" lon="-105.2305751">
  <ele>1586.09</ele>
  <time>2026-08-28T19:08:37Z</time>
  <course>268.38</course>
  <speed>0.0</speed>
  <fix>3d</fix>
</trkpt>
<trkpt lat="40.0728419" lon="-105.2305749">
  <ele>1586.17</ele>
  <time>2026-08-28T19:08:37Z</time>
  <course>7.94</course>
  <speed>0.01414213562373095</speed>
  <fix>3d</fix>
</trkpt>
<trkpt lat="40.072842" lon="-105.2305751">
  <ele>1586.09</ele>
  <time>2026-08-28T19:08:37Z</time>
  <course>269.72</course>
  <speed>0.0</speed>
  <fix>3d</fix>
</trkpt>
<trkpt lat="40.0728419" lon="-105.2305749">
  <ele>1586.17</ele>
  <time>2026-08-28T19:08:37Z</time>
  <course>7.96</course>
  <speed>0.01414213562373095</speed>
  <fix>3d</fix>
</trkpt>
<trkpt lat="40.072842" lon="-105.2305751">
  <ele>1586.09</ele>
  <time>2026-08-28T19:08:37Z</time>
  <course>269.85</course>
  <speed>0.0</speed>
  <fix>3d</fix>
</trkpt>
<trkpt lat="40.0728419" lon="-105.2305749">
  <ele>1586.17</ele>
  <time>2026-08-28T19:08:37Z</time>
  <course>7.99</course>
  <speed>0.01414213562373095</speed>
  <fix>3d</fix>
</trkpt>
<trkpt lat="40.072842" lon="-105.2305751">
  <ele>1586.09</ele>
  <time>2026-08-28T19:08:37Z</time>
  <course>265.33</course>
  <speed>0.0</speed>
  <fix>3d</fix>
</trkpt>
<trkpt lat="40.0728419" lon="-105.2305749">
  <ele>1586.17</ele>
  <time>2026-08-28T19:08:37Z</time>
  <course>8.02</course>
  <speed>0.01414213562373095</speed>
  <fix>3d</fix>
</trkpt>
<trkpt lat="40.072842" lon="-105.2305751">
  <ele>1586.09</ele>
  <time>2026-08-28T19:08:37Z</time>
  <course>266.42</course>
  <speed>0.0</speed>
  <fix>3d</fix>
</trkpt>
<trkpt lat="40.0728419" lon="-105.2305749">
  <ele>1586.17</ele>
  <time>2026-08-28T19:08:37Z</time>
  <course>8.05</course>
  <speed>0.01414213562373095</speed>
  <fix>3d</fix>
</trkpt>
<trkpt lat="40.072842" lon="-105.2305751">
  <ele>1586.09</ele>
  <time>2026-08-28T19:08:37Z</time>
  <course>271.69</course>
  <speed>0.0</speed>
  <fix>3d</fix>
</trkpt>
<trkpt lat="40.0728419" lon="-105.2305749">
  <ele>1586.17</ele>
  <time>2026-08-28T19:08:37Z</time>
  <course>8.09</course>
  <speed>0.01414213562373095</speed>
  <fix>3d</fix>
</trkpt>
<trkpt lat="40.072842" lon="-105.2305751">
  <ele>1586.09</ele>
  <time>2026-08-28T19:08:37Z</time>
  <course>270.85</course>
  <speed>0.0</speed>
  <fix>3d</fix>
</trkpt>
<trkpt lat="40.0728419" lon="-105.2305749">
  <ele>1586.17</ele>
  <time>2026-08-28T19:08:37Z</time>
  <course>8.12</course>
  <speed>0.01414213562373095</speed>
  <fix>3d</fix>
</trkpt>
<trkpt lat="40.072842" lon="-105.2305751">
  <ele>1586.09</ele>
  <time>2026-08-28T19:08:37Z</time>
  <course>271.83</course>
  <speed>0.0</speed>
  <fix>3d</fix>
</trkpt>
<trkpt lat="40.0728419" lon="-105.2305749">
  <ele>1586.17</ele>
  <time>2026-08-28T19:08:37Z</time>
  <course>8.15</course>
  <speed>0.01414213562373095</speed>
  <fix>3d</fix>
</trkpt>
<trkpt lat="40.072842" lon="-105.2305751">
  <ele>1586.09</ele>
  <time>2026-08-28T19:08:37Z</time>
  <course>270.51</course>
  <speed>0.0</speed>
  <fix>3d</fix>
</trkpt>
<trkpt lat="40.0728419" lon="-105.2305749">
  <ele>1586.17</ele>
  <time>2026-08-28T19:08:37Z</time>
  <course>8.18</course>
  <speed>0.01414213562373095</speed>
  <fix>3d</fix>
</trkpt>
<trkpt lat="40.072842" lon="-105.2305751">
  <ele>1586.09</ele>
  <time>2026-08-28T19:08:37Z</time>
  <course>270.16</course>
  <speed>0.0</speed>
  <fix>3d</fix>
</trkpt>
<trkpt lat="40.0728419" lon="-105.2305749">
  <ele>1586.17</ele>
  <time>2026-08-28T19:08:37Z</time>
  <course>8.21</course>
  <speed>0.01414213562373095</speed>
  <fix>3d</fix>
</trkpt>
<trkpt lat="40.072842" lon="-105.2305751">
  <ele>1586.09</ele>
  <time>2026-08-28T19:08:37Z</time>
  <course>271.11</course>
  <speed>0.0</speed>
  <fix>3d</fix>
</trkpt>
<trkpt lat="40.0728419" lon="-105.2305749">
  <ele>1586.17</ele>
  <time>2026-08-28T19:08:37Z</time>
  <course>8.24</course>
  <speed>0.01414213562373095</speed>
  <fix>3d</fix>
</trkpt>
<trkpt lat="40.072842" lon="-105.2305751">
  <ele>1586.09</ele>
  <time>2026-08-28T19:08:37Z</time>
  <course>271.3</course>
  <speed>0.0</speed>
  <fix>3d</fix>
</trkpt>
<trkpt lat="40.0728419" lon="-105.2305749">
  <ele>1586.17</ele>
  <time>2026-08-28T19:08:37Z</time>
  <course>8.27</course>
  <speed>0.01414213562373095</speed>
  <fix>3d</fix>
</trkpt>
<trkpt lat="40.072842" lon="-105.2305751">
  <ele>1586.09</ele>
  <time>2026-08-28T19:08:37Z</time>
  <course>270.42</course>
  <speed>0.0</speed>
  <fix>3d</fix>
</trkpt>
<trkpt lat="40.0728419" lon="-105.2305749">
  <ele>1586.18</ele>
  <time>2026-08-28T19:08:37Z</time>
  <course>8.3</course>
  <speed>0.01414213562373095</speed>
  <fix>3d</fix>
</trkpt>
<trkpt lat="40.072842" lon="-105.2305751">
  <ele>1586.09</ele>
  <time>2026-08-28T19:08:37Z</time>
  <course>270.58</course>
  <speed>0.0</speed>
  <fix>3d</fix>
</trkpt>
<trkpt lat="40.0728419" lon="-105.2305749">
  <ele>1586.18</ele>
  <time>2026-08-28T19:08:37Z</time>
  <course>8.34</course>
  <speed>0.01414213562373095</speed>
  <fix>3d</fix>
</trkpt>
<trkpt lat="40.072842" lon="-105.2305751">
  <ele>1586.09</ele>
  <time>2026-08-28T19:08:37Z</time>
  <course>270.69</course>
  <speed>0.0</speed>
  <fix>3d</fix>
</trkpt>
<trkpt lat="40.0728419" lon="-105.2305749">
  <ele>1586.18</ele>
  <time>2026-08-28T19:08:37Z</time>
  <course>8.37</course>
  <speed>0.01414213562373095</speed>
  <fix>3d</fix>
</trkpt>
<trkpt lat="40.072842" lon="-105.2305751">
  <ele>1586.09</ele>
  <time>2026-08-28T19:08:37Z</time>
  <course>270.17</course>
  <speed>0.0</speed>
  <fix>3d</fix>
</trkpt>
<trkpt lat="40.0728419" lon="-105.2305749">
  <ele>1586.18</ele>
  <time>2026-08-28T19:08:37Z</time>
  <course>8.4</course>
  <speed>0.01414213562373095</speed>
  <fix>3d</fix>
</trkpt>
<trkpt lat="40.072842" lon="-105.2305751">
  <ele>1586.09</ele>
  <time>2026-08-28T19:08:37Z</time>
  <course>271.01</course>
  <speed>0.0</speed>
  <fix>3d</fix>
</trkpt>
<trkpt lat="40.0728419" lon="-105.2305749">
  <ele>1586.18</ele>
  <time>2026-08-28T19:08:37Z</time>
  <course>8.44</course>
  <speed>0.01414213562373095</speed>
  <fix>3d</fix>
</trkpt>
<trkpt lat="40.072842" lon="-105.2305751">
  <ele>1586.09</ele>
  <time>2026-08-28T19:08:37Z</time>
  <course>274.96</course>
  <speed>0.0</speed>
  <fix>3d</fix>
</trkpt>
<trkpt lat="40.0728419" lon="-105.2305749">
  <ele>1586.18</ele>
  <time>2026-08-28T19:08:37Z</time>
  <course>8.47</course>
  <speed>0.01414213562373095</speed>
  <fix>3d</fix>
</trkpt>
<trkpt lat="40.072842" lon="-105.2305751">
  <ele>1586.09</ele>
  <time>2026-08-28T19:08:37Z</time>
  <course>274.27</course>
  <speed>0.0</speed>
  <fix>3d</fix>
</trkpt>
<trkpt lat="40.0728419" lon="-105.2305749">
  <ele>1586.17</ele>
  <time>2026-08-28T19:08:37Z</time>
  <course>8.51</course>
  <speed>0.01414213562373095</speed>
  <fix>3d</fix>
</trkpt>
<trkpt lat="40.072842" lon="-105.2305751">
  <ele>1586.09</ele>
  <time>2026-08-28T19:08:37Z</time>
  <course>270.68</course>
  <speed>0.0</speed>
  <fix>3d</fix>
</trkpt>
<trkpt lat="40.0728419" lon="-105.2305749">
  <ele>1586.17</ele>
  <time>2026-08-28T19:08:37Z</time>
  <course>8.54</course>
  <speed>0.01414213562373095</speed>
  <fix>3d</fix>
</trkpt>
<trkpt lat="40.072842" lon="-105.2305751">
  <ele>1586.09</ele>
  <time>2026-08-28T19:08:37Z</time>
  <course>271.93</course>
  <speed>0.0</speed>
  <fix>3d</fix>
</trkpt>
<trkpt lat="40.0728419" lon="-105.2305749">
  <ele>1586.18</ele>
  <time>2026-08-28T19:08:37Z</time>
  <course>8.57</course>
  <speed>0.01414213562373095</speed>
  <fix>3d</fix>
</trkpt>
<trkpt lat="40.072842" lon="-105.2305751">
  <ele>1586.09</ele>
  <time>2026-08-28T19:08:37Z</time>
  <course>271.99</course>
  <speed>0.0</speed>
  <fix>3d</fix>
</trkpt>
<trkpt lat="40.0728419" lon="-105.2305749">
  <ele>1586.18</ele>
  <time>2026-08-28T19:08:37Z</time>
  <course>8.61</course>
  <speed>0.01414213562373095</speed>
  <fix>3d</fix>
</trkpt>
<trkpt lat="40.072842" lon="-105.2305751">
  <ele>1586.09</ele>
  <time>2026-08-28T19:08:37Z</time>
  <course>272.11</course>
  <speed>0.0</speed>
  <fix>3d</fix>
</trkpt>
<trkpt lat="40.0728419" lon="-105.2305749">
  <ele>1586.18</ele>
  <time>2026-08-28T19:08:37Z</time>
  <course>8.64</course>
  <speed>0.01414213562373095</speed>
  <fix>3d</fix>
</trkpt>
<trkpt lat="40.072842" lon="-105.2305751">
  <ele>1586.09</ele>
  <time>2026-08-28T19:08:37Z</time>
  <course>271.06</course>
  <speed>0.0</speed>
  <fix>3d</fix>
</trkpt>
<trkpt lat="40.0728419" lon="-105.2305749">
  <ele>1586.18</ele>
  <time>2026-08-28T19:08:37Z</time>
  <course>8.68</course>
  <speed>0.01414213562373095</speed>
  <fix>3d</fix>
</trkpt>
<trkpt lat="40.072842" lon="-105.2305751">
  <ele>1586.09</ele>
  <time>2026-08-28T19:08:37Z</time>
  <course>270.78</course>
  <speed>0.0</speed>
  <fix>3d</fix>
</trkpt>
<trkpt lat="40.0728419" lon="-105.2305749">
  <ele>1586.18</ele>
  <time>2026-08-28T19:08:37Z</time>
  <course>8.72</course>
  <speed>0.01414213562373095</speed>
  <fix>3d</fix>
</trkpt>
<trkpt lat="40.072842" lon="-105.2305751">
  <ele>1586.09</ele>
  <time>2026-08-28T19:08:37Z</time>
  <course>271.89</course>
  <speed>0.0</speed>
  <fix>3d</fix>
</trkpt>
<trkpt lat="40.0728419" lon="-105.2305749">
  <ele>1586.18</ele>
  <time>2026-08-28T19:08:37Z</time>
  <course>8.75</course>
  <speed>0.01414213562373095</speed>
  <fix>3d</fix>
</trkpt>
<trkpt lat="40.072842" lon="-105.2305751">
  <ele>1586.09</ele>
  <time>2026-08-28T19:08:37Z</time>
  <course>272.51</course>
  <speed>0.0</speed>
  <fix>3d</fix>
</trkpt>
<trkpt lat="40.0728419" lon="-105.2305749">
  <ele>1586.18</ele>
  <time>2026-08-28T19:08:37Z</time>
  <course>8.79</course>
  <speed>0.01414213562373095</speed>
  <fix>3d</fix>
</trkpt>
<trkpt lat="40.072842" lon="-105.2305751">
  <ele>1586.09</ele>
  <time>2026-08-28T19:08:37Z</time>
  <course>272.4</course>
  <speed>0.0</speed>
  <fix>3d</fix>
</trkpt>
<trkpt lat="40.0728419" lon="-105.2305749">
  <ele>1586.17</ele>
  <time>2026-08-28T19:08:37Z</time>
  <course>8.82</course>
  <speed>0.01414213562373095</speed>
  <fix>3d</fix>
</trkpt>
<trkpt lat="40.072842" lon="-105.2305751">
  <ele>1586.09</ele>
  <time>2026-08-28T19:08:37Z</time>
  <course>272.07</course>
  <speed>0.0</speed>
  <fix>3d</fix>
</trkpt>
<trkpt lat="40.0728419" lon="-105.2305749">
  <ele>1586.17</ele>
  <time>2026-08-28T19:08:37Z</time>
  <course>8.86</course>
  <speed>0.01414213562373095</speed>
  <fix>3d</fix>
</trkpt>
<trkpt lat="40.072842" lon="-105.2305751">
  <ele>1586.09</ele>
  <time>2026-08-28T19:08:37Z</time>
  <course>273.54</course>
  <speed>0.0</speed>
  <fix>3d</fix>
</trkpt>
<trkpt lat="40.0728419" lon="-105.2305749">
  <ele>1586.21</ele>
  <time>2026-08-28T19:08:37Z</time>
  <course>8.88</course>
  <speed>0.01414213562373095</speed>
  <fix>3d</fix>
</trkpt>
<trkpt lat="40.072842" lon="-105.2305751">
  <ele>1586.09</ele>
  <time>2026-08-28T19:08:37Z</time>
  <course>270.65</course>
  <speed>0.0</speed>
  <fix>3d</fix>
</trkpt>
<trkpt lat="40.0728419" lon="-105.2305749">
  <ele>1586.3</ele>
  <time>2026-08-28T19:08:37Z</time>
  <course>8.86</course>
  <speed>0.01414213562373095</speed>
  <fix>3d</fix>
</trkpt>
<trkpt lat="40.072842" lon="-105.2305751">
  <ele>1586.14</ele>
  <time>2026-08-28T19:08:37Z</time>
  <course>288.75</course>
  <speed>0.0</speed>
  <fix>3d</fix>
</trkpt>
<trkpt lat="40.0728419" lon="-105.230575">
  <ele>1586.4</ele>
  <time>2026-08-28T19:08:37Z</time>
  <course>7.12</course>
  <speed>0.07071067811865475</speed>
  <fix>3d</fix>
</trkpt>
<trkpt lat="40.072842" lon="-105.2305751">
  <ele>1586.22</ele>
  <time>2026-08-28T19:08:37Z</time>
  <course>278.92</course>
  <speed>0.01</speed>
  <fix>3d</fix>
</trkpt>
<trkpt lat="40.072842" lon="-105.2305754">
  <ele>1586.72</ele>
  <time>2026-08-28T19:08:37Z</time>
  <course>6.07</course>
  <speed>0.25632011235952595</speed>
  <fix>3d</fix>
</trkpt>
<trkpt lat="40.072842" lon="-105.2305753">
  <ele>1586.38</ele>
  <time>2026-08-28T19:08:37Z</time>
  <course>281.51</course>
  <speed>0.12</speed>
  <fix>3d</fix>
</trkpt>
<trkpt lat="40.072842" lon="-105.2305755">
  <ele>1586.78</ele>
  <time>2026-08-28T19:08:37Z</time>
  <course>6.01</course>
  <speed>0.2879236009777594</speed>
  <fix>3d</fix>
</trkpt>
<trkpt lat="40.0728422" lon="-105.2305762">
  <ele>1587.12</ele>
  <time>2026-08-28T19:08:37Z</time>
  <course>5.82</course>
  <speed>0.39</speed>
  <fix>3d</fix>
</trkpt>
<trkpt lat="40.072842" lon="-105.2305758">
  <ele>1586.69</ele>
  <time>2026-08-28T19:08:37Z</time>
  <course>283.02</course>
  <speed>0.3</speed>
  <fix>3d</fix>
</trkpt>
<trkpt lat="40.0728422" lon="-105.2305763">
  <ele>1587.18</ele>
  <time>2026-08-28T19:08:37Z</time>
  <course>5.81</course>
  <speed>0.41231056256176607</speed>
  <fix>3d</fix>
</trkpt>
<trkpt lat="40.0728425" lon="-105.2305772">
  <ele>1587.52</ele>
  <time>2026-08-28T19:08:38Z</time>
  <course>5.79</course>
  <speed>0.4884669896727925</speed>
  <fix>3d</fix>
</trkpt>
<trkpt lat="40.0728421" lon="-105.2305767">
  <ele>1587.08</ele>
  <time>2026-08-28T19:08:38Z</time>
  <course>284.28</course>
  <speed>0.43</speed>
  <fix>3d</fix>
</trkpt>
<trkpt lat="40.0728425" lon="-105.2305774">
  <ele>1587.59</ele>
  <time>2026-08-28T19:08:38Z</time>
  <course>5.79</course>
  <speed>0.5015974481593781</speed>
  <fix>3d</fix>
</trkpt>
<trkpt lat="40.0728428" lon="-105.2305784">
  <ele>1587.94</ele>
  <time>2026-08-28T19:08:38Z</time>
  <course>5.85</course>
  <speed>0.5646237685397242</speed>
  <fix>3d</fix>
</trkpt>
<trkpt lat="40.0728424" lon="-105.2305777">
  <ele>1587.48</ele>
  <time>2026-08-28T19:08:38Z</time>
  <course>285.19</course>
  <speed>0.53</speed>
  <fix>3d</fix>
</trkpt>
<trkpt lat="40.0728428" lon="-105.2305785">
  <ele>1587.96</ele>
  <time>2026-08-28T19:08:38Z</time>
  <course>5.85</course>
  <speed>0.56859475903318</speed>
  <fix>3d</fix>
</trkpt>
<trkpt lat="40.0728431" lon="-105.2305798">
  <ele>1588.37</ele>
  <time>2026-08-28T19:08:38Z</time>
  <course>5.95</course>
  <speed>0.6132699242584786</speed>
  <fix>3d</fix>
</trkpt>
<trkpt lat="40.0728427" lon="-105.230579">
  <ele>1587.89</ele>
  <time>2026-08-28T19:08:38Z</time>
  <course>285.93</course>
  <speed>0.6</speed>
  <fix>3d</fix>
</trkpt>
<trkpt lat="40.0728432" lon="-105.23058">
  <ele>1588.44</ele>
  <time>2026-08-28T19:08:38Z</time>
  <course>5.96</course>
  <speed>0.6224146527838174</speed>
  <fix>3d</fix>
</trkpt>
<trkpt lat="40.0728435" lon="-105.2305812">
  <ele>1588.82</ele>
  <time>2026-08-28T19:08:38Z</time>
  <course>6.07</course>
  <speed>0.6539113089708727</speed>
  <fix>3d</fix>
</trkpt>
<trkpt lat="40.072843" lon="-105.2305804">
  <ele>1588.31</ele>
  <time>2026-08-28T19:08:38Z</time>
  <course>286.78</course>
  <speed>0.65</speed>
  <fix>3d</fix>
</trkpt>
<trkpt lat="40.0728436" lon="-105.2305816">
  <ele>1588.91</ele>
  <time>2026-08-28T19:08:38Z</time>
  <course>4.83</course>
  <speed>0.6579513659838392</speed>
  <fix>3d</fix>
</trkpt>
<trkpt lat="40.0728439" lon="-105.2305828">
  <ele>1589.27</ele>
  <time>2026-08-28T19:08:38Z</time>
  <course>4.92</course>
  <speed>0.680294054067798</speed>
  <fix>3d</fix>
</trkpt>
<trkpt lat="40.0728433" lon="-105.2305819">
  <ele>1588.75</ele>
  <time>2026-08-28T19:08:38Z</time>
  <course>287.72</course>
  <speed>0.69</speed>
  <fix>3d</fix>
</trkpt>
<trkpt lat="40.072844" lon="-105.230583">
  <ele>1589.35</ele>
  <time>2026-08-28T19:08:38Z</time>
  <course>4.91</course>
  <speed>0.6894200461257273</speed>
  <fix>3d</fix>
</trkpt>
<trkpt lat="40.0728443" lon="-105.2305844">
  <ele>1589.73</ele>
  <time>2026-08-28T19:08:38Z</time>
  <course>4.95</course>
  <speed>0.7117583859709699</speed>
  <fix>3d</fix>
</trkpt>
<trkpt lat="40.0728438" lon="-105.2305835">
  <ele>1589.19</ele>
  <time>2026-08-28T19:08:38Z</time>
  <course>288.63</course>
  <speed>0.72</speed>
  <fix>3d</fix>
</trkpt>
<trkpt lat="40.0728444" lon="-105.2305846">
  <ele>1589.79</ele>
  <time>2026-08-28T19:08:38Z</time>
  <course>4.96</course>
  <speed>0.7117583859709699</speed>
  <fix>3d</fix>
</trkpt>
<trkpt lat="40.0728448" lon="-105.230586">
  <ele>1590.19</ele>
  <time>2026-08-28T19:08:38Z</time>
  <course>5.04</course>
  <speed>0.7209022125087423</speed>
  <fix>3d</fix>
</trkpt>
<trkpt lat="40.0728442" lon="-105.2305851">
  <ele>1589.63</ele>
  <time>2026-08-28T19:08:38Z</time>
  <course>289.49</course>
  <speed>0.75</speed>
  <fix>3d</fix>
</trkpt>
<trkpt lat="40.0728448" lon="-105.230586">
  <ele>1590.19</ele>
  <time>2026-08-28T19:08:38Z</time>
  <course>5.04</course>
  <speed>0.7300684899377592</speed>
  <fix>3d</fix>
</trkpt>
<trkpt lat="40.0728452" lon="-105.2305877">
  <ele>1590.64</ele>
  <time>2026-08-28T19:08:38Z</time>
  <course>5.14</course>
  <speed>0.7392563831310488</speed>
  <fix>3d</fix>
</trkpt>
<trkpt lat="40.0728446" lon="-105.2305868">
  <ele>1590.07</ele>
  <time>2026-08-28T19:08:38Z</time>
  <course>290.31</course>
  <speed>0.77</speed>
  <fix>3d</fix>
</trkpt>
<trkpt lat="40.0728453" lon="-105.230588">
  <ele>1590.71</ele>
  <time>2026-08-28T19:08:38Z</time>
  <course>5.16</course>
  <speed>0.7392563831310488</speed>
  <fix>3d</fix>
</trkpt>
<trkpt lat="40.0728457" lon="-105.2305894">
  <ele>1591.09</ele>
  <time>2026-08-28T19:08:38Z</time>
  <course>5.31</course>
  <speed>0.7484650960465692</speed>
  <fix>3d</fix>
</trkpt>
<trkpt lat="40.0728451" lon="-105.2305885">
  <ele>1590.52</ele>
  <time>2026-08-28T19:08:38Z</time>
  <course>291.13</course>
  <speed>0.78</speed>
  <fix>3d</fix>
</trkpt>
<trkpt lat="40.0728458" lon="-105.2305897">
  <ele>1591.16</ele>
  <time>2026-08-28T19:08:38Z</time>
  <course>5.34</course>
  <speed>0.7576938695805846</speed>
  <fix>3d</fix>
</trkpt>
<trkpt lat="40.0728462" lon="-105.2305912">
  <ele>1591.54</ele>
  <time>2026-08-28T19:08:38Z</time>
  <course>5.51</course>
  <speed>0.7707788269017254</speed>
  <fix>3d</fix>
</trkpt>
<trkpt lat="40.0728457" lon="-105.2305902">
  <ele>1590.96</ele>
  <time>2026-08-28T19:08:38Z</time>
  <course>291.94</course>
  <speed>0.8</speed>
  <fix>3d</fix>
</trkpt>
<trkpt lat="40.0728462" lon="-105.2305915">
  <ele>1591.62</ele>
  <time>2026-08-28T19:08:38Z</time>
  <course>5.54</course>
  <speed>0.7707788269017254</speed>
  <fix>3d</fix>
</trkpt>
<trkpt lat="40.0728467" lon="-105.2305929">
  <ele>1591.99</ele>
  <time>2026-08-28T19:08:38Z</time>
  <course>5.7</course>
  <speed>0.78</speed>
  <fix>3d</fix>
</trkpt>
<trkpt lat="40.0728462" lon="-105.2305921">
  <ele>1591.41</ele>
  <time>2026-08-28T19:08:38Z</time>
  <course>292.77</course>
  <speed>0.81</speed>
  <fix>3d</fix>
</trkpt>
<trkpt lat="40.0728468" lon="-105.2305932">
  <ele>1592.07</ele>
  <time>2026-08-28T19:08:38Z</time>
  <course>5.72</course>
  <speed>0.78</speed>
  <fix>3d</fix>
</trkpt>
<trkpt lat="40.0728472" lon="-105.2305947">
  <ele>1592.44</ele>
  <time>2026-08-28T19:08:38Z</time>
  <course>5.85</course>
  <speed>0.78</speed>
  <fix>3d</fix>
</trkpt>
<trkpt lat="40.0728467" lon="-105.2305938">
  <ele>1591.86</ele>
  <time>2026-08-28T19:08:38Z</time>
  <course>293.58</course>
  <speed>0.82</speed>
  <fix>3d</fix>
</trkpt>
<trkpt lat="40.0728472" lon="-105.2305948">
  <ele>1592.45</ele>
  <time>2026-08-28T19:08:38Z</time>
  <course>5.85</course>
  <speed>0.78</speed>
  <fix>3d</fix>
</trkpt>
<trkpt lat="40.0728478" lon="-105.2305965">
  <ele>1592.89</ele>
  <time>2026-08-28T19:08:38Z</time>
  <course>5.95</course>
  <speed>0.7930952023559341</speed>
  <fix>3d</fix>
</trkpt>
<trkpt lat="40.0728474" lon="-105.2305955">
  <ele>1592.31</ele>
  <time>2026-08-28T19:08:38Z</time>
  <course>294.36</course>
  <speed>0.82</speed>
  <fix>3d</fix>
</trkpt>
<trkpt lat="40.0728479" lon="-105.2305968">
  <ele>1592.96</ele>
  <time>2026-08-28T19:08:38Z</time>
  <course>5.97</course>
  <speed>0.7930952023559341</speed>
  <fix>3d</fix>
</trkpt>
<trkpt lat="40.0728484" lon="-105.2305983">
  <ele>1593.34</ele>
  <time>2026-08-28T19:08:38Z</time>
  <course>6.04</course>
  <speed>0.7930952023559341</speed>
  <fix>3d</fix>
</trkpt>
<trkpt lat="40.072848" lon="-105.2305973">
  <ele>1592.76</ele>
  <time>2026-08-28T19:08:38Z</time>
  <course>295.06</course>
  <speed>0.82</speed>
  <fix>3d</fix>
</trkpt>
<trkpt lat="40.0728485" lon="-105.2305986">
  <ele>1593.41</ele>
  <time>2026-08-28T19:08:38Z</time>
  <course>6.05</course>
  <speed>0.8023091673413684</speed>
  <fix>3d</fix>
</trkpt>
<trkpt lat="40.072849" lon="-105.2306001">
  <ele>1593.79</ele>
  <time>2026-08-28T19:08:38Z</time>
  <course>6.12</course>
  <speed>0.8023091673413684</speed>
  <fix>3d</fix>
</trkpt>
<trkpt lat="40.0728486" lon="-105.2305991">
  <ele>1593.21</ele>
  <time>2026-08-28T19:08:38Z</time>
  <course>295.67</course>
  <speed>0.83</speed>
  <fix>3d</fix>
</trkpt>
<trkpt lat="40.0728491" lon="-105.2306004">
  <ele>1593.87</ele>
  <time>2026-08-28T19:08:38Z</time>
  <course>6.12</course>
  <speed>0.8062257748298549</speed>
  <fix>3d</fix>
</trkpt>
<trkpt lat="40.0728496" lon="-105.2306019">
  <ele>1594.25</ele>
  <time>2026-08-28T19:08:38Z</time>
  <course>6.19</course>
  <speed>0.8062257748298549</speed>
  <fix>3d</fix>
</trkpt>
<trkpt lat="40.0728493" lon="-105.2306009">
  <ele>1593.66</ele>
  <time>2026-08-28T19:08:38Z</time>
  <course>296.21</course>
  <speed>0.82</speed>
  <fix>3d</fix>
</trkpt>
<trkpt lat="40.0728497" lon="-105.2306022">
  <ele>1594.32</ele>
  <time>2026-08-28T19:08:38Z</time>
  <course>6.2</course>
  <speed>0.8062257748298549</speed>
  <fix>3d</fix>
</trkpt>
<trkpt lat="40.0728503" lon="-105.2306037">
  <ele>1594.71</ele>
  <time>2026-08-28T19:08:38Z</time>
  <course>6.24</course>
  <speed>0.8062257748298549</speed>
  <fix>3d</fix>
</trkpt>
<trkpt lat="40.07285" lon="-105.2306026">
  <ele>1594.12</ele>
  <time>2026-08-28T19:08:38Z</time>
  <course>296.71</course>
  <speed>0.82</speed>
  <fix>3d</fix>
</trkpt>
<trkpt lat="40.0728504" lon="-105.230604">
  <ele>1594.78</ele>
  <time>2026-08-28T19:08:38Z</time>
  <course>6.25</course>
  <speed>0.8062257748298549</speed>
  <fix>3d</fix>
</trkpt>
<trkpt lat="40.072851" lon="-105.2306054">
  <ele>1595.16</ele>
  <time>2026-08-28T19:08:38Z</time>
  <course>6.3</course>
  <speed>0.8011242100947892</speed>
  <fix>3d</fix>
</trkpt>
<trkpt lat="40.0728506" lon="-105.2306043">
  <ele>1594.57</ele>
  <time>2026-08-28T19:08:38Z</time>
  <course>297.17</course>
  <speed>0.82</speed>
  <fix>3d</fix>
</trkpt>
<trkpt lat="40.072851" lon="-105.2306055">
  <ele>1595.17</ele>
  <time>2026-08-28T19:08:38Z</time>
  <course>6.3</course>
  <speed>0.8011242100947892</speed>
  <fix>3d</fix>
</trkpt>
<trkpt lat="40.0728516" lon="-105.2306072">
  <ele>1595.57</ele>
  <time>2026-08-28T19:08:38Z</time>
  <course>7.73</course>
  <speed>0.8102468759581859</speed>
  <fix>3d</fix>
</trkpt>
<trkpt lat="40.0728513" lon="-105.230606">
  <ele>1595.02</ele>
  <time>2026-08-28T19:08:38Z</time>
  <course>297.35</course>
  <speed>0.82</speed>
  <fix>3d</fix>
</trkpt>
<trkpt lat="40.0728523" lon="-105.2306089">
  <ele>1595.83</ele>
  <time>2026-08-28T19:08:38Z</time>
  <course>9.35</course>
  <speed>0.8011242100947892</speed>
  <fix>3d</fix>
</trkpt>
<trkpt lat="40.072852" lon="-105.2306077">
  <ele>1595.4</ele>
  <time>2026-08-28T19:08:38Z</time>
  <course>297.43</course>
  <speed>0.81</speed>
  <fix>3d</fix>
</trkpt>
<trkpt lat="40.072853" lon="-105.2306106">
  <ele>1595.99</ele>
  <time>2026-08-28T19:08:38Z</time>
  <course>9.91</course>
  <speed>0.7738862965578341</speed>
  <fix>3d</fix>
</trkpt>
<trkpt lat="40.0728527" lon="-105.2306094">
  <ele>1595.65</ele>
  <time>2026-08-28T19:08:38Z</time>
  <course>298.1</course>
  <speed>0.8</speed>
  <fix>3d</fix>
</trkpt>
<trkpt lat="40.0728537" lon="-105.2306122">
  <ele>1596.09</ele>
  <time>2026-08-28T19:08:38Z</time>
  <course>9.96</course>
  <speed>0.7379024325749306</speed>
  <fix>3d</fix>
</trkpt>
<trkpt lat="40.0728534" lon="-105.2306111">
  <ele>1595.81</ele>
  <time>2026-08-28T19:08:38Z</time>
  <course>299.38</course>
  <speed>0.77</speed>
  <fix>3d</fix>
</trkpt>
<trkpt lat="40.0728543" lon="-105.2306137">
  <ele>1596.17</ele>
  <time>2026-08-28T19:08:38Z</time>
  <course>9.7</course>
  <speed>0.6977105417004964</speed>
  <fix>3d</fix>
</trkpt>
<trkpt lat="40.072854" lon="-105.2306126">
  <ele>1595.9</ele>
  <time>2026-08-28T19:08:38Z</time>
  <course>301.01</course>
  <speed>0.74</speed>
  <fix>3d</fix>
</trkpt>
<trkpt lat="40.072855" lon="-105.230615">
  <ele>1596.24</ele>
  <time>2026-08-28T19:08:38Z</time>
  <course>9.54</course>
  <speed>0.6306346010171024</speed>
  <fix>3d</fix>
</trkpt>
<trkpt lat="40.0728547" lon="-105.2306141">
  <ele>1595.99</ele>
  <time>2026-08-28T19:08:38Z</time>
  <course>302.66</course>
  <speed>0.69</speed>
  <fix>3d</fix>
</trkpt>
<trkpt lat="40.0728556" lon="-105.2306162">
  <ele>1596.32</ele>
  <time>2026-08-28T19:08:38Z</time>
  <course>9.4</course>
  <speed>0.5412023651093923</speed>
  <fix>3d</fix>
</trkpt>
<trkpt lat="40.0728554" lon="-105.2306154">
  <ele>1596.07</ele>
  <time>2026-08-28T19:08:38Z</time>
  <course>304.13</course>
  <speed>0.63</speed>
  <fix>3d</fix>
</trkpt>
<trkpt lat="40.0728561" lon="-105.2306172">
  <ele>1596.4</ele>
  <time>2026-08-28T19:08:38Z</time>
  <course>9.19</course>
  <speed>0.447213595499958</speed>
  <fix>3d</fix>
</trkpt>
<trkpt lat="40.072856" lon="-105.2306165">
  <ele>1596.15</ele>
  <time>2026-08-28T19:08:38Z</time>
  <course>305.92</course>
  <speed>0.54</speed>
  <fix>3d</fix>
</trkpt>
<trkpt lat="40.0728565" lon="-105.230618">
  <ele>1596.49</ele>
  <time>2026-08-28T19:08:38Z</time>
  <course>8.93</course>
  <speed>0.34438350715445126</speed>
  <fix>3d</fix>
</trkpt>
<trkpt lat="40.0728565" lon="-105.2306174">
  <ele>1596.24</ele>
  <time>2026-08-28T19:08:38Z</time>
  <course>308.6</course>
  <speed>0.44</speed>
  <fix>3d</fix>
</trkpt>
<trkpt lat="40.0728569" lon="-105.2306186">
  <ele>1596.6</ele>
  <time>2026-08-28T19:08:38Z</time>
  <course>8.66</course>
  <speed>0.25495097567963926</speed>
  <fix>3d</fix>
</trkpt>
<trkpt lat="40.072857" lon="-105.230618">
  <ele>1596.34</ele>
  <time>2026-08-28T19:08:38Z</time>
  <course>312.52</course>
  <speed>0.35</speed>
  <fix>3d</fix>
</trkpt>
<trkpt lat="40.0728572" lon="-105.230619">
  <ele>1596.73</ele>
  <time>2026-08-28T19:08:38Z</time>
  <course>8.44</course>
  <speed>0.17464249196572978</speed>
  <fix>3d</fix>
</trkpt>
<trkpt lat="40.0728574" lon="-105.2306186">
  <ele>1596.46</ele>
  <time>2026-08-28T19:08:38Z</time>
  <course>317.81</course>
  <speed>0.26</speed>
  <fix>3d</fix>
</trkpt>
<trkpt lat="40.0728575" lon="-105.2306192">
  <ele>1596.88</ele>
  <time>2026-08-28T19:08:38Z</time>
  <course>8.28</course>
  <speed>0.1044030650891055</speed>
  <fix>3d</fix>
</trkpt>
<trkpt lat="40.0728577" lon="-105.2306189">
  <ele>1596.59</ele>
  <time>2026-08-28T19:08:38Z</time>
  <course>324.61</course>
  <speed>0.18</speed>
  <fix>3d</fix>
</trkpt>
<trkpt lat="40.0728576" lon="-105.2306193">
  <ele>1597.04</ele>
  <time>2026-08-28T19:08:38Z</time>
  <course>8.26</course>
  <speed>0.06</speed>
  <fix>3d</fix>
</trkpt>
<trkpt lat="40.0728579" lon="-105.2306191">
  <ele>1596.74</ele>
  <time>2026-08-28T19:08:38Z</time>
  <course>333.79</course>
  <speed>0.11</speed>
  <fix>3d</fix>
</trkpt>
<trkpt lat="40.0728577" lon="-105.2306193">
  <ele>1597.21</ele>
  <time>2026-08-28T19:08:38Z</time>
  <course>8.32</course>
  <speed>0.044721359549995794</speed>
  <fix>3d</fix>
</trkpt>
<trkpt lat="40.0728581" lon="-105.2306192">
  <ele>1596.9</ele>
  <time>2026-08-28T19:08:38Z</time>
  <course>350.84</course>
  <speed>0.06</speed>
  <fix>3d</fix>
</trkpt>
<trkpt lat="40.0728578" lon="-105.2306193">
  <ele>1597.39</ele>
  <time>2026-08-28T19:08:38Z</time>
  <course>8.45</course>
  <speed>0.07</speed>
  <fix>3d</fix>
</trkpt>
<trkpt lat="40.0728582" lon="-105.2306192">
  <ele>1597.08</ele>
  <time>2026-08-28T19:08:38Z</time>
  <course>55.39</course>
  <speed>0.02</speed>
  <fix>3d</fix>
</trkpt>
<trkpt lat="40.0728578" lon="-105.2306192">
  <ele>1597.56</ele>
  <time>2026-08-28T19:08:38Z</time>
  <course>8.6</course>
  <speed>0.1019803902718557</speed>
  <fix>3d</fix>
</trkpt>
<trkpt lat="40.0728582" lon="-105.2306191">
  <ele>1597.26</ele>
  <time>2026-08-28T19:08:38Z</time>
  <course>120.64</course>
  <speed>0.05</speed>
  <fix>3d</fix>
</trkpt>
<trkpt lat="40.0728577" lon="-105.2306191">
  <ele>1597.72</ele>
  <time>2026-08-28T19:08:38Z</time>
  <course>8.75</course>
  <speed>0.13341664064126335</speed>
  <fix>3d</fix>
</trkpt>
<trkpt lat="40.0728581" lon="-105.230619">
  <ele>1597.43</ele>
  <time>2026-08-28T19:08:38Z</time>
  <course>136.38</course>
  <speed>0.08</speed>
  <fix>3d</fix>
</trkpt>
<trkpt lat="40.0728576" lon="-105.2306189">
  <ele>1597.88</ele>
  <time>2026-08-28T19:08:38Z</time>
  <course>8.9</course>
  <speed>0.15811388300841897</speed>
  <fix>3d</fix>
</trkpt>
<trkpt lat="40.072858" lon="-105.2306189">
  <ele>1597.6</ele>
  <time>2026-08-28T19:08:38Z</time>
  <course>143.23</course>
  <speed>0.12</speed>
  <fix>3d</fix>
</trkpt>
<trkpt lat="40.0728574" lon="-105.2306187">
  <ele>1598.04</ele>
  <time>2026-08-28T19:08:38Z</time>
  <course>9.11</course>
  <speed>0.19313207915827968</speed>
  <fix>3d</fix>
</trkpt>
<trkpt lat="40.0728578" lon="-105.2306188">
  <ele>1597.76</ele>
  <time>2026-08-28T19:08:38Z</time>
  <course>146.22</course>
  <speed>0.15</speed>
  <fix>3d</fix>
</trkpt>
<trkpt lat="40.0728571" lon="-105.2306184">
  <ele>1598.18</ele>
  <time>2026-08-28T19:08:38Z</time>
  <course>9.38</course>
  <speed>0.25553864678361277</speed>
  <fix>3d</fix>
</trkpt>
<trkpt lat="40.0728575" lon="-105.2306185">
  <ele>1597.91</ele>
  <time>2026-08-28T19:08:38Z</time>
  <course>145.0</course>
  <speed>0.19</speed>
  <fix>3d</fix>
</trkpt>
<trkpt lat="40.0728567" lon="-105.2306179">
  <ele>1598.29</ele>
  <time>2026-08-28T19:08:38Z</time>
  <course>9.68</course>
  <speed>0.3420526275297414</speed>
  <fix>3d</fix>
</trkpt>
<trkpt lat="40.0728572" lon="-105.2306182">
  <ele>1598.05</ele>
  <time>2026-08-28T19:08:38Z</time>
  <course>140.2</course>
  <speed>0.26</speed>
  <fix>3d</fix>
</trkpt>
<trkpt lat="40.0728562" lon="-105.2306172">
  <ele>1598.37</ele>
  <time>2026-08-28T19:08:38Z</time>
  <course>9.9</course>
  <speed>0.4738143096192854</speed>
  <fix>3d</fix>
</trkpt>
<trkpt lat="40.0728568" lon="-105.2306177">
  <ele>1598.15</ele>
  <time>2026-08-28T19:08:38Z</time>
  <course>133.98</course>
  <speed>0.36</speed>
  <fix>3d</fix>
</trkpt>
<trkpt lat="40.0728556" lon="-105.2306162">
  <ele>1598.42</ele>
  <time>2026-08-28T19:08:38Z</time>
  <course>10.09</course>
  <speed>0.6341135544995076</speed>
  <fix>3d</fix>
</trkpt>
<trkpt lat="40.0728563" lon="-105.2306169">
  <ele>1598.24</ele>
  <time>2026-08-28T19:08:38Z</time>
  <course>128.19</course>
  <speed>0.49</speed>
  <fix>3d</fix>
</trkpt>
<trkpt lat="40.0728549" lon="-105.2306148">
  <ele>1598.45</ele>
  <time>2026-08-28T19:08:38Z</time>
  <course>10.2</course>
  <speed>0.8376156636548769</speed>
  <fix>3d</fix>
</trkpt>
<trkpt lat="40.0728557" lon="-105.2306158">
  <ele>1598.29</ele>
  <time>2026-08-28T19:08:38Z</time>
  <course>123.54</course>
  <speed>0.66</speed>
  <fix>3d</fix>
</trkpt>
<trkpt lat="40.0728541" lon="-105.2306129">
  <ele>1598.46</ele>
  <time>2026-08-28T19:08:38Z</time>
  <course>10.15</course>
  <speed>1.0444615837837217</speed>
  <fix>3d</fix>
</trkpt>
<trkpt lat="40.072855" lon="-105.2306142">
  <ele>1598.31</ele>
  <time>2026-08-28T19:08:38Z</time>
  <course>120.0</course>
  <speed>0.86</speed>
  <fix>3d</fix>
</trkpt>
<trkpt lat="40.0728532" lon="-105.2306106">
  <ele>1598.45</ele>
  <time>2026-08-28T19:08:38Z</time>
  <course>16.68</course>
  <speed>1.1636150566231085</speed>
  <fix>3d</fix>
</trkpt>
<trkpt lat="40.0728541" lon="-105.2306122">
  <ele>1598.31</ele>
  <time>2026-08-28T19:08:38Z</time>
  <course>117.74</course>
  <speed>1.04</speed>
  <fix>3d</fix>
</trkpt>
<trkpt lat="40.0728523" lon="-105.2306079">
  <ele>1598.42</ele>
  <time>2026-08-28T19:08:38Z</time>
  <course>29.88</course>
  <speed>1.3423859355639869</speed>
  <fix>3d</fix>
</trkpt>
<trkpt lat="40.0728533" lon="-105.2306099">
  <ele>1598.3</ele>
  <time>2026-08-28T19:08:38Z</time>
  <course>115.46</course>
  <speed>1.2</speed>
  <fix>3d</fix>
</trkpt>
<trkpt lat="40.0728514" lon="-105.2306048">
  <ele>1598.4</ele>
  <time>2026-08-28T19:08:38Z</time>
  <course>41.87</course>
  <speed>1.4712239802287073</speed>
  <fix>3d</fix>
</trkpt>
<trkpt lat="40.0728523" lon="-105.2306072">
  <ele>1598.28</ele>
  <time>2026-08-28T19:08:38Z</time>
  <course>112.03</course>
  <speed>1.35</speed>
  <fix>3d</fix>
</trkpt>
<trkpt lat="40.0728507" lon="-105.2306014">
  <ele>1598.38</ele>
  <time>2026-08-28T19:08:38Z</time>
  <course>54.0</course>
  <speed>1.567322557739791</speed>
  <fix>3d</fix>
</trkpt>
<trkpt lat="40.0728515" lon="-105.2306041">
  <ele>1598.26</ele>
  <time>2026-08-28T19:08:38Z</time>
  <course>108.01</course>
  <speed>1.47</speed>
  <fix>3d</fix>
</trkpt>
<trkpt lat="40.0728501" lon="-105.2305978">
  <ele>1598.36</ele>
  <time>2026-08-28T19:08:38Z</time>
  <course>66.29</course>
  <speed>1.6259458785580778</speed>
  <fix>3d</fix>
</trkpt>
<trkpt lat="40.0728507" lon="-105.2306007">
  <ele>1598.24</ele>
  <time>2026-08-28T19:08:38Z</time>
  <course>104.15</course>
  <speed>1.56</speed>
  <fix>3d</fix>
</trkpt>
<trkpt lat="40.0728496" lon="-105.230594">
  <ele>1598.35</ele>
  <time>2026-08-28T19:08:38Z</time>
  <course>78.54</course>
  <speed>1.6522106403240477</speed>
  <fix>3d</fix>
</trkpt>
<trkpt lat="40.07285" lon="-105.230597">
  <ele>1598.23</ele>
  <time>2026-08-28T19:08:38Z</time>
  <course>101.03</course>
  <speed>1.61</speed>
  <fix>3d</fix>
</trkpt>
<trkpt lat="40.0728492" lon="-105.2305901">
  <ele>1598.35</ele>
  <time>2026-08-28T19:08:38Z</time>
  <course>90.85</course>
  <speed>1.6787197502859135</speed>
  <fix>3d</fix>
</trkpt>
<trkpt lat="40.0728496" lon="-105.2305932">
  <ele>1598.23</ele>
  <time>2026-08-28T19:08:38Z</time>
  <course>99.06</course>
  <speed>1.64</speed>
  <fix>3d</fix>
</trkpt>
<trkpt lat="40.0728487" lon="-105.2305862">
  <ele>1598.35</ele>
  <time>2026-08-28T19:08:38Z</time>
  <course>101.27</course>
  <speed>1.688697723099075</speed>
  <fix>3d</fix>
</trkpt>
<trkpt lat="40.0728491" lon="-105.2305894">
  <ele>1598.23</ele>
  <time>2026-08-28T19:08:38Z</time>
  <course>98.65</course>
  <speed>1.66</speed>
  <fix>3d</fix>
</trkpt>
<trkpt lat="40.0728481" lon="-105.2305824">
  <ele>1598.35</ele>
  <time>2026-08-28T19:08:38Z</time>
  <course>102.82</course>
  <speed>1.66715326230074</speed>
  <fix>3d</fix>
</trkpt>
<trkpt lat="40.0728486" lon="-105.2305855">
  <ele>1598.24</ele>
  <time>2026-08-28T19:08:38Z</time>
  <course>100.24</course>
  <speed>1.66</speed>
  <fix>3d</fix>
</trkpt>
<trkpt lat="40.0728475" lon="-105.2305787">
  <ele>1598.35</ele>
  <time>2026-08-28T19:08:38Z</time>
  <course>103.65</course>
  <speed>1.593549497191725</speed>
  <fix>3d</fix>
</trkpt>
<trkpt lat="40.0728481" lon="-105.2305816">
  <ele>1598.25</ele>
  <time>2026-08-28T19:08:38Z</time>
  <course>102.3</course>
  <speed>1.63</speed>
  <fix>3d</fix>
</trkpt>
<trkpt lat="40.0728469" lon="-105.2305752">
  <ele>1598.36</ele>
  <time>2026-08-28T19:08:38Z</time>
  <course>104.7</course>
  <speed>1.4552319402761884</speed>
  <fix>3d</fix>
</trkpt>
<trkpt lat="40.0728474" lon="-105.230578">
  <ele>1598.25</ele>
  <time>2026-08-28T19:08:38Z</time>
  <course>103.64</course>
  <speed>1.55</speed>
  <fix>3d</fix>
</trkpt>
<trkpt lat="40.0728463" lon="-105.2305722">
  <ele>1598.38</ele>
  <time>2026-08-28T19:08:38Z</time>
  <course>105.98</course>
  <speed>1.25686116973992</speed>
  <fix>3d</fix>
</trkpt>
<trkpt lat="40.0728467" lon="-105.2305747">
  <ele>1598.26</ele>
  <time>2026-08-28T19:08:38Z</time>
  <course>104.94</course>
  <speed>1.4</speed>
  <fix>3d</fix>
</trkpt>
<trkpt lat="40.0728457" lon="-105.2305697">
  <ele>1598.39</ele>
  <time>2026-08-28T19:08:38Z</time>
  <course>107.72</course>
  <speed>0.9962429422585637</speed>
  <fix>3d</fix>
</trkpt>
<trkpt lat="40.072846" lon="-105.2305717">
  <ele>1598.27</ele>
  <time>2026-08-28T19:08:38Z</time>
  <course>106.56</course>
  <speed>1.19</speed>
  <fix>3d</fix>
</trkpt>
<trkpt lat="40.0728452" lon="-105.2305678">
  <ele>1598.39</ele>
  <time>2026-08-28T19:08:38Z</time>
  <course>109.34</course>
  <speed>0.7130918594402827</speed>
  <fix>3d</fix>
</trkpt>
<trkpt lat="40.0728455" lon="-105.2305693">
  <ele>1598.28</ele>
  <time>2026-08-28T19:08:38Z</time>
  <course>109.17</course>
  <speed>0.93</speed>
  <fix>3d</fix>
</trkpt>
<trkpt lat="40.0728447" lon="-105.2305666">
  <ele>1598.39</ele>
  <time>2026-08-28T19:08:38Z</time>
  <course>109.03</course>
  <speed>0.4304648650006177</speed>
  <fix>3d</fix>
</trkpt>
<trkpt lat="40.072845" lon="-105.2305676">
  <ele>1598.29</ele>
  <time>2026-08-28T19:08:38Z</time>
  <course>114.54</course>
  <speed>0.65</speed>
  <fix>3d</fix>
</trkpt>
<trkpt lat="40.0728443" lon="-105.2305661">
  <ele>1598.39</ele>
  <time>2026-08-28T19:08:38Z</time>
  <course>108.96</course>
  <speed>0.20124611797498107</speed>
  <fix>3d</fix>
</trkpt>
<trkpt lat="40.0728445" lon="-105.2305665">
  <ele>1598.28</ele>
  <time>2026-08-28T19:08:38Z</time>
  <course>127.6</course>
  <speed>0.38</speed>
  <fix>3d</fix>
</trkpt>
<trkpt lat="40.072844" lon="-105.2305662">
  <ele>1598.39</ele>
  <time>2026-08-28T19:08:38Z</time>
  <course>108.8</course>
  <speed>0.212602916254693</speed>
  <fix>3d</fix>
</trkpt>
<trkpt lat="40.0728442" lon="-105.2305661">
  <ele>1598.27</ele>
  <time>2026-08-28T19:08:38Z</time>
  <course>171.46</course>
  <speed>0.19</speed>
  <fix>3d</fix>
</trkpt>
<trkpt lat="40.0728437" lon="-105.2305666">
  <ele>1598.38</ele>
  <time>2026-08-28T19:08:38Z</time>
  <course>108.63</course>
  <speed>0.340147027033899</speed>
  <fix>3d</fix>
</trkpt>
<trkpt lat="40.0728438" lon="-105.2305662">
  <ele>1598.27</ele>
  <time>2026-08-28T19:08:38Z</time>
  <course>230.03</course>
  <speed>0.25</speed>
  <fix>3d</fix>
</trkpt>
<trkpt lat="40.0728434" lon="-105.2305675">
  <ele>1598.38</ele>
  <time>2026-08-28T19:08:38Z</time>
  <course>108.51</course>
  <speed>0.4459820624195552</speed>
  <fix>3d</fix>
</trkpt>
<trkpt lat="40.0728435" lon="-105.2305669">
  <ele>1598.26</ele>
  <time>2026-08-28T19:08:38Z</time>
  <course>247.13</course>
  <speed>0.39</speed>
  <fix>3d</fix>
</trkpt>
<trkpt lat="40.0728431" lon="-105.2305686">
  <ele>1598.37</ele>
  <time>2026-08-28T19:08:38Z</time>
  <course>108.39</course>
  <speed>0.4838388161361178</speed>
  <fix>3d</fix>
</trkpt>
<trkpt lat="40.0728433" lon="-105.2305679">
  <ele>1598.25</ele>
  <time>2026-08-28T19:08:38Z</time>
  <course>251.86</course>
  <speed>0.49</speed>
  <fix>3d</fix>
</trkpt>
<trkpt lat="40.0728428" lon="-105.2305698">
  <ele>1598.36</ele>
  <time>2026-08-28T19:08:38Z</time>
  <course>103.95</course>
  <speed>0.5280151512977634</speed>
  <fix>3d</fix>
</trkpt>
<trkpt lat="40.072843" lon="-105.2305691">
  <ele>1598.24</ele>
  <time>2026-08-28T19:08:38Z</time>
  <course>251.56</course>
  <speed>0.53</speed>
  <fix>3d</fix>
</trkpt>
<trkpt lat="40.0728424" lon="-105.2305709">
  <ele>1598.35</ele>
  <time>2026-08-28T19:08:38Z</time>
  <course>89.96</course>
  <speed>0.5015974481593781</speed>
  <fix>3d</fix>
</trkpt>
<trkpt lat="40.0728426" lon="-105.2305702">
  <ele>1598.24</ele>
  <time>2026-08-28T19:08:38Z</time>
  <course>248.85</course>
  <speed>0.55</speed>
  <fix>3d</fix>
</trkpt>
<trkpt lat="40.0728421" lon="-105.2305721">
  <ele>1598.35</ele>
  <time>2026-08-28T19:08:38Z</time>
  <course>77.69</course>
  <speed>0.48104053883222775</speed>
  <fix>3d</fix>
</trkpt>
<trkpt lat="40.0728423" lon="-105.2305715">
  <ele>1598.24</ele>
  <time>2026-08-28T19:08:38Z</time>
  <course>248.69</course>
  <speed>0.53</speed>
  <fix>3d</fix>
</trkpt>
<trkpt lat="40.0728418" lon="-105.2305732">
  <ele>1598.35</ele>
  <time>2026-08-28T19:08:38Z</time>
  <course>65.54</course>
  <speed>0.4712748667179272</speed>
  <fix>3d</fix>
</trkpt>
<trkpt lat="40.0728419" lon="-105.2305726">
  <ele>1598.24</ele>
  <time>2026-08-28T19:08:38Z</time>
  <course>251.59</course>
  <speed>0.51</speed>
  <fix>3d</fix>
</trkpt>
<trkpt lat="40.0728415" lon="-105.2305744">
  <ele>1598.35</ele>
  <time>2026-08-28T19:08:38Z</time>
  <course>53.42</course>
  <speed>0.4780167361086848</speed>
  <fix>3d</fix>
</trkpt>
<trkpt lat="40.0728417" lon="-105.2305738">
  <ele>1598.24</ele>
  <time>2026-08-28T19:08:38Z</time>
  <course>254.04</course>
  <speed>0.5</speed>
  <fix>3d</fix>
</trkpt>
<trkpt lat="40.0728413" lon="-105.2305755">
  <ele>1598.35</ele>
  <time>2026-08-28T19:08:38Z</time>
  <course>41.38</course>
  <speed>0.4712748667179272</speed>
  <fix>3d</fix>
</trkpt>
<trkpt lat="40.0728414" lon="-105.2305749">
  <ele>1598.25</ele>
  <time>2026-08-28T19:08:38Z</time>
  <course>254.87</course>
  <speed>0.49</speed>
  <fix>3d</fix>
</trkpt>
<trkpt lat="40.072841" lon="-105.2305766">
  <ele>1598.35</ele>
  <time>2026-08-28T19:08:38Z</time>
  <course>29.33</course>
  <speed>0.4459820624195552</speed>
  <fix>3d</fix>
</trkpt>
<trkpt lat="40.0728412" lon="-105.230576">
  <ele>1598.25</ele>
  <time>2026-08-28T19:08:38Z</time>
  <course>253.91</course>
  <speed>0.47</speed>
  <fix>3d</fix>
</trkpt>
<trkpt lat="40.0728408" lon="-105.2305776">
  <ele>1598.36</ele>
  <time>2026-08-28T19:08:38Z</time>
  <course>17.22</course>
  <speed>0.425440947723653</speed>
  <fix>3d</fix>
</trkpt>
<trkpt lat="40.0728409" lon="-105.230577">
  <ele>1598.25</ele>
  <time>2026-08-28T19:08:38Z</time>
  <course>251.45</course>
  <speed>0.45</speed>
  <fix>3d</fix>
</trkpt>
<trkpt lat="40.0728404" lon="-105.2305785">
  <ele>1598.36</ele>
  <time>2026-08-28T19:08:38Z</time>
  <course>9.42</course>
  <speed>0.4386342439892262</speed>
  <fix>3d</fix>
</trkpt>
<trkpt lat="40.0728407" lon="-105.230578">
  <ele>1598.26</ele>
  <time>2026-08-28T19:08:38Z</time>
  <course>248.49</course>
  <speed>0.42</speed>
  <fix>3d</fix>
</trkpt>
<trkpt lat="40.0728401" lon="-105.2305794">
  <ele>1598.37</ele>
  <time>2026-08-28T19:08:38Z</time>
  <course>11.38</course>
  <speed>0.3671511950137164</speed>
  <fix>3d</fix>
</trkpt>
<trkpt lat="40.0728404" lon="-105.2305789">
  <ele>1598.26</ele>
  <time>2026-08-28T19:08:38Z</time>
  <course>246.2</course>
  <speed>0.4</speed>
  <fix>3d</fix>
</trkpt>
<trkpt lat="40.0728398" lon="-105.2305801">
  <ele>1598.37</ele>
  <time>2026-08-28T19:08:38Z</time>
  <course>11.55</course>
  <speed>0.29410882339705485</speed>
  <fix>3d</fix>
</trkpt>
<trkpt lat="40.0728401" lon="-105.2305797">
  <ele>1598.27</ele>
  <time>2026-08-28T19:08:38Z</time>
  <course>242.51</course>
  <speed>0.34</speed>
  <fix>3d</fix>
</trkpt>
<trkpt lat="40.0728396" lon="-105.2305806">
  <ele>1598.37</ele>
  <time>2026-08-28T19:08:38Z</time>
  <course>11.57</course>
  <speed>0.21213203435596426</speed>
  <fix>3d</fix>
</trkpt>
<trkpt lat="40.0728398" lon="-105.2305803">
  <ele>1598.27</ele>
  <time>2026-08-28T19:08:38Z</time>
  <course>236.1</course>
  <speed>0.26</speed>
  <fix>3d</fix>
</trkpt>
<trkpt lat="40.0728394" lon="-105.2305808">
  <ele>1598.37</ele>
  <time>2026-08-28T19:08:38Z</time>
  <course>11.57</course>
  <speed>0.130384048104053</speed>
  <fix>3d</fix>
</trkpt>
<trkpt lat="40.0728395" lon="-105.2305808">
  <ele>1598.27</ele>
  <time>2026-08-28T19:08:38Z</time>
  <course>228.2</course>
  <speed>0.17</speed>
  <fix>3d</fix>
</trkpt>
<trkpt lat="40.0728392" lon="-105.2305809">
  <ele>1598.37</ele>
  <time>2026-08-28T19:08:38Z</time>
  <course>11.55</course>
  <speed>0.07071067811865475</speed>
  <fix>3d</fix>
</trkpt>
<trkpt lat="40.0728394" lon="-105.230581">
  <ele>1598.27</ele>
  <time>2026-08-28T19:08:38Z</time>
  <course>214.22</course>
  <speed>0.09</speed>
  <fix>3d</fix>
</trkpt>
<trkpt lat="40.0728392" lon="-105.2305809">
  <ele>1598.36</ele>
  <time>2026-08-28T19:08:38Z</time>
  <course>11.52</course>
  <speed>0.05</speed>
  <fix>3d</fix>
</trkpt>
<trkpt lat="40.0728393" lon="-105.2305811">
  <ele>1598.26</ele>
  <time>2026-08-28T19:08:38Z</time>
  <course>160.99</course>
  <speed>0.04</speed>
  <fix>3d</fix>
</trkpt>
<trkpt lat="40.0728392" lon="-105.2305808">
  <ele>1598.36</ele>
  <time>2026-08-28T19:08:38Z</time>
  <course>11.5</course>
  <speed>0.09</speed>
  <fix>3d</fix>
</trkpt>
<trkpt lat="40.0728393" lon="-105.230581">
  <ele>1598.26</ele>
  <time>2026-08-28T19:08:38Z</time>
  <course>87.68</course>
  <speed>0.07</speed>
  <fix>3d</fix>
</trkpt>
<trkpt lat="40.0728392" lon="-105.2305805">
  <ele>1598.37</ele>
  <time>2026-08-28T19:08:38Z</time>
  <course>11.49</course>
  <speed>0.14317821063276354</speed>
  <fix>3d</fix>
</trkpt>
<trkpt lat="40.0728393" lon="-105.2305807">
  <ele>1598.26</ele>
  <time>2026-08-28T19:08:38Z</time>
  <course>71.23</course>
  <speed>0.13</speed>
  <fix>3d</fix>
</trkpt>
<trkpt lat="40.0728393" lon="-105.2305802">
  <ele>1598.37</ele>
  <time>2026-08-28T19:08:38Z</time>
  <course>11.49</course>
  <speed>0.18027756377319945</speed>
  <fix>3d</fix>
</trkpt>
<trkpt lat="40.0728394" lon="-105.2305805">
  <ele>1598.26</ele>
  <time>2026-08-28T19:08:38Z</time>
  <course>64.88</course>
  <speed>0.18</speed>
  <fix>3d</fix>
</trkpt>
<trkpt lat="40.0728395" lon="-105.2305797">
  <ele>1598.37</ele>
  <time>2026-08-28T19:08:38Z</time>
  <course>11.5</course>
  <speed>0.2193171219946131</speed>
  <fix>3d</fix>
</trkpt>
<trkpt lat="40.0728395" lon="-105.23058">
  <ele>1598.26</ele>
  <time>2026-08-28T19:08:38Z</time>
  <course>61.21</course>
  <speed>0.23</speed>
  <fix>3d</fix>
</trkpt>
<trkpt lat="40.0728397" lon="-105.2305792">
  <ele>1598.37</ele>
  <time>2026-08-28T19:08:38Z</time>
  <course>11.5</course>
  <speed>0.25059928172283336</speed>
  <fix>3d</fix>
</trkpt>
<trkpt lat="40.0728397" lon="-105.2305795">
  <ele>1598.26</ele>
  <time>2026-08-28T19:08:38Z</time>
  <course>58.74</course>
  <speed>0.26</speed>
  <fix>3d</fix>
</trkpt>
<trkpt lat="40.07284" lon="-105.2305786">
  <ele>1598.36</ele>
  <time>2026-08-28T19:08:38Z</time>
  <course>11.51</course>
  <speed>0.2641968962724581</speed>
  <fix>3d</fix>
</trkpt>
<trkpt lat="40.07284" lon="-105.230579">
  <ele>1598.26</ele>
  <time>2026-08-28T19:08:38Z</time>
  <course>56.97</course>
  <speed>0.29</speed>
  <fix>3d</fix>
</trkpt>
<trkpt lat="40.0728403" lon="-105.230578">
  <ele>1598.35</ele>
  <time>2026-08-28T19:08:38Z</time>
  <course>11.51</course>
  <speed>0.2692582403567252</speed>
  <fix>3d</fix>
</trkpt>
<trkpt lat="40.0728403" lon="-105.2305783">
  <ele>1598.26</ele>
  <time>2026-08-28T19:08:38Z</time>
  <course>55.62</course>
  <speed>0.31</speed>
  <fix>3d</fix>
</trkpt>
<trkpt lat="40.0728406" lon="-105.2305774">
  <ele>1598.35</ele>
  <time>2026-08-28T19:08:38Z</time>
  <course>11.49</course>
  <speed>0.2692582403567252</speed>
  <fix>3d</fix>
</trkpt>
<trkpt lat="40.0728406" lon="-105.2305777">
  <ele>1598.26</ele>
  <time>2026-08-28T19:08:38Z</time>
  <course>54.57</course>
  <speed>0.31</speed>
  <fix>3d</fix>
</trkpt>
<trkpt lat="40.072841" lon="-105.2305768">
  <ele>1598.35</ele>
  <time>2026-08-28T19:08:38Z</time>
  <course>11.49</course>
  <speed>0.260768096208106</speed>
  <fix>3d</fix>
</trkpt>
<trkpt lat="40.0728409" lon="-105.2305772">
  <ele>1598.26</ele>
  <time>2026-08-28T19:08:38Z</time>
  <course>53.74</course>
  <speed>0.31</speed>
  <fix>3d</fix>
</trkpt>
<trkpt lat="40.0728413" lon="-105.2305763">
  <ele>1598.35</ele>
  <time>2026-08-28T19:08:38Z</time>
  <course>11.51</course>
  <speed>0.23853720883753127</speed>
  <fix>3d</fix>
</trkpt>
<trkpt lat="40.0728413" lon="-105.2305765">
  <ele>1598.26</ele>
  <time>2026-08-28T19:08:38Z</time>
  <course>53.06</course>
  <speed>0.3</speed>
  <fix>3d</fix>
</trkpt>
<trkpt lat="40.0728416" lon="-105.2305758">
  <ele>1598.35</ele>
  <time>2026-08-28T19:08:38Z</time>
  <course>11.56</course>
  <speed>0.21633307652783937</speed>
  <fix>3d</fix>
</trkpt>
<trkpt lat="40.0728416" lon="-105.230576">
  <ele>1598.26</ele>
  <time>2026-08-28T19:08:38Z</time>
  <course>52.59</course>
  <speed>0.28</speed>
  <fix>3d</fix>
</trkpt>
<trkpt lat="40.0728418" lon="-105.2305753">
  <ele>1598.33</ele>
  <time>2026-08-28T19:08:38Z</time>
  <course>11.82</course>
  <speed>0.194164878389476</speed>
  <fix>3d</fix>
</trkpt>
<trkpt lat="40.0728419" lon="-105.2305755">
  <ele>1598.26</ele>
  <time>2026-08-28T19:08:38Z</time>
  <course>52.02</course>
  <speed>0.25</speed>
  <fix>3d</fix>
</trkpt>
<trkpt lat="40.0728421" lon="-105.2305749">
  <ele>1598.29</ele>
  <time>2026-08-28T19:08:38Z</time>
  <course>12.25</course>
  <speed>0.1664331697709324</speed>
  <fix>3d</fix>
</trkpt>
<trkpt lat="40.0728421" lon="-105.2305751">
  <ele>1598.24</ele>
  <time>2026-08-28T19:08:38Z</time>
  <course>51.37</course>
  <speed>0.22</speed>
  <fix>3d</fix>
</trkpt>
<trkpt lat="40.0728423" lon="-105.2305746">
  <ele>1598.2</ele>
  <time>2026-08-28T19:08:38Z</time>
  <course>12.74</course>
  <speed>0.13892443989449804</speed>
  <fix>3d</fix>
</trkpt>
<trkpt lat="40.0728424" lon="-105.2305746">
  <ele>1598.19</ele>
  <time>2026-08-28T19:08:38Z</time>
  <course>51.38</course>
  <speed>0.19</speed>
  <fix>3d</fix>
</trkpt>
<trkpt lat="40.0728425" lon="-105.2305743">
  <ele>1598.07</ele>
  <time>2026-08-28T19:08:38Z</time>
  <course>13.22</course>
  <speed>0.1118033988749895</speed>
  <fix>3d</fix>
</trkpt>
<trkpt lat="40.0728426" lon="-105.2305743">
  <ele>1598.1</ele>
  <time>2026-08-28T19:08:38Z</time>
  <course>52.71</course>
  <speed>0.16</speed>
  <fix>3d</fix>
</trkpt>
<trkpt lat="40.0728426" lon="-105.230574">
  <ele>1597.89</ele>
  <time>2026-08-28T19:08:38Z</time>
  <course>13.67</course>
  <speed>0.09486832980505139</speed>
  <fix>3d</fix>
</trkpt>
<trkpt lat="40.0728427" lon="-105.230574">
  <ele>1597.96</ele>
  <time>2026-08-28T19:08:38Z</time>
  <course>55.8</course>
  <speed>0.13</speed>
  <fix>3d</fix>
</trkpt>
<trkpt lat="40.0728427" lon="-105.2305738">
  <ele>1597.67</ele>
  <time>2026-08-28T19:08:38Z</time>
  <course>13.95</course>
  <speed>0.08062257748298549</speed>
  <fix>3d</fix>
</trkpt>
<trkpt lat="40.0728429" lon="-105.2305738">
  <ele>1597.77</ele>
  <time>2026-08-28T19:08:38Z</time>
  <course>61.29</course>
  <speed>0.11</speed>
  <fix>3d</fix>
</trkpt>
<trkpt lat="40.0728427" lon="-105.2305736">
  <ele>1597.39</ele>
  <time>2026-08-28T19:08:38Z</time>
  <course>13.9</course>
  <speed>0.06</speed>
  <fix>3d</fix>
</trkpt>
<trkpt lat="40.072843" lon="-105.2305736">
  <ele>1597.53</ele>
  <time>2026-08-28T19:08:38Z</time>
  <course>69.32</course>
  <speed>0.08</speed>
  <fix>3d</fix>
</trkpt>
<trkpt lat="40.0728428" lon="-105.2305734">
  <ele>1597.1</ele>
  <time>2026-08-28T19:08:38Z</time>
  <course>13.97</course>
  <speed>0.05830951894845301</speed>
  <fix>3d</fix>
</trkpt>
<trkpt lat="40.072843" lon="-105.2305734">
  <ele>1597.26</ele>
  <time>2026-08-28T19:08:38Z</time>
  <course>82.56</course>
  <speed>0.06</speed>
  <fix>3d</fix>
</trkpt>
<trkpt lat="40.0728427" lon="-105.2305733">
  <ele>1596.81</ele>
  <time>2026-08-28T19:08:38Z</time>
  <course>13.96</course>
  <speed>0.06403124237432849</speed>
  <fix>3d</fix>
</trkpt>
<trkpt lat="40.072843" lon="-105.2305733">
  <ele>1596.97</ele>
  <time>2026-08-28T19:08:38Z</time>
  <course>106.53</course>
  <speed>0.05</speed>
  <fix>3d</fix>
</trkpt>
<trkpt lat="40.0728427" lon="-105.2305732">
  <ele>1596.57</ele>
  <time>2026-08-28T19:08:38Z</time>
  <course>13.65</course>
  <speed>0.07615773105863909</speed>
  <fix>3d</fix>
</trkpt>
<trkpt lat="40.072843" lon="-105.2305732">
  <ele>1596.7</ele>
  <time>2026-08-28T19:08:38Z</time>
  <course>133.09</course>
  <speed>0.05</speed>
  <fix>3d</fix>
</trkpt>
<trkpt lat="40.0728426" lon="-105.2305731">
  <ele>1596.37</ele>
  <time>2026-08-28T19:08:38Z</time>
  <course>13.12</course>
  <speed>0.08062257748298549</speed>
  <fix>3d</fix>
</trkpt>
<trkpt lat="40.0728429" lon="-105.2305731">
  <ele>1596.46</ele>
  <time>2026-08-28T19:08:38Z</time>
  <course>154.79</course>
  <speed>0.06</speed>
  <fix>3d</fix>
</trkpt>
<trkpt lat="40.0728425" lon="-105.2305731">
  <ele>1596.22</ele>
  <time>2026-08-28T19:08:38Z</time>
  <course>12.6</course>
  <speed>0.09055385138137417</speed>
  <fix>3d</fix>
</trkpt>
<trkpt lat="40.0728428" lon="-105.2305731">
  <ele>1596.27</ele>
  <time>2026-08-28T19:08:38Z</time>
  <course>175.9</course>
  <speed>0.07</speed>
  <fix>3d</fix>
</trkpt>
<trkpt lat="40.0728424" lon="-105.2305732">
  <ele>1596.1</ele>
  <time>2026-08-28T19:08:38Z</time>
  <course>12.26</course>
  <speed>0.09848857801796104</speed>
  <fix>3d</fix>
</trkpt>
<trkpt lat="40.0728427" lon="-105.2305731">
  <ele>1596.12</ele>
  <time>2026-08-28T19:08:38Z</time>
  <course>196.71</course>
  <speed>0.08</speed>
  <fix>3d</fix>
</trkpt>
<trkpt lat="40.0728423" lon="-105.2305733">
  <ele>1596.0</ele>
  <time>2026-08-28T19:08:38Z</time>
  <course>12.06</course>
  <speed>0.10816653826391968</speed>
  <fix>3d</fix>
</trkpt>
<trkpt lat="40.0728426" lon="-105.2305731">
  <ele>1596.01</ele>
  <time>2026-08-28T19:08:38Z</time>
  <course>213.2</course>
  <speed>0.09</speed>
  <fix>3d</fix>
</trkpt>
<trkpt lat="40.0728421" lon="-105.2305734">
  <ele>1595.91</ele>
  <time>2026-08-28T19:08:38Z</time>
  <course>11.98</course>
  <speed>0.12041594578792296</speed>
  <fix>3d</fix>
</trkpt>
<trkpt lat="40.0728424" lon="-105.2305733">
  <ele>1595.91</ele>
  <time>2026-08-28T19:08:38Z</time>
  <course>224.32</course>
  <speed>0.11</speed>
  <fix>3d</fix>
</trkpt>
<trkpt lat="40.072842" lon="-105.2305736">
  <ele>1595.83</ele>
  <time>2026-08-28T19:08:38Z</time>
  <course>11.96</course>
  <speed>0.12041594578792296</speed>
  <fix>3d</fix>
</trkpt>
<trkpt lat="40.0728423" lon="-105.2305734">
  <ele>1595.83</ele>
  <time>2026-08-28T19:08:38Z</time>
  <course>231.99</course>
  <speed>0.12</speed>
  <fix>3d</fix>
</trkpt>
<trkpt lat="40.0728419" lon="-105.2305739">
  <ele>1595.75</ele>
  <time>2026-08-28T19:08:38Z</time>
  <course>11.99</course>
  <speed>0.12206555615733702</speed>
  <fix>3d</fix>
</trkpt>
<trkpt lat="40.0728421" lon="-105.2305737">
  <ele>1595.75</ele>
  <time>2026-08-28T19:08:38Z</time>
  <course>237.75</course>
  <speed>0.13</speed>
  <fix>3d</fix>
</trkpt>
<trkpt lat="40.0728418" lon="-105.2305741">
  <ele>1595.67</ele>
  <time>2026-08-28T19:08:38Z</time>
  <course>12.01</course>
  <speed>0.11661903789690602</speed>
  <fix>3d</fix>
</trkpt>
<trkpt lat="40.072842" lon="-105.2305739">
  <ele>1595.66</ele>
  <time>2026-08-28T19:08:38Z</time>
  <course>242.56</course>
  <speed>0.13</speed>
  <fix>3d</fix>
</trkpt>
<trkpt lat="40.0728417" lon="-105.2305744">
  <ele>1595.58</ele>
  <time>2026-08-28T19:08:38Z</time>
  <course>12.05</course>
  <speed>0.1118033988749895</speed>
  <fix>3d</fix>
</trkpt>
<trkpt lat="40.0728419" lon="-105.2305742">
  <ele>1595.58</ele>
  <time>2026-08-28T19:08:38Z</time>
  <course>247.04</course>
  <speed>0.13</speed>
  <fix>3d</fix>
</trkpt>
<trkpt lat="40.0728417" lon="-105.2305746">
  <ele>1595.49</ele>
  <time>2026-08-28T19:08:38Z</time>
  <course>12.08</course>
  <speed>0.09848857801796104</speed>
  <fix>3d</fix>
</trkpt>
<trkpt lat="40.0728418" lon="-105.2305745">
  <ele>1595.49</ele>
  <time>2026-08-28T19:08:38Z</time>
  <course>251.55</course>
  <speed>0.12</speed>
  <fix>3d</fix>
</trkpt>
<trkpt lat="40.0728416" lon="-105.2305749">
  <ele>1595.39</ele>
  <time>2026-08-28T19:08:38Z</time>
  <course>12.09</course>
  <speed>0.0854400374531753</speed>
  <fix>3d</fix>
</trkpt>
<trkpt lat="40.0728418" lon="-105.2305748">
  <ele>1595.4</ele>
  <time>2026-08-28T19:08:38Z</time>
  <course>256.35</course>
  <speed>0.11</speed>
  <fix>3d</fix>
</trkpt>
<trkpt lat="40.0728416" lon="-105.2305751">
  <ele>1595.3</ele>
  <time>2026-08-28T19:08:38Z</time>
  <course>12.08</course>
  <speed>0.07280109889280519</speed>
  <fix>3d</fix>
</trkpt>
<trkpt lat="40.0728418" lon="-105.2305751">
  <ele>1595.31</ele>
  <time>2026-08-28T19:08:38Z</time>
  <course>261.7</course>
  <speed>0.1</speed>
  <fix>3d</fix>
</trkpt>
<trkpt lat="40.0728416" lon="-105.2305753">
  <ele>1595.2</ele>
  <time>2026-08-28T19:08:39Z</time>
  <course>12.11</course>
  <speed>0.06082762530298219</speed>
  <fix>3d</fix>
</trkpt>
<trkpt lat="40.0728418" lon="-105.2305753">
  <ele>1595.21</ele>
  <time>2026-08-28T19:08:39Z</time>
  <course>267.86</course>
  <speed>0.09</speed>
  <fix>3d</fix>
</trkpt>
<trkpt lat="40.0728417" lon="-105.2305755">
  <ele>1595.1</ele>
  <time>2026-08-28T19:08:39Z</time>
  <course>12.08</course>
  <speed>0.05</speed>
  <fix>3d</fix>
</trkpt>
<trkpt lat="40.0728418" lon="-105.2305754">
  <ele>1595.11</ele>
  <time>2026-08-28T19:08:39Z</time>
  <course>275.1</course>
  <speed>0.08</speed>
  <fix>3d</fix>
</trkpt>
<trkpt lat="40.0728417" lon="-105.2305756">
  <ele>1595.0</ele>
  <time>2026-08-28T19:08:39Z</time>
  <course>12.05</course>
  <speed>0.03</speed>
  <fix>3d</fix>
</trkpt>
<trkpt lat="40.0728418" lon="-105.2305757">
  <ele>1595.01</ele>
  <time>2026-08-28T19:08:39Z</time>
  <course>283.94</course>
  <speed>0.07</speed>
  <fix>3d</fix>
</trkpt>
<trkpt lat="40.0728417" lon="-105.2305757">
  <ele>1594.9</ele>
  <time>2026-08-28T19:08:39Z</time>
  <course>12.06</course>
  <speed>0.022360679774997897</speed>
  <fix>3d</fix>
</trkpt>
<trkpt lat="40.0728418" lon="-105.2305758">
  <ele>1594.9</ele>
  <time>2026-08-28T19:08:39Z</time>
  <course>294.49</course>
  <speed>0.06</speed>
  <fix>3d</fix>
</trkpt>
<trkpt lat="40.0728417" lon="-105.2305758">
  <ele>1594.8</ele>
  <time>2026-08-28T19:08:39Z</time>
  <course>12.07</course>
  <speed>0.01414213562373095</speed>
  <fix>3d</fix>
</trkpt>
<trkpt lat="40.0728418" lon="-105.230576">
  <ele>1594.81</ele>
  <time>2026-08-28T19:08:39Z</time>
  <course>306.54</course>
  <speed>0.05</speed>
  <fix>3d</fix>
</trkpt>
<trkpt lat="40.0728418" lon="-105.2305759">
  <ele>1594.7</ele>
  <time>2026-08-28T19:08:39Z</time>
  <course>12.07</course>
  <speed>0.02</speed>
  <fix>3d</fix>
</trkpt>
<trkpt lat="40.0728418" lon="-105.230576">
  <ele>1594.71</ele>
  <time>2026-08-28T19:08:39Z</time>
  <course>320.09</course>
  <speed>0.05</speed>
  <fix>3d</fix>
</trkpt>
<trkpt lat="40.0728419" lon="-105.2305759">
  <ele>1594.6</ele>
  <time>2026-08-28T19:08:39Z</time>
  <course>12.05</course>
  <speed>0.022360679774997897</speed>
  <fix>3d</fix>
</trkpt>
<trkpt lat="40.0728419" lon="-105.2305761">
  <ele>1594.61</ele>
  <time>2026-08-28T19:08:39Z</time>
  <course>334.93</course>
  <speed>0.04</speed>
  <fix>3d</fix>
</trkpt>
<trkpt lat="40.0728419" lon="-105.230576">
  <ele>1594.49</ele>
  <time>2026-08-28T19:08:39Z</time>
  <course>12.0</course>
  <speed>0.0282842712474619</speed>
  <fix>3d</fix>
</trkpt>
<trkpt lat="40.072842" lon="-105.2305762">
  <ele>1594.51</ele>
  <time>2026-08-28T19:08:39Z</time>
  <course>349.76</course>
  <speed>0.04</speed>
  <fix>3d</fix>
</trkpt>
<trkpt lat="40.072842" lon="-105.230576">
  <ele>1594.39</ele>
  <time>2026-08-28T19:08:39Z</time>
  <course>11.99</course>
  <speed>0.03605551275463989</speed>
  <fix>3d</fix>
</trkpt>
<trkpt lat="40.072842" lon="-105.2305762">
  <ele>1594.4</ele>
  <time>2026-08-28T19:08:39Z</time>
  <course>2.73</course>
  <speed>0.04</speed>
  <fix>3d</fix>
</trkpt>
<trkpt lat="40.0728421" lon="-105.230576">
  <ele>1594.29</ele>
  <time>2026-08-28T19:08:39Z</time>
  <course>11.97</course>
  <speed>0.0316227766016838</speed>
  <fix>3d</fix>
</trkpt>
<trkpt lat="40.0728421" lon="-105.2305762">
  <ele>1594.31</ele>
  <time>2026-08-28T19:08:39Z</time>
  <course>13.93</course>
  <speed>0.04</speed>
  <fix>3d</fix>
</trkpt>
<trkpt lat="40.0728421" lon="-105.2305759">
  <ele>1594.19</ele>
  <time>2026-08-28T19:08:39Z</time>
  <course>11.95</course>
  <speed>0.0412310562561766</speed>
  <fix>3d</fix>
</trkpt>
<trkpt lat="40.0728422" lon="-105.2305762">
  <ele>1594.21</ele>
  <time>2026-08-28T19:08:39Z</time>
  <course>23.78</course>
  <speed>0.04</speed>
  <fix>3d</fix>
</trkpt>
<trkpt lat="40.0728422" lon="-105.2305759">
  <ele>1594.09</ele>
  <time>2026-08-28T19:08:39Z</time>
  <course>11.94</course>
  <speed>0.0412310562561766</speed>
  <fix>3d</fix>
</trkpt>
<trkpt lat="40.0728423" lon="-105.2305762">
  <ele>1594.11</ele>
  <time>2026-08-28T19:08:39Z</time>
  <course>32.17</course>
  <speed>0.04</speed>
  <fix>3d</fix>
</trkpt>
<trkpt lat="40.0728422" lon="-105.2305758">
  <ele>1593.99</ele>
  <time>2026-08-28T19:08:39Z</time>
  <course>11.94</course>
  <speed>0.05</speed>
  <fix>3d</fix>
</trkpt>
<trkpt lat="40.0728423" lon="-105.2305761">
  <ele>1594.01</ele>
  <time>2026-08-28T19:08:39Z</time>
  <course>40.06</course>
  <speed>0.04</speed>
  <fix>3d</fix>
</trkpt>
<trkpt lat="40.0728423" lon="-105.2305757">
  <ele>1593.89</ele>
  <time>2026-08-28T19:08:39Z</time>
  <course>11.93</course>
  <speed>0.05</speed>
  <fix>3d</fix>
</trkpt>
<trkpt lat="40.0728424" lon="-105.230576">
  <ele>1593.9</ele>
  <time>2026-08-28T19:08:39Z</time>
  <course>47.55</course>
  <speed>0.04</speed>
  <fix>3d</fix>
</trkpt>
<trkpt lat="40.0728423" lon="-105.2305757">
  <ele>1593.8</ele>
  <time>2026-08-28T19:08:39Z</time>
  <course>11.92</course>
  <speed>0.05</speed>
  <fix>3d</fix>
</trkpt>
<trkpt lat="40.0728425" lon="-105.2305759">
  <ele>1593.81</ele>
  <time>2026-08-28T19:08:39Z</time>
  <course>54.55</course>
  <speed>0.04</speed>
  <fix>3d</fix>
</trkpt>
<trkpt lat="40.0728423" lon="-105.2305756">
  <ele>1593.7</ele>
  <time>2026-08-28T19:08:39Z</time>
  <course>11.91</course>
  <speed>0.05</speed>
  <fix>3d</fix>
</trkpt>
<trkpt lat="40.0728425" lon="-105.2305758">
  <ele>1593.72</ele>
  <time>2026-08-28T19:08:39Z</time>
  <course>61.26</course>
  <speed>0.04</speed>
  <fix>3d</fix>
</trkpt>
<trkpt lat="40.0728424" lon="-105.2305755">
  <ele>1593.6</ele>
  <time>2026-08-28T19:08:39Z</time>
  <course>11.89</course>
  <speed>0.05099019513592785</speed>
  <fix>3d</fix>
</trkpt>
<trkpt lat="40.0728425" lon="-105.2305758">
  <ele>1593.62</ele>
  <time>2026-08-28T19:08:39Z</time>
  <course>67.91</course>
  <speed>0.04</speed>
  <fix>3d</fix>
</trkpt>
<trkpt lat="40.0728424" lon="-105.2305754">
  <ele>1593.5</ele>
  <time>2026-08-28T19:08:39Z</time>
  <course>11.88</course>
  <speed>0.05099019513592785</speed>
  <fix>3d</fix>
</trkpt>
<trkpt lat="40.0728426" lon="-105.2305757">
  <ele>1593.52</ele>
  <time>2026-08-28T19:08:39Z</time>
  <course>75.2</course>
  <speed>0.03</speed>
  <fix>3d</fix>
</trkpt>
<trkpt lat="40.0728424" lon="-105.2305754">
  <ele>1593.4</ele>
  <time>2026-08-28T19:08:39Z</time>
  <course>11.87</course>
  <speed>0.044721359549995794</speed>
  <fix>3d</fix>
</trkpt>
<trkpt lat="40.0728426" lon="-105.2305756">
  <ele>1593.41</ele>
  <time>2026-08-28T19:08:39Z</time>
  <course>83.0</course>
  <speed>0.03</speed>
  <fix>3d</fix>
</trkpt>
<trkpt lat="40.0728424" lon="-105.2305753">
  <ele>1593.3</ele>
  <time>2026-08-28T19:08:39Z</time>
  <course>11.87</course>
  <speed>0.044721359549995794</speed>
  <fix>3d</fix>
</trkpt>
<trkpt lat="40.0728426" lon="-105.2305755">
  <ele>1593.32</ele>
  <time>2026-08-28T19:08:39Z</time>
  <course>90.76</course>
  <speed>0.03</speed>
  <fix>3d</fix>
</trkpt>
<trkpt lat="40.0728424" lon="-105.2305752">
  <ele>1593.2</ele>
  <time>2026-08-28T19:08:39Z</time>
  <course>11.87</course>
  <speed>0.05</speed>
  <fix>3d</fix>
</trkpt>
<trkpt lat="40.0728426" lon="-105.2305755">
  <ele>1593.22</ele>
  <time>2026-08-28T19:08:39Z</time>
  <course>99.21</course>
  <speed>0.02</speed>
  <fix>3d</fix>
</trkpt>
<trkpt lat="40.0728424" lon="-105.2305752">
  <ele>1593.1</ele>
  <time>2026-08-28T19:08:39Z</time>
  <course>11.86</course>
  <speed>0.04242640687119285</speed>
  <fix>3d</fix>
</trkpt>
<trkpt lat="40.0728426" lon="-105.2305754">
  <ele>1593.12</ele>
  <time>2026-08-28T19:08:39Z</time>
  <course>109.05</course>
  <speed>0.02</speed>
  <fix>3d</fix>
</trkpt>
<trkpt lat="40.0728424" lon="-105.2305752">
  <ele>1593.0</ele>
  <time>2026-08-28T19:08:39Z</time>
  <course>11.85</course>
  <speed>0.04242640687119285</speed>
  <fix>3d</fix>
</trkpt>
<trkpt lat="40.0728426" lon="-105.2305753">
  <ele>1593.01</ele>
  <time>2026-08-28T19:08:39Z</time>
  <course>119.68</course>
  <speed>0.02</speed>
  <fix>3d</fix>
</trkpt>
<trkpt lat="40.0728424" lon="-105.2305751">
  <ele>1592.9</ele>
  <time>2026-08-28T19:08:39Z</time>
  <course>11.84</course>
  <speed>0.04242640687119285</speed>
  <fix>3d</fix>
</trkpt>
<trkpt lat="40.0728426" lon="-105.2305753">
  <ele>1592.9</ele>
  <time>2026-08-28T19:08:39Z</time>
  <course>130.29</course>
  <speed>0.02</speed>
  <fix>3d</fix>
</trkpt>
<trkpt lat="40.0728424" lon="-105.2305751">
  <ele>1592.8</ele>
  <time>2026-08-28T19:08:39Z</time>
  <course>11.83</course>
  <speed>0.03605551275463989</speed>
  <fix>3d</fix>
</trkpt>
<trkpt lat="40.0728426" lon="-105.2305753">
  <ele>1592.81</ele>
  <time>2026-08-28T19:08:39Z</time>
  <course>140.84</course>
  <speed>0.02</speed>
  <fix>3d</fix>
</trkpt>
<trkpt lat="40.0728424" lon="-105.2305751">
  <ele>1592.7</ele>
  <time>2026-08-28T19:08:39Z</time>
  <course>11.83</course>
  <speed>0.044721359549995794</speed>
  <fix>3d</fix>
</trkpt>
<trkpt lat="40.0728426" lon="-105.2305752">
  <ele>1592.71</ele>
  <time>2026-08-28T19:08:39Z</time>
  <course>151.39</course>
  <speed>0.02</speed>
  <fix>3d</fix>
</trkpt>
<trkpt lat="40.0728423" lon="-105.2305751">
  <ele>1592.6</ele>
  <time>2026-08-28T19:08:39Z</time>
  <course>11.81</course>
  <speed>0.044721359549995794</speed>
  <fix>3d</fix>
</trkpt>
<trkpt lat="40.0728425" lon="-105.2305751">
  <ele>1592.61</ele>
  <time>2026-08-28T19:08:39Z</time>
  <course>161.4</course>
  <speed>0.02</speed>
  <fix>3d</fix>
</trkpt>
<trkpt lat="40.0728423" lon="-105.230575">
  <ele>1592.5</ele>
  <time>2026-08-28T19:08:39Z</time>
  <course>11.81</course>
  <speed>0.0412310562561766</speed>
  <fix>3d</fix>
</trkpt>
<trkpt lat="40.0728425" lon="-105.2305751">
  <ele>1592.51</ele>
  <time>2026-08-28T19:08:39Z</time>
  <course>170.71</course>
  <speed>0.02</speed>
  <fix>3d</fix>
</trkpt>
<trkpt lat="40.0728423" lon="-105.230575">
  <ele>1592.4</ele>
  <time>2026-08-28T19:08:39Z</time>
  <course>11.8</course>
  <speed>0.0412310562561766</speed>
  <fix>3d</fix>
</trkpt>
<trkpt lat="40.0728424" lon="-105.2305751">
  <ele>1592.4</ele>
  <time>2026-08-28T19:08:39Z</time>
  <course>179.04</course>
  <speed>0.02</speed>
  <fix>3d</fix>
</trkpt>
<trkpt lat="40.0728422" lon="-105.230575">
  <ele>1592.3</ele>
  <time>2026-08-28T19:08:39Z</time>
  <course>11.78</course>
  <speed>0.0316227766016838</speed>
  <fix>3d</fix>
</trkpt>
<trkpt lat="40.0728424" lon="-105.2305751">
  <ele>1592.31</ele>
  <time>2026-08-28T19:08:39Z</time>
  <course>186.05</course>
  <speed>0.02</speed>
  <fix>3d</fix>
</trkpt>
<trkpt lat="40.0728422" lon="-105.230575">
  <ele>1592.2</ele>
  <time>2026-08-28T19:08:39Z</time>
  <course>11.77</course>
  <speed>0.0316227766016838</speed>
  <fix>3d</fix>
</trkpt>
<trkpt lat="40.0728424" lon="-105.2305751">
  <ele>1592.21</ele>
  <time>2026-08-28T19:08:39Z</time>
  <course>193.06</course>
  <speed>0.02</speed>
  <fix>3d</fix>
</trkpt>
<trkpt lat="40.0728422" lon="-105.2305751">
  <ele>1592.1</ele>
  <time>2026-08-28T19:08:39Z</time>
  <course>11.76</course>
  <speed>0.0316227766016838</speed>
  <fix>3d</fix>
</trkpt>
<trkpt lat="40.0728423" lon="-105.2305751">
  <ele>1592.11</ele>
  <time>2026-08-28T19:08:39Z</time>
  <course>200.91</course>
  <speed>0.02</speed>
  <fix>3d</fix>
</trkpt>
<trkpt lat="40.0728422" lon="-105.2305751">
  <ele>1592.0</ele>
  <time>2026-08-28T19:08:39Z</time>
  <course>11.76</course>
  <speed>0.03</speed>
  <fix>3d</fix>
</trkpt>
<trkpt lat="40.0728423" lon="-105.2305751">
  <ele>1592.01</ele>
  <time>2026-08-28T19:08:39Z</time>
  <course>208.5</course>
  <speed>0.01</speed>
  <fix>3d</fix>
</trkpt>
<trkpt lat="40.0728421" lon="-105.2305751">
  <ele>1591.9</ele>
  <time>2026-08-28T19:08:39Z</time>
  <course>11.76</course>
  <speed>0.03</speed>
  <fix>3d</fix>
</trkpt>
<trkpt lat="40.0728423" lon="-105.2305751">
  <ele>1591.9</ele>
  <time>2026-08-28T19:08:39Z</time>
  <course>215.91</course>
  <speed>0.01</speed>
  <fix>3d</fix>
</trkpt>
<trkpt lat="40.0728421" lon="-105.2305751">
  <ele>1591.8</ele>
  <time>2026-08-28T19:08:39Z</time>
  <course>11.75</course>
  <speed>0.02</speed>
  <fix>3d</fix>
</trkpt>
<trkpt lat="40.0728423" lon="-105.2305751">
  <ele>1591.81</ele>
  <time>2026-08-28T19:08:39Z</time>
  <course>224.17</course>
  <speed>0.01</speed>
  <fix>3d</fix>
</trkpt>
<trkpt lat="40.0728421" lon="-105.2305751">
  <ele>1591.7</ele>
  <time>2026-08-28T19:08:39Z</time>
  <course>11.73</course>
  <speed>0.02</speed>
  <fix>3d</fix>
</trkpt>
<trkpt lat="40.0728422" lon="-105.2305752">
  <ele>1591.7</ele>
  <time>2026-08-28T19:08:39Z</time>
  <course>232.85</course>
  <speed>0.01</speed>
  <fix>3d</fix>
</trkpt>
<trkpt lat="40.0728421" lon="-105.2305751">
  <ele>1591.6</ele>
  <time>2026-08-28T19:08:39Z</time>
  <course>11.72</course>
  <speed>0.02</speed>
  <fix>3d</fix>
</trkpt>
<trkpt lat="40.0728421" lon="-105.2305753">
  <ele>1591.6</ele>
  <time>2026-08-28T19:08:39Z</time>
  <course>241.52</course>
  <speed>0.01</speed>
  <fix>3d</fix>
</trkpt>
<trkpt lat="40.0728421" lon="-105.2305751">
  <ele>1591.49</ele>
  <time>2026-08-28T19:08:39Z</time>
  <course>11.71</course>
  <speed>0.02</speed>
  <fix>3d</fix>
</trkpt>
<trkpt lat="40.0728421" lon="-105.2305753">
  <ele>1591.5</ele>
  <time>2026-08-28T19:08:39Z</time>
  <course>250.31</course>
  <speed>0.01</speed>
  <fix>3d</fix>
</trkpt>
<trkpt lat="40.0728421" lon="-105.2305751">
  <ele>1591.4</ele>
  <time>2026-08-28T19:08:39Z</time>
  <course>11.72</course>
  <speed>0.01</speed>
  <fix>3d</fix>
</trkpt>
<trkpt lat="40.0728421" lon="-105.2305753">
  <ele>1591.4</ele>
  <time>2026-08-28T19:08:39Z</time>
  <course>259.77</course>
  <speed>0.01</speed>
  <fix>3d</fix>
</trkpt>
<trkpt lat="40.0728421" lon="-105.2305751">
  <ele>1591.3</ele>
  <time>2026-08-28T19:08:39Z</time>
  <course>11.71</course>
  <speed>0.01</speed>
  <fix>3d</fix>
</trkpt>
<trkpt lat="40.0728421" lon="-105.2305753">
  <ele>1591.31</ele>
  <time>2026-08-28T19:08:39Z</time>
  <course>270.56</course>
  <speed>0.01</speed>
  <fix>3d</fix>
</trkpt>
<trkpt lat="40.0728421" lon="-105.2305752">
  <ele>1591.19</ele>
  <time>2026-08-28T19:08:39Z</time>
  <course>11.7</course>
  <speed>0.01</speed>
  <fix>3d</fix>
</trkpt>
<trkpt lat="40.0728421" lon="-105.2305753">
  <ele>1591.21</ele>
  <time>2026-08-28T19:08:39Z</time>
  <course>282.72</course>
  <speed>0.01</speed>
  <fix>3d</fix>
</trkpt>
<trkpt lat="40.0728421" lon="-105.2305752">
  <ele>1591.09</ele>
  <time>2026-08-28T19:08:39Z</time>
  <course>11.69</course>
  <speed>0.01414213562373095</speed>
  <fix>3d</fix>
</trkpt>
<trkpt lat="40.0728421" lon="-105.2305754">
  <ele>1591.11</ele>
  <time>2026-08-28T19:08:39Z</time>
  <course>295.0</course>
  <speed>0.01</speed>
  <fix>3d</fix>
</trkpt>
<trkpt lat="40.0728421" lon="-105.2305752">
  <ele>1590.99</ele>
  <time>2026-08-28T19:08:39Z</time>
  <course>11.68</course>
  <speed>0.01414213562373095</speed>
  <fix>3d</fix>
</trkpt>
<trkpt lat="40.0728421" lon="-105.2305755">
  <ele>1591.01</ele>
  <time>2026-08-28T19:08:39Z</time>
  <course>306.26</course>
  <speed>0.01</speed>
  <fix>3d</fix>
</trkpt>
<trkpt lat="40.0728421" lon="-105.2305752">
  <ele>1590.9</ele>
  <time>2026-08-28T19:08:39Z</time>
  <course>11.67</course>
  <speed>0.01</speed>
  <fix>3d</fix>
</trkpt>
<trkpt lat="40.0728421" lon="-105.2305755">
  <ele>1590.9</ele>
  <time>2026-08-28T19:08:39Z</time>
  <course>315.68</course>
  <speed>0.01</speed>
  <fix>3d</fix>
</trkpt>
<trkpt lat="40.0728421" lon="-105.2305752">
  <ele>1590.8</ele>
  <time>2026-08-28T19:08:39Z</time>
  <course>11.67</course>
  <speed>0.01</speed>
  <fix>3d</fix>
</trkpt>
<trkpt lat="40.0728421" lon="-105.2305755">
  <ele>1590.81</ele>
  <time>2026-08-28T19:08:39Z</time>
  <course>323.42</course>
  <speed>0.01</speed>
  <fix>3d</fix>
</trkpt>
<trkpt lat="40.0728421" lon="-105.2305753">
  <ele>1590.7</ele>
  <time>2026-08-28T19:08:39Z</time>
  <course>11.67</course>
  <speed>0.01</speed>
  <fix>3d</fix>
</trkpt>
<trkpt lat="40.0728421" lon="-105.2305755">
  <ele>1590.71</ele>
  <time>2026-08-28T19:08:39Z</time>
  <course>331.0</course>
  <speed>0.01</speed>
  <fix>3d</fix>
</trkpt>
<trkpt lat="40.0728421" lon="-105.2305753">
  <ele>1590.59</ele>
  <time>2026-08-28T19:08:39Z</time>
  <course>11.66</course>
  <speed>0.01</speed>
  <fix>3d</fix>
</trkpt>
<trkpt lat="40.0728421" lon="-105.2305755">
  <ele>1590.61</ele>
  <time>2026-08-28T19:08:39Z</time>
  <course>339.36</course>
  <speed>0.01</speed>
  <fix>3d</fix>
</trkpt>
<trkpt lat="40.0728421" lon="-105.2305753">
  <ele>1590.5</ele>
  <time>2026-08-28T19:08:39Z</time>
  <course>11.66</course>
  <speed>0.01</speed>
  <fix>3d</fix>
</trkpt>
<trkpt lat="40.0728422" lon="-105.2305756">
  <ele>1590.51</ele>
  <time>2026-08-28T19:08:39Z</time>
  <course>347.39</course>
  <speed>0.01</speed>
  <fix>3d</fix>
</trkpt>
<trkpt lat="40.0728421" lon="-105.2305753">
  <ele>1590.39</ele>
  <time>2026-08-28T19:08:39Z</time>
  <course>11.66</course>
  <speed>0.01</speed>
  <fix>3d</fix>
</trkpt>
<trkpt lat="40.0728423" lon="-105.2305756">
  <ele>1590.4</ele>
  <time>2026-08-28T19:08:39Z</time>
  <course>353.8</course>
  <speed>0.01</speed>
  <fix>3d</fix>
</trkpt>
<trkpt lat="40.0728421" lon="-105.2305753">
  <ele>1590.29</ele>
  <time>2026-08-28T19:08:39Z</time>
  <course>11.66</course>
  <speed>0.02</speed>
  <fix>3d</fix>
</trkpt>
<trkpt lat="40.0728423" lon="-105.2305756">
  <ele>1590.31</ele>
  <time>2026-08-28T19:08:39Z</time>
  <course>359.03</course>
  <speed>0.01</speed>
  <fix>3d</fix>
</trkpt>
<trkpt lat="40.0728421" lon="-105.2305753">
  <ele>1590.19</ele>
  <time>2026-08-28T19:08:39Z</time>
  <course>11.65</course>
  <speed>0.02</speed>
  <fix>3d</fix>
</trkpt>
<trkpt lat="40.0728423" lon="-105.2305756">
  <ele>1590.21</ele>
  <time>2026-08-28T19:08:39Z</time>
  <course>4.13</course>
  <speed>0.01</speed>
  <fix>3d</fix>
</trkpt>
<trkpt lat="40.0728421" lon="-105.2305753">
  <ele>1590.09</ele>
  <time>2026-08-28T19:08:39Z</time>
  <course>11.64</course>
  <speed>0.02</speed>
  <fix>3d</fix>
</trkpt>
<trkpt lat="40.0728423" lon="-105.2305756">
  <ele>1590.11</ele>
  <time>2026-08-28T19:08:39Z</time>
  <course>9.72</course>
  <speed>0.01</speed>
  <fix>3d</fix>
</trkpt>
<trkpt lat="40.0728422" lon="-105.2305753">
  <ele>1589.99</ele>
  <time>2026-08-28T19:08:39Z</time>
  <course>11.64</course>
  <speed>0.022360679774997897</speed>
  <fix>3d</fix>
</trkpt>
<trkpt lat="40.0728424" lon="-105.2305756">
  <ele>1590.01</ele>
  <time>2026-08-28T19:08:39Z</time>
  <course>15.98</course>
  <speed>0.01</speed>
  <fix>3d</fix>
</trkpt>
<trkpt lat="40.0728422" lon="-105.2305753">
  <ele>1589.9</ele>
  <time>2026-08-28T19:08:39Z</time>
  <course>11.63</course>
  <speed>0.022360679774997897</speed>
  <fix>3d</fix>
</trkpt>
<trkpt lat="40.0728424" lon="-105.2305756">
  <ele>1589.9</ele>
  <time>2026-08-28T19:08:39Z</time>
  <course>24.47</course>
  <speed>0.01</speed>
  <fix>3d</fix>
</trkpt>
<trkpt lat="40.0728422" lon="-105.2305753">
  <ele>1589.8</ele>
  <time>2026-08-28T19:08:39Z</time>
  <course>11.63</course>
  <speed>0.022360679774997897</speed>
  <fix>3d</fix>
</trkpt>
<trkpt lat="40.0728424" lon="-105.2305756">
  <ele>1589.81</ele>
  <time>2026-08-28T19:08:39Z</time>
  <course>34.96</course>
  <speed>0.01</speed>
  <fix>3d</fix>
</trkpt>
<trkpt lat="40.0728422" lon="-105.2305753">
  <ele>1589.7</ele>
  <time>2026-08-28T19:08:39Z</time>
  <course>11.62</course>
  <speed>0.022360679774997897</speed>
  <fix>3d</fix>
</trkpt>
<trkpt lat="40.0728424" lon="-105.2305756">
  <ele>1589.71</ele>
  <time>2026-08-28T19:08:39Z</time>
  <course>46.75</course>
  <speed>0.0</speed>
  <fix>3d</fix>
</trkpt>
<trkpt lat="40.0728422" lon="-105.2305753">
  <ele>1589.6</ele>
  <time>2026-08-28T19:08:39Z</time>
  <course>11.62</course>
  <speed>0.022360679774997897</speed>
  <fix>3d</fix>
</trkpt>
<trkpt lat="40.0728424" lon="-105.2305756">
  <ele>1589.61</ele>
  <time>2026-08-28T19:08:39Z</time>
  <course>61.36</course>
  <speed>0.0</speed>
  <fix>3d</fix>
</trkpt>
<trkpt lat="40.0728422" lon="-105.2305753">
  <ele>1589.5</ele>
  <time>2026-08-28T19:08:39Z</time>
  <course>11.62</course>
  <speed>0.0282842712474619</speed>
  <fix>3d</fix>
</trkpt>
<trkpt lat="40.0728424" lon="-105.2305756">
  <ele>1589.51</ele>
  <time>2026-08-28T19:08:39Z</time>
  <course>76.56</course>
  <speed>0.0</speed>
  <fix>3d</fix>
</trkpt>
<trkpt lat="40.0728422" lon="-105.2305753">
  <ele>1589.4</ele>
  <time>2026-08-28T19:08:39Z</time>
  <course>11.62</course>
  <speed>0.0282842712474619</speed>
  <fix>3d</fix>
</trkpt>
<trkpt lat="40.0728424" lon="-105.2305755">
  <ele>1589.4</ele>
  <time>2026-08-28T19:08:39Z</time>
  <course>89.96</course>
  <speed>0.0</speed>
  <fix>3d</fix>
</trkpt>
<trkpt lat="40.0728422" lon="-105.2305753">
  <ele>1589.3</ele>
  <time>2026-08-28T19:08:39Z</time>
  <course>11.63</course>
  <speed>0.0282842712474619</speed>
  <fix>3d</fix>
</trkpt>
<trkpt lat="40.0728424" lon="-105.2305755">
  <ele>1589.31</ele>
  <time>2026-08-28T19:08:39Z</time>
  <course>100.08</course>
  <speed>0.0</speed>
  <fix>3d</fix>
</trkpt>
<trkpt lat="40.0728422" lon="-105.2305753">
  <ele>1589.2</ele>
  <time>2026-08-28T19:08:39Z</time>
  <course>11.62</course>
  <speed>0.0282842712474619</speed>
  <fix>3d</fix>
</trkpt>
<trkpt lat="40.0728424" lon="-105.2305755">
  <ele>1589.21</ele>
  <time>2026-08-28T19:08:39Z</time>
  <course>108.71</course>
  <speed>0.01</speed>
  <fix>3d</fix>
</trkpt>
<trkpt lat="40.0728422" lon="-105.2305753">
  <ele>1589.1</ele>
  <time>2026-08-28T19:08:39Z</time>
  <course>11.61</course>
  <speed>0.0282842712474619</speed>
  <fix>3d</fix>
</trkpt>
<trkpt lat="40.0728424" lon="-105.2305755">
  <ele>1589.11</ele>
  <time>2026-08-28T19:08:39Z</time>
  <course>116.1</course>
  <speed>0.01</speed>
  <fix>3d</fix>
</trkpt>
<trkpt lat="40.0728422" lon="-105.2305753">
  <ele>1589.0</ele>
  <time>2026-08-28T19:08:39Z</time>
  <course>11.63</course>
  <speed>0.0282842712474619</speed>
  <fix>3d</fix>
</trkpt>
<trkpt lat="40.0728424" lon="-105.2305755">
  <ele>1589.01</ele>
  <time>2026-08-28T19:08:39Z</time>
  <course>121.64</course>
  <speed>0.01</speed>
  <fix>3d</fix>
</trkpt>
<trkpt lat="40.0728422" lon="-105.2305753">
  <ele>1588.9</ele>
  <time>2026-08-28T19:08:39Z</time>
  <course>11.61</course>
  <speed>0.0282842712474619</speed>
  <fix>3d</fix>
</trkpt>
<trkpt lat="40.0728424" lon="-105.2305754">
  <ele>1588.9</ele>
  <time>2026-08-28T19:08:39Z</time>
  <course>126.39</course>
  <speed>0.01</speed>
  <fix>3d</fix>
</trkpt>
<trkpt lat="40.0728422" lon="-105.2305753">
  <ele>1588.8</ele>
  <time>2026-08-28T19:08:39Z</time>
  <course>11.6</course>
  <speed>0.0282842712474619</speed>
  <fix>3d</fix>
</trkpt>
<trkpt lat="40.0728424" lon="-105.2305753">
  <ele>1588.8</ele>
  <time>2026-08-28T19:08:39Z</time>
  <course>130.05</course>
  <speed>0.01</speed>
  <fix>3d</fix>
</trkpt>
<trkpt lat="40.0728422" lon="-105.2305752">
  <ele>1588.7</ele>
  <time>2026-08-28T19:08:39Z</time>
  <course>11.59</course>
  <speed>0.0282842712474619</speed>
  <fix>3d</fix>
</trkpt>
<trkpt lat="40.0728424" lon="-105.2305753">
  <ele>1588.7</ele>
  <time>2026-08-28T19:08:39Z</time>
  <course>133.66</course>
  <speed>0.01</speed>
  <fix>3d</fix>
</trkpt>
<trkpt lat="40.0728422" lon="-105.2305752">
  <ele>1588.6</ele>
  <time>2026-08-28T19:08:39Z</time>
  <course>11.58</course>
  <speed>0.0282842712474619</speed>
  <fix>3d</fix>
</trkpt>
<trkpt lat="40.0728424" lon="-105.2305753">
  <ele>1588.6</ele>
  <time>2026-08-28T19:08:39Z</time>
  <course>137.35</course>
  <speed>0.0</speed>
  <fix>3d</fix>
</trkpt>
<trkpt lat="40.0728422" lon="-105.2305752">
  <ele>1588.5</ele>
  <time>2026-08-28T19:08:39Z</time>
  <course>11.58</course>
  <speed>0.0282842712474619</speed>
  <fix>3d</fix>
</trkpt>
<trkpt lat="40.0728424" lon="-105.2305753">
  <ele>1588.5</ele>
  <time>2026-08-28T19:08:39Z</time>
  <course>142.95</course>
  <speed>0.0</speed>
  <fix>3d</fix>
</trkpt>
<trkpt lat="40.0728422" lon="-105.2305752">
  <ele>1588.4</ele>
  <time>2026-08-28T19:08:39Z</time>
  <course>11.58</course>
  <speed>0.022360679774997897</speed>
  <fix>3d</fix>
</trkpt>
<trkpt lat="40.0728424" lon="-105.2305753">
  <ele>1588.39</ele>
  <time>2026-08-28T19:08:39Z</time>
  <course>151.78</course>
  <speed>0.0</speed>
  <fix>3d</fix>
</trkpt>
<trkpt lat="40.0728422" lon="-105.2305752">
  <ele>1588.29</ele>
  <time>2026-08-28T19:08:39Z</time>
  <course>11.57</course>
  <speed>0.022360679774997897</speed>
  <fix>3d</fix>
</trkpt>
<trkpt lat="40.0728424" lon="-105.2305753">
  <ele>1588.3</ele>
  <time>2026-08-28T19:08:39Z</time>
  <course>163.52</course>
  <speed>0.0</speed>
  <fix>3d</fix>
</trkpt>
<trkpt lat="40.0728422" lon="-105.2305752">
  <ele>1588.19</ele>
  <time>2026-08-28T19:08:39Z</time>
  <course>11.57</course>
  <speed>0.022360679774997897</speed>
  <fix>3d</fix>
</trkpt>
<trkpt lat="40.0728424" lon="-105.2305753">
  <ele>1588.2</ele>
  <time>2026-08-28T19:08:39Z</time>
  <course>175.45</course>
  <speed>0.0</speed>
  <fix>3d</fix>
</trkpt>
<trkpt lat="40.0728422" lon="-105.2305752">
  <ele>1588.09</ele>
  <time>2026-08-28T19:08:39Z</time>
  <course>11.56</course>
  <speed>0.022360679774997897</speed>
  <fix>3d</fix>
</trkpt>
<trkpt lat="40.0728424" lon="-105.2305753">
  <ele>1588.1</ele>
  <time>2026-08-28T19:08:39Z</time>
  <course>184.27</course>
  <speed>0.0</speed>
  <fix>3d</fix>
</trkpt>
<trkpt lat="40.0728422" lon="-105.2305752">
  <ele>1587.99</ele>
  <time>2026-08-28T19:08:39Z</time>
  <course>11.55</course>
  <speed>0.022360679774997897</speed>
  <fix>3d</fix>
</trkpt>
<trkpt lat="40.0728424" lon="-105.2305753">
  <ele>1588.0</ele>
  <time>2026-08-28T19:08:39Z</time>
  <course>191.78</course>
  <speed>0.0</speed>
  <fix>3d</fix>
</trkpt>
<trkpt lat="40.0728422" lon="-105.2305752">
  <ele>1587.89</ele>
  <time>2026-08-28T19:08:39Z</time>
  <course>11.55</course>
  <speed>0.022360679774997897</speed>
  <fix>3d</fix>
</trkpt>
<trkpt lat="40.0728424" lon="-105.2305753">
  <ele>1587.89</ele>
  <time>2026-08-28T19:08:39Z</time>
  <course>198.95</course>
  <speed>0.0</speed>
  <fix>3d</fix>
</trkpt>
<trkpt lat="40.0728422" lon="-105.2305752">
  <ele>1587.79</ele>
  <time>2026-08-28T19:08:39Z</time>
  <course>11.55</course>
  <speed>0.022360679774997897</speed>
  <fix>3d</fix>
</trkpt>
<trkpt lat="40.0728424" lon="-105.2305753">
  <ele>1587.8</ele>
  <time>2026-08-28T19:08:39Z</time>
  <course>204.37</course>
  <speed>0.0</speed>
  <fix>3d</fix>
</trkpt>
<trkpt lat="40.0728422" lon="-105.2305752">
  <ele>1587.69</ele>
  <time>2026-08-28T19:08:39Z</time>
  <course>11.55</course>
  <speed>0.022360679774997897</speed>
  <fix>3d</fix>
</trkpt>
<trkpt lat="40.0728424" lon="-105.2305753">
  <ele>1587.7</ele>
  <time>2026-08-28T19:08:39Z</time>
  <course>208.12</course>
  <speed>0.0</speed>
  <fix>3d</fix>
</trkpt>
<trkpt lat="40.0728422" lon="-105.2305752">
  <ele>1587.59</ele>
  <time>2026-08-28T19:08:39Z</time>
  <course>11.54</course>
  <speed>0.022360679774997897</speed>
  <fix>3d</fix>
</trkpt>
<trkpt lat="40.0728423" lon="-105.2305753">
  <ele>1587.6</ele>
  <time>2026-08-28T19:08:39Z</time>
  <course>211.24</course>
  <speed>0.0</speed>
  <fix>3d</fix>
</trkpt>
<trkpt lat="40.0728422" lon="-105.2305752">
  <ele>1587.49</ele>
  <time>2026-08-28T19:08:39Z</time>
  <course>11.53</course>
  <speed>0.022360679774997897</speed>
  <fix>3d</fix>
</trkpt>
<trkpt lat="40.0728423" lon="-105.2305753">
  <ele>1587.5</ele>
  <time>2026-08-28T19:08:39Z</time>
  <course>214.01</course>
  <speed>0.0</speed>
  <fix>3d</fix>
</trkpt>
<trkpt lat="40.0728422" lon="-105.2305752">
  <ele>1587.39</ele>
  <time>2026-08-28T19:08:39Z</time>
  <course>11.53</course>
  <speed>0.022360679774997897</speed>
  <fix>3d</fix>
</trkpt>
<trkpt lat="40.0728423" lon="-105.2305753">
  <ele>1587.39</ele>
  <time>2026-08-28T19:08:39Z</time>
  <course>216.62</course>
  <speed>0.0</speed>
  <fix>3d</fix>
</trkpt>
<trkpt lat="40.0728422" lon="-105.2305752">
  <ele>1587.3</ele>
  <time>2026-08-28T19:08:39Z</time>
  <course>11.53</course>
  <speed>0.022360679774997897</speed>
  <fix>3d</fix>
</trkpt>
<trkpt lat="40.0728423" lon="-105.2305753">
  <ele>1587.3</ele>
  <time>2026-08-28T19:08:39Z</time>
  <course>219.25</course>
  <speed>0.0</speed>
  <fix>3d</fix>
</trkpt>
<trkpt lat="40.0728422" lon="-105.2305752">
  <ele>1587.2</ele>
  <time>2026-08-28T19:08:39Z</time>
  <course>11.54</course>
  <speed>0.022360679774997897</speed>
  <fix>3d</fix>
</trkpt>
<trkpt lat="40.0728423" lon="-105.2305753">
  <ele>1587.2</ele>
  <time>2026-08-28T19:08:39Z</time>
  <course>223.54</course>
  <speed>0.0</speed>
  <fix>3d</fix>
</trkpt>
<trkpt lat="40.0728422" lon="-105.2305752">
  <ele>1587.1</ele>
  <time>2026-08-28T19:08:39Z</time>
  <course>11.54</course>
  <speed>0.022360679774997897</speed>
  <fix>3d</fix>
</trkpt>
<trkpt lat="40.0728423" lon="-105.2305753">
  <ele>1587.1</ele>
  <time>2026-08-28T19:08:39Z</time>
  <course>230.74</course>
  <speed>0.0</speed>
  <fix>3d</fix>
</trkpt>
<trkpt lat="40.0728422" lon="-105.2305752">
  <ele>1587.0</ele>
  <time>2026-08-28T19:08:39Z</time>
  <course>11.54</course>
  <speed>0.01414213562373095</speed>
  <fix>3d</fix>
</trkpt>
<trkpt lat="40.0728423" lon="-105.2305753">
  <ele>1587.0</ele>
  <time>2026-08-28T19:08:39Z</time>
  <course>237.16</course>
  <speed>0.0</speed>
  <fix>3d</fix>
</trkpt>
<trkpt lat="40.0728422" lon="-105.2305752">
  <ele>1586.9</ele>
  <time>2026-08-28T19:08:39Z</time>
  <course>11.53</course>
  <speed>0.01414213562373095</speed>
  <fix>3d</fix>
</trkpt>
<trkpt lat="40.0728423" lon="-105.2305753">
  <ele>1586.89</ele>
  <time>2026-08-28T19:08:39Z</time>
  <course>242.54</course>
  <speed>0.0</speed>
  <fix>3d</fix>
</trkpt>
<trkpt lat="40.0728422" lon="-105.2305752">
  <ele>1586.81</ele>
  <time>2026-08-28T19:08:39Z</time>
  <course>11.53</course>
  <speed>0.01414213562373095</speed>
  <fix>3d</fix>
</trkpt>
<trkpt lat="40.0728423" lon="-105.2305753">
  <ele>1586.8</ele>
  <time>2026-08-28T19:08:39Z</time>
  <course>248.68</course>
  <speed>0.0</speed>
  <fix>3d</fix>
</trkpt>
<trkpt lat="40.0728422" lon="-105.2305752">
  <ele>1586.71</ele>
  <time>2026-08-28T19:08:39Z</time>
  <course>11.55</course>
  <speed>0.01414213562373095</speed>
  <fix>3d</fix>
</trkpt>
<trkpt lat="40.0728423" lon="-105.2305753">
  <ele>1586.7</ele>
  <time>2026-08-28T19:08:39Z</time>
  <course>251.43</course>
  <speed>0.0</speed>
  <fix>3d</fix>
</trkpt>
<trkpt lat="40.0728422" lon="-105.2305752">
  <ele>1586.61</ele>
  <time>2026-08-28T19:08:39Z</time>
  <course>11.55</course>
  <speed>0.01414213562373095</speed>
  <fix>3d</fix>
</trkpt>
<trkpt lat="40.0728423" lon="-105.2305753">
  <ele>1586.6</ele>
  <time>2026-08-28T19:08:39Z</time>
  <course>252.76</course>
  <speed>0.0</speed>
  <fix>3d</fix>
</trkpt>
<trkpt lat="40.0728422" lon="-105.2305752">
  <ele>1586.5</ele>
  <time>2026-08-28T19:08:39Z</time>
  <course>11.52</course>
  <speed>0.01414213562373095</speed>
  <fix>3d</fix>
</trkpt>
<trkpt lat="40.0728423" lon="-105.2305753">
  <ele>1586.5</ele>
  <time>2026-08-28T19:08:39Z</time>
  <course>255.77</course>
  <speed>0.0</speed>
  <fix>3d</fix>
</trkpt>
<trkpt lat="40.0728422" lon="-105.2305752">
  <ele>1586.4</ele>
  <time>2026-08-28T19:08:39Z</time>
  <course>11.53</course>
  <speed>0.01414213562373095</speed>
  <fix>3d</fix>
</trkpt>
<trkpt lat="40.0728423" lon="-105.2305753">
  <ele>1586.39</ele>
  <time>2026-08-28T19:08:39Z</time>
  <course>261.27</course>
  <speed>0.0</speed>
  <fix>3d</fix>
</trkpt>
<trkpt lat="40.0728422" lon="-105.2305752">
  <ele>1586.3</ele>
  <time>2026-08-28T19:08:39Z</time>
  <course>11.52</course>
  <speed>0.01414213562373095</speed>
  <fix>3d</fix>
</trkpt>
<trkpt lat="40.0728423" lon="-105.2305754">
  <ele>1586.29</ele>
  <time>2026-08-28T19:08:39Z</time>
  <course>266.98</course>
  <speed>0.0</speed>
  <fix>3d</fix>
</trkpt>
<trkpt lat="40.0728422" lon="-105.2305752">
  <ele>1586.2</ele>
  <time>2026-08-28T19:08:39Z</time>
  <course>11.51</course>
  <speed>0.01414213562373095</speed>
  <fix>3d</fix>
</trkpt>
<trkpt lat="40.0728423" lon="-105.2305755">
  <ele>1586.19</ele>
  <time>2026-08-28T19:08:39Z</time>
  <course>268.84</course>
  <speed>0.0</speed>
  <fix>3d</fix>
</trkpt>
<trkpt lat="40.0728422" lon="-105.2305752">
  <ele>1586.17</ele>
  <time>2026-08-28T19:08:39Z</time>
  <course>11.52</course>
  <speed>0.01</speed>
  <fix>3d</fix>
</trkpt>
<trkpt lat="40.0728423" lon="-105.2305755">
  <ele>1586.1</ele>
  <time>2026-08-28T19:08:39Z</time>
  <course>278.22</course>
  <speed>0.01</speed>
  <fix>3d</fix>
</trkpt>
<trkpt lat="40.0728422" lon="-105.2305752">
  <ele>1586.2</ele>
  <time>2026-08-28T19:08:39Z</time>
  <course>11.56</course>
  <speed>0.022360679774997897</speed>
  <fix>3d</fix>
</trkpt>
<trkpt lat="40.0728423" lon="-105.2305755">
  <ele>1586.08</ele>
  <time>2026-08-28T19:08:39Z</time>
  <course>286.7</course>
  <speed>0.01</speed>
  <fix>3d</fix>
</trkpt>
<trkpt lat="40.0728422" lon="-105.2305753">
  <ele>1586.2</ele>
  <time>2026-08-28T19:08:39Z</time>
  <course>11.59</course>
  <speed>0.022360679774997897</speed>
  <fix>3d</fix>
</trkpt>
<trkpt lat="40.0728423" lon="-105.2305755">
  <ele>1586.09</ele>
  <time>2026-08-28T19:08:39Z</time>
  <course>35.64</course>
  <speed>0.0</speed>
  <fix>3d</fix>
</trkpt>
<trkpt lat="40.0728422" lon="-105.2305753">
  <ele>1586.19</ele>
  <time>2026-08-28T19:08:39Z</time>
  <course>11.6</course>
  <speed>0.01414213562373095</speed>
  <fix>3d</fix>
</trkpt>
<trkpt lat="40.0728423" lon="-105.2305755">
  <ele>1586.09</ele>
  <time>2026-08-28T19:08:39Z</time>
  <course>96.54</course>
  <speed>0.0</speed>
  <fix>3d</fix>
</trkpt>
<trkpt lat="40.0728422" lon="-105.2305753">
  <ele>1586.2</ele>
  <time>2026-08-28T19:08:39Z</time>
  <course>11.62</course>
  <speed>0.01414213562373095</speed>
  <fix>3d</fix>
</trkpt>
<trkpt lat="40.0728423" lon="-105.2305755">
  <ele>1586.09</ele>
  <time>2026-08-28T19:08:39Z</time>
  <course>349.63</course>
  <speed>0.0</speed>
  <fix>3d</fix>
</trkpt>
<trkpt lat="40.0728422" lon="-105.2305753">
  <ele>1586.2</ele>
  <time>2026-08-28T19:08:39Z</time>
  <course>11.64</course>
  <speed>0.01414213562373095</speed>
  <fix>3d</fix>
</trkpt>
<trkpt lat="40.0728423" lon="-105.2305755">
  <ele>1586.09</ele>
  <time>2026-08-28T19:08:39Z</time>
  <course>356.07</course>
  <speed>0.0</speed>
  <fix>3d</fix>
</trkpt>
<trkpt lat="40.0728422" lon="-105.2305753">
  <ele>1586.2</ele>
  <time>2026-08-28T19:08:39Z</time>
  <course>11.65</course>
  <speed>0.01414213562373095</speed>
  <fix>3d</fix>
</trkpt>
<trkpt lat="40.0728423" lon="-105.2305755">
  <ele>1586.09</ele>
  <time>2026-08-28T19:08:39Z</time>
  <course>13.48</course>
  <speed>0.0</speed>
  <fix>3d</fix>
</trkpt>
<trkpt lat="40.0728422" lon="-105.2305753">
  <ele>1586.2</ele>
  <time>2026-08-28T19:08:39Z</time>
  <course>11.67</course>
  <speed>0.01414213562373095</speed>
  <fix>3d</fix>
</trkpt>
<trkpt lat="40.0728423" lon="-105.2305755">
  <ele>1586.09</ele>
  <time>2026-08-28T19:08:39Z</time>
  <course>357.51</course>
  <speed>0.0</speed>
  <fix>3d</fix>
</trkpt>
<trkpt lat="40.0728422" lon="-105.2305753">
  <ele>1586.2</ele>
  <time>2026-08-28T19:08:39Z</time>
  <course>11.68</course>
  <speed>0.01414213562373095</speed>
  <fix>3d</fix>
</trkpt>
<trkpt lat="40.0728423" lon="-105.2305755">
  <ele>1586.09</ele>
  <time>2026-08-28T19:08:39Z</time>
  <course>12.49</course>
  <speed>0.0</speed>
  <fix>3d</fix>
</trkpt>
<trkpt lat="40.0728422" lon="-105.2305753">
  <ele>1586.2</ele>
  <time>2026-08-28T19:08:39Z</time>
  <course>11.7</course>
  <speed>0.01414213562373095</speed>
  <fix>3d</fix>
</trkpt>
<trkpt lat="40.0728423" lon="-105.2305755">
  <ele>1586.09</ele>
  <time>2026-08-28T19:08:39Z</time>
  <course>11.2</course>
  <speed>0.0</speed>
  <fix>3d</fix>
</trkpt>
<trkpt lat="40.0728422" lon="-105.2305753">
  <ele>1586.2</ele>
  <time>2026-08-28T19:08:39Z</time>
  <course>11.72</course>
  <speed>0.03605551275463989</speed>
  <fix>3d</fix>
</trkpt>
<trkpt lat="40.0728423" lon="-105.2305755">
  <ele>1586.09</ele>
  <time>2026-08-28T19:08:39Z</time>
  <course>99.15</course>
  <speed>0.0</speed>
  <fix>3d</fix>
</trkpt>
<trkpt lat="40.0728422" lon="-105.2305753">
  <ele>1586.2</ele>
  <time>2026-08-28T19:08:39Z</time>
  <course>11.71</course>
  <speed>0.0282842712474619</speed>
  <fix>3d</fix>
</trkpt>
<trkpt lat="40.0728423" lon="-105.2305755">
  <ele>1586.09</ele>
  <time>2026-08-28T19:08:39Z</time>
  <course>103.58</course>
  <speed>0.01</speed>
  <fix>3d</fix>
</trkpt>
<trkpt lat="40.0728422" lon="-105.2305753">
  <ele>1586.2</ele>
  <time>2026-08-28T19:08:39Z</time>
  <course>11.68</course>
  <speed>0.022360679774997897</speed>
  <fix>3d</fix>
</trkpt>
<trkpt lat="40.0728423" lon="-105.2305755">
  <ele>1586.09</ele>
  <time>2026-08-28T19:08:39Z</time>
  <course>112.32</course>
  <speed>0.0</speed>
  <fix>3d</fix>
</trkpt>
<trkpt lat="40.0728422" lon="-105.2305753">
  <ele>1586.2</ele>
  <time>2026-08-28T19:08:39Z</time>
  <course>11.65</course>
  <speed>0.022360679774997897</speed>
  <fix>3d</fix>
</trkpt>
<trkpt lat="40.0728423" lon="-105.2305755">
  <ele>1586.09</ele>
  <time>2026-08-28T19:08:39Z</time>
  <course>252.43</course>
  <speed>0.0</speed>
  <fix>3d</fix>
</trkpt>
<trkpt lat="40.0728422" lon="-105.2305753">
  <ele>1586.2</ele>
  <time>2026-08-28T19:08:39Z</time>
  <course>11.62</course>
  <speed>0.022360679774997897</speed>
  <fix>3d</fix>
</trkpt>
<trkpt lat="40.0728423" lon="-105.2305755">
  <ele>1586.09</ele>
  <time>2026-08-28T19:08:39Z</time>
  <course>256.04</course>
  <speed>0.0</speed>
  <fix>3d</fix>
</trkpt>
<trkpt lat="40.0728422" lon="-105.2305753">
  <ele>1586.2</ele>
  <time>2026-08-28T19:08:39Z</time>
  <course>11.59</course>
  <speed>0.022360679774997897</speed>
  <fix>3d</fix>
</trkpt>
<trkpt lat="40.0728423" lon="-105.2305755">
  <ele>1586.09</ele>
  <time>2026-08-28T19:08:39Z</time>
  <course>237.91</course>
  <speed>0.0</speed>
  <fix>3d</fix>
</trkpt>
<trkpt lat="40.0728422" lon="-105.2305753">
  <ele>1586.19</ele>
  <time>2026-08-28T19:08:39Z</time>
  <course>11.55</course>
  <speed>0.022360679774997897</speed>
  <fix>3d</fix>
</trkpt>
<trkpt lat="40.0728423" lon="-105.2305755">
  <ele>1586.09</ele>
  <time>2026-08-28T19:08:39Z</time>
  <course>234.71</course>
  <speed>0.0</speed>
  <fix>3d</fix>
</trkpt>
<trkpt lat="40.0728422" lon="-105.2305753">
  <ele>1586.19</ele>
  <time>2026-08-28T19:08:39Z</time>
  <course>11.52</course>
  <speed>0.022360679774997897</speed>
  <fix>3d</fix>
</trkpt>
<trkpt lat="40.0728423" lon="-105.2305755">
  <ele>1586.09</ele>
  <time>2026-08-28T19:08:39Z</time>
  <course>236.96</course>
  <speed>0.0</speed>
  <fix>3d</fix>
</trkpt>
<trkpt lat="40.0728422" lon="-105.2305753">
  <ele>1586.19</ele>
  <time>2026-08-28T19:08:39Z</time>
  <course>11.49</course>
  <speed>0.022360679774997897</speed>
  <fix>3d</fix>
</trkpt>
<trkpt lat="40.0728423" lon="-105.2305755">
  <ele>1586.09</ele>
  <time>2026-08-28T19:08:39Z</time>
  <course>264.46</course>
  <speed>0.0</speed>
  <fix>3d</fix>
</trkpt>
<trkpt lat="40.0728422" lon="-105.2305753">
  <ele>1586.19</ele>
  <time>2026-08-28T19:08:39Z</time>
  <course>11.46</course>
  <speed>0.022360679774997897</speed>
  <fix>3d</fix>
</trkpt>
<trkpt lat="40.0728423" lon="-105.2305755">
  <ele>1586.09</ele>
  <time>2026-08-28T19:08:39Z</time>
  <course>277.27</course>
  <speed>0.0</speed>
  <fix>3d</fix>
</trkpt>
<trkpt lat="40.0728422" lon="-105.2305753">
  <ele>1586.19</ele>
  <time>2026-08-28T19:08:39Z</time>
  <course>11.43</course>
  <speed>0.022360679774997897</speed>
  <fix>3d</fix>
</trkpt>
<trkpt lat="40.0728423" lon="-105.2305755">
  <ele>1586.09</ele>
  <time>2026-08-28T19:08:39Z</time>
  <course>1.57</course>
  <speed>0.0</speed>
  <fix>3d</fix>
</trkpt>
<trkpt lat="40.0728422" lon="-105.2305753">
  <ele>1586.19</ele>
  <time>2026-08-28T19:08:39Z</time>
  <course>11.39</course>
  <speed>0.022360679774997897</speed>
  <fix>3d</fix>
</trkpt>
<trkpt lat="40.0728423" lon="-105.2305755">
  <ele>1586.09</ele>
  <time>2026-08-28T19:08:39Z</time>
  <course>75.56</course>
  <speed>0.0</speed>
  <fix>3d</fix>
</trkpt>
<trkpt lat="40.0728422" lon="-105.2305753">
  <ele>1586.19</ele>
  <time>2026-08-28T19:08:39Z</time>
  <course>11.36</course>
  <speed>0.022360679774997897</speed>
  <fix>3d</fix>
</trkpt>
<trkpt lat="40.0728423" lon="-105.2305755">
  <ele>1586.09</ele>
  <time>2026-08-28T19:08:39Z</time>
  <course>283.51</course>
  <speed>0.0</speed>
  <fix>3d</fix>
</trkpt>
<trkpt lat="40.0728422" lon="-105.2305753">
  <ele>1586.2</ele>
  <time>2026-08-28T19:08:39Z</time>
  <course>11.33</course>
  <speed>0.022360679774997897</speed>
  <fix>3d</fix>
</trkpt>
<trkpt lat="40.0728423" lon="-105.2305755">
  <ele>1586.09</ele>
  <time>2026-08-28T19:08:39Z</time>
  <course>293.89</course>
  <speed>0.0</speed>
  <fix>3d</fix>
</trkpt>
<trkpt lat="40.0728422" lon="-105.2305753">
  <ele>1586.2</ele>
  <time>2026-08-28T19:08:39Z</time>
  <course>11.3</course>
  <speed>0.022360679774997897</speed>
  <fix>3d</fix>
</trkpt>
<trkpt lat="40.0728423" lon="-105.2305755">
  <ele>1586.09</ele>
  <time>2026-08-28T19:08:39Z</time>
  <course>289.51</course>
  <speed>0.0</speed>
  <fix>3d</fix>
</trkpt>
<trkpt lat="40.0728422" lon="-105.2305753">
  <ele>1586.2</ele>
  <time>2026-08-28T19:08:39Z</time>
  <course>11.27</course>
  <speed>0.022360679774997897</speed>
  <fix>3d</fix>
</trkpt>
<trkpt lat="40.0728423" lon="-105.2305755">
  <ele>1586.09</ele>
  <time>2026-08-28T19:08:39Z</time>
  <course>282.21</course>
  <speed>0.0</speed>
  <fix>3d</fix>
</trkpt>
<trkpt lat="40.0728422" lon="-105.2305753">
  <ele>1586.19</ele>
  <time>2026-08-28T19:08:39Z</time>
  <course>11.23</course>
  <speed>0.022360679774997897</speed>
  <fix>3d</fix>
</trkpt>
<trkpt lat="40.0728423" lon="-105.2305755">
  <ele>1586.09</ele>
  <time>2026-08-28T19:08:39Z</time>
  <course>283.06</course>
  <speed>0.0</speed>
  <fix>3d</fix>
</trkpt>
<trkpt lat="40.0728422" lon="-105.2305753">
  <ele>1586.19</ele>
  <time>2026-08-28T19:08:39Z</time>
  <course>11.2</course>
  <speed>0.022360679774997897</speed>
  <fix>3d</fix>
</trkpt>
<trkpt lat="40.0728423" lon="-105.2305755">
  <ele>1586.09</ele>
  <time>2026-08-28T19:08:39Z</time>
  <course>84.4</course>
  <speed>0.0</speed>
  <fix>3d</fix>
</trkpt>
<trkpt lat="40.0728422" lon="-105.2305753">
  <ele>1586.19</ele>
  <time>2026-08-28T19:08:40Z</time>
  <course>11.17</course>
  <speed>0.022360679774997897</speed>
  <fix>3d</fix>
</trkpt>
<trkpt lat="40.0728423" lon="-105.2305755">
  <ele>1586.09</ele>
  <time>2026-08-28T19:08:40Z</time>
  <course>283.29</course>
  <speed>0.0</speed>
  <fix>3d</fix>
</trkpt>
<trkpt lat="40.0728422" lon="-105.2305753">
  <ele>1586.19</ele>
  <time>2026-08-28T19:08:40Z</time>
  <course>11.14</course>
  <speed>0.022360679774997897</speed>
  <fix>3d</fix>
</trkpt>
<trkpt lat="40.0728423" lon="-105.2305755">
  <ele>1586.09</ele>
  <time>2026-08-28T19:08:40Z</time>
  <course>283.25</course>
  <speed>0.0</speed>
  <fix>3d</fix>
</trkpt>
<trkpt lat="40.0728422" lon="-105.2305753">
  <ele>1586.19</ele>
  <time>2026-08-28T19:08:40Z</time>
  <course>11.11</course>
  <speed>0.022360679774997897</speed>
  <fix>3d</fix>
</trkpt>
<trkpt lat="40.0728423" lon="-105.2305755">
  <ele>1586.09</ele>
  <time>2026-08-28T19:08:40Z</time>
  <course>82.35</course>
  <speed>0.0</speed>
  <fix>3d</fix>
</trkpt>
<trkpt lat="40.0728422" lon="-105.2305753">
  <ele>1586.19</ele>
  <time>2026-08-28T19:08:40Z</time>
  <course>11.07</course>
  <speed>0.022360679774997897</speed>
  <fix>3d</fix>
</trkpt>
<trkpt lat="40.0728423" lon="-105.2305755">
  <ele>1586.09</ele>
  <time>2026-08-28T19:08:40Z</time>
  <course>283.92</course>
  <speed>0.0</speed>
  <fix>3d</fix>
</trkpt>
<trkpt lat="40.0728422" lon="-105.2305753">
  <ele>1586.19</ele>
  <time>2026-08-28T19:08:40Z</time>
  <course>11.04</course>
  <speed>0.022360679774997897</speed>
  <fix>3d</fix>
</trkpt>
<trkpt lat="40.0728423" lon="-105.2305755">
  <ele>1586.09</ele>
  <time>2026-08-28T19:08:40Z</time>
  <course>283.61</course>
  <speed>0.0</speed>
  <fix>3d</fix>
</trkpt>
<trkpt lat="40.0728422" lon="-105.2305753">
  <ele>1586.19</ele>
  <time>2026-08-28T19:08:40Z</time>
  <course>11.01</course>
  <speed>0.022360679774997897</speed>
  <fix>3d</fix>
</trkpt>
<trkpt lat="40.0728423" lon="-105.2305755">
  <ele>1586.09</ele>
  <time>2026-08-28T19:08:40Z</time>
  <course>77.62</course>
  <speed>0.0</speed>
  <fix>3d</fix>
</trkpt>
<trkpt lat="40.0728422" lon="-105.2305753">
  <ele>1586.19</ele>
  <time>2026-08-28T19:08:40Z</time>
  <course>10.98</course>
  <speed>0.022360679774997897</speed>
  <fix>3d</fix>
</trkpt>
<trkpt lat="40.0728423" lon="-105.2305755">
  <ele>1586.09</ele>
  <time>2026-08-28T19:08:40Z</time>
  <course>284.61</course>
  <speed>0.0</speed>
  <fix>3d</fix>
</trkpt>
<trkpt lat="40.0728422" lon="-105.2305753">
  <ele>1586.19</ele>
  <time>2026-08-28T19:08:40Z</time>
  <course>10.95</course>
  <speed>0.022360679774997897</speed>
  <fix>3d</fix>
</trkpt>
<trkpt lat="40.0728423" lon="-105.2305755">
  <ele>1586.09</ele>
  <time>2026-08-28T19:08:40Z</time>
  <course>284.13</course>
  <speed>0.0</speed>
  <fix>3d</fix>
</trkpt>
<trkpt lat="40.0728422" lon="-105.2305753">
  <ele>1586.19</ele>
  <time>2026-08-28T19:08:40Z</time>
  <course>10.92</course>
  <speed>0.022360679774997897</speed>
  <fix>3d</fix>
</trkpt>
<trkpt lat="40.0728423" lon="-105.2305755">
  <ele>1586.09</ele>
  <time>2026-08-28T19:08:40Z</time>
  <course>72.26</course>
  <speed>0.0</speed>
  <fix>3d</fix>
</trkpt>
<trkpt lat="40.0728422" lon="-105.2305753">
  <ele>1586.19</ele>
  <time>2026-08-28T19:08:40Z</time>
  <course>10.88</course>
  <speed>0.022360679774997897</speed>
  <fix>3d</fix>
</trkpt>
<trkpt lat="40.0728423" lon="-105.2305755">
  <ele>1586.09</ele>
  <time>2026-08-28T19:08:40Z</time>
  <course>284.42</course>
  <speed>0.0</speed>
  <fix>3d</fix>
</trkpt>
<trkpt lat="40.0728422" lon="-105.2305753">
  <ele>1586.19</ele>
  <time>2026-08-28T19:08:40Z</time>
  <course>10.85</course>
  <speed>0.022360679774997897</speed>
  <fix>3d</fix>
</trkpt>
<trkpt lat="40.0728423" lon="-105.2305755">
  <ele>1586.09</ele>
  <time>2026-08-28T19:08:40Z</time>
  <course>283.25</course>
  <speed>0.0</speed>
  <fix>3d</fix>
</trkpt>
<trkpt lat="40.0728422" lon="-105.2305753">
  <ele>1586.19</ele>
  <time>2026-08-28T19:08:40Z</time>
  <course>10.82</course>
  <speed>0.022360679774997897</speed>
  <fix>3d</fix>
</trkpt>
<trkpt lat="40.0728423" lon="-105.2305755">
  <ele>1586.09</ele>
  <time>2026-08-28T19:08:40Z</time>
  <course>333.86</course>
  <speed>0.0</speed>
  <fix>3d</fix>
</trkpt>
<trkpt lat="40.0728422" lon="-105.2305753">
  <ele>1586.19</ele>
  <time>2026-08-28T19:08:40Z</time>
  <course>10.79</course>
  <speed>0.022360679774997897</speed>
  <fix>3d</fix>
</trkpt>
<trkpt lat="40.0728423" lon="-105.2305755">
  <ele>1586.09</ele>
  <time>2026-08-28T19:08:40Z</time>
  <course>285.42</course>
  <speed>0.0</speed>
  <fix>3d</fix>
</trkpt>
<trkpt lat="40.0728422" lon="-105.2305753">
  <ele>1586.18</ele>
  <time>2026-08-28T19:08:40Z</time>
  <course>10.76</course>
  <speed>0.022360679774997897</speed>
  <fix>3d</fix>
</trkpt>
<trkpt lat="40.0728423" lon="-105.2305755">
  <ele>1586.09</ele>
  <time>2026-08-28T19:08:40Z</time>
  <course>283.73</course>
  <speed>0.0</speed>
  <fix>3d</fix>
</trkpt>
<trkpt lat="40.0728422" lon="-105.2305753">
  <ele>1586.18</ele>
  <time>2026-08-28T19:08:40Z</time>
  <course>10.72</course>
  <speed>0.022360679774997897</speed>
  <fix>3d</fix>
</trkpt>
<trkpt lat="40.0728423" lon="-105.2305755">
  <ele>1586.09</ele>
  <time>2026-08-28T19:08:40Z</time>
  <course>324.61</course>
  <speed>0.0</speed>
  <fix>3d</fix>
</trkpt>
<trkpt lat="40.0728422" lon="-105.2305753">
  <ele>1586.17</ele>
  <time>2026-08-28T19:08:40Z</time>
  <course>10.69</course>
  <speed>0.022360679774997897</speed>
  <fix>3d</fix>
</trkpt>
<trkpt lat="40.0728423" lon="-105.2305755">
  <ele>1586.09</ele>
  <time>2026-08-28T19:08:40Z</time>
  <course>285.9</course>
  <speed>0.0</speed>
  <fix>3d</fix>
</trkpt>
<trkpt lat="40.0728422" lon="-105.2305753">
  <ele>1586.17</ele>
  <time>2026-08-28T19:08:40Z</time>
  <course>10.66</course>
  <speed>0.022360679774997897</speed>
  <fix>3d</fix>
</trkpt>
<trkpt lat="40.0728423" lon="-105.2305755">
  <ele>1586.09</ele>
  <time>2026-08-28T19:08:40Z</time>
  <course>284.04</course>
  <speed>0.0</speed>
  <fix>3d</fix>
</trkpt>
<trkpt lat="40.0728422" lon="-105.2305753">
  <ele>1586.17</ele>
  <time>2026-08-28T19:08:40Z</time>
  <course>10.63</course>
  <speed>0.022360679774997897</speed>
  <fix>3d</fix>
</trkpt>
<trkpt lat="40.0728423" lon="-105.2305755">
  <ele>1586.09</ele>
  <time>2026-08-28T19:08:40Z</time>
  <course>314.24</course>
  <speed>0.0</speed>
  <fix>3d</fix>
</trkpt>
<trkpt lat="40.0728422" lon="-105.2305753">
  <ele>1586.17</ele>
  <time>2026-08-28T19:08:40Z</time>
  <course>10.59</course>
  <speed>0.022360679774997897</speed>
  <fix>3d</fix>
</trkpt>
<trkpt lat="40.0728423" lon="-105.2305755">
  <ele>1586.09</ele>
  <time>2026-08-28T19:08:40Z</time>
  <course>286.36</course>
  <speed>0.0</speed>
  <fix>3d</fix>
</trkpt>
<trkpt lat="40.0728422" lon="-105.2305753">
  <ele>1586.17</ele>
  <time>2026-08-28T19:08:40Z</time>
  <course>10.56</course>
  <speed>0.022360679774997897</speed>
  <fix>3d</fix>
</trkpt>
<trkpt lat="40.0728423" lon="-105.2305755">
  <ele>1586.09</ele>
  <time>2026-08-28T19:08:40Z</time>
  <course>284.51</course>
  <speed>0.0</speed>
  <fix>3d</fix>
</trkpt>
<trkpt lat="40.0728422" lon="-105.2305753">
  <ele>1586.17</ele>
  <time>2026-08-28T19:08:40Z</time>
  <course>10.53</course>
  <speed>0.022360679774997897</speed>
  <fix>3d</fix>
</trkpt>
<trkpt lat="40.0728423" lon="-105.2305755">
  <ele>1586.09</ele>
  <time>2026-08-28T19:08:40Z</time>
  <course>313.77</course>
  <speed>0.0</speed>
  <fix>3d</fix>
</trkpt>
<trkpt lat="40.0728422" lon="-105.2305753">
  <ele>1586.17</ele>
  <time>2026-08-28T19:08:40Z</time>
  <course>10.5</course>
  <speed>0.022360679774997897</speed>
  <fix>3d</fix>
</trkpt>
<trkpt lat="40.0728423" lon="-105.2305755">
  <ele>1586.09</ele>
  <time>2026-08-28T19:08:40Z</time>
  <course>306.48</course>
  <speed>0.0</speed>
  <fix>3d</fix>
</trkpt>
<trkpt lat="40.0728422" lon="-105.2305753">
  <ele>1586.17</ele>
  <time>2026-08-28T19:08:40Z</time>
  <course>10.47</course>
  <speed>0.022360679774997897</speed>
  <fix>3d</fix>
</trkpt>
<trkpt lat="40.0728423" lon="-105.2305755">
  <ele>1586.09</ele>
  <time>2026-08-28T19:08:40Z</time>
  <course>285.89</course>
  <speed>0.0</speed>
  <fix>3d</fix>
</trkpt>
<trkpt lat="40.0728422" lon="-105.2305753">
  <ele>1586.17</ele>
  <time>2026-08-28T19:08:40Z</time>
  <course>10.43</course>
  <speed>0.022360679774997897</speed>
  <fix>3d</fix>
</trkpt>
<trkpt lat="40.0728423" lon="-105.2305755">
  <ele>1586.09</ele>
  <time>2026-08-28T19:08:40Z</time>
  <course>288.54</course>
  <speed>0.0</speed>
  <fix>3d</fix>
</trkpt>
<trkpt lat="40.0728422" lon="-105.2305753">
  <ele>1586.17</ele>
  <time>2026-08-28T19:08:40Z</time>
  <course>10.4</course>
  <speed>0.022360679774997897</speed>
  <fix>3d</fix>
</trkpt>
<trkpt lat="40.0728423" lon="-105.2305755">
  <ele>1586.09</ele>
  <time>2026-08-28T19:08:40Z</time>
  <course>304.45</course>
  <speed>0.0</speed>
  <fix>3d</fix>
</trkpt>
<trkpt lat="40.0728422" lon="-105.2305753">
  <ele>1586.17</ele>
  <time>2026-08-28T19:08:40Z</time>
  <course>10.37</course>
  <speed>0.022360679774997897</speed>
  <fix>3d</fix>
</trkpt>
<trkpt lat="40.0728423" lon="-105.2305755">
  <ele>1586.09</ele>
  <time>2026-08-28T19:08:40Z</time>
  <course>286.55</course>
  <speed>0.0</speed>
  <fix>3d</fix>
</trkpt>
<trkpt lat="40.0728422" lon="-105.2305753">
  <ele>1586.17</ele>
  <time>2026-08-28T19:08:40Z</time>
  <course>10.34</course>
  <speed>0.022360679774997897</speed>
  <fix>3d</fix>
</trkpt>
<trkpt lat="40.0728423" lon="-105.2305755">
  <ele>1586.09</ele>
  <time>2026-08-28T19:08:40Z</time>
  <course>288.94</course>
  <speed>0.0</speed>
  <fix>3d</fix>
</trkpt>
<trkpt lat="40.0728422" lon="-105.2305753">
  <ele>1586.17</ele>
  <time>2026-08-28T19:08:40Z</time>
  <course>10.31</course>
  <speed>0.022360679774997897</speed>
  <fix>3d</fix>
</trkpt>
<trkpt lat="40.0728423" lon="-105.2305755">
  <ele>1586.09</ele>
  <time>2026-08-28T19:08:40Z</time>
  <course>330.23</course>
  <speed>0.0</speed>
  <fix>3d</fix>
</trkpt>
<trkpt lat="40.0728422" lon="-105.2305753">
  <ele>1586.17</ele>
  <time>2026-08-28T19:08:40Z</time>
  <course>10.27</course>
  <speed>0.022360679774997897</speed>
  <fix>3d</fix>
</trkpt>
<trkpt lat="40.0728423" lon="-105.2305755">
  <ele>1586.09</ele>
  <time>2026-08-28T19:08:40Z</time>
  <course>291.26</course>
  <speed>0.0</speed>
  <fix>3d</fix>
</trkpt>
<trkpt lat="40.0728422" lon="-105.2305753">
  <ele>1586.17</ele>
  <time>2026-08-28T19:08:40Z</time>
  <course>10.24</course>
  <speed>0.022360679774997897</speed>
  <fix>3d</fix>
</trkpt>
<trkpt lat="40.0728423" lon="-105.2305755">
  <ele>1586.09</ele>
  <time>2026-08-28T19:08:40Z</time>
  <course>295.63</course>
  <speed>0.0</speed>
  <fix>3d</fix>
</trkpt>
<trkpt lat="40.0728422" lon="-105.2305753">
  <ele>1586.17</ele>
  <time>2026-08-28T19:08:40Z</time>
  <course>10.21</course>
  <speed>0.022360679774997897</speed>
  <fix>3d</fix>
</trkpt>
<trkpt lat="40.0728423" lon="-105.2305755">
  <ele>1586.09</ele>
  <time>2026-08-28T19:08:40Z</time>
  <course>22.92</course>
  <speed>0.0</speed>
  <fix>3d</fix>
</trkpt>
<trkpt lat="40.0728422" lon="-105.2305753">
  <ele>1586.17</ele>
  <time>2026-08-28T19:08:40Z</time>
  <course>10.18</course>
  <speed>0.022360679774997897</speed>
  <fix>3d</fix>
</trkpt>
<trkpt lat="40.0728423" lon="-105.2305755">
  <ele>1586.09</ele>
  <time>2026-08-28T19:08:40Z</time>
  <course>293.8</course>
  <speed>0.0</speed>
  <fix>3d</fix>
</trkpt>
<trkpt lat="40.0728422" lon="-105.2305753">
  <ele>1586.17</ele>
  <time>2026-08-28T19:08:40Z</time>
  <course>10.15</course>
  <speed>0.022360679774997897</speed>
  <fix>3d</fix>
</trkpt>
<trkpt lat="40.0728423" lon="-105.2305755">
  <ele>1586.09</ele>
  <time>2026-08-28T19:08:40Z</time>
  <course>299.0</course>
  <speed>0.0</speed>
  <fix>3d</fix>
</trkpt>
<trkpt lat="40.0728422" lon="-105.2305753">
  <ele>1586.17</ele>
  <time>2026-08-28T19:08:40Z</time>
  <course>10.11</course>
  <speed>0.022360679774997897</speed>
  <fix>3d</fix>
</trkpt>
<trkpt lat="40.0728423" lon="-105.2305755">
  <ele>1586.09</ele>
  <time>2026-08-28T19:08:40Z</time>
  <course>57.01</course>
  <speed>0.0</speed>
  <fix>3d</fix>
</trkpt>
<trkpt lat="40.0728422" lon="-105.2305753">
  <ele>1586.17</ele>
  <time>2026-08-28T19:08:40Z</time>
  <course>10.08</course>
  <speed>0.022360679774997897</speed>
  <fix>3d</fix>
</trkpt>
<trkpt lat="40.0728423" lon="-105.2305755">
  <ele>1586.09</ele>
  <time>2026-08-28T19:08:40Z</time>
  <course>296.12</course>
  <speed>0.0</speed>
  <fix>3d</fix>
</trkpt>
<trkpt lat="40.0728422" lon="-105.2305753">
  <ele>1586.17</ele>
  <time>2026-08-28T19:08:40Z</time>
  <course>10.05</course>
  <speed>0.022360679774997897</speed>
  <fix>3d</fix>
</trkpt>
<trkpt lat="40.0728423" lon="-105.2305755">
  <ele>1586.09</ele>
  <time>2026-08-28T19:08:40Z</time>
  <course>293.71</course>
  <speed>0.0</speed>
  <fix>3d</fix>
</trkpt>
<trkpt lat="40.0728422" lon="-105.2305753">
  <ele>1586.17</ele>
  <time>2026-08-28T19:08:40Z</time>
  <course>10.02</course>
  <speed>0.022360679774997897</speed>
  <fix>3d</fix>
</trkpt>
<trkpt lat="40.0728423" lon="-105.2305755">
  <ele>1586.09</ele>
  <time>2026-08-28T19:08:40Z</time>
  <course>39.18</course>
  <speed>0.0</speed>
  <fix>3d</fix>
</trkpt>
<trkpt lat="40.0728422" lon="-105.2305753">
  <ele>1586.17</ele>
  <time>2026-08-28T19:08:40Z</time>
  <course>9.98</course>
  <speed>0.022360679774997897</speed>
  <fix>3d</fix>
</trkpt>
<trkpt lat="40.0728423" lon="-105.2305755">
  <ele>1586.09</ele>
  <time>2026-08-28T19:08:40Z</time>
  <course>303.55</course>
  <speed>0.0</speed>
  <fix>3d</fix>
</trkpt>
<trkpt lat="40.0728422" lon="-105.2305753">
  <ele>1586.17</ele>
  <time>2026-08-28T19:08:40Z</time>
  <course>9.95</course>
  <speed>0.022360679774997897</speed>
  <fix>3d</fix>
</trkpt>
<trkpt lat="40.0728423" lon="-105.2305755">
  <ele>1586.09</ele>
  <time>2026-08-28T19:08:40Z</time>
  <course>298.6</course>
  <speed>0.0</speed>
  <fix>3d</fix>
</trkpt>
<trkpt lat="40.0728422" lon="-105.2305753">
  <ele>1586.17</ele>
  <time>2026-08-28T19:08:40Z</time>
  <course>9.92</course>
  <speed>0.022360679774997897</speed>
  <fix>3d</fix>
</trkpt>
<trkpt lat="40.0728423" lon="-105.2305755">
  <ele>1586.09</ele>
  <time>2026-08-28T19:08:40Z</time>
  <course>36.82</course>
  <speed>0.0</speed>
  <fix>3d</fix>
</trkpt>
<trkpt lat="40.0728422" lon="-105.2305753">
  <ele>1586.17</ele>
  <time>2026-08-28T19:08:40Z</time>
  <course>9.89</course>
  <speed>0.022360679774997897</speed>
  <fix>3d</fix>
</trkpt>
<trkpt lat="40.0728423" lon="-105.2305755">
  <ele>1586.09</ele>
  <time>2026-08-28T19:08:40Z</time>
  <course>308.46</course>
  <speed>0.0</speed>
  <fix>3d</fix>
</trkpt>
<trkpt lat="40.0728422" lon="-105.2305753">
  <ele>1586.17</ele>
  <time>2026-08-28T19:08:40Z</time>
  <course>9.85</course>
  <speed>0.01414213562373095</speed>
  <fix>3d</fix>
</trkpt>
<trkpt lat="40.0728423" lon="-105.2305755">
  <ele>1586.09</ele>
  <time>2026-08-28T19:08:40Z</time>
  <course>302.72</course>
  <speed>0.0</speed>
  <fix>3d</fix>
</trkpt>
<trkpt lat="40.0728422" lon="-105.2305753">
  <ele>1586.18</ele>
  <time>2026-08-28T19:08:40Z</time>
  <course>9.82</course>
  <speed>0.01414213562373095</speed>
  <fix>3d</fix>
</trkpt>
<trkpt lat="40.0728423" lon="-105.2305755">
  <ele>1586.09</ele>
  <time>2026-08-28T19:08:40Z</time>
  <course>28.03</course>
  <speed>0.0</speed>
  <fix>3d</fix>
</trkpt>
<trkpt lat="40.0728422" lon="-105.2305753">
  <ele>1586.18</ele>
  <time>2026-08-28T19:08:40Z</time>
  <course>9.79</course>
  <speed>0.01414213562373095</speed>
  <fix>3d</fix>
</trkpt>
<trkpt lat="40.0728423" lon="-105.2305755">
  <ele>1586.09</ele>
  <time>2026-08-28T19:08:40Z</time>
  <course>315.41</course>
  <speed>0.0</speed>
  <fix>3d</fix>
</trkpt>
<trkpt lat="40.0728422" lon="-105.2305753">
  <ele>1586.18</ele>
  <time>2026-08-28T19:08:40Z</time>
  <course>9.75</course>
  <speed>0.01414213562373095</speed>
  <fix>3d</fix>
</trkpt>
<trkpt lat="40.0728423" lon="-105.2305755">
  <ele>1586.09</ele>
  <time>2026-08-28T19:08:40Z</time>
  <course>309.19</course>
  <speed>0.0</speed>
  <fix>3d</fix>
</trkpt>
<trkpt lat="40.0728422" lon="-105.2305753">
  <ele>1586.18</ele>
  <time>2026-08-28T19:08:40Z</time>
  <course>9.72</course>
  <speed>0.01414213562373095</speed>
  <fix>3d</fix>
</trkpt>
<trkpt lat="40.0728423" lon="-105.2305755">
  <ele>1586.09</ele>
  <time>2026-08-28T19:08:40Z</time>
  <course>16.93</course>
  <speed>0.0</speed>
  <fix>3d</fix>
</trkpt>
<trkpt lat="40.0728422" lon="-105.2305753">
  <ele>1586.18</ele>
  <time>2026-08-28T19:08:40Z</time>
  <course>9.69</course>
  <speed>0.01414213562373095</speed>
  <fix>3d</fix>
</trkpt>
<trkpt lat="40.0728423" lon="-105.2305755">
  <ele>1586.09</ele>
  <time>2026-08-28T19:08:40Z</time>
  <course>315.7</course>
  <speed>0.0</speed>
  <fix>3d</fix>
</trkpt>
<trkpt lat="40.0728422" lon="-105.2305753">
  <ele>1586.18</ele>
  <time>2026-08-28T19:08:40Z</time>
  <course>9.66</course>
  <speed>0.01414213562373095</speed>
  <fix>3d</fix>
</trkpt>
<trkpt lat="40.0728423" lon="-105.2305755">
  <ele>1586.09</ele>
  <time>2026-08-28T19:08:40Z</time>
  <course>306.51</course>
  <speed>0.0</speed>
  <fix>3d</fix>
</trkpt>
<trkpt lat="40.0728422" lon="-105.2305753">
  <ele>1586.18</ele>
  <time>2026-08-28T19:08:40Z</time>
  <course>9.62</course>
  <speed>0.01414213562373095</speed>
  <fix>3d</fix>
</trkpt>
<trkpt lat="40.0728423" lon="-105.2305755">
  <ele>1586.09</ele>
  <time>2026-08-28T19:08:40Z</time>
  <course>345.12</course>
  <speed>0.0</speed>
  <fix>3d</fix>
</trkpt>
<trkpt lat="40.0728422" lon="-105.2305753">
  <ele>1586.18</ele>
  <time>2026-08-28T19:08:40Z</time>
  <course>9.59</course>
  <speed>0.01414213562373095</speed>
  <fix>3d</fix>
</trkpt>
<trkpt lat="40.0728423" lon="-105.2305755">
  <ele>1586.09</ele>
  <time>2026-08-28T19:08:40Z</time>
  <course>317.85</course>
  <speed>0.0</speed>
  <fix>3d</fix>
</trkpt>
<trkpt lat="40.0728422" lon="-105.2305753">
  <ele>1586.18</ele>
  <time>2026-08-28T19:08:40Z</time>
  <course>9.56</course>
  <speed>0.01414213562373095</speed>
  <fix>3d</fix>
</trkpt>
<trkpt lat="40.0728423" lon="-105.2305755">
  <ele>1586.09</ele>
  <time>2026-08-28T19:08:40Z</time>
  <course>308.75</course>
  <speed>0.0</speed>
  <fix>3d</fix>
</trkpt>
<trkpt lat="40.0728422" lon="-105.2305753">
  <ele>1586.18</ele>
  <time>2026-08-28T19:08:40Z</time>
  <course>9.53</course>
  <speed>0.01414213562373095</speed>
  <fix>3d</fix>
</trkpt>
<trkpt lat="40.0728423" lon="-105.2305755">
  <ele>1586.09</ele>
  <time>2026-08-28T19:08:40Z</time>
  <course>329.36</course>
  <speed>0.0</speed>
  <fix>3d</fix>
</trkpt>
<trkpt lat="40.0728422" lon="-105.2305753">
  <ele>1586.18</ele>
  <time>2026-08-28T19:08:40Z</time>
  <course>9.49</course>
  <speed>0.01414213562373095</speed>
  <fix>3d</fix>
</trkpt>
<trkpt lat="40.0728423" lon="-105.2305755">
  <ele>1586.09</ele>
  <time>2026-08-28T19:08:40Z</time>
  <course>314.04</course>
  <speed>0.0</speed>
  <fix>3d</fix>
</trkpt>
<trkpt lat="40.0728422" lon="-105.2305753">
  <ele>1586.18</ele>
  <time>2026-08-28T19:08:40Z</time>
  <course>9.46</course>
  <speed>0.01414213562373095</speed>
  <fix>3d</fix>
</trkpt>
<trkpt lat="40.0728423" lon="-105.2305755">
  <ele>1586.09</ele>
  <time>2026-08-28T19:08:40Z</time>
  <course>307.77</course>
  <speed>0.0</speed>
  <fix>3d</fix>
</trkpt>
<trkpt lat="40.0728422" lon="-105.2305753">
  <ele>1586.18</ele>
  <time>2026-08-28T19:08:40Z</time>
  <course>9.43</course>
  <speed>0.01414213562373095</speed>
  <fix>3d</fix>
</trkpt>
<trkpt lat="40.0728423" lon="-105.2305755">
  <ele>1586.09</ele>
  <time>2026-08-28T19:08:40Z</time>
  <course>316.06</course>
  <speed>0.0</speed>
  <fix>3d</fix>
</trkpt>
<trkpt lat="40.0728422" lon="-105.2305753">
  <ele>1586.18</ele>
  <time>2026-08-28T19:08:40Z</time>
  <course>9.39</course>
  <speed>0.01414213562373095</speed>
  <fix>3d</fix>
</trkpt>
<trkpt lat="40.0728423" lon="-105.2305755">
  <ele>1586.09</ele>
  <time>2026-08-28T19:08:40Z</time>
  <course>308.27</course>
  <speed>0.0</speed>
  <fix>3d</fix>
</trkpt>
<trkpt lat="40.0728422" lon="-105.2305753">
  <ele>1586.19</ele>
  <time>2026-08-28T19:08:40Z</time>
  <course>9.36</course>
  <speed>0.01414213562373095</speed>
  <fix>3d</fix>
</trkpt>
<trkpt lat="40.0728423" lon="-105.2305755">
  <ele>1586.09</ele>
  <time>2026-08-28T19:08:40Z</time>
  <course>304.33</course>
  <speed>0.0</speed>
  <fix>3d</fix>
</trkpt>
<trkpt lat="40.0728422" lon="-105.2305753">
  <ele>1586.19</ele>
  <time>2026-08-28T19:08:40Z</time>
  <course>9.41</course>
  <speed>0.01414213562373095</speed>
  <fix>3d</fix>
</trkpt>
<trkpt lat="40.0728423" lon="-105.2305755">
  <ele>1586.09</ele>
  <time>2026-08-28T19:08:40Z</time>
  <course>63.68</course>
  <speed>0.0</speed>
  <fix>3d</fix>
</trkpt>
<trkpt lat="40.0728422" lon="-105.2305753">
  <ele>1586.19</ele>
  <time>2026-08-28T19:08:40Z</time>
  <course>9.51</course>
  <speed>0.01414213562373095</speed>
  <fix>3d</fix>
</trkpt>
<trkpt lat="40.0728423" lon="-105.2305755">
  <ele>1586.09</ele>
  <time>2026-08-28T19:08:40Z</time>
  <course>38.48</course>
  <speed>0.0</speed>
  <fix>3d</fix>
</trkpt>
<trkpt lat="40.0728422" lon="-105.2305753">
  <ele>1586.19</ele>
  <time>2026-08-28T19:08:40Z</time>
  <course>9.61</course>
  <speed>0.022360679774997897</speed>
  <fix>3d</fix>
</trkpt>
<trkpt lat="40.0728423" lon="-105.2305755">
  <ele>1586.09</ele>
  <time>2026-08-28T19:08:40Z</time>
  <course>292.83</course>
  <speed>0.0</speed>
  <fix>3d</fix>
</trkpt>
<trkpt lat="40.0728422" lon="-105.2305753">
  <ele>1586.19</ele>
  <time>2026-08-28T19:08:40Z</time>
  <course>9.7</course>
  <speed>0.022360679774997897</speed>
  <fix>3d</fix>
</trkpt>
<trkpt lat="40.0728423" lon="-105.2305755">
  <ele>1586.09</ele>
  <time>2026-08-28T19:08:40Z</time>
  <course>292.32</course>
  <speed>0.0</speed>
  <fix>3d</fix>
</trkpt>
<trkpt lat="40.0728422" lon="-105.2305753">
  <ele>1586.19</ele>
  <time>2026-08-28T19:08:40Z</time>
  <course>9.8</course>
  <speed>0.022360679774997897</speed>
  <fix>3d</fix>
</trkpt>
<trkpt lat="40.0728423" lon="-105.2305755">
  <ele>1586.09</ele>
  <time>2026-08-28T19:08:40Z</time>
  <course>294.77</course>
  <speed>0.0</speed>
  <fix>3d</fix>
</trkpt>
<trkpt lat="40.0728422" lon="-105.2305753">
  <ele>1586.19</ele>
  <time>2026-08-28T19:08:40Z</time>
  <course>9.89</course>
  <speed>0.022360679774997897</speed>
  <fix>3d</fix>
</trkpt>
<trkpt lat="40.0728423" lon="-105.2305755">
  <ele>1586.09</ele>
  <time>2026-08-28T19:08:40Z</time>
  <course>294.51</course>
  <speed>0.0</speed>
  <fix>3d</fix>
</trkpt>
<trkpt lat="40.0728422" lon="-105.2305753">
  <ele>1586.19</ele>
  <time>2026-08-28T19:08:40Z</time>
  <course>9.98</course>
  <speed>0.022360679774997897</speed>
  <fix>3d</fix>
</trkpt>
<trkpt lat="40.0728423" lon="-105.2305755">
  <ele>1586.09</ele>
  <time>2026-08-28T19:08:40Z</time>
  <course>308.63</course>
  <speed>0.0</speed>
  <fix>3d</fix>
</trkpt>
<trkpt lat="40.0728422" lon="-105.2305753">
  <ele>1586.19</ele>
  <time>2026-08-28T19:08:40Z</time>
  <course>10.07</course>
  <speed>0.022360679774997897</speed>
  <fix>3d</fix>
</trkpt>
<trkpt lat="40.0728423" lon="-105.2305755">
  <ele>1586.09</ele>
  <time>2026-08-28T19:08:40Z</time>
  <course>276.53</course>
  <speed>0.0</speed>
  <fix>3d</fix>
</trkpt>
<trkpt lat="40.0728422" lon="-105.2305753">
  <ele>1586.19</ele>
  <time>2026-08-28T19:08:40Z</time>
  <course>10.16</course>
  <speed>0.022360679774997897</speed>
  <fix>3d</fix>
</trkpt>
<trkpt lat="40.0728423" lon="-105.2305755">
  <ele>1586.09</ele>
  <time>2026-08-28T19:08:40Z</time>
  <course>257.68</course>
  <speed>0.0</speed>
  <fix>3d</fix>
</trkpt>
<trkpt lat="40.0728422" lon="-105.2305753">
  <ele>1586.2</ele>
  <time>2026-08-28T19:08:40Z</time>
  <course>10.25</course>
  <speed>0.022360679774997897</speed>
  <fix>3d</fix>
</trkpt>
<trkpt lat="40.0728423" lon="-105.2305755">
  <ele>1586.09</ele>
  <time>2026-08-28T19:08:40Z</time>
  <course>98.78</course>
  <speed>0.0</speed>
  <fix>3d</fix>
</trkpt>
<trkpt lat="40.0728422" lon="-105.2305753">
  <ele>1586.2</ele>
  <time>2026-08-28T19:08:40Z</time>
  <course>10.34</course>
  <speed>0.022360679774997897</speed>
  <fix>3d</fix>
</trkpt>
<trkpt lat="40.0728423" lon="-105.2305755">
  <ele>1586.09</ele>
  <time>2026-08-28T19:08:40Z</time>
  <course>322.77</course>
  <speed>0.0</speed>
  <fix>3d</fix>
</trkpt>
<trkpt lat="40.0728422" lon="-105.2305753">
  <ele>1586.2</ele>
  <time>2026-08-28T19:08:40Z</time>
  <course>10.43</course>
  <speed>0.01414213562373095</speed>
  <fix>3d</fix>
</trkpt>
<trkpt lat="40.0728423" lon="-105.2305755">
  <ele>1586.09</ele>
  <time>2026-08-28T19:08:40Z</time>
  <course>328.75</course>
  <speed>0.0</speed>
  <fix>3d</fix>
</trkpt>
<trkpt lat="40.0728422" lon="-105.2305753">
  <ele>1586.2</ele>
  <time>2026-08-28T19:08:40Z</time>
  <course>10.51</course>
  <speed>0.01414213562373095</speed>
  <fix>3d</fix>
</trkpt>
<trkpt lat="40.0728423" lon="-105.2305755">
  <ele>1586.09</ele>
  <time>2026-08-28T19:08:40Z</time>
  <course>323.16</course>
  <speed>0.0</speed>
  <fix>3d</fix>
</trkpt>
<trkpt lat="39.654938" lon="-104.1331666">
  <ele>1569.54</ele>
  <time>2026-08-28T19:08:41Z</time>
  <course>168.11</course>
  <speed>0.0</speed>
  <fix>3d</fix>
</trkpt>
<trkpt lat="40.072842" lon="-105.230575">
  <ele>1586.09</ele>
  <time>2026-08-28T19:08:41Z</time>
  <course>2.03</course>
  <speed>0.0</speed>
  <fix>3d</fix>
</trkpt>
<trkpt lat="40.072842" lon="-105.230575">
  <ele>1586.09</ele>
  <time>2026-08-28T19:08:41Z</time>
  <course>238.4</course>
  <speed>0.0</speed>
  <fix>3d</fix>
</trkpt>
<trkpt lat="40.072842" lon="-105.230575">
  <ele>1586.09</ele>
  <time>2026-08-28T19:08:41Z</time>
  <course>2.44</course>
  <speed>0.0</speed>
  <fix>3d</fix>
</trkpt>
<trkpt lat="40.072842" lon="-105.230575">
  <ele>1586.09</ele>
  <time>2026-08-28T19:08:41Z</time>
  <course>194.29</course>
  <speed>0.0</speed>
  <fix>3d</fix>
</trkpt>
<trkpt lat="40.072842" lon="-105.230575">
  <ele>1586.09</ele>
  <time>2026-08-28T19:08:41Z</time>
  <course>3.18</course>
  <speed>0.0</speed>
  <fix>3d</fix>
</trkpt>
<trkpt lat="40.072842" lon="-105.230575">
  <ele>1586.09</ele>
  <time>2026-08-28T19:08:41Z</time>
  <course>193.66</course>
  <speed>0.0</speed>
  <fix>3d</fix>
</trkpt>
<trkpt lat="40.072842" lon="-105.230575">
  <ele>1586.09</ele>
  <time>2026-08-28T19:08:41Z</time>
  <course>3.86</course>
  <speed>0.0</speed>
  <fix>3d</fix>
</trkpt>
<trkpt lat="40.072842" lon="-105.230575">
  <ele>1586.09</ele>
  <time>2026-08-28T19:08:41Z</time>
  <course>303.54</course>
  <speed>0.0</speed>
  <fix>3d</fix>
</trkpt>
<trkpt lat="40.072842" lon="-105.230575">
  <ele>1586.09</ele>
  <time>2026-08-28T19:08:42Z</time>
  <course>4.49</course>
  <speed>0.0</speed>
  <fix>3d</fix>
</trkpt>
<trkpt lat="40.072842" lon="-105.230575">
  <ele>1586.09</ele>
  <time>2026-08-28T19:08:42Z</time>
  <course>110.94</course>
  <speed>0.0</speed>
  <fix>3d</fix>
</trkpt>
<trkpt lat="40.072842" lon="-105.230575">
  <ele>1586.09</ele>
  <time>2026-08-28T19:08:42Z</time>
  <course>5.07</course>
  <speed>0.0</speed>
  <fix>3d</fix>
</trkpt>
<trkpt lat="40.072842" lon="-105.230575">
  <ele>1586.09</ele>
  <time>2026-08-28T19:08:42Z</time>
  <course>191.21</course>
  <speed>0.0</speed>
  <fix>3d</fix>
</trkpt>
<trkpt lat="40.072842" lon="-105.230575">
  <ele>1586.09</ele>
  <time>2026-08-28T19:08:42Z</time>
  <course>5.63</course>
  <speed>0.0</speed>
  <fix>3d</fix>
</trkpt>
<trkpt lat="40.072842" lon="-105.230575">
  <ele>1586.09</ele>
  <time>2026-08-28T19:08:42Z</time>
  <course>252.23</course>
  <speed>0.0</speed>
  <fix>3d</fix>
</trkpt>
<trkpt lat="40.072842" lon="-105.230575">
  <ele>1586.09</ele>
  <time>2026-08-28T19:08:42Z</time>
  <course>6.16</course>
  <speed>0.0</speed>
  <fix>3d</fix>
</trkpt>
<trkpt lat="40.072842" lon="-105.230575">
  <ele>1586.09</ele>
  <time>2026-08-28T19:08:42Z</time>
  <course>170.36</course>
  <speed>0.0</speed>
  <fix>3d</fix>
</trkpt>
<trkpt lat="40.072842" lon="-105.230575">
  <ele>1586.09</ele>
  <time>2026-08-28T19:08:42Z</time>
  <course>6.65</course>
  <speed>0.0</speed>
  <fix>3d</fix>
</trkpt>
<trkpt lat="40.072842" lon="-105.230575">
  <ele>1586.09</ele>
  <time>2026-08-28T19:08:42Z</time>
  <course>179.36</course>
  <speed>0.0</speed>
  <fix>3d</fix>
</trkpt>
<trkpt lat="40.072842" lon="-105.230575">
  <ele>1586.09</ele>
  <time>2026-08-28T19:08:42Z</time>
  <course>7.11</course>
  <speed>0.0</speed>
  <fix>3d</fix>
</trkpt>
<trkpt lat="40.072842" lon="-105.230575">
  <ele>1586.09</ele>
  <time>2026-08-28T19:08:42Z</time>
  <course>19.98</course>
  <speed>0.0</speed>
  <fix>3d</fix>
</trkpt>
<trkpt lat="40.072842" lon="-105.230575">
  <ele>1586.09</ele>
  <time>2026-08-28T19:08:42Z</time>
  <course>7.54</course>
  <speed>0.0</speed>
  <fix>3d</fix>
</trkpt>
<trkpt lat="40.072842" lon="-105.230575">
  <ele>1586.09</ele>
  <time>2026-08-28T19:08:42Z</time>
  <course>17.49</course>
  <speed>0.0</speed>
  <fix>3d</fix>
</trkpt>
<trkpt lat="40.072842" lon="-105.230575">
  <ele>1586.09</ele>
  <time>2026-08-28T19:08:42Z</time>
  <course>7.93</course>
  <speed>0.0</speed>
  <fix>3d</fix>
</trkpt>
<trkpt lat="40.072842" lon="-105.230575">
  <ele>1586.09</ele>
  <time>2026-08-28T19:08:42Z</time>
  <course>356.19</course>
  <speed>0.0</speed>
  <fix>3d</fix>
</trkpt>
<trkpt lat="40.072842" lon="-105.230575">
  <ele>1586.09</ele>
  <time>2026-08-28T19:08:42Z</time>
  <course>8.29</course>
  <speed>0.0</speed>
  <fix>3d</fix>
</trkpt>
<trkpt lat="40.072842" lon="-105.230575">
  <ele>1586.09</ele>
  <time>2026-08-28T19:08:42Z</time>
  <course>77.32</course>
  <speed>0.0</speed>
  <fix>3d</fix>
</trkpt>
<trkpt lat="40.072842" lon="-105.230575">
  <ele>1586.09</ele>
  <time>2026-08-28T19:08:42Z</time>
  <course>8.63</course>
  <speed>0.0</speed>
  <fix>3d</fix>
</trkpt>
<trkpt lat="40.072842" lon="-105.230575">
  <ele>1586.09</ele>
  <time>2026-08-28T19:08:42Z</time>
  <course>290.54</course>
  <speed>0.0</speed>
  <fix>3d</fix>
</trkpt>
<trkpt lat="40.072842" lon="-105.230575">
  <ele>1586.09</ele>
  <time>2026-08-28T19:08:42Z</time>
  <course>8.94</course>
  <speed>0.0</speed>
  <fix>3d</fix>
</trkpt>
<trkpt lat="40.072842" lon="-105.230575">
  <ele>1586.09</ele>
  <time>2026-08-28T19:08:42Z</time>
  <course>338.69</course>
  <speed>0.0</speed>
  <fix>3d</fix>
</trkpt>
<trkpt lat="40.072842" lon="-105.230575">
  <ele>1586.09</ele>
  <time>2026-08-28T19:08:42Z</time>
  <course>9.23</course>
  <speed>0.0</speed>
  <fix>3d</fix>
</trkpt>
<trkpt lat="40.072842" lon="-105.230575">
  <ele>1586.09</ele>
  <time>2026-08-28T19:08:42Z</time>
  <course>326.81</course>
  <speed>0.0</speed>
  <fix>3d</fix>
</trkpt>
<trkpt lat="40.072842" lon="-105.230575">
  <ele>1586.09</ele>
  <time>2026-08-28T19:08:42Z</time>
  <course>9.49</course>
  <speed>0.0</speed>
  <fix>3d</fix>
</trkpt>
<trkpt lat="40.072842" lon="-105.230575">
  <ele>1586.09</ele>
  <time>2026-08-28T19:08:42Z</time>
  <course>262.23</course>
  <speed>0.0</speed>
  <fix>3d</fix>
</trkpt>
<trkpt lat="40.072842" lon="-105.230575">
  <ele>1586.09</ele>
  <time>2026-08-28T19:08:42Z</time>
  <course>9.74</course>
  <speed>0.0</speed>
  <fix>3d</fix>
</trkpt>
<trkpt lat="40.072842" lon="-105.230575">
  <ele>1586.09</ele>
  <time>2026-08-28T19:08:42Z</time>
  <course>159.08</course>
  <speed>0.0</speed>
  <fix>3d</fix>
</trkpt>
<trkpt lat="40.072842" lon="-105.230575">
  <ele>1586.09</ele>
  <time>2026-08-28T19:08:42Z</time>
  <course>9.96</course>
  <speed>0.0</speed>
  <fix>3d</fix>
</trkpt>
<trkpt lat="40.072842" lon="-105.230575">
  <ele>1586.09</ele>
  <time>2026-08-28T19:08:42Z</time>
  <course>287.98</course>
  <speed>0.0</speed>
  <fix>3d</fix>
</trkpt>
<trkpt lat="40.072842" lon="-105.230575">
  <ele>1586.09</ele>
  <time>2026-08-28T19:08:42Z</time>
  <course>10.16</course>
  <speed>0.0</speed>
  <fix>3d</fix>
</trkpt>
<trkpt lat="40.072842" lon="-105.230575">
  <ele>1586.09</ele>
  <time>2026-08-28T19:08:42Z</time>
  <course>278.3</course>
  <speed>0.0</speed>
  <fix>3d</fix>
</trkpt>
<trkpt lat="40.072842" lon="-105.230575">
  <ele>1586.09</ele>
  <time>2026-08-28T19:08:42Z</time>
  <course>10.35</course>
  <speed>0.0</speed>
  <fix>3d</fix>
</trkpt>
<trkpt lat="40.072842" lon="-105.230575">
  <ele>1586.09</ele>
  <time>2026-08-28T19:08:42Z</time>
  <course>261.72</course>
  <speed>0.0</speed>
  <fix>3d</fix>
</trkpt>
<trkpt lat="40.072842" lon="-105.230575">
  <ele>1586.09</ele>
  <time>2026-08-28T19:08:42Z</time>
  <course>10.52</course>
  <speed>0.0</speed>
  <fix>3d</fix>
</trkpt>
<trkpt lat="40.072842" lon="-105.230575">
  <ele>1586.09</ele>
  <time>2026-08-28T19:08:42Z</time>
  <course>264.4</course>
  <speed>0.0</speed>
  <fix>3d</fix>
</trkpt>
<trkpt lat="40.072842" lon="-105.230575">
  <ele>1586.09</ele>
  <time>2026-08-28T19:08:42Z</time>
  <course>10.68</course>
  <speed>0.0</speed>
  <fix>3d</fix>
</trkpt>
<trkpt lat="40.072842" lon="-105.230575">
  <ele>1586.09</ele>
  <time>2026-08-28T19:08:42Z</time>
  <course>266.8</course>
  <speed>0.0</speed>
  <fix>3d</fix>
</trkpt>
<trkpt lat="40.072842" lon="-105.230575">
  <ele>1586.09</ele>
  <time>2026-08-28T19:08:42Z</time>
  <course>10.82</course>
  <speed>0.0</speed>
  <fix>3d</fix>
</trkpt>
<trkpt lat="40.072842" lon="-105.230575">
  <ele>1586.09</ele>
  <time>2026-08-28T19:08:42Z</time>
  <course>266.15</course>
  <speed>0.0</speed>
  <fix>3d</fix>
</trkpt>
<trkpt lat="40.072842" lon="-105.230575">
  <ele>1586.09</ele>
  <time>2026-08-28T19:08:42Z</time>
  <course>10.95</course>
  <speed>0.0</speed>
  <fix>3d</fix>
</trkpt>
<trkpt lat="40.072842" lon="-105.230575">
  <ele>1586.09</ele>
  <time>2026-08-28T19:08:42Z</time>
  <course>265.92</course>
  <speed>0.0</speed>
  <fix>3d</fix>
</trkpt>
<trkpt lat="40.072842" lon="-105.230575">
  <ele>1586.09</ele>
  <time>2026-08-28T19:08:42Z</time>
  <course>11.07</course>
  <speed>0.0</speed>
  <fix>3d</fix>
</trkpt>
<trkpt lat="40.072842" lon="-105.230575">
  <ele>1586.09</ele>
  <time>2026-08-28T19:08:42Z</time>
  <course>266.03</course>
  <speed>0.0</speed>
  <fix>3d</fix>
</trkpt>
<trkpt lat="40.072842" lon="-105.230575">
  <ele>1586.09</ele>
  <time>2026-08-28T19:08:42Z</time>
  <course>11.18</course>
  <speed>0.0</speed>
  <fix>3d</fix>
</trkpt>
<trkpt lat="40.072842" lon="-105.230575">
  <ele>1586.09</ele>
  <time>2026-08-28T19:08:42Z</time>
  <course>266.05</course>
  <speed>0.0</speed>
  <fix>3d</fix>
</trkpt>
<trkpt lat="40.072842" lon="-105.230575">
  <ele>1586.09</ele>
  <time>2026-08-28T19:08:42Z</time>
  <course>11.28</course>
  <speed>0.0</speed>
  <fix>3d</fix>
</trkpt>
<trkpt lat="40.072842" lon="-105.230575">
  <ele>1586.09</ele>
  <time>2026-08-28T19:08:42Z</time>
  <course>266.03</course>
  <speed>0.0</speed>
  <fix>3d</fix>
</trkpt>
<trkpt lat="40.072842" lon="-105.230575">
  <ele>1586.09</ele>
  <time>2026-08-28T19:08:42Z</time>
  <course>11.37</course>
  <speed>0.0</speed>
  <fix>3d</fix>
</trkpt>
<trkpt lat="40.072842" lon="-105.230575">
  <ele>1586.09</ele>
  <time>2026-08-28T19:08:42Z</time>
  <course>266.03</course>
  <speed>0.0</speed>
  <fix>3d</fix>
</trkpt>
<trkpt lat="40.072842" lon="-105.230575">
  <ele>1586.09</ele>
  <time>2026-08-28T19:08:42Z</time>
  <course>11.45</course>
  <speed>0.0</speed>
  <fix>3d</fix>
</trkpt>
<trkpt lat="40.072842" lon="-105.230575">
  <ele>1586.09</ele>
  <time>2026-08-28T19:08:42Z</time>
  <course>266.03</course>
  <speed>0.0</speed>
  <fix>3d</fix>
</trkpt>
<trkpt lat="40.072842" lon="-105.230575">
  <ele>1586.09</ele>
  <time>2026-08-28T19:08:42Z</time>
  <course>11.53</course>
  <speed>0.0</speed>
  <fix>3d</fix>
</trkpt>
<trkpt lat="40.072842" lon="-105.230575">
  <ele>1586.09</ele>
  <time>2026-08-28T19:08:42Z</time>
  <course>266.03</course>
  <speed>0.0</speed>
  <fix>3d</fix>
</trkpt>
<trkpt lat="40.072842" lon="-105.230575">
  <ele>1586.09</ele>
  <time>2026-08-28T19:08:42Z</time>
  <course>11.6</course>
  <speed>0.0</speed>
  <fix>3d</fix>
</trkpt>
<trkpt lat="40.072842" lon="-105.230575">
  <ele>1586.09</ele>
  <time>2026-08-28T19:08:42Z</time>
  <course>266.03</course>
  <speed>0.0</speed>
  <fix>3d</fix>
</trkpt>
<trkpt lat="40.072842" lon="-105.230575">
  <ele>1586.09</ele>
  <time>2026-08-28T19:08:42Z</time>
  <course>11.66</course>
  <speed>0.0</speed>
  <fix>3d</fix>
</trkpt>
<trkpt lat="40.072842" lon="-105.230575">
  <ele>1586.09</ele>
  <time>2026-08-28T19:08:42Z</time>
  <course>266.03</course>
  <speed>0.0</speed>
  <fix>3d</fix>
</trkpt>
<trkpt lat="40.072842" lon="-105.230575">
  <ele>1586.09</ele>
  <time>2026-08-28T19:08:42Z</time>
  <course>11.71</course>
  <speed>0.0</speed>
  <fix>3d</fix>
</trkpt>
<trkpt lat="40.072842" lon="-105.230575">
  <ele>1586.09</ele>
  <time>2026-08-28T19:08:42Z</time>
  <course>266.03</course>
  <speed>0.0</speed>
  <fix>3d</fix>
</trkpt>
<trkpt lat="40.072842" lon="-105.230575">
  <ele>1586.09</ele>
  <time>2026-08-28T19:08:42Z</time>
  <course>11.76</course>
  <speed>0.0</speed>
  <fix>3d</fix>
</trkpt>
<trkpt lat="40.072842" lon="-105.230575">
  <ele>1586.09</ele>
  <time>2026-08-28T19:08:42Z</time>
  <course>266.03</course>
  <speed>0.0</speed>
  <fix>3d</fix>
</trkpt>
<trkpt lat="40.072842" lon="-105.230575">
  <ele>1586.09</ele>
  <time>2026-08-28T19:08:42Z</time>
  <course>11.81</course>
  <speed>0.0</speed>
  <fix>3d</fix>
</trkpt>
<trkpt lat="40.072842" lon="-105.230575">
  <ele>1586.09</ele>
  <time>2026-08-28T19:08:42Z</time>
  <course>266.03</course>
  <speed>0.0</speed>
  <fix>3d</fix>
</trkpt>
<trkpt lat="40.072842" lon="-105.230575">
  <ele>1586.09</ele>
  <time>2026-08-28T19:08:42Z</time>
  <course>11.85</course>
  <speed>0.0</speed>
  <fix>3d</fix>
</trkpt>
<trkpt lat="40.072842" lon="-105.230575">
  <ele>1586.09</ele>
  <time>2026-08-28T19:08:42Z</time>
  <course>266.03</course>
  <speed>0.0</speed>
  <fix>3d</fix>
</trkpt>
<trkpt lat="40.072842" lon="-105.230575">
  <ele>1586.09</ele>
  <time>2026-08-28T19:08:42Z</time>
  <course>11.89</course>
  <speed>0.0</speed>
  <fix>3d</fix>
</trkpt>
<trkpt lat="40.072842" lon="-105.230575">
  <ele>1586.09</ele>
  <time>2026-08-28T19:08:42Z</time>
  <course>266.03</course>
  <speed>0.0</speed>
  <fix>3d</fix>
</trkpt>
<trkpt lat="40.072842" lon="-105.230575">
  <ele>1586.09</ele>
  <time>2026-08-28T19:08:42Z</time>
  <course>11.92</course>
  <speed>0.0</speed>
  <fix>3d</fix>
</trkpt>
<trkpt lat="40.072842" lon="-105.230575">
  <ele>1586.09</ele>
  <time>2026-08-28T19:08:42Z</time>
  <course>266.03</course>
  <speed>0.0</speed>
  <fix>3d</fix>
</trkpt>
<trkpt lat="40.072842" lon="-105.230575">
  <ele>1586.09</ele>
  <time>2026-08-28T19:08:42Z</time>
  <course>11.95</course>
  <speed>0.0</speed>
  <fix>3d</fix>
</trkpt>
<trkpt lat="40.072842" lon="-105.230575">
  <ele>1586.09</ele>
  <time>2026-08-28T19:08:42Z</time>
  <course>266.03</course>
  <speed>0.0</speed>
  <fix>3d</fix>
</trkpt>
<trkpt lat="40.072842" lon="-105.230575">
  <ele>1586.09</ele>
  <time>2026-08-28T19:08:42Z</time>
  <course>11.97</course>
  <speed>0.0</speed>
  <fix>3d</fix>
</trkpt>
<trkpt lat="40.072842" lon="-105.230575">
  <ele>1586.09</ele>
  <time>2026-08-28T19:08:42Z</time>
  <course>266.03</course>
  <speed>0.0</speed>
  <fix>3d</fix>
</trkpt>
<trkpt lat="40.072842" lon="-105.230575">
  <ele>1586.09</ele>
  <time>2026-08-28T19:08:42Z</time>
  <course>12.0</course>
  <speed>0.0</speed>
  <fix>3d</fix>
</trkpt>
<trkpt lat="40.072842" lon="-105.230575">
  <ele>1586.09</ele>
  <time>2026-08-28T19:08:42Z</time>
  <course>266.03</course>
  <speed>0.0</speed>
  <fix>3d</fix>
</trkpt>
<trkpt lat="40.072842" lon="-105.230575">
  <ele>1586.09</ele>
  <time>2026-08-28T19:08:42Z</time>
  <course>12.02</course>
  <speed>0.0</speed>
  <fix>3d</fix>
</trkpt>
<trkpt lat="40.072842" lon="-105.230575">
  <ele>1586.09</ele>
  <time>2026-08-28T19:08:42Z</time>
  <course>266.03</course>
  <speed>0.0</speed>
  <fix>3d</fix>
</trkpt>
<trkpt lat="40.072842" lon="-105.230575">
  <ele>1586.09</ele>
  <time>2026-08-28T19:08:42Z</time>
  <course>12.04</course>
  <speed>0.0</speed>
  <fix>3d</fix>
</trkpt>
<trkpt lat="40.072842" lon="-105.230575">
  <ele>1586.09</ele>
  <time>2026-08-28T19:08:42Z</time>
  <course>266.03</course>
  <speed>0.0</speed>
  <fix>3d</fix>
</trkpt>
<trkpt lat="40.072842" lon="-105.230575">
  <ele>1586.09</ele>
  <time>2026-08-28T19:08:42Z</time>
  <course>12.05</course>
  <speed>0.0</speed>
  <fix>3d</fix>
</trkpt>
<trkpt lat="40.072842" lon="-105.230575">
  <ele>1586.09</ele>
  <time>2026-08-28T19:08:42Z</time>
  <course>266.03</course>
  <speed>0.0</speed>
  <fix>3d</fix>
</trkpt>
<trkpt lat="40.072842" lon="-105.230575">
  <ele>1586.09</ele>
  <time>2026-08-28T19:08:42Z</time>
  <course>12.07</course>
  <speed>0.0</speed>
  <fix>3d</fix>
</trkpt>
<trkpt lat="40.072842" lon="-105.230575">
  <ele>1586.09</ele>
  <time>2026-08-28T19:08:42Z</time>
  <course>266.03</course>
  <speed>0.0</speed>
  <fix>3d</fix>
</trkpt>
<trkpt lat="40.072842" lon="-105.230575">
  <ele>1586.09</ele>
  <time>2026-08-28T19:08:42Z</time>
  <course>12.08</course>
  <speed>0.0</speed>
  <fix>3d</fix>
</trkpt>
<trkpt lat="40.072842" lon="-105.230575">
  <ele>1586.09</ele>
  <time>2026-08-28T19:08:42Z</time>
  <course>266.03</course>
  <speed>0.0</speed>
  <fix>3d</fix>
</trkpt>
<trkpt lat="40.072842" lon="-105.230575">
  <ele>1586.09</ele>
  <time>2026-08-28T19:08:42Z</time>
  <course>12.09</course>
  <speed>0.0</speed>
  <fix>3d</fix>
</trkpt>
<trkpt lat="40.072842" lon="-105.230575">
  <ele>1586.09</ele>
  <time>2026-08-28T19:08:42Z</time>
  <course>266.03</course>
  <speed>0.0</speed>
  <fix>3d</fix>
</trkpt>
<trkpt lat="40.072842" lon="-105.230575">
  <ele>1586.09</ele>
  <time>2026-08-28T19:08:42Z</time>
  <course>12.1</course>
  <speed>0.0</speed>
  <fix>3d</fix>
</trkpt>
<trkpt lat="40.072842" lon="-105.230575">
  <ele>1586.09</ele>
  <time>2026-08-28T19:08:42Z</time>
  <course>266.03</course>
  <speed>0.0</speed>
  <fix>3d</fix>
</trkpt>
<trkpt lat="40.072842" lon="-105.230575">
  <ele>1586.09</ele>
  <time>2026-08-28T19:08:42Z</time>
  <course>12.1</course>
  <speed>0.0</speed>
  <fix>3d</fix>
</trkpt>
<trkpt lat="40.072842" lon="-105.230575">
  <ele>1586.09</ele>
  <time>2026-08-28T19:08:42Z</time>
  <course>266.03</course>
  <speed>0.0</speed>
  <fix>3d</fix>
</trkpt>
<trkpt lat="40.072842" lon="-105.230575">
  <ele>1586.09</ele>
  <time>2026-08-28T19:08:42Z</time>
  <course>12.11</course>
  <speed>0.0</speed>
  <fix>3d</fix>
</trkpt>
<trkpt lat="40.072842" lon="-105.230575">
  <ele>1586.09</ele>
  <time>2026-08-28T19:08:42Z</time>
  <course>266.03</course>
  <speed>0.0</speed>
  <fix>3d</fix>
</trkpt>
<trkpt lat="40.072842" lon="-105.230575">
  <ele>1586.09</ele>
  <time>2026-08-28T19:08:42Z</time>
  <course>12.12</course>
  <speed>0.0</speed>
  <fix>3d</fix>
</trkpt>
<trkpt lat="40.072842" lon="-105.230575">
  <ele>1586.09</ele>
  <time>2026-08-28T19:08:42Z</time>
  <course>266.03</course>
  <speed>0.0</speed>
  <fix>3d</fix>
</trkpt>
<trkpt lat="40.072842" lon="-105.230575">
  <ele>1586.09</ele>
  <time>2026-08-28T19:08:42Z</time>
  <course>12.12</course>
  <speed>0.0</speed>
  <fix>3d</fix>
</trkpt>
<trkpt lat="40.072842" lon="-105.230575">
  <ele>1586.09</ele>
  <time>2026-08-28T19:08:42Z</time>
  <course>266.03</course>
  <speed>0.0</speed>
  <fix>3d</fix>
</trkpt>
<trkpt lat="40.072842" lon="-105.230575">
  <ele>1586.09</ele>
  <time>2026-08-28T19:08:42Z</time>
  <course>12.12</course>
  <speed>0.0</speed>
  <fix>3d</fix>
</trkpt>
<trkpt lat="40.072842" lon="-105.230575">
  <ele>1586.09</ele>
  <time>2026-08-28T19:08:42Z</time>
  <course>266.03</course>
  <speed>0.0</speed>
  <fix>3d</fix>
</trkpt>
<trkpt lat="40.072842" lon="-105.230575">
  <ele>1586.09</ele>
  <time>2026-08-28T19:08:42Z</time>
  <course>12.13</course>
  <speed>0.0</speed>
  <fix>3d</fix>
</trkpt>
<trkpt lat="40.072842" lon="-105.230575">
  <ele>1586.09</ele>
  <time>2026-08-28T19:08:42Z</time>
  <course>266.03</course>
  <speed>0.0</speed>
  <fix>3d</fix>
</trkpt>
<trkpt lat="40.072842" lon="-105.230575">
  <ele>1586.09</ele>
  <time>2026-08-28T19:08:42Z</time>
  <course>12.13</course>
  <speed>0.0</speed>
  <fix>3d</fix>
</trkpt>
<trkpt lat="40.072842" lon="-105.230575">
  <ele>1586.09</ele>
  <time>2026-08-28T19:08:42Z</time>
  <course>266.03</course>
  <speed>0.0</speed>
  <fix>3d</fix>
</trkpt>
<trkpt lat="40.072842" lon="-105.230575">
  <ele>1586.09</ele>
  <time>2026-08-28T19:08:42Z</time>
  <course>12.13</course>
  <speed>0.0</speed>
  <fix>3d</fix>
</trkpt>
<trkpt lat="40.072842" lon="-105.230575">
  <ele>1586.09</ele>
  <time>2026-08-28T19:08:42Z</time>
  <course>266.03</course>
  <speed>0.0</speed>
  <fix>3d</fix>
</trkpt>
<trkpt lat="40.072842" lon="-105.230575">
  <ele>1586.09</ele>
  <time>2026-08-28T19:08:42Z</time>
  <course>12.12</course>
  <speed>0.01</speed>
  <fix>3d</fix>
</trkpt>
<trkpt lat="40.072842" lon="-105.230575">
  <ele>1586.09</ele>
  <time>2026-08-28T19:08:42Z</time>
  <course>266.03</course>
  <speed>0.0</speed>
  <fix>3d</fix>
</trkpt>
<trkpt lat="40.072842" lon="-105.230575">
  <ele>1586.09</ele>
  <time>2026-08-28T19:08:42Z</time>
  <course>12.12</course>
  <speed>0.01</speed>
  <fix>3d</fix>
</trkpt>
<trkpt lat="40.072842" lon="-105.230575">
  <ele>1586.09</ele>
  <time>2026-08-28T19:08:42Z</time>
  <course>266.03</course>
  <speed>0.0</speed>
  <fix>3d</fix>
</trkpt>
<trkpt lat="40.072842" lon="-105.230575">
  <ele>1586.09</ele>
  <time>2026-08-28T19:08:42Z</time>
  <course>12.12</course>
  <speed>0.01</speed>
  <fix>3d</fix>
</trkpt>
<trkpt lat="40.072842" lon="-105.230575">
  <ele>1586.09</ele>
  <time>2026-08-28T19:08:42Z</time>
  <course>266.03</course>
  <speed>0.0</speed>
  <fix>3d</fix>
</trkpt>
<trkpt lat="40.072842" lon="-105.230575">
  <ele>1586.09</ele>
  <time>2026-08-28T19:08:42Z</time>
  <course>12.12</course>
  <speed>0.01</speed>
  <fix>3d</fix>
</trkpt>
<trkpt lat="40.072842" lon="-105.230575">
  <ele>1586.09</ele>
  <time>2026-08-28T19:08:42Z</time>
  <course>266.03</course>
  <speed>0.0</speed>
  <fix>3d</fix>
</trkpt>
<trkpt lat="40.072842" lon="-105.230575">
  <ele>1586.09</ele>
  <time>2026-08-28T19:08:42Z</time>
  <course>12.11</course>
  <speed>0.01</speed>
  <fix>3d</fix>
</trkpt>
<trkpt lat="40.072842" lon="-105.230575">
  <ele>1586.09</ele>
  <time>2026-08-28T19:08:42Z</time>
  <course>266.03</course>
  <speed>0.0</speed>
  <fix>3d</fix>
</trkpt>
<trkpt lat="40.072842" lon="-105.230575">
  <ele>1586.09</ele>
  <time>2026-08-28T19:08:42Z</time>
  <course>12.11</course>
  <speed>0.01</speed>
  <fix>3d</fix>
</trkpt>
<trkpt lat="40.072842" lon="-105.230575">
  <ele>1586.09</ele>
  <time>2026-08-28T19:08:42Z</time>
  <course>266.03</course>
  <speed>0.0</speed>
  <fix>3d</fix>
</trkpt>
<trkpt lat="40.072842" lon="-105.230575">
  <ele>1586.09</ele>
  <time>2026-08-28T19:08:42Z</time>
  <course>12.1</course>
  <speed>0.01</speed>
  <fix>3d</fix>
</trkpt>
<trkpt lat="40.072842" lon="-105.230575">
  <ele>1586.09</ele>
  <time>2026-08-28T19:08:42Z</time>
  <course>266.03</course>
  <speed>0.0</speed>
  <fix>3d</fix>
</trkpt>
<trkpt lat="40.072842" lon="-105.230575">
  <ele>1586.09</ele>
  <time>2026-08-28T19:08:42Z</time>
  <course>12.1</course>
  <speed>0.01</speed>
  <fix>3d</fix>
</trkpt>
<trkpt lat="40.072842" lon="-105.230575">
  <ele>1586.09</ele>
  <time>2026-08-28T19:08:42Z</time>
  <course>266.03</course>
  <speed>0.0</speed>
  <fix>3d</fix>
</trkpt>
<trkpt lat="40.072842" lon="-105.230575">
  <ele>1586.09</ele>
  <time>2026-08-28T19:08:42Z</time>
  <course>12.09</course>
  <speed>0.01</speed>
  <fix>3d</fix>
</trkpt>
<trkpt lat="40.072842" lon="-105.230575">
  <ele>1586.09</ele>
  <time>2026-08-28T19:08:42Z</time>
  <course>266.03</course>
  <speed>0.0</speed>
  <fix>3d</fix>
</trkpt>
<trkpt lat="40.072842" lon="-105.230575">
  <ele>1586.09</ele>
  <time>2026-08-28T19:08:42Z</time>
  <course>12.09</course>
  <speed>0.01</speed>
  <fix>3d</fix>
</trkpt>
<trkpt lat="40.072842" lon="-105.230575">
  <ele>1586.09</ele>
  <time>2026-08-28T19:08:42Z</time>
  <course>266.03</course>
  <speed>0.0</speed>
  <fix>3d</fix>
</trkpt>
<trkpt lat="40.072842" lon="-105.230575">
  <ele>1586.09</ele>
  <time>2026-08-28T19:08:42Z</time>
  <course>12.08</course>
  <speed>0.01</speed>
  <fix>3d</fix>
</trkpt>
<trkpt lat="40.072842" lon="-105.230575">
  <ele>1586.09</ele>
  <time>2026-08-28T19:08:42Z</time>
  <course>266.03</course>
  <speed>0.0</speed>
  <fix>3d</fix>
</trkpt>
<trkpt lat="40.072842" lon="-105.230575">
  <ele>1586.09</ele>
  <time>2026-08-28T19:08:42Z</time>
  <course>12.08</course>
  <speed>0.01414213562373095</speed>
  <fix>3d</fix>
</trkpt>
<trkpt lat="40.072842" lon="-105.230575">
  <ele>1586.09</ele>
  <time>2026-08-28T19:08:42Z</time>
  <course>266.03</course>
  <speed>0.0</speed>
  <fix>3d</fix>
</trkpt>
<trkpt lat="40.072842" lon="-105.230575">
  <ele>1586.09</ele>
  <time>2026-08-28T19:08:42Z</time>
  <course>12.07</course>
  <speed>0.01414213562373095</speed>
  <fix>3d</fix>
</trkpt>
<trkpt lat="40.072842" lon="-105.230575">
  <ele>1586.09</ele>
  <time>2026-08-28T19:08:42Z</time>
  <course>266.03</course>
  <speed>0.0</speed>
  <fix>3d</fix>
</trkpt>
<trkpt lat="40.072842" lon="-105.230575">
  <ele>1586.09</ele>
  <time>2026-08-28T19:08:42Z</time>
  <course>12.06</course>
  <speed>0.01414213562373095</speed>
  <fix>3d</fix>
</trkpt>
<trkpt lat="40.072842" lon="-105.230575">
  <ele>1586.09</ele>
  <time>2026-08-28T19:08:42Z</time>
  <course>266.03</course>
  <speed>0.0</speed>
  <fix>3d</fix>
</trkpt>
<trkpt lat="40.072842" lon="-105.230575">
  <ele>1586.09</ele>
  <time>2026-08-28T19:08:42Z</time>
  <course>12.05</course>
  <speed>0.01414213562373095</speed>
  <fix>3d</fix>
</trkpt>
<trkpt lat="40.072842" lon="-105.230575">
  <ele>1586.09</ele>
  <time>2026-08-28T19:08:42Z</time>
  <course>266.03</course>
  <speed>0.0</speed>
  <fix>3d</fix>
</trkpt>
<trkpt lat="40.072842" lon="-105.230575">
  <ele>1586.09</ele>
  <time>2026-08-28T19:08:42Z</time>
  <course>12.05</course>
  <speed>0.01414213562373095</speed>
  <fix>3d</fix>
</trkpt>
<trkpt lat="40.072842" lon="-105.230575">
  <ele>1586.09</ele>
  <time>2026-08-28T19:08:42Z</time>
  <course>266.03</course>
  <speed>0.0</speed>
  <fix>3d</fix>
</trkpt>
<trkpt lat="40.072842" lon="-105.230575">
  <ele>1586.09</ele>
  <time>2026-08-28T19:08:42Z</time>
  <course>12.04</course>
  <speed>0.01414213562373095</speed>
  <fix>3d</fix>
</trkpt>
<trkpt lat="40.072842" lon="-105.230575">
  <ele>1586.09</ele>
  <time>2026-08-28T19:08:42Z</time>
  <course>266.03</course>
  <speed>0.0</speed>
  <fix>3d</fix>
</trkpt>
<trkpt lat="40.072842" lon="-105.230575">
  <ele>1586.09</ele>
  <time>2026-08-28T19:08:42Z</time>
  <course>12.03</course>
  <speed>0.01414213562373095</speed>
  <fix>3d</fix>
</trkpt>
<trkpt lat="40.072842" lon="-105.230575">
  <ele>1586.09</ele>
  <time>2026-08-28T19:08:42Z</time>
  <course>266.03</course>
  <speed>0.0</speed>
  <fix>3d</fix>
</trkpt>
<trkpt lat="40.072842" lon="-105.230575">
  <ele>1586.09</ele>
  <time>2026-08-28T19:08:42Z</time>
  <course>12.03</course>
  <speed>0.01414213562373095</speed>
  <fix>3d</fix>
</trkpt>
<trkpt lat="40.072842" lon="-105.230575">
  <ele>1586.09</ele>
  <time>2026-08-28T19:08:42Z</time>
  <course>266.03</course>
  <speed>0.0</speed>
  <fix>3d</fix>
</trkpt>
<trkpt lat="40.072842" lon="-105.230575">
  <ele>1586.09</ele>
  <time>2026-08-28T19:08:42Z</time>
  <course>12.02</course>
  <speed>0.01414213562373095</speed>
  <fix>3d</fix>
</trkpt>
<trkpt lat="40.072842" lon="-105.230575">
  <ele>1586.09</ele>
  <time>2026-08-28T19:08:42Z</time>
  <course>266.03</course>
  <speed>0.0</speed>
  <fix>3d</fix>
</trkpt>
<trkpt lat="40.072842" lon="-105.230575">
  <ele>1586.09</ele>
  <time>2026-08-28T19:08:42Z</time>
  <course>12.01</course>
  <speed>0.01414213562373095</speed>
  <fix>3d</fix>
</trkpt>
<trkpt lat="40.072842" lon="-105.230575">
  <ele>1586.09</ele>
  <time>2026-08-28T19:08:42Z</time>
  <course>266.03</course>
  <speed>0.0</speed>
  <fix>3d</fix>
</trkpt>
<trkpt lat="40.072842" lon="-105.230575">
  <ele>1586.09</ele>
  <time>2026-08-28T19:08:42Z</time>
  <course>12.01</course>
  <speed>0.01414213562373095</speed>
  <fix>3d</fix>
</trkpt>
<trkpt lat="40.072842" lon="-105.230575">
  <ele>1586.09</ele>
  <time>2026-08-28T19:08:42Z</time>
  <course>266.03</course>
  <speed>0.0</speed>
  <fix>3d</fix>
</trkpt>
<trkpt lat="40.072842" lon="-105.230575">
  <ele>1586.09</ele>
  <time>2026-08-28T19:08:42Z</time>
  <course>12.0</course>
  <speed>0.01414213562373095</speed>
  <fix>3d</fix>
</trkpt>
<trkpt lat="40.072842" lon="-105.230575">
  <ele>1586.09</ele>
  <time>2026-08-28T19:08:42Z</time>
  <course>266.03</course>
  <speed>0.0</speed>
  <fix>3d</fix>
</trkpt>
<trkpt lat="40.072842" lon="-105.230575">
  <ele>1586.09</ele>
  <time>2026-08-28T19:08:42Z</time>
  <course>11.99</course>
  <speed>0.01414213562373095</speed>
  <fix>3d</fix>
</trkpt>
<trkpt lat="40.072842" lon="-105.230575">
  <ele>1586.09</ele>
  <time>2026-08-28T19:08:42Z</time>
  <course>266.03</course>
  <speed>0.0</speed>
  <fix>3d</fix>
</trkpt>
<trkpt lat="40.072842" lon="-105.230575">
  <ele>1586.09</ele>
  <time>2026-08-28T19:08:42Z</time>
  <course>11.98</course>
  <speed>0.01414213562373095</speed>
  <fix>3d</fix>
</trkpt>
<trkpt lat="40.072842" lon="-105.230575">
  <ele>1586.09</ele>
  <time>2026-08-28T19:08:42Z</time>
  <course>266.03</course>
  <speed>0.0</speed>
  <fix>3d</fix>
</trkpt>
<trkpt lat="40.072842" lon="-105.230575">
  <ele>1586.09</ele>
  <time>2026-08-28T19:08:42Z</time>
  <course>11.98</course>
  <speed>0.01414213562373095</speed>
  <fix>3d</fix>
</trkpt>
<trkpt lat="40.072842" lon="-105.230575">
  <ele>1586.09</ele>
  <time>2026-08-28T19:08:42Z</time>
  <course>266.03</course>
  <speed>0.0</speed>
  <fix>3d</fix>
</trkpt>
<trkpt lat="40.072842" lon="-105.230575">
  <ele>1586.09</ele>
  <time>2026-08-28T19:08:42Z</time>
  <course>11.97</course>
  <speed>0.022360679774997897</speed>
  <fix>3d</fix>
</trkpt>
<trkpt lat="40.072842" lon="-105.230575">
  <ele>1586.09</ele>
  <time>2026-08-28T19:08:42Z</time>
  <course>266.03</course>
  <speed>0.0</speed>
  <fix>3d</fix>
</trkpt>
<trkpt lat="40.072842" lon="-105.230575">
  <ele>1586.09</ele>
  <time>2026-08-28T19:08:42Z</time>
  <course>11.96</course>
  <speed>0.022360679774997897</speed>
  <fix>3d</fix>
</trkpt>
<trkpt lat="40.072842" lon="-105.230575">
  <ele>1586.09</ele>
  <time>2026-08-28T19:08:42Z</time>
  <course>266.03</course>
  <speed>0.0</speed>
  <fix>3d</fix>
</trkpt>
<trkpt lat="40.072842" lon="-105.230575">
  <ele>1586.09</ele>
  <time>2026-08-28T19:08:42Z</time>
  <course>11.95</course>
  <speed>0.022360679774997897</speed>
  <fix>3d</fix>
</trkpt>
<trkpt lat="40.072842" lon="-105.230575">
  <ele>1586.09</ele>
  <time>2026-08-28T19:08:42Z</time>
  <course>266.03</course>
  <speed>0.0</speed>
  <fix>3d</fix>
</trkpt>
<trkpt lat="40.072842" lon="-105.230575">
  <ele>1586.09</ele>
  <time>2026-08-28T19:08:42Z</time>
  <course>11.94</course>
  <speed>0.022360679774997897</speed>
  <fix>3d</fix>
</trkpt>
<trkpt lat="40.072842" lon="-105.230575">
  <ele>1586.09</ele>
  <time>2026-08-28T19:08:42Z</time>
  <course>266.03</course>
  <speed>0.0</speed>
  <fix>3d</fix>
</trkpt>
<trkpt lat="40.072842" lon="-105.230575">
  <ele>1586.09</ele>
  <time>2026-08-28T19:08:42Z</time>
  <course>11.93</course>
  <speed>0.022360679774997897</speed>
  <fix>3d</fix>
</trkpt>
<trkpt lat="40.072842" lon="-105.230575">
  <ele>1586.09</ele>
  <time>2026-08-28T19:08:42Z</time>
  <course>266.03</course>
  <speed>0.0</speed>
  <fix>3d</fix>
</trkpt>
<trkpt lat="40.072842" lon="-105.230575">
  <ele>1586.09</ele>
  <time>2026-08-28T19:08:42Z</time>
  <course>11.92</course>
  <speed>0.022360679774997897</speed>
  <fix>3d</fix>
</trkpt>
<trkpt lat="40.072842" lon="-105.230575">
  <ele>1586.09</ele>
  <time>2026-08-28T19:08:42Z</time>
  <course>266.03</course>
  <speed>0.0</speed>
  <fix>3d</fix>
</trkpt>
<trkpt lat="40.072842" lon="-105.230575">
  <ele>1586.09</ele>
  <time>2026-08-28T19:08:42Z</time>
  <course>11.92</course>
  <speed>0.022360679774997897</speed>
  <fix>3d</fix>
</trkpt>
<trkpt lat="40.072842" lon="-105.230575">
  <ele>1586.09</ele>
  <time>2026-08-28T19:08:42Z</time>
  <course>266.03</course>
  <speed>0.0</speed>
  <fix>3d</fix>
</trkpt>
<trkpt lat="40.072842" lon="-105.230575">
  <ele>1586.09</ele>
  <time>2026-08-28T19:08:42Z</time>
  <course>11.91</course>
  <speed>0.022360679774997897</speed>
  <fix>3d</fix>
</trkpt>
<trkpt lat="40.072842" lon="-105.230575">
  <ele>1586.09</ele>
  <time>2026-08-28T19:08:42Z</time>
  <course>266.03</course>
  <speed>0.0</speed>
  <fix>3d</fix>
</trkpt>
<trkpt lat="40.072842" lon="-105.230575">
  <ele>1586.09</ele>
  <time>2026-08-28T19:08:42Z</time>
  <course>11.9</course>
  <speed>0.022360679774997897</speed>
  <fix>3d</fix>
</trkpt>
<trkpt lat="40.072842" lon="-105.230575">
  <ele>1586.09</ele>
  <time>2026-08-28T19:08:42Z</time>
  <course>266.03</course>
  <speed>0.0</speed>
  <fix>3d</fix>
</trkpt>
<trkpt lat="40.072842" lon="-105.230575">
  <ele>1586.09</ele>
  <time>2026-08-28T19:08:42Z</time>
  <course>11.89</course>
  <speed>0.022360679774997897</speed>
  <fix>3d</fix>
</trkpt>
<trkpt lat="40.072842" lon="-105.230575">
  <ele>1586.09</ele>
  <time>2026-08-28T19:08:42Z</time>
  <course>266.03</course>
  <speed>0.0</speed>
  <fix>3d</fix>
</trkpt>
<trkpt lat="40.072842" lon="-105.230575">
  <ele>1586.09</ele>
  <time>2026-08-28T19:08:42Z</time>
  <course>11.88</course>
  <speed>0.022360679774997897</speed>
  <fix>3d</fix>
</trkpt>
<trkpt lat="40.072842" lon="-105.230575">
  <ele>1586.09</ele>
  <time>2026-08-28T19:08:42Z</time>
  <course>266.03</course>
  <speed>0.0</speed>
  <fix>3d</fix>
</trkpt>
<trkpt lat="40.072842" lon="-105.230575">
  <ele>1586.09</ele>
  <time>2026-08-28T19:08:42Z</time>
  <course>11.87</course>
  <speed>0.022360679774997897</speed>
  <fix>3d</fix>
</trkpt>
<trkpt lat="40.072842" lon="-105.230575">
  <ele>1586.09</ele>
  <time>2026-08-28T19:08:42Z</time>
  <course>266.03</course>
  <speed>0.0</speed>
  <fix>3d</fix>
</trkpt>
<trkpt lat="40.072842" lon="-105.230575">
  <ele>1586.09</ele>
  <time>2026-08-28T19:08:42Z</time>
  <course>11.87</course>
  <speed>0.022360679774997897</speed>
  <fix>3d</fix>
</trkpt>
<trkpt lat="40.072842" lon="-105.230575">
  <ele>1586.09</ele>
  <time>2026-08-28T19:08:42Z</time>
  <course>266.03</course>
  <speed>0.0</speed>
  <fix>3d</fix>
</trkpt>
<trkpt lat="40.072842" lon="-105.230575">
  <ele>1586.09</ele>
  <time>2026-08-28T19:08:42Z</time>
  <course>11.86</course>
  <speed>0.022360679774997897</speed>
  <fix>3d</fix>
</trkpt>
<trkpt lat="40.072842" lon="-105.230575">
  <ele>1586.09</ele>
  <time>2026-08-28T19:08:42Z</time>
  <course>266.03</course>
  <speed>0.0</speed>
  <fix>3d</fix>
</trkpt>
<trkpt lat="40.072842" lon="-105.230575">
  <ele>1586.09</ele>
  <time>2026-08-28T19:08:42Z</time>
  <course>11.85</course>
  <speed>0.022360679774997897</speed>
  <fix>3d</fix>
</trkpt>
<trkpt lat="40.072842" lon="-105.230575">
  <ele>1586.09</ele>
  <time>2026-08-28T19:08:42Z</time>
  <course>266.03</course>
  <speed>0.0</speed>
  <fix>3d</fix>
</trkpt>
<trkpt lat="40.072842" lon="-105.230575">
  <ele>1586.09</ele>
  <time>2026-08-28T19:08:42Z</time>
  <course>11.84</course>
  <speed>0.0282842712474619</speed>
  <fix>3d</fix>
</trkpt>
<trkpt lat="40.072842" lon="-105.230575">
  <ele>1586.09</ele>
  <time>2026-08-28T19:08:42Z</time>
  <course>266.03</course>
  <speed>0.0</speed>
  <fix>3d</fix>
</trkpt>
<trkpt lat="40.072842" lon="-105.230575">
  <ele>1586.09</ele>
  <time>2026-08-28T19:08:42Z</time>
  <course>11.83</course>
  <speed>0.0282842712474619</speed>
  <fix>3d</fix>
</trkpt>
<trkpt lat="40.072842" lon="-105.230575">
  <ele>1586.09</ele>
  <time>2026-08-28T19:08:42Z</time>
  <course>266.03</course>
  <speed>0.0</speed>
  <fix>3d</fix>
</trkpt>
<trkpt lat="40.072842" lon="-105.230575">
  <ele>1586.09</ele>
  <time>2026-08-28T19:08:42Z</time>
  <course>11.83</course>
  <speed>0.0282842712474619</speed>
  <fix>3d</fix>
</trkpt>
<trkpt lat="40.072842" lon="-105.230575">
  <ele>1586.09</ele>
  <time>2026-08-28T19:08:42Z</time>
  <course>266.03</course>
  <speed>0.0</speed>
  <fix>3d</fix>
</trkpt>
<trkpt lat="40.072842" lon="-105.230575">
  <ele>1586.09</ele>
  <time>2026-08-28T19:08:42Z</time>
  <course>11.82</course>
  <speed>0.0282842712474619</speed>
  <fix>3d</fix>
</trkpt>
<trkpt lat="40.072842" lon="-105.230575">
  <ele>1586.09</ele>
  <time>2026-08-28T19:08:42Z</time>
  <course>266.03</course>
  <speed>0.0</speed>
  <fix>3d</fix>
</trkpt>
<trkpt lat="40.072842" lon="-105.230575">
  <ele>1586.09</ele>
  <time>2026-08-28T19:08:42Z</time>
  <course>11.81</course>
  <speed>0.0282842712474619</speed>
  <fix>3d</fix>
</trkpt>
<trkpt lat="40.072842" lon="-105.230575">
  <ele>1586.09</ele>
  <time>2026-08-28T19:08:42Z</time>
  <course>266.03</course>
  <speed>0.0</speed>
  <fix>3d</fix>
</trkpt>
<trkpt lat="40.072842" lon="-105.230575">
  <ele>1586.09</ele>
  <time>2026-08-28T19:08:42Z</time>
  <course>11.8</course>
  <speed>0.0282842712474619</speed>
  <fix>3d</fix>
</trkpt>
<trkpt lat="40.072842" lon="-105.230575">
  <ele>1586.09</ele>
  <time>2026-08-28T19:08:42Z</time>
  <course>266.03</course>
  <speed>0.0</speed>
  <fix>3d</fix>
</trkpt>
<trkpt lat="40.072842" lon="-105.230575">
  <ele>1586.09</ele>
  <time>2026-08-28T19:08:42Z</time>
  <course>11.79</course>
  <speed>0.0282842712474619</speed>
  <fix>3d</fix>
</trkpt>
<trkpt lat="40.072842" lon="-105.230575">
  <ele>1586.09</ele>
  <time>2026-08-28T19:08:42Z</time>
  <course>266.03</course>
  <speed>0.0</speed>
  <fix>3d</fix>
</trkpt>
<trkpt lat="40.072842" lon="-105.230575">
  <ele>1586.09</ele>
  <time>2026-08-28T19:08:42Z</time>
  <course>11.79</course>
  <speed>0.0282842712474619</speed>
  <fix>3d</fix>
</trkpt>
<trkpt lat="40.072842" lon="-105.230575">
  <ele>1586.09</ele>
  <time>2026-08-28T19:08:42Z</time>
  <course>266.03</course>
  <speed>0.0</speed>
  <fix>3d</fix>
</trkpt>
<trkpt lat="40.072842" lon="-105.230575">
  <ele>1586.09</ele>
  <time>2026-08-28T19:08:42Z</time>
  <course>11.78</course>
  <speed>0.0282842712474619</speed>
  <fix>3d</fix>
</trkpt>
<trkpt lat="40.072842" lon="-105.230575">
  <ele>1586.09</ele>
  <time>2026-08-28T19:08:42Z</time>
  <course>266.03</course>
  <speed>0.0</speed>
  <fix>3d</fix>
</trkpt>
<trkpt lat="40.072842" lon="-105.230575">
  <ele>1586.09</ele>
  <time>2026-08-28T19:08:42Z</time>
  <course>11.77</course>
  <speed>0.0282842712474619</speed>
  <fix>3d</fix>
</trkpt>
<trkpt lat="40.072842" lon="-105.230575">
  <ele>1586.09</ele>
  <time>2026-08-28T19:08:42Z</time>
  <course>266.03</course>
  <speed>0.0</speed>
  <fix>3d</fix>
</trkpt>
<trkpt lat="40.072842" lon="-105.230575">
  <ele>1586.09</ele>
  <time>2026-08-28T19:08:42Z</time>
  <course>11.77</course>
  <speed>0.0282842712474619</speed>
  <fix>3d</fix>
</trkpt>
<trkpt lat="40.072842" lon="-105.230575">
  <ele>1586.09</ele>
  <time>2026-08-28T19:08:42Z</time>
  <course>266.03</course>
  <speed>0.0</speed>
  <fix>3d</fix>
</trkpt>
<trkpt lat="40.072842" lon="-105.230575">
  <ele>1586.09</ele>
  <time>2026-08-28T19:08:42Z</time>
  <course>11.76</course>
  <speed>0.0282842712474619</speed>
  <fix>3d</fix>
</trkpt>
<trkpt lat="40.072842" lon="-105.230575">
  <ele>1586.09</ele>
  <time>2026-08-28T19:08:42Z</time>
  <course>266.03</course>
  <speed>0.0</speed>
  <fix>3d</fix>
</trkpt>
<trkpt lat="40.072842" lon="-105.230575">
  <ele>1586.09</ele>
  <time>2026-08-28T19:08:42Z</time>
  <course>11.75</course>
  <speed>0.03605551275463989</speed>
  <fix>3d</fix>
</trkpt>
<trkpt lat="40.072842" lon="-105.230575">
  <ele>1586.09</ele>
  <time>2026-08-28T19:08:42Z</time>
  <course>266.03</course>
  <speed>0.0</speed>
  <fix>3d</fix>
</trkpt>
<trkpt lat="40.072842" lon="-105.230575">
  <ele>1586.09</ele>
  <time>2026-08-28T19:08:42Z</time>
  <course>11.74</course>
  <speed>0.03605551275463989</speed>
  <fix>3d</fix>
</trkpt>
<trkpt lat="40.072842" lon="-105.230575">
  <ele>1586.09</ele>
  <time>2026-08-28T19:08:42Z</time>
  <course>266.03</course>
  <speed>0.0</speed>
  <fix>3d</fix>
</trkpt>
<trkpt lat="40.072842" lon="-105.230575">
  <ele>1586.09</ele>
  <time>2026-08-28T19:08:42Z</time>
  <course>11.73</course>
  <speed>0.03605551275463989</speed>
  <fix>3d</fix>
</trkpt>
<trkpt lat="40.072842" lon="-105.230575">
  <ele>1586.09</ele>
  <time>2026-08-28T19:08:42Z</time>
  <course>266.03</course>
  <speed>0.0</speed>
  <fix>3d</fix>
</trkpt>
<trkpt lat="40.072842" lon="-105.230575">
  <ele>1586.09</ele>
  <time>2026-08-28T19:08:42Z</time>
  <course>11.73</course>
  <speed>0.03605551275463989</speed>
  <fix>3d</fix>
</trkpt>
<trkpt lat="40.072842" lon="-105.230575">
  <ele>1586.09</ele>
  <time>2026-08-28T19:08:42Z</time>
  <course>266.03</course>
  <speed>0.0</speed>
  <fix>3d</fix>
</trkpt>
<trkpt lat="40.072842" lon="-105.230575">
  <ele>1586.09</ele>
  <time>2026-08-28T19:08:42Z</time>
  <course>11.72</course>
  <speed>0.03605551275463989</speed>
  <fix>3d</fix>
</trkpt>
<trkpt lat="40.072842" lon="-105.230575">
  <ele>1586.09</ele>
  <time>2026-08-28T19:08:42Z</time>
  <course>266.03</course>
  <speed>0.0</speed>
  <fix>3d</fix>
</trkpt>
<trkpt lat="40.072842" lon="-105.230575">
  <ele>1586.09</ele>
  <time>2026-08-28T19:08:42Z</time>
  <course>11.71</course>
  <speed>0.03605551275463989</speed>
  <fix>3d</fix>
</trkpt>
<trkpt lat="40.072842" lon="-105.230575">
  <ele>1586.09</ele>
  <time>2026-08-28T19:08:42Z</time>
  <course>266.03</course>
  <speed>0.0</speed>
  <fix>3d</fix>
</trkpt>
<trkpt lat="40.072842" lon="-105.230575">
  <ele>1586.09</ele>
  <time>2026-08-28T19:08:42Z</time>
  <course>11.71</course>
  <speed>0.03605551275463989</speed>
  <fix>3d</fix>
</trkpt>
<trkpt lat="40.072842" lon="-105.230575">
  <ele>1586.09</ele>
  <time>2026-08-28T19:08:42Z</time>
  <course>266.03</course>
  <speed>0.0</speed>
  <fix>3d</fix>
</trkpt>
<trkpt lat="40.072842" lon="-105.230575">
  <ele>1586.09</ele>
  <time>2026-08-28T19:08:42Z</time>
  <course>11.7</course>
  <speed>0.03605551275463989</speed>
  <fix>3d</fix>
</trkpt>
<trkpt lat="40.072842" lon="-105.230575">
  <ele>1586.09</ele>
  <time>2026-08-28T19:08:42Z</time>
  <course>266.03</course>
  <speed>0.0</speed>
  <fix>3d</fix>
</trkpt>
<trkpt lat="40.072842" lon="-105.230575">
  <ele>1586.09</ele>
  <time>2026-08-28T19:08:42Z</time>
  <course>11.69</course>
  <speed>0.03605551275463989</speed>
  <fix>3d</fix>
</trkpt>
<trkpt lat="40.072842" lon="-105.230575">
  <ele>1586.09</ele>
  <time>2026-08-28T19:08:42Z</time>
  <course>266.03</course>
  <speed>0.0</speed>
  <fix>3d</fix>
</trkpt>
<trkpt lat="40.072842" lon="-105.230575">
  <ele>1586.09</ele>
  <time>2026-08-28T19:08:42Z</time>
  <course>11.68</course>
  <speed>0.03605551275463989</speed>
  <fix>3d</fix>
</trkpt>
<trkpt lat="40.072842" lon="-105.230575">
  <ele>1586.09</ele>
  <time>2026-08-28T19:08:42Z</time>
  <course>266.03</course>
  <speed>0.0</speed>
  <fix>3d</fix>
</trkpt>
<trkpt lat="40.072842" lon="-105.230575">
  <ele>1586.09</ele>
  <time>2026-08-28T19:08:42Z</time>
  <course>11.68</course>
  <speed>0.03605551275463989</speed>
  <fix>3d</fix>
</trkpt>
<trkpt lat="40.072842" lon="-105.230575">
  <ele>1586.09</ele>
  <time>2026-08-28T19:08:42Z</time>
  <course>266.03</course>
  <speed>0.0</speed>
  <fix>3d</fix>
</trkpt>
<trkpt lat="40.072842" lon="-105.230575">
  <ele>1586.09</ele>
  <time>2026-08-28T19:08:42Z</time>
  <course>11.67</course>
  <speed>0.03605551275463989</speed>
  <fix>3d</fix>
</trkpt>
<trkpt lat="40.072842" lon="-105.230575">
  <ele>1586.09</ele>
  <time>2026-08-28T19:08:42Z</time>
  <course>266.03</course>
  <speed>0.0</speed>
  <fix>3d</fix>
</trkpt>
<trkpt lat="40.072842" lon="-105.230575">
  <ele>1586.09</ele>
  <time>2026-08-28T19:08:42Z</time>
  <course>11.66</course>
  <speed>0.03605551275463989</speed>
  <fix>3d</fix>
</trkpt>
<trkpt lat="40.072842" lon="-105.230575">
  <ele>1586.09</ele>
  <time>2026-08-28T19:08:42Z</time>
  <course>266.03</course>
  <speed>0.0</speed>
  <fix>3d</fix>
</trkpt>
<trkpt lat="40.072842" lon="-105.230575">
  <ele>1586.09</ele>
  <time>2026-08-28T19:08:42Z</time>
  <course>11.65</course>
  <speed>0.03605551275463989</speed>
  <fix>3d</fix>
</trkpt>
<trkpt lat="40.072842" lon="-105.230575">
  <ele>1586.09</ele>
  <time>2026-08-28T19:08:42Z</time>
  <course>266.03</course>
  <speed>0.0</speed>
  <fix>3d</fix>
</trkpt>
<trkpt lat="40.072842" lon="-105.230575">
  <ele>1586.09</ele>
  <time>2026-08-28T19:08:42Z</time>
  <course>11.65</course>
  <speed>0.03605551275463989</speed>
  <fix>3d</fix>
</trkpt>
<trkpt lat="40.072842" lon="-105.230575">
  <ele>1586.09</ele>
  <time>2026-08-28T19:08:42Z</time>
  <course>266.03</course>
  <speed>0.0</speed>
  <fix>3d</fix>
</trkpt>
<trkpt lat="40.072842" lon="-105.230575">
  <ele>1586.09</ele>
  <time>2026-08-28T19:08:42Z</time>
  <course>11.64</course>
  <speed>0.03605551275463989</speed>
  <fix>3d</fix>
</trkpt>
<trkpt lat="40.072842" lon="-105.230575">
  <ele>1586.09</ele>
  <time>2026-08-28T19:08:42Z</time>
  <course>266.03</course>
  <speed>0.0</speed>
  <fix>3d</fix>
</trkpt>
<trkpt lat="40.072842" lon="-105.230575">
  <ele>1586.09</ele>
  <time>2026-08-28T19:08:42Z</time>
  <course>11.63</course>
  <speed>0.03605551275463989</speed>
  <fix>3d</fix>
</trkpt>
<trkpt lat="40.072842" lon="-105.230575">
  <ele>1586.09</ele>
  <time>2026-08-28T19:08:42Z</time>
  <course>266.03</course>
  <speed>0.0</speed>
  <fix>3d</fix>
</trkpt>
<trkpt lat="40.072842" lon="-105.230575">
  <ele>1586.09</ele>
  <time>2026-08-28T19:08:42Z</time>
  <course>11.63</course>
  <speed>0.03605551275463989</speed>
  <fix>3d</fix>
</trkpt>
<trkpt lat="40.072842" lon="-105.230575">
  <ele>1586.09</ele>
  <time>2026-08-28T19:08:42Z</time>
  <course>266.03</course>
  <speed>0.0</speed>
  <fix>3d</fix>
</trkpt>
<trkpt lat="40.072842" lon="-105.230575">
  <ele>1586.09</ele>
  <time>2026-08-28T19:08:43Z</time>
  <course>11.62</course>
  <speed>0.03605551275463989</speed>
  <fix>3d</fix>
</trkpt>
<trkpt lat="40.072842" lon="-105.230575">
  <ele>1586.09</ele>
  <time>2026-08-28T19:08:43Z</time>
  <course>266.03</course>
  <speed>0.0</speed>
  <fix>3d</fix>
</trkpt>
<trkpt lat="40.072842" lon="-105.230575">
  <ele>1586.09</ele>
  <time>2026-08-28T19:08:43Z</time>
  <course>11.61</course>
  <speed>0.03605551275463989</speed>
  <fix>3d</fix>
</trkpt>
<trkpt lat="40.072842" lon="-105.230575">
  <ele>1586.09</ele>
  <time>2026-08-28T19:08:43Z</time>
  <course>266.03</course>
  <speed>0.0</speed>
  <fix>3d</fix>
</trkpt>
<trkpt lat="40.072842" lon="-105.230575">
  <ele>1586.09</ele>
  <time>2026-08-28T19:08:43Z</time>
  <course>11.61</course>
  <speed>0.03605551275463989</speed>
  <fix>3d</fix>
</trkpt>
<trkpt lat="40.072842" lon="-105.230575">
  <ele>1586.09</ele>
  <time>2026-08-28T19:08:43Z</time>
  <course>266.03</course>
  <speed>0.0</speed>
  <fix>3d</fix>
</trkpt>
<trkpt lat="40.072842" lon="-105.230575">
  <ele>1586.09</ele>
  <time>2026-08-28T19:08:43Z</time>
  <course>11.6</course>
  <speed>0.03605551275463989</speed>
  <fix>3d</fix>
</trkpt>
<trkpt lat="40.072842" lon="-105.230575">
  <ele>1586.09</ele>
  <time>2026-08-28T19:08:43Z</time>
  <course>266.03</course>
  <speed>0.0</speed>
  <fix>3d</fix>
</trkpt>
<trkpt lat="40.072842" lon="-105.230575">
  <ele>1586.09</ele>
  <time>2026-08-28T19:08:43Z</time>
  <course>11.6</course>
  <speed>0.03605551275463989</speed>
  <fix>3d</fix>
</trkpt>
<trkpt lat="40.072842" lon="-105.230575">
  <ele>1586.09</ele>
  <time>2026-08-28T19:08:43Z</time>
  <course>266.03</course>
  <speed>0.0</speed>
  <fix>3d</fix>
</trkpt>
<trkpt lat="40.072842" lon="-105.230575">
  <ele>1586.09</ele>
  <time>2026-08-28T19:08:43Z</time>
  <course>11.59</course>
  <speed>0.03605551275463989</speed>
  <fix>3d</fix>
</trkpt>
<trkpt lat="40.072842" lon="-105.230575">
  <ele>1586.09</ele>
  <time>2026-08-28T19:08:43Z</time>
  <course>266.03</course>
  <speed>0.0</speed>
  <fix>3d</fix>
</trkpt>
<trkpt lat="40.072842" lon="-105.230575">
  <ele>1586.09</ele>
  <time>2026-08-28T19:08:43Z</time>
  <course>11.58</course>
  <speed>0.03605551275463989</speed>
  <fix>3d</fix>
</trkpt>
<trkpt lat="40.072842" lon="-105.230575">
  <ele>1586.09</ele>
  <time>2026-08-28T19:08:43Z</time>
  <course>266.03</course>
  <speed>0.0</speed>
  <fix>3d</fix>
</trkpt>
<trkpt lat="40.072842" lon="-105.230575">
  <ele>1586.09</ele>
  <time>2026-08-28T19:08:43Z</time>
  <course>11.58</course>
  <speed>0.03605551275463989</speed>
  <fix>3d</fix>
</trkpt>
<trkpt lat="40.072842" lon="-105.230575">
  <ele>1586.09</ele>
  <time>2026-08-28T19:08:43Z</time>
  <course>266.03</course>
  <speed>0.0</speed>
  <fix>3d</fix>
</trkpt>
<trkpt lat="40.072842" lon="-105.230575">
  <ele>1586.09</ele>
  <time>2026-08-28T19:08:43Z</time>
  <course>11.57</course>
  <speed>0.03605551275463989</speed>
  <fix>3d</fix>
</trkpt>
<trkpt lat="40.072842" lon="-105.230575">
  <ele>1586.09</ele>
  <time>2026-08-28T19:08:43Z</time>
  <course>266.03</course>
  <speed>0.0</speed>
  <fix>3d</fix>
</trkpt>
<trkpt lat="40.072842" lon="-105.230575">
  <ele>1586.09</ele>
  <time>2026-08-28T19:08:43Z</time>
  <course>11.56</course>
  <speed>0.03605551275463989</speed>
  <fix>3d</fix>
</trkpt>
<trkpt lat="40.072842" lon="-105.230575">
  <ele>1586.09</ele>
  <time>2026-08-28T19:08:43Z</time>
  <course>266.03</course>
  <speed>0.0</speed>
  <fix>3d</fix>
</trkpt>
<trkpt lat="40.072842" lon="-105.230575">
  <ele>1586.09</ele>
  <time>2026-08-28T19:08:43Z</time>
  <course>11.56</course>
  <speed>0.03605551275463989</speed>
  <fix>3d</fix>
</trkpt>
<trkpt lat="40.072842" lon="-105.230575">
  <ele>1586.09</ele>
  <time>2026-08-28T19:08:43Z</time>
  <course>266.03</course>
  <speed>0.0</speed>
  <fix>3d</fix>
</trkpt>
<trkpt lat="40.072842" lon="-105.230575">
  <ele>1586.09</ele>
  <time>2026-08-28T19:08:43Z</time>
  <course>11.55</course>
  <speed>0.03605551275463989</speed>
  <fix>3d</fix>
</trkpt>
<trkpt lat="40.072842" lon="-105.230575">
  <ele>1586.09</ele>
  <time>2026-08-28T19:08:43Z</time>
  <course>266.03</course>
  <speed>0.0</speed>
  <fix>3d</fix>
</trkpt>
<trkpt lat="40.072842" lon="-105.230575">
  <ele>1586.09</ele>
  <time>2026-08-28T19:08:43Z</time>
  <course>11.55</course>
  <speed>0.03605551275463989</speed>
  <fix>3d</fix>
</trkpt>
<trkpt lat="40.072842" lon="-105.230575">
  <ele>1586.09</ele>
  <time>2026-08-28T19:08:43Z</time>
  <course>266.03</course>
  <speed>0.0</speed>
  <fix>3d</fix>
</trkpt>
<trkpt lat="40.072842" lon="-105.230575">
  <ele>1586.09</ele>
  <time>2026-08-28T19:08:43Z</time>
  <course>11.54</course>
  <speed>0.03605551275463989</speed>
  <fix>3d</fix>
</trkpt>
<trkpt lat="40.072842" lon="-105.230575">
  <ele>1586.09</ele>
  <time>2026-08-28T19:08:43Z</time>
  <course>266.03</course>
  <speed>0.0</speed>
  <fix>3d</fix>
</trkpt>
<trkpt lat="40.072842" lon="-105.230575">
  <ele>1586.09</ele>
  <time>2026-08-28T19:08:43Z</time>
  <course>11.53</course>
  <speed>0.03605551275463989</speed>
  <fix>3d</fix>
</trkpt>
<trkpt lat="40.072842" lon="-105.230575">
  <ele>1586.09</ele>
  <time>2026-08-28T19:08:43Z</time>
  <course>266.03</course>
  <speed>0.0</speed>
  <fix>3d</fix>
</trkpt>
<trkpt lat="40.072842" lon="-105.230575">
  <ele>1586.09</ele>
  <time>2026-08-28T19:08:43Z</time>
  <course>11.53</course>
  <speed>0.03605551275463989</speed>
  <fix>3d</fix>
</trkpt>
<trkpt lat="40.072842" lon="-105.230575">
  <ele>1586.09</ele>
  <time>2026-08-28T19:08:43Z</time>
  <course>266.03</course>
  <speed>0.0</speed>
  <fix>3d</fix>
</trkpt>
<trkpt lat="40.072842" lon="-105.230575">
  <ele>1586.09</ele>
  <time>2026-08-28T19:08:43Z</time>
  <course>11.52</course>
  <speed>0.03605551275463989</speed>
  <fix>3d</fix>
</trkpt>
<trkpt lat="40.072842" lon="-105.230575">
  <ele>1586.09</ele>
  <time>2026-08-28T19:08:43Z</time>
  <course>266.03</course>
  <speed>0.0</speed>
  <fix>3d</fix>
</trkpt>
<trkpt lat="40.072842" lon="-105.230575">
  <ele>1586.09</ele>
  <time>2026-08-28T19:08:43Z</time>
  <course>11.52</course>
  <speed>0.03605551275463989</speed>
  <fix>3d</fix>
</trkpt>
<trkpt lat="40.072842" lon="-105.230575">
  <ele>1586.09</ele>
  <time>2026-08-28T19:08:43Z</time>
  <course>266.03</course>
  <speed>0.0</speed>
  <fix>3d</fix>
</trkpt>
<trkpt lat="40.072842" lon="-105.230575">
  <ele>1586.09</ele>
  <time>2026-08-28T19:08:43Z</time>
  <course>11.51</course>
  <speed>0.03605551275463989</speed>
  <fix>3d</fix>
</trkpt>
<trkpt lat="40.072842" lon="-105.230575">
  <ele>1586.09</ele>
  <time>2026-08-28T19:08:43Z</time>
  <course>266.03</course>
  <speed>0.0</speed>
  <fix>3d</fix>
</trkpt>
<trkpt lat="40.072842" lon="-105.230575">
  <ele>1586.09</ele>
  <time>2026-08-28T19:08:43Z</time>
  <course>11.51</course>
  <speed>0.03605551275463989</speed>
  <fix>3d</fix>
</trkpt>
<trkpt lat="40.072842" lon="-105.230575">
  <ele>1586.09</ele>
  <time>2026-08-28T19:08:43Z</time>
  <course>266.03</course>
  <speed>0.0</speed>
  <fix>3d</fix>
</trkpt>
<trkpt lat="40.072842" lon="-105.230575">
  <ele>1586.09</ele>
  <time>2026-08-28T19:08:43Z</time>
  <course>11.5</course>
  <speed>0.044721359549995794</speed>
  <fix>3d</fix>
</trkpt>
<trkpt lat="40.072842" lon="-105.230575">
  <ele>1586.09</ele>
  <time>2026-08-28T19:08:43Z</time>
  <course>266.03</course>
  <speed>0.0</speed>
  <fix>3d</fix>
</trkpt>
<trkpt lat="40.072842" lon="-105.230575">
  <ele>1586.09</ele>
  <time>2026-08-28T19:08:43Z</time>
  <course>11.49</course>
  <speed>0.044721359549995794</speed>
  <fix>3d</fix>
</trkpt>
<trkpt lat="40.072842" lon="-105.230575">
  <ele>1586.09</ele>
  <time>2026-08-28T19:08:43Z</time>
  <course>266.03</course>
  <speed>0.0</speed>
  <fix>3d</fix>
</trkpt>
<trkpt lat="40.072842" lon="-105.230575">
  <ele>1586.09</ele>
  <time>2026-08-28T19:08:43Z</time>
  <course>11.49</course>
  <speed>0.044721359549995794</speed>
  <fix>3d</fix>
</trkpt>
<trkpt lat="40.072842" lon="-105.230575">
  <ele>1586.09</ele>
  <time>2026-08-28T19:08:43Z</time>
  <course>266.03</course>
  <speed>0.0</speed>
  <fix>3d</fix>
</trkpt>
<trkpt lat="40.072842" lon="-105.230575">
  <ele>1586.09</ele>
  <time>2026-08-28T19:08:43Z</time>
  <course>11.48</course>
  <speed>0.044721359549995794</speed>
  <fix>3d</fix>
</trkpt>
<trkpt lat="40.072842" lon="-105.230575">
  <ele>1586.09</ele>
  <time>2026-08-28T19:08:43Z</time>
  <course>266.03</course>
  <speed>0.0</speed>
  <fix>3d</fix>
</trkpt>
<trkpt lat="40.072842" lon="-105.230575">
  <ele>1586.09</ele>
  <time>2026-08-28T19:08:43Z</time>
  <course>11.48</course>
  <speed>0.044721359549995794</speed>
  <fix>3d</fix>
</trkpt>
<trkpt lat="40.072842" lon="-105.230575">
  <ele>1586.09</ele>
  <time>2026-08-28T19:08:43Z</time>
  <course>266.03</course>
  <speed>0.0</speed>
  <fix>3d</fix>
</trkpt>
<trkpt lat="40.072842" lon="-105.230575">
  <ele>1586.09</ele>
  <time>2026-08-28T19:08:43Z</time>
  <course>11.47</course>
  <speed>0.044721359549995794</speed>
  <fix>3d</fix>
</trkpt>
<trkpt lat="40.072842" lon="-105.230575">
  <ele>1586.09</ele>
  <time>2026-08-28T19:08:43Z</time>
  <course>266.03</course>
  <speed>0.0</speed>
  <fix>3d</fix>
</trkpt>
<trkpt lat="40.072842" lon="-105.230575">
  <ele>1586.09</ele>
  <time>2026-08-28T19:08:43Z</time>
  <course>11.47</course>
  <speed>0.044721359549995794</speed>
  <fix>3d</fix>
</trkpt>
<trkpt lat="40.072842" lon="-105.230575">
  <ele>1586.09</ele>
  <time>2026-08-28T19:08:43Z</time>
  <course>266.03</course>
  <speed>0.0</speed>
  <fix>3d</fix>
</trkpt>
<trkpt lat="40.072842" lon="-105.230575">
  <ele>1586.09</ele>
  <time>2026-08-28T19:08:43Z</time>
  <course>11.46</course>
  <speed>0.044721359549995794</speed>
  <fix>3d</fix>
</trkpt>
<trkpt lat="40.072842" lon="-105.230575">
  <ele>1586.09</ele>
  <time>2026-08-28T19:08:43Z</time>
  <course>266.03</course>
  <speed>0.0</speed>
  <fix>3d</fix>
</trkpt>
<trkpt lat="40.072842" lon="-105.230575">
  <ele>1586.09</ele>
  <time>2026-08-28T19:08:43Z</time>
  <course>11.46</course>
  <speed>0.044721359549995794</speed>
  <fix>3d</fix>
</trkpt>
<trkpt lat="40.072842" lon="-105.230575">
  <ele>1586.09</ele>
  <time>2026-08-28T19:08:43Z</time>
  <course>266.03</course>
  <speed>0.0</speed>
  <fix>3d</fix>
</trkpt>
<trkpt lat="40.072842" lon="-105.230575">
  <ele>1586.16</ele>
  <time>2026-08-28T19:08:43Z</time>
  <course>11.45</course>
  <speed>0.0</speed>
  <fix>3d</fix>
</trkpt>
<trkpt lat="40.072842" lon="-105.230575">
  <ele>1586.09</ele>
  <time>2026-08-28T19:08:43Z</time>
  <course>297.19</course>
  <speed>0.0</speed>
  <fix>3d</fix>
</trkpt>
<trkpt lat="40.072842" lon="-105.230575">
  <ele>1586.16</ele>
  <time>2026-08-28T19:08:43Z</time>
  <course>11.45</course>
  <speed>0.0</speed>
  <fix>3d</fix>
</trkpt>
<trkpt lat="40.072842" lon="-105.230575">
  <ele>1586.09</ele>
  <time>2026-08-28T19:08:43Z</time>
  <course>269.87</course>
  <speed>0.0</speed>
  <fix>3d</fix>
</trkpt>
<trkpt lat="40.072842" lon="-105.230575">
  <ele>1586.16</ele>
  <time>2026-08-28T19:08:43Z</time>
  <course>11.44</course>
  <speed>0.0</speed>
  <fix>3d</fix>
</trkpt>
<trkpt lat="40.072842" lon="-105.230575">
  <ele>1586.09</ele>
  <time>2026-08-28T19:08:43Z</time>
  <course>241.23</course>
  <speed>0.0</speed>
  <fix>3d</fix>
</trkpt>
<trkpt lat="40.072842" lon="-105.230575">
  <ele>1586.16</ele>
  <time>2026-08-28T19:08:43Z</time>
  <course>11.44</course>
  <speed>0.0</speed>
  <fix>3d</fix>
</trkpt>
<trkpt lat="40.072842" lon="-105.230575">
  <ele>1586.09</ele>
  <time>2026-08-28T19:08:43Z</time>
  <course>93.08</course>
  <speed>0.0</speed>
  <fix>3d</fix>
</trkpt>
<trkpt lat="40.072842" lon="-105.230575">
  <ele>1586.17</ele>
  <time>2026-08-28T19:08:43Z</time>
  <course>11.44</course>
  <speed>0.0</speed>
  <fix>3d</fix>
</trkpt>
<trkpt lat="40.072842" lon="-105.230575">
  <ele>1586.09</ele>
  <time>2026-08-28T19:08:43Z</time>
  <course>317.31</course>
  <speed>0.0</speed>
  <fix>3d</fix>
</trkpt>
<trkpt lat="40.072842" lon="-105.230575">
  <ele>1586.17</ele>
  <time>2026-08-28T19:08:43Z</time>
  <course>11.43</course>
  <speed>0.01</speed>
  <fix>3d</fix>
</trkpt>
<trkpt lat="40.072842" lon="-105.230575">
  <ele>1586.09</ele>
  <time>2026-08-28T19:08:43Z</time>
  <course>265.24</course>
  <speed>0.0</speed>
  <fix>3d</fix>
</trkpt>
<trkpt lat="40.072842" lon="-105.230575">
  <ele>1586.17</ele>
  <time>2026-08-28T19:08:43Z</time>
  <course>11.43</course>
  <speed>0.01</speed>
  <fix>3d</fix>
</trkpt>
<trkpt lat="40.072842" lon="-105.230575">
  <ele>1586.09</ele>
  <time>2026-08-28T19:08:43Z</time>
  <course>261.76</course>
  <speed>0.0</speed>
  <fix>3d</fix>
</trkpt>
<trkpt lat="40.072842" lon="-105.230575">
  <ele>1586.17</ele>
  <time>2026-08-28T19:08:43Z</time>
  <course>11.42</course>
  <speed>0.01</speed>
  <fix>3d</fix>
</trkpt>
<trkpt lat="40.072842" lon="-105.230575">
  <ele>1586.09</ele>
  <time>2026-08-28T19:08:43Z</time>
  <course>266.78</course>
  <speed>0.0</speed>
  <fix>3d</fix>
</trkpt>
<trkpt lat="40.072842" lon="-105.230575">
  <ele>1586.17</ele>
  <time>2026-08-28T19:08:43Z</time>
  <course>11.42</course>
  <speed>0.01414213562373095</speed>
  <fix>3d</fix>
</trkpt>
<trkpt lat="40.072842" lon="-105.230575">
  <ele>1586.09</ele>
  <time>2026-08-28T19:08:43Z</time>
  <course>266.53</course>
  <speed>0.0</speed>
  <fix>3d</fix>
</trkpt>
<trkpt lat="40.072842" lon="-105.230575">
  <ele>1586.17</ele>
  <time>2026-08-28T19:08:43Z</time>
  <course>11.42</course>
  <speed>0.01414213562373095</speed>
  <fix>3d</fix>
</trkpt>
<trkpt lat="40.072842" lon="-105.230575">
  <ele>1586.09</ele>
  <time>2026-08-28T19:08:43Z</time>
  <course>265.88</course>
  <speed>0.0</speed>
  <fix>3d</fix>
</trkpt>
<trkpt lat="40.072842" lon="-105.230575">
  <ele>1586.17</ele>
  <time>2026-08-28T19:08:43Z</time>
  <course>11.4</course>
  <speed>0.01414213562373095</speed>
  <fix>3d</fix>
</trkpt>
<trkpt lat="40.072842" lon="-105.230575">
  <ele>1586.09</ele>
  <time>2026-08-28T19:08:43Z</time>
  <course>254.77</course>
  <speed>0.0</speed>
  <fix>3d</fix>
</trkpt>
<trkpt lat="40.072842" lon="-105.230575">
  <ele>1586.17</ele>
  <time>2026-08-28T19:08:43Z</time>
  <course>11.37</course>
  <speed>0.01414213562373095</speed>
  <fix>3d</fix>
</trkpt>
<trkpt lat="40.072842" lon="-105.230575">
  <ele>1586.09</ele>
  <time>2026-08-28T19:08:43Z</time>
  <course>258.58</course>
  <speed>0.0</speed>
  <fix>3d</fix>
</trkpt>
<trkpt lat="40.072842" lon="-105.230575">
  <ele>1586.17</ele>
  <time>2026-08-28T19:08:43Z</time>
  <course>11.33</course>
  <speed>0.01414213562373095</speed>
  <fix>3d</fix>
</trkpt>
<trkpt lat="40.072842" lon="-105.230575">
  <ele>1586.09</ele>
  <time>2026-08-28T19:08:43Z</time>
  <course>265.05</course>
  <speed>0.0</speed>
  <fix>3d</fix>
</trkpt>
<trkpt lat="40.072842" lon="-105.230575">
  <ele>1586.17</ele>
  <time>2026-08-28T19:08:43Z</time>
  <course>11.29</course>
  <speed>0.01414213562373095</speed>
  <fix>3d</fix>
</trkpt>
<trkpt lat="40.072842" lon="-105.230575">
  <ele>1586.09</ele>
  <time>2026-08-28T19:08:43Z</time>
  <course>262.38</course>
  <speed>0.0</speed>
  <fix>3d</fix>
</trkpt>
<trkpt lat="40.072842" lon="-105.230575">
  <ele>1586.17</ele>
  <time>2026-08-28T19:08:43Z</time>
  <course>11.26</course>
  <speed>0.01414213562373095</speed>
  <fix>3d</fix>
</trkpt>
<trkpt lat="40.072842" lon="-105.230575">
  <ele>1586.09</ele>
  <time>2026-08-28T19:08:43Z</time>
  <course>264.18</course>
  <speed>0.0</speed>
  <fix>3d</fix>
</trkpt>
<trkpt lat="40.072842" lon="-105.230575">
  <ele>1586.17</ele>
  <time>2026-08-28T19:08:43Z</time>
  <course>11.22</course>
  <speed>0.01</speed>
  <fix>3d</fix>
</trkpt>
<trkpt lat="40.072842" lon="-105.230575">
  <ele>1586.09</ele>
  <time>2026-08-28T19:08:43Z</time>
  <course>264.18</course>
  <speed>0.0</speed>
  <fix>3d</fix>
</trkpt>
<trkpt lat="40.072842" lon="-105.230575">
  <ele>1586.17</ele>
  <time>2026-08-28T19:08:43Z</time>
  <course>11.19</course>
  <speed>0.0</speed>
  <fix>3d</fix>
</trkpt>
<trkpt lat="40.072842" lon="-105.230575">
  <ele>1586.09</ele>
  <time>2026-08-28T19:08:43Z</time>
  <course>263.9</course>
  <speed>0.0</speed>
  <fix>3d</fix>
</trkpt>
<trkpt lat="40.072842" lon="-105.230575">
  <ele>1586.17</ele>
  <time>2026-08-28T19:08:43Z</time>
  <course>11.15</course>
  <speed>0.0</speed>
  <fix>3d</fix>
</trkpt>
<trkpt lat="40.072842" lon="-105.230575">
  <ele>1586.09</ele>
  <time>2026-08-28T19:08:43Z</time>
  <course>348.99</course>
  <speed>0.0</speed>
  <fix>3d</fix>
</trkpt>
<trkpt lat="40.072842" lon="-105.230575">
  <ele>1586.17</ele>
  <time>2026-08-28T19:08:43Z</time>
  <course>11.11</course>
  <speed>0.0</speed>
  <fix>3d</fix>
</trkpt>
<trkpt lat="40.072842" lon="-105.230575">
  <ele>1586.09</ele>
  <time>2026-08-28T19:08:43Z</time>
  <course>321.29</course>
  <speed>0.0</speed>
  <fix>3d</fix>
</trkpt>
<trkpt lat="40.072842" lon="-105.230575">
  <ele>1586.17</ele>
  <time>2026-08-28T19:08:43Z</time>
  <course>11.08</course>
  <speed>0.0</speed>
  <fix>3d</fix>
</trkpt>
<trkpt lat="40.072842" lon="-105.230575">
  <ele>1586.09</ele>
  <time>2026-08-28T19:08:43Z</time>
  <course>304.67</course>
  <speed>0.0</speed>
  <fix>3d</fix>
</trkpt>
<trkpt lat="40.072842" lon="-105.230575">
  <ele>1586.18</ele>
  <time>2026-08-28T19:08:43Z</time>
  <course>11.04</course>
  <speed>0.0</speed>
  <fix>3d</fix>
</trkpt>
<trkpt lat="40.072842" lon="-105.230575">
  <ele>1586.09</ele>
  <time>2026-08-28T19:08:43Z</time>
  <course>176.05</course>
  <speed>0.0</speed>
  <fix>3d</fix>
</trkpt>
<trkpt lat="40.072842" lon="-105.230575">
  <ele>1586.18</ele>
  <time>2026-08-28T19:08:43Z</time>
  <course>11.01</course>
  <speed>0.0</speed>
  <fix>3d</fix>
</trkpt>
<trkpt lat="40.072842" lon="-105.230575">
  <ele>1586.09</ele>
  <time>2026-08-28T19:08:43Z</time>
  <course>222.66</course>
  <speed>0.0</speed>
  <fix>3d</fix>
</trkpt>
<trkpt lat="40.072842" lon="-105.230575">
  <ele>1586.18</ele>
  <time>2026-08-28T19:08:43Z</time>
  <course>10.97</course>
  <speed>0.0</speed>
  <fix>3d</fix>
</trkpt>
<trkpt lat="40.072842" lon="-105.230575">
  <ele>1586.09</ele>
  <time>2026-08-28T19:08:43Z</time>
  <course>297.97</course>
  <speed>0.0</speed>
  <fix>3d</fix>
</trkpt>
<trkpt lat="40.072842" lon="-105.230575">
  <ele>1586.18</ele>
  <time>2026-08-28T19:08:43Z</time>
  <course>10.93</course>
  <speed>0.0</speed>
  <fix>3d</fix>
</trkpt>
<trkpt lat="40.072842" lon="-105.230575">
  <ele>1586.09</ele>
  <time>2026-08-28T19:08:43Z</time>
  <course>282.7</course>
  <speed>0.0</speed>
  <fix>3d</fix>
</trkpt>
<trkpt lat="40.072842" lon="-105.230575">
  <ele>1586.18</ele>
  <time>2026-08-28T19:08:43Z</time>
  <course>10.9</course>
  <speed>0.0</speed>
  <fix>3d</fix>
</trkpt>
<trkpt lat="40.072842" lon="-105.230575">
  <ele>1586.09</ele>
  <time>2026-08-28T19:08:43Z</time>
  <course>281.1</course>
  <speed>0.0</speed>
  <fix>3d</fix>
</trkpt>
<trkpt lat="40.072842" lon="-105.230575">
  <ele>1586.18</ele>
  <time>2026-08-28T19:08:43Z</time>
  <course>10.86</course>
  <speed>0.0</speed>
  <fix>3d</fix>
</trkpt>
<trkpt lat="40.072842" lon="-105.230575">
  <ele>1586.09</ele>
  <time>2026-08-28T19:08:43Z</time>
  <course>282.93</course>
  <speed>0.0</speed>
  <fix>3d</fix>
</trkpt>
<trkpt lat="40.072842" lon="-105.230575">
  <ele>1586.18</ele>
  <time>2026-08-28T19:08:43Z</time>
  <course>10.82</course>
  <speed>0.0</speed>
  <fix>3d</fix>
</trkpt>
<trkpt lat="40.072842" lon="-105.230575">
  <ele>1586.09</ele>
  <time>2026-08-28T19:08:43Z</time>
  <course>278.08</course>
  <speed>0.0</speed>
  <fix>3d</fix>
</trkpt>
<trkpt lat="40.072842" lon="-105.230575">
  <ele>1586.18</ele>
  <time>2026-08-28T19:08:43Z</time>
  <course>10.78</course>
  <speed>0.0</speed>
  <fix>3d</fix>
</trkpt>
<trkpt lat="40.072842" lon="-105.230575">
  <ele>1586.09</ele>
  <time>2026-08-28T19:08:43Z</time>
  <course>275.1</course>
  <speed>0.0</speed>
  <fix>3d</fix>
</trkpt>
<trkpt lat="40.072842" lon="-105.230575">
  <ele>1586.18</ele>
  <time>2026-08-28T19:08:43Z</time>
  <course>10.74</course>
  <speed>0.0</speed>
  <fix>3d</fix>
</trkpt>
<trkpt lat="40.072842" lon="-105.230575">
  <ele>1586.09</ele>
  <time>2026-08-28T19:08:43Z</time>
  <course>272.62</course>
  <speed>0.0</speed>
  <fix>3d</fix>
</trkpt>
<trkpt lat="40.072842" lon="-105.230575">
  <ele>1586.18</ele>
  <time>2026-08-28T19:08:43Z</time>
  <course>10.7</course>
  <speed>0.0</speed>
  <fix>3d</fix>
</trkpt>
<trkpt lat="40.072842" lon="-105.230575">
  <ele>1586.09</ele>
  <time>2026-08-28T19:08:43Z</time>
  <course>271.65</course>
  <speed>0.0</speed>
  <fix>3d</fix>
</trkpt>
<trkpt lat="40.072842" lon="-105.230575">
  <ele>1586.18</ele>
  <time>2026-08-28T19:08:43Z</time>
  <course>10.67</course>
  <speed>0.0</speed>
  <fix>3d</fix>
</trkpt>
<trkpt lat="40.072842" lon="-105.230575">
  <ele>1586.09</ele>
  <time>2026-08-28T19:08:43Z</time>
  <course>271.57</course>
  <speed>0.0</speed>
  <fix>3d</fix>
</trkpt>
<trkpt lat="40.072842" lon="-105.230575">
  <ele>1586.18</ele>
  <time>2026-08-28T19:08:43Z</time>
  <course>10.63</course>
  <speed>0.0</speed>
  <fix>3d</fix>
</trkpt>
<trkpt lat="40.072842" lon="-105.230575">
  <ele>1586.09</ele>
  <time>2026-08-28T19:08:43Z</time>
  <course>270.64</course>
  <speed>0.0</speed>
  <fix>3d</fix>
</trkpt>
<trkpt lat="40.072842" lon="-105.230575">
  <ele>1586.18</ele>
  <time>2026-08-28T19:08:43Z</time>
  <course>10.58</course>
  <speed>0.0</speed>
  <fix>3d</fix>
</trkpt>
<trkpt lat="40.072842" lon="-105.230575">
  <ele>1586.09</ele>
  <time>2026-08-28T19:08:43Z</time>
  <course>270.36</course>
  <speed>0.0</speed>
  <fix>3d</fix>
</trkpt>
<trkpt lat="40.072842" lon="-105.230575">
  <ele>1586.18</ele>
  <time>2026-08-28T19:08:43Z</time>
  <course>10.54</course>
  <speed>0.0</speed>
  <fix>3d</fix>
</trkpt>
<trkpt lat="40.072842" lon="-105.230575">
  <ele>1586.09</ele>
  <time>2026-08-28T19:08:43Z</time>
  <course>270.07</course>
  <speed>0.0</speed>
  <fix>3d</fix>
</trkpt>
<trkpt lat="40.072842" lon="-105.230575">
  <ele>1586.18</ele>
  <time>2026-08-28T19:08:43Z</time>
  <course>10.5</course>
  <speed>0.0</speed>
  <fix>3d</fix>
</trkpt>
<trkpt lat="40.072842" lon="-105.230575">
  <ele>1586.09</ele>
  <time>2026-08-28T19:08:43Z</time>
  <course>268.61</course>
  <speed>0.0</speed>
  <fix>3d</fix>
</trkpt>
<trkpt lat="40.072842" lon="-105.230575">
  <ele>1586.19</ele>
  <time>2026-08-28T19:08:43Z</time>
  <course>10.46</course>
  <speed>0.0</speed>
  <fix>3d</fix>
</trkpt>
<trkpt lat="40.072842" lon="-105.230575">
  <ele>1586.09</ele>
  <time>2026-08-28T19:08:43Z</time>
  <course>264.98</course>
  <speed>0.0</speed>
  <fix>3d</fix>
</trkpt>
<trkpt lat="40.072842" lon="-105.230575">
  <ele>1586.19</ele>
  <time>2026-08-28T19:08:43Z</time>
  <course>10.42</course>
  <speed>0.0</speed>
  <fix>3d</fix>
</trkpt>
<trkpt lat="40.072842" lon="-105.230575">
  <ele>1586.09</ele>
  <time>2026-08-28T19:08:43Z</time>
  <course>265.67</course>
  <speed>0.0</speed>
  <fix>3d</fix>
</trkpt>
<trkpt lat="40.072842" lon="-105.230575">
  <ele>1586.19</ele>
  <time>2026-08-28T19:08:43Z</time>
  <course>10.38</course>
  <speed>0.0</speed>
  <fix>3d</fix>
</trkpt>
<trkpt lat="40.072842" lon="-105.230575">
  <ele>1586.09</ele>
  <time>2026-08-28T19:08:43Z</time>
  <course>270.88</course>
  <speed>0.0</speed>
  <fix>3d</fix>
</trkpt>
<trkpt lat="40.072842" lon="-105.230575">
  <ele>1586.2</ele>
  <time>2026-08-28T19:08:43Z</time>
  <course>10.34</course>
  <speed>0.01</speed>
  <fix>3d</fix>
</trkpt>
<trkpt lat="40.072842" lon="-105.230575">
  <ele>1586.09</ele>
  <time>2026-08-28T19:08:43Z</time>
  <course>269.45</course>
  <speed>0.0</speed>
  <fix>3d</fix>
</trkpt>
<trkpt lat="40.072842" lon="-105.230575">
  <ele>1586.2</ele>
  <time>2026-08-28T19:08:43Z</time>
  <course>10.3</course>
  <speed>0.01</speed>
  <fix>3d</fix>
</trkpt>
<trkpt lat="40.072842" lon="-105.230575">
  <ele>1586.09</ele>
  <time>2026-08-28T19:08:43Z</time>
  <course>269.01</course>
  <speed>0.0</speed>
  <fix>3d</fix>
</trkpt>
<trkpt lat="40.072842" lon="-105.230575">
  <ele>1586.2</ele>
  <time>2026-08-28T19:08:43Z</time>
  <course>10.26</course>
  <speed>0.01</speed>
  <fix>3d</fix>
</trkpt>
<trkpt lat="40.072842" lon="-105.230575">
  <ele>1586.09</ele>
  <time>2026-08-28T19:08:43Z</time>
  <course>269.1</course>
  <speed>0.0</speed>
  <fix>3d</fix>
</trkpt>
<trkpt lat="40.072842" lon="-105.230575">
  <ele>1586.2</ele>
  <time>2026-08-28T19:08:43Z</time>
  <course>10.22</course>
  <speed>0.01</speed>
  <fix>3d</fix>
</trkpt>
<trkpt lat="40.072842" lon="-105.230575">
  <ele>1586.09</ele>
  <time>2026-08-28T19:08:43Z</time>
  <course>269.06</course>
  <speed>0.0</speed>
  <fix>3d</fix>
</trkpt>
<trkpt lat="40.072842" lon="-105.230575">
  <ele>1586.2</ele>
  <time>2026-08-28T19:08:43Z</time>
  <course>10.18</course>
  <speed>0.01</speed>
  <fix>3d</fix>
</trkpt>
<trkpt lat="40.072842" lon="-105.230575">
  <ele>1586.09</ele>
  <time>2026-08-28T19:08:43Z</time>
  <course>269.03</course>
  <speed>0.0</speed>
  <fix>3d</fix>
</trkpt>
<trkpt lat="40.072842" lon="-105.230575">
  <ele>1586.2</ele>
  <time>2026-08-28T19:08:43Z</time>
  <course>10.13</course>
  <speed>0.01</speed>
  <fix>3d</fix>
</trkpt>
<trkpt lat="40.072842" lon="-105.230575">
  <ele>1586.09</ele>
  <time>2026-08-28T19:08:43Z</time>
  <course>268.89</course>
  <speed>0.0</speed>
  <fix>3d</fix>
</trkpt>
<trkpt lat="40.072842" lon="-105.230575">
  <ele>1586.2</ele>
  <time>2026-08-28T19:08:43Z</time>
  <course>10.09</course>
  <speed>0.01414213562373095</speed>
  <fix>3d</fix>
</trkpt>
<trkpt lat="40.072842" lon="-105.230575">
  <ele>1586.09</ele>
  <time>2026-08-28T19:08:43Z</time>
  <course>268.84</course>
  <speed>0.0</speed>
  <fix>3d</fix>
</trkpt>
<trkpt lat="40.072842" lon="-105.230575">
  <ele>1586.21</ele>
  <time>2026-08-28T19:08:43Z</time>
  <course>10.05</course>
  <speed>0.01414213562373095</speed>
  <fix>3d</fix>
</trkpt>
<trkpt lat="40.072842" lon="-105.230575">
  <ele>1586.09</ele>
  <time>2026-08-28T19:08:43Z</time>
  <course>268.74</course>
  <speed>0.0</speed>
  <fix>3d</fix>
</trkpt>
<trkpt lat="40.072842" lon="-105.230575">
  <ele>1586.21</ele>
  <time>2026-08-28T19:08:43Z</time>
  <course>10.01</course>
  <speed>0.01414213562373095</speed>
  <fix>3d</fix>
</trkpt>
<trkpt lat="40.072842" lon="-105.230575">
  <ele>1586.09</ele>
  <time>2026-08-28T19:08:43Z</time>
  <course>268.68</course>
  <speed>0.0</speed>
  <fix>3d</fix>
</trkpt>
<trkpt lat="40.072842" lon="-105.230575">
  <ele>1586.21</ele>
  <time>2026-08-28T19:08:43Z</time>
  <course>9.97</course>
  <speed>0.01414213562373095</speed>
  <fix>3d</fix>
</trkpt>
<trkpt lat="40.072842" lon="-105.230575">
  <ele>1586.09</ele>
  <time>2026-08-28T19:08:43Z</time>
  <course>268.59</course>
  <speed>0.0</speed>
  <fix>3d</fix>
</trkpt>
<trkpt lat="40.072842" lon="-105.230575">
  <ele>1586.21</ele>
  <time>2026-08-28T19:08:43Z</time>
  <course>9.92</course>
  <speed>0.01414213562373095</speed>
  <fix>3d</fix>
</trkpt>
<trkpt lat="40.072842" lon="-105.230575">
  <ele>1586.09</ele>
  <time>2026-08-28T19:08:43Z</time>
  <course>274.05</course>
  <speed>0.0</speed>
  <fix>3d</fix>
</trkpt>
<trkpt lat="40.0728419" lon="-105.230575">
  <ele>1586.2</ele>
  <time>2026-08-28T19:08:43Z</time>
  <course>9.88</course>
  <speed>0.01414213562373095</speed>
  <fix>3d</fix>
</trkpt>
<trkpt lat="40.072842" lon="-105.230575">
  <ele>1586.09</ele>
  <time>2026-08-28T19:08:43Z</time>
  <course>287.8</course>
  <speed>0.0</speed>
  <fix>3d</fix>
</trkpt>
<trkpt lat="40.0728419" lon="-105.230575">
  <ele>1586.2</ele>
  <time>2026-08-28T19:08:43Z</time>
  <course>9.84</course>
  <speed>0.022360679774997897</speed>
  <fix>3d</fix>
</trkpt>
<trkpt lat="40.072842" lon="-105.230575">
  <ele>1586.09</ele>
  <time>2026-08-28T19:08:43Z</time>
  <course>279.55</course>
  <speed>0.0</speed>
  <fix>3d</fix>
</trkpt>
<trkpt lat="40.0728419" lon="-105.230575">
  <ele>1586.2</ele>
  <time>2026-08-28T19:08:43Z</time>
  <course>9.8</course>
  <speed>0.022360679774997897</speed>
  <fix>3d</fix>
</trkpt>
<trkpt lat="40.072842" lon="-105.230575">
  <ele>1586.09</ele>
  <time>2026-08-28T19:08:43Z</time>
  <course>264.58</course>
  <speed>0.0</speed>
  <fix>3d</fix>
</trkpt>
<trkpt lat="40.0728419" lon="-105.2305749">
  <ele>1586.2</ele>
  <time>2026-08-28T19:08:43Z</time>
  <course>9.75</course>
  <speed>0.022360679774997897</speed>
  <fix>3d</fix>
</trkpt>
<trkpt lat="40.072842" lon="-105.230575">
  <ele>1586.09</ele>
  <time>2026-08-28T19:08:43Z</time>
  <course>267.67</course>
  <speed>0.0</speed>
  <fix>3d</fix>
</trkpt>
<trkpt lat="40.0728419" lon="-105.2305749">
  <ele>1586.2</ele>
  <time>2026-08-28T19:08:43Z</time>
  <course>9.71</course>
  <speed>0.022360679774997897</speed>
  <fix>3d</fix>
</trkpt>
<trkpt lat="40.072842" lon="-105.230575">
  <ele>1586.09</ele>
  <time>2026-08-28T19:08:43Z</time>
  <course>269.21</course>
  <speed>0.0</speed>
  <fix>3d</fix>
</trkpt>
<trkpt lat="40.0728419" lon="-105.2305749">
  <ele>1586.2</ele>
  <time>2026-08-28T19:08:43Z</time>
  <course>9.67</course>
  <speed>0.022360679774997897</speed>
  <fix>3d</fix>
</trkpt>
<trkpt lat="40.072842" lon="-105.230575">
  <ele>1586.09</ele>
  <time>2026-08-28T19:08:43Z</time>
  <course>268.73</course>
  <speed>0.0</speed>
  <fix>3d</fix>
</trkpt>
<trkpt lat="40.0728419" lon="-105.2305749">
  <ele>1586.2</ele>
  <time>2026-08-28T19:08:43Z</time>
  <course>9.62</course>
  <speed>0.022360679774997897</speed>
  <fix>3d</fix>
</trkpt>
<trkpt lat="40.072842" lon="-105.230575">
  <ele>1586.09</ele>
  <time>2026-08-28T19:08:43Z</time>
  <course>268.44</course>
  <speed>0.0</speed>
  <fix>3d</fix>
</trkpt>
<trkpt lat="40.0728419" lon="-105.2305749">
  <ele>1586.2</ele>
  <time>2026-08-28T19:08:43Z</time>
  <course>9.58</course>
  <speed>0.022360679774997897</speed>
  <fix>3d</fix>
</trkpt>
<trkpt lat="40.072842" lon="-105.230575">
  <ele>1586.09</ele>
  <time>2026-08-28T19:08:43Z</time>
  <course>268.49</course>
  <speed>0.0</speed>
  <fix>3d</fix>
</trkpt>
<trkpt lat="40.0728419" lon="-105.2305749">
  <ele>1586.19</ele>
  <time>2026-08-28T19:08:43Z</time>
  <course>9.54</course>
  <speed>0.022360679774997897</speed>
  <fix>3d</fix>
</trkpt>
<trkpt lat="40.072842" lon="-105.230575">
  <ele>1586.09</ele>
  <time>2026-08-28T19:08:43Z</time>
  <course>268.37</course>
  <speed>0.0</speed>
  <fix>3d</fix>
</trkpt>
<trkpt lat="40.0728419" lon="-105.2305749">
  <ele>1586.19</ele>
  <time>2026-08-28T19:08:43Z</time>
  <course>9.49</course>
  <speed>0.022360679774997897</speed>
  <fix>3d</fix>
</trkpt>
<trkpt lat="40.072842" lon="-105.230575">
  <ele>1586.09</ele>
  <time>2026-08-28T19:08:43Z</time>
  <course>268.3</course>
  <speed>0.0</speed>
  <fix>3d</fix>
</trkpt>
<trkpt lat="40.0728419" lon="-105.2305749">
  <ele>1586.19</ele>
  <time>2026-08-28T19:08:43Z</time>
  <course>9.45</course>
  <speed>0.022360679774997897</speed>
  <fix>3d</fix>
</trkpt>
<trkpt lat="40.072842" lon="-105.230575">
  <ele>1586.09</ele>
  <time>2026-08-28T19:08:43Z</time>
  <course>268.2</course>
  <speed>0.0</speed>
  <fix>3d</fix>
</trkpt>
<trkpt lat="40.0728419" lon="-105.2305749">
  <ele>1586.19</ele>
  <time>2026-08-28T19:08:43Z</time>
  <course>9.41</course>
  <speed>0.022360679774997897</speed>
  <fix>3d</fix>
</trkpt>
<trkpt lat="40.072842" lon="-105.230575">
  <ele>1586.09</ele>
  <time>2026-08-28T19:08:43Z</time>
  <course>258.52</course>
  <speed>0.0</speed>
  <fix>3d</fix>
</trkpt>
<trkpt lat="40.0728419" lon="-105.2305749">
  <ele>1586.19</ele>
  <time>2026-08-28T19:08:43Z</time>
  <course>9.36</course>
  <speed>0.022360679774997897</speed>
  <fix>3d</fix>
</trkpt>
<trkpt lat="40.072842" lon="-105.230575">
  <ele>1586.09</ele>
  <time>2026-08-28T19:08:43Z</time>
  <course>247.78</course>
  <speed>0.0</speed>
  <fix>3d</fix>
</trkpt>
<trkpt lat="40.0728419" lon="-105.2305749">
  <ele>1586.18</ele>
  <time>2026-08-28T19:08:43Z</time>
  <course>9.32</course>
  <speed>0.022360679774997897</speed>
  <fix>3d</fix>
</trkpt>
<trkpt lat="40.072842" lon="-105.230575">
  <ele>1586.09</ele>
  <time>2026-08-28T19:08:43Z</time>
  <course>265.14</course>
  <speed>0.0</speed>
  <fix>3d</fix>
</trkpt>
<trkpt lat="40.0728419" lon="-105.2305749">
  <ele>1586.18</ele>
  <time>2026-08-28T19:08:43Z</time>
  <course>9.28</course>
  <speed>0.022360679774997897</speed>
  <fix>3d</fix>
</trkpt>
<trkpt lat="40.072842" lon="-105.230575">
  <ele>1586.09</ele>
  <time>2026-08-28T19:08:43Z</time>
  <course>270.85</course>
  <speed>0.0</speed>
  <fix>3d</fix>
</trkpt>
<trkpt lat="40.0728419" lon="-105.2305749">
  <ele>1586.18</ele>
  <time>2026-08-28T19:08:43Z</time>
  <course>9.23</course>
  <speed>0.022360679774997897</speed>
  <fix>3d</fix>
</trkpt>
<trkpt lat="40.072842" lon="-105.230575">
  <ele>1586.09</ele>
  <time>2026-08-28T19:08:43Z</time>
  <course>267.41</course>
  <speed>0.0</speed>
  <fix>3d</fix>
</trkpt>
<trkpt lat="40.0728419" lon="-105.2305749">
  <ele>1586.18</ele>
  <time>2026-08-28T19:08:43Z</time>
  <course>9.19</course>
  <speed>0.022360679774997897</speed>
  <fix>3d</fix>
</trkpt>
<trkpt lat="40.072842" lon="-105.230575">
  <ele>1586.09</ele>
  <time>2026-08-28T19:08:43Z</time>
  <course>267.06</course>
  <speed>0.0</speed>
  <fix>3d</fix>
</trkpt>
<trkpt lat="40.0728419" lon="-105.2305749">
  <ele>1586.18</ele>
  <time>2026-08-28T19:08:43Z</time>
  <course>9.15</course>
  <speed>0.022360679774997897</speed>
  <fix>3d</fix>
</trkpt>
<trkpt lat="40.072842" lon="-105.230575">
  <ele>1586.09</ele>
  <time>2026-08-28T19:08:43Z</time>
  <course>267.43</course>
  <speed>0.0</speed>
  <fix>3d</fix>
</trkpt>
<trkpt lat="40.0728419" lon="-105.2305749">
  <ele>1586.18</ele>
  <time>2026-08-28T19:08:43Z</time>
  <course>9.1</course>
  <speed>0.022360679774997897</speed>
  <fix>3d</fix>
</trkpt>
<trkpt lat="40.072842" lon="-105.230575">
  <ele>1586.09</ele>
  <time>2026-08-28T19:08:43Z</time>
  <course>267.41</course>
  <speed>0.0</speed>
  <fix>3d</fix>
</trkpt>
<trkpt lat="40.0728419" lon="-105.2305749">
  <ele>1586.18</ele>
  <time>2026-08-28T19:08:43Z</time>
  <course>9.06</course>
  <speed>0.022360679774997897</speed>
  <fix>3d</fix>
</trkpt>
<trkpt lat="40.072842" lon="-105.230575">
  <ele>1586.09</ele>
  <time>2026-08-28T19:08:43Z</time>
  <course>267.29</course>
  <speed>0.0</speed>
  <fix>3d</fix>
</trkpt>
<trkpt lat="40.0728419" lon="-105.2305749">
  <ele>1586.19</ele>
  <time>2026-08-28T19:08:43Z</time>
  <course>9.01</course>
  <speed>0.022360679774997897</speed>
  <fix>3d</fix>
</trkpt>
<trkpt lat="40.072842" lon="-105.230575">
  <ele>1586.09</ele>
  <time>2026-08-28T19:08:43Z</time>
  <course>267.28</course>
  <speed>0.0</speed>
  <fix>3d</fix>
</trkpt>
<trkpt lat="40.0728419" lon="-105.2305749">
  <ele>1586.19</ele>
  <time>2026-08-28T19:08:43Z</time>
  <course>8.97</course>
  <speed>0.022360679774997897</speed>
  <fix>3d</fix>
</trkpt>
<trkpt lat="40.072842" lon="-105.230575">
  <ele>1586.09</ele>
  <time>2026-08-28T19:08:43Z</time>
  <course>266.91</course>
  <speed>0.0</speed>
  <fix>3d</fix>
</trkpt>
<trkpt lat="40.0728419" lon="-105.2305749">
  <ele>1586.19</ele>
  <time>2026-08-28T19:08:43Z</time>
  <course>8.93</course>
  <speed>0.022360679774997897</speed>
  <fix>3d</fix>
</trkpt>
<trkpt lat="40.072842" lon="-105.230575">
  <ele>1586.09</ele>
  <time>2026-08-28T19:08:43Z</time>
  <course>266.88</course>
  <speed>0.0</speed>
  <fix>3d</fix>
</trkpt>
<trkpt lat="40.0728419" lon="-105.2305749">
  <ele>1586.19</ele>
  <time>2026-08-28T19:08:43Z</time>
  <course>8.89</course>
  <speed>0.022360679774997897</speed>
  <fix>3d</fix>
</trkpt>
<trkpt lat="40.072842" lon="-105.230575">
  <ele>1586.09</ele>
  <time>2026-08-28T19:08:43Z</time>
  <course>266.69</course>
  <speed>0.0</speed>
  <fix>3d</fix>
</trkpt>
<trkpt lat="40.0728419" lon="-105.2305749">
  <ele>1586.19</ele>
  <time>2026-08-28T19:08:43Z</time>
  <course>8.84</course>
  <speed>0.022360679774997897</speed>
  <fix>3d</fix>
</trkpt>
<trkpt lat="40.072842" lon="-105.230575">
  <ele>1586.09</ele>
  <time>2026-08-28T19:08:43Z</time>
  <course>266.75</course>
  <speed>0.0</speed>
  <fix>3d</fix>
</trkpt>
<trkpt lat="40.0728419" lon="-105.2305749">
  <ele>1586.19</ele>
  <time>2026-08-28T19:08:43Z</time>
  <course>8.8</course>
  <speed>0.022360679774997897</speed>
  <fix>3d</fix>
</trkpt>
<trkpt lat="40.072842" lon="-105.230575">
  <ele>1586.09</ele>
  <time>2026-08-28T19:08:43Z</time>
  <course>266.83</course>
  <speed>0.0</speed>
  <fix>3d</fix>
</trkpt>
<trkpt lat="40.0728419" lon="-105.2305749">
  <ele>1586.19</ele>
  <time>2026-08-28T19:08:43Z</time>
  <course>8.76</course>
  <speed>0.022360679774997897</speed>
  <fix>3d</fix>
</trkpt>
<trkpt lat="40.072842" lon="-105.230575">
  <ele>1586.09</ele>
  <time>2026-08-28T19:08:43Z</time>
  <course>266.72</course>
  <speed>0.0</speed>
  <fix>3d</fix>
</trkpt>
<trkpt lat="40.0728419" lon="-105.2305749">
  <ele>1586.19</ele>
  <time>2026-08-28T19:08:43Z</time>
  <course>8.72</course>
  <speed>0.022360679774997897</speed>
  <fix>3d</fix>
</trkpt>
<trkpt lat="40.072842" lon="-105.230575">
  <ele>1586.09</ele>
  <time>2026-08-28T19:08:43Z</time>
  <course>266.79</course>
  <speed>0.0</speed>
  <fix>3d</fix>
</trkpt>
<trkpt lat="40.0728419" lon="-105.2305749">
  <ele>1586.19</ele>
  <time>2026-08-28T19:08:43Z</time>
  <course>8.68</course>
  <speed>0.022360679774997897</speed>
  <fix>3d</fix>
</trkpt>
<trkpt lat="40.072842" lon="-105.230575">
  <ele>1586.09</ele>
  <time>2026-08-28T19:08:43Z</time>
  <course>266.23</course>
  <speed>0.0</speed>
  <fix>3d</fix>
</trkpt>
<trkpt lat="40.0728419" lon="-105.2305749">
  <ele>1586.19</ele>
  <time>2026-08-28T19:08:43Z</time>
  <course>8.64</course>
  <speed>0.022360679774997897</speed>
  <fix>3d</fix>
</trkpt>
<trkpt lat="40.072842" lon="-105.230575">
  <ele>1586.09</ele>
  <time>2026-08-28T19:08:43Z</time>
  <course>266.5</course>
  <speed>0.0</speed>
  <fix>3d</fix>
</trkpt>
<trkpt lat="40.0728419" lon="-105.2305749">
  <ele>1586.19</ele>
  <time>2026-08-28T19:08:43Z</time>
  <course>8.6</course>
  <speed>0.022360679774997897</speed>
  <fix>3d</fix>
</trkpt>
<trkpt lat="40.072842" lon="-105.230575">
  <ele>1586.09</ele>
  <time>2026-08-28T19:08:43Z</time>
  <course>264.8</course>
  <speed>0.0</speed>
  <fix>3d</fix>
</trkpt>
<trkpt lat="40.0728419" lon="-105.2305749">
  <ele>1586.19</ele>
  <time>2026-08-28T19:08:43Z</time>
  <course>8.56</course>
  <speed>0.022360679774997897</speed>
  <fix>3d</fix>
</trkpt>
<trkpt lat="40.072842" lon="-105.230575">
  <ele>1586.09</ele>
  <time>2026-08-28T19:08:43Z</time>
  <course>268.9</course>
  <speed>0.0</speed>
  <fix>3d</fix>
</trkpt>
<trkpt lat="40.0728419" lon="-105.2305749">
  <ele>1586.19</ele>
  <time>2026-08-28T19:08:43Z</time>
  <course>8.52</course>
  <speed>0.022360679774997897</speed>
  <fix>3d</fix>
</trkpt>
<trkpt lat="40.072842" lon="-105.230575">
  <ele>1586.09</ele>
  <time>2026-08-28T19:08:43Z</time>
  <course>268.44</course>
  <speed>0.0</speed>
  <fix>3d</fix>
</trkpt>
<trkpt lat="40.0728419" lon="-105.2305749">
  <ele>1586.19</ele>
  <time>2026-08-28T19:08:43Z</time>
  <course>8.48</course>
  <speed>0.022360679774997897</speed>
  <fix>3d</fix>
</trkpt>
<trkpt lat="40.072842" lon="-105.230575">
  <ele>1586.09</ele>
  <time>2026-08-28T19:08:43Z</time>
  <course>265.18</course>
  <speed>0.0</speed>
  <fix>3d</fix>
</trkpt>
<trkpt lat="40.0728419" lon="-105.2305749">
  <ele>1586.19</ele>
  <time>2026-08-28T19:08:43Z</time>
  <course>8.44</course>
  <speed>0.022360679774997897</speed>
  <fix>3d</fix>
</trkpt>
<trkpt lat="40.072842" lon="-105.230575">
  <ele>1586.09</ele>
  <time>2026-08-28T19:08:43Z</time>
  <course>266.09</course>
  <speed>0.0</speed>
  <fix>3d</fix>
</trkpt>
<trkpt lat="40.0728419" lon="-105.2305749">
  <ele>1586.19</ele>
  <time>2026-08-28T19:08:43Z</time>
  <course>8.4</course>
  <speed>0.022360679774997897</speed>
  <fix>3d</fix>
</trkpt>
<trkpt lat="40.072842" lon="-105.230575">
  <ele>1586.09</ele>
  <time>2026-08-28T19:08:43Z</time>
  <course>266.5</course>
  <speed>0.0</speed>
  <fix>3d</fix>
</trkpt>
<trkpt lat="40.0728419" lon="-105.2305749">
  <ele>1586.19</ele>
  <time>2026-08-28T19:08:43Z</time>
  <course>8.37</course>
  <speed>0.022360679774997897</speed>
  <fix>3d</fix>
</trkpt>
<trkpt lat="40.072842" lon="-105.230575">
  <ele>1586.09</ele>
  <time>2026-08-28T19:08:43Z</time>
  <course>266.33</course>
  <speed>0.0</speed>
  <fix>3d</fix>
</trkpt>
<trkpt lat="40.0728419" lon="-105.2305749">
  <ele>1586.19</ele>
  <time>2026-08-28T19:08:43Z</time>
  <course>8.33</course>
  <speed>0.022360679774997897</speed>
  <fix>3d</fix>
</trkpt>
<trkpt lat="40.072842" lon="-105.230575">
  <ele>1586.09</ele>
  <time>2026-08-28T19:08:43Z</time>
  <course>266.45</course>
  <speed>0.0</speed>
  <fix>3d</fix>
</trkpt>
<trkpt lat="40.0728419" lon="-105.2305749">
  <ele>1586.19</ele>
  <time>2026-08-28T19:08:43Z</time>
  <course>8.29</course>
  <speed>0.022360679774997897</speed>
  <fix>3d</fix>
</trkpt>
<trkpt lat="40.072842" lon="-105.230575">
  <ele>1586.09</ele>
  <time>2026-08-28T19:08:43Z</time>
  <course>265.92</course>
  <speed>0.0</speed>
  <fix>3d</fix>
</trkpt>
<trkpt lat="40.0728419" lon="-105.2305749">
  <ele>1586.19</ele>
  <time>2026-08-28T19:08:43Z</time>
  <course>8.25</course>
  <speed>0.022360679774997897</speed>
  <fix>3d</fix>
</trkpt>
<trkpt lat="40.072842" lon="-105.230575">
  <ele>1586.09</ele>
  <time>2026-08-28T19:08:43Z</time>
  <course>266.23</course>
  <speed>0.0</speed>
  <fix>3d</fix>
</trkpt>
<trkpt lat="40.0728419" lon="-105.2305749">
  <ele>1586.19</ele>
  <time>2026-08-28T19:08:43Z</time>
  <course>8.22</course>
  <speed>0.022360679774997897</speed>
  <fix>3d</fix>
</trkpt>
<trkpt lat="40.072842" lon="-105.230575">
  <ele>1586.09</ele>
  <time>2026-08-28T19:08:43Z</time>
  <course>266.3</course>
  <speed>0.0</speed>
  <fix>3d</fix>
</trkpt>
<trkpt lat="40.0728419" lon="-105.2305749">
  <ele>1586.19</ele>
  <time>2026-08-28T19:08:43Z</time>
  <course>8.18</course>
  <speed>0.01414213562373095</speed>
  <fix>3d</fix>
</trkpt>
<trkpt lat="40.072842" lon="-105.230575">
  <ele>1586.09</ele>
  <time>2026-08-28T19:08:43Z</time>
  <course>265.38</course>
  <speed>0.0</speed>
  <fix>3d</fix>
</trkpt>
<trkpt lat="40.0728419" lon="-105.2305749">
  <ele>1586.19</ele>
  <time>2026-08-28T19:08:43Z</time>
  <course>8.14</course>
  <speed>0.01414213562373095</speed>
  <fix>3d</fix>
</trkpt>
<trkpt lat="40.072842" lon="-105.230575">
  <ele>1586.09</ele>
  <time>2026-08-28T19:08:43Z</time>
  <course>266.15</course>
  <speed>0.0</speed>
  <fix>3d</fix>
</trkpt>
<trkpt lat="40.0728419" lon="-105.2305749">
  <ele>1586.19</ele>
  <time>2026-08-28T19:08:43Z</time>
  <course>8.11</course>
  <speed>0.01414213562373095</speed>
  <fix>3d</fix>
</trkpt>
<trkpt lat="40.072842" lon="-105.230575">
  <ele>1586.09</ele>
  <time>2026-08-28T19:08:43Z</time>
  <course>266.19</course>
  <speed>0.0</speed>
  <fix>3d</fix>
</trkpt>
<trkpt lat="40.0728419" lon="-105.2305749">
  <ele>1586.18</ele>
  <time>2026-08-28T19:08:43Z</time>
  <course>8.07</course>
  <speed>0.01414213562373095</speed>
  <fix>3d</fix>
</trkpt>
<trkpt lat="40.072842" lon="-105.230575">
  <ele>1586.09</ele>
  <time>2026-08-28T19:08:43Z</time>
  <course>265.86</course>
  <speed>0.0</speed>
  <fix>3d</fix>
</trkpt>
<trkpt lat="40.0728419" lon="-105.2305749">
  <ele>1586.18</ele>
  <time>2026-08-28T19:08:43Z</time>
  <course>8.04</course>
  <speed>0.01414213562373095</speed>
  <fix>3d</fix>
</trkpt>
<trkpt lat="40.072842" lon="-105.230575">
  <ele>1586.09</ele>
  <time>2026-08-28T19:08:44Z</time>
  <course>266.14</course>
  <speed>0.0</speed>
  <fix>3d</fix>
</trkpt>
<trkpt lat="40.0728419" lon="-105.2305749">
  <ele>1586.18</ele>
  <time>2026-08-28T19:08:44Z</time>
  <course>8.0</course>
  <speed>0.01414213562373095</speed>
  <fix>3d</fix>
</trkpt>
<trkpt lat="40.072842" lon="-105.230575">
  <ele>1586.09</ele>
  <time>2026-08-28T19:08:44Z</time>
  <course>265.9</course>
  <speed>0.0</speed>
  <fix>3d</fix>
</trkpt>
<trkpt lat="40.0728419" lon="-105.2305749">
  <ele>1586.18</ele>
  <time>2026-08-28T19:08:44Z</time>
  <course>7.97</course>
  <speed>0.01414213562373095</speed>
  <fix>3d</fix>
</trkpt>
<trkpt lat="40.072842" lon="-105.230575">
  <ele>1586.09</ele>
  <time>2026-08-28T19:08:44Z</time>
  <course>265.97</course>
  <speed>0.0</speed>
  <fix>3d</fix>
</trkpt>
<trkpt lat="40.0728419" lon="-105.2305749">
  <ele>1586.18</ele>
  <time>2026-08-28T19:08:44Z</time>
  <course>7.93</course>
  <speed>0.01414213562373095</speed>
  <fix>3d</fix>
</trkpt>
<trkpt lat="40.072842" lon="-105.230575">
  <ele>1586.09</ele>
  <time>2026-08-28T19:08:44Z</time>
  <course>266.13</course>
  <speed>0.0</speed>
  <fix>3d</fix>
</trkpt>
<trkpt lat="40.0728419" lon="-105.2305749">
  <ele>1586.18</ele>
  <time>2026-08-28T19:08:44Z</time>
  <course>7.9</course>
  <speed>0.01414213562373095</speed>
  <fix>3d</fix>
</trkpt>
<trkpt lat="40.072842" lon="-105.230575">
  <ele>1586.09</ele>
  <time>2026-08-28T19:08:44Z</time>
  <course>265.61</course>
  <speed>0.0</speed>
  <fix>3d</fix>
</trkpt>
<trkpt lat="40.0728419" lon="-105.2305749">
  <ele>1586.18</ele>
  <time>2026-08-28T19:08:44Z</time>
  <course>7.87</course>
  <speed>0.01414213562373095</speed>
  <fix>3d</fix>
</trkpt>
<trkpt lat="40.072842" lon="-105.230575">
  <ele>1586.09</ele>
  <time>2026-08-28T19:08:44Z</time>
  <course>265.92</course>
  <speed>0.0</speed>
  <fix>3d</fix>
</trkpt>
<trkpt lat="40.0728419" lon="-105.2305749">
  <ele>1586.18</ele>
  <time>2026-08-28T19:08:44Z</time>
  <course>7.83</course>
  <speed>0.01414213562373095</speed>
  <fix>3d</fix>
</trkpt>
<trkpt lat="40.072842" lon="-105.230575">
  <ele>1586.09</ele>
  <time>2026-08-28T19:08:44Z</time>
  <course>266.05</course>
  <speed>0.0</speed>
  <fix>3d</fix>
</trkpt>
<trkpt lat="40.0728419" lon="-105.2305749">
  <ele>1586.18</ele>
  <time>2026-08-28T19:08:44Z</time>
  <course>7.8</course>
  <speed>0.01414213562373095</speed>
  <fix>3d</fix>
</trkpt>
<trkpt lat="40.072842" lon="-105.230575">
  <ele>1586.09</ele>
  <time>2026-08-28T19:08:44Z</time>
  <course>265.45</course>
  <speed>0.0</speed>
  <fix>3d</fix>
</trkpt>
<trkpt lat="40.0728419" lon="-105.2305749">
  <ele>1586.18</ele>
  <time>2026-08-28T19:08:44Z</time>
  <course>7.77</course>
  <speed>0.01414213562373095</speed>
  <fix>3d</fix>
</trkpt>
<trkpt lat="40.072842" lon="-105.230575">
  <ele>1586.09</ele>
  <time>2026-08-28T19:08:44Z</time>
  <course>265.77</course>
  <speed>0.0</speed>
  <fix>3d</fix>
</trkpt>
<trkpt lat="40.0728419" lon="-105.2305749">
  <ele>1586.18</ele>
  <time>2026-08-28T19:08:44Z</time>
  <course>7.74</course>
  <speed>0.01414213562373095</speed>
  <fix>3d</fix>
</trkpt>
<trkpt lat="40.072842" lon="-105.230575">
  <ele>1586.09</ele>
  <time>2026-08-28T19:08:44Z</time>
  <course>265.97</course>
  <speed>0.0</speed>
  <fix>3d</fix>
</trkpt>
<trkpt lat="40.0728419" lon="-105.2305749">
  <ele>1586.18</ele>
  <time>2026-08-28T19:08:44Z</time>
  <course>7.7</course>
  <speed>0.01414213562373095</speed>
  <fix>3d</fix>
</trkpt>
<trkpt lat="40.072842" lon="-105.230575">
  <ele>1586.09</ele>
  <time>2026-08-28T19:08:44Z</time>
  <course>265.55</course>
  <speed>0.0</speed>
  <fix>3d</fix>
</trkpt>
<trkpt lat="40.0728419" lon="-105.2305749">
  <ele>1586.18</ele>
  <time>2026-08-28T19:08:44Z</time>
  <course>7.67</course>
  <speed>0.01414213562373095</speed>
  <fix>3d</fix>
</trkpt>
<trkpt lat="40.072842" lon="-105.230575">
  <ele>1586.09</ele>
  <time>2026-08-28T19:08:44Z</time>
  <course>265.66</course>
  <speed>0.0</speed>
  <fix>3d</fix>
</trkpt>
<trkpt lat="40.0728419" lon="-105.2305749">
  <ele>1586.18</ele>
  <time>2026-08-28T19:08:44Z</time>
  <course>7.64</course>
  <speed>0.01414213562373095</speed>
  <fix>3d</fix>
</trkpt>
<trkpt lat="40.072842" lon="-105.230575">
  <ele>1586.09</ele>
  <time>2026-08-28T19:08:44Z</time>
  <course>265.89</course>
  <speed>0.0</speed>
  <fix>3d</fix>
</trkpt>
<trkpt lat="40.0728419" lon="-105.2305749">
  <ele>1586.18</ele>
  <time>2026-08-28T19:08:44Z</time>
  <course>7.61</course>
  <speed>0.01414213562373095</speed>
  <fix>3d</fix>
</trkpt>
<trkpt lat="40.072842" lon="-105.230575">
  <ele>1586.09</ele>
  <time>2026-08-28T19:08:44Z</time>
  <course>265.53</course>
  <speed>0.0</speed>
  <fix>3d</fix>
</trkpt>
<trkpt lat="40.0728419" lon="-105.2305749">
  <ele>1586.18</ele>
  <time>2026-08-28T19:08:44Z</time>
  <course>7.58</course>
  <speed>0.01414213562373095</speed>
  <fix>3d</fix>
</trkpt>
<trkpt lat="40.072842" lon="-105.230575">
  <ele>1586.09</ele>
  <time>2026-08-28T19:08:44Z</time>
  <course>265.43</course>
  <speed>0.0</speed>
  <fix>3d</fix>
</trkpt>
<trkpt lat="40.0728419" lon="-105.2305749">
  <ele>1586.17</ele>
  <time>2026-08-28T19:08:44Z</time>
  <course>7.55</course>
  <speed>0.01414213562373095</speed>
  <fix>3d</fix>
</trkpt>
<trkpt lat="40.072842" lon="-105.230575">
  <ele>1586.09</ele>
  <time>2026-08-28T19:08:44Z</time>
  <course>265.77</course>
  <speed>0.0</speed>
  <fix>3d</fix>
</trkpt>
<trkpt lat="40.0728419" lon="-105.2305749">
  <ele>1586.17</ele>
  <time>2026-08-28T19:08:44Z</time>
  <course>7.52</course>
  <speed>0.01414213562373095</speed>
  <fix>3d</fix>
</trkpt>
<trkpt lat="40.072842" lon="-105.230575">
  <ele>1586.09</ele>
  <time>2026-08-28T19:08:44Z</time>
  <course>265.56</course>
  <speed>0.0</speed>
  <fix>3d</fix>
</trkpt>
<trkpt lat="40.0728419" lon="-105.2305749">
  <ele>1586.17</ele>
  <time>2026-08-28T19:08:44Z</time>
  <course>7.49</course>
  <speed>0.01414213562373095</speed>
  <fix>3d</fix>
</trkpt>
<trkpt lat="40.072842" lon="-105.230575">
  <ele>1586.09</ele>
  <time>2026-08-28T19:08:44Z</time>
  <course>264.91</course>
  <speed>0.0</speed>
  <fix>3d</fix>
</trkpt>
<trkpt lat="40.0728419" lon="-105.2305749">
  <ele>1586.17</ele>
  <time>2026-08-28T19:08:44Z</time>
  <course>7.46</course>
  <speed>0.01414213562373095</speed>
  <fix>3d</fix>
</trkpt>
<trkpt lat="40.072842" lon="-105.230575">
  <ele>1586.09</ele>
  <time>2026-08-28T19:08:44Z</time>
  <course>265.61</course>
  <speed>0.0</speed>
  <fix>3d</fix>
</trkpt>
<trkpt lat="40.0728419" lon="-105.2305749">
  <ele>1586.17</ele>
  <time>2026-08-28T19:08:44Z</time>
  <course>7.43</course>
  <speed>0.01414213562373095</speed>
  <fix>3d</fix>
</trkpt>
<trkpt lat="40.072842" lon="-105.230575">
  <ele>1586.09</ele>
  <time>2026-08-28T19:08:44Z</time>
  <course>265.61</course>
  <speed>0.0</speed>
  <fix>3d</fix>
</trkpt>
<trkpt lat="40.0728419" lon="-105.2305749">
  <ele>1586.17</ele>
  <time>2026-08-28T19:08:44Z</time>
  <course>7.4</course>
  <speed>0.01414213562373095</speed>
  <fix>3d</fix>
</trkpt>
<trkpt lat="40.072842" lon="-105.230575">
  <ele>1586.09</ele>
  <time>2026-08-28T19:08:44Z</time>
  <course>264.94</course>
  <speed>0.0</speed>
  <fix>3d</fix>
</trkpt>
<trkpt lat="40.0728419" lon="-105.2305749">
  <ele>1586.17</ele>
  <time>2026-08-28T19:08:44Z</time>
  <course>7.37</course>
  <speed>0.01414213562373095</speed>
  <fix>3d</fix>
</trkpt>
<trkpt lat="40.072842" lon="-105.230575">
  <ele>1586.09</ele>
  <time>2026-08-28T19:08:44Z</time>
  <course>265.5</course>
  <speed>0.0</speed>
  <fix>3d</fix>
</trkpt>
<trkpt lat="40.0728419" lon="-105.2305749">
  <ele>1586.18</ele>
  <time>2026-08-28T19:08:44Z</time>
  <course>7.34</course>
  <speed>0.01414213562373095</speed>
  <fix>3d</fix>
</trkpt>
<trkpt lat="40.072842" lon="-105.230575">
  <ele>1586.09</ele>
  <time>2026-08-28T19:08:44Z</time>
  <course>265.66</course>
  <speed>0.0</speed>
  <fix>3d</fix>
</trkpt>
<trkpt lat="40.0728419" lon="-105.2305749">
  <ele>1586.18</ele>
  <time>2026-08-28T19:08:44Z</time>
  <course>7.32</course>
  <speed>0.01414213562373095</speed>
  <fix>3d</fix>
</trkpt>
<trkpt lat="40.072842" lon="-105.230575">
  <ele>1586.09</ele>
  <time>2026-08-28T19:08:44Z</time>
  <course>265.34</course>
  <speed>0.0</speed>
  <fix>3d</fix>
</trkpt>
<trkpt lat="40.0728419" lon="-105.2305749">
  <ele>1586.18</ele>
  <time>2026-08-28T19:08:44Z</time>
  <course>7.29</course>
  <speed>0.01414213562373095</speed>
  <fix>3d</fix>
</trkpt>
<trkpt lat="40.072842" lon="-105.230575">
  <ele>1586.09</ele>
  <time>2026-08-28T19:08:44Z</time>
  <course>264.85</course>
  <speed>0.0</speed>
  <fix>3d</fix>
</trkpt>
<trkpt lat="40.0728419" lon="-105.2305749">
  <ele>1586.18</ele>
  <time>2026-08-28T19:08:44Z</time>
  <course>7.26</course>
  <speed>0.01414213562373095</speed>
  <fix>3d</fix>
</trkpt>
<trkpt lat="40.072842" lon="-105.230575">
  <ele>1586.09</ele>
  <time>2026-08-28T19:08:44Z</time>
  <course>265.53</course>
  <speed>0.0</speed>
  <fix>3d</fix>
</trkpt>
<trkpt lat="40.0728419" lon="-105.2305749">
  <ele>1586.18</ele>
  <time>2026-08-28T19:08:44Z</time>
  <course>7.23</course>
  <speed>0.01414213562373095</speed>
  <fix>3d</fix>
</trkpt>
<trkpt lat="40.072842" lon="-105.230575">
  <ele>1586.09</ele>
  <time>2026-08-28T19:08:44Z</time>
  <course>265.57</course>
  <speed>0.0</speed>
  <fix>3d</fix>
</trkpt>
<trkpt lat="40.0728419" lon="-105.2305749">
  <ele>1586.17</ele>
  <time>2026-08-28T19:08:44Z</time>
  <course>7.21</course>
  <speed>0.01414213562373095</speed>
  <fix>3d</fix>
</trkpt>
<trkpt lat="40.072842" lon="-105.230575">
  <ele>1586.09</ele>
  <time>2026-08-28T19:08:44Z</time>
  <course>265.03</course>
  <speed>0.0</speed>
  <fix>3d</fix>
</trkpt>
<trkpt lat="40.0728419" lon="-105.2305749">
  <ele>1586.17</ele>
  <time>2026-08-28T19:08:44Z</time>
  <course>7.18</course>
  <speed>0.01414213562373095</speed>
  <fix>3d</fix>
</trkpt>
<trkpt lat="40.072842" lon="-105.230575">
  <ele>1586.09</ele>
  <time>2026-08-28T19:08:44Z</time>
  <course>264.89</course>
  <speed>0.0</speed>
  <fix>3d</fix>
</trkpt>
<trkpt lat="40.0728419" lon="-105.2305749">
  <ele>1586.17</ele>
  <time>2026-08-28T19:08:44Z</time>
  <course>7.15</course>
  <speed>0.01414213562373095</speed>
  <fix>3d</fix>
</trkpt>
<trkpt lat="40.072842" lon="-105.230575">
  <ele>1586.09</ele>
  <time>2026-08-28T19:08:44Z</time>
  <course>265.45</course>
  <speed>0.0</speed>
  <fix>3d</fix>
</trkpt>
<trkpt lat="40.0728419" lon="-105.2305749">
  <ele>1586.17</ele>
  <time>2026-08-28T19:08:44Z</time>
  <course>7.13</course>
  <speed>0.01414213562373095</speed>
  <fix>3d</fix>
</trkpt>
<trkpt lat="40.072842" lon="-105.230575">
  <ele>1586.09</ele>
  <time>2026-08-28T19:08:44Z</time>
  <course>265.44</course>
  <speed>0.0</speed>
  <fix>3d</fix>
</trkpt>
<trkpt lat="40.0728419" lon="-105.2305749">
  <ele>1586.17</ele>
  <time>2026-08-28T19:08:44Z</time>
  <course>7.1</course>
  <speed>0.01414213562373095</speed>
  <fix>3d</fix>
</trkpt>
<trkpt lat="40.072842" lon="-105.230575">
  <ele>1586.09</ele>
  <time>2026-08-28T19:08:44Z</time>
  <course>241.3</course>
  <speed>0.0</speed>
  <fix>3d</fix>
</trkpt>
<trkpt lat="40.0728419" lon="-105.2305749">
  <ele>1586.17</ele>
  <time>2026-08-28T19:08:44Z</time>
  <course>7.07</course>
  <speed>0.01414213562373095</speed>
  <fix>3d</fix>
</trkpt>
<trkpt lat="40.072842" lon="-105.230575">
  <ele>1586.09</ele>
  <time>2026-08-28T19:08:44Z</time>
  <course>236.41</course>
  <speed>0.0</speed>
  <fix>3d</fix>
</trkpt>
<trkpt lat="40.0728419" lon="-105.2305749">
  <ele>1586.17</ele>
  <time>2026-08-28T19:08:44Z</time>
  <course>7.05</course>
  <speed>0.01414213562373095</speed>
  <fix>3d</fix>
</trkpt>
<trkpt lat="40.072842" lon="-105.230575">
  <ele>1586.09</ele>
  <time>2026-08-28T19:08:44Z</time>
  <course>265.8</course>
  <speed>0.0</speed>
  <fix>3d</fix>
</trkpt>
<trkpt lat="40.0728419" lon="-105.2305749">
  <ele>1586.17</ele>
  <time>2026-08-28T19:08:44Z</time>
  <course>7.02</course>
  <speed>0.01414213562373095</speed>
  <fix>3d</fix>
</trkpt>
<trkpt lat="40.072842" lon="-105.230575">
  <ele>1586.09</ele>
  <time>2026-08-28T19:08:44Z</time>
  <course>266.65</course>
  <speed>0.0</speed>
  <fix>3d</fix>
</trkpt>
<trkpt lat="40.0728419" lon="-105.2305749">
  <ele>1586.17</ele>
  <time>2026-08-28T19:08:44Z</time>
  <course>7.0</course>
  <speed>0.01414213562373095</speed>
  <fix>3d</fix>
</trkpt>
<trkpt lat="40.072842" lon="-105.230575">
  <ele>1586.09</ele>
  <time>2026-08-28T19:08:44Z</time>
  <course>263.72</course>
  <speed>0.0</speed>
  <fix>3d</fix>
</trkpt>
<trkpt lat="40.0728419" lon="-105.2305749">
  <ele>1586.17</ele>
  <time>2026-08-28T19:08:44Z</time>
  <course>6.97</course>
  <speed>0.01414213562373095</speed>
  <fix>3d</fix>
</trkpt>
<trkpt lat="40.072842" lon="-105.230575">
  <ele>1586.09</ele>
  <time>2026-08-28T19:08:44Z</time>
  <course>263.91</course>
  <speed>0.0</speed>
  <fix>3d</fix>
</trkpt>
<trkpt lat="40.0728419" lon="-105.2305749">
  <ele>1586.17</ele>
  <time>2026-08-28T19:08:44Z</time>
  <course>6.95</course>
  <speed>0.01414213562373095</speed>
  <fix>3d</fix>
</trkpt>
<trkpt lat="40.072842" lon="-105.230575">
  <ele>1586.09</ele>
  <time>2026-08-28T19:08:44Z</time>
  <course>264.62</course>
  <speed>0.0</speed>
  <fix>3d</fix>
</trkpt>
<trkpt lat="40.0728419" lon="-105.2305749">
  <ele>1586.16</ele>
  <time>2026-08-28T19:08:44Z</time>
  <course>6.92</course>
  <speed>0.01414213562373095</speed>
  <fix>3d</fix>
</trkpt>
<trkpt lat="40.072842" lon="-105.230575">
  <ele>1586.09</ele>
  <time>2026-08-28T19:08:44Z</time>
  <course>264.97</course>
  <speed>0.0</speed>
  <fix>3d</fix>
</trkpt>
<trkpt lat="40.0728419" lon="-105.2305749">
  <ele>1586.16</ele>
  <time>2026-08-28T19:08:44Z</time>
  <course>6.9</course>
  <speed>0.01414213562373095</speed>
  <fix>3d</fix>
</trkpt>
<trkpt lat="40.072842" lon="-105.230575">
  <ele>1586.09</ele>
  <time>2026-08-28T19:08:44Z</time>
  <course>264.85</course>
  <speed>0.0</speed>
  <fix>3d</fix>
</trkpt>
<trkpt lat="40.0728419" lon="-105.2305749">
  <ele>1586.17</ele>
  <time>2026-08-28T19:08:44Z</time>
  <course>6.87</course>
  <speed>0.01414213562373095</speed>
  <fix>3d</fix>
</trkpt>
<trkpt lat="40.072842" lon="-105.230575">
  <ele>1586.09</ele>
  <time>2026-08-28T19:08:44Z</time>
  <course>264.14</course>
  <speed>0.0</speed>
  <fix>3d</fix>
</trkpt>
<trkpt lat="40.0728419" lon="-105.2305749">
  <ele>1586.16</ele>
  <time>2026-08-28T19:08:44Z</time>
  <course>6.85</course>
  <speed>0.01414213562373095</speed>
  <fix>3d</fix>
</trkpt>
<trkpt lat="40.072842" lon="-105.230575">
  <ele>1586.09</ele>
  <time>2026-08-28T19:08:44Z</time>
  <course>264.29</course>
  <speed>0.0</speed>
  <fix>3d</fix>
</trkpt>
<trkpt lat="40.0728419" lon="-105.2305749">
  <ele>1586.16</ele>
  <time>2026-08-28T19:08:44Z</time>
  <course>6.83</course>
  <speed>0.01414213562373095</speed>
  <fix>3d</fix>
</trkpt>
<trkpt lat="40.072842" lon="-105.230575">
  <ele>1586.09</ele>
  <time>2026-08-28T19:08:44Z</time>
  <course>264.89</course>
  <speed>0.0</speed>
  <fix>3d</fix>
</trkpt>
<trkpt lat="40.0728419" lon="-105.2305749">
  <ele>1586.16</ele>
  <time>2026-08-28T19:08:44Z</time>
  <course>6.8</course>
  <speed>0.01414213562373095</speed>
  <fix>3d</fix>
</trkpt>
<trkpt lat="40.072842" lon="-105.230575">
  <ele>1586.09</ele>
  <time>2026-08-28T19:08:44Z</time>
  <course>265.01</course>
  <speed>0.0</speed>
  <fix>3d</fix>
</trkpt>
<trkpt lat="40.0728419" lon="-105.2305749">
  <ele>1586.16</ele>
  <time>2026-08-28T19:08:44Z</time>
  <course>6.78</course>
  <speed>0.01414213562373095</speed>
  <fix>3d</fix>
</trkpt>
<trkpt lat="40.072842" lon="-105.230575">
  <ele>1586.09</ele>
  <time>2026-08-28T19:08:44Z</time>
  <course>264.56</course>
  <speed>0.0</speed>
  <fix>3d</fix>
</trkpt>
<trkpt lat="40.0728419" lon="-105.2305749">
  <ele>1586.17</ele>
  <time>2026-08-28T19:08:44Z</time>
  <course>6.76</course>
  <speed>0.01414213562373095</speed>
  <fix>3d</fix>
</trkpt>
<trkpt lat="40.072842" lon="-105.230575">
  <ele>1586.09</ele>
  <time>2026-08-28T19:08:44Z</time>
  <course>264.11</course>
  <speed>0.0</speed>
  <fix>3d</fix>
</trkpt>
<trkpt lat="40.0728419" lon="-105.2305749">
  <ele>1586.17</ele>
  <time>2026-08-28T19:08:44Z</time>
  <course>6.73</course>
  <speed>0.01414213562373095</speed>
  <fix>3d</fix>
</trkpt>
<trkpt lat="40.072842" lon="-105.230575">
  <ele>1586.09</ele>
  <time>2026-08-28T19:08:44Z</time>
  <course>264.31</course>
  <speed>0.0</speed>
  <fix>3d</fix>
</trkpt>
<trkpt lat="40.0728419" lon="-105.2305749">
  <ele>1586.17</ele>
  <time>2026-08-28T19:08:44Z</time>
  <course>6.71</course>
  <speed>0.01414213562373095</speed>
  <fix>3d</fix>
</trkpt>
<trkpt lat="40.072842" lon="-105.230575">
  <ele>1586.09</ele>
  <time>2026-08-28T19:08:44Z</time>
  <course>264.85</course>
  <speed>0.0</speed>
  <fix>3d</fix>
</trkpt>
<trkpt lat="40.0728419" lon="-105.2305749">
  <ele>1586.17</ele>
  <time>2026-08-28T19:08:44Z</time>
  <course>6.69</course>
  <speed>0.01414213562373095</speed>
  <fix>3d</fix>
</trkpt>
<trkpt lat="40.072842" lon="-105.230575">
  <ele>1586.09</ele>
  <time>2026-08-28T19:08:44Z</time>
  <course>264.93</course>
  <speed>0.0</speed>
  <fix>3d</fix>
</trkpt>
<trkpt lat="40.0728419" lon="-105.2305749">
  <ele>1586.17</ele>
  <time>2026-08-28T19:08:44Z</time>
  <course>6.67</course>
  <speed>0.01414213562373095</speed>
  <fix>3d</fix>
</trkpt>
<trkpt lat="40.072842" lon="-105.230575">
  <ele>1586.09</ele>
  <time>2026-08-28T19:08:44Z</time>
  <course>264.44</course>
  <speed>0.0</speed>
  <fix>3d</fix>
</trkpt>
<trkpt lat="40.0728419" lon="-105.2305749">
  <ele>1586.17</ele>
  <time>2026-08-28T19:08:44Z</time>
  <course>6.64</course>
  <speed>0.01414213562373095</speed>
  <fix>3d</fix>
</trkpt>
<trkpt lat="40.072842" lon="-105.230575">
  <ele>1586.09</ele>
  <time>2026-08-28T19:08:44Z</time>
  <course>264.1</course>
  <speed>0.0</speed>
  <fix>3d</fix>
</trkpt>
<trkpt lat="40.0728419" lon="-105.2305749">
  <ele>1586.17</ele>
  <time>2026-08-28T19:08:44Z</time>
  <course>6.62</course>
  <speed>0.01414213562373095</speed>
  <fix>3d</fix>
</trkpt>
<trkpt lat="40.072842" lon="-105.230575">
  <ele>1586.09</ele>
  <time>2026-08-28T19:08:44Z</time>
  <course>264.28</course>
  <speed>0.0</speed>
  <fix>3d</fix>
</trkpt>
<trkpt lat="40.0728419" lon="-105.2305749">
  <ele>1586.17</ele>
  <time>2026-08-28T19:08:44Z</time>
  <course>6.6</course>
  <speed>0.01414213562373095</speed>
  <fix>3d</fix>
</trkpt>
<trkpt lat="40.072842" lon="-105.230575">
  <ele>1586.09</ele>
  <time>2026-08-28T19:08:44Z</time>
  <course>264.45</course>
  <speed>0.0</speed>
  <fix>3d</fix>
</trkpt>
<trkpt lat="40.0728419" lon="-105.2305749">
  <ele>1586.17</ele>
  <time>2026-08-28T19:08:44Z</time>
  <course>6.58</course>
  <speed>0.01414213562373095</speed>
  <fix>3d</fix>
</trkpt>
<trkpt lat="40.072842" lon="-105.230575">
  <ele>1586.09</ele>
  <time>2026-08-28T19:08:44Z</time>
  <course>264.76</course>
  <speed>0.0</speed>
  <fix>3d</fix>
</trkpt>
<trkpt lat="40.0728419" lon="-105.2305749">
  <ele>1586.17</ele>
  <time>2026-08-28T19:08:44Z</time>
  <course>6.56</course>
  <speed>0.01414213562373095</speed>
  <fix>3d</fix>
</trkpt>
<trkpt lat="40.072842" lon="-105.230575">
  <ele>1586.09</ele>
  <time>2026-08-28T19:08:44Z</time>
  <course>264.64</course>
  <speed>0.0</speed>
  <fix>3d</fix>
</trkpt>
<trkpt lat="40.0728419" lon="-105.2305749">
  <ele>1586.17</ele>
  <time>2026-08-28T19:08:44Z</time>
  <course>6.54</course>
  <speed>0.01414213562373095</speed>
  <fix>3d</fix>
</trkpt>
<trkpt lat="40.072842" lon="-105.230575">
  <ele>1586.09</ele>
  <time>2026-08-28T19:08:44Z</time>
  <course>264.07</course>
  <speed>0.0</speed>
  <fix>3d</fix>
</trkpt>
<trkpt lat="40.0728419" lon="-105.2305749">
  <ele>1586.17</ele>
  <time>2026-08-28T19:08:44Z</time>
  <course>6.52</course>
  <speed>0.01414213562373095</speed>
  <fix>3d</fix>
</trkpt>
<trkpt lat="40.072842" lon="-105.230575">
  <ele>1586.09</ele>
  <time>2026-08-28T19:08:44Z</time>
  <course>264.19</course>
  <speed>0.0</speed>
  <fix>3d</fix>
</trkpt>
<trkpt lat="40.0728419" lon="-105.2305749">
  <ele>1586.17</ele>
  <time>2026-08-28T19:08:44Z</time>
  <course>6.5</course>
  <speed>0.01414213562373095</speed>
  <fix>3d</fix>
</trkpt>
<trkpt lat="40.072842" lon="-105.230575">
  <ele>1586.09</ele>
  <time>2026-08-28T19:08:44Z</time>
  <course>258.39</course>
  <speed>0.0</speed>
  <fix>3d</fix>
</trkpt>
<trkpt lat="40.0728419" lon="-105.2305749">
  <ele>1586.17</ele>
  <time>2026-08-28T19:08:44Z</time>
  <course>6.47</course>
  <speed>0.01414213562373095</speed>
  <fix>3d</fix>
</trkpt>
<trkpt lat="40.072842" lon="-105.230575">
  <ele>1586.09</ele>
  <time>2026-08-28T19:08:44Z</time>
  <course>262.05</course>
  <speed>0.0</speed>
  <fix>3d</fix>
</trkpt>
<trkpt lat="40.0728419" lon="-105.2305749">
  <ele>1586.17</ele>
  <time>2026-08-28T19:08:44Z</time>
  <course>6.45</course>
  <speed>0.01414213562373095</speed>
  <fix>3d</fix>
</trkpt>
<trkpt lat="40.072842" lon="-105.230575">
  <ele>1586.09</ele>
  <time>2026-08-28T19:08:44Z</time>
  <course>267.42</course>
  <speed>0.0</speed>
  <fix>3d</fix>
</trkpt>
<trkpt lat="40.0728419" lon="-105.2305749">
  <ele>1586.17</ele>
  <time>2026-08-28T19:08:44Z</time>
  <course>6.43</course>
  <speed>0.01414213562373095</speed>
  <fix>3d</fix>
</trkpt>
<trkpt lat="40.072842" lon="-105.230575">
  <ele>1586.09</ele>
  <time>2026-08-28T19:08:44Z</time>
  <course>264.78</course>
  <speed>0.0</speed>
  <fix>3d</fix>
</trkpt>
<trkpt lat="40.0728419" lon="-105.2305749">
  <ele>1586.17</ele>
  <time>2026-08-28T19:08:44Z</time>
  <course>6.41</course>
  <speed>0.01414213562373095</speed>
  <fix>3d</fix>
</trkpt>
<trkpt lat="40.072842" lon="-105.230575">
  <ele>1586.09</ele>
  <time>2026-08-28T19:08:44Z</time>
  <course>263.57</course>
  <speed>0.0</speed>
  <fix>3d</fix>
</trkpt>
<trkpt lat="40.0728419" lon="-105.2305749">
  <ele>1586.17</ele>
  <time>2026-08-28T19:08:44Z</time>
  <course>6.39</course>
  <speed>0.01414213562373095</speed>
  <fix>3d</fix>
</trkpt>
<trkpt lat="40.072842" lon="-105.230575">
  <ele>1586.09</ele>
  <time>2026-08-28T19:08:44Z</time>
  <course>264.18</course>
  <speed>0.0</speed>
  <fix>3d</fix>
</trkpt>
<trkpt lat="40.0728419" lon="-105.2305749">
  <ele>1586.17</ele>
  <time>2026-08-28T19:08:44Z</time>
  <course>6.37</course>
  <speed>0.01414213562373095</speed>
  <fix>3d</fix>
</trkpt>
<trkpt lat="40.072842" lon="-105.230575">
  <ele>1586.09</ele>
  <time>2026-08-28T19:08:44Z</time>
  <course>264.31</course>
  <speed>0.0</speed>
  <fix>3d</fix>
</trkpt>
<trkpt lat="40.0728419" lon="-105.2305749">
  <ele>1586.17</ele>
  <time>2026-08-28T19:08:44Z</time>
  <course>6.35</course>
  <speed>0.01414213562373095</speed>
  <fix>3d</fix>
</trkpt>
<trkpt lat="40.072842" lon="-105.230575">
  <ele>1586.09</ele>
  <time>2026-08-28T19:08:44Z</time>
  <course>264.2</course>
  <speed>0.0</speed>
  <fix>3d</fix>
</trkpt>
<trkpt lat="40.0728419" lon="-105.2305749">
  <ele>1586.17</ele>
  <time>2026-08-28T19:08:44Z</time>
  <course>6.33</course>
  <speed>0.01414213562373095</speed>
  <fix>3d</fix>
</trkpt>
<trkpt lat="40.072842" lon="-105.230575">
  <ele>1586.09</ele>
  <time>2026-08-28T19:08:44Z</time>
  <course>264.64</course>
  <speed>0.0</speed>
  <fix>3d</fix>
</trkpt>
<trkpt lat="40.0728419" lon="-105.2305749">
  <ele>1586.17</ele>
  <time>2026-08-28T19:08:44Z</time>
  <course>6.32</course>
  <speed>0.01414213562373095</speed>
  <fix>3d</fix>
</trkpt>
<trkpt lat="40.072842" lon="-105.230575">
  <ele>1586.09</ele>
  <time>2026-08-28T19:08:44Z</time>
  <course>264.68</course>
  <speed>0.0</speed>
  <fix>3d</fix>
</trkpt>
<trkpt lat="40.0728419" lon="-105.2305749">
  <ele>1586.17</ele>
  <time>2026-08-28T19:08:44Z</time>
  <course>6.3</course>
  <speed>0.01414213562373095</speed>
  <fix>3d</fix>
</trkpt>
<trkpt lat="40.072842" lon="-105.230575">
  <ele>1586.09</ele>
  <time>2026-08-28T19:08:44Z</time>
  <course>264.19</course>
  <speed>0.0</speed>
  <fix>3d</fix>
</trkpt>
<trkpt lat="40.0728419" lon="-105.2305749">
  <ele>1586.16</ele>
  <time>2026-08-28T19:08:44Z</time>
  <course>6.28</course>
  <speed>0.01414213562373095</speed>
  <fix>3d</fix>
</trkpt>
<trkpt lat="40.072842" lon="-105.230575">
  <ele>1586.09</ele>
  <time>2026-08-28T19:08:44Z</time>
  <course>264.07</course>
  <speed>0.0</speed>
  <fix>3d</fix>
</trkpt>
<trkpt lat="40.0728419" lon="-105.2305749">
  <ele>1586.16</ele>
  <time>2026-08-28T19:08:44Z</time>
  <course>6.26</course>
  <speed>0.01414213562373095</speed>
  <fix>3d</fix>
</trkpt>
<trkpt lat="40.072842" lon="-105.230575">
  <ele>1586.09</ele>
  <time>2026-08-28T19:08:44Z</time>
  <course>264.19</course>
  <speed>0.0</speed>
  <fix>3d</fix>
</trkpt>
<trkpt lat="40.0728419" lon="-105.2305749">
  <ele>1586.16</ele>
  <time>2026-08-28T19:08:44Z</time>
  <course>6.24</course>
  <speed>0.01414213562373095</speed>
  <fix>3d</fix>
</trkpt>
<trkpt lat="40.072842" lon="-105.230575">
  <ele>1586.09</ele>
  <time>2026-08-28T19:08:44Z</time>
  <course>264.17</course>
  <speed>0.0</speed>
  <fix>3d</fix>
</trkpt>
<trkpt lat="40.0728419" lon="-105.2305749">
  <ele>1586.16</ele>
  <time>2026-08-28T19:08:44Z</time>
  <course>6.22</course>
  <speed>0.01414213562373095</speed>
  <fix>3d</fix>
</trkpt>
<trkpt lat="40.072842" lon="-105.230575">
  <ele>1586.09</ele>
  <time>2026-08-28T19:08:44Z</time>
  <course>264.23</course>
  <speed>0.0</speed>
  <fix>3d</fix>
</trkpt>
<trkpt lat="40.0728419" lon="-105.2305749">
  <ele>1586.15</ele>
  <time>2026-08-28T19:08:44Z</time>
  <course>6.2</course>
  <speed>0.01414213562373095</speed>
  <fix>3d</fix>
</trkpt>
<trkpt lat="40.072842" lon="-105.230575">
  <ele>1586.09</ele>
  <time>2026-08-28T19:08:44Z</time>
  <course>264.54</course>
  <speed>0.0</speed>
  <fix>3d</fix>
</trkpt>
<trkpt lat="40.0728419" lon="-105.2305749">
  <ele>1586.15</ele>
  <time>2026-08-28T19:08:44Z</time>
  <course>6.19</course>
  <speed>0.01414213562373095</speed>
  <fix>3d</fix>
</trkpt>
<trkpt lat="40.072842" lon="-105.230575">
  <ele>1586.09</ele>
  <time>2026-08-28T19:08:44Z</time>
  <course>264.48</course>
  <speed>0.0</speed>
  <fix>3d</fix>
</trkpt>
<trkpt lat="40.0728419" lon="-105.2305749">
  <ele>1586.15</ele>
  <time>2026-08-28T19:08:44Z</time>
  <course>6.17</course>
  <speed>0.01414213562373095</speed>
  <fix>3d</fix>
</trkpt>
<trkpt lat="40.072842" lon="-105.230575">
  <ele>1586.09</ele>
  <time>2026-08-28T19:08:44Z</time>
  <course>264.02</course>
  <speed>0.0</speed>
  <fix>3d</fix>
</trkpt>
<trkpt lat="40.0728419" lon="-105.2305749">
  <ele>1586.15</ele>
  <time>2026-08-28T19:08:44Z</time>
  <course>6.15</course>
  <speed>0.01414213562373095</speed>
  <fix>3d</fix>
</trkpt>
<trkpt lat="40.072842" lon="-105.230575">
  <ele>1586.09</ele>
  <time>2026-08-28T19:08:44Z</time>
  <course>264.09</course>
  <speed>0.0</speed>
  <fix>3d</fix>
</trkpt>
<trkpt lat="40.0728419" lon="-105.2305749">
  <ele>1586.15</ele>
  <time>2026-08-28T19:08:44Z</time>
  <course>6.13</course>
  <speed>0.01414213562373095</speed>
  <fix>3d</fix>
</trkpt>
<trkpt lat="40.072842" lon="-105.230575">
  <ele>1586.09</ele>
  <time>2026-08-28T19:08:44Z</time>
  <course>264.15</course>
  <speed>0.0</speed>
  <fix>3d</fix>
</trkpt>
<trkpt lat="40.0728419" lon="-105.2305749">
  <ele>1586.15</ele>
  <time>2026-08-28T19:08:44Z</time>
  <course>6.12</course>
  <speed>0.01414213562373095</speed>
  <fix>3d</fix>
</trkpt>
<trkpt lat="40.072842" lon="-105.230575">
  <ele>1586.09</ele>
  <time>2026-08-28T19:08:44Z</time>
  <course>264.12</course>
  <speed>0.0</speed>
  <fix>3d</fix>
</trkpt>
<trkpt lat="40.0728419" lon="-105.2305749">
  <ele>1586.15</ele>
  <time>2026-08-28T19:08:44Z</time>
  <course>6.1</course>
  <speed>0.01414213562373095</speed>
  <fix>3d</fix>
</trkpt>
<trkpt lat="40.072842" lon="-105.230575">
  <ele>1586.09</ele>
  <time>2026-08-28T19:08:44Z</time>
  <course>264.09</course>
  <speed>0.0</speed>
  <fix>3d</fix>
</trkpt>
<trkpt lat="40.0728419" lon="-105.2305749">
  <ele>1586.15</ele>
  <time>2026-08-28T19:08:44Z</time>
  <course>6.08</course>
  <speed>0.01414213562373095</speed>
  <fix>3d</fix>
</trkpt>
<trkpt lat="40.072842" lon="-105.230575">
  <ele>1586.09</ele>
  <time>2026-08-28T19:08:44Z</time>
  <course>264.47</course>
  <speed>0.0</speed>
  <fix>3d</fix>
</trkpt>
<trkpt lat="40.0728419" lon="-105.2305749">
  <ele>1586.15</ele>
  <time>2026-08-28T19:08:44Z</time>
  <course>6.06</course>
  <speed>0.01414213562373095</speed>
  <fix>3d</fix>
</trkpt>
<trkpt lat="40.072842" lon="-105.230575">
  <ele>1586.09</ele>
  <time>2026-08-28T19:08:44Z</time>
  <course>264.5</course>
  <speed>0.0</speed>
  <fix>3d</fix>
</trkpt>
<trkpt lat="40.0728419" lon="-105.2305749">
  <ele>1586.15</ele>
  <time>2026-08-28T19:08:44Z</time>
  <course>6.05</course>
  <speed>0.01414213562373095</speed>
  <fix>3d</fix>
</trkpt>
<trkpt lat="40.072842" lon="-105.230575">
  <ele>1586.09</ele>
  <time>2026-08-28T19:08:44Z</time>
  <course>264.06</course>
  <speed>0.0</speed>
  <fix>3d</fix>
</trkpt>
<trkpt lat="40.0728419" lon="-105.2305749">
  <ele>1586.15</ele>
  <time>2026-08-28T19:08:44Z</time>
  <course>6.03</course>
  <speed>0.01414213562373095</speed>
  <fix>3d</fix>
</trkpt>
<trkpt lat="40.072842" lon="-105.230575">
  <ele>1586.09</ele>
  <time>2026-08-28T19:08:44Z</time>
  <course>264.0</course>
  <speed>0.0</speed>
  <fix>3d</fix>
</trkpt>
<trkpt lat="40.0728419" lon="-105.2305749">
  <ele>1586.15</ele>
  <time>2026-08-28T19:08:44Z</time>
  <course>6.01</course>
  <speed>0.01414213562373095</speed>
  <fix>3d</fix>
</trkpt>
<trkpt lat="40.072842" lon="-105.230575">
  <ele>1586.09</ele>
  <time>2026-08-28T19:08:44Z</time>
  <course>264.09</course>
  <speed>0.0</speed>
  <fix>3d</fix>
</trkpt>
<trkpt lat="40.0728419" lon="-105.2305749">
  <ele>1586.15</ele>
  <time>2026-08-28T19:08:44Z</time>
  <course>6.0</course>
  <speed>0.01414213562373095</speed>
  <fix>3d</fix>
</trkpt>
<trkpt lat="40.072842" lon="-105.230575">
  <ele>1586.09</ele>
  <time>2026-08-28T19:08:44Z</time>
  <course>264.07</course>
  <speed>0.0</speed>
  <fix>3d</fix>
</trkpt>
<trkpt lat="40.0728419" lon="-105.2305749">
  <ele>1586.15</ele>
  <time>2026-08-28T19:08:44Z</time>
  <course>5.98</course>
  <speed>0.01414213562373095</speed>
  <fix>3d</fix>
</trkpt>
<trkpt lat="40.072842" lon="-105.230575">
  <ele>1586.09</ele>
  <time>2026-08-28T19:08:44Z</time>
  <course>264.05</course>
  <speed>0.0</speed>
  <fix>3d</fix>
</trkpt>
<trkpt lat="40.0728419" lon="-105.2305749">
  <ele>1586.15</ele>
  <time>2026-08-28T19:08:44Z</time>
  <course>5.96</course>
  <speed>0.01414213562373095</speed>
  <fix>3d</fix>
</trkpt>
<trkpt lat="40.072842" lon="-105.230575">
  <ele>1586.09</ele>
  <time>2026-08-28T19:08:44Z</time>
  <course>264.03</course>
  <speed>0.0</speed>
  <fix>3d</fix>
</trkpt>
<trkpt lat="40.0728419" lon="-105.2305749">
  <ele>1586.15</ele>
  <time>2026-08-28T19:08:44Z</time>
  <course>5.95</course>
  <speed>0.01414213562373095</speed>
  <fix>3d</fix>
</trkpt>
<trkpt lat="40.072842" lon="-105.230575">
  <ele>1586.09</ele>
  <time>2026-08-28T19:08:44Z</time>
  <course>264.21</course>
  <speed>0.0</speed>
  <fix>3d</fix>
</trkpt>
<trkpt lat="40.0728419" lon="-105.2305749">
  <ele>1586.15</ele>
  <time>2026-08-28T19:08:44Z</time>
  <course>5.93</course>
  <speed>0.01414213562373095</speed>
  <fix>3d</fix>
</trkpt>
<trkpt lat="40.072842" lon="-105.230575">
  <ele>1586.09</ele>
  <time>2026-08-28T19:08:44Z</time>
  <course>264.4</course>
  <speed>0.0</speed>
  <fix>3d</fix>
</trkpt>
<trkpt lat="40.0728419" lon="-105.2305749">
  <ele>1586.16</ele>
  <time>2026-08-28T19:08:44Z</time>
  <course>5.92</course>
  <speed>0.01414213562373095</speed>
  <fix>3d</fix>
</trkpt>
<trkpt lat="40.072842" lon="-105.230575">
  <ele>1586.09</ele>
  <time>2026-08-28T19:08:44Z</time>
  <course>264.27</course>
  <speed>0.0</speed>
  <fix>3d</fix>
</trkpt>
<trkpt lat="40.0728419" lon="-105.2305749">
  <ele>1586.16</ele>
  <time>2026-08-28T19:08:44Z</time>
  <course>5.9</course>
  <speed>0.01414213562373095</speed>
  <fix>3d</fix>
</trkpt>
<trkpt lat="40.072842" lon="-105.230575">
  <ele>1586.09</ele>
  <time>2026-08-28T19:08:44Z</time>
  <course>263.92</course>
  <speed>0.0</speed>
  <fix>3d</fix>
</trkpt>
<trkpt lat="40.0728419" lon="-105.2305749">
  <ele>1586.16</ele>
  <time>2026-08-28T19:08:44Z</time>
  <course>5.89</course>
  <speed>0.01414213562373095</speed>
  <fix>3d</fix>
</trkpt>
<trkpt lat="40.072842" lon="-105.230575">
  <ele>1586.09</ele>
  <time>2026-08-28T19:08:44Z</time>
  <course>264.0</course>
  <speed>0.0</speed>
  <fix>3d</fix>
</trkpt>
<trkpt lat="40.0728419" lon="-105.2305749">
  <ele>1586.16</ele>
  <time>2026-08-28T19:08:44Z</time>
  <course>5.87</course>
  <speed>0.01414213562373095</speed>
  <fix>3d</fix>
</trkpt>
<trkpt lat="40.072842" lon="-105.230575">
  <ele>1586.09</ele>
  <time>2026-08-28T19:08:44Z</time>
  <course>264.03</course>
  <speed>0.0</speed>
  <fix>3d</fix>
</trkpt>
<trkpt lat="40.0728419" lon="-105.2305749">
  <ele>1586.15</ele>
  <time>2026-08-28T19:08:44Z</time>
  <course>5.85</course>
  <speed>0.01414213562373095</speed>
  <fix>3d</fix>
</trkpt>
<trkpt lat="40.072842" lon="-105.230575">
  <ele>1586.09</ele>
  <time>2026-08-28T19:08:44Z</time>
  <course>264.0</course>
  <speed>0.0</speed>
  <fix>3d</fix>
</trkpt>
<trkpt lat="40.0728419" lon="-105.2305749">
  <ele>1586.15</ele>
  <time>2026-08-28T19:08:44Z</time>
  <course>5.84</course>
  <speed>0.01414213562373095</speed>
  <fix>3d</fix>
</trkpt>
<trkpt lat="40.072842" lon="-105.230575">
  <ele>1586.09</ele>
  <time>2026-08-28T19:08:44Z</time>
  <course>263.99</course>
  <speed>0.0</speed>
  <fix>3d</fix>
</trkpt>
<trkpt lat="40.0728419" lon="-105.2305749">
  <ele>1586.15</ele>
  <time>2026-08-28T19:08:44Z</time>
  <course>5.82</course>
  <speed>0.01414213562373095</speed>
  <fix>3d</fix>
</trkpt>
<trkpt lat="40.072842" lon="-105.230575">
  <ele>1586.09</ele>
  <time>2026-08-28T19:08:44Z</time>
  <course>263.98</course>
  <speed>0.0</speed>
  <fix>3d</fix>
</trkpt>
<trkpt lat="40.0728419" lon="-105.2305749">
  <ele>1586.15</ele>
  <time>2026-08-28T19:08:44Z</time>
  <course>5.81</course>
  <speed>0.01414213562373095</speed>
  <fix>3d</fix>
</trkpt>
<trkpt lat="40.072842" lon="-105.230575">
  <ele>1586.09</ele>
  <time>2026-08-28T19:08:44Z</time>
  <course>264.28</course>
  <speed>0.0</speed>
  <fix>3d</fix>
</trkpt>
<trkpt lat="40.0728419" lon="-105.2305749">
  <ele>1586.15</ele>
  <time>2026-08-28T19:08:44Z</time>
  <course>5.79</course>
  <speed>0.01414213562373095</speed>
  <fix>3d</fix>
</trkpt>
<trkpt lat="40.072842" lon="-105.230575">
  <ele>1586.09</ele>
  <time>2026-08-28T19:08:44Z</time>
  <course>264.35</course>
  <speed>0.0</speed>
  <fix>3d</fix>
</trkpt>
<trkpt lat="40.0728419" lon="-105.2305749">
  <ele>1586.15</ele>
  <time>2026-08-28T19:08:44Z</time>
  <course>5.78</course>
  <speed>0.01414213562373095</speed>
  <fix>3d</fix>
</trkpt>
<trkpt lat="40.072842" lon="-105.230575">
  <ele>1586.09</ele>
  <time>2026-08-28T19:08:44Z</time>
  <course>264.08</course>
  <speed>0.0</speed>
  <fix>3d</fix>
</trkpt>
<trkpt lat="40.0728419" lon="-105.2305749">
  <ele>1586.15</ele>
  <time>2026-08-28T19:08:44Z</time>
  <course>5.77</course>
  <speed>0.01414213562373095</speed>
  <fix>3d</fix>
</trkpt>
<trkpt lat="40.072842" lon="-105.230575">
  <ele>1586.09</ele>
  <time>2026-08-28T19:08:44Z</time>
  <course>263.87</course>
  <speed>0.0</speed>
  <fix>3d</fix>
</trkpt>
<trkpt lat="40.0728419" lon="-105.2305749">
  <ele>1586.15</ele>
  <time>2026-08-28T19:08:44Z</time>
  <course>5.75</course>
  <speed>0.01414213562373095</speed>
  <fix>3d</fix>
</trkpt>
<trkpt lat="40.072842" lon="-105.230575">
  <ele>1586.09</ele>
  <time>2026-08-28T19:08:44Z</time>
  <course>263.97</course>
  <speed>0.0</speed>
  <fix>3d</fix>
</trkpt>
<trkpt lat="40.0728419" lon="-105.2305749">
  <ele>1586.15</ele>
  <time>2026-08-28T19:08:44Z</time>
  <course>5.74</course>
  <speed>0.01414213562373095</speed>
  <fix>3d</fix>
</trkpt>
<trkpt lat="40.072842" lon="-105.230575">
  <ele>1586.09</ele>
  <time>2026-08-28T19:08:44Z</time>
  <course>263.97</course>
  <speed>0.0</speed>
  <fix>3d</fix>
</trkpt>
<trkpt lat="40.0728419" lon="-105.2305749">
  <ele>1586.15</ele>
  <time>2026-08-28T19:08:44Z</time>
  <course>5.72</course>
  <speed>0.01414213562373095</speed>
  <fix>3d</fix>
</trkpt>
<trkpt lat="40.072842" lon="-105.230575">
  <ele>1586.09</ele>
  <time>2026-08-28T19:08:44Z</time>
  <course>264.25</course>
  <speed>0.0</speed>
  <fix>3d</fix>
</trkpt>
<trkpt lat="40.0728419" lon="-105.2305749">
  <ele>1586.15</ele>
  <time>2026-08-28T19:08:44Z</time>
  <course>5.71</course>
  <speed>0.01414213562373095</speed>
  <fix>3d</fix>
</trkpt>
<trkpt lat="40.072842" lon="-105.230575">
  <ele>1586.09</ele>
  <time>2026-08-28T19:08:44Z</time>
  <course>264.39</course>
  <speed>0.0</speed>
  <fix>3d</fix>
</trkpt>
<trkpt lat="40.0728419" lon="-105.2305749">
  <ele>1586.14</ele>
  <time>2026-08-28T19:08:44Z</time>
  <course>5.7</course>
  <speed>0.01414213562373095</speed>
  <fix>3d</fix>
</trkpt>
<trkpt lat="40.072842" lon="-105.230575">
  <ele>1586.09</ele>
  <time>2026-08-28T19:08:44Z</time>
  <course>264.39</course>
  <speed>0.0</speed>
  <fix>3d</fix>
</trkpt>
<trkpt lat="40.0728419" lon="-105.2305749">
  <ele>1586.14</ele>
  <time>2026-08-28T19:08:44Z</time>
  <course>5.69</course>
  <speed>0.01414213562373095</speed>
  <fix>3d</fix>
</trkpt>
<trkpt lat="40.072842" lon="-105.230575">
  <ele>1586.09</ele>
  <time>2026-08-28T19:08:44Z</time>
  <course>265.01</course>
  <speed>0.0</speed>
  <fix>3d</fix>
</trkpt>
<trkpt lat="40.0728419" lon="-105.2305749">
  <ele>1586.14</ele>
  <time>2026-08-28T19:08:44Z</time>
  <course>5.68</course>
  <speed>0.01414213562373095</speed>
  <fix>3d</fix>
</trkpt>
<trkpt lat="40.072842" lon="-105.230575">
  <ele>1586.09</ele>
  <time>2026-08-28T19:08:44Z</time>
  <course>263.93</course>
  <speed>0.0</speed>
  <fix>3d</fix>
</trkpt>
<trkpt lat="40.0728419" lon="-105.2305749">
  <ele>1586.14</ele>
  <time>2026-08-28T19:08:44Z</time>
  <course>5.67</course>
  <speed>0.01414213562373095</speed>
  <fix>3d</fix>
</trkpt>
<trkpt lat="40.072842" lon="-105.230575">
  <ele>1586.09</ele>
  <time>2026-08-28T19:08:44Z</time>
  <course>263.42</course>
  <speed>0.0</speed>
  <fix>3d</fix>
</trkpt>
<trkpt lat="40.0728419" lon="-105.2305749">
  <ele>1586.14</ele>
  <time>2026-08-28T19:08:44Z</time>
  <course>5.66</course>
  <speed>0.01414213562373095</speed>
  <fix>3d</fix>
</trkpt>
<trkpt lat="40.072842" lon="-105.230575">
  <ele>1586.09</ele>
  <time>2026-08-28T19:08:44Z</time>
  <course>270.4</course>
  <speed>0.0</speed>
  <fix>3d</fix>
</trkpt>
<trkpt lat="40.0728419" lon="-105.2305749">
  <ele>1586.14</ele>
  <time>2026-08-28T19:08:44Z</time>
  <course>5.66</course>
  <speed>0.01414213562373095</speed>
  <fix>3d</fix>
</trkpt>
<trkpt lat="40.072842" lon="-105.230575">
  <ele>1586.09</ele>
  <time>2026-08-28T19:08:44Z</time>
  <course>270.99</course>
  <speed>0.0</speed>
  <fix>3d</fix>
</trkpt>
<trkpt lat="40.0728419" lon="-105.2305749">
  <ele>1586.15</ele>
  <time>2026-08-28T19:08:44Z</time>
  <course>5.62</course>
  <speed>0.01414213562373095</speed>
  <fix>3d</fix>
</trkpt>
<trkpt lat="40.072842" lon="-105.230575">
  <ele>1586.09</ele>
  <time>2026-08-28T19:08:44Z</time>
  <course>264.7</course>
  <speed>0.0</speed>
  <fix>3d</fix>
</trkpt>
<trkpt lat="40.0728419" lon="-105.2305749">
  <ele>1586.24</ele>
  <time>2026-08-28T19:08:44Z</time>
  <course>5.54</course>
  <speed>0.01414213562373095</speed>
  <fix>3d</fix>
</trkpt>
<trkpt lat="40.072842" lon="-105.230575">
  <ele>1586.13</ele>
  <time>2026-08-28T19:08:44Z</time>
  <course>263.84</course>
  <speed>0.0</speed>
  <fix>3d</fix>
</trkpt>
<trkpt lat="40.0728419" lon="-105.2305749">
  <ele>1586.31</ele>
  <time>2026-08-28T19:08:44Z</time>
  <course>2.91</course>
  <speed>0.022360679774997897</speed>
  <fix>3d</fix>
</trkpt>
<trkpt lat="40.072842" lon="-105.2305751">
  <ele>1586.2</ele>
  <time>2026-08-28T19:08:44Z</time>
  <course>266.94</course>
  <speed>0.0</speed>
  <fix>3d</fix>
</trkpt>
<trkpt lat="40.0728419" lon="-105.2305751">
  <ele>1586.59</ele>
  <time>2026-08-28T19:08:44Z</time>
  <course>358.57</course>
  <speed>0.18027756377319945</speed>
  <fix>3d</fix>
</trkpt>
<trkpt lat="40.072842" lon="-105.2305751">
  <ele>1586.33</ele>
  <time>2026-08-28T19:08:44Z</time>
  <course>260.65</course>
  <speed>0.08</speed>
  <fix>3d</fix>
</trkpt>
<trkpt lat="40.0728419" lon="-105.2305752">
  <ele>1586.65</ele>
  <time>2026-08-28T19:08:44Z</time>
  <course>358.18</course>
  <speed>0.2109502310972899</speed>
  <fix>3d</fix>
</trkpt>
<trkpt lat="40.0728419" lon="-105.2305758">
  <ele>1587.01</ele>
  <time>2026-08-28T19:08:44Z</time>
  <course>356.56</course>
  <speed>0.3014962686336267</speed>
  <fix>3d</fix>
</trkpt>
<trkpt lat="40.0728419" lon="-105.2305754">
  <ele>1586.62</ele>
  <time>2026-08-28T19:08:44Z</time>
  <course>258.3</course>
  <speed>0.22</speed>
  <fix>3d</fix>
</trkpt>
<trkpt lat="40.0728419" lon="-105.2305759">
  <ele>1587.08</ele>
  <time>2026-08-28T19:08:44Z</time>
  <course>356.35</course>
  <speed>0.3125699921617557</speed>
  <fix>3d</fix>
</trkpt>
<trkpt lat="40.0728418" lon="-105.2305766">
  <ele>1587.45</ele>
  <time>2026-08-28T19:08:44Z</time>
  <course>355.6</course>
  <speed>0.37483329627982626</speed>
  <fix>3d</fix>
</trkpt>
<trkpt lat="40.0728418" lon="-105.230576">
  <ele>1587.03</ele>
  <time>2026-08-28T19:08:44Z</time>
  <course>255.36</course>
  <speed>0.32</speed>
  <fix>3d</fix>
</trkpt>
<trkpt lat="40.0728418" lon="-105.2305767">
  <ele>1587.53</ele>
  <time>2026-08-28T19:08:44Z</time>
  <course>355.5</course>
  <speed>0.38639358172723315</speed>
  <fix>3d</fix>
</trkpt>
<trkpt lat="40.0728416" lon="-105.2305775">
  <ele>1587.92</ele>
  <time>2026-08-28T19:08:44Z</time>
  <course>355.24</course>
  <speed>0.4220189569201838</speed>
  <fix>3d</fix>
</trkpt>
<trkpt lat="40.0728417" lon="-105.2305769">
  <ele>1587.47</ele>
  <time>2026-08-28T19:08:44Z</time>
  <course>252.24</course>
  <speed>0.39</speed>
  <fix>3d</fix>
</trkpt>
<trkpt lat="40.0728416" lon="-105.2305777">
  <ele>1587.99</ele>
  <time>2026-08-28T19:08:44Z</time>
  <course>355.22</course>
  <speed>0.431740662898458</speed>
  <fix>3d</fix>
</trkpt>
<trkpt lat="40.0728413" lon="-105.2305785">
  <ele>1588.4</ele>
  <time>2026-08-28T19:08:44Z</time>
  <course>355.23</course>
  <speed>0.45880278987817846</speed>
  <fix>3d</fix>
</trkpt>
<trkpt lat="40.0728414" lon="-105.2305779">
  <ele>1587.93</ele>
  <time>2026-08-28T19:08:44Z</time>
  <course>249.21</course>
  <speed>0.44</speed>
  <fix>3d</fix>
</trkpt>
<trkpt lat="40.0728413" lon="-105.2305787">
  <ele>1588.5</ele>
  <time>2026-08-28T19:08:44Z</time>
  <course>355.26</course>
  <speed>0.4617358552246078</speed>
  <fix>3d</fix>
</trkpt>
<trkpt lat="40.072841" lon="-105.2305796">
  <ele>1588.91</ele>
  <time>2026-08-28T19:08:44Z</time>
  <course>355.45</course>
  <speed>0.49040799340956914</speed>
  <fix>3d</fix>
</trkpt>
<trkpt lat="40.0728411" lon="-105.2305789">
  <ele>1588.41</ele>
  <time>2026-08-28T19:08:44Z</time>
  <course>246.43</course>
  <speed>0.47</speed>
  <fix>3d</fix>
</trkpt>
<trkpt lat="40.0728409" lon="-105.2305797">
  <ele>1588.99</ele>
  <time>2026-08-28T19:08:44Z</time>
  <course>355.5</course>
  <speed>0.49040799340956914</speed>
  <fix>3d</fix>
</trkpt>
<trkpt lat="40.0728406" lon="-105.2305807">
  <ele>1589.42</ele>
  <time>2026-08-28T19:08:44Z</time>
  <course>354.1</course>
  <speed>0.5107837115648853</speed>
  <fix>3d</fix>
</trkpt>
<trkpt lat="40.0728407" lon="-105.2305799">
  <ele>1588.91</ele>
  <time>2026-08-28T19:08:44Z</time>
  <course>244.0</course>
  <speed>0.5</speed>
  <fix>3d</fix>
</trkpt>
<trkpt lat="40.0728405" lon="-105.2305808">
  <ele>1589.49</ele>
  <time>2026-08-28T19:08:44Z</time>
  <course>354.09</course>
  <speed>0.51478150704935</speed>
  <fix>3d</fix>
</trkpt>
<trkpt lat="40.0728401" lon="-105.2305818">
  <ele>1589.94</ele>
  <time>2026-08-28T19:08:44Z</time>
  <course>354.36</course>
  <speed>0.5322593352868505</speed>
  <fix>3d</fix>
</trkpt>
<trkpt lat="40.0728402" lon="-105.230581">
  <ele>1589.41</ele>
  <time>2026-08-28T19:08:44Z</time>
  <course>241.96</course>
  <speed>0.52</speed>
  <fix>3d</fix>
</trkpt>
<trkpt lat="40.0728401" lon="-105.230582">
  <ele>1590.03</ele>
  <time>2026-08-28T19:08:44Z</time>
  <course>354.45</course>
  <speed>0.5366563145999496</speed>
  <fix>3d</fix>
</trkpt>
<trkpt lat="40.0728396" lon="-105.2305829">
  <ele>1590.47</ele>
  <time>2026-08-28T19:08:44Z</time>
  <course>354.92</course>
  <speed>0.5594640292279746</speed>
  <fix>3d</fix>
</trkpt>
<trkpt lat="40.0728398" lon="-105.2305821">
  <ele>1589.92</ele>
  <time>2026-08-28T19:08:44Z</time>
  <course>240.35</course>
  <speed>0.54</speed>
  <fix>3d</fix>
</trkpt>
<trkpt lat="40.0728395" lon="-105.2305831">
  <ele>1590.54</ele>
  <time>2026-08-28T19:08:44Z</time>
  <course>354.99</course>
  <speed>0.5594640292279746</speed>
  <fix>3d</fix>
</trkpt>
<trkpt lat="40.0728391" lon="-105.2305841">
  <ele>1590.99</ele>
  <time>2026-08-28T19:08:44Z</time>
  <course>355.45</course>
  <speed>0.5693856338194704</speed>
  <fix>3d</fix>
</trkpt>
<trkpt lat="40.0728393" lon="-105.2305832">
  <ele>1590.45</ele>
  <time>2026-08-28T19:08:44Z</time>
  <course>239.13</course>
  <speed>0.56</speed>
  <fix>3d</fix>
</trkpt>
<trkpt lat="40.072839" lon="-105.2305842">
  <ele>1591.07</ele>
  <time>2026-08-28T19:08:44Z</time>
  <course>355.53</course>
  <speed>0.574543296888929</speed>
  <fix>3d</fix>
</trkpt>
<trkpt lat="40.0728385" lon="-105.2305852">
  <ele>1591.52</ele>
  <time>2026-08-28T19:08:44Z</time>
  <course>356.0</course>
  <speed>0.5936328831862332</speed>
  <fix>3d</fix>
</trkpt>
<trkpt lat="40.0728388" lon="-105.2305844">
  <ele>1590.97</ele>
  <time>2026-08-28T19:08:44Z</time>
  <course>238.23</course>
  <speed>0.58</speed>
  <fix>3d</fix>
</trkpt>
<trkpt lat="40.0728384" lon="-105.2305854">
  <ele>1591.61</ele>
  <time>2026-08-28T19:08:44Z</time>
  <course>356.1</course>
  <speed>0.5936328831862332</speed>
  <fix>3d</fix>
</trkpt>
<trkpt lat="40.0728379" lon="-105.2305864">
  <ele>1592.04</ele>
  <time>2026-08-28T19:08:44Z</time>
  <course>358.68</course>
  <speed>0.6074537019394977</speed>
  <fix>3d</fix>
</trkpt>
<trkpt lat="40.0728382" lon="-105.2305855">
  <ele>1591.5</ele>
  <time>2026-08-28T19:08:44Z</time>
  <course>237.69</course>
  <speed>0.59</speed>
  <fix>3d</fix>
</trkpt>
<trkpt lat="40.0728373" lon="-105.2305876">
  <ele>1592.4</ele>
  <time>2026-08-28T19:08:44Z</time>
  <course>1.81</course>
  <speed>0.5990826320300063</speed>
  <fix>3d</fix>
</trkpt>
<trkpt lat="40.0728376" lon="-105.2305868">
  <ele>1591.96</ele>
  <time>2026-08-28T19:08:44Z</time>
  <course>237.48</course>
  <speed>0.6</speed>
  <fix>3d</fix>
</trkpt>
<trkpt lat="40.0728367" lon="-105.2305888">
  <ele>1592.63</ele>
  <time>2026-08-28T19:08:44Z</time>
  <course>3.56</course>
  <speed>0.5824946351684279</speed>
  <fix>3d</fix>
</trkpt>
<trkpt lat="40.0728371" lon="-105.2305879">
  <ele>1592.29</ele>
  <time>2026-08-28T19:08:44Z</time>
  <course>237.31</course>
  <speed>0.59</speed>
  <fix>3d</fix>
</trkpt>
<trkpt lat="40.0728361" lon="-105.2305899">
  <ele>1592.78</ele>
  <time>2026-08-28T19:08:45Z</time>
  <course>4.42</course>
  <speed>0.5580322571321482</speed>
  <fix>3d</fix>
</trkpt>
<trkpt lat="40.0728364" lon="-105.2305891">
  <ele>1592.5</ele>
  <time>2026-08-28T19:08:45Z</time>
  <course>236.98</course>
  <speed>0.57</speed>
  <fix>3d</fix>
</trkpt>
<trkpt lat="40.0728355" lon="-105.2305909">
  <ele>1592.88</ele>
  <time>2026-08-28T19:08:45Z</time>
  <course>4.8</course>
  <speed>0.5420332093147061</speed>
  <fix>3d</fix>
</trkpt>
<trkpt lat="40.0728359" lon="-105.2305902">
  <ele>1592.63</ele>
  <time>2026-08-28T19:08:45Z</time>
  <course>236.52</course>
  <speed>0.55</speed>
  <fix>3d</fix>
</trkpt>
<trkpt lat="40.072835" lon="-105.2305919">
  <ele>1592.94</ele>
  <time>2026-08-28T19:08:45Z</time>
  <course>4.99</course>
  <speed>0.5122499389946279</speed>
  <fix>3d</fix>
</trkpt>
<trkpt lat="40.0728354" lon="-105.2305913">
  <ele>1592.72</ele>
  <time>2026-08-28T19:08:45Z</time>
  <course>235.95</course>
  <speed>0.53</speed>
  <fix>3d</fix>
</trkpt>
<trkpt lat="40.0728344" lon="-105.2305929">
  <ele>1592.97</ele>
  <time>2026-08-28T19:08:45Z</time>
  <course>5.12</course>
  <speed>0.49678969393496886</speed>
  <fix>3d</fix>
</trkpt>
<trkpt lat="40.0728349" lon="-105.2305923">
  <ele>1592.78</ele>
  <time>2026-08-28T19:08:45Z</time>
  <course>235.28</course>
  <speed>0.51</speed>
  <fix>3d</fix>
</trkpt>
<trkpt lat="40.0728339" lon="-105.2305938">
  <ele>1592.99</ele>
  <time>2026-08-28T19:08:45Z</time>
  <course>5.18</course>
  <speed>0.47507894080878815</speed>
  <fix>3d</fix>
</trkpt>
<trkpt lat="40.0728343" lon="-105.2305932">
  <ele>1592.81</ele>
  <time>2026-08-28T19:08:45Z</time>
  <course>234.5</course>
  <speed>0.48</speed>
  <fix>3d</fix>
</trkpt>
<trkpt lat="40.0728334" lon="-105.2305946">
  <ele>1593.01</ele>
  <time>2026-08-28T19:08:45Z</time>
  <course>5.21</course>
  <speed>0.4459820624195552</speed>
  <fix>3d</fix>
</trkpt>
<trkpt lat="40.0728338" lon="-105.2305941">
  <ele>1592.84</ele>
  <time>2026-08-28T19:08:45Z</time>
  <course>233.7</course>
  <speed>0.46</speed>
  <fix>3d</fix>
</trkpt>
<trkpt lat="40.0728329" lon="-105.2305954">
  <ele>1593.03</ele>
  <time>2026-08-28T19:08:45Z</time>
  <course>5.33</course>
  <speed>0.40311288741492746</speed>
  <fix>3d</fix>
</trkpt>
<trkpt lat="40.0728333" lon="-105.2305949">
  <ele>1592.85</ele>
  <time>2026-08-28T19:08:45Z</time>
  <course>233.15</course>
  <speed>0.43</speed>
  <fix>3d</fix>
</trkpt>
<trkpt lat="40.0728325" lon="-105.2305961">
  <ele>1593.03</ele>
  <time>2026-08-28T19:08:45Z</time>
  <course>5.47</course>
  <speed>0.3394112549695428</speed>
  <fix>3d</fix>
</trkpt>
<trkpt lat="40.072833" lon="-105.2305957">
  <ele>1592.86</ele>
  <time>2026-08-28T19:08:45Z</time>
  <course>233.27</course>
  <speed>0.38</speed>
  <fix>3d</fix>
</trkpt>
<trkpt lat="40.0728322" lon="-105.2305966">
  <ele>1593.03</ele>
  <time>2026-08-28T19:08:45Z</time>
  <course>5.58</course>
  <speed>0.26870057685088805</speed>
  <fix>3d</fix>
</trkpt>
<trkpt lat="40.0728326" lon="-105.2305964">
  <ele>1592.87</ele>
  <time>2026-08-28T19:08:45Z</time>
  <course>234.46</course>
  <speed>0.32</speed>
  <fix>3d</fix>
</trkpt>
<trkpt lat="40.072832" lon="-105.2305971">
  <ele>1593.02</ele>
  <time>2026-08-28T19:08:45Z</time>
  <course>5.64</course>
  <speed>0.21213203435596426</speed>
  <fix>3d</fix>
</trkpt>
<trkpt lat="40.0728323" lon="-105.230597">
  <ele>1592.86</ele>
  <time>2026-08-28T19:08:45Z</time>
  <course>237.12</course>
  <speed>0.26</speed>
  <fix>3d</fix>
</trkpt>
<trkpt lat="40.0728318" lon="-105.2305975">
  <ele>1593.0</ele>
  <time>2026-08-28T19:08:45Z</time>
  <course>5.71</course>
  <speed>0.15556349186104046</speed>
  <fix>3d</fix>
</trkpt>
<trkpt lat="40.0728321" lon="-105.2305974">
  <ele>1592.85</ele>
  <time>2026-08-28T19:08:45Z</time>
  <course>241.58</course>
  <speed>0.2</speed>
  <fix>3d</fix>
</trkpt>
<trkpt lat="40.0728318" lon="-105.2305978">
  <ele>1592.98</ele>
  <time>2026-08-28T19:08:45Z</time>
  <course>5.79</course>
  <speed>0.09899494936611665</speed>
  <fix>3d</fix>
</trkpt>
<trkpt lat="40.0728319" lon="-105.2305978">
  <ele>1592.84</ele>
  <time>2026-08-28T19:08:45Z</time>
  <course>248.12</course>
  <speed>0.15</speed>
  <fix>3d</fix>
</trkpt>
<trkpt lat="40.0728317" lon="-105.230598">
  <ele>1592.96</ele>
  <time>2026-08-28T19:08:45Z</time>
  <course>5.84</course>
  <speed>0.0565685424949238</speed>
  <fix>3d</fix>
</trkpt>
<trkpt lat="40.0728318" lon="-105.2305981">
  <ele>1592.82</ele>
  <time>2026-08-28T19:08:45Z</time>
  <course>257.63</course>
  <speed>0.1</speed>
  <fix>3d</fix>
</trkpt>
<trkpt lat="40.0728317" lon="-105.2305982">
  <ele>1592.95</ele>
  <time>2026-08-28T19:08:45Z</time>
  <course>5.83</course>
  <speed>0.01</speed>
  <fix>3d</fix>
</trkpt>
<trkpt lat="40.0728318" lon="-105.2305983">
  <ele>1592.8</ele>
  <time>2026-08-28T19:08:45Z</time>
  <course>274.62</course>
  <speed>0.07</speed>
  <fix>3d</fix>
</trkpt>
<trkpt lat="40.0728318" lon="-105.2305982">
  <ele>1592.94</ele>
  <time>2026-08-28T19:08:45Z</time>
  <course>3.27</course>
  <speed>0.09055385138137417</speed>
  <fix>3d</fix>
</trkpt>
<trkpt lat="40.0728319" lon="-105.2305984">
  <ele>1592.78</ele>
  <time>2026-08-28T19:08:45Z</time>
  <course>337.37</course>
  <speed>0.03</speed>
  <fix>3d</fix>
</trkpt>
<trkpt lat="40.0728318" lon="-105.230598">
  <ele>1592.94</ele>
  <time>2026-08-28T19:08:45Z</time>
  <course>1.91</course>
  <speed>0.14317821063276354</speed>
  <fix>3d</fix>
</trkpt>
<trkpt lat="40.0728319" lon="-105.2305984">
  <ele>1592.78</ele>
  <time>2026-08-28T19:08:45Z</time>
  <course>32.14</course>
  <speed>0.08</speed>
  <fix>3d</fix>
</trkpt>
<trkpt lat="40.0728321" lon="-105.2305977">
  <ele>1592.94</ele>
  <time>2026-08-28T19:08:45Z</time>
  <course>2.03</course>
  <speed>0.27730849247724093</speed>
  <fix>3d</fix>
</trkpt>
<trkpt lat="40.0728321" lon="-105.2305983">
  <ele>1592.78</ele>
  <time>2026-08-28T19:08:45Z</time>
  <course>45.09</course>
  <speed>0.17</speed>
  <fix>3d</fix>
</trkpt>
<trkpt lat="40.0728325" lon="-105.2305971">
  <ele>1592.94</ele>
  <time>2026-08-28T19:08:45Z</time>
  <course>2.06</course>
  <speed>0.4205948168962618</speed>
  <fix>3d</fix>
</trkpt>
<trkpt lat="40.0728323" lon="-105.2305978">
  <ele>1592.78</ele>
  <time>2026-08-28T19:08:45Z</time>
  <course>50.38</course>
  <speed>0.31</speed>
  <fix>3d</fix>
</trkpt>
<trkpt lat="40.072833" lon="-105.2305962">
  <ele>1592.94</ele>
  <time>2026-08-28T19:08:45Z</time>
  <course>1.98</course>
  <speed>0.578013840664737</speed>
  <fix>3d</fix>
</trkpt>
<trkpt lat="40.0728327" lon="-105.2305971">
  <ele>1592.78</ele>
  <time>2026-08-28T19:08:45Z</time>
  <course>51.86</course>
  <speed>0.46</speed>
  <fix>3d</fix>
</trkpt>
<trkpt lat="40.0728337" lon="-105.2305949">
  <ele>1592.94</ele>
  <time>2026-08-28T19:08:45Z</time>
  <course>1.92</course>
  <speed>0.7220110802473879</speed>
  <fix>3d</fix>
</trkpt>
<trkpt lat="40.0728333" lon="-105.2305961">
  <ele>1592.79</ele>
  <time>2026-08-28T19:08:45Z</time>
  <course>52.22</course>
  <speed>0.61</speed>
  <fix>3d</fix>
</trkpt>
<trkpt lat="40.0728345" lon="-105.2305935">
  <ele>1592.94</ele>
  <time>2026-08-28T19:08:45Z</time>
  <course>1.93</course>
  <speed>0.8405950273467003</speed>
  <fix>3d</fix>
</trkpt>
<trkpt lat="40.0728341" lon="-105.2305949">
  <ele>1592.79</ele>
  <time>2026-08-28T19:08:45Z</time>
  <course>52.28</course>
  <speed>0.75</speed>
  <fix>3d</fix>
</trkpt>
<trkpt lat="40.0728355" lon="-105.2305918">
  <ele>1592.94</ele>
  <time>2026-08-28T19:08:45Z</time>
  <course>2.03</course>
  <speed>0.931933474020544</speed>
  <fix>3d</fix>
</trkpt>
<trkpt lat="40.072835" lon="-105.2305934">
  <ele>1592.8</ele>
  <time>2026-08-28T19:08:45Z</time>
  <course>52.42</course>
  <speed>0.87</speed>
  <fix>3d</fix>
</trkpt>
<trkpt lat="40.0728365" lon="-105.23059">
  <ele>1592.94</ele>
  <time>2026-08-28T19:08:45Z</time>
  <course>2.18</course>
  <speed>0.9818350166906862</speed>
  <fix>3d</fix>
</trkpt>
<trkpt lat="40.072836" lon="-105.2305916">
  <ele>1592.8</ele>
  <time>2026-08-28T19:08:45Z</time>
  <course>52.76</course>
  <speed>0.96</speed>
  <fix>3d</fix>
</trkpt>
<trkpt lat="40.0728376" lon="-105.2305882">
  <ele>1592.94</ele>
  <time>2026-08-28T19:08:45Z</time>
  <course>2.75</course>
  <speed>0.9818350166906862</speed>
  <fix>3d</fix>
</trkpt>
<trkpt lat="40.0728371" lon="-105.2305897">
  <ele>1592.8</ele>
  <time>2026-08-28T19:08:45Z</time>
  <course>53.37</course>
  <speed>1.0</speed>
  <fix>3d</fix>
</trkpt>
<trkpt lat="40.0728387" lon="-105.2305864">
  <ele>1592.95</ele>
  <time>2026-08-28T19:08:45Z</time>
  <course>14.61</course>
  <speed>0.9347726996441434</speed>
  <fix>3d</fix>
</trkpt>
<trkpt lat="40.0728382" lon="-105.2305878">
  <ele>1592.81</ele>
  <time>2026-08-28T19:08:45Z</time>
  <course>53.12</course>
  <speed>0.99</speed>
  <fix>3d</fix>
</trkpt>
<trkpt lat="40.0728397" lon="-105.2305846">
  <ele>1592.96</ele>
  <time>2026-08-28T19:08:45Z</time>
  <course>27.26</course>
  <speed>0.9347726996441434</speed>
  <fix>3d</fix>
</trkpt>
<trkpt lat="40.0728392" lon="-105.2305861">
  <ele>1592.82</ele>
  <time>2026-08-28T19:08:45Z</time>
  <course>52.92</course>
  <speed>0.95</speed>
  <fix>3d</fix>
</trkpt>
<trkpt lat="40.0728408" lon="-105.2305828">
  <ele>1592.96</ele>
  <time>2026-08-28T19:08:45Z</time>
  <course>39.61</course>
  <speed>0.9291393867445293</speed>
  <fix>3d</fix>
</trkpt>
<trkpt lat="40.0728402" lon="-105.2305843">
  <ele>1592.82</ele>
  <time>2026-08-28T19:08:45Z</time>
  <course>53.65</course>
  <speed>0.95</speed>
  <fix>3d</fix>
</trkpt>
<trkpt lat="40.0728418" lon="-105.230581">
  <ele>1592.96</ele>
  <time>2026-08-28T19:08:45Z</time>
  <course>51.72</course>
  <speed>0.9457801012920498</speed>
  <fix>3d</fix>
</trkpt>
<trkpt lat="40.0728413" lon="-105.2305825">
  <ele>1592.83</ele>
  <time>2026-08-28T19:08:45Z</time>
  <course>54.3</course>
  <speed>0.95</speed>
  <fix>3d</fix>
</trkpt>
<trkpt lat="40.0728427" lon="-105.2305791">
  <ele>1592.96</ele>
  <time>2026-08-28T19:08:45Z</time>
  <course>54.84</course>
  <speed>0.9441398201537736</speed>
  <fix>3d</fix>
</trkpt>
<trkpt lat="40.0728422" lon="-105.2305806">
  <ele>1592.83</ele>
  <time>2026-08-28T19:08:45Z</time>
  <course>57.13</course>
  <speed>0.96</speed>
  <fix>3d</fix>
</trkpt>
<trkpt lat="40.0728435" lon="-105.2305773">
  <ele>1592.96</ele>
  <time>2026-08-28T19:08:45Z</time>
  <course>54.19</course>
  <speed>0.8947066558375433</speed>
  <fix>3d</fix>
</trkpt>
<trkpt lat="40.0728431" lon="-105.2305787">
  <ele>1592.84</ele>
  <time>2026-08-28T19:08:45Z</time>
  <course>59.91</course>
  <speed>0.94</speed>
  <fix>3d</fix>
</trkpt>
<trkpt lat="40.0728443" lon="-105.2305755">
  <ele>1592.96</ele>
  <time>2026-08-28T19:08:45Z</time>
  <course>54.37</course>
  <speed>0.7917701686727027</speed>
  <fix>3d</fix>
</trkpt>
<trkpt lat="40.072844" lon="-105.2305768">
  <ele>1592.84</ele>
  <time>2026-08-28T19:08:45Z</time>
  <course>60.57</course>
  <speed>0.89</speed>
  <fix>3d</fix>
</trkpt>
<trkpt lat="40.0728449" lon="-105.230574">
  <ele>1592.96</ele>
  <time>2026-08-28T19:08:45Z</time>
  <course>54.62</course>
  <speed>0.6350590523722971</speed>
  <fix>3d</fix>
</trkpt>
<trkpt lat="40.0728447" lon="-105.2305751">
  <ele>1592.84</ele>
  <time>2026-08-28T19:08:45Z</time>
  <course>61.36</course>
  <speed>0.77</speed>
  <fix>3d</fix>
</trkpt>
<trkpt lat="40.0728454" lon="-105.2305728">
  <ele>1592.96</ele>
  <time>2026-08-28T19:08:45Z</time>
  <course>54.79</course>
  <speed>0.4438468204234429</speed>
  <fix>3d</fix>
</trkpt>
<trkpt lat="40.0728453" lon="-105.2305736">
  <ele>1592.85</ele>
  <time>2026-08-28T19:08:45Z</time>
  <course>63.04</course>
  <speed>0.61</speed>
  <fix>3d</fix>
</trkpt>
<trkpt lat="40.0728456" lon="-105.230572">
  <ele>1592.96</ele>
  <time>2026-08-28T19:08:45Z</time>
  <course>54.91</course>
  <speed>0.24331050121192876</speed>
  <fix>3d</fix>
</trkpt>
<trkpt lat="40.0728457" lon="-105.2305725">
  <ele>1592.85</ele>
  <time>2026-08-28T19:08:45Z</time>
  <course>67.37</course>
  <speed>0.41</speed>
  <fix>3d</fix>
</trkpt>
<trkpt lat="40.0728456" lon="-105.2305717">
  <ele>1592.96</ele>
  <time>2026-08-28T19:08:45Z</time>
  <course>54.96</course>
  <speed>0.1063014581273465</speed>
  <fix>3d</fix>
</trkpt>
<trkpt lat="40.0728458" lon="-105.2305718">
  <ele>1592.86</ele>
  <time>2026-08-28T19:08:45Z</time>
  <course>81.91</course>
  <speed>0.21</speed>
  <fix>3d</fix>
</trkpt>
<trkpt lat="40.0728454" lon="-105.2305716">
  <ele>1592.95</ele>
  <time>2026-08-28T19:08:45Z</time>
  <course>54.99</course>
  <speed>0.196468827043885</speed>
  <fix>3d</fix>
</trkpt>
<trkpt lat="40.0728458" lon="-105.2305715">
  <ele>1592.86</ele>
  <time>2026-08-28T19:08:45Z</time>
  <course>152.47</course>
  <speed>0.11</speed>
  <fix>3d</fix>
</trkpt>
<trkpt lat="40.0728451" lon="-105.2305718">
  <ele>1592.95</ele>
  <time>2026-08-28T19:08:45Z</time>
  <course>54.96</course>
  <speed>0.3176476034853718</speed>
  <fix>3d</fix>
</trkpt>
<trkpt lat="40.0728455" lon="-105.2305715">
  <ele>1592.86</ele>
  <time>2026-08-28T19:08:45Z</time>
  <course>201.42</course>
  <speed>0.22</speed>
  <fix>3d</fix>
</trkpt>
<trkpt lat="40.0728446" lon="-105.2305722">
  <ele>1592.96</ele>
  <time>2026-08-28T19:08:45Z</time>
  <course>54.94</course>
  <speed>0.3721558813185679</speed>
  <fix>3d</fix>
</trkpt>
<trkpt lat="40.0728451" lon="-105.2305719">
  <ele>1592.86</ele>
  <time>2026-08-28T19:08:45Z</time>
  <course>210.56</course>
  <speed>0.33</speed>
  <fix>3d</fix>
</trkpt>
<trkpt lat="40.072844" lon="-105.2305726">
  <ele>1592.96</ele>
  <time>2026-08-28T19:08:45Z</time>
  <course>54.91</course>
  <speed>0.38078865529319544</speed>
  <fix>3d</fix>
</trkpt>
<trkpt lat="40.0728445" lon="-105.2305722">
  <ele>1592.87</ele>
  <time>2026-08-28T19:08:45Z</time>
  <course>212.53</course>
  <speed>0.39</speed>
  <fix>3d</fix>
</trkpt>
<trkpt lat="40.0728434" lon="-105.230573">
  <ele>1592.96</ele>
  <time>2026-08-28T19:08:45Z</time>
  <course>47.6</course>
  <speed>0.3921734310225516</speed>
  <fix>3d</fix>
</trkpt>
<trkpt lat="40.072844" lon="-105.2305727">
  <ele>1592.87</ele>
  <time>2026-08-28T19:08:45Z</time>
  <course>208.86</course>
  <speed>0.4</speed>
  <fix>3d</fix>
</trkpt>
<trkpt lat="40.0728428" lon="-105.2305733">
  <ele>1592.96</ele>
  <time>2026-08-28T19:08:45Z</time>
  <course>34.17</course>
  <speed>0.34928498393145957</speed>
  <fix>3d</fix>
</trkpt>
<trkpt lat="40.0728433" lon="-105.2305731">
  <ele>1592.87</ele>
  <time>2026-08-28T19:08:45Z</time>
  <course>205.01</course>
  <speed>0.39</speed>
  <fix>3d</fix>
</trkpt>
<trkpt lat="40.0728422" lon="-105.2305737">
  <ele>1592.97</ele>
  <time>2026-08-28T19:08:45Z</time>
  <course>22.05</course>
  <speed>0.33541019662496846</speed>
  <fix>3d</fix>
</trkpt>
<trkpt lat="40.0728427" lon="-105.2305734">
  <ele>1592.88</ele>
  <time>2026-08-28T19:08:45Z</time>
  <course>206.73</course>
  <speed>0.36</speed>
  <fix>3d</fix>
</trkpt>
<trkpt lat="40.0728417" lon="-105.2305741">
  <ele>1592.97</ele>
  <time>2026-08-28T19:08:45Z</time>
  <course>10.13</course>
  <speed>0.327566787083184</speed>
  <fix>3d</fix>
</trkpt>
<trkpt lat="40.0728421" lon="-105.2305739">
  <ele>1592.88</ele>
  <time>2026-08-28T19:08:45Z</time>
  <course>210.47</course>
  <speed>0.34</speed>
  <fix>3d</fix>
</trkpt>
<trkpt lat="40.0728412" lon="-105.2305746">
  <ele>1592.97</ele>
  <time>2026-08-28T19:08:45Z</time>
  <course>8.6</course>
  <speed>0.354682957019364</speed>
  <fix>3d</fix>
</trkpt>
<trkpt lat="40.0728416" lon="-105.2305743">
  <ele>1592.89</ele>
  <time>2026-08-28T19:08:45Z</time>
  <course>217.76</course>
  <speed>0.35</speed>
  <fix>3d</fix>
</trkpt>
<trkpt lat="40.0728407" lon="-105.2305751">
  <ele>1592.97</ele>
  <time>2026-08-28T19:08:45Z</time>
  <course>9.38</course>
  <speed>0.32202484376209234</speed>
  <fix>3d</fix>
</trkpt>
<trkpt lat="40.0728411" lon="-105.2305748">
  <ele>1592.89</ele>
  <time>2026-08-28T19:08:45Z</time>
  <course>221.52</course>
  <speed>0.35</speed>
  <fix>3d</fix>
</trkpt>
<trkpt lat="40.0728403" lon="-105.2305756">
  <ele>1592.98</ele>
  <time>2026-08-28T19:08:45Z</time>
  <course>9.55</course>
  <speed>0.2745906043549196</speed>
  <fix>3d</fix>
</trkpt>
<trkpt lat="40.0728407" lon="-105.2305754">
  <ele>1592.89</ele>
  <time>2026-08-28T19:08:45Z</time>
  <course>219.3</course>
  <speed>0.31</speed>
  <fix>3d</fix>
</trkpt>
<trkpt lat="40.07284" lon="-105.2305759">
  <ele>1592.98</ele>
  <time>2026-08-28T19:08:45Z</time>
  <course>9.6</course>
  <speed>0.2109502310972899</speed>
  <fix>3d</fix>
</trkpt>
<trkpt lat="40.0728402" lon="-105.2305758">
  <ele>1592.89</ele>
  <time>2026-08-28T19:08:45Z</time>
  <course>217.71</course>
  <speed>0.26</speed>
  <fix>3d</fix>
</trkpt>
<trkpt lat="40.0728397" lon="-105.2305762">
  <ele>1592.98</ele>
  <time>2026-08-28T19:08:45Z</time>
  <course>9.63</course>
  <speed>0.15264337522473748</speed>
  <fix>3d</fix>
</trkpt>
<trkpt lat="40.0728399" lon="-105.2305761">
  <ele>1592.89</ele>
  <time>2026-08-28T19:08:45Z</time>
  <course>217.79</course>
  <speed>0.2</speed>
  <fix>3d</fix>
</trkpt>
<trkpt lat="40.0728395" lon="-105.2305764">
  <ele>1592.98</ele>
  <time>2026-08-28T19:08:45Z</time>
  <course>9.66</course>
  <speed>0.09433981132056603</speed>
  <fix>3d</fix>
</trkpt>
<trkpt lat="40.0728396" lon="-105.2305764">
  <ele>1592.89</ele>
  <time>2026-08-28T19:08:45Z</time>
  <course>221.46</course>
  <speed>0.14</speed>
  <fix>3d</fix>
</trkpt>
<trkpt lat="40.0728394" lon="-105.2305765">
  <ele>1592.98</ele>
  <time>2026-08-28T19:08:45Z</time>
  <course>9.69</course>
  <speed>0.04242640687119285</speed>
  <fix>3d</fix>
</trkpt>
<trkpt lat="40.0728395" lon="-105.2305766">
  <ele>1592.89</ele>
  <time>2026-08-28T19:08:45Z</time>
  <course>233.02</course>
  <speed>0.08</speed>
  <fix>3d</fix>
</trkpt>
<trkpt lat="40.0728394" lon="-105.2305766">
  <ele>1592.98</ele>
  <time>2026-08-28T19:08:45Z</time>
  <course>9.72</course>
  <speed>0.01414213562373095</speed>
  <fix>3d</fix>
</trkpt>
<trkpt lat="40.0728395" lon="-105.2305767">
  <ele>1592.89</ele>
  <time>2026-08-28T19:08:45Z</time>
  <course>269.99</course>
  <speed>0.04</speed>
  <fix>3d</fix>
</trkpt>
<trkpt lat="40.0728395" lon="-105.2305766">
  <ele>1592.98</ele>
  <time>2026-08-28T19:08:45Z</time>
  <course>9.75</course>
  <speed>0.05</speed>
  <fix>3d</fix>
</trkpt>
<trkpt lat="40.0728395" lon="-105.2305768">
  <ele>1592.89</ele>
  <time>2026-08-28T19:08:45Z</time>
  <course>331.43</course>
  <speed>0.05</speed>
  <fix>3d</fix>
</trkpt>
<trkpt lat="40.0728397" lon="-105.2305766">
  <ele>1592.98</ele>
  <time>2026-08-28T19:08:45Z</time>
  <course>9.78</course>
  <speed>0.0824621125123532</speed>
  <fix>3d</fix>
</trkpt>
<trkpt lat="40.0728396" lon="-105.2305768">
  <ele>1592.89</ele>
  <time>2026-08-28T19:08:45Z</time>
  <course>356.36</course>
  <speed>0.08</speed>
  <fix>3d</fix>
</trkpt>
<trkpt lat="40.0728398" lon="-105.2305767">
  <ele>1592.97</ele>
  <time>2026-08-28T19:08:45Z</time>
  <course>9.82</course>
  <speed>0.11704699910719625</speed>
  <fix>3d</fix>
</trkpt>
<trkpt lat="40.0728397" lon="-105.2305768">
  <ele>1592.89</ele>
  <time>2026-08-28T19:08:45Z</time>
  <course>5.72</course>
  <speed>0.12</speed>
  <fix>3d</fix>
</trkpt>
<trkpt lat="40.0728401" lon="-105.2305766">
  <ele>1592.97</ele>
  <time>2026-08-28T19:08:45Z</time>
  <course>9.85</course>
  <speed>0.1392838827718412</speed>
  <fix>3d</fix>
</trkpt>
<trkpt lat="40.07284" lon="-105.2305768">
  <ele>1592.89</ele>
  <time>2026-08-28T19:08:45Z</time>
  <course>10.53</course>
  <speed>0.15</speed>
  <fix>3d</fix>
</trkpt>
<trkpt lat="40.0728404" lon="-105.2305765">
  <ele>1592.98</ele>
  <time>2026-08-28T19:08:45Z</time>
  <course>9.87</course>
  <speed>0.1615549442140351</speed>
  <fix>3d</fix>
</trkpt>
<trkpt lat="40.0728403" lon="-105.2305768">
  <ele>1592.89</ele>
  <time>2026-08-28T19:08:45Z</time>
  <course>13.59</course>
  <speed>0.18</speed>
  <fix>3d</fix>
</trkpt>
<trkpt lat="40.0728407" lon="-105.2305764">
  <ele>1592.98</ele>
  <time>2026-08-28T19:08:45Z</time>
  <course>9.91</course>
  <speed>0.17464249196572978</speed>
  <fix>3d</fix>
</trkpt>
<trkpt lat="40.0728407" lon="-105.2305767">
  <ele>1592.88</ele>
  <time>2026-08-28T19:08:45Z</time>
  <course>15.59</course>
  <speed>0.19</speed>
  <fix>3d</fix>
</trkpt>
<trkpt lat="40.072841" lon="-105.2305763">
  <ele>1592.98</ele>
  <time>2026-08-28T19:08:45Z</time>
  <course>9.96</course>
  <speed>0.17888543819998318</speed>
  <fix>3d</fix>
</trkpt>
<trkpt lat="40.072841" lon="-105.2305766">
  <ele>1592.88</ele>
  <time>2026-08-28T19:08:45Z</time>
  <course>17.08</course>
  <speed>0.2</speed>
  <fix>3d</fix>
</trkpt>
<trkpt lat="40.0728414" lon="-105.2305761">
  <ele>1592.99</ele>
  <time>2026-08-28T19:08:45Z</time>
  <course>10.01</course>
  <speed>0.17</speed>
  <fix>3d</fix>
</trkpt>
<trkpt lat="40.0728414" lon="-105.2305764">
  <ele>1592.88</ele>
  <time>2026-08-28T19:08:45Z</time>
  <course>18.55</course>
  <speed>0.2</speed>
  <fix>3d</fix>
</trkpt>
<trkpt lat="40.0728417" lon="-105.230576">
  <ele>1592.99</ele>
  <time>2026-08-28T19:08:45Z</time>
  <course>10.04</course>
  <speed>0.16124515496597097</speed>
  <fix>3d</fix>
</trkpt>
<trkpt lat="40.0728417" lon="-105.2305763">
  <ele>1592.88</ele>
  <time>2026-08-28T19:08:45Z</time>
  <course>20.22</course>
  <speed>0.2</speed>
  <fix>3d</fix>
</trkpt>
<trkpt lat="40.072842" lon="-105.2305758">
  <ele>1592.99</ele>
  <time>2026-08-28T19:08:45Z</time>
  <course>10.08</course>
  <speed>0.14422205101855956</speed>
  <fix>3d</fix>
</trkpt>
<trkpt lat="40.072842" lon="-105.2305761">
  <ele>1592.88</ele>
  <time>2026-08-28T19:08:45Z</time>
  <course>22.14</course>
  <speed>0.19</speed>
  <fix>3d</fix>
</trkpt>
<trkpt lat="40.0728423" lon="-105.2305757">
  <ele>1592.98</ele>
  <time>2026-08-28T19:08:45Z</time>
  <course>10.1</course>
  <speed>0.12806248474865697</speed>
  <fix>3d</fix>
</trkpt>
<trkpt lat="40.0728423" lon="-105.2305759">
  <ele>1592.88</ele>
  <time>2026-08-28T19:08:45Z</time>
  <course>24.39</course>
  <speed>0.17</speed>
  <fix>3d</fix>
</trkpt>
<trkpt lat="40.0728425" lon="-105.2305755">
  <ele>1592.98</ele>
  <time>2026-08-28T19:08:45Z</time>
  <course>10.13</course>
  <speed>0.1063014581273465</speed>
  <fix>3d</fix>
</trkpt>
<trkpt lat="40.0728426" lon="-105.2305758">
  <ele>1592.87</ele>
  <time>2026-08-28T19:08:45Z</time>
  <course>27.12</course>
  <speed>0.15</speed>
  <fix>3d</fix>
</trkpt>
<trkpt lat="40.0728427" lon="-105.2305754">
  <ele>1592.98</ele>
  <time>2026-08-28T19:08:45Z</time>
  <course>10.16</course>
  <speed>0.09219544457292887</speed>
  <fix>3d</fix>
</trkpt>
<trkpt lat="40.0728429" lon="-105.2305756">
  <ele>1592.87</ele>
  <time>2026-08-28T19:08:45Z</time>
  <course>30.63</course>
  <speed>0.13</speed>
  <fix>3d</fix>
</trkpt>
<trkpt lat="40.0728429" lon="-105.2305752">
  <ele>1592.98</ele>
  <time>2026-08-28T19:08:45Z</time>
  <course>10.33</course>
  <speed>0.0670820393249937</speed>
  <fix>3d</fix>
</trkpt>
<trkpt lat="40.0728431" lon="-105.2305754">
  <ele>1592.87</ele>
  <time>2026-08-28T19:08:45Z</time>
  <course>35.12</course>
  <speed>0.11</speed>
  <fix>3d</fix>
</trkpt>
<trkpt lat="40.072843" lon="-105.2305751">
  <ele>1592.96</ele>
  <time>2026-08-28T19:08:45Z</time>
  <course>10.72</course>
  <speed>0.06082762530298219</speed>
  <fix>3d</fix>
</trkpt>
<trkpt lat="40.0728432" lon="-105.2305753">
  <ele>1592.86</ele>
  <time>2026-08-28T19:08:45Z</time>
  <course>41.0</course>
  <speed>0.08</speed>
  <fix>3d</fix>
</trkpt>
<trkpt lat="40.0728431" lon="-105.230575">
  <ele>1592.9</ele>
  <time>2026-08-28T19:08:45Z</time>
  <course>10.98</course>
  <speed>0.05</speed>
  <fix>3d</fix>
</trkpt>
<trkpt lat="40.0728433" lon="-105.2305751">
  <ele>1592.83</ele>
  <time>2026-08-28T19:08:45Z</time>
  <course>49.91</course>
  <speed>0.06</speed>
  <fix>3d</fix>
</trkpt>
<trkpt lat="40.0728431" lon="-105.2305749">
  <ele>1592.81</ele>
  <time>2026-08-28T19:08:45Z</time>
  <course>11.09</course>
  <speed>0.053851648071345036</speed>
  <fix>3d</fix>
</trkpt>
<trkpt lat="40.0728433" lon="-105.230575">
  <ele>1592.77</ele>
  <time>2026-08-28T19:08:45Z</time>
  <course>65.99</course>
  <speed>0.05</speed>
  <fix>3d</fix>
</trkpt>
<trkpt lat="40.0728431" lon="-105.2305748">
  <ele>1592.71</ele>
  <time>2026-08-28T19:08:45Z</time>
  <course>11.2</course>
  <speed>0.0565685424949238</speed>
  <fix>3d</fix>
</trkpt>
<trkpt lat="40.0728433" lon="-105.2305749">
  <ele>1592.67</ele>
  <time>2026-08-28T19:08:45Z</time>
  <course>92.71</course>
  <speed>0.04</speed>
  <fix>3d</fix>
</trkpt>
<trkpt lat="40.0728431" lon="-105.2305747">
  <ele>1592.61</ele>
  <time>2026-08-28T19:08:45Z</time>
  <course>11.26</course>
  <speed>0.07211102550927978</speed>
  <fix>3d</fix>
</trkpt>
<trkpt lat="40.0728433" lon="-105.2305748">
  <ele>1592.57</ele>
  <time>2026-08-28T19:08:45Z</time>
  <course>120.76</course>
  <speed>0.04</speed>
  <fix>3d</fix>
</trkpt>
<trkpt lat="40.0728431" lon="-105.2305746">
  <ele>1592.49</ele>
  <time>2026-08-28T19:08:45Z</time>
  <course>11.31</course>
  <speed>0.08062257748298549</speed>
  <fix>3d</fix>
</trkpt>
<trkpt lat="40.0728433" lon="-105.2305747">
  <ele>1592.46</ele>
  <time>2026-08-28T19:08:45Z</time>
  <course>139.54</course>
  <speed>0.05</speed>
  <fix>3d</fix>
</trkpt>
<trkpt lat="40.072843" lon="-105.2305745">
  <ele>1592.38</ele>
  <time>2026-08-28T19:08:45Z</time>
  <course>11.34</course>
  <speed>0.0854400374531753</speed>
  <fix>3d</fix>
</trkpt>
<trkpt lat="40.0728433" lon="-105.2305746">
  <ele>1592.35</ele>
  <time>2026-08-28T19:08:45Z</time>
  <course>151.5</course>
  <speed>0.06</speed>
  <fix>3d</fix>
</trkpt>
<trkpt lat="40.0728429" lon="-105.2305745">
  <ele>1592.27</ele>
  <time>2026-08-28T19:08:45Z</time>
  <course>11.34</course>
  <speed>0.09486832980505139</speed>
  <fix>3d</fix>
</trkpt>
<trkpt lat="40.0728432" lon="-105.2305746">
  <ele>1592.24</ele>
  <time>2026-08-28T19:08:45Z</time>
  <course>159.86</course>
  <speed>0.07</speed>
  <fix>3d</fix>
</trkpt>
<trkpt lat="40.0728427" lon="-105.2305744">
  <ele>1592.16</ele>
  <time>2026-08-28T19:08:45Z</time>
  <course>11.39</course>
  <speed>0.09219544457292887</speed>
  <fix>3d</fix>
</trkpt>
<trkpt lat="40.0728431" lon="-105.2305746">
  <ele>1592.13</ele>
  <time>2026-08-28T19:08:45Z</time>
  <course>166.8</course>
  <speed>0.07</speed>
  <fix>3d</fix>
</trkpt>
<trkpt lat="40.0728426" lon="-105.2305744">
  <ele>1592.05</ele>
  <time>2026-08-28T19:08:45Z</time>
  <course>11.38</course>
  <speed>0.09055385138137417</speed>
  <fix>3d</fix>
</trkpt>
<trkpt lat="40.0728429" lon="-105.2305745">
  <ele>1592.02</ele>
  <time>2026-08-28T19:08:45Z</time>
  <course>173.17</course>
  <speed>0.07</speed>
  <fix>3d</fix>
</trkpt>
<trkpt lat="40.0728425" lon="-105.2305744">
  <ele>1591.95</ele>
  <time>2026-08-28T19:08:45Z</time>
  <course>11.4</course>
  <speed>0.09</speed>
  <fix>3d</fix>
</trkpt>
<trkpt lat="40.0728427" lon="-105.2305744">
  <ele>1591.91</ele>
  <time>2026-08-28T19:08:45Z</time>
  <course>179.36</course>
  <speed>0.08</speed>
  <fix>3d</fix>
</trkpt>
<trkpt lat="40.0728424" lon="-105.2305744">
  <ele>1591.85</ele>
  <time>2026-08-28T19:08:45Z</time>
  <course>11.39</course>
  <speed>0.09</speed>
  <fix>3d</fix>
</trkpt>
<trkpt lat="40.0728426" lon="-105.2305745">
  <ele>1591.82</ele>
  <time>2026-08-28T19:08:45Z</time>
  <course>185.32</course>
  <speed>0.08</speed>
  <fix>3d</fix>
</trkpt>
<trkpt lat="40.0728422" lon="-105.2305745">
  <ele>1591.74</ele>
  <time>2026-08-28T19:08:45Z</time>
  <course>11.4</course>
  <speed>0.08</speed>
  <fix>3d</fix>
</trkpt>
<trkpt lat="40.0728425" lon="-105.2305746">
  <ele>1591.71</ele>
  <time>2026-08-28T19:08:45Z</time>
  <course>190.94</course>
  <speed>0.07</speed>
  <fix>3d</fix>
</trkpt>
<trkpt lat="40.0728421" lon="-105.2305745">
  <ele>1591.64</ele>
  <time>2026-08-28T19:08:45Z</time>
  <course>11.38</course>
  <speed>0.08</speed>
  <fix>3d</fix>
</trkpt>
<trkpt lat="40.0728424" lon="-105.2305746">
  <ele>1591.61</ele>
  <time>2026-08-28T19:08:45Z</time>
  <course>196.86</course>
  <speed>0.07</speed>
  <fix>3d</fix>
</trkpt>
<trkpt lat="40.072842" lon="-105.2305745">
  <ele>1591.54</ele>
  <time>2026-08-28T19:08:45Z</time>
  <course>11.39</course>
  <speed>0.07071067811865475</speed>
  <fix>3d</fix>
</trkpt>
<trkpt lat="40.0728422" lon="-105.2305746">
  <ele>1591.51</ele>
  <time>2026-08-28T19:08:45Z</time>
  <course>203.16</course>
  <speed>0.06</speed>
  <fix>3d</fix>
</trkpt>
<trkpt lat="40.0728419" lon="-105.2305746">
  <ele>1591.44</ele>
  <time>2026-08-28T19:08:45Z</time>
  <course>11.4</course>
  <speed>0.06082762530298219</speed>
  <fix>3d</fix>
</trkpt>
<trkpt lat="40.0728421" lon="-105.2305746">
  <ele>1591.4</ele>
  <time>2026-08-28T19:08:45Z</time>
  <course>209.81</course>
  <speed>0.06</speed>
  <fix>3d</fix>
</trkpt>
<trkpt lat="40.0728419" lon="-105.2305746">
  <ele>1591.33</ele>
  <time>2026-08-28T19:08:45Z</time>
  <course>11.39</course>
  <speed>0.05099019513592785</speed>
  <fix>3d</fix>
</trkpt>
<trkpt lat="40.072842" lon="-105.2305747">
  <ele>1591.31</ele>
  <time>2026-08-28T19:08:45Z</time>
  <course>217.02</course>
  <speed>0.05</speed>
  <fix>3d</fix>
</trkpt>
<trkpt lat="40.0728418" lon="-105.2305747">
  <ele>1591.23</ele>
  <time>2026-08-28T19:08:45Z</time>
  <course>11.38</course>
  <speed>0.0412310562561766</speed>
  <fix>3d</fix>
</trkpt>
<trkpt lat="40.072842" lon="-105.2305748">
  <ele>1591.21</ele>
  <time>2026-08-28T19:08:45Z</time>
  <course>225.52</course>
  <speed>0.05</speed>
  <fix>3d</fix>
</trkpt>
<trkpt lat="40.0728418" lon="-105.2305748">
  <ele>1591.13</ele>
  <time>2026-08-28T19:08:45Z</time>
  <course>11.39</course>
  <speed>0.0316227766016838</speed>
  <fix>3d</fix>
</trkpt>
<trkpt lat="40.0728419" lon="-105.2305748">
  <ele>1591.11</ele>
  <time>2026-08-28T19:08:45Z</time>
  <course>235.94</course>
  <speed>0.04</speed>
  <fix>3d</fix>
</trkpt>
<trkpt lat="40.0728418" lon="-105.2305748">
  <ele>1591.03</ele>
  <time>2026-08-28T19:08:45Z</time>
  <course>11.38</course>
  <speed>0.022360679774997897</speed>
  <fix>3d</fix>
</trkpt>
<trkpt lat="40.0728419" lon="-105.2305749">
  <ele>1591.02</ele>
  <time>2026-08-28T19:08:45Z</time>
  <course>248.1</course>
  <speed>0.04</speed>
  <fix>3d</fix>
</trkpt>
<trkpt lat="40.0728418" lon="-105.2305749">
  <ele>1590.93</ele>
  <time>2026-08-28T19:08:45Z</time>
  <course>11.37</course>
  <speed>0.01414213562373095</speed>
  <fix>3d</fix>
</trkpt>
<trkpt lat="40.0728419" lon="-105.230575">
  <ele>1590.91</ele>
  <time>2026-08-28T19:08:45Z</time>
  <course>262.04</course>
  <speed>0.03</speed>
  <fix>3d</fix>
</trkpt>
<trkpt lat="40.0728418" lon="-105.230575">
  <ele>1590.84</ele>
  <time>2026-08-28T19:08:45Z</time>
  <course>11.39</course>
  <speed>0.01</speed>
  <fix>3d</fix>
</trkpt>
<trkpt lat="40.0728419" lon="-105.2305751">
  <ele>1590.82</ele>
  <time>2026-08-28T19:08:45Z</time>
  <course>277.36</course>
  <speed>0.03</speed>
  <fix>3d</fix>
</trkpt>
<trkpt lat="40.0728418" lon="-105.230575">
  <ele>1590.74</ele>
  <time>2026-08-28T19:08:45Z</time>
  <course>11.38</course>
  <speed>0.01</speed>
  <fix>3d</fix>
</trkpt>
<trkpt lat="40.0728419" lon="-105.2305752">
  <ele>1590.72</ele>
  <time>2026-08-28T19:08:45Z</time>
  <course>291.51</course>
  <speed>0.03</speed>
  <fix>3d</fix>
</trkpt>
<trkpt lat="40.0728418" lon="-105.2305751">
  <ele>1590.63</ele>
  <time>2026-08-28T19:08:45Z</time>
  <course>11.38</course>
  <speed>0.0</speed>
  <fix>3d</fix>
</trkpt>
<trkpt lat="40.0728419" lon="-105.2305753">
  <ele>1590.63</ele>
  <time>2026-08-28T19:08:45Z</time>
  <course>302.8</course>
  <speed>0.03</speed>
  <fix>3d</fix>
</trkpt>
<trkpt lat="40.0728418" lon="-105.2305752">
  <ele>1590.53</ele>
  <time>2026-08-28T19:08:45Z</time>
  <course>11.38</course>
  <speed>0.01</speed>
  <fix>3d</fix>
</trkpt>
<trkpt lat="40.0728419" lon="-105.2305753">
  <ele>1590.53</ele>
  <time>2026-08-28T19:08:45Z</time>
  <course>311.67</course>
  <speed>0.04</speed>
  <fix>3d</fix>
</trkpt>
<trkpt lat="40.0728419" lon="-105.2305752">
  <ele>1590.43</ele>
  <time>2026-08-28T19:08:45Z</time>
  <course>11.38</course>
  <speed>0.01</speed>
  <fix>3d</fix>
</trkpt>
<trkpt lat="40.0728419" lon="-105.2305754">
  <ele>1590.42</ele>
  <time>2026-08-28T19:08:45Z</time>
  <course>319.14</course>
  <speed>0.04</speed>
  <fix>3d</fix>
</trkpt>
<trkpt lat="40.0728419" lon="-105.2305753">
  <ele>1590.33</ele>
  <time>2026-08-28T19:08:45Z</time>
  <course>11.38</course>
  <speed>0.01</speed>
  <fix>3d</fix>
</trkpt>
<trkpt lat="40.072842" lon="-105.2305755">
  <ele>1590.33</ele>
  <time>2026-08-28T19:08:45Z</time>
  <course>325.65</course>
  <speed>0.04</speed>
  <fix>3d</fix>
</trkpt>
<trkpt lat="40.072842" lon="-105.2305753">
  <ele>1590.24</ele>
  <time>2026-08-28T19:08:45Z</time>
  <course>11.38</course>
  <speed>0.01</speed>
  <fix>3d</fix>
</trkpt>
<trkpt lat="40.072842" lon="-105.2305756">
  <ele>1590.23</ele>
  <time>2026-08-28T19:08:45Z</time>
  <course>331.62</course>
  <speed>0.03</speed>
  <fix>3d</fix>
</trkpt>
<trkpt lat="40.072842" lon="-105.2305753">
  <ele>1590.14</ele>
  <time>2026-08-28T19:08:45Z</time>
  <course>11.37</course>
  <speed>0.01414213562373095</speed>
  <fix>3d</fix>
</trkpt>
<trkpt lat="40.072842" lon="-105.2305756">
  <ele>1590.13</ele>
  <time>2026-08-28T19:08:45Z</time>
  <course>336.9</course>
  <speed>0.03</speed>
  <fix>3d</fix>
</trkpt>
<trkpt lat="40.0728421" lon="-105.2305754">
  <ele>1590.04</ele>
  <time>2026-08-28T19:08:45Z</time>
  <course>11.39</course>
  <speed>0.01414213562373095</speed>
  <fix>3d</fix>
</trkpt>
<trkpt lat="40.0728421" lon="-105.2305756">
  <ele>1590.04</ele>
  <time>2026-08-28T19:08:45Z</time>
  <course>341.75</course>
  <speed>0.03</speed>
  <fix>3d</fix>
</trkpt>
<trkpt lat="40.0728421" lon="-105.2305754">
  <ele>1589.94</ele>
  <time>2026-08-28T19:08:45Z</time>
  <course>11.4</course>
  <speed>0.01414213562373095</speed>
  <fix>3d</fix>
</trkpt>
<trkpt lat="40.0728422" lon="-105.2305756">
  <ele>1589.94</ele>
  <time>2026-08-28T19:08:45Z</time>
  <course>347.21</course>
  <speed>0.03</speed>
  <fix>3d</fix>
</trkpt>
<trkpt lat="40.0728422" lon="-105.2305754">
  <ele>1589.84</ele>
  <time>2026-08-28T19:08:45Z</time>
  <course>11.4</course>
  <speed>0.02</speed>
  <fix>3d</fix>
</trkpt>
<trkpt lat="40.0728423" lon="-105.2305756">
  <ele>1589.84</ele>
  <time>2026-08-28T19:08:45Z</time>
  <course>353.72</course>
  <speed>0.03</speed>
  <fix>3d</fix>
</trkpt>
<trkpt lat="40.0728422" lon="-105.2305754">
  <ele>1589.74</ele>
  <time>2026-08-28T19:08:45Z</time>
  <course>11.4</course>
  <speed>0.02</speed>
  <fix>3d</fix>
</trkpt>
<trkpt lat="40.0728423" lon="-105.2305756">
  <ele>1589.74</ele>
  <time>2026-08-28T19:08:45Z</time>
  <course>1.6</course>
  <speed>0.02</speed>
  <fix>3d</fix>
</trkpt>
<trkpt lat="40.0728422" lon="-105.2305754">
  <ele>1589.64</ele>
  <time>2026-08-28T19:08:45Z</time>
  <course>11.41</course>
  <speed>0.02</speed>
  <fix>3d</fix>
</trkpt>
<trkpt lat="40.0728424" lon="-105.2305756">
  <ele>1589.64</ele>
  <time>2026-08-28T19:08:45Z</time>
  <course>9.72</course>
  <speed>0.02</speed>
  <fix>3d</fix>
</trkpt>
<trkpt lat="40.0728423" lon="-105.2305754">
  <ele>1589.54</ele>
  <time>2026-08-28T19:08:45Z</time>
  <course>11.39</course>
  <speed>0.02</speed>
  <fix>3d</fix>
</trkpt>
<trkpt lat="40.0728424" lon="-105.2305756">
  <ele>1589.55</ele>
  <time>2026-08-28T19:08:45Z</time>
  <course>17.78</course>
  <speed>0.02</speed>
  <fix>3d</fix>
</trkpt>
<trkpt lat="40.0728423" lon="-105.2305754">
  <ele>1589.44</ele>
  <time>2026-08-28T19:08:45Z</time>
  <course>11.41</course>
  <speed>0.03</speed>
  <fix>3d</fix>
</trkpt>
<trkpt lat="40.0728425" lon="-105.2305756">
  <ele>1589.45</ele>
  <time>2026-08-28T19:08:45Z</time>
  <course>26.76</course>
  <speed>0.01</speed>
  <fix>3d</fix>
</trkpt>
<trkpt lat="40.0728423" lon="-105.2305754">
  <ele>1589.34</ele>
  <time>2026-08-28T19:08:45Z</time>
  <course>11.41</course>
  <speed>0.0316227766016838</speed>
  <fix>3d</fix>
</trkpt>
<trkpt lat="40.0728425" lon="-105.2305756">
  <ele>1589.35</ele>
  <time>2026-08-28T19:08:45Z</time>
  <course>38.86</course>
  <speed>0.01</speed>
  <fix>3d</fix>
</trkpt>
<trkpt lat="40.0728423" lon="-105.2305754">
  <ele>1589.24</ele>
  <time>2026-08-28T19:08:45Z</time>
  <course>11.4</course>
  <speed>0.0316227766016838</speed>
  <fix>3d</fix>
</trkpt>
<trkpt lat="40.0728425" lon="-105.2305756">
  <ele>1589.25</ele>
  <time>2026-08-28T19:08:45Z</time>
  <course>54.35</course>
  <speed>0.01</speed>
  <fix>3d</fix>
</trkpt>
<trkpt lat="40.0728424" lon="-105.2305754">
  <ele>1589.14</ele>
  <time>2026-08-28T19:08:45Z</time>
  <course>11.41</course>
  <speed>0.03605551275463989</speed>
  <fix>3d</fix>
</trkpt>
<trkpt lat="40.0728425" lon="-105.2305756">
  <ele>1589.14</ele>
  <time>2026-08-28T19:08:45Z</time>
  <course>71.95</course>
  <speed>0.01</speed>
  <fix>3d</fix>
</trkpt>
<trkpt lat="40.0728424" lon="-105.2305753">
  <ele>1589.05</ele>
  <time>2026-08-28T19:08:45Z</time>
  <course>11.4</course>
  <speed>0.03605551275463989</speed>
  <fix>3d</fix>
</trkpt>
<trkpt lat="40.0728425" lon="-105.2305756">
  <ele>1589.05</ele>
  <time>2026-08-28T19:08:45Z</time>
  <course>92.49</course>
  <speed>0.01</speed>
  <fix>3d</fix>
</trkpt>
<trkpt lat="40.0728424" lon="-105.2305753">
  <ele>1588.95</ele>
  <time>2026-08-28T19:08:45Z</time>
  <course>11.4</course>
  <speed>0.0282842712474619</speed>
  <fix>3d</fix>
</trkpt>
<trkpt lat="40.0728425" lon="-105.2305756">
  <ele>1588.96</ele>
  <time>2026-08-28T19:08:45Z</time>
  <course>110.67</course>
  <speed>0.01</speed>
  <fix>3d</fix>
</trkpt>
<trkpt lat="40.0728424" lon="-105.2305753">
  <ele>1588.85</ele>
  <time>2026-08-28T19:08:45Z</time>
  <course>11.41</course>
  <speed>0.0282842712474619</speed>
  <fix>3d</fix>
</trkpt>
<trkpt lat="40.0728425" lon="-105.2305756">
  <ele>1588.86</ele>
  <time>2026-08-28T19:08:45Z</time>
  <course>123.14</course>
  <speed>0.01</speed>
  <fix>3d</fix>
</trkpt>
<trkpt lat="40.0728424" lon="-105.2305753">
  <ele>1588.74</ele>
  <time>2026-08-28T19:08:45Z</time>
  <course>11.4</course>
  <speed>0.03605551275463989</speed>
  <fix>3d</fix>
</trkpt>
<trkpt lat="40.0728425" lon="-105.2305756">
  <ele>1588.76</ele>
  <time>2026-08-28T19:08:45Z</time>
  <course>131.84</course>
  <speed>0.01</speed>
  <fix>3d</fix>
</trkpt>
<trkpt lat="40.0728424" lon="-105.2305753">
  <ele>1588.64</ele>
  <time>2026-08-28T19:08:45Z</time>
  <course>11.4</course>
  <speed>0.03605551275463989</speed>
  <fix>3d</fix>
</trkpt>
<trkpt lat="40.0728425" lon="-105.2305755">
  <ele>1588.65</ele>
  <time>2026-08-28T19:08:45Z</time>
  <course>137.73</course>
  <speed>0.01</speed>
  <fix>3d</fix>
</trkpt>
<trkpt lat="40.0728423" lon="-105.2305753">
  <ele>1588.54</ele>
  <time>2026-08-28T19:08:45Z</time>
  <course>11.41</course>
  <speed>0.03605551275463989</speed>
  <fix>3d</fix>
</trkpt>
<trkpt lat="40.0728425" lon="-105.2305755">
  <ele>1588.56</ele>
  <time>2026-08-28T19:08:45Z</time>
  <course>141.66</course>
  <speed>0.01</speed>
  <fix>3d</fix>
</trkpt>
<trkpt lat="40.0728423" lon="-105.2305753">
  <ele>1588.44</ele>
  <time>2026-08-28T19:08:45Z</time>
  <course>11.4</course>
  <speed>0.03605551275463989</speed>
  <fix>3d</fix>
</trkpt>
<trkpt lat="40.0728425" lon="-105.2305755">
  <ele>1588.46</ele>
  <time>2026-08-28T19:08:45Z</time>
  <course>144.33</course>
  <speed>0.01</speed>
  <fix>3d</fix>
</trkpt>
<trkpt lat="40.0728423" lon="-105.2305753">
  <ele>1588.34</ele>
  <time>2026-08-28T19:08:45Z</time>
  <course>11.39</course>
  <speed>0.03605551275463989</speed>
  <fix>3d</fix>
</trkpt>
<trkpt lat="40.0728425" lon="-105.2305755">
  <ele>1588.36</ele>
  <time>2026-08-28T19:08:45Z</time>
  <course>145.96</course>
  <speed>0.01</speed>
  <fix>3d</fix>
</trkpt>
<trkpt lat="40.0728423" lon="-105.2305753">
  <ele>1588.25</ele>
  <time>2026-08-28T19:08:45Z</time>
  <course>11.41</course>
  <speed>0.03605551275463989</speed>
  <fix>3d</fix>
</trkpt>
<trkpt lat="40.0728425" lon="-105.2305754">
  <ele>1588.26</ele>
  <time>2026-08-28T19:08:45Z</time>
  <course>148.91</course>
  <speed>0.01</speed>
  <fix>3d</fix>
</trkpt>
<trkpt lat="40.0728423" lon="-105.2305752">
  <ele>1588.14</ele>
  <time>2026-08-28T19:08:45Z</time>
  <course>11.41</course>
  <speed>0.03605551275463989</speed>
  <fix>3d</fix>
</trkpt>
<trkpt lat="40.0728424" lon="-105.2305753">
  <ele>1588.15</ele>
  <time>2026-08-28T19:08:45Z</time>
  <course>152.81</course>
  <speed>0.01</speed>
  <fix>3d</fix>
</trkpt>
<trkpt lat="40.0728423" lon="-105.2305752">
  <ele>1588.04</ele>
  <time>2026-08-28T19:08:45Z</time>
  <course>11.4</course>
  <speed>0.03605551275463989</speed>
  <fix>3d</fix>
</trkpt>
<trkpt lat="40.0728424" lon="-105.2305753">
  <ele>1588.06</ele>
  <time>2026-08-28T19:08:45Z</time>
  <course>155.51</course>
  <speed>0.01</speed>
  <fix>3d</fix>
</trkpt>
<trkpt lat="40.0728422" lon="-105.2305752">
  <ele>1587.94</ele>
  <time>2026-08-28T19:08:45Z</time>
  <course>11.4</course>
  <speed>0.03605551275463989</speed>
  <fix>3d</fix>
</trkpt>
<trkpt lat="40.0728424" lon="-105.2305753">
  <ele>1587.96</ele>
  <time>2026-08-28T19:08:45Z</time>
  <course>157.76</course>
  <speed>0.01</speed>
  <fix>3d</fix>
</trkpt>
<trkpt lat="40.0728422" lon="-105.2305752">
  <ele>1587.84</ele>
  <time>2026-08-28T19:08:45Z</time>
  <course>11.41</course>
  <speed>0.03605551275463989</speed>
  <fix>3d</fix>
</trkpt>
<trkpt lat="40.0728424" lon="-105.2305753">
  <ele>1587.86</ele>
  <time>2026-08-28T19:08:45Z</time>
  <course>162.12</course>
  <speed>0.01</speed>
  <fix>3d</fix>
</trkpt>
<trkpt lat="40.0728422" lon="-105.2305752">
  <ele>1587.74</ele>
  <time>2026-08-28T19:08:46Z</time>
  <course>11.4</course>
  <speed>0.022360679774997897</speed>
  <fix>3d</fix>
</trkpt>
<trkpt lat="40.0728423" lon="-105.2305753">
  <ele>1587.76</ele>
  <time>2026-08-28T19:08:46Z</time>
  <course>166.8</course>
  <speed>0.01</speed>
  <fix>3d</fix>
</trkpt>
<trkpt lat="40.0728422" lon="-105.2305752">
  <ele>1587.64</ele>
  <time>2026-08-28T19:08:46Z</time>
  <course>11.39</course>
  <speed>0.022360679774997897</speed>
  <fix>3d</fix>
</trkpt>
<trkpt lat="40.0728423" lon="-105.2305753">
  <ele>1587.65</ele>
  <time>2026-08-28T19:08:46Z</time>
  <course>170.8</course>
  <speed>0.01</speed>
  <fix>3d</fix>
</trkpt>
<trkpt lat="40.0728422" lon="-105.2305752">
  <ele>1587.54</ele>
  <time>2026-08-28T19:08:46Z</time>
  <course>11.4</course>
  <speed>0.022360679774997897</speed>
  <fix>3d</fix>
</trkpt>
<trkpt lat="40.0728423" lon="-105.2305753">
  <ele>1587.56</ele>
  <time>2026-08-28T19:08:46Z</time>
  <course>177.77</course>
  <speed>0.01</speed>
  <fix>3d</fix>
</trkpt>
<trkpt lat="40.0728422" lon="-105.2305752">
  <ele>1587.44</ele>
  <time>2026-08-28T19:08:46Z</time>
  <course>11.4</course>
  <speed>0.022360679774997897</speed>
  <fix>3d</fix>
</trkpt>
<trkpt lat="40.0728423" lon="-105.2305753">
  <ele>1587.46</ele>
  <time>2026-08-28T19:08:46Z</time>
  <course>184.83</course>
  <speed>0.01</speed>
  <fix>3d</fix>
</trkpt>
<trkpt lat="40.0728422" lon="-105.2305752">
  <ele>1587.34</ele>
  <time>2026-08-28T19:08:46Z</time>
  <course>11.38</course>
  <speed>0.022360679774997897</speed>
  <fix>3d</fix>
</trkpt>
<trkpt lat="40.0728423" lon="-105.2305753">
  <ele>1587.36</ele>
  <time>2026-08-28T19:08:46Z</time>
  <course>190.02</course>
  <speed>0.0</speed>
  <fix>3d</fix>
</trkpt>
<trkpt lat="40.0728421" lon="-105.2305752">
  <ele>1587.24</ele>
  <time>2026-08-28T19:08:46Z</time>
  <course>11.4</course>
  <speed>0.022360679774997897</speed>
  <fix>3d</fix>
</trkpt>
<trkpt lat="40.0728422" lon="-105.2305753">
  <ele>1587.27</ele>
  <time>2026-08-28T19:08:46Z</time>
  <course>198.83</course>
  <speed>0.0</speed>
  <fix>3d</fix>
</trkpt>
<trkpt lat="40.0728421" lon="-105.2305752">
  <ele>1587.14</ele>
  <time>2026-08-28T19:08:46Z</time>
  <course>11.39</course>
  <speed>0.022360679774997897</speed>
  <fix>3d</fix>
</trkpt>
<trkpt lat="40.0728421" lon="-105.2305753">
  <ele>1587.16</ele>
  <time>2026-08-28T19:08:46Z</time>
  <course>210.51</course>
  <speed>0.0</speed>
  <fix>3d</fix>
</trkpt>
<trkpt lat="40.0728421" lon="-105.2305752">
  <ele>1587.04</ele>
  <time>2026-08-28T19:08:46Z</time>
  <course>11.39</course>
  <speed>0.01414213562373095</speed>
  <fix>3d</fix>
</trkpt>
<trkpt lat="40.0728421" lon="-105.2305753">
  <ele>1587.07</ele>
  <time>2026-08-28T19:08:46Z</time>
  <course>222.02</course>
  <speed>0.0</speed>
  <fix>3d</fix>
</trkpt>
<trkpt lat="40.0728421" lon="-105.2305752">
  <ele>1586.94</ele>
  <time>2026-08-28T19:08:46Z</time>
  <course>11.4</course>
  <speed>0.01414213562373095</speed>
  <fix>3d</fix>
</trkpt>
<trkpt lat="40.0728421" lon="-105.2305753">
  <ele>1586.97</ele>
  <time>2026-08-28T19:08:46Z</time>
  <course>241.11</course>
  <speed>0.0</speed>
  <fix>3d</fix>
</trkpt>
<trkpt lat="40.0728421" lon="-105.2305752">
  <ele>1586.84</ele>
  <time>2026-08-28T19:08:46Z</time>
  <course>11.4</course>
  <speed>0.01414213562373095</speed>
  <fix>3d</fix>
</trkpt>
<trkpt lat="40.0728421" lon="-105.2305753">
  <ele>1586.87</ele>
  <time>2026-08-28T19:08:46Z</time>
  <course>267.27</course>
  <speed>0.0</speed>
  <fix>3d</fix>
</trkpt>
<trkpt lat="40.0728421" lon="-105.2305752">
  <ele>1586.74</ele>
  <time>2026-08-28T19:08:46Z</time>
  <course>11.39</course>
  <speed>0.01414213562373095</speed>
  <fix>3d</fix>
</trkpt>
<trkpt lat="40.0728421" lon="-105.2305753">
  <ele>1586.77</ele>
  <time>2026-08-28T19:08:46Z</time>
  <course>289.46</course>
  <speed>0.0</speed>
  <fix>3d</fix>
</trkpt>
<trkpt lat="40.0728421" lon="-105.2305752">
  <ele>1586.64</ele>
  <time>2026-08-28T19:08:46Z</time>
  <course>11.39</course>
  <speed>0.01414213562373095</speed>
  <fix>3d</fix>
</trkpt>
<trkpt lat="40.0728421" lon="-105.2305753">
  <ele>1586.66</ele>
  <time>2026-08-28T19:08:46Z</time>
  <course>305.32</course>
  <speed>0.0</speed>
  <fix>3d</fix>
</trkpt>
<trkpt lat="40.0728421" lon="-105.2305752">
  <ele>1586.54</ele>
  <time>2026-08-28T19:08:46Z</time>
  <course>11.39</course>
  <speed>0.01414213562373095</speed>
  <fix>3d</fix>
</trkpt>
<trkpt lat="40.0728421" lon="-105.2305753">
  <ele>1586.57</ele>
  <time>2026-08-28T19:08:46Z</time>
  <course>316.7</course>
  <speed>0.0</speed>
  <fix>3d</fix>
</trkpt>
<trkpt lat="40.0728421" lon="-105.2305752">
  <ele>1586.44</ele>
  <time>2026-08-28T19:08:46Z</time>
  <course>11.39</course>
  <speed>0.01414213562373095</speed>
  <fix>3d</fix>
</trkpt>
<trkpt lat="40.0728421" lon="-105.2305753">
  <ele>1586.47</ele>
  <time>2026-08-28T19:08:46Z</time>
  <course>324.05</course>
  <speed>0.0</speed>
  <fix>3d</fix>
</trkpt>
<trkpt lat="40.0728421" lon="-105.2305752">
  <ele>1586.34</ele>
  <time>2026-08-28T19:08:46Z</time>
  <course>11.39</course>
  <speed>0.01</speed>
  <fix>3d</fix>
</trkpt>
<trkpt lat="40.0728421" lon="-105.2305753">
  <ele>1586.37</ele>
  <time>2026-08-28T19:08:46Z</time>
  <course>329.22</course>
  <speed>0.01</speed>
  <fix>3d</fix>
</trkpt>
<trkpt lat="40.0728421" lon="-105.2305752">
  <ele>1586.24</ele>
  <time>2026-08-28T19:08:46Z</time>
  <course>11.4</course>
  <speed>0.01</speed>
  <fix>3d</fix>
</trkpt>
<trkpt lat="40.0728421" lon="-105.2305753">
  <ele>1586.27</ele>
  <time>2026-08-28T19:08:46Z</time>
  <course>332.95</course>
  <speed>0.01</speed>
  <fix>3d</fix>
</trkpt>
<trkpt lat="40.0728421" lon="-105.2305752">
  <ele>1586.14</ele>
  <time>2026-08-28T19:08:46Z</time>
  <course>11.37</course>
  <speed>0.01</speed>
  <fix>3d</fix>
</trkpt>
<trkpt lat="40.0728421" lon="-105.2305753">
  <ele>1586.17</ele>
  <time>2026-08-28T19:08:46Z</time>
  <course>335.17</course>
  <speed>0.01</speed>
  <fix>3d</fix>
</trkpt>
<trkpt lat="40.0728421" lon="-105.2305752">
  <ele>1586.12</ele>
  <time>2026-08-28T19:08:46Z</time>
  <course>11.39</course>
  <speed>0.02</speed>
  <fix>3d</fix>
</trkpt>
<trkpt lat="40.0728421" lon="-105.2305753">
  <ele>1586.1</ele>
  <time>2026-08-28T19:08:46Z</time>
  <course>298.32</course>
  <speed>0.01</speed>
  <fix>3d</fix>
</trkpt>
<trkpt lat="40.0728421" lon="-105.2305752">
  <ele>1586.14</ele>
  <time>2026-08-28T19:08:46Z</time>
  <course>11.43</course>
  <speed>0.0282842712474619</speed>
  <fix>3d</fix>
</trkpt>
<trkpt lat="40.0728421" lon="-105.2305754">
  <ele>1586.08</ele>
  <time>2026-08-28T19:08:46Z</time>
  <course>280.34</course>
  <speed>0.01</speed>
  <fix>3d</fix>
</trkpt>
<trkpt lat="40.0728421" lon="-105.2305752">
  <ele>1586.14</ele>
  <time>2026-08-28T19:08:46Z</time>
  <course>11.46</course>
  <speed>0.0282842712474619</speed>
  <fix>3d</fix>
</trkpt>
<trkpt lat="40.0728421" lon="-105.2305755">
  <ele>1586.09</ele>
  <time>2026-08-28T19:08:46Z</time>
  <course>86.25</course>
  <speed>0.0</speed>
  <fix>3d</fix>
</trkpt>
<trkpt lat="40.0728421" lon="-105.2305752">
  <ele>1586.13</ele>
  <time>2026-08-28T19:08:46Z</time>
  <course>11.48</course>
  <speed>0.0282842712474619</speed>
  <fix>3d</fix>
</trkpt>
<trkpt lat="40.0728421" lon="-105.2305755">
  <ele>1586.09</ele>
  <time>2026-08-28T19:08:46Z</time>
  <course>94.1</course>
  <speed>0.0</speed>
  <fix>3d</fix>
</trkpt>
<trkpt lat="40.0728421" lon="-105.2305752">
  <ele>1586.13</ele>
  <time>2026-08-28T19:08:46Z</time>
  <course>11.49</course>
  <speed>0.0282842712474619</speed>
  <fix>3d</fix>
</trkpt>
<trkpt lat="40.0728421" lon="-105.2305754">
  <ele>1586.09</ele>
  <time>2026-08-28T19:08:46Z</time>
  <course>93.85</course>
  <speed>0.0</speed>
  <fix>3d</fix>
</trkpt>
<trkpt lat="40.0728421" lon="-105.2305752">
  <ele>1586.13</ele>
  <time>2026-08-28T19:08:46Z</time>
  <course>11.5</course>
  <speed>0.022360679774997897</speed>
  <fix>3d</fix>
</trkpt>
<trkpt lat="40.0728421" lon="-105.2305753">
  <ele>1586.09</ele>
  <time>2026-08-28T19:08:46Z</time>
  <course>87.16</course>
  <speed>0.0</speed>
  <fix>3d</fix>
</trkpt>
<trkpt lat="40.0728421" lon="-105.2305752">
  <ele>1586.13</ele>
  <time>2026-08-28T19:08:46Z</time>
  <course>11.51</course>
  <speed>0.022360679774997897</speed>
  <fix>3d</fix>
</trkpt>
<trkpt lat="40.0728421" lon="-105.2305753">
  <ele>1586.09</ele>
  <time>2026-08-28T19:08:46Z</time>
  <course>32.82</course>
  <speed>0.0</speed>
  <fix>3d</fix>
</trkpt>
<trkpt lat="40.072842" lon="-105.2305752">
  <ele>1586.13</ele>
  <time>2026-08-28T19:08:46Z</time>
  <course>11.52</course>
  <speed>0.022360679774997897</speed>
  <fix>3d</fix>
</trkpt>
<trkpt lat="40.0728421" lon="-105.2305753">
  <ele>1586.09</ele>
  <time>2026-08-28T19:08:46Z</time>
  <course>327.5</course>
  <speed>0.0</speed>
  <fix>3d</fix>
</trkpt>
<trkpt lat="40.072842" lon="-105.2305752">
  <ele>1586.13</ele>
  <time>2026-08-28T19:08:46Z</time>
  <course>11.53</course>
  <speed>0.022360679774997897</speed>
  <fix>3d</fix>
</trkpt>
<trkpt lat="40.0728421" lon="-105.2305753">
  <ele>1586.09</ele>
  <time>2026-08-28T19:08:46Z</time>
  <course>345.83</course>
  <speed>0.0</speed>
  <fix>3d</fix>
</trkpt>
<trkpt lat="40.072842" lon="-105.2305752">
  <ele>1586.13</ele>
  <time>2026-08-28T19:08:46Z</time>
  <course>11.54</course>
  <speed>0.0282842712474619</speed>
  <fix>3d</fix>
</trkpt>
<trkpt lat="40.0728421" lon="-105.2305753">
  <ele>1586.09</ele>
  <time>2026-08-28T19:08:46Z</time>
  <course>25.54</course>
  <speed>0.0</speed>
  <fix>3d</fix>
</trkpt>
<trkpt lat="40.072842" lon="-105.2305752">
  <ele>1586.13</ele>
  <time>2026-08-28T19:08:46Z</time>
  <course>11.55</course>
  <speed>0.03605551275463989</speed>
  <fix>3d</fix>
</trkpt>
<trkpt lat="40.0728421" lon="-105.2305753">
  <ele>1586.09</ele>
  <time>2026-08-28T19:08:46Z</time>
  <course>100.86</course>
  <speed>0.0</speed>
  <fix>3d</fix>
</trkpt>
<trkpt lat="40.072842" lon="-105.2305752">
  <ele>1586.14</ele>
  <time>2026-08-28T19:08:46Z</time>
  <course>11.54</course>
  <speed>0.0282842712474619</speed>
  <fix>3d</fix>
</trkpt>
<trkpt lat="40.0728421" lon="-105.2305753">
  <ele>1586.09</ele>
  <time>2026-08-28T19:08:46Z</time>
  <course>107.03</course>
  <speed>0.0</speed>
  <fix>3d</fix>
</trkpt>
<trkpt lat="40.072842" lon="-105.2305752">
  <ele>1586.14</ele>
  <time>2026-08-28T19:08:46Z</time>
  <course>11.51</course>
  <speed>0.022360679774997897</speed>
  <fix>3d</fix>
</trkpt>
<trkpt lat="40.0728421" lon="-105.2305753">
  <ele>1586.09</ele>
  <time>2026-08-28T19:08:46Z</time>
  <course>123.48</course>
  <speed>0.0</speed>
  <fix>3d</fix>
</trkpt>
<trkpt lat="40.072842" lon="-105.2305752">
  <ele>1586.14</ele>
  <time>2026-08-28T19:08:46Z</time>
  <course>11.48</course>
  <speed>0.022360679774997897</speed>
  <fix>3d</fix>
</trkpt>
<trkpt lat="40.0728421" lon="-105.2305753">
  <ele>1586.09</ele>
  <time>2026-08-28T19:08:46Z</time>
  <course>251.25</course>
  <speed>0.0</speed>
  <fix>3d</fix>
</trkpt>
<trkpt lat="40.072842" lon="-105.2305752">
  <ele>1586.14</ele>
  <time>2026-08-28T19:08:46Z</time>
  <course>11.45</course>
  <speed>0.022360679774997897</speed>
  <fix>3d</fix>
</trkpt>
<trkpt lat="40.0728421" lon="-105.2305753">
  <ele>1586.09</ele>
  <time>2026-08-28T19:08:46Z</time>
  <course>248.45</course>
  <speed>0.0</speed>
  <fix>3d</fix>
</trkpt>
<trkpt lat="40.072842" lon="-105.2305752">
  <ele>1586.14</ele>
  <time>2026-08-28T19:08:46Z</time>
  <course>11.42</course>
  <speed>0.022360679774997897</speed>
  <fix>3d</fix>
</trkpt>
<trkpt lat="40.0728421" lon="-105.2305753">
  <ele>1586.09</ele>
  <time>2026-08-28T19:08:46Z</time>
  <course>235.95</course>
  <speed>0.0</speed>
  <fix>3d</fix>
</trkpt>
<trkpt lat="40.072842" lon="-105.2305752">
  <ele>1586.14</ele>
  <time>2026-08-28T19:08:46Z</time>
  <course>11.39</course>
  <speed>0.022360679774997897</speed>
  <fix>3d</fix>
</trkpt>
<trkpt lat="40.0728421" lon="-105.2305753">
  <ele>1586.09</ele>
  <time>2026-08-28T19:08:46Z</time>
  <course>234.02</course>
  <speed>0.0</speed>
  <fix>3d</fix>
</trkpt>
<trkpt lat="40.072842" lon="-105.2305752">
  <ele>1586.14</ele>
  <time>2026-08-28T19:08:46Z</time>
  <course>11.36</course>
  <speed>0.022360679774997897</speed>
  <fix>3d</fix>
</trkpt>
<trkpt lat="40.0728421" lon="-105.2305753">
  <ele>1586.09</ele>
  <time>2026-08-28T19:08:46Z</time>
  <course>229.92</course>
  <speed>0.0</speed>
  <fix>3d</fix>
</trkpt>
<trkpt lat="40.072842" lon="-105.2305752">
  <ele>1586.14</ele>
  <time>2026-08-28T19:08:46Z</time>
  <course>11.33</course>
  <speed>0.022360679774997897</speed>
  <fix>3d</fix>
</trkpt>
<trkpt lat="40.0728421" lon="-105.2305753">
  <ele>1586.09</ele>
  <time>2026-08-28T19:08:46Z</time>
  <course>256.57</course>
  <speed>0.0</speed>
  <fix>3d</fix>
</trkpt>
<trkpt lat="40.072842" lon="-105.2305752">
  <ele>1586.14</ele>
  <time>2026-08-28T19:08:46Z</time>
  <course>11.3</course>
  <speed>0.022360679774997897</speed>
  <fix>3d</fix>
</trkpt>
<trkpt lat="40.0728421" lon="-105.2305753">
  <ele>1586.09</ele>
  <time>2026-08-28T19:08:46Z</time>
  <course>49.46</course>
  <speed>0.0</speed>
  <fix>3d</fix>
</trkpt>
<trkpt lat="40.072842" lon="-105.2305752">
  <ele>1586.15</ele>
  <time>2026-08-28T19:08:46Z</time>
  <course>11.27</course>
  <speed>0.022360679774997897</speed>
  <fix>3d</fix>
</trkpt>
<trkpt lat="40.0728421" lon="-105.2305753">
  <ele>1586.09</ele>
  <time>2026-08-28T19:08:46Z</time>
  <course>281.82</course>
  <speed>0.0</speed>
  <fix>3d</fix>
</trkpt>
<trkpt lat="40.072842" lon="-105.2305752">
  <ele>1586.15</ele>
  <time>2026-08-28T19:08:46Z</time>
  <course>11.24</course>
  <speed>0.022360679774997897</speed>
  <fix>3d</fix>
</trkpt>
<trkpt lat="40.0728421" lon="-105.2305753">
  <ele>1586.09</ele>
  <time>2026-08-28T19:08:46Z</time>
  <course>278.3</course>
  <speed>0.0</speed>
  <fix>3d</fix>
</trkpt>
<trkpt lat="40.072842" lon="-105.2305752">
  <ele>1586.15</ele>
  <time>2026-08-28T19:08:46Z</time>
  <course>11.21</course>
  <speed>0.022360679774997897</speed>
  <fix>3d</fix>
</trkpt>
<trkpt lat="40.0728421" lon="-105.2305753">
  <ele>1586.09</ele>
  <time>2026-08-28T19:08:46Z</time>
  <course>114.3</course>
  <speed>0.0</speed>
  <fix>3d</fix>
</trkpt>
<trkpt lat="40.072842" lon="-105.2305752">
  <ele>1586.14</ele>
  <time>2026-08-28T19:08:46Z</time>
  <course>11.18</course>
  <speed>0.022360679774997897</speed>
  <fix>3d</fix>
</trkpt>
<trkpt lat="40.0728421" lon="-105.2305753">
  <ele>1586.09</ele>
  <time>2026-08-28T19:08:46Z</time>
  <course>279.11</course>
  <speed>0.0</speed>
  <fix>3d</fix>
</trkpt>
<trkpt lat="40.072842" lon="-105.2305752">
  <ele>1586.14</ele>
  <time>2026-08-28T19:08:46Z</time>
  <course>11.15</course>
  <speed>0.022360679774997897</speed>
  <fix>3d</fix>
</trkpt>
<trkpt lat="40.0728421" lon="-105.2305753">
  <ele>1586.09</ele>
  <time>2026-08-28T19:08:46Z</time>
  <course>279.18</course>
  <speed>0.0</speed>
  <fix>3d</fix>
</trkpt>
<trkpt lat="40.072842" lon="-105.2305752">
  <ele>1586.14</ele>
  <time>2026-08-28T19:08:46Z</time>
  <course>11.12</course>
  <speed>0.022360679774997897</speed>
  <fix>3d</fix>
</trkpt>
<trkpt lat="40.0728421" lon="-105.2305753">
  <ele>1586.09</ele>
  <time>2026-08-28T19:08:46Z</time>
  <course>268.35</course>
  <speed>0.0</speed>
  <fix>3d</fix>
</trkpt>
<trkpt lat="40.072842" lon="-105.2305752">
  <ele>1586.15</ele>
  <time>2026-08-28T19:08:46Z</time>
  <course>11.09</course>
  <speed>0.022360679774997897</speed>
  <fix>3d</fix>
</trkpt>
<trkpt lat="40.0728421" lon="-105.2305753">
  <ele>1586.09</ele>
  <time>2026-08-28T19:08:46Z</time>
  <course>277.31</course>
  <speed>0.0</speed>
  <fix>3d</fix>
</trkpt>
<trkpt lat="40.072842" lon="-105.2305752">
  <ele>1586.15</ele>
  <time>2026-08-28T19:08:46Z</time>
  <course>11.06</course>
  <speed>0.022360679774997897</speed>
  <fix>3d</fix>
</trkpt>
<trkpt lat="40.0728421" lon="-105.2305753">
  <ele>1586.09</ele>
  <time>2026-08-28T19:08:46Z</time>
  <course>278.83</course>
  <speed>0.0</speed>
  <fix>3d</fix>
</trkpt>
<trkpt lat="40.072842" lon="-105.2305752">
  <ele>1586.15</ele>
  <time>2026-08-28T19:08:46Z</time>
  <course>11.02</course>
  <speed>0.022360679774997897</speed>
  <fix>3d</fix>
</trkpt>
<trkpt lat="40.0728421" lon="-105.2305753">
  <ele>1586.09</ele>
  <time>2026-08-28T19:08:46Z</time>
  <course>275.68</course>
  <speed>0.0</speed>
  <fix>3d</fix>
</trkpt>
<trkpt lat="40.072842" lon="-105.2305752">
  <ele>1586.15</ele>
  <time>2026-08-28T19:08:46Z</time>
  <course>10.99</course>
  <speed>0.022360679774997897</speed>
  <fix>3d</fix>
</trkpt>
<trkpt lat="40.0728421" lon="-105.2305753">
  <ele>1586.09</ele>
  <time>2026-08-28T19:08:46Z</time>
  <course>123.38</course>
  <speed>0.0</speed>
  <fix>3d</fix>
</trkpt>
<trkpt lat="40.072842" lon="-105.2305752">
  <ele>1586.15</ele>
  <time>2026-08-28T19:08:46Z</time>
  <course>10.96</course>
  <speed>0.022360679774997897</speed>
  <fix>3d</fix>
</trkpt>
<trkpt lat="40.0728421" lon="-105.2305753">
  <ele>1586.09</ele>
  <time>2026-08-28T19:08:46Z</time>
  <course>278.15</course>
  <speed>0.0</speed>
  <fix>3d</fix>
</trkpt>
<trkpt lat="40.072842" lon="-105.2305752">
  <ele>1586.15</ele>
  <time>2026-08-28T19:08:46Z</time>
  <course>10.93</course>
  <speed>0.022360679774997897</speed>
  <fix>3d</fix>
</trkpt>
<trkpt lat="40.0728421" lon="-105.2305753">
  <ele>1586.09</ele>
  <time>2026-08-28T19:08:46Z</time>
  <course>276.94</course>
  <speed>0.0</speed>
  <fix>3d</fix>
</trkpt>
<trkpt lat="40.072842" lon="-105.2305752">
  <ele>1586.16</ele>
  <time>2026-08-28T19:08:46Z</time>
  <course>10.9</course>
  <speed>0.022360679774997897</speed>
  <fix>3d</fix>
</trkpt>
<trkpt lat="40.0728421" lon="-105.2305753">
  <ele>1586.09</ele>
  <time>2026-08-28T19:08:46Z</time>
  <course>103.77</course>
  <speed>0.0</speed>
  <fix>3d</fix>
</trkpt>
<trkpt lat="40.072842" lon="-105.2305752">
  <ele>1586.16</ele>
  <time>2026-08-28T19:08:46Z</time>
  <course>10.87</course>
  <speed>0.022360679774997897</speed>
  <fix>3d</fix>
</trkpt>
<trkpt lat="40.0728421" lon="-105.2305753">
  <ele>1586.09</ele>
  <time>2026-08-28T19:08:46Z</time>
  <course>277.66</course>
  <speed>0.0</speed>
  <fix>3d</fix>
</trkpt>
<trkpt lat="40.072842" lon="-105.2305752">
  <ele>1586.16</ele>
  <time>2026-08-28T19:08:46Z</time>
  <course>10.84</course>
  <speed>0.022360679774997897</speed>
  <fix>3d</fix>
</trkpt>
<trkpt lat="40.0728421" lon="-105.2305753">
  <ele>1586.09</ele>
  <time>2026-08-28T19:08:46Z</time>
  <course>278.04</course>
  <speed>0.0</speed>
  <fix>3d</fix>
</trkpt>
<trkpt lat="40.072842" lon="-105.2305752">
  <ele>1586.16</ele>
  <time>2026-08-28T19:08:46Z</time>
  <course>10.81</course>
  <speed>0.022360679774997897</speed>
  <fix>3d</fix>
</trkpt>
<trkpt lat="40.0728421" lon="-105.2305753">
  <ele>1586.09</ele>
  <time>2026-08-28T19:08:46Z</time>
  <course>111.95</course>
  <speed>0.0</speed>
  <fix>3d</fix>
</trkpt>
<trkpt lat="40.072842" lon="-105.2305752">
  <ele>1586.16</ele>
  <time>2026-08-28T19:08:46Z</time>
  <course>10.78</course>
  <speed>0.022360679774997897</speed>
  <fix>3d</fix>
</trkpt>
<trkpt lat="40.0728421" lon="-105.2305753">
  <ele>1586.09</ele>
  <time>2026-08-28T19:08:46Z</time>
  <course>276.79</course>
  <speed>0.0</speed>
  <fix>3d</fix>
</trkpt>
<trkpt lat="40.072842" lon="-105.2305752">
  <ele>1586.16</ele>
  <time>2026-08-28T19:08:46Z</time>
  <course>10.75</course>
  <speed>0.022360679774997897</speed>
  <fix>3d</fix>
</trkpt>
<trkpt lat="40.0728421" lon="-105.2305753">
  <ele>1586.09</ele>
  <time>2026-08-28T19:08:46Z</time>
  <course>277.84</course>
  <speed>0.0</speed>
  <fix>3d</fix>
</trkpt>
<trkpt lat="40.072842" lon="-105.2305752">
  <ele>1586.16</ele>
  <time>2026-08-28T19:08:46Z</time>
  <course>10.72</course>
  <speed>0.022360679774997897</speed>
  <fix>3d</fix>
</trkpt>
<trkpt lat="40.0728421" lon="-105.2305753">
  <ele>1586.09</ele>
  <time>2026-08-28T19:08:46Z</time>
  <course>238.18</course>
  <speed>0.0</speed>
  <fix>3d</fix>
</trkpt>
<trkpt lat="40.072842" lon="-105.2305752">
  <ele>1586.16</ele>
  <time>2026-08-28T19:08:46Z</time>
  <course>10.69</course>
  <speed>0.022360679774997897</speed>
  <fix>3d</fix>
</trkpt>
<trkpt lat="40.0728421" lon="-105.2305753">
  <ele>1586.09</ele>
  <time>2026-08-28T19:08:46Z</time>
  <course>275.07</course>
  <speed>0.0</speed>
  <fix>3d</fix>
</trkpt>
<trkpt lat="40.072842" lon="-105.2305752">
  <ele>1586.16</ele>
  <time>2026-08-28T19:08:46Z</time>
  <course>10.66</course>
  <speed>0.022360679774997897</speed>
  <fix>3d</fix>
</trkpt>
<trkpt lat="40.0728421" lon="-105.2305753">
  <ele>1586.09</ele>
  <time>2026-08-28T19:08:46Z</time>
  <course>277.48</course>
  <speed>0.0</speed>
  <fix>3d</fix>
</trkpt>
<trkpt lat="40.072842" lon="-105.2305752">
  <ele>1586.16</ele>
  <time>2026-08-28T19:08:46Z</time>
  <course>10.63</course>
  <speed>0.022360679774997897</speed>
  <fix>3d</fix>
</trkpt>
<trkpt lat="40.0728421" lon="-105.2305753">
  <ele>1586.09</ele>
  <time>2026-08-28T19:08:46Z</time>
  <course>270.87</course>
  <speed>0.0</speed>
  <fix>3d</fix>
</trkpt>
<trkpt lat="40.072842" lon="-105.2305752">
  <ele>1586.16</ele>
  <time>2026-08-28T19:08:46Z</time>
  <course>10.6</course>
  <speed>0.022360679774997897</speed>
  <fix>3d</fix>
</trkpt>
<trkpt lat="40.0728421" lon="-105.2305753">
  <ele>1586.09</ele>
  <time>2026-08-28T19:08:46Z</time>
  <course>266.9</course>
  <speed>0.0</speed>
  <fix>3d</fix>
</trkpt>
<trkpt lat="40.072842" lon="-105.2305752">
  <ele>1586.16</ele>
  <time>2026-08-28T19:08:46Z</time>
  <course>10.57</course>
  <speed>0.022360679774997897</speed>
  <fix>3d</fix>
</trkpt>
<trkpt lat="40.0728421" lon="-105.2305753">
  <ele>1586.09</ele>
  <time>2026-08-28T19:08:46Z</time>
  <course>276.82</course>
  <speed>0.0</speed>
  <fix>3d</fix>
</trkpt>
<trkpt lat="40.072842" lon="-105.2305752">
  <ele>1586.16</ele>
  <time>2026-08-28T19:08:46Z</time>
  <course>10.54</course>
  <speed>0.022360679774997897</speed>
  <fix>3d</fix>
</trkpt>
<trkpt lat="40.0728421" lon="-105.2305753">
  <ele>1586.09</ele>
  <time>2026-08-28T19:08:46Z</time>
  <course>274.11</course>
  <speed>0.0</speed>
  <fix>3d</fix>
</trkpt>
<trkpt lat="40.072842" lon="-105.2305752">
  <ele>1586.16</ele>
  <time>2026-08-28T19:08:46Z</time>
  <course>10.51</course>
  <speed>0.022360679774997897</speed>
  <fix>3d</fix>
</trkpt>
<trkpt lat="40.0728421" lon="-105.2305753">
  <ele>1586.09</ele>
  <time>2026-08-28T19:08:46Z</time>
  <course>111.13</course>
  <speed>0.0</speed>
  <fix>3d</fix>
</trkpt>
<trkpt lat="40.072842" lon="-105.2305752">
  <ele>1586.16</ele>
  <time>2026-08-28T19:08:46Z</time>
  <course>10.48</course>
  <speed>0.022360679774997897</speed>
  <fix>3d</fix>
</trkpt>
<trkpt lat="40.0728421" lon="-105.2305753">
  <ele>1586.09</ele>
  <time>2026-08-28T19:08:46Z</time>
  <course>276.09</course>
  <speed>0.0</speed>
  <fix>3d</fix>
</trkpt>
<trkpt lat="40.072842" lon="-105.2305752">
  <ele>1586.16</ele>
  <time>2026-08-28T19:08:46Z</time>
  <course>10.45</course>
  <speed>0.022360679774997897</speed>
  <fix>3d</fix>
</trkpt>
<trkpt lat="40.0728421" lon="-105.2305753">
  <ele>1586.09</ele>
  <time>2026-08-28T19:08:46Z</time>
  <course>276.48</course>
  <speed>0.0</speed>
  <fix>3d</fix>
</trkpt>
<trkpt lat="40.072842" lon="-105.2305752">
  <ele>1586.16</ele>
  <time>2026-08-28T19:08:46Z</time>
  <course>10.41</course>
  <speed>0.022360679774997897</speed>
  <fix>3d</fix>
</trkpt>
<trkpt lat="40.0728421" lon="-105.2305753">
  <ele>1586.09</ele>
  <time>2026-08-28T19:08:46Z</time>
  <course>149.43</course>
  <speed>0.0</speed>
  <fix>3d</fix>
</trkpt>
<trkpt lat="40.072842" lon="-105.2305752">
  <ele>1586.16</ele>
  <time>2026-08-28T19:08:46Z</time>
  <course>10.38</course>
  <speed>0.022360679774997897</speed>
  <fix>3d</fix>
</trkpt>
<trkpt lat="40.0728421" lon="-105.2305753">
  <ele>1586.09</ele>
  <time>2026-08-28T19:08:46Z</time>
  <course>274.76</course>
  <speed>0.0</speed>
  <fix>3d</fix>
</trkpt>
<trkpt lat="40.072842" lon="-105.2305752">
  <ele>1586.16</ele>
  <time>2026-08-28T19:08:46Z</time>
  <course>10.35</course>
  <speed>0.022360679774997897</speed>
  <fix>3d</fix>
</trkpt>
<trkpt lat="40.0728421" lon="-105.2305753">
  <ele>1586.09</ele>
  <time>2026-08-28T19:08:46Z</time>
  <course>276.61</course>
  <speed>0.0</speed>
  <fix>3d</fix>
</trkpt>
<trkpt lat="40.072842" lon="-105.2305752">
  <ele>1586.16</ele>
  <time>2026-08-28T19:08:46Z</time>
  <course>10.32</course>
  <speed>0.022360679774997897</speed>
  <fix>3d</fix>
</trkpt>
<trkpt lat="40.0728421" lon="-105.2305753">
  <ele>1586.09</ele>
  <time>2026-08-28T19:08:46Z</time>
  <course>269.79</course>
  <speed>0.0</speed>
  <fix>3d</fix>
</trkpt>
<trkpt lat="40.072842" lon="-105.2305752">
  <ele>1586.17</ele>
  <time>2026-08-28T19:08:46Z</time>
  <course>10.29</course>
  <speed>0.022360679774997897</speed>
  <fix>3d</fix>
</trkpt>
<trkpt lat="40.0728421" lon="-105.2305753">
  <ele>1586.09</ele>
  <time>2026-08-28T19:08:46Z</time>
  <course>271.58</course>
  <speed>0.0</speed>
  <fix>3d</fix>
</trkpt>
<trkpt lat="40.072842" lon="-105.2305752">
  <ele>1586.16</ele>
  <time>2026-08-28T19:08:46Z</time>
  <course>10.26</course>
  <speed>0.022360679774997897</speed>
  <fix>3d</fix>
</trkpt>
<trkpt lat="40.0728421" lon="-105.2305753">
  <ele>1586.09</ele>
  <time>2026-08-28T19:08:46Z</time>
  <course>275.78</course>
  <speed>0.0</speed>
  <fix>3d</fix>
</trkpt>
<trkpt lat="40.072842" lon="-105.2305752">
  <ele>1586.16</ele>
  <time>2026-08-28T19:08:46Z</time>
  <course>10.23</course>
  <speed>0.022360679774997897</speed>
  <fix>3d</fix>
</trkpt>
<trkpt lat="40.0728421" lon="-105.2305753">
  <ele>1586.09</ele>
  <time>2026-08-28T19:08:46Z</time>
  <course>265.71</course>
  <speed>0.0</speed>
  <fix>3d</fix>
</trkpt>
<trkpt lat="40.072842" lon="-105.2305752">
  <ele>1586.16</ele>
  <time>2026-08-28T19:08:46Z</time>
  <course>10.2</course>
  <speed>0.022360679774997897</speed>
  <fix>3d</fix>
</trkpt>
<trkpt lat="40.0728421" lon="-105.2305753">
  <ele>1586.09</ele>
  <time>2026-08-28T19:08:46Z</time>
  <course>111.1</course>
  <speed>0.0</speed>
  <fix>3d</fix>
</trkpt>
<trkpt lat="40.072842" lon="-105.2305752">
  <ele>1586.16</ele>
  <time>2026-08-28T19:08:46Z</time>
  <course>10.17</course>
  <speed>0.022360679774997897</speed>
  <fix>3d</fix>
</trkpt>
<trkpt lat="40.0728421" lon="-105.2305753">
  <ele>1586.09</ele>
  <time>2026-08-28T19:08:46Z</time>
  <course>271.72</course>
  <speed>0.0</speed>
  <fix>3d</fix>
</trkpt>
<trkpt lat="40.072842" lon="-105.2305752">
  <ele>1586.15</ele>
  <time>2026-08-28T19:08:46Z</time>
  <course>10.13</course>
  <speed>0.022360679774997897</speed>
  <fix>3d</fix>
</trkpt>
<trkpt lat="40.0728421" lon="-105.2305753">
  <ele>1586.09</ele>
  <time>2026-08-28T19:08:46Z</time>
  <course>267.49</course>
  <speed>0.0</speed>
  <fix>3d</fix>
</trkpt>
<trkpt lat="40.072842" lon="-105.2305752">
  <ele>1586.15</ele>
  <time>2026-08-28T19:08:46Z</time>
  <course>10.1</course>
  <speed>0.022360679774997897</speed>
  <fix>3d</fix>
</trkpt>
<trkpt lat="40.0728421" lon="-105.2305753">
  <ele>1586.09</ele>
  <time>2026-08-28T19:08:46Z</time>
  <course>107.75</course>
  <speed>0.0</speed>
  <fix>3d</fix>
</trkpt>
<trkpt lat="40.072842" lon="-105.2305752">
  <ele>1586.16</ele>
  <time>2026-08-28T19:08:46Z</time>
  <course>10.07</course>
  <speed>0.022360679774997897</speed>
  <fix>3d</fix>
</trkpt>
<trkpt lat="40.0728421" lon="-105.2305753">
  <ele>1586.09</ele>
  <time>2026-08-28T19:08:46Z</time>
  <course>269.96</course>
  <speed>0.0</speed>
  <fix>3d</fix>
</trkpt>
<trkpt lat="40.072842" lon="-105.2305752">
  <ele>1586.16</ele>
  <time>2026-08-28T19:08:46Z</time>
  <course>10.04</course>
  <speed>0.022360679774997897</speed>
  <fix>3d</fix>
</trkpt>
<trkpt lat="40.0728421" lon="-105.2305753">
  <ele>1586.09</ele>
  <time>2026-08-28T19:08:46Z</time>
  <course>271.81</course>
  <speed>0.0</speed>
  <fix>3d</fix>
</trkpt>
<trkpt lat="40.072842" lon="-105.2305752">
  <ele>1586.16</ele>
  <time>2026-08-28T19:08:46Z</time>
  <course>10.01</course>
  <speed>0.022360679774997897</speed>
  <fix>3d</fix>
</trkpt>
<trkpt lat="40.0728421" lon="-105.2305753">
  <ele>1586.09</ele>
  <time>2026-08-28T19:08:46Z</time>
  <course>110.48</course>
  <speed>0.0</speed>
  <fix>3d</fix>
</trkpt>
<trkpt lat="40.072842" lon="-105.2305752">
  <ele>1586.16</ele>
  <time>2026-08-28T19:08:46Z</time>
  <course>9.98</course>
  <speed>0.022360679774997897</speed>
  <fix>3d</fix>
</trkpt>
<trkpt lat="40.0728421" lon="-105.2305753">
  <ele>1586.09</ele>
  <time>2026-08-28T19:08:46Z</time>
  <course>264.32</course>
  <speed>0.0</speed>
  <fix>3d</fix>
</trkpt>
<trkpt lat="40.072842" lon="-105.2305752">
  <ele>1586.17</ele>
  <time>2026-08-28T19:08:46Z</time>
  <course>9.95</course>
  <speed>0.022360679774997897</speed>
  <fix>3d</fix>
</trkpt>
<trkpt lat="40.0728421" lon="-105.2305753">
  <ele>1586.09</ele>
  <time>2026-08-28T19:08:46Z</time>
  <course>270.54</course>
  <speed>0.0</speed>
  <fix>3d</fix>
</trkpt>
<trkpt lat="40.072842" lon="-105.2305752">
  <ele>1586.17</ele>
  <time>2026-08-28T19:08:46Z</time>
  <course>9.91</course>
  <speed>0.022360679774997897</speed>
  <fix>3d</fix>
</trkpt>
<trkpt lat="40.0728421" lon="-105.2305753">
  <ele>1586.09</ele>
  <time>2026-08-28T19:08:46Z</time>
  <course>113.09</course>
  <speed>0.0</speed>
  <fix>3d</fix>
</trkpt>
<trkpt lat="40.072842" lon="-105.2305752">
  <ele>1586.17</ele>
  <time>2026-08-28T19:08:46Z</time>
  <course>9.88</course>
  <speed>0.022360679774997897</speed>
  <fix>3d</fix>
</trkpt>
<trkpt lat="40.0728421" lon="-105.2305753">
  <ele>1586.09</ele>
  <time>2026-08-28T19:08:46Z</time>
  <course>253.25</course>
  <speed>0.0</speed>
  <fix>3d</fix>
</trkpt>
<trkpt lat="40.072842" lon="-105.2305752">
  <ele>1586.16</ele>
  <time>2026-08-28T19:08:46Z</time>
  <course>9.85</course>
  <speed>0.022360679774997897</speed>
  <fix>3d</fix>
</trkpt>
<trkpt lat="40.0728421" lon="-105.2305753">
  <ele>1586.09</ele>
  <time>2026-08-28T19:08:46Z</time>
  <course>267.95</course>
  <speed>0.0</speed>
  <fix>3d</fix>
</trkpt>
<trkpt lat="40.072842" lon="-105.2305752">
  <ele>1586.16</ele>
  <time>2026-08-28T19:08:46Z</time>
  <course>9.82</course>
  <speed>0.022360679774997897</speed>
  <fix>3d</fix>
</trkpt>
<trkpt lat="40.0728421" lon="-105.2305753">
  <ele>1586.09</ele>
  <time>2026-08-28T19:08:46Z</time>
  <course>115.57</course>
  <speed>0.0</speed>
  <fix>3d</fix>
</trkpt>
<trkpt lat="40.072842" lon="-105.2305752">
  <ele>1586.16</ele>
  <time>2026-08-28T19:08:46Z</time>
  <course>9.79</course>
  <speed>0.022360679774997897</speed>
  <fix>3d</fix>
</trkpt>
<trkpt lat="40.0728421" lon="-105.2305753">
  <ele>1586.09</ele>
  <time>2026-08-28T19:08:46Z</time>
  <course>226.08</course>
  <speed>0.0</speed>
  <fix>3d</fix>
</trkpt>
<trkpt lat="40.072842" lon="-105.2305752">
  <ele>1586.17</ele>
  <time>2026-08-28T19:08:46Z</time>
  <course>9.75</course>
  <speed>0.022360679774997897</speed>
  <fix>3d</fix>
</trkpt>
<trkpt lat="40.0728421" lon="-105.2305753">
  <ele>1586.09</ele>
  <time>2026-08-28T19:08:46Z</time>
  <course>264.12</course>
  <speed>0.0</speed>
  <fix>3d</fix>
</trkpt>
<trkpt lat="40.072842" lon="-105.2305752">
  <ele>1586.17</ele>
  <time>2026-08-28T19:08:46Z</time>
  <course>9.72</course>
  <speed>0.022360679774997897</speed>
  <fix>3d</fix>
</trkpt>
<trkpt lat="40.0728421" lon="-105.2305753">
  <ele>1586.09</ele>
  <time>2026-08-28T19:08:46Z</time>
  <course>120.11</course>
  <speed>0.0</speed>
  <fix>3d</fix>
</trkpt>
<trkpt lat="40.072842" lon="-105.2305752">
  <ele>1586.17</ele>
  <time>2026-08-28T19:08:46Z</time>
  <course>9.69</course>
  <speed>0.022360679774997897</speed>
  <fix>3d</fix>
</trkpt>
<trkpt lat="40.0728421" lon="-105.2305753">
  <ele>1586.09</ele>
  <time>2026-08-28T19:08:46Z</time>
  <course>127.2</course>
  <speed>0.0</speed>
  <fix>3d</fix>
</trkpt>
<trkpt lat="40.072842" lon="-105.2305752">
  <ele>1586.17</ele>
  <time>2026-08-28T19:08:46Z</time>
  <course>9.66</course>
  <speed>0.022360679774997897</speed>
  <fix>3d</fix>
</trkpt>
<trkpt lat="40.0728421" lon="-105.2305753">
  <ele>1586.09</ele>
  <time>2026-08-28T19:08:46Z</time>
  <course>252.87</course>
  <speed>0.0</speed>
  <fix>3d</fix>
</trkpt>
<trkpt lat="40.072842" lon="-105.2305752">
  <ele>1586.17</ele>
  <time>2026-08-28T19:08:46Z</time>
  <course>9.63</course>
  <speed>0.022360679774997897</speed>
  <fix>3d</fix>
</trkpt>
<trkpt lat="40.0728421" lon="-105.2305753">
  <ele>1586.09</ele>
  <time>2026-08-28T19:08:46Z</time>
  <course>162.08</course>
  <speed>0.0</speed>
  <fix>3d</fix>
</trkpt>
<trkpt lat="40.072842" lon="-105.2305752">
  <ele>1586.17</ele>
  <time>2026-08-28T19:08:46Z</time>
  <course>9.59</course>
  <speed>0.022360679774997897</speed>
  <fix>3d</fix>
</trkpt>
<trkpt lat="40.0728421" lon="-105.2305753">
  <ele>1586.09</ele>
  <time>2026-08-28T19:08:46Z</time>
  <course>130.74</course>
  <speed>0.0</speed>
  <fix>3d</fix>
</trkpt>
<trkpt lat="40.072842" lon="-105.2305752">
  <ele>1586.17</ele>
  <time>2026-08-28T19:08:46Z</time>
  <course>9.56</course>
  <speed>0.022360679774997897</speed>
  <fix>3d</fix>
</trkpt>
<trkpt lat="40.0728421" lon="-105.2305753">
  <ele>1586.09</ele>
  <time>2026-08-28T19:08:46Z</time>
  <course>243.11</course>
  <speed>0.0</speed>
  <fix>3d</fix>
</trkpt>
<trkpt lat="40.072842" lon="-105.2305752">
  <ele>1586.17</ele>
  <time>2026-08-28T19:08:46Z</time>
  <course>9.53</course>
  <speed>0.022360679774997897</speed>
  <fix>3d</fix>
</trkpt>
<trkpt lat="40.0728421" lon="-105.2305753">
  <ele>1586.09</ele>
  <time>2026-08-28T19:08:46Z</time>
  <course>193.9</course>
  <speed>0.0</speed>
  <fix>3d</fix>
</trkpt>
<trkpt lat="40.072842" lon="-105.2305752">
  <ele>1586.17</ele>
  <time>2026-08-28T19:08:46Z</time>
  <course>9.5</course>
  <speed>0.022360679774997897</speed>
  <fix>3d</fix>
</trkpt>
<trkpt lat="40.0728421" lon="-105.2305753">
  <ele>1586.09</ele>
  <time>2026-08-28T19:08:46Z</time>
  <course>158.34</course>
  <speed>0.0</speed>
  <fix>3d</fix>
</trkpt>
<trkpt lat="40.072842" lon="-105.2305752">
  <ele>1586.18</ele>
  <time>2026-08-28T19:08:46Z</time>
  <course>9.46</course>
  <speed>0.022360679774997897</speed>
  <fix>3d</fix>
</trkpt>
<trkpt lat="40.0728421" lon="-105.2305753">
  <ele>1586.09</ele>
  <time>2026-08-28T19:08:46Z</time>
  <course>247.01</course>
  <speed>0.0</speed>
  <fix>3d</fix>
</trkpt>
<trkpt lat="40.072842" lon="-105.2305752">
  <ele>1586.18</ele>
  <time>2026-08-28T19:08:46Z</time>
  <course>9.43</course>
  <speed>0.022360679774997897</speed>
  <fix>3d</fix>
</trkpt>
<trkpt lat="40.0728421" lon="-105.2305753">
  <ele>1586.09</ele>
  <time>2026-08-28T19:08:46Z</time>
  <course>233.39</course>
  <speed>0.0</speed>
  <fix>3d</fix>
</trkpt>
<trkpt lat="40.072842" lon="-105.2305752">
  <ele>1586.18</ele>
  <time>2026-08-28T19:08:46Z</time>
  <course>9.4</course>
  <speed>0.022360679774997897</speed>
  <fix>3d</fix>
</trkpt>
<trkpt lat="40.0728421" lon="-105.2305753">
  <ele>1586.09</ele>
  <time>2026-08-28T19:08:46Z</time>
  <course>230.5</course>
  <speed>0.0</speed>
  <fix>3d</fix>
</trkpt>
<trkpt lat="40.072842" lon="-105.2305752">
  <ele>1586.18</ele>
  <time>2026-08-28T19:08:46Z</time>
  <course>9.37</course>
  <speed>0.022360679774997897</speed>
  <fix>3d</fix>
</trkpt>
<trkpt lat="40.0728421" lon="-105.2305753">
  <ele>1586.09</ele>
  <time>2026-08-28T19:08:46Z</time>
  <course>256.62</course>
  <speed>0.0</speed>
  <fix>3d</fix>
</trkpt>
<trkpt lat="40.072842" lon="-105.2305752">
  <ele>1586.18</ele>
  <time>2026-08-28T19:08:46Z</time>
  <course>9.33</course>
  <speed>0.022360679774997897</speed>
  <fix>3d</fix>
</trkpt>
<trkpt lat="40.0728421" lon="-105.2305753">
  <ele>1586.09</ele>
  <time>2026-08-28T19:08:46Z</time>
  <course>255.21</course>
  <speed>0.0</speed>
  <fix>3d</fix>
</trkpt>
<trkpt lat="40.072842" lon="-105.2305752">
  <ele>1586.18</ele>
  <time>2026-08-28T19:08:46Z</time>
  <course>9.3</course>
  <speed>0.01414213562373095</speed>
  <fix>3d</fix>
</trkpt>
<trkpt lat="40.0728421" lon="-105.2305753">
  <ele>1586.09</ele>
  <time>2026-08-28T19:08:46Z</time>
  <course>254.89</course>
  <speed>0.0</speed>
  <fix>3d</fix>
</trkpt>
<trkpt lat="40.072842" lon="-105.2305752">
  <ele>1586.18</ele>
  <time>2026-08-28T19:08:46Z</time>
  <course>9.3</course>
  <speed>0.01414213562373095</speed>
  <fix>3d</fix>
</trkpt>
<trkpt lat="40.0728421" lon="-105.2305753">
  <ele>1586.09</ele>
  <time>2026-08-28T19:08:46Z</time>
  <course>263.1</course>
  <speed>0.0</speed>
  <fix>3d</fix>
</trkpt>
<trkpt lat="40.072842" lon="-105.2305752">
  <ele>1586.18</ele>
  <time>2026-08-28T19:08:46Z</time>
  <course>9.45</course>
  <speed>0.022360679774997897</speed>
  <fix>3d</fix>
</trkpt>
<trkpt lat="40.0728421" lon="-105.2305753">
  <ele>1586.09</ele>
  <time>2026-08-28T19:08:46Z</time>
  <course>126.21</course>
  <speed>0.0</speed>
  <fix>3d</fix>
</trkpt>
<trkpt lat="40.072842" lon="-105.2305752">
  <ele>1586.18</ele>
  <time>2026-08-28T19:08:46Z</time>
  <course>9.64</course>
  <speed>0.022360679774997897</speed>
  <fix>3d</fix>
</trkpt>
<trkpt lat="40.0728421" lon="-105.2305753">
  <ele>1586.09</ele>
  <time>2026-08-28T19:08:46Z</time>
  <course>251.81</course>
  <speed>0.0</speed>
  <fix>3d</fix>
</trkpt>
<trkpt lat="40.072842" lon="-105.2305752">
  <ele>1586.18</ele>
  <time>2026-08-28T19:08:46Z</time>
  <course>9.81</course>
  <speed>0.022360679774997897</speed>
  <fix>3d</fix>
</trkpt>
<trkpt lat="40.0728421" lon="-105.2305753">
  <ele>1586.09</ele>
  <time>2026-08-28T19:08:46Z</time>
  <course>349.84</course>
  <speed>0.0</speed>
  <fix>3d</fix>
</trkpt>
<trkpt lat="40.072842" lon="-105.2305752">
  <ele>1586.18</ele>
  <time>2026-08-28T19:08:46Z</time>
  <course>9.97</course>
  <speed>0.022360679774997897</speed>
  <fix>3d</fix>
</trkpt>
<trkpt lat="40.0728421" lon="-105.2305753">
  <ele>1586.09</ele>
  <time>2026-08-28T19:08:46Z</time>
  <course>335.81</course>
  <speed>0.0</speed>
  <fix>3d</fix>
</trkpt>
<trkpt lat="40.072842" lon="-105.2305752">
  <ele>1586.18</ele>
  <time>2026-08-28T19:08:46Z</time>
  <course>10.13</course>
  <speed>0.022360679774997897</speed>
  <fix>3d</fix>
</trkpt>
<trkpt lat="40.0728421" lon="-105.2305753">
  <ele>1586.09</ele>
  <time>2026-08-28T19:08:46Z</time>
  <course>286.57</course>
  <speed>0.0</speed>
  <fix>3d</fix>
</trkpt>
<trkpt lat="40.072842" lon="-105.2305752">
  <ele>1586.18</ele>
  <time>2026-08-28T19:08:46Z</time>
  <course>10.28</course>
  <speed>0.022360679774997897</speed>
  <fix>3d</fix>
</trkpt>
<trkpt lat="40.0728421" lon="-105.2305753">
  <ele>1586.09</ele>
  <time>2026-08-28T19:08:46Z</time>
  <course>167.22</course>
  <speed>0.0</speed>
  <fix>3d</fix>
</trkpt>
<trkpt lat="40.072842" lon="-105.2305752">
  <ele>1586.18</ele>
  <time>2026-08-28T19:08:46Z</time>
  <course>10.42</course>
  <speed>0.022360679774997897</speed>
  <fix>3d</fix>
</trkpt>
<trkpt lat="40.0728421" lon="-105.2305753">
  <ele>1586.09</ele>
  <time>2026-08-28T19:08:46Z</time>
  <course>313.66</course>
  <speed>0.0</speed>
  <fix>3d</fix>
</trkpt>
<trkpt lat="40.072842" lon="-105.2305752">
  <ele>1586.19</ele>
  <time>2026-08-28T19:08:46Z</time>
  <course>10.56</course>
  <speed>0.022360679774997897</speed>
  <fix>3d</fix>
</trkpt>
<trkpt lat="40.0728421" lon="-105.2305753">
  <ele>1586.09</ele>
  <time>2026-08-28T19:08:46Z</time>
  <course>302.15</course>
  <speed>0.0</speed>
  <fix>3d</fix>
</trkpt>
<trkpt lat="40.072842" lon="-105.2305752">
  <ele>1586.18</ele>
  <time>2026-08-28T19:08:46Z</time>
  <course>10.7</course>
  <speed>0.022360679774997897</speed>
  <fix>3d</fix>
</trkpt>
<trkpt lat="40.0728421" lon="-105.2305753">
  <ele>1586.09</ele>
  <time>2026-08-28T19:08:46Z</time>
  <course>279.78</course>
  <speed>0.0</speed>
  <fix>3d</fix>
</trkpt>
<trkpt lat="40.072842" lon="-105.2305752">
  <ele>1586.18</ele>
  <time>2026-08-28T19:08:46Z</time>
  <course>10.83</course>
  <speed>0.022360679774997897</speed>
  <fix>3d</fix>
</trkpt>
<trkpt lat="40.0728421" lon="-105.2305753">
  <ele>1586.09</ele>
  <time>2026-08-28T19:08:46Z</time>
  <course>272.16</course>
  <speed>0.0</speed>
  <fix>3d</fix>
</trkpt>
<trkpt lat="40.072842" lon="-105.2305752">
  <ele>1586.18</ele>
  <time>2026-08-28T19:08:46Z</time>
  <course>10.96</course>
  <speed>0.022360679774997897</speed>
  <fix>3d</fix>
</trkpt>
<trkpt lat="40.0728421" lon="-105.2305753">
  <ele>1586.09</ele>
  <time>2026-08-28T19:08:46Z</time>
  <course>189.64</course>
  <speed>0.0</speed>
  <fix>3d</fix>
</trkpt>
<trkpt lat="39.6562421" lon="-104.1365912">
  <ele>1569.6</ele>
  <time>2026-08-28T19:08:48Z</time>
  <course>14.17</course>
  <speed>0.0</speed>
  <fix>3d</fix>
</trkpt>
<trkpt lat="40.072842" lon="-105.230575">
  <ele>1586.09</ele>
  <time>2026-08-28T19:08:48Z</time>
  <course>2.03</course>
  <speed>0.0</speed>
  <fix>3d</fix>
</trkpt>
<trkpt lat="40.072842" lon="-105.230575">
  <ele>1586.09</ele>
  <time>2026-08-28T19:08:48Z</time>
  <course>344.04</course>
  <speed>0.0</speed>
  <fix>3d</fix>
</trkpt>
<trkpt lat="40.072842" lon="-105.230575">
  <ele>1586.09</ele>
  <time>2026-08-28T19:08:48Z</time>
  <course>2.44</course>
  <speed>0.0</speed>
  <fix>3d</fix>
</trkpt>
<trkpt lat="40.072842" lon="-105.230575">
  <ele>1586.09</ele>
  <time>2026-08-28T19:08:48Z</time>
  <course>236.53</course>
  <speed>0.0</speed>
  <fix>3d</fix>
</trkpt>
<trkpt lat="40.072842" lon="-105.230575">
  <ele>1586.09</ele>
  <time>2026-08-28T19:08:48Z</time>
  <course>3.19</course>
  <speed>0.0</speed>
  <fix>3d</fix>
</trkpt>
<trkpt lat="40.072842" lon="-105.230575">
  <ele>1586.09</ele>
  <time>2026-08-28T19:08:48Z</time>
  <course>181.85</course>
  <speed>0.0</speed>
  <fix>3d</fix>
</trkpt>
<trkpt lat="40.072842" lon="-105.230575">
  <ele>1586.09</ele>
  <time>2026-08-28T19:08:48Z</time>
  <course>3.87</course>
  <speed>0.0</speed>
  <fix>3d</fix>
</trkpt>
<trkpt lat="40.072842" lon="-105.230575">
  <ele>1586.09</ele>
  <time>2026-08-28T19:08:48Z</time>
  <course>38.5</course>
  <speed>0.0</speed>
  <fix>3d</fix>
</trkpt>
<trkpt lat="40.072842" lon="-105.230575">
  <ele>1586.09</ele>
  <time>2026-08-28T19:08:48Z</time>
  <course>4.49</course>
  <speed>0.0</speed>
  <fix>3d</fix>
</trkpt>
<trkpt lat="40.072842" lon="-105.230575">
  <ele>1586.09</ele>
  <time>2026-08-28T19:08:48Z</time>
  <course>341.08</course>
  <speed>0.0</speed>
  <fix>3d</fix>
</trkpt>
<trkpt lat="40.072842" lon="-105.230575">
  <ele>1586.09</ele>
  <time>2026-08-28T19:08:48Z</time>
  <course>5.09</course>
  <speed>0.0</speed>
  <fix>3d</fix>
</trkpt>
<trkpt lat="40.072842" lon="-105.230575">
  <ele>1586.09</ele>
  <time>2026-08-28T19:08:48Z</time>
  <course>79.87</course>
  <speed>0.0</speed>
  <fix>3d</fix>
</trkpt>
<trkpt lat="40.072842" lon="-105.230575">
  <ele>1586.09</ele>
  <time>2026-08-28T19:08:48Z</time>
  <course>5.65</course>
  <speed>0.0</speed>
  <fix>3d</fix>
</trkpt>
<trkpt lat="40.072842" lon="-105.230575">
  <ele>1586.09</ele>
  <time>2026-08-28T19:08:48Z</time>
  <course>78.75</course>
  <speed>0.0</speed>
  <fix>3d</fix>
</trkpt>
<trkpt lat="40.072842" lon="-105.230575">
  <ele>1586.09</ele>
  <time>2026-08-28T19:08:48Z</time>
  <course>6.17</course>
  <speed>0.0</speed>
  <fix>3d</fix>
</trkpt>
<trkpt lat="40.072842" lon="-105.230575">
  <ele>1586.09</ele>
  <time>2026-08-28T19:08:48Z</time>
  <course>198.3</course>
  <speed>0.0</speed>
  <fix>3d</fix>
</trkpt>
<trkpt lat="40.072842" lon="-105.230575">
  <ele>1586.09</ele>
  <time>2026-08-28T19:08:48Z</time>
  <course>6.66</course>
  <speed>0.0</speed>
  <fix>3d</fix>
</trkpt>
<trkpt lat="40.072842" lon="-105.230575">
  <ele>1586.09</ele>
  <time>2026-08-28T19:08:48Z</time>
  <course>208.9</course>
  <speed>0.0</speed>
  <fix>3d</fix>
</trkpt>
<trkpt lat="40.072842" lon="-105.230575">
  <ele>1586.09</ele>
  <time>2026-08-28T19:08:48Z</time>
  <course>7.11</course>
  <speed>0.0</speed>
  <fix>3d</fix>
</trkpt>
<trkpt lat="40.072842" lon="-105.230575">
  <ele>1586.09</ele>
  <time>2026-08-28T19:08:48Z</time>
  <course>59.22</course>
  <speed>0.0</speed>
  <fix>3d</fix>
</trkpt>
<trkpt lat="40.072842" lon="-105.230575">
  <ele>1586.09</ele>
  <time>2026-08-28T19:08:48Z</time>
  <course>7.54</course>
  <speed>0.0</speed>
  <fix>3d</fix>
</trkpt>
<trkpt lat="40.072842" lon="-105.230575">
  <ele>1586.09</ele>
  <time>2026-08-28T19:08:48Z</time>
  <course>78.2</course>
  <speed>0.0</speed>
  <fix>3d</fix>
</trkpt>
<trkpt lat="40.072842" lon="-105.230575">
  <ele>1586.09</ele>
  <time>2026-08-28T19:08:48Z</time>
  <course>7.93</course>
  <speed>0.0</speed>
  <fix>3d</fix>
</trkpt>
<trkpt lat="40.072842" lon="-105.230575">
  <ele>1586.09</ele>
  <time>2026-08-28T19:08:48Z</time>
  <course>275.97</course>
  <speed>0.0</speed>
  <fix>3d</fix>
</trkpt>
<trkpt lat="40.072842" lon="-105.230575">
  <ele>1586.09</ele>
  <time>2026-08-28T19:08:48Z</time>
  <course>8.29</course>
  <speed>0.0</speed>
  <fix>3d</fix>
</trkpt>
<trkpt lat="40.072842" lon="-105.230575">
  <ele>1586.09</ele>
  <time>2026-08-28T19:08:48Z</time>
  <course>272.6</course>
  <speed>0.0</speed>
  <fix>3d</fix>
</trkpt>
<trkpt lat="40.072842" lon="-105.230575">
  <ele>1586.09</ele>
  <time>2026-08-28T19:08:48Z</time>
  <course>8.63</course>
  <speed>0.0</speed>
  <fix>3d</fix>
</trkpt>
<trkpt lat="40.072842" lon="-105.230575">
  <ele>1586.09</ele>
  <time>2026-08-28T19:08:48Z</time>
  <course>135.8</course>
  <speed>0.0</speed>
  <fix>3d</fix>
</trkpt>
<trkpt lat="40.072842" lon="-105.230575">
  <ele>1586.09</ele>
  <time>2026-08-28T19:08:48Z</time>
  <course>8.94</course>
  <speed>0.0</speed>
  <fix>3d</fix>
</trkpt>
<trkpt lat="40.072842" lon="-105.230575">
  <ele>1586.09</ele>
  <time>2026-08-28T19:08:48Z</time>
  <course>4.81</course>
  <speed>0.0</speed>
  <fix>3d</fix>
</trkpt>
<trkpt lat="40.072842" lon="-105.230575">
  <ele>1586.09</ele>
  <time>2026-08-28T19:08:48Z</time>
  <course>9.23</course>
  <speed>0.0</speed>
  <fix>3d</fix>
</trkpt>
<trkpt lat="40.072842" lon="-105.230575">
  <ele>1586.09</ele>
  <time>2026-08-28T19:08:48Z</time>
  <course>333.21</course>
  <speed>0.0</speed>
  <fix>3d</fix>
</trkpt>
<trkpt lat="40.072842" lon="-105.230575">
  <ele>1586.09</ele>
  <time>2026-08-28T19:08:48Z</time>
  <course>9.49</course>
  <speed>0.0</speed>
  <fix>3d</fix>
</trkpt>
<trkpt lat="40.072842" lon="-105.230575">
  <ele>1586.09</ele>
  <time>2026-08-28T19:08:48Z</time>
  <course>207.41</course>
  <speed>0.0</speed>
  <fix>3d</fix>
</trkpt>
<trkpt lat="40.072842" lon="-105.230575">
  <ele>1586.09</ele>
  <time>2026-08-28T19:08:48Z</time>
  <course>9.73</course>
  <speed>0.0</speed>
  <fix>3d</fix>
</trkpt>
<trkpt lat="40.072842" lon="-105.230575">
  <ele>1586.09</ele>
  <time>2026-08-28T19:08:48Z</time>
  <course>250.02</course>
  <speed>0.0</speed>
  <fix>3d</fix>
</trkpt>
<trkpt lat="40.072842" lon="-105.230575">
  <ele>1586.09</ele>
  <time>2026-08-28T19:08:48Z</time>
  <course>9.95</course>
  <speed>0.0</speed>
  <fix>3d</fix>
</trkpt>
<trkpt lat="40.072842" lon="-105.230575">
  <ele>1586.09</ele>
  <time>2026-08-28T19:08:48Z</time>
  <course>260.86</course>
  <speed>0.0</speed>
  <fix>3d</fix>
</trkpt>
<trkpt lat="40.072842" lon="-105.230575">
  <ele>1586.09</ele>
  <time>2026-08-28T19:08:48Z</time>
  <course>10.16</course>
  <speed>0.0</speed>
  <fix>3d</fix>
</trkpt>
<trkpt lat="40.072842" lon="-105.230575">
  <ele>1586.09</ele>
  <time>2026-08-28T19:08:48Z</time>
  <course>291.3</course>
  <speed>0.0</speed>
  <fix>3d</fix>
</trkpt>
<trkpt lat="40.072842" lon="-105.230575">
  <ele>1586.09</ele>
  <time>2026-08-28T19:08:48Z</time>
  <course>10.34</course>
  <speed>0.0</speed>
  <fix>3d</fix>
</trkpt>
<trkpt lat="40.072842" lon="-105.230575">
  <ele>1586.09</ele>
  <time>2026-08-28T19:08:48Z</time>
  <course>266.59</course>
  <speed>0.0</speed>
  <fix>3d</fix>
</trkpt>
<trkpt lat="40.072842" lon="-105.230575">
  <ele>1586.09</ele>
  <time>2026-08-28T19:08:48Z</time>
  <course>10.52</course>
  <speed>0.0</speed>
  <fix>3d</fix>
</trkpt>
<trkpt lat="40.072842" lon="-105.230575">
  <ele>1586.09</ele>
  <time>2026-08-28T19:08:48Z</time>
  <course>264.88</course>
  <speed>0.0</speed>
  <fix>3d</fix>
</trkpt>
<trkpt lat="40.072842" lon="-105.230575">
  <ele>1586.09</ele>
  <time>2026-08-28T19:08:48Z</time>
  <course>10.67</course>
  <speed>0.0</speed>
  <fix>3d</fix>
</trkpt>
<trkpt lat="40.072842" lon="-105.230575">
  <ele>1586.09</ele>
  <time>2026-08-28T19:08:48Z</time>
  <course>266.12</course>
  <speed>0.0</speed>
  <fix>3d</fix>
</trkpt>
<trkpt lat="40.072842" lon="-105.230575">
  <ele>1586.09</ele>
  <time>2026-08-28T19:08:48Z</time>
  <course>10.82</course>
  <speed>0.0</speed>
  <fix>3d</fix>
</trkpt>
<trkpt lat="40.072842" lon="-105.230575">
  <ele>1586.09</ele>
  <time>2026-08-28T19:08:48Z</time>
  <course>266.2</course>
  <speed>0.0</speed>
  <fix>3d</fix>
</trkpt>
<trkpt lat="40.072842" lon="-105.230575">
  <ele>1586.09</ele>
  <time>2026-08-28T19:08:48Z</time>
  <course>10.95</course>
  <speed>0.0</speed>
  <fix>3d</fix>
</trkpt>
<trkpt lat="40.072842" lon="-105.230575">
  <ele>1586.09</ele>
  <time>2026-08-28T19:08:48Z</time>
  <course>266.0</course>
  <speed>0.0</speed>
  <fix>3d</fix>
</trkpt>
<trkpt lat="40.072842" lon="-105.230575">
  <ele>1586.09</ele>
  <time>2026-08-28T19:08:48Z</time>
  <course>11.07</course>
  <speed>0.0</speed>
  <fix>3d</fix>
</trkpt>
<trkpt lat="40.072842" lon="-105.230575">
  <ele>1586.09</ele>
  <time>2026-08-28T19:08:48Z</time>
  <course>266.02</course>
  <speed>0.0</speed>
  <fix>3d</fix>
</trkpt>
<trkpt lat="40.072842" lon="-105.230575">
  <ele>1586.09</ele>
  <time>2026-08-28T19:08:48Z</time>
  <course>11.18</course>
  <speed>0.0</speed>
  <fix>3d</fix>
</trkpt>
<trkpt lat="40.072842" lon="-105.230575">
  <ele>1586.09</ele>
  <time>2026-08-28T19:08:48Z</time>
  <course>266.04</course>
  <speed>0.0</speed>
  <fix>3d</fix>
</trkpt>
<trkpt lat="40.072842" lon="-105.230575">
  <ele>1586.09</ele>
  <time>2026-08-28T19:08:48Z</time>
  <course>11.28</course>
  <speed>0.0</speed>
  <fix>3d</fix>
</trkpt>
<trkpt lat="40.072842" lon="-105.230575">
  <ele>1586.09</ele>
  <time>2026-08-28T19:08:48Z</time>
  <course>266.04</course>
  <speed>0.0</speed>
  <fix>3d</fix>
</trkpt>
<trkpt lat="40.072842" lon="-105.230575">
  <ele>1586.09</ele>
  <time>2026-08-28T19:08:48Z</time>
  <course>11.37</course>
  <speed>0.0</speed>
  <fix>3d</fix>
</trkpt>
<trkpt lat="40.072842" lon="-105.230575">
  <ele>1586.09</ele>
  <time>2026-08-28T19:08:48Z</time>
  <course>266.03</course>
  <speed>0.0</speed>
  <fix>3d</fix>
</trkpt>
<trkpt lat="40.072842" lon="-105.230575">
  <ele>1586.09</ele>
  <time>2026-08-28T19:08:48Z</time>
  <course>11.45</course>
  <speed>0.0</speed>
  <fix>3d</fix>
</trkpt>
<trkpt lat="40.072842" lon="-105.230575">
  <ele>1586.09</ele>
  <time>2026-08-28T19:08:48Z</time>
  <course>266.03</course>
  <speed>0.0</speed>
  <fix>3d</fix>
</trkpt>
<trkpt lat="40.072842" lon="-105.230575">
  <ele>1586.09</ele>
  <time>2026-08-28T19:08:48Z</time>
  <course>11.52</course>
  <speed>0.0</speed>
  <fix>3d</fix>
</trkpt>
<trkpt lat="40.072842" lon="-105.230575">
  <ele>1586.09</ele>
  <time>2026-08-28T19:08:48Z</time>
  <course>266.03</course>
  <speed>0.0</speed>
  <fix>3d</fix>
</trkpt>
<trkpt lat="40.072842" lon="-105.230575">
  <ele>1586.09</ele>
  <time>2026-08-28T19:08:48Z</time>
  <course>11.59</course>
  <speed>0.0</speed>
  <fix>3d</fix>
</trkpt>
<trkpt lat="40.072842" lon="-105.230575">
  <ele>1586.09</ele>
  <time>2026-08-28T19:08:48Z</time>
  <course>266.03</course>
  <speed>0.0</speed>
  <fix>3d</fix>
</trkpt>
<trkpt lat="40.072842" lon="-105.230575">
  <ele>1586.09</ele>
  <time>2026-08-28T19:08:48Z</time>
  <course>11.65</course>
  <speed>0.0</speed>
  <fix>3d</fix>
</trkpt>
<trkpt lat="40.072842" lon="-105.230575">
  <ele>1586.09</ele>
  <time>2026-08-28T19:08:48Z</time>
  <course>266.03</course>
  <speed>0.0</speed>
  <fix>3d</fix>
</trkpt>
<trkpt lat="40.072842" lon="-105.230575">
  <ele>1586.09</ele>
  <time>2026-08-28T19:08:48Z</time>
  <course>11.71</course>
  <speed>0.0</speed>
  <fix>3d</fix>
</trkpt>
<trkpt lat="40.072842" lon="-105.230575">
  <ele>1586.09</ele>
  <time>2026-08-28T19:08:48Z</time>
  <course>266.03</course>
  <speed>0.0</speed>
  <fix>3d</fix>
</trkpt>
<trkpt lat="40.072842" lon="-105.230575">
  <ele>1586.09</ele>
  <time>2026-08-28T19:08:48Z</time>
  <course>11.77</course>
  <speed>0.0</speed>
  <fix>3d</fix>
</trkpt>
<trkpt lat="40.072842" lon="-105.230575">
  <ele>1586.09</ele>
  <time>2026-08-28T19:08:48Z</time>
  <course>266.03</course>
  <speed>0.0</speed>
  <fix>3d</fix>
</trkpt>
<trkpt lat="40.072842" lon="-105.230575">
  <ele>1586.09</ele>
  <time>2026-08-28T19:08:48Z</time>
  <course>11.81</course>
  <speed>0.0</speed>
  <fix>3d</fix>
</trkpt>
<trkpt lat="40.072842" lon="-105.230575">
  <ele>1586.09</ele>
  <time>2026-08-28T19:08:48Z</time>
  <course>266.03</course>
  <speed>0.0</speed>
  <fix>3d</fix>
</trkpt>
<trkpt lat="40.072842" lon="-105.230575">
  <ele>1586.09</ele>
  <time>2026-08-28T19:08:48Z</time>
  <course>11.85</course>
  <speed>0.0</speed>
  <fix>3d</fix>
</trkpt>
<trkpt lat="40.072842" lon="-105.230575">
  <ele>1586.09</ele>
  <time>2026-08-28T19:08:48Z</time>
  <course>266.03</course>
  <speed>0.0</speed>
  <fix>3d</fix>
</trkpt>
<trkpt lat="40.072842" lon="-105.230575">
  <ele>1586.09</ele>
  <time>2026-08-28T19:08:48Z</time>
  <course>11.89</course>
  <speed>0.0</speed>
  <fix>3d</fix>
</trkpt>
<trkpt lat="40.072842" lon="-105.230575">
  <ele>1586.09</ele>
  <time>2026-08-28T19:08:48Z</time>
  <course>266.03</course>
  <speed>0.0</speed>
  <fix>3d</fix>
</trkpt>
<trkpt lat="40.072842" lon="-105.230575">
  <ele>1586.09</ele>
  <time>2026-08-28T19:08:48Z</time>
  <course>11.92</course>
  <speed>0.0</speed>
  <fix>3d</fix>
</trkpt>
<trkpt lat="40.072842" lon="-105.230575">
  <ele>1586.09</ele>
  <time>2026-08-28T19:08:48Z</time>
  <course>266.03</course>
  <speed>0.0</speed>
  <fix>3d</fix>
</trkpt>
<trkpt lat="40.072842" lon="-105.230575">
  <ele>1586.09</ele>
  <time>2026-08-28T19:08:48Z</time>
  <course>11.95</course>
  <speed>0.0</speed>
  <fix>3d</fix>
</trkpt>
<trkpt lat="40.072842" lon="-105.230575">
  <ele>1586.09</ele>
  <time>2026-08-28T19:08:48Z</time>
  <course>266.03</course>
  <speed>0.0</speed>
  <fix>3d</fix>
</trkpt>
<trkpt lat="40.072842" lon="-105.230575">
  <ele>1586.09</ele>
  <time>2026-08-28T19:08:48Z</time>
  <course>11.98</course>
  <speed>0.0</speed>
  <fix>3d</fix>
</trkpt>
<trkpt lat="40.072842" lon="-105.230575">
  <ele>1586.09</ele>
  <time>2026-08-28T19:08:48Z</time>
  <course>266.03</course>
  <speed>0.0</speed>
  <fix>3d</fix>
</trkpt>
<trkpt lat="40.072842" lon="-105.230575">
  <ele>1586.09</ele>
  <time>2026-08-28T19:08:48Z</time>
  <course>12.0</course>
  <speed>0.0</speed>
  <fix>3d</fix>
</trkpt>
<trkpt lat="40.072842" lon="-105.230575">
  <ele>1586.09</ele>
  <time>2026-08-28T19:08:48Z</time>
  <course>266.03</course>
  <speed>0.0</speed>
  <fix>3d</fix>
</trkpt>
<trkpt lat="40.072842" lon="-105.230575">
  <ele>1586.09</ele>
  <time>2026-08-28T19:08:48Z</time>
  <course>12.02</course>
  <speed>0.0</speed>
  <fix>3d</fix>
</trkpt>
<trkpt lat="40.072842" lon="-105.230575">
  <ele>1586.09</ele>
  <time>2026-08-28T19:08:48Z</time>
  <course>266.03</course>
  <speed>0.0</speed>
  <fix>3d</fix>
</trkpt>
<trkpt lat="40.072842" lon="-105.230575">
  <ele>1586.09</ele>
  <time>2026-08-28T19:08:48Z</time>
  <course>12.04</course>
  <speed>0.0</speed>
  <fix>3d</fix>
</trkpt>
<trkpt lat="40.072842" lon="-105.230575">
  <ele>1586.09</ele>
  <time>2026-08-28T19:08:48Z</time>
  <course>266.03</course>
  <speed>0.0</speed>
  <fix>3d</fix>
</trkpt>
<trkpt lat="40.072842" lon="-105.230575">
  <ele>1586.09</ele>
  <time>2026-08-28T19:08:48Z</time>
  <course>12.05</course>
  <speed>0.0</speed>
  <fix>3d</fix>
</trkpt>
<trkpt lat="40.072842" lon="-105.230575">
  <ele>1586.09</ele>
  <time>2026-08-28T19:08:48Z</time>
  <course>266.03</course>
  <speed>0.0</speed>
  <fix>3d</fix>
</trkpt>
<trkpt lat="40.072842" lon="-105.230575">
  <ele>1586.09</ele>
  <time>2026-08-28T19:08:48Z</time>
  <course>12.07</course>
  <speed>0.0</speed>
  <fix>3d</fix>
</trkpt>
<trkpt lat="40.072842" lon="-105.230575">
  <ele>1586.09</ele>
  <time>2026-08-28T19:08:48Z</time>
  <course>266.03</course>
  <speed>0.0</speed>
  <fix>3d</fix>
</trkpt>
<trkpt lat="40.072842" lon="-105.230575">
  <ele>1586.09</ele>
  <time>2026-08-28T19:08:48Z</time>
  <course>12.08</course>
  <speed>0.0</speed>
  <fix>3d</fix>
</trkpt>
<trkpt lat="40.072842" lon="-105.230575">
  <ele>1586.09</ele>
  <time>2026-08-28T19:08:48Z</time>
  <course>266.03</course>
  <speed>0.0</speed>
  <fix>3d</fix>
</trkpt>
<trkpt lat="40.072842" lon="-105.230575">
  <ele>1586.09</ele>
  <time>2026-08-28T19:08:48Z</time>
  <course>12.09</course>
  <speed>0.0</speed>
  <fix>3d</fix>
</trkpt>
<trkpt lat="40.072842" lon="-105.230575">
  <ele>1586.09</ele>
  <time>2026-08-28T19:08:48Z</time>
  <course>266.03</course>
  <speed>0.0</speed>
  <fix>3d</fix>
</trkpt>
<trkpt lat="40.072842" lon="-105.230575">
  <ele>1586.09</ele>
  <time>2026-08-28T19:08:48Z</time>
  <course>12.1</course>
  <speed>0.0</speed>
  <fix>3d</fix>
</trkpt>
<trkpt lat="40.072842" lon="-105.230575">
  <ele>1586.09</ele>
  <time>2026-08-28T19:08:48Z</time>
  <course>266.03</course>
  <speed>0.0</speed>
  <fix>3d</fix>
</trkpt>
<trkpt lat="40.072842" lon="-105.230575">
  <ele>1586.09</ele>
  <time>2026-08-28T19:08:48Z</time>
  <course>12.1</course>
  <speed>0.0</speed>
  <fix>3d</fix>
</trkpt>
<trkpt lat="40.072842" lon="-105.230575">
  <ele>1586.09</ele>
  <time>2026-08-28T19:08:48Z</time>
  <course>266.03</course>
  <speed>0.0</speed>
  <fix>3d</fix>
</trkpt>
<trkpt lat="40.072842" lon="-105.230575">
  <ele>1586.09</ele>
  <time>2026-08-28T19:08:48Z</time>
  <course>12.11</course>
  <speed>0.0</speed>
  <fix>3d</fix>
</trkpt>
<trkpt lat="40.072842" lon="-105.230575">
  <ele>1586.09</ele>
  <time>2026-08-28T19:08:48Z</time>
  <course>266.03</course>
  <speed>0.0</speed>
  <fix>3d</fix>
</trkpt>
<trkpt lat="40.072842" lon="-105.230575">
  <ele>1586.09</ele>
  <time>2026-08-28T19:08:48Z</time>
  <course>12.11</course>
  <speed>0.0</speed>
  <fix>3d</fix>
</trkpt>
<trkpt lat="40.072842" lon="-105.230575">
  <ele>1586.09</ele>
  <time>2026-08-28T19:08:48Z</time>
  <course>266.03</course>
  <speed>0.0</speed>
  <fix>3d</fix>
</trkpt>
<trkpt lat="40.072842" lon="-105.230575">
  <ele>1586.09</ele>
  <time>2026-08-28T19:08:48Z</time>
  <course>12.12</course>
  <speed>0.0</speed>
  <fix>3d</fix>
</trkpt>
<trkpt lat="40.072842" lon="-105.230575">
  <ele>1586.09</ele>
  <time>2026-08-28T19:08:48Z</time>
  <course>266.03</course>
  <speed>0.0</speed>
  <fix>3d</fix>
</trkpt>
<trkpt lat="40.072842" lon="-105.230575">
  <ele>1586.09</ele>
  <time>2026-08-28T19:08:48Z</time>
  <course>12.12</course>
  <speed>0.0</speed>
  <fix>3d</fix>
</trkpt>
<trkpt lat="40.072842" lon="-105.230575">
  <ele>1586.09</ele>
  <time>2026-08-28T19:08:48Z</time>
  <course>266.03</course>
  <speed>0.0</speed>
  <fix>3d</fix>
</trkpt>
<trkpt lat="40.072842" lon="-105.230575">
  <ele>1586.09</ele>
  <time>2026-08-28T19:08:48Z</time>
  <course>12.12</course>
  <speed>0.0</speed>
  <fix>3d</fix>
</trkpt>
<trkpt lat="40.072842" lon="-105.230575">
  <ele>1586.09</ele>
  <time>2026-08-28T19:08:48Z</time>
  <course>266.03</course>
  <speed>0.0</speed>
  <fix>3d</fix>
</trkpt>
<trkpt lat="40.072842" lon="-105.230575">
  <ele>1586.09</ele>
  <time>2026-08-28T19:08:48Z</time>
  <course>12.12</course>
  <speed>0.0</speed>
  <fix>3d</fix>
</trkpt>
<trkpt lat="40.072842" lon="-105.230575">
  <ele>1586.09</ele>
  <time>2026-08-28T19:08:48Z</time>
  <course>266.03</course>
  <speed>0.0</speed>
  <fix>3d</fix>
</trkpt>
<trkpt lat="40.072842" lon="-105.230575">
  <ele>1586.09</ele>
  <time>2026-08-28T19:08:48Z</time>
  <course>12.12</course>
  <speed>0.0</speed>
  <fix>3d</fix>
</trkpt>
<trkpt lat="40.072842" lon="-105.230575">
  <ele>1586.09</ele>
  <time>2026-08-28T19:08:48Z</time>
  <course>266.03</course>
  <speed>0.0</speed>
  <fix>3d</fix>
</trkpt>
<trkpt lat="40.072842" lon="-105.230575">
  <ele>1586.09</ele>
  <time>2026-08-28T19:08:48Z</time>
  <course>12.12</course>
  <speed>0.01</speed>
  <fix>3d</fix>
</trkpt>
<trkpt lat="40.072842" lon="-105.230575">
  <ele>1586.09</ele>
  <time>2026-08-28T19:08:48Z</time>
  <course>266.03</course>
  <speed>0.0</speed>
  <fix>3d</fix>
</trkpt>
<trkpt lat="40.072842" lon="-105.230575">
  <ele>1586.09</ele>
  <time>2026-08-28T19:08:48Z</time>
  <course>12.12</course>
  <speed>0.01</speed>
  <fix>3d</fix>
</trkpt>
<trkpt lat="40.072842" lon="-105.230575">
  <ele>1586.09</ele>
  <time>2026-08-28T19:08:48Z</time>
  <course>266.03</course>
  <speed>0.0</speed>
  <fix>3d</fix>
</trkpt>
<trkpt lat="40.072842" lon="-105.230575">
  <ele>1586.09</ele>
  <time>2026-08-28T19:08:48Z</time>
  <course>12.12</course>
  <speed>0.01</speed>
  <fix>3d</fix>
</trkpt>
<trkpt lat="40.072842" lon="-105.230575">
  <ele>1586.09</ele>
  <time>2026-08-28T19:08:48Z</time>
  <course>266.03</course>
  <speed>0.0</speed>
  <fix>3d</fix>
</trkpt>
<trkpt lat="40.072842" lon="-105.230575">
  <ele>1586.09</ele>
  <time>2026-08-28T19:08:48Z</time>
  <course>12.11</course>
  <speed>0.01</speed>
  <fix>3d</fix>
</trkpt>
<trkpt lat="40.072842" lon="-105.230575">
  <ele>1586.09</ele>
  <time>2026-08-28T19:08:48Z</time>
  <course>266.03</course>
  <speed>0.0</speed>
  <fix>3d</fix>
</trkpt>
<trkpt lat="40.072842" lon="-105.230575">
  <ele>1586.09</ele>
  <time>2026-08-28T19:08:48Z</time>
  <course>12.11</course>
  <speed>0.01</speed>
  <fix>3d</fix>
</trkpt>
<trkpt lat="40.072842" lon="-105.230575">
  <ele>1586.09</ele>
  <time>2026-08-28T19:08:48Z</time>
  <course>266.03</course>
  <speed>0.0</speed>
  <fix>3d</fix>
</trkpt>
<trkpt lat="40.072842" lon="-105.230575">
  <ele>1586.09</ele>
  <time>2026-08-28T19:08:48Z</time>
  <course>12.11</course>
  <speed>0.01</speed>
  <fix>3d</fix>
</trkpt>
<trkpt lat="40.072842" lon="-105.230575">
  <ele>1586.09</ele>
  <time>2026-08-28T19:08:48Z</time>
  <course>266.03</course>
  <speed>0.0</speed>
  <fix>3d</fix>
</trkpt>
<trkpt lat="40.072842" lon="-105.230575">
  <ele>1586.09</ele>
  <time>2026-08-28T19:08:48Z</time>
  <course>12.1</course>
  <speed>0.01</speed>
  <fix>3d</fix>
</trkpt>
<trkpt lat="40.072842" lon="-105.230575">
  <ele>1586.09</ele>
  <time>2026-08-28T19:08:48Z</time>
  <course>266.03</course>
  <speed>0.0</speed>
  <fix>3d</fix>
</trkpt>
<trkpt lat="40.072842" lon="-105.230575">
  <ele>1586.09</ele>
  <time>2026-08-28T19:08:48Z</time>
  <course>12.1</course>
  <speed>0.01</speed>
  <fix>3d</fix>
</trkpt>
<trkpt lat="40.072842" lon="-105.230575">
  <ele>1586.09</ele>
  <time>2026-08-28T19:08:48Z</time>
  <course>266.03</course>
  <speed>0.0</speed>
  <fix>3d</fix>
</trkpt>
<trkpt lat="40.072842" lon="-105.230575">
  <ele>1586.09</ele>
  <time>2026-08-28T19:08:48Z</time>
  <course>12.09</course>
  <speed>0.01</speed>
  <fix>3d</fix>
</trkpt>
<trkpt lat="40.072842" lon="-105.230575">
  <ele>1586.09</ele>
  <time>2026-08-28T19:08:48Z</time>
  <course>266.03</course>
  <speed>0.0</speed>
  <fix>3d</fix>
</trkpt>
<trkpt lat="40.072842" lon="-105.230575">
  <ele>1586.09</ele>
  <time>2026-08-28T19:08:48Z</time>
  <course>12.09</course>
  <speed>0.01</speed>
  <fix>3d</fix>
</trkpt>
<trkpt lat="40.072842" lon="-105.230575">
  <ele>1586.09</ele>
  <time>2026-08-28T19:08:48Z</time>
  <course>266.03</course>
  <speed>0.0</speed>
  <fix>3d</fix>
</trkpt>
<trkpt lat="40.072842" lon="-105.230575">
  <ele>1586.09</ele>
  <time>2026-08-28T19:08:48Z</time>
  <course>12.08</course>
  <speed>0.01414213562373095</speed>
  <fix>3d</fix>
</trkpt>
<trkpt lat="40.072842" lon="-105.230575">
  <ele>1586.09</ele>
  <time>2026-08-28T19:08:48Z</time>
  <course>266.03</course>
  <speed>0.0</speed>
  <fix>3d</fix>
</trkpt>
<trkpt lat="40.072842" lon="-105.230575">
  <ele>1586.09</ele>
  <time>2026-08-28T19:08:48Z</time>
  <course>12.07</course>
  <speed>0.01414213562373095</speed>
  <fix>3d</fix>
</trkpt>
<trkpt lat="40.072842" lon="-105.230575">
  <ele>1586.09</ele>
  <time>2026-08-28T19:08:48Z</time>
  <course>266.03</course>
  <speed>0.0</speed>
  <fix>3d</fix>
</trkpt>
<trkpt lat="40.072842" lon="-105.230575">
  <ele>1586.09</ele>
  <time>2026-08-28T19:08:48Z</time>
  <course>12.07</course>
  <speed>0.01414213562373095</speed>
  <fix>3d</fix>
</trkpt>
<trkpt lat="40.072842" lon="-105.230575">
  <ele>1586.09</ele>
  <time>2026-08-28T19:08:48Z</time>
  <course>266.03</course>
  <speed>0.0</speed>
  <fix>3d</fix>
</trkpt>
<trkpt lat="40.072842" lon="-105.230575">
  <ele>1586.09</ele>
  <time>2026-08-28T19:08:48Z</time>
  <course>12.06</course>
  <speed>0.01414213562373095</speed>
  <fix>3d</fix>
</trkpt>
<trkpt lat="40.072842" lon="-105.230575">
  <ele>1586.09</ele>
  <time>2026-08-28T19:08:48Z</time>
  <course>266.03</course>
  <speed>0.0</speed>
  <fix>3d</fix>
</trkpt>
<trkpt lat="40.072842" lon="-105.230575">
  <ele>1586.09</ele>
  <time>2026-08-28T19:08:48Z</time>
  <course>12.05</course>
  <speed>0.01414213562373095</speed>
  <fix>3d</fix>
</trkpt>
<trkpt lat="40.072842" lon="-105.230575">
  <ele>1586.09</ele>
  <time>2026-08-28T19:08:48Z</time>
  <course>266.03</course>
  <speed>0.0</speed>
  <fix>3d</fix>
</trkpt>
<trkpt lat="40.072842" lon="-105.230575">
  <ele>1586.09</ele>
  <time>2026-08-28T19:08:48Z</time>
  <course>12.05</course>
  <speed>0.01414213562373095</speed>
  <fix>3d</fix>
</trkpt>
<trkpt lat="40.072842" lon="-105.230575">
  <ele>1586.09</ele>
  <time>2026-08-28T19:08:48Z</time>
  <course>266.03</course>
  <speed>0.0</speed>
  <fix>3d</fix>
</trkpt>
<trkpt lat="40.072842" lon="-105.230575">
  <ele>1586.09</ele>
  <time>2026-08-28T19:08:48Z</time>
  <course>12.04</course>
  <speed>0.01414213562373095</speed>
  <fix>3d</fix>
</trkpt>
<trkpt lat="40.072842" lon="-105.230575">
  <ele>1586.09</ele>
  <time>2026-08-28T19:08:48Z</time>
  <course>266.03</course>
  <speed>0.0</speed>
  <fix>3d</fix>
</trkpt>
<trkpt lat="40.072842" lon="-105.230575">
  <ele>1586.09</ele>
  <time>2026-08-28T19:08:48Z</time>
  <course>12.03</course>
  <speed>0.01414213562373095</speed>
  <fix>3d</fix>
</trkpt>
<trkpt lat="40.072842" lon="-105.230575">
  <ele>1586.09</ele>
  <time>2026-08-28T19:08:48Z</time>
  <course>266.03</course>
  <speed>0.0</speed>
  <fix>3d</fix>
</trkpt>
<trkpt lat="40.072842" lon="-105.230575">
  <ele>1586.09</ele>
  <time>2026-08-28T19:08:48Z</time>
  <course>12.02</course>
  <speed>0.01414213562373095</speed>
  <fix>3d</fix>
</trkpt>
<trkpt lat="40.072842" lon="-105.230575">
  <ele>1586.09</ele>
  <time>2026-08-28T19:08:48Z</time>
  <course>266.03</course>
  <speed>0.0</speed>
  <fix>3d</fix>
</trkpt>
<trkpt lat="40.072842" lon="-105.230575">
  <ele>1586.09</ele>
  <time>2026-08-28T19:08:48Z</time>
  <course>12.02</course>
  <speed>0.01414213562373095</speed>
  <fix>3d</fix>
</trkpt>
<trkpt lat="40.072842" lon="-105.230575">
  <ele>1586.09</ele>
  <time>2026-08-28T19:08:48Z</time>
  <course>266.03</course>
  <speed>0.0</speed>
  <fix>3d</fix>
</trkpt>
<trkpt lat="40.072842" lon="-105.230575">
  <ele>1586.09</ele>
  <time>2026-08-28T19:08:48Z</time>
  <course>12.01</course>
  <speed>0.01414213562373095</speed>
  <fix>3d</fix>
</trkpt>
<trkpt lat="40.072842" lon="-105.230575">
  <ele>1586.09</ele>
  <time>2026-08-28T19:08:48Z</time>
  <course>266.03</course>
  <speed>0.0</speed>
  <fix>3d</fix>
</trkpt>
<trkpt lat="40.072842" lon="-105.230575">
  <ele>1586.09</ele>
  <time>2026-08-28T19:08:48Z</time>
  <course>12.0</course>
  <speed>0.01414213562373095</speed>
  <fix>3d</fix>
</trkpt>
<trkpt lat="40.072842" lon="-105.230575">
  <ele>1586.09</ele>
  <time>2026-08-28T19:08:48Z</time>
  <course>266.03</course>
  <speed>0.0</speed>
  <fix>3d</fix>
</trkpt>
<trkpt lat="40.072842" lon="-105.230575">
  <ele>1586.09</ele>
  <time>2026-08-28T19:08:48Z</time>
  <course>11.99</course>
  <speed>0.01414213562373095</speed>
  <fix>3d</fix>
</trkpt>
<trkpt lat="40.072842" lon="-105.230575">
  <ele>1586.09</ele>
  <time>2026-08-28T19:08:48Z</time>
  <course>266.03</course>
  <speed>0.0</speed>
  <fix>3d</fix>
</trkpt>
<trkpt lat="40.072842" lon="-105.230575">
  <ele>1586.09</ele>
  <time>2026-08-28T19:08:48Z</time>
  <course>11.99</course>
  <speed>0.01414213562373095</speed>
  <fix>3d</fix>
</trkpt>
<trkpt lat="40.072842" lon="-105.230575">
  <ele>1586.09</ele>
  <time>2026-08-28T19:08:48Z</time>
  <course>266.03</course>
  <speed>0.0</speed>
  <fix>3d</fix>
</trkpt>
<trkpt lat="40.072842" lon="-105.230575">
  <ele>1586.09</ele>
  <time>2026-08-28T19:08:48Z</time>
  <course>11.98</course>
  <speed>0.01414213562373095</speed>
  <fix>3d</fix>
</trkpt>
<trkpt lat="40.072842" lon="-105.230575">
  <ele>1586.09</ele>
  <time>2026-08-28T19:08:48Z</time>
  <course>266.03</course>
  <speed>0.0</speed>
  <fix>3d</fix>
</trkpt>
<trkpt lat="40.072842" lon="-105.230575">
  <ele>1586.09</ele>
  <time>2026-08-28T19:08:48Z</time>
  <course>11.97</course>
  <speed>0.01414213562373095</speed>
  <fix>3d</fix>
</trkpt>
<trkpt lat="40.072842" lon="-105.230575">
  <ele>1586.09</ele>
  <time>2026-08-28T19:08:48Z</time>
  <course>266.03</course>
  <speed>0.0</speed>
  <fix>3d</fix>
</trkpt>
<trkpt lat="40.072842" lon="-105.230575">
  <ele>1586.09</ele>
  <time>2026-08-28T19:08:48Z</time>
  <course>11.96</course>
  <speed>0.01414213562373095</speed>
  <fix>3d</fix>
</trkpt>
<trkpt lat="40.072842" lon="-105.230575">
  <ele>1586.09</ele>
  <time>2026-08-28T19:08:48Z</time>
  <course>266.03</course>
  <speed>0.0</speed>
  <fix>3d</fix>
</trkpt>
<trkpt lat="40.072842" lon="-105.230575">
  <ele>1586.09</ele>
  <time>2026-08-28T19:08:48Z</time>
  <course>11.95</course>
  <speed>0.022360679774997897</speed>
  <fix>3d</fix>
</trkpt>
<trkpt lat="40.072842" lon="-105.230575">
  <ele>1586.09</ele>
  <time>2026-08-28T19:08:48Z</time>
  <course>266.03</course>
  <speed>0.0</speed>
  <fix>3d</fix>
</trkpt>
<trkpt lat="40.072842" lon="-105.230575">
  <ele>1586.09</ele>
  <time>2026-08-28T19:08:48Z</time>
  <course>11.95</course>
  <speed>0.022360679774997897</speed>
  <fix>3d</fix>
</trkpt>
<trkpt lat="40.072842" lon="-105.230575">
  <ele>1586.09</ele>
  <time>2026-08-28T19:08:48Z</time>
  <course>266.03</course>
  <speed>0.0</speed>
  <fix>3d</fix>
</trkpt>
<trkpt lat="40.072842" lon="-105.230575">
  <ele>1586.09</ele>
  <time>2026-08-28T19:08:48Z</time>
  <course>11.94</course>
  <speed>0.022360679774997897</speed>
  <fix>3d</fix>
</trkpt>
<trkpt lat="40.072842" lon="-105.230575">
  <ele>1586.09</ele>
  <time>2026-08-28T19:08:48Z</time>
  <course>266.03</course>
  <speed>0.0</speed>
  <fix>3d</fix>
</trkpt>
<trkpt lat="40.072842" lon="-105.230575">
  <ele>1586.09</ele>
  <time>2026-08-28T19:08:48Z</time>
  <course>11.93</course>
  <speed>0.022360679774997897</speed>
  <fix>3d</fix>
</trkpt>
<trkpt lat="40.072842" lon="-105.230575">
  <ele>1586.09</ele>
  <time>2026-08-28T19:08:48Z</time>
  <course>266.03</course>
  <speed>0.0</speed>
  <fix>3d</fix>
</trkpt>
<trkpt lat="40.072842" lon="-105.230575">
  <ele>1586.09</ele>
  <time>2026-08-28T19:08:48Z</time>
  <course>11.92</course>
  <speed>0.022360679774997897</speed>
  <fix>3d</fix>
</trkpt>
<trkpt lat="40.072842" lon="-105.230575">
  <ele>1586.09</ele>
  <time>2026-08-28T19:08:48Z</time>
  <course>266.03</course>
  <speed>0.0</speed>
  <fix>3d</fix>
</trkpt>
<trkpt lat="40.072842" lon="-105.230575">
  <ele>1586.09</ele>
  <time>2026-08-28T19:08:48Z</time>
  <course>11.91</course>
  <speed>0.022360679774997897</speed>
  <fix>3d</fix>
</trkpt>
<trkpt lat="40.072842" lon="-105.230575">
  <ele>1586.09</ele>
  <time>2026-08-28T19:08:48Z</time>
  <course>266.03</course>
  <speed>0.0</speed>
  <fix>3d</fix>
</trkpt>
<trkpt lat="40.072842" lon="-105.230575">
  <ele>1586.09</ele>
  <time>2026-08-28T19:08:48Z</time>
  <course>11.91</course>
  <speed>0.022360679774997897</speed>
  <fix>3d</fix>
</trkpt>
<trkpt lat="40.072842" lon="-105.230575">
  <ele>1586.09</ele>
  <time>2026-08-28T19:08:48Z</time>
  <course>266.03</course>
  <speed>0.0</speed>
  <fix>3d</fix>
</trkpt>
<trkpt lat="40.072842" lon="-105.230575">
  <ele>1586.09</ele>
  <time>2026-08-28T19:08:48Z</time>
  <course>11.9</course>
  <speed>0.022360679774997897</speed>
  <fix>3d</fix>
</trkpt>
<trkpt lat="40.072842" lon="-105.230575">
  <ele>1586.09</ele>
  <time>2026-08-28T19:08:48Z</time>
  <course>266.03</course>
  <speed>0.0</speed>
  <fix>3d</fix>
</trkpt>
<trkpt lat="40.072842" lon="-105.230575">
  <ele>1586.09</ele>
  <time>2026-08-28T19:08:48Z</time>
  <course>11.89</course>
  <speed>0.022360679774997897</speed>
  <fix>3d</fix>
</trkpt>
<trkpt lat="40.072842" lon="-105.230575">
  <ele>1586.09</ele>
  <time>2026-08-28T19:08:48Z</time>
  <course>266.03</course>
  <speed>0.0</speed>
  <fix>3d</fix>
</trkpt>
<trkpt lat="40.072842" lon="-105.230575">
  <ele>1586.09</ele>
  <time>2026-08-28T19:08:48Z</time>
  <course>11.88</course>
  <speed>0.022360679774997897</speed>
  <fix>3d</fix>
</trkpt>
<trkpt lat="40.072842" lon="-105.230575">
  <ele>1586.09</ele>
  <time>2026-08-28T19:08:48Z</time>
  <course>266.03</course>
  <speed>0.0</speed>
  <fix>3d</fix>
</trkpt>
<trkpt lat="40.072842" lon="-105.230575">
  <ele>1586.09</ele>
  <time>2026-08-28T19:08:48Z</time>
  <course>11.87</course>
  <speed>0.022360679774997897</speed>
  <fix>3d</fix>
</trkpt>
<trkpt lat="40.072842" lon="-105.230575">
  <ele>1586.09</ele>
  <time>2026-08-28T19:08:48Z</time>
  <course>266.03</course>
  <speed>0.0</speed>
  <fix>3d</fix>
</trkpt>
<trkpt lat="40.072842" lon="-105.230575">
  <ele>1586.09</ele>
  <time>2026-08-28T19:08:48Z</time>
  <course>11.86</course>
  <speed>0.022360679774997897</speed>
  <fix>3d</fix>
</trkpt>
<trkpt lat="40.072842" lon="-105.230575">
  <ele>1586.09</ele>
  <time>2026-08-28T19:08:48Z</time>
  <course>266.03</course>
  <speed>0.0</speed>
  <fix>3d</fix>
</trkpt>
<trkpt lat="40.072842" lon="-105.230575">
  <ele>1586.09</ele>
  <time>2026-08-28T19:08:48Z</time>
  <course>11.86</course>
  <speed>0.022360679774997897</speed>
  <fix>3d</fix>
</trkpt>
<trkpt lat="40.072842" lon="-105.230575">
  <ele>1586.09</ele>
  <time>2026-08-28T19:08:48Z</time>
  <course>266.03</course>
  <speed>0.0</speed>
  <fix>3d</fix>
</trkpt>
<trkpt lat="40.072842" lon="-105.230575">
  <ele>1586.09</ele>
  <time>2026-08-28T19:08:48Z</time>
  <course>11.85</course>
  <speed>0.022360679774997897</speed>
  <fix>3d</fix>
</trkpt>
<trkpt lat="40.072842" lon="-105.230575">
  <ele>1586.09</ele>
  <time>2026-08-28T19:08:48Z</time>
  <course>266.03</course>
  <speed>0.0</speed>
  <fix>3d</fix>
</trkpt>
<trkpt lat="40.072842" lon="-105.230575">
  <ele>1586.09</ele>
  <time>2026-08-28T19:08:48Z</time>
  <course>11.84</course>
  <speed>0.022360679774997897</speed>
  <fix>3d</fix>
</trkpt>
<trkpt lat="40.072842" lon="-105.230575">
  <ele>1586.09</ele>
  <time>2026-08-28T19:08:48Z</time>
  <course>266.03</course>
  <speed>0.0</speed>
  <fix>3d</fix>
</trkpt>
<trkpt lat="40.072842" lon="-105.230575">
  <ele>1586.09</ele>
  <time>2026-08-28T19:08:48Z</time>
  <course>11.83</course>
  <speed>0.022360679774997897</speed>
  <fix>3d</fix>
</trkpt>
<trkpt lat="40.072842" lon="-105.230575">
  <ele>1586.09</ele>
  <time>2026-08-28T19:08:48Z</time>
  <course>266.03</course>
  <speed>0.0</speed>
  <fix>3d</fix>
</trkpt>
<trkpt lat="40.072842" lon="-105.230575">
  <ele>1586.09</ele>
  <time>2026-08-28T19:08:48Z</time>
  <course>11.82</course>
  <speed>0.022360679774997897</speed>
  <fix>3d</fix>
</trkpt>
<trkpt lat="40.072842" lon="-105.230575">
  <ele>1586.09</ele>
  <time>2026-08-28T19:08:48Z</time>
  <course>266.03</course>
  <speed>0.0</speed>
  <fix>3d</fix>
</trkpt>
<trkpt lat="40.072842" lon="-105.230575">
  <ele>1586.09</ele>
  <time>2026-08-28T19:08:48Z</time>
  <course>11.82</course>
  <speed>0.0282842712474619</speed>
  <fix>3d</fix>
</trkpt>
<trkpt lat="40.072842" lon="-105.230575">
  <ele>1586.09</ele>
  <time>2026-08-28T19:08:48Z</time>
  <course>266.03</course>
  <speed>0.0</speed>
  <fix>3d</fix>
</trkpt>
<trkpt lat="40.072842" lon="-105.230575">
  <ele>1586.09</ele>
  <time>2026-08-28T19:08:49Z</time>
  <course>11.81</course>
  <speed>0.0282842712474619</speed>
  <fix>3d</fix>
</trkpt>
<trkpt lat="40.072842" lon="-105.230575">
  <ele>1586.09</ele>
  <time>2026-08-28T19:08:49Z</time>
  <course>266.03</course>
  <speed>0.0</speed>
  <fix>3d</fix>
</trkpt>
<trkpt lat="40.072842" lon="-105.230575">
  <ele>1586.09</ele>
  <time>2026-08-28T19:08:49Z</time>
  <course>11.8</course>
  <speed>0.0282842712474619</speed>
  <fix>3d</fix>
</trkpt>
<trkpt lat="40.072842" lon="-105.230575">
  <ele>1586.09</ele>
  <time>2026-08-28T19:08:49Z</time>
  <course>266.03</course>
  <speed>0.0</speed>
  <fix>3d</fix>
</trkpt>
<trkpt lat="40.072842" lon="-105.230575">
  <ele>1586.09</ele>
  <time>2026-08-28T19:08:49Z</time>
  <course>11.79</course>
  <speed>0.0282842712474619</speed>
  <fix>3d</fix>
</trkpt>
<trkpt lat="40.072842" lon="-105.230575">
  <ele>1586.09</ele>
  <time>2026-08-28T19:08:49Z</time>
  <course>266.03</course>
  <speed>0.0</speed>
  <fix>3d</fix>
</trkpt>
<trkpt lat="40.072842" lon="-105.230575">
  <ele>1586.09</ele>
  <time>2026-08-28T19:08:49Z</time>
  <course>11.78</course>
  <speed>0.0282842712474619</speed>
  <fix>3d</fix>
</trkpt>
<trkpt lat="40.072842" lon="-105.230575">
  <ele>1586.09</ele>
  <time>2026-08-28T19:08:49Z</time>
  <course>266.03</course>
  <speed>0.0</speed>
  <fix>3d</fix>
</trkpt>
<trkpt lat="40.072842" lon="-105.230575">
  <ele>1586.09</ele>
  <time>2026-08-28T19:08:49Z</time>
  <course>11.78</course>
  <speed>0.0282842712474619</speed>
  <fix>3d</fix>
</trkpt>
<trkpt lat="40.072842" lon="-105.230575">
  <ele>1586.09</ele>
  <time>2026-08-28T19:08:49Z</time>
  <course>266.03</course>
  <speed>0.0</speed>
  <fix>3d</fix>
</trkpt>
<trkpt lat="40.072842" lon="-105.230575">
  <ele>1586.09</ele>
  <time>2026-08-28T19:08:49Z</time>
  <course>11.77</course>
  <speed>0.0282842712474619</speed>
  <fix>3d</fix>
</trkpt>
<trkpt lat="40.072842" lon="-105.230575">
  <ele>1586.09</ele>
  <time>2026-08-28T19:08:49Z</time>
  <course>266.03</course>
  <speed>0.0</speed>
  <fix>3d</fix>
</trkpt>
<trkpt lat="40.072842" lon="-105.230575">
  <ele>1586.09</ele>
  <time>2026-08-28T19:08:49Z</time>
  <course>11.76</course>
  <speed>0.0282842712474619</speed>
  <fix>3d</fix>
</trkpt>
<trkpt lat="40.072842" lon="-105.230575">
  <ele>1586.09</ele>
  <time>2026-08-28T19:08:49Z</time>
  <course>266.03</course>
  <speed>0.0</speed>
  <fix>3d</fix>
</trkpt>
<trkpt lat="40.072842" lon="-105.230575">
  <ele>1586.09</ele>
  <time>2026-08-28T19:08:49Z</time>
  <course>11.76</course>
  <speed>0.0282842712474619</speed>
  <fix>3d</fix>
</trkpt>
<trkpt lat="40.072842" lon="-105.230575">
  <ele>1586.09</ele>
  <time>2026-08-28T19:08:49Z</time>
  <course>266.03</course>
  <speed>0.0</speed>
  <fix>3d</fix>
</trkpt>
<trkpt lat="40.072842" lon="-105.230575">
  <ele>1586.09</ele>
  <time>2026-08-28T19:08:49Z</time>
  <course>11.75</course>
  <speed>0.0282842712474619</speed>
  <fix>3d</fix>
</trkpt>
<trkpt lat="40.072842" lon="-105.230575">
  <ele>1586.09</ele>
  <time>2026-08-28T19:08:49Z</time>
  <course>266.03</course>
  <speed>0.0</speed>
  <fix>3d</fix>
</trkpt>
<trkpt lat="40.072842" lon="-105.230575">
  <ele>1586.09</ele>
  <time>2026-08-28T19:08:49Z</time>
  <course>11.74</course>
  <speed>0.03605551275463989</speed>
  <fix>3d</fix>
</trkpt>
<trkpt lat="40.072842" lon="-105.230575">
  <ele>1586.09</ele>
  <time>2026-08-28T19:08:49Z</time>
  <course>266.03</course>
  <speed>0.0</speed>
  <fix>3d</fix>
</trkpt>
<trkpt lat="40.072842" lon="-105.230575">
  <ele>1586.09</ele>
  <time>2026-08-28T19:08:49Z</time>
  <course>11.73</course>
  <speed>0.03605551275463989</speed>
  <fix>3d</fix>
</trkpt>
<trkpt lat="40.072842" lon="-105.230575">
  <ele>1586.09</ele>
  <time>2026-08-28T19:08:49Z</time>
  <course>266.03</course>
  <speed>0.0</speed>
  <fix>3d</fix>
</trkpt>
<trkpt lat="40.072842" lon="-105.230575">
  <ele>1586.09</ele>
  <time>2026-08-28T19:08:49Z</time>
  <course>11.73</course>
  <speed>0.03605551275463989</speed>
  <fix>3d</fix>
</trkpt>
<trkpt lat="40.072842" lon="-105.230575">
  <ele>1586.09</ele>
  <time>2026-08-28T19:08:49Z</time>
  <course>266.03</course>
  <speed>0.0</speed>
  <fix>3d</fix>
</trkpt>
<trkpt lat="40.072842" lon="-105.230575">
  <ele>1586.09</ele>
  <time>2026-08-28T19:08:49Z</time>
  <course>11.72</course>
  <speed>0.03605551275463989</speed>
  <fix>3d</fix>
</trkpt>
<trkpt lat="40.072842" lon="-105.230575">
  <ele>1586.09</ele>
  <time>2026-08-28T19:08:49Z</time>
  <course>266.03</course>
  <speed>0.0</speed>
  <fix>3d</fix>
</trkpt>
<trkpt lat="40.072842" lon="-105.230575">
  <ele>1586.09</ele>
  <time>2026-08-28T19:08:49Z</time>
  <course>11.71</course>
  <speed>0.03605551275463989</speed>
  <fix>3d</fix>
</trkpt>
<trkpt lat="40.072842" lon="-105.230575">
  <ele>1586.09</ele>
  <time>2026-08-28T19:08:49Z</time>
  <course>266.03</course>
  <speed>0.0</speed>
  <fix>3d</fix>
</trkpt>
<trkpt lat="40.072842" lon="-105.230575">
  <ele>1586.09</ele>
  <time>2026-08-28T19:08:49Z</time>
  <course>11.7</course>
  <speed>0.03605551275463989</speed>
  <fix>3d</fix>
</trkpt>
<trkpt lat="40.072842" lon="-105.230575">
  <ele>1586.09</ele>
  <time>2026-08-28T19:08:49Z</time>
  <course>266.03</course>
  <speed>0.0</speed>
  <fix>3d</fix>
</trkpt>
<trkpt lat="40.072842" lon="-105.230575">
  <ele>1586.09</ele>
  <time>2026-08-28T19:08:49Z</time>
  <course>11.69</course>
  <speed>0.03605551275463989</speed>
  <fix>3d</fix>
</trkpt>
<trkpt lat="40.072842" lon="-105.230575">
  <ele>1586.09</ele>
  <time>2026-08-28T19:08:49Z</time>
  <course>266.03</course>
  <speed>0.0</speed>
  <fix>3d</fix>
</trkpt>
<trkpt lat="40.072842" lon="-105.230575">
  <ele>1586.09</ele>
  <time>2026-08-28T19:08:49Z</time>
  <course>11.69</course>
  <speed>0.03605551275463989</speed>
  <fix>3d</fix>
</trkpt>
<trkpt lat="40.072842" lon="-105.230575">
  <ele>1586.09</ele>
  <time>2026-08-28T19:08:49Z</time>
  <course>266.03</course>
  <speed>0.0</speed>
  <fix>3d</fix>
</trkpt>
<trkpt lat="40.072842" lon="-105.230575">
  <ele>1586.09</ele>
  <time>2026-08-28T19:08:49Z</time>
  <course>11.68</course>
  <speed>0.03605551275463989</speed>
  <fix>3d</fix>
</trkpt>
<trkpt lat="40.072842" lon="-105.230575">
  <ele>1586.09</ele>
  <time>2026-08-28T19:08:49Z</time>
  <course>266.03</course>
  <speed>0.0</speed>
  <fix>3d</fix>
</trkpt>
<trkpt lat="40.072842" lon="-105.230575">
  <ele>1586.09</ele>
  <time>2026-08-28T19:08:49Z</time>
  <course>11.67</course>
  <speed>0.03605551275463989</speed>
  <fix>3d</fix>
</trkpt>
<trkpt lat="40.072842" lon="-105.230575">
  <ele>1586.09</ele>
  <time>2026-08-28T19:08:49Z</time>
  <course>266.03</course>
  <speed>0.0</speed>
  <fix>3d</fix>
</trkpt>
<trkpt lat="40.072842" lon="-105.230575">
  <ele>1586.09</ele>
  <time>2026-08-28T19:08:49Z</time>
  <course>11.67</course>
  <speed>0.03605551275463989</speed>
  <fix>3d</fix>
</trkpt>
<trkpt lat="40.072842" lon="-105.230575">
  <ele>1586.09</ele>
  <time>2026-08-28T19:08:49Z</time>
  <course>266.03</course>
  <speed>0.0</speed>
  <fix>3d</fix>
</trkpt>
<trkpt lat="40.072842" lon="-105.230575">
  <ele>1586.09</ele>
  <time>2026-08-28T19:08:49Z</time>
  <course>11.66</course>
  <speed>0.03605551275463989</speed>
  <fix>3d</fix>
</trkpt>
<trkpt lat="40.072842" lon="-105.230575">
  <ele>1586.09</ele>
  <time>2026-08-28T19:08:49Z</time>
  <course>266.03</course>
  <speed>0.0</speed>
  <fix>3d</fix>
</trkpt>
<trkpt lat="40.072842" lon="-105.230575">
  <ele>1586.09</ele>
  <time>2026-08-28T19:08:49Z</time>
  <course>11.65</course>
  <speed>0.03605551275463989</speed>
  <fix>3d</fix>
</trkpt>
<trkpt lat="40.072842" lon="-105.230575">
  <ele>1586.09</ele>
  <time>2026-08-28T19:08:49Z</time>
  <course>266.03</course>
  <speed>0.0</speed>
  <fix>3d</fix>
</trkpt>
<trkpt lat="40.072842" lon="-105.230575">
  <ele>1586.09</ele>
  <time>2026-08-28T19:08:49Z</time>
  <course>11.65</course>
  <speed>0.03605551275463989</speed>
  <fix>3d</fix>
</trkpt>
<trkpt lat="40.072842" lon="-105.230575">
  <ele>1586.09</ele>
  <time>2026-08-28T19:08:49Z</time>
  <course>266.03</course>
  <speed>0.0</speed>
  <fix>3d</fix>
</trkpt>
<trkpt lat="40.072842" lon="-105.230575">
  <ele>1586.09</ele>
  <time>2026-08-28T19:08:49Z</time>
  <course>11.64</course>
  <speed>0.03605551275463989</speed>
  <fix>3d</fix>
</trkpt>
<trkpt lat="40.072842" lon="-105.230575">
  <ele>1586.09</ele>
  <time>2026-08-28T19:08:49Z</time>
  <course>266.03</course>
  <speed>0.0</speed>
  <fix>3d</fix>
</trkpt>
<trkpt lat="40.072842" lon="-105.230575">
  <ele>1586.09</ele>
  <time>2026-08-28T19:08:49Z</time>
  <course>11.63</course>
  <speed>0.03605551275463989</speed>
  <fix>3d</fix>
</trkpt>
<trkpt lat="40.072842" lon="-105.230575">
  <ele>1586.09</ele>
  <time>2026-08-28T19:08:49Z</time>
  <course>266.03</course>
  <speed>0.0</speed>
  <fix>3d</fix>
</trkpt>
<trkpt lat="40.072842" lon="-105.230575">
  <ele>1586.09</ele>
  <time>2026-08-28T19:08:49Z</time>
  <course>11.62</course>
  <speed>0.03605551275463989</speed>
  <fix>3d</fix>
</trkpt>
<trkpt lat="40.072842" lon="-105.230575">
  <ele>1586.09</ele>
  <time>2026-08-28T19:08:49Z</time>
  <course>266.03</course>
  <speed>0.0</speed>
  <fix>3d</fix>
</trkpt>
<trkpt lat="40.072842" lon="-105.230575">
  <ele>1586.09</ele>
  <time>2026-08-28T19:08:49Z</time>
  <course>11.62</course>
  <speed>0.03605551275463989</speed>
  <fix>3d</fix>
</trkpt>
<trkpt lat="40.072842" lon="-105.230575">
  <ele>1586.09</ele>
  <time>2026-08-28T19:08:49Z</time>
  <course>266.03</course>
  <speed>0.0</speed>
  <fix>3d</fix>
</trkpt>
<trkpt lat="40.072842" lon="-105.230575">
  <ele>1586.09</ele>
  <time>2026-08-28T19:08:49Z</time>
  <course>11.61</course>
  <speed>0.03605551275463989</speed>
  <fix>3d</fix>
</trkpt>
<trkpt lat="40.072842" lon="-105.230575">
  <ele>1586.09</ele>
  <time>2026-08-28T19:08:49Z</time>
  <course>266.03</course>
  <speed>0.0</speed>
  <fix>3d</fix>
</trkpt>
<trkpt lat="40.072842" lon="-105.230575">
  <ele>1586.09</ele>
  <time>2026-08-28T19:08:49Z</time>
  <course>11.61</course>
  <speed>0.03605551275463989</speed>
  <fix>3d</fix>
</trkpt>
<trkpt lat="40.072842" lon="-105.230575">
  <ele>1586.09</ele>
  <time>2026-08-28T19:08:49Z</time>
  <course>266.03</course>
  <speed>0.0</speed>
  <fix>3d</fix>
</trkpt>
<trkpt lat="40.072842" lon="-105.230575">
  <ele>1586.09</ele>
  <time>2026-08-28T19:08:49Z</time>
  <course>11.6</course>
  <speed>0.03605551275463989</speed>
  <fix>3d</fix>
</trkpt>
<trkpt lat="40.072842" lon="-105.230575">
  <ele>1586.09</ele>
  <time>2026-08-28T19:08:49Z</time>
  <course>266.03</course>
  <speed>0.0</speed>
  <fix>3d</fix>
</trkpt>
<trkpt lat="40.072842" lon="-105.230575">
  <ele>1586.09</ele>
  <time>2026-08-28T19:08:49Z</time>
  <course>11.59</course>
  <speed>0.03605551275463989</speed>
  <fix>3d</fix>
</trkpt>
<trkpt lat="40.072842" lon="-105.230575">
  <ele>1586.09</ele>
  <time>2026-08-28T19:08:49Z</time>
  <course>266.03</course>
  <speed>0.0</speed>
  <fix>3d</fix>
</trkpt>
<trkpt lat="40.072842" lon="-105.230575">
  <ele>1586.09</ele>
  <time>2026-08-28T19:08:49Z</time>
  <course>11.59</course>
  <speed>0.03605551275463989</speed>
  <fix>3d</fix>
</trkpt>
<trkpt lat="40.072842" lon="-105.230575">
  <ele>1586.09</ele>
  <time>2026-08-28T19:08:49Z</time>
  <course>266.03</course>
  <speed>0.0</speed>
  <fix>3d</fix>
</trkpt>
<trkpt lat="40.072842" lon="-105.230575">
  <ele>1586.09</ele>
  <time>2026-08-28T19:08:49Z</time>
  <course>11.58</course>
  <speed>0.03605551275463989</speed>
  <fix>3d</fix>
</trkpt>
<trkpt lat="40.072842" lon="-105.230575">
  <ele>1586.09</ele>
  <time>2026-08-28T19:08:49Z</time>
  <course>266.03</course>
  <speed>0.0</speed>
  <fix>3d</fix>
</trkpt>
<trkpt lat="40.072842" lon="-105.230575">
  <ele>1586.09</ele>
  <time>2026-08-28T19:08:49Z</time>
  <course>11.57</course>
  <speed>0.03605551275463989</speed>
  <fix>3d</fix>
</trkpt>
<trkpt lat="40.072842" lon="-105.230575">
  <ele>1586.09</ele>
  <time>2026-08-28T19:08:49Z</time>
  <course>266.03</course>
  <speed>0.0</speed>
  <fix>3d</fix>
</trkpt>
<trkpt lat="40.072842" lon="-105.230575">
  <ele>1586.09</ele>
  <time>2026-08-28T19:08:49Z</time>
  <course>11.57</course>
  <speed>0.03605551275463989</speed>
  <fix>3d</fix>
</trkpt>
<trkpt lat="40.072842" lon="-105.230575">
  <ele>1586.09</ele>
  <time>2026-08-28T19:08:49Z</time>
  <course>266.03</course>
  <speed>0.0</speed>
  <fix>3d</fix>
</trkpt>
<trkpt lat="40.072842" lon="-105.230575">
  <ele>1586.09</ele>
  <time>2026-08-28T19:08:49Z</time>
  <course>11.56</course>
  <speed>0.03605551275463989</speed>
  <fix>3d</fix>
</trkpt>
<trkpt lat="40.072842" lon="-105.230575">
  <ele>1586.09</ele>
  <time>2026-08-28T19:08:49Z</time>
  <course>266.03</course>
  <speed>0.0</speed>
  <fix>3d</fix>
</trkpt>
<trkpt lat="40.072842" lon="-105.230575">
  <ele>1586.09</ele>
  <time>2026-08-28T19:08:49Z</time>
  <course>11.56</course>
  <speed>0.03605551275463989</speed>
  <fix>3d</fix>
</trkpt>
<trkpt lat="40.072842" lon="-105.230575">
  <ele>1586.09</ele>
  <time>2026-08-28T19:08:49Z</time>
  <course>266.03</course>
  <speed>0.0</speed>
  <fix>3d</fix>
</trkpt>
<trkpt lat="40.072842" lon="-105.230575">
  <ele>1586.09</ele>
  <time>2026-08-28T19:08:49Z</time>
  <course>11.55</course>
  <speed>0.03605551275463989</speed>
  <fix>3d</fix>
</trkpt>
<trkpt lat="40.072842" lon="-105.230575">
  <ele>1586.09</ele>
  <time>2026-08-28T19:08:49Z</time>
  <course>266.03</course>
  <speed>0.0</speed>
  <fix>3d</fix>
</trkpt>
<trkpt lat="40.072842" lon="-105.230575">
  <ele>1586.09</ele>
  <time>2026-08-28T19:08:49Z</time>
  <course>11.54</course>
  <speed>0.03605551275463989</speed>
  <fix>3d</fix>
</trkpt>
<trkpt lat="40.072842" lon="-105.230575">
  <ele>1586.09</ele>
  <time>2026-08-28T19:08:49Z</time>
  <course>266.03</course>
  <speed>0.0</speed>
  <fix>3d</fix>
</trkpt>
<trkpt lat="40.072842" lon="-105.230575">
  <ele>1586.09</ele>
  <time>2026-08-28T19:08:49Z</time>
  <course>11.54</course>
  <speed>0.03605551275463989</speed>
  <fix>3d</fix>
</trkpt>
<trkpt lat="40.072842" lon="-105.230575">
  <ele>1586.09</ele>
  <time>2026-08-28T19:08:49Z</time>
  <course>266.03</course>
  <speed>0.0</speed>
  <fix>3d</fix>
</trkpt>
<trkpt lat="40.072842" lon="-105.230575">
  <ele>1586.09</ele>
  <time>2026-08-28T19:08:49Z</time>
  <course>11.53</course>
  <speed>0.03605551275463989</speed>
  <fix>3d</fix>
</trkpt>
<trkpt lat="40.072842" lon="-105.230575">
  <ele>1586.09</ele>
  <time>2026-08-28T19:08:49Z</time>
  <course>266.03</course>
  <speed>0.0</speed>
  <fix>3d</fix>
</trkpt>
<trkpt lat="40.072842" lon="-105.230575">
  <ele>1586.09</ele>
  <time>2026-08-28T19:08:49Z</time>
  <course>11.53</course>
  <speed>0.03605551275463989</speed>
  <fix>3d</fix>
</trkpt>
<trkpt lat="40.072842" lon="-105.230575">
  <ele>1586.09</ele>
  <time>2026-08-28T19:08:49Z</time>
  <course>266.03</course>
  <speed>0.0</speed>
  <fix>3d</fix>
</trkpt>
<trkpt lat="40.072842" lon="-105.230575">
  <ele>1586.09</ele>
  <time>2026-08-28T19:08:49Z</time>
  <course>11.52</course>
  <speed>0.03605551275463989</speed>
  <fix>3d</fix>
</trkpt>
<trkpt lat="40.072842" lon="-105.230575">
  <ele>1586.09</ele>
  <time>2026-08-28T19:08:49Z</time>
  <course>266.03</course>
  <speed>0.0</speed>
  <fix>3d</fix>
</trkpt>
<trkpt lat="40.072842" lon="-105.230575">
  <ele>1586.09</ele>
  <time>2026-08-28T19:08:49Z</time>
  <course>11.51</course>
  <speed>0.03605551275463989</speed>
  <fix>3d</fix>
</trkpt>
<trkpt lat="40.072842" lon="-105.230575">
  <ele>1586.09</ele>
  <time>2026-08-28T19:08:49Z</time>
  <course>266.03</course>
  <speed>0.0</speed>
  <fix>3d</fix>
</trkpt>
<trkpt lat="40.072842" lon="-105.230575">
  <ele>1586.09</ele>
  <time>2026-08-28T19:08:49Z</time>
  <course>11.51</course>
  <speed>0.03605551275463989</speed>
  <fix>3d</fix>
</trkpt>
<trkpt lat="40.072842" lon="-105.230575">
  <ele>1586.09</ele>
  <time>2026-08-28T19:08:49Z</time>
  <course>266.03</course>
  <speed>0.0</speed>
  <fix>3d</fix>
</trkpt>
<trkpt lat="40.072842" lon="-105.230575">
  <ele>1586.09</ele>
  <time>2026-08-28T19:08:49Z</time>
  <course>11.5</course>
  <speed>0.03605551275463989</speed>
  <fix>3d</fix>
</trkpt>
<trkpt lat="40.072842" lon="-105.230575">
  <ele>1586.09</ele>
  <time>2026-08-28T19:08:49Z</time>
  <course>266.03</course>
  <speed>0.0</speed>
  <fix>3d</fix>
</trkpt>
<trkpt lat="40.072842" lon="-105.230575">
  <ele>1586.09</ele>
  <time>2026-08-28T19:08:49Z</time>
  <course>11.5</course>
  <speed>0.03605551275463989</speed>
  <fix>3d</fix>
</trkpt>
<trkpt lat="40.072842" lon="-105.230575">
  <ele>1586.09</ele>
  <time>2026-08-28T19:08:49Z</time>
  <course>266.03</course>
  <speed>0.0</speed>
  <fix>3d</fix>
</trkpt>
<trkpt lat="40.072842" lon="-105.230575">
  <ele>1586.09</ele>
  <time>2026-08-28T19:08:49Z</time>
  <course>11.49</course>
  <speed>0.044721359549995794</speed>
  <fix>3d</fix>
</trkpt>
<trkpt lat="40.072842" lon="-105.230575">
  <ele>1586.09</ele>
  <time>2026-08-28T19:08:49Z</time>
  <course>266.03</course>
  <speed>0.0</speed>
  <fix>3d</fix>
</trkpt>
<trkpt lat="40.072842" lon="-105.230575">
  <ele>1586.09</ele>
  <time>2026-08-28T19:08:49Z</time>
  <course>11.49</course>
  <speed>0.044721359549995794</speed>
  <fix>3d</fix>
</trkpt>
<trkpt lat="40.072842" lon="-105.230575">
  <ele>1586.09</ele>
  <time>2026-08-28T19:08:49Z</time>
  <course>266.03</course>
  <speed>0.0</speed>
  <fix>3d</fix>
</trkpt>
<trkpt lat="40.072842" lon="-105.230575">
  <ele>1586.09</ele>
  <time>2026-08-28T19:08:49Z</time>
  <course>11.48</course>
  <speed>0.044721359549995794</speed>
  <fix>3d</fix>
</trkpt>
<trkpt lat="40.072842" lon="-105.230575">
  <ele>1586.09</ele>
  <time>2026-08-28T19:08:49Z</time>
  <course>266.03</course>
  <speed>0.0</speed>
  <fix>3d</fix>
</trkpt>
<trkpt lat="40.072842" lon="-105.230575">
  <ele>1586.09</ele>
  <time>2026-08-28T19:08:49Z</time>
  <course>11.48</course>
  <speed>0.044721359549995794</speed>
  <fix>3d</fix>
</trkpt>
<trkpt lat="40.072842" lon="-105.230575">
  <ele>1586.09</ele>
  <time>2026-08-28T19:08:49Z</time>
  <course>266.03</course>
  <speed>0.0</speed>
  <fix>3d</fix>
</trkpt>
<trkpt lat="40.072842" lon="-105.230575">
  <ele>1586.09</ele>
  <time>2026-08-28T19:08:49Z</time>
  <course>11.47</course>
  <speed>0.044721359549995794</speed>
  <fix>3d</fix>
</trkpt>
<trkpt lat="40.072842" lon="-105.230575">
  <ele>1586.09</ele>
  <time>2026-08-28T19:08:49Z</time>
  <course>266.03</course>
  <speed>0.0</speed>
  <fix>3d</fix>
</trkpt>
<trkpt lat="40.072842" lon="-105.230575">
  <ele>1586.09</ele>
  <time>2026-08-28T19:08:49Z</time>
  <course>11.47</course>
  <speed>0.044721359549995794</speed>
  <fix>3d</fix>
</trkpt>
<trkpt lat="40.072842" lon="-105.230575">
  <ele>1586.09</ele>
  <time>2026-08-28T19:08:49Z</time>
  <course>266.03</course>
  <speed>0.0</speed>
  <fix>3d</fix>
</trkpt>
<trkpt lat="40.072842" lon="-105.230575">
  <ele>1586.09</ele>
  <time>2026-08-28T19:08:49Z</time>
  <course>11.46</course>
  <speed>0.044721359549995794</speed>
  <fix>3d</fix>
</trkpt>
<trkpt lat="40.072842" lon="-105.230575">
  <ele>1586.09</ele>
  <time>2026-08-28T19:08:49Z</time>
  <course>266.03</course>
  <speed>0.0</speed>
  <fix>3d</fix>
</trkpt>
<trkpt lat="40.072842" lon="-105.230575">
  <ele>1586.09</ele>
  <time>2026-08-28T19:08:49Z</time>
  <course>11.46</course>
  <speed>0.044721359549995794</speed>
  <fix>3d</fix>
</trkpt>
<trkpt lat="40.072842" lon="-105.230575">
  <ele>1586.09</ele>
  <time>2026-08-28T19:08:49Z</time>
  <course>266.03</course>
  <speed>0.0</speed>
  <fix>3d</fix>
</trkpt>
<trkpt lat="40.072842" lon="-105.230575">
  <ele>1586.15</ele>
  <time>2026-08-28T19:08:49Z</time>
  <course>11.45</course>
  <speed>0.0</speed>
  <fix>3d</fix>
</trkpt>
<trkpt lat="40.072842" lon="-105.230575">
  <ele>1586.09</ele>
  <time>2026-08-28T19:08:49Z</time>
  <course>266.03</course>
  <speed>0.0</speed>
  <fix>3d</fix>
</trkpt>
<trkpt lat="40.072842" lon="-105.230575">
  <ele>1586.15</ele>
  <time>2026-08-28T19:08:49Z</time>
  <course>11.45</course>
  <speed>0.0</speed>
  <fix>3d</fix>
</trkpt>
<trkpt lat="40.072842" lon="-105.230575">
  <ele>1586.09</ele>
  <time>2026-08-28T19:08:49Z</time>
  <course>266.03</course>
  <speed>0.0</speed>
  <fix>3d</fix>
</trkpt>
<trkpt lat="40.072842" lon="-105.230575">
  <ele>1586.14</ele>
  <time>2026-08-28T19:08:49Z</time>
  <course>11.44</course>
  <speed>0.0</speed>
  <fix>3d</fix>
</trkpt>
<trkpt lat="40.072842" lon="-105.230575">
  <ele>1586.09</ele>
  <time>2026-08-28T19:08:49Z</time>
  <course>281.49</course>
  <speed>0.0</speed>
  <fix>3d</fix>
</trkpt>
<trkpt lat="40.072842" lon="-105.230575">
  <ele>1586.14</ele>
  <time>2026-08-28T19:08:49Z</time>
  <course>11.44</course>
  <speed>0.0</speed>
  <fix>3d</fix>
</trkpt>
<trkpt lat="40.072842" lon="-105.230575">
  <ele>1586.09</ele>
  <time>2026-08-28T19:08:49Z</time>
  <course>269.42</course>
  <speed>0.0</speed>
  <fix>3d</fix>
</trkpt>
<trkpt lat="40.072842" lon="-105.230575">
  <ele>1586.14</ele>
  <time>2026-08-28T19:08:49Z</time>
  <course>11.43</course>
  <speed>0.0</speed>
  <fix>3d</fix>
</trkpt>
<trkpt lat="40.072842" lon="-105.230575">
  <ele>1586.09</ele>
  <time>2026-08-28T19:08:49Z</time>
  <course>211.84</course>
  <speed>0.0</speed>
  <fix>3d</fix>
</trkpt>
<trkpt lat="40.072842" lon="-105.230575">
  <ele>1586.14</ele>
  <time>2026-08-28T19:08:49Z</time>
  <course>11.43</course>
  <speed>0.01</speed>
  <fix>3d</fix>
</trkpt>
<trkpt lat="40.072842" lon="-105.230575">
  <ele>1586.09</ele>
  <time>2026-08-28T19:08:49Z</time>
  <course>76.8</course>
  <speed>0.0</speed>
  <fix>3d</fix>
</trkpt>
<trkpt lat="40.072842" lon="-105.230575">
  <ele>1586.14</ele>
  <time>2026-08-28T19:08:49Z</time>
  <course>11.42</course>
  <speed>0.01</speed>
  <fix>3d</fix>
</trkpt>
<trkpt lat="40.072842" lon="-105.230575">
  <ele>1586.09</ele>
  <time>2026-08-28T19:08:49Z</time>
  <course>283.66</course>
  <speed>0.0</speed>
  <fix>3d</fix>
</trkpt>
<trkpt lat="40.072842" lon="-105.230575">
  <ele>1586.14</ele>
  <time>2026-08-28T19:08:49Z</time>
  <course>11.42</course>
  <speed>0.01</speed>
  <fix>3d</fix>
</trkpt>
<trkpt lat="40.072842" lon="-105.230575">
  <ele>1586.09</ele>
  <time>2026-08-28T19:08:49Z</time>
  <course>262.24</course>
  <speed>0.0</speed>
  <fix>3d</fix>
</trkpt>
<trkpt lat="40.072842" lon="-105.230575">
  <ele>1586.14</ele>
  <time>2026-08-28T19:08:49Z</time>
  <course>11.41</course>
  <speed>0.01414213562373095</speed>
  <fix>3d</fix>
</trkpt>
<trkpt lat="40.072842" lon="-105.230575">
  <ele>1586.09</ele>
  <time>2026-08-28T19:08:49Z</time>
  <course>263.53</course>
  <speed>0.0</speed>
  <fix>3d</fix>
</trkpt>
<trkpt lat="40.072842" lon="-105.230575">
  <ele>1586.14</ele>
  <time>2026-08-28T19:08:49Z</time>
  <course>11.41</course>
  <speed>0.01414213562373095</speed>
  <fix>3d</fix>
</trkpt>
<trkpt lat="40.072842" lon="-105.230575">
  <ele>1586.09</ele>
  <time>2026-08-28T19:08:49Z</time>
  <course>267.07</course>
  <speed>0.0</speed>
  <fix>3d</fix>
</trkpt>
<trkpt lat="40.072842" lon="-105.230575">
  <ele>1586.15</ele>
  <time>2026-08-28T19:08:49Z</time>
  <course>11.41</course>
  <speed>0.01414213562373095</speed>
  <fix>3d</fix>
</trkpt>
<trkpt lat="40.072842" lon="-105.230575">
  <ele>1586.09</ele>
  <time>2026-08-28T19:08:49Z</time>
  <course>266.23</course>
  <speed>0.0</speed>
  <fix>3d</fix>
</trkpt>
<trkpt lat="40.072842" lon="-105.230575">
  <ele>1586.15</ele>
  <time>2026-08-28T19:08:49Z</time>
  <course>11.4</course>
  <speed>0.022360679774997897</speed>
  <fix>3d</fix>
</trkpt>
<trkpt lat="40.072842" lon="-105.230575">
  <ele>1586.09</ele>
  <time>2026-08-28T19:08:49Z</time>
  <course>265.88</course>
  <speed>0.0</speed>
  <fix>3d</fix>
</trkpt>
<trkpt lat="40.072842" lon="-105.230575">
  <ele>1586.15</ele>
  <time>2026-08-28T19:08:49Z</time>
  <course>11.4</course>
  <speed>0.022360679774997897</speed>
  <fix>3d</fix>
</trkpt>
<trkpt lat="40.072842" lon="-105.230575">
  <ele>1586.09</ele>
  <time>2026-08-28T19:08:49Z</time>
  <course>254.83</course>
  <speed>0.0</speed>
  <fix>3d</fix>
</trkpt>
<trkpt lat="40.072842" lon="-105.230575">
  <ele>1586.16</ele>
  <time>2026-08-28T19:08:49Z</time>
  <course>11.4</course>
  <speed>0.022360679774997897</speed>
  <fix>3d</fix>
</trkpt>
<trkpt lat="40.072842" lon="-105.230575">
  <ele>1586.09</ele>
  <time>2026-08-28T19:08:49Z</time>
  <course>260.14</course>
  <speed>0.0</speed>
  <fix>3d</fix>
</trkpt>
<trkpt lat="40.072842" lon="-105.230575">
  <ele>1586.16</ele>
  <time>2026-08-28T19:08:49Z</time>
  <course>11.39</course>
  <speed>0.022360679774997897</speed>
  <fix>3d</fix>
</trkpt>
<trkpt lat="40.072842" lon="-105.230575">
  <ele>1586.09</ele>
  <time>2026-08-28T19:08:49Z</time>
  <course>267.21</course>
  <speed>0.0</speed>
  <fix>3d</fix>
</trkpt>
<trkpt lat="40.072842" lon="-105.230575">
  <ele>1586.16</ele>
  <time>2026-08-28T19:08:49Z</time>
  <course>11.39</course>
  <speed>0.01414213562373095</speed>
  <fix>3d</fix>
</trkpt>
<trkpt lat="40.072842" lon="-105.230575">
  <ele>1586.09</ele>
  <time>2026-08-28T19:08:49Z</time>
  <course>264.33</course>
  <speed>0.0</speed>
  <fix>3d</fix>
</trkpt>
<trkpt lat="40.072842" lon="-105.230575">
  <ele>1586.16</ele>
  <time>2026-08-28T19:08:49Z</time>
  <course>11.39</course>
  <speed>0.01414213562373095</speed>
  <fix>3d</fix>
</trkpt>
<trkpt lat="40.072842" lon="-105.230575">
  <ele>1586.09</ele>
  <time>2026-08-28T19:08:49Z</time>
  <course>266.21</course>
  <speed>0.0</speed>
  <fix>3d</fix>
</trkpt>
<trkpt lat="40.072842" lon="-105.230575">
  <ele>1586.16</ele>
  <time>2026-08-28T19:08:49Z</time>
  <course>11.38</course>
  <speed>0.01</speed>
  <fix>3d</fix>
</trkpt>
<trkpt lat="40.072842" lon="-105.230575">
  <ele>1586.09</ele>
  <time>2026-08-28T19:08:49Z</time>
  <course>266.24</course>
  <speed>0.0</speed>
  <fix>3d</fix>
</trkpt>
<trkpt lat="40.072842" lon="-105.230575">
  <ele>1586.16</ele>
  <time>2026-08-28T19:08:49Z</time>
  <course>11.38</course>
  <speed>0.0</speed>
  <fix>3d</fix>
</trkpt>
<trkpt lat="40.072842" lon="-105.230575">
  <ele>1586.09</ele>
  <time>2026-08-28T19:08:49Z</time>
  <course>265.99</course>
  <speed>0.0</speed>
  <fix>3d</fix>
</trkpt>
<trkpt lat="40.072842" lon="-105.230575">
  <ele>1586.16</ele>
  <time>2026-08-28T19:08:49Z</time>
  <course>11.37</course>
  <speed>0.0</speed>
  <fix>3d</fix>
</trkpt>
<trkpt lat="40.072842" lon="-105.230575">
  <ele>1586.09</ele>
  <time>2026-08-28T19:08:49Z</time>
  <course>266.01</course>
  <speed>0.0</speed>
  <fix>3d</fix>
</trkpt>
<trkpt lat="40.072842" lon="-105.230575">
  <ele>1586.16</ele>
  <time>2026-08-28T19:08:49Z</time>
  <course>11.37</course>
  <speed>0.0</speed>
  <fix>3d</fix>
</trkpt>
<trkpt lat="40.072842" lon="-105.230575">
  <ele>1586.09</ele>
  <time>2026-08-28T19:08:49Z</time>
  <course>266.04</course>
  <speed>0.0</speed>
  <fix>3d</fix>
</trkpt>
<trkpt lat="40.072842" lon="-105.230575">
  <ele>1586.16</ele>
  <time>2026-08-28T19:08:49Z</time>
  <course>11.37</course>
  <speed>0.0</speed>
  <fix>3d</fix>
</trkpt>
<trkpt lat="40.072842" lon="-105.230575">
  <ele>1586.09</ele>
  <time>2026-08-28T19:08:49Z</time>
  <course>350.92</course>
  <speed>0.0</speed>
  <fix>3d</fix>
</trkpt>
<trkpt lat="40.072842" lon="-105.230575">
  <ele>1586.16</ele>
  <time>2026-08-28T19:08:49Z</time>
  <course>11.36</course>
  <speed>0.0</speed>
  <fix>3d</fix>
</trkpt>
<trkpt lat="40.072842" lon="-105.230575">
  <ele>1586.09</ele>
  <time>2026-08-28T19:08:49Z</time>
  <course>326.77</course>
  <speed>0.0</speed>
  <fix>3d</fix>
</trkpt>
<trkpt lat="40.072842" lon="-105.230575">
  <ele>1586.16</ele>
  <time>2026-08-28T19:08:49Z</time>
  <course>11.36</course>
  <speed>0.0</speed>
  <fix>3d</fix>
</trkpt>
<trkpt lat="40.072842" lon="-105.230575">
  <ele>1586.09</ele>
  <time>2026-08-28T19:08:49Z</time>
  <course>300.83</course>
  <speed>0.0</speed>
  <fix>3d</fix>
</trkpt>
<trkpt lat="40.072842" lon="-105.230575">
  <ele>1586.16</ele>
  <time>2026-08-28T19:08:49Z</time>
  <course>11.36</course>
  <speed>0.0</speed>
  <fix>3d</fix>
</trkpt>
<trkpt lat="40.072842" lon="-105.230575">
  <ele>1586.09</ele>
  <time>2026-08-28T19:08:49Z</time>
  <course>171.98</course>
  <speed>0.0</speed>
  <fix>3d</fix>
</trkpt>
<trkpt lat="40.072842" lon="-105.230575">
  <ele>1586.16</ele>
  <time>2026-08-28T19:08:49Z</time>
  <course>11.35</course>
  <speed>0.0</speed>
  <fix>3d</fix>
</trkpt>
<trkpt lat="40.072842" lon="-105.230575">
  <ele>1586.09</ele>
  <time>2026-08-28T19:08:49Z</time>
  <course>285.61</course>
  <speed>0.0</speed>
  <fix>3d</fix>
</trkpt>
<trkpt lat="40.072842" lon="-105.230575">
  <ele>1586.16</ele>
  <time>2026-08-28T19:08:49Z</time>
  <course>11.35</course>
  <speed>0.0</speed>
  <fix>3d</fix>
</trkpt>
<trkpt lat="40.072842" lon="-105.230575">
  <ele>1586.09</ele>
  <time>2026-08-28T19:08:49Z</time>
  <course>302.27</course>
  <speed>0.0</speed>
  <fix>3d</fix>
</trkpt>
<trkpt lat="40.072842" lon="-105.230575">
  <ele>1586.16</ele>
  <time>2026-08-28T19:08:49Z</time>
  <course>11.34</course>
  <speed>0.0</speed>
  <fix>3d</fix>
</trkpt>
<trkpt lat="40.072842" lon="-105.230575">
  <ele>1586.09</ele>
  <time>2026-08-28T19:08:49Z</time>
  <course>263.94</course>
  <speed>0.0</speed>
  <fix>3d</fix>
</trkpt>
<trkpt lat="40.072842" lon="-105.230575">
  <ele>1586.16</ele>
  <time>2026-08-28T19:08:49Z</time>
  <course>11.33</course>
  <speed>0.0</speed>
  <fix>3d</fix>
</trkpt>
<trkpt lat="40.072842" lon="-105.230575">
  <ele>1586.09</ele>
  <time>2026-08-28T19:08:49Z</time>
  <course>255.46</course>
  <speed>0.0</speed>
  <fix>3d</fix>
</trkpt>
<trkpt lat="40.072842" lon="-105.230575">
  <ele>1586.16</ele>
  <time>2026-08-28T19:08:49Z</time>
  <course>11.32</course>
  <speed>0.0</speed>
  <fix>3d</fix>
</trkpt>
<trkpt lat="40.072842" lon="-105.230575">
  <ele>1586.09</ele>
  <time>2026-08-28T19:08:49Z</time>
  <course>111.71</course>
  <speed>0.0</speed>
  <fix>3d</fix>
</trkpt>
<trkpt lat="40.072842" lon="-105.230575">
  <ele>1586.16</ele>
  <time>2026-08-28T19:08:49Z</time>
  <course>11.31</course>
  <speed>0.0</speed>
  <fix>3d</fix>
</trkpt>
<trkpt lat="40.072842" lon="-105.230575">
  <ele>1586.09</ele>
  <time>2026-08-28T19:08:49Z</time>
  <course>335.93</course>
  <speed>0.0</speed>
  <fix>3d</fix>
</trkpt>
<trkpt lat="40.072842" lon="-105.230575">
  <ele>1586.16</ele>
  <time>2026-08-28T19:08:49Z</time>
  <course>11.3</course>
  <speed>0.0</speed>
  <fix>3d</fix>
</trkpt>
<trkpt lat="40.072842" lon="-105.230575">
  <ele>1586.09</ele>
  <time>2026-08-28T19:08:49Z</time>
  <course>321.84</course>
  <speed>0.0</speed>
  <fix>3d</fix>
</trkpt>
<trkpt lat="40.072842" lon="-105.230575">
  <ele>1586.16</ele>
  <time>2026-08-28T19:08:49Z</time>
  <course>11.28</course>
  <speed>0.0</speed>
  <fix>3d</fix>
</trkpt>
<trkpt lat="40.072842" lon="-105.230575">
  <ele>1586.09</ele>
  <time>2026-08-28T19:08:49Z</time>
  <course>282.6</course>
  <speed>0.0</speed>
  <fix>3d</fix>
</trkpt>
<trkpt lat="40.072842" lon="-105.230575">
  <ele>1586.16</ele>
  <time>2026-08-28T19:08:49Z</time>
  <course>11.27</course>
  <speed>0.0</speed>
  <fix>3d</fix>
</trkpt>
<trkpt lat="40.072842" lon="-105.230575">
  <ele>1586.09</ele>
  <time>2026-08-28T19:08:49Z</time>
  <course>265.08</course>
  <speed>0.0</speed>
  <fix>3d</fix>
</trkpt>
<trkpt lat="40.072842" lon="-105.230575">
  <ele>1586.16</ele>
  <time>2026-08-28T19:08:49Z</time>
  <course>11.25</course>
  <speed>0.0</speed>
  <fix>3d</fix>
</trkpt>
<trkpt lat="40.072842" lon="-105.230575">
  <ele>1586.09</ele>
  <time>2026-08-28T19:08:49Z</time>
  <course>251.68</course>
  <speed>0.0</speed>
  <fix>3d</fix>
</trkpt>
<trkpt lat="40.072842" lon="-105.230575">
  <ele>1586.16</ele>
  <time>2026-08-28T19:08:49Z</time>
  <course>11.23</course>
  <speed>0.0</speed>
  <fix>3d</fix>
</trkpt>
<trkpt lat="40.072842" lon="-105.230575">
  <ele>1586.09</ele>
  <time>2026-08-28T19:08:49Z</time>
  <course>284.04</course>
  <speed>0.0</speed>
  <fix>3d</fix>
</trkpt>
<trkpt lat="40.072842" lon="-105.230575">
  <ele>1586.16</ele>
  <time>2026-08-28T19:08:49Z</time>
  <course>11.21</course>
  <speed>0.0</speed>
  <fix>3d</fix>
</trkpt>
<trkpt lat="40.072842" lon="-105.230575">
  <ele>1586.09</ele>
  <time>2026-08-28T19:08:49Z</time>
  <course>301.33</course>
  <speed>0.0</speed>
  <fix>3d</fix>
</trkpt>
<trkpt lat="40.072842" lon="-105.230575">
  <ele>1586.16</ele>
  <time>2026-08-28T19:08:49Z</time>
  <course>11.19</course>
  <speed>0.0</speed>
  <fix>3d</fix>
</trkpt>
<trkpt lat="40.072842" lon="-105.230575">
  <ele>1586.09</ele>
  <time>2026-08-28T19:08:49Z</time>
  <course>312.71</course>
  <speed>0.0</speed>
  <fix>3d</fix>
</trkpt>
<trkpt lat="40.072842" lon="-105.230575">
  <ele>1586.16</ele>
  <time>2026-08-28T19:08:49Z</time>
  <course>11.16</course>
  <speed>0.0</speed>
  <fix>3d</fix>
</trkpt>
<trkpt lat="40.072842" lon="-105.230575">
  <ele>1586.09</ele>
  <time>2026-08-28T19:08:49Z</time>
  <course>282.06</course>
  <speed>0.0</speed>
  <fix>3d</fix>
</trkpt>
<trkpt lat="40.072842" lon="-105.230575">
  <ele>1586.17</ele>
  <time>2026-08-28T19:08:49Z</time>
  <course>11.14</course>
  <speed>0.0</speed>
  <fix>3d</fix>
</trkpt>
<trkpt lat="40.072842" lon="-105.230575">
  <ele>1586.09</ele>
  <time>2026-08-28T19:08:49Z</time>
  <course>255.1</course>
  <speed>0.0</speed>
  <fix>3d</fix>
</trkpt>
<trkpt lat="40.072842" lon="-105.230575">
  <ele>1586.17</ele>
  <time>2026-08-28T19:08:49Z</time>
  <course>11.11</course>
  <speed>0.0</speed>
  <fix>3d</fix>
</trkpt>
<trkpt lat="40.072842" lon="-105.230575">
  <ele>1586.09</ele>
  <time>2026-08-28T19:08:49Z</time>
  <course>269.01</course>
  <speed>0.0</speed>
  <fix>3d</fix>
</trkpt>
<trkpt lat="40.072842" lon="-105.230575">
  <ele>1586.17</ele>
  <time>2026-08-28T19:08:49Z</time>
  <course>11.09</course>
  <speed>0.01</speed>
  <fix>3d</fix>
</trkpt>
<trkpt lat="40.072842" lon="-105.230575">
  <ele>1586.09</ele>
  <time>2026-08-28T19:08:49Z</time>
  <course>281.03</course>
  <speed>0.0</speed>
  <fix>3d</fix>
</trkpt>
<trkpt lat="40.072842" lon="-105.230575">
  <ele>1586.17</ele>
  <time>2026-08-28T19:08:49Z</time>
  <course>11.06</course>
  <speed>0.01</speed>
  <fix>3d</fix>
</trkpt>
<trkpt lat="40.072842" lon="-105.230575">
  <ele>1586.09</ele>
  <time>2026-08-28T19:08:49Z</time>
  <course>295.96</course>
  <speed>0.0</speed>
  <fix>3d</fix>
</trkpt>
<trkpt lat="40.072842" lon="-105.230575">
  <ele>1586.18</ele>
  <time>2026-08-28T19:08:49Z</time>
  <course>11.03</course>
  <speed>0.01</speed>
  <fix>3d</fix>
</trkpt>
<trkpt lat="40.072842" lon="-105.230575">
  <ele>1586.09</ele>
  <time>2026-08-28T19:08:49Z</time>
  <course>270.95</course>
  <speed>0.0</speed>
  <fix>3d</fix>
</trkpt>
<trkpt lat="40.072842" lon="-105.230575">
  <ele>1586.18</ele>
  <time>2026-08-28T19:08:49Z</time>
  <course>11.0</course>
  <speed>0.01</speed>
  <fix>3d</fix>
</trkpt>
<trkpt lat="40.072842" lon="-105.230575">
  <ele>1586.09</ele>
  <time>2026-08-28T19:08:49Z</time>
  <course>257.5</course>
  <speed>0.0</speed>
  <fix>3d</fix>
</trkpt>
<trkpt lat="40.072842" lon="-105.230575">
  <ele>1586.18</ele>
  <time>2026-08-28T19:08:49Z</time>
  <course>10.97</course>
  <speed>0.01</speed>
  <fix>3d</fix>
</trkpt>
<trkpt lat="40.072842" lon="-105.230575">
  <ele>1586.09</ele>
  <time>2026-08-28T19:08:49Z</time>
  <course>276.57</course>
  <speed>0.0</speed>
  <fix>3d</fix>
</trkpt>
<trkpt lat="40.072842" lon="-105.230575">
  <ele>1586.18</ele>
  <time>2026-08-28T19:08:49Z</time>
  <course>10.93</course>
  <speed>0.01414213562373095</speed>
  <fix>3d</fix>
</trkpt>
<trkpt lat="40.072842" lon="-105.230575">
  <ele>1586.09</ele>
  <time>2026-08-28T19:08:49Z</time>
  <course>273.71</course>
  <speed>0.0</speed>
  <fix>3d</fix>
</trkpt>
<trkpt lat="40.072842" lon="-105.230575">
  <ele>1586.18</ele>
  <time>2026-08-28T19:08:49Z</time>
  <course>10.9</course>
  <speed>0.01414213562373095</speed>
  <fix>3d</fix>
</trkpt>
<trkpt lat="40.072842" lon="-105.230575">
  <ele>1586.09</ele>
  <time>2026-08-28T19:08:49Z</time>
  <course>274.2</course>
  <speed>0.0</speed>
  <fix>3d</fix>
</trkpt>
<trkpt lat="40.072842" lon="-105.230575">
  <ele>1586.18</ele>
  <time>2026-08-28T19:08:49Z</time>
  <course>10.86</course>
  <speed>0.01414213562373095</speed>
  <fix>3d</fix>
</trkpt>
<trkpt lat="40.072842" lon="-105.230575">
  <ele>1586.09</ele>
  <time>2026-08-28T19:08:49Z</time>
  <course>291.76</course>
  <speed>0.0</speed>
  <fix>3d</fix>
</trkpt>
<trkpt lat="40.072842" lon="-105.230575">
  <ele>1586.18</ele>
  <time>2026-08-28T19:08:49Z</time>
  <course>10.83</course>
  <speed>0.01414213562373095</speed>
  <fix>3d</fix>
</trkpt>
<trkpt lat="40.072842" lon="-105.230575">
  <ele>1586.09</ele>
  <time>2026-08-28T19:08:49Z</time>
  <course>285.26</course>
  <speed>0.0</speed>
  <fix>3d</fix>
</trkpt>
<trkpt lat="40.072842" lon="-105.230575">
  <ele>1586.18</ele>
  <time>2026-08-28T19:08:49Z</time>
  <course>10.79</course>
  <speed>0.01414213562373095</speed>
  <fix>3d</fix>
</trkpt>
<trkpt lat="40.072842" lon="-105.230575">
  <ele>1586.09</ele>
  <time>2026-08-28T19:08:49Z</time>
  <course>268.94</course>
  <speed>0.0</speed>
  <fix>3d</fix>
</trkpt>
<trkpt lat="40.0728419" lon="-105.230575">
  <ele>1586.18</ele>
  <time>2026-08-28T19:08:49Z</time>
  <course>10.75</course>
  <speed>0.01414213562373095</speed>
  <fix>3d</fix>
</trkpt>
<trkpt lat="40.072842" lon="-105.230575">
  <ele>1586.09</ele>
  <time>2026-08-28T19:08:49Z</time>
  <course>268.54</course>
  <speed>0.0</speed>
  <fix>3d</fix>
</trkpt>
<trkpt lat="40.0728419" lon="-105.230575">
  <ele>1586.17</ele>
  <time>2026-08-28T19:08:49Z</time>
  <course>10.71</course>
  <speed>0.01414213562373095</speed>
  <fix>3d</fix>
</trkpt>
<trkpt lat="40.072842" lon="-105.230575">
  <ele>1586.09</ele>
  <time>2026-08-28T19:08:49Z</time>
  <course>270.0</course>
  <speed>0.0</speed>
  <fix>3d</fix>
</trkpt>
<trkpt lat="40.0728419" lon="-105.230575">
  <ele>1586.17</ele>
  <time>2026-08-28T19:08:49Z</time>
  <course>10.67</course>
  <speed>0.022360679774997897</speed>
  <fix>3d</fix>
</trkpt>
<trkpt lat="40.072842" lon="-105.230575">
  <ele>1586.09</ele>
  <time>2026-08-28T19:08:49Z</time>
  <course>269.37</course>
  <speed>0.0</speed>
  <fix>3d</fix>
</trkpt>
<trkpt lat="40.0728419" lon="-105.2305749">
  <ele>1586.17</ele>
  <time>2026-08-28T19:08:49Z</time>
  <course>10.63</course>
  <speed>0.022360679774997897</speed>
  <fix>3d</fix>
</trkpt>
<trkpt lat="40.072842" lon="-105.230575">
  <ele>1586.09</ele>
  <time>2026-08-28T19:08:49Z</time>
  <course>282.06</course>
  <speed>0.0</speed>
  <fix>3d</fix>
</trkpt>
<trkpt lat="40.0728419" lon="-105.2305749">
  <ele>1586.17</ele>
  <time>2026-08-28T19:08:49Z</time>
  <course>10.58</course>
  <speed>0.022360679774997897</speed>
  <fix>3d</fix>
</trkpt>
<trkpt lat="40.072842" lon="-105.230575">
  <ele>1586.09</ele>
  <time>2026-08-28T19:08:49Z</time>
  <course>279.36</course>
  <speed>0.0</speed>
  <fix>3d</fix>
</trkpt>
<trkpt lat="40.0728419" lon="-105.2305749">
  <ele>1586.17</ele>
  <time>2026-08-28T19:08:49Z</time>
  <course>10.54</course>
  <speed>0.022360679774997897</speed>
  <fix>3d</fix>
</trkpt>
<trkpt lat="40.072842" lon="-105.230575">
  <ele>1586.09</ele>
  <time>2026-08-28T19:08:49Z</time>
  <course>267.05</course>
  <speed>0.0</speed>
  <fix>3d</fix>
</trkpt>
<trkpt lat="40.0728419" lon="-105.2305749">
  <ele>1586.17</ele>
  <time>2026-08-28T19:08:49Z</time>
  <course>10.49</course>
  <speed>0.022360679774997897</speed>
  <fix>3d</fix>
</trkpt>
<trkpt lat="40.072842" lon="-105.230575">
  <ele>1586.09</ele>
  <time>2026-08-28T19:08:49Z</time>
  <course>268.18</course>
  <speed>0.0</speed>
  <fix>3d</fix>
</trkpt>
<trkpt lat="40.0728419" lon="-105.2305749">
  <ele>1586.17</ele>
  <time>2026-08-28T19:08:49Z</time>
  <course>10.45</course>
  <speed>0.022360679774997897</speed>
  <fix>3d</fix>
</trkpt>
<trkpt lat="40.072842" lon="-105.230575">
  <ele>1586.09</ele>
  <time>2026-08-28T19:08:49Z</time>
  <course>267.69</course>
  <speed>0.0</speed>
  <fix>3d</fix>
</trkpt>
<trkpt lat="40.0728419" lon="-105.2305749">
  <ele>1586.18</ele>
  <time>2026-08-28T19:08:49Z</time>
  <course>10.4</course>
  <speed>0.022360679774997897</speed>
  <fix>3d</fix>
</trkpt>
<trkpt lat="40.072842" lon="-105.230575">
  <ele>1586.09</ele>
  <time>2026-08-28T19:08:49Z</time>
  <course>271.96</course>
  <speed>0.0</speed>
  <fix>3d</fix>
</trkpt>
<trkpt lat="40.0728419" lon="-105.2305749">
  <ele>1586.18</ele>
  <time>2026-08-28T19:08:49Z</time>
  <course>10.35</course>
  <speed>0.022360679774997897</speed>
  <fix>3d</fix>
</trkpt>
<trkpt lat="40.072842" lon="-105.230575">
  <ele>1586.09</ele>
  <time>2026-08-28T19:08:49Z</time>
  <course>279.34</course>
  <speed>0.0</speed>
  <fix>3d</fix>
</trkpt>
<trkpt lat="40.0728419" lon="-105.2305749">
  <ele>1586.18</ele>
  <time>2026-08-28T19:08:49Z</time>
  <course>10.3</course>
  <speed>0.022360679774997897</speed>
  <fix>3d</fix>
</trkpt>
<trkpt lat="40.072842" lon="-105.230575">
  <ele>1586.09</ele>
  <time>2026-08-28T19:08:49Z</time>
  <course>274.36</course>
  <speed>0.0</speed>
  <fix>3d</fix>
</trkpt>
<trkpt lat="40.0728419" lon="-105.2305749">
  <ele>1586.18</ele>
  <time>2026-08-28T19:08:49Z</time>
  <course>10.25</course>
  <speed>0.022360679774997897</speed>
  <fix>3d</fix>
</trkpt>
<trkpt lat="40.072842" lon="-105.230575">
  <ele>1586.09</ele>
  <time>2026-08-28T19:08:49Z</time>
  <course>268.45</course>
  <speed>0.0</speed>
  <fix>3d</fix>
</trkpt>
<trkpt lat="40.0728419" lon="-105.2305749">
  <ele>1586.18</ele>
  <time>2026-08-28T19:08:49Z</time>
  <course>10.2</course>
  <speed>0.022360679774997897</speed>
  <fix>3d</fix>
</trkpt>
<trkpt lat="40.072842" lon="-105.230575">
  <ele>1586.09</ele>
  <time>2026-08-28T19:08:49Z</time>
  <course>268.57</course>
  <speed>0.0</speed>
  <fix>3d</fix>
</trkpt>
<trkpt lat="40.0728419" lon="-105.2305749">
  <ele>1586.18</ele>
  <time>2026-08-28T19:08:49Z</time>
  <course>10.15</course>
  <speed>0.022360679774997897</speed>
  <fix>3d</fix>
</trkpt>
<trkpt lat="40.072842" lon="-105.230575">
  <ele>1586.09</ele>
  <time>2026-08-28T19:08:49Z</time>
  <course>268.31</course>
  <speed>0.0</speed>
  <fix>3d</fix>
</trkpt>
<trkpt lat="40.0728419" lon="-105.2305749">
  <ele>1586.18</ele>
  <time>2026-08-28T19:08:49Z</time>
  <course>10.1</course>
  <speed>0.022360679774997897</speed>
  <fix>3d</fix>
</trkpt>
<trkpt lat="40.072842" lon="-105.230575">
  <ele>1586.09</ele>
  <time>2026-08-28T19:08:49Z</time>
  <course>269.91</course>
  <speed>0.0</speed>
  <fix>3d</fix>
</trkpt>
<trkpt lat="40.0728419" lon="-105.2305749">
  <ele>1586.18</ele>
  <time>2026-08-28T19:08:49Z</time>
  <course>10.05</course>
  <speed>0.022360679774997897</speed>
  <fix>3d</fix>
</trkpt>
<trkpt lat="40.072842" lon="-105.230575">
  <ele>1586.09</ele>
  <time>2026-08-28T19:08:49Z</time>
  <course>279.9</course>
  <speed>0.0</speed>
  <fix>3d</fix>
</trkpt>
<trkpt lat="40.0728419" lon="-105.2305749">
  <ele>1586.18</ele>
  <time>2026-08-28T19:08:49Z</time>
  <course>10.0</course>
  <speed>0.022360679774997897</speed>
  <fix>3d</fix>
</trkpt>
<trkpt lat="40.072842" lon="-105.230575">
  <ele>1586.09</ele>
  <time>2026-08-28T19:08:49Z</time>
  <course>280.29</course>
  <speed>0.0</speed>
  <fix>3d</fix>
</trkpt>
<trkpt lat="40.0728419" lon="-105.2305749">
  <ele>1586.18</ele>
  <time>2026-08-28T19:08:49Z</time>
  <course>9.95</course>
  <speed>0.022360679774997897</speed>
  <fix>3d</fix>
</trkpt>
<trkpt lat="40.072842" lon="-105.230575">
  <ele>1586.09</ele>
  <time>2026-08-28T19:08:49Z</time>
  <course>268.16</course>
  <speed>0.0</speed>
  <fix>3d</fix>
</trkpt>
<trkpt lat="40.0728419" lon="-105.2305749">
  <ele>1586.18</ele>
  <time>2026-08-28T19:08:49Z</time>
  <course>9.9</course>
  <speed>0.022360679774997897</speed>
  <fix>3d</fix>
</trkpt>
<trkpt lat="40.072842" lon="-105.230575">
  <ele>1586.09</ele>
  <time>2026-08-28T19:08:49Z</time>
  <course>266.34</course>
  <speed>0.0</speed>
  <fix>3d</fix>
</trkpt>
<trkpt lat="40.0728419" lon="-105.2305749">
  <ele>1586.18</ele>
  <time>2026-08-28T19:08:49Z</time>
  <course>9.85</course>
  <speed>0.022360679774997897</speed>
  <fix>3d</fix>
</trkpt>
<trkpt lat="40.072842" lon="-105.230575">
  <ele>1586.09</ele>
  <time>2026-08-28T19:08:49Z</time>
  <course>268.55</course>
  <speed>0.0</speed>
  <fix>3d</fix>
</trkpt>
<trkpt lat="40.0728419" lon="-105.2305749">
  <ele>1586.18</ele>
  <time>2026-08-28T19:08:49Z</time>
  <course>9.81</course>
  <speed>0.022360679774997897</speed>
  <fix>3d</fix>
</trkpt>
<trkpt lat="40.072842" lon="-105.230575">
  <ele>1586.09</ele>
  <time>2026-08-28T19:08:49Z</time>
  <course>270.16</course>
  <speed>0.0</speed>
  <fix>3d</fix>
</trkpt>
<trkpt lat="40.0728419" lon="-105.2305749">
  <ele>1586.18</ele>
  <time>2026-08-28T19:08:49Z</time>
  <course>9.76</course>
  <speed>0.022360679774997897</speed>
  <fix>3d</fix>
</trkpt>
<trkpt lat="40.072842" lon="-105.230575">
  <ele>1586.09</ele>
  <time>2026-08-28T19:08:49Z</time>
  <course>269.39</course>
  <speed>0.0</speed>
  <fix>3d</fix>
</trkpt>
<trkpt lat="40.0728419" lon="-105.2305749">
  <ele>1586.18</ele>
  <time>2026-08-28T19:08:49Z</time>
  <course>9.71</course>
  <speed>0.022360679774997897</speed>
  <fix>3d</fix>
</trkpt>
<trkpt lat="40.072842" lon="-105.230575">
  <ele>1586.09</ele>
  <time>2026-08-28T19:08:49Z</time>
  <course>274.68</course>
  <speed>0.0</speed>
  <fix>3d</fix>
</trkpt>
<trkpt lat="40.0728419" lon="-105.2305749">
  <ele>1586.18</ele>
  <time>2026-08-28T19:08:49Z</time>
  <course>9.67</course>
  <speed>0.022360679774997897</speed>
  <fix>3d</fix>
</trkpt>
<trkpt lat="40.072842" lon="-105.230575">
  <ele>1586.09</ele>
  <time>2026-08-28T19:08:49Z</time>
  <course>281.12</course>
  <speed>0.0</speed>
  <fix>3d</fix>
</trkpt>
<trkpt lat="40.0728419" lon="-105.2305749">
  <ele>1586.18</ele>
  <time>2026-08-28T19:08:49Z</time>
  <course>9.62</course>
  <speed>0.022360679774997897</speed>
  <fix>3d</fix>
</trkpt>
<trkpt lat="40.072842" lon="-105.230575">
  <ele>1586.09</ele>
  <time>2026-08-28T19:08:49Z</time>
  <course>271.15</course>
  <speed>0.0</speed>
  <fix>3d</fix>
</trkpt>
<trkpt lat="40.0728419" lon="-105.2305749">
  <ele>1586.18</ele>
  <time>2026-08-28T19:08:49Z</time>
  <course>9.58</course>
  <speed>0.022360679774997897</speed>
  <fix>3d</fix>
</trkpt>
<trkpt lat="40.072842" lon="-105.230575">
  <ele>1586.09</ele>
  <time>2026-08-28T19:08:49Z</time>
  <course>265.44</course>
  <speed>0.0</speed>
  <fix>3d</fix>
</trkpt>
<trkpt lat="40.0728419" lon="-105.2305749">
  <ele>1586.18</ele>
  <time>2026-08-28T19:08:49Z</time>
  <course>9.54</course>
  <speed>0.022360679774997897</speed>
  <fix>3d</fix>
</trkpt>
<trkpt lat="40.072842" lon="-105.230575">
  <ele>1586.09</ele>
  <time>2026-08-28T19:08:49Z</time>
  <course>268.95</course>
  <speed>0.0</speed>
  <fix>3d</fix>
</trkpt>
<trkpt lat="40.0728419" lon="-105.2305749">
  <ele>1586.18</ele>
  <time>2026-08-28T19:08:49Z</time>
  <course>9.49</course>
  <speed>0.022360679774997897</speed>
  <fix>3d</fix>
</trkpt>
<trkpt lat="40.072842" lon="-105.230575">
  <ele>1586.09</ele>
  <time>2026-08-28T19:08:49Z</time>
  <course>269.84</course>
  <speed>0.0</speed>
  <fix>3d</fix>
</trkpt>
<trkpt lat="40.0728419" lon="-105.2305749">
  <ele>1586.18</ele>
  <time>2026-08-28T19:08:50Z</time>
  <course>9.45</course>
  <speed>0.022360679774997897</speed>
  <fix>3d</fix>
</trkpt>
<trkpt lat="40.072842" lon="-105.230575">
  <ele>1586.09</ele>
  <time>2026-08-28T19:08:50Z</time>
  <course>269.07</course>
  <speed>0.0</speed>
  <fix>3d</fix>
</trkpt>
<trkpt lat="40.0728419" lon="-105.2305749">
  <ele>1586.18</ele>
  <time>2026-08-28T19:08:50Z</time>
  <course>9.41</course>
  <speed>0.022360679774997897</speed>
  <fix>3d</fix>
</trkpt>
<trkpt lat="40.072842" lon="-105.230575">
  <ele>1586.09</ele>
  <time>2026-08-28T19:08:50Z</time>
  <course>268.81</course>
  <speed>0.0</speed>
  <fix>3d</fix>
</trkpt>
<trkpt lat="40.0728419" lon="-105.2305749">
  <ele>1586.17</ele>
  <time>2026-08-28T19:08:50Z</time>
  <course>9.37</course>
  <speed>0.022360679774997897</speed>
  <fix>3d</fix>
</trkpt>
<trkpt lat="40.072842" lon="-105.230575">
  <ele>1586.09</ele>
  <time>2026-08-28T19:08:50Z</time>
  <course>267.53</course>
  <speed>0.0</speed>
  <fix>3d</fix>
</trkpt>
<trkpt lat="40.0728419" lon="-105.2305749">
  <ele>1586.17</ele>
  <time>2026-08-28T19:08:50Z</time>
  <course>9.34</course>
  <speed>0.022360679774997897</speed>
  <fix>3d</fix>
</trkpt>
<trkpt lat="40.072842" lon="-105.230575">
  <ele>1586.09</ele>
  <time>2026-08-28T19:08:50Z</time>
  <course>266.78</course>
  <speed>0.0</speed>
  <fix>3d</fix>
</trkpt>
<trkpt lat="40.0728419" lon="-105.2305749">
  <ele>1586.17</ele>
  <time>2026-08-28T19:08:50Z</time>
  <course>9.3</course>
  <speed>0.022360679774997897</speed>
  <fix>3d</fix>
</trkpt>
<trkpt lat="40.072842" lon="-105.230575">
  <ele>1586.09</ele>
  <time>2026-08-28T19:08:50Z</time>
  <course>267.0</course>
  <speed>0.0</speed>
  <fix>3d</fix>
</trkpt>
<trkpt lat="40.0728419" lon="-105.2305749">
  <ele>1586.17</ele>
  <time>2026-08-28T19:08:50Z</time>
  <course>9.26</course>
  <speed>0.022360679774997897</speed>
  <fix>3d</fix>
</trkpt>
<trkpt lat="40.072842" lon="-105.230575">
  <ele>1586.09</ele>
  <time>2026-08-28T19:08:50Z</time>
  <course>268.15</course>
  <speed>0.0</speed>
  <fix>3d</fix>
</trkpt>
<trkpt lat="40.0728419" lon="-105.2305749">
  <ele>1586.17</ele>
  <time>2026-08-28T19:08:50Z</time>
  <course>9.23</course>
  <speed>0.022360679774997897</speed>
  <fix>3d</fix>
</trkpt>
<trkpt lat="40.072842" lon="-105.230575">
  <ele>1586.09</ele>
  <time>2026-08-28T19:08:50Z</time>
  <course>268.92</course>
  <speed>0.0</speed>
  <fix>3d</fix>
</trkpt>
<trkpt lat="40.0728419" lon="-105.2305749">
  <ele>1586.18</ele>
  <time>2026-08-28T19:08:50Z</time>
  <course>9.19</course>
  <speed>0.022360679774997897</speed>
  <fix>3d</fix>
</trkpt>
<trkpt lat="40.072842" lon="-105.230575">
  <ele>1586.09</ele>
  <time>2026-08-28T19:08:50Z</time>
  <course>268.6</course>
  <speed>0.0</speed>
  <fix>3d</fix>
</trkpt>
<trkpt lat="40.0728419" lon="-105.2305749">
  <ele>1586.18</ele>
  <time>2026-08-28T19:08:50Z</time>
  <course>9.16</course>
  <speed>0.022360679774997897</speed>
  <fix>3d</fix>
</trkpt>
<trkpt lat="40.072842" lon="-105.230575">
  <ele>1586.09</ele>
  <time>2026-08-28T19:08:50Z</time>
  <course>268.64</course>
  <speed>0.0</speed>
  <fix>3d</fix>
</trkpt>
<trkpt lat="40.0728419" lon="-105.2305749">
  <ele>1586.18</ele>
  <time>2026-08-28T19:08:50Z</time>
  <course>9.13</course>
  <speed>0.022360679774997897</speed>
  <fix>3d</fix>
</trkpt>
<trkpt lat="40.072842" lon="-105.230575">
  <ele>1586.09</ele>
  <time>2026-08-28T19:08:50Z</time>
  <course>268.67</course>
  <speed>0.0</speed>
  <fix>3d</fix>
</trkpt>
<trkpt lat="40.0728419" lon="-105.2305749">
  <ele>1586.18</ele>
  <time>2026-08-28T19:08:50Z</time>
  <course>9.1</course>
  <speed>0.022360679774997897</speed>
  <fix>3d</fix>
</trkpt>
<trkpt lat="40.072842" lon="-105.230575">
  <ele>1586.09</ele>
  <time>2026-08-28T19:08:50Z</time>
  <course>268.7</course>
  <speed>0.0</speed>
  <fix>3d</fix>
</trkpt>
<trkpt lat="40.0728419" lon="-105.2305749">
  <ele>1586.18</ele>
  <time>2026-08-28T19:08:50Z</time>
  <course>9.06</course>
  <speed>0.022360679774997897</speed>
  <fix>3d</fix>
</trkpt>
<trkpt lat="40.072842" lon="-105.230575">
  <ele>1586.09</ele>
  <time>2026-08-28T19:08:50Z</time>
  <course>267.55</course>
  <speed>0.0</speed>
  <fix>3d</fix>
</trkpt>
<trkpt lat="40.0728419" lon="-105.2305749">
  <ele>1586.18</ele>
  <time>2026-08-28T19:08:50Z</time>
  <course>9.04</course>
  <speed>0.022360679774997897</speed>
  <fix>3d</fix>
</trkpt>
<trkpt lat="40.072842" lon="-105.230575">
  <ele>1586.09</ele>
  <time>2026-08-28T19:08:50Z</time>
  <course>273.59</course>
  <speed>0.0</speed>
  <fix>3d</fix>
</trkpt>
<trkpt lat="40.0728419" lon="-105.2305749">
  <ele>1586.18</ele>
  <time>2026-08-28T19:08:50Z</time>
  <course>9.01</course>
  <speed>0.022360679774997897</speed>
  <fix>3d</fix>
</trkpt>
<trkpt lat="40.072842" lon="-105.230575">
  <ele>1586.09</ele>
  <time>2026-08-28T19:08:50Z</time>
  <course>275.31</course>
  <speed>0.0</speed>
  <fix>3d</fix>
</trkpt>
<trkpt lat="40.0728419" lon="-105.2305749">
  <ele>1586.19</ele>
  <time>2026-08-28T19:08:50Z</time>
  <course>8.98</course>
  <speed>0.022360679774997897</speed>
  <fix>3d</fix>
</trkpt>
<trkpt lat="40.072842" lon="-105.230575">
  <ele>1586.09</ele>
  <time>2026-08-28T19:08:50Z</time>
  <course>267.52</course>
  <speed>0.0</speed>
  <fix>3d</fix>
</trkpt>
<trkpt lat="40.0728419" lon="-105.2305749">
  <ele>1586.19</ele>
  <time>2026-08-28T19:08:50Z</time>
  <course>8.95</course>
  <speed>0.022360679774997897</speed>
  <fix>3d</fix>
</trkpt>
<trkpt lat="40.072842" lon="-105.230575">
  <ele>1586.09</ele>
  <time>2026-08-28T19:08:50Z</time>
  <course>267.92</course>
  <speed>0.0</speed>
  <fix>3d</fix>
</trkpt>
<trkpt lat="40.0728419" lon="-105.2305749">
  <ele>1586.19</ele>
  <time>2026-08-28T19:08:50Z</time>
  <course>8.92</course>
  <speed>0.022360679774997897</speed>
  <fix>3d</fix>
</trkpt>
<trkpt lat="40.072842" lon="-105.230575">
  <ele>1586.09</ele>
  <time>2026-08-28T19:08:50Z</time>
  <course>268.98</course>
  <speed>0.0</speed>
  <fix>3d</fix>
</trkpt>
<trkpt lat="40.0728419" lon="-105.2305749">
  <ele>1586.19</ele>
  <time>2026-08-28T19:08:50Z</time>
  <course>8.9</course>
  <speed>0.022360679774997897</speed>
  <fix>3d</fix>
</trkpt>
<trkpt lat="40.072842" lon="-105.230575">
  <ele>1586.09</ele>
  <time>2026-08-28T19:08:50Z</time>
  <course>268.71</course>
  <speed>0.0</speed>
  <fix>3d</fix>
</trkpt>
<trkpt lat="40.0728419" lon="-105.2305749">
  <ele>1586.19</ele>
  <time>2026-08-28T19:08:50Z</time>
  <course>8.87</course>
  <speed>0.022360679774997897</speed>
  <fix>3d</fix>
</trkpt>
<trkpt lat="40.072842" lon="-105.230575">
  <ele>1586.09</ele>
  <time>2026-08-28T19:08:50Z</time>
  <course>268.43</course>
  <speed>0.0</speed>
  <fix>3d</fix>
</trkpt>
<trkpt lat="40.0728419" lon="-105.2305749">
  <ele>1586.19</ele>
  <time>2026-08-28T19:08:50Z</time>
  <course>8.85</course>
  <speed>0.01414213562373095</speed>
  <fix>3d</fix>
</trkpt>
<trkpt lat="40.072842" lon="-105.230575">
  <ele>1586.09</ele>
  <time>2026-08-28T19:08:50Z</time>
  <course>270.09</course>
  <speed>0.0</speed>
  <fix>3d</fix>
</trkpt>
<trkpt lat="40.0728419" lon="-105.2305749">
  <ele>1586.18</ele>
  <time>2026-08-28T19:08:50Z</time>
  <course>8.83</course>
  <speed>0.01414213562373095</speed>
  <fix>3d</fix>
</trkpt>
<trkpt lat="40.072842" lon="-105.230575">
  <ele>1586.09</ele>
  <time>2026-08-28T19:08:50Z</time>
  <course>268.67</course>
  <speed>0.0</speed>
  <fix>3d</fix>
</trkpt>
<trkpt lat="40.0728419" lon="-105.2305749">
  <ele>1586.18</ele>
  <time>2026-08-28T19:08:50Z</time>
  <course>8.81</course>
  <speed>0.01414213562373095</speed>
  <fix>3d</fix>
</trkpt>
<trkpt lat="40.072842" lon="-105.230575">
  <ele>1586.09</ele>
  <time>2026-08-28T19:08:50Z</time>
  <course>266.57</course>
  <speed>0.0</speed>
  <fix>3d</fix>
</trkpt>
<trkpt lat="40.0728419" lon="-105.2305749">
  <ele>1586.18</ele>
  <time>2026-08-28T19:08:50Z</time>
  <course>8.78</course>
  <speed>0.01414213562373095</speed>
  <fix>3d</fix>
</trkpt>
<trkpt lat="40.072842" lon="-105.230575">
  <ele>1586.09</ele>
  <time>2026-08-28T19:08:50Z</time>
  <course>274.73</course>
  <speed>0.0</speed>
  <fix>3d</fix>
</trkpt>
<trkpt lat="40.0728419" lon="-105.2305749">
  <ele>1586.18</ele>
  <time>2026-08-28T19:08:50Z</time>
  <course>8.76</course>
  <speed>0.01414213562373095</speed>
  <fix>3d</fix>
</trkpt>
<trkpt lat="40.072842" lon="-105.230575">
  <ele>1586.09</ele>
  <time>2026-08-28T19:08:50Z</time>
  <course>276.69</course>
  <speed>0.0</speed>
  <fix>3d</fix>
</trkpt>
<trkpt lat="40.0728419" lon="-105.2305749">
  <ele>1586.18</ele>
  <time>2026-08-28T19:08:50Z</time>
  <course>8.74</course>
  <speed>0.01414213562373095</speed>
  <fix>3d</fix>
</trkpt>
<trkpt lat="40.072842" lon="-105.230575">
  <ele>1586.09</ele>
  <time>2026-08-28T19:08:50Z</time>
  <course>268.56</course>
  <speed>0.0</speed>
  <fix>3d</fix>
</trkpt>
<trkpt lat="40.0728419" lon="-105.2305749">
  <ele>1586.18</ele>
  <time>2026-08-28T19:08:50Z</time>
  <course>8.73</course>
  <speed>0.01414213562373095</speed>
  <fix>3d</fix>
</trkpt>
<trkpt lat="40.072842" lon="-105.230575">
  <ele>1586.09</ele>
  <time>2026-08-28T19:08:50Z</time>
  <course>267.47</course>
  <speed>0.0</speed>
  <fix>3d</fix>
</trkpt>
<trkpt lat="40.0728419" lon="-105.2305749">
  <ele>1586.18</ele>
  <time>2026-08-28T19:08:50Z</time>
  <course>8.71</course>
  <speed>0.01414213562373095</speed>
  <fix>3d</fix>
</trkpt>
<trkpt lat="40.072842" lon="-105.230575">
  <ele>1586.09</ele>
  <time>2026-08-28T19:08:50Z</time>
  <course>268.91</course>
  <speed>0.0</speed>
  <fix>3d</fix>
</trkpt>
<trkpt lat="40.0728419" lon="-105.2305749">
  <ele>1586.18</ele>
  <time>2026-08-28T19:08:50Z</time>
  <course>8.69</course>
  <speed>0.01414213562373095</speed>
  <fix>3d</fix>
</trkpt>
<trkpt lat="40.072842" lon="-105.230575">
  <ele>1586.09</ele>
  <time>2026-08-28T19:08:50Z</time>
  <course>269.05</course>
  <speed>0.0</speed>
  <fix>3d</fix>
</trkpt>
<trkpt lat="40.0728419" lon="-105.2305749">
  <ele>1586.18</ele>
  <time>2026-08-28T19:08:50Z</time>
  <course>8.68</course>
  <speed>0.01414213562373095</speed>
  <fix>3d</fix>
</trkpt>
<trkpt lat="40.072842" lon="-105.230575">
  <ele>1586.09</ele>
  <time>2026-08-28T19:08:50Z</time>
  <course>268.58</course>
  <speed>0.0</speed>
  <fix>3d</fix>
</trkpt>
<trkpt lat="40.0728419" lon="-105.2305749">
  <ele>1586.19</ele>
  <time>2026-08-28T19:08:50Z</time>
  <course>8.66</course>
  <speed>0.01414213562373095</speed>
  <fix>3d</fix>
</trkpt>
<trkpt lat="40.072842" lon="-105.230575">
  <ele>1586.09</ele>
  <time>2026-08-28T19:08:50Z</time>
  <course>267.95</course>
  <speed>0.0</speed>
  <fix>3d</fix>
</trkpt>
<trkpt lat="40.0728419" lon="-105.2305749">
  <ele>1586.19</ele>
  <time>2026-08-28T19:08:50Z</time>
  <course>8.65</course>
  <speed>0.01414213562373095</speed>
  <fix>3d</fix>
</trkpt>
<trkpt lat="40.072842" lon="-105.230575">
  <ele>1586.09</ele>
  <time>2026-08-28T19:08:50Z</time>
  <course>267.22</course>
  <speed>0.0</speed>
  <fix>3d</fix>
</trkpt>
<trkpt lat="40.0728419" lon="-105.2305749">
  <ele>1586.19</ele>
  <time>2026-08-28T19:08:50Z</time>
  <course>8.63</course>
  <speed>0.01414213562373095</speed>
  <fix>3d</fix>
</trkpt>
<trkpt lat="40.072842" lon="-105.230575">
  <ele>1586.09</ele>
  <time>2026-08-28T19:08:50Z</time>
  <course>268.08</course>
  <speed>0.0</speed>
  <fix>3d</fix>
</trkpt>
<trkpt lat="40.0728419" lon="-105.2305749">
  <ele>1586.19</ele>
  <time>2026-08-28T19:08:50Z</time>
  <course>8.62</course>
  <speed>0.01414213562373095</speed>
  <fix>3d</fix>
</trkpt>
<trkpt lat="40.072842" lon="-105.230575">
  <ele>1586.09</ele>
  <time>2026-08-28T19:08:50Z</time>
  <course>268.95</course>
  <speed>0.0</speed>
  <fix>3d</fix>
</trkpt>
<trkpt lat="40.0728419" lon="-105.2305749">
  <ele>1586.19</ele>
  <time>2026-08-28T19:08:50Z</time>
  <course>8.61</course>
  <speed>0.01414213562373095</speed>
  <fix>3d</fix>
</trkpt>
<trkpt lat="40.072842" lon="-105.230575">
  <ele>1586.09</ele>
  <time>2026-08-28T19:08:50Z</time>
  <course>270.56</course>
  <speed>0.0</speed>
  <fix>3d</fix>
</trkpt>
<trkpt lat="40.0728419" lon="-105.2305749">
  <ele>1586.19</ele>
  <time>2026-08-28T19:08:50Z</time>
  <course>8.6</course>
  <speed>0.01414213562373095</speed>
  <fix>3d</fix>
</trkpt>
<trkpt lat="40.072842" lon="-105.230575">
  <ele>1586.09</ele>
  <time>2026-08-28T19:08:50Z</time>
  <course>273.99</course>
  <speed>0.0</speed>
  <fix>3d</fix>
</trkpt>
<trkpt lat="40.0728419" lon="-105.2305749">
  <ele>1586.19</ele>
  <time>2026-08-28T19:08:50Z</time>
  <course>8.59</course>
  <speed>0.01414213562373095</speed>
  <fix>3d</fix>
</trkpt>
<trkpt lat="40.072842" lon="-105.230575">
  <ele>1586.09</ele>
  <time>2026-08-28T19:08:50Z</time>
  <course>271.21</course>
  <speed>0.0</speed>
  <fix>3d</fix>
</trkpt>
<trkpt lat="40.0728419" lon="-105.2305749">
  <ele>1586.19</ele>
  <time>2026-08-28T19:08:50Z</time>
  <course>8.58</course>
  <speed>0.01414213562373095</speed>
  <fix>3d</fix>
</trkpt>
<trkpt lat="40.072842" lon="-105.230575">
  <ele>1586.09</ele>
  <time>2026-08-28T19:08:50Z</time>
  <course>267.36</course>
  <speed>0.0</speed>
  <fix>3d</fix>
</trkpt>
<trkpt lat="40.0728419" lon="-105.2305749">
  <ele>1586.19</ele>
  <time>2026-08-28T19:08:50Z</time>
  <course>8.57</course>
  <speed>0.01414213562373095</speed>
  <fix>3d</fix>
</trkpt>
<trkpt lat="40.072842" lon="-105.230575">
  <ele>1586.09</ele>
  <time>2026-08-28T19:08:50Z</time>
  <course>268.74</course>
  <speed>0.0</speed>
  <fix>3d</fix>
</trkpt>
<trkpt lat="40.0728419" lon="-105.2305749">
  <ele>1586.19</ele>
  <time>2026-08-28T19:08:50Z</time>
  <course>8.56</course>
  <speed>0.01414213562373095</speed>
  <fix>3d</fix>
</trkpt>
<trkpt lat="40.072842" lon="-105.230575">
  <ele>1586.09</ele>
  <time>2026-08-28T19:08:50Z</time>
  <course>269.26</course>
  <speed>0.0</speed>
  <fix>3d</fix>
</trkpt>
<trkpt lat="40.0728419" lon="-105.2305749">
  <ele>1586.19</ele>
  <time>2026-08-28T19:08:50Z</time>
  <course>8.55</course>
  <speed>0.01414213562373095</speed>
  <fix>3d</fix>
</trkpt>
<trkpt lat="40.072842" lon="-105.230575">
  <ele>1586.09</ele>
  <time>2026-08-28T19:08:50Z</time>
  <course>269.96</course>
  <speed>0.0</speed>
  <fix>3d</fix>
</trkpt>
<trkpt lat="40.0728419" lon="-105.2305749">
  <ele>1586.18</ele>
  <time>2026-08-28T19:08:50Z</time>
  <course>8.55</course>
  <speed>0.01414213562373095</speed>
  <fix>3d</fix>
</trkpt>
<trkpt lat="40.072842" lon="-105.230575">
  <ele>1586.09</ele>
  <time>2026-08-28T19:08:50Z</time>
  <course>268.34</course>
  <speed>0.0</speed>
  <fix>3d</fix>
</trkpt>
<trkpt lat="40.0728419" lon="-105.2305749">
  <ele>1586.18</ele>
  <time>2026-08-28T19:08:50Z</time>
  <course>8.54</course>
  <speed>0.01414213562373095</speed>
  <fix>3d</fix>
</trkpt>
<trkpt lat="40.072842" lon="-105.230575">
  <ele>1586.09</ele>
  <time>2026-08-28T19:08:50Z</time>
  <course>267.76</course>
  <speed>0.0</speed>
  <fix>3d</fix>
</trkpt>
<trkpt lat="40.0728419" lon="-105.2305749">
  <ele>1586.18</ele>
  <time>2026-08-28T19:08:50Z</time>
  <course>8.54</course>
  <speed>0.01414213562373095</speed>
  <fix>3d</fix>
</trkpt>
<trkpt lat="40.072842" lon="-105.230575">
  <ele>1586.09</ele>
  <time>2026-08-28T19:08:50Z</time>
  <course>269.47</course>
  <speed>0.0</speed>
  <fix>3d</fix>
</trkpt>
<trkpt lat="40.0728419" lon="-105.2305749">
  <ele>1586.18</ele>
  <time>2026-08-28T19:08:50Z</time>
  <course>8.53</course>
  <speed>0.01414213562373095</speed>
  <fix>3d</fix>
</trkpt>
<trkpt lat="40.072842" lon="-105.230575">
  <ele>1586.09</ele>
  <time>2026-08-28T19:08:50Z</time>
  <course>268.96</course>
  <speed>0.0</speed>
  <fix>3d</fix>
</trkpt>
<trkpt lat="40.0728419" lon="-105.2305749">
  <ele>1586.18</ele>
  <time>2026-08-28T19:08:50Z</time>
  <course>8.53</course>
  <speed>0.01414213562373095</speed>
  <fix>3d</fix>
</trkpt>
<trkpt lat="40.072842" lon="-105.230575">
  <ele>1586.09</ele>
  <time>2026-08-28T19:08:50Z</time>
  <course>268.99</course>
  <speed>0.0</speed>
  <fix>3d</fix>
</trkpt>
<trkpt lat="40.0728419" lon="-105.2305749">
  <ele>1586.18</ele>
  <time>2026-08-28T19:08:50Z</time>
  <course>8.52</course>
  <speed>0.01414213562373095</speed>
  <fix>3d</fix>
</trkpt>
<trkpt lat="40.072842" lon="-105.230575">
  <ele>1586.09</ele>
  <time>2026-08-28T19:08:50Z</time>
  <course>268.97</course>
  <speed>0.0</speed>
  <fix>3d</fix>
</trkpt>
<trkpt lat="40.0728419" lon="-105.2305749">
  <ele>1586.18</ele>
  <time>2026-08-28T19:08:50Z</time>
  <course>8.52</course>
  <speed>0.01414213562373095</speed>
  <fix>3d</fix>
</trkpt>
<trkpt lat="40.072842" lon="-105.230575">
  <ele>1586.09</ele>
  <time>2026-08-28T19:08:50Z</time>
  <course>275.39</course>
  <speed>0.0</speed>
  <fix>3d</fix>
</trkpt>
<trkpt lat="40.0728419" lon="-105.2305749">
  <ele>1586.18</ele>
  <time>2026-08-28T19:08:50Z</time>
  <course>8.52</course>
  <speed>0.01414213562373095</speed>
  <fix>3d</fix>
</trkpt>
<trkpt lat="40.072842" lon="-105.230575">
  <ele>1586.09</ele>
  <time>2026-08-28T19:08:50Z</time>
  <course>275.12</course>
  <speed>0.0</speed>
  <fix>3d</fix>
</trkpt>
<trkpt lat="40.0728419" lon="-105.2305749">
  <ele>1586.17</ele>
  <time>2026-08-28T19:08:50Z</time>
  <course>8.52</course>
  <speed>0.01414213562373095</speed>
  <fix>3d</fix>
</trkpt>
<trkpt lat="40.072842" lon="-105.230575">
  <ele>1586.09</ele>
  <time>2026-08-28T19:08:50Z</time>
  <course>268.18</course>
  <speed>0.0</speed>
  <fix>3d</fix>
</trkpt>
<trkpt lat="40.0728419" lon="-105.2305749">
  <ele>1586.17</ele>
  <time>2026-08-28T19:08:50Z</time>
  <course>8.52</course>
  <speed>0.01414213562373095</speed>
  <fix>3d</fix>
</trkpt>
<trkpt lat="40.072842" lon="-105.230575">
  <ele>1586.09</ele>
  <time>2026-08-28T19:08:50Z</time>
  <course>268.75</course>
  <speed>0.0</speed>
  <fix>3d</fix>
</trkpt>
<trkpt lat="40.0728419" lon="-105.2305749">
  <ele>1586.19</ele>
  <time>2026-08-28T19:08:50Z</time>
  <course>8.51</course>
  <speed>0.01414213562373095</speed>
  <fix>3d</fix>
</trkpt>
<trkpt lat="40.072842" lon="-105.230575">
  <ele>1586.09</ele>
  <time>2026-08-28T19:08:50Z</time>
  <course>270.03</course>
  <speed>0.0</speed>
  <fix>3d</fix>
</trkpt>
<trkpt lat="40.0728419" lon="-105.2305749">
  <ele>1586.28</ele>
  <time>2026-08-28T19:08:50Z</time>
  <course>8.44</course>
  <speed>0.01414213562373095</speed>
  <fix>3d</fix>
</trkpt>
<trkpt lat="40.072842" lon="-105.230575">
  <ele>1586.14</ele>
  <time>2026-08-28T19:08:50Z</time>
  <course>270.55</course>
  <speed>0.0</speed>
  <fix>3d</fix>
</trkpt>
<trkpt lat="40.0728419" lon="-105.2305749">
  <ele>1586.4</ele>
  <time>2026-08-28T19:08:50Z</time>
  <course>4.45</course>
  <speed>0.08</speed>
  <fix>3d</fix>
</trkpt>
<trkpt lat="40.072842" lon="-105.230575">
  <ele>1586.22</ele>
  <time>2026-08-28T19:08:50Z</time>
  <course>275.78</course>
  <speed>0.01</speed>
  <fix>3d</fix>
</trkpt>
<trkpt lat="40.0728419" lon="-105.2305753">
  <ele>1586.74</ele>
  <time>2026-08-28T19:08:50Z</time>
  <course>1.91</course>
  <speed>0.2570992026436488</speed>
  <fix>3d</fix>
</trkpt>
<trkpt lat="40.072842" lon="-105.2305752">
  <ele>1586.39</ele>
  <time>2026-08-28T19:08:50Z</time>
  <course>276.1</course>
  <speed>0.12</speed>
  <fix>3d</fix>
</trkpt>
<trkpt lat="40.0728419" lon="-105.2305754">
  <ele>1586.8</ele>
  <time>2026-08-28T19:08:50Z</time>
  <course>1.66</course>
  <speed>0.2765863337187866</speed>
  <fix>3d</fix>
</trkpt>
<trkpt lat="40.0728421" lon="-105.2305761">
  <ele>1587.16</ele>
  <time>2026-08-28T19:08:50Z</time>
  <course>0.64</course>
  <speed>0.38078865529319544</speed>
  <fix>3d</fix>
</trkpt>
<trkpt lat="40.072842" lon="-105.2305757">
  <ele>1586.72</ele>
  <time>2026-08-28T19:08:50Z</time>
  <course>276.22</course>
  <speed>0.29</speed>
  <fix>3d</fix>
</trkpt>
<trkpt lat="40.0728421" lon="-105.2305763">
  <ele>1587.22</ele>
  <time>2026-08-28T19:08:50Z</time>
  <course>0.51</course>
  <speed>0.4026164427839479</speed>
  <fix>3d</fix>
</trkpt>
<trkpt lat="40.0728422" lon="-105.2305772">
  <ele>1587.58</ele>
  <time>2026-08-28T19:08:50Z</time>
  <course>0.02</course>
  <speed>0.4729693436154187</speed>
  <fix>3d</fix>
</trkpt>
<trkpt lat="40.072842" lon="-105.2305765">
  <ele>1587.14</ele>
  <time>2026-08-28T19:08:50Z</time>
  <course>276.02</course>
  <speed>0.42</speed>
  <fix>3d</fix>
</trkpt>
<trkpt lat="40.0728423" lon="-105.2305773">
  <ele>1587.65</ele>
  <time>2026-08-28T19:08:50Z</time>
  <course>359.98</course>
  <speed>0.49244289008980524</speed>
  <fix>3d</fix>
</trkpt>
<trkpt lat="40.0728424" lon="-105.2305784">
  <ele>1588.03</ele>
  <time>2026-08-28T19:08:50Z</time>
  <course>359.82</course>
  <speed>0.5412947441089743</speed>
  <fix>3d</fix>
</trkpt>
<trkpt lat="40.0728421" lon="-105.2305777">
  <ele>1587.56</ele>
  <time>2026-08-28T19:08:50Z</time>
  <course>275.49</course>
  <speed>0.51</speed>
  <fix>3d</fix>
</trkpt>
<trkpt lat="40.0728424" lon="-105.2305784">
  <ele>1588.04</ele>
  <time>2026-08-28T19:08:50Z</time>
  <course>359.82</course>
  <speed>0.5412947441089743</speed>
  <fix>3d</fix>
</trkpt>
<trkpt lat="40.0728425" lon="-105.2305798">
  <ele>1588.5</ele>
  <time>2026-08-28T19:08:50Z</time>
  <course>359.83</course>
  <speed>0.5903388857258176</speed>
  <fix>3d</fix>
</trkpt>
<trkpt lat="40.0728422" lon="-105.2305789">
  <ele>1588.0</ele>
  <time>2026-08-28T19:08:50Z</time>
  <course>274.91</course>
  <speed>0.57</speed>
  <fix>3d</fix>
</trkpt>
<trkpt lat="40.0728425" lon="-105.23058">
  <ele>1588.58</ele>
  <time>2026-08-28T19:08:50Z</time>
  <course>359.84</course>
  <speed>0.6001666435249463</speed>
  <fix>3d</fix>
</trkpt>
<trkpt lat="40.0728426" lon="-105.2305812">
  <ele>1588.98</ele>
  <time>2026-08-28T19:08:50Z</time>
  <course>359.98</course>
  <speed>0.6296824596572467</speed>
  <fix>3d</fix>
</trkpt>
<trkpt lat="40.0728423" lon="-105.2305803">
  <ele>1588.46</ele>
  <time>2026-08-28T19:08:50Z</time>
  <course>274.52</course>
  <speed>0.62</speed>
  <fix>3d</fix>
</trkpt>
<trkpt lat="40.0728426" lon="-105.2305815">
  <ele>1589.06</ele>
  <time>2026-08-28T19:08:50Z</time>
  <course>0.0</course>
  <speed>0.6296824596572467</speed>
  <fix>3d</fix>
</trkpt>
<trkpt lat="40.0728427" lon="-105.2305828">
  <ele>1589.46</ele>
  <time>2026-08-28T19:08:50Z</time>
  <course>358.68</course>
  <speed>0.6477653896280658</speed>
  <fix>3d</fix>
</trkpt>
<trkpt lat="40.0728424" lon="-105.2305818">
  <ele>1588.92</ele>
  <time>2026-08-28T19:08:50Z</time>
  <course>274.34</course>
  <speed>0.65</speed>
  <fix>3d</fix>
</trkpt>
<trkpt lat="40.0728427" lon="-105.230583">
  <ele>1589.54</ele>
  <time>2026-08-28T19:08:50Z</time>
  <course>358.67</course>
  <speed>0.6576473218982953</speed>
  <fix>3d</fix>
</trkpt>
<trkpt lat="40.0728428" lon="-105.2305844">
  <ele>1589.95</ele>
  <time>2026-08-28T19:08:50Z</time>
  <course>358.85</course>
  <speed>0.6760177512462228</speed>
  <fix>3d</fix>
</trkpt>
<trkpt lat="40.0728425" lon="-105.2305834">
  <ele>1589.39</ele>
  <time>2026-08-28T19:08:50Z</time>
  <course>274.26</course>
  <speed>0.68</speed>
  <fix>3d</fix>
</trkpt>
<trkpt lat="40.0728428" lon="-105.2305846">
  <ele>1590.02</ele>
  <time>2026-08-28T19:08:50Z</time>
  <course>358.89</course>
  <speed>0.6760177512462228</speed>
  <fix>3d</fix>
</trkpt>
<trkpt lat="40.0728429" lon="-105.230586">
  <ele>1590.43</ele>
  <time>2026-08-28T19:08:50Z</time>
  <course>359.17</course>
  <speed>0.6846897107449476</speed>
  <fix>3d</fix>
</trkpt>
<trkpt lat="40.0728426" lon="-105.230585">
  <ele>1589.87</ele>
  <time>2026-08-28T19:08:50Z</time>
  <course>274.24</course>
  <speed>0.7</speed>
  <fix>3d</fix>
</trkpt>
<trkpt lat="40.0728429" lon="-105.2305861">
  <ele>1590.44</ele>
  <time>2026-08-28T19:08:50Z</time>
  <course>359.17</course>
  <speed>0.6846897107449476</speed>
  <fix>3d</fix>
</trkpt>
<trkpt lat="40.0728429" lon="-105.2305877">
  <ele>1590.91</ele>
  <time>2026-08-28T19:08:50Z</time>
  <course>359.5</course>
  <speed>0.7034912934784623</speed>
  <fix>3d</fix>
</trkpt>
<trkpt lat="40.0728427" lon="-105.2305867">
  <ele>1590.34</ele>
  <time>2026-08-28T19:08:50Z</time>
  <course>274.3</course>
  <speed>0.72</speed>
  <fix>3d</fix>
</trkpt>
<trkpt lat="40.0728429" lon="-105.230588">
  <ele>1590.99</ele>
  <time>2026-08-28T19:08:50Z</time>
  <course>359.55</course>
  <speed>0.7034912934784623</speed>
  <fix>3d</fix>
</trkpt>
<trkpt lat="40.072843" lon="-105.2305894">
  <ele>1591.4</ele>
  <time>2026-08-28T19:08:50Z</time>
  <course>359.88</course>
  <speed>0.7125307010929425</speed>
  <fix>3d</fix>
</trkpt>
<trkpt lat="40.0728428" lon="-105.2305884">
  <ele>1590.82</ele>
  <time>2026-08-28T19:08:50Z</time>
  <course>274.44</course>
  <speed>0.73</speed>
  <fix>3d</fix>
</trkpt>
<trkpt lat="40.072843" lon="-105.2305897">
  <ele>1591.48</ele>
  <time>2026-08-28T19:08:50Z</time>
  <course>359.95</course>
  <speed>0.7125307010929425</speed>
  <fix>3d</fix>
</trkpt>
<trkpt lat="40.072843" lon="-105.2305912">
  <ele>1591.89</ele>
  <time>2026-08-28T19:08:50Z</time>
  <course>0.27</course>
  <speed>0.7217340230306452</speed>
  <fix>3d</fix>
</trkpt>
<trkpt lat="40.0728429" lon="-105.2305901">
  <ele>1591.3</ele>
  <time>2026-08-28T19:08:50Z</time>
  <course>274.64</course>
  <speed>0.74</speed>
  <fix>3d</fix>
</trkpt>
<trkpt lat="40.0728431" lon="-105.2305914">
  <ele>1591.95</ele>
  <time>2026-08-28T19:08:50Z</time>
  <course>0.33</course>
  <speed>0.7217340230306452</speed>
  <fix>3d</fix>
</trkpt>
<trkpt lat="40.0728431" lon="-105.2305929">
  <ele>1592.37</ele>
  <time>2026-08-28T19:08:50Z</time>
  <course>0.69</course>
  <speed>0.7310950690573697</speed>
  <fix>3d</fix>
</trkpt>
<trkpt lat="40.072843" lon="-105.2305918">
  <ele>1591.78</ele>
  <time>2026-08-28T19:08:50Z</time>
  <course>274.9</course>
  <speed>0.75</speed>
  <fix>3d</fix>
</trkpt>
<trkpt lat="40.0728431" lon="-105.2305932">
  <ele>1592.44</ele>
  <time>2026-08-28T19:08:50Z</time>
  <course>0.75</course>
  <speed>0.7310950690573697</speed>
  <fix>3d</fix>
</trkpt>
<trkpt lat="40.0728432" lon="-105.2305947">
  <ele>1592.86</ele>
  <time>2026-08-28T19:08:50Z</time>
  <course>1.05</course>
  <speed>0.7310950690573697</speed>
  <fix>3d</fix>
</trkpt>
<trkpt lat="40.0728431" lon="-105.2305936">
  <ele>1592.26</ele>
  <time>2026-08-28T19:08:50Z</time>
  <course>275.17</course>
  <speed>0.75</speed>
  <fix>3d</fix>
</trkpt>
<trkpt lat="40.0728432" lon="-105.2305947">
  <ele>1592.86</ele>
  <time>2026-08-28T19:08:50Z</time>
  <course>1.06</course>
  <speed>0.7310950690573697</speed>
  <fix>3d</fix>
</trkpt>
<trkpt lat="40.0728433" lon="-105.2305965">
  <ele>1593.34</ele>
  <time>2026-08-28T19:08:50Z</time>
  <course>1.37</course>
  <speed>0.7410802925459562</speed>
  <fix>3d</fix>
</trkpt>
<trkpt lat="40.0728432" lon="-105.2305954">
  <ele>1592.74</ele>
  <time>2026-08-28T19:08:50Z</time>
  <course>275.43</course>
  <speed>0.76</speed>
  <fix>3d</fix>
</trkpt>
<trkpt lat="40.0728433" lon="-105.2305967">
  <ele>1593.41</ele>
  <time>2026-08-28T19:08:50Z</time>
  <course>1.42</course>
  <speed>0.7410802925459562</speed>
  <fix>3d</fix>
</trkpt>
<trkpt lat="40.0728434" lon="-105.2305983">
  <ele>1593.83</ele>
  <time>2026-08-28T19:08:50Z</time>
  <course>1.67</course>
  <speed>0.740607858451421</speed>
  <fix>3d</fix>
</trkpt>
<trkpt lat="40.0728433" lon="-105.2305973">
  <ele>1593.22</ele>
  <time>2026-08-28T19:08:50Z</time>
  <course>275.64</course>
  <speed>0.76</speed>
  <fix>3d</fix>
</trkpt>
<trkpt lat="40.0728434" lon="-105.2305986">
  <ele>1593.9</ele>
  <time>2026-08-28T19:08:50Z</time>
  <course>1.72</course>
  <speed>0.740607858451421</speed>
  <fix>3d</fix>
</trkpt>
<trkpt lat="40.0728435" lon="-105.2306001">
  <ele>1594.32</ele>
  <time>2026-08-28T19:08:50Z</time>
  <course>1.94</course>
  <speed>0.740607858451421</speed>
  <fix>3d</fix>
</trkpt>
<trkpt lat="40.0728435" lon="-105.230599">
  <ele>1593.71</ele>
  <time>2026-08-28T19:08:50Z</time>
  <course>275.81</course>
  <speed>0.76</speed>
  <fix>3d</fix>
</trkpt>
<trkpt lat="40.0728435" lon="-105.2306004">
  <ele>1594.4</ele>
  <time>2026-08-28T19:08:50Z</time>
  <course>1.98</course>
  <speed>0.7505997601918082</speed>
  <fix>3d</fix>
</trkpt>
<trkpt lat="40.0728436" lon="-105.2306019">
  <ele>1594.8</ele>
  <time>2026-08-28T19:08:50Z</time>
  <course>2.17</course>
  <speed>0.7505997601918082</speed>
  <fix>3d</fix>
</trkpt>
<trkpt lat="40.0728437" lon="-105.2306007">
  <ele>1594.19</ele>
  <time>2026-08-28T19:08:50Z</time>
  <course>275.95</course>
  <speed>0.76</speed>
  <fix>3d</fix>
</trkpt>
<trkpt lat="40.0728436" lon="-105.2306022">
  <ele>1594.87</ele>
  <time>2026-08-28T19:08:50Z</time>
  <course>2.2</course>
  <speed>0.7505997601918082</speed>
  <fix>3d</fix>
</trkpt>
<trkpt lat="40.0728437" lon="-105.2306037">
  <ele>1595.29</ele>
  <time>2026-08-28T19:08:50Z</time>
  <course>2.38</course>
  <speed>0.7505997601918082</speed>
  <fix>3d</fix>
</trkpt>
<trkpt lat="40.0728438" lon="-105.2306026">
  <ele>1594.67</ele>
  <time>2026-08-28T19:08:50Z</time>
  <course>276.04</course>
  <speed>0.76</speed>
  <fix>3d</fix>
</trkpt>
<trkpt lat="40.0728438" lon="-105.230604">
  <ele>1595.35</ele>
  <time>2026-08-28T19:08:50Z</time>
  <course>2.42</course>
  <speed>0.7505997601918082</speed>
  <fix>3d</fix>
</trkpt>
<trkpt lat="40.0728439" lon="-105.2306055">
  <ele>1595.75</ele>
  <time>2026-08-28T19:08:50Z</time>
  <course>3.71</course>
  <speed>0.7610519036176179</speed>
  <fix>3d</fix>
</trkpt>
<trkpt lat="40.0728439" lon="-105.2306044">
  <ele>1595.15</ele>
  <time>2026-08-28T19:08:50Z</time>
  <course>276.02</course>
  <speed>0.76</speed>
  <fix>3d</fix>
</trkpt>
<trkpt lat="40.072844" lon="-105.2306073">
  <ele>1596.06</ele>
  <time>2026-08-28T19:08:50Z</time>
  <course>6.69</course>
  <speed>0.7410802925459562</speed>
  <fix>3d</fix>
</trkpt>
<trkpt lat="40.0728441" lon="-105.2306062">
  <ele>1595.57</ele>
  <time>2026-08-28T19:08:50Z</time>
  <course>276.01</course>
  <speed>0.75</speed>
  <fix>3d</fix>
</trkpt>
<trkpt lat="40.0728442" lon="-105.230609">
  <ele>1596.26</ele>
  <time>2026-08-28T19:08:50Z</time>
  <course>7.45</course>
  <speed>0.711125867902441</speed>
  <fix>3d</fix>
</trkpt>
<trkpt lat="40.0728442" lon="-105.2306079">
  <ele>1595.87</ele>
  <time>2026-08-28T19:08:50Z</time>
  <course>276.41</course>
  <speed>0.74</speed>
  <fix>3d</fix>
</trkpt>
<trkpt lat="40.0728443" lon="-105.2306107">
  <ele>1596.38</ele>
  <time>2026-08-28T19:08:50Z</time>
  <course>7.46</course>
  <speed>0.671863081289633</speed>
  <fix>3d</fix>
</trkpt>
<trkpt lat="40.0728443" lon="-105.2306096">
  <ele>1596.06</ele>
  <time>2026-08-28T19:08:50Z</time>
  <course>277.22</course>
  <speed>0.71</speed>
  <fix>3d</fix>
</trkpt>
<trkpt lat="40.0728445" lon="-105.2306122">
  <ele>1596.49</ele>
  <time>2026-08-28T19:08:50Z</time>
  <course>7.03</course>
  <speed>0.6319810123729984</speed>
  <fix>3d</fix>
</trkpt>
<trkpt lat="40.0728445" lon="-105.2306112">
  <ele>1596.19</ele>
  <time>2026-08-28T19:08:50Z</time>
  <course>278.21</course>
  <speed>0.67</speed>
  <fix>3d</fix>
</trkpt>
<trkpt lat="40.0728446" lon="-105.2306137">
  <ele>1596.59</ele>
  <time>2026-08-28T19:08:50Z</time>
  <course>7.02</course>
  <speed>0.5714017850864661</speed>
  <fix>3d</fix>
</trkpt>
<trkpt lat="40.0728447" lon="-105.2306127">
  <ele>1596.29</ele>
  <time>2026-08-28T19:08:50Z</time>
  <course>279.29</course>
  <speed>0.63</speed>
  <fix>3d</fix>
</trkpt>
<trkpt lat="40.0728448" lon="-105.2306149">
  <ele>1596.69</ele>
  <time>2026-08-28T19:08:50Z</time>
  <course>7.02</course>
  <speed>0.4909175083453431</speed>
  <fix>3d</fix>
</trkpt>
<trkpt lat="40.0728449" lon="-105.2306141">
  <ele>1596.38</ele>
  <time>2026-08-28T19:08:50Z</time>
  <course>280.52</course>
  <speed>0.56</speed>
  <fix>3d</fix>
</trkpt>
<trkpt lat="40.0728449" lon="-105.230616">
  <ele>1596.78</ele>
  <time>2026-08-28T19:08:50Z</time>
  <course>7.08</course>
  <speed>0.4004996878900158</speed>
  <fix>3d</fix>
</trkpt>
<trkpt lat="40.072845" lon="-105.2306153">
  <ele>1596.48</ele>
  <time>2026-08-28T19:08:50Z</time>
  <course>282.19</course>
  <speed>0.48</speed>
  <fix>3d</fix>
</trkpt>
<trkpt lat="40.0728451" lon="-105.2306169">
  <ele>1596.85</ele>
  <time>2026-08-28T19:08:50Z</time>
  <course>7.16</course>
  <speed>0.32015621187164245</speed>
  <fix>3d</fix>
</trkpt>
<trkpt lat="40.0728453" lon="-105.2306163">
  <ele>1596.57</ele>
  <time>2026-08-28T19:08:50Z</time>
  <course>284.67</course>
  <speed>0.4</speed>
  <fix>3d</fix>
</trkpt>
<trkpt lat="40.0728452" lon="-105.2306175">
  <ele>1596.91</ele>
  <time>2026-08-28T19:08:50Z</time>
  <course>7.22</course>
  <speed>0.24020824298928628</speed>
  <fix>3d</fix>
</trkpt>
<trkpt lat="40.0728455" lon="-105.2306172">
  <ele>1596.64</ele>
  <time>2026-08-28T19:08:50Z</time>
  <course>288.3</course>
  <speed>0.32</speed>
  <fix>3d</fix>
</trkpt>
<trkpt lat="40.0728454" lon="-105.230618">
  <ele>1596.96</ele>
  <time>2026-08-28T19:08:50Z</time>
  <course>7.33</course>
  <speed>0.16</speed>
  <fix>3d</fix>
</trkpt>
<trkpt lat="40.0728457" lon="-105.2306178">
  <ele>1596.72</ele>
  <time>2026-08-28T19:08:50Z</time>
  <course>293.5</course>
  <speed>0.24</speed>
  <fix>3d</fix>
</trkpt>
<trkpt lat="40.0728455" lon="-105.2306184">
  <ele>1597.0</ele>
  <time>2026-08-28T19:08:50Z</time>
  <course>7.35</course>
  <speed>0.08</speed>
  <fix>3d</fix>
</trkpt>
<trkpt lat="40.0728458" lon="-105.2306182">
  <ele>1596.77</ele>
  <time>2026-08-28T19:08:50Z</time>
  <course>301.51</course>
  <speed>0.17</speed>
  <fix>3d</fix>
</trkpt>
<trkpt lat="40.0728457" lon="-105.2306184">
  <ele>1597.02</ele>
  <time>2026-08-28T19:08:50Z</time>
  <course>4.38</course>
  <speed>0.02</speed>
  <fix>3d</fix>
</trkpt>
<trkpt lat="40.072846" lon="-105.2306184">
  <ele>1596.81</ele>
  <time>2026-08-28T19:08:50Z</time>
  <course>323.21</course>
  <speed>0.09</speed>
  <fix>3d</fix>
</trkpt>
<trkpt lat="40.0728457" lon="-105.2306183">
  <ele>1597.04</ele>
  <time>2026-08-28T19:08:50Z</time>
  <course>5.11</course>
  <speed>0.13601470508735444</speed>
  <fix>3d</fix>
</trkpt>
<trkpt lat="40.0728461" lon="-105.2306185">
  <ele>1596.84</ele>
  <time>2026-08-28T19:08:50Z</time>
  <course>39.22</course>
  <speed>0.07</speed>
  <fix>3d</fix>
</trkpt>
<trkpt lat="40.0728458" lon="-105.2306179">
  <ele>1597.05</ele>
  <time>2026-08-28T19:08:50Z</time>
  <course>5.1</course>
  <speed>0.29832867780352595</speed>
  <fix>3d</fix>
</trkpt>
<trkpt lat="40.0728462" lon="-105.2306183">
  <ele>1596.85</ele>
  <time>2026-08-28T19:08:50Z</time>
  <course>79.65</course>
  <speed>0.17</speed>
  <fix>3d</fix>
</trkpt>
<trkpt lat="40.0728458" lon="-105.230617">
  <ele>1597.05</ele>
  <time>2026-08-28T19:08:50Z</time>
  <course>5.06</course>
  <speed>0.48052055106935854</speed>
  <fix>3d</fix>
</trkpt>
<trkpt lat="40.0728462" lon="-105.2306178">
  <ele>1596.86</ele>
  <time>2026-08-28T19:08:50Z</time>
  <course>88.76</course>
  <speed>0.33</speed>
  <fix>3d</fix>
</trkpt>
<trkpt lat="40.0728458" lon="-105.2306156">
  <ele>1597.05</ele>
  <time>2026-08-28T19:08:50Z</time>
  <course>4.99</course>
  <speed>0.6609841147864296</speed>
  <fix>3d</fix>
</trkpt>
<trkpt lat="40.0728462" lon="-105.2306168">
  <ele>1596.87</ele>
  <time>2026-08-28T19:08:50Z</time>
  <course>91.78</course>
  <speed>0.51</speed>
  <fix>3d</fix>
</trkpt>
<trkpt lat="40.0728458" lon="-105.2306139">
  <ele>1597.04</ele>
  <time>2026-08-28T19:08:50Z</time>
  <course>4.92</course>
  <speed>0.840119039184329</speed>
  <fix>3d</fix>
</trkpt>
<trkpt lat="40.0728462" lon="-105.2306153">
  <ele>1596.87</ele>
  <time>2026-08-28T19:08:50Z</time>
  <course>93.15</course>
  <speed>0.69</speed>
  <fix>3d</fix>
</trkpt>
<trkpt lat="40.0728457" lon="-105.2306118">
  <ele>1597.04</ele>
  <time>2026-08-28T19:08:50Z</time>
  <course>4.95</course>
  <speed>1.0012991560967182</speed>
  <fix>3d</fix>
</trkpt>
<trkpt lat="40.0728461" lon="-105.2306135">
  <ele>1596.88</ele>
  <time>2026-08-28T19:08:50Z</time>
  <course>93.99</course>
  <speed>0.87</speed>
  <fix>3d</fix>
</trkpt>
<trkpt lat="40.0728455" lon="-105.2306093">
  <ele>1597.04</ele>
  <time>2026-08-28T19:08:50Z</time>
  <course>8.84</course>
  <speed>1.0705606008068858</speed>
  <fix>3d</fix>
</trkpt>
<trkpt lat="40.072846" lon="-105.2306112">
  <ele>1596.88</ele>
  <time>2026-08-28T19:08:50Z</time>
  <course>94.69</course>
  <speed>1.01</speed>
  <fix>3d</fix>
</trkpt>
<trkpt lat="40.0728454" lon="-105.2306067">
  <ele>1597.04</ele>
  <time>2026-08-28T19:08:50Z</time>
  <course>22.36</course>
  <speed>1.1982069938036581</speed>
  <fix>3d</fix>
</trkpt>
<trkpt lat="40.0728459" lon="-105.2306088">
  <ele>1596.88</ele>
  <time>2026-08-28T19:08:50Z</time>
  <course>94.97</course>
  <speed>1.12</speed>
  <fix>3d</fix>
</trkpt>
<trkpt lat="40.0728453" lon="-105.2306037">
  <ele>1597.04</ele>
  <time>2026-08-28T19:08:50Z</time>
  <course>34.82</course>
  <speed>1.3031116606031887</speed>
  <fix>3d</fix>
</trkpt>
<trkpt lat="40.0728457" lon="-105.230606">
  <ele>1596.89</ele>
  <time>2026-08-28T19:08:50Z</time>
  <course>94.07</course>
  <speed>1.21</speed>
  <fix>3d</fix>
</trkpt>
<trkpt lat="40.0728453" lon="-105.2306006">
  <ele>1597.05</ele>
  <time>2026-08-28T19:08:50Z</time>
  <course>47.23</course>
  <speed>1.3803260484392808</speed>
  <fix>3d</fix>
</trkpt>
<trkpt lat="40.0728456" lon="-105.230603">
  <ele>1596.89</ele>
  <time>2026-08-28T19:08:50Z</time>
  <course>92.04</course>
  <speed>1.31</speed>
  <fix>3d</fix>
</trkpt>
<trkpt lat="40.0728454" lon="-105.2305973">
  <ele>1597.05</ele>
  <time>2026-08-28T19:08:50Z</time>
  <course>59.6</course>
  <speed>1.4403124660989366</speed>
  <fix>3d</fix>
</trkpt>
<trkpt lat="40.0728456" lon="-105.2305998">
  <ele>1596.9</ele>
  <time>2026-08-28T19:08:50Z</time>
  <course>89.69</course>
  <speed>1.38</speed>
  <fix>3d</fix>
</trkpt>
<trkpt lat="40.0728455" lon="-105.2305939">
  <ele>1597.06</ele>
  <time>2026-08-28T19:08:50Z</time>
  <course>72.0</course>
  <speed>1.4716657229140047</speed>
  <fix>3d</fix>
</trkpt>
<trkpt lat="40.0728456" lon="-105.2305966">
  <ele>1596.91</ele>
  <time>2026-08-28T19:08:50Z</time>
  <course>87.72</course>
  <speed>1.43</speed>
  <fix>3d</fix>
</trkpt>
<trkpt lat="40.0728457" lon="-105.2305904">
  <ele>1597.07</ele>
  <time>2026-08-28T19:08:50Z</time>
  <course>84.26</course>
  <speed>1.4716657229140047</speed>
  <fix>3d</fix>
</trkpt>
<trkpt lat="40.0728456" lon="-105.2305931">
  <ele>1596.92</ele>
  <time>2026-08-28T19:08:50Z</time>
  <course>86.58</course>
  <speed>1.45</speed>
  <fix>3d</fix>
</trkpt>
<trkpt lat="40.0728458" lon="-105.230587">
  <ele>1597.07</ele>
  <time>2026-08-28T19:08:50Z</time>
  <course>88.2</course>
  <speed>1.4500344823486093</speed>
  <fix>3d</fix>
</trkpt>
<trkpt lat="40.0728457" lon="-105.2305897">
  <ele>1596.93</ele>
  <time>2026-08-28T19:08:50Z</time>
  <course>87.53</course>
  <speed>1.45</speed>
  <fix>3d</fix>
</trkpt>
<trkpt lat="40.0728458" lon="-105.2305837">
  <ele>1597.08</ele>
  <time>2026-08-28T19:08:50Z</time>
  <course>89.02</course>
  <speed>1.4000357138301864</speed>
  <fix>3d</fix>
</trkpt>
<trkpt lat="40.0728459" lon="-105.2305863">
  <ele>1596.94</ele>
  <time>2026-08-28T19:08:50Z</time>
  <course>89.39</course>
  <speed>1.42</speed>
  <fix>3d</fix>
</trkpt>
<trkpt lat="40.0728458" lon="-105.2305805">
  <ele>1597.09</ele>
  <time>2026-08-28T19:08:50Z</time>
  <course>90.14</course>
  <speed>1.330601367803295</speed>
  <fix>3d</fix>
</trkpt>
<trkpt lat="40.0728459" lon="-105.230583">
  <ele>1596.95</ele>
  <time>2026-08-28T19:08:50Z</time>
  <course>90.58</course>
  <speed>1.36</speed>
  <fix>3d</fix>
</trkpt>
<trkpt lat="40.0728457" lon="-105.2305775">
  <ele>1597.09</ele>
  <time>2026-08-28T19:08:50Z</time>
  <course>91.75</course>
  <speed>1.241974234837422</speed>
  <fix>3d</fix>
</trkpt>
<trkpt lat="40.0728459" lon="-105.23058">
  <ele>1596.96</ele>
  <time>2026-08-28T19:08:50Z</time>
  <course>91.98</course>
  <speed>1.29</speed>
  <fix>3d</fix>
</trkpt>
<trkpt lat="40.0728456" lon="-105.2305748">
  <ele>1597.09</ele>
  <time>2026-08-28T19:08:50Z</time>
  <course>93.67</course>
  <speed>1.104536101718726</speed>
  <fix>3d</fix>
</trkpt>
<trkpt lat="40.0728458" lon="-105.230577">
  <ele>1596.96</ele>
  <time>2026-08-28T19:08:50Z</time>
  <course>93.69</course>
  <speed>1.19</speed>
  <fix>3d</fix>
</trkpt>
<trkpt lat="40.0728454" lon="-105.2305725">
  <ele>1597.09</ele>
  <time>2026-08-28T19:08:50Z</time>
  <course>95.86</course>
  <speed>0.937709976485267</speed>
  <fix>3d</fix>
</trkpt>
<trkpt lat="40.0728457" lon="-105.2305744">
  <ele>1596.96</ele>
  <time>2026-08-28T19:08:50Z</time>
  <course>95.74</course>
  <speed>1.05</speed>
  <fix>3d</fix>
</trkpt>
<trkpt lat="40.0728452" lon="-105.2305706">
  <ele>1597.1</ele>
  <time>2026-08-28T19:08:50Z</time>
  <course>96.46</course>
  <speed>0.7256721022610694</speed>
  <fix>3d</fix>
</trkpt>
<trkpt lat="40.0728454" lon="-105.2305722">
  <ele>1596.97</ele>
  <time>2026-08-28T19:08:50Z</time>
  <course>98.78</course>
  <speed>0.87</speed>
  <fix>3d</fix>
</trkpt>
<trkpt lat="40.0728449" lon="-105.2305692">
  <ele>1597.09</ele>
  <time>2026-08-28T19:08:50Z</time>
  <course>96.38</course>
  <speed>0.4933558553417604</speed>
  <fix>3d</fix>
</trkpt>
<trkpt lat="40.0728451" lon="-105.2305704">
  <ele>1596.97</ele>
  <time>2026-08-28T19:08:50Z</time>
  <course>103.42</course>
  <speed>0.66</speed>
  <fix>3d</fix>
</trkpt>
<trkpt lat="40.0728446" lon="-105.2305685">
  <ele>1597.09</ele>
  <time>2026-08-28T19:08:50Z</time>
  <course>96.38</course>
  <speed>0.2640075756488817</speed>
  <fix>3d</fix>
</trkpt>
<trkpt lat="40.0728449" lon="-105.2305691">
  <ele>1596.97</ele>
  <time>2026-08-28T19:08:50Z</time>
  <course>112.08</course>
  <speed>0.43</speed>
  <fix>3d</fix>
</trkpt>
<trkpt lat="40.0728443" lon="-105.2305683">
  <ele>1597.08</ele>
  <time>2026-08-28T19:08:50Z</time>
  <course>96.4</course>
  <speed>0.17262676501632068</speed>
  <fix>3d</fix>
</trkpt>
<trkpt lat="40.0728446" lon="-105.2305685">
  <ele>1596.96</ele>
  <time>2026-08-28T19:08:50Z</time>
  <course>139.11</course>
  <speed>0.22</speed>
  <fix>3d</fix>
</trkpt>
<trkpt lat="40.072844" lon="-105.2305686">
  <ele>1597.07</ele>
  <time>2026-08-28T19:08:50Z</time>
  <course>96.31</course>
  <speed>0.29410882339705485</speed>
  <fix>3d</fix>
</trkpt>
<trkpt lat="40.0728443" lon="-105.2305684">
  <ele>1596.96</ele>
  <time>2026-08-28T19:08:50Z</time>
  <course>208.37</course>
  <speed>0.2</speed>
  <fix>3d</fix>
</trkpt>
<trkpt lat="40.0728437" lon="-105.2305694">
  <ele>1597.06</ele>
  <time>2026-08-28T19:08:50Z</time>
  <course>96.22</course>
  <speed>0.4428317965096906</speed>
  <fix>3d</fix>
</trkpt>
<trkpt lat="40.0728439" lon="-105.2305689">
  <ele>1596.96</ele>
  <time>2026-08-28T19:08:50Z</time>
  <course>238.12</course>
  <speed>0.35</speed>
  <fix>3d</fix>
</trkpt>
<trkpt lat="40.0728433" lon="-105.2305705">
  <ele>1597.06</ele>
  <time>2026-08-28T19:08:50Z</time>
  <course>96.14</course>
  <speed>0.52</speed>
  <fix>3d</fix>
</trkpt>
<trkpt lat="40.0728436" lon="-105.2305697">
  <ele>1596.95</ele>
  <time>2026-08-28T19:08:50Z</time>
  <course>246.17</course>
  <speed>0.48</speed>
  <fix>3d</fix>
</trkpt>
<trkpt lat="40.072843" lon="-105.2305717">
  <ele>1597.07</ele>
  <time>2026-08-28T19:08:50Z</time>
  <course>96.09</course>
  <speed>0.5385164807134504</speed>
  <fix>3d</fix>
</trkpt>
<trkpt lat="40.0728433" lon="-105.2305708">
  <ele>1596.95</ele>
  <time>2026-08-28T19:08:50Z</time>
  <course>248.76</course>
  <speed>0.55</speed>
  <fix>3d</fix>
</trkpt>
<trkpt lat="40.0728426" lon="-105.2305729">
  <ele>1597.07</ele>
  <time>2026-08-28T19:08:50Z</time>
  <course>96.08</course>
  <speed>0.49769468552517215</speed>
  <fix>3d</fix>
</trkpt>
<trkpt lat="40.0728429" lon="-105.230572">
  <ele>1596.96</ele>
  <time>2026-08-28T19:08:50Z</time>
  <course>249.23</course>
  <speed>0.57</speed>
  <fix>3d</fix>
</trkpt>
<trkpt lat="40.0728422" lon="-105.230574">
  <ele>1597.07</ele>
  <time>2026-08-28T19:08:50Z</time>
  <course>92.06</course>
  <speed>0.46647615158762407</speed>
  <fix>3d</fix>
</trkpt>
<trkpt lat="40.0728425" lon="-105.2305733">
  <ele>1596.96</ele>
  <time>2026-08-28T19:08:50Z</time>
  <course>247.42</course>
  <speed>0.53</speed>
  <fix>3d</fix>
</trkpt>
<trkpt lat="40.0728418" lon="-105.2305749">
  <ele>1597.08</ele>
  <time>2026-08-28T19:08:50Z</time>
  <course>77.98</course>
  <speed>0.3858756276314948</speed>
  <fix>3d</fix>
</trkpt>
<trkpt lat="40.0728421" lon="-105.2305744">
  <ele>1596.96</ele>
  <time>2026-08-28T19:08:50Z</time>
  <course>243.16</course>
  <speed>0.47</speed>
  <fix>3d</fix>
</trkpt>
<trkpt lat="40.0728415" lon="-105.2305757">
  <ele>1597.08</ele>
  <time>2026-08-28T19:08:50Z</time>
  <course>65.8</course>
  <speed>0.3176476034853718</speed>
  <fix>3d</fix>
</trkpt>
<trkpt lat="40.0728418" lon="-105.2305753">
  <ele>1596.97</ele>
  <time>2026-08-28T19:08:50Z</time>
  <course>241.62</course>
  <speed>0.4</speed>
  <fix>3d</fix>
</trkpt>
<trkpt lat="40.0728413" lon="-105.2305764">
  <ele>1597.08</ele>
  <time>2026-08-28T19:08:50Z</time>
  <course>53.73</course>
  <speed>0.2863564212655271</speed>
  <fix>3d</fix>
</trkpt>
<trkpt lat="40.0728414" lon="-105.230576">
  <ele>1596.97</ele>
  <time>2026-08-28T19:08:50Z</time>
  <course>244.66</course>
  <speed>0.34</speed>
  <fix>3d</fix>
</trkpt>
<trkpt lat="40.0728411" lon="-105.230577">
  <ele>1597.08</ele>
  <time>2026-08-28T19:08:50Z</time>
  <course>41.76</course>
  <speed>0.2640075756488817</speed>
  <fix>3d</fix>
</trkpt>
<trkpt lat="40.0728412" lon="-105.2305768">
  <ele>1596.98</ele>
  <time>2026-08-28T19:08:50Z</time>
  <course>247.31</course>
  <speed>0.29</speed>
  <fix>3d</fix>
</trkpt>
<trkpt lat="40.0728409" lon="-105.2305776">
  <ele>1597.08</ele>
  <time>2026-08-28T19:08:50Z</time>
  <course>29.71</course>
  <speed>0.23706539182259395</speed>
  <fix>3d</fix>
</trkpt>
<trkpt lat="40.072841" lon="-105.2305773">
  <ele>1596.98</ele>
  <time>2026-08-28T19:08:50Z</time>
  <course>247.44</course>
  <speed>0.26</speed>
  <fix>3d</fix>
</trkpt>
<trkpt lat="40.0728407" lon="-105.2305781">
  <ele>1597.08</ele>
  <time>2026-08-28T19:08:50Z</time>
  <course>17.68</course>
  <speed>0.23021728866442676</speed>
  <fix>3d</fix>
</trkpt>
<trkpt lat="40.0728409" lon="-105.2305779">
  <ele>1596.98</ele>
  <time>2026-08-28T19:08:50Z</time>
  <course>244.17</course>
  <speed>0.24</speed>
  <fix>3d</fix>
</trkpt>
<trkpt lat="40.0728404" lon="-105.2305786">
  <ele>1597.08</ele>
  <time>2026-08-28T19:08:50Z</time>
  <course>8.23</course>
  <speed>0.24413111231467405</speed>
  <fix>3d</fix>
</trkpt>
<trkpt lat="40.0728407" lon="-105.2305784">
  <ele>1596.98</ele>
  <time>2026-08-28T19:08:50Z</time>
  <course>238.47</course>
  <speed>0.22</speed>
  <fix>3d</fix>
</trkpt>
<trkpt lat="40.0728402" lon="-105.2305791">
  <ele>1597.08</ele>
  <time>2026-08-28T19:08:50Z</time>
  <course>10.2</course>
  <speed>0.2193171219946131</speed>
  <fix>3d</fix>
</trkpt>
<trkpt lat="40.0728404" lon="-105.2305788">
  <ele>1596.98</ele>
  <time>2026-08-28T19:08:50Z</time>
  <course>235.11</course>
  <speed>0.22</speed>
  <fix>3d</fix>
</trkpt>
<trkpt lat="40.07284" lon="-105.2305794">
  <ele>1597.08</ele>
  <time>2026-08-28T19:08:50Z</time>
  <course>10.41</course>
  <speed>0.17492855684535902</speed>
  <fix>3d</fix>
</trkpt>
<trkpt lat="40.0728402" lon="-105.2305792">
  <ele>1596.99</ele>
  <time>2026-08-28T19:08:50Z</time>
  <course>228.93</course>
  <speed>0.19</speed>
  <fix>3d</fix>
</trkpt>
<trkpt lat="40.0728397" lon="-105.2305795">
  <ele>1597.08</ele>
  <time>2026-08-28T19:08:51Z</time>
  <course>10.46</course>
  <speed>0.13341664064126335</speed>
  <fix>3d</fix>
</trkpt>
<trkpt lat="40.07284" lon="-105.2305795">
  <ele>1596.99</ele>
  <time>2026-08-28T19:08:51Z</time>
  <course>213.12</course>
  <speed>0.14</speed>
  <fix>3d</fix>
</trkpt>
<trkpt lat="40.0728396" lon="-105.2305795">
  <ele>1597.08</ele>
  <time>2026-08-28T19:08:51Z</time>
  <course>10.48</course>
  <speed>0.1004987562112089</speed>
  <fix>3d</fix>
</trkpt>
<trkpt lat="40.0728397" lon="-105.2305796">
  <ele>1596.99</ele>
  <time>2026-08-28T19:08:51Z</time>
  <course>189.64</course>
  <speed>0.09</speed>
  <fix>3d</fix>
</trkpt>
<trkpt lat="40.0728394" lon="-105.2305794">
  <ele>1597.08</ele>
  <time>2026-08-28T19:08:51Z</time>
  <course>10.51</course>
  <speed>0.07810249675906654</speed>
  <fix>3d</fix>
</trkpt>
<trkpt lat="40.0728396" lon="-105.2305796">
  <ele>1596.99</ele>
  <time>2026-08-28T19:08:51Z</time>
  <course>151.02</course>
  <speed>0.07</speed>
  <fix>3d</fix>
</trkpt>
<trkpt lat="40.0728394" lon="-105.2305793">
  <ele>1597.08</ele>
  <time>2026-08-28T19:08:51Z</time>
  <course>10.52</course>
  <speed>0.0854400374531753</speed>
  <fix>3d</fix>
</trkpt>
<trkpt lat="40.0728395" lon="-105.2305795">
  <ele>1596.99</ele>
  <time>2026-08-28T19:08:51Z</time>
  <course>109.79</course>
  <speed>0.08</speed>
  <fix>3d</fix>
</trkpt>
<trkpt lat="40.0728394" lon="-105.2305791">
  <ele>1597.08</ele>
  <time>2026-08-28T19:08:51Z</time>
  <course>10.53</course>
  <speed>0.11</speed>
  <fix>3d</fix>
</trkpt>
<trkpt lat="40.0728395" lon="-105.2305793">
  <ele>1596.99</ele>
  <time>2026-08-28T19:08:51Z</time>
  <course>85.78</course>
  <speed>0.11</speed>
  <fix>3d</fix>
</trkpt>
<trkpt lat="40.0728394" lon="-105.2305788">
  <ele>1597.09</ele>
  <time>2026-08-28T19:08:51Z</time>
  <course>10.54</course>
  <speed>0.13152946437965907</speed>
  <fix>3d</fix>
</trkpt>
<trkpt lat="40.0728395" lon="-105.230579">
  <ele>1596.99</ele>
  <time>2026-08-28T19:08:51Z</time>
  <course>73.17</course>
  <speed>0.14</speed>
  <fix>3d</fix>
</trkpt>
<trkpt lat="40.0728395" lon="-105.2305784">
  <ele>1597.09</ele>
  <time>2026-08-28T19:08:51Z</time>
  <course>10.57</course>
  <speed>0.15811388300841897</speed>
  <fix>3d</fix>
</trkpt>
<trkpt lat="40.0728396" lon="-105.2305787">
  <ele>1596.99</ele>
  <time>2026-08-28T19:08:51Z</time>
  <course>65.5</course>
  <speed>0.17</speed>
  <fix>3d</fix>
</trkpt>
<trkpt lat="40.0728397" lon="-105.230578">
  <ele>1597.1</ele>
  <time>2026-08-28T19:08:51Z</time>
  <course>10.6</course>
  <speed>0.17888543819998318</speed>
  <fix>3d</fix>
</trkpt>
<trkpt lat="40.0728397" lon="-105.2305782">
  <ele>1596.99</ele>
  <time>2026-08-28T19:08:51Z</time>
  <course>60.13</course>
  <speed>0.2</speed>
  <fix>3d</fix>
</trkpt>
<trkpt lat="40.0728399" lon="-105.2305776">
  <ele>1597.1</ele>
  <time>2026-08-28T19:08:51Z</time>
  <course>10.63</course>
  <speed>0.1972308292331602</speed>
  <fix>3d</fix>
</trkpt>
<trkpt lat="40.0728399" lon="-105.2305778">
  <ele>1596.99</ele>
  <time>2026-08-28T19:08:51Z</time>
  <course>56.08</course>
  <speed>0.22</speed>
  <fix>3d</fix>
</trkpt>
<trkpt lat="40.0728402" lon="-105.2305772">
  <ele>1597.1</ele>
  <time>2026-08-28T19:08:51Z</time>
  <course>10.65</course>
  <speed>0.20248456731316586</speed>
  <fix>3d</fix>
</trkpt>
<trkpt lat="40.0728402" lon="-105.2305774">
  <ele>1596.99</ele>
  <time>2026-08-28T19:08:51Z</time>
  <course>52.87</course>
  <speed>0.23</speed>
  <fix>3d</fix>
</trkpt>
<trkpt lat="40.0728404" lon="-105.2305767">
  <ele>1597.09</ele>
  <time>2026-08-28T19:08:51Z</time>
  <course>10.67</course>
  <speed>0.2</speed>
  <fix>3d</fix>
</trkpt>
<trkpt lat="40.0728404" lon="-105.230577">
  <ele>1596.99</ele>
  <time>2026-08-28T19:08:51Z</time>
  <course>50.25</course>
  <speed>0.24</speed>
  <fix>3d</fix>
</trkpt>
<trkpt lat="40.0728407" lon="-105.2305763">
  <ele>1597.09</ele>
  <time>2026-08-28T19:08:51Z</time>
  <course>10.69</course>
  <speed>0.2</speed>
  <fix>3d</fix>
</trkpt>
<trkpt lat="40.0728407" lon="-105.2305765">
  <ele>1596.99</ele>
  <time>2026-08-28T19:08:51Z</time>
  <course>48.12</course>
  <speed>0.24</speed>
  <fix>3d</fix>
</trkpt>
<trkpt lat="40.072841" lon="-105.2305759">
  <ele>1597.08</ele>
  <time>2026-08-28T19:08:51Z</time>
  <course>10.7</course>
  <speed>0.18439088914585774</speed>
  <fix>3d</fix>
</trkpt>
<trkpt lat="40.072841" lon="-105.230576">
  <ele>1596.99</ele>
  <time>2026-08-28T19:08:51Z</time>
  <course>46.36</course>
  <speed>0.24</speed>
  <fix>3d</fix>
</trkpt>
<trkpt lat="40.0728413" lon="-105.2305755">
  <ele>1597.08</ele>
  <time>2026-08-28T19:08:51Z</time>
  <course>10.72</course>
  <speed>0.17029386365926402</speed>
  <fix>3d</fix>
</trkpt>
<trkpt lat="40.0728413" lon="-105.2305757">
  <ele>1596.98</ele>
  <time>2026-08-28T19:08:51Z</time>
  <course>44.87</course>
  <speed>0.23</speed>
  <fix>3d</fix>
</trkpt>
<trkpt lat="40.0728415" lon="-105.2305752">
  <ele>1597.07</ele>
  <time>2026-08-28T19:08:51Z</time>
  <course>10.73</course>
  <speed>0.14866068747318506</speed>
  <fix>3d</fix>
</trkpt>
<trkpt lat="40.0728416" lon="-105.2305753">
  <ele>1596.98</ele>
  <time>2026-08-28T19:08:51Z</time>
  <course>43.51</course>
  <speed>0.21</speed>
  <fix>3d</fix>
</trkpt>
<trkpt lat="40.0728418" lon="-105.2305749">
  <ele>1597.07</ele>
  <time>2026-08-28T19:08:51Z</time>
  <course>10.77</course>
  <speed>0.1345362404707371</speed>
  <fix>3d</fix>
</trkpt>
<trkpt lat="40.0728419" lon="-105.230575">
  <ele>1596.99</ele>
  <time>2026-08-28T19:08:51Z</time>
  <course>42.2</course>
  <speed>0.19</speed>
  <fix>3d</fix>
</trkpt>
<trkpt lat="40.072842" lon="-105.2305747">
  <ele>1597.05</ele>
  <time>2026-08-28T19:08:51Z</time>
  <course>11.13</course>
  <speed>0.1063014581273465</speed>
  <fix>3d</fix>
</trkpt>
<trkpt lat="40.0728421" lon="-105.2305747">
  <ele>1596.98</ele>
  <time>2026-08-28T19:08:51Z</time>
  <course>40.42</course>
  <speed>0.16</speed>
  <fix>3d</fix>
</trkpt>
<trkpt lat="40.0728422" lon="-105.2305745">
  <ele>1597.01</ele>
  <time>2026-08-28T19:08:51Z</time>
  <course>11.53</course>
  <speed>0.0848528137423857</speed>
  <fix>3d</fix>
</trkpt>
<trkpt lat="40.0728424" lon="-105.2305744">
  <ele>1596.96</ele>
  <time>2026-08-28T19:08:51Z</time>
  <course>38.41</course>
  <speed>0.14</speed>
  <fix>3d</fix>
</trkpt>
<trkpt lat="40.0728424" lon="-105.2305743">
  <ele>1596.92</ele>
  <time>2026-08-28T19:08:51Z</time>
  <course>11.88</course>
  <speed>0.06403124237432849</speed>
  <fix>3d</fix>
</trkpt>
<trkpt lat="40.0728425" lon="-105.2305743">
  <ele>1596.91</ele>
  <time>2026-08-28T19:08:51Z</time>
  <course>36.99</course>
  <speed>0.11</speed>
  <fix>3d</fix>
</trkpt>
<trkpt lat="40.0728425" lon="-105.2305742">
  <ele>1596.79</ele>
  <time>2026-08-28T19:08:51Z</time>
  <course>12.07</course>
  <speed>0.044721359549995794</speed>
  <fix>3d</fix>
</trkpt>
<trkpt lat="40.0728426" lon="-105.2305742">
  <ele>1596.82</ele>
  <time>2026-08-28T19:08:51Z</time>
  <course>36.7</course>
  <speed>0.09</speed>
  <fix>3d</fix>
</trkpt>
<trkpt lat="40.0728426" lon="-105.2305741">
  <ele>1596.64</ele>
  <time>2026-08-28T19:08:51Z</time>
  <course>11.89</course>
  <speed>0.03</speed>
  <fix>3d</fix>
</trkpt>
<trkpt lat="40.0728428" lon="-105.230574">
  <ele>1596.69</ele>
  <time>2026-08-28T19:08:51Z</time>
  <course>39.38</course>
  <speed>0.06</speed>
  <fix>3d</fix>
</trkpt>
<trkpt lat="40.0728426" lon="-105.230574">
  <ele>1596.5</ele>
  <time>2026-08-28T19:08:51Z</time>
  <course>11.62</course>
  <speed>0.022360679774997897</speed>
  <fix>3d</fix>
</trkpt>
<trkpt lat="40.0728429" lon="-105.2305739">
  <ele>1596.54</ele>
  <time>2026-08-28T19:08:51Z</time>
  <course>46.97</course>
  <speed>0.04</speed>
  <fix>3d</fix>
</trkpt>
<trkpt lat="40.0728426" lon="-105.2305739">
  <ele>1596.37</ele>
  <time>2026-08-28T19:08:51Z</time>
  <course>11.49</course>
  <speed>0.03</speed>
  <fix>3d</fix>
</trkpt>
<trkpt lat="40.0728429" lon="-105.2305739">
  <ele>1596.39</ele>
  <time>2026-08-28T19:08:51Z</time>
  <course>66.88</course>
  <speed>0.02</speed>
  <fix>3d</fix>
</trkpt>
<trkpt lat="40.0728426" lon="-105.2305739">
  <ele>1596.25</ele>
  <time>2026-08-28T19:08:51Z</time>
  <course>11.4</course>
  <speed>0.04</speed>
  <fix>3d</fix>
</trkpt>
<trkpt lat="40.0728429" lon="-105.2305739">
  <ele>1596.27</ele>
  <time>2026-08-28T19:08:51Z</time>
  <course>156.29</course>
  <speed>0.01</speed>
  <fix>3d</fix>
</trkpt>
<trkpt lat="40.0728426" lon="-105.230574">
  <ele>1596.14</ele>
  <time>2026-08-28T19:08:51Z</time>
  <course>11.37</course>
  <speed>0.05099019513592785</speed>
  <fix>3d</fix>
</trkpt>
<trkpt lat="40.0728429" lon="-105.2305739">
  <ele>1596.15</ele>
  <time>2026-08-28T19:08:51Z</time>
  <course>199.01</course>
  <speed>0.02</speed>
  <fix>3d</fix>
</trkpt>
<trkpt lat="40.0728426" lon="-105.230574">
  <ele>1596.03</ele>
  <time>2026-08-28T19:08:51Z</time>
  <course>11.36</course>
  <speed>0.0632455532033676</speed>
  <fix>3d</fix>
</trkpt>
<trkpt lat="40.0728429" lon="-105.2305739">
  <ele>1596.04</ele>
  <time>2026-08-28T19:08:51Z</time>
  <course>210.03</course>
  <speed>0.04</speed>
  <fix>3d</fix>
</trkpt>
<trkpt lat="40.0728425" lon="-105.230574">
  <ele>1595.93</ele>
  <time>2026-08-28T19:08:51Z</time>
  <course>11.36</course>
  <speed>0.07615773105863909</speed>
  <fix>3d</fix>
</trkpt>
<trkpt lat="40.0728428" lon="-105.2305739">
  <ele>1595.94</ele>
  <time>2026-08-28T19:08:51Z</time>
  <course>215.2</course>
  <speed>0.05</speed>
  <fix>3d</fix>
</trkpt>
<trkpt lat="40.0728424" lon="-105.2305741">
  <ele>1595.83</ele>
  <time>2026-08-28T19:08:51Z</time>
  <course>11.38</course>
  <speed>0.08062257748298549</speed>
  <fix>3d</fix>
</trkpt>
<trkpt lat="40.0728427" lon="-105.230574">
  <ele>1595.84</ele>
  <time>2026-08-28T19:08:51Z</time>
  <course>218.35</course>
  <speed>0.07</speed>
  <fix>3d</fix>
</trkpt>
<trkpt lat="40.0728424" lon="-105.2305742">
  <ele>1595.73</ele>
  <time>2026-08-28T19:08:51Z</time>
  <course>11.39</course>
  <speed>0.08062257748298549</speed>
  <fix>3d</fix>
</trkpt>
<trkpt lat="40.0728426" lon="-105.2305741">
  <ele>1595.74</ele>
  <time>2026-08-28T19:08:51Z</time>
  <course>220.74</course>
  <speed>0.07</speed>
  <fix>3d</fix>
</trkpt>
<trkpt lat="40.0728423" lon="-105.2305743">
  <ele>1595.63</ele>
  <time>2026-08-28T19:08:51Z</time>
  <course>11.41</course>
  <speed>0.08062257748298549</speed>
  <fix>3d</fix>
</trkpt>
<trkpt lat="40.0728425" lon="-105.2305742">
  <ele>1595.63</ele>
  <time>2026-08-28T19:08:51Z</time>
  <course>223.12</course>
  <speed>0.08</speed>
  <fix>3d</fix>
</trkpt>
<trkpt lat="40.0728422" lon="-105.2305744">
  <ele>1595.53</ele>
  <time>2026-08-28T19:08:51Z</time>
  <course>11.37</course>
  <speed>0.08062257748298549</speed>
  <fix>3d</fix>
</trkpt>
<trkpt lat="40.0728424" lon="-105.2305744">
  <ele>1595.54</ele>
  <time>2026-08-28T19:08:51Z</time>
  <course>225.47</course>
  <speed>0.08</speed>
  <fix>3d</fix>
</trkpt>
<trkpt lat="40.0728421" lon="-105.2305745">
  <ele>1595.44</ele>
  <time>2026-08-28T19:08:51Z</time>
  <course>11.39</course>
  <speed>0.07211102550927978</speed>
  <fix>3d</fix>
</trkpt>
<trkpt lat="40.0728423" lon="-105.2305745">
  <ele>1595.45</ele>
  <time>2026-08-28T19:08:51Z</time>
  <course>228.05</course>
  <speed>0.08</speed>
  <fix>3d</fix>
</trkpt>
<trkpt lat="40.072842" lon="-105.2305747">
  <ele>1595.34</ele>
  <time>2026-08-28T19:08:51Z</time>
  <course>11.38</course>
  <speed>0.07211102550927978</speed>
  <fix>3d</fix>
</trkpt>
<trkpt lat="40.0728422" lon="-105.2305747">
  <ele>1595.35</ele>
  <time>2026-08-28T19:08:51Z</time>
  <course>230.9</course>
  <speed>0.08</speed>
  <fix>3d</fix>
</trkpt>
<trkpt lat="40.0728419" lon="-105.2305748">
  <ele>1595.24</ele>
  <time>2026-08-28T19:08:51Z</time>
  <course>11.38</course>
  <speed>0.06403124237432849</speed>
  <fix>3d</fix>
</trkpt>
<trkpt lat="40.0728421" lon="-105.2305748">
  <ele>1595.25</ele>
  <time>2026-08-28T19:08:51Z</time>
  <course>233.96</course>
  <speed>0.07</speed>
  <fix>3d</fix>
</trkpt>
<trkpt lat="40.0728419" lon="-105.2305749">
  <ele>1595.14</ele>
  <time>2026-08-28T19:08:51Z</time>
  <course>11.39</course>
  <speed>0.05</speed>
  <fix>3d</fix>
</trkpt>
<trkpt lat="40.072842" lon="-105.2305749">
  <ele>1595.14</ele>
  <time>2026-08-28T19:08:51Z</time>
  <course>237.81</course>
  <speed>0.06</speed>
  <fix>3d</fix>
</trkpt>
<trkpt lat="40.0728418" lon="-105.230575">
  <ele>1595.04</ele>
  <time>2026-08-28T19:08:51Z</time>
  <course>11.38</course>
  <speed>0.04242640687119285</speed>
  <fix>3d</fix>
</trkpt>
<trkpt lat="40.072842" lon="-105.2305751">
  <ele>1595.05</ele>
  <time>2026-08-28T19:08:51Z</time>
  <course>242.8</course>
  <speed>0.06</speed>
  <fix>3d</fix>
</trkpt>
<trkpt lat="40.0728418" lon="-105.2305751">
  <ele>1594.94</ele>
  <time>2026-08-28T19:08:51Z</time>
  <course>11.38</course>
  <speed>0.0282842712474619</speed>
  <fix>3d</fix>
</trkpt>
<trkpt lat="40.072842" lon="-105.2305752">
  <ele>1594.95</ele>
  <time>2026-08-28T19:08:51Z</time>
  <course>249.38</course>
  <speed>0.05</speed>
  <fix>3d</fix>
</trkpt>
<trkpt lat="40.0728418" lon="-105.2305752">
  <ele>1594.84</ele>
  <time>2026-08-28T19:08:51Z</time>
  <course>11.39</course>
  <speed>0.01414213562373095</speed>
  <fix>3d</fix>
</trkpt>
<trkpt lat="40.0728419" lon="-105.2305753">
  <ele>1594.85</ele>
  <time>2026-08-28T19:08:51Z</time>
  <course>257.99</course>
  <speed>0.04</speed>
  <fix>3d</fix>
</trkpt>
<trkpt lat="40.0728418" lon="-105.2305753">
  <ele>1594.74</ele>
  <time>2026-08-28T19:08:51Z</time>
  <course>11.38</course>
  <speed>0.01414213562373095</speed>
  <fix>3d</fix>
</trkpt>
<trkpt lat="40.0728419" lon="-105.2305754">
  <ele>1594.75</ele>
  <time>2026-08-28T19:08:51Z</time>
  <course>268.35</course>
  <speed>0.04</speed>
  <fix>3d</fix>
</trkpt>
<trkpt lat="40.0728418" lon="-105.2305754">
  <ele>1594.64</ele>
  <time>2026-08-28T19:08:51Z</time>
  <course>11.38</course>
  <speed>0.0</speed>
  <fix>3d</fix>
</trkpt>
<trkpt lat="40.0728419" lon="-105.2305755">
  <ele>1594.65</ele>
  <time>2026-08-28T19:08:51Z</time>
  <course>280.35</course>
  <speed>0.03</speed>
  <fix>3d</fix>
</trkpt>
<trkpt lat="40.0728418" lon="-105.2305754">
  <ele>1594.54</ele>
  <time>2026-08-28T19:08:51Z</time>
  <course>11.38</course>
  <speed>0.0</speed>
  <fix>3d</fix>
</trkpt>
<trkpt lat="40.0728419" lon="-105.2305756">
  <ele>1594.56</ele>
  <time>2026-08-28T19:08:51Z</time>
  <course>294.24</course>
  <speed>0.03</speed>
  <fix>3d</fix>
</trkpt>
<trkpt lat="40.0728418" lon="-105.2305754">
  <ele>1594.44</ele>
  <time>2026-08-28T19:08:51Z</time>
  <course>11.39</course>
  <speed>0.0</speed>
  <fix>3d</fix>
</trkpt>
<trkpt lat="40.0728419" lon="-105.2305756">
  <ele>1594.46</ele>
  <time>2026-08-28T19:08:51Z</time>
  <course>309.3</course>
  <speed>0.02</speed>
  <fix>3d</fix>
</trkpt>
<trkpt lat="40.0728418" lon="-105.2305755">
  <ele>1594.34</ele>
  <time>2026-08-28T19:08:51Z</time>
  <course>11.38</course>
  <speed>0.01</speed>
  <fix>3d</fix>
</trkpt>
<trkpt lat="40.0728419" lon="-105.2305756">
  <ele>1594.36</ele>
  <time>2026-08-28T19:08:51Z</time>
  <course>324.28</course>
  <speed>0.02</speed>
  <fix>3d</fix>
</trkpt>
<trkpt lat="40.0728419" lon="-105.2305755">
  <ele>1594.24</ele>
  <time>2026-08-28T19:08:51Z</time>
  <course>11.39</course>
  <speed>0.01</speed>
  <fix>3d</fix>
</trkpt>
<trkpt lat="40.0728419" lon="-105.2305757">
  <ele>1594.26</ele>
  <time>2026-08-28T19:08:51Z</time>
  <course>337.58</course>
  <speed>0.02</speed>
  <fix>3d</fix>
</trkpt>
<trkpt lat="40.0728419" lon="-105.2305755">
  <ele>1594.15</ele>
  <time>2026-08-28T19:08:51Z</time>
  <course>11.39</course>
  <speed>0.022360679774997897</speed>
  <fix>3d</fix>
</trkpt>
<trkpt lat="40.072842" lon="-105.2305758">
  <ele>1594.15</ele>
  <time>2026-08-28T19:08:51Z</time>
  <course>348.34</course>
  <speed>0.02</speed>
  <fix>3d</fix>
</trkpt>
<trkpt lat="40.072842" lon="-105.2305755">
  <ele>1594.05</ele>
  <time>2026-08-28T19:08:51Z</time>
  <course>11.4</course>
  <speed>0.022360679774997897</speed>
  <fix>3d</fix>
</trkpt>
<trkpt lat="40.072842" lon="-105.2305758">
  <ele>1594.06</ele>
  <time>2026-08-28T19:08:51Z</time>
  <course>356.75</course>
  <speed>0.03</speed>
  <fix>3d</fix>
</trkpt>
<trkpt lat="40.072842" lon="-105.2305755">
  <ele>1593.95</ele>
  <time>2026-08-28T19:08:51Z</time>
  <course>11.39</course>
  <speed>0.02</speed>
  <fix>3d</fix>
</trkpt>
<trkpt lat="40.0728421" lon="-105.2305758">
  <ele>1593.96</ele>
  <time>2026-08-28T19:08:51Z</time>
  <course>3.51</course>
  <speed>0.03</speed>
  <fix>3d</fix>
</trkpt>
<trkpt lat="40.072842" lon="-105.2305755">
  <ele>1593.84</ele>
  <time>2026-08-28T19:08:51Z</time>
  <course>11.41</course>
  <speed>0.03</speed>
  <fix>3d</fix>
</trkpt>
<trkpt lat="40.0728421" lon="-105.2305758">
  <ele>1593.86</ele>
  <time>2026-08-28T19:08:51Z</time>
  <course>10.11</course>
  <speed>0.03</speed>
  <fix>3d</fix>
</trkpt>
<trkpt lat="40.0728421" lon="-105.2305755">
  <ele>1593.74</ele>
  <time>2026-08-28T19:08:51Z</time>
  <course>11.39</course>
  <speed>0.03</speed>
  <fix>3d</fix>
</trkpt>
<trkpt lat="40.0728422" lon="-105.2305758">
  <ele>1593.75</ele>
  <time>2026-08-28T19:08:51Z</time>
  <course>16.69</course>
  <speed>0.03</speed>
  <fix>3d</fix>
</trkpt>
<trkpt lat="40.0728421" lon="-105.2305755">
  <ele>1593.64</ele>
  <time>2026-08-28T19:08:51Z</time>
  <course>11.39</course>
  <speed>0.03</speed>
  <fix>3d</fix>
</trkpt>
<trkpt lat="40.0728423" lon="-105.2305758">
  <ele>1593.64</ele>
  <time>2026-08-28T19:08:51Z</time>
  <course>22.64</course>
  <speed>0.03</speed>
  <fix>3d</fix>
</trkpt>
<trkpt lat="40.0728422" lon="-105.2305755">
  <ele>1593.54</ele>
  <time>2026-08-28T19:08:51Z</time>
  <course>11.38</course>
  <speed>0.03</speed>
  <fix>3d</fix>
</trkpt>
<trkpt lat="40.0728423" lon="-105.2305758">
  <ele>1593.55</ele>
  <time>2026-08-28T19:08:51Z</time>
  <course>27.69</course>
  <speed>0.03</speed>
  <fix>3d</fix>
</trkpt>
<trkpt lat="40.0728422" lon="-105.2305755">
  <ele>1593.43</ele>
  <time>2026-08-28T19:08:51Z</time>
  <course>11.38</course>
  <speed>0.03</speed>
  <fix>3d</fix>
</trkpt>
<trkpt lat="40.0728424" lon="-105.2305757">
  <ele>1593.45</ele>
  <time>2026-08-28T19:08:51Z</time>
  <course>32.86</course>
  <speed>0.02</speed>
  <fix>3d</fix>
</trkpt>
<trkpt lat="40.0728422" lon="-105.2305755">
  <ele>1593.33</ele>
  <time>2026-08-28T19:08:51Z</time>
  <course>11.38</course>
  <speed>0.03</speed>
  <fix>3d</fix>
</trkpt>
<trkpt lat="40.0728424" lon="-105.2305756">
  <ele>1593.35</ele>
  <time>2026-08-28T19:08:51Z</time>
  <course>39.01</course>
  <speed>0.02</speed>
  <fix>3d</fix>
</trkpt>
<trkpt lat="40.0728423" lon="-105.2305754">
  <ele>1593.23</ele>
  <time>2026-08-28T19:08:51Z</time>
  <course>11.4</course>
  <speed>0.03</speed>
  <fix>3d</fix>
</trkpt>
<trkpt lat="40.0728424" lon="-105.2305756">
  <ele>1593.25</ele>
  <time>2026-08-28T19:08:51Z</time>
  <course>46.14</course>
  <speed>0.02</speed>
  <fix>3d</fix>
</trkpt>
<trkpt lat="40.0728423" lon="-105.2305754">
  <ele>1593.13</ele>
  <time>2026-08-28T19:08:51Z</time>
  <course>11.36</course>
  <speed>0.0316227766016838</speed>
  <fix>3d</fix>
</trkpt>
<trkpt lat="40.0728425" lon="-105.2305756">
  <ele>1593.15</ele>
  <time>2026-08-28T19:08:51Z</time>
  <course>54.44</course>
  <speed>0.02</speed>
  <fix>3d</fix>
</trkpt>
<trkpt lat="40.0728423" lon="-105.2305754">
  <ele>1593.03</ele>
  <time>2026-08-28T19:08:51Z</time>
  <course>11.36</course>
  <speed>0.0316227766016838</speed>
  <fix>3d</fix>
</trkpt>
<trkpt lat="40.0728425" lon="-105.2305756">
  <ele>1593.06</ele>
  <time>2026-08-28T19:08:51Z</time>
  <course>63.23</course>
  <speed>0.01</speed>
  <fix>3d</fix>
</trkpt>
<trkpt lat="40.0728423" lon="-105.2305753">
  <ele>1592.94</ele>
  <time>2026-08-28T19:08:51Z</time>
  <course>11.38</course>
  <speed>0.03605551275463989</speed>
  <fix>3d</fix>
</trkpt>
<trkpt lat="40.0728425" lon="-105.2305756">
  <ele>1592.96</ele>
  <time>2026-08-28T19:08:51Z</time>
  <course>73.2</course>
  <speed>0.01</speed>
  <fix>3d</fix>
</trkpt>
<trkpt lat="40.0728423" lon="-105.2305753">
  <ele>1592.84</ele>
  <time>2026-08-28T19:08:51Z</time>
  <course>11.39</course>
  <speed>0.03605551275463989</speed>
  <fix>3d</fix>
</trkpt>
<trkpt lat="40.0728425" lon="-105.2305755">
  <ele>1592.86</ele>
  <time>2026-08-28T19:08:51Z</time>
  <course>86.2</course>
  <speed>0.01</speed>
  <fix>3d</fix>
</trkpt>
<trkpt lat="40.0728423" lon="-105.2305753">
  <ele>1592.74</ele>
  <time>2026-08-28T19:08:51Z</time>
  <course>11.41</course>
  <speed>0.03605551275463989</speed>
  <fix>3d</fix>
</trkpt>
<trkpt lat="40.0728425" lon="-105.2305755">
  <ele>1592.76</ele>
  <time>2026-08-28T19:08:51Z</time>
  <course>101.12</course>
  <speed>0.01</speed>
  <fix>3d</fix>
</trkpt>
<trkpt lat="40.0728423" lon="-105.2305753">
  <ele>1592.64</ele>
  <time>2026-08-28T19:08:51Z</time>
  <course>11.4</course>
  <speed>0.0282842712474619</speed>
  <fix>3d</fix>
</trkpt>
<trkpt lat="40.0728425" lon="-105.2305755">
  <ele>1592.65</ele>
  <time>2026-08-28T19:08:51Z</time>
  <course>115.71</course>
  <speed>0.01</speed>
  <fix>3d</fix>
</trkpt>
<trkpt lat="40.0728423" lon="-105.2305752">
  <ele>1592.55</ele>
  <time>2026-08-28T19:08:51Z</time>
  <course>11.4</course>
  <speed>0.03605551275463989</speed>
  <fix>3d</fix>
</trkpt>
<trkpt lat="40.0728425" lon="-105.2305754">
  <ele>1592.56</ele>
  <time>2026-08-28T19:08:51Z</time>
  <course>127.58</course>
  <speed>0.01</speed>
  <fix>3d</fix>
</trkpt>
<trkpt lat="40.0728423" lon="-105.2305752">
  <ele>1592.45</ele>
  <time>2026-08-28T19:08:51Z</time>
  <course>11.4</course>
  <speed>0.03605551275463989</speed>
  <fix>3d</fix>
</trkpt>
<trkpt lat="40.0728425" lon="-105.2305753">
  <ele>1592.46</ele>
  <time>2026-08-28T19:08:51Z</time>
  <course>137.16</course>
  <speed>0.01</speed>
  <fix>3d</fix>
</trkpt>
<trkpt lat="40.0728423" lon="-105.2305752">
  <ele>1592.35</ele>
  <time>2026-08-28T19:08:51Z</time>
  <course>11.4</course>
  <speed>0.03605551275463989</speed>
  <fix>3d</fix>
</trkpt>
<trkpt lat="40.0728425" lon="-105.2305753">
  <ele>1592.36</ele>
  <time>2026-08-28T19:08:51Z</time>
  <course>145.53</course>
  <speed>0.01</speed>
  <fix>3d</fix>
</trkpt>
<trkpt lat="40.0728423" lon="-105.2305752">
  <ele>1592.25</ele>
  <time>2026-08-28T19:08:51Z</time>
  <course>11.42</course>
  <speed>0.03605551275463989</speed>
  <fix>3d</fix>
</trkpt>
<trkpt lat="40.0728425" lon="-105.2305753">
  <ele>1592.26</ele>
  <time>2026-08-28T19:08:51Z</time>
  <course>153.93</course>
  <speed>0.01</speed>
  <fix>3d</fix>
</trkpt>
<trkpt lat="40.0728423" lon="-105.2305752">
  <ele>1592.15</ele>
  <time>2026-08-28T19:08:51Z</time>
  <course>11.4</course>
  <speed>0.03605551275463989</speed>
  <fix>3d</fix>
</trkpt>
<trkpt lat="40.0728425" lon="-105.2305753">
  <ele>1592.15</ele>
  <time>2026-08-28T19:08:51Z</time>
  <course>161.45</course>
  <speed>0.01</speed>
  <fix>3d</fix>
</trkpt>
<trkpt lat="40.0728423" lon="-105.2305752">
  <ele>1592.04</ele>
  <time>2026-08-28T19:08:51Z</time>
  <course>11.39</course>
  <speed>0.0316227766016838</speed>
  <fix>3d</fix>
</trkpt>
<trkpt lat="40.0728425" lon="-105.2305753">
  <ele>1592.06</ele>
  <time>2026-08-28T19:08:51Z</time>
  <course>168.05</course>
  <speed>0.01</speed>
  <fix>3d</fix>
</trkpt>
<trkpt lat="40.0728423" lon="-105.2305752">
  <ele>1591.94</ele>
  <time>2026-08-28T19:08:51Z</time>
  <course>11.39</course>
  <speed>0.0316227766016838</speed>
  <fix>3d</fix>
</trkpt>
<trkpt lat="40.0728424" lon="-105.2305753">
  <ele>1591.95</ele>
  <time>2026-08-28T19:08:51Z</time>
  <course>175.44</course>
  <speed>0.01</speed>
  <fix>3d</fix>
</trkpt>
<trkpt lat="40.0728423" lon="-105.2305752">
  <ele>1591.84</ele>
  <time>2026-08-28T19:08:51Z</time>
  <course>11.38</course>
  <speed>0.0316227766016838</speed>
  <fix>3d</fix>
</trkpt>
<trkpt lat="40.0728424" lon="-105.2305753">
  <ele>1591.85</ele>
  <time>2026-08-28T19:08:51Z</time>
  <course>182.06</course>
  <speed>0.01</speed>
  <fix>3d</fix>
</trkpt>
<trkpt lat="40.0728422" lon="-105.2305752">
  <ele>1591.74</ele>
  <time>2026-08-28T19:08:51Z</time>
  <course>11.39</course>
  <speed>0.0316227766016838</speed>
  <fix>3d</fix>
</trkpt>
<trkpt lat="40.0728424" lon="-105.2305753">
  <ele>1591.75</ele>
  <time>2026-08-28T19:08:51Z</time>
  <course>186.84</course>
  <speed>0.01</speed>
  <fix>3d</fix>
</trkpt>
<trkpt lat="40.0728422" lon="-105.2305752">
  <ele>1591.64</ele>
  <time>2026-08-28T19:08:51Z</time>
  <course>11.38</course>
  <speed>0.0316227766016838</speed>
  <fix>3d</fix>
</trkpt>
<trkpt lat="40.0728424" lon="-105.2305753">
  <ele>1591.64</ele>
  <time>2026-08-28T19:08:51Z</time>
  <course>191.08</course>
  <speed>0.01</speed>
  <fix>3d</fix>
</trkpt>
<trkpt lat="40.0728422" lon="-105.2305752">
  <ele>1591.54</ele>
  <time>2026-08-28T19:08:51Z</time>
  <course>11.39</course>
  <speed>0.022360679774997897</speed>
  <fix>3d</fix>
</trkpt>
<trkpt lat="40.0728423" lon="-105.2305753">
  <ele>1591.55</ele>
  <time>2026-08-28T19:08:51Z</time>
  <course>195.1</course>
  <speed>0.01</speed>
  <fix>3d</fix>
</trkpt>
<trkpt lat="40.0728422" lon="-105.2305752">
  <ele>1591.44</ele>
  <time>2026-08-28T19:08:51Z</time>
  <course>11.37</course>
  <speed>0.022360679774997897</speed>
  <fix>3d</fix>
</trkpt>
<trkpt lat="40.0728423" lon="-105.2305753">
  <ele>1591.45</ele>
  <time>2026-08-28T19:08:51Z</time>
  <course>200.1</course>
  <speed>0.01</speed>
  <fix>3d</fix>
</trkpt>
<trkpt lat="40.0728422" lon="-105.2305752">
  <ele>1591.34</ele>
  <time>2026-08-28T19:08:51Z</time>
  <course>11.4</course>
  <speed>0.022360679774997897</speed>
  <fix>3d</fix>
</trkpt>
<trkpt lat="40.0728423" lon="-105.2305753">
  <ele>1591.35</ele>
  <time>2026-08-28T19:08:51Z</time>
  <course>206.23</course>
  <speed>0.01</speed>
  <fix>3d</fix>
</trkpt>
<trkpt lat="40.0728422" lon="-105.2305752">
  <ele>1591.24</ele>
  <time>2026-08-28T19:08:51Z</time>
  <course>11.38</course>
  <speed>0.022360679774997897</speed>
  <fix>3d</fix>
</trkpt>
<trkpt lat="40.0728423" lon="-105.2305753">
  <ele>1591.26</ele>
  <time>2026-08-28T19:08:51Z</time>
  <course>211.94</course>
  <speed>0.01</speed>
  <fix>3d</fix>
</trkpt>
<trkpt lat="40.0728422" lon="-105.2305752">
  <ele>1591.14</ele>
  <time>2026-08-28T19:08:51Z</time>
  <course>11.39</course>
  <speed>0.022360679774997897</speed>
  <fix>3d</fix>
</trkpt>
<trkpt lat="40.0728423" lon="-105.2305753">
  <ele>1591.15</ele>
  <time>2026-08-28T19:08:51Z</time>
  <course>218.13</course>
  <speed>0.0</speed>
  <fix>3d</fix>
</trkpt>
<trkpt lat="40.0728422" lon="-105.2305752">
  <ele>1591.04</ele>
  <time>2026-08-28T19:08:51Z</time>
  <course>11.4</course>
  <speed>0.022360679774997897</speed>
  <fix>3d</fix>
</trkpt>
<trkpt lat="40.0728423" lon="-105.2305753">
  <ele>1591.06</ele>
  <time>2026-08-28T19:08:51Z</time>
  <course>226.5</course>
  <speed>0.0</speed>
  <fix>3d</fix>
</trkpt>
<trkpt lat="40.0728422" lon="-105.2305752">
  <ele>1590.94</ele>
  <time>2026-08-28T19:08:51Z</time>
  <course>11.4</course>
  <speed>0.01414213562373095</speed>
  <fix>3d</fix>
</trkpt>
<trkpt lat="40.0728423" lon="-105.2305753">
  <ele>1590.96</ele>
  <time>2026-08-28T19:08:51Z</time>
  <course>235.79</course>
  <speed>0.0</speed>
  <fix>3d</fix>
</trkpt>
<trkpt lat="40.0728422" lon="-105.2305752">
  <ele>1590.84</ele>
  <time>2026-08-28T19:08:51Z</time>
  <course>11.38</course>
  <speed>0.01414213562373095</speed>
  <fix>3d</fix>
</trkpt>
<trkpt lat="40.0728422" lon="-105.2305753">
  <ele>1590.86</ele>
  <time>2026-08-28T19:08:51Z</time>
  <course>243.16</course>
  <speed>0.0</speed>
  <fix>3d</fix>
</trkpt>
<trkpt lat="40.0728422" lon="-105.2305752">
  <ele>1590.74</ele>
  <time>2026-08-28T19:08:51Z</time>
  <course>11.39</course>
  <speed>0.01414213562373095</speed>
  <fix>3d</fix>
</trkpt>
<trkpt lat="40.0728421" lon="-105.2305753">
  <ele>1590.76</ele>
  <time>2026-08-28T19:08:51Z</time>
  <course>249.76</course>
  <speed>0.0</speed>
  <fix>3d</fix>
</trkpt>
<trkpt lat="40.0728421" lon="-105.2305752">
  <ele>1590.64</ele>
  <time>2026-08-28T19:08:51Z</time>
  <course>11.39</course>
  <speed>0.01414213562373095</speed>
  <fix>3d</fix>
</trkpt>
<trkpt lat="40.0728421" lon="-105.2305753">
  <ele>1590.65</ele>
  <time>2026-08-28T19:08:51Z</time>
  <course>257.25</course>
  <speed>0.0</speed>
  <fix>3d</fix>
</trkpt>
<trkpt lat="40.0728421" lon="-105.2305752">
  <ele>1590.54</ele>
  <time>2026-08-28T19:08:51Z</time>
  <course>11.38</course>
  <speed>0.01414213562373095</speed>
  <fix>3d</fix>
</trkpt>
<trkpt lat="40.0728421" lon="-105.2305753">
  <ele>1590.56</ele>
  <time>2026-08-28T19:08:51Z</time>
  <course>267.96</course>
  <speed>0.0</speed>
  <fix>3d</fix>
</trkpt>
<trkpt lat="40.0728421" lon="-105.2305752">
  <ele>1590.44</ele>
  <time>2026-08-28T19:08:51Z</time>
  <course>11.39</course>
  <speed>0.01414213562373095</speed>
  <fix>3d</fix>
</trkpt>
<trkpt lat="40.0728421" lon="-105.2305753">
  <ele>1590.46</ele>
  <time>2026-08-28T19:08:51Z</time>
  <course>282.73</course>
  <speed>0.0</speed>
  <fix>3d</fix>
</trkpt>
<trkpt lat="40.0728421" lon="-105.2305752">
  <ele>1590.35</ele>
  <time>2026-08-28T19:08:51Z</time>
  <course>11.4</course>
  <speed>0.01414213562373095</speed>
  <fix>3d</fix>
</trkpt>
<trkpt lat="40.0728421" lon="-105.2305753">
  <ele>1590.36</ele>
  <time>2026-08-28T19:08:51Z</time>
  <course>296.9</course>
  <speed>0.0</speed>
  <fix>3d</fix>
</trkpt>
<trkpt lat="40.0728421" lon="-105.2305752">
  <ele>1590.25</ele>
  <time>2026-08-28T19:08:51Z</time>
  <course>11.4</course>
  <speed>0.01414213562373095</speed>
  <fix>3d</fix>
</trkpt>
<trkpt lat="40.0728421" lon="-105.2305754">
  <ele>1590.26</ele>
  <time>2026-08-28T19:08:51Z</time>
  <course>309.03</course>
  <speed>0.0</speed>
  <fix>3d</fix>
</trkpt>
<trkpt lat="40.0728421" lon="-105.2305752">
  <ele>1590.14</ele>
  <time>2026-08-28T19:08:51Z</time>
  <course>11.39</course>
  <speed>0.01414213562373095</speed>
  <fix>3d</fix>
</trkpt>
<trkpt lat="40.0728421" lon="-105.2305755">
  <ele>1590.15</ele>
  <time>2026-08-28T19:08:51Z</time>
  <course>317.36</course>
  <speed>0.0</speed>
  <fix>3d</fix>
</trkpt>
<trkpt lat="40.0728421" lon="-105.2305752">
  <ele>1590.04</ele>
  <time>2026-08-28T19:08:51Z</time>
  <course>11.38</course>
  <speed>0.01414213562373095</speed>
  <fix>3d</fix>
</trkpt>
<trkpt lat="40.0728421" lon="-105.2305755">
  <ele>1590.05</ele>
  <time>2026-08-28T19:08:51Z</time>
  <course>324.38</course>
  <speed>0.01</speed>
  <fix>3d</fix>
</trkpt>
<trkpt lat="40.0728421" lon="-105.2305752">
  <ele>1589.94</ele>
  <time>2026-08-28T19:08:51Z</time>
  <course>11.38</course>
  <speed>0.01414213562373095</speed>
  <fix>3d</fix>
</trkpt>
<trkpt lat="40.0728421" lon="-105.2305755">
  <ele>1589.95</ele>
  <time>2026-08-28T19:08:51Z</time>
  <course>330.78</course>
  <speed>0.01</speed>
  <fix>3d</fix>
</trkpt>
<trkpt lat="40.0728421" lon="-105.2305752">
  <ele>1589.83</ele>
  <time>2026-08-28T19:08:51Z</time>
  <course>11.37</course>
  <speed>0.01</speed>
  <fix>3d</fix>
</trkpt>
<trkpt lat="40.0728421" lon="-105.2305755">
  <ele>1589.85</ele>
  <time>2026-08-28T19:08:51Z</time>
  <course>337.09</course>
  <speed>0.01</speed>
  <fix>3d</fix>
</trkpt>
<trkpt lat="40.0728421" lon="-105.2305752">
  <ele>1589.73</ele>
  <time>2026-08-28T19:08:51Z</time>
  <course>11.37</course>
  <speed>0.01</speed>
  <fix>3d</fix>
</trkpt>
<trkpt lat="40.0728421" lon="-105.2305755">
  <ele>1589.75</ele>
  <time>2026-08-28T19:08:51Z</time>
  <course>343.39</course>
  <speed>0.01</speed>
  <fix>3d</fix>
</trkpt>
<trkpt lat="40.0728421" lon="-105.2305752">
  <ele>1589.63</ele>
  <time>2026-08-28T19:08:51Z</time>
  <course>11.4</course>
  <speed>0.01</speed>
  <fix>3d</fix>
</trkpt>
<trkpt lat="40.0728422" lon="-105.2305755">
  <ele>1589.64</ele>
  <time>2026-08-28T19:08:51Z</time>
  <course>349.47</course>
  <speed>0.01</speed>
  <fix>3d</fix>
</trkpt>
<trkpt lat="40.0728421" lon="-105.2305753">
  <ele>1589.53</ele>
  <time>2026-08-28T19:08:51Z</time>
  <course>11.36</course>
  <speed>0.01</speed>
  <fix>3d</fix>
</trkpt>
<trkpt lat="40.0728423" lon="-105.2305755">
  <ele>1589.55</ele>
  <time>2026-08-28T19:08:51Z</time>
  <course>355.01</course>
  <speed>0.01</speed>
  <fix>3d</fix>
</trkpt>
<trkpt lat="40.0728421" lon="-105.2305753">
  <ele>1589.44</ele>
  <time>2026-08-28T19:08:51Z</time>
  <course>11.36</course>
  <speed>0.01</speed>
  <fix>3d</fix>
</trkpt>
<trkpt lat="40.0728423" lon="-105.2305755">
  <ele>1589.46</ele>
  <time>2026-08-28T19:08:51Z</time>
  <course>358.55</course>
  <speed>0.01</speed>
  <fix>3d</fix>
</trkpt>
<trkpt lat="40.0728421" lon="-105.2305753">
  <ele>1589.34</ele>
  <time>2026-08-28T19:08:51Z</time>
  <course>11.39</course>
  <speed>0.02</speed>
  <fix>3d</fix>
</trkpt>
<trkpt lat="40.0728423" lon="-105.2305755">
  <ele>1589.36</ele>
  <time>2026-08-28T19:08:51Z</time>
  <course>0.66</course>
  <speed>0.01</speed>
  <fix>3d</fix>
</trkpt>
<trkpt lat="40.0728421" lon="-105.2305753">
  <ele>1589.24</ele>
  <time>2026-08-28T19:08:51Z</time>
  <course>11.39</course>
  <speed>0.02</speed>
  <fix>3d</fix>
</trkpt>
<trkpt lat="40.0728423" lon="-105.2305755">
  <ele>1589.26</ele>
  <time>2026-08-28T19:08:51Z</time>
  <course>3.84</course>
  <speed>0.01</speed>
  <fix>3d</fix>
</trkpt>
<trkpt lat="40.0728422" lon="-105.2305753">
  <ele>1589.14</ele>
  <time>2026-08-28T19:08:51Z</time>
  <course>11.39</course>
  <speed>0.022360679774997897</speed>
  <fix>3d</fix>
</trkpt>
<trkpt lat="40.0728424" lon="-105.2305755">
  <ele>1589.15</ele>
  <time>2026-08-28T19:08:51Z</time>
  <course>9.38</course>
  <speed>0.01</speed>
  <fix>3d</fix>
</trkpt>
<trkpt lat="40.0728422" lon="-105.2305753">
  <ele>1589.04</ele>
  <time>2026-08-28T19:08:51Z</time>
  <course>11.39</course>
  <speed>0.022360679774997897</speed>
  <fix>3d</fix>
</trkpt>
<trkpt lat="40.0728424" lon="-105.2305755">
  <ele>1589.06</ele>
  <time>2026-08-28T19:08:51Z</time>
  <course>16.54</course>
  <speed>0.0</speed>
  <fix>3d</fix>
</trkpt>
<trkpt lat="40.0728422" lon="-105.2305753">
  <ele>1588.94</ele>
  <time>2026-08-28T19:08:51Z</time>
  <course>11.4</course>
  <speed>0.022360679774997897</speed>
  <fix>3d</fix>
</trkpt>
<trkpt lat="40.0728424" lon="-105.2305755">
  <ele>1588.96</ele>
  <time>2026-08-28T19:08:51Z</time>
  <course>23.72</course>
  <speed>0.0</speed>
  <fix>3d</fix>
</trkpt>
<trkpt lat="40.0728422" lon="-105.2305753">
  <ele>1588.84</ele>
  <time>2026-08-28T19:08:51Z</time>
  <course>11.39</course>
  <speed>0.022360679774997897</speed>
  <fix>3d</fix>
</trkpt>
<trkpt lat="40.0728424" lon="-105.2305755">
  <ele>1588.86</ele>
  <time>2026-08-28T19:08:51Z</time>
  <course>33.01</course>
  <speed>0.0</speed>
  <fix>3d</fix>
</trkpt>
<trkpt lat="40.0728422" lon="-105.2305753">
  <ele>1588.74</ele>
  <time>2026-08-28T19:08:51Z</time>
  <course>11.38</course>
  <speed>0.022360679774997897</speed>
  <fix>3d</fix>
</trkpt>
<trkpt lat="40.0728424" lon="-105.2305755">
  <ele>1588.76</ele>
  <time>2026-08-28T19:08:51Z</time>
  <course>50.52</course>
  <speed>0.0</speed>
  <fix>3d</fix>
</trkpt>
<trkpt lat="40.0728422" lon="-105.2305753">
  <ele>1588.64</ele>
  <time>2026-08-28T19:08:51Z</time>
  <course>11.4</course>
  <speed>0.0282842712474619</speed>
  <fix>3d</fix>
</trkpt>
<trkpt lat="40.0728424" lon="-105.2305755">
  <ele>1588.65</ele>
  <time>2026-08-28T19:08:51Z</time>
  <course>74.6</course>
  <speed>0.0</speed>
  <fix>3d</fix>
</trkpt>
<trkpt lat="40.0728422" lon="-105.2305753">
  <ele>1588.54</ele>
  <time>2026-08-28T19:08:51Z</time>
  <course>11.4</course>
  <speed>0.0282842712474619</speed>
  <fix>3d</fix>
</trkpt>
<trkpt lat="40.0728424" lon="-105.2305755">
  <ele>1588.56</ele>
  <time>2026-08-28T19:08:51Z</time>
  <course>99.67</course>
  <speed>0.0</speed>
  <fix>3d</fix>
</trkpt>
<trkpt lat="40.0728422" lon="-105.2305753">
  <ele>1588.44</ele>
  <time>2026-08-28T19:08:51Z</time>
  <course>11.37</course>
  <speed>0.0282842712474619</speed>
  <fix>3d</fix>
</trkpt>
<trkpt lat="40.0728424" lon="-105.2305755">
  <ele>1588.46</ele>
  <time>2026-08-28T19:08:51Z</time>
  <course>116.21</course>
  <speed>0.0</speed>
  <fix>3d</fix>
</trkpt>
<trkpt lat="40.0728422" lon="-105.2305753">
  <ele>1588.34</ele>
  <time>2026-08-28T19:08:51Z</time>
  <course>11.4</course>
  <speed>0.0282842712474619</speed>
  <fix>3d</fix>
</trkpt>
<trkpt lat="40.0728424" lon="-105.2305755">
  <ele>1588.36</ele>
  <time>2026-08-28T19:08:51Z</time>
  <course>127.99</course>
  <speed>0.0</speed>
  <fix>3d</fix>
</trkpt>
<trkpt lat="40.0728422" lon="-105.2305753">
  <ele>1588.24</ele>
  <time>2026-08-28T19:08:51Z</time>
  <course>11.39</course>
  <speed>0.0282842712474619</speed>
  <fix>3d</fix>
</trkpt>
<trkpt lat="40.0728424" lon="-105.2305755">
  <ele>1588.26</ele>
  <time>2026-08-28T19:08:51Z</time>
  <course>135.7</course>
  <speed>0.0</speed>
  <fix>3d</fix>
</trkpt>
<trkpt lat="40.0728422" lon="-105.2305753">
  <ele>1588.14</ele>
  <time>2026-08-28T19:08:51Z</time>
  <course>11.39</course>
  <speed>0.0282842712474619</speed>
  <fix>3d</fix>
</trkpt>
<trkpt lat="40.0728424" lon="-105.2305755">
  <ele>1588.15</ele>
  <time>2026-08-28T19:08:51Z</time>
  <course>138.59</course>
  <speed>0.0</speed>
  <fix>3d</fix>
</trkpt>
<trkpt lat="40.0728422" lon="-105.2305753">
  <ele>1588.04</ele>
  <time>2026-08-28T19:08:51Z</time>
  <course>11.4</course>
  <speed>0.0282842712474619</speed>
  <fix>3d</fix>
</trkpt>
<trkpt lat="40.0728424" lon="-105.2305755">
  <ele>1588.06</ele>
  <time>2026-08-28T19:08:51Z</time>
  <course>141.02</course>
  <speed>0.0</speed>
  <fix>3d</fix>
</trkpt>
<trkpt lat="40.0728422" lon="-105.2305753">
  <ele>1587.94</ele>
  <time>2026-08-28T19:08:51Z</time>
  <course>11.38</course>
  <speed>0.0282842712474619</speed>
  <fix>3d</fix>
</trkpt>
<trkpt lat="40.0728424" lon="-105.2305755">
  <ele>1587.96</ele>
  <time>2026-08-28T19:08:51Z</time>
  <course>143.24</course>
  <speed>0.0</speed>
  <fix>3d</fix>
</trkpt>
<trkpt lat="40.0728422" lon="-105.2305753">
  <ele>1587.84</ele>
  <time>2026-08-28T19:08:51Z</time>
  <course>11.39</course>
  <speed>0.0282842712474619</speed>
  <fix>3d</fix>
</trkpt>
<trkpt lat="40.0728424" lon="-105.2305755">
  <ele>1587.86</ele>
  <time>2026-08-28T19:08:51Z</time>
  <course>145.69</course>
  <speed>0.0</speed>
  <fix>3d</fix>
</trkpt>
<trkpt lat="40.0728422" lon="-105.2305753">
  <ele>1587.74</ele>
  <time>2026-08-28T19:08:51Z</time>
  <course>11.4</course>
  <speed>0.0282842712474619</speed>
  <fix>3d</fix>
</trkpt>
<trkpt lat="40.0728424" lon="-105.2305755">
  <ele>1587.76</ele>
  <time>2026-08-28T19:08:51Z</time>
  <course>147.6</course>
  <speed>0.0</speed>
  <fix>3d</fix>
</trkpt>
<trkpt lat="40.0728422" lon="-105.2305753">
  <ele>1587.64</ele>
  <time>2026-08-28T19:08:51Z</time>
  <course>11.4</course>
  <speed>0.0282842712474619</speed>
  <fix>3d</fix>
</trkpt>
<trkpt lat="40.0728424" lon="-105.2305755">
  <ele>1587.65</ele>
  <time>2026-08-28T19:08:51Z</time>
  <course>147.89</course>
  <speed>0.0</speed>
  <fix>3d</fix>
</trkpt>
<trkpt lat="40.0728422" lon="-105.2305753">
  <ele>1587.54</ele>
  <time>2026-08-28T19:08:51Z</time>
  <course>11.38</course>
  <speed>0.0282842712474619</speed>
  <fix>3d</fix>
</trkpt>
<trkpt lat="40.0728424" lon="-105.2305755">
  <ele>1587.55</ele>
  <time>2026-08-28T19:08:51Z</time>
  <course>146.6</course>
  <speed>0.0</speed>
  <fix>3d</fix>
</trkpt>
<trkpt lat="40.0728422" lon="-105.2305753">
  <ele>1587.44</ele>
  <time>2026-08-28T19:08:51Z</time>
  <course>11.38</course>
  <speed>0.0282842712474619</speed>
  <fix>3d</fix>
</trkpt>
<trkpt lat="40.0728424" lon="-105.2305754">
  <ele>1587.45</ele>
  <time>2026-08-28T19:08:51Z</time>
  <course>145.04</course>
  <speed>0.0</speed>
  <fix>3d</fix>
</trkpt>
<trkpt lat="40.0728422" lon="-105.2305753">
  <ele>1587.34</ele>
  <time>2026-08-28T19:08:51Z</time>
  <course>11.39</course>
  <speed>0.0282842712474619</speed>
  <fix>3d</fix>
</trkpt>
<trkpt lat="40.0728424" lon="-105.2305753">
  <ele>1587.35</ele>
  <time>2026-08-28T19:08:51Z</time>
  <course>145.24</course>
  <speed>0.0</speed>
  <fix>3d</fix>
</trkpt>
<trkpt lat="40.0728422" lon="-105.2305753">
  <ele>1587.24</ele>
  <time>2026-08-28T19:08:51Z</time>
  <course>11.4</course>
  <speed>0.0282842712474619</speed>
  <fix>3d</fix>
</trkpt>
<trkpt lat="40.0728424" lon="-105.2305753">
  <ele>1587.25</ele>
  <time>2026-08-28T19:08:51Z</time>
  <course>145.63</course>
  <speed>0.0</speed>
  <fix>3d</fix>
</trkpt>
<trkpt lat="40.0728422" lon="-105.2305752">
  <ele>1587.14</ele>
  <time>2026-08-28T19:08:51Z</time>
  <course>11.4</course>
  <speed>0.0282842712474619</speed>
  <fix>3d</fix>
</trkpt>
<trkpt lat="40.0728424" lon="-105.2305753">
  <ele>1587.14</ele>
  <time>2026-08-28T19:08:51Z</time>
  <course>146.16</course>
  <speed>0.0</speed>
  <fix>3d</fix>
</trkpt>
<trkpt lat="40.0728422" lon="-105.2305752">
  <ele>1587.04</ele>
  <time>2026-08-28T19:08:51Z</time>
  <course>11.39</course>
  <speed>0.0282842712474619</speed>
  <fix>3d</fix>
</trkpt>
<trkpt lat="40.0728424" lon="-105.2305753">
  <ele>1587.05</ele>
  <time>2026-08-28T19:08:51Z</time>
  <course>149.53</course>
  <speed>0.0</speed>
  <fix>3d</fix>
</trkpt>
<trkpt lat="40.0728422" lon="-105.2305752">
  <ele>1586.94</ele>
  <time>2026-08-28T19:08:51Z</time>
  <course>11.39</course>
  <speed>0.022360679774997897</speed>
  <fix>3d</fix>
</trkpt>
<trkpt lat="40.0728424" lon="-105.2305753">
  <ele>1586.95</ele>
  <time>2026-08-28T19:08:51Z</time>
  <course>154.28</course>
  <speed>0.0</speed>
  <fix>3d</fix>
</trkpt>
<trkpt lat="40.0728422" lon="-105.2305752">
  <ele>1586.84</ele>
  <time>2026-08-28T19:08:51Z</time>
  <course>11.4</course>
  <speed>0.022360679774997897</speed>
  <fix>3d</fix>
</trkpt>
<trkpt lat="40.0728423" lon="-105.2305753">
  <ele>1586.85</ele>
  <time>2026-08-28T19:08:51Z</time>
  <course>161.37</course>
  <speed>0.0</speed>
  <fix>3d</fix>
</trkpt>
<trkpt lat="40.0728422" lon="-105.2305752">
  <ele>1586.74</ele>
  <time>2026-08-28T19:08:51Z</time>
  <course>11.38</course>
  <speed>0.022360679774997897</speed>
  <fix>3d</fix>
</trkpt>
<trkpt lat="40.0728423" lon="-105.2305753">
  <ele>1586.75</ele>
  <time>2026-08-28T19:08:51Z</time>
  <course>171.58</course>
  <speed>0.0</speed>
  <fix>3d</fix>
</trkpt>
<trkpt lat="40.0728422" lon="-105.2305752">
  <ele>1586.63</ele>
  <time>2026-08-28T19:08:51Z</time>
  <course>11.38</course>
  <speed>0.022360679774997897</speed>
  <fix>3d</fix>
</trkpt>
<trkpt lat="40.0728423" lon="-105.2305753">
  <ele>1586.64</ele>
  <time>2026-08-28T19:08:51Z</time>
  <course>182.0</course>
  <speed>0.0</speed>
  <fix>3d</fix>
</trkpt>
<trkpt lat="40.0728422" lon="-105.2305752">
  <ele>1586.53</ele>
  <time>2026-08-28T19:08:51Z</time>
  <course>11.37</course>
  <speed>0.022360679774997897</speed>
  <fix>3d</fix>
</trkpt>
<trkpt lat="40.0728423" lon="-105.2305753">
  <ele>1586.55</ele>
  <time>2026-08-28T19:08:51Z</time>
  <course>191.96</course>
  <speed>0.0</speed>
  <fix>3d</fix>
</trkpt>
<trkpt lat="40.0728422" lon="-105.2305752">
  <ele>1586.43</ele>
  <time>2026-08-28T19:08:51Z</time>
  <course>11.38</course>
  <speed>0.022360679774997897</speed>
  <fix>3d</fix>
</trkpt>
<trkpt lat="40.0728423" lon="-105.2305753">
  <ele>1586.45</ele>
  <time>2026-08-28T19:08:51Z</time>
  <course>202.39</course>
  <speed>0.0</speed>
  <fix>3d</fix>
</trkpt>
<trkpt lat="40.0728422" lon="-105.2305752">
  <ele>1586.33</ele>
  <time>2026-08-28T19:08:51Z</time>
  <course>11.37</course>
  <speed>0.01414213562373095</speed>
  <fix>3d</fix>
</trkpt>
<trkpt lat="40.0728423" lon="-105.2305753">
  <ele>1586.35</ele>
  <time>2026-08-28T19:08:51Z</time>
  <course>212.19</course>
  <speed>0.0</speed>
  <fix>3d</fix>
</trkpt>
<trkpt lat="40.0728422" lon="-105.2305752">
  <ele>1586.24</ele>
  <time>2026-08-28T19:08:52Z</time>
  <course>11.36</course>
  <speed>0.01414213562373095</speed>
  <fix>3d</fix>
</trkpt>
<trkpt lat="40.0728423" lon="-105.2305753">
  <ele>1586.25</ele>
  <time>2026-08-28T19:08:52Z</time>
  <course>222.65</course>
  <speed>0.0</speed>
  <fix>3d</fix>
</trkpt>
<trkpt lat="40.0728422" lon="-105.2305752">
  <ele>1586.14</ele>
  <time>2026-08-28T19:08:52Z</time>
  <course>11.38</course>
  <speed>0.01</speed>
  <fix>3d</fix>
</trkpt>
<trkpt lat="40.0728423" lon="-105.2305753">
  <ele>1586.14</ele>
  <time>2026-08-28T19:08:52Z</time>
  <course>233.32</course>
  <speed>0.0</speed>
  <fix>3d</fix>
</trkpt>
<trkpt lat="40.0728422" lon="-105.2305752">
  <ele>1586.15</ele>
  <time>2026-08-28T19:08:52Z</time>
  <course>11.42</course>
  <speed>0.01414213562373095</speed>
  <fix>3d</fix>
</trkpt>
<trkpt lat="40.0728423" lon="-105.2305753">
  <ele>1586.08</ele>
  <time>2026-08-28T19:08:52Z</time>
  <course>275.61</course>
  <speed>0.01</speed>
  <fix>3d</fix>
</trkpt>
<trkpt lat="40.0728422" lon="-105.2305752">
  <ele>1586.16</ele>
  <time>2026-08-28T19:08:52Z</time>
  <course>11.48</course>
  <speed>0.022360679774997897</speed>
  <fix>3d</fix>
</trkpt>
<trkpt lat="40.0728423" lon="-105.2305753">
  <ele>1586.08</ele>
  <time>2026-08-28T19:08:52Z</time>
  <course>298.56</course>
  <speed>0.0</speed>
  <fix>3d</fix>
</trkpt>
<trkpt lat="40.0728422" lon="-105.2305752">
  <ele>1586.15</ele>
  <time>2026-08-28T19:08:52Z</time>
  <course>11.51</course>
  <speed>0.022360679774997897</speed>
  <fix>3d</fix>
</trkpt>
<trkpt lat="40.0728423" lon="-105.2305753">
  <ele>1586.1</ele>
  <time>2026-08-28T19:08:52Z</time>
  <course>78.05</course>
  <speed>0.0</speed>
  <fix>3d</fix>
</trkpt>
<trkpt lat="40.0728422" lon="-105.2305752">
  <ele>1586.15</ele>
  <time>2026-08-28T19:08:52Z</time>
  <course>11.55</course>
  <speed>0.01414213562373095</speed>
  <fix>3d</fix>
</trkpt>
<trkpt lat="40.0728423" lon="-105.2305753">
  <ele>1586.09</ele>
  <time>2026-08-28T19:08:52Z</time>
  <course>115.37</course>
  <speed>0.0</speed>
  <fix>3d</fix>
</trkpt>
<trkpt lat="40.0728422" lon="-105.2305752">
  <ele>1586.15</ele>
  <time>2026-08-28T19:08:52Z</time>
  <course>11.58</course>
  <speed>0.01414213562373095</speed>
  <fix>3d</fix>
</trkpt>
<trkpt lat="40.0728423" lon="-105.2305753">
  <ele>1586.09</ele>
  <time>2026-08-28T19:08:52Z</time>
  <course>313.5</course>
  <speed>0.0</speed>
  <fix>3d</fix>
</trkpt>
<trkpt lat="40.0728422" lon="-105.2305752">
  <ele>1586.15</ele>
  <time>2026-08-28T19:08:52Z</time>
  <course>11.61</course>
  <speed>0.01414213562373095</speed>
  <fix>3d</fix>
</trkpt>
<trkpt lat="40.0728423" lon="-105.2305753">
  <ele>1586.09</ele>
  <time>2026-08-28T19:08:52Z</time>
  <course>20.14</course>
  <speed>0.0</speed>
  <fix>3d</fix>
</trkpt>
<trkpt lat="40.0728422" lon="-105.2305752">
  <ele>1586.15</ele>
  <time>2026-08-28T19:08:52Z</time>
  <course>11.64</course>
  <speed>0.01414213562373095</speed>
  <fix>3d</fix>
</trkpt>
<trkpt lat="40.0728423" lon="-105.2305753">
  <ele>1586.09</ele>
  <time>2026-08-28T19:08:52Z</time>
  <course>17.99</course>
  <speed>0.0</speed>
  <fix>3d</fix>
</trkpt>
<trkpt lat="40.0728422" lon="-105.2305752">
  <ele>1586.15</ele>
  <time>2026-08-28T19:08:52Z</time>
  <course>11.66</course>
  <speed>0.01414213562373095</speed>
  <fix>3d</fix>
</trkpt>
<trkpt lat="40.0728423" lon="-105.2305753">
  <ele>1586.09</ele>
  <time>2026-08-28T19:08:52Z</time>
  <course>330.93</course>
  <speed>0.0</speed>
  <fix>3d</fix>
</trkpt>
<trkpt lat="40.0728422" lon="-105.2305752">
  <ele>1586.15</ele>
  <time>2026-08-28T19:08:52Z</time>
  <course>11.69</course>
  <speed>0.01414213562373095</speed>
  <fix>3d</fix>
</trkpt>
<trkpt lat="40.0728423" lon="-105.2305753">
  <ele>1586.09</ele>
  <time>2026-08-28T19:08:52Z</time>
  <course>9.16</course>
  <speed>0.0</speed>
  <fix>3d</fix>
</trkpt>
<trkpt lat="40.0728422" lon="-105.2305752">
  <ele>1586.16</ele>
  <time>2026-08-28T19:08:52Z</time>
  <course>11.71</course>
  <speed>0.022360679774997897</speed>
  <fix>3d</fix>
</trkpt>
<trkpt lat="40.0728423" lon="-105.2305753">
  <ele>1586.09</ele>
  <time>2026-08-28T19:08:52Z</time>
  <course>38.8</course>
  <speed>0.0</speed>
  <fix>3d</fix>
</trkpt>
<trkpt lat="40.0728422" lon="-105.2305751">
  <ele>1586.16</ele>
  <time>2026-08-28T19:08:52Z</time>
  <course>11.71</course>
  <speed>0.03605551275463989</speed>
  <fix>3d</fix>
</trkpt>
<trkpt lat="40.0728423" lon="-105.2305753">
  <ele>1586.09</ele>
  <time>2026-08-28T19:08:52Z</time>
  <course>101.21</course>
  <speed>0.0</speed>
  <fix>3d</fix>
</trkpt>
<trkpt lat="40.0728422" lon="-105.2305751">
  <ele>1586.16</ele>
  <time>2026-08-28T19:08:52Z</time>
  <course>11.69</course>
  <speed>0.0282842712474619</speed>
  <fix>3d</fix>
</trkpt>
<trkpt lat="40.0728423" lon="-105.2305753">
  <ele>1586.09</ele>
  <time>2026-08-28T19:08:52Z</time>
  <course>105.01</course>
  <speed>0.01</speed>
  <fix>3d</fix>
</trkpt>
<trkpt lat="40.0728422" lon="-105.2305751">
  <ele>1586.16</ele>
  <time>2026-08-28T19:08:52Z</time>
  <course>11.67</course>
  <speed>0.01414213562373095</speed>
  <fix>3d</fix>
</trkpt>
<trkpt lat="40.0728423" lon="-105.2305753">
  <ele>1586.09</ele>
  <time>2026-08-28T19:08:52Z</time>
  <course>116.0</course>
  <speed>0.0</speed>
  <fix>3d</fix>
</trkpt>
<trkpt lat="40.0728422" lon="-105.2305751">
  <ele>1586.17</ele>
  <time>2026-08-28T19:08:52Z</time>
  <course>11.66</course>
  <speed>0.01414213562373095</speed>
  <fix>3d</fix>
</trkpt>
<trkpt lat="40.0728423" lon="-105.2305753">
  <ele>1586.09</ele>
  <time>2026-08-28T19:08:52Z</time>
  <course>254.65</course>
  <speed>0.0</speed>
  <fix>3d</fix>
</trkpt>
<trkpt lat="40.0728422" lon="-105.2305751">
  <ele>1586.17</ele>
  <time>2026-08-28T19:08:52Z</time>
  <course>11.66</course>
  <speed>0.01414213562373095</speed>
  <fix>3d</fix>
</trkpt>
<trkpt lat="40.0728423" lon="-105.2305753">
  <ele>1586.09</ele>
  <time>2026-08-28T19:08:52Z</time>
  <course>251.13</course>
  <speed>0.0</speed>
  <fix>3d</fix>
</trkpt>
<trkpt lat="40.0728422" lon="-105.2305751">
  <ele>1586.17</ele>
  <time>2026-08-28T19:08:52Z</time>
  <course>11.65</course>
  <speed>0.022360679774997897</speed>
  <fix>3d</fix>
</trkpt>
<trkpt lat="40.0728423" lon="-105.2305753">
  <ele>1586.09</ele>
  <time>2026-08-28T19:08:52Z</time>
  <course>231.74</course>
  <speed>0.0</speed>
  <fix>3d</fix>
</trkpt>
<trkpt lat="40.0728422" lon="-105.2305751">
  <ele>1586.17</ele>
  <time>2026-08-28T19:08:52Z</time>
  <course>11.65</course>
  <speed>0.01414213562373095</speed>
  <fix>3d</fix>
</trkpt>
<trkpt lat="40.0728423" lon="-105.2305753">
  <ele>1586.09</ele>
  <time>2026-08-28T19:08:52Z</time>
  <course>228.98</course>
  <speed>0.0</speed>
  <fix>3d</fix>
</trkpt>
<trkpt lat="40.0728422" lon="-105.2305751">
  <ele>1586.17</ele>
  <time>2026-08-28T19:08:52Z</time>
  <course>11.65</course>
  <speed>0.01414213562373095</speed>
  <fix>3d</fix>
</trkpt>
<trkpt lat="40.0728423" lon="-105.2305753">
  <ele>1586.09</ele>
  <time>2026-08-28T19:08:52Z</time>
  <course>234.67</course>
  <speed>0.0</speed>
  <fix>3d</fix>
</trkpt>
<trkpt lat="40.0728422" lon="-105.2305752">
  <ele>1586.17</ele>
  <time>2026-08-28T19:08:52Z</time>
  <course>11.65</course>
  <speed>0.022360679774997897</speed>
  <fix>3d</fix>
</trkpt>
<trkpt lat="40.0728423" lon="-105.2305753">
  <ele>1586.09</ele>
  <time>2026-08-28T19:08:52Z</time>
  <course>298.73</course>
  <speed>0.0</speed>
  <fix>3d</fix>
</trkpt>
<trkpt lat="40.0728422" lon="-105.2305752">
  <ele>1586.17</ele>
  <time>2026-08-28T19:08:52Z</time>
  <course>11.65</course>
  <speed>0.022360679774997897</speed>
  <fix>3d</fix>
</trkpt>
<trkpt lat="40.0728423" lon="-105.2305753">
  <ele>1586.09</ele>
  <time>2026-08-28T19:08:52Z</time>
  <course>320.26</course>
  <speed>0.0</speed>
  <fix>3d</fix>
</trkpt>
<trkpt lat="40.0728422" lon="-105.2305752">
  <ele>1586.17</ele>
  <time>2026-08-28T19:08:52Z</time>
  <course>11.64</course>
  <speed>0.022360679774997897</speed>
  <fix>3d</fix>
</trkpt>
<trkpt lat="40.0728423" lon="-105.2305753">
  <ele>1586.09</ele>
  <time>2026-08-28T19:08:52Z</time>
  <course>299.31</course>
  <speed>0.0</speed>
  <fix>3d</fix>
</trkpt>
<trkpt lat="40.0728422" lon="-105.2305752">
  <ele>1586.17</ele>
  <time>2026-08-28T19:08:52Z</time>
  <course>11.64</course>
  <speed>0.022360679774997897</speed>
  <fix>3d</fix>
</trkpt>
<trkpt lat="40.0728423" lon="-105.2305753">
  <ele>1586.09</ele>
  <time>2026-08-28T19:08:52Z</time>
  <course>258.93</course>
  <speed>0.0</speed>
  <fix>3d</fix>
</trkpt>
<trkpt lat="40.0728422" lon="-105.2305752">
  <ele>1586.17</ele>
  <time>2026-08-28T19:08:52Z</time>
  <course>11.64</course>
  <speed>0.022360679774997897</speed>
  <fix>3d</fix>
</trkpt>
<trkpt lat="40.0728423" lon="-105.2305753">
  <ele>1586.09</ele>
  <time>2026-08-28T19:08:52Z</time>
  <course>264.15</course>
  <speed>0.0</speed>
  <fix>3d</fix>
</trkpt>
<trkpt lat="40.0728422" lon="-105.2305752">
  <ele>1586.17</ele>
  <time>2026-08-28T19:08:52Z</time>
  <course>11.64</course>
  <speed>0.022360679774997897</speed>
  <fix>3d</fix>
</trkpt>
<trkpt lat="40.0728423" lon="-105.2305753">
  <ele>1586.09</ele>
  <time>2026-08-28T19:08:52Z</time>
  <course>322.85</course>
  <speed>0.0</speed>
  <fix>3d</fix>
</trkpt>
<trkpt lat="40.0728422" lon="-105.2305752">
  <ele>1586.17</ele>
  <time>2026-08-28T19:08:52Z</time>
  <course>11.64</course>
  <speed>0.022360679774997897</speed>
  <fix>3d</fix>
</trkpt>
<trkpt lat="40.0728423" lon="-105.2305753">
  <ele>1586.09</ele>
  <time>2026-08-28T19:08:52Z</time>
  <course>315.63</course>
  <speed>0.0</speed>
  <fix>3d</fix>
</trkpt>
<trkpt lat="40.0728422" lon="-105.2305752">
  <ele>1586.17</ele>
  <time>2026-08-28T19:08:52Z</time>
  <course>11.64</course>
  <speed>0.022360679774997897</speed>
  <fix>3d</fix>
</trkpt>
<trkpt lat="40.0728423" lon="-105.2305753">
  <ele>1586.09</ele>
  <time>2026-08-28T19:08:52Z</time>
  <course>275.82</course>
  <speed>0.0</speed>
  <fix>3d</fix>
</trkpt>
<trkpt lat="40.0728422" lon="-105.2305752">
  <ele>1586.17</ele>
  <time>2026-08-28T19:08:52Z</time>
  <course>11.64</course>
  <speed>0.022360679774997897</speed>
  <fix>3d</fix>
</trkpt>
<trkpt lat="40.0728423" lon="-105.2305753">
  <ele>1586.09</ele>
  <time>2026-08-28T19:08:52Z</time>
  <course>288.46</course>
  <speed>0.0</speed>
  <fix>3d</fix>
</trkpt>
<trkpt lat="40.0728422" lon="-105.2305752">
  <ele>1586.17</ele>
  <time>2026-08-28T19:08:52Z</time>
  <course>11.63</course>
  <speed>0.022360679774997897</speed>
  <fix>3d</fix>
</trkpt>
<trkpt lat="40.0728423" lon="-105.2305753">
  <ele>1586.09</ele>
  <time>2026-08-28T19:08:52Z</time>
  <course>286.64</course>
  <speed>0.0</speed>
  <fix>3d</fix>
</trkpt>
<trkpt lat="40.0728422" lon="-105.2305752">
  <ele>1586.18</ele>
  <time>2026-08-28T19:08:52Z</time>
  <course>11.63</course>
  <speed>0.022360679774997897</speed>
  <fix>3d</fix>
</trkpt>
<trkpt lat="40.0728423" lon="-105.2305753">
  <ele>1586.09</ele>
  <time>2026-08-28T19:08:52Z</time>
  <course>213.37</course>
  <speed>0.0</speed>
  <fix>3d</fix>
</trkpt>
<trkpt lat="40.0728422" lon="-105.2305752">
  <ele>1586.17</ele>
  <time>2026-08-28T19:08:52Z</time>
  <course>11.63</course>
  <speed>0.022360679774997897</speed>
  <fix>3d</fix>
</trkpt>
<trkpt lat="40.0728423" lon="-105.2305753">
  <ele>1586.09</ele>
  <time>2026-08-28T19:08:52Z</time>
  <course>207.75</course>
  <speed>0.0</speed>
  <fix>3d</fix>
</trkpt>
<trkpt lat="40.0728422" lon="-105.2305752">
  <ele>1586.17</ele>
  <time>2026-08-28T19:08:52Z</time>
  <course>11.63</course>
  <speed>0.022360679774997897</speed>
  <fix>3d</fix>
</trkpt>
<trkpt lat="40.0728423" lon="-105.2305753">
  <ele>1586.09</ele>
  <time>2026-08-28T19:08:52Z</time>
  <course>319.72</course>
  <speed>0.0</speed>
  <fix>3d</fix>
</trkpt>
<trkpt lat="40.0728422" lon="-105.2305752">
  <ele>1586.18</ele>
  <time>2026-08-28T19:08:52Z</time>
  <course>11.63</course>
  <speed>0.022360679774997897</speed>
  <fix>3d</fix>
</trkpt>
<trkpt lat="40.0728423" lon="-105.2305753">
  <ele>1586.09</ele>
  <time>2026-08-28T19:08:52Z</time>
  <course>314.66</course>
  <speed>0.0</speed>
  <fix>3d</fix>
</trkpt>
<trkpt lat="40.0728422" lon="-105.2305752">
  <ele>1586.18</ele>
  <time>2026-08-28T19:08:52Z</time>
  <course>11.63</course>
  <speed>0.022360679774997897</speed>
  <fix>3d</fix>
</trkpt>
<trkpt lat="40.0728423" lon="-105.2305753">
  <ele>1586.09</ele>
  <time>2026-08-28T19:08:52Z</time>
  <course>246.99</course>
  <speed>0.0</speed>
  <fix>3d</fix>
</trkpt>
<trkpt lat="40.0728422" lon="-105.2305752">
  <ele>1586.18</ele>
  <time>2026-08-28T19:08:52Z</time>
  <course>11.62</course>
  <speed>0.022360679774997897</speed>
  <fix>3d</fix>
</trkpt>
<trkpt lat="40.0728423" lon="-105.2305753">
  <ele>1586.09</ele>
  <time>2026-08-28T19:08:52Z</time>
  <course>252.23</course>
  <speed>0.0</speed>
  <fix>3d</fix>
</trkpt>
<trkpt lat="40.0728422" lon="-105.2305752">
  <ele>1586.18</ele>
  <time>2026-08-28T19:08:52Z</time>
  <course>11.62</course>
  <speed>0.022360679774997897</speed>
  <fix>3d</fix>
</trkpt>
<trkpt lat="40.0728423" lon="-105.2305753">
  <ele>1586.09</ele>
  <time>2026-08-28T19:08:52Z</time>
  <course>237.63</course>
  <speed>0.0</speed>
  <fix>3d</fix>
</trkpt>
<trkpt lat="40.0728422" lon="-105.2305752">
  <ele>1586.18</ele>
  <time>2026-08-28T19:08:52Z</time>
  <course>11.62</course>
  <speed>0.022360679774997897</speed>
  <fix>3d</fix>
</trkpt>
<trkpt lat="40.0728423" lon="-105.2305753">
  <ele>1586.09</ele>
  <time>2026-08-28T19:08:52Z</time>
  <course>237.82</course>
  <speed>0.0</speed>
  <fix>3d</fix>
</trkpt>
<trkpt lat="40.0728422" lon="-105.2305752">
  <ele>1586.17</ele>
  <time>2026-08-28T19:08:52Z</time>
  <course>11.62</course>
  <speed>0.022360679774997897</speed>
  <fix>3d</fix>
</trkpt>
<trkpt lat="40.0728423" lon="-105.2305753">
  <ele>1586.09</ele>
  <time>2026-08-28T19:08:52Z</time>
  <course>265.53</course>
  <speed>0.0</speed>
  <fix>3d</fix>
</trkpt>
<trkpt lat="40.0728422" lon="-105.2305752">
  <ele>1586.17</ele>
  <time>2026-08-28T19:08:52Z</time>
  <course>11.62</course>
  <speed>0.022360679774997897</speed>
  <fix>3d</fix>
</trkpt>
<trkpt lat="40.0728423" lon="-105.2305753">
  <ele>1586.09</ele>
  <time>2026-08-28T19:08:52Z</time>
  <course>211.82</course>
  <speed>0.0</speed>
  <fix>3d</fix>
</trkpt>
<trkpt lat="40.0728422" lon="-105.2305752">
  <ele>1586.17</ele>
  <time>2026-08-28T19:08:52Z</time>
  <course>11.62</course>
  <speed>0.022360679774997897</speed>
  <fix>3d</fix>
</trkpt>
<trkpt lat="40.0728423" lon="-105.2305753">
  <ele>1586.09</ele>
  <time>2026-08-28T19:08:52Z</time>
  <course>191.01</course>
  <speed>0.0</speed>
  <fix>3d</fix>
</trkpt>
<trkpt lat="40.0728422" lon="-105.2305752">
  <ele>1586.17</ele>
  <time>2026-08-28T19:08:52Z</time>
  <course>11.62</course>
  <speed>0.022360679774997897</speed>
  <fix>3d</fix>
</trkpt>
<trkpt lat="40.0728423" lon="-105.2305753">
  <ele>1586.09</ele>
  <time>2026-08-28T19:08:52Z</time>
  <course>270.75</course>
  <speed>0.0</speed>
  <fix>3d</fix>
</trkpt>
<trkpt lat="40.0728422" lon="-105.2305752">
  <ele>1586.17</ele>
  <time>2026-08-28T19:08:52Z</time>
  <course>11.61</course>
  <speed>0.022360679774997897</speed>
  <fix>3d</fix>
</trkpt>
<trkpt lat="40.0728423" lon="-105.2305753">
  <ele>1586.09</ele>
  <time>2026-08-28T19:08:52Z</time>
  <course>290.8</course>
  <speed>0.0</speed>
  <fix>3d</fix>
</trkpt>
<trkpt lat="40.0728422" lon="-105.2305752">
  <ele>1586.17</ele>
  <time>2026-08-28T19:08:52Z</time>
  <course>11.61</course>
  <speed>0.022360679774997897</speed>
  <fix>3d</fix>
</trkpt>
<trkpt lat="40.0728423" lon="-105.2305753">
  <ele>1586.09</ele>
  <time>2026-08-28T19:08:52Z</time>
  <course>276.2</course>
  <speed>0.0</speed>
  <fix>3d</fix>
</trkpt>
<trkpt lat="40.0728422" lon="-105.2305752">
  <ele>1586.18</ele>
  <time>2026-08-28T19:08:52Z</time>
  <course>11.61</course>
  <speed>0.022360679774997897</speed>
  <fix>3d</fix>
</trkpt>
<trkpt lat="40.0728423" lon="-105.2305753">
  <ele>1586.09</ele>
  <time>2026-08-28T19:08:52Z</time>
  <course>275.45</course>
  <speed>0.0</speed>
  <fix>3d</fix>
</trkpt>
<trkpt lat="40.0728422" lon="-105.2305752">
  <ele>1586.18</ele>
  <time>2026-08-28T19:08:52Z</time>
  <course>11.61</course>
  <speed>0.022360679774997897</speed>
  <fix>3d</fix>
</trkpt>
<trkpt lat="40.0728423" lon="-105.2305753">
  <ele>1586.09</ele>
  <time>2026-08-28T19:08:52Z</time>
  <course>277.99</course>
  <speed>0.0</speed>
  <fix>3d</fix>
</trkpt>
<trkpt lat="40.0728422" lon="-105.2305752">
  <ele>1586.18</ele>
  <time>2026-08-28T19:08:52Z</time>
  <course>11.61</course>
  <speed>0.022360679774997897</speed>
  <fix>3d</fix>
</trkpt>
<trkpt lat="40.0728423" lon="-105.2305753">
  <ele>1586.09</ele>
  <time>2026-08-28T19:08:52Z</time>
  <course>277.69</course>
  <speed>0.0</speed>
  <fix>3d</fix>
</trkpt>
<trkpt lat="40.0728422" lon="-105.2305752">
  <ele>1586.18</ele>
  <time>2026-08-28T19:08:52Z</time>
  <course>11.61</course>
  <speed>0.022360679774997897</speed>
  <fix>3d</fix>
</trkpt>
<trkpt lat="40.0728423" lon="-105.2305753">
  <ele>1586.09</ele>
  <time>2026-08-28T19:08:52Z</time>
  <course>277.3</course>
  <speed>0.0</speed>
  <fix>3d</fix>
</trkpt>
<trkpt lat="40.0728422" lon="-105.2305752">
  <ele>1586.18</ele>
  <time>2026-08-28T19:08:52Z</time>
  <course>11.61</course>
  <speed>0.022360679774997897</speed>
  <fix>3d</fix>
</trkpt>
<trkpt lat="40.0728423" lon="-105.2305753">
  <ele>1586.09</ele>
  <time>2026-08-28T19:08:52Z</time>
  <course>277.32</course>
  <speed>0.0</speed>
  <fix>3d</fix>
</trkpt>
<trkpt lat="40.0728422" lon="-105.2305752">
  <ele>1586.18</ele>
  <time>2026-08-28T19:08:52Z</time>
  <course>11.6</course>
  <speed>0.022360679774997897</speed>
  <fix>3d</fix>
</trkpt>
<trkpt lat="40.0728423" lon="-105.2305753">
  <ele>1586.09</ele>
  <time>2026-08-28T19:08:52Z</time>
  <course>277.3</course>
  <speed>0.0</speed>
  <fix>3d</fix>
</trkpt>
<trkpt lat="40.0728422" lon="-105.2305752">
  <ele>1586.18</ele>
  <time>2026-08-28T19:08:52Z</time>
  <course>11.6</course>
  <speed>0.022360679774997897</speed>
  <fix>3d</fix>
</trkpt>
<trkpt lat="40.0728423" lon="-105.2305753">
  <ele>1586.09</ele>
  <time>2026-08-28T19:08:52Z</time>
  <course>277.23</course>
  <speed>0.0</speed>
  <fix>3d</fix>
</trkpt>
<trkpt lat="40.0728422" lon="-105.2305752">
  <ele>1586.19</ele>
  <time>2026-08-28T19:08:52Z</time>
  <course>11.6</course>
  <speed>0.022360679774997897</speed>
  <fix>3d</fix>
</trkpt>
<trkpt lat="40.0728423" lon="-105.2305753">
  <ele>1586.09</ele>
  <time>2026-08-28T19:08:52Z</time>
  <course>277.18</course>
  <speed>0.0</speed>
  <fix>3d</fix>
</trkpt>
<trkpt lat="40.0728422" lon="-105.2305752">
  <ele>1586.19</ele>
  <time>2026-08-28T19:08:52Z</time>
  <course>11.6</course>
  <speed>0.022360679774997897</speed>
  <fix>3d</fix>
</trkpt>
<trkpt lat="40.0728423" lon="-105.2305753">
  <ele>1586.09</ele>
  <time>2026-08-28T19:08:52Z</time>
  <course>277.14</course>
  <speed>0.0</speed>
  <fix>3d</fix>
</trkpt>
<trkpt lat="40.0728422" lon="-105.2305752">
  <ele>1586.18</ele>
  <time>2026-08-28T19:08:52Z</time>
  <course>11.6</course>
  <speed>0.022360679774997897</speed>
  <fix>3d</fix>
</trkpt>
<trkpt lat="40.0728423" lon="-105.2305753">
  <ele>1586.09</ele>
  <time>2026-08-28T19:08:52Z</time>
  <course>277.1</course>
  <speed>0.0</speed>
  <fix>3d</fix>
</trkpt>
<trkpt lat="40.0728422" lon="-105.2305752">
  <ele>1586.19</ele>
  <time>2026-08-28T19:08:52Z</time>
  <course>11.6</course>
  <speed>0.022360679774997897</speed>
  <fix>3d</fix>
</trkpt>
<trkpt lat="40.0728423" lon="-105.2305753">
  <ele>1586.09</ele>
  <time>2026-08-28T19:08:52Z</time>
  <course>277.06</course>
  <speed>0.0</speed>
  <fix>3d</fix>
</trkpt>
<trkpt lat="40.0728422" lon="-105.2305752">
  <ele>1586.19</ele>
  <time>2026-08-28T19:08:52Z</time>
  <course>11.6</course>
  <speed>0.022360679774997897</speed>
  <fix>3d</fix>
</trkpt>
<trkpt lat="40.0728423" lon="-105.2305753">
  <ele>1586.09</ele>
  <time>2026-08-28T19:08:52Z</time>
  <course>277.02</course>
  <speed>0.0</speed>
  <fix>3d</fix>
</trkpt>
<trkpt lat="40.0728422" lon="-105.2305752">
  <ele>1586.19</ele>
  <time>2026-08-28T19:08:52Z</time>
  <course>11.59</course>
  <speed>0.022360679774997897</speed>
  <fix>3d</fix>
</trkpt>
<trkpt lat="40.0728423" lon="-105.2305753">
  <ele>1586.09</ele>
  <time>2026-08-28T19:08:52Z</time>
  <course>276.99</course>
  <speed>0.0</speed>
  <fix>3d</fix>
</trkpt>
<trkpt lat="40.0728422" lon="-105.2305752">
  <ele>1586.19</ele>
  <time>2026-08-28T19:08:52Z</time>
  <course>11.59</course>
  <speed>0.022360679774997897</speed>
  <fix>3d</fix>
</trkpt>
<trkpt lat="40.0728423" lon="-105.2305753">
  <ele>1586.09</ele>
  <time>2026-08-28T19:08:52Z</time>
  <course>276.95</course>
  <speed>0.0</speed>
  <fix>3d</fix>
</trkpt>
<trkpt lat="40.0728422" lon="-105.2305752">
  <ele>1586.19</ele>
  <time>2026-08-28T19:08:52Z</time>
  <course>11.59</course>
  <speed>0.022360679774997897</speed>
  <fix>3d</fix>
</trkpt>
<trkpt lat="40.0728423" lon="-105.2305753">
  <ele>1586.09</ele>
  <time>2026-08-28T19:08:52Z</time>
  <course>276.97</course>
  <speed>0.0</speed>
  <fix>3d</fix>
</trkpt>
<trkpt lat="40.0728422" lon="-105.2305752">
  <ele>1586.18</ele>
  <time>2026-08-28T19:08:52Z</time>
  <course>11.59</course>
  <speed>0.022360679774997897</speed>
  <fix>3d</fix>
</trkpt>
<trkpt lat="40.0728423" lon="-105.2305753">
  <ele>1586.09</ele>
  <time>2026-08-28T19:08:52Z</time>
  <course>277.14</course>
  <speed>0.0</speed>
  <fix>3d</fix>
</trkpt>
<trkpt lat="40.0728422" lon="-105.2305752">
  <ele>1586.18</ele>
  <time>2026-08-28T19:08:52Z</time>
  <course>11.59</course>
  <speed>0.022360679774997897</speed>
  <fix>3d</fix>
</trkpt>
<trkpt lat="40.0728423" lon="-105.2305753">
  <ele>1586.09</ele>
  <time>2026-08-28T19:08:52Z</time>
  <course>277.26</course>
  <speed>0.0</speed>
  <fix>3d</fix>
</trkpt>
<trkpt lat="40.0728422" lon="-105.2305752">
  <ele>1586.18</ele>
  <time>2026-08-28T19:08:52Z</time>
  <course>11.6</course>
  <speed>0.022360679774997897</speed>
  <fix>3d</fix>
</trkpt>
<trkpt lat="40.0728423" lon="-105.2305753">
  <ele>1586.09</ele>
  <time>2026-08-28T19:08:52Z</time>
  <course>277.23</course>
  <speed>0.0</speed>
  <fix>3d</fix>
</trkpt>
<trkpt lat="40.0728422" lon="-105.2305752">
  <ele>1586.18</ele>
  <time>2026-08-28T19:08:52Z</time>
  <course>11.7</course>
  <speed>0.022360679774997897</speed>
  <fix>3d</fix>
</trkpt>
<trkpt lat="40.0728423" lon="-105.2305753">
  <ele>1586.09</ele>
  <time>2026-08-28T19:08:52Z</time>
  <course>330.56</course>
  <speed>0.0</speed>
  <fix>3d</fix>
</trkpt>
<trkpt lat="40.0728422" lon="-105.2305752">
  <ele>1586.18</ele>
  <time>2026-08-28T19:08:52Z</time>
  <course>11.81</course>
  <speed>0.022360679774997897</speed>
  <fix>3d</fix>
</trkpt>
<trkpt lat="40.0728423" lon="-105.2305753">
  <ele>1586.09</ele>
  <time>2026-08-28T19:08:52Z</time>
  <course>327.01</course>
  <speed>0.0</speed>
  <fix>3d</fix>
</trkpt>
<trkpt lat="40.0728422" lon="-105.2305752">
  <ele>1586.18</ele>
  <time>2026-08-28T19:08:52Z</time>
  <course>11.92</course>
  <speed>0.022360679774997897</speed>
  <fix>3d</fix>
</trkpt>
<trkpt lat="40.0728423" lon="-105.2305753">
  <ele>1586.09</ele>
  <time>2026-08-28T19:08:52Z</time>
  <course>315.36</course>
  <speed>0.0</speed>
  <fix>3d</fix>
</trkpt>
<trkpt lat="40.0728422" lon="-105.2305752">
  <ele>1586.18</ele>
  <time>2026-08-28T19:08:52Z</time>
  <course>12.02</course>
  <speed>0.022360679774997897</speed>
  <fix>3d</fix>
</trkpt>
<trkpt lat="40.0728423" lon="-105.2305753">
  <ele>1586.09</ele>
  <time>2026-08-28T19:08:52Z</time>
  <course>179.85</course>
  <speed>0.0</speed>
  <fix>3d</fix>
</trkpt>
<trkpt lat="40.0728422" lon="-105.2305752">
  <ele>1586.18</ele>
  <time>2026-08-28T19:08:52Z</time>
  <course>12.12</course>
  <speed>0.022360679774997897</speed>
  <fix>3d</fix>
</trkpt>
<trkpt lat="40.0728423" lon="-105.2305753">
  <ele>1586.09</ele>
  <time>2026-08-28T19:08:52Z</time>
  <course>274.63</course>
  <speed>0.0</speed>
  <fix>3d</fix>
</trkpt>
<trkpt lat="40.0728422" lon="-105.2305752">
  <ele>1586.18</ele>
  <time>2026-08-28T19:08:52Z</time>
  <course>12.22</course>
  <speed>0.022360679774997897</speed>
  <fix>3d</fix>
</trkpt>
<trkpt lat="39.6562421" lon="-104.1365913">
  <ele>1569.6</ele>
  <time>2026-08-28T19:08:53Z</time>
  <course>271.25</course>
  <speed>0.0</speed>
  <fix>3d</fix>
</trkpt>
<trkpt lat="40.072842" lon="-105.2305751">
  <ele>1586.09</ele>
  <time>2026-08-28T19:08:53Z</time>
  <course>2.03</course>
  <speed>0.0</speed>
  <fix>3d</fix>
</trkpt>
<trkpt lat="40.072842" lon="-105.2305751">
  <ele>1586.09</ele>
  <time>2026-08-28T19:08:53Z</time>
  <course>270.66</course>
  <speed>0.0</speed>
  <fix>3d</fix>
</trkpt>
<trkpt lat="40.072842" lon="-105.2305751">
  <ele>1586.09</ele>
  <time>2026-08-28T19:08:53Z</time>
  <course>2.44</course>
  <speed>0.0</speed>
  <fix>3d</fix>
</trkpt>
<trkpt lat="40.072842" lon="-105.2305751">
  <ele>1586.09</ele>
  <time>2026-08-28T19:08:53Z</time>
  <course>269.74</course>
  <speed>0.0</speed>
  <fix>3d</fix>
</trkpt>
<trkpt lat="40.072842" lon="-105.2305751">
  <ele>1586.09</ele>
  <time>2026-08-28T19:08:53Z</time>
  <course>3.19</course>
  <speed>0.0</speed>
  <fix>3d</fix>
</trkpt>
<trkpt lat="40.072842" lon="-105.2305751">
  <ele>1586.09</ele>
  <time>2026-08-28T19:08:53Z</time>
  <course>268.36</course>
  <speed>0.0</speed>
  <fix>3d</fix>
</trkpt>
<trkpt lat="40.072842" lon="-105.2305751">
  <ele>1586.09</ele>
  <time>2026-08-28T19:08:53Z</time>
  <course>3.87</course>
  <speed>0.0</speed>
  <fix>3d</fix>
</trkpt>
<trkpt lat="40.072842" lon="-105.2305751">
  <ele>1586.09</ele>
  <time>2026-08-28T19:08:53Z</time>
  <course>270.59</course>
  <speed>0.0</speed>
  <fix>3d</fix>
</trkpt>
<trkpt lat="40.072842" lon="-105.2305751">
  <ele>1586.09</ele>
  <time>2026-08-28T19:08:53Z</time>
  <course>4.49</course>
  <speed>0.0</speed>
  <fix>3d</fix>
</trkpt>
<trkpt lat="40.072842" lon="-105.2305751">
  <ele>1586.09</ele>
  <time>2026-08-28T19:08:53Z</time>
  <course>271.4</course>
  <speed>0.0</speed>
  <fix>3d</fix>
</trkpt>
<trkpt lat="40.072842" lon="-105.2305751">
  <ele>1586.09</ele>
  <time>2026-08-28T19:08:53Z</time>
  <course>5.09</course>
  <speed>0.0</speed>
  <fix>3d</fix>
</trkpt>
<trkpt lat="40.072842" lon="-105.2305751">
  <ele>1586.09</ele>
  <time>2026-08-28T19:08:53Z</time>
  <course>269.91</course>
  <speed>0.0</speed>
  <fix>3d</fix>
</trkpt>
<trkpt lat="40.072842" lon="-105.2305751">
  <ele>1586.09</ele>
  <time>2026-08-28T19:08:53Z</time>
  <course>5.65</course>
  <speed>0.0</speed>
  <fix>3d</fix>
</trkpt>
<trkpt lat="40.072842" lon="-105.2305751">
  <ele>1586.09</ele>
  <time>2026-08-28T19:08:53Z</time>
  <course>270.94</course>
  <speed>0.0</speed>
  <fix>3d</fix>
</trkpt>
<trkpt lat="40.072842" lon="-105.2305751">
  <ele>1586.09</ele>
  <time>2026-08-28T19:08:53Z</time>
  <course>6.17</course>
  <speed>0.0</speed>
  <fix>3d</fix>
</trkpt>
<trkpt lat="40.072842" lon="-105.2305751">
  <ele>1586.09</ele>
  <time>2026-08-28T19:08:53Z</time>
  <course>269.58</course>
  <speed>0.0</speed>
  <fix>3d</fix>
</trkpt>
<trkpt lat="40.072842" lon="-105.2305751">
  <ele>1586.09</ele>
  <time>2026-08-28T19:08:53Z</time>
  <course>6.66</course>
  <speed>0.0</speed>
  <fix>3d</fix>
</trkpt>
<trkpt lat="40.072842" lon="-105.2305751">
  <ele>1586.09</ele>
  <time>2026-08-28T19:08:53Z</time>
  <course>269.2</course>
  <speed>0.0</speed>
  <fix>3d</fix>
</trkpt>
<trkpt lat="40.072842" lon="-105.2305751">
  <ele>1586.09</ele>
  <time>2026-08-28T19:08:53Z</time>
  <course>7.11</course>
  <speed>0.0</speed>
  <fix>3d</fix>
</trkpt>
<trkpt lat="40.072842" lon="-105.2305751">
  <ele>1586.09</ele>
  <time>2026-08-28T19:08:53Z</time>
  <course>269.83</course>
  <speed>0.0</speed>
  <fix>3d</fix>
</trkpt>
<trkpt lat="40.072842" lon="-105.2305751">
  <ele>1586.09</ele>
  <time>2026-08-28T19:08:53Z</time>
  <course>7.54</course>
  <speed>0.0</speed>
  <fix>3d</fix>
</trkpt>
<trkpt lat="40.072842" lon="-105.2305751">
  <ele>1586.09</ele>
  <time>2026-08-28T19:08:53Z</time>
  <course>268.68</course>
  <speed>0.0</speed>
  <fix>3d</fix>
</trkpt>
<trkpt lat="40.072842" lon="-105.2305751">
  <ele>1586.09</ele>
  <time>2026-08-28T19:08:53Z</time>
  <course>7.93</course>
  <speed>0.0</speed>
  <fix>3d</fix>
</trkpt>
<trkpt lat="40.072842" lon="-105.2305751">
  <ele>1586.09</ele>
  <time>2026-08-28T19:08:53Z</time>
  <course>268.89</course>
  <speed>0.0</speed>
  <fix>3d</fix>
</trkpt>
<trkpt lat="40.072842" lon="-105.2305751">
  <ele>1586.09</ele>
  <time>2026-08-28T19:08:53Z</time>
  <course>8.29</course>
  <speed>0.0</speed>
  <fix>3d</fix>
</trkpt>
<trkpt lat="40.072842" lon="-105.2305751">
  <ele>1586.09</ele>
  <time>2026-08-28T19:08:53Z</time>
  <course>270.08</course>
  <speed>0.0</speed>
  <fix>3d</fix>
</trkpt>
<trkpt lat="40.072842" lon="-105.2305751">
  <ele>1586.09</ele>
  <time>2026-08-28T19:08:53Z</time>
  <course>8.63</course>
  <speed>0.0</speed>
  <fix>3d</fix>
</trkpt>
<trkpt lat="40.072842" lon="-105.2305751">
  <ele>1586.09</ele>
  <time>2026-08-28T19:08:53Z</time>
  <course>269.85</course>
  <speed>0.0</speed>
  <fix>3d</fix>
</trkpt>
<trkpt lat="40.072842" lon="-105.2305751">
  <ele>1586.09</ele>
  <time>2026-08-28T19:08:53Z</time>
  <course>8.94</course>
  <speed>0.0</speed>
  <fix>3d</fix>
</trkpt>
<trkpt lat="40.072842" lon="-105.2305751">
  <ele>1586.09</ele>
  <time>2026-08-28T19:08:53Z</time>
  <course>270.52</course>
  <speed>0.0</speed>
  <fix>3d</fix>
</trkpt>
<trkpt lat="40.072842" lon="-105.2305751">
  <ele>1586.09</ele>
  <time>2026-08-28T19:08:53Z</time>
  <course>9.23</course>
  <speed>0.0</speed>
  <fix>3d</fix>
</trkpt>
<trkpt lat="40.072842" lon="-105.2305751">
  <ele>1586.09</ele>
  <time>2026-08-28T19:08:53Z</time>
  <course>270.44</course>
  <speed>0.0</speed>
  <fix>3d</fix>
</trkpt>
<trkpt lat="40.072842" lon="-105.2305751">
  <ele>1586.09</ele>
  <time>2026-08-28T19:08:53Z</time>
  <course>9.49</course>
  <speed>0.0</speed>
  <fix>3d</fix>
</trkpt>
<trkpt lat="40.072842" lon="-105.2305751">
  <ele>1586.09</ele>
  <time>2026-08-28T19:08:53Z</time>
  <course>269.65</course>
  <speed>0.0</speed>
  <fix>3d</fix>
</trkpt>
<trkpt lat="40.072842" lon="-105.2305751">
  <ele>1586.09</ele>
  <time>2026-08-28T19:08:53Z</time>
  <course>9.73</course>
  <speed>0.0</speed>
  <fix>3d</fix>
</trkpt>
<trkpt lat="40.072842" lon="-105.2305751">
  <ele>1586.09</ele>
  <time>2026-08-28T19:08:53Z</time>
  <course>270.28</course>
  <speed>0.0</speed>
  <fix>3d</fix>
</trkpt>
<trkpt lat="40.072842" lon="-105.2305751">
  <ele>1586.09</ele>
  <time>2026-08-28T19:08:53Z</time>
  <course>9.96</course>
  <speed>0.0</speed>
  <fix>3d</fix>
</trkpt>
<trkpt lat="40.072842" lon="-105.2305751">
  <ele>1586.09</ele>
  <time>2026-08-28T19:08:53Z</time>
  <course>270.09</course>
  <speed>0.0</speed>
  <fix>3d</fix>
</trkpt>
<trkpt lat="40.072842" lon="-105.2305751">
  <ele>1586.09</ele>
  <time>2026-08-28T19:08:53Z</time>
  <course>10.16</course>
  <speed>0.0</speed>
  <fix>3d</fix>
</trkpt>
<trkpt lat="40.072842" lon="-105.2305751">
  <ele>1586.09</ele>
  <time>2026-08-28T19:08:53Z</time>
  <course>269.9</course>
  <speed>0.0</speed>
  <fix>3d</fix>
</trkpt>
<trkpt lat="40.072842" lon="-105.2305751">
  <ele>1586.09</ele>
  <time>2026-08-28T19:08:53Z</time>
  <course>10.34</course>
  <speed>0.0</speed>
  <fix>3d</fix>
</trkpt>
<trkpt lat="40.072842" lon="-105.2305751">
  <ele>1586.09</ele>
  <time>2026-08-28T19:08:53Z</time>
  <course>269.95</course>
  <speed>0.0</speed>
  <fix>3d</fix>
</trkpt>
<trkpt lat="40.072842" lon="-105.2305751">
  <ele>1586.09</ele>
  <time>2026-08-28T19:08:53Z</time>
  <course>10.52</course>
  <speed>0.0</speed>
  <fix>3d</fix>
</trkpt>
<trkpt lat="40.072842" lon="-105.2305751">
  <ele>1586.09</ele>
  <time>2026-08-28T19:08:53Z</time>
  <course>269.97</course>
  <speed>0.0</speed>
  <fix>3d</fix>
</trkpt>
<trkpt lat="40.072842" lon="-105.2305751">
  <ele>1586.09</ele>
  <time>2026-08-28T19:08:53Z</time>
  <course>10.67</course>
  <speed>0.0</speed>
  <fix>3d</fix>
</trkpt>
<trkpt lat="40.072842" lon="-105.2305751">
  <ele>1586.09</ele>
  <time>2026-08-28T19:08:53Z</time>
  <course>269.96</course>
  <speed>0.0</speed>
  <fix>3d</fix>
</trkpt>
<trkpt lat="40.072842" lon="-105.2305751">
  <ele>1586.09</ele>
  <time>2026-08-28T19:08:53Z</time>
  <course>10.82</course>
  <speed>0.0</speed>
  <fix>3d</fix>
</trkpt>
<trkpt lat="40.072842" lon="-105.2305751">
  <ele>1586.09</ele>
  <time>2026-08-28T19:08:53Z</time>
  <course>269.96</course>
  <speed>0.0</speed>
  <fix>3d</fix>
</trkpt>
<trkpt lat="40.072842" lon="-105.2305751">
  <ele>1586.09</ele>
  <time>2026-08-28T19:08:53Z</time>
  <course>10.95</course>
  <speed>0.0</speed>
  <fix>3d</fix>
</trkpt>
<trkpt lat="40.072842" lon="-105.2305751">
  <ele>1586.09</ele>
  <time>2026-08-28T19:08:53Z</time>
  <course>269.96</course>
  <speed>0.0</speed>
  <fix>3d</fix>
</trkpt>
<trkpt lat="40.072842" lon="-105.2305751">
  <ele>1586.09</ele>
  <time>2026-08-28T19:08:53Z</time>
  <course>11.07</course>
  <speed>0.0</speed>
  <fix>3d</fix>
</trkpt>
<trkpt lat="40.072842" lon="-105.2305751">
  <ele>1586.09</ele>
  <time>2026-08-28T19:08:53Z</time>
  <course>269.96</course>
  <speed>0.0</speed>
  <fix>3d</fix>
</trkpt>
<trkpt lat="40.072842" lon="-105.2305751">
  <ele>1586.09</ele>
  <time>2026-08-28T19:08:53Z</time>
  <course>11.18</course>
  <speed>0.0</speed>
  <fix>3d</fix>
</trkpt>
<trkpt lat="40.072842" lon="-105.2305751">
  <ele>1586.09</ele>
  <time>2026-08-28T19:08:53Z</time>
  <course>269.96</course>
  <speed>0.0</speed>
  <fix>3d</fix>
</trkpt>
<trkpt lat="40.072842" lon="-105.2305751">
  <ele>1586.09</ele>
  <time>2026-08-28T19:08:53Z</time>
  <course>11.28</course>
  <speed>0.0</speed>
  <fix>3d</fix>
</trkpt>
<trkpt lat="40.072842" lon="-105.2305751">
  <ele>1586.09</ele>
  <time>2026-08-28T19:08:53Z</time>
  <course>269.96</course>
  <speed>0.0</speed>
  <fix>3d</fix>
</trkpt>
<trkpt lat="40.072842" lon="-105.2305751">
  <ele>1586.09</ele>
  <time>2026-08-28T19:08:53Z</time>
  <course>11.37</course>
  <speed>0.0</speed>
  <fix>3d</fix>
</trkpt>
<trkpt lat="40.072842" lon="-105.2305751">
  <ele>1586.09</ele>
  <time>2026-08-28T19:08:53Z</time>
  <course>269.96</course>
  <speed>0.0</speed>
  <fix>3d</fix>
</trkpt>
<trkpt lat="40.072842" lon="-105.2305751">
  <ele>1586.09</ele>
  <time>2026-08-28T19:08:53Z</time>
  <course>11.45</course>
  <speed>0.0</speed>
  <fix>3d</fix>
</trkpt>
<trkpt lat="40.072842" lon="-105.2305751">
  <ele>1586.09</ele>
  <time>2026-08-28T19:08:53Z</time>
  <course>269.96</course>
  <speed>0.0</speed>
  <fix>3d</fix>
</trkpt>
<trkpt lat="40.072842" lon="-105.2305751">
  <ele>1586.09</ele>
  <time>2026-08-28T19:08:53Z</time>
  <course>11.52</course>
  <speed>0.0</speed>
  <fix>3d</fix>
</trkpt>
<trkpt lat="40.072842" lon="-105.2305751">
  <ele>1586.09</ele>
  <time>2026-08-28T19:08:53Z</time>
  <course>269.96</course>
  <speed>0.0</speed>
  <fix>3d</fix>
</trkpt>
<trkpt lat="40.072842" lon="-105.2305751">
  <ele>1586.09</ele>
  <time>2026-08-28T19:08:53Z</time>
  <course>11.59</course>
  <speed>0.0</speed>
  <fix>3d</fix>
</trkpt>
<trkpt lat="40.072842" lon="-105.2305751">
  <ele>1586.09</ele>
  <time>2026-08-28T19:08:53Z</time>
  <course>269.96</course>
  <speed>0.0</speed>
  <fix>3d</fix>
</trkpt>
<trkpt lat="40.072842" lon="-105.2305751">
  <ele>1586.09</ele>
  <time>2026-08-28T19:08:53Z</time>
  <course>11.65</course>
  <speed>0.0</speed>
  <fix>3d</fix>
</trkpt>
<trkpt lat="40.072842" lon="-105.2305751">
  <ele>1586.09</ele>
  <time>2026-08-28T19:08:53Z</time>
  <course>269.96</course>
  <speed>0.0</speed>
  <fix>3d</fix>
</trkpt>
<trkpt lat="40.072842" lon="-105.2305751">
  <ele>1586.09</ele>
  <time>2026-08-28T19:08:53Z</time>
  <course>11.71</course>
  <speed>0.0</speed>
  <fix>3d</fix>
</trkpt>
<trkpt lat="40.072842" lon="-105.2305751">
  <ele>1586.09</ele>
  <time>2026-08-28T19:08:53Z</time>
  <course>269.96</course>
  <speed>0.0</speed>
  <fix>3d</fix>
</trkpt>
<trkpt lat="40.072842" lon="-105.2305751">
  <ele>1586.09</ele>
  <time>2026-08-28T19:08:53Z</time>
  <course>11.77</course>
  <speed>0.0</speed>
  <fix>3d</fix>
</trkpt>
<trkpt lat="40.072842" lon="-105.2305751">
  <ele>1586.09</ele>
  <time>2026-08-28T19:08:53Z</time>
  <course>269.96</course>
  <speed>0.0</speed>
  <fix>3d</fix>
</trkpt>
<trkpt lat="40.072842" lon="-105.2305751">
  <ele>1586.09</ele>
  <time>2026-08-28T19:08:53Z</time>
  <course>11.81</course>
  <speed>0.0</speed>
  <fix>3d</fix>
</trkpt>
<trkpt lat="40.072842" lon="-105.2305751">
  <ele>1586.09</ele>
  <time>2026-08-28T19:08:53Z</time>
  <course>269.96</course>
  <speed>0.0</speed>
  <fix>3d</fix>
</trkpt>
<trkpt lat="40.072842" lon="-105.2305751">
  <ele>1586.09</ele>
  <time>2026-08-28T19:08:53Z</time>
  <course>11.85</course>
  <speed>0.0</speed>
  <fix>3d</fix>
</trkpt>
<trkpt lat="40.072842" lon="-105.2305751">
  <ele>1586.09</ele>
  <time>2026-08-28T19:08:53Z</time>
  <course>269.96</course>
  <speed>0.0</speed>
  <fix>3d</fix>
</trkpt>
<trkpt lat="40.072842" lon="-105.2305751">
  <ele>1586.09</ele>
  <time>2026-08-28T19:08:53Z</time>
  <course>11.89</course>
  <speed>0.0</speed>
  <fix>3d</fix>
</trkpt>
<trkpt lat="40.072842" lon="-105.2305751">
  <ele>1586.09</ele>
  <time>2026-08-28T19:08:53Z</time>
  <course>269.96</course>
  <speed>0.0</speed>
  <fix>3d</fix>
</trkpt>
<trkpt lat="40.072842" lon="-105.2305751">
  <ele>1586.09</ele>
  <time>2026-08-28T19:08:53Z</time>
  <course>11.92</course>
  <speed>0.0</speed>
  <fix>3d</fix>
</trkpt>
<trkpt lat="40.072842" lon="-105.2305751">
  <ele>1586.09</ele>
  <time>2026-08-28T19:08:53Z</time>
  <course>269.96</course>
  <speed>0.0</speed>
  <fix>3d</fix>
</trkpt>
<trkpt lat="40.072842" lon="-105.2305751">
  <ele>1586.09</ele>
  <time>2026-08-28T19:08:53Z</time>
  <course>11.95</course>
  <speed>0.0</speed>
  <fix>3d</fix>
</trkpt>
<trkpt lat="40.072842" lon="-105.2305751">
  <ele>1586.09</ele>
  <time>2026-08-28T19:08:53Z</time>
  <course>269.96</course>
  <speed>0.0</speed>
  <fix>3d</fix>
</trkpt>
<trkpt lat="40.072842" lon="-105.2305751">
  <ele>1586.09</ele>
  <time>2026-08-28T19:08:53Z</time>
  <course>11.98</course>
  <speed>0.0</speed>
  <fix>3d</fix>
</trkpt>
<trkpt lat="40.072842" lon="-105.2305751">
  <ele>1586.09</ele>
  <time>2026-08-28T19:08:53Z</time>
  <course>269.96</course>
  <speed>0.0</speed>
  <fix>3d</fix>
</trkpt>
<trkpt lat="40.072842" lon="-105.2305751">
  <ele>1586.09</ele>
  <time>2026-08-28T19:08:53Z</time>
  <course>12.0</course>
  <speed>0.0</speed>
  <fix>3d</fix>
</trkpt>
<trkpt lat="40.072842" lon="-105.2305751">
  <ele>1586.09</ele>
  <time>2026-08-28T19:08:53Z</time>
  <course>269.96</course>
  <speed>0.0</speed>
  <fix>3d</fix>
</trkpt>
<trkpt lat="40.072842" lon="-105.2305751">
  <ele>1586.09</ele>
  <time>2026-08-28T19:08:53Z</time>
  <course>12.02</course>
  <speed>0.0</speed>
  <fix>3d</fix>
</trkpt>
<trkpt lat="40.072842" lon="-105.2305751">
  <ele>1586.09</ele>
  <time>2026-08-28T19:08:53Z</time>
  <course>269.96</course>
  <speed>0.0</speed>
  <fix>3d</fix>
</trkpt>
<trkpt lat="40.072842" lon="-105.2305751">
  <ele>1586.09</ele>
  <time>2026-08-28T19:08:53Z</time>
  <course>12.04</course>
  <speed>0.0</speed>
  <fix>3d</fix>
</trkpt>
<trkpt lat="40.072842" lon="-105.2305751">
  <ele>1586.09</ele>
  <time>2026-08-28T19:08:53Z</time>
  <course>269.96</course>
  <speed>0.0</speed>
  <fix>3d</fix>
</trkpt>
<trkpt lat="40.072842" lon="-105.2305751">
  <ele>1586.09</ele>
  <time>2026-08-28T19:08:53Z</time>
  <course>12.05</course>
  <speed>0.0</speed>
  <fix>3d</fix>
</trkpt>
<trkpt lat="40.072842" lon="-105.2305751">
  <ele>1586.09</ele>
  <time>2026-08-28T19:08:53Z</time>
  <course>269.96</course>
  <speed>0.0</speed>
  <fix>3d</fix>
</trkpt>
<trkpt lat="40.072842" lon="-105.2305751">
  <ele>1586.09</ele>
  <time>2026-08-28T19:08:53Z</time>
  <course>12.07</course>
  <speed>0.0</speed>
  <fix>3d</fix>
</trkpt>
<trkpt lat="40.072842" lon="-105.2305751">
  <ele>1586.09</ele>
  <time>2026-08-28T19:08:53Z</time>
  <course>269.96</course>
  <speed>0.0</speed>
  <fix>3d</fix>
</trkpt>
<trkpt lat="40.072842" lon="-105.2305751">
  <ele>1586.09</ele>
  <time>2026-08-28T19:08:53Z</time>
  <course>12.08</course>
  <speed>0.0</speed>
  <fix>3d</fix>
</trkpt>
<trkpt lat="40.072842" lon="-105.2305751">
  <ele>1586.09</ele>
  <time>2026-08-28T19:08:53Z</time>
  <course>269.96</course>
  <speed>0.0</speed>
  <fix>3d</fix>
</trkpt>
<trkpt lat="40.072842" lon="-105.2305751">
  <ele>1586.09</ele>
  <time>2026-08-28T19:08:53Z</time>
  <course>12.09</course>
  <speed>0.0</speed>
  <fix>3d</fix>
</trkpt>
<trkpt lat="40.072842" lon="-105.2305751">
  <ele>1586.09</ele>
  <time>2026-08-28T19:08:53Z</time>
  <course>269.96</course>
  <speed>0.0</speed>
  <fix>3d</fix>
</trkpt>
<trkpt lat="40.072842" lon="-105.2305751">
  <ele>1586.09</ele>
  <time>2026-08-28T19:08:53Z</time>
  <course>12.1</course>
  <speed>0.0</speed>
  <fix>3d</fix>
</trkpt>
<trkpt lat="40.072842" lon="-105.2305751">
  <ele>1586.09</ele>
  <time>2026-08-28T19:08:53Z</time>
  <course>269.96</course>
  <speed>0.0</speed>
  <fix>3d</fix>
</trkpt>
<trkpt lat="40.072842" lon="-105.2305751">
  <ele>1586.09</ele>
  <time>2026-08-28T19:08:53Z</time>
  <course>12.1</course>
  <speed>0.0</speed>
  <fix>3d</fix>
</trkpt>
<trkpt lat="40.072842" lon="-105.2305751">
  <ele>1586.09</ele>
  <time>2026-08-28T19:08:53Z</time>
  <course>269.96</course>
  <speed>0.0</speed>
  <fix>3d</fix>
</trkpt>
<trkpt lat="40.072842" lon="-105.2305751">
  <ele>1586.09</ele>
  <time>2026-08-28T19:08:53Z</time>
  <course>12.11</course>
  <speed>0.0</speed>
  <fix>3d</fix>
</trkpt>
<trkpt lat="40.072842" lon="-105.2305751">
  <ele>1586.09</ele>
  <time>2026-08-28T19:08:53Z</time>
  <course>269.96</course>
  <speed>0.0</speed>
  <fix>3d</fix>
</trkpt>
<trkpt lat="40.072842" lon="-105.2305751">
  <ele>1586.09</ele>
  <time>2026-08-28T19:08:53Z</time>
  <course>12.11</course>
  <speed>0.0</speed>
  <fix>3d</fix>
</trkpt>
<trkpt lat="40.072842" lon="-105.2305751">
  <ele>1586.09</ele>
  <time>2026-08-28T19:08:53Z</time>
  <course>269.96</course>
  <speed>0.0</speed>
  <fix>3d</fix>
</trkpt>
<trkpt lat="40.072842" lon="-105.2305751">
  <ele>1586.09</ele>
  <time>2026-08-28T19:08:53Z</time>
  <course>12.12</course>
  <speed>0.0</speed>
  <fix>3d</fix>
</trkpt>
<trkpt lat="40.072842" lon="-105.2305751">
  <ele>1586.09</ele>
  <time>2026-08-28T19:08:53Z</time>
  <course>269.96</course>
  <speed>0.0</speed>
  <fix>3d</fix>
</trkpt>
<trkpt lat="40.072842" lon="-105.2305751">
  <ele>1586.09</ele>
  <time>2026-08-28T19:08:53Z</time>
  <course>12.12</course>
  <speed>0.0</speed>
  <fix>3d</fix>
</trkpt>
<trkpt lat="40.072842" lon="-105.2305751">
  <ele>1586.09</ele>
  <time>2026-08-28T19:08:53Z</time>
  <course>269.96</course>
  <speed>0.0</speed>
  <fix>3d</fix>
</trkpt>
<trkpt lat="40.072842" lon="-105.2305751">
  <ele>1586.09</ele>
  <time>2026-08-28T19:08:53Z</time>
  <course>12.12</course>
  <speed>0.0</speed>
  <fix>3d</fix>
</trkpt>
<trkpt lat="40.072842" lon="-105.2305751">
  <ele>1586.09</ele>
  <time>2026-08-28T19:08:53Z</time>
  <course>269.96</course>
  <speed>0.0</speed>
  <fix>3d</fix>
</trkpt>
<trkpt lat="40.072842" lon="-105.2305751">
  <ele>1586.09</ele>
  <time>2026-08-28T19:08:53Z</time>
  <course>12.12</course>
  <speed>0.0</speed>
  <fix>3d</fix>
</trkpt>
<trkpt lat="40.072842" lon="-105.2305751">
  <ele>1586.09</ele>
  <time>2026-08-28T19:08:53Z</time>
  <course>269.96</course>
  <speed>0.0</speed>
  <fix>3d</fix>
</trkpt>
<trkpt lat="40.072842" lon="-105.2305751">
  <ele>1586.09</ele>
  <time>2026-08-28T19:08:53Z</time>
  <course>12.12</course>
  <speed>0.0</speed>
  <fix>3d</fix>
</trkpt>
<trkpt lat="40.072842" lon="-105.2305751">
  <ele>1586.09</ele>
  <time>2026-08-28T19:08:53Z</time>
  <course>269.96</course>
  <speed>0.0</speed>
  <fix>3d</fix>
</trkpt>
<trkpt lat="40.072842" lon="-105.2305751">
  <ele>1586.09</ele>
  <time>2026-08-28T19:08:53Z</time>
  <course>12.12</course>
  <speed>0.01</speed>
  <fix>3d</fix>
</trkpt>
<trkpt lat="40.072842" lon="-105.2305751">
  <ele>1586.09</ele>
  <time>2026-08-28T19:08:53Z</time>
  <course>269.96</course>
  <speed>0.0</speed>
  <fix>3d</fix>
</trkpt>
<trkpt lat="40.072842" lon="-105.2305751">
  <ele>1586.09</ele>
  <time>2026-08-28T19:08:53Z</time>
  <course>12.12</course>
  <speed>0.01</speed>
  <fix>3d</fix>
</trkpt>
<trkpt lat="40.072842" lon="-105.2305751">
  <ele>1586.09</ele>
  <time>2026-08-28T19:08:53Z</time>
  <course>269.96</course>
  <speed>0.0</speed>
  <fix>3d</fix>
</trkpt>
<trkpt lat="40.072842" lon="-105.2305751">
  <ele>1586.09</ele>
  <time>2026-08-28T19:08:53Z</time>
  <course>12.12</course>
  <speed>0.01</speed>
  <fix>3d</fix>
</trkpt>
<trkpt lat="40.072842" lon="-105.2305751">
  <ele>1586.09</ele>
  <time>2026-08-28T19:08:53Z</time>
  <course>269.96</course>
  <speed>0.0</speed>
  <fix>3d</fix>
</trkpt>
<trkpt lat="40.072842" lon="-105.2305751">
  <ele>1586.09</ele>
  <time>2026-08-28T19:08:53Z</time>
  <course>12.11</course>
  <speed>0.01</speed>
  <fix>3d</fix>
</trkpt>
<trkpt lat="40.072842" lon="-105.2305751">
  <ele>1586.09</ele>
  <time>2026-08-28T19:08:53Z</time>
  <course>269.96</course>
  <speed>0.0</speed>
  <fix>3d</fix>
</trkpt>
<trkpt lat="40.072842" lon="-105.2305751">
  <ele>1586.09</ele>
  <time>2026-08-28T19:08:53Z</time>
  <course>12.11</course>
  <speed>0.01</speed>
  <fix>3d</fix>
</trkpt>
<trkpt lat="40.072842" lon="-105.2305751">
  <ele>1586.09</ele>
  <time>2026-08-28T19:08:53Z</time>
  <course>269.96</course>
  <speed>0.0</speed>
  <fix>3d</fix>
</trkpt>
<trkpt lat="40.072842" lon="-105.2305751">
  <ele>1586.09</ele>
  <time>2026-08-28T19:08:53Z</time>
  <course>12.1</course>
  <speed>0.01</speed>
  <fix>3d</fix>
</trkpt>
<trkpt lat="40.072842" lon="-105.2305751">
  <ele>1586.09</ele>
  <time>2026-08-28T19:08:53Z</time>
  <course>269.96</course>
  <speed>0.0</speed>
  <fix>3d</fix>
</trkpt>
<trkpt lat="40.072842" lon="-105.2305751">
  <ele>1586.09</ele>
  <time>2026-08-28T19:08:53Z</time>
  <course>12.1</course>
  <speed>0.01</speed>
  <fix>3d</fix>
</trkpt>
<trkpt lat="40.072842" lon="-105.2305751">
  <ele>1586.09</ele>
  <time>2026-08-28T19:08:53Z</time>
  <course>269.96</course>
  <speed>0.0</speed>
  <fix>3d</fix>
</trkpt>
<trkpt lat="40.072842" lon="-105.2305751">
  <ele>1586.09</ele>
  <time>2026-08-28T19:08:53Z</time>
  <course>12.09</course>
  <speed>0.01</speed>
  <fix>3d</fix>
</trkpt>
<trkpt lat="40.072842" lon="-105.2305751">
  <ele>1586.09</ele>
  <time>2026-08-28T19:08:53Z</time>
  <course>269.96</course>
  <speed>0.0</speed>
  <fix>3d</fix>
</trkpt>
<trkpt lat="40.072842" lon="-105.2305751">
  <ele>1586.09</ele>
  <time>2026-08-28T19:08:53Z</time>
  <course>12.09</course>
  <speed>0.01</speed>
  <fix>3d</fix>
</trkpt>
<trkpt lat="40.072842" lon="-105.2305751">
  <ele>1586.09</ele>
  <time>2026-08-28T19:08:53Z</time>
  <course>269.96</course>
  <speed>0.0</speed>
  <fix>3d</fix>
</trkpt>
<trkpt lat="40.072842" lon="-105.2305751">
  <ele>1586.09</ele>
  <time>2026-08-28T19:08:53Z</time>
  <course>12.08</course>
  <speed>0.01</speed>
  <fix>3d</fix>
</trkpt>
<trkpt lat="40.072842" lon="-105.2305751">
  <ele>1586.09</ele>
  <time>2026-08-28T19:08:53Z</time>
  <course>269.96</course>
  <speed>0.0</speed>
  <fix>3d</fix>
</trkpt>
<trkpt lat="40.072842" lon="-105.2305751">
  <ele>1586.09</ele>
  <time>2026-08-28T19:08:53Z</time>
  <course>12.08</course>
  <speed>0.01414213562373095</speed>
  <fix>3d</fix>
</trkpt>
<trkpt lat="40.072842" lon="-105.2305751">
  <ele>1586.09</ele>
  <time>2026-08-28T19:08:53Z</time>
  <course>269.96</course>
  <speed>0.0</speed>
  <fix>3d</fix>
</trkpt>
<trkpt lat="40.072842" lon="-105.2305751">
  <ele>1586.09</ele>
  <time>2026-08-28T19:08:53Z</time>
  <course>12.07</course>
  <speed>0.01414213562373095</speed>
  <fix>3d</fix>
</trkpt>
<trkpt lat="40.072842" lon="-105.2305751">
  <ele>1586.09</ele>
  <time>2026-08-28T19:08:53Z</time>
  <course>269.96</course>
  <speed>0.0</speed>
  <fix>3d</fix>
</trkpt>
<trkpt lat="40.072842" lon="-105.2305751">
  <ele>1586.09</ele>
  <time>2026-08-28T19:08:53Z</time>
  <course>12.07</course>
  <speed>0.01414213562373095</speed>
  <fix>3d</fix>
</trkpt>
<trkpt lat="40.072842" lon="-105.2305751">
  <ele>1586.09</ele>
  <time>2026-08-28T19:08:53Z</time>
  <course>269.96</course>
  <speed>0.0</speed>
  <fix>3d</fix>
</trkpt>
<trkpt lat="40.072842" lon="-105.2305751">
  <ele>1586.09</ele>
  <time>2026-08-28T19:08:53Z</time>
  <course>12.06</course>
  <speed>0.01414213562373095</speed>
  <fix>3d</fix>
</trkpt>
<trkpt lat="40.072842" lon="-105.2305751">
  <ele>1586.09</ele>
  <time>2026-08-28T19:08:53Z</time>
  <course>269.96</course>
  <speed>0.0</speed>
  <fix>3d</fix>
</trkpt>
<trkpt lat="40.072842" lon="-105.2305751">
  <ele>1586.09</ele>
  <time>2026-08-28T19:08:53Z</time>
  <course>12.05</course>
  <speed>0.01414213562373095</speed>
  <fix>3d</fix>
</trkpt>
<trkpt lat="40.072842" lon="-105.2305751">
  <ele>1586.09</ele>
  <time>2026-08-28T19:08:53Z</time>
  <course>269.96</course>
  <speed>0.0</speed>
  <fix>3d</fix>
</trkpt>
<trkpt lat="40.072842" lon="-105.2305751">
  <ele>1586.09</ele>
  <time>2026-08-28T19:08:53Z</time>
  <course>12.05</course>
  <speed>0.01414213562373095</speed>
  <fix>3d</fix>
</trkpt>
<trkpt lat="40.072842" lon="-105.2305751">
  <ele>1586.09</ele>
  <time>2026-08-28T19:08:53Z</time>
  <course>269.96</course>
  <speed>0.0</speed>
  <fix>3d</fix>
</trkpt>
<trkpt lat="40.072842" lon="-105.2305751">
  <ele>1586.09</ele>
  <time>2026-08-28T19:08:53Z</time>
  <course>12.04</course>
  <speed>0.01414213562373095</speed>
  <fix>3d</fix>
</trkpt>
<trkpt lat="40.072842" lon="-105.2305751">
  <ele>1586.09</ele>
  <time>2026-08-28T19:08:53Z</time>
  <course>269.96</course>
  <speed>0.0</speed>
  <fix>3d</fix>
</trkpt>
<trkpt lat="40.072842" lon="-105.2305751">
  <ele>1586.09</ele>
  <time>2026-08-28T19:08:53Z</time>
  <course>12.03</course>
  <speed>0.01414213562373095</speed>
  <fix>3d</fix>
</trkpt>
<trkpt lat="40.072842" lon="-105.2305751">
  <ele>1586.09</ele>
  <time>2026-08-28T19:08:53Z</time>
  <course>269.96</course>
  <speed>0.0</speed>
  <fix>3d</fix>
</trkpt>
<trkpt lat="40.072842" lon="-105.2305751">
  <ele>1586.09</ele>
  <time>2026-08-28T19:08:53Z</time>
  <course>12.02</course>
  <speed>0.01414213562373095</speed>
  <fix>3d</fix>
</trkpt>
<trkpt lat="40.072842" lon="-105.2305751">
  <ele>1586.09</ele>
  <time>2026-08-28T19:08:53Z</time>
  <course>269.96</course>
  <speed>0.0</speed>
  <fix>3d</fix>
</trkpt>
<trkpt lat="40.072842" lon="-105.2305751">
  <ele>1586.09</ele>
  <time>2026-08-28T19:08:53Z</time>
  <course>12.02</course>
  <speed>0.01414213562373095</speed>
  <fix>3d</fix>
</trkpt>
<trkpt lat="40.072842" lon="-105.2305751">
  <ele>1586.09</ele>
  <time>2026-08-28T19:08:53Z</time>
  <course>269.96</course>
  <speed>0.0</speed>
  <fix>3d</fix>
</trkpt>
<trkpt lat="40.072842" lon="-105.2305751">
  <ele>1586.09</ele>
  <time>2026-08-28T19:08:53Z</time>
  <course>12.01</course>
  <speed>0.01414213562373095</speed>
  <fix>3d</fix>
</trkpt>
<trkpt lat="40.072842" lon="-105.2305751">
  <ele>1586.09</ele>
  <time>2026-08-28T19:08:53Z</time>
  <course>269.96</course>
  <speed>0.0</speed>
  <fix>3d</fix>
</trkpt>
<trkpt lat="40.072842" lon="-105.2305751">
  <ele>1586.09</ele>
  <time>2026-08-28T19:08:53Z</time>
  <course>12.0</course>
  <speed>0.01414213562373095</speed>
  <fix>3d</fix>
</trkpt>
<trkpt lat="40.072842" lon="-105.2305751">
  <ele>1586.09</ele>
  <time>2026-08-28T19:08:53Z</time>
  <course>269.96</course>
  <speed>0.0</speed>
  <fix>3d</fix>
</trkpt>
<trkpt lat="40.072842" lon="-105.2305751">
  <ele>1586.09</ele>
  <time>2026-08-28T19:08:53Z</time>
  <course>11.99</course>
  <speed>0.01414213562373095</speed>
  <fix>3d</fix>
</trkpt>
<trkpt lat="40.072842" lon="-105.2305751">
  <ele>1586.09</ele>
  <time>2026-08-28T19:08:53Z</time>
  <course>269.96</course>
  <speed>0.0</speed>
  <fix>3d</fix>
</trkpt>
<trkpt lat="40.072842" lon="-105.2305751">
  <ele>1586.09</ele>
  <time>2026-08-28T19:08:53Z</time>
  <course>11.99</course>
  <speed>0.01414213562373095</speed>
  <fix>3d</fix>
</trkpt>
<trkpt lat="40.072842" lon="-105.2305751">
  <ele>1586.09</ele>
  <time>2026-08-28T19:08:53Z</time>
  <course>269.96</course>
  <speed>0.0</speed>
  <fix>3d</fix>
</trkpt>
<trkpt lat="40.072842" lon="-105.2305751">
  <ele>1586.09</ele>
  <time>2026-08-28T19:08:53Z</time>
  <course>11.98</course>
  <speed>0.01414213562373095</speed>
  <fix>3d</fix>
</trkpt>
<trkpt lat="40.072842" lon="-105.2305751">
  <ele>1586.09</ele>
  <time>2026-08-28T19:08:53Z</time>
  <course>269.96</course>
  <speed>0.0</speed>
  <fix>3d</fix>
</trkpt>
<trkpt lat="40.072842" lon="-105.2305751">
  <ele>1586.09</ele>
  <time>2026-08-28T19:08:53Z</time>
  <course>11.97</course>
  <speed>0.01414213562373095</speed>
  <fix>3d</fix>
</trkpt>
<trkpt lat="40.072842" lon="-105.2305751">
  <ele>1586.09</ele>
  <time>2026-08-28T19:08:53Z</time>
  <course>269.96</course>
  <speed>0.0</speed>
  <fix>3d</fix>
</trkpt>
<trkpt lat="40.072842" lon="-105.2305751">
  <ele>1586.09</ele>
  <time>2026-08-28T19:08:53Z</time>
  <course>11.96</course>
  <speed>0.01414213562373095</speed>
  <fix>3d</fix>
</trkpt>
<trkpt lat="40.072842" lon="-105.2305751">
  <ele>1586.09</ele>
  <time>2026-08-28T19:08:53Z</time>
  <course>269.96</course>
  <speed>0.0</speed>
  <fix>3d</fix>
</trkpt>
<trkpt lat="40.072842" lon="-105.2305751">
  <ele>1586.09</ele>
  <time>2026-08-28T19:08:53Z</time>
  <course>11.95</course>
  <speed>0.022360679774997897</speed>
  <fix>3d</fix>
</trkpt>
<trkpt lat="40.072842" lon="-105.2305751">
  <ele>1586.09</ele>
  <time>2026-08-28T19:08:53Z</time>
  <course>269.96</course>
  <speed>0.0</speed>
  <fix>3d</fix>
</trkpt>
<trkpt lat="40.072842" lon="-105.2305751">
  <ele>1586.09</ele>
  <time>2026-08-28T19:08:53Z</time>
  <course>11.94</course>
  <speed>0.022360679774997897</speed>
  <fix>3d</fix>
</trkpt>
<trkpt lat="40.072842" lon="-105.2305751">
  <ele>1586.09</ele>
  <time>2026-08-28T19:08:53Z</time>
  <course>269.96</course>
  <speed>0.0</speed>
  <fix>3d</fix>
</trkpt>
<trkpt lat="40.072842" lon="-105.2305751">
  <ele>1586.09</ele>
  <time>2026-08-28T19:08:53Z</time>
  <course>11.94</course>
  <speed>0.022360679774997897</speed>
  <fix>3d</fix>
</trkpt>
<trkpt lat="40.072842" lon="-105.2305751">
  <ele>1586.09</ele>
  <time>2026-08-28T19:08:53Z</time>
  <course>269.96</course>
  <speed>0.0</speed>
  <fix>3d</fix>
</trkpt>
<trkpt lat="40.072842" lon="-105.2305751">
  <ele>1586.09</ele>
  <time>2026-08-28T19:08:53Z</time>
  <course>11.93</course>
  <speed>0.022360679774997897</speed>
  <fix>3d</fix>
</trkpt>
<trkpt lat="40.072842" lon="-105.2305751">
  <ele>1586.09</ele>
  <time>2026-08-28T19:08:53Z</time>
  <course>269.96</course>
  <speed>0.0</speed>
  <fix>3d</fix>
</trkpt>
<trkpt lat="40.072842" lon="-105.2305751">
  <ele>1586.09</ele>
  <time>2026-08-28T19:08:53Z</time>
  <course>11.92</course>
  <speed>0.022360679774997897</speed>
  <fix>3d</fix>
</trkpt>
<trkpt lat="40.072842" lon="-105.2305751">
  <ele>1586.09</ele>
  <time>2026-08-28T19:08:53Z</time>
  <course>269.96</course>
  <speed>0.0</speed>
  <fix>3d</fix>
</trkpt>
<trkpt lat="40.072842" lon="-105.2305751">
  <ele>1586.09</ele>
  <time>2026-08-28T19:08:53Z</time>
  <course>11.91</course>
  <speed>0.022360679774997897</speed>
  <fix>3d</fix>
</trkpt>
<trkpt lat="40.072842" lon="-105.2305751">
  <ele>1586.09</ele>
  <time>2026-08-28T19:08:53Z</time>
  <course>269.96</course>
  <speed>0.0</speed>
  <fix>3d</fix>
</trkpt>
<trkpt lat="40.072842" lon="-105.2305751">
  <ele>1586.09</ele>
  <time>2026-08-28T19:08:53Z</time>
  <course>11.9</course>
  <speed>0.022360679774997897</speed>
  <fix>3d</fix>
</trkpt>
<trkpt lat="40.072842" lon="-105.2305751">
  <ele>1586.09</ele>
  <time>2026-08-28T19:08:53Z</time>
  <course>269.96</course>
  <speed>0.0</speed>
  <fix>3d</fix>
</trkpt>
<trkpt lat="40.072842" lon="-105.2305751">
  <ele>1586.09</ele>
  <time>2026-08-28T19:08:53Z</time>
  <course>11.9</course>
  <speed>0.022360679774997897</speed>
  <fix>3d</fix>
</trkpt>
<trkpt lat="40.072842" lon="-105.2305751">
  <ele>1586.09</ele>
  <time>2026-08-28T19:08:53Z</time>
  <course>269.96</course>
  <speed>0.0</speed>
  <fix>3d</fix>
</trkpt>
<trkpt lat="40.072842" lon="-105.2305751">
  <ele>1586.09</ele>
  <time>2026-08-28T19:08:53Z</time>
  <course>11.89</course>
  <speed>0.022360679774997897</speed>
  <fix>3d</fix>
</trkpt>
<trkpt lat="40.072842" lon="-105.2305751">
  <ele>1586.09</ele>
  <time>2026-08-28T19:08:53Z</time>
  <course>269.96</course>
  <speed>0.0</speed>
  <fix>3d</fix>
</trkpt>
<trkpt lat="40.072842" lon="-105.2305751">
  <ele>1586.09</ele>
  <time>2026-08-28T19:08:53Z</time>
  <course>11.88</course>
  <speed>0.022360679774997897</speed>
  <fix>3d</fix>
</trkpt>
<trkpt lat="40.072842" lon="-105.2305751">
  <ele>1586.09</ele>
  <time>2026-08-28T19:08:53Z</time>
  <course>269.96</course>
  <speed>0.0</speed>
  <fix>3d</fix>
</trkpt>
<trkpt lat="40.072842" lon="-105.2305751">
  <ele>1586.09</ele>
  <time>2026-08-28T19:08:53Z</time>
  <course>11.87</course>
  <speed>0.022360679774997897</speed>
  <fix>3d</fix>
</trkpt>
<trkpt lat="40.072842" lon="-105.2305751">
  <ele>1586.09</ele>
  <time>2026-08-28T19:08:53Z</time>
  <course>269.96</course>
  <speed>0.0</speed>
  <fix>3d</fix>
</trkpt>
<trkpt lat="40.072842" lon="-105.2305751">
  <ele>1586.09</ele>
  <time>2026-08-28T19:08:53Z</time>
  <course>11.86</course>
  <speed>0.022360679774997897</speed>
  <fix>3d</fix>
</trkpt>
<trkpt lat="40.072842" lon="-105.2305751">
  <ele>1586.09</ele>
  <time>2026-08-28T19:08:53Z</time>
  <course>269.96</course>
  <speed>0.0</speed>
  <fix>3d</fix>
</trkpt>
<trkpt lat="40.072842" lon="-105.2305751">
  <ele>1586.09</ele>
  <time>2026-08-28T19:08:53Z</time>
  <course>11.86</course>
  <speed>0.022360679774997897</speed>
  <fix>3d</fix>
</trkpt>
<trkpt lat="40.072842" lon="-105.2305751">
  <ele>1586.09</ele>
  <time>2026-08-28T19:08:53Z</time>
  <course>269.96</course>
  <speed>0.0</speed>
  <fix>3d</fix>
</trkpt>
<trkpt lat="40.072842" lon="-105.2305751">
  <ele>1586.09</ele>
  <time>2026-08-28T19:08:53Z</time>
  <course>11.85</course>
  <speed>0.022360679774997897</speed>
  <fix>3d</fix>
</trkpt>
<trkpt lat="40.072842" lon="-105.2305751">
  <ele>1586.09</ele>
  <time>2026-08-28T19:08:53Z</time>
  <course>269.96</course>
  <speed>0.0</speed>
  <fix>3d</fix>
</trkpt>
<trkpt lat="40.072842" lon="-105.2305751">
  <ele>1586.09</ele>
  <time>2026-08-28T19:08:53Z</time>
  <course>11.84</course>
  <speed>0.022360679774997897</speed>
  <fix>3d</fix>
</trkpt>
<trkpt lat="40.072842" lon="-105.2305751">
  <ele>1586.09</ele>
  <time>2026-08-28T19:08:53Z</time>
  <course>269.96</course>
  <speed>0.0</speed>
  <fix>3d</fix>
</trkpt>
<trkpt lat="40.072842" lon="-105.2305751">
  <ele>1586.09</ele>
  <time>2026-08-28T19:08:53Z</time>
  <course>11.83</course>
  <speed>0.022360679774997897</speed>
  <fix>3d</fix>
</trkpt>
<trkpt lat="40.072842" lon="-105.2305751">
  <ele>1586.09</ele>
  <time>2026-08-28T19:08:53Z</time>
  <course>269.96</course>
  <speed>0.0</speed>
  <fix>3d</fix>
</trkpt>
<trkpt lat="40.072842" lon="-105.2305751">
  <ele>1586.09</ele>
  <time>2026-08-28T19:08:53Z</time>
  <course>11.82</course>
  <speed>0.022360679774997897</speed>
  <fix>3d</fix>
</trkpt>
<trkpt lat="40.072842" lon="-105.2305751">
  <ele>1586.09</ele>
  <time>2026-08-28T19:08:53Z</time>
  <course>269.96</course>
  <speed>0.0</speed>
  <fix>3d</fix>
</trkpt>
<trkpt lat="40.072842" lon="-105.2305751">
  <ele>1586.09</ele>
  <time>2026-08-28T19:08:53Z</time>
  <course>11.81</course>
  <speed>0.0282842712474619</speed>
  <fix>3d</fix>
</trkpt>
<trkpt lat="40.072842" lon="-105.2305751">
  <ele>1586.09</ele>
  <time>2026-08-28T19:08:53Z</time>
  <course>269.96</course>
  <speed>0.0</speed>
  <fix>3d</fix>
</trkpt>
<trkpt lat="40.072842" lon="-105.2305751">
  <ele>1586.09</ele>
  <time>2026-08-28T19:08:53Z</time>
  <course>11.81</course>
  <speed>0.0282842712474619</speed>
  <fix>3d</fix>
</trkpt>
<trkpt lat="40.072842" lon="-105.2305751">
  <ele>1586.09</ele>
  <time>2026-08-28T19:08:53Z</time>
  <course>269.96</course>
  <speed>0.0</speed>
  <fix>3d</fix>
</trkpt>
<trkpt lat="40.072842" lon="-105.2305751">
  <ele>1586.09</ele>
  <time>2026-08-28T19:08:53Z</time>
  <course>11.8</course>
  <speed>0.0282842712474619</speed>
  <fix>3d</fix>
</trkpt>
<trkpt lat="40.072842" lon="-105.2305751">
  <ele>1586.09</ele>
  <time>2026-08-28T19:08:53Z</time>
  <course>269.96</course>
  <speed>0.0</speed>
  <fix>3d</fix>
</trkpt>
<trkpt lat="40.072842" lon="-105.2305751">
  <ele>1586.09</ele>
  <time>2026-08-28T19:08:53Z</time>
  <course>11.79</course>
  <speed>0.0282842712474619</speed>
  <fix>3d</fix>
</trkpt>
<trkpt lat="40.072842" lon="-105.2305751">
  <ele>1586.09</ele>
  <time>2026-08-28T19:08:53Z</time>
  <course>269.96</course>
  <speed>0.0</speed>
  <fix>3d</fix>
</trkpt>
<trkpt lat="40.072842" lon="-105.2305751">
  <ele>1586.09</ele>
  <time>2026-08-28T19:08:53Z</time>
  <course>11.78</course>
  <speed>0.0282842712474619</speed>
  <fix>3d</fix>
</trkpt>
<trkpt lat="40.072842" lon="-105.2305751">
  <ele>1586.09</ele>
  <time>2026-08-28T19:08:53Z</time>
  <course>269.96</course>
  <speed>0.0</speed>
  <fix>3d</fix>
</trkpt>
<trkpt lat="40.072842" lon="-105.2305751">
  <ele>1586.09</ele>
  <time>2026-08-28T19:08:53Z</time>
  <course>11.78</course>
  <speed>0.0282842712474619</speed>
  <fix>3d</fix>
</trkpt>
<trkpt lat="40.072842" lon="-105.2305751">
  <ele>1586.09</ele>
  <time>2026-08-28T19:08:53Z</time>
  <course>269.96</course>
  <speed>0.0</speed>
  <fix>3d</fix>
</trkpt>
<trkpt lat="40.072842" lon="-105.2305751">
  <ele>1586.09</ele>
  <time>2026-08-28T19:08:53Z</time>
  <course>11.77</course>
  <speed>0.0282842712474619</speed>
  <fix>3d</fix>
</trkpt>
<trkpt lat="40.072842" lon="-105.2305751">
  <ele>1586.09</ele>
  <time>2026-08-28T19:08:53Z</time>
  <course>269.96</course>
  <speed>0.0</speed>
  <fix>3d</fix>
</trkpt>
<trkpt lat="40.072842" lon="-105.2305751">
  <ele>1586.09</ele>
  <time>2026-08-28T19:08:53Z</time>
  <course>11.76</course>
  <speed>0.0282842712474619</speed>
  <fix>3d</fix>
</trkpt>
<trkpt lat="40.072842" lon="-105.2305751">
  <ele>1586.09</ele>
  <time>2026-08-28T19:08:53Z</time>
  <course>269.96</course>
  <speed>0.0</speed>
  <fix>3d</fix>
</trkpt>
<trkpt lat="40.072842" lon="-105.2305751">
  <ele>1586.09</ele>
  <time>2026-08-28T19:08:53Z</time>
  <course>11.75</course>
  <speed>0.0282842712474619</speed>
  <fix>3d</fix>
</trkpt>
<trkpt lat="40.072842" lon="-105.2305751">
  <ele>1586.09</ele>
  <time>2026-08-28T19:08:53Z</time>
  <course>269.96</course>
  <speed>0.0</speed>
  <fix>3d</fix>
</trkpt>
<trkpt lat="40.072842" lon="-105.2305751">
  <ele>1586.09</ele>
  <time>2026-08-28T19:08:53Z</time>
  <course>11.75</course>
  <speed>0.0282842712474619</speed>
  <fix>3d</fix>
</trkpt>
<trkpt lat="40.072842" lon="-105.2305751">
  <ele>1586.09</ele>
  <time>2026-08-28T19:08:53Z</time>
  <course>269.96</course>
  <speed>0.0</speed>
  <fix>3d</fix>
</trkpt>
<trkpt lat="40.072842" lon="-105.2305751">
  <ele>1586.09</ele>
  <time>2026-08-28T19:08:53Z</time>
  <course>11.74</course>
  <speed>0.03605551275463989</speed>
  <fix>3d</fix>
</trkpt>
<trkpt lat="40.072842" lon="-105.2305751">
  <ele>1586.09</ele>
  <time>2026-08-28T19:08:53Z</time>
  <course>269.96</course>
  <speed>0.0</speed>
  <fix>3d</fix>
</trkpt>
<trkpt lat="40.072842" lon="-105.2305751">
  <ele>1586.09</ele>
  <time>2026-08-28T19:08:54Z</time>
  <course>11.73</course>
  <speed>0.03605551275463989</speed>
  <fix>3d</fix>
</trkpt>
<trkpt lat="40.072842" lon="-105.2305751">
  <ele>1586.09</ele>
  <time>2026-08-28T19:08:54Z</time>
  <course>269.96</course>
  <speed>0.0</speed>
  <fix>3d</fix>
</trkpt>
<trkpt lat="40.072842" lon="-105.2305751">
  <ele>1586.09</ele>
  <time>2026-08-28T19:08:54Z</time>
  <course>11.72</course>
  <speed>0.03605551275463989</speed>
  <fix>3d</fix>
</trkpt>
<trkpt lat="40.072842" lon="-105.2305751">
  <ele>1586.09</ele>
  <time>2026-08-28T19:08:54Z</time>
  <course>269.96</course>
  <speed>0.0</speed>
  <fix>3d</fix>
</trkpt>
<trkpt lat="40.072842" lon="-105.2305751">
  <ele>1586.09</ele>
  <time>2026-08-28T19:08:54Z</time>
  <course>11.72</course>
  <speed>0.03605551275463989</speed>
  <fix>3d</fix>
</trkpt>
<trkpt lat="40.072842" lon="-105.2305751">
  <ele>1586.09</ele>
  <time>2026-08-28T19:08:54Z</time>
  <course>269.96</course>
  <speed>0.0</speed>
  <fix>3d</fix>
</trkpt>
<trkpt lat="40.072842" lon="-105.2305751">
  <ele>1586.09</ele>
  <time>2026-08-28T19:08:54Z</time>
  <course>11.71</course>
  <speed>0.03605551275463989</speed>
  <fix>3d</fix>
</trkpt>
<trkpt lat="40.072842" lon="-105.2305751">
  <ele>1586.09</ele>
  <time>2026-08-28T19:08:54Z</time>
  <course>269.96</course>
  <speed>0.0</speed>
  <fix>3d</fix>
</trkpt>
<trkpt lat="40.072842" lon="-105.2305751">
  <ele>1586.09</ele>
  <time>2026-08-28T19:08:54Z</time>
  <course>11.7</course>
  <speed>0.03605551275463989</speed>
  <fix>3d</fix>
</trkpt>
<trkpt lat="40.072842" lon="-105.2305751">
  <ele>1586.09</ele>
  <time>2026-08-28T19:08:54Z</time>
  <course>269.96</course>
  <speed>0.0</speed>
  <fix>3d</fix>
</trkpt>
<trkpt lat="40.072842" lon="-105.2305751">
  <ele>1586.09</ele>
  <time>2026-08-28T19:08:54Z</time>
  <course>11.69</course>
  <speed>0.03605551275463989</speed>
  <fix>3d</fix>
</trkpt>
<trkpt lat="40.072842" lon="-105.2305751">
  <ele>1586.09</ele>
  <time>2026-08-28T19:08:54Z</time>
  <course>269.96</course>
  <speed>0.0</speed>
  <fix>3d</fix>
</trkpt>
<trkpt lat="40.072842" lon="-105.2305751">
  <ele>1586.09</ele>
  <time>2026-08-28T19:08:54Z</time>
  <course>11.69</course>
  <speed>0.03605551275463989</speed>
  <fix>3d</fix>
</trkpt>
<trkpt lat="40.072842" lon="-105.2305751">
  <ele>1586.09</ele>
  <time>2026-08-28T19:08:54Z</time>
  <course>269.96</course>
  <speed>0.0</speed>
  <fix>3d</fix>
</trkpt>
<trkpt lat="40.072842" lon="-105.2305751">
  <ele>1586.09</ele>
  <time>2026-08-28T19:08:54Z</time>
  <course>11.68</course>
  <speed>0.03605551275463989</speed>
  <fix>3d</fix>
</trkpt>
<trkpt lat="40.072842" lon="-105.2305751">
  <ele>1586.09</ele>
  <time>2026-08-28T19:08:54Z</time>
  <course>269.96</course>
  <speed>0.0</speed>
  <fix>3d</fix>
</trkpt>
<trkpt lat="40.072842" lon="-105.2305751">
  <ele>1586.09</ele>
  <time>2026-08-28T19:08:54Z</time>
  <course>11.67</course>
  <speed>0.03605551275463989</speed>
  <fix>3d</fix>
</trkpt>
<trkpt lat="40.072842" lon="-105.2305751">
  <ele>1586.09</ele>
  <time>2026-08-28T19:08:54Z</time>
  <course>269.96</course>
  <speed>0.0</speed>
  <fix>3d</fix>
</trkpt>
<trkpt lat="40.072842" lon="-105.2305751">
  <ele>1586.09</ele>
  <time>2026-08-28T19:08:54Z</time>
  <course>11.67</course>
  <speed>0.03605551275463989</speed>
  <fix>3d</fix>
</trkpt>
<trkpt lat="40.072842" lon="-105.2305751">
  <ele>1586.09</ele>
  <time>2026-08-28T19:08:54Z</time>
  <course>269.96</course>
  <speed>0.0</speed>
  <fix>3d</fix>
</trkpt>
<trkpt lat="40.072842" lon="-105.2305751">
  <ele>1586.09</ele>
  <time>2026-08-28T19:08:54Z</time>
  <course>11.66</course>
  <speed>0.03605551275463989</speed>
  <fix>3d</fix>
</trkpt>
<trkpt lat="40.072842" lon="-105.2305751">
  <ele>1586.09</ele>
  <time>2026-08-28T19:08:54Z</time>
  <course>269.96</course>
  <speed>0.0</speed>
  <fix>3d</fix>
</trkpt>
<trkpt lat="40.072842" lon="-105.2305751">
  <ele>1586.09</ele>
  <time>2026-08-28T19:08:54Z</time>
  <course>11.65</course>
  <speed>0.03605551275463989</speed>
  <fix>3d</fix>
</trkpt>
<trkpt lat="40.072842" lon="-105.2305751">
  <ele>1586.09</ele>
  <time>2026-08-28T19:08:54Z</time>
  <course>269.96</course>
  <speed>0.0</speed>
  <fix>3d</fix>
</trkpt>
<trkpt lat="40.072842" lon="-105.2305751">
  <ele>1586.09</ele>
  <time>2026-08-28T19:08:54Z</time>
  <course>11.64</course>
  <speed>0.03605551275463989</speed>
  <fix>3d</fix>
</trkpt>
<trkpt lat="40.072842" lon="-105.2305751">
  <ele>1586.09</ele>
  <time>2026-08-28T19:08:54Z</time>
  <course>269.96</course>
  <speed>0.0</speed>
  <fix>3d</fix>
</trkpt>
<trkpt lat="40.072842" lon="-105.2305751">
  <ele>1586.09</ele>
  <time>2026-08-28T19:08:54Z</time>
  <course>11.64</course>
  <speed>0.03605551275463989</speed>
  <fix>3d</fix>
</trkpt>
<trkpt lat="40.072842" lon="-105.2305751">
  <ele>1586.09</ele>
  <time>2026-08-28T19:08:54Z</time>
  <course>269.96</course>
  <speed>0.0</speed>
  <fix>3d</fix>
</trkpt>
<trkpt lat="40.072842" lon="-105.2305751">
  <ele>1586.09</ele>
  <time>2026-08-28T19:08:54Z</time>
  <course>11.63</course>
  <speed>0.03605551275463989</speed>
  <fix>3d</fix>
</trkpt>
<trkpt lat="40.072842" lon="-105.2305751">
  <ele>1586.09</ele>
  <time>2026-08-28T19:08:54Z</time>
  <course>269.96</course>
  <speed>0.0</speed>
  <fix>3d</fix>
</trkpt>
<trkpt lat="40.072842" lon="-105.2305751">
  <ele>1586.09</ele>
  <time>2026-08-28T19:08:54Z</time>
  <course>11.62</course>
  <speed>0.03605551275463989</speed>
  <fix>3d</fix>
</trkpt>
<trkpt lat="40.072842" lon="-105.2305751">
  <ele>1586.09</ele>
  <time>2026-08-28T19:08:54Z</time>
  <course>269.96</course>
  <speed>0.0</speed>
  <fix>3d</fix>
</trkpt>
<trkpt lat="40.072842" lon="-105.2305751">
  <ele>1586.09</ele>
  <time>2026-08-28T19:08:54Z</time>
  <course>11.62</course>
  <speed>0.03605551275463989</speed>
  <fix>3d</fix>
</trkpt>
<trkpt lat="40.072842" lon="-105.2305751">
  <ele>1586.09</ele>
  <time>2026-08-28T19:08:54Z</time>
  <course>269.96</course>
  <speed>0.0</speed>
  <fix>3d</fix>
</trkpt>
<trkpt lat="40.072842" lon="-105.2305751">
  <ele>1586.09</ele>
  <time>2026-08-28T19:08:54Z</time>
  <course>11.61</course>
  <speed>0.03605551275463989</speed>
  <fix>3d</fix>
</trkpt>
<trkpt lat="40.072842" lon="-105.2305751">
  <ele>1586.09</ele>
  <time>2026-08-28T19:08:54Z</time>
  <course>269.96</course>
  <speed>0.0</speed>
  <fix>3d</fix>
</trkpt>
<trkpt lat="40.072842" lon="-105.2305751">
  <ele>1586.09</ele>
  <time>2026-08-28T19:08:54Z</time>
  <course>11.6</course>
  <speed>0.03605551275463989</speed>
  <fix>3d</fix>
</trkpt>
<trkpt lat="40.072842" lon="-105.2305751">
  <ele>1586.09</ele>
  <time>2026-08-28T19:08:54Z</time>
  <course>269.96</course>
  <speed>0.0</speed>
  <fix>3d</fix>
</trkpt>
<trkpt lat="40.072842" lon="-105.2305751">
  <ele>1586.09</ele>
  <time>2026-08-28T19:08:54Z</time>
  <course>11.6</course>
  <speed>0.03605551275463989</speed>
  <fix>3d</fix>
</trkpt>
<trkpt lat="40.072842" lon="-105.2305751">
  <ele>1586.09</ele>
  <time>2026-08-28T19:08:54Z</time>
  <course>269.96</course>
  <speed>0.0</speed>
  <fix>3d</fix>
</trkpt>
<trkpt lat="40.072842" lon="-105.2305751">
  <ele>1586.09</ele>
  <time>2026-08-28T19:08:54Z</time>
  <course>11.59</course>
  <speed>0.03605551275463989</speed>
  <fix>3d</fix>
</trkpt>
<trkpt lat="40.072842" lon="-105.2305751">
  <ele>1586.09</ele>
  <time>2026-08-28T19:08:54Z</time>
  <course>269.96</course>
  <speed>0.0</speed>
  <fix>3d</fix>
</trkpt>
<trkpt lat="40.072842" lon="-105.2305751">
  <ele>1586.09</ele>
  <time>2026-08-28T19:08:54Z</time>
  <course>11.59</course>
  <speed>0.03605551275463989</speed>
  <fix>3d</fix>
</trkpt>
<trkpt lat="40.072842" lon="-105.2305751">
  <ele>1586.09</ele>
  <time>2026-08-28T19:08:54Z</time>
  <course>269.96</course>
  <speed>0.0</speed>
  <fix>3d</fix>
</trkpt>
<trkpt lat="40.072842" lon="-105.2305751">
  <ele>1586.09</ele>
  <time>2026-08-28T19:08:54Z</time>
  <course>11.58</course>
  <speed>0.03605551275463989</speed>
  <fix>3d</fix>
</trkpt>
<trkpt lat="40.072842" lon="-105.2305751">
  <ele>1586.09</ele>
  <time>2026-08-28T19:08:54Z</time>
  <course>269.96</course>
  <speed>0.0</speed>
  <fix>3d</fix>
</trkpt>
<trkpt lat="40.072842" lon="-105.2305751">
  <ele>1586.09</ele>
  <time>2026-08-28T19:08:54Z</time>
  <course>11.57</course>
  <speed>0.03605551275463989</speed>
  <fix>3d</fix>
</trkpt>
<trkpt lat="40.072842" lon="-105.2305751">
  <ele>1586.09</ele>
  <time>2026-08-28T19:08:54Z</time>
  <course>269.96</course>
  <speed>0.0</speed>
  <fix>3d</fix>
</trkpt>
<trkpt lat="40.072842" lon="-105.2305751">
  <ele>1586.09</ele>
  <time>2026-08-28T19:08:54Z</time>
  <course>11.57</course>
  <speed>0.03605551275463989</speed>
  <fix>3d</fix>
</trkpt>
<trkpt lat="40.072842" lon="-105.2305751">
  <ele>1586.09</ele>
  <time>2026-08-28T19:08:54Z</time>
  <course>269.96</course>
  <speed>0.0</speed>
  <fix>3d</fix>
</trkpt>
<trkpt lat="40.072842" lon="-105.2305751">
  <ele>1586.09</ele>
  <time>2026-08-28T19:08:54Z</time>
  <course>11.56</course>
  <speed>0.03605551275463989</speed>
  <fix>3d</fix>
</trkpt>
<trkpt lat="40.072842" lon="-105.2305751">
  <ele>1586.09</ele>
  <time>2026-08-28T19:08:54Z</time>
  <course>269.96</course>
  <speed>0.0</speed>
  <fix>3d</fix>
</trkpt>
<trkpt lat="40.072842" lon="-105.2305751">
  <ele>1586.09</ele>
  <time>2026-08-28T19:08:54Z</time>
  <course>11.55</course>
  <speed>0.03605551275463989</speed>
  <fix>3d</fix>
</trkpt>
<trkpt lat="40.072842" lon="-105.2305751">
  <ele>1586.09</ele>
  <time>2026-08-28T19:08:54Z</time>
  <course>269.96</course>
  <speed>0.0</speed>
  <fix>3d</fix>
</trkpt>
<trkpt lat="40.072842" lon="-105.2305751">
  <ele>1586.09</ele>
  <time>2026-08-28T19:08:54Z</time>
  <course>11.55</course>
  <speed>0.03605551275463989</speed>
  <fix>3d</fix>
</trkpt>
<trkpt lat="40.072842" lon="-105.2305751">
  <ele>1586.09</ele>
  <time>2026-08-28T19:08:54Z</time>
  <course>269.96</course>
  <speed>0.0</speed>
  <fix>3d</fix>
</trkpt>
<trkpt lat="40.072842" lon="-105.2305751">
  <ele>1586.09</ele>
  <time>2026-08-28T19:08:54Z</time>
  <course>11.54</course>
  <speed>0.03605551275463989</speed>
  <fix>3d</fix>
</trkpt>
<trkpt lat="40.072842" lon="-105.2305751">
  <ele>1586.09</ele>
  <time>2026-08-28T19:08:54Z</time>
  <course>269.96</course>
  <speed>0.0</speed>
  <fix>3d</fix>
</trkpt>
<trkpt lat="40.072842" lon="-105.2305751">
  <ele>1586.09</ele>
  <time>2026-08-28T19:08:54Z</time>
  <course>11.54</course>
  <speed>0.03605551275463989</speed>
  <fix>3d</fix>
</trkpt>
<trkpt lat="40.072842" lon="-105.2305751">
  <ele>1586.09</ele>
  <time>2026-08-28T19:08:54Z</time>
  <course>269.96</course>
  <speed>0.0</speed>
  <fix>3d</fix>
</trkpt>
<trkpt lat="40.072842" lon="-105.2305751">
  <ele>1586.09</ele>
  <time>2026-08-28T19:08:54Z</time>
  <course>11.53</course>
  <speed>0.03605551275463989</speed>
  <fix>3d</fix>
</trkpt>
<trkpt lat="40.072842" lon="-105.2305751">
  <ele>1586.09</ele>
  <time>2026-08-28T19:08:54Z</time>
  <course>269.96</course>
  <speed>0.0</speed>
  <fix>3d</fix>
</trkpt>
<trkpt lat="40.072842" lon="-105.2305751">
  <ele>1586.09</ele>
  <time>2026-08-28T19:08:54Z</time>
  <course>11.52</course>
  <speed>0.03605551275463989</speed>
  <fix>3d</fix>
</trkpt>
<trkpt lat="40.072842" lon="-105.2305751">
  <ele>1586.09</ele>
  <time>2026-08-28T19:08:54Z</time>
  <course>269.96</course>
  <speed>0.0</speed>
  <fix>3d</fix>
</trkpt>
<trkpt lat="40.072842" lon="-105.2305751">
  <ele>1586.09</ele>
  <time>2026-08-28T19:08:54Z</time>
  <course>11.52</course>
  <speed>0.03605551275463989</speed>
  <fix>3d</fix>
</trkpt>
<trkpt lat="40.072842" lon="-105.2305751">
  <ele>1586.09</ele>
  <time>2026-08-28T19:08:54Z</time>
  <course>269.96</course>
  <speed>0.0</speed>
  <fix>3d</fix>
</trkpt>
<trkpt lat="40.072842" lon="-105.2305751">
  <ele>1586.09</ele>
  <time>2026-08-28T19:08:54Z</time>
  <course>11.51</course>
  <speed>0.03605551275463989</speed>
  <fix>3d</fix>
</trkpt>
<trkpt lat="40.072842" lon="-105.2305751">
  <ele>1586.09</ele>
  <time>2026-08-28T19:08:54Z</time>
  <course>269.96</course>
  <speed>0.0</speed>
  <fix>3d</fix>
</trkpt>
<trkpt lat="40.072842" lon="-105.2305751">
  <ele>1586.09</ele>
  <time>2026-08-28T19:08:54Z</time>
  <course>11.51</course>
  <speed>0.03605551275463989</speed>
  <fix>3d</fix>
</trkpt>
<trkpt lat="40.072842" lon="-105.2305751">
  <ele>1586.09</ele>
  <time>2026-08-28T19:08:54Z</time>
  <course>269.96</course>
  <speed>0.0</speed>
  <fix>3d</fix>
</trkpt>
<trkpt lat="40.072842" lon="-105.2305751">
  <ele>1586.09</ele>
  <time>2026-08-28T19:08:54Z</time>
  <course>11.5</course>
  <speed>0.03605551275463989</speed>
  <fix>3d</fix>
</trkpt>
<trkpt lat="40.072842" lon="-105.2305751">
  <ele>1586.09</ele>
  <time>2026-08-28T19:08:54Z</time>
  <course>269.96</course>
  <speed>0.0</speed>
  <fix>3d</fix>
</trkpt>
<trkpt lat="40.072842" lon="-105.2305751">
  <ele>1586.09</ele>
  <time>2026-08-28T19:08:54Z</time>
  <course>11.5</course>
  <speed>0.03605551275463989</speed>
  <fix>3d</fix>
</trkpt>
<trkpt lat="40.072842" lon="-105.2305751">
  <ele>1586.09</ele>
  <time>2026-08-28T19:08:54Z</time>
  <course>269.96</course>
  <speed>0.0</speed>
  <fix>3d</fix>
</trkpt>
<trkpt lat="40.072842" lon="-105.2305751">
  <ele>1586.09</ele>
  <time>2026-08-28T19:08:54Z</time>
  <course>11.49</course>
  <speed>0.044721359549995794</speed>
  <fix>3d</fix>
</trkpt>
<trkpt lat="40.072842" lon="-105.2305751">
  <ele>1586.09</ele>
  <time>2026-08-28T19:08:54Z</time>
  <course>269.96</course>
  <speed>0.0</speed>
  <fix>3d</fix>
</trkpt>
<trkpt lat="40.072842" lon="-105.2305751">
  <ele>1586.09</ele>
  <time>2026-08-28T19:08:54Z</time>
  <course>11.49</course>
  <speed>0.044721359549995794</speed>
  <fix>3d</fix>
</trkpt>
<trkpt lat="40.072842" lon="-105.2305751">
  <ele>1586.09</ele>
  <time>2026-08-28T19:08:54Z</time>
  <course>269.96</course>
  <speed>0.0</speed>
  <fix>3d</fix>
</trkpt>
<trkpt lat="40.072842" lon="-105.2305751">
  <ele>1586.09</ele>
  <time>2026-08-28T19:08:54Z</time>
  <course>11.48</course>
  <speed>0.044721359549995794</speed>
  <fix>3d</fix>
</trkpt>
<trkpt lat="40.072842" lon="-105.2305751">
  <ele>1586.09</ele>
  <time>2026-08-28T19:08:54Z</time>
  <course>269.96</course>
  <speed>0.0</speed>
  <fix>3d</fix>
</trkpt>
<trkpt lat="40.072842" lon="-105.2305751">
  <ele>1586.09</ele>
  <time>2026-08-28T19:08:54Z</time>
  <course>11.47</course>
  <speed>0.044721359549995794</speed>
  <fix>3d</fix>
</trkpt>
<trkpt lat="40.072842" lon="-105.2305751">
  <ele>1586.09</ele>
  <time>2026-08-28T19:08:54Z</time>
  <course>269.96</course>
  <speed>0.0</speed>
  <fix>3d</fix>
</trkpt>
<trkpt lat="40.072842" lon="-105.2305751">
  <ele>1586.09</ele>
  <time>2026-08-28T19:08:54Z</time>
  <course>11.47</course>
  <speed>0.044721359549995794</speed>
  <fix>3d</fix>
</trkpt>
<trkpt lat="40.072842" lon="-105.2305751">
  <ele>1586.09</ele>
  <time>2026-08-28T19:08:54Z</time>
  <course>269.96</course>
  <speed>0.0</speed>
  <fix>3d</fix>
</trkpt>
<trkpt lat="40.072842" lon="-105.2305751">
  <ele>1586.09</ele>
  <time>2026-08-28T19:08:54Z</time>
  <course>11.46</course>
  <speed>0.044721359549995794</speed>
  <fix>3d</fix>
</trkpt>
<trkpt lat="40.072842" lon="-105.2305751">
  <ele>1586.09</ele>
  <time>2026-08-28T19:08:54Z</time>
  <course>269.96</course>
  <speed>0.0</speed>
  <fix>3d</fix>
</trkpt>
<trkpt lat="40.072842" lon="-105.2305751">
  <ele>1586.09</ele>
  <time>2026-08-28T19:08:54Z</time>
  <course>11.46</course>
  <speed>0.044721359549995794</speed>
  <fix>3d</fix>
</trkpt>
<trkpt lat="40.072842" lon="-105.2305751">
  <ele>1586.09</ele>
  <time>2026-08-28T19:08:54Z</time>
  <course>269.96</course>
  <speed>0.0</speed>
  <fix>3d</fix>
</trkpt>
<trkpt lat="40.072842" lon="-105.2305751">
  <ele>1586.09</ele>
  <time>2026-08-28T19:08:54Z</time>
  <course>11.45</course>
  <speed>0.044721359549995794</speed>
  <fix>3d</fix>
</trkpt>
<trkpt lat="40.072842" lon="-105.2305751">
  <ele>1586.09</ele>
  <time>2026-08-28T19:08:54Z</time>
  <course>269.96</course>
  <speed>0.0</speed>
  <fix>3d</fix>
</trkpt>
<trkpt lat="40.072842" lon="-105.2305751">
  <ele>1586.15</ele>
  <time>2026-08-28T19:08:54Z</time>
  <course>11.45</course>
  <speed>0.0</speed>
  <fix>3d</fix>
</trkpt>
<trkpt lat="40.072842" lon="-105.2305751">
  <ele>1586.09</ele>
  <time>2026-08-28T19:08:54Z</time>
  <course>269.96</course>
  <speed>0.0</speed>
  <fix>3d</fix>
</trkpt>
<trkpt lat="40.072842" lon="-105.2305751">
  <ele>1586.15</ele>
  <time>2026-08-28T19:08:54Z</time>
  <course>11.44</course>
  <speed>0.0</speed>
  <fix>3d</fix>
</trkpt>
<trkpt lat="40.072842" lon="-105.2305751">
  <ele>1586.09</ele>
  <time>2026-08-28T19:08:54Z</time>
  <course>269.96</course>
  <speed>0.0</speed>
  <fix>3d</fix>
</trkpt>
<trkpt lat="40.072842" lon="-105.2305751">
  <ele>1586.14</ele>
  <time>2026-08-28T19:08:54Z</time>
  <course>11.44</course>
  <speed>0.0</speed>
  <fix>3d</fix>
</trkpt>
<trkpt lat="40.072842" lon="-105.2305751">
  <ele>1586.09</ele>
  <time>2026-08-28T19:08:54Z</time>
  <course>269.34</course>
  <speed>0.0</speed>
  <fix>3d</fix>
</trkpt>
<trkpt lat="40.072842" lon="-105.2305751">
  <ele>1586.14</ele>
  <time>2026-08-28T19:08:54Z</time>
  <course>11.43</course>
  <speed>0.0</speed>
  <fix>3d</fix>
</trkpt>
<trkpt lat="40.072842" lon="-105.2305751">
  <ele>1586.09</ele>
  <time>2026-08-28T19:08:54Z</time>
  <course>268.58</course>
  <speed>0.0</speed>
  <fix>3d</fix>
</trkpt>
<trkpt lat="40.072842" lon="-105.2305751">
  <ele>1586.14</ele>
  <time>2026-08-28T19:08:54Z</time>
  <course>11.43</course>
  <speed>0.0</speed>
  <fix>3d</fix>
</trkpt>
<trkpt lat="40.072842" lon="-105.2305751">
  <ele>1586.09</ele>
  <time>2026-08-28T19:08:54Z</time>
  <course>269.25</course>
  <speed>0.0</speed>
  <fix>3d</fix>
</trkpt>
<trkpt lat="40.072842" lon="-105.2305751">
  <ele>1586.14</ele>
  <time>2026-08-28T19:08:54Z</time>
  <course>11.43</course>
  <speed>0.01</speed>
  <fix>3d</fix>
</trkpt>
<trkpt lat="40.072842" lon="-105.2305751">
  <ele>1586.09</ele>
  <time>2026-08-28T19:08:54Z</time>
  <course>270.23</course>
  <speed>0.0</speed>
  <fix>3d</fix>
</trkpt>
<trkpt lat="40.072842" lon="-105.2305751">
  <ele>1586.14</ele>
  <time>2026-08-28T19:08:54Z</time>
  <course>11.42</course>
  <speed>0.01</speed>
  <fix>3d</fix>
</trkpt>
<trkpt lat="40.072842" lon="-105.2305751">
  <ele>1586.09</ele>
  <time>2026-08-28T19:08:54Z</time>
  <course>269.98</course>
  <speed>0.0</speed>
  <fix>3d</fix>
</trkpt>
<trkpt lat="40.072842" lon="-105.2305751">
  <ele>1586.14</ele>
  <time>2026-08-28T19:08:54Z</time>
  <course>11.42</course>
  <speed>0.01</speed>
  <fix>3d</fix>
</trkpt>
<trkpt lat="40.072842" lon="-105.2305751">
  <ele>1586.09</ele>
  <time>2026-08-28T19:08:54Z</time>
  <course>269.88</course>
  <speed>0.0</speed>
  <fix>3d</fix>
</trkpt>
<trkpt lat="40.072842" lon="-105.2305751">
  <ele>1586.14</ele>
  <time>2026-08-28T19:08:54Z</time>
  <course>11.41</course>
  <speed>0.01414213562373095</speed>
  <fix>3d</fix>
</trkpt>
<trkpt lat="40.072842" lon="-105.2305751">
  <ele>1586.09</ele>
  <time>2026-08-28T19:08:54Z</time>
  <course>269.92</course>
  <speed>0.0</speed>
  <fix>3d</fix>
</trkpt>
<trkpt lat="40.072842" lon="-105.2305751">
  <ele>1586.14</ele>
  <time>2026-08-28T19:08:54Z</time>
  <course>11.41</course>
  <speed>0.01414213562373095</speed>
  <fix>3d</fix>
</trkpt>
<trkpt lat="40.072842" lon="-105.2305751">
  <ele>1586.09</ele>
  <time>2026-08-28T19:08:54Z</time>
  <course>269.93</course>
  <speed>0.0</speed>
  <fix>3d</fix>
</trkpt>
<trkpt lat="40.072842" lon="-105.2305751">
  <ele>1586.15</ele>
  <time>2026-08-28T19:08:54Z</time>
  <course>11.41</course>
  <speed>0.01414213562373095</speed>
  <fix>3d</fix>
</trkpt>
<trkpt lat="40.072842" lon="-105.2305751">
  <ele>1586.09</ele>
  <time>2026-08-28T19:08:54Z</time>
  <course>269.92</course>
  <speed>0.0</speed>
  <fix>3d</fix>
</trkpt>
<trkpt lat="40.072842" lon="-105.2305751">
  <ele>1586.15</ele>
  <time>2026-08-28T19:08:54Z</time>
  <course>11.4</course>
  <speed>0.022360679774997897</speed>
  <fix>3d</fix>
</trkpt>
<trkpt lat="40.072842" lon="-105.2305751">
  <ele>1586.09</ele>
  <time>2026-08-28T19:08:54Z</time>
  <course>269.92</course>
  <speed>0.0</speed>
  <fix>3d</fix>
</trkpt>
<trkpt lat="40.072842" lon="-105.2305751">
  <ele>1586.15</ele>
  <time>2026-08-28T19:08:54Z</time>
  <course>11.4</course>
  <speed>0.022360679774997897</speed>
  <fix>3d</fix>
</trkpt>
<trkpt lat="40.072842" lon="-105.2305751">
  <ele>1586.09</ele>
  <time>2026-08-28T19:08:54Z</time>
  <course>269.92</course>
  <speed>0.0</speed>
  <fix>3d</fix>
</trkpt>
<trkpt lat="40.072842" lon="-105.2305751">
  <ele>1586.16</ele>
  <time>2026-08-28T19:08:54Z</time>
  <course>11.4</course>
  <speed>0.022360679774997897</speed>
  <fix>3d</fix>
</trkpt>
<trkpt lat="40.072842" lon="-105.2305751">
  <ele>1586.09</ele>
  <time>2026-08-28T19:08:54Z</time>
  <course>269.91</course>
  <speed>0.0</speed>
  <fix>3d</fix>
</trkpt>
<trkpt lat="40.072842" lon="-105.2305751">
  <ele>1586.16</ele>
  <time>2026-08-28T19:08:54Z</time>
  <course>11.39</course>
  <speed>0.022360679774997897</speed>
  <fix>3d</fix>
</trkpt>
<trkpt lat="40.072842" lon="-105.2305752">
  <ele>1586.09</ele>
  <time>2026-08-28T19:08:54Z</time>
  <course>269.91</course>
  <speed>0.0</speed>
  <fix>3d</fix>
</trkpt>
<trkpt lat="40.072842" lon="-105.2305751">
  <ele>1586.16</ele>
  <time>2026-08-28T19:08:54Z</time>
  <course>11.39</course>
  <speed>0.01414213562373095</speed>
  <fix>3d</fix>
</trkpt>
<trkpt lat="40.072842" lon="-105.2305753">
  <ele>1586.09</ele>
  <time>2026-08-28T19:08:54Z</time>
  <course>269.92</course>
  <speed>0.0</speed>
  <fix>3d</fix>
</trkpt>
<trkpt lat="40.072842" lon="-105.2305751">
  <ele>1586.16</ele>
  <time>2026-08-28T19:08:54Z</time>
  <course>11.38</course>
  <speed>0.01</speed>
  <fix>3d</fix>
</trkpt>
<trkpt lat="40.072842" lon="-105.2305753">
  <ele>1586.09</ele>
  <time>2026-08-28T19:08:54Z</time>
  <course>269.92</course>
  <speed>0.0</speed>
  <fix>3d</fix>
</trkpt>
<trkpt lat="40.072842" lon="-105.2305751">
  <ele>1586.16</ele>
  <time>2026-08-28T19:08:54Z</time>
  <course>11.38</course>
  <speed>0.01</speed>
  <fix>3d</fix>
</trkpt>
<trkpt lat="40.072842" lon="-105.2305753">
  <ele>1586.09</ele>
  <time>2026-08-28T19:08:54Z</time>
  <course>269.92</course>
  <speed>0.0</speed>
  <fix>3d</fix>
</trkpt>
<trkpt lat="40.072842" lon="-105.2305751">
  <ele>1586.16</ele>
  <time>2026-08-28T19:08:54Z</time>
  <course>11.38</course>
  <speed>0.0</speed>
  <fix>3d</fix>
</trkpt>
<trkpt lat="40.072842" lon="-105.2305753">
  <ele>1586.09</ele>
  <time>2026-08-28T19:08:54Z</time>
  <course>269.92</course>
  <speed>0.0</speed>
  <fix>3d</fix>
</trkpt>
<trkpt lat="40.072842" lon="-105.2305751">
  <ele>1586.16</ele>
  <time>2026-08-28T19:08:54Z</time>
  <course>11.37</course>
  <speed>0.0</speed>
  <fix>3d</fix>
</trkpt>
<trkpt lat="40.072842" lon="-105.2305753">
  <ele>1586.09</ele>
  <time>2026-08-28T19:08:54Z</time>
  <course>269.92</course>
  <speed>0.0</speed>
  <fix>3d</fix>
</trkpt>
<trkpt lat="40.072842" lon="-105.2305751">
  <ele>1586.16</ele>
  <time>2026-08-28T19:08:54Z</time>
  <course>11.37</course>
  <speed>0.0</speed>
  <fix>3d</fix>
</trkpt>
<trkpt lat="40.072842" lon="-105.2305753">
  <ele>1586.09</ele>
  <time>2026-08-28T19:08:54Z</time>
  <course>269.92</course>
  <speed>0.0</speed>
  <fix>3d</fix>
</trkpt>
<trkpt lat="40.072842" lon="-105.2305751">
  <ele>1586.16</ele>
  <time>2026-08-28T19:08:54Z</time>
  <course>11.36</course>
  <speed>0.0</speed>
  <fix>3d</fix>
</trkpt>
<trkpt lat="40.072842" lon="-105.2305753">
  <ele>1586.09</ele>
  <time>2026-08-28T19:08:54Z</time>
  <course>275.29</course>
  <speed>0.0</speed>
  <fix>3d</fix>
</trkpt>
<trkpt lat="40.072842" lon="-105.2305752">
  <ele>1586.16</ele>
  <time>2026-08-28T19:08:54Z</time>
  <course>11.36</course>
  <speed>0.0</speed>
  <fix>3d</fix>
</trkpt>
<trkpt lat="40.072842" lon="-105.2305753">
  <ele>1586.09</ele>
  <time>2026-08-28T19:08:54Z</time>
  <course>277.21</course>
  <speed>0.0</speed>
  <fix>3d</fix>
</trkpt>
<trkpt lat="40.072842" lon="-105.2305752">
  <ele>1586.16</ele>
  <time>2026-08-28T19:08:54Z</time>
  <course>11.36</course>
  <speed>0.0</speed>
  <fix>3d</fix>
</trkpt>
<trkpt lat="40.072842" lon="-105.2305753">
  <ele>1586.09</ele>
  <time>2026-08-28T19:08:54Z</time>
  <course>271.31</course>
  <speed>0.0</speed>
  <fix>3d</fix>
</trkpt>
<trkpt lat="40.072842" lon="-105.2305752">
  <ele>1586.16</ele>
  <time>2026-08-28T19:08:54Z</time>
  <course>11.35</course>
  <speed>0.0</speed>
  <fix>3d</fix>
</trkpt>
<trkpt lat="40.072842" lon="-105.2305753">
  <ele>1586.09</ele>
  <time>2026-08-28T19:08:54Z</time>
  <course>268.84</course>
  <speed>0.0</speed>
  <fix>3d</fix>
</trkpt>
<trkpt lat="40.072842" lon="-105.2305752">
  <ele>1586.16</ele>
  <time>2026-08-28T19:08:54Z</time>
  <course>11.35</course>
  <speed>0.0</speed>
  <fix>3d</fix>
</trkpt>
<trkpt lat="40.072842" lon="-105.2305753">
  <ele>1586.09</ele>
  <time>2026-08-28T19:08:54Z</time>
  <course>270.09</course>
  <speed>0.0</speed>
  <fix>3d</fix>
</trkpt>
<trkpt lat="40.072842" lon="-105.2305752">
  <ele>1586.16</ele>
  <time>2026-08-28T19:08:54Z</time>
  <course>11.35</course>
  <speed>0.0</speed>
  <fix>3d</fix>
</trkpt>
<trkpt lat="40.072842" lon="-105.2305753">
  <ele>1586.09</ele>
  <time>2026-08-28T19:08:54Z</time>
  <course>270.28</course>
  <speed>0.0</speed>
  <fix>3d</fix>
</trkpt>
<trkpt lat="40.072842" lon="-105.2305752">
  <ele>1586.16</ele>
  <time>2026-08-28T19:08:54Z</time>
  <course>11.35</course>
  <speed>0.0</speed>
  <fix>3d</fix>
</trkpt>
<trkpt lat="40.072842" lon="-105.2305753">
  <ele>1586.09</ele>
  <time>2026-08-28T19:08:54Z</time>
  <course>268.76</course>
  <speed>0.0</speed>
  <fix>3d</fix>
</trkpt>
<trkpt lat="40.072842" lon="-105.2305752">
  <ele>1586.16</ele>
  <time>2026-08-28T19:08:54Z</time>
  <course>11.34</course>
  <speed>0.0</speed>
  <fix>3d</fix>
</trkpt>
<trkpt lat="40.072842" lon="-105.2305753">
  <ele>1586.09</ele>
  <time>2026-08-28T19:08:54Z</time>
  <course>268.39</course>
  <speed>0.0</speed>
  <fix>3d</fix>
</trkpt>
<trkpt lat="40.072842" lon="-105.2305752">
  <ele>1586.16</ele>
  <time>2026-08-28T19:08:54Z</time>
  <course>11.34</course>
  <speed>0.0</speed>
  <fix>3d</fix>
</trkpt>
<trkpt lat="40.072842" lon="-105.2305753">
  <ele>1586.09</ele>
  <time>2026-08-28T19:08:54Z</time>
  <course>269.96</course>
  <speed>0.0</speed>
  <fix>3d</fix>
</trkpt>
<trkpt lat="40.072842" lon="-105.2305752">
  <ele>1586.16</ele>
  <time>2026-08-28T19:08:54Z</time>
  <course>11.34</course>
  <speed>0.0</speed>
  <fix>3d</fix>
</trkpt>
<trkpt lat="40.072842" lon="-105.2305753">
  <ele>1586.09</ele>
  <time>2026-08-28T19:08:54Z</time>
  <course>275.73</course>
  <speed>0.0</speed>
  <fix>3d</fix>
</trkpt>
<trkpt lat="40.072842" lon="-105.2305752">
  <ele>1586.16</ele>
  <time>2026-08-28T19:08:54Z</time>
  <course>11.34</course>
  <speed>0.0</speed>
  <fix>3d</fix>
</trkpt>
<trkpt lat="40.072842" lon="-105.2305753">
  <ele>1586.09</ele>
  <time>2026-08-28T19:08:54Z</time>
  <course>275.21</course>
  <speed>0.0</speed>
  <fix>3d</fix>
</trkpt>
<trkpt lat="40.072842" lon="-105.2305752">
  <ele>1586.16</ele>
  <time>2026-08-28T19:08:54Z</time>
  <course>11.34</course>
  <speed>0.0</speed>
  <fix>3d</fix>
</trkpt>
<trkpt lat="40.072842" lon="-105.2305753">
  <ele>1586.09</ele>
  <time>2026-08-28T19:08:54Z</time>
  <course>270.19</course>
  <speed>0.0</speed>
  <fix>3d</fix>
</trkpt>
<trkpt lat="40.072842" lon="-105.2305752">
  <ele>1586.16</ele>
  <time>2026-08-28T19:08:54Z</time>
  <course>11.34</course>
  <speed>0.0</speed>
  <fix>3d</fix>
</trkpt>
<trkpt lat="40.072842" lon="-105.2305753">
  <ele>1586.09</ele>
  <time>2026-08-28T19:08:54Z</time>
  <course>269.29</course>
  <speed>0.0</speed>
  <fix>3d</fix>
</trkpt>
<trkpt lat="40.072842" lon="-105.2305752">
  <ele>1586.16</ele>
  <time>2026-08-28T19:08:54Z</time>
  <course>11.35</course>
  <speed>0.0</speed>
  <fix>3d</fix>
</trkpt>
<trkpt lat="40.072842" lon="-105.2305753">
  <ele>1586.09</ele>
  <time>2026-08-28T19:08:54Z</time>
  <course>269.25</course>
  <speed>0.0</speed>
  <fix>3d</fix>
</trkpt>
<trkpt lat="40.072842" lon="-105.2305752">
  <ele>1586.16</ele>
  <time>2026-08-28T19:08:54Z</time>
  <course>11.36</course>
  <speed>0.0</speed>
  <fix>3d</fix>
</trkpt>
<trkpt lat="40.072842" lon="-105.2305753">
  <ele>1586.09</ele>
  <time>2026-08-28T19:08:54Z</time>
  <course>270.93</course>
  <speed>0.0</speed>
  <fix>3d</fix>
</trkpt>
<trkpt lat="40.072842" lon="-105.2305752">
  <ele>1586.16</ele>
  <time>2026-08-28T19:08:54Z</time>
  <course>11.37</course>
  <speed>0.0</speed>
  <fix>3d</fix>
</trkpt>
<trkpt lat="40.072842" lon="-105.2305753">
  <ele>1586.09</ele>
  <time>2026-08-28T19:08:54Z</time>
  <course>275.39</course>
  <speed>0.0</speed>
  <fix>3d</fix>
</trkpt>
<trkpt lat="40.072842" lon="-105.2305752">
  <ele>1586.16</ele>
  <time>2026-08-28T19:08:54Z</time>
  <course>11.39</course>
  <speed>0.0</speed>
  <fix>3d</fix>
</trkpt>
<trkpt lat="40.072842" lon="-105.2305753">
  <ele>1586.09</ele>
  <time>2026-08-28T19:08:54Z</time>
  <course>277.79</course>
  <speed>0.0</speed>
  <fix>3d</fix>
</trkpt>
<trkpt lat="40.072842" lon="-105.2305752">
  <ele>1586.16</ele>
  <time>2026-08-28T19:08:54Z</time>
  <course>11.41</course>
  <speed>0.0</speed>
  <fix>3d</fix>
</trkpt>
<trkpt lat="40.072842" lon="-105.2305753">
  <ele>1586.09</ele>
  <time>2026-08-28T19:08:54Z</time>
  <course>271.81</course>
  <speed>0.0</speed>
  <fix>3d</fix>
</trkpt>
<trkpt lat="40.072842" lon="-105.2305752">
  <ele>1586.17</ele>
  <time>2026-08-28T19:08:54Z</time>
  <course>11.44</course>
  <speed>0.0</speed>
  <fix>3d</fix>
</trkpt>
<trkpt lat="40.072842" lon="-105.2305753">
  <ele>1586.09</ele>
  <time>2026-08-28T19:08:54Z</time>
  <course>269.02</course>
  <speed>0.0</speed>
  <fix>3d</fix>
</trkpt>
<trkpt lat="40.072842" lon="-105.2305752">
  <ele>1586.17</ele>
  <time>2026-08-28T19:08:54Z</time>
  <course>11.47</course>
  <speed>0.0</speed>
  <fix>3d</fix>
</trkpt>
<trkpt lat="40.072842" lon="-105.2305753">
  <ele>1586.09</ele>
  <time>2026-08-28T19:08:54Z</time>
  <course>272.19</course>
  <speed>0.0</speed>
  <fix>3d</fix>
</trkpt>
<trkpt lat="40.072842" lon="-105.2305752">
  <ele>1586.17</ele>
  <time>2026-08-28T19:08:54Z</time>
  <course>11.51</course>
  <speed>0.01</speed>
  <fix>3d</fix>
</trkpt>
<trkpt lat="40.072842" lon="-105.2305753">
  <ele>1586.09</ele>
  <time>2026-08-28T19:08:54Z</time>
  <course>273.35</course>
  <speed>0.0</speed>
  <fix>3d</fix>
</trkpt>
<trkpt lat="40.072842" lon="-105.2305752">
  <ele>1586.17</ele>
  <time>2026-08-28T19:08:54Z</time>
  <course>11.56</course>
  <speed>0.01</speed>
  <fix>3d</fix>
</trkpt>
<trkpt lat="40.072842" lon="-105.2305753">
  <ele>1586.09</ele>
  <time>2026-08-28T19:08:54Z</time>
  <course>278.58</course>
  <speed>0.0</speed>
  <fix>3d</fix>
</trkpt>
<trkpt lat="40.072842" lon="-105.2305752">
  <ele>1586.18</ele>
  <time>2026-08-28T19:08:54Z</time>
  <course>11.62</course>
  <speed>0.01</speed>
  <fix>3d</fix>
</trkpt>
<trkpt lat="40.072842" lon="-105.2305753">
  <ele>1586.09</ele>
  <time>2026-08-28T19:08:54Z</time>
  <course>278.58</course>
  <speed>0.0</speed>
  <fix>3d</fix>
</trkpt>
<trkpt lat="40.072842" lon="-105.2305752">
  <ele>1586.18</ele>
  <time>2026-08-28T19:08:54Z</time>
  <course>11.68</course>
  <speed>0.01</speed>
  <fix>3d</fix>
</trkpt>
<trkpt lat="40.072842" lon="-105.2305753">
  <ele>1586.09</ele>
  <time>2026-08-28T19:08:54Z</time>
  <course>267.26</course>
  <speed>0.0</speed>
  <fix>3d</fix>
</trkpt>
<trkpt lat="40.072842" lon="-105.2305752">
  <ele>1586.18</ele>
  <time>2026-08-28T19:08:54Z</time>
  <course>11.75</course>
  <speed>0.01414213562373095</speed>
  <fix>3d</fix>
</trkpt>
<trkpt lat="40.072842" lon="-105.2305753">
  <ele>1586.09</ele>
  <time>2026-08-28T19:08:54Z</time>
  <course>265.26</course>
  <speed>0.0</speed>
  <fix>3d</fix>
</trkpt>
<trkpt lat="40.072842" lon="-105.2305752">
  <ele>1586.18</ele>
  <time>2026-08-28T19:08:54Z</time>
  <course>11.83</course>
  <speed>0.01414213562373095</speed>
  <fix>3d</fix>
</trkpt>
<trkpt lat="40.072842" lon="-105.2305753">
  <ele>1586.09</ele>
  <time>2026-08-28T19:08:54Z</time>
  <course>275.55</course>
  <speed>0.0</speed>
  <fix>3d</fix>
</trkpt>
<trkpt lat="40.072842" lon="-105.2305752">
  <ele>1586.18</ele>
  <time>2026-08-28T19:08:54Z</time>
  <course>11.92</course>
  <speed>0.01414213562373095</speed>
  <fix>3d</fix>
</trkpt>
<trkpt lat="40.072842" lon="-105.2305753">
  <ele>1586.09</ele>
  <time>2026-08-28T19:08:54Z</time>
  <course>277.09</course>
  <speed>0.0</speed>
  <fix>3d</fix>
</trkpt>
<trkpt lat="40.072842" lon="-105.2305752">
  <ele>1586.18</ele>
  <time>2026-08-28T19:08:54Z</time>
  <course>12.01</course>
  <speed>0.01414213562373095</speed>
  <fix>3d</fix>
</trkpt>
<trkpt lat="40.072842" lon="-105.2305753">
  <ele>1586.09</ele>
  <time>2026-08-28T19:08:54Z</time>
  <course>279.67</course>
  <speed>0.0</speed>
  <fix>3d</fix>
</trkpt>
<trkpt lat="40.072842" lon="-105.2305752">
  <ele>1586.18</ele>
  <time>2026-08-28T19:08:54Z</time>
  <course>12.12</course>
  <speed>0.01414213562373095</speed>
  <fix>3d</fix>
</trkpt>
<trkpt lat="40.072842" lon="-105.2305753">
  <ele>1586.09</ele>
  <time>2026-08-28T19:08:54Z</time>
  <course>280.93</course>
  <speed>0.0</speed>
  <fix>3d</fix>
</trkpt>
<trkpt lat="40.072842" lon="-105.2305752">
  <ele>1586.18</ele>
  <time>2026-08-28T19:08:54Z</time>
  <course>12.22</course>
  <speed>0.01414213562373095</speed>
  <fix>3d</fix>
</trkpt>
<trkpt lat="40.072842" lon="-105.2305753">
  <ele>1586.09</ele>
  <time>2026-08-28T19:08:54Z</time>
  <course>277.56</course>
  <speed>0.0</speed>
  <fix>3d</fix>
</trkpt>
<trkpt lat="40.072842" lon="-105.2305752">
  <ele>1586.18</ele>
  <time>2026-08-28T19:08:54Z</time>
  <course>12.34</course>
  <speed>0.01414213562373095</speed>
  <fix>3d</fix>
</trkpt>
<trkpt lat="40.072842" lon="-105.2305753">
  <ele>1586.09</ele>
  <time>2026-08-28T19:08:54Z</time>
  <course>277.47</course>
  <speed>0.0</speed>
  <fix>3d</fix>
</trkpt>
<trkpt lat="40.0728419" lon="-105.2305752">
  <ele>1586.17</ele>
  <time>2026-08-28T19:08:54Z</time>
  <course>12.46</course>
  <speed>0.01414213562373095</speed>
  <fix>3d</fix>
</trkpt>
<trkpt lat="40.072842" lon="-105.2305753">
  <ele>1586.09</ele>
  <time>2026-08-28T19:08:54Z</time>
  <course>276.99</course>
  <speed>0.0</speed>
  <fix>3d</fix>
</trkpt>
<trkpt lat="40.0728419" lon="-105.2305752">
  <ele>1586.17</ele>
  <time>2026-08-28T19:08:54Z</time>
  <course>12.59</course>
  <speed>0.022360679774997897</speed>
  <fix>3d</fix>
</trkpt>
<trkpt lat="40.072842" lon="-105.2305753">
  <ele>1586.09</ele>
  <time>2026-08-28T19:08:54Z</time>
  <course>276.59</course>
  <speed>0.0</speed>
  <fix>3d</fix>
</trkpt>
<trkpt lat="40.0728419" lon="-105.2305752">
  <ele>1586.17</ele>
  <time>2026-08-28T19:08:54Z</time>
  <course>12.72</course>
  <speed>0.022360679774997897</speed>
  <fix>3d</fix>
</trkpt>
<trkpt lat="40.072842" lon="-105.2305753">
  <ele>1586.09</ele>
  <time>2026-08-28T19:08:54Z</time>
  <course>283.44</course>
  <speed>0.0</speed>
  <fix>3d</fix>
</trkpt>
<trkpt lat="40.0728419" lon="-105.2305752">
  <ele>1586.17</ele>
  <time>2026-08-28T19:08:54Z</time>
  <course>12.86</course>
  <speed>0.022360679774997897</speed>
  <fix>3d</fix>
</trkpt>
<trkpt lat="40.072842" lon="-105.2305753">
  <ele>1586.09</ele>
  <time>2026-08-28T19:08:54Z</time>
  <course>284.69</course>
  <speed>0.0</speed>
  <fix>3d</fix>
</trkpt>
<trkpt lat="40.0728419" lon="-105.2305752">
  <ele>1586.17</ele>
  <time>2026-08-28T19:08:54Z</time>
  <course>13.0</course>
  <speed>0.022360679774997897</speed>
  <fix>3d</fix>
</trkpt>
<trkpt lat="40.072842" lon="-105.2305753">
  <ele>1586.09</ele>
  <time>2026-08-28T19:08:54Z</time>
  <course>279.6</course>
  <speed>0.0</speed>
  <fix>3d</fix>
</trkpt>
<trkpt lat="40.0728419" lon="-105.2305752">
  <ele>1586.17</ele>
  <time>2026-08-28T19:08:54Z</time>
  <course>13.14</course>
  <speed>0.022360679774997897</speed>
  <fix>3d</fix>
</trkpt>
<trkpt lat="40.072842" lon="-105.2305753">
  <ele>1586.09</ele>
  <time>2026-08-28T19:08:54Z</time>
  <course>278.38</course>
  <speed>0.0</speed>
  <fix>3d</fix>
</trkpt>
<trkpt lat="40.0728419" lon="-105.2305752">
  <ele>1586.17</ele>
  <time>2026-08-28T19:08:54Z</time>
  <course>13.29</course>
  <speed>0.022360679774997897</speed>
  <fix>3d</fix>
</trkpt>
<trkpt lat="40.072842" lon="-105.2305753">
  <ele>1586.09</ele>
  <time>2026-08-28T19:08:54Z</time>
  <course>278.66</course>
  <speed>0.0</speed>
  <fix>3d</fix>
</trkpt>
<trkpt lat="40.0728419" lon="-105.2305752">
  <ele>1586.18</ele>
  <time>2026-08-28T19:08:54Z</time>
  <course>13.45</course>
  <speed>0.022360679774997897</speed>
  <fix>3d</fix>
</trkpt>
<trkpt lat="40.072842" lon="-105.2305753">
  <ele>1586.09</ele>
  <time>2026-08-28T19:08:54Z</time>
  <course>281.12</course>
  <speed>0.0</speed>
  <fix>3d</fix>
</trkpt>
<trkpt lat="40.0728419" lon="-105.2305752">
  <ele>1586.18</ele>
  <time>2026-08-28T19:08:54Z</time>
  <course>13.6</course>
  <speed>0.022360679774997897</speed>
  <fix>3d</fix>
</trkpt>
<trkpt lat="40.072842" lon="-105.2305753">
  <ele>1586.09</ele>
  <time>2026-08-28T19:08:54Z</time>
  <course>287.26</course>
  <speed>0.0</speed>
  <fix>3d</fix>
</trkpt>
<trkpt lat="40.0728419" lon="-105.2305752">
  <ele>1586.18</ele>
  <time>2026-08-28T19:08:54Z</time>
  <course>13.76</course>
  <speed>0.022360679774997897</speed>
  <fix>3d</fix>
</trkpt>
<trkpt lat="40.072842" lon="-105.2305753">
  <ele>1586.09</ele>
  <time>2026-08-28T19:08:54Z</time>
  <course>288.04</course>
  <speed>0.0</speed>
  <fix>3d</fix>
</trkpt>
<trkpt lat="40.0728419" lon="-105.2305752">
  <ele>1586.18</ele>
  <time>2026-08-28T19:08:54Z</time>
  <course>13.91</course>
  <speed>0.022360679774997897</speed>
  <fix>3d</fix>
</trkpt>
<trkpt lat="40.072842" lon="-105.2305753">
  <ele>1586.09</ele>
  <time>2026-08-28T19:08:54Z</time>
  <course>282.91</course>
  <speed>0.0</speed>
  <fix>3d</fix>
</trkpt>
<trkpt lat="40.0728419" lon="-105.2305752">
  <ele>1586.18</ele>
  <time>2026-08-28T19:08:54Z</time>
  <course>14.07</course>
  <speed>0.022360679774997897</speed>
  <fix>3d</fix>
</trkpt>
<trkpt lat="40.072842" lon="-105.2305753">
  <ele>1586.09</ele>
  <time>2026-08-28T19:08:54Z</time>
  <course>280.07</course>
  <speed>0.0</speed>
  <fix>3d</fix>
</trkpt>
<trkpt lat="40.0728419" lon="-105.2305752">
  <ele>1586.18</ele>
  <time>2026-08-28T19:08:54Z</time>
  <course>14.23</course>
  <speed>0.022360679774997897</speed>
  <fix>3d</fix>
</trkpt>
<trkpt lat="40.072842" lon="-105.2305753">
  <ele>1586.09</ele>
  <time>2026-08-28T19:08:54Z</time>
  <course>281.07</course>
  <speed>0.0</speed>
  <fix>3d</fix>
</trkpt>
<trkpt lat="40.0728419" lon="-105.2305752">
  <ele>1586.18</ele>
  <time>2026-08-28T19:08:54Z</time>
  <course>14.38</course>
  <speed>0.022360679774997897</speed>
  <fix>3d</fix>
</trkpt>
<trkpt lat="40.072842" lon="-105.2305753">
  <ele>1586.09</ele>
  <time>2026-08-28T19:08:54Z</time>
  <course>283.38</course>
  <speed>0.0</speed>
  <fix>3d</fix>
</trkpt>
<trkpt lat="40.0728419" lon="-105.2305752">
  <ele>1586.18</ele>
  <time>2026-08-28T19:08:54Z</time>
  <course>14.53</course>
  <speed>0.022360679774997897</speed>
  <fix>3d</fix>
</trkpt>
<trkpt lat="40.072842" lon="-105.2305753">
  <ele>1586.09</ele>
  <time>2026-08-28T19:08:54Z</time>
  <course>282.91</course>
  <speed>0.0</speed>
  <fix>3d</fix>
</trkpt>
<trkpt lat="40.0728419" lon="-105.2305752">
  <ele>1586.18</ele>
  <time>2026-08-28T19:08:54Z</time>
  <course>14.68</course>
  <speed>0.022360679774997897</speed>
  <fix>3d</fix>
</trkpt>
<trkpt lat="40.072842" lon="-105.2305753">
  <ele>1586.09</ele>
  <time>2026-08-28T19:08:54Z</time>
  <course>284.1</course>
  <speed>0.0</speed>
  <fix>3d</fix>
</trkpt>
<trkpt lat="40.0728419" lon="-105.2305752">
  <ele>1586.18</ele>
  <time>2026-08-28T19:08:54Z</time>
  <course>14.82</course>
  <speed>0.022360679774997897</speed>
  <fix>3d</fix>
</trkpt>
<trkpt lat="40.072842" lon="-105.2305753">
  <ele>1586.09</ele>
  <time>2026-08-28T19:08:54Z</time>
  <course>286.48</course>
  <speed>0.0</speed>
  <fix>3d</fix>
</trkpt>
<trkpt lat="40.0728419" lon="-105.2305752">
  <ele>1586.18</ele>
  <time>2026-08-28T19:08:54Z</time>
  <course>14.96</course>
  <speed>0.022360679774997897</speed>
  <fix>3d</fix>
</trkpt>
<trkpt lat="40.072842" lon="-105.2305753">
  <ele>1586.09</ele>
  <time>2026-08-28T19:08:54Z</time>
  <course>283.06</course>
  <speed>0.0</speed>
  <fix>3d</fix>
</trkpt>
<trkpt lat="40.0728419" lon="-105.2305752">
  <ele>1586.18</ele>
  <time>2026-08-28T19:08:54Z</time>
  <course>15.1</course>
  <speed>0.022360679774997897</speed>
  <fix>3d</fix>
</trkpt>
<trkpt lat="40.072842" lon="-105.2305753">
  <ele>1586.09</ele>
  <time>2026-08-28T19:08:54Z</time>
  <course>280.15</course>
  <speed>0.0</speed>
  <fix>3d</fix>
</trkpt>
<trkpt lat="40.0728419" lon="-105.2305752">
  <ele>1586.18</ele>
  <time>2026-08-28T19:08:54Z</time>
  <course>15.23</course>
  <speed>0.022360679774997897</speed>
  <fix>3d</fix>
</trkpt>
<trkpt lat="40.072842" lon="-105.2305753">
  <ele>1586.09</ele>
  <time>2026-08-28T19:08:54Z</time>
  <course>278.4</course>
  <speed>0.0</speed>
  <fix>3d</fix>
</trkpt>
<trkpt lat="40.0728419" lon="-105.2305752">
  <ele>1586.18</ele>
  <time>2026-08-28T19:08:54Z</time>
  <course>15.36</course>
  <speed>0.022360679774997897</speed>
  <fix>3d</fix>
</trkpt>
<trkpt lat="40.072842" lon="-105.2305753">
  <ele>1586.09</ele>
  <time>2026-08-28T19:08:54Z</time>
  <course>275.04</course>
  <speed>0.0</speed>
  <fix>3d</fix>
</trkpt>
<trkpt lat="40.0728419" lon="-105.2305752">
  <ele>1586.18</ele>
  <time>2026-08-28T19:08:54Z</time>
  <course>15.49</course>
  <speed>0.022360679774997897</speed>
  <fix>3d</fix>
</trkpt>
<trkpt lat="40.072842" lon="-105.2305753">
  <ele>1586.09</ele>
  <time>2026-08-28T19:08:54Z</time>
  <course>279.83</course>
  <speed>0.0</speed>
  <fix>3d</fix>
</trkpt>
<trkpt lat="40.0728419" lon="-105.2305752">
  <ele>1586.18</ele>
  <time>2026-08-28T19:08:54Z</time>
  <course>15.62</course>
  <speed>0.022360679774997897</speed>
  <fix>3d</fix>
</trkpt>
<trkpt lat="40.072842" lon="-105.2305753">
  <ele>1586.09</ele>
  <time>2026-08-28T19:08:54Z</time>
  <course>283.8</course>
  <speed>0.0</speed>
  <fix>3d</fix>
</trkpt>
<trkpt lat="40.0728419" lon="-105.2305752">
  <ele>1586.18</ele>
  <time>2026-08-28T19:08:54Z</time>
  <course>15.74</course>
  <speed>0.022360679774997897</speed>
  <fix>3d</fix>
</trkpt>
<trkpt lat="40.072842" lon="-105.2305753">
  <ele>1586.09</ele>
  <time>2026-08-28T19:08:54Z</time>
  <course>280.72</course>
  <speed>0.0</speed>
  <fix>3d</fix>
</trkpt>
<trkpt lat="40.0728419" lon="-105.2305752">
  <ele>1586.18</ele>
  <time>2026-08-28T19:08:54Z</time>
  <course>15.86</course>
  <speed>0.022360679774997897</speed>
  <fix>3d</fix>
</trkpt>
<trkpt lat="40.072842" lon="-105.2305753">
  <ele>1586.09</ele>
  <time>2026-08-28T19:08:54Z</time>
  <course>284.28</course>
  <speed>0.0</speed>
  <fix>3d</fix>
</trkpt>
<trkpt lat="40.0728419" lon="-105.2305752">
  <ele>1586.18</ele>
  <time>2026-08-28T19:08:54Z</time>
  <course>15.97</course>
  <speed>0.022360679774997897</speed>
  <fix>3d</fix>
</trkpt>
<trkpt lat="40.072842" lon="-105.2305753">
  <ele>1586.09</ele>
  <time>2026-08-28T19:08:54Z</time>
  <course>287.58</course>
  <speed>0.0</speed>
  <fix>3d</fix>
</trkpt>
<trkpt lat="40.0728419" lon="-105.2305752">
  <ele>1586.18</ele>
  <time>2026-08-28T19:08:54Z</time>
  <course>16.08</course>
  <speed>0.022360679774997897</speed>
  <fix>3d</fix>
</trkpt>
<trkpt lat="40.072842" lon="-105.2305753">
  <ele>1586.09</ele>
  <time>2026-08-28T19:08:54Z</time>
  <course>282.72</course>
  <speed>0.0</speed>
  <fix>3d</fix>
</trkpt>
<trkpt lat="40.0728419" lon="-105.2305752">
  <ele>1586.18</ele>
  <time>2026-08-28T19:08:54Z</time>
  <course>16.19</course>
  <speed>0.022360679774997897</speed>
  <fix>3d</fix>
</trkpt>
<trkpt lat="40.072842" lon="-105.2305753">
  <ele>1586.09</ele>
  <time>2026-08-28T19:08:55Z</time>
  <course>281.2</course>
  <speed>0.0</speed>
  <fix>3d</fix>
</trkpt>
<trkpt lat="40.0728419" lon="-105.2305752">
  <ele>1586.18</ele>
  <time>2026-08-28T19:08:55Z</time>
  <course>16.29</course>
  <speed>0.022360679774997897</speed>
  <fix>3d</fix>
</trkpt>
<trkpt lat="40.072842" lon="-105.2305753">
  <ele>1586.09</ele>
  <time>2026-08-28T19:08:55Z</time>
  <course>282.02</course>
  <speed>0.0</speed>
  <fix>3d</fix>
</trkpt>
<trkpt lat="40.0728419" lon="-105.2305752">
  <ele>1586.17</ele>
  <time>2026-08-28T19:08:55Z</time>
  <course>16.39</course>
  <speed>0.022360679774997897</speed>
  <fix>3d</fix>
</trkpt>
<trkpt lat="40.072842" lon="-105.2305753">
  <ele>1586.09</ele>
  <time>2026-08-28T19:08:55Z</time>
  <course>282.03</course>
  <speed>0.0</speed>
  <fix>3d</fix>
</trkpt>
<trkpt lat="40.0728419" lon="-105.2305752">
  <ele>1586.17</ele>
  <time>2026-08-28T19:08:55Z</time>
  <course>16.49</course>
  <speed>0.022360679774997897</speed>
  <fix>3d</fix>
</trkpt>
<trkpt lat="40.072842" lon="-105.2305753">
  <ele>1586.09</ele>
  <time>2026-08-28T19:08:55Z</time>
  <course>282.34</course>
  <speed>0.0</speed>
  <fix>3d</fix>
</trkpt>
<trkpt lat="40.0728419" lon="-105.2305752">
  <ele>1586.17</ele>
  <time>2026-08-28T19:08:55Z</time>
  <course>16.58</course>
  <speed>0.022360679774997897</speed>
  <fix>3d</fix>
</trkpt>
<trkpt lat="40.072842" lon="-105.2305753">
  <ele>1586.09</ele>
  <time>2026-08-28T19:08:55Z</time>
  <course>280.57</course>
  <speed>0.0</speed>
  <fix>3d</fix>
</trkpt>
<trkpt lat="40.0728419" lon="-105.2305752">
  <ele>1586.17</ele>
  <time>2026-08-28T19:08:55Z</time>
  <course>16.68</course>
  <speed>0.022360679774997897</speed>
  <fix>3d</fix>
</trkpt>
<trkpt lat="40.072842" lon="-105.2305753">
  <ele>1586.09</ele>
  <time>2026-08-28T19:08:55Z</time>
  <course>279.97</course>
  <speed>0.0</speed>
  <fix>3d</fix>
</trkpt>
<trkpt lat="40.0728419" lon="-105.2305752">
  <ele>1586.17</ele>
  <time>2026-08-28T19:08:55Z</time>
  <course>16.76</course>
  <speed>0.022360679774997897</speed>
  <fix>3d</fix>
</trkpt>
<trkpt lat="40.072842" lon="-105.2305753">
  <ele>1586.09</ele>
  <time>2026-08-28T19:08:55Z</time>
  <course>281.9</course>
  <speed>0.0</speed>
  <fix>3d</fix>
</trkpt>
<trkpt lat="40.0728419" lon="-105.2305752">
  <ele>1586.18</ele>
  <time>2026-08-28T19:08:55Z</time>
  <course>16.85</course>
  <speed>0.022360679774997897</speed>
  <fix>3d</fix>
</trkpt>
<trkpt lat="40.072842" lon="-105.2305753">
  <ele>1586.09</ele>
  <time>2026-08-28T19:08:55Z</time>
  <course>285.3</course>
  <speed>0.0</speed>
  <fix>3d</fix>
</trkpt>
<trkpt lat="40.0728419" lon="-105.2305752">
  <ele>1586.18</ele>
  <time>2026-08-28T19:08:55Z</time>
  <course>16.93</course>
  <speed>0.022360679774997897</speed>
  <fix>3d</fix>
</trkpt>
<trkpt lat="40.072842" lon="-105.2305753">
  <ele>1586.09</ele>
  <time>2026-08-28T19:08:55Z</time>
  <course>287.03</course>
  <speed>0.0</speed>
  <fix>3d</fix>
</trkpt>
<trkpt lat="40.0728419" lon="-105.2305752">
  <ele>1586.18</ele>
  <time>2026-08-28T19:08:55Z</time>
  <course>17.01</course>
  <speed>0.022360679774997897</speed>
  <fix>3d</fix>
</trkpt>
<trkpt lat="40.072842" lon="-105.2305753">
  <ele>1586.09</ele>
  <time>2026-08-28T19:08:55Z</time>
  <course>282.95</course>
  <speed>0.0</speed>
  <fix>3d</fix>
</trkpt>
<trkpt lat="40.0728419" lon="-105.2305752">
  <ele>1586.18</ele>
  <time>2026-08-28T19:08:55Z</time>
  <course>17.09</course>
  <speed>0.022360679774997897</speed>
  <fix>3d</fix>
</trkpt>
<trkpt lat="40.072842" lon="-105.2305753">
  <ele>1586.09</ele>
  <time>2026-08-28T19:08:55Z</time>
  <course>280.28</course>
  <speed>0.0</speed>
  <fix>3d</fix>
</trkpt>
<trkpt lat="40.0728419" lon="-105.2305752">
  <ele>1586.18</ele>
  <time>2026-08-28T19:08:55Z</time>
  <course>17.16</course>
  <speed>0.022360679774997897</speed>
  <fix>3d</fix>
</trkpt>
<trkpt lat="40.072842" lon="-105.2305753">
  <ele>1586.09</ele>
  <time>2026-08-28T19:08:55Z</time>
  <course>281.49</course>
  <speed>0.0</speed>
  <fix>3d</fix>
</trkpt>
<trkpt lat="40.0728419" lon="-105.2305752">
  <ele>1586.18</ele>
  <time>2026-08-28T19:08:55Z</time>
  <course>17.24</course>
  <speed>0.022360679774997897</speed>
  <fix>3d</fix>
</trkpt>
<trkpt lat="40.072842" lon="-105.2305753">
  <ele>1586.09</ele>
  <time>2026-08-28T19:08:55Z</time>
  <course>279.83</course>
  <speed>0.0</speed>
  <fix>3d</fix>
</trkpt>
<trkpt lat="40.0728419" lon="-105.2305752">
  <ele>1586.18</ele>
  <time>2026-08-28T19:08:55Z</time>
  <course>17.3</course>
  <speed>0.022360679774997897</speed>
  <fix>3d</fix>
</trkpt>
<trkpt lat="40.072842" lon="-105.2305753">
  <ele>1586.09</ele>
  <time>2026-08-28T19:08:55Z</time>
  <course>279.2</course>
  <speed>0.0</speed>
  <fix>3d</fix>
</trkpt>
<trkpt lat="40.0728419" lon="-105.2305752">
  <ele>1586.19</ele>
  <time>2026-08-28T19:08:55Z</time>
  <course>17.37</course>
  <speed>0.022360679774997897</speed>
  <fix>3d</fix>
</trkpt>
<trkpt lat="40.072842" lon="-105.2305753">
  <ele>1586.09</ele>
  <time>2026-08-28T19:08:55Z</time>
  <course>281.15</course>
  <speed>0.0</speed>
  <fix>3d</fix>
</trkpt>
<trkpt lat="40.0728419" lon="-105.2305752">
  <ele>1586.19</ele>
  <time>2026-08-28T19:08:55Z</time>
  <course>17.43</course>
  <speed>0.022360679774997897</speed>
  <fix>3d</fix>
</trkpt>
<trkpt lat="40.072842" lon="-105.2305753">
  <ele>1586.09</ele>
  <time>2026-08-28T19:08:55Z</time>
  <course>281.21</course>
  <speed>0.0</speed>
  <fix>3d</fix>
</trkpt>
<trkpt lat="40.0728419" lon="-105.2305752">
  <ele>1586.19</ele>
  <time>2026-08-28T19:08:55Z</time>
  <course>17.49</course>
  <speed>0.022360679774997897</speed>
  <fix>3d</fix>
</trkpt>
<trkpt lat="40.072842" lon="-105.2305753">
  <ele>1586.09</ele>
  <time>2026-08-28T19:08:55Z</time>
  <course>280.8</course>
  <speed>0.0</speed>
  <fix>3d</fix>
</trkpt>
<trkpt lat="40.0728419" lon="-105.2305752">
  <ele>1586.19</ele>
  <time>2026-08-28T19:08:55Z</time>
  <course>17.55</course>
  <speed>0.022360679774997897</speed>
  <fix>3d</fix>
</trkpt>
<trkpt lat="40.072842" lon="-105.2305753">
  <ele>1586.09</ele>
  <time>2026-08-28T19:08:55Z</time>
  <course>280.72</course>
  <speed>0.0</speed>
  <fix>3d</fix>
</trkpt>
<trkpt lat="40.0728419" lon="-105.2305752">
  <ele>1586.19</ele>
  <time>2026-08-28T19:08:55Z</time>
  <course>17.61</course>
  <speed>0.022360679774997897</speed>
  <fix>3d</fix>
</trkpt>
<trkpt lat="40.072842" lon="-105.2305753">
  <ele>1586.09</ele>
  <time>2026-08-28T19:08:55Z</time>
  <course>280.67</course>
  <speed>0.0</speed>
  <fix>3d</fix>
</trkpt>
<trkpt lat="40.0728419" lon="-105.2305752">
  <ele>1586.19</ele>
  <time>2026-08-28T19:08:55Z</time>
  <course>17.66</course>
  <speed>0.022360679774997897</speed>
  <fix>3d</fix>
</trkpt>
<trkpt lat="40.072842" lon="-105.2305753">
  <ele>1586.09</ele>
  <time>2026-08-28T19:08:55Z</time>
  <course>285.5</course>
  <speed>0.0</speed>
  <fix>3d</fix>
</trkpt>
<trkpt lat="40.0728419" lon="-105.2305752">
  <ele>1586.18</ele>
  <time>2026-08-28T19:08:55Z</time>
  <course>17.71</course>
  <speed>0.022360679774997897</speed>
  <fix>3d</fix>
</trkpt>
<trkpt lat="40.072842" lon="-105.2305753">
  <ele>1586.09</ele>
  <time>2026-08-28T19:08:55Z</time>
  <course>287.18</course>
  <speed>0.0</speed>
  <fix>3d</fix>
</trkpt>
<trkpt lat="40.0728419" lon="-105.2305752">
  <ele>1586.18</ele>
  <time>2026-08-28T19:08:55Z</time>
  <course>17.76</course>
  <speed>0.022360679774997897</speed>
  <fix>3d</fix>
</trkpt>
<trkpt lat="40.072842" lon="-105.2305753">
  <ele>1586.09</ele>
  <time>2026-08-28T19:08:55Z</time>
  <course>280.4</course>
  <speed>0.0</speed>
  <fix>3d</fix>
</trkpt>
<trkpt lat="40.0728419" lon="-105.2305752">
  <ele>1586.18</ele>
  <time>2026-08-28T19:08:55Z</time>
  <course>17.8</course>
  <speed>0.022360679774997897</speed>
  <fix>3d</fix>
</trkpt>
<trkpt lat="40.072842" lon="-105.2305753">
  <ele>1586.09</ele>
  <time>2026-08-28T19:08:55Z</time>
  <course>277.8</course>
  <speed>0.0</speed>
  <fix>3d</fix>
</trkpt>
<trkpt lat="40.0728419" lon="-105.2305752">
  <ele>1586.18</ele>
  <time>2026-08-28T19:08:55Z</time>
  <course>17.85</course>
  <speed>0.022360679774997897</speed>
  <fix>3d</fix>
</trkpt>
<trkpt lat="40.072842" lon="-105.2305753">
  <ele>1586.09</ele>
  <time>2026-08-28T19:08:55Z</time>
  <course>273.63</course>
  <speed>0.0</speed>
  <fix>3d</fix>
</trkpt>
<trkpt lat="40.0728419" lon="-105.2305752">
  <ele>1586.18</ele>
  <time>2026-08-28T19:08:55Z</time>
  <course>17.89</course>
  <speed>0.022360679774997897</speed>
  <fix>3d</fix>
</trkpt>
<trkpt lat="40.072842" lon="-105.2305753">
  <ele>1586.09</ele>
  <time>2026-08-28T19:08:55Z</time>
  <course>272.54</course>
  <speed>0.0</speed>
  <fix>3d</fix>
</trkpt>
<trkpt lat="40.0728419" lon="-105.2305752">
  <ele>1586.18</ele>
  <time>2026-08-28T19:08:55Z</time>
  <course>17.92</course>
  <speed>0.022360679774997897</speed>
  <fix>3d</fix>
</trkpt>
<trkpt lat="40.072842" lon="-105.2305753">
  <ele>1586.09</ele>
  <time>2026-08-28T19:08:55Z</time>
  <course>279.69</course>
  <speed>0.0</speed>
  <fix>3d</fix>
</trkpt>
<trkpt lat="40.0728419" lon="-105.2305752">
  <ele>1586.18</ele>
  <time>2026-08-28T19:08:55Z</time>
  <course>17.96</course>
  <speed>0.022360679774997897</speed>
  <fix>3d</fix>
</trkpt>
<trkpt lat="40.072842" lon="-105.2305753">
  <ele>1586.09</ele>
  <time>2026-08-28T19:08:55Z</time>
  <course>280.84</course>
  <speed>0.0</speed>
  <fix>3d</fix>
</trkpt>
<trkpt lat="40.0728419" lon="-105.2305752">
  <ele>1586.18</ele>
  <time>2026-08-28T19:08:55Z</time>
  <course>17.99</course>
  <speed>0.022360679774997897</speed>
  <fix>3d</fix>
</trkpt>
<trkpt lat="40.072842" lon="-105.2305753">
  <ele>1586.09</ele>
  <time>2026-08-28T19:08:55Z</time>
  <course>279.56</course>
  <speed>0.0</speed>
  <fix>3d</fix>
</trkpt>
<trkpt lat="40.0728419" lon="-105.2305752">
  <ele>1586.18</ele>
  <time>2026-08-28T19:08:55Z</time>
  <course>18.02</course>
  <speed>0.022360679774997897</speed>
  <fix>3d</fix>
</trkpt>
<trkpt lat="40.072842" lon="-105.2305753">
  <ele>1586.09</ele>
  <time>2026-08-28T19:08:55Z</time>
  <course>279.43</course>
  <speed>0.0</speed>
  <fix>3d</fix>
</trkpt>
<trkpt lat="40.0728419" lon="-105.2305752">
  <ele>1586.19</ele>
  <time>2026-08-28T19:08:55Z</time>
  <course>18.05</course>
  <speed>0.022360679774997897</speed>
  <fix>3d</fix>
</trkpt>
<trkpt lat="40.072842" lon="-105.2305753">
  <ele>1586.09</ele>
  <time>2026-08-28T19:08:55Z</time>
  <course>279.48</course>
  <speed>0.0</speed>
  <fix>3d</fix>
</trkpt>
<trkpt lat="40.0728419" lon="-105.2305752">
  <ele>1586.19</ele>
  <time>2026-08-28T19:08:55Z</time>
  <course>18.08</course>
  <speed>0.022360679774997897</speed>
  <fix>3d</fix>
</trkpt>
<trkpt lat="40.072842" lon="-105.2305753">
  <ele>1586.09</ele>
  <time>2026-08-28T19:08:55Z</time>
  <course>278.52</course>
  <speed>0.0</speed>
  <fix>3d</fix>
</trkpt>
<trkpt lat="40.0728419" lon="-105.2305752">
  <ele>1586.19</ele>
  <time>2026-08-28T19:08:55Z</time>
  <course>18.1</course>
  <speed>0.022360679774997897</speed>
  <fix>3d</fix>
</trkpt>
<trkpt lat="40.072842" lon="-105.2305753">
  <ele>1586.09</ele>
  <time>2026-08-28T19:08:55Z</time>
  <course>277.66</course>
  <speed>0.0</speed>
  <fix>3d</fix>
</trkpt>
<trkpt lat="40.0728419" lon="-105.2305752">
  <ele>1586.19</ele>
  <time>2026-08-28T19:08:55Z</time>
  <course>18.12</course>
  <speed>0.022360679774997897</speed>
  <fix>3d</fix>
</trkpt>
<trkpt lat="40.072842" lon="-105.2305753">
  <ele>1586.09</ele>
  <time>2026-08-28T19:08:55Z</time>
  <course>278.47</course>
  <speed>0.0</speed>
  <fix>3d</fix>
</trkpt>
<trkpt lat="40.0728419" lon="-105.2305752">
  <ele>1586.19</ele>
  <time>2026-08-28T19:08:55Z</time>
  <course>18.14</course>
  <speed>0.022360679774997897</speed>
  <fix>3d</fix>
</trkpt>
<trkpt lat="40.072842" lon="-105.2305753">
  <ele>1586.09</ele>
  <time>2026-08-28T19:08:55Z</time>
  <course>283.51</course>
  <speed>0.0</speed>
  <fix>3d</fix>
</trkpt>
<trkpt lat="40.0728419" lon="-105.2305752">
  <ele>1586.19</ele>
  <time>2026-08-28T19:08:55Z</time>
  <course>18.16</course>
  <speed>0.022360679774997897</speed>
  <fix>3d</fix>
</trkpt>
<trkpt lat="40.072842" lon="-105.2305753">
  <ele>1586.09</ele>
  <time>2026-08-28T19:08:55Z</time>
  <course>285.09</course>
  <speed>0.0</speed>
  <fix>3d</fix>
</trkpt>
<trkpt lat="40.0728419" lon="-105.2305752">
  <ele>1586.19</ele>
  <time>2026-08-28T19:08:55Z</time>
  <course>18.17</course>
  <speed>0.022360679774997897</speed>
  <fix>3d</fix>
</trkpt>
<trkpt lat="40.072842" lon="-105.2305753">
  <ele>1586.09</ele>
  <time>2026-08-28T19:08:55Z</time>
  <course>280.28</course>
  <speed>0.0</speed>
  <fix>3d</fix>
</trkpt>
<trkpt lat="40.0728419" lon="-105.2305752">
  <ele>1586.19</ele>
  <time>2026-08-28T19:08:55Z</time>
  <course>18.18</course>
  <speed>0.022360679774997897</speed>
  <fix>3d</fix>
</trkpt>
<trkpt lat="40.072842" lon="-105.2305753">
  <ele>1586.09</ele>
  <time>2026-08-28T19:08:55Z</time>
  <course>277.64</course>
  <speed>0.0</speed>
  <fix>3d</fix>
</trkpt>
<trkpt lat="40.0728419" lon="-105.2305752">
  <ele>1586.19</ele>
  <time>2026-08-28T19:08:55Z</time>
  <course>18.19</course>
  <speed>0.022360679774997897</speed>
  <fix>3d</fix>
</trkpt>
<trkpt lat="40.072842" lon="-105.2305753">
  <ele>1586.09</ele>
  <time>2026-08-28T19:08:55Z</time>
  <course>278.63</course>
  <speed>0.0</speed>
  <fix>3d</fix>
</trkpt>
<trkpt lat="40.0728419" lon="-105.2305752">
  <ele>1586.19</ele>
  <time>2026-08-28T19:08:55Z</time>
  <course>18.2</course>
  <speed>0.022360679774997897</speed>
  <fix>3d</fix>
</trkpt>
<trkpt lat="40.072842" lon="-105.2305753">
  <ele>1586.09</ele>
  <time>2026-08-28T19:08:55Z</time>
  <course>278.73</course>
  <speed>0.0</speed>
  <fix>3d</fix>
</trkpt>
<trkpt lat="40.0728419" lon="-105.2305752">
  <ele>1586.19</ele>
  <time>2026-08-28T19:08:55Z</time>
  <course>18.21</course>
  <speed>0.022360679774997897</speed>
  <fix>3d</fix>
</trkpt>
<trkpt lat="40.072842" lon="-105.2305753">
  <ele>1586.09</ele>
  <time>2026-08-28T19:08:55Z</time>
  <course>278.44</course>
  <speed>0.0</speed>
  <fix>3d</fix>
</trkpt>
<trkpt lat="40.0728419" lon="-105.2305752">
  <ele>1586.18</ele>
  <time>2026-08-28T19:08:55Z</time>
  <course>18.21</course>
  <speed>0.022360679774997897</speed>
  <fix>3d</fix>
</trkpt>
<trkpt lat="40.072842" lon="-105.2305753">
  <ele>1586.09</ele>
  <time>2026-08-28T19:08:55Z</time>
  <course>278.88</course>
  <speed>0.0</speed>
  <fix>3d</fix>
</trkpt>
<trkpt lat="40.0728419" lon="-105.2305752">
  <ele>1586.18</ele>
  <time>2026-08-28T19:08:55Z</time>
  <course>18.21</course>
  <speed>0.022360679774997897</speed>
  <fix>3d</fix>
</trkpt>
<trkpt lat="40.072842" lon="-105.2305753">
  <ele>1586.09</ele>
  <time>2026-08-28T19:08:55Z</time>
  <course>277.47</course>
  <speed>0.0</speed>
  <fix>3d</fix>
</trkpt>
<trkpt lat="40.0728419" lon="-105.2305752">
  <ele>1586.18</ele>
  <time>2026-08-28T19:08:55Z</time>
  <course>18.21</course>
  <speed>0.022360679774997897</speed>
  <fix>3d</fix>
</trkpt>
<trkpt lat="40.072842" lon="-105.2305753">
  <ele>1586.09</ele>
  <time>2026-08-28T19:08:55Z</time>
  <course>276.68</course>
  <speed>0.0</speed>
  <fix>3d</fix>
</trkpt>
<trkpt lat="40.0728419" lon="-105.2305752">
  <ele>1586.18</ele>
  <time>2026-08-28T19:08:55Z</time>
  <course>18.21</course>
  <speed>0.022360679774997897</speed>
  <fix>3d</fix>
</trkpt>
<trkpt lat="40.072842" lon="-105.2305753">
  <ele>1586.09</ele>
  <time>2026-08-28T19:08:55Z</time>
  <course>278.08</course>
  <speed>0.0</speed>
  <fix>3d</fix>
</trkpt>
<trkpt lat="40.0728419" lon="-105.2305752">
  <ele>1586.18</ele>
  <time>2026-08-28T19:08:55Z</time>
  <course>18.2</course>
  <speed>0.022360679774997897</speed>
  <fix>3d</fix>
</trkpt>
<trkpt lat="40.072842" lon="-105.2305753">
  <ele>1586.09</ele>
  <time>2026-08-28T19:08:55Z</time>
  <course>278.01</course>
  <speed>0.0</speed>
  <fix>3d</fix>
</trkpt>
<trkpt lat="40.0728419" lon="-105.2305752">
  <ele>1586.18</ele>
  <time>2026-08-28T19:08:55Z</time>
  <course>18.2</course>
  <speed>0.022360679774997897</speed>
  <fix>3d</fix>
</trkpt>
<trkpt lat="40.072842" lon="-105.2305753">
  <ele>1586.09</ele>
  <time>2026-08-28T19:08:55Z</time>
  <course>277.67</course>
  <speed>0.0</speed>
  <fix>3d</fix>
</trkpt>
<trkpt lat="40.0728419" lon="-105.2305752">
  <ele>1586.18</ele>
  <time>2026-08-28T19:08:55Z</time>
  <course>18.19</course>
  <speed>0.022360679774997897</speed>
  <fix>3d</fix>
</trkpt>
<trkpt lat="40.072842" lon="-105.2305753">
  <ele>1586.09</ele>
  <time>2026-08-28T19:08:55Z</time>
  <course>277.56</course>
  <speed>0.0</speed>
  <fix>3d</fix>
</trkpt>
<trkpt lat="40.0728419" lon="-105.2305752">
  <ele>1586.18</ele>
  <time>2026-08-28T19:08:55Z</time>
  <course>18.18</course>
  <speed>0.022360679774997897</speed>
  <fix>3d</fix>
</trkpt>
<trkpt lat="40.072842" lon="-105.2305753">
  <ele>1586.09</ele>
  <time>2026-08-28T19:08:55Z</time>
  <course>277.46</course>
  <speed>0.0</speed>
  <fix>3d</fix>
</trkpt>
<trkpt lat="40.0728419" lon="-105.2305752">
  <ele>1586.17</ele>
  <time>2026-08-28T19:08:55Z</time>
  <course>18.16</course>
  <speed>0.022360679774997897</speed>
  <fix>3d</fix>
</trkpt>
<trkpt lat="40.072842" lon="-105.2305753">
  <ele>1586.09</ele>
  <time>2026-08-28T19:08:55Z</time>
  <course>277.33</course>
  <speed>0.0</speed>
  <fix>3d</fix>
</trkpt>
<trkpt lat="40.0728419" lon="-105.2305752">
  <ele>1586.17</ele>
  <time>2026-08-28T19:08:55Z</time>
  <course>18.15</course>
  <speed>0.022360679774997897</speed>
  <fix>3d</fix>
</trkpt>
<trkpt lat="40.072842" lon="-105.2305753">
  <ele>1586.09</ele>
  <time>2026-08-28T19:08:55Z</time>
  <course>282.79</course>
  <speed>0.0</speed>
  <fix>3d</fix>
</trkpt>
<trkpt lat="40.0728419" lon="-105.2305752">
  <ele>1586.18</ele>
  <time>2026-08-28T19:08:55Z</time>
  <course>18.08</course>
  <speed>0.022360679774997897</speed>
  <fix>3d</fix>
</trkpt>
<trkpt lat="40.072842" lon="-105.2305753">
  <ele>1586.09</ele>
  <time>2026-08-28T19:08:55Z</time>
  <course>281.22</course>
  <speed>0.0</speed>
  <fix>3d</fix>
</trkpt>
<trkpt lat="40.0728419" lon="-105.2305752">
  <ele>1586.24</ele>
  <time>2026-08-28T19:08:55Z</time>
  <course>17.87</course>
  <speed>0.022360679774997897</speed>
  <fix>3d</fix>
</trkpt>
<trkpt lat="40.072842" lon="-105.2305753">
  <ele>1586.12</ele>
  <time>2026-08-28T19:08:55Z</time>
  <course>279.31</course>
  <speed>0.0</speed>
  <fix>3d</fix>
</trkpt>
<trkpt lat="40.0728419" lon="-105.2305752">
  <ele>1586.28</ele>
  <time>2026-08-28T19:08:55Z</time>
  <course>17.61</course>
  <speed>0.022360679774997897</speed>
  <fix>3d</fix>
</trkpt>
<trkpt lat="40.072842" lon="-105.2305753">
  <ele>1586.16</ele>
  <time>2026-08-28T19:08:55Z</time>
  <course>5.63</course>
  <speed>0.0</speed>
  <fix>3d</fix>
</trkpt>
<trkpt lat="40.0728419" lon="-105.2305752">
  <ele>1586.31</ele>
  <time>2026-08-28T19:08:55Z</time>
  <course>13.51</course>
  <speed>0.01</speed>
  <fix>3d</fix>
</trkpt>
<trkpt lat="40.072842" lon="-105.2305753">
  <ele>1586.2</ele>
  <time>2026-08-28T19:08:55Z</time>
  <course>33.56</course>
  <speed>0.0</speed>
  <fix>3d</fix>
</trkpt>
<trkpt lat="40.0728419" lon="-105.2305752">
  <ele>1586.32</ele>
  <time>2026-08-28T19:08:55Z</time>
  <course>10.26</course>
  <speed>0.01</speed>
  <fix>3d</fix>
</trkpt>
<trkpt lat="40.0728419" lon="-105.2305753">
  <ele>1586.52</ele>
  <time>2026-08-28T19:08:55Z</time>
  <course>1.96</course>
  <speed>0.0854400374531753</speed>
  <fix>3d</fix>
</trkpt>
<trkpt lat="40.072842" lon="-105.2305754">
  <ele>1586.28</ele>
  <time>2026-08-28T19:08:55Z</time>
  <course>291.54</course>
  <speed>0.03</speed>
  <fix>3d</fix>
</trkpt>
<trkpt lat="40.0728419" lon="-105.2305753">
  <ele>1586.57</ele>
  <time>2026-08-28T19:08:55Z</time>
  <course>1.11</course>
  <speed>0.09848857801796104</speed>
  <fix>3d</fix>
</trkpt>
<trkpt lat="40.072842" lon="-105.2305756">
  <ele>1586.9</ele>
  <time>2026-08-28T19:08:55Z</time>
  <course>356.91</course>
  <speed>0.1708800749063506</speed>
  <fix>3d</fix>
</trkpt>
<trkpt lat="40.072842" lon="-105.2305756">
  <ele>1586.51</ele>
  <time>2026-08-28T19:08:55Z</time>
  <course>289.29</course>
  <speed>0.12</speed>
  <fix>3d</fix>
</trkpt>
<trkpt lat="40.072842" lon="-105.2305757">
  <ele>1586.96</ele>
  <time>2026-08-28T19:08:55Z</time>
  <course>356.34</course>
  <speed>0.1708800749063506</speed>
  <fix>3d</fix>
</trkpt>
<trkpt lat="40.0728421" lon="-105.2305761">
  <ele>1587.31</ele>
  <time>2026-08-28T19:08:55Z</time>
  <course>353.28</course>
  <speed>0.208806130178211</speed>
  <fix>3d</fix>
</trkpt>
<trkpt lat="40.0728421" lon="-105.2305759">
  <ele>1586.88</ele>
  <time>2026-08-28T19:08:55Z</time>
  <course>286.18</course>
  <speed>0.19</speed>
  <fix>3d</fix>
</trkpt>
<trkpt lat="40.0728421" lon="-105.2305761">
  <ele>1587.33</ele>
  <time>2026-08-28T19:08:55Z</time>
  <course>353.15</course>
  <speed>0.208806130178211</speed>
  <fix>3d</fix>
</trkpt>
<trkpt lat="40.0728422" lon="-105.2305766">
  <ele>1587.76</ele>
  <time>2026-08-28T19:08:55Z</time>
  <course>350.4</course>
  <speed>0.23345235059857505</speed>
  <fix>3d</fix>
</trkpt>
<trkpt lat="40.0728422" lon="-105.2305764">
  <ele>1587.29</ele>
  <time>2026-08-28T19:08:55Z</time>
  <course>281.53</course>
  <speed>0.23</speed>
  <fix>3d</fix>
</trkpt>
<trkpt lat="40.0728422" lon="-105.2305767">
  <ele>1587.83</ele>
  <time>2026-08-28T19:08:55Z</time>
  <course>350.05</course>
  <speed>0.24331050121192876</speed>
  <fix>3d</fix>
</trkpt>
<trkpt lat="40.0728423" lon="-105.2305773">
  <ele>1588.25</ele>
  <time>2026-08-28T19:08:55Z</time>
  <course>348.04</course>
  <speed>0.260768096208106</speed>
  <fix>3d</fix>
</trkpt>
<trkpt lat="40.0728423" lon="-105.230577">
  <ele>1587.74</ele>
  <time>2026-08-28T19:08:55Z</time>
  <course>276.04</course>
  <speed>0.26</speed>
  <fix>3d</fix>
</trkpt>
<trkpt lat="40.0728423" lon="-105.2305774">
  <ele>1588.33</ele>
  <time>2026-08-28T19:08:55Z</time>
  <course>347.72</course>
  <speed>0.27018512172212594</speed>
  <fix>3d</fix>
</trkpt>
<trkpt lat="40.0728423" lon="-105.230578">
  <ele>1588.78</ele>
  <time>2026-08-28T19:08:55Z</time>
  <course>346.08</course>
  <speed>0.29017236257093815</speed>
  <fix>3d</fix>
</trkpt>
<trkpt lat="40.0728423" lon="-105.2305777">
  <ele>1588.22</ele>
  <time>2026-08-28T19:08:55Z</time>
  <course>270.02</course>
  <speed>0.28</speed>
  <fix>3d</fix>
</trkpt>
<trkpt lat="40.0728423" lon="-105.2305781">
  <ele>1588.85</ele>
  <time>2026-08-28T19:08:55Z</time>
  <course>345.84</course>
  <speed>0.29017236257093815</speed>
  <fix>3d</fix>
</trkpt>
<trkpt lat="40.0728422" lon="-105.2305787">
  <ele>1589.33</ele>
  <time>2026-08-28T19:08:55Z</time>
  <course>341.93</course>
  <speed>0.31400636936215165</speed>
  <fix>3d</fix>
</trkpt>
<trkpt lat="40.0728423" lon="-105.2305783">
  <ele>1588.73</ele>
  <time>2026-08-28T19:08:55Z</time>
  <course>263.54</course>
  <speed>0.3</speed>
  <fix>3d</fix>
</trkpt>
<trkpt lat="40.0728422" lon="-105.2305789">
  <ele>1589.42</ele>
  <time>2026-08-28T19:08:55Z</time>
  <course>341.71</course>
  <speed>0.31575306807693887</speed>
  <fix>3d</fix>
</trkpt>
<trkpt lat="40.0728421" lon="-105.2305795">
  <ele>1589.91</ele>
  <time>2026-08-28T19:08:55Z</time>
  <course>340.2</course>
  <speed>0.3352610922848042</speed>
  <fix>3d</fix>
</trkpt>
<trkpt lat="40.0728422" lon="-105.2305791">
  <ele>1589.28</ele>
  <time>2026-08-28T19:08:55Z</time>
  <course>256.9</course>
  <speed>0.32</speed>
  <fix>3d</fix>
</trkpt>
<trkpt lat="40.0728421" lon="-105.2305795">
  <ele>1589.91</ele>
  <time>2026-08-28T19:08:55Z</time>
  <course>340.18</course>
  <speed>0.3352610922848042</speed>
  <fix>3d</fix>
</trkpt>
<trkpt lat="40.0728419" lon="-105.2305803">
  <ele>1590.5</ele>
  <time>2026-08-28T19:08:55Z</time>
  <course>339.16</course>
  <speed>0.3624913792078372</speed>
  <fix>3d</fix>
</trkpt>
<trkpt lat="40.0728421" lon="-105.2305798">
  <ele>1589.86</ele>
  <time>2026-08-28T19:08:55Z</time>
  <course>250.28</course>
  <speed>0.34</speed>
  <fix>3d</fix>
</trkpt>
<trkpt lat="40.0728419" lon="-105.2305804">
  <ele>1590.59</ele>
  <time>2026-08-28T19:08:55Z</time>
  <course>339.03</course>
  <speed>0.3624913792078372</speed>
  <fix>3d</fix>
</trkpt>
<trkpt lat="40.0728416" lon="-105.2305811">
  <ele>1591.12</ele>
  <time>2026-08-28T19:08:55Z</time>
  <course>338.4</course>
  <speed>0.38078865529319544</speed>
  <fix>3d</fix>
</trkpt>
<trkpt lat="40.0728418" lon="-105.2305806">
  <ele>1590.45</ele>
  <time>2026-08-28T19:08:55Z</time>
  <course>243.83</course>
  <speed>0.35</speed>
  <fix>3d</fix>
</trkpt>
<trkpt lat="40.0728415" lon="-105.2305812">
  <ele>1591.22</ele>
  <time>2026-08-28T19:08:55Z</time>
  <course>338.29</course>
  <speed>0.3858756276314948</speed>
  <fix>3d</fix>
</trkpt>
<trkpt lat="40.0728412" lon="-105.2305819">
  <ele>1591.76</ele>
  <time>2026-08-28T19:08:55Z</time>
  <course>337.74</course>
  <speed>0.4080441152620633</speed>
  <fix>3d</fix>
</trkpt>
<trkpt lat="40.0728415" lon="-105.2305813">
  <ele>1591.07</ele>
  <time>2026-08-28T19:08:55Z</time>
  <course>237.76</course>
  <speed>0.37</speed>
  <fix>3d</fix>
</trkpt>
<trkpt lat="40.0728411" lon="-105.2305819">
  <ele>1591.84</ele>
  <time>2026-08-28T19:08:55Z</time>
  <course>337.67</course>
  <speed>0.41400483088968904</speed>
  <fix>3d</fix>
</trkpt>
<trkpt lat="40.0728407" lon="-105.2305826">
  <ele>1592.41</ele>
  <time>2026-08-28T19:08:55Z</time>
  <course>337.24</course>
  <speed>0.43185645763378366</speed>
  <fix>3d</fix>
</trkpt>
<trkpt lat="40.0728411" lon="-105.230582">
  <ele>1591.71</ele>
  <time>2026-08-28T19:08:55Z</time>
  <course>231.98</course>
  <speed>0.39</speed>
  <fix>3d</fix>
</trkpt>
<trkpt lat="40.0728406" lon="-105.2305828">
  <ele>1592.57</ele>
  <time>2026-08-28T19:08:55Z</time>
  <course>337.15</course>
  <speed>0.4386342439892262</speed>
  <fix>3d</fix>
</trkpt>
<trkpt lat="40.0728402" lon="-105.2305833">
  <ele>1593.08</ele>
  <time>2026-08-28T19:08:55Z</time>
  <course>336.9</course>
  <speed>0.46010868281309364</speed>
  <fix>3d</fix>
</trkpt>
<trkpt lat="40.0728406" lon="-105.2305828">
  <ele>1592.36</ele>
  <time>2026-08-28T19:08:55Z</time>
  <course>226.5</course>
  <speed>0.42</speed>
  <fix>3d</fix>
</trkpt>
<trkpt lat="40.0728402" lon="-105.2305833">
  <ele>1593.09</ele>
  <time>2026-08-28T19:08:55Z</time>
  <course>336.9</course>
  <speed>0.46010868281309364</speed>
  <fix>3d</fix>
</trkpt>
<trkpt lat="40.0728395" lon="-105.230584">
  <ele>1593.76</ele>
  <time>2026-08-28T19:08:55Z</time>
  <course>336.7</course>
  <speed>0.4780167361086848</speed>
  <fix>3d</fix>
</trkpt>
<trkpt lat="40.07284" lon="-105.2305835">
  <ele>1593.03</ele>
  <time>2026-08-28T19:08:55Z</time>
  <course>221.41</course>
  <speed>0.44</speed>
  <fix>3d</fix>
</trkpt>
<trkpt lat="40.0728394" lon="-105.2305841">
  <ele>1593.89</ele>
  <time>2026-08-28T19:08:55Z</time>
  <course>336.68</course>
  <speed>0.4860041152089147</speed>
  <fix>3d</fix>
</trkpt>
<trkpt lat="40.0728388" lon="-105.2305847">
  <ele>1594.46</ele>
  <time>2026-08-28T19:08:55Z</time>
  <course>336.65</course>
  <speed>0.5047771785649585</speed>
  <fix>3d</fix>
</trkpt>
<trkpt lat="40.0728394" lon="-105.2305842">
  <ele>1593.71</ele>
  <time>2026-08-28T19:08:55Z</time>
  <course>216.64</course>
  <speed>0.46</speed>
  <fix>3d</fix>
</trkpt>
<trkpt lat="40.0728387" lon="-105.2305848">
  <ele>1594.56</ele>
  <time>2026-08-28T19:08:55Z</time>
  <course>336.65</course>
  <speed>0.5077400909914441</speed>
  <fix>3d</fix>
</trkpt>
<trkpt lat="40.0728381" lon="-105.2305853">
  <ele>1595.17</ele>
  <time>2026-08-28T19:08:55Z</time>
  <course>336.7</course>
  <speed>0.5283937925449163</speed>
  <fix>3d</fix>
</trkpt>
<trkpt lat="40.0728387" lon="-105.2305848">
  <ele>1594.4</ele>
  <time>2026-08-28T19:08:55Z</time>
  <course>212.23</course>
  <speed>0.48</speed>
  <fix>3d</fix>
</trkpt>
<trkpt lat="40.072838" lon="-105.2305854">
  <ele>1595.26</ele>
  <time>2026-08-28T19:08:55Z</time>
  <course>336.72</course>
  <speed>0.5323532661682466</speed>
  <fix>3d</fix>
</trkpt>
<trkpt lat="40.0728373" lon="-105.2305858">
  <ele>1595.86</ele>
  <time>2026-08-28T19:08:55Z</time>
  <course>338.43</course>
  <speed>0.5547071299343466</speed>
  <fix>3d</fix>
</trkpt>
<trkpt lat="40.072838" lon="-105.2305854">
  <ele>1595.1</ele>
  <time>2026-08-28T19:08:55Z</time>
  <course>208.42</course>
  <speed>0.51</speed>
  <fix>3d</fix>
</trkpt>
<trkpt lat="40.0728364" lon="-105.2305865">
  <ele>1596.42</ele>
  <time>2026-08-28T19:08:55Z</time>
  <course>344.18</course>
  <speed>0.5818075283115542</speed>
  <fix>3d</fix>
</trkpt>
<trkpt lat="40.0728371" lon="-105.2305859">
  <ele>1595.77</ele>
  <time>2026-08-28T19:08:55Z</time>
  <course>207.13</course>
  <speed>0.54</speed>
  <fix>3d</fix>
</trkpt>
<trkpt lat="40.0728355" lon="-105.2305871">
  <ele>1596.84</ele>
  <time>2026-08-28T19:08:55Z</time>
  <course>350.68</course>
  <speed>0.6003332407921453</speed>
  <fix>3d</fix>
</trkpt>
<trkpt lat="40.0728362" lon="-105.2305866">
  <ele>1596.31</ele>
  <time>2026-08-28T19:08:55Z</time>
  <course>207.99</course>
  <speed>0.57</speed>
  <fix>3d</fix>
</trkpt>
<trkpt lat="40.0728346" lon="-105.2305878">
  <ele>1597.15</ele>
  <time>2026-08-28T19:08:55Z</time>
  <course>356.73</course>
  <speed>0.6003332407921453</speed>
  <fix>3d</fix>
</trkpt>
<trkpt lat="40.0728352" lon="-105.2305872">
  <ele>1596.71</ele>
  <time>2026-08-28T19:08:55Z</time>
  <course>209.1</course>
  <speed>0.59</speed>
  <fix>3d</fix>
</trkpt>
<trkpt lat="40.0728337" lon="-105.2305884">
  <ele>1597.39</ele>
  <time>2026-08-28T19:08:55Z</time>
  <course>0.1</course>
  <speed>0.5507267925205745</speed>
  <fix>3d</fix>
</trkpt>
<trkpt lat="40.0728343" lon="-105.2305879">
  <ele>1597.0</ele>
  <time>2026-08-28T19:08:55Z</time>
  <course>209.92</course>
  <speed>0.59</speed>
  <fix>3d</fix>
</trkpt>
<trkpt lat="40.0728329" lon="-105.230589">
  <ele>1597.61</ele>
  <time>2026-08-28T19:08:55Z</time>
  <course>1.92</course>
  <speed>0.46529560496527367</speed>
  <fix>3d</fix>
</trkpt>
<trkpt lat="40.0728335" lon="-105.2305886">
  <ele>1597.24</ele>
  <time>2026-08-28T19:08:55Z</time>
  <course>210.61</course>
  <speed>0.54</speed>
  <fix>3d</fix>
</trkpt>
<trkpt lat="40.0728322" lon="-105.2305895">
  <ele>1597.82</ele>
  <time>2026-08-28T19:08:55Z</time>
  <course>3.33</course>
  <speed>0.3721558813185679</speed>
  <fix>3d</fix>
</trkpt>
<trkpt lat="40.0728327" lon="-105.2305892">
  <ele>1597.45</ele>
  <time>2026-08-28T19:08:55Z</time>
  <course>212.71</course>
  <speed>0.46</speed>
  <fix>3d</fix>
</trkpt>
<trkpt lat="40.0728317" lon="-105.23059">
  <ele>1598.0</ele>
  <time>2026-08-28T19:08:55Z</time>
  <course>4.83</course>
  <speed>0.29410882339705485</speed>
  <fix>3d</fix>
</trkpt>
<trkpt lat="40.072832" lon="-105.2305898">
  <ele>1597.65</ele>
  <time>2026-08-28T19:08:55Z</time>
  <course>217.48</course>
  <speed>0.38</speed>
  <fix>3d</fix>
</trkpt>
<trkpt lat="40.0728313" lon="-105.2305905">
  <ele>1598.12</ele>
  <time>2026-08-28T19:08:55Z</time>
  <course>6.39</course>
  <speed>0.24041630560342614</speed>
  <fix>3d</fix>
</trkpt>
<trkpt lat="40.0728316" lon="-105.2305904">
  <ele>1597.82</ele>
  <time>2026-08-28T19:08:55Z</time>
  <course>225.14</course>
  <speed>0.31</speed>
  <fix>3d</fix>
</trkpt>
<trkpt lat="40.0728311" lon="-105.230591">
  <ele>1598.18</ele>
  <time>2026-08-28T19:08:55Z</time>
  <course>7.88</course>
  <speed>0.18867962264113206</speed>
  <fix>3d</fix>
</trkpt>
<trkpt lat="40.0728312" lon="-105.2305909">
  <ele>1597.92</ele>
  <time>2026-08-28T19:08:55Z</time>
  <course>235.29</course>
  <speed>0.26</speed>
  <fix>3d</fix>
</trkpt>
<trkpt lat="40.072831" lon="-105.2305914">
  <ele>1598.18</ele>
  <time>2026-08-28T19:08:55Z</time>
  <course>9.12</course>
  <speed>0.14560219778561037</speed>
  <fix>3d</fix>
</trkpt>
<trkpt lat="40.072831" lon="-105.2305914">
  <ele>1597.98</ele>
  <time>2026-08-28T19:08:55Z</time>
  <course>247.72</course>
  <speed>0.22</speed>
  <fix>3d</fix>
</trkpt>
<trkpt lat="40.0728309" lon="-105.2305919">
  <ele>1598.12</ele>
  <time>2026-08-28T19:08:55Z</time>
  <course>10.05</course>
  <speed>0.12</speed>
  <fix>3d</fix>
</trkpt>
<trkpt lat="40.0728309" lon="-105.2305918">
  <ele>1597.97</ele>
  <time>2026-08-28T19:08:55Z</time>
  <course>262.94</course>
  <speed>0.18</speed>
  <fix>3d</fix>
</trkpt>
<trkpt lat="40.072831" lon="-105.2305922">
  <ele>1598.02</ele>
  <time>2026-08-28T19:08:55Z</time>
  <course>10.64</course>
  <speed>0.10295630140987001</speed>
  <fix>3d</fix>
</trkpt>
<trkpt lat="40.0728309" lon="-105.2305923">
  <ele>1597.9</ele>
  <time>2026-08-28T19:08:55Z</time>
  <course>281.54</course>
  <speed>0.16</speed>
  <fix>3d</fix>
</trkpt>
<trkpt lat="40.0728311" lon="-105.2305925">
  <ele>1597.89</ele>
  <time>2026-08-28T19:08:55Z</time>
  <course>10.92</course>
  <speed>0.10295630140987001</speed>
  <fix>3d</fix>
</trkpt>
<trkpt lat="40.072831" lon="-105.2305926">
  <ele>1597.79</ele>
  <time>2026-08-28T19:08:55Z</time>
  <course>303.15</course>
  <speed>0.14</speed>
  <fix>3d</fix>
</trkpt>
<trkpt lat="40.0728313" lon="-105.2305927">
  <ele>1597.75</ele>
  <time>2026-08-28T19:08:55Z</time>
  <course>10.99</course>
  <speed>0.11045361017187261</speed>
  <fix>3d</fix>
</trkpt>
<trkpt lat="40.0728311" lon="-105.2305928">
  <ele>1597.66</ele>
  <time>2026-08-28T19:08:55Z</time>
  <course>325.32</course>
  <speed>0.14</speed>
  <fix>3d</fix>
</trkpt>
<trkpt lat="40.0728315" lon="-105.2305927">
  <ele>1597.61</ele>
  <time>2026-08-28T19:08:55Z</time>
  <course>10.89</course>
  <speed>0.13152946437965907</speed>
  <fix>3d</fix>
</trkpt>
<trkpt lat="40.0728314" lon="-105.2305929">
  <ele>1597.53</ele>
  <time>2026-08-28T19:08:55Z</time>
  <course>345.23</course>
  <speed>0.14</speed>
  <fix>3d</fix>
</trkpt>
<trkpt lat="40.0728318" lon="-105.2305927">
  <ele>1597.48</ele>
  <time>2026-08-28T19:08:55Z</time>
  <course>10.78</course>
  <speed>0.1392838827718412</speed>
  <fix>3d</fix>
</trkpt>
<trkpt lat="40.0728316" lon="-105.230593">
  <ele>1597.38</ele>
  <time>2026-08-28T19:08:55Z</time>
  <course>1.73</course>
  <speed>0.15</speed>
  <fix>3d</fix>
</trkpt>
<trkpt lat="40.072832" lon="-105.2305926">
  <ele>1597.35</ele>
  <time>2026-08-28T19:08:55Z</time>
  <course>10.72</course>
  <speed>0.14422205101855956</speed>
  <fix>3d</fix>
</trkpt>
<trkpt lat="40.0728319" lon="-105.230593">
  <ele>1597.25</ele>
  <time>2026-08-28T19:08:55Z</time>
  <course>15.25</course>
  <speed>0.16</speed>
  <fix>3d</fix>
</trkpt>
<trkpt lat="40.0728323" lon="-105.2305925">
  <ele>1597.22</ele>
  <time>2026-08-28T19:08:55Z</time>
  <course>10.62</course>
  <speed>0.16278820596099705</speed>
  <fix>3d</fix>
</trkpt>
<trkpt lat="40.0728322" lon="-105.2305929">
  <ele>1597.12</ele>
  <time>2026-08-28T19:08:55Z</time>
  <course>27.09</course>
  <speed>0.16</speed>
  <fix>3d</fix>
</trkpt>
<trkpt lat="40.0728325" lon="-105.2305923">
  <ele>1597.1</ele>
  <time>2026-08-28T19:08:55Z</time>
  <course>10.42</course>
  <speed>0.194164878389476</speed>
  <fix>3d</fix>
</trkpt>
<trkpt lat="40.0728324" lon="-105.2305926">
  <ele>1597.01</ele>
  <time>2026-08-28T19:08:55Z</time>
  <course>38.7</course>
  <speed>0.18</speed>
  <fix>3d</fix>
</trkpt>
<trkpt lat="40.0728328" lon="-105.2305919">
  <ele>1596.99</ele>
  <time>2026-08-28T19:08:55Z</time>
  <course>10.06</course>
  <speed>0.2641968962724581</speed>
  <fix>3d</fix>
</trkpt>
<trkpt lat="40.0728327" lon="-105.2305923">
  <ele>1596.89</ele>
  <time>2026-08-28T19:08:55Z</time>
  <course>48.99</course>
  <speed>0.21</speed>
  <fix>3d</fix>
</trkpt>
<trkpt lat="40.0728331" lon="-105.2305913">
  <ele>1596.9</ele>
  <time>2026-08-28T19:08:55Z</time>
  <course>9.56</course>
  <speed>0.3671511950137164</speed>
  <fix>3d</fix>
</trkpt>
<trkpt lat="40.072833" lon="-105.2305918">
  <ele>1596.79</ele>
  <time>2026-08-28T19:08:55Z</time>
  <course>55.0</course>
  <speed>0.29</speed>
  <fix>3d</fix>
</trkpt>
<trkpt lat="40.0728335" lon="-105.2305904">
  <ele>1596.84</ele>
  <time>2026-08-28T19:08:55Z</time>
  <course>8.99</course>
  <speed>0.4973932046178355</speed>
  <fix>3d</fix>
</trkpt>
<trkpt lat="40.0728333" lon="-105.2305912">
  <ele>1596.71</ele>
  <time>2026-08-28T19:08:55Z</time>
  <course>56.82</course>
  <speed>0.39</speed>
  <fix>3d</fix>
</trkpt>
<trkpt lat="40.0728341" lon="-105.2305893">
  <ele>1596.8</ele>
  <time>2026-08-28T19:08:55Z</time>
  <course>8.92</course>
  <speed>0.6381222453417527</speed>
  <fix>3d</fix>
</trkpt>
<trkpt lat="40.0728338" lon="-105.2305903">
  <ele>1596.65</ele>
  <time>2026-08-28T19:08:55Z</time>
  <course>56.4</course>
  <speed>0.52</speed>
  <fix>3d</fix>
</trkpt>
<trkpt lat="40.0728348" lon="-105.2305879">
  <ele>1596.78</ele>
  <time>2026-08-28T19:08:55Z</time>
  <course>8.47</course>
  <speed>0.7655063683601856</speed>
  <fix>3d</fix>
</trkpt>
<trkpt lat="40.0728344" lon="-105.2305891">
  <ele>1596.62</ele>
  <time>2026-08-28T19:08:55Z</time>
  <course>55.16</course>
  <speed>0.66</speed>
  <fix>3d</fix>
</trkpt>
<trkpt lat="40.0728357" lon="-105.2305864">
  <ele>1596.79</ele>
  <time>2026-08-28T19:08:55Z</time>
  <course>8.25</course>
  <speed>0.8544588931013593</speed>
  <fix>3d</fix>
</trkpt>
<trkpt lat="40.0728351" lon="-105.2305877">
  <ele>1596.61</ele>
  <time>2026-08-28T19:08:55Z</time>
  <course>53.85</course>
  <speed>0.78</speed>
  <fix>3d</fix>
</trkpt>
<trkpt lat="40.0728366" lon="-105.2305848">
  <ele>1596.81</ele>
  <time>2026-08-28T19:08:55Z</time>
  <course>8.27</course>
  <speed>0.8940357934669059</speed>
  <fix>3d</fix>
</trkpt>
<trkpt lat="40.072836" lon="-105.2305862">
  <ele>1596.62</ele>
  <time>2026-08-28T19:08:55Z</time>
  <course>52.71</course>
  <speed>0.86</speed>
  <fix>3d</fix>
</trkpt>
<trkpt lat="40.0728376" lon="-105.2305832">
  <ele>1596.84</ele>
  <time>2026-08-28T19:08:55Z</time>
  <course>8.48</course>
  <speed>0.8860022573334675</speed>
  <fix>3d</fix>
</trkpt>
<trkpt lat="40.072837" lon="-105.2305845">
  <ele>1596.64</ele>
  <time>2026-08-28T19:08:55Z</time>
  <course>51.91</course>
  <speed>0.9</speed>
  <fix>3d</fix>
</trkpt>
<trkpt lat="40.0728386" lon="-105.2305816">
  <ele>1596.86</ele>
  <time>2026-08-28T19:08:55Z</time>
  <course>8.77</course>
  <speed>0.8420213774008353</speed>
  <fix>3d</fix>
</trkpt>
<trkpt lat="40.072838" lon="-105.2305829">
  <ele>1596.67</ele>
  <time>2026-08-28T19:08:55Z</time>
  <course>51.51</course>
  <speed>0.89</speed>
  <fix>3d</fix>
</trkpt>
<trkpt lat="40.0728395" lon="-105.2305801">
  <ele>1596.87</ele>
  <time>2026-08-28T19:08:55Z</time>
  <course>9.01</course>
  <speed>0.7860025445251434</speed>
  <fix>3d</fix>
</trkpt>
<trkpt lat="40.072839" lon="-105.2305813">
  <ele>1596.7</ele>
  <time>2026-08-28T19:08:55Z</time>
  <course>51.53</course>
  <speed>0.84</speed>
  <fix>3d</fix>
</trkpt>
<trkpt lat="40.0728404" lon="-105.2305786">
  <ele>1596.89</ele>
  <time>2026-08-28T19:08:55Z</time>
  <course>9.09</course>
  <speed>0.7300684899377592</speed>
  <fix>3d</fix>
</trkpt>
<trkpt lat="40.0728399" lon="-105.2305798">
  <ele>1596.72</ele>
  <time>2026-08-28T19:08:55Z</time>
  <course>52.02</course>
  <speed>0.79</speed>
  <fix>3d</fix>
</trkpt>
<trkpt lat="40.0728411" lon="-105.2305773">
  <ele>1596.89</ele>
  <time>2026-08-28T19:08:55Z</time>
  <course>9.15</course>
  <speed>0.6685057965343307</speed>
  <fix>3d</fix>
</trkpt>
<trkpt lat="40.0728407" lon="-105.2305784">
  <ele>1596.73</ele>
  <time>2026-08-28T19:08:55Z</time>
  <course>52.84</course>
  <speed>0.73</speed>
  <fix>3d</fix>
</trkpt>
<trkpt lat="40.0728418" lon="-105.2305761">
  <ele>1596.89</ele>
  <time>2026-08-28T19:08:55Z</time>
  <course>9.17</course>
  <speed>0.5768882040742382</speed>
  <fix>3d</fix>
</trkpt>
<trkpt lat="40.0728415" lon="-105.230577">
  <ele>1596.74</ele>
  <time>2026-08-28T19:08:55Z</time>
  <course>53.84</course>
  <speed>0.66</speed>
  <fix>3d</fix>
</trkpt>
<trkpt lat="40.0728424" lon="-105.2305751">
  <ele>1596.89</ele>
  <time>2026-08-28T19:08:55Z</time>
  <course>9.16</course>
  <speed>0.45276925690687087</speed>
  <fix>3d</fix>
</trkpt>
<trkpt lat="40.0728421" lon="-105.2305758">
  <ele>1596.74</ele>
  <time>2026-08-28T19:08:55Z</time>
  <course>55.33</course>
  <speed>0.57</speed>
  <fix>3d</fix>
</trkpt>
<trkpt lat="40.0728427" lon="-105.2305743">
  <ele>1596.89</ele>
  <time>2026-08-28T19:08:55Z</time>
  <course>9.09</course>
  <speed>0.29546573405388316</speed>
  <fix>3d</fix>
</trkpt>
<trkpt lat="40.0728426" lon="-105.2305748">
  <ele>1596.74</ele>
  <time>2026-08-28T19:08:55Z</time>
  <course>58.42</course>
  <speed>0.43</speed>
  <fix>3d</fix>
</trkpt>
<trkpt lat="40.0728429" lon="-105.2305738">
  <ele>1596.89</ele>
  <time>2026-08-28T19:08:55Z</time>
  <course>9.0</course>
  <speed>0.16</speed>
  <fix>3d</fix>
</trkpt>
<trkpt lat="40.072843" lon="-105.2305741">
  <ele>1596.75</ele>
  <time>2026-08-28T19:08:55Z</time>
  <course>66.43</course>
  <speed>0.28</speed>
  <fix>3d</fix>
</trkpt>
<trkpt lat="40.0728428" lon="-105.2305735">
  <ele>1596.88</ele>
  <time>2026-08-28T19:08:55Z</time>
  <course>8.89</course>
  <speed>0.12083045973594572</speed>
  <fix>3d</fix>
</trkpt>
<trkpt lat="40.0728431" lon="-105.2305736">
  <ele>1596.75</ele>
  <time>2026-08-28T19:08:55Z</time>
  <course>94.35</course>
  <speed>0.14</speed>
  <fix>3d</fix>
</trkpt>
<trkpt lat="40.0728425" lon="-105.2305735">
  <ele>1596.89</ele>
  <time>2026-08-28T19:08:55Z</time>
  <course>8.81</course>
  <speed>0.2009975124224178</speed>
  <fix>3d</fix>
</trkpt>
<trkpt lat="40.072843" lon="-105.2305734">
  <ele>1596.75</ele>
  <time>2026-08-28T19:08:55Z</time>
  <course>162.72</course>
  <speed>0.13</speed>
  <fix>3d</fix>
</trkpt>
<trkpt lat="40.0728423" lon="-105.2305735">
  <ele>1596.89</ele>
  <time>2026-08-28T19:08:55Z</time>
  <course>8.77</course>
  <speed>0.2692582403567252</speed>
  <fix>3d</fix>
</trkpt>
<trkpt lat="40.0728426" lon="-105.2305734">
  <ele>1596.76</ele>
  <time>2026-08-28T19:08:55Z</time>
  <course>190.15</course>
  <speed>0.21</speed>
  <fix>3d</fix>
</trkpt>
<trkpt lat="40.0728418" lon="-105.2305737">
  <ele>1596.88</ele>
  <time>2026-08-28T19:08:55Z</time>
  <course>8.72</course>
  <speed>0.2816025568065745</speed>
  <fix>3d</fix>
</trkpt>
<trkpt lat="40.0728422" lon="-105.2305735">
  <ele>1596.76</ele>
  <time>2026-08-28T19:08:55Z</time>
  <course>197.38</course>
  <speed>0.27</speed>
  <fix>3d</fix>
</trkpt>
<trkpt lat="40.0728414" lon="-105.2305738">
  <ele>1596.89</ele>
  <time>2026-08-28T19:08:55Z</time>
  <course>8.7</course>
  <speed>0.25</speed>
  <fix>3d</fix>
</trkpt>
<trkpt lat="40.0728418" lon="-105.2305738">
  <ele>1596.77</ele>
  <time>2026-08-28T19:08:55Z</time>
  <course>199.58</course>
  <speed>0.29</speed>
  <fix>3d</fix>
</trkpt>
<trkpt lat="40.072841" lon="-105.230574">
  <ele>1596.89</ele>
  <time>2026-08-28T19:08:55Z</time>
  <course>11.55</course>
  <speed>0.19924858845171275</speed>
  <fix>3d</fix>
</trkpt>
<trkpt lat="40.0728413" lon="-105.2305739">
  <ele>1596.77</ele>
  <time>2026-08-28T19:08:55Z</time>
  <course>200.44</course>
  <speed>0.26</speed>
  <fix>3d</fix>
</trkpt>
<trkpt lat="40.0728407" lon="-105.2305742">
  <ele>1596.9</ele>
  <time>2026-08-28T19:08:55Z</time>
  <course>11.04</course>
  <speed>0.14866068747318506</speed>
  <fix>3d</fix>
</trkpt>
<trkpt lat="40.0728409" lon="-105.230574">
  <ele>1596.78</ele>
  <time>2026-08-28T19:08:55Z</time>
  <course>202.5</course>
  <speed>0.21</speed>
  <fix>3d</fix>
</trkpt>
<trkpt lat="40.0728405" lon="-105.2305743">
  <ele>1596.9</ele>
  <time>2026-08-28T19:08:55Z</time>
  <course>11.0</course>
  <speed>0.09433981132056603</speed>
  <fix>3d</fix>
</trkpt>
<trkpt lat="40.0728406" lon="-105.2305743">
  <ele>1596.79</ele>
  <time>2026-08-28T19:08:55Z</time>
  <course>208.46</course>
  <speed>0.15</speed>
  <fix>3d</fix>
</trkpt>
<trkpt lat="40.0728403" lon="-105.2305745">
  <ele>1596.91</ele>
  <time>2026-08-28T19:08:55Z</time>
  <course>11.0</course>
  <speed>0.05</speed>
  <fix>3d</fix>
</trkpt>
<trkpt lat="40.0728404" lon="-105.2305744">
  <ele>1596.79</ele>
  <time>2026-08-28T19:08:55Z</time>
  <course>221.72</course>
  <speed>0.11</speed>
  <fix>3d</fix>
</trkpt>
<trkpt lat="40.0728403" lon="-105.2305746">
  <ele>1596.91</ele>
  <time>2026-08-28T19:08:55Z</time>
  <course>11.02</course>
  <speed>0.04</speed>
  <fix>3d</fix>
</trkpt>
<trkpt lat="40.0728403" lon="-105.2305747">
  <ele>1596.79</ele>
  <time>2026-08-28T19:08:55Z</time>
  <course>247.21</course>
  <speed>0.08</speed>
  <fix>3d</fix>
</trkpt>
<trkpt lat="40.0728403" lon="-105.2305748">
  <ele>1596.91</ele>
  <time>2026-08-28T19:08:55Z</time>
  <course>11.03</course>
  <speed>0.0565685424949238</speed>
  <fix>3d</fix>
</trkpt>
<trkpt lat="40.0728402" lon="-105.2305748">
  <ele>1596.8</ele>
  <time>2026-08-28T19:08:55Z</time>
  <course>280.75</course>
  <speed>0.08</speed>
  <fix>3d</fix>
</trkpt>
<trkpt lat="40.0728404" lon="-105.2305749">
  <ele>1596.9</ele>
  <time>2026-08-28T19:08:56Z</time>
  <course>11.01</course>
  <speed>0.08062257748298549</speed>
  <fix>3d</fix>
</trkpt>
<trkpt lat="40.0728402" lon="-105.230575">
  <ele>1596.8</ele>
  <time>2026-08-28T19:08:56Z</time>
  <course>304.9</course>
  <speed>0.09</speed>
  <fix>3d</fix>
</trkpt>
<trkpt lat="40.0728405" lon="-105.2305751">
  <ele>1596.9</ele>
  <time>2026-08-28T19:08:56Z</time>
  <course>10.99</course>
  <speed>0.10770329614269007</speed>
  <fix>3d</fix>
</trkpt>
<trkpt lat="40.0728403" lon="-105.2305752">
  <ele>1596.8</ele>
  <time>2026-08-28T19:08:56Z</time>
  <course>318.45</course>
  <speed>0.12</speed>
  <fix>3d</fix>
</trkpt>
<trkpt lat="40.0728407" lon="-105.2305753">
  <ele>1596.9</ele>
  <time>2026-08-28T19:08:56Z</time>
  <course>10.98</course>
  <speed>0.1264911064067352</speed>
  <fix>3d</fix>
</trkpt>
<trkpt lat="40.0728406" lon="-105.2305753">
  <ele>1596.8</ele>
  <time>2026-08-28T19:08:56Z</time>
  <course>326.45</course>
  <speed>0.14</speed>
  <fix>3d</fix>
</trkpt>
<trkpt lat="40.0728409" lon="-105.2305754">
  <ele>1596.9</ele>
  <time>2026-08-28T19:08:56Z</time>
  <course>11.0</course>
  <speed>0.13341664064126335</speed>
  <fix>3d</fix>
</trkpt>
<trkpt lat="40.0728408" lon="-105.2305756">
  <ele>1596.8</ele>
  <time>2026-08-28T19:08:56Z</time>
  <course>331.66</course>
  <speed>0.16</speed>
  <fix>3d</fix>
</trkpt>
<trkpt lat="40.0728412" lon="-105.2305756">
  <ele>1596.9</ele>
  <time>2026-08-28T19:08:56Z</time>
  <course>11.01</course>
  <speed>0.14317821063276354</speed>
  <fix>3d</fix>
</trkpt>
<trkpt lat="40.0728411" lon="-105.2305758">
  <ele>1596.8</ele>
  <time>2026-08-28T19:08:56Z</time>
  <course>335.57</course>
  <speed>0.17</speed>
  <fix>3d</fix>
</trkpt>
<trkpt lat="40.0728415" lon="-105.2305757">
  <ele>1596.9</ele>
  <time>2026-08-28T19:08:56Z</time>
  <course>11.04</course>
  <speed>0.1414213562373095</speed>
  <fix>3d</fix>
</trkpt>
<trkpt lat="40.0728414" lon="-105.2305759">
  <ele>1596.8</ele>
  <time>2026-08-28T19:08:56Z</time>
  <course>338.83</course>
  <speed>0.17</speed>
  <fix>3d</fix>
</trkpt>
<trkpt lat="40.0728418" lon="-105.2305758">
  <ele>1596.9</ele>
  <time>2026-08-28T19:08:56Z</time>
  <course>11.05</course>
  <speed>0.140356688476182</speed>
  <fix>3d</fix>
</trkpt>
<trkpt lat="40.0728417" lon="-105.2305761">
  <ele>1596.81</ele>
  <time>2026-08-28T19:08:56Z</time>
  <course>341.76</course>
  <speed>0.17</speed>
  <fix>3d</fix>
</trkpt>
<trkpt lat="40.0728421" lon="-105.2305759">
  <ele>1596.9</ele>
  <time>2026-08-28T19:08:56Z</time>
  <course>11.07</course>
  <speed>0.13</speed>
  <fix>3d</fix>
</trkpt>
<trkpt lat="40.072842" lon="-105.2305762">
  <ele>1596.81</ele>
  <time>2026-08-28T19:08:56Z</time>
  <course>344.78</course>
  <speed>0.17</speed>
  <fix>3d</fix>
</trkpt>
<trkpt lat="40.0728423" lon="-105.230576">
  <ele>1596.91</ele>
  <time>2026-08-28T19:08:56Z</time>
  <course>11.1</course>
  <speed>0.12</speed>
  <fix>3d</fix>
</trkpt>
<trkpt lat="40.0728423" lon="-105.2305763">
  <ele>1596.81</ele>
  <time>2026-08-28T19:08:56Z</time>
  <course>348.22</course>
  <speed>0.16</speed>
  <fix>3d</fix>
</trkpt>
<trkpt lat="40.0728426" lon="-105.230576">
  <ele>1596.91</ele>
  <time>2026-08-28T19:08:56Z</time>
  <course>11.13</course>
  <speed>0.1004987562112089</speed>
  <fix>3d</fix>
</trkpt>
<trkpt lat="40.0728425" lon="-105.2305763">
  <ele>1596.81</ele>
  <time>2026-08-28T19:08:56Z</time>
  <course>352.37</course>
  <speed>0.14</speed>
  <fix>3d</fix>
</trkpt>
<trkpt lat="40.0728428" lon="-105.2305761">
  <ele>1596.91</ele>
  <time>2026-08-28T19:08:56Z</time>
  <course>11.17</course>
  <speed>0.0854400374531753</speed>
  <fix>3d</fix>
</trkpt>
<trkpt lat="40.0728427" lon="-105.2305763">
  <ele>1596.81</ele>
  <time>2026-08-28T19:08:56Z</time>
  <course>357.63</course>
  <speed>0.12</speed>
  <fix>3d</fix>
</trkpt>
<trkpt lat="40.0728429" lon="-105.2305761">
  <ele>1596.91</ele>
  <time>2026-08-28T19:08:56Z</time>
  <course>11.21</course>
  <speed>0.07211102550927978</speed>
  <fix>3d</fix>
</trkpt>
<trkpt lat="40.072843" lon="-105.2305763">
  <ele>1596.81</ele>
  <time>2026-08-28T19:08:56Z</time>
  <course>4.75</course>
  <speed>0.1</speed>
  <fix>3d</fix>
</trkpt>
<trkpt lat="40.0728431" lon="-105.2305761">
  <ele>1596.91</ele>
  <time>2026-08-28T19:08:56Z</time>
  <course>11.21</course>
  <speed>0.06403124237432849</speed>
  <fix>3d</fix>
</trkpt>
<trkpt lat="40.0728431" lon="-105.2305763">
  <ele>1596.82</ele>
  <time>2026-08-28T19:08:56Z</time>
  <course>14.33</course>
  <speed>0.08</speed>
  <fix>3d</fix>
</trkpt>
<trkpt lat="40.0728432" lon="-105.230576">
  <ele>1596.92</ele>
  <time>2026-08-28T19:08:56Z</time>
  <course>11.25</course>
  <speed>0.0632455532033676</speed>
  <fix>3d</fix>
</trkpt>
<trkpt lat="40.0728433" lon="-105.2305763">
  <ele>1596.82</ele>
  <time>2026-08-28T19:08:56Z</time>
  <course>27.19</course>
  <speed>0.07</speed>
  <fix>3d</fix>
</trkpt>
<trkpt lat="40.0728432" lon="-105.2305759">
  <ele>1596.92</ele>
  <time>2026-08-28T19:08:56Z</time>
  <course>11.31</course>
  <speed>0.07</speed>
  <fix>3d</fix>
</trkpt>
<trkpt lat="40.0728434" lon="-105.2305762">
  <ele>1596.81</ele>
  <time>2026-08-28T19:08:56Z</time>
  <course>44.89</course>
  <speed>0.06</speed>
  <fix>3d</fix>
</trkpt>
<trkpt lat="40.0728433" lon="-105.2305758">
  <ele>1596.92</ele>
  <time>2026-08-28T19:08:56Z</time>
  <course>11.33</course>
  <speed>0.07071067811865475</speed>
  <fix>3d</fix>
</trkpt>
<trkpt lat="40.0728435" lon="-105.2305761">
  <ele>1596.81</ele>
  <time>2026-08-28T19:08:56Z</time>
  <course>66.65</course>
  <speed>0.05</speed>
  <fix>3d</fix>
</trkpt>
<trkpt lat="40.0728433" lon="-105.2305757">
  <ele>1596.92</ele>
  <time>2026-08-28T19:08:56Z</time>
  <course>11.32</course>
  <speed>0.07615773105863909</speed>
  <fix>3d</fix>
</trkpt>
<trkpt lat="40.0728435" lon="-105.230576">
  <ele>1596.81</ele>
  <time>2026-08-28T19:08:56Z</time>
  <course>87.98</course>
  <speed>0.05</speed>
  <fix>3d</fix>
</trkpt>
<trkpt lat="40.0728433" lon="-105.2305755">
  <ele>1596.91</ele>
  <time>2026-08-28T19:08:56Z</time>
  <course>11.31</course>
  <speed>0.09433981132056603</speed>
  <fix>3d</fix>
</trkpt>
<trkpt lat="40.0728435" lon="-105.2305758">
  <ele>1596.81</ele>
  <time>2026-08-28T19:08:56Z</time>
  <course>104.74</course>
  <speed>0.06</speed>
  <fix>3d</fix>
</trkpt>
<trkpt lat="40.0728433" lon="-105.2305754">
  <ele>1596.9</ele>
  <time>2026-08-28T19:08:56Z</time>
  <course>11.3</course>
  <speed>0.1</speed>
  <fix>3d</fix>
</trkpt>
<trkpt lat="40.0728434" lon="-105.2305757">
  <ele>1596.8</ele>
  <time>2026-08-28T19:08:56Z</time>
  <course>116.6</course>
  <speed>0.07</speed>
  <fix>3d</fix>
</trkpt>
<trkpt lat="40.0728432" lon="-105.2305753">
  <ele>1596.9</ele>
  <time>2026-08-28T19:08:56Z</time>
  <course>11.43</course>
  <speed>0.09899494936611665</speed>
  <fix>3d</fix>
</trkpt>
<trkpt lat="40.0728433" lon="-105.2305756">
  <ele>1596.8</ele>
  <time>2026-08-28T19:08:56Z</time>
  <course>125.27</course>
  <speed>0.07</speed>
  <fix>3d</fix>
</trkpt>
<trkpt lat="40.0728431" lon="-105.2305751">
  <ele>1596.87</ele>
  <time>2026-08-28T19:08:56Z</time>
  <course>12.1</course>
  <speed>0.1</speed>
  <fix>3d</fix>
</trkpt>
<trkpt lat="40.0728433" lon="-105.2305754">
  <ele>1596.79</ele>
  <time>2026-08-28T19:08:56Z</time>
  <course>133.46</course>
  <speed>0.08</speed>
  <fix>3d</fix>
</trkpt>
<trkpt lat="40.072843" lon="-105.2305751">
  <ele>1596.81</ele>
  <time>2026-08-28T19:08:56Z</time>
  <course>12.97</course>
  <speed>0.08944271909999159</speed>
  <fix>3d</fix>
</trkpt>
<trkpt lat="40.0728432" lon="-105.2305753">
  <ele>1596.76</ele>
  <time>2026-08-28T19:08:56Z</time>
  <course>143.02</course>
  <speed>0.07</speed>
  <fix>3d</fix>
</trkpt>
<trkpt lat="40.0728429" lon="-105.230575">
  <ele>1596.7</ele>
  <time>2026-08-28T19:08:56Z</time>
  <course>13.74</course>
  <speed>0.0854400374531753</speed>
  <fix>3d</fix>
</trkpt>
<trkpt lat="40.0728431" lon="-105.2305752">
  <ele>1596.69</ele>
  <time>2026-08-28T19:08:56Z</time>
  <course>153.38</course>
  <speed>0.07</speed>
  <fix>3d</fix>
</trkpt>
<trkpt lat="40.0728428" lon="-105.230575">
  <ele>1596.57</ele>
  <time>2026-08-28T19:08:56Z</time>
  <course>13.85</course>
  <speed>0.0854400374531753</speed>
  <fix>3d</fix>
</trkpt>
<trkpt lat="40.072843" lon="-105.2305751">
  <ele>1596.59</ele>
  <time>2026-08-28T19:08:56Z</time>
  <course>161.54</course>
  <speed>0.06</speed>
  <fix>3d</fix>
</trkpt>
<trkpt lat="40.0728427" lon="-105.2305749">
  <ele>1596.44</ele>
  <time>2026-08-28T19:08:56Z</time>
  <course>13.61</course>
  <speed>0.0854400374531753</speed>
  <fix>3d</fix>
</trkpt>
<trkpt lat="40.0728429" lon="-105.2305751">
  <ele>1596.46</ele>
  <time>2026-08-28T19:08:56Z</time>
  <course>164.69</course>
  <speed>0.06</speed>
  <fix>3d</fix>
</trkpt>
<trkpt lat="40.0728426" lon="-105.2305749">
  <ele>1596.31</ele>
  <time>2026-08-28T19:08:56Z</time>
  <course>13.3</course>
  <speed>0.07615773105863909</speed>
  <fix>3d</fix>
</trkpt>
<trkpt lat="40.0728428" lon="-105.2305751">
  <ele>1596.32</ele>
  <time>2026-08-28T19:08:56Z</time>
  <course>165.23</course>
  <speed>0.06</speed>
  <fix>3d</fix>
</trkpt>
<trkpt lat="40.0728425" lon="-105.2305749">
  <ele>1596.19</ele>
  <time>2026-08-28T19:08:56Z</time>
  <course>12.99</course>
  <speed>0.07280109889280519</speed>
  <fix>3d</fix>
</trkpt>
<trkpt lat="40.0728427" lon="-105.230575">
  <ele>1596.19</ele>
  <time>2026-08-28T19:08:56Z</time>
  <course>166.46</course>
  <speed>0.06</speed>
  <fix>3d</fix>
</trkpt>
<trkpt lat="40.0728424" lon="-105.2305748">
  <ele>1596.08</ele>
  <time>2026-08-28T19:08:56Z</time>
  <course>12.76</course>
  <speed>0.07280109889280519</speed>
  <fix>3d</fix>
</trkpt>
<trkpt lat="40.0728426" lon="-105.230575">
  <ele>1596.07</ele>
  <time>2026-08-28T19:08:56Z</time>
  <course>169.14</course>
  <speed>0.06</speed>
  <fix>3d</fix>
</trkpt>
<trkpt lat="40.0728423" lon="-105.2305748">
  <ele>1595.98</ele>
  <time>2026-08-28T19:08:56Z</time>
  <course>12.58</course>
  <speed>0.06082762530298219</speed>
  <fix>3d</fix>
</trkpt>
<trkpt lat="40.0728424" lon="-105.230575">
  <ele>1595.97</ele>
  <time>2026-08-28T19:08:56Z</time>
  <course>173.82</course>
  <speed>0.05</speed>
  <fix>3d</fix>
</trkpt>
<trkpt lat="40.0728422" lon="-105.2305748">
  <ele>1595.89</ele>
  <time>2026-08-28T19:08:56Z</time>
  <course>12.5</course>
  <speed>0.06</speed>
  <fix>3d</fix>
</trkpt>
<trkpt lat="40.0728423" lon="-105.230575">
  <ele>1595.87</ele>
  <time>2026-08-28T19:08:56Z</time>
  <course>180.87</course>
  <speed>0.05</speed>
  <fix>3d</fix>
</trkpt>
<trkpt lat="40.0728421" lon="-105.2305749">
  <ele>1595.8</ele>
  <time>2026-08-28T19:08:56Z</time>
  <course>12.51</course>
  <speed>0.05</speed>
  <fix>3d</fix>
</trkpt>
<trkpt lat="40.0728423" lon="-105.230575">
  <ele>1595.78</ele>
  <time>2026-08-28T19:08:56Z</time>
  <course>189.83</course>
  <speed>0.04</speed>
  <fix>3d</fix>
</trkpt>
<trkpt lat="40.072842" lon="-105.2305749">
  <ele>1595.7</ele>
  <time>2026-08-28T19:08:56Z</time>
  <course>12.53</course>
  <speed>0.04</speed>
  <fix>3d</fix>
</trkpt>
<trkpt lat="40.0728422" lon="-105.230575">
  <ele>1595.69</ele>
  <time>2026-08-28T19:08:56Z</time>
  <course>200.82</course>
  <speed>0.04</speed>
  <fix>3d</fix>
</trkpt>
<trkpt lat="40.072842" lon="-105.2305749">
  <ele>1595.61</ele>
  <time>2026-08-28T19:08:56Z</time>
  <course>12.58</course>
  <speed>0.04</speed>
  <fix>3d</fix>
</trkpt>
<trkpt lat="40.0728421" lon="-105.230575">
  <ele>1595.6</ele>
  <time>2026-08-28T19:08:56Z</time>
  <course>213.73</course>
  <speed>0.04</speed>
  <fix>3d</fix>
</trkpt>
<trkpt lat="40.072842" lon="-105.2305749">
  <ele>1595.51</ele>
  <time>2026-08-28T19:08:56Z</time>
  <course>12.58</course>
  <speed>0.0316227766016838</speed>
  <fix>3d</fix>
</trkpt>
<trkpt lat="40.072842" lon="-105.230575">
  <ele>1595.5</ele>
  <time>2026-08-28T19:08:56Z</time>
  <course>227.33</course>
  <speed>0.03</speed>
  <fix>3d</fix>
</trkpt>
<trkpt lat="40.0728419" lon="-105.230575">
  <ele>1595.41</ele>
  <time>2026-08-28T19:08:56Z</time>
  <course>12.55</course>
  <speed>0.022360679774997897</speed>
  <fix>3d</fix>
</trkpt>
<trkpt lat="40.072842" lon="-105.2305751">
  <ele>1595.4</ele>
  <time>2026-08-28T19:08:56Z</time>
  <course>240.63</course>
  <speed>0.03</speed>
  <fix>3d</fix>
</trkpt>
<trkpt lat="40.0728419" lon="-105.2305751">
  <ele>1595.31</ele>
  <time>2026-08-28T19:08:56Z</time>
  <course>12.57</course>
  <speed>0.01414213562373095</speed>
  <fix>3d</fix>
</trkpt>
<trkpt lat="40.072842" lon="-105.2305751">
  <ele>1595.31</ele>
  <time>2026-08-28T19:08:56Z</time>
  <course>253.44</course>
  <speed>0.03</speed>
  <fix>3d</fix>
</trkpt>
<trkpt lat="40.0728419" lon="-105.2305751">
  <ele>1595.21</ele>
  <time>2026-08-28T19:08:56Z</time>
  <course>12.54</course>
  <speed>0.01414213562373095</speed>
  <fix>3d</fix>
</trkpt>
<trkpt lat="40.072842" lon="-105.2305752">
  <ele>1595.21</ele>
  <time>2026-08-28T19:08:56Z</time>
  <course>264.72</course>
  <speed>0.03</speed>
  <fix>3d</fix>
</trkpt>
<trkpt lat="40.0728419" lon="-105.2305752">
  <ele>1595.11</ele>
  <time>2026-08-28T19:08:56Z</time>
  <course>12.51</course>
  <speed>0.01</speed>
  <fix>3d</fix>
</trkpt>
<trkpt lat="40.072842" lon="-105.2305753">
  <ele>1595.11</ele>
  <time>2026-08-28T19:08:56Z</time>
  <course>274.39</course>
  <speed>0.03</speed>
  <fix>3d</fix>
</trkpt>
<trkpt lat="40.0728419" lon="-105.2305753">
  <ele>1595.01</ele>
  <time>2026-08-28T19:08:56Z</time>
  <course>12.48</course>
  <speed>0.01</speed>
  <fix>3d</fix>
</trkpt>
<trkpt lat="40.072842" lon="-105.2305754">
  <ele>1595.01</ele>
  <time>2026-08-28T19:08:56Z</time>
  <course>282.61</course>
  <speed>0.03</speed>
  <fix>3d</fix>
</trkpt>
<trkpt lat="40.0728419" lon="-105.2305754">
  <ele>1594.91</ele>
  <time>2026-08-28T19:08:56Z</time>
  <course>12.45</course>
  <speed>0.01</speed>
  <fix>3d</fix>
</trkpt>
<trkpt lat="40.072842" lon="-105.2305755">
  <ele>1594.9</ele>
  <time>2026-08-28T19:08:56Z</time>
  <course>289.8</course>
  <speed>0.03</speed>
  <fix>3d</fix>
</trkpt>
<trkpt lat="40.0728419" lon="-105.2305754">
  <ele>1594.81</ele>
  <time>2026-08-28T19:08:56Z</time>
  <course>12.43</course>
  <speed>0.0</speed>
  <fix>3d</fix>
</trkpt>
<trkpt lat="40.072842" lon="-105.2305756">
  <ele>1594.81</ele>
  <time>2026-08-28T19:08:56Z</time>
  <course>296.54</course>
  <speed>0.03</speed>
  <fix>3d</fix>
</trkpt>
<trkpt lat="40.0728419" lon="-105.2305755">
  <ele>1594.71</ele>
  <time>2026-08-28T19:08:56Z</time>
  <course>12.4</course>
  <speed>0.0</speed>
  <fix>3d</fix>
</trkpt>
<trkpt lat="40.072842" lon="-105.2305756">
  <ele>1594.71</ele>
  <time>2026-08-28T19:08:56Z</time>
  <course>303.05</course>
  <speed>0.03</speed>
  <fix>3d</fix>
</trkpt>
<trkpt lat="40.072842" lon="-105.2305755">
  <ele>1594.61</ele>
  <time>2026-08-28T19:08:56Z</time>
  <course>12.39</course>
  <speed>0.0</speed>
  <fix>3d</fix>
</trkpt>
<trkpt lat="40.072842" lon="-105.2305757">
  <ele>1594.61</ele>
  <time>2026-08-28T19:08:56Z</time>
  <course>309.79</course>
  <speed>0.03</speed>
  <fix>3d</fix>
</trkpt>
<trkpt lat="40.072842" lon="-105.2305756">
  <ele>1594.51</ele>
  <time>2026-08-28T19:08:56Z</time>
  <course>12.39</course>
  <speed>0.0</speed>
  <fix>3d</fix>
</trkpt>
<trkpt lat="40.072842" lon="-105.2305758">
  <ele>1594.51</ele>
  <time>2026-08-28T19:08:56Z</time>
  <course>317.05</course>
  <speed>0.03</speed>
  <fix>3d</fix>
</trkpt>
<trkpt lat="40.072842" lon="-105.2305756">
  <ele>1594.41</ele>
  <time>2026-08-28T19:08:56Z</time>
  <course>12.38</course>
  <speed>0.0</speed>
  <fix>3d</fix>
</trkpt>
<trkpt lat="40.072842" lon="-105.2305758">
  <ele>1594.4</ele>
  <time>2026-08-28T19:08:56Z</time>
  <course>325.18</course>
  <speed>0.02</speed>
  <fix>3d</fix>
</trkpt>
<trkpt lat="40.072842" lon="-105.2305756">
  <ele>1594.31</ele>
  <time>2026-08-28T19:08:56Z</time>
  <course>12.38</course>
  <speed>0.01</speed>
  <fix>3d</fix>
</trkpt>
<trkpt lat="40.0728421" lon="-105.2305758">
  <ele>1594.31</ele>
  <time>2026-08-28T19:08:56Z</time>
  <course>335.39</course>
  <speed>0.02</speed>
  <fix>3d</fix>
</trkpt>
<trkpt lat="40.0728421" lon="-105.2305756">
  <ele>1594.21</ele>
  <time>2026-08-28T19:08:56Z</time>
  <course>12.34</course>
  <speed>0.01</speed>
  <fix>3d</fix>
</trkpt>
<trkpt lat="40.0728421" lon="-105.2305758">
  <ele>1594.21</ele>
  <time>2026-08-28T19:08:56Z</time>
  <course>346.56</course>
  <speed>0.02</speed>
  <fix>3d</fix>
</trkpt>
<trkpt lat="40.0728421" lon="-105.2305756">
  <ele>1594.11</ele>
  <time>2026-08-28T19:08:56Z</time>
  <course>12.31</course>
  <speed>0.02</speed>
  <fix>3d</fix>
</trkpt>
<trkpt lat="40.0728422" lon="-105.2305758">
  <ele>1594.11</ele>
  <time>2026-08-28T19:08:56Z</time>
  <course>357.73</course>
  <speed>0.02</speed>
  <fix>3d</fix>
</trkpt>
<trkpt lat="40.0728421" lon="-105.2305756">
  <ele>1594.01</ele>
  <time>2026-08-28T19:08:56Z</time>
  <course>12.31</course>
  <speed>0.02</speed>
  <fix>3d</fix>
</trkpt>
<trkpt lat="40.0728423" lon="-105.2305758">
  <ele>1594.01</ele>
  <time>2026-08-28T19:08:56Z</time>
  <course>8.32</course>
  <speed>0.02</speed>
  <fix>3d</fix>
</trkpt>
<trkpt lat="40.0728422" lon="-105.2305756">
  <ele>1593.91</ele>
  <time>2026-08-28T19:08:56Z</time>
  <course>12.29</course>
  <speed>0.03</speed>
  <fix>3d</fix>
</trkpt>
<trkpt lat="40.0728423" lon="-105.2305758">
  <ele>1593.91</ele>
  <time>2026-08-28T19:08:56Z</time>
  <course>18.41</course>
  <speed>0.02</speed>
  <fix>3d</fix>
</trkpt>
<trkpt lat="40.0728422" lon="-105.2305756">
  <ele>1593.81</ele>
  <time>2026-08-28T19:08:56Z</time>
  <course>12.29</course>
  <speed>0.03</speed>
  <fix>3d</fix>
</trkpt>
<trkpt lat="40.0728424" lon="-105.2305758">
  <ele>1593.82</ele>
  <time>2026-08-28T19:08:56Z</time>
  <course>27.59</course>
  <speed>0.02</speed>
  <fix>3d</fix>
</trkpt>
<trkpt lat="40.0728422" lon="-105.2305756">
  <ele>1593.72</ele>
  <time>2026-08-28T19:08:56Z</time>
  <course>12.29</course>
  <speed>0.03</speed>
  <fix>3d</fix>
</trkpt>
<trkpt lat="40.0728424" lon="-105.2305758">
  <ele>1593.72</ele>
  <time>2026-08-28T19:08:56Z</time>
  <course>36.39</course>
  <speed>0.02</speed>
  <fix>3d</fix>
</trkpt>
<trkpt lat="40.0728423" lon="-105.2305756">
  <ele>1593.61</ele>
  <time>2026-08-28T19:08:56Z</time>
  <course>12.29</course>
  <speed>0.03</speed>
  <fix>3d</fix>
</trkpt>
<trkpt lat="40.0728424" lon="-105.2305758">
  <ele>1593.62</ele>
  <time>2026-08-28T19:08:56Z</time>
  <course>45.82</course>
  <speed>0.02</speed>
  <fix>3d</fix>
</trkpt>
<trkpt lat="40.0728423" lon="-105.2305755">
  <ele>1593.51</ele>
  <time>2026-08-28T19:08:56Z</time>
  <course>12.26</course>
  <speed>0.0316227766016838</speed>
  <fix>3d</fix>
</trkpt>
<trkpt lat="40.0728425" lon="-105.2305758">
  <ele>1593.52</ele>
  <time>2026-08-28T19:08:56Z</time>
  <course>56.13</course>
  <speed>0.02</speed>
  <fix>3d</fix>
</trkpt>
<trkpt lat="40.0728423" lon="-105.2305755">
  <ele>1593.41</ele>
  <time>2026-08-28T19:08:56Z</time>
  <course>12.25</course>
  <speed>0.0316227766016838</speed>
  <fix>3d</fix>
</trkpt>
<trkpt lat="40.0728425" lon="-105.2305758">
  <ele>1593.41</ele>
  <time>2026-08-28T19:08:56Z</time>
  <course>67.09</course>
  <speed>0.02</speed>
  <fix>3d</fix>
</trkpt>
<trkpt lat="40.0728423" lon="-105.2305755">
  <ele>1593.31</ele>
  <time>2026-08-28T19:08:56Z</time>
  <course>12.22</course>
  <speed>0.0316227766016838</speed>
  <fix>3d</fix>
</trkpt>
<trkpt lat="40.0728425" lon="-105.2305758">
  <ele>1593.31</ele>
  <time>2026-08-28T19:08:56Z</time>
  <course>77.33</course>
  <speed>0.02</speed>
  <fix>3d</fix>
</trkpt>
<trkpt lat="40.0728423" lon="-105.2305754">
  <ele>1593.21</ele>
  <time>2026-08-28T19:08:56Z</time>
  <course>12.2</course>
  <speed>0.03605551275463989</speed>
  <fix>3d</fix>
</trkpt>
<trkpt lat="40.0728425" lon="-105.2305757">
  <ele>1593.21</ele>
  <time>2026-08-28T19:08:56Z</time>
  <course>87.03</course>
  <speed>0.02</speed>
  <fix>3d</fix>
</trkpt>
<trkpt lat="40.0728423" lon="-105.2305754">
  <ele>1593.1</ele>
  <time>2026-08-28T19:08:56Z</time>
  <course>12.17</course>
  <speed>0.03605551275463989</speed>
  <fix>3d</fix>
</trkpt>
<trkpt lat="40.0728425" lon="-105.2305756">
  <ele>1593.11</ele>
  <time>2026-08-28T19:08:56Z</time>
  <course>96.62</course>
  <speed>0.02</speed>
  <fix>3d</fix>
</trkpt>
<trkpt lat="40.0728423" lon="-105.2305754">
  <ele>1593.0</ele>
  <time>2026-08-28T19:08:56Z</time>
  <course>12.15</course>
  <speed>0.03605551275463989</speed>
  <fix>3d</fix>
</trkpt>
<trkpt lat="40.0728425" lon="-105.2305756">
  <ele>1593.01</ele>
  <time>2026-08-28T19:08:56Z</time>
  <course>105.14</course>
  <speed>0.02</speed>
  <fix>3d</fix>
</trkpt>
<trkpt lat="40.0728423" lon="-105.2305753">
  <ele>1592.9</ele>
  <time>2026-08-28T19:08:56Z</time>
  <course>12.11</course>
  <speed>0.04242640687119285</speed>
  <fix>3d</fix>
</trkpt>
<trkpt lat="40.0728425" lon="-105.2305755">
  <ele>1592.91</ele>
  <time>2026-08-28T19:08:56Z</time>
  <course>112.62</course>
  <speed>0.02</speed>
  <fix>3d</fix>
</trkpt>
<trkpt lat="40.0728423" lon="-105.2305753">
  <ele>1592.8</ele>
  <time>2026-08-28T19:08:56Z</time>
  <course>12.09</course>
  <speed>0.04242640687119285</speed>
  <fix>3d</fix>
</trkpt>
<trkpt lat="40.0728425" lon="-105.2305755">
  <ele>1592.82</ele>
  <time>2026-08-28T19:08:56Z</time>
  <course>119.69</course>
  <speed>0.02</speed>
  <fix>3d</fix>
</trkpt>
<trkpt lat="40.0728423" lon="-105.2305753">
  <ele>1592.7</ele>
  <time>2026-08-28T19:08:56Z</time>
  <course>12.06</course>
  <speed>0.03605551275463989</speed>
  <fix>3d</fix>
</trkpt>
<trkpt lat="40.0728425" lon="-105.2305755">
  <ele>1592.72</ele>
  <time>2026-08-28T19:08:56Z</time>
  <course>126.58</course>
  <speed>0.02</speed>
  <fix>3d</fix>
</trkpt>
<trkpt lat="40.0728423" lon="-105.2305752">
  <ele>1592.61</ele>
  <time>2026-08-28T19:08:56Z</time>
  <course>12.04</course>
  <speed>0.03605551275463989</speed>
  <fix>3d</fix>
</trkpt>
<trkpt lat="40.0728425" lon="-105.2305754">
  <ele>1592.62</ele>
  <time>2026-08-28T19:08:56Z</time>
  <course>133.21</course>
  <speed>0.02</speed>
  <fix>3d</fix>
</trkpt>
<trkpt lat="40.0728423" lon="-105.2305752">
  <ele>1592.51</ele>
  <time>2026-08-28T19:08:56Z</time>
  <course>12.06</course>
  <speed>0.03605551275463989</speed>
  <fix>3d</fix>
</trkpt>
<trkpt lat="40.0728425" lon="-105.2305753">
  <ele>1592.52</ele>
  <time>2026-08-28T19:08:56Z</time>
  <course>140.45</course>
  <speed>0.01</speed>
  <fix>3d</fix>
</trkpt>
<trkpt lat="40.0728423" lon="-105.2305752">
  <ele>1592.41</ele>
  <time>2026-08-28T19:08:56Z</time>
  <course>12.08</course>
  <speed>0.03605551275463989</speed>
  <fix>3d</fix>
</trkpt>
<trkpt lat="40.0728425" lon="-105.2305753">
  <ele>1592.42</ele>
  <time>2026-08-28T19:08:56Z</time>
  <course>148.07</course>
  <speed>0.01</speed>
  <fix>3d</fix>
</trkpt>
<trkpt lat="40.0728423" lon="-105.2305752">
  <ele>1592.31</ele>
  <time>2026-08-28T19:08:56Z</time>
  <course>12.07</course>
  <speed>0.03605551275463989</speed>
  <fix>3d</fix>
</trkpt>
<trkpt lat="40.0728424" lon="-105.2305753">
  <ele>1592.33</ele>
  <time>2026-08-28T19:08:56Z</time>
  <course>155.51</course>
  <speed>0.01</speed>
  <fix>3d</fix>
</trkpt>
<trkpt lat="40.0728422" lon="-105.2305752">
  <ele>1592.22</ele>
  <time>2026-08-28T19:08:56Z</time>
  <course>12.07</course>
  <speed>0.0316227766016838</speed>
  <fix>3d</fix>
</trkpt>
<trkpt lat="40.0728424" lon="-105.2305753">
  <ele>1592.23</ele>
  <time>2026-08-28T19:08:56Z</time>
  <course>163.8</course>
  <speed>0.01</speed>
  <fix>3d</fix>
</trkpt>
<trkpt lat="40.0728422" lon="-105.2305752">
  <ele>1592.12</ele>
  <time>2026-08-28T19:08:56Z</time>
  <course>12.07</course>
  <speed>0.0316227766016838</speed>
  <fix>3d</fix>
</trkpt>
<trkpt lat="40.0728424" lon="-105.2305753">
  <ele>1592.13</ele>
  <time>2026-08-28T19:08:56Z</time>
  <course>172.69</course>
  <speed>0.01</speed>
  <fix>3d</fix>
</trkpt>
<trkpt lat="40.0728422" lon="-105.2305752">
  <ele>1592.02</ele>
  <time>2026-08-28T19:08:56Z</time>
  <course>12.05</course>
  <speed>0.0316227766016838</speed>
  <fix>3d</fix>
</trkpt>
<trkpt lat="40.0728423" lon="-105.2305753">
  <ele>1592.03</ele>
  <time>2026-08-28T19:08:56Z</time>
  <course>182.09</course>
  <speed>0.01</speed>
  <fix>3d</fix>
</trkpt>
<trkpt lat="40.0728422" lon="-105.2305752">
  <ele>1591.92</ele>
  <time>2026-08-28T19:08:56Z</time>
  <course>12.04</course>
  <speed>0.022360679774997897</speed>
  <fix>3d</fix>
</trkpt>
<trkpt lat="40.0728423" lon="-105.2305753">
  <ele>1591.92</ele>
  <time>2026-08-28T19:08:56Z</time>
  <course>191.53</course>
  <speed>0.01</speed>
  <fix>3d</fix>
</trkpt>
<trkpt lat="40.0728422" lon="-105.2305752">
  <ele>1591.82</ele>
  <time>2026-08-28T19:08:56Z</time>
  <course>12.04</course>
  <speed>0.02</speed>
  <fix>3d</fix>
</trkpt>
<trkpt lat="40.0728423" lon="-105.2305753">
  <ele>1591.82</ele>
  <time>2026-08-28T19:08:56Z</time>
  <course>200.07</course>
  <speed>0.01</speed>
  <fix>3d</fix>
</trkpt>
<trkpt lat="40.0728421" lon="-105.2305752">
  <ele>1591.71</ele>
  <time>2026-08-28T19:08:56Z</time>
  <course>12.02</course>
  <speed>0.02</speed>
  <fix>3d</fix>
</trkpt>
<trkpt lat="40.0728423" lon="-105.2305753">
  <ele>1591.72</ele>
  <time>2026-08-28T19:08:56Z</time>
  <course>208.28</course>
  <speed>0.01</speed>
  <fix>3d</fix>
</trkpt>
<trkpt lat="40.0728421" lon="-105.2305752">
  <ele>1591.61</ele>
  <time>2026-08-28T19:08:56Z</time>
  <course>12.0</course>
  <speed>0.02</speed>
  <fix>3d</fix>
</trkpt>
<trkpt lat="40.0728422" lon="-105.2305753">
  <ele>1591.62</ele>
  <time>2026-08-28T19:08:56Z</time>
  <course>216.43</course>
  <speed>0.01</speed>
  <fix>3d</fix>
</trkpt>
<trkpt lat="40.0728421" lon="-105.2305752">
  <ele>1591.51</ele>
  <time>2026-08-28T19:08:56Z</time>
  <course>11.95</course>
  <speed>0.02</speed>
  <fix>3d</fix>
</trkpt>
<trkpt lat="40.0728421" lon="-105.2305753">
  <ele>1591.52</ele>
  <time>2026-08-28T19:08:56Z</time>
  <course>224.02</course>
  <speed>0.01</speed>
  <fix>3d</fix>
</trkpt>
<trkpt lat="40.0728421" lon="-105.2305752">
  <ele>1591.4</ele>
  <time>2026-08-28T19:08:56Z</time>
  <course>11.94</course>
  <speed>0.02</speed>
  <fix>3d</fix>
</trkpt>
<trkpt lat="40.0728421" lon="-105.2305753">
  <ele>1591.41</ele>
  <time>2026-08-28T19:08:56Z</time>
  <course>230.72</course>
  <speed>0.01</speed>
  <fix>3d</fix>
</trkpt>
<trkpt lat="40.0728421" lon="-105.2305752">
  <ele>1591.3</ele>
  <time>2026-08-28T19:08:56Z</time>
  <course>11.91</course>
  <speed>0.02</speed>
  <fix>3d</fix>
</trkpt>
<trkpt lat="40.0728421" lon="-105.2305753">
  <ele>1591.32</ele>
  <time>2026-08-28T19:08:56Z</time>
  <course>238.68</course>
  <speed>0.01</speed>
  <fix>3d</fix>
</trkpt>
<trkpt lat="40.0728421" lon="-105.2305752">
  <ele>1591.21</ele>
  <time>2026-08-28T19:08:56Z</time>
  <course>11.89</course>
  <speed>0.01</speed>
  <fix>3d</fix>
</trkpt>
<trkpt lat="40.0728421" lon="-105.2305753">
  <ele>1591.22</ele>
  <time>2026-08-28T19:08:56Z</time>
  <course>250.31</course>
  <speed>0.01</speed>
  <fix>3d</fix>
</trkpt>
<trkpt lat="40.0728421" lon="-105.2305752">
  <ele>1591.11</ele>
  <time>2026-08-28T19:08:56Z</time>
  <course>11.91</course>
  <speed>0.01</speed>
  <fix>3d</fix>
</trkpt>
<trkpt lat="40.0728421" lon="-105.2305753">
  <ele>1591.12</ele>
  <time>2026-08-28T19:08:56Z</time>
  <course>263.68</course>
  <speed>0.01</speed>
  <fix>3d</fix>
</trkpt>
<trkpt lat="40.0728421" lon="-105.2305752">
  <ele>1591.01</ele>
  <time>2026-08-28T19:08:56Z</time>
  <course>11.86</course>
  <speed>0.01</speed>
  <fix>3d</fix>
</trkpt>
<trkpt lat="40.0728421" lon="-105.2305754">
  <ele>1591.02</ele>
  <time>2026-08-28T19:08:56Z</time>
  <course>276.38</course>
  <speed>0.01</speed>
  <fix>3d</fix>
</trkpt>
<trkpt lat="40.0728421" lon="-105.2305752">
  <ele>1590.91</ele>
  <time>2026-08-28T19:08:56Z</time>
  <course>11.88</course>
  <speed>0.01</speed>
  <fix>3d</fix>
</trkpt>
<trkpt lat="40.0728421" lon="-105.2305755">
  <ele>1590.91</ele>
  <time>2026-08-28T19:08:56Z</time>
  <course>286.3</course>
  <speed>0.01</speed>
  <fix>3d</fix>
</trkpt>
<trkpt lat="40.0728421" lon="-105.2305753">
  <ele>1590.81</ele>
  <time>2026-08-28T19:08:56Z</time>
  <course>11.86</course>
  <speed>0.01</speed>
  <fix>3d</fix>
</trkpt>
<trkpt lat="40.0728421" lon="-105.2305755">
  <ele>1590.82</ele>
  <time>2026-08-28T19:08:56Z</time>
  <course>293.56</course>
  <speed>0.01</speed>
  <fix>3d</fix>
</trkpt>
<trkpt lat="40.0728421" lon="-105.2305753">
  <ele>1590.71</ele>
  <time>2026-08-28T19:08:56Z</time>
  <course>11.84</course>
  <speed>0.0</speed>
  <fix>3d</fix>
</trkpt>
<trkpt lat="40.0728421" lon="-105.2305755">
  <ele>1590.72</ele>
  <time>2026-08-28T19:08:56Z</time>
  <course>300.02</course>
  <speed>0.01</speed>
  <fix>3d</fix>
</trkpt>
<trkpt lat="40.0728421" lon="-105.2305753">
  <ele>1590.61</ele>
  <time>2026-08-28T19:08:56Z</time>
  <course>11.83</course>
  <speed>0.0</speed>
  <fix>3d</fix>
</trkpt>
<trkpt lat="40.0728421" lon="-105.2305755">
  <ele>1590.62</ele>
  <time>2026-08-28T19:08:56Z</time>
  <course>306.7</course>
  <speed>0.01</speed>
  <fix>3d</fix>
</trkpt>
<trkpt lat="40.0728421" lon="-105.2305753">
  <ele>1590.51</ele>
  <time>2026-08-28T19:08:56Z</time>
  <course>11.84</course>
  <speed>0.0</speed>
  <fix>3d</fix>
</trkpt>
<trkpt lat="40.0728421" lon="-105.2305756">
  <ele>1590.52</ele>
  <time>2026-08-28T19:08:56Z</time>
  <course>313.76</course>
  <speed>0.01</speed>
  <fix>3d</fix>
</trkpt>
<trkpt lat="40.0728421" lon="-105.2305754">
  <ele>1590.41</ele>
  <time>2026-08-28T19:08:56Z</time>
  <course>11.84</course>
  <speed>0.01</speed>
  <fix>3d</fix>
</trkpt>
<trkpt lat="40.0728421" lon="-105.2305756">
  <ele>1590.41</ele>
  <time>2026-08-28T19:08:56Z</time>
  <course>321.26</course>
  <speed>0.01</speed>
  <fix>3d</fix>
</trkpt>
<trkpt lat="40.0728421" lon="-105.2305754">
  <ele>1590.31</ele>
  <time>2026-08-28T19:08:56Z</time>
  <course>11.82</course>
  <speed>0.01</speed>
  <fix>3d</fix>
</trkpt>
<trkpt lat="40.0728421" lon="-105.2305756">
  <ele>1590.32</ele>
  <time>2026-08-28T19:08:56Z</time>
  <course>329.17</course>
  <speed>0.01</speed>
  <fix>3d</fix>
</trkpt>
<trkpt lat="40.0728421" lon="-105.2305754">
  <ele>1590.21</ele>
  <time>2026-08-28T19:08:56Z</time>
  <course>11.82</course>
  <speed>0.01</speed>
  <fix>3d</fix>
</trkpt>
<trkpt lat="40.0728421" lon="-105.2305756">
  <ele>1590.22</ele>
  <time>2026-08-28T19:08:56Z</time>
  <course>337.01</course>
  <speed>0.01</speed>
  <fix>3d</fix>
</trkpt>
<trkpt lat="40.0728421" lon="-105.2305754">
  <ele>1590.11</ele>
  <time>2026-08-28T19:08:56Z</time>
  <course>11.81</course>
  <speed>0.01</speed>
  <fix>3d</fix>
</trkpt>
<trkpt lat="40.0728422" lon="-105.2305756">
  <ele>1590.12</ele>
  <time>2026-08-28T19:08:56Z</time>
  <course>344.31</course>
  <speed>0.01</speed>
  <fix>3d</fix>
</trkpt>
<trkpt lat="40.0728421" lon="-105.2305754">
  <ele>1590.01</ele>
  <time>2026-08-28T19:08:56Z</time>
  <course>11.81</course>
  <speed>0.02</speed>
  <fix>3d</fix>
</trkpt>
<trkpt lat="40.0728423" lon="-105.2305756">
  <ele>1590.02</ele>
  <time>2026-08-28T19:08:56Z</time>
  <course>352.02</course>
  <speed>0.01</speed>
  <fix>3d</fix>
</trkpt>
<trkpt lat="40.0728421" lon="-105.2305754">
  <ele>1589.91</ele>
  <time>2026-08-28T19:08:56Z</time>
  <course>11.81</course>
  <speed>0.02</speed>
  <fix>3d</fix>
</trkpt>
<trkpt lat="40.0728423" lon="-105.2305756">
  <ele>1589.91</ele>
  <time>2026-08-28T19:08:56Z</time>
  <course>359.65</course>
  <speed>0.01</speed>
  <fix>3d</fix>
</trkpt>
<trkpt lat="40.0728421" lon="-105.2305754">
  <ele>1589.81</ele>
  <time>2026-08-28T19:08:56Z</time>
  <course>11.8</course>
  <speed>0.02</speed>
  <fix>3d</fix>
</trkpt>
<trkpt lat="40.0728423" lon="-105.2305756">
  <ele>1589.82</ele>
  <time>2026-08-28T19:08:56Z</time>
  <course>5.81</course>
  <speed>0.01</speed>
  <fix>3d</fix>
</trkpt>
<trkpt lat="40.0728422" lon="-105.2305754">
  <ele>1589.71</ele>
  <time>2026-08-28T19:08:56Z</time>
  <course>11.81</course>
  <speed>0.02</speed>
  <fix>3d</fix>
</trkpt>
<trkpt lat="40.0728424" lon="-105.2305756">
  <ele>1589.72</ele>
  <time>2026-08-28T19:08:56Z</time>
  <course>12.0</course>
  <speed>0.01</speed>
  <fix>3d</fix>
</trkpt>
<trkpt lat="40.0728422" lon="-105.2305754">
  <ele>1589.61</ele>
  <time>2026-08-28T19:08:56Z</time>
  <course>11.79</course>
  <speed>0.02</speed>
  <fix>3d</fix>
</trkpt>
<trkpt lat="40.0728424" lon="-105.2305756">
  <ele>1589.62</ele>
  <time>2026-08-28T19:08:56Z</time>
  <course>19.66</course>
  <speed>0.01</speed>
  <fix>3d</fix>
</trkpt>
<trkpt lat="40.0728422" lon="-105.2305754">
  <ele>1589.5</ele>
  <time>2026-08-28T19:08:56Z</time>
  <course>11.77</course>
  <speed>0.022360679774997897</speed>
  <fix>3d</fix>
</trkpt>
<trkpt lat="40.0728424" lon="-105.2305756">
  <ele>1589.52</ele>
  <time>2026-08-28T19:08:56Z</time>
  <course>28.51</course>
  <speed>0.01</speed>
  <fix>3d</fix>
</trkpt>
<trkpt lat="40.0728422" lon="-105.2305754">
  <ele>1589.4</ele>
  <time>2026-08-28T19:08:56Z</time>
  <course>11.74</course>
  <speed>0.022360679774997897</speed>
  <fix>3d</fix>
</trkpt>
<trkpt lat="40.0728424" lon="-105.2305756">
  <ele>1589.41</ele>
  <time>2026-08-28T19:08:56Z</time>
  <course>39.55</course>
  <speed>0.01</speed>
  <fix>3d</fix>
</trkpt>
<trkpt lat="40.0728422" lon="-105.2305754">
  <ele>1589.3</ele>
  <time>2026-08-28T19:08:56Z</time>
  <course>11.71</course>
  <speed>0.022360679774997897</speed>
  <fix>3d</fix>
</trkpt>
<trkpt lat="40.0728424" lon="-105.2305756">
  <ele>1589.32</ele>
  <time>2026-08-28T19:08:56Z</time>
  <course>54.66</course>
  <speed>0.0</speed>
  <fix>3d</fix>
</trkpt>
<trkpt lat="40.0728423" lon="-105.2305754">
  <ele>1589.2</ele>
  <time>2026-08-28T19:08:56Z</time>
  <course>11.69</course>
  <speed>0.0282842712474619</speed>
  <fix>3d</fix>
</trkpt>
<trkpt lat="40.0728424" lon="-105.2305756">
  <ele>1589.22</ele>
  <time>2026-08-28T19:08:56Z</time>
  <course>74.61</course>
  <speed>0.0</speed>
  <fix>3d</fix>
</trkpt>
<trkpt lat="40.0728423" lon="-105.2305754">
  <ele>1589.11</ele>
  <time>2026-08-28T19:08:56Z</time>
  <course>11.74</course>
  <speed>0.0282842712474619</speed>
  <fix>3d</fix>
</trkpt>
<trkpt lat="40.0728424" lon="-105.2305756">
  <ele>1589.12</ele>
  <time>2026-08-28T19:08:56Z</time>
  <course>96.16</course>
  <speed>0.0</speed>
  <fix>3d</fix>
</trkpt>
<trkpt lat="40.0728423" lon="-105.2305754">
  <ele>1589.01</ele>
  <time>2026-08-28T19:08:56Z</time>
  <course>11.72</course>
  <speed>0.0282842712474619</speed>
  <fix>3d</fix>
</trkpt>
<trkpt lat="40.0728424" lon="-105.2305756">
  <ele>1589.02</ele>
  <time>2026-08-28T19:08:56Z</time>
  <course>113.29</course>
  <speed>0.0</speed>
  <fix>3d</fix>
</trkpt>
<trkpt lat="40.0728423" lon="-105.2305754">
  <ele>1588.91</ele>
  <time>2026-08-28T19:08:56Z</time>
  <course>11.71</course>
  <speed>0.0282842712474619</speed>
  <fix>3d</fix>
</trkpt>
<trkpt lat="40.0728424" lon="-105.2305756">
  <ele>1588.92</ele>
  <time>2026-08-28T19:08:56Z</time>
  <course>122.67</course>
  <speed>0.01</speed>
  <fix>3d</fix>
</trkpt>
<trkpt lat="40.0728423" lon="-105.2305754">
  <ele>1588.81</ele>
  <time>2026-08-28T19:08:56Z</time>
  <course>11.72</course>
  <speed>0.0282842712474619</speed>
  <fix>3d</fix>
</trkpt>
<trkpt lat="40.0728424" lon="-105.2305756">
  <ele>1588.83</ele>
  <time>2026-08-28T19:08:56Z</time>
  <course>127.44</course>
  <speed>0.01</speed>
  <fix>3d</fix>
</trkpt>
<trkpt lat="40.0728423" lon="-105.2305753">
  <ele>1588.71</ele>
  <time>2026-08-28T19:08:56Z</time>
  <course>11.73</course>
  <speed>0.0282842712474619</speed>
  <fix>3d</fix>
</trkpt>
<trkpt lat="40.0728424" lon="-105.2305756">
  <ele>1588.73</ele>
  <time>2026-08-28T19:08:56Z</time>
  <course>130.45</course>
  <speed>0.01</speed>
  <fix>3d</fix>
</trkpt>
<trkpt lat="40.0728423" lon="-105.2305753">
  <ele>1588.61</ele>
  <time>2026-08-28T19:08:56Z</time>
  <course>11.73</course>
  <speed>0.0282842712474619</speed>
  <fix>3d</fix>
</trkpt>
<trkpt lat="40.0728424" lon="-105.2305756">
  <ele>1588.63</ele>
  <time>2026-08-28T19:08:56Z</time>
  <course>133.74</course>
  <speed>0.01</speed>
  <fix>3d</fix>
</trkpt>
<trkpt lat="40.0728423" lon="-105.2305753">
  <ele>1588.51</ele>
  <time>2026-08-28T19:08:56Z</time>
  <course>11.73</course>
  <speed>0.0282842712474619</speed>
  <fix>3d</fix>
</trkpt>
<trkpt lat="40.0728424" lon="-105.2305756">
  <ele>1588.53</ele>
  <time>2026-08-28T19:08:56Z</time>
  <course>137.52</course>
  <speed>0.01</speed>
  <fix>3d</fix>
</trkpt>
<trkpt lat="40.0728423" lon="-105.2305753">
  <ele>1588.41</ele>
  <time>2026-08-28T19:08:56Z</time>
  <course>11.73</course>
  <speed>0.0282842712474619</speed>
  <fix>3d</fix>
</trkpt>
<trkpt lat="40.0728424" lon="-105.2305755">
  <ele>1588.42</ele>
  <time>2026-08-28T19:08:56Z</time>
  <course>139.22</course>
  <speed>0.01</speed>
  <fix>3d</fix>
</trkpt>
<trkpt lat="40.0728422" lon="-105.2305753">
  <ele>1588.31</ele>
  <time>2026-08-28T19:08:56Z</time>
  <course>11.71</course>
  <speed>0.0282842712474619</speed>
  <fix>3d</fix>
</trkpt>
<trkpt lat="40.0728424" lon="-105.2305755">
  <ele>1588.32</ele>
  <time>2026-08-28T19:08:56Z</time>
  <course>140.51</course>
  <speed>0.01</speed>
  <fix>3d</fix>
</trkpt>
<trkpt lat="40.0728422" lon="-105.2305753">
  <ele>1588.21</ele>
  <time>2026-08-28T19:08:56Z</time>
  <course>11.7</course>
  <speed>0.0282842712474619</speed>
  <fix>3d</fix>
</trkpt>
<trkpt lat="40.0728424" lon="-105.2305755">
  <ele>1588.22</ele>
  <time>2026-08-28T19:08:56Z</time>
  <course>143.33</course>
  <speed>0.0</speed>
  <fix>3d</fix>
</trkpt>
<trkpt lat="40.0728422" lon="-105.2305753">
  <ele>1588.11</ele>
  <time>2026-08-28T19:08:56Z</time>
  <course>11.66</course>
  <speed>0.0282842712474619</speed>
  <fix>3d</fix>
</trkpt>
<trkpt lat="40.0728424" lon="-105.2305755">
  <ele>1588.12</ele>
  <time>2026-08-28T19:08:56Z</time>
  <course>147.26</course>
  <speed>0.0</speed>
  <fix>3d</fix>
</trkpt>
<trkpt lat="40.0728422" lon="-105.2305753">
  <ele>1588.01</ele>
  <time>2026-08-28T19:08:56Z</time>
  <course>11.68</course>
  <speed>0.022360679774997897</speed>
  <fix>3d</fix>
</trkpt>
<trkpt lat="40.0728424" lon="-105.2305755">
  <ele>1588.02</ele>
  <time>2026-08-28T19:08:56Z</time>
  <course>153.34</course>
  <speed>0.0</speed>
  <fix>3d</fix>
</trkpt>
<trkpt lat="40.0728422" lon="-105.2305753">
  <ele>1587.91</ele>
  <time>2026-08-28T19:08:56Z</time>
  <course>11.68</course>
  <speed>0.022360679774997897</speed>
  <fix>3d</fix>
</trkpt>
<trkpt lat="40.0728424" lon="-105.2305755">
  <ele>1587.91</ele>
  <time>2026-08-28T19:08:56Z</time>
  <course>159.6</course>
  <speed>0.0</speed>
  <fix>3d</fix>
</trkpt>
<trkpt lat="40.0728422" lon="-105.2305753">
  <ele>1587.81</ele>
  <time>2026-08-28T19:08:56Z</time>
  <course>11.66</course>
  <speed>0.022360679774997897</speed>
  <fix>3d</fix>
</trkpt>
<trkpt lat="40.0728424" lon="-105.2305755">
  <ele>1587.82</ele>
  <time>2026-08-28T19:08:56Z</time>
  <course>165.39</course>
  <speed>0.0</speed>
  <fix>3d</fix>
</trkpt>
<trkpt lat="40.0728422" lon="-105.2305753">
  <ele>1587.71</ele>
  <time>2026-08-28T19:08:56Z</time>
  <course>11.65</course>
  <speed>0.022360679774997897</speed>
  <fix>3d</fix>
</trkpt>
<trkpt lat="40.0728424" lon="-105.2305755">
  <ele>1587.72</ele>
  <time>2026-08-28T19:08:56Z</time>
  <course>169.57</course>
  <speed>0.0</speed>
  <fix>3d</fix>
</trkpt>
<trkpt lat="40.0728422" lon="-105.2305753">
  <ele>1587.61</ele>
  <time>2026-08-28T19:08:56Z</time>
  <course>11.64</course>
  <speed>0.022360679774997897</speed>
  <fix>3d</fix>
</trkpt>
<trkpt lat="40.0728423" lon="-105.2305755">
  <ele>1587.62</ele>
  <time>2026-08-28T19:08:56Z</time>
  <course>171.61</course>
  <speed>0.0</speed>
  <fix>3d</fix>
</trkpt>
<trkpt lat="40.0728422" lon="-105.2305753">
  <ele>1587.51</ele>
  <time>2026-08-28T19:08:56Z</time>
  <course>11.64</course>
  <speed>0.022360679774997897</speed>
  <fix>3d</fix>
</trkpt>
<trkpt lat="40.0728423" lon="-105.2305755">
  <ele>1587.52</ele>
  <time>2026-08-28T19:08:56Z</time>
  <course>174.65</course>
  <speed>0.0</speed>
  <fix>3d</fix>
</trkpt>
<trkpt lat="40.0728422" lon="-105.2305753">
  <ele>1587.41</ele>
  <time>2026-08-28T19:08:56Z</time>
  <course>11.63</course>
  <speed>0.022360679774997897</speed>
  <fix>3d</fix>
</trkpt>
<trkpt lat="40.0728423" lon="-105.2305755">
  <ele>1587.41</ele>
  <time>2026-08-28T19:08:56Z</time>
  <course>176.43</course>
  <speed>0.0</speed>
  <fix>3d</fix>
</trkpt>
<trkpt lat="40.0728422" lon="-105.2305753">
  <ele>1587.31</ele>
  <time>2026-08-28T19:08:56Z</time>
  <course>11.62</course>
  <speed>0.022360679774997897</speed>
  <fix>3d</fix>
</trkpt>
<trkpt lat="40.0728423" lon="-105.2305755">
  <ele>1587.32</ele>
  <time>2026-08-28T19:08:56Z</time>
  <course>175.61</course>
  <speed>0.0</speed>
  <fix>3d</fix>
</trkpt>
<trkpt lat="40.0728422" lon="-105.2305754">
  <ele>1587.21</ele>
  <time>2026-08-28T19:08:56Z</time>
  <course>11.62</course>
  <speed>0.022360679774997897</speed>
  <fix>3d</fix>
</trkpt>
<trkpt lat="40.0728423" lon="-105.2305755">
  <ele>1587.22</ele>
  <time>2026-08-28T19:08:56Z</time>
  <course>173.95</course>
  <speed>0.0</speed>
  <fix>3d</fix>
</trkpt>
<trkpt lat="40.0728422" lon="-105.2305754">
  <ele>1587.11</ele>
  <time>2026-08-28T19:08:56Z</time>
  <course>11.62</course>
  <speed>0.022360679774997897</speed>
  <fix>3d</fix>
</trkpt>
<trkpt lat="40.0728423" lon="-105.2305755">
  <ele>1587.12</ele>
  <time>2026-08-28T19:08:56Z</time>
  <course>171.33</course>
  <speed>0.0</speed>
  <fix>3d</fix>
</trkpt>
<trkpt lat="40.0728422" lon="-105.2305754">
  <ele>1587.01</ele>
  <time>2026-08-28T19:08:57Z</time>
  <course>11.63</course>
  <speed>0.01414213562373095</speed>
  <fix>3d</fix>
</trkpt>
<trkpt lat="40.0728423" lon="-105.2305755">
  <ele>1587.02</ele>
  <time>2026-08-28T19:08:57Z</time>
  <course>169.0</course>
  <speed>0.0</speed>
  <fix>3d</fix>
</trkpt>
<trkpt lat="40.0728422" lon="-105.2305754">
  <ele>1586.92</ele>
  <time>2026-08-28T19:08:57Z</time>
  <course>11.63</course>
  <speed>0.01414213562373095</speed>
  <fix>3d</fix>
</trkpt>
<trkpt lat="40.0728423" lon="-105.2305755">
  <ele>1586.91</ele>
  <time>2026-08-28T19:08:57Z</time>
  <course>168.7</course>
  <speed>0.0</speed>
  <fix>3d</fix>
</trkpt>
<trkpt lat="40.0728422" lon="-105.2305754">
  <ele>1586.82</ele>
  <time>2026-08-28T19:08:57Z</time>
  <course>11.64</course>
  <speed>0.01414213562373095</speed>
  <fix>3d</fix>
</trkpt>
<trkpt lat="40.0728423" lon="-105.2305755">
  <ele>1586.82</ele>
  <time>2026-08-28T19:08:57Z</time>
  <course>167.97</course>
  <speed>0.0</speed>
  <fix>3d</fix>
</trkpt>
<trkpt lat="40.0728422" lon="-105.2305754">
  <ele>1586.71</ele>
  <time>2026-08-28T19:08:57Z</time>
  <course>11.64</course>
  <speed>0.01414213562373095</speed>
  <fix>3d</fix>
</trkpt>
<trkpt lat="40.0728423" lon="-105.2305755">
  <ele>1586.72</ele>
  <time>2026-08-28T19:08:57Z</time>
  <course>171.9</course>
  <speed>0.0</speed>
  <fix>3d</fix>
</trkpt>
<trkpt lat="40.0728422" lon="-105.2305754">
  <ele>1586.61</ele>
  <time>2026-08-28T19:08:57Z</time>
  <course>11.62</course>
  <speed>0.01414213562373095</speed>
  <fix>3d</fix>
</trkpt>
<trkpt lat="40.0728423" lon="-105.2305755">
  <ele>1586.62</ele>
  <time>2026-08-28T19:08:57Z</time>
  <course>189.42</course>
  <speed>0.0</speed>
  <fix>3d</fix>
</trkpt>
<trkpt lat="40.0728422" lon="-105.2305754">
  <ele>1586.51</ele>
  <time>2026-08-28T19:08:57Z</time>
  <course>11.61</course>
  <speed>0.01414213562373095</speed>
  <fix>3d</fix>
</trkpt>
<trkpt lat="40.0728423" lon="-105.2305755">
  <ele>1586.52</ele>
  <time>2026-08-28T19:08:57Z</time>
  <course>203.6</course>
  <speed>0.0</speed>
  <fix>3d</fix>
</trkpt>
<trkpt lat="40.0728422" lon="-105.2305754">
  <ele>1586.41</ele>
  <time>2026-08-28T19:08:57Z</time>
  <course>11.6</course>
  <speed>0.01414213562373095</speed>
  <fix>3d</fix>
</trkpt>
<trkpt lat="40.0728423" lon="-105.2305755">
  <ele>1586.41</ele>
  <time>2026-08-28T19:08:57Z</time>
  <course>211.07</course>
  <speed>0.0</speed>
  <fix>3d</fix>
</trkpt>
<trkpt lat="40.0728422" lon="-105.2305754">
  <ele>1586.3</ele>
  <time>2026-08-28T19:08:57Z</time>
  <course>11.59</course>
  <speed>0.01414213562373095</speed>
  <fix>3d</fix>
</trkpt>
<trkpt lat="40.0728423" lon="-105.2305755">
  <ele>1586.32</ele>
  <time>2026-08-28T19:08:57Z</time>
  <course>211.68</course>
  <speed>0.0</speed>
  <fix>3d</fix>
</trkpt>
<trkpt lat="40.0728422" lon="-105.2305754">
  <ele>1586.2</ele>
  <time>2026-08-28T19:08:57Z</time>
  <course>11.58</course>
  <speed>0.01414213562373095</speed>
  <fix>3d</fix>
</trkpt>
<trkpt lat="40.0728422" lon="-105.2305755">
  <ele>1586.22</ele>
  <time>2026-08-28T19:08:57Z</time>
  <course>203.23</course>
  <speed>0.0</speed>
  <fix>3d</fix>
</trkpt>
<trkpt lat="40.0728422" lon="-105.2305754">
  <ele>1586.14</ele>
  <time>2026-08-28T19:08:57Z</time>
  <course>11.57</course>
  <speed>0.01</speed>
  <fix>3d</fix>
</trkpt>
<trkpt lat="40.0728421" lon="-105.2305755">
  <ele>1586.12</ele>
  <time>2026-08-28T19:08:57Z</time>
  <course>272.25</course>
  <speed>0.01</speed>
  <fix>3d</fix>
</trkpt>
<trkpt lat="40.0728422" lon="-105.2305754">
  <ele>1586.17</ele>
  <time>2026-08-28T19:08:57Z</time>
  <course>11.61</course>
  <speed>0.01414213562373095</speed>
  <fix>3d</fix>
</trkpt>
<trkpt lat="40.0728421" lon="-105.2305755">
  <ele>1586.07</ele>
  <time>2026-08-28T19:08:57Z</time>
  <course>285.07</course>
  <speed>0.01</speed>
  <fix>3d</fix>
</trkpt>
<trkpt lat="40.0728422" lon="-105.2305754">
  <ele>1586.17</ele>
  <time>2026-08-28T19:08:57Z</time>
  <course>11.65</course>
  <speed>0.022360679774997897</speed>
  <fix>3d</fix>
</trkpt>
<trkpt lat="40.0728421" lon="-105.2305755">
  <ele>1586.09</ele>
  <time>2026-08-28T19:08:57Z</time>
  <course>321.11</course>
  <speed>0.0</speed>
  <fix>3d</fix>
</trkpt>
<trkpt lat="40.0728422" lon="-105.2305754">
  <ele>1586.16</ele>
  <time>2026-08-28T19:08:57Z</time>
  <course>11.7</course>
  <speed>0.01414213562373095</speed>
  <fix>3d</fix>
</trkpt>
<trkpt lat="40.0728421" lon="-105.2305755">
  <ele>1586.1</ele>
  <time>2026-08-28T19:08:57Z</time>
  <course>93.4</course>
  <speed>0.0</speed>
  <fix>3d</fix>
</trkpt>
<trkpt lat="40.0728421" lon="-105.2305754">
  <ele>1586.16</ele>
  <time>2026-08-28T19:08:57Z</time>
  <course>11.76</course>
  <speed>0.01414213562373095</speed>
  <fix>3d</fix>
</trkpt>
<trkpt lat="40.0728421" lon="-105.2305755">
  <ele>1586.09</ele>
  <time>2026-08-28T19:08:57Z</time>
  <course>329.83</course>
  <speed>0.0</speed>
  <fix>3d</fix>
</trkpt>
<trkpt lat="40.0728421" lon="-105.2305754">
  <ele>1586.17</ele>
  <time>2026-08-28T19:08:57Z</time>
  <course>11.86</course>
  <speed>0.022360679774997897</speed>
  <fix>3d</fix>
</trkpt>
<trkpt lat="40.0728421" lon="-105.2305755">
  <ele>1586.09</ele>
  <time>2026-08-28T19:08:57Z</time>
  <course>332.89</course>
  <speed>0.0</speed>
  <fix>3d</fix>
</trkpt>
<trkpt lat="40.0728421" lon="-105.2305754">
  <ele>1586.17</ele>
  <time>2026-08-28T19:08:57Z</time>
  <course>11.98</course>
  <speed>0.022360679774997897</speed>
  <fix>3d</fix>
</trkpt>
<trkpt lat="40.0728421" lon="-105.2305755">
  <ele>1586.09</ele>
  <time>2026-08-28T19:08:57Z</time>
  <course>4.38</course>
  <speed>0.0</speed>
  <fix>3d</fix>
</trkpt>
<trkpt lat="40.0728421" lon="-105.2305754">
  <ele>1586.17</ele>
  <time>2026-08-28T19:08:57Z</time>
  <course>12.11</course>
  <speed>0.022360679774997897</speed>
  <fix>3d</fix>
</trkpt>
<trkpt lat="40.0728421" lon="-105.2305755">
  <ele>1586.09</ele>
  <time>2026-08-28T19:08:57Z</time>
  <course>1.34</course>
  <speed>0.0</speed>
  <fix>3d</fix>
</trkpt>
<trkpt lat="40.0728421" lon="-105.2305754">
  <ele>1586.17</ele>
  <time>2026-08-28T19:08:57Z</time>
  <course>12.24</course>
  <speed>0.022360679774997897</speed>
  <fix>3d</fix>
</trkpt>
<trkpt lat="40.0728421" lon="-105.2305755">
  <ele>1586.09</ele>
  <time>2026-08-28T19:08:57Z</time>
  <course>337.92</course>
  <speed>0.0</speed>
  <fix>3d</fix>
</trkpt>
<trkpt lat="40.0728421" lon="-105.2305754">
  <ele>1586.17</ele>
  <time>2026-08-28T19:08:57Z</time>
  <course>12.37</course>
  <speed>0.022360679774997897</speed>
  <fix>3d</fix>
</trkpt>
<trkpt lat="40.0728421" lon="-105.2305755">
  <ele>1586.09</ele>
  <time>2026-08-28T19:08:57Z</time>
  <course>330.82</course>
  <speed>0.0</speed>
  <fix>3d</fix>
</trkpt>
<trkpt lat="40.0728421" lon="-105.2305754">
  <ele>1586.17</ele>
  <time>2026-08-28T19:08:57Z</time>
  <course>12.5</course>
  <speed>0.022360679774997897</speed>
  <fix>3d</fix>
</trkpt>
<trkpt lat="40.0728421" lon="-105.2305755">
  <ele>1586.09</ele>
  <time>2026-08-28T19:08:57Z</time>
  <course>358.93</course>
  <speed>0.0</speed>
  <fix>3d</fix>
</trkpt>
<trkpt lat="40.072842" lon="-105.2305754">
  <ele>1586.17</ele>
  <time>2026-08-28T19:08:57Z</time>
  <course>12.62</course>
  <speed>0.022360679774997897</speed>
  <fix>3d</fix>
</trkpt>
<trkpt lat="40.0728421" lon="-105.2305755">
  <ele>1586.09</ele>
  <time>2026-08-28T19:08:57Z</time>
  <course>344.45</course>
  <speed>0.0</speed>
  <fix>3d</fix>
</trkpt>
<trkpt lat="40.072842" lon="-105.2305754">
  <ele>1586.17</ele>
  <time>2026-08-28T19:08:57Z</time>
  <course>12.77</course>
  <speed>0.022360679774997897</speed>
  <fix>3d</fix>
</trkpt>
<trkpt lat="40.0728421" lon="-105.2305755">
  <ele>1586.09</ele>
  <time>2026-08-28T19:08:57Z</time>
  <course>256.99</course>
  <speed>0.0</speed>
  <fix>3d</fix>
</trkpt>
<trkpt lat="40.072842" lon="-105.2305754">
  <ele>1586.18</ele>
  <time>2026-08-28T19:08:57Z</time>
  <course>12.93</course>
  <speed>0.022360679774997897</speed>
  <fix>3d</fix>
</trkpt>
<trkpt lat="40.0728421" lon="-105.2305755">
  <ele>1586.09</ele>
  <time>2026-08-28T19:08:57Z</time>
  <course>246.82</course>
  <speed>0.0</speed>
  <fix>3d</fix>
</trkpt>
<trkpt lat="40.072842" lon="-105.2305754">
  <ele>1586.18</ele>
  <time>2026-08-28T19:08:57Z</time>
  <course>13.08</course>
  <speed>0.022360679774997897</speed>
  <fix>3d</fix>
</trkpt>
<trkpt lat="40.0728421" lon="-105.2305755">
  <ele>1586.09</ele>
  <time>2026-08-28T19:08:57Z</time>
  <course>249.55</course>
  <speed>0.0</speed>
  <fix>3d</fix>
</trkpt>
<trkpt lat="40.072842" lon="-105.2305754">
  <ele>1586.18</ele>
  <time>2026-08-28T19:08:57Z</time>
  <course>13.22</course>
  <speed>0.022360679774997897</speed>
  <fix>3d</fix>
</trkpt>
<trkpt lat="40.0728421" lon="-105.2305755">
  <ele>1586.09</ele>
  <time>2026-08-28T19:08:57Z</time>
  <course>259.09</course>
  <speed>0.0</speed>
  <fix>3d</fix>
</trkpt>
<trkpt lat="40.072842" lon="-105.2305754">
  <ele>1586.18</ele>
  <time>2026-08-28T19:08:57Z</time>
  <course>13.35</course>
  <speed>0.022360679774997897</speed>
  <fix>3d</fix>
</trkpt>
<trkpt lat="40.0728421" lon="-105.2305755">
  <ele>1586.09</ele>
  <time>2026-08-28T19:08:57Z</time>
  <course>258.42</course>
  <speed>0.0</speed>
  <fix>3d</fix>
</trkpt>
<trkpt lat="40.072842" lon="-105.2305754">
  <ele>1586.18</ele>
  <time>2026-08-28T19:08:57Z</time>
  <course>13.46</course>
  <speed>0.022360679774997897</speed>
  <fix>3d</fix>
</trkpt>
<trkpt lat="40.0728421" lon="-105.2305755">
  <ele>1586.09</ele>
  <time>2026-08-28T19:08:57Z</time>
  <course>256.5</course>
  <speed>0.0</speed>
  <fix>3d</fix>
</trkpt>
<trkpt lat="40.072842" lon="-105.2305754">
  <ele>1586.18</ele>
  <time>2026-08-28T19:08:57Z</time>
  <course>13.56</course>
  <speed>0.022360679774997897</speed>
  <fix>3d</fix>
</trkpt>
<trkpt lat="40.0728421" lon="-105.2305755">
  <ele>1586.09</ele>
  <time>2026-08-28T19:08:57Z</time>
  <course>261.59</course>
  <speed>0.0</speed>
  <fix>3d</fix>
</trkpt>
<trkpt lat="40.072842" lon="-105.2305754">
  <ele>1586.18</ele>
  <time>2026-08-28T19:08:57Z</time>
  <course>13.65</course>
  <speed>0.022360679774997897</speed>
  <fix>3d</fix>
</trkpt>
<trkpt lat="40.0728421" lon="-105.2305755">
  <ele>1586.09</ele>
  <time>2026-08-28T19:08:57Z</time>
  <course>280.88</course>
  <speed>0.0</speed>
  <fix>3d</fix>
</trkpt>
<trkpt lat="40.072842" lon="-105.2305754">
  <ele>1586.18</ele>
  <time>2026-08-28T19:08:57Z</time>
  <course>13.74</course>
  <speed>0.022360679774997897</speed>
  <fix>3d</fix>
</trkpt>
<trkpt lat="40.0728421" lon="-105.2305755">
  <ele>1586.09</ele>
  <time>2026-08-28T19:08:57Z</time>
  <course>287.89</course>
  <speed>0.0</speed>
  <fix>3d</fix>
</trkpt>
<trkpt lat="40.072842" lon="-105.2305754">
  <ele>1586.18</ele>
  <time>2026-08-28T19:08:57Z</time>
  <course>13.82</course>
  <speed>0.022360679774997897</speed>
  <fix>3d</fix>
</trkpt>
<trkpt lat="40.0728421" lon="-105.2305755">
  <ele>1586.09</ele>
  <time>2026-08-28T19:08:57Z</time>
  <course>288.07</course>
  <speed>0.0</speed>
  <fix>3d</fix>
</trkpt>
<trkpt lat="40.072842" lon="-105.2305754">
  <ele>1586.19</ele>
  <time>2026-08-28T19:08:57Z</time>
  <course>13.89</course>
  <speed>0.022360679774997897</speed>
  <fix>3d</fix>
</trkpt>
<trkpt lat="40.0728421" lon="-105.2305755">
  <ele>1586.09</ele>
  <time>2026-08-28T19:08:57Z</time>
  <course>286.66</course>
  <speed>0.0</speed>
  <fix>3d</fix>
</trkpt>
<trkpt lat="40.072842" lon="-105.2305754">
  <ele>1586.19</ele>
  <time>2026-08-28T19:08:57Z</time>
  <course>13.95</course>
  <speed>0.022360679774997897</speed>
  <fix>3d</fix>
</trkpt>
<trkpt lat="40.0728421" lon="-105.2305755">
  <ele>1586.09</ele>
  <time>2026-08-28T19:08:57Z</time>
  <course>286.44</course>
  <speed>0.0</speed>
  <fix>3d</fix>
</trkpt>
<trkpt lat="40.072842" lon="-105.2305754">
  <ele>1586.19</ele>
  <time>2026-08-28T19:08:57Z</time>
  <course>14.01</course>
  <speed>0.022360679774997897</speed>
  <fix>3d</fix>
</trkpt>
<trkpt lat="40.0728421" lon="-105.2305755">
  <ele>1586.09</ele>
  <time>2026-08-28T19:08:57Z</time>
  <course>286.33</course>
  <speed>0.0</speed>
  <fix>3d</fix>
</trkpt>
<trkpt lat="40.072842" lon="-105.2305754">
  <ele>1586.19</ele>
  <time>2026-08-28T19:08:57Z</time>
  <course>14.06</course>
  <speed>0.022360679774997897</speed>
  <fix>3d</fix>
</trkpt>
<trkpt lat="40.0728421" lon="-105.2305755">
  <ele>1586.09</ele>
  <time>2026-08-28T19:08:57Z</time>
  <course>286.08</course>
  <speed>0.0</speed>
  <fix>3d</fix>
</trkpt>
<trkpt lat="40.072842" lon="-105.2305754">
  <ele>1586.19</ele>
  <time>2026-08-28T19:08:57Z</time>
  <course>14.12</course>
  <speed>0.022360679774997897</speed>
  <fix>3d</fix>
</trkpt>
<trkpt lat="40.0728421" lon="-105.2305755">
  <ele>1586.09</ele>
  <time>2026-08-28T19:08:57Z</time>
  <course>285.87</course>
  <speed>0.0</speed>
  <fix>3d</fix>
</trkpt>
<trkpt lat="40.072842" lon="-105.2305754">
  <ele>1586.19</ele>
  <time>2026-08-28T19:08:57Z</time>
  <course>14.16</course>
  <speed>0.022360679774997897</speed>
  <fix>3d</fix>
</trkpt>
<trkpt lat="40.0728421" lon="-105.2305755">
  <ele>1586.09</ele>
  <time>2026-08-28T19:08:57Z</time>
  <course>285.71</course>
  <speed>0.0</speed>
  <fix>3d</fix>
</trkpt>
<trkpt lat="40.072842" lon="-105.2305754">
  <ele>1586.19</ele>
  <time>2026-08-28T19:08:57Z</time>
  <course>14.21</course>
  <speed>0.022360679774997897</speed>
  <fix>3d</fix>
</trkpt>
<trkpt lat="40.0728421" lon="-105.2305755">
  <ele>1586.09</ele>
  <time>2026-08-28T19:08:57Z</time>
  <course>285.55</course>
  <speed>0.0</speed>
  <fix>3d</fix>
</trkpt>
<trkpt lat="40.072842" lon="-105.2305754">
  <ele>1586.19</ele>
  <time>2026-08-28T19:08:57Z</time>
  <course>14.25</course>
  <speed>0.022360679774997897</speed>
  <fix>3d</fix>
</trkpt>
<trkpt lat="40.0728421" lon="-105.2305755">
  <ele>1586.09</ele>
  <time>2026-08-28T19:08:57Z</time>
  <course>285.41</course>
  <speed>0.0</speed>
  <fix>3d</fix>
</trkpt>
<trkpt lat="40.072842" lon="-105.2305754">
  <ele>1586.19</ele>
  <time>2026-08-28T19:08:57Z</time>
  <course>14.28</course>
  <speed>0.022360679774997897</speed>
  <fix>3d</fix>
</trkpt>
<trkpt lat="40.0728421" lon="-105.2305755">
  <ele>1586.09</ele>
  <time>2026-08-28T19:08:57Z</time>
  <course>285.28</course>
  <speed>0.0</speed>
  <fix>3d</fix>
</trkpt>
<trkpt lat="40.072842" lon="-105.2305754">
  <ele>1586.19</ele>
  <time>2026-08-28T19:08:57Z</time>
  <course>14.32</course>
  <speed>0.022360679774997897</speed>
  <fix>3d</fix>
</trkpt>
<trkpt lat="40.0728421" lon="-105.2305755">
  <ele>1586.09</ele>
  <time>2026-08-28T19:08:57Z</time>
  <course>285.17</course>
  <speed>0.0</speed>
  <fix>3d</fix>
</trkpt>
<trkpt lat="40.072842" lon="-105.2305754">
  <ele>1586.19</ele>
  <time>2026-08-28T19:08:57Z</time>
  <course>14.35</course>
  <speed>0.022360679774997897</speed>
  <fix>3d</fix>
</trkpt>
<trkpt lat="40.0728421" lon="-105.2305755">
  <ele>1586.09</ele>
  <time>2026-08-28T19:08:57Z</time>
  <course>285.07</course>
  <speed>0.0</speed>
  <fix>3d</fix>
</trkpt>
<trkpt lat="40.072842" lon="-105.2305754">
  <ele>1586.19</ele>
  <time>2026-08-28T19:08:57Z</time>
  <course>14.38</course>
  <speed>0.022360679774997897</speed>
  <fix>3d</fix>
</trkpt>
<trkpt lat="40.0728421" lon="-105.2305755">
  <ele>1586.09</ele>
  <time>2026-08-28T19:08:57Z</time>
  <course>284.97</course>
  <speed>0.0</speed>
  <fix>3d</fix>
</trkpt>
<trkpt lat="40.072842" lon="-105.2305754">
  <ele>1586.19</ele>
  <time>2026-08-28T19:08:57Z</time>
  <course>14.41</course>
  <speed>0.022360679774997897</speed>
  <fix>3d</fix>
</trkpt>
<trkpt lat="40.0728421" lon="-105.2305755">
  <ele>1586.09</ele>
  <time>2026-08-28T19:08:57Z</time>
  <course>284.89</course>
  <speed>0.0</speed>
  <fix>3d</fix>
</trkpt>
<trkpt lat="40.072842" lon="-105.2305754">
  <ele>1586.19</ele>
  <time>2026-08-28T19:08:57Z</time>
  <course>14.44</course>
  <speed>0.022360679774997897</speed>
  <fix>3d</fix>
</trkpt>
<trkpt lat="40.0728421" lon="-105.2305755">
  <ele>1586.09</ele>
  <time>2026-08-28T19:08:57Z</time>
  <course>284.82</course>
  <speed>0.0</speed>
  <fix>3d</fix>
</trkpt>
<trkpt lat="40.072842" lon="-105.2305754">
  <ele>1586.19</ele>
  <time>2026-08-28T19:08:57Z</time>
  <course>14.47</course>
  <speed>0.022360679774997897</speed>
  <fix>3d</fix>
</trkpt>
<trkpt lat="40.0728421" lon="-105.2305755">
  <ele>1586.09</ele>
  <time>2026-08-28T19:08:57Z</time>
  <course>284.74</course>
  <speed>0.0</speed>
  <fix>3d</fix>
</trkpt>
<trkpt lat="40.072842" lon="-105.2305754">
  <ele>1586.19</ele>
  <time>2026-08-28T19:08:57Z</time>
  <course>14.49</course>
  <speed>0.022360679774997897</speed>
  <fix>3d</fix>
</trkpt>
<trkpt lat="40.0728421" lon="-105.2305755">
  <ele>1586.09</ele>
  <time>2026-08-28T19:08:57Z</time>
  <course>284.68</course>
  <speed>0.0</speed>
  <fix>3d</fix>
</trkpt>
<trkpt lat="40.072842" lon="-105.2305754">
  <ele>1586.19</ele>
  <time>2026-08-28T19:08:57Z</time>
  <course>14.52</course>
  <speed>0.022360679774997897</speed>
  <fix>3d</fix>
</trkpt>
<trkpt lat="40.0728421" lon="-105.2305755">
  <ele>1586.09</ele>
  <time>2026-08-28T19:08:57Z</time>
  <course>284.63</course>
  <speed>0.0</speed>
  <fix>3d</fix>
</trkpt>
<trkpt lat="40.072842" lon="-105.2305754">
  <ele>1586.19</ele>
  <time>2026-08-28T19:08:57Z</time>
  <course>14.54</course>
  <speed>0.022360679774997897</speed>
  <fix>3d</fix>
</trkpt>
<trkpt lat="40.0728421" lon="-105.2305755">
  <ele>1586.09</ele>
  <time>2026-08-28T19:08:57Z</time>
  <course>284.58</course>
  <speed>0.0</speed>
  <fix>3d</fix>
</trkpt>
<trkpt lat="40.072842" lon="-105.2305754">
  <ele>1586.19</ele>
  <time>2026-08-28T19:08:57Z</time>
  <course>14.56</course>
  <speed>0.022360679774997897</speed>
  <fix>3d</fix>
</trkpt>
<trkpt lat="40.0728421" lon="-105.2305755">
  <ele>1586.09</ele>
  <time>2026-08-28T19:08:57Z</time>
  <course>284.53</course>
  <speed>0.0</speed>
  <fix>3d</fix>
</trkpt>
<trkpt lat="40.072842" lon="-105.2305754">
  <ele>1586.18</ele>
  <time>2026-08-28T19:08:57Z</time>
  <course>14.58</course>
  <speed>0.022360679774997897</speed>
  <fix>3d</fix>
</trkpt>
<trkpt lat="40.0728421" lon="-105.2305755">
  <ele>1586.09</ele>
  <time>2026-08-28T19:08:57Z</time>
  <course>284.48</course>
  <speed>0.0</speed>
  <fix>3d</fix>
</trkpt>
<trkpt lat="40.072842" lon="-105.2305754">
  <ele>1586.18</ele>
  <time>2026-08-28T19:08:57Z</time>
  <course>14.6</course>
  <speed>0.022360679774997897</speed>
  <fix>3d</fix>
</trkpt>
<trkpt lat="40.0728421" lon="-105.2305755">
  <ele>1586.09</ele>
  <time>2026-08-28T19:08:57Z</time>
  <course>284.44</course>
  <speed>0.0</speed>
  <fix>3d</fix>
</trkpt>
<trkpt lat="40.072842" lon="-105.2305754">
  <ele>1586.18</ele>
  <time>2026-08-28T19:08:57Z</time>
  <course>14.61</course>
  <speed>0.022360679774997897</speed>
  <fix>3d</fix>
</trkpt>
<trkpt lat="40.0728421" lon="-105.2305755">
  <ele>1586.09</ele>
  <time>2026-08-28T19:08:57Z</time>
  <course>284.4</course>
  <speed>0.0</speed>
  <fix>3d</fix>
</trkpt>
<trkpt lat="40.072842" lon="-105.2305754">
  <ele>1586.18</ele>
  <time>2026-08-28T19:08:57Z</time>
  <course>14.63</course>
  <speed>0.022360679774997897</speed>
  <fix>3d</fix>
</trkpt>
<trkpt lat="40.0728421" lon="-105.2305755">
  <ele>1586.09</ele>
  <time>2026-08-28T19:08:57Z</time>
  <course>284.36</course>
  <speed>0.0</speed>
  <fix>3d</fix>
</trkpt>
<trkpt lat="40.072842" lon="-105.2305754">
  <ele>1586.18</ele>
  <time>2026-08-28T19:08:57Z</time>
  <course>14.65</course>
  <speed>0.022360679774997897</speed>
  <fix>3d</fix>
</trkpt>
<trkpt lat="40.0728421" lon="-105.2305755">
  <ele>1586.09</ele>
  <time>2026-08-28T19:08:57Z</time>
  <course>284.34</course>
  <speed>0.0</speed>
  <fix>3d</fix>
</trkpt>
<trkpt lat="40.072842" lon="-105.2305754">
  <ele>1586.18</ele>
  <time>2026-08-28T19:08:57Z</time>
  <course>14.66</course>
  <speed>0.022360679774997897</speed>
  <fix>3d</fix>
</trkpt>
<trkpt lat="40.0728421" lon="-105.2305755">
  <ele>1586.09</ele>
  <time>2026-08-28T19:08:57Z</time>
  <course>284.31</course>
  <speed>0.0</speed>
  <fix>3d</fix>
</trkpt>
<trkpt lat="40.072842" lon="-105.2305754">
  <ele>1586.18</ele>
  <time>2026-08-28T19:08:57Z</time>
  <course>14.68</course>
  <speed>0.022360679774997897</speed>
  <fix>3d</fix>
</trkpt>
<trkpt lat="40.0728421" lon="-105.2305755">
  <ele>1586.09</ele>
  <time>2026-08-28T19:08:57Z</time>
  <course>284.27</course>
  <speed>0.0</speed>
  <fix>3d</fix>
</trkpt>
<trkpt lat="40.072842" lon="-105.2305754">
  <ele>1586.18</ele>
  <time>2026-08-28T19:08:57Z</time>
  <course>14.69</course>
  <speed>0.022360679774997897</speed>
  <fix>3d</fix>
</trkpt>
<trkpt lat="40.0728421" lon="-105.2305755">
  <ele>1586.09</ele>
  <time>2026-08-28T19:08:57Z</time>
  <course>284.24</course>
  <speed>0.0</speed>
  <fix>3d</fix>
</trkpt>
<trkpt lat="40.072842" lon="-105.2305754">
  <ele>1586.19</ele>
  <time>2026-08-28T19:08:57Z</time>
  <course>14.7</course>
  <speed>0.022360679774997897</speed>
  <fix>3d</fix>
</trkpt>
<trkpt lat="40.0728421" lon="-105.2305755">
  <ele>1586.09</ele>
  <time>2026-08-28T19:08:57Z</time>
  <course>284.22</course>
  <speed>0.0</speed>
  <fix>3d</fix>
</trkpt>
<trkpt lat="40.072842" lon="-105.2305754">
  <ele>1586.19</ele>
  <time>2026-08-28T19:08:57Z</time>
  <course>14.72</course>
  <speed>0.022360679774997897</speed>
  <fix>3d</fix>
</trkpt>
<trkpt lat="40.0728421" lon="-105.2305755">
  <ele>1586.09</ele>
  <time>2026-08-28T19:08:57Z</time>
  <course>284.2</course>
  <speed>0.0</speed>
  <fix>3d</fix>
</trkpt>
<trkpt lat="40.072842" lon="-105.2305754">
  <ele>1586.19</ele>
  <time>2026-08-28T19:08:57Z</time>
  <course>14.73</course>
  <speed>0.022360679774997897</speed>
  <fix>3d</fix>
</trkpt>
<trkpt lat="40.0728421" lon="-105.2305755">
  <ele>1586.09</ele>
  <time>2026-08-28T19:08:57Z</time>
  <course>284.18</course>
  <speed>0.0</speed>
  <fix>3d</fix>
</trkpt>
<trkpt lat="40.072842" lon="-105.2305754">
  <ele>1586.19</ele>
  <time>2026-08-28T19:08:57Z</time>
  <course>14.74</course>
  <speed>0.022360679774997897</speed>
  <fix>3d</fix>
</trkpt>
<trkpt lat="40.0728421" lon="-105.2305755">
  <ele>1586.09</ele>
  <time>2026-08-28T19:08:57Z</time>
  <course>284.16</course>
  <speed>0.0</speed>
  <fix>3d</fix>
</trkpt>
<trkpt lat="40.072842" lon="-105.2305754">
  <ele>1586.19</ele>
  <time>2026-08-28T19:08:57Z</time>
  <course>14.75</course>
  <speed>0.022360679774997897</speed>
  <fix>3d</fix>
</trkpt>
<trkpt lat="40.0728421" lon="-105.2305755">
  <ele>1586.09</ele>
  <time>2026-08-28T19:08:57Z</time>
  <course>284.14</course>
  <speed>0.0</speed>
  <fix>3d</fix>
</trkpt>
<trkpt lat="40.072842" lon="-105.2305754">
  <ele>1586.19</ele>
  <time>2026-08-28T19:08:57Z</time>
  <course>14.76</course>
  <speed>0.022360679774997897</speed>
  <fix>3d</fix>
</trkpt>
<trkpt lat="40.0728421" lon="-105.2305755">
  <ele>1586.09</ele>
  <time>2026-08-28T19:08:57Z</time>
  <course>284.12</course>
  <speed>0.0</speed>
  <fix>3d</fix>
</trkpt>
<trkpt lat="40.072842" lon="-105.2305754">
  <ele>1586.19</ele>
  <time>2026-08-28T19:08:57Z</time>
  <course>14.77</course>
  <speed>0.022360679774997897</speed>
  <fix>3d</fix>
</trkpt>
<trkpt lat="40.0728421" lon="-105.2305755">
  <ele>1586.09</ele>
  <time>2026-08-28T19:08:57Z</time>
  <course>284.11</course>
  <speed>0.0</speed>
  <fix>3d</fix>
</trkpt>
<trkpt lat="40.072842" lon="-105.2305754">
  <ele>1586.19</ele>
  <time>2026-08-28T19:08:57Z</time>
  <course>14.78</course>
  <speed>0.022360679774997897</speed>
  <fix>3d</fix>
</trkpt>
<trkpt lat="40.0728421" lon="-105.2305755">
  <ele>1586.09</ele>
  <time>2026-08-28T19:08:57Z</time>
  <course>284.09</course>
  <speed>0.0</speed>
  <fix>3d</fix>
</trkpt>
<trkpt lat="40.072842" lon="-105.2305754">
  <ele>1586.19</ele>
  <time>2026-08-28T19:08:57Z</time>
  <course>14.79</course>
  <speed>0.022360679774997897</speed>
  <fix>3d</fix>
</trkpt>
<trkpt lat="40.0728421" lon="-105.2305755">
  <ele>1586.09</ele>
  <time>2026-08-28T19:08:57Z</time>
  <course>284.08</course>
  <speed>0.0</speed>
  <fix>3d</fix>
</trkpt>
<trkpt lat="40.072842" lon="-105.2305754">
  <ele>1586.19</ele>
  <time>2026-08-28T19:08:57Z</time>
  <course>14.8</course>
  <speed>0.022360679774997897</speed>
  <fix>3d</fix>
</trkpt>
<trkpt lat="40.0728421" lon="-105.2305755">
  <ele>1586.09</ele>
  <time>2026-08-28T19:08:57Z</time>
  <course>284.07</course>
  <speed>0.0</speed>
  <fix>3d</fix>
</trkpt>
<trkpt lat="40.072842" lon="-105.2305754">
  <ele>1586.19</ele>
  <time>2026-08-28T19:08:57Z</time>
  <course>14.8</course>
  <speed>0.022360679774997897</speed>
  <fix>3d</fix>
</trkpt>
<trkpt lat="40.0728421" lon="-105.2305755">
  <ele>1586.09</ele>
  <time>2026-08-28T19:08:57Z</time>
  <course>284.06</course>
  <speed>0.0</speed>
  <fix>3d</fix>
</trkpt>
<trkpt lat="40.072842" lon="-105.2305754">
  <ele>1586.19</ele>
  <time>2026-08-28T19:08:57Z</time>
  <course>14.81</course>
  <speed>0.022360679774997897</speed>
  <fix>3d</fix>
</trkpt>
<trkpt lat="40.0728421" lon="-105.2305755">
  <ele>1586.09</ele>
  <time>2026-08-28T19:08:57Z</time>
  <course>284.04</course>
  <speed>0.0</speed>
  <fix>3d</fix>
</trkpt>
<trkpt lat="40.072842" lon="-105.2305754">
  <ele>1586.19</ele>
  <time>2026-08-28T19:08:57Z</time>
  <course>14.96</course>
  <speed>0.022360679774997897</speed>
  <fix>3d</fix>
</trkpt>
<trkpt lat="40.0728421" lon="-105.2305755">
  <ele>1586.09</ele>
  <time>2026-08-28T19:08:57Z</time>
  <course>284.05</course>
  <speed>0.0</speed>
  <fix>3d</fix>
</trkpt>
<trkpt lat="40.072842" lon="-105.2305754">
  <ele>1586.19</ele>
  <time>2026-08-28T19:08:57Z</time>
  <course>15.23</course>
  <speed>0.022360679774997897</speed>
  <fix>3d</fix>
</trkpt>
<trkpt lat="40.0728421" lon="-105.2305755">
  <ele>1586.09</ele>
  <time>2026-08-28T19:08:57Z</time>
  <course>284.2</course>
  <speed>0.0</speed>
  <fix>3d</fix>
</trkpt>
<trkpt lat="40.072842" lon="-105.2305754">
  <ele>1586.19</ele>
  <time>2026-08-28T19:08:57Z</time>
  <course>15.47</course>
  <speed>0.022360679774997897</speed>
  <fix>3d</fix>
</trkpt>
<trkpt lat="39.6566745" lon="-104.1377265">
  <ele>1569.61</ele>
  <time>2026-08-28T19:08:58Z</time>
  <course>247.54</course>
  <speed>0.0</speed>
  <fix>3d</fix>
</trkpt>
<trkpt lat="40.072842" lon="-105.230575">
  <ele>1586.09</ele>
  <time>2026-08-28T19:08:58Z</time>
  <course>4.22</course>
  <speed>0.0</speed>
  <fix>3d</fix>
</trkpt>
<trkpt lat="40.072842" lon="-105.230575">
  <ele>1586.09</ele>
  <time>2026-08-28T19:08:58Z</time>
  <course>201.62</course>
  <speed>0.0</speed>
  <fix>3d</fix>
</trkpt>
<trkpt lat="40.072842" lon="-105.230575">
  <ele>1586.09</ele>
  <time>2026-08-28T19:08:58Z</time>
  <course>4.62</course>
  <speed>0.0</speed>
  <fix>3d</fix>
</trkpt>
<trkpt lat="40.072842" lon="-105.230575">
  <ele>1586.09</ele>
  <time>2026-08-28T19:08:58Z</time>
  <course>309.16</course>
  <speed>0.0</speed>
  <fix>3d</fix>
</trkpt>
<trkpt lat="40.072842" lon="-105.230575">
  <ele>1586.09</ele>
  <time>2026-08-28T19:08:58Z</time>
  <course>5.4</course>
  <speed>0.0</speed>
  <fix>3d</fix>
</trkpt>
<trkpt lat="40.072842" lon="-105.230575">
  <ele>1586.09</ele>
  <time>2026-08-28T19:08:58Z</time>
  <course>17.18</course>
  <speed>0.0</speed>
  <fix>3d</fix>
</trkpt>
<trkpt lat="40.072842" lon="-105.230575">
  <ele>1586.09</ele>
  <time>2026-08-28T19:08:58Z</time>
  <course>6.14</course>
  <speed>0.0</speed>
  <fix>3d</fix>
</trkpt>
<trkpt lat="40.072842" lon="-105.230575">
  <ele>1586.09</ele>
  <time>2026-08-28T19:08:58Z</time>
  <course>45.49</course>
  <speed>0.0</speed>
  <fix>3d</fix>
</trkpt>
<trkpt lat="40.072842" lon="-105.230575">
  <ele>1586.09</ele>
  <time>2026-08-28T19:08:58Z</time>
  <course>6.83</course>
  <speed>0.0</speed>
  <fix>3d</fix>
</trkpt>
<trkpt lat="40.072842" lon="-105.230575">
  <ele>1586.09</ele>
  <time>2026-08-28T19:08:58Z</time>
  <course>343.37</course>
  <speed>0.0</speed>
  <fix>3d</fix>
</trkpt>
<trkpt lat="40.072842" lon="-105.230575">
  <ele>1586.09</ele>
  <time>2026-08-28T19:08:58Z</time>
  <course>7.5</course>
  <speed>0.0</speed>
  <fix>3d</fix>
</trkpt>
<trkpt lat="40.072842" lon="-105.230575">
  <ele>1586.09</ele>
  <time>2026-08-28T19:08:58Z</time>
  <course>330.72</course>
  <speed>0.0</speed>
  <fix>3d</fix>
</trkpt>
<trkpt lat="40.072842" lon="-105.230575">
  <ele>1586.09</ele>
  <time>2026-08-28T19:08:58Z</time>
  <course>8.15</course>
  <speed>0.0</speed>
  <fix>3d</fix>
</trkpt>
<trkpt lat="40.072842" lon="-105.230575">
  <ele>1586.09</ele>
  <time>2026-08-28T19:08:58Z</time>
  <course>241.18</course>
  <speed>0.0</speed>
  <fix>3d</fix>
</trkpt>
<trkpt lat="40.072842" lon="-105.230575">
  <ele>1586.09</ele>
  <time>2026-08-28T19:08:58Z</time>
  <course>8.76</course>
  <speed>0.0</speed>
  <fix>3d</fix>
</trkpt>
<trkpt lat="40.072842" lon="-105.230575">
  <ele>1586.09</ele>
  <time>2026-08-28T19:08:58Z</time>
  <course>243.85</course>
  <speed>0.0</speed>
  <fix>3d</fix>
</trkpt>
<trkpt lat="40.072842" lon="-105.230575">
  <ele>1586.09</ele>
  <time>2026-08-28T19:08:58Z</time>
  <course>9.36</course>
  <speed>0.0</speed>
  <fix>3d</fix>
</trkpt>
<trkpt lat="40.072842" lon="-105.230575">
  <ele>1586.09</ele>
  <time>2026-08-28T19:08:58Z</time>
  <course>220.29</course>
  <speed>0.0</speed>
  <fix>3d</fix>
</trkpt>
<trkpt lat="40.072842" lon="-105.230575">
  <ele>1586.09</ele>
  <time>2026-08-28T19:08:58Z</time>
  <course>9.92</course>
  <speed>0.0</speed>
  <fix>3d</fix>
</trkpt>
<trkpt lat="40.072842" lon="-105.230575">
  <ele>1586.09</ele>
  <time>2026-08-28T19:08:58Z</time>
  <course>185.56</course>
  <speed>0.0</speed>
  <fix>3d</fix>
</trkpt>
<trkpt lat="40.072842" lon="-105.230575">
  <ele>1586.09</ele>
  <time>2026-08-28T19:08:58Z</time>
  <course>10.45</course>
  <speed>0.0</speed>
  <fix>3d</fix>
</trkpt>
<trkpt lat="40.072842" lon="-105.230575">
  <ele>1586.09</ele>
  <time>2026-08-28T19:08:58Z</time>
  <course>1.38</course>
  <speed>0.0</speed>
  <fix>3d</fix>
</trkpt>
<trkpt lat="40.072842" lon="-105.230575">
  <ele>1586.09</ele>
  <time>2026-08-28T19:08:58Z</time>
  <course>10.96</course>
  <speed>0.0</speed>
  <fix>3d</fix>
</trkpt>
<trkpt lat="40.072842" lon="-105.230575">
  <ele>1586.09</ele>
  <time>2026-08-28T19:08:58Z</time>
  <course>23.38</course>
  <speed>0.0</speed>
  <fix>3d</fix>
</trkpt>
<trkpt lat="40.072842" lon="-105.230575">
  <ele>1586.09</ele>
  <time>2026-08-28T19:08:58Z</time>
  <course>11.44</course>
  <speed>0.0</speed>
  <fix>3d</fix>
</trkpt>
<trkpt lat="40.072842" lon="-105.230575">
  <ele>1586.09</ele>
  <time>2026-08-28T19:08:58Z</time>
  <course>158.04</course>
  <speed>0.0</speed>
  <fix>3d</fix>
</trkpt>
<trkpt lat="40.072842" lon="-105.230575">
  <ele>1586.09</ele>
  <time>2026-08-28T19:08:58Z</time>
  <course>11.89</course>
  <speed>0.0</speed>
  <fix>3d</fix>
</trkpt>
<trkpt lat="40.072842" lon="-105.230575">
  <ele>1586.09</ele>
  <time>2026-08-28T19:08:58Z</time>
  <course>197.14</course>
  <speed>0.0</speed>
  <fix>3d</fix>
</trkpt>
<trkpt lat="40.072842" lon="-105.230575">
  <ele>1586.09</ele>
  <time>2026-08-28T19:08:58Z</time>
  <course>12.31</course>
  <speed>0.0</speed>
  <fix>3d</fix>
</trkpt>
<trkpt lat="40.072842" lon="-105.230575">
  <ele>1586.09</ele>
  <time>2026-08-28T19:08:58Z</time>
  <course>170.99</course>
  <speed>0.0</speed>
  <fix>3d</fix>
</trkpt>
<trkpt lat="40.072842" lon="-105.230575">
  <ele>1586.09</ele>
  <time>2026-08-28T19:08:58Z</time>
  <course>12.71</course>
  <speed>0.0</speed>
  <fix>3d</fix>
</trkpt>
<trkpt lat="40.072842" lon="-105.230575">
  <ele>1586.09</ele>
  <time>2026-08-28T19:08:58Z</time>
  <course>133.82</course>
  <speed>0.0</speed>
  <fix>3d</fix>
</trkpt>
<trkpt lat="40.072842" lon="-105.230575">
  <ele>1586.09</ele>
  <time>2026-08-28T19:08:58Z</time>
  <course>13.09</course>
  <speed>0.0</speed>
  <fix>3d</fix>
</trkpt>
<trkpt lat="40.072842" lon="-105.230575">
  <ele>1586.09</ele>
  <time>2026-08-28T19:08:58Z</time>
  <course>324.53</course>
  <speed>0.0</speed>
  <fix>3d</fix>
</trkpt>
<trkpt lat="40.072842" lon="-105.230575">
  <ele>1586.09</ele>
  <time>2026-08-28T19:08:58Z</time>
  <course>13.44</course>
  <speed>0.0</speed>
  <fix>3d</fix>
</trkpt>
<trkpt lat="40.072842" lon="-105.230575">
  <ele>1586.09</ele>
  <time>2026-08-28T19:08:58Z</time>
  <course>244.44</course>
  <speed>0.0</speed>
  <fix>3d</fix>
</trkpt>
<trkpt lat="40.072842" lon="-105.230575">
  <ele>1586.09</ele>
  <time>2026-08-28T19:08:58Z</time>
  <course>13.77</course>
  <speed>0.0</speed>
  <fix>3d</fix>
</trkpt>
<trkpt lat="40.072842" lon="-105.230575">
  <ele>1586.09</ele>
  <time>2026-08-28T19:08:58Z</time>
  <course>344.93</course>
  <speed>0.0</speed>
  <fix>3d</fix>
</trkpt>
<trkpt lat="40.072842" lon="-105.230575">
  <ele>1586.09</ele>
  <time>2026-08-28T19:08:58Z</time>
  <course>14.08</course>
  <speed>0.0</speed>
  <fix>3d</fix>
</trkpt>
<trkpt lat="40.072842" lon="-105.230575">
  <ele>1586.09</ele>
  <time>2026-08-28T19:08:58Z</time>
  <course>332.41</course>
  <speed>0.0</speed>
  <fix>3d</fix>
</trkpt>
<trkpt lat="40.072842" lon="-105.230575">
  <ele>1586.09</ele>
  <time>2026-08-28T19:08:58Z</time>
  <course>14.36</course>
  <speed>0.0</speed>
  <fix>3d</fix>
</trkpt>
<trkpt lat="40.072842" lon="-105.230575">
  <ele>1586.09</ele>
  <time>2026-08-28T19:08:58Z</time>
  <course>309.21</course>
  <speed>0.0</speed>
  <fix>3d</fix>
</trkpt>
<trkpt lat="40.072842" lon="-105.230575">
  <ele>1586.09</ele>
  <time>2026-08-28T19:08:58Z</time>
  <course>14.63</course>
  <speed>0.0</speed>
  <fix>3d</fix>
</trkpt>
<trkpt lat="40.072842" lon="-105.230575">
  <ele>1586.09</ele>
  <time>2026-08-28T19:08:58Z</time>
  <course>170.04</course>
  <speed>0.0</speed>
  <fix>3d</fix>
</trkpt>
<trkpt lat="40.072842" lon="-105.230575">
  <ele>1586.09</ele>
  <time>2026-08-28T19:08:58Z</time>
  <course>14.89</course>
  <speed>0.0</speed>
  <fix>3d</fix>
</trkpt>
<trkpt lat="40.072842" lon="-105.230575">
  <ele>1586.09</ele>
  <time>2026-08-28T19:08:58Z</time>
  <course>140.18</course>
  <speed>0.0</speed>
  <fix>3d</fix>
</trkpt>
<trkpt lat="40.072842" lon="-105.230575">
  <ele>1586.09</ele>
  <time>2026-08-28T19:08:58Z</time>
  <course>15.13</course>
  <speed>0.0</speed>
  <fix>3d</fix>
</trkpt>
<trkpt lat="40.072842" lon="-105.230575">
  <ele>1586.09</ele>
  <time>2026-08-28T19:08:58Z</time>
  <course>303.33</course>
  <speed>0.0</speed>
  <fix>3d</fix>
</trkpt>
<trkpt lat="40.072842" lon="-105.230575">
  <ele>1586.09</ele>
  <time>2026-08-28T19:08:58Z</time>
  <course>15.35</course>
  <speed>0.0</speed>
  <fix>3d</fix>
</trkpt>
<trkpt lat="40.072842" lon="-105.230575">
  <ele>1586.09</ele>
  <time>2026-08-28T19:08:58Z</time>
  <course>271.91</course>
  <speed>0.0</speed>
  <fix>3d</fix>
</trkpt>
<trkpt lat="40.072842" lon="-105.230575">
  <ele>1586.09</ele>
  <time>2026-08-28T19:08:58Z</time>
  <course>15.55</course>
  <speed>0.0</speed>
  <fix>3d</fix>
</trkpt>
<trkpt lat="40.072842" lon="-105.230575">
  <ele>1586.09</ele>
  <time>2026-08-28T19:08:58Z</time>
  <course>265.83</course>
  <speed>0.0</speed>
  <fix>3d</fix>
</trkpt>
<trkpt lat="40.072842" lon="-105.230575">
  <ele>1586.09</ele>
  <time>2026-08-28T19:08:58Z</time>
  <course>15.74</course>
  <speed>0.0</speed>
  <fix>3d</fix>
</trkpt>
<trkpt lat="40.072842" lon="-105.230575">
  <ele>1586.09</ele>
  <time>2026-08-28T19:08:58Z</time>
  <course>274.0</course>
  <speed>0.0</speed>
  <fix>3d</fix>
</trkpt>
<trkpt lat="40.072842" lon="-105.230575">
  <ele>1586.09</ele>
  <time>2026-08-28T19:08:58Z</time>
  <course>15.92</course>
  <speed>0.0</speed>
  <fix>3d</fix>
</trkpt>
<trkpt lat="40.072842" lon="-105.230575">
  <ele>1586.09</ele>
  <time>2026-08-28T19:08:58Z</time>
  <course>273.8</course>
  <speed>0.0</speed>
  <fix>3d</fix>
</trkpt>
<trkpt lat="40.072842" lon="-105.230575">
  <ele>1586.09</ele>
  <time>2026-08-28T19:08:58Z</time>
  <course>16.09</course>
  <speed>0.0</speed>
  <fix>3d</fix>
</trkpt>
<trkpt lat="40.072842" lon="-105.230575">
  <ele>1586.09</ele>
  <time>2026-08-28T19:08:58Z</time>
  <course>272.81</course>
  <speed>0.0</speed>
  <fix>3d</fix>
</trkpt>
<trkpt lat="40.072842" lon="-105.230575">
  <ele>1586.09</ele>
  <time>2026-08-28T19:08:58Z</time>
  <course>16.24</course>
  <speed>0.0</speed>
  <fix>3d</fix>
</trkpt>
<trkpt lat="40.072842" lon="-105.230575">
  <ele>1586.09</ele>
  <time>2026-08-28T19:08:58Z</time>
  <course>272.96</course>
  <speed>0.0</speed>
  <fix>3d</fix>
</trkpt>
<trkpt lat="40.072842" lon="-105.230575">
  <ele>1586.09</ele>
  <time>2026-08-28T19:08:58Z</time>
  <course>16.39</course>
  <speed>0.0</speed>
  <fix>3d</fix>
</trkpt>
<trkpt lat="40.072842" lon="-105.230575">
  <ele>1586.09</ele>
  <time>2026-08-28T19:08:58Z</time>
  <course>273.08</course>
  <speed>0.0</speed>
  <fix>3d</fix>
</trkpt>
<trkpt lat="40.072842" lon="-105.230575">
  <ele>1586.09</ele>
  <time>2026-08-28T19:08:58Z</time>
  <course>16.52</course>
  <speed>0.0</speed>
  <fix>3d</fix>
</trkpt>
<trkpt lat="40.072842" lon="-105.230575">
  <ele>1586.09</ele>
  <time>2026-08-28T19:08:58Z</time>
  <course>273.04</course>
  <speed>0.0</speed>
  <fix>3d</fix>
</trkpt>
<trkpt lat="40.072842" lon="-105.230575">
  <ele>1586.09</ele>
  <time>2026-08-28T19:08:58Z</time>
  <course>16.65</course>
  <speed>0.0</speed>
  <fix>3d</fix>
</trkpt>
<trkpt lat="40.072842" lon="-105.230575">
  <ele>1586.09</ele>
  <time>2026-08-28T19:08:58Z</time>
  <course>273.03</course>
  <speed>0.0</speed>
  <fix>3d</fix>
</trkpt>
<trkpt lat="40.072842" lon="-105.230575">
  <ele>1586.09</ele>
  <time>2026-08-28T19:08:58Z</time>
  <course>16.77</course>
  <speed>0.0</speed>
  <fix>3d</fix>
</trkpt>
<trkpt lat="40.072842" lon="-105.230575">
  <ele>1586.09</ele>
  <time>2026-08-28T19:08:58Z</time>
  <course>273.04</course>
  <speed>0.0</speed>
  <fix>3d</fix>
</trkpt>
<trkpt lat="40.072842" lon="-105.230575">
  <ele>1586.09</ele>
  <time>2026-08-28T19:08:58Z</time>
  <course>16.88</course>
  <speed>0.0</speed>
  <fix>3d</fix>
</trkpt>
<trkpt lat="40.072842" lon="-105.230575">
  <ele>1586.09</ele>
  <time>2026-08-28T19:08:58Z</time>
  <course>273.04</course>
  <speed>0.0</speed>
  <fix>3d</fix>
</trkpt>
<trkpt lat="40.072842" lon="-105.230575">
  <ele>1586.09</ele>
  <time>2026-08-28T19:08:58Z</time>
  <course>16.98</course>
  <speed>0.0</speed>
  <fix>3d</fix>
</trkpt>
<trkpt lat="40.072842" lon="-105.230575">
  <ele>1586.09</ele>
  <time>2026-08-28T19:08:58Z</time>
  <course>273.04</course>
  <speed>0.0</speed>
  <fix>3d</fix>
</trkpt>
<trkpt lat="40.072842" lon="-105.230575">
  <ele>1586.09</ele>
  <time>2026-08-28T19:08:58Z</time>
  <course>17.08</course>
  <speed>0.0</speed>
  <fix>3d</fix>
</trkpt>
<trkpt lat="40.072842" lon="-105.230575">
  <ele>1586.09</ele>
  <time>2026-08-28T19:08:58Z</time>
  <course>273.04</course>
  <speed>0.0</speed>
  <fix>3d</fix>
</trkpt>
<trkpt lat="40.072842" lon="-105.230575">
  <ele>1586.09</ele>
  <time>2026-08-28T19:08:58Z</time>
  <course>17.17</course>
  <speed>0.0</speed>
  <fix>3d</fix>
</trkpt>
<trkpt lat="40.072842" lon="-105.230575">
  <ele>1586.09</ele>
  <time>2026-08-28T19:08:58Z</time>
  <course>273.04</course>
  <speed>0.0</speed>
  <fix>3d</fix>
</trkpt>
<trkpt lat="40.072842" lon="-105.230575">
  <ele>1586.09</ele>
  <time>2026-08-28T19:08:58Z</time>
  <course>17.25</course>
  <speed>0.0</speed>
  <fix>3d</fix>
</trkpt>
<trkpt lat="40.072842" lon="-105.230575">
  <ele>1586.09</ele>
  <time>2026-08-28T19:08:58Z</time>
  <course>273.04</course>
  <speed>0.0</speed>
  <fix>3d</fix>
</trkpt>
<trkpt lat="40.072842" lon="-105.230575">
  <ele>1586.09</ele>
  <time>2026-08-28T19:08:58Z</time>
  <course>17.33</course>
  <speed>0.0</speed>
  <fix>3d</fix>
</trkpt>
<trkpt lat="40.072842" lon="-105.230575">
  <ele>1586.09</ele>
  <time>2026-08-28T19:08:58Z</time>
  <course>273.04</course>
  <speed>0.0</speed>
  <fix>3d</fix>
</trkpt>
<trkpt lat="40.072842" lon="-105.230575">
  <ele>1586.09</ele>
  <time>2026-08-28T19:08:58Z</time>
  <course>17.4</course>
  <speed>0.0</speed>
  <fix>3d</fix>
</trkpt>
<trkpt lat="40.072842" lon="-105.230575">
  <ele>1586.09</ele>
  <time>2026-08-28T19:08:58Z</time>
  <course>273.04</course>
  <speed>0.0</speed>
  <fix>3d</fix>
</trkpt>
<trkpt lat="40.072842" lon="-105.230575">
  <ele>1586.09</ele>
  <time>2026-08-28T19:08:58Z</time>
  <course>17.47</course>
  <speed>0.0</speed>
  <fix>3d</fix>
</trkpt>
<trkpt lat="40.072842" lon="-105.230575">
  <ele>1586.09</ele>
  <time>2026-08-28T19:08:58Z</time>
  <course>273.04</course>
  <speed>0.0</speed>
  <fix>3d</fix>
</trkpt>
<trkpt lat="40.072842" lon="-105.230575">
  <ele>1586.09</ele>
  <time>2026-08-28T19:08:58Z</time>
  <course>17.53</course>
  <speed>0.0</speed>
  <fix>3d</fix>
</trkpt>
<trkpt lat="40.072842" lon="-105.230575">
  <ele>1586.09</ele>
  <time>2026-08-28T19:08:58Z</time>
  <course>273.04</course>
  <speed>0.0</speed>
  <fix>3d</fix>
</trkpt>
<trkpt lat="40.072842" lon="-105.230575">
  <ele>1586.09</ele>
  <time>2026-08-28T19:08:58Z</time>
  <course>17.59</course>
  <speed>0.0</speed>
  <fix>3d</fix>
</trkpt>
<trkpt lat="40.072842" lon="-105.230575">
  <ele>1586.09</ele>
  <time>2026-08-28T19:08:58Z</time>
  <course>273.04</course>
  <speed>0.0</speed>
  <fix>3d</fix>
</trkpt>
<trkpt lat="40.072842" lon="-105.230575">
  <ele>1586.09</ele>
  <time>2026-08-28T19:08:58Z</time>
  <course>17.65</course>
  <speed>0.0</speed>
  <fix>3d</fix>
</trkpt>
<trkpt lat="40.072842" lon="-105.230575">
  <ele>1586.09</ele>
  <time>2026-08-28T19:08:58Z</time>
  <course>273.04</course>
  <speed>0.0</speed>
  <fix>3d</fix>
</trkpt>
<trkpt lat="40.072842" lon="-105.230575">
  <ele>1586.09</ele>
  <time>2026-08-28T19:08:58Z</time>
  <course>17.7</course>
  <speed>0.0</speed>
  <fix>3d</fix>
</trkpt>
<trkpt lat="40.072842" lon="-105.230575">
  <ele>1586.09</ele>
  <time>2026-08-28T19:08:58Z</time>
  <course>273.04</course>
  <speed>0.0</speed>
  <fix>3d</fix>
</trkpt>
<trkpt lat="40.072842" lon="-105.230575">
  <ele>1586.09</ele>
  <time>2026-08-28T19:08:58Z</time>
  <course>17.75</course>
  <speed>0.0</speed>
  <fix>3d</fix>
</trkpt>
<trkpt lat="40.072842" lon="-105.230575">
  <ele>1586.09</ele>
  <time>2026-08-28T19:08:58Z</time>
  <course>273.04</course>
  <speed>0.0</speed>
  <fix>3d</fix>
</trkpt>
<trkpt lat="40.072842" lon="-105.230575">
  <ele>1586.09</ele>
  <time>2026-08-28T19:08:58Z</time>
  <course>17.79</course>
  <speed>0.0</speed>
  <fix>3d</fix>
</trkpt>
<trkpt lat="40.072842" lon="-105.230575">
  <ele>1586.09</ele>
  <time>2026-08-28T19:08:58Z</time>
  <course>273.04</course>
  <speed>0.0</speed>
  <fix>3d</fix>
</trkpt>
<trkpt lat="40.072842" lon="-105.230575">
  <ele>1586.09</ele>
  <time>2026-08-28T19:08:58Z</time>
  <course>17.84</course>
  <speed>0.0</speed>
  <fix>3d</fix>
</trkpt>
<trkpt lat="40.072842" lon="-105.230575">
  <ele>1586.09</ele>
  <time>2026-08-28T19:08:58Z</time>
  <course>273.04</course>
  <speed>0.0</speed>
  <fix>3d</fix>
</trkpt>
<trkpt lat="40.072842" lon="-105.230575">
  <ele>1586.09</ele>
  <time>2026-08-28T19:08:58Z</time>
  <course>17.87</course>
  <speed>0.0</speed>
  <fix>3d</fix>
</trkpt>
<trkpt lat="40.072842" lon="-105.230575">
  <ele>1586.09</ele>
  <time>2026-08-28T19:08:58Z</time>
  <course>273.04</course>
  <speed>0.0</speed>
  <fix>3d</fix>
</trkpt>
<trkpt lat="40.072842" lon="-105.230575">
  <ele>1586.09</ele>
  <time>2026-08-28T19:08:58Z</time>
  <course>17.91</course>
  <speed>0.0</speed>
  <fix>3d</fix>
</trkpt>
<trkpt lat="40.072842" lon="-105.230575">
  <ele>1586.09</ele>
  <time>2026-08-28T19:08:58Z</time>
  <course>273.04</course>
  <speed>0.0</speed>
  <fix>3d</fix>
</trkpt>
<trkpt lat="40.072842" lon="-105.230575">
  <ele>1586.09</ele>
  <time>2026-08-28T19:08:58Z</time>
  <course>17.95</course>
  <speed>0.0</speed>
  <fix>3d</fix>
</trkpt>
<trkpt lat="40.072842" lon="-105.230575">
  <ele>1586.09</ele>
  <time>2026-08-28T19:08:58Z</time>
  <course>273.04</course>
  <speed>0.0</speed>
  <fix>3d</fix>
</trkpt>
<trkpt lat="40.072842" lon="-105.230575">
  <ele>1586.09</ele>
  <time>2026-08-28T19:08:58Z</time>
  <course>17.98</course>
  <speed>0.0</speed>
  <fix>3d</fix>
</trkpt>
<trkpt lat="40.072842" lon="-105.230575">
  <ele>1586.09</ele>
  <time>2026-08-28T19:08:58Z</time>
  <course>273.04</course>
  <speed>0.0</speed>
  <fix>3d</fix>
</trkpt>
<trkpt lat="40.072842" lon="-105.230575">
  <ele>1586.09</ele>
  <time>2026-08-28T19:08:58Z</time>
  <course>18.01</course>
  <speed>0.0</speed>
  <fix>3d</fix>
</trkpt>
<trkpt lat="40.072842" lon="-105.230575">
  <ele>1586.09</ele>
  <time>2026-08-28T19:08:58Z</time>
  <course>273.04</course>
  <speed>0.0</speed>
  <fix>3d</fix>
</trkpt>
<trkpt lat="40.072842" lon="-105.230575">
  <ele>1586.09</ele>
  <time>2026-08-28T19:08:58Z</time>
  <course>18.04</course>
  <speed>0.0</speed>
  <fix>3d</fix>
</trkpt>
<trkpt lat="40.072842" lon="-105.230575">
  <ele>1586.09</ele>
  <time>2026-08-28T19:08:58Z</time>
  <course>273.04</course>
  <speed>0.0</speed>
  <fix>3d</fix>
</trkpt>
<trkpt lat="40.072842" lon="-105.230575">
  <ele>1586.09</ele>
  <time>2026-08-28T19:08:58Z</time>
  <course>18.06</course>
  <speed>0.01</speed>
  <fix>3d</fix>
</trkpt>
<trkpt lat="40.072842" lon="-105.230575">
  <ele>1586.09</ele>
  <time>2026-08-28T19:08:58Z</time>
  <course>273.04</course>
  <speed>0.0</speed>
  <fix>3d</fix>
</trkpt>
<trkpt lat="40.072842" lon="-105.230575">
  <ele>1586.09</ele>
  <time>2026-08-28T19:08:58Z</time>
  <course>18.09</course>
  <speed>0.01</speed>
  <fix>3d</fix>
</trkpt>
<trkpt lat="40.072842" lon="-105.230575">
  <ele>1586.09</ele>
  <time>2026-08-28T19:08:58Z</time>
  <course>273.04</course>
  <speed>0.0</speed>
  <fix>3d</fix>
</trkpt>
<trkpt lat="40.072842" lon="-105.230575">
  <ele>1586.09</ele>
  <time>2026-08-28T19:08:58Z</time>
  <course>18.11</course>
  <speed>0.01</speed>
  <fix>3d</fix>
</trkpt>
<trkpt lat="40.072842" lon="-105.230575">
  <ele>1586.09</ele>
  <time>2026-08-28T19:08:58Z</time>
  <course>273.04</course>
  <speed>0.0</speed>
  <fix>3d</fix>
</trkpt>
<trkpt lat="40.072842" lon="-105.230575">
  <ele>1586.09</ele>
  <time>2026-08-28T19:08:58Z</time>
  <course>18.13</course>
  <speed>0.01</speed>
  <fix>3d</fix>
</trkpt>
<trkpt lat="40.072842" lon="-105.230575">
  <ele>1586.09</ele>
  <time>2026-08-28T19:08:58Z</time>
  <course>273.04</course>
  <speed>0.0</speed>
  <fix>3d</fix>
</trkpt>
<trkpt lat="40.072842" lon="-105.230575">
  <ele>1586.09</ele>
  <time>2026-08-28T19:08:58Z</time>
  <course>18.15</course>
  <speed>0.01</speed>
  <fix>3d</fix>
</trkpt>
<trkpt lat="40.072842" lon="-105.230575">
  <ele>1586.09</ele>
  <time>2026-08-28T19:08:58Z</time>
  <course>273.04</course>
  <speed>0.0</speed>
  <fix>3d</fix>
</trkpt>
<trkpt lat="40.072842" lon="-105.230575">
  <ele>1586.09</ele>
  <time>2026-08-28T19:08:58Z</time>
  <course>18.17</course>
  <speed>0.01</speed>
  <fix>3d</fix>
</trkpt>
<trkpt lat="40.072842" lon="-105.230575">
  <ele>1586.09</ele>
  <time>2026-08-28T19:08:58Z</time>
  <course>273.04</course>
  <speed>0.0</speed>
  <fix>3d</fix>
</trkpt>
<trkpt lat="40.072842" lon="-105.230575">
  <ele>1586.09</ele>
  <time>2026-08-28T19:08:58Z</time>
  <course>18.19</course>
  <speed>0.01</speed>
  <fix>3d</fix>
</trkpt>
<trkpt lat="40.072842" lon="-105.230575">
  <ele>1586.09</ele>
  <time>2026-08-28T19:08:58Z</time>
  <course>273.04</course>
  <speed>0.0</speed>
  <fix>3d</fix>
</trkpt>
<trkpt lat="40.072842" lon="-105.230575">
  <ele>1586.09</ele>
  <time>2026-08-28T19:08:58Z</time>
  <course>18.2</course>
  <speed>0.01</speed>
  <fix>3d</fix>
</trkpt>
<trkpt lat="40.072842" lon="-105.230575">
  <ele>1586.09</ele>
  <time>2026-08-28T19:08:58Z</time>
  <course>273.04</course>
  <speed>0.0</speed>
  <fix>3d</fix>
</trkpt>
<trkpt lat="40.072842" lon="-105.230575">
  <ele>1586.09</ele>
  <time>2026-08-28T19:08:58Z</time>
  <course>18.22</course>
  <speed>0.01</speed>
  <fix>3d</fix>
</trkpt>
<trkpt lat="40.072842" lon="-105.230575">
  <ele>1586.09</ele>
  <time>2026-08-28T19:08:58Z</time>
  <course>273.04</course>
  <speed>0.0</speed>
  <fix>3d</fix>
</trkpt>
<trkpt lat="40.072842" lon="-105.230575">
  <ele>1586.09</ele>
  <time>2026-08-28T19:08:58Z</time>
  <course>18.23</course>
  <speed>0.01</speed>
  <fix>3d</fix>
</trkpt>
<trkpt lat="40.072842" lon="-105.230575">
  <ele>1586.09</ele>
  <time>2026-08-28T19:08:58Z</time>
  <course>273.04</course>
  <speed>0.0</speed>
  <fix>3d</fix>
</trkpt>
<trkpt lat="40.072842" lon="-105.230575">
  <ele>1586.09</ele>
  <time>2026-08-28T19:08:58Z</time>
  <course>18.25</course>
  <speed>0.01</speed>
  <fix>3d</fix>
</trkpt>
<trkpt lat="40.072842" lon="-105.230575">
  <ele>1586.09</ele>
  <time>2026-08-28T19:08:58Z</time>
  <course>273.04</course>
  <speed>0.0</speed>
  <fix>3d</fix>
</trkpt>
<trkpt lat="40.072842" lon="-105.230575">
  <ele>1586.09</ele>
  <time>2026-08-28T19:08:58Z</time>
  <course>18.26</course>
  <speed>0.01</speed>
  <fix>3d</fix>
</trkpt>
<trkpt lat="40.072842" lon="-105.230575">
  <ele>1586.09</ele>
  <time>2026-08-28T19:08:58Z</time>
  <course>273.04</course>
  <speed>0.0</speed>
  <fix>3d</fix>
</trkpt>
<trkpt lat="40.072842" lon="-105.230575">
  <ele>1586.09</ele>
  <time>2026-08-28T19:08:58Z</time>
  <course>18.27</course>
  <speed>0.01</speed>
  <fix>3d</fix>
</trkpt>
<trkpt lat="40.072842" lon="-105.230575">
  <ele>1586.09</ele>
  <time>2026-08-28T19:08:58Z</time>
  <course>273.04</course>
  <speed>0.0</speed>
  <fix>3d</fix>
</trkpt>
<trkpt lat="40.072842" lon="-105.230575">
  <ele>1586.09</ele>
  <time>2026-08-28T19:08:58Z</time>
  <course>18.28</course>
  <speed>0.01</speed>
  <fix>3d</fix>
</trkpt>
<trkpt lat="40.072842" lon="-105.230575">
  <ele>1586.09</ele>
  <time>2026-08-28T19:08:58Z</time>
  <course>273.04</course>
  <speed>0.0</speed>
  <fix>3d</fix>
</trkpt>
<trkpt lat="40.072842" lon="-105.230575">
  <ele>1586.09</ele>
  <time>2026-08-28T19:08:58Z</time>
  <course>18.29</course>
  <speed>0.01</speed>
  <fix>3d</fix>
</trkpt>
<trkpt lat="40.072842" lon="-105.230575">
  <ele>1586.09</ele>
  <time>2026-08-28T19:08:58Z</time>
  <course>273.04</course>
  <speed>0.0</speed>
  <fix>3d</fix>
</trkpt>
<trkpt lat="40.072842" lon="-105.230575">
  <ele>1586.09</ele>
  <time>2026-08-28T19:08:58Z</time>
  <course>18.3</course>
  <speed>0.01</speed>
  <fix>3d</fix>
</trkpt>
<trkpt lat="40.072842" lon="-105.230575">
  <ele>1586.09</ele>
  <time>2026-08-28T19:08:58Z</time>
  <course>273.04</course>
  <speed>0.0</speed>
  <fix>3d</fix>
</trkpt>
<trkpt lat="40.072842" lon="-105.230575">
  <ele>1586.09</ele>
  <time>2026-08-28T19:08:58Z</time>
  <course>18.31</course>
  <speed>0.01</speed>
  <fix>3d</fix>
</trkpt>
<trkpt lat="40.072842" lon="-105.230575">
  <ele>1586.09</ele>
  <time>2026-08-28T19:08:58Z</time>
  <course>273.04</course>
  <speed>0.0</speed>
  <fix>3d</fix>
</trkpt>
<trkpt lat="40.072842" lon="-105.230575">
  <ele>1586.09</ele>
  <time>2026-08-28T19:08:58Z</time>
  <course>18.32</course>
  <speed>0.01414213562373095</speed>
  <fix>3d</fix>
</trkpt>
<trkpt lat="40.072842" lon="-105.230575">
  <ele>1586.09</ele>
  <time>2026-08-28T19:08:58Z</time>
  <course>273.04</course>
  <speed>0.0</speed>
  <fix>3d</fix>
</trkpt>
<trkpt lat="40.072842" lon="-105.230575">
  <ele>1586.09</ele>
  <time>2026-08-28T19:08:58Z</time>
  <course>18.32</course>
  <speed>0.01414213562373095</speed>
  <fix>3d</fix>
</trkpt>
<trkpt lat="40.072842" lon="-105.230575">
  <ele>1586.09</ele>
  <time>2026-08-28T19:08:58Z</time>
  <course>273.04</course>
  <speed>0.0</speed>
  <fix>3d</fix>
</trkpt>
<trkpt lat="40.072842" lon="-105.230575">
  <ele>1586.09</ele>
  <time>2026-08-28T19:08:58Z</time>
  <course>18.33</course>
  <speed>0.01414213562373095</speed>
  <fix>3d</fix>
</trkpt>
<trkpt lat="40.072842" lon="-105.230575">
  <ele>1586.09</ele>
  <time>2026-08-28T19:08:58Z</time>
  <course>273.04</course>
  <speed>0.0</speed>
  <fix>3d</fix>
</trkpt>
<trkpt lat="40.072842" lon="-105.230575">
  <ele>1586.09</ele>
  <time>2026-08-28T19:08:58Z</time>
  <course>18.34</course>
  <speed>0.01414213562373095</speed>
  <fix>3d</fix>
</trkpt>
<trkpt lat="40.072842" lon="-105.230575">
  <ele>1586.09</ele>
  <time>2026-08-28T19:08:58Z</time>
  <course>273.04</course>
  <speed>0.0</speed>
  <fix>3d</fix>
</trkpt>
<trkpt lat="40.072842" lon="-105.230575">
  <ele>1586.09</ele>
  <time>2026-08-28T19:08:58Z</time>
  <course>18.35</course>
  <speed>0.01414213562373095</speed>
  <fix>3d</fix>
</trkpt>
<trkpt lat="40.072842" lon="-105.230575">
  <ele>1586.09</ele>
  <time>2026-08-28T19:08:58Z</time>
  <course>273.04</course>
  <speed>0.0</speed>
  <fix>3d</fix>
</trkpt>
<trkpt lat="40.072842" lon="-105.230575">
  <ele>1586.09</ele>
  <time>2026-08-28T19:08:58Z</time>
  <course>18.35</course>
  <speed>0.01414213562373095</speed>
  <fix>3d</fix>
</trkpt>
<trkpt lat="40.072842" lon="-105.230575">
  <ele>1586.09</ele>
  <time>2026-08-28T19:08:58Z</time>
  <course>273.04</course>
  <speed>0.0</speed>
  <fix>3d</fix>
</trkpt>
<trkpt lat="40.072842" lon="-105.230575">
  <ele>1586.09</ele>
  <time>2026-08-28T19:08:58Z</time>
  <course>18.36</course>
  <speed>0.01414213562373095</speed>
  <fix>3d</fix>
</trkpt>
<trkpt lat="40.072842" lon="-105.230575">
  <ele>1586.09</ele>
  <time>2026-08-28T19:08:58Z</time>
  <course>273.04</course>
  <speed>0.0</speed>
  <fix>3d</fix>
</trkpt>
<trkpt lat="40.072842" lon="-105.230575">
  <ele>1586.09</ele>
  <time>2026-08-28T19:08:58Z</time>
  <course>18.36</course>
  <speed>0.022360679774997897</speed>
  <fix>3d</fix>
</trkpt>
<trkpt lat="40.072842" lon="-105.230575">
  <ele>1586.09</ele>
  <time>2026-08-28T19:08:58Z</time>
  <course>273.04</course>
  <speed>0.0</speed>
  <fix>3d</fix>
</trkpt>
<trkpt lat="40.072842" lon="-105.230575">
  <ele>1586.09</ele>
  <time>2026-08-28T19:08:58Z</time>
  <course>18.36</course>
  <speed>0.022360679774997897</speed>
  <fix>3d</fix>
</trkpt>
<trkpt lat="40.072842" lon="-105.230575">
  <ele>1586.09</ele>
  <time>2026-08-28T19:08:58Z</time>
  <course>273.04</course>
  <speed>0.0</speed>
  <fix>3d</fix>
</trkpt>
<trkpt lat="40.072842" lon="-105.230575">
  <ele>1586.09</ele>
  <time>2026-08-28T19:08:58Z</time>
  <course>18.37</course>
  <speed>0.022360679774997897</speed>
  <fix>3d</fix>
</trkpt>
<trkpt lat="40.072842" lon="-105.230575">
  <ele>1586.09</ele>
  <time>2026-08-28T19:08:58Z</time>
  <course>273.04</course>
  <speed>0.0</speed>
  <fix>3d</fix>
</trkpt>
<trkpt lat="40.072842" lon="-105.230575">
  <ele>1586.09</ele>
  <time>2026-08-28T19:08:58Z</time>
  <course>18.37</course>
  <speed>0.022360679774997897</speed>
  <fix>3d</fix>
</trkpt>
<trkpt lat="40.072842" lon="-105.230575">
  <ele>1586.09</ele>
  <time>2026-08-28T19:08:58Z</time>
  <course>273.04</course>
  <speed>0.0</speed>
  <fix>3d</fix>
</trkpt>
<trkpt lat="40.072842" lon="-105.230575">
  <ele>1586.09</ele>
  <time>2026-08-28T19:08:58Z</time>
  <course>18.37</course>
  <speed>0.022360679774997897</speed>
  <fix>3d</fix>
</trkpt>
<trkpt lat="40.072842" lon="-105.230575">
  <ele>1586.09</ele>
  <time>2026-08-28T19:08:58Z</time>
  <course>273.04</course>
  <speed>0.0</speed>
  <fix>3d</fix>
</trkpt>
<trkpt lat="40.072842" lon="-105.230575">
  <ele>1586.09</ele>
  <time>2026-08-28T19:08:58Z</time>
  <course>18.37</course>
  <speed>0.022360679774997897</speed>
  <fix>3d</fix>
</trkpt>
<trkpt lat="40.072842" lon="-105.230575">
  <ele>1586.09</ele>
  <time>2026-08-28T19:08:58Z</time>
  <course>273.04</course>
  <speed>0.0</speed>
  <fix>3d</fix>
</trkpt>
<trkpt lat="40.072842" lon="-105.230575">
  <ele>1586.09</ele>
  <time>2026-08-28T19:08:58Z</time>
  <course>18.38</course>
  <speed>0.022360679774997897</speed>
  <fix>3d</fix>
</trkpt>
<trkpt lat="40.072842" lon="-105.230575">
  <ele>1586.09</ele>
  <time>2026-08-28T19:08:58Z</time>
  <course>273.04</course>
  <speed>0.0</speed>
  <fix>3d</fix>
</trkpt>
<trkpt lat="40.072842" lon="-105.230575">
  <ele>1586.09</ele>
  <time>2026-08-28T19:08:58Z</time>
  <course>18.38</course>
  <speed>0.022360679774997897</speed>
  <fix>3d</fix>
</trkpt>
<trkpt lat="40.072842" lon="-105.230575">
  <ele>1586.09</ele>
  <time>2026-08-28T19:08:58Z</time>
  <course>273.04</course>
  <speed>0.0</speed>
  <fix>3d</fix>
</trkpt>
<trkpt lat="40.072842" lon="-105.230575">
  <ele>1586.09</ele>
  <time>2026-08-28T19:08:58Z</time>
  <course>18.38</course>
  <speed>0.022360679774997897</speed>
  <fix>3d</fix>
</trkpt>
<trkpt lat="40.072842" lon="-105.230575">
  <ele>1586.09</ele>
  <time>2026-08-28T19:08:58Z</time>
  <course>273.04</course>
  <speed>0.0</speed>
  <fix>3d</fix>
</trkpt>
<trkpt lat="40.072842" lon="-105.230575">
  <ele>1586.09</ele>
  <time>2026-08-28T19:08:58Z</time>
  <course>18.38</course>
  <speed>0.022360679774997897</speed>
  <fix>3d</fix>
</trkpt>
<trkpt lat="40.072842" lon="-105.230575">
  <ele>1586.09</ele>
  <time>2026-08-28T19:08:58Z</time>
  <course>273.04</course>
  <speed>0.0</speed>
  <fix>3d</fix>
</trkpt>
<trkpt lat="40.072842" lon="-105.230575">
  <ele>1586.09</ele>
  <time>2026-08-28T19:08:58Z</time>
  <course>18.38</course>
  <speed>0.022360679774997897</speed>
  <fix>3d</fix>
</trkpt>
<trkpt lat="40.072842" lon="-105.230575">
  <ele>1586.09</ele>
  <time>2026-08-28T19:08:58Z</time>
  <course>273.04</course>
  <speed>0.0</speed>
  <fix>3d</fix>
</trkpt>
<trkpt lat="40.072842" lon="-105.230575">
  <ele>1586.09</ele>
  <time>2026-08-28T19:08:58Z</time>
  <course>18.38</course>
  <speed>0.022360679774997897</speed>
  <fix>3d</fix>
</trkpt>
<trkpt lat="40.072842" lon="-105.230575">
  <ele>1586.09</ele>
  <time>2026-08-28T19:08:58Z</time>
  <course>273.04</course>
  <speed>0.0</speed>
  <fix>3d</fix>
</trkpt>
<trkpt lat="40.072842" lon="-105.230575">
  <ele>1586.09</ele>
  <time>2026-08-28T19:08:58Z</time>
  <course>18.38</course>
  <speed>0.022360679774997897</speed>
  <fix>3d</fix>
</trkpt>
<trkpt lat="40.072842" lon="-105.230575">
  <ele>1586.09</ele>
  <time>2026-08-28T19:08:58Z</time>
  <course>273.04</course>
  <speed>0.0</speed>
  <fix>3d</fix>
</trkpt>
<trkpt lat="40.072842" lon="-105.230575">
  <ele>1586.09</ele>
  <time>2026-08-28T19:08:58Z</time>
  <course>18.38</course>
  <speed>0.022360679774997897</speed>
  <fix>3d</fix>
</trkpt>
<trkpt lat="40.072842" lon="-105.230575">
  <ele>1586.09</ele>
  <time>2026-08-28T19:08:58Z</time>
  <course>273.04</course>
  <speed>0.0</speed>
  <fix>3d</fix>
</trkpt>
<trkpt lat="40.072842" lon="-105.230575">
  <ele>1586.09</ele>
  <time>2026-08-28T19:08:58Z</time>
  <course>18.38</course>
  <speed>0.022360679774997897</speed>
  <fix>3d</fix>
</trkpt>
<trkpt lat="40.072842" lon="-105.230575">
  <ele>1586.09</ele>
  <time>2026-08-28T19:08:58Z</time>
  <course>273.04</course>
  <speed>0.0</speed>
  <fix>3d</fix>
</trkpt>
<trkpt lat="40.072842" lon="-105.230575">
  <ele>1586.09</ele>
  <time>2026-08-28T19:08:58Z</time>
  <course>18.38</course>
  <speed>0.022360679774997897</speed>
  <fix>3d</fix>
</trkpt>
<trkpt lat="40.072842" lon="-105.230575">
  <ele>1586.09</ele>
  <time>2026-08-28T19:08:58Z</time>
  <course>273.04</course>
  <speed>0.0</speed>
  <fix>3d</fix>
</trkpt>
<trkpt lat="40.072842" lon="-105.230575">
  <ele>1586.09</ele>
  <time>2026-08-28T19:08:58Z</time>
  <course>18.38</course>
  <speed>0.022360679774997897</speed>
  <fix>3d</fix>
</trkpt>
<trkpt lat="40.072842" lon="-105.230575">
  <ele>1586.09</ele>
  <time>2026-08-28T19:08:58Z</time>
  <course>273.04</course>
  <speed>0.0</speed>
  <fix>3d</fix>
</trkpt>
<trkpt lat="40.072842" lon="-105.230575">
  <ele>1586.09</ele>
  <time>2026-08-28T19:08:58Z</time>
  <course>18.38</course>
  <speed>0.022360679774997897</speed>
  <fix>3d</fix>
</trkpt>
<trkpt lat="40.072842" lon="-105.230575">
  <ele>1586.09</ele>
  <time>2026-08-28T19:08:58Z</time>
  <course>273.04</course>
  <speed>0.0</speed>
  <fix>3d</fix>
</trkpt>
<trkpt lat="40.072842" lon="-105.230575">
  <ele>1586.09</ele>
  <time>2026-08-28T19:08:58Z</time>
  <course>18.38</course>
  <speed>0.022360679774997897</speed>
  <fix>3d</fix>
</trkpt>
<trkpt lat="40.072842" lon="-105.230575">
  <ele>1586.09</ele>
  <time>2026-08-28T19:08:58Z</time>
  <course>273.04</course>
  <speed>0.0</speed>
  <fix>3d</fix>
</trkpt>
<trkpt lat="40.072842" lon="-105.230575">
  <ele>1586.09</ele>
  <time>2026-08-28T19:08:58Z</time>
  <course>18.38</course>
  <speed>0.022360679774997897</speed>
  <fix>3d</fix>
</trkpt>
<trkpt lat="40.072842" lon="-105.230575">
  <ele>1586.09</ele>
  <time>2026-08-28T19:08:58Z</time>
  <course>273.04</course>
  <speed>0.0</speed>
  <fix>3d</fix>
</trkpt>
<trkpt lat="40.072842" lon="-105.230575">
  <ele>1586.09</ele>
  <time>2026-08-28T19:08:58Z</time>
  <course>18.37</course>
  <speed>0.022360679774997897</speed>
  <fix>3d</fix>
</trkpt>
<trkpt lat="40.072842" lon="-105.230575">
  <ele>1586.09</ele>
  <time>2026-08-28T19:08:58Z</time>
  <course>273.04</course>
  <speed>0.0</speed>
  <fix>3d</fix>
</trkpt>
<trkpt lat="40.072842" lon="-105.230575">
  <ele>1586.09</ele>
  <time>2026-08-28T19:08:58Z</time>
  <course>18.37</course>
  <speed>0.022360679774997897</speed>
  <fix>3d</fix>
</trkpt>
<trkpt lat="40.072842" lon="-105.230575">
  <ele>1586.09</ele>
  <time>2026-08-28T19:08:58Z</time>
  <course>273.04</course>
  <speed>0.0</speed>
  <fix>3d</fix>
</trkpt>
<trkpt lat="40.072842" lon="-105.230575">
  <ele>1586.09</ele>
  <time>2026-08-28T19:08:58Z</time>
  <course>18.37</course>
  <speed>0.022360679774997897</speed>
  <fix>3d</fix>
</trkpt>
<trkpt lat="40.072842" lon="-105.230575">
  <ele>1586.09</ele>
  <time>2026-08-28T19:08:58Z</time>
  <course>273.04</course>
  <speed>0.0</speed>
  <fix>3d</fix>
</trkpt>
<trkpt lat="40.072842" lon="-105.230575">
  <ele>1586.09</ele>
  <time>2026-08-28T19:08:58Z</time>
  <course>18.37</course>
  <speed>0.022360679774997897</speed>
  <fix>3d</fix>
</trkpt>
<trkpt lat="40.072842" lon="-105.230575">
  <ele>1586.09</ele>
  <time>2026-08-28T19:08:58Z</time>
  <course>273.04</course>
  <speed>0.0</speed>
  <fix>3d</fix>
</trkpt>
<trkpt lat="40.072842" lon="-105.230575">
  <ele>1586.09</ele>
  <time>2026-08-28T19:08:58Z</time>
  <course>18.37</course>
  <speed>0.0316227766016838</speed>
  <fix>3d</fix>
</trkpt>
<trkpt lat="40.072842" lon="-105.230575">
  <ele>1586.09</ele>
  <time>2026-08-28T19:08:58Z</time>
  <course>273.04</course>
  <speed>0.0</speed>
  <fix>3d</fix>
</trkpt>
<trkpt lat="40.072842" lon="-105.230575">
  <ele>1586.09</ele>
  <time>2026-08-28T19:08:58Z</time>
  <course>18.36</course>
  <speed>0.0316227766016838</speed>
  <fix>3d</fix>
</trkpt>
<trkpt lat="40.072842" lon="-105.230575">
  <ele>1586.09</ele>
  <time>2026-08-28T19:08:58Z</time>
  <course>273.04</course>
  <speed>0.0</speed>
  <fix>3d</fix>
</trkpt>
<trkpt lat="40.072842" lon="-105.230575">
  <ele>1586.09</ele>
  <time>2026-08-28T19:08:59Z</time>
  <course>18.36</course>
  <speed>0.0316227766016838</speed>
  <fix>3d</fix>
</trkpt>
<trkpt lat="40.072842" lon="-105.230575">
  <ele>1586.09</ele>
  <time>2026-08-28T19:08:59Z</time>
  <course>273.04</course>
  <speed>0.0</speed>
  <fix>3d</fix>
</trkpt>
<trkpt lat="40.072842" lon="-105.230575">
  <ele>1586.09</ele>
  <time>2026-08-28T19:08:59Z</time>
  <course>18.36</course>
  <speed>0.0316227766016838</speed>
  <fix>3d</fix>
</trkpt>
<trkpt lat="40.072842" lon="-105.230575">
  <ele>1586.09</ele>
  <time>2026-08-28T19:08:59Z</time>
  <course>273.04</course>
  <speed>0.0</speed>
  <fix>3d</fix>
</trkpt>
<trkpt lat="40.072842" lon="-105.230575">
  <ele>1586.09</ele>
  <time>2026-08-28T19:08:59Z</time>
  <course>18.36</course>
  <speed>0.0316227766016838</speed>
  <fix>3d</fix>
</trkpt>
<trkpt lat="40.072842" lon="-105.230575">
  <ele>1586.09</ele>
  <time>2026-08-28T19:08:59Z</time>
  <course>273.04</course>
  <speed>0.0</speed>
  <fix>3d</fix>
</trkpt>
<trkpt lat="40.072842" lon="-105.230575">
  <ele>1586.09</ele>
  <time>2026-08-28T19:08:59Z</time>
  <course>18.36</course>
  <speed>0.0316227766016838</speed>
  <fix>3d</fix>
</trkpt>
<trkpt lat="40.072842" lon="-105.230575">
  <ele>1586.09</ele>
  <time>2026-08-28T19:08:59Z</time>
  <course>273.04</course>
  <speed>0.0</speed>
  <fix>3d</fix>
</trkpt>
<trkpt lat="40.072842" lon="-105.230575">
  <ele>1586.09</ele>
  <time>2026-08-28T19:08:59Z</time>
  <course>18.36</course>
  <speed>0.0316227766016838</speed>
  <fix>3d</fix>
</trkpt>
<trkpt lat="40.072842" lon="-105.230575">
  <ele>1586.09</ele>
  <time>2026-08-28T19:08:59Z</time>
  <course>273.04</course>
  <speed>0.0</speed>
  <fix>3d</fix>
</trkpt>
<trkpt lat="40.072842" lon="-105.230575">
  <ele>1586.09</ele>
  <time>2026-08-28T19:08:59Z</time>
  <course>18.36</course>
  <speed>0.0316227766016838</speed>
  <fix>3d</fix>
</trkpt>
<trkpt lat="40.072842" lon="-105.230575">
  <ele>1586.09</ele>
  <time>2026-08-28T19:08:59Z</time>
  <course>273.04</course>
  <speed>0.0</speed>
  <fix>3d</fix>
</trkpt>
<trkpt lat="40.072842" lon="-105.230575">
  <ele>1586.09</ele>
  <time>2026-08-28T19:08:59Z</time>
  <course>18.35</course>
  <speed>0.0316227766016838</speed>
  <fix>3d</fix>
</trkpt>
<trkpt lat="40.072842" lon="-105.230575">
  <ele>1586.09</ele>
  <time>2026-08-28T19:08:59Z</time>
  <course>273.04</course>
  <speed>0.0</speed>
  <fix>3d</fix>
</trkpt>
<trkpt lat="40.072842" lon="-105.230575">
  <ele>1586.09</ele>
  <time>2026-08-28T19:08:59Z</time>
  <course>18.35</course>
  <speed>0.0316227766016838</speed>
  <fix>3d</fix>
</trkpt>
<trkpt lat="40.072842" lon="-105.230575">
  <ele>1586.09</ele>
  <time>2026-08-28T19:08:59Z</time>
  <course>273.04</course>
  <speed>0.0</speed>
  <fix>3d</fix>
</trkpt>
<trkpt lat="40.072842" lon="-105.230575">
  <ele>1586.09</ele>
  <time>2026-08-28T19:08:59Z</time>
  <course>18.35</course>
  <speed>0.0316227766016838</speed>
  <fix>3d</fix>
</trkpt>
<trkpt lat="40.072842" lon="-105.230575">
  <ele>1586.09</ele>
  <time>2026-08-28T19:08:59Z</time>
  <course>273.04</course>
  <speed>0.0</speed>
  <fix>3d</fix>
</trkpt>
<trkpt lat="40.072842" lon="-105.230575">
  <ele>1586.09</ele>
  <time>2026-08-28T19:08:59Z</time>
  <course>18.35</course>
  <speed>0.0316227766016838</speed>
  <fix>3d</fix>
</trkpt>
<trkpt lat="40.072842" lon="-105.230575">
  <ele>1586.09</ele>
  <time>2026-08-28T19:08:59Z</time>
  <course>273.04</course>
  <speed>0.0</speed>
  <fix>3d</fix>
</trkpt>
<trkpt lat="40.072842" lon="-105.230575">
  <ele>1586.09</ele>
  <time>2026-08-28T19:08:59Z</time>
  <course>18.34</course>
  <speed>0.0316227766016838</speed>
  <fix>3d</fix>
</trkpt>
<trkpt lat="40.072842" lon="-105.230575">
  <ele>1586.09</ele>
  <time>2026-08-28T19:08:59Z</time>
  <course>273.04</course>
  <speed>0.0</speed>
  <fix>3d</fix>
</trkpt>
<trkpt lat="40.072842" lon="-105.230575">
  <ele>1586.09</ele>
  <time>2026-08-28T19:08:59Z</time>
  <course>18.34</course>
  <speed>0.0316227766016838</speed>
  <fix>3d</fix>
</trkpt>
<trkpt lat="40.072842" lon="-105.230575">
  <ele>1586.09</ele>
  <time>2026-08-28T19:08:59Z</time>
  <course>273.04</course>
  <speed>0.0</speed>
  <fix>3d</fix>
</trkpt>
<trkpt lat="40.072842" lon="-105.230575">
  <ele>1586.09</ele>
  <time>2026-08-28T19:08:59Z</time>
  <course>18.34</course>
  <speed>0.0316227766016838</speed>
  <fix>3d</fix>
</trkpt>
<trkpt lat="40.072842" lon="-105.230575">
  <ele>1586.09</ele>
  <time>2026-08-28T19:08:59Z</time>
  <course>273.04</course>
  <speed>0.0</speed>
  <fix>3d</fix>
</trkpt>
<trkpt lat="40.072842" lon="-105.230575">
  <ele>1586.09</ele>
  <time>2026-08-28T19:08:59Z</time>
  <course>18.34</course>
  <speed>0.0316227766016838</speed>
  <fix>3d</fix>
</trkpt>
<trkpt lat="40.072842" lon="-105.230575">
  <ele>1586.09</ele>
  <time>2026-08-28T19:08:59Z</time>
  <course>273.04</course>
  <speed>0.0</speed>
  <fix>3d</fix>
</trkpt>
<trkpt lat="40.072842" lon="-105.230575">
  <ele>1586.09</ele>
  <time>2026-08-28T19:08:59Z</time>
  <course>18.34</course>
  <speed>0.0316227766016838</speed>
  <fix>3d</fix>
</trkpt>
<trkpt lat="40.072842" lon="-105.230575">
  <ele>1586.09</ele>
  <time>2026-08-28T19:08:59Z</time>
  <course>273.04</course>
  <speed>0.0</speed>
  <fix>3d</fix>
</trkpt>
<trkpt lat="40.072842" lon="-105.230575">
  <ele>1586.09</ele>
  <time>2026-08-28T19:08:59Z</time>
  <course>18.33</course>
  <speed>0.0316227766016838</speed>
  <fix>3d</fix>
</trkpt>
<trkpt lat="40.072842" lon="-105.230575">
  <ele>1586.09</ele>
  <time>2026-08-28T19:08:59Z</time>
  <course>273.04</course>
  <speed>0.0</speed>
  <fix>3d</fix>
</trkpt>
<trkpt lat="40.072842" lon="-105.230575">
  <ele>1586.09</ele>
  <time>2026-08-28T19:08:59Z</time>
  <course>18.33</course>
  <speed>0.0316227766016838</speed>
  <fix>3d</fix>
</trkpt>
<trkpt lat="40.072842" lon="-105.230575">
  <ele>1586.09</ele>
  <time>2026-08-28T19:08:59Z</time>
  <course>273.04</course>
  <speed>0.0</speed>
  <fix>3d</fix>
</trkpt>
<trkpt lat="40.072842" lon="-105.230575">
  <ele>1586.09</ele>
  <time>2026-08-28T19:08:59Z</time>
  <course>18.33</course>
  <speed>0.0316227766016838</speed>
  <fix>3d</fix>
</trkpt>
<trkpt lat="40.072842" lon="-105.230575">
  <ele>1586.09</ele>
  <time>2026-08-28T19:08:59Z</time>
  <course>273.04</course>
  <speed>0.0</speed>
  <fix>3d</fix>
</trkpt>
<trkpt lat="40.072842" lon="-105.230575">
  <ele>1586.09</ele>
  <time>2026-08-28T19:08:59Z</time>
  <course>18.32</course>
  <speed>0.0316227766016838</speed>
  <fix>3d</fix>
</trkpt>
<trkpt lat="40.072842" lon="-105.230575">
  <ele>1586.09</ele>
  <time>2026-08-28T19:08:59Z</time>
  <course>273.04</course>
  <speed>0.0</speed>
  <fix>3d</fix>
</trkpt>
<trkpt lat="40.072842" lon="-105.230575">
  <ele>1586.09</ele>
  <time>2026-08-28T19:08:59Z</time>
  <course>18.32</course>
  <speed>0.0316227766016838</speed>
  <fix>3d</fix>
</trkpt>
<trkpt lat="40.072842" lon="-105.230575">
  <ele>1586.09</ele>
  <time>2026-08-28T19:08:59Z</time>
  <course>273.04</course>
  <speed>0.0</speed>
  <fix>3d</fix>
</trkpt>
<trkpt lat="40.072842" lon="-105.230575">
  <ele>1586.09</ele>
  <time>2026-08-28T19:08:59Z</time>
  <course>18.32</course>
  <speed>0.0316227766016838</speed>
  <fix>3d</fix>
</trkpt>
<trkpt lat="40.072842" lon="-105.230575">
  <ele>1586.09</ele>
  <time>2026-08-28T19:08:59Z</time>
  <course>273.04</course>
  <speed>0.0</speed>
  <fix>3d</fix>
</trkpt>
<trkpt lat="40.072842" lon="-105.230575">
  <ele>1586.09</ele>
  <time>2026-08-28T19:08:59Z</time>
  <course>18.31</course>
  <speed>0.0316227766016838</speed>
  <fix>3d</fix>
</trkpt>
<trkpt lat="40.072842" lon="-105.230575">
  <ele>1586.09</ele>
  <time>2026-08-28T19:08:59Z</time>
  <course>273.04</course>
  <speed>0.0</speed>
  <fix>3d</fix>
</trkpt>
<trkpt lat="40.072842" lon="-105.230575">
  <ele>1586.09</ele>
  <time>2026-08-28T19:08:59Z</time>
  <course>18.31</course>
  <speed>0.0316227766016838</speed>
  <fix>3d</fix>
</trkpt>
<trkpt lat="40.072842" lon="-105.230575">
  <ele>1586.09</ele>
  <time>2026-08-28T19:08:59Z</time>
  <course>273.04</course>
  <speed>0.0</speed>
  <fix>3d</fix>
</trkpt>
<trkpt lat="40.072842" lon="-105.230575">
  <ele>1586.09</ele>
  <time>2026-08-28T19:08:59Z</time>
  <course>18.31</course>
  <speed>0.03605551275463989</speed>
  <fix>3d</fix>
</trkpt>
<trkpt lat="40.072842" lon="-105.230575">
  <ele>1586.09</ele>
  <time>2026-08-28T19:08:59Z</time>
  <course>273.04</course>
  <speed>0.0</speed>
  <fix>3d</fix>
</trkpt>
<trkpt lat="40.072842" lon="-105.230575">
  <ele>1586.09</ele>
  <time>2026-08-28T19:08:59Z</time>
  <course>18.31</course>
  <speed>0.03605551275463989</speed>
  <fix>3d</fix>
</trkpt>
<trkpt lat="40.072842" lon="-105.230575">
  <ele>1586.09</ele>
  <time>2026-08-28T19:08:59Z</time>
  <course>273.04</course>
  <speed>0.0</speed>
  <fix>3d</fix>
</trkpt>
<trkpt lat="40.072842" lon="-105.230575">
  <ele>1586.09</ele>
  <time>2026-08-28T19:08:59Z</time>
  <course>18.3</course>
  <speed>0.03605551275463989</speed>
  <fix>3d</fix>
</trkpt>
<trkpt lat="40.072842" lon="-105.230575">
  <ele>1586.09</ele>
  <time>2026-08-28T19:08:59Z</time>
  <course>273.04</course>
  <speed>0.0</speed>
  <fix>3d</fix>
</trkpt>
<trkpt lat="40.072842" lon="-105.230575">
  <ele>1586.09</ele>
  <time>2026-08-28T19:08:59Z</time>
  <course>18.3</course>
  <speed>0.03605551275463989</speed>
  <fix>3d</fix>
</trkpt>
<trkpt lat="40.072842" lon="-105.230575">
  <ele>1586.09</ele>
  <time>2026-08-28T19:08:59Z</time>
  <course>273.04</course>
  <speed>0.0</speed>
  <fix>3d</fix>
</trkpt>
<trkpt lat="40.072842" lon="-105.230575">
  <ele>1586.09</ele>
  <time>2026-08-28T19:08:59Z</time>
  <course>18.3</course>
  <speed>0.03605551275463989</speed>
  <fix>3d</fix>
</trkpt>
<trkpt lat="40.072842" lon="-105.230575">
  <ele>1586.09</ele>
  <time>2026-08-28T19:08:59Z</time>
  <course>273.04</course>
  <speed>0.0</speed>
  <fix>3d</fix>
</trkpt>
<trkpt lat="40.072842" lon="-105.230575">
  <ele>1586.09</ele>
  <time>2026-08-28T19:08:59Z</time>
  <course>18.29</course>
  <speed>0.03605551275463989</speed>
  <fix>3d</fix>
</trkpt>
<trkpt lat="40.072842" lon="-105.230575">
  <ele>1586.09</ele>
  <time>2026-08-28T19:08:59Z</time>
  <course>273.04</course>
  <speed>0.0</speed>
  <fix>3d</fix>
</trkpt>
<trkpt lat="40.072842" lon="-105.230575">
  <ele>1586.09</ele>
  <time>2026-08-28T19:08:59Z</time>
  <course>18.29</course>
  <speed>0.03605551275463989</speed>
  <fix>3d</fix>
</trkpt>
<trkpt lat="40.072842" lon="-105.230575">
  <ele>1586.09</ele>
  <time>2026-08-28T19:08:59Z</time>
  <course>273.04</course>
  <speed>0.0</speed>
  <fix>3d</fix>
</trkpt>
<trkpt lat="40.072842" lon="-105.230575">
  <ele>1586.09</ele>
  <time>2026-08-28T19:08:59Z</time>
  <course>18.29</course>
  <speed>0.03605551275463989</speed>
  <fix>3d</fix>
</trkpt>
<trkpt lat="40.072842" lon="-105.230575">
  <ele>1586.09</ele>
  <time>2026-08-28T19:08:59Z</time>
  <course>273.04</course>
  <speed>0.0</speed>
  <fix>3d</fix>
</trkpt>
<trkpt lat="40.072842" lon="-105.230575">
  <ele>1586.09</ele>
  <time>2026-08-28T19:08:59Z</time>
  <course>18.28</course>
  <speed>0.03605551275463989</speed>
  <fix>3d</fix>
</trkpt>
<trkpt lat="40.072842" lon="-105.230575">
  <ele>1586.09</ele>
  <time>2026-08-28T19:08:59Z</time>
  <course>273.04</course>
  <speed>0.0</speed>
  <fix>3d</fix>
</trkpt>
<trkpt lat="40.072842" lon="-105.230575">
  <ele>1586.09</ele>
  <time>2026-08-28T19:08:59Z</time>
  <course>18.28</course>
  <speed>0.03605551275463989</speed>
  <fix>3d</fix>
</trkpt>
<trkpt lat="40.072842" lon="-105.230575">
  <ele>1586.09</ele>
  <time>2026-08-28T19:08:59Z</time>
  <course>273.04</course>
  <speed>0.0</speed>
  <fix>3d</fix>
</trkpt>
<trkpt lat="40.072842" lon="-105.230575">
  <ele>1586.09</ele>
  <time>2026-08-28T19:08:59Z</time>
  <course>18.27</course>
  <speed>0.044721359549995794</speed>
  <fix>3d</fix>
</trkpt>
<trkpt lat="40.072842" lon="-105.230575">
  <ele>1586.09</ele>
  <time>2026-08-28T19:08:59Z</time>
  <course>273.04</course>
  <speed>0.0</speed>
  <fix>3d</fix>
</trkpt>
<trkpt lat="40.072842" lon="-105.230575">
  <ele>1586.09</ele>
  <time>2026-08-28T19:08:59Z</time>
  <course>18.27</course>
  <speed>0.044721359549995794</speed>
  <fix>3d</fix>
</trkpt>
<trkpt lat="40.072842" lon="-105.230575">
  <ele>1586.09</ele>
  <time>2026-08-28T19:08:59Z</time>
  <course>273.04</course>
  <speed>0.0</speed>
  <fix>3d</fix>
</trkpt>
<trkpt lat="40.072842" lon="-105.230575">
  <ele>1586.09</ele>
  <time>2026-08-28T19:08:59Z</time>
  <course>18.27</course>
  <speed>0.044721359549995794</speed>
  <fix>3d</fix>
</trkpt>
<trkpt lat="40.072842" lon="-105.230575">
  <ele>1586.09</ele>
  <time>2026-08-28T19:08:59Z</time>
  <course>273.04</course>
  <speed>0.0</speed>
  <fix>3d</fix>
</trkpt>
<trkpt lat="40.072842" lon="-105.230575">
  <ele>1586.09</ele>
  <time>2026-08-28T19:08:59Z</time>
  <course>18.26</course>
  <speed>0.044721359549995794</speed>
  <fix>3d</fix>
</trkpt>
<trkpt lat="40.072842" lon="-105.230575">
  <ele>1586.09</ele>
  <time>2026-08-28T19:08:59Z</time>
  <course>273.04</course>
  <speed>0.0</speed>
  <fix>3d</fix>
</trkpt>
<trkpt lat="40.072842" lon="-105.230575">
  <ele>1586.09</ele>
  <time>2026-08-28T19:08:59Z</time>
  <course>18.26</course>
  <speed>0.044721359549995794</speed>
  <fix>3d</fix>
</trkpt>
<trkpt lat="40.072842" lon="-105.230575">
  <ele>1586.09</ele>
  <time>2026-08-28T19:08:59Z</time>
  <course>273.04</course>
  <speed>0.0</speed>
  <fix>3d</fix>
</trkpt>
<trkpt lat="40.072842" lon="-105.230575">
  <ele>1586.09</ele>
  <time>2026-08-28T19:08:59Z</time>
  <course>18.26</course>
  <speed>0.044721359549995794</speed>
  <fix>3d</fix>
</trkpt>
<trkpt lat="40.072842" lon="-105.230575">
  <ele>1586.09</ele>
  <time>2026-08-28T19:08:59Z</time>
  <course>273.04</course>
  <speed>0.0</speed>
  <fix>3d</fix>
</trkpt>
<trkpt lat="40.072842" lon="-105.230575">
  <ele>1586.09</ele>
  <time>2026-08-28T19:08:59Z</time>
  <course>18.25</course>
  <speed>0.044721359549995794</speed>
  <fix>3d</fix>
</trkpt>
<trkpt lat="40.072842" lon="-105.230575">
  <ele>1586.09</ele>
  <time>2026-08-28T19:08:59Z</time>
  <course>273.04</course>
  <speed>0.0</speed>
  <fix>3d</fix>
</trkpt>
<trkpt lat="40.072842" lon="-105.230575">
  <ele>1586.09</ele>
  <time>2026-08-28T19:08:59Z</time>
  <course>18.25</course>
  <speed>0.044721359549995794</speed>
  <fix>3d</fix>
</trkpt>
<trkpt lat="40.072842" lon="-105.230575">
  <ele>1586.09</ele>
  <time>2026-08-28T19:08:59Z</time>
  <course>273.04</course>
  <speed>0.0</speed>
  <fix>3d</fix>
</trkpt>
<trkpt lat="40.072842" lon="-105.230575">
  <ele>1586.09</ele>
  <time>2026-08-28T19:08:59Z</time>
  <course>18.25</course>
  <speed>0.044721359549995794</speed>
  <fix>3d</fix>
</trkpt>
<trkpt lat="40.072842" lon="-105.230575">
  <ele>1586.09</ele>
  <time>2026-08-28T19:08:59Z</time>
  <course>273.04</course>
  <speed>0.0</speed>
  <fix>3d</fix>
</trkpt>
<trkpt lat="40.072842" lon="-105.230575">
  <ele>1586.09</ele>
  <time>2026-08-28T19:08:59Z</time>
  <course>18.24</course>
  <speed>0.044721359549995794</speed>
  <fix>3d</fix>
</trkpt>
<trkpt lat="40.072842" lon="-105.230575">
  <ele>1586.09</ele>
  <time>2026-08-28T19:08:59Z</time>
  <course>273.04</course>
  <speed>0.0</speed>
  <fix>3d</fix>
</trkpt>
<trkpt lat="40.072842" lon="-105.230575">
  <ele>1586.09</ele>
  <time>2026-08-28T19:08:59Z</time>
  <course>18.24</course>
  <speed>0.044721359549995794</speed>
  <fix>3d</fix>
</trkpt>
<trkpt lat="40.072842" lon="-105.230575">
  <ele>1586.09</ele>
  <time>2026-08-28T19:08:59Z</time>
  <course>273.04</course>
  <speed>0.0</speed>
  <fix>3d</fix>
</trkpt>
<trkpt lat="40.072842" lon="-105.230575">
  <ele>1586.09</ele>
  <time>2026-08-28T19:08:59Z</time>
  <course>18.24</course>
  <speed>0.044721359549995794</speed>
  <fix>3d</fix>
</trkpt>
<trkpt lat="40.072842" lon="-105.230575">
  <ele>1586.09</ele>
  <time>2026-08-28T19:08:59Z</time>
  <course>273.04</course>
  <speed>0.0</speed>
  <fix>3d</fix>
</trkpt>
<trkpt lat="40.072842" lon="-105.230575">
  <ele>1586.09</ele>
  <time>2026-08-28T19:08:59Z</time>
  <course>18.24</course>
  <speed>0.044721359549995794</speed>
  <fix>3d</fix>
</trkpt>
<trkpt lat="40.072842" lon="-105.230575">
  <ele>1586.09</ele>
  <time>2026-08-28T19:08:59Z</time>
  <course>273.04</course>
  <speed>0.0</speed>
  <fix>3d</fix>
</trkpt>
<trkpt lat="40.072842" lon="-105.230575">
  <ele>1586.09</ele>
  <time>2026-08-28T19:08:59Z</time>
  <course>18.23</course>
  <speed>0.044721359549995794</speed>
  <fix>3d</fix>
</trkpt>
<trkpt lat="40.072842" lon="-105.230575">
  <ele>1586.09</ele>
  <time>2026-08-28T19:08:59Z</time>
  <course>273.04</course>
  <speed>0.0</speed>
  <fix>3d</fix>
</trkpt>
<trkpt lat="40.072842" lon="-105.230575">
  <ele>1586.09</ele>
  <time>2026-08-28T19:08:59Z</time>
  <course>18.23</course>
  <speed>0.044721359549995794</speed>
  <fix>3d</fix>
</trkpt>
<trkpt lat="40.072842" lon="-105.230575">
  <ele>1586.09</ele>
  <time>2026-08-28T19:08:59Z</time>
  <course>273.04</course>
  <speed>0.0</speed>
  <fix>3d</fix>
</trkpt>
<trkpt lat="40.072842" lon="-105.230575">
  <ele>1586.09</ele>
  <time>2026-08-28T19:08:59Z</time>
  <course>18.23</course>
  <speed>0.044721359549995794</speed>
  <fix>3d</fix>
</trkpt>
<trkpt lat="40.072842" lon="-105.230575">
  <ele>1586.09</ele>
  <time>2026-08-28T19:08:59Z</time>
  <course>273.04</course>
  <speed>0.0</speed>
  <fix>3d</fix>
</trkpt>
<trkpt lat="40.072842" lon="-105.230575">
  <ele>1586.09</ele>
  <time>2026-08-28T19:08:59Z</time>
  <course>18.22</course>
  <speed>0.044721359549995794</speed>
  <fix>3d</fix>
</trkpt>
<trkpt lat="40.072842" lon="-105.230575">
  <ele>1586.09</ele>
  <time>2026-08-28T19:08:59Z</time>
  <course>273.04</course>
  <speed>0.0</speed>
  <fix>3d</fix>
</trkpt>
<trkpt lat="40.072842" lon="-105.230575">
  <ele>1586.09</ele>
  <time>2026-08-28T19:08:59Z</time>
  <course>18.22</course>
  <speed>0.044721359549995794</speed>
  <fix>3d</fix>
</trkpt>
<trkpt lat="40.072842" lon="-105.230575">
  <ele>1586.09</ele>
  <time>2026-08-28T19:08:59Z</time>
  <course>273.04</course>
  <speed>0.0</speed>
  <fix>3d</fix>
</trkpt>
<trkpt lat="40.072842" lon="-105.230575">
  <ele>1586.09</ele>
  <time>2026-08-28T19:08:59Z</time>
  <course>18.22</course>
  <speed>0.044721359549995794</speed>
  <fix>3d</fix>
</trkpt>
<trkpt lat="40.072842" lon="-105.230575">
  <ele>1586.09</ele>
  <time>2026-08-28T19:08:59Z</time>
  <course>273.04</course>
  <speed>0.0</speed>
  <fix>3d</fix>
</trkpt>
<trkpt lat="40.072842" lon="-105.230575">
  <ele>1586.17</ele>
  <time>2026-08-28T19:08:59Z</time>
  <course>18.21</course>
  <speed>0.0</speed>
  <fix>3d</fix>
</trkpt>
<trkpt lat="40.072842" lon="-105.230575">
  <ele>1586.09</ele>
  <time>2026-08-28T19:08:59Z</time>
  <course>273.04</course>
  <speed>0.0</speed>
  <fix>3d</fix>
</trkpt>
<trkpt lat="40.072842" lon="-105.230575">
  <ele>1586.17</ele>
  <time>2026-08-28T19:08:59Z</time>
  <course>18.21</course>
  <speed>0.0</speed>
  <fix>3d</fix>
</trkpt>
<trkpt lat="40.072842" lon="-105.230575">
  <ele>1586.09</ele>
  <time>2026-08-28T19:08:59Z</time>
  <course>273.04</course>
  <speed>0.0</speed>
  <fix>3d</fix>
</trkpt>
<trkpt lat="40.072842" lon="-105.230575">
  <ele>1586.18</ele>
  <time>2026-08-28T19:08:59Z</time>
  <course>18.21</course>
  <speed>0.0</speed>
  <fix>3d</fix>
</trkpt>
<trkpt lat="40.072842" lon="-105.230575">
  <ele>1586.09</ele>
  <time>2026-08-28T19:08:59Z</time>
  <course>284.79</course>
  <speed>0.0</speed>
  <fix>3d</fix>
</trkpt>
<trkpt lat="40.072842" lon="-105.230575">
  <ele>1586.18</ele>
  <time>2026-08-28T19:08:59Z</time>
  <course>18.21</course>
  <speed>0.0</speed>
  <fix>3d</fix>
</trkpt>
<trkpt lat="40.072842" lon="-105.230575">
  <ele>1586.09</ele>
  <time>2026-08-28T19:08:59Z</time>
  <course>274.56</course>
  <speed>0.0</speed>
  <fix>3d</fix>
</trkpt>
<trkpt lat="40.072842" lon="-105.230575">
  <ele>1586.18</ele>
  <time>2026-08-28T19:08:59Z</time>
  <course>18.21</course>
  <speed>0.0</speed>
  <fix>3d</fix>
</trkpt>
<trkpt lat="40.072842" lon="-105.230575">
  <ele>1586.09</ele>
  <time>2026-08-28T19:08:59Z</time>
  <course>205.11</course>
  <speed>0.0</speed>
  <fix>3d</fix>
</trkpt>
<trkpt lat="40.072842" lon="-105.230575">
  <ele>1586.17</ele>
  <time>2026-08-28T19:08:59Z</time>
  <course>18.2</course>
  <speed>0.01</speed>
  <fix>3d</fix>
</trkpt>
<trkpt lat="40.072842" lon="-105.230575">
  <ele>1586.09</ele>
  <time>2026-08-28T19:08:59Z</time>
  <course>79.54</course>
  <speed>0.0</speed>
  <fix>3d</fix>
</trkpt>
<trkpt lat="40.072842" lon="-105.230575">
  <ele>1586.17</ele>
  <time>2026-08-28T19:08:59Z</time>
  <course>18.2</course>
  <speed>0.01</speed>
  <fix>3d</fix>
</trkpt>
<trkpt lat="40.072842" lon="-105.230575">
  <ele>1586.09</ele>
  <time>2026-08-28T19:08:59Z</time>
  <course>286.98</course>
  <speed>0.0</speed>
  <fix>3d</fix>
</trkpt>
<trkpt lat="40.072842" lon="-105.230575">
  <ele>1586.17</ele>
  <time>2026-08-28T19:08:59Z</time>
  <course>18.2</course>
  <speed>0.01</speed>
  <fix>3d</fix>
</trkpt>
<trkpt lat="40.072842" lon="-105.230575">
  <ele>1586.09</ele>
  <time>2026-08-28T19:08:59Z</time>
  <course>268.78</course>
  <speed>0.0</speed>
  <fix>3d</fix>
</trkpt>
<trkpt lat="40.072842" lon="-105.230575">
  <ele>1586.17</ele>
  <time>2026-08-28T19:08:59Z</time>
  <course>18.19</course>
  <speed>0.01</speed>
  <fix>3d</fix>
</trkpt>
<trkpt lat="40.072842" lon="-105.230575">
  <ele>1586.09</ele>
  <time>2026-08-28T19:08:59Z</time>
  <course>271.02</course>
  <speed>0.0</speed>
  <fix>3d</fix>
</trkpt>
<trkpt lat="40.072842" lon="-105.230575">
  <ele>1586.17</ele>
  <time>2026-08-28T19:08:59Z</time>
  <course>18.19</course>
  <speed>0.01</speed>
  <fix>3d</fix>
</trkpt>
<trkpt lat="40.072842" lon="-105.230575">
  <ele>1586.09</ele>
  <time>2026-08-28T19:08:59Z</time>
  <course>274.07</course>
  <speed>0.0</speed>
  <fix>3d</fix>
</trkpt>
<trkpt lat="40.072842" lon="-105.230575">
  <ele>1586.18</ele>
  <time>2026-08-28T19:08:59Z</time>
  <course>18.19</course>
  <speed>0.022360679774997897</speed>
  <fix>3d</fix>
</trkpt>
<trkpt lat="40.072842" lon="-105.230575">
  <ele>1586.09</ele>
  <time>2026-08-28T19:08:59Z</time>
  <course>273.17</course>
  <speed>0.0</speed>
  <fix>3d</fix>
</trkpt>
<trkpt lat="40.072842" lon="-105.230575">
  <ele>1586.18</ele>
  <time>2026-08-28T19:08:59Z</time>
  <course>18.19</course>
  <speed>0.022360679774997897</speed>
  <fix>3d</fix>
</trkpt>
<trkpt lat="40.072842" lon="-105.230575">
  <ele>1586.09</ele>
  <time>2026-08-28T19:08:59Z</time>
  <course>272.89</course>
  <speed>0.0</speed>
  <fix>3d</fix>
</trkpt>
<trkpt lat="40.072842" lon="-105.230575">
  <ele>1586.18</ele>
  <time>2026-08-28T19:08:59Z</time>
  <course>18.19</course>
  <speed>0.022360679774997897</speed>
  <fix>3d</fix>
</trkpt>
<trkpt lat="40.072842" lon="-105.230575">
  <ele>1586.09</ele>
  <time>2026-08-28T19:08:59Z</time>
  <course>262.49</course>
  <speed>0.0</speed>
  <fix>3d</fix>
</trkpt>
<trkpt lat="40.072842" lon="-105.230575">
  <ele>1586.18</ele>
  <time>2026-08-28T19:08:59Z</time>
  <course>18.19</course>
  <speed>0.022360679774997897</speed>
  <fix>3d</fix>
</trkpt>
<trkpt lat="40.072842" lon="-105.230575">
  <ele>1586.09</ele>
  <time>2026-08-28T19:08:59Z</time>
  <course>267.17</course>
  <speed>0.0</speed>
  <fix>3d</fix>
</trkpt>
<trkpt lat="40.072842" lon="-105.230575">
  <ele>1586.18</ele>
  <time>2026-08-28T19:08:59Z</time>
  <course>18.19</course>
  <speed>0.022360679774997897</speed>
  <fix>3d</fix>
</trkpt>
<trkpt lat="40.072842" lon="-105.230575">
  <ele>1586.09</ele>
  <time>2026-08-28T19:08:59Z</time>
  <course>273.71</course>
  <speed>0.0</speed>
  <fix>3d</fix>
</trkpt>
<trkpt lat="40.0728419" lon="-105.230575">
  <ele>1586.17</ele>
  <time>2026-08-28T19:08:59Z</time>
  <course>18.18</course>
  <speed>0.01414213562373095</speed>
  <fix>3d</fix>
</trkpt>
<trkpt lat="40.072842" lon="-105.230575">
  <ele>1586.09</ele>
  <time>2026-08-28T19:08:59Z</time>
  <course>271.44</course>
  <speed>0.0</speed>
  <fix>3d</fix>
</trkpt>
<trkpt lat="40.072842" lon="-105.230575">
  <ele>1586.17</ele>
  <time>2026-08-28T19:08:59Z</time>
  <course>18.18</course>
  <speed>0.01</speed>
  <fix>3d</fix>
</trkpt>
<trkpt lat="40.072842" lon="-105.230575">
  <ele>1586.09</ele>
  <time>2026-08-28T19:08:59Z</time>
  <course>273.26</course>
  <speed>0.0</speed>
  <fix>3d</fix>
</trkpt>
<trkpt lat="40.072842" lon="-105.230575">
  <ele>1586.17</ele>
  <time>2026-08-28T19:08:59Z</time>
  <course>18.18</course>
  <speed>0.01</speed>
  <fix>3d</fix>
</trkpt>
<trkpt lat="40.072842" lon="-105.230575">
  <ele>1586.09</ele>
  <time>2026-08-28T19:08:59Z</time>
  <course>273.23</course>
  <speed>0.0</speed>
  <fix>3d</fix>
</trkpt>
<trkpt lat="40.072842" lon="-105.230575">
  <ele>1586.17</ele>
  <time>2026-08-28T19:08:59Z</time>
  <course>18.17</course>
  <speed>0.0</speed>
  <fix>3d</fix>
</trkpt>
<trkpt lat="40.072842" lon="-105.230575">
  <ele>1586.09</ele>
  <time>2026-08-28T19:08:59Z</time>
  <course>272.99</course>
  <speed>0.0</speed>
  <fix>3d</fix>
</trkpt>
<trkpt lat="40.072842" lon="-105.230575">
  <ele>1586.17</ele>
  <time>2026-08-28T19:08:59Z</time>
  <course>18.17</course>
  <speed>0.0</speed>
  <fix>3d</fix>
</trkpt>
<trkpt lat="40.072842" lon="-105.230575">
  <ele>1586.09</ele>
  <time>2026-08-28T19:08:59Z</time>
  <course>273.02</course>
  <speed>0.0</speed>
  <fix>3d</fix>
</trkpt>
<trkpt lat="40.072842" lon="-105.230575">
  <ele>1586.17</ele>
  <time>2026-08-28T19:08:59Z</time>
  <course>18.17</course>
  <speed>0.0</speed>
  <fix>3d</fix>
</trkpt>
<trkpt lat="40.072842" lon="-105.230575">
  <ele>1586.09</ele>
  <time>2026-08-28T19:08:59Z</time>
  <course>273.05</course>
  <speed>0.0</speed>
  <fix>3d</fix>
</trkpt>
<trkpt lat="40.072842" lon="-105.230575">
  <ele>1586.17</ele>
  <time>2026-08-28T19:08:59Z</time>
  <course>18.17</course>
  <speed>0.0</speed>
  <fix>3d</fix>
</trkpt>
<trkpt lat="40.072842" lon="-105.230575">
  <ele>1586.09</ele>
  <time>2026-08-28T19:08:59Z</time>
  <course>357.39</course>
  <speed>0.0</speed>
  <fix>3d</fix>
</trkpt>
<trkpt lat="40.072842" lon="-105.230575">
  <ele>1586.17</ele>
  <time>2026-08-28T19:08:59Z</time>
  <course>18.16</course>
  <speed>0.0</speed>
  <fix>3d</fix>
</trkpt>
<trkpt lat="40.072842" lon="-105.230575">
  <ele>1586.09</ele>
  <time>2026-08-28T19:08:59Z</time>
  <course>329.12</course>
  <speed>0.0</speed>
  <fix>3d</fix>
</trkpt>
<trkpt lat="40.072842" lon="-105.230575">
  <ele>1586.17</ele>
  <time>2026-08-28T19:08:59Z</time>
  <course>18.16</course>
  <speed>0.0</speed>
  <fix>3d</fix>
</trkpt>
<trkpt lat="40.072842" lon="-105.230575">
  <ele>1586.09</ele>
  <time>2026-08-28T19:08:59Z</time>
  <course>311.41</course>
  <speed>0.0</speed>
  <fix>3d</fix>
</trkpt>
<trkpt lat="40.072842" lon="-105.230575">
  <ele>1586.17</ele>
  <time>2026-08-28T19:08:59Z</time>
  <course>18.16</course>
  <speed>0.0</speed>
  <fix>3d</fix>
</trkpt>
<trkpt lat="40.072842" lon="-105.230575">
  <ele>1586.09</ele>
  <time>2026-08-28T19:08:59Z</time>
  <course>182.06</course>
  <speed>0.0</speed>
  <fix>3d</fix>
</trkpt>
<trkpt lat="40.072842" lon="-105.230575">
  <ele>1586.17</ele>
  <time>2026-08-28T19:08:59Z</time>
  <course>18.16</course>
  <speed>0.0</speed>
  <fix>3d</fix>
</trkpt>
<trkpt lat="40.072842" lon="-105.230575">
  <ele>1586.09</ele>
  <time>2026-08-28T19:08:59Z</time>
  <course>251.33</course>
  <speed>0.0</speed>
  <fix>3d</fix>
</trkpt>
<trkpt lat="40.072842" lon="-105.230575">
  <ele>1586.17</ele>
  <time>2026-08-28T19:08:59Z</time>
  <course>18.15</course>
  <speed>0.0</speed>
  <fix>3d</fix>
</trkpt>
<trkpt lat="40.072842" lon="-105.230575">
  <ele>1586.09</ele>
  <time>2026-08-28T19:08:59Z</time>
  <course>311.43</course>
  <speed>0.0</speed>
  <fix>3d</fix>
</trkpt>
<trkpt lat="40.072842" lon="-105.230575">
  <ele>1586.17</ele>
  <time>2026-08-28T19:08:59Z</time>
  <course>18.14</course>
  <speed>0.0</speed>
  <fix>3d</fix>
</trkpt>
<trkpt lat="40.072842" lon="-105.230575">
  <ele>1586.09</ele>
  <time>2026-08-28T19:08:59Z</time>
  <course>271.34</course>
  <speed>0.0</speed>
  <fix>3d</fix>
</trkpt>
<trkpt lat="40.072842" lon="-105.230575">
  <ele>1586.17</ele>
  <time>2026-08-28T19:08:59Z</time>
  <course>18.13</course>
  <speed>0.0</speed>
  <fix>3d</fix>
</trkpt>
<trkpt lat="40.072842" lon="-105.230575">
  <ele>1586.09</ele>
  <time>2026-08-28T19:08:59Z</time>
  <course>261.44</course>
  <speed>0.0</speed>
  <fix>3d</fix>
</trkpt>
<trkpt lat="40.072842" lon="-105.230575">
  <ele>1586.18</ele>
  <time>2026-08-28T19:08:59Z</time>
  <course>18.12</course>
  <speed>0.0</speed>
  <fix>3d</fix>
</trkpt>
<trkpt lat="40.072842" lon="-105.230575">
  <ele>1586.09</ele>
  <time>2026-08-28T19:08:59Z</time>
  <course>114.31</course>
  <speed>0.0</speed>
  <fix>3d</fix>
</trkpt>
<trkpt lat="40.072842" lon="-105.230575">
  <ele>1586.18</ele>
  <time>2026-08-28T19:08:59Z</time>
  <course>18.11</course>
  <speed>0.0</speed>
  <fix>3d</fix>
</trkpt>
<trkpt lat="40.072842" lon="-105.230575">
  <ele>1586.09</ele>
  <time>2026-08-28T19:08:59Z</time>
  <course>341.52</course>
  <speed>0.0</speed>
  <fix>3d</fix>
</trkpt>
<trkpt lat="40.072842" lon="-105.230575">
  <ele>1586.18</ele>
  <time>2026-08-28T19:08:59Z</time>
  <course>18.1</course>
  <speed>0.0</speed>
  <fix>3d</fix>
</trkpt>
<trkpt lat="40.072842" lon="-105.230575">
  <ele>1586.09</ele>
  <time>2026-08-28T19:08:59Z</time>
  <course>328.04</course>
  <speed>0.0</speed>
  <fix>3d</fix>
</trkpt>
<trkpt lat="40.072842" lon="-105.230575">
  <ele>1586.18</ele>
  <time>2026-08-28T19:08:59Z</time>
  <course>18.09</course>
  <speed>0.0</speed>
  <fix>3d</fix>
</trkpt>
<trkpt lat="40.072842" lon="-105.230575">
  <ele>1586.09</ele>
  <time>2026-08-28T19:08:59Z</time>
  <course>288.03</course>
  <speed>0.0</speed>
  <fix>3d</fix>
</trkpt>
<trkpt lat="40.072842" lon="-105.230575">
  <ele>1586.18</ele>
  <time>2026-08-28T19:08:59Z</time>
  <course>18.08</course>
  <speed>0.0</speed>
  <fix>3d</fix>
</trkpt>
<trkpt lat="40.072842" lon="-105.230575">
  <ele>1586.09</ele>
  <time>2026-08-28T19:08:59Z</time>
  <course>271.18</course>
  <speed>0.0</speed>
  <fix>3d</fix>
</trkpt>
<trkpt lat="40.072842" lon="-105.230575">
  <ele>1586.18</ele>
  <time>2026-08-28T19:08:59Z</time>
  <course>18.06</course>
  <speed>0.0</speed>
  <fix>3d</fix>
</trkpt>
<trkpt lat="40.072842" lon="-105.230575">
  <ele>1586.09</ele>
  <time>2026-08-28T19:08:59Z</time>
  <course>260.2</course>
  <speed>0.0</speed>
  <fix>3d</fix>
</trkpt>
<trkpt lat="40.072842" lon="-105.230575">
  <ele>1586.18</ele>
  <time>2026-08-28T19:08:59Z</time>
  <course>18.04</course>
  <speed>0.0</speed>
  <fix>3d</fix>
</trkpt>
<trkpt lat="40.072842" lon="-105.230575">
  <ele>1586.09</ele>
  <time>2026-08-28T19:08:59Z</time>
  <course>51.58</course>
  <speed>0.0</speed>
  <fix>3d</fix>
</trkpt>
<trkpt lat="40.072842" lon="-105.230575">
  <ele>1586.18</ele>
  <time>2026-08-28T19:08:59Z</time>
  <course>18.02</course>
  <speed>0.0</speed>
  <fix>3d</fix>
</trkpt>
<trkpt lat="40.072842" lon="-105.230575">
  <ele>1586.09</ele>
  <time>2026-08-28T19:08:59Z</time>
  <course>339.43</course>
  <speed>0.0</speed>
  <fix>3d</fix>
</trkpt>
<trkpt lat="40.072842" lon="-105.230575">
  <ele>1586.18</ele>
  <time>2026-08-28T19:08:59Z</time>
  <course>18.0</course>
  <speed>0.0</speed>
  <fix>3d</fix>
</trkpt>
<trkpt lat="40.072842" lon="-105.230575">
  <ele>1586.09</ele>
  <time>2026-08-28T19:08:59Z</time>
  <course>323.18</course>
  <speed>0.0</speed>
  <fix>3d</fix>
</trkpt>
<trkpt lat="40.072842" lon="-105.230575">
  <ele>1586.18</ele>
  <time>2026-08-28T19:08:59Z</time>
  <course>17.98</course>
  <speed>0.0</speed>
  <fix>3d</fix>
</trkpt>
<trkpt lat="40.072842" lon="-105.230575">
  <ele>1586.09</ele>
  <time>2026-08-28T19:08:59Z</time>
  <course>291.24</course>
  <speed>0.0</speed>
  <fix>3d</fix>
</trkpt>
<trkpt lat="40.072842" lon="-105.230575">
  <ele>1586.18</ele>
  <time>2026-08-28T19:08:59Z</time>
  <course>17.95</course>
  <speed>0.0</speed>
  <fix>3d</fix>
</trkpt>
<trkpt lat="40.072842" lon="-105.230575">
  <ele>1586.09</ele>
  <time>2026-08-28T19:08:59Z</time>
  <course>252.71</course>
  <speed>0.0</speed>
  <fix>3d</fix>
</trkpt>
<trkpt lat="40.072842" lon="-105.230575">
  <ele>1586.18</ele>
  <time>2026-08-28T19:08:59Z</time>
  <course>17.93</course>
  <speed>0.01</speed>
  <fix>3d</fix>
</trkpt>
<trkpt lat="40.072842" lon="-105.230575">
  <ele>1586.09</ele>
  <time>2026-08-28T19:08:59Z</time>
  <course>122.55</course>
  <speed>0.0</speed>
  <fix>3d</fix>
</trkpt>
<trkpt lat="40.072842" lon="-105.230575">
  <ele>1586.18</ele>
  <time>2026-08-28T19:08:59Z</time>
  <course>17.9</course>
  <speed>0.01</speed>
  <fix>3d</fix>
</trkpt>
<trkpt lat="40.072842" lon="-105.230575">
  <ele>1586.09</ele>
  <time>2026-08-28T19:08:59Z</time>
  <course>316.35</course>
  <speed>0.0</speed>
  <fix>3d</fix>
</trkpt>
<trkpt lat="40.072842" lon="-105.230575">
  <ele>1586.18</ele>
  <time>2026-08-28T19:08:59Z</time>
  <course>17.87</course>
  <speed>0.01</speed>
  <fix>3d</fix>
</trkpt>
<trkpt lat="40.072842" lon="-105.230575">
  <ele>1586.09</ele>
  <time>2026-08-28T19:08:59Z</time>
  <course>328.26</course>
  <speed>0.0</speed>
  <fix>3d</fix>
</trkpt>
<trkpt lat="40.072842" lon="-105.230575">
  <ele>1586.18</ele>
  <time>2026-08-28T19:08:59Z</time>
  <course>17.85</course>
  <speed>0.01</speed>
  <fix>3d</fix>
</trkpt>
<trkpt lat="40.072842" lon="-105.230575">
  <ele>1586.09</ele>
  <time>2026-08-28T19:08:59Z</time>
  <course>278.04</course>
  <speed>0.0</speed>
  <fix>3d</fix>
</trkpt>
<trkpt lat="40.072842" lon="-105.230575">
  <ele>1586.18</ele>
  <time>2026-08-28T19:08:59Z</time>
  <course>17.81</course>
  <speed>0.01</speed>
  <fix>3d</fix>
</trkpt>
<trkpt lat="40.072842" lon="-105.230575">
  <ele>1586.09</ele>
  <time>2026-08-28T19:08:59Z</time>
  <course>247.26</course>
  <speed>0.0</speed>
  <fix>3d</fix>
</trkpt>
<trkpt lat="40.072842" lon="-105.230575">
  <ele>1586.18</ele>
  <time>2026-08-28T19:08:59Z</time>
  <course>17.78</course>
  <speed>0.01</speed>
  <fix>3d</fix>
</trkpt>
<trkpt lat="40.072842" lon="-105.230575">
  <ele>1586.09</ele>
  <time>2026-08-28T19:08:59Z</time>
  <course>102.76</course>
  <speed>0.0</speed>
  <fix>3d</fix>
</trkpt>
<trkpt lat="40.072842" lon="-105.230575">
  <ele>1586.18</ele>
  <time>2026-08-28T19:08:59Z</time>
  <course>17.75</course>
  <speed>0.01</speed>
  <fix>3d</fix>
</trkpt>
<trkpt lat="40.072842" lon="-105.230575">
  <ele>1586.09</ele>
  <time>2026-08-28T19:08:59Z</time>
  <course>313.27</course>
  <speed>0.0</speed>
  <fix>3d</fix>
</trkpt>
<trkpt lat="40.072842" lon="-105.230575">
  <ele>1586.18</ele>
  <time>2026-08-28T19:08:59Z</time>
  <course>17.71</course>
  <speed>0.01</speed>
  <fix>3d</fix>
</trkpt>
<trkpt lat="40.072842" lon="-105.230575">
  <ele>1586.09</ele>
  <time>2026-08-28T19:08:59Z</time>
  <course>287.4</course>
  <speed>0.0</speed>
  <fix>3d</fix>
</trkpt>
<trkpt lat="40.072842" lon="-105.230575">
  <ele>1586.18</ele>
  <time>2026-08-28T19:08:59Z</time>
  <course>17.67</course>
  <speed>0.01</speed>
  <fix>3d</fix>
</trkpt>
<trkpt lat="40.072842" lon="-105.230575">
  <ele>1586.09</ele>
  <time>2026-08-28T19:08:59Z</time>
  <course>304.28</course>
  <speed>0.0</speed>
  <fix>3d</fix>
</trkpt>
<trkpt lat="40.072842" lon="-105.230575">
  <ele>1586.17</ele>
  <time>2026-08-28T19:08:59Z</time>
  <course>17.63</course>
  <speed>0.01</speed>
  <fix>3d</fix>
</trkpt>
<trkpt lat="40.072842" lon="-105.230575">
  <ele>1586.09</ele>
  <time>2026-08-28T19:08:59Z</time>
  <course>314.4</course>
  <speed>0.0</speed>
  <fix>3d</fix>
</trkpt>
<trkpt lat="40.0728419" lon="-105.230575">
  <ele>1586.17</ele>
  <time>2026-08-28T19:08:59Z</time>
  <course>17.59</course>
  <speed>0.01414213562373095</speed>
  <fix>3d</fix>
</trkpt>
<trkpt lat="40.072842" lon="-105.230575">
  <ele>1586.09</ele>
  <time>2026-08-28T19:08:59Z</time>
  <course>274.92</course>
  <speed>0.0</speed>
  <fix>3d</fix>
</trkpt>
<trkpt lat="40.0728419" lon="-105.230575">
  <ele>1586.17</ele>
  <time>2026-08-28T19:08:59Z</time>
  <course>17.55</course>
  <speed>0.022360679774997897</speed>
  <fix>3d</fix>
</trkpt>
<trkpt lat="40.072842" lon="-105.230575">
  <ele>1586.09</ele>
  <time>2026-08-28T19:08:59Z</time>
  <course>270.95</course>
  <speed>0.0</speed>
  <fix>3d</fix>
</trkpt>
<trkpt lat="40.0728419" lon="-105.230575">
  <ele>1586.17</ele>
  <time>2026-08-28T19:08:59Z</time>
  <course>17.51</course>
  <speed>0.022360679774997897</speed>
  <fix>3d</fix>
</trkpt>
<trkpt lat="40.072842" lon="-105.230575">
  <ele>1586.09</ele>
  <time>2026-08-28T19:08:59Z</time>
  <course>278.43</course>
  <speed>0.0</speed>
  <fix>3d</fix>
</trkpt>
<trkpt lat="40.0728419" lon="-105.230575">
  <ele>1586.17</ele>
  <time>2026-08-28T19:08:59Z</time>
  <course>17.46</course>
  <speed>0.022360679774997897</speed>
  <fix>3d</fix>
</trkpt>
<trkpt lat="40.072842" lon="-105.230575">
  <ele>1586.09</ele>
  <time>2026-08-28T19:08:59Z</time>
  <course>276.8</course>
  <speed>0.0</speed>
  <fix>3d</fix>
</trkpt>
<trkpt lat="40.0728419" lon="-105.230575">
  <ele>1586.17</ele>
  <time>2026-08-28T19:08:59Z</time>
  <course>17.42</course>
  <speed>0.022360679774997897</speed>
  <fix>3d</fix>
</trkpt>
<trkpt lat="40.072842" lon="-105.230575">
  <ele>1586.09</ele>
  <time>2026-08-28T19:08:59Z</time>
  <course>314.68</course>
  <speed>0.0</speed>
  <fix>3d</fix>
</trkpt>
<trkpt lat="40.0728419" lon="-105.230575">
  <ele>1586.17</ele>
  <time>2026-08-28T19:08:59Z</time>
  <course>17.37</course>
  <speed>0.022360679774997897</speed>
  <fix>3d</fix>
</trkpt>
<trkpt lat="40.072842" lon="-105.230575">
  <ele>1586.09</ele>
  <time>2026-08-28T19:08:59Z</time>
  <course>308.47</course>
  <speed>0.0</speed>
  <fix>3d</fix>
</trkpt>
<trkpt lat="40.0728419" lon="-105.230575">
  <ele>1586.17</ele>
  <time>2026-08-28T19:08:59Z</time>
  <course>17.32</course>
  <speed>0.022360679774997897</speed>
  <fix>3d</fix>
</trkpt>
<trkpt lat="40.072842" lon="-105.230575">
  <ele>1586.09</ele>
  <time>2026-08-28T19:08:59Z</time>
  <course>266.25</course>
  <speed>0.0</speed>
  <fix>3d</fix>
</trkpt>
<trkpt lat="40.0728419" lon="-105.230575">
  <ele>1586.18</ele>
  <time>2026-08-28T19:08:59Z</time>
  <course>17.27</course>
  <speed>0.022360679774997897</speed>
  <fix>3d</fix>
</trkpt>
<trkpt lat="40.072842" lon="-105.230575">
  <ele>1586.09</ele>
  <time>2026-08-28T19:08:59Z</time>
  <course>272.86</course>
  <speed>0.0</speed>
  <fix>3d</fix>
</trkpt>
<trkpt lat="40.0728419" lon="-105.230575">
  <ele>1586.18</ele>
  <time>2026-08-28T19:08:59Z</time>
  <course>17.21</course>
  <speed>0.022360679774997897</speed>
  <fix>3d</fix>
</trkpt>
<trkpt lat="40.072842" lon="-105.230575">
  <ele>1586.09</ele>
  <time>2026-08-28T19:08:59Z</time>
  <course>271.26</course>
  <speed>0.0</speed>
  <fix>3d</fix>
</trkpt>
<trkpt lat="40.0728419" lon="-105.2305749">
  <ele>1586.18</ele>
  <time>2026-08-28T19:08:59Z</time>
  <course>17.16</course>
  <speed>0.022360679774997897</speed>
  <fix>3d</fix>
</trkpt>
<trkpt lat="40.072842" lon="-105.230575">
  <ele>1586.09</ele>
  <time>2026-08-28T19:08:59Z</time>
  <course>305.66</course>
  <speed>0.0</speed>
  <fix>3d</fix>
</trkpt>
<trkpt lat="40.0728419" lon="-105.2305749">
  <ele>1586.18</ele>
  <time>2026-08-28T19:08:59Z</time>
  <course>17.1</course>
  <speed>0.022360679774997897</speed>
  <fix>3d</fix>
</trkpt>
<trkpt lat="40.072842" lon="-105.230575">
  <ele>1586.09</ele>
  <time>2026-08-28T19:08:59Z</time>
  <course>315.09</course>
  <speed>0.0</speed>
  <fix>3d</fix>
</trkpt>
<trkpt lat="40.0728419" lon="-105.2305749">
  <ele>1586.18</ele>
  <time>2026-08-28T19:08:59Z</time>
  <course>17.04</course>
  <speed>0.022360679774997897</speed>
  <fix>3d</fix>
</trkpt>
<trkpt lat="40.072842" lon="-105.230575">
  <ele>1586.09</ele>
  <time>2026-08-28T19:08:59Z</time>
  <course>297.97</course>
  <speed>0.0</speed>
  <fix>3d</fix>
</trkpt>
<trkpt lat="40.0728419" lon="-105.2305749">
  <ele>1586.18</ele>
  <time>2026-08-28T19:08:59Z</time>
  <course>16.98</course>
  <speed>0.022360679774997897</speed>
  <fix>3d</fix>
</trkpt>
<trkpt lat="40.072842" lon="-105.230575">
  <ele>1586.09</ele>
  <time>2026-08-28T19:08:59Z</time>
  <course>272.91</course>
  <speed>0.0</speed>
  <fix>3d</fix>
</trkpt>
<trkpt lat="40.0728419" lon="-105.2305749">
  <ele>1586.18</ele>
  <time>2026-08-28T19:08:59Z</time>
  <course>16.92</course>
  <speed>0.022360679774997897</speed>
  <fix>3d</fix>
</trkpt>
<trkpt lat="40.072842" lon="-105.230575">
  <ele>1586.09</ele>
  <time>2026-08-28T19:08:59Z</time>
  <course>274.24</course>
  <speed>0.0</speed>
  <fix>3d</fix>
</trkpt>
<trkpt lat="40.0728419" lon="-105.2305749">
  <ele>1586.18</ele>
  <time>2026-08-28T19:08:59Z</time>
  <course>16.86</course>
  <speed>0.022360679774997897</speed>
  <fix>3d</fix>
</trkpt>
<trkpt lat="40.072842" lon="-105.230575">
  <ele>1586.09</ele>
  <time>2026-08-28T19:08:59Z</time>
  <course>276.19</course>
  <speed>0.0</speed>
  <fix>3d</fix>
</trkpt>
<trkpt lat="40.0728419" lon="-105.2305749">
  <ele>1586.18</ele>
  <time>2026-08-28T19:08:59Z</time>
  <course>16.8</course>
  <speed>0.022360679774997897</speed>
  <fix>3d</fix>
</trkpt>
<trkpt lat="40.072842" lon="-105.230575">
  <ele>1586.09</ele>
  <time>2026-08-28T19:08:59Z</time>
  <course>286.92</course>
  <speed>0.0</speed>
  <fix>3d</fix>
</trkpt>
<trkpt lat="40.0728419" lon="-105.2305749">
  <ele>1586.17</ele>
  <time>2026-08-28T19:08:59Z</time>
  <course>16.73</course>
  <speed>0.022360679774997897</speed>
  <fix>3d</fix>
</trkpt>
<trkpt lat="40.072842" lon="-105.230575">
  <ele>1586.09</ele>
  <time>2026-08-28T19:08:59Z</time>
  <course>315.22</course>
  <speed>0.0</speed>
  <fix>3d</fix>
</trkpt>
<trkpt lat="40.0728419" lon="-105.2305749">
  <ele>1586.17</ele>
  <time>2026-08-28T19:08:59Z</time>
  <course>16.67</course>
  <speed>0.022360679774997897</speed>
  <fix>3d</fix>
</trkpt>
<trkpt lat="40.072842" lon="-105.230575">
  <ele>1586.09</ele>
  <time>2026-08-28T19:08:59Z</time>
  <course>310.7</course>
  <speed>0.0</speed>
  <fix>3d</fix>
</trkpt>
<trkpt lat="40.0728419" lon="-105.2305749">
  <ele>1586.17</ele>
  <time>2026-08-28T19:08:59Z</time>
  <course>16.6</course>
  <speed>0.022360679774997897</speed>
  <fix>3d</fix>
</trkpt>
<trkpt lat="40.072842" lon="-105.230575">
  <ele>1586.09</ele>
  <time>2026-08-28T19:08:59Z</time>
  <course>273.63</course>
  <speed>0.0</speed>
  <fix>3d</fix>
</trkpt>
<trkpt lat="40.0728419" lon="-105.2305749">
  <ele>1586.17</ele>
  <time>2026-08-28T19:08:59Z</time>
  <course>16.54</course>
  <speed>0.022360679774997897</speed>
  <fix>3d</fix>
</trkpt>
<trkpt lat="40.072842" lon="-105.230575">
  <ele>1586.09</ele>
  <time>2026-08-28T19:08:59Z</time>
  <course>269.31</course>
  <speed>0.0</speed>
  <fix>3d</fix>
</trkpt>
<trkpt lat="40.0728419" lon="-105.2305749">
  <ele>1586.17</ele>
  <time>2026-08-28T19:08:59Z</time>
  <course>16.48</course>
  <speed>0.022360679774997897</speed>
  <fix>3d</fix>
</trkpt>
<trkpt lat="40.072842" lon="-105.230575">
  <ele>1586.09</ele>
  <time>2026-08-28T19:08:59Z</time>
  <course>279.16</course>
  <speed>0.0</speed>
  <fix>3d</fix>
</trkpt>
<trkpt lat="40.0728419" lon="-105.2305749">
  <ele>1586.17</ele>
  <time>2026-08-28T19:08:59Z</time>
  <course>16.41</course>
  <speed>0.022360679774997897</speed>
  <fix>3d</fix>
</trkpt>
<trkpt lat="40.072842" lon="-105.230575">
  <ele>1586.09</ele>
  <time>2026-08-28T19:08:59Z</time>
  <course>285.45</course>
  <speed>0.0</speed>
  <fix>3d</fix>
</trkpt>
<trkpt lat="40.0728419" lon="-105.2305749">
  <ele>1586.17</ele>
  <time>2026-08-28T19:08:59Z</time>
  <course>16.35</course>
  <speed>0.022360679774997897</speed>
  <fix>3d</fix>
</trkpt>
<trkpt lat="40.072842" lon="-105.230575">
  <ele>1586.09</ele>
  <time>2026-08-28T19:08:59Z</time>
  <course>281.15</course>
  <speed>0.0</speed>
  <fix>3d</fix>
</trkpt>
<trkpt lat="40.0728419" lon="-105.2305749">
  <ele>1586.18</ele>
  <time>2026-08-28T19:08:59Z</time>
  <course>16.29</course>
  <speed>0.022360679774997897</speed>
  <fix>3d</fix>
</trkpt>
<trkpt lat="40.072842" lon="-105.230575">
  <ele>1586.09</ele>
  <time>2026-08-28T19:08:59Z</time>
  <course>306.71</course>
  <speed>0.0</speed>
  <fix>3d</fix>
</trkpt>
<trkpt lat="40.0728419" lon="-105.2305749">
  <ele>1586.18</ele>
  <time>2026-08-28T19:09:00Z</time>
  <course>16.22</course>
  <speed>0.022360679774997897</speed>
  <fix>3d</fix>
</trkpt>
<trkpt lat="40.072842" lon="-105.230575">
  <ele>1586.09</ele>
  <time>2026-08-28T19:09:00Z</time>
  <course>304.2</course>
  <speed>0.0</speed>
  <fix>3d</fix>
</trkpt>
<trkpt lat="40.0728419" lon="-105.2305749">
  <ele>1586.18</ele>
  <time>2026-08-28T19:09:00Z</time>
  <course>16.16</course>
  <speed>0.022360679774997897</speed>
  <fix>3d</fix>
</trkpt>
<trkpt lat="40.072842" lon="-105.230575">
  <ele>1586.09</ele>
  <time>2026-08-28T19:09:00Z</time>
  <course>279.83</course>
  <speed>0.0</speed>
  <fix>3d</fix>
</trkpt>
<trkpt lat="40.0728419" lon="-105.2305749">
  <ele>1586.18</ele>
  <time>2026-08-28T19:09:00Z</time>
  <course>16.1</course>
  <speed>0.022360679774997897</speed>
  <fix>3d</fix>
</trkpt>
<trkpt lat="40.072842" lon="-105.230575">
  <ele>1586.09</ele>
  <time>2026-08-28T19:09:00Z</time>
  <course>265.93</course>
  <speed>0.0</speed>
  <fix>3d</fix>
</trkpt>
<trkpt lat="40.0728419" lon="-105.2305749">
  <ele>1586.18</ele>
  <time>2026-08-28T19:09:00Z</time>
  <course>16.04</course>
  <speed>0.022360679774997897</speed>
  <fix>3d</fix>
</trkpt>
<trkpt lat="40.072842" lon="-105.230575">
  <ele>1586.09</ele>
  <time>2026-08-28T19:09:00Z</time>
  <course>280.71</course>
  <speed>0.0</speed>
  <fix>3d</fix>
</trkpt>
<trkpt lat="40.0728419" lon="-105.2305749">
  <ele>1586.17</ele>
  <time>2026-08-28T19:09:00Z</time>
  <course>15.98</course>
  <speed>0.022360679774997897</speed>
  <fix>3d</fix>
</trkpt>
<trkpt lat="40.072842" lon="-105.230575">
  <ele>1586.09</ele>
  <time>2026-08-28T19:09:00Z</time>
  <course>280.94</course>
  <speed>0.0</speed>
  <fix>3d</fix>
</trkpt>
<trkpt lat="40.0728419" lon="-105.2305749">
  <ele>1586.17</ele>
  <time>2026-08-28T19:09:00Z</time>
  <course>15.91</course>
  <speed>0.022360679774997897</speed>
  <fix>3d</fix>
</trkpt>
<trkpt lat="40.072842" lon="-105.230575">
  <ele>1586.09</ele>
  <time>2026-08-28T19:09:00Z</time>
  <course>278.57</course>
  <speed>0.0</speed>
  <fix>3d</fix>
</trkpt>
<trkpt lat="40.0728419" lon="-105.2305749">
  <ele>1586.17</ele>
  <time>2026-08-28T19:09:00Z</time>
  <course>15.85</course>
  <speed>0.022360679774997897</speed>
  <fix>3d</fix>
</trkpt>
<trkpt lat="40.072842" lon="-105.230575">
  <ele>1586.09</ele>
  <time>2026-08-28T19:09:00Z</time>
  <course>278.49</course>
  <speed>0.0</speed>
  <fix>3d</fix>
</trkpt>
<trkpt lat="40.0728419" lon="-105.2305749">
  <ele>1586.17</ele>
  <time>2026-08-28T19:09:00Z</time>
  <course>15.79</course>
  <speed>0.022360679774997897</speed>
  <fix>3d</fix>
</trkpt>
<trkpt lat="40.072842" lon="-105.230575">
  <ele>1586.09</ele>
  <time>2026-08-28T19:09:00Z</time>
  <course>284.21</course>
  <speed>0.0</speed>
  <fix>3d</fix>
</trkpt>
<trkpt lat="40.0728419" lon="-105.2305749">
  <ele>1586.17</ele>
  <time>2026-08-28T19:09:00Z</time>
  <course>15.73</course>
  <speed>0.022360679774997897</speed>
  <fix>3d</fix>
</trkpt>
<trkpt lat="40.072842" lon="-105.230575">
  <ele>1586.09</ele>
  <time>2026-08-28T19:09:00Z</time>
  <course>287.62</course>
  <speed>0.0</speed>
  <fix>3d</fix>
</trkpt>
<trkpt lat="40.0728419" lon="-105.2305749">
  <ele>1586.17</ele>
  <time>2026-08-28T19:09:00Z</time>
  <course>15.67</course>
  <speed>0.022360679774997897</speed>
  <fix>3d</fix>
</trkpt>
<trkpt lat="40.072842" lon="-105.230575">
  <ele>1586.09</ele>
  <time>2026-08-28T19:09:00Z</time>
  <course>275.35</course>
  <speed>0.0</speed>
  <fix>3d</fix>
</trkpt>
<trkpt lat="40.0728419" lon="-105.2305749">
  <ele>1586.17</ele>
  <time>2026-08-28T19:09:00Z</time>
  <course>15.61</course>
  <speed>0.022360679774997897</speed>
  <fix>3d</fix>
</trkpt>
<trkpt lat="40.072842" lon="-105.230575">
  <ele>1586.09</ele>
  <time>2026-08-28T19:09:00Z</time>
  <course>251.08</course>
  <speed>0.0</speed>
  <fix>3d</fix>
</trkpt>
<trkpt lat="40.0728419" lon="-105.2305749">
  <ele>1586.17</ele>
  <time>2026-08-28T19:09:00Z</time>
  <course>15.55</course>
  <speed>0.022360679774997897</speed>
  <fix>3d</fix>
</trkpt>
<trkpt lat="40.072842" lon="-105.230575">
  <ele>1586.09</ele>
  <time>2026-08-28T19:09:00Z</time>
  <course>265.47</course>
  <speed>0.0</speed>
  <fix>3d</fix>
</trkpt>
<trkpt lat="40.0728419" lon="-105.2305749">
  <ele>1586.17</ele>
  <time>2026-08-28T19:09:00Z</time>
  <course>15.49</course>
  <speed>0.022360679774997897</speed>
  <fix>3d</fix>
</trkpt>
<trkpt lat="40.072842" lon="-105.230575">
  <ele>1586.09</ele>
  <time>2026-08-28T19:09:00Z</time>
  <course>282.85</course>
  <speed>0.0</speed>
  <fix>3d</fix>
</trkpt>
<trkpt lat="40.0728419" lon="-105.2305749">
  <ele>1586.17</ele>
  <time>2026-08-28T19:09:00Z</time>
  <course>15.43</course>
  <speed>0.022360679774997897</speed>
  <fix>3d</fix>
</trkpt>
<trkpt lat="40.072842" lon="-105.230575">
  <ele>1586.09</ele>
  <time>2026-08-28T19:09:00Z</time>
  <course>277.61</course>
  <speed>0.0</speed>
  <fix>3d</fix>
</trkpt>
<trkpt lat="40.0728419" lon="-105.2305749">
  <ele>1586.17</ele>
  <time>2026-08-28T19:09:00Z</time>
  <course>15.37</course>
  <speed>0.022360679774997897</speed>
  <fix>3d</fix>
</trkpt>
<trkpt lat="40.072842" lon="-105.230575">
  <ele>1586.09</ele>
  <time>2026-08-28T19:09:00Z</time>
  <course>275.99</course>
  <speed>0.0</speed>
  <fix>3d</fix>
</trkpt>
<trkpt lat="40.0728419" lon="-105.2305749">
  <ele>1586.17</ele>
  <time>2026-08-28T19:09:00Z</time>
  <course>15.31</course>
  <speed>0.022360679774997897</speed>
  <fix>3d</fix>
</trkpt>
<trkpt lat="40.072842" lon="-105.230575">
  <ele>1586.09</ele>
  <time>2026-08-28T19:09:00Z</time>
  <course>276.6</course>
  <speed>0.0</speed>
  <fix>3d</fix>
</trkpt>
<trkpt lat="40.0728419" lon="-105.2305749">
  <ele>1586.17</ele>
  <time>2026-08-28T19:09:00Z</time>
  <course>15.25</course>
  <speed>0.022360679774997897</speed>
  <fix>3d</fix>
</trkpt>
<trkpt lat="40.072842" lon="-105.230575">
  <ele>1586.09</ele>
  <time>2026-08-28T19:09:00Z</time>
  <course>275.83</course>
  <speed>0.0</speed>
  <fix>3d</fix>
</trkpt>
<trkpt lat="40.0728419" lon="-105.2305749">
  <ele>1586.18</ele>
  <time>2026-08-28T19:09:00Z</time>
  <course>15.19</course>
  <speed>0.022360679774997897</speed>
  <fix>3d</fix>
</trkpt>
<trkpt lat="40.072842" lon="-105.230575">
  <ele>1586.09</ele>
  <time>2026-08-28T19:09:00Z</time>
  <course>284.59</course>
  <speed>0.0</speed>
  <fix>3d</fix>
</trkpt>
<trkpt lat="40.0728419" lon="-105.2305749">
  <ele>1586.18</ele>
  <time>2026-08-28T19:09:00Z</time>
  <course>15.14</course>
  <speed>0.022360679774997897</speed>
  <fix>3d</fix>
</trkpt>
<trkpt lat="40.072842" lon="-105.230575">
  <ele>1586.09</ele>
  <time>2026-08-28T19:09:00Z</time>
  <course>286.4</course>
  <speed>0.0</speed>
  <fix>3d</fix>
</trkpt>
<trkpt lat="40.0728419" lon="-105.2305749">
  <ele>1586.18</ele>
  <time>2026-08-28T19:09:00Z</time>
  <course>15.08</course>
  <speed>0.022360679774997897</speed>
  <fix>3d</fix>
</trkpt>
<trkpt lat="40.072842" lon="-105.230575">
  <ele>1586.09</ele>
  <time>2026-08-28T19:09:00Z</time>
  <course>273.67</course>
  <speed>0.0</speed>
  <fix>3d</fix>
</trkpt>
<trkpt lat="40.0728419" lon="-105.2305749">
  <ele>1586.18</ele>
  <time>2026-08-28T19:09:00Z</time>
  <course>15.02</course>
  <speed>0.022360679774997897</speed>
  <fix>3d</fix>
</trkpt>
<trkpt lat="40.072842" lon="-105.230575">
  <ele>1586.09</ele>
  <time>2026-08-28T19:09:00Z</time>
  <course>275.01</course>
  <speed>0.0</speed>
  <fix>3d</fix>
</trkpt>
<trkpt lat="40.0728419" lon="-105.2305749">
  <ele>1586.18</ele>
  <time>2026-08-28T19:09:00Z</time>
  <course>14.97</course>
  <speed>0.022360679774997897</speed>
  <fix>3d</fix>
</trkpt>
<trkpt lat="40.072842" lon="-105.230575">
  <ele>1586.09</ele>
  <time>2026-08-28T19:09:00Z</time>
  <course>276.48</course>
  <speed>0.0</speed>
  <fix>3d</fix>
</trkpt>
<trkpt lat="40.0728419" lon="-105.2305749">
  <ele>1586.18</ele>
  <time>2026-08-28T19:09:00Z</time>
  <course>14.91</course>
  <speed>0.022360679774997897</speed>
  <fix>3d</fix>
</trkpt>
<trkpt lat="40.072842" lon="-105.230575">
  <ele>1586.09</ele>
  <time>2026-08-28T19:09:00Z</time>
  <course>276.0</course>
  <speed>0.0</speed>
  <fix>3d</fix>
</trkpt>
<trkpt lat="40.0728419" lon="-105.2305749">
  <ele>1586.18</ele>
  <time>2026-08-28T19:09:00Z</time>
  <course>14.86</course>
  <speed>0.022360679774997897</speed>
  <fix>3d</fix>
</trkpt>
<trkpt lat="40.072842" lon="-105.230575">
  <ele>1586.09</ele>
  <time>2026-08-28T19:09:00Z</time>
  <course>275.68</course>
  <speed>0.0</speed>
  <fix>3d</fix>
</trkpt>
<trkpt lat="40.0728419" lon="-105.2305749">
  <ele>1586.18</ele>
  <time>2026-08-28T19:09:00Z</time>
  <course>14.8</course>
  <speed>0.022360679774997897</speed>
  <fix>3d</fix>
</trkpt>
<trkpt lat="40.072842" lon="-105.230575">
  <ele>1586.09</ele>
  <time>2026-08-28T19:09:00Z</time>
  <course>275.59</course>
  <speed>0.0</speed>
  <fix>3d</fix>
</trkpt>
<trkpt lat="40.0728419" lon="-105.2305749">
  <ele>1586.18</ele>
  <time>2026-08-28T19:09:00Z</time>
  <course>14.75</course>
  <speed>0.022360679774997897</speed>
  <fix>3d</fix>
</trkpt>
<trkpt lat="40.072842" lon="-105.230575">
  <ele>1586.09</ele>
  <time>2026-08-28T19:09:00Z</time>
  <course>274.07</course>
  <speed>0.0</speed>
  <fix>3d</fix>
</trkpt>
<trkpt lat="40.0728419" lon="-105.2305749">
  <ele>1586.17</ele>
  <time>2026-08-28T19:09:00Z</time>
  <course>14.7</course>
  <speed>0.022360679774997897</speed>
  <fix>3d</fix>
</trkpt>
<trkpt lat="40.072842" lon="-105.230575">
  <ele>1586.09</ele>
  <time>2026-08-28T19:09:00Z</time>
  <course>272.63</course>
  <speed>0.0</speed>
  <fix>3d</fix>
</trkpt>
<trkpt lat="40.0728419" lon="-105.2305749">
  <ele>1586.17</ele>
  <time>2026-08-28T19:09:00Z</time>
  <course>14.64</course>
  <speed>0.022360679774997897</speed>
  <fix>3d</fix>
</trkpt>
<trkpt lat="40.072842" lon="-105.230575">
  <ele>1586.09</ele>
  <time>2026-08-28T19:09:00Z</time>
  <course>285.88</course>
  <speed>0.0</speed>
  <fix>3d</fix>
</trkpt>
<trkpt lat="40.0728419" lon="-105.2305749">
  <ele>1586.17</ele>
  <time>2026-08-28T19:09:00Z</time>
  <course>14.59</course>
  <speed>0.022360679774997897</speed>
  <fix>3d</fix>
</trkpt>
<trkpt lat="40.072842" lon="-105.230575">
  <ele>1586.09</ele>
  <time>2026-08-28T19:09:00Z</time>
  <course>285.92</course>
  <speed>0.0</speed>
  <fix>3d</fix>
</trkpt>
<trkpt lat="40.0728419" lon="-105.2305749">
  <ele>1586.17</ele>
  <time>2026-08-28T19:09:00Z</time>
  <course>14.54</course>
  <speed>0.022360679774997897</speed>
  <fix>3d</fix>
</trkpt>
<trkpt lat="40.072842" lon="-105.230575">
  <ele>1586.09</ele>
  <time>2026-08-28T19:09:00Z</time>
  <course>273.13</course>
  <speed>0.0</speed>
  <fix>3d</fix>
</trkpt>
<trkpt lat="40.0728419" lon="-105.2305749">
  <ele>1586.17</ele>
  <time>2026-08-28T19:09:00Z</time>
  <course>14.49</course>
  <speed>0.022360679774997897</speed>
  <fix>3d</fix>
</trkpt>
<trkpt lat="40.072842" lon="-105.230575">
  <ele>1586.09</ele>
  <time>2026-08-28T19:09:00Z</time>
  <course>273.88</course>
  <speed>0.0</speed>
  <fix>3d</fix>
</trkpt>
<trkpt lat="40.0728419" lon="-105.2305749">
  <ele>1586.17</ele>
  <time>2026-08-28T19:09:00Z</time>
  <course>14.44</course>
  <speed>0.022360679774997897</speed>
  <fix>3d</fix>
</trkpt>
<trkpt lat="40.072842" lon="-105.230575">
  <ele>1586.09</ele>
  <time>2026-08-28T19:09:00Z</time>
  <course>275.49</course>
  <speed>0.0</speed>
  <fix>3d</fix>
</trkpt>
<trkpt lat="40.0728419" lon="-105.2305749">
  <ele>1586.16</ele>
  <time>2026-08-28T19:09:00Z</time>
  <course>14.39</course>
  <speed>0.022360679774997897</speed>
  <fix>3d</fix>
</trkpt>
<trkpt lat="40.072842" lon="-105.230575">
  <ele>1586.09</ele>
  <time>2026-08-28T19:09:00Z</time>
  <course>275.08</course>
  <speed>0.0</speed>
  <fix>3d</fix>
</trkpt>
<trkpt lat="40.0728419" lon="-105.2305749">
  <ele>1586.16</ele>
  <time>2026-08-28T19:09:00Z</time>
  <course>14.34</course>
  <speed>0.022360679774997897</speed>
  <fix>3d</fix>
</trkpt>
<trkpt lat="40.072842" lon="-105.230575">
  <ele>1586.09</ele>
  <time>2026-08-28T19:09:00Z</time>
  <course>274.8</course>
  <speed>0.0</speed>
  <fix>3d</fix>
</trkpt>
<trkpt lat="40.0728419" lon="-105.2305749">
  <ele>1586.16</ele>
  <time>2026-08-28T19:09:00Z</time>
  <course>14.29</course>
  <speed>0.022360679774997897</speed>
  <fix>3d</fix>
</trkpt>
<trkpt lat="40.072842" lon="-105.2305751">
  <ele>1586.09</ele>
  <time>2026-08-28T19:09:00Z</time>
  <course>277.05</course>
  <speed>0.0</speed>
  <fix>3d</fix>
</trkpt>
<trkpt lat="40.0728419" lon="-105.230575">
  <ele>1586.16</ele>
  <time>2026-08-28T19:09:00Z</time>
  <course>14.24</course>
  <speed>0.022360679774997897</speed>
  <fix>3d</fix>
</trkpt>
<trkpt lat="40.072842" lon="-105.2305751">
  <ele>1586.09</ele>
  <time>2026-08-28T19:09:00Z</time>
  <course>274.66</course>
  <speed>0.0</speed>
  <fix>3d</fix>
</trkpt>
<trkpt lat="40.0728419" lon="-105.230575">
  <ele>1586.17</ele>
  <time>2026-08-28T19:09:00Z</time>
  <course>14.19</course>
  <speed>0.022360679774997897</speed>
  <fix>3d</fix>
</trkpt>
<trkpt lat="40.072842" lon="-105.2305751">
  <ele>1586.09</ele>
  <time>2026-08-28T19:09:00Z</time>
  <course>272.08</course>
  <speed>0.0</speed>
  <fix>3d</fix>
</trkpt>
<trkpt lat="40.0728419" lon="-105.230575">
  <ele>1586.17</ele>
  <time>2026-08-28T19:09:00Z</time>
  <course>14.15</course>
  <speed>0.022360679774997897</speed>
  <fix>3d</fix>
</trkpt>
<trkpt lat="40.072842" lon="-105.2305751">
  <ele>1586.09</ele>
  <time>2026-08-28T19:09:00Z</time>
  <course>279.44</course>
  <speed>0.0</speed>
  <fix>3d</fix>
</trkpt>
<trkpt lat="40.0728419" lon="-105.230575">
  <ele>1586.17</ele>
  <time>2026-08-28T19:09:00Z</time>
  <course>14.1</course>
  <speed>0.022360679774997897</speed>
  <fix>3d</fix>
</trkpt>
<trkpt lat="40.072842" lon="-105.2305751">
  <ele>1586.09</ele>
  <time>2026-08-28T19:09:00Z</time>
  <course>283.1</course>
  <speed>0.0</speed>
  <fix>3d</fix>
</trkpt>
<trkpt lat="40.0728419" lon="-105.230575">
  <ele>1586.17</ele>
  <time>2026-08-28T19:09:00Z</time>
  <course>14.06</course>
  <speed>0.022360679774997897</speed>
  <fix>3d</fix>
</trkpt>
<trkpt lat="40.072842" lon="-105.2305751">
  <ele>1586.09</ele>
  <time>2026-08-28T19:09:00Z</time>
  <course>277.23</course>
  <speed>0.0</speed>
  <fix>3d</fix>
</trkpt>
<trkpt lat="40.0728419" lon="-105.230575">
  <ele>1586.16</ele>
  <time>2026-08-28T19:09:00Z</time>
  <course>14.02</course>
  <speed>0.022360679774997897</speed>
  <fix>3d</fix>
</trkpt>
<trkpt lat="40.072842" lon="-105.2305751">
  <ele>1586.09</ele>
  <time>2026-08-28T19:09:00Z</time>
  <course>272.31</course>
  <speed>0.0</speed>
  <fix>3d</fix>
</trkpt>
<trkpt lat="40.0728419" lon="-105.230575">
  <ele>1586.16</ele>
  <time>2026-08-28T19:09:00Z</time>
  <course>13.97</course>
  <speed>0.022360679774997897</speed>
  <fix>3d</fix>
</trkpt>
<trkpt lat="40.072842" lon="-105.2305751">
  <ele>1586.09</ele>
  <time>2026-08-28T19:09:00Z</time>
  <course>274.32</course>
  <speed>0.0</speed>
  <fix>3d</fix>
</trkpt>
<trkpt lat="40.0728419" lon="-105.230575">
  <ele>1586.16</ele>
  <time>2026-08-28T19:09:00Z</time>
  <course>13.94</course>
  <speed>0.022360679774997897</speed>
  <fix>3d</fix>
</trkpt>
<trkpt lat="40.072842" lon="-105.2305751">
  <ele>1586.09</ele>
  <time>2026-08-28T19:09:00Z</time>
  <course>274.66</course>
  <speed>0.0</speed>
  <fix>3d</fix>
</trkpt>
<trkpt lat="40.0728419" lon="-105.230575">
  <ele>1586.17</ele>
  <time>2026-08-28T19:09:00Z</time>
  <course>13.9</course>
  <speed>0.02</speed>
  <fix>3d</fix>
</trkpt>
<trkpt lat="40.072842" lon="-105.2305751">
  <ele>1586.09</ele>
  <time>2026-08-28T19:09:00Z</time>
  <course>274.29</course>
  <speed>0.0</speed>
  <fix>3d</fix>
</trkpt>
<trkpt lat="40.0728419" lon="-105.230575">
  <ele>1586.17</ele>
  <time>2026-08-28T19:09:00Z</time>
  <course>13.86</course>
  <speed>0.02</speed>
  <fix>3d</fix>
</trkpt>
<trkpt lat="40.072842" lon="-105.2305751">
  <ele>1586.09</ele>
  <time>2026-08-28T19:09:00Z</time>
  <course>274.42</course>
  <speed>0.0</speed>
  <fix>3d</fix>
</trkpt>
<trkpt lat="40.0728419" lon="-105.230575">
  <ele>1586.17</ele>
  <time>2026-08-28T19:09:00Z</time>
  <course>13.82</course>
  <speed>0.02</speed>
  <fix>3d</fix>
</trkpt>
<trkpt lat="40.072842" lon="-105.2305751">
  <ele>1586.09</ele>
  <time>2026-08-28T19:09:00Z</time>
  <course>272.95</course>
  <speed>0.0</speed>
  <fix>3d</fix>
</trkpt>
<trkpt lat="40.0728419" lon="-105.230575">
  <ele>1586.17</ele>
  <time>2026-08-28T19:09:00Z</time>
  <course>13.78</course>
  <speed>0.022360679774997897</speed>
  <fix>3d</fix>
</trkpt>
<trkpt lat="40.072842" lon="-105.2305751">
  <ele>1586.09</ele>
  <time>2026-08-28T19:09:00Z</time>
  <course>271.96</course>
  <speed>0.0</speed>
  <fix>3d</fix>
</trkpt>
<trkpt lat="40.0728419" lon="-105.230575">
  <ele>1586.17</ele>
  <time>2026-08-28T19:09:00Z</time>
  <course>13.74</course>
  <speed>0.022360679774997897</speed>
  <fix>3d</fix>
</trkpt>
<trkpt lat="40.072842" lon="-105.2305751">
  <ele>1586.09</ele>
  <time>2026-08-28T19:09:00Z</time>
  <course>273.52</course>
  <speed>0.0</speed>
  <fix>3d</fix>
</trkpt>
<trkpt lat="40.0728419" lon="-105.230575">
  <ele>1586.16</ele>
  <time>2026-08-28T19:09:00Z</time>
  <course>13.7</course>
  <speed>0.022360679774997897</speed>
  <fix>3d</fix>
</trkpt>
<trkpt lat="40.072842" lon="-105.2305751">
  <ele>1586.09</ele>
  <time>2026-08-28T19:09:00Z</time>
  <course>274.34</course>
  <speed>0.0</speed>
  <fix>3d</fix>
</trkpt>
<trkpt lat="40.0728419" lon="-105.230575">
  <ele>1586.16</ele>
  <time>2026-08-28T19:09:00Z</time>
  <course>13.67</course>
  <speed>0.01414213562373095</speed>
  <fix>3d</fix>
</trkpt>
<trkpt lat="40.072842" lon="-105.2305751">
  <ele>1586.09</ele>
  <time>2026-08-28T19:09:00Z</time>
  <course>281.47</course>
  <speed>0.0</speed>
  <fix>3d</fix>
</trkpt>
<trkpt lat="40.0728419" lon="-105.230575">
  <ele>1586.16</ele>
  <time>2026-08-28T19:09:00Z</time>
  <course>13.63</course>
  <speed>0.022360679774997897</speed>
  <fix>3d</fix>
</trkpt>
<trkpt lat="40.072842" lon="-105.2305751">
  <ele>1586.09</ele>
  <time>2026-08-28T19:09:00Z</time>
  <course>282.12</course>
  <speed>0.0</speed>
  <fix>3d</fix>
</trkpt>
<trkpt lat="40.0728419" lon="-105.230575">
  <ele>1586.17</ele>
  <time>2026-08-28T19:09:00Z</time>
  <course>13.6</course>
  <speed>0.022360679774997897</speed>
  <fix>3d</fix>
</trkpt>
<trkpt lat="40.072842" lon="-105.2305751">
  <ele>1586.09</ele>
  <time>2026-08-28T19:09:00Z</time>
  <course>273.9</course>
  <speed>0.0</speed>
  <fix>3d</fix>
</trkpt>
<trkpt lat="40.0728419" lon="-105.230575">
  <ele>1586.17</ele>
  <time>2026-08-28T19:09:00Z</time>
  <course>13.57</course>
  <speed>0.022360679774997897</speed>
  <fix>3d</fix>
</trkpt>
<trkpt lat="40.072842" lon="-105.2305751">
  <ele>1586.09</ele>
  <time>2026-08-28T19:09:00Z</time>
  <course>272.62</course>
  <speed>0.0</speed>
  <fix>3d</fix>
</trkpt>
<trkpt lat="40.0728419" lon="-105.230575">
  <ele>1586.17</ele>
  <time>2026-08-28T19:09:00Z</time>
  <course>13.54</course>
  <speed>0.022360679774997897</speed>
  <fix>3d</fix>
</trkpt>
<trkpt lat="40.072842" lon="-105.2305751">
  <ele>1586.09</ele>
  <time>2026-08-28T19:09:00Z</time>
  <course>274.09</course>
  <speed>0.0</speed>
  <fix>3d</fix>
</trkpt>
<trkpt lat="40.0728419" lon="-105.230575">
  <ele>1586.17</ele>
  <time>2026-08-28T19:09:00Z</time>
  <course>13.51</course>
  <speed>0.022360679774997897</speed>
  <fix>3d</fix>
</trkpt>
<trkpt lat="40.072842" lon="-105.2305751">
  <ele>1586.09</ele>
  <time>2026-08-28T19:09:00Z</time>
  <course>274.04</course>
  <speed>0.0</speed>
  <fix>3d</fix>
</trkpt>
<trkpt lat="40.0728419" lon="-105.230575">
  <ele>1586.2</ele>
  <time>2026-08-28T19:09:00Z</time>
  <course>13.46</course>
  <speed>0.022360679774997897</speed>
  <fix>3d</fix>
</trkpt>
<trkpt lat="40.072842" lon="-105.2305751">
  <ele>1586.09</ele>
  <time>2026-08-28T19:09:00Z</time>
  <course>274.77</course>
  <speed>0.0</speed>
  <fix>3d</fix>
</trkpt>
<trkpt lat="40.0728419" lon="-105.230575">
  <ele>1586.3</ele>
  <time>2026-08-28T19:09:00Z</time>
  <course>13.36</course>
  <speed>0.022360679774997897</speed>
  <fix>3d</fix>
</trkpt>
<trkpt lat="40.072842" lon="-105.2305751">
  <ele>1586.14</ele>
  <time>2026-08-28T19:09:00Z</time>
  <course>279.74</course>
  <speed>0.0</speed>
  <fix>3d</fix>
</trkpt>
<trkpt lat="40.0728419" lon="-105.230575">
  <ele>1586.42</ele>
  <time>2026-08-28T19:09:00Z</time>
  <course>8.54</course>
  <speed>0.09055385138137417</speed>
  <fix>3d</fix>
</trkpt>
<trkpt lat="40.072842" lon="-105.2305751">
  <ele>1586.23</ele>
  <time>2026-08-28T19:09:00Z</time>
  <course>279.03</course>
  <speed>0.02</speed>
  <fix>3d</fix>
</trkpt>
<trkpt lat="40.072842" lon="-105.2305755">
  <ele>1586.77</ele>
  <time>2026-08-28T19:09:00Z</time>
  <course>3.54</course>
  <speed>0.2596150997149434</speed>
  <fix>3d</fix>
</trkpt>
<trkpt lat="40.072842" lon="-105.2305752">
  <ele>1586.42</ele>
  <time>2026-08-28T19:09:00Z</time>
  <course>280.45</course>
  <speed>0.14</speed>
  <fix>3d</fix>
</trkpt>
<trkpt lat="40.072842" lon="-105.2305756">
  <ele>1586.82</ele>
  <time>2026-08-28T19:09:00Z</time>
  <course>3.09</course>
  <speed>0.2720294101747089</speed>
  <fix>3d</fix>
</trkpt>
<trkpt lat="40.0728421" lon="-105.2305762">
  <ele>1587.19</ele>
  <time>2026-08-28T19:09:00Z</time>
  <course>0.7</course>
  <speed>0.38600518131237566</speed>
  <fix>3d</fix>
</trkpt>
<trkpt lat="40.072842" lon="-105.2305758">
  <ele>1586.76</ele>
  <time>2026-08-28T19:09:00Z</time>
  <course>279.87</course>
  <speed>0.3</speed>
  <fix>3d</fix>
</trkpt>
<trkpt lat="40.0728422" lon="-105.2305764">
  <ele>1587.26</ele>
  <time>2026-08-28T19:09:00Z</time>
  <course>0.39</course>
  <speed>0.4052159917870962</speed>
  <fix>3d</fix>
</trkpt>
<trkpt lat="40.0728423" lon="-105.2305773">
  <ele>1587.62</ele>
  <time>2026-08-28T19:09:00Z</time>
  <course>359.13</course>
  <speed>0.4729693436154187</speed>
  <fix>3d</fix>
</trkpt>
<trkpt lat="40.0728421" lon="-105.2305766">
  <ele>1587.17</ele>
  <time>2026-08-28T19:09:00Z</time>
  <course>278.14</course>
  <speed>0.42</speed>
  <fix>3d</fix>
</trkpt>
<trkpt lat="40.0728423" lon="-105.2305774">
  <ele>1587.68</ele>
  <time>2026-08-28T19:09:00Z</time>
  <course>358.99</course>
  <speed>0.4827007354458868</speed>
  <fix>3d</fix>
</trkpt>
<trkpt lat="40.0728425" lon="-105.2305785">
  <ele>1588.07</ele>
  <time>2026-08-28T19:09:00Z</time>
  <course>358.32</course>
  <speed>0.5510898293381942</speed>
  <fix>3d</fix>
</trkpt>
<trkpt lat="40.0728422" lon="-105.2305777">
  <ele>1587.6</ele>
  <time>2026-08-28T19:09:00Z</time>
  <course>276.08</course>
  <speed>0.51</speed>
  <fix>3d</fix>
</trkpt>
<trkpt lat="40.0728425" lon="-105.2305785">
  <ele>1588.08</ele>
  <time>2026-08-28T19:09:00Z</time>
  <course>358.31</course>
  <speed>0.5491812087098392</speed>
  <fix>3d</fix>
</trkpt>
<trkpt lat="40.0728426" lon="-105.2305799">
  <ele>1588.53</ele>
  <time>2026-08-28T19:09:00Z</time>
  <course>358.02</course>
  <speed>0.596824932455071</speed>
  <fix>3d</fix>
</trkpt>
<trkpt lat="40.0728423" lon="-105.230579">
  <ele>1588.04</ele>
  <time>2026-08-28T19:09:00Z</time>
  <course>274.01</course>
  <speed>0.57</speed>
  <fix>3d</fix>
</trkpt>
<trkpt lat="40.0728426" lon="-105.2305801">
  <ele>1588.59</ele>
  <time>2026-08-28T19:09:00Z</time>
  <course>358.0</course>
  <speed>0.5953990258641678</speed>
  <fix>3d</fix>
</trkpt>
<trkpt lat="40.0728426" lon="-105.2305813">
  <ele>1588.99</ele>
  <time>2026-08-28T19:09:00Z</time>
  <course>358.05</course>
  <speed>0.6328506932918696</speed>
  <fix>3d</fix>
</trkpt>
<trkpt lat="40.0728424" lon="-105.2305804">
  <ele>1588.5</ele>
  <time>2026-08-28T19:09:00Z</time>
  <course>272.17</course>
  <speed>0.62</speed>
  <fix>3d</fix>
</trkpt>
<trkpt lat="40.0728426" lon="-105.2305815">
  <ele>1589.05</ele>
  <time>2026-08-28T19:09:00Z</time>
  <course>358.07</course>
  <speed>0.6328506932918696</speed>
  <fix>3d</fix>
</trkpt>
<trkpt lat="40.0728426" lon="-105.2305829">
  <ele>1589.47</ele>
  <time>2026-08-28T19:09:00Z</time>
  <course>356.78</course>
  <speed>0.6612110101926616</speed>
  <fix>3d</fix>
</trkpt>
<trkpt lat="40.0728424" lon="-105.2305819">
  <ele>1588.97</ele>
  <time>2026-08-28T19:09:00Z</time>
  <course>270.6</course>
  <speed>0.65</speed>
  <fix>3d</fix>
</trkpt>
<trkpt lat="40.0728426" lon="-105.2305831">
  <ele>1589.54</ele>
  <time>2026-08-28T19:09:00Z</time>
  <course>356.79</course>
  <speed>0.6612110101926616</speed>
  <fix>3d</fix>
</trkpt>
<trkpt lat="40.0728426" lon="-105.2305845">
  <ele>1589.95</ele>
  <time>2026-08-28T19:09:00Z</time>
  <course>357.06</course>
  <speed>0.680294054067798</speed>
  <fix>3d</fix>
</trkpt>
<trkpt lat="40.0728424" lon="-105.2305835">
  <ele>1589.44</ele>
  <time>2026-08-28T19:09:00Z</time>
  <course>269.24</course>
  <speed>0.68</speed>
  <fix>3d</fix>
</trkpt>
<trkpt lat="40.0728426" lon="-105.2305847">
  <ele>1590.02</ele>
  <time>2026-08-28T19:09:00Z</time>
  <course>357.11</course>
  <speed>0.6800735254367721</speed>
  <fix>3d</fix>
</trkpt>
<trkpt lat="40.0728425" lon="-105.2305862">
  <ele>1590.44</ele>
  <time>2026-08-28T19:09:00Z</time>
  <course>357.57</course>
  <speed>0.7</speed>
  <fix>3d</fix>
</trkpt>
<trkpt lat="40.0728424" lon="-105.2305851">
  <ele>1589.91</ele>
  <time>2026-08-28T19:09:00Z</time>
  <course>268.04</course>
  <speed>0.7</speed>
  <fix>3d</fix>
</trkpt>
<trkpt lat="40.0728425" lon="-105.2305862">
  <ele>1590.44</ele>
  <time>2026-08-28T19:09:00Z</time>
  <course>357.57</course>
  <speed>0.7</speed>
  <fix>3d</fix>
</trkpt>
<trkpt lat="40.0728424" lon="-105.2305879">
  <ele>1590.92</ele>
  <time>2026-08-28T19:09:00Z</time>
  <course>358.12</course>
  <speed>0.7202777242147643</speed>
  <fix>3d</fix>
</trkpt>
<trkpt lat="40.0728424" lon="-105.2305868">
  <ele>1590.39</ele>
  <time>2026-08-28T19:09:00Z</time>
  <course>267.0</course>
  <speed>0.72</speed>
  <fix>3d</fix>
</trkpt>
<trkpt lat="40.0728424" lon="-105.2305881">
  <ele>1590.98</ele>
  <time>2026-08-28T19:09:00Z</time>
  <course>358.19</course>
  <speed>0.7206247289678588</speed>
  <fix>3d</fix>
</trkpt>
<trkpt lat="40.0728424" lon="-105.2305896">
  <ele>1591.41</ele>
  <time>2026-08-28T19:09:00Z</time>
  <course>358.74</course>
  <speed>0.7317103251970687</speed>
  <fix>3d</fix>
</trkpt>
<trkpt lat="40.0728423" lon="-105.2305885">
  <ele>1590.87</ele>
  <time>2026-08-28T19:09:00Z</time>
  <course>266.11</course>
  <speed>0.73</speed>
  <fix>3d</fix>
</trkpt>
<trkpt lat="40.0728424" lon="-105.2305898">
  <ele>1591.48</ele>
  <time>2026-08-28T19:09:00Z</time>
  <course>358.83</course>
  <speed>0.7317103251970687</speed>
  <fix>3d</fix>
</trkpt>
<trkpt lat="40.0728423" lon="-105.2305913">
  <ele>1591.89</ele>
  <time>2026-08-28T19:09:00Z</time>
  <course>359.41</course>
  <speed>0.7433034373659253</speed>
  <fix>3d</fix>
</trkpt>
<trkpt lat="40.0728422" lon="-105.2305902">
  <ele>1591.35</ele>
  <time>2026-08-28T19:09:00Z</time>
  <course>265.38</course>
  <speed>0.74</speed>
  <fix>3d</fix>
</trkpt>
<trkpt lat="40.0728422" lon="-105.2305916">
  <ele>1591.95</ele>
  <time>2026-08-28T19:09:00Z</time>
  <course>359.49</course>
  <speed>0.7433034373659253</speed>
  <fix>3d</fix>
</trkpt>
<trkpt lat="40.0728421" lon="-105.2305931">
  <ele>1592.37</ele>
  <time>2026-08-28T19:09:00Z</time>
  <course>0.07</course>
  <speed>0.7454528824815153</speed>
  <fix>3d</fix>
</trkpt>
<trkpt lat="40.0728421" lon="-105.230592">
  <ele>1591.83</ele>
  <time>2026-08-28T19:09:00Z</time>
  <course>264.76</course>
  <speed>0.75</speed>
  <fix>3d</fix>
</trkpt>
<trkpt lat="40.0728421" lon="-105.2305933">
  <ele>1592.44</ele>
  <time>2026-08-28T19:09:00Z</time>
  <course>0.16</course>
  <speed>0.7454528824815153</speed>
  <fix>3d</fix>
</trkpt>
<trkpt lat="40.0728419" lon="-105.2305949">
  <ele>1592.85</ele>
  <time>2026-08-28T19:09:00Z</time>
  <course>0.72</course>
  <speed>0.7566372975210779</speed>
  <fix>3d</fix>
</trkpt>
<trkpt lat="40.072842" lon="-105.2305938">
  <ele>1592.31</ele>
  <time>2026-08-28T19:09:00Z</time>
  <course>264.2</course>
  <speed>0.75</speed>
  <fix>3d</fix>
</trkpt>
<trkpt lat="40.0728419" lon="-105.2305949">
  <ele>1592.86</ele>
  <time>2026-08-28T19:09:00Z</time>
  <course>0.73</course>
  <speed>0.7566372975210779</speed>
  <fix>3d</fix>
</trkpt>
<trkpt lat="40.0728417" lon="-105.2305967">
  <ele>1593.34</ele>
  <time>2026-08-28T19:09:00Z</time>
  <course>1.34</course>
  <speed>0.758023746329889</speed>
  <fix>3d</fix>
</trkpt>
<trkpt lat="40.0728419" lon="-105.2305955">
  <ele>1592.79</ele>
  <time>2026-08-28T19:09:00Z</time>
  <course>263.69</course>
  <speed>0.76</speed>
  <fix>3d</fix>
</trkpt>
<trkpt lat="40.0728417" lon="-105.2305969">
  <ele>1593.4</ele>
  <time>2026-08-28T19:09:00Z</time>
  <course>1.42</course>
  <speed>0.758023746329889</speed>
  <fix>3d</fix>
</trkpt>
<trkpt lat="40.0728415" lon="-105.2305985">
  <ele>1593.83</ele>
  <time>2026-08-28T19:09:00Z</time>
  <course>1.91</course>
  <speed>0.7595393340703298</speed>
  <fix>3d</fix>
</trkpt>
<trkpt lat="40.0728417" lon="-105.2305973">
  <ele>1593.27</ele>
  <time>2026-08-28T19:09:00Z</time>
  <course>263.2</course>
  <speed>0.76</speed>
  <fix>3d</fix>
</trkpt>
<trkpt lat="40.0728415" lon="-105.2305987">
  <ele>1593.91</ele>
  <time>2026-08-28T19:09:00Z</time>
  <course>2.01</course>
  <speed>0.7595393340703298</speed>
  <fix>3d</fix>
</trkpt>
<trkpt lat="40.0728414" lon="-105.2306002">
  <ele>1594.31</ele>
  <time>2026-08-28T19:09:00Z</time>
  <course>2.45</course>
  <speed>0.7611832893594026</speed>
  <fix>3d</fix>
</trkpt>
<trkpt lat="40.0728415" lon="-105.230599">
  <ele>1593.75</ele>
  <time>2026-08-28T19:09:00Z</time>
  <course>262.7</course>
  <speed>0.76</speed>
  <fix>3d</fix>
</trkpt>
<trkpt lat="40.0728413" lon="-105.2306005">
  <ele>1594.38</ele>
  <time>2026-08-28T19:09:00Z</time>
  <course>2.51</course>
  <speed>0.7611832893594026</speed>
  <fix>3d</fix>
</trkpt>
<trkpt lat="40.0728412" lon="-105.230602">
  <ele>1594.8</ele>
  <time>2026-08-28T19:09:00Z</time>
  <course>2.95</course>
  <speed>0.762954782408499</speed>
  <fix>3d</fix>
</trkpt>
<trkpt lat="40.0728414" lon="-105.2306009">
  <ele>1594.24</ele>
  <time>2026-08-28T19:09:00Z</time>
  <course>262.21</course>
  <speed>0.76</speed>
  <fix>3d</fix>
</trkpt>
<trkpt lat="40.0728411" lon="-105.2306023">
  <ele>1594.86</ele>
  <time>2026-08-28T19:09:00Z</time>
  <course>3.01</course>
  <speed>0.762954782408499</speed>
  <fix>3d</fix>
</trkpt>
<trkpt lat="40.072841" lon="-105.2306038">
  <ele>1595.29</ele>
  <time>2026-08-28T19:09:00Z</time>
  <course>3.43</course>
  <speed>0.7648529270389177</speed>
  <fix>3d</fix>
</trkpt>
<trkpt lat="40.0728412" lon="-105.2306026">
  <ele>1594.72</ele>
  <time>2026-08-28T19:09:00Z</time>
  <course>261.71</course>
  <speed>0.76</speed>
  <fix>3d</fix>
</trkpt>
<trkpt lat="40.0728409" lon="-105.230604">
  <ele>1595.35</ele>
  <time>2026-08-28T19:09:00Z</time>
  <course>3.49</course>
  <speed>0.7648529270389177</speed>
  <fix>3d</fix>
</trkpt>
<trkpt lat="40.0728407" lon="-105.2306056">
  <ele>1595.75</ele>
  <time>2026-08-28T19:09:00Z</time>
  <course>4.51</course>
  <speed>0.7746612162745725</speed>
  <fix>3d</fix>
</trkpt>
<trkpt lat="40.0728409" lon="-105.2306045">
  <ele>1595.2</ele>
  <time>2026-08-28T19:09:00Z</time>
  <course>261.23</course>
  <speed>0.76</speed>
  <fix>3d</fix>
</trkpt>
<trkpt lat="40.0728405" lon="-105.2306074">
  <ele>1596.07</ele>
  <time>2026-08-28T19:09:00Z</time>
  <course>7.38</course>
  <speed>0.7550496672405067</speed>
  <fix>3d</fix>
</trkpt>
<trkpt lat="40.0728407" lon="-105.2306063">
  <ele>1595.62</ele>
  <time>2026-08-28T19:09:00Z</time>
  <course>260.93</course>
  <speed>0.76</speed>
  <fix>3d</fix>
</trkpt>
<trkpt lat="40.0728403" lon="-105.2306091">
  <ele>1596.28</ele>
  <time>2026-08-28T19:09:00Z</time>
  <course>9.25</course>
  <speed>0.7256721022610694</speed>
  <fix>3d</fix>
</trkpt>
<trkpt lat="40.0728405" lon="-105.230608">
  <ele>1595.92</ele>
  <time>2026-08-28T19:09:00Z</time>
  <course>260.78</course>
  <speed>0.75</speed>
  <fix>3d</fix>
</trkpt>
<trkpt lat="40.0728401" lon="-105.2306108">
  <ele>1596.41</ele>
  <time>2026-08-28T19:09:00Z</time>
  <course>10.06</course>
  <speed>0.6963476143421474</speed>
  <fix>3d</fix>
</trkpt>
<trkpt lat="40.0728402" lon="-105.2306097">
  <ele>1596.11</ele>
  <time>2026-08-28T19:09:00Z</time>
  <course>260.65</course>
  <speed>0.72</speed>
  <fix>3d</fix>
</trkpt>
<trkpt lat="40.0728399" lon="-105.2306123">
  <ele>1596.53</ele>
  <time>2026-08-28T19:09:00Z</time>
  <course>9.99</course>
  <speed>0.6476109943476871</speed>
  <fix>3d</fix>
</trkpt>
<trkpt lat="40.0728401" lon="-105.2306113">
  <ele>1596.24</ele>
  <time>2026-08-28T19:09:00Z</time>
  <course>260.61</course>
  <speed>0.68</speed>
  <fix>3d</fix>
</trkpt>
<trkpt lat="40.0728397" lon="-105.2306138">
  <ele>1596.64</ele>
  <time>2026-08-28T19:09:00Z</time>
  <course>9.96</course>
  <speed>0.5748912940721924</speed>
  <fix>3d</fix>
</trkpt>
<trkpt lat="40.0728399" lon="-105.2306129">
  <ele>1596.35</ele>
  <time>2026-08-28T19:09:00Z</time>
  <course>260.98</course>
  <speed>0.63</speed>
  <fix>3d</fix>
</trkpt>
<trkpt lat="40.0728395" lon="-105.230615">
  <ele>1596.74</ele>
  <time>2026-08-28T19:09:00Z</time>
  <course>10.03</course>
  <speed>0.49244289008980524</speed>
  <fix>3d</fix>
</trkpt>
<trkpt lat="40.0728397" lon="-105.2306143">
  <ele>1596.45</ele>
  <time>2026-08-28T19:09:00Z</time>
  <course>262.26</course>
  <speed>0.56</speed>
  <fix>3d</fix>
</trkpt>
<trkpt lat="40.0728394" lon="-105.2306161">
  <ele>1596.83</ele>
  <time>2026-08-28T19:09:00Z</time>
  <course>10.17</course>
  <speed>0.39812058474788764</speed>
  <fix>3d</fix>
</trkpt>
<trkpt lat="40.0728396" lon="-105.2306155">
  <ele>1596.54</ele>
  <time>2026-08-28T19:09:00Z</time>
  <course>264.86</course>
  <speed>0.48</speed>
  <fix>3d</fix>
</trkpt>
<trkpt lat="40.0728394" lon="-105.230617">
  <ele>1596.91</ele>
  <time>2026-08-28T19:09:00Z</time>
  <course>10.38</course>
  <speed>0.31400636936215165</speed>
  <fix>3d</fix>
</trkpt>
<trkpt lat="40.0728395" lon="-105.2306165">
  <ele>1596.63</ele>
  <time>2026-08-28T19:09:00Z</time>
  <course>269.04</course>
  <speed>0.39</speed>
  <fix>3d</fix>
</trkpt>
<trkpt lat="40.0728394" lon="-105.2306177">
  <ele>1596.98</ele>
  <time>2026-08-28T19:09:00Z</time>
  <course>10.61</course>
  <speed>0.24083189157584592</speed>
  <fix>3d</fix>
</trkpt>
<trkpt lat="40.0728395" lon="-105.2306174">
  <ele>1596.72</ele>
  <time>2026-08-28T19:09:00Z</time>
  <course>274.77</course>
  <speed>0.32</speed>
  <fix>3d</fix>
</trkpt>
<trkpt lat="40.0728395" lon="-105.2306182">
  <ele>1597.04</ele>
  <time>2026-08-28T19:09:00Z</time>
  <course>10.85</course>
  <speed>0.17</speed>
  <fix>3d</fix>
</trkpt>
<trkpt lat="40.0728396" lon="-105.230618">
  <ele>1596.79</ele>
  <time>2026-08-28T19:09:00Z</time>
  <course>282.07</course>
  <speed>0.25</speed>
  <fix>3d</fix>
</trkpt>
<trkpt lat="40.0728396" lon="-105.2306186">
  <ele>1597.08</ele>
  <time>2026-08-28T19:09:00Z</time>
  <course>11.12</course>
  <speed>0.09</speed>
  <fix>3d</fix>
</trkpt>
<trkpt lat="40.0728397" lon="-105.2306186">
  <ele>1596.84</ele>
  <time>2026-08-28T19:09:00Z</time>
  <course>291.74</course>
  <speed>0.19</speed>
  <fix>3d</fix>
</trkpt>
<trkpt lat="40.0728396" lon="-105.2306187">
  <ele>1597.11</ele>
  <time>2026-08-28T19:09:00Z</time>
  <course>6.49</course>
  <speed>0.0</speed>
  <fix>3d</fix>
</trkpt>
<trkpt lat="40.0728398" lon="-105.2306189">
  <ele>1596.88</ele>
  <time>2026-08-28T19:09:00Z</time>
  <course>313.82</course>
  <speed>0.11</speed>
  <fix>3d</fix>
</trkpt>
<trkpt lat="40.0728398" lon="-105.2306187">
  <ele>1597.12</ele>
  <time>2026-08-28T19:09:00Z</time>
  <course>5.71</course>
  <speed>0.11</speed>
  <fix>3d</fix>
</trkpt>
<trkpt lat="40.07284" lon="-105.2306189">
  <ele>1596.91</ele>
  <time>2026-08-28T19:09:00Z</time>
  <course>13.22</course>
  <speed>0.08</speed>
  <fix>3d</fix>
</trkpt>
<trkpt lat="40.0728399" lon="-105.2306183">
  <ele>1597.12</ele>
  <time>2026-08-28T19:09:00Z</time>
  <course>6.05</course>
  <speed>0.26</speed>
  <fix>3d</fix>
</trkpt>
<trkpt lat="40.0728401" lon="-105.2306189">
  <ele>1596.92</ele>
  <time>2026-08-28T19:09:00Z</time>
  <course>59.87</course>
  <speed>0.15</speed>
  <fix>3d</fix>
</trkpt>
<trkpt lat="40.07284" lon="-105.2306176">
  <ele>1597.12</ele>
  <time>2026-08-28T19:09:00Z</time>
  <course>6.17</course>
  <speed>0.45</speed>
  <fix>3d</fix>
</trkpt>
<trkpt lat="40.0728402" lon="-105.2306184">
  <ele>1596.94</ele>
  <time>2026-08-28T19:09:00Z</time>
  <course>74.84</course>
  <speed>0.3</speed>
  <fix>3d</fix>
</trkpt>
<trkpt lat="40.0728402" lon="-105.2306164">
  <ele>1597.12</ele>
  <time>2026-08-28T19:09:00Z</time>
  <course>6.15</course>
  <speed>0.6403124237432849</speed>
  <fix>3d</fix>
</trkpt>
<trkpt lat="40.0728404" lon="-105.2306174">
  <ele>1596.94</ele>
  <time>2026-08-28T19:09:00Z</time>
  <course>79.31</course>
  <speed>0.49</speed>
  <fix>3d</fix>
</trkpt>
<trkpt lat="40.0728404" lon="-105.2306147">
  <ele>1597.12</ele>
  <time>2026-08-28T19:09:00Z</time>
  <course>6.13</course>
  <speed>0.8309632964216891</speed>
  <fix>3d</fix>
</trkpt>
<trkpt lat="40.0728406" lon="-105.230616">
  <ele>1596.94</ele>
  <time>2026-08-28T19:09:00Z</time>
  <course>80.92</course>
  <speed>0.68</speed>
  <fix>3d</fix>
</trkpt>
<trkpt lat="40.0728406" lon="-105.2306126">
  <ele>1597.12</ele>
  <time>2026-08-28T19:09:00Z</time>
  <course>6.2</course>
  <speed>0.9918165152889924</speed>
  <fix>3d</fix>
</trkpt>
<trkpt lat="40.0728407" lon="-105.2306143">
  <ele>1596.94</ele>
  <time>2026-08-28T19:09:00Z</time>
  <course>81.71</course>
  <speed>0.86</speed>
  <fix>3d</fix>
</trkpt>
<trkpt lat="40.0728409" lon="-105.2306102">
  <ele>1597.12</ele>
  <time>2026-08-28T19:09:00Z</time>
  <course>12.09</course>
  <speed>1.0829589096544707</speed>
  <fix>3d</fix>
</trkpt>
<trkpt lat="40.072841" lon="-105.2306121">
  <ele>1596.94</ele>
  <time>2026-08-28T19:09:00Z</time>
  <course>82.04</course>
  <speed>1.01</speed>
  <fix>3d</fix>
</trkpt>
<trkpt lat="40.0728412" lon="-105.2306075">
  <ele>1597.12</ele>
  <time>2026-08-28T19:09:00Z</time>
  <course>25.05</course>
  <speed>1.216963434126104</speed>
  <fix>3d</fix>
</trkpt>
<trkpt lat="40.0728413" lon="-105.2306096">
  <ele>1596.95</ele>
  <time>2026-08-28T19:09:00Z</time>
  <course>81.83</course>
  <speed>1.12</speed>
  <fix>3d</fix>
</trkpt>
<trkpt lat="40.0728416" lon="-105.2306046">
  <ele>1597.11</ele>
  <time>2026-08-28T19:09:00Z</time>
  <course>37.98</course>
  <speed>1.3520355024924455</speed>
  <fix>3d</fix>
</trkpt>
<trkpt lat="40.0728416" lon="-105.2306068">
  <ele>1596.95</ele>
  <time>2026-08-28T19:09:00Z</time>
  <course>81.03</course>
  <speed>1.25</speed>
  <fix>3d</fix>
</trkpt>
<trkpt lat="40.0728421" lon="-105.2306014">
  <ele>1597.11</ele>
  <time>2026-08-28T19:09:00Z</time>
  <course>50.53</course>
  <speed>1.4598630072715728</speed>
  <fix>3d</fix>
</trkpt>
<trkpt lat="40.072842" lon="-105.2306038">
  <ele>1596.95</ele>
  <time>2026-08-28T19:09:00Z</time>
  <course>79.79</course>
  <speed>1.37</speed>
  <fix>3d</fix>
</trkpt>
<trkpt lat="40.0728427" lon="-105.2305979">
  <ele>1597.11</ele>
  <time>2026-08-28T19:09:00Z</time>
  <course>62.94</course>
  <speed>1.537595525487766</speed>
  <fix>3d</fix>
</trkpt>
<trkpt lat="40.0728425" lon="-105.2306005">
  <ele>1596.96</ele>
  <time>2026-08-28T19:09:00Z</time>
  <course>78.54</course>
  <speed>1.47</speed>
  <fix>3d</fix>
</trkpt>
<trkpt lat="40.0728433" lon="-105.2305944">
  <ele>1597.12</ele>
  <time>2026-08-28T19:09:00Z</time>
  <course>74.85</course>
  <speed>1.5768956845650888</speed>
  <fix>3d</fix>
</trkpt>
<trkpt lat="40.0728431" lon="-105.230597">
  <ele>1596.96</ele>
  <time>2026-08-28T19:09:00Z</time>
  <course>77.83</course>
  <speed>1.54</speed>
  <fix>3d</fix>
</trkpt>
<trkpt lat="40.0728438" lon="-105.2305908">
  <ele>1597.13</ele>
  <time>2026-08-28T19:09:00Z</time>
  <course>78.66</course>
  <speed>1.5684705926475002</speed>
  <fix>3d</fix>
</trkpt>
<trkpt lat="40.0728436" lon="-105.2305935">
  <ele>1596.98</ele>
  <time>2026-08-28T19:09:00Z</time>
  <course>78.7</course>
  <speed>1.57</speed>
  <fix>3d</fix>
</trkpt>
<trkpt lat="40.0728443" lon="-105.2305872">
  <ele>1597.13</ele>
  <time>2026-08-28T19:09:00Z</time>
  <course>78.68</course>
  <speed>1.5146286673637206</speed>
  <fix>3d</fix>
</trkpt>
<trkpt lat="40.0728441" lon="-105.2305898">
  <ele>1596.99</ele>
  <time>2026-08-28T19:09:00Z</time>
  <course>80.28</course>
  <speed>1.55</speed>
  <fix>3d</fix>
</trkpt>
<trkpt lat="40.0728447" lon="-105.2305838">
  <ele>1597.15</ele>
  <time>2026-08-28T19:09:00Z</time>
  <course>79.21</course>
  <speed>1.4301398533010679</speed>
  <fix>3d</fix>
</trkpt>
<trkpt lat="40.0728445" lon="-105.2305863">
  <ele>1597.0</ele>
  <time>2026-08-28T19:09:00Z</time>
  <course>81.32</course>
  <speed>1.48</speed>
  <fix>3d</fix>
</trkpt>
<trkpt lat="40.072845" lon="-105.2305806">
  <ele>1597.15</ele>
  <time>2026-08-28T19:09:00Z</time>
  <course>80.7</course>
  <speed>1.335402561027947</speed>
  <fix>3d</fix>
</trkpt>
<trkpt lat="40.0728449" lon="-105.2305829">
  <ele>1597.01</ele>
  <time>2026-08-28T19:09:00Z</time>
  <course>82.58</course>
  <speed>1.4</speed>
  <fix>3d</fix>
</trkpt>
<trkpt lat="40.0728452" lon="-105.2305776">
  <ele>1597.16</ele>
  <time>2026-08-28T19:09:00Z</time>
  <course>82.9</course>
  <speed>1.2220065466273085</speed>
  <fix>3d</fix>
</trkpt>
<trkpt lat="40.0728452" lon="-105.2305797">
  <ele>1597.02</ele>
  <time>2026-08-28T19:09:00Z</time>
  <course>84.38</course>
  <speed>1.3</speed>
  <fix>3d</fix>
</trkpt>
<trkpt lat="40.0728453" lon="-105.2305749">
  <ele>1597.16</ele>
  <time>2026-08-28T19:09:00Z</time>
  <course>85.44</course>
  <speed>1.0800462953040486</speed>
  <fix>3d</fix>
</trkpt>
<trkpt lat="40.0728454" lon="-105.2305768">
  <ele>1597.03</ele>
  <time>2026-08-28T19:09:00Z</time>
  <course>86.59</course>
  <speed>1.18</speed>
  <fix>3d</fix>
</trkpt>
<trkpt lat="40.0728453" lon="-105.2305726">
  <ele>1597.16</ele>
  <time>2026-08-28T19:09:00Z</time>
  <course>87.97</course>
  <speed>0.9108786966440703</speed>
  <fix>3d</fix>
</trkpt>
<trkpt lat="40.0728455" lon="-105.2305742">
  <ele>1597.03</ele>
  <time>2026-08-28T19:09:00Z</time>
  <course>89.19</course>
  <speed>1.03</speed>
  <fix>3d</fix>
</trkpt>
<trkpt lat="40.0728453" lon="-105.2305707">
  <ele>1597.15</ele>
  <time>2026-08-28T19:09:00Z</time>
  <course>88.18</course>
  <speed>0.6958448102845921</speed>
  <fix>3d</fix>
</trkpt>
<trkpt lat="40.0728454" lon="-105.230572">
  <ele>1597.04</ele>
  <time>2026-08-28T19:09:00Z</time>
  <course>92.94</course>
  <speed>0.84</speed>
  <fix>3d</fix>
</trkpt>
<trkpt lat="40.0728452" lon="-105.2305694">
  <ele>1597.15</ele>
  <time>2026-08-28T19:09:00Z</time>
  <course>88.04</course>
  <speed>0.45607017003965516</speed>
  <fix>3d</fix>
</trkpt>
<trkpt lat="40.0728453" lon="-105.2305703">
  <ele>1597.04</ele>
  <time>2026-08-28T19:09:00Z</time>
  <course>98.78</course>
  <speed>0.63</speed>
  <fix>3d</fix>
</trkpt>
<trkpt lat="40.0728449" lon="-105.2305686">
  <ele>1597.14</ele>
  <time>2026-08-28T19:09:00Z</time>
  <course>88.04</course>
  <speed>0.24083189157584592</speed>
  <fix>3d</fix>
</trkpt>
<trkpt lat="40.0728451" lon="-105.2305691">
  <ele>1597.04</ele>
  <time>2026-08-28T19:09:00Z</time>
  <course>110.4</course>
  <speed>0.39</speed>
  <fix>3d</fix>
</trkpt>
<trkpt lat="40.0728446" lon="-105.2305685">
  <ele>1597.14</ele>
  <time>2026-08-28T19:09:00Z</time>
  <course>88.07</course>
  <speed>0.208806130178211</speed>
  <fix>3d</fix>
</trkpt>
<trkpt lat="40.0728449" lon="-105.2305686">
  <ele>1597.03</ele>
  <time>2026-08-28T19:09:00Z</time>
  <course>148.56</course>
  <speed>0.2</speed>
  <fix>3d</fix>
</trkpt>
<trkpt lat="40.0728442" lon="-105.2305688">
  <ele>1597.13</ele>
  <time>2026-08-28T19:09:00Z</time>
  <course>88.04</course>
  <speed>0.354682957019364</speed>
  <fix>3d</fix>
</trkpt>
<trkpt lat="40.0728445" lon="-105.2305686">
  <ele>1597.03</ele>
  <time>2026-08-28T19:09:00Z</time>
  <course>212.39</course>
  <speed>0.25</speed>
  <fix>3d</fix>
</trkpt>
<trkpt lat="40.0728438" lon="-105.2305696">
  <ele>1597.13</ele>
  <time>2026-08-28T19:09:00Z</time>
  <course>88.0</course>
  <speed>0.4939635614091387</speed>
  <fix>3d</fix>
</trkpt>
<trkpt lat="40.0728442" lon="-105.2305691">
  <ele>1597.03</ele>
  <time>2026-08-28T19:09:00Z</time>
  <course>233.65</course>
  <speed>0.41</speed>
  <fix>3d</fix>
</trkpt>
<trkpt lat="40.0728433" lon="-105.2305707">
  <ele>1597.13</ele>
  <time>2026-08-28T19:09:00Z</time>
  <course>87.97</course>
  <speed>0.5730619512757761</speed>
  <fix>3d</fix>
</trkpt>
<trkpt lat="40.0728437" lon="-105.2305701">
  <ele>1597.03</ele>
  <time>2026-08-28T19:09:00Z</time>
  <course>240.19</course>
  <speed>0.55</speed>
  <fix>3d</fix>
</trkpt>
<trkpt lat="40.0728428" lon="-105.230572">
  <ele>1597.14</ele>
  <time>2026-08-28T19:09:01Z</time>
  <course>87.96</course>
  <speed>0.5859180830116101</speed>
  <fix>3d</fix>
</trkpt>
<trkpt lat="40.0728432" lon="-105.2305712">
  <ele>1597.04</ele>
  <time>2026-08-28T19:09:01Z</time>
  <course>242.58</course>
  <speed>0.61</speed>
  <fix>3d</fix>
</trkpt>
<trkpt lat="40.0728423" lon="-105.2305732">
  <ele>1597.14</ele>
  <time>2026-08-28T19:09:01Z</time>
  <course>87.97</course>
  <speed>0.5458937625582473</speed>
  <fix>3d</fix>
</trkpt>
<trkpt lat="40.0728426" lon="-105.2305725">
  <ele>1597.04</ele>
  <time>2026-08-28T19:09:01Z</time>
  <course>243.31</course>
  <speed>0.62</speed>
  <fix>3d</fix>
</trkpt>
<trkpt lat="40.0728418" lon="-105.2305743">
  <ele>1597.15</ele>
  <time>2026-08-28T19:09:01Z</time>
  <course>83.21</course>
  <speed>0.4882622246293481</speed>
  <fix>3d</fix>
</trkpt>
<trkpt lat="40.0728421" lon="-105.2305739">
  <ele>1597.04</ele>
  <time>2026-08-28T19:09:01Z</time>
  <course>241.63</course>
  <speed>0.57</speed>
  <fix>3d</fix>
</trkpt>
<trkpt lat="40.0728413" lon="-105.2305753">
  <ele>1597.15</ele>
  <time>2026-08-28T19:09:01Z</time>
  <course>69.65</course>
  <speed>0.4080441152620633</speed>
  <fix>3d</fix>
</trkpt>
<trkpt lat="40.0728417" lon="-105.2305749">
  <ele>1597.05</ele>
  <time>2026-08-28T19:09:01Z</time>
  <course>238.26</course>
  <speed>0.5</speed>
  <fix>3d</fix>
</trkpt>
<trkpt lat="40.072841" lon="-105.2305761">
  <ele>1597.16</ele>
  <time>2026-08-28T19:09:01Z</time>
  <course>56.72</course>
  <speed>0.3328663395418648</speed>
  <fix>3d</fix>
</trkpt>
<trkpt lat="40.0728412" lon="-105.2305758">
  <ele>1597.05</ele>
  <time>2026-08-28T19:09:01Z</time>
  <course>238.1</course>
  <speed>0.42</speed>
  <fix>3d</fix>
</trkpt>
<trkpt lat="40.0728407" lon="-105.2305768">
  <ele>1597.16</ele>
  <time>2026-08-28T19:09:01Z</time>
  <course>44.62</course>
  <speed>0.28653097563788804</speed>
  <fix>3d</fix>
</trkpt>
<trkpt lat="40.0728409" lon="-105.2305767">
  <ele>1597.06</ele>
  <time>2026-08-28T19:09:01Z</time>
  <course>241.84</course>
  <speed>0.35</speed>
  <fix>3d</fix>
</trkpt>
<trkpt lat="40.0728405" lon="-105.2305775">
  <ele>1597.16</ele>
  <time>2026-08-28T19:09:01Z</time>
  <course>32.74</course>
  <speed>0.25942243542145693</speed>
  <fix>3d</fix>
</trkpt>
<trkpt lat="40.0728406" lon="-105.2305773">
  <ele>1597.06</ele>
  <time>2026-08-28T19:09:01Z</time>
  <course>245.11</course>
  <speed>0.3</speed>
  <fix>3d</fix>
</trkpt>
<trkpt lat="40.0728403" lon="-105.2305781">
  <ele>1597.16</ele>
  <time>2026-08-28T19:09:01Z</time>
  <course>20.79</course>
  <speed>0.22472205054244232</speed>
  <fix>3d</fix>
</trkpt>
<trkpt lat="40.0728403" lon="-105.230578">
  <ele>1597.06</ele>
  <time>2026-08-28T19:09:01Z</time>
  <course>245.59</course>
  <speed>0.26</speed>
  <fix>3d</fix>
</trkpt>
<trkpt lat="40.0728401" lon="-105.2305786">
  <ele>1597.16</ele>
  <time>2026-08-28T19:09:01Z</time>
  <course>14.07</course>
  <speed>0.23706539182259395</speed>
  <fix>3d</fix>
</trkpt>
<trkpt lat="40.0728402" lon="-105.2305785">
  <ele>1597.06</ele>
  <time>2026-08-28T19:09:01Z</time>
  <course>245.57</course>
  <speed>0.24</speed>
  <fix>3d</fix>
</trkpt>
<trkpt lat="40.0728399" lon="-105.2305791">
  <ele>1597.16</ele>
  <time>2026-08-28T19:09:01Z</time>
  <course>15.28</course>
  <speed>0.194164878389476</speed>
  <fix>3d</fix>
</trkpt>
<trkpt lat="40.0728401" lon="-105.230579">
  <ele>1597.06</ele>
  <time>2026-08-28T19:09:01Z</time>
  <course>245.27</course>
  <speed>0.22</speed>
  <fix>3d</fix>
</trkpt>
<trkpt lat="40.0728397" lon="-105.2305794">
  <ele>1597.16</ele>
  <time>2026-08-28T19:09:01Z</time>
  <course>15.95</course>
  <speed>0.12041594578792296</speed>
  <fix>3d</fix>
</trkpt>
<trkpt lat="40.0728399" lon="-105.2305794">
  <ele>1597.06</ele>
  <time>2026-08-28T19:09:01Z</time>
  <course>240.2</course>
  <speed>0.16</speed>
  <fix>3d</fix>
</trkpt>
<trkpt lat="40.0728396" lon="-105.2305796">
  <ele>1597.17</ele>
  <time>2026-08-28T19:09:01Z</time>
  <course>16.05</course>
  <speed>0.07280109889280519</speed>
  <fix>3d</fix>
</trkpt>
<trkpt lat="40.0728397" lon="-105.2305796">
  <ele>1597.06</ele>
  <time>2026-08-28T19:09:01Z</time>
  <course>227.63</course>
  <speed>0.09</speed>
  <fix>3d</fix>
</trkpt>
<trkpt lat="40.0728395" lon="-105.2305796">
  <ele>1597.16</ele>
  <time>2026-08-28T19:09:01Z</time>
  <course>16.07</course>
  <speed>0.04242640687119285</speed>
  <fix>3d</fix>
</trkpt>
<trkpt lat="40.0728396" lon="-105.2305798">
  <ele>1597.05</ele>
  <time>2026-08-28T19:09:01Z</time>
  <course>185.19</course>
  <speed>0.03</speed>
  <fix>3d</fix>
</trkpt>
<trkpt lat="40.0728395" lon="-105.2305796">
  <ele>1597.16</ele>
  <time>2026-08-28T19:09:01Z</time>
  <course>16.11</course>
  <speed>0.07</speed>
  <fix>3d</fix>
</trkpt>
<trkpt lat="40.0728396" lon="-105.2305797">
  <ele>1597.05</ele>
  <time>2026-08-28T19:09:01Z</time>
  <course>88.3</course>
  <speed>0.05</speed>
  <fix>3d</fix>
</trkpt>
<trkpt lat="40.0728396" lon="-105.2305794">
  <ele>1597.16</ele>
  <time>2026-08-28T19:09:01Z</time>
  <course>16.15</course>
  <speed>0.1118033988749895</speed>
  <fix>3d</fix>
</trkpt>
<trkpt lat="40.0728396" lon="-105.2305796">
  <ele>1597.05</ele>
  <time>2026-08-28T19:09:01Z</time>
  <course>68.87</course>
  <speed>0.1</speed>
  <fix>3d</fix>
</trkpt>
<trkpt lat="40.0728396" lon="-105.2305791">
  <ele>1597.16</ele>
  <time>2026-08-28T19:09:01Z</time>
  <course>16.19</course>
  <speed>0.14866068747318506</speed>
  <fix>3d</fix>
</trkpt>
<trkpt lat="40.0728397" lon="-105.2305793">
  <ele>1597.05</ele>
  <time>2026-08-28T19:09:01Z</time>
  <course>62.12</course>
  <speed>0.14</speed>
  <fix>3d</fix>
</trkpt>
<trkpt lat="40.0728398" lon="-105.2305787">
  <ele>1597.15</ele>
  <time>2026-08-28T19:09:01Z</time>
  <course>16.22</course>
  <speed>0.17464249196572978</speed>
  <fix>3d</fix>
</trkpt>
<trkpt lat="40.0728398" lon="-105.2305789">
  <ele>1597.04</ele>
  <time>2026-08-28T19:09:01Z</time>
  <course>58.54</course>
  <speed>0.18</speed>
  <fix>3d</fix>
</trkpt>
<trkpt lat="40.07284" lon="-105.2305783">
  <ele>1597.15</ele>
  <time>2026-08-28T19:09:01Z</time>
  <course>16.26</course>
  <speed>0.19235384061671343</speed>
  <fix>3d</fix>
</trkpt>
<trkpt lat="40.07284" lon="-105.2305786">
  <ele>1597.04</ele>
  <time>2026-08-28T19:09:01Z</time>
  <course>56.19</course>
  <speed>0.22</speed>
  <fix>3d</fix>
</trkpt>
<trkpt lat="40.0728402" lon="-105.2305778">
  <ele>1597.14</ele>
  <time>2026-08-28T19:09:01Z</time>
  <course>16.29</course>
  <speed>0.2109502310972899</speed>
  <fix>3d</fix>
</trkpt>
<trkpt lat="40.0728402" lon="-105.2305781">
  <ele>1597.04</ele>
  <time>2026-08-28T19:09:01Z</time>
  <course>54.39</course>
  <speed>0.24</speed>
  <fix>3d</fix>
</trkpt>
<trkpt lat="40.0728405" lon="-105.2305774">
  <ele>1597.15</ele>
  <time>2026-08-28T19:09:01Z</time>
  <course>16.33</course>
  <speed>0.22472205054244232</speed>
  <fix>3d</fix>
</trkpt>
<trkpt lat="40.0728405" lon="-105.2305777">
  <ele>1597.04</ele>
  <time>2026-08-28T19:09:01Z</time>
  <course>52.96</course>
  <speed>0.25</speed>
  <fix>3d</fix>
</trkpt>
<trkpt lat="40.0728408" lon="-105.2305769">
  <ele>1597.15</ele>
  <time>2026-08-28T19:09:01Z</time>
  <course>16.38</course>
  <speed>0.21633307652783937</speed>
  <fix>3d</fix>
</trkpt>
<trkpt lat="40.0728408" lon="-105.2305772">
  <ele>1597.04</ele>
  <time>2026-08-28T19:09:01Z</time>
  <course>51.8</course>
  <speed>0.26</speed>
  <fix>3d</fix>
</trkpt>
<trkpt lat="40.072841" lon="-105.2305764">
  <ele>1597.15</ele>
  <time>2026-08-28T19:09:01Z</time>
  <course>16.42</course>
  <speed>0.21633307652783937</speed>
  <fix>3d</fix>
</trkpt>
<trkpt lat="40.0728411" lon="-105.2305767">
  <ele>1597.04</ele>
  <time>2026-08-28T19:09:01Z</time>
  <course>50.86</course>
  <speed>0.26</speed>
  <fix>3d</fix>
</trkpt>
<trkpt lat="40.0728413" lon="-105.230576">
  <ele>1597.15</ele>
  <time>2026-08-28T19:09:01Z</time>
  <course>16.47</course>
  <speed>0.20248456731316586</speed>
  <fix>3d</fix>
</trkpt>
<trkpt lat="40.0728414" lon="-105.2305762">
  <ele>1597.04</ele>
  <time>2026-08-28T19:09:01Z</time>
  <course>50.13</course>
  <speed>0.25</speed>
  <fix>3d</fix>
</trkpt>
<trkpt lat="40.0728416" lon="-105.2305756">
  <ele>1597.15</ele>
  <time>2026-08-28T19:09:01Z</time>
  <course>16.51</course>
  <speed>0.18027756377319945</speed>
  <fix>3d</fix>
</trkpt>
<trkpt lat="40.0728417" lon="-105.2305758">
  <ele>1597.05</ele>
  <time>2026-08-28T19:09:01Z</time>
  <course>49.58</course>
  <speed>0.24</speed>
  <fix>3d</fix>
</trkpt>
<trkpt lat="40.0728418" lon="-105.2305752">
  <ele>1597.15</ele>
  <time>2026-08-28T19:09:01Z</time>
  <course>16.56</course>
  <speed>0.15811388300841897</speed>
  <fix>3d</fix>
</trkpt>
<trkpt lat="40.0728419" lon="-105.2305753">
  <ele>1597.05</ele>
  <time>2026-08-28T19:09:01Z</time>
  <course>49.16</course>
  <speed>0.22</speed>
  <fix>3d</fix>
</trkpt>
<trkpt lat="40.0728421" lon="-105.2305749">
  <ele>1597.15</ele>
  <time>2026-08-28T19:09:01Z</time>
  <course>16.6</course>
  <speed>0.130384048104053</speed>
  <fix>3d</fix>
</trkpt>
<trkpt lat="40.0728422" lon="-105.2305749">
  <ele>1597.05</ele>
  <time>2026-08-28T19:09:01Z</time>
  <course>48.86</course>
  <speed>0.19</speed>
  <fix>3d</fix>
</trkpt>
<trkpt lat="40.0728422" lon="-105.2305746">
  <ele>1597.15</ele>
  <time>2026-08-28T19:09:01Z</time>
  <course>16.63</course>
  <speed>0.10295630140987001</speed>
  <fix>3d</fix>
</trkpt>
<trkpt lat="40.0728425" lon="-105.2305746">
  <ele>1597.05</ele>
  <time>2026-08-28T19:09:01Z</time>
  <course>48.75</course>
  <speed>0.16</speed>
  <fix>3d</fix>
</trkpt>
<trkpt lat="40.0728424" lon="-105.2305744">
  <ele>1597.15</ele>
  <time>2026-08-28T19:09:01Z</time>
  <course>16.68</course>
  <speed>0.07615773105863909</speed>
  <fix>3d</fix>
</trkpt>
<trkpt lat="40.0728426" lon="-105.2305744">
  <ele>1597.05</ele>
  <time>2026-08-28T19:09:01Z</time>
  <course>48.74</course>
  <speed>0.13</speed>
  <fix>3d</fix>
</trkpt>
<trkpt lat="40.0728425" lon="-105.2305742">
  <ele>1597.14</ele>
  <time>2026-08-28T19:09:01Z</time>
  <course>16.96</course>
  <speed>0.053851648071345036</speed>
  <fix>3d</fix>
</trkpt>
<trkpt lat="40.0728427" lon="-105.2305742">
  <ele>1597.04</ele>
  <time>2026-08-28T19:09:01Z</time>
  <course>48.49</course>
  <speed>0.1</speed>
  <fix>3d</fix>
</trkpt>
<trkpt lat="40.0728426" lon="-105.230574">
  <ele>1597.09</ele>
  <time>2026-08-28T19:09:01Z</time>
  <course>17.35</course>
  <speed>0.03</speed>
  <fix>3d</fix>
</trkpt>
<trkpt lat="40.0728428" lon="-105.230574">
  <ele>1597.02</ele>
  <time>2026-08-28T19:09:01Z</time>
  <course>48.3</course>
  <speed>0.07</speed>
  <fix>3d</fix>
</trkpt>
<trkpt lat="40.0728427" lon="-105.230574">
  <ele>1597.01</ele>
  <time>2026-08-28T19:09:01Z</time>
  <course>17.68</course>
  <speed>0.022360679774997897</speed>
  <fix>3d</fix>
</trkpt>
<trkpt lat="40.0728429" lon="-105.2305739">
  <ele>1596.97</ele>
  <time>2026-08-28T19:09:01Z</time>
  <course>50.22</course>
  <speed>0.04</speed>
  <fix>3d</fix>
</trkpt>
<trkpt lat="40.0728427" lon="-105.2305739">
  <ele>1596.88</ele>
  <time>2026-08-28T19:09:01Z</time>
  <course>17.94</course>
  <speed>0.022360679774997897</speed>
  <fix>3d</fix>
</trkpt>
<trkpt lat="40.072843" lon="-105.2305739">
  <ele>1596.87</ele>
  <time>2026-08-28T19:09:01Z</time>
  <course>60.28</course>
  <speed>0.02</speed>
  <fix>3d</fix>
</trkpt>
<trkpt lat="40.0728427" lon="-105.2305739">
  <ele>1596.72</ele>
  <time>2026-08-28T19:09:01Z</time>
  <course>17.88</course>
  <speed>0.04</speed>
  <fix>3d</fix>
</trkpt>
<trkpt lat="40.072843" lon="-105.2305738">
  <ele>1596.74</ele>
  <time>2026-08-28T19:09:01Z</time>
  <course>119.03</course>
  <speed>0.01</speed>
  <fix>3d</fix>
</trkpt>
<trkpt lat="40.0728427" lon="-105.2305739">
  <ele>1596.56</ele>
  <time>2026-08-28T19:09:01Z</time>
  <course>17.61</course>
  <speed>0.06</speed>
  <fix>3d</fix>
</trkpt>
<trkpt lat="40.072843" lon="-105.2305738">
  <ele>1596.59</ele>
  <time>2026-08-28T19:09:01Z</time>
  <course>176.49</course>
  <speed>0.02</speed>
  <fix>3d</fix>
</trkpt>
<trkpt lat="40.0728427" lon="-105.2305739">
  <ele>1596.43</ele>
  <time>2026-08-28T19:09:01Z</time>
  <course>17.41</course>
  <speed>0.07071067811865475</speed>
  <fix>3d</fix>
</trkpt>
<trkpt lat="40.0728429" lon="-105.2305738">
  <ele>1596.43</ele>
  <time>2026-08-28T19:09:01Z</time>
  <course>192.19</course>
  <speed>0.04</speed>
  <fix>3d</fix>
</trkpt>
<trkpt lat="40.0728426" lon="-105.2305739">
  <ele>1596.3</ele>
  <time>2026-08-28T19:09:01Z</time>
  <course>17.34</course>
  <speed>0.0824621125123532</speed>
  <fix>3d</fix>
</trkpt>
<trkpt lat="40.0728429" lon="-105.2305738">
  <ele>1596.29</ele>
  <time>2026-08-28T19:09:01Z</time>
  <course>201.14</course>
  <speed>0.05</speed>
  <fix>3d</fix>
</trkpt>
<trkpt lat="40.0728425" lon="-105.2305739">
  <ele>1596.19</ele>
  <time>2026-08-28T19:09:01Z</time>
  <course>17.32</course>
  <speed>0.0854400374531753</speed>
  <fix>3d</fix>
</trkpt>
<trkpt lat="40.0728428" lon="-105.2305738">
  <ele>1596.17</ele>
  <time>2026-08-28T19:09:01Z</time>
  <course>207.73</course>
  <speed>0.06</speed>
  <fix>3d</fix>
</trkpt>
<trkpt lat="40.0728424" lon="-105.230574">
  <ele>1596.08</ele>
  <time>2026-08-28T19:09:01Z</time>
  <course>17.32</course>
  <speed>0.08944271909999159</speed>
  <fix>3d</fix>
</trkpt>
<trkpt lat="40.0728427" lon="-105.2305739">
  <ele>1596.06</ele>
  <time>2026-08-28T19:09:01Z</time>
  <course>212.88</course>
  <speed>0.07</speed>
  <fix>3d</fix>
</trkpt>
<trkpt lat="40.0728423" lon="-105.2305741">
  <ele>1595.98</ele>
  <time>2026-08-28T19:09:01Z</time>
  <course>17.33</course>
  <speed>0.08944271909999159</speed>
  <fix>3d</fix>
</trkpt>
<trkpt lat="40.0728426" lon="-105.230574">
  <ele>1595.96</ele>
  <time>2026-08-28T19:09:01Z</time>
  <course>216.99</course>
  <speed>0.08</speed>
  <fix>3d</fix>
</trkpt>
<trkpt lat="40.0728422" lon="-105.2305742">
  <ele>1595.88</ele>
  <time>2026-08-28T19:09:01Z</time>
  <course>17.35</course>
  <speed>0.09433981132056603</speed>
  <fix>3d</fix>
</trkpt>
<trkpt lat="40.0728424" lon="-105.2305741">
  <ele>1595.86</ele>
  <time>2026-08-28T19:09:01Z</time>
  <course>220.63</course>
  <speed>0.08</speed>
  <fix>3d</fix>
</trkpt>
<trkpt lat="40.0728421" lon="-105.2305743">
  <ele>1595.78</ele>
  <time>2026-08-28T19:09:01Z</time>
  <course>17.38</course>
  <speed>0.08602325267042626</speed>
  <fix>3d</fix>
</trkpt>
<trkpt lat="40.0728423" lon="-105.2305743">
  <ele>1595.76</ele>
  <time>2026-08-28T19:09:01Z</time>
  <course>224.38</course>
  <speed>0.08</speed>
  <fix>3d</fix>
</trkpt>
<trkpt lat="40.072842" lon="-105.2305745">
  <ele>1595.68</ele>
  <time>2026-08-28T19:09:01Z</time>
  <course>17.39</course>
  <speed>0.08602325267042626</speed>
  <fix>3d</fix>
</trkpt>
<trkpt lat="40.0728422" lon="-105.2305744">
  <ele>1595.66</ele>
  <time>2026-08-28T19:09:01Z</time>
  <course>228.51</course>
  <speed>0.08</speed>
  <fix>3d</fix>
</trkpt>
<trkpt lat="40.0728419" lon="-105.2305746">
  <ele>1595.58</ele>
  <time>2026-08-28T19:09:01Z</time>
  <course>17.42</course>
  <speed>0.07810249675906654</speed>
  <fix>3d</fix>
</trkpt>
<trkpt lat="40.0728421" lon="-105.2305745">
  <ele>1595.57</ele>
  <time>2026-08-28T19:09:01Z</time>
  <course>233.01</course>
  <speed>0.08</speed>
  <fix>3d</fix>
</trkpt>
<trkpt lat="40.0728419" lon="-105.2305747">
  <ele>1595.49</ele>
  <time>2026-08-28T19:09:01Z</time>
  <course>17.44</course>
  <speed>0.06403124237432849</speed>
  <fix>3d</fix>
</trkpt>
<trkpt lat="40.072842" lon="-105.2305747">
  <ele>1595.47</ele>
  <time>2026-08-28T19:09:01Z</time>
  <course>237.89</course>
  <speed>0.07</speed>
  <fix>3d</fix>
</trkpt>
<trkpt lat="40.0728418" lon="-105.2305748">
  <ele>1595.39</ele>
  <time>2026-08-28T19:09:01Z</time>
  <course>17.46</course>
  <speed>0.0565685424949238</speed>
  <fix>3d</fix>
</trkpt>
<trkpt lat="40.072842" lon="-105.2305748">
  <ele>1595.37</ele>
  <time>2026-08-28T19:09:01Z</time>
  <course>243.48</course>
  <speed>0.07</speed>
  <fix>3d</fix>
</trkpt>
<trkpt lat="40.0728418" lon="-105.230575">
  <ele>1595.29</ele>
  <time>2026-08-28T19:09:01Z</time>
  <course>17.47</course>
  <speed>0.04242640687119285</speed>
  <fix>3d</fix>
</trkpt>
<trkpt lat="40.0728419" lon="-105.230575">
  <ele>1595.28</ele>
  <time>2026-08-28T19:09:01Z</time>
  <course>250.3</course>
  <speed>0.06</speed>
  <fix>3d</fix>
</trkpt>
<trkpt lat="40.0728418" lon="-105.2305751">
  <ele>1595.2</ele>
  <time>2026-08-28T19:09:01Z</time>
  <course>17.49</course>
  <speed>0.03605551275463989</speed>
  <fix>3d</fix>
</trkpt>
<trkpt lat="40.0728419" lon="-105.2305752">
  <ele>1595.17</ele>
  <time>2026-08-28T19:09:01Z</time>
  <course>258.63</course>
  <speed>0.05</speed>
  <fix>3d</fix>
</trkpt>
<trkpt lat="40.0728418" lon="-105.2305752">
  <ele>1595.1</ele>
  <time>2026-08-28T19:09:01Z</time>
  <course>17.5</course>
  <speed>0.022360679774997897</speed>
  <fix>3d</fix>
</trkpt>
<trkpt lat="40.0728419" lon="-105.2305753">
  <ele>1595.08</ele>
  <time>2026-08-28T19:09:01Z</time>
  <course>268.47</course>
  <speed>0.04</speed>
  <fix>3d</fix>
</trkpt>
<trkpt lat="40.0728418" lon="-105.2305753">
  <ele>1595.0</ele>
  <time>2026-08-28T19:09:01Z</time>
  <course>17.52</course>
  <speed>0.01</speed>
  <fix>3d</fix>
</trkpt>
<trkpt lat="40.0728419" lon="-105.2305754">
  <ele>1594.98</ele>
  <time>2026-08-28T19:09:01Z</time>
  <course>279.47</course>
  <speed>0.04</speed>
  <fix>3d</fix>
</trkpt>
<trkpt lat="40.0728418" lon="-105.2305753">
  <ele>1594.9</ele>
  <time>2026-08-28T19:09:01Z</time>
  <course>17.53</course>
  <speed>0.01</speed>
  <fix>3d</fix>
</trkpt>
<trkpt lat="40.0728419" lon="-105.2305755">
  <ele>1594.88</ele>
  <time>2026-08-28T19:09:01Z</time>
  <course>291.57</course>
  <speed>0.04</speed>
  <fix>3d</fix>
</trkpt>
<trkpt lat="40.0728418" lon="-105.2305754">
  <ele>1594.8</ele>
  <time>2026-08-28T19:09:01Z</time>
  <course>17.55</course>
  <speed>0.0</speed>
  <fix>3d</fix>
</trkpt>
<trkpt lat="40.072842" lon="-105.2305756">
  <ele>1594.78</ele>
  <time>2026-08-28T19:09:01Z</time>
  <course>304.32</course>
  <speed>0.03</speed>
  <fix>3d</fix>
</trkpt>
<trkpt lat="40.0728418" lon="-105.2305755">
  <ele>1594.69</ele>
  <time>2026-08-28T19:09:01Z</time>
  <course>17.56</course>
  <speed>0.0</speed>
  <fix>3d</fix>
</trkpt>
<trkpt lat="40.072842" lon="-105.2305756">
  <ele>1594.67</ele>
  <time>2026-08-28T19:09:01Z</time>
  <course>317.54</course>
  <speed>0.03</speed>
  <fix>3d</fix>
</trkpt>
<trkpt lat="40.0728419" lon="-105.2305755">
  <ele>1594.6</ele>
  <time>2026-08-28T19:09:01Z</time>
  <course>17.57</course>
  <speed>0.01</speed>
  <fix>3d</fix>
</trkpt>
<trkpt lat="40.072842" lon="-105.2305756">
  <ele>1594.58</ele>
  <time>2026-08-28T19:09:01Z</time>
  <course>331.05</course>
  <speed>0.03</speed>
  <fix>3d</fix>
</trkpt>
<trkpt lat="40.0728419" lon="-105.2305755">
  <ele>1594.5</ele>
  <time>2026-08-28T19:09:01Z</time>
  <course>17.59</course>
  <speed>0.01414213562373095</speed>
  <fix>3d</fix>
</trkpt>
<trkpt lat="40.072842" lon="-105.2305757">
  <ele>1594.48</ele>
  <time>2026-08-28T19:09:01Z</time>
  <course>343.06</course>
  <speed>0.03</speed>
  <fix>3d</fix>
</trkpt>
<trkpt lat="40.072842" lon="-105.2305755">
  <ele>1594.39</ele>
  <time>2026-08-28T19:09:01Z</time>
  <course>17.6</course>
  <speed>0.022360679774997897</speed>
  <fix>3d</fix>
</trkpt>
<trkpt lat="40.072842" lon="-105.2305758">
  <ele>1594.38</ele>
  <time>2026-08-28T19:09:01Z</time>
  <course>352.71</course>
  <speed>0.03</speed>
  <fix>3d</fix>
</trkpt>
<trkpt lat="40.072842" lon="-105.2305755">
  <ele>1594.29</ele>
  <time>2026-08-28T19:09:01Z</time>
  <course>17.61</course>
  <speed>0.022360679774997897</speed>
  <fix>3d</fix>
</trkpt>
<trkpt lat="40.0728421" lon="-105.2305758">
  <ele>1594.28</ele>
  <time>2026-08-28T19:09:01Z</time>
  <course>0.76</course>
  <speed>0.03</speed>
  <fix>3d</fix>
</trkpt>
<trkpt lat="40.0728421" lon="-105.2305755">
  <ele>1594.19</ele>
  <time>2026-08-28T19:09:01Z</time>
  <course>17.62</course>
  <speed>0.02</speed>
  <fix>3d</fix>
</trkpt>
<trkpt lat="40.0728421" lon="-105.2305758">
  <ele>1594.17</ele>
  <time>2026-08-28T19:09:01Z</time>
  <course>8.07</course>
  <speed>0.03</speed>
  <fix>3d</fix>
</trkpt>
<trkpt lat="40.0728421" lon="-105.2305755">
  <ele>1594.09</ele>
  <time>2026-08-28T19:09:01Z</time>
  <course>17.63</course>
  <speed>0.03</speed>
  <fix>3d</fix>
</trkpt>
<trkpt lat="40.0728422" lon="-105.2305758">
  <ele>1594.08</ele>
  <time>2026-08-28T19:09:01Z</time>
  <course>15.09</course>
  <speed>0.03</speed>
  <fix>3d</fix>
</trkpt>
<trkpt lat="40.0728422" lon="-105.2305755">
  <ele>1593.99</ele>
  <time>2026-08-28T19:09:01Z</time>
  <course>17.64</course>
  <speed>0.03</speed>
  <fix>3d</fix>
</trkpt>
<trkpt lat="40.0728423" lon="-105.2305758">
  <ele>1593.98</ele>
  <time>2026-08-28T19:09:01Z</time>
  <course>21.49</course>
  <speed>0.03</speed>
  <fix>3d</fix>
</trkpt>
<trkpt lat="40.0728422" lon="-105.2305755">
  <ele>1593.89</ele>
  <time>2026-08-28T19:09:01Z</time>
  <course>17.65</course>
  <speed>0.03</speed>
  <fix>3d</fix>
</trkpt>
<trkpt lat="40.0728423" lon="-105.2305758">
  <ele>1593.88</ele>
  <time>2026-08-28T19:09:01Z</time>
  <course>27.36</course>
  <speed>0.03</speed>
  <fix>3d</fix>
</trkpt>
<trkpt lat="40.0728422" lon="-105.2305755">
  <ele>1593.79</ele>
  <time>2026-08-28T19:09:01Z</time>
  <course>17.66</course>
  <speed>0.03</speed>
  <fix>3d</fix>
</trkpt>
<trkpt lat="40.0728424" lon="-105.2305757">
  <ele>1593.78</ele>
  <time>2026-08-28T19:09:01Z</time>
  <course>33.59</course>
  <speed>0.03</speed>
  <fix>3d</fix>
</trkpt>
<trkpt lat="40.0728423" lon="-105.2305755">
  <ele>1593.69</ele>
  <time>2026-08-28T19:09:01Z</time>
  <course>17.66</course>
  <speed>0.03</speed>
  <fix>3d</fix>
</trkpt>
<trkpt lat="40.0728424" lon="-105.2305756">
  <ele>1593.67</ele>
  <time>2026-08-28T19:09:01Z</time>
  <course>40.31</course>
  <speed>0.02</speed>
  <fix>3d</fix>
</trkpt>
<trkpt lat="40.0728423" lon="-105.2305754">
  <ele>1593.59</ele>
  <time>2026-08-28T19:09:01Z</time>
  <course>17.67</course>
  <speed>0.03</speed>
  <fix>3d</fix>
</trkpt>
<trkpt lat="40.0728425" lon="-105.2305756">
  <ele>1593.58</ele>
  <time>2026-08-28T19:09:01Z</time>
  <course>47.01</course>
  <speed>0.02</speed>
  <fix>3d</fix>
</trkpt>
<trkpt lat="40.0728423" lon="-105.2305754">
  <ele>1593.49</ele>
  <time>2026-08-28T19:09:01Z</time>
  <course>17.68</course>
  <speed>0.0316227766016838</speed>
  <fix>3d</fix>
</trkpt>
<trkpt lat="40.0728425" lon="-105.2305756">
  <ele>1593.48</ele>
  <time>2026-08-28T19:09:01Z</time>
  <course>54.38</course>
  <speed>0.02</speed>
  <fix>3d</fix>
</trkpt>
<trkpt lat="40.0728423" lon="-105.2305753">
  <ele>1593.39</ele>
  <time>2026-08-28T19:09:01Z</time>
  <course>17.69</course>
  <speed>0.0316227766016838</speed>
  <fix>3d</fix>
</trkpt>
<trkpt lat="40.0728425" lon="-105.2305756">
  <ele>1593.38</ele>
  <time>2026-08-28T19:09:01Z</time>
  <course>62.68</course>
  <speed>0.02</speed>
  <fix>3d</fix>
</trkpt>
<trkpt lat="40.0728423" lon="-105.2305753">
  <ele>1593.29</ele>
  <time>2026-08-28T19:09:01Z</time>
  <course>17.69</course>
  <speed>0.03605551275463989</speed>
  <fix>3d</fix>
</trkpt>
<trkpt lat="40.0728426" lon="-105.2305755">
  <ele>1593.28</ele>
  <time>2026-08-28T19:09:01Z</time>
  <course>72.27</course>
  <speed>0.01</speed>
  <fix>3d</fix>
</trkpt>
<trkpt lat="40.0728423" lon="-105.2305753">
  <ele>1593.19</ele>
  <time>2026-08-28T19:09:01Z</time>
  <course>17.7</course>
  <speed>0.03605551275463989</speed>
  <fix>3d</fix>
</trkpt>
<trkpt lat="40.0728426" lon="-105.2305755">
  <ele>1593.17</ele>
  <time>2026-08-28T19:09:01Z</time>
  <course>83.82</course>
  <speed>0.01</speed>
  <fix>3d</fix>
</trkpt>
<trkpt lat="40.0728423" lon="-105.2305753">
  <ele>1593.09</ele>
  <time>2026-08-28T19:09:01Z</time>
  <course>17.73</course>
  <speed>0.03605551275463989</speed>
  <fix>3d</fix>
</trkpt>
<trkpt lat="40.0728426" lon="-105.2305754">
  <ele>1593.08</ele>
  <time>2026-08-28T19:09:01Z</time>
  <course>97.09</course>
  <speed>0.01</speed>
  <fix>3d</fix>
</trkpt>
<trkpt lat="40.0728423" lon="-105.2305752">
  <ele>1592.99</ele>
  <time>2026-08-28T19:09:01Z</time>
  <course>17.74</course>
  <speed>0.03605551275463989</speed>
  <fix>3d</fix>
</trkpt>
<trkpt lat="40.0728426" lon="-105.2305753">
  <ele>1592.98</ele>
  <time>2026-08-28T19:09:01Z</time>
  <course>111.12</course>
  <speed>0.01</speed>
  <fix>3d</fix>
</trkpt>
<trkpt lat="40.0728423" lon="-105.2305752">
  <ele>1592.89</ele>
  <time>2026-08-28T19:09:01Z</time>
  <course>17.75</course>
  <speed>0.03605551275463989</speed>
  <fix>3d</fix>
</trkpt>
<trkpt lat="40.0728426" lon="-105.2305753">
  <ele>1592.88</ele>
  <time>2026-08-28T19:09:01Z</time>
  <course>124.95</course>
  <speed>0.01</speed>
  <fix>3d</fix>
</trkpt>
<trkpt lat="40.0728423" lon="-105.2305752">
  <ele>1592.79</ele>
  <time>2026-08-28T19:09:01Z</time>
  <course>17.76</course>
  <speed>0.03605551275463989</speed>
  <fix>3d</fix>
</trkpt>
<trkpt lat="40.0728426" lon="-105.2305753">
  <ele>1592.79</ele>
  <time>2026-08-28T19:09:01Z</time>
  <course>137.69</course>
  <speed>0.01</speed>
  <fix>3d</fix>
</trkpt>
<trkpt lat="40.0728423" lon="-105.2305752">
  <ele>1592.69</ele>
  <time>2026-08-28T19:09:01Z</time>
  <course>17.76</course>
  <speed>0.03605551275463989</speed>
  <fix>3d</fix>
</trkpt>
<trkpt lat="40.0728426" lon="-105.2305753">
  <ele>1592.69</ele>
  <time>2026-08-28T19:09:01Z</time>
  <course>149.31</course>
  <speed>0.01</speed>
  <fix>3d</fix>
</trkpt>
<trkpt lat="40.0728423" lon="-105.2305751">
  <ele>1592.59</ele>
  <time>2026-08-28T19:09:01Z</time>
  <course>17.76</course>
  <speed>0.03605551275463989</speed>
  <fix>3d</fix>
</trkpt>
<trkpt lat="40.0728426" lon="-105.2305753">
  <ele>1592.59</ele>
  <time>2026-08-28T19:09:01Z</time>
  <course>159.56</course>
  <speed>0.01</speed>
  <fix>3d</fix>
</trkpt>
<trkpt lat="40.0728423" lon="-105.2305751">
  <ele>1592.48</ele>
  <time>2026-08-28T19:09:01Z</time>
  <course>17.76</course>
  <speed>0.0316227766016838</speed>
  <fix>3d</fix>
</trkpt>
<trkpt lat="40.0728425" lon="-105.2305753">
  <ele>1592.49</ele>
  <time>2026-08-28T19:09:01Z</time>
  <course>168.24</course>
  <speed>0.01</speed>
  <fix>3d</fix>
</trkpt>
<trkpt lat="40.0728423" lon="-105.2305751">
  <ele>1592.38</ele>
  <time>2026-08-28T19:09:01Z</time>
  <course>17.76</course>
  <speed>0.0316227766016838</speed>
  <fix>3d</fix>
</trkpt>
<trkpt lat="40.0728425" lon="-105.2305753">
  <ele>1592.38</ele>
  <time>2026-08-28T19:09:01Z</time>
  <course>174.58</course>
  <speed>0.01</speed>
  <fix>3d</fix>
</trkpt>
<trkpt lat="40.0728423" lon="-105.2305751">
  <ele>1592.29</ele>
  <time>2026-08-28T19:09:01Z</time>
  <course>17.77</course>
  <speed>0.0316227766016838</speed>
  <fix>3d</fix>
</trkpt>
<trkpt lat="40.0728425" lon="-105.2305753">
  <ele>1592.29</ele>
  <time>2026-08-28T19:09:01Z</time>
  <course>179.45</course>
  <speed>0.01</speed>
  <fix>3d</fix>
</trkpt>
<trkpt lat="40.0728423" lon="-105.2305751">
  <ele>1592.19</ele>
  <time>2026-08-28T19:09:01Z</time>
  <course>17.78</course>
  <speed>0.0316227766016838</speed>
  <fix>3d</fix>
</trkpt>
<trkpt lat="40.0728424" lon="-105.2305753">
  <ele>1592.19</ele>
  <time>2026-08-28T19:09:01Z</time>
  <course>183.34</course>
  <speed>0.01</speed>
  <fix>3d</fix>
</trkpt>
<trkpt lat="40.0728423" lon="-105.2305751">
  <ele>1592.09</ele>
  <time>2026-08-28T19:09:01Z</time>
  <course>17.79</course>
  <speed>0.0316227766016838</speed>
  <fix>3d</fix>
</trkpt>
<trkpt lat="40.0728424" lon="-105.2305753">
  <ele>1592.09</ele>
  <time>2026-08-28T19:09:01Z</time>
  <course>186.56</course>
  <speed>0.01</speed>
  <fix>3d</fix>
</trkpt>
<trkpt lat="40.0728422" lon="-105.2305751">
  <ele>1591.99</ele>
  <time>2026-08-28T19:09:01Z</time>
  <course>17.8</course>
  <speed>0.0316227766016838</speed>
  <fix>3d</fix>
</trkpt>
<trkpt lat="40.0728424" lon="-105.2305753">
  <ele>1592.0</ele>
  <time>2026-08-28T19:09:01Z</time>
  <course>189.83</course>
  <speed>0.01</speed>
  <fix>3d</fix>
</trkpt>
<trkpt lat="40.0728422" lon="-105.2305751">
  <ele>1591.89</ele>
  <time>2026-08-28T19:09:01Z</time>
  <course>17.82</course>
  <speed>0.0316227766016838</speed>
  <fix>3d</fix>
</trkpt>
<trkpt lat="40.0728423" lon="-105.2305753">
  <ele>1591.89</ele>
  <time>2026-08-28T19:09:01Z</time>
  <course>192.61</course>
  <speed>0.01</speed>
  <fix>3d</fix>
</trkpt>
<trkpt lat="40.0728422" lon="-105.2305751">
  <ele>1591.79</ele>
  <time>2026-08-28T19:09:01Z</time>
  <course>17.83</course>
  <speed>0.0316227766016838</speed>
  <fix>3d</fix>
</trkpt>
<trkpt lat="40.0728423" lon="-105.2305753">
  <ele>1591.8</ele>
  <time>2026-08-28T19:09:01Z</time>
  <course>195.64</course>
  <speed>0.01</speed>
  <fix>3d</fix>
</trkpt>
<trkpt lat="40.0728422" lon="-105.2305751">
  <ele>1591.69</ele>
  <time>2026-08-28T19:09:01Z</time>
  <course>17.83</course>
  <speed>0.022360679774997897</speed>
  <fix>3d</fix>
</trkpt>
<trkpt lat="40.0728423" lon="-105.2305753">
  <ele>1591.7</ele>
  <time>2026-08-28T19:09:01Z</time>
  <course>199.56</course>
  <speed>0.01</speed>
  <fix>3d</fix>
</trkpt>
<trkpt lat="40.0728422" lon="-105.2305751">
  <ele>1591.59</ele>
  <time>2026-08-28T19:09:01Z</time>
  <course>17.83</course>
  <speed>0.022360679774997897</speed>
  <fix>3d</fix>
</trkpt>
<trkpt lat="40.0728423" lon="-105.2305753">
  <ele>1591.6</ele>
  <time>2026-08-28T19:09:01Z</time>
  <course>204.33</course>
  <speed>0.01</speed>
  <fix>3d</fix>
</trkpt>
<trkpt lat="40.0728421" lon="-105.2305751">
  <ele>1591.49</ele>
  <time>2026-08-28T19:09:01Z</time>
  <course>17.82</course>
  <speed>0.022360679774997897</speed>
  <fix>3d</fix>
</trkpt>
<trkpt lat="40.0728423" lon="-105.2305753">
  <ele>1591.5</ele>
  <time>2026-08-28T19:09:01Z</time>
  <course>210.79</course>
  <speed>0.0</speed>
  <fix>3d</fix>
</trkpt>
<trkpt lat="40.0728421" lon="-105.2305751">
  <ele>1591.39</ele>
  <time>2026-08-28T19:09:01Z</time>
  <course>17.84</course>
  <speed>0.022360679774997897</speed>
  <fix>3d</fix>
</trkpt>
<trkpt lat="40.0728423" lon="-105.2305753">
  <ele>1591.39</ele>
  <time>2026-08-28T19:09:01Z</time>
  <course>220.62</course>
  <speed>0.0</speed>
  <fix>3d</fix>
</trkpt>
<trkpt lat="40.0728421" lon="-105.2305751">
  <ele>1591.29</ele>
  <time>2026-08-28T19:09:01Z</time>
  <course>17.85</course>
  <speed>0.022360679774997897</speed>
  <fix>3d</fix>
</trkpt>
<trkpt lat="40.0728422" lon="-105.2305753">
  <ele>1591.3</ele>
  <time>2026-08-28T19:09:01Z</time>
  <course>232.86</course>
  <speed>0.0</speed>
  <fix>3d</fix>
</trkpt>
<trkpt lat="40.0728421" lon="-105.2305751">
  <ele>1591.19</ele>
  <time>2026-08-28T19:09:01Z</time>
  <course>17.86</course>
  <speed>0.01414213562373095</speed>
  <fix>3d</fix>
</trkpt>
<trkpt lat="40.0728421" lon="-105.2305753">
  <ele>1591.21</ele>
  <time>2026-08-28T19:09:01Z</time>
  <course>247.55</course>
  <speed>0.0</speed>
  <fix>3d</fix>
</trkpt>
<trkpt lat="40.0728421" lon="-105.2305751">
  <ele>1591.09</ele>
  <time>2026-08-28T19:09:01Z</time>
  <course>17.87</course>
  <speed>0.01414213562373095</speed>
  <fix>3d</fix>
</trkpt>
<trkpt lat="40.0728421" lon="-105.2305753">
  <ele>1591.11</ele>
  <time>2026-08-28T19:09:01Z</time>
  <course>263.67</course>
  <speed>0.0</speed>
  <fix>3d</fix>
</trkpt>
<trkpt lat="40.0728421" lon="-105.2305751">
  <ele>1590.99</ele>
  <time>2026-08-28T19:09:01Z</time>
  <course>17.88</course>
  <speed>0.01414213562373095</speed>
  <fix>3d</fix>
</trkpt>
<trkpt lat="40.0728421" lon="-105.2305753">
  <ele>1591.01</ele>
  <time>2026-08-28T19:09:01Z</time>
  <course>281.95</course>
  <speed>0.0</speed>
  <fix>3d</fix>
</trkpt>
<trkpt lat="40.0728421" lon="-105.2305751">
  <ele>1590.9</ele>
  <time>2026-08-28T19:09:01Z</time>
  <course>17.88</course>
  <speed>0.01414213562373095</speed>
  <fix>3d</fix>
</trkpt>
<trkpt lat="40.0728421" lon="-105.2305753">
  <ele>1590.9</ele>
  <time>2026-08-28T19:09:01Z</time>
  <course>303.4</course>
  <speed>0.0</speed>
  <fix>3d</fix>
</trkpt>
<trkpt lat="40.0728421" lon="-105.2305751">
  <ele>1590.8</ele>
  <time>2026-08-28T19:09:01Z</time>
  <course>17.89</course>
  <speed>0.01414213562373095</speed>
  <fix>3d</fix>
</trkpt>
<trkpt lat="40.0728421" lon="-105.2305753">
  <ele>1590.81</ele>
  <time>2026-08-28T19:09:01Z</time>
  <course>319.81</course>
  <speed>0.0</speed>
  <fix>3d</fix>
</trkpt>
<trkpt lat="40.0728421" lon="-105.2305751">
  <ele>1590.7</ele>
  <time>2026-08-28T19:09:01Z</time>
  <course>17.89</course>
  <speed>0.01414213562373095</speed>
  <fix>3d</fix>
</trkpt>
<trkpt lat="40.0728421" lon="-105.2305753">
  <ele>1590.71</ele>
  <time>2026-08-28T19:09:01Z</time>
  <course>329.43</course>
  <speed>0.0</speed>
  <fix>3d</fix>
</trkpt>
<trkpt lat="40.0728421" lon="-105.2305752">
  <ele>1590.59</ele>
  <time>2026-08-28T19:09:01Z</time>
  <course>17.9</course>
  <speed>0.01414213562373095</speed>
  <fix>3d</fix>
</trkpt>
<trkpt lat="40.0728421" lon="-105.2305753">
  <ele>1590.61</ele>
  <time>2026-08-28T19:09:01Z</time>
  <course>336.14</course>
  <speed>0.0</speed>
  <fix>3d</fix>
</trkpt>
<trkpt lat="40.0728421" lon="-105.2305752">
  <ele>1590.49</ele>
  <time>2026-08-28T19:09:01Z</time>
  <course>17.9</course>
  <speed>0.01414213562373095</speed>
  <fix>3d</fix>
</trkpt>
<trkpt lat="40.0728421" lon="-105.2305753">
  <ele>1590.51</ele>
  <time>2026-08-28T19:09:01Z</time>
  <course>340.43</course>
  <speed>0.01</speed>
  <fix>3d</fix>
</trkpt>
<trkpt lat="40.0728421" lon="-105.2305752">
  <ele>1590.39</ele>
  <time>2026-08-28T19:09:01Z</time>
  <course>17.9</course>
  <speed>0.01</speed>
  <fix>3d</fix>
</trkpt>
<trkpt lat="40.0728421" lon="-105.2305753">
  <ele>1590.4</ele>
  <time>2026-08-28T19:09:01Z</time>
  <course>343.24</course>
  <speed>0.01</speed>
  <fix>3d</fix>
</trkpt>
<trkpt lat="40.0728421" lon="-105.2305752">
  <ele>1590.29</ele>
  <time>2026-08-28T19:09:01Z</time>
  <course>17.9</course>
  <speed>0.01</speed>
  <fix>3d</fix>
</trkpt>
<trkpt lat="40.0728422" lon="-105.2305753">
  <ele>1590.31</ele>
  <time>2026-08-28T19:09:01Z</time>
  <course>344.36</course>
  <speed>0.01</speed>
  <fix>3d</fix>
</trkpt>
<trkpt lat="40.0728421" lon="-105.2305752">
  <ele>1590.19</ele>
  <time>2026-08-28T19:09:01Z</time>
  <course>17.9</course>
  <speed>0.01</speed>
  <fix>3d</fix>
</trkpt>
<trkpt lat="40.0728423" lon="-105.2305753">
  <ele>1590.21</ele>
  <time>2026-08-28T19:09:01Z</time>
  <course>344.79</course>
  <speed>0.01</speed>
  <fix>3d</fix>
</trkpt>
<trkpt lat="40.0728421" lon="-105.2305752">
  <ele>1590.09</ele>
  <time>2026-08-28T19:09:01Z</time>
  <course>17.91</course>
  <speed>0.01</speed>
  <fix>3d</fix>
</trkpt>
<trkpt lat="40.0728423" lon="-105.2305753">
  <ele>1590.11</ele>
  <time>2026-08-28T19:09:01Z</time>
  <course>345.3</course>
  <speed>0.01</speed>
  <fix>3d</fix>
</trkpt>
<trkpt lat="40.0728421" lon="-105.2305752">
  <ele>1589.99</ele>
  <time>2026-08-28T19:09:01Z</time>
  <course>17.92</course>
  <speed>0.01</speed>
  <fix>3d</fix>
</trkpt>
<trkpt lat="40.0728423" lon="-105.2305753">
  <ele>1590.01</ele>
  <time>2026-08-28T19:09:01Z</time>
  <course>345.09</course>
  <speed>0.01</speed>
  <fix>3d</fix>
</trkpt>
<trkpt lat="40.0728421" lon="-105.2305752">
  <ele>1589.89</ele>
  <time>2026-08-28T19:09:01Z</time>
  <course>17.93</course>
  <speed>0.01414213562373095</speed>
  <fix>3d</fix>
</trkpt>
<trkpt lat="40.0728423" lon="-105.2305753">
  <ele>1589.9</ele>
  <time>2026-08-28T19:09:01Z</time>
  <course>343.43</course>
  <speed>0.01</speed>
  <fix>3d</fix>
</trkpt>
<trkpt lat="40.0728422" lon="-105.2305752">
  <ele>1589.8</ele>
  <time>2026-08-28T19:09:01Z</time>
  <course>17.94</course>
  <speed>0.01414213562373095</speed>
  <fix>3d</fix>
</trkpt>
<trkpt lat="40.0728424" lon="-105.2305753">
  <ele>1589.81</ele>
  <time>2026-08-28T19:09:01Z</time>
  <course>340.25</course>
  <speed>0.01</speed>
  <fix>3d</fix>
</trkpt>
<trkpt lat="40.0728422" lon="-105.2305752">
  <ele>1589.7</ele>
  <time>2026-08-28T19:09:01Z</time>
  <course>17.95</course>
  <speed>0.01414213562373095</speed>
  <fix>3d</fix>
</trkpt>
<trkpt lat="40.0728424" lon="-105.2305753">
  <ele>1589.71</ele>
  <time>2026-08-28T19:09:01Z</time>
  <course>336.65</course>
  <speed>0.01</speed>
  <fix>3d</fix>
</trkpt>
<trkpt lat="40.0728422" lon="-105.2305752">
  <ele>1589.6</ele>
  <time>2026-08-28T19:09:01Z</time>
  <course>17.95</course>
  <speed>0.01414213562373095</speed>
  <fix>3d</fix>
</trkpt>
<trkpt lat="40.0728424" lon="-105.2305754">
  <ele>1589.61</ele>
  <time>2026-08-28T19:09:01Z</time>
  <course>333.11</course>
  <speed>0.01</speed>
  <fix>3d</fix>
</trkpt>
<trkpt lat="40.0728422" lon="-105.2305752">
  <ele>1589.5</ele>
  <time>2026-08-28T19:09:01Z</time>
  <course>17.96</course>
  <speed>0.01414213562373095</speed>
  <fix>3d</fix>
</trkpt>
<trkpt lat="40.0728424" lon="-105.2305755">
  <ele>1589.52</ele>
  <time>2026-08-28T19:09:01Z</time>
  <course>328.35</course>
  <speed>0.0</speed>
  <fix>3d</fix>
</trkpt>
<trkpt lat="40.0728422" lon="-105.2305752">
  <ele>1589.4</ele>
  <time>2026-08-28T19:09:01Z</time>
  <course>17.96</course>
  <speed>0.01414213562373095</speed>
  <fix>3d</fix>
</trkpt>
<trkpt lat="40.0728424" lon="-105.2305755">
  <ele>1589.41</ele>
  <time>2026-08-28T19:09:01Z</time>
  <course>320.51</course>
  <speed>0.0</speed>
  <fix>3d</fix>
</trkpt>
<trkpt lat="40.0728422" lon="-105.2305752">
  <ele>1589.3</ele>
  <time>2026-08-28T19:09:01Z</time>
  <course>17.96</course>
  <speed>0.022360679774997897</speed>
  <fix>3d</fix>
</trkpt>
<trkpt lat="40.0728424" lon="-105.2305755">
  <ele>1589.31</ele>
  <time>2026-08-28T19:09:01Z</time>
  <course>307.95</course>
  <speed>0.0</speed>
  <fix>3d</fix>
</trkpt>
<trkpt lat="40.0728422" lon="-105.2305752">
  <ele>1589.2</ele>
  <time>2026-08-28T19:09:01Z</time>
  <course>17.96</course>
  <speed>0.022360679774997897</speed>
  <fix>3d</fix>
</trkpt>
<trkpt lat="40.0728424" lon="-105.2305755">
  <ele>1589.21</ele>
  <time>2026-08-28T19:09:01Z</time>
  <course>287.42</course>
  <speed>0.0</speed>
  <fix>3d</fix>
</trkpt>
<trkpt lat="40.0728422" lon="-105.2305753">
  <ele>1589.1</ele>
  <time>2026-08-28T19:09:01Z</time>
  <course>17.97</course>
  <speed>0.022360679774997897</speed>
  <fix>3d</fix>
</trkpt>
<trkpt lat="40.0728424" lon="-105.2305755">
  <ele>1589.11</ele>
  <time>2026-08-28T19:09:01Z</time>
  <course>242.21</course>
  <speed>0.0</speed>
  <fix>3d</fix>
</trkpt>
<trkpt lat="40.0728422" lon="-105.2305753">
  <ele>1589.0</ele>
  <time>2026-08-28T19:09:01Z</time>
  <course>17.98</course>
  <speed>0.022360679774997897</speed>
  <fix>3d</fix>
</trkpt>
<trkpt lat="40.0728424" lon="-105.2305755">
  <ele>1589.01</ele>
  <time>2026-08-28T19:09:01Z</time>
  <course>183.63</course>
  <speed>0.0</speed>
  <fix>3d</fix>
</trkpt>
<trkpt lat="40.0728422" lon="-105.2305753">
  <ele>1588.9</ele>
  <time>2026-08-28T19:09:01Z</time>
  <course>17.98</course>
  <speed>0.022360679774997897</speed>
  <fix>3d</fix>
</trkpt>
<trkpt lat="40.0728424" lon="-105.2305755">
  <ele>1588.9</ele>
  <time>2026-08-28T19:09:01Z</time>
  <course>158.8</course>
  <speed>0.0</speed>
  <fix>3d</fix>
</trkpt>
<trkpt lat="40.0728422" lon="-105.2305753">
  <ele>1588.8</ele>
  <time>2026-08-28T19:09:01Z</time>
  <course>17.98</course>
  <speed>0.022360679774997897</speed>
  <fix>3d</fix>
</trkpt>
<trkpt lat="40.0728424" lon="-105.2305755">
  <ele>1588.81</ele>
  <time>2026-08-28T19:09:01Z</time>
  <course>151.18</course>
  <speed>0.0</speed>
  <fix>3d</fix>
</trkpt>
<trkpt lat="40.0728422" lon="-105.2305753">
  <ele>1588.69</ele>
  <time>2026-08-28T19:09:01Z</time>
  <course>17.98</course>
  <speed>0.022360679774997897</speed>
  <fix>3d</fix>
</trkpt>
<trkpt lat="40.0728424" lon="-105.2305755">
  <ele>1588.71</ele>
  <time>2026-08-28T19:09:01Z</time>
  <course>146.46</course>
  <speed>0.0</speed>
  <fix>3d</fix>
</trkpt>
<trkpt lat="40.0728422" lon="-105.2305753">
  <ele>1588.59</ele>
  <time>2026-08-28T19:09:01Z</time>
  <course>17.99</course>
  <speed>0.022360679774997897</speed>
  <fix>3d</fix>
</trkpt>
<trkpt lat="40.0728424" lon="-105.2305755">
  <ele>1588.61</ele>
  <time>2026-08-28T19:09:01Z</time>
  <course>142.39</course>
  <speed>0.0</speed>
  <fix>3d</fix>
</trkpt>
<trkpt lat="40.0728422" lon="-105.2305753">
  <ele>1588.49</ele>
  <time>2026-08-28T19:09:01Z</time>
  <course>17.99</course>
  <speed>0.0282842712474619</speed>
  <fix>3d</fix>
</trkpt>
<trkpt lat="40.0728424" lon="-105.2305755">
  <ele>1588.51</ele>
  <time>2026-08-28T19:09:01Z</time>
  <course>140.05</course>
  <speed>0.0</speed>
  <fix>3d</fix>
</trkpt>
<trkpt lat="40.0728422" lon="-105.2305753">
  <ele>1588.4</ele>
  <time>2026-08-28T19:09:01Z</time>
  <course>17.99</course>
  <speed>0.0282842712474619</speed>
  <fix>3d</fix>
</trkpt>
<trkpt lat="40.0728424" lon="-105.2305755">
  <ele>1588.4</ele>
  <time>2026-08-28T19:09:01Z</time>
  <course>138.79</course>
  <speed>0.0</speed>
  <fix>3d</fix>
</trkpt>
<trkpt lat="40.0728422" lon="-105.2305753">
  <ele>1588.3</ele>
  <time>2026-08-28T19:09:01Z</time>
  <course>17.99</course>
  <speed>0.0282842712474619</speed>
  <fix>3d</fix>
</trkpt>
<trkpt lat="40.0728424" lon="-105.2305755">
  <ele>1588.31</ele>
  <time>2026-08-28T19:09:01Z</time>
  <course>137.25</course>
  <speed>0.0</speed>
  <fix>3d</fix>
</trkpt>
<trkpt lat="40.0728422" lon="-105.2305753">
  <ele>1588.19</ele>
  <time>2026-08-28T19:09:02Z</time>
  <course>18.0</course>
  <speed>0.0282842712474619</speed>
  <fix>3d</fix>
</trkpt>
<trkpt lat="40.0728424" lon="-105.2305755">
  <ele>1588.21</ele>
  <time>2026-08-28T19:09:02Z</time>
  <course>135.19</course>
  <speed>0.0</speed>
  <fix>3d</fix>
</trkpt>
<trkpt lat="40.0728422" lon="-105.2305753">
  <ele>1588.09</ele>
  <time>2026-08-28T19:09:02Z</time>
  <course>18.0</course>
  <speed>0.0282842712474619</speed>
  <fix>3d</fix>
</trkpt>
<trkpt lat="40.0728424" lon="-105.2305755">
  <ele>1588.11</ele>
  <time>2026-08-28T19:09:02Z</time>
  <course>133.88</course>
  <speed>0.0</speed>
  <fix>3d</fix>
</trkpt>
<trkpt lat="40.0728422" lon="-105.2305753">
  <ele>1587.99</ele>
  <time>2026-08-28T19:09:02Z</time>
  <course>17.99</course>
  <speed>0.0282842712474619</speed>
  <fix>3d</fix>
</trkpt>
<trkpt lat="40.0728424" lon="-105.2305755">
  <ele>1588.01</ele>
  <time>2026-08-28T19:09:02Z</time>
  <course>132.66</course>
  <speed>0.0</speed>
  <fix>3d</fix>
</trkpt>
<trkpt lat="40.0728422" lon="-105.2305753">
  <ele>1587.89</ele>
  <time>2026-08-28T19:09:02Z</time>
  <course>17.99</course>
  <speed>0.0282842712474619</speed>
  <fix>3d</fix>
</trkpt>
<trkpt lat="40.0728424" lon="-105.2305755">
  <ele>1587.9</ele>
  <time>2026-08-28T19:09:02Z</time>
  <course>131.23</course>
  <speed>0.0</speed>
  <fix>3d</fix>
</trkpt>
<trkpt lat="40.0728422" lon="-105.2305753">
  <ele>1587.79</ele>
  <time>2026-08-28T19:09:02Z</time>
  <course>17.99</course>
  <speed>0.0282842712474619</speed>
  <fix>3d</fix>
</trkpt>
<trkpt lat="40.0728424" lon="-105.2305755">
  <ele>1587.81</ele>
  <time>2026-08-28T19:09:02Z</time>
  <course>130.3</course>
  <speed>0.0</speed>
  <fix>3d</fix>
</trkpt>
<trkpt lat="40.0728422" lon="-105.2305753">
  <ele>1587.69</ele>
  <time>2026-08-28T19:09:02Z</time>
  <course>18.0</course>
  <speed>0.0282842712474619</speed>
  <fix>3d</fix>
</trkpt>
<trkpt lat="40.0728424" lon="-105.2305755">
  <ele>1587.71</ele>
  <time>2026-08-28T19:09:02Z</time>
  <course>129.91</course>
  <speed>0.0</speed>
  <fix>3d</fix>
</trkpt>
<trkpt lat="40.0728422" lon="-105.2305753">
  <ele>1587.59</ele>
  <time>2026-08-28T19:09:02Z</time>
  <course>18.0</course>
  <speed>0.0282842712474619</speed>
  <fix>3d</fix>
</trkpt>
<trkpt lat="40.0728424" lon="-105.2305754">
  <ele>1587.61</ele>
  <time>2026-08-28T19:09:02Z</time>
  <course>129.97</course>
  <speed>0.0</speed>
  <fix>3d</fix>
</trkpt>
<trkpt lat="40.0728422" lon="-105.2305753">
  <ele>1587.49</ele>
  <time>2026-08-28T19:09:02Z</time>
  <course>18.0</course>
  <speed>0.0282842712474619</speed>
  <fix>3d</fix>
</trkpt>
<trkpt lat="40.0728424" lon="-105.2305753">
  <ele>1587.51</ele>
  <time>2026-08-28T19:09:02Z</time>
  <course>129.18</course>
  <speed>0.0</speed>
  <fix>3d</fix>
</trkpt>
<trkpt lat="40.0728422" lon="-105.2305753">
  <ele>1587.39</ele>
  <time>2026-08-28T19:09:02Z</time>
  <course>18.01</course>
  <speed>0.0282842712474619</speed>
  <fix>3d</fix>
</trkpt>
<trkpt lat="40.0728424" lon="-105.2305753">
  <ele>1587.41</ele>
  <time>2026-08-28T19:09:02Z</time>
  <course>129.24</course>
  <speed>0.0</speed>
  <fix>3d</fix>
</trkpt>
<trkpt lat="40.0728422" lon="-105.2305752">
  <ele>1587.29</ele>
  <time>2026-08-28T19:09:02Z</time>
  <course>18.02</course>
  <speed>0.0282842712474619</speed>
  <fix>3d</fix>
</trkpt>
<trkpt lat="40.0728424" lon="-105.2305753">
  <ele>1587.32</ele>
  <time>2026-08-28T19:09:02Z</time>
  <course>131.17</course>
  <speed>0.0</speed>
  <fix>3d</fix>
</trkpt>
<trkpt lat="40.0728422" lon="-105.2305752">
  <ele>1587.19</ele>
  <time>2026-08-28T19:09:02Z</time>
  <course>18.03</course>
  <speed>0.022360679774997897</speed>
  <fix>3d</fix>
</trkpt>
<trkpt lat="40.0728424" lon="-105.2305753">
  <ele>1587.22</ele>
  <time>2026-08-28T19:09:02Z</time>
  <course>133.98</course>
  <speed>0.0</speed>
  <fix>3d</fix>
</trkpt>
<trkpt lat="40.0728422" lon="-105.2305752">
  <ele>1587.09</ele>
  <time>2026-08-28T19:09:02Z</time>
  <course>18.03</course>
  <speed>0.022360679774997897</speed>
  <fix>3d</fix>
</trkpt>
<trkpt lat="40.0728424" lon="-105.2305753">
  <ele>1587.12</ele>
  <time>2026-08-28T19:09:02Z</time>
  <course>139.03</course>
  <speed>0.0</speed>
  <fix>3d</fix>
</trkpt>
<trkpt lat="40.0728422" lon="-105.2305752">
  <ele>1586.99</ele>
  <time>2026-08-28T19:09:02Z</time>
  <course>18.04</course>
  <speed>0.022360679774997897</speed>
  <fix>3d</fix>
</trkpt>
<trkpt lat="40.0728424" lon="-105.2305753">
  <ele>1587.02</ele>
  <time>2026-08-28T19:09:02Z</time>
  <course>147.15</course>
  <speed>0.0</speed>
  <fix>3d</fix>
</trkpt>
<trkpt lat="40.0728422" lon="-105.2305752">
  <ele>1586.89</ele>
  <time>2026-08-28T19:09:02Z</time>
  <course>18.04</course>
  <speed>0.022360679774997897</speed>
  <fix>3d</fix>
</trkpt>
<trkpt lat="40.0728423" lon="-105.2305753">
  <ele>1586.91</ele>
  <time>2026-08-28T19:09:02Z</time>
  <course>157.4</course>
  <speed>0.0</speed>
  <fix>3d</fix>
</trkpt>
<trkpt lat="40.0728422" lon="-105.2305752">
  <ele>1586.79</ele>
  <time>2026-08-28T19:09:02Z</time>
  <course>18.04</course>
  <speed>0.022360679774997897</speed>
  <fix>3d</fix>
</trkpt>
<trkpt lat="40.0728423" lon="-105.2305753">
  <ele>1586.82</ele>
  <time>2026-08-28T19:09:02Z</time>
  <course>168.06</course>
  <speed>0.0</speed>
  <fix>3d</fix>
</trkpt>
<trkpt lat="40.0728422" lon="-105.2305752">
  <ele>1586.69</ele>
  <time>2026-08-28T19:09:02Z</time>
  <course>18.04</course>
  <speed>0.022360679774997897</speed>
  <fix>3d</fix>
</trkpt>
<trkpt lat="40.0728423" lon="-105.2305753">
  <ele>1586.72</ele>
  <time>2026-08-28T19:09:02Z</time>
  <course>177.91</course>
  <speed>0.0</speed>
  <fix>3d</fix>
</trkpt>
<trkpt lat="40.0728422" lon="-105.2305752">
  <ele>1586.6</ele>
  <time>2026-08-28T19:09:02Z</time>
  <course>18.05</course>
  <speed>0.022360679774997897</speed>
  <fix>3d</fix>
</trkpt>
<trkpt lat="40.0728423" lon="-105.2305753">
  <ele>1586.62</ele>
  <time>2026-08-28T19:09:02Z</time>
  <course>186.12</course>
  <speed>0.0</speed>
  <fix>3d</fix>
</trkpt>
<trkpt lat="40.0728422" lon="-105.2305752">
  <ele>1586.49</ele>
  <time>2026-08-28T19:09:02Z</time>
  <course>18.05</course>
  <speed>0.022360679774997897</speed>
  <fix>3d</fix>
</trkpt>
<trkpt lat="40.0728423" lon="-105.2305753">
  <ele>1586.52</ele>
  <time>2026-08-28T19:09:02Z</time>
  <course>193.31</course>
  <speed>0.0</speed>
  <fix>3d</fix>
</trkpt>
<trkpt lat="40.0728422" lon="-105.2305752">
  <ele>1586.39</ele>
  <time>2026-08-28T19:09:02Z</time>
  <course>18.05</course>
  <speed>0.022360679774997897</speed>
  <fix>3d</fix>
</trkpt>
<trkpt lat="40.0728423" lon="-105.2305753">
  <ele>1586.41</ele>
  <time>2026-08-28T19:09:02Z</time>
  <course>201.03</course>
  <speed>0.0</speed>
  <fix>3d</fix>
</trkpt>
<trkpt lat="40.0728422" lon="-105.2305752">
  <ele>1586.29</ele>
  <time>2026-08-28T19:09:02Z</time>
  <course>18.04</course>
  <speed>0.022360679774997897</speed>
  <fix>3d</fix>
</trkpt>
<trkpt lat="40.0728423" lon="-105.2305753">
  <ele>1586.32</ele>
  <time>2026-08-28T19:09:02Z</time>
  <course>212.22</course>
  <speed>0.0</speed>
  <fix>3d</fix>
</trkpt>
<trkpt lat="40.0728422" lon="-105.2305752">
  <ele>1586.19</ele>
  <time>2026-08-28T19:09:02Z</time>
  <course>18.04</course>
  <speed>0.01414213562373095</speed>
  <fix>3d</fix>
</trkpt>
<trkpt lat="40.0728423" lon="-105.2305753">
  <ele>1586.22</ele>
  <time>2026-08-28T19:09:02Z</time>
  <course>229.15</course>
  <speed>0.0</speed>
  <fix>3d</fix>
</trkpt>
<trkpt lat="40.0728422" lon="-105.2305752">
  <ele>1586.12</ele>
  <time>2026-08-28T19:09:02Z</time>
  <course>18.05</course>
  <speed>0.01</speed>
  <fix>3d</fix>
</trkpt>
<trkpt lat="40.0728423" lon="-105.2305753">
  <ele>1586.12</ele>
  <time>2026-08-28T19:09:02Z</time>
  <course>279.16</course>
  <speed>0.01</speed>
  <fix>3d</fix>
</trkpt>
<trkpt lat="40.0728422" lon="-105.2305752">
  <ele>1586.15</ele>
  <time>2026-08-28T19:09:02Z</time>
  <course>18.09</course>
  <speed>0.01414213562373095</speed>
  <fix>3d</fix>
</trkpt>
<trkpt lat="40.0728423" lon="-105.2305753">
  <ele>1586.07</ele>
  <time>2026-08-28T19:09:02Z</time>
  <course>291.38</course>
  <speed>0.01</speed>
  <fix>3d</fix>
</trkpt>
<trkpt lat="40.0728422" lon="-105.2305752">
  <ele>1586.16</ele>
  <time>2026-08-28T19:09:02Z</time>
  <course>18.13</course>
  <speed>0.01414213562373095</speed>
  <fix>3d</fix>
</trkpt>
<trkpt lat="40.0728423" lon="-105.2305753">
  <ele>1586.09</ele>
  <time>2026-08-28T19:09:02Z</time>
  <course>335.86</course>
  <speed>0.0</speed>
  <fix>3d</fix>
</trkpt>
<trkpt lat="40.0728422" lon="-105.2305752">
  <ele>1586.15</ele>
  <time>2026-08-28T19:09:02Z</time>
  <course>18.17</course>
  <speed>0.01414213562373095</speed>
  <fix>3d</fix>
</trkpt>
<trkpt lat="40.0728423" lon="-105.2305753">
  <ele>1586.1</ele>
  <time>2026-08-28T19:09:02Z</time>
  <course>97.11</course>
  <speed>0.0</speed>
  <fix>3d</fix>
</trkpt>
<trkpt lat="40.0728422" lon="-105.2305752">
  <ele>1586.15</ele>
  <time>2026-08-28T19:09:02Z</time>
  <course>18.21</course>
  <speed>0.01414213562373095</speed>
  <fix>3d</fix>
</trkpt>
<trkpt lat="40.0728423" lon="-105.2305753">
  <ele>1586.09</ele>
  <time>2026-08-28T19:09:02Z</time>
  <course>139.92</course>
  <speed>0.0</speed>
  <fix>3d</fix>
</trkpt>
<trkpt lat="40.0728422" lon="-105.2305752">
  <ele>1586.15</ele>
  <time>2026-08-28T19:09:02Z</time>
  <course>18.24</course>
  <speed>0.01414213562373095</speed>
  <fix>3d</fix>
</trkpt>
<trkpt lat="40.0728423" lon="-105.2305753">
  <ele>1586.09</ele>
  <time>2026-08-28T19:09:02Z</time>
  <course>350.1</course>
  <speed>0.0</speed>
  <fix>3d</fix>
</trkpt>
<trkpt lat="40.0728422" lon="-105.2305752">
  <ele>1586.15</ele>
  <time>2026-08-28T19:09:02Z</time>
  <course>18.26</course>
  <speed>0.01414213562373095</speed>
  <fix>3d</fix>
</trkpt>
<trkpt lat="40.0728423" lon="-105.2305753">
  <ele>1586.09</ele>
  <time>2026-08-28T19:09:02Z</time>
  <course>31.75</course>
  <speed>0.0</speed>
  <fix>3d</fix>
</trkpt>
<trkpt lat="40.0728422" lon="-105.2305752">
  <ele>1586.15</ele>
  <time>2026-08-28T19:09:02Z</time>
  <course>18.29</course>
  <speed>0.01414213562373095</speed>
  <fix>3d</fix>
</trkpt>
<trkpt lat="40.0728423" lon="-105.2305753">
  <ele>1586.09</ele>
  <time>2026-08-28T19:09:02Z</time>
  <course>359.03</course>
  <speed>0.0</speed>
  <fix>3d</fix>
</trkpt>
<trkpt lat="40.0728422" lon="-105.2305752">
  <ele>1586.15</ele>
  <time>2026-08-28T19:09:02Z</time>
  <course>18.32</course>
  <speed>0.01414213562373095</speed>
  <fix>3d</fix>
</trkpt>
<trkpt lat="40.0728423" lon="-105.2305753">
  <ele>1586.09</ele>
  <time>2026-08-28T19:09:02Z</time>
  <course>347.06</course>
  <speed>0.0</speed>
  <fix>3d</fix>
</trkpt>
<trkpt lat="40.0728422" lon="-105.2305752">
  <ele>1586.15</ele>
  <time>2026-08-28T19:09:02Z</time>
  <course>18.34</course>
  <speed>0.022360679774997897</speed>
  <fix>3d</fix>
</trkpt>
<trkpt lat="40.0728423" lon="-105.2305753">
  <ele>1586.09</ele>
  <time>2026-08-28T19:09:02Z</time>
  <course>19.73</course>
  <speed>0.0</speed>
  <fix>3d</fix>
</trkpt>
<trkpt lat="40.0728422" lon="-105.2305752">
  <ele>1586.15</ele>
  <time>2026-08-28T19:09:02Z</time>
  <course>18.33</course>
  <speed>0.03605551275463989</speed>
  <fix>3d</fix>
</trkpt>
<trkpt lat="40.0728423" lon="-105.2305753">
  <ele>1586.09</ele>
  <time>2026-08-28T19:09:02Z</time>
  <course>105.94</course>
  <speed>0.01</speed>
  <fix>3d</fix>
</trkpt>
<trkpt lat="40.0728422" lon="-105.2305752">
  <ele>1586.15</ele>
  <time>2026-08-28T19:09:02Z</time>
  <course>18.28</course>
  <speed>0.022360679774997897</speed>
  <fix>3d</fix>
</trkpt>
<trkpt lat="40.0728423" lon="-105.2305753">
  <ele>1586.09</ele>
  <time>2026-08-28T19:09:02Z</time>
  <course>109.0</course>
  <speed>0.01</speed>
  <fix>3d</fix>
</trkpt>
<trkpt lat="40.0728422" lon="-105.2305752">
  <ele>1586.15</ele>
  <time>2026-08-28T19:09:02Z</time>
  <course>18.25</course>
  <speed>0.022360679774997897</speed>
  <fix>3d</fix>
</trkpt>
<trkpt lat="40.0728423" lon="-105.2305753">
  <ele>1586.09</ele>
  <time>2026-08-28T19:09:02Z</time>
  <course>241.97</course>
  <speed>0.0</speed>
  <fix>3d</fix>
</trkpt>
<trkpt lat="40.0728422" lon="-105.2305752">
  <ele>1586.15</ele>
  <time>2026-08-28T19:09:02Z</time>
  <course>18.23</course>
  <speed>0.022360679774997897</speed>
  <fix>3d</fix>
</trkpt>
<trkpt lat="40.0728423" lon="-105.2305753">
  <ele>1586.09</ele>
  <time>2026-08-28T19:09:02Z</time>
  <course>270.82</course>
  <speed>0.0</speed>
  <fix>3d</fix>
</trkpt>
<trkpt lat="40.0728422" lon="-105.2305752">
  <ele>1586.15</ele>
  <time>2026-08-28T19:09:02Z</time>
  <course>18.22</course>
  <speed>0.022360679774997897</speed>
  <fix>3d</fix>
</trkpt>
<trkpt lat="40.0728423" lon="-105.2305753">
  <ele>1586.09</ele>
  <time>2026-08-28T19:09:02Z</time>
  <course>234.1</course>
  <speed>0.0</speed>
  <fix>3d</fix>
</trkpt>
<trkpt lat="40.0728422" lon="-105.2305752">
  <ele>1586.15</ele>
  <time>2026-08-28T19:09:02Z</time>
  <course>18.22</course>
  <speed>0.022360679774997897</speed>
  <fix>3d</fix>
</trkpt>
<trkpt lat="40.0728423" lon="-105.2305753">
  <ele>1586.09</ele>
  <time>2026-08-28T19:09:02Z</time>
  <course>238.4</course>
  <speed>0.0</speed>
  <fix>3d</fix>
</trkpt>
<trkpt lat="40.0728422" lon="-105.2305752">
  <ele>1586.15</ele>
  <time>2026-08-28T19:09:02Z</time>
  <course>18.22</course>
  <speed>0.022360679774997897</speed>
  <fix>3d</fix>
</trkpt>
<trkpt lat="40.0728423" lon="-105.2305753">
  <ele>1586.09</ele>
  <time>2026-08-28T19:09:02Z</time>
  <course>249.92</course>
  <speed>0.0</speed>
  <fix>3d</fix>
</trkpt>
<trkpt lat="40.0728422" lon="-105.2305752">
  <ele>1586.15</ele>
  <time>2026-08-28T19:09:02Z</time>
  <course>18.22</course>
  <speed>0.022360679774997897</speed>
  <fix>3d</fix>
</trkpt>
<trkpt lat="40.0728423" lon="-105.2305753">
  <ele>1586.09</ele>
  <time>2026-08-28T19:09:02Z</time>
  <course>243.29</course>
  <speed>0.0</speed>
  <fix>3d</fix>
</trkpt>
<trkpt lat="40.0728422" lon="-105.2305752">
  <ele>1586.15</ele>
  <time>2026-08-28T19:09:02Z</time>
  <course>18.22</course>
  <speed>0.022360679774997897</speed>
  <fix>3d</fix>
</trkpt>
<trkpt lat="40.0728423" lon="-105.2305753">
  <ele>1586.09</ele>
  <time>2026-08-28T19:09:02Z</time>
  <course>222.77</course>
  <speed>0.0</speed>
  <fix>3d</fix>
</trkpt>
<trkpt lat="40.0728422" lon="-105.2305752">
  <ele>1586.15</ele>
  <time>2026-08-28T19:09:02Z</time>
  <course>18.22</course>
  <speed>0.022360679774997897</speed>
  <fix>3d</fix>
</trkpt>
<trkpt lat="40.0728423" lon="-105.2305753">
  <ele>1586.09</ele>
  <time>2026-08-28T19:09:02Z</time>
  <course>73.66</course>
  <speed>0.0</speed>
  <fix>3d</fix>
</trkpt>
<trkpt lat="40.0728422" lon="-105.2305752">
  <ele>1586.15</ele>
  <time>2026-08-28T19:09:02Z</time>
  <course>18.22</course>
  <speed>0.022360679774997897</speed>
  <fix>3d</fix>
</trkpt>
<trkpt lat="40.0728423" lon="-105.2305753">
  <ele>1586.09</ele>
  <time>2026-08-28T19:09:02Z</time>
  <course>352.29</course>
  <speed>0.0</speed>
  <fix>3d</fix>
</trkpt>
<trkpt lat="40.0728422" lon="-105.2305752">
  <ele>1586.15</ele>
  <time>2026-08-28T19:09:02Z</time>
  <course>18.21</course>
  <speed>0.022360679774997897</speed>
  <fix>3d</fix>
</trkpt>
<trkpt lat="40.0728423" lon="-105.2305753">
  <ele>1586.09</ele>
  <time>2026-08-28T19:09:02Z</time>
  <course>267.05</course>
  <speed>0.0</speed>
  <fix>3d</fix>
</trkpt>
<trkpt lat="40.0728422" lon="-105.2305752">
  <ele>1586.15</ele>
  <time>2026-08-28T19:09:02Z</time>
  <course>18.21</course>
  <speed>0.022360679774997897</speed>
  <fix>3d</fix>
</trkpt>
<trkpt lat="40.0728423" lon="-105.2305753">
  <ele>1586.09</ele>
  <time>2026-08-28T19:09:02Z</time>
  <course>275.17</course>
  <speed>0.0</speed>
  <fix>3d</fix>
</trkpt>
<trkpt lat="40.0728422" lon="-105.2305752">
  <ele>1586.15</ele>
  <time>2026-08-28T19:09:02Z</time>
  <course>18.21</course>
  <speed>0.022360679774997897</speed>
  <fix>3d</fix>
</trkpt>
<trkpt lat="40.0728423" lon="-105.2305753">
  <ele>1586.09</ele>
  <time>2026-08-28T19:09:02Z</time>
  <course>288.28</course>
  <speed>0.0</speed>
  <fix>3d</fix>
</trkpt>
<trkpt lat="40.0728422" lon="-105.2305752">
  <ele>1586.15</ele>
  <time>2026-08-28T19:09:02Z</time>
  <course>18.21</course>
  <speed>0.022360679774997897</speed>
  <fix>3d</fix>
</trkpt>
<trkpt lat="40.0728423" lon="-105.2305753">
  <ele>1586.09</ele>
  <time>2026-08-28T19:09:02Z</time>
  <course>283.57</course>
  <speed>0.0</speed>
  <fix>3d</fix>
</trkpt>
<trkpt lat="40.0728422" lon="-105.2305752">
  <ele>1586.15</ele>
  <time>2026-08-28T19:09:02Z</time>
  <course>18.21</course>
  <speed>0.022360679774997897</speed>
  <fix>3d</fix>
</trkpt>
<trkpt lat="40.0728423" lon="-105.2305753">
  <ele>1586.09</ele>
  <time>2026-08-28T19:09:02Z</time>
  <course>282.41</course>
  <speed>0.0</speed>
  <fix>3d</fix>
</trkpt>
<trkpt lat="40.0728422" lon="-105.2305752">
  <ele>1586.15</ele>
  <time>2026-08-28T19:09:02Z</time>
  <course>18.21</course>
  <speed>0.022360679774997897</speed>
  <fix>3d</fix>
</trkpt>
<trkpt lat="40.0728423" lon="-105.2305753">
  <ele>1586.09</ele>
  <time>2026-08-28T19:09:02Z</time>
  <course>283.11</course>
  <speed>0.0</speed>
  <fix>3d</fix>
</trkpt>
<trkpt lat="40.0728422" lon="-105.2305752">
  <ele>1586.15</ele>
  <time>2026-08-28T19:09:02Z</time>
  <course>18.2</course>
  <speed>0.022360679774997897</speed>
  <fix>3d</fix>
</trkpt>
<trkpt lat="40.0728423" lon="-105.2305753">
  <ele>1586.09</ele>
  <time>2026-08-28T19:09:02Z</time>
  <course>283.19</course>
  <speed>0.0</speed>
  <fix>3d</fix>
</trkpt>
<trkpt lat="40.0728422" lon="-105.2305752">
  <ele>1586.15</ele>
  <time>2026-08-28T19:09:02Z</time>
  <course>18.2</course>
  <speed>0.022360679774997897</speed>
  <fix>3d</fix>
</trkpt>
<trkpt lat="40.0728423" lon="-105.2305753">
  <ele>1586.09</ele>
  <time>2026-08-28T19:09:02Z</time>
  <course>283.08</course>
  <speed>0.0</speed>
  <fix>3d</fix>
</trkpt>
<trkpt lat="40.0728422" lon="-105.2305752">
  <ele>1586.15</ele>
  <time>2026-08-28T19:09:02Z</time>
  <course>18.2</course>
  <speed>0.022360679774997897</speed>
  <fix>3d</fix>
</trkpt>
<trkpt lat="40.0728423" lon="-105.2305753">
  <ele>1586.09</ele>
  <time>2026-08-28T19:09:02Z</time>
  <course>283.08</course>
  <speed>0.0</speed>
  <fix>3d</fix>
</trkpt>
<trkpt lat="40.0728422" lon="-105.2305752">
  <ele>1586.16</ele>
  <time>2026-08-28T19:09:02Z</time>
  <course>18.2</course>
  <speed>0.022360679774997897</speed>
  <fix>3d</fix>
</trkpt>
<trkpt lat="40.0728423" lon="-105.2305753">
  <ele>1586.09</ele>
  <time>2026-08-28T19:09:02Z</time>
  <course>283.1</course>
  <speed>0.0</speed>
  <fix>3d</fix>
</trkpt>
<trkpt lat="40.0728422" lon="-105.2305752">
  <ele>1586.16</ele>
  <time>2026-08-28T19:09:02Z</time>
  <course>18.19</course>
  <speed>0.022360679774997897</speed>
  <fix>3d</fix>
</trkpt>
<trkpt lat="40.0728423" lon="-105.2305753">
  <ele>1586.09</ele>
  <time>2026-08-28T19:09:02Z</time>
  <course>283.09</course>
  <speed>0.0</speed>
  <fix>3d</fix>
</trkpt>
<trkpt lat="40.0728422" lon="-105.2305752">
  <ele>1586.16</ele>
  <time>2026-08-28T19:09:02Z</time>
  <course>18.19</course>
  <speed>0.022360679774997897</speed>
  <fix>3d</fix>
</trkpt>
<trkpt lat="40.0728423" lon="-105.2305753">
  <ele>1586.09</ele>
  <time>2026-08-28T19:09:02Z</time>
  <course>283.09</course>
  <speed>0.0</speed>
  <fix>3d</fix>
</trkpt>
<trkpt lat="40.0728422" lon="-105.2305752">
  <ele>1586.16</ele>
  <time>2026-08-28T19:09:02Z</time>
  <course>18.19</course>
  <speed>0.022360679774997897</speed>
  <fix>3d</fix>
</trkpt>
<trkpt lat="40.0728423" lon="-105.2305753">
  <ele>1586.09</ele>
  <time>2026-08-28T19:09:02Z</time>
  <course>283.09</course>
  <speed>0.0</speed>
  <fix>3d</fix>
</trkpt>
<trkpt lat="40.0728422" lon="-105.2305752">
  <ele>1586.16</ele>
  <time>2026-08-28T19:09:02Z</time>
  <course>18.19</course>
  <speed>0.022360679774997897</speed>
  <fix>3d</fix>
</trkpt>
<trkpt lat="40.0728423" lon="-105.2305753">
  <ele>1586.09</ele>
  <time>2026-08-28T19:09:02Z</time>
  <course>283.09</course>
  <speed>0.0</speed>
  <fix>3d</fix>
</trkpt>
<trkpt lat="40.0728422" lon="-105.2305752">
  <ele>1586.16</ele>
  <time>2026-08-28T19:09:02Z</time>
  <course>18.19</course>
  <speed>0.022360679774997897</speed>
  <fix>3d</fix>
</trkpt>
<trkpt lat="40.0728423" lon="-105.2305753">
  <ele>1586.09</ele>
  <time>2026-08-28T19:09:02Z</time>
  <course>283.09</course>
  <speed>0.0</speed>
  <fix>3d</fix>
</trkpt>
<trkpt lat="40.0728422" lon="-105.2305752">
  <ele>1586.16</ele>
  <time>2026-08-28T19:09:02Z</time>
  <course>18.18</course>
  <speed>0.022360679774997897</speed>
  <fix>3d</fix>
</trkpt>
<trkpt lat="40.0728423" lon="-105.2305753">
  <ele>1586.09</ele>
  <time>2026-08-28T19:09:02Z</time>
  <course>283.09</course>
  <speed>0.0</speed>
  <fix>3d</fix>
</trkpt>
<trkpt lat="40.0728422" lon="-105.2305752">
  <ele>1586.16</ele>
  <time>2026-08-28T19:09:02Z</time>
  <course>18.18</course>
  <speed>0.022360679774997897</speed>
  <fix>3d</fix>
</trkpt>
<trkpt lat="40.0728423" lon="-105.2305753">
  <ele>1586.09</ele>
  <time>2026-08-28T19:09:02Z</time>
  <course>283.09</course>
  <speed>0.0</speed>
  <fix>3d</fix>
</trkpt>
<trkpt lat="40.0728422" lon="-105.2305752">
  <ele>1586.16</ele>
  <time>2026-08-28T19:09:02Z</time>
  <course>18.18</course>
  <speed>0.022360679774997897</speed>
  <fix>3d</fix>
</trkpt>
<trkpt lat="40.0728423" lon="-105.2305753">
  <ele>1586.09</ele>
  <time>2026-08-28T19:09:02Z</time>
  <course>283.09</course>
  <speed>0.0</speed>
  <fix>3d</fix>
</trkpt>
<trkpt lat="40.0728422" lon="-105.2305752">
  <ele>1586.16</ele>
  <time>2026-08-28T19:09:02Z</time>
  <course>18.18</course>
  <speed>0.022360679774997897</speed>
  <fix>3d</fix>
</trkpt>
<trkpt lat="40.0728423" lon="-105.2305753">
  <ele>1586.09</ele>
  <time>2026-08-28T19:09:02Z</time>
  <course>283.09</course>
  <speed>0.0</speed>
  <fix>3d</fix>
</trkpt>
<trkpt lat="40.0728422" lon="-105.2305752">
  <ele>1586.17</ele>
  <time>2026-08-28T19:09:02Z</time>
  <course>18.18</course>
  <speed>0.022360679774997897</speed>
  <fix>3d</fix>
</trkpt>
<trkpt lat="40.0728423" lon="-105.2305753">
  <ele>1586.09</ele>
  <time>2026-08-28T19:09:02Z</time>
  <course>283.09</course>
  <speed>0.0</speed>
  <fix>3d</fix>
</trkpt>
<trkpt lat="40.0728422" lon="-105.2305752">
  <ele>1586.17</ele>
  <time>2026-08-28T19:09:02Z</time>
  <course>18.18</course>
  <speed>0.022360679774997897</speed>
  <fix>3d</fix>
</trkpt>
<trkpt lat="40.0728423" lon="-105.2305753">
  <ele>1586.09</ele>
  <time>2026-08-28T19:09:02Z</time>
  <course>283.09</course>
  <speed>0.0</speed>
  <fix>3d</fix>
</trkpt>
<trkpt lat="40.0728422" lon="-105.2305752">
  <ele>1586.17</ele>
  <time>2026-08-28T19:09:02Z</time>
  <course>18.18</course>
  <speed>0.022360679774997897</speed>
  <fix>3d</fix>
</trkpt>
<trkpt lat="40.0728423" lon="-105.2305753">
  <ele>1586.09</ele>
  <time>2026-08-28T19:09:02Z</time>
  <course>283.09</course>
  <speed>0.0</speed>
  <fix>3d</fix>
</trkpt>
<trkpt lat="40.0728422" lon="-105.2305752">
  <ele>1586.17</ele>
  <time>2026-08-28T19:09:02Z</time>
  <course>18.17</course>
  <speed>0.022360679774997897</speed>
  <fix>3d</fix>
</trkpt>
<trkpt lat="40.0728423" lon="-105.2305753">
  <ele>1586.09</ele>
  <time>2026-08-28T19:09:02Z</time>
  <course>283.09</course>
  <speed>0.0</speed>
  <fix>3d</fix>
</trkpt>
<trkpt lat="40.0728422" lon="-105.2305752">
  <ele>1586.17</ele>
  <time>2026-08-28T19:09:02Z</time>
  <course>18.17</course>
  <speed>0.022360679774997897</speed>
  <fix>3d</fix>
</trkpt>
<trkpt lat="40.0728423" lon="-105.2305753">
  <ele>1586.09</ele>
  <time>2026-08-28T19:09:02Z</time>
  <course>283.09</course>
  <speed>0.0</speed>
  <fix>3d</fix>
</trkpt>
<trkpt lat="40.0728422" lon="-105.2305752">
  <ele>1586.17</ele>
  <time>2026-08-28T19:09:02Z</time>
  <course>18.17</course>
  <speed>0.022360679774997897</speed>
  <fix>3d</fix>
</trkpt>
<trkpt lat="40.0728423" lon="-105.2305753">
  <ele>1586.09</ele>
  <time>2026-08-28T19:09:02Z</time>
  <course>283.09</course>
  <speed>0.0</speed>
  <fix>3d</fix>
</trkpt>
<trkpt lat="40.0728422" lon="-105.2305752">
  <ele>1586.17</ele>
  <time>2026-08-28T19:09:02Z</time>
  <course>18.17</course>
  <speed>0.022360679774997897</speed>
  <fix>3d</fix>
</trkpt>
<trkpt lat="40.0728423" lon="-105.2305753">
  <ele>1586.09</ele>
  <time>2026-08-28T19:09:02Z</time>
  <course>283.09</course>
  <speed>0.0</speed>
  <fix>3d</fix>
</trkpt>
<trkpt lat="40.0728422" lon="-105.2305752">
  <ele>1586.17</ele>
  <time>2026-08-28T19:09:02Z</time>
  <course>18.17</course>
  <speed>0.022360679774997897</speed>
  <fix>3d</fix>
</trkpt>
<trkpt lat="40.0728423" lon="-105.2305753">
  <ele>1586.09</ele>
  <time>2026-08-28T19:09:02Z</time>
  <course>283.09</course>
  <speed>0.0</speed>
  <fix>3d</fix>
</trkpt>
<trkpt lat="40.0728422" lon="-105.2305752">
  <ele>1586.17</ele>
  <time>2026-08-28T19:09:02Z</time>
  <course>18.16</course>
  <speed>0.022360679774997897</speed>
  <fix>3d</fix>
</trkpt>
<trkpt lat="40.0728423" lon="-105.2305753">
  <ele>1586.09</ele>
  <time>2026-08-28T19:09:02Z</time>
  <course>283.09</course>
  <speed>0.0</speed>
  <fix>3d</fix>
</trkpt>
<trkpt lat="40.0728422" lon="-105.2305752">
  <ele>1586.17</ele>
  <time>2026-08-28T19:09:02Z</time>
  <course>18.16</course>
  <speed>0.022360679774997897</speed>
  <fix>3d</fix>
</trkpt>
<trkpt lat="40.0728423" lon="-105.2305753">
  <ele>1586.09</ele>
  <time>2026-08-28T19:09:02Z</time>
  <course>283.09</course>
  <speed>0.0</speed>
  <fix>3d</fix>
</trkpt>
<trkpt lat="40.0728422" lon="-105.2305752">
  <ele>1586.17</ele>
  <time>2026-08-28T19:09:02Z</time>
  <course>18.16</course>
  <speed>0.022360679774997897</speed>
  <fix>3d</fix>
</trkpt>
<trkpt lat="40.0728423" lon="-105.2305753">
  <ele>1586.09</ele>
  <time>2026-08-28T19:09:02Z</time>
  <course>283.09</course>
  <speed>0.0</speed>
  <fix>3d</fix>
</trkpt>
<trkpt lat="40.0728422" lon="-105.2305752">
  <ele>1586.17</ele>
  <time>2026-08-28T19:09:02Z</time>
  <course>18.16</course>
  <speed>0.022360679774997897</speed>
  <fix>3d</fix>
</trkpt>
<trkpt lat="40.0728423" lon="-105.2305753">
  <ele>1586.09</ele>
  <time>2026-08-28T19:09:02Z</time>
  <course>283.09</course>
  <speed>0.0</speed>
  <fix>3d</fix>
</trkpt>
<trkpt lat="40.0728422" lon="-105.2305752">
  <ele>1586.17</ele>
  <time>2026-08-28T19:09:02Z</time>
  <course>18.16</course>
  <speed>0.022360679774997897</speed>
  <fix>3d</fix>
</trkpt>
<trkpt lat="40.0728423" lon="-105.2305753">
  <ele>1586.09</ele>
  <time>2026-08-28T19:09:02Z</time>
  <course>283.09</course>
  <speed>0.0</speed>
  <fix>3d</fix>
</trkpt>
<trkpt lat="40.0728422" lon="-105.2305752">
  <ele>1586.17</ele>
  <time>2026-08-28T19:09:02Z</time>
  <course>18.16</course>
  <speed>0.022360679774997897</speed>
  <fix>3d</fix>
</trkpt>
<trkpt lat="40.0728423" lon="-105.2305753">
  <ele>1586.09</ele>
  <time>2026-08-28T19:09:02Z</time>
  <course>283.09</course>
  <speed>0.0</speed>
  <fix>3d</fix>
</trkpt>
<trkpt lat="40.0728422" lon="-105.2305752">
  <ele>1586.17</ele>
  <time>2026-08-28T19:09:02Z</time>
  <course>18.15</course>
  <speed>0.022360679774997897</speed>
  <fix>3d</fix>
</trkpt>
<trkpt lat="40.0728423" lon="-105.2305753">
  <ele>1586.09</ele>
  <time>2026-08-28T19:09:02Z</time>
  <course>283.09</course>
  <speed>0.0</speed>
  <fix>3d</fix>
</trkpt>
<trkpt lat="40.0728422" lon="-105.2305752">
  <ele>1586.17</ele>
  <time>2026-08-28T19:09:02Z</time>
  <course>18.15</course>
  <speed>0.022360679774997897</speed>
  <fix>3d</fix>
</trkpt>
<trkpt lat="40.0728423" lon="-105.2305753">
  <ele>1586.09</ele>
  <time>2026-08-28T19:09:02Z</time>
  <course>283.09</course>
  <speed>0.0</speed>
  <fix>3d</fix>
</trkpt>
<trkpt lat="40.0728422" lon="-105.2305752">
  <ele>1586.17</ele>
  <time>2026-08-28T19:09:02Z</time>
  <course>18.15</course>
  <speed>0.022360679774997897</speed>
  <fix>3d</fix>
</trkpt>
<trkpt lat="40.0728423" lon="-105.2305753">
  <ele>1586.09</ele>
  <time>2026-08-28T19:09:02Z</time>
  <course>283.09</course>
  <speed>0.0</speed>
  <fix>3d</fix>
</trkpt>
<trkpt lat="40.0728422" lon="-105.2305752">
  <ele>1586.17</ele>
  <time>2026-08-28T19:09:02Z</time>
  <course>18.15</course>
  <speed>0.022360679774997897</speed>
  <fix>3d</fix>
</trkpt>
<trkpt lat="40.0728423" lon="-105.2305753">
  <ele>1586.09</ele>
  <time>2026-08-28T19:09:02Z</time>
  <course>283.09</course>
  <speed>0.0</speed>
  <fix>3d</fix>
</trkpt>
<trkpt lat="40.0728422" lon="-105.2305752">
  <ele>1586.17</ele>
  <time>2026-08-28T19:09:02Z</time>
  <course>18.15</course>
  <speed>0.022360679774997897</speed>
  <fix>3d</fix>
</trkpt>
<trkpt lat="40.0728423" lon="-105.2305753">
  <ele>1586.09</ele>
  <time>2026-08-28T19:09:02Z</time>
  <course>283.09</course>
  <speed>0.0</speed>
  <fix>3d</fix>
</trkpt>
<trkpt lat="40.0728422" lon="-105.2305752">
  <ele>1586.17</ele>
  <time>2026-08-28T19:09:02Z</time>
  <course>18.15</course>
  <speed>0.022360679774997897</speed>
  <fix>3d</fix>
</trkpt>
<trkpt lat="40.0728423" lon="-105.2305753">
  <ele>1586.09</ele>
  <time>2026-08-28T19:09:02Z</time>
  <course>283.09</course>
  <speed>0.0</speed>
  <fix>3d</fix>
</trkpt>
<trkpt lat="40.0728422" lon="-105.2305752">
  <ele>1586.17</ele>
  <time>2026-08-28T19:09:02Z</time>
  <course>18.2</course>
  <speed>0.022360679774997897</speed>
  <fix>3d</fix>
</trkpt>
<trkpt lat="40.0728423" lon="-105.2305753">
  <ele>1586.09</ele>
  <time>2026-08-28T19:09:02Z</time>
  <course>283.09</course>
  <speed>0.0</speed>
  <fix>3d</fix>
</trkpt>
<trkpt lat="40.0728422" lon="-105.2305752">
  <ele>1586.18</ele>
  <time>2026-08-28T19:09:02Z</time>
  <course>18.31</course>
  <speed>0.022360679774997897</speed>
  <fix>3d</fix>
</trkpt>
<trkpt lat="40.0728423" lon="-105.2305753">
  <ele>1586.09</ele>
  <time>2026-08-28T19:09:02Z</time>
  <course>350.04</course>
  <speed>0.0</speed>
  <fix>3d</fix>
</trkpt>
<trkpt lat="40.0728422" lon="-105.2305752">
  <ele>1586.19</ele>
  <time>2026-08-28T19:09:02Z</time>
  <course>18.43</course>
  <speed>0.022360679774997897</speed>
  <fix>3d</fix>
</trkpt>
<trkpt lat="40.0728423" lon="-105.2305753">
  <ele>1586.09</ele>
  <time>2026-08-28T19:09:02Z</time>
  <course>336.62</course>
  <speed>0.0</speed>
  <fix>3d</fix>
</trkpt>
<trkpt lat="40.0728422" lon="-105.2305752">
  <ele>1586.2</ele>
  <time>2026-08-28T19:09:02Z</time>
  <course>18.53</course>
  <speed>0.022360679774997897</speed>
  <fix>3d</fix>
</trkpt>
<trkpt lat="40.0728423" lon="-105.2305753">
  <ele>1586.09</ele>
  <time>2026-08-28T19:09:02Z</time>
  <course>325.42</course>
  <speed>0.0</speed>
  <fix>3d</fix>
</trkpt>
<trkpt lat="40.0728422" lon="-105.2305752">
  <ele>1586.21</ele>
  <time>2026-08-28T19:09:02Z</time>
  <course>18.64</course>
  <speed>0.022360679774997897</speed>
  <fix>3d</fix>
</trkpt>
<trkpt lat="40.0728423" lon="-105.2305753">
  <ele>1586.09</ele>
  <time>2026-08-28T19:09:02Z</time>
  <course>198.01</course>
  <speed>0.0</speed>
  <fix>3d</fix>
</trkpt>
<trkpt lat="40.0728422" lon="-105.2305752">
  <ele>1586.21</ele>
  <time>2026-08-28T19:09:02Z</time>
  <course>18.74</course>
  <speed>0.022360679774997897</speed>
  <fix>3d</fix>
</trkpt>
<trkpt lat="39.6562421" lon="-104.1365912">
  <ele>1569.6</ele>
  <time>2026-08-28T19:09:03Z</time>
  <course>14.17</course>
  <speed>0.0</speed>
  <fix>3d</fix>
</trkpt>
<trkpt lat="40.072842" lon="-105.230575">
  <ele>1586.09</ele>
  <time>2026-08-28T19:09:03Z</time>
  <course>2.03</course>
  <speed>0.0</speed>
  <fix>3d</fix>
</trkpt>
<trkpt lat="40.072842" lon="-105.230575">
  <ele>1586.09</ele>
  <time>2026-08-28T19:09:03Z</time>
  <course>344.04</course>
  <speed>0.0</speed>
  <fix>3d</fix>
</trkpt>
<trkpt lat="40.072842" lon="-105.230575">
  <ele>1586.09</ele>
  <time>2026-08-28T19:09:03Z</time>
  <course>2.44</course>
  <speed>0.0</speed>
  <fix>3d</fix>
</trkpt>
<trkpt lat="40.072842" lon="-105.230575">
  <ele>1586.09</ele>
  <time>2026-08-28T19:09:03Z</time>
  <course>236.53</course>
  <speed>0.0</speed>
  <fix>3d</fix>
</trkpt>
<trkpt lat="40.072842" lon="-105.230575">
  <ele>1586.09</ele>
  <time>2026-08-28T19:09:03Z</time>
  <course>3.19</course>
  <speed>0.0</speed>
  <fix>3d</fix>
</trkpt>
<trkpt lat="40.072842" lon="-105.230575">
  <ele>1586.09</ele>
  <time>2026-08-28T19:09:03Z</time>
  <course>181.85</course>
  <speed>0.0</speed>
  <fix>3d</fix>
</trkpt>
<trkpt lat="40.072842" lon="-105.230575">
  <ele>1586.09</ele>
  <time>2026-08-28T19:09:03Z</time>
  <course>3.87</course>
  <speed>0.0</speed>
  <fix>3d</fix>
</trkpt>
<trkpt lat="40.072842" lon="-105.230575">
  <ele>1586.09</ele>
  <time>2026-08-28T19:09:03Z</time>
  <course>38.5</course>
  <speed>0.0</speed>
  <fix>3d</fix>
</trkpt>
<trkpt lat="40.072842" lon="-105.230575">
  <ele>1586.09</ele>
  <time>2026-08-28T19:09:03Z</time>
  <course>4.49</course>
  <speed>0.0</speed>
  <fix>3d</fix>
</trkpt>
<trkpt lat="40.072842" lon="-105.230575">
  <ele>1586.09</ele>
  <time>2026-08-28T19:09:03Z</time>
  <course>341.08</course>
  <speed>0.0</speed>
  <fix>3d</fix>
</trkpt>
<trkpt lat="40.072842" lon="-105.230575">
  <ele>1586.09</ele>
  <time>2026-08-28T19:09:03Z</time>
  <course>5.09</course>
  <speed>0.0</speed>
  <fix>3d</fix>
</trkpt>
<trkpt lat="40.072842" lon="-105.230575">
  <ele>1586.09</ele>
  <time>2026-08-28T19:09:03Z</time>
  <course>79.87</course>
  <speed>0.0</speed>
  <fix>3d</fix>
</trkpt>
<trkpt lat="40.072842" lon="-105.230575">
  <ele>1586.09</ele>
  <time>2026-08-28T19:09:03Z</time>
  <course>5.65</course>
  <speed>0.0</speed>
  <fix>3d</fix>
</trkpt>
<trkpt lat="40.072842" lon="-105.230575">
  <ele>1586.09</ele>
  <time>2026-08-28T19:09:03Z</time>
  <course>78.75</course>
  <speed>0.0</speed>
  <fix>3d</fix>
</trkpt>
<trkpt lat="40.072842" lon="-105.230575">
  <ele>1586.09</ele>
  <time>2026-08-28T19:09:03Z</time>
  <course>6.17</course>
  <speed>0.0</speed>
  <fix>3d</fix>
</trkpt>
<trkpt lat="40.072842" lon="-105.230575">
  <ele>1586.09</ele>
  <time>2026-08-28T19:09:03Z</time>
  <course>198.3</course>
  <speed>0.0</speed>
  <fix>3d</fix>
</trkpt>
<trkpt lat="40.072842" lon="-105.230575">
  <ele>1586.09</ele>
  <time>2026-08-28T19:09:03Z</time>
  <course>6.66</course>
  <speed>0.0</speed>
  <fix>3d</fix>
</trkpt>
<trkpt lat="40.072842" lon="-105.230575">
  <ele>1586.09</ele>
  <time>2026-08-28T19:09:03Z</time>
  <course>208.9</course>
  <speed>0.0</speed>
  <fix>3d</fix>
</trkpt>
<trkpt lat="40.072842" lon="-105.230575">
  <ele>1586.09</ele>
  <time>2026-08-28T19:09:03Z</time>
  <course>7.11</course>
  <speed>0.0</speed>
  <fix>3d</fix>
</trkpt>
<trkpt lat="40.072842" lon="-105.230575">
  <ele>1586.09</ele>
  <time>2026-08-28T19:09:03Z</time>
  <course>59.22</course>
  <speed>0.0</speed>
  <fix>3d</fix>
</trkpt>
<trkpt lat="40.072842" lon="-105.230575">
  <ele>1586.09</ele>
  <time>2026-08-28T19:09:03Z</time>
  <course>7.54</course>
  <speed>0.0</speed>
  <fix>3d</fix>
</trkpt>
<trkpt lat="40.072842" lon="-105.230575">
  <ele>1586.09</ele>
  <time>2026-08-28T19:09:03Z</time>
  <course>78.2</course>
  <speed>0.0</speed>
  <fix>3d</fix>
</trkpt>
<trkpt lat="40.072842" lon="-105.230575">
  <ele>1586.09</ele>
  <time>2026-08-28T19:09:03Z</time>
  <course>7.93</course>
  <speed>0.0</speed>
  <fix>3d</fix>
</trkpt>
<trkpt lat="40.072842" lon="-105.230575">
  <ele>1586.09</ele>
  <time>2026-08-28T19:09:03Z</time>
  <course>275.97</course>
  <speed>0.0</speed>
  <fix>3d</fix>
</trkpt>
<trkpt lat="40.072842" lon="-105.230575">
  <ele>1586.09</ele>
  <time>2026-08-28T19:09:03Z</time>
  <course>8.29</course>
  <speed>0.0</speed>
  <fix>3d</fix>
</trkpt>
<trkpt lat="40.072842" lon="-105.230575">
  <ele>1586.09</ele>
  <time>2026-08-28T19:09:03Z</time>
  <course>272.6</course>
  <speed>0.0</speed>
  <fix>3d</fix>
</trkpt>
<trkpt lat="40.072842" lon="-105.230575">
  <ele>1586.09</ele>
  <time>2026-08-28T19:09:03Z</time>
  <course>8.63</course>
  <speed>0.0</speed>
  <fix>3d</fix>
</trkpt>
<trkpt lat="40.072842" lon="-105.230575">
  <ele>1586.09</ele>
  <time>2026-08-28T19:09:03Z</time>
  <course>135.8</course>
  <speed>0.0</speed>
  <fix>3d</fix>
</trkpt>
<trkpt lat="40.072842" lon="-105.230575">
  <ele>1586.09</ele>
  <time>2026-08-28T19:09:03Z</time>
  <course>8.94</course>
  <speed>0.0</speed>
  <fix>3d</fix>
</trkpt>
<trkpt lat="40.072842" lon="-105.230575">
  <ele>1586.09</ele>
  <time>2026-08-28T19:09:03Z</time>
  <course>4.81</course>
  <speed>0.0</speed>
  <fix>3d</fix>
</trkpt>
<trkpt lat="40.072842" lon="-105.230575">
  <ele>1586.09</ele>
  <time>2026-08-28T19:09:03Z</time>
  <course>9.23</course>
  <speed>0.0</speed>
  <fix>3d</fix>
</trkpt>
<trkpt lat="40.072842" lon="-105.230575">
  <ele>1586.09</ele>
  <time>2026-08-28T19:09:03Z</time>
  <course>333.21</course>
  <speed>0.0</speed>
  <fix>3d</fix>
</trkpt>
<trkpt lat="40.072842" lon="-105.230575">
  <ele>1586.09</ele>
  <time>2026-08-28T19:09:03Z</time>
  <course>9.49</course>
  <speed>0.0</speed>
  <fix>3d</fix>
</trkpt>
<trkpt lat="40.072842" lon="-105.230575">
  <ele>1586.09</ele>
  <time>2026-08-28T19:09:03Z</time>
  <course>207.41</course>
  <speed>0.0</speed>
  <fix>3d</fix>
</trkpt>
<trkpt lat="40.072842" lon="-105.230575">
  <ele>1586.09</ele>
  <time>2026-08-28T19:09:03Z</time>
  <course>9.73</course>
  <speed>0.0</speed>
  <fix>3d</fix>
</trkpt>
<trkpt lat="40.072842" lon="-105.230575">
  <ele>1586.09</ele>
  <time>2026-08-28T19:09:03Z</time>
  <course>250.02</course>
  <speed>0.0</speed>
  <fix>3d</fix>
</trkpt>
<trkpt lat="40.072842" lon="-105.230575">
  <ele>1586.09</ele>
  <time>2026-08-28T19:09:03Z</time>
  <course>9.95</course>
  <speed>0.0</speed>
  <fix>3d</fix>
</trkpt>
<trkpt lat="40.072842" lon="-105.230575">
  <ele>1586.09</ele>
  <time>2026-08-28T19:09:03Z</time>
  <course>260.86</course>
  <speed>0.0</speed>
  <fix>3d</fix>
</trkpt>
<trkpt lat="40.072842" lon="-105.230575">
  <ele>1586.09</ele>
  <time>2026-08-28T19:09:03Z</time>
  <course>10.16</course>
  <speed>0.0</speed>
  <fix>3d</fix>
</trkpt>
<trkpt lat="40.072842" lon="-105.230575">
  <ele>1586.09</ele>
  <time>2026-08-28T19:09:03Z</time>
  <course>291.3</course>
  <speed>0.0</speed>
  <fix>3d</fix>
</trkpt>
<trkpt lat="40.072842" lon="-105.230575">
  <ele>1586.09</ele>
  <time>2026-08-28T19:09:03Z</time>
  <course>10.34</course>
  <speed>0.0</speed>
  <fix>3d</fix>
</trkpt>
<trkpt lat="40.072842" lon="-105.230575">
  <ele>1586.09</ele>
  <time>2026-08-28T19:09:03Z</time>
  <course>266.59</course>
  <speed>0.0</speed>
  <fix>3d</fix>
</trkpt>
<trkpt lat="40.072842" lon="-105.230575">
  <ele>1586.09</ele>
  <time>2026-08-28T19:09:03Z</time>
  <course>10.52</course>
  <speed>0.0</speed>
  <fix>3d</fix>
</trkpt>
<trkpt lat="40.072842" lon="-105.230575">
  <ele>1586.09</ele>
  <time>2026-08-28T19:09:03Z</time>
  <course>264.88</course>
  <speed>0.0</speed>
  <fix>3d</fix>
</trkpt>
<trkpt lat="40.072842" lon="-105.230575">
  <ele>1586.09</ele>
  <time>2026-08-28T19:09:03Z</time>
  <course>10.67</course>
  <speed>0.0</speed>
  <fix>3d</fix>
</trkpt>
<trkpt lat="40.072842" lon="-105.230575">
  <ele>1586.09</ele>
  <time>2026-08-28T19:09:03Z</time>
  <course>266.12</course>
  <speed>0.0</speed>
  <fix>3d</fix>
</trkpt>
<trkpt lat="40.072842" lon="-105.230575">
  <ele>1586.09</ele>
  <time>2026-08-28T19:09:03Z</time>
  <course>10.82</course>
  <speed>0.0</speed>
  <fix>3d</fix>
</trkpt>
<trkpt lat="40.072842" lon="-105.230575">
  <ele>1586.09</ele>
  <time>2026-08-28T19:09:03Z</time>
  <course>266.2</course>
  <speed>0.0</speed>
  <fix>3d</fix>
</trkpt>
<trkpt lat="40.072842" lon="-105.230575">
  <ele>1586.09</ele>
  <time>2026-08-28T19:09:03Z</time>
  <course>10.95</course>
  <speed>0.0</speed>
  <fix>3d</fix>
</trkpt>
<trkpt lat="40.072842" lon="-105.230575">
  <ele>1586.09</ele>
  <time>2026-08-28T19:09:03Z</time>
  <course>266.0</course>
  <speed>0.0</speed>
  <fix>3d</fix>
</trkpt>
<trkpt lat="40.072842" lon="-105.230575">
  <ele>1586.09</ele>
  <time>2026-08-28T19:09:03Z</time>
  <course>11.07</course>
  <speed>0.0</speed>
  <fix>3d</fix>
</trkpt>
<trkpt lat="40.072842" lon="-105.230575">
  <ele>1586.09</ele>
  <time>2026-08-28T19:09:03Z</time>
  <course>266.02</course>
  <speed>0.0</speed>
  <fix>3d</fix>
</trkpt>
<trkpt lat="40.072842" lon="-105.230575">
  <ele>1586.09</ele>
  <time>2026-08-28T19:09:03Z</time>
  <course>11.18</course>
  <speed>0.0</speed>
  <fix>3d</fix>
</trkpt>
<trkpt lat="40.072842" lon="-105.230575">
  <ele>1586.09</ele>
  <time>2026-08-28T19:09:03Z</time>
  <course>266.04</course>
  <speed>0.0</speed>
  <fix>3d</fix>
</trkpt>
<trkpt lat="40.072842" lon="-105.230575">
  <ele>1586.09</ele>
  <time>2026-08-28T19:09:03Z</time>
  <course>11.28</course>
  <speed>0.0</speed>
  <fix>3d</fix>
</trkpt>
<trkpt lat="40.072842" lon="-105.230575">
  <ele>1586.09</ele>
  <time>2026-08-28T19:09:03Z</time>
  <course>266.04</course>
  <speed>0.0</speed>
  <fix>3d</fix>
</trkpt>
<trkpt lat="40.072842" lon="-105.230575">
  <ele>1586.09</ele>
  <time>2026-08-28T19:09:03Z</time>
  <course>11.37</course>
  <speed>0.0</speed>
  <fix>3d</fix>
</trkpt>
<trkpt lat="40.072842" lon="-105.230575">
  <ele>1586.09</ele>
  <time>2026-08-28T19:09:03Z</time>
  <course>266.03</course>
  <speed>0.0</speed>
  <fix>3d</fix>
</trkpt>
<trkpt lat="40.072842" lon="-105.230575">
  <ele>1586.09</ele>
  <time>2026-08-28T19:09:03Z</time>
  <course>11.45</course>
  <speed>0.0</speed>
  <fix>3d</fix>
</trkpt>
<trkpt lat="40.072842" lon="-105.230575">
  <ele>1586.09</ele>
  <time>2026-08-28T19:09:03Z</time>
  <course>266.03</course>
  <speed>0.0</speed>
  <fix>3d</fix>
</trkpt>
<trkpt lat="40.072842" lon="-105.230575">
  <ele>1586.09</ele>
  <time>2026-08-28T19:09:03Z</time>
  <course>11.52</course>
  <speed>0.0</speed>
  <fix>3d</fix>
</trkpt>
<trkpt lat="40.072842" lon="-105.230575">
  <ele>1586.09</ele>
  <time>2026-08-28T19:09:03Z</time>
  <course>266.03</course>
  <speed>0.0</speed>
  <fix>3d</fix>
</trkpt>
<trkpt lat="40.072842" lon="-105.230575">
  <ele>1586.09</ele>
  <time>2026-08-28T19:09:03Z</time>
  <course>11.59</course>
  <speed>0.0</speed>
  <fix>3d</fix>
</trkpt>
<trkpt lat="40.072842" lon="-105.230575">
  <ele>1586.09</ele>
  <time>2026-08-28T19:09:03Z</time>
  <course>266.03</course>
  <speed>0.0</speed>
  <fix>3d</fix>
</trkpt>
<trkpt lat="40.072842" lon="-105.230575">
  <ele>1586.09</ele>
  <time>2026-08-28T19:09:03Z</time>
  <course>11.65</course>
  <speed>0.0</speed>
  <fix>3d</fix>
</trkpt>
<trkpt lat="40.072842" lon="-105.230575">
  <ele>1586.09</ele>
  <time>2026-08-28T19:09:03Z</time>
  <course>266.03</course>
  <speed>0.0</speed>
  <fix>3d</fix>
</trkpt>
<trkpt lat="40.072842" lon="-105.230575">
  <ele>1586.09</ele>
  <time>2026-08-28T19:09:03Z</time>
  <course>11.71</course>
  <speed>0.0</speed>
  <fix>3d</fix>
</trkpt>
<trkpt lat="40.072842" lon="-105.230575">
  <ele>1586.09</ele>
  <time>2026-08-28T19:09:03Z</time>
  <course>266.03</course>
  <speed>0.0</speed>
  <fix>3d</fix>
</trkpt>
<trkpt lat="40.072842" lon="-105.230575">
  <ele>1586.09</ele>
  <time>2026-08-28T19:09:03Z</time>
  <course>11.77</course>
  <speed>0.0</speed>
  <fix>3d</fix>
</trkpt>
<trkpt lat="40.072842" lon="-105.230575">
  <ele>1586.09</ele>
  <time>2026-08-28T19:09:03Z</time>
  <course>266.03</course>
  <speed>0.0</speed>
  <fix>3d</fix>
</trkpt>
<trkpt lat="40.072842" lon="-105.230575">
  <ele>1586.09</ele>
  <time>2026-08-28T19:09:03Z</time>
  <course>11.81</course>
  <speed>0.0</speed>
  <fix>3d</fix>
</trkpt>
<trkpt lat="40.072842" lon="-105.230575">
  <ele>1586.09</ele>
  <time>2026-08-28T19:09:03Z</time>
  <course>266.03</course>
  <speed>0.0</speed>
  <fix>3d</fix>
</trkpt>
<trkpt lat="40.072842" lon="-105.230575">
  <ele>1586.09</ele>
  <time>2026-08-28T19:09:03Z</time>
  <course>11.85</course>
  <speed>0.0</speed>
  <fix>3d</fix>
</trkpt>
<trkpt lat="40.072842" lon="-105.230575">
  <ele>1586.09</ele>
  <time>2026-08-28T19:09:03Z</time>
  <course>266.03</course>
  <speed>0.0</speed>
  <fix>3d</fix>
</trkpt>
<trkpt lat="40.072842" lon="-105.230575">
  <ele>1586.09</ele>
  <time>2026-08-28T19:09:03Z</time>
  <course>11.89</course>
  <speed>0.0</speed>
  <fix>3d</fix>
</trkpt>
<trkpt lat="40.072842" lon="-105.230575">
  <ele>1586.09</ele>
  <time>2026-08-28T19:09:03Z</time>
  <course>266.03</course>
  <speed>0.0</speed>
  <fix>3d</fix>
</trkpt>
<trkpt lat="40.072842" lon="-105.230575">
  <ele>1586.09</ele>
  <time>2026-08-28T19:09:03Z</time>
  <course>11.92</course>
  <speed>0.0</speed>
  <fix>3d</fix>
</trkpt>
<trkpt lat="40.072842" lon="-105.230575">
  <ele>1586.09</ele>
  <time>2026-08-28T19:09:03Z</time>
  <course>266.03</course>
  <speed>0.0</speed>
  <fix>3d</fix>
</trkpt>
<trkpt lat="40.072842" lon="-105.230575">
  <ele>1586.09</ele>
  <time>2026-08-28T19:09:03Z</time>
  <course>11.95</course>
  <speed>0.0</speed>
  <fix>3d</fix>
</trkpt>
<trkpt lat="40.072842" lon="-105.230575">
  <ele>1586.09</ele>
  <time>2026-08-28T19:09:03Z</time>
  <course>266.03</course>
  <speed>0.0</speed>
  <fix>3d</fix>
</trkpt>
<trkpt lat="40.072842" lon="-105.230575">
  <ele>1586.09</ele>
  <time>2026-08-28T19:09:03Z</time>
  <course>11.98</course>
  <speed>0.0</speed>
  <fix>3d</fix>
</trkpt>
<trkpt lat="40.072842" lon="-105.230575">
  <ele>1586.09</ele>
  <time>2026-08-28T19:09:03Z</time>
  <course>266.03</course>
  <speed>0.0</speed>
  <fix>3d</fix>
</trkpt>
<trkpt lat="40.072842" lon="-105.230575">
  <ele>1586.09</ele>
  <time>2026-08-28T19:09:03Z</time>
  <course>12.0</course>
  <speed>0.0</speed>
  <fix>3d</fix>
</trkpt>
<trkpt lat="40.072842" lon="-105.230575">
  <ele>1586.09</ele>
  <time>2026-08-28T19:09:03Z</time>
  <course>266.03</course>
  <speed>0.0</speed>
  <fix>3d</fix>
</trkpt>
<trkpt lat="40.072842" lon="-105.230575">
  <ele>1586.09</ele>
  <time>2026-08-28T19:09:03Z</time>
  <course>12.02</course>
  <speed>0.0</speed>
  <fix>3d</fix>
</trkpt>
<trkpt lat="40.072842" lon="-105.230575">
  <ele>1586.09</ele>
  <time>2026-08-28T19:09:03Z</time>
  <course>266.03</course>
  <speed>0.0</speed>
  <fix>3d</fix>
</trkpt>
<trkpt lat="40.072842" lon="-105.230575">
  <ele>1586.09</ele>
  <time>2026-08-28T19:09:03Z</time>
  <course>12.04</course>
  <speed>0.0</speed>
  <fix>3d</fix>
</trkpt>
<trkpt lat="40.072842" lon="-105.230575">
  <ele>1586.09</ele>
  <time>2026-08-28T19:09:03Z</time>
  <course>266.03</course>
  <speed>0.0</speed>
  <fix>3d</fix>
</trkpt>
<trkpt lat="40.072842" lon="-105.230575">
  <ele>1586.09</ele>
  <time>2026-08-28T19:09:03Z</time>
  <course>12.05</course>
  <speed>0.0</speed>
  <fix>3d</fix>
</trkpt>
<trkpt lat="40.072842" lon="-105.230575">
  <ele>1586.09</ele>
  <time>2026-08-28T19:09:03Z</time>
  <course>266.03</course>
  <speed>0.0</speed>
  <fix>3d</fix>
</trkpt>
<trkpt lat="40.072842" lon="-105.230575">
  <ele>1586.09</ele>
  <time>2026-08-28T19:09:03Z</time>
  <course>12.07</course>
  <speed>0.0</speed>
  <fix>3d</fix>
</trkpt>
<trkpt lat="40.072842" lon="-105.230575">
  <ele>1586.09</ele>
  <time>2026-08-28T19:09:03Z</time>
  <course>266.03</course>
  <speed>0.0</speed>
  <fix>3d</fix>
</trkpt>
<trkpt lat="40.072842" lon="-105.230575">
  <ele>1586.09</ele>
  <time>2026-08-28T19:09:03Z</time>
  <course>12.08</course>
  <speed>0.0</speed>
  <fix>3d</fix>
</trkpt>
<trkpt lat="40.072842" lon="-105.230575">
  <ele>1586.09</ele>
  <time>2026-08-28T19:09:03Z</time>
  <course>266.03</course>
  <speed>0.0</speed>
  <fix>3d</fix>
</trkpt>
<trkpt lat="40.072842" lon="-105.230575">
  <ele>1586.09</ele>
  <time>2026-08-28T19:09:03Z</time>
  <course>12.09</course>
  <speed>0.0</speed>
  <fix>3d</fix>
</trkpt>
<trkpt lat="40.072842" lon="-105.230575">
  <ele>1586.09</ele>
  <time>2026-08-28T19:09:03Z</time>
  <course>266.03</course>
  <speed>0.0</speed>
  <fix>3d</fix>
</trkpt>
<trkpt lat="40.072842" lon="-105.230575">
  <ele>1586.09</ele>
  <time>2026-08-28T19:09:03Z</time>
  <course>12.1</course>
  <speed>0.0</speed>
  <fix>3d</fix>
</trkpt>
<trkpt lat="40.072842" lon="-105.230575">
  <ele>1586.09</ele>
  <time>2026-08-28T19:09:03Z</time>
  <course>266.03</course>
  <speed>0.0</speed>
  <fix>3d</fix>
</trkpt>
<trkpt lat="40.072842" lon="-105.230575">
  <ele>1586.09</ele>
  <time>2026-08-28T19:09:03Z</time>
  <course>12.1</course>
  <speed>0.0</speed>
  <fix>3d</fix>
</trkpt>
<trkpt lat="40.072842" lon="-105.230575">
  <ele>1586.09</ele>
  <time>2026-08-28T19:09:03Z</time>
  <course>266.03</course>
  <speed>0.0</speed>
  <fix>3d</fix>
</trkpt>
<trkpt lat="40.072842" lon="-105.230575">
  <ele>1586.09</ele>
  <time>2026-08-28T19:09:03Z</time>
  <course>12.11</course>
  <speed>0.0</speed>
  <fix>3d</fix>
</trkpt>
<trkpt lat="40.072842" lon="-105.230575">
  <ele>1586.09</ele>
  <time>2026-08-28T19:09:03Z</time>
  <course>266.03</course>
  <speed>0.0</speed>
  <fix>3d</fix>
</trkpt>
<trkpt lat="40.072842" lon="-105.230575">
  <ele>1586.09</ele>
  <time>2026-08-28T19:09:03Z</time>
  <course>12.11</course>
  <speed>0.0</speed>
  <fix>3d</fix>
</trkpt>
<trkpt lat="40.072842" lon="-105.230575">
  <ele>1586.09</ele>
  <time>2026-08-28T19:09:03Z</time>
  <course>266.03</course>
  <speed>0.0</speed>
  <fix>3d</fix>
</trkpt>
<trkpt lat="40.072842" lon="-105.230575">
  <ele>1586.09</ele>
  <time>2026-08-28T19:09:03Z</time>
  <course>12.12</course>
  <speed>0.0</speed>
  <fix>3d</fix>
</trkpt>
<trkpt lat="40.072842" lon="-105.230575">
  <ele>1586.09</ele>
  <time>2026-08-28T19:09:03Z</time>
  <course>266.03</course>
  <speed>0.0</speed>
  <fix>3d</fix>
</trkpt>
<trkpt lat="40.072842" lon="-105.230575">
  <ele>1586.09</ele>
  <time>2026-08-28T19:09:03Z</time>
  <course>12.12</course>
  <speed>0.0</speed>
  <fix>3d</fix>
</trkpt>
<trkpt lat="40.072842" lon="-105.230575">
  <ele>1586.09</ele>
  <time>2026-08-28T19:09:03Z</time>
  <course>266.03</course>
  <speed>0.0</speed>
  <fix>3d</fix>
</trkpt>
<trkpt lat="40.072842" lon="-105.230575">
  <ele>1586.09</ele>
  <time>2026-08-28T19:09:03Z</time>
  <course>12.12</course>
  <speed>0.0</speed>
  <fix>3d</fix>
</trkpt>
<trkpt lat="40.072842" lon="-105.230575">
  <ele>1586.09</ele>
  <time>2026-08-28T19:09:03Z</time>
  <course>266.03</course>
  <speed>0.0</speed>
  <fix>3d</fix>
</trkpt>
<trkpt lat="40.072842" lon="-105.230575">
  <ele>1586.09</ele>
  <time>2026-08-28T19:09:03Z</time>
  <course>12.12</course>
  <speed>0.0</speed>
  <fix>3d</fix>
</trkpt>
<trkpt lat="40.072842" lon="-105.230575">
  <ele>1586.09</ele>
  <time>2026-08-28T19:09:03Z</time>
  <course>266.03</course>
  <speed>0.0</speed>
  <fix>3d</fix>
</trkpt>
<trkpt lat="40.072842" lon="-105.230575">
  <ele>1586.09</ele>
  <time>2026-08-28T19:09:03Z</time>
  <course>12.12</course>
  <speed>0.0</speed>
  <fix>3d</fix>
</trkpt>
<trkpt lat="40.072842" lon="-105.230575">
  <ele>1586.09</ele>
  <time>2026-08-28T19:09:03Z</time>
  <course>266.03</course>
  <speed>0.0</speed>
  <fix>3d</fix>
</trkpt>
<trkpt lat="40.072842" lon="-105.230575">
  <ele>1586.09</ele>
  <time>2026-08-28T19:09:03Z</time>
  <course>12.12</course>
  <speed>0.01</speed>
  <fix>3d</fix>
</trkpt>
<trkpt lat="40.072842" lon="-105.230575">
  <ele>1586.09</ele>
  <time>2026-08-28T19:09:03Z</time>
  <course>266.03</course>
  <speed>0.0</speed>
  <fix>3d</fix>
</trkpt>
<trkpt lat="40.072842" lon="-105.230575">
  <ele>1586.09</ele>
  <time>2026-08-28T19:09:03Z</time>
  <course>12.12</course>
  <speed>0.01</speed>
  <fix>3d</fix>
</trkpt>
<trkpt lat="40.072842" lon="-105.230575">
  <ele>1586.09</ele>
  <time>2026-08-28T19:09:03Z</time>
  <course>266.03</course>
  <speed>0.0</speed>
  <fix>3d</fix>
</trkpt>
<trkpt lat="40.072842" lon="-105.230575">
  <ele>1586.09</ele>
  <time>2026-08-28T19:09:03Z</time>
  <course>12.12</course>
  <speed>0.01</speed>
  <fix>3d</fix>
</trkpt>
<trkpt lat="40.072842" lon="-105.230575">
  <ele>1586.09</ele>
  <time>2026-08-28T19:09:03Z</time>
  <course>266.03</course>
  <speed>0.0</speed>
  <fix>3d</fix>
</trkpt>
<trkpt lat="40.072842" lon="-105.230575">
  <ele>1586.09</ele>
  <time>2026-08-28T19:09:03Z</time>
  <course>12.11</course>
  <speed>0.01</speed>
  <fix>3d</fix>
</trkpt>
<trkpt lat="40.072842" lon="-105.230575">
  <ele>1586.09</ele>
  <time>2026-08-28T19:09:03Z</time>
  <course>266.03</course>
  <speed>0.0</speed>
  <fix>3d</fix>
</trkpt>
<trkpt lat="40.072842" lon="-105.230575">
  <ele>1586.09</ele>
  <time>2026-08-28T19:09:03Z</time>
  <course>12.11</course>
  <speed>0.01</speed>
  <fix>3d</fix>
</trkpt>
<trkpt lat="40.072842" lon="-105.230575">
  <ele>1586.09</ele>
  <time>2026-08-28T19:09:03Z</time>
  <course>266.03</course>
  <speed>0.0</speed>
  <fix>3d</fix>
</trkpt>
<trkpt lat="40.072842" lon="-105.230575">
  <ele>1586.09</ele>
  <time>2026-08-28T19:09:03Z</time>
  <course>12.11</course>
  <speed>0.01</speed>
  <fix>3d</fix>
</trkpt>
<trkpt lat="40.072842" lon="-105.230575">
  <ele>1586.09</ele>
  <time>2026-08-28T19:09:03Z</time>
  <course>266.03</course>
  <speed>0.0</speed>
  <fix>3d</fix>
</trkpt>
<trkpt lat="40.072842" lon="-105.230575">
  <ele>1586.09</ele>
  <time>2026-08-28T19:09:03Z</time>
  <course>12.1</course>
  <speed>0.01</speed>
  <fix>3d</fix>
</trkpt>
<trkpt lat="40.072842" lon="-105.230575">
  <ele>1586.09</ele>
  <time>2026-08-28T19:09:03Z</time>
  <course>266.03</course>
  <speed>0.0</speed>
  <fix>3d</fix>
</trkpt>
<trkpt lat="40.072842" lon="-105.230575">
  <ele>1586.09</ele>
  <time>2026-08-28T19:09:03Z</time>
  <course>12.1</course>
  <speed>0.01</speed>
  <fix>3d</fix>
</trkpt>
<trkpt lat="40.072842" lon="-105.230575">
  <ele>1586.09</ele>
  <time>2026-08-28T19:09:03Z</time>
  <course>266.03</course>
  <speed>0.0</speed>
  <fix>3d</fix>
</trkpt>
<trkpt lat="40.072842" lon="-105.230575">
  <ele>1586.09</ele>
  <time>2026-08-28T19:09:03Z</time>
  <course>12.09</course>
  <speed>0.01</speed>
  <fix>3d</fix>
</trkpt>
<trkpt lat="40.072842" lon="-105.230575">
  <ele>1586.09</ele>
  <time>2026-08-28T19:09:03Z</time>
  <course>266.03</course>
  <speed>0.0</speed>
  <fix>3d</fix>
</trkpt>
<trkpt lat="40.072842" lon="-105.230575">
  <ele>1586.09</ele>
  <time>2026-08-28T19:09:03Z</time>
  <course>12.09</course>
  <speed>0.01</speed>
  <fix>3d</fix>
</trkpt>
<trkpt lat="40.072842" lon="-105.230575">
  <ele>1586.09</ele>
  <time>2026-08-28T19:09:03Z</time>
  <course>266.03</course>
  <speed>0.0</speed>
  <fix>3d</fix>
</trkpt>
<trkpt lat="40.072842" lon="-105.230575">
  <ele>1586.09</ele>
  <time>2026-08-28T19:09:03Z</time>
  <course>12.08</course>
  <speed>0.01414213562373095</speed>
  <fix>3d</fix>
</trkpt>
<trkpt lat="40.072842" lon="-105.230575">
  <ele>1586.09</ele>
  <time>2026-08-28T19:09:03Z</time>
  <course>266.03</course>
  <speed>0.0</speed>
  <fix>3d</fix>
</trkpt>
<trkpt lat="40.072842" lon="-105.230575">
  <ele>1586.09</ele>
  <time>2026-08-28T19:09:03Z</time>
  <course>12.07</course>
  <speed>0.01414213562373095</speed>
  <fix>3d</fix>
</trkpt>
<trkpt lat="40.072842" lon="-105.230575">
  <ele>1586.09</ele>
  <time>2026-08-28T19:09:03Z</time>
  <course>266.03</course>
  <speed>0.0</speed>
  <fix>3d</fix>
</trkpt>
<trkpt lat="40.072842" lon="-105.230575">
  <ele>1586.09</ele>
  <time>2026-08-28T19:09:03Z</time>
  <course>12.07</course>
  <speed>0.01414213562373095</speed>
  <fix>3d</fix>
</trkpt>
<trkpt lat="40.072842" lon="-105.230575">
  <ele>1586.09</ele>
  <time>2026-08-28T19:09:03Z</time>
  <course>266.03</course>
  <speed>0.0</speed>
  <fix>3d</fix>
</trkpt>
<trkpt lat="40.072842" lon="-105.230575">
  <ele>1586.09</ele>
  <time>2026-08-28T19:09:03Z</time>
  <course>12.06</course>
  <speed>0.01414213562373095</speed>
  <fix>3d</fix>
</trkpt>
<trkpt lat="40.072842" lon="-105.230575">
  <ele>1586.09</ele>
  <time>2026-08-28T19:09:03Z</time>
  <course>266.03</course>
  <speed>0.0</speed>
  <fix>3d</fix>
</trkpt>
<trkpt lat="40.072842" lon="-105.230575">
  <ele>1586.09</ele>
  <time>2026-08-28T19:09:03Z</time>
  <course>12.05</course>
  <speed>0.01414213562373095</speed>
  <fix>3d</fix>
</trkpt>
<trkpt lat="40.072842" lon="-105.230575">
  <ele>1586.09</ele>
  <time>2026-08-28T19:09:03Z</time>
  <course>266.03</course>
  <speed>0.0</speed>
  <fix>3d</fix>
</trkpt>
<trkpt lat="40.072842" lon="-105.230575">
  <ele>1586.09</ele>
  <time>2026-08-28T19:09:03Z</time>
  <course>12.05</course>
  <speed>0.01414213562373095</speed>
  <fix>3d</fix>
</trkpt>
<trkpt lat="40.072842" lon="-105.230575">
  <ele>1586.09</ele>
  <time>2026-08-28T19:09:03Z</time>
  <course>266.03</course>
  <speed>0.0</speed>
  <fix>3d</fix>
</trkpt>
<trkpt lat="40.072842" lon="-105.230575">
  <ele>1586.09</ele>
  <time>2026-08-28T19:09:03Z</time>
  <course>12.04</course>
  <speed>0.01414213562373095</speed>
  <fix>3d</fix>
</trkpt>
<trkpt lat="40.072842" lon="-105.230575">
  <ele>1586.09</ele>
  <time>2026-08-28T19:09:03Z</time>
  <course>266.03</course>
  <speed>0.0</speed>
  <fix>3d</fix>
</trkpt>
<trkpt lat="40.072842" lon="-105.230575">
  <ele>1586.09</ele>
  <time>2026-08-28T19:09:03Z</time>
  <course>12.03</course>
  <speed>0.01414213562373095</speed>
  <fix>3d</fix>
</trkpt>
<trkpt lat="40.072842" lon="-105.230575">
  <ele>1586.09</ele>
  <time>2026-08-28T19:09:03Z</time>
  <course>266.03</course>
  <speed>0.0</speed>
  <fix>3d</fix>
</trkpt>
<trkpt lat="40.072842" lon="-105.230575">
  <ele>1586.09</ele>
  <time>2026-08-28T19:09:03Z</time>
  <course>12.02</course>
  <speed>0.01414213562373095</speed>
  <fix>3d</fix>
</trkpt>
<trkpt lat="40.072842" lon="-105.230575">
  <ele>1586.09</ele>
  <time>2026-08-28T19:09:03Z</time>
  <course>266.03</course>
  <speed>0.0</speed>
  <fix>3d</fix>
</trkpt>
<trkpt lat="40.072842" lon="-105.230575">
  <ele>1586.09</ele>
  <time>2026-08-28T19:09:03Z</time>
  <course>12.02</course>
  <speed>0.01414213562373095</speed>
  <fix>3d</fix>
</trkpt>
<trkpt lat="40.072842" lon="-105.230575">
  <ele>1586.09</ele>
  <time>2026-08-28T19:09:03Z</time>
  <course>266.03</course>
  <speed>0.0</speed>
  <fix>3d</fix>
</trkpt>
<trkpt lat="40.072842" lon="-105.230575">
  <ele>1586.09</ele>
  <time>2026-08-28T19:09:03Z</time>
  <course>12.01</course>
  <speed>0.01414213562373095</speed>
  <fix>3d</fix>
</trkpt>
<trkpt lat="40.072842" lon="-105.230575">
  <ele>1586.09</ele>
  <time>2026-08-28T19:09:03Z</time>
  <course>266.03</course>
  <speed>0.0</speed>
  <fix>3d</fix>
</trkpt>
<trkpt lat="40.072842" lon="-105.230575">
  <ele>1586.09</ele>
  <time>2026-08-28T19:09:03Z</time>
  <course>12.0</course>
  <speed>0.01414213562373095</speed>
  <fix>3d</fix>
</trkpt>
<trkpt lat="40.072842" lon="-105.230575">
  <ele>1586.09</ele>
  <time>2026-08-28T19:09:03Z</time>
  <course>266.03</course>
  <speed>0.0</speed>
  <fix>3d</fix>
</trkpt>
<trkpt lat="40.072842" lon="-105.230575">
  <ele>1586.09</ele>
  <time>2026-08-28T19:09:03Z</time>
  <course>11.99</course>
  <speed>0.01414213562373095</speed>
  <fix>3d</fix>
</trkpt>
<trkpt lat="40.072842" lon="-105.230575">
  <ele>1586.09</ele>
  <time>2026-08-28T19:09:03Z</time>
  <course>266.03</course>
  <speed>0.0</speed>
  <fix>3d</fix>
</trkpt>
<trkpt lat="40.072842" lon="-105.230575">
  <ele>1586.09</ele>
  <time>2026-08-28T19:09:03Z</time>
  <course>11.99</course>
  <speed>0.01414213562373095</speed>
  <fix>3d</fix>
</trkpt>
<trkpt lat="40.072842" lon="-105.230575">
  <ele>1586.09</ele>
  <time>2026-08-28T19:09:03Z</time>
  <course>266.03</course>
  <speed>0.0</speed>
  <fix>3d</fix>
</trkpt>
<trkpt lat="40.072842" lon="-105.230575">
  <ele>1586.09</ele>
  <time>2026-08-28T19:09:03Z</time>
  <course>11.98</course>
  <speed>0.01414213562373095</speed>
  <fix>3d</fix>
</trkpt>
<trkpt lat="40.072842" lon="-105.230575">
  <ele>1586.09</ele>
  <time>2026-08-28T19:09:03Z</time>
  <course>266.03</course>
  <speed>0.0</speed>
  <fix>3d</fix>
</trkpt>
<trkpt lat="40.072842" lon="-105.230575">
  <ele>1586.09</ele>
  <time>2026-08-28T19:09:03Z</time>
  <course>11.97</course>
  <speed>0.01414213562373095</speed>
  <fix>3d</fix>
</trkpt>
<trkpt lat="40.072842" lon="-105.230575">
  <ele>1586.09</ele>
  <time>2026-08-28T19:09:03Z</time>
  <course>266.03</course>
  <speed>0.0</speed>
  <fix>3d</fix>
</trkpt>
<trkpt lat="40.072842" lon="-105.230575">
  <ele>1586.09</ele>
  <time>2026-08-28T19:09:03Z</time>
  <course>11.96</course>
  <speed>0.01414213562373095</speed>
  <fix>3d</fix>
</trkpt>
<trkpt lat="40.072842" lon="-105.230575">
  <ele>1586.09</ele>
  <time>2026-08-28T19:09:03Z</time>
  <course>266.03</course>
  <speed>0.0</speed>
  <fix>3d</fix>
</trkpt>
<trkpt lat="40.072842" lon="-105.230575">
  <ele>1586.09</ele>
  <time>2026-08-28T19:09:03Z</time>
  <course>11.95</course>
  <speed>0.022360679774997897</speed>
  <fix>3d</fix>
</trkpt>
<trkpt lat="40.072842" lon="-105.230575">
  <ele>1586.09</ele>
  <time>2026-08-28T19:09:03Z</time>
  <course>266.03</course>
  <speed>0.0</speed>
  <fix>3d</fix>
</trkpt>
<trkpt lat="40.072842" lon="-105.230575">
  <ele>1586.09</ele>
  <time>2026-08-28T19:09:03Z</time>
  <course>11.95</course>
  <speed>0.022360679774997897</speed>
  <fix>3d</fix>
</trkpt>
<trkpt lat="40.072842" lon="-105.230575">
  <ele>1586.09</ele>
  <time>2026-08-28T19:09:03Z</time>
  <course>266.03</course>
  <speed>0.0</speed>
  <fix>3d</fix>
</trkpt>
<trkpt lat="40.072842" lon="-105.230575">
  <ele>1586.09</ele>
  <time>2026-08-28T19:09:03Z</time>
  <course>11.94</course>
  <speed>0.022360679774997897</speed>
  <fix>3d</fix>
</trkpt>
<trkpt lat="40.072842" lon="-105.230575">
  <ele>1586.09</ele>
  <time>2026-08-28T19:09:03Z</time>
  <course>266.03</course>
  <speed>0.0</speed>
  <fix>3d</fix>
</trkpt>
<trkpt lat="40.072842" lon="-105.230575">
  <ele>1586.09</ele>
  <time>2026-08-28T19:09:03Z</time>
  <course>11.93</course>
  <speed>0.022360679774997897</speed>
  <fix>3d</fix>
</trkpt>
<trkpt lat="40.072842" lon="-105.230575">
  <ele>1586.09</ele>
  <time>2026-08-28T19:09:03Z</time>
  <course>266.03</course>
  <speed>0.0</speed>
  <fix>3d</fix>
</trkpt>
<trkpt lat="40.072842" lon="-105.230575">
  <ele>1586.09</ele>
  <time>2026-08-28T19:09:03Z</time>
  <course>11.92</course>
  <speed>0.022360679774997897</speed>
  <fix>3d</fix>
</trkpt>
<trkpt lat="40.072842" lon="-105.230575">
  <ele>1586.09</ele>
  <time>2026-08-28T19:09:03Z</time>
  <course>266.03</course>
  <speed>0.0</speed>
  <fix>3d</fix>
</trkpt>
<trkpt lat="40.072842" lon="-105.230575">
  <ele>1586.09</ele>
  <time>2026-08-28T19:09:03Z</time>
  <course>11.91</course>
  <speed>0.022360679774997897</speed>
  <fix>3d</fix>
</trkpt>
<trkpt lat="40.072842" lon="-105.230575">
  <ele>1586.09</ele>
  <time>2026-08-28T19:09:03Z</time>
  <course>266.03</course>
  <speed>0.0</speed>
  <fix>3d</fix>
</trkpt>
<trkpt lat="40.072842" lon="-105.230575">
  <ele>1586.09</ele>
  <time>2026-08-28T19:09:03Z</time>
  <course>11.91</course>
  <speed>0.022360679774997897</speed>
  <fix>3d</fix>
</trkpt>
<trkpt lat="40.072842" lon="-105.230575">
  <ele>1586.09</ele>
  <time>2026-08-28T19:09:03Z</time>
  <course>266.03</course>
  <speed>0.0</speed>
  <fix>3d</fix>
</trkpt>
<trkpt lat="40.072842" lon="-105.230575">
  <ele>1586.09</ele>
  <time>2026-08-28T19:09:03Z</time>
  <course>11.9</course>
  <speed>0.022360679774997897</speed>
  <fix>3d</fix>
</trkpt>
<trkpt lat="40.072842" lon="-105.230575">
  <ele>1586.09</ele>
  <time>2026-08-28T19:09:03Z</time>
  <course>266.03</course>
  <speed>0.0</speed>
  <fix>3d</fix>
</trkpt>
<trkpt lat="40.072842" lon="-105.230575">
  <ele>1586.09</ele>
  <time>2026-08-28T19:09:03Z</time>
  <course>11.89</course>
  <speed>0.022360679774997897</speed>
  <fix>3d</fix>
</trkpt>
<trkpt lat="40.072842" lon="-105.230575">
  <ele>1586.09</ele>
  <time>2026-08-28T19:09:03Z</time>
  <course>266.03</course>
  <speed>0.0</speed>
  <fix>3d</fix>
</trkpt>
<trkpt lat="40.072842" lon="-105.230575">
  <ele>1586.09</ele>
  <time>2026-08-28T19:09:03Z</time>
  <course>11.88</course>
  <speed>0.022360679774997897</speed>
  <fix>3d</fix>
</trkpt>
<trkpt lat="40.072842" lon="-105.230575">
  <ele>1586.09</ele>
  <time>2026-08-28T19:09:03Z</time>
  <course>266.03</course>
  <speed>0.0</speed>
  <fix>3d</fix>
</trkpt>
<trkpt lat="40.072842" lon="-105.230575">
  <ele>1586.09</ele>
  <time>2026-08-28T19:09:03Z</time>
  <course>11.87</course>
  <speed>0.022360679774997897</speed>
  <fix>3d</fix>
</trkpt>
<trkpt lat="40.072842" lon="-105.230575">
  <ele>1586.09</ele>
  <time>2026-08-28T19:09:03Z</time>
  <course>266.03</course>
  <speed>0.0</speed>
  <fix>3d</fix>
</trkpt>
<trkpt lat="40.072842" lon="-105.230575">
  <ele>1586.09</ele>
  <time>2026-08-28T19:09:03Z</time>
  <course>11.86</course>
  <speed>0.022360679774997897</speed>
  <fix>3d</fix>
</trkpt>
<trkpt lat="40.072842" lon="-105.230575">
  <ele>1586.09</ele>
  <time>2026-08-28T19:09:03Z</time>
  <course>266.03</course>
  <speed>0.0</speed>
  <fix>3d</fix>
</trkpt>
<trkpt lat="40.072842" lon="-105.230575">
  <ele>1586.09</ele>
  <time>2026-08-28T19:09:04Z</time>
  <course>11.86</course>
  <speed>0.022360679774997897</speed>
  <fix>3d</fix>
</trkpt>
<trkpt lat="40.072842" lon="-105.230575">
  <ele>1586.09</ele>
  <time>2026-08-28T19:09:04Z</time>
  <course>266.03</course>
  <speed>0.0</speed>
  <fix>3d</fix>
</trkpt>
<trkpt lat="40.072842" lon="-105.230575">
  <ele>1586.09</ele>
  <time>2026-08-28T19:09:04Z</time>
  <course>11.85</course>
  <speed>0.022360679774997897</speed>
  <fix>3d</fix>
</trkpt>
<trkpt lat="40.072842" lon="-105.230575">
  <ele>1586.09</ele>
  <time>2026-08-28T19:09:04Z</time>
  <course>266.03</course>
  <speed>0.0</speed>
  <fix>3d</fix>
</trkpt>
<trkpt lat="40.072842" lon="-105.230575">
  <ele>1586.09</ele>
  <time>2026-08-28T19:09:04Z</time>
  <course>11.84</course>
  <speed>0.022360679774997897</speed>
  <fix>3d</fix>
</trkpt>
<trkpt lat="40.072842" lon="-105.230575">
  <ele>1586.09</ele>
  <time>2026-08-28T19:09:04Z</time>
  <course>266.03</course>
  <speed>0.0</speed>
  <fix>3d</fix>
</trkpt>
<trkpt lat="40.072842" lon="-105.230575">
  <ele>1586.09</ele>
  <time>2026-08-28T19:09:04Z</time>
  <course>11.83</course>
  <speed>0.022360679774997897</speed>
  <fix>3d</fix>
</trkpt>
<trkpt lat="40.072842" lon="-105.230575">
  <ele>1586.09</ele>
  <time>2026-08-28T19:09:04Z</time>
  <course>266.03</course>
  <speed>0.0</speed>
  <fix>3d</fix>
</trkpt>
<trkpt lat="40.072842" lon="-105.230575">
  <ele>1586.09</ele>
  <time>2026-08-28T19:09:04Z</time>
  <course>11.82</course>
  <speed>0.022360679774997897</speed>
  <fix>3d</fix>
</trkpt>
<trkpt lat="40.072842" lon="-105.230575">
  <ele>1586.09</ele>
  <time>2026-08-28T19:09:04Z</time>
  <course>266.03</course>
  <speed>0.0</speed>
  <fix>3d</fix>
</trkpt>
<trkpt lat="40.072842" lon="-105.230575">
  <ele>1586.09</ele>
  <time>2026-08-28T19:09:04Z</time>
  <course>11.82</course>
  <speed>0.0282842712474619</speed>
  <fix>3d</fix>
</trkpt>
<trkpt lat="40.072842" lon="-105.230575">
  <ele>1586.09</ele>
  <time>2026-08-28T19:09:04Z</time>
  <course>266.03</course>
  <speed>0.0</speed>
  <fix>3d</fix>
</trkpt>
<trkpt lat="40.072842" lon="-105.230575">
  <ele>1586.09</ele>
  <time>2026-08-28T19:09:04Z</time>
  <course>11.81</course>
  <speed>0.0282842712474619</speed>
  <fix>3d</fix>
</trkpt>
<trkpt lat="40.072842" lon="-105.230575">
  <ele>1586.09</ele>
  <time>2026-08-28T19:09:04Z</time>
  <course>266.03</course>
  <speed>0.0</speed>
  <fix>3d</fix>
</trkpt>
<trkpt lat="40.072842" lon="-105.230575">
  <ele>1586.09</ele>
  <time>2026-08-28T19:09:04Z</time>
  <course>11.8</course>
  <speed>0.0282842712474619</speed>
  <fix>3d</fix>
</trkpt>
<trkpt lat="40.072842" lon="-105.230575">
  <ele>1586.09</ele>
  <time>2026-08-28T19:09:04Z</time>
  <course>266.03</course>
  <speed>0.0</speed>
  <fix>3d</fix>
</trkpt>
<trkpt lat="40.072842" lon="-105.230575">
  <ele>1586.09</ele>
  <time>2026-08-28T19:09:04Z</time>
  <course>11.79</course>
  <speed>0.0282842712474619</speed>
  <fix>3d</fix>
</trkpt>
<trkpt lat="40.072842" lon="-105.230575">
  <ele>1586.09</ele>
  <time>2026-08-28T19:09:04Z</time>
  <course>266.03</course>
  <speed>0.0</speed>
  <fix>3d</fix>
</trkpt>
<trkpt lat="40.072842" lon="-105.230575">
  <ele>1586.09</ele>
  <time>2026-08-28T19:09:04Z</time>
  <course>11.78</course>
  <speed>0.0282842712474619</speed>
  <fix>3d</fix>
</trkpt>
<trkpt lat="40.072842" lon="-105.230575">
  <ele>1586.09</ele>
  <time>2026-08-28T19:09:04Z</time>
  <course>266.03</course>
  <speed>0.0</speed>
  <fix>3d</fix>
</trkpt>
<trkpt lat="40.072842" lon="-105.230575">
  <ele>1586.09</ele>
  <time>2026-08-28T19:09:04Z</time>
  <course>11.78</course>
  <speed>0.0282842712474619</speed>
  <fix>3d</fix>
</trkpt>
<trkpt lat="40.072842" lon="-105.230575">
  <ele>1586.09</ele>
  <time>2026-08-28T19:09:04Z</time>
  <course>266.03</course>
  <speed>0.0</speed>
  <fix>3d</fix>
</trkpt>
<trkpt lat="40.072842" lon="-105.230575">
  <ele>1586.09</ele>
  <time>2026-08-28T19:09:04Z</time>
  <course>11.77</course>
  <speed>0.0282842712474619</speed>
  <fix>3d</fix>
</trkpt>
<trkpt lat="40.072842" lon="-105.230575">
  <ele>1586.09</ele>
  <time>2026-08-28T19:09:04Z</time>
  <course>266.03</course>
  <speed>0.0</speed>
  <fix>3d</fix>
</trkpt>
<trkpt lat="40.072842" lon="-105.230575">
  <ele>1586.09</ele>
  <time>2026-08-28T19:09:04Z</time>
  <course>11.76</course>
  <speed>0.0282842712474619</speed>
  <fix>3d</fix>
</trkpt>
<trkpt lat="40.072842" lon="-105.230575">
  <ele>1586.09</ele>
  <time>2026-08-28T19:09:04Z</time>
  <course>266.03</course>
  <speed>0.0</speed>
  <fix>3d</fix>
</trkpt>
<trkpt lat="40.072842" lon="-105.230575">
  <ele>1586.09</ele>
  <time>2026-08-28T19:09:04Z</time>
  <course>11.76</course>
  <speed>0.0282842712474619</speed>
  <fix>3d</fix>
</trkpt>
<trkpt lat="40.072842" lon="-105.230575">
  <ele>1586.09</ele>
  <time>2026-08-28T19:09:04Z</time>
  <course>266.03</course>
  <speed>0.0</speed>
  <fix>3d</fix>
</trkpt>
<trkpt lat="40.072842" lon="-105.230575">
  <ele>1586.09</ele>
  <time>2026-08-28T19:09:04Z</time>
  <course>11.75</course>
  <speed>0.0282842712474619</speed>
  <fix>3d</fix>
</trkpt>
<trkpt lat="40.072842" lon="-105.230575">
  <ele>1586.09</ele>
  <time>2026-08-28T19:09:04Z</time>
  <course>266.03</course>
  <speed>0.0</speed>
  <fix>3d</fix>
</trkpt>
<trkpt lat="40.072842" lon="-105.230575">
  <ele>1586.09</ele>
  <time>2026-08-28T19:09:04Z</time>
  <course>11.74</course>
  <speed>0.03605551275463989</speed>
  <fix>3d</fix>
</trkpt>
<trkpt lat="40.072842" lon="-105.230575">
  <ele>1586.09</ele>
  <time>2026-08-28T19:09:04Z</time>
  <course>266.03</course>
  <speed>0.0</speed>
  <fix>3d</fix>
</trkpt>
<trkpt lat="40.072842" lon="-105.230575">
  <ele>1586.09</ele>
  <time>2026-08-28T19:09:04Z</time>
  <course>11.73</course>
  <speed>0.03605551275463989</speed>
  <fix>3d</fix>
</trkpt>
<trkpt lat="40.072842" lon="-105.230575">
  <ele>1586.09</ele>
  <time>2026-08-28T19:09:04Z</time>
  <course>266.03</course>
  <speed>0.0</speed>
  <fix>3d</fix>
</trkpt>
<trkpt lat="40.072842" lon="-105.230575">
  <ele>1586.09</ele>
  <time>2026-08-28T19:09:04Z</time>
  <course>11.73</course>
  <speed>0.03605551275463989</speed>
  <fix>3d</fix>
</trkpt>
<trkpt lat="40.072842" lon="-105.230575">
  <ele>1586.09</ele>
  <time>2026-08-28T19:09:04Z</time>
  <course>266.03</course>
  <speed>0.0</speed>
  <fix>3d</fix>
</trkpt>
<trkpt lat="40.072842" lon="-105.230575">
  <ele>1586.09</ele>
  <time>2026-08-28T19:09:04Z</time>
  <course>11.72</course>
  <speed>0.03605551275463989</speed>
  <fix>3d</fix>
</trkpt>
<trkpt lat="40.072842" lon="-105.230575">
  <ele>1586.09</ele>
  <time>2026-08-28T19:09:04Z</time>
  <course>266.03</course>
  <speed>0.0</speed>
  <fix>3d</fix>
</trkpt>
<trkpt lat="40.072842" lon="-105.230575">
  <ele>1586.09</ele>
  <time>2026-08-28T19:09:04Z</time>
  <course>11.71</course>
  <speed>0.03605551275463989</speed>
  <fix>3d</fix>
</trkpt>
<trkpt lat="40.072842" lon="-105.230575">
  <ele>1586.09</ele>
  <time>2026-08-28T19:09:04Z</time>
  <course>266.03</course>
  <speed>0.0</speed>
  <fix>3d</fix>
</trkpt>
<trkpt lat="40.072842" lon="-105.230575">
  <ele>1586.09</ele>
  <time>2026-08-28T19:09:04Z</time>
  <course>11.7</course>
  <speed>0.03605551275463989</speed>
  <fix>3d</fix>
</trkpt>
<trkpt lat="40.072842" lon="-105.230575">
  <ele>1586.09</ele>
  <time>2026-08-28T19:09:04Z</time>
  <course>266.03</course>
  <speed>0.0</speed>
  <fix>3d</fix>
</trkpt>
<trkpt lat="40.072842" lon="-105.230575">
  <ele>1586.09</ele>
  <time>2026-08-28T19:09:04Z</time>
  <course>11.69</course>
  <speed>0.03605551275463989</speed>
  <fix>3d</fix>
</trkpt>
<trkpt lat="40.072842" lon="-105.230575">
  <ele>1586.09</ele>
  <time>2026-08-28T19:09:04Z</time>
  <course>266.03</course>
  <speed>0.0</speed>
  <fix>3d</fix>
</trkpt>
<trkpt lat="40.072842" lon="-105.230575">
  <ele>1586.09</ele>
  <time>2026-08-28T19:09:04Z</time>
  <course>11.69</course>
  <speed>0.03605551275463989</speed>
  <fix>3d</fix>
</trkpt>
<trkpt lat="40.072842" lon="-105.230575">
  <ele>1586.09</ele>
  <time>2026-08-28T19:09:04Z</time>
  <course>266.03</course>
  <speed>0.0</speed>
  <fix>3d</fix>
</trkpt>
<trkpt lat="40.072842" lon="-105.230575">
  <ele>1586.09</ele>
  <time>2026-08-28T19:09:04Z</time>
  <course>11.68</course>
  <speed>0.03605551275463989</speed>
  <fix>3d</fix>
</trkpt>
<trkpt lat="40.072842" lon="-105.230575">
  <ele>1586.09</ele>
  <time>2026-08-28T19:09:04Z</time>
  <course>266.03</course>
  <speed>0.0</speed>
  <fix>3d</fix>
</trkpt>
<trkpt lat="40.072842" lon="-105.230575">
  <ele>1586.09</ele>
  <time>2026-08-28T19:09:04Z</time>
  <course>11.67</course>
  <speed>0.03605551275463989</speed>
  <fix>3d</fix>
</trkpt>
<trkpt lat="40.072842" lon="-105.230575">
  <ele>1586.09</ele>
  <time>2026-08-28T19:09:04Z</time>
  <course>266.03</course>
  <speed>0.0</speed>
  <fix>3d</fix>
</trkpt>
<trkpt lat="40.072842" lon="-105.230575">
  <ele>1586.09</ele>
  <time>2026-08-28T19:09:04Z</time>
  <course>11.67</course>
  <speed>0.03605551275463989</speed>
  <fix>3d</fix>
</trkpt>
<trkpt lat="40.072842" lon="-105.230575">
  <ele>1586.09</ele>
  <time>2026-08-28T19:09:04Z</time>
  <course>266.03</course>
  <speed>0.0</speed>
  <fix>3d</fix>
</trkpt>
<trkpt lat="40.072842" lon="-105.230575">
  <ele>1586.09</ele>
  <time>2026-08-28T19:09:04Z</time>
  <course>11.66</course>
  <speed>0.03605551275463989</speed>
  <fix>3d</fix>
</trkpt>
<trkpt lat="40.072842" lon="-105.230575">
  <ele>1586.09</ele>
  <time>2026-08-28T19:09:04Z</time>
  <course>266.03</course>
  <speed>0.0</speed>
  <fix>3d</fix>
</trkpt>
<trkpt lat="40.072842" lon="-105.230575">
  <ele>1586.09</ele>
  <time>2026-08-28T19:09:04Z</time>
  <course>11.65</course>
  <speed>0.03605551275463989</speed>
  <fix>3d</fix>
</trkpt>
<trkpt lat="40.072842" lon="-105.230575">
  <ele>1586.09</ele>
  <time>2026-08-28T19:09:04Z</time>
  <course>266.03</course>
  <speed>0.0</speed>
  <fix>3d</fix>
</trkpt>
<trkpt lat="40.072842" lon="-105.230575">
  <ele>1586.09</ele>
  <time>2026-08-28T19:09:04Z</time>
  <course>11.65</course>
  <speed>0.03605551275463989</speed>
  <fix>3d</fix>
</trkpt>
<trkpt lat="40.072842" lon="-105.230575">
  <ele>1586.09</ele>
  <time>2026-08-28T19:09:04Z</time>
  <course>266.03</course>
  <speed>0.0</speed>
  <fix>3d</fix>
</trkpt>
<trkpt lat="40.072842" lon="-105.230575">
  <ele>1586.09</ele>
  <time>2026-08-28T19:09:04Z</time>
  <course>11.64</course>
  <speed>0.03605551275463989</speed>
  <fix>3d</fix>
</trkpt>
<trkpt lat="40.072842" lon="-105.230575">
  <ele>1586.09</ele>
  <time>2026-08-28T19:09:04Z</time>
  <course>266.03</course>
  <speed>0.0</speed>
  <fix>3d</fix>
</trkpt>
<trkpt lat="40.072842" lon="-105.230575">
  <ele>1586.09</ele>
  <time>2026-08-28T19:09:04Z</time>
  <course>11.63</course>
  <speed>0.03605551275463989</speed>
  <fix>3d</fix>
</trkpt>
<trkpt lat="40.072842" lon="-105.230575">
  <ele>1586.09</ele>
  <time>2026-08-28T19:09:04Z</time>
  <course>266.03</course>
  <speed>0.0</speed>
  <fix>3d</fix>
</trkpt>
<trkpt lat="40.072842" lon="-105.230575">
  <ele>1586.09</ele>
  <time>2026-08-28T19:09:04Z</time>
  <course>11.62</course>
  <speed>0.03605551275463989</speed>
  <fix>3d</fix>
</trkpt>
<trkpt lat="40.072842" lon="-105.230575">
  <ele>1586.09</ele>
  <time>2026-08-28T19:09:04Z</time>
  <course>266.03</course>
  <speed>0.0</speed>
  <fix>3d</fix>
</trkpt>
<trkpt lat="40.072842" lon="-105.230575">
  <ele>1586.09</ele>
  <time>2026-08-28T19:09:04Z</time>
  <course>11.62</course>
  <speed>0.03605551275463989</speed>
  <fix>3d</fix>
</trkpt>
<trkpt lat="40.072842" lon="-105.230575">
  <ele>1586.09</ele>
  <time>2026-08-28T19:09:04Z</time>
  <course>266.03</course>
  <speed>0.0</speed>
  <fix>3d</fix>
</trkpt>
<trkpt lat="40.072842" lon="-105.230575">
  <ele>1586.09</ele>
  <time>2026-08-28T19:09:04Z</time>
  <course>11.61</course>
  <speed>0.03605551275463989</speed>
  <fix>3d</fix>
</trkpt>
<trkpt lat="40.072842" lon="-105.230575">
  <ele>1586.09</ele>
  <time>2026-08-28T19:09:04Z</time>
  <course>266.03</course>
  <speed>0.0</speed>
  <fix>3d</fix>
</trkpt>
<trkpt lat="40.072842" lon="-105.230575">
  <ele>1586.09</ele>
  <time>2026-08-28T19:09:04Z</time>
  <course>11.61</course>
  <speed>0.03605551275463989</speed>
  <fix>3d</fix>
</trkpt>
<trkpt lat="40.072842" lon="-105.230575">
  <ele>1586.09</ele>
  <time>2026-08-28T19:09:04Z</time>
  <course>266.03</course>
  <speed>0.0</speed>
  <fix>3d</fix>
</trkpt>
<trkpt lat="40.072842" lon="-105.230575">
  <ele>1586.09</ele>
  <time>2026-08-28T19:09:04Z</time>
  <course>11.6</course>
  <speed>0.03605551275463989</speed>
  <fix>3d</fix>
</trkpt>
<trkpt lat="40.072842" lon="-105.230575">
  <ele>1586.09</ele>
  <time>2026-08-28T19:09:04Z</time>
  <course>266.03</course>
  <speed>0.0</speed>
  <fix>3d</fix>
</trkpt>
<trkpt lat="40.072842" lon="-105.230575">
  <ele>1586.09</ele>
  <time>2026-08-28T19:09:04Z</time>
  <course>11.59</course>
  <speed>0.03605551275463989</speed>
  <fix>3d</fix>
</trkpt>
<trkpt lat="40.072842" lon="-105.230575">
  <ele>1586.09</ele>
  <time>2026-08-28T19:09:04Z</time>
  <course>266.03</course>
  <speed>0.0</speed>
  <fix>3d</fix>
</trkpt>
<trkpt lat="40.072842" lon="-105.230575">
  <ele>1586.09</ele>
  <time>2026-08-28T19:09:04Z</time>
  <course>11.59</course>
  <speed>0.03605551275463989</speed>
  <fix>3d</fix>
</trkpt>
<trkpt lat="40.072842" lon="-105.230575">
  <ele>1586.09</ele>
  <time>2026-08-28T19:09:04Z</time>
  <course>266.03</course>
  <speed>0.0</speed>
  <fix>3d</fix>
</trkpt>
<trkpt lat="40.072842" lon="-105.230575">
  <ele>1586.09</ele>
  <time>2026-08-28T19:09:04Z</time>
  <course>11.58</course>
  <speed>0.03605551275463989</speed>
  <fix>3d</fix>
</trkpt>
<trkpt lat="40.072842" lon="-105.230575">
  <ele>1586.09</ele>
  <time>2026-08-28T19:09:04Z</time>
  <course>266.03</course>
  <speed>0.0</speed>
  <fix>3d</fix>
</trkpt>
<trkpt lat="40.072842" lon="-105.230575">
  <ele>1586.09</ele>
  <time>2026-08-28T19:09:04Z</time>
  <course>11.57</course>
  <speed>0.03605551275463989</speed>
  <fix>3d</fix>
</trkpt>
<trkpt lat="40.072842" lon="-105.230575">
  <ele>1586.09</ele>
  <time>2026-08-28T19:09:04Z</time>
  <course>266.03</course>
  <speed>0.0</speed>
  <fix>3d</fix>
</trkpt>
<trkpt lat="40.072842" lon="-105.230575">
  <ele>1586.09</ele>
  <time>2026-08-28T19:09:04Z</time>
  <course>11.57</course>
  <speed>0.03605551275463989</speed>
  <fix>3d</fix>
</trkpt>
<trkpt lat="40.072842" lon="-105.230575">
  <ele>1586.09</ele>
  <time>2026-08-28T19:09:04Z</time>
  <course>266.03</course>
  <speed>0.0</speed>
  <fix>3d</fix>
</trkpt>
<trkpt lat="40.072842" lon="-105.230575">
  <ele>1586.09</ele>
  <time>2026-08-28T19:09:04Z</time>
  <course>11.56</course>
  <speed>0.03605551275463989</speed>
  <fix>3d</fix>
</trkpt>
<trkpt lat="40.072842" lon="-105.230575">
  <ele>1586.09</ele>
  <time>2026-08-28T19:09:04Z</time>
  <course>266.03</course>
  <speed>0.0</speed>
  <fix>3d</fix>
</trkpt>
<trkpt lat="40.072842" lon="-105.230575">
  <ele>1586.09</ele>
  <time>2026-08-28T19:09:04Z</time>
  <course>11.56</course>
  <speed>0.03605551275463989</speed>
  <fix>3d</fix>
</trkpt>
<trkpt lat="40.072842" lon="-105.230575">
  <ele>1586.09</ele>
  <time>2026-08-28T19:09:04Z</time>
  <course>266.03</course>
  <speed>0.0</speed>
  <fix>3d</fix>
</trkpt>
<trkpt lat="40.072842" lon="-105.230575">
  <ele>1586.09</ele>
  <time>2026-08-28T19:09:04Z</time>
  <course>11.55</course>
  <speed>0.03605551275463989</speed>
  <fix>3d</fix>
</trkpt>
<trkpt lat="40.072842" lon="-105.230575">
  <ele>1586.09</ele>
  <time>2026-08-28T19:09:04Z</time>
  <course>266.03</course>
  <speed>0.0</speed>
  <fix>3d</fix>
</trkpt>
<trkpt lat="40.072842" lon="-105.230575">
  <ele>1586.09</ele>
  <time>2026-08-28T19:09:04Z</time>
  <course>11.54</course>
  <speed>0.03605551275463989</speed>
  <fix>3d</fix>
</trkpt>
<trkpt lat="40.072842" lon="-105.230575">
  <ele>1586.09</ele>
  <time>2026-08-28T19:09:04Z</time>
  <course>266.03</course>
  <speed>0.0</speed>
  <fix>3d</fix>
</trkpt>
<trkpt lat="40.072842" lon="-105.230575">
  <ele>1586.09</ele>
  <time>2026-08-28T19:09:04Z</time>
  <course>11.54</course>
  <speed>0.03605551275463989</speed>
  <fix>3d</fix>
</trkpt>
<trkpt lat="40.072842" lon="-105.230575">
  <ele>1586.09</ele>
  <time>2026-08-28T19:09:04Z</time>
  <course>266.03</course>
  <speed>0.0</speed>
  <fix>3d</fix>
</trkpt>
<trkpt lat="40.072842" lon="-105.230575">
  <ele>1586.09</ele>
  <time>2026-08-28T19:09:04Z</time>
  <course>11.53</course>
  <speed>0.03605551275463989</speed>
  <fix>3d</fix>
</trkpt>
<trkpt lat="40.072842" lon="-105.230575">
  <ele>1586.09</ele>
  <time>2026-08-28T19:09:04Z</time>
  <course>266.03</course>
  <speed>0.0</speed>
  <fix>3d</fix>
</trkpt>
<trkpt lat="40.072842" lon="-105.230575">
  <ele>1586.09</ele>
  <time>2026-08-28T19:09:04Z</time>
  <course>11.53</course>
  <speed>0.03605551275463989</speed>
  <fix>3d</fix>
</trkpt>
<trkpt lat="40.072842" lon="-105.230575">
  <ele>1586.09</ele>
  <time>2026-08-28T19:09:04Z</time>
  <course>266.03</course>
  <speed>0.0</speed>
  <fix>3d</fix>
</trkpt>
<trkpt lat="40.072842" lon="-105.230575">
  <ele>1586.09</ele>
  <time>2026-08-28T19:09:04Z</time>
  <course>11.52</course>
  <speed>0.03605551275463989</speed>
  <fix>3d</fix>
</trkpt>
<trkpt lat="40.072842" lon="-105.230575">
  <ele>1586.09</ele>
  <time>2026-08-28T19:09:04Z</time>
  <course>266.03</course>
  <speed>0.0</speed>
  <fix>3d</fix>
</trkpt>
<trkpt lat="40.072842" lon="-105.230575">
  <ele>1586.09</ele>
  <time>2026-08-28T19:09:04Z</time>
  <course>11.51</course>
  <speed>0.03605551275463989</speed>
  <fix>3d</fix>
</trkpt>
<trkpt lat="40.072842" lon="-105.230575">
  <ele>1586.09</ele>
  <time>2026-08-28T19:09:04Z</time>
  <course>266.03</course>
  <speed>0.0</speed>
  <fix>3d</fix>
</trkpt>
<trkpt lat="40.072842" lon="-105.230575">
  <ele>1586.09</ele>
  <time>2026-08-28T19:09:04Z</time>
  <course>11.51</course>
  <speed>0.03605551275463989</speed>
  <fix>3d</fix>
</trkpt>
<trkpt lat="40.072842" lon="-105.230575">
  <ele>1586.09</ele>
  <time>2026-08-28T19:09:04Z</time>
  <course>266.03</course>
  <speed>0.0</speed>
  <fix>3d</fix>
</trkpt>
<trkpt lat="40.072842" lon="-105.230575">
  <ele>1586.09</ele>
  <time>2026-08-28T19:09:04Z</time>
  <course>11.5</course>
  <speed>0.03605551275463989</speed>
  <fix>3d</fix>
</trkpt>
<trkpt lat="40.072842" lon="-105.230575">
  <ele>1586.09</ele>
  <time>2026-08-28T19:09:04Z</time>
  <course>266.03</course>
  <speed>0.0</speed>
  <fix>3d</fix>
</trkpt>
<trkpt lat="40.072842" lon="-105.230575">
  <ele>1586.09</ele>
  <time>2026-08-28T19:09:04Z</time>
  <course>11.5</course>
  <speed>0.03605551275463989</speed>
  <fix>3d</fix>
</trkpt>
<trkpt lat="40.072842" lon="-105.230575">
  <ele>1586.09</ele>
  <time>2026-08-28T19:09:04Z</time>
  <course>266.03</course>
  <speed>0.0</speed>
  <fix>3d</fix>
</trkpt>
<trkpt lat="40.072842" lon="-105.230575">
  <ele>1586.09</ele>
  <time>2026-08-28T19:09:04Z</time>
  <course>11.49</course>
  <speed>0.044721359549995794</speed>
  <fix>3d</fix>
</trkpt>
<trkpt lat="40.072842" lon="-105.230575">
  <ele>1586.09</ele>
  <time>2026-08-28T19:09:04Z</time>
  <course>266.03</course>
  <speed>0.0</speed>
  <fix>3d</fix>
</trkpt>
<trkpt lat="40.072842" lon="-105.230575">
  <ele>1586.09</ele>
  <time>2026-08-28T19:09:04Z</time>
  <course>11.49</course>
  <speed>0.044721359549995794</speed>
  <fix>3d</fix>
</trkpt>
<trkpt lat="40.072842" lon="-105.230575">
  <ele>1586.09</ele>
  <time>2026-08-28T19:09:04Z</time>
  <course>266.03</course>
  <speed>0.0</speed>
  <fix>3d</fix>
</trkpt>
<trkpt lat="40.072842" lon="-105.230575">
  <ele>1586.09</ele>
  <time>2026-08-28T19:09:04Z</time>
  <course>11.48</course>
  <speed>0.044721359549995794</speed>
  <fix>3d</fix>
</trkpt>
<trkpt lat="40.072842" lon="-105.230575">
  <ele>1586.09</ele>
  <time>2026-08-28T19:09:04Z</time>
  <course>266.03</course>
  <speed>0.0</speed>
  <fix>3d</fix>
</trkpt>
<trkpt lat="40.072842" lon="-105.230575">
  <ele>1586.09</ele>
  <time>2026-08-28T19:09:04Z</time>
  <course>11.48</course>
  <speed>0.044721359549995794</speed>
  <fix>3d</fix>
</trkpt>
<trkpt lat="40.072842" lon="-105.230575">
  <ele>1586.09</ele>
  <time>2026-08-28T19:09:04Z</time>
  <course>266.03</course>
  <speed>0.0</speed>
  <fix>3d</fix>
</trkpt>
<trkpt lat="40.072842" lon="-105.230575">
  <ele>1586.09</ele>
  <time>2026-08-28T19:09:04Z</time>
  <course>11.47</course>
  <speed>0.044721359549995794</speed>
  <fix>3d</fix>
</trkpt>
<trkpt lat="40.072842" lon="-105.230575">
  <ele>1586.09</ele>
  <time>2026-08-28T19:09:04Z</time>
  <course>266.03</course>
  <speed>0.0</speed>
  <fix>3d</fix>
</trkpt>
<trkpt lat="40.072842" lon="-105.230575">
  <ele>1586.09</ele>
  <time>2026-08-28T19:09:04Z</time>
  <course>11.47</course>
  <speed>0.044721359549995794</speed>
  <fix>3d</fix>
</trkpt>
<trkpt lat="40.072842" lon="-105.230575">
  <ele>1586.09</ele>
  <time>2026-08-28T19:09:04Z</time>
  <course>266.03</course>
  <speed>0.0</speed>
  <fix>3d</fix>
</trkpt>
<trkpt lat="40.072842" lon="-105.230575">
  <ele>1586.09</ele>
  <time>2026-08-28T19:09:04Z</time>
  <course>11.46</course>
  <speed>0.044721359549995794</speed>
  <fix>3d</fix>
</trkpt>
<trkpt lat="40.072842" lon="-105.230575">
  <ele>1586.09</ele>
  <time>2026-08-28T19:09:04Z</time>
  <course>266.03</course>
  <speed>0.0</speed>
  <fix>3d</fix>
</trkpt>
<trkpt lat="40.072842" lon="-105.230575">
  <ele>1586.09</ele>
  <time>2026-08-28T19:09:04Z</time>
  <course>11.46</course>
  <speed>0.044721359549995794</speed>
  <fix>3d</fix>
</trkpt>
<trkpt lat="40.072842" lon="-105.230575">
  <ele>1586.09</ele>
  <time>2026-08-28T19:09:04Z</time>
  <course>266.03</course>
  <speed>0.0</speed>
  <fix>3d</fix>
</trkpt>
<trkpt lat="40.072842" lon="-105.230575">
  <ele>1586.15</ele>
  <time>2026-08-28T19:09:04Z</time>
  <course>11.45</course>
  <speed>0.0</speed>
  <fix>3d</fix>
</trkpt>
<trkpt lat="40.072842" lon="-105.230575">
  <ele>1586.09</ele>
  <time>2026-08-28T19:09:04Z</time>
  <course>266.03</course>
  <speed>0.0</speed>
  <fix>3d</fix>
</trkpt>
<trkpt lat="40.072842" lon="-105.230575">
  <ele>1586.15</ele>
  <time>2026-08-28T19:09:04Z</time>
  <course>11.45</course>
  <speed>0.0</speed>
  <fix>3d</fix>
</trkpt>
<trkpt lat="40.072842" lon="-105.230575">
  <ele>1586.09</ele>
  <time>2026-08-28T19:09:04Z</time>
  <course>266.03</course>
  <speed>0.0</speed>
  <fix>3d</fix>
</trkpt>
<trkpt lat="40.072842" lon="-105.230575">
  <ele>1586.14</ele>
  <time>2026-08-28T19:09:04Z</time>
  <course>11.44</course>
  <speed>0.0</speed>
  <fix>3d</fix>
</trkpt>
<trkpt lat="40.072842" lon="-105.230575">
  <ele>1586.09</ele>
  <time>2026-08-28T19:09:04Z</time>
  <course>281.49</course>
  <speed>0.0</speed>
  <fix>3d</fix>
</trkpt>
<trkpt lat="40.072842" lon="-105.230575">
  <ele>1586.14</ele>
  <time>2026-08-28T19:09:04Z</time>
  <course>11.44</course>
  <speed>0.0</speed>
  <fix>3d</fix>
</trkpt>
<trkpt lat="40.072842" lon="-105.230575">
  <ele>1586.09</ele>
  <time>2026-08-28T19:09:04Z</time>
  <course>269.42</course>
  <speed>0.0</speed>
  <fix>3d</fix>
</trkpt>
<trkpt lat="40.072842" lon="-105.230575">
  <ele>1586.14</ele>
  <time>2026-08-28T19:09:04Z</time>
  <course>11.43</course>
  <speed>0.0</speed>
  <fix>3d</fix>
</trkpt>
<trkpt lat="40.072842" lon="-105.230575">
  <ele>1586.09</ele>
  <time>2026-08-28T19:09:04Z</time>
  <course>211.84</course>
  <speed>0.0</speed>
  <fix>3d</fix>
</trkpt>
<trkpt lat="40.072842" lon="-105.230575">
  <ele>1586.14</ele>
  <time>2026-08-28T19:09:04Z</time>
  <course>11.43</course>
  <speed>0.01</speed>
  <fix>3d</fix>
</trkpt>
<trkpt lat="40.072842" lon="-105.230575">
  <ele>1586.09</ele>
  <time>2026-08-28T19:09:04Z</time>
  <course>76.8</course>
  <speed>0.0</speed>
  <fix>3d</fix>
</trkpt>
<trkpt lat="40.072842" lon="-105.230575">
  <ele>1586.14</ele>
  <time>2026-08-28T19:09:04Z</time>
  <course>11.42</course>
  <speed>0.01</speed>
  <fix>3d</fix>
</trkpt>
<trkpt lat="40.072842" lon="-105.230575">
  <ele>1586.09</ele>
  <time>2026-08-28T19:09:04Z</time>
  <course>283.66</course>
  <speed>0.0</speed>
  <fix>3d</fix>
</trkpt>
<trkpt lat="40.072842" lon="-105.230575">
  <ele>1586.14</ele>
  <time>2026-08-28T19:09:04Z</time>
  <course>11.42</course>
  <speed>0.01</speed>
  <fix>3d</fix>
</trkpt>
<trkpt lat="40.072842" lon="-105.230575">
  <ele>1586.09</ele>
  <time>2026-08-28T19:09:04Z</time>
  <course>262.24</course>
  <speed>0.0</speed>
  <fix>3d</fix>
</trkpt>
<trkpt lat="40.072842" lon="-105.230575">
  <ele>1586.14</ele>
  <time>2026-08-28T19:09:04Z</time>
  <course>11.41</course>
  <speed>0.01414213562373095</speed>
  <fix>3d</fix>
</trkpt>
<trkpt lat="40.072842" lon="-105.230575">
  <ele>1586.09</ele>
  <time>2026-08-28T19:09:04Z</time>
  <course>263.53</course>
  <speed>0.0</speed>
  <fix>3d</fix>
</trkpt>
<trkpt lat="40.072842" lon="-105.230575">
  <ele>1586.14</ele>
  <time>2026-08-28T19:09:04Z</time>
  <course>11.41</course>
  <speed>0.01414213562373095</speed>
  <fix>3d</fix>
</trkpt>
<trkpt lat="40.072842" lon="-105.230575">
  <ele>1586.09</ele>
  <time>2026-08-28T19:09:04Z</time>
  <course>267.07</course>
  <speed>0.0</speed>
  <fix>3d</fix>
</trkpt>
<trkpt lat="40.072842" lon="-105.230575">
  <ele>1586.15</ele>
  <time>2026-08-28T19:09:04Z</time>
  <course>11.41</course>
  <speed>0.01414213562373095</speed>
  <fix>3d</fix>
</trkpt>
<trkpt lat="40.072842" lon="-105.230575">
  <ele>1586.09</ele>
  <time>2026-08-28T19:09:04Z</time>
  <course>266.23</course>
  <speed>0.0</speed>
  <fix>3d</fix>
</trkpt>
<trkpt lat="40.072842" lon="-105.230575">
  <ele>1586.15</ele>
  <time>2026-08-28T19:09:04Z</time>
  <course>11.4</course>
  <speed>0.022360679774997897</speed>
  <fix>3d</fix>
</trkpt>
<trkpt lat="40.072842" lon="-105.230575">
  <ele>1586.09</ele>
  <time>2026-08-28T19:09:04Z</time>
  <course>265.88</course>
  <speed>0.0</speed>
  <fix>3d</fix>
</trkpt>
<trkpt lat="40.072842" lon="-105.230575">
  <ele>1586.15</ele>
  <time>2026-08-28T19:09:04Z</time>
  <course>11.4</course>
  <speed>0.022360679774997897</speed>
  <fix>3d</fix>
</trkpt>
<trkpt lat="40.072842" lon="-105.230575">
  <ele>1586.09</ele>
  <time>2026-08-28T19:09:04Z</time>
  <course>255.0</course>
  <speed>0.0</speed>
  <fix>3d</fix>
</trkpt>
<trkpt lat="40.072842" lon="-105.230575">
  <ele>1586.16</ele>
  <time>2026-08-28T19:09:04Z</time>
  <course>11.4</course>
  <speed>0.022360679774997897</speed>
  <fix>3d</fix>
</trkpt>
<trkpt lat="40.072842" lon="-105.230575">
  <ele>1586.09</ele>
  <time>2026-08-28T19:09:04Z</time>
  <course>260.49</course>
  <speed>0.0</speed>
  <fix>3d</fix>
</trkpt>
<trkpt lat="40.072842" lon="-105.230575">
  <ele>1586.16</ele>
  <time>2026-08-28T19:09:04Z</time>
  <course>11.39</course>
  <speed>0.022360679774997897</speed>
  <fix>3d</fix>
</trkpt>
<trkpt lat="40.072842" lon="-105.230575">
  <ele>1586.09</ele>
  <time>2026-08-28T19:09:04Z</time>
  <course>267.46</course>
  <speed>0.0</speed>
  <fix>3d</fix>
</trkpt>
<trkpt lat="40.072842" lon="-105.230575">
  <ele>1586.16</ele>
  <time>2026-08-28T19:09:04Z</time>
  <course>11.39</course>
  <speed>0.01414213562373095</speed>
  <fix>3d</fix>
</trkpt>
<trkpt lat="40.072842" lon="-105.230575">
  <ele>1586.09</ele>
  <time>2026-08-28T19:09:04Z</time>
  <course>264.28</course>
  <speed>0.0</speed>
  <fix>3d</fix>
</trkpt>
<trkpt lat="40.072842" lon="-105.230575">
  <ele>1586.16</ele>
  <time>2026-08-28T19:09:04Z</time>
  <course>11.39</course>
  <speed>0.01414213562373095</speed>
  <fix>3d</fix>
</trkpt>
<trkpt lat="40.072842" lon="-105.230575">
  <ele>1586.09</ele>
  <time>2026-08-28T19:09:04Z</time>
  <course>266.19</course>
  <speed>0.0</speed>
  <fix>3d</fix>
</trkpt>
<trkpt lat="40.072842" lon="-105.230575">
  <ele>1586.16</ele>
  <time>2026-08-28T19:09:04Z</time>
  <course>11.38</course>
  <speed>0.01</speed>
  <fix>3d</fix>
</trkpt>
<trkpt lat="40.072842" lon="-105.230575">
  <ele>1586.09</ele>
  <time>2026-08-28T19:09:04Z</time>
  <course>266.25</course>
  <speed>0.0</speed>
  <fix>3d</fix>
</trkpt>
<trkpt lat="40.072842" lon="-105.230575">
  <ele>1586.16</ele>
  <time>2026-08-28T19:09:04Z</time>
  <course>11.38</course>
  <speed>0.0</speed>
  <fix>3d</fix>
</trkpt>
<trkpt lat="40.072842" lon="-105.230575">
  <ele>1586.09</ele>
  <time>2026-08-28T19:09:04Z</time>
  <course>265.99</course>
  <speed>0.0</speed>
  <fix>3d</fix>
</trkpt>
<trkpt lat="40.072842" lon="-105.230575">
  <ele>1586.16</ele>
  <time>2026-08-28T19:09:04Z</time>
  <course>11.37</course>
  <speed>0.0</speed>
  <fix>3d</fix>
</trkpt>
<trkpt lat="40.072842" lon="-105.230575">
  <ele>1586.09</ele>
  <time>2026-08-28T19:09:04Z</time>
  <course>266.01</course>
  <speed>0.0</speed>
  <fix>3d</fix>
</trkpt>
<trkpt lat="40.072842" lon="-105.230575">
  <ele>1586.16</ele>
  <time>2026-08-28T19:09:04Z</time>
  <course>11.37</course>
  <speed>0.0</speed>
  <fix>3d</fix>
</trkpt>
<trkpt lat="40.072842" lon="-105.230575">
  <ele>1586.09</ele>
  <time>2026-08-28T19:09:04Z</time>
  <course>266.04</course>
  <speed>0.0</speed>
  <fix>3d</fix>
</trkpt>
<trkpt lat="40.072842" lon="-105.230575">
  <ele>1586.16</ele>
  <time>2026-08-28T19:09:04Z</time>
  <course>11.37</course>
  <speed>0.0</speed>
  <fix>3d</fix>
</trkpt>
<trkpt lat="40.072842" lon="-105.230575">
  <ele>1586.09</ele>
  <time>2026-08-28T19:09:04Z</time>
  <course>350.92</course>
  <speed>0.0</speed>
  <fix>3d</fix>
</trkpt>
<trkpt lat="40.072842" lon="-105.230575">
  <ele>1586.16</ele>
  <time>2026-08-28T19:09:04Z</time>
  <course>11.36</course>
  <speed>0.0</speed>
  <fix>3d</fix>
</trkpt>
<trkpt lat="40.072842" lon="-105.230575">
  <ele>1586.09</ele>
  <time>2026-08-28T19:09:04Z</time>
  <course>326.77</course>
  <speed>0.0</speed>
  <fix>3d</fix>
</trkpt>
<trkpt lat="40.072842" lon="-105.230575">
  <ele>1586.16</ele>
  <time>2026-08-28T19:09:04Z</time>
  <course>11.36</course>
  <speed>0.0</speed>
  <fix>3d</fix>
</trkpt>
<trkpt lat="40.072842" lon="-105.230575">
  <ele>1586.09</ele>
  <time>2026-08-28T19:09:04Z</time>
  <course>300.83</course>
  <speed>0.0</speed>
  <fix>3d</fix>
</trkpt>
<trkpt lat="40.072842" lon="-105.230575">
  <ele>1586.16</ele>
  <time>2026-08-28T19:09:04Z</time>
  <course>11.36</course>
  <speed>0.0</speed>
  <fix>3d</fix>
</trkpt>
<trkpt lat="40.072842" lon="-105.230575">
  <ele>1586.09</ele>
  <time>2026-08-28T19:09:04Z</time>
  <course>171.98</course>
  <speed>0.0</speed>
  <fix>3d</fix>
</trkpt>
<trkpt lat="40.072842" lon="-105.230575">
  <ele>1586.16</ele>
  <time>2026-08-28T19:09:04Z</time>
  <course>11.35</course>
  <speed>0.0</speed>
  <fix>3d</fix>
</trkpt>
<trkpt lat="40.072842" lon="-105.230575">
  <ele>1586.09</ele>
  <time>2026-08-28T19:09:04Z</time>
  <course>285.62</course>
  <speed>0.0</speed>
  <fix>3d</fix>
</trkpt>
<trkpt lat="40.072842" lon="-105.230575">
  <ele>1586.16</ele>
  <time>2026-08-28T19:09:04Z</time>
  <course>11.35</course>
  <speed>0.0</speed>
  <fix>3d</fix>
</trkpt>
<trkpt lat="40.072842" lon="-105.230575">
  <ele>1586.09</ele>
  <time>2026-08-28T19:09:04Z</time>
  <course>300.37</course>
  <speed>0.0</speed>
  <fix>3d</fix>
</trkpt>
<trkpt lat="40.072842" lon="-105.230575">
  <ele>1586.16</ele>
  <time>2026-08-28T19:09:04Z</time>
  <course>11.34</course>
  <speed>0.0</speed>
  <fix>3d</fix>
</trkpt>
<trkpt lat="40.072842" lon="-105.230575">
  <ele>1586.09</ele>
  <time>2026-08-28T19:09:04Z</time>
  <course>263.94</course>
  <speed>0.0</speed>
  <fix>3d</fix>
</trkpt>
<trkpt lat="40.072842" lon="-105.230575">
  <ele>1586.16</ele>
  <time>2026-08-28T19:09:04Z</time>
  <course>11.33</course>
  <speed>0.0</speed>
  <fix>3d</fix>
</trkpt>
<trkpt lat="40.072842" lon="-105.230575">
  <ele>1586.09</ele>
  <time>2026-08-28T19:09:04Z</time>
  <course>256.44</course>
  <speed>0.0</speed>
  <fix>3d</fix>
</trkpt>
<trkpt lat="40.072842" lon="-105.230575">
  <ele>1586.16</ele>
  <time>2026-08-28T19:09:04Z</time>
  <course>11.32</course>
  <speed>0.0</speed>
  <fix>3d</fix>
</trkpt>
<trkpt lat="40.072842" lon="-105.230575">
  <ele>1586.09</ele>
  <time>2026-08-28T19:09:04Z</time>
  <course>116.67</course>
  <speed>0.0</speed>
  <fix>3d</fix>
</trkpt>
<trkpt lat="40.072842" lon="-105.230575">
  <ele>1586.16</ele>
  <time>2026-08-28T19:09:04Z</time>
  <course>11.31</course>
  <speed>0.0</speed>
  <fix>3d</fix>
</trkpt>
<trkpt lat="40.072842" lon="-105.230575">
  <ele>1586.09</ele>
  <time>2026-08-28T19:09:04Z</time>
  <course>336.76</course>
  <speed>0.0</speed>
  <fix>3d</fix>
</trkpt>
<trkpt lat="40.072842" lon="-105.230575">
  <ele>1586.16</ele>
  <time>2026-08-28T19:09:04Z</time>
  <course>11.3</course>
  <speed>0.0</speed>
  <fix>3d</fix>
</trkpt>
<trkpt lat="40.072842" lon="-105.230575">
  <ele>1586.09</ele>
  <time>2026-08-28T19:09:04Z</time>
  <course>322.21</course>
  <speed>0.0</speed>
  <fix>3d</fix>
</trkpt>
<trkpt lat="40.072842" lon="-105.230575">
  <ele>1586.16</ele>
  <time>2026-08-28T19:09:04Z</time>
  <course>11.28</course>
  <speed>0.0</speed>
  <fix>3d</fix>
</trkpt>
<trkpt lat="40.072842" lon="-105.230575">
  <ele>1586.09</ele>
  <time>2026-08-28T19:09:04Z</time>
  <course>282.85</course>
  <speed>0.0</speed>
  <fix>3d</fix>
</trkpt>
<trkpt lat="40.072842" lon="-105.230575">
  <ele>1586.16</ele>
  <time>2026-08-28T19:09:04Z</time>
  <course>11.27</course>
  <speed>0.0</speed>
  <fix>3d</fix>
</trkpt>
<trkpt lat="40.072842" lon="-105.230575">
  <ele>1586.09</ele>
  <time>2026-08-28T19:09:04Z</time>
  <course>264.5</course>
  <speed>0.0</speed>
  <fix>3d</fix>
</trkpt>
<trkpt lat="40.072842" lon="-105.230575">
  <ele>1586.16</ele>
  <time>2026-08-28T19:09:04Z</time>
  <course>11.25</course>
  <speed>0.0</speed>
  <fix>3d</fix>
</trkpt>
<trkpt lat="40.072842" lon="-105.230575">
  <ele>1586.09</ele>
  <time>2026-08-28T19:09:04Z</time>
  <course>252.03</course>
  <speed>0.0</speed>
  <fix>3d</fix>
</trkpt>
<trkpt lat="40.072842" lon="-105.230575">
  <ele>1586.16</ele>
  <time>2026-08-28T19:09:04Z</time>
  <course>11.23</course>
  <speed>0.0</speed>
  <fix>3d</fix>
</trkpt>
<trkpt lat="40.072842" lon="-105.230575">
  <ele>1586.09</ele>
  <time>2026-08-28T19:09:04Z</time>
  <course>283.26</course>
  <speed>0.0</speed>
  <fix>3d</fix>
</trkpt>
<trkpt lat="40.072842" lon="-105.230575">
  <ele>1586.16</ele>
  <time>2026-08-28T19:09:04Z</time>
  <course>11.21</course>
  <speed>0.0</speed>
  <fix>3d</fix>
</trkpt>
<trkpt lat="40.072842" lon="-105.230575">
  <ele>1586.09</ele>
  <time>2026-08-28T19:09:04Z</time>
  <course>295.98</course>
  <speed>0.0</speed>
  <fix>3d</fix>
</trkpt>
<trkpt lat="40.072842" lon="-105.230575">
  <ele>1586.16</ele>
  <time>2026-08-28T19:09:04Z</time>
  <course>11.19</course>
  <speed>0.0</speed>
  <fix>3d</fix>
</trkpt>
<trkpt lat="40.072842" lon="-105.230575">
  <ele>1586.09</ele>
  <time>2026-08-28T19:09:04Z</time>
  <course>311.8</course>
  <speed>0.0</speed>
  <fix>3d</fix>
</trkpt>
<trkpt lat="40.072842" lon="-105.230575">
  <ele>1586.16</ele>
  <time>2026-08-28T19:09:04Z</time>
  <course>11.17</course>
  <speed>0.0</speed>
  <fix>3d</fix>
</trkpt>
<trkpt lat="40.072842" lon="-105.230575">
  <ele>1586.09</ele>
  <time>2026-08-28T19:09:04Z</time>
  <course>282.91</course>
  <speed>0.0</speed>
  <fix>3d</fix>
</trkpt>
<trkpt lat="40.072842" lon="-105.230575">
  <ele>1586.17</ele>
  <time>2026-08-28T19:09:04Z</time>
  <course>11.14</course>
  <speed>0.0</speed>
  <fix>3d</fix>
</trkpt>
<trkpt lat="40.072842" lon="-105.230575">
  <ele>1586.09</ele>
  <time>2026-08-28T19:09:04Z</time>
  <course>255.3</course>
  <speed>0.0</speed>
  <fix>3d</fix>
</trkpt>
<trkpt lat="40.072842" lon="-105.230575">
  <ele>1586.17</ele>
  <time>2026-08-28T19:09:04Z</time>
  <course>11.12</course>
  <speed>0.0</speed>
  <fix>3d</fix>
</trkpt>
<trkpt lat="40.072842" lon="-105.230575">
  <ele>1586.09</ele>
  <time>2026-08-28T19:09:04Z</time>
  <course>268.56</course>
  <speed>0.0</speed>
  <fix>3d</fix>
</trkpt>
<trkpt lat="40.072842" lon="-105.230575">
  <ele>1586.17</ele>
  <time>2026-08-28T19:09:04Z</time>
  <course>11.09</course>
  <speed>0.01</speed>
  <fix>3d</fix>
</trkpt>
<trkpt lat="40.072842" lon="-105.230575">
  <ele>1586.09</ele>
  <time>2026-08-28T19:09:04Z</time>
  <course>281.04</course>
  <speed>0.0</speed>
  <fix>3d</fix>
</trkpt>
<trkpt lat="40.072842" lon="-105.230575">
  <ele>1586.17</ele>
  <time>2026-08-28T19:09:04Z</time>
  <course>11.06</course>
  <speed>0.01</speed>
  <fix>3d</fix>
</trkpt>
<trkpt lat="40.072842" lon="-105.230575">
  <ele>1586.09</ele>
  <time>2026-08-28T19:09:04Z</time>
  <course>296.44</course>
  <speed>0.0</speed>
  <fix>3d</fix>
</trkpt>
<trkpt lat="40.072842" lon="-105.230575">
  <ele>1586.18</ele>
  <time>2026-08-28T19:09:04Z</time>
  <course>11.03</course>
  <speed>0.01</speed>
  <fix>3d</fix>
</trkpt>
<trkpt lat="40.072842" lon="-105.230575">
  <ele>1586.09</ele>
  <time>2026-08-28T19:09:04Z</time>
  <course>270.59</course>
  <speed>0.0</speed>
  <fix>3d</fix>
</trkpt>
<trkpt lat="40.072842" lon="-105.230575">
  <ele>1586.18</ele>
  <time>2026-08-28T19:09:04Z</time>
  <course>11.0</course>
  <speed>0.01</speed>
  <fix>3d</fix>
</trkpt>
<trkpt lat="40.072842" lon="-105.230575">
  <ele>1586.09</ele>
  <time>2026-08-28T19:09:04Z</time>
  <course>258.01</course>
  <speed>0.0</speed>
  <fix>3d</fix>
</trkpt>
<trkpt lat="40.072842" lon="-105.230575">
  <ele>1586.18</ele>
  <time>2026-08-28T19:09:04Z</time>
  <course>10.97</course>
  <speed>0.01</speed>
  <fix>3d</fix>
</trkpt>
<trkpt lat="40.072842" lon="-105.230575">
  <ele>1586.09</ele>
  <time>2026-08-28T19:09:04Z</time>
  <course>274.74</course>
  <speed>0.0</speed>
  <fix>3d</fix>
</trkpt>
<trkpt lat="40.072842" lon="-105.230575">
  <ele>1586.18</ele>
  <time>2026-08-28T19:09:04Z</time>
  <course>10.94</course>
  <speed>0.01414213562373095</speed>
  <fix>3d</fix>
</trkpt>
<trkpt lat="40.072842" lon="-105.230575">
  <ele>1586.09</ele>
  <time>2026-08-28T19:09:04Z</time>
  <course>273.69</course>
  <speed>0.0</speed>
  <fix>3d</fix>
</trkpt>
<trkpt lat="40.072842" lon="-105.230575">
  <ele>1586.18</ele>
  <time>2026-08-28T19:09:04Z</time>
  <course>10.9</course>
  <speed>0.01414213562373095</speed>
  <fix>3d</fix>
</trkpt>
<trkpt lat="40.072842" lon="-105.230575">
  <ele>1586.09</ele>
  <time>2026-08-28T19:09:04Z</time>
  <course>274.18</course>
  <speed>0.0</speed>
  <fix>3d</fix>
</trkpt>
<trkpt lat="40.072842" lon="-105.230575">
  <ele>1586.18</ele>
  <time>2026-08-28T19:09:04Z</time>
  <course>10.87</course>
  <speed>0.01414213562373095</speed>
  <fix>3d</fix>
</trkpt>
<trkpt lat="40.072842" lon="-105.230575">
  <ele>1586.09</ele>
  <time>2026-08-28T19:09:04Z</time>
  <course>291.47</course>
  <speed>0.0</speed>
  <fix>3d</fix>
</trkpt>
<trkpt lat="40.072842" lon="-105.230575">
  <ele>1586.18</ele>
  <time>2026-08-28T19:09:04Z</time>
  <course>10.83</course>
  <speed>0.01414213562373095</speed>
  <fix>3d</fix>
</trkpt>
<trkpt lat="40.072842" lon="-105.230575">
  <ele>1586.09</ele>
  <time>2026-08-28T19:09:04Z</time>
  <course>285.08</course>
  <speed>0.0</speed>
  <fix>3d</fix>
</trkpt>
<trkpt lat="40.072842" lon="-105.230575">
  <ele>1586.18</ele>
  <time>2026-08-28T19:09:04Z</time>
  <course>10.79</course>
  <speed>0.01414213562373095</speed>
  <fix>3d</fix>
</trkpt>
<trkpt lat="40.072842" lon="-105.230575">
  <ele>1586.09</ele>
  <time>2026-08-28T19:09:04Z</time>
  <course>269.1</course>
  <speed>0.0</speed>
  <fix>3d</fix>
</trkpt>
<trkpt lat="40.0728419" lon="-105.230575">
  <ele>1586.18</ele>
  <time>2026-08-28T19:09:04Z</time>
  <course>10.75</course>
  <speed>0.01414213562373095</speed>
  <fix>3d</fix>
</trkpt>
<trkpt lat="40.072842" lon="-105.230575">
  <ele>1586.09</ele>
  <time>2026-08-28T19:09:04Z</time>
  <course>268.41</course>
  <speed>0.0</speed>
  <fix>3d</fix>
</trkpt>
<trkpt lat="40.0728419" lon="-105.230575">
  <ele>1586.17</ele>
  <time>2026-08-28T19:09:04Z</time>
  <course>10.71</course>
  <speed>0.01414213562373095</speed>
  <fix>3d</fix>
</trkpt>
<trkpt lat="40.072842" lon="-105.230575">
  <ele>1586.09</ele>
  <time>2026-08-28T19:09:04Z</time>
  <course>270.15</course>
  <speed>0.0</speed>
  <fix>3d</fix>
</trkpt>
<trkpt lat="40.0728419" lon="-105.230575">
  <ele>1586.17</ele>
  <time>2026-08-28T19:09:04Z</time>
  <course>10.67</course>
  <speed>0.022360679774997897</speed>
  <fix>3d</fix>
</trkpt>
<trkpt lat="40.072842" lon="-105.230575">
  <ele>1586.09</ele>
  <time>2026-08-28T19:09:04Z</time>
  <course>269.15</course>
  <speed>0.0</speed>
  <fix>3d</fix>
</trkpt>
<trkpt lat="40.0728419" lon="-105.2305749">
  <ele>1586.17</ele>
  <time>2026-08-28T19:09:04Z</time>
  <course>10.63</course>
  <speed>0.022360679774997897</speed>
  <fix>3d</fix>
</trkpt>
<trkpt lat="40.072842" lon="-105.230575">
  <ele>1586.09</ele>
  <time>2026-08-28T19:09:04Z</time>
  <course>281.62</course>
  <speed>0.0</speed>
  <fix>3d</fix>
</trkpt>
<trkpt lat="40.0728419" lon="-105.2305749">
  <ele>1586.17</ele>
  <time>2026-08-28T19:09:04Z</time>
  <course>10.58</course>
  <speed>0.022360679774997897</speed>
  <fix>3d</fix>
</trkpt>
<trkpt lat="40.072842" lon="-105.230575">
  <ele>1586.09</ele>
  <time>2026-08-28T19:09:04Z</time>
  <course>279.36</course>
  <speed>0.0</speed>
  <fix>3d</fix>
</trkpt>
<trkpt lat="40.0728419" lon="-105.2305749">
  <ele>1586.17</ele>
  <time>2026-08-28T19:09:04Z</time>
  <course>10.54</course>
  <speed>0.022360679774997897</speed>
  <fix>3d</fix>
</trkpt>
<trkpt lat="40.072842" lon="-105.230575">
  <ele>1586.09</ele>
  <time>2026-08-28T19:09:04Z</time>
  <course>267.08</course>
  <speed>0.0</speed>
  <fix>3d</fix>
</trkpt>
<trkpt lat="40.0728419" lon="-105.2305749">
  <ele>1586.17</ele>
  <time>2026-08-28T19:09:04Z</time>
  <course>10.49</course>
  <speed>0.022360679774997897</speed>
  <fix>3d</fix>
</trkpt>
<trkpt lat="40.072842" lon="-105.230575">
  <ele>1586.09</ele>
  <time>2026-08-28T19:09:04Z</time>
  <course>268.15</course>
  <speed>0.0</speed>
  <fix>3d</fix>
</trkpt>
<trkpt lat="40.0728419" lon="-105.2305749">
  <ele>1586.17</ele>
  <time>2026-08-28T19:09:04Z</time>
  <course>10.45</course>
  <speed>0.022360679774997897</speed>
  <fix>3d</fix>
</trkpt>
<trkpt lat="40.072842" lon="-105.230575">
  <ele>1586.09</ele>
  <time>2026-08-28T19:09:04Z</time>
  <course>267.69</course>
  <speed>0.0</speed>
  <fix>3d</fix>
</trkpt>
<trkpt lat="40.0728419" lon="-105.2305749">
  <ele>1586.18</ele>
  <time>2026-08-28T19:09:04Z</time>
  <course>10.4</course>
  <speed>0.022360679774997897</speed>
  <fix>3d</fix>
</trkpt>
<trkpt lat="40.072842" lon="-105.230575">
  <ele>1586.09</ele>
  <time>2026-08-28T19:09:04Z</time>
  <course>271.63</course>
  <speed>0.0</speed>
  <fix>3d</fix>
</trkpt>
<trkpt lat="40.0728419" lon="-105.2305749">
  <ele>1586.18</ele>
  <time>2026-08-28T19:09:04Z</time>
  <course>10.35</course>
  <speed>0.022360679774997897</speed>
  <fix>3d</fix>
</trkpt>
<trkpt lat="40.072842" lon="-105.230575">
  <ele>1586.09</ele>
  <time>2026-08-28T19:09:04Z</time>
  <course>279.36</course>
  <speed>0.0</speed>
  <fix>3d</fix>
</trkpt>
<trkpt lat="40.0728419" lon="-105.2305749">
  <ele>1586.18</ele>
  <time>2026-08-28T19:09:04Z</time>
  <course>10.3</course>
  <speed>0.022360679774997897</speed>
  <fix>3d</fix>
</trkpt>
<trkpt lat="40.072842" lon="-105.230575">
  <ele>1586.09</ele>
  <time>2026-08-28T19:09:04Z</time>
  <course>274.57</course>
  <speed>0.0</speed>
  <fix>3d</fix>
</trkpt>
<trkpt lat="40.0728419" lon="-105.2305749">
  <ele>1586.18</ele>
  <time>2026-08-28T19:09:04Z</time>
  <course>10.25</course>
  <speed>0.022360679774997897</speed>
  <fix>3d</fix>
</trkpt>
<trkpt lat="40.072842" lon="-105.230575">
  <ele>1586.09</ele>
  <time>2026-08-28T19:09:04Z</time>
  <course>268.64</course>
  <speed>0.0</speed>
  <fix>3d</fix>
</trkpt>
<trkpt lat="40.0728419" lon="-105.2305749">
  <ele>1586.18</ele>
  <time>2026-08-28T19:09:04Z</time>
  <course>10.2</course>
  <speed>0.022360679774997897</speed>
  <fix>3d</fix>
</trkpt>
<trkpt lat="40.072842" lon="-105.230575">
  <ele>1586.09</ele>
  <time>2026-08-28T19:09:04Z</time>
  <course>268.68</course>
  <speed>0.0</speed>
  <fix>3d</fix>
</trkpt>
<trkpt lat="40.0728419" lon="-105.2305749">
  <ele>1586.18</ele>
  <time>2026-08-28T19:09:04Z</time>
  <course>10.15</course>
  <speed>0.022360679774997897</speed>
  <fix>3d</fix>
</trkpt>
<trkpt lat="40.072842" lon="-105.230575">
  <ele>1586.09</ele>
  <time>2026-08-28T19:09:04Z</time>
  <course>268.23</course>
  <speed>0.0</speed>
  <fix>3d</fix>
</trkpt>
<trkpt lat="40.0728419" lon="-105.2305749">
  <ele>1586.18</ele>
  <time>2026-08-28T19:09:04Z</time>
  <course>10.1</course>
  <speed>0.022360679774997897</speed>
  <fix>3d</fix>
</trkpt>
<trkpt lat="40.072842" lon="-105.230575">
  <ele>1586.09</ele>
  <time>2026-08-28T19:09:04Z</time>
  <course>269.9</course>
  <speed>0.0</speed>
  <fix>3d</fix>
</trkpt>
<trkpt lat="40.0728419" lon="-105.2305749">
  <ele>1586.18</ele>
  <time>2026-08-28T19:09:04Z</time>
  <course>10.05</course>
  <speed>0.022360679774997897</speed>
  <fix>3d</fix>
</trkpt>
<trkpt lat="40.072842" lon="-105.230575">
  <ele>1586.09</ele>
  <time>2026-08-28T19:09:04Z</time>
  <course>279.78</course>
  <speed>0.0</speed>
  <fix>3d</fix>
</trkpt>
<trkpt lat="40.0728419" lon="-105.2305749">
  <ele>1586.18</ele>
  <time>2026-08-28T19:09:04Z</time>
  <course>10.0</course>
  <speed>0.022360679774997897</speed>
  <fix>3d</fix>
</trkpt>
<trkpt lat="40.072842" lon="-105.230575">
  <ele>1586.09</ele>
  <time>2026-08-28T19:09:04Z</time>
  <course>280.38</course>
  <speed>0.0</speed>
  <fix>3d</fix>
</trkpt>
<trkpt lat="40.0728419" lon="-105.2305749">
  <ele>1586.18</ele>
  <time>2026-08-28T19:09:04Z</time>
  <course>9.95</course>
  <speed>0.022360679774997897</speed>
  <fix>3d</fix>
</trkpt>
<trkpt lat="40.072842" lon="-105.230575">
  <ele>1586.09</ele>
  <time>2026-08-28T19:09:04Z</time>
  <course>268.33</course>
  <speed>0.0</speed>
  <fix>3d</fix>
</trkpt>
<trkpt lat="40.0728419" lon="-105.2305749">
  <ele>1586.18</ele>
  <time>2026-08-28T19:09:04Z</time>
  <course>9.9</course>
  <speed>0.022360679774997897</speed>
  <fix>3d</fix>
</trkpt>
<trkpt lat="40.072842" lon="-105.230575">
  <ele>1586.09</ele>
  <time>2026-08-28T19:09:04Z</time>
  <course>266.39</course>
  <speed>0.0</speed>
  <fix>3d</fix>
</trkpt>
<trkpt lat="40.0728419" lon="-105.2305749">
  <ele>1586.18</ele>
  <time>2026-08-28T19:09:04Z</time>
  <course>9.86</course>
  <speed>0.022360679774997897</speed>
  <fix>3d</fix>
</trkpt>
<trkpt lat="40.072842" lon="-105.230575">
  <ele>1586.09</ele>
  <time>2026-08-28T19:09:04Z</time>
  <course>268.5</course>
  <speed>0.0</speed>
  <fix>3d</fix>
</trkpt>
<trkpt lat="40.0728419" lon="-105.2305749">
  <ele>1586.18</ele>
  <time>2026-08-28T19:09:05Z</time>
  <course>9.81</course>
  <speed>0.022360679774997897</speed>
  <fix>3d</fix>
</trkpt>
<trkpt lat="40.072842" lon="-105.230575">
  <ele>1586.09</ele>
  <time>2026-08-28T19:09:05Z</time>
  <course>270.16</course>
  <speed>0.0</speed>
  <fix>3d</fix>
</trkpt>
<trkpt lat="40.0728419" lon="-105.2305749">
  <ele>1586.18</ele>
  <time>2026-08-28T19:09:05Z</time>
  <course>9.76</course>
  <speed>0.022360679774997897</speed>
  <fix>3d</fix>
</trkpt>
<trkpt lat="40.072842" lon="-105.230575">
  <ele>1586.09</ele>
  <time>2026-08-28T19:09:05Z</time>
  <course>269.4</course>
  <speed>0.0</speed>
  <fix>3d</fix>
</trkpt>
<trkpt lat="40.0728419" lon="-105.2305749">
  <ele>1586.18</ele>
  <time>2026-08-28T19:09:05Z</time>
  <course>9.71</course>
  <speed>0.022360679774997897</speed>
  <fix>3d</fix>
</trkpt>
<trkpt lat="40.072842" lon="-105.230575">
  <ele>1586.09</ele>
  <time>2026-08-28T19:09:05Z</time>
  <course>274.35</course>
  <speed>0.0</speed>
  <fix>3d</fix>
</trkpt>
<trkpt lat="40.0728419" lon="-105.2305749">
  <ele>1586.18</ele>
  <time>2026-08-28T19:09:05Z</time>
  <course>9.67</course>
  <speed>0.022360679774997897</speed>
  <fix>3d</fix>
</trkpt>
<trkpt lat="40.072842" lon="-105.230575">
  <ele>1586.09</ele>
  <time>2026-08-28T19:09:05Z</time>
  <course>280.65</course>
  <speed>0.0</speed>
  <fix>3d</fix>
</trkpt>
<trkpt lat="40.0728419" lon="-105.2305749">
  <ele>1586.18</ele>
  <time>2026-08-28T19:09:05Z</time>
  <course>9.62</course>
  <speed>0.022360679774997897</speed>
  <fix>3d</fix>
</trkpt>
<trkpt lat="40.072842" lon="-105.230575">
  <ele>1586.09</ele>
  <time>2026-08-28T19:09:05Z</time>
  <course>271.18</course>
  <speed>0.0</speed>
  <fix>3d</fix>
</trkpt>
<trkpt lat="40.0728419" lon="-105.2305749">
  <ele>1586.18</ele>
  <time>2026-08-28T19:09:05Z</time>
  <course>9.58</course>
  <speed>0.022360679774997897</speed>
  <fix>3d</fix>
</trkpt>
<trkpt lat="40.072842" lon="-105.230575">
  <ele>1586.09</ele>
  <time>2026-08-28T19:09:05Z</time>
  <course>265.44</course>
  <speed>0.0</speed>
  <fix>3d</fix>
</trkpt>
<trkpt lat="40.0728419" lon="-105.2305749">
  <ele>1586.18</ele>
  <time>2026-08-28T19:09:05Z</time>
  <course>9.54</course>
  <speed>0.022360679774997897</speed>
  <fix>3d</fix>
</trkpt>
<trkpt lat="40.072842" lon="-105.230575">
  <ele>1586.09</ele>
  <time>2026-08-28T19:09:05Z</time>
  <course>268.93</course>
  <speed>0.0</speed>
  <fix>3d</fix>
</trkpt>
<trkpt lat="40.0728419" lon="-105.2305749">
  <ele>1586.18</ele>
  <time>2026-08-28T19:09:05Z</time>
  <course>9.5</course>
  <speed>0.022360679774997897</speed>
  <fix>3d</fix>
</trkpt>
<trkpt lat="40.072842" lon="-105.230575">
  <ele>1586.09</ele>
  <time>2026-08-28T19:09:05Z</time>
  <course>269.86</course>
  <speed>0.0</speed>
  <fix>3d</fix>
</trkpt>
<trkpt lat="40.0728419" lon="-105.2305749">
  <ele>1586.18</ele>
  <time>2026-08-28T19:09:05Z</time>
  <course>9.45</course>
  <speed>0.022360679774997897</speed>
  <fix>3d</fix>
</trkpt>
<trkpt lat="40.072842" lon="-105.230575">
  <ele>1586.09</ele>
  <time>2026-08-28T19:09:05Z</time>
  <course>269.04</course>
  <speed>0.0</speed>
  <fix>3d</fix>
</trkpt>
<trkpt lat="40.0728419" lon="-105.2305749">
  <ele>1586.18</ele>
  <time>2026-08-28T19:09:05Z</time>
  <course>9.41</course>
  <speed>0.022360679774997897</speed>
  <fix>3d</fix>
</trkpt>
<trkpt lat="40.072842" lon="-105.230575">
  <ele>1586.09</ele>
  <time>2026-08-28T19:09:05Z</time>
  <course>268.8</course>
  <speed>0.0</speed>
  <fix>3d</fix>
</trkpt>
<trkpt lat="40.0728419" lon="-105.2305749">
  <ele>1586.17</ele>
  <time>2026-08-28T19:09:05Z</time>
  <course>9.38</course>
  <speed>0.022360679774997897</speed>
  <fix>3d</fix>
</trkpt>
<trkpt lat="40.072842" lon="-105.230575">
  <ele>1586.09</ele>
  <time>2026-08-28T19:09:05Z</time>
  <course>267.85</course>
  <speed>0.0</speed>
  <fix>3d</fix>
</trkpt>
<trkpt lat="40.0728419" lon="-105.2305749">
  <ele>1586.17</ele>
  <time>2026-08-28T19:09:05Z</time>
  <course>9.34</course>
  <speed>0.022360679774997897</speed>
  <fix>3d</fix>
</trkpt>
<trkpt lat="40.072842" lon="-105.230575">
  <ele>1586.09</ele>
  <time>2026-08-28T19:09:05Z</time>
  <course>266.82</course>
  <speed>0.0</speed>
  <fix>3d</fix>
</trkpt>
<trkpt lat="40.0728419" lon="-105.2305749">
  <ele>1586.17</ele>
  <time>2026-08-28T19:09:05Z</time>
  <course>9.3</course>
  <speed>0.022360679774997897</speed>
  <fix>3d</fix>
</trkpt>
<trkpt lat="40.072842" lon="-105.230575">
  <ele>1586.09</ele>
  <time>2026-08-28T19:09:05Z</time>
  <course>266.52</course>
  <speed>0.0</speed>
  <fix>3d</fix>
</trkpt>
<trkpt lat="40.0728419" lon="-105.2305749">
  <ele>1586.17</ele>
  <time>2026-08-28T19:09:05Z</time>
  <course>9.26</course>
  <speed>0.022360679774997897</speed>
  <fix>3d</fix>
</trkpt>
<trkpt lat="40.072842" lon="-105.230575">
  <ele>1586.09</ele>
  <time>2026-08-28T19:09:05Z</time>
  <course>268.0</course>
  <speed>0.0</speed>
  <fix>3d</fix>
</trkpt>
<trkpt lat="40.0728419" lon="-105.2305749">
  <ele>1586.17</ele>
  <time>2026-08-28T19:09:05Z</time>
  <course>9.23</course>
  <speed>0.022360679774997897</speed>
  <fix>3d</fix>
</trkpt>
<trkpt lat="40.072842" lon="-105.230575">
  <ele>1586.09</ele>
  <time>2026-08-28T19:09:05Z</time>
  <course>269.0</course>
  <speed>0.0</speed>
  <fix>3d</fix>
</trkpt>
<trkpt lat="40.0728419" lon="-105.2305749">
  <ele>1586.18</ele>
  <time>2026-08-28T19:09:05Z</time>
  <course>9.19</course>
  <speed>0.022360679774997897</speed>
  <fix>3d</fix>
</trkpt>
<trkpt lat="40.072842" lon="-105.230575">
  <ele>1586.09</ele>
  <time>2026-08-28T19:09:05Z</time>
  <course>268.63</course>
  <speed>0.0</speed>
  <fix>3d</fix>
</trkpt>
<trkpt lat="40.0728419" lon="-105.2305749">
  <ele>1586.18</ele>
  <time>2026-08-28T19:09:05Z</time>
  <course>9.16</course>
  <speed>0.022360679774997897</speed>
  <fix>3d</fix>
</trkpt>
<trkpt lat="40.072842" lon="-105.230575">
  <ele>1586.09</ele>
  <time>2026-08-28T19:09:05Z</time>
  <course>268.64</course>
  <speed>0.0</speed>
  <fix>3d</fix>
</trkpt>
<trkpt lat="40.0728419" lon="-105.2305749">
  <ele>1586.18</ele>
  <time>2026-08-28T19:09:05Z</time>
  <course>9.13</course>
  <speed>0.022360679774997897</speed>
  <fix>3d</fix>
</trkpt>
<trkpt lat="40.072842" lon="-105.230575">
  <ele>1586.09</ele>
  <time>2026-08-28T19:09:05Z</time>
  <course>268.65</course>
  <speed>0.0</speed>
  <fix>3d</fix>
</trkpt>
<trkpt lat="40.0728419" lon="-105.2305749">
  <ele>1586.18</ele>
  <time>2026-08-28T19:09:05Z</time>
  <course>9.1</course>
  <speed>0.022360679774997897</speed>
  <fix>3d</fix>
</trkpt>
<trkpt lat="40.072842" lon="-105.230575">
  <ele>1586.09</ele>
  <time>2026-08-28T19:09:05Z</time>
  <course>268.59</course>
  <speed>0.0</speed>
  <fix>3d</fix>
</trkpt>
<trkpt lat="40.0728419" lon="-105.2305749">
  <ele>1586.18</ele>
  <time>2026-08-28T19:09:05Z</time>
  <course>9.07</course>
  <speed>0.022360679774997897</speed>
  <fix>3d</fix>
</trkpt>
<trkpt lat="40.072842" lon="-105.230575">
  <ele>1586.09</ele>
  <time>2026-08-28T19:09:05Z</time>
  <course>267.54</course>
  <speed>0.0</speed>
  <fix>3d</fix>
</trkpt>
<trkpt lat="40.0728419" lon="-105.2305749">
  <ele>1586.18</ele>
  <time>2026-08-28T19:09:05Z</time>
  <course>9.04</course>
  <speed>0.022360679774997897</speed>
  <fix>3d</fix>
</trkpt>
<trkpt lat="40.072842" lon="-105.230575">
  <ele>1586.09</ele>
  <time>2026-08-28T19:09:05Z</time>
  <course>273.79</course>
  <speed>0.0</speed>
  <fix>3d</fix>
</trkpt>
<trkpt lat="40.0728419" lon="-105.2305749">
  <ele>1586.18</ele>
  <time>2026-08-28T19:09:05Z</time>
  <course>9.01</course>
  <speed>0.022360679774997897</speed>
  <fix>3d</fix>
</trkpt>
<trkpt lat="40.072842" lon="-105.230575">
  <ele>1586.09</ele>
  <time>2026-08-28T19:09:05Z</time>
  <course>275.36</course>
  <speed>0.0</speed>
  <fix>3d</fix>
</trkpt>
<trkpt lat="40.0728419" lon="-105.2305749">
  <ele>1586.19</ele>
  <time>2026-08-28T19:09:05Z</time>
  <course>8.98</course>
  <speed>0.022360679774997897</speed>
  <fix>3d</fix>
</trkpt>
<trkpt lat="40.072842" lon="-105.230575">
  <ele>1586.09</ele>
  <time>2026-08-28T19:09:05Z</time>
  <course>267.59</course>
  <speed>0.0</speed>
  <fix>3d</fix>
</trkpt>
<trkpt lat="40.0728419" lon="-105.2305749">
  <ele>1586.19</ele>
  <time>2026-08-28T19:09:05Z</time>
  <course>8.95</course>
  <speed>0.022360679774997897</speed>
  <fix>3d</fix>
</trkpt>
<trkpt lat="40.072842" lon="-105.230575">
  <ele>1586.09</ele>
  <time>2026-08-28T19:09:05Z</time>
  <course>267.89</course>
  <speed>0.0</speed>
  <fix>3d</fix>
</trkpt>
<trkpt lat="40.0728419" lon="-105.2305749">
  <ele>1586.19</ele>
  <time>2026-08-28T19:09:05Z</time>
  <course>8.92</course>
  <speed>0.022360679774997897</speed>
  <fix>3d</fix>
</trkpt>
<trkpt lat="40.072842" lon="-105.230575">
  <ele>1586.09</ele>
  <time>2026-08-28T19:09:05Z</time>
  <course>268.99</course>
  <speed>0.0</speed>
  <fix>3d</fix>
</trkpt>
<trkpt lat="40.0728419" lon="-105.2305749">
  <ele>1586.19</ele>
  <time>2026-08-28T19:09:05Z</time>
  <course>8.9</course>
  <speed>0.022360679774997897</speed>
  <fix>3d</fix>
</trkpt>
<trkpt lat="40.072842" lon="-105.230575">
  <ele>1586.09</ele>
  <time>2026-08-28T19:09:05Z</time>
  <course>268.7</course>
  <speed>0.0</speed>
  <fix>3d</fix>
</trkpt>
<trkpt lat="40.0728419" lon="-105.2305749">
  <ele>1586.19</ele>
  <time>2026-08-28T19:09:05Z</time>
  <course>8.87</course>
  <speed>0.022360679774997897</speed>
  <fix>3d</fix>
</trkpt>
<trkpt lat="40.072842" lon="-105.230575">
  <ele>1586.09</ele>
  <time>2026-08-28T19:09:05Z</time>
  <course>268.43</course>
  <speed>0.0</speed>
  <fix>3d</fix>
</trkpt>
<trkpt lat="40.0728419" lon="-105.2305749">
  <ele>1586.19</ele>
  <time>2026-08-28T19:09:05Z</time>
  <course>8.85</course>
  <speed>0.022360679774997897</speed>
  <fix>3d</fix>
</trkpt>
<trkpt lat="40.072842" lon="-105.230575">
  <ele>1586.09</ele>
  <time>2026-08-28T19:09:05Z</time>
  <course>270.08</course>
  <speed>0.0</speed>
  <fix>3d</fix>
</trkpt>
<trkpt lat="40.0728419" lon="-105.2305749">
  <ele>1586.18</ele>
  <time>2026-08-28T19:09:05Z</time>
  <course>8.83</course>
  <speed>0.022360679774997897</speed>
  <fix>3d</fix>
</trkpt>
<trkpt lat="40.072842" lon="-105.230575">
  <ele>1586.09</ele>
  <time>2026-08-28T19:09:05Z</time>
  <course>268.64</course>
  <speed>0.0</speed>
  <fix>3d</fix>
</trkpt>
<trkpt lat="40.0728419" lon="-105.2305749">
  <ele>1586.18</ele>
  <time>2026-08-28T19:09:05Z</time>
  <course>8.81</course>
  <speed>0.01414213562373095</speed>
  <fix>3d</fix>
</trkpt>
<trkpt lat="40.072842" lon="-105.230575">
  <ele>1586.09</ele>
  <time>2026-08-28T19:09:05Z</time>
  <course>266.57</course>
  <speed>0.0</speed>
  <fix>3d</fix>
</trkpt>
<trkpt lat="40.0728419" lon="-105.2305749">
  <ele>1586.18</ele>
  <time>2026-08-28T19:09:05Z</time>
  <course>8.78</course>
  <speed>0.01414213562373095</speed>
  <fix>3d</fix>
</trkpt>
<trkpt lat="40.072842" lon="-105.230575">
  <ele>1586.09</ele>
  <time>2026-08-28T19:09:05Z</time>
  <course>274.68</course>
  <speed>0.0</speed>
  <fix>3d</fix>
</trkpt>
<trkpt lat="40.0728419" lon="-105.2305749">
  <ele>1586.18</ele>
  <time>2026-08-28T19:09:05Z</time>
  <course>8.76</course>
  <speed>0.01414213562373095</speed>
  <fix>3d</fix>
</trkpt>
<trkpt lat="40.072842" lon="-105.230575">
  <ele>1586.09</ele>
  <time>2026-08-28T19:09:05Z</time>
  <course>276.88</course>
  <speed>0.0</speed>
  <fix>3d</fix>
</trkpt>
<trkpt lat="40.0728419" lon="-105.2305749">
  <ele>1586.18</ele>
  <time>2026-08-28T19:09:05Z</time>
  <course>8.74</course>
  <speed>0.01414213562373095</speed>
  <fix>3d</fix>
</trkpt>
<trkpt lat="40.072842" lon="-105.230575">
  <ele>1586.09</ele>
  <time>2026-08-28T19:09:05Z</time>
  <course>268.63</course>
  <speed>0.0</speed>
  <fix>3d</fix>
</trkpt>
<trkpt lat="40.0728419" lon="-105.2305749">
  <ele>1586.18</ele>
  <time>2026-08-28T19:09:05Z</time>
  <course>8.73</course>
  <speed>0.01414213562373095</speed>
  <fix>3d</fix>
</trkpt>
<trkpt lat="40.072842" lon="-105.230575">
  <ele>1586.09</ele>
  <time>2026-08-28T19:09:05Z</time>
  <course>267.45</course>
  <speed>0.0</speed>
  <fix>3d</fix>
</trkpt>
<trkpt lat="40.0728419" lon="-105.2305749">
  <ele>1586.18</ele>
  <time>2026-08-28T19:09:05Z</time>
  <course>8.71</course>
  <speed>0.01414213562373095</speed>
  <fix>3d</fix>
</trkpt>
<trkpt lat="40.072842" lon="-105.230575">
  <ele>1586.09</ele>
  <time>2026-08-28T19:09:05Z</time>
  <course>268.9</course>
  <speed>0.0</speed>
  <fix>3d</fix>
</trkpt>
<trkpt lat="40.0728419" lon="-105.2305749">
  <ele>1586.18</ele>
  <time>2026-08-28T19:09:05Z</time>
  <course>8.69</course>
  <speed>0.01414213562373095</speed>
  <fix>3d</fix>
</trkpt>
<trkpt lat="40.072842" lon="-105.230575">
  <ele>1586.09</ele>
  <time>2026-08-28T19:09:05Z</time>
  <course>269.07</course>
  <speed>0.0</speed>
  <fix>3d</fix>
</trkpt>
<trkpt lat="40.0728419" lon="-105.2305749">
  <ele>1586.18</ele>
  <time>2026-08-28T19:09:05Z</time>
  <course>8.68</course>
  <speed>0.01414213562373095</speed>
  <fix>3d</fix>
</trkpt>
<trkpt lat="40.072842" lon="-105.230575">
  <ele>1586.09</ele>
  <time>2026-08-28T19:09:05Z</time>
  <course>268.57</course>
  <speed>0.0</speed>
  <fix>3d</fix>
</trkpt>
<trkpt lat="40.0728419" lon="-105.2305749">
  <ele>1586.19</ele>
  <time>2026-08-28T19:09:05Z</time>
  <course>8.66</course>
  <speed>0.01414213562373095</speed>
  <fix>3d</fix>
</trkpt>
<trkpt lat="40.072842" lon="-105.230575">
  <ele>1586.09</ele>
  <time>2026-08-28T19:09:05Z</time>
  <course>268.29</course>
  <speed>0.0</speed>
  <fix>3d</fix>
</trkpt>
<trkpt lat="40.0728419" lon="-105.2305749">
  <ele>1586.19</ele>
  <time>2026-08-28T19:09:05Z</time>
  <course>8.65</course>
  <speed>0.01414213562373095</speed>
  <fix>3d</fix>
</trkpt>
<trkpt lat="40.072842" lon="-105.230575">
  <ele>1586.09</ele>
  <time>2026-08-28T19:09:05Z</time>
  <course>267.49</course>
  <speed>0.0</speed>
  <fix>3d</fix>
</trkpt>
<trkpt lat="40.0728419" lon="-105.2305749">
  <ele>1586.19</ele>
  <time>2026-08-28T19:09:05Z</time>
  <course>8.63</course>
  <speed>0.01414213562373095</speed>
  <fix>3d</fix>
</trkpt>
<trkpt lat="40.072842" lon="-105.230575">
  <ele>1586.09</ele>
  <time>2026-08-28T19:09:05Z</time>
  <course>267.9</course>
  <speed>0.0</speed>
  <fix>3d</fix>
</trkpt>
<trkpt lat="40.0728419" lon="-105.2305749">
  <ele>1586.19</ele>
  <time>2026-08-28T19:09:05Z</time>
  <course>8.62</course>
  <speed>0.01414213562373095</speed>
  <fix>3d</fix>
</trkpt>
<trkpt lat="40.072842" lon="-105.230575">
  <ele>1586.09</ele>
  <time>2026-08-28T19:09:05Z</time>
  <course>268.96</course>
  <speed>0.0</speed>
  <fix>3d</fix>
</trkpt>
<trkpt lat="40.0728419" lon="-105.2305749">
  <ele>1586.19</ele>
  <time>2026-08-28T19:09:05Z</time>
  <course>8.61</course>
  <speed>0.01414213562373095</speed>
  <fix>3d</fix>
</trkpt>
<trkpt lat="40.072842" lon="-105.230575">
  <ele>1586.09</ele>
  <time>2026-08-28T19:09:05Z</time>
  <course>270.03</course>
  <speed>0.0</speed>
  <fix>3d</fix>
</trkpt>
<trkpt lat="40.0728419" lon="-105.2305749">
  <ele>1586.19</ele>
  <time>2026-08-28T19:09:05Z</time>
  <course>8.6</course>
  <speed>0.01414213562373095</speed>
  <fix>3d</fix>
</trkpt>
<trkpt lat="40.072842" lon="-105.230575">
  <ele>1586.09</ele>
  <time>2026-08-28T19:09:05Z</time>
  <course>273.73</course>
  <speed>0.0</speed>
  <fix>3d</fix>
</trkpt>
<trkpt lat="40.0728419" lon="-105.2305749">
  <ele>1586.19</ele>
  <time>2026-08-28T19:09:05Z</time>
  <course>8.59</course>
  <speed>0.01414213562373095</speed>
  <fix>3d</fix>
</trkpt>
<trkpt lat="40.072842" lon="-105.230575">
  <ele>1586.09</ele>
  <time>2026-08-28T19:09:05Z</time>
  <course>271.61</course>
  <speed>0.0</speed>
  <fix>3d</fix>
</trkpt>
<trkpt lat="40.0728419" lon="-105.2305749">
  <ele>1586.19</ele>
  <time>2026-08-28T19:09:05Z</time>
  <course>8.58</course>
  <speed>0.01414213562373095</speed>
  <fix>3d</fix>
</trkpt>
<trkpt lat="40.072842" lon="-105.230575">
  <ele>1586.09</ele>
  <time>2026-08-28T19:09:05Z</time>
  <course>267.35</course>
  <speed>0.0</speed>
  <fix>3d</fix>
</trkpt>
<trkpt lat="40.0728419" lon="-105.2305749">
  <ele>1586.19</ele>
  <time>2026-08-28T19:09:05Z</time>
  <course>8.57</course>
  <speed>0.01414213562373095</speed>
  <fix>3d</fix>
</trkpt>
<trkpt lat="40.072842" lon="-105.230575">
  <ele>1586.09</ele>
  <time>2026-08-28T19:09:05Z</time>
  <course>268.66</course>
  <speed>0.0</speed>
  <fix>3d</fix>
</trkpt>
<trkpt lat="40.0728419" lon="-105.2305749">
  <ele>1586.19</ele>
  <time>2026-08-28T19:09:05Z</time>
  <course>8.56</course>
  <speed>0.01414213562373095</speed>
  <fix>3d</fix>
</trkpt>
<trkpt lat="40.072842" lon="-105.230575">
  <ele>1586.09</ele>
  <time>2026-08-28T19:09:05Z</time>
  <course>269.37</course>
  <speed>0.0</speed>
  <fix>3d</fix>
</trkpt>
<trkpt lat="40.0728419" lon="-105.2305749">
  <ele>1586.19</ele>
  <time>2026-08-28T19:09:05Z</time>
  <course>8.55</course>
  <speed>0.01414213562373095</speed>
  <fix>3d</fix>
</trkpt>
<trkpt lat="40.072842" lon="-105.230575">
  <ele>1586.09</ele>
  <time>2026-08-28T19:09:05Z</time>
  <course>270.15</course>
  <speed>0.0</speed>
  <fix>3d</fix>
</trkpt>
<trkpt lat="40.0728419" lon="-105.2305749">
  <ele>1586.18</ele>
  <time>2026-08-28T19:09:05Z</time>
  <course>8.55</course>
  <speed>0.01414213562373095</speed>
  <fix>3d</fix>
</trkpt>
<trkpt lat="40.072842" lon="-105.230575">
  <ele>1586.09</ele>
  <time>2026-08-28T19:09:05Z</time>
  <course>268.37</course>
  <speed>0.0</speed>
  <fix>3d</fix>
</trkpt>
<trkpt lat="40.0728419" lon="-105.2305749">
  <ele>1586.18</ele>
  <time>2026-08-28T19:09:05Z</time>
  <course>8.54</course>
  <speed>0.01414213562373095</speed>
  <fix>3d</fix>
</trkpt>
<trkpt lat="40.072842" lon="-105.230575">
  <ele>1586.09</ele>
  <time>2026-08-28T19:09:05Z</time>
  <course>267.73</course>
  <speed>0.0</speed>
  <fix>3d</fix>
</trkpt>
<trkpt lat="40.0728419" lon="-105.2305749">
  <ele>1586.18</ele>
  <time>2026-08-28T19:09:05Z</time>
  <course>8.54</course>
  <speed>0.01414213562373095</speed>
  <fix>3d</fix>
</trkpt>
<trkpt lat="40.072842" lon="-105.230575">
  <ele>1586.09</ele>
  <time>2026-08-28T19:09:05Z</time>
  <course>269.41</course>
  <speed>0.0</speed>
  <fix>3d</fix>
</trkpt>
<trkpt lat="40.0728419" lon="-105.2305749">
  <ele>1586.18</ele>
  <time>2026-08-28T19:09:05Z</time>
  <course>8.53</course>
  <speed>0.01414213562373095</speed>
  <fix>3d</fix>
</trkpt>
<trkpt lat="40.072842" lon="-105.230575">
  <ele>1586.09</ele>
  <time>2026-08-28T19:09:05Z</time>
  <course>268.99</course>
  <speed>0.0</speed>
  <fix>3d</fix>
</trkpt>
<trkpt lat="40.0728419" lon="-105.2305749">
  <ele>1586.18</ele>
  <time>2026-08-28T19:09:05Z</time>
  <course>8.53</course>
  <speed>0.01414213562373095</speed>
  <fix>3d</fix>
</trkpt>
<trkpt lat="40.072842" lon="-105.230575">
  <ele>1586.09</ele>
  <time>2026-08-28T19:09:05Z</time>
  <course>269.01</course>
  <speed>0.0</speed>
  <fix>3d</fix>
</trkpt>
<trkpt lat="40.0728419" lon="-105.2305749">
  <ele>1586.18</ele>
  <time>2026-08-28T19:09:05Z</time>
  <course>8.53</course>
  <speed>0.01414213562373095</speed>
  <fix>3d</fix>
</trkpt>
<trkpt lat="40.072842" lon="-105.230575">
  <ele>1586.09</ele>
  <time>2026-08-28T19:09:05Z</time>
  <course>268.95</course>
  <speed>0.0</speed>
  <fix>3d</fix>
</trkpt>
<trkpt lat="40.0728419" lon="-105.2305749">
  <ele>1586.18</ele>
  <time>2026-08-28T19:09:05Z</time>
  <course>8.52</course>
  <speed>0.01414213562373095</speed>
  <fix>3d</fix>
</trkpt>
<trkpt lat="40.072842" lon="-105.230575">
  <ele>1586.09</ele>
  <time>2026-08-28T19:09:05Z</time>
  <course>275.55</course>
  <speed>0.0</speed>
  <fix>3d</fix>
</trkpt>
<trkpt lat="40.0728419" lon="-105.2305749">
  <ele>1586.18</ele>
  <time>2026-08-28T19:09:05Z</time>
  <course>8.52</course>
  <speed>0.01414213562373095</speed>
  <fix>3d</fix>
</trkpt>
<trkpt lat="40.072842" lon="-105.230575">
  <ele>1586.09</ele>
  <time>2026-08-28T19:09:05Z</time>
  <course>275.34</course>
  <speed>0.0</speed>
  <fix>3d</fix>
</trkpt>
<trkpt lat="40.0728419" lon="-105.2305749">
  <ele>1586.17</ele>
  <time>2026-08-28T19:09:05Z</time>
  <course>8.52</course>
  <speed>0.01414213562373095</speed>
  <fix>3d</fix>
</trkpt>
<trkpt lat="40.072842" lon="-105.230575">
  <ele>1586.09</ele>
  <time>2026-08-28T19:09:05Z</time>
  <course>268.34</course>
  <speed>0.0</speed>
  <fix>3d</fix>
</trkpt>
<trkpt lat="40.0728419" lon="-105.2305749">
  <ele>1586.17</ele>
  <time>2026-08-28T19:09:05Z</time>
  <course>8.52</course>
  <speed>0.01414213562373095</speed>
  <fix>3d</fix>
</trkpt>
<trkpt lat="40.072842" lon="-105.230575">
  <ele>1586.09</ele>
  <time>2026-08-28T19:09:05Z</time>
  <course>268.69</course>
  <speed>0.0</speed>
  <fix>3d</fix>
</trkpt>
<trkpt lat="40.0728419" lon="-105.2305749">
  <ele>1586.19</ele>
  <time>2026-08-28T19:09:05Z</time>
  <course>8.51</course>
  <speed>0.01414213562373095</speed>
  <fix>3d</fix>
</trkpt>
<trkpt lat="40.072842" lon="-105.230575">
  <ele>1586.09</ele>
  <time>2026-08-28T19:09:05Z</time>
  <course>270.07</course>
  <speed>0.0</speed>
  <fix>3d</fix>
</trkpt>
<trkpt lat="40.0728419" lon="-105.2305749">
  <ele>1586.28</ele>
  <time>2026-08-28T19:09:05Z</time>
  <course>8.44</course>
  <speed>0.01414213562373095</speed>
  <fix>3d</fix>
</trkpt>
<trkpt lat="40.072842" lon="-105.230575">
  <ele>1586.14</ele>
  <time>2026-08-28T19:09:05Z</time>
  <course>270.68</course>
  <speed>0.0</speed>
  <fix>3d</fix>
</trkpt>
<trkpt lat="40.0728419" lon="-105.2305749">
  <ele>1586.4</ele>
  <time>2026-08-28T19:09:05Z</time>
  <course>4.45</course>
  <speed>0.08</speed>
  <fix>3d</fix>
</trkpt>
<trkpt lat="40.072842" lon="-105.230575">
  <ele>1586.22</ele>
  <time>2026-08-28T19:09:05Z</time>
  <course>275.78</course>
  <speed>0.01</speed>
  <fix>3d</fix>
</trkpt>
<trkpt lat="40.0728419" lon="-105.2305753">
  <ele>1586.74</ele>
  <time>2026-08-28T19:09:05Z</time>
  <course>1.91</course>
  <speed>0.2570992026436488</speed>
  <fix>3d</fix>
</trkpt>
<trkpt lat="40.072842" lon="-105.2305752">
  <ele>1586.39</ele>
  <time>2026-08-28T19:09:05Z</time>
  <course>276.1</course>
  <speed>0.12</speed>
  <fix>3d</fix>
</trkpt>
<trkpt lat="40.0728419" lon="-105.2305755">
  <ele>1586.81</ele>
  <time>2026-08-28T19:09:05Z</time>
  <course>1.62</course>
  <speed>0.28861739379323625</speed>
  <fix>3d</fix>
</trkpt>
<trkpt lat="40.0728421" lon="-105.2305761">
  <ele>1587.16</ele>
  <time>2026-08-28T19:09:05Z</time>
  <course>0.63</course>
  <speed>0.38078865529319544</speed>
  <fix>3d</fix>
</trkpt>
<trkpt lat="40.072842" lon="-105.2305757">
  <ele>1586.72</ele>
  <time>2026-08-28T19:09:05Z</time>
  <course>276.21</course>
  <speed>0.29</speed>
  <fix>3d</fix>
</trkpt>
<trkpt lat="40.0728421" lon="-105.2305763">
  <ele>1587.22</ele>
  <time>2026-08-28T19:09:05Z</time>
  <course>0.51</course>
  <speed>0.4026164427839479</speed>
  <fix>3d</fix>
</trkpt>
<trkpt lat="40.0728422" lon="-105.2305772">
  <ele>1587.58</ele>
  <time>2026-08-28T19:09:05Z</time>
  <course>0.01</course>
  <speed>0.4827007354458868</speed>
  <fix>3d</fix>
</trkpt>
<trkpt lat="40.072842" lon="-105.2305765">
  <ele>1587.14</ele>
  <time>2026-08-28T19:09:05Z</time>
  <course>276.02</course>
  <speed>0.42</speed>
  <fix>3d</fix>
</trkpt>
<trkpt lat="40.0728423" lon="-105.2305774">
  <ele>1587.66</ele>
  <time>2026-08-28T19:09:05Z</time>
  <course>359.97</course>
  <speed>0.49244289008980524</speed>
  <fix>3d</fix>
</trkpt>
<trkpt lat="40.0728424" lon="-105.2305784">
  <ele>1588.03</ele>
  <time>2026-08-28T19:09:05Z</time>
  <course>359.82</course>
  <speed>0.5412947441089743</speed>
  <fix>3d</fix>
</trkpt>
<trkpt lat="40.0728421" lon="-105.2305777">
  <ele>1587.56</ele>
  <time>2026-08-28T19:09:05Z</time>
  <course>275.49</course>
  <speed>0.51</speed>
  <fix>3d</fix>
</trkpt>
<trkpt lat="40.0728424" lon="-105.2305784">
  <ele>1588.04</ele>
  <time>2026-08-28T19:09:05Z</time>
  <course>359.82</course>
  <speed>0.5412947441089743</speed>
  <fix>3d</fix>
</trkpt>
<trkpt lat="40.0728425" lon="-105.2305798">
  <ele>1588.5</ele>
  <time>2026-08-28T19:09:05Z</time>
  <course>359.83</course>
  <speed>0.5903388857258176</speed>
  <fix>3d</fix>
</trkpt>
<trkpt lat="40.0728422" lon="-105.2305789">
  <ele>1588.0</ele>
  <time>2026-08-28T19:09:05Z</time>
  <course>274.93</course>
  <speed>0.57</speed>
  <fix>3d</fix>
</trkpt>
<trkpt lat="40.0728425" lon="-105.23058">
  <ele>1588.59</ele>
  <time>2026-08-28T19:09:05Z</time>
  <course>359.84</course>
  <speed>0.6001666435249463</speed>
  <fix>3d</fix>
</trkpt>
<trkpt lat="40.0728426" lon="-105.2305812">
  <ele>1588.98</ele>
  <time>2026-08-28T19:09:05Z</time>
  <course>359.97</course>
  <speed>0.6296824596572467</speed>
  <fix>3d</fix>
</trkpt>
<trkpt lat="40.0728423" lon="-105.2305803">
  <ele>1588.46</ele>
  <time>2026-08-28T19:09:05Z</time>
  <course>274.54</course>
  <speed>0.62</speed>
  <fix>3d</fix>
</trkpt>
<trkpt lat="40.0728426" lon="-105.2305815">
  <ele>1589.06</ele>
  <time>2026-08-28T19:09:05Z</time>
  <course>0.0</course>
  <speed>0.6296824596572467</speed>
  <fix>3d</fix>
</trkpt>
<trkpt lat="40.0728427" lon="-105.2305828">
  <ele>1589.46</ele>
  <time>2026-08-28T19:09:05Z</time>
  <course>358.67</course>
  <speed>0.6477653896280658</speed>
  <fix>3d</fix>
</trkpt>
<trkpt lat="40.0728424" lon="-105.2305818">
  <ele>1588.92</ele>
  <time>2026-08-28T19:09:05Z</time>
  <course>274.36</course>
  <speed>0.65</speed>
  <fix>3d</fix>
</trkpt>
<trkpt lat="40.0728427" lon="-105.230583">
  <ele>1589.53</ele>
  <time>2026-08-28T19:09:05Z</time>
  <course>358.66</course>
  <speed>0.6576473218982953</speed>
  <fix>3d</fix>
</trkpt>
<trkpt lat="40.0728428" lon="-105.2305844">
  <ele>1589.94</ele>
  <time>2026-08-28T19:09:05Z</time>
  <course>358.84</course>
  <speed>0.6760177512462228</speed>
  <fix>3d</fix>
</trkpt>
<trkpt lat="40.0728425" lon="-105.2305834">
  <ele>1589.39</ele>
  <time>2026-08-28T19:09:05Z</time>
  <course>274.28</course>
  <speed>0.68</speed>
  <fix>3d</fix>
</trkpt>
<trkpt lat="40.0728428" lon="-105.2305847">
  <ele>1590.02</ele>
  <time>2026-08-28T19:09:05Z</time>
  <course>358.89</course>
  <speed>0.6760177512462228</speed>
  <fix>3d</fix>
</trkpt>
<trkpt lat="40.0728429" lon="-105.230586">
  <ele>1590.42</ele>
  <time>2026-08-28T19:09:05Z</time>
  <course>359.17</course>
  <speed>0.6846897107449476</speed>
  <fix>3d</fix>
</trkpt>
<trkpt lat="40.0728426" lon="-105.230585">
  <ele>1589.87</ele>
  <time>2026-08-28T19:09:05Z</time>
  <course>274.26</course>
  <speed>0.7</speed>
  <fix>3d</fix>
</trkpt>
<trkpt lat="40.0728429" lon="-105.2305861">
  <ele>1590.43</ele>
  <time>2026-08-28T19:09:05Z</time>
  <course>359.17</course>
  <speed>0.6846897107449476</speed>
  <fix>3d</fix>
</trkpt>
<trkpt lat="40.0728429" lon="-105.2305877">
  <ele>1590.9</ele>
  <time>2026-08-28T19:09:05Z</time>
  <course>359.5</course>
  <speed>0.7034912934784623</speed>
  <fix>3d</fix>
</trkpt>
<trkpt lat="40.0728427" lon="-105.2305867">
  <ele>1590.34</ele>
  <time>2026-08-28T19:09:05Z</time>
  <course>274.31</course>
  <speed>0.72</speed>
  <fix>3d</fix>
</trkpt>
<trkpt lat="40.0728429" lon="-105.230588">
  <ele>1590.97</ele>
  <time>2026-08-28T19:09:05Z</time>
  <course>359.55</course>
  <speed>0.7034912934784623</speed>
  <fix>3d</fix>
</trkpt>
<trkpt lat="40.072843" lon="-105.2305894">
  <ele>1591.38</ele>
  <time>2026-08-28T19:09:05Z</time>
  <course>359.88</course>
  <speed>0.7125307010929425</speed>
  <fix>3d</fix>
</trkpt>
<trkpt lat="40.0728428" lon="-105.2305884">
  <ele>1590.82</ele>
  <time>2026-08-28T19:09:05Z</time>
  <course>274.44</course>
  <speed>0.73</speed>
  <fix>3d</fix>
</trkpt>
<trkpt lat="40.072843" lon="-105.2305897">
  <ele>1591.45</ele>
  <time>2026-08-28T19:09:05Z</time>
  <course>359.93</course>
  <speed>0.7125307010929425</speed>
  <fix>3d</fix>
</trkpt>
<trkpt lat="40.0728431" lon="-105.2305912">
  <ele>1591.86</ele>
  <time>2026-08-28T19:09:05Z</time>
  <course>0.26</course>
  <speed>0.7217340230306452</speed>
  <fix>3d</fix>
</trkpt>
<trkpt lat="40.0728429" lon="-105.2305901">
  <ele>1591.3</ele>
  <time>2026-08-28T19:09:05Z</time>
  <course>274.65</course>
  <speed>0.74</speed>
  <fix>3d</fix>
</trkpt>
<trkpt lat="40.0728431" lon="-105.2305914">
  <ele>1591.94</ele>
  <time>2026-08-28T19:09:05Z</time>
  <course>0.33</course>
  <speed>0.7217340230306452</speed>
  <fix>3d</fix>
</trkpt>
<trkpt lat="40.0728431" lon="-105.2305929">
  <ele>1592.35</ele>
  <time>2026-08-28T19:09:05Z</time>
  <course>0.69</course>
  <speed>0.7310950690573697</speed>
  <fix>3d</fix>
</trkpt>
<trkpt lat="40.072843" lon="-105.2305918">
  <ele>1591.78</ele>
  <time>2026-08-28T19:09:05Z</time>
  <course>274.9</course>
  <speed>0.75</speed>
  <fix>3d</fix>
</trkpt>
<trkpt lat="40.0728431" lon="-105.2305932">
  <ele>1592.41</ele>
  <time>2026-08-28T19:09:05Z</time>
  <course>0.74</course>
  <speed>0.7310950690573697</speed>
  <fix>3d</fix>
</trkpt>
<trkpt lat="40.0728432" lon="-105.2305947">
  <ele>1592.83</ele>
  <time>2026-08-28T19:09:05Z</time>
  <course>1.04</course>
  <speed>0.7310950690573697</speed>
  <fix>3d</fix>
</trkpt>
<trkpt lat="40.0728431" lon="-105.2305936">
  <ele>1592.26</ele>
  <time>2026-08-28T19:09:05Z</time>
  <course>275.18</course>
  <speed>0.75</speed>
  <fix>3d</fix>
</trkpt>
<trkpt lat="40.0728432" lon="-105.2305947">
  <ele>1592.83</ele>
  <time>2026-08-28T19:09:05Z</time>
  <course>1.05</course>
  <speed>0.7310950690573697</speed>
  <fix>3d</fix>
</trkpt>
<trkpt lat="40.0728433" lon="-105.2305965">
  <ele>1593.31</ele>
  <time>2026-08-28T19:09:05Z</time>
  <course>1.35</course>
  <speed>0.7410802925459562</speed>
  <fix>3d</fix>
</trkpt>
<trkpt lat="40.0728432" lon="-105.2305954">
  <ele>1592.74</ele>
  <time>2026-08-28T19:09:05Z</time>
  <course>275.43</course>
  <speed>0.76</speed>
  <fix>3d</fix>
</trkpt>
<trkpt lat="40.0728433" lon="-105.2305968">
  <ele>1593.39</ele>
  <time>2026-08-28T19:09:05Z</time>
  <course>1.4</course>
  <speed>0.7410802925459562</speed>
  <fix>3d</fix>
</trkpt>
<trkpt lat="40.0728434" lon="-105.2305983">
  <ele>1593.79</ele>
  <time>2026-08-28T19:09:05Z</time>
  <course>1.64</course>
  <speed>0.740607858451421</speed>
  <fix>3d</fix>
</trkpt>
<trkpt lat="40.0728433" lon="-105.2305972">
  <ele>1593.22</ele>
  <time>2026-08-28T19:09:05Z</time>
  <course>275.65</course>
  <speed>0.76</speed>
  <fix>3d</fix>
</trkpt>
<trkpt lat="40.0728434" lon="-105.2305986">
  <ele>1593.87</ele>
  <time>2026-08-28T19:09:05Z</time>
  <course>1.69</course>
  <speed>0.740607858451421</speed>
  <fix>3d</fix>
</trkpt>
<trkpt lat="40.0728435" lon="-105.2306001">
  <ele>1594.28</ele>
  <time>2026-08-28T19:09:05Z</time>
  <course>1.9</course>
  <speed>0.7505997601918082</speed>
  <fix>3d</fix>
</trkpt>
<trkpt lat="40.0728435" lon="-105.230599">
  <ele>1593.71</ele>
  <time>2026-08-28T19:09:05Z</time>
  <course>275.82</course>
  <speed>0.76</speed>
  <fix>3d</fix>
</trkpt>
<trkpt lat="40.0728435" lon="-105.2306004">
  <ele>1594.36</ele>
  <time>2026-08-28T19:09:05Z</time>
  <course>1.94</course>
  <speed>0.7505997601918082</speed>
  <fix>3d</fix>
</trkpt>
<trkpt lat="40.0728436" lon="-105.2306019">
  <ele>1594.76</ele>
  <time>2026-08-28T19:09:05Z</time>
  <course>2.14</course>
  <speed>0.7505997601918082</speed>
  <fix>3d</fix>
</trkpt>
<trkpt lat="40.0728437" lon="-105.2306007">
  <ele>1594.19</ele>
  <time>2026-08-28T19:09:05Z</time>
  <course>275.93</course>
  <speed>0.76</speed>
  <fix>3d</fix>
</trkpt>
<trkpt lat="40.0728436" lon="-105.2306022">
  <ele>1594.84</ele>
  <time>2026-08-28T19:09:05Z</time>
  <course>2.18</course>
  <speed>0.7505997601918082</speed>
  <fix>3d</fix>
</trkpt>
<trkpt lat="40.0728437" lon="-105.2306037">
  <ele>1595.25</ele>
  <time>2026-08-28T19:09:05Z</time>
  <course>2.39</course>
  <speed>0.7505997601918082</speed>
  <fix>3d</fix>
</trkpt>
<trkpt lat="40.0728438" lon="-105.2306026">
  <ele>1594.67</ele>
  <time>2026-08-28T19:09:05Z</time>
  <course>276.01</course>
  <speed>0.76</speed>
  <fix>3d</fix>
</trkpt>
<trkpt lat="40.0728438" lon="-105.230604">
  <ele>1595.32</ele>
  <time>2026-08-28T19:09:05Z</time>
  <course>2.43</course>
  <speed>0.7505997601918082</speed>
  <fix>3d</fix>
</trkpt>
<trkpt lat="40.0728439" lon="-105.2306055">
  <ele>1595.71</ele>
  <time>2026-08-28T19:09:05Z</time>
  <course>3.67</course>
  <speed>0.7610519036176179</speed>
  <fix>3d</fix>
</trkpt>
<trkpt lat="40.0728439" lon="-105.2306044">
  <ele>1595.15</ele>
  <time>2026-08-28T19:09:05Z</time>
  <course>275.99</course>
  <speed>0.76</speed>
  <fix>3d</fix>
</trkpt>
<trkpt lat="40.072844" lon="-105.2306073">
  <ele>1596.02</ele>
  <time>2026-08-28T19:09:05Z</time>
  <course>6.67</course>
  <speed>0.7410802925459562</speed>
  <fix>3d</fix>
</trkpt>
<trkpt lat="40.0728441" lon="-105.2306062">
  <ele>1595.57</ele>
  <time>2026-08-28T19:09:05Z</time>
  <course>275.98</course>
  <speed>0.76</speed>
  <fix>3d</fix>
</trkpt>
<trkpt lat="40.0728442" lon="-105.230609">
  <ele>1596.21</ele>
  <time>2026-08-28T19:09:05Z</time>
  <course>7.46</course>
  <speed>0.711125867902441</speed>
  <fix>3d</fix>
</trkpt>
<trkpt lat="40.0728442" lon="-105.2306079">
  <ele>1595.87</ele>
  <time>2026-08-28T19:09:05Z</time>
  <course>276.37</course>
  <speed>0.74</speed>
  <fix>3d</fix>
</trkpt>
<trkpt lat="40.0728443" lon="-105.2306107">
  <ele>1596.34</ele>
  <time>2026-08-28T19:09:05Z</time>
  <course>7.45</course>
  <speed>0.6818357573492314</speed>
  <fix>3d</fix>
</trkpt>
<trkpt lat="40.0728443" lon="-105.2306096">
  <ele>1596.06</ele>
  <time>2026-08-28T19:09:05Z</time>
  <course>277.18</course>
  <speed>0.71</speed>
  <fix>3d</fix>
</trkpt>
<trkpt lat="40.0728445" lon="-105.2306122">
  <ele>1596.45</ele>
  <time>2026-08-28T19:09:05Z</time>
  <course>7.01</course>
  <speed>0.6319810123729984</speed>
  <fix>3d</fix>
</trkpt>
<trkpt lat="40.0728445" lon="-105.2306112">
  <ele>1596.19</ele>
  <time>2026-08-28T19:09:05Z</time>
  <course>278.16</course>
  <speed>0.67</speed>
  <fix>3d</fix>
</trkpt>
<trkpt lat="40.0728446" lon="-105.2306137">
  <ele>1596.56</ele>
  <time>2026-08-28T19:09:05Z</time>
  <course>6.98</course>
  <speed>0.5714017850864661</speed>
  <fix>3d</fix>
</trkpt>
<trkpt lat="40.0728447" lon="-105.2306127">
  <ele>1596.3</ele>
  <time>2026-08-28T19:09:05Z</time>
  <course>279.24</course>
  <speed>0.63</speed>
  <fix>3d</fix>
</trkpt>
<trkpt lat="40.0728448" lon="-105.2306149">
  <ele>1596.66</ele>
  <time>2026-08-28T19:09:05Z</time>
  <course>7.0</course>
  <speed>0.480936586256442</speed>
  <fix>3d</fix>
</trkpt>
<trkpt lat="40.0728449" lon="-105.2306141">
  <ele>1596.39</ele>
  <time>2026-08-28T19:09:05Z</time>
  <course>280.51</course>
  <speed>0.56</speed>
  <fix>3d</fix>
</trkpt>
<trkpt lat="40.0728449" lon="-105.230616">
  <ele>1596.75</ele>
  <time>2026-08-28T19:09:05Z</time>
  <course>7.06</course>
  <speed>0.4004996878900158</speed>
  <fix>3d</fix>
</trkpt>
<trkpt lat="40.072845" lon="-105.2306153">
  <ele>1596.49</ele>
  <time>2026-08-28T19:09:05Z</time>
  <course>282.36</course>
  <speed>0.48</speed>
  <fix>3d</fix>
</trkpt>
<trkpt lat="40.0728451" lon="-105.2306168">
  <ele>1596.83</ele>
  <time>2026-08-28T19:09:05Z</time>
  <course>7.14</course>
  <speed>0.3101612483854165</speed>
  <fix>3d</fix>
</trkpt>
<trkpt lat="40.0728453" lon="-105.2306163">
  <ele>1596.58</ele>
  <time>2026-08-28T19:09:05Z</time>
  <course>285.15</course>
  <speed>0.39</speed>
  <fix>3d</fix>
</trkpt>
<trkpt lat="40.0728452" lon="-105.2306175">
  <ele>1596.89</ele>
  <time>2026-08-28T19:09:05Z</time>
  <course>7.22</course>
  <speed>0.23021728866442676</speed>
  <fix>3d</fix>
</trkpt>
<trkpt lat="40.0728455" lon="-105.2306171">
  <ele>1596.65</ele>
  <time>2026-08-28T19:09:05Z</time>
  <course>289.19</course>
  <speed>0.31</speed>
  <fix>3d</fix>
</trkpt>
<trkpt lat="40.0728454" lon="-105.230618">
  <ele>1596.95</ele>
  <time>2026-08-28T19:09:05Z</time>
  <course>7.3</course>
  <speed>0.16031219541881397</speed>
  <fix>3d</fix>
</trkpt>
<trkpt lat="40.0728457" lon="-105.2306177">
  <ele>1596.73</ele>
  <time>2026-08-28T19:09:05Z</time>
  <course>294.84</course>
  <speed>0.23</speed>
  <fix>3d</fix>
</trkpt>
<trkpt lat="40.0728455" lon="-105.2306183">
  <ele>1596.99</ele>
  <time>2026-08-28T19:09:05Z</time>
  <course>7.42</course>
  <speed>0.09</speed>
  <fix>3d</fix>
</trkpt>
<trkpt lat="40.0728458" lon="-105.2306182">
  <ele>1596.78</ele>
  <time>2026-08-28T19:09:05Z</time>
  <course>303.16</course>
  <speed>0.17</speed>
  <fix>3d</fix>
</trkpt>
<trkpt lat="40.0728457" lon="-105.2306184">
  <ele>1597.01</ele>
  <time>2026-08-28T19:09:05Z</time>
  <course>5.0</course>
  <speed>0.01414213562373095</speed>
  <fix>3d</fix>
</trkpt>
<trkpt lat="40.072846" lon="-105.2306184">
  <ele>1596.83</ele>
  <time>2026-08-28T19:09:05Z</time>
  <course>324.68</course>
  <speed>0.09</speed>
  <fix>3d</fix>
</trkpt>
<trkpt lat="40.0728458" lon="-105.2306182">
  <ele>1597.03</ele>
  <time>2026-08-28T19:09:05Z</time>
  <course>5.13</course>
  <speed>0.10770329614269007</speed>
  <fix>3d</fix>
</trkpt>
<trkpt lat="40.0728461" lon="-105.2306184">
  <ele>1596.86</ele>
  <time>2026-08-28T19:09:05Z</time>
  <course>28.38</course>
  <speed>0.06</speed>
  <fix>3d</fix>
</trkpt>
<trkpt lat="40.0728458" lon="-105.2306179">
  <ele>1597.04</ele>
  <time>2026-08-28T19:09:05Z</time>
  <course>5.22</course>
  <speed>0.2596150997149434</speed>
  <fix>3d</fix>
</trkpt>
<trkpt lat="40.0728462" lon="-105.2306183">
  <ele>1596.87</ele>
  <time>2026-08-28T19:09:05Z</time>
  <course>77.12</course>
  <speed>0.14</speed>
  <fix>3d</fix>
</trkpt>
<trkpt lat="40.0728458" lon="-105.2306171">
  <ele>1597.04</ele>
  <time>2026-08-28T19:09:05Z</time>
  <course>5.23</course>
  <speed>0.431740662898458</speed>
  <fix>3d</fix>
</trkpt>
<trkpt lat="40.0728462" lon="-105.2306178">
  <ele>1596.88</ele>
  <time>2026-08-28T19:09:05Z</time>
  <course>88.88</course>
  <speed>0.29</speed>
  <fix>3d</fix>
</trkpt>
<trkpt lat="40.0728458" lon="-105.2306159">
  <ele>1597.04</ele>
  <time>2026-08-28T19:09:05Z</time>
  <course>5.12</course>
  <speed>0.6118823416311342</speed>
  <fix>3d</fix>
</trkpt>
<trkpt lat="40.0728462" lon="-105.2306169">
  <ele>1596.89</ele>
  <time>2026-08-28T19:09:05Z</time>
  <course>92.39</course>
  <speed>0.46</speed>
  <fix>3d</fix>
</trkpt>
<trkpt lat="40.0728458" lon="-105.2306143">
  <ele>1597.03</ele>
  <time>2026-08-28T19:09:05Z</time>
  <course>5.05</course>
  <speed>0.792464510246358</speed>
  <fix>3d</fix>
</trkpt>
<trkpt lat="40.0728462" lon="-105.2306156">
  <ele>1596.89</ele>
  <time>2026-08-28T19:09:05Z</time>
  <course>93.74</course>
  <speed>0.64</speed>
  <fix>3d</fix>
</trkpt>
<trkpt lat="40.0728456" lon="-105.2306122">
  <ele>1597.03</ele>
  <time>2026-08-28T19:09:05Z</time>
  <course>5.05</course>
  <speed>0.951892851112981</speed>
  <fix>3d</fix>
</trkpt>
<trkpt lat="40.0728461" lon="-105.2306139">
  <ele>1596.89</ele>
  <time>2026-08-28T19:09:05Z</time>
  <course>94.42</course>
  <speed>0.82</speed>
  <fix>3d</fix>
</trkpt>
<trkpt lat="40.0728455" lon="-105.2306099">
  <ele>1597.02</ele>
  <time>2026-08-28T19:09:05Z</time>
  <course>6.13</course>
  <speed>1.0720074626605918</speed>
  <fix>3d</fix>
</trkpt>
<trkpt lat="40.072846" lon="-105.2306118">
  <ele>1596.89</ele>
  <time>2026-08-28T19:09:05Z</time>
  <course>94.93</course>
  <speed>0.98</speed>
  <fix>3d</fix>
</trkpt>
<trkpt lat="40.0728454" lon="-105.2306073">
  <ele>1597.03</ele>
  <time>2026-08-28T19:09:05Z</time>
  <course>18.97</course>
  <speed>1.1597413504743201</speed>
  <fix>3d</fix>
</trkpt>
<trkpt lat="40.0728459" lon="-105.2306093">
  <ele>1596.89</ele>
  <time>2026-08-28T19:09:05Z</time>
  <course>95.25</course>
  <speed>1.09</speed>
  <fix>3d</fix>
</trkpt>
<trkpt lat="40.0728453" lon="-105.2306044">
  <ele>1597.03</ele>
  <time>2026-08-28T19:09:05Z</time>
  <course>31.48</course>
  <speed>1.2747548783981961</speed>
  <fix>3d</fix>
</trkpt>
<trkpt lat="40.0728457" lon="-105.2306067">
  <ele>1596.9</ele>
  <time>2026-08-28T19:09:05Z</time>
  <course>94.6</course>
  <speed>1.18</speed>
  <fix>3d</fix>
</trkpt>
<trkpt lat="40.0728452" lon="-105.2306013">
  <ele>1597.03</ele>
  <time>2026-08-28T19:09:05Z</time>
  <course>43.91</course>
  <speed>1.360588108135596</speed>
  <fix>3d</fix>
</trkpt>
<trkpt lat="40.0728455" lon="-105.2306038">
  <ele>1596.9</ele>
  <time>2026-08-28T19:09:05Z</time>
  <course>92.71</course>
  <speed>1.28</speed>
  <fix>3d</fix>
</trkpt>
<trkpt lat="40.0728453" lon="-105.2305981">
  <ele>1597.04</ele>
  <time>2026-08-28T19:09:05Z</time>
  <course>56.3</course>
  <speed>1.4200352108310554</speed>
  <fix>3d</fix>
</trkpt>
<trkpt lat="40.0728455" lon="-105.2306007">
  <ele>1596.91</ele>
  <time>2026-08-28T19:09:05Z</time>
  <course>90.29</course>
  <speed>1.36</speed>
  <fix>3d</fix>
</trkpt>
<trkpt lat="40.0728455" lon="-105.2305947">
  <ele>1597.05</ele>
  <time>2026-08-28T19:09:05Z</time>
  <course>68.69</course>
  <speed>1.4612323566086263</speed>
  <fix>3d</fix>
</trkpt>
<trkpt lat="40.0728455" lon="-105.2305974">
  <ele>1596.91</ele>
  <time>2026-08-28T19:09:05Z</time>
  <course>88.12</course>
  <speed>1.42</speed>
  <fix>3d</fix>
</trkpt>
<trkpt lat="40.0728456" lon="-105.2305913">
  <ele>1597.05</ele>
  <time>2026-08-28T19:09:05Z</time>
  <course>81.0</course>
  <speed>1.4721752613055281</speed>
  <fix>3d</fix>
</trkpt>
<trkpt lat="40.0728455" lon="-105.230594">
  <ele>1596.92</ele>
  <time>2026-08-28T19:09:05Z</time>
  <course>86.69</course>
  <speed>1.45</speed>
  <fix>3d</fix>
</trkpt>
<trkpt lat="40.0728457" lon="-105.2305879">
  <ele>1597.06</ele>
  <time>2026-08-28T19:09:05Z</time>
  <course>87.82</course>
  <speed>1.4601369798755184</speed>
  <fix>3d</fix>
</trkpt>
<trkpt lat="40.0728457" lon="-105.2305906">
  <ele>1596.93</ele>
  <time>2026-08-28T19:09:05Z</time>
  <course>87.03</course>
  <speed>1.45</speed>
  <fix>3d</fix>
</trkpt>
<trkpt lat="40.0728457" lon="-105.2305845">
  <ele>1597.06</ele>
  <time>2026-08-28T19:09:05Z</time>
  <course>88.77</course>
  <speed>1.42</speed>
  <fix>3d</fix>
</trkpt>
<trkpt lat="40.0728458" lon="-105.2305873">
  <ele>1596.94</ele>
  <time>2026-08-28T19:09:05Z</time>
  <course>88.6</course>
  <speed>1.43</speed>
  <fix>3d</fix>
</trkpt>
<trkpt lat="40.0728457" lon="-105.2305813">
  <ele>1597.07</ele>
  <time>2026-08-28T19:09:05Z</time>
  <course>89.66</course>
  <speed>1.3603308421115798</speed>
  <fix>3d</fix>
</trkpt>
<trkpt lat="40.0728459" lon="-105.2305839">
  <ele>1596.94</ele>
  <time>2026-08-28T19:09:05Z</time>
  <course>89.96</course>
  <speed>1.38</speed>
  <fix>3d</fix>
</trkpt>
<trkpt lat="40.0728457" lon="-105.2305783">
  <ele>1597.07</ele>
  <time>2026-08-28T19:09:05Z</time>
  <course>91.06</course>
  <speed>1.271416532848303</speed>
  <fix>3d</fix>
</trkpt>
<trkpt lat="40.0728459" lon="-105.2305807">
  <ele>1596.95</ele>
  <time>2026-08-28T19:09:05Z</time>
  <course>91.3</course>
  <speed>1.32</speed>
  <fix>3d</fix>
</trkpt>
<trkpt lat="40.0728456" lon="-105.2305755">
  <ele>1597.08</ele>
  <time>2026-08-28T19:09:05Z</time>
  <course>92.8</course>
  <speed>1.143547113152755</speed>
  <fix>3d</fix>
</trkpt>
<trkpt lat="40.0728458" lon="-105.2305777">
  <ele>1596.96</ele>
  <time>2026-08-28T19:09:05Z</time>
  <course>92.91</course>
  <speed>1.22</speed>
  <fix>3d</fix>
</trkpt>
<trkpt lat="40.0728455" lon="-105.230573">
  <ele>1597.08</ele>
  <time>2026-08-28T19:09:05Z</time>
  <course>94.85</course>
  <speed>0.986154146165801</speed>
  <fix>3d</fix>
</trkpt>
<trkpt lat="40.0728457" lon="-105.230575">
  <ele>1596.96</ele>
  <time>2026-08-28T19:09:05Z</time>
  <course>94.85</course>
  <speed>1.09</speed>
  <fix>3d</fix>
</trkpt>
<trkpt lat="40.0728453" lon="-105.230571">
  <ele>1597.08</ele>
  <time>2026-08-28T19:09:05Z</time>
  <course>96.24</course>
  <speed>0.7826237921249263</speed>
  <fix>3d</fix>
</trkpt>
<trkpt lat="40.0728455" lon="-105.2305727">
  <ele>1596.96</ele>
  <time>2026-08-28T19:09:05Z</time>
  <course>97.48</course>
  <speed>0.92</speed>
  <fix>3d</fix>
</trkpt>
<trkpt lat="40.072845" lon="-105.2305695">
  <ele>1597.08</ele>
  <time>2026-08-28T19:09:05Z</time>
  <course>96.0</course>
  <speed>0.5508175741568164</speed>
  <fix>3d</fix>
</trkpt>
<trkpt lat="40.0728452" lon="-105.2305707">
  <ele>1596.96</ele>
  <time>2026-08-28T19:09:05Z</time>
  <course>101.58</course>
  <speed>0.72</speed>
  <fix>3d</fix>
</trkpt>
<trkpt lat="40.0728448" lon="-105.2305686">
  <ele>1597.07</ele>
  <time>2026-08-28T19:09:05Z</time>
  <course>96.06</course>
  <speed>0.32249030993194194</speed>
  <fix>3d</fix>
</trkpt>
<trkpt lat="40.072845" lon="-105.2305693">
  <ele>1596.96</ele>
  <time>2026-08-28T19:09:05Z</time>
  <course>108.88</course>
  <speed>0.49</speed>
  <fix>3d</fix>
</trkpt>
<trkpt lat="40.0728445" lon="-105.2305683">
  <ele>1597.06</ele>
  <time>2026-08-28T19:09:05Z</time>
  <course>96.03</course>
  <speed>0.16124515496597097</speed>
  <fix>3d</fix>
</trkpt>
<trkpt lat="40.0728447" lon="-105.2305686">
  <ele>1596.95</ele>
  <time>2026-08-28T19:09:05Z</time>
  <course>128.81</course>
  <speed>0.26</speed>
  <fix>3d</fix>
</trkpt>
<trkpt lat="40.0728442" lon="-105.2305684">
  <ele>1597.06</ele>
  <time>2026-08-28T19:09:05Z</time>
  <course>95.98</course>
  <speed>0.25495097567963926</speed>
  <fix>3d</fix>
</trkpt>
<trkpt lat="40.0728443" lon="-105.2305684">
  <ele>1596.95</ele>
  <time>2026-08-28T19:09:05Z</time>
  <course>193.95</course>
  <speed>0.17</speed>
  <fix>3d</fix>
</trkpt>
<trkpt lat="40.0728438" lon="-105.2305691">
  <ele>1597.05</ele>
  <time>2026-08-28T19:09:05Z</time>
  <course>95.88</course>
  <speed>0.40249223594996214</speed>
  <fix>3d</fix>
</trkpt>
<trkpt lat="40.072844" lon="-105.2305687">
  <ele>1596.94</ele>
  <time>2026-08-28T19:09:05Z</time>
  <course>234.74</course>
  <speed>0.31</speed>
  <fix>3d</fix>
</trkpt>
<trkpt lat="40.0728435" lon="-105.2305701">
  <ele>1597.04</ele>
  <time>2026-08-28T19:09:05Z</time>
  <course>95.81</course>
  <speed>0.5015974481593781</speed>
  <fix>3d</fix>
</trkpt>
<trkpt lat="40.0728437" lon="-105.2305695">
  <ele>1596.94</ele>
  <time>2026-08-28T19:09:05Z</time>
  <course>245.17</course>
  <speed>0.46</speed>
  <fix>3d</fix>
</trkpt>
<trkpt lat="40.0728431" lon="-105.2305713">
  <ele>1597.05</ele>
  <time>2026-08-28T19:09:05Z</time>
  <course>95.75</course>
  <speed>0.5385164807134504</speed>
  <fix>3d</fix>
</trkpt>
<trkpt lat="40.0728433" lon="-105.2305705">
  <ele>1596.94</ele>
  <time>2026-08-28T19:09:05Z</time>
  <course>248.47</course>
  <speed>0.55</speed>
  <fix>3d</fix>
</trkpt>
<trkpt lat="40.0728427" lon="-105.2305725">
  <ele>1597.05</ele>
  <time>2026-08-28T19:09:05Z</time>
  <course>95.71</course>
  <speed>0.5107837115648853</speed>
  <fix>3d</fix>
</trkpt>
<trkpt lat="40.072843" lon="-105.2305718">
  <ele>1596.94</ele>
  <time>2026-08-28T19:09:05Z</time>
  <course>249.27</course>
  <speed>0.58</speed>
  <fix>3d</fix>
</trkpt>
<trkpt lat="40.0728424" lon="-105.2305736">
  <ele>1597.05</ele>
  <time>2026-08-28T19:09:06Z</time>
  <course>93.09</course>
  <speed>0.47507894080878815</speed>
  <fix>3d</fix>
</trkpt>
<trkpt lat="40.0728426" lon="-105.230573">
  <ele>1596.94</ele>
  <time>2026-08-28T19:09:06Z</time>
  <course>248.26</course>
  <speed>0.55</speed>
  <fix>3d</fix>
</trkpt>
<trkpt lat="40.0728419" lon="-105.2305746">
  <ele>1597.06</ele>
  <time>2026-08-28T19:09:06Z</time>
  <course>79.02</course>
  <speed>0.408166632639171</speed>
  <fix>3d</fix>
</trkpt>
<trkpt lat="40.0728422" lon="-105.2305742">
  <ele>1596.95</ele>
  <time>2026-08-28T19:09:06Z</time>
  <course>244.1</course>
  <speed>0.5</speed>
  <fix>3d</fix>
</trkpt>
<trkpt lat="40.0728416" lon="-105.2305755">
  <ele>1597.06</ele>
  <time>2026-08-28T19:09:06Z</time>
  <course>66.8</course>
  <speed>0.34</speed>
  <fix>3d</fix>
</trkpt>
<trkpt lat="40.0728418" lon="-105.2305752">
  <ele>1596.95</ele>
  <time>2026-08-28T19:09:06Z</time>
  <course>241.9</course>
  <speed>0.43</speed>
  <fix>3d</fix>
</trkpt>
<trkpt lat="40.0728413" lon="-105.2305763">
  <ele>1597.06</ele>
  <time>2026-08-28T19:09:06Z</time>
  <course>54.72</course>
  <speed>0.29966648127543394</speed>
  <fix>3d</fix>
</trkpt>
<trkpt lat="40.0728415" lon="-105.230576">
  <ele>1596.95</ele>
  <time>2026-08-28T19:09:06Z</time>
  <course>244.74</course>
  <speed>0.37</speed>
  <fix>3d</fix>
</trkpt>
<trkpt lat="40.0728411" lon="-105.230577">
  <ele>1597.06</ele>
  <time>2026-08-28T19:09:06Z</time>
  <course>42.72</course>
  <speed>0.27730849247724093</speed>
  <fix>3d</fix>
</trkpt>
<trkpt lat="40.0728413" lon="-105.2305768">
  <ele>1596.96</ele>
  <time>2026-08-28T19:09:06Z</time>
  <course>247.17</course>
  <speed>0.32</speed>
  <fix>3d</fix>
</trkpt>
<trkpt lat="40.0728409" lon="-105.2305776">
  <ele>1597.06</ele>
  <time>2026-08-28T19:09:06Z</time>
  <course>30.69</course>
  <speed>0.25942243542145693</speed>
  <fix>3d</fix>
</trkpt>
<trkpt lat="40.0728411" lon="-105.2305775">
  <ele>1596.96</ele>
  <time>2026-08-28T19:09:06Z</time>
  <course>247.43</course>
  <speed>0.29</speed>
  <fix>3d</fix>
</trkpt>
<trkpt lat="40.0728407" lon="-105.2305782">
  <ele>1597.06</ele>
  <time>2026-08-28T19:09:06Z</time>
  <course>18.67</course>
  <speed>0.23853720883753127</speed>
  <fix>3d</fix>
</trkpt>
<trkpt lat="40.0728409" lon="-105.2305781">
  <ele>1596.96</ele>
  <time>2026-08-28T19:09:06Z</time>
  <course>244.61</course>
  <speed>0.26</speed>
  <fix>3d</fix>
</trkpt>
<trkpt lat="40.0728405" lon="-105.2305787">
  <ele>1597.06</ele>
  <time>2026-08-28T19:09:06Z</time>
  <course>8.41</course>
  <speed>0.25</speed>
  <fix>3d</fix>
</trkpt>
<trkpt lat="40.0728406" lon="-105.2305786">
  <ele>1596.96</ele>
  <time>2026-08-28T19:09:06Z</time>
  <course>238.92</course>
  <speed>0.23</speed>
  <fix>3d</fix>
</trkpt>
<trkpt lat="40.0728402" lon="-105.2305792">
  <ele>1597.06</ele>
  <time>2026-08-28T19:09:06Z</time>
  <course>10.15</course>
  <speed>0.22671568097509268</speed>
  <fix>3d</fix>
</trkpt>
<trkpt lat="40.0728403" lon="-105.230579">
  <ele>1596.96</ele>
  <time>2026-08-28T19:09:06Z</time>
  <course>235.59</course>
  <speed>0.23</speed>
  <fix>3d</fix>
</trkpt>
<trkpt lat="40.0728399" lon="-105.2305796">
  <ele>1597.06</ele>
  <time>2026-08-28T19:09:06Z</time>
  <course>10.4</course>
  <speed>0.18027756377319945</speed>
  <fix>3d</fix>
</trkpt>
<trkpt lat="40.0728402" lon="-105.2305795">
  <ele>1596.97</ele>
  <time>2026-08-28T19:09:06Z</time>
  <course>229.83</course>
  <speed>0.2</speed>
  <fix>3d</fix>
</trkpt>
<trkpt lat="40.0728397" lon="-105.2305797">
  <ele>1597.06</ele>
  <time>2026-08-28T19:09:06Z</time>
  <course>10.46</course>
  <speed>0.13341664064126335</speed>
  <fix>3d</fix>
</trkpt>
<trkpt lat="40.0728399" lon="-105.2305797">
  <ele>1596.97</ele>
  <time>2026-08-28T19:09:06Z</time>
  <course>213.89</course>
  <speed>0.15</speed>
  <fix>3d</fix>
</trkpt>
<trkpt lat="40.0728395" lon="-105.2305798">
  <ele>1597.06</ele>
  <time>2026-08-28T19:09:06Z</time>
  <course>10.47</course>
  <speed>0.1004987562112089</speed>
  <fix>3d</fix>
</trkpt>
<trkpt lat="40.0728397" lon="-105.2305799">
  <ele>1596.97</ele>
  <time>2026-08-28T19:09:06Z</time>
  <course>189.93</course>
  <speed>0.1</speed>
  <fix>3d</fix>
</trkpt>
<trkpt lat="40.0728394" lon="-105.2305797">
  <ele>1597.06</ele>
  <time>2026-08-28T19:09:06Z</time>
  <course>10.49</course>
  <speed>0.0848528137423857</speed>
  <fix>3d</fix>
</trkpt>
<trkpt lat="40.0728395" lon="-105.2305799">
  <ele>1596.97</ele>
  <time>2026-08-28T19:09:06Z</time>
  <course>150.04</course>
  <speed>0.07</speed>
  <fix>3d</fix>
</trkpt>
<trkpt lat="40.0728393" lon="-105.2305795">
  <ele>1597.06</ele>
  <time>2026-08-28T19:09:06Z</time>
  <course>10.51</course>
  <speed>0.09486832980505139</speed>
  <fix>3d</fix>
</trkpt>
<trkpt lat="40.0728395" lon="-105.2305797">
  <ele>1596.97</ele>
  <time>2026-08-28T19:09:06Z</time>
  <course>108.95</course>
  <speed>0.08</speed>
  <fix>3d</fix>
</trkpt>
<trkpt lat="40.0728394" lon="-105.2305793">
  <ele>1597.06</ele>
  <time>2026-08-28T19:09:06Z</time>
  <course>10.52</course>
  <speed>0.12</speed>
  <fix>3d</fix>
</trkpt>
<trkpt lat="40.0728395" lon="-105.2305796">
  <ele>1596.97</ele>
  <time>2026-08-28T19:09:06Z</time>
  <course>85.89</course>
  <speed>0.11</speed>
  <fix>3d</fix>
</trkpt>
<trkpt lat="40.0728394" lon="-105.230579">
  <ele>1597.06</ele>
  <time>2026-08-28T19:09:06Z</time>
  <course>10.54</course>
  <speed>0.14317821063276354</speed>
  <fix>3d</fix>
</trkpt>
<trkpt lat="40.0728395" lon="-105.2305792">
  <ele>1596.97</ele>
  <time>2026-08-28T19:09:06Z</time>
  <course>73.72</course>
  <speed>0.15</speed>
  <fix>3d</fix>
</trkpt>
<trkpt lat="40.0728395" lon="-105.2305786">
  <ele>1597.07</ele>
  <time>2026-08-28T19:09:06Z</time>
  <course>10.57</course>
  <speed>0.1708800749063506</speed>
  <fix>3d</fix>
</trkpt>
<trkpt lat="40.0728395" lon="-105.2305789">
  <ele>1596.97</ele>
  <time>2026-08-28T19:09:06Z</time>
  <course>66.28</course>
  <speed>0.18</speed>
  <fix>3d</fix>
</trkpt>
<trkpt lat="40.0728397" lon="-105.2305782">
  <ele>1597.08</ele>
  <time>2026-08-28T19:09:06Z</time>
  <course>10.6</course>
  <speed>0.18788294228055935</speed>
  <fix>3d</fix>
</trkpt>
<trkpt lat="40.0728396" lon="-105.2305784">
  <ele>1596.97</ele>
  <time>2026-08-28T19:09:06Z</time>
  <course>61.14</course>
  <speed>0.21</speed>
  <fix>3d</fix>
</trkpt>
<trkpt lat="40.0728399" lon="-105.2305777">
  <ele>1597.08</ele>
  <time>2026-08-28T19:09:06Z</time>
  <course>10.62</course>
  <speed>0.20591260281974003</speed>
  <fix>3d</fix>
</trkpt>
<trkpt lat="40.0728399" lon="-105.230578">
  <ele>1596.97</ele>
  <time>2026-08-28T19:09:06Z</time>
  <course>57.28</course>
  <speed>0.23</speed>
  <fix>3d</fix>
</trkpt>
<trkpt lat="40.0728401" lon="-105.2305773">
  <ele>1597.08</ele>
  <time>2026-08-28T19:09:06Z</time>
  <course>10.65</course>
  <speed>0.2109502310972899</speed>
  <fix>3d</fix>
</trkpt>
<trkpt lat="40.0728401" lon="-105.2305775">
  <ele>1596.97</ele>
  <time>2026-08-28T19:09:06Z</time>
  <course>54.19</course>
  <speed>0.25</speed>
  <fix>3d</fix>
</trkpt>
<trkpt lat="40.0728404" lon="-105.2305768">
  <ele>1597.07</ele>
  <time>2026-08-28T19:09:06Z</time>
  <course>10.67</course>
  <speed>0.20808652046684814</speed>
  <fix>3d</fix>
</trkpt>
<trkpt lat="40.0728404" lon="-105.230577">
  <ele>1596.97</ele>
  <time>2026-08-28T19:09:06Z</time>
  <course>51.56</course>
  <speed>0.26</speed>
  <fix>3d</fix>
</trkpt>
<trkpt lat="40.0728407" lon="-105.2305763">
  <ele>1597.07</ele>
  <time>2026-08-28T19:09:06Z</time>
  <course>10.69</course>
  <speed>0.20615528128088303</speed>
  <fix>3d</fix>
</trkpt>
<trkpt lat="40.0728407" lon="-105.2305765">
  <ele>1596.96</ele>
  <time>2026-08-28T19:09:06Z</time>
  <course>49.28</course>
  <speed>0.26</speed>
  <fix>3d</fix>
</trkpt>
<trkpt lat="40.072841" lon="-105.2305759">
  <ele>1597.06</ele>
  <time>2026-08-28T19:09:06Z</time>
  <course>10.71</course>
  <speed>0.19209372712298545</speed>
  <fix>3d</fix>
</trkpt>
<trkpt lat="40.072841" lon="-105.2305761">
  <ele>1596.96</ele>
  <time>2026-08-28T19:09:06Z</time>
  <course>47.37</course>
  <speed>0.25</speed>
  <fix>3d</fix>
</trkpt>
<trkpt lat="40.0728413" lon="-105.2305755">
  <ele>1597.06</ele>
  <time>2026-08-28T19:09:06Z</time>
  <course>10.71</course>
  <speed>0.18439088914585774</speed>
  <fix>3d</fix>
</trkpt>
<trkpt lat="40.0728413" lon="-105.2305757">
  <ele>1596.96</ele>
  <time>2026-08-28T19:09:06Z</time>
  <course>45.78</course>
  <speed>0.24</speed>
  <fix>3d</fix>
</trkpt>
<trkpt lat="40.0728415" lon="-105.2305752">
  <ele>1597.05</ele>
  <time>2026-08-28T19:09:06Z</time>
  <course>10.72</course>
  <speed>0.16278820596099705</speed>
  <fix>3d</fix>
</trkpt>
<trkpt lat="40.0728416" lon="-105.2305753">
  <ele>1596.96</ele>
  <time>2026-08-28T19:09:06Z</time>
  <course>44.41</course>
  <speed>0.22</speed>
  <fix>3d</fix>
</trkpt>
<trkpt lat="40.0728418" lon="-105.2305749">
  <ele>1597.05</ele>
  <time>2026-08-28T19:09:06Z</time>
  <course>10.77</course>
  <speed>0.1345362404707371</speed>
  <fix>3d</fix>
</trkpt>
<trkpt lat="40.0728419" lon="-105.2305749">
  <ele>1596.96</ele>
  <time>2026-08-28T19:09:06Z</time>
  <course>43.21</course>
  <speed>0.19</speed>
  <fix>3d</fix>
</trkpt>
<trkpt lat="40.072842" lon="-105.2305746">
  <ele>1597.03</ele>
  <time>2026-08-28T19:09:06Z</time>
  <course>11.08</course>
  <speed>0.1131370849898476</speed>
  <fix>3d</fix>
</trkpt>
<trkpt lat="40.0728421" lon="-105.2305747">
  <ele>1596.96</ele>
  <time>2026-08-28T19:09:06Z</time>
  <course>41.74</course>
  <speed>0.17</speed>
  <fix>3d</fix>
</trkpt>
<trkpt lat="40.0728422" lon="-105.2305744">
  <ele>1596.99</ele>
  <time>2026-08-28T19:09:06Z</time>
  <course>11.49</course>
  <speed>0.0848528137423857</speed>
  <fix>3d</fix>
</trkpt>
<trkpt lat="40.0728424" lon="-105.2305744">
  <ele>1596.94</ele>
  <time>2026-08-28T19:09:06Z</time>
  <course>39.99</course>
  <speed>0.14</speed>
  <fix>3d</fix>
</trkpt>
<trkpt lat="40.0728424" lon="-105.2305742">
  <ele>1596.91</ele>
  <time>2026-08-28T19:09:06Z</time>
  <course>11.84</course>
  <speed>0.06403124237432849</speed>
  <fix>3d</fix>
</trkpt>
<trkpt lat="40.0728426" lon="-105.2305742">
  <ele>1596.89</ele>
  <time>2026-08-28T19:09:06Z</time>
  <course>38.58</course>
  <speed>0.11</speed>
  <fix>3d</fix>
</trkpt>
<trkpt lat="40.0728425" lon="-105.2305741">
  <ele>1596.79</ele>
  <time>2026-08-28T19:09:06Z</time>
  <course>12.04</course>
  <speed>0.044721359549995794</speed>
  <fix>3d</fix>
</trkpt>
<trkpt lat="40.0728427" lon="-105.230574">
  <ele>1596.8</ele>
  <time>2026-08-28T19:09:06Z</time>
  <course>38.09</course>
  <speed>0.09</speed>
  <fix>3d</fix>
</trkpt>
<trkpt lat="40.0728426" lon="-105.230574">
  <ele>1596.64</ele>
  <time>2026-08-28T19:09:06Z</time>
  <course>11.89</course>
  <speed>0.03</speed>
  <fix>3d</fix>
</trkpt>
<trkpt lat="40.0728428" lon="-105.2305739">
  <ele>1596.67</ele>
  <time>2026-08-28T19:09:06Z</time>
  <course>40.27</course>
  <speed>0.06</speed>
  <fix>3d</fix>
</trkpt>
<trkpt lat="40.0728427" lon="-105.2305739">
  <ele>1596.5</ele>
  <time>2026-08-28T19:09:06Z</time>
  <course>11.63</course>
  <speed>0.01414213562373095</speed>
  <fix>3d</fix>
</trkpt>
<trkpt lat="40.0728429" lon="-105.2305738">
  <ele>1596.54</ele>
  <time>2026-08-28T19:09:06Z</time>
  <course>47.38</course>
  <speed>0.04</speed>
  <fix>3d</fix>
</trkpt>
<trkpt lat="40.0728427" lon="-105.2305739">
  <ele>1596.37</ele>
  <time>2026-08-28T19:09:06Z</time>
  <course>11.5</course>
  <speed>0.03</speed>
  <fix>3d</fix>
</trkpt>
<trkpt lat="40.0728429" lon="-105.2305738">
  <ele>1596.39</ele>
  <time>2026-08-28T19:09:06Z</time>
  <course>68.21</course>
  <speed>0.01</speed>
  <fix>3d</fix>
</trkpt>
<trkpt lat="40.0728426" lon="-105.2305738">
  <ele>1596.25</ele>
  <time>2026-08-28T19:09:06Z</time>
  <course>11.42</course>
  <speed>0.05</speed>
  <fix>3d</fix>
</trkpt>
<trkpt lat="40.072843" lon="-105.2305738">
  <ele>1596.27</ele>
  <time>2026-08-28T19:09:06Z</time>
  <course>166.97</course>
  <speed>0.01</speed>
  <fix>3d</fix>
</trkpt>
<trkpt lat="40.0728426" lon="-105.2305739">
  <ele>1596.14</ele>
  <time>2026-08-28T19:09:06Z</time>
  <course>11.36</course>
  <speed>0.0632455532033676</speed>
  <fix>3d</fix>
</trkpt>
<trkpt lat="40.072843" lon="-105.2305738">
  <ele>1596.14</ele>
  <time>2026-08-28T19:09:06Z</time>
  <course>201.71</course>
  <speed>0.03</speed>
  <fix>3d</fix>
</trkpt>
<trkpt lat="40.0728426" lon="-105.2305739">
  <ele>1596.03</ele>
  <time>2026-08-28T19:09:06Z</time>
  <course>11.38</course>
  <speed>0.07615773105863909</speed>
  <fix>3d</fix>
</trkpt>
<trkpt lat="40.0728429" lon="-105.2305738">
  <ele>1596.04</ele>
  <time>2026-08-28T19:09:06Z</time>
  <course>211.32</course>
  <speed>0.04</speed>
  <fix>3d</fix>
</trkpt>
<trkpt lat="40.0728426" lon="-105.2305739">
  <ele>1595.93</ele>
  <time>2026-08-28T19:09:06Z</time>
  <course>11.37</course>
  <speed>0.07615773105863909</speed>
  <fix>3d</fix>
</trkpt>
<trkpt lat="40.0728428" lon="-105.2305738">
  <ele>1595.94</ele>
  <time>2026-08-28T19:09:06Z</time>
  <course>216.02</course>
  <speed>0.06</speed>
  <fix>3d</fix>
</trkpt>
<trkpt lat="40.0728425" lon="-105.230574">
  <ele>1595.83</ele>
  <time>2026-08-28T19:09:06Z</time>
  <course>11.34</course>
  <speed>0.08944271909999159</speed>
  <fix>3d</fix>
</trkpt>
<trkpt lat="40.0728427" lon="-105.2305739">
  <ele>1595.84</ele>
  <time>2026-08-28T19:09:06Z</time>
  <course>218.85</course>
  <speed>0.07</speed>
  <fix>3d</fix>
</trkpt>
<trkpt lat="40.0728424" lon="-105.2305741">
  <ele>1595.73</ele>
  <time>2026-08-28T19:09:06Z</time>
  <course>11.33</course>
  <speed>0.08944271909999159</speed>
  <fix>3d</fix>
</trkpt>
<trkpt lat="40.0728426" lon="-105.230574">
  <ele>1595.74</ele>
  <time>2026-08-28T19:09:06Z</time>
  <course>221.23</course>
  <speed>0.08</speed>
  <fix>3d</fix>
</trkpt>
<trkpt lat="40.0728423" lon="-105.2305742">
  <ele>1595.63</ele>
  <time>2026-08-28T19:09:06Z</time>
  <course>11.34</course>
  <speed>0.09433981132056603</speed>
  <fix>3d</fix>
</trkpt>
<trkpt lat="40.0728425" lon="-105.2305742">
  <ele>1595.63</ele>
  <time>2026-08-28T19:09:06Z</time>
  <course>223.63</course>
  <speed>0.08</speed>
  <fix>3d</fix>
</trkpt>
<trkpt lat="40.0728422" lon="-105.2305744">
  <ele>1595.53</ele>
  <time>2026-08-28T19:09:06Z</time>
  <course>11.39</course>
  <speed>0.08602325267042626</speed>
  <fix>3d</fix>
</trkpt>
<trkpt lat="40.0728424" lon="-105.2305743">
  <ele>1595.54</ele>
  <time>2026-08-28T19:09:06Z</time>
  <course>226.28</course>
  <speed>0.09</speed>
  <fix>3d</fix>
</trkpt>
<trkpt lat="40.0728421" lon="-105.2305745">
  <ele>1595.44</ele>
  <time>2026-08-28T19:09:06Z</time>
  <course>11.37</course>
  <speed>0.08602325267042626</speed>
  <fix>3d</fix>
</trkpt>
<trkpt lat="40.0728423" lon="-105.2305744">
  <ele>1595.44</ele>
  <time>2026-08-28T19:09:06Z</time>
  <course>228.99</course>
  <speed>0.08</speed>
  <fix>3d</fix>
</trkpt>
<trkpt lat="40.072842" lon="-105.2305746">
  <ele>1595.34</ele>
  <time>2026-08-28T19:09:06Z</time>
  <course>11.4</course>
  <speed>0.07211102550927978</speed>
  <fix>3d</fix>
</trkpt>
<trkpt lat="40.0728422" lon="-105.2305746">
  <ele>1595.35</ele>
  <time>2026-08-28T19:09:06Z</time>
  <course>231.95</course>
  <speed>0.08</speed>
  <fix>3d</fix>
</trkpt>
<trkpt lat="40.0728419" lon="-105.2305748">
  <ele>1595.24</ele>
  <time>2026-08-28T19:09:06Z</time>
  <course>11.39</course>
  <speed>0.06403124237432849</speed>
  <fix>3d</fix>
</trkpt>
<trkpt lat="40.0728421" lon="-105.2305748">
  <ele>1595.25</ele>
  <time>2026-08-28T19:09:06Z</time>
  <course>235.31</course>
  <speed>0.08</speed>
  <fix>3d</fix>
</trkpt>
<trkpt lat="40.0728419" lon="-105.2305749">
  <ele>1595.14</ele>
  <time>2026-08-28T19:09:06Z</time>
  <course>11.38</course>
  <speed>0.0565685424949238</speed>
  <fix>3d</fix>
</trkpt>
<trkpt lat="40.072842" lon="-105.2305749">
  <ele>1595.14</ele>
  <time>2026-08-28T19:09:06Z</time>
  <course>239.18</course>
  <speed>0.07</speed>
  <fix>3d</fix>
</trkpt>
<trkpt lat="40.0728418" lon="-105.230575">
  <ele>1595.04</ele>
  <time>2026-08-28T19:09:06Z</time>
  <course>11.38</course>
  <speed>0.04242640687119285</speed>
  <fix>3d</fix>
</trkpt>
<trkpt lat="40.072842" lon="-105.2305751">
  <ele>1595.05</ele>
  <time>2026-08-28T19:09:06Z</time>
  <course>244.18</course>
  <speed>0.06</speed>
  <fix>3d</fix>
</trkpt>
<trkpt lat="40.0728418" lon="-105.2305751">
  <ele>1594.94</ele>
  <time>2026-08-28T19:09:06Z</time>
  <course>11.38</course>
  <speed>0.0282842712474619</speed>
  <fix>3d</fix>
</trkpt>
<trkpt lat="40.0728419" lon="-105.2305752">
  <ele>1594.95</ele>
  <time>2026-08-28T19:09:06Z</time>
  <course>250.74</course>
  <speed>0.05</speed>
  <fix>3d</fix>
</trkpt>
<trkpt lat="40.0728418" lon="-105.2305752">
  <ele>1594.84</ele>
  <time>2026-08-28T19:09:06Z</time>
  <course>11.39</course>
  <speed>0.022360679774997897</speed>
  <fix>3d</fix>
</trkpt>
<trkpt lat="40.0728419" lon="-105.2305753">
  <ele>1594.85</ele>
  <time>2026-08-28T19:09:06Z</time>
  <course>258.84</course>
  <speed>0.04</speed>
  <fix>3d</fix>
</trkpt>
<trkpt lat="40.0728418" lon="-105.2305753">
  <ele>1594.74</ele>
  <time>2026-08-28T19:09:06Z</time>
  <course>11.38</course>
  <speed>0.01414213562373095</speed>
  <fix>3d</fix>
</trkpt>
<trkpt lat="40.0728419" lon="-105.2305754">
  <ele>1594.75</ele>
  <time>2026-08-28T19:09:06Z</time>
  <course>268.68</course>
  <speed>0.04</speed>
  <fix>3d</fix>
</trkpt>
<trkpt lat="40.0728418" lon="-105.2305754">
  <ele>1594.64</ele>
  <time>2026-08-28T19:09:06Z</time>
  <course>11.39</course>
  <speed>0.0</speed>
  <fix>3d</fix>
</trkpt>
<trkpt lat="40.0728419" lon="-105.2305755">
  <ele>1594.64</ele>
  <time>2026-08-28T19:09:06Z</time>
  <course>280.68</course>
  <speed>0.03</speed>
  <fix>3d</fix>
</trkpt>
<trkpt lat="40.0728418" lon="-105.2305754">
  <ele>1594.54</ele>
  <time>2026-08-28T19:09:06Z</time>
  <course>11.4</course>
  <speed>0.0</speed>
  <fix>3d</fix>
</trkpt>
<trkpt lat="40.0728419" lon="-105.2305756">
  <ele>1594.55</ele>
  <time>2026-08-28T19:09:06Z</time>
  <course>294.46</course>
  <speed>0.03</speed>
  <fix>3d</fix>
</trkpt>
<trkpt lat="40.0728418" lon="-105.2305755">
  <ele>1594.44</ele>
  <time>2026-08-28T19:09:06Z</time>
  <course>11.37</course>
  <speed>0.0</speed>
  <fix>3d</fix>
</trkpt>
<trkpt lat="40.0728419" lon="-105.2305756">
  <ele>1594.45</ele>
  <time>2026-08-28T19:09:06Z</time>
  <course>309.12</course>
  <speed>0.03</speed>
  <fix>3d</fix>
</trkpt>
<trkpt lat="40.0728418" lon="-105.2305755">
  <ele>1594.34</ele>
  <time>2026-08-28T19:09:06Z</time>
  <course>11.38</course>
  <speed>0.01</speed>
  <fix>3d</fix>
</trkpt>
<trkpt lat="40.0728419" lon="-105.2305757">
  <ele>1594.35</ele>
  <time>2026-08-28T19:09:06Z</time>
  <course>323.74</course>
  <speed>0.02</speed>
  <fix>3d</fix>
</trkpt>
<trkpt lat="40.0728419" lon="-105.2305755">
  <ele>1594.24</ele>
  <time>2026-08-28T19:09:06Z</time>
  <course>11.38</course>
  <speed>0.01</speed>
  <fix>3d</fix>
</trkpt>
<trkpt lat="40.0728419" lon="-105.2305758">
  <ele>1594.25</ele>
  <time>2026-08-28T19:09:06Z</time>
  <course>337.1</course>
  <speed>0.03</speed>
  <fix>3d</fix>
</trkpt>
<trkpt lat="40.0728419" lon="-105.2305755">
  <ele>1594.14</ele>
  <time>2026-08-28T19:09:06Z</time>
  <course>11.39</course>
  <speed>0.022360679774997897</speed>
  <fix>3d</fix>
</trkpt>
<trkpt lat="40.072842" lon="-105.2305758">
  <ele>1594.14</ele>
  <time>2026-08-28T19:09:06Z</time>
  <course>348.06</course>
  <speed>0.03</speed>
  <fix>3d</fix>
</trkpt>
<trkpt lat="40.072842" lon="-105.2305756">
  <ele>1594.05</ele>
  <time>2026-08-28T19:09:06Z</time>
  <course>11.4</course>
  <speed>0.022360679774997897</speed>
  <fix>3d</fix>
</trkpt>
<trkpt lat="40.072842" lon="-105.2305758">
  <ele>1594.05</ele>
  <time>2026-08-28T19:09:06Z</time>
  <course>356.67</course>
  <speed>0.03</speed>
  <fix>3d</fix>
</trkpt>
<trkpt lat="40.072842" lon="-105.2305756">
  <ele>1593.95</ele>
  <time>2026-08-28T19:09:06Z</time>
  <course>11.4</course>
  <speed>0.022360679774997897</speed>
  <fix>3d</fix>
</trkpt>
<trkpt lat="40.072842" lon="-105.2305758">
  <ele>1593.95</ele>
  <time>2026-08-28T19:09:06Z</time>
  <course>4.44</course>
  <speed>0.03</speed>
  <fix>3d</fix>
</trkpt>
<trkpt lat="40.072842" lon="-105.2305756">
  <ele>1593.84</ele>
  <time>2026-08-28T19:09:06Z</time>
  <course>11.4</course>
  <speed>0.03</speed>
  <fix>3d</fix>
</trkpt>
<trkpt lat="40.0728421" lon="-105.2305758">
  <ele>1593.85</ele>
  <time>2026-08-28T19:09:06Z</time>
  <course>11.47</course>
  <speed>0.03</speed>
  <fix>3d</fix>
</trkpt>
<trkpt lat="40.0728421" lon="-105.2305756">
  <ele>1593.74</ele>
  <time>2026-08-28T19:09:06Z</time>
  <course>11.38</course>
  <speed>0.03</speed>
  <fix>3d</fix>
</trkpt>
<trkpt lat="40.0728422" lon="-105.2305758">
  <ele>1593.75</ele>
  <time>2026-08-28T19:09:06Z</time>
  <course>17.56</course>
  <speed>0.03</speed>
  <fix>3d</fix>
</trkpt>
<trkpt lat="40.0728421" lon="-105.2305756">
  <ele>1593.64</ele>
  <time>2026-08-28T19:09:06Z</time>
  <course>11.4</course>
  <speed>0.03</speed>
  <fix>3d</fix>
</trkpt>
<trkpt lat="40.0728423" lon="-105.2305758">
  <ele>1593.64</ele>
  <time>2026-08-28T19:09:06Z</time>
  <course>22.76</course>
  <speed>0.03</speed>
  <fix>3d</fix>
</trkpt>
<trkpt lat="40.0728422" lon="-105.2305755">
  <ele>1593.54</ele>
  <time>2026-08-28T19:09:06Z</time>
  <course>11.39</course>
  <speed>0.03</speed>
  <fix>3d</fix>
</trkpt>
<trkpt lat="40.0728423" lon="-105.2305758">
  <ele>1593.55</ele>
  <time>2026-08-28T19:09:06Z</time>
  <course>27.43</course>
  <speed>0.03</speed>
  <fix>3d</fix>
</trkpt>
<trkpt lat="40.0728422" lon="-105.2305755">
  <ele>1593.43</ele>
  <time>2026-08-28T19:09:06Z</time>
  <course>11.38</course>
  <speed>0.03</speed>
  <fix>3d</fix>
</trkpt>
<trkpt lat="40.0728424" lon="-105.2305758">
  <ele>1593.45</ele>
  <time>2026-08-28T19:09:06Z</time>
  <course>32.18</course>
  <speed>0.02</speed>
  <fix>3d</fix>
</trkpt>
<trkpt lat="40.0728422" lon="-105.2305755">
  <ele>1593.33</ele>
  <time>2026-08-28T19:09:06Z</time>
  <course>11.4</course>
  <speed>0.03</speed>
  <fix>3d</fix>
</trkpt>
<trkpt lat="40.0728424" lon="-105.2305757">
  <ele>1593.35</ele>
  <time>2026-08-28T19:09:06Z</time>
  <course>37.84</course>
  <speed>0.02</speed>
  <fix>3d</fix>
</trkpt>
<trkpt lat="40.0728423" lon="-105.2305754">
  <ele>1593.23</ele>
  <time>2026-08-28T19:09:06Z</time>
  <course>11.38</course>
  <speed>0.03</speed>
  <fix>3d</fix>
</trkpt>
<trkpt lat="40.0728424" lon="-105.2305756">
  <ele>1593.25</ele>
  <time>2026-08-28T19:09:06Z</time>
  <course>44.96</course>
  <speed>0.02</speed>
  <fix>3d</fix>
</trkpt>
<trkpt lat="40.0728423" lon="-105.2305754">
  <ele>1593.13</ele>
  <time>2026-08-28T19:09:06Z</time>
  <course>11.38</course>
  <speed>0.0316227766016838</speed>
  <fix>3d</fix>
</trkpt>
<trkpt lat="40.0728425" lon="-105.2305756">
  <ele>1593.15</ele>
  <time>2026-08-28T19:09:06Z</time>
  <course>52.83</course>
  <speed>0.02</speed>
  <fix>3d</fix>
</trkpt>
<trkpt lat="40.0728423" lon="-105.2305754">
  <ele>1593.03</ele>
  <time>2026-08-28T19:09:06Z</time>
  <course>11.39</course>
  <speed>0.0316227766016838</speed>
  <fix>3d</fix>
</trkpt>
<trkpt lat="40.0728425" lon="-105.2305756">
  <ele>1593.06</ele>
  <time>2026-08-28T19:09:06Z</time>
  <course>61.7</course>
  <speed>0.02</speed>
  <fix>3d</fix>
</trkpt>
<trkpt lat="40.0728423" lon="-105.2305753">
  <ele>1592.94</ele>
  <time>2026-08-28T19:09:06Z</time>
  <course>11.4</course>
  <speed>0.0316227766016838</speed>
  <fix>3d</fix>
</trkpt>
<trkpt lat="40.0728425" lon="-105.2305756">
  <ele>1592.96</ele>
  <time>2026-08-28T19:09:06Z</time>
  <course>71.75</course>
  <speed>0.01</speed>
  <fix>3d</fix>
</trkpt>
<trkpt lat="40.0728423" lon="-105.2305753">
  <ele>1592.84</ele>
  <time>2026-08-28T19:09:06Z</time>
  <course>11.38</course>
  <speed>0.03605551275463989</speed>
  <fix>3d</fix>
</trkpt>
<trkpt lat="40.0728425" lon="-105.2305755">
  <ele>1592.86</ele>
  <time>2026-08-28T19:09:06Z</time>
  <course>83.52</course>
  <speed>0.01</speed>
  <fix>3d</fix>
</trkpt>
<trkpt lat="40.0728423" lon="-105.2305753">
  <ele>1592.74</ele>
  <time>2026-08-28T19:09:06Z</time>
  <course>11.39</course>
  <speed>0.03605551275463989</speed>
  <fix>3d</fix>
</trkpt>
<trkpt lat="40.0728425" lon="-105.2305755">
  <ele>1592.76</ele>
  <time>2026-08-28T19:09:06Z</time>
  <course>97.4</course>
  <speed>0.01</speed>
  <fix>3d</fix>
</trkpt>
<trkpt lat="40.0728423" lon="-105.2305753">
  <ele>1592.64</ele>
  <time>2026-08-28T19:09:06Z</time>
  <course>11.41</course>
  <speed>0.03605551275463989</speed>
  <fix>3d</fix>
</trkpt>
<trkpt lat="40.0728425" lon="-105.2305755">
  <ele>1592.66</ele>
  <time>2026-08-28T19:09:06Z</time>
  <course>112.03</course>
  <speed>0.01</speed>
  <fix>3d</fix>
</trkpt>
<trkpt lat="40.0728423" lon="-105.2305752">
  <ele>1592.55</ele>
  <time>2026-08-28T19:09:06Z</time>
  <course>11.41</course>
  <speed>0.03605551275463989</speed>
  <fix>3d</fix>
</trkpt>
<trkpt lat="40.0728425" lon="-105.2305754">
  <ele>1592.57</ele>
  <time>2026-08-28T19:09:06Z</time>
  <course>124.82</course>
  <speed>0.01</speed>
  <fix>3d</fix>
</trkpt>
<trkpt lat="40.0728423" lon="-105.2305752">
  <ele>1592.45</ele>
  <time>2026-08-28T19:09:06Z</time>
  <course>11.41</course>
  <speed>0.03605551275463989</speed>
  <fix>3d</fix>
</trkpt>
<trkpt lat="40.0728425" lon="-105.2305753">
  <ele>1592.47</ele>
  <time>2026-08-28T19:09:06Z</time>
  <course>135.36</course>
  <speed>0.01</speed>
  <fix>3d</fix>
</trkpt>
<trkpt lat="40.0728423" lon="-105.2305752">
  <ele>1592.35</ele>
  <time>2026-08-28T19:09:06Z</time>
  <course>11.41</course>
  <speed>0.03605551275463989</speed>
  <fix>3d</fix>
</trkpt>
<trkpt lat="40.0728425" lon="-105.2305753">
  <ele>1592.36</ele>
  <time>2026-08-28T19:09:06Z</time>
  <course>144.47</course>
  <speed>0.01</speed>
  <fix>3d</fix>
</trkpt>
<trkpt lat="40.0728423" lon="-105.2305752">
  <ele>1592.25</ele>
  <time>2026-08-28T19:09:06Z</time>
  <course>11.4</course>
  <speed>0.03605551275463989</speed>
  <fix>3d</fix>
</trkpt>
<trkpt lat="40.0728425" lon="-105.2305753">
  <ele>1592.26</ele>
  <time>2026-08-28T19:09:06Z</time>
  <course>152.26</course>
  <speed>0.01</speed>
  <fix>3d</fix>
</trkpt>
<trkpt lat="40.0728423" lon="-105.2305752">
  <ele>1592.15</ele>
  <time>2026-08-28T19:09:06Z</time>
  <course>11.4</course>
  <speed>0.03605551275463989</speed>
  <fix>3d</fix>
</trkpt>
<trkpt lat="40.0728425" lon="-105.2305753">
  <ele>1592.15</ele>
  <time>2026-08-28T19:09:06Z</time>
  <course>160.45</course>
  <speed>0.01</speed>
  <fix>3d</fix>
</trkpt>
<trkpt lat="40.0728423" lon="-105.2305752">
  <ele>1592.05</ele>
  <time>2026-08-28T19:09:06Z</time>
  <course>11.41</course>
  <speed>0.0316227766016838</speed>
  <fix>3d</fix>
</trkpt>
<trkpt lat="40.0728425" lon="-105.2305753">
  <ele>1592.06</ele>
  <time>2026-08-28T19:09:06Z</time>
  <course>169.52</course>
  <speed>0.01</speed>
  <fix>3d</fix>
</trkpt>
<trkpt lat="40.0728423" lon="-105.2305752">
  <ele>1591.94</ele>
  <time>2026-08-28T19:09:06Z</time>
  <course>11.38</course>
  <speed>0.0316227766016838</speed>
  <fix>3d</fix>
</trkpt>
<trkpt lat="40.0728425" lon="-105.2305753">
  <ele>1591.96</ele>
  <time>2026-08-28T19:09:06Z</time>
  <course>176.76</course>
  <speed>0.01</speed>
  <fix>3d</fix>
</trkpt>
<trkpt lat="40.0728423" lon="-105.2305752">
  <ele>1591.84</ele>
  <time>2026-08-28T19:09:06Z</time>
  <course>11.39</course>
  <speed>0.0316227766016838</speed>
  <fix>3d</fix>
</trkpt>
<trkpt lat="40.0728424" lon="-105.2305753">
  <ele>1591.86</ele>
  <time>2026-08-28T19:09:06Z</time>
  <course>183.05</course>
  <speed>0.01</speed>
  <fix>3d</fix>
</trkpt>
<trkpt lat="40.0728422" lon="-105.2305752">
  <ele>1591.74</ele>
  <time>2026-08-28T19:09:06Z</time>
  <course>11.39</course>
  <speed>0.0316227766016838</speed>
  <fix>3d</fix>
</trkpt>
<trkpt lat="40.0728424" lon="-105.2305753">
  <ele>1591.76</ele>
  <time>2026-08-28T19:09:06Z</time>
  <course>188.94</course>
  <speed>0.01</speed>
  <fix>3d</fix>
</trkpt>
<trkpt lat="40.0728422" lon="-105.2305752">
  <ele>1591.64</ele>
  <time>2026-08-28T19:09:06Z</time>
  <course>11.41</course>
  <speed>0.0316227766016838</speed>
  <fix>3d</fix>
</trkpt>
<trkpt lat="40.0728424" lon="-105.2305753">
  <ele>1591.65</ele>
  <time>2026-08-28T19:09:06Z</time>
  <course>193.38</course>
  <speed>0.01</speed>
  <fix>3d</fix>
</trkpt>
<trkpt lat="40.0728422" lon="-105.2305752">
  <ele>1591.54</ele>
  <time>2026-08-28T19:09:06Z</time>
  <course>11.37</course>
  <speed>0.022360679774997897</speed>
  <fix>3d</fix>
</trkpt>
<trkpt lat="40.0728424" lon="-105.2305753">
  <ele>1591.56</ele>
  <time>2026-08-28T19:09:06Z</time>
  <course>196.67</course>
  <speed>0.01</speed>
  <fix>3d</fix>
</trkpt>
<trkpt lat="40.0728422" lon="-105.2305752">
  <ele>1591.44</ele>
  <time>2026-08-28T19:09:06Z</time>
  <course>11.39</course>
  <speed>0.022360679774997897</speed>
  <fix>3d</fix>
</trkpt>
<trkpt lat="40.0728423" lon="-105.2305753">
  <ele>1591.46</ele>
  <time>2026-08-28T19:09:06Z</time>
  <course>201.13</course>
  <speed>0.01</speed>
  <fix>3d</fix>
</trkpt>
<trkpt lat="40.0728422" lon="-105.2305752">
  <ele>1591.34</ele>
  <time>2026-08-28T19:09:06Z</time>
  <course>11.38</course>
  <speed>0.022360679774997897</speed>
  <fix>3d</fix>
</trkpt>
<trkpt lat="40.0728423" lon="-105.2305753">
  <ele>1591.36</ele>
  <time>2026-08-28T19:09:06Z</time>
  <course>206.0</course>
  <speed>0.01</speed>
  <fix>3d</fix>
</trkpt>
<trkpt lat="40.0728422" lon="-105.2305752">
  <ele>1591.24</ele>
  <time>2026-08-28T19:09:06Z</time>
  <course>11.4</course>
  <speed>0.022360679774997897</speed>
  <fix>3d</fix>
</trkpt>
<trkpt lat="40.0728423" lon="-105.2305753">
  <ele>1591.26</ele>
  <time>2026-08-28T19:09:06Z</time>
  <course>210.14</course>
  <speed>0.01</speed>
  <fix>3d</fix>
</trkpt>
<trkpt lat="40.0728422" lon="-105.2305752">
  <ele>1591.14</ele>
  <time>2026-08-28T19:09:06Z</time>
  <course>11.38</course>
  <speed>0.022360679774997897</speed>
  <fix>3d</fix>
</trkpt>
<trkpt lat="40.0728423" lon="-105.2305753">
  <ele>1591.15</ele>
  <time>2026-08-28T19:09:06Z</time>
  <course>214.92</course>
  <speed>0.01</speed>
  <fix>3d</fix>
</trkpt>
<trkpt lat="40.0728422" lon="-105.2305752">
  <ele>1591.04</ele>
  <time>2026-08-28T19:09:06Z</time>
  <course>11.39</course>
  <speed>0.022360679774997897</speed>
  <fix>3d</fix>
</trkpt>
<trkpt lat="40.0728423" lon="-105.2305753">
  <ele>1591.06</ele>
  <time>2026-08-28T19:09:06Z</time>
  <course>220.21</course>
  <speed>0.0</speed>
  <fix>3d</fix>
</trkpt>
<trkpt lat="40.0728422" lon="-105.2305752">
  <ele>1590.94</ele>
  <time>2026-08-28T19:09:06Z</time>
  <course>11.4</course>
  <speed>0.022360679774997897</speed>
  <fix>3d</fix>
</trkpt>
<trkpt lat="40.0728423" lon="-105.2305753">
  <ele>1590.96</ele>
  <time>2026-08-28T19:09:06Z</time>
  <course>227.14</course>
  <speed>0.0</speed>
  <fix>3d</fix>
</trkpt>
<trkpt lat="40.0728422" lon="-105.2305752">
  <ele>1590.84</ele>
  <time>2026-08-28T19:09:06Z</time>
  <course>11.4</course>
  <speed>0.01414213562373095</speed>
  <fix>3d</fix>
</trkpt>
<trkpt lat="40.0728422" lon="-105.2305753">
  <ele>1590.86</ele>
  <time>2026-08-28T19:09:06Z</time>
  <course>234.51</course>
  <speed>0.0</speed>
  <fix>3d</fix>
</trkpt>
<trkpt lat="40.0728421" lon="-105.2305752">
  <ele>1590.74</ele>
  <time>2026-08-28T19:09:06Z</time>
  <course>11.39</course>
  <speed>0.01414213562373095</speed>
  <fix>3d</fix>
</trkpt>
<trkpt lat="40.0728421" lon="-105.2305753">
  <ele>1590.76</ele>
  <time>2026-08-28T19:09:06Z</time>
  <course>242.2</course>
  <speed>0.0</speed>
  <fix>3d</fix>
</trkpt>
<trkpt lat="40.0728421" lon="-105.2305752">
  <ele>1590.64</ele>
  <time>2026-08-28T19:09:06Z</time>
  <course>11.38</course>
  <speed>0.01414213562373095</speed>
  <fix>3d</fix>
</trkpt>
<trkpt lat="40.0728421" lon="-105.2305753">
  <ele>1590.65</ele>
  <time>2026-08-28T19:09:06Z</time>
  <course>251.8</course>
  <speed>0.0</speed>
  <fix>3d</fix>
</trkpt>
<trkpt lat="40.0728421" lon="-105.2305752">
  <ele>1590.54</ele>
  <time>2026-08-28T19:09:06Z</time>
  <course>11.39</course>
  <speed>0.01414213562373095</speed>
  <fix>3d</fix>
</trkpt>
<trkpt lat="40.0728421" lon="-105.2305753">
  <ele>1590.56</ele>
  <time>2026-08-28T19:09:06Z</time>
  <course>263.65</course>
  <speed>0.0</speed>
  <fix>3d</fix>
</trkpt>
<trkpt lat="40.0728421" lon="-105.2305752">
  <ele>1590.44</ele>
  <time>2026-08-28T19:09:06Z</time>
  <course>11.4</course>
  <speed>0.01414213562373095</speed>
  <fix>3d</fix>
</trkpt>
<trkpt lat="40.0728421" lon="-105.2305753">
  <ele>1590.46</ele>
  <time>2026-08-28T19:09:06Z</time>
  <course>277.48</course>
  <speed>0.0</speed>
  <fix>3d</fix>
</trkpt>
<trkpt lat="40.0728421" lon="-105.2305752">
  <ele>1590.35</ele>
  <time>2026-08-28T19:09:06Z</time>
  <course>11.39</course>
  <speed>0.01414213562373095</speed>
  <fix>3d</fix>
</trkpt>
<trkpt lat="40.0728421" lon="-105.2305754">
  <ele>1590.36</ele>
  <time>2026-08-28T19:09:06Z</time>
  <course>294.19</course>
  <speed>0.0</speed>
  <fix>3d</fix>
</trkpt>
<trkpt lat="40.0728421" lon="-105.2305752">
  <ele>1590.25</ele>
  <time>2026-08-28T19:09:06Z</time>
  <course>11.39</course>
  <speed>0.01414213562373095</speed>
  <fix>3d</fix>
</trkpt>
<trkpt lat="40.0728421" lon="-105.2305755">
  <ele>1590.26</ele>
  <time>2026-08-28T19:09:06Z</time>
  <course>309.21</course>
  <speed>0.0</speed>
  <fix>3d</fix>
</trkpt>
<trkpt lat="40.0728421" lon="-105.2305752">
  <ele>1590.15</ele>
  <time>2026-08-28T19:09:06Z</time>
  <course>11.39</course>
  <speed>0.01414213562373095</speed>
  <fix>3d</fix>
</trkpt>
<trkpt lat="40.0728421" lon="-105.2305755">
  <ele>1590.15</ele>
  <time>2026-08-28T19:09:06Z</time>
  <course>318.97</course>
  <speed>0.0</speed>
  <fix>3d</fix>
</trkpt>
<trkpt lat="40.0728421" lon="-105.2305752">
  <ele>1590.04</ele>
  <time>2026-08-28T19:09:06Z</time>
  <course>11.4</course>
  <speed>0.01414213562373095</speed>
  <fix>3d</fix>
</trkpt>
<trkpt lat="40.0728421" lon="-105.2305755">
  <ele>1590.05</ele>
  <time>2026-08-28T19:09:06Z</time>
  <course>326.12</course>
  <speed>0.01</speed>
  <fix>3d</fix>
</trkpt>
<trkpt lat="40.0728421" lon="-105.2305752">
  <ele>1589.94</ele>
  <time>2026-08-28T19:09:06Z</time>
  <course>11.38</course>
  <speed>0.01</speed>
  <fix>3d</fix>
</trkpt>
<trkpt lat="40.0728421" lon="-105.2305755">
  <ele>1589.95</ele>
  <time>2026-08-28T19:09:06Z</time>
  <course>333.79</course>
  <speed>0.01</speed>
  <fix>3d</fix>
</trkpt>
<trkpt lat="40.0728421" lon="-105.2305752">
  <ele>1589.83</ele>
  <time>2026-08-28T19:09:06Z</time>
  <course>11.4</course>
  <speed>0.01</speed>
  <fix>3d</fix>
</trkpt>
<trkpt lat="40.0728421" lon="-105.2305755">
  <ele>1589.85</ele>
  <time>2026-08-28T19:09:06Z</time>
  <course>340.98</course>
  <speed>0.01</speed>
  <fix>3d</fix>
</trkpt>
<trkpt lat="40.0728421" lon="-105.2305752">
  <ele>1589.73</ele>
  <time>2026-08-28T19:09:06Z</time>
  <course>11.36</course>
  <speed>0.01</speed>
  <fix>3d</fix>
</trkpt>
<trkpt lat="40.0728421" lon="-105.2305755">
  <ele>1589.75</ele>
  <time>2026-08-28T19:09:06Z</time>
  <course>347.19</course>
  <speed>0.01</speed>
  <fix>3d</fix>
</trkpt>
<trkpt lat="40.0728421" lon="-105.2305752">
  <ele>1589.63</ele>
  <time>2026-08-28T19:09:06Z</time>
  <course>11.35</course>
  <speed>0.01</speed>
  <fix>3d</fix>
</trkpt>
<trkpt lat="40.0728422" lon="-105.2305755">
  <ele>1589.64</ele>
  <time>2026-08-28T19:09:06Z</time>
  <course>353.06</course>
  <speed>0.01</speed>
  <fix>3d</fix>
</trkpt>
<trkpt lat="40.0728421" lon="-105.2305753">
  <ele>1589.53</ele>
  <time>2026-08-28T19:09:06Z</time>
  <course>11.37</course>
  <speed>0.01</speed>
  <fix>3d</fix>
</trkpt>
<trkpt lat="40.0728423" lon="-105.2305755">
  <ele>1589.55</ele>
  <time>2026-08-28T19:09:06Z</time>
  <course>356.55</course>
  <speed>0.01</speed>
  <fix>3d</fix>
</trkpt>
<trkpt lat="40.0728421" lon="-105.2305753">
  <ele>1589.44</ele>
  <time>2026-08-28T19:09:06Z</time>
  <course>11.38</course>
  <speed>0.02</speed>
  <fix>3d</fix>
</trkpt>
<trkpt lat="40.0728423" lon="-105.2305755">
  <ele>1589.46</ele>
  <time>2026-08-28T19:09:06Z</time>
  <course>359.15</course>
  <speed>0.01</speed>
  <fix>3d</fix>
</trkpt>
<trkpt lat="40.0728421" lon="-105.2305753">
  <ele>1589.34</ele>
  <time>2026-08-28T19:09:06Z</time>
  <course>11.38</course>
  <speed>0.02</speed>
  <fix>3d</fix>
</trkpt>
<trkpt lat="40.0728423" lon="-105.2305755">
  <ele>1589.36</ele>
  <time>2026-08-28T19:09:06Z</time>
  <course>2.28</course>
  <speed>0.01</speed>
  <fix>3d</fix>
</trkpt>
<trkpt lat="40.0728421" lon="-105.2305753">
  <ele>1589.24</ele>
  <time>2026-08-28T19:09:06Z</time>
  <course>11.39</course>
  <speed>0.02</speed>
  <fix>3d</fix>
</trkpt>
<trkpt lat="40.0728423" lon="-105.2305755">
  <ele>1589.26</ele>
  <time>2026-08-28T19:09:06Z</time>
  <course>4.84</course>
  <speed>0.01</speed>
  <fix>3d</fix>
</trkpt>
<trkpt lat="40.0728422" lon="-105.2305753">
  <ele>1589.14</ele>
  <time>2026-08-28T19:09:06Z</time>
  <course>11.4</course>
  <speed>0.022360679774997897</speed>
  <fix>3d</fix>
</trkpt>
<trkpt lat="40.0728424" lon="-105.2305755">
  <ele>1589.15</ele>
  <time>2026-08-28T19:09:06Z</time>
  <course>7.35</course>
  <speed>0.01</speed>
  <fix>3d</fix>
</trkpt>
<trkpt lat="40.0728422" lon="-105.2305753">
  <ele>1589.04</ele>
  <time>2026-08-28T19:09:06Z</time>
  <course>11.38</course>
  <speed>0.022360679774997897</speed>
  <fix>3d</fix>
</trkpt>
<trkpt lat="40.0728424" lon="-105.2305755">
  <ele>1589.06</ele>
  <time>2026-08-28T19:09:06Z</time>
  <course>11.96</course>
  <speed>0.01</speed>
  <fix>3d</fix>
</trkpt>
<trkpt lat="40.0728422" lon="-105.2305753">
  <ele>1588.94</ele>
  <time>2026-08-28T19:09:06Z</time>
  <course>11.39</course>
  <speed>0.022360679774997897</speed>
  <fix>3d</fix>
</trkpt>
<trkpt lat="40.0728424" lon="-105.2305755">
  <ele>1588.96</ele>
  <time>2026-08-28T19:09:06Z</time>
  <course>19.6</course>
  <speed>0.0</speed>
  <fix>3d</fix>
</trkpt>
<trkpt lat="40.0728422" lon="-105.2305753">
  <ele>1588.84</ele>
  <time>2026-08-28T19:09:06Z</time>
  <course>11.4</course>
  <speed>0.022360679774997897</speed>
  <fix>3d</fix>
</trkpt>
<trkpt lat="40.0728424" lon="-105.2305755">
  <ele>1588.86</ele>
  <time>2026-08-28T19:09:06Z</time>
  <course>29.73</course>
  <speed>0.0</speed>
  <fix>3d</fix>
</trkpt>
<trkpt lat="40.0728422" lon="-105.2305753">
  <ele>1588.74</ele>
  <time>2026-08-28T19:09:06Z</time>
  <course>11.4</course>
  <speed>0.022360679774997897</speed>
  <fix>3d</fix>
</trkpt>
<trkpt lat="40.0728424" lon="-105.2305755">
  <ele>1588.76</ele>
  <time>2026-08-28T19:09:06Z</time>
  <course>46.27</course>
  <speed>0.0</speed>
  <fix>3d</fix>
</trkpt>
<trkpt lat="40.0728422" lon="-105.2305753">
  <ele>1588.64</ele>
  <time>2026-08-28T19:09:06Z</time>
  <course>11.38</course>
  <speed>0.0282842712474619</speed>
  <fix>3d</fix>
</trkpt>
<trkpt lat="40.0728424" lon="-105.2305755">
  <ele>1588.65</ele>
  <time>2026-08-28T19:09:06Z</time>
  <course>70.91</course>
  <speed>0.0</speed>
  <fix>3d</fix>
</trkpt>
<trkpt lat="40.0728422" lon="-105.2305753">
  <ele>1588.54</ele>
  <time>2026-08-28T19:09:06Z</time>
  <course>11.39</course>
  <speed>0.0282842712474619</speed>
  <fix>3d</fix>
</trkpt>
<trkpt lat="40.0728424" lon="-105.2305755">
  <ele>1588.56</ele>
  <time>2026-08-28T19:09:06Z</time>
  <course>96.26</course>
  <speed>0.0</speed>
  <fix>3d</fix>
</trkpt>
<trkpt lat="40.0728422" lon="-105.2305753">
  <ele>1588.44</ele>
  <time>2026-08-28T19:09:06Z</time>
  <course>11.39</course>
  <speed>0.0282842712474619</speed>
  <fix>3d</fix>
</trkpt>
<trkpt lat="40.0728424" lon="-105.2305755">
  <ele>1588.46</ele>
  <time>2026-08-28T19:09:06Z</time>
  <course>116.71</course>
  <speed>0.0</speed>
  <fix>3d</fix>
</trkpt>
<trkpt lat="40.0728422" lon="-105.2305753">
  <ele>1588.34</ele>
  <time>2026-08-28T19:09:06Z</time>
  <course>11.4</course>
  <speed>0.0282842712474619</speed>
  <fix>3d</fix>
</trkpt>
<trkpt lat="40.0728424" lon="-105.2305755">
  <ele>1588.36</ele>
  <time>2026-08-28T19:09:06Z</time>
  <course>128.66</course>
  <speed>0.0</speed>
  <fix>3d</fix>
</trkpt>
<trkpt lat="40.0728422" lon="-105.2305753">
  <ele>1588.24</ele>
  <time>2026-08-28T19:09:06Z</time>
  <course>11.39</course>
  <speed>0.0282842712474619</speed>
  <fix>3d</fix>
</trkpt>
<trkpt lat="40.0728424" lon="-105.2305755">
  <ele>1588.26</ele>
  <time>2026-08-28T19:09:06Z</time>
  <course>135.59</course>
  <speed>0.0</speed>
  <fix>3d</fix>
</trkpt>
<trkpt lat="40.0728422" lon="-105.2305753">
  <ele>1588.14</ele>
  <time>2026-08-28T19:09:06Z</time>
  <course>11.38</course>
  <speed>0.0282842712474619</speed>
  <fix>3d</fix>
</trkpt>
<trkpt lat="40.0728424" lon="-105.2305755">
  <ele>1588.15</ele>
  <time>2026-08-28T19:09:06Z</time>
  <course>139.76</course>
  <speed>0.0</speed>
  <fix>3d</fix>
</trkpt>
<trkpt lat="40.0728422" lon="-105.2305753">
  <ele>1588.04</ele>
  <time>2026-08-28T19:09:06Z</time>
  <course>11.39</course>
  <speed>0.0282842712474619</speed>
  <fix>3d</fix>
</trkpt>
<trkpt lat="40.0728424" lon="-105.2305755">
  <ele>1588.06</ele>
  <time>2026-08-28T19:09:06Z</time>
  <course>143.05</course>
  <speed>0.0</speed>
  <fix>3d</fix>
</trkpt>
<trkpt lat="40.0728422" lon="-105.2305753">
  <ele>1587.94</ele>
  <time>2026-08-28T19:09:06Z</time>
  <course>11.38</course>
  <speed>0.0282842712474619</speed>
  <fix>3d</fix>
</trkpt>
<trkpt lat="40.0728424" lon="-105.2305755">
  <ele>1587.96</ele>
  <time>2026-08-28T19:09:06Z</time>
  <course>144.94</course>
  <speed>0.0</speed>
  <fix>3d</fix>
</trkpt>
<trkpt lat="40.0728422" lon="-105.2305753">
  <ele>1587.84</ele>
  <time>2026-08-28T19:09:06Z</time>
  <course>11.39</course>
  <speed>0.0282842712474619</speed>
  <fix>3d</fix>
</trkpt>
<trkpt lat="40.0728424" lon="-105.2305755">
  <ele>1587.86</ele>
  <time>2026-08-28T19:09:06Z</time>
  <course>145.78</course>
  <speed>0.0</speed>
  <fix>3d</fix>
</trkpt>
<trkpt lat="40.0728422" lon="-105.2305753">
  <ele>1587.74</ele>
  <time>2026-08-28T19:09:06Z</time>
  <course>11.39</course>
  <speed>0.0282842712474619</speed>
  <fix>3d</fix>
</trkpt>
<trkpt lat="40.0728424" lon="-105.2305755">
  <ele>1587.76</ele>
  <time>2026-08-28T19:09:06Z</time>
  <course>147.03</course>
  <speed>0.0</speed>
  <fix>3d</fix>
</trkpt>
<trkpt lat="40.0728422" lon="-105.2305753">
  <ele>1587.64</ele>
  <time>2026-08-28T19:09:07Z</time>
  <course>11.38</course>
  <speed>0.0282842712474619</speed>
  <fix>3d</fix>
</trkpt>
<trkpt lat="40.0728424" lon="-105.2305755">
  <ele>1587.65</ele>
  <time>2026-08-28T19:09:07Z</time>
  <course>147.62</course>
  <speed>0.0</speed>
  <fix>3d</fix>
</trkpt>
<trkpt lat="40.0728422" lon="-105.2305753">
  <ele>1587.54</ele>
  <time>2026-08-28T19:09:07Z</time>
  <course>11.38</course>
  <speed>0.0282842712474619</speed>
  <fix>3d</fix>
</trkpt>
<trkpt lat="40.0728424" lon="-105.2305755">
  <ele>1587.55</ele>
  <time>2026-08-28T19:09:07Z</time>
  <course>146.81</course>
  <speed>0.0</speed>
  <fix>3d</fix>
</trkpt>
<trkpt lat="40.0728422" lon="-105.2305753">
  <ele>1587.44</ele>
  <time>2026-08-28T19:09:07Z</time>
  <course>11.4</course>
  <speed>0.0282842712474619</speed>
  <fix>3d</fix>
</trkpt>
<trkpt lat="40.0728424" lon="-105.2305755">
  <ele>1587.45</ele>
  <time>2026-08-28T19:09:07Z</time>
  <course>146.11</course>
  <speed>0.0</speed>
  <fix>3d</fix>
</trkpt>
<trkpt lat="40.0728422" lon="-105.2305753">
  <ele>1587.34</ele>
  <time>2026-08-28T19:09:07Z</time>
  <course>11.39</course>
  <speed>0.0282842712474619</speed>
  <fix>3d</fix>
</trkpt>
<trkpt lat="40.0728424" lon="-105.2305754">
  <ele>1587.35</ele>
  <time>2026-08-28T19:09:07Z</time>
  <course>145.06</course>
  <speed>0.0</speed>
  <fix>3d</fix>
</trkpt>
<trkpt lat="40.0728422" lon="-105.2305753">
  <ele>1587.25</ele>
  <time>2026-08-28T19:09:07Z</time>
  <course>11.39</course>
  <speed>0.0282842712474619</speed>
  <fix>3d</fix>
</trkpt>
<trkpt lat="40.0728424" lon="-105.2305753">
  <ele>1587.25</ele>
  <time>2026-08-28T19:09:07Z</time>
  <course>142.94</course>
  <speed>0.0</speed>
  <fix>3d</fix>
</trkpt>
<trkpt lat="40.0728422" lon="-105.2305753">
  <ele>1587.15</ele>
  <time>2026-08-28T19:09:07Z</time>
  <course>11.39</course>
  <speed>0.0282842712474619</speed>
  <fix>3d</fix>
</trkpt>
<trkpt lat="40.0728424" lon="-105.2305753">
  <ele>1587.14</ele>
  <time>2026-08-28T19:09:07Z</time>
  <course>142.8</course>
  <speed>0.0</speed>
  <fix>3d</fix>
</trkpt>
<trkpt lat="40.0728422" lon="-105.2305752">
  <ele>1587.04</ele>
  <time>2026-08-28T19:09:07Z</time>
  <course>11.4</course>
  <speed>0.0282842712474619</speed>
  <fix>3d</fix>
</trkpt>
<trkpt lat="40.0728424" lon="-105.2305753">
  <ele>1587.05</ele>
  <time>2026-08-28T19:09:07Z</time>
  <course>144.86</course>
  <speed>0.0</speed>
  <fix>3d</fix>
</trkpt>
<trkpt lat="40.0728422" lon="-105.2305752">
  <ele>1586.94</ele>
  <time>2026-08-28T19:09:07Z</time>
  <course>11.39</course>
  <speed>0.0282842712474619</speed>
  <fix>3d</fix>
</trkpt>
<trkpt lat="40.0728424" lon="-105.2305753">
  <ele>1586.95</ele>
  <time>2026-08-28T19:09:07Z</time>
  <course>148.22</course>
  <speed>0.0</speed>
  <fix>3d</fix>
</trkpt>
<trkpt lat="40.0728422" lon="-105.2305752">
  <ele>1586.84</ele>
  <time>2026-08-28T19:09:07Z</time>
  <course>11.4</course>
  <speed>0.022360679774997897</speed>
  <fix>3d</fix>
</trkpt>
<trkpt lat="40.0728423" lon="-105.2305753">
  <ele>1586.85</ele>
  <time>2026-08-28T19:09:07Z</time>
  <course>157.01</course>
  <speed>0.0</speed>
  <fix>3d</fix>
</trkpt>
<trkpt lat="40.0728422" lon="-105.2305752">
  <ele>1586.74</ele>
  <time>2026-08-28T19:09:07Z</time>
  <course>11.37</course>
  <speed>0.022360679774997897</speed>
  <fix>3d</fix>
</trkpt>
<trkpt lat="40.0728423" lon="-105.2305753">
  <ele>1586.75</ele>
  <time>2026-08-28T19:09:07Z</time>
  <course>168.43</course>
  <speed>0.0</speed>
  <fix>3d</fix>
</trkpt>
<trkpt lat="40.0728422" lon="-105.2305752">
  <ele>1586.64</ele>
  <time>2026-08-28T19:09:07Z</time>
  <course>11.39</course>
  <speed>0.022360679774997897</speed>
  <fix>3d</fix>
</trkpt>
<trkpt lat="40.0728423" lon="-105.2305753">
  <ele>1586.64</ele>
  <time>2026-08-28T19:09:07Z</time>
  <course>179.04</course>
  <speed>0.0</speed>
  <fix>3d</fix>
</trkpt>
<trkpt lat="40.0728422" lon="-105.2305752">
  <ele>1586.53</ele>
  <time>2026-08-28T19:09:07Z</time>
  <course>11.36</course>
  <speed>0.022360679774997897</speed>
  <fix>3d</fix>
</trkpt>
<trkpt lat="40.0728423" lon="-105.2305753">
  <ele>1586.55</ele>
  <time>2026-08-28T19:09:07Z</time>
  <course>188.33</course>
  <speed>0.0</speed>
  <fix>3d</fix>
</trkpt>
<trkpt lat="40.0728422" lon="-105.2305752">
  <ele>1586.43</ele>
  <time>2026-08-28T19:09:07Z</time>
  <course>11.37</course>
  <speed>0.022360679774997897</speed>
  <fix>3d</fix>
</trkpt>
<trkpt lat="40.0728423" lon="-105.2305753">
  <ele>1586.45</ele>
  <time>2026-08-28T19:09:07Z</time>
  <course>197.48</course>
  <speed>0.0</speed>
  <fix>3d</fix>
</trkpt>
<trkpt lat="40.0728422" lon="-105.2305752">
  <ele>1586.33</ele>
  <time>2026-08-28T19:09:07Z</time>
  <course>11.38</course>
  <speed>0.022360679774997897</speed>
  <fix>3d</fix>
</trkpt>
<trkpt lat="40.0728423" lon="-105.2305753">
  <ele>1586.35</ele>
  <time>2026-08-28T19:09:07Z</time>
  <course>210.97</course>
  <speed>0.0</speed>
  <fix>3d</fix>
</trkpt>
<trkpt lat="40.0728422" lon="-105.2305752">
  <ele>1586.24</ele>
  <time>2026-08-28T19:09:07Z</time>
  <course>11.37</course>
  <speed>0.01414213562373095</speed>
  <fix>3d</fix>
</trkpt>
<trkpt lat="40.0728423" lon="-105.2305753">
  <ele>1586.25</ele>
  <time>2026-08-28T19:09:07Z</time>
  <course>222.82</course>
  <speed>0.0</speed>
  <fix>3d</fix>
</trkpt>
<trkpt lat="40.0728422" lon="-105.2305752">
  <ele>1586.14</ele>
  <time>2026-08-28T19:09:07Z</time>
  <course>11.39</course>
  <speed>0.01</speed>
  <fix>3d</fix>
</trkpt>
<trkpt lat="40.0728423" lon="-105.2305753">
  <ele>1586.14</ele>
  <time>2026-08-28T19:09:07Z</time>
  <course>234.6</course>
  <speed>0.0</speed>
  <fix>3d</fix>
</trkpt>
<trkpt lat="40.0728422" lon="-105.2305752">
  <ele>1586.14</ele>
  <time>2026-08-28T19:09:07Z</time>
  <course>11.42</course>
  <speed>0.01414213562373095</speed>
  <fix>3d</fix>
</trkpt>
<trkpt lat="40.0728423" lon="-105.2305753">
  <ele>1586.08</ele>
  <time>2026-08-28T19:09:07Z</time>
  <course>276.76</course>
  <speed>0.01</speed>
  <fix>3d</fix>
</trkpt>
<trkpt lat="40.0728422" lon="-105.2305752">
  <ele>1586.15</ele>
  <time>2026-08-28T19:09:07Z</time>
  <course>11.47</course>
  <speed>0.022360679774997897</speed>
  <fix>3d</fix>
</trkpt>
<trkpt lat="40.0728423" lon="-105.2305753">
  <ele>1586.08</ele>
  <time>2026-08-28T19:09:07Z</time>
  <course>296.32</course>
  <speed>0.0</speed>
  <fix>3d</fix>
</trkpt>
<trkpt lat="40.0728422" lon="-105.2305752">
  <ele>1586.14</ele>
  <time>2026-08-28T19:09:07Z</time>
  <course>11.51</course>
  <speed>0.022360679774997897</speed>
  <fix>3d</fix>
</trkpt>
<trkpt lat="40.0728423" lon="-105.2305753">
  <ele>1586.1</ele>
  <time>2026-08-28T19:09:07Z</time>
  <course>77.59</course>
  <speed>0.0</speed>
  <fix>3d</fix>
</trkpt>
<trkpt lat="40.0728422" lon="-105.2305752">
  <ele>1586.14</ele>
  <time>2026-08-28T19:09:07Z</time>
  <course>11.55</course>
  <speed>0.01414213562373095</speed>
  <fix>3d</fix>
</trkpt>
<trkpt lat="40.0728423" lon="-105.2305753">
  <ele>1586.09</ele>
  <time>2026-08-28T19:09:07Z</time>
  <course>112.49</course>
  <speed>0.0</speed>
  <fix>3d</fix>
</trkpt>
<trkpt lat="40.0728422" lon="-105.2305752">
  <ele>1586.14</ele>
  <time>2026-08-28T19:09:07Z</time>
  <course>11.58</course>
  <speed>0.022360679774997897</speed>
  <fix>3d</fix>
</trkpt>
<trkpt lat="40.0728423" lon="-105.2305753">
  <ele>1586.09</ele>
  <time>2026-08-28T19:09:07Z</time>
  <course>314.02</course>
  <speed>0.0</speed>
  <fix>3d</fix>
</trkpt>
<trkpt lat="40.0728422" lon="-105.2305752">
  <ele>1586.15</ele>
  <time>2026-08-28T19:09:07Z</time>
  <course>11.61</course>
  <speed>0.01414213562373095</speed>
  <fix>3d</fix>
</trkpt>
<trkpt lat="40.0728423" lon="-105.2305753">
  <ele>1586.09</ele>
  <time>2026-08-28T19:09:07Z</time>
  <course>19.6</course>
  <speed>0.0</speed>
  <fix>3d</fix>
</trkpt>
<trkpt lat="40.0728422" lon="-105.2305752">
  <ele>1586.15</ele>
  <time>2026-08-28T19:09:07Z</time>
  <course>11.63</course>
  <speed>0.01414213562373095</speed>
  <fix>3d</fix>
</trkpt>
<trkpt lat="40.0728423" lon="-105.2305753">
  <ele>1586.09</ele>
  <time>2026-08-28T19:09:07Z</time>
  <course>18.65</course>
  <speed>0.0</speed>
  <fix>3d</fix>
</trkpt>
<trkpt lat="40.0728422" lon="-105.2305752">
  <ele>1586.15</ele>
  <time>2026-08-28T19:09:07Z</time>
  <course>11.66</course>
  <speed>0.01414213562373095</speed>
  <fix>3d</fix>
</trkpt>
<trkpt lat="40.0728423" lon="-105.2305753">
  <ele>1586.09</ele>
  <time>2026-08-28T19:09:07Z</time>
  <course>331.92</course>
  <speed>0.0</speed>
  <fix>3d</fix>
</trkpt>
<trkpt lat="40.0728422" lon="-105.2305752">
  <ele>1586.15</ele>
  <time>2026-08-28T19:09:07Z</time>
  <course>11.68</course>
  <speed>0.01414213562373095</speed>
  <fix>3d</fix>
</trkpt>
<trkpt lat="40.0728423" lon="-105.2305753">
  <ele>1586.09</ele>
  <time>2026-08-28T19:09:07Z</time>
  <course>9.4</course>
  <speed>0.0</speed>
  <fix>3d</fix>
</trkpt>
<trkpt lat="40.0728422" lon="-105.2305752">
  <ele>1586.15</ele>
  <time>2026-08-28T19:09:07Z</time>
  <course>11.69</course>
  <speed>0.044721359549995794</speed>
  <fix>3d</fix>
</trkpt>
<trkpt lat="40.0728423" lon="-105.2305753">
  <ele>1586.09</ele>
  <time>2026-08-28T19:09:07Z</time>
  <course>96.25</course>
  <speed>0.0</speed>
  <fix>3d</fix>
</trkpt>
<trkpt lat="40.0728422" lon="-105.2305751">
  <ele>1586.16</ele>
  <time>2026-08-28T19:09:07Z</time>
  <course>11.65</course>
  <speed>0.0282842712474619</speed>
  <fix>3d</fix>
</trkpt>
<trkpt lat="40.0728423" lon="-105.2305753">
  <ele>1586.09</ele>
  <time>2026-08-28T19:09:07Z</time>
  <course>100.64</course>
  <speed>0.01</speed>
  <fix>3d</fix>
</trkpt>
<trkpt lat="40.0728422" lon="-105.2305751">
  <ele>1586.16</ele>
  <time>2026-08-28T19:09:07Z</time>
  <course>11.61</course>
  <speed>0.01414213562373095</speed>
  <fix>3d</fix>
</trkpt>
<trkpt lat="40.0728423" lon="-105.2305753">
  <ele>1586.09</ele>
  <time>2026-08-28T19:09:07Z</time>
  <course>108.47</course>
  <speed>0.0</speed>
  <fix>3d</fix>
</trkpt>
<trkpt lat="40.0728422" lon="-105.2305751">
  <ele>1586.16</ele>
  <time>2026-08-28T19:09:07Z</time>
  <course>11.59</course>
  <speed>0.01414213562373095</speed>
  <fix>3d</fix>
</trkpt>
<trkpt lat="40.0728423" lon="-105.2305753">
  <ele>1586.09</ele>
  <time>2026-08-28T19:09:07Z</time>
  <course>264.91</course>
  <speed>0.0</speed>
  <fix>3d</fix>
</trkpt>
<trkpt lat="40.0728422" lon="-105.2305751">
  <ele>1586.16</ele>
  <time>2026-08-28T19:09:07Z</time>
  <course>11.58</course>
  <speed>0.01414213562373095</speed>
  <fix>3d</fix>
</trkpt>
<trkpt lat="40.0728423" lon="-105.2305753">
  <ele>1586.09</ele>
  <time>2026-08-28T19:09:07Z</time>
  <course>256.9</course>
  <speed>0.0</speed>
  <fix>3d</fix>
</trkpt>
<trkpt lat="40.0728422" lon="-105.2305751">
  <ele>1586.16</ele>
  <time>2026-08-28T19:09:07Z</time>
  <course>11.58</course>
  <speed>0.01414213562373095</speed>
  <fix>3d</fix>
</trkpt>
<trkpt lat="40.0728423" lon="-105.2305753">
  <ele>1586.09</ele>
  <time>2026-08-28T19:09:07Z</time>
  <course>221.09</course>
  <speed>0.0</speed>
  <fix>3d</fix>
</trkpt>
<trkpt lat="40.0728422" lon="-105.2305752">
  <ele>1586.16</ele>
  <time>2026-08-28T19:09:07Z</time>
  <course>11.58</course>
  <speed>0.01414213562373095</speed>
  <fix>3d</fix>
</trkpt>
<trkpt lat="40.0728423" lon="-105.2305753">
  <ele>1586.09</ele>
  <time>2026-08-28T19:09:07Z</time>
  <course>240.2</course>
  <speed>0.0</speed>
  <fix>3d</fix>
</trkpt>
<trkpt lat="40.0728422" lon="-105.2305752">
  <ele>1586.16</ele>
  <time>2026-08-28T19:09:07Z</time>
  <course>11.58</course>
  <speed>0.01414213562373095</speed>
  <fix>3d</fix>
</trkpt>
<trkpt lat="40.0728423" lon="-105.2305753">
  <ele>1586.09</ele>
  <time>2026-08-28T19:09:07Z</time>
  <course>238.23</course>
  <speed>0.0</speed>
  <fix>3d</fix>
</trkpt>
<trkpt lat="40.0728422" lon="-105.2305752">
  <ele>1586.17</ele>
  <time>2026-08-28T19:09:07Z</time>
  <course>11.58</course>
  <speed>0.01414213562373095</speed>
  <fix>3d</fix>
</trkpt>
<trkpt lat="40.0728423" lon="-105.2305753">
  <ele>1586.09</ele>
  <time>2026-08-28T19:09:07Z</time>
  <course>214.95</course>
  <speed>0.0</speed>
  <fix>3d</fix>
</trkpt>
<trkpt lat="40.0728422" lon="-105.2305752">
  <ele>1586.17</ele>
  <time>2026-08-28T19:09:07Z</time>
  <course>11.57</course>
  <speed>0.022360679774997897</speed>
  <fix>3d</fix>
</trkpt>
<trkpt lat="40.0728423" lon="-105.2305753">
  <ele>1586.09</ele>
  <time>2026-08-28T19:09:07Z</time>
  <course>192.96</course>
  <speed>0.0</speed>
  <fix>3d</fix>
</trkpt>
<trkpt lat="40.0728422" lon="-105.2305752">
  <ele>1586.17</ele>
  <time>2026-08-28T19:09:07Z</time>
  <course>11.57</course>
  <speed>0.022360679774997897</speed>
  <fix>3d</fix>
</trkpt>
<trkpt lat="40.0728423" lon="-105.2305753">
  <ele>1586.09</ele>
  <time>2026-08-28T19:09:07Z</time>
  <course>39.62</course>
  <speed>0.0</speed>
  <fix>3d</fix>
</trkpt>
<trkpt lat="40.0728422" lon="-105.2305752">
  <ele>1586.17</ele>
  <time>2026-08-28T19:09:07Z</time>
  <course>11.57</course>
  <speed>0.022360679774997897</speed>
  <fix>3d</fix>
</trkpt>
<trkpt lat="40.0728423" lon="-105.2305753">
  <ele>1586.09</ele>
  <time>2026-08-28T19:09:07Z</time>
  <course>303.19</course>
  <speed>0.0</speed>
  <fix>3d</fix>
</trkpt>
<trkpt lat="40.0728422" lon="-105.2305752">
  <ele>1586.17</ele>
  <time>2026-08-28T19:09:07Z</time>
  <course>11.57</course>
  <speed>0.022360679774997897</speed>
  <fix>3d</fix>
</trkpt>
<trkpt lat="40.0728423" lon="-105.2305753">
  <ele>1586.09</ele>
  <time>2026-08-28T19:09:07Z</time>
  <course>278.43</course>
  <speed>0.0</speed>
  <fix>3d</fix>
</trkpt>
<trkpt lat="40.0728422" lon="-105.2305752">
  <ele>1586.17</ele>
  <time>2026-08-28T19:09:07Z</time>
  <course>11.57</course>
  <speed>0.022360679774997897</speed>
  <fix>3d</fix>
</trkpt>
<trkpt lat="40.0728423" lon="-105.2305753">
  <ele>1586.09</ele>
  <time>2026-08-28T19:09:07Z</time>
  <course>297.79</course>
  <speed>0.0</speed>
  <fix>3d</fix>
</trkpt>
<trkpt lat="40.0728422" lon="-105.2305752">
  <ele>1586.17</ele>
  <time>2026-08-28T19:09:07Z</time>
  <course>11.57</course>
  <speed>0.022360679774997897</speed>
  <fix>3d</fix>
</trkpt>
<trkpt lat="40.0728423" lon="-105.2305753">
  <ele>1586.09</ele>
  <time>2026-08-28T19:09:07Z</time>
  <course>299.25</course>
  <speed>0.0</speed>
  <fix>3d</fix>
</trkpt>
<trkpt lat="40.0728422" lon="-105.2305752">
  <ele>1586.17</ele>
  <time>2026-08-28T19:09:07Z</time>
  <course>11.57</course>
  <speed>0.022360679774997897</speed>
  <fix>3d</fix>
</trkpt>
<trkpt lat="40.0728423" lon="-105.2305753">
  <ele>1586.09</ele>
  <time>2026-08-28T19:09:07Z</time>
  <course>296.02</course>
  <speed>0.0</speed>
  <fix>3d</fix>
</trkpt>
<trkpt lat="40.0728422" lon="-105.2305752">
  <ele>1586.17</ele>
  <time>2026-08-28T19:09:07Z</time>
  <course>11.57</course>
  <speed>0.022360679774997897</speed>
  <fix>3d</fix>
</trkpt>
<trkpt lat="40.0728423" lon="-105.2305753">
  <ele>1586.09</ele>
  <time>2026-08-28T19:09:07Z</time>
  <course>296.19</course>
  <speed>0.0</speed>
  <fix>3d</fix>
</trkpt>
<trkpt lat="40.0728422" lon="-105.2305752">
  <ele>1586.17</ele>
  <time>2026-08-28T19:09:07Z</time>
  <course>11.57</course>
  <speed>0.022360679774997897</speed>
  <fix>3d</fix>
</trkpt>
<trkpt lat="40.0728423" lon="-105.2305753">
  <ele>1586.09</ele>
  <time>2026-08-28T19:09:07Z</time>
  <course>296.6</course>
  <speed>0.0</speed>
  <fix>3d</fix>
</trkpt>
<trkpt lat="40.0728422" lon="-105.2305752">
  <ele>1586.17</ele>
  <time>2026-08-28T19:09:07Z</time>
  <course>11.57</course>
  <speed>0.022360679774997897</speed>
  <fix>3d</fix>
</trkpt>
<trkpt lat="40.0728423" lon="-105.2305753">
  <ele>1586.09</ele>
  <time>2026-08-28T19:09:07Z</time>
  <course>296.53</course>
  <speed>0.0</speed>
  <fix>3d</fix>
</trkpt>
<trkpt lat="40.0728422" lon="-105.2305752">
  <ele>1586.17</ele>
  <time>2026-08-28T19:09:07Z</time>
  <course>11.56</course>
  <speed>0.022360679774997897</speed>
  <fix>3d</fix>
</trkpt>
<trkpt lat="40.0728423" lon="-105.2305753">
  <ele>1586.09</ele>
  <time>2026-08-28T19:09:07Z</time>
  <course>296.48</course>
  <speed>0.0</speed>
  <fix>3d</fix>
</trkpt>
<trkpt lat="40.0728422" lon="-105.2305752">
  <ele>1586.17</ele>
  <time>2026-08-28T19:09:07Z</time>
  <course>11.56</course>
  <speed>0.022360679774997897</speed>
  <fix>3d</fix>
</trkpt>
<trkpt lat="40.0728423" lon="-105.2305753">
  <ele>1586.09</ele>
  <time>2026-08-28T19:09:07Z</time>
  <course>296.5</course>
  <speed>0.0</speed>
  <fix>3d</fix>
</trkpt>
<trkpt lat="40.0728422" lon="-105.2305752">
  <ele>1586.17</ele>
  <time>2026-08-28T19:09:07Z</time>
  <course>11.56</course>
  <speed>0.022360679774997897</speed>
  <fix>3d</fix>
</trkpt>
<trkpt lat="40.0728423" lon="-105.2305753">
  <ele>1586.09</ele>
  <time>2026-08-28T19:09:07Z</time>
  <course>296.51</course>
  <speed>0.0</speed>
  <fix>3d</fix>
</trkpt>
<trkpt lat="40.0728422" lon="-105.2305752">
  <ele>1586.17</ele>
  <time>2026-08-28T19:09:07Z</time>
  <course>11.56</course>
  <speed>0.022360679774997897</speed>
  <fix>3d</fix>
</trkpt>
<trkpt lat="40.0728423" lon="-105.2305753">
  <ele>1586.09</ele>
  <time>2026-08-28T19:09:07Z</time>
  <course>296.5</course>
  <speed>0.0</speed>
  <fix>3d</fix>
</trkpt>
<trkpt lat="40.0728422" lon="-105.2305752">
  <ele>1586.18</ele>
  <time>2026-08-28T19:09:07Z</time>
  <course>11.56</course>
  <speed>0.022360679774997897</speed>
  <fix>3d</fix>
</trkpt>
<trkpt lat="40.0728423" lon="-105.2305753">
  <ele>1586.09</ele>
  <time>2026-08-28T19:09:07Z</time>
  <course>296.5</course>
  <speed>0.0</speed>
  <fix>3d</fix>
</trkpt>
<trkpt lat="40.0728422" lon="-105.2305752">
  <ele>1586.17</ele>
  <time>2026-08-28T19:09:07Z</time>
  <course>11.56</course>
  <speed>0.022360679774997897</speed>
  <fix>3d</fix>
</trkpt>
<trkpt lat="40.0728423" lon="-105.2305753">
  <ele>1586.09</ele>
  <time>2026-08-28T19:09:07Z</time>
  <course>296.5</course>
  <speed>0.0</speed>
  <fix>3d</fix>
</trkpt>
<trkpt lat="40.0728422" lon="-105.2305752">
  <ele>1586.17</ele>
  <time>2026-08-28T19:09:07Z</time>
  <course>11.56</course>
  <speed>0.022360679774997897</speed>
  <fix>3d</fix>
</trkpt>
<trkpt lat="40.0728423" lon="-105.2305753">
  <ele>1586.09</ele>
  <time>2026-08-28T19:09:07Z</time>
  <course>296.5</course>
  <speed>0.0</speed>
  <fix>3d</fix>
</trkpt>
<trkpt lat="40.0728422" lon="-105.2305752">
  <ele>1586.17</ele>
  <time>2026-08-28T19:09:07Z</time>
  <course>11.56</course>
  <speed>0.022360679774997897</speed>
  <fix>3d</fix>
</trkpt>
<trkpt lat="40.0728423" lon="-105.2305753">
  <ele>1586.09</ele>
  <time>2026-08-28T19:09:07Z</time>
  <course>296.5</course>
  <speed>0.0</speed>
  <fix>3d</fix>
</trkpt>
<trkpt lat="40.0728422" lon="-105.2305752">
  <ele>1586.17</ele>
  <time>2026-08-28T19:09:07Z</time>
  <course>11.55</course>
  <speed>0.022360679774997897</speed>
  <fix>3d</fix>
</trkpt>
<trkpt lat="40.0728423" lon="-105.2305753">
  <ele>1586.09</ele>
  <time>2026-08-28T19:09:07Z</time>
  <course>296.51</course>
  <speed>0.0</speed>
  <fix>3d</fix>
</trkpt>
<trkpt lat="40.0728422" lon="-105.2305752">
  <ele>1586.17</ele>
  <time>2026-08-28T19:09:07Z</time>
  <course>11.55</course>
  <speed>0.022360679774997897</speed>
  <fix>3d</fix>
</trkpt>
<trkpt lat="40.0728423" lon="-105.2305753">
  <ele>1586.09</ele>
  <time>2026-08-28T19:09:07Z</time>
  <course>296.51</course>
  <speed>0.0</speed>
  <fix>3d</fix>
</trkpt>
<trkpt lat="40.0728422" lon="-105.2305752">
  <ele>1586.17</ele>
  <time>2026-08-28T19:09:07Z</time>
  <course>11.55</course>
  <speed>0.022360679774997897</speed>
  <fix>3d</fix>
</trkpt>
<trkpt lat="40.0728423" lon="-105.2305753">
  <ele>1586.09</ele>
  <time>2026-08-28T19:09:07Z</time>
  <course>296.51</course>
  <speed>0.0</speed>
  <fix>3d</fix>
</trkpt>
<trkpt lat="40.0728422" lon="-105.2305752">
  <ele>1586.17</ele>
  <time>2026-08-28T19:09:07Z</time>
  <course>11.55</course>
  <speed>0.022360679774997897</speed>
  <fix>3d</fix>
</trkpt>
<trkpt lat="40.0728423" lon="-105.2305753">
  <ele>1586.09</ele>
  <time>2026-08-28T19:09:07Z</time>
  <course>296.51</course>
  <speed>0.0</speed>
  <fix>3d</fix>
</trkpt>
<trkpt lat="40.0728422" lon="-105.2305752">
  <ele>1586.17</ele>
  <time>2026-08-28T19:09:07Z</time>
  <course>11.55</course>
  <speed>0.022360679774997897</speed>
  <fix>3d</fix>
</trkpt>
<trkpt lat="40.0728423" lon="-105.2305753">
  <ele>1586.09</ele>
  <time>2026-08-28T19:09:07Z</time>
  <course>296.51</course>
  <speed>0.0</speed>
  <fix>3d</fix>
</trkpt>
<trkpt lat="40.0728422" lon="-105.2305752">
  <ele>1586.17</ele>
  <time>2026-08-28T19:09:07Z</time>
  <course>11.55</course>
  <speed>0.022360679774997897</speed>
  <fix>3d</fix>
</trkpt>
<trkpt lat="40.0728423" lon="-105.2305753">
  <ele>1586.09</ele>
  <time>2026-08-28T19:09:07Z</time>
  <course>296.51</course>
  <speed>0.0</speed>
  <fix>3d</fix>
</trkpt>
<trkpt lat="40.0728422" lon="-105.2305752">
  <ele>1586.17</ele>
  <time>2026-08-28T19:09:07Z</time>
  <course>11.55</course>
  <speed>0.022360679774997897</speed>
  <fix>3d</fix>
</trkpt>
<trkpt lat="40.0728423" lon="-105.2305753">
  <ele>1586.09</ele>
  <time>2026-08-28T19:09:07Z</time>
  <course>296.51</course>
  <speed>0.0</speed>
  <fix>3d</fix>
</trkpt>
<trkpt lat="40.0728422" lon="-105.2305752">
  <ele>1586.17</ele>
  <time>2026-08-28T19:09:07Z</time>
  <course>11.55</course>
  <speed>0.022360679774997897</speed>
  <fix>3d</fix>
</trkpt>
<trkpt lat="40.0728423" lon="-105.2305753">
  <ele>1586.09</ele>
  <time>2026-08-28T19:09:07Z</time>
  <course>296.51</course>
  <speed>0.0</speed>
  <fix>3d</fix>
</trkpt>
<trkpt lat="40.0728422" lon="-105.2305752">
  <ele>1586.18</ele>
  <time>2026-08-28T19:09:07Z</time>
  <course>11.54</course>
  <speed>0.022360679774997897</speed>
  <fix>3d</fix>
</trkpt>
<trkpt lat="40.0728423" lon="-105.2305753">
  <ele>1586.09</ele>
  <time>2026-08-28T19:09:07Z</time>
  <course>296.51</course>
  <speed>0.0</speed>
  <fix>3d</fix>
</trkpt>
<trkpt lat="40.0728422" lon="-105.2305752">
  <ele>1586.18</ele>
  <time>2026-08-28T19:09:07Z</time>
  <course>11.54</course>
  <speed>0.022360679774997897</speed>
  <fix>3d</fix>
</trkpt>
<trkpt lat="40.0728423" lon="-105.2305753">
  <ele>1586.09</ele>
  <time>2026-08-28T19:09:07Z</time>
  <course>245.17</course>
  <speed>0.0</speed>
  <fix>3d</fix>
</trkpt>
<trkpt lat="40.0728422" lon="-105.2305752">
  <ele>1586.18</ele>
  <time>2026-08-28T19:09:07Z</time>
  <course>11.54</course>
  <speed>0.022360679774997897</speed>
  <fix>3d</fix>
</trkpt>
<trkpt lat="40.0728423" lon="-105.2305753">
  <ele>1586.09</ele>
  <time>2026-08-28T19:09:07Z</time>
  <course>316.63</course>
  <speed>0.0</speed>
  <fix>3d</fix>
</trkpt>
<trkpt lat="40.0728422" lon="-105.2305752">
  <ele>1586.18</ele>
  <time>2026-08-28T19:09:07Z</time>
  <course>11.54</course>
  <speed>0.022360679774997897</speed>
  <fix>3d</fix>
</trkpt>
<trkpt lat="40.0728423" lon="-105.2305753">
  <ele>1586.09</ele>
  <time>2026-08-28T19:09:07Z</time>
  <course>194.67</course>
  <speed>0.0</speed>
  <fix>3d</fix>
</trkpt>
<trkpt lat="40.0728422" lon="-105.2305752">
  <ele>1586.18</ele>
  <time>2026-08-28T19:09:07Z</time>
  <course>11.54</course>
  <speed>0.022360679774997897</speed>
  <fix>3d</fix>
</trkpt>
<trkpt lat="40.0728423" lon="-105.2305753">
  <ele>1586.09</ele>
  <time>2026-08-28T19:09:07Z</time>
  <course>171.85</course>
  <speed>0.0</speed>
  <fix>3d</fix>
</trkpt>
<trkpt lat="40.0728422" lon="-105.2305752">
  <ele>1586.18</ele>
  <time>2026-08-28T19:09:07Z</time>
  <course>11.54</course>
  <speed>0.022360679774997897</speed>
  <fix>3d</fix>
</trkpt>
<trkpt lat="40.0728423" lon="-105.2305753">
  <ele>1586.09</ele>
  <time>2026-08-28T19:09:07Z</time>
  <course>148.28</course>
  <speed>0.0</speed>
  <fix>3d</fix>
</trkpt>
<trkpt lat="40.0728422" lon="-105.2305752">
  <ele>1586.18</ele>
  <time>2026-08-28T19:09:07Z</time>
  <course>11.53</course>
  <speed>0.022360679774997897</speed>
  <fix>3d</fix>
</trkpt>
<trkpt lat="40.0728423" lon="-105.2305753">
  <ele>1586.09</ele>
  <time>2026-08-28T19:09:07Z</time>
  <course>350.27</course>
  <speed>0.0</speed>
  <fix>3d</fix>
</trkpt>
<trkpt lat="40.0728422" lon="-105.2305752">
  <ele>1586.18</ele>
  <time>2026-08-28T19:09:07Z</time>
  <course>11.53</course>
  <speed>0.022360679774997897</speed>
  <fix>3d</fix>
</trkpt>
<trkpt lat="40.0728423" lon="-105.2305753">
  <ele>1586.09</ele>
  <time>2026-08-28T19:09:07Z</time>
  <course>301.81</course>
  <speed>0.0</speed>
  <fix>3d</fix>
</trkpt>
<trkpt lat="40.0728422" lon="-105.2305752">
  <ele>1586.18</ele>
  <time>2026-08-28T19:09:07Z</time>
  <course>11.53</course>
  <speed>0.022360679774997897</speed>
  <fix>3d</fix>
</trkpt>
<trkpt lat="40.0728423" lon="-105.2305753">
  <ele>1586.09</ele>
  <time>2026-08-28T19:09:07Z</time>
  <course>262.88</course>
  <speed>0.0</speed>
  <fix>3d</fix>
</trkpt>
<trkpt lat="40.0728422" lon="-105.2305752">
  <ele>1586.19</ele>
  <time>2026-08-28T19:09:07Z</time>
  <course>11.53</course>
  <speed>0.022360679774997897</speed>
  <fix>3d</fix>
</trkpt>
<trkpt lat="40.0728423" lon="-105.2305753">
  <ele>1586.09</ele>
  <time>2026-08-28T19:09:07Z</time>
  <course>270.8</course>
  <speed>0.0</speed>
  <fix>3d</fix>
</trkpt>
<trkpt lat="40.0728422" lon="-105.2305752">
  <ele>1586.19</ele>
  <time>2026-08-28T19:09:07Z</time>
  <course>11.53</course>
  <speed>0.022360679774997897</speed>
  <fix>3d</fix>
</trkpt>
<trkpt lat="40.0728423" lon="-105.2305753">
  <ele>1586.09</ele>
  <time>2026-08-28T19:09:07Z</time>
  <course>278.75</course>
  <speed>0.0</speed>
  <fix>3d</fix>
</trkpt>
<trkpt lat="40.0728422" lon="-105.2305752">
  <ele>1586.19</ele>
  <time>2026-08-28T19:09:07Z</time>
  <course>11.53</course>
  <speed>0.022360679774997897</speed>
  <fix>3d</fix>
</trkpt>
<trkpt lat="40.0728423" lon="-105.2305753">
  <ele>1586.09</ele>
  <time>2026-08-28T19:09:07Z</time>
  <course>276.72</course>
  <speed>0.0</speed>
  <fix>3d</fix>
</trkpt>
<trkpt lat="40.0728422" lon="-105.2305752">
  <ele>1586.19</ele>
  <time>2026-08-28T19:09:07Z</time>
  <course>11.53</course>
  <speed>0.022360679774997897</speed>
  <fix>3d</fix>
</trkpt>
<trkpt lat="40.0728423" lon="-105.2305753">
  <ele>1586.09</ele>
  <time>2026-08-28T19:09:07Z</time>
  <course>275.98</course>
  <speed>0.0</speed>
  <fix>3d</fix>
</trkpt>
<trkpt lat="40.0728422" lon="-105.2305752">
  <ele>1586.18</ele>
  <time>2026-08-28T19:09:07Z</time>
  <course>11.52</course>
  <speed>0.022360679774997897</speed>
  <fix>3d</fix>
</trkpt>
<trkpt lat="40.0728423" lon="-105.2305753">
  <ele>1586.09</ele>
  <time>2026-08-28T19:09:07Z</time>
  <course>276.35</course>
  <speed>0.0</speed>
  <fix>3d</fix>
</trkpt>
<trkpt lat="40.0728422" lon="-105.2305752">
  <ele>1586.18</ele>
  <time>2026-08-28T19:09:07Z</time>
  <course>11.52</course>
  <speed>0.022360679774997897</speed>
  <fix>3d</fix>
</trkpt>
<trkpt lat="40.0728423" lon="-105.2305753">
  <ele>1586.09</ele>
  <time>2026-08-28T19:09:07Z</time>
  <course>276.4</course>
  <speed>0.0</speed>
  <fix>3d</fix>
</trkpt>
<trkpt lat="40.0728422" lon="-105.2305752">
  <ele>1586.18</ele>
  <time>2026-08-28T19:09:07Z</time>
  <course>11.54</course>
  <speed>0.022360679774997897</speed>
  <fix>3d</fix>
</trkpt>
<trkpt lat="40.0728423" lon="-105.2305753">
  <ele>1586.09</ele>
  <time>2026-08-28T19:09:07Z</time>
  <course>276.35</course>
  <speed>0.0</speed>
  <fix>3d</fix>
</trkpt>
<trkpt lat="40.0728422" lon="-105.2305752">
  <ele>1586.18</ele>
  <time>2026-08-28T19:09:07Z</time>
  <course>11.63</course>
  <speed>0.022360679774997897</speed>
  <fix>3d</fix>
</trkpt>
<trkpt lat="40.0728423" lon="-105.2305753">
  <ele>1586.09</ele>
  <time>2026-08-28T19:09:07Z</time>
  <course>351.69</course>
  <speed>0.0</speed>
  <fix>3d</fix>
</trkpt>
<trkpt lat="40.0728422" lon="-105.2305752">
  <ele>1586.18</ele>
  <time>2026-08-28T19:09:07Z</time>
  <course>11.74</course>
  <speed>0.022360679774997897</speed>
  <fix>3d</fix>
</trkpt>
<trkpt lat="40.0728423" lon="-105.2305753">
  <ele>1586.09</ele>
  <time>2026-08-28T19:09:07Z</time>
  <course>338.2</course>
  <speed>0.0</speed>
  <fix>3d</fix>
</trkpt>
<trkpt lat="40.0728422" lon="-105.2305752">
  <ele>1586.18</ele>
  <time>2026-08-28T19:09:07Z</time>
  <course>11.85</course>
  <speed>0.022360679774997897</speed>
  <fix>3d</fix>
</trkpt>
<trkpt lat="40.0728423" lon="-105.2305753">
  <ele>1586.09</ele>
  <time>2026-08-28T19:09:07Z</time>
  <course>285.96</course>
  <speed>0.0</speed>
  <fix>3d</fix>
</trkpt>
<trkpt lat="40.0728422" lon="-105.2305752">
  <ele>1586.18</ele>
  <time>2026-08-28T19:09:07Z</time>
  <course>11.95</course>
  <speed>0.022360679774997897</speed>
  <fix>3d</fix>
</trkpt>
<trkpt lat="40.0728423" lon="-105.2305753">
  <ele>1586.09</ele>
  <time>2026-08-28T19:09:07Z</time>
  <course>169.23</course>
  <speed>0.0</speed>
  <fix>3d</fix>
</trkpt>
<trkpt lat="40.0728422" lon="-105.2305752">
  <ele>1586.18</ele>
  <time>2026-08-28T19:09:07Z</time>
  <course>12.05</course>
  <speed>0.022360679774997897</speed>
  <fix>3d</fix>
</trkpt>
<trkpt lat="40.0728423" lon="-105.2305753">
  <ele>1586.09</ele>
  <time>2026-08-28T19:09:07Z</time>
  <course>316.39</course>
  <speed>0.0</speed>
  <fix>3d</fix>
</trkpt>
<trkpt lat="40.0728422" lon="-105.2305752">
  <ele>1586.18</ele>
  <time>2026-08-28T19:09:07Z</time>
  <course>12.15</course>
  <speed>0.022360679774997897</speed>
  <fix>3d</fix>
</trkpt>
<trkpt lat="39.6562421" lon="-104.1365912">
  <ele>1569.6</ele>
  <time>2026-08-28T19:09:08Z</time>
  <course>296.79</course>
  <speed>0.0</speed>
  <fix>3d</fix>
</trkpt>
<trkpt lat="40.072842" lon="-105.230575">
  <ele>1586.09</ele>
  <time>2026-08-28T19:09:08Z</time>
  <course>2.03</course>
  <speed>0.0</speed>
  <fix>3d</fix>
</trkpt>
<trkpt lat="40.072842" lon="-105.230575">
  <ele>1586.09</ele>
  <time>2026-08-28T19:09:08Z</time>
  <course>280.47</course>
  <speed>0.0</speed>
  <fix>3d</fix>
</trkpt>
<trkpt lat="40.072842" lon="-105.230575">
  <ele>1586.09</ele>
  <time>2026-08-28T19:09:08Z</time>
  <course>2.44</course>
  <speed>0.0</speed>
  <fix>3d</fix>
</trkpt>
<trkpt lat="40.072842" lon="-105.230575">
  <ele>1586.09</ele>
  <time>2026-08-28T19:09:08Z</time>
  <course>97.57</course>
  <speed>0.0</speed>
  <fix>3d</fix>
</trkpt>
<trkpt lat="40.072842" lon="-105.230575">
  <ele>1586.09</ele>
  <time>2026-08-28T19:09:08Z</time>
  <course>3.19</course>
  <speed>0.0</speed>
  <fix>3d</fix>
</trkpt>
<trkpt lat="40.072842" lon="-105.230575">
  <ele>1586.09</ele>
  <time>2026-08-28T19:09:08Z</time>
  <course>67.08</course>
  <speed>0.0</speed>
  <fix>3d</fix>
</trkpt>
<trkpt lat="40.072842" lon="-105.230575">
  <ele>1586.09</ele>
  <time>2026-08-28T19:09:08Z</time>
  <course>3.87</course>
  <speed>0.0</speed>
  <fix>3d</fix>
</trkpt>
<trkpt lat="40.072842" lon="-105.230575">
  <ele>1586.09</ele>
  <time>2026-08-28T19:09:08Z</time>
  <course>60.84</course>
  <speed>0.0</speed>
  <fix>3d</fix>
</trkpt>
<trkpt lat="40.072842" lon="-105.230575">
  <ele>1586.09</ele>
  <time>2026-08-28T19:09:08Z</time>
  <course>4.49</course>
  <speed>0.0</speed>
  <fix>3d</fix>
</trkpt>
<trkpt lat="40.072842" lon="-105.230575">
  <ele>1586.09</ele>
  <time>2026-08-28T19:09:08Z</time>
  <course>234.79</course>
  <speed>0.0</speed>
  <fix>3d</fix>
</trkpt>
<trkpt lat="40.072842" lon="-105.230575">
  <ele>1586.09</ele>
  <time>2026-08-28T19:09:08Z</time>
  <course>5.09</course>
  <speed>0.0</speed>
  <fix>3d</fix>
</trkpt>
<trkpt lat="40.072842" lon="-105.230575">
  <ele>1586.09</ele>
  <time>2026-08-28T19:09:08Z</time>
  <course>233.55</course>
  <speed>0.0</speed>
  <fix>3d</fix>
</trkpt>
<trkpt lat="40.072842" lon="-105.230575">
  <ele>1586.09</ele>
  <time>2026-08-28T19:09:08Z</time>
  <course>5.65</course>
  <speed>0.0</speed>
  <fix>3d</fix>
</trkpt>
<trkpt lat="40.072842" lon="-105.230575">
  <ele>1586.09</ele>
  <time>2026-08-28T19:09:08Z</time>
  <course>68.34</course>
  <speed>0.0</speed>
  <fix>3d</fix>
</trkpt>
<trkpt lat="40.072842" lon="-105.230575">
  <ele>1586.09</ele>
  <time>2026-08-28T19:09:08Z</time>
  <course>6.17</course>
  <speed>0.0</speed>
  <fix>3d</fix>
</trkpt>
<trkpt lat="40.072842" lon="-105.230575">
  <ele>1586.09</ele>
  <time>2026-08-28T19:09:08Z</time>
  <course>139.41</course>
  <speed>0.0</speed>
  <fix>3d</fix>
</trkpt>
<trkpt lat="40.072842" lon="-105.230575">
  <ele>1586.09</ele>
  <time>2026-08-28T19:09:08Z</time>
  <course>6.66</course>
  <speed>0.0</speed>
  <fix>3d</fix>
</trkpt>
<trkpt lat="40.072842" lon="-105.230575">
  <ele>1586.09</ele>
  <time>2026-08-28T19:09:08Z</time>
  <course>249.95</course>
  <speed>0.0</speed>
  <fix>3d</fix>
</trkpt>
<trkpt lat="40.072842" lon="-105.230575">
  <ele>1586.09</ele>
  <time>2026-08-28T19:09:08Z</time>
  <course>7.11</course>
  <speed>0.0</speed>
  <fix>3d</fix>
</trkpt>
<trkpt lat="40.072842" lon="-105.230575">
  <ele>1586.09</ele>
  <time>2026-08-28T19:09:08Z</time>
  <course>350.08</course>
  <speed>0.0</speed>
  <fix>3d</fix>
</trkpt>
<trkpt lat="40.072842" lon="-105.230575">
  <ele>1586.09</ele>
  <time>2026-08-28T19:09:08Z</time>
  <course>7.54</course>
  <speed>0.0</speed>
  <fix>3d</fix>
</trkpt>
<trkpt lat="40.072842" lon="-105.230575">
  <ele>1586.09</ele>
  <time>2026-08-28T19:09:08Z</time>
  <course>30.1</course>
  <speed>0.0</speed>
  <fix>3d</fix>
</trkpt>
<trkpt lat="40.072842" lon="-105.230575">
  <ele>1586.09</ele>
  <time>2026-08-28T19:09:08Z</time>
  <course>7.93</course>
  <speed>0.0</speed>
  <fix>3d</fix>
</trkpt>
<trkpt lat="40.072842" lon="-105.230575">
  <ele>1586.09</ele>
  <time>2026-08-28T19:09:08Z</time>
  <course>282.33</course>
  <speed>0.0</speed>
  <fix>3d</fix>
</trkpt>
<trkpt lat="40.072842" lon="-105.230575">
  <ele>1586.09</ele>
  <time>2026-08-28T19:09:08Z</time>
  <course>8.29</course>
  <speed>0.0</speed>
  <fix>3d</fix>
</trkpt>
<trkpt lat="40.072842" lon="-105.230575">
  <ele>1586.09</ele>
  <time>2026-08-28T19:09:08Z</time>
  <course>252.92</course>
  <speed>0.0</speed>
  <fix>3d</fix>
</trkpt>
<trkpt lat="40.072842" lon="-105.230575">
  <ele>1586.09</ele>
  <time>2026-08-28T19:09:08Z</time>
  <course>8.63</course>
  <speed>0.0</speed>
  <fix>3d</fix>
</trkpt>
<trkpt lat="40.072842" lon="-105.230575">
  <ele>1586.09</ele>
  <time>2026-08-28T19:09:08Z</time>
  <course>126.45</course>
  <speed>0.0</speed>
  <fix>3d</fix>
</trkpt>
<trkpt lat="40.072842" lon="-105.230575">
  <ele>1586.09</ele>
  <time>2026-08-28T19:09:08Z</time>
  <course>8.94</course>
  <speed>0.0</speed>
  <fix>3d</fix>
</trkpt>
<trkpt lat="40.072842" lon="-105.230575">
  <ele>1586.09</ele>
  <time>2026-08-28T19:09:08Z</time>
  <course>75.25</course>
  <speed>0.0</speed>
  <fix>3d</fix>
</trkpt>
<trkpt lat="40.072842" lon="-105.230575">
  <ele>1586.09</ele>
  <time>2026-08-28T19:09:08Z</time>
  <course>9.23</course>
  <speed>0.0</speed>
  <fix>3d</fix>
</trkpt>
<trkpt lat="40.072842" lon="-105.230575">
  <ele>1586.09</ele>
  <time>2026-08-28T19:09:08Z</time>
  <course>314.16</course>
  <speed>0.0</speed>
  <fix>3d</fix>
</trkpt>
<trkpt lat="40.072842" lon="-105.230575">
  <ele>1586.09</ele>
  <time>2026-08-28T19:09:08Z</time>
  <course>9.49</course>
  <speed>0.0</speed>
  <fix>3d</fix>
</trkpt>
<trkpt lat="40.072842" lon="-105.230575">
  <ele>1586.09</ele>
  <time>2026-08-28T19:09:08Z</time>
  <course>268.2</course>
  <speed>0.0</speed>
  <fix>3d</fix>
</trkpt>
<trkpt lat="40.072842" lon="-105.230575">
  <ele>1586.09</ele>
  <time>2026-08-28T19:09:08Z</time>
  <course>9.73</course>
  <speed>0.0</speed>
  <fix>3d</fix>
</trkpt>
<trkpt lat="40.072842" lon="-105.230575">
  <ele>1586.09</ele>
  <time>2026-08-28T19:09:08Z</time>
  <course>269.63</course>
  <speed>0.0</speed>
  <fix>3d</fix>
</trkpt>
<trkpt lat="40.072842" lon="-105.230575">
  <ele>1586.09</ele>
  <time>2026-08-28T19:09:08Z</time>
  <course>9.95</course>
  <speed>0.0</speed>
  <fix>3d</fix>
</trkpt>
<trkpt lat="40.072842" lon="-105.230575">
  <ele>1586.09</ele>
  <time>2026-08-28T19:09:08Z</time>
  <course>270.25</course>
  <speed>0.0</speed>
  <fix>3d</fix>
</trkpt>
<trkpt lat="40.072842" lon="-105.230575">
  <ele>1586.09</ele>
  <time>2026-08-28T19:09:08Z</time>
  <course>10.16</course>
  <speed>0.0</speed>
  <fix>3d</fix>
</trkpt>
<trkpt lat="40.072842" lon="-105.230575">
  <ele>1586.09</ele>
  <time>2026-08-28T19:09:08Z</time>
  <course>89.02</course>
  <speed>0.0</speed>
  <fix>3d</fix>
</trkpt>
<trkpt lat="40.072842" lon="-105.230575">
  <ele>1586.09</ele>
  <time>2026-08-28T19:09:08Z</time>
  <course>10.34</course>
  <speed>0.0</speed>
  <fix>3d</fix>
</trkpt>
<trkpt lat="40.072842" lon="-105.230575">
  <ele>1586.09</ele>
  <time>2026-08-28T19:09:08Z</time>
  <course>91.15</course>
  <speed>0.0</speed>
  <fix>3d</fix>
</trkpt>
<trkpt lat="40.072842" lon="-105.230575">
  <ele>1586.09</ele>
  <time>2026-08-28T19:09:08Z</time>
  <course>10.52</course>
  <speed>0.0</speed>
  <fix>3d</fix>
</trkpt>
<trkpt lat="40.072842" lon="-105.230575">
  <ele>1586.09</ele>
  <time>2026-08-28T19:09:08Z</time>
  <course>269.82</course>
  <speed>0.0</speed>
  <fix>3d</fix>
</trkpt>
<trkpt lat="40.072842" lon="-105.230575">
  <ele>1586.09</ele>
  <time>2026-08-28T19:09:08Z</time>
  <course>10.67</course>
  <speed>0.0</speed>
  <fix>3d</fix>
</trkpt>
<trkpt lat="40.072842" lon="-105.230575">
  <ele>1586.09</ele>
  <time>2026-08-28T19:09:08Z</time>
  <course>270.13</course>
  <speed>0.0</speed>
  <fix>3d</fix>
</trkpt>
<trkpt lat="40.072842" lon="-105.230575">
  <ele>1586.09</ele>
  <time>2026-08-28T19:09:08Z</time>
  <course>10.82</course>
  <speed>0.0</speed>
  <fix>3d</fix>
</trkpt>
<trkpt lat="40.072842" lon="-105.230575">
  <ele>1586.09</ele>
  <time>2026-08-28T19:09:08Z</time>
  <course>270.02</course>
  <speed>0.0</speed>
  <fix>3d</fix>
</trkpt>
<trkpt lat="40.072842" lon="-105.230575">
  <ele>1586.09</ele>
  <time>2026-08-28T19:09:08Z</time>
  <course>10.95</course>
  <speed>0.0</speed>
  <fix>3d</fix>
</trkpt>
<trkpt lat="40.072842" lon="-105.230575">
  <ele>1586.09</ele>
  <time>2026-08-28T19:09:08Z</time>
  <course>269.97</course>
  <speed>0.0</speed>
  <fix>3d</fix>
</trkpt>
<trkpt lat="40.072842" lon="-105.230575">
  <ele>1586.09</ele>
  <time>2026-08-28T19:09:08Z</time>
  <course>11.07</course>
  <speed>0.0</speed>
  <fix>3d</fix>
</trkpt>
<trkpt lat="40.072842" lon="-105.230575">
  <ele>1586.09</ele>
  <time>2026-08-28T19:09:08Z</time>
  <course>269.99</course>
  <speed>0.0</speed>
  <fix>3d</fix>
</trkpt>
<trkpt lat="40.072842" lon="-105.230575">
  <ele>1586.09</ele>
  <time>2026-08-28T19:09:08Z</time>
  <course>11.18</course>
  <speed>0.0</speed>
  <fix>3d</fix>
</trkpt>
<trkpt lat="40.072842" lon="-105.230575">
  <ele>1586.09</ele>
  <time>2026-08-28T19:09:08Z</time>
  <course>270.0</course>
  <speed>0.0</speed>
  <fix>3d</fix>
</trkpt>
<trkpt lat="40.072842" lon="-105.230575">
  <ele>1586.09</ele>
  <time>2026-08-28T19:09:08Z</time>
  <course>11.28</course>
  <speed>0.0</speed>
  <fix>3d</fix>
</trkpt>
<trkpt lat="40.072842" lon="-105.230575">
  <ele>1586.09</ele>
  <time>2026-08-28T19:09:08Z</time>
  <course>269.99</course>
  <speed>0.0</speed>
  <fix>3d</fix>
</trkpt>
<trkpt lat="40.072842" lon="-105.230575">
  <ele>1586.09</ele>
  <time>2026-08-28T19:09:08Z</time>
  <course>11.37</course>
  <speed>0.0</speed>
  <fix>3d</fix>
</trkpt>
<trkpt lat="40.072842" lon="-105.230575">
  <ele>1586.09</ele>
  <time>2026-08-28T19:09:08Z</time>
  <course>269.99</course>
  <speed>0.0</speed>
  <fix>3d</fix>
</trkpt>
<trkpt lat="40.072842" lon="-105.230575">
  <ele>1586.09</ele>
  <time>2026-08-28T19:09:08Z</time>
  <course>11.45</course>
  <speed>0.0</speed>
  <fix>3d</fix>
</trkpt>
<trkpt lat="40.072842" lon="-105.230575">
  <ele>1586.09</ele>
  <time>2026-08-28T19:09:08Z</time>
  <course>269.99</course>
  <speed>0.0</speed>
  <fix>3d</fix>
</trkpt>
<trkpt lat="40.072842" lon="-105.230575">
  <ele>1586.09</ele>
  <time>2026-08-28T19:09:08Z</time>
  <course>11.53</course>
  <speed>0.0</speed>
  <fix>3d</fix>
</trkpt>
<trkpt lat="40.072842" lon="-105.230575">
  <ele>1586.09</ele>
  <time>2026-08-28T19:09:08Z</time>
  <course>269.99</course>
  <speed>0.0</speed>
  <fix>3d</fix>
</trkpt>
<trkpt lat="40.072842" lon="-105.230575">
  <ele>1586.09</ele>
  <time>2026-08-28T19:09:08Z</time>
  <course>11.59</course>
  <speed>0.0</speed>
  <fix>3d</fix>
</trkpt>
<trkpt lat="40.072842" lon="-105.230575">
  <ele>1586.09</ele>
  <time>2026-08-28T19:09:08Z</time>
  <course>269.99</course>
  <speed>0.0</speed>
  <fix>3d</fix>
</trkpt>
<trkpt lat="40.072842" lon="-105.230575">
  <ele>1586.09</ele>
  <time>2026-08-28T19:09:08Z</time>
  <course>11.65</course>
  <speed>0.0</speed>
  <fix>3d</fix>
</trkpt>
<trkpt lat="40.072842" lon="-105.230575">
  <ele>1586.09</ele>
  <time>2026-08-28T19:09:08Z</time>
  <course>284.93</course>
  <speed>0.0</speed>
  <fix>3d</fix>
</trkpt>
<trkpt lat="40.072842" lon="-105.230575">
  <ele>1586.09</ele>
  <time>2026-08-28T19:09:08Z</time>
  <course>11.71</course>
  <speed>0.0</speed>
  <fix>3d</fix>
</trkpt>
<trkpt lat="40.072842" lon="-105.230575">
  <ele>1586.09</ele>
  <time>2026-08-28T19:09:08Z</time>
  <course>302.13</course>
  <speed>0.0</speed>
  <fix>3d</fix>
</trkpt>
<trkpt lat="40.072842" lon="-105.230575">
  <ele>1586.09</ele>
  <time>2026-08-28T19:09:08Z</time>
  <course>11.77</course>
  <speed>0.0</speed>
  <fix>3d</fix>
</trkpt>
<trkpt lat="40.072842" lon="-105.230575">
  <ele>1586.09</ele>
  <time>2026-08-28T19:09:08Z</time>
  <course>51.93</course>
  <speed>0.0</speed>
  <fix>3d</fix>
</trkpt>
<trkpt lat="40.072842" lon="-105.230575">
  <ele>1586.09</ele>
  <time>2026-08-28T19:09:08Z</time>
  <course>11.81</course>
  <speed>0.0</speed>
  <fix>3d</fix>
</trkpt>
<trkpt lat="40.072842" lon="-105.230575">
  <ele>1586.09</ele>
  <time>2026-08-28T19:09:08Z</time>
  <course>54.62</course>
  <speed>0.0</speed>
  <fix>3d</fix>
</trkpt>
<trkpt lat="40.072842" lon="-105.230575">
  <ele>1586.09</ele>
  <time>2026-08-28T19:09:08Z</time>
  <course>11.85</course>
  <speed>0.0</speed>
  <fix>3d</fix>
</trkpt>
<trkpt lat="40.072842" lon="-105.230575">
  <ele>1586.09</ele>
  <time>2026-08-28T19:09:08Z</time>
  <course>247.89</course>
  <speed>0.0</speed>
  <fix>3d</fix>
</trkpt>
<trkpt lat="40.072842" lon="-105.230575">
  <ele>1586.09</ele>
  <time>2026-08-28T19:09:08Z</time>
  <course>11.89</course>
  <speed>0.0</speed>
  <fix>3d</fix>
</trkpt>
<trkpt lat="40.072842" lon="-105.230575">
  <ele>1586.09</ele>
  <time>2026-08-28T19:09:08Z</time>
  <course>51.14</course>
  <speed>0.0</speed>
  <fix>3d</fix>
</trkpt>
<trkpt lat="40.072842" lon="-105.230575">
  <ele>1586.09</ele>
  <time>2026-08-28T19:09:08Z</time>
  <course>11.92</course>
  <speed>0.0</speed>
  <fix>3d</fix>
</trkpt>
<trkpt lat="40.072842" lon="-105.230575">
  <ele>1586.09</ele>
  <time>2026-08-28T19:09:08Z</time>
  <course>55.4</course>
  <speed>0.0</speed>
  <fix>3d</fix>
</trkpt>
<trkpt lat="40.072842" lon="-105.230575">
  <ele>1586.09</ele>
  <time>2026-08-28T19:09:08Z</time>
  <course>11.95</course>
  <speed>0.0</speed>
  <fix>3d</fix>
</trkpt>
<trkpt lat="40.072842" lon="-105.230575">
  <ele>1586.09</ele>
  <time>2026-08-28T19:09:08Z</time>
  <course>326.12</course>
  <speed>0.0</speed>
  <fix>3d</fix>
</trkpt>
<trkpt lat="40.072842" lon="-105.230575">
  <ele>1586.09</ele>
  <time>2026-08-28T19:09:08Z</time>
  <course>11.98</course>
  <speed>0.0</speed>
  <fix>3d</fix>
</trkpt>
<trkpt lat="40.072842" lon="-105.230575">
  <ele>1586.09</ele>
  <time>2026-08-28T19:09:08Z</time>
  <course>251.62</course>
  <speed>0.0</speed>
  <fix>3d</fix>
</trkpt>
<trkpt lat="40.072842" lon="-105.230575">
  <ele>1586.09</ele>
  <time>2026-08-28T19:09:08Z</time>
  <course>12.0</course>
  <speed>0.0</speed>
  <fix>3d</fix>
</trkpt>
<trkpt lat="40.072842" lon="-105.230575">
  <ele>1586.09</ele>
  <time>2026-08-28T19:09:08Z</time>
  <course>322.05</course>
  <speed>0.0</speed>
  <fix>3d</fix>
</trkpt>
<trkpt lat="40.072842" lon="-105.230575">
  <ele>1586.09</ele>
  <time>2026-08-28T19:09:08Z</time>
  <course>12.02</course>
  <speed>0.0</speed>
  <fix>3d</fix>
</trkpt>
<trkpt lat="40.072842" lon="-105.230575">
  <ele>1586.09</ele>
  <time>2026-08-28T19:09:08Z</time>
  <course>356.91</course>
  <speed>0.0</speed>
  <fix>3d</fix>
</trkpt>
<trkpt lat="40.072842" lon="-105.230575">
  <ele>1586.09</ele>
  <time>2026-08-28T19:09:08Z</time>
  <course>12.04</course>
  <speed>0.0</speed>
  <fix>3d</fix>
</trkpt>
<trkpt lat="40.072842" lon="-105.230575">
  <ele>1586.09</ele>
  <time>2026-08-28T19:09:08Z</time>
  <course>193.76</course>
  <speed>0.0</speed>
  <fix>3d</fix>
</trkpt>
<trkpt lat="40.072842" lon="-105.230575">
  <ele>1586.09</ele>
  <time>2026-08-28T19:09:08Z</time>
  <course>12.05</course>
  <speed>0.0</speed>
  <fix>3d</fix>
</trkpt>
<trkpt lat="40.072842" lon="-105.230575">
  <ele>1586.09</ele>
  <time>2026-08-28T19:09:08Z</time>
  <course>122.77</course>
  <speed>0.0</speed>
  <fix>3d</fix>
</trkpt>
<trkpt lat="40.072842" lon="-105.230575">
  <ele>1586.09</ele>
  <time>2026-08-28T19:09:08Z</time>
  <course>12.07</course>
  <speed>0.0</speed>
  <fix>3d</fix>
</trkpt>
<trkpt lat="40.072842" lon="-105.230575">
  <ele>1586.09</ele>
  <time>2026-08-28T19:09:08Z</time>
  <course>122.47</course>
  <speed>0.0</speed>
  <fix>3d</fix>
</trkpt>
<trkpt lat="40.072842" lon="-105.230575">
  <ele>1586.09</ele>
  <time>2026-08-28T19:09:08Z</time>
  <course>12.08</course>
  <speed>0.0</speed>
  <fix>3d</fix>
</trkpt>
<trkpt lat="40.072842" lon="-105.230575">
  <ele>1586.09</ele>
  <time>2026-08-28T19:09:08Z</time>
  <course>122.49</course>
  <speed>0.0</speed>
  <fix>3d</fix>
</trkpt>
<trkpt lat="40.072842" lon="-105.230575">
  <ele>1586.09</ele>
  <time>2026-08-28T19:09:08Z</time>
  <course>12.09</course>
  <speed>0.0</speed>
  <fix>3d</fix>
</trkpt>
<trkpt lat="40.072842" lon="-105.230575">
  <ele>1586.09</ele>
  <time>2026-08-28T19:09:08Z</time>
  <course>302.5</course>
  <speed>0.0</speed>
  <fix>3d</fix>
</trkpt>
<trkpt lat="40.072842" lon="-105.230575">
  <ele>1586.09</ele>
  <time>2026-08-28T19:09:08Z</time>
  <course>12.1</course>
  <speed>0.0</speed>
  <fix>3d</fix>
</trkpt>
<trkpt lat="40.072842" lon="-105.230575">
  <ele>1586.09</ele>
  <time>2026-08-28T19:09:08Z</time>
  <course>302.5</course>
  <speed>0.0</speed>
  <fix>3d</fix>
</trkpt>
<trkpt lat="40.072842" lon="-105.230575">
  <ele>1586.09</ele>
  <time>2026-08-28T19:09:08Z</time>
  <course>12.1</course>
  <speed>0.0</speed>
  <fix>3d</fix>
</trkpt>
<trkpt lat="40.072842" lon="-105.230575">
  <ele>1586.09</ele>
  <time>2026-08-28T19:09:08Z</time>
  <course>122.5</course>
  <speed>0.0</speed>
  <fix>3d</fix>
</trkpt>
<trkpt lat="40.072842" lon="-105.230575">
  <ele>1586.09</ele>
  <time>2026-08-28T19:09:08Z</time>
  <course>12.11</course>
  <speed>0.0</speed>
  <fix>3d</fix>
</trkpt>
<trkpt lat="40.072842" lon="-105.230575">
  <ele>1586.09</ele>
  <time>2026-08-28T19:09:08Z</time>
  <course>122.5</course>
  <speed>0.0</speed>
  <fix>3d</fix>
</trkpt>
<trkpt lat="40.072842" lon="-105.230575">
  <ele>1586.09</ele>
  <time>2026-08-28T19:09:08Z</time>
  <course>12.11</course>
  <speed>0.0</speed>
  <fix>3d</fix>
</trkpt>
<trkpt lat="40.072842" lon="-105.230575">
  <ele>1586.09</ele>
  <time>2026-08-28T19:09:08Z</time>
  <course>302.5</course>
  <speed>0.0</speed>
  <fix>3d</fix>
</trkpt>
<trkpt lat="40.072842" lon="-105.230575">
  <ele>1586.09</ele>
  <time>2026-08-28T19:09:08Z</time>
  <course>12.12</course>
  <speed>0.0</speed>
  <fix>3d</fix>
</trkpt>
<trkpt lat="40.072842" lon="-105.230575">
  <ele>1586.09</ele>
  <time>2026-08-28T19:09:08Z</time>
  <course>302.5</course>
  <speed>0.0</speed>
  <fix>3d</fix>
</trkpt>
<trkpt lat="40.072842" lon="-105.230575">
  <ele>1586.09</ele>
  <time>2026-08-28T19:09:08Z</time>
  <course>12.12</course>
  <speed>0.0</speed>
  <fix>3d</fix>
</trkpt>
<trkpt lat="40.072842" lon="-105.230575">
  <ele>1586.09</ele>
  <time>2026-08-28T19:09:08Z</time>
  <course>122.51</course>
  <speed>0.0</speed>
  <fix>3d</fix>
</trkpt>
<trkpt lat="40.072842" lon="-105.230575">
  <ele>1586.09</ele>
  <time>2026-08-28T19:09:08Z</time>
  <course>12.12</course>
  <speed>0.0</speed>
  <fix>3d</fix>
</trkpt>
<trkpt lat="40.072842" lon="-105.230575">
  <ele>1586.09</ele>
  <time>2026-08-28T19:09:08Z</time>
  <course>122.51</course>
  <speed>0.0</speed>
  <fix>3d</fix>
</trkpt>
<trkpt lat="40.072842" lon="-105.230575">
  <ele>1586.09</ele>
  <time>2026-08-28T19:09:08Z</time>
  <course>12.12</course>
  <speed>0.0</speed>
  <fix>3d</fix>
</trkpt>
<trkpt lat="40.072842" lon="-105.230575">
  <ele>1586.09</ele>
  <time>2026-08-28T19:09:08Z</time>
  <course>302.49</course>
  <speed>0.0</speed>
  <fix>3d</fix>
</trkpt>
<trkpt lat="40.072842" lon="-105.230575">
  <ele>1586.09</ele>
  <time>2026-08-28T19:09:08Z</time>
  <course>12.12</course>
  <speed>0.0</speed>
  <fix>3d</fix>
</trkpt>
<trkpt lat="40.072842" lon="-105.230575">
  <ele>1586.09</ele>
  <time>2026-08-28T19:09:08Z</time>
  <course>302.44</course>
  <speed>0.0</speed>
  <fix>3d</fix>
</trkpt>
<trkpt lat="40.072842" lon="-105.230575">
  <ele>1586.09</ele>
  <time>2026-08-28T19:09:08Z</time>
  <course>12.12</course>
  <speed>0.01</speed>
  <fix>3d</fix>
</trkpt>
<trkpt lat="40.072842" lon="-105.230575">
  <ele>1586.09</ele>
  <time>2026-08-28T19:09:08Z</time>
  <course>122.58</course>
  <speed>0.0</speed>
  <fix>3d</fix>
</trkpt>
<trkpt lat="40.072842" lon="-105.230575">
  <ele>1586.09</ele>
  <time>2026-08-28T19:09:08Z</time>
  <course>12.12</course>
  <speed>0.01</speed>
  <fix>3d</fix>
</trkpt>
<trkpt lat="40.072842" lon="-105.230575">
  <ele>1586.09</ele>
  <time>2026-08-28T19:09:08Z</time>
  <course>124.31</course>
  <speed>0.0</speed>
  <fix>3d</fix>
</trkpt>
<trkpt lat="40.072842" lon="-105.230575">
  <ele>1586.09</ele>
  <time>2026-08-28T19:09:08Z</time>
  <course>12.12</course>
  <speed>0.01</speed>
  <fix>3d</fix>
</trkpt>
<trkpt lat="40.072842" lon="-105.230575">
  <ele>1586.09</ele>
  <time>2026-08-28T19:09:08Z</time>
  <course>301.92</course>
  <speed>0.0</speed>
  <fix>3d</fix>
</trkpt>
<trkpt lat="40.072842" lon="-105.230575">
  <ele>1586.09</ele>
  <time>2026-08-28T19:09:08Z</time>
  <course>12.11</course>
  <speed>0.01</speed>
  <fix>3d</fix>
</trkpt>
<trkpt lat="40.072842" lon="-105.230575">
  <ele>1586.09</ele>
  <time>2026-08-28T19:09:08Z</time>
  <course>129.13</course>
  <speed>0.0</speed>
  <fix>3d</fix>
</trkpt>
<trkpt lat="40.072842" lon="-105.230575">
  <ele>1586.09</ele>
  <time>2026-08-28T19:09:08Z</time>
  <course>12.11</course>
  <speed>0.01</speed>
  <fix>3d</fix>
</trkpt>
<trkpt lat="40.072842" lon="-105.230575">
  <ele>1586.09</ele>
  <time>2026-08-28T19:09:08Z</time>
  <course>126.88</course>
  <speed>0.0</speed>
  <fix>3d</fix>
</trkpt>
<trkpt lat="40.072842" lon="-105.230575">
  <ele>1586.09</ele>
  <time>2026-08-28T19:09:08Z</time>
  <course>12.11</course>
  <speed>0.01</speed>
  <fix>3d</fix>
</trkpt>
<trkpt lat="40.072842" lon="-105.230575">
  <ele>1586.09</ele>
  <time>2026-08-28T19:09:08Z</time>
  <course>274.89</course>
  <speed>0.0</speed>
  <fix>3d</fix>
</trkpt>
<trkpt lat="40.072842" lon="-105.230575">
  <ele>1586.09</ele>
  <time>2026-08-28T19:09:08Z</time>
  <course>12.1</course>
  <speed>0.01</speed>
  <fix>3d</fix>
</trkpt>
<trkpt lat="40.072842" lon="-105.230575">
  <ele>1586.09</ele>
  <time>2026-08-28T19:09:08Z</time>
  <course>248.59</course>
  <speed>0.0</speed>
  <fix>3d</fix>
</trkpt>
<trkpt lat="40.072842" lon="-105.230575">
  <ele>1586.09</ele>
  <time>2026-08-28T19:09:08Z</time>
  <course>12.1</course>
  <speed>0.01</speed>
  <fix>3d</fix>
</trkpt>
<trkpt lat="40.072842" lon="-105.230575">
  <ele>1586.09</ele>
  <time>2026-08-28T19:09:08Z</time>
  <course>163.71</course>
  <speed>0.0</speed>
  <fix>3d</fix>
</trkpt>
<trkpt lat="40.072842" lon="-105.230575">
  <ele>1586.09</ele>
  <time>2026-08-28T19:09:08Z</time>
  <course>12.09</course>
  <speed>0.01</speed>
  <fix>3d</fix>
</trkpt>
<trkpt lat="40.072842" lon="-105.230575">
  <ele>1586.09</ele>
  <time>2026-08-28T19:09:08Z</time>
  <course>175.24</course>
  <speed>0.0</speed>
  <fix>3d</fix>
</trkpt>
<trkpt lat="40.072842" lon="-105.230575">
  <ele>1586.09</ele>
  <time>2026-08-28T19:09:08Z</time>
  <course>12.09</course>
  <speed>0.01</speed>
  <fix>3d</fix>
</trkpt>
<trkpt lat="40.072842" lon="-105.230575">
  <ele>1586.09</ele>
  <time>2026-08-28T19:09:08Z</time>
  <course>183.48</course>
  <speed>0.0</speed>
  <fix>3d</fix>
</trkpt>
<trkpt lat="40.072842" lon="-105.230575">
  <ele>1586.09</ele>
  <time>2026-08-28T19:09:08Z</time>
  <course>12.08</course>
  <speed>0.01414213562373095</speed>
  <fix>3d</fix>
</trkpt>
<trkpt lat="40.072842" lon="-105.230575">
  <ele>1586.09</ele>
  <time>2026-08-28T19:09:08Z</time>
  <course>180.27</course>
  <speed>0.0</speed>
  <fix>3d</fix>
</trkpt>
<trkpt lat="40.072842" lon="-105.230575">
  <ele>1586.09</ele>
  <time>2026-08-28T19:09:08Z</time>
  <course>12.07</course>
  <speed>0.01414213562373095</speed>
  <fix>3d</fix>
</trkpt>
<trkpt lat="40.072842" lon="-105.230575">
  <ele>1586.09</ele>
  <time>2026-08-28T19:09:08Z</time>
  <course>237.49</course>
  <speed>0.0</speed>
  <fix>3d</fix>
</trkpt>
<trkpt lat="40.072842" lon="-105.230575">
  <ele>1586.09</ele>
  <time>2026-08-28T19:09:08Z</time>
  <course>12.07</course>
  <speed>0.01414213562373095</speed>
  <fix>3d</fix>
</trkpt>
<trkpt lat="40.072842" lon="-105.230575">
  <ele>1586.09</ele>
  <time>2026-08-28T19:09:08Z</time>
  <course>237.49</course>
  <speed>0.0</speed>
  <fix>3d</fix>
</trkpt>
<trkpt lat="40.072842" lon="-105.230575">
  <ele>1586.09</ele>
  <time>2026-08-28T19:09:08Z</time>
  <course>12.06</course>
  <speed>0.01414213562373095</speed>
  <fix>3d</fix>
</trkpt>
<trkpt lat="40.072842" lon="-105.230575">
  <ele>1586.09</ele>
  <time>2026-08-28T19:09:08Z</time>
  <course>237.49</course>
  <speed>0.0</speed>
  <fix>3d</fix>
</trkpt>
<trkpt lat="40.072842" lon="-105.230575">
  <ele>1586.09</ele>
  <time>2026-08-28T19:09:08Z</time>
  <course>12.05</course>
  <speed>0.01414213562373095</speed>
  <fix>3d</fix>
</trkpt>
<trkpt lat="40.072842" lon="-105.230575">
  <ele>1586.09</ele>
  <time>2026-08-28T19:09:08Z</time>
  <course>57.47</course>
  <speed>0.0</speed>
  <fix>3d</fix>
</trkpt>
<trkpt lat="40.072842" lon="-105.230575">
  <ele>1586.09</ele>
  <time>2026-08-28T19:09:08Z</time>
  <course>12.05</course>
  <speed>0.01414213562373095</speed>
  <fix>3d</fix>
</trkpt>
<trkpt lat="40.072842" lon="-105.230575">
  <ele>1586.09</ele>
  <time>2026-08-28T19:09:08Z</time>
  <course>57.35</course>
  <speed>0.0</speed>
  <fix>3d</fix>
</trkpt>
<trkpt lat="40.072842" lon="-105.230575">
  <ele>1586.09</ele>
  <time>2026-08-28T19:09:08Z</time>
  <course>12.04</course>
  <speed>0.01414213562373095</speed>
  <fix>3d</fix>
</trkpt>
<trkpt lat="40.072842" lon="-105.230575">
  <ele>1586.09</ele>
  <time>2026-08-28T19:09:08Z</time>
  <course>237.52</course>
  <speed>0.0</speed>
  <fix>3d</fix>
</trkpt>
<trkpt lat="40.072842" lon="-105.230575">
  <ele>1586.09</ele>
  <time>2026-08-28T19:09:08Z</time>
  <course>12.03</course>
  <speed>0.01414213562373095</speed>
  <fix>3d</fix>
</trkpt>
<trkpt lat="40.072842" lon="-105.230575">
  <ele>1586.09</ele>
  <time>2026-08-28T19:09:08Z</time>
  <course>237.55</course>
  <speed>0.0</speed>
  <fix>3d</fix>
</trkpt>
<trkpt lat="40.072842" lon="-105.230575">
  <ele>1586.09</ele>
  <time>2026-08-28T19:09:08Z</time>
  <course>12.02</course>
  <speed>0.01414213562373095</speed>
  <fix>3d</fix>
</trkpt>
<trkpt lat="40.072842" lon="-105.230575">
  <ele>1586.09</ele>
  <time>2026-08-28T19:09:08Z</time>
  <course>237.56</course>
  <speed>0.0</speed>
  <fix>3d</fix>
</trkpt>
<trkpt lat="40.072842" lon="-105.230575">
  <ele>1586.09</ele>
  <time>2026-08-28T19:09:08Z</time>
  <course>12.02</course>
  <speed>0.01414213562373095</speed>
  <fix>3d</fix>
</trkpt>
<trkpt lat="40.072842" lon="-105.230575">
  <ele>1586.09</ele>
  <time>2026-08-28T19:09:08Z</time>
  <course>237.55</course>
  <speed>0.0</speed>
  <fix>3d</fix>
</trkpt>
<trkpt lat="40.072842" lon="-105.230575">
  <ele>1586.09</ele>
  <time>2026-08-28T19:09:08Z</time>
  <course>12.01</course>
  <speed>0.01414213562373095</speed>
  <fix>3d</fix>
</trkpt>
<trkpt lat="40.072842" lon="-105.230575">
  <ele>1586.09</ele>
  <time>2026-08-28T19:09:08Z</time>
  <course>237.55</course>
  <speed>0.0</speed>
  <fix>3d</fix>
</trkpt>
<trkpt lat="40.072842" lon="-105.230575">
  <ele>1586.09</ele>
  <time>2026-08-28T19:09:08Z</time>
  <course>12.0</course>
  <speed>0.01414213562373095</speed>
  <fix>3d</fix>
</trkpt>
<trkpt lat="40.072842" lon="-105.230575">
  <ele>1586.09</ele>
  <time>2026-08-28T19:09:08Z</time>
  <course>237.55</course>
  <speed>0.0</speed>
  <fix>3d</fix>
</trkpt>
<trkpt lat="40.072842" lon="-105.230575">
  <ele>1586.09</ele>
  <time>2026-08-28T19:09:08Z</time>
  <course>11.99</course>
  <speed>0.01414213562373095</speed>
  <fix>3d</fix>
</trkpt>
<trkpt lat="40.072842" lon="-105.230575">
  <ele>1586.09</ele>
  <time>2026-08-28T19:09:08Z</time>
  <course>237.55</course>
  <speed>0.0</speed>
  <fix>3d</fix>
</trkpt>
<trkpt lat="40.072842" lon="-105.230575">
  <ele>1586.09</ele>
  <time>2026-08-28T19:09:08Z</time>
  <course>11.99</course>
  <speed>0.01414213562373095</speed>
  <fix>3d</fix>
</trkpt>
<trkpt lat="40.072842" lon="-105.230575">
  <ele>1586.09</ele>
  <time>2026-08-28T19:09:08Z</time>
  <course>237.55</course>
  <speed>0.0</speed>
  <fix>3d</fix>
</trkpt>
<trkpt lat="40.072842" lon="-105.230575">
  <ele>1586.09</ele>
  <time>2026-08-28T19:09:08Z</time>
  <course>11.98</course>
  <speed>0.01414213562373095</speed>
  <fix>3d</fix>
</trkpt>
<trkpt lat="40.072842" lon="-105.230575">
  <ele>1586.09</ele>
  <time>2026-08-28T19:09:08Z</time>
  <course>237.55</course>
  <speed>0.0</speed>
  <fix>3d</fix>
</trkpt>
<trkpt lat="40.072842" lon="-105.230575">
  <ele>1586.09</ele>
  <time>2026-08-28T19:09:08Z</time>
  <course>11.97</course>
  <speed>0.01414213562373095</speed>
  <fix>3d</fix>
</trkpt>
<trkpt lat="40.072842" lon="-105.230575">
  <ele>1586.09</ele>
  <time>2026-08-28T19:09:08Z</time>
  <course>237.55</course>
  <speed>0.0</speed>
  <fix>3d</fix>
</trkpt>
<trkpt lat="40.072842" lon="-105.230575">
  <ele>1586.09</ele>
  <time>2026-08-28T19:09:08Z</time>
  <course>11.96</course>
  <speed>0.01414213562373095</speed>
  <fix>3d</fix>
</trkpt>
<trkpt lat="40.072842" lon="-105.230575">
  <ele>1586.09</ele>
  <time>2026-08-28T19:09:08Z</time>
  <course>237.55</course>
  <speed>0.0</speed>
  <fix>3d</fix>
</trkpt>
<trkpt lat="40.072842" lon="-105.230575">
  <ele>1586.09</ele>
  <time>2026-08-28T19:09:08Z</time>
  <course>11.95</course>
  <speed>0.022360679774997897</speed>
  <fix>3d</fix>
</trkpt>
<trkpt lat="40.072842" lon="-105.230575">
  <ele>1586.09</ele>
  <time>2026-08-28T19:09:08Z</time>
  <course>237.55</course>
  <speed>0.0</speed>
  <fix>3d</fix>
</trkpt>
<trkpt lat="40.072842" lon="-105.230575">
  <ele>1586.09</ele>
  <time>2026-08-28T19:09:08Z</time>
  <course>11.95</course>
  <speed>0.022360679774997897</speed>
  <fix>3d</fix>
</trkpt>
<trkpt lat="40.072842" lon="-105.230575">
  <ele>1586.09</ele>
  <time>2026-08-28T19:09:08Z</time>
  <course>237.55</course>
  <speed>0.0</speed>
  <fix>3d</fix>
</trkpt>
<trkpt lat="40.072842" lon="-105.230575">
  <ele>1586.09</ele>
  <time>2026-08-28T19:09:08Z</time>
  <course>11.94</course>
  <speed>0.022360679774997897</speed>
  <fix>3d</fix>
</trkpt>
<trkpt lat="40.072842" lon="-105.230575">
  <ele>1586.09</ele>
  <time>2026-08-28T19:09:08Z</time>
  <course>237.55</course>
  <speed>0.0</speed>
  <fix>3d</fix>
</trkpt>
<trkpt lat="40.072842" lon="-105.230575">
  <ele>1586.09</ele>
  <time>2026-08-28T19:09:08Z</time>
  <course>11.93</course>
  <speed>0.022360679774997897</speed>
  <fix>3d</fix>
</trkpt>
<trkpt lat="40.072842" lon="-105.230575">
  <ele>1586.09</ele>
  <time>2026-08-28T19:09:08Z</time>
  <course>237.55</course>
  <speed>0.0</speed>
  <fix>3d</fix>
</trkpt>
<trkpt lat="40.072842" lon="-105.230575">
  <ele>1586.09</ele>
  <time>2026-08-28T19:09:08Z</time>
  <course>11.92</course>
  <speed>0.022360679774997897</speed>
  <fix>3d</fix>
</trkpt>
<trkpt lat="40.072842" lon="-105.230575">
  <ele>1586.09</ele>
  <time>2026-08-28T19:09:08Z</time>
  <course>237.55</course>
  <speed>0.0</speed>
  <fix>3d</fix>
</trkpt>
<trkpt lat="40.072842" lon="-105.230575">
  <ele>1586.09</ele>
  <time>2026-08-28T19:09:08Z</time>
  <course>11.91</course>
  <speed>0.022360679774997897</speed>
  <fix>3d</fix>
</trkpt>
<trkpt lat="40.072842" lon="-105.230575">
  <ele>1586.09</ele>
  <time>2026-08-28T19:09:08Z</time>
  <course>237.55</course>
  <speed>0.0</speed>
  <fix>3d</fix>
</trkpt>
<trkpt lat="40.072842" lon="-105.230575">
  <ele>1586.09</ele>
  <time>2026-08-28T19:09:09Z</time>
  <course>11.91</course>
  <speed>0.022360679774997897</speed>
  <fix>3d</fix>
</trkpt>
<trkpt lat="40.072842" lon="-105.230575">
  <ele>1586.09</ele>
  <time>2026-08-28T19:09:09Z</time>
  <course>237.55</course>
  <speed>0.0</speed>
  <fix>3d</fix>
</trkpt>
<trkpt lat="40.072842" lon="-105.230575">
  <ele>1586.09</ele>
  <time>2026-08-28T19:09:09Z</time>
  <course>11.9</course>
  <speed>0.022360679774997897</speed>
  <fix>3d</fix>
</trkpt>
<trkpt lat="40.072842" lon="-105.230575">
  <ele>1586.09</ele>
  <time>2026-08-28T19:09:09Z</time>
  <course>237.55</course>
  <speed>0.0</speed>
  <fix>3d</fix>
</trkpt>
<trkpt lat="40.072842" lon="-105.230575">
  <ele>1586.09</ele>
  <time>2026-08-28T19:09:09Z</time>
  <course>11.89</course>
  <speed>0.022360679774997897</speed>
  <fix>3d</fix>
</trkpt>
<trkpt lat="40.072842" lon="-105.230575">
  <ele>1586.09</ele>
  <time>2026-08-28T19:09:09Z</time>
  <course>237.55</course>
  <speed>0.0</speed>
  <fix>3d</fix>
</trkpt>
<trkpt lat="40.072842" lon="-105.230575">
  <ele>1586.09</ele>
  <time>2026-08-28T19:09:09Z</time>
  <course>11.88</course>
  <speed>0.022360679774997897</speed>
  <fix>3d</fix>
</trkpt>
<trkpt lat="40.072842" lon="-105.230575">
  <ele>1586.09</ele>
  <time>2026-08-28T19:09:09Z</time>
  <course>293.77</course>
  <speed>0.0</speed>
  <fix>3d</fix>
</trkpt>
<trkpt lat="40.072842" lon="-105.230575">
  <ele>1586.09</ele>
  <time>2026-08-28T19:09:09Z</time>
  <course>11.87</course>
  <speed>0.022360679774997897</speed>
  <fix>3d</fix>
</trkpt>
<trkpt lat="40.072842" lon="-105.230575">
  <ele>1586.09</ele>
  <time>2026-08-28T19:09:09Z</time>
  <course>286.06</course>
  <speed>0.0</speed>
  <fix>3d</fix>
</trkpt>
<trkpt lat="40.072842" lon="-105.230575">
  <ele>1586.09</ele>
  <time>2026-08-28T19:09:09Z</time>
  <course>11.86</course>
  <speed>0.022360679774997897</speed>
  <fix>3d</fix>
</trkpt>
<trkpt lat="40.072842" lon="-105.230575">
  <ele>1586.09</ele>
  <time>2026-08-28T19:09:09Z</time>
  <course>133.93</course>
  <speed>0.0</speed>
  <fix>3d</fix>
</trkpt>
<trkpt lat="40.072842" lon="-105.230575">
  <ele>1586.09</ele>
  <time>2026-08-28T19:09:09Z</time>
  <course>11.86</course>
  <speed>0.022360679774997897</speed>
  <fix>3d</fix>
</trkpt>
<trkpt lat="40.072842" lon="-105.230575">
  <ele>1586.09</ele>
  <time>2026-08-28T19:09:09Z</time>
  <course>298.64</course>
  <speed>0.0</speed>
  <fix>3d</fix>
</trkpt>
<trkpt lat="40.072842" lon="-105.230575">
  <ele>1586.09</ele>
  <time>2026-08-28T19:09:09Z</time>
  <course>11.85</course>
  <speed>0.022360679774997897</speed>
  <fix>3d</fix>
</trkpt>
<trkpt lat="40.072842" lon="-105.230575">
  <ele>1586.09</ele>
  <time>2026-08-28T19:09:09Z</time>
  <course>300.97</course>
  <speed>0.0</speed>
  <fix>3d</fix>
</trkpt>
<trkpt lat="40.072842" lon="-105.230575">
  <ele>1586.09</ele>
  <time>2026-08-28T19:09:09Z</time>
  <course>11.84</course>
  <speed>0.022360679774997897</speed>
  <fix>3d</fix>
</trkpt>
<trkpt lat="40.072842" lon="-105.230575">
  <ele>1586.09</ele>
  <time>2026-08-28T19:09:09Z</time>
  <course>295.76</course>
  <speed>0.0</speed>
  <fix>3d</fix>
</trkpt>
<trkpt lat="40.072842" lon="-105.230575">
  <ele>1586.09</ele>
  <time>2026-08-28T19:09:09Z</time>
  <course>11.83</course>
  <speed>0.022360679774997897</speed>
  <fix>3d</fix>
</trkpt>
<trkpt lat="40.072842" lon="-105.230575">
  <ele>1586.09</ele>
  <time>2026-08-28T19:09:09Z</time>
  <course>124.42</course>
  <speed>0.0</speed>
  <fix>3d</fix>
</trkpt>
<trkpt lat="40.072842" lon="-105.230575">
  <ele>1586.09</ele>
  <time>2026-08-28T19:09:09Z</time>
  <course>11.82</course>
  <speed>0.022360679774997897</speed>
  <fix>3d</fix>
</trkpt>
<trkpt lat="40.072842" lon="-105.230575">
  <ele>1586.09</ele>
  <time>2026-08-28T19:09:09Z</time>
  <course>293.38</course>
  <speed>0.0</speed>
  <fix>3d</fix>
</trkpt>
<trkpt lat="40.072842" lon="-105.230575">
  <ele>1586.09</ele>
  <time>2026-08-28T19:09:09Z</time>
  <course>11.82</course>
  <speed>0.0282842712474619</speed>
  <fix>3d</fix>
</trkpt>
<trkpt lat="40.072842" lon="-105.230575">
  <ele>1586.09</ele>
  <time>2026-08-28T19:09:09Z</time>
  <course>300.67</course>
  <speed>0.0</speed>
  <fix>3d</fix>
</trkpt>
<trkpt lat="40.072842" lon="-105.230575">
  <ele>1586.09</ele>
  <time>2026-08-28T19:09:09Z</time>
  <course>11.81</course>
  <speed>0.0282842712474619</speed>
  <fix>3d</fix>
</trkpt>
<trkpt lat="40.072842" lon="-105.230575">
  <ele>1586.09</ele>
  <time>2026-08-28T19:09:09Z</time>
  <course>288.37</course>
  <speed>0.0</speed>
  <fix>3d</fix>
</trkpt>
<trkpt lat="40.072842" lon="-105.230575">
  <ele>1586.09</ele>
  <time>2026-08-28T19:09:09Z</time>
  <course>11.8</course>
  <speed>0.0282842712474619</speed>
  <fix>3d</fix>
</trkpt>
<trkpt lat="40.072842" lon="-105.230575">
  <ele>1586.09</ele>
  <time>2026-08-28T19:09:09Z</time>
  <course>138.2</course>
  <speed>0.0</speed>
  <fix>3d</fix>
</trkpt>
<trkpt lat="40.072842" lon="-105.230575">
  <ele>1586.09</ele>
  <time>2026-08-28T19:09:09Z</time>
  <course>11.79</course>
  <speed>0.0282842712474619</speed>
  <fix>3d</fix>
</trkpt>
<trkpt lat="40.072842" lon="-105.230575">
  <ele>1586.09</ele>
  <time>2026-08-28T19:09:09Z</time>
  <course>280.71</course>
  <speed>0.0</speed>
  <fix>3d</fix>
</trkpt>
<trkpt lat="40.072842" lon="-105.230575">
  <ele>1586.09</ele>
  <time>2026-08-28T19:09:09Z</time>
  <course>11.78</course>
  <speed>0.0282842712474619</speed>
  <fix>3d</fix>
</trkpt>
<trkpt lat="40.072842" lon="-105.230575">
  <ele>1586.09</ele>
  <time>2026-08-28T19:09:09Z</time>
  <course>287.76</course>
  <speed>0.0</speed>
  <fix>3d</fix>
</trkpt>
<trkpt lat="40.072842" lon="-105.230575">
  <ele>1586.09</ele>
  <time>2026-08-28T19:09:09Z</time>
  <course>11.78</course>
  <speed>0.0282842712474619</speed>
  <fix>3d</fix>
</trkpt>
<trkpt lat="40.072842" lon="-105.230575">
  <ele>1586.09</ele>
  <time>2026-08-28T19:09:09Z</time>
  <course>266.75</course>
  <speed>0.0</speed>
  <fix>3d</fix>
</trkpt>
<trkpt lat="40.072842" lon="-105.230575">
  <ele>1586.09</ele>
  <time>2026-08-28T19:09:09Z</time>
  <course>11.77</course>
  <speed>0.0282842712474619</speed>
  <fix>3d</fix>
</trkpt>
<trkpt lat="40.072842" lon="-105.230575">
  <ele>1586.09</ele>
  <time>2026-08-28T19:09:09Z</time>
  <course>264.98</course>
  <speed>0.0</speed>
  <fix>3d</fix>
</trkpt>
<trkpt lat="40.072842" lon="-105.230575">
  <ele>1586.09</ele>
  <time>2026-08-28T19:09:09Z</time>
  <course>11.76</course>
  <speed>0.0282842712474619</speed>
  <fix>3d</fix>
</trkpt>
<trkpt lat="40.072842" lon="-105.230575">
  <ele>1586.09</ele>
  <time>2026-08-28T19:09:09Z</time>
  <course>270.91</course>
  <speed>0.0</speed>
  <fix>3d</fix>
</trkpt>
<trkpt lat="40.072842" lon="-105.230575">
  <ele>1586.09</ele>
  <time>2026-08-28T19:09:09Z</time>
  <course>11.76</course>
  <speed>0.0282842712474619</speed>
  <fix>3d</fix>
</trkpt>
<trkpt lat="40.072842" lon="-105.230575">
  <ele>1586.09</ele>
  <time>2026-08-28T19:09:09Z</time>
  <course>270.47</course>
  <speed>0.0</speed>
  <fix>3d</fix>
</trkpt>
<trkpt lat="40.072842" lon="-105.230575">
  <ele>1586.09</ele>
  <time>2026-08-28T19:09:09Z</time>
  <course>11.75</course>
  <speed>0.0282842712474619</speed>
  <fix>3d</fix>
</trkpt>
<trkpt lat="40.072842" lon="-105.230575">
  <ele>1586.09</ele>
  <time>2026-08-28T19:09:09Z</time>
  <course>269.81</course>
  <speed>0.0</speed>
  <fix>3d</fix>
</trkpt>
<trkpt lat="40.072842" lon="-105.230575">
  <ele>1586.09</ele>
  <time>2026-08-28T19:09:09Z</time>
  <course>11.74</course>
  <speed>0.03605551275463989</speed>
  <fix>3d</fix>
</trkpt>
<trkpt lat="40.072842" lon="-105.230575">
  <ele>1586.09</ele>
  <time>2026-08-28T19:09:09Z</time>
  <course>285.25</course>
  <speed>0.0</speed>
  <fix>3d</fix>
</trkpt>
<trkpt lat="40.072842" lon="-105.230575">
  <ele>1586.09</ele>
  <time>2026-08-28T19:09:09Z</time>
  <course>11.73</course>
  <speed>0.03605551275463989</speed>
  <fix>3d</fix>
</trkpt>
<trkpt lat="40.072842" lon="-105.230575">
  <ele>1586.09</ele>
  <time>2026-08-28T19:09:09Z</time>
  <course>290.38</course>
  <speed>0.0</speed>
  <fix>3d</fix>
</trkpt>
<trkpt lat="40.072842" lon="-105.230575">
  <ele>1586.09</ele>
  <time>2026-08-28T19:09:09Z</time>
  <course>11.73</course>
  <speed>0.03605551275463989</speed>
  <fix>3d</fix>
</trkpt>
<trkpt lat="40.072842" lon="-105.230575">
  <ele>1586.09</ele>
  <time>2026-08-28T19:09:09Z</time>
  <course>282.33</course>
  <speed>0.0</speed>
  <fix>3d</fix>
</trkpt>
<trkpt lat="40.072842" lon="-105.230575">
  <ele>1586.09</ele>
  <time>2026-08-28T19:09:09Z</time>
  <course>11.72</course>
  <speed>0.03605551275463989</speed>
  <fix>3d</fix>
</trkpt>
<trkpt lat="40.072842" lon="-105.230575">
  <ele>1586.09</ele>
  <time>2026-08-28T19:09:09Z</time>
  <course>300.37</course>
  <speed>0.0</speed>
  <fix>3d</fix>
</trkpt>
<trkpt lat="40.072842" lon="-105.230575">
  <ele>1586.09</ele>
  <time>2026-08-28T19:09:09Z</time>
  <course>11.71</course>
  <speed>0.03605551275463989</speed>
  <fix>3d</fix>
</trkpt>
<trkpt lat="40.072842" lon="-105.230575">
  <ele>1586.09</ele>
  <time>2026-08-28T19:09:09Z</time>
  <course>301.03</course>
  <speed>0.0</speed>
  <fix>3d</fix>
</trkpt>
<trkpt lat="40.072842" lon="-105.230575">
  <ele>1586.09</ele>
  <time>2026-08-28T19:09:09Z</time>
  <course>11.7</course>
  <speed>0.03605551275463989</speed>
  <fix>3d</fix>
</trkpt>
<trkpt lat="40.072842" lon="-105.230575">
  <ele>1586.09</ele>
  <time>2026-08-28T19:09:09Z</time>
  <course>297.25</course>
  <speed>0.0</speed>
  <fix>3d</fix>
</trkpt>
<trkpt lat="40.072842" lon="-105.230575">
  <ele>1586.09</ele>
  <time>2026-08-28T19:09:09Z</time>
  <course>11.69</course>
  <speed>0.03605551275463989</speed>
  <fix>3d</fix>
</trkpt>
<trkpt lat="40.072842" lon="-105.230575">
  <ele>1586.09</ele>
  <time>2026-08-28T19:09:09Z</time>
  <course>155.93</course>
  <speed>0.0</speed>
  <fix>3d</fix>
</trkpt>
<trkpt lat="40.072842" lon="-105.230575">
  <ele>1586.09</ele>
  <time>2026-08-28T19:09:09Z</time>
  <course>11.69</course>
  <speed>0.03605551275463989</speed>
  <fix>3d</fix>
</trkpt>
<trkpt lat="40.072842" lon="-105.230575">
  <ele>1586.09</ele>
  <time>2026-08-28T19:09:09Z</time>
  <course>277.82</course>
  <speed>0.0</speed>
  <fix>3d</fix>
</trkpt>
<trkpt lat="40.072842" lon="-105.230575">
  <ele>1586.09</ele>
  <time>2026-08-28T19:09:09Z</time>
  <course>11.68</course>
  <speed>0.03605551275463989</speed>
  <fix>3d</fix>
</trkpt>
<trkpt lat="40.072842" lon="-105.230575">
  <ele>1586.09</ele>
  <time>2026-08-28T19:09:09Z</time>
  <course>285.62</course>
  <speed>0.0</speed>
  <fix>3d</fix>
</trkpt>
<trkpt lat="40.072842" lon="-105.230575">
  <ele>1586.09</ele>
  <time>2026-08-28T19:09:09Z</time>
  <course>11.67</course>
  <speed>0.03605551275463989</speed>
  <fix>3d</fix>
</trkpt>
<trkpt lat="40.072842" lon="-105.230575">
  <ele>1586.09</ele>
  <time>2026-08-28T19:09:09Z</time>
  <course>281.9</course>
  <speed>0.0</speed>
  <fix>3d</fix>
</trkpt>
<trkpt lat="40.072842" lon="-105.230575">
  <ele>1586.09</ele>
  <time>2026-08-28T19:09:09Z</time>
  <course>11.67</course>
  <speed>0.03605551275463989</speed>
  <fix>3d</fix>
</trkpt>
<trkpt lat="40.072842" lon="-105.230575">
  <ele>1586.09</ele>
  <time>2026-08-28T19:09:09Z</time>
  <course>281.36</course>
  <speed>0.0</speed>
  <fix>3d</fix>
</trkpt>
<trkpt lat="40.072842" lon="-105.230575">
  <ele>1586.09</ele>
  <time>2026-08-28T19:09:09Z</time>
  <course>11.66</course>
  <speed>0.03605551275463989</speed>
  <fix>3d</fix>
</trkpt>
<trkpt lat="40.072842" lon="-105.230575">
  <ele>1586.09</ele>
  <time>2026-08-28T19:09:09Z</time>
  <course>282.04</course>
  <speed>0.0</speed>
  <fix>3d</fix>
</trkpt>
<trkpt lat="40.072842" lon="-105.230575">
  <ele>1586.09</ele>
  <time>2026-08-28T19:09:09Z</time>
  <course>11.65</course>
  <speed>0.03605551275463989</speed>
  <fix>3d</fix>
</trkpt>
<trkpt lat="40.072842" lon="-105.230575">
  <ele>1586.09</ele>
  <time>2026-08-28T19:09:09Z</time>
  <course>282.03</course>
  <speed>0.0</speed>
  <fix>3d</fix>
</trkpt>
<trkpt lat="40.072842" lon="-105.230575">
  <ele>1586.09</ele>
  <time>2026-08-28T19:09:09Z</time>
  <course>11.65</course>
  <speed>0.03605551275463989</speed>
  <fix>3d</fix>
</trkpt>
<trkpt lat="40.072842" lon="-105.230575">
  <ele>1586.09</ele>
  <time>2026-08-28T19:09:09Z</time>
  <course>281.94</course>
  <speed>0.0</speed>
  <fix>3d</fix>
</trkpt>
<trkpt lat="40.072842" lon="-105.230575">
  <ele>1586.09</ele>
  <time>2026-08-28T19:09:09Z</time>
  <course>11.64</course>
  <speed>0.03605551275463989</speed>
  <fix>3d</fix>
</trkpt>
<trkpt lat="40.072842" lon="-105.230575">
  <ele>1586.09</ele>
  <time>2026-08-28T19:09:09Z</time>
  <course>281.95</course>
  <speed>0.0</speed>
  <fix>3d</fix>
</trkpt>
<trkpt lat="40.072842" lon="-105.230575">
  <ele>1586.09</ele>
  <time>2026-08-28T19:09:09Z</time>
  <course>11.63</course>
  <speed>0.03605551275463989</speed>
  <fix>3d</fix>
</trkpt>
<trkpt lat="40.072842" lon="-105.230575">
  <ele>1586.09</ele>
  <time>2026-08-28T19:09:09Z</time>
  <course>281.96</course>
  <speed>0.0</speed>
  <fix>3d</fix>
</trkpt>
<trkpt lat="40.072842" lon="-105.230575">
  <ele>1586.09</ele>
  <time>2026-08-28T19:09:09Z</time>
  <course>11.62</course>
  <speed>0.03605551275463989</speed>
  <fix>3d</fix>
</trkpt>
<trkpt lat="40.072842" lon="-105.230575">
  <ele>1586.09</ele>
  <time>2026-08-28T19:09:09Z</time>
  <course>281.96</course>
  <speed>0.0</speed>
  <fix>3d</fix>
</trkpt>
<trkpt lat="40.072842" lon="-105.230575">
  <ele>1586.09</ele>
  <time>2026-08-28T19:09:09Z</time>
  <course>11.62</course>
  <speed>0.03605551275463989</speed>
  <fix>3d</fix>
</trkpt>
<trkpt lat="40.072842" lon="-105.230575">
  <ele>1586.09</ele>
  <time>2026-08-28T19:09:09Z</time>
  <course>281.96</course>
  <speed>0.0</speed>
  <fix>3d</fix>
</trkpt>
<trkpt lat="40.072842" lon="-105.230575">
  <ele>1586.09</ele>
  <time>2026-08-28T19:09:09Z</time>
  <course>11.61</course>
  <speed>0.03605551275463989</speed>
  <fix>3d</fix>
</trkpt>
<trkpt lat="40.072842" lon="-105.230575">
  <ele>1586.09</ele>
  <time>2026-08-28T19:09:09Z</time>
  <course>281.96</course>
  <speed>0.0</speed>
  <fix>3d</fix>
</trkpt>
<trkpt lat="40.072842" lon="-105.230575">
  <ele>1586.09</ele>
  <time>2026-08-28T19:09:09Z</time>
  <course>11.61</course>
  <speed>0.03605551275463989</speed>
  <fix>3d</fix>
</trkpt>
<trkpt lat="40.072842" lon="-105.230575">
  <ele>1586.09</ele>
  <time>2026-08-28T19:09:09Z</time>
  <course>281.96</course>
  <speed>0.0</speed>
  <fix>3d</fix>
</trkpt>
<trkpt lat="40.072842" lon="-105.230575">
  <ele>1586.09</ele>
  <time>2026-08-28T19:09:09Z</time>
  <course>11.6</course>
  <speed>0.03605551275463989</speed>
  <fix>3d</fix>
</trkpt>
<trkpt lat="40.072842" lon="-105.230575">
  <ele>1586.09</ele>
  <time>2026-08-28T19:09:09Z</time>
  <course>281.96</course>
  <speed>0.0</speed>
  <fix>3d</fix>
</trkpt>
<trkpt lat="40.072842" lon="-105.230575">
  <ele>1586.09</ele>
  <time>2026-08-28T19:09:09Z</time>
  <course>11.59</course>
  <speed>0.03605551275463989</speed>
  <fix>3d</fix>
</trkpt>
<trkpt lat="40.072842" lon="-105.230575">
  <ele>1586.09</ele>
  <time>2026-08-28T19:09:09Z</time>
  <course>281.96</course>
  <speed>0.0</speed>
  <fix>3d</fix>
</trkpt>
<trkpt lat="40.072842" lon="-105.230575">
  <ele>1586.09</ele>
  <time>2026-08-28T19:09:09Z</time>
  <course>11.59</course>
  <speed>0.03605551275463989</speed>
  <fix>3d</fix>
</trkpt>
<trkpt lat="40.072842" lon="-105.230575">
  <ele>1586.09</ele>
  <time>2026-08-28T19:09:09Z</time>
  <course>281.96</course>
  <speed>0.0</speed>
  <fix>3d</fix>
</trkpt>
<trkpt lat="40.072842" lon="-105.230575">
  <ele>1586.09</ele>
  <time>2026-08-28T19:09:09Z</time>
  <course>11.58</course>
  <speed>0.03605551275463989</speed>
  <fix>3d</fix>
</trkpt>
<trkpt lat="40.072842" lon="-105.230575">
  <ele>1586.09</ele>
  <time>2026-08-28T19:09:09Z</time>
  <course>281.96</course>
  <speed>0.0</speed>
  <fix>3d</fix>
</trkpt>
<trkpt lat="40.072842" lon="-105.230575">
  <ele>1586.09</ele>
  <time>2026-08-28T19:09:09Z</time>
  <course>11.57</course>
  <speed>0.03605551275463989</speed>
  <fix>3d</fix>
</trkpt>
<trkpt lat="40.072842" lon="-105.230575">
  <ele>1586.09</ele>
  <time>2026-08-28T19:09:09Z</time>
  <course>281.96</course>
  <speed>0.0</speed>
  <fix>3d</fix>
</trkpt>
<trkpt lat="40.072842" lon="-105.230575">
  <ele>1586.09</ele>
  <time>2026-08-28T19:09:09Z</time>
  <course>11.57</course>
  <speed>0.03605551275463989</speed>
  <fix>3d</fix>
</trkpt>
<trkpt lat="40.072842" lon="-105.230575">
  <ele>1586.09</ele>
  <time>2026-08-28T19:09:09Z</time>
  <course>281.96</course>
  <speed>0.0</speed>
  <fix>3d</fix>
</trkpt>
<trkpt lat="40.072842" lon="-105.230575">
  <ele>1586.09</ele>
  <time>2026-08-28T19:09:09Z</time>
  <course>11.56</course>
  <speed>0.03605551275463989</speed>
  <fix>3d</fix>
</trkpt>
<trkpt lat="40.072842" lon="-105.230575">
  <ele>1586.09</ele>
  <time>2026-08-28T19:09:09Z</time>
  <course>281.96</course>
  <speed>0.0</speed>
  <fix>3d</fix>
</trkpt>
<trkpt lat="40.072842" lon="-105.230575">
  <ele>1586.09</ele>
  <time>2026-08-28T19:09:09Z</time>
  <course>11.56</course>
  <speed>0.03605551275463989</speed>
  <fix>3d</fix>
</trkpt>
<trkpt lat="40.072842" lon="-105.230575">
  <ele>1586.09</ele>
  <time>2026-08-28T19:09:09Z</time>
  <course>281.96</course>
  <speed>0.0</speed>
  <fix>3d</fix>
</trkpt>
<trkpt lat="40.072842" lon="-105.230575">
  <ele>1586.09</ele>
  <time>2026-08-28T19:09:09Z</time>
  <course>11.55</course>
  <speed>0.03605551275463989</speed>
  <fix>3d</fix>
</trkpt>
<trkpt lat="40.072842" lon="-105.230575">
  <ele>1586.09</ele>
  <time>2026-08-28T19:09:09Z</time>
  <course>281.96</course>
  <speed>0.0</speed>
  <fix>3d</fix>
</trkpt>
<trkpt lat="40.072842" lon="-105.230575">
  <ele>1586.09</ele>
  <time>2026-08-28T19:09:09Z</time>
  <course>11.54</course>
  <speed>0.03605551275463989</speed>
  <fix>3d</fix>
</trkpt>
<trkpt lat="40.072842" lon="-105.230575">
  <ele>1586.09</ele>
  <time>2026-08-28T19:09:09Z</time>
  <course>281.96</course>
  <speed>0.0</speed>
  <fix>3d</fix>
</trkpt>
<trkpt lat="40.072842" lon="-105.230575">
  <ele>1586.09</ele>
  <time>2026-08-28T19:09:09Z</time>
  <course>11.54</course>
  <speed>0.03605551275463989</speed>
  <fix>3d</fix>
</trkpt>
<trkpt lat="40.072842" lon="-105.230575">
  <ele>1586.09</ele>
  <time>2026-08-28T19:09:09Z</time>
  <course>281.96</course>
  <speed>0.0</speed>
  <fix>3d</fix>
</trkpt>
<trkpt lat="40.072842" lon="-105.230575">
  <ele>1586.09</ele>
  <time>2026-08-28T19:09:09Z</time>
  <course>11.53</course>
  <speed>0.03605551275463989</speed>
  <fix>3d</fix>
</trkpt>
<trkpt lat="40.072842" lon="-105.230575">
  <ele>1586.09</ele>
  <time>2026-08-28T19:09:09Z</time>
  <course>281.96</course>
  <speed>0.0</speed>
  <fix>3d</fix>
</trkpt>
<trkpt lat="40.072842" lon="-105.230575">
  <ele>1586.09</ele>
  <time>2026-08-28T19:09:09Z</time>
  <course>11.53</course>
  <speed>0.03605551275463989</speed>
  <fix>3d</fix>
</trkpt>
<trkpt lat="40.072842" lon="-105.230575">
  <ele>1586.09</ele>
  <time>2026-08-28T19:09:09Z</time>
  <course>281.96</course>
  <speed>0.0</speed>
  <fix>3d</fix>
</trkpt>
<trkpt lat="40.072842" lon="-105.230575">
  <ele>1586.09</ele>
  <time>2026-08-28T19:09:09Z</time>
  <course>11.52</course>
  <speed>0.03605551275463989</speed>
  <fix>3d</fix>
</trkpt>
<trkpt lat="40.072842" lon="-105.230575">
  <ele>1586.09</ele>
  <time>2026-08-28T19:09:09Z</time>
  <course>281.96</course>
  <speed>0.0</speed>
  <fix>3d</fix>
</trkpt>
<trkpt lat="40.072842" lon="-105.230575">
  <ele>1586.09</ele>
  <time>2026-08-28T19:09:09Z</time>
  <course>11.51</course>
  <speed>0.03605551275463989</speed>
  <fix>3d</fix>
</trkpt>
<trkpt lat="40.072842" lon="-105.230575">
  <ele>1586.09</ele>
  <time>2026-08-28T19:09:09Z</time>
  <course>281.96</course>
  <speed>0.0</speed>
  <fix>3d</fix>
</trkpt>
<trkpt lat="40.072842" lon="-105.230575">
  <ele>1586.09</ele>
  <time>2026-08-28T19:09:09Z</time>
  <course>11.51</course>
  <speed>0.03605551275463989</speed>
  <fix>3d</fix>
</trkpt>
<trkpt lat="40.072842" lon="-105.230575">
  <ele>1586.09</ele>
  <time>2026-08-28T19:09:09Z</time>
  <course>281.96</course>
  <speed>0.0</speed>
  <fix>3d</fix>
</trkpt>
<trkpt lat="40.072842" lon="-105.230575">
  <ele>1586.09</ele>
  <time>2026-08-28T19:09:09Z</time>
  <course>11.5</course>
  <speed>0.03605551275463989</speed>
  <fix>3d</fix>
</trkpt>
<trkpt lat="40.072842" lon="-105.230575">
  <ele>1586.09</ele>
  <time>2026-08-28T19:09:09Z</time>
  <course>281.96</course>
  <speed>0.0</speed>
  <fix>3d</fix>
</trkpt>
<trkpt lat="40.072842" lon="-105.230575">
  <ele>1586.09</ele>
  <time>2026-08-28T19:09:09Z</time>
  <course>11.5</course>
  <speed>0.03605551275463989</speed>
  <fix>3d</fix>
</trkpt>
<trkpt lat="40.072842" lon="-105.230575">
  <ele>1586.09</ele>
  <time>2026-08-28T19:09:09Z</time>
  <course>281.96</course>
  <speed>0.0</speed>
  <fix>3d</fix>
</trkpt>
<trkpt lat="40.072842" lon="-105.230575">
  <ele>1586.09</ele>
  <time>2026-08-28T19:09:09Z</time>
  <course>11.49</course>
  <speed>0.044721359549995794</speed>
  <fix>3d</fix>
</trkpt>
<trkpt lat="40.072842" lon="-105.230575">
  <ele>1586.09</ele>
  <time>2026-08-28T19:09:09Z</time>
  <course>281.96</course>
  <speed>0.0</speed>
  <fix>3d</fix>
</trkpt>
<trkpt lat="40.072842" lon="-105.230575">
  <ele>1586.09</ele>
  <time>2026-08-28T19:09:09Z</time>
  <course>11.49</course>
  <speed>0.044721359549995794</speed>
  <fix>3d</fix>
</trkpt>
<trkpt lat="40.072842" lon="-105.230575">
  <ele>1586.09</ele>
  <time>2026-08-28T19:09:09Z</time>
  <course>281.96</course>
  <speed>0.0</speed>
  <fix>3d</fix>
</trkpt>
<trkpt lat="40.072842" lon="-105.230575">
  <ele>1586.09</ele>
  <time>2026-08-28T19:09:09Z</time>
  <course>11.48</course>
  <speed>0.044721359549995794</speed>
  <fix>3d</fix>
</trkpt>
<trkpt lat="40.072842" lon="-105.230575">
  <ele>1586.09</ele>
  <time>2026-08-28T19:09:09Z</time>
  <course>281.96</course>
  <speed>0.0</speed>
  <fix>3d</fix>
</trkpt>
<trkpt lat="40.072842" lon="-105.230575">
  <ele>1586.09</ele>
  <time>2026-08-28T19:09:09Z</time>
  <course>11.48</course>
  <speed>0.044721359549995794</speed>
  <fix>3d</fix>
</trkpt>
<trkpt lat="40.072842" lon="-105.230575">
  <ele>1586.09</ele>
  <time>2026-08-28T19:09:09Z</time>
  <course>281.96</course>
  <speed>0.0</speed>
  <fix>3d</fix>
</trkpt>
<trkpt lat="40.072842" lon="-105.230575">
  <ele>1586.09</ele>
  <time>2026-08-28T19:09:09Z</time>
  <course>11.47</course>
  <speed>0.044721359549995794</speed>
  <fix>3d</fix>
</trkpt>
<trkpt lat="40.072842" lon="-105.230575">
  <ele>1586.09</ele>
  <time>2026-08-28T19:09:09Z</time>
  <course>281.96</course>
  <speed>0.0</speed>
  <fix>3d</fix>
</trkpt>
<trkpt lat="40.072842" lon="-105.230575">
  <ele>1586.09</ele>
  <time>2026-08-28T19:09:09Z</time>
  <course>11.47</course>
  <speed>0.044721359549995794</speed>
  <fix>3d</fix>
</trkpt>
<trkpt lat="40.072842" lon="-105.230575">
  <ele>1586.09</ele>
  <time>2026-08-28T19:09:09Z</time>
  <course>281.96</course>
  <speed>0.0</speed>
  <fix>3d</fix>
</trkpt>
<trkpt lat="40.072842" lon="-105.230575">
  <ele>1586.09</ele>
  <time>2026-08-28T19:09:09Z</time>
  <course>11.46</course>
  <speed>0.044721359549995794</speed>
  <fix>3d</fix>
</trkpt>
<trkpt lat="40.072842" lon="-105.230575">
  <ele>1586.09</ele>
  <time>2026-08-28T19:09:09Z</time>
  <course>281.96</course>
  <speed>0.0</speed>
  <fix>3d</fix>
</trkpt>
<trkpt lat="40.072842" lon="-105.230575">
  <ele>1586.09</ele>
  <time>2026-08-28T19:09:09Z</time>
  <course>11.46</course>
  <speed>0.044721359549995794</speed>
  <fix>3d</fix>
</trkpt>
<trkpt lat="40.072842" lon="-105.230575">
  <ele>1586.09</ele>
  <time>2026-08-28T19:09:09Z</time>
  <course>281.96</course>
  <speed>0.0</speed>
  <fix>3d</fix>
</trkpt>
<trkpt lat="40.072842" lon="-105.230575">
  <ele>1586.15</ele>
  <time>2026-08-28T19:09:09Z</time>
  <course>11.45</course>
  <speed>0.0</speed>
  <fix>3d</fix>
</trkpt>
<trkpt lat="40.072842" lon="-105.230575">
  <ele>1586.09</ele>
  <time>2026-08-28T19:09:09Z</time>
  <course>281.96</course>
  <speed>0.0</speed>
  <fix>3d</fix>
</trkpt>
<trkpt lat="40.072842" lon="-105.230575">
  <ele>1586.15</ele>
  <time>2026-08-28T19:09:09Z</time>
  <course>11.45</course>
  <speed>0.0</speed>
  <fix>3d</fix>
</trkpt>
<trkpt lat="40.072842" lon="-105.230575">
  <ele>1586.09</ele>
  <time>2026-08-28T19:09:09Z</time>
  <course>281.96</course>
  <speed>0.0</speed>
  <fix>3d</fix>
</trkpt>
<trkpt lat="40.072842" lon="-105.230575">
  <ele>1586.14</ele>
  <time>2026-08-28T19:09:09Z</time>
  <course>11.44</course>
  <speed>0.0</speed>
  <fix>3d</fix>
</trkpt>
<trkpt lat="40.072842" lon="-105.230575">
  <ele>1586.09</ele>
  <time>2026-08-28T19:09:09Z</time>
  <course>281.96</course>
  <speed>0.0</speed>
  <fix>3d</fix>
</trkpt>
<trkpt lat="40.072842" lon="-105.230575">
  <ele>1586.14</ele>
  <time>2026-08-28T19:09:09Z</time>
  <course>11.44</course>
  <speed>0.0</speed>
  <fix>3d</fix>
</trkpt>
<trkpt lat="40.072842" lon="-105.230575">
  <ele>1586.09</ele>
  <time>2026-08-28T19:09:09Z</time>
  <course>281.96</course>
  <speed>0.0</speed>
  <fix>3d</fix>
</trkpt>
<trkpt lat="40.072842" lon="-105.230575">
  <ele>1586.14</ele>
  <time>2026-08-28T19:09:09Z</time>
  <course>11.43</course>
  <speed>0.0</speed>
  <fix>3d</fix>
</trkpt>
<trkpt lat="40.072842" lon="-105.230575">
  <ele>1586.09</ele>
  <time>2026-08-28T19:09:09Z</time>
  <course>281.96</course>
  <speed>0.0</speed>
  <fix>3d</fix>
</trkpt>
<trkpt lat="40.072842" lon="-105.230575">
  <ele>1586.14</ele>
  <time>2026-08-28T19:09:09Z</time>
  <course>11.43</course>
  <speed>0.01</speed>
  <fix>3d</fix>
</trkpt>
<trkpt lat="40.072842" lon="-105.230575">
  <ele>1586.09</ele>
  <time>2026-08-28T19:09:09Z</time>
  <course>281.96</course>
  <speed>0.0</speed>
  <fix>3d</fix>
</trkpt>
<trkpt lat="40.072842" lon="-105.230575">
  <ele>1586.14</ele>
  <time>2026-08-28T19:09:09Z</time>
  <course>11.42</course>
  <speed>0.01</speed>
  <fix>3d</fix>
</trkpt>
<trkpt lat="40.072842" lon="-105.230575">
  <ele>1586.09</ele>
  <time>2026-08-28T19:09:09Z</time>
  <course>241.03</course>
  <speed>0.0</speed>
  <fix>3d</fix>
</trkpt>
<trkpt lat="40.072842" lon="-105.230575">
  <ele>1586.14</ele>
  <time>2026-08-28T19:09:09Z</time>
  <course>11.42</course>
  <speed>0.01</speed>
  <fix>3d</fix>
</trkpt>
<trkpt lat="40.072842" lon="-105.230575">
  <ele>1586.09</ele>
  <time>2026-08-28T19:09:09Z</time>
  <course>240.38</course>
  <speed>0.0</speed>
  <fix>3d</fix>
</trkpt>
<trkpt lat="40.072842" lon="-105.230575">
  <ele>1586.14</ele>
  <time>2026-08-28T19:09:09Z</time>
  <course>11.41</course>
  <speed>0.01414213562373095</speed>
  <fix>3d</fix>
</trkpt>
<trkpt lat="40.072842" lon="-105.230575">
  <ele>1586.09</ele>
  <time>2026-08-28T19:09:09Z</time>
  <course>256.96</course>
  <speed>0.0</speed>
  <fix>3d</fix>
</trkpt>
<trkpt lat="40.072842" lon="-105.230575">
  <ele>1586.14</ele>
  <time>2026-08-28T19:09:09Z</time>
  <course>11.41</course>
  <speed>0.01414213562373095</speed>
  <fix>3d</fix>
</trkpt>
<trkpt lat="40.072842" lon="-105.230575">
  <ele>1586.09</ele>
  <time>2026-08-28T19:09:09Z</time>
  <course>4.15</course>
  <speed>0.0</speed>
  <fix>3d</fix>
</trkpt>
<trkpt lat="40.072842" lon="-105.230575">
  <ele>1586.15</ele>
  <time>2026-08-28T19:09:09Z</time>
  <course>11.41</course>
  <speed>0.01414213562373095</speed>
  <fix>3d</fix>
</trkpt>
<trkpt lat="40.072842" lon="-105.230575">
  <ele>1586.09</ele>
  <time>2026-08-28T19:09:09Z</time>
  <course>268.1</course>
  <speed>0.0</speed>
  <fix>3d</fix>
</trkpt>
<trkpt lat="40.072842" lon="-105.230575">
  <ele>1586.15</ele>
  <time>2026-08-28T19:09:09Z</time>
  <course>11.4</course>
  <speed>0.022360679774997897</speed>
  <fix>3d</fix>
</trkpt>
<trkpt lat="40.072842" lon="-105.230575">
  <ele>1586.09</ele>
  <time>2026-08-28T19:09:09Z</time>
  <course>265.67</course>
  <speed>0.0</speed>
  <fix>3d</fix>
</trkpt>
<trkpt lat="40.072842" lon="-105.230575">
  <ele>1586.15</ele>
  <time>2026-08-28T19:09:09Z</time>
  <course>11.4</course>
  <speed>0.022360679774997897</speed>
  <fix>3d</fix>
</trkpt>
<trkpt lat="40.072842" lon="-105.230575">
  <ele>1586.09</ele>
  <time>2026-08-28T19:09:09Z</time>
  <course>271.08</course>
  <speed>0.0</speed>
  <fix>3d</fix>
</trkpt>
<trkpt lat="40.072842" lon="-105.230575">
  <ele>1586.16</ele>
  <time>2026-08-28T19:09:09Z</time>
  <course>11.4</course>
  <speed>0.022360679774997897</speed>
  <fix>3d</fix>
</trkpt>
<trkpt lat="40.072842" lon="-105.230575">
  <ele>1586.09</ele>
  <time>2026-08-28T19:09:09Z</time>
  <course>270.63</course>
  <speed>0.0</speed>
  <fix>3d</fix>
</trkpt>
<trkpt lat="40.072842" lon="-105.230575">
  <ele>1586.16</ele>
  <time>2026-08-28T19:09:09Z</time>
  <course>11.39</course>
  <speed>0.022360679774997897</speed>
  <fix>3d</fix>
</trkpt>
<trkpt lat="40.072842" lon="-105.230575">
  <ele>1586.09</ele>
  <time>2026-08-28T19:09:09Z</time>
  <course>269.84</course>
  <speed>0.0</speed>
  <fix>3d</fix>
</trkpt>
<trkpt lat="40.072842" lon="-105.230575">
  <ele>1586.16</ele>
  <time>2026-08-28T19:09:09Z</time>
  <course>11.39</course>
  <speed>0.01414213562373095</speed>
  <fix>3d</fix>
</trkpt>
<trkpt lat="40.072842" lon="-105.230575">
  <ele>1586.09</ele>
  <time>2026-08-28T19:09:09Z</time>
  <course>269.94</course>
  <speed>0.0</speed>
  <fix>3d</fix>
</trkpt>
<trkpt lat="40.072842" lon="-105.230575">
  <ele>1586.16</ele>
  <time>2026-08-28T19:09:09Z</time>
  <course>11.39</course>
  <speed>0.01414213562373095</speed>
  <fix>3d</fix>
</trkpt>
<trkpt lat="40.072842" lon="-105.230575">
  <ele>1586.09</ele>
  <time>2026-08-28T19:09:09Z</time>
  <course>270.03</course>
  <speed>0.0</speed>
  <fix>3d</fix>
</trkpt>
<trkpt lat="40.072842" lon="-105.230575">
  <ele>1586.16</ele>
  <time>2026-08-28T19:09:09Z</time>
  <course>11.38</course>
  <speed>0.01</speed>
  <fix>3d</fix>
</trkpt>
<trkpt lat="40.072842" lon="-105.230575">
  <ele>1586.09</ele>
  <time>2026-08-28T19:09:09Z</time>
  <course>270.0</course>
  <speed>0.0</speed>
  <fix>3d</fix>
</trkpt>
<trkpt lat="40.072842" lon="-105.230575">
  <ele>1586.16</ele>
  <time>2026-08-28T19:09:09Z</time>
  <course>11.38</course>
  <speed>0.0</speed>
  <fix>3d</fix>
</trkpt>
<trkpt lat="40.072842" lon="-105.230575">
  <ele>1586.09</ele>
  <time>2026-08-28T19:09:09Z</time>
  <course>269.99</course>
  <speed>0.0</speed>
  <fix>3d</fix>
</trkpt>
<trkpt lat="40.072842" lon="-105.230575">
  <ele>1586.16</ele>
  <time>2026-08-28T19:09:09Z</time>
  <course>11.37</course>
  <speed>0.0</speed>
  <fix>3d</fix>
</trkpt>
<trkpt lat="40.072842" lon="-105.230575">
  <ele>1586.09</ele>
  <time>2026-08-28T19:09:09Z</time>
  <course>270.0</course>
  <speed>0.0</speed>
  <fix>3d</fix>
</trkpt>
<trkpt lat="40.072842" lon="-105.230575">
  <ele>1586.16</ele>
  <time>2026-08-28T19:09:09Z</time>
  <course>11.37</course>
  <speed>0.0</speed>
  <fix>3d</fix>
</trkpt>
<trkpt lat="40.072842" lon="-105.230575">
  <ele>1586.09</ele>
  <time>2026-08-28T19:09:09Z</time>
  <course>270.0</course>
  <speed>0.0</speed>
  <fix>3d</fix>
</trkpt>
<trkpt lat="40.072842" lon="-105.230575">
  <ele>1586.16</ele>
  <time>2026-08-28T19:09:09Z</time>
  <course>11.37</course>
  <speed>0.0</speed>
  <fix>3d</fix>
</trkpt>
<trkpt lat="40.072842" lon="-105.230575">
  <ele>1586.09</ele>
  <time>2026-08-28T19:09:09Z</time>
  <course>270.0</course>
  <speed>0.0</speed>
  <fix>3d</fix>
</trkpt>
<trkpt lat="40.072842" lon="-105.230575">
  <ele>1586.16</ele>
  <time>2026-08-28T19:09:09Z</time>
  <course>11.36</course>
  <speed>0.0</speed>
  <fix>3d</fix>
</trkpt>
<trkpt lat="40.072842" lon="-105.230575">
  <ele>1586.09</ele>
  <time>2026-08-28T19:09:09Z</time>
  <course>270.0</course>
  <speed>0.0</speed>
  <fix>3d</fix>
</trkpt>
<trkpt lat="40.072842" lon="-105.230575">
  <ele>1586.16</ele>
  <time>2026-08-28T19:09:09Z</time>
  <course>11.36</course>
  <speed>0.0</speed>
  <fix>3d</fix>
</trkpt>
<trkpt lat="40.072842" lon="-105.230575">
  <ele>1586.09</ele>
  <time>2026-08-28T19:09:09Z</time>
  <course>270.0</course>
  <speed>0.0</speed>
  <fix>3d</fix>
</trkpt>
<trkpt lat="40.072842" lon="-105.230575">
  <ele>1586.16</ele>
  <time>2026-08-28T19:09:09Z</time>
  <course>11.36</course>
  <speed>0.0</speed>
  <fix>3d</fix>
</trkpt>
<trkpt lat="40.072842" lon="-105.230575">
  <ele>1586.09</ele>
  <time>2026-08-28T19:09:09Z</time>
  <course>270.0</course>
  <speed>0.0</speed>
  <fix>3d</fix>
</trkpt>
<trkpt lat="40.072842" lon="-105.230575">
  <ele>1586.16</ele>
  <time>2026-08-28T19:09:09Z</time>
  <course>11.35</course>
  <speed>0.0</speed>
  <fix>3d</fix>
</trkpt>
<trkpt lat="40.072842" lon="-105.230575">
  <ele>1586.09</ele>
  <time>2026-08-28T19:09:09Z</time>
  <course>270.0</course>
  <speed>0.0</speed>
  <fix>3d</fix>
</trkpt>
<trkpt lat="40.072842" lon="-105.230575">
  <ele>1586.16</ele>
  <time>2026-08-28T19:09:09Z</time>
  <course>11.35</course>
  <speed>0.0</speed>
  <fix>3d</fix>
</trkpt>
<trkpt lat="40.072842" lon="-105.230575">
  <ele>1586.09</ele>
  <time>2026-08-28T19:09:09Z</time>
  <course>270.0</course>
  <speed>0.0</speed>
  <fix>3d</fix>
</trkpt>
<trkpt lat="40.072842" lon="-105.230575">
  <ele>1586.16</ele>
  <time>2026-08-28T19:09:09Z</time>
  <course>11.35</course>
  <speed>0.0</speed>
  <fix>3d</fix>
</trkpt>
<trkpt lat="40.072842" lon="-105.230575">
  <ele>1586.09</ele>
  <time>2026-08-28T19:09:09Z</time>
  <course>299.02</course>
  <speed>0.0</speed>
  <fix>3d</fix>
</trkpt>
<trkpt lat="40.072842" lon="-105.230575">
  <ele>1586.16</ele>
  <time>2026-08-28T19:09:09Z</time>
  <course>11.35</course>
  <speed>0.0</speed>
  <fix>3d</fix>
</trkpt>
<trkpt lat="40.072842" lon="-105.230575">
  <ele>1586.09</ele>
  <time>2026-08-28T19:09:09Z</time>
  <course>274.49</course>
  <speed>0.0</speed>
  <fix>3d</fix>
</trkpt>
<trkpt lat="40.072842" lon="-105.230575">
  <ele>1586.16</ele>
  <time>2026-08-28T19:09:09Z</time>
  <course>11.34</course>
  <speed>0.0</speed>
  <fix>3d</fix>
</trkpt>
<trkpt lat="40.072842" lon="-105.230575">
  <ele>1586.09</ele>
  <time>2026-08-28T19:09:09Z</time>
  <course>247.15</course>
  <speed>0.0</speed>
  <fix>3d</fix>
</trkpt>
<trkpt lat="40.072842" lon="-105.230575">
  <ele>1586.16</ele>
  <time>2026-08-28T19:09:09Z</time>
  <course>11.34</course>
  <speed>0.0</speed>
  <fix>3d</fix>
</trkpt>
<trkpt lat="40.072842" lon="-105.230575">
  <ele>1586.09</ele>
  <time>2026-08-28T19:09:09Z</time>
  <course>220.97</course>
  <speed>0.0</speed>
  <fix>3d</fix>
</trkpt>
<trkpt lat="40.072842" lon="-105.230575">
  <ele>1586.16</ele>
  <time>2026-08-28T19:09:09Z</time>
  <course>11.34</course>
  <speed>0.0</speed>
  <fix>3d</fix>
</trkpt>
<trkpt lat="40.072842" lon="-105.230575">
  <ele>1586.09</ele>
  <time>2026-08-28T19:09:09Z</time>
  <course>326.3</course>
  <speed>0.0</speed>
  <fix>3d</fix>
</trkpt>
<trkpt lat="40.072842" lon="-105.230575">
  <ele>1586.16</ele>
  <time>2026-08-28T19:09:09Z</time>
  <course>11.34</course>
  <speed>0.0</speed>
  <fix>3d</fix>
</trkpt>
<trkpt lat="40.072842" lon="-105.230575">
  <ele>1586.09</ele>
  <time>2026-08-28T19:09:09Z</time>
  <course>272.07</course>
  <speed>0.0</speed>
  <fix>3d</fix>
</trkpt>
<trkpt lat="40.072842" lon="-105.230575">
  <ele>1586.16</ele>
  <time>2026-08-28T19:09:09Z</time>
  <course>11.34</course>
  <speed>0.0</speed>
  <fix>3d</fix>
</trkpt>
<trkpt lat="40.072842" lon="-105.230575">
  <ele>1586.09</ele>
  <time>2026-08-28T19:09:09Z</time>
  <course>271.82</course>
  <speed>0.0</speed>
  <fix>3d</fix>
</trkpt>
<trkpt lat="40.072842" lon="-105.230575">
  <ele>1586.16</ele>
  <time>2026-08-28T19:09:09Z</time>
  <course>11.33</course>
  <speed>0.0</speed>
  <fix>3d</fix>
</trkpt>
<trkpt lat="40.072842" lon="-105.230575">
  <ele>1586.09</ele>
  <time>2026-08-28T19:09:09Z</time>
  <course>266.04</course>
  <speed>0.0</speed>
  <fix>3d</fix>
</trkpt>
<trkpt lat="40.072842" lon="-105.230575">
  <ele>1586.16</ele>
  <time>2026-08-28T19:09:09Z</time>
  <course>11.33</course>
  <speed>0.0</speed>
  <fix>3d</fix>
</trkpt>
<trkpt lat="40.072842" lon="-105.230575">
  <ele>1586.09</ele>
  <time>2026-08-28T19:09:09Z</time>
  <course>266.09</course>
  <speed>0.0</speed>
  <fix>3d</fix>
</trkpt>
<trkpt lat="40.072842" lon="-105.230575">
  <ele>1586.16</ele>
  <time>2026-08-28T19:09:09Z</time>
  <course>11.33</course>
  <speed>0.0</speed>
  <fix>3d</fix>
</trkpt>
<trkpt lat="40.072842" lon="-105.230575">
  <ele>1586.09</ele>
  <time>2026-08-28T19:09:09Z</time>
  <course>277.8</course>
  <speed>0.0</speed>
  <fix>3d</fix>
</trkpt>
<trkpt lat="40.072842" lon="-105.230575">
  <ele>1586.16</ele>
  <time>2026-08-28T19:09:09Z</time>
  <course>11.33</course>
  <speed>0.0</speed>
  <fix>3d</fix>
</trkpt>
<trkpt lat="40.072842" lon="-105.230575">
  <ele>1586.09</ele>
  <time>2026-08-28T19:09:09Z</time>
  <course>311.89</course>
  <speed>0.0</speed>
  <fix>3d</fix>
</trkpt>
<trkpt lat="40.072842" lon="-105.230575">
  <ele>1586.16</ele>
  <time>2026-08-28T19:09:09Z</time>
  <course>11.33</course>
  <speed>0.0</speed>
  <fix>3d</fix>
</trkpt>
<trkpt lat="40.072842" lon="-105.230575">
  <ele>1586.09</ele>
  <time>2026-08-28T19:09:09Z</time>
  <course>263.95</course>
  <speed>0.0</speed>
  <fix>3d</fix>
</trkpt>
<trkpt lat="40.072842" lon="-105.230575">
  <ele>1586.17</ele>
  <time>2026-08-28T19:09:09Z</time>
  <course>11.33</course>
  <speed>0.0</speed>
  <fix>3d</fix>
</trkpt>
<trkpt lat="40.072842" lon="-105.230575">
  <ele>1586.09</ele>
  <time>2026-08-28T19:09:09Z</time>
  <course>269.62</course>
  <speed>0.0</speed>
  <fix>3d</fix>
</trkpt>
<trkpt lat="40.072842" lon="-105.230575">
  <ele>1586.17</ele>
  <time>2026-08-28T19:09:09Z</time>
  <course>11.33</course>
  <speed>0.0</speed>
  <fix>3d</fix>
</trkpt>
<trkpt lat="40.072842" lon="-105.230575">
  <ele>1586.09</ele>
  <time>2026-08-28T19:09:09Z</time>
  <course>248.06</course>
  <speed>0.0</speed>
  <fix>3d</fix>
</trkpt>
<trkpt lat="40.072842" lon="-105.230575">
  <ele>1586.17</ele>
  <time>2026-08-28T19:09:09Z</time>
  <course>11.33</course>
  <speed>0.01</speed>
  <fix>3d</fix>
</trkpt>
<trkpt lat="40.072842" lon="-105.230575">
  <ele>1586.09</ele>
  <time>2026-08-28T19:09:09Z</time>
  <course>265.5</course>
  <speed>0.0</speed>
  <fix>3d</fix>
</trkpt>
<trkpt lat="40.072842" lon="-105.230575">
  <ele>1586.17</ele>
  <time>2026-08-28T19:09:09Z</time>
  <course>11.33</course>
  <speed>0.01</speed>
  <fix>3d</fix>
</trkpt>
<trkpt lat="40.072842" lon="-105.230575">
  <ele>1586.09</ele>
  <time>2026-08-28T19:09:09Z</time>
  <course>281.36</course>
  <speed>0.0</speed>
  <fix>3d</fix>
</trkpt>
<trkpt lat="40.072842" lon="-105.230575">
  <ele>1586.18</ele>
  <time>2026-08-28T19:09:09Z</time>
  <course>11.33</course>
  <speed>0.01</speed>
  <fix>3d</fix>
</trkpt>
<trkpt lat="40.072842" lon="-105.230575">
  <ele>1586.09</ele>
  <time>2026-08-28T19:09:09Z</time>
  <course>295.75</course>
  <speed>0.0</speed>
  <fix>3d</fix>
</trkpt>
<trkpt lat="40.072842" lon="-105.230575">
  <ele>1586.18</ele>
  <time>2026-08-28T19:09:09Z</time>
  <course>11.33</course>
  <speed>0.01</speed>
  <fix>3d</fix>
</trkpt>
<trkpt lat="40.072842" lon="-105.230575">
  <ele>1586.09</ele>
  <time>2026-08-28T19:09:09Z</time>
  <course>252.09</course>
  <speed>0.0</speed>
  <fix>3d</fix>
</trkpt>
<trkpt lat="40.072842" lon="-105.230575">
  <ele>1586.18</ele>
  <time>2026-08-28T19:09:09Z</time>
  <course>11.33</course>
  <speed>0.01</speed>
  <fix>3d</fix>
</trkpt>
<trkpt lat="40.072842" lon="-105.230575">
  <ele>1586.09</ele>
  <time>2026-08-28T19:09:09Z</time>
  <course>292.06</course>
  <speed>0.0</speed>
  <fix>3d</fix>
</trkpt>
<trkpt lat="40.072842" lon="-105.230575">
  <ele>1586.18</ele>
  <time>2026-08-28T19:09:09Z</time>
  <course>11.33</course>
  <speed>0.01414213562373095</speed>
  <fix>3d</fix>
</trkpt>
<trkpt lat="40.072842" lon="-105.230575">
  <ele>1586.09</ele>
  <time>2026-08-28T19:09:09Z</time>
  <course>275.19</course>
  <speed>0.0</speed>
  <fix>3d</fix>
</trkpt>
<trkpt lat="40.072842" lon="-105.230575">
  <ele>1586.18</ele>
  <time>2026-08-28T19:09:09Z</time>
  <course>11.33</course>
  <speed>0.01414213562373095</speed>
  <fix>3d</fix>
</trkpt>
<trkpt lat="40.072842" lon="-105.230575">
  <ele>1586.09</ele>
  <time>2026-08-28T19:09:09Z</time>
  <course>259.87</course>
  <speed>0.0</speed>
  <fix>3d</fix>
</trkpt>
<trkpt lat="40.072842" lon="-105.230575">
  <ele>1586.18</ele>
  <time>2026-08-28T19:09:09Z</time>
  <course>11.33</course>
  <speed>0.01414213562373095</speed>
  <fix>3d</fix>
</trkpt>
<trkpt lat="40.072842" lon="-105.230575">
  <ele>1586.09</ele>
  <time>2026-08-28T19:09:09Z</time>
  <course>267.41</course>
  <speed>0.0</speed>
  <fix>3d</fix>
</trkpt>
<trkpt lat="40.072842" lon="-105.230575">
  <ele>1586.18</ele>
  <time>2026-08-28T19:09:09Z</time>
  <course>11.33</course>
  <speed>0.01414213562373095</speed>
  <fix>3d</fix>
</trkpt>
<trkpt lat="40.072842" lon="-105.230575">
  <ele>1586.09</ele>
  <time>2026-08-28T19:09:09Z</time>
  <course>300.7</course>
  <speed>0.0</speed>
  <fix>3d</fix>
</trkpt>
<trkpt lat="40.072842" lon="-105.230575">
  <ele>1586.18</ele>
  <time>2026-08-28T19:09:09Z</time>
  <course>11.33</course>
  <speed>0.01414213562373095</speed>
  <fix>3d</fix>
</trkpt>
<trkpt lat="40.072842" lon="-105.230575">
  <ele>1586.09</ele>
  <time>2026-08-28T19:09:09Z</time>
  <course>268.83</course>
  <speed>0.0</speed>
  <fix>3d</fix>
</trkpt>
<trkpt lat="40.072842" lon="-105.230575">
  <ele>1586.18</ele>
  <time>2026-08-28T19:09:09Z</time>
  <course>11.33</course>
  <speed>0.01414213562373095</speed>
  <fix>3d</fix>
</trkpt>
<trkpt lat="40.072842" lon="-105.230575">
  <ele>1586.09</ele>
  <time>2026-08-28T19:09:09Z</time>
  <course>266.18</course>
  <speed>0.0</speed>
  <fix>3d</fix>
</trkpt>
<trkpt lat="40.0728419" lon="-105.230575">
  <ele>1586.17</ele>
  <time>2026-08-28T19:09:09Z</time>
  <course>11.33</course>
  <speed>0.01414213562373095</speed>
  <fix>3d</fix>
</trkpt>
<trkpt lat="40.072842" lon="-105.230575">
  <ele>1586.09</ele>
  <time>2026-08-28T19:09:09Z</time>
  <course>251.84</course>
  <speed>0.0</speed>
  <fix>3d</fix>
</trkpt>
<trkpt lat="40.0728419" lon="-105.2305749">
  <ele>1586.17</ele>
  <time>2026-08-28T19:09:09Z</time>
  <course>11.33</course>
  <speed>0.022360679774997897</speed>
  <fix>3d</fix>
</trkpt>
<trkpt lat="40.072842" lon="-105.230575">
  <ele>1586.09</ele>
  <time>2026-08-28T19:09:09Z</time>
  <course>262.33</course>
  <speed>0.0</speed>
  <fix>3d</fix>
</trkpt>
<trkpt lat="40.0728419" lon="-105.2305749">
  <ele>1586.17</ele>
  <time>2026-08-28T19:09:09Z</time>
  <course>11.33</course>
  <speed>0.022360679774997897</speed>
  <fix>3d</fix>
</trkpt>
<trkpt lat="40.072842" lon="-105.230575">
  <ele>1586.09</ele>
  <time>2026-08-28T19:09:09Z</time>
  <course>281.15</course>
  <speed>0.0</speed>
  <fix>3d</fix>
</trkpt>
<trkpt lat="40.0728419" lon="-105.2305749">
  <ele>1586.17</ele>
  <time>2026-08-28T19:09:09Z</time>
  <course>11.33</course>
  <speed>0.022360679774997897</speed>
  <fix>3d</fix>
</trkpt>
<trkpt lat="40.072842" lon="-105.230575">
  <ele>1586.09</ele>
  <time>2026-08-28T19:09:09Z</time>
  <course>292.91</course>
  <speed>0.0</speed>
  <fix>3d</fix>
</trkpt>
<trkpt lat="40.0728419" lon="-105.2305749">
  <ele>1586.17</ele>
  <time>2026-08-28T19:09:09Z</time>
  <course>11.33</course>
  <speed>0.022360679774997897</speed>
  <fix>3d</fix>
</trkpt>
<trkpt lat="40.072842" lon="-105.230575">
  <ele>1586.09</ele>
  <time>2026-08-28T19:09:09Z</time>
  <course>265.35</course>
  <speed>0.0</speed>
  <fix>3d</fix>
</trkpt>
<trkpt lat="40.0728419" lon="-105.2305749">
  <ele>1586.17</ele>
  <time>2026-08-28T19:09:09Z</time>
  <course>11.33</course>
  <speed>0.022360679774997897</speed>
  <fix>3d</fix>
</trkpt>
<trkpt lat="40.072842" lon="-105.230575">
  <ele>1586.09</ele>
  <time>2026-08-28T19:09:09Z</time>
  <course>290.08</course>
  <speed>0.0</speed>
  <fix>3d</fix>
</trkpt>
<trkpt lat="40.0728419" lon="-105.2305749">
  <ele>1586.17</ele>
  <time>2026-08-28T19:09:09Z</time>
  <course>11.33</course>
  <speed>0.022360679774997897</speed>
  <fix>3d</fix>
</trkpt>
<trkpt lat="40.072842" lon="-105.230575">
  <ele>1586.09</ele>
  <time>2026-08-28T19:09:09Z</time>
  <course>280.05</course>
  <speed>0.0</speed>
  <fix>3d</fix>
</trkpt>
<trkpt lat="40.0728419" lon="-105.2305749">
  <ele>1586.18</ele>
  <time>2026-08-28T19:09:09Z</time>
  <course>11.33</course>
  <speed>0.022360679774997897</speed>
  <fix>3d</fix>
</trkpt>
<trkpt lat="40.072842" lon="-105.230575">
  <ele>1586.09</ele>
  <time>2026-08-28T19:09:09Z</time>
  <course>243.71</course>
  <speed>0.0</speed>
  <fix>3d</fix>
</trkpt>
<trkpt lat="40.0728419" lon="-105.2305749">
  <ele>1586.18</ele>
  <time>2026-08-28T19:09:09Z</time>
  <course>11.33</course>
  <speed>0.022360679774997897</speed>
  <fix>3d</fix>
</trkpt>
<trkpt lat="40.072842" lon="-105.230575">
  <ele>1586.09</ele>
  <time>2026-08-28T19:09:09Z</time>
  <course>256.84</course>
  <speed>0.0</speed>
  <fix>3d</fix>
</trkpt>
<trkpt lat="40.0728419" lon="-105.2305749">
  <ele>1586.18</ele>
  <time>2026-08-28T19:09:09Z</time>
  <course>11.33</course>
  <speed>0.022360679774997897</speed>
  <fix>3d</fix>
</trkpt>
<trkpt lat="40.072842" lon="-105.230575">
  <ele>1586.09</ele>
  <time>2026-08-28T19:09:09Z</time>
  <course>290.37</course>
  <speed>0.0</speed>
  <fix>3d</fix>
</trkpt>
<trkpt lat="40.0728419" lon="-105.2305749">
  <ele>1586.18</ele>
  <time>2026-08-28T19:09:09Z</time>
  <course>11.33</course>
  <speed>0.022360679774997897</speed>
  <fix>3d</fix>
</trkpt>
<trkpt lat="40.072842" lon="-105.230575">
  <ele>1586.09</ele>
  <time>2026-08-28T19:09:09Z</time>
  <course>292.53</course>
  <speed>0.0</speed>
  <fix>3d</fix>
</trkpt>
<trkpt lat="40.0728419" lon="-105.2305749">
  <ele>1586.18</ele>
  <time>2026-08-28T19:09:09Z</time>
  <course>11.33</course>
  <speed>0.022360679774997897</speed>
  <fix>3d</fix>
</trkpt>
<trkpt lat="40.072842" lon="-105.230575">
  <ele>1586.09</ele>
  <time>2026-08-28T19:09:09Z</time>
  <course>258.46</course>
  <speed>0.0</speed>
  <fix>3d</fix>
</trkpt>
<trkpt lat="40.0728419" lon="-105.2305749">
  <ele>1586.18</ele>
  <time>2026-08-28T19:09:09Z</time>
  <course>11.33</course>
  <speed>0.022360679774997897</speed>
  <fix>3d</fix>
</trkpt>
<trkpt lat="40.072842" lon="-105.230575">
  <ele>1586.09</ele>
  <time>2026-08-28T19:09:09Z</time>
  <course>267.52</course>
  <speed>0.0</speed>
  <fix>3d</fix>
</trkpt>
<trkpt lat="40.0728419" lon="-105.2305749">
  <ele>1586.18</ele>
  <time>2026-08-28T19:09:09Z</time>
  <course>11.33</course>
  <speed>0.022360679774997897</speed>
  <fix>3d</fix>
</trkpt>
<trkpt lat="40.072842" lon="-105.230575">
  <ele>1586.09</ele>
  <time>2026-08-28T19:09:09Z</time>
  <course>271.55</course>
  <speed>0.0</speed>
  <fix>3d</fix>
</trkpt>
<trkpt lat="40.0728419" lon="-105.2305749">
  <ele>1586.18</ele>
  <time>2026-08-28T19:09:10Z</time>
  <course>11.33</course>
  <speed>0.022360679774997897</speed>
  <fix>3d</fix>
</trkpt>
<trkpt lat="40.072842" lon="-105.230575">
  <ele>1586.09</ele>
  <time>2026-08-28T19:09:10Z</time>
  <course>270.22</course>
  <speed>0.0</speed>
  <fix>3d</fix>
</trkpt>
<trkpt lat="40.0728419" lon="-105.2305749">
  <ele>1586.18</ele>
  <time>2026-08-28T19:09:10Z</time>
  <course>11.32</course>
  <speed>0.022360679774997897</speed>
  <fix>3d</fix>
</trkpt>
<trkpt lat="40.072842" lon="-105.230575">
  <ele>1586.09</ele>
  <time>2026-08-28T19:09:10Z</time>
  <course>250.47</course>
  <speed>0.0</speed>
  <fix>3d</fix>
</trkpt>
<trkpt lat="40.0728419" lon="-105.2305749">
  <ele>1586.18</ele>
  <time>2026-08-28T19:09:10Z</time>
  <course>11.32</course>
  <speed>0.022360679774997897</speed>
  <fix>3d</fix>
</trkpt>
<trkpt lat="40.072842" lon="-105.230575">
  <ele>1586.09</ele>
  <time>2026-08-28T19:09:10Z</time>
  <course>263.6</course>
  <speed>0.0</speed>
  <fix>3d</fix>
</trkpt>
<trkpt lat="40.0728419" lon="-105.2305749">
  <ele>1586.18</ele>
  <time>2026-08-28T19:09:10Z</time>
  <course>11.32</course>
  <speed>0.022360679774997897</speed>
  <fix>3d</fix>
</trkpt>
<trkpt lat="40.072842" lon="-105.230575">
  <ele>1586.09</ele>
  <time>2026-08-28T19:09:10Z</time>
  <course>294.18</course>
  <speed>0.0</speed>
  <fix>3d</fix>
</trkpt>
<trkpt lat="40.0728419" lon="-105.2305749">
  <ele>1586.18</ele>
  <time>2026-08-28T19:09:10Z</time>
  <course>11.32</course>
  <speed>0.022360679774997897</speed>
  <fix>3d</fix>
</trkpt>
<trkpt lat="40.072842" lon="-105.230575">
  <ele>1586.09</ele>
  <time>2026-08-28T19:09:10Z</time>
  <course>296.15</course>
  <speed>0.0</speed>
  <fix>3d</fix>
</trkpt>
<trkpt lat="40.0728419" lon="-105.2305749">
  <ele>1586.18</ele>
  <time>2026-08-28T19:09:10Z</time>
  <course>11.32</course>
  <speed>0.022360679774997897</speed>
  <fix>3d</fix>
</trkpt>
<trkpt lat="40.072842" lon="-105.230575">
  <ele>1586.09</ele>
  <time>2026-08-28T19:09:10Z</time>
  <course>273.49</course>
  <speed>0.0</speed>
  <fix>3d</fix>
</trkpt>
<trkpt lat="40.0728419" lon="-105.2305749">
  <ele>1586.18</ele>
  <time>2026-08-28T19:09:10Z</time>
  <course>11.32</course>
  <speed>0.022360679774997897</speed>
  <fix>3d</fix>
</trkpt>
<trkpt lat="40.072842" lon="-105.230575">
  <ele>1586.09</ele>
  <time>2026-08-28T19:09:10Z</time>
  <course>246.0</course>
  <speed>0.0</speed>
  <fix>3d</fix>
</trkpt>
<trkpt lat="40.0728419" lon="-105.2305749">
  <ele>1586.18</ele>
  <time>2026-08-28T19:09:10Z</time>
  <course>11.32</course>
  <speed>0.022360679774997897</speed>
  <fix>3d</fix>
</trkpt>
<trkpt lat="40.072842" lon="-105.230575">
  <ele>1586.09</ele>
  <time>2026-08-28T19:09:10Z</time>
  <course>251.26</course>
  <speed>0.0</speed>
  <fix>3d</fix>
</trkpt>
<trkpt lat="40.0728419" lon="-105.2305749">
  <ele>1586.18</ele>
  <time>2026-08-28T19:09:10Z</time>
  <course>11.32</course>
  <speed>0.022360679774997897</speed>
  <fix>3d</fix>
</trkpt>
<trkpt lat="40.072842" lon="-105.230575">
  <ele>1586.09</ele>
  <time>2026-08-28T19:09:10Z</time>
  <course>270.09</course>
  <speed>0.0</speed>
  <fix>3d</fix>
</trkpt>
<trkpt lat="40.0728419" lon="-105.2305749">
  <ele>1586.18</ele>
  <time>2026-08-28T19:09:10Z</time>
  <course>11.32</course>
  <speed>0.022360679774997897</speed>
  <fix>3d</fix>
</trkpt>
<trkpt lat="40.072842" lon="-105.230575">
  <ele>1586.09</ele>
  <time>2026-08-28T19:09:10Z</time>
  <course>266.49</course>
  <speed>0.0</speed>
  <fix>3d</fix>
</trkpt>
<trkpt lat="40.0728419" lon="-105.2305749">
  <ele>1586.18</ele>
  <time>2026-08-28T19:09:10Z</time>
  <course>11.32</course>
  <speed>0.022360679774997897</speed>
  <fix>3d</fix>
</trkpt>
<trkpt lat="40.072842" lon="-105.230575">
  <ele>1586.09</ele>
  <time>2026-08-28T19:09:10Z</time>
  <course>250.78</course>
  <speed>0.0</speed>
  <fix>3d</fix>
</trkpt>
<trkpt lat="40.0728419" lon="-105.2305749">
  <ele>1586.18</ele>
  <time>2026-08-28T19:09:10Z</time>
  <course>11.31</course>
  <speed>0.022360679774997897</speed>
  <fix>3d</fix>
</trkpt>
<trkpt lat="40.072842" lon="-105.230575">
  <ele>1586.09</ele>
  <time>2026-08-28T19:09:10Z</time>
  <course>252.54</course>
  <speed>0.0</speed>
  <fix>3d</fix>
</trkpt>
<trkpt lat="40.0728419" lon="-105.2305749">
  <ele>1586.18</ele>
  <time>2026-08-28T19:09:10Z</time>
  <course>11.31</course>
  <speed>0.022360679774997897</speed>
  <fix>3d</fix>
</trkpt>
<trkpt lat="40.072842" lon="-105.230575">
  <ele>1586.09</ele>
  <time>2026-08-28T19:09:10Z</time>
  <course>272.98</course>
  <speed>0.0</speed>
  <fix>3d</fix>
</trkpt>
<trkpt lat="40.0728419" lon="-105.2305749">
  <ele>1586.18</ele>
  <time>2026-08-28T19:09:10Z</time>
  <course>11.31</course>
  <speed>0.022360679774997897</speed>
  <fix>3d</fix>
</trkpt>
<trkpt lat="40.072842" lon="-105.230575">
  <ele>1586.09</ele>
  <time>2026-08-28T19:09:10Z</time>
  <course>289.71</course>
  <speed>0.0</speed>
  <fix>3d</fix>
</trkpt>
<trkpt lat="40.0728419" lon="-105.2305749">
  <ele>1586.18</ele>
  <time>2026-08-28T19:09:10Z</time>
  <course>11.31</course>
  <speed>0.022360679774997897</speed>
  <fix>3d</fix>
</trkpt>
<trkpt lat="40.072842" lon="-105.230575">
  <ele>1586.09</ele>
  <time>2026-08-28T19:09:10Z</time>
  <course>287.98</course>
  <speed>0.0</speed>
  <fix>3d</fix>
</trkpt>
<trkpt lat="40.0728419" lon="-105.2305749">
  <ele>1586.17</ele>
  <time>2026-08-28T19:09:10Z</time>
  <course>11.31</course>
  <speed>0.022360679774997897</speed>
  <fix>3d</fix>
</trkpt>
<trkpt lat="40.072842" lon="-105.230575">
  <ele>1586.09</ele>
  <time>2026-08-28T19:09:10Z</time>
  <course>270.56</course>
  <speed>0.0</speed>
  <fix>3d</fix>
</trkpt>
<trkpt lat="40.0728419" lon="-105.2305749">
  <ele>1586.17</ele>
  <time>2026-08-28T19:09:10Z</time>
  <course>11.31</course>
  <speed>0.022360679774997897</speed>
  <fix>3d</fix>
</trkpt>
<trkpt lat="40.072842" lon="-105.230575">
  <ele>1586.09</ele>
  <time>2026-08-28T19:09:10Z</time>
  <course>285.93</course>
  <speed>0.0</speed>
  <fix>3d</fix>
</trkpt>
<trkpt lat="40.0728419" lon="-105.2305749">
  <ele>1586.17</ele>
  <time>2026-08-28T19:09:10Z</time>
  <course>11.31</course>
  <speed>0.022360679774997897</speed>
  <fix>3d</fix>
</trkpt>
<trkpt lat="40.072842" lon="-105.230575">
  <ele>1586.09</ele>
  <time>2026-08-28T19:09:10Z</time>
  <course>289.96</course>
  <speed>0.0</speed>
  <fix>3d</fix>
</trkpt>
<trkpt lat="40.0728419" lon="-105.2305749">
  <ele>1586.17</ele>
  <time>2026-08-28T19:09:10Z</time>
  <course>11.3</course>
  <speed>0.022360679774997897</speed>
  <fix>3d</fix>
</trkpt>
<trkpt lat="40.072842" lon="-105.230575">
  <ele>1586.09</ele>
  <time>2026-08-28T19:09:10Z</time>
  <course>277.64</course>
  <speed>0.0</speed>
  <fix>3d</fix>
</trkpt>
<trkpt lat="40.0728419" lon="-105.2305749">
  <ele>1586.17</ele>
  <time>2026-08-28T19:09:10Z</time>
  <course>11.3</course>
  <speed>0.022360679774997897</speed>
  <fix>3d</fix>
</trkpt>
<trkpt lat="40.072842" lon="-105.230575">
  <ele>1586.09</ele>
  <time>2026-08-28T19:09:10Z</time>
  <course>249.45</course>
  <speed>0.0</speed>
  <fix>3d</fix>
</trkpt>
<trkpt lat="40.0728419" lon="-105.2305749">
  <ele>1586.18</ele>
  <time>2026-08-28T19:09:10Z</time>
  <course>11.3</course>
  <speed>0.022360679774997897</speed>
  <fix>3d</fix>
</trkpt>
<trkpt lat="40.072842" lon="-105.230575">
  <ele>1586.09</ele>
  <time>2026-08-28T19:09:10Z</time>
  <course>250.61</course>
  <speed>0.0</speed>
  <fix>3d</fix>
</trkpt>
<trkpt lat="40.0728419" lon="-105.2305749">
  <ele>1586.18</ele>
  <time>2026-08-28T19:09:10Z</time>
  <course>11.3</course>
  <speed>0.022360679774997897</speed>
  <fix>3d</fix>
</trkpt>
<trkpt lat="40.072842" lon="-105.230575">
  <ele>1586.09</ele>
  <time>2026-08-28T19:09:10Z</time>
  <course>263.53</course>
  <speed>0.0</speed>
  <fix>3d</fix>
</trkpt>
<trkpt lat="40.0728419" lon="-105.2305749">
  <ele>1586.18</ele>
  <time>2026-08-28T19:09:10Z</time>
  <course>11.3</course>
  <speed>0.022360679774997897</speed>
  <fix>3d</fix>
</trkpt>
<trkpt lat="40.072842" lon="-105.230575">
  <ele>1586.09</ele>
  <time>2026-08-28T19:09:10Z</time>
  <course>276.8</course>
  <speed>0.0</speed>
  <fix>3d</fix>
</trkpt>
<trkpt lat="40.0728419" lon="-105.2305749">
  <ele>1586.18</ele>
  <time>2026-08-28T19:09:10Z</time>
  <course>11.29</course>
  <speed>0.022360679774997897</speed>
  <fix>3d</fix>
</trkpt>
<trkpt lat="40.072842" lon="-105.230575">
  <ele>1586.09</ele>
  <time>2026-08-28T19:09:10Z</time>
  <course>270.34</course>
  <speed>0.0</speed>
  <fix>3d</fix>
</trkpt>
<trkpt lat="40.0728419" lon="-105.2305749">
  <ele>1586.18</ele>
  <time>2026-08-28T19:09:10Z</time>
  <course>11.29</course>
  <speed>0.022360679774997897</speed>
  <fix>3d</fix>
</trkpt>
<trkpt lat="40.072842" lon="-105.230575">
  <ele>1586.09</ele>
  <time>2026-08-28T19:09:10Z</time>
  <course>269.2</course>
  <speed>0.0</speed>
  <fix>3d</fix>
</trkpt>
<trkpt lat="40.0728419" lon="-105.2305749">
  <ele>1586.18</ele>
  <time>2026-08-28T19:09:10Z</time>
  <course>11.29</course>
  <speed>0.022360679774997897</speed>
  <fix>3d</fix>
</trkpt>
<trkpt lat="40.072842" lon="-105.230575">
  <ele>1586.09</ele>
  <time>2026-08-28T19:09:10Z</time>
  <course>260.28</course>
  <speed>0.0</speed>
  <fix>3d</fix>
</trkpt>
<trkpt lat="40.0728419" lon="-105.2305749">
  <ele>1586.18</ele>
  <time>2026-08-28T19:09:10Z</time>
  <course>11.29</course>
  <speed>0.022360679774997897</speed>
  <fix>3d</fix>
</trkpt>
<trkpt lat="40.072842" lon="-105.230575">
  <ele>1586.09</ele>
  <time>2026-08-28T19:09:10Z</time>
  <course>257.79</course>
  <speed>0.0</speed>
  <fix>3d</fix>
</trkpt>
<trkpt lat="40.0728419" lon="-105.2305749">
  <ele>1586.19</ele>
  <time>2026-08-28T19:09:10Z</time>
  <course>11.29</course>
  <speed>0.022360679774997897</speed>
  <fix>3d</fix>
</trkpt>
<trkpt lat="40.072842" lon="-105.230575">
  <ele>1586.09</ele>
  <time>2026-08-28T19:09:10Z</time>
  <course>274.59</course>
  <speed>0.0</speed>
  <fix>3d</fix>
</trkpt>
<trkpt lat="40.0728419" lon="-105.2305749">
  <ele>1586.19</ele>
  <time>2026-08-28T19:09:10Z</time>
  <course>11.28</course>
  <speed>0.022360679774997897</speed>
  <fix>3d</fix>
</trkpt>
<trkpt lat="40.072842" lon="-105.230575">
  <ele>1586.09</ele>
  <time>2026-08-28T19:09:10Z</time>
  <course>288.17</course>
  <speed>0.0</speed>
  <fix>3d</fix>
</trkpt>
<trkpt lat="40.0728419" lon="-105.2305749">
  <ele>1586.19</ele>
  <time>2026-08-28T19:09:10Z</time>
  <course>11.28</course>
  <speed>0.022360679774997897</speed>
  <fix>3d</fix>
</trkpt>
<trkpt lat="40.072842" lon="-105.230575">
  <ele>1586.09</ele>
  <time>2026-08-28T19:09:10Z</time>
  <course>264.44</course>
  <speed>0.0</speed>
  <fix>3d</fix>
</trkpt>
<trkpt lat="40.0728419" lon="-105.2305749">
  <ele>1586.19</ele>
  <time>2026-08-28T19:09:10Z</time>
  <course>11.28</course>
  <speed>0.022360679774997897</speed>
  <fix>3d</fix>
</trkpt>
<trkpt lat="40.072842" lon="-105.230575">
  <ele>1586.09</ele>
  <time>2026-08-28T19:09:10Z</time>
  <course>268.94</course>
  <speed>0.0</speed>
  <fix>3d</fix>
</trkpt>
<trkpt lat="40.0728419" lon="-105.2305749">
  <ele>1586.19</ele>
  <time>2026-08-28T19:09:10Z</time>
  <course>11.28</course>
  <speed>0.022360679774997897</speed>
  <fix>3d</fix>
</trkpt>
<trkpt lat="40.072842" lon="-105.230575">
  <ele>1586.09</ele>
  <time>2026-08-28T19:09:10Z</time>
  <course>277.71</course>
  <speed>0.0</speed>
  <fix>3d</fix>
</trkpt>
<trkpt lat="40.0728419" lon="-105.2305749">
  <ele>1586.19</ele>
  <time>2026-08-28T19:09:10Z</time>
  <course>11.27</course>
  <speed>0.022360679774997897</speed>
  <fix>3d</fix>
</trkpt>
<trkpt lat="40.072842" lon="-105.230575">
  <ele>1586.09</ele>
  <time>2026-08-28T19:09:10Z</time>
  <course>270.42</course>
  <speed>0.0</speed>
  <fix>3d</fix>
</trkpt>
<trkpt lat="40.0728419" lon="-105.2305749">
  <ele>1586.18</ele>
  <time>2026-08-28T19:09:10Z</time>
  <course>11.27</course>
  <speed>0.022360679774997897</speed>
  <fix>3d</fix>
</trkpt>
<trkpt lat="40.072842" lon="-105.230575">
  <ele>1586.09</ele>
  <time>2026-08-28T19:09:10Z</time>
  <course>268.28</course>
  <speed>0.0</speed>
  <fix>3d</fix>
</trkpt>
<trkpt lat="40.0728419" lon="-105.2305749">
  <ele>1586.18</ele>
  <time>2026-08-28T19:09:10Z</time>
  <course>11.27</course>
  <speed>0.022360679774997897</speed>
  <fix>3d</fix>
</trkpt>
<trkpt lat="40.072842" lon="-105.230575">
  <ele>1586.09</ele>
  <time>2026-08-28T19:09:10Z</time>
  <course>270.15</course>
  <speed>0.0</speed>
  <fix>3d</fix>
</trkpt>
<trkpt lat="40.0728419" lon="-105.2305749">
  <ele>1586.18</ele>
  <time>2026-08-28T19:09:10Z</time>
  <course>11.27</course>
  <speed>0.022360679774997897</speed>
  <fix>3d</fix>
</trkpt>
<trkpt lat="40.072842" lon="-105.230575">
  <ele>1586.09</ele>
  <time>2026-08-28T19:09:10Z</time>
  <course>270.2</course>
  <speed>0.0</speed>
  <fix>3d</fix>
</trkpt>
<trkpt lat="40.0728419" lon="-105.2305749">
  <ele>1586.18</ele>
  <time>2026-08-28T19:09:10Z</time>
  <course>11.27</course>
  <speed>0.022360679774997897</speed>
  <fix>3d</fix>
</trkpt>
<trkpt lat="40.072842" lon="-105.230575">
  <ele>1586.09</ele>
  <time>2026-08-28T19:09:10Z</time>
  <course>269.95</course>
  <speed>0.0</speed>
  <fix>3d</fix>
</trkpt>
<trkpt lat="40.0728419" lon="-105.2305749">
  <ele>1586.18</ele>
  <time>2026-08-28T19:09:10Z</time>
  <course>11.26</course>
  <speed>0.01414213562373095</speed>
  <fix>3d</fix>
</trkpt>
<trkpt lat="40.072842" lon="-105.230575">
  <ele>1586.09</ele>
  <time>2026-08-28T19:09:10Z</time>
  <course>269.97</course>
  <speed>0.0</speed>
  <fix>3d</fix>
</trkpt>
<trkpt lat="40.0728419" lon="-105.2305749">
  <ele>1586.18</ele>
  <time>2026-08-28T19:09:10Z</time>
  <course>11.26</course>
  <speed>0.01414213562373095</speed>
  <fix>3d</fix>
</trkpt>
<trkpt lat="40.072842" lon="-105.230575">
  <ele>1586.09</ele>
  <time>2026-08-28T19:09:10Z</time>
  <course>270.0</course>
  <speed>0.0</speed>
  <fix>3d</fix>
</trkpt>
<trkpt lat="40.0728419" lon="-105.2305749">
  <ele>1586.18</ele>
  <time>2026-08-28T19:09:10Z</time>
  <course>11.26</course>
  <speed>0.01414213562373095</speed>
  <fix>3d</fix>
</trkpt>
<trkpt lat="40.072842" lon="-105.230575">
  <ele>1586.09</ele>
  <time>2026-08-28T19:09:10Z</time>
  <course>254.32</course>
  <speed>0.0</speed>
  <fix>3d</fix>
</trkpt>
<trkpt lat="40.0728419" lon="-105.2305749">
  <ele>1586.18</ele>
  <time>2026-08-28T19:09:10Z</time>
  <course>11.26</course>
  <speed>0.01414213562373095</speed>
  <fix>3d</fix>
</trkpt>
<trkpt lat="40.072842" lon="-105.230575">
  <ele>1586.09</ele>
  <time>2026-08-28T19:09:10Z</time>
  <course>251.81</course>
  <speed>0.0</speed>
  <fix>3d</fix>
</trkpt>
<trkpt lat="40.0728419" lon="-105.2305749">
  <ele>1586.18</ele>
  <time>2026-08-28T19:09:10Z</time>
  <course>11.25</course>
  <speed>0.01414213562373095</speed>
  <fix>3d</fix>
</trkpt>
<trkpt lat="40.072842" lon="-105.230575">
  <ele>1586.09</ele>
  <time>2026-08-28T19:09:10Z</time>
  <course>264.52</course>
  <speed>0.0</speed>
  <fix>3d</fix>
</trkpt>
<trkpt lat="40.0728419" lon="-105.2305749">
  <ele>1586.19</ele>
  <time>2026-08-28T19:09:10Z</time>
  <course>11.25</course>
  <speed>0.01414213562373095</speed>
  <fix>3d</fix>
</trkpt>
<trkpt lat="40.072842" lon="-105.230575">
  <ele>1586.09</ele>
  <time>2026-08-28T19:09:10Z</time>
  <course>274.76</course>
  <speed>0.0</speed>
  <fix>3d</fix>
</trkpt>
<trkpt lat="40.0728419" lon="-105.2305749">
  <ele>1586.19</ele>
  <time>2026-08-28T19:09:10Z</time>
  <course>11.25</course>
  <speed>0.01414213562373095</speed>
  <fix>3d</fix>
</trkpt>
<trkpt lat="40.072842" lon="-105.230575">
  <ele>1586.09</ele>
  <time>2026-08-28T19:09:10Z</time>
  <course>285.15</course>
  <speed>0.0</speed>
  <fix>3d</fix>
</trkpt>
<trkpt lat="40.0728419" lon="-105.2305749">
  <ele>1586.19</ele>
  <time>2026-08-28T19:09:10Z</time>
  <course>11.25</course>
  <speed>0.01414213562373095</speed>
  <fix>3d</fix>
</trkpt>
<trkpt lat="40.072842" lon="-105.230575">
  <ele>1586.09</ele>
  <time>2026-08-28T19:09:10Z</time>
  <course>285.62</course>
  <speed>0.0</speed>
  <fix>3d</fix>
</trkpt>
<trkpt lat="40.0728419" lon="-105.2305749">
  <ele>1586.19</ele>
  <time>2026-08-28T19:09:10Z</time>
  <course>11.24</course>
  <speed>0.01414213562373095</speed>
  <fix>3d</fix>
</trkpt>
<trkpt lat="40.072842" lon="-105.230575">
  <ele>1586.09</ele>
  <time>2026-08-28T19:09:10Z</time>
  <course>285.28</course>
  <speed>0.0</speed>
  <fix>3d</fix>
</trkpt>
<trkpt lat="40.0728419" lon="-105.2305749">
  <ele>1586.19</ele>
  <time>2026-08-28T19:09:10Z</time>
  <course>11.24</course>
  <speed>0.01414213562373095</speed>
  <fix>3d</fix>
</trkpt>
<trkpt lat="40.072842" lon="-105.230575">
  <ele>1586.09</ele>
  <time>2026-08-28T19:09:10Z</time>
  <course>285.55</course>
  <speed>0.0</speed>
  <fix>3d</fix>
</trkpt>
<trkpt lat="40.0728419" lon="-105.2305749">
  <ele>1586.19</ele>
  <time>2026-08-28T19:09:10Z</time>
  <course>11.24</course>
  <speed>0.01414213562373095</speed>
  <fix>3d</fix>
</trkpt>
<trkpt lat="40.072842" lon="-105.230575">
  <ele>1586.09</ele>
  <time>2026-08-28T19:09:10Z</time>
  <course>271.45</course>
  <speed>0.0</speed>
  <fix>3d</fix>
</trkpt>
<trkpt lat="40.0728419" lon="-105.2305749">
  <ele>1586.19</ele>
  <time>2026-08-28T19:09:10Z</time>
  <course>11.24</course>
  <speed>0.01414213562373095</speed>
  <fix>3d</fix>
</trkpt>
<trkpt lat="40.072842" lon="-105.230575">
  <ele>1586.09</ele>
  <time>2026-08-28T19:09:10Z</time>
  <course>267.52</course>
  <speed>0.0</speed>
  <fix>3d</fix>
</trkpt>
<trkpt lat="40.0728419" lon="-105.2305749">
  <ele>1586.19</ele>
  <time>2026-08-28T19:09:10Z</time>
  <course>11.23</course>
  <speed>0.01414213562373095</speed>
  <fix>3d</fix>
</trkpt>
<trkpt lat="40.072842" lon="-105.230575">
  <ele>1586.09</ele>
  <time>2026-08-28T19:09:10Z</time>
  <course>257.04</course>
  <speed>0.0</speed>
  <fix>3d</fix>
</trkpt>
<trkpt lat="40.0728419" lon="-105.2305749">
  <ele>1586.19</ele>
  <time>2026-08-28T19:09:10Z</time>
  <course>11.23</course>
  <speed>0.01414213562373095</speed>
  <fix>3d</fix>
</trkpt>
<trkpt lat="40.072842" lon="-105.230575">
  <ele>1586.09</ele>
  <time>2026-08-28T19:09:10Z</time>
  <course>252.96</course>
  <speed>0.0</speed>
  <fix>3d</fix>
</trkpt>
<trkpt lat="40.0728419" lon="-105.2305749">
  <ele>1586.19</ele>
  <time>2026-08-28T19:09:10Z</time>
  <course>11.23</course>
  <speed>0.01414213562373095</speed>
  <fix>3d</fix>
</trkpt>
<trkpt lat="40.072842" lon="-105.230575">
  <ele>1586.09</ele>
  <time>2026-08-28T19:09:10Z</time>
  <course>262.28</course>
  <speed>0.0</speed>
  <fix>3d</fix>
</trkpt>
<trkpt lat="40.0728419" lon="-105.2305749">
  <ele>1586.19</ele>
  <time>2026-08-28T19:09:10Z</time>
  <course>11.23</course>
  <speed>0.01414213562373095</speed>
  <fix>3d</fix>
</trkpt>
<trkpt lat="40.072842" lon="-105.230575">
  <ele>1586.09</ele>
  <time>2026-08-28T19:09:10Z</time>
  <course>275.29</course>
  <speed>0.0</speed>
  <fix>3d</fix>
</trkpt>
<trkpt lat="40.0728419" lon="-105.2305749">
  <ele>1586.18</ele>
  <time>2026-08-28T19:09:10Z</time>
  <course>11.23</course>
  <speed>0.01414213562373095</speed>
  <fix>3d</fix>
</trkpt>
<trkpt lat="40.072842" lon="-105.230575">
  <ele>1586.09</ele>
  <time>2026-08-28T19:09:10Z</time>
  <course>270.71</course>
  <speed>0.0</speed>
  <fix>3d</fix>
</trkpt>
<trkpt lat="40.0728419" lon="-105.2305749">
  <ele>1586.18</ele>
  <time>2026-08-28T19:09:10Z</time>
  <course>11.22</course>
  <speed>0.01414213562373095</speed>
  <fix>3d</fix>
</trkpt>
<trkpt lat="40.072842" lon="-105.230575">
  <ele>1586.09</ele>
  <time>2026-08-28T19:09:10Z</time>
  <course>269.3</course>
  <speed>0.0</speed>
  <fix>3d</fix>
</trkpt>
<trkpt lat="40.0728419" lon="-105.2305749">
  <ele>1586.18</ele>
  <time>2026-08-28T19:09:10Z</time>
  <course>11.22</course>
  <speed>0.01414213562373095</speed>
  <fix>3d</fix>
</trkpt>
<trkpt lat="40.072842" lon="-105.230575">
  <ele>1586.09</ele>
  <time>2026-08-28T19:09:10Z</time>
  <course>269.98</course>
  <speed>0.0</speed>
  <fix>3d</fix>
</trkpt>
<trkpt lat="40.0728419" lon="-105.2305749">
  <ele>1586.18</ele>
  <time>2026-08-28T19:09:10Z</time>
  <course>11.22</course>
  <speed>0.01414213562373095</speed>
  <fix>3d</fix>
</trkpt>
<trkpt lat="40.072842" lon="-105.230575">
  <ele>1586.09</ele>
  <time>2026-08-28T19:09:10Z</time>
  <course>282.22</course>
  <speed>0.0</speed>
  <fix>3d</fix>
</trkpt>
<trkpt lat="40.0728419" lon="-105.2305749">
  <ele>1586.18</ele>
  <time>2026-08-28T19:09:10Z</time>
  <course>11.22</course>
  <speed>0.01414213562373095</speed>
  <fix>3d</fix>
</trkpt>
<trkpt lat="40.072842" lon="-105.230575">
  <ele>1586.09</ele>
  <time>2026-08-28T19:09:10Z</time>
  <course>287.35</course>
  <speed>0.0</speed>
  <fix>3d</fix>
</trkpt>
<trkpt lat="40.0728419" lon="-105.2305749">
  <ele>1586.18</ele>
  <time>2026-08-28T19:09:10Z</time>
  <course>11.21</course>
  <speed>0.01414213562373095</speed>
  <fix>3d</fix>
</trkpt>
<trkpt lat="40.072842" lon="-105.230575">
  <ele>1586.09</ele>
  <time>2026-08-28T19:09:10Z</time>
  <course>280.12</course>
  <speed>0.0</speed>
  <fix>3d</fix>
</trkpt>
<trkpt lat="40.0728419" lon="-105.2305749">
  <ele>1586.18</ele>
  <time>2026-08-28T19:09:10Z</time>
  <course>11.21</course>
  <speed>0.01414213562373095</speed>
  <fix>3d</fix>
</trkpt>
<trkpt lat="40.072842" lon="-105.230575">
  <ele>1586.09</ele>
  <time>2026-08-28T19:09:10Z</time>
  <course>260.96</course>
  <speed>0.0</speed>
  <fix>3d</fix>
</trkpt>
<trkpt lat="40.0728419" lon="-105.2305749">
  <ele>1586.18</ele>
  <time>2026-08-28T19:09:10Z</time>
  <course>11.21</course>
  <speed>0.01414213562373095</speed>
  <fix>3d</fix>
</trkpt>
<trkpt lat="40.072842" lon="-105.230575">
  <ele>1586.09</ele>
  <time>2026-08-28T19:09:10Z</time>
  <course>253.94</course>
  <speed>0.0</speed>
  <fix>3d</fix>
</trkpt>
<trkpt lat="40.0728419" lon="-105.2305749">
  <ele>1586.17</ele>
  <time>2026-08-28T19:09:10Z</time>
  <course>11.21</course>
  <speed>0.01414213562373095</speed>
  <fix>3d</fix>
</trkpt>
<trkpt lat="40.072842" lon="-105.230575">
  <ele>1586.09</ele>
  <time>2026-08-28T19:09:10Z</time>
  <course>257.15</course>
  <speed>0.0</speed>
  <fix>3d</fix>
</trkpt>
<trkpt lat="40.0728419" lon="-105.2305749">
  <ele>1586.17</ele>
  <time>2026-08-28T19:09:10Z</time>
  <course>11.2</course>
  <speed>0.01414213562373095</speed>
  <fix>3d</fix>
</trkpt>
<trkpt lat="40.072842" lon="-105.230575">
  <ele>1586.09</ele>
  <time>2026-08-28T19:09:10Z</time>
  <course>272.87</course>
  <speed>0.0</speed>
  <fix>3d</fix>
</trkpt>
<trkpt lat="40.0728419" lon="-105.2305749">
  <ele>1586.2</ele>
  <time>2026-08-28T19:09:10Z</time>
  <course>11.2</course>
  <speed>0.022360679774997897</speed>
  <fix>3d</fix>
</trkpt>
<trkpt lat="40.072842" lon="-105.230575">
  <ele>1586.09</ele>
  <time>2026-08-28T19:09:10Z</time>
  <course>263.0</course>
  <speed>0.0</speed>
  <fix>3d</fix>
</trkpt>
<trkpt lat="40.0728419" lon="-105.2305749">
  <ele>1586.3</ele>
  <time>2026-08-28T19:09:10Z</time>
  <course>11.2</course>
  <speed>0.01414213562373095</speed>
  <fix>3d</fix>
</trkpt>
<trkpt lat="40.072842" lon="-105.230575">
  <ele>1586.14</ele>
  <time>2026-08-28T19:09:10Z</time>
  <course>230.19</course>
  <speed>0.0</speed>
  <fix>3d</fix>
</trkpt>
<trkpt lat="40.0728419" lon="-105.2305749">
  <ele>1586.43</ele>
  <time>2026-08-28T19:09:10Z</time>
  <course>11.22</course>
  <speed>0.01</speed>
  <fix>3d</fix>
</trkpt>
<trkpt lat="40.072842" lon="-105.230575">
  <ele>1586.23</ele>
  <time>2026-08-28T19:09:10Z</time>
  <course>266.33</course>
  <speed>0.0</speed>
  <fix>3d</fix>
</trkpt>
<trkpt lat="40.0728419" lon="-105.2305749">
  <ele>1586.79</ele>
  <time>2026-08-28T19:09:10Z</time>
  <course>11.28</course>
  <speed>0.04</speed>
  <fix>3d</fix>
</trkpt>
<trkpt lat="40.072842" lon="-105.230575">
  <ele>1586.42</ele>
  <time>2026-08-28T19:09:10Z</time>
  <course>278.52</course>
  <speed>0.02</speed>
  <fix>3d</fix>
</trkpt>
<trkpt lat="40.0728419" lon="-105.2305749">
  <ele>1586.85</ele>
  <time>2026-08-28T19:09:10Z</time>
  <course>11.29</course>
  <speed>0.04</speed>
  <fix>3d</fix>
</trkpt>
<trkpt lat="40.0728419" lon="-105.2305751">
  <ele>1587.21</ele>
  <time>2026-08-28T19:09:10Z</time>
  <course>11.37</course>
  <speed>0.07280109889280519</speed>
  <fix>3d</fix>
</trkpt>
<trkpt lat="40.072842" lon="-105.2305751">
  <ele>1586.76</ele>
  <time>2026-08-28T19:09:10Z</time>
  <course>283.79</course>
  <speed>0.06</speed>
  <fix>3d</fix>
</trkpt>
<trkpt lat="40.0728419" lon="-105.2305751">
  <ele>1587.27</ele>
  <time>2026-08-28T19:09:10Z</time>
  <course>11.38</course>
  <speed>0.0824621125123532</speed>
  <fix>3d</fix>
</trkpt>
<trkpt lat="40.072842" lon="-105.2305753">
  <ele>1587.63</ele>
  <time>2026-08-28T19:09:10Z</time>
  <course>11.46</course>
  <speed>0.10770329614269007</speed>
  <fix>3d</fix>
</trkpt>
<trkpt lat="40.072842" lon="-105.2305753">
  <ele>1587.17</ele>
  <time>2026-08-28T19:09:10Z</time>
  <course>287.71</course>
  <speed>0.1</speed>
  <fix>3d</fix>
</trkpt>
<trkpt lat="40.072842" lon="-105.2305754">
  <ele>1587.7</ele>
  <time>2026-08-28T19:09:10Z</time>
  <course>11.47</course>
  <speed>0.1118033988749895</speed>
  <fix>3d</fix>
</trkpt>
<trkpt lat="40.0728421" lon="-105.2305757">
  <ele>1588.08</ele>
  <time>2026-08-28T19:09:10Z</time>
  <course>11.55</course>
  <speed>0.14317821063276354</speed>
  <fix>3d</fix>
</trkpt>
<trkpt lat="40.072842" lon="-105.2305756">
  <ele>1587.6</ele>
  <time>2026-08-28T19:09:10Z</time>
  <course>290.3</course>
  <speed>0.14</speed>
  <fix>3d</fix>
</trkpt>
<trkpt lat="40.0728421" lon="-105.2305757">
  <ele>1588.09</ele>
  <time>2026-08-28T19:09:10Z</time>
  <course>11.55</course>
  <speed>0.14317821063276354</speed>
  <fix>3d</fix>
</trkpt>
<trkpt lat="40.0728422" lon="-105.230576">
  <ele>1588.55</ele>
  <time>2026-08-28T19:09:10Z</time>
  <course>11.61</course>
  <speed>0.17</speed>
  <fix>3d</fix>
</trkpt>
<trkpt lat="40.0728421" lon="-105.230576">
  <ele>1588.04</ele>
  <time>2026-08-28T19:09:10Z</time>
  <course>292.13</course>
  <speed>0.17</speed>
  <fix>3d</fix>
</trkpt>
<trkpt lat="40.0728423" lon="-105.2305761">
  <ele>1588.61</ele>
  <time>2026-08-28T19:09:10Z</time>
  <course>11.61</course>
  <speed>0.17</speed>
  <fix>3d</fix>
</trkpt>
<trkpt lat="40.0728424" lon="-105.2305765">
  <ele>1589.02</ele>
  <time>2026-08-28T19:09:10Z</time>
  <course>10.29</course>
  <speed>0.1972308292331602</speed>
  <fix>3d</fix>
</trkpt>
<trkpt lat="40.0728423" lon="-105.2305763">
  <ele>1588.49</ele>
  <time>2026-08-28T19:09:10Z</time>
  <course>293.6</course>
  <speed>0.2</speed>
  <fix>3d</fix>
</trkpt>
<trkpt lat="40.0728424" lon="-105.2305766">
  <ele>1589.09</ele>
  <time>2026-08-28T19:09:10Z</time>
  <course>10.3</course>
  <speed>0.1972308292331602</speed>
  <fix>3d</fix>
</trkpt>
<trkpt lat="40.0728426" lon="-105.230577">
  <ele>1589.49</ele>
  <time>2026-08-28T19:09:10Z</time>
  <course>10.32</course>
  <speed>0.2109502310972899</speed>
  <fix>3d</fix>
</trkpt>
<trkpt lat="40.0728425" lon="-105.2305768">
  <ele>1588.95</ele>
  <time>2026-08-28T19:09:10Z</time>
  <course>294.91</course>
  <speed>0.23</speed>
  <fix>3d</fix>
</trkpt>
<trkpt lat="40.0728426" lon="-105.230577">
  <ele>1589.56</ele>
  <time>2026-08-28T19:09:10Z</time>
  <course>10.32</course>
  <speed>0.2195449840010015</speed>
  <fix>3d</fix>
</trkpt>
<trkpt lat="40.0728428" lon="-105.2305775">
  <ele>1589.96</ele>
  <time>2026-08-28T19:09:10Z</time>
  <course>10.3</course>
  <speed>0.23323807579381203</speed>
  <fix>3d</fix>
</trkpt>
<trkpt lat="40.0728426" lon="-105.2305773">
  <ele>1589.41</ele>
  <time>2026-08-28T19:09:10Z</time>
  <course>296.2</course>
  <speed>0.25</speed>
  <fix>3d</fix>
</trkpt>
<trkpt lat="40.0728428" lon="-105.2305776">
  <ele>1590.03</ele>
  <time>2026-08-28T19:09:10Z</time>
  <course>10.3</course>
  <speed>0.23323807579381203</speed>
  <fix>3d</fix>
</trkpt>
<trkpt lat="40.072843" lon="-105.230578">
  <ele>1590.43</ele>
  <time>2026-08-28T19:09:10Z</time>
  <course>10.25</course>
  <speed>0.24698178070456936</speed>
  <fix>3d</fix>
</trkpt>
<trkpt lat="40.0728429" lon="-105.2305778">
  <ele>1589.88</ele>
  <time>2026-08-28T19:09:10Z</time>
  <course>297.51</course>
  <speed>0.26</speed>
  <fix>3d</fix>
</trkpt>
<trkpt lat="40.072843" lon="-105.230578">
  <ele>1590.44</ele>
  <time>2026-08-28T19:09:10Z</time>
  <course>10.25</course>
  <speed>0.24698178070456936</speed>
  <fix>3d</fix>
</trkpt>
<trkpt lat="40.0728432" lon="-105.2305786">
  <ele>1590.9</ele>
  <time>2026-08-28T19:09:10Z</time>
  <course>10.2</course>
  <speed>0.260768096208106</speed>
  <fix>3d</fix>
</trkpt>
<trkpt lat="40.0728431" lon="-105.2305784">
  <ele>1590.35</ele>
  <time>2026-08-28T19:09:10Z</time>
  <course>298.86</course>
  <speed>0.28</speed>
  <fix>3d</fix>
</trkpt>
<trkpt lat="40.0728433" lon="-105.2305787">
  <ele>1590.98</ele>
  <time>2026-08-28T19:09:10Z</time>
  <course>10.19</course>
  <speed>0.260768096208106</speed>
  <fix>3d</fix>
</trkpt>
<trkpt lat="40.0728435" lon="-105.2305792">
  <ele>1591.37</ele>
  <time>2026-08-28T19:09:10Z</time>
  <course>10.15</course>
  <speed>0.266270539113887</speed>
  <fix>3d</fix>
</trkpt>
<trkpt lat="40.0728433" lon="-105.2305791">
  <ele>1590.81</ele>
  <time>2026-08-28T19:09:10Z</time>
  <course>300.22</course>
  <speed>0.29</speed>
  <fix>3d</fix>
</trkpt>
<trkpt lat="40.0728435" lon="-105.2305793">
  <ele>1591.44</ele>
  <time>2026-08-28T19:09:10Z</time>
  <course>10.15</course>
  <speed>0.266270539113887</speed>
  <fix>3d</fix>
</trkpt>
<trkpt lat="40.0728438" lon="-105.2305798">
  <ele>1591.85</ele>
  <time>2026-08-28T19:09:10Z</time>
  <course>10.1</course>
  <speed>0.280178514522438</speed>
  <fix>3d</fix>
</trkpt>
<trkpt lat="40.0728436" lon="-105.2305796">
  <ele>1591.28</ele>
  <time>2026-08-28T19:09:10Z</time>
  <course>301.6</course>
  <speed>0.3</speed>
  <fix>3d</fix>
</trkpt>
<trkpt lat="40.0728438" lon="-105.2305799">
  <ele>1591.92</ele>
  <time>2026-08-28T19:09:10Z</time>
  <course>10.1</course>
  <speed>0.280178514522438</speed>
  <fix>3d</fix>
</trkpt>
<trkpt lat="40.0728441" lon="-105.2305804">
  <ele>1592.32</ele>
  <time>2026-08-28T19:09:10Z</time>
  <course>10.06</course>
  <speed>0.280178514522438</speed>
  <fix>3d</fix>
</trkpt>
<trkpt lat="40.0728439" lon="-105.2305802">
  <ele>1591.76</ele>
  <time>2026-08-28T19:09:10Z</time>
  <course>303.03</course>
  <speed>0.31</speed>
  <fix>3d</fix>
</trkpt>
<trkpt lat="40.0728441" lon="-105.2305805">
  <ele>1592.39</ele>
  <time>2026-08-28T19:09:10Z</time>
  <course>10.05</course>
  <speed>0.280178514522438</speed>
  <fix>3d</fix>
</trkpt>
<trkpt lat="40.0728444" lon="-105.230581">
  <ele>1592.79</ele>
  <time>2026-08-28T19:09:10Z</time>
  <course>10.02</course>
  <speed>0.29410882339705485</speed>
  <fix>3d</fix>
</trkpt>
<trkpt lat="40.0728442" lon="-105.2305808">
  <ele>1592.23</ele>
  <time>2026-08-28T19:09:10Z</time>
  <course>304.51</course>
  <speed>0.32</speed>
  <fix>3d</fix>
</trkpt>
<trkpt lat="40.0728444" lon="-105.230581">
  <ele>1592.8</ele>
  <time>2026-08-28T19:09:10Z</time>
  <course>10.02</course>
  <speed>0.29410882339705485</speed>
  <fix>3d</fix>
</trkpt>
<trkpt lat="40.0728447" lon="-105.2305817">
  <ele>1593.26</ele>
  <time>2026-08-28T19:09:10Z</time>
  <course>9.99</course>
  <speed>0.3</speed>
  <fix>3d</fix>
</trkpt>
<trkpt lat="40.0728445" lon="-105.2305815">
  <ele>1592.7</ele>
  <time>2026-08-28T19:09:10Z</time>
  <course>306.03</course>
  <speed>0.32</speed>
  <fix>3d</fix>
</trkpt>
<trkpt lat="40.0728448" lon="-105.2305818">
  <ele>1593.33</ele>
  <time>2026-08-28T19:09:10Z</time>
  <course>9.99</course>
  <speed>0.3</speed>
  <fix>3d</fix>
</trkpt>
<trkpt lat="40.0728451" lon="-105.2305823">
  <ele>1593.74</ele>
  <time>2026-08-28T19:09:10Z</time>
  <course>9.98</course>
  <speed>0.30610455730027936</speed>
  <fix>3d</fix>
</trkpt>
<trkpt lat="40.0728449" lon="-105.2305821">
  <ele>1593.17</ele>
  <time>2026-08-28T19:09:10Z</time>
  <course>307.61</course>
  <speed>0.33</speed>
  <fix>3d</fix>
</trkpt>
<trkpt lat="40.0728451" lon="-105.2305824">
  <ele>1593.8</ele>
  <time>2026-08-28T19:09:10Z</time>
  <course>9.98</course>
  <speed>0.30610455730027936</speed>
  <fix>3d</fix>
</trkpt>
<trkpt lat="40.0728455" lon="-105.2305829">
  <ele>1594.21</ele>
  <time>2026-08-28T19:09:10Z</time>
  <course>9.99</course>
  <speed>0.30610455730027936</speed>
  <fix>3d</fix>
</trkpt>
<trkpt lat="40.0728453" lon="-105.2305827">
  <ele>1593.64</ele>
  <time>2026-08-28T19:09:10Z</time>
  <course>309.24</course>
  <speed>0.33</speed>
  <fix>3d</fix>
</trkpt>
<trkpt lat="40.0728455" lon="-105.230583">
  <ele>1594.27</ele>
  <time>2026-08-28T19:09:10Z</time>
  <course>9.99</course>
  <speed>0.31240998703626616</speed>
  <fix>3d</fix>
</trkpt>
<trkpt lat="40.0728458" lon="-105.2305836">
  <ele>1594.68</ele>
  <time>2026-08-28T19:09:10Z</time>
  <course>10.0</course>
  <speed>0.31240998703626616</speed>
  <fix>3d</fix>
</trkpt>
<trkpt lat="40.0728457" lon="-105.2305834">
  <ele>1594.11</ele>
  <time>2026-08-28T19:09:10Z</time>
  <course>310.87</course>
  <speed>0.33</speed>
  <fix>3d</fix>
</trkpt>
<trkpt lat="40.0728459" lon="-105.2305836">
  <ele>1594.75</ele>
  <time>2026-08-28T19:09:10Z</time>
  <course>10.0</course>
  <speed>0.31240998703626616</speed>
  <fix>3d</fix>
</trkpt>
<trkpt lat="40.0728463" lon="-105.2305842">
  <ele>1595.15</ele>
  <time>2026-08-28T19:09:10Z</time>
  <course>10.02</course>
  <speed>0.3189043743820395</speed>
  <fix>3d</fix>
</trkpt>
<trkpt lat="40.072846" lon="-105.2305839">
  <ele>1594.58</ele>
  <time>2026-08-28T19:09:10Z</time>
  <course>312.45</course>
  <speed>0.33</speed>
  <fix>3d</fix>
</trkpt>
<trkpt lat="40.0728463" lon="-105.2305843">
  <ele>1595.22</ele>
  <time>2026-08-28T19:09:10Z</time>
  <course>10.02</course>
  <speed>0.3189043743820395</speed>
  <fix>3d</fix>
</trkpt>
<trkpt lat="40.0728467" lon="-105.2305848">
  <ele>1595.59</ele>
  <time>2026-08-28T19:09:10Z</time>
  <course>10.04</course>
  <speed>0.31144823004794875</speed>
  <fix>3d</fix>
</trkpt>
<trkpt lat="40.0728465" lon="-105.2305844">
  <ele>1595.05</ele>
  <time>2026-08-28T19:09:10Z</time>
  <course>314.02</course>
  <speed>0.33</speed>
  <fix>3d</fix>
</trkpt>
<trkpt lat="40.0728471" lon="-105.2305853">
  <ele>1595.87</ele>
  <time>2026-08-28T19:09:10Z</time>
  <course>10.06</course>
  <speed>0.304138126514911</speed>
  <fix>3d</fix>
</trkpt>
<trkpt lat="40.0728469" lon="-105.230585">
  <ele>1595.46</ele>
  <time>2026-08-28T19:09:10Z</time>
  <course>315.55</course>
  <speed>0.33</speed>
  <fix>3d</fix>
</trkpt>
<trkpt lat="40.0728475" lon="-105.2305859">
  <ele>1596.05</ele>
  <time>2026-08-28T19:09:10Z</time>
  <course>10.07</course>
  <speed>0.3111269837220809</speed>
  <fix>3d</fix>
</trkpt>
<trkpt lat="40.0728474" lon="-105.2305856">
  <ele>1595.73</ele>
  <time>2026-08-28T19:09:10Z</time>
  <course>317.14</course>
  <speed>0.33</speed>
  <fix>3d</fix>
</trkpt>
<trkpt lat="40.072848" lon="-105.2305864">
  <ele>1596.16</ele>
  <time>2026-08-28T19:09:10Z</time>
  <course>10.07</course>
  <speed>0.304138126514911</speed>
  <fix>3d</fix>
</trkpt>
<trkpt lat="40.0728478" lon="-105.2305861">
  <ele>1595.89</ele>
  <time>2026-08-28T19:09:10Z</time>
  <course>318.77</course>
  <speed>0.32</speed>
  <fix>3d</fix>
</trkpt>
<trkpt lat="40.0728484" lon="-105.2305869">
  <ele>1596.25</ele>
  <time>2026-08-28T19:09:10Z</time>
  <course>10.07</course>
  <speed>0.3047950130825634</speed>
  <fix>3d</fix>
</trkpt>
<trkpt lat="40.0728483" lon="-105.2305866">
  <ele>1596.01</ele>
  <time>2026-08-28T19:09:10Z</time>
  <course>320.61</course>
  <speed>0.32</speed>
  <fix>3d</fix>
</trkpt>
<trkpt lat="40.0728489" lon="-105.2305873">
  <ele>1596.34</ele>
  <time>2026-08-28T19:09:10Z</time>
  <course>10.06</course>
  <speed>0.2842534080710379</speed>
  <fix>3d</fix>
</trkpt>
<trkpt lat="40.0728487" lon="-105.2305871">
  <ele>1596.1</ele>
  <time>2026-08-28T19:09:10Z</time>
  <course>322.94</course>
  <speed>0.32</speed>
  <fix>3d</fix>
</trkpt>
<trkpt lat="40.0728493" lon="-105.2305877">
  <ele>1596.4</ele>
  <time>2026-08-28T19:09:10Z</time>
  <course>10.05</course>
  <speed>0.25</speed>
  <fix>3d</fix>
</trkpt>
<trkpt lat="40.0728491" lon="-105.2305875">
  <ele>1596.17</ele>
  <time>2026-08-28T19:09:10Z</time>
  <course>325.62</course>
  <speed>0.3</speed>
  <fix>3d</fix>
</trkpt>
<trkpt lat="40.0728497" lon="-105.2305881">
  <ele>1596.44</ele>
  <time>2026-08-28T19:09:10Z</time>
  <course>10.01</course>
  <speed>0.21400934559032694</speed>
  <fix>3d</fix>
</trkpt>
<trkpt lat="40.0728496" lon="-105.2305879">
  <ele>1596.23</ele>
  <time>2026-08-28T19:09:10Z</time>
  <course>328.47</course>
  <speed>0.26</speed>
  <fix>3d</fix>
</trkpt>
<trkpt lat="40.07285" lon="-105.2305883">
  <ele>1596.46</ele>
  <time>2026-08-28T19:09:10Z</time>
  <course>9.94</course>
  <speed>0.16401219466856726</speed>
  <fix>3d</fix>
</trkpt>
<trkpt lat="40.07285" lon="-105.2305882">
  <ele>1596.27</ele>
  <time>2026-08-28T19:09:10Z</time>
  <course>331.65</course>
  <speed>0.22</speed>
  <fix>3d</fix>
</trkpt>
<trkpt lat="40.0728503" lon="-105.2305885">
  <ele>1596.44</ele>
  <time>2026-08-28T19:09:10Z</time>
  <course>9.83</course>
  <speed>0.11401754250991379</speed>
  <fix>3d</fix>
</trkpt>
<trkpt lat="40.0728503" lon="-105.2305883">
  <ele>1596.28</ele>
  <time>2026-08-28T19:09:10Z</time>
  <course>335.57</course>
  <speed>0.18</speed>
  <fix>3d</fix>
</trkpt>
<trkpt lat="40.0728505" lon="-105.2305886">
  <ele>1596.41</ele>
  <time>2026-08-28T19:09:10Z</time>
  <course>9.71</course>
  <speed>0.07810249675906654</speed>
  <fix>3d</fix>
</trkpt>
<trkpt lat="40.0728505" lon="-105.2305885">
  <ele>1596.26</ele>
  <time>2026-08-28T19:09:10Z</time>
  <course>341.03</course>
  <speed>0.13</speed>
  <fix>3d</fix>
</trkpt>
<trkpt lat="40.0728506" lon="-105.2305887">
  <ele>1596.36</ele>
  <time>2026-08-28T19:09:10Z</time>
  <course>9.57</course>
  <speed>0.03605551275463989</speed>
  <fix>3d</fix>
</trkpt>
<trkpt lat="40.0728508" lon="-105.2305886">
  <ele>1596.23</ele>
  <time>2026-08-28T19:09:10Z</time>
  <course>349.75</course>
  <speed>0.09</speed>
  <fix>3d</fix>
</trkpt>
<trkpt lat="40.0728507" lon="-105.2305887">
  <ele>1596.3</ele>
  <time>2026-08-28T19:09:10Z</time>
  <course>9.44</course>
  <speed>0.01414213562373095</speed>
  <fix>3d</fix>
</trkpt>
<trkpt lat="40.0728509" lon="-105.2305886">
  <ele>1596.17</ele>
  <time>2026-08-28T19:09:10Z</time>
  <course>7.35</course>
  <speed>0.05</speed>
  <fix>3d</fix>
</trkpt>
<trkpt lat="40.0728507" lon="-105.2305886">
  <ele>1596.24</ele>
  <time>2026-08-28T19:09:10Z</time>
  <course>9.34</course>
  <speed>0.04</speed>
  <fix>3d</fix>
</trkpt>
<trkpt lat="40.072851" lon="-105.2305885">
  <ele>1596.12</ele>
  <time>2026-08-28T19:09:10Z</time>
  <course>51.52</course>
  <speed>0.03</speed>
  <fix>3d</fix>
</trkpt>
<trkpt lat="40.0728507" lon="-105.2305885">
  <ele>1596.18</ele>
  <time>2026-08-28T19:09:10Z</time>
  <course>9.28</course>
  <speed>0.07071067811865475</speed>
  <fix>3d</fix>
</trkpt>
<trkpt lat="40.0728511" lon="-105.2305885">
  <ele>1596.06</ele>
  <time>2026-08-28T19:09:10Z</time>
  <course>105.18</course>
  <speed>0.04</speed>
  <fix>3d</fix>
</trkpt>
<trkpt lat="40.0728506" lon="-105.2305885">
  <ele>1596.12</ele>
  <time>2026-08-28T19:09:10Z</time>
  <course>9.27</course>
  <speed>0.09219544457292887</speed>
  <fix>3d</fix>
</trkpt>
<trkpt lat="40.0728511" lon="-105.2305885">
  <ele>1596.0</ele>
  <time>2026-08-28T19:09:10Z</time>
  <course>127.46</course>
  <speed>0.06</speed>
  <fix>3d</fix>
</trkpt>
<trkpt lat="40.0728506" lon="-105.2305883">
  <ele>1596.07</ele>
  <time>2026-08-28T19:09:10Z</time>
  <course>9.32</course>
  <speed>0.13</speed>
  <fix>3d</fix>
</trkpt>
<trkpt lat="40.072851" lon="-105.2305883">
  <ele>1595.94</ele>
  <time>2026-08-28T19:09:10Z</time>
  <course>135.38</course>
  <speed>0.09</speed>
  <fix>3d</fix>
</trkpt>
<trkpt lat="40.0728504" lon="-105.2305881">
  <ele>1596.02</ele>
  <time>2026-08-28T19:09:10Z</time>
  <course>9.43</course>
  <speed>0.1835755975068582</speed>
  <fix>3d</fix>
</trkpt>
<trkpt lat="40.0728508" lon="-105.2305882">
  <ele>1595.89</ele>
  <time>2026-08-28T19:09:10Z</time>
  <course>136.39</course>
  <speed>0.13</speed>
  <fix>3d</fix>
</trkpt>
<trkpt lat="40.0728502" lon="-105.2305877">
  <ele>1595.99</ele>
  <time>2026-08-28T19:09:10Z</time>
  <course>9.58</course>
  <speed>0.2720294101747089</speed>
  <fix>3d</fix>
</trkpt>
<trkpt lat="40.0728506" lon="-105.2305878">
  <ele>1595.85</ele>
  <time>2026-08-28T19:09:10Z</time>
  <course>134.2</course>
  <speed>0.19</speed>
  <fix>3d</fix>
</trkpt>
<trkpt lat="40.0728498" lon="-105.2305872">
  <ele>1595.98</ele>
  <time>2026-08-28T19:09:10Z</time>
  <course>9.65</course>
  <speed>0.38948684188300897</speed>
  <fix>3d</fix>
</trkpt>
<trkpt lat="40.0728503" lon="-105.2305874">
  <ele>1595.83</ele>
  <time>2026-08-28T19:09:10Z</time>
  <course>131.66</course>
  <speed>0.29</speed>
  <fix>3d</fix>
</trkpt>
<trkpt lat="40.0728492" lon="-105.2305864">
  <ele>1595.97</ele>
  <time>2026-08-28T19:09:10Z</time>
  <course>9.58</course>
  <speed>0.523450093132096</speed>
  <fix>3d</fix>
</trkpt>
<trkpt lat="40.0728499" lon="-105.2305868">
  <ele>1595.82</ele>
  <time>2026-08-28T19:09:10Z</time>
  <course>129.98</course>
  <speed>0.41</speed>
  <fix>3d</fix>
</trkpt>
<trkpt lat="40.0728486" lon="-105.2305853">
  <ele>1595.98</ele>
  <time>2026-08-28T19:09:10Z</time>
  <course>9.38</course>
  <speed>0.6435060217278468</speed>
  <fix>3d</fix>
</trkpt>
<trkpt lat="40.0728493" lon="-105.2305859">
  <ele>1595.82</ele>
  <time>2026-08-28T19:09:10Z</time>
  <course>129.22</course>
  <speed>0.53</speed>
  <fix>3d</fix>
</trkpt>
<trkpt lat="40.0728478" lon="-105.2305841">
  <ele>1596.0</ele>
  <time>2026-08-28T19:09:10Z</time>
  <course>9.09</course>
  <speed>0.7495331880577403</speed>
  <fix>3d</fix>
</trkpt>
<trkpt lat="40.0728486" lon="-105.2305849">
  <ele>1595.83</ele>
  <time>2026-08-28T19:09:10Z</time>
  <course>129.15</course>
  <speed>0.65</speed>
  <fix>3d</fix>
</trkpt>
<trkpt lat="40.0728469" lon="-105.2305827">
  <ele>1596.01</ele>
  <time>2026-08-28T19:09:10Z</time>
  <course>8.8</course>
  <speed>0.8061017305526641</speed>
  <fix>3d</fix>
</trkpt>
<trkpt lat="40.0728479" lon="-105.2305835">
  <ele>1595.85</ele>
  <time>2026-08-28T19:09:10Z</time>
  <course>129.61</course>
  <speed>0.75</speed>
  <fix>3d</fix>
</trkpt>
<trkpt lat="40.0728459" lon="-105.2305812">
  <ele>1596.02</ele>
  <time>2026-08-28T19:09:10Z</time>
  <course>8.6</course>
  <speed>0.8202438661763951</speed>
  <fix>3d</fix>
</trkpt>
<trkpt lat="40.0728469" lon="-105.2305822">
  <ele>1595.86</ele>
  <time>2026-08-28T19:09:10Z</time>
  <course>130.47</course>
  <speed>0.8</speed>
  <fix>3d</fix>
</trkpt>
<trkpt lat="40.072845" lon="-105.2305798">
  <ele>1596.03</ele>
  <time>2026-08-28T19:09:10Z</time>
  <course>8.56</course>
  <speed>0.7990619500389191</speed>
  <fix>3d</fix>
</trkpt>
<trkpt lat="40.072846" lon="-105.2305808">
  <ele>1595.88</ele>
  <time>2026-08-28T19:09:10Z</time>
  <course>131.6</course>
  <speed>0.81</speed>
  <fix>3d</fix>
</trkpt>
<trkpt lat="40.0728441" lon="-105.2305785">
  <ele>1596.04</ele>
  <time>2026-08-28T19:09:10Z</time>
  <course>8.68</course>
  <speed>0.7424957912338628</speed>
  <fix>3d</fix>
</trkpt>
<trkpt lat="40.072845" lon="-105.2305794">
  <ele>1595.89</ele>
  <time>2026-08-28T19:09:10Z</time>
  <course>132.82</course>
  <speed>0.78</speed>
  <fix>3d</fix>
</trkpt>
<trkpt lat="40.0728432" lon="-105.2305773">
  <ele>1596.04</ele>
  <time>2026-08-28T19:09:10Z</time>
  <course>8.94</course>
  <speed>0.6859300255857006</speed>
  <fix>3d</fix>
</trkpt>
<trkpt lat="40.0728441" lon="-105.2305781">
  <ele>1595.9</ele>
  <time>2026-08-28T19:09:10Z</time>
  <course>133.98</course>
  <speed>0.73</speed>
  <fix>3d</fix>
</trkpt>
<trkpt lat="40.0728424" lon="-105.2305762">
  <ele>1596.05</ele>
  <time>2026-08-28T19:09:10Z</time>
  <course>9.26</course>
  <speed>0.608276253029822</speed>
  <fix>3d</fix>
</trkpt>
<trkpt lat="40.0728432" lon="-105.2305768">
  <ele>1595.91</ele>
  <time>2026-08-28T19:09:10Z</time>
  <course>135.2</course>
  <speed>0.67</speed>
  <fix>3d</fix>
</trkpt>
<trkpt lat="40.0728417" lon="-105.2305752">
  <ele>1596.05</ele>
  <time>2026-08-28T19:09:10Z</time>
  <course>9.6</course>
  <speed>0.5166236541235796</speed>
  <fix>3d</fix>
</trkpt>
<trkpt lat="40.0728424" lon="-105.2305758">
  <ele>1595.92</ele>
  <time>2026-08-28T19:09:10Z</time>
  <course>136.88</course>
  <speed>0.59</speed>
  <fix>3d</fix>
</trkpt>
<trkpt lat="40.0728411" lon="-105.2305745">
  <ele>1596.06</ele>
  <time>2026-08-28T19:09:10Z</time>
  <course>9.9</course>
  <speed>0.3828837943815329</speed>
  <fix>3d</fix>
</trkpt>
<trkpt lat="40.0728416" lon="-105.2305749">
  <ele>1595.93</ele>
  <time>2026-08-28T19:09:10Z</time>
  <course>139.65</course>
  <speed>0.49</speed>
  <fix>3d</fix>
</trkpt>
<trkpt lat="40.0728407" lon="-105.230574">
  <ele>1596.06</ele>
  <time>2026-08-28T19:09:10Z</time>
  <course>10.09</course>
  <speed>0.23600847442411893</speed>
  <fix>3d</fix>
</trkpt>
<trkpt lat="40.072841" lon="-105.2305743">
  <ele>1595.93</ele>
  <time>2026-08-28T19:09:10Z</time>
  <course>144.77</course>
  <speed>0.36</speed>
  <fix>3d</fix>
</trkpt>
<trkpt lat="40.0728404" lon="-105.2305738">
  <ele>1596.06</ele>
  <time>2026-08-28T19:09:10Z</time>
  <course>10.11</course>
  <speed>0.07280109889280519</speed>
  <fix>3d</fix>
</trkpt>
<trkpt lat="40.0728406" lon="-105.2305739">
  <ele>1595.93</ele>
  <time>2026-08-28T19:09:10Z</time>
  <course>156.77</course>
  <speed>0.21</speed>
  <fix>3d</fix>
</trkpt>
<trkpt lat="40.0728404" lon="-105.2305739">
  <ele>1596.06</ele>
  <time>2026-08-28T19:09:10Z</time>
  <course>9.93</course>
  <speed>0.07615773105863909</speed>
  <fix>3d</fix>
</trkpt>
<trkpt lat="40.0728403" lon="-105.2305739">
  <ele>1595.94</ele>
  <time>2026-08-28T19:09:10Z</time>
  <course>202.72</course>
  <speed>0.1</speed>
  <fix>3d</fix>
</trkpt>
<trkpt lat="40.0728405" lon="-105.2305742">
  <ele>1596.06</ele>
  <time>2026-08-28T19:09:10Z</time>
  <course>9.61</course>
  <speed>0.18439088914585774</speed>
  <fix>3d</fix>
</trkpt>
<trkpt lat="40.0728402" lon="-105.2305741">
  <ele>1595.94</ele>
  <time>2026-08-28T19:09:10Z</time>
  <course>275.28</course>
  <speed>0.14</speed>
  <fix>3d</fix>
</trkpt>
<trkpt lat="40.0728407" lon="-105.2305746">
  <ele>1596.05</ele>
  <time>2026-08-28T19:09:10Z</time>
  <course>9.25</course>
  <speed>0.2545584412271571</speed>
  <fix>3d</fix>
</trkpt>
<trkpt lat="40.0728403" lon="-105.2305745">
  <ele>1595.94</ele>
  <time>2026-08-28T19:09:10Z</time>
  <course>295.39</course>
  <speed>0.24</speed>
  <fix>3d</fix>
</trkpt>
<trkpt lat="40.0728409" lon="-105.2305751">
  <ele>1596.05</ele>
  <time>2026-08-28T19:09:10Z</time>
  <course>8.92</course>
  <speed>0.27018512172212594</speed>
  <fix>3d</fix>
</trkpt>
<trkpt lat="40.0728405" lon="-105.2305751">
  <ele>1595.94</ele>
  <time>2026-08-28T19:09:10Z</time>
  <course>303.93</course>
  <speed>0.29</speed>
  <fix>3d</fix>
</trkpt>
<trkpt lat="40.0728412" lon="-105.2305756">
  <ele>1596.05</ele>
  <time>2026-08-28T19:09:10Z</time>
  <course>8.78</course>
  <speed>0.24413111231467405</speed>
  <fix>3d</fix>
</trkpt>
<trkpt lat="40.0728408" lon="-105.2305756">
  <ele>1595.94</ele>
  <time>2026-08-28T19:09:10Z</time>
  <course>309.98</course>
  <speed>0.3</speed>
  <fix>3d</fix>
</trkpt>
<trkpt lat="40.0728415" lon="-105.230576">
  <ele>1596.05</ele>
  <time>2026-08-28T19:09:10Z</time>
  <course>8.96</course>
  <speed>0.20124611797498107</speed>
  <fix>3d</fix>
</trkpt>
<trkpt lat="40.0728412" lon="-105.2305761">
  <ele>1595.94</ele>
  <time>2026-08-28T19:09:10Z</time>
  <course>315.8</course>
  <speed>0.28</speed>
  <fix>3d</fix>
</trkpt>
<trkpt lat="40.0728418" lon="-105.2305763">
  <ele>1596.05</ele>
  <time>2026-08-28T19:09:10Z</time>
  <course>9.42</course>
  <speed>0.15811388300841897</speed>
  <fix>3d</fix>
</trkpt>
<trkpt lat="40.0728416" lon="-105.2305765">
  <ele>1595.94</ele>
  <time>2026-08-28T19:09:10Z</time>
  <course>322.53</course>
  <speed>0.23</speed>
  <fix>3d</fix>
</trkpt>
<trkpt lat="40.072842" lon="-105.2305765">
  <ele>1596.06</ele>
  <time>2026-08-28T19:09:10Z</time>
  <course>10.05</course>
  <speed>0.13</speed>
  <fix>3d</fix>
</trkpt>
<trkpt lat="40.0728419" lon="-105.2305768">
  <ele>1595.95</ele>
  <time>2026-08-28T19:09:10Z</time>
  <course>331.27</course>
  <speed>0.19</speed>
  <fix>3d</fix>
</trkpt>
<trkpt lat="40.0728423" lon="-105.2305767">
  <ele>1596.06</ele>
  <time>2026-08-28T19:09:10Z</time>
  <course>10.75</course>
  <speed>0.1019803902718557</speed>
  <fix>3d</fix>
</trkpt>
<trkpt lat="40.0728421" lon="-105.230577">
  <ele>1595.95</ele>
  <time>2026-08-28T19:09:10Z</time>
  <course>343.02</course>
  <speed>0.15</speed>
  <fix>3d</fix>
</trkpt>
<trkpt lat="40.0728425" lon="-105.2305767">
  <ele>1596.06</ele>
  <time>2026-08-28T19:09:11Z</time>
  <course>11.44</course>
  <speed>0.1</speed>
  <fix>3d</fix>
</trkpt>
<trkpt lat="40.0728424" lon="-105.230577">
  <ele>1595.96</ele>
  <time>2026-08-28T19:09:11Z</time>
  <course>358.15</course>
  <speed>0.12</speed>
  <fix>3d</fix>
</trkpt>
<trkpt lat="40.0728426" lon="-105.2305767">
  <ele>1596.07</ele>
  <time>2026-08-28T19:09:11Z</time>
  <course>12.05</course>
  <speed>0.09433981132056603</speed>
  <fix>3d</fix>
</trkpt>
<trkpt lat="40.0728426" lon="-105.230577">
  <ele>1595.96</ele>
  <time>2026-08-28T19:09:11Z</time>
  <course>16.14</course>
  <speed>0.11</speed>
  <fix>3d</fix>
</trkpt>
<trkpt lat="40.0728427" lon="-105.2305765">
  <ele>1596.06</ele>
  <time>2026-08-28T19:09:11Z</time>
  <course>12.54</course>
  <speed>0.1044030650891055</speed>
  <fix>3d</fix>
</trkpt>
<trkpt lat="40.0728428" lon="-105.230577">
  <ele>1595.96</ele>
  <time>2026-08-28T19:09:11Z</time>
  <course>35.21</course>
  <speed>0.1</speed>
  <fix>3d</fix>
</trkpt>
<trkpt lat="40.0728428" lon="-105.2305764">
  <ele>1596.06</ele>
  <time>2026-08-28T19:09:11Z</time>
  <course>12.85</course>
  <speed>0.11</speed>
  <fix>3d</fix>
</trkpt>
<trkpt lat="40.0728429" lon="-105.2305768">
  <ele>1595.96</ele>
  <time>2026-08-28T19:09:11Z</time>
  <course>53.12</course>
  <speed>0.1</speed>
  <fix>3d</fix>
</trkpt>
<trkpt lat="40.0728428" lon="-105.2305762">
  <ele>1596.06</ele>
  <time>2026-08-28T19:09:11Z</time>
  <course>13.0</course>
  <speed>0.12041594578792296</speed>
  <fix>3d</fix>
</trkpt>
<trkpt lat="40.072843" lon="-105.2305766">
  <ele>1595.96</ele>
  <time>2026-08-28T19:09:11Z</time>
  <course>68.59</course>
  <speed>0.1</speed>
  <fix>3d</fix>
</trkpt>
<trkpt lat="40.0728429" lon="-105.2305759">
  <ele>1596.06</ele>
  <time>2026-08-28T19:09:11Z</time>
  <course>12.98</course>
  <speed>0.12369316876852982</speed>
  <fix>3d</fix>
</trkpt>
<trkpt lat="40.0728431" lon="-105.2305763">
  <ele>1595.97</ele>
  <time>2026-08-28T19:09:11Z</time>
  <course>81.58</course>
  <speed>0.1</speed>
  <fix>3d</fix>
</trkpt>
<trkpt lat="40.0728428" lon="-105.2305757">
  <ele>1596.06</ele>
  <time>2026-08-28T19:09:11Z</time>
  <course>12.82</course>
  <speed>0.13</speed>
  <fix>3d</fix>
</trkpt>
<trkpt lat="40.0728431" lon="-105.2305761">
  <ele>1595.97</ele>
  <time>2026-08-28T19:09:11Z</time>
  <course>92.4</course>
  <speed>0.11</speed>
  <fix>3d</fix>
</trkpt>
<trkpt lat="40.0728428" lon="-105.2305755">
  <ele>1596.06</ele>
  <time>2026-08-28T19:09:11Z</time>
  <course>12.55</course>
  <speed>0.1341640786499874</speed>
  <fix>3d</fix>
</trkpt>
<trkpt lat="40.0728431" lon="-105.2305758">
  <ele>1595.97</ele>
  <time>2026-08-28T19:09:11Z</time>
  <course>101.49</course>
  <speed>0.11</speed>
  <fix>3d</fix>
</trkpt>
<trkpt lat="40.0728428" lon="-105.2305752">
  <ele>1596.06</ele>
  <time>2026-08-28T19:09:11Z</time>
  <course>12.21</course>
  <speed>0.130384048104053</speed>
  <fix>3d</fix>
</trkpt>
<trkpt lat="40.0728431" lon="-105.2305756">
  <ele>1595.97</ele>
  <time>2026-08-28T19:09:11Z</time>
  <course>109.51</course>
  <speed>0.11</speed>
  <fix>3d</fix>
</trkpt>
<trkpt lat="40.0728427" lon="-105.230575">
  <ele>1596.06</ele>
  <time>2026-08-28T19:09:11Z</time>
  <course>11.85</course>
  <speed>0.12806248474865697</speed>
  <fix>3d</fix>
</trkpt>
<trkpt lat="40.072843" lon="-105.2305753">
  <ele>1595.97</ele>
  <time>2026-08-28T19:09:11Z</time>
  <course>116.93</course>
  <speed>0.11</speed>
  <fix>3d</fix>
</trkpt>
<trkpt lat="40.0728426" lon="-105.2305748">
  <ele>1596.06</ele>
  <time>2026-08-28T19:09:11Z</time>
  <course>11.5</course>
  <speed>0.12727922061357855</speed>
  <fix>3d</fix>
</trkpt>
<trkpt lat="40.0728429" lon="-105.2305752">
  <ele>1595.98</ele>
  <time>2026-08-28T19:09:11Z</time>
  <course>124.04</course>
  <speed>0.1</speed>
  <fix>3d</fix>
</trkpt>
<trkpt lat="40.0728425" lon="-105.2305747">
  <ele>1596.07</ele>
  <time>2026-08-28T19:09:11Z</time>
  <course>11.2</course>
  <speed>0.11401754250991379</speed>
  <fix>3d</fix>
</trkpt>
<trkpt lat="40.0728428" lon="-105.2305749">
  <ele>1595.98</ele>
  <time>2026-08-28T19:09:11Z</time>
  <course>131.09</course>
  <speed>0.1</speed>
  <fix>3d</fix>
</trkpt>
<trkpt lat="40.0728424" lon="-105.2305745">
  <ele>1596.07</ele>
  <time>2026-08-28T19:09:11Z</time>
  <course>10.97</course>
  <speed>0.10816653826391968</speed>
  <fix>3d</fix>
</trkpt>
<trkpt lat="40.0728426" lon="-105.2305748">
  <ele>1595.98</ele>
  <time>2026-08-28T19:09:11Z</time>
  <course>138.28</course>
  <speed>0.09</speed>
  <fix>3d</fix>
</trkpt>
<trkpt lat="40.0728423" lon="-105.2305744">
  <ele>1596.07</ele>
  <time>2026-08-28T19:09:11Z</time>
  <course>10.82</course>
  <speed>0.09848857801796104</speed>
  <fix>3d</fix>
</trkpt>
<trkpt lat="40.0728425" lon="-105.2305746">
  <ele>1595.98</ele>
  <time>2026-08-28T19:09:11Z</time>
  <course>145.79</course>
  <speed>0.08</speed>
  <fix>3d</fix>
</trkpt>
<trkpt lat="40.0728422" lon="-105.2305744">
  <ele>1596.07</ele>
  <time>2026-08-28T19:09:11Z</time>
  <course>10.76</course>
  <speed>0.0854400374531753</speed>
  <fix>3d</fix>
</trkpt>
<trkpt lat="40.0728424" lon="-105.2305745">
  <ele>1595.98</ele>
  <time>2026-08-28T19:09:11Z</time>
  <course>153.79</course>
  <speed>0.08</speed>
  <fix>3d</fix>
</trkpt>
<trkpt lat="40.0728421" lon="-105.2305743">
  <ele>1596.08</ele>
  <time>2026-08-28T19:09:11Z</time>
  <course>10.78</course>
  <speed>0.0824621125123532</speed>
  <fix>3d</fix>
</trkpt>
<trkpt lat="40.0728423" lon="-105.2305744">
  <ele>1595.98</ele>
  <time>2026-08-28T19:09:11Z</time>
  <course>162.47</course>
  <speed>0.07</speed>
  <fix>3d</fix>
</trkpt>
<trkpt lat="40.072842" lon="-105.2305743">
  <ele>1596.08</ele>
  <time>2026-08-28T19:09:11Z</time>
  <course>10.87</course>
  <speed>0.07071067811865475</speed>
  <fix>3d</fix>
</trkpt>
<trkpt lat="40.0728421" lon="-105.2305744">
  <ele>1595.98</ele>
  <time>2026-08-28T19:09:11Z</time>
  <course>172.3</course>
  <speed>0.06</speed>
  <fix>3d</fix>
</trkpt>
<trkpt lat="40.0728419" lon="-105.2305743">
  <ele>1596.08</ele>
  <time>2026-08-28T19:09:11Z</time>
  <course>11.01</course>
  <speed>0.06</speed>
  <fix>3d</fix>
</trkpt>
<trkpt lat="40.072842" lon="-105.2305744">
  <ele>1595.98</ele>
  <time>2026-08-28T19:09:11Z</time>
  <course>183.62</course>
  <speed>0.05</speed>
  <fix>3d</fix>
</trkpt>
<trkpt lat="40.0728418" lon="-105.2305744">
  <ele>1596.08</ele>
  <time>2026-08-28T19:09:11Z</time>
  <course>11.17</course>
  <speed>0.05</speed>
  <fix>3d</fix>
</trkpt>
<trkpt lat="40.0728419" lon="-105.2305744">
  <ele>1595.98</ele>
  <time>2026-08-28T19:09:11Z</time>
  <course>196.94</course>
  <speed>0.04</speed>
  <fix>3d</fix>
</trkpt>
<trkpt lat="40.0728417" lon="-105.2305743">
  <ele>1596.08</ele>
  <time>2026-08-28T19:09:11Z</time>
  <course>11.34</course>
  <speed>0.0412310562561766</speed>
  <fix>3d</fix>
</trkpt>
<trkpt lat="40.0728419" lon="-105.2305744">
  <ele>1595.98</ele>
  <time>2026-08-28T19:09:11Z</time>
  <course>213.23</course>
  <speed>0.04</speed>
  <fix>3d</fix>
</trkpt>
<trkpt lat="40.0728417" lon="-105.2305744">
  <ele>1596.07</ele>
  <time>2026-08-28T19:09:11Z</time>
  <course>11.5</course>
  <speed>0.0316227766016838</speed>
  <fix>3d</fix>
</trkpt>
<trkpt lat="40.0728418" lon="-105.2305744">
  <ele>1595.97</ele>
  <time>2026-08-28T19:09:11Z</time>
  <course>232.78</course>
  <speed>0.03</speed>
  <fix>3d</fix>
</trkpt>
<trkpt lat="40.0728417" lon="-105.2305745">
  <ele>1596.04</ele>
  <time>2026-08-28T19:09:11Z</time>
  <course>11.64</course>
  <speed>0.0282842712474619</speed>
  <fix>3d</fix>
</trkpt>
<trkpt lat="40.0728418" lon="-105.2305745">
  <ele>1595.96</ele>
  <time>2026-08-28T19:09:11Z</time>
  <course>252.65</course>
  <speed>0.03</speed>
  <fix>3d</fix>
</trkpt>
<trkpt lat="40.0728417" lon="-105.2305745">
  <ele>1595.98</ele>
  <time>2026-08-28T19:09:11Z</time>
  <course>11.75</course>
  <speed>0.022360679774997897</speed>
  <fix>3d</fix>
</trkpt>
<trkpt lat="40.0728418" lon="-105.2305746">
  <ele>1595.93</ele>
  <time>2026-08-28T19:09:11Z</time>
  <course>269.14</course>
  <speed>0.04</speed>
  <fix>3d</fix>
</trkpt>
<trkpt lat="40.0728417" lon="-105.2305746">
  <ele>1595.89</ele>
  <time>2026-08-28T19:09:11Z</time>
  <course>11.81</course>
  <speed>0.02</speed>
  <fix>3d</fix>
</trkpt>
<trkpt lat="40.0728418" lon="-105.2305747">
  <ele>1595.87</ele>
  <time>2026-08-28T19:09:11Z</time>
  <course>281.7</course>
  <speed>0.04</speed>
  <fix>3d</fix>
</trkpt>
<trkpt lat="40.0728417" lon="-105.2305747">
  <ele>1595.79</ele>
  <time>2026-08-28T19:09:11Z</time>
  <course>11.84</course>
  <speed>0.02</speed>
  <fix>3d</fix>
</trkpt>
<trkpt lat="40.0728418" lon="-105.2305748">
  <ele>1595.78</ele>
  <time>2026-08-28T19:09:11Z</time>
  <course>291.31</course>
  <speed>0.04</speed>
  <fix>3d</fix>
</trkpt>
<trkpt lat="40.0728417" lon="-105.2305748">
  <ele>1595.68</ele>
  <time>2026-08-28T19:09:11Z</time>
  <course>11.83</course>
  <speed>0.02</speed>
  <fix>3d</fix>
</trkpt>
<trkpt lat="40.0728418" lon="-105.2305749">
  <ele>1595.67</ele>
  <time>2026-08-28T19:09:11Z</time>
  <course>298.83</course>
  <speed>0.05</speed>
  <fix>3d</fix>
</trkpt>
<trkpt lat="40.0728417" lon="-105.2305749">
  <ele>1595.57</ele>
  <time>2026-08-28T19:09:11Z</time>
  <course>11.79</course>
  <speed>0.022360679774997897</speed>
  <fix>3d</fix>
</trkpt>
<trkpt lat="40.0728418" lon="-105.230575">
  <ele>1595.56</ele>
  <time>2026-08-28T19:09:11Z</time>
  <course>305.16</course>
  <speed>0.05</speed>
  <fix>3d</fix>
</trkpt>
<trkpt lat="40.0728418" lon="-105.230575">
  <ele>1595.46</ele>
  <time>2026-08-28T19:09:11Z</time>
  <course>11.72</course>
  <speed>0.01414213562373095</speed>
  <fix>3d</fix>
</trkpt>
<trkpt lat="40.0728419" lon="-105.2305751">
  <ele>1595.45</ele>
  <time>2026-08-28T19:09:11Z</time>
  <course>310.78</course>
  <speed>0.05</speed>
  <fix>3d</fix>
</trkpt>
<trkpt lat="40.0728419" lon="-105.2305751">
  <ele>1595.35</ele>
  <time>2026-08-28T19:09:11Z</time>
  <course>11.63</course>
  <speed>0.01414213562373095</speed>
  <fix>3d</fix>
</trkpt>
<trkpt lat="40.0728419" lon="-105.2305752">
  <ele>1595.34</ele>
  <time>2026-08-28T19:09:11Z</time>
  <course>315.8</course>
  <speed>0.05</speed>
  <fix>3d</fix>
</trkpt>
<trkpt lat="40.0728419" lon="-105.2305751">
  <ele>1595.24</ele>
  <time>2026-08-28T19:09:11Z</time>
  <course>11.54</course>
  <speed>0.01414213562373095</speed>
  <fix>3d</fix>
</trkpt>
<trkpt lat="40.072842" lon="-105.2305753">
  <ele>1595.23</ele>
  <time>2026-08-28T19:09:11Z</time>
  <course>320.19</course>
  <speed>0.05</speed>
  <fix>3d</fix>
</trkpt>
<trkpt lat="40.072842" lon="-105.2305752">
  <ele>1595.13</ele>
  <time>2026-08-28T19:09:11Z</time>
  <course>11.45</course>
  <speed>0.01</speed>
  <fix>3d</fix>
</trkpt>
<trkpt lat="40.072842" lon="-105.2305753">
  <ele>1595.12</ele>
  <time>2026-08-28T19:09:11Z</time>
  <course>324.15</course>
  <speed>0.05</speed>
  <fix>3d</fix>
</trkpt>
<trkpt lat="40.072842" lon="-105.2305752">
  <ele>1595.02</ele>
  <time>2026-08-28T19:09:11Z</time>
  <course>11.36</course>
  <speed>0.01</speed>
  <fix>3d</fix>
</trkpt>
<trkpt lat="40.0728421" lon="-105.2305754">
  <ele>1595.02</ele>
  <time>2026-08-28T19:09:11Z</time>
  <course>328.04</course>
  <speed>0.04</speed>
  <fix>3d</fix>
</trkpt>
<trkpt lat="40.0728421" lon="-105.2305753">
  <ele>1594.92</ele>
  <time>2026-08-28T19:09:11Z</time>
  <course>11.3</course>
  <speed>0.01</speed>
  <fix>3d</fix>
</trkpt>
<trkpt lat="40.0728422" lon="-105.2305755">
  <ele>1594.91</ele>
  <time>2026-08-28T19:09:11Z</time>
  <course>332.24</course>
  <speed>0.04</speed>
  <fix>3d</fix>
</trkpt>
<trkpt lat="40.0728422" lon="-105.2305753">
  <ele>1594.82</ele>
  <time>2026-08-28T19:09:11Z</time>
  <course>11.26</course>
  <speed>0.0</speed>
  <fix>3d</fix>
</trkpt>
<trkpt lat="40.0728423" lon="-105.2305756">
  <ele>1594.82</ele>
  <time>2026-08-28T19:09:11Z</time>
  <course>337.24</course>
  <speed>0.04</speed>
  <fix>3d</fix>
</trkpt>
<trkpt lat="40.0728422" lon="-105.2305753">
  <ele>1594.72</ele>
  <time>2026-08-28T19:09:11Z</time>
  <course>11.24</course>
  <speed>0.01</speed>
  <fix>3d</fix>
</trkpt>
<trkpt lat="40.0728424" lon="-105.2305756">
  <ele>1594.72</ele>
  <time>2026-08-28T19:09:11Z</time>
  <course>343.0</course>
  <speed>0.03</speed>
  <fix>3d</fix>
</trkpt>
<trkpt lat="40.0728423" lon="-105.2305754">
  <ele>1594.62</ele>
  <time>2026-08-28T19:09:11Z</time>
  <course>11.24</course>
  <speed>0.01</speed>
  <fix>3d</fix>
</trkpt>
<trkpt lat="40.0728424" lon="-105.2305756">
  <ele>1594.62</ele>
  <time>2026-08-28T19:09:11Z</time>
  <course>349.23</course>
  <speed>0.03</speed>
  <fix>3d</fix>
</trkpt>
<trkpt lat="40.0728423" lon="-105.2305754">
  <ele>1594.52</ele>
  <time>2026-08-28T19:09:11Z</time>
  <course>11.26</course>
  <speed>0.01</speed>
  <fix>3d</fix>
</trkpt>
<trkpt lat="40.0728425" lon="-105.2305756">
  <ele>1594.52</ele>
  <time>2026-08-28T19:09:11Z</time>
  <course>356.47</course>
  <speed>0.02</speed>
  <fix>3d</fix>
</trkpt>
<trkpt lat="40.0728423" lon="-105.2305754">
  <ele>1594.42</ele>
  <time>2026-08-28T19:09:11Z</time>
  <course>11.29</course>
  <speed>0.02</speed>
  <fix>3d</fix>
</trkpt>
<trkpt lat="40.0728425" lon="-105.2305756">
  <ele>1594.41</ele>
  <time>2026-08-28T19:09:11Z</time>
  <course>5.67</course>
  <speed>0.02</speed>
  <fix>3d</fix>
</trkpt>
<trkpt lat="40.0728424" lon="-105.2305753">
  <ele>1594.32</ele>
  <time>2026-08-28T19:09:11Z</time>
  <course>11.33</course>
  <speed>0.022360679774997897</speed>
  <fix>3d</fix>
</trkpt>
<trkpt lat="40.0728426" lon="-105.2305756">
  <ele>1594.32</ele>
  <time>2026-08-28T19:09:11Z</time>
  <course>17.46</course>
  <speed>0.01</speed>
  <fix>3d</fix>
</trkpt>
<trkpt lat="40.0728424" lon="-105.2305753">
  <ele>1594.22</ele>
  <time>2026-08-28T19:09:11Z</time>
  <course>11.37</course>
  <speed>0.022360679774997897</speed>
  <fix>3d</fix>
</trkpt>
<trkpt lat="40.0728426" lon="-105.2305756">
  <ele>1594.22</ele>
  <time>2026-08-28T19:09:11Z</time>
  <course>33.43</course>
  <speed>0.01</speed>
  <fix>3d</fix>
</trkpt>
<trkpt lat="40.0728424" lon="-105.2305753">
  <ele>1594.12</ele>
  <time>2026-08-28T19:09:11Z</time>
  <course>11.41</course>
  <speed>0.0282842712474619</speed>
  <fix>3d</fix>
</trkpt>
<trkpt lat="40.0728426" lon="-105.2305756">
  <ele>1594.12</ele>
  <time>2026-08-28T19:09:11Z</time>
  <course>57.83</course>
  <speed>0.0</speed>
  <fix>3d</fix>
</trkpt>
<trkpt lat="40.0728424" lon="-105.2305753">
  <ele>1594.03</ele>
  <time>2026-08-28T19:09:11Z</time>
  <course>11.44</course>
  <speed>0.0282842712474619</speed>
  <fix>3d</fix>
</trkpt>
<trkpt lat="40.0728426" lon="-105.2305756">
  <ele>1594.02</ele>
  <time>2026-08-28T19:09:11Z</time>
  <course>93.1</course>
  <speed>0.0</speed>
  <fix>3d</fix>
</trkpt>
<trkpt lat="40.0728424" lon="-105.2305753">
  <ele>1593.93</ele>
  <time>2026-08-28T19:09:11Z</time>
  <course>11.47</course>
  <speed>0.03605551275463989</speed>
  <fix>3d</fix>
</trkpt>
<trkpt lat="40.0728426" lon="-105.2305756">
  <ele>1593.92</ele>
  <time>2026-08-28T19:09:11Z</time>
  <course>122.15</course>
  <speed>0.01</speed>
  <fix>3d</fix>
</trkpt>
<trkpt lat="40.0728424" lon="-105.2305753">
  <ele>1593.83</ele>
  <time>2026-08-28T19:09:11Z</time>
  <course>11.49</course>
  <speed>0.03605551275463989</speed>
  <fix>3d</fix>
</trkpt>
<trkpt lat="40.0728426" lon="-105.2305756">
  <ele>1593.83</ele>
  <time>2026-08-28T19:09:11Z</time>
  <course>136.53</course>
  <speed>0.01</speed>
  <fix>3d</fix>
</trkpt>
<trkpt lat="40.0728424" lon="-105.2305753">
  <ele>1593.73</ele>
  <time>2026-08-28T19:09:11Z</time>
  <course>11.49</course>
  <speed>0.044721359549995794</speed>
  <fix>3d</fix>
</trkpt>
<trkpt lat="40.0728426" lon="-105.2305756">
  <ele>1593.73</ele>
  <time>2026-08-28T19:09:11Z</time>
  <course>142.88</course>
  <speed>0.01</speed>
  <fix>3d</fix>
</trkpt>
<trkpt lat="40.0728424" lon="-105.2305753">
  <ele>1593.63</ele>
  <time>2026-08-28T19:09:11Z</time>
  <course>11.49</course>
  <speed>0.044721359549995794</speed>
  <fix>3d</fix>
</trkpt>
<trkpt lat="40.0728426" lon="-105.2305756">
  <ele>1593.63</ele>
  <time>2026-08-28T19:09:11Z</time>
  <course>146.33</course>
  <speed>0.02</speed>
  <fix>3d</fix>
</trkpt>
<trkpt lat="40.0728424" lon="-105.2305753">
  <ele>1593.52</ele>
  <time>2026-08-28T19:09:11Z</time>
  <course>11.48</course>
  <speed>0.044721359549995794</speed>
  <fix>3d</fix>
</trkpt>
<trkpt lat="40.0728426" lon="-105.2305755">
  <ele>1593.53</ele>
  <time>2026-08-28T19:09:11Z</time>
  <course>148.33</course>
  <speed>0.02</speed>
  <fix>3d</fix>
</trkpt>
<trkpt lat="40.0728423" lon="-105.2305753">
  <ele>1593.42</ele>
  <time>2026-08-28T19:09:11Z</time>
  <course>11.47</course>
  <speed>0.044721359549995794</speed>
  <fix>3d</fix>
</trkpt>
<trkpt lat="40.0728425" lon="-105.2305755">
  <ele>1593.42</ele>
  <time>2026-08-28T19:09:11Z</time>
  <course>149.37</course>
  <speed>0.02</speed>
  <fix>3d</fix>
</trkpt>
<trkpt lat="40.0728423" lon="-105.2305753">
  <ele>1593.32</ele>
  <time>2026-08-28T19:09:11Z</time>
  <course>11.45</course>
  <speed>0.044721359549995794</speed>
  <fix>3d</fix>
</trkpt>
<trkpt lat="40.0728425" lon="-105.2305755">
  <ele>1593.33</ele>
  <time>2026-08-28T19:09:11Z</time>
  <course>150.43</course>
  <speed>0.02</speed>
  <fix>3d</fix>
</trkpt>
<trkpt lat="40.0728423" lon="-105.2305753">
  <ele>1593.22</ele>
  <time>2026-08-28T19:09:11Z</time>
  <course>11.43</course>
  <speed>0.044721359549995794</speed>
  <fix>3d</fix>
</trkpt>
<trkpt lat="40.0728425" lon="-105.2305754">
  <ele>1593.23</ele>
  <time>2026-08-28T19:09:11Z</time>
  <course>151.98</course>
  <speed>0.02</speed>
  <fix>3d</fix>
</trkpt>
<trkpt lat="40.0728423" lon="-105.2305753">
  <ele>1593.12</ele>
  <time>2026-08-28T19:09:11Z</time>
  <course>11.41</course>
  <speed>0.03605551275463989</speed>
  <fix>3d</fix>
</trkpt>
<trkpt lat="40.0728424" lon="-105.2305753">
  <ele>1593.13</ele>
  <time>2026-08-28T19:09:11Z</time>
  <course>153.8</course>
  <speed>0.02</speed>
  <fix>3d</fix>
</trkpt>
<trkpt lat="40.0728422" lon="-105.2305752">
  <ele>1593.02</ele>
  <time>2026-08-28T19:09:11Z</time>
  <course>11.4</course>
  <speed>0.03605551275463989</speed>
  <fix>3d</fix>
</trkpt>
<trkpt lat="40.0728424" lon="-105.2305753">
  <ele>1593.03</ele>
  <time>2026-08-28T19:09:11Z</time>
  <course>155.4</course>
  <speed>0.02</speed>
  <fix>3d</fix>
</trkpt>
<trkpt lat="40.0728422" lon="-105.2305752">
  <ele>1592.93</ele>
  <time>2026-08-28T19:09:11Z</time>
  <course>11.4</course>
  <speed>0.03605551275463989</speed>
  <fix>3d</fix>
</trkpt>
<trkpt lat="40.0728424" lon="-105.2305753">
  <ele>1592.92</ele>
  <time>2026-08-28T19:09:11Z</time>
  <course>156.92</course>
  <speed>0.02</speed>
  <fix>3d</fix>
</trkpt>
<trkpt lat="40.0728422" lon="-105.2305752">
  <ele>1592.83</ele>
  <time>2026-08-28T19:09:11Z</time>
  <course>11.4</course>
  <speed>0.03605551275463989</speed>
  <fix>3d</fix>
</trkpt>
<trkpt lat="40.0728423" lon="-105.2305753">
  <ele>1592.83</ele>
  <time>2026-08-28T19:09:11Z</time>
  <course>159.39</course>
  <speed>0.01</speed>
  <fix>3d</fix>
</trkpt>
<trkpt lat="40.0728422" lon="-105.2305752">
  <ele>1592.73</ele>
  <time>2026-08-28T19:09:11Z</time>
  <course>11.41</course>
  <speed>0.0316227766016838</speed>
  <fix>3d</fix>
</trkpt>
<trkpt lat="40.0728423" lon="-105.2305753">
  <ele>1592.73</ele>
  <time>2026-08-28T19:09:11Z</time>
  <course>163.06</course>
  <speed>0.01</speed>
  <fix>3d</fix>
</trkpt>
<trkpt lat="40.0728421" lon="-105.2305752">
  <ele>1592.63</ele>
  <time>2026-08-28T19:09:11Z</time>
  <course>11.41</course>
  <speed>0.0316227766016838</speed>
  <fix>3d</fix>
</trkpt>
<trkpt lat="40.0728423" lon="-105.2305753">
  <ele>1592.63</ele>
  <time>2026-08-28T19:09:11Z</time>
  <course>167.65</course>
  <speed>0.01</speed>
  <fix>3d</fix>
</trkpt>
<trkpt lat="40.0728421" lon="-105.2305752">
  <ele>1592.53</ele>
  <time>2026-08-28T19:09:11Z</time>
  <course>11.42</course>
  <speed>0.022360679774997897</speed>
  <fix>3d</fix>
</trkpt>
<trkpt lat="40.0728422" lon="-105.2305753">
  <ele>1592.53</ele>
  <time>2026-08-28T19:09:11Z</time>
  <course>172.9</course>
  <speed>0.01</speed>
  <fix>3d</fix>
</trkpt>
<trkpt lat="40.0728421" lon="-105.2305752">
  <ele>1592.43</ele>
  <time>2026-08-28T19:09:11Z</time>
  <course>11.42</course>
  <speed>0.022360679774997897</speed>
  <fix>3d</fix>
</trkpt>
<trkpt lat="40.0728421" lon="-105.2305753">
  <ele>1592.42</ele>
  <time>2026-08-28T19:09:11Z</time>
  <course>178.66</course>
  <speed>0.01</speed>
  <fix>3d</fix>
</trkpt>
<trkpt lat="40.0728421" lon="-105.2305752">
  <ele>1592.32</ele>
  <time>2026-08-28T19:09:11Z</time>
  <course>11.43</course>
  <speed>0.022360679774997897</speed>
  <fix>3d</fix>
</trkpt>
<trkpt lat="40.0728421" lon="-105.2305753">
  <ele>1592.33</ele>
  <time>2026-08-28T19:09:11Z</time>
  <course>185.96</course>
  <speed>0.0</speed>
  <fix>3d</fix>
</trkpt>
<trkpt lat="40.0728421" lon="-105.2305752">
  <ele>1592.22</ele>
  <time>2026-08-28T19:09:11Z</time>
  <course>11.43</course>
  <speed>0.022360679774997897</speed>
  <fix>3d</fix>
</trkpt>
<trkpt lat="40.0728421" lon="-105.2305753">
  <ele>1592.23</ele>
  <time>2026-08-28T19:09:11Z</time>
  <course>198.96</course>
  <speed>0.0</speed>
  <fix>3d</fix>
</trkpt>
<trkpt lat="40.0728421" lon="-105.2305752">
  <ele>1592.12</ele>
  <time>2026-08-28T19:09:11Z</time>
  <course>11.42</course>
  <speed>0.01414213562373095</speed>
  <fix>3d</fix>
</trkpt>
<trkpt lat="40.0728421" lon="-105.2305753">
  <ele>1592.13</ele>
  <time>2026-08-28T19:09:11Z</time>
  <course>233.19</course>
  <speed>0.0</speed>
  <fix>3d</fix>
</trkpt>
<trkpt lat="40.0728421" lon="-105.2305752">
  <ele>1592.02</ele>
  <time>2026-08-28T19:09:11Z</time>
  <course>11.41</course>
  <speed>0.01414213562373095</speed>
  <fix>3d</fix>
</trkpt>
<trkpt lat="40.0728421" lon="-105.2305753">
  <ele>1592.03</ele>
  <time>2026-08-28T19:09:11Z</time>
  <course>293.27</course>
  <speed>0.0</speed>
  <fix>3d</fix>
</trkpt>
<trkpt lat="40.0728421" lon="-105.2305752">
  <ele>1591.92</ele>
  <time>2026-08-28T19:09:11Z</time>
  <course>11.4</course>
  <speed>0.01414213562373095</speed>
  <fix>3d</fix>
</trkpt>
<trkpt lat="40.0728421" lon="-105.2305753">
  <ele>1591.93</ele>
  <time>2026-08-28T19:09:11Z</time>
  <course>319.24</course>
  <speed>0.0</speed>
  <fix>3d</fix>
</trkpt>
<trkpt lat="40.0728421" lon="-105.2305752">
  <ele>1591.82</ele>
  <time>2026-08-28T19:09:11Z</time>
  <course>11.4</course>
  <speed>0.01414213562373095</speed>
  <fix>3d</fix>
</trkpt>
<trkpt lat="40.0728421" lon="-105.2305753">
  <ele>1591.84</ele>
  <time>2026-08-28T19:09:11Z</time>
  <course>330.0</course>
  <speed>0.0</speed>
  <fix>3d</fix>
</trkpt>
<trkpt lat="40.0728421" lon="-105.2305752">
  <ele>1591.72</ele>
  <time>2026-08-28T19:09:11Z</time>
  <course>11.39</course>
  <speed>0.01</speed>
  <fix>3d</fix>
</trkpt>
<trkpt lat="40.0728421" lon="-105.2305753">
  <ele>1591.74</ele>
  <time>2026-08-28T19:09:11Z</time>
  <course>336.01</course>
  <speed>0.01</speed>
  <fix>3d</fix>
</trkpt>
<trkpt lat="40.0728421" lon="-105.2305752">
  <ele>1591.62</ele>
  <time>2026-08-28T19:09:11Z</time>
  <course>11.39</course>
  <speed>0.01</speed>
  <fix>3d</fix>
</trkpt>
<trkpt lat="40.0728421" lon="-105.2305753">
  <ele>1591.63</ele>
  <time>2026-08-28T19:09:11Z</time>
  <course>339.03</course>
  <speed>0.01</speed>
  <fix>3d</fix>
</trkpt>
<trkpt lat="40.0728421" lon="-105.2305752">
  <ele>1591.53</ele>
  <time>2026-08-28T19:09:11Z</time>
  <course>11.38</course>
  <speed>0.01</speed>
  <fix>3d</fix>
</trkpt>
<trkpt lat="40.0728421" lon="-105.2305753">
  <ele>1591.54</ele>
  <time>2026-08-28T19:09:11Z</time>
  <course>340.58</course>
  <speed>0.01</speed>
  <fix>3d</fix>
</trkpt>
<trkpt lat="40.0728421" lon="-105.2305752">
  <ele>1591.43</ele>
  <time>2026-08-28T19:09:11Z</time>
  <course>11.38</course>
  <speed>0.01</speed>
  <fix>3d</fix>
</trkpt>
<trkpt lat="40.0728421" lon="-105.2305753">
  <ele>1591.44</ele>
  <time>2026-08-28T19:09:11Z</time>
  <course>341.8</course>
  <speed>0.01</speed>
  <fix>3d</fix>
</trkpt>
<trkpt lat="40.0728421" lon="-105.2305752">
  <ele>1591.33</ele>
  <time>2026-08-28T19:09:11Z</time>
  <course>11.39</course>
  <speed>0.01</speed>
  <fix>3d</fix>
</trkpt>
<trkpt lat="40.0728421" lon="-105.2305753">
  <ele>1591.34</ele>
  <time>2026-08-28T19:09:11Z</time>
  <course>342.39</course>
  <speed>0.01</speed>
  <fix>3d</fix>
</trkpt>
<trkpt lat="40.0728421" lon="-105.2305752">
  <ele>1591.23</ele>
  <time>2026-08-28T19:09:11Z</time>
  <course>11.4</course>
  <speed>0.01</speed>
  <fix>3d</fix>
</trkpt>
<trkpt lat="40.0728422" lon="-105.2305753">
  <ele>1591.25</ele>
  <time>2026-08-28T19:09:11Z</time>
  <course>342.2</course>
  <speed>0.01</speed>
  <fix>3d</fix>
</trkpt>
<trkpt lat="40.0728421" lon="-105.2305752">
  <ele>1591.13</ele>
  <time>2026-08-28T19:09:11Z</time>
  <course>11.41</course>
  <speed>0.01</speed>
  <fix>3d</fix>
</trkpt>
<trkpt lat="40.0728423" lon="-105.2305753">
  <ele>1591.14</ele>
  <time>2026-08-28T19:09:11Z</time>
  <course>341.86</course>
  <speed>0.01</speed>
  <fix>3d</fix>
</trkpt>
<trkpt lat="40.0728421" lon="-105.2305752">
  <ele>1591.03</ele>
  <time>2026-08-28T19:09:11Z</time>
  <course>11.41</course>
  <speed>0.01</speed>
  <fix>3d</fix>
</trkpt>
<trkpt lat="40.0728423" lon="-105.2305753">
  <ele>1591.04</ele>
  <time>2026-08-28T19:09:11Z</time>
  <course>341.52</course>
  <speed>0.01</speed>
  <fix>3d</fix>
</trkpt>
<trkpt lat="40.0728421" lon="-105.2305752">
  <ele>1590.93</ele>
  <time>2026-08-28T19:09:11Z</time>
  <course>11.42</course>
  <speed>0.01</speed>
  <fix>3d</fix>
</trkpt>
<trkpt lat="40.0728423" lon="-105.2305753">
  <ele>1590.94</ele>
  <time>2026-08-28T19:09:11Z</time>
  <course>340.86</course>
  <speed>0.01</speed>
  <fix>3d</fix>
</trkpt>
<trkpt lat="40.0728421" lon="-105.2305752">
  <ele>1590.83</ele>
  <time>2026-08-28T19:09:11Z</time>
  <course>11.42</course>
  <speed>0.01414213562373095</speed>
  <fix>3d</fix>
</trkpt>
<trkpt lat="40.0728423" lon="-105.2305753">
  <ele>1590.84</ele>
  <time>2026-08-28T19:09:11Z</time>
  <course>339.18</course>
  <speed>0.01</speed>
  <fix>3d</fix>
</trkpt>
<trkpt lat="40.0728422" lon="-105.2305752">
  <ele>1590.73</ele>
  <time>2026-08-28T19:09:11Z</time>
  <course>11.42</course>
  <speed>0.01414213562373095</speed>
  <fix>3d</fix>
</trkpt>
<trkpt lat="40.0728424" lon="-105.2305753">
  <ele>1590.74</ele>
  <time>2026-08-28T19:09:11Z</time>
  <course>336.05</course>
  <speed>0.01</speed>
  <fix>3d</fix>
</trkpt>
<trkpt lat="40.0728422" lon="-105.2305752">
  <ele>1590.63</ele>
  <time>2026-08-28T19:09:11Z</time>
  <course>11.42</course>
  <speed>0.01414213562373095</speed>
  <fix>3d</fix>
</trkpt>
<trkpt lat="40.0728424" lon="-105.2305753">
  <ele>1590.63</ele>
  <time>2026-08-28T19:09:11Z</time>
  <course>331.53</course>
  <speed>0.0</speed>
  <fix>3d</fix>
</trkpt>
<trkpt lat="40.0728422" lon="-105.2305752">
  <ele>1590.52</ele>
  <time>2026-08-28T19:09:11Z</time>
  <course>11.41</course>
  <speed>0.01414213562373095</speed>
  <fix>3d</fix>
</trkpt>
<trkpt lat="40.0728424" lon="-105.2305753">
  <ele>1590.54</ele>
  <time>2026-08-28T19:09:11Z</time>
  <course>326.23</course>
  <speed>0.0</speed>
  <fix>3d</fix>
</trkpt>
<trkpt lat="40.0728422" lon="-105.2305752">
  <ele>1590.42</ele>
  <time>2026-08-28T19:09:11Z</time>
  <course>11.41</course>
  <speed>0.01414213562373095</speed>
  <fix>3d</fix>
</trkpt>
<trkpt lat="40.0728424" lon="-105.2305753">
  <ele>1590.44</ele>
  <time>2026-08-28T19:09:11Z</time>
  <course>320.43</course>
  <speed>0.0</speed>
  <fix>3d</fix>
</trkpt>
<trkpt lat="40.0728422" lon="-105.2305752">
  <ele>1590.32</ele>
  <time>2026-08-28T19:09:11Z</time>
  <course>11.4</course>
  <speed>0.01414213562373095</speed>
  <fix>3d</fix>
</trkpt>
<trkpt lat="40.0728424" lon="-105.2305753">
  <ele>1590.34</ele>
  <time>2026-08-28T19:09:11Z</time>
  <course>311.81</course>
  <speed>0.0</speed>
  <fix>3d</fix>
</trkpt>
<trkpt lat="40.0728422" lon="-105.2305752">
  <ele>1590.22</ele>
  <time>2026-08-28T19:09:11Z</time>
  <course>11.4</course>
  <speed>0.022360679774997897</speed>
  <fix>3d</fix>
</trkpt>
<trkpt lat="40.0728424" lon="-105.2305753">
  <ele>1590.24</ele>
  <time>2026-08-28T19:09:11Z</time>
  <course>295.89</course>
  <speed>0.0</speed>
  <fix>3d</fix>
</trkpt>
<trkpt lat="40.0728422" lon="-105.2305752">
  <ele>1590.12</ele>
  <time>2026-08-28T19:09:11Z</time>
  <course>11.4</course>
  <speed>0.022360679774997897</speed>
  <fix>3d</fix>
</trkpt>
<trkpt lat="40.0728424" lon="-105.2305753">
  <ele>1590.13</ele>
  <time>2026-08-28T19:09:11Z</time>
  <course>272.77</course>
  <speed>0.0</speed>
  <fix>3d</fix>
</trkpt>
<trkpt lat="40.0728422" lon="-105.2305752">
  <ele>1590.02</ele>
  <time>2026-08-28T19:09:11Z</time>
  <course>11.4</course>
  <speed>0.022360679774997897</speed>
  <fix>3d</fix>
</trkpt>
<trkpt lat="40.0728424" lon="-105.2305753">
  <ele>1590.04</ele>
  <time>2026-08-28T19:09:11Z</time>
  <course>251.62</course>
  <speed>0.0</speed>
  <fix>3d</fix>
</trkpt>
<trkpt lat="40.0728422" lon="-105.2305752">
  <ele>1589.92</ele>
  <time>2026-08-28T19:09:11Z</time>
  <course>11.4</course>
  <speed>0.022360679774997897</speed>
  <fix>3d</fix>
</trkpt>
<trkpt lat="40.0728424" lon="-105.2305754">
  <ele>1589.94</ele>
  <time>2026-08-28T19:09:11Z</time>
  <course>238.59</course>
  <speed>0.0</speed>
  <fix>3d</fix>
</trkpt>
<trkpt lat="40.0728422" lon="-105.2305752">
  <ele>1589.83</ele>
  <time>2026-08-28T19:09:11Z</time>
  <course>11.4</course>
  <speed>0.022360679774997897</speed>
  <fix>3d</fix>
</trkpt>
<trkpt lat="40.0728424" lon="-105.2305755">
  <ele>1589.84</ele>
  <time>2026-08-28T19:09:11Z</time>
  <course>231.96</course>
  <speed>0.0</speed>
  <fix>3d</fix>
</trkpt>
<trkpt lat="40.0728422" lon="-105.2305752">
  <ele>1589.73</ele>
  <time>2026-08-28T19:09:11Z</time>
  <course>11.4</course>
  <speed>0.022360679774997897</speed>
  <fix>3d</fix>
</trkpt>
<trkpt lat="40.0728424" lon="-105.2305755">
  <ele>1589.74</ele>
  <time>2026-08-28T19:09:11Z</time>
  <course>226.41</course>
  <speed>0.0</speed>
  <fix>3d</fix>
</trkpt>
<trkpt lat="40.0728422" lon="-105.2305752">
  <ele>1589.63</ele>
  <time>2026-08-28T19:09:11Z</time>
  <course>11.4</course>
  <speed>0.022360679774997897</speed>
  <fix>3d</fix>
</trkpt>
<trkpt lat="40.0728424" lon="-105.2305755">
  <ele>1589.63</ele>
  <time>2026-08-28T19:09:11Z</time>
  <course>219.65</course>
  <speed>0.0</speed>
  <fix>3d</fix>
</trkpt>
<trkpt lat="40.0728422" lon="-105.2305752">
  <ele>1589.53</ele>
  <time>2026-08-28T19:09:11Z</time>
  <course>11.4</course>
  <speed>0.022360679774997897</speed>
  <fix>3d</fix>
</trkpt>
<trkpt lat="40.0728424" lon="-105.2305755">
  <ele>1589.54</ele>
  <time>2026-08-28T19:09:11Z</time>
  <course>211.37</course>
  <speed>0.0</speed>
  <fix>3d</fix>
</trkpt>
<trkpt lat="40.0728422" lon="-105.2305752">
  <ele>1589.43</ele>
  <time>2026-08-28T19:09:11Z</time>
  <course>11.4</course>
  <speed>0.022360679774997897</speed>
  <fix>3d</fix>
</trkpt>
<trkpt lat="40.0728424" lon="-105.2305755">
  <ele>1589.44</ele>
  <time>2026-08-28T19:09:11Z</time>
  <course>201.8</course>
  <speed>0.0</speed>
  <fix>3d</fix>
</trkpt>
<trkpt lat="40.0728422" lon="-105.2305752">
  <ele>1589.33</ele>
  <time>2026-08-28T19:09:11Z</time>
  <course>11.4</course>
  <speed>0.022360679774997897</speed>
  <fix>3d</fix>
</trkpt>
<trkpt lat="40.0728424" lon="-105.2305755">
  <ele>1589.34</ele>
  <time>2026-08-28T19:09:11Z</time>
  <course>191.27</course>
  <speed>0.0</speed>
  <fix>3d</fix>
</trkpt>
<trkpt lat="40.0728422" lon="-105.2305753">
  <ele>1589.23</ele>
  <time>2026-08-28T19:09:11Z</time>
  <course>11.4</course>
  <speed>0.022360679774997897</speed>
  <fix>3d</fix>
</trkpt>
<trkpt lat="40.0728424" lon="-105.2305755">
  <ele>1589.24</ele>
  <time>2026-08-28T19:09:11Z</time>
  <course>180.4</course>
  <speed>0.0</speed>
  <fix>3d</fix>
</trkpt>
<trkpt lat="40.0728422" lon="-105.2305753">
  <ele>1589.13</ele>
  <time>2026-08-28T19:09:11Z</time>
  <course>11.4</course>
  <speed>0.022360679774997897</speed>
  <fix>3d</fix>
</trkpt>
<trkpt lat="40.0728424" lon="-105.2305755">
  <ele>1589.13</ele>
  <time>2026-08-28T19:09:11Z</time>
  <course>169.91</course>
  <speed>0.0</speed>
  <fix>3d</fix>
</trkpt>
<trkpt lat="40.0728422" lon="-105.2305753">
  <ele>1589.03</ele>
  <time>2026-08-28T19:09:11Z</time>
  <course>11.4</course>
  <speed>0.0282842712474619</speed>
  <fix>3d</fix>
</trkpt>
<trkpt lat="40.0728424" lon="-105.2305755">
  <ele>1589.04</ele>
  <time>2026-08-28T19:09:11Z</time>
  <course>161.72</course>
  <speed>0.0</speed>
  <fix>3d</fix>
</trkpt>
<trkpt lat="40.0728422" lon="-105.2305753">
  <ele>1588.93</ele>
  <time>2026-08-28T19:09:11Z</time>
  <course>11.4</course>
  <speed>0.0282842712474619</speed>
  <fix>3d</fix>
</trkpt>
<trkpt lat="40.0728424" lon="-105.2305755">
  <ele>1588.94</ele>
  <time>2026-08-28T19:09:11Z</time>
  <course>156.73</course>
  <speed>0.0</speed>
  <fix>3d</fix>
</trkpt>
<trkpt lat="40.0728422" lon="-105.2305753">
  <ele>1588.83</ele>
  <time>2026-08-28T19:09:11Z</time>
  <course>11.4</course>
  <speed>0.0282842712474619</speed>
  <fix>3d</fix>
</trkpt>
<trkpt lat="40.0728424" lon="-105.2305755">
  <ele>1588.84</ele>
  <time>2026-08-28T19:09:11Z</time>
  <course>153.88</course>
  <speed>0.0</speed>
  <fix>3d</fix>
</trkpt>
<trkpt lat="40.0728422" lon="-105.2305753">
  <ele>1588.73</ele>
  <time>2026-08-28T19:09:11Z</time>
  <course>11.4</course>
  <speed>0.0282842712474619</speed>
  <fix>3d</fix>
</trkpt>
<trkpt lat="40.0728424" lon="-105.2305755">
  <ele>1588.74</ele>
  <time>2026-08-28T19:09:11Z</time>
  <course>151.24</course>
  <speed>0.0</speed>
  <fix>3d</fix>
</trkpt>
<trkpt lat="40.0728422" lon="-105.2305753">
  <ele>1588.62</ele>
  <time>2026-08-28T19:09:11Z</time>
  <course>11.39</course>
  <speed>0.0282842712474619</speed>
  <fix>3d</fix>
</trkpt>
<trkpt lat="40.0728424" lon="-105.2305755">
  <ele>1588.63</ele>
  <time>2026-08-28T19:09:11Z</time>
  <course>147.88</course>
  <speed>0.0</speed>
  <fix>3d</fix>
</trkpt>
<trkpt lat="40.0728422" lon="-105.2305753">
  <ele>1588.52</ele>
  <time>2026-08-28T19:09:11Z</time>
  <course>11.39</course>
  <speed>0.0282842712474619</speed>
  <fix>3d</fix>
</trkpt>
<trkpt lat="40.0728424" lon="-105.2305755">
  <ele>1588.54</ele>
  <time>2026-08-28T19:09:11Z</time>
  <course>143.35</course>
  <speed>0.0</speed>
  <fix>3d</fix>
</trkpt>
<trkpt lat="40.0728422" lon="-105.2305753">
  <ele>1588.42</ele>
  <time>2026-08-28T19:09:11Z</time>
  <course>11.39</course>
  <speed>0.0282842712474619</speed>
  <fix>3d</fix>
</trkpt>
<trkpt lat="40.0728424" lon="-105.2305755">
  <ele>1588.44</ele>
  <time>2026-08-28T19:09:11Z</time>
  <course>139.02</course>
  <speed>0.0</speed>
  <fix>3d</fix>
</trkpt>
<trkpt lat="40.0728422" lon="-105.2305753">
  <ele>1588.32</ele>
  <time>2026-08-28T19:09:11Z</time>
  <course>11.39</course>
  <speed>0.0282842712474619</speed>
  <fix>3d</fix>
</trkpt>
<trkpt lat="40.0728424" lon="-105.2305755">
  <ele>1588.34</ele>
  <time>2026-08-28T19:09:11Z</time>
  <course>136.73</course>
  <speed>0.0</speed>
  <fix>3d</fix>
</trkpt>
<trkpt lat="40.0728422" lon="-105.2305753">
  <ele>1588.22</ele>
  <time>2026-08-28T19:09:11Z</time>
  <course>11.39</course>
  <speed>0.0282842712474619</speed>
  <fix>3d</fix>
</trkpt>
<trkpt lat="40.0728423" lon="-105.2305755">
  <ele>1588.24</ele>
  <time>2026-08-28T19:09:11Z</time>
  <course>135.72</course>
  <speed>0.0</speed>
  <fix>3d</fix>
</trkpt>
<trkpt lat="40.0728422" lon="-105.2305753">
  <ele>1588.12</ele>
  <time>2026-08-28T19:09:11Z</time>
  <course>11.39</course>
  <speed>0.0282842712474619</speed>
  <fix>3d</fix>
</trkpt>
<trkpt lat="40.0728423" lon="-105.2305755">
  <ele>1588.13</ele>
  <time>2026-08-28T19:09:11Z</time>
  <course>134.78</course>
  <speed>0.0</speed>
  <fix>3d</fix>
</trkpt>
<trkpt lat="40.0728422" lon="-105.2305753">
  <ele>1588.03</ele>
  <time>2026-08-28T19:09:11Z</time>
  <course>11.39</course>
  <speed>0.0282842712474619</speed>
  <fix>3d</fix>
</trkpt>
<trkpt lat="40.0728423" lon="-105.2305755">
  <ele>1588.04</ele>
  <time>2026-08-28T19:09:11Z</time>
  <course>133.52</course>
  <speed>0.0</speed>
  <fix>3d</fix>
</trkpt>
<trkpt lat="40.0728422" lon="-105.2305753">
  <ele>1587.93</ele>
  <time>2026-08-28T19:09:11Z</time>
  <course>11.39</course>
  <speed>0.0282842712474619</speed>
  <fix>3d</fix>
</trkpt>
<trkpt lat="40.0728423" lon="-105.2305755">
  <ele>1587.94</ele>
  <time>2026-08-28T19:09:11Z</time>
  <course>132.13</course>
  <speed>0.0</speed>
  <fix>3d</fix>
</trkpt>
<trkpt lat="40.0728422" lon="-105.2305753">
  <ele>1587.83</ele>
  <time>2026-08-28T19:09:11Z</time>
  <course>11.39</course>
  <speed>0.0282842712474619</speed>
  <fix>3d</fix>
</trkpt>
<trkpt lat="40.0728423" lon="-105.2305755">
  <ele>1587.84</ele>
  <time>2026-08-28T19:09:11Z</time>
  <course>131.04</course>
  <speed>0.0</speed>
  <fix>3d</fix>
</trkpt>
<trkpt lat="40.0728422" lon="-105.2305753">
  <ele>1587.73</ele>
  <time>2026-08-28T19:09:11Z</time>
  <course>11.39</course>
  <speed>0.0282842712474619</speed>
  <fix>3d</fix>
</trkpt>
<trkpt lat="40.0728423" lon="-105.2305754">
  <ele>1587.74</ele>
  <time>2026-08-28T19:09:11Z</time>
  <course>129.77</course>
  <speed>0.0</speed>
  <fix>3d</fix>
</trkpt>
<trkpt lat="40.0728422" lon="-105.2305753">
  <ele>1587.63</ele>
  <time>2026-08-28T19:09:11Z</time>
  <course>11.39</course>
  <speed>0.0282842712474619</speed>
  <fix>3d</fix>
</trkpt>
<trkpt lat="40.0728423" lon="-105.2305753">
  <ele>1587.63</ele>
  <time>2026-08-28T19:09:11Z</time>
  <course>126.35</course>
  <speed>0.0</speed>
  <fix>3d</fix>
</trkpt>
<trkpt lat="40.0728422" lon="-105.2305753">
  <ele>1587.53</ele>
  <time>2026-08-28T19:09:11Z</time>
  <course>11.39</course>
  <speed>0.022360679774997897</speed>
  <fix>3d</fix>
</trkpt>
<trkpt lat="40.0728423" lon="-105.2305753">
  <ele>1587.54</ele>
  <time>2026-08-28T19:09:11Z</time>
  <course>120.34</course>
  <speed>0.0</speed>
  <fix>3d</fix>
</trkpt>
<trkpt lat="40.0728422" lon="-105.2305752">
  <ele>1587.43</ele>
  <time>2026-08-28T19:09:11Z</time>
  <course>11.39</course>
  <speed>0.022360679774997897</speed>
  <fix>3d</fix>
</trkpt>
<trkpt lat="40.0728423" lon="-105.2305753">
  <ele>1587.44</ele>
  <time>2026-08-28T19:09:11Z</time>
  <course>114.29</course>
  <speed>0.0</speed>
  <fix>3d</fix>
</trkpt>
<trkpt lat="40.0728422" lon="-105.2305752">
  <ele>1587.33</ele>
  <time>2026-08-28T19:09:11Z</time>
  <course>11.39</course>
  <speed>0.022360679774997897</speed>
  <fix>3d</fix>
</trkpt>
<trkpt lat="40.0728423" lon="-105.2305753">
  <ele>1587.34</ele>
  <time>2026-08-28T19:09:11Z</time>
  <course>109.74</course>
  <speed>0.0</speed>
  <fix>3d</fix>
</trkpt>
<trkpt lat="40.0728422" lon="-105.2305752">
  <ele>1587.22</ele>
  <time>2026-08-28T19:09:11Z</time>
  <course>11.39</course>
  <speed>0.01414213562373095</speed>
  <fix>3d</fix>
</trkpt>
<trkpt lat="40.0728423" lon="-105.2305753">
  <ele>1587.24</ele>
  <time>2026-08-28T19:09:11Z</time>
  <course>105.45</course>
  <speed>0.0</speed>
  <fix>3d</fix>
</trkpt>
<trkpt lat="40.0728422" lon="-105.2305752">
  <ele>1587.13</ele>
  <time>2026-08-28T19:09:11Z</time>
  <course>11.39</course>
  <speed>0.01414213562373095</speed>
  <fix>3d</fix>
</trkpt>
<trkpt lat="40.0728423" lon="-105.2305753">
  <ele>1587.13</ele>
  <time>2026-08-28T19:09:11Z</time>
  <course>100.09</course>
  <speed>0.0</speed>
  <fix>3d</fix>
</trkpt>
<trkpt lat="40.0728422" lon="-105.2305752">
  <ele>1587.03</ele>
  <time>2026-08-28T19:09:11Z</time>
  <course>11.39</course>
  <speed>0.01414213562373095</speed>
  <fix>3d</fix>
</trkpt>
<trkpt lat="40.0728423" lon="-105.2305753">
  <ele>1587.04</ele>
  <time>2026-08-28T19:09:11Z</time>
  <course>92.48</course>
  <speed>0.0</speed>
  <fix>3d</fix>
</trkpt>
<trkpt lat="40.0728422" lon="-105.2305752">
  <ele>1586.93</ele>
  <time>2026-08-28T19:09:11Z</time>
  <course>11.39</course>
  <speed>0.01414213562373095</speed>
  <fix>3d</fix>
</trkpt>
<trkpt lat="40.0728423" lon="-105.2305753">
  <ele>1586.94</ele>
  <time>2026-08-28T19:09:11Z</time>
  <course>76.96</course>
  <speed>0.0</speed>
  <fix>3d</fix>
</trkpt>
<trkpt lat="40.0728422" lon="-105.2305752">
  <ele>1586.82</ele>
  <time>2026-08-28T19:09:11Z</time>
  <course>11.39</course>
  <speed>0.01414213562373095</speed>
  <fix>3d</fix>
</trkpt>
<trkpt lat="40.0728423" lon="-105.2305753">
  <ele>1586.84</ele>
  <time>2026-08-28T19:09:11Z</time>
  <course>268.12</course>
  <speed>0.0</speed>
  <fix>3d</fix>
</trkpt>
<trkpt lat="40.0728422" lon="-105.2305752">
  <ele>1586.72</ele>
  <time>2026-08-28T19:09:11Z</time>
  <course>11.39</course>
  <speed>0.01414213562373095</speed>
  <fix>3d</fix>
</trkpt>
<trkpt lat="40.0728423" lon="-105.2305753">
  <ele>1586.74</ele>
  <time>2026-08-28T19:09:11Z</time>
  <course>268.08</course>
  <speed>0.0</speed>
  <fix>3d</fix>
</trkpt>
<trkpt lat="40.0728422" lon="-105.2305752">
  <ele>1586.62</ele>
  <time>2026-08-28T19:09:11Z</time>
  <course>11.39</course>
  <speed>0.01414213562373095</speed>
  <fix>3d</fix>
</trkpt>
<trkpt lat="40.0728423" lon="-105.2305753">
  <ele>1586.63</ele>
  <time>2026-08-28T19:09:11Z</time>
  <course>276.47</course>
  <speed>0.0</speed>
  <fix>3d</fix>
</trkpt>
<trkpt lat="40.0728422" lon="-105.2305752">
  <ele>1586.53</ele>
  <time>2026-08-28T19:09:11Z</time>
  <course>11.39</course>
  <speed>0.01414213562373095</speed>
  <fix>3d</fix>
</trkpt>
<trkpt lat="40.0728423" lon="-105.2305753">
  <ele>1586.54</ele>
  <time>2026-08-28T19:09:11Z</time>
  <course>284.62</course>
  <speed>0.0</speed>
  <fix>3d</fix>
</trkpt>
<trkpt lat="40.0728422" lon="-105.2305752">
  <ele>1586.43</ele>
  <time>2026-08-28T19:09:11Z</time>
  <course>11.39</course>
  <speed>0.01414213562373095</speed>
  <fix>3d</fix>
</trkpt>
<trkpt lat="40.0728423" lon="-105.2305753">
  <ele>1586.44</ele>
  <time>2026-08-28T19:09:11Z</time>
  <course>287.23</course>
  <speed>0.0</speed>
  <fix>3d</fix>
</trkpt>
<trkpt lat="40.0728422" lon="-105.2305752">
  <ele>1586.33</ele>
  <time>2026-08-28T19:09:11Z</time>
  <course>11.39</course>
  <speed>0.01414213562373095</speed>
  <fix>3d</fix>
</trkpt>
<trkpt lat="40.0728423" lon="-105.2305753">
  <ele>1586.34</ele>
  <time>2026-08-28T19:09:11Z</time>
  <course>282.28</course>
  <speed>0.0</speed>
  <fix>3d</fix>
</trkpt>
<trkpt lat="40.0728422" lon="-105.2305752">
  <ele>1586.23</ele>
  <time>2026-08-28T19:09:11Z</time>
  <course>11.39</course>
  <speed>0.01414213562373095</speed>
  <fix>3d</fix>
</trkpt>
<trkpt lat="40.0728423" lon="-105.2305753">
  <ele>1586.24</ele>
  <time>2026-08-28T19:09:11Z</time>
  <course>275.43</course>
  <speed>0.0</speed>
  <fix>3d</fix>
</trkpt>
<trkpt lat="40.0728422" lon="-105.2305752">
  <ele>1586.14</ele>
  <time>2026-08-28T19:09:11Z</time>
  <course>11.39</course>
  <speed>0.01414213562373095</speed>
  <fix>3d</fix>
</trkpt>
<trkpt lat="40.0728423" lon="-105.2305753">
  <ele>1586.13</ele>
  <time>2026-08-28T19:09:11Z</time>
  <course>272.84</course>
  <speed>0.0</speed>
  <fix>3d</fix>
</trkpt>
<trkpt lat="40.0728422" lon="-105.2305752">
  <ele>1586.16</ele>
  <time>2026-08-28T19:09:12Z</time>
  <course>11.39</course>
  <speed>0.0282842712474619</speed>
  <fix>3d</fix>
</trkpt>
<trkpt lat="40.0728423" lon="-105.2305753">
  <ele>1586.08</ele>
  <time>2026-08-28T19:09:12Z</time>
  <course>273.21</course>
  <speed>0.0</speed>
  <fix>3d</fix>
</trkpt>
<trkpt lat="40.0728422" lon="-105.2305752">
  <ele>1586.16</ele>
  <time>2026-08-28T19:09:12Z</time>
  <course>11.39</course>
  <speed>0.01414213562373095</speed>
  <fix>3d</fix>
</trkpt>
<trkpt lat="40.0728423" lon="-105.2305753">
  <ele>1586.08</ele>
  <time>2026-08-28T19:09:12Z</time>
  <course>89.43</course>
  <speed>0.0</speed>
  <fix>3d</fix>
</trkpt>
<trkpt lat="40.0728422" lon="-105.2305752">
  <ele>1586.16</ele>
  <time>2026-08-28T19:09:12Z</time>
  <course>11.38</course>
  <speed>0.01414213562373095</speed>
  <fix>3d</fix>
</trkpt>
<trkpt lat="40.0728423" lon="-105.2305753">
  <ele>1586.1</ele>
  <time>2026-08-28T19:09:12Z</time>
  <course>287.89</course>
  <speed>0.0</speed>
  <fix>3d</fix>
</trkpt>
<trkpt lat="40.0728422" lon="-105.2305752">
  <ele>1586.16</ele>
  <time>2026-08-28T19:09:12Z</time>
  <course>11.38</course>
  <speed>0.022360679774997897</speed>
  <fix>3d</fix>
</trkpt>
<trkpt lat="40.0728423" lon="-105.2305753">
  <ele>1586.09</ele>
  <time>2026-08-28T19:09:12Z</time>
  <course>273.28</course>
  <speed>0.0</speed>
  <fix>3d</fix>
</trkpt>
<trkpt lat="40.0728422" lon="-105.2305752">
  <ele>1586.16</ele>
  <time>2026-08-28T19:09:12Z</time>
  <course>11.38</course>
  <speed>0.022360679774997897</speed>
  <fix>3d</fix>
</trkpt>
<trkpt lat="40.0728423" lon="-105.2305753">
  <ele>1586.09</ele>
  <time>2026-08-28T19:09:12Z</time>
  <course>107.77</course>
  <speed>0.0</speed>
  <fix>3d</fix>
</trkpt>
<trkpt lat="40.0728422" lon="-105.2305752">
  <ele>1586.16</ele>
  <time>2026-08-28T19:09:12Z</time>
  <course>11.38</course>
  <speed>0.022360679774997897</speed>
  <fix>3d</fix>
</trkpt>
<trkpt lat="40.0728423" lon="-105.2305753">
  <ele>1586.09</ele>
  <time>2026-08-28T19:09:12Z</time>
  <course>102.52</course>
  <speed>0.0</speed>
  <fix>3d</fix>
</trkpt>
<trkpt lat="40.0728422" lon="-105.2305752">
  <ele>1586.16</ele>
  <time>2026-08-28T19:09:12Z</time>
  <course>11.37</course>
  <speed>0.01414213562373095</speed>
  <fix>3d</fix>
</trkpt>
<trkpt lat="40.0728423" lon="-105.2305753">
  <ele>1586.09</ele>
  <time>2026-08-28T19:09:12Z</time>
  <course>280.06</course>
  <speed>0.0</speed>
  <fix>3d</fix>
</trkpt>
<trkpt lat="40.0728422" lon="-105.2305752">
  <ele>1586.15</ele>
  <time>2026-08-28T19:09:12Z</time>
  <course>11.37</course>
  <speed>0.022360679774997897</speed>
  <fix>3d</fix>
</trkpt>
<trkpt lat="40.0728423" lon="-105.2305753">
  <ele>1586.09</ele>
  <time>2026-08-28T19:09:12Z</time>
  <course>279.08</course>
  <speed>0.0</speed>
  <fix>3d</fix>
</trkpt>
<trkpt lat="40.0728422" lon="-105.2305752">
  <ele>1586.15</ele>
  <time>2026-08-28T19:09:12Z</time>
  <course>11.37</course>
  <speed>0.022360679774997897</speed>
  <fix>3d</fix>
</trkpt>
<trkpt lat="40.0728423" lon="-105.2305753">
  <ele>1586.09</ele>
  <time>2026-08-28T19:09:12Z</time>
  <course>275.94</course>
  <speed>0.0</speed>
  <fix>3d</fix>
</trkpt>
<trkpt lat="40.0728422" lon="-105.2305752">
  <ele>1586.15</ele>
  <time>2026-08-28T19:09:12Z</time>
  <course>11.36</course>
  <speed>0.022360679774997897</speed>
  <fix>3d</fix>
</trkpt>
<trkpt lat="40.0728423" lon="-105.2305753">
  <ele>1586.09</ele>
  <time>2026-08-28T19:09:12Z</time>
  <course>212.16</course>
  <speed>0.0</speed>
  <fix>3d</fix>
</trkpt>
<trkpt lat="40.0728422" lon="-105.2305752">
  <ele>1586.15</ele>
  <time>2026-08-28T19:09:12Z</time>
  <course>11.36</course>
  <speed>0.022360679774997897</speed>
  <fix>3d</fix>
</trkpt>
<trkpt lat="40.0728423" lon="-105.2305753">
  <ele>1586.09</ele>
  <time>2026-08-28T19:09:12Z</time>
  <course>93.17</course>
  <speed>0.0</speed>
  <fix>3d</fix>
</trkpt>
<trkpt lat="40.0728422" lon="-105.2305752">
  <ele>1586.16</ele>
  <time>2026-08-28T19:09:12Z</time>
  <course>11.36</course>
  <speed>0.022360679774997897</speed>
  <fix>3d</fix>
</trkpt>
<trkpt lat="40.0728423" lon="-105.2305753">
  <ele>1586.09</ele>
  <time>2026-08-28T19:09:12Z</time>
  <course>90.37</course>
  <speed>0.0</speed>
  <fix>3d</fix>
</trkpt>
<trkpt lat="40.0728422" lon="-105.2305752">
  <ele>1586.15</ele>
  <time>2026-08-28T19:09:12Z</time>
  <course>11.35</course>
  <speed>0.022360679774997897</speed>
  <fix>3d</fix>
</trkpt>
<trkpt lat="40.0728423" lon="-105.2305753">
  <ele>1586.09</ele>
  <time>2026-08-28T19:09:12Z</time>
  <course>106.18</course>
  <speed>0.0</speed>
  <fix>3d</fix>
</trkpt>
<trkpt lat="40.0728422" lon="-105.2305752">
  <ele>1586.15</ele>
  <time>2026-08-28T19:09:12Z</time>
  <course>11.35</course>
  <speed>0.01414213562373095</speed>
  <fix>3d</fix>
</trkpt>
<trkpt lat="40.0728423" lon="-105.2305753">
  <ele>1586.09</ele>
  <time>2026-08-28T19:09:12Z</time>
  <course>238.97</course>
  <speed>0.0</speed>
  <fix>3d</fix>
</trkpt>
<trkpt lat="40.0728422" lon="-105.2305752">
  <ele>1586.16</ele>
  <time>2026-08-28T19:09:12Z</time>
  <course>11.35</course>
  <speed>0.022360679774997897</speed>
  <fix>3d</fix>
</trkpt>
<trkpt lat="40.0728423" lon="-105.2305753">
  <ele>1586.09</ele>
  <time>2026-08-28T19:09:12Z</time>
  <course>159.17</course>
  <speed>0.0</speed>
  <fix>3d</fix>
</trkpt>
<trkpt lat="40.0728422" lon="-105.2305752">
  <ele>1586.16</ele>
  <time>2026-08-28T19:09:12Z</time>
  <course>11.34</course>
  <speed>0.022360679774997897</speed>
  <fix>3d</fix>
</trkpt>
<trkpt lat="40.0728423" lon="-105.2305753">
  <ele>1586.09</ele>
  <time>2026-08-28T19:09:12Z</time>
  <course>131.66</course>
  <speed>0.0</speed>
  <fix>3d</fix>
</trkpt>
<trkpt lat="40.0728422" lon="-105.2305752">
  <ele>1586.16</ele>
  <time>2026-08-28T19:09:12Z</time>
  <course>11.34</course>
  <speed>0.022360679774997897</speed>
  <fix>3d</fix>
</trkpt>
<trkpt lat="40.0728423" lon="-105.2305753">
  <ele>1586.09</ele>
  <time>2026-08-28T19:09:12Z</time>
  <course>138.34</course>
  <speed>0.0</speed>
  <fix>3d</fix>
</trkpt>
<trkpt lat="40.0728422" lon="-105.2305752">
  <ele>1586.16</ele>
  <time>2026-08-28T19:09:12Z</time>
  <course>11.34</course>
  <speed>0.022360679774997897</speed>
  <fix>3d</fix>
</trkpt>
<trkpt lat="40.0728423" lon="-105.2305753">
  <ele>1586.09</ele>
  <time>2026-08-28T19:09:12Z</time>
  <course>294.27</course>
  <speed>0.0</speed>
  <fix>3d</fix>
</trkpt>
<trkpt lat="40.0728422" lon="-105.2305752">
  <ele>1586.16</ele>
  <time>2026-08-28T19:09:12Z</time>
  <course>11.33</course>
  <speed>0.01414213562373095</speed>
  <fix>3d</fix>
</trkpt>
<trkpt lat="40.0728423" lon="-105.2305753">
  <ele>1586.09</ele>
  <time>2026-08-28T19:09:12Z</time>
  <course>307.7</course>
  <speed>0.0</speed>
  <fix>3d</fix>
</trkpt>
<trkpt lat="40.0728422" lon="-105.2305752">
  <ele>1586.16</ele>
  <time>2026-08-28T19:09:12Z</time>
  <course>11.33</course>
  <speed>0.01414213562373095</speed>
  <fix>3d</fix>
</trkpt>
<trkpt lat="40.0728423" lon="-105.2305753">
  <ele>1586.09</ele>
  <time>2026-08-28T19:09:12Z</time>
  <course>308.86</course>
  <speed>0.0</speed>
  <fix>3d</fix>
</trkpt>
<trkpt lat="40.0728422" lon="-105.2305752">
  <ele>1586.17</ele>
  <time>2026-08-28T19:09:12Z</time>
  <course>11.32</course>
  <speed>0.022360679774997897</speed>
  <fix>3d</fix>
</trkpt>
<trkpt lat="40.0728423" lon="-105.2305753">
  <ele>1586.09</ele>
  <time>2026-08-28T19:09:12Z</time>
  <course>303.19</course>
  <speed>0.0</speed>
  <fix>3d</fix>
</trkpt>
<trkpt lat="40.0728422" lon="-105.2305752">
  <ele>1586.17</ele>
  <time>2026-08-28T19:09:12Z</time>
  <course>11.32</course>
  <speed>0.01414213562373095</speed>
  <fix>3d</fix>
</trkpt>
<trkpt lat="40.0728423" lon="-105.2305753">
  <ele>1586.09</ele>
  <time>2026-08-28T19:09:12Z</time>
  <course>175.67</course>
  <speed>0.0</speed>
  <fix>3d</fix>
</trkpt>
<trkpt lat="40.0728422" lon="-105.2305752">
  <ele>1586.17</ele>
  <time>2026-08-28T19:09:12Z</time>
  <course>11.32</course>
  <speed>0.01414213562373095</speed>
  <fix>3d</fix>
</trkpt>
<trkpt lat="40.0728423" lon="-105.2305753">
  <ele>1586.09</ele>
  <time>2026-08-28T19:09:12Z</time>
  <course>271.8</course>
  <speed>0.0</speed>
  <fix>3d</fix>
</trkpt>
<trkpt lat="40.0728422" lon="-105.2305752">
  <ele>1586.17</ele>
  <time>2026-08-28T19:09:12Z</time>
  <course>11.31</course>
  <speed>0.01414213562373095</speed>
  <fix>3d</fix>
</trkpt>
<trkpt lat="40.0728423" lon="-105.2305753">
  <ele>1586.09</ele>
  <time>2026-08-28T19:09:12Z</time>
  <course>284.55</course>
  <speed>0.0</speed>
  <fix>3d</fix>
</trkpt>
<trkpt lat="40.0728422" lon="-105.2305752">
  <ele>1586.17</ele>
  <time>2026-08-28T19:09:12Z</time>
  <course>11.31</course>
  <speed>0.01414213562373095</speed>
  <fix>3d</fix>
</trkpt>
<trkpt lat="40.0728423" lon="-105.2305753">
  <ele>1586.09</ele>
  <time>2026-08-28T19:09:12Z</time>
  <course>279.05</course>
  <speed>0.0</speed>
  <fix>3d</fix>
</trkpt>
<trkpt lat="40.0728422" lon="-105.2305752">
  <ele>1586.17</ele>
  <time>2026-08-28T19:09:12Z</time>
  <course>11.3</course>
  <speed>0.01414213562373095</speed>
  <fix>3d</fix>
</trkpt>
<trkpt lat="40.0728423" lon="-105.2305753">
  <ele>1586.09</ele>
  <time>2026-08-28T19:09:12Z</time>
  <course>278.11</course>
  <speed>0.0</speed>
  <fix>3d</fix>
</trkpt>
<trkpt lat="40.0728422" lon="-105.2305752">
  <ele>1586.18</ele>
  <time>2026-08-28T19:09:12Z</time>
  <course>11.3</course>
  <speed>0.01414213562373095</speed>
  <fix>3d</fix>
</trkpt>
<trkpt lat="40.0728423" lon="-105.2305753">
  <ele>1586.09</ele>
  <time>2026-08-28T19:09:12Z</time>
  <course>279.12</course>
  <speed>0.0</speed>
  <fix>3d</fix>
</trkpt>
<trkpt lat="40.0728422" lon="-105.2305752">
  <ele>1586.18</ele>
  <time>2026-08-28T19:09:12Z</time>
  <course>11.3</course>
  <speed>0.01414213562373095</speed>
  <fix>3d</fix>
</trkpt>
<trkpt lat="40.0728423" lon="-105.2305753">
  <ele>1586.09</ele>
  <time>2026-08-28T19:09:12Z</time>
  <course>279.12</course>
  <speed>0.0</speed>
  <fix>3d</fix>
</trkpt>
<trkpt lat="40.0728422" lon="-105.2305752">
  <ele>1586.18</ele>
  <time>2026-08-28T19:09:12Z</time>
  <course>11.29</course>
  <speed>0.01414213562373095</speed>
  <fix>3d</fix>
</trkpt>
<trkpt lat="40.0728423" lon="-105.2305753">
  <ele>1586.09</ele>
  <time>2026-08-28T19:09:12Z</time>
  <course>278.99</course>
  <speed>0.0</speed>
  <fix>3d</fix>
</trkpt>
<trkpt lat="40.0728422" lon="-105.2305752">
  <ele>1586.18</ele>
  <time>2026-08-28T19:09:12Z</time>
  <course>11.29</course>
  <speed>0.01414213562373095</speed>
  <fix>3d</fix>
</trkpt>
<trkpt lat="40.0728423" lon="-105.2305753">
  <ele>1586.09</ele>
  <time>2026-08-28T19:09:12Z</time>
  <course>279.0</course>
  <speed>0.0</speed>
  <fix>3d</fix>
</trkpt>
<trkpt lat="40.0728422" lon="-105.2305752">
  <ele>1586.18</ele>
  <time>2026-08-28T19:09:12Z</time>
  <course>11.28</course>
  <speed>0.01414213562373095</speed>
  <fix>3d</fix>
</trkpt>
<trkpt lat="40.0728423" lon="-105.2305753">
  <ele>1586.09</ele>
  <time>2026-08-28T19:09:12Z</time>
  <course>279.02</course>
  <speed>0.0</speed>
  <fix>3d</fix>
</trkpt>
<trkpt lat="40.0728422" lon="-105.2305752">
  <ele>1586.18</ele>
  <time>2026-08-28T19:09:12Z</time>
  <course>11.28</course>
  <speed>0.01414213562373095</speed>
  <fix>3d</fix>
</trkpt>
<trkpt lat="40.0728423" lon="-105.2305753">
  <ele>1586.09</ele>
  <time>2026-08-28T19:09:12Z</time>
  <course>279.01</course>
  <speed>0.0</speed>
  <fix>3d</fix>
</trkpt>
<trkpt lat="40.0728422" lon="-105.2305752">
  <ele>1586.18</ele>
  <time>2026-08-28T19:09:12Z</time>
  <course>11.27</course>
  <speed>0.01414213562373095</speed>
  <fix>3d</fix>
</trkpt>
<trkpt lat="40.0728423" lon="-105.2305753">
  <ele>1586.09</ele>
  <time>2026-08-28T19:09:12Z</time>
  <course>279.01</course>
  <speed>0.0</speed>
  <fix>3d</fix>
</trkpt>
<trkpt lat="40.0728422" lon="-105.2305752">
  <ele>1586.18</ele>
  <time>2026-08-28T19:09:12Z</time>
  <course>11.27</course>
  <speed>0.01414213562373095</speed>
  <fix>3d</fix>
</trkpt>
<trkpt lat="40.0728423" lon="-105.2305753">
  <ele>1586.09</ele>
  <time>2026-08-28T19:09:12Z</time>
  <course>279.01</course>
  <speed>0.0</speed>
  <fix>3d</fix>
</trkpt>
<trkpt lat="40.0728422" lon="-105.2305752">
  <ele>1586.18</ele>
  <time>2026-08-28T19:09:12Z</time>
  <course>11.27</course>
  <speed>0.01414213562373095</speed>
  <fix>3d</fix>
</trkpt>
<trkpt lat="40.0728423" lon="-105.2305753">
  <ele>1586.09</ele>
  <time>2026-08-28T19:09:12Z</time>
  <course>279.01</course>
  <speed>0.0</speed>
  <fix>3d</fix>
</trkpt>
<trkpt lat="40.0728422" lon="-105.2305752">
  <ele>1586.18</ele>
  <time>2026-08-28T19:09:12Z</time>
  <course>11.26</course>
  <speed>0.01414213562373095</speed>
  <fix>3d</fix>
</trkpt>
<trkpt lat="40.0728423" lon="-105.2305753">
  <ele>1586.09</ele>
  <time>2026-08-28T19:09:12Z</time>
  <course>279.01</course>
  <speed>0.0</speed>
  <fix>3d</fix>
</trkpt>
<trkpt lat="40.0728422" lon="-105.2305752">
  <ele>1586.18</ele>
  <time>2026-08-28T19:09:12Z</time>
  <course>11.26</course>
  <speed>0.01414213562373095</speed>
  <fix>3d</fix>
</trkpt>
<trkpt lat="40.0728423" lon="-105.2305753">
  <ele>1586.09</ele>
  <time>2026-08-28T19:09:12Z</time>
  <course>279.01</course>
  <speed>0.0</speed>
  <fix>3d</fix>
</trkpt>
<trkpt lat="40.0728422" lon="-105.2305752">
  <ele>1586.18</ele>
  <time>2026-08-28T19:09:12Z</time>
  <course>11.25</course>
  <speed>0.01414213562373095</speed>
  <fix>3d</fix>
</trkpt>
<trkpt lat="40.0728423" lon="-105.2305753">
  <ele>1586.09</ele>
  <time>2026-08-28T19:09:12Z</time>
  <course>279.01</course>
  <speed>0.0</speed>
  <fix>3d</fix>
</trkpt>
<trkpt lat="40.0728422" lon="-105.2305752">
  <ele>1586.18</ele>
  <time>2026-08-28T19:09:12Z</time>
  <course>11.25</course>
  <speed>0.01414213562373095</speed>
  <fix>3d</fix>
</trkpt>
<trkpt lat="40.0728423" lon="-105.2305753">
  <ele>1586.09</ele>
  <time>2026-08-28T19:09:12Z</time>
  <course>279.01</course>
  <speed>0.0</speed>
  <fix>3d</fix>
</trkpt>
<trkpt lat="40.0728422" lon="-105.2305752">
  <ele>1586.18</ele>
  <time>2026-08-28T19:09:12Z</time>
  <course>11.24</course>
  <speed>0.01414213562373095</speed>
  <fix>3d</fix>
</trkpt>
<trkpt lat="40.0728423" lon="-105.2305753">
  <ele>1586.09</ele>
  <time>2026-08-28T19:09:12Z</time>
  <course>279.01</course>
  <speed>0.0</speed>
  <fix>3d</fix>
</trkpt>
<trkpt lat="40.0728422" lon="-105.2305752">
  <ele>1586.18</ele>
  <time>2026-08-28T19:09:12Z</time>
  <course>11.24</course>
  <speed>0.01414213562373095</speed>
  <fix>3d</fix>
</trkpt>
<trkpt lat="40.0728423" lon="-105.2305753">
  <ele>1586.09</ele>
  <time>2026-08-28T19:09:12Z</time>
  <course>279.01</course>
  <speed>0.0</speed>
  <fix>3d</fix>
</trkpt>
<trkpt lat="40.0728422" lon="-105.2305752">
  <ele>1586.18</ele>
  <time>2026-08-28T19:09:12Z</time>
  <course>11.23</course>
  <speed>0.01414213562373095</speed>
  <fix>3d</fix>
</trkpt>
<trkpt lat="40.0728423" lon="-105.2305753">
  <ele>1586.09</ele>
  <time>2026-08-28T19:09:12Z</time>
  <course>279.01</course>
  <speed>0.0</speed>
  <fix>3d</fix>
</trkpt>
<trkpt lat="40.0728422" lon="-105.2305752">
  <ele>1586.18</ele>
  <time>2026-08-28T19:09:12Z</time>
  <course>11.23</course>
  <speed>0.01414213562373095</speed>
  <fix>3d</fix>
</trkpt>
<trkpt lat="40.0728423" lon="-105.2305753">
  <ele>1586.09</ele>
  <time>2026-08-28T19:09:12Z</time>
  <course>57.35</course>
  <speed>0.0</speed>
  <fix>3d</fix>
</trkpt>
<trkpt lat="40.0728422" lon="-105.2305752">
  <ele>1586.18</ele>
  <time>2026-08-28T19:09:12Z</time>
  <course>11.22</course>
  <speed>0.01414213562373095</speed>
  <fix>3d</fix>
</trkpt>
<trkpt lat="40.0728423" lon="-105.2305753">
  <ele>1586.09</ele>
  <time>2026-08-28T19:09:12Z</time>
  <course>63.18</course>
  <speed>0.0</speed>
  <fix>3d</fix>
</trkpt>
<trkpt lat="40.0728422" lon="-105.2305752">
  <ele>1586.18</ele>
  <time>2026-08-28T19:09:12Z</time>
  <course>11.22</course>
  <speed>0.01414213562373095</speed>
  <fix>3d</fix>
</trkpt>
<trkpt lat="40.0728423" lon="-105.2305753">
  <ele>1586.09</ele>
  <time>2026-08-28T19:09:12Z</time>
  <course>60.14</course>
  <speed>0.0</speed>
  <fix>3d</fix>
</trkpt>
<trkpt lat="40.0728422" lon="-105.2305752">
  <ele>1586.19</ele>
  <time>2026-08-28T19:09:12Z</time>
  <course>11.21</course>
  <speed>0.01414213562373095</speed>
  <fix>3d</fix>
</trkpt>
<trkpt lat="40.0728423" lon="-105.2305753">
  <ele>1586.09</ele>
  <time>2026-08-28T19:09:12Z</time>
  <course>264.67</course>
  <speed>0.0</speed>
  <fix>3d</fix>
</trkpt>
<trkpt lat="40.0728422" lon="-105.2305752">
  <ele>1586.18</ele>
  <time>2026-08-28T19:09:12Z</time>
  <course>11.21</course>
  <speed>0.01414213562373095</speed>
  <fix>3d</fix>
</trkpt>
<trkpt lat="40.0728423" lon="-105.2305753">
  <ele>1586.09</ele>
  <time>2026-08-28T19:09:12Z</time>
  <course>264.73</course>
  <speed>0.0</speed>
  <fix>3d</fix>
</trkpt>
<trkpt lat="40.0728422" lon="-105.2305752">
  <ele>1586.18</ele>
  <time>2026-08-28T19:09:12Z</time>
  <course>11.2</course>
  <speed>0.01414213562373095</speed>
  <fix>3d</fix>
</trkpt>
<trkpt lat="40.0728423" lon="-105.2305753">
  <ele>1586.09</ele>
  <time>2026-08-28T19:09:12Z</time>
  <course>250.11</course>
  <speed>0.0</speed>
  <fix>3d</fix>
</trkpt>
<trkpt lat="40.0728422" lon="-105.2305752">
  <ele>1586.18</ele>
  <time>2026-08-28T19:09:12Z</time>
  <course>11.2</course>
  <speed>0.01414213562373095</speed>
  <fix>3d</fix>
</trkpt>
<trkpt lat="40.0728423" lon="-105.2305753">
  <ele>1586.09</ele>
  <time>2026-08-28T19:09:12Z</time>
  <course>249.79</course>
  <speed>0.0</speed>
  <fix>3d</fix>
</trkpt>
<trkpt lat="40.0728422" lon="-105.2305752">
  <ele>1586.18</ele>
  <time>2026-08-28T19:09:12Z</time>
  <course>11.19</course>
  <speed>0.01414213562373095</speed>
  <fix>3d</fix>
</trkpt>
<trkpt lat="40.0728423" lon="-105.2305753">
  <ele>1586.09</ele>
  <time>2026-08-28T19:09:12Z</time>
  <course>276.61</course>
  <speed>0.0</speed>
  <fix>3d</fix>
</trkpt>
<trkpt lat="40.0728422" lon="-105.2305752">
  <ele>1586.18</ele>
  <time>2026-08-28T19:09:12Z</time>
  <course>11.19</course>
  <speed>0.01414213562373095</speed>
  <fix>3d</fix>
</trkpt>
<trkpt lat="40.0728423" lon="-105.2305753">
  <ele>1586.09</ele>
  <time>2026-08-28T19:09:12Z</time>
  <course>357.0</course>
  <speed>0.0</speed>
  <fix>3d</fix>
</trkpt>
<trkpt lat="40.0728422" lon="-105.2305752">
  <ele>1586.18</ele>
  <time>2026-08-28T19:09:12Z</time>
  <course>11.18</course>
  <speed>0.01414213562373095</speed>
  <fix>3d</fix>
</trkpt>
<trkpt lat="40.0728423" lon="-105.2305753">
  <ele>1586.09</ele>
  <time>2026-08-28T19:09:12Z</time>
  <course>275.69</course>
  <speed>0.0</speed>
  <fix>3d</fix>
</trkpt>
<trkpt lat="40.0728422" lon="-105.2305752">
  <ele>1586.18</ele>
  <time>2026-08-28T19:09:12Z</time>
  <course>11.18</course>
  <speed>0.01414213562373095</speed>
  <fix>3d</fix>
</trkpt>
<trkpt lat="40.0728423" lon="-105.2305753">
  <ele>1586.09</ele>
  <time>2026-08-28T19:09:12Z</time>
  <course>275.5</course>
  <speed>0.0</speed>
  <fix>3d</fix>
</trkpt>
<trkpt lat="40.0728422" lon="-105.2305752">
  <ele>1586.18</ele>
  <time>2026-08-28T19:09:12Z</time>
  <course>11.17</course>
  <speed>0.01414213562373095</speed>
  <fix>3d</fix>
</trkpt>
<trkpt lat="40.0728423" lon="-105.2305753">
  <ele>1586.09</ele>
  <time>2026-08-28T19:09:12Z</time>
  <course>279.99</course>
  <speed>0.0</speed>
  <fix>3d</fix>
</trkpt>
<trkpt lat="40.0728422" lon="-105.2305752">
  <ele>1586.18</ele>
  <time>2026-08-28T19:09:12Z</time>
  <course>11.17</course>
  <speed>0.01414213562373095</speed>
  <fix>3d</fix>
</trkpt>
<trkpt lat="40.0728423" lon="-105.2305753">
  <ele>1586.09</ele>
  <time>2026-08-28T19:09:12Z</time>
  <course>279.43</course>
  <speed>0.0</speed>
  <fix>3d</fix>
</trkpt>
<trkpt lat="40.0728422" lon="-105.2305752">
  <ele>1586.18</ele>
  <time>2026-08-28T19:09:12Z</time>
  <course>11.16</course>
  <speed>0.01414213562373095</speed>
  <fix>3d</fix>
</trkpt>
<trkpt lat="40.0728423" lon="-105.2305753">
  <ele>1586.09</ele>
  <time>2026-08-28T19:09:12Z</time>
  <course>278.84</course>
  <speed>0.0</speed>
  <fix>3d</fix>
</trkpt>
<trkpt lat="40.0728422" lon="-105.2305752">
  <ele>1586.18</ele>
  <time>2026-08-28T19:09:12Z</time>
  <course>11.16</course>
  <speed>0.01414213562373095</speed>
  <fix>3d</fix>
</trkpt>
<trkpt lat="40.0728423" lon="-105.2305753">
  <ele>1586.09</ele>
  <time>2026-08-28T19:09:12Z</time>
  <course>278.98</course>
  <speed>0.0</speed>
  <fix>3d</fix>
</trkpt>
<trkpt lat="40.0728422" lon="-105.2305752">
  <ele>1586.18</ele>
  <time>2026-08-28T19:09:12Z</time>
  <course>11.15</course>
  <speed>0.01414213562373095</speed>
  <fix>3d</fix>
</trkpt>
<trkpt lat="40.0728423" lon="-105.2305753">
  <ele>1586.09</ele>
  <time>2026-08-28T19:09:12Z</time>
  <course>279.04</course>
  <speed>0.0</speed>
  <fix>3d</fix>
</trkpt>
<trkpt lat="40.0728422" lon="-105.2305752">
  <ele>1586.18</ele>
  <time>2026-08-28T19:09:12Z</time>
  <course>11.15</course>
  <speed>0.01414213562373095</speed>
  <fix>3d</fix>
</trkpt>
<trkpt lat="40.0728423" lon="-105.2305753">
  <ele>1586.09</ele>
  <time>2026-08-28T19:09:12Z</time>
  <course>279.02</course>
  <speed>0.0</speed>
  <fix>3d</fix>
</trkpt>
<trkpt lat="40.0728422" lon="-105.2305752">
  <ele>1586.19</ele>
  <time>2026-08-28T19:09:12Z</time>
  <course>11.21</course>
  <speed>0.01414213562373095</speed>
  <fix>3d</fix>
</trkpt>
<trkpt lat="40.0728423" lon="-105.2305753">
  <ele>1586.09</ele>
  <time>2026-08-28T19:09:12Z</time>
  <course>291.02</course>
  <speed>0.0</speed>
  <fix>3d</fix>
</trkpt>
<trkpt lat="40.0728422" lon="-105.2305752">
  <ele>1586.19</ele>
  <time>2026-08-28T19:09:12Z</time>
  <course>11.58</course>
  <speed>0.01414213562373095</speed>
  <fix>3d</fix>
</trkpt>
<trkpt lat="40.0728423" lon="-105.2305753">
  <ele>1586.09</ele>
  <time>2026-08-28T19:09:12Z</time>
  <course>285.06</course>
  <speed>0.0</speed>
  <fix>3d</fix>
</trkpt>
<trkpt lat="40.0728422" lon="-105.2305752">
  <ele>1586.2</ele>
  <time>2026-08-28T19:09:12Z</time>
  <course>11.99</course>
  <speed>0.01414213562373095</speed>
  <fix>3d</fix>
</trkpt>
<trkpt lat="40.0728423" lon="-105.2305753">
  <ele>1586.09</ele>
  <time>2026-08-28T19:09:12Z</time>
  <course>272.73</course>
  <speed>0.0</speed>
  <fix>3d</fix>
</trkpt>
<trkpt lat="40.0728422" lon="-105.2305752">
  <ele>1586.2</ele>
  <time>2026-08-28T19:09:12Z</time>
  <course>12.33</course>
  <speed>0.01414213562373095</speed>
  <fix>3d</fix>
</trkpt>
<trkpt lat="39.6562421" lon="-104.1365912">
  <ele>1569.6</ele>
  <time>2026-08-28T19:09:13Z</time>
  <course>14.17</course>
  <speed>0.0</speed>
  <fix>3d</fix>
</trkpt>
<trkpt lat="40.072842" lon="-105.230575">
  <ele>1586.09</ele>
  <time>2026-08-28T19:09:13Z</time>
  <course>2.03</course>
  <speed>0.0</speed>
  <fix>3d</fix>
</trkpt>
<trkpt lat="40.072842" lon="-105.230575">
  <ele>1586.09</ele>
  <time>2026-08-28T19:09:13Z</time>
  <course>344.04</course>
  <speed>0.0</speed>
  <fix>3d</fix>
</trkpt>
<trkpt lat="40.072842" lon="-105.230575">
  <ele>1586.09</ele>
  <time>2026-08-28T19:09:13Z</time>
  <course>2.44</course>
  <speed>0.0</speed>
  <fix>3d</fix>
</trkpt>
<trkpt lat="40.072842" lon="-105.230575">
  <ele>1586.09</ele>
  <time>2026-08-28T19:09:13Z</time>
  <course>236.53</course>
  <speed>0.0</speed>
  <fix>3d</fix>
</trkpt>
<trkpt lat="40.072842" lon="-105.230575">
  <ele>1586.09</ele>
  <time>2026-08-28T19:09:13Z</time>
  <course>3.19</course>
  <speed>0.0</speed>
  <fix>3d</fix>
</trkpt>
<trkpt lat="40.072842" lon="-105.230575">
  <ele>1586.09</ele>
  <time>2026-08-28T19:09:13Z</time>
  <course>181.85</course>
  <speed>0.0</speed>
  <fix>3d</fix>
</trkpt>
<trkpt lat="40.072842" lon="-105.230575">
  <ele>1586.09</ele>
  <time>2026-08-28T19:09:13Z</time>
  <course>3.87</course>
  <speed>0.0</speed>
  <fix>3d</fix>
</trkpt>
<trkpt lat="40.072842" lon="-105.230575">
  <ele>1586.09</ele>
  <time>2026-08-28T19:09:13Z</time>
  <course>38.5</course>
  <speed>0.0</speed>
  <fix>3d</fix>
</trkpt>
<trkpt lat="40.072842" lon="-105.230575">
  <ele>1586.09</ele>
  <time>2026-08-28T19:09:13Z</time>
  <course>4.49</course>
  <speed>0.0</speed>
  <fix>3d</fix>
</trkpt>
<trkpt lat="40.072842" lon="-105.230575">
  <ele>1586.09</ele>
  <time>2026-08-28T19:09:13Z</time>
  <course>341.08</course>
  <speed>0.0</speed>
  <fix>3d</fix>
</trkpt>
<trkpt lat="40.072842" lon="-105.230575">
  <ele>1586.09</ele>
  <time>2026-08-28T19:09:13Z</time>
  <course>5.09</course>
  <speed>0.0</speed>
  <fix>3d</fix>
</trkpt>
<trkpt lat="40.072842" lon="-105.230575">
  <ele>1586.09</ele>
  <time>2026-08-28T19:09:13Z</time>
  <course>79.87</course>
  <speed>0.0</speed>
  <fix>3d</fix>
</trkpt>
<trkpt lat="40.072842" lon="-105.230575">
  <ele>1586.09</ele>
  <time>2026-08-28T19:09:13Z</time>
  <course>5.65</course>
  <speed>0.0</speed>
  <fix>3d</fix>
</trkpt>
<trkpt lat="40.072842" lon="-105.230575">
  <ele>1586.09</ele>
  <time>2026-08-28T19:09:13Z</time>
  <course>78.75</course>
  <speed>0.0</speed>
  <fix>3d</fix>
</trkpt>
<trkpt lat="40.072842" lon="-105.230575">
  <ele>1586.09</ele>
  <time>2026-08-28T19:09:13Z</time>
  <course>6.17</course>
  <speed>0.0</speed>
  <fix>3d</fix>
</trkpt>
<trkpt lat="40.072842" lon="-105.230575">
  <ele>1586.09</ele>
  <time>2026-08-28T19:09:13Z</time>
  <course>198.3</course>
  <speed>0.0</speed>
  <fix>3d</fix>
</trkpt>
<trkpt lat="40.072842" lon="-105.230575">
  <ele>1586.09</ele>
  <time>2026-08-28T19:09:13Z</time>
  <course>6.66</course>
  <speed>0.0</speed>
  <fix>3d</fix>
</trkpt>
<trkpt lat="40.072842" lon="-105.230575">
  <ele>1586.09</ele>
  <time>2026-08-28T19:09:13Z</time>
  <course>208.9</course>
  <speed>0.0</speed>
  <fix>3d</fix>
</trkpt>
<trkpt lat="40.072842" lon="-105.230575">
  <ele>1586.09</ele>
  <time>2026-08-28T19:09:13Z</time>
  <course>7.11</course>
  <speed>0.0</speed>
  <fix>3d</fix>
</trkpt>
<trkpt lat="40.072842" lon="-105.230575">
  <ele>1586.09</ele>
  <time>2026-08-28T19:09:13Z</time>
  <course>59.22</course>
  <speed>0.0</speed>
  <fix>3d</fix>
</trkpt>
<trkpt lat="40.072842" lon="-105.230575">
  <ele>1586.09</ele>
  <time>2026-08-28T19:09:13Z</time>
  <course>7.54</course>
  <speed>0.0</speed>
  <fix>3d</fix>
</trkpt>
<trkpt lat="40.072842" lon="-105.230575">
  <ele>1586.09</ele>
  <time>2026-08-28T19:09:13Z</time>
  <course>78.2</course>
  <speed>0.0</speed>
  <fix>3d</fix>
</trkpt>
<trkpt lat="40.072842" lon="-105.230575">
  <ele>1586.09</ele>
  <time>2026-08-28T19:09:13Z</time>
  <course>7.93</course>
  <speed>0.0</speed>
  <fix>3d</fix>
</trkpt>
<trkpt lat="40.072842" lon="-105.230575">
  <ele>1586.09</ele>
  <time>2026-08-28T19:09:13Z</time>
  <course>275.97</course>
  <speed>0.0</speed>
  <fix>3d</fix>
</trkpt>
<trkpt lat="40.072842" lon="-105.230575">
  <ele>1586.09</ele>
  <time>2026-08-28T19:09:13Z</time>
  <course>8.29</course>
  <speed>0.0</speed>
  <fix>3d</fix>
</trkpt>
<trkpt lat="40.072842" lon="-105.230575">
  <ele>1586.09</ele>
  <time>2026-08-28T19:09:13Z</time>
  <course>272.6</course>
  <speed>0.0</speed>
  <fix>3d</fix>
</trkpt>
<trkpt lat="40.072842" lon="-105.230575">
  <ele>1586.09</ele>
  <time>2026-08-28T19:09:13Z</time>
  <course>8.63</course>
  <speed>0.0</speed>
  <fix>3d</fix>
</trkpt>
<trkpt lat="40.072842" lon="-105.230575">
  <ele>1586.09</ele>
  <time>2026-08-28T19:09:13Z</time>
  <course>135.8</course>
  <speed>0.0</speed>
  <fix>3d</fix>
</trkpt>
<trkpt lat="40.072842" lon="-105.230575">
  <ele>1586.09</ele>
  <time>2026-08-28T19:09:13Z</time>
  <course>8.94</course>
  <speed>0.0</speed>
  <fix>3d</fix>
</trkpt>
<trkpt lat="40.072842" lon="-105.230575">
  <ele>1586.09</ele>
  <time>2026-08-28T19:09:13Z</time>
  <course>4.81</course>
  <speed>0.0</speed>
  <fix>3d</fix>
</trkpt>
<trkpt lat="40.072842" lon="-105.230575">
  <ele>1586.09</ele>
  <time>2026-08-28T19:09:13Z</time>
  <course>9.23</course>
  <speed>0.0</speed>
  <fix>3d</fix>
</trkpt>
<trkpt lat="40.072842" lon="-105.230575">
  <ele>1586.09</ele>
  <time>2026-08-28T19:09:13Z</time>
  <course>333.21</course>
  <speed>0.0</speed>
  <fix>3d</fix>
</trkpt>
<trkpt lat="40.072842" lon="-105.230575">
  <ele>1586.09</ele>
  <time>2026-08-28T19:09:13Z</time>
  <course>9.49</course>
  <speed>0.0</speed>
  <fix>3d</fix>
</trkpt>
<trkpt lat="40.072842" lon="-105.230575">
  <ele>1586.09</ele>
  <time>2026-08-28T19:09:13Z</time>
  <course>207.41</course>
  <speed>0.0</speed>
  <fix>3d</fix>
</trkpt>
<trkpt lat="40.072842" lon="-105.230575">
  <ele>1586.09</ele>
  <time>2026-08-28T19:09:13Z</time>
  <course>9.73</course>
  <speed>0.0</speed>
  <fix>3d</fix>
</trkpt>
<trkpt lat="40.072842" lon="-105.230575">
  <ele>1586.09</ele>
  <time>2026-08-28T19:09:13Z</time>
  <course>250.02</course>
  <speed>0.0</speed>
  <fix>3d</fix>
</trkpt>
<trkpt lat="40.072842" lon="-105.230575">
  <ele>1586.09</ele>
  <time>2026-08-28T19:09:13Z</time>
  <course>9.95</course>
  <speed>0.0</speed>
  <fix>3d</fix>
</trkpt>
<trkpt lat="40.072842" lon="-105.230575">
  <ele>1586.09</ele>
  <time>2026-08-28T19:09:13Z</time>
  <course>260.86</course>
  <speed>0.0</speed>
  <fix>3d</fix>
</trkpt>
<trkpt lat="40.072842" lon="-105.230575">
  <ele>1586.09</ele>
  <time>2026-08-28T19:09:13Z</time>
  <course>10.16</course>
  <speed>0.0</speed>
  <fix>3d</fix>
</trkpt>
<trkpt lat="40.072842" lon="-105.230575">
  <ele>1586.09</ele>
  <time>2026-08-28T19:09:13Z</time>
  <course>291.3</course>
  <speed>0.0</speed>
  <fix>3d</fix>
</trkpt>
<trkpt lat="40.072842" lon="-105.230575">
  <ele>1586.09</ele>
  <time>2026-08-28T19:09:13Z</time>
  <course>10.34</course>
  <speed>0.0</speed>
  <fix>3d</fix>
</trkpt>
<trkpt lat="40.072842" lon="-105.230575">
  <ele>1586.09</ele>
  <time>2026-08-28T19:09:13Z</time>
  <course>266.59</course>
  <speed>0.0</speed>
  <fix>3d</fix>
</trkpt>
<trkpt lat="40.072842" lon="-105.230575">
  <ele>1586.09</ele>
  <time>2026-08-28T19:09:13Z</time>
  <course>10.52</course>
  <speed>0.0</speed>
  <fix>3d</fix>
</trkpt>
<trkpt lat="40.072842" lon="-105.230575">
  <ele>1586.09</ele>
  <time>2026-08-28T19:09:13Z</time>
  <course>264.88</course>
  <speed>0.0</speed>
  <fix>3d</fix>
</trkpt>
<trkpt lat="40.072842" lon="-105.230575">
  <ele>1586.09</ele>
  <time>2026-08-28T19:09:13Z</time>
  <course>10.67</course>
  <speed>0.0</speed>
  <fix>3d</fix>
</trkpt>
<trkpt lat="40.072842" lon="-105.230575">
  <ele>1586.09</ele>
  <time>2026-08-28T19:09:13Z</time>
  <course>266.12</course>
  <speed>0.0</speed>
  <fix>3d</fix>
</trkpt>
<trkpt lat="40.072842" lon="-105.230575">
  <ele>1586.09</ele>
  <time>2026-08-28T19:09:13Z</time>
  <course>10.82</course>
  <speed>0.0</speed>
  <fix>3d</fix>
</trkpt>
<trkpt lat="40.072842" lon="-105.230575">
  <ele>1586.09</ele>
  <time>2026-08-28T19:09:13Z</time>
  <course>266.2</course>
  <speed>0.0</speed>
  <fix>3d</fix>
</trkpt>
<trkpt lat="40.072842" lon="-105.230575">
  <ele>1586.09</ele>
  <time>2026-08-28T19:09:13Z</time>
  <course>10.95</course>
  <speed>0.0</speed>
  <fix>3d</fix>
</trkpt>
<trkpt lat="40.072842" lon="-105.230575">
  <ele>1586.09</ele>
  <time>2026-08-28T19:09:13Z</time>
  <course>266.0</course>
  <speed>0.0</speed>
  <fix>3d</fix>
</trkpt>
<trkpt lat="40.072842" lon="-105.230575">
  <ele>1586.09</ele>
  <time>2026-08-28T19:09:13Z</time>
  <course>11.07</course>
  <speed>0.0</speed>
  <fix>3d</fix>
</trkpt>
<trkpt lat="40.072842" lon="-105.230575">
  <ele>1586.09</ele>
  <time>2026-08-28T19:09:13Z</time>
  <course>266.02</course>
  <speed>0.0</speed>
  <fix>3d</fix>
</trkpt>
<trkpt lat="40.072842" lon="-105.230575">
  <ele>1586.09</ele>
  <time>2026-08-28T19:09:13Z</time>
  <course>11.18</course>
  <speed>0.0</speed>
  <fix>3d</fix>
</trkpt>
<trkpt lat="40.072842" lon="-105.230575">
  <ele>1586.09</ele>
  <time>2026-08-28T19:09:13Z</time>
  <course>266.04</course>
  <speed>0.0</speed>
  <fix>3d</fix>
</trkpt>
<trkpt lat="40.072842" lon="-105.230575">
  <ele>1586.09</ele>
  <time>2026-08-28T19:09:13Z</time>
  <course>11.28</course>
  <speed>0.0</speed>
  <fix>3d</fix>
</trkpt>
<trkpt lat="40.072842" lon="-105.230575">
  <ele>1586.09</ele>
  <time>2026-08-28T19:09:13Z</time>
  <course>266.04</course>
  <speed>0.0</speed>
  <fix>3d</fix>
</trkpt>
<trkpt lat="40.072842" lon="-105.230575">
  <ele>1586.09</ele>
  <time>2026-08-28T19:09:13Z</time>
  <course>11.37</course>
  <speed>0.0</speed>
  <fix>3d</fix>
</trkpt>
<trkpt lat="40.072842" lon="-105.230575">
  <ele>1586.09</ele>
  <time>2026-08-28T19:09:13Z</time>
  <course>266.03</course>
  <speed>0.0</speed>
  <fix>3d</fix>
</trkpt>
<trkpt lat="40.072842" lon="-105.230575">
  <ele>1586.09</ele>
  <time>2026-08-28T19:09:13Z</time>
  <course>11.45</course>
  <speed>0.0</speed>
  <fix>3d</fix>
</trkpt>
<trkpt lat="40.072842" lon="-105.230575">
  <ele>1586.09</ele>
  <time>2026-08-28T19:09:13Z</time>
  <course>266.03</course>
  <speed>0.0</speed>
  <fix>3d</fix>
</trkpt>
<trkpt lat="40.072842" lon="-105.230575">
  <ele>1586.09</ele>
  <time>2026-08-28T19:09:13Z</time>
  <course>11.52</course>
  <speed>0.0</speed>
  <fix>3d</fix>
</trkpt>
<trkpt lat="40.072842" lon="-105.230575">
  <ele>1586.09</ele>
  <time>2026-08-28T19:09:13Z</time>
  <course>266.03</course>
  <speed>0.0</speed>
  <fix>3d</fix>
</trkpt>
<trkpt lat="40.072842" lon="-105.230575">
  <ele>1586.09</ele>
  <time>2026-08-28T19:09:13Z</time>
  <course>11.59</course>
  <speed>0.0</speed>
  <fix>3d</fix>
</trkpt>
<trkpt lat="40.072842" lon="-105.230575">
  <ele>1586.09</ele>
  <time>2026-08-28T19:09:13Z</time>
  <course>266.03</course>
  <speed>0.0</speed>
  <fix>3d</fix>
</trkpt>
<trkpt lat="40.072842" lon="-105.230575">
  <ele>1586.09</ele>
  <time>2026-08-28T19:09:13Z</time>
  <course>11.65</course>
  <speed>0.0</speed>
  <fix>3d</fix>
</trkpt>
<trkpt lat="40.072842" lon="-105.230575">
  <ele>1586.09</ele>
  <time>2026-08-28T19:09:13Z</time>
  <course>266.03</course>
  <speed>0.0</speed>
  <fix>3d</fix>
</trkpt>
<trkpt lat="40.072842" lon="-105.230575">
  <ele>1586.09</ele>
  <time>2026-08-28T19:09:13Z</time>
  <course>11.71</course>
  <speed>0.0</speed>
  <fix>3d</fix>
</trkpt>
<trkpt lat="40.072842" lon="-105.230575">
  <ele>1586.09</ele>
  <time>2026-08-28T19:09:13Z</time>
  <course>266.03</course>
  <speed>0.0</speed>
  <fix>3d</fix>
</trkpt>
<trkpt lat="40.072842" lon="-105.230575">
  <ele>1586.09</ele>
  <time>2026-08-28T19:09:13Z</time>
  <course>11.77</course>
  <speed>0.0</speed>
  <fix>3d</fix>
</trkpt>
<trkpt lat="40.072842" lon="-105.230575">
  <ele>1586.09</ele>
  <time>2026-08-28T19:09:13Z</time>
  <course>266.03</course>
  <speed>0.0</speed>
  <fix>3d</fix>
</trkpt>
<trkpt lat="40.072842" lon="-105.230575">
  <ele>1586.09</ele>
  <time>2026-08-28T19:09:13Z</time>
  <course>11.81</course>
  <speed>0.0</speed>
  <fix>3d</fix>
</trkpt>
<trkpt lat="40.072842" lon="-105.230575">
  <ele>1586.09</ele>
  <time>2026-08-28T19:09:13Z</time>
  <course>266.03</course>
  <speed>0.0</speed>
  <fix>3d</fix>
</trkpt>
<trkpt lat="40.072842" lon="-105.230575">
  <ele>1586.09</ele>
  <time>2026-08-28T19:09:13Z</time>
  <course>11.85</course>
  <speed>0.0</speed>
  <fix>3d</fix>
</trkpt>
<trkpt lat="40.072842" lon="-105.230575">
  <ele>1586.09</ele>
  <time>2026-08-28T19:09:13Z</time>
  <course>266.03</course>
  <speed>0.0</speed>
  <fix>3d</fix>
</trkpt>
<trkpt lat="40.072842" lon="-105.230575">
  <ele>1586.09</ele>
  <time>2026-08-28T19:09:13Z</time>
  <course>11.89</course>
  <speed>0.0</speed>
  <fix>3d</fix>
</trkpt>
<trkpt lat="40.072842" lon="-105.230575">
  <ele>1586.09</ele>
  <time>2026-08-28T19:09:13Z</time>
  <course>266.03</course>
  <speed>0.0</speed>
  <fix>3d</fix>
</trkpt>
<trkpt lat="40.072842" lon="-105.230575">
  <ele>1586.09</ele>
  <time>2026-08-28T19:09:13Z</time>
  <course>11.92</course>
  <speed>0.0</speed>
  <fix>3d</fix>
</trkpt>
<trkpt lat="40.072842" lon="-105.230575">
  <ele>1586.09</ele>
  <time>2026-08-28T19:09:13Z</time>
  <course>266.03</course>
  <speed>0.0</speed>
  <fix>3d</fix>
</trkpt>
<trkpt lat="40.072842" lon="-105.230575">
  <ele>1586.09</ele>
  <time>2026-08-28T19:09:13Z</time>
  <course>11.95</course>
  <speed>0.0</speed>
  <fix>3d</fix>
</trkpt>
<trkpt lat="40.072842" lon="-105.230575">
  <ele>1586.09</ele>
  <time>2026-08-28T19:09:13Z</time>
  <course>266.03</course>
  <speed>0.0</speed>
  <fix>3d</fix>
</trkpt>
<trkpt lat="40.072842" lon="-105.230575">
  <ele>1586.09</ele>
  <time>2026-08-28T19:09:13Z</time>
  <course>11.98</course>
  <speed>0.0</speed>
  <fix>3d</fix>
</trkpt>
<trkpt lat="40.072842" lon="-105.230575">
  <ele>1586.09</ele>
  <time>2026-08-28T19:09:13Z</time>
  <course>266.03</course>
  <speed>0.0</speed>
  <fix>3d</fix>
</trkpt>
<trkpt lat="40.072842" lon="-105.230575">
  <ele>1586.09</ele>
  <time>2026-08-28T19:09:13Z</time>
  <course>12.0</course>
  <speed>0.0</speed>
  <fix>3d</fix>
</trkpt>
<trkpt lat="40.072842" lon="-105.230575">
  <ele>1586.09</ele>
  <time>2026-08-28T19:09:13Z</time>
  <course>266.03</course>
  <speed>0.0</speed>
  <fix>3d</fix>
</trkpt>
<trkpt lat="40.072842" lon="-105.230575">
  <ele>1586.09</ele>
  <time>2026-08-28T19:09:13Z</time>
  <course>12.02</course>
  <speed>0.0</speed>
  <fix>3d</fix>
</trkpt>
<trkpt lat="40.072842" lon="-105.230575">
  <ele>1586.09</ele>
  <time>2026-08-28T19:09:13Z</time>
  <course>266.03</course>
  <speed>0.0</speed>
  <fix>3d</fix>
</trkpt>
<trkpt lat="40.072842" lon="-105.230575">
  <ele>1586.09</ele>
  <time>2026-08-28T19:09:13Z</time>
  <course>12.04</course>
  <speed>0.0</speed>
  <fix>3d</fix>
</trkpt>
<trkpt lat="40.072842" lon="-105.230575">
  <ele>1586.09</ele>
  <time>2026-08-28T19:09:13Z</time>
  <course>266.03</course>
  <speed>0.0</speed>
  <fix>3d</fix>
</trkpt>
<trkpt lat="40.072842" lon="-105.230575">
  <ele>1586.09</ele>
  <time>2026-08-28T19:09:13Z</time>
  <course>12.05</course>
  <speed>0.0</speed>
  <fix>3d</fix>
</trkpt>
<trkpt lat="40.072842" lon="-105.230575">
  <ele>1586.09</ele>
  <time>2026-08-28T19:09:13Z</time>
  <course>266.03</course>
  <speed>0.0</speed>
  <fix>3d</fix>
</trkpt>
<trkpt lat="40.072842" lon="-105.230575">
  <ele>1586.09</ele>
  <time>2026-08-28T19:09:13Z</time>
  <course>12.07</course>
  <speed>0.0</speed>
  <fix>3d</fix>
</trkpt>
<trkpt lat="40.072842" lon="-105.230575">
  <ele>1586.09</ele>
  <time>2026-08-28T19:09:13Z</time>
  <course>266.03</course>
  <speed>0.0</speed>
  <fix>3d</fix>
</trkpt>
<trkpt lat="40.072842" lon="-105.230575">
  <ele>1586.09</ele>
  <time>2026-08-28T19:09:13Z</time>
  <course>12.08</course>
  <speed>0.0</speed>
  <fix>3d</fix>
</trkpt>
<trkpt lat="40.072842" lon="-105.230575">
  <ele>1586.09</ele>
  <time>2026-08-28T19:09:13Z</time>
  <course>266.03</course>
  <speed>0.0</speed>
  <fix>3d</fix>
</trkpt>
<trkpt lat="40.072842" lon="-105.230575">
  <ele>1586.09</ele>
  <time>2026-08-28T19:09:13Z</time>
  <course>12.09</course>
  <speed>0.0</speed>
  <fix>3d</fix>
</trkpt>
<trkpt lat="40.072842" lon="-105.230575">
  <ele>1586.09</ele>
  <time>2026-08-28T19:09:13Z</time>
  <course>266.03</course>
  <speed>0.0</speed>
  <fix>3d</fix>
</trkpt>
<trkpt lat="40.072842" lon="-105.230575">
  <ele>1586.09</ele>
  <time>2026-08-28T19:09:13Z</time>
  <course>12.1</course>
  <speed>0.0</speed>
  <fix>3d</fix>
</trkpt>
<trkpt lat="40.072842" lon="-105.230575">
  <ele>1586.09</ele>
  <time>2026-08-28T19:09:13Z</time>
  <course>266.03</course>
  <speed>0.0</speed>
  <fix>3d</fix>
</trkpt>
<trkpt lat="40.072842" lon="-105.230575">
  <ele>1586.09</ele>
  <time>2026-08-28T19:09:13Z</time>
  <course>12.1</course>
  <speed>0.0</speed>
  <fix>3d</fix>
</trkpt>
<trkpt lat="40.072842" lon="-105.230575">
  <ele>1586.09</ele>
  <time>2026-08-28T19:09:13Z</time>
  <course>266.03</course>
  <speed>0.0</speed>
  <fix>3d</fix>
</trkpt>
<trkpt lat="40.072842" lon="-105.230575">
  <ele>1586.09</ele>
  <time>2026-08-28T19:09:13Z</time>
  <course>12.11</course>
  <speed>0.0</speed>
  <fix>3d</fix>
</trkpt>
<trkpt lat="40.072842" lon="-105.230575">
  <ele>1586.09</ele>
  <time>2026-08-28T19:09:13Z</time>
  <course>266.03</course>
  <speed>0.0</speed>
  <fix>3d</fix>
</trkpt>
<trkpt lat="40.072842" lon="-105.230575">
  <ele>1586.09</ele>
  <time>2026-08-28T19:09:13Z</time>
  <course>12.11</course>
  <speed>0.0</speed>
  <fix>3d</fix>
</trkpt>
<trkpt lat="40.072842" lon="-105.230575">
  <ele>1586.09</ele>
  <time>2026-08-28T19:09:13Z</time>
  <course>266.03</course>
  <speed>0.0</speed>
  <fix>3d</fix>
</trkpt>
<trkpt lat="40.072842" lon="-105.230575">
  <ele>1586.09</ele>
  <time>2026-08-28T19:09:13Z</time>
  <course>12.12</course>
  <speed>0.0</speed>
  <fix>3d</fix>
</trkpt>
<trkpt lat="40.072842" lon="-105.230575">
  <ele>1586.09</ele>
  <time>2026-08-28T19:09:13Z</time>
  <course>266.03</course>
  <speed>0.0</speed>
  <fix>3d</fix>
</trkpt>
<trkpt lat="40.072842" lon="-105.230575">
  <ele>1586.09</ele>
  <time>2026-08-28T19:09:13Z</time>
  <course>12.12</course>
  <speed>0.0</speed>
  <fix>3d</fix>
</trkpt>
<trkpt lat="40.072842" lon="-105.230575">
  <ele>1586.09</ele>
  <time>2026-08-28T19:09:13Z</time>
  <course>266.03</course>
  <speed>0.0</speed>
  <fix>3d</fix>
</trkpt>
<trkpt lat="40.072842" lon="-105.230575">
  <ele>1586.09</ele>
  <time>2026-08-28T19:09:13Z</time>
  <course>12.12</course>
  <speed>0.0</speed>
  <fix>3d</fix>
</trkpt>
<trkpt lat="40.072842" lon="-105.230575">
  <ele>1586.09</ele>
  <time>2026-08-28T19:09:13Z</time>
  <course>266.03</course>
  <speed>0.0</speed>
  <fix>3d</fix>
</trkpt>
<trkpt lat="40.072842" lon="-105.230575">
  <ele>1586.09</ele>
  <time>2026-08-28T19:09:13Z</time>
  <course>12.12</course>
  <speed>0.0</speed>
  <fix>3d</fix>
</trkpt>
<trkpt lat="40.072842" lon="-105.230575">
  <ele>1586.09</ele>
  <time>2026-08-28T19:09:13Z</time>
  <course>266.03</course>
  <speed>0.0</speed>
  <fix>3d</fix>
</trkpt>
<trkpt lat="40.072842" lon="-105.230575">
  <ele>1586.09</ele>
  <time>2026-08-28T19:09:13Z</time>
  <course>12.12</course>
  <speed>0.0</speed>
  <fix>3d</fix>
</trkpt>
<trkpt lat="40.072842" lon="-105.230575">
  <ele>1586.09</ele>
  <time>2026-08-28T19:09:13Z</time>
  <course>266.03</course>
  <speed>0.0</speed>
  <fix>3d</fix>
</trkpt>
<trkpt lat="40.072842" lon="-105.230575">
  <ele>1586.09</ele>
  <time>2026-08-28T19:09:13Z</time>
  <course>12.12</course>
  <speed>0.01</speed>
  <fix>3d</fix>
</trkpt>
<trkpt lat="40.072842" lon="-105.230575">
  <ele>1586.09</ele>
  <time>2026-08-28T19:09:13Z</time>
  <course>266.03</course>
  <speed>0.0</speed>
  <fix>3d</fix>
</trkpt>
<trkpt lat="40.072842" lon="-105.230575">
  <ele>1586.09</ele>
  <time>2026-08-28T19:09:13Z</time>
  <course>12.12</course>
  <speed>0.01</speed>
  <fix>3d</fix>
</trkpt>
<trkpt lat="40.072842" lon="-105.230575">
  <ele>1586.09</ele>
  <time>2026-08-28T19:09:13Z</time>
  <course>266.03</course>
  <speed>0.0</speed>
  <fix>3d</fix>
</trkpt>
<trkpt lat="40.072842" lon="-105.230575">
  <ele>1586.09</ele>
  <time>2026-08-28T19:09:13Z</time>
  <course>12.12</course>
  <speed>0.01</speed>
  <fix>3d</fix>
</trkpt>
<trkpt lat="40.072842" lon="-105.230575">
  <ele>1586.09</ele>
  <time>2026-08-28T19:09:13Z</time>
  <course>266.03</course>
  <speed>0.0</speed>
  <fix>3d</fix>
</trkpt>
<trkpt lat="40.072842" lon="-105.230575">
  <ele>1586.09</ele>
  <time>2026-08-28T19:09:13Z</time>
  <course>12.11</course>
  <speed>0.01</speed>
  <fix>3d</fix>
</trkpt>
<trkpt lat="40.072842" lon="-105.230575">
  <ele>1586.09</ele>
  <time>2026-08-28T19:09:13Z</time>
  <course>266.03</course>
  <speed>0.0</speed>
  <fix>3d</fix>
</trkpt>
<trkpt lat="40.072842" lon="-105.230575">
  <ele>1586.09</ele>
  <time>2026-08-28T19:09:13Z</time>
  <course>12.11</course>
  <speed>0.01</speed>
  <fix>3d</fix>
</trkpt>
<trkpt lat="40.072842" lon="-105.230575">
  <ele>1586.09</ele>
  <time>2026-08-28T19:09:13Z</time>
  <course>266.03</course>
  <speed>0.0</speed>
  <fix>3d</fix>
</trkpt>
<trkpt lat="40.072842" lon="-105.230575">
  <ele>1586.09</ele>
  <time>2026-08-28T19:09:13Z</time>
  <course>12.11</course>
  <speed>0.01</speed>
  <fix>3d</fix>
</trkpt>
<trkpt lat="40.072842" lon="-105.230575">
  <ele>1586.09</ele>
  <time>2026-08-28T19:09:13Z</time>
  <course>266.03</course>
  <speed>0.0</speed>
  <fix>3d</fix>
</trkpt>
<trkpt lat="40.072842" lon="-105.230575">
  <ele>1586.09</ele>
  <time>2026-08-28T19:09:13Z</time>
  <course>12.1</course>
  <speed>0.01</speed>
  <fix>3d</fix>
</trkpt>
<trkpt lat="40.072842" lon="-105.230575">
  <ele>1586.09</ele>
  <time>2026-08-28T19:09:13Z</time>
  <course>266.03</course>
  <speed>0.0</speed>
  <fix>3d</fix>
</trkpt>
<trkpt lat="40.072842" lon="-105.230575">
  <ele>1586.09</ele>
  <time>2026-08-28T19:09:13Z</time>
  <course>12.1</course>
  <speed>0.01</speed>
  <fix>3d</fix>
</trkpt>
<trkpt lat="40.072842" lon="-105.230575">
  <ele>1586.09</ele>
  <time>2026-08-28T19:09:13Z</time>
  <course>266.03</course>
  <speed>0.0</speed>
  <fix>3d</fix>
</trkpt>
<trkpt lat="40.072842" lon="-105.230575">
  <ele>1586.09</ele>
  <time>2026-08-28T19:09:13Z</time>
  <course>12.09</course>
  <speed>0.01</speed>
  <fix>3d</fix>
</trkpt>
<trkpt lat="40.072842" lon="-105.230575">
  <ele>1586.09</ele>
  <time>2026-08-28T19:09:13Z</time>
  <course>266.03</course>
  <speed>0.0</speed>
  <fix>3d</fix>
</trkpt>
<trkpt lat="40.072842" lon="-105.230575">
  <ele>1586.09</ele>
  <time>2026-08-28T19:09:13Z</time>
  <course>12.09</course>
  <speed>0.01</speed>
  <fix>3d</fix>
</trkpt>
<trkpt lat="40.072842" lon="-105.230575">
  <ele>1586.09</ele>
  <time>2026-08-28T19:09:13Z</time>
  <course>266.03</course>
  <speed>0.0</speed>
  <fix>3d</fix>
</trkpt>
<trkpt lat="40.072842" lon="-105.230575">
  <ele>1586.09</ele>
  <time>2026-08-28T19:09:13Z</time>
  <course>12.08</course>
  <speed>0.01414213562373095</speed>
  <fix>3d</fix>
</trkpt>
<trkpt lat="40.072842" lon="-105.230575">
  <ele>1586.09</ele>
  <time>2026-08-28T19:09:13Z</time>
  <course>266.03</course>
  <speed>0.0</speed>
  <fix>3d</fix>
</trkpt>
<trkpt lat="40.072842" lon="-105.230575">
  <ele>1586.09</ele>
  <time>2026-08-28T19:09:13Z</time>
  <course>12.07</course>
  <speed>0.01414213562373095</speed>
  <fix>3d</fix>
</trkpt>
<trkpt lat="40.072842" lon="-105.230575">
  <ele>1586.09</ele>
  <time>2026-08-28T19:09:13Z</time>
  <course>266.03</course>
  <speed>0.0</speed>
  <fix>3d</fix>
</trkpt>
<trkpt lat="40.072842" lon="-105.230575">
  <ele>1586.09</ele>
  <time>2026-08-28T19:09:13Z</time>
  <course>12.07</course>
  <speed>0.01414213562373095</speed>
  <fix>3d</fix>
</trkpt>
<trkpt lat="40.072842" lon="-105.230575">
  <ele>1586.09</ele>
  <time>2026-08-28T19:09:13Z</time>
  <course>266.03</course>
  <speed>0.0</speed>
  <fix>3d</fix>
</trkpt>
<trkpt lat="40.072842" lon="-105.230575">
  <ele>1586.09</ele>
  <time>2026-08-28T19:09:13Z</time>
  <course>12.06</course>
  <speed>0.01414213562373095</speed>
  <fix>3d</fix>
</trkpt>
<trkpt lat="40.072842" lon="-105.230575">
  <ele>1586.09</ele>
  <time>2026-08-28T19:09:13Z</time>
  <course>266.03</course>
  <speed>0.0</speed>
  <fix>3d</fix>
</trkpt>
<trkpt lat="40.072842" lon="-105.230575">
  <ele>1586.09</ele>
  <time>2026-08-28T19:09:13Z</time>
  <course>12.05</course>
  <speed>0.01414213562373095</speed>
  <fix>3d</fix>
</trkpt>
<trkpt lat="40.072842" lon="-105.230575">
  <ele>1586.09</ele>
  <time>2026-08-28T19:09:13Z</time>
  <course>266.03</course>
  <speed>0.0</speed>
  <fix>3d</fix>
</trkpt>
<trkpt lat="40.072842" lon="-105.230575">
  <ele>1586.09</ele>
  <time>2026-08-28T19:09:13Z</time>
  <course>12.05</course>
  <speed>0.01414213562373095</speed>
  <fix>3d</fix>
</trkpt>
<trkpt lat="40.072842" lon="-105.230575">
  <ele>1586.09</ele>
  <time>2026-08-28T19:09:13Z</time>
  <course>266.03</course>
  <speed>0.0</speed>
  <fix>3d</fix>
</trkpt>
<trkpt lat="40.072842" lon="-105.230575">
  <ele>1586.09</ele>
  <time>2026-08-28T19:09:13Z</time>
  <course>12.04</course>
  <speed>0.01414213562373095</speed>
  <fix>3d</fix>
</trkpt>
<trkpt lat="40.072842" lon="-105.230575">
  <ele>1586.09</ele>
  <time>2026-08-28T19:09:13Z</time>
  <course>266.03</course>
  <speed>0.0</speed>
  <fix>3d</fix>
</trkpt>
<trkpt lat="40.072842" lon="-105.230575">
  <ele>1586.09</ele>
  <time>2026-08-28T19:09:13Z</time>
  <course>12.03</course>
  <speed>0.01414213562373095</speed>
  <fix>3d</fix>
</trkpt>
<trkpt lat="40.072842" lon="-105.230575">
  <ele>1586.09</ele>
  <time>2026-08-28T19:09:13Z</time>
  <course>266.03</course>
  <speed>0.0</speed>
  <fix>3d</fix>
</trkpt>
<trkpt lat="40.072842" lon="-105.230575">
  <ele>1586.09</ele>
  <time>2026-08-28T19:09:13Z</time>
  <course>12.02</course>
  <speed>0.01414213562373095</speed>
  <fix>3d</fix>
</trkpt>
<trkpt lat="40.072842" lon="-105.230575">
  <ele>1586.09</ele>
  <time>2026-08-28T19:09:13Z</time>
  <course>266.03</course>
  <speed>0.0</speed>
  <fix>3d</fix>
</trkpt>
<trkpt lat="40.072842" lon="-105.230575">
  <ele>1586.09</ele>
  <time>2026-08-28T19:09:13Z</time>
  <course>12.02</course>
  <speed>0.01414213562373095</speed>
  <fix>3d</fix>
</trkpt>
<trkpt lat="40.072842" lon="-105.230575">
  <ele>1586.09</ele>
  <time>2026-08-28T19:09:13Z</time>
  <course>266.03</course>
  <speed>0.0</speed>
  <fix>3d</fix>
</trkpt>
<trkpt lat="40.072842" lon="-105.230575">
  <ele>1586.09</ele>
  <time>2026-08-28T19:09:13Z</time>
  <course>12.01</course>
  <speed>0.01414213562373095</speed>
  <fix>3d</fix>
</trkpt>
<trkpt lat="40.072842" lon="-105.230575">
  <ele>1586.09</ele>
  <time>2026-08-28T19:09:13Z</time>
  <course>266.03</course>
  <speed>0.0</speed>
  <fix>3d</fix>
</trkpt>
<trkpt lat="40.072842" lon="-105.230575">
  <ele>1586.09</ele>
  <time>2026-08-28T19:09:13Z</time>
  <course>12.0</course>
  <speed>0.01414213562373095</speed>
  <fix>3d</fix>
</trkpt>
<trkpt lat="40.072842" lon="-105.230575">
  <ele>1586.09</ele>
  <time>2026-08-28T19:09:13Z</time>
  <course>266.03</course>
  <speed>0.0</speed>
  <fix>3d</fix>
</trkpt>
<trkpt lat="40.072842" lon="-105.230575">
  <ele>1586.09</ele>
  <time>2026-08-28T19:09:13Z</time>
  <course>11.99</course>
  <speed>0.01414213562373095</speed>
  <fix>3d</fix>
</trkpt>
<trkpt lat="40.072842" lon="-105.230575">
  <ele>1586.09</ele>
  <time>2026-08-28T19:09:13Z</time>
  <course>266.03</course>
  <speed>0.0</speed>
  <fix>3d</fix>
</trkpt>
<trkpt lat="40.072842" lon="-105.230575">
  <ele>1586.09</ele>
  <time>2026-08-28T19:09:13Z</time>
  <course>11.99</course>
  <speed>0.01414213562373095</speed>
  <fix>3d</fix>
</trkpt>
<trkpt lat="40.072842" lon="-105.230575">
  <ele>1586.09</ele>
  <time>2026-08-28T19:09:13Z</time>
  <course>266.03</course>
  <speed>0.0</speed>
  <fix>3d</fix>
</trkpt>
<trkpt lat="40.072842" lon="-105.230575">
  <ele>1586.09</ele>
  <time>2026-08-28T19:09:13Z</time>
  <course>11.98</course>
  <speed>0.01414213562373095</speed>
  <fix>3d</fix>
</trkpt>
<trkpt lat="40.072842" lon="-105.230575">
  <ele>1586.09</ele>
  <time>2026-08-28T19:09:13Z</time>
  <course>266.03</course>
  <speed>0.0</speed>
  <fix>3d</fix>
</trkpt>
<trkpt lat="40.072842" lon="-105.230575">
  <ele>1586.09</ele>
  <time>2026-08-28T19:09:13Z</time>
  <course>11.97</course>
  <speed>0.01414213562373095</speed>
  <fix>3d</fix>
</trkpt>
<trkpt lat="40.072842" lon="-105.230575">
  <ele>1586.09</ele>
  <time>2026-08-28T19:09:13Z</time>
  <course>266.03</course>
  <speed>0.0</speed>
  <fix>3d</fix>
</trkpt>
<trkpt lat="40.072842" lon="-105.230575">
  <ele>1586.09</ele>
  <time>2026-08-28T19:09:13Z</time>
  <course>11.96</course>
  <speed>0.01414213562373095</speed>
  <fix>3d</fix>
</trkpt>
<trkpt lat="40.072842" lon="-105.230575">
  <ele>1586.09</ele>
  <time>2026-08-28T19:09:13Z</time>
  <course>266.03</course>
  <speed>0.0</speed>
  <fix>3d</fix>
</trkpt>
<trkpt lat="40.072842" lon="-105.230575">
  <ele>1586.09</ele>
  <time>2026-08-28T19:09:13Z</time>
  <course>11.95</course>
  <speed>0.022360679774997897</speed>
  <fix>3d</fix>
</trkpt>
<trkpt lat="40.072842" lon="-105.230575">
  <ele>1586.09</ele>
  <time>2026-08-28T19:09:13Z</time>
  <course>266.03</course>
  <speed>0.0</speed>
  <fix>3d</fix>
</trkpt>
<trkpt lat="40.072842" lon="-105.230575">
  <ele>1586.09</ele>
  <time>2026-08-28T19:09:13Z</time>
  <course>11.95</course>
  <speed>0.022360679774997897</speed>
  <fix>3d</fix>
</trkpt>
<trkpt lat="40.072842" lon="-105.230575">
  <ele>1586.09</ele>
  <time>2026-08-28T19:09:13Z</time>
  <course>266.03</course>
  <speed>0.0</speed>
  <fix>3d</fix>
</trkpt>
<trkpt lat="40.072842" lon="-105.230575">
  <ele>1586.09</ele>
  <time>2026-08-28T19:09:13Z</time>
  <course>11.94</course>
  <speed>0.022360679774997897</speed>
  <fix>3d</fix>
</trkpt>
<trkpt lat="40.072842" lon="-105.230575">
  <ele>1586.09</ele>
  <time>2026-08-28T19:09:13Z</time>
  <course>266.03</course>
  <speed>0.0</speed>
  <fix>3d</fix>
</trkpt>
<trkpt lat="40.072842" lon="-105.230575">
  <ele>1586.09</ele>
  <time>2026-08-28T19:09:13Z</time>
  <course>11.93</course>
  <speed>0.022360679774997897</speed>
  <fix>3d</fix>
</trkpt>
<trkpt lat="40.072842" lon="-105.230575">
  <ele>1586.09</ele>
  <time>2026-08-28T19:09:13Z</time>
  <course>266.03</course>
  <speed>0.0</speed>
  <fix>3d</fix>
</trkpt>
<trkpt lat="40.072842" lon="-105.230575">
  <ele>1586.09</ele>
  <time>2026-08-28T19:09:13Z</time>
  <course>11.92</course>
  <speed>0.022360679774997897</speed>
  <fix>3d</fix>
</trkpt>
<trkpt lat="40.072842" lon="-105.230575">
  <ele>1586.09</ele>
  <time>2026-08-28T19:09:13Z</time>
  <course>266.03</course>
  <speed>0.0</speed>
  <fix>3d</fix>
</trkpt>
<trkpt lat="40.072842" lon="-105.230575">
  <ele>1586.09</ele>
  <time>2026-08-28T19:09:13Z</time>
  <course>11.91</course>
  <speed>0.022360679774997897</speed>
  <fix>3d</fix>
</trkpt>
<trkpt lat="40.072842" lon="-105.230575">
  <ele>1586.09</ele>
  <time>2026-08-28T19:09:13Z</time>
  <course>266.03</course>
  <speed>0.0</speed>
  <fix>3d</fix>
</trkpt>
<trkpt lat="40.072842" lon="-105.230575">
  <ele>1586.09</ele>
  <time>2026-08-28T19:09:13Z</time>
  <course>11.91</course>
  <speed>0.022360679774997897</speed>
  <fix>3d</fix>
</trkpt>
<trkpt lat="40.072842" lon="-105.230575">
  <ele>1586.09</ele>
  <time>2026-08-28T19:09:13Z</time>
  <course>266.03</course>
  <speed>0.0</speed>
  <fix>3d</fix>
</trkpt>
<trkpt lat="40.072842" lon="-105.230575">
  <ele>1586.09</ele>
  <time>2026-08-28T19:09:13Z</time>
  <course>11.9</course>
  <speed>0.022360679774997897</speed>
  <fix>3d</fix>
</trkpt>
<trkpt lat="40.072842" lon="-105.230575">
  <ele>1586.09</ele>
  <time>2026-08-28T19:09:13Z</time>
  <course>266.03</course>
  <speed>0.0</speed>
  <fix>3d</fix>
</trkpt>
<trkpt lat="40.072842" lon="-105.230575">
  <ele>1586.09</ele>
  <time>2026-08-28T19:09:13Z</time>
  <course>11.89</course>
  <speed>0.022360679774997897</speed>
  <fix>3d</fix>
</trkpt>
<trkpt lat="40.072842" lon="-105.230575">
  <ele>1586.09</ele>
  <time>2026-08-28T19:09:13Z</time>
  <course>266.03</course>
  <speed>0.0</speed>
  <fix>3d</fix>
</trkpt>
<trkpt lat="40.072842" lon="-105.230575">
  <ele>1586.09</ele>
  <time>2026-08-28T19:09:13Z</time>
  <course>11.88</course>
  <speed>0.022360679774997897</speed>
  <fix>3d</fix>
</trkpt>
<trkpt lat="40.072842" lon="-105.230575">
  <ele>1586.09</ele>
  <time>2026-08-28T19:09:13Z</time>
  <course>266.03</course>
  <speed>0.0</speed>
  <fix>3d</fix>
</trkpt>
<trkpt lat="40.072842" lon="-105.230575">
  <ele>1586.09</ele>
  <time>2026-08-28T19:09:13Z</time>
  <course>11.87</course>
  <speed>0.022360679774997897</speed>
  <fix>3d</fix>
</trkpt>
<trkpt lat="40.072842" lon="-105.230575">
  <ele>1586.09</ele>
  <time>2026-08-28T19:09:13Z</time>
  <course>266.03</course>
  <speed>0.0</speed>
  <fix>3d</fix>
</trkpt>
<trkpt lat="40.072842" lon="-105.230575">
  <ele>1586.09</ele>
  <time>2026-08-28T19:09:13Z</time>
  <course>11.86</course>
  <speed>0.022360679774997897</speed>
  <fix>3d</fix>
</trkpt>
<trkpt lat="40.072842" lon="-105.230575">
  <ele>1586.09</ele>
  <time>2026-08-28T19:09:13Z</time>
  <course>266.03</course>
  <speed>0.0</speed>
  <fix>3d</fix>
</trkpt>
<trkpt lat="40.072842" lon="-105.230575">
  <ele>1586.09</ele>
  <time>2026-08-28T19:09:13Z</time>
  <course>11.86</course>
  <speed>0.022360679774997897</speed>
  <fix>3d</fix>
</trkpt>
<trkpt lat="40.072842" lon="-105.230575">
  <ele>1586.09</ele>
  <time>2026-08-28T19:09:13Z</time>
  <course>266.03</course>
  <speed>0.0</speed>
  <fix>3d</fix>
</trkpt>
<trkpt lat="40.072842" lon="-105.230575">
  <ele>1586.09</ele>
  <time>2026-08-28T19:09:13Z</time>
  <course>11.85</course>
  <speed>0.022360679774997897</speed>
  <fix>3d</fix>
</trkpt>
<trkpt lat="40.072842" lon="-105.230575">
  <ele>1586.09</ele>
  <time>2026-08-28T19:09:13Z</time>
  <course>266.03</course>
  <speed>0.0</speed>
  <fix>3d</fix>
</trkpt>
<trkpt lat="40.072842" lon="-105.230575">
  <ele>1586.09</ele>
  <time>2026-08-28T19:09:13Z</time>
  <course>11.84</course>
  <speed>0.022360679774997897</speed>
  <fix>3d</fix>
</trkpt>
<trkpt lat="40.072842" lon="-105.230575">
  <ele>1586.09</ele>
  <time>2026-08-28T19:09:13Z</time>
  <course>266.03</course>
  <speed>0.0</speed>
  <fix>3d</fix>
</trkpt>
<trkpt lat="40.072842" lon="-105.230575">
  <ele>1586.09</ele>
  <time>2026-08-28T19:09:13Z</time>
  <course>11.83</course>
  <speed>0.022360679774997897</speed>
  <fix>3d</fix>
</trkpt>
<trkpt lat="40.072842" lon="-105.230575">
  <ele>1586.09</ele>
  <time>2026-08-28T19:09:13Z</time>
  <course>266.03</course>
  <speed>0.0</speed>
  <fix>3d</fix>
</trkpt>
<trkpt lat="40.072842" lon="-105.230575">
  <ele>1586.09</ele>
  <time>2026-08-28T19:09:13Z</time>
  <course>11.82</course>
  <speed>0.022360679774997897</speed>
  <fix>3d</fix>
</trkpt>
<trkpt lat="40.072842" lon="-105.230575">
  <ele>1586.09</ele>
  <time>2026-08-28T19:09:13Z</time>
  <course>266.03</course>
  <speed>0.0</speed>
  <fix>3d</fix>
</trkpt>
<trkpt lat="40.072842" lon="-105.230575">
  <ele>1586.09</ele>
  <time>2026-08-28T19:09:13Z</time>
  <course>11.82</course>
  <speed>0.0282842712474619</speed>
  <fix>3d</fix>
</trkpt>
<trkpt lat="40.072842" lon="-105.230575">
  <ele>1586.09</ele>
  <time>2026-08-28T19:09:13Z</time>
  <course>266.03</course>
  <speed>0.0</speed>
  <fix>3d</fix>
</trkpt>
<trkpt lat="40.072842" lon="-105.230575">
  <ele>1586.09</ele>
  <time>2026-08-28T19:09:13Z</time>
  <course>11.81</course>
  <speed>0.0282842712474619</speed>
  <fix>3d</fix>
</trkpt>
<trkpt lat="40.072842" lon="-105.230575">
  <ele>1586.09</ele>
  <time>2026-08-28T19:09:13Z</time>
  <course>266.03</course>
  <speed>0.0</speed>
  <fix>3d</fix>
</trkpt>
<trkpt lat="40.072842" lon="-105.230575">
  <ele>1586.09</ele>
  <time>2026-08-28T19:09:13Z</time>
  <course>11.8</course>
  <speed>0.0282842712474619</speed>
  <fix>3d</fix>
</trkpt>
<trkpt lat="40.072842" lon="-105.230575">
  <ele>1586.09</ele>
  <time>2026-08-28T19:09:13Z</time>
  <course>266.03</course>
  <speed>0.0</speed>
  <fix>3d</fix>
</trkpt>
<trkpt lat="40.072842" lon="-105.230575">
  <ele>1586.09</ele>
  <time>2026-08-28T19:09:13Z</time>
  <course>11.79</course>
  <speed>0.0282842712474619</speed>
  <fix>3d</fix>
</trkpt>
<trkpt lat="40.072842" lon="-105.230575">
  <ele>1586.09</ele>
  <time>2026-08-28T19:09:13Z</time>
  <course>266.03</course>
  <speed>0.0</speed>
  <fix>3d</fix>
</trkpt>
<trkpt lat="40.072842" lon="-105.230575">
  <ele>1586.09</ele>
  <time>2026-08-28T19:09:13Z</time>
  <course>11.78</course>
  <speed>0.0282842712474619</speed>
  <fix>3d</fix>
</trkpt>
<trkpt lat="40.072842" lon="-105.230575">
  <ele>1586.09</ele>
  <time>2026-08-28T19:09:13Z</time>
  <course>266.03</course>
  <speed>0.0</speed>
  <fix>3d</fix>
</trkpt>
<trkpt lat="40.072842" lon="-105.230575">
  <ele>1586.09</ele>
  <time>2026-08-28T19:09:13Z</time>
  <course>11.78</course>
  <speed>0.0282842712474619</speed>
  <fix>3d</fix>
</trkpt>
<trkpt lat="40.072842" lon="-105.230575">
  <ele>1586.09</ele>
  <time>2026-08-28T19:09:13Z</time>
  <course>266.03</course>
  <speed>0.0</speed>
  <fix>3d</fix>
</trkpt>
<trkpt lat="40.072842" lon="-105.230575">
  <ele>1586.09</ele>
  <time>2026-08-28T19:09:13Z</time>
  <course>11.77</course>
  <speed>0.0282842712474619</speed>
  <fix>3d</fix>
</trkpt>
<trkpt lat="40.072842" lon="-105.230575">
  <ele>1586.09</ele>
  <time>2026-08-28T19:09:13Z</time>
  <course>266.03</course>
  <speed>0.0</speed>
  <fix>3d</fix>
</trkpt>
<trkpt lat="40.072842" lon="-105.230575">
  <ele>1586.09</ele>
  <time>2026-08-28T19:09:13Z</time>
  <course>11.76</course>
  <speed>0.0282842712474619</speed>
  <fix>3d</fix>
</trkpt>
<trkpt lat="40.072842" lon="-105.230575">
  <ele>1586.09</ele>
  <time>2026-08-28T19:09:13Z</time>
  <course>266.03</course>
  <speed>0.0</speed>
  <fix>3d</fix>
</trkpt>
<trkpt lat="40.072842" lon="-105.230575">
  <ele>1586.09</ele>
  <time>2026-08-28T19:09:13Z</time>
  <course>11.76</course>
  <speed>0.0282842712474619</speed>
  <fix>3d</fix>
</trkpt>
<trkpt lat="40.072842" lon="-105.230575">
  <ele>1586.09</ele>
  <time>2026-08-28T19:09:13Z</time>
  <course>266.03</course>
  <speed>0.0</speed>
  <fix>3d</fix>
</trkpt>
<trkpt lat="40.072842" lon="-105.230575">
  <ele>1586.09</ele>
  <time>2026-08-28T19:09:13Z</time>
  <course>11.75</course>
  <speed>0.0282842712474619</speed>
  <fix>3d</fix>
</trkpt>
<trkpt lat="40.072842" lon="-105.230575">
  <ele>1586.09</ele>
  <time>2026-08-28T19:09:13Z</time>
  <course>266.03</course>
  <speed>0.0</speed>
  <fix>3d</fix>
</trkpt>
<trkpt lat="40.072842" lon="-105.230575">
  <ele>1586.09</ele>
  <time>2026-08-28T19:09:13Z</time>
  <course>11.74</course>
  <speed>0.03605551275463989</speed>
  <fix>3d</fix>
</trkpt>
<trkpt lat="40.072842" lon="-105.230575">
  <ele>1586.09</ele>
  <time>2026-08-28T19:09:13Z</time>
  <course>266.03</course>
  <speed>0.0</speed>
  <fix>3d</fix>
</trkpt>
<trkpt lat="40.072842" lon="-105.230575">
  <ele>1586.09</ele>
  <time>2026-08-28T19:09:13Z</time>
  <course>11.73</course>
  <speed>0.03605551275463989</speed>
  <fix>3d</fix>
</trkpt>
<trkpt lat="40.072842" lon="-105.230575">
  <ele>1586.09</ele>
  <time>2026-08-28T19:09:13Z</time>
  <course>266.03</course>
  <speed>0.0</speed>
  <fix>3d</fix>
</trkpt>
<trkpt lat="40.072842" lon="-105.230575">
  <ele>1586.09</ele>
  <time>2026-08-28T19:09:13Z</time>
  <course>11.73</course>
  <speed>0.03605551275463989</speed>
  <fix>3d</fix>
</trkpt>
<trkpt lat="40.072842" lon="-105.230575">
  <ele>1586.09</ele>
  <time>2026-08-28T19:09:13Z</time>
  <course>266.03</course>
  <speed>0.0</speed>
  <fix>3d</fix>
</trkpt>
<trkpt lat="40.072842" lon="-105.230575">
  <ele>1586.09</ele>
  <time>2026-08-28T19:09:13Z</time>
  <course>11.72</course>
  <speed>0.03605551275463989</speed>
  <fix>3d</fix>
</trkpt>
<trkpt lat="40.072842" lon="-105.230575">
  <ele>1586.09</ele>
  <time>2026-08-28T19:09:13Z</time>
  <course>266.03</course>
  <speed>0.0</speed>
  <fix>3d</fix>
</trkpt>
<trkpt lat="40.072842" lon="-105.230575">
  <ele>1586.09</ele>
  <time>2026-08-28T19:09:13Z</time>
  <course>11.71</course>
  <speed>0.03605551275463989</speed>
  <fix>3d</fix>
</trkpt>
<trkpt lat="40.072842" lon="-105.230575">
  <ele>1586.09</ele>
  <time>2026-08-28T19:09:13Z</time>
  <course>266.03</course>
  <speed>0.0</speed>
  <fix>3d</fix>
</trkpt>
<trkpt lat="40.072842" lon="-105.230575">
  <ele>1586.09</ele>
  <time>2026-08-28T19:09:13Z</time>
  <course>11.7</course>
  <speed>0.03605551275463989</speed>
  <fix>3d</fix>
</trkpt>
<trkpt lat="40.072842" lon="-105.230575">
  <ele>1586.09</ele>
  <time>2026-08-28T19:09:13Z</time>
  <course>266.03</course>
  <speed>0.0</speed>
  <fix>3d</fix>
</trkpt>
<trkpt lat="40.072842" lon="-105.230575">
  <ele>1586.09</ele>
  <time>2026-08-28T19:09:13Z</time>
  <course>11.69</course>
  <speed>0.03605551275463989</speed>
  <fix>3d</fix>
</trkpt>
<trkpt lat="40.072842" lon="-105.230575">
  <ele>1586.09</ele>
  <time>2026-08-28T19:09:13Z</time>
  <course>266.03</course>
  <speed>0.0</speed>
  <fix>3d</fix>
</trkpt>
<trkpt lat="40.072842" lon="-105.230575">
  <ele>1586.09</ele>
  <time>2026-08-28T19:09:13Z</time>
  <course>11.69</course>
  <speed>0.03605551275463989</speed>
  <fix>3d</fix>
</trkpt>
<trkpt lat="40.072842" lon="-105.230575">
  <ele>1586.09</ele>
  <time>2026-08-28T19:09:13Z</time>
  <course>266.03</course>
  <speed>0.0</speed>
  <fix>3d</fix>
</trkpt>
<trkpt lat="40.072842" lon="-105.230575">
  <ele>1586.09</ele>
  <time>2026-08-28T19:09:14Z</time>
  <course>11.68</course>
  <speed>0.03605551275463989</speed>
  <fix>3d</fix>
</trkpt>
<trkpt lat="40.072842" lon="-105.230575">
  <ele>1586.09</ele>
  <time>2026-08-28T19:09:14Z</time>
  <course>266.03</course>
  <speed>0.0</speed>
  <fix>3d</fix>
</trkpt>
<trkpt lat="40.072842" lon="-105.230575">
  <ele>1586.09</ele>
  <time>2026-08-28T19:09:14Z</time>
  <course>11.67</course>
  <speed>0.03605551275463989</speed>
  <fix>3d</fix>
</trkpt>
<trkpt lat="40.072842" lon="-105.230575">
  <ele>1586.09</ele>
  <time>2026-08-28T19:09:14Z</time>
  <course>266.03</course>
  <speed>0.0</speed>
  <fix>3d</fix>
</trkpt>
<trkpt lat="40.072842" lon="-105.230575">
  <ele>1586.09</ele>
  <time>2026-08-28T19:09:14Z</time>
  <course>11.67</course>
  <speed>0.03605551275463989</speed>
  <fix>3d</fix>
</trkpt>
<trkpt lat="40.072842" lon="-105.230575">
  <ele>1586.09</ele>
  <time>2026-08-28T19:09:14Z</time>
  <course>266.03</course>
  <speed>0.0</speed>
  <fix>3d</fix>
</trkpt>
<trkpt lat="40.072842" lon="-105.230575">
  <ele>1586.09</ele>
  <time>2026-08-28T19:09:14Z</time>
  <course>11.66</course>
  <speed>0.03605551275463989</speed>
  <fix>3d</fix>
</trkpt>
<trkpt lat="40.072842" lon="-105.230575">
  <ele>1586.09</ele>
  <time>2026-08-28T19:09:14Z</time>
  <course>266.03</course>
  <speed>0.0</speed>
  <fix>3d</fix>
</trkpt>
<trkpt lat="40.072842" lon="-105.230575">
  <ele>1586.09</ele>
  <time>2026-08-28T19:09:14Z</time>
  <course>11.65</course>
  <speed>0.03605551275463989</speed>
  <fix>3d</fix>
</trkpt>
<trkpt lat="40.072842" lon="-105.230575">
  <ele>1586.09</ele>
  <time>2026-08-28T19:09:14Z</time>
  <course>266.03</course>
  <speed>0.0</speed>
  <fix>3d</fix>
</trkpt>
<trkpt lat="40.072842" lon="-105.230575">
  <ele>1586.09</ele>
  <time>2026-08-28T19:09:14Z</time>
  <course>11.65</course>
  <speed>0.03605551275463989</speed>
  <fix>3d</fix>
</trkpt>
<trkpt lat="40.072842" lon="-105.230575">
  <ele>1586.09</ele>
  <time>2026-08-28T19:09:14Z</time>
  <course>266.03</course>
  <speed>0.0</speed>
  <fix>3d</fix>
</trkpt>
<trkpt lat="40.072842" lon="-105.230575">
  <ele>1586.09</ele>
  <time>2026-08-28T19:09:14Z</time>
  <course>11.64</course>
  <speed>0.03605551275463989</speed>
  <fix>3d</fix>
</trkpt>
<trkpt lat="40.072842" lon="-105.230575">
  <ele>1586.09</ele>
  <time>2026-08-28T19:09:14Z</time>
  <course>266.03</course>
  <speed>0.0</speed>
  <fix>3d</fix>
</trkpt>
<trkpt lat="40.072842" lon="-105.230575">
  <ele>1586.09</ele>
  <time>2026-08-28T19:09:14Z</time>
  <course>11.63</course>
  <speed>0.03605551275463989</speed>
  <fix>3d</fix>
</trkpt>
<trkpt lat="40.072842" lon="-105.230575">
  <ele>1586.09</ele>
  <time>2026-08-28T19:09:14Z</time>
  <course>266.03</course>
  <speed>0.0</speed>
  <fix>3d</fix>
</trkpt>
<trkpt lat="40.072842" lon="-105.230575">
  <ele>1586.09</ele>
  <time>2026-08-28T19:09:14Z</time>
  <course>11.62</course>
  <speed>0.03605551275463989</speed>
  <fix>3d</fix>
</trkpt>
<trkpt lat="40.072842" lon="-105.230575">
  <ele>1586.09</ele>
  <time>2026-08-28T19:09:14Z</time>
  <course>266.03</course>
  <speed>0.0</speed>
  <fix>3d</fix>
</trkpt>
<trkpt lat="40.072842" lon="-105.230575">
  <ele>1586.09</ele>
  <time>2026-08-28T19:09:14Z</time>
  <course>11.62</course>
  <speed>0.03605551275463989</speed>
  <fix>3d</fix>
</trkpt>
<trkpt lat="40.072842" lon="-105.230575">
  <ele>1586.09</ele>
  <time>2026-08-28T19:09:14Z</time>
  <course>266.03</course>
  <speed>0.0</speed>
  <fix>3d</fix>
</trkpt>
<trkpt lat="40.072842" lon="-105.230575">
  <ele>1586.09</ele>
  <time>2026-08-28T19:09:14Z</time>
  <course>11.61</course>
  <speed>0.03605551275463989</speed>
  <fix>3d</fix>
</trkpt>
<trkpt lat="40.072842" lon="-105.230575">
  <ele>1586.09</ele>
  <time>2026-08-28T19:09:14Z</time>
  <course>266.03</course>
  <speed>0.0</speed>
  <fix>3d</fix>
</trkpt>
<trkpt lat="40.072842" lon="-105.230575">
  <ele>1586.09</ele>
  <time>2026-08-28T19:09:14Z</time>
  <course>11.61</course>
  <speed>0.03605551275463989</speed>
  <fix>3d</fix>
</trkpt>
<trkpt lat="40.072842" lon="-105.230575">
  <ele>1586.09</ele>
  <time>2026-08-28T19:09:14Z</time>
  <course>266.03</course>
  <speed>0.0</speed>
  <fix>3d</fix>
</trkpt>
<trkpt lat="40.072842" lon="-105.230575">
  <ele>1586.09</ele>
  <time>2026-08-28T19:09:14Z</time>
  <course>11.6</course>
  <speed>0.03605551275463989</speed>
  <fix>3d</fix>
</trkpt>
<trkpt lat="40.072842" lon="-105.230575">
  <ele>1586.09</ele>
  <time>2026-08-28T19:09:14Z</time>
  <course>266.03</course>
  <speed>0.0</speed>
  <fix>3d</fix>
</trkpt>
<trkpt lat="40.072842" lon="-105.230575">
  <ele>1586.09</ele>
  <time>2026-08-28T19:09:14Z</time>
  <course>11.59</course>
  <speed>0.03605551275463989</speed>
  <fix>3d</fix>
</trkpt>
<trkpt lat="40.072842" lon="-105.230575">
  <ele>1586.09</ele>
  <time>2026-08-28T19:09:14Z</time>
  <course>266.03</course>
  <speed>0.0</speed>
  <fix>3d</fix>
</trkpt>
<trkpt lat="40.072842" lon="-105.230575">
  <ele>1586.09</ele>
  <time>2026-08-28T19:09:14Z</time>
  <course>11.59</course>
  <speed>0.03605551275463989</speed>
  <fix>3d</fix>
</trkpt>
<trkpt lat="40.072842" lon="-105.230575">
  <ele>1586.09</ele>
  <time>2026-08-28T19:09:14Z</time>
  <course>266.03</course>
  <speed>0.0</speed>
  <fix>3d</fix>
</trkpt>
<trkpt lat="40.072842" lon="-105.230575">
  <ele>1586.09</ele>
  <time>2026-08-28T19:09:14Z</time>
  <course>11.58</course>
  <speed>0.03605551275463989</speed>
  <fix>3d</fix>
</trkpt>
<trkpt lat="40.072842" lon="-105.230575">
  <ele>1586.09</ele>
  <time>2026-08-28T19:09:14Z</time>
  <course>266.03</course>
  <speed>0.0</speed>
  <fix>3d</fix>
</trkpt>
<trkpt lat="40.072842" lon="-105.230575">
  <ele>1586.09</ele>
  <time>2026-08-28T19:09:14Z</time>
  <course>11.57</course>
  <speed>0.03605551275463989</speed>
  <fix>3d</fix>
</trkpt>
<trkpt lat="40.072842" lon="-105.230575">
  <ele>1586.09</ele>
  <time>2026-08-28T19:09:14Z</time>
  <course>266.03</course>
  <speed>0.0</speed>
  <fix>3d</fix>
</trkpt>
<trkpt lat="40.072842" lon="-105.230575">
  <ele>1586.09</ele>
  <time>2026-08-28T19:09:14Z</time>
  <course>11.57</course>
  <speed>0.03605551275463989</speed>
  <fix>3d</fix>
</trkpt>
<trkpt lat="40.072842" lon="-105.230575">
  <ele>1586.09</ele>
  <time>2026-08-28T19:09:14Z</time>
  <course>266.03</course>
  <speed>0.0</speed>
  <fix>3d</fix>
</trkpt>
<trkpt lat="40.072842" lon="-105.230575">
  <ele>1586.09</ele>
  <time>2026-08-28T19:09:14Z</time>
  <course>11.56</course>
  <speed>0.03605551275463989</speed>
  <fix>3d</fix>
</trkpt>
<trkpt lat="40.072842" lon="-105.230575">
  <ele>1586.09</ele>
  <time>2026-08-28T19:09:14Z</time>
  <course>266.03</course>
  <speed>0.0</speed>
  <fix>3d</fix>
</trkpt>
<trkpt lat="40.072842" lon="-105.230575">
  <ele>1586.09</ele>
  <time>2026-08-28T19:09:14Z</time>
  <course>11.56</course>
  <speed>0.03605551275463989</speed>
  <fix>3d</fix>
</trkpt>
<trkpt lat="40.072842" lon="-105.230575">
  <ele>1586.09</ele>
  <time>2026-08-28T19:09:14Z</time>
  <course>266.03</course>
  <speed>0.0</speed>
  <fix>3d</fix>
</trkpt>
<trkpt lat="40.072842" lon="-105.230575">
  <ele>1586.09</ele>
  <time>2026-08-28T19:09:14Z</time>
  <course>11.55</course>
  <speed>0.03605551275463989</speed>
  <fix>3d</fix>
</trkpt>
<trkpt lat="40.072842" lon="-105.230575">
  <ele>1586.09</ele>
  <time>2026-08-28T19:09:14Z</time>
  <course>266.03</course>
  <speed>0.0</speed>
  <fix>3d</fix>
</trkpt>
<trkpt lat="40.072842" lon="-105.230575">
  <ele>1586.09</ele>
  <time>2026-08-28T19:09:14Z</time>
  <course>11.54</course>
  <speed>0.03605551275463989</speed>
  <fix>3d</fix>
</trkpt>
<trkpt lat="40.072842" lon="-105.230575">
  <ele>1586.09</ele>
  <time>2026-08-28T19:09:14Z</time>
  <course>266.03</course>
  <speed>0.0</speed>
  <fix>3d</fix>
</trkpt>
<trkpt lat="40.072842" lon="-105.230575">
  <ele>1586.09</ele>
  <time>2026-08-28T19:09:14Z</time>
  <course>11.54</course>
  <speed>0.03605551275463989</speed>
  <fix>3d</fix>
</trkpt>
<trkpt lat="40.072842" lon="-105.230575">
  <ele>1586.09</ele>
  <time>2026-08-28T19:09:14Z</time>
  <course>266.03</course>
  <speed>0.0</speed>
  <fix>3d</fix>
</trkpt>
<trkpt lat="40.072842" lon="-105.230575">
  <ele>1586.09</ele>
  <time>2026-08-28T19:09:14Z</time>
  <course>11.53</course>
  <speed>0.03605551275463989</speed>
  <fix>3d</fix>
</trkpt>
<trkpt lat="40.072842" lon="-105.230575">
  <ele>1586.09</ele>
  <time>2026-08-28T19:09:14Z</time>
  <course>266.03</course>
  <speed>0.0</speed>
  <fix>3d</fix>
</trkpt>
<trkpt lat="40.072842" lon="-105.230575">
  <ele>1586.09</ele>
  <time>2026-08-28T19:09:14Z</time>
  <course>11.53</course>
  <speed>0.03605551275463989</speed>
  <fix>3d</fix>
</trkpt>
<trkpt lat="40.072842" lon="-105.230575">
  <ele>1586.09</ele>
  <time>2026-08-28T19:09:14Z</time>
  <course>266.03</course>
  <speed>0.0</speed>
  <fix>3d</fix>
</trkpt>
<trkpt lat="40.072842" lon="-105.230575">
  <ele>1586.09</ele>
  <time>2026-08-28T19:09:14Z</time>
  <course>11.52</course>
  <speed>0.03605551275463989</speed>
  <fix>3d</fix>
</trkpt>
<trkpt lat="40.072842" lon="-105.230575">
  <ele>1586.09</ele>
  <time>2026-08-28T19:09:14Z</time>
  <course>266.03</course>
  <speed>0.0</speed>
  <fix>3d</fix>
</trkpt>
<trkpt lat="40.072842" lon="-105.230575">
  <ele>1586.09</ele>
  <time>2026-08-28T19:09:14Z</time>
  <course>11.51</course>
  <speed>0.03605551275463989</speed>
  <fix>3d</fix>
</trkpt>
<trkpt lat="40.072842" lon="-105.230575">
  <ele>1586.09</ele>
  <time>2026-08-28T19:09:14Z</time>
  <course>266.03</course>
  <speed>0.0</speed>
  <fix>3d</fix>
</trkpt>
<trkpt lat="40.072842" lon="-105.230575">
  <ele>1586.09</ele>
  <time>2026-08-28T19:09:14Z</time>
  <course>11.51</course>
  <speed>0.03605551275463989</speed>
  <fix>3d</fix>
</trkpt>
<trkpt lat="40.072842" lon="-105.230575">
  <ele>1586.09</ele>
  <time>2026-08-28T19:09:14Z</time>
  <course>266.03</course>
  <speed>0.0</speed>
  <fix>3d</fix>
</trkpt>
<trkpt lat="40.072842" lon="-105.230575">
  <ele>1586.09</ele>
  <time>2026-08-28T19:09:14Z</time>
  <course>11.5</course>
  <speed>0.03605551275463989</speed>
  <fix>3d</fix>
</trkpt>
<trkpt lat="40.072842" lon="-105.230575">
  <ele>1586.09</ele>
  <time>2026-08-28T19:09:14Z</time>
  <course>266.03</course>
  <speed>0.0</speed>
  <fix>3d</fix>
</trkpt>
<trkpt lat="40.072842" lon="-105.230575">
  <ele>1586.09</ele>
  <time>2026-08-28T19:09:14Z</time>
  <course>11.5</course>
  <speed>0.03605551275463989</speed>
  <fix>3d</fix>
</trkpt>
<trkpt lat="40.072842" lon="-105.230575">
  <ele>1586.09</ele>
  <time>2026-08-28T19:09:14Z</time>
  <course>266.03</course>
  <speed>0.0</speed>
  <fix>3d</fix>
</trkpt>
<trkpt lat="40.072842" lon="-105.230575">
  <ele>1586.09</ele>
  <time>2026-08-28T19:09:14Z</time>
  <course>11.49</course>
  <speed>0.044721359549995794</speed>
  <fix>3d</fix>
</trkpt>
<trkpt lat="40.072842" lon="-105.230575">
  <ele>1586.09</ele>
  <time>2026-08-28T19:09:14Z</time>
  <course>266.03</course>
  <speed>0.0</speed>
  <fix>3d</fix>
</trkpt>
<trkpt lat="40.072842" lon="-105.230575">
  <ele>1586.09</ele>
  <time>2026-08-28T19:09:14Z</time>
  <course>11.49</course>
  <speed>0.044721359549995794</speed>
  <fix>3d</fix>
</trkpt>
<trkpt lat="40.072842" lon="-105.230575">
  <ele>1586.09</ele>
  <time>2026-08-28T19:09:14Z</time>
  <course>266.03</course>
  <speed>0.0</speed>
  <fix>3d</fix>
</trkpt>
<trkpt lat="40.072842" lon="-105.230575">
  <ele>1586.09</ele>
  <time>2026-08-28T19:09:14Z</time>
  <course>11.48</course>
  <speed>0.044721359549995794</speed>
  <fix>3d</fix>
</trkpt>
<trkpt lat="40.072842" lon="-105.230575">
  <ele>1586.09</ele>
  <time>2026-08-28T19:09:14Z</time>
  <course>266.03</course>
  <speed>0.0</speed>
  <fix>3d</fix>
</trkpt>
<trkpt lat="40.072842" lon="-105.230575">
  <ele>1586.09</ele>
  <time>2026-08-28T19:09:14Z</time>
  <course>11.48</course>
  <speed>0.044721359549995794</speed>
  <fix>3d</fix>
</trkpt>
<trkpt lat="40.072842" lon="-105.230575">
  <ele>1586.09</ele>
  <time>2026-08-28T19:09:14Z</time>
  <course>266.03</course>
  <speed>0.0</speed>
  <fix>3d</fix>
</trkpt>
<trkpt lat="40.072842" lon="-105.230575">
  <ele>1586.09</ele>
  <time>2026-08-28T19:09:14Z</time>
  <course>11.47</course>
  <speed>0.044721359549995794</speed>
  <fix>3d</fix>
</trkpt>
<trkpt lat="40.072842" lon="-105.230575">
  <ele>1586.09</ele>
  <time>2026-08-28T19:09:14Z</time>
  <course>266.03</course>
  <speed>0.0</speed>
  <fix>3d</fix>
</trkpt>
<trkpt lat="40.072842" lon="-105.230575">
  <ele>1586.09</ele>
  <time>2026-08-28T19:09:14Z</time>
  <course>11.47</course>
  <speed>0.044721359549995794</speed>
  <fix>3d</fix>
</trkpt>
<trkpt lat="40.072842" lon="-105.230575">
  <ele>1586.09</ele>
  <time>2026-08-28T19:09:14Z</time>
  <course>266.03</course>
  <speed>0.0</speed>
  <fix>3d</fix>
</trkpt>
<trkpt lat="40.072842" lon="-105.230575">
  <ele>1586.09</ele>
  <time>2026-08-28T19:09:14Z</time>
  <course>11.46</course>
  <speed>0.044721359549995794</speed>
  <fix>3d</fix>
</trkpt>
<trkpt lat="40.072842" lon="-105.230575">
  <ele>1586.09</ele>
  <time>2026-08-28T19:09:14Z</time>
  <course>266.03</course>
  <speed>0.0</speed>
  <fix>3d</fix>
</trkpt>
<trkpt lat="40.072842" lon="-105.230575">
  <ele>1586.09</ele>
  <time>2026-08-28T19:09:14Z</time>
  <course>11.46</course>
  <speed>0.044721359549995794</speed>
  <fix>3d</fix>
</trkpt>
<trkpt lat="40.072842" lon="-105.230575">
  <ele>1586.09</ele>
  <time>2026-08-28T19:09:14Z</time>
  <course>266.03</course>
  <speed>0.0</speed>
  <fix>3d</fix>
</trkpt>
<trkpt lat="40.072842" lon="-105.230575">
  <ele>1586.15</ele>
  <time>2026-08-28T19:09:14Z</time>
  <course>11.45</course>
  <speed>0.0</speed>
  <fix>3d</fix>
</trkpt>
<trkpt lat="40.072842" lon="-105.230575">
  <ele>1586.09</ele>
  <time>2026-08-28T19:09:14Z</time>
  <course>266.03</course>
  <speed>0.0</speed>
  <fix>3d</fix>
</trkpt>
<trkpt lat="40.072842" lon="-105.230575">
  <ele>1586.15</ele>
  <time>2026-08-28T19:09:14Z</time>
  <course>11.45</course>
  <speed>0.0</speed>
  <fix>3d</fix>
</trkpt>
<trkpt lat="40.072842" lon="-105.230575">
  <ele>1586.09</ele>
  <time>2026-08-28T19:09:14Z</time>
  <course>266.03</course>
  <speed>0.0</speed>
  <fix>3d</fix>
</trkpt>
<trkpt lat="40.072842" lon="-105.230575">
  <ele>1586.14</ele>
  <time>2026-08-28T19:09:14Z</time>
  <course>11.44</course>
  <speed>0.0</speed>
  <fix>3d</fix>
</trkpt>
<trkpt lat="40.072842" lon="-105.230575">
  <ele>1586.09</ele>
  <time>2026-08-28T19:09:14Z</time>
  <course>281.49</course>
  <speed>0.0</speed>
  <fix>3d</fix>
</trkpt>
<trkpt lat="40.072842" lon="-105.230575">
  <ele>1586.14</ele>
  <time>2026-08-28T19:09:14Z</time>
  <course>11.44</course>
  <speed>0.0</speed>
  <fix>3d</fix>
</trkpt>
<trkpt lat="40.072842" lon="-105.230575">
  <ele>1586.09</ele>
  <time>2026-08-28T19:09:14Z</time>
  <course>269.42</course>
  <speed>0.0</speed>
  <fix>3d</fix>
</trkpt>
<trkpt lat="40.072842" lon="-105.230575">
  <ele>1586.14</ele>
  <time>2026-08-28T19:09:14Z</time>
  <course>11.43</course>
  <speed>0.0</speed>
  <fix>3d</fix>
</trkpt>
<trkpt lat="40.072842" lon="-105.230575">
  <ele>1586.09</ele>
  <time>2026-08-28T19:09:14Z</time>
  <course>211.84</course>
  <speed>0.0</speed>
  <fix>3d</fix>
</trkpt>
<trkpt lat="40.072842" lon="-105.230575">
  <ele>1586.14</ele>
  <time>2026-08-28T19:09:14Z</time>
  <course>11.43</course>
  <speed>0.01</speed>
  <fix>3d</fix>
</trkpt>
<trkpt lat="40.072842" lon="-105.230575">
  <ele>1586.09</ele>
  <time>2026-08-28T19:09:14Z</time>
  <course>76.8</course>
  <speed>0.0</speed>
  <fix>3d</fix>
</trkpt>
<trkpt lat="40.072842" lon="-105.230575">
  <ele>1586.14</ele>
  <time>2026-08-28T19:09:14Z</time>
  <course>11.42</course>
  <speed>0.01</speed>
  <fix>3d</fix>
</trkpt>
<trkpt lat="40.072842" lon="-105.230575">
  <ele>1586.09</ele>
  <time>2026-08-28T19:09:14Z</time>
  <course>283.66</course>
  <speed>0.0</speed>
  <fix>3d</fix>
</trkpt>
<trkpt lat="40.072842" lon="-105.230575">
  <ele>1586.14</ele>
  <time>2026-08-28T19:09:14Z</time>
  <course>11.42</course>
  <speed>0.01</speed>
  <fix>3d</fix>
</trkpt>
<trkpt lat="40.072842" lon="-105.230575">
  <ele>1586.09</ele>
  <time>2026-08-28T19:09:14Z</time>
  <course>262.24</course>
  <speed>0.0</speed>
  <fix>3d</fix>
</trkpt>
<trkpt lat="40.072842" lon="-105.230575">
  <ele>1586.14</ele>
  <time>2026-08-28T19:09:14Z</time>
  <course>11.41</course>
  <speed>0.01414213562373095</speed>
  <fix>3d</fix>
</trkpt>
<trkpt lat="40.072842" lon="-105.230575">
  <ele>1586.09</ele>
  <time>2026-08-28T19:09:14Z</time>
  <course>263.53</course>
  <speed>0.0</speed>
  <fix>3d</fix>
</trkpt>
<trkpt lat="40.072842" lon="-105.230575">
  <ele>1586.14</ele>
  <time>2026-08-28T19:09:14Z</time>
  <course>11.41</course>
  <speed>0.01414213562373095</speed>
  <fix>3d</fix>
</trkpt>
<trkpt lat="40.072842" lon="-105.230575">
  <ele>1586.09</ele>
  <time>2026-08-28T19:09:14Z</time>
  <course>267.07</course>
  <speed>0.0</speed>
  <fix>3d</fix>
</trkpt>
<trkpt lat="40.072842" lon="-105.230575">
  <ele>1586.15</ele>
  <time>2026-08-28T19:09:14Z</time>
  <course>11.41</course>
  <speed>0.01414213562373095</speed>
  <fix>3d</fix>
</trkpt>
<trkpt lat="40.072842" lon="-105.230575">
  <ele>1586.09</ele>
  <time>2026-08-28T19:09:14Z</time>
  <course>266.23</course>
  <speed>0.0</speed>
  <fix>3d</fix>
</trkpt>
<trkpt lat="40.072842" lon="-105.230575">
  <ele>1586.15</ele>
  <time>2026-08-28T19:09:14Z</time>
  <course>11.4</course>
  <speed>0.022360679774997897</speed>
  <fix>3d</fix>
</trkpt>
<trkpt lat="40.072842" lon="-105.230575">
  <ele>1586.09</ele>
  <time>2026-08-28T19:09:14Z</time>
  <course>265.88</course>
  <speed>0.0</speed>
  <fix>3d</fix>
</trkpt>
<trkpt lat="40.072842" lon="-105.230575">
  <ele>1586.15</ele>
  <time>2026-08-28T19:09:14Z</time>
  <course>11.39</course>
  <speed>0.022360679774997897</speed>
  <fix>3d</fix>
</trkpt>
<trkpt lat="40.072842" lon="-105.230575">
  <ele>1586.09</ele>
  <time>2026-08-28T19:09:14Z</time>
  <course>254.5</course>
  <speed>0.0</speed>
  <fix>3d</fix>
</trkpt>
<trkpt lat="40.072842" lon="-105.230575">
  <ele>1586.16</ele>
  <time>2026-08-28T19:09:14Z</time>
  <course>11.36</course>
  <speed>0.022360679774997897</speed>
  <fix>3d</fix>
</trkpt>
<trkpt lat="40.072842" lon="-105.230575">
  <ele>1586.09</ele>
  <time>2026-08-28T19:09:14Z</time>
  <course>258.72</course>
  <speed>0.0</speed>
  <fix>3d</fix>
</trkpt>
<trkpt lat="40.072842" lon="-105.230575">
  <ele>1586.16</ele>
  <time>2026-08-28T19:09:14Z</time>
  <course>11.32</course>
  <speed>0.022360679774997897</speed>
  <fix>3d</fix>
</trkpt>
<trkpt lat="40.072842" lon="-105.230575">
  <ele>1586.09</ele>
  <time>2026-08-28T19:09:14Z</time>
  <course>265.43</course>
  <speed>0.0</speed>
  <fix>3d</fix>
</trkpt>
<trkpt lat="40.072842" lon="-105.230575">
  <ele>1586.16</ele>
  <time>2026-08-28T19:09:14Z</time>
  <course>11.28</course>
  <speed>0.01414213562373095</speed>
  <fix>3d</fix>
</trkpt>
<trkpt lat="40.072842" lon="-105.230575">
  <ele>1586.09</ele>
  <time>2026-08-28T19:09:14Z</time>
  <course>262.31</course>
  <speed>0.0</speed>
  <fix>3d</fix>
</trkpt>
<trkpt lat="40.072842" lon="-105.230575">
  <ele>1586.16</ele>
  <time>2026-08-28T19:09:14Z</time>
  <course>11.25</course>
  <speed>0.01414213562373095</speed>
  <fix>3d</fix>
</trkpt>
<trkpt lat="40.072842" lon="-105.230575">
  <ele>1586.09</ele>
  <time>2026-08-28T19:09:14Z</time>
  <course>264.16</course>
  <speed>0.0</speed>
  <fix>3d</fix>
</trkpt>
<trkpt lat="40.072842" lon="-105.230575">
  <ele>1586.16</ele>
  <time>2026-08-28T19:09:14Z</time>
  <course>11.21</course>
  <speed>0.01</speed>
  <fix>3d</fix>
</trkpt>
<trkpt lat="40.072842" lon="-105.230575">
  <ele>1586.09</ele>
  <time>2026-08-28T19:09:14Z</time>
  <course>264.19</course>
  <speed>0.0</speed>
  <fix>3d</fix>
</trkpt>
<trkpt lat="40.072842" lon="-105.230575">
  <ele>1586.16</ele>
  <time>2026-08-28T19:09:14Z</time>
  <course>11.17</course>
  <speed>0.0</speed>
  <fix>3d</fix>
</trkpt>
<trkpt lat="40.072842" lon="-105.230575">
  <ele>1586.09</ele>
  <time>2026-08-28T19:09:14Z</time>
  <course>263.9</course>
  <speed>0.0</speed>
  <fix>3d</fix>
</trkpt>
<trkpt lat="40.072842" lon="-105.230575">
  <ele>1586.16</ele>
  <time>2026-08-28T19:09:14Z</time>
  <course>11.14</course>
  <speed>0.0</speed>
  <fix>3d</fix>
</trkpt>
<trkpt lat="40.072842" lon="-105.230575">
  <ele>1586.09</ele>
  <time>2026-08-28T19:09:14Z</time>
  <course>263.89</course>
  <speed>0.0</speed>
  <fix>3d</fix>
</trkpt>
<trkpt lat="40.072842" lon="-105.230575">
  <ele>1586.16</ele>
  <time>2026-08-28T19:09:14Z</time>
  <course>11.1</course>
  <speed>0.0</speed>
  <fix>3d</fix>
</trkpt>
<trkpt lat="40.072842" lon="-105.230575">
  <ele>1586.09</ele>
  <time>2026-08-28T19:09:14Z</time>
  <course>263.89</course>
  <speed>0.0</speed>
  <fix>3d</fix>
</trkpt>
<trkpt lat="40.072842" lon="-105.230575">
  <ele>1586.16</ele>
  <time>2026-08-28T19:09:14Z</time>
  <course>11.07</course>
  <speed>0.0</speed>
  <fix>3d</fix>
</trkpt>
<trkpt lat="40.072842" lon="-105.230575">
  <ele>1586.09</ele>
  <time>2026-08-28T19:09:14Z</time>
  <course>350.17</course>
  <speed>0.0</speed>
  <fix>3d</fix>
</trkpt>
<trkpt lat="40.072842" lon="-105.230575">
  <ele>1586.16</ele>
  <time>2026-08-28T19:09:14Z</time>
  <course>11.03</course>
  <speed>0.0</speed>
  <fix>3d</fix>
</trkpt>
<trkpt lat="40.072842" lon="-105.230575">
  <ele>1586.09</ele>
  <time>2026-08-28T19:09:14Z</time>
  <course>326.6</course>
  <speed>0.0</speed>
  <fix>3d</fix>
</trkpt>
<trkpt lat="40.072842" lon="-105.230575">
  <ele>1586.16</ele>
  <time>2026-08-28T19:09:14Z</time>
  <course>10.99</course>
  <speed>0.0</speed>
  <fix>3d</fix>
</trkpt>
<trkpt lat="40.072842" lon="-105.230575">
  <ele>1586.09</ele>
  <time>2026-08-28T19:09:14Z</time>
  <course>295.23</course>
  <speed>0.0</speed>
  <fix>3d</fix>
</trkpt>
<trkpt lat="40.072842" lon="-105.230575">
  <ele>1586.16</ele>
  <time>2026-08-28T19:09:14Z</time>
  <course>10.96</course>
  <speed>0.0</speed>
  <fix>3d</fix>
</trkpt>
<trkpt lat="40.072842" lon="-105.230575">
  <ele>1586.09</ele>
  <time>2026-08-28T19:09:14Z</time>
  <course>166.86</course>
  <speed>0.0</speed>
  <fix>3d</fix>
</trkpt>
<trkpt lat="40.072842" lon="-105.230575">
  <ele>1586.16</ele>
  <time>2026-08-28T19:09:14Z</time>
  <course>10.92</course>
  <speed>0.0</speed>
  <fix>3d</fix>
</trkpt>
<trkpt lat="40.072842" lon="-105.230575">
  <ele>1586.09</ele>
  <time>2026-08-28T19:09:14Z</time>
  <course>294.74</course>
  <speed>0.0</speed>
  <fix>3d</fix>
</trkpt>
<trkpt lat="40.072842" lon="-105.230575">
  <ele>1586.16</ele>
  <time>2026-08-28T19:09:14Z</time>
  <course>10.88</course>
  <speed>0.0</speed>
  <fix>3d</fix>
</trkpt>
<trkpt lat="40.072842" lon="-105.230575">
  <ele>1586.09</ele>
  <time>2026-08-28T19:09:14Z</time>
  <course>299.1</course>
  <speed>0.0</speed>
  <fix>3d</fix>
</trkpt>
<trkpt lat="40.072842" lon="-105.230575">
  <ele>1586.16</ele>
  <time>2026-08-28T19:09:14Z</time>
  <course>10.85</course>
  <speed>0.0</speed>
  <fix>3d</fix>
</trkpt>
<trkpt lat="40.072842" lon="-105.230575">
  <ele>1586.09</ele>
  <time>2026-08-28T19:09:14Z</time>
  <course>263.23</course>
  <speed>0.0</speed>
  <fix>3d</fix>
</trkpt>
<trkpt lat="40.072842" lon="-105.230575">
  <ele>1586.16</ele>
  <time>2026-08-28T19:09:14Z</time>
  <course>10.81</course>
  <speed>0.0</speed>
  <fix>3d</fix>
</trkpt>
<trkpt lat="40.072842" lon="-105.230575">
  <ele>1586.09</ele>
  <time>2026-08-28T19:09:14Z</time>
  <course>256.07</course>
  <speed>0.0</speed>
  <fix>3d</fix>
</trkpt>
<trkpt lat="40.072842" lon="-105.230575">
  <ele>1586.16</ele>
  <time>2026-08-28T19:09:14Z</time>
  <course>10.77</course>
  <speed>0.0</speed>
  <fix>3d</fix>
</trkpt>
<trkpt lat="40.072842" lon="-105.230575">
  <ele>1586.09</ele>
  <time>2026-08-28T19:09:14Z</time>
  <course>209.36</course>
  <speed>0.0</speed>
  <fix>3d</fix>
</trkpt>
<trkpt lat="40.072842" lon="-105.230575">
  <ele>1586.16</ele>
  <time>2026-08-28T19:09:14Z</time>
  <course>10.73</course>
  <speed>0.0</speed>
  <fix>3d</fix>
</trkpt>
<trkpt lat="40.072842" lon="-105.230575">
  <ele>1586.09</ele>
  <time>2026-08-28T19:09:14Z</time>
  <course>320.19</course>
  <speed>0.0</speed>
  <fix>3d</fix>
</trkpt>
<trkpt lat="40.072842" lon="-105.230575">
  <ele>1586.16</ele>
  <time>2026-08-28T19:09:14Z</time>
  <course>10.69</course>
  <speed>0.0</speed>
  <fix>3d</fix>
</trkpt>
<trkpt lat="40.072842" lon="-105.230575">
  <ele>1586.09</ele>
  <time>2026-08-28T19:09:14Z</time>
  <course>306.56</course>
  <speed>0.0</speed>
  <fix>3d</fix>
</trkpt>
<trkpt lat="40.072842" lon="-105.230575">
  <ele>1586.16</ele>
  <time>2026-08-28T19:09:14Z</time>
  <course>10.65</course>
  <speed>0.0</speed>
  <fix>3d</fix>
</trkpt>
<trkpt lat="40.072842" lon="-105.230575">
  <ele>1586.09</ele>
  <time>2026-08-28T19:09:14Z</time>
  <course>274.07</course>
  <speed>0.0</speed>
  <fix>3d</fix>
</trkpt>
<trkpt lat="40.072842" lon="-105.230575">
  <ele>1586.16</ele>
  <time>2026-08-28T19:09:14Z</time>
  <course>10.61</course>
  <speed>0.0</speed>
  <fix>3d</fix>
</trkpt>
<trkpt lat="40.072842" lon="-105.230575">
  <ele>1586.09</ele>
  <time>2026-08-28T19:09:14Z</time>
  <course>267.08</course>
  <speed>0.0</speed>
  <fix>3d</fix>
</trkpt>
<trkpt lat="40.072842" lon="-105.230575">
  <ele>1586.16</ele>
  <time>2026-08-28T19:09:14Z</time>
  <course>10.57</course>
  <speed>0.0</speed>
  <fix>3d</fix>
</trkpt>
<trkpt lat="40.072842" lon="-105.230575">
  <ele>1586.09</ele>
  <time>2026-08-28T19:09:14Z</time>
  <course>261.48</course>
  <speed>0.0</speed>
  <fix>3d</fix>
</trkpt>
<trkpt lat="40.072842" lon="-105.230575">
  <ele>1586.16</ele>
  <time>2026-08-28T19:09:14Z</time>
  <course>10.53</course>
  <speed>0.0</speed>
  <fix>3d</fix>
</trkpt>
<trkpt lat="40.072842" lon="-105.230575">
  <ele>1586.09</ele>
  <time>2026-08-28T19:09:14Z</time>
  <course>271.25</course>
  <speed>0.0</speed>
  <fix>3d</fix>
</trkpt>
<trkpt lat="40.072842" lon="-105.230575">
  <ele>1586.16</ele>
  <time>2026-08-28T19:09:14Z</time>
  <course>10.49</course>
  <speed>0.0</speed>
  <fix>3d</fix>
</trkpt>
<trkpt lat="40.072842" lon="-105.230575">
  <ele>1586.09</ele>
  <time>2026-08-28T19:09:14Z</time>
  <course>287.35</course>
  <speed>0.0</speed>
  <fix>3d</fix>
</trkpt>
<trkpt lat="40.072842" lon="-105.230575">
  <ele>1586.16</ele>
  <time>2026-08-28T19:09:14Z</time>
  <course>10.45</course>
  <speed>0.0</speed>
  <fix>3d</fix>
</trkpt>
<trkpt lat="40.072842" lon="-105.230575">
  <ele>1586.09</ele>
  <time>2026-08-28T19:09:14Z</time>
  <course>295.56</course>
  <speed>0.0</speed>
  <fix>3d</fix>
</trkpt>
<trkpt lat="40.072842" lon="-105.230575">
  <ele>1586.16</ele>
  <time>2026-08-28T19:09:14Z</time>
  <course>10.41</course>
  <speed>0.0</speed>
  <fix>3d</fix>
</trkpt>
<trkpt lat="40.072842" lon="-105.230575">
  <ele>1586.09</ele>
  <time>2026-08-28T19:09:14Z</time>
  <course>273.04</course>
  <speed>0.0</speed>
  <fix>3d</fix>
</trkpt>
<trkpt lat="40.072842" lon="-105.230575">
  <ele>1586.17</ele>
  <time>2026-08-28T19:09:14Z</time>
  <course>10.37</course>
  <speed>0.0</speed>
  <fix>3d</fix>
</trkpt>
<trkpt lat="40.072842" lon="-105.230575">
  <ele>1586.09</ele>
  <time>2026-08-28T19:09:14Z</time>
  <course>259.86</course>
  <speed>0.0</speed>
  <fix>3d</fix>
</trkpt>
<trkpt lat="40.072842" lon="-105.230575">
  <ele>1586.17</ele>
  <time>2026-08-28T19:09:14Z</time>
  <course>10.33</course>
  <speed>0.0</speed>
  <fix>3d</fix>
</trkpt>
<trkpt lat="40.072842" lon="-105.230575">
  <ele>1586.09</ele>
  <time>2026-08-28T19:09:14Z</time>
  <course>268.71</course>
  <speed>0.0</speed>
  <fix>3d</fix>
</trkpt>
<trkpt lat="40.072842" lon="-105.230575">
  <ele>1586.17</ele>
  <time>2026-08-28T19:09:14Z</time>
  <course>10.29</course>
  <speed>0.01</speed>
  <fix>3d</fix>
</trkpt>
<trkpt lat="40.072842" lon="-105.230575">
  <ele>1586.09</ele>
  <time>2026-08-28T19:09:14Z</time>
  <course>271.88</course>
  <speed>0.0</speed>
  <fix>3d</fix>
</trkpt>
<trkpt lat="40.072842" lon="-105.230575">
  <ele>1586.17</ele>
  <time>2026-08-28T19:09:14Z</time>
  <course>10.24</course>
  <speed>0.01</speed>
  <fix>3d</fix>
</trkpt>
<trkpt lat="40.072842" lon="-105.230575">
  <ele>1586.09</ele>
  <time>2026-08-28T19:09:14Z</time>
  <course>288.76</course>
  <speed>0.0</speed>
  <fix>3d</fix>
</trkpt>
<trkpt lat="40.072842" lon="-105.230575">
  <ele>1586.18</ele>
  <time>2026-08-28T19:09:14Z</time>
  <course>10.2</course>
  <speed>0.01</speed>
  <fix>3d</fix>
</trkpt>
<trkpt lat="40.072842" lon="-105.230575">
  <ele>1586.09</ele>
  <time>2026-08-28T19:09:14Z</time>
  <course>284.12</course>
  <speed>0.0</speed>
  <fix>3d</fix>
</trkpt>
<trkpt lat="40.072842" lon="-105.230575">
  <ele>1586.18</ele>
  <time>2026-08-28T19:09:14Z</time>
  <course>10.16</course>
  <speed>0.01</speed>
  <fix>3d</fix>
</trkpt>
<trkpt lat="40.072842" lon="-105.230575">
  <ele>1586.09</ele>
  <time>2026-08-28T19:09:14Z</time>
  <course>243.76</course>
  <speed>0.0</speed>
  <fix>3d</fix>
</trkpt>
<trkpt lat="40.072842" lon="-105.230575">
  <ele>1586.18</ele>
  <time>2026-08-28T19:09:14Z</time>
  <course>10.12</course>
  <speed>0.01</speed>
  <fix>3d</fix>
</trkpt>
<trkpt lat="40.072842" lon="-105.230575">
  <ele>1586.09</ele>
  <time>2026-08-28T19:09:14Z</time>
  <course>237.23</course>
  <speed>0.0</speed>
  <fix>3d</fix>
</trkpt>
<trkpt lat="40.072842" lon="-105.230575">
  <ele>1586.18</ele>
  <time>2026-08-28T19:09:14Z</time>
  <course>10.08</course>
  <speed>0.01414213562373095</speed>
  <fix>3d</fix>
</trkpt>
<trkpt lat="40.072842" lon="-105.230575">
  <ele>1586.09</ele>
  <time>2026-08-28T19:09:14Z</time>
  <course>274.69</course>
  <speed>0.0</speed>
  <fix>3d</fix>
</trkpt>
<trkpt lat="40.072842" lon="-105.230575">
  <ele>1586.18</ele>
  <time>2026-08-28T19:09:14Z</time>
  <course>10.04</course>
  <speed>0.01414213562373095</speed>
  <fix>3d</fix>
</trkpt>
<trkpt lat="40.072842" lon="-105.230575">
  <ele>1586.09</ele>
  <time>2026-08-28T19:09:14Z</time>
  <course>275.93</course>
  <speed>0.0</speed>
  <fix>3d</fix>
</trkpt>
<trkpt lat="40.072842" lon="-105.230575">
  <ele>1586.18</ele>
  <time>2026-08-28T19:09:14Z</time>
  <course>10.0</course>
  <speed>0.01414213562373095</speed>
  <fix>3d</fix>
</trkpt>
<trkpt lat="40.072842" lon="-105.230575">
  <ele>1586.09</ele>
  <time>2026-08-28T19:09:14Z</time>
  <course>279.7</course>
  <speed>0.0</speed>
  <fix>3d</fix>
</trkpt>
<trkpt lat="40.072842" lon="-105.230575">
  <ele>1586.18</ele>
  <time>2026-08-28T19:09:14Z</time>
  <course>9.95</course>
  <speed>0.01414213562373095</speed>
  <fix>3d</fix>
</trkpt>
<trkpt lat="40.072842" lon="-105.230575">
  <ele>1586.09</ele>
  <time>2026-08-28T19:09:14Z</time>
  <course>278.98</course>
  <speed>0.0</speed>
  <fix>3d</fix>
</trkpt>
<trkpt lat="40.072842" lon="-105.230575">
  <ele>1586.18</ele>
  <time>2026-08-28T19:09:14Z</time>
  <course>9.91</course>
  <speed>0.01414213562373095</speed>
  <fix>3d</fix>
</trkpt>
<trkpt lat="40.072842" lon="-105.230575">
  <ele>1586.09</ele>
  <time>2026-08-28T19:09:14Z</time>
  <course>266.04</course>
  <speed>0.0</speed>
  <fix>3d</fix>
</trkpt>
<trkpt lat="40.0728419" lon="-105.230575">
  <ele>1586.18</ele>
  <time>2026-08-28T19:09:14Z</time>
  <course>9.87</course>
  <speed>0.01414213562373095</speed>
  <fix>3d</fix>
</trkpt>
<trkpt lat="40.072842" lon="-105.230575">
  <ele>1586.09</ele>
  <time>2026-08-28T19:09:14Z</time>
  <course>268.92</course>
  <speed>0.0</speed>
  <fix>3d</fix>
</trkpt>
<trkpt lat="40.0728419" lon="-105.230575">
  <ele>1586.17</ele>
  <time>2026-08-28T19:09:14Z</time>
  <course>9.83</course>
  <speed>0.01414213562373095</speed>
  <fix>3d</fix>
</trkpt>
<trkpt lat="40.072842" lon="-105.230575">
  <ele>1586.09</ele>
  <time>2026-08-28T19:09:14Z</time>
  <course>269.6</course>
  <speed>0.0</speed>
  <fix>3d</fix>
</trkpt>
<trkpt lat="40.0728419" lon="-105.2305749">
  <ele>1586.17</ele>
  <time>2026-08-28T19:09:14Z</time>
  <course>9.78</course>
  <speed>0.022360679774997897</speed>
  <fix>3d</fix>
</trkpt>
<trkpt lat="40.072842" lon="-105.230575">
  <ele>1586.09</ele>
  <time>2026-08-28T19:09:14Z</time>
  <course>278.27</course>
  <speed>0.0</speed>
  <fix>3d</fix>
</trkpt>
<trkpt lat="40.0728419" lon="-105.2305749">
  <ele>1586.17</ele>
  <time>2026-08-28T19:09:14Z</time>
  <course>9.74</course>
  <speed>0.022360679774997897</speed>
  <fix>3d</fix>
</trkpt>
<trkpt lat="40.072842" lon="-105.230575">
  <ele>1586.09</ele>
  <time>2026-08-28T19:09:14Z</time>
  <course>284.54</course>
  <speed>0.0</speed>
  <fix>3d</fix>
</trkpt>
<trkpt lat="40.0728419" lon="-105.2305749">
  <ele>1586.17</ele>
  <time>2026-08-28T19:09:14Z</time>
  <course>9.7</course>
  <speed>0.022360679774997897</speed>
  <fix>3d</fix>
</trkpt>
<trkpt lat="40.072842" lon="-105.230575">
  <ele>1586.09</ele>
  <time>2026-08-28T19:09:14Z</time>
  <course>271.79</course>
  <speed>0.0</speed>
  <fix>3d</fix>
</trkpt>
<trkpt lat="40.0728419" lon="-105.2305749">
  <ele>1586.17</ele>
  <time>2026-08-28T19:09:14Z</time>
  <course>9.66</course>
  <speed>0.022360679774997897</speed>
  <fix>3d</fix>
</trkpt>
<trkpt lat="40.072842" lon="-105.230575">
  <ele>1586.09</ele>
  <time>2026-08-28T19:09:14Z</time>
  <course>266.22</course>
  <speed>0.0</speed>
  <fix>3d</fix>
</trkpt>
<trkpt lat="40.0728419" lon="-105.2305749">
  <ele>1586.17</ele>
  <time>2026-08-28T19:09:14Z</time>
  <course>9.61</course>
  <speed>0.022360679774997897</speed>
  <fix>3d</fix>
</trkpt>
<trkpt lat="40.072842" lon="-105.230575">
  <ele>1586.09</ele>
  <time>2026-08-28T19:09:14Z</time>
  <course>268.27</course>
  <speed>0.0</speed>
  <fix>3d</fix>
</trkpt>
<trkpt lat="40.0728419" lon="-105.2305749">
  <ele>1586.17</ele>
  <time>2026-08-28T19:09:14Z</time>
  <course>9.57</course>
  <speed>0.022360679774997897</speed>
  <fix>3d</fix>
</trkpt>
<trkpt lat="40.072842" lon="-105.230575">
  <ele>1586.09</ele>
  <time>2026-08-28T19:09:14Z</time>
  <course>266.58</course>
  <speed>0.0</speed>
  <fix>3d</fix>
</trkpt>
<trkpt lat="40.0728419" lon="-105.2305749">
  <ele>1586.18</ele>
  <time>2026-08-28T19:09:14Z</time>
  <course>9.53</course>
  <speed>0.022360679774997897</speed>
  <fix>3d</fix>
</trkpt>
<trkpt lat="40.072842" lon="-105.230575">
  <ele>1586.09</ele>
  <time>2026-08-28T19:09:14Z</time>
  <course>283.83</course>
  <speed>0.0</speed>
  <fix>3d</fix>
</trkpt>
<trkpt lat="40.0728419" lon="-105.2305749">
  <ele>1586.18</ele>
  <time>2026-08-28T19:09:14Z</time>
  <course>9.48</course>
  <speed>0.022360679774997897</speed>
  <fix>3d</fix>
</trkpt>
<trkpt lat="40.072842" lon="-105.230575">
  <ele>1586.09</ele>
  <time>2026-08-28T19:09:14Z</time>
  <course>285.21</course>
  <speed>0.0</speed>
  <fix>3d</fix>
</trkpt>
<trkpt lat="40.0728419" lon="-105.2305749">
  <ele>1586.18</ele>
  <time>2026-08-28T19:09:14Z</time>
  <course>9.44</course>
  <speed>0.022360679774997897</speed>
  <fix>3d</fix>
</trkpt>
<trkpt lat="40.072842" lon="-105.230575">
  <ele>1586.09</ele>
  <time>2026-08-28T19:09:14Z</time>
  <course>268.88</course>
  <speed>0.0</speed>
  <fix>3d</fix>
</trkpt>
<trkpt lat="40.0728419" lon="-105.2305749">
  <ele>1586.18</ele>
  <time>2026-08-28T19:09:14Z</time>
  <course>9.4</course>
  <speed>0.022360679774997897</speed>
  <fix>3d</fix>
</trkpt>
<trkpt lat="40.072842" lon="-105.230575">
  <ele>1586.09</ele>
  <time>2026-08-28T19:09:14Z</time>
  <course>268.92</course>
  <speed>0.0</speed>
  <fix>3d</fix>
</trkpt>
<trkpt lat="40.0728419" lon="-105.2305749">
  <ele>1586.18</ele>
  <time>2026-08-28T19:09:14Z</time>
  <course>9.35</course>
  <speed>0.022360679774997897</speed>
  <fix>3d</fix>
</trkpt>
<trkpt lat="40.072842" lon="-105.230575">
  <ele>1586.09</ele>
  <time>2026-08-28T19:09:14Z</time>
  <course>268.73</course>
  <speed>0.0</speed>
  <fix>3d</fix>
</trkpt>
<trkpt lat="40.0728419" lon="-105.2305749">
  <ele>1586.18</ele>
  <time>2026-08-28T19:09:14Z</time>
  <course>9.31</course>
  <speed>0.022360679774997897</speed>
  <fix>3d</fix>
</trkpt>
<trkpt lat="40.072842" lon="-105.230575">
  <ele>1586.09</ele>
  <time>2026-08-28T19:09:14Z</time>
  <course>266.98</course>
  <speed>0.0</speed>
  <fix>3d</fix>
</trkpt>
<trkpt lat="40.0728419" lon="-105.2305749">
  <ele>1586.18</ele>
  <time>2026-08-28T19:09:14Z</time>
  <course>9.27</course>
  <speed>0.022360679774997897</speed>
  <fix>3d</fix>
</trkpt>
<trkpt lat="40.072842" lon="-105.230575">
  <ele>1586.09</ele>
  <time>2026-08-28T19:09:14Z</time>
  <course>271.46</course>
  <speed>0.0</speed>
  <fix>3d</fix>
</trkpt>
<trkpt lat="40.0728419" lon="-105.2305749">
  <ele>1586.18</ele>
  <time>2026-08-28T19:09:14Z</time>
  <course>9.22</course>
  <speed>0.022360679774997897</speed>
  <fix>3d</fix>
</trkpt>
<trkpt lat="40.072842" lon="-105.230575">
  <ele>1586.09</ele>
  <time>2026-08-28T19:09:14Z</time>
  <course>277.76</course>
  <speed>0.0</speed>
  <fix>3d</fix>
</trkpt>
<trkpt lat="40.0728419" lon="-105.2305749">
  <ele>1586.18</ele>
  <time>2026-08-28T19:09:14Z</time>
  <course>9.18</course>
  <speed>0.022360679774997897</speed>
  <fix>3d</fix>
</trkpt>
<trkpt lat="40.072842" lon="-105.230575">
  <ele>1586.09</ele>
  <time>2026-08-28T19:09:14Z</time>
  <course>275.28</course>
  <speed>0.0</speed>
  <fix>3d</fix>
</trkpt>
<trkpt lat="40.0728419" lon="-105.2305749">
  <ele>1586.18</ele>
  <time>2026-08-28T19:09:14Z</time>
  <course>9.14</course>
  <speed>0.022360679774997897</speed>
  <fix>3d</fix>
</trkpt>
<trkpt lat="40.072842" lon="-105.230575">
  <ele>1586.09</ele>
  <time>2026-08-28T19:09:14Z</time>
  <course>266.97</course>
  <speed>0.0</speed>
  <fix>3d</fix>
</trkpt>
<trkpt lat="40.0728419" lon="-105.2305749">
  <ele>1586.18</ele>
  <time>2026-08-28T19:09:14Z</time>
  <course>9.09</course>
  <speed>0.022360679774997897</speed>
  <fix>3d</fix>
</trkpt>
<trkpt lat="40.072842" lon="-105.230575">
  <ele>1586.09</ele>
  <time>2026-08-28T19:09:14Z</time>
  <course>267.21</course>
  <speed>0.0</speed>
  <fix>3d</fix>
</trkpt>
<trkpt lat="40.0728419" lon="-105.2305749">
  <ele>1586.18</ele>
  <time>2026-08-28T19:09:14Z</time>
  <course>9.05</course>
  <speed>0.022360679774997897</speed>
  <fix>3d</fix>
</trkpt>
<trkpt lat="40.072842" lon="-105.230575">
  <ele>1586.09</ele>
  <time>2026-08-28T19:09:14Z</time>
  <course>267.51</course>
  <speed>0.0</speed>
  <fix>3d</fix>
</trkpt>
<trkpt lat="40.0728419" lon="-105.2305749">
  <ele>1586.18</ele>
  <time>2026-08-28T19:09:14Z</time>
  <course>9.01</course>
  <speed>0.022360679774997897</speed>
  <fix>3d</fix>
</trkpt>
<trkpt lat="40.072842" lon="-105.230575">
  <ele>1586.09</ele>
  <time>2026-08-28T19:09:14Z</time>
  <course>269.06</course>
  <speed>0.0</speed>
  <fix>3d</fix>
</trkpt>
<trkpt lat="40.0728419" lon="-105.2305749">
  <ele>1586.18</ele>
  <time>2026-08-28T19:09:14Z</time>
  <course>8.96</course>
  <speed>0.022360679774997897</speed>
  <fix>3d</fix>
</trkpt>
<trkpt lat="40.072842" lon="-105.230575">
  <ele>1586.09</ele>
  <time>2026-08-28T19:09:14Z</time>
  <course>268.81</course>
  <speed>0.0</speed>
  <fix>3d</fix>
</trkpt>
<trkpt lat="40.0728419" lon="-105.2305749">
  <ele>1586.18</ele>
  <time>2026-08-28T19:09:14Z</time>
  <course>8.92</course>
  <speed>0.022360679774997897</speed>
  <fix>3d</fix>
</trkpt>
<trkpt lat="40.072842" lon="-105.230575">
  <ele>1586.09</ele>
  <time>2026-08-28T19:09:14Z</time>
  <course>278.74</course>
  <speed>0.0</speed>
  <fix>3d</fix>
</trkpt>
<trkpt lat="40.0728419" lon="-105.2305749">
  <ele>1586.18</ele>
  <time>2026-08-28T19:09:14Z</time>
  <course>8.88</course>
  <speed>0.022360679774997897</speed>
  <fix>3d</fix>
</trkpt>
<trkpt lat="40.072842" lon="-105.230575">
  <ele>1586.09</ele>
  <time>2026-08-28T19:09:14Z</time>
  <course>284.44</course>
  <speed>0.0</speed>
  <fix>3d</fix>
</trkpt>
<trkpt lat="40.0728419" lon="-105.2305749">
  <ele>1586.18</ele>
  <time>2026-08-28T19:09:14Z</time>
  <course>8.84</course>
  <speed>0.022360679774997897</speed>
  <fix>3d</fix>
</trkpt>
<trkpt lat="40.072842" lon="-105.230575">
  <ele>1586.09</ele>
  <time>2026-08-28T19:09:14Z</time>
  <course>265.81</course>
  <speed>0.0</speed>
  <fix>3d</fix>
</trkpt>
<trkpt lat="40.0728419" lon="-105.2305749">
  <ele>1586.18</ele>
  <time>2026-08-28T19:09:14Z</time>
  <course>8.79</course>
  <speed>0.022360679774997897</speed>
  <fix>3d</fix>
</trkpt>
<trkpt lat="40.072842" lon="-105.230575">
  <ele>1586.09</ele>
  <time>2026-08-28T19:09:14Z</time>
  <course>264.0</course>
  <speed>0.0</speed>
  <fix>3d</fix>
</trkpt>
<trkpt lat="40.0728419" lon="-105.2305749">
  <ele>1586.18</ele>
  <time>2026-08-28T19:09:14Z</time>
  <course>8.75</course>
  <speed>0.022360679774997897</speed>
  <fix>3d</fix>
</trkpt>
<trkpt lat="40.072842" lon="-105.230575">
  <ele>1586.09</ele>
  <time>2026-08-28T19:09:14Z</time>
  <course>269.15</course>
  <speed>0.0</speed>
  <fix>3d</fix>
</trkpt>
<trkpt lat="40.0728419" lon="-105.2305749">
  <ele>1586.18</ele>
  <time>2026-08-28T19:09:14Z</time>
  <course>8.71</course>
  <speed>0.022360679774997897</speed>
  <fix>3d</fix>
</trkpt>
<trkpt lat="40.072842" lon="-105.230575">
  <ele>1586.09</ele>
  <time>2026-08-28T19:09:14Z</time>
  <course>269.31</course>
  <speed>0.0</speed>
  <fix>3d</fix>
</trkpt>
<trkpt lat="40.0728419" lon="-105.2305749">
  <ele>1586.18</ele>
  <time>2026-08-28T19:09:14Z</time>
  <course>8.67</course>
  <speed>0.022360679774997897</speed>
  <fix>3d</fix>
</trkpt>
<trkpt lat="40.072842" lon="-105.230575">
  <ele>1586.09</ele>
  <time>2026-08-28T19:09:14Z</time>
  <course>268.8</course>
  <speed>0.0</speed>
  <fix>3d</fix>
</trkpt>
<trkpt lat="40.0728419" lon="-105.2305749">
  <ele>1586.18</ele>
  <time>2026-08-28T19:09:14Z</time>
  <course>8.63</course>
  <speed>0.022360679774997897</speed>
  <fix>3d</fix>
</trkpt>
<trkpt lat="40.072842" lon="-105.230575">
  <ele>1586.09</ele>
  <time>2026-08-28T19:09:14Z</time>
  <course>268.55</course>
  <speed>0.0</speed>
  <fix>3d</fix>
</trkpt>
<trkpt lat="40.0728419" lon="-105.2305749">
  <ele>1586.17</ele>
  <time>2026-08-28T19:09:14Z</time>
  <course>8.59</course>
  <speed>0.022360679774997897</speed>
  <fix>3d</fix>
</trkpt>
<trkpt lat="40.072842" lon="-105.230575">
  <ele>1586.09</ele>
  <time>2026-08-28T19:09:14Z</time>
  <course>284.29</course>
  <speed>0.0</speed>
  <fix>3d</fix>
</trkpt>
<trkpt lat="40.0728419" lon="-105.2305749">
  <ele>1586.17</ele>
  <time>2026-08-28T19:09:14Z</time>
  <course>8.55</course>
  <speed>0.022360679774997897</speed>
  <fix>3d</fix>
</trkpt>
<trkpt lat="40.072842" lon="-105.230575">
  <ele>1586.09</ele>
  <time>2026-08-28T19:09:14Z</time>
  <course>277.2</course>
  <speed>0.0</speed>
  <fix>3d</fix>
</trkpt>
<trkpt lat="40.0728419" lon="-105.2305749">
  <ele>1586.17</ele>
  <time>2026-08-28T19:09:14Z</time>
  <course>8.51</course>
  <speed>0.022360679774997897</speed>
  <fix>3d</fix>
</trkpt>
<trkpt lat="40.072842" lon="-105.230575">
  <ele>1586.09</ele>
  <time>2026-08-28T19:09:14Z</time>
  <course>265.0</course>
  <speed>0.0</speed>
  <fix>3d</fix>
</trkpt>
<trkpt lat="40.0728419" lon="-105.2305749">
  <ele>1586.17</ele>
  <time>2026-08-28T19:09:14Z</time>
  <course>8.47</course>
  <speed>0.022360679774997897</speed>
  <fix>3d</fix>
</trkpt>
<trkpt lat="40.072842" lon="-105.230575">
  <ele>1586.09</ele>
  <time>2026-08-28T19:09:14Z</time>
  <course>265.5</course>
  <speed>0.0</speed>
  <fix>3d</fix>
</trkpt>
<trkpt lat="40.0728419" lon="-105.2305749">
  <ele>1586.17</ele>
  <time>2026-08-28T19:09:14Z</time>
  <course>8.44</course>
  <speed>0.022360679774997897</speed>
  <fix>3d</fix>
</trkpt>
<trkpt lat="40.072842" lon="-105.230575">
  <ele>1586.09</ele>
  <time>2026-08-28T19:09:14Z</time>
  <course>269.95</course>
  <speed>0.0</speed>
  <fix>3d</fix>
</trkpt>
<trkpt lat="40.0728419" lon="-105.2305749">
  <ele>1586.18</ele>
  <time>2026-08-28T19:09:14Z</time>
  <course>8.4</course>
  <speed>0.022360679774997897</speed>
  <fix>3d</fix>
</trkpt>
<trkpt lat="40.072842" lon="-105.230575">
  <ele>1586.09</ele>
  <time>2026-08-28T19:09:14Z</time>
  <course>269.28</course>
  <speed>0.0</speed>
  <fix>3d</fix>
</trkpt>
<trkpt lat="40.0728419" lon="-105.2305749">
  <ele>1586.18</ele>
  <time>2026-08-28T19:09:14Z</time>
  <course>8.36</course>
  <speed>0.022360679774997897</speed>
  <fix>3d</fix>
</trkpt>
<trkpt lat="40.072842" lon="-105.230575">
  <ele>1586.09</ele>
  <time>2026-08-28T19:09:14Z</time>
  <course>268.53</course>
  <speed>0.0</speed>
  <fix>3d</fix>
</trkpt>
<trkpt lat="40.0728419" lon="-105.2305749">
  <ele>1586.18</ele>
  <time>2026-08-28T19:09:14Z</time>
  <course>8.32</course>
  <speed>0.022360679774997897</speed>
  <fix>3d</fix>
</trkpt>
<trkpt lat="40.072842" lon="-105.230575">
  <ele>1586.09</ele>
  <time>2026-08-28T19:09:14Z</time>
  <course>266.37</course>
  <speed>0.0</speed>
  <fix>3d</fix>
</trkpt>
<trkpt lat="40.0728419" lon="-105.2305749">
  <ele>1586.18</ele>
  <time>2026-08-28T19:09:14Z</time>
  <course>8.28</course>
  <speed>0.022360679774997897</speed>
  <fix>3d</fix>
</trkpt>
<trkpt lat="40.072842" lon="-105.230575">
  <ele>1586.09</ele>
  <time>2026-08-28T19:09:14Z</time>
  <course>252.13</course>
  <speed>0.0</speed>
  <fix>3d</fix>
</trkpt>
<trkpt lat="40.0728419" lon="-105.2305749">
  <ele>1586.18</ele>
  <time>2026-08-28T19:09:14Z</time>
  <course>8.25</course>
  <speed>0.022360679774997897</speed>
  <fix>3d</fix>
</trkpt>
<trkpt lat="40.072842" lon="-105.230575">
  <ele>1586.09</ele>
  <time>2026-08-28T19:09:14Z</time>
  <course>271.57</course>
  <speed>0.0</speed>
  <fix>3d</fix>
</trkpt>
<trkpt lat="40.0728419" lon="-105.2305749">
  <ele>1586.18</ele>
  <time>2026-08-28T19:09:14Z</time>
  <course>8.21</course>
  <speed>0.022360679774997897</speed>
  <fix>3d</fix>
</trkpt>
<trkpt lat="40.072842" lon="-105.230575">
  <ele>1586.09</ele>
  <time>2026-08-28T19:09:14Z</time>
  <course>278.27</course>
  <speed>0.0</speed>
  <fix>3d</fix>
</trkpt>
<trkpt lat="40.0728419" lon="-105.2305749">
  <ele>1586.18</ele>
  <time>2026-08-28T19:09:14Z</time>
  <course>8.17</course>
  <speed>0.022360679774997897</speed>
  <fix>3d</fix>
</trkpt>
<trkpt lat="40.072842" lon="-105.230575">
  <ele>1586.09</ele>
  <time>2026-08-28T19:09:14Z</time>
  <course>265.63</course>
  <speed>0.0</speed>
  <fix>3d</fix>
</trkpt>
<trkpt lat="40.0728419" lon="-105.2305749">
  <ele>1586.19</ele>
  <time>2026-08-28T19:09:15Z</time>
  <course>8.14</course>
  <speed>0.022360679774997897</speed>
  <fix>3d</fix>
</trkpt>
<trkpt lat="40.072842" lon="-105.230575">
  <ele>1586.09</ele>
  <time>2026-08-28T19:09:15Z</time>
  <course>266.99</course>
  <speed>0.0</speed>
  <fix>3d</fix>
</trkpt>
<trkpt lat="40.0728419" lon="-105.2305749">
  <ele>1586.19</ele>
  <time>2026-08-28T19:09:15Z</time>
  <course>8.1</course>
  <speed>0.022360679774997897</speed>
  <fix>3d</fix>
</trkpt>
<trkpt lat="40.072842" lon="-105.230575">
  <ele>1586.09</ele>
  <time>2026-08-28T19:09:15Z</time>
  <course>269.05</course>
  <speed>0.0</speed>
  <fix>3d</fix>
</trkpt>
<trkpt lat="40.0728419" lon="-105.2305749">
  <ele>1586.19</ele>
  <time>2026-08-28T19:09:15Z</time>
  <course>8.07</course>
  <speed>0.01414213562373095</speed>
  <fix>3d</fix>
</trkpt>
<trkpt lat="40.072842" lon="-105.230575">
  <ele>1586.09</ele>
  <time>2026-08-28T19:09:15Z</time>
  <course>268.46</course>
  <speed>0.0</speed>
  <fix>3d</fix>
</trkpt>
<trkpt lat="40.0728419" lon="-105.2305749">
  <ele>1586.19</ele>
  <time>2026-08-28T19:09:15Z</time>
  <course>8.03</course>
  <speed>0.01414213562373095</speed>
  <fix>3d</fix>
</trkpt>
<trkpt lat="40.072842" lon="-105.230575">
  <ele>1586.09</ele>
  <time>2026-08-28T19:09:15Z</time>
  <course>267.96</course>
  <speed>0.0</speed>
  <fix>3d</fix>
</trkpt>
<trkpt lat="40.0728419" lon="-105.2305749">
  <ele>1586.19</ele>
  <time>2026-08-28T19:09:15Z</time>
  <course>8.0</course>
  <speed>0.01414213562373095</speed>
  <fix>3d</fix>
</trkpt>
<trkpt lat="40.072842" lon="-105.230575">
  <ele>1586.09</ele>
  <time>2026-08-28T19:09:15Z</time>
  <course>268.84</course>
  <speed>0.0</speed>
  <fix>3d</fix>
</trkpt>
<trkpt lat="40.0728419" lon="-105.2305749">
  <ele>1586.19</ele>
  <time>2026-08-28T19:09:15Z</time>
  <course>7.96</course>
  <speed>0.01414213562373095</speed>
  <fix>3d</fix>
</trkpt>
<trkpt lat="40.072842" lon="-105.230575">
  <ele>1586.09</ele>
  <time>2026-08-28T19:09:15Z</time>
  <course>268.94</course>
  <speed>0.0</speed>
  <fix>3d</fix>
</trkpt>
<trkpt lat="40.0728419" lon="-105.2305749">
  <ele>1586.18</ele>
  <time>2026-08-28T19:09:15Z</time>
  <course>7.93</course>
  <speed>0.01414213562373095</speed>
  <fix>3d</fix>
</trkpt>
<trkpt lat="40.072842" lon="-105.230575">
  <ele>1586.09</ele>
  <time>2026-08-28T19:09:15Z</time>
  <course>266.67</course>
  <speed>0.0</speed>
  <fix>3d</fix>
</trkpt>
<trkpt lat="40.0728419" lon="-105.2305749">
  <ele>1586.18</ele>
  <time>2026-08-28T19:09:15Z</time>
  <course>7.9</course>
  <speed>0.01414213562373095</speed>
  <fix>3d</fix>
</trkpt>
<trkpt lat="40.072842" lon="-105.230575">
  <ele>1586.09</ele>
  <time>2026-08-28T19:09:15Z</time>
  <course>273.42</course>
  <speed>0.0</speed>
  <fix>3d</fix>
</trkpt>
<trkpt lat="40.0728419" lon="-105.2305749">
  <ele>1586.18</ele>
  <time>2026-08-28T19:09:15Z</time>
  <course>7.87</course>
  <speed>0.01414213562373095</speed>
  <fix>3d</fix>
</trkpt>
<trkpt lat="40.072842" lon="-105.230575">
  <ele>1586.09</ele>
  <time>2026-08-28T19:09:15Z</time>
  <course>275.58</course>
  <speed>0.0</speed>
  <fix>3d</fix>
</trkpt>
<trkpt lat="40.0728419" lon="-105.2305749">
  <ele>1586.18</ele>
  <time>2026-08-28T19:09:15Z</time>
  <course>7.84</course>
  <speed>0.01414213562373095</speed>
  <fix>3d</fix>
</trkpt>
<trkpt lat="40.072842" lon="-105.230575">
  <ele>1586.09</ele>
  <time>2026-08-28T19:09:15Z</time>
  <course>267.14</course>
  <speed>0.0</speed>
  <fix>3d</fix>
</trkpt>
<trkpt lat="40.0728419" lon="-105.2305749">
  <ele>1586.18</ele>
  <time>2026-08-28T19:09:15Z</time>
  <course>7.81</course>
  <speed>0.01414213562373095</speed>
  <fix>3d</fix>
</trkpt>
<trkpt lat="40.072842" lon="-105.230575">
  <ele>1586.09</ele>
  <time>2026-08-28T19:09:15Z</time>
  <course>266.72</course>
  <speed>0.0</speed>
  <fix>3d</fix>
</trkpt>
<trkpt lat="40.0728419" lon="-105.2305749">
  <ele>1586.18</ele>
  <time>2026-08-28T19:09:15Z</time>
  <course>7.78</course>
  <speed>0.01414213562373095</speed>
  <fix>3d</fix>
</trkpt>
<trkpt lat="40.072842" lon="-105.230575">
  <ele>1586.09</ele>
  <time>2026-08-28T19:09:15Z</time>
  <course>267.85</course>
  <speed>0.0</speed>
  <fix>3d</fix>
</trkpt>
<trkpt lat="40.0728419" lon="-105.2305749">
  <ele>1586.18</ele>
  <time>2026-08-28T19:09:15Z</time>
  <course>7.75</course>
  <speed>0.01414213562373095</speed>
  <fix>3d</fix>
</trkpt>
<trkpt lat="40.072842" lon="-105.230575">
  <ele>1586.09</ele>
  <time>2026-08-28T19:09:15Z</time>
  <course>267.7</course>
  <speed>0.0</speed>
  <fix>3d</fix>
</trkpt>
<trkpt lat="40.0728419" lon="-105.2305749">
  <ele>1586.18</ele>
  <time>2026-08-28T19:09:15Z</time>
  <course>7.73</course>
  <speed>0.01414213562373095</speed>
  <fix>3d</fix>
</trkpt>
<trkpt lat="40.072842" lon="-105.230575">
  <ele>1586.09</ele>
  <time>2026-08-28T19:09:15Z</time>
  <course>267.51</course>
  <speed>0.0</speed>
  <fix>3d</fix>
</trkpt>
<trkpt lat="40.0728419" lon="-105.2305749">
  <ele>1586.18</ele>
  <time>2026-08-28T19:09:15Z</time>
  <course>7.7</course>
  <speed>0.01414213562373095</speed>
  <fix>3d</fix>
</trkpt>
<trkpt lat="40.072842" lon="-105.230575">
  <ele>1586.09</ele>
  <time>2026-08-28T19:09:15Z</time>
  <course>267.53</course>
  <speed>0.0</speed>
  <fix>3d</fix>
</trkpt>
<trkpt lat="40.0728419" lon="-105.2305749">
  <ele>1586.19</ele>
  <time>2026-08-28T19:09:15Z</time>
  <course>7.67</course>
  <speed>0.01414213562373095</speed>
  <fix>3d</fix>
</trkpt>
<trkpt lat="40.072842" lon="-105.230575">
  <ele>1586.09</ele>
  <time>2026-08-28T19:09:15Z</time>
  <course>268.0</course>
  <speed>0.0</speed>
  <fix>3d</fix>
</trkpt>
<trkpt lat="40.0728419" lon="-105.2305749">
  <ele>1586.19</ele>
  <time>2026-08-28T19:09:15Z</time>
  <course>7.65</course>
  <speed>0.01414213562373095</speed>
  <fix>3d</fix>
</trkpt>
<trkpt lat="40.072842" lon="-105.230575">
  <ele>1586.09</ele>
  <time>2026-08-28T19:09:15Z</time>
  <course>266.84</course>
  <speed>0.0</speed>
  <fix>3d</fix>
</trkpt>
<trkpt lat="40.0728419" lon="-105.2305749">
  <ele>1586.19</ele>
  <time>2026-08-28T19:09:15Z</time>
  <course>7.63</course>
  <speed>0.01414213562373095</speed>
  <fix>3d</fix>
</trkpt>
<trkpt lat="40.072842" lon="-105.230575">
  <ele>1586.09</ele>
  <time>2026-08-28T19:09:15Z</time>
  <course>266.42</course>
  <speed>0.0</speed>
  <fix>3d</fix>
</trkpt>
<trkpt lat="40.0728419" lon="-105.2305749">
  <ele>1586.19</ele>
  <time>2026-08-28T19:09:15Z</time>
  <course>7.6</course>
  <speed>0.01414213562373095</speed>
  <fix>3d</fix>
</trkpt>
<trkpt lat="40.072842" lon="-105.230575">
  <ele>1586.09</ele>
  <time>2026-08-28T19:09:15Z</time>
  <course>276.71</course>
  <speed>0.0</speed>
  <fix>3d</fix>
</trkpt>
<trkpt lat="40.0728419" lon="-105.2305749">
  <ele>1586.19</ele>
  <time>2026-08-28T19:09:15Z</time>
  <course>7.58</course>
  <speed>0.01414213562373095</speed>
  <fix>3d</fix>
</trkpt>
<trkpt lat="40.072842" lon="-105.230575">
  <ele>1586.09</ele>
  <time>2026-08-28T19:09:15Z</time>
  <course>276.6</course>
  <speed>0.0</speed>
  <fix>3d</fix>
</trkpt>
<trkpt lat="40.0728419" lon="-105.2305749">
  <ele>1586.19</ele>
  <time>2026-08-28T19:09:15Z</time>
  <course>7.56</course>
  <speed>0.01414213562373095</speed>
  <fix>3d</fix>
</trkpt>
<trkpt lat="40.072842" lon="-105.230575">
  <ele>1586.09</ele>
  <time>2026-08-28T19:09:15Z</time>
  <course>267.37</course>
  <speed>0.0</speed>
  <fix>3d</fix>
</trkpt>
<trkpt lat="40.0728419" lon="-105.2305749">
  <ele>1586.19</ele>
  <time>2026-08-28T19:09:15Z</time>
  <course>7.54</course>
  <speed>0.01414213562373095</speed>
  <fix>3d</fix>
</trkpt>
<trkpt lat="40.072842" lon="-105.230575">
  <ele>1586.09</ele>
  <time>2026-08-28T19:09:15Z</time>
  <course>266.57</course>
  <speed>0.0</speed>
  <fix>3d</fix>
</trkpt>
<trkpt lat="40.0728419" lon="-105.2305749">
  <ele>1586.19</ele>
  <time>2026-08-28T19:09:15Z</time>
  <course>7.52</course>
  <speed>0.01414213562373095</speed>
  <fix>3d</fix>
</trkpt>
<trkpt lat="40.072842" lon="-105.230575">
  <ele>1586.09</ele>
  <time>2026-08-28T19:09:15Z</time>
  <course>267.81</course>
  <speed>0.0</speed>
  <fix>3d</fix>
</trkpt>
<trkpt lat="40.0728419" lon="-105.2305749">
  <ele>1586.19</ele>
  <time>2026-08-28T19:09:15Z</time>
  <course>7.51</course>
  <speed>0.01414213562373095</speed>
  <fix>3d</fix>
</trkpt>
<trkpt lat="40.072842" lon="-105.230575">
  <ele>1586.09</ele>
  <time>2026-08-28T19:09:15Z</time>
  <course>267.72</course>
  <speed>0.0</speed>
  <fix>3d</fix>
</trkpt>
<trkpt lat="40.0728419" lon="-105.2305749">
  <ele>1586.19</ele>
  <time>2026-08-28T19:09:15Z</time>
  <course>7.49</course>
  <speed>0.01414213562373095</speed>
  <fix>3d</fix>
</trkpt>
<trkpt lat="40.072842" lon="-105.230575">
  <ele>1586.09</ele>
  <time>2026-08-28T19:09:15Z</time>
  <course>267.61</course>
  <speed>0.0</speed>
  <fix>3d</fix>
</trkpt>
<trkpt lat="40.0728419" lon="-105.2305749">
  <ele>1586.19</ele>
  <time>2026-08-28T19:09:15Z</time>
  <course>7.47</course>
  <speed>0.01414213562373095</speed>
  <fix>3d</fix>
</trkpt>
<trkpt lat="40.072842" lon="-105.230575">
  <ele>1586.09</ele>
  <time>2026-08-28T19:09:15Z</time>
  <course>269.44</course>
  <speed>0.0</speed>
  <fix>3d</fix>
</trkpt>
<trkpt lat="40.0728419" lon="-105.2305749">
  <ele>1586.18</ele>
  <time>2026-08-28T19:09:15Z</time>
  <course>7.46</course>
  <speed>0.01414213562373095</speed>
  <fix>3d</fix>
</trkpt>
<trkpt lat="40.072842" lon="-105.230575">
  <ele>1586.09</ele>
  <time>2026-08-28T19:09:15Z</time>
  <course>267.92</course>
  <speed>0.0</speed>
  <fix>3d</fix>
</trkpt>
<trkpt lat="40.0728419" lon="-105.2305749">
  <ele>1586.18</ele>
  <time>2026-08-28T19:09:15Z</time>
  <course>7.44</course>
  <speed>0.01414213562373095</speed>
  <fix>3d</fix>
</trkpt>
<trkpt lat="40.072842" lon="-105.230575">
  <ele>1586.09</ele>
  <time>2026-08-28T19:09:15Z</time>
  <course>265.88</course>
  <speed>0.0</speed>
  <fix>3d</fix>
</trkpt>
<trkpt lat="40.0728419" lon="-105.2305749">
  <ele>1586.18</ele>
  <time>2026-08-28T19:09:15Z</time>
  <course>7.43</course>
  <speed>0.01414213562373095</speed>
  <fix>3d</fix>
</trkpt>
<trkpt lat="40.072842" lon="-105.230575">
  <ele>1586.09</ele>
  <time>2026-08-28T19:09:15Z</time>
  <course>267.97</course>
  <speed>0.0</speed>
  <fix>3d</fix>
</trkpt>
<trkpt lat="40.0728419" lon="-105.2305749">
  <ele>1586.18</ele>
  <time>2026-08-28T19:09:15Z</time>
  <course>7.42</course>
  <speed>0.01414213562373095</speed>
  <fix>3d</fix>
</trkpt>
<trkpt lat="40.072842" lon="-105.230575">
  <ele>1586.09</ele>
  <time>2026-08-28T19:09:15Z</time>
  <course>267.89</course>
  <speed>0.0</speed>
  <fix>3d</fix>
</trkpt>
<trkpt lat="40.0728419" lon="-105.2305749">
  <ele>1586.18</ele>
  <time>2026-08-28T19:09:15Z</time>
  <course>7.41</course>
  <speed>0.01414213562373095</speed>
  <fix>3d</fix>
</trkpt>
<trkpt lat="40.072842" lon="-105.230575">
  <ele>1586.09</ele>
  <time>2026-08-28T19:09:15Z</time>
  <course>273.23</course>
  <speed>0.0</speed>
  <fix>3d</fix>
</trkpt>
<trkpt lat="40.0728419" lon="-105.2305749">
  <ele>1586.18</ele>
  <time>2026-08-28T19:09:15Z</time>
  <course>7.39</course>
  <speed>0.01414213562373095</speed>
  <fix>3d</fix>
</trkpt>
<trkpt lat="40.072842" lon="-105.230575">
  <ele>1586.09</ele>
  <time>2026-08-28T19:09:15Z</time>
  <course>274.22</course>
  <speed>0.0</speed>
  <fix>3d</fix>
</trkpt>
<trkpt lat="40.0728419" lon="-105.2305749">
  <ele>1586.18</ele>
  <time>2026-08-28T19:09:15Z</time>
  <course>7.38</course>
  <speed>0.01414213562373095</speed>
  <fix>3d</fix>
</trkpt>
<trkpt lat="40.072842" lon="-105.230575">
  <ele>1586.09</ele>
  <time>2026-08-28T19:09:15Z</time>
  <course>268.09</course>
  <speed>0.0</speed>
  <fix>3d</fix>
</trkpt>
<trkpt lat="40.0728419" lon="-105.2305749">
  <ele>1586.18</ele>
  <time>2026-08-28T19:09:15Z</time>
  <course>7.38</course>
  <speed>0.01414213562373095</speed>
  <fix>3d</fix>
</trkpt>
<trkpt lat="40.072842" lon="-105.230575">
  <ele>1586.09</ele>
  <time>2026-08-28T19:09:15Z</time>
  <course>266.79</course>
  <speed>0.0</speed>
  <fix>3d</fix>
</trkpt>
<trkpt lat="40.0728419" lon="-105.2305749">
  <ele>1586.17</ele>
  <time>2026-08-28T19:09:15Z</time>
  <course>7.37</course>
  <speed>0.01414213562373095</speed>
  <fix>3d</fix>
</trkpt>
<trkpt lat="40.072842" lon="-105.230575">
  <ele>1586.09</ele>
  <time>2026-08-28T19:09:15Z</time>
  <course>268.16</course>
  <speed>0.0</speed>
  <fix>3d</fix>
</trkpt>
<trkpt lat="40.0728419" lon="-105.2305749">
  <ele>1586.17</ele>
  <time>2026-08-28T19:09:15Z</time>
  <course>7.36</course>
  <speed>0.01414213562373095</speed>
  <fix>3d</fix>
</trkpt>
<trkpt lat="40.072842" lon="-105.230575">
  <ele>1586.09</ele>
  <time>2026-08-28T19:09:15Z</time>
  <course>267.97</course>
  <speed>0.0</speed>
  <fix>3d</fix>
</trkpt>
<trkpt lat="40.0728419" lon="-105.2305749">
  <ele>1586.17</ele>
  <time>2026-08-28T19:09:15Z</time>
  <course>7.35</course>
  <speed>0.01414213562373095</speed>
  <fix>3d</fix>
</trkpt>
<trkpt lat="40.072842" lon="-105.230575">
  <ele>1586.09</ele>
  <time>2026-08-28T19:09:15Z</time>
  <course>269.09</course>
  <speed>0.0</speed>
  <fix>3d</fix>
</trkpt>
<trkpt lat="40.0728419" lon="-105.2305749">
  <ele>1586.17</ele>
  <time>2026-08-28T19:09:15Z</time>
  <course>7.35</course>
  <speed>0.01414213562373095</speed>
  <fix>3d</fix>
</trkpt>
<trkpt lat="40.072842" lon="-105.230575">
  <ele>1586.09</ele>
  <time>2026-08-28T19:09:15Z</time>
  <course>267.78</course>
  <speed>0.0</speed>
  <fix>3d</fix>
</trkpt>
<trkpt lat="40.0728419" lon="-105.2305749">
  <ele>1586.17</ele>
  <time>2026-08-28T19:09:15Z</time>
  <course>7.34</course>
  <speed>0.01414213562373095</speed>
  <fix>3d</fix>
</trkpt>
<trkpt lat="40.072842" lon="-105.230575">
  <ele>1586.09</ele>
  <time>2026-08-28T19:09:15Z</time>
  <course>266.15</course>
  <speed>0.0</speed>
  <fix>3d</fix>
</trkpt>
<trkpt lat="40.0728419" lon="-105.2305749">
  <ele>1586.17</ele>
  <time>2026-08-28T19:09:15Z</time>
  <course>7.34</course>
  <speed>0.01414213562373095</speed>
  <fix>3d</fix>
</trkpt>
<trkpt lat="40.072842" lon="-105.230575">
  <ele>1586.09</ele>
  <time>2026-08-28T19:09:15Z</time>
  <course>268.07</course>
  <speed>0.0</speed>
  <fix>3d</fix>
</trkpt>
<trkpt lat="40.0728419" lon="-105.2305749">
  <ele>1586.17</ele>
  <time>2026-08-28T19:09:15Z</time>
  <course>7.33</course>
  <speed>0.01414213562373095</speed>
  <fix>3d</fix>
</trkpt>
<trkpt lat="40.072842" lon="-105.230575">
  <ele>1586.09</ele>
  <time>2026-08-28T19:09:15Z</time>
  <course>268.09</course>
  <speed>0.0</speed>
  <fix>3d</fix>
</trkpt>
<trkpt lat="40.0728419" lon="-105.2305749">
  <ele>1586.17</ele>
  <time>2026-08-28T19:09:15Z</time>
  <course>7.33</course>
  <speed>0.01414213562373095</speed>
  <fix>3d</fix>
</trkpt>
<trkpt lat="40.072842" lon="-105.230575">
  <ele>1586.09</ele>
  <time>2026-08-28T19:09:15Z</time>
  <course>267.89</course>
  <speed>0.0</speed>
  <fix>3d</fix>
</trkpt>
<trkpt lat="40.0728419" lon="-105.2305749">
  <ele>1586.17</ele>
  <time>2026-08-28T19:09:15Z</time>
  <course>7.33</course>
  <speed>0.01414213562373095</speed>
  <fix>3d</fix>
</trkpt>
<trkpt lat="40.072842" lon="-105.230575">
  <ele>1586.09</ele>
  <time>2026-08-28T19:09:15Z</time>
  <course>268.18</course>
  <speed>0.0</speed>
  <fix>3d</fix>
</trkpt>
<trkpt lat="40.0728419" lon="-105.2305749">
  <ele>1586.17</ele>
  <time>2026-08-28T19:09:15Z</time>
  <course>7.33</course>
  <speed>0.01414213562373095</speed>
  <fix>3d</fix>
</trkpt>
<trkpt lat="40.072842" lon="-105.230575">
  <ele>1586.09</ele>
  <time>2026-08-28T19:09:15Z</time>
  <course>270.72</course>
  <speed>0.0</speed>
  <fix>3d</fix>
</trkpt>
<trkpt lat="40.0728419" lon="-105.2305749">
  <ele>1586.17</ele>
  <time>2026-08-28T19:09:15Z</time>
  <course>7.32</course>
  <speed>0.01414213562373095</speed>
  <fix>3d</fix>
</trkpt>
<trkpt lat="40.072842" lon="-105.230575">
  <ele>1586.09</ele>
  <time>2026-08-28T19:09:15Z</time>
  <course>273.23</course>
  <speed>0.0</speed>
  <fix>3d</fix>
</trkpt>
<trkpt lat="40.0728419" lon="-105.2305749">
  <ele>1586.17</ele>
  <time>2026-08-28T19:09:15Z</time>
  <course>7.32</course>
  <speed>0.01414213562373095</speed>
  <fix>3d</fix>
</trkpt>
<trkpt lat="40.072842" lon="-105.230575">
  <ele>1586.09</ele>
  <time>2026-08-28T19:09:15Z</time>
  <course>270.36</course>
  <speed>0.0</speed>
  <fix>3d</fix>
</trkpt>
<trkpt lat="40.0728419" lon="-105.2305749">
  <ele>1586.17</ele>
  <time>2026-08-28T19:09:15Z</time>
  <course>7.32</course>
  <speed>0.01414213562373095</speed>
  <fix>3d</fix>
</trkpt>
<trkpt lat="40.072842" lon="-105.230575">
  <ele>1586.09</ele>
  <time>2026-08-28T19:09:15Z</time>
  <course>266.92</course>
  <speed>0.0</speed>
  <fix>3d</fix>
</trkpt>
<trkpt lat="40.0728419" lon="-105.2305749">
  <ele>1586.17</ele>
  <time>2026-08-28T19:09:15Z</time>
  <course>7.33</course>
  <speed>0.01414213562373095</speed>
  <fix>3d</fix>
</trkpt>
<trkpt lat="40.072842" lon="-105.230575">
  <ele>1586.09</ele>
  <time>2026-08-28T19:09:15Z</time>
  <course>268.29</course>
  <speed>0.0</speed>
  <fix>3d</fix>
</trkpt>
<trkpt lat="40.0728419" lon="-105.2305749">
  <ele>1586.17</ele>
  <time>2026-08-28T19:09:15Z</time>
  <course>7.33</course>
  <speed>0.01414213562373095</speed>
  <fix>3d</fix>
</trkpt>
<trkpt lat="40.072842" lon="-105.230575">
  <ele>1586.09</ele>
  <time>2026-08-28T19:09:15Z</time>
  <course>269.62</course>
  <speed>0.0</speed>
  <fix>3d</fix>
</trkpt>
<trkpt lat="40.0728419" lon="-105.2305749">
  <ele>1586.17</ele>
  <time>2026-08-28T19:09:15Z</time>
  <course>7.33</course>
  <speed>0.01414213562373095</speed>
  <fix>3d</fix>
</trkpt>
<trkpt lat="40.072842" lon="-105.230575">
  <ele>1586.09</ele>
  <time>2026-08-28T19:09:15Z</time>
  <course>268.41</course>
  <speed>0.0</speed>
  <fix>3d</fix>
</trkpt>
<trkpt lat="40.0728419" lon="-105.2305749">
  <ele>1586.17</ele>
  <time>2026-08-28T19:09:15Z</time>
  <course>7.34</course>
  <speed>0.01414213562373095</speed>
  <fix>3d</fix>
</trkpt>
<trkpt lat="40.072842" lon="-105.230575">
  <ele>1586.09</ele>
  <time>2026-08-28T19:09:15Z</time>
  <course>266.94</course>
  <speed>0.0</speed>
  <fix>3d</fix>
</trkpt>
<trkpt lat="40.0728419" lon="-105.2305749">
  <ele>1586.17</ele>
  <time>2026-08-28T19:09:15Z</time>
  <course>7.34</course>
  <speed>0.01414213562373095</speed>
  <fix>3d</fix>
</trkpt>
<trkpt lat="40.072842" lon="-105.230575">
  <ele>1586.09</ele>
  <time>2026-08-28T19:09:15Z</time>
  <course>268.49</course>
  <speed>0.0</speed>
  <fix>3d</fix>
</trkpt>
<trkpt lat="40.0728419" lon="-105.2305749">
  <ele>1586.17</ele>
  <time>2026-08-28T19:09:15Z</time>
  <course>7.34</course>
  <speed>0.01414213562373095</speed>
  <fix>3d</fix>
</trkpt>
<trkpt lat="40.072842" lon="-105.230575">
  <ele>1586.09</ele>
  <time>2026-08-28T19:09:15Z</time>
  <course>268.58</course>
  <speed>0.0</speed>
  <fix>3d</fix>
</trkpt>
<trkpt lat="40.0728419" lon="-105.2305749">
  <ele>1586.17</ele>
  <time>2026-08-28T19:09:15Z</time>
  <course>7.35</course>
  <speed>0.01414213562373095</speed>
  <fix>3d</fix>
</trkpt>
<trkpt lat="40.072842" lon="-105.230575">
  <ele>1586.09</ele>
  <time>2026-08-28T19:09:15Z</time>
  <course>268.63</course>
  <speed>0.0</speed>
  <fix>3d</fix>
</trkpt>
<trkpt lat="40.0728419" lon="-105.2305749">
  <ele>1586.17</ele>
  <time>2026-08-28T19:09:15Z</time>
  <course>7.36</course>
  <speed>0.01414213562373095</speed>
  <fix>3d</fix>
</trkpt>
<trkpt lat="40.072842" lon="-105.230575">
  <ele>1586.09</ele>
  <time>2026-08-28T19:09:15Z</time>
  <course>268.48</course>
  <speed>0.0</speed>
  <fix>3d</fix>
</trkpt>
<trkpt lat="40.0728419" lon="-105.2305749">
  <ele>1586.17</ele>
  <time>2026-08-28T19:09:15Z</time>
  <course>7.36</course>
  <speed>0.01414213562373095</speed>
  <fix>3d</fix>
</trkpt>
<trkpt lat="40.072842" lon="-105.2305751">
  <ele>1586.09</ele>
  <time>2026-08-28T19:09:15Z</time>
  <course>268.69</course>
  <speed>0.0</speed>
  <fix>3d</fix>
</trkpt>
<trkpt lat="40.0728419" lon="-105.2305749">
  <ele>1586.17</ele>
  <time>2026-08-28T19:09:15Z</time>
  <course>7.37</course>
  <speed>0.01414213562373095</speed>
  <fix>3d</fix>
</trkpt>
<trkpt lat="40.072842" lon="-105.2305751">
  <ele>1586.09</ele>
  <time>2026-08-28T19:09:15Z</time>
  <course>268.91</course>
  <speed>0.0</speed>
  <fix>3d</fix>
</trkpt>
<trkpt lat="40.0728419" lon="-105.2305749">
  <ele>1586.17</ele>
  <time>2026-08-28T19:09:15Z</time>
  <course>7.38</course>
  <speed>0.01414213562373095</speed>
  <fix>3d</fix>
</trkpt>
<trkpt lat="40.072842" lon="-105.2305751">
  <ele>1586.09</ele>
  <time>2026-08-28T19:09:15Z</time>
  <course>268.5</course>
  <speed>0.0</speed>
  <fix>3d</fix>
</trkpt>
<trkpt lat="40.0728419" lon="-105.2305749">
  <ele>1586.17</ele>
  <time>2026-08-28T19:09:15Z</time>
  <course>7.39</course>
  <speed>0.01414213562373095</speed>
  <fix>3d</fix>
</trkpt>
<trkpt lat="40.072842" lon="-105.2305751">
  <ele>1586.09</ele>
  <time>2026-08-28T19:09:15Z</time>
  <course>274.94</course>
  <speed>0.0</speed>
  <fix>3d</fix>
</trkpt>
<trkpt lat="40.0728419" lon="-105.2305749">
  <ele>1586.17</ele>
  <time>2026-08-28T19:09:15Z</time>
  <course>7.4</course>
  <speed>0.01414213562373095</speed>
  <fix>3d</fix>
</trkpt>
<trkpt lat="40.072842" lon="-105.2305751">
  <ele>1586.09</ele>
  <time>2026-08-28T19:09:15Z</time>
  <course>276.1</course>
  <speed>0.0</speed>
  <fix>3d</fix>
</trkpt>
<trkpt lat="40.0728419" lon="-105.2305749">
  <ele>1586.17</ele>
  <time>2026-08-28T19:09:15Z</time>
  <course>7.41</course>
  <speed>0.01414213562373095</speed>
  <fix>3d</fix>
</trkpt>
<trkpt lat="40.072842" lon="-105.2305751">
  <ele>1586.09</ele>
  <time>2026-08-28T19:09:15Z</time>
  <course>268.42</course>
  <speed>0.0</speed>
  <fix>3d</fix>
</trkpt>
<trkpt lat="40.0728419" lon="-105.2305749">
  <ele>1586.17</ele>
  <time>2026-08-28T19:09:15Z</time>
  <course>7.42</course>
  <speed>0.01414213562373095</speed>
  <fix>3d</fix>
</trkpt>
<trkpt lat="40.072842" lon="-105.2305751">
  <ele>1586.09</ele>
  <time>2026-08-28T19:09:15Z</time>
  <course>269.29</course>
  <speed>0.0</speed>
  <fix>3d</fix>
</trkpt>
<trkpt lat="40.0728419" lon="-105.2305749">
  <ele>1586.17</ele>
  <time>2026-08-28T19:09:15Z</time>
  <course>7.43</course>
  <speed>0.01414213562373095</speed>
  <fix>3d</fix>
</trkpt>
<trkpt lat="40.072842" lon="-105.2305751">
  <ele>1586.09</ele>
  <time>2026-08-28T19:09:15Z</time>
  <course>268.97</course>
  <speed>0.0</speed>
  <fix>3d</fix>
</trkpt>
<trkpt lat="40.0728419" lon="-105.2305749">
  <ele>1586.17</ele>
  <time>2026-08-28T19:09:15Z</time>
  <course>7.44</course>
  <speed>0.01414213562373095</speed>
  <fix>3d</fix>
</trkpt>
<trkpt lat="40.072842" lon="-105.2305751">
  <ele>1586.09</ele>
  <time>2026-08-28T19:09:15Z</time>
  <course>267.69</course>
  <speed>0.0</speed>
  <fix>3d</fix>
</trkpt>
<trkpt lat="40.0728419" lon="-105.2305749">
  <ele>1586.17</ele>
  <time>2026-08-28T19:09:15Z</time>
  <course>7.45</course>
  <speed>0.01414213562373095</speed>
  <fix>3d</fix>
</trkpt>
<trkpt lat="40.072842" lon="-105.2305751">
  <ele>1586.09</ele>
  <time>2026-08-28T19:09:15Z</time>
  <course>269.45</course>
  <speed>0.0</speed>
  <fix>3d</fix>
</trkpt>
<trkpt lat="40.0728419" lon="-105.2305749">
  <ele>1586.17</ele>
  <time>2026-08-28T19:09:15Z</time>
  <course>7.47</course>
  <speed>0.01414213562373095</speed>
  <fix>3d</fix>
</trkpt>
<trkpt lat="40.072842" lon="-105.2305751">
  <ele>1586.09</ele>
  <time>2026-08-28T19:09:15Z</time>
  <course>269.07</course>
  <speed>0.0</speed>
  <fix>3d</fix>
</trkpt>
<trkpt lat="40.0728419" lon="-105.2305749">
  <ele>1586.17</ele>
  <time>2026-08-28T19:09:15Z</time>
  <course>7.48</course>
  <speed>0.01414213562373095</speed>
  <fix>3d</fix>
</trkpt>
<trkpt lat="40.072842" lon="-105.2305751">
  <ele>1586.09</ele>
  <time>2026-08-28T19:09:15Z</time>
  <course>269.14</course>
  <speed>0.0</speed>
  <fix>3d</fix>
</trkpt>
<trkpt lat="40.0728419" lon="-105.2305749">
  <ele>1586.17</ele>
  <time>2026-08-28T19:09:15Z</time>
  <course>7.5</course>
  <speed>0.01414213562373095</speed>
  <fix>3d</fix>
</trkpt>
<trkpt lat="40.072842" lon="-105.2305751">
  <ele>1586.09</ele>
  <time>2026-08-28T19:09:15Z</time>
  <course>269.21</course>
  <speed>0.0</speed>
  <fix>3d</fix>
</trkpt>
<trkpt lat="40.0728419" lon="-105.2305749">
  <ele>1586.17</ele>
  <time>2026-08-28T19:09:15Z</time>
  <course>7.51</course>
  <speed>0.01414213562373095</speed>
  <fix>3d</fix>
</trkpt>
<trkpt lat="40.072842" lon="-105.2305751">
  <ele>1586.09</ele>
  <time>2026-08-28T19:09:15Z</time>
  <course>269.39</course>
  <speed>0.0</speed>
  <fix>3d</fix>
</trkpt>
<trkpt lat="40.0728419" lon="-105.2305749">
  <ele>1586.17</ele>
  <time>2026-08-28T19:09:15Z</time>
  <course>7.53</course>
  <speed>0.01414213562373095</speed>
  <fix>3d</fix>
</trkpt>
<trkpt lat="40.072842" lon="-105.2305751">
  <ele>1586.09</ele>
  <time>2026-08-28T19:09:15Z</time>
  <course>269.43</course>
  <speed>0.0</speed>
  <fix>3d</fix>
</trkpt>
<trkpt lat="40.0728419" lon="-105.2305749">
  <ele>1586.17</ele>
  <time>2026-08-28T19:09:15Z</time>
  <course>7.54</course>
  <speed>0.01414213562373095</speed>
  <fix>3d</fix>
</trkpt>
<trkpt lat="40.072842" lon="-105.2305751">
  <ele>1586.09</ele>
  <time>2026-08-28T19:09:15Z</time>
  <course>269.49</course>
  <speed>0.0</speed>
  <fix>3d</fix>
</trkpt>
<trkpt lat="40.0728419" lon="-105.2305749">
  <ele>1586.17</ele>
  <time>2026-08-28T19:09:15Z</time>
  <course>7.56</course>
  <speed>0.01414213562373095</speed>
  <fix>3d</fix>
</trkpt>
<trkpt lat="40.072842" lon="-105.2305751">
  <ele>1586.09</ele>
  <time>2026-08-28T19:09:15Z</time>
  <course>269.65</course>
  <speed>0.0</speed>
  <fix>3d</fix>
</trkpt>
<trkpt lat="40.0728419" lon="-105.2305749">
  <ele>1586.17</ele>
  <time>2026-08-28T19:09:15Z</time>
  <course>7.58</course>
  <speed>0.01414213562373095</speed>
  <fix>3d</fix>
</trkpt>
<trkpt lat="40.072842" lon="-105.2305751">
  <ele>1586.09</ele>
  <time>2026-08-28T19:09:15Z</time>
  <course>269.41</course>
  <speed>0.0</speed>
  <fix>3d</fix>
</trkpt>
<trkpt lat="40.0728419" lon="-105.2305749">
  <ele>1586.17</ele>
  <time>2026-08-28T19:09:15Z</time>
  <course>7.59</course>
  <speed>0.01414213562373095</speed>
  <fix>3d</fix>
</trkpt>
<trkpt lat="40.072842" lon="-105.2305751">
  <ele>1586.09</ele>
  <time>2026-08-28T19:09:15Z</time>
  <course>269.54</course>
  <speed>0.0</speed>
  <fix>3d</fix>
</trkpt>
<trkpt lat="40.0728419" lon="-105.2305749">
  <ele>1586.17</ele>
  <time>2026-08-28T19:09:15Z</time>
  <course>7.61</course>
  <speed>0.01414213562373095</speed>
  <fix>3d</fix>
</trkpt>
<trkpt lat="40.072842" lon="-105.2305751">
  <ele>1586.09</ele>
  <time>2026-08-28T19:09:15Z</time>
  <course>275.31</course>
  <speed>0.0</speed>
  <fix>3d</fix>
</trkpt>
<trkpt lat="40.0728419" lon="-105.2305749">
  <ele>1586.17</ele>
  <time>2026-08-28T19:09:15Z</time>
  <course>7.63</course>
  <speed>0.01414213562373095</speed>
  <fix>3d</fix>
</trkpt>
<trkpt lat="40.072842" lon="-105.2305751">
  <ele>1586.09</ele>
  <time>2026-08-28T19:09:15Z</time>
  <course>275.39</course>
  <speed>0.0</speed>
  <fix>3d</fix>
</trkpt>
<trkpt lat="40.0728419" lon="-105.2305749">
  <ele>1586.17</ele>
  <time>2026-08-28T19:09:15Z</time>
  <course>7.65</course>
  <speed>0.01414213562373095</speed>
  <fix>3d</fix>
</trkpt>
<trkpt lat="40.072842" lon="-105.2305751">
  <ele>1586.09</ele>
  <time>2026-08-28T19:09:15Z</time>
  <course>268.89</course>
  <speed>0.0</speed>
  <fix>3d</fix>
</trkpt>
<trkpt lat="40.0728419" lon="-105.2305749">
  <ele>1586.17</ele>
  <time>2026-08-28T19:09:15Z</time>
  <course>7.67</course>
  <speed>0.01414213562373095</speed>
  <fix>3d</fix>
</trkpt>
<trkpt lat="40.072842" lon="-105.2305751">
  <ele>1586.09</ele>
  <time>2026-08-28T19:09:15Z</time>
  <course>267.98</course>
  <speed>0.0</speed>
  <fix>3d</fix>
</trkpt>
<trkpt lat="40.0728419" lon="-105.2305749">
  <ele>1586.19</ele>
  <time>2026-08-28T19:09:15Z</time>
  <course>7.66</course>
  <speed>0.01414213562373095</speed>
  <fix>3d</fix>
</trkpt>
<trkpt lat="40.072842" lon="-105.2305751">
  <ele>1586.09</ele>
  <time>2026-08-28T19:09:15Z</time>
  <course>266.96</course>
  <speed>0.0</speed>
  <fix>3d</fix>
</trkpt>
<trkpt lat="40.0728419" lon="-105.2305749">
  <ele>1586.27</ele>
  <time>2026-08-28T19:09:15Z</time>
  <course>7.61</course>
  <speed>0.01414213562373095</speed>
  <fix>3d</fix>
</trkpt>
<trkpt lat="40.072842" lon="-105.2305751">
  <ele>1586.13</ele>
  <time>2026-08-28T19:09:15Z</time>
  <course>266.84</course>
  <speed>0.0</speed>
  <fix>3d</fix>
</trkpt>
<trkpt lat="40.0728419" lon="-105.230575">
  <ele>1586.34</ele>
  <time>2026-08-28T19:09:15Z</time>
  <course>6.01</course>
  <speed>0.03</speed>
  <fix>3d</fix>
</trkpt>
<trkpt lat="40.072842" lon="-105.2305751">
  <ele>1586.2</ele>
  <time>2026-08-28T19:09:15Z</time>
  <course>271.33</course>
  <speed>0.0</speed>
  <fix>3d</fix>
</trkpt>
<trkpt lat="40.0728419" lon="-105.2305753">
  <ele>1586.62</ele>
  <time>2026-08-28T19:09:15Z</time>
  <course>3.75</course>
  <speed>0.23769728648009425</speed>
  <fix>3d</fix>
</trkpt>
<trkpt lat="40.072842" lon="-105.2305752">
  <ele>1586.33</ele>
  <time>2026-08-28T19:09:15Z</time>
  <course>276.85</course>
  <speed>0.09</speed>
  <fix>3d</fix>
</trkpt>
<trkpt lat="40.0728419" lon="-105.2305754">
  <ele>1586.68</ele>
  <time>2026-08-28T19:09:15Z</time>
  <course>3.62</course>
  <speed>0.2596150997149434</speed>
  <fix>3d</fix>
</trkpt>
<trkpt lat="40.0728421" lon="-105.2305761">
  <ele>1587.04</ele>
  <time>2026-08-28T19:09:15Z</time>
  <course>3.19</course>
  <speed>0.3889730067755345</speed>
  <fix>3d</fix>
</trkpt>
<trkpt lat="40.072842" lon="-105.2305756">
  <ele>1586.61</ele>
  <time>2026-08-28T19:09:15Z</time>
  <course>278.01</course>
  <speed>0.27</speed>
  <fix>3d</fix>
</trkpt>
<trkpt lat="40.0728421" lon="-105.2305762">
  <ele>1587.11</ele>
  <time>2026-08-28T19:09:15Z</time>
  <course>3.16</course>
  <speed>0.4080441152620633</speed>
  <fix>3d</fix>
</trkpt>
<trkpt lat="40.0728423" lon="-105.2305771">
  <ele>1587.47</ele>
  <time>2026-08-28T19:09:15Z</time>
  <course>3.16</course>
  <speed>0.5028916384272063</speed>
  <fix>3d</fix>
</trkpt>
<trkpt lat="40.0728421" lon="-105.2305765">
  <ele>1587.02</ele>
  <time>2026-08-28T19:09:15Z</time>
  <course>278.99</course>
  <speed>0.43</speed>
  <fix>3d</fix>
</trkpt>
<trkpt lat="40.0728423" lon="-105.2305772">
  <ele>1587.47</ele>
  <time>2026-08-28T19:09:15Z</time>
  <course>3.16</course>
  <speed>0.5028916384272063</speed>
  <fix>3d</fix>
</trkpt>
<trkpt lat="40.0728425" lon="-105.2305784">
  <ele>1587.93</ele>
  <time>2026-08-28T19:09:15Z</time>
  <course>3.35</course>
  <speed>0.5852349955359812</speed>
  <fix>3d</fix>
</trkpt>
<trkpt lat="40.0728422" lon="-105.2305776">
  <ele>1587.46</ele>
  <time>2026-08-28T19:09:15Z</time>
  <course>279.5</course>
  <speed>0.53</speed>
  <fix>3d</fix>
</trkpt>
<trkpt lat="40.0728426" lon="-105.2305786">
  <ele>1587.98</ele>
  <time>2026-08-28T19:09:15Z</time>
  <course>3.37</course>
  <speed>0.5882176467941097</speed>
  <fix>3d</fix>
</trkpt>
<trkpt lat="40.0728428" lon="-105.2305799">
  <ele>1588.42</ele>
  <time>2026-08-28T19:09:15Z</time>
  <course>3.61</course>
  <speed>0.648459713474939</speed>
  <fix>3d</fix>
</trkpt>
<trkpt lat="40.0728424" lon="-105.2305789">
  <ele>1587.91</ele>
  <time>2026-08-28T19:09:15Z</time>
  <course>279.77</course>
  <speed>0.62</speed>
  <fix>3d</fix>
</trkpt>
<trkpt lat="40.0728428" lon="-105.2305801">
  <ele>1588.49</ele>
  <time>2026-08-28T19:09:15Z</time>
  <course>3.66</course>
  <speed>0.648459713474939</speed>
  <fix>3d</fix>
</trkpt>
<trkpt lat="40.0728431" lon="-105.2305815">
  <ele>1588.93</ele>
  <time>2026-08-28T19:09:15Z</time>
  <course>3.87</course>
  <speed>0.6896375859826667</speed>
  <fix>3d</fix>
</trkpt>
<trkpt lat="40.0728426" lon="-105.2305804">
  <ele>1588.39</ele>
  <time>2026-08-28T19:09:15Z</time>
  <course>280.13</course>
  <speed>0.68</speed>
  <fix>3d</fix>
</trkpt>
<trkpt lat="40.0728431" lon="-105.2305817">
  <ele>1589.0</ele>
  <time>2026-08-28T19:09:15Z</time>
  <course>3.9</course>
  <speed>0.6992138442565335</speed>
  <fix>3d</fix>
</trkpt>
<trkpt lat="40.0728433" lon="-105.2305831">
  <ele>1589.44</ele>
  <time>2026-08-28T19:09:15Z</time>
  <course>2.78</course>
  <speed>0.7308214556237386</speed>
  <fix>3d</fix>
</trkpt>
<trkpt lat="40.0728428" lon="-105.230582">
  <ele>1588.88</ele>
  <time>2026-08-28T19:09:15Z</time>
  <course>280.63</course>
  <speed>0.72</speed>
  <fix>3d</fix>
</trkpt>
<trkpt lat="40.0728434" lon="-105.2305834">
  <ele>1589.52</ele>
  <time>2026-08-28T19:09:15Z</time>
  <course>2.79</course>
  <speed>0.7308214556237386</speed>
  <fix>3d</fix>
</trkpt>
<trkpt lat="40.0728436" lon="-105.2305849">
  <ele>1589.96</ele>
  <time>2026-08-28T19:09:15Z</time>
  <course>2.95</course>
  <speed>0.7596051605933176</speed>
  <fix>3d</fix>
</trkpt>
<trkpt lat="40.0728431" lon="-105.2305838">
  <ele>1589.38</ele>
  <time>2026-08-28T19:09:15Z</time>
  <course>281.16</course>
  <speed>0.76</speed>
  <fix>3d</fix>
</trkpt>
<trkpt lat="40.0728436" lon="-105.2305852">
  <ele>1590.06</ele>
  <time>2026-08-28T19:09:15Z</time>
  <course>2.97</course>
  <speed>0.7692203845452874</speed>
  <fix>3d</fix>
</trkpt>
<trkpt lat="40.0728439" lon="-105.2305867">
  <ele>1590.49</ele>
  <time>2026-08-28T19:09:15Z</time>
  <course>3.13</course>
  <speed>0.7884795495128583</speed>
  <fix>3d</fix>
</trkpt>
<trkpt lat="40.0728433" lon="-105.2305856">
  <ele>1589.9</ele>
  <time>2026-08-28T19:09:15Z</time>
  <course>281.69</course>
  <speed>0.79</speed>
  <fix>3d</fix>
</trkpt>
<trkpt lat="40.0728439" lon="-105.2305868">
  <ele>1590.5</ele>
  <time>2026-08-28T19:09:15Z</time>
  <course>3.13</course>
  <speed>0.7884795495128583</speed>
  <fix>3d</fix>
</trkpt>
<trkpt lat="40.0728441" lon="-105.2305886">
  <ele>1591.02</ele>
  <time>2026-08-28T19:09:15Z</time>
  <course>3.32</course>
  <speed>0.8077747210701756</speed>
  <fix>3d</fix>
</trkpt>
<trkpt lat="40.0728436" lon="-105.2305874">
  <ele>1590.42</ele>
  <time>2026-08-28T19:09:15Z</time>
  <course>282.23</course>
  <speed>0.82</speed>
  <fix>3d</fix>
</trkpt>
<trkpt lat="40.0728442" lon="-105.2305889">
  <ele>1591.11</ele>
  <time>2026-08-28T19:09:15Z</time>
  <course>3.36</course>
  <speed>0.8077747210701756</speed>
  <fix>3d</fix>
</trkpt>
<trkpt lat="40.0728444" lon="-105.2305906">
  <ele>1591.55</ele>
  <time>2026-08-28T19:09:15Z</time>
  <course>3.58</course>
  <speed>0.8246211251235321</speed>
  <fix>3d</fix>
</trkpt>
<trkpt lat="40.072844" lon="-105.2305894">
  <ele>1590.94</ele>
  <time>2026-08-28T19:09:15Z</time>
  <course>282.79</course>
  <speed>0.85</speed>
  <fix>3d</fix>
</trkpt>
<trkpt lat="40.0728445" lon="-105.2305908">
  <ele>1591.62</ele>
  <time>2026-08-28T19:09:15Z</time>
  <course>3.62</course>
  <speed>0.8246211251235321</speed>
  <fix>3d</fix>
</trkpt>
<trkpt lat="40.0728447" lon="-105.2305926">
  <ele>1592.07</ele>
  <time>2026-08-28T19:09:15Z</time>
  <course>3.86</course>
  <speed>0.8440379138403676</speed>
  <fix>3d</fix>
</trkpt>
<trkpt lat="40.0728443" lon="-105.2305914">
  <ele>1591.46</ele>
  <time>2026-08-28T19:09:15Z</time>
  <course>283.39</course>
  <speed>0.86</speed>
  <fix>3d</fix>
</trkpt>
<trkpt lat="40.0728448" lon="-105.2305926">
  <ele>1592.09</ele>
  <time>2026-08-28T19:09:15Z</time>
  <course>3.87</course>
  <speed>0.8440379138403676</speed>
  <fix>3d</fix>
</trkpt>
<trkpt lat="40.0728451" lon="-105.2305946">
  <ele>1592.6</ele>
  <time>2026-08-28T19:09:15Z</time>
  <course>4.12</course>
  <speed>0.8537564055396598</speed>
  <fix>3d</fix>
</trkpt>
<trkpt lat="40.0728447" lon="-105.2305934">
  <ele>1591.98</ele>
  <time>2026-08-28T19:09:15Z</time>
  <course>284.02</course>
  <speed>0.88</speed>
  <fix>3d</fix>
</trkpt>
<trkpt lat="40.0728451" lon="-105.2305949">
  <ele>1592.68</ele>
  <time>2026-08-28T19:09:15Z</time>
  <course>4.16</course>
  <speed>0.863481325796916</speed>
  <fix>3d</fix>
</trkpt>
<trkpt lat="40.0728454" lon="-105.2305967">
  <ele>1593.13</ele>
  <time>2026-08-28T19:09:15Z</time>
  <course>4.39</course>
  <speed>0.873212459828649</speed>
  <fix>3d</fix>
</trkpt>
<trkpt lat="40.072845" lon="-105.2305954">
  <ele>1592.51</ele>
  <time>2026-08-28T19:09:15Z</time>
  <course>284.63</course>
  <speed>0.89</speed>
  <fix>3d</fix>
</trkpt>
<trkpt lat="40.0728455" lon="-105.230597">
  <ele>1593.21</ele>
  <time>2026-08-28T19:09:15Z</time>
  <course>4.43</course>
  <speed>0.873212459828649</speed>
  <fix>3d</fix>
</trkpt>
<trkpt lat="40.0728458" lon="-105.2305987">
  <ele>1593.66</ele>
  <time>2026-08-28T19:09:15Z</time>
  <course>4.59</course>
  <speed>0.8829496021857647</speed>
  <fix>3d</fix>
</trkpt>
<trkpt lat="40.0728455" lon="-105.2305974">
  <ele>1593.04</ele>
  <time>2026-08-28T19:09:15Z</time>
  <course>285.21</course>
  <speed>0.9</speed>
  <fix>3d</fix>
</trkpt>
<trkpt lat="40.0728458" lon="-105.2305988">
  <ele>1593.67</ele>
  <time>2026-08-28T19:09:15Z</time>
  <course>4.59</course>
  <speed>0.8829496021857647</speed>
  <fix>3d</fix>
</trkpt>
<trkpt lat="40.0728462" lon="-105.2306009">
  <ele>1594.19</ele>
  <time>2026-08-28T19:09:15Z</time>
  <course>4.75</course>
  <speed>0.8949860334105779</speed>
  <fix>3d</fix>
</trkpt>
<trkpt lat="40.072846" lon="-105.2305995">
  <ele>1593.56</ele>
  <time>2026-08-28T19:09:15Z</time>
  <course>285.76</course>
  <speed>0.91</speed>
  <fix>3d</fix>
</trkpt>
<trkpt lat="40.0728463" lon="-105.2306011">
  <ele>1594.26</ele>
  <time>2026-08-28T19:09:15Z</time>
  <course>4.77</course>
  <speed>0.8949860334105779</speed>
  <fix>3d</fix>
</trkpt>
<trkpt lat="40.0728466" lon="-105.230603">
  <ele>1594.73</ele>
  <time>2026-08-28T19:09:15Z</time>
  <course>4.9</course>
  <speed>0.8949860334105779</speed>
  <fix>3d</fix>
</trkpt>
<trkpt lat="40.0728464" lon="-105.2306016">
  <ele>1594.09</ele>
  <time>2026-08-28T19:09:15Z</time>
  <course>286.24</course>
  <speed>0.92</speed>
  <fix>3d</fix>
</trkpt>
<trkpt lat="40.0728466" lon="-105.230603">
  <ele>1594.73</ele>
  <time>2026-08-28T19:09:15Z</time>
  <course>4.9</course>
  <speed>0.8949860334105779</speed>
  <fix>3d</fix>
</trkpt>
<trkpt lat="40.0728471" lon="-105.2306051">
  <ele>1595.26</ele>
  <time>2026-08-28T19:09:15Z</time>
  <course>5.02</course>
  <speed>0.9070832376358854</speed>
  <fix>3d</fix>
</trkpt>
<trkpt lat="40.0728469" lon="-105.2306036">
  <ele>1594.62</ele>
  <time>2026-08-28T19:09:15Z</time>
  <course>286.65</course>
  <speed>0.92</speed>
  <fix>3d</fix>
</trkpt>
<trkpt lat="40.0728472" lon="-105.2306054">
  <ele>1595.34</ele>
  <time>2026-08-28T19:09:15Z</time>
  <course>5.03</course>
  <speed>0.9070832376358854</speed>
  <fix>3d</fix>
</trkpt>
<trkpt lat="40.0728476" lon="-105.2306072">
  <ele>1595.77</ele>
  <time>2026-08-28T19:09:15Z</time>
  <course>7.29</course>
  <speed>0.9070832376358854</speed>
  <fix>3d</fix>
</trkpt>
<trkpt lat="40.0728474" lon="-105.2306057">
  <ele>1595.15</ele>
  <time>2026-08-28T19:09:15Z</time>
  <course>286.95</course>
  <speed>0.93</speed>
  <fix>3d</fix>
</trkpt>
<trkpt lat="40.0728481" lon="-105.2306093">
  <ele>1596.11</ele>
  <time>2026-08-28T19:09:15Z</time>
  <course>8.81</course>
  <speed>0.8780091115700337</speed>
  <fix>3d</fix>
</trkpt>
<trkpt lat="40.0728478" lon="-105.2306078">
  <ele>1595.61</ele>
  <time>2026-08-28T19:09:15Z</time>
  <course>287.41</course>
  <speed>0.91</speed>
  <fix>3d</fix>
</trkpt>
<trkpt lat="40.0728486" lon="-105.2306112">
  <ele>1596.34</ele>
  <time>2026-08-28T19:09:15Z</time>
  <course>9.03</course>
  <speed>0.8516454661418682</speed>
  <fix>3d</fix>
</trkpt>
<trkpt lat="40.0728483" lon="-105.2306098">
  <ele>1595.95</ele>
  <time>2026-08-28T19:09:15Z</time>
  <course>288.25</course>
  <speed>0.89</speed>
  <fix>3d</fix>
</trkpt>
<trkpt lat="40.072849" lon="-105.2306131">
  <ele>1596.49</ele>
  <time>2026-08-28T19:09:15Z</time>
  <course>8.73</course>
  <speed>0.8228000972289685</speed>
  <fix>3d</fix>
</trkpt>
<trkpt lat="40.0728488" lon="-105.2306118">
  <ele>1596.16</ele>
  <time>2026-08-28T19:09:15Z</time>
  <course>289.35</course>
  <speed>0.86</speed>
  <fix>3d</fix>
</trkpt>
<trkpt lat="40.0728496" lon="-105.2306149">
  <ele>1596.61</ele>
  <time>2026-08-28T19:09:15Z</time>
  <course>8.42</course>
  <speed>0.7749193506423749</speed>
  <fix>3d</fix>
</trkpt>
<trkpt lat="40.0728494" lon="-105.2306136">
  <ele>1596.31</ele>
  <time>2026-08-28T19:09:15Z</time>
  <course>290.68</course>
  <speed>0.83</speed>
  <fix>3d</fix>
</trkpt>
<trkpt lat="40.07285" lon="-105.2306166">
  <ele>1596.73</ele>
  <time>2026-08-28T19:09:15Z</time>
  <course>8.38</course>
  <speed>0.6992138442565335</speed>
  <fix>3d</fix>
</trkpt>
<trkpt lat="40.0728499" lon="-105.2306154">
  <ele>1596.44</ele>
  <time>2026-08-28T19:09:15Z</time>
  <course>292.05</course>
  <speed>0.77</speed>
  <fix>3d</fix>
</trkpt>
<trkpt lat="40.0728505" lon="-105.2306181">
  <ele>1596.84</ele>
  <time>2026-08-28T19:09:15Z</time>
  <course>8.33</course>
  <speed>0.5948108943185221</speed>
  <fix>3d</fix>
</trkpt>
<trkpt lat="40.0728504" lon="-105.230617">
  <ele>1596.55</ele>
  <time>2026-08-28T19:09:15Z</time>
  <course>293.48</course>
  <speed>0.7</speed>
  <fix>3d</fix>
</trkpt>
<trkpt lat="40.0728509" lon="-105.2306193">
  <ele>1596.96</ele>
  <time>2026-08-28T19:09:15Z</time>
  <course>8.15</course>
  <speed>0.49040799340956914</speed>
  <fix>3d</fix>
</trkpt>
<trkpt lat="40.0728509" lon="-105.2306184">
  <ele>1596.66</ele>
  <time>2026-08-28T19:09:15Z</time>
  <course>295.39</course>
  <speed>0.6</speed>
  <fix>3d</fix>
</trkpt>
<trkpt lat="40.0728513" lon="-105.2306203">
  <ele>1597.07</ele>
  <time>2026-08-28T19:09:15Z</time>
  <course>7.94</course>
  <speed>0.38600518131237566</speed>
  <fix>3d</fix>
</trkpt>
<trkpt lat="40.0728514" lon="-105.2306196">
  <ele>1596.79</ele>
  <time>2026-08-28T19:09:15Z</time>
  <course>298.24</course>
  <speed>0.49</speed>
  <fix>3d</fix>
</trkpt>
<trkpt lat="40.0728516" lon="-105.230621">
  <ele>1597.2</ele>
  <time>2026-08-28T19:09:15Z</time>
  <course>7.75</course>
  <speed>0.2816025568065745</speed>
  <fix>3d</fix>
</trkpt>
<trkpt lat="40.0728517" lon="-105.2306204">
  <ele>1596.9</ele>
  <time>2026-08-28T19:09:15Z</time>
  <course>302.21</course>
  <speed>0.39</speed>
  <fix>3d</fix>
</trkpt>
<trkpt lat="40.0728519" lon="-105.2306215">
  <ele>1597.33</ele>
  <time>2026-08-28T19:09:15Z</time>
  <course>7.68</course>
  <speed>0.196468827043885</speed>
  <fix>3d</fix>
</trkpt>
<trkpt lat="40.0728521" lon="-105.2306212">
  <ele>1597.04</ele>
  <time>2026-08-28T19:09:15Z</time>
  <course>307.29</course>
  <speed>0.29</speed>
  <fix>3d</fix>
</trkpt>
<trkpt lat="40.0728521" lon="-105.2306219">
  <ele>1597.47</ele>
  <time>2026-08-28T19:09:15Z</time>
  <course>7.74</course>
  <speed>0.12165525060596438</speed>
  <fix>3d</fix>
</trkpt>
<trkpt lat="40.0728524" lon="-105.2306216">
  <ele>1597.17</ele>
  <time>2026-08-28T19:09:15Z</time>
  <course>313.7</course>
  <speed>0.21</speed>
  <fix>3d</fix>
</trkpt>
<trkpt lat="40.0728523" lon="-105.230622">
  <ele>1597.61</ele>
  <time>2026-08-28T19:09:15Z</time>
  <course>7.87</course>
  <speed>0.06</speed>
  <fix>3d</fix>
</trkpt>
<trkpt lat="40.0728527" lon="-105.2306218">
  <ele>1597.32</ele>
  <time>2026-08-28T19:09:15Z</time>
  <course>322.81</course>
  <speed>0.13</speed>
  <fix>3d</fix>
</trkpt>
<trkpt lat="40.0728524" lon="-105.2306221">
  <ele>1597.75</ele>
  <time>2026-08-28T19:09:15Z</time>
  <course>8.03</course>
  <speed>0.0412310562561766</speed>
  <fix>3d</fix>
</trkpt>
<trkpt lat="40.0728528" lon="-105.230622">
  <ele>1597.46</ele>
  <time>2026-08-28T19:09:15Z</time>
  <course>341.11</course>
  <speed>0.07</speed>
  <fix>3d</fix>
</trkpt>
<trkpt lat="40.0728525" lon="-105.230622">
  <ele>1597.88</ele>
  <time>2026-08-28T19:09:15Z</time>
  <course>8.17</course>
  <speed>0.07280109889280519</speed>
  <fix>3d</fix>
</trkpt>
<trkpt lat="40.0728529" lon="-105.230622">
  <ele>1597.59</ele>
  <time>2026-08-28T19:09:15Z</time>
  <course>44.46</course>
  <speed>0.03</speed>
  <fix>3d</fix>
</trkpt>
<trkpt lat="40.0728526" lon="-105.2306219">
  <ele>1598.0</ele>
  <time>2026-08-28T19:09:15Z</time>
  <course>8.36</course>
  <speed>0.11661903789690602</speed>
  <fix>3d</fix>
</trkpt>
<trkpt lat="40.0728529" lon="-105.2306219">
  <ele>1597.72</ele>
  <time>2026-08-28T19:09:15Z</time>
  <course>102.93</course>
  <speed>0.06</speed>
  <fix>3d</fix>
</trkpt>
<trkpt lat="40.0728525" lon="-105.2306217">
  <ele>1598.12</ele>
  <time>2026-08-28T19:09:15Z</time>
  <course>8.6</course>
  <speed>0.17804493814764857</speed>
  <fix>3d</fix>
</trkpt>
<trkpt lat="40.0728528" lon="-105.2306218">
  <ele>1597.85</ele>
  <time>2026-08-28T19:09:15Z</time>
  <course>118.44</course>
  <speed>0.11</speed>
  <fix>3d</fix>
</trkpt>
<trkpt lat="40.0728523" lon="-105.2306213">
  <ele>1598.22</ele>
  <time>2026-08-28T19:09:15Z</time>
  <course>8.91</course>
  <speed>0.2545584412271571</speed>
  <fix>3d</fix>
</trkpt>
<trkpt lat="40.0728527" lon="-105.2306215">
  <ele>1597.96</ele>
  <time>2026-08-28T19:09:15Z</time>
  <course>122.82</course>
  <speed>0.18</speed>
  <fix>3d</fix>
</trkpt>
<trkpt lat="40.072852" lon="-105.2306207">
  <ele>1598.29</ele>
  <time>2026-08-28T19:09:15Z</time>
  <course>8.95</course>
  <speed>0.378021163428716</speed>
  <fix>3d</fix>
</trkpt>
<trkpt lat="40.0728526" lon="-105.230621">
  <ele>1598.05</ele>
  <time>2026-08-28T19:09:15Z</time>
  <course>122.29</course>
  <speed>0.27</speed>
  <fix>3d</fix>
</trkpt>
<trkpt lat="40.0728517" lon="-105.2306198">
  <ele>1598.34</ele>
  <time>2026-08-28T19:09:15Z</time>
  <course>8.5</course>
  <speed>0.5131276644267</speed>
  <fix>3d</fix>
</trkpt>
<trkpt lat="40.0728522" lon="-105.2306203">
  <ele>1598.12</ele>
  <time>2026-08-28T19:09:15Z</time>
  <course>119.67</course>
  <speed>0.39</speed>
  <fix>3d</fix>
</trkpt>
<trkpt lat="40.0728512" lon="-105.2306185">
  <ele>1598.35</ele>
  <time>2026-08-28T19:09:15Z</time>
  <course>8.68</course>
  <speed>0.702353187506115</speed>
  <fix>3d</fix>
</trkpt>
<trkpt lat="40.0728519" lon="-105.2306194">
  <ele>1598.16</ele>
  <time>2026-08-28T19:09:15Z</time>
  <course>116.56</course>
  <speed>0.54</speed>
  <fix>3d</fix>
</trkpt>
<trkpt lat="40.0728507" lon="-105.2306167">
  <ele>1598.34</ele>
  <time>2026-08-28T19:09:15Z</time>
  <course>8.59</course>
  <speed>0.9128526715741155</speed>
  <fix>3d</fix>
</trkpt>
<trkpt lat="40.0728514" lon="-105.230618">
  <ele>1598.18</ele>
  <time>2026-08-28T19:09:15Z</time>
  <course>113.67</course>
  <speed>0.73</speed>
  <fix>3d</fix>
</trkpt>
<trkpt lat="40.07285" lon="-105.2306145">
  <ele>1598.33</ele>
  <time>2026-08-28T19:09:15Z</time>
  <course>8.74</course>
  <speed>1.1123398761170078</speed>
  <fix>3d</fix>
</trkpt>
<trkpt lat="40.0728508" lon="-105.2306162">
  <ele>1598.17</ele>
  <time>2026-08-28T19:09:15Z</time>
  <course>111.21</course>
  <speed>0.94</speed>
  <fix>3d</fix>
</trkpt>
<trkpt lat="40.0728494" lon="-105.230612">
  <ele>1598.31</ele>
  <time>2026-08-28T19:09:15Z</time>
  <course>20.56</course>
  <speed>1.2525174649480941</speed>
  <fix>3d</fix>
</trkpt>
<trkpt lat="40.0728501" lon="-105.2306139">
  <ele>1598.16</ele>
  <time>2026-08-28T19:09:15Z</time>
  <course>109.42</course>
  <speed>1.12</speed>
  <fix>3d</fix>
</trkpt>
<trkpt lat="40.0728487" lon="-105.2306089">
  <ele>1598.28</ele>
  <time>2026-08-28T19:09:15Z</time>
  <course>32.85</course>
  <speed>1.4340502083260542</speed>
  <fix>3d</fix>
</trkpt>
<trkpt lat="40.0728495" lon="-105.2306112">
  <ele>1598.15</ele>
  <time>2026-08-28T19:09:15Z</time>
  <course>106.98</course>
  <speed>1.28</speed>
  <fix>3d</fix>
</trkpt>
<trkpt lat="40.0728482" lon="-105.2306055">
  <ele>1598.27</ele>
  <time>2026-08-28T19:09:15Z</time>
  <course>45.01</course>
  <speed>1.5610893632332519</speed>
  <fix>3d</fix>
</trkpt>
<trkpt lat="40.0728488" lon="-105.2306081">
  <ele>1598.13</ele>
  <time>2026-08-28T19:09:15Z</time>
  <course>103.44</course>
  <speed>1.44</speed>
  <fix>3d</fix>
</trkpt>
<trkpt lat="40.0728478" lon="-105.2306018">
  <ele>1598.26</ele>
  <time>2026-08-28T19:09:15Z</time>
  <course>57.29</course>
  <speed>1.6546903033498443</speed>
  <fix>3d</fix>
</trkpt>
<trkpt lat="40.0728483" lon="-105.2306046">
  <ele>1598.13</ele>
  <time>2026-08-28T19:09:15Z</time>
  <course>99.7</course>
  <speed>1.57</speed>
  <fix>3d</fix>
</trkpt>
<trkpt lat="40.0728476" lon="-105.2305979">
  <ele>1598.27</ele>
  <time>2026-08-28T19:09:16Z</time>
  <course>69.7</course>
  <speed>1.71572142260916</speed>
  <fix>3d</fix>
</trkpt>
<trkpt lat="40.0728479" lon="-105.2306009">
  <ele>1598.13</ele>
  <time>2026-08-28T19:09:16Z</time>
  <course>96.4</course>
  <speed>1.66</speed>
  <fix>3d</fix>
</trkpt>
<trkpt lat="40.0728474" lon="-105.2305938">
  <ele>1598.28</ele>
  <time>2026-08-28T19:09:16Z</time>
  <course>82.0</course>
  <speed>1.7423260314877924</speed>
  <fix>3d</fix>
</trkpt>
<trkpt lat="40.0728476" lon="-105.2305969">
  <ele>1598.13</ele>
  <time>2026-08-28T19:09:16Z</time>
  <course>94.0</course>
  <speed>1.71</speed>
  <fix>3d</fix>
</trkpt>
<trkpt lat="40.0728473" lon="-105.2305897">
  <ele>1598.28</ele>
  <time>2026-08-28T19:09:16Z</time>
  <course>93.7</course>
  <speed>1.7534537347760277</speed>
  <fix>3d</fix>
</trkpt>
<trkpt lat="40.0728474" lon="-105.2305929">
  <ele>1598.14</ele>
  <time>2026-08-28T19:09:16Z</time>
  <course>92.81</course>
  <speed>1.74</speed>
  <fix>3d</fix>
</trkpt>
<trkpt lat="40.072847" lon="-105.2305856">
  <ele>1598.28</ele>
  <time>2026-08-28T19:09:16Z</time>
  <course>95.63</course>
  <speed>1.73738308959193</speed>
  <fix>3d</fix>
</trkpt>
<trkpt lat="40.0728473" lon="-105.2305888">
  <ele>1598.15</ele>
  <time>2026-08-28T19:09:16Z</time>
  <course>93.76</course>
  <speed>1.74</speed>
  <fix>3d</fix>
</trkpt>
<trkpt lat="40.0728467" lon="-105.2305816">
  <ele>1598.29</ele>
  <time>2026-08-28T19:09:16Z</time>
  <course>96.23</course>
  <speed>1.6907099100673657</speed>
  <fix>3d</fix>
</trkpt>
<trkpt lat="40.072847" lon="-105.2305847">
  <ele>1598.16</ele>
  <time>2026-08-28T19:09:16Z</time>
  <course>95.55</course>
  <speed>1.72</speed>
  <fix>3d</fix>
</trkpt>
<trkpt lat="40.0728464" lon="-105.2305779">
  <ele>1598.29</ele>
  <time>2026-08-28T19:09:16Z</time>
  <course>97.24</course>
  <speed>1.5740711546813886</speed>
  <fix>3d</fix>
</trkpt>
<trkpt lat="40.0728467" lon="-105.2305807">
  <ele>1598.17</ele>
  <time>2026-08-28T19:09:16Z</time>
  <course>96.66</course>
  <speed>1.65</speed>
  <fix>3d</fix>
</trkpt>
<trkpt lat="40.072846" lon="-105.2305744">
  <ele>1598.3</ele>
  <time>2026-08-28T19:09:16Z</time>
  <course>98.47</course>
  <speed>1.4057738082636198</speed>
  <fix>3d</fix>
</trkpt>
<trkpt lat="40.0728463" lon="-105.230577">
  <ele>1598.18</ele>
  <time>2026-08-28T19:09:16Z</time>
  <course>97.8</course>
  <speed>1.53</speed>
  <fix>3d</fix>
</trkpt>
<trkpt lat="40.0728457" lon="-105.2305714">
  <ele>1598.3</ele>
  <time>2026-08-28T19:09:16Z</time>
  <course>99.97</course>
  <speed>1.1788553770501282</speed>
  <fix>3d</fix>
</trkpt>
<trkpt lat="40.072846" lon="-105.2305736">
  <ele>1598.18</ele>
  <time>2026-08-28T19:09:16Z</time>
  <course>99.14</course>
  <speed>1.35</speed>
  <fix>3d</fix>
</trkpt>
<trkpt lat="40.0728453" lon="-105.230569">
  <ele>1598.3</ele>
  <time>2026-08-28T19:09:16Z</time>
  <course>102.01</course>
  <speed>0.9024411338142783</speed>
  <fix>3d</fix>
</trkpt>
<trkpt lat="40.0728455" lon="-105.2305708">
  <ele>1598.19</ele>
  <time>2026-08-28T19:09:16Z</time>
  <course>100.93</course>
  <speed>1.11</speed>
  <fix>3d</fix>
</trkpt>
<trkpt lat="40.0728449" lon="-105.2305673">
  <ele>1598.3</ele>
  <time>2026-08-28T19:09:16Z</time>
  <course>102.68</course>
  <speed>0.6103277807866851</speed>
  <fix>3d</fix>
</trkpt>
<trkpt lat="40.0728452" lon="-105.2305685">
  <ele>1598.2</ele>
  <time>2026-08-28T19:09:16Z</time>
  <course>104.24</course>
  <speed>0.84</speed>
  <fix>3d</fix>
</trkpt>
<trkpt lat="40.0728446" lon="-105.2305663">
  <ele>1598.3</ele>
  <time>2026-08-28T19:09:16Z</time>
  <course>102.54</course>
  <speed>0.31906112267087633</speed>
  <fix>3d</fix>
</trkpt>
<trkpt lat="40.0728448" lon="-105.230567">
  <ele>1598.2</ele>
  <time>2026-08-28T19:09:16Z</time>
  <course>111.22</course>
  <speed>0.54</speed>
  <fix>3d</fix>
</trkpt>
<trkpt lat="40.0728443" lon="-105.230566">
  <ele>1598.29</ele>
  <time>2026-08-28T19:09:16Z</time>
  <course>102.45</course>
  <speed>0.16</speed>
  <fix>3d</fix>
</trkpt>
<trkpt lat="40.0728445" lon="-105.2305662">
  <ele>1598.2</ele>
  <time>2026-08-28T19:09:16Z</time>
  <course>131.89</course>
  <speed>0.26</speed>
  <fix>3d</fix>
</trkpt>
<trkpt lat="40.072844" lon="-105.2305663">
  <ele>1598.29</ele>
  <time>2026-08-28T19:09:16Z</time>
  <course>102.31</course>
  <speed>0.2884441020371191</speed>
  <fix>3d</fix>
</trkpt>
<trkpt lat="40.0728441" lon="-105.2305661">
  <ele>1598.19</ele>
  <time>2026-08-28T19:09:16Z</time>
  <course>204.63</course>
  <speed>0.18</speed>
  <fix>3d</fix>
</trkpt>
<trkpt lat="40.0728437" lon="-105.230567">
  <ele>1598.28</ele>
  <time>2026-08-28T19:09:16Z</time>
  <course>102.16</course>
  <speed>0.4308131845707603</speed>
  <fix>3d</fix>
</trkpt>
<trkpt lat="40.0728438" lon="-105.2305665">
  <ele>1598.19</ele>
  <time>2026-08-28T19:09:16Z</time>
  <course>241.39</course>
  <speed>0.34</speed>
  <fix>3d</fix>
</trkpt>
<trkpt lat="40.0728434" lon="-105.2305681">
  <ele>1598.28</ele>
  <time>2026-08-28T19:09:16Z</time>
  <course>102.05</course>
  <speed>0.5186520991955976</speed>
  <fix>3d</fix>
</trkpt>
<trkpt lat="40.0728435" lon="-105.2305673">
  <ele>1598.18</ele>
  <time>2026-08-28T19:09:16Z</time>
  <course>249.86</course>
  <speed>0.48</speed>
  <fix>3d</fix>
</trkpt>
<trkpt lat="40.072843" lon="-105.2305694">
  <ele>1598.28</ele>
  <time>2026-08-28T19:09:16Z</time>
  <course>101.99</course>
  <speed>0.5502726596879042</speed>
  <fix>3d</fix>
</trkpt>
<trkpt lat="40.0728432" lon="-105.2305685">
  <ele>1598.18</ele>
  <time>2026-08-28T19:09:16Z</time>
  <course>252.22</course>
  <speed>0.56</speed>
  <fix>3d</fix>
</trkpt>
<trkpt lat="40.0728427" lon="-105.2305706">
  <ele>1598.29</ele>
  <time>2026-08-28T19:09:16Z</time>
  <course>95.65</course>
  <speed>0.567978872846517</speed>
  <fix>3d</fix>
</trkpt>
<trkpt lat="40.0728429" lon="-105.2305698">
  <ele>1598.18</ele>
  <time>2026-08-28T19:09:16Z</time>
  <course>250.66</course>
  <speed>0.59</speed>
  <fix>3d</fix>
</trkpt>
<trkpt lat="40.0728422" lon="-105.2305719">
  <ele>1598.29</ele>
  <time>2026-08-28T19:09:16Z</time>
  <course>82.0</course>
  <speed>0.5239274758971895</speed>
  <fix>3d</fix>
</trkpt>
<trkpt lat="40.0728426" lon="-105.2305711">
  <ele>1598.18</ele>
  <time>2026-08-28T19:09:16Z</time>
  <course>248.19</course>
  <speed>0.59</speed>
  <fix>3d</fix>
</trkpt>
<trkpt lat="40.0728419" lon="-105.230573">
  <ele>1598.29</ele>
  <time>2026-08-28T19:09:16Z</time>
  <course>69.78</course>
  <speed>0.49040799340956914</speed>
  <fix>3d</fix>
</trkpt>
<trkpt lat="40.0728421" lon="-105.2305724">
  <ele>1598.19</ele>
  <time>2026-08-28T19:09:16Z</time>
  <course>248.86</course>
  <speed>0.55</speed>
  <fix>3d</fix>
</trkpt>
<trkpt lat="40.0728416" lon="-105.2305742">
  <ele>1598.29</ele>
  <time>2026-08-28T19:09:16Z</time>
  <course>57.74</course>
  <speed>0.4743416490252569</speed>
  <fix>3d</fix>
</trkpt>
<trkpt lat="40.0728418" lon="-105.2305735">
  <ele>1598.19</ele>
  <time>2026-08-28T19:09:16Z</time>
  <course>251.47</course>
  <speed>0.52</speed>
  <fix>3d</fix>
</trkpt>
<trkpt lat="40.0728414" lon="-105.2305753">
  <ele>1598.29</ele>
  <time>2026-08-28T19:09:16Z</time>
  <course>45.66</course>
  <speed>0.4617358552246078</speed>
  <fix>3d</fix>
</trkpt>
<trkpt lat="40.0728415" lon="-105.2305747">
  <ele>1598.19</ele>
  <time>2026-08-28T19:09:16Z</time>
  <course>253.4</course>
  <speed>0.5</speed>
  <fix>3d</fix>
</trkpt>
<trkpt lat="40.0728411" lon="-105.2305764">
  <ele>1598.29</ele>
  <time>2026-08-28T19:09:16Z</time>
  <course>33.56</course>
  <speed>0.4459820624195552</speed>
  <fix>3d</fix>
</trkpt>
<trkpt lat="40.0728413" lon="-105.2305758">
  <ele>1598.19</ele>
  <time>2026-08-28T19:09:16Z</time>
  <course>253.53</course>
  <speed>0.47</speed>
  <fix>3d</fix>
</trkpt>
<trkpt lat="40.0728408" lon="-105.2305774">
  <ele>1598.29</ele>
  <time>2026-08-28T19:09:16Z</time>
  <course>21.54</course>
  <speed>0.41231056256176607</speed>
  <fix>3d</fix>
</trkpt>
<trkpt lat="40.0728411" lon="-105.2305768">
  <ele>1598.2</ele>
  <time>2026-08-28T19:09:16Z</time>
  <course>251.81</course>
  <speed>0.45</speed>
  <fix>3d</fix>
</trkpt>
<trkpt lat="40.0728405" lon="-105.2305783">
  <ele>1598.29</ele>
  <time>2026-08-28T19:09:16Z</time>
  <course>10.1</course>
  <speed>0.3935733730830886</speed>
  <fix>3d</fix>
</trkpt>
<trkpt lat="40.0728408" lon="-105.2305778">
  <ele>1598.2</ele>
  <time>2026-08-28T19:09:16Z</time>
  <course>248.42</course>
  <speed>0.41</speed>
  <fix>3d</fix>
</trkpt>
<trkpt lat="40.0728402" lon="-105.2305792">
  <ele>1598.29</ele>
  <time>2026-08-28T19:09:16Z</time>
  <course>10.71</course>
  <speed>0.37589892258425</speed>
  <fix>3d</fix>
</trkpt>
<trkpt lat="40.0728405" lon="-105.2305787">
  <ele>1598.2</ele>
  <time>2026-08-28T19:09:16Z</time>
  <course>246.32</course>
  <speed>0.39</speed>
  <fix>3d</fix>
</trkpt>
<trkpt lat="40.0728399" lon="-105.2305799">
  <ele>1598.29</ele>
  <time>2026-08-28T19:09:16Z</time>
  <course>11.07</course>
  <speed>0.3</speed>
  <fix>3d</fix>
</trkpt>
<trkpt lat="40.0728402" lon="-105.2305795">
  <ele>1598.2</ele>
  <time>2026-08-28T19:09:16Z</time>
  <course>243.37</course>
  <speed>0.36</speed>
  <fix>3d</fix>
</trkpt>
<trkpt lat="40.0728397" lon="-105.2305804">
  <ele>1598.3</ele>
  <time>2026-08-28T19:09:16Z</time>
  <course>11.17</course>
  <speed>0.2262741699796952</speed>
  <fix>3d</fix>
</trkpt>
<trkpt lat="40.0728399" lon="-105.2305801">
  <ele>1598.21</ele>
  <time>2026-08-28T19:09:16Z</time>
  <course>236.27</course>
  <speed>0.27</speed>
  <fix>3d</fix>
</trkpt>
<trkpt lat="40.0728394" lon="-105.2305807">
  <ele>1598.3</ele>
  <time>2026-08-28T19:09:16Z</time>
  <course>11.16</course>
  <speed>0.15264337522473748</speed>
  <fix>3d</fix>
</trkpt>
<trkpt lat="40.0728396" lon="-105.2305806">
  <ele>1598.21</ele>
  <time>2026-08-28T19:09:16Z</time>
  <course>227.67</course>
  <speed>0.19</speed>
  <fix>3d</fix>
</trkpt>
<trkpt lat="40.0728393" lon="-105.2305808">
  <ele>1598.31</ele>
  <time>2026-08-28T19:09:16Z</time>
  <course>11.15</course>
  <speed>0.09055385138137417</speed>
  <fix>3d</fix>
</trkpt>
<trkpt lat="40.0728395" lon="-105.2305808">
  <ele>1598.21</ele>
  <time>2026-08-28T19:09:16Z</time>
  <course>213.23</course>
  <speed>0.11</speed>
  <fix>3d</fix>
</trkpt>
<trkpt lat="40.0728392" lon="-105.2305808">
  <ele>1598.31</ele>
  <time>2026-08-28T19:09:16Z</time>
  <course>11.16</course>
  <speed>0.06403124237432849</speed>
  <fix>3d</fix>
</trkpt>
<trkpt lat="40.0728393" lon="-105.2305808">
  <ele>1598.21</ele>
  <time>2026-08-28T19:09:16Z</time>
  <course>171.25</course>
  <speed>0.05</speed>
  <fix>3d</fix>
</trkpt>
<trkpt lat="40.0728392" lon="-105.2305807">
  <ele>1598.3</ele>
  <time>2026-08-28T19:09:16Z</time>
  <course>11.16</course>
  <speed>0.09055385138137417</speed>
  <fix>3d</fix>
</trkpt>
<trkpt lat="40.0728393" lon="-105.2305808">
  <ele>1598.2</ele>
  <time>2026-08-28T19:09:16Z</time>
  <course>98.16</course>
  <speed>0.06</speed>
  <fix>3d</fix>
</trkpt>
<trkpt lat="40.0728392" lon="-105.2305804">
  <ele>1598.29</ele>
  <time>2026-08-28T19:09:16Z</time>
  <course>11.16</course>
  <speed>0.13152946437965907</speed>
  <fix>3d</fix>
</trkpt>
<trkpt lat="40.0728393" lon="-105.2305806">
  <ele>1598.2</ele>
  <time>2026-08-28T19:09:16Z</time>
  <course>75.14</course>
  <speed>0.12</speed>
  <fix>3d</fix>
</trkpt>
<trkpt lat="40.0728394" lon="-105.23058">
  <ele>1598.29</ele>
  <time>2026-08-28T19:09:16Z</time>
  <course>11.14</course>
  <speed>0.1772004514666935</speed>
  <fix>3d</fix>
</trkpt>
<trkpt lat="40.0728393" lon="-105.2305803">
  <ele>1598.2</ele>
  <time>2026-08-28T19:09:16Z</time>
  <course>66.81</course>
  <speed>0.17</speed>
  <fix>3d</fix>
</trkpt>
<trkpt lat="40.0728394" lon="-105.2305796">
  <ele>1598.28</ele>
  <time>2026-08-28T19:09:16Z</time>
  <course>11.15</course>
  <speed>0.20615528128088303</speed>
  <fix>3d</fix>
</trkpt>
<trkpt lat="40.0728395" lon="-105.2305799">
  <ele>1598.2</ele>
  <time>2026-08-28T19:09:16Z</time>
  <course>62.4</course>
  <speed>0.22</speed>
  <fix>3d</fix>
</trkpt>
<trkpt lat="40.0728397" lon="-105.2305791">
  <ele>1598.28</ele>
  <time>2026-08-28T19:09:16Z</time>
  <course>11.14</course>
  <speed>0.23706539182259395</speed>
  <fix>3d</fix>
</trkpt>
<trkpt lat="40.0728396" lon="-105.2305794">
  <ele>1598.2</ele>
  <time>2026-08-28T19:09:16Z</time>
  <course>59.48</course>
  <speed>0.25</speed>
  <fix>3d</fix>
</trkpt>
<trkpt lat="40.0728399" lon="-105.2305785">
  <ele>1598.28</ele>
  <time>2026-08-28T19:09:16Z</time>
  <course>11.13</course>
  <speed>0.25059928172283336</speed>
  <fix>3d</fix>
</trkpt>
<trkpt lat="40.0728399" lon="-105.2305789">
  <ele>1598.2</ele>
  <time>2026-08-28T19:09:16Z</time>
  <course>57.35</course>
  <speed>0.28</speed>
  <fix>3d</fix>
</trkpt>
<trkpt lat="40.0728402" lon="-105.2305779">
  <ele>1598.28</ele>
  <time>2026-08-28T19:09:16Z</time>
  <course>11.16</course>
  <speed>0.2641968962724581</speed>
  <fix>3d</fix>
</trkpt>
<trkpt lat="40.0728402" lon="-105.2305782">
  <ele>1598.2</ele>
  <time>2026-08-28T19:09:16Z</time>
  <course>55.7</course>
  <speed>0.3</speed>
  <fix>3d</fix>
</trkpt>
<trkpt lat="40.0728405" lon="-105.2305774">
  <ele>1598.28</ele>
  <time>2026-08-28T19:09:16Z</time>
  <course>11.15</course>
  <speed>0.260768096208106</speed>
  <fix>3d</fix>
</trkpt>
<trkpt lat="40.0728405" lon="-105.2305777">
  <ele>1598.2</ele>
  <time>2026-08-28T19:09:16Z</time>
  <course>54.44</course>
  <speed>0.3</speed>
  <fix>3d</fix>
</trkpt>
<trkpt lat="40.0728409" lon="-105.2305768">
  <ele>1598.28</ele>
  <time>2026-08-28T19:09:16Z</time>
  <course>11.18</course>
  <speed>0.25238858928247926</speed>
  <fix>3d</fix>
</trkpt>
<trkpt lat="40.0728409" lon="-105.2305771">
  <ele>1598.2</ele>
  <time>2026-08-28T19:09:16Z</time>
  <course>53.38</course>
  <speed>0.3</speed>
  <fix>3d</fix>
</trkpt>
<trkpt lat="40.0728412" lon="-105.2305763">
  <ele>1598.29</ele>
  <time>2026-08-28T19:09:16Z</time>
  <course>11.19</course>
  <speed>0.23853720883753127</speed>
  <fix>3d</fix>
</trkpt>
<trkpt lat="40.0728412" lon="-105.2305765">
  <ele>1598.21</ele>
  <time>2026-08-28T19:09:16Z</time>
  <course>52.47</course>
  <speed>0.29</speed>
  <fix>3d</fix>
</trkpt>
<trkpt lat="40.0728415" lon="-105.2305758">
  <ele>1598.3</ele>
  <time>2026-08-28T19:09:16Z</time>
  <course>11.24</course>
  <speed>0.21633307652783937</speed>
  <fix>3d</fix>
</trkpt>
<trkpt lat="40.0728415" lon="-105.230576">
  <ele>1598.21</ele>
  <time>2026-08-28T19:09:16Z</time>
  <course>51.7</course>
  <speed>0.27</speed>
  <fix>3d</fix>
</trkpt>
<trkpt lat="40.0728418" lon="-105.2305753">
  <ele>1598.3</ele>
  <time>2026-08-28T19:09:16Z</time>
  <course>11.38</course>
  <speed>0.194164878389476</speed>
  <fix>3d</fix>
</trkpt>
<trkpt lat="40.0728418" lon="-105.2305755">
  <ele>1598.21</ele>
  <time>2026-08-28T19:09:16Z</time>
  <course>51.05</course>
  <speed>0.25</speed>
  <fix>3d</fix>
</trkpt>
<trkpt lat="40.072842" lon="-105.2305749">
  <ele>1598.28</ele>
  <time>2026-08-28T19:09:16Z</time>
  <course>11.76</course>
  <speed>0.1664331697709324</speed>
  <fix>3d</fix>
</trkpt>
<trkpt lat="40.0728421" lon="-105.2305751">
  <ele>1598.21</ele>
  <time>2026-08-28T19:09:16Z</time>
  <course>50.47</course>
  <speed>0.22</speed>
  <fix>3d</fix>
</trkpt>
<trkpt lat="40.0728422" lon="-105.2305746">
  <ele>1598.23</ele>
  <time>2026-08-28T19:09:16Z</time>
  <course>12.09</course>
  <speed>0.130384048104053</speed>
  <fix>3d</fix>
</trkpt>
<trkpt lat="40.0728424" lon="-105.2305747">
  <ele>1598.19</ele>
  <time>2026-08-28T19:09:16Z</time>
  <course>50.03</course>
  <speed>0.19</speed>
  <fix>3d</fix>
</trkpt>
<trkpt lat="40.0728424" lon="-105.2305743">
  <ele>1598.13</ele>
  <time>2026-08-28T19:09:16Z</time>
  <course>12.4</course>
  <speed>0.10816653826391968</speed>
  <fix>3d</fix>
</trkpt>
<trkpt lat="40.0728426" lon="-105.2305744">
  <ele>1598.12</ele>
  <time>2026-08-28T19:09:16Z</time>
  <course>50.0</course>
  <speed>0.16</speed>
  <fix>3d</fix>
</trkpt>
<trkpt lat="40.0728426" lon="-105.2305741">
  <ele>1597.99</ele>
  <time>2026-08-28T19:09:16Z</time>
  <course>12.72</course>
  <speed>0.08062257748298549</speed>
  <fix>3d</fix>
</trkpt>
<trkpt lat="40.0728427" lon="-105.2305741">
  <ele>1598.02</ele>
  <time>2026-08-28T19:09:16Z</time>
  <course>50.64</course>
  <speed>0.13</speed>
  <fix>3d</fix>
</trkpt>
<trkpt lat="40.0728427" lon="-105.2305739">
  <ele>1597.8</ele>
  <time>2026-08-28T19:09:16Z</time>
  <course>13.03</course>
  <speed>0.053851648071345036</speed>
  <fix>3d</fix>
</trkpt>
<trkpt lat="40.0728428" lon="-105.2305739">
  <ele>1597.87</ele>
  <time>2026-08-28T19:09:16Z</time>
  <course>52.44</course>
  <speed>0.1</speed>
  <fix>3d</fix>
</trkpt>
<trkpt lat="40.0728427" lon="-105.2305737">
  <ele>1597.56</ele>
  <time>2026-08-28T19:09:16Z</time>
  <course>13.31</course>
  <speed>0.04</speed>
  <fix>3d</fix>
</trkpt>
<trkpt lat="40.0728429" lon="-105.2305737">
  <ele>1597.67</ele>
  <time>2026-08-28T19:09:16Z</time>
  <course>56.45</course>
  <speed>0.07</speed>
  <fix>3d</fix>
</trkpt>
<trkpt lat="40.0728428" lon="-105.2305736">
  <ele>1597.29</ele>
  <time>2026-08-28T19:09:16Z</time>
  <course>13.46</course>
  <speed>0.0282842712474619</speed>
  <fix>3d</fix>
</trkpt>
<trkpt lat="40.072843" lon="-105.2305736">
  <ele>1597.43</ele>
  <time>2026-08-28T19:09:16Z</time>
  <course>66.09</course>
  <speed>0.04</speed>
  <fix>3d</fix>
</trkpt>
<trkpt lat="40.0728428" lon="-105.2305736">
  <ele>1597.0</ele>
  <time>2026-08-28T19:09:16Z</time>
  <course>13.44</course>
  <speed>0.0412310562561766</speed>
  <fix>3d</fix>
</trkpt>
<trkpt lat="40.072843" lon="-105.2305735">
  <ele>1597.16</ele>
  <time>2026-08-28T19:09:16Z</time>
  <course>94.73</course>
  <speed>0.02</speed>
  <fix>3d</fix>
</trkpt>
<trkpt lat="40.0728428" lon="-105.2305735">
  <ele>1596.73</ele>
  <time>2026-08-28T19:09:16Z</time>
  <course>13.3</course>
  <speed>0.06</speed>
  <fix>3d</fix>
</trkpt>
<trkpt lat="40.072843" lon="-105.2305734">
  <ele>1596.88</ele>
  <time>2026-08-28T19:09:16Z</time>
  <course>145.34</course>
  <speed>0.02</speed>
  <fix>3d</fix>
</trkpt>
<trkpt lat="40.0728427" lon="-105.2305735">
  <ele>1596.5</ele>
  <time>2026-08-28T19:09:16Z</time>
  <course>13.08</course>
  <speed>0.07</speed>
  <fix>3d</fix>
</trkpt>
<trkpt lat="40.072843" lon="-105.2305734">
  <ele>1596.62</ele>
  <time>2026-08-28T19:09:16Z</time>
  <course>172.77</course>
  <speed>0.04</speed>
  <fix>3d</fix>
</trkpt>
<trkpt lat="40.0728426" lon="-105.2305735">
  <ele>1596.32</ele>
  <time>2026-08-28T19:09:16Z</time>
  <course>12.8</course>
  <speed>0.08062257748298549</speed>
  <fix>3d</fix>
</trkpt>
<trkpt lat="40.0728429" lon="-105.2305734">
  <ele>1596.4</ele>
  <time>2026-08-28T19:09:16Z</time>
  <course>187.27</course>
  <speed>0.05</speed>
  <fix>3d</fix>
</trkpt>
<trkpt lat="40.0728425" lon="-105.2305735">
  <ele>1596.18</ele>
  <time>2026-08-28T19:09:16Z</time>
  <course>12.62</course>
  <speed>0.09486832980505139</speed>
  <fix>3d</fix>
</trkpt>
<trkpt lat="40.0728428" lon="-105.2305734">
  <ele>1596.24</ele>
  <time>2026-08-28T19:09:16Z</time>
  <course>198.73</course>
  <speed>0.07</speed>
  <fix>3d</fix>
</trkpt>
<trkpt lat="40.0728424" lon="-105.2305735">
  <ele>1596.07</ele>
  <time>2026-08-28T19:09:16Z</time>
  <course>12.47</course>
  <speed>0.09848857801796104</speed>
  <fix>3d</fix>
</trkpt>
<trkpt lat="40.0728426" lon="-105.2305734">
  <ele>1596.11</ele>
  <time>2026-08-28T19:09:16Z</time>
  <course>208.73</course>
  <speed>0.08</speed>
  <fix>3d</fix>
</trkpt>
<trkpt lat="40.0728423" lon="-105.2305737">
  <ele>1595.98</ele>
  <time>2026-08-28T19:09:16Z</time>
  <course>12.38</course>
  <speed>0.10295630140987001</speed>
  <fix>3d</fix>
</trkpt>
<trkpt lat="40.0728425" lon="-105.2305735">
  <ele>1596.0</ele>
  <time>2026-08-28T19:09:16Z</time>
  <course>217.19</course>
  <speed>0.09</speed>
  <fix>3d</fix>
</trkpt>
<trkpt lat="40.0728421" lon="-105.2305738">
  <ele>1595.89</ele>
  <time>2026-08-28T19:09:16Z</time>
  <course>12.28</course>
  <speed>0.1</speed>
  <fix>3d</fix>
</trkpt>
<trkpt lat="40.0728424" lon="-105.2305737">
  <ele>1595.91</ele>
  <time>2026-08-28T19:09:16Z</time>
  <course>224.19</course>
  <speed>0.1</speed>
  <fix>3d</fix>
</trkpt>
<trkpt lat="40.072842" lon="-105.230574">
  <ele>1595.8</ele>
  <time>2026-08-28T19:09:16Z</time>
  <course>12.2</course>
  <speed>0.1063014581273465</speed>
  <fix>3d</fix>
</trkpt>
<trkpt lat="40.0728423" lon="-105.2305739">
  <ele>1595.82</ele>
  <time>2026-08-28T19:09:16Z</time>
  <course>230.22</course>
  <speed>0.1</speed>
  <fix>3d</fix>
</trkpt>
<trkpt lat="40.0728419" lon="-105.2305742">
  <ele>1595.72</ele>
  <time>2026-08-28T19:09:16Z</time>
  <course>12.14</course>
  <speed>0.1063014581273465</speed>
  <fix>3d</fix>
</trkpt>
<trkpt lat="40.0728421" lon="-105.230574">
  <ele>1595.74</ele>
  <time>2026-08-28T19:09:16Z</time>
  <course>235.8</course>
  <speed>0.11</speed>
  <fix>3d</fix>
</trkpt>
<trkpt lat="40.0728419" lon="-105.2305744">
  <ele>1595.63</ele>
  <time>2026-08-28T19:09:16Z</time>
  <course>12.08</course>
  <speed>0.1</speed>
  <fix>3d</fix>
</trkpt>
<trkpt lat="40.072842" lon="-105.2305743">
  <ele>1595.65</ele>
  <time>2026-08-28T19:09:16Z</time>
  <course>240.85</course>
  <speed>0.11</speed>
  <fix>3d</fix>
</trkpt>
<trkpt lat="40.0728418" lon="-105.2305746">
  <ele>1595.54</ele>
  <time>2026-08-28T19:09:16Z</time>
  <course>12.02</course>
  <speed>0.08602325267042626</speed>
  <fix>3d</fix>
</trkpt>
<trkpt lat="40.072842" lon="-105.2305745">
  <ele>1595.56</ele>
  <time>2026-08-28T19:09:16Z</time>
  <course>245.5</course>
  <speed>0.1</speed>
  <fix>3d</fix>
</trkpt>
<trkpt lat="40.0728417" lon="-105.2305748">
  <ele>1595.45</ele>
  <time>2026-08-28T19:09:16Z</time>
  <course>12.01</course>
  <speed>0.08062257748298549</speed>
  <fix>3d</fix>
</trkpt>
<trkpt lat="40.0728419" lon="-105.2305748">
  <ele>1595.47</ele>
  <time>2026-08-28T19:09:16Z</time>
  <course>250.16</course>
  <speed>0.1</speed>
  <fix>3d</fix>
</trkpt>
<trkpt lat="40.0728417" lon="-105.230575">
  <ele>1595.35</ele>
  <time>2026-08-28T19:09:16Z</time>
  <course>11.99</course>
  <speed>0.0670820393249937</speed>
  <fix>3d</fix>
</trkpt>
<trkpt lat="40.0728419" lon="-105.2305749">
  <ele>1595.38</ele>
  <time>2026-08-28T19:09:16Z</time>
  <course>255.07</course>
  <speed>0.09</speed>
  <fix>3d</fix>
</trkpt>
<trkpt lat="40.0728417" lon="-105.2305752">
  <ele>1595.26</ele>
  <time>2026-08-28T19:09:16Z</time>
  <course>11.97</course>
  <speed>0.053851648071345036</speed>
  <fix>3d</fix>
</trkpt>
<trkpt lat="40.0728418" lon="-105.2305752">
  <ele>1595.28</ele>
  <time>2026-08-28T19:09:16Z</time>
  <course>260.7</course>
  <speed>0.08</speed>
  <fix>3d</fix>
</trkpt>
<trkpt lat="40.0728417" lon="-105.2305753">
  <ele>1595.16</ele>
  <time>2026-08-28T19:09:16Z</time>
  <course>11.96</course>
  <speed>0.0412310562561766</speed>
  <fix>3d</fix>
</trkpt>
<trkpt lat="40.0728418" lon="-105.2305753">
  <ele>1595.19</ele>
  <time>2026-08-28T19:09:16Z</time>
  <course>267.66</course>
  <speed>0.07</speed>
  <fix>3d</fix>
</trkpt>
<trkpt lat="40.0728417" lon="-105.2305754">
  <ele>1595.06</ele>
  <time>2026-08-28T19:09:16Z</time>
  <course>11.95</course>
  <speed>0.03</speed>
  <fix>3d</fix>
</trkpt>
<trkpt lat="40.0728418" lon="-105.2305756">
  <ele>1595.09</ele>
  <time>2026-08-28T19:09:16Z</time>
  <course>275.93</course>
  <speed>0.06</speed>
  <fix>3d</fix>
</trkpt>
<trkpt lat="40.0728417" lon="-105.2305756">
  <ele>1594.97</ele>
  <time>2026-08-28T19:09:16Z</time>
  <course>11.93</course>
  <speed>0.02</speed>
  <fix>3d</fix>
</trkpt>
<trkpt lat="40.0728418" lon="-105.2305757">
  <ele>1594.99</ele>
  <time>2026-08-28T19:09:16Z</time>
  <course>285.61</course>
  <speed>0.05</speed>
  <fix>3d</fix>
</trkpt>
<trkpt lat="40.0728417" lon="-105.2305757">
  <ele>1594.86</ele>
  <time>2026-08-28T19:09:16Z</time>
  <course>11.92</course>
  <speed>0.01</speed>
  <fix>3d</fix>
</trkpt>
<trkpt lat="40.0728418" lon="-105.2305758">
  <ele>1594.88</ele>
  <time>2026-08-28T19:09:16Z</time>
  <course>297.15</course>
  <speed>0.05</speed>
  <fix>3d</fix>
</trkpt>
<trkpt lat="40.0728417" lon="-105.2305758">
  <ele>1594.76</ele>
  <time>2026-08-28T19:09:16Z</time>
  <course>11.91</course>
  <speed>0.01</speed>
  <fix>3d</fix>
</trkpt>
<trkpt lat="40.0728418" lon="-105.2305759">
  <ele>1594.79</ele>
  <time>2026-08-28T19:09:16Z</time>
  <course>310.62</course>
  <speed>0.04</speed>
  <fix>3d</fix>
</trkpt>
<trkpt lat="40.0728418" lon="-105.2305758">
  <ele>1594.66</ele>
  <time>2026-08-28T19:09:16Z</time>
  <course>11.9</course>
  <speed>0.01</speed>
  <fix>3d</fix>
</trkpt>
<trkpt lat="40.0728419" lon="-105.230576">
  <ele>1594.69</ele>
  <time>2026-08-28T19:09:16Z</time>
  <course>326.03</course>
  <speed>0.04</speed>
  <fix>3d</fix>
</trkpt>
<trkpt lat="40.0728419" lon="-105.2305758">
  <ele>1594.56</ele>
  <time>2026-08-28T19:09:16Z</time>
  <course>11.88</course>
  <speed>0.01414213562373095</speed>
  <fix>3d</fix>
</trkpt>
<trkpt lat="40.0728419" lon="-105.230576">
  <ele>1594.59</ele>
  <time>2026-08-28T19:09:16Z</time>
  <course>341.65</course>
  <speed>0.04</speed>
  <fix>3d</fix>
</trkpt>
<trkpt lat="40.0728419" lon="-105.2305758">
  <ele>1594.46</ele>
  <time>2026-08-28T19:09:16Z</time>
  <course>11.87</course>
  <speed>0.022360679774997897</speed>
  <fix>3d</fix>
</trkpt>
<trkpt lat="40.072842" lon="-105.230576">
  <ele>1594.49</ele>
  <time>2026-08-28T19:09:16Z</time>
  <course>354.92</course>
  <speed>0.04</speed>
  <fix>3d</fix>
</trkpt>
<trkpt lat="40.072842" lon="-105.2305758">
  <ele>1594.36</ele>
  <time>2026-08-28T19:09:16Z</time>
  <course>11.87</course>
  <speed>0.0316227766016838</speed>
  <fix>3d</fix>
</trkpt>
<trkpt lat="40.072842" lon="-105.230576">
  <ele>1594.38</ele>
  <time>2026-08-28T19:09:16Z</time>
  <course>5.09</course>
  <speed>0.04</speed>
  <fix>3d</fix>
</trkpt>
<trkpt lat="40.072842" lon="-105.2305758">
  <ele>1594.26</ele>
  <time>2026-08-28T19:09:16Z</time>
  <course>11.87</course>
  <speed>0.0316227766016838</speed>
  <fix>3d</fix>
</trkpt>
<trkpt lat="40.0728421" lon="-105.230576">
  <ele>1594.29</ele>
  <time>2026-08-28T19:09:16Z</time>
  <course>13.28</course>
  <speed>0.04</speed>
  <fix>3d</fix>
</trkpt>
<trkpt lat="40.0728421" lon="-105.2305758">
  <ele>1594.16</ele>
  <time>2026-08-28T19:09:16Z</time>
  <course>11.84</course>
  <speed>0.0412310562561766</speed>
  <fix>3d</fix>
</trkpt>
<trkpt lat="40.0728422" lon="-105.230576">
  <ele>1594.19</ele>
  <time>2026-08-28T19:09:16Z</time>
  <course>20.73</course>
  <speed>0.04</speed>
  <fix>3d</fix>
</trkpt>
<trkpt lat="40.0728422" lon="-105.2305758">
  <ele>1594.06</ele>
  <time>2026-08-28T19:09:16Z</time>
  <course>11.84</course>
  <speed>0.0412310562561766</speed>
  <fix>3d</fix>
</trkpt>
<trkpt lat="40.0728423" lon="-105.230576">
  <ele>1594.09</ele>
  <time>2026-08-28T19:09:16Z</time>
  <course>27.82</course>
  <speed>0.04</speed>
  <fix>3d</fix>
</trkpt>
<trkpt lat="40.0728422" lon="-105.2305757">
  <ele>1593.96</ele>
  <time>2026-08-28T19:09:16Z</time>
  <course>11.83</course>
  <speed>0.04</speed>
  <fix>3d</fix>
</trkpt>
<trkpt lat="40.0728424" lon="-105.230576">
  <ele>1593.99</ele>
  <time>2026-08-28T19:09:16Z</time>
  <course>34.29</course>
  <speed>0.04</speed>
  <fix>3d</fix>
</trkpt>
<trkpt lat="40.0728423" lon="-105.2305756">
  <ele>1593.86</ele>
  <time>2026-08-28T19:09:16Z</time>
  <course>11.83</course>
  <speed>0.04</speed>
  <fix>3d</fix>
</trkpt>
<trkpt lat="40.0728424" lon="-105.2305759">
  <ele>1593.89</ele>
  <time>2026-08-28T19:09:16Z</time>
  <course>40.49</course>
  <speed>0.04</speed>
  <fix>3d</fix>
</trkpt>
<trkpt lat="40.0728423" lon="-105.2305756">
  <ele>1593.76</ele>
  <time>2026-08-28T19:09:16Z</time>
  <course>11.83</course>
  <speed>0.04</speed>
  <fix>3d</fix>
</trkpt>
<trkpt lat="40.0728425" lon="-105.2305758">
  <ele>1593.79</ele>
  <time>2026-08-28T19:09:16Z</time>
  <course>47.24</course>
  <speed>0.03</speed>
  <fix>3d</fix>
</trkpt>
<trkpt lat="40.0728423" lon="-105.2305755">
  <ele>1593.66</ele>
  <time>2026-08-28T19:09:16Z</time>
  <course>11.83</course>
  <speed>0.04</speed>
  <fix>3d</fix>
</trkpt>
<trkpt lat="40.0728425" lon="-105.2305758">
  <ele>1593.69</ele>
  <time>2026-08-28T19:09:16Z</time>
  <course>54.68</course>
  <speed>0.03</speed>
  <fix>3d</fix>
</trkpt>
<trkpt lat="40.0728424" lon="-105.2305755">
  <ele>1593.56</ele>
  <time>2026-08-28T19:09:16Z</time>
  <course>11.82</course>
  <speed>0.0412310562561766</speed>
  <fix>3d</fix>
</trkpt>
<trkpt lat="40.0728426" lon="-105.2305757">
  <ele>1593.59</ele>
  <time>2026-08-28T19:09:16Z</time>
  <course>62.91</course>
  <speed>0.03</speed>
  <fix>3d</fix>
</trkpt>
<trkpt lat="40.0728424" lon="-105.2305754">
  <ele>1593.46</ele>
  <time>2026-08-28T19:09:16Z</time>
  <course>11.81</course>
  <speed>0.0412310562561766</speed>
  <fix>3d</fix>
</trkpt>
<trkpt lat="40.0728426" lon="-105.2305756">
  <ele>1593.49</ele>
  <time>2026-08-28T19:09:16Z</time>
  <course>71.95</course>
  <speed>0.03</speed>
  <fix>3d</fix>
</trkpt>
<trkpt lat="40.0728424" lon="-105.2305754">
  <ele>1593.36</ele>
  <time>2026-08-28T19:09:16Z</time>
  <course>11.8</course>
  <speed>0.044721359549995794</speed>
  <fix>3d</fix>
</trkpt>
<trkpt lat="40.0728426" lon="-105.2305756">
  <ele>1593.38</ele>
  <time>2026-08-28T19:09:16Z</time>
  <course>82.08</course>
  <speed>0.02</speed>
  <fix>3d</fix>
</trkpt>
<trkpt lat="40.0728424" lon="-105.2305753">
  <ele>1593.26</ele>
  <time>2026-08-28T19:09:16Z</time>
  <course>11.79</course>
  <speed>0.044721359549995794</speed>
  <fix>3d</fix>
</trkpt>
<trkpt lat="40.0728426" lon="-105.2305756">
  <ele>1593.29</ele>
  <time>2026-08-28T19:09:16Z</time>
  <course>93.3</course>
  <speed>0.02</speed>
  <fix>3d</fix>
</trkpt>
<trkpt lat="40.0728424" lon="-105.2305753">
  <ele>1593.16</ele>
  <time>2026-08-28T19:09:16Z</time>
  <course>11.78</course>
  <speed>0.04242640687119285</speed>
  <fix>3d</fix>
</trkpt>
<trkpt lat="40.0728426" lon="-105.2305755">
  <ele>1593.19</ele>
  <time>2026-08-28T19:09:16Z</time>
  <course>104.97</course>
  <speed>0.02</speed>
  <fix>3d</fix>
</trkpt>
<trkpt lat="40.0728424" lon="-105.2305752">
  <ele>1593.07</ele>
  <time>2026-08-28T19:09:16Z</time>
  <course>11.77</course>
  <speed>0.04242640687119285</speed>
  <fix>3d</fix>
</trkpt>
<trkpt lat="40.0728426" lon="-105.2305754">
  <ele>1593.09</ele>
  <time>2026-08-28T19:09:16Z</time>
  <course>116.56</course>
  <speed>0.02</speed>
  <fix>3d</fix>
</trkpt>
<trkpt lat="40.0728424" lon="-105.2305752">
  <ele>1592.96</ele>
  <time>2026-08-28T19:09:16Z</time>
  <course>11.76</course>
  <speed>0.04242640687119285</speed>
  <fix>3d</fix>
</trkpt>
<trkpt lat="40.0728426" lon="-105.2305753">
  <ele>1592.99</ele>
  <time>2026-08-28T19:09:16Z</time>
  <course>127.44</course>
  <speed>0.02</speed>
  <fix>3d</fix>
</trkpt>
<trkpt lat="40.0728424" lon="-105.2305752">
  <ele>1592.86</ele>
  <time>2026-08-28T19:09:16Z</time>
  <course>11.75</course>
  <speed>0.03605551275463989</speed>
  <fix>3d</fix>
</trkpt>
<trkpt lat="40.0728426" lon="-105.2305753">
  <ele>1592.88</ele>
  <time>2026-08-28T19:09:16Z</time>
  <course>136.98</course>
  <speed>0.02</speed>
  <fix>3d</fix>
</trkpt>
<trkpt lat="40.0728424" lon="-105.2305751">
  <ele>1592.76</ele>
  <time>2026-08-28T19:09:16Z</time>
  <course>11.75</course>
  <speed>0.044721359549995794</speed>
  <fix>3d</fix>
</trkpt>
<trkpt lat="40.0728426" lon="-105.2305753">
  <ele>1592.79</ele>
  <time>2026-08-28T19:09:16Z</time>
  <course>145.67</course>
  <speed>0.02</speed>
  <fix>3d</fix>
</trkpt>
<trkpt lat="40.0728424" lon="-105.2305751">
  <ele>1592.66</ele>
  <time>2026-08-28T19:09:16Z</time>
  <course>11.74</course>
  <speed>0.044721359549995794</speed>
  <fix>3d</fix>
</trkpt>
<trkpt lat="40.0728426" lon="-105.2305753">
  <ele>1592.69</ele>
  <time>2026-08-28T19:09:16Z</time>
  <course>154.27</course>
  <speed>0.02</speed>
  <fix>3d</fix>
</trkpt>
<trkpt lat="40.0728423" lon="-105.2305751">
  <ele>1592.56</ele>
  <time>2026-08-28T19:09:16Z</time>
  <course>11.73</course>
  <speed>0.044721359549995794</speed>
  <fix>3d</fix>
</trkpt>
<trkpt lat="40.0728425" lon="-105.2305753">
  <ele>1592.59</ele>
  <time>2026-08-28T19:09:16Z</time>
  <course>162.68</course>
  <speed>0.02</speed>
  <fix>3d</fix>
</trkpt>
<trkpt lat="40.0728423" lon="-105.2305751">
  <ele>1592.47</ele>
  <time>2026-08-28T19:09:16Z</time>
  <course>11.73</course>
  <speed>0.0412310562561766</speed>
  <fix>3d</fix>
</trkpt>
<trkpt lat="40.0728425" lon="-105.2305753">
  <ele>1592.49</ele>
  <time>2026-08-28T19:09:16Z</time>
  <course>170.7</course>
  <speed>0.02</speed>
  <fix>3d</fix>
</trkpt>
<trkpt lat="40.0728423" lon="-105.2305751">
  <ele>1592.36</ele>
  <time>2026-08-28T19:09:16Z</time>
  <course>11.72</course>
  <speed>0.0316227766016838</speed>
  <fix>3d</fix>
</trkpt>
<trkpt lat="40.0728424" lon="-105.2305753">
  <ele>1592.38</ele>
  <time>2026-08-28T19:09:16Z</time>
  <course>177.58</course>
  <speed>0.02</speed>
  <fix>3d</fix>
</trkpt>
<trkpt lat="40.0728422" lon="-105.2305751">
  <ele>1592.26</ele>
  <time>2026-08-28T19:09:16Z</time>
  <course>11.72</course>
  <speed>0.0316227766016838</speed>
  <fix>3d</fix>
</trkpt>
<trkpt lat="40.0728424" lon="-105.2305753">
  <ele>1592.29</ele>
  <time>2026-08-28T19:09:16Z</time>
  <course>183.05</course>
  <speed>0.02</speed>
  <fix>3d</fix>
</trkpt>
<trkpt lat="40.0728422" lon="-105.2305751">
  <ele>1592.16</ele>
  <time>2026-08-28T19:09:16Z</time>
  <course>11.71</course>
  <speed>0.0316227766016838</speed>
  <fix>3d</fix>
</trkpt>
<trkpt lat="40.0728424" lon="-105.2305753">
  <ele>1592.18</ele>
  <time>2026-08-28T19:09:16Z</time>
  <course>187.32</course>
  <speed>0.02</speed>
  <fix>3d</fix>
</trkpt>
<trkpt lat="40.0728422" lon="-105.2305752">
  <ele>1592.07</ele>
  <time>2026-08-28T19:09:16Z</time>
  <course>11.7</course>
  <speed>0.0316227766016838</speed>
  <fix>3d</fix>
</trkpt>
<trkpt lat="40.0728423" lon="-105.2305753">
  <ele>1592.08</ele>
  <time>2026-08-28T19:09:16Z</time>
  <course>191.04</course>
  <speed>0.01</speed>
  <fix>3d</fix>
</trkpt>
<trkpt lat="40.0728422" lon="-105.2305752">
  <ele>1591.97</ele>
  <time>2026-08-28T19:09:16Z</time>
  <course>11.7</course>
  <speed>0.0316227766016838</speed>
  <fix>3d</fix>
</trkpt>
<trkpt lat="40.0728423" lon="-105.2305753">
  <ele>1591.98</ele>
  <time>2026-08-28T19:09:16Z</time>
  <course>194.66</course>
  <speed>0.01</speed>
  <fix>3d</fix>
</trkpt>
<trkpt lat="40.0728421" lon="-105.2305752">
  <ele>1591.87</ele>
  <time>2026-08-28T19:09:16Z</time>
  <course>11.69</course>
  <speed>0.0316227766016838</speed>
  <fix>3d</fix>
</trkpt>
<trkpt lat="40.0728423" lon="-105.2305753">
  <ele>1591.88</ele>
  <time>2026-08-28T19:09:16Z</time>
  <course>198.27</course>
  <speed>0.01</speed>
  <fix>3d</fix>
</trkpt>
<trkpt lat="40.0728421" lon="-105.2305752">
  <ele>1591.77</ele>
  <time>2026-08-28T19:09:16Z</time>
  <course>11.69</course>
  <speed>0.022360679774997897</speed>
  <fix>3d</fix>
</trkpt>
<trkpt lat="40.0728422" lon="-105.2305753">
  <ele>1591.78</ele>
  <time>2026-08-28T19:09:16Z</time>
  <course>203.71</course>
  <speed>0.01</speed>
  <fix>3d</fix>
</trkpt>
<trkpt lat="40.0728421" lon="-105.2305752">
  <ele>1591.66</ele>
  <time>2026-08-28T19:09:16Z</time>
  <course>11.68</course>
  <speed>0.022360679774997897</speed>
  <fix>3d</fix>
</trkpt>
<trkpt lat="40.0728421" lon="-105.2305753">
  <ele>1591.67</ele>
  <time>2026-08-28T19:09:16Z</time>
  <course>210.73</course>
  <speed>0.01</speed>
  <fix>3d</fix>
</trkpt>
<trkpt lat="40.0728421" lon="-105.2305752">
  <ele>1591.56</ele>
  <time>2026-08-28T19:09:16Z</time>
  <course>11.67</course>
  <speed>0.022360679774997897</speed>
  <fix>3d</fix>
</trkpt>
<trkpt lat="40.0728421" lon="-105.2305753">
  <ele>1591.58</ele>
  <time>2026-08-28T19:09:16Z</time>
  <course>218.46</course>
  <speed>0.0</speed>
  <fix>3d</fix>
</trkpt>
<trkpt lat="40.0728421" lon="-105.2305752">
  <ele>1591.46</ele>
  <time>2026-08-28T19:09:16Z</time>
  <course>11.67</course>
  <speed>0.022360679774997897</speed>
  <fix>3d</fix>
</trkpt>
<trkpt lat="40.0728421" lon="-105.2305753">
  <ele>1591.48</ele>
  <time>2026-08-28T19:09:16Z</time>
  <course>230.34</course>
  <speed>0.0</speed>
  <fix>3d</fix>
</trkpt>
<trkpt lat="40.0728421" lon="-105.2305752">
  <ele>1591.36</ele>
  <time>2026-08-28T19:09:16Z</time>
  <course>11.66</course>
  <speed>0.01414213562373095</speed>
  <fix>3d</fix>
</trkpt>
<trkpt lat="40.0728421" lon="-105.2305753">
  <ele>1591.37</ele>
  <time>2026-08-28T19:09:16Z</time>
  <course>253.26</course>
  <speed>0.0</speed>
  <fix>3d</fix>
</trkpt>
<trkpt lat="40.0728421" lon="-105.2305752">
  <ele>1591.25</ele>
  <time>2026-08-28T19:09:16Z</time>
  <course>11.65</course>
  <speed>0.01414213562373095</speed>
  <fix>3d</fix>
</trkpt>
<trkpt lat="40.0728421" lon="-105.2305753">
  <ele>1591.27</ele>
  <time>2026-08-28T19:09:16Z</time>
  <course>285.86</course>
  <speed>0.0</speed>
  <fix>3d</fix>
</trkpt>
<trkpt lat="40.0728421" lon="-105.2305752">
  <ele>1591.15</ele>
  <time>2026-08-28T19:09:16Z</time>
  <course>11.64</course>
  <speed>0.01414213562373095</speed>
  <fix>3d</fix>
</trkpt>
<trkpt lat="40.0728421" lon="-105.2305753">
  <ele>1591.16</ele>
  <time>2026-08-28T19:09:16Z</time>
  <course>310.04</course>
  <speed>0.0</speed>
  <fix>3d</fix>
</trkpt>
<trkpt lat="40.0728421" lon="-105.2305752">
  <ele>1591.05</ele>
  <time>2026-08-28T19:09:16Z</time>
  <course>11.63</course>
  <speed>0.01414213562373095</speed>
  <fix>3d</fix>
</trkpt>
<trkpt lat="40.0728421" lon="-105.2305753">
  <ele>1591.07</ele>
  <time>2026-08-28T19:09:16Z</time>
  <course>322.63</course>
  <speed>0.0</speed>
  <fix>3d</fix>
</trkpt>
<trkpt lat="40.0728421" lon="-105.2305752">
  <ele>1590.96</ele>
  <time>2026-08-28T19:09:16Z</time>
  <course>11.63</course>
  <speed>0.01</speed>
  <fix>3d</fix>
</trkpt>
<trkpt lat="40.0728421" lon="-105.2305753">
  <ele>1590.98</ele>
  <time>2026-08-28T19:09:16Z</time>
  <course>327.31</course>
  <speed>0.01</speed>
  <fix>3d</fix>
</trkpt>
<trkpt lat="40.0728421" lon="-105.2305752">
  <ele>1590.86</ele>
  <time>2026-08-28T19:09:16Z</time>
  <course>11.62</course>
  <speed>0.01</speed>
  <fix>3d</fix>
</trkpt>
<trkpt lat="40.0728421" lon="-105.2305753">
  <ele>1590.88</ele>
  <time>2026-08-28T19:09:16Z</time>
  <course>330.3</course>
  <speed>0.01</speed>
  <fix>3d</fix>
</trkpt>
<trkpt lat="40.0728421" lon="-105.2305752">
  <ele>1590.75</ele>
  <time>2026-08-28T19:09:16Z</time>
  <course>11.63</course>
  <speed>0.01</speed>
  <fix>3d</fix>
</trkpt>
<trkpt lat="40.0728421" lon="-105.2305753">
  <ele>1590.78</ele>
  <time>2026-08-28T19:09:16Z</time>
  <course>333.13</course>
  <speed>0.01</speed>
  <fix>3d</fix>
</trkpt>
<trkpt lat="40.0728421" lon="-105.2305752">
  <ele>1590.66</ele>
  <time>2026-08-28T19:09:16Z</time>
  <course>11.62</course>
  <speed>0.01</speed>
  <fix>3d</fix>
</trkpt>
<trkpt lat="40.0728421" lon="-105.2305753">
  <ele>1590.67</ele>
  <time>2026-08-28T19:09:16Z</time>
  <course>335.2</course>
  <speed>0.01</speed>
  <fix>3d</fix>
</trkpt>
<trkpt lat="40.0728421" lon="-105.2305752">
  <ele>1590.56</ele>
  <time>2026-08-28T19:09:16Z</time>
  <course>11.61</course>
  <speed>0.01</speed>
  <fix>3d</fix>
</trkpt>
<trkpt lat="40.0728421" lon="-105.2305753">
  <ele>1590.58</ele>
  <time>2026-08-28T19:09:16Z</time>
  <course>337.19</course>
  <speed>0.01</speed>
  <fix>3d</fix>
</trkpt>
<trkpt lat="40.0728421" lon="-105.2305752">
  <ele>1590.46</ele>
  <time>2026-08-28T19:09:16Z</time>
  <course>11.6</course>
  <speed>0.01</speed>
  <fix>3d</fix>
</trkpt>
<trkpt lat="40.0728422" lon="-105.2305753">
  <ele>1590.48</ele>
  <time>2026-08-28T19:09:16Z</time>
  <course>338.24</course>
  <speed>0.01</speed>
  <fix>3d</fix>
</trkpt>
<trkpt lat="40.0728421" lon="-105.2305752">
  <ele>1590.36</ele>
  <time>2026-08-28T19:09:16Z</time>
  <course>11.6</course>
  <speed>0.01</speed>
  <fix>3d</fix>
</trkpt>
<trkpt lat="40.0728423" lon="-105.2305753">
  <ele>1590.38</ele>
  <time>2026-08-28T19:09:16Z</time>
  <course>338.46</course>
  <speed>0.01</speed>
  <fix>3d</fix>
</trkpt>
<trkpt lat="40.0728421" lon="-105.2305752">
  <ele>1590.26</ele>
  <time>2026-08-28T19:09:16Z</time>
  <course>11.6</course>
  <speed>0.01</speed>
  <fix>3d</fix>
</trkpt>
<trkpt lat="40.0728423" lon="-105.2305754">
  <ele>1590.28</ele>
  <time>2026-08-28T19:09:16Z</time>
  <course>338.6</course>
  <speed>0.01</speed>
  <fix>3d</fix>
</trkpt>
<trkpt lat="40.0728421" lon="-105.2305752">
  <ele>1590.16</ele>
  <time>2026-08-28T19:09:16Z</time>
  <course>11.6</course>
  <speed>0.01</speed>
  <fix>3d</fix>
</trkpt>
<trkpt lat="40.0728423" lon="-105.2305755">
  <ele>1590.17</ele>
  <time>2026-08-28T19:09:16Z</time>
  <course>337.22</course>
  <speed>0.01</speed>
  <fix>3d</fix>
</trkpt>
<trkpt lat="40.0728421" lon="-105.2305752">
  <ele>1590.06</ele>
  <time>2026-08-28T19:09:16Z</time>
  <course>11.6</course>
  <speed>0.01414213562373095</speed>
  <fix>3d</fix>
</trkpt>
<trkpt lat="40.0728423" lon="-105.2305755">
  <ele>1590.08</ele>
  <time>2026-08-28T19:09:16Z</time>
  <course>335.15</course>
  <speed>0.01</speed>
  <fix>3d</fix>
</trkpt>
<trkpt lat="40.0728422" lon="-105.2305752">
  <ele>1589.96</ele>
  <time>2026-08-28T19:09:17Z</time>
  <course>11.6</course>
  <speed>0.01414213562373095</speed>
  <fix>3d</fix>
</trkpt>
<trkpt lat="40.0728424" lon="-105.2305755">
  <ele>1589.98</ele>
  <time>2026-08-28T19:09:17Z</time>
  <course>333.88</course>
  <speed>0.01</speed>
  <fix>3d</fix>
</trkpt>
<trkpt lat="40.0728422" lon="-105.2305752">
  <ele>1589.86</ele>
  <time>2026-08-28T19:09:17Z</time>
  <course>11.6</course>
  <speed>0.01414213562373095</speed>
  <fix>3d</fix>
</trkpt>
<trkpt lat="40.0728424" lon="-105.2305755">
  <ele>1589.88</ele>
  <time>2026-08-28T19:09:17Z</time>
  <course>333.23</course>
  <speed>0.01</speed>
  <fix>3d</fix>
</trkpt>
<trkpt lat="40.0728422" lon="-105.2305753">
  <ele>1589.76</ele>
  <time>2026-08-28T19:09:17Z</time>
  <course>11.6</course>
  <speed>0.01414213562373095</speed>
  <fix>3d</fix>
</trkpt>
<trkpt lat="40.0728424" lon="-105.2305755">
  <ele>1589.78</ele>
  <time>2026-08-28T19:09:17Z</time>
  <course>333.41</course>
  <speed>0.0</speed>
  <fix>3d</fix>
</trkpt>
<trkpt lat="40.0728422" lon="-105.2305753">
  <ele>1589.66</ele>
  <time>2026-08-28T19:09:17Z</time>
  <course>11.59</course>
  <speed>0.01414213562373095</speed>
  <fix>3d</fix>
</trkpt>
<trkpt lat="40.0728424" lon="-105.2305755">
  <ele>1589.67</ele>
  <time>2026-08-28T19:09:17Z</time>
  <course>335.27</course>
  <speed>0.0</speed>
  <fix>3d</fix>
</trkpt>
<trkpt lat="40.0728422" lon="-105.2305753">
  <ele>1589.56</ele>
  <time>2026-08-28T19:09:17Z</time>
  <course>11.59</course>
  <speed>0.01414213562373095</speed>
  <fix>3d</fix>
</trkpt>
<trkpt lat="40.0728424" lon="-105.2305755">
  <ele>1589.57</ele>
  <time>2026-08-28T19:09:17Z</time>
  <course>341.23</course>
  <speed>0.0</speed>
  <fix>3d</fix>
</trkpt>
<trkpt lat="40.0728422" lon="-105.2305753">
  <ele>1589.46</ele>
  <time>2026-08-28T19:09:17Z</time>
  <course>11.59</course>
  <speed>0.0282842712474619</speed>
  <fix>3d</fix>
</trkpt>
<trkpt lat="40.0728424" lon="-105.2305755">
  <ele>1589.47</ele>
  <time>2026-08-28T19:09:17Z</time>
  <course>356.4</course>
  <speed>0.0</speed>
  <fix>3d</fix>
</trkpt>
<trkpt lat="40.0728422" lon="-105.2305753">
  <ele>1589.36</ele>
  <time>2026-08-28T19:09:17Z</time>
  <course>11.58</course>
  <speed>0.0282842712474619</speed>
  <fix>3d</fix>
</trkpt>
<trkpt lat="40.0728424" lon="-105.2305755">
  <ele>1589.37</ele>
  <time>2026-08-28T19:09:17Z</time>
  <course>102.51</course>
  <speed>0.0</speed>
  <fix>3d</fix>
</trkpt>
<trkpt lat="40.0728422" lon="-105.2305753">
  <ele>1589.26</ele>
  <time>2026-08-28T19:09:17Z</time>
  <course>11.58</course>
  <speed>0.0282842712474619</speed>
  <fix>3d</fix>
</trkpt>
<trkpt lat="40.0728424" lon="-105.2305755">
  <ele>1589.27</ele>
  <time>2026-08-28T19:09:17Z</time>
  <course>134.27</course>
  <speed>0.0</speed>
  <fix>3d</fix>
</trkpt>
<trkpt lat="40.0728422" lon="-105.2305753">
  <ele>1589.16</ele>
  <time>2026-08-28T19:09:17Z</time>
  <course>11.57</course>
  <speed>0.0282842712474619</speed>
  <fix>3d</fix>
</trkpt>
<trkpt lat="40.0728424" lon="-105.2305755">
  <ele>1589.16</ele>
  <time>2026-08-28T19:09:17Z</time>
  <course>141.18</course>
  <speed>0.0</speed>
  <fix>3d</fix>
</trkpt>
<trkpt lat="40.0728422" lon="-105.2305753">
  <ele>1589.06</ele>
  <time>2026-08-28T19:09:17Z</time>
  <course>11.57</course>
  <speed>0.0282842712474619</speed>
  <fix>3d</fix>
</trkpt>
<trkpt lat="40.0728424" lon="-105.2305755">
  <ele>1589.07</ele>
  <time>2026-08-28T19:09:17Z</time>
  <course>141.52</course>
  <speed>0.0</speed>
  <fix>3d</fix>
</trkpt>
<trkpt lat="40.0728422" lon="-105.2305753">
  <ele>1588.96</ele>
  <time>2026-08-28T19:09:17Z</time>
  <course>11.56</course>
  <speed>0.0282842712474619</speed>
  <fix>3d</fix>
</trkpt>
<trkpt lat="40.0728424" lon="-105.2305755">
  <ele>1588.97</ele>
  <time>2026-08-28T19:09:17Z</time>
  <course>141.98</course>
  <speed>0.0</speed>
  <fix>3d</fix>
</trkpt>
<trkpt lat="40.0728422" lon="-105.2305753">
  <ele>1588.86</ele>
  <time>2026-08-28T19:09:17Z</time>
  <course>11.56</course>
  <speed>0.0282842712474619</speed>
  <fix>3d</fix>
</trkpt>
<trkpt lat="40.0728424" lon="-105.2305755">
  <ele>1588.87</ele>
  <time>2026-08-28T19:09:17Z</time>
  <course>143.92</course>
  <speed>0.0</speed>
  <fix>3d</fix>
</trkpt>
<trkpt lat="40.0728422" lon="-105.2305753">
  <ele>1588.76</ele>
  <time>2026-08-28T19:09:17Z</time>
  <course>11.55</course>
  <speed>0.0282842712474619</speed>
  <fix>3d</fix>
</trkpt>
<trkpt lat="40.0728424" lon="-105.2305755">
  <ele>1588.77</ele>
  <time>2026-08-28T19:09:17Z</time>
  <course>145.06</course>
  <speed>0.0</speed>
  <fix>3d</fix>
</trkpt>
<trkpt lat="40.0728422" lon="-105.2305753">
  <ele>1588.66</ele>
  <time>2026-08-28T19:09:17Z</time>
  <course>11.54</course>
  <speed>0.0282842712474619</speed>
  <fix>3d</fix>
</trkpt>
<trkpt lat="40.0728424" lon="-105.2305755">
  <ele>1588.66</ele>
  <time>2026-08-28T19:09:17Z</time>
  <course>147.12</course>
  <speed>0.0</speed>
  <fix>3d</fix>
</trkpt>
<trkpt lat="40.0728422" lon="-105.2305753">
  <ele>1588.56</ele>
  <time>2026-08-28T19:09:17Z</time>
  <course>11.54</course>
  <speed>0.0282842712474619</speed>
  <fix>3d</fix>
</trkpt>
<trkpt lat="40.0728424" lon="-105.2305755">
  <ele>1588.56</ele>
  <time>2026-08-28T19:09:17Z</time>
  <course>149.29</course>
  <speed>0.0</speed>
  <fix>3d</fix>
</trkpt>
<trkpt lat="40.0728422" lon="-105.2305753">
  <ele>1588.46</ele>
  <time>2026-08-28T19:09:17Z</time>
  <course>11.53</course>
  <speed>0.0282842712474619</speed>
  <fix>3d</fix>
</trkpt>
<trkpt lat="40.0728424" lon="-105.2305755">
  <ele>1588.46</ele>
  <time>2026-08-28T19:09:17Z</time>
  <course>149.17</course>
  <speed>0.0</speed>
  <fix>3d</fix>
</trkpt>
<trkpt lat="40.0728422" lon="-105.2305753">
  <ele>1588.36</ele>
  <time>2026-08-28T19:09:17Z</time>
  <course>11.53</course>
  <speed>0.0282842712474619</speed>
  <fix>3d</fix>
</trkpt>
<trkpt lat="40.0728424" lon="-105.2305755">
  <ele>1588.36</ele>
  <time>2026-08-28T19:09:17Z</time>
  <course>148.5</course>
  <speed>0.0</speed>
  <fix>3d</fix>
</trkpt>
<trkpt lat="40.0728422" lon="-105.2305753">
  <ele>1588.26</ele>
  <time>2026-08-28T19:09:17Z</time>
  <course>11.53</course>
  <speed>0.0282842712474619</speed>
  <fix>3d</fix>
</trkpt>
<trkpt lat="40.0728424" lon="-105.2305755">
  <ele>1588.26</ele>
  <time>2026-08-28T19:09:17Z</time>
  <course>148.48</course>
  <speed>0.0</speed>
  <fix>3d</fix>
</trkpt>
<trkpt lat="40.0728422" lon="-105.2305753">
  <ele>1588.16</ele>
  <time>2026-08-28T19:09:17Z</time>
  <course>11.53</course>
  <speed>0.0282842712474619</speed>
  <fix>3d</fix>
</trkpt>
<trkpt lat="40.0728424" lon="-105.2305755">
  <ele>1588.15</ele>
  <time>2026-08-28T19:09:17Z</time>
  <course>148.9</course>
  <speed>0.0</speed>
  <fix>3d</fix>
</trkpt>
<trkpt lat="40.0728422" lon="-105.2305753">
  <ele>1588.06</ele>
  <time>2026-08-28T19:09:17Z</time>
  <course>11.53</course>
  <speed>0.0282842712474619</speed>
  <fix>3d</fix>
</trkpt>
<trkpt lat="40.0728424" lon="-105.2305755">
  <ele>1588.06</ele>
  <time>2026-08-28T19:09:17Z</time>
  <course>149.04</course>
  <speed>0.0</speed>
  <fix>3d</fix>
</trkpt>
<trkpt lat="40.0728422" lon="-105.2305753">
  <ele>1587.96</ele>
  <time>2026-08-28T19:09:17Z</time>
  <course>11.52</course>
  <speed>0.0282842712474619</speed>
  <fix>3d</fix>
</trkpt>
<trkpt lat="40.0728424" lon="-105.2305755">
  <ele>1587.97</ele>
  <time>2026-08-28T19:09:17Z</time>
  <course>148.6</course>
  <speed>0.0</speed>
  <fix>3d</fix>
</trkpt>
<trkpt lat="40.0728422" lon="-105.2305753">
  <ele>1587.86</ele>
  <time>2026-08-28T19:09:17Z</time>
  <course>11.52</course>
  <speed>0.0282842712474619</speed>
  <fix>3d</fix>
</trkpt>
<trkpt lat="40.0728424" lon="-105.2305755">
  <ele>1587.87</ele>
  <time>2026-08-28T19:09:17Z</time>
  <course>147.69</course>
  <speed>0.0</speed>
  <fix>3d</fix>
</trkpt>
<trkpt lat="40.0728422" lon="-105.2305753">
  <ele>1587.76</ele>
  <time>2026-08-28T19:09:17Z</time>
  <course>11.51</course>
  <speed>0.0282842712474619</speed>
  <fix>3d</fix>
</trkpt>
<trkpt lat="40.0728424" lon="-105.2305755">
  <ele>1587.77</ele>
  <time>2026-08-28T19:09:17Z</time>
  <course>146.4</course>
  <speed>0.0</speed>
  <fix>3d</fix>
</trkpt>
<trkpt lat="40.0728422" lon="-105.2305753">
  <ele>1587.66</ele>
  <time>2026-08-28T19:09:17Z</time>
  <course>11.5</course>
  <speed>0.0282842712474619</speed>
  <fix>3d</fix>
</trkpt>
<trkpt lat="40.0728423" lon="-105.2305755">
  <ele>1587.66</ele>
  <time>2026-08-28T19:09:17Z</time>
  <course>146.35</course>
  <speed>0.0</speed>
  <fix>3d</fix>
</trkpt>
<trkpt lat="40.0728422" lon="-105.2305753">
  <ele>1587.56</ele>
  <time>2026-08-28T19:09:17Z</time>
  <course>11.51</course>
  <speed>0.0282842712474619</speed>
  <fix>3d</fix>
</trkpt>
<trkpt lat="40.0728423" lon="-105.2305755">
  <ele>1587.57</ele>
  <time>2026-08-28T19:09:17Z</time>
  <course>146.61</course>
  <speed>0.0</speed>
  <fix>3d</fix>
</trkpt>
<trkpt lat="40.0728422" lon="-105.2305753">
  <ele>1587.46</ele>
  <time>2026-08-28T19:09:17Z</time>
  <course>11.51</course>
  <speed>0.0282842712474619</speed>
  <fix>3d</fix>
</trkpt>
<trkpt lat="40.0728423" lon="-105.2305754">
  <ele>1587.47</ele>
  <time>2026-08-28T19:09:17Z</time>
  <course>146.88</course>
  <speed>0.0</speed>
  <fix>3d</fix>
</trkpt>
<trkpt lat="40.0728422" lon="-105.2305753">
  <ele>1587.36</ele>
  <time>2026-08-28T19:09:17Z</time>
  <course>11.5</course>
  <speed>0.0282842712474619</speed>
  <fix>3d</fix>
</trkpt>
<trkpt lat="40.0728423" lon="-105.2305753">
  <ele>1587.37</ele>
  <time>2026-08-28T19:09:17Z</time>
  <course>145.9</course>
  <speed>0.0</speed>
  <fix>3d</fix>
</trkpt>
<trkpt lat="40.0728422" lon="-105.2305753">
  <ele>1587.26</ele>
  <time>2026-08-28T19:09:17Z</time>
  <course>11.49</course>
  <speed>0.0282842712474619</speed>
  <fix>3d</fix>
</trkpt>
<trkpt lat="40.0728423" lon="-105.2305753">
  <ele>1587.27</ele>
  <time>2026-08-28T19:09:17Z</time>
  <course>141.94</course>
  <speed>0.0</speed>
  <fix>3d</fix>
</trkpt>
<trkpt lat="40.0728422" lon="-105.2305752">
  <ele>1587.16</ele>
  <time>2026-08-28T19:09:17Z</time>
  <course>11.49</course>
  <speed>0.0282842712474619</speed>
  <fix>3d</fix>
</trkpt>
<trkpt lat="40.0728423" lon="-105.2305753">
  <ele>1587.16</ele>
  <time>2026-08-28T19:09:17Z</time>
  <course>137.05</course>
  <speed>0.0</speed>
  <fix>3d</fix>
</trkpt>
<trkpt lat="40.0728422" lon="-105.2305752">
  <ele>1587.05</ele>
  <time>2026-08-28T19:09:17Z</time>
  <course>11.49</course>
  <speed>0.022360679774997897</speed>
  <fix>3d</fix>
</trkpt>
<trkpt lat="40.0728423" lon="-105.2305753">
  <ele>1587.07</ele>
  <time>2026-08-28T19:09:17Z</time>
  <course>136.21</course>
  <speed>0.0</speed>
  <fix>3d</fix>
</trkpt>
<trkpt lat="40.0728422" lon="-105.2305752">
  <ele>1586.95</ele>
  <time>2026-08-28T19:09:17Z</time>
  <course>11.5</course>
  <speed>0.01414213562373095</speed>
  <fix>3d</fix>
</trkpt>
<trkpt lat="40.0728423" lon="-105.2305753">
  <ele>1586.97</ele>
  <time>2026-08-28T19:09:17Z</time>
  <course>137.84</course>
  <speed>0.0</speed>
  <fix>3d</fix>
</trkpt>
<trkpt lat="40.0728422" lon="-105.2305752">
  <ele>1586.85</ele>
  <time>2026-08-28T19:09:17Z</time>
  <course>11.48</course>
  <speed>0.01414213562373095</speed>
  <fix>3d</fix>
</trkpt>
<trkpt lat="40.0728423" lon="-105.2305753">
  <ele>1586.87</ele>
  <time>2026-08-28T19:09:17Z</time>
  <course>138.6</course>
  <speed>0.0</speed>
  <fix>3d</fix>
</trkpt>
<trkpt lat="40.0728422" lon="-105.2305752">
  <ele>1586.75</ele>
  <time>2026-08-28T19:09:17Z</time>
  <course>11.48</course>
  <speed>0.01414213562373095</speed>
  <fix>3d</fix>
</trkpt>
<trkpt lat="40.0728423" lon="-105.2305753">
  <ele>1586.77</ele>
  <time>2026-08-28T19:09:17Z</time>
  <course>153.16</course>
  <speed>0.0</speed>
  <fix>3d</fix>
</trkpt>
<trkpt lat="40.0728422" lon="-105.2305752">
  <ele>1586.66</ele>
  <time>2026-08-28T19:09:17Z</time>
  <course>11.49</course>
  <speed>0.01414213562373095</speed>
  <fix>3d</fix>
</trkpt>
<trkpt lat="40.0728423" lon="-105.2305753">
  <ele>1586.66</ele>
  <time>2026-08-28T19:09:17Z</time>
  <course>190.04</course>
  <speed>0.0</speed>
  <fix>3d</fix>
</trkpt>
<trkpt lat="40.0728422" lon="-105.2305752">
  <ele>1586.56</ele>
  <time>2026-08-28T19:09:17Z</time>
  <course>11.48</course>
  <speed>0.01414213562373095</speed>
  <fix>3d</fix>
</trkpt>
<trkpt lat="40.0728423" lon="-105.2305753">
  <ele>1586.57</ele>
  <time>2026-08-28T19:09:17Z</time>
  <course>229.24</course>
  <speed>0.0</speed>
  <fix>3d</fix>
</trkpt>
<trkpt lat="40.0728422" lon="-105.2305752">
  <ele>1586.46</ele>
  <time>2026-08-28T19:09:17Z</time>
  <course>11.48</course>
  <speed>0.01414213562373095</speed>
  <fix>3d</fix>
</trkpt>
<trkpt lat="40.0728423" lon="-105.2305753">
  <ele>1586.47</ele>
  <time>2026-08-28T19:09:17Z</time>
  <course>244.49</course>
  <speed>0.0</speed>
  <fix>3d</fix>
</trkpt>
<trkpt lat="40.0728422" lon="-105.2305752">
  <ele>1586.36</ele>
  <time>2026-08-28T19:09:17Z</time>
  <course>11.48</course>
  <speed>0.01414213562373095</speed>
  <fix>3d</fix>
</trkpt>
<trkpt lat="40.0728423" lon="-105.2305753">
  <ele>1586.37</ele>
  <time>2026-08-28T19:09:17Z</time>
  <course>253.48</course>
  <speed>0.0</speed>
  <fix>3d</fix>
</trkpt>
<trkpt lat="40.0728422" lon="-105.2305752">
  <ele>1586.26</ele>
  <time>2026-08-28T19:09:17Z</time>
  <course>11.49</course>
  <speed>0.01414213562373095</speed>
  <fix>3d</fix>
</trkpt>
<trkpt lat="40.0728423" lon="-105.2305753">
  <ele>1586.27</ele>
  <time>2026-08-28T19:09:17Z</time>
  <course>259.97</course>
  <speed>0.0</speed>
  <fix>3d</fix>
</trkpt>
<trkpt lat="40.0728422" lon="-105.2305752">
  <ele>1586.17</ele>
  <time>2026-08-28T19:09:17Z</time>
  <course>11.49</course>
  <speed>0.01</speed>
  <fix>3d</fix>
</trkpt>
<trkpt lat="40.0728423" lon="-105.2305753">
  <ele>1586.16</ele>
  <time>2026-08-28T19:09:17Z</time>
  <course>262.72</course>
  <speed>0.0</speed>
  <fix>3d</fix>
</trkpt>
<trkpt lat="40.0728422" lon="-105.2305752">
  <ele>1586.15</ele>
  <time>2026-08-28T19:09:17Z</time>
  <course>11.5</course>
  <speed>0.01</speed>
  <fix>3d</fix>
</trkpt>
<trkpt lat="40.0728423" lon="-105.2305753">
  <ele>1586.09</ele>
  <time>2026-08-28T19:09:17Z</time>
  <course>278.5</course>
  <speed>0.01</speed>
  <fix>3d</fix>
</trkpt>
<trkpt lat="40.0728422" lon="-105.2305752">
  <ele>1586.17</ele>
  <time>2026-08-28T19:09:17Z</time>
  <course>11.55</course>
  <speed>0.022360679774997897</speed>
  <fix>3d</fix>
</trkpt>
<trkpt lat="40.0728423" lon="-105.2305753">
  <ele>1586.08</ele>
  <time>2026-08-28T19:09:17Z</time>
  <course>288.97</course>
  <speed>0.01</speed>
  <fix>3d</fix>
</trkpt>
<trkpt lat="40.0728422" lon="-105.2305752">
  <ele>1586.17</ele>
  <time>2026-08-28T19:09:17Z</time>
  <course>11.58</course>
  <speed>0.022360679774997897</speed>
  <fix>3d</fix>
</trkpt>
<trkpt lat="40.0728423" lon="-105.2305753">
  <ele>1586.09</ele>
  <time>2026-08-28T19:09:17Z</time>
  <course>70.64</course>
  <speed>0.0</speed>
  <fix>3d</fix>
</trkpt>
<trkpt lat="40.0728422" lon="-105.2305752">
  <ele>1586.17</ele>
  <time>2026-08-28T19:09:17Z</time>
  <course>11.59</course>
  <speed>0.022360679774997897</speed>
  <fix>3d</fix>
</trkpt>
<trkpt lat="40.0728423" lon="-105.2305753">
  <ele>1586.09</ele>
  <time>2026-08-28T19:09:17Z</time>
  <course>101.38</course>
  <speed>0.0</speed>
  <fix>3d</fix>
</trkpt>
<trkpt lat="40.0728422" lon="-105.2305752">
  <ele>1586.17</ele>
  <time>2026-08-28T19:09:17Z</time>
  <course>11.6</course>
  <speed>0.022360679774997897</speed>
  <fix>3d</fix>
</trkpt>
<trkpt lat="40.0728423" lon="-105.2305753">
  <ele>1586.09</ele>
  <time>2026-08-28T19:09:17Z</time>
  <course>96.96</course>
  <speed>0.0</speed>
  <fix>3d</fix>
</trkpt>
<trkpt lat="40.0728422" lon="-105.2305752">
  <ele>1586.17</ele>
  <time>2026-08-28T19:09:17Z</time>
  <course>11.61</course>
  <speed>0.022360679774997897</speed>
  <fix>3d</fix>
</trkpt>
<trkpt lat="40.0728423" lon="-105.2305753">
  <ele>1586.09</ele>
  <time>2026-08-28T19:09:17Z</time>
  <course>85.67</course>
  <speed>0.0</speed>
  <fix>3d</fix>
</trkpt>
<trkpt lat="40.0728422" lon="-105.2305752">
  <ele>1586.17</ele>
  <time>2026-08-28T19:09:17Z</time>
  <course>11.61</course>
  <speed>0.022360679774997897</speed>
  <fix>3d</fix>
</trkpt>
<trkpt lat="40.0728423" lon="-105.2305753">
  <ele>1586.09</ele>
  <time>2026-08-28T19:09:17Z</time>
  <course>349.52</course>
  <speed>0.0</speed>
  <fix>3d</fix>
</trkpt>
<trkpt lat="40.0728422" lon="-105.2305752">
  <ele>1586.17</ele>
  <time>2026-08-28T19:09:17Z</time>
  <course>11.62</course>
  <speed>0.022360679774997897</speed>
  <fix>3d</fix>
</trkpt>
<trkpt lat="40.0728423" lon="-105.2305753">
  <ele>1586.09</ele>
  <time>2026-08-28T19:09:17Z</time>
  <course>330.32</course>
  <speed>0.0</speed>
  <fix>3d</fix>
</trkpt>
<trkpt lat="40.0728422" lon="-105.2305752">
  <ele>1586.17</ele>
  <time>2026-08-28T19:09:17Z</time>
  <course>11.63</course>
  <speed>0.022360679774997897</speed>
  <fix>3d</fix>
</trkpt>
<trkpt lat="40.0728423" lon="-105.2305753">
  <ele>1586.09</ele>
  <time>2026-08-28T19:09:17Z</time>
  <course>353.47</course>
  <speed>0.0</speed>
  <fix>3d</fix>
</trkpt>
<trkpt lat="40.0728422" lon="-105.2305752">
  <ele>1586.17</ele>
  <time>2026-08-28T19:09:17Z</time>
  <course>11.64</course>
  <speed>0.0282842712474619</speed>
  <fix>3d</fix>
</trkpt>
<trkpt lat="40.0728423" lon="-105.2305753">
  <ele>1586.09</ele>
  <time>2026-08-28T19:09:17Z</time>
  <course>39.28</course>
  <speed>0.0</speed>
  <fix>3d</fix>
</trkpt>
<trkpt lat="40.0728422" lon="-105.2305751">
  <ele>1586.17</ele>
  <time>2026-08-28T19:09:17Z</time>
  <course>11.64</course>
  <speed>0.03605551275463989</speed>
  <fix>3d</fix>
</trkpt>
<trkpt lat="40.0728423" lon="-105.2305753">
  <ele>1586.09</ele>
  <time>2026-08-28T19:09:17Z</time>
  <course>101.46</course>
  <speed>0.0</speed>
  <fix>3d</fix>
</trkpt>
<trkpt lat="40.0728422" lon="-105.2305751">
  <ele>1586.17</ele>
  <time>2026-08-28T19:09:17Z</time>
  <course>11.62</course>
  <speed>0.0282842712474619</speed>
  <fix>3d</fix>
</trkpt>
<trkpt lat="40.0728423" lon="-105.2305753">
  <ele>1586.09</ele>
  <time>2026-08-28T19:09:17Z</time>
  <course>106.61</course>
  <speed>0.0</speed>
  <fix>3d</fix>
</trkpt>
<trkpt lat="40.0728422" lon="-105.2305751">
  <ele>1586.17</ele>
  <time>2026-08-28T19:09:17Z</time>
  <course>11.59</course>
  <speed>0.022360679774997897</speed>
  <fix>3d</fix>
</trkpt>
<trkpt lat="40.0728423" lon="-105.2305753">
  <ele>1586.09</ele>
  <time>2026-08-28T19:09:17Z</time>
  <course>129.25</course>
  <speed>0.0</speed>
  <fix>3d</fix>
</trkpt>
<trkpt lat="40.0728422" lon="-105.2305751">
  <ele>1586.17</ele>
  <time>2026-08-28T19:09:17Z</time>
  <course>11.56</course>
  <speed>0.0282842712474619</speed>
  <fix>3d</fix>
</trkpt>
<trkpt lat="40.0728423" lon="-105.2305753">
  <ele>1586.09</ele>
  <time>2026-08-28T19:09:17Z</time>
  <course>256.03</course>
  <speed>0.0</speed>
  <fix>3d</fix>
</trkpt>
<trkpt lat="40.0728422" lon="-105.2305751">
  <ele>1586.17</ele>
  <time>2026-08-28T19:09:17Z</time>
  <course>11.53</course>
  <speed>0.0282842712474619</speed>
  <fix>3d</fix>
</trkpt>
<trkpt lat="40.0728423" lon="-105.2305753">
  <ele>1586.09</ele>
  <time>2026-08-28T19:09:17Z</time>
  <course>248.94</course>
  <speed>0.0</speed>
  <fix>3d</fix>
</trkpt>
<trkpt lat="40.0728422" lon="-105.2305751">
  <ele>1586.17</ele>
  <time>2026-08-28T19:09:17Z</time>
  <course>11.5</course>
  <speed>0.0282842712474619</speed>
  <fix>3d</fix>
</trkpt>
<trkpt lat="40.0728423" lon="-105.2305753">
  <ele>1586.09</ele>
  <time>2026-08-28T19:09:17Z</time>
  <course>237.5</course>
  <speed>0.0</speed>
  <fix>3d</fix>
</trkpt>
<trkpt lat="40.0728422" lon="-105.2305751">
  <ele>1586.17</ele>
  <time>2026-08-28T19:09:17Z</time>
  <course>11.46</course>
  <speed>0.0282842712474619</speed>
  <fix>3d</fix>
</trkpt>
<trkpt lat="40.0728423" lon="-105.2305753">
  <ele>1586.09</ele>
  <time>2026-08-28T19:09:17Z</time>
  <course>241.92</course>
  <speed>0.0</speed>
  <fix>3d</fix>
</trkpt>
<trkpt lat="40.0728422" lon="-105.2305751">
  <ele>1586.17</ele>
  <time>2026-08-28T19:09:17Z</time>
  <course>11.43</course>
  <speed>0.0282842712474619</speed>
  <fix>3d</fix>
</trkpt>
<trkpt lat="40.0728423" lon="-105.2305753">
  <ele>1586.09</ele>
  <time>2026-08-28T19:09:17Z</time>
  <course>233.15</course>
  <speed>0.0</speed>
  <fix>3d</fix>
</trkpt>
<trkpt lat="40.0728422" lon="-105.2305751">
  <ele>1586.17</ele>
  <time>2026-08-28T19:09:17Z</time>
  <course>11.4</course>
  <speed>0.0282842712474619</speed>
  <fix>3d</fix>
</trkpt>
<trkpt lat="40.0728423" lon="-105.2305753">
  <ele>1586.09</ele>
  <time>2026-08-28T19:09:17Z</time>
  <course>115.65</course>
  <speed>0.0</speed>
  <fix>3d</fix>
</trkpt>
<trkpt lat="40.0728422" lon="-105.2305751">
  <ele>1586.17</ele>
  <time>2026-08-28T19:09:17Z</time>
  <course>11.37</course>
  <speed>0.0282842712474619</speed>
  <fix>3d</fix>
</trkpt>
<trkpt lat="40.0728423" lon="-105.2305753">
  <ele>1586.09</ele>
  <time>2026-08-28T19:09:17Z</time>
  <course>40.32</course>
  <speed>0.0</speed>
  <fix>3d</fix>
</trkpt>
<trkpt lat="40.0728422" lon="-105.2305751">
  <ele>1586.18</ele>
  <time>2026-08-28T19:09:17Z</time>
  <course>11.33</course>
  <speed>0.022360679774997897</speed>
  <fix>3d</fix>
</trkpt>
<trkpt lat="40.0728423" lon="-105.2305753">
  <ele>1586.09</ele>
  <time>2026-08-28T19:09:17Z</time>
  <course>284.51</course>
  <speed>0.0</speed>
  <fix>3d</fix>
</trkpt>
<trkpt lat="40.0728422" lon="-105.2305751">
  <ele>1586.18</ele>
  <time>2026-08-28T19:09:17Z</time>
  <course>11.3</course>
  <speed>0.022360679774997897</speed>
  <fix>3d</fix>
</trkpt>
<trkpt lat="40.0728423" lon="-105.2305753">
  <ele>1586.09</ele>
  <time>2026-08-28T19:09:17Z</time>
  <course>276.21</course>
  <speed>0.0</speed>
  <fix>3d</fix>
</trkpt>
<trkpt lat="40.0728422" lon="-105.2305751">
  <ele>1586.18</ele>
  <time>2026-08-28T19:09:17Z</time>
  <course>11.27</course>
  <speed>0.022360679774997897</speed>
  <fix>3d</fix>
</trkpt>
<trkpt lat="40.0728423" lon="-105.2305753">
  <ele>1586.09</ele>
  <time>2026-08-28T19:09:17Z</time>
  <course>282.23</course>
  <speed>0.0</speed>
  <fix>3d</fix>
</trkpt>
<trkpt lat="40.0728422" lon="-105.2305751">
  <ele>1586.18</ele>
  <time>2026-08-28T19:09:17Z</time>
  <course>11.24</course>
  <speed>0.022360679774997897</speed>
  <fix>3d</fix>
</trkpt>
<trkpt lat="40.0728423" lon="-105.2305753">
  <ele>1586.09</ele>
  <time>2026-08-28T19:09:17Z</time>
  <course>281.87</course>
  <speed>0.0</speed>
  <fix>3d</fix>
</trkpt>
<trkpt lat="40.0728422" lon="-105.2305751">
  <ele>1586.19</ele>
  <time>2026-08-28T19:09:17Z</time>
  <course>11.2</course>
  <speed>0.022360679774997897</speed>
  <fix>3d</fix>
</trkpt>
<trkpt lat="40.0728423" lon="-105.2305753">
  <ele>1586.09</ele>
  <time>2026-08-28T19:09:17Z</time>
  <course>308.11</course>
  <speed>0.0</speed>
  <fix>3d</fix>
</trkpt>
<trkpt lat="40.0728422" lon="-105.2305751">
  <ele>1586.19</ele>
  <time>2026-08-28T19:09:17Z</time>
  <course>11.17</course>
  <speed>0.022360679774997897</speed>
  <fix>3d</fix>
</trkpt>
<trkpt lat="40.0728423" lon="-105.2305753">
  <ele>1586.09</ele>
  <time>2026-08-28T19:09:17Z</time>
  <course>282.77</course>
  <speed>0.0</speed>
  <fix>3d</fix>
</trkpt>
<trkpt lat="40.0728422" lon="-105.2305751">
  <ele>1586.19</ele>
  <time>2026-08-28T19:09:17Z</time>
  <course>11.14</course>
  <speed>0.022360679774997897</speed>
  <fix>3d</fix>
</trkpt>
<trkpt lat="40.0728423" lon="-105.2305753">
  <ele>1586.09</ele>
  <time>2026-08-28T19:09:17Z</time>
  <course>282.03</course>
  <speed>0.0</speed>
  <fix>3d</fix>
</trkpt>
<trkpt lat="40.0728422" lon="-105.2305752">
  <ele>1586.19</ele>
  <time>2026-08-28T19:09:17Z</time>
  <course>11.11</course>
  <speed>0.022360679774997897</speed>
  <fix>3d</fix>
</trkpt>
<trkpt lat="40.0728423" lon="-105.2305753">
  <ele>1586.09</ele>
  <time>2026-08-28T19:09:17Z</time>
  <course>1.56</course>
  <speed>0.0</speed>
  <fix>3d</fix>
</trkpt>
<trkpt lat="40.0728422" lon="-105.2305752">
  <ele>1586.19</ele>
  <time>2026-08-28T19:09:17Z</time>
  <course>11.07</course>
  <speed>0.022360679774997897</speed>
  <fix>3d</fix>
</trkpt>
<trkpt lat="40.0728423" lon="-105.2305753">
  <ele>1586.09</ele>
  <time>2026-08-28T19:09:17Z</time>
  <course>283.43</course>
  <speed>0.0</speed>
  <fix>3d</fix>
</trkpt>
<trkpt lat="40.0728422" lon="-105.2305752">
  <ele>1586.19</ele>
  <time>2026-08-28T19:09:17Z</time>
  <course>11.04</course>
  <speed>0.022360679774997897</speed>
  <fix>3d</fix>
</trkpt>
<trkpt lat="40.0728423" lon="-105.2305753">
  <ele>1586.09</ele>
  <time>2026-08-28T19:09:17Z</time>
  <course>282.4</course>
  <speed>0.0</speed>
  <fix>3d</fix>
</trkpt>
<trkpt lat="40.0728422" lon="-105.2305752">
  <ele>1586.19</ele>
  <time>2026-08-28T19:09:17Z</time>
  <course>11.01</course>
  <speed>0.022360679774997897</speed>
  <fix>3d</fix>
</trkpt>
<trkpt lat="40.0728423" lon="-105.2305753">
  <ele>1586.09</ele>
  <time>2026-08-28T19:09:17Z</time>
  <course>17.45</course>
  <speed>0.0</speed>
  <fix>3d</fix>
</trkpt>
<trkpt lat="40.0728422" lon="-105.2305752">
  <ele>1586.19</ele>
  <time>2026-08-28T19:09:17Z</time>
  <course>10.98</course>
  <speed>0.022360679774997897</speed>
  <fix>3d</fix>
</trkpt>
<trkpt lat="40.0728423" lon="-105.2305753">
  <ele>1586.09</ele>
  <time>2026-08-28T19:09:17Z</time>
  <course>284.09</course>
  <speed>0.0</speed>
  <fix>3d</fix>
</trkpt>
<trkpt lat="40.0728422" lon="-105.2305752">
  <ele>1586.2</ele>
  <time>2026-08-28T19:09:17Z</time>
  <course>10.95</course>
  <speed>0.022360679774997897</speed>
  <fix>3d</fix>
</trkpt>
<trkpt lat="40.0728423" lon="-105.2305753">
  <ele>1586.09</ele>
  <time>2026-08-28T19:09:17Z</time>
  <course>282.87</course>
  <speed>0.0</speed>
  <fix>3d</fix>
</trkpt>
<trkpt lat="40.0728422" lon="-105.2305752">
  <ele>1586.2</ele>
  <time>2026-08-28T19:09:17Z</time>
  <course>10.91</course>
  <speed>0.022360679774997897</speed>
  <fix>3d</fix>
</trkpt>
<trkpt lat="40.0728423" lon="-105.2305753">
  <ele>1586.09</ele>
  <time>2026-08-28T19:09:17Z</time>
  <course>29.8</course>
  <speed>0.0</speed>
  <fix>3d</fix>
</trkpt>
<trkpt lat="40.0728422" lon="-105.2305752">
  <ele>1586.2</ele>
  <time>2026-08-28T19:09:17Z</time>
  <course>10.88</course>
  <speed>0.022360679774997897</speed>
  <fix>3d</fix>
</trkpt>
<trkpt lat="40.0728423" lon="-105.2305753">
  <ele>1586.09</ele>
  <time>2026-08-28T19:09:17Z</time>
  <course>285.77</course>
  <speed>0.0</speed>
  <fix>3d</fix>
</trkpt>
<trkpt lat="40.0728422" lon="-105.2305752">
  <ele>1586.2</ele>
  <time>2026-08-28T19:09:17Z</time>
  <course>10.85</course>
  <speed>0.022360679774997897</speed>
  <fix>3d</fix>
</trkpt>
<trkpt lat="40.0728423" lon="-105.2305753">
  <ele>1586.09</ele>
  <time>2026-08-28T19:09:17Z</time>
  <course>282.95</course>
  <speed>0.0</speed>
  <fix>3d</fix>
</trkpt>
<trkpt lat="40.0728422" lon="-105.2305752">
  <ele>1586.2</ele>
  <time>2026-08-28T19:09:17Z</time>
  <course>10.82</course>
  <speed>0.022360679774997897</speed>
  <fix>3d</fix>
</trkpt>
<trkpt lat="40.0728423" lon="-105.2305753">
  <ele>1586.09</ele>
  <time>2026-08-28T19:09:17Z</time>
  <course>295.98</course>
  <speed>0.0</speed>
  <fix>3d</fix>
</trkpt>
<trkpt lat="40.0728422" lon="-105.2305752">
  <ele>1586.2</ele>
  <time>2026-08-28T19:09:17Z</time>
  <course>10.79</course>
  <speed>0.022360679774997897</speed>
  <fix>3d</fix>
</trkpt>
<trkpt lat="40.0728423" lon="-105.2305753">
  <ele>1586.09</ele>
  <time>2026-08-28T19:09:17Z</time>
  <course>286.42</course>
  <speed>0.0</speed>
  <fix>3d</fix>
</trkpt>
<trkpt lat="40.0728422" lon="-105.2305752">
  <ele>1586.2</ele>
  <time>2026-08-28T19:09:17Z</time>
  <course>10.75</course>
  <speed>0.022360679774997897</speed>
  <fix>3d</fix>
</trkpt>
<trkpt lat="40.0728423" lon="-105.2305753">
  <ele>1586.09</ele>
  <time>2026-08-28T19:09:17Z</time>
  <course>283.4</course>
  <speed>0.0</speed>
  <fix>3d</fix>
</trkpt>
<trkpt lat="40.0728422" lon="-105.2305752">
  <ele>1586.2</ele>
  <time>2026-08-28T19:09:17Z</time>
  <course>10.72</course>
  <speed>0.022360679774997897</speed>
  <fix>3d</fix>
</trkpt>
<trkpt lat="40.0728423" lon="-105.2305753">
  <ele>1586.09</ele>
  <time>2026-08-28T19:09:17Z</time>
  <course>299.4</course>
  <speed>0.0</speed>
  <fix>3d</fix>
</trkpt>
<trkpt lat="40.0728422" lon="-105.2305752">
  <ele>1586.2</ele>
  <time>2026-08-28T19:09:17Z</time>
  <course>10.69</course>
  <speed>0.022360679774997897</speed>
  <fix>3d</fix>
</trkpt>
<trkpt lat="40.0728423" lon="-105.2305753">
  <ele>1586.09</ele>
  <time>2026-08-28T19:09:17Z</time>
  <course>287.16</course>
  <speed>0.0</speed>
  <fix>3d</fix>
</trkpt>
<trkpt lat="40.0728422" lon="-105.2305752">
  <ele>1586.2</ele>
  <time>2026-08-28T19:09:17Z</time>
  <course>10.66</course>
  <speed>0.022360679774997897</speed>
  <fix>3d</fix>
</trkpt>
<trkpt lat="40.0728423" lon="-105.2305753">
  <ele>1586.09</ele>
  <time>2026-08-28T19:09:17Z</time>
  <course>283.76</course>
  <speed>0.0</speed>
  <fix>3d</fix>
</trkpt>
<trkpt lat="40.0728422" lon="-105.2305752">
  <ele>1586.2</ele>
  <time>2026-08-28T19:09:17Z</time>
  <course>10.62</course>
  <speed>0.022360679774997897</speed>
  <fix>3d</fix>
</trkpt>
<trkpt lat="40.0728423" lon="-105.2305753">
  <ele>1586.09</ele>
  <time>2026-08-28T19:09:17Z</time>
  <course>297.64</course>
  <speed>0.0</speed>
  <fix>3d</fix>
</trkpt>
<trkpt lat="40.0728422" lon="-105.2305752">
  <ele>1586.2</ele>
  <time>2026-08-28T19:09:17Z</time>
  <course>10.59</course>
  <speed>0.022360679774997897</speed>
  <fix>3d</fix>
</trkpt>
<trkpt lat="40.0728423" lon="-105.2305753">
  <ele>1586.09</ele>
  <time>2026-08-28T19:09:17Z</time>
  <course>287.53</course>
  <speed>0.0</speed>
  <fix>3d</fix>
</trkpt>
<trkpt lat="40.0728422" lon="-105.2305752">
  <ele>1586.2</ele>
  <time>2026-08-28T19:09:17Z</time>
  <course>10.56</course>
  <speed>0.022360679774997897</speed>
  <fix>3d</fix>
</trkpt>
<trkpt lat="40.0728423" lon="-105.2305753">
  <ele>1586.09</ele>
  <time>2026-08-28T19:09:17Z</time>
  <course>284.12</course>
  <speed>0.0</speed>
  <fix>3d</fix>
</trkpt>
<trkpt lat="40.0728422" lon="-105.2305752">
  <ele>1586.2</ele>
  <time>2026-08-28T19:09:17Z</time>
  <course>10.53</course>
  <speed>0.022360679774997897</speed>
  <fix>3d</fix>
</trkpt>
<trkpt lat="40.0728423" lon="-105.2305753">
  <ele>1586.09</ele>
  <time>2026-08-28T19:09:17Z</time>
  <course>297.88</course>
  <speed>0.0</speed>
  <fix>3d</fix>
</trkpt>
<trkpt lat="40.0728422" lon="-105.2305752">
  <ele>1586.2</ele>
  <time>2026-08-28T19:09:17Z</time>
  <course>10.49</course>
  <speed>0.022360679774997897</speed>
  <fix>3d</fix>
</trkpt>
<trkpt lat="40.0728423" lon="-105.2305753">
  <ele>1586.09</ele>
  <time>2026-08-28T19:09:17Z</time>
  <course>295.0</course>
  <speed>0.0</speed>
  <fix>3d</fix>
</trkpt>
<trkpt lat="40.0728422" lon="-105.2305752">
  <ele>1586.19</ele>
  <time>2026-08-28T19:09:17Z</time>
  <course>10.46</course>
  <speed>0.022360679774997897</speed>
  <fix>3d</fix>
</trkpt>
<trkpt lat="40.0728423" lon="-105.2305753">
  <ele>1586.09</ele>
  <time>2026-08-28T19:09:17Z</time>
  <course>285.07</course>
  <speed>0.0</speed>
  <fix>3d</fix>
</trkpt>
<trkpt lat="40.0728422" lon="-105.2305752">
  <ele>1586.19</ele>
  <time>2026-08-28T19:09:17Z</time>
  <course>10.43</course>
  <speed>0.022360679774997897</speed>
  <fix>3d</fix>
</trkpt>
<trkpt lat="40.0728423" lon="-105.2305753">
  <ele>1586.09</ele>
  <time>2026-08-28T19:09:17Z</time>
  <course>290.37</course>
  <speed>0.0</speed>
  <fix>3d</fix>
</trkpt>
<trkpt lat="40.0728422" lon="-105.2305752">
  <ele>1586.19</ele>
  <time>2026-08-28T19:09:17Z</time>
  <course>10.4</course>
  <speed>0.022360679774997897</speed>
  <fix>3d</fix>
</trkpt>
<trkpt lat="40.0728423" lon="-105.2305753">
  <ele>1586.09</ele>
  <time>2026-08-28T19:09:17Z</time>
  <course>9.5</course>
  <speed>0.0</speed>
  <fix>3d</fix>
</trkpt>
<trkpt lat="40.0728422" lon="-105.2305752">
  <ele>1586.19</ele>
  <time>2026-08-28T19:09:17Z</time>
  <course>10.37</course>
  <speed>0.022360679774997897</speed>
  <fix>3d</fix>
</trkpt>
<trkpt lat="40.0728423" lon="-105.2305753">
  <ele>1586.09</ele>
  <time>2026-08-28T19:09:17Z</time>
  <course>286.98</course>
  <speed>0.0</speed>
  <fix>3d</fix>
</trkpt>
<trkpt lat="40.0728422" lon="-105.2305752">
  <ele>1586.19</ele>
  <time>2026-08-28T19:09:17Z</time>
  <course>10.33</course>
  <speed>0.022360679774997897</speed>
  <fix>3d</fix>
</trkpt>
<trkpt lat="40.0728423" lon="-105.2305753">
  <ele>1586.09</ele>
  <time>2026-08-28T19:09:17Z</time>
  <course>286.68</course>
  <speed>0.0</speed>
  <fix>3d</fix>
</trkpt>
<trkpt lat="40.0728422" lon="-105.2305752">
  <ele>1586.19</ele>
  <time>2026-08-28T19:09:17Z</time>
  <course>10.3</course>
  <speed>0.022360679774997897</speed>
  <fix>3d</fix>
</trkpt>
<trkpt lat="40.0728423" lon="-105.2305753">
  <ele>1586.09</ele>
  <time>2026-08-28T19:09:17Z</time>
  <course>330.48</course>
  <speed>0.0</speed>
  <fix>3d</fix>
</trkpt>
<trkpt lat="40.0728422" lon="-105.2305752">
  <ele>1586.19</ele>
  <time>2026-08-28T19:09:17Z</time>
  <course>10.27</course>
  <speed>0.022360679774997897</speed>
  <fix>3d</fix>
</trkpt>
<trkpt lat="40.0728423" lon="-105.2305753">
  <ele>1586.09</ele>
  <time>2026-08-28T19:09:17Z</time>
  <course>289.34</course>
  <speed>0.0</speed>
  <fix>3d</fix>
</trkpt>
<trkpt lat="40.0728422" lon="-105.2305752">
  <ele>1586.19</ele>
  <time>2026-08-28T19:09:17Z</time>
  <course>10.24</course>
  <speed>0.022360679774997897</speed>
  <fix>3d</fix>
</trkpt>
<trkpt lat="40.0728423" lon="-105.2305753">
  <ele>1586.09</ele>
  <time>2026-08-28T19:09:17Z</time>
  <course>291.13</course>
  <speed>0.0</speed>
  <fix>3d</fix>
</trkpt>
<trkpt lat="40.0728422" lon="-105.2305752">
  <ele>1586.19</ele>
  <time>2026-08-28T19:09:17Z</time>
  <course>10.2</course>
  <speed>0.022360679774997897</speed>
  <fix>3d</fix>
</trkpt>
<trkpt lat="40.0728423" lon="-105.2305753">
  <ele>1586.09</ele>
  <time>2026-08-28T19:09:17Z</time>
  <course>63.21</course>
  <speed>0.0</speed>
  <fix>3d</fix>
</trkpt>
<trkpt lat="40.0728422" lon="-105.2305752">
  <ele>1586.19</ele>
  <time>2026-08-28T19:09:17Z</time>
  <course>10.17</course>
  <speed>0.022360679774997897</speed>
  <fix>3d</fix>
</trkpt>
<trkpt lat="40.0728423" lon="-105.2305753">
  <ele>1586.09</ele>
  <time>2026-08-28T19:09:17Z</time>
  <course>295.91</course>
  <speed>0.0</speed>
  <fix>3d</fix>
</trkpt>
<trkpt lat="40.0728422" lon="-105.2305752">
  <ele>1586.19</ele>
  <time>2026-08-28T19:09:17Z</time>
  <course>10.14</course>
  <speed>0.022360679774997897</speed>
  <fix>3d</fix>
</trkpt>
<trkpt lat="40.0728423" lon="-105.2305753">
  <ele>1586.09</ele>
  <time>2026-08-28T19:09:17Z</time>
  <course>295.16</course>
  <speed>0.0</speed>
  <fix>3d</fix>
</trkpt>
<trkpt lat="40.0728422" lon="-105.2305752">
  <ele>1586.19</ele>
  <time>2026-08-28T19:09:17Z</time>
  <course>10.11</course>
  <speed>0.022360679774997897</speed>
  <fix>3d</fix>
</trkpt>
<trkpt lat="40.0728423" lon="-105.2305753">
  <ele>1586.09</ele>
  <time>2026-08-28T19:09:17Z</time>
  <course>59.9</course>
  <speed>0.0</speed>
  <fix>3d</fix>
</trkpt>
<trkpt lat="40.0728422" lon="-105.2305752">
  <ele>1586.19</ele>
  <time>2026-08-28T19:09:17Z</time>
  <course>10.07</course>
  <speed>0.022360679774997897</speed>
  <fix>3d</fix>
</trkpt>
<trkpt lat="40.0728423" lon="-105.2305753">
  <ele>1586.09</ele>
  <time>2026-08-28T19:09:17Z</time>
  <course>295.09</course>
  <speed>0.0</speed>
  <fix>3d</fix>
</trkpt>
<trkpt lat="40.0728422" lon="-105.2305752">
  <ele>1586.19</ele>
  <time>2026-08-28T19:09:17Z</time>
  <course>10.04</course>
  <speed>0.022360679774997897</speed>
  <fix>3d</fix>
</trkpt>
<trkpt lat="40.0728423" lon="-105.2305753">
  <ele>1586.09</ele>
  <time>2026-08-28T19:09:17Z</time>
  <course>291.94</course>
  <speed>0.0</speed>
  <fix>3d</fix>
</trkpt>
<trkpt lat="40.0728422" lon="-105.2305752">
  <ele>1586.19</ele>
  <time>2026-08-28T19:09:17Z</time>
  <course>10.01</course>
  <speed>0.022360679774997897</speed>
  <fix>3d</fix>
</trkpt>
<trkpt lat="40.0728423" lon="-105.2305753">
  <ele>1586.09</ele>
  <time>2026-08-28T19:09:17Z</time>
  <course>39.85</course>
  <speed>0.0</speed>
  <fix>3d</fix>
</trkpt>
<trkpt lat="40.0728422" lon="-105.2305752">
  <ele>1586.19</ele>
  <time>2026-08-28T19:09:17Z</time>
  <course>9.98</course>
  <speed>0.022360679774997897</speed>
  <fix>3d</fix>
</trkpt>
<trkpt lat="40.0728423" lon="-105.2305753">
  <ele>1586.09</ele>
  <time>2026-08-28T19:09:17Z</time>
  <course>301.69</course>
  <speed>0.0</speed>
  <fix>3d</fix>
</trkpt>
<trkpt lat="40.0728422" lon="-105.2305752">
  <ele>1586.19</ele>
  <time>2026-08-28T19:09:17Z</time>
  <course>9.94</course>
  <speed>0.01414213562373095</speed>
  <fix>3d</fix>
</trkpt>
<trkpt lat="40.0728423" lon="-105.2305753">
  <ele>1586.09</ele>
  <time>2026-08-28T19:09:17Z</time>
  <course>295.77</course>
  <speed>0.0</speed>
  <fix>3d</fix>
</trkpt>
<trkpt lat="40.0728422" lon="-105.2305752">
  <ele>1586.19</ele>
  <time>2026-08-28T19:09:17Z</time>
  <course>9.91</course>
  <speed>0.01414213562373095</speed>
  <fix>3d</fix>
</trkpt>
<trkpt lat="40.0728423" lon="-105.2305753">
  <ele>1586.09</ele>
  <time>2026-08-28T19:09:17Z</time>
  <course>38.74</course>
  <speed>0.0</speed>
  <fix>3d</fix>
</trkpt>
<trkpt lat="40.0728422" lon="-105.2305752">
  <ele>1586.19</ele>
  <time>2026-08-28T19:09:17Z</time>
  <course>9.88</course>
  <speed>0.01414213562373095</speed>
  <fix>3d</fix>
</trkpt>
<trkpt lat="40.0728423" lon="-105.2305753">
  <ele>1586.09</ele>
  <time>2026-08-28T19:09:17Z</time>
  <course>308.25</course>
  <speed>0.0</speed>
  <fix>3d</fix>
</trkpt>
<trkpt lat="40.0728422" lon="-105.2305752">
  <ele>1586.18</ele>
  <time>2026-08-28T19:09:17Z</time>
  <course>9.84</course>
  <speed>0.01414213562373095</speed>
  <fix>3d</fix>
</trkpt>
<trkpt lat="40.0728423" lon="-105.2305753">
  <ele>1586.09</ele>
  <time>2026-08-28T19:09:17Z</time>
  <course>301.5</course>
  <speed>0.0</speed>
  <fix>3d</fix>
</trkpt>
<trkpt lat="40.0728422" lon="-105.2305752">
  <ele>1586.18</ele>
  <time>2026-08-28T19:09:17Z</time>
  <course>9.81</course>
  <speed>0.01414213562373095</speed>
  <fix>3d</fix>
</trkpt>
<trkpt lat="40.0728423" lon="-105.2305753">
  <ele>1586.09</ele>
  <time>2026-08-28T19:09:17Z</time>
  <course>37.8</course>
  <speed>0.0</speed>
  <fix>3d</fix>
</trkpt>
<trkpt lat="40.0728422" lon="-105.2305752">
  <ele>1586.19</ele>
  <time>2026-08-28T19:09:17Z</time>
  <course>9.78</course>
  <speed>0.01414213562373095</speed>
  <fix>3d</fix>
</trkpt>
<trkpt lat="40.0728423" lon="-105.2305753">
  <ele>1586.09</ele>
  <time>2026-08-28T19:09:17Z</time>
  <course>313.65</course>
  <speed>0.0</speed>
  <fix>3d</fix>
</trkpt>
<trkpt lat="40.0728422" lon="-105.2305752">
  <ele>1586.19</ele>
  <time>2026-08-28T19:09:17Z</time>
  <course>9.75</course>
  <speed>0.01414213562373095</speed>
  <fix>3d</fix>
</trkpt>
<trkpt lat="40.0728423" lon="-105.2305753">
  <ele>1586.09</ele>
  <time>2026-08-28T19:09:17Z</time>
  <course>305.98</course>
  <speed>0.0</speed>
  <fix>3d</fix>
</trkpt>
<trkpt lat="40.0728422" lon="-105.2305752">
  <ele>1586.18</ele>
  <time>2026-08-28T19:09:17Z</time>
  <course>9.71</course>
  <speed>0.01414213562373095</speed>
  <fix>3d</fix>
</trkpt>
<trkpt lat="40.0728423" lon="-105.2305753">
  <ele>1586.09</ele>
  <time>2026-08-28T19:09:17Z</time>
  <course>26.46</course>
  <speed>0.0</speed>
  <fix>3d</fix>
</trkpt>
<trkpt lat="40.0728422" lon="-105.2305752">
  <ele>1586.18</ele>
  <time>2026-08-28T19:09:17Z</time>
  <course>9.68</course>
  <speed>0.01414213562373095</speed>
  <fix>3d</fix>
</trkpt>
<trkpt lat="40.0728423" lon="-105.2305753">
  <ele>1586.09</ele>
  <time>2026-08-28T19:09:17Z</time>
  <course>318.23</course>
  <speed>0.0</speed>
  <fix>3d</fix>
</trkpt>
<trkpt lat="40.0728422" lon="-105.2305752">
  <ele>1586.18</ele>
  <time>2026-08-28T19:09:17Z</time>
  <course>9.65</course>
  <speed>0.01414213562373095</speed>
  <fix>3d</fix>
</trkpt>
<trkpt lat="40.0728423" lon="-105.2305753">
  <ele>1586.09</ele>
  <time>2026-08-28T19:09:17Z</time>
  <course>305.84</course>
  <speed>0.0</speed>
  <fix>3d</fix>
</trkpt>
<trkpt lat="40.0728422" lon="-105.2305752">
  <ele>1586.18</ele>
  <time>2026-08-28T19:09:17Z</time>
  <course>9.61</course>
  <speed>0.01414213562373095</speed>
  <fix>3d</fix>
</trkpt>
<trkpt lat="40.0728423" lon="-105.2305753">
  <ele>1586.09</ele>
  <time>2026-08-28T19:09:17Z</time>
  <course>354.57</course>
  <speed>0.0</speed>
  <fix>3d</fix>
</trkpt>
<trkpt lat="40.0728422" lon="-105.2305752">
  <ele>1586.18</ele>
  <time>2026-08-28T19:09:17Z</time>
  <course>9.58</course>
  <speed>0.01414213562373095</speed>
  <fix>3d</fix>
</trkpt>
<trkpt lat="40.0728423" lon="-105.2305753">
  <ele>1586.09</ele>
  <time>2026-08-28T19:09:17Z</time>
  <course>321.24</course>
  <speed>0.0</speed>
  <fix>3d</fix>
</trkpt>
<trkpt lat="40.0728422" lon="-105.2305752">
  <ele>1586.17</ele>
  <time>2026-08-28T19:09:17Z</time>
  <course>9.55</course>
  <speed>0.01414213562373095</speed>
  <fix>3d</fix>
</trkpt>
<trkpt lat="40.0728423" lon="-105.2305753">
  <ele>1586.09</ele>
  <time>2026-08-28T19:09:17Z</time>
  <course>310.06</course>
  <speed>0.0</speed>
  <fix>3d</fix>
</trkpt>
<trkpt lat="40.0728422" lon="-105.2305752">
  <ele>1586.17</ele>
  <time>2026-08-28T19:09:17Z</time>
  <course>9.51</course>
  <speed>0.01414213562373095</speed>
  <fix>3d</fix>
</trkpt>
<trkpt lat="40.0728423" lon="-105.2305753">
  <ele>1586.09</ele>
  <time>2026-08-28T19:09:17Z</time>
  <course>341.33</course>
  <speed>0.0</speed>
  <fix>3d</fix>
</trkpt>
<trkpt lat="40.0728422" lon="-105.2305752">
  <ele>1586.17</ele>
  <time>2026-08-28T19:09:17Z</time>
  <course>9.48</course>
  <speed>0.01414213562373095</speed>
  <fix>3d</fix>
</trkpt>
<trkpt lat="40.0728423" lon="-105.2305753">
  <ele>1586.09</ele>
  <time>2026-08-28T19:09:17Z</time>
  <course>318.02</course>
  <speed>0.0</speed>
  <fix>3d</fix>
</trkpt>
<trkpt lat="40.0728422" lon="-105.2305752">
  <ele>1586.17</ele>
  <time>2026-08-28T19:09:17Z</time>
  <course>9.45</course>
  <speed>0.01414213562373095</speed>
  <fix>3d</fix>
</trkpt>
<trkpt lat="40.0728423" lon="-105.2305753">
  <ele>1586.09</ele>
  <time>2026-08-28T19:09:17Z</time>
  <course>310.17</course>
  <speed>0.0</speed>
  <fix>3d</fix>
</trkpt>
<trkpt lat="40.0728422" lon="-105.2305752">
  <ele>1586.17</ele>
  <time>2026-08-28T19:09:17Z</time>
  <course>9.42</course>
  <speed>0.01414213562373095</speed>
  <fix>3d</fix>
</trkpt>
<trkpt lat="40.0728423" lon="-105.2305753">
  <ele>1586.09</ele>
  <time>2026-08-28T19:09:17Z</time>
  <course>324.8</course>
  <speed>0.0</speed>
  <fix>3d</fix>
</trkpt>
<trkpt lat="40.0728422" lon="-105.2305752">
  <ele>1586.17</ele>
  <time>2026-08-28T19:09:17Z</time>
  <course>9.38</course>
  <speed>0.01414213562373095</speed>
  <fix>3d</fix>
</trkpt>
<trkpt lat="40.0728423" lon="-105.2305753">
  <ele>1586.09</ele>
  <time>2026-08-28T19:09:17Z</time>
  <course>312.56</course>
  <speed>0.0</speed>
  <fix>3d</fix>
</trkpt>
<trkpt lat="40.0728422" lon="-105.2305752">
  <ele>1586.17</ele>
  <time>2026-08-28T19:09:18Z</time>
  <course>9.35</course>
  <speed>0.01414213562373095</speed>
  <fix>3d</fix>
</trkpt>
<trkpt lat="40.0728423" lon="-105.2305753">
  <ele>1586.09</ele>
  <time>2026-08-28T19:09:18Z</time>
  <course>307.68</course>
  <speed>0.0</speed>
  <fix>3d</fix>
</trkpt>
<trkpt lat="40.0728422" lon="-105.2305752">
  <ele>1586.17</ele>
  <time>2026-08-28T19:09:18Z</time>
  <course>9.32</course>
  <speed>0.01414213562373095</speed>
  <fix>3d</fix>
</trkpt>
<trkpt lat="40.0728423" lon="-105.2305753">
  <ele>1586.09</ele>
  <time>2026-08-28T19:09:18Z</time>
  <course>311.84</course>
  <speed>0.0</speed>
  <fix>3d</fix>
</trkpt>
<trkpt lat="40.0728422" lon="-105.2305752">
  <ele>1586.17</ele>
  <time>2026-08-28T19:09:18Z</time>
  <course>9.28</course>
  <speed>0.01414213562373095</speed>
  <fix>3d</fix>
</trkpt>
<trkpt lat="40.0728423" lon="-105.2305753">
  <ele>1586.09</ele>
  <time>2026-08-28T19:09:18Z</time>
  <course>305.43</course>
  <speed>0.0</speed>
  <fix>3d</fix>
</trkpt>
<trkpt lat="40.0728422" lon="-105.2305752">
  <ele>1586.17</ele>
  <time>2026-08-28T19:09:18Z</time>
  <course>9.27</course>
  <speed>0.01414213562373095</speed>
  <fix>3d</fix>
</trkpt>
<trkpt lat="40.0728423" lon="-105.2305753">
  <ele>1586.09</ele>
  <time>2026-08-28T19:09:18Z</time>
  <course>302.05</course>
  <speed>0.0</speed>
  <fix>3d</fix>
</trkpt>
<trkpt lat="40.0728422" lon="-105.2305752">
  <ele>1586.17</ele>
  <time>2026-08-28T19:09:18Z</time>
  <course>9.36</course>
  <speed>0.01414213562373095</speed>
  <fix>3d</fix>
</trkpt>
<trkpt lat="40.0728423" lon="-105.2305753">
  <ele>1586.09</ele>
  <time>2026-08-28T19:09:18Z</time>
  <course>339.03</course>
  <speed>0.0</speed>
  <fix>3d</fix>
</trkpt>
<trkpt lat="40.0728422" lon="-105.2305752">
  <ele>1586.18</ele>
  <time>2026-08-28T19:09:18Z</time>
  <course>9.47</course>
  <speed>0.022360679774997897</speed>
  <fix>3d</fix>
</trkpt>
<trkpt lat="40.0728423" lon="-105.2305753">
  <ele>1586.09</ele>
  <time>2026-08-28T19:09:18Z</time>
  <course>310.82</course>
  <speed>0.0</speed>
  <fix>3d</fix>
</trkpt>
<trkpt lat="40.0728422" lon="-105.2305752">
  <ele>1586.18</ele>
  <time>2026-08-28T19:09:18Z</time>
  <course>9.57</course>
  <speed>0.022360679774997897</speed>
  <fix>3d</fix>
</trkpt>
<trkpt lat="39.6562421" lon="-104.1365912">
  <ele>1569.6</ele>
  <time>2026-08-28T19:09:18Z</time>
  <course>0.0</course>
  <speed>0.0</speed>
  <fix>3d</fix>
</trkpt>
<trkpt lat="40.072842" lon="-105.230575">
  <ele>1586.09</ele>
  <time>2026-08-28T19:09:18Z</time>
  <course>2.03</course>
  <speed>0.0</speed>
  <fix>3d</fix>
</trkpt>
<trkpt lat="40.072842" lon="-105.230575">
  <ele>1586.09</ele>
  <time>2026-08-28T19:09:18Z</time>
  <course>0.0</course>
  <speed>0.0</speed>
  <fix>3d</fix>
</trkpt>
<trkpt lat="40.072842" lon="-105.230575">
  <ele>1586.09</ele>
  <time>2026-08-28T19:09:18Z</time>
  <course>2.37</course>
  <speed>0.0</speed>
  <fix>3d</fix>
</trkpt>
<trkpt lat="40.072842" lon="-105.230575">
  <ele>1586.09</ele>
  <time>2026-08-28T19:09:18Z</time>
  <course>0.0</course>
  <speed>0.0</speed>
  <fix>3d</fix>
</trkpt>
<trkpt lat="40.072842" lon="-105.230575">
  <ele>1586.09</ele>
  <time>2026-08-28T19:09:18Z</time>
  <course>3.11</course>
  <speed>0.0</speed>
  <fix>3d</fix>
</trkpt>
<trkpt lat="40.072842" lon="-105.230575">
  <ele>1586.09</ele>
  <time>2026-08-28T19:09:18Z</time>
  <course>0.0</course>
  <speed>0.0</speed>
  <fix>3d</fix>
</trkpt>
<trkpt lat="40.072842" lon="-105.230575">
  <ele>1586.09</ele>
  <time>2026-08-28T19:09:18Z</time>
  <course>3.8</course>
  <speed>0.0</speed>
  <fix>3d</fix>
</trkpt>
<trkpt lat="40.072842" lon="-105.230575">
  <ele>1586.09</ele>
  <time>2026-08-28T19:09:18Z</time>
  <course>0.0</course>
  <speed>0.0</speed>
  <fix>3d</fix>
</trkpt>
<trkpt lat="40.072842" lon="-105.230575">
  <ele>1586.09</ele>
  <time>2026-08-28T19:09:18Z</time>
  <course>4.43</course>
  <speed>0.0</speed>
  <fix>3d</fix>
</trkpt>
<trkpt lat="40.072842" lon="-105.230575">
  <ele>1586.09</ele>
  <time>2026-08-28T19:09:18Z</time>
  <course>0.0</course>
  <speed>0.0</speed>
  <fix>3d</fix>
</trkpt>
<trkpt lat="40.072842" lon="-105.230575">
  <ele>1586.09</ele>
  <time>2026-08-28T19:09:18Z</time>
  <course>5.03</course>
  <speed>0.0</speed>
  <fix>3d</fix>
</trkpt>
<trkpt lat="40.072842" lon="-105.230575">
  <ele>1586.09</ele>
  <time>2026-08-28T19:09:18Z</time>
  <course>0.0</course>
  <speed>0.0</speed>
  <fix>3d</fix>
</trkpt>
<trkpt lat="40.072842" lon="-105.230575">
  <ele>1586.09</ele>
  <time>2026-08-28T19:09:18Z</time>
  <course>5.59</course>
  <speed>0.0</speed>
  <fix>3d</fix>
</trkpt>
<trkpt lat="40.072842" lon="-105.230575">
  <ele>1586.09</ele>
  <time>2026-08-28T19:09:18Z</time>
  <course>0.0</course>
  <speed>0.0</speed>
  <fix>3d</fix>
</trkpt>
<trkpt lat="40.072842" lon="-105.230575">
  <ele>1586.09</ele>
  <time>2026-08-28T19:09:18Z</time>
  <course>6.11</course>
  <speed>0.0</speed>
  <fix>3d</fix>
</trkpt>
<trkpt lat="40.072842" lon="-105.230575">
  <ele>1586.09</ele>
  <time>2026-08-28T19:09:18Z</time>
  <course>0.0</course>
  <speed>0.0</speed>
  <fix>3d</fix>
</trkpt>
<trkpt lat="40.072842" lon="-105.230575">
  <ele>1586.09</ele>
  <time>2026-08-28T19:09:18Z</time>
  <course>6.61</course>
  <speed>0.0</speed>
  <fix>3d</fix>
</trkpt>
<trkpt lat="40.072842" lon="-105.230575">
  <ele>1586.09</ele>
  <time>2026-08-28T19:09:18Z</time>
  <course>0.0</course>
  <speed>0.0</speed>
  <fix>3d</fix>
</trkpt>
<trkpt lat="40.072842" lon="-105.230575">
  <ele>1586.09</ele>
  <time>2026-08-28T19:09:18Z</time>
  <course>7.07</course>
  <speed>0.0</speed>
  <fix>3d</fix>
</trkpt>
<trkpt lat="40.072842" lon="-105.230575">
  <ele>1586.09</ele>
  <time>2026-08-28T19:09:18Z</time>
  <course>0.0</course>
  <speed>0.0</speed>
  <fix>3d</fix>
</trkpt>
<trkpt lat="40.072842" lon="-105.230575">
  <ele>1586.09</ele>
  <time>2026-08-28T19:09:18Z</time>
  <course>7.49</course>
  <speed>0.0</speed>
  <fix>3d</fix>
</trkpt>
<trkpt lat="40.072842" lon="-105.230575">
  <ele>1586.09</ele>
  <time>2026-08-28T19:09:18Z</time>
  <course>0.0</course>
  <speed>0.0</speed>
  <fix>3d</fix>
</trkpt>
<trkpt lat="40.072842" lon="-105.230575">
  <ele>1586.09</ele>
  <time>2026-08-28T19:09:18Z</time>
  <course>7.89</course>
  <speed>0.0</speed>
  <fix>3d</fix>
</trkpt>
<trkpt lat="40.072842" lon="-105.230575">
  <ele>1586.09</ele>
  <time>2026-08-28T19:09:18Z</time>
  <course>0.0</course>
  <speed>0.0</speed>
  <fix>3d</fix>
</trkpt>
<trkpt lat="40.072842" lon="-105.230575">
  <ele>1586.09</ele>
  <time>2026-08-28T19:09:18Z</time>
  <course>8.26</course>
  <speed>0.0</speed>
  <fix>3d</fix>
</trkpt>
<trkpt lat="40.072842" lon="-105.230575">
  <ele>1586.09</ele>
  <time>2026-08-28T19:09:18Z</time>
  <course>0.0</course>
  <speed>0.0</speed>
  <fix>3d</fix>
</trkpt>
<trkpt lat="40.072842" lon="-105.230575">
  <ele>1586.09</ele>
  <time>2026-08-28T19:09:18Z</time>
  <course>8.6</course>
  <speed>0.0</speed>
  <fix>3d</fix>
</trkpt>
<trkpt lat="40.072842" lon="-105.230575">
  <ele>1586.09</ele>
  <time>2026-08-28T19:09:18Z</time>
  <course>0.0</course>
  <speed>0.0</speed>
  <fix>3d</fix>
</trkpt>
<trkpt lat="40.072842" lon="-105.230575">
  <ele>1586.09</ele>
  <time>2026-08-28T19:09:18Z</time>
  <course>8.91</course>
  <speed>0.0</speed>
  <fix>3d</fix>
</trkpt>
<trkpt lat="40.072842" lon="-105.230575">
  <ele>1586.09</ele>
  <time>2026-08-28T19:09:18Z</time>
  <course>0.0</course>
  <speed>0.0</speed>
  <fix>3d</fix>
</trkpt>
<trkpt lat="40.072842" lon="-105.230575">
  <ele>1586.09</ele>
  <time>2026-08-28T19:09:18Z</time>
  <course>9.2</course>
  <speed>0.0</speed>
  <fix>3d</fix>
</trkpt>
<trkpt lat="40.072842" lon="-105.230575">
  <ele>1586.09</ele>
  <time>2026-08-28T19:09:18Z</time>
  <course>0.0</course>
  <speed>0.0</speed>
  <fix>3d</fix>
</trkpt>
<trkpt lat="40.072842" lon="-105.230575">
  <ele>1586.09</ele>
  <time>2026-08-28T19:09:18Z</time>
  <course>9.46</course>
  <speed>0.0</speed>
  <fix>3d</fix>
</trkpt>
<trkpt lat="40.072842" lon="-105.230575">
  <ele>1586.09</ele>
  <time>2026-08-28T19:09:18Z</time>
  <course>0.0</course>
  <speed>0.0</speed>
  <fix>3d</fix>
</trkpt>
<trkpt lat="40.072842" lon="-105.230575">
  <ele>1586.09</ele>
  <time>2026-08-28T19:09:18Z</time>
  <course>9.71</course>
  <speed>0.0</speed>
  <fix>3d</fix>
</trkpt>
<trkpt lat="40.072842" lon="-105.230575">
  <ele>1586.09</ele>
  <time>2026-08-28T19:09:18Z</time>
  <course>0.0</course>
  <speed>0.0</speed>
  <fix>3d</fix>
</trkpt>
<trkpt lat="40.072842" lon="-105.230575">
  <ele>1586.09</ele>
  <time>2026-08-28T19:09:18Z</time>
  <course>9.93</course>
  <speed>0.0</speed>
  <fix>3d</fix>
</trkpt>
<trkpt lat="40.072842" lon="-105.230575">
  <ele>1586.09</ele>
  <time>2026-08-28T19:09:18Z</time>
  <course>0.0</course>
  <speed>0.0</speed>
  <fix>3d</fix>
</trkpt>
<trkpt lat="40.072842" lon="-105.230575">
  <ele>1586.09</ele>
  <time>2026-08-28T19:09:18Z</time>
  <course>10.14</course>
  <speed>0.0</speed>
  <fix>3d</fix>
</trkpt>
<trkpt lat="40.072842" lon="-105.230575">
  <ele>1586.09</ele>
  <time>2026-08-28T19:09:18Z</time>
  <course>0.0</course>
  <speed>0.0</speed>
  <fix>3d</fix>
</trkpt>
<trkpt lat="40.072842" lon="-105.230575">
  <ele>1586.09</ele>
  <time>2026-08-28T19:09:18Z</time>
  <course>10.33</course>
  <speed>0.0</speed>
  <fix>3d</fix>
</trkpt>
<trkpt lat="40.072842" lon="-105.230575">
  <ele>1586.09</ele>
  <time>2026-08-28T19:09:18Z</time>
  <course>0.0</course>
  <speed>0.0</speed>
  <fix>3d</fix>
</trkpt>
<trkpt lat="40.072842" lon="-105.230575">
  <ele>1586.09</ele>
  <time>2026-08-28T19:09:18Z</time>
  <course>10.5</course>
  <speed>0.0</speed>
  <fix>3d</fix>
</trkpt>
<trkpt lat="40.072842" lon="-105.230575">
  <ele>1586.09</ele>
  <time>2026-08-28T19:09:18Z</time>
  <course>0.0</course>
  <speed>0.0</speed>
  <fix>3d</fix>
</trkpt>
<trkpt lat="40.072842" lon="-105.230575">
  <ele>1586.09</ele>
  <time>2026-08-28T19:09:18Z</time>
  <course>10.66</course>
  <speed>0.0</speed>
  <fix>3d</fix>
</trkpt>
<trkpt lat="40.072842" lon="-105.230575">
  <ele>1586.09</ele>
  <time>2026-08-28T19:09:18Z</time>
  <course>0.0</course>
  <speed>0.0</speed>
  <fix>3d</fix>
</trkpt>
<trkpt lat="40.072842" lon="-105.230575">
  <ele>1586.09</ele>
  <time>2026-08-28T19:09:18Z</time>
  <course>10.8</course>
  <speed>0.0</speed>
  <fix>3d</fix>
</trkpt>
<trkpt lat="40.072842" lon="-105.230575">
  <ele>1586.09</ele>
  <time>2026-08-28T19:09:18Z</time>
  <course>0.0</course>
  <speed>0.0</speed>
  <fix>3d</fix>
</trkpt>
<trkpt lat="40.072842" lon="-105.230575">
  <ele>1586.09</ele>
  <time>2026-08-28T19:09:18Z</time>
  <course>10.93</course>
  <speed>0.0</speed>
  <fix>3d</fix>
</trkpt>
<trkpt lat="40.072842" lon="-105.230575">
  <ele>1586.09</ele>
  <time>2026-08-28T19:09:18Z</time>
  <course>0.0</course>
  <speed>0.0</speed>
  <fix>3d</fix>
</trkpt>
<trkpt lat="40.072842" lon="-105.230575">
  <ele>1586.09</ele>
  <time>2026-08-28T19:09:18Z</time>
  <course>11.06</course>
  <speed>0.0</speed>
  <fix>3d</fix>
</trkpt>
<trkpt lat="40.072842" lon="-105.230575">
  <ele>1586.09</ele>
  <time>2026-08-28T19:09:18Z</time>
  <course>0.0</course>
  <speed>0.0</speed>
  <fix>3d</fix>
</trkpt>
<trkpt lat="40.072842" lon="-105.230575">
  <ele>1586.09</ele>
  <time>2026-08-28T19:09:18Z</time>
  <course>11.16</course>
  <speed>0.0</speed>
  <fix>3d</fix>
</trkpt>
<trkpt lat="40.072842" lon="-105.230575">
  <ele>1586.09</ele>
  <time>2026-08-28T19:09:18Z</time>
  <course>0.0</course>
  <speed>0.0</speed>
  <fix>3d</fix>
</trkpt>
<trkpt lat="40.072842" lon="-105.230575">
  <ele>1586.09</ele>
  <time>2026-08-28T19:09:18Z</time>
  <course>11.27</course>
  <speed>0.0</speed>
  <fix>3d</fix>
</trkpt>
<trkpt lat="40.072842" lon="-105.230575">
  <ele>1586.09</ele>
  <time>2026-08-28T19:09:18Z</time>
  <course>0.0</course>
  <speed>0.0</speed>
  <fix>3d</fix>
</trkpt>
<trkpt lat="40.072842" lon="-105.230575">
  <ele>1586.09</ele>
  <time>2026-08-28T19:09:18Z</time>
  <course>11.36</course>
  <speed>0.0</speed>
  <fix>3d</fix>
</trkpt>
<trkpt lat="40.072842" lon="-105.230575">
  <ele>1586.09</ele>
  <time>2026-08-28T19:09:18Z</time>
  <course>0.0</course>
  <speed>0.0</speed>
  <fix>3d</fix>
</trkpt>
<trkpt lat="40.072842" lon="-105.230575">
  <ele>1586.09</ele>
  <time>2026-08-28T19:09:18Z</time>
  <course>11.44</course>
  <speed>0.0</speed>
  <fix>3d</fix>
</trkpt>
<trkpt lat="40.072842" lon="-105.230575">
  <ele>1586.09</ele>
  <time>2026-08-28T19:09:18Z</time>
  <course>0.0</course>
  <speed>0.0</speed>
  <fix>3d</fix>
</trkpt>
<trkpt lat="40.072842" lon="-105.230575">
  <ele>1586.09</ele>
  <time>2026-08-28T19:09:18Z</time>
  <course>11.52</course>
  <speed>0.0</speed>
  <fix>3d</fix>
</trkpt>
<trkpt lat="40.072842" lon="-105.230575">
  <ele>1586.09</ele>
  <time>2026-08-28T19:09:18Z</time>
  <course>0.0</course>
  <speed>0.0</speed>
  <fix>3d</fix>
</trkpt>
<trkpt lat="40.072842" lon="-105.230575">
  <ele>1586.09</ele>
  <time>2026-08-28T19:09:18Z</time>
  <course>11.58</course>
  <speed>0.0</speed>
  <fix>3d</fix>
</trkpt>
<trkpt lat="40.072842" lon="-105.230575">
  <ele>1586.09</ele>
  <time>2026-08-28T19:09:18Z</time>
  <course>0.0</course>
  <speed>0.0</speed>
  <fix>3d</fix>
</trkpt>
<trkpt lat="40.072842" lon="-105.230575">
  <ele>1586.09</ele>
  <time>2026-08-28T19:09:18Z</time>
  <course>11.65</course>
  <speed>0.0</speed>
  <fix>3d</fix>
</trkpt>
<trkpt lat="40.072842" lon="-105.230575">
  <ele>1586.09</ele>
  <time>2026-08-28T19:09:18Z</time>
  <course>0.0</course>
  <speed>0.0</speed>
  <fix>3d</fix>
</trkpt>
<trkpt lat="40.072842" lon="-105.230575">
  <ele>1586.09</ele>
  <time>2026-08-28T19:09:18Z</time>
  <course>11.71</course>
  <speed>0.0</speed>
  <fix>3d</fix>
</trkpt>
<trkpt lat="40.072842" lon="-105.230575">
  <ele>1586.09</ele>
  <time>2026-08-28T19:09:18Z</time>
  <course>0.0</course>
  <speed>0.0</speed>
  <fix>3d</fix>
</trkpt>
<trkpt lat="40.072842" lon="-105.230575">
  <ele>1586.09</ele>
  <time>2026-08-28T19:09:18Z</time>
  <course>11.76</course>
  <speed>0.0</speed>
  <fix>3d</fix>
</trkpt>
<trkpt lat="40.072842" lon="-105.230575">
  <ele>1586.09</ele>
  <time>2026-08-28T19:09:18Z</time>
  <course>0.0</course>
  <speed>0.0</speed>
  <fix>3d</fix>
</trkpt>
<trkpt lat="40.072842" lon="-105.230575">
  <ele>1586.09</ele>
  <time>2026-08-28T19:09:18Z</time>
  <course>11.81</course>
  <speed>0.0</speed>
  <fix>3d</fix>
</trkpt>
<trkpt lat="40.072842" lon="-105.230575">
  <ele>1586.09</ele>
  <time>2026-08-28T19:09:18Z</time>
  <course>0.0</course>
  <speed>0.0</speed>
  <fix>3d</fix>
</trkpt>
<trkpt lat="40.072842" lon="-105.230575">
  <ele>1586.09</ele>
  <time>2026-08-28T19:09:18Z</time>
  <course>11.85</course>
  <speed>0.0</speed>
  <fix>3d</fix>
</trkpt>
<trkpt lat="40.072842" lon="-105.230575">
  <ele>1586.09</ele>
  <time>2026-08-28T19:09:18Z</time>
  <course>0.0</course>
  <speed>0.0</speed>
  <fix>3d</fix>
</trkpt>
<trkpt lat="40.072842" lon="-105.230575">
  <ele>1586.09</ele>
  <time>2026-08-28T19:09:18Z</time>
  <course>11.89</course>
  <speed>0.0</speed>
  <fix>3d</fix>
</trkpt>
<trkpt lat="40.072842" lon="-105.230575">
  <ele>1586.09</ele>
  <time>2026-08-28T19:09:18Z</time>
  <course>0.0</course>
  <speed>0.0</speed>
  <fix>3d</fix>
</trkpt>
<trkpt lat="40.072842" lon="-105.230575">
  <ele>1586.09</ele>
  <time>2026-08-28T19:09:18Z</time>
  <course>11.92</course>
  <speed>0.0</speed>
  <fix>3d</fix>
</trkpt>
<trkpt lat="40.072842" lon="-105.230575">
  <ele>1586.09</ele>
  <time>2026-08-28T19:09:18Z</time>
  <course>0.0</course>
  <speed>0.0</speed>
  <fix>3d</fix>
</trkpt>
<trkpt lat="40.072842" lon="-105.230575">
  <ele>1586.09</ele>
  <time>2026-08-28T19:09:18Z</time>
  <course>11.95</course>
  <speed>0.0</speed>
  <fix>3d</fix>
</trkpt>
<trkpt lat="40.072842" lon="-105.230575">
  <ele>1586.09</ele>
  <time>2026-08-28T19:09:18Z</time>
  <course>0.0</course>
  <speed>0.0</speed>
  <fix>3d</fix>
</trkpt>
<trkpt lat="40.072842" lon="-105.230575">
  <ele>1586.09</ele>
  <time>2026-08-28T19:09:18Z</time>
  <course>11.97</course>
  <speed>0.0</speed>
  <fix>3d</fix>
</trkpt>
<trkpt lat="40.072842" lon="-105.230575">
  <ele>1586.09</ele>
  <time>2026-08-28T19:09:18Z</time>
  <course>0.0</course>
  <speed>0.0</speed>
  <fix>3d</fix>
</trkpt>
<trkpt lat="40.072842" lon="-105.230575">
  <ele>1586.09</ele>
  <time>2026-08-28T19:09:18Z</time>
  <course>12.0</course>
  <speed>0.0</speed>
  <fix>3d</fix>
</trkpt>
<trkpt lat="40.072842" lon="-105.230575">
  <ele>1586.09</ele>
  <time>2026-08-28T19:09:18Z</time>
  <course>0.0</course>
  <speed>0.0</speed>
  <fix>3d</fix>
</trkpt>
<trkpt lat="40.072842" lon="-105.230575">
  <ele>1586.09</ele>
  <time>2026-08-28T19:09:18Z</time>
  <course>12.02</course>
  <speed>0.0</speed>
  <fix>3d</fix>
</trkpt>
<trkpt lat="40.072842" lon="-105.230575">
  <ele>1586.09</ele>
  <time>2026-08-28T19:09:18Z</time>
  <course>0.0</course>
  <speed>0.0</speed>
  <fix>3d</fix>
</trkpt>
<trkpt lat="40.072842" lon="-105.230575">
  <ele>1586.09</ele>
  <time>2026-08-28T19:09:18Z</time>
  <course>12.04</course>
  <speed>0.0</speed>
  <fix>3d</fix>
</trkpt>
<trkpt lat="40.072842" lon="-105.230575">
  <ele>1586.09</ele>
  <time>2026-08-28T19:09:18Z</time>
  <course>0.0</course>
  <speed>0.0</speed>
  <fix>3d</fix>
</trkpt>
<trkpt lat="40.072842" lon="-105.230575">
  <ele>1586.09</ele>
  <time>2026-08-28T19:09:18Z</time>
  <course>12.05</course>
  <speed>0.0</speed>
  <fix>3d</fix>
</trkpt>
<trkpt lat="40.072842" lon="-105.230575">
  <ele>1586.09</ele>
  <time>2026-08-28T19:09:18Z</time>
  <course>0.0</course>
  <speed>0.0</speed>
  <fix>3d</fix>
</trkpt>
<trkpt lat="40.072842" lon="-105.230575">
  <ele>1586.09</ele>
  <time>2026-08-28T19:09:18Z</time>
  <course>12.07</course>
  <speed>0.0</speed>
  <fix>3d</fix>
</trkpt>
<trkpt lat="40.072842" lon="-105.230575">
  <ele>1586.09</ele>
  <time>2026-08-28T19:09:18Z</time>
  <course>0.0</course>
  <speed>0.0</speed>
  <fix>3d</fix>
</trkpt>
<trkpt lat="40.072842" lon="-105.230575">
  <ele>1586.09</ele>
  <time>2026-08-28T19:09:18Z</time>
  <course>12.08</course>
  <speed>0.0</speed>
  <fix>3d</fix>
</trkpt>
<trkpt lat="40.072842" lon="-105.230575">
  <ele>1586.09</ele>
  <time>2026-08-28T19:09:18Z</time>
  <course>0.0</course>
  <speed>0.0</speed>
  <fix>3d</fix>
</trkpt>
<trkpt lat="40.072842" lon="-105.230575">
  <ele>1586.09</ele>
  <time>2026-08-28T19:09:18Z</time>
  <course>12.09</course>
  <speed>0.0</speed>
  <fix>3d</fix>
</trkpt>
<trkpt lat="40.072842" lon="-105.230575">
  <ele>1586.09</ele>
  <time>2026-08-28T19:09:18Z</time>
  <course>0.0</course>
  <speed>0.0</speed>
  <fix>3d</fix>
</trkpt>
<trkpt lat="40.072842" lon="-105.230575">
  <ele>1586.09</ele>
  <time>2026-08-28T19:09:18Z</time>
  <course>12.1</course>
  <speed>0.0</speed>
  <fix>3d</fix>
</trkpt>
<trkpt lat="40.072842" lon="-105.230575">
  <ele>1586.09</ele>
  <time>2026-08-28T19:09:18Z</time>
  <course>0.0</course>
  <speed>0.0</speed>
  <fix>3d</fix>
</trkpt>
<trkpt lat="40.072842" lon="-105.230575">
  <ele>1586.09</ele>
  <time>2026-08-28T19:09:19Z</time>
  <course>12.1</course>
  <speed>0.0</speed>
  <fix>3d</fix>
</trkpt>
<trkpt lat="40.072842" lon="-105.230575">
  <ele>1586.09</ele>
  <time>2026-08-28T19:09:19Z</time>
  <course>0.0</course>
  <speed>0.0</speed>
  <fix>3d</fix>
</trkpt>
<trkpt lat="40.072842" lon="-105.230575">
  <ele>1586.09</ele>
  <time>2026-08-28T19:09:19Z</time>
  <course>12.11</course>
  <speed>0.0</speed>
  <fix>3d</fix>
</trkpt>
<trkpt lat="40.072842" lon="-105.230575">
  <ele>1586.09</ele>
  <time>2026-08-28T19:09:19Z</time>
  <course>0.0</course>
  <speed>0.0</speed>
  <fix>3d</fix>
</trkpt>
<trkpt lat="40.072842" lon="-105.230575">
  <ele>1586.09</ele>
  <time>2026-08-28T19:09:19Z</time>
  <course>12.11</course>
  <speed>0.0</speed>
  <fix>3d</fix>
</trkpt>
<trkpt lat="40.072842" lon="-105.230575">
  <ele>1586.09</ele>
  <time>2026-08-28T19:09:19Z</time>
  <course>0.0</course>
  <speed>0.0</speed>
  <fix>3d</fix>
</trkpt>
<trkpt lat="40.072842" lon="-105.230575">
  <ele>1586.09</ele>
  <time>2026-08-28T19:09:19Z</time>
  <course>12.12</course>
  <speed>0.0</speed>
  <fix>3d</fix>
</trkpt>
<trkpt lat="40.072842" lon="-105.230575">
  <ele>1586.09</ele>
  <time>2026-08-28T19:09:19Z</time>
  <course>0.0</course>
  <speed>0.0</speed>
  <fix>3d</fix>
</trkpt>
<trkpt lat="40.072842" lon="-105.230575">
  <ele>1586.09</ele>
  <time>2026-08-28T19:09:19Z</time>
  <course>12.12</course>
  <speed>0.0</speed>
  <fix>3d</fix>
</trkpt>
<trkpt lat="40.072842" lon="-105.230575">
  <ele>1586.09</ele>
  <time>2026-08-28T19:09:19Z</time>
  <course>0.0</course>
  <speed>0.0</speed>
  <fix>3d</fix>
</trkpt>
<trkpt lat="40.072842" lon="-105.230575">
  <ele>1586.09</ele>
  <time>2026-08-28T19:09:19Z</time>
  <course>12.12</course>
  <speed>0.0</speed>
  <fix>3d</fix>
</trkpt>
<trkpt lat="40.072842" lon="-105.230575">
  <ele>1586.09</ele>
  <time>2026-08-28T19:09:19Z</time>
  <course>0.0</course>
  <speed>0.0</speed>
  <fix>3d</fix>
</trkpt>
<trkpt lat="40.072842" lon="-105.230575">
  <ele>1586.09</ele>
  <time>2026-08-28T19:09:19Z</time>
  <course>12.12</course>
  <speed>0.0</speed>
  <fix>3d</fix>
</trkpt>
<trkpt lat="40.072842" lon="-105.230575">
  <ele>1586.09</ele>
  <time>2026-08-28T19:09:19Z</time>
  <course>0.0</course>
  <speed>0.0</speed>
  <fix>3d</fix>
</trkpt>
<trkpt lat="40.072842" lon="-105.230575">
  <ele>1586.09</ele>
  <time>2026-08-28T19:09:19Z</time>
  <course>12.12</course>
  <speed>0.0</speed>
  <fix>3d</fix>
</trkpt>
<trkpt lat="40.072842" lon="-105.230575">
  <ele>1586.09</ele>
  <time>2026-08-28T19:09:19Z</time>
  <course>0.0</course>
  <speed>0.0</speed>
  <fix>3d</fix>
</trkpt>
<trkpt lat="40.072842" lon="-105.230575">
  <ele>1586.09</ele>
  <time>2026-08-28T19:09:19Z</time>
  <course>12.12</course>
  <speed>0.01</speed>
  <fix>3d</fix>
</trkpt>
<trkpt lat="40.072842" lon="-105.230575">
  <ele>1586.09</ele>
  <time>2026-08-28T19:09:19Z</time>
  <course>0.0</course>
  <speed>0.0</speed>
  <fix>3d</fix>
</trkpt>
<trkpt lat="40.072842" lon="-105.230575">
  <ele>1586.09</ele>
  <time>2026-08-28T19:09:19Z</time>
  <course>12.12</course>
  <speed>0.01</speed>
  <fix>3d</fix>
</trkpt>
<trkpt lat="40.072842" lon="-105.230575">
  <ele>1586.09</ele>
  <time>2026-08-28T19:09:19Z</time>
  <course>0.0</course>
  <speed>0.0</speed>
  <fix>3d</fix>
</trkpt>
<trkpt lat="40.072842" lon="-105.230575">
  <ele>1586.09</ele>
  <time>2026-08-28T19:09:19Z</time>
  <course>12.12</course>
  <speed>0.01</speed>
  <fix>3d</fix>
</trkpt>
<trkpt lat="40.072842" lon="-105.230575">
  <ele>1586.09</ele>
  <time>2026-08-28T19:09:19Z</time>
  <course>0.0</course>
  <speed>0.0</speed>
  <fix>3d</fix>
</trkpt>
<trkpt lat="40.072842" lon="-105.230575">
  <ele>1586.09</ele>
  <time>2026-08-28T19:09:19Z</time>
  <course>12.11</course>
  <speed>0.01</speed>
  <fix>3d</fix>
</trkpt>
<trkpt lat="40.072842" lon="-105.230575">
  <ele>1586.09</ele>
  <time>2026-08-28T19:09:19Z</time>
  <course>0.0</course>
  <speed>0.0</speed>
  <fix>3d</fix>
</trkpt>
<trkpt lat="40.072842" lon="-105.230575">
  <ele>1586.09</ele>
  <time>2026-08-28T19:09:19Z</time>
  <course>12.11</course>
  <speed>0.01</speed>
  <fix>3d</fix>
</trkpt>
<trkpt lat="40.072842" lon="-105.230575">
  <ele>1586.09</ele>
  <time>2026-08-28T19:09:19Z</time>
  <course>0.0</course>
  <speed>0.0</speed>
  <fix>3d</fix>
</trkpt>
<trkpt lat="40.072842" lon="-105.230575">
  <ele>1586.09</ele>
  <time>2026-08-28T19:09:19Z</time>
  <course>12.11</course>
  <speed>0.01</speed>
  <fix>3d</fix>
</trkpt>
<trkpt lat="40.072842" lon="-105.230575">
  <ele>1586.09</ele>
  <time>2026-08-28T19:09:19Z</time>
  <course>0.0</course>
  <speed>0.0</speed>
  <fix>3d</fix>
</trkpt>
<trkpt lat="40.072842" lon="-105.230575">
  <ele>1586.09</ele>
  <time>2026-08-28T19:09:19Z</time>
  <course>12.1</course>
  <speed>0.01</speed>
  <fix>3d</fix>
</trkpt>
<trkpt lat="40.072842" lon="-105.230575">
  <ele>1586.09</ele>
  <time>2026-08-28T19:09:19Z</time>
  <course>0.0</course>
  <speed>0.0</speed>
  <fix>3d</fix>
</trkpt>
<trkpt lat="40.072842" lon="-105.230575">
  <ele>1586.09</ele>
  <time>2026-08-28T19:09:19Z</time>
  <course>12.1</course>
  <speed>0.01</speed>
  <fix>3d</fix>
</trkpt>
<trkpt lat="40.072842" lon="-105.230575">
  <ele>1586.09</ele>
  <time>2026-08-28T19:09:19Z</time>
  <course>0.0</course>
  <speed>0.0</speed>
  <fix>3d</fix>
</trkpt>
<trkpt lat="40.072842" lon="-105.230575">
  <ele>1586.09</ele>
  <time>2026-08-28T19:09:19Z</time>
  <course>12.09</course>
  <speed>0.01</speed>
  <fix>3d</fix>
</trkpt>
<trkpt lat="40.072842" lon="-105.230575">
  <ele>1586.09</ele>
  <time>2026-08-28T19:09:19Z</time>
  <course>0.0</course>
  <speed>0.0</speed>
  <fix>3d</fix>
</trkpt>
<trkpt lat="40.072842" lon="-105.230575">
  <ele>1586.09</ele>
  <time>2026-08-28T19:09:19Z</time>
  <course>12.09</course>
  <speed>0.01</speed>
  <fix>3d</fix>
</trkpt>
<trkpt lat="40.072842" lon="-105.230575">
  <ele>1586.09</ele>
  <time>2026-08-28T19:09:19Z</time>
  <course>0.0</course>
  <speed>0.0</speed>
  <fix>3d</fix>
</trkpt>
<trkpt lat="40.072842" lon="-105.230575">
  <ele>1586.09</ele>
  <time>2026-08-28T19:09:19Z</time>
  <course>12.08</course>
  <speed>0.01414213562373095</speed>
  <fix>3d</fix>
</trkpt>
<trkpt lat="40.072842" lon="-105.230575">
  <ele>1586.09</ele>
  <time>2026-08-28T19:09:19Z</time>
  <course>0.0</course>
  <speed>0.0</speed>
  <fix>3d</fix>
</trkpt>
<trkpt lat="40.072842" lon="-105.230575">
  <ele>1586.09</ele>
  <time>2026-08-28T19:09:19Z</time>
  <course>12.07</course>
  <speed>0.01414213562373095</speed>
  <fix>3d</fix>
</trkpt>
<trkpt lat="40.072842" lon="-105.230575">
  <ele>1586.09</ele>
  <time>2026-08-28T19:09:19Z</time>
  <course>0.0</course>
  <speed>0.0</speed>
  <fix>3d</fix>
</trkpt>
<trkpt lat="40.072842" lon="-105.230575">
  <ele>1586.09</ele>
  <time>2026-08-28T19:09:19Z</time>
  <course>12.07</course>
  <speed>0.01414213562373095</speed>
  <fix>3d</fix>
</trkpt>
<trkpt lat="40.072842" lon="-105.230575">
  <ele>1586.09</ele>
  <time>2026-08-28T19:09:19Z</time>
  <course>0.0</course>
  <speed>0.0</speed>
  <fix>3d</fix>
</trkpt>
<trkpt lat="40.072842" lon="-105.230575">
  <ele>1586.09</ele>
  <time>2026-08-28T19:09:19Z</time>
  <course>12.06</course>
  <speed>0.01414213562373095</speed>
  <fix>3d</fix>
</trkpt>
<trkpt lat="40.072842" lon="-105.230575">
  <ele>1586.09</ele>
  <time>2026-08-28T19:09:19Z</time>
  <course>0.0</course>
  <speed>0.0</speed>
  <fix>3d</fix>
</trkpt>
<trkpt lat="40.072842" lon="-105.230575">
  <ele>1586.09</ele>
  <time>2026-08-28T19:09:19Z</time>
  <course>12.05</course>
  <speed>0.01414213562373095</speed>
  <fix>3d</fix>
</trkpt>
<trkpt lat="40.072842" lon="-105.230575">
  <ele>1586.09</ele>
  <time>2026-08-28T19:09:19Z</time>
  <course>0.0</course>
  <speed>0.0</speed>
  <fix>3d</fix>
</trkpt>
<trkpt lat="40.072842" lon="-105.230575">
  <ele>1586.09</ele>
  <time>2026-08-28T19:09:19Z</time>
  <course>12.05</course>
  <speed>0.01414213562373095</speed>
  <fix>3d</fix>
</trkpt>
<trkpt lat="40.072842" lon="-105.230575">
  <ele>1586.09</ele>
  <time>2026-08-28T19:09:19Z</time>
  <course>0.0</course>
  <speed>0.0</speed>
  <fix>3d</fix>
</trkpt>
<trkpt lat="40.072842" lon="-105.230575">
  <ele>1586.09</ele>
  <time>2026-08-28T19:09:19Z</time>
  <course>12.04</course>
  <speed>0.01414213562373095</speed>
  <fix>3d</fix>
</trkpt>
<trkpt lat="40.072842" lon="-105.230575">
  <ele>1586.09</ele>
  <time>2026-08-28T19:09:19Z</time>
  <course>0.0</course>
  <speed>0.0</speed>
  <fix>3d</fix>
</trkpt>
<trkpt lat="40.072842" lon="-105.230575">
  <ele>1586.09</ele>
  <time>2026-08-28T19:09:19Z</time>
  <course>12.03</course>
  <speed>0.01414213562373095</speed>
  <fix>3d</fix>
</trkpt>
<trkpt lat="40.072842" lon="-105.230575">
  <ele>1586.09</ele>
  <time>2026-08-28T19:09:19Z</time>
  <course>0.0</course>
  <speed>0.0</speed>
  <fix>3d</fix>
</trkpt>
<trkpt lat="40.072842" lon="-105.230575">
  <ele>1586.09</ele>
  <time>2026-08-28T19:09:19Z</time>
  <course>12.02</course>
  <speed>0.01414213562373095</speed>
  <fix>3d</fix>
</trkpt>
<trkpt lat="40.072842" lon="-105.230575">
  <ele>1586.09</ele>
  <time>2026-08-28T19:09:19Z</time>
  <course>0.0</course>
  <speed>0.0</speed>
  <fix>3d</fix>
</trkpt>
<trkpt lat="40.072842" lon="-105.230575">
  <ele>1586.09</ele>
  <time>2026-08-28T19:09:19Z</time>
  <course>12.02</course>
  <speed>0.01414213562373095</speed>
  <fix>3d</fix>
</trkpt>
<trkpt lat="40.072842" lon="-105.230575">
  <ele>1586.09</ele>
  <time>2026-08-28T19:09:19Z</time>
  <course>0.0</course>
  <speed>0.0</speed>
  <fix>3d</fix>
</trkpt>
<trkpt lat="40.072842" lon="-105.230575">
  <ele>1586.09</ele>
  <time>2026-08-28T19:09:19Z</time>
  <course>12.01</course>
  <speed>0.01414213562373095</speed>
  <fix>3d</fix>
</trkpt>
<trkpt lat="40.072842" lon="-105.230575">
  <ele>1586.09</ele>
  <time>2026-08-28T19:09:19Z</time>
  <course>0.0</course>
  <speed>0.0</speed>
  <fix>3d</fix>
</trkpt>
<trkpt lat="40.072842" lon="-105.230575">
  <ele>1586.09</ele>
  <time>2026-08-28T19:09:19Z</time>
  <course>12.0</course>
  <speed>0.01414213562373095</speed>
  <fix>3d</fix>
</trkpt>
<trkpt lat="40.072842" lon="-105.230575">
  <ele>1586.09</ele>
  <time>2026-08-28T19:09:19Z</time>
  <course>0.0</course>
  <speed>0.0</speed>
  <fix>3d</fix>
</trkpt>
<trkpt lat="40.072842" lon="-105.230575">
  <ele>1586.09</ele>
  <time>2026-08-28T19:09:19Z</time>
  <course>11.99</course>
  <speed>0.01414213562373095</speed>
  <fix>3d</fix>
</trkpt>
<trkpt lat="40.072842" lon="-105.230575">
  <ele>1586.09</ele>
  <time>2026-08-28T19:09:19Z</time>
  <course>0.0</course>
  <speed>0.0</speed>
  <fix>3d</fix>
</trkpt>
<trkpt lat="40.072842" lon="-105.230575">
  <ele>1586.09</ele>
  <time>2026-08-28T19:09:19Z</time>
  <course>11.99</course>
  <speed>0.01414213562373095</speed>
  <fix>3d</fix>
</trkpt>
<trkpt lat="40.072842" lon="-105.230575">
  <ele>1586.09</ele>
  <time>2026-08-28T19:09:19Z</time>
  <course>0.0</course>
  <speed>0.0</speed>
  <fix>3d</fix>
</trkpt>
<trkpt lat="40.072842" lon="-105.230575">
  <ele>1586.09</ele>
  <time>2026-08-28T19:09:19Z</time>
  <course>11.98</course>
  <speed>0.01414213562373095</speed>
  <fix>3d</fix>
</trkpt>
<trkpt lat="40.072842" lon="-105.230575">
  <ele>1586.09</ele>
  <time>2026-08-28T19:09:19Z</time>
  <course>0.0</course>
  <speed>0.0</speed>
  <fix>3d</fix>
</trkpt>
<trkpt lat="40.072842" lon="-105.230575">
  <ele>1586.09</ele>
  <time>2026-08-28T19:09:19Z</time>
  <course>11.97</course>
  <speed>0.01414213562373095</speed>
  <fix>3d</fix>
</trkpt>
<trkpt lat="40.072842" lon="-105.230575">
  <ele>1586.09</ele>
  <time>2026-08-28T19:09:19Z</time>
  <course>0.0</course>
  <speed>0.0</speed>
  <fix>3d</fix>
</trkpt>
<trkpt lat="40.072842" lon="-105.230575">
  <ele>1586.09</ele>
  <time>2026-08-28T19:09:19Z</time>
  <course>11.96</course>
  <speed>0.01414213562373095</speed>
  <fix>3d</fix>
</trkpt>
<trkpt lat="40.072842" lon="-105.230575">
  <ele>1586.09</ele>
  <time>2026-08-28T19:09:19Z</time>
  <course>0.0</course>
  <speed>0.0</speed>
  <fix>3d</fix>
</trkpt>
<trkpt lat="40.072842" lon="-105.230575">
  <ele>1586.09</ele>
  <time>2026-08-28T19:09:19Z</time>
  <course>11.95</course>
  <speed>0.022360679774997897</speed>
  <fix>3d</fix>
</trkpt>
<trkpt lat="40.072842" lon="-105.230575">
  <ele>1586.09</ele>
  <time>2026-08-28T19:09:19Z</time>
  <course>0.0</course>
  <speed>0.0</speed>
  <fix>3d</fix>
</trkpt>
<trkpt lat="40.072842" lon="-105.230575">
  <ele>1586.09</ele>
  <time>2026-08-28T19:09:19Z</time>
  <course>11.95</course>
  <speed>0.022360679774997897</speed>
  <fix>3d</fix>
</trkpt>
<trkpt lat="40.072842" lon="-105.230575">
  <ele>1586.09</ele>
  <time>2026-08-28T19:09:19Z</time>
  <course>0.0</course>
  <speed>0.0</speed>
  <fix>3d</fix>
</trkpt>
<trkpt lat="40.072842" lon="-105.230575">
  <ele>1586.09</ele>
  <time>2026-08-28T19:09:19Z</time>
  <course>11.94</course>
  <speed>0.022360679774997897</speed>
  <fix>3d</fix>
</trkpt>
<trkpt lat="40.072842" lon="-105.230575">
  <ele>1586.09</ele>
  <time>2026-08-28T19:09:19Z</time>
  <course>0.0</course>
  <speed>0.0</speed>
  <fix>3d</fix>
</trkpt>
<trkpt lat="40.072842" lon="-105.230575">
  <ele>1586.09</ele>
  <time>2026-08-28T19:09:19Z</time>
  <course>11.93</course>
  <speed>0.022360679774997897</speed>
  <fix>3d</fix>
</trkpt>
<trkpt lat="40.072842" lon="-105.230575">
  <ele>1586.09</ele>
  <time>2026-08-28T19:09:19Z</time>
  <course>0.0</course>
  <speed>0.0</speed>
  <fix>3d</fix>
</trkpt>
<trkpt lat="40.072842" lon="-105.230575">
  <ele>1586.09</ele>
  <time>2026-08-28T19:09:19Z</time>
  <course>11.92</course>
  <speed>0.022360679774997897</speed>
  <fix>3d</fix>
</trkpt>
<trkpt lat="40.072842" lon="-105.230575">
  <ele>1586.09</ele>
  <time>2026-08-28T19:09:19Z</time>
  <course>0.0</course>
  <speed>0.0</speed>
  <fix>3d</fix>
</trkpt>
<trkpt lat="40.072842" lon="-105.230575">
  <ele>1586.09</ele>
  <time>2026-08-28T19:09:19Z</time>
  <course>11.91</course>
  <speed>0.022360679774997897</speed>
  <fix>3d</fix>
</trkpt>
<trkpt lat="40.072842" lon="-105.230575">
  <ele>1586.09</ele>
  <time>2026-08-28T19:09:19Z</time>
  <course>0.0</course>
  <speed>0.0</speed>
  <fix>3d</fix>
</trkpt>
<trkpt lat="40.072842" lon="-105.230575">
  <ele>1586.09</ele>
  <time>2026-08-28T19:09:19Z</time>
  <course>11.91</course>
  <speed>0.022360679774997897</speed>
  <fix>3d</fix>
</trkpt>
<trkpt lat="40.072842" lon="-105.230575">
  <ele>1586.09</ele>
  <time>2026-08-28T19:09:19Z</time>
  <course>0.0</course>
  <speed>0.0</speed>
  <fix>3d</fix>
</trkpt>
<trkpt lat="40.072842" lon="-105.230575">
  <ele>1586.09</ele>
  <time>2026-08-28T19:09:19Z</time>
  <course>11.9</course>
  <speed>0.022360679774997897</speed>
  <fix>3d</fix>
</trkpt>
<trkpt lat="40.072842" lon="-105.230575">
  <ele>1586.09</ele>
  <time>2026-08-28T19:09:19Z</time>
  <course>0.0</course>
  <speed>0.0</speed>
  <fix>3d</fix>
</trkpt>
<trkpt lat="40.072842" lon="-105.230575">
  <ele>1586.09</ele>
  <time>2026-08-28T19:09:19Z</time>
  <course>11.89</course>
  <speed>0.022360679774997897</speed>
  <fix>3d</fix>
</trkpt>
<trkpt lat="40.072842" lon="-105.230575">
  <ele>1586.09</ele>
  <time>2026-08-28T19:09:19Z</time>
  <course>0.0</course>
  <speed>0.0</speed>
  <fix>3d</fix>
</trkpt>
<trkpt lat="40.072842" lon="-105.230575">
  <ele>1586.09</ele>
  <time>2026-08-28T19:09:19Z</time>
  <course>11.88</course>
  <speed>0.022360679774997897</speed>
  <fix>3d</fix>
</trkpt>
<trkpt lat="40.072842" lon="-105.230575">
  <ele>1586.09</ele>
  <time>2026-08-28T19:09:19Z</time>
  <course>0.0</course>
  <speed>0.0</speed>
  <fix>3d</fix>
</trkpt>
<trkpt lat="40.072842" lon="-105.230575">
  <ele>1586.09</ele>
  <time>2026-08-28T19:09:19Z</time>
  <course>11.87</course>
  <speed>0.022360679774997897</speed>
  <fix>3d</fix>
</trkpt>
<trkpt lat="40.072842" lon="-105.230575">
  <ele>1586.09</ele>
  <time>2026-08-28T19:09:19Z</time>
  <course>0.0</course>
  <speed>0.0</speed>
  <fix>3d</fix>
</trkpt>
<trkpt lat="40.072842" lon="-105.230575">
  <ele>1586.09</ele>
  <time>2026-08-28T19:09:19Z</time>
  <course>11.86</course>
  <speed>0.022360679774997897</speed>
  <fix>3d</fix>
</trkpt>
<trkpt lat="40.072842" lon="-105.230575">
  <ele>1586.09</ele>
  <time>2026-08-28T19:09:19Z</time>
  <course>0.0</course>
  <speed>0.0</speed>
  <fix>3d</fix>
</trkpt>
<trkpt lat="40.072842" lon="-105.230575">
  <ele>1586.09</ele>
  <time>2026-08-28T19:09:19Z</time>
  <course>11.86</course>
  <speed>0.022360679774997897</speed>
  <fix>3d</fix>
</trkpt>
<trkpt lat="40.072842" lon="-105.230575">
  <ele>1586.09</ele>
  <time>2026-08-28T19:09:19Z</time>
  <course>0.0</course>
  <speed>0.0</speed>
  <fix>3d</fix>
</trkpt>
<trkpt lat="40.072842" lon="-105.230575">
  <ele>1586.09</ele>
  <time>2026-08-28T19:09:19Z</time>
  <course>11.85</course>
  <speed>0.022360679774997897</speed>
  <fix>3d</fix>
</trkpt>
<trkpt lat="40.072842" lon="-105.230575">
  <ele>1586.09</ele>
  <time>2026-08-28T19:09:19Z</time>
  <course>0.0</course>
  <speed>0.0</speed>
  <fix>3d</fix>
</trkpt>
<trkpt lat="40.072842" lon="-105.230575">
  <ele>1586.09</ele>
  <time>2026-08-28T19:09:19Z</time>
  <course>11.84</course>
  <speed>0.022360679774997897</speed>
  <fix>3d</fix>
</trkpt>
<trkpt lat="40.072842" lon="-105.230575">
  <ele>1586.09</ele>
  <time>2026-08-28T19:09:19Z</time>
  <course>0.0</course>
  <speed>0.0</speed>
  <fix>3d</fix>
</trkpt>
<trkpt lat="40.072842" lon="-105.230575">
  <ele>1586.09</ele>
  <time>2026-08-28T19:09:19Z</time>
  <course>11.83</course>
  <speed>0.022360679774997897</speed>
  <fix>3d</fix>
</trkpt>
<trkpt lat="40.072842" lon="-105.230575">
  <ele>1586.09</ele>
  <time>2026-08-28T19:09:19Z</time>
  <course>0.0</course>
  <speed>0.0</speed>
  <fix>3d</fix>
</trkpt>
<trkpt lat="40.072842" lon="-105.230575">
  <ele>1586.09</ele>
  <time>2026-08-28T19:09:19Z</time>
  <course>11.82</course>
  <speed>0.022360679774997897</speed>
  <fix>3d</fix>
</trkpt>
<trkpt lat="40.072842" lon="-105.230575">
  <ele>1586.09</ele>
  <time>2026-08-28T19:09:19Z</time>
  <course>0.0</course>
  <speed>0.0</speed>
  <fix>3d</fix>
</trkpt>
<trkpt lat="40.072842" lon="-105.230575">
  <ele>1586.09</ele>
  <time>2026-08-28T19:09:19Z</time>
  <course>11.82</course>
  <speed>0.0282842712474619</speed>
  <fix>3d</fix>
</trkpt>
<trkpt lat="40.072842" lon="-105.230575">
  <ele>1586.09</ele>
  <time>2026-08-28T19:09:19Z</time>
  <course>0.0</course>
  <speed>0.0</speed>
  <fix>3d</fix>
</trkpt>
<trkpt lat="40.072842" lon="-105.230575">
  <ele>1586.09</ele>
  <time>2026-08-28T19:09:19Z</time>
  <course>11.81</course>
  <speed>0.0282842712474619</speed>
  <fix>3d</fix>
</trkpt>
<trkpt lat="40.072842" lon="-105.230575">
  <ele>1586.09</ele>
  <time>2026-08-28T19:09:19Z</time>
  <course>0.0</course>
  <speed>0.0</speed>
  <fix>3d</fix>
</trkpt>
<trkpt lat="40.072842" lon="-105.230575">
  <ele>1586.09</ele>
  <time>2026-08-28T19:09:19Z</time>
  <course>11.8</course>
  <speed>0.0282842712474619</speed>
  <fix>3d</fix>
</trkpt>
<trkpt lat="40.072842" lon="-105.230575">
  <ele>1586.09</ele>
  <time>2026-08-28T19:09:19Z</time>
  <course>0.0</course>
  <speed>0.0</speed>
  <fix>3d</fix>
</trkpt>
<trkpt lat="40.072842" lon="-105.230575">
  <ele>1586.09</ele>
  <time>2026-08-28T19:09:19Z</time>
  <course>11.79</course>
  <speed>0.0282842712474619</speed>
  <fix>3d</fix>
</trkpt>
<trkpt lat="40.072842" lon="-105.230575">
  <ele>1586.09</ele>
  <time>2026-08-28T19:09:19Z</time>
  <course>0.0</course>
  <speed>0.0</speed>
  <fix>3d</fix>
</trkpt>
<trkpt lat="40.072842" lon="-105.230575">
  <ele>1586.09</ele>
  <time>2026-08-28T19:09:19Z</time>
  <course>11.78</course>
  <speed>0.0282842712474619</speed>
  <fix>3d</fix>
</trkpt>
<trkpt lat="40.072842" lon="-105.230575">
  <ele>1586.09</ele>
  <time>2026-08-28T19:09:19Z</time>
  <course>0.0</course>
  <speed>0.0</speed>
  <fix>3d</fix>
</trkpt>
<trkpt lat="40.072842" lon="-105.230575">
  <ele>1586.09</ele>
  <time>2026-08-28T19:09:19Z</time>
  <course>11.78</course>
  <speed>0.0282842712474619</speed>
  <fix>3d</fix>
</trkpt>
<trkpt lat="40.072842" lon="-105.230575">
  <ele>1586.09</ele>
  <time>2026-08-28T19:09:19Z</time>
  <course>0.0</course>
  <speed>0.0</speed>
  <fix>3d</fix>
</trkpt>
<trkpt lat="40.072842" lon="-105.230575">
  <ele>1586.09</ele>
  <time>2026-08-28T19:09:19Z</time>
  <course>11.77</course>
  <speed>0.0282842712474619</speed>
  <fix>3d</fix>
</trkpt>
<trkpt lat="40.072842" lon="-105.230575">
  <ele>1586.09</ele>
  <time>2026-08-28T19:09:19Z</time>
  <course>0.0</course>
  <speed>0.0</speed>
  <fix>3d</fix>
</trkpt>
<trkpt lat="40.072842" lon="-105.230575">
  <ele>1586.09</ele>
  <time>2026-08-28T19:09:19Z</time>
  <course>11.76</course>
  <speed>0.0282842712474619</speed>
  <fix>3d</fix>
</trkpt>
<trkpt lat="40.072842" lon="-105.230575">
  <ele>1586.09</ele>
  <time>2026-08-28T19:09:19Z</time>
  <course>0.0</course>
  <speed>0.0</speed>
  <fix>3d</fix>
</trkpt>
<trkpt lat="40.072842" lon="-105.230575">
  <ele>1586.09</ele>
  <time>2026-08-28T19:09:19Z</time>
  <course>11.76</course>
  <speed>0.0282842712474619</speed>
  <fix>3d</fix>
</trkpt>
<trkpt lat="40.072842" lon="-105.230575">
  <ele>1586.09</ele>
  <time>2026-08-28T19:09:19Z</time>
  <course>0.0</course>
  <speed>0.0</speed>
  <fix>3d</fix>
</trkpt>
<trkpt lat="40.072842" lon="-105.230575">
  <ele>1586.09</ele>
  <time>2026-08-28T19:09:19Z</time>
  <course>11.75</course>
  <speed>0.0282842712474619</speed>
  <fix>3d</fix>
</trkpt>
<trkpt lat="40.072842" lon="-105.230575">
  <ele>1586.09</ele>
  <time>2026-08-28T19:09:19Z</time>
  <course>0.0</course>
  <speed>0.0</speed>
  <fix>3d</fix>
</trkpt>
<trkpt lat="40.072842" lon="-105.230575">
  <ele>1586.09</ele>
  <time>2026-08-28T19:09:19Z</time>
  <course>11.74</course>
  <speed>0.0282842712474619</speed>
  <fix>3d</fix>
</trkpt>
<trkpt lat="40.072842" lon="-105.230575">
  <ele>1586.09</ele>
  <time>2026-08-28T19:09:19Z</time>
  <course>0.0</course>
  <speed>0.0</speed>
  <fix>3d</fix>
</trkpt>
<trkpt lat="40.072842" lon="-105.230575">
  <ele>1586.09</ele>
  <time>2026-08-28T19:09:19Z</time>
  <course>11.73</course>
  <speed>0.03605551275463989</speed>
  <fix>3d</fix>
</trkpt>
<trkpt lat="40.072842" lon="-105.230575">
  <ele>1586.09</ele>
  <time>2026-08-28T19:09:19Z</time>
  <course>0.0</course>
  <speed>0.0</speed>
  <fix>3d</fix>
</trkpt>
<trkpt lat="40.072842" lon="-105.230575">
  <ele>1586.09</ele>
  <time>2026-08-28T19:09:19Z</time>
  <course>11.73</course>
  <speed>0.03605551275463989</speed>
  <fix>3d</fix>
</trkpt>
<trkpt lat="40.072842" lon="-105.230575">
  <ele>1586.09</ele>
  <time>2026-08-28T19:09:19Z</time>
  <course>0.0</course>
  <speed>0.0</speed>
  <fix>3d</fix>
</trkpt>
<trkpt lat="40.072842" lon="-105.230575">
  <ele>1586.09</ele>
  <time>2026-08-28T19:09:19Z</time>
  <course>11.72</course>
  <speed>0.03605551275463989</speed>
  <fix>3d</fix>
</trkpt>
<trkpt lat="40.072842" lon="-105.230575">
  <ele>1586.09</ele>
  <time>2026-08-28T19:09:19Z</time>
  <course>0.0</course>
  <speed>0.0</speed>
  <fix>3d</fix>
</trkpt>
<trkpt lat="40.072842" lon="-105.230575">
  <ele>1586.09</ele>
  <time>2026-08-28T19:09:19Z</time>
  <course>11.71</course>
  <speed>0.03605551275463989</speed>
  <fix>3d</fix>
</trkpt>
<trkpt lat="40.072842" lon="-105.230575">
  <ele>1586.09</ele>
  <time>2026-08-28T19:09:19Z</time>
  <course>0.0</course>
  <speed>0.0</speed>
  <fix>3d</fix>
</trkpt>
<trkpt lat="40.072842" lon="-105.230575">
  <ele>1586.09</ele>
  <time>2026-08-28T19:09:19Z</time>
  <course>11.7</course>
  <speed>0.03605551275463989</speed>
  <fix>3d</fix>
</trkpt>
<trkpt lat="40.072842" lon="-105.230575">
  <ele>1586.09</ele>
  <time>2026-08-28T19:09:19Z</time>
  <course>0.0</course>
  <speed>0.0</speed>
  <fix>3d</fix>
</trkpt>
<trkpt lat="40.072842" lon="-105.230575">
  <ele>1586.09</ele>
  <time>2026-08-28T19:09:19Z</time>
  <course>11.7</course>
  <speed>0.03605551275463989</speed>
  <fix>3d</fix>
</trkpt>
<trkpt lat="40.072842" lon="-105.230575">
  <ele>1586.09</ele>
  <time>2026-08-28T19:09:19Z</time>
  <course>0.0</course>
  <speed>0.0</speed>
  <fix>3d</fix>
</trkpt>
<trkpt lat="40.072842" lon="-105.230575">
  <ele>1586.09</ele>
  <time>2026-08-28T19:09:19Z</time>
  <course>11.69</course>
  <speed>0.03605551275463989</speed>
  <fix>3d</fix>
</trkpt>
<trkpt lat="40.072842" lon="-105.230575">
  <ele>1586.09</ele>
  <time>2026-08-28T19:09:19Z</time>
  <course>0.0</course>
  <speed>0.0</speed>
  <fix>3d</fix>
</trkpt>
<trkpt lat="40.072842" lon="-105.230575">
  <ele>1586.09</ele>
  <time>2026-08-28T19:09:19Z</time>
  <course>11.68</course>
  <speed>0.03605551275463989</speed>
  <fix>3d</fix>
</trkpt>
<trkpt lat="40.072842" lon="-105.230575">
  <ele>1586.09</ele>
  <time>2026-08-28T19:09:19Z</time>
  <course>0.0</course>
  <speed>0.0</speed>
  <fix>3d</fix>
</trkpt>
<trkpt lat="40.072842" lon="-105.230575">
  <ele>1586.09</ele>
  <time>2026-08-28T19:09:19Z</time>
  <course>11.67</course>
  <speed>0.03605551275463989</speed>
  <fix>3d</fix>
</trkpt>
<trkpt lat="40.072842" lon="-105.230575">
  <ele>1586.09</ele>
  <time>2026-08-28T19:09:19Z</time>
  <course>0.0</course>
  <speed>0.0</speed>
  <fix>3d</fix>
</trkpt>
<trkpt lat="40.072842" lon="-105.230575">
  <ele>1586.09</ele>
  <time>2026-08-28T19:09:19Z</time>
  <course>11.67</course>
  <speed>0.03605551275463989</speed>
  <fix>3d</fix>
</trkpt>
<trkpt lat="40.072842" lon="-105.230575">
  <ele>1586.09</ele>
  <time>2026-08-28T19:09:19Z</time>
  <course>0.0</course>
  <speed>0.0</speed>
  <fix>3d</fix>
</trkpt>
<trkpt lat="40.072842" lon="-105.230575">
  <ele>1586.09</ele>
  <time>2026-08-28T19:09:19Z</time>
  <course>11.66</course>
  <speed>0.03605551275463989</speed>
  <fix>3d</fix>
</trkpt>
<trkpt lat="40.072842" lon="-105.230575">
  <ele>1586.09</ele>
  <time>2026-08-28T19:09:19Z</time>
  <course>0.0</course>
  <speed>0.0</speed>
  <fix>3d</fix>
</trkpt>
<trkpt lat="40.072842" lon="-105.230575">
  <ele>1586.09</ele>
  <time>2026-08-28T19:09:19Z</time>
  <course>11.65</course>
  <speed>0.03605551275463989</speed>
  <fix>3d</fix>
</trkpt>
<trkpt lat="40.072842" lon="-105.230575">
  <ele>1586.09</ele>
  <time>2026-08-28T19:09:19Z</time>
  <course>0.0</course>
  <speed>0.0</speed>
  <fix>3d</fix>
</trkpt>
<trkpt lat="40.072842" lon="-105.230575">
  <ele>1586.09</ele>
  <time>2026-08-28T19:09:19Z</time>
  <course>11.65</course>
  <speed>0.03605551275463989</speed>
  <fix>3d</fix>
</trkpt>
<trkpt lat="40.072842" lon="-105.230575">
  <ele>1586.09</ele>
  <time>2026-08-28T19:09:19Z</time>
  <course>0.0</course>
  <speed>0.0</speed>
  <fix>3d</fix>
</trkpt>
<trkpt lat="40.072842" lon="-105.230575">
  <ele>1586.09</ele>
  <time>2026-08-28T19:09:19Z</time>
  <course>11.64</course>
  <speed>0.03605551275463989</speed>
  <fix>3d</fix>
</trkpt>
<trkpt lat="40.072842" lon="-105.230575">
  <ele>1586.09</ele>
  <time>2026-08-28T19:09:19Z</time>
  <course>0.0</course>
  <speed>0.0</speed>
  <fix>3d</fix>
</trkpt>
<trkpt lat="40.072842" lon="-105.230575">
  <ele>1586.09</ele>
  <time>2026-08-28T19:09:19Z</time>
  <course>11.63</course>
  <speed>0.03605551275463989</speed>
  <fix>3d</fix>
</trkpt>
<trkpt lat="40.072842" lon="-105.230575">
  <ele>1586.09</ele>
  <time>2026-08-28T19:09:19Z</time>
  <course>0.0</course>
  <speed>0.0</speed>
  <fix>3d</fix>
</trkpt>
<trkpt lat="40.072842" lon="-105.230575">
  <ele>1586.09</ele>
  <time>2026-08-28T19:09:19Z</time>
  <course>11.63</course>
  <speed>0.03605551275463989</speed>
  <fix>3d</fix>
</trkpt>
<trkpt lat="40.072842" lon="-105.230575">
  <ele>1586.09</ele>
  <time>2026-08-28T19:09:19Z</time>
  <course>0.0</course>
  <speed>0.0</speed>
  <fix>3d</fix>
</trkpt>
<trkpt lat="40.072842" lon="-105.230575">
  <ele>1586.09</ele>
  <time>2026-08-28T19:09:19Z</time>
  <course>11.62</course>
  <speed>0.03605551275463989</speed>
  <fix>3d</fix>
</trkpt>
<trkpt lat="40.072842" lon="-105.230575">
  <ele>1586.09</ele>
  <time>2026-08-28T19:09:19Z</time>
  <course>0.0</course>
  <speed>0.0</speed>
  <fix>3d</fix>
</trkpt>
<trkpt lat="40.072842" lon="-105.230575">
  <ele>1586.09</ele>
  <time>2026-08-28T19:09:19Z</time>
  <course>11.61</course>
  <speed>0.03605551275463989</speed>
  <fix>3d</fix>
</trkpt>
<trkpt lat="40.072842" lon="-105.230575">
  <ele>1586.09</ele>
  <time>2026-08-28T19:09:19Z</time>
  <course>0.0</course>
  <speed>0.0</speed>
  <fix>3d</fix>
</trkpt>
<trkpt lat="40.072842" lon="-105.230575">
  <ele>1586.09</ele>
  <time>2026-08-28T19:09:19Z</time>
  <course>11.61</course>
  <speed>0.03605551275463989</speed>
  <fix>3d</fix>
</trkpt>
<trkpt lat="40.072842" lon="-105.230575">
  <ele>1586.09</ele>
  <time>2026-08-28T19:09:19Z</time>
  <course>0.0</course>
  <speed>0.0</speed>
  <fix>3d</fix>
</trkpt>
<trkpt lat="40.072842" lon="-105.230575">
  <ele>1586.09</ele>
  <time>2026-08-28T19:09:19Z</time>
  <course>11.6</course>
  <speed>0.03605551275463989</speed>
  <fix>3d</fix>
</trkpt>
<trkpt lat="40.072842" lon="-105.230575">
  <ele>1586.09</ele>
  <time>2026-08-28T19:09:19Z</time>
  <course>0.0</course>
  <speed>0.0</speed>
  <fix>3d</fix>
</trkpt>
<trkpt lat="40.072842" lon="-105.230575">
  <ele>1586.09</ele>
  <time>2026-08-28T19:09:19Z</time>
  <course>11.59</course>
  <speed>0.03605551275463989</speed>
  <fix>3d</fix>
</trkpt>
<trkpt lat="40.072842" lon="-105.230575">
  <ele>1586.09</ele>
  <time>2026-08-28T19:09:19Z</time>
  <course>0.0</course>
  <speed>0.0</speed>
  <fix>3d</fix>
</trkpt>
<trkpt lat="40.072842" lon="-105.230575">
  <ele>1586.09</ele>
  <time>2026-08-28T19:09:19Z</time>
  <course>11.59</course>
  <speed>0.03605551275463989</speed>
  <fix>3d</fix>
</trkpt>
<trkpt lat="40.072842" lon="-105.230575">
  <ele>1586.09</ele>
  <time>2026-08-28T19:09:19Z</time>
  <course>0.0</course>
  <speed>0.0</speed>
  <fix>3d</fix>
</trkpt>
<trkpt lat="40.072842" lon="-105.230575">
  <ele>1586.09</ele>
  <time>2026-08-28T19:09:19Z</time>
  <course>11.58</course>
  <speed>0.03605551275463989</speed>
  <fix>3d</fix>
</trkpt>
<trkpt lat="40.072842" lon="-105.230575">
  <ele>1586.09</ele>
  <time>2026-08-28T19:09:19Z</time>
  <course>0.0</course>
  <speed>0.0</speed>
  <fix>3d</fix>
</trkpt>
<trkpt lat="40.072842" lon="-105.230575">
  <ele>1586.09</ele>
  <time>2026-08-28T19:09:19Z</time>
  <course>11.57</course>
  <speed>0.03605551275463989</speed>
  <fix>3d</fix>
</trkpt>
<trkpt lat="40.072842" lon="-105.230575">
  <ele>1586.09</ele>
  <time>2026-08-28T19:09:19Z</time>
  <course>0.0</course>
  <speed>0.0</speed>
  <fix>3d</fix>
</trkpt>
<trkpt lat="40.072842" lon="-105.230575">
  <ele>1586.09</ele>
  <time>2026-08-28T19:09:19Z</time>
  <course>11.57</course>
  <speed>0.03605551275463989</speed>
  <fix>3d</fix>
</trkpt>
<trkpt lat="40.072842" lon="-105.230575">
  <ele>1586.09</ele>
  <time>2026-08-28T19:09:19Z</time>
  <course>0.0</course>
  <speed>0.0</speed>
  <fix>3d</fix>
</trkpt>
<trkpt lat="40.072842" lon="-105.230575">
  <ele>1586.09</ele>
  <time>2026-08-28T19:09:19Z</time>
  <course>11.56</course>
  <speed>0.03605551275463989</speed>
  <fix>3d</fix>
</trkpt>
<trkpt lat="40.072842" lon="-105.230575">
  <ele>1586.09</ele>
  <time>2026-08-28T19:09:19Z</time>
  <course>0.0</course>
  <speed>0.0</speed>
  <fix>3d</fix>
</trkpt>
<trkpt lat="40.072842" lon="-105.230575">
  <ele>1586.09</ele>
  <time>2026-08-28T19:09:19Z</time>
  <course>11.56</course>
  <speed>0.03605551275463989</speed>
  <fix>3d</fix>
</trkpt>
<trkpt lat="40.072842" lon="-105.230575">
  <ele>1586.09</ele>
  <time>2026-08-28T19:09:19Z</time>
  <course>0.0</course>
  <speed>0.0</speed>
  <fix>3d</fix>
</trkpt>
<trkpt lat="40.072842" lon="-105.230575">
  <ele>1586.09</ele>
  <time>2026-08-28T19:09:19Z</time>
  <course>11.55</course>
  <speed>0.03605551275463989</speed>
  <fix>3d</fix>
</trkpt>
<trkpt lat="40.072842" lon="-105.230575">
  <ele>1586.09</ele>
  <time>2026-08-28T19:09:19Z</time>
  <course>0.0</course>
  <speed>0.0</speed>
  <fix>3d</fix>
</trkpt>
<trkpt lat="40.072842" lon="-105.230575">
  <ele>1586.09</ele>
  <time>2026-08-28T19:09:19Z</time>
  <course>11.54</course>
  <speed>0.03605551275463989</speed>
  <fix>3d</fix>
</trkpt>
<trkpt lat="40.072842" lon="-105.230575">
  <ele>1586.09</ele>
  <time>2026-08-28T19:09:19Z</time>
  <course>0.0</course>
  <speed>0.0</speed>
  <fix>3d</fix>
</trkpt>
<trkpt lat="40.072842" lon="-105.230575">
  <ele>1586.09</ele>
  <time>2026-08-28T19:09:19Z</time>
  <course>11.54</course>
  <speed>0.03605551275463989</speed>
  <fix>3d</fix>
</trkpt>
<trkpt lat="40.072842" lon="-105.230575">
  <ele>1586.09</ele>
  <time>2026-08-28T19:09:19Z</time>
  <course>0.0</course>
  <speed>0.0</speed>
  <fix>3d</fix>
</trkpt>
<trkpt lat="40.072842" lon="-105.230575">
  <ele>1586.09</ele>
  <time>2026-08-28T19:09:19Z</time>
  <course>11.53</course>
  <speed>0.03605551275463989</speed>
  <fix>3d</fix>
</trkpt>
<trkpt lat="40.072842" lon="-105.230575">
  <ele>1586.09</ele>
  <time>2026-08-28T19:09:19Z</time>
  <course>0.0</course>
  <speed>0.0</speed>
  <fix>3d</fix>
</trkpt>
<trkpt lat="40.072842" lon="-105.230575">
  <ele>1586.09</ele>
  <time>2026-08-28T19:09:19Z</time>
  <course>11.53</course>
  <speed>0.03605551275463989</speed>
  <fix>3d</fix>
</trkpt>
<trkpt lat="40.072842" lon="-105.230575">
  <ele>1586.09</ele>
  <time>2026-08-28T19:09:19Z</time>
  <course>0.0</course>
  <speed>0.0</speed>
  <fix>3d</fix>
</trkpt>
<trkpt lat="40.072842" lon="-105.230575">
  <ele>1586.09</ele>
  <time>2026-08-28T19:09:19Z</time>
  <course>11.52</course>
  <speed>0.03605551275463989</speed>
  <fix>3d</fix>
</trkpt>
<trkpt lat="40.072842" lon="-105.230575">
  <ele>1586.09</ele>
  <time>2026-08-28T19:09:19Z</time>
  <course>0.0</course>
  <speed>0.0</speed>
  <fix>3d</fix>
</trkpt>
<trkpt lat="40.072842" lon="-105.230575">
  <ele>1586.09</ele>
  <time>2026-08-28T19:09:19Z</time>
  <course>11.52</course>
  <speed>0.03605551275463989</speed>
  <fix>3d</fix>
</trkpt>
<trkpt lat="40.072842" lon="-105.230575">
  <ele>1586.09</ele>
  <time>2026-08-28T19:09:19Z</time>
  <course>0.0</course>
  <speed>0.0</speed>
  <fix>3d</fix>
</trkpt>
<trkpt lat="40.072842" lon="-105.230575">
  <ele>1586.09</ele>
  <time>2026-08-28T19:09:19Z</time>
  <course>11.51</course>
  <speed>0.03605551275463989</speed>
  <fix>3d</fix>
</trkpt>
<trkpt lat="40.072842" lon="-105.230575">
  <ele>1586.09</ele>
  <time>2026-08-28T19:09:19Z</time>
  <course>0.0</course>
  <speed>0.0</speed>
  <fix>3d</fix>
</trkpt>
<trkpt lat="40.072842" lon="-105.230575">
  <ele>1586.09</ele>
  <time>2026-08-28T19:09:19Z</time>
  <course>11.5</course>
  <speed>0.03605551275463989</speed>
  <fix>3d</fix>
</trkpt>
<trkpt lat="40.072842" lon="-105.230575">
  <ele>1586.09</ele>
  <time>2026-08-28T19:09:19Z</time>
  <course>0.0</course>
  <speed>0.0</speed>
  <fix>3d</fix>
</trkpt>
<trkpt lat="40.072842" lon="-105.230575">
  <ele>1586.09</ele>
  <time>2026-08-28T19:09:19Z</time>
  <course>11.5</course>
  <speed>0.03605551275463989</speed>
  <fix>3d</fix>
</trkpt>
<trkpt lat="40.072842" lon="-105.230575">
  <ele>1586.09</ele>
  <time>2026-08-28T19:09:19Z</time>
  <course>0.0</course>
  <speed>0.0</speed>
  <fix>3d</fix>
</trkpt>
<trkpt lat="40.072842" lon="-105.230575">
  <ele>1586.09</ele>
  <time>2026-08-28T19:09:19Z</time>
  <course>11.49</course>
  <speed>0.044721359549995794</speed>
  <fix>3d</fix>
</trkpt>
<trkpt lat="40.072842" lon="-105.230575">
  <ele>1586.09</ele>
  <time>2026-08-28T19:09:19Z</time>
  <course>0.0</course>
  <speed>0.0</speed>
  <fix>3d</fix>
</trkpt>
<trkpt lat="40.072842" lon="-105.230575">
  <ele>1586.09</ele>
  <time>2026-08-28T19:09:19Z</time>
  <course>11.49</course>
  <speed>0.044721359549995794</speed>
  <fix>3d</fix>
</trkpt>
<trkpt lat="40.072842" lon="-105.230575">
  <ele>1586.09</ele>
  <time>2026-08-28T19:09:19Z</time>
  <course>0.0</course>
  <speed>0.0</speed>
  <fix>3d</fix>
</trkpt>
<trkpt lat="40.072842" lon="-105.230575">
  <ele>1586.09</ele>
  <time>2026-08-28T19:09:19Z</time>
  <course>11.48</course>
  <speed>0.044721359549995794</speed>
  <fix>3d</fix>
</trkpt>
<trkpt lat="40.072842" lon="-105.230575">
  <ele>1586.09</ele>
  <time>2026-08-28T19:09:19Z</time>
  <course>0.0</course>
  <speed>0.0</speed>
  <fix>3d</fix>
</trkpt>
<trkpt lat="40.072842" lon="-105.230575">
  <ele>1586.09</ele>
  <time>2026-08-28T19:09:19Z</time>
  <course>11.48</course>
  <speed>0.044721359549995794</speed>
  <fix>3d</fix>
</trkpt>
<trkpt lat="40.072842" lon="-105.230575">
  <ele>1586.09</ele>
  <time>2026-08-28T19:09:19Z</time>
  <course>0.0</course>
  <speed>0.0</speed>
  <fix>3d</fix>
</trkpt>
<trkpt lat="40.072842" lon="-105.230575">
  <ele>1586.09</ele>
  <time>2026-08-28T19:09:19Z</time>
  <course>11.47</course>
  <speed>0.044721359549995794</speed>
  <fix>3d</fix>
</trkpt>
<trkpt lat="40.072842" lon="-105.230575">
  <ele>1586.09</ele>
  <time>2026-08-28T19:09:19Z</time>
  <course>0.0</course>
  <speed>0.0</speed>
  <fix>3d</fix>
</trkpt>
<trkpt lat="40.072842" lon="-105.230575">
  <ele>1586.09</ele>
  <time>2026-08-28T19:09:19Z</time>
  <course>11.47</course>
  <speed>0.044721359549995794</speed>
  <fix>3d</fix>
</trkpt>
<trkpt lat="40.072842" lon="-105.230575">
  <ele>1586.09</ele>
  <time>2026-08-28T19:09:19Z</time>
  <course>0.0</course>
  <speed>0.0</speed>
  <fix>3d</fix>
</trkpt>
<trkpt lat="40.072842" lon="-105.230575">
  <ele>1586.09</ele>
  <time>2026-08-28T19:09:19Z</time>
  <course>11.46</course>
  <speed>0.044721359549995794</speed>
  <fix>3d</fix>
</trkpt>
<trkpt lat="40.072842" lon="-105.230575">
  <ele>1586.09</ele>
  <time>2026-08-28T19:09:19Z</time>
  <course>0.0</course>
  <speed>0.0</speed>
  <fix>3d</fix>
</trkpt>
<trkpt lat="40.072842" lon="-105.230575">
  <ele>1586.09</ele>
  <time>2026-08-28T19:09:19Z</time>
  <course>11.46</course>
  <speed>0.044721359549995794</speed>
  <fix>3d</fix>
</trkpt>
<trkpt lat="40.072842" lon="-105.230575">
  <ele>1586.09</ele>
  <time>2026-08-28T19:09:19Z</time>
  <course>0.0</course>
  <speed>0.0</speed>
  <fix>3d</fix>
</trkpt>
<trkpt lat="40.072842" lon="-105.230575">
  <ele>1586.15</ele>
  <time>2026-08-28T19:09:19Z</time>
  <course>11.45</course>
  <speed>0.0</speed>
  <fix>3d</fix>
</trkpt>
<trkpt lat="40.072842" lon="-105.230575">
  <ele>1586.09</ele>
  <time>2026-08-28T19:09:19Z</time>
  <course>0.0</course>
  <speed>0.0</speed>
  <fix>3d</fix>
</trkpt>
<trkpt lat="40.072842" lon="-105.230575">
  <ele>1586.15</ele>
  <time>2026-08-28T19:09:19Z</time>
  <course>11.45</course>
  <speed>0.0</speed>
  <fix>3d</fix>
</trkpt>
<trkpt lat="40.072842" lon="-105.230575">
  <ele>1586.09</ele>
  <time>2026-08-28T19:09:19Z</time>
  <course>0.0</course>
  <speed>0.0</speed>
  <fix>3d</fix>
</trkpt>
<trkpt lat="40.072842" lon="-105.230575">
  <ele>1586.14</ele>
  <time>2026-08-28T19:09:19Z</time>
  <course>11.44</course>
  <speed>0.0</speed>
  <fix>3d</fix>
</trkpt>
<trkpt lat="40.072842" lon="-105.230575">
  <ele>1586.09</ele>
  <time>2026-08-28T19:09:19Z</time>
  <course>0.0</course>
  <speed>0.0</speed>
  <fix>3d</fix>
</trkpt>
<trkpt lat="40.072842" lon="-105.230575">
  <ele>1586.14</ele>
  <time>2026-08-28T19:09:19Z</time>
  <course>11.44</course>
  <speed>0.0</speed>
  <fix>3d</fix>
</trkpt>
<trkpt lat="40.072842" lon="-105.230575">
  <ele>1586.09</ele>
  <time>2026-08-28T19:09:19Z</time>
  <course>0.0</course>
  <speed>0.0</speed>
  <fix>3d</fix>
</trkpt>
<trkpt lat="40.072842" lon="-105.230575">
  <ele>1586.14</ele>
  <time>2026-08-28T19:09:19Z</time>
  <course>11.43</course>
  <speed>0.0</speed>
  <fix>3d</fix>
</trkpt>
<trkpt lat="40.072842" lon="-105.230575">
  <ele>1586.09</ele>
  <time>2026-08-28T19:09:19Z</time>
  <course>0.0</course>
  <speed>0.0</speed>
  <fix>3d</fix>
</trkpt>
<trkpt lat="40.072842" lon="-105.230575">
  <ele>1586.14</ele>
  <time>2026-08-28T19:09:19Z</time>
  <course>11.43</course>
  <speed>0.01</speed>
  <fix>3d</fix>
</trkpt>
<trkpt lat="40.072842" lon="-105.230575">
  <ele>1586.09</ele>
  <time>2026-08-28T19:09:19Z</time>
  <course>0.0</course>
  <speed>0.0</speed>
  <fix>3d</fix>
</trkpt>
<trkpt lat="40.072842" lon="-105.230575">
  <ele>1586.14</ele>
  <time>2026-08-28T19:09:19Z</time>
  <course>11.42</course>
  <speed>0.01</speed>
  <fix>3d</fix>
</trkpt>
<trkpt lat="40.072842" lon="-105.230575">
  <ele>1586.09</ele>
  <time>2026-08-28T19:09:19Z</time>
  <course>0.0</course>
  <speed>0.0</speed>
  <fix>3d</fix>
</trkpt>
<trkpt lat="40.072842" lon="-105.230575">
  <ele>1586.14</ele>
  <time>2026-08-28T19:09:19Z</time>
  <course>11.42</course>
  <speed>0.01</speed>
  <fix>3d</fix>
</trkpt>
<trkpt lat="40.072842" lon="-105.230575">
  <ele>1586.09</ele>
  <time>2026-08-28T19:09:19Z</time>
  <course>0.0</course>
  <speed>0.0</speed>
  <fix>3d</fix>
</trkpt>
<trkpt lat="40.072842" lon="-105.230575">
  <ele>1586.14</ele>
  <time>2026-08-28T19:09:19Z</time>
  <course>11.42</course>
  <speed>0.01414213562373095</speed>
  <fix>3d</fix>
</trkpt>
<trkpt lat="40.072842" lon="-105.230575">
  <ele>1586.09</ele>
  <time>2026-08-28T19:09:19Z</time>
  <course>0.0</course>
  <speed>0.0</speed>
  <fix>3d</fix>
</trkpt>
<trkpt lat="40.072842" lon="-105.230575">
  <ele>1586.14</ele>
  <time>2026-08-28T19:09:19Z</time>
  <course>11.41</course>
  <speed>0.01414213562373095</speed>
  <fix>3d</fix>
</trkpt>
<trkpt lat="40.072842" lon="-105.230575">
  <ele>1586.09</ele>
  <time>2026-08-28T19:09:19Z</time>
  <course>0.0</course>
  <speed>0.0</speed>
  <fix>3d</fix>
</trkpt>
<trkpt lat="40.072842" lon="-105.230575">
  <ele>1586.15</ele>
  <time>2026-08-28T19:09:19Z</time>
  <course>11.41</course>
  <speed>0.01414213562373095</speed>
  <fix>3d</fix>
</trkpt>
<trkpt lat="40.072842" lon="-105.230575">
  <ele>1586.09</ele>
  <time>2026-08-28T19:09:19Z</time>
  <course>0.0</course>
  <speed>0.0</speed>
  <fix>3d</fix>
</trkpt>
<trkpt lat="40.072842" lon="-105.230575">
  <ele>1586.15</ele>
  <time>2026-08-28T19:09:19Z</time>
  <course>11.4</course>
  <speed>0.022360679774997897</speed>
  <fix>3d</fix>
</trkpt>
<trkpt lat="40.072842" lon="-105.230575">
  <ele>1586.09</ele>
  <time>2026-08-28T19:09:19Z</time>
  <course>0.0</course>
  <speed>0.0</speed>
  <fix>3d</fix>
</trkpt>
<trkpt lat="40.072842" lon="-105.230575">
  <ele>1586.15</ele>
  <time>2026-08-28T19:09:19Z</time>
  <course>11.4</course>
  <speed>0.022360679774997897</speed>
  <fix>3d</fix>
</trkpt>
<trkpt lat="40.072842" lon="-105.230575">
  <ele>1586.09</ele>
  <time>2026-08-28T19:09:19Z</time>
  <course>0.0</course>
  <speed>0.0</speed>
  <fix>3d</fix>
</trkpt>
<trkpt lat="40.072842" lon="-105.230575">
  <ele>1586.16</ele>
  <time>2026-08-28T19:09:19Z</time>
  <course>11.4</course>
  <speed>0.022360679774997897</speed>
  <fix>3d</fix>
</trkpt>
<trkpt lat="40.072842" lon="-105.230575">
  <ele>1586.09</ele>
  <time>2026-08-28T19:09:19Z</time>
  <course>0.0</course>
  <speed>0.0</speed>
  <fix>3d</fix>
</trkpt>
<trkpt lat="40.072842" lon="-105.230575">
  <ele>1586.16</ele>
  <time>2026-08-28T19:09:19Z</time>
  <course>11.39</course>
  <speed>0.022360679774997897</speed>
  <fix>3d</fix>
</trkpt>
<trkpt lat="40.072842" lon="-105.230575">
  <ele>1586.09</ele>
  <time>2026-08-28T19:09:19Z</time>
  <course>0.0</course>
  <speed>0.0</speed>
  <fix>3d</fix>
</trkpt>
<trkpt lat="40.072842" lon="-105.230575">
  <ele>1586.16</ele>
  <time>2026-08-28T19:09:19Z</time>
  <course>11.39</course>
  <speed>0.01414213562373095</speed>
  <fix>3d</fix>
</trkpt>
<trkpt lat="40.072842" lon="-105.230575">
  <ele>1586.09</ele>
  <time>2026-08-28T19:09:19Z</time>
  <course>0.0</course>
  <speed>0.0</speed>
  <fix>3d</fix>
</trkpt>
<trkpt lat="40.072842" lon="-105.230575">
  <ele>1586.16</ele>
  <time>2026-08-28T19:09:19Z</time>
  <course>11.39</course>
  <speed>0.01414213562373095</speed>
  <fix>3d</fix>
</trkpt>
<trkpt lat="40.072842" lon="-105.230575">
  <ele>1586.09</ele>
  <time>2026-08-28T19:09:19Z</time>
  <course>0.0</course>
  <speed>0.0</speed>
  <fix>3d</fix>
</trkpt>
<trkpt lat="40.072842" lon="-105.230575">
  <ele>1586.17</ele>
  <time>2026-08-28T19:09:19Z</time>
  <course>11.38</course>
  <speed>0.01</speed>
  <fix>3d</fix>
</trkpt>
<trkpt lat="40.072842" lon="-105.230575">
  <ele>1586.09</ele>
  <time>2026-08-28T19:09:19Z</time>
  <course>0.0</course>
  <speed>0.0</speed>
  <fix>3d</fix>
</trkpt>
<trkpt lat="40.072842" lon="-105.230575">
  <ele>1586.17</ele>
  <time>2026-08-28T19:09:20Z</time>
  <course>11.38</course>
  <speed>0.0</speed>
  <fix>3d</fix>
</trkpt>
<trkpt lat="40.072842" lon="-105.230575">
  <ele>1586.09</ele>
  <time>2026-08-28T19:09:20Z</time>
  <course>0.0</course>
  <speed>0.0</speed>
  <fix>3d</fix>
</trkpt>
<trkpt lat="40.072842" lon="-105.230575">
  <ele>1586.17</ele>
  <time>2026-08-28T19:09:20Z</time>
  <course>11.37</course>
  <speed>0.0</speed>
  <fix>3d</fix>
</trkpt>
<trkpt lat="40.072842" lon="-105.230575">
  <ele>1586.09</ele>
  <time>2026-08-28T19:09:20Z</time>
  <course>0.0</course>
  <speed>0.0</speed>
  <fix>3d</fix>
</trkpt>
<trkpt lat="40.072842" lon="-105.230575">
  <ele>1586.17</ele>
  <time>2026-08-28T19:09:20Z</time>
  <course>11.37</course>
  <speed>0.0</speed>
  <fix>3d</fix>
</trkpt>
<trkpt lat="40.072842" lon="-105.230575">
  <ele>1586.09</ele>
  <time>2026-08-28T19:09:20Z</time>
  <course>0.0</course>
  <speed>0.0</speed>
  <fix>3d</fix>
</trkpt>
<trkpt lat="40.072842" lon="-105.230575">
  <ele>1586.17</ele>
  <time>2026-08-28T19:09:20Z</time>
  <course>11.37</course>
  <speed>0.0</speed>
  <fix>3d</fix>
</trkpt>
<trkpt lat="40.072842" lon="-105.230575">
  <ele>1586.09</ele>
  <time>2026-08-28T19:09:20Z</time>
  <course>0.0</course>
  <speed>0.0</speed>
  <fix>3d</fix>
</trkpt>
<trkpt lat="40.072842" lon="-105.230575">
  <ele>1586.16</ele>
  <time>2026-08-28T19:09:20Z</time>
  <course>11.36</course>
  <speed>0.0</speed>
  <fix>3d</fix>
</trkpt>
<trkpt lat="40.072842" lon="-105.230575">
  <ele>1586.09</ele>
  <time>2026-08-28T19:09:20Z</time>
  <course>135.0</course>
  <speed>0.0</speed>
  <fix>3d</fix>
</trkpt>
<trkpt lat="40.072842" lon="-105.230575">
  <ele>1586.16</ele>
  <time>2026-08-28T19:09:20Z</time>
  <course>11.36</course>
  <speed>0.0</speed>
  <fix>3d</fix>
</trkpt>
<trkpt lat="40.072842" lon="-105.230575">
  <ele>1586.09</ele>
  <time>2026-08-28T19:09:20Z</time>
  <course>135.0</course>
  <speed>0.0</speed>
  <fix>3d</fix>
</trkpt>
<trkpt lat="40.072842" lon="-105.230575">
  <ele>1586.17</ele>
  <time>2026-08-28T19:09:20Z</time>
  <course>11.36</course>
  <speed>0.0</speed>
  <fix>3d</fix>
</trkpt>
<trkpt lat="40.072842" lon="-105.230575">
  <ele>1586.09</ele>
  <time>2026-08-28T19:09:20Z</time>
  <course>135.0</course>
  <speed>0.0</speed>
  <fix>3d</fix>
</trkpt>
<trkpt lat="40.072842" lon="-105.230575">
  <ele>1586.17</ele>
  <time>2026-08-28T19:09:20Z</time>
  <course>11.36</course>
  <speed>0.0</speed>
  <fix>3d</fix>
</trkpt>
<trkpt lat="40.072842" lon="-105.230575">
  <ele>1586.09</ele>
  <time>2026-08-28T19:09:20Z</time>
  <course>135.0</course>
  <speed>0.0</speed>
  <fix>3d</fix>
</trkpt>
<trkpt lat="40.072842" lon="-105.230575">
  <ele>1586.17</ele>
  <time>2026-08-28T19:09:20Z</time>
  <course>11.35</course>
  <speed>0.0</speed>
  <fix>3d</fix>
</trkpt>
<trkpt lat="40.072842" lon="-105.230575">
  <ele>1586.09</ele>
  <time>2026-08-28T19:09:20Z</time>
  <course>162.91</course>
  <speed>0.0</speed>
  <fix>3d</fix>
</trkpt>
<trkpt lat="40.072842" lon="-105.230575">
  <ele>1586.17</ele>
  <time>2026-08-28T19:09:20Z</time>
  <course>11.35</course>
  <speed>0.0</speed>
  <fix>3d</fix>
</trkpt>
<trkpt lat="40.072842" lon="-105.230575">
  <ele>1586.09</ele>
  <time>2026-08-28T19:09:20Z</time>
  <course>192.33</course>
  <speed>0.0</speed>
  <fix>3d</fix>
</trkpt>
<trkpt lat="40.072842" lon="-105.230575">
  <ele>1586.16</ele>
  <time>2026-08-28T19:09:20Z</time>
  <course>11.35</course>
  <speed>0.0</speed>
  <fix>3d</fix>
</trkpt>
<trkpt lat="40.072842" lon="-105.230575">
  <ele>1586.09</ele>
  <time>2026-08-28T19:09:20Z</time>
  <course>326.98</course>
  <speed>0.0</speed>
  <fix>3d</fix>
</trkpt>
<trkpt lat="40.072842" lon="-105.230575">
  <ele>1586.16</ele>
  <time>2026-08-28T19:09:20Z</time>
  <course>11.35</course>
  <speed>0.0</speed>
  <fix>3d</fix>
</trkpt>
<trkpt lat="40.072842" lon="-105.230575">
  <ele>1586.09</ele>
  <time>2026-08-28T19:09:20Z</time>
  <course>45.15</course>
  <speed>0.0</speed>
  <fix>3d</fix>
</trkpt>
<trkpt lat="40.072842" lon="-105.230575">
  <ele>1586.16</ele>
  <time>2026-08-28T19:09:20Z</time>
  <course>11.34</course>
  <speed>0.0</speed>
  <fix>3d</fix>
</trkpt>
<trkpt lat="40.072842" lon="-105.230575">
  <ele>1586.09</ele>
  <time>2026-08-28T19:09:20Z</time>
  <course>163.19</course>
  <speed>0.0</speed>
  <fix>3d</fix>
</trkpt>
<trkpt lat="40.072842" lon="-105.230575">
  <ele>1586.16</ele>
  <time>2026-08-28T19:09:20Z</time>
  <course>11.34</course>
  <speed>0.0</speed>
  <fix>3d</fix>
</trkpt>
<trkpt lat="40.072842" lon="-105.230575">
  <ele>1586.09</ele>
  <time>2026-08-28T19:09:20Z</time>
  <course>141.04</course>
  <speed>0.0</speed>
  <fix>3d</fix>
</trkpt>
<trkpt lat="40.072842" lon="-105.230575">
  <ele>1586.16</ele>
  <time>2026-08-28T19:09:20Z</time>
  <course>11.34</course>
  <speed>0.0</speed>
  <fix>3d</fix>
</trkpt>
<trkpt lat="40.072842" lon="-105.230575">
  <ele>1586.09</ele>
  <time>2026-08-28T19:09:20Z</time>
  <course>136.01</course>
  <speed>0.0</speed>
  <fix>3d</fix>
</trkpt>
<trkpt lat="40.072842" lon="-105.230575">
  <ele>1586.16</ele>
  <time>2026-08-28T19:09:20Z</time>
  <course>11.34</course>
  <speed>0.0</speed>
  <fix>3d</fix>
</trkpt>
<trkpt lat="40.072842" lon="-105.230575">
  <ele>1586.09</ele>
  <time>2026-08-28T19:09:20Z</time>
  <course>137.0</course>
  <speed>0.0</speed>
  <fix>3d</fix>
</trkpt>
<trkpt lat="40.072842" lon="-105.230575">
  <ele>1586.17</ele>
  <time>2026-08-28T19:09:20Z</time>
  <course>11.34</course>
  <speed>0.0</speed>
  <fix>3d</fix>
</trkpt>
<trkpt lat="40.072842" lon="-105.230575">
  <ele>1586.09</ele>
  <time>2026-08-28T19:09:20Z</time>
  <course>303.92</course>
  <speed>0.0</speed>
  <fix>3d</fix>
</trkpt>
<trkpt lat="40.072842" lon="-105.230575">
  <ele>1586.17</ele>
  <time>2026-08-28T19:09:20Z</time>
  <course>11.34</course>
  <speed>0.0</speed>
  <fix>3d</fix>
</trkpt>
<trkpt lat="40.072842" lon="-105.230575">
  <ele>1586.09</ele>
  <time>2026-08-28T19:09:20Z</time>
  <course>187.02</course>
  <speed>0.0</speed>
  <fix>3d</fix>
</trkpt>
<trkpt lat="40.072842" lon="-105.230575">
  <ele>1586.16</ele>
  <time>2026-08-28T19:09:20Z</time>
  <course>11.34</course>
  <speed>0.0</speed>
  <fix>3d</fix>
</trkpt>
<trkpt lat="40.072842" lon="-105.230575">
  <ele>1586.09</ele>
  <time>2026-08-28T19:09:20Z</time>
  <course>147.86</course>
  <speed>0.0</speed>
  <fix>3d</fix>
</trkpt>
<trkpt lat="40.072842" lon="-105.230575">
  <ele>1586.16</ele>
  <time>2026-08-28T19:09:20Z</time>
  <course>11.34</course>
  <speed>0.0</speed>
  <fix>3d</fix>
</trkpt>
<trkpt lat="40.072842" lon="-105.230575">
  <ele>1586.09</ele>
  <time>2026-08-28T19:09:20Z</time>
  <course>152.8</course>
  <speed>0.0</speed>
  <fix>3d</fix>
</trkpt>
<trkpt lat="40.072842" lon="-105.230575">
  <ele>1586.16</ele>
  <time>2026-08-28T19:09:20Z</time>
  <course>11.34</course>
  <speed>0.0</speed>
  <fix>3d</fix>
</trkpt>
<trkpt lat="40.072842" lon="-105.230575">
  <ele>1586.09</ele>
  <time>2026-08-28T19:09:20Z</time>
  <course>154.76</course>
  <speed>0.0</speed>
  <fix>3d</fix>
</trkpt>
<trkpt lat="40.072842" lon="-105.230575">
  <ele>1586.17</ele>
  <time>2026-08-28T19:09:20Z</time>
  <course>11.34</course>
  <speed>0.0</speed>
  <fix>3d</fix>
</trkpt>
<trkpt lat="40.072842" lon="-105.230575">
  <ele>1586.09</ele>
  <time>2026-08-28T19:09:20Z</time>
  <course>136.33</course>
  <speed>0.0</speed>
  <fix>3d</fix>
</trkpt>
<trkpt lat="40.072842" lon="-105.230575">
  <ele>1586.17</ele>
  <time>2026-08-28T19:09:20Z</time>
  <course>11.34</course>
  <speed>0.0</speed>
  <fix>3d</fix>
</trkpt>
<trkpt lat="40.072842" lon="-105.230575">
  <ele>1586.09</ele>
  <time>2026-08-28T19:09:20Z</time>
  <course>136.33</course>
  <speed>0.0</speed>
  <fix>3d</fix>
</trkpt>
<trkpt lat="40.072842" lon="-105.230575">
  <ele>1586.17</ele>
  <time>2026-08-28T19:09:20Z</time>
  <course>11.34</course>
  <speed>0.01</speed>
  <fix>3d</fix>
</trkpt>
<trkpt lat="40.072842" lon="-105.230575">
  <ele>1586.09</ele>
  <time>2026-08-28T19:09:20Z</time>
  <course>282.45</course>
  <speed>0.0</speed>
  <fix>3d</fix>
</trkpt>
<trkpt lat="40.072842" lon="-105.230575">
  <ele>1586.18</ele>
  <time>2026-08-28T19:09:20Z</time>
  <course>11.34</course>
  <speed>0.01</speed>
  <fix>3d</fix>
</trkpt>
<trkpt lat="40.072842" lon="-105.230575">
  <ele>1586.09</ele>
  <time>2026-08-28T19:09:20Z</time>
  <course>254.12</course>
  <speed>0.0</speed>
  <fix>3d</fix>
</trkpt>
<trkpt lat="40.072842" lon="-105.230575">
  <ele>1586.18</ele>
  <time>2026-08-28T19:09:20Z</time>
  <course>11.34</course>
  <speed>0.01</speed>
  <fix>3d</fix>
</trkpt>
<trkpt lat="40.072842" lon="-105.230575">
  <ele>1586.09</ele>
  <time>2026-08-28T19:09:20Z</time>
  <course>145.78</course>
  <speed>0.0</speed>
  <fix>3d</fix>
</trkpt>
<trkpt lat="40.072842" lon="-105.230575">
  <ele>1586.18</ele>
  <time>2026-08-28T19:09:20Z</time>
  <course>11.34</course>
  <speed>0.01</speed>
  <fix>3d</fix>
</trkpt>
<trkpt lat="40.072842" lon="-105.230575">
  <ele>1586.09</ele>
  <time>2026-08-28T19:09:20Z</time>
  <course>147.75</course>
  <speed>0.0</speed>
  <fix>3d</fix>
</trkpt>
<trkpt lat="40.072842" lon="-105.230575">
  <ele>1586.18</ele>
  <time>2026-08-28T19:09:20Z</time>
  <course>11.34</course>
  <speed>0.01414213562373095</speed>
  <fix>3d</fix>
</trkpt>
<trkpt lat="40.072842" lon="-105.230575">
  <ele>1586.09</ele>
  <time>2026-08-28T19:09:20Z</time>
  <course>149.98</course>
  <speed>0.0</speed>
  <fix>3d</fix>
</trkpt>
<trkpt lat="40.072842" lon="-105.230575">
  <ele>1586.18</ele>
  <time>2026-08-28T19:09:20Z</time>
  <course>11.34</course>
  <speed>0.01414213562373095</speed>
  <fix>3d</fix>
</trkpt>
<trkpt lat="40.072842" lon="-105.230575">
  <ele>1586.09</ele>
  <time>2026-08-28T19:09:20Z</time>
  <course>137.83</course>
  <speed>0.0</speed>
  <fix>3d</fix>
</trkpt>
<trkpt lat="40.072842" lon="-105.230575">
  <ele>1586.18</ele>
  <time>2026-08-28T19:09:20Z</time>
  <course>11.35</course>
  <speed>0.01414213562373095</speed>
  <fix>3d</fix>
</trkpt>
<trkpt lat="40.072842" lon="-105.230575">
  <ele>1586.09</ele>
  <time>2026-08-28T19:09:20Z</time>
  <course>136.18</course>
  <speed>0.0</speed>
  <fix>3d</fix>
</trkpt>
<trkpt lat="40.072842" lon="-105.230575">
  <ele>1586.18</ele>
  <time>2026-08-28T19:09:20Z</time>
  <course>11.35</course>
  <speed>0.01414213562373095</speed>
  <fix>3d</fix>
</trkpt>
<trkpt lat="40.072842" lon="-105.230575">
  <ele>1586.09</ele>
  <time>2026-08-28T19:09:20Z</time>
  <course>137.11</course>
  <speed>0.0</speed>
  <fix>3d</fix>
</trkpt>
<trkpt lat="40.072842" lon="-105.230575">
  <ele>1586.18</ele>
  <time>2026-08-28T19:09:20Z</time>
  <course>11.35</course>
  <speed>0.01414213562373095</speed>
  <fix>3d</fix>
</trkpt>
<trkpt lat="40.072842" lon="-105.230575">
  <ele>1586.09</ele>
  <time>2026-08-28T19:09:20Z</time>
  <course>298.87</course>
  <speed>0.0</speed>
  <fix>3d</fix>
</trkpt>
<trkpt lat="40.072842" lon="-105.230575">
  <ele>1586.18</ele>
  <time>2026-08-28T19:09:20Z</time>
  <course>11.35</course>
  <speed>0.01414213562373095</speed>
  <fix>3d</fix>
</trkpt>
<trkpt lat="40.072842" lon="-105.230575">
  <ele>1586.09</ele>
  <time>2026-08-28T19:09:20Z</time>
  <course>153.62</course>
  <speed>0.0</speed>
  <fix>3d</fix>
</trkpt>
<trkpt lat="40.0728419" lon="-105.230575">
  <ele>1586.18</ele>
  <time>2026-08-28T19:09:20Z</time>
  <course>11.35</course>
  <speed>0.01414213562373095</speed>
  <fix>3d</fix>
</trkpt>
<trkpt lat="40.072842" lon="-105.230575">
  <ele>1586.09</ele>
  <time>2026-08-28T19:09:20Z</time>
  <course>144.03</course>
  <speed>0.0</speed>
  <fix>3d</fix>
</trkpt>
<trkpt lat="40.0728419" lon="-105.230575">
  <ele>1586.18</ele>
  <time>2026-08-28T19:09:20Z</time>
  <course>11.35</course>
  <speed>0.01414213562373095</speed>
  <fix>3d</fix>
</trkpt>
<trkpt lat="40.072842" lon="-105.230575">
  <ele>1586.09</ele>
  <time>2026-08-28T19:09:20Z</time>
  <course>146.25</course>
  <speed>0.0</speed>
  <fix>3d</fix>
</trkpt>
<trkpt lat="40.0728419" lon="-105.2305749">
  <ele>1586.18</ele>
  <time>2026-08-28T19:09:20Z</time>
  <course>11.36</course>
  <speed>0.022360679774997897</speed>
  <fix>3d</fix>
</trkpt>
<trkpt lat="40.072842" lon="-105.230575">
  <ele>1586.09</ele>
  <time>2026-08-28T19:09:20Z</time>
  <course>146.93</course>
  <speed>0.0</speed>
  <fix>3d</fix>
</trkpt>
<trkpt lat="40.0728419" lon="-105.2305749">
  <ele>1586.17</ele>
  <time>2026-08-28T19:09:20Z</time>
  <course>11.36</course>
  <speed>0.022360679774997897</speed>
  <fix>3d</fix>
</trkpt>
<trkpt lat="40.072842" lon="-105.230575">
  <ele>1586.09</ele>
  <time>2026-08-28T19:09:20Z</time>
  <course>136.33</course>
  <speed>0.0</speed>
  <fix>3d</fix>
</trkpt>
<trkpt lat="40.0728419" lon="-105.2305749">
  <ele>1586.17</ele>
  <time>2026-08-28T19:09:20Z</time>
  <course>11.36</course>
  <speed>0.022360679774997897</speed>
  <fix>3d</fix>
</trkpt>
<trkpt lat="40.072842" lon="-105.230575">
  <ele>1586.09</ele>
  <time>2026-08-28T19:09:20Z</time>
  <course>136.36</course>
  <speed>0.0</speed>
  <fix>3d</fix>
</trkpt>
<trkpt lat="40.0728419" lon="-105.2305749">
  <ele>1586.17</ele>
  <time>2026-08-28T19:09:20Z</time>
  <course>11.36</course>
  <speed>0.022360679774997897</speed>
  <fix>3d</fix>
</trkpt>
<trkpt lat="40.072842" lon="-105.230575">
  <ele>1586.09</ele>
  <time>2026-08-28T19:09:20Z</time>
  <course>236.26</course>
  <speed>0.0</speed>
  <fix>3d</fix>
</trkpt>
<trkpt lat="40.0728419" lon="-105.2305749">
  <ele>1586.17</ele>
  <time>2026-08-28T19:09:20Z</time>
  <course>11.36</course>
  <speed>0.022360679774997897</speed>
  <fix>3d</fix>
</trkpt>
<trkpt lat="40.072842" lon="-105.230575">
  <ele>1586.09</ele>
  <time>2026-08-28T19:09:20Z</time>
  <course>164.49</course>
  <speed>0.0</speed>
  <fix>3d</fix>
</trkpt>
<trkpt lat="40.0728419" lon="-105.2305749">
  <ele>1586.17</ele>
  <time>2026-08-28T19:09:20Z</time>
  <course>11.37</course>
  <speed>0.022360679774997897</speed>
  <fix>3d</fix>
</trkpt>
<trkpt lat="40.072842" lon="-105.230575">
  <ele>1586.09</ele>
  <time>2026-08-28T19:09:20Z</time>
  <course>142.93</course>
  <speed>0.0</speed>
  <fix>3d</fix>
</trkpt>
<trkpt lat="40.0728419" lon="-105.2305749">
  <ele>1586.18</ele>
  <time>2026-08-28T19:09:20Z</time>
  <course>11.37</course>
  <speed>0.022360679774997897</speed>
  <fix>3d</fix>
</trkpt>
<trkpt lat="40.072842" lon="-105.230575">
  <ele>1586.09</ele>
  <time>2026-08-28T19:09:20Z</time>
  <course>144.07</course>
  <speed>0.0</speed>
  <fix>3d</fix>
</trkpt>
<trkpt lat="40.0728419" lon="-105.2305749">
  <ele>1586.18</ele>
  <time>2026-08-28T19:09:20Z</time>
  <course>11.37</course>
  <speed>0.022360679774997897</speed>
  <fix>3d</fix>
</trkpt>
<trkpt lat="40.072842" lon="-105.230575">
  <ele>1586.09</ele>
  <time>2026-08-28T19:09:20Z</time>
  <course>145.04</course>
  <speed>0.0</speed>
  <fix>3d</fix>
</trkpt>
<trkpt lat="40.0728419" lon="-105.2305749">
  <ele>1586.18</ele>
  <time>2026-08-28T19:09:20Z</time>
  <course>11.37</course>
  <speed>0.022360679774997897</speed>
  <fix>3d</fix>
</trkpt>
<trkpt lat="40.072842" lon="-105.230575">
  <ele>1586.09</ele>
  <time>2026-08-28T19:09:20Z</time>
  <course>144.71</course>
  <speed>0.0</speed>
  <fix>3d</fix>
</trkpt>
<trkpt lat="40.0728419" lon="-105.2305749">
  <ele>1586.18</ele>
  <time>2026-08-28T19:09:20Z</time>
  <course>11.37</course>
  <speed>0.022360679774997897</speed>
  <fix>3d</fix>
</trkpt>
<trkpt lat="40.072842" lon="-105.230575">
  <ele>1586.09</ele>
  <time>2026-08-28T19:09:20Z</time>
  <course>136.21</course>
  <speed>0.0</speed>
  <fix>3d</fix>
</trkpt>
<trkpt lat="40.0728419" lon="-105.2305749">
  <ele>1586.18</ele>
  <time>2026-08-28T19:09:20Z</time>
  <course>11.37</course>
  <speed>0.022360679774997897</speed>
  <fix>3d</fix>
</trkpt>
<trkpt lat="40.072842" lon="-105.230575">
  <ele>1586.09</ele>
  <time>2026-08-28T19:09:20Z</time>
  <course>136.1</course>
  <speed>0.0</speed>
  <fix>3d</fix>
</trkpt>
<trkpt lat="40.0728419" lon="-105.2305749">
  <ele>1586.18</ele>
  <time>2026-08-28T19:09:20Z</time>
  <course>11.38</course>
  <speed>0.022360679774997897</speed>
  <fix>3d</fix>
</trkpt>
<trkpt lat="40.072842" lon="-105.230575">
  <ele>1586.09</ele>
  <time>2026-08-28T19:09:20Z</time>
  <course>145.68</course>
  <speed>0.0</speed>
  <fix>3d</fix>
</trkpt>
<trkpt lat="40.0728419" lon="-105.2305749">
  <ele>1586.18</ele>
  <time>2026-08-28T19:09:20Z</time>
  <course>11.38</course>
  <speed>0.022360679774997897</speed>
  <fix>3d</fix>
</trkpt>
<trkpt lat="40.072842" lon="-105.230575">
  <ele>1586.09</ele>
  <time>2026-08-28T19:09:20Z</time>
  <course>186.38</course>
  <speed>0.0</speed>
  <fix>3d</fix>
</trkpt>
<trkpt lat="40.0728419" lon="-105.2305749">
  <ele>1586.18</ele>
  <time>2026-08-28T19:09:20Z</time>
  <course>11.38</course>
  <speed>0.022360679774997897</speed>
  <fix>3d</fix>
</trkpt>
<trkpt lat="40.072842" lon="-105.230575">
  <ele>1586.09</ele>
  <time>2026-08-28T19:09:20Z</time>
  <course>142.4</course>
  <speed>0.0</speed>
  <fix>3d</fix>
</trkpt>
<trkpt lat="40.0728419" lon="-105.2305749">
  <ele>1586.18</ele>
  <time>2026-08-28T19:09:20Z</time>
  <course>11.38</course>
  <speed>0.022360679774997897</speed>
  <fix>3d</fix>
</trkpt>
<trkpt lat="40.072842" lon="-105.230575">
  <ele>1586.09</ele>
  <time>2026-08-28T19:09:20Z</time>
  <course>142.61</course>
  <speed>0.0</speed>
  <fix>3d</fix>
</trkpt>
<trkpt lat="40.0728419" lon="-105.2305749">
  <ele>1586.18</ele>
  <time>2026-08-28T19:09:20Z</time>
  <course>11.38</course>
  <speed>0.022360679774997897</speed>
  <fix>3d</fix>
</trkpt>
<trkpt lat="40.072842" lon="-105.230575">
  <ele>1586.09</ele>
  <time>2026-08-28T19:09:20Z</time>
  <course>143.64</course>
  <speed>0.0</speed>
  <fix>3d</fix>
</trkpt>
<trkpt lat="40.0728419" lon="-105.2305749">
  <ele>1586.18</ele>
  <time>2026-08-28T19:09:20Z</time>
  <course>11.38</course>
  <speed>0.022360679774997897</speed>
  <fix>3d</fix>
</trkpt>
<trkpt lat="40.072842" lon="-105.230575">
  <ele>1586.09</ele>
  <time>2026-08-28T19:09:20Z</time>
  <course>143.47</course>
  <speed>0.0</speed>
  <fix>3d</fix>
</trkpt>
<trkpt lat="40.0728419" lon="-105.2305749">
  <ele>1586.18</ele>
  <time>2026-08-28T19:09:20Z</time>
  <course>11.39</course>
  <speed>0.022360679774997897</speed>
  <fix>3d</fix>
</trkpt>
<trkpt lat="40.072842" lon="-105.230575">
  <ele>1586.09</ele>
  <time>2026-08-28T19:09:20Z</time>
  <course>143.35</course>
  <speed>0.0</speed>
  <fix>3d</fix>
</trkpt>
<trkpt lat="40.0728419" lon="-105.2305749">
  <ele>1586.18</ele>
  <time>2026-08-28T19:09:20Z</time>
  <course>11.39</course>
  <speed>0.022360679774997897</speed>
  <fix>3d</fix>
</trkpt>
<trkpt lat="40.072842" lon="-105.230575">
  <ele>1586.09</ele>
  <time>2026-08-28T19:09:20Z</time>
  <course>137.99</course>
  <speed>0.0</speed>
  <fix>3d</fix>
</trkpt>
<trkpt lat="40.0728419" lon="-105.2305749">
  <ele>1586.18</ele>
  <time>2026-08-28T19:09:20Z</time>
  <course>11.39</course>
  <speed>0.022360679774997897</speed>
  <fix>3d</fix>
</trkpt>
<trkpt lat="40.072842" lon="-105.230575">
  <ele>1586.09</ele>
  <time>2026-08-28T19:09:20Z</time>
  <course>136.23</course>
  <speed>0.0</speed>
  <fix>3d</fix>
</trkpt>
<trkpt lat="40.0728419" lon="-105.2305749">
  <ele>1586.18</ele>
  <time>2026-08-28T19:09:20Z</time>
  <course>11.39</course>
  <speed>0.022360679774997897</speed>
  <fix>3d</fix>
</trkpt>
<trkpt lat="40.072842" lon="-105.230575">
  <ele>1586.09</ele>
  <time>2026-08-28T19:09:20Z</time>
  <course>136.9</course>
  <speed>0.0</speed>
  <fix>3d</fix>
</trkpt>
<trkpt lat="40.0728419" lon="-105.2305749">
  <ele>1586.18</ele>
  <time>2026-08-28T19:09:20Z</time>
  <course>11.39</course>
  <speed>0.022360679774997897</speed>
  <fix>3d</fix>
</trkpt>
<trkpt lat="40.072842" lon="-105.230575">
  <ele>1586.09</ele>
  <time>2026-08-28T19:09:20Z</time>
  <course>243.82</course>
  <speed>0.0</speed>
  <fix>3d</fix>
</trkpt>
<trkpt lat="40.0728419" lon="-105.2305749">
  <ele>1586.18</ele>
  <time>2026-08-28T19:09:20Z</time>
  <course>11.39</course>
  <speed>0.022360679774997897</speed>
  <fix>3d</fix>
</trkpt>
<trkpt lat="40.072842" lon="-105.230575">
  <ele>1586.09</ele>
  <time>2026-08-28T19:09:20Z</time>
  <course>145.17</course>
  <speed>0.0</speed>
  <fix>3d</fix>
</trkpt>
<trkpt lat="40.0728419" lon="-105.2305749">
  <ele>1586.18</ele>
  <time>2026-08-28T19:09:20Z</time>
  <course>11.39</course>
  <speed>0.022360679774997897</speed>
  <fix>3d</fix>
</trkpt>
<trkpt lat="40.072842" lon="-105.230575">
  <ele>1586.09</ele>
  <time>2026-08-28T19:09:20Z</time>
  <course>141.35</course>
  <speed>0.0</speed>
  <fix>3d</fix>
</trkpt>
<trkpt lat="40.0728419" lon="-105.2305749">
  <ele>1586.18</ele>
  <time>2026-08-28T19:09:20Z</time>
  <course>11.4</course>
  <speed>0.022360679774997897</speed>
  <fix>3d</fix>
</trkpt>
<trkpt lat="40.072842" lon="-105.230575">
  <ele>1586.09</ele>
  <time>2026-08-28T19:09:20Z</time>
  <course>142.31</course>
  <speed>0.0</speed>
  <fix>3d</fix>
</trkpt>
<trkpt lat="40.0728419" lon="-105.2305749">
  <ele>1586.18</ele>
  <time>2026-08-28T19:09:20Z</time>
  <course>11.4</course>
  <speed>0.022360679774997897</speed>
  <fix>3d</fix>
</trkpt>
<trkpt lat="40.072842" lon="-105.230575">
  <ele>1586.09</ele>
  <time>2026-08-28T19:09:20Z</time>
  <course>204.53</course>
  <speed>0.0</speed>
  <fix>3d</fix>
</trkpt>
<trkpt lat="40.0728419" lon="-105.2305749">
  <ele>1586.18</ele>
  <time>2026-08-28T19:09:20Z</time>
  <course>11.4</course>
  <speed>0.022360679774997897</speed>
  <fix>3d</fix>
</trkpt>
<trkpt lat="40.072842" lon="-105.230575">
  <ele>1586.09</ele>
  <time>2026-08-28T19:09:20Z</time>
  <course>215.69</course>
  <speed>0.0</speed>
  <fix>3d</fix>
</trkpt>
<trkpt lat="40.0728419" lon="-105.2305749">
  <ele>1586.18</ele>
  <time>2026-08-28T19:09:20Z</time>
  <course>11.4</course>
  <speed>0.022360679774997897</speed>
  <fix>3d</fix>
</trkpt>
<trkpt lat="40.072842" lon="-105.230575">
  <ele>1586.09</ele>
  <time>2026-08-28T19:09:20Z</time>
  <course>205.69</course>
  <speed>0.0</speed>
  <fix>3d</fix>
</trkpt>
<trkpt lat="40.0728419" lon="-105.2305749">
  <ele>1586.17</ele>
  <time>2026-08-28T19:09:20Z</time>
  <course>11.4</course>
  <speed>0.022360679774997897</speed>
  <fix>3d</fix>
</trkpt>
<trkpt lat="40.072842" lon="-105.230575">
  <ele>1586.09</ele>
  <time>2026-08-28T19:09:20Z</time>
  <course>96.11</course>
  <speed>0.0</speed>
  <fix>3d</fix>
</trkpt>
<trkpt lat="40.0728419" lon="-105.2305749">
  <ele>1586.17</ele>
  <time>2026-08-28T19:09:20Z</time>
  <course>11.4</course>
  <speed>0.022360679774997897</speed>
  <fix>3d</fix>
</trkpt>
<trkpt lat="40.072842" lon="-105.230575">
  <ele>1586.09</ele>
  <time>2026-08-28T19:09:20Z</time>
  <course>137.13</course>
  <speed>0.0</speed>
  <fix>3d</fix>
</trkpt>
<trkpt lat="40.0728419" lon="-105.2305749">
  <ele>1586.17</ele>
  <time>2026-08-28T19:09:20Z</time>
  <course>11.4</course>
  <speed>0.022360679774997897</speed>
  <fix>3d</fix>
</trkpt>
<trkpt lat="40.072842" lon="-105.230575">
  <ele>1586.09</ele>
  <time>2026-08-28T19:09:20Z</time>
  <course>158.04</course>
  <speed>0.0</speed>
  <fix>3d</fix>
</trkpt>
<trkpt lat="40.0728419" lon="-105.2305749">
  <ele>1586.17</ele>
  <time>2026-08-28T19:09:20Z</time>
  <course>11.4</course>
  <speed>0.022360679774997897</speed>
  <fix>3d</fix>
</trkpt>
<trkpt lat="40.072842" lon="-105.230575">
  <ele>1586.09</ele>
  <time>2026-08-28T19:09:20Z</time>
  <course>138.13</course>
  <speed>0.0</speed>
  <fix>3d</fix>
</trkpt>
<trkpt lat="40.0728419" lon="-105.2305749">
  <ele>1586.17</ele>
  <time>2026-08-28T19:09:20Z</time>
  <course>11.4</course>
  <speed>0.022360679774997897</speed>
  <fix>3d</fix>
</trkpt>
<trkpt lat="40.072842" lon="-105.230575">
  <ele>1586.09</ele>
  <time>2026-08-28T19:09:20Z</time>
  <course>136.8</course>
  <speed>0.0</speed>
  <fix>3d</fix>
</trkpt>
<trkpt lat="40.0728419" lon="-105.2305749">
  <ele>1586.17</ele>
  <time>2026-08-28T19:09:20Z</time>
  <course>11.4</course>
  <speed>0.022360679774997897</speed>
  <fix>3d</fix>
</trkpt>
<trkpt lat="40.072842" lon="-105.230575">
  <ele>1586.09</ele>
  <time>2026-08-28T19:09:20Z</time>
  <course>140.14</course>
  <speed>0.0</speed>
  <fix>3d</fix>
</trkpt>
<trkpt lat="40.0728419" lon="-105.2305749">
  <ele>1586.18</ele>
  <time>2026-08-28T19:09:20Z</time>
  <course>11.4</course>
  <speed>0.022360679774997897</speed>
  <fix>3d</fix>
</trkpt>
<trkpt lat="40.072842" lon="-105.230575">
  <ele>1586.09</ele>
  <time>2026-08-28T19:09:20Z</time>
  <course>213.58</course>
  <speed>0.0</speed>
  <fix>3d</fix>
</trkpt>
<trkpt lat="40.0728419" lon="-105.2305749">
  <ele>1586.18</ele>
  <time>2026-08-28T19:09:20Z</time>
  <course>11.4</course>
  <speed>0.022360679774997897</speed>
  <fix>3d</fix>
</trkpt>
<trkpt lat="40.072842" lon="-105.230575">
  <ele>1586.09</ele>
  <time>2026-08-28T19:09:20Z</time>
  <course>149.19</course>
  <speed>0.0</speed>
  <fix>3d</fix>
</trkpt>
<trkpt lat="40.0728419" lon="-105.2305749">
  <ele>1586.18</ele>
  <time>2026-08-28T19:09:20Z</time>
  <course>11.4</course>
  <speed>0.022360679774997897</speed>
  <fix>3d</fix>
</trkpt>
<trkpt lat="40.072842" lon="-105.230575">
  <ele>1586.09</ele>
  <time>2026-08-28T19:09:20Z</time>
  <course>146.34</course>
  <speed>0.0</speed>
  <fix>3d</fix>
</trkpt>
<trkpt lat="40.0728419" lon="-105.2305749">
  <ele>1586.18</ele>
  <time>2026-08-28T19:09:20Z</time>
  <course>11.41</course>
  <speed>0.022360679774997897</speed>
  <fix>3d</fix>
</trkpt>
<trkpt lat="40.072842" lon="-105.230575">
  <ele>1586.09</ele>
  <time>2026-08-28T19:09:20Z</time>
  <course>147.94</course>
  <speed>0.0</speed>
  <fix>3d</fix>
</trkpt>
<trkpt lat="40.0728419" lon="-105.2305749">
  <ele>1586.18</ele>
  <time>2026-08-28T19:09:20Z</time>
  <course>11.41</course>
  <speed>0.022360679774997897</speed>
  <fix>3d</fix>
</trkpt>
<trkpt lat="40.072842" lon="-105.230575">
  <ele>1586.09</ele>
  <time>2026-08-28T19:09:20Z</time>
  <course>148.12</course>
  <speed>0.0</speed>
  <fix>3d</fix>
</trkpt>
<trkpt lat="40.0728419" lon="-105.2305749">
  <ele>1586.18</ele>
  <time>2026-08-28T19:09:20Z</time>
  <course>11.41</course>
  <speed>0.022360679774997897</speed>
  <fix>3d</fix>
</trkpt>
<trkpt lat="40.072842" lon="-105.230575">
  <ele>1586.09</ele>
  <time>2026-08-28T19:09:20Z</time>
  <course>147.86</course>
  <speed>0.0</speed>
  <fix>3d</fix>
</trkpt>
<trkpt lat="40.0728419" lon="-105.2305749">
  <ele>1586.19</ele>
  <time>2026-08-28T19:09:20Z</time>
  <course>11.41</course>
  <speed>0.022360679774997897</speed>
  <fix>3d</fix>
</trkpt>
<trkpt lat="40.072842" lon="-105.230575">
  <ele>1586.09</ele>
  <time>2026-08-28T19:09:20Z</time>
  <course>147.87</course>
  <speed>0.0</speed>
  <fix>3d</fix>
</trkpt>
<trkpt lat="40.0728419" lon="-105.2305749">
  <ele>1586.19</ele>
  <time>2026-08-28T19:09:20Z</time>
  <course>11.41</course>
  <speed>0.022360679774997897</speed>
  <fix>3d</fix>
</trkpt>
<trkpt lat="40.072842" lon="-105.230575">
  <ele>1586.09</ele>
  <time>2026-08-28T19:09:20Z</time>
  <course>147.9</course>
  <speed>0.0</speed>
  <fix>3d</fix>
</trkpt>
<trkpt lat="40.0728419" lon="-105.2305749">
  <ele>1586.19</ele>
  <time>2026-08-28T19:09:20Z</time>
  <course>11.41</course>
  <speed>0.022360679774997897</speed>
  <fix>3d</fix>
</trkpt>
<trkpt lat="40.072842" lon="-105.230575">
  <ele>1586.09</ele>
  <time>2026-08-28T19:09:20Z</time>
  <course>147.9</course>
  <speed>0.0</speed>
  <fix>3d</fix>
</trkpt>
<trkpt lat="40.0728419" lon="-105.2305749">
  <ele>1586.19</ele>
  <time>2026-08-28T19:09:20Z</time>
  <course>11.41</course>
  <speed>0.022360679774997897</speed>
  <fix>3d</fix>
</trkpt>
<trkpt lat="40.072842" lon="-105.230575">
  <ele>1586.09</ele>
  <time>2026-08-28T19:09:20Z</time>
  <course>147.9</course>
  <speed>0.0</speed>
  <fix>3d</fix>
</trkpt>
<trkpt lat="40.0728419" lon="-105.2305749">
  <ele>1586.19</ele>
  <time>2026-08-28T19:09:20Z</time>
  <course>11.41</course>
  <speed>0.022360679774997897</speed>
  <fix>3d</fix>
</trkpt>
<trkpt lat="40.072842" lon="-105.230575">
  <ele>1586.09</ele>
  <time>2026-08-28T19:09:20Z</time>
  <course>147.9</course>
  <speed>0.0</speed>
  <fix>3d</fix>
</trkpt>
<trkpt lat="40.0728419" lon="-105.2305749">
  <ele>1586.19</ele>
  <time>2026-08-28T19:09:20Z</time>
  <course>11.41</course>
  <speed>0.022360679774997897</speed>
  <fix>3d</fix>
</trkpt>
<trkpt lat="40.072842" lon="-105.230575">
  <ele>1586.09</ele>
  <time>2026-08-28T19:09:20Z</time>
  <course>137.41</course>
  <speed>0.0</speed>
  <fix>3d</fix>
</trkpt>
<trkpt lat="40.0728419" lon="-105.2305749">
  <ele>1586.18</ele>
  <time>2026-08-28T19:09:20Z</time>
  <course>11.41</course>
  <speed>0.022360679774997897</speed>
  <fix>3d</fix>
</trkpt>
<trkpt lat="40.072842" lon="-105.230575">
  <ele>1586.09</ele>
  <time>2026-08-28T19:09:20Z</time>
  <course>136.98</course>
  <speed>0.0</speed>
  <fix>3d</fix>
</trkpt>
<trkpt lat="40.0728419" lon="-105.2305749">
  <ele>1586.18</ele>
  <time>2026-08-28T19:09:20Z</time>
  <course>11.41</course>
  <speed>0.022360679774997897</speed>
  <fix>3d</fix>
</trkpt>
<trkpt lat="40.072842" lon="-105.230575">
  <ele>1586.09</ele>
  <time>2026-08-28T19:09:20Z</time>
  <course>143.36</course>
  <speed>0.0</speed>
  <fix>3d</fix>
</trkpt>
<trkpt lat="40.0728419" lon="-105.2305749">
  <ele>1586.18</ele>
  <time>2026-08-28T19:09:20Z</time>
  <course>11.41</course>
  <speed>0.022360679774997897</speed>
  <fix>3d</fix>
</trkpt>
<trkpt lat="40.072842" lon="-105.230575">
  <ele>1586.09</ele>
  <time>2026-08-28T19:09:20Z</time>
  <course>173.89</course>
  <speed>0.0</speed>
  <fix>3d</fix>
</trkpt>
<trkpt lat="40.0728419" lon="-105.2305749">
  <ele>1586.18</ele>
  <time>2026-08-28T19:09:20Z</time>
  <course>11.41</course>
  <speed>0.022360679774997897</speed>
  <fix>3d</fix>
</trkpt>
<trkpt lat="40.072842" lon="-105.230575">
  <ele>1586.09</ele>
  <time>2026-08-28T19:09:20Z</time>
  <course>146.37</course>
  <speed>0.0</speed>
  <fix>3d</fix>
</trkpt>
<trkpt lat="40.0728419" lon="-105.2305749">
  <ele>1586.18</ele>
  <time>2026-08-28T19:09:20Z</time>
  <course>11.41</course>
  <speed>0.022360679774997897</speed>
  <fix>3d</fix>
</trkpt>
<trkpt lat="40.072842" lon="-105.230575">
  <ele>1586.09</ele>
  <time>2026-08-28T19:09:20Z</time>
  <course>145.74</course>
  <speed>0.0</speed>
  <fix>3d</fix>
</trkpt>
<trkpt lat="40.0728419" lon="-105.2305749">
  <ele>1586.18</ele>
  <time>2026-08-28T19:09:20Z</time>
  <course>11.41</course>
  <speed>0.01414213562373095</speed>
  <fix>3d</fix>
</trkpt>
<trkpt lat="40.072842" lon="-105.230575">
  <ele>1586.09</ele>
  <time>2026-08-28T19:09:20Z</time>
  <course>146.92</course>
  <speed>0.0</speed>
  <fix>3d</fix>
</trkpt>
<trkpt lat="40.0728419" lon="-105.2305749">
  <ele>1586.18</ele>
  <time>2026-08-28T19:09:20Z</time>
  <course>11.41</course>
  <speed>0.01414213562373095</speed>
  <fix>3d</fix>
</trkpt>
<trkpt lat="40.072842" lon="-105.230575">
  <ele>1586.09</ele>
  <time>2026-08-28T19:09:20Z</time>
  <course>146.86</course>
  <speed>0.0</speed>
  <fix>3d</fix>
</trkpt>
<trkpt lat="40.0728419" lon="-105.2305749">
  <ele>1586.18</ele>
  <time>2026-08-28T19:09:20Z</time>
  <course>11.41</course>
  <speed>0.01414213562373095</speed>
  <fix>3d</fix>
</trkpt>
<trkpt lat="40.072842" lon="-105.230575">
  <ele>1586.09</ele>
  <time>2026-08-28T19:09:20Z</time>
  <course>146.7</course>
  <speed>0.0</speed>
  <fix>3d</fix>
</trkpt>
<trkpt lat="40.0728419" lon="-105.2305749">
  <ele>1586.18</ele>
  <time>2026-08-28T19:09:20Z</time>
  <course>11.42</course>
  <speed>0.01414213562373095</speed>
  <fix>3d</fix>
</trkpt>
<trkpt lat="40.072842" lon="-105.230575">
  <ele>1586.09</ele>
  <time>2026-08-28T19:09:20Z</time>
  <course>146.73</course>
  <speed>0.0</speed>
  <fix>3d</fix>
</trkpt>
<trkpt lat="40.0728419" lon="-105.2305749">
  <ele>1586.19</ele>
  <time>2026-08-28T19:09:20Z</time>
  <course>11.42</course>
  <speed>0.01414213562373095</speed>
  <fix>3d</fix>
</trkpt>
<trkpt lat="40.072842" lon="-105.230575">
  <ele>1586.09</ele>
  <time>2026-08-28T19:09:20Z</time>
  <course>146.75</course>
  <speed>0.0</speed>
  <fix>3d</fix>
</trkpt>
<trkpt lat="40.0728419" lon="-105.2305749">
  <ele>1586.19</ele>
  <time>2026-08-28T19:09:20Z</time>
  <course>11.42</course>
  <speed>0.01414213562373095</speed>
  <fix>3d</fix>
</trkpt>
<trkpt lat="40.072842" lon="-105.230575">
  <ele>1586.09</ele>
  <time>2026-08-28T19:09:20Z</time>
  <course>146.75</course>
  <speed>0.0</speed>
  <fix>3d</fix>
</trkpt>
<trkpt lat="40.0728419" lon="-105.2305749">
  <ele>1586.19</ele>
  <time>2026-08-28T19:09:20Z</time>
  <course>11.42</course>
  <speed>0.01414213562373095</speed>
  <fix>3d</fix>
</trkpt>
<trkpt lat="40.072842" lon="-105.230575">
  <ele>1586.09</ele>
  <time>2026-08-28T19:09:20Z</time>
  <course>146.75</course>
  <speed>0.0</speed>
  <fix>3d</fix>
</trkpt>
<trkpt lat="40.0728419" lon="-105.2305749">
  <ele>1586.19</ele>
  <time>2026-08-28T19:09:20Z</time>
  <course>11.42</course>
  <speed>0.01414213562373095</speed>
  <fix>3d</fix>
</trkpt>
<trkpt lat="40.072842" lon="-105.230575">
  <ele>1586.09</ele>
  <time>2026-08-28T19:09:20Z</time>
  <course>146.76</course>
  <speed>0.0</speed>
  <fix>3d</fix>
</trkpt>
<trkpt lat="40.0728419" lon="-105.2305749">
  <ele>1586.19</ele>
  <time>2026-08-28T19:09:20Z</time>
  <course>11.42</course>
  <speed>0.01414213562373095</speed>
  <fix>3d</fix>
</trkpt>
<trkpt lat="40.072842" lon="-105.230575">
  <ele>1586.09</ele>
  <time>2026-08-28T19:09:20Z</time>
  <course>146.76</course>
  <speed>0.0</speed>
  <fix>3d</fix>
</trkpt>
<trkpt lat="40.0728419" lon="-105.2305749">
  <ele>1586.19</ele>
  <time>2026-08-28T19:09:20Z</time>
  <course>11.42</course>
  <speed>0.01414213562373095</speed>
  <fix>3d</fix>
</trkpt>
<trkpt lat="40.072842" lon="-105.230575">
  <ele>1586.09</ele>
  <time>2026-08-28T19:09:20Z</time>
  <course>146.76</course>
  <speed>0.0</speed>
  <fix>3d</fix>
</trkpt>
<trkpt lat="40.0728419" lon="-105.2305749">
  <ele>1586.19</ele>
  <time>2026-08-28T19:09:20Z</time>
  <course>11.42</course>
  <speed>0.01414213562373095</speed>
  <fix>3d</fix>
</trkpt>
<trkpt lat="40.072842" lon="-105.230575">
  <ele>1586.09</ele>
  <time>2026-08-28T19:09:20Z</time>
  <course>142.85</course>
  <speed>0.0</speed>
  <fix>3d</fix>
</trkpt>
<trkpt lat="40.0728419" lon="-105.2305749">
  <ele>1586.19</ele>
  <time>2026-08-28T19:09:20Z</time>
  <course>11.42</course>
  <speed>0.01414213562373095</speed>
  <fix>3d</fix>
</trkpt>
<trkpt lat="40.072842" lon="-105.230575">
  <ele>1586.09</ele>
  <time>2026-08-28T19:09:20Z</time>
  <course>137.66</course>
  <speed>0.0</speed>
  <fix>3d</fix>
</trkpt>
<trkpt lat="40.0728419" lon="-105.2305749">
  <ele>1586.19</ele>
  <time>2026-08-28T19:09:20Z</time>
  <course>11.42</course>
  <speed>0.01414213562373095</speed>
  <fix>3d</fix>
</trkpt>
<trkpt lat="40.072842" lon="-105.230575">
  <ele>1586.09</ele>
  <time>2026-08-28T19:09:20Z</time>
  <course>138.27</course>
  <speed>0.0</speed>
  <fix>3d</fix>
</trkpt>
<trkpt lat="40.0728419" lon="-105.2305749">
  <ele>1586.19</ele>
  <time>2026-08-28T19:09:20Z</time>
  <course>11.42</course>
  <speed>0.01414213562373095</speed>
  <fix>3d</fix>
</trkpt>
<trkpt lat="40.072842" lon="-105.230575">
  <ele>1586.09</ele>
  <time>2026-08-28T19:09:20Z</time>
  <course>169.36</course>
  <speed>0.0</speed>
  <fix>3d</fix>
</trkpt>
<trkpt lat="40.0728419" lon="-105.2305749">
  <ele>1586.19</ele>
  <time>2026-08-28T19:09:20Z</time>
  <course>11.42</course>
  <speed>0.01414213562373095</speed>
  <fix>3d</fix>
</trkpt>
<trkpt lat="40.072842" lon="-105.230575">
  <ele>1586.09</ele>
  <time>2026-08-28T19:09:20Z</time>
  <course>149.04</course>
  <speed>0.0</speed>
  <fix>3d</fix>
</trkpt>
<trkpt lat="40.0728419" lon="-105.2305749">
  <ele>1586.18</ele>
  <time>2026-08-28T19:09:20Z</time>
  <course>11.42</course>
  <speed>0.01414213562373095</speed>
  <fix>3d</fix>
</trkpt>
<trkpt lat="40.072842" lon="-105.230575">
  <ele>1586.09</ele>
  <time>2026-08-28T19:09:20Z</time>
  <course>144.64</course>
  <speed>0.0</speed>
  <fix>3d</fix>
</trkpt>
<trkpt lat="40.0728419" lon="-105.2305749">
  <ele>1586.18</ele>
  <time>2026-08-28T19:09:20Z</time>
  <course>11.43</course>
  <speed>0.01414213562373095</speed>
  <fix>3d</fix>
</trkpt>
<trkpt lat="40.072842" lon="-105.230575">
  <ele>1586.09</ele>
  <time>2026-08-28T19:09:20Z</time>
  <course>145.64</course>
  <speed>0.0</speed>
  <fix>3d</fix>
</trkpt>
<trkpt lat="40.0728419" lon="-105.2305749">
  <ele>1586.18</ele>
  <time>2026-08-28T19:09:20Z</time>
  <course>11.43</course>
  <speed>0.01414213562373095</speed>
  <fix>3d</fix>
</trkpt>
<trkpt lat="40.072842" lon="-105.230575">
  <ele>1586.09</ele>
  <time>2026-08-28T19:09:20Z</time>
  <course>146.01</course>
  <speed>0.0</speed>
  <fix>3d</fix>
</trkpt>
<trkpt lat="40.0728419" lon="-105.2305749">
  <ele>1586.18</ele>
  <time>2026-08-28T19:09:20Z</time>
  <course>11.43</course>
  <speed>0.01414213562373095</speed>
  <fix>3d</fix>
</trkpt>
<trkpt lat="40.072842" lon="-105.230575">
  <ele>1586.09</ele>
  <time>2026-08-28T19:09:20Z</time>
  <course>145.82</course>
  <speed>0.0</speed>
  <fix>3d</fix>
</trkpt>
<trkpt lat="40.0728419" lon="-105.2305749">
  <ele>1586.18</ele>
  <time>2026-08-28T19:09:20Z</time>
  <course>11.43</course>
  <speed>0.01414213562373095</speed>
  <fix>3d</fix>
</trkpt>
<trkpt lat="40.072842" lon="-105.230575">
  <ele>1586.09</ele>
  <time>2026-08-28T19:09:20Z</time>
  <course>145.79</course>
  <speed>0.0</speed>
  <fix>3d</fix>
</trkpt>
<trkpt lat="40.0728419" lon="-105.2305749">
  <ele>1586.18</ele>
  <time>2026-08-28T19:09:20Z</time>
  <course>11.43</course>
  <speed>0.01414213562373095</speed>
  <fix>3d</fix>
</trkpt>
<trkpt lat="40.072842" lon="-105.230575">
  <ele>1586.09</ele>
  <time>2026-08-28T19:09:20Z</time>
  <course>145.83</course>
  <speed>0.0</speed>
  <fix>3d</fix>
</trkpt>
<trkpt lat="40.0728419" lon="-105.2305749">
  <ele>1586.18</ele>
  <time>2026-08-28T19:09:20Z</time>
  <course>11.43</course>
  <speed>0.01414213562373095</speed>
  <fix>3d</fix>
</trkpt>
<trkpt lat="40.072842" lon="-105.230575">
  <ele>1586.09</ele>
  <time>2026-08-28T19:09:20Z</time>
  <course>145.83</course>
  <speed>0.0</speed>
  <fix>3d</fix>
</trkpt>
<trkpt lat="40.0728419" lon="-105.2305749">
  <ele>1586.18</ele>
  <time>2026-08-28T19:09:20Z</time>
  <course>11.43</course>
  <speed>0.01414213562373095</speed>
  <fix>3d</fix>
</trkpt>
<trkpt lat="40.072842" lon="-105.230575">
  <ele>1586.09</ele>
  <time>2026-08-28T19:09:20Z</time>
  <course>145.83</course>
  <speed>0.0</speed>
  <fix>3d</fix>
</trkpt>
<trkpt lat="40.0728419" lon="-105.2305749">
  <ele>1586.17</ele>
  <time>2026-08-28T19:09:20Z</time>
  <course>11.43</course>
  <speed>0.01414213562373095</speed>
  <fix>3d</fix>
</trkpt>
<trkpt lat="40.072842" lon="-105.230575">
  <ele>1586.09</ele>
  <time>2026-08-28T19:09:20Z</time>
  <course>145.83</course>
  <speed>0.0</speed>
  <fix>3d</fix>
</trkpt>
<trkpt lat="40.0728419" lon="-105.2305749">
  <ele>1586.17</ele>
  <time>2026-08-28T19:09:20Z</time>
  <course>11.43</course>
  <speed>0.01414213562373095</speed>
  <fix>3d</fix>
</trkpt>
<trkpt lat="40.072842" lon="-105.230575">
  <ele>1586.09</ele>
  <time>2026-08-28T19:09:20Z</time>
  <course>145.84</course>
  <speed>0.0</speed>
  <fix>3d</fix>
</trkpt>
<trkpt lat="40.0728419" lon="-105.2305749">
  <ele>1586.18</ele>
  <time>2026-08-28T19:09:20Z</time>
  <course>11.43</course>
  <speed>0.01414213562373095</speed>
  <fix>3d</fix>
</trkpt>
<trkpt lat="40.072842" lon="-105.230575">
  <ele>1586.09</ele>
  <time>2026-08-28T19:09:20Z</time>
  <course>325.55</course>
  <speed>0.0</speed>
  <fix>3d</fix>
</trkpt>
<trkpt lat="40.0728419" lon="-105.2305749">
  <ele>1586.2</ele>
  <time>2026-08-28T19:09:20Z</time>
  <course>11.43</course>
  <speed>0.01414213562373095</speed>
  <fix>3d</fix>
</trkpt>
<trkpt lat="40.072842" lon="-105.230575">
  <ele>1586.11</ele>
  <time>2026-08-28T19:09:20Z</time>
  <course>325.51</course>
  <speed>0.0</speed>
  <fix>3d</fix>
</trkpt>
<trkpt lat="40.0728419" lon="-105.2305749">
  <ele>1586.22</ele>
  <time>2026-08-28T19:09:20Z</time>
  <course>11.43</course>
  <speed>0.01414213562373095</speed>
  <fix>3d</fix>
</trkpt>
<trkpt lat="40.072842" lon="-105.230575">
  <ele>1586.13</ele>
  <time>2026-08-28T19:09:20Z</time>
  <course>323.81</course>
  <speed>0.0</speed>
  <fix>3d</fix>
</trkpt>
<trkpt lat="40.0728419" lon="-105.2305749">
  <ele>1586.24</ele>
  <time>2026-08-28T19:09:20Z</time>
  <course>11.43</course>
  <speed>0.01414213562373095</speed>
  <fix>3d</fix>
</trkpt>
<trkpt lat="40.072842" lon="-105.230575">
  <ele>1586.15</ele>
  <time>2026-08-28T19:09:20Z</time>
  <course>146.21</course>
  <speed>0.0</speed>
  <fix>3d</fix>
</trkpt>
<trkpt lat="40.0728419" lon="-105.2305749">
  <ele>1586.24</ele>
  <time>2026-08-28T19:09:20Z</time>
  <course>11.42</course>
  <speed>0.01414213562373095</speed>
  <fix>3d</fix>
</trkpt>
<trkpt lat="40.0728419" lon="-105.2305749">
  <ele>1586.25</ele>
  <time>2026-08-28T19:09:20Z</time>
  <course>11.42</course>
  <speed>0.01414213562373095</speed>
  <fix>3d</fix>
</trkpt>
<trkpt lat="40.072842" lon="-105.230575">
  <ele>1586.16</ele>
  <time>2026-08-28T19:09:20Z</time>
  <course>322.72</course>
  <speed>0.0</speed>
  <fix>3d</fix>
</trkpt>
<trkpt lat="40.0728419" lon="-105.2305749">
  <ele>1586.25</ele>
  <time>2026-08-28T19:09:20Z</time>
  <course>11.42</course>
  <speed>0.01414213562373095</speed>
  <fix>3d</fix>
</trkpt>
<trkpt lat="40.0728419" lon="-105.2305749">
  <ele>1586.27</ele>
  <time>2026-08-28T19:09:20Z</time>
  <course>11.42</course>
  <speed>0.01414213562373095</speed>
  <fix>3d</fix>
</trkpt>
<trkpt lat="40.072842" lon="-105.230575">
  <ele>1586.17</ele>
  <time>2026-08-28T19:09:20Z</time>
  <course>323.44</course>
  <speed>0.0</speed>
  <fix>3d</fix>
</trkpt>
<trkpt lat="40.0728419" lon="-105.2305749">
  <ele>1586.27</ele>
  <time>2026-08-28T19:09:20Z</time>
  <course>11.42</course>
  <speed>0.01414213562373095</speed>
  <fix>3d</fix>
</trkpt>
<trkpt lat="40.0728419" lon="-105.2305749">
  <ele>1586.28</ele>
  <time>2026-08-28T19:09:20Z</time>
  <course>11.42</course>
  <speed>0.01414213562373095</speed>
  <fix>3d</fix>
</trkpt>
<trkpt lat="40.072842" lon="-105.230575">
  <ele>1586.19</ele>
  <time>2026-08-28T19:09:20Z</time>
  <course>317.39</course>
  <speed>0.0</speed>
  <fix>3d</fix>
</trkpt>
<trkpt lat="40.0728419" lon="-105.2305749">
  <ele>1586.28</ele>
  <time>2026-08-28T19:09:20Z</time>
  <course>11.42</course>
  <speed>0.01414213562373095</speed>
  <fix>3d</fix>
</trkpt>
<trkpt lat="40.0728419" lon="-105.2305749">
  <ele>1586.29</ele>
  <time>2026-08-28T19:09:20Z</time>
  <course>11.41</course>
  <speed>0.01414213562373095</speed>
  <fix>3d</fix>
</trkpt>
<trkpt lat="40.072842" lon="-105.230575">
  <ele>1586.2</ele>
  <time>2026-08-28T19:09:20Z</time>
  <course>318.8</course>
  <speed>0.0</speed>
  <fix>3d</fix>
</trkpt>
<trkpt lat="40.0728419" lon="-105.2305749">
  <ele>1586.29</ele>
  <time>2026-08-28T19:09:20Z</time>
  <course>11.41</course>
  <speed>0.01414213562373095</speed>
  <fix>3d</fix>
</trkpt>
<trkpt lat="40.0728419" lon="-105.2305749">
  <ele>1586.34</ele>
  <time>2026-08-28T19:09:20Z</time>
  <course>11.42</course>
  <speed>0.0</speed>
  <fix>3d</fix>
</trkpt>
<trkpt lat="40.072842" lon="-105.230575">
  <ele>1586.22</ele>
  <time>2026-08-28T19:09:20Z</time>
  <course>313.23</course>
  <speed>0.0</speed>
  <fix>3d</fix>
</trkpt>
<trkpt lat="40.0728419" lon="-105.2305749">
  <ele>1586.36</ele>
  <time>2026-08-28T19:09:20Z</time>
  <course>11.42</course>
  <speed>0.01</speed>
  <fix>3d</fix>
</trkpt>
<trkpt lat="40.0728419" lon="-105.2305749">
  <ele>1586.6</ele>
  <time>2026-08-28T19:09:20Z</time>
  <course>11.35</course>
  <speed>0.0670820393249937</speed>
  <fix>3d</fix>
</trkpt>
<trkpt lat="40.072842" lon="-105.230575">
  <ele>1586.33</ele>
  <time>2026-08-28T19:09:20Z</time>
  <course>318.99</course>
  <speed>0.04</speed>
  <fix>3d</fix>
</trkpt>
<trkpt lat="40.072842" lon="-105.2305749">
  <ele>1586.64</ele>
  <time>2026-08-28T19:09:20Z</time>
  <course>11.35</course>
  <speed>0.07211102550927978</speed>
  <fix>3d</fix>
</trkpt>
<trkpt lat="40.0728421" lon="-105.2305751">
  <ele>1586.91</ele>
  <time>2026-08-28T19:09:20Z</time>
  <course>11.3</course>
  <speed>0.11661903789690602</speed>
  <fix>3d</fix>
</trkpt>
<trkpt lat="40.0728421" lon="-105.2305751">
  <ele>1586.59</ele>
  <time>2026-08-28T19:09:20Z</time>
  <course>317.9</course>
  <speed>0.11</speed>
  <fix>3d</fix>
</trkpt>
<trkpt lat="40.0728421" lon="-105.2305751">
  <ele>1586.95</ele>
  <time>2026-08-28T19:09:20Z</time>
  <course>11.3</course>
  <speed>0.130384048104053</speed>
  <fix>3d</fix>
</trkpt>
<trkpt lat="40.0728424" lon="-105.2305753">
  <ele>1587.21</ele>
  <time>2026-08-28T19:09:20Z</time>
  <course>11.26</course>
  <speed>0.1664331697709324</speed>
  <fix>3d</fix>
</trkpt>
<trkpt lat="40.0728423" lon="-105.2305753">
  <ele>1586.9</ele>
  <time>2026-08-28T19:09:20Z</time>
  <course>316.41</course>
  <speed>0.16</speed>
  <fix>3d</fix>
</trkpt>
<trkpt lat="40.0728424" lon="-105.2305753">
  <ele>1587.21</ele>
  <time>2026-08-28T19:09:20Z</time>
  <course>11.26</course>
  <speed>0.1664331697709324</speed>
  <fix>3d</fix>
</trkpt>
<trkpt lat="40.0728427" lon="-105.2305756">
  <ele>1587.52</ele>
  <time>2026-08-28T19:09:21Z</time>
  <course>11.25</course>
  <speed>0.20808652046684814</speed>
  <fix>3d</fix>
</trkpt>
<trkpt lat="40.0728425" lon="-105.2305756">
  <ele>1587.2</ele>
  <time>2026-08-28T19:09:21Z</time>
  <course>315.97</course>
  <speed>0.21</speed>
  <fix>3d</fix>
</trkpt>
<trkpt lat="40.0728427" lon="-105.2305757">
  <ele>1587.57</ele>
  <time>2026-08-28T19:09:21Z</time>
  <course>11.25</course>
  <speed>0.21633307652783937</speed>
  <fix>3d</fix>
</trkpt>
<trkpt lat="40.072843" lon="-105.230576">
  <ele>1587.86</ele>
  <time>2026-08-28T19:09:21Z</time>
  <course>11.25</course>
  <speed>0.24413111231467405</speed>
  <fix>3d</fix>
</trkpt>
<trkpt lat="40.0728428" lon="-105.230576">
  <ele>1587.52</ele>
  <time>2026-08-28T19:09:21Z</time>
  <course>315.65</course>
  <speed>0.25</speed>
  <fix>3d</fix>
</trkpt>
<trkpt lat="40.072843" lon="-105.2305761">
  <ele>1587.9</ele>
  <time>2026-08-28T19:09:21Z</time>
  <course>11.25</course>
  <speed>0.24413111231467405</speed>
  <fix>3d</fix>
</trkpt>
<trkpt lat="40.0728434" lon="-105.2305765">
  <ele>1588.21</ele>
  <time>2026-08-28T19:09:21Z</time>
  <course>11.25</course>
  <speed>0.2720294101747089</speed>
  <fix>3d</fix>
</trkpt>
<trkpt lat="40.0728431" lon="-105.2305764">
  <ele>1587.85</ele>
  <time>2026-08-28T19:09:21Z</time>
  <course>315.44</course>
  <speed>0.28</speed>
  <fix>3d</fix>
</trkpt>
<trkpt lat="40.0728434" lon="-105.2305765">
  <ele>1588.26</ele>
  <time>2026-08-28T19:09:21Z</time>
  <course>11.25</course>
  <speed>0.2780287754891569</speed>
  <fix>3d</fix>
</trkpt>
<trkpt lat="40.0728438" lon="-105.230577">
  <ele>1588.57</ele>
  <time>2026-08-28T19:09:21Z</time>
  <course>11.25</course>
  <speed>0.3</speed>
  <fix>3d</fix>
</trkpt>
<trkpt lat="40.0728436" lon="-105.2305769">
  <ele>1588.19</ele>
  <time>2026-08-28T19:09:21Z</time>
  <course>315.32</course>
  <speed>0.31</speed>
  <fix>3d</fix>
</trkpt>
<trkpt lat="40.0728438" lon="-105.230577">
  <ele>1588.62</ele>
  <time>2026-08-28T19:09:21Z</time>
  <course>11.25</course>
  <speed>0.30610455730027936</speed>
  <fix>3d</fix>
</trkpt>
<trkpt lat="40.0728442" lon="-105.2305775">
  <ele>1588.93</ele>
  <time>2026-08-28T19:09:21Z</time>
  <course>9.87</course>
  <speed>0.3280243893371345</speed>
  <fix>3d</fix>
</trkpt>
<trkpt lat="40.072844" lon="-105.2305775">
  <ele>1588.55</ele>
  <time>2026-08-28T19:09:21Z</time>
  <course>315.25</course>
  <speed>0.34</speed>
  <fix>3d</fix>
</trkpt>
<trkpt lat="40.0728443" lon="-105.2305776">
  <ele>1588.98</ele>
  <time>2026-08-28T19:09:21Z</time>
  <course>9.88</course>
  <speed>0.3280243893371345</speed>
  <fix>3d</fix>
</trkpt>
<trkpt lat="40.0728447" lon="-105.2305781">
  <ele>1589.31</ele>
  <time>2026-08-28T19:09:21Z</time>
  <course>9.9</course>
  <speed>0.34828149534535996</speed>
  <fix>3d</fix>
</trkpt>
<trkpt lat="40.0728444" lon="-105.2305781">
  <ele>1588.9</ele>
  <time>2026-08-28T19:09:21Z</time>
  <course>315.22</course>
  <speed>0.36</speed>
  <fix>3d</fix>
</trkpt>
<trkpt lat="40.0728447" lon="-105.2305781">
  <ele>1589.32</ele>
  <time>2026-08-28T19:09:21Z</time>
  <course>9.9</course>
  <speed>0.34828149534535996</speed>
  <fix>3d</fix>
</trkpt>
<trkpt lat="40.0728452" lon="-105.2305788">
  <ele>1589.69</ele>
  <time>2026-08-28T19:09:21Z</time>
  <course>9.93</course>
  <speed>0.36235341863986875</speed>
  <fix>3d</fix>
</trkpt>
<trkpt lat="40.0728449" lon="-105.2305787">
  <ele>1589.28</ele>
  <time>2026-08-28T19:09:21Z</time>
  <course>315.22</course>
  <speed>0.38</speed>
  <fix>3d</fix>
</trkpt>
<trkpt lat="40.0728453" lon="-105.2305788">
  <ele>1589.74</ele>
  <time>2026-08-28T19:09:21Z</time>
  <course>9.93</course>
  <speed>0.36235341863986875</speed>
  <fix>3d</fix>
</trkpt>
<trkpt lat="40.0728457" lon="-105.2305794">
  <ele>1590.08</ele>
  <time>2026-08-28T19:09:21Z</time>
  <course>9.95</course>
  <speed>0.3687817782917155</speed>
  <fix>3d</fix>
</trkpt>
<trkpt lat="40.0728454" lon="-105.2305793">
  <ele>1589.65</ele>
  <time>2026-08-28T19:09:21Z</time>
  <course>315.23</course>
  <speed>0.39</speed>
  <fix>3d</fix>
</trkpt>
<trkpt lat="40.0728458" lon="-105.2305795">
  <ele>1590.13</ele>
  <time>2026-08-28T19:09:21Z</time>
  <course>9.96</course>
  <speed>0.3687817782917155</speed>
  <fix>3d</fix>
</trkpt>
<trkpt lat="40.0728462" lon="-105.2305801">
  <ele>1590.47</ele>
  <time>2026-08-28T19:09:21Z</time>
  <course>9.98</course>
  <speed>0.3828837943815329</speed>
  <fix>3d</fix>
</trkpt>
<trkpt lat="40.0728459" lon="-105.23058">
  <ele>1590.04</ele>
  <time>2026-08-28T19:09:21Z</time>
  <course>315.24</course>
  <speed>0.41</speed>
  <fix>3d</fix>
</trkpt>
<trkpt lat="40.0728463" lon="-105.2305802">
  <ele>1590.52</ele>
  <time>2026-08-28T19:09:21Z</time>
  <course>9.98</course>
  <speed>0.3828837943815329</speed>
  <fix>3d</fix>
</trkpt>
<trkpt lat="40.0728467" lon="-105.2305808">
  <ele>1590.86</ele>
  <time>2026-08-28T19:09:21Z</time>
  <course>9.99</course>
  <speed>0.38948684188300897</speed>
  <fix>3d</fix>
</trkpt>
<trkpt lat="40.0728464" lon="-105.2305807">
  <ele>1590.42</ele>
  <time>2026-08-28T19:09:21Z</time>
  <course>315.26</course>
  <speed>0.41</speed>
  <fix>3d</fix>
</trkpt>
<trkpt lat="40.0728467" lon="-105.2305808">
  <ele>1590.87</ele>
  <time>2026-08-28T19:09:21Z</time>
  <course>9.99</course>
  <speed>0.38948684188300897</speed>
  <fix>3d</fix>
</trkpt>
<trkpt lat="40.0728473" lon="-105.2305815">
  <ele>1591.26</ele>
  <time>2026-08-28T19:09:21Z</time>
  <course>9.99</course>
  <speed>0.396232255123179</speed>
  <fix>3d</fix>
</trkpt>
<trkpt lat="40.0728469" lon="-105.2305814">
  <ele>1590.82</ele>
  <time>2026-08-28T19:09:21Z</time>
  <course>315.27</course>
  <speed>0.42</speed>
  <fix>3d</fix>
</trkpt>
<trkpt lat="40.0728473" lon="-105.2305816">
  <ele>1591.32</ele>
  <time>2026-08-28T19:09:21Z</time>
  <course>9.99</course>
  <speed>0.396232255123179</speed>
  <fix>3d</fix>
</trkpt>
<trkpt lat="40.0728478" lon="-105.2305822">
  <ele>1591.67</ele>
  <time>2026-08-28T19:09:21Z</time>
  <course>9.98</course>
  <speed>0.40311288741492746</speed>
  <fix>3d</fix>
</trkpt>
<trkpt lat="40.0728475" lon="-105.2305821">
  <ele>1591.22</ele>
  <time>2026-08-28T19:09:21Z</time>
  <course>315.29</course>
  <speed>0.43</speed>
  <fix>3d</fix>
</trkpt>
<trkpt lat="40.0728478" lon="-105.2305822">
  <ele>1591.67</ele>
  <time>2026-08-28T19:09:21Z</time>
  <course>9.98</course>
  <speed>0.40311288741492746</speed>
  <fix>3d</fix>
</trkpt>
<trkpt lat="40.0728483" lon="-105.230583">
  <ele>1592.07</ele>
  <time>2026-08-28T19:09:21Z</time>
  <course>9.97</course>
  <speed>0.41012193308819755</speed>
  <fix>3d</fix>
</trkpt>
<trkpt lat="40.0728481" lon="-105.2305828">
  <ele>1591.62</ele>
  <time>2026-08-28T19:09:21Z</time>
  <course>315.31</course>
  <speed>0.43</speed>
  <fix>3d</fix>
</trkpt>
<trkpt lat="40.0728484" lon="-105.2305831">
  <ele>1592.13</ele>
  <time>2026-08-28T19:09:21Z</time>
  <course>9.97</course>
  <speed>0.41012193308819755</speed>
  <fix>3d</fix>
</trkpt>
<trkpt lat="40.0728489" lon="-105.2305837">
  <ele>1592.48</ele>
  <time>2026-08-28T19:09:21Z</time>
  <course>9.97</course>
  <speed>0.40311288741492746</speed>
  <fix>3d</fix>
</trkpt>
<trkpt lat="40.0728486" lon="-105.2305835">
  <ele>1592.02</ele>
  <time>2026-08-28T19:09:21Z</time>
  <course>315.33</course>
  <speed>0.43</speed>
  <fix>3d</fix>
</trkpt>
<trkpt lat="40.0728489" lon="-105.2305838">
  <ele>1592.54</ele>
  <time>2026-08-28T19:09:21Z</time>
  <course>9.96</course>
  <speed>0.40311288741492746</speed>
  <fix>3d</fix>
</trkpt>
<trkpt lat="40.0728494" lon="-105.2305845">
  <ele>1592.9</ele>
  <time>2026-08-28T19:09:21Z</time>
  <course>9.95</course>
  <speed>0.41036569057366384</speed>
  <fix>3d</fix>
</trkpt>
<trkpt lat="40.0728491" lon="-105.2305842">
  <ele>1592.43</ele>
  <time>2026-08-28T19:09:21Z</time>
  <course>315.48</course>
  <speed>0.43</speed>
  <fix>3d</fix>
</trkpt>
<trkpt lat="40.0728494" lon="-105.2305845">
  <ele>1592.9</ele>
  <time>2026-08-28T19:09:21Z</time>
  <course>9.95</course>
  <speed>0.41036569057366384</speed>
  <fix>3d</fix>
</trkpt>
<trkpt lat="40.0728499" lon="-105.2305852">
  <ele>1593.32</ele>
  <time>2026-08-28T19:09:21Z</time>
  <course>9.94</course>
  <speed>0.41036569057366384</speed>
  <fix>3d</fix>
</trkpt>
<trkpt lat="40.0728497" lon="-105.2305849">
  <ele>1592.84</ele>
  <time>2026-08-28T19:09:21Z</time>
  <course>315.88</course>
  <speed>0.42</speed>
  <fix>3d</fix>
</trkpt>
<trkpt lat="40.07285" lon="-105.2305853">
  <ele>1593.37</ele>
  <time>2026-08-28T19:09:21Z</time>
  <course>9.93</course>
  <speed>0.41036569057366384</speed>
  <fix>3d</fix>
</trkpt>
<trkpt lat="40.0728505" lon="-105.2305859">
  <ele>1593.74</ele>
  <time>2026-08-28T19:09:21Z</time>
  <course>9.92</course>
  <speed>0.40311288741492746</speed>
  <fix>3d</fix>
</trkpt>
<trkpt lat="40.0728503" lon="-105.2305856">
  <ele>1593.26</ele>
  <time>2026-08-28T19:09:21Z</time>
  <course>316.32</course>
  <speed>0.42</speed>
  <fix>3d</fix>
</trkpt>
<trkpt lat="40.0728506" lon="-105.230586">
  <ele>1593.8</ele>
  <time>2026-08-28T19:09:21Z</time>
  <course>9.91</course>
  <speed>0.40311288741492746</speed>
  <fix>3d</fix>
</trkpt>
<trkpt lat="40.072851" lon="-105.2305866">
  <ele>1594.17</ele>
  <time>2026-08-28T19:09:21Z</time>
  <course>9.89</course>
  <speed>0.40311288741492746</speed>
  <fix>3d</fix>
</trkpt>
<trkpt lat="40.0728508" lon="-105.2305863">
  <ele>1593.67</ele>
  <time>2026-08-28T19:09:21Z</time>
  <course>316.61</course>
  <speed>0.42</speed>
  <fix>3d</fix>
</trkpt>
<trkpt lat="40.072851" lon="-105.2305866">
  <ele>1594.17</ele>
  <time>2026-08-28T19:09:21Z</time>
  <course>9.89</course>
  <speed>0.40311288741492746</speed>
  <fix>3d</fix>
</trkpt>
<trkpt lat="40.0728516" lon="-105.2305873">
  <ele>1594.59</ele>
  <time>2026-08-28T19:09:21Z</time>
  <course>9.88</course>
  <speed>0.40311288741492746</speed>
  <fix>3d</fix>
</trkpt>
<trkpt lat="40.0728514" lon="-105.230587">
  <ele>1594.09</ele>
  <time>2026-08-28T19:09:21Z</time>
  <course>316.84</course>
  <speed>0.41</speed>
  <fix>3d</fix>
</trkpt>
<trkpt lat="40.0728516" lon="-105.2305874">
  <ele>1594.64</ele>
  <time>2026-08-28T19:09:21Z</time>
  <course>9.87</course>
  <speed>0.40311288741492746</speed>
  <fix>3d</fix>
</trkpt>
<trkpt lat="40.0728521" lon="-105.230588">
  <ele>1595.0</ele>
  <time>2026-08-28T19:09:21Z</time>
  <course>9.87</course>
  <speed>0.396232255123179</speed>
  <fix>3d</fix>
</trkpt>
<trkpt lat="40.0728519" lon="-105.2305877">
  <ele>1594.51</ele>
  <time>2026-08-28T19:09:21Z</time>
  <course>317.07</course>
  <speed>0.41</speed>
  <fix>3d</fix>
</trkpt>
<trkpt lat="40.0728521" lon="-105.230588">
  <ele>1595.01</ele>
  <time>2026-08-28T19:09:21Z</time>
  <course>9.87</course>
  <speed>0.396232255123179</speed>
  <fix>3d</fix>
</trkpt>
<trkpt lat="40.0728527" lon="-105.2305887">
  <ele>1595.43</ele>
  <time>2026-08-28T19:09:21Z</time>
  <course>9.87</course>
  <speed>0.3889730067755345</speed>
  <fix>3d</fix>
</trkpt>
<trkpt lat="40.0728524" lon="-105.2305883">
  <ele>1594.93</ele>
  <time>2026-08-28T19:09:21Z</time>
  <course>317.3</course>
  <speed>0.4</speed>
  <fix>3d</fix>
</trkpt>
<trkpt lat="40.0728527" lon="-105.2305887">
  <ele>1595.46</ele>
  <time>2026-08-28T19:09:21Z</time>
  <course>9.87</course>
  <speed>0.3889730067755345</speed>
  <fix>3d</fix>
</trkpt>
<trkpt lat="40.0728532" lon="-105.2305893">
  <ele>1595.72</ele>
  <time>2026-08-28T19:09:21Z</time>
  <course>9.87</course>
  <speed>0.3889730067755345</speed>
  <fix>3d</fix>
</trkpt>
<trkpt lat="40.072853" lon="-105.230589">
  <ele>1595.33</ele>
  <time>2026-08-28T19:09:21Z</time>
  <course>317.46</course>
  <speed>0.4</speed>
  <fix>3d</fix>
</trkpt>
<trkpt lat="40.0728537" lon="-105.23059">
  <ele>1595.61</ele>
  <time>2026-08-28T19:09:21Z</time>
  <course>9.87</course>
  <speed>0.3889730067755345</speed>
  <fix>3d</fix>
</trkpt>
<trkpt lat="40.0728535" lon="-105.2305896">
  <ele>1595.51</ele>
  <time>2026-08-28T19:09:21Z</time>
  <course>317.51</course>
  <speed>0.39</speed>
  <fix>3d</fix>
</trkpt>
<trkpt lat="40.0728543" lon="-105.2305906">
  <ele>1595.12</ele>
  <time>2026-08-28T19:09:21Z</time>
  <course>9.88</course>
  <speed>0.3889730067755345</speed>
  <fix>3d</fix>
</trkpt>
<trkpt lat="40.0728541" lon="-105.2305902">
  <ele>1595.31</ele>
  <time>2026-08-28T19:09:21Z</time>
  <course>317.5</course>
  <speed>0.39</speed>
  <fix>3d</fix>
</trkpt>
<trkpt lat="40.0728548" lon="-105.2305912">
  <ele>1594.43</ele>
  <time>2026-08-28T19:09:21Z</time>
  <course>9.9</course>
  <speed>0.3818376618407357</speed>
  <fix>3d</fix>
</trkpt>
<trkpt lat="40.0728546" lon="-105.2305909">
  <ele>1594.76</ele>
  <time>2026-08-28T19:09:21Z</time>
  <course>317.59</course>
  <speed>0.38</speed>
  <fix>3d</fix>
</trkpt>
<trkpt lat="40.0728553" lon="-105.2305918">
  <ele>1593.94</ele>
  <time>2026-08-28T19:09:21Z</time>
  <course>9.92</course>
  <speed>0.33241540277189324</speed>
  <fix>3d</fix>
</trkpt>
<trkpt lat="40.0728551" lon="-105.2305915">
  <ele>1594.13</ele>
  <time>2026-08-28T19:09:21Z</time>
  <course>318.18</course>
  <speed>0.36</speed>
  <fix>3d</fix>
</trkpt>
<trkpt lat="40.0728557" lon="-105.2305923">
  <ele>1593.62</ele>
  <time>2026-08-28T19:09:21Z</time>
  <course>9.91</course>
  <speed>0.29</speed>
  <fix>3d</fix>
</trkpt>
<trkpt lat="40.0728555" lon="-105.230592">
  <ele>1593.66</ele>
  <time>2026-08-28T19:09:21Z</time>
  <course>319.7</course>
  <speed>0.33</speed>
  <fix>3d</fix>
</trkpt>
<trkpt lat="40.0728561" lon="-105.2305928">
  <ele>1593.43</ele>
  <time>2026-08-28T19:09:21Z</time>
  <course>9.86</course>
  <speed>0.24758836806279894</speed>
  <fix>3d</fix>
</trkpt>
<trkpt lat="40.072856" lon="-105.2305925">
  <ele>1593.38</ele>
  <time>2026-08-28T19:09:21Z</time>
  <course>321.8</course>
  <speed>0.29</speed>
  <fix>3d</fix>
</trkpt>
<trkpt lat="40.0728564" lon="-105.2305931">
  <ele>1593.34</ele>
  <time>2026-08-28T19:09:21Z</time>
  <course>9.79</course>
  <speed>0.20518284528683192</speed>
  <fix>3d</fix>
</trkpt>
<trkpt lat="40.0728564" lon="-105.2305928">
  <ele>1593.23</ele>
  <time>2026-08-28T19:09:21Z</time>
  <course>324.06</course>
  <speed>0.24</speed>
  <fix>3d</fix>
</trkpt>
<trkpt lat="40.0728567" lon="-105.2305934">
  <ele>1593.33</ele>
  <time>2026-08-28T19:09:21Z</time>
  <course>9.71</course>
  <speed>0.16278820596099705</speed>
  <fix>3d</fix>
</trkpt>
<trkpt lat="40.0728567" lon="-105.2305931">
  <ele>1593.17</ele>
  <time>2026-08-28T19:09:21Z</time>
  <course>326.61</course>
  <speed>0.21</speed>
  <fix>3d</fix>
</trkpt>
<trkpt lat="40.0728569" lon="-105.2305936">
  <ele>1593.36</ele>
  <time>2026-08-28T19:09:21Z</time>
  <course>9.66</course>
  <speed>0.12806248474865697</speed>
  <fix>3d</fix>
</trkpt>
<trkpt lat="40.072857" lon="-105.2305934">
  <ele>1593.19</ele>
  <time>2026-08-28T19:09:21Z</time>
  <course>329.54</course>
  <speed>0.17</speed>
  <fix>3d</fix>
</trkpt>
<trkpt lat="40.0728571" lon="-105.2305938">
  <ele>1593.43</ele>
  <time>2026-08-28T19:09:21Z</time>
  <course>9.63</course>
  <speed>0.09219544457292887</speed>
  <fix>3d</fix>
</trkpt>
<trkpt lat="40.0728572" lon="-105.2305935">
  <ele>1593.24</ele>
  <time>2026-08-28T19:09:21Z</time>
  <course>332.99</course>
  <speed>0.13</speed>
  <fix>3d</fix>
</trkpt>
<trkpt lat="40.0728573" lon="-105.2305938">
  <ele>1593.52</ele>
  <time>2026-08-28T19:09:21Z</time>
  <course>9.62</course>
  <speed>0.05830951894845301</speed>
  <fix>3d</fix>
</trkpt>
<trkpt lat="40.0728575" lon="-105.2305937">
  <ele>1593.32</ele>
  <time>2026-08-28T19:09:21Z</time>
  <course>337.12</course>
  <speed>0.1</speed>
  <fix>3d</fix>
</trkpt>
<trkpt lat="40.0728574" lon="-105.2305939">
  <ele>1593.64</ele>
  <time>2026-08-28T19:09:21Z</time>
  <course>9.63</course>
  <speed>0.0412310562561766</speed>
  <fix>3d</fix>
</trkpt>
<trkpt lat="40.0728576" lon="-105.2305938">
  <ele>1593.42</ele>
  <time>2026-08-28T19:09:21Z</time>
  <course>342.78</course>
  <speed>0.07</speed>
  <fix>3d</fix>
</trkpt>
<trkpt lat="40.0728575" lon="-105.2305939">
  <ele>1593.76</ele>
  <time>2026-08-28T19:09:21Z</time>
  <course>9.66</course>
  <speed>0.02</speed>
  <fix>3d</fix>
</trkpt>
<trkpt lat="40.0728577" lon="-105.2305938">
  <ele>1593.54</ele>
  <time>2026-08-28T19:09:21Z</time>
  <course>352.18</course>
  <speed>0.04</speed>
  <fix>3d</fix>
</trkpt>
<trkpt lat="40.0728575" lon="-105.2305939">
  <ele>1593.9</ele>
  <time>2026-08-28T19:09:21Z</time>
  <course>9.7</course>
  <speed>0.022360679774997897</speed>
  <fix>3d</fix>
</trkpt>
<trkpt lat="40.0728578" lon="-105.2305938">
  <ele>1593.66</ele>
  <time>2026-08-28T19:09:21Z</time>
  <course>13.43</course>
  <speed>0.02</speed>
  <fix>3d</fix>
</trkpt>
<trkpt lat="40.0728576" lon="-105.2305939">
  <ele>1594.04</ele>
  <time>2026-08-28T19:09:21Z</time>
  <course>9.74</course>
  <speed>0.04</speed>
  <fix>3d</fix>
</trkpt>
<trkpt lat="40.0728578" lon="-105.2305938">
  <ele>1593.81</ele>
  <time>2026-08-28T19:09:21Z</time>
  <course>74.86</course>
  <speed>0.01</speed>
  <fix>3d</fix>
</trkpt>
<trkpt lat="40.0728576" lon="-105.2305938">
  <ele>1594.18</ele>
  <time>2026-08-28T19:09:21Z</time>
  <course>9.78</course>
  <speed>0.05</speed>
  <fix>3d</fix>
</trkpt>
<trkpt lat="40.0728578" lon="-105.2305938">
  <ele>1593.95</ele>
  <time>2026-08-28T19:09:21Z</time>
  <course>124.38</course>
  <speed>0.02</speed>
  <fix>3d</fix>
</trkpt>
<trkpt lat="40.0728576" lon="-105.2305938">
  <ele>1594.32</ele>
  <time>2026-08-28T19:09:21Z</time>
  <course>9.82</course>
  <speed>0.06</speed>
  <fix>3d</fix>
</trkpt>
<trkpt lat="40.0728578" lon="-105.2305938">
  <ele>1594.09</ele>
  <time>2026-08-28T19:09:21Z</time>
  <course>141.02</course>
  <speed>0.03</speed>
  <fix>3d</fix>
</trkpt>
<trkpt lat="40.0728575" lon="-105.2305938">
  <ele>1594.46</ele>
  <time>2026-08-28T19:09:21Z</time>
  <course>9.86</course>
  <speed>0.07071067811865475</speed>
  <fix>3d</fix>
</trkpt>
<trkpt lat="40.0728578" lon="-105.2305937">
  <ele>1594.23</ele>
  <time>2026-08-28T19:09:21Z</time>
  <course>149.08</course>
  <speed>0.05</speed>
  <fix>3d</fix>
</trkpt>
<trkpt lat="40.0728574" lon="-105.2305937">
  <ele>1594.6</ele>
  <time>2026-08-28T19:09:21Z</time>
  <course>9.9</course>
  <speed>0.09219544457292887</speed>
  <fix>3d</fix>
</trkpt>
<trkpt lat="40.0728577" lon="-105.2305937">
  <ele>1594.37</ele>
  <time>2026-08-28T19:09:21Z</time>
  <course>152.35</course>
  <speed>0.06</speed>
  <fix>3d</fix>
</trkpt>
<trkpt lat="40.0728573" lon="-105.2305936">
  <ele>1594.73</ele>
  <time>2026-08-28T19:09:21Z</time>
  <course>9.94</course>
  <speed>0.14317821063276354</speed>
  <fix>3d</fix>
</trkpt>
<trkpt lat="40.0728576" lon="-105.2305935">
  <ele>1594.51</ele>
  <time>2026-08-28T19:09:21Z</time>
  <course>148.64</course>
  <speed>0.09</speed>
  <fix>3d</fix>
</trkpt>
<trkpt lat="40.072857" lon="-105.2305933">
  <ele>1594.85</ele>
  <time>2026-08-28T19:09:21Z</time>
  <course>9.96</course>
  <speed>0.22472205054244232</speed>
  <fix>3d</fix>
</trkpt>
<trkpt lat="40.0728573" lon="-105.2305934">
  <ele>1594.63</ele>
  <time>2026-08-28T19:09:21Z</time>
  <course>142.63</course>
  <speed>0.15</speed>
  <fix>3d</fix>
</trkpt>
<trkpt lat="40.0728567" lon="-105.2305929">
  <ele>1594.94</ele>
  <time>2026-08-28T19:09:21Z</time>
  <course>9.97</course>
  <speed>0.3280243893371345</speed>
  <fix>3d</fix>
</trkpt>
<trkpt lat="40.0728571" lon="-105.2305931">
  <ele>1594.74</ele>
  <time>2026-08-28T19:09:21Z</time>
  <course>138.19</course>
  <speed>0.24</speed>
  <fix>3d</fix>
</trkpt>
<trkpt lat="40.0728562" lon="-105.2305923">
  <ele>1595.01</ele>
  <time>2026-08-28T19:09:21Z</time>
  <course>9.92</course>
  <speed>0.4622769732530488</speed>
  <fix>3d</fix>
</trkpt>
<trkpt lat="40.0728567" lon="-105.2305926">
  <ele>1594.83</ele>
  <time>2026-08-28T19:09:21Z</time>
  <course>135.46</course>
  <speed>0.35</speed>
  <fix>3d</fix>
</trkpt>
<trkpt lat="40.0728555" lon="-105.2305915">
  <ele>1595.05</ele>
  <time>2026-08-28T19:09:21Z</time>
  <course>9.78</course>
  <speed>0.6095900261651268</speed>
  <fix>3d</fix>
</trkpt>
<trkpt lat="40.0728562" lon="-105.2305919">
  <ele>1594.89</ele>
  <time>2026-08-28T19:09:21Z</time>
  <course>133.89</course>
  <speed>0.49</speed>
  <fix>3d</fix>
</trkpt>
<trkpt lat="40.0728547" lon="-105.2305904">
  <ele>1595.07</ele>
  <time>2026-08-28T19:09:21Z</time>
  <course>9.58</course>
  <speed>0.7441102068914255</speed>
  <fix>3d</fix>
</trkpt>
<trkpt lat="40.0728555" lon="-105.2305909">
  <ele>1594.92</ele>
  <time>2026-08-28T19:09:21Z</time>
  <course>133.15</course>
  <speed>0.63</speed>
  <fix>3d</fix>
</trkpt>
<trkpt lat="40.0728537" lon="-105.230589">
  <ele>1595.06</ele>
  <time>2026-08-28T19:09:21Z</time>
  <course>9.36</course>
  <speed>0.8495881355103778</speed>
  <fix>3d</fix>
</trkpt>
<trkpt lat="40.0728546" lon="-105.2305897">
  <ele>1594.94</ele>
  <time>2026-08-28T19:09:21Z</time>
  <course>133.04</course>
  <speed>0.76</speed>
  <fix>3d</fix>
</trkpt>
<trkpt lat="40.0728526" lon="-105.2305875">
  <ele>1595.05</ele>
  <time>2026-08-28T19:09:21Z</time>
  <course>9.23</course>
  <speed>0.9276313923105448</speed>
  <fix>3d</fix>
</trkpt>
<trkpt lat="40.0728536" lon="-105.2305883">
  <ele>1594.94</ele>
  <time>2026-08-28T19:09:21Z</time>
  <course>133.37</course>
  <speed>0.86</speed>
  <fix>3d</fix>
</trkpt>
<trkpt lat="40.0728514" lon="-105.230586">
  <ele>1595.04</ele>
  <time>2026-08-28T19:09:21Z</time>
  <course>9.23</course>
  <speed>0.97</speed>
  <fix>3d</fix>
</trkpt>
<trkpt lat="40.0728525" lon="-105.2305868">
  <ele>1594.93</ele>
  <time>2026-08-28T19:09:21Z</time>
  <course>134.02</course>
  <speed>0.93</speed>
  <fix>3d</fix>
</trkpt>
<trkpt lat="40.0728502" lon="-105.2305844">
  <ele>1595.03</ele>
  <time>2026-08-28T19:09:21Z</time>
  <course>9.34</course>
  <speed>0.97</speed>
  <fix>3d</fix>
</trkpt>
<trkpt lat="40.0728514" lon="-105.2305853">
  <ele>1594.92</ele>
  <time>2026-08-28T19:09:21Z</time>
  <course>134.9</course>
  <speed>0.95</speed>
  <fix>3d</fix>
</trkpt>
<trkpt lat="40.072849" lon="-105.2305828">
  <ele>1595.03</ele>
  <time>2026-08-28T19:09:21Z</time>
  <course>9.53</course>
  <speed>0.9492101980067429</speed>
  <fix>3d</fix>
</trkpt>
<trkpt lat="40.0728501" lon="-105.2305837">
  <ele>1594.91</ele>
  <time>2026-08-28T19:09:21Z</time>
  <course>135.94</course>
  <speed>0.95</speed>
  <fix>3d</fix>
</trkpt>
<trkpt lat="40.0728478" lon="-105.2305813">
  <ele>1595.03</ele>
  <time>2026-08-28T19:09:21Z</time>
  <course>9.72</course>
  <speed>0.9284934033152846</speed>
  <fix>3d</fix>
</trkpt>
<trkpt lat="40.0728488" lon="-105.2305821">
  <ele>1594.91</ele>
  <time>2026-08-28T19:09:21Z</time>
  <course>137.01</course>
  <speed>0.94</speed>
  <fix>3d</fix>
</trkpt>
<trkpt lat="40.0728466" lon="-105.2305798">
  <ele>1595.03</ele>
  <time>2026-08-28T19:09:21Z</time>
  <course>9.87</course>
  <speed>0.9002777349240623</speed>
  <fix>3d</fix>
</trkpt>
<trkpt lat="40.0728476" lon="-105.2305806">
  <ele>1594.91</ele>
  <time>2026-08-28T19:09:21Z</time>
  <course>138.0</course>
  <speed>0.91</speed>
  <fix>3d</fix>
</trkpt>
<trkpt lat="40.0728455" lon="-105.2305784">
  <ele>1595.04</ele>
  <time>2026-08-28T19:09:21Z</time>
  <course>9.98</course>
  <speed>0.8373768566183328</speed>
  <fix>3d</fix>
</trkpt>
<trkpt lat="40.0728465" lon="-105.2305792">
  <ele>1594.92</ele>
  <time>2026-08-28T19:09:21Z</time>
  <course>139.06</course>
  <speed>0.87</speed>
  <fix>3d</fix>
</trkpt>
<trkpt lat="40.0728444" lon="-105.2305772">
  <ele>1595.04</ele>
  <time>2026-08-28T19:09:21Z</time>
  <course>10.04</course>
  <speed>0.7387827826905551</speed>
  <fix>3d</fix>
</trkpt>
<trkpt lat="40.0728453" lon="-105.230578">
  <ele>1594.92</ele>
  <time>2026-08-28T19:09:21Z</time>
  <course>140.51</course>
  <speed>0.8</speed>
  <fix>3d</fix>
</trkpt>
<trkpt lat="40.0728435" lon="-105.2305762">
  <ele>1595.04</ele>
  <time>2026-08-28T19:09:21Z</time>
  <course>10.06</course>
  <speed>0.6060528029800704</speed>
  <fix>3d</fix>
</trkpt>
<trkpt lat="40.0728442" lon="-105.2305768">
  <ele>1594.93</ele>
  <time>2026-08-28T19:09:21Z</time>
  <course>142.68</course>
  <speed>0.7</speed>
  <fix>3d</fix>
</trkpt>
<trkpt lat="40.0728428" lon="-105.2305755">
  <ele>1595.04</ele>
  <time>2026-08-28T19:09:21Z</time>
  <course>10.02</course>
  <speed>0.4440720662234904</speed>
  <fix>3d</fix>
</trkpt>
<trkpt lat="40.0728433" lon="-105.230576">
  <ele>1594.93</ele>
  <time>2026-08-28T19:09:21Z</time>
  <course>146.13</course>
  <speed>0.56</speed>
  <fix>3d</fix>
</trkpt>
<trkpt lat="40.0728422" lon="-105.230575">
  <ele>1595.05</ele>
  <time>2026-08-28T19:09:21Z</time>
  <course>9.89</course>
  <speed>0.291547594742265</speed>
  <fix>3d</fix>
</trkpt>
<trkpt lat="40.0728425" lon="-105.2305754">
  <ele>1594.94</ele>
  <time>2026-08-28T19:09:21Z</time>
  <course>152.12</course>
  <speed>0.41</speed>
  <fix>3d</fix>
</trkpt>
<trkpt lat="40.0728418" lon="-105.2305748">
  <ele>1595.05</ele>
  <time>2026-08-28T19:09:21Z</time>
  <course>9.71</course>
  <speed>0.15231546211727817</speed>
  <fix>3d</fix>
</trkpt>
<trkpt lat="40.0728419" lon="-105.2305751">
  <ele>1594.94</ele>
  <time>2026-08-28T19:09:21Z</time>
  <course>163.63</course>
  <speed>0.27</speed>
  <fix>3d</fix>
</trkpt>
<trkpt lat="40.0728416" lon="-105.2305748">
  <ele>1595.05</ele>
  <time>2026-08-28T19:09:21Z</time>
  <course>9.52</course>
  <speed>0.06082762530298219</speed>
  <fix>3d</fix>
</trkpt>
<trkpt lat="40.0728416" lon="-105.230575">
  <ele>1594.95</ele>
  <time>2026-08-28T19:09:21Z</time>
  <course>187.55</course>
  <speed>0.16</speed>
  <fix>3d</fix>
</trkpt>
<trkpt lat="40.0728414" lon="-105.230575">
  <ele>1595.05</ele>
  <time>2026-08-28T19:09:21Z</time>
  <course>9.41</course>
  <speed>0.05099019513592785</speed>
  <fix>3d</fix>
</trkpt>
<trkpt lat="40.0728414" lon="-105.2305751">
  <ele>1594.95</ele>
  <time>2026-08-28T19:09:21Z</time>
  <course>226.18</course>
  <speed>0.12</speed>
  <fix>3d</fix>
</trkpt>
<trkpt lat="40.0728414" lon="-105.2305752">
  <ele>1595.05</ele>
  <time>2026-08-28T19:09:21Z</time>
  <course>9.41</course>
  <speed>0.06082762530298219</speed>
  <fix>3d</fix>
</trkpt>
<trkpt lat="40.0728413" lon="-105.2305753">
  <ele>1594.95</ele>
  <time>2026-08-28T19:09:21Z</time>
  <course>255.8</course>
  <speed>0.12</speed>
  <fix>3d</fix>
</trkpt>
<trkpt lat="40.0728414" lon="-105.2305754">
  <ele>1595.05</ele>
  <time>2026-08-28T19:09:21Z</time>
  <course>9.49</course>
  <speed>0.0412310562561766</speed>
  <fix>3d</fix>
</trkpt>
<trkpt lat="40.0728413" lon="-105.2305756">
  <ele>1594.95</ele>
  <time>2026-08-28T19:09:21Z</time>
  <course>269.67</course>
  <speed>0.12</speed>
  <fix>3d</fix>
</trkpt>
<trkpt lat="40.0728414" lon="-105.2305756">
  <ele>1595.05</ele>
  <time>2026-08-28T19:09:21Z</time>
  <course>10.24</course>
  <speed>0.022360679774997897</speed>
  <fix>3d</fix>
</trkpt>
<trkpt lat="40.0728413" lon="-105.2305758">
  <ele>1594.95</ele>
  <time>2026-08-28T19:09:21Z</time>
  <course>276.52</course>
  <speed>0.1</speed>
  <fix>3d</fix>
</trkpt>
<trkpt lat="40.0728414" lon="-105.2305758">
  <ele>1595.05</ele>
  <time>2026-08-28T19:09:21Z</time>
  <course>10.95</course>
  <speed>0.01</speed>
  <fix>3d</fix>
</trkpt>
<trkpt lat="40.0728413" lon="-105.2305761">
  <ele>1594.95</ele>
  <time>2026-08-28T19:09:21Z</time>
  <course>283.05</course>
  <speed>0.07</speed>
  <fix>3d</fix>
</trkpt>
<trkpt lat="40.0728413" lon="-105.2305759">
  <ele>1595.05</ele>
  <time>2026-08-28T19:09:21Z</time>
  <course>11.37</course>
  <speed>0.01414213562373095</speed>
  <fix>3d</fix>
</trkpt>
<trkpt lat="40.0728413" lon="-105.2305762">
  <ele>1594.96</ele>
  <time>2026-08-28T19:09:21Z</time>
  <course>293.47</course>
  <speed>0.05</speed>
  <fix>3d</fix>
</trkpt>
<trkpt lat="40.0728413" lon="-105.230576">
  <ele>1595.06</ele>
  <time>2026-08-28T19:09:21Z</time>
  <course>11.53</course>
  <speed>0.022360679774997897</speed>
  <fix>3d</fix>
</trkpt>
<trkpt lat="40.0728413" lon="-105.2305763">
  <ele>1594.96</ele>
  <time>2026-08-28T19:09:21Z</time>
  <course>312.9</course>
  <speed>0.04</speed>
  <fix>3d</fix>
</trkpt>
<trkpt lat="40.0728413" lon="-105.230576">
  <ele>1595.06</ele>
  <time>2026-08-28T19:09:21Z</time>
  <course>11.54</course>
  <speed>0.0412310562561766</speed>
  <fix>3d</fix>
</trkpt>
<trkpt lat="40.0728413" lon="-105.2305763">
  <ele>1594.96</ele>
  <time>2026-08-28T19:09:21Z</time>
  <course>344.94</course>
  <speed>0.03</speed>
  <fix>3d</fix>
</trkpt>
<trkpt lat="40.0728414" lon="-105.230576">
  <ele>1595.07</ele>
  <time>2026-08-28T19:09:21Z</time>
  <course>11.48</course>
  <speed>0.05099019513592785</speed>
  <fix>3d</fix>
</trkpt>
<trkpt lat="40.0728414" lon="-105.2305763">
  <ele>1594.96</ele>
  <time>2026-08-28T19:09:21Z</time>
  <course>15.88</course>
  <speed>0.03</speed>
  <fix>3d</fix>
</trkpt>
<trkpt lat="40.0728414" lon="-105.2305759">
  <ele>1595.06</ele>
  <time>2026-08-28T19:09:21Z</time>
  <course>11.43</course>
  <speed>0.06082762530298219</speed>
  <fix>3d</fix>
</trkpt>
<trkpt lat="40.0728414" lon="-105.2305763">
  <ele>1594.95</ele>
  <time>2026-08-28T19:09:21Z</time>
  <course>33.33</course>
  <speed>0.04</speed>
  <fix>3d</fix>
</trkpt>
<trkpt lat="40.0728415" lon="-105.2305759">
  <ele>1595.06</ele>
  <time>2026-08-28T19:09:21Z</time>
  <course>11.39</course>
  <speed>0.07071067811865475</speed>
  <fix>3d</fix>
</trkpt>
<trkpt lat="40.0728415" lon="-105.2305763">
  <ele>1594.95</ele>
  <time>2026-08-28T19:09:21Z</time>
  <course>42.11</course>
  <speed>0.05</speed>
  <fix>3d</fix>
</trkpt>
<trkpt lat="40.0728415" lon="-105.2305758">
  <ele>1595.05</ele>
  <time>2026-08-28T19:09:21Z</time>
  <course>11.38</course>
  <speed>0.08062257748298549</speed>
  <fix>3d</fix>
</trkpt>
<trkpt lat="40.0728416" lon="-105.2305762">
  <ele>1594.95</ele>
  <time>2026-08-28T19:09:21Z</time>
  <course>47.14</course>
  <speed>0.06</speed>
  <fix>3d</fix>
</trkpt>
<trkpt lat="40.0728416" lon="-105.2305757">
  <ele>1595.05</ele>
  <time>2026-08-28T19:09:21Z</time>
  <course>11.37</course>
  <speed>0.08062257748298549</speed>
  <fix>3d</fix>
</trkpt>
<trkpt lat="40.0728417" lon="-105.2305761">
  <ele>1594.95</ele>
  <time>2026-08-28T19:09:21Z</time>
  <course>50.18</course>
  <speed>0.07</speed>
  <fix>3d</fix>
</trkpt>
<trkpt lat="40.0728417" lon="-105.2305756">
  <ele>1595.04</ele>
  <time>2026-08-28T19:09:21Z</time>
  <course>11.36</course>
  <speed>0.08062257748298549</speed>
  <fix>3d</fix>
</trkpt>
<trkpt lat="40.0728418" lon="-105.2305759">
  <ele>1594.94</ele>
  <time>2026-08-28T19:09:21Z</time>
  <course>52.49</course>
  <speed>0.07</speed>
  <fix>3d</fix>
</trkpt>
<trkpt lat="40.0728417" lon="-105.2305755">
  <ele>1595.04</ele>
  <time>2026-08-28T19:09:21Z</time>
  <course>11.36</course>
  <speed>0.08062257748298549</speed>
  <fix>3d</fix>
</trkpt>
<trkpt lat="40.0728418" lon="-105.2305758">
  <ele>1594.94</ele>
  <time>2026-08-28T19:09:21Z</time>
  <course>54.3</course>
  <speed>0.07</speed>
  <fix>3d</fix>
</trkpt>
<trkpt lat="40.0728418" lon="-105.2305753">
  <ele>1595.03</ele>
  <time>2026-08-28T19:09:21Z</time>
  <course>11.36</course>
  <speed>0.08062257748298549</speed>
  <fix>3d</fix>
</trkpt>
<trkpt lat="40.0728419" lon="-105.2305757">
  <ele>1594.94</ele>
  <time>2026-08-28T19:09:21Z</time>
  <course>55.25</course>
  <speed>0.07</speed>
  <fix>3d</fix>
</trkpt>
<trkpt lat="40.0728419" lon="-105.2305752">
  <ele>1595.03</ele>
  <time>2026-08-28T19:09:21Z</time>
  <course>11.37</course>
  <speed>0.07071067811865475</speed>
  <fix>3d</fix>
</trkpt>
<trkpt lat="40.072842" lon="-105.2305755">
  <ele>1594.95</ele>
  <time>2026-08-28T19:09:21Z</time>
  <course>55.61</course>
  <speed>0.07</speed>
  <fix>3d</fix>
</trkpt>
<trkpt lat="40.0728419" lon="-105.2305751">
  <ele>1595.04</ele>
  <time>2026-08-28T19:09:21Z</time>
  <course>11.38</course>
  <speed>0.07</speed>
  <fix>3d</fix>
</trkpt>
<trkpt lat="40.072842" lon="-105.2305754">
  <ele>1594.95</ele>
  <time>2026-08-28T19:09:21Z</time>
  <course>55.72</course>
  <speed>0.07</speed>
  <fix>3d</fix>
</trkpt>
<trkpt lat="40.072842" lon="-105.230575">
  <ele>1595.05</ele>
  <time>2026-08-28T19:09:21Z</time>
  <course>11.41</course>
  <speed>0.06</speed>
  <fix>3d</fix>
</trkpt>
<trkpt lat="40.0728421" lon="-105.2305753">
  <ele>1594.95</ele>
  <time>2026-08-28T19:09:21Z</time>
  <course>55.67</course>
  <speed>0.06</speed>
  <fix>3d</fix>
</trkpt>
<trkpt lat="40.072842" lon="-105.2305749">
  <ele>1595.05</ele>
  <time>2026-08-28T19:09:21Z</time>
  <course>11.43</course>
  <speed>0.05</speed>
  <fix>3d</fix>
</trkpt>
<trkpt lat="40.0728422" lon="-105.2305751">
  <ele>1594.96</ele>
  <time>2026-08-28T19:09:21Z</time>
  <course>55.58</course>
  <speed>0.05</speed>
  <fix>3d</fix>
</trkpt>
<trkpt lat="40.0728421" lon="-105.2305748">
  <ele>1595.04</ele>
  <time>2026-08-28T19:09:21Z</time>
  <course>11.44</course>
  <speed>0.04</speed>
  <fix>3d</fix>
</trkpt>
<trkpt lat="40.0728423" lon="-105.230575">
  <ele>1594.96</ele>
  <time>2026-08-28T19:09:21Z</time>
  <course>55.34</course>
  <speed>0.05</speed>
  <fix>3d</fix>
</trkpt>
<trkpt lat="40.0728421" lon="-105.2305747">
  <ele>1595.04</ele>
  <time>2026-08-28T19:09:21Z</time>
  <course>11.44</course>
  <speed>0.04</speed>
  <fix>3d</fix>
</trkpt>
<trkpt lat="40.0728423" lon="-105.2305749">
  <ele>1594.96</ele>
  <time>2026-08-28T19:09:21Z</time>
  <course>54.55</course>
  <speed>0.04</speed>
  <fix>3d</fix>
</trkpt>
<trkpt lat="40.0728421" lon="-105.2305747">
  <ele>1595.04</ele>
  <time>2026-08-28T19:09:21Z</time>
  <course>11.45</course>
  <speed>0.03</speed>
  <fix>3d</fix>
</trkpt>
<trkpt lat="40.0728424" lon="-105.2305748">
  <ele>1594.96</ele>
  <time>2026-08-28T19:09:21Z</time>
  <course>53.56</course>
  <speed>0.03</speed>
  <fix>3d</fix>
</trkpt>
<trkpt lat="40.0728422" lon="-105.2305747">
  <ele>1595.04</ele>
  <time>2026-08-28T19:09:21Z</time>
  <course>11.45</course>
  <speed>0.022360679774997897</speed>
  <fix>3d</fix>
</trkpt>
<trkpt lat="40.0728424" lon="-105.2305748">
  <ele>1594.96</ele>
  <time>2026-08-28T19:09:21Z</time>
  <course>52.02</course>
  <speed>0.02</speed>
  <fix>3d</fix>
</trkpt>
<trkpt lat="40.0728422" lon="-105.2305746">
  <ele>1595.04</ele>
  <time>2026-08-28T19:09:21Z</time>
  <course>11.45</course>
  <speed>0.01414213562373095</speed>
  <fix>3d</fix>
</trkpt>
<trkpt lat="40.0728424" lon="-105.2305748">
  <ele>1594.96</ele>
  <time>2026-08-28T19:09:21Z</time>
  <course>48.37</course>
  <speed>0.01</speed>
  <fix>3d</fix>
</trkpt>
<trkpt lat="40.0728422" lon="-105.2305746">
  <ele>1595.04</ele>
  <time>2026-08-28T19:09:21Z</time>
  <course>11.45</course>
  <speed>0.01414213562373095</speed>
  <fix>3d</fix>
</trkpt>
<trkpt lat="40.0728425" lon="-105.2305748">
  <ele>1594.96</ele>
  <time>2026-08-28T19:09:21Z</time>
  <course>39.73</course>
  <speed>0.01</speed>
  <fix>3d</fix>
</trkpt>
<trkpt lat="40.0728422" lon="-105.2305746">
  <ele>1595.04</ele>
  <time>2026-08-28T19:09:21Z</time>
  <course>11.45</course>
  <speed>0.02</speed>
  <fix>3d</fix>
</trkpt>
<trkpt lat="40.0728425" lon="-105.2305748">
  <ele>1594.96</ele>
  <time>2026-08-28T19:09:21Z</time>
  <course>4.09</course>
  <speed>0.0</speed>
  <fix>3d</fix>
</trkpt>
<trkpt lat="40.0728422" lon="-105.2305746">
  <ele>1595.04</ele>
  <time>2026-08-28T19:09:21Z</time>
  <course>11.45</course>
  <speed>0.02</speed>
  <fix>3d</fix>
</trkpt>
<trkpt lat="40.0728425" lon="-105.2305748">
  <ele>1594.97</ele>
  <time>2026-08-28T19:09:21Z</time>
  <course>277.52</course>
  <speed>0.0</speed>
  <fix>3d</fix>
</trkpt>
<trkpt lat="40.0728422" lon="-105.2305746">
  <ele>1595.04</ele>
  <time>2026-08-28T19:09:21Z</time>
  <course>11.45</course>
  <speed>0.02</speed>
  <fix>3d</fix>
</trkpt>
<trkpt lat="40.0728425" lon="-105.2305748">
  <ele>1594.97</ele>
  <time>2026-08-28T19:09:21Z</time>
  <course>255.11</course>
  <speed>0.0</speed>
  <fix>3d</fix>
</trkpt>
<trkpt lat="40.0728422" lon="-105.2305746">
  <ele>1595.0</ele>
  <time>2026-08-28T19:09:21Z</time>
  <course>11.45</course>
  <speed>0.02</speed>
  <fix>3d</fix>
</trkpt>
<trkpt lat="40.0728425" lon="-105.2305748">
  <ele>1594.95</ele>
  <time>2026-08-28T19:09:21Z</time>
  <course>247.96</course>
  <speed>0.01</speed>
  <fix>3d</fix>
</trkpt>
<trkpt lat="40.0728423" lon="-105.2305747">
  <ele>1594.92</ele>
  <time>2026-08-28T19:09:21Z</time>
  <course>11.45</course>
  <speed>0.03</speed>
  <fix>3d</fix>
</trkpt>
<trkpt lat="40.0728425" lon="-105.2305748">
  <ele>1594.9</ele>
  <time>2026-08-28T19:09:21Z</time>
  <course>244.82</course>
  <speed>0.01</speed>
  <fix>3d</fix>
</trkpt>
<trkpt lat="40.0728423" lon="-105.2305747">
  <ele>1594.83</ele>
  <time>2026-08-28T19:09:21Z</time>
  <course>11.45</course>
  <speed>0.03</speed>
  <fix>3d</fix>
</trkpt>
<trkpt lat="40.0728425" lon="-105.2305748">
  <ele>1594.82</ele>
  <time>2026-08-28T19:09:21Z</time>
  <course>242.52</course>
  <speed>0.02</speed>
  <fix>3d</fix>
</trkpt>
<trkpt lat="40.0728423" lon="-105.2305748">
  <ele>1594.72</ele>
  <time>2026-08-28T19:09:21Z</time>
  <course>11.45</course>
  <speed>0.0316227766016838</speed>
  <fix>3d</fix>
</trkpt>
<trkpt lat="40.0728425" lon="-105.2305748">
  <ele>1594.72</ele>
  <time>2026-08-28T19:09:21Z</time>
  <course>240.8</course>
  <speed>0.02</speed>
  <fix>3d</fix>
</trkpt>
<trkpt lat="40.0728423" lon="-105.2305748">
  <ele>1594.62</ele>
  <time>2026-08-28T19:09:21Z</time>
  <course>11.45</course>
  <speed>0.0316227766016838</speed>
  <fix>3d</fix>
</trkpt>
<trkpt lat="40.0728425" lon="-105.2305748">
  <ele>1594.61</ele>
  <time>2026-08-28T19:09:21Z</time>
  <course>240.57</course>
  <speed>0.02</speed>
  <fix>3d</fix>
</trkpt>
<trkpt lat="40.0728423" lon="-105.2305748">
  <ele>1594.51</ele>
  <time>2026-08-28T19:09:21Z</time>
  <course>11.44</course>
  <speed>0.0316227766016838</speed>
  <fix>3d</fix>
</trkpt>
<trkpt lat="40.0728425" lon="-105.2305749">
  <ele>1594.51</ele>
  <time>2026-08-28T19:09:21Z</time>
  <course>240.27</course>
  <speed>0.02</speed>
  <fix>3d</fix>
</trkpt>
<trkpt lat="40.0728423" lon="-105.2305749">
  <ele>1594.41</ele>
  <time>2026-08-28T19:09:21Z</time>
  <course>11.44</course>
  <speed>0.0316227766016838</speed>
  <fix>3d</fix>
</trkpt>
<trkpt lat="40.0728424" lon="-105.230575">
  <ele>1594.4</ele>
  <time>2026-08-28T19:09:21Z</time>
  <course>239.71</course>
  <speed>0.02</speed>
  <fix>3d</fix>
</trkpt>
<trkpt lat="40.0728423" lon="-105.2305749">
  <ele>1594.3</ele>
  <time>2026-08-28T19:09:21Z</time>
  <course>11.44</course>
  <speed>0.03</speed>
  <fix>3d</fix>
</trkpt>
<trkpt lat="40.0728424" lon="-105.230575">
  <ele>1594.3</ele>
  <time>2026-08-28T19:09:21Z</time>
  <course>239.87</course>
  <speed>0.02</speed>
  <fix>3d</fix>
</trkpt>
<trkpt lat="40.0728422" lon="-105.230575">
  <ele>1594.2</ele>
  <time>2026-08-28T19:09:21Z</time>
  <course>11.44</course>
  <speed>0.03</speed>
  <fix>3d</fix>
</trkpt>
<trkpt lat="40.0728424" lon="-105.2305751">
  <ele>1594.2</ele>
  <time>2026-08-28T19:09:21Z</time>
  <course>240.05</course>
  <speed>0.02</speed>
  <fix>3d</fix>
</trkpt>
<trkpt lat="40.0728422" lon="-105.230575">
  <ele>1594.1</ele>
  <time>2026-08-28T19:09:21Z</time>
  <course>11.44</course>
  <speed>0.03</speed>
  <fix>3d</fix>
</trkpt>
<trkpt lat="40.0728424" lon="-105.2305751">
  <ele>1594.1</ele>
  <time>2026-08-28T19:09:21Z</time>
  <course>240.27</course>
  <speed>0.02</speed>
  <fix>3d</fix>
</trkpt>
<trkpt lat="40.0728422" lon="-105.2305751">
  <ele>1594.0</ele>
  <time>2026-08-28T19:09:21Z</time>
  <course>11.44</course>
  <speed>0.03</speed>
  <fix>3d</fix>
</trkpt>
<trkpt lat="40.0728423" lon="-105.2305751">
  <ele>1594.0</ele>
  <time>2026-08-28T19:09:21Z</time>
  <course>240.59</course>
  <speed>0.02</speed>
  <fix>3d</fix>
</trkpt>
<trkpt lat="40.0728422" lon="-105.2305751">
  <ele>1593.9</ele>
  <time>2026-08-28T19:09:21Z</time>
  <course>11.45</course>
  <speed>0.02</speed>
  <fix>3d</fix>
</trkpt>
<trkpt lat="40.0728423" lon="-105.2305752">
  <ele>1593.89</ele>
  <time>2026-08-28T19:09:21Z</time>
  <course>240.93</course>
  <speed>0.02</speed>
  <fix>3d</fix>
</trkpt>
<trkpt lat="40.0728422" lon="-105.2305751">
  <ele>1593.8</ele>
  <time>2026-08-28T19:09:21Z</time>
  <course>11.45</course>
  <speed>0.02</speed>
  <fix>3d</fix>
</trkpt>
<trkpt lat="40.0728423" lon="-105.2305753">
  <ele>1593.8</ele>
  <time>2026-08-28T19:09:21Z</time>
  <course>241.68</course>
  <speed>0.02</speed>
  <fix>3d</fix>
</trkpt>
<trkpt lat="40.0728422" lon="-105.2305752">
  <ele>1593.7</ele>
  <time>2026-08-28T19:09:22Z</time>
  <course>11.45</course>
  <speed>0.02</speed>
  <fix>3d</fix>
</trkpt>
<trkpt lat="40.0728423" lon="-105.2305753">
  <ele>1593.7</ele>
  <time>2026-08-28T19:09:22Z</time>
  <course>243.2</course>
  <speed>0.01</speed>
  <fix>3d</fix>
</trkpt>
<trkpt lat="40.0728422" lon="-105.2305752">
  <ele>1593.6</ele>
  <time>2026-08-28T19:09:22Z</time>
  <course>11.45</course>
  <speed>0.02</speed>
  <fix>3d</fix>
</trkpt>
<trkpt lat="40.0728423" lon="-105.2305753">
  <ele>1593.6</ele>
  <time>2026-08-28T19:09:22Z</time>
  <course>245.81</course>
  <speed>0.01</speed>
  <fix>3d</fix>
</trkpt>
<trkpt lat="40.0728422" lon="-105.2305752">
  <ele>1593.5</ele>
  <time>2026-08-28T19:09:22Z</time>
  <course>11.45</course>
  <speed>0.02</speed>
  <fix>3d</fix>
</trkpt>
<trkpt lat="40.0728423" lon="-105.2305753">
  <ele>1593.5</ele>
  <time>2026-08-28T19:09:22Z</time>
  <course>247.97</course>
  <speed>0.01</speed>
  <fix>3d</fix>
</trkpt>
<trkpt lat="40.0728422" lon="-105.2305752">
  <ele>1593.41</ele>
  <time>2026-08-28T19:09:22Z</time>
  <course>11.44</course>
  <speed>0.02</speed>
  <fix>3d</fix>
</trkpt>
<trkpt lat="40.0728423" lon="-105.2305754">
  <ele>1593.39</ele>
  <time>2026-08-28T19:09:22Z</time>
  <course>248.02</course>
  <speed>0.0</speed>
  <fix>3d</fix>
</trkpt>
<trkpt lat="40.0728422" lon="-105.2305752">
  <ele>1593.31</ele>
  <time>2026-08-28T19:09:22Z</time>
  <course>11.43</course>
  <speed>0.022360679774997897</speed>
  <fix>3d</fix>
</trkpt>
<trkpt lat="40.0728423" lon="-105.2305755">
  <ele>1593.3</ele>
  <time>2026-08-28T19:09:22Z</time>
  <course>251.31</course>
  <speed>0.0</speed>
  <fix>3d</fix>
</trkpt>
<trkpt lat="40.0728422" lon="-105.2305752">
  <ele>1593.2</ele>
  <time>2026-08-28T19:09:22Z</time>
  <course>11.43</course>
  <speed>0.01414213562373095</speed>
  <fix>3d</fix>
</trkpt>
<trkpt lat="40.0728423" lon="-105.2305755">
  <ele>1593.2</ele>
  <time>2026-08-28T19:09:22Z</time>
  <course>258.68</course>
  <speed>0.0</speed>
  <fix>3d</fix>
</trkpt>
<trkpt lat="40.0728422" lon="-105.2305752">
  <ele>1593.1</ele>
  <time>2026-08-28T19:09:22Z</time>
  <course>11.43</course>
  <speed>0.01414213562373095</speed>
  <fix>3d</fix>
</trkpt>
<trkpt lat="40.0728423" lon="-105.2305755">
  <ele>1593.1</ele>
  <time>2026-08-28T19:09:22Z</time>
  <course>263.27</course>
  <speed>0.0</speed>
  <fix>3d</fix>
</trkpt>
<trkpt lat="40.0728422" lon="-105.2305753">
  <ele>1593.0</ele>
  <time>2026-08-28T19:09:22Z</time>
  <course>11.43</course>
  <speed>0.01414213562373095</speed>
  <fix>3d</fix>
</trkpt>
<trkpt lat="40.0728423" lon="-105.2305755">
  <ele>1593.0</ele>
  <time>2026-08-28T19:09:22Z</time>
  <course>263.66</course>
  <speed>0.0</speed>
  <fix>3d</fix>
</trkpt>
<trkpt lat="40.0728422" lon="-105.2305753">
  <ele>1592.9</ele>
  <time>2026-08-28T19:09:22Z</time>
  <course>11.43</course>
  <speed>0.01414213562373095</speed>
  <fix>3d</fix>
</trkpt>
<trkpt lat="40.0728423" lon="-105.2305755">
  <ele>1592.89</ele>
  <time>2026-08-28T19:09:22Z</time>
  <course>274.32</course>
  <speed>0.0</speed>
  <fix>3d</fix>
</trkpt>
<trkpt lat="40.0728422" lon="-105.2305753">
  <ele>1592.8</ele>
  <time>2026-08-28T19:09:22Z</time>
  <course>11.43</course>
  <speed>0.01414213562373095</speed>
  <fix>3d</fix>
</trkpt>
<trkpt lat="40.0728423" lon="-105.2305755">
  <ele>1592.8</ele>
  <time>2026-08-28T19:09:22Z</time>
  <course>15.29</course>
  <speed>0.0</speed>
  <fix>3d</fix>
</trkpt>
<trkpt lat="40.0728422" lon="-105.2305753">
  <ele>1592.7</ele>
  <time>2026-08-28T19:09:22Z</time>
  <course>11.43</course>
  <speed>0.01414213562373095</speed>
  <fix>3d</fix>
</trkpt>
<trkpt lat="40.0728423" lon="-105.2305755">
  <ele>1592.7</ele>
  <time>2026-08-28T19:09:22Z</time>
  <course>59.05</course>
  <speed>0.0</speed>
  <fix>3d</fix>
</trkpt>
<trkpt lat="40.0728422" lon="-105.2305753">
  <ele>1592.59</ele>
  <time>2026-08-28T19:09:22Z</time>
  <course>11.43</course>
  <speed>0.022360679774997897</speed>
  <fix>3d</fix>
</trkpt>
<trkpt lat="40.0728423" lon="-105.2305755">
  <ele>1592.6</ele>
  <time>2026-08-28T19:09:22Z</time>
  <course>62.07</course>
  <speed>0.0</speed>
  <fix>3d</fix>
</trkpt>
<trkpt lat="40.0728422" lon="-105.2305753">
  <ele>1592.49</ele>
  <time>2026-08-28T19:09:22Z</time>
  <course>11.43</course>
  <speed>0.022360679774997897</speed>
  <fix>3d</fix>
</trkpt>
<trkpt lat="40.0728423" lon="-105.2305755">
  <ele>1592.5</ele>
  <time>2026-08-28T19:09:22Z</time>
  <course>64.64</course>
  <speed>0.0</speed>
  <fix>3d</fix>
</trkpt>
<trkpt lat="40.0728422" lon="-105.2305753">
  <ele>1592.4</ele>
  <time>2026-08-28T19:09:22Z</time>
  <course>11.43</course>
  <speed>0.022360679774997897</speed>
  <fix>3d</fix>
</trkpt>
<trkpt lat="40.0728423" lon="-105.2305755">
  <ele>1592.39</ele>
  <time>2026-08-28T19:09:22Z</time>
  <course>69.27</course>
  <speed>0.0</speed>
  <fix>3d</fix>
</trkpt>
<trkpt lat="40.0728422" lon="-105.2305753">
  <ele>1592.3</ele>
  <time>2026-08-28T19:09:22Z</time>
  <course>11.43</course>
  <speed>0.022360679774997897</speed>
  <fix>3d</fix>
</trkpt>
<trkpt lat="40.0728423" lon="-105.2305755">
  <ele>1592.3</ele>
  <time>2026-08-28T19:09:22Z</time>
  <course>68.95</course>
  <speed>0.0</speed>
  <fix>3d</fix>
</trkpt>
<trkpt lat="40.0728422" lon="-105.2305753">
  <ele>1592.2</ele>
  <time>2026-08-28T19:09:22Z</time>
  <course>11.43</course>
  <speed>0.022360679774997897</speed>
  <fix>3d</fix>
</trkpt>
<trkpt lat="40.0728423" lon="-105.2305755">
  <ele>1592.21</ele>
  <time>2026-08-28T19:09:22Z</time>
  <course>63.89</course>
  <speed>0.0</speed>
  <fix>3d</fix>
</trkpt>
<trkpt lat="40.0728422" lon="-105.2305753">
  <ele>1592.1</ele>
  <time>2026-08-28T19:09:22Z</time>
  <course>11.42</course>
  <speed>0.022360679774997897</speed>
  <fix>3d</fix>
</trkpt>
<trkpt lat="40.0728423" lon="-105.2305755">
  <ele>1592.11</ele>
  <time>2026-08-28T19:09:22Z</time>
  <course>65.1</course>
  <speed>0.0</speed>
  <fix>3d</fix>
</trkpt>
<trkpt lat="40.0728422" lon="-105.2305753">
  <ele>1592.01</ele>
  <time>2026-08-28T19:09:22Z</time>
  <course>11.42</course>
  <speed>0.022360679774997897</speed>
  <fix>3d</fix>
</trkpt>
<trkpt lat="40.0728423" lon="-105.2305755">
  <ele>1592.01</ele>
  <time>2026-08-28T19:09:22Z</time>
  <course>70.98</course>
  <speed>0.0</speed>
  <fix>3d</fix>
</trkpt>
<trkpt lat="40.0728422" lon="-105.2305753">
  <ele>1591.91</ele>
  <time>2026-08-28T19:09:22Z</time>
  <course>11.42</course>
  <speed>0.022360679774997897</speed>
  <fix>3d</fix>
</trkpt>
<trkpt lat="40.0728423" lon="-105.2305755">
  <ele>1591.9</ele>
  <time>2026-08-28T19:09:22Z</time>
  <course>74.08</course>
  <speed>0.0</speed>
  <fix>3d</fix>
</trkpt>
<trkpt lat="40.0728422" lon="-105.2305753">
  <ele>1591.81</ele>
  <time>2026-08-28T19:09:22Z</time>
  <course>11.42</course>
  <speed>0.022360679774997897</speed>
  <fix>3d</fix>
</trkpt>
<trkpt lat="40.0728423" lon="-105.2305755">
  <ele>1591.81</ele>
  <time>2026-08-28T19:09:22Z</time>
  <course>75.89</course>
  <speed>0.0</speed>
  <fix>3d</fix>
</trkpt>
<trkpt lat="40.0728422" lon="-105.2305753">
  <ele>1591.71</ele>
  <time>2026-08-28T19:09:22Z</time>
  <course>11.42</course>
  <speed>0.022360679774997897</speed>
  <fix>3d</fix>
</trkpt>
<trkpt lat="40.0728423" lon="-105.2305755">
  <ele>1591.71</ele>
  <time>2026-08-28T19:09:22Z</time>
  <course>77.02</course>
  <speed>0.0</speed>
  <fix>3d</fix>
</trkpt>
<trkpt lat="40.0728422" lon="-105.2305753">
  <ele>1591.61</ele>
  <time>2026-08-28T19:09:22Z</time>
  <course>11.42</course>
  <speed>0.022360679774997897</speed>
  <fix>3d</fix>
</trkpt>
<trkpt lat="40.0728423" lon="-105.2305755">
  <ele>1591.6</ele>
  <time>2026-08-28T19:09:22Z</time>
  <course>78.36</course>
  <speed>0.0</speed>
  <fix>3d</fix>
</trkpt>
<trkpt lat="40.0728422" lon="-105.2305753">
  <ele>1591.51</ele>
  <time>2026-08-28T19:09:22Z</time>
  <course>11.42</course>
  <speed>0.022360679774997897</speed>
  <fix>3d</fix>
</trkpt>
<trkpt lat="40.0728423" lon="-105.2305754">
  <ele>1591.5</ele>
  <time>2026-08-28T19:09:22Z</time>
  <course>80.39</course>
  <speed>0.0</speed>
  <fix>3d</fix>
</trkpt>
<trkpt lat="40.0728422" lon="-105.2305753">
  <ele>1591.41</ele>
  <time>2026-08-28T19:09:22Z</time>
  <course>11.42</course>
  <speed>0.022360679774997897</speed>
  <fix>3d</fix>
</trkpt>
<trkpt lat="40.0728423" lon="-105.2305753">
  <ele>1591.39</ele>
  <time>2026-08-28T19:09:22Z</time>
  <course>82.46</course>
  <speed>0.0</speed>
  <fix>3d</fix>
</trkpt>
<trkpt lat="40.0728422" lon="-105.2305752">
  <ele>1591.3</ele>
  <time>2026-08-28T19:09:22Z</time>
  <course>11.43</course>
  <speed>0.022360679774997897</speed>
  <fix>3d</fix>
</trkpt>
<trkpt lat="40.0728423" lon="-105.2305753">
  <ele>1591.3</ele>
  <time>2026-08-28T19:09:22Z</time>
  <course>82.6</course>
  <speed>0.0</speed>
  <fix>3d</fix>
</trkpt>
<trkpt lat="40.0728422" lon="-105.2305752">
  <ele>1591.2</ele>
  <time>2026-08-28T19:09:22Z</time>
  <course>11.42</course>
  <speed>0.0282842712474619</speed>
  <fix>3d</fix>
</trkpt>
<trkpt lat="40.0728423" lon="-105.2305753">
  <ele>1591.2</ele>
  <time>2026-08-28T19:09:22Z</time>
  <course>81.74</course>
  <speed>0.0</speed>
  <fix>3d</fix>
</trkpt>
<trkpt lat="40.0728422" lon="-105.2305752">
  <ele>1591.1</ele>
  <time>2026-08-28T19:09:22Z</time>
  <course>11.42</course>
  <speed>0.0282842712474619</speed>
  <fix>3d</fix>
</trkpt>
<trkpt lat="40.0728423" lon="-105.2305753">
  <ele>1591.1</ele>
  <time>2026-08-28T19:09:22Z</time>
  <course>80.33</course>
  <speed>0.0</speed>
  <fix>3d</fix>
</trkpt>
<trkpt lat="40.0728422" lon="-105.2305752">
  <ele>1591.0</ele>
  <time>2026-08-28T19:09:22Z</time>
  <course>11.42</course>
  <speed>0.022360679774997897</speed>
  <fix>3d</fix>
</trkpt>
<trkpt lat="40.0728423" lon="-105.2305753">
  <ele>1591.0</ele>
  <time>2026-08-28T19:09:22Z</time>
  <course>78.29</course>
  <speed>0.0</speed>
  <fix>3d</fix>
</trkpt>
<trkpt lat="40.0728422" lon="-105.2305752">
  <ele>1590.9</ele>
  <time>2026-08-28T19:09:22Z</time>
  <course>11.41</course>
  <speed>0.022360679774997897</speed>
  <fix>3d</fix>
</trkpt>
<trkpt lat="40.0728423" lon="-105.2305753">
  <ele>1590.89</ele>
  <time>2026-08-28T19:09:22Z</time>
  <course>73.49</course>
  <speed>0.0</speed>
  <fix>3d</fix>
</trkpt>
<trkpt lat="40.0728422" lon="-105.2305752">
  <ele>1590.8</ele>
  <time>2026-08-28T19:09:22Z</time>
  <course>11.41</course>
  <speed>0.022360679774997897</speed>
  <fix>3d</fix>
</trkpt>
<trkpt lat="40.0728423" lon="-105.2305753">
  <ele>1590.8</ele>
  <time>2026-08-28T19:09:22Z</time>
  <course>74.34</course>
  <speed>0.0</speed>
  <fix>3d</fix>
</trkpt>
<trkpt lat="40.0728422" lon="-105.2305752">
  <ele>1590.7</ele>
  <time>2026-08-28T19:09:22Z</time>
  <course>11.41</course>
  <speed>0.022360679774997897</speed>
  <fix>3d</fix>
</trkpt>
<trkpt lat="40.0728423" lon="-105.2305753">
  <ele>1590.7</ele>
  <time>2026-08-28T19:09:22Z</time>
  <course>101.1</course>
  <speed>0.0</speed>
  <fix>3d</fix>
</trkpt>
<trkpt lat="40.0728422" lon="-105.2305752">
  <ele>1590.6</ele>
  <time>2026-08-28T19:09:22Z</time>
  <course>11.41</course>
  <speed>0.022360679774997897</speed>
  <fix>3d</fix>
</trkpt>
<trkpt lat="40.0728423" lon="-105.2305753">
  <ele>1590.6</ele>
  <time>2026-08-28T19:09:22Z</time>
  <course>254.12</course>
  <speed>0.0</speed>
  <fix>3d</fix>
</trkpt>
<trkpt lat="40.0728422" lon="-105.2305752">
  <ele>1590.5</ele>
  <time>2026-08-28T19:09:22Z</time>
  <course>11.41</course>
  <speed>0.022360679774997897</speed>
  <fix>3d</fix>
</trkpt>
<trkpt lat="40.0728423" lon="-105.2305753">
  <ele>1590.5</ele>
  <time>2026-08-28T19:09:22Z</time>
  <course>290.8</course>
  <speed>0.0</speed>
  <fix>3d</fix>
</trkpt>
<trkpt lat="40.0728422" lon="-105.2305752">
  <ele>1590.4</ele>
  <time>2026-08-28T19:09:22Z</time>
  <course>11.42</course>
  <speed>0.01414213562373095</speed>
  <fix>3d</fix>
</trkpt>
<trkpt lat="40.0728423" lon="-105.2305753">
  <ele>1590.39</ele>
  <time>2026-08-28T19:09:22Z</time>
  <course>301.15</course>
  <speed>0.0</speed>
  <fix>3d</fix>
</trkpt>
<trkpt lat="40.0728422" lon="-105.2305752">
  <ele>1590.3</ele>
  <time>2026-08-28T19:09:22Z</time>
  <course>11.42</course>
  <speed>0.01414213562373095</speed>
  <fix>3d</fix>
</trkpt>
<trkpt lat="40.0728423" lon="-105.2305753">
  <ele>1590.3</ele>
  <time>2026-08-28T19:09:22Z</time>
  <course>304.25</course>
  <speed>0.0</speed>
  <fix>3d</fix>
</trkpt>
<trkpt lat="40.0728422" lon="-105.2305752">
  <ele>1590.2</ele>
  <time>2026-08-28T19:09:22Z</time>
  <course>11.42</course>
  <speed>0.01414213562373095</speed>
  <fix>3d</fix>
</trkpt>
<trkpt lat="40.0728423" lon="-105.2305753">
  <ele>1590.2</ele>
  <time>2026-08-28T19:09:22Z</time>
  <course>304.7</course>
  <speed>0.0</speed>
  <fix>3d</fix>
</trkpt>
<trkpt lat="40.0728422" lon="-105.2305752">
  <ele>1590.1</ele>
  <time>2026-08-28T19:09:22Z</time>
  <course>11.43</course>
  <speed>0.01414213562373095</speed>
  <fix>3d</fix>
</trkpt>
<trkpt lat="40.0728423" lon="-105.2305753">
  <ele>1590.1</ele>
  <time>2026-08-28T19:09:22Z</time>
  <course>306.77</course>
  <speed>0.0</speed>
  <fix>3d</fix>
</trkpt>
<trkpt lat="40.0728422" lon="-105.2305752">
  <ele>1590.0</ele>
  <time>2026-08-28T19:09:22Z</time>
  <course>11.43</course>
  <speed>0.022360679774997897</speed>
  <fix>3d</fix>
</trkpt>
<trkpt lat="40.0728423" lon="-105.2305753">
  <ele>1590.0</ele>
  <time>2026-08-28T19:09:22Z</time>
  <course>303.82</course>
  <speed>0.0</speed>
  <fix>3d</fix>
</trkpt>
<trkpt lat="40.0728422" lon="-105.2305752">
  <ele>1589.9</ele>
  <time>2026-08-28T19:09:22Z</time>
  <course>11.43</course>
  <speed>0.022360679774997897</speed>
  <fix>3d</fix>
</trkpt>
<trkpt lat="40.0728423" lon="-105.2305753">
  <ele>1589.89</ele>
  <time>2026-08-28T19:09:22Z</time>
  <course>275.45</course>
  <speed>0.0</speed>
  <fix>3d</fix>
</trkpt>
<trkpt lat="40.0728422" lon="-105.2305752">
  <ele>1589.8</ele>
  <time>2026-08-28T19:09:22Z</time>
  <course>11.43</course>
  <speed>0.022360679774997897</speed>
  <fix>3d</fix>
</trkpt>
<trkpt lat="40.0728423" lon="-105.2305753">
  <ele>1589.8</ele>
  <time>2026-08-28T19:09:22Z</time>
  <course>268.19</course>
  <speed>0.0</speed>
  <fix>3d</fix>
</trkpt>
<trkpt lat="40.0728422" lon="-105.2305752">
  <ele>1589.71</ele>
  <time>2026-08-28T19:09:22Z</time>
  <course>11.43</course>
  <speed>0.01414213562373095</speed>
  <fix>3d</fix>
</trkpt>
<trkpt lat="40.0728423" lon="-105.2305753">
  <ele>1589.7</ele>
  <time>2026-08-28T19:09:22Z</time>
  <course>282.34</course>
  <speed>0.0</speed>
  <fix>3d</fix>
</trkpt>
<trkpt lat="40.0728422" lon="-105.2305752">
  <ele>1589.61</ele>
  <time>2026-08-28T19:09:22Z</time>
  <course>11.42</course>
  <speed>0.01414213562373095</speed>
  <fix>3d</fix>
</trkpt>
<trkpt lat="40.0728423" lon="-105.2305753">
  <ele>1589.6</ele>
  <time>2026-08-28T19:09:22Z</time>
  <course>291.28</course>
  <speed>0.0</speed>
  <fix>3d</fix>
</trkpt>
<trkpt lat="40.0728422" lon="-105.2305752">
  <ele>1589.5</ele>
  <time>2026-08-28T19:09:22Z</time>
  <course>11.41</course>
  <speed>0.01414213562373095</speed>
  <fix>3d</fix>
</trkpt>
<trkpt lat="40.0728423" lon="-105.2305753">
  <ele>1589.5</ele>
  <time>2026-08-28T19:09:22Z</time>
  <course>293.16</course>
  <speed>0.0</speed>
  <fix>3d</fix>
</trkpt>
<trkpt lat="40.0728422" lon="-105.2305752">
  <ele>1589.4</ele>
  <time>2026-08-28T19:09:22Z</time>
  <course>11.41</course>
  <speed>0.01414213562373095</speed>
  <fix>3d</fix>
</trkpt>
<trkpt lat="40.0728423" lon="-105.2305753">
  <ele>1589.39</ele>
  <time>2026-08-28T19:09:22Z</time>
  <course>295.64</course>
  <speed>0.0</speed>
  <fix>3d</fix>
</trkpt>
<trkpt lat="40.0728422" lon="-105.2305752">
  <ele>1589.3</ele>
  <time>2026-08-28T19:09:22Z</time>
  <course>11.41</course>
  <speed>0.01414213562373095</speed>
  <fix>3d</fix>
</trkpt>
<trkpt lat="40.0728423" lon="-105.2305753">
  <ele>1589.3</ele>
  <time>2026-08-28T19:09:22Z</time>
  <course>302.1</course>
  <speed>0.0</speed>
  <fix>3d</fix>
</trkpt>
<trkpt lat="40.0728422" lon="-105.2305752">
  <ele>1589.19</ele>
  <time>2026-08-28T19:09:22Z</time>
  <course>11.41</course>
  <speed>0.01414213562373095</speed>
  <fix>3d</fix>
</trkpt>
<trkpt lat="40.0728423" lon="-105.2305753">
  <ele>1589.2</ele>
  <time>2026-08-28T19:09:22Z</time>
  <course>306.45</course>
  <speed>0.0</speed>
  <fix>3d</fix>
</trkpt>
<trkpt lat="40.0728422" lon="-105.2305752">
  <ele>1589.09</ele>
  <time>2026-08-28T19:09:22Z</time>
  <course>11.41</course>
  <speed>0.01414213562373095</speed>
  <fix>3d</fix>
</trkpt>
<trkpt lat="40.0728423" lon="-105.2305753">
  <ele>1589.1</ele>
  <time>2026-08-28T19:09:22Z</time>
  <course>301.87</course>
  <speed>0.0</speed>
  <fix>3d</fix>
</trkpt>
<trkpt lat="40.0728422" lon="-105.2305752">
  <ele>1588.99</ele>
  <time>2026-08-28T19:09:22Z</time>
  <course>11.41</course>
  <speed>0.01414213562373095</speed>
  <fix>3d</fix>
</trkpt>
<trkpt lat="40.0728423" lon="-105.2305753">
  <ele>1589.0</ele>
  <time>2026-08-28T19:09:22Z</time>
  <course>298.62</course>
  <speed>0.0</speed>
  <fix>3d</fix>
</trkpt>
<trkpt lat="40.0728422" lon="-105.2305752">
  <ele>1588.89</ele>
  <time>2026-08-28T19:09:22Z</time>
  <course>11.41</course>
  <speed>0.01414213562373095</speed>
  <fix>3d</fix>
</trkpt>
<trkpt lat="40.0728423" lon="-105.2305753">
  <ele>1588.89</ele>
  <time>2026-08-28T19:09:22Z</time>
  <course>297.43</course>
  <speed>0.0</speed>
  <fix>3d</fix>
</trkpt>
<trkpt lat="40.0728422" lon="-105.2305752">
  <ele>1588.8</ele>
  <time>2026-08-28T19:09:22Z</time>
  <course>11.41</course>
  <speed>0.01414213562373095</speed>
  <fix>3d</fix>
</trkpt>
<trkpt lat="40.0728423" lon="-105.2305753">
  <ele>1588.8</ele>
  <time>2026-08-28T19:09:22Z</time>
  <course>291.51</course>
  <speed>0.0</speed>
  <fix>3d</fix>
</trkpt>
<trkpt lat="40.0728422" lon="-105.2305752">
  <ele>1588.7</ele>
  <time>2026-08-28T19:09:22Z</time>
  <course>11.41</course>
  <speed>0.01414213562373095</speed>
  <fix>3d</fix>
</trkpt>
<trkpt lat="40.0728423" lon="-105.2305753">
  <ele>1588.71</ele>
  <time>2026-08-28T19:09:22Z</time>
  <course>285.28</course>
  <speed>0.0</speed>
  <fix>3d</fix>
</trkpt>
<trkpt lat="40.0728422" lon="-105.2305752">
  <ele>1588.6</ele>
  <time>2026-08-28T19:09:22Z</time>
  <course>11.4</course>
  <speed>0.01414213562373095</speed>
  <fix>3d</fix>
</trkpt>
<trkpt lat="40.0728423" lon="-105.2305753">
  <ele>1588.61</ele>
  <time>2026-08-28T19:09:22Z</time>
  <course>287.13</course>
  <speed>0.0</speed>
  <fix>3d</fix>
</trkpt>
<trkpt lat="40.0728422" lon="-105.2305752">
  <ele>1588.5</ele>
  <time>2026-08-28T19:09:22Z</time>
  <course>11.4</course>
  <speed>0.01414213562373095</speed>
  <fix>3d</fix>
</trkpt>
<trkpt lat="40.0728423" lon="-105.2305753">
  <ele>1588.51</ele>
  <time>2026-08-28T19:09:22Z</time>
  <course>290.78</course>
  <speed>0.0</speed>
  <fix>3d</fix>
</trkpt>
<trkpt lat="40.0728422" lon="-105.2305752">
  <ele>1588.4</ele>
  <time>2026-08-28T19:09:22Z</time>
  <course>11.41</course>
  <speed>0.01414213562373095</speed>
  <fix>3d</fix>
</trkpt>
<trkpt lat="40.0728423" lon="-105.2305753">
  <ele>1588.4</ele>
  <time>2026-08-28T19:09:22Z</time>
  <course>292.54</course>
  <speed>0.0</speed>
  <fix>3d</fix>
</trkpt>
<trkpt lat="40.0728422" lon="-105.2305752">
  <ele>1588.3</ele>
  <time>2026-08-28T19:09:22Z</time>
  <course>11.41</course>
  <speed>0.01414213562373095</speed>
  <fix>3d</fix>
</trkpt>
<trkpt lat="40.0728423" lon="-105.2305754">
  <ele>1588.31</ele>
  <time>2026-08-28T19:09:22Z</time>
  <course>294.66</course>
  <speed>0.0</speed>
  <fix>3d</fix>
</trkpt>
<trkpt lat="40.0728422" lon="-105.2305752">
  <ele>1588.2</ele>
  <time>2026-08-28T19:09:22Z</time>
  <course>11.41</course>
  <speed>0.01414213562373095</speed>
  <fix>3d</fix>
</trkpt>
<trkpt lat="40.0728423" lon="-105.2305755">
  <ele>1588.21</ele>
  <time>2026-08-28T19:09:22Z</time>
  <course>296.4</course>
  <speed>0.0</speed>
  <fix>3d</fix>
</trkpt>
<trkpt lat="40.0728422" lon="-105.2305752">
  <ele>1588.1</ele>
  <time>2026-08-28T19:09:22Z</time>
  <course>11.4</course>
  <speed>0.01414213562373095</speed>
  <fix>3d</fix>
</trkpt>
<trkpt lat="40.0728423" lon="-105.2305755">
  <ele>1588.11</ele>
  <time>2026-08-28T19:09:22Z</time>
  <course>296.71</course>
  <speed>0.0</speed>
  <fix>3d</fix>
</trkpt>
<trkpt lat="40.0728422" lon="-105.2305752">
  <ele>1588.0</ele>
  <time>2026-08-28T19:09:22Z</time>
  <course>11.4</course>
  <speed>0.01414213562373095</speed>
  <fix>3d</fix>
</trkpt>
<trkpt lat="40.0728423" lon="-105.2305755">
  <ele>1588.01</ele>
  <time>2026-08-28T19:09:22Z</time>
  <course>297.91</course>
  <speed>0.0</speed>
  <fix>3d</fix>
</trkpt>
<trkpt lat="40.0728422" lon="-105.2305752">
  <ele>1587.9</ele>
  <time>2026-08-28T19:09:22Z</time>
  <course>11.4</course>
  <speed>0.01414213562373095</speed>
  <fix>3d</fix>
</trkpt>
<trkpt lat="40.0728423" lon="-105.2305755">
  <ele>1587.9</ele>
  <time>2026-08-28T19:09:22Z</time>
  <course>305.91</course>
  <speed>0.0</speed>
  <fix>3d</fix>
</trkpt>
<trkpt lat="40.0728422" lon="-105.2305752">
  <ele>1587.8</ele>
  <time>2026-08-28T19:09:22Z</time>
  <course>11.4</course>
  <speed>0.022360679774997897</speed>
  <fix>3d</fix>
</trkpt>
<trkpt lat="40.0728423" lon="-105.2305755">
  <ele>1587.81</ele>
  <time>2026-08-28T19:09:22Z</time>
  <course>309.04</course>
  <speed>0.0</speed>
  <fix>3d</fix>
</trkpt>
<trkpt lat="40.0728422" lon="-105.2305752">
  <ele>1587.7</ele>
  <time>2026-08-28T19:09:22Z</time>
  <course>11.4</course>
  <speed>0.01414213562373095</speed>
  <fix>3d</fix>
</trkpt>
<trkpt lat="40.0728423" lon="-105.2305755">
  <ele>1587.71</ele>
  <time>2026-08-28T19:09:22Z</time>
  <course>325.2</course>
  <speed>0.0</speed>
  <fix>3d</fix>
</trkpt>
<trkpt lat="40.0728422" lon="-105.2305752">
  <ele>1587.6</ele>
  <time>2026-08-28T19:09:22Z</time>
  <course>11.4</course>
  <speed>0.01414213562373095</speed>
  <fix>3d</fix>
</trkpt>
<trkpt lat="40.0728423" lon="-105.2305755">
  <ele>1587.61</ele>
  <time>2026-08-28T19:09:22Z</time>
  <course>26.96</course>
  <speed>0.0</speed>
  <fix>3d</fix>
</trkpt>
<trkpt lat="40.0728422" lon="-105.2305752">
  <ele>1587.5</ele>
  <time>2026-08-28T19:09:22Z</time>
  <course>11.4</course>
  <speed>0.01414213562373095</speed>
  <fix>3d</fix>
</trkpt>
<trkpt lat="40.0728423" lon="-105.2305755">
  <ele>1587.51</ele>
  <time>2026-08-28T19:09:22Z</time>
  <course>48.48</course>
  <speed>0.0</speed>
  <fix>3d</fix>
</trkpt>
<trkpt lat="40.0728422" lon="-105.2305753">
  <ele>1587.4</ele>
  <time>2026-08-28T19:09:22Z</time>
  <course>11.4</course>
  <speed>0.01414213562373095</speed>
  <fix>3d</fix>
</trkpt>
<trkpt lat="40.0728423" lon="-105.2305755">
  <ele>1587.4</ele>
  <time>2026-08-28T19:09:22Z</time>
  <course>49.89</course>
  <speed>0.0</speed>
  <fix>3d</fix>
</trkpt>
<trkpt lat="40.0728422" lon="-105.2305753">
  <ele>1587.3</ele>
  <time>2026-08-28T19:09:22Z</time>
  <course>11.41</course>
  <speed>0.022360679774997897</speed>
  <fix>3d</fix>
</trkpt>
<trkpt lat="40.0728423" lon="-105.2305755">
  <ele>1587.3</ele>
  <time>2026-08-28T19:09:22Z</time>
  <course>58.78</course>
  <speed>0.0</speed>
  <fix>3d</fix>
</trkpt>
<trkpt lat="40.0728422" lon="-105.2305753">
  <ele>1587.2</ele>
  <time>2026-08-28T19:09:22Z</time>
  <course>11.4</course>
  <speed>0.022360679774997897</speed>
  <fix>3d</fix>
</trkpt>
<trkpt lat="40.0728423" lon="-105.2305755">
  <ele>1587.2</ele>
  <time>2026-08-28T19:09:22Z</time>
  <course>75.03</course>
  <speed>0.0</speed>
  <fix>3d</fix>
</trkpt>
<trkpt lat="40.0728422" lon="-105.2305753">
  <ele>1587.1</ele>
  <time>2026-08-28T19:09:22Z</time>
  <course>11.4</course>
  <speed>0.022360679774997897</speed>
  <fix>3d</fix>
</trkpt>
<trkpt lat="40.0728423" lon="-105.2305755">
  <ele>1587.1</ele>
  <time>2026-08-28T19:09:22Z</time>
  <course>67.71</course>
  <speed>0.0</speed>
  <fix>3d</fix>
</trkpt>
<trkpt lat="40.0728422" lon="-105.2305753">
  <ele>1587.0</ele>
  <time>2026-08-28T19:09:22Z</time>
  <course>11.4</course>
  <speed>0.022360679774997897</speed>
  <fix>3d</fix>
</trkpt>
<trkpt lat="40.0728423" lon="-105.2305755">
  <ele>1587.0</ele>
  <time>2026-08-28T19:09:22Z</time>
  <course>66.29</course>
  <speed>0.0</speed>
  <fix>3d</fix>
</trkpt>
<trkpt lat="40.0728422" lon="-105.2305753">
  <ele>1586.9</ele>
  <time>2026-08-28T19:09:22Z</time>
  <course>11.4</course>
  <speed>0.022360679774997897</speed>
  <fix>3d</fix>
</trkpt>
<trkpt lat="40.0728423" lon="-105.2305755">
  <ele>1586.89</ele>
  <time>2026-08-28T19:09:22Z</time>
  <course>72.84</course>
  <speed>0.0</speed>
  <fix>3d</fix>
</trkpt>
<trkpt lat="40.0728422" lon="-105.2305753">
  <ele>1586.8</ele>
  <time>2026-08-28T19:09:22Z</time>
  <course>11.39</course>
  <speed>0.022360679774997897</speed>
  <fix>3d</fix>
</trkpt>
<trkpt lat="40.0728423" lon="-105.2305755">
  <ele>1586.8</ele>
  <time>2026-08-28T19:09:22Z</time>
  <course>75.49</course>
  <speed>0.0</speed>
  <fix>3d</fix>
</trkpt>
<trkpt lat="40.0728422" lon="-105.2305753">
  <ele>1586.7</ele>
  <time>2026-08-28T19:09:22Z</time>
  <course>11.39</course>
  <speed>0.022360679774997897</speed>
  <fix>3d</fix>
</trkpt>
<trkpt lat="40.0728423" lon="-105.2305755">
  <ele>1586.7</ele>
  <time>2026-08-28T19:09:22Z</time>
  <course>77.65</course>
  <speed>0.0</speed>
  <fix>3d</fix>
</trkpt>
<trkpt lat="40.0728422" lon="-105.2305753">
  <ele>1586.61</ele>
  <time>2026-08-28T19:09:22Z</time>
  <course>11.39</course>
  <speed>0.022360679774997897</speed>
  <fix>3d</fix>
</trkpt>
<trkpt lat="40.0728423" lon="-105.2305755">
  <ele>1586.6</ele>
  <time>2026-08-28T19:09:22Z</time>
  <course>77.77</course>
  <speed>0.0</speed>
  <fix>3d</fix>
</trkpt>
<trkpt lat="40.0728422" lon="-105.2305753">
  <ele>1586.51</ele>
  <time>2026-08-28T19:09:22Z</time>
  <course>11.39</course>
  <speed>0.022360679774997897</speed>
  <fix>3d</fix>
</trkpt>
<trkpt lat="40.0728423" lon="-105.2305755">
  <ele>1586.5</ele>
  <time>2026-08-28T19:09:22Z</time>
  <course>76.79</course>
  <speed>0.0</speed>
  <fix>3d</fix>
</trkpt>
<trkpt lat="40.0728422" lon="-105.2305753">
  <ele>1586.41</ele>
  <time>2026-08-28T19:09:22Z</time>
  <course>11.39</course>
  <speed>0.022360679774997897</speed>
  <fix>3d</fix>
</trkpt>
<trkpt lat="40.0728423" lon="-105.2305755">
  <ele>1586.39</ele>
  <time>2026-08-28T19:09:22Z</time>
  <course>78.59</course>
  <speed>0.0</speed>
  <fix>3d</fix>
</trkpt>
<trkpt lat="40.0728422" lon="-105.2305753">
  <ele>1586.3</ele>
  <time>2026-08-28T19:09:22Z</time>
  <course>11.4</course>
  <speed>0.0282842712474619</speed>
  <fix>3d</fix>
</trkpt>
<trkpt lat="40.0728423" lon="-105.2305754">
  <ele>1586.3</ele>
  <time>2026-08-28T19:09:22Z</time>
  <course>81.49</course>
  <speed>0.0</speed>
  <fix>3d</fix>
</trkpt>
<trkpt lat="40.0728422" lon="-105.2305753">
  <ele>1586.2</ele>
  <time>2026-08-28T19:09:22Z</time>
  <course>11.4</course>
  <speed>0.022360679774997897</speed>
  <fix>3d</fix>
</trkpt>
<trkpt lat="40.0728423" lon="-105.2305753">
  <ele>1586.2</ele>
  <time>2026-08-28T19:09:22Z</time>
  <course>84.01</course>
  <speed>0.0</speed>
  <fix>3d</fix>
</trkpt>
<trkpt lat="40.0728422" lon="-105.2305753">
  <ele>1586.15</ele>
  <time>2026-08-28T19:09:22Z</time>
  <course>11.4</course>
  <speed>0.022360679774997897</speed>
  <fix>3d</fix>
</trkpt>
<trkpt lat="40.0728423" lon="-105.2305753">
  <ele>1586.11</ele>
  <time>2026-08-28T19:09:22Z</time>
  <course>84.27</course>
  <speed>0.0</speed>
  <fix>3d</fix>
</trkpt>
<trkpt lat="40.0728422" lon="-105.2305752">
  <ele>1586.17</ele>
  <time>2026-08-28T19:09:22Z</time>
  <course>11.39</course>
  <speed>0.022360679774997897</speed>
  <fix>3d</fix>
</trkpt>
<trkpt lat="40.0728423" lon="-105.2305753">
  <ele>1586.08</ele>
  <time>2026-08-28T19:09:22Z</time>
  <course>260.22</course>
  <speed>0.0</speed>
  <fix>3d</fix>
</trkpt>
<trkpt lat="40.0728422" lon="-105.2305752">
  <ele>1586.18</ele>
  <time>2026-08-28T19:09:22Z</time>
  <course>11.39</course>
  <speed>0.022360679774997897</speed>
  <fix>3d</fix>
</trkpt>
<trkpt lat="40.0728423" lon="-105.2305753">
  <ele>1586.09</ele>
  <time>2026-08-28T19:09:22Z</time>
  <course>260.0</course>
  <speed>0.0</speed>
  <fix>3d</fix>
</trkpt>
<trkpt lat="40.0728422" lon="-105.2305752">
  <ele>1586.17</ele>
  <time>2026-08-28T19:09:22Z</time>
  <course>11.39</course>
  <speed>0.022360679774997897</speed>
  <fix>3d</fix>
</trkpt>
<trkpt lat="40.0728423" lon="-105.2305753">
  <ele>1586.09</ele>
  <time>2026-08-28T19:09:22Z</time>
  <course>80.14</course>
  <speed>0.0</speed>
  <fix>3d</fix>
</trkpt>
<trkpt lat="40.0728422" lon="-105.2305752">
  <ele>1586.17</ele>
  <time>2026-08-28T19:09:22Z</time>
  <course>11.39</course>
  <speed>0.022360679774997897</speed>
  <fix>3d</fix>
</trkpt>
<trkpt lat="40.0728423" lon="-105.2305753">
  <ele>1586.09</ele>
  <time>2026-08-28T19:09:22Z</time>
  <course>80.08</course>
  <speed>0.0</speed>
  <fix>3d</fix>
</trkpt>
<trkpt lat="40.0728422" lon="-105.2305752">
  <ele>1586.17</ele>
  <time>2026-08-28T19:09:22Z</time>
  <course>11.39</course>
  <speed>0.022360679774997897</speed>
  <fix>3d</fix>
</trkpt>
<trkpt lat="40.0728423" lon="-105.2305753">
  <ele>1586.09</ele>
  <time>2026-08-28T19:09:22Z</time>
  <course>259.66</course>
  <speed>0.0</speed>
  <fix>3d</fix>
</trkpt>
<trkpt lat="40.0728422" lon="-105.2305752">
  <ele>1586.17</ele>
  <time>2026-08-28T19:09:22Z</time>
  <course>11.39</course>
  <speed>0.01414213562373095</speed>
  <fix>3d</fix>
</trkpt>
<trkpt lat="40.0728423" lon="-105.2305753">
  <ele>1586.09</ele>
  <time>2026-08-28T19:09:22Z</time>
  <course>257.87</course>
  <speed>0.0</speed>
  <fix>3d</fix>
</trkpt>
<trkpt lat="40.0728422" lon="-105.2305752">
  <ele>1586.17</ele>
  <time>2026-08-28T19:09:22Z</time>
  <course>11.39</course>
  <speed>0.01414213562373095</speed>
  <fix>3d</fix>
</trkpt>
<trkpt lat="40.0728423" lon="-105.2305753">
  <ele>1586.09</ele>
  <time>2026-08-28T19:09:22Z</time>
  <course>81.08</course>
  <speed>0.0</speed>
  <fix>3d</fix>
</trkpt>
<trkpt lat="40.0728422" lon="-105.2305752">
  <ele>1586.17</ele>
  <time>2026-08-28T19:09:22Z</time>
  <course>11.39</course>
  <speed>0.01414213562373095</speed>
  <fix>3d</fix>
</trkpt>
<trkpt lat="40.0728423" lon="-105.2305753">
  <ele>1586.09</ele>
  <time>2026-08-28T19:09:22Z</time>
  <course>21.99</course>
  <speed>0.0</speed>
  <fix>3d</fix>
</trkpt>
<trkpt lat="40.0728422" lon="-105.2305752">
  <ele>1586.17</ele>
  <time>2026-08-28T19:09:22Z</time>
  <course>11.39</course>
  <speed>0.01414213562373095</speed>
  <fix>3d</fix>
</trkpt>
<trkpt lat="40.0728423" lon="-105.2305753">
  <ele>1586.09</ele>
  <time>2026-08-28T19:09:22Z</time>
  <course>290.59</course>
  <speed>0.0</speed>
  <fix>3d</fix>
</trkpt>
<trkpt lat="40.0728422" lon="-105.2305752">
  <ele>1586.17</ele>
  <time>2026-08-28T19:09:22Z</time>
  <course>11.38</course>
  <speed>0.01414213562373095</speed>
  <fix>3d</fix>
</trkpt>
<trkpt lat="40.0728423" lon="-105.2305753">
  <ele>1586.09</ele>
  <time>2026-08-28T19:09:22Z</time>
  <course>135.08</course>
  <speed>0.0</speed>
  <fix>3d</fix>
</trkpt>
<trkpt lat="40.0728422" lon="-105.2305752">
  <ele>1586.18</ele>
  <time>2026-08-28T19:09:22Z</time>
  <course>11.38</course>
  <speed>0.01414213562373095</speed>
  <fix>3d</fix>
</trkpt>
<trkpt lat="40.0728423" lon="-105.2305753">
  <ele>1586.09</ele>
  <time>2026-08-28T19:09:22Z</time>
  <course>110.22</course>
  <speed>0.0</speed>
  <fix>3d</fix>
</trkpt>
<trkpt lat="40.0728422" lon="-105.2305752">
  <ele>1586.18</ele>
  <time>2026-08-28T19:09:22Z</time>
  <course>11.38</course>
  <speed>0.01414213562373095</speed>
  <fix>3d</fix>
</trkpt>
<trkpt lat="40.0728423" lon="-105.2305753">
  <ele>1586.09</ele>
  <time>2026-08-28T19:09:22Z</time>
  <course>293.36</course>
  <speed>0.0</speed>
  <fix>3d</fix>
</trkpt>
<trkpt lat="40.0728422" lon="-105.2305752">
  <ele>1586.18</ele>
  <time>2026-08-28T19:09:22Z</time>
  <course>11.38</course>
  <speed>0.01414213562373095</speed>
  <fix>3d</fix>
</trkpt>
<trkpt lat="40.0728423" lon="-105.2305753">
  <ele>1586.09</ele>
  <time>2026-08-28T19:09:22Z</time>
  <course>289.8</course>
  <speed>0.0</speed>
  <fix>3d</fix>
</trkpt>
<trkpt lat="40.0728422" lon="-105.2305752">
  <ele>1586.18</ele>
  <time>2026-08-28T19:09:22Z</time>
  <course>11.38</course>
  <speed>0.01414213562373095</speed>
  <fix>3d</fix>
</trkpt>
<trkpt lat="40.0728423" lon="-105.2305753">
  <ele>1586.09</ele>
  <time>2026-08-28T19:09:22Z</time>
  <course>111.81</course>
  <speed>0.0</speed>
  <fix>3d</fix>
</trkpt>
<trkpt lat="40.0728422" lon="-105.2305752">
  <ele>1586.18</ele>
  <time>2026-08-28T19:09:22Z</time>
  <course>11.37</course>
  <speed>0.01414213562373095</speed>
  <fix>3d</fix>
</trkpt>
<trkpt lat="40.0728423" lon="-105.2305753">
  <ele>1586.09</ele>
  <time>2026-08-28T19:09:22Z</time>
  <course>109.16</course>
  <speed>0.0</speed>
  <fix>3d</fix>
</trkpt>
<trkpt lat="40.0728422" lon="-105.2305752">
  <ele>1586.18</ele>
  <time>2026-08-28T19:09:22Z</time>
  <course>11.37</course>
  <speed>0.01414213562373095</speed>
  <fix>3d</fix>
</trkpt>
<trkpt lat="40.0728423" lon="-105.2305753">
  <ele>1586.09</ele>
  <time>2026-08-28T19:09:22Z</time>
  <course>291.15</course>
  <speed>0.0</speed>
  <fix>3d</fix>
</trkpt>
<trkpt lat="40.0728422" lon="-105.2305752">
  <ele>1586.18</ele>
  <time>2026-08-28T19:09:22Z</time>
  <course>11.37</course>
  <speed>0.01414213562373095</speed>
  <fix>3d</fix>
</trkpt>
<trkpt lat="40.0728423" lon="-105.2305753">
  <ele>1586.09</ele>
  <time>2026-08-28T19:09:22Z</time>
  <course>287.71</course>
  <speed>0.0</speed>
  <fix>3d</fix>
</trkpt>
<trkpt lat="40.0728422" lon="-105.2305752">
  <ele>1586.19</ele>
  <time>2026-08-28T19:09:22Z</time>
  <course>11.37</course>
  <speed>0.01414213562373095</speed>
  <fix>3d</fix>
</trkpt>
<trkpt lat="40.0728423" lon="-105.2305753">
  <ele>1586.09</ele>
  <time>2026-08-28T19:09:22Z</time>
  <course>110.72</course>
  <speed>0.0</speed>
  <fix>3d</fix>
</trkpt>
<trkpt lat="40.0728422" lon="-105.2305752">
  <ele>1586.19</ele>
  <time>2026-08-28T19:09:22Z</time>
  <course>11.36</course>
  <speed>0.01414213562373095</speed>
  <fix>3d</fix>
</trkpt>
<trkpt lat="40.0728423" lon="-105.2305753">
  <ele>1586.09</ele>
  <time>2026-08-28T19:09:22Z</time>
  <course>90.52</course>
  <speed>0.0</speed>
  <fix>3d</fix>
</trkpt>
<trkpt lat="40.0728422" lon="-105.2305752">
  <ele>1586.19</ele>
  <time>2026-08-28T19:09:22Z</time>
  <course>11.36</course>
  <speed>0.01414213562373095</speed>
  <fix>3d</fix>
</trkpt>
<trkpt lat="40.0728423" lon="-105.2305753">
  <ele>1586.09</ele>
  <time>2026-08-28T19:09:22Z</time>
  <course>290.34</course>
  <speed>0.0</speed>
  <fix>3d</fix>
</trkpt>
<trkpt lat="40.0728422" lon="-105.2305752">
  <ele>1586.19</ele>
  <time>2026-08-28T19:09:22Z</time>
  <course>11.36</course>
  <speed>0.01414213562373095</speed>
  <fix>3d</fix>
</trkpt>
<trkpt lat="40.0728423" lon="-105.2305753">
  <ele>1586.09</ele>
  <time>2026-08-28T19:09:22Z</time>
  <course>114.48</course>
  <speed>0.0</speed>
  <fix>3d</fix>
</trkpt>
<trkpt lat="40.0728422" lon="-105.2305752">
  <ele>1586.19</ele>
  <time>2026-08-28T19:09:22Z</time>
  <course>11.36</course>
  <speed>0.01414213562373095</speed>
  <fix>3d</fix>
</trkpt>
<trkpt lat="40.0728423" lon="-105.2305753">
  <ele>1586.09</ele>
  <time>2026-08-28T19:09:22Z</time>
  <course>109.94</course>
  <speed>0.0</speed>
  <fix>3d</fix>
</trkpt>
<trkpt lat="40.0728422" lon="-105.2305752">
  <ele>1586.19</ele>
  <time>2026-08-28T19:09:22Z</time>
  <course>11.35</course>
  <speed>0.01414213562373095</speed>
  <fix>3d</fix>
</trkpt>
<trkpt lat="40.0728423" lon="-105.2305753">
  <ele>1586.09</ele>
  <time>2026-08-28T19:09:22Z</time>
  <course>292.11</course>
  <speed>0.0</speed>
  <fix>3d</fix>
</trkpt>
<trkpt lat="40.0728422" lon="-105.2305752">
  <ele>1586.19</ele>
  <time>2026-08-28T19:09:22Z</time>
  <course>11.35</course>
  <speed>0.01414213562373095</speed>
  <fix>3d</fix>
</trkpt>
<trkpt lat="40.0728423" lon="-105.2305753">
  <ele>1586.09</ele>
  <time>2026-08-28T19:09:22Z</time>
  <course>289.39</course>
  <speed>0.0</speed>
  <fix>3d</fix>
</trkpt>
<trkpt lat="40.0728422" lon="-105.2305752">
  <ele>1586.19</ele>
  <time>2026-08-28T19:09:22Z</time>
  <course>11.35</course>
  <speed>0.01414213562373095</speed>
  <fix>3d</fix>
</trkpt>
<trkpt lat="40.0728423" lon="-105.2305753">
  <ele>1586.09</ele>
  <time>2026-08-28T19:09:22Z</time>
  <course>111.29</course>
  <speed>0.0</speed>
  <fix>3d</fix>
</trkpt>
<trkpt lat="40.0728422" lon="-105.2305752">
  <ele>1586.19</ele>
  <time>2026-08-28T19:09:22Z</time>
  <course>11.34</course>
  <speed>0.01414213562373095</speed>
  <fix>3d</fix>
</trkpt>
<trkpt lat="40.0728423" lon="-105.2305753">
  <ele>1586.09</ele>
  <time>2026-08-28T19:09:22Z</time>
  <course>108.25</course>
  <speed>0.0</speed>
  <fix>3d</fix>
</trkpt>
<trkpt lat="40.0728422" lon="-105.2305752">
  <ele>1586.19</ele>
  <time>2026-08-28T19:09:22Z</time>
  <course>11.34</course>
  <speed>0.01414213562373095</speed>
  <fix>3d</fix>
</trkpt>
<trkpt lat="40.0728423" lon="-105.2305753">
  <ele>1586.09</ele>
  <time>2026-08-28T19:09:22Z</time>
  <course>290.99</course>
  <speed>0.0</speed>
  <fix>3d</fix>
</trkpt>
<trkpt lat="40.0728422" lon="-105.2305752">
  <ele>1586.19</ele>
  <time>2026-08-28T19:09:22Z</time>
  <course>11.34</course>
  <speed>0.01414213562373095</speed>
  <fix>3d</fix>
</trkpt>
<trkpt lat="40.0728423" lon="-105.2305753">
  <ele>1586.09</ele>
  <time>2026-08-28T19:09:22Z</time>
  <course>288.28</course>
  <speed>0.0</speed>
  <fix>3d</fix>
</trkpt>
<trkpt lat="40.0728422" lon="-105.2305752">
  <ele>1586.19</ele>
  <time>2026-08-28T19:09:22Z</time>
  <course>11.33</course>
  <speed>0.01414213562373095</speed>
  <fix>3d</fix>
</trkpt>
<trkpt lat="40.0728423" lon="-105.2305753">
  <ele>1586.09</ele>
  <time>2026-08-28T19:09:22Z</time>
  <course>109.28</course>
  <speed>0.0</speed>
  <fix>3d</fix>
</trkpt>
<trkpt lat="40.0728422" lon="-105.2305752">
  <ele>1586.19</ele>
  <time>2026-08-28T19:09:22Z</time>
  <course>11.33</course>
  <speed>0.01414213562373095</speed>
  <fix>3d</fix>
</trkpt>
<trkpt lat="40.0728423" lon="-105.2305753">
  <ele>1586.09</ele>
  <time>2026-08-28T19:09:22Z</time>
  <course>287.3</course>
  <speed>0.0</speed>
  <fix>3d</fix>
</trkpt>
<trkpt lat="40.0728422" lon="-105.2305752">
  <ele>1586.19</ele>
  <time>2026-08-28T19:09:22Z</time>
  <course>11.33</course>
  <speed>0.01414213562373095</speed>
  <fix>3d</fix>
</trkpt>
<trkpt lat="40.0728423" lon="-105.2305753">
  <ele>1586.09</ele>
  <time>2026-08-28T19:09:22Z</time>
  <course>298.59</course>
  <speed>0.0</speed>
  <fix>3d</fix>
</trkpt>
<trkpt lat="40.0728422" lon="-105.2305752">
  <ele>1586.19</ele>
  <time>2026-08-28T19:09:22Z</time>
  <course>11.32</course>
  <speed>0.01414213562373095</speed>
  <fix>3d</fix>
</trkpt>
<trkpt lat="40.0728423" lon="-105.2305753">
  <ele>1586.09</ele>
  <time>2026-08-28T19:09:22Z</time>
  <course>9.6</course>
  <speed>0.0</speed>
  <fix>3d</fix>
</trkpt>
<trkpt lat="40.0728422" lon="-105.2305752">
  <ele>1586.19</ele>
  <time>2026-08-28T19:09:22Z</time>
  <course>11.32</course>
  <speed>0.01414213562373095</speed>
  <fix>3d</fix>
</trkpt>
<trkpt lat="40.0728423" lon="-105.2305753">
  <ele>1586.09</ele>
  <time>2026-08-28T19:09:22Z</time>
  <course>33.32</course>
  <speed>0.0</speed>
  <fix>3d</fix>
</trkpt>
<trkpt lat="40.0728422" lon="-105.2305752">
  <ele>1586.19</ele>
  <time>2026-08-28T19:09:22Z</time>
  <course>11.31</course>
  <speed>0.01414213562373095</speed>
  <fix>3d</fix>
</trkpt>
<trkpt lat="40.0728423" lon="-105.2305753">
  <ele>1586.09</ele>
  <time>2026-08-28T19:09:22Z</time>
  <course>35.83</course>
  <speed>0.0</speed>
  <fix>3d</fix>
</trkpt>
<trkpt lat="40.0728422" lon="-105.2305752">
  <ele>1586.19</ele>
  <time>2026-08-28T19:09:22Z</time>
  <course>11.31</course>
  <speed>0.01414213562373095</speed>
  <fix>3d</fix>
</trkpt>
<trkpt lat="40.0728423" lon="-105.2305753">
  <ele>1586.09</ele>
  <time>2026-08-28T19:09:22Z</time>
  <course>36.15</course>
  <speed>0.0</speed>
  <fix>3d</fix>
</trkpt>
<trkpt lat="40.0728422" lon="-105.2305752">
  <ele>1586.19</ele>
  <time>2026-08-28T19:09:23Z</time>
  <course>11.31</course>
  <speed>0.01414213562373095</speed>
  <fix>3d</fix>
</trkpt>
<trkpt lat="40.0728423" lon="-105.2305753">
  <ele>1586.09</ele>
  <time>2026-08-28T19:09:23Z</time>
  <course>36.2</course>
  <speed>0.0</speed>
  <fix>3d</fix>
</trkpt>
<trkpt lat="40.0728422" lon="-105.2305752">
  <ele>1586.19</ele>
  <time>2026-08-28T19:09:23Z</time>
  <course>11.3</course>
  <speed>0.01414213562373095</speed>
  <fix>3d</fix>
</trkpt>
<trkpt lat="40.0728423" lon="-105.2305753">
  <ele>1586.09</ele>
  <time>2026-08-28T19:09:23Z</time>
  <course>36.2</course>
  <speed>0.0</speed>
  <fix>3d</fix>
</trkpt>
<trkpt lat="40.0728422" lon="-105.2305752">
  <ele>1586.19</ele>
  <time>2026-08-28T19:09:23Z</time>
  <course>11.3</course>
  <speed>0.01414213562373095</speed>
  <fix>3d</fix>
</trkpt>
<trkpt lat="40.0728423" lon="-105.2305753">
  <ele>1586.09</ele>
  <time>2026-08-28T19:09:23Z</time>
  <course>36.2</course>
  <speed>0.0</speed>
  <fix>3d</fix>
</trkpt>
<trkpt lat="40.0728422" lon="-105.2305752">
  <ele>1586.19</ele>
  <time>2026-08-28T19:09:23Z</time>
  <course>11.3</course>
  <speed>0.01414213562373095</speed>
  <fix>3d</fix>
</trkpt>
<trkpt lat="40.0728423" lon="-105.2305753">
  <ele>1586.09</ele>
  <time>2026-08-28T19:09:23Z</time>
  <course>36.2</course>
  <speed>0.0</speed>
  <fix>3d</fix>
</trkpt>
<trkpt lat="40.0728422" lon="-105.2305752">
  <ele>1586.19</ele>
  <time>2026-08-28T19:09:23Z</time>
  <course>11.29</course>
  <speed>0.01414213562373095</speed>
  <fix>3d</fix>
</trkpt>
<trkpt lat="40.0728423" lon="-105.2305753">
  <ele>1586.09</ele>
  <time>2026-08-28T19:09:23Z</time>
  <course>36.2</course>
  <speed>0.0</speed>
  <fix>3d</fix>
</trkpt>
<trkpt lat="40.0728422" lon="-105.2305752">
  <ele>1586.19</ele>
  <time>2026-08-28T19:09:23Z</time>
  <course>11.29</course>
  <speed>0.01414213562373095</speed>
  <fix>3d</fix>
</trkpt>
<trkpt lat="40.0728423" lon="-105.2305753">
  <ele>1586.09</ele>
  <time>2026-08-28T19:09:23Z</time>
  <course>36.2</course>
  <speed>0.0</speed>
  <fix>3d</fix>
</trkpt>
<trkpt lat="40.0728422" lon="-105.2305752">
  <ele>1586.19</ele>
  <time>2026-08-28T19:09:23Z</time>
  <course>11.28</course>
  <speed>0.01414213562373095</speed>
  <fix>3d</fix>
</trkpt>
<trkpt lat="40.0728423" lon="-105.2305753">
  <ele>1586.09</ele>
  <time>2026-08-28T19:09:23Z</time>
  <course>36.2</course>
  <speed>0.0</speed>
  <fix>3d</fix>
</trkpt>
<trkpt lat="40.0728422" lon="-105.2305752">
  <ele>1586.19</ele>
  <time>2026-08-28T19:09:23Z</time>
  <course>11.28</course>
  <speed>0.01414213562373095</speed>
  <fix>3d</fix>
</trkpt>
<trkpt lat="40.0728423" lon="-105.2305753">
  <ele>1586.09</ele>
  <time>2026-08-28T19:09:23Z</time>
  <course>36.2</course>
  <speed>0.0</speed>
  <fix>3d</fix>
</trkpt>
<trkpt lat="40.0728422" lon="-105.2305752">
  <ele>1586.19</ele>
  <time>2026-08-28T19:09:23Z</time>
  <course>11.28</course>
  <speed>0.01414213562373095</speed>
  <fix>3d</fix>
</trkpt>
<trkpt lat="40.0728423" lon="-105.2305753">
  <ele>1586.09</ele>
  <time>2026-08-28T19:09:23Z</time>
  <course>36.2</course>
  <speed>0.0</speed>
  <fix>3d</fix>
</trkpt>
<trkpt lat="40.0728422" lon="-105.2305752">
  <ele>1586.19</ele>
  <time>2026-08-28T19:09:23Z</time>
  <course>11.27</course>
  <speed>0.01414213562373095</speed>
  <fix>3d</fix>
</trkpt>
<trkpt lat="40.0728423" lon="-105.2305753">
  <ele>1586.09</ele>
  <time>2026-08-28T19:09:23Z</time>
  <course>36.2</course>
  <speed>0.0</speed>
  <fix>3d</fix>
</trkpt>
<trkpt lat="40.0728422" lon="-105.2305752">
  <ele>1586.18</ele>
  <time>2026-08-28T19:09:23Z</time>
  <course>11.27</course>
  <speed>0.01414213562373095</speed>
  <fix>3d</fix>
</trkpt>
<trkpt lat="40.0728423" lon="-105.2305753">
  <ele>1586.09</ele>
  <time>2026-08-28T19:09:23Z</time>
  <course>36.2</course>
  <speed>0.0</speed>
  <fix>3d</fix>
</trkpt>
<trkpt lat="40.0728422" lon="-105.2305752">
  <ele>1586.18</ele>
  <time>2026-08-28T19:09:23Z</time>
  <course>11.26</course>
  <speed>0.01414213562373095</speed>
  <fix>3d</fix>
</trkpt>
<trkpt lat="40.0728423" lon="-105.2305753">
  <ele>1586.09</ele>
  <time>2026-08-28T19:09:23Z</time>
  <course>36.2</course>
  <speed>0.0</speed>
  <fix>3d</fix>
</trkpt>
<trkpt lat="40.0728422" lon="-105.2305752">
  <ele>1586.19</ele>
  <time>2026-08-28T19:09:23Z</time>
  <course>11.26</course>
  <speed>0.01414213562373095</speed>
  <fix>3d</fix>
</trkpt>
<trkpt lat="40.0728423" lon="-105.2305753">
  <ele>1586.09</ele>
  <time>2026-08-28T19:09:23Z</time>
  <course>36.2</course>
  <speed>0.0</speed>
  <fix>3d</fix>
</trkpt>
<trkpt lat="40.0728422" lon="-105.2305752">
  <ele>1586.19</ele>
  <time>2026-08-28T19:09:23Z</time>
  <course>11.25</course>
  <speed>0.01414213562373095</speed>
  <fix>3d</fix>
</trkpt>
<trkpt lat="40.0728423" lon="-105.2305753">
  <ele>1586.09</ele>
  <time>2026-08-28T19:09:23Z</time>
  <course>36.2</course>
  <speed>0.0</speed>
  <fix>3d</fix>
</trkpt>
<trkpt lat="40.0728422" lon="-105.2305752">
  <ele>1586.19</ele>
  <time>2026-08-28T19:09:23Z</time>
  <course>11.25</course>
  <speed>0.01414213562373095</speed>
  <fix>3d</fix>
</trkpt>
<trkpt lat="40.0728423" lon="-105.2305753">
  <ele>1586.09</ele>
  <time>2026-08-28T19:09:23Z</time>
  <course>36.2</course>
  <speed>0.0</speed>
  <fix>3d</fix>
</trkpt>
<trkpt lat="40.0728422" lon="-105.2305752">
  <ele>1586.19</ele>
  <time>2026-08-28T19:09:23Z</time>
  <course>11.25</course>
  <speed>0.01414213562373095</speed>
  <fix>3d</fix>
</trkpt>
<trkpt lat="40.0728423" lon="-105.2305753">
  <ele>1586.09</ele>
  <time>2026-08-28T19:09:23Z</time>
  <course>36.2</course>
  <speed>0.0</speed>
  <fix>3d</fix>
</trkpt>
<trkpt lat="40.0728422" lon="-105.2305752">
  <ele>1586.19</ele>
  <time>2026-08-28T19:09:23Z</time>
  <course>11.24</course>
  <speed>0.01414213562373095</speed>
  <fix>3d</fix>
</trkpt>
<trkpt lat="40.0728423" lon="-105.2305753">
  <ele>1586.09</ele>
  <time>2026-08-28T19:09:23Z</time>
  <course>36.2</course>
  <speed>0.0</speed>
  <fix>3d</fix>
</trkpt>
<trkpt lat="40.0728422" lon="-105.2305752">
  <ele>1586.19</ele>
  <time>2026-08-28T19:09:23Z</time>
  <course>11.24</course>
  <speed>0.01414213562373095</speed>
  <fix>3d</fix>
</trkpt>
<trkpt lat="40.0728423" lon="-105.2305753">
  <ele>1586.09</ele>
  <time>2026-08-28T19:09:23Z</time>
  <course>36.2</course>
  <speed>0.0</speed>
  <fix>3d</fix>
</trkpt>
<trkpt lat="40.0728422" lon="-105.2305752">
  <ele>1586.19</ele>
  <time>2026-08-28T19:09:23Z</time>
  <course>11.23</course>
  <speed>0.01414213562373095</speed>
  <fix>3d</fix>
</trkpt>
<trkpt lat="40.0728423" lon="-105.2305753">
  <ele>1586.09</ele>
  <time>2026-08-28T19:09:23Z</time>
  <course>36.2</course>
  <speed>0.0</speed>
  <fix>3d</fix>
</trkpt>
<trkpt lat="40.0728422" lon="-105.2305752">
  <ele>1586.2</ele>
  <time>2026-08-28T19:09:23Z</time>
  <course>11.23</course>
  <speed>0.01414213562373095</speed>
  <fix>3d</fix>
</trkpt>
<trkpt lat="40.0728423" lon="-105.2305753">
  <ele>1586.09</ele>
  <time>2026-08-28T19:09:23Z</time>
  <course>36.2</course>
  <speed>0.0</speed>
  <fix>3d</fix>
</trkpt>
<trkpt lat="40.0728422" lon="-105.2305752">
  <ele>1586.2</ele>
  <time>2026-08-28T19:09:23Z</time>
  <course>11.22</course>
  <speed>0.01414213562373095</speed>
  <fix>3d</fix>
</trkpt>
<trkpt lat="40.0728423" lon="-105.2305753">
  <ele>1586.09</ele>
  <time>2026-08-28T19:09:23Z</time>
  <course>36.2</course>
  <speed>0.0</speed>
  <fix>3d</fix>
</trkpt>
<trkpt lat="40.0728422" lon="-105.2305752">
  <ele>1586.2</ele>
  <time>2026-08-28T19:09:23Z</time>
  <course>11.22</course>
  <speed>0.01414213562373095</speed>
  <fix>3d</fix>
</trkpt>
<trkpt lat="40.0728423" lon="-105.2305753">
  <ele>1586.09</ele>
  <time>2026-08-28T19:09:23Z</time>
  <course>36.2</course>
  <speed>0.0</speed>
  <fix>3d</fix>
</trkpt>
<trkpt lat="40.0728422" lon="-105.2305752">
  <ele>1586.19</ele>
  <time>2026-08-28T19:09:23Z</time>
  <course>11.39</course>
  <speed>0.01414213562373095</speed>
  <fix>3d</fix>
</trkpt>
<trkpt lat="40.0728423" lon="-105.2305753">
  <ele>1586.09</ele>
  <time>2026-08-28T19:09:23Z</time>
  <course>36.2</course>
  <speed>0.0</speed>
  <fix>3d</fix>
</trkpt>
<trkpt lat="40.0728422" lon="-105.2305752">
  <ele>1586.2</ele>
  <time>2026-08-28T19:09:23Z</time>
  <course>11.77</course>
  <speed>0.01414213562373095</speed>
  <fix>3d</fix>
</trkpt>
<trkpt lat="40.0728423" lon="-105.2305753">
  <ele>1586.09</ele>
  <time>2026-08-28T19:09:23Z</time>
  <course>36.2</course>
  <speed>0.0</speed>
  <fix>3d</fix>
</trkpt>
<trkpt lat="40.0728422" lon="-105.2305752">
  <ele>1586.21</ele>
  <time>2026-08-28T19:09:23Z</time>
  <course>12.12</course>
  <speed>0.01414213562373095</speed>
  <fix>3d</fix>
</trkpt>
<trkpt lat="40.0728423" lon="-105.2305753">
  <ele>1586.09</ele>
  <time>2026-08-28T19:09:23Z</time>
  <course>36.2</course>
  <speed>0.0</speed>
  <fix>3d</fix>
</trkpt>
<trkpt lat="40.0728422" lon="-105.2305752">
  <ele>1586.21</ele>
  <time>2026-08-28T19:09:23Z</time>
  <course>12.43</course>
  <speed>0.01414213562373095</speed>
  <fix>3d</fix>
</trkpt>
<trkpt lat="40.0728423" lon="-105.2305753">
  <ele>1586.09</ele>
  <time>2026-08-28T19:09:23Z</time>
  <course>36.2</course>
  <speed>0.0</speed>
  <fix>3d</fix>
</trkpt>
<trkpt lat="40.0728422" lon="-105.2305752">
  <ele>1586.21</ele>
  <time>2026-08-28T19:09:23Z</time>
  <course>12.71</course>
  <speed>0.01414213562373095</speed>
  <fix>3d</fix>
</trkpt>
<trkpt lat="40.0728423" lon="-105.2305753">
  <ele>1586.09</ele>
  <time>2026-08-28T19:09:23Z</time>
  <course>36.2</course>
  <speed>0.0</speed>
  <fix>3d</fix>
</trkpt>
<trkpt lat="40.0728422" lon="-105.2305752">
  <ele>1586.2</ele>
  <time>2026-08-28T19:09:23Z</time>
  <course>12.97</course>
  <speed>0.01414213562373095</speed>
  <fix>3d</fix>
</trkpt>
<trkpt lat="40.0728423" lon="-105.2305753">
  <ele>1586.09</ele>
  <time>2026-08-28T19:09:23Z</time>
  <course>36.2</course>
  <speed>0.0</speed>
  <fix>3d</fix>
</trkpt>
<trkpt lat="40.0728422" lon="-105.2305752">
  <ele>1586.19</ele>
  <time>2026-08-28T19:09:23Z</time>
  <course>13.21</course>
  <speed>0.01414213562373095</speed>
  <fix>3d</fix>
</trkpt>
<trkpt lat="40.0728423" lon="-105.2305753">
  <ele>1586.09</ele>
  <time>2026-08-28T19:09:23Z</time>
  <course>36.2</course>
  <speed>0.0</speed>
  <fix>3d</fix>
</trkpt>
<trkpt lat="40.0728422" lon="-105.2305752">
  <ele>1586.19</ele>
  <time>2026-08-28T19:09:23Z</time>
  <course>13.44</course>
  <speed>0.01414213562373095</speed>
  <fix>3d</fix>
</trkpt>
<trkpt lat="40.0728423" lon="-105.2305753">
  <ele>1586.09</ele>
  <time>2026-08-28T19:09:23Z</time>
  <course>36.2</course>
  <speed>0.0</speed>
  <fix>3d</fix>
</trkpt>
<trkpt lat="40.0728422" lon="-105.2305752">
  <ele>1586.19</ele>
  <time>2026-08-28T19:09:23Z</time>
  <course>13.65</course>
  <speed>0.01414213562373095</speed>
  <fix>3d</fix>
</trkpt>
<trkpt lat="40.0728423" lon="-105.2305753">
  <ele>1586.09</ele>
  <time>2026-08-28T19:09:23Z</time>
  <course>36.2</course>
  <speed>0.0</speed>
  <fix>3d</fix>
</trkpt>
<trkpt lat="40.0728422" lon="-105.2305752">
  <ele>1586.19</ele>
  <time>2026-08-28T19:09:23Z</time>
  <course>13.85</course>
  <speed>0.01414213562373095</speed>
  <fix>3d</fix>
</trkpt>
<trkpt lat="40.0728423" lon="-105.2305753">
  <ele>1586.09</ele>
  <time>2026-08-28T19:09:23Z</time>
  <course>36.2</course>
  <speed>0.0</speed>
  <fix>3d</fix>
</trkpt>
<trkpt lat="40.0728422" lon="-105.2305752">
  <ele>1586.19</ele>
  <time>2026-08-28T19:09:23Z</time>
  <course>14.03</course>
  <speed>0.01</speed>
  <fix>3d</fix>
</trkpt>
<trkpt lat="40.0728423" lon="-105.2305753">
  <ele>1586.09</ele>
  <time>2026-08-28T19:09:23Z</time>
  <course>36.2</course>
  <speed>0.0</speed>
  <fix>3d</fix>
</trkpt>
<trkpt lat="-34.9942872" lon="147.6104455">
  <ele>576.02</ele>
  <time>2026-08-28T19:09:24Z</time>
  <course>161.19</course>
  <speed>0.0</speed>
  <fix>3d</fix>
</trkpt>
<trkpt lat="-35.362881" lon="149.165222">
  <ele>582.09</ele>
  <time>2026-08-28T19:09:24Z</time>
  <course>79.27</course>
  <speed>0.0</speed>
  <fix>3d</fix>
</trkpt>
<trkpt lat="-35.362881" lon="149.165222">
  <ele>582.09</ele>
  <time>2026-08-28T19:09:24Z</time>
  <course>120.83</course>
  <speed>0.0</speed>
  <fix>3d</fix>
</trkpt>
<trkpt lat="-35.362881" lon="149.165222">
  <ele>582.09</ele>
  <time>2026-08-28T19:09:24Z</time>
  <course>79.85</course>
  <speed>0.0</speed>
  <fix>3d</fix>
</trkpt>
<trkpt lat="-35.362881" lon="149.165222">
  <ele>582.09</ele>
  <time>2026-08-28T19:09:24Z</time>
  <course>47.47</course>
  <speed>0.0</speed>
  <fix>3d</fix>
</trkpt>
<trkpt lat="-35.362881" lon="149.165222">
  <ele>582.09</ele>
  <time>2026-08-28T19:09:24Z</time>
  <course>81.06</course>
  <speed>0.0</speed>
  <fix>3d</fix>
</trkpt>
<trkpt lat="-35.362881" lon="149.165222">
  <ele>582.09</ele>
  <time>2026-08-28T19:09:24Z</time>
  <course>225.39</course>
  <speed>0.0</speed>
  <fix>3d</fix>
</trkpt>
<trkpt lat="-35.362881" lon="149.165222">
  <ele>582.09</ele>
  <time>2026-08-28T19:09:24Z</time>
  <course>82.22</course>
  <speed>0.0</speed>
  <fix>3d</fix>
</trkpt>
<trkpt lat="-35.362881" lon="149.165222">
  <ele>582.09</ele>
  <time>2026-08-28T19:09:24Z</time>
  <course>150.48</course>
  <speed>0.0</speed>
  <fix>3d</fix>
</trkpt>
<trkpt lat="-35.362881" lon="149.165222">
  <ele>582.09</ele>
  <time>2026-08-28T19:09:24Z</time>
  <course>83.28</course>
  <speed>0.0</speed>
  <fix>3d</fix>
</trkpt>
<trkpt lat="-35.362881" lon="149.165222">
  <ele>582.09</ele>
  <time>2026-08-28T19:09:24Z</time>
  <course>83.22</course>
  <speed>0.0</speed>
  <fix>3d</fix>
</trkpt>
<trkpt lat="-35.362881" lon="149.165222">
  <ele>582.09</ele>
  <time>2026-08-28T19:09:24Z</time>
  <course>84.25</course>
  <speed>0.0</speed>
  <fix>3d</fix>
</trkpt>
<trkpt lat="-35.362881" lon="149.165222">
  <ele>582.09</ele>
  <time>2026-08-28T19:09:24Z</time>
  <course>59.27</course>
  <speed>0.0</speed>
  <fix>3d</fix>
</trkpt>
<trkpt lat="-35.362881" lon="149.165222">
  <ele>582.09</ele>
  <time>2026-08-28T19:09:24Z</time>
  <course>85.19</course>
  <speed>0.0</speed>
  <fix>3d</fix>
</trkpt>
<trkpt lat="-35.362881" lon="149.165222">
  <ele>582.09</ele>
  <time>2026-08-28T19:09:24Z</time>
  <course>133.53</course>
  <speed>0.0</speed>
  <fix>3d</fix>
</trkpt>
<trkpt lat="-35.362881" lon="149.165222">
  <ele>582.09</ele>
  <time>2026-08-28T19:09:24Z</time>
  <course>86.08</course>
  <speed>0.0</speed>
  <fix>3d</fix>
</trkpt>
<trkpt lat="-35.362881" lon="149.165222">
  <ele>582.09</ele>
  <time>2026-08-28T19:09:24Z</time>
  <course>179.41</course>
  <speed>0.0</speed>
  <fix>3d</fix>
</trkpt>
<trkpt lat="-35.362881" lon="149.165222">
  <ele>582.09</ele>
  <time>2026-08-28T19:09:24Z</time>
  <course>86.92</course>
  <speed>0.0</speed>
  <fix>3d</fix>
</trkpt>
<trkpt lat="-35.362881" lon="149.165222">
  <ele>582.09</ele>
  <time>2026-08-28T19:09:24Z</time>
  <course>316.64</course>
  <speed>0.0</speed>
  <fix>3d</fix>
</trkpt>
<trkpt lat="-35.362881" lon="149.165222">
  <ele>582.09</ele>
  <time>2026-08-28T19:09:24Z</time>
  <course>87.69</course>
  <speed>0.0</speed>
  <fix>3d</fix>
</trkpt>
<trkpt lat="-35.362881" lon="149.165222">
  <ele>582.09</ele>
  <time>2026-08-28T19:09:24Z</time>
  <course>34.84</course>
  <speed>0.0</speed>
  <fix>3d</fix>
</trkpt>
<trkpt lat="-35.362881" lon="149.165222">
  <ele>582.09</ele>
  <time>2026-08-28T19:09:24Z</time>
  <course>88.41</course>
  <speed>0.0</speed>
  <fix>3d</fix>
</trkpt>
<trkpt lat="-35.362881" lon="149.165222">
  <ele>582.09</ele>
  <time>2026-08-28T19:09:24Z</time>
  <course>266.45</course>
  <speed>0.0</speed>
  <fix>3d</fix>
</trkpt>
<trkpt lat="-35.362881" lon="149.165222">
  <ele>582.09</ele>
  <time>2026-08-28T19:09:24Z</time>
  <course>89.07</course>
  <speed>0.0</speed>
  <fix>3d</fix>
</trkpt>
<trkpt lat="-35.362881" lon="149.165222">
  <ele>582.09</ele>
  <time>2026-08-28T19:09:24Z</time>
  <course>22.75</course>
  <speed>0.0</speed>
  <fix>3d</fix>
</trkpt>
<trkpt lat="-35.362881" lon="149.165222">
  <ele>582.09</ele>
  <time>2026-08-28T19:09:24Z</time>
  <course>89.68</course>
  <speed>0.0</speed>
  <fix>3d</fix>
</trkpt>
<trkpt lat="-35.362881" lon="149.165222">
  <ele>582.09</ele>
  <time>2026-08-28T19:09:24Z</time>
  <course>95.75</course>
  <speed>0.0</speed>
  <fix>3d</fix>
</trkpt>
<trkpt lat="-35.362881" lon="149.165222">
  <ele>582.09</ele>
  <time>2026-08-28T19:09:24Z</time>
  <course>90.25</course>
  <speed>0.0</speed>
  <fix>3d</fix>
</trkpt>
<trkpt lat="-35.362881" lon="149.165222">
  <ele>582.09</ele>
  <time>2026-08-28T19:09:24Z</time>
  <course>130.83</course>
  <speed>0.0</speed>
  <fix>3d</fix>
</trkpt>
<trkpt lat="-35.362881" lon="149.165222">
  <ele>582.09</ele>
  <time>2026-08-28T19:09:24Z</time>
  <course>90.78</course>
  <speed>0.0</speed>
  <fix>3d</fix>
</trkpt>
<trkpt lat="-35.362881" lon="149.165222">
  <ele>582.09</ele>
  <time>2026-08-28T19:09:24Z</time>
  <course>258.85</course>
  <speed>0.0</speed>
  <fix>3d</fix>
</trkpt>
<trkpt lat="-35.362881" lon="149.165222">
  <ele>582.09</ele>
  <time>2026-08-28T19:09:24Z</time>
  <course>91.26</course>
  <speed>0.0</speed>
  <fix>3d</fix>
</trkpt>
<trkpt lat="-35.362881" lon="149.165222">
  <ele>582.09</ele>
  <time>2026-08-28T19:09:24Z</time>
  <course>52.17</course>
  <speed>0.0</speed>
  <fix>3d</fix>
</trkpt>
<trkpt lat="-35.362881" lon="149.165222">
  <ele>582.09</ele>
  <time>2026-08-28T19:09:24Z</time>
  <course>91.71</course>
  <speed>0.0</speed>
  <fix>3d</fix>
</trkpt>
<trkpt lat="-35.362881" lon="149.165222">
  <ele>582.09</ele>
  <time>2026-08-28T19:09:24Z</time>
  <course>110.58</course>
  <speed>0.0</speed>
  <fix>3d</fix>
</trkpt>
<trkpt lat="-35.362881" lon="149.165222">
  <ele>582.09</ele>
  <time>2026-08-28T19:09:24Z</time>
  <course>92.11</course>
  <speed>0.0</speed>
  <fix>3d</fix>
</trkpt>
<trkpt lat="-35.362881" lon="149.165222">
  <ele>582.09</ele>
  <time>2026-08-28T19:09:24Z</time>
  <course>3.18</course>
  <speed>0.0</speed>
  <fix>3d</fix>
</trkpt>
<trkpt lat="-35.362881" lon="149.165222">
  <ele>582.09</ele>
  <time>2026-08-28T19:09:24Z</time>
  <course>92.49</course>
  <speed>0.0</speed>
  <fix>3d</fix>
</trkpt>
<trkpt lat="-35.362881" lon="149.165222">
  <ele>582.09</ele>
  <time>2026-08-28T19:09:24Z</time>
  <course>354.61</course>
  <speed>0.0</speed>
  <fix>3d</fix>
</trkpt>
<trkpt lat="-35.362881" lon="149.165222">
  <ele>582.09</ele>
  <time>2026-08-28T19:09:24Z</time>
  <course>92.83</course>
  <speed>0.0</speed>
  <fix>3d</fix>
</trkpt>
<trkpt lat="-35.362881" lon="149.165222">
  <ele>582.09</ele>
  <time>2026-08-28T19:09:24Z</time>
  <course>16.34</course>
  <speed>0.0</speed>
  <fix>3d</fix>
</trkpt>
<trkpt lat="-35.362881" lon="149.165222">
  <ele>582.09</ele>
  <time>2026-08-28T19:09:24Z</time>
  <course>93.15</course>
  <speed>0.0</speed>
  <fix>3d</fix>
</trkpt>
<trkpt lat="-35.362881" lon="149.165222">
  <ele>582.09</ele>
  <time>2026-08-28T19:09:24Z</time>
  <course>172.89</course>
  <speed>0.0</speed>
  <fix>3d</fix>
</trkpt>
<trkpt lat="-35.362881" lon="149.165222">
  <ele>582.09</ele>
  <time>2026-08-28T19:09:24Z</time>
  <course>93.44</course>
  <speed>0.0</speed>
  <fix>3d</fix>
</trkpt>
<trkpt lat="-35.362881" lon="149.165222">
  <ele>582.09</ele>
  <time>2026-08-28T19:09:24Z</time>
  <course>299.66</course>
  <speed>0.0</speed>
  <fix>3d</fix>
</trkpt>
<trkpt lat="-35.362881" lon="149.165222">
  <ele>582.09</ele>
  <time>2026-08-28T19:09:24Z</time>
  <course>93.7</course>
  <speed>0.0</speed>
  <fix>3d</fix>
</trkpt>
<trkpt lat="-35.362881" lon="149.165222">
  <ele>582.09</ele>
  <time>2026-08-28T19:09:24Z</time>
  <course>356.71</course>
  <speed>0.0</speed>
  <fix>3d</fix>
</trkpt>
<trkpt lat="-35.362881" lon="149.165222">
  <ele>582.09</ele>
  <time>2026-08-28T19:09:24Z</time>
  <course>93.94</course>
  <speed>0.0</speed>
  <fix>3d</fix>
</trkpt>
<trkpt lat="-35.362881" lon="149.165222">
  <ele>582.09</ele>
  <time>2026-08-28T19:09:24Z</time>
  <course>0.72</course>
  <speed>0.0</speed>
  <fix>3d</fix>
</trkpt>
<trkpt lat="-35.362881" lon="149.165222">
  <ele>582.09</ele>
  <time>2026-08-28T19:09:24Z</time>
  <course>94.16</course>
  <speed>0.0</speed>
  <fix>3d</fix>
</trkpt>
<trkpt lat="-35.362881" lon="149.165222">
  <ele>582.09</ele>
  <time>2026-08-28T19:09:24Z</time>
  <course>355.2</course>
  <speed>0.0</speed>
  <fix>3d</fix>
</trkpt>
<trkpt lat="-35.362881" lon="149.165222">
  <ele>582.09</ele>
  <time>2026-08-28T19:09:24Z</time>
  <course>94.37</course>
  <speed>0.0</speed>
  <fix>3d</fix>
</trkpt>
<trkpt lat="-35.362881" lon="149.165222">
  <ele>582.09</ele>
  <time>2026-08-28T19:09:24Z</time>
  <course>355.53</course>
  <speed>0.0</speed>
  <fix>3d</fix>
</trkpt>
<trkpt lat="-35.362881" lon="149.165222">
  <ele>582.09</ele>
  <time>2026-08-28T19:09:24Z</time>
  <course>94.56</course>
  <speed>0.0</speed>
  <fix>3d</fix>
</trkpt>
<trkpt lat="-35.362881" lon="149.165222">
  <ele>582.09</ele>
  <time>2026-08-28T19:09:24Z</time>
  <course>356.19</course>
  <speed>0.0</speed>
  <fix>3d</fix>
</trkpt>
<trkpt lat="-35.362881" lon="149.165222">
  <ele>582.09</ele>
  <time>2026-08-28T19:09:24Z</time>
  <course>94.72</course>
  <speed>0.0</speed>
  <fix>3d</fix>
</trkpt>
<trkpt lat="-35.362881" lon="149.165222">
  <ele>582.09</ele>
  <time>2026-08-28T19:09:24Z</time>
  <course>356.08</course>
  <speed>0.0</speed>
  <fix>3d</fix>
</trkpt>
<trkpt lat="-35.362881" lon="149.165222">
  <ele>582.09</ele>
  <time>2026-08-28T19:09:24Z</time>
  <course>94.87</course>
  <speed>0.0</speed>
  <fix>3d</fix>
</trkpt>
<trkpt lat="-35.362881" lon="149.165222">
  <ele>582.09</ele>
  <time>2026-08-28T19:09:24Z</time>
  <course>356.01</course>
  <speed>0.0</speed>
  <fix>3d</fix>
</trkpt>
<trkpt lat="-35.362881" lon="149.165222">
  <ele>582.09</ele>
  <time>2026-08-28T19:09:24Z</time>
  <course>95.01</course>
  <speed>0.0</speed>
  <fix>3d</fix>
</trkpt>
<trkpt lat="-35.362881" lon="149.165222">
  <ele>582.09</ele>
  <time>2026-08-28T19:09:24Z</time>
  <course>356.03</course>
  <speed>0.0</speed>
  <fix>3d</fix>
</trkpt>
<trkpt lat="-35.362881" lon="149.165222">
  <ele>582.09</ele>
  <time>2026-08-28T19:09:24Z</time>
  <course>95.14</course>
  <speed>0.0</speed>
  <fix>3d</fix>
</trkpt>
<trkpt lat="-35.362881" lon="149.165222">
  <ele>582.09</ele>
  <time>2026-08-28T19:09:24Z</time>
  <course>356.04</course>
  <speed>0.0</speed>
  <fix>3d</fix>
</trkpt>
<trkpt lat="-35.362881" lon="149.165222">
  <ele>582.09</ele>
  <time>2026-08-28T19:09:24Z</time>
  <course>95.25</course>
  <speed>0.0</speed>
  <fix>3d</fix>
</trkpt>
<trkpt lat="-35.362881" lon="149.165222">
  <ele>582.09</ele>
  <time>2026-08-28T19:09:24Z</time>
  <course>356.03</course>
  <speed>0.0</speed>
  <fix>3d</fix>
</trkpt>
<trkpt lat="-35.362881" lon="149.165222">
  <ele>582.09</ele>
  <time>2026-08-28T19:09:24Z</time>
  <course>95.35</course>
  <speed>0.0</speed>
  <fix>3d</fix>
</trkpt>
<trkpt lat="-35.362881" lon="149.165222">
  <ele>582.09</ele>
  <time>2026-08-28T19:09:24Z</time>
  <course>356.03</course>
  <speed>0.0</speed>
  <fix>3d</fix>
</trkpt>
<trkpt lat="-35.362881" lon="149.165222">
  <ele>582.09</ele>
  <time>2026-08-28T19:09:24Z</time>
  <course>95.44</course>
  <speed>0.0</speed>
  <fix>3d</fix>
</trkpt>
<trkpt lat="-35.362881" lon="149.165222">
  <ele>582.09</ele>
  <time>2026-08-28T19:09:24Z</time>
  <course>356.03</course>
  <speed>0.0</speed>
  <fix>3d</fix>
</trkpt>
<trkpt lat="-35.362881" lon="149.165222">
  <ele>582.09</ele>
  <time>2026-08-28T19:09:25Z</time>
  <course>95.53</course>
  <speed>0.0</speed>
  <fix>3d</fix>
</trkpt>
<trkpt lat="-35.362881" lon="149.165222">
  <ele>582.09</ele>
  <time>2026-08-28T19:09:25Z</time>
  <course>356.03</course>
  <speed>0.0</speed>
  <fix>3d</fix>
</trkpt>
<trkpt lat="-35.362881" lon="149.165222">
  <ele>582.09</ele>
  <time>2026-08-28T19:09:25Z</time>
  <course>95.6</course>
  <speed>0.0</speed>
  <fix>3d</fix>
</trkpt>
<trkpt lat="-35.362881" lon="149.165222">
  <ele>582.09</ele>
  <time>2026-08-28T19:09:25Z</time>
  <course>356.03</course>
  <speed>0.0</speed>
  <fix>3d</fix>
</trkpt>
<trkpt lat="-35.362881" lon="149.165222">
  <ele>582.09</ele>
  <time>2026-08-28T19:09:25Z</time>
  <course>95.67</course>
  <speed>0.0</speed>
  <fix>3d</fix>
</trkpt>
<trkpt lat="-35.362881" lon="149.165222">
  <ele>582.09</ele>
  <time>2026-08-28T19:09:25Z</time>
  <course>356.03</course>
  <speed>0.0</speed>
  <fix>3d</fix>
</trkpt>
<trkpt lat="-35.362881" lon="149.165222">
  <ele>582.09</ele>
  <time>2026-08-28T19:09:25Z</time>
  <course>95.73</course>
  <speed>0.0</speed>
  <fix>3d</fix>
</trkpt>
<trkpt lat="-35.362881" lon="149.165222">
  <ele>582.09</ele>
  <time>2026-08-28T19:09:25Z</time>
  <course>356.03</course>
  <speed>0.0</speed>
  <fix>3d</fix>
</trkpt>
<trkpt lat="-35.362881" lon="149.165222">
  <ele>582.09</ele>
  <time>2026-08-28T19:09:25Z</time>
  <course>95.78</course>
  <speed>0.0</speed>
  <fix>3d</fix>
</trkpt>
<trkpt lat="-35.362881" lon="149.165222">
  <ele>582.09</ele>
  <time>2026-08-28T19:09:25Z</time>
  <course>356.03</course>
  <speed>0.0</speed>
  <fix>3d</fix>
</trkpt>
<trkpt lat="-35.362881" lon="149.165222">
  <ele>582.09</ele>
  <time>2026-08-28T19:09:25Z</time>
  <course>95.83</course>
  <speed>0.0</speed>
  <fix>3d</fix>
</trkpt>
<trkpt lat="-35.362881" lon="149.165222">
  <ele>582.09</ele>
  <time>2026-08-28T19:09:25Z</time>
  <course>356.03</course>
  <speed>0.0</speed>
  <fix>3d</fix>
</trkpt>
<trkpt lat="-35.362881" lon="149.165222">
  <ele>582.09</ele>
  <time>2026-08-28T19:09:25Z</time>
  <course>95.88</course>
  <speed>0.0</speed>
  <fix>3d</fix>
</trkpt>
<trkpt lat="-35.362881" lon="149.165222">
  <ele>582.09</ele>
  <time>2026-08-28T19:09:25Z</time>
  <course>356.03</course>
  <speed>0.0</speed>
  <fix>3d</fix>
</trkpt>
<trkpt lat="-35.362881" lon="149.165222">
  <ele>582.09</ele>
  <time>2026-08-28T19:09:25Z</time>
  <course>95.91</course>
  <speed>0.0</speed>
  <fix>3d</fix>
</trkpt>
<trkpt lat="-35.362881" lon="149.165222">
  <ele>582.09</ele>
  <time>2026-08-28T19:09:25Z</time>
  <course>356.03</course>
  <speed>0.0</speed>
  <fix>3d</fix>
</trkpt>
<trkpt lat="-35.362881" lon="149.165222">
  <ele>582.09</ele>
  <time>2026-08-28T19:09:25Z</time>
  <course>95.95</course>
  <speed>0.0</speed>
  <fix>3d</fix>
</trkpt>
<trkpt lat="-35.362881" lon="149.165222">
  <ele>582.09</ele>
  <time>2026-08-28T19:09:25Z</time>
  <course>356.03</course>
  <speed>0.0</speed>
  <fix>3d</fix>
</trkpt>
<trkpt lat="-35.362881" lon="149.165222">
  <ele>582.09</ele>
  <time>2026-08-28T19:09:25Z</time>
  <course>95.98</course>
  <speed>0.0</speed>
  <fix>3d</fix>
</trkpt>
<trkpt lat="-35.362881" lon="149.165222">
  <ele>582.09</ele>
  <time>2026-08-28T19:09:25Z</time>
  <course>356.03</course>
  <speed>0.0</speed>
  <fix>3d</fix>
</trkpt>
<trkpt lat="-35.362881" lon="149.165222">
  <ele>582.09</ele>
  <time>2026-08-28T19:09:25Z</time>
  <course>96.0</course>
  <speed>0.0</speed>
  <fix>3d</fix>
</trkpt>
<trkpt lat="-35.362881" lon="149.165222">
  <ele>582.09</ele>
  <time>2026-08-28T19:09:25Z</time>
  <course>356.03</course>
  <speed>0.0</speed>
  <fix>3d</fix>
</trkpt>
<trkpt lat="-35.362881" lon="149.165222">
  <ele>582.09</ele>
  <time>2026-08-28T19:09:25Z</time>
  <course>96.03</course>
  <speed>0.0</speed>
  <fix>3d</fix>
</trkpt>
<trkpt lat="-35.362881" lon="149.165222">
  <ele>582.09</ele>
  <time>2026-08-28T19:09:25Z</time>
  <course>356.03</course>
  <speed>0.0</speed>
  <fix>3d</fix>
</trkpt>
<trkpt lat="-35.362881" lon="149.165222">
  <ele>582.09</ele>
  <time>2026-08-28T19:09:25Z</time>
  <course>96.04</course>
  <speed>0.0</speed>
  <fix>3d</fix>
</trkpt>
<trkpt lat="-35.362881" lon="149.165222">
  <ele>582.09</ele>
  <time>2026-08-28T19:09:25Z</time>
  <course>356.03</course>
  <speed>0.0</speed>
  <fix>3d</fix>
</trkpt>
<trkpt lat="-35.362881" lon="149.165222">
  <ele>582.09</ele>
  <time>2026-08-28T19:09:25Z</time>
  <course>96.06</course>
  <speed>0.0</speed>
  <fix>3d</fix>
</trkpt>
<trkpt lat="-35.362881" lon="149.165222">
  <ele>582.09</ele>
  <time>2026-08-28T19:09:25Z</time>
  <course>356.03</course>
  <speed>0.0</speed>
  <fix>3d</fix>
</trkpt>
<trkpt lat="-35.362881" lon="149.165222">
  <ele>582.09</ele>
  <time>2026-08-28T19:09:25Z</time>
  <course>96.07</course>
  <speed>0.0</speed>
  <fix>3d</fix>
</trkpt>
<trkpt lat="-35.362881" lon="149.165222">
  <ele>582.09</ele>
  <time>2026-08-28T19:09:25Z</time>
  <course>356.03</course>
  <speed>0.0</speed>
  <fix>3d</fix>
</trkpt>
<trkpt lat="-35.362881" lon="149.165222">
  <ele>582.09</ele>
  <time>2026-08-28T19:09:25Z</time>
  <course>96.08</course>
  <speed>0.0</speed>
  <fix>3d</fix>
</trkpt>
<trkpt lat="-35.362881" lon="149.165222">
  <ele>582.09</ele>
  <time>2026-08-28T19:09:25Z</time>
  <course>356.03</course>
  <speed>0.0</speed>
  <fix>3d</fix>
</trkpt>
<trkpt lat="-35.362881" lon="149.165222">
  <ele>582.09</ele>
  <time>2026-08-28T19:09:25Z</time>
  <course>96.1</course>
  <speed>0.0</speed>
  <fix>3d</fix>
</trkpt>
<trkpt lat="-35.362881" lon="149.165222">
  <ele>582.09</ele>
  <time>2026-08-28T19:09:25Z</time>
  <course>356.03</course>
  <speed>0.0</speed>
  <fix>3d</fix>
</trkpt>
<trkpt lat="-35.362881" lon="149.165222">
  <ele>582.09</ele>
  <time>2026-08-28T19:09:25Z</time>
  <course>96.11</course>
  <speed>0.0</speed>
  <fix>3d</fix>
</trkpt>
<trkpt lat="-35.362881" lon="149.165222">
  <ele>582.09</ele>
  <time>2026-08-28T19:09:25Z</time>
  <course>356.03</course>
  <speed>0.0</speed>
  <fix>3d</fix>
</trkpt>
<trkpt lat="-35.362881" lon="149.165222">
  <ele>582.09</ele>
  <time>2026-08-28T19:09:25Z</time>
  <course>96.11</course>
  <speed>0.0</speed>
  <fix>3d</fix>
</trkpt>
<trkpt lat="-35.362881" lon="149.165222">
  <ele>582.09</ele>
  <time>2026-08-28T19:09:25Z</time>
  <course>356.03</course>
  <speed>0.0</speed>
  <fix>3d</fix>
</trkpt>
<trkpt lat="-35.362881" lon="149.165222">
  <ele>582.09</ele>
  <time>2026-08-28T19:09:25Z</time>
  <course>96.11</course>
  <speed>0.0</speed>
  <fix>3d</fix>
</trkpt>
<trkpt lat="-35.362881" lon="149.165222">
  <ele>582.09</ele>
  <time>2026-08-28T19:09:25Z</time>
  <course>356.03</course>
  <speed>0.0</speed>
  <fix>3d</fix>
</trkpt>
<trkpt lat="-35.362881" lon="149.165222">
  <ele>582.09</ele>
  <time>2026-08-28T19:09:25Z</time>
  <course>96.11</course>
  <speed>0.0</speed>
  <fix>3d</fix>
</trkpt>
<trkpt lat="-35.362881" lon="149.165222">
  <ele>582.09</ele>
  <time>2026-08-28T19:09:25Z</time>
  <course>356.03</course>
  <speed>0.0</speed>
  <fix>3d</fix>
</trkpt>
<trkpt lat="-35.362881" lon="149.165222">
  <ele>582.09</ele>
  <time>2026-08-28T19:09:25Z</time>
  <course>96.11</course>
  <speed>0.0</speed>
  <fix>3d</fix>
</trkpt>
<trkpt lat="-35.362881" lon="149.165222">
  <ele>582.09</ele>
  <time>2026-08-28T19:09:25Z</time>
  <course>356.03</course>
  <speed>0.0</speed>
  <fix>3d</fix>
</trkpt>
<trkpt lat="-35.362881" lon="149.165222">
  <ele>582.09</ele>
  <time>2026-08-28T19:09:25Z</time>
  <course>96.11</course>
  <speed>0.0</speed>
  <fix>3d</fix>
</trkpt>
<trkpt lat="-35.362881" lon="149.165222">
  <ele>582.09</ele>
  <time>2026-08-28T19:09:25Z</time>
  <course>356.03</course>
  <speed>0.0</speed>
  <fix>3d</fix>
</trkpt>
<trkpt lat="-35.362881" lon="149.165222">
  <ele>582.09</ele>
  <time>2026-08-28T19:09:25Z</time>
  <course>96.1</course>
  <speed>0.0</speed>
  <fix>3d</fix>
</trkpt>
<trkpt lat="-35.362881" lon="149.165222">
  <ele>582.09</ele>
  <time>2026-08-28T19:09:25Z</time>
  <course>356.03</course>
  <speed>0.0</speed>
  <fix>3d</fix>
</trkpt>
<trkpt lat="-35.362881" lon="149.165222">
  <ele>582.09</ele>
  <time>2026-08-28T19:09:25Z</time>
  <course>96.1</course>
  <speed>0.0</speed>
  <fix>3d</fix>
</trkpt>
<trkpt lat="-35.362881" lon="149.165222">
  <ele>582.09</ele>
  <time>2026-08-28T19:09:25Z</time>
  <course>356.03</course>
  <speed>0.0</speed>
  <fix>3d</fix>
</trkpt>
<trkpt lat="-35.362881" lon="149.165222">
  <ele>582.09</ele>
  <time>2026-08-28T19:09:25Z</time>
  <course>96.09</course>
  <speed>0.01</speed>
  <fix>3d</fix>
</trkpt>
<trkpt lat="-35.362881" lon="149.165222">
  <ele>582.09</ele>
  <time>2026-08-28T19:09:25Z</time>
  <course>356.03</course>
  <speed>0.0</speed>
  <fix>3d</fix>
</trkpt>
<trkpt lat="-35.362881" lon="149.165222">
  <ele>582.09</ele>
  <time>2026-08-28T19:09:25Z</time>
  <course>96.08</course>
  <speed>0.01</speed>
  <fix>3d</fix>
</trkpt>
<trkpt lat="-35.362881" lon="149.165222">
  <ele>582.09</ele>
  <time>2026-08-28T19:09:25Z</time>
  <course>356.03</course>
  <speed>0.0</speed>
  <fix>3d</fix>
</trkpt>
<trkpt lat="-35.362881" lon="149.165222">
  <ele>582.09</ele>
  <time>2026-08-28T19:09:25Z</time>
  <course>96.08</course>
  <speed>0.01</speed>
  <fix>3d</fix>
</trkpt>
<trkpt lat="-35.362881" lon="149.165222">
  <ele>582.09</ele>
  <time>2026-08-28T19:09:25Z</time>
  <course>356.03</course>
  <speed>0.0</speed>
  <fix>3d</fix>
</trkpt>
<trkpt lat="-35.362881" lon="149.165222">
  <ele>582.09</ele>
  <time>2026-08-28T19:09:25Z</time>
  <course>96.07</course>
  <speed>0.01</speed>
  <fix>3d</fix>
</trkpt>
<trkpt lat="-35.362881" lon="149.165222">
  <ele>582.09</ele>
  <time>2026-08-28T19:09:25Z</time>
  <course>356.03</course>
  <speed>0.0</speed>
  <fix>3d</fix>
</trkpt>
<trkpt lat="-35.362881" lon="149.165222">
  <ele>582.09</ele>
  <time>2026-08-28T19:09:25Z</time>
  <course>96.06</course>
  <speed>0.01414213562373095</speed>
  <fix>3d</fix>
</trkpt>
<trkpt lat="-35.362881" lon="149.165222">
  <ele>582.09</ele>
  <time>2026-08-28T19:09:25Z</time>
  <course>356.03</course>
  <speed>0.0</speed>
  <fix>3d</fix>
</trkpt>
<trkpt lat="-35.362881" lon="149.165222">
  <ele>582.09</ele>
  <time>2026-08-28T19:09:25Z</time>
  <course>96.04</course>
  <speed>0.01414213562373095</speed>
  <fix>3d</fix>
</trkpt>
<trkpt lat="-35.362881" lon="149.165222">
  <ele>582.09</ele>
  <time>2026-08-28T19:09:25Z</time>
  <course>356.03</course>
  <speed>0.0</speed>
  <fix>3d</fix>
</trkpt>
<trkpt lat="-35.362881" lon="149.165222">
  <ele>582.09</ele>
  <time>2026-08-28T19:09:25Z</time>
  <course>96.03</course>
  <speed>0.01414213562373095</speed>
  <fix>3d</fix>
</trkpt>
<trkpt lat="-35.362881" lon="149.165222">
  <ele>582.09</ele>
  <time>2026-08-28T19:09:25Z</time>
  <course>356.03</course>
  <speed>0.0</speed>
  <fix>3d</fix>
</trkpt>
<trkpt lat="-35.362881" lon="149.165222">
  <ele>582.09</ele>
  <time>2026-08-28T19:09:25Z</time>
  <course>96.02</course>
  <speed>0.01414213562373095</speed>
  <fix>3d</fix>
</trkpt>
<trkpt lat="-35.362881" lon="149.165222">
  <ele>582.09</ele>
  <time>2026-08-28T19:09:25Z</time>
  <course>356.03</course>
  <speed>0.0</speed>
  <fix>3d</fix>
</trkpt>
<trkpt lat="-35.362881" lon="149.165222">
  <ele>582.09</ele>
  <time>2026-08-28T19:09:25Z</time>
  <course>96.01</course>
  <speed>0.01414213562373095</speed>
  <fix>3d</fix>
</trkpt>
<trkpt lat="-35.362881" lon="149.165222">
  <ele>582.09</ele>
  <time>2026-08-28T19:09:25Z</time>
  <course>356.03</course>
  <speed>0.0</speed>
  <fix>3d</fix>
</trkpt>
<trkpt lat="-35.362881" lon="149.165222">
  <ele>582.09</ele>
  <time>2026-08-28T19:09:25Z</time>
  <course>95.99</course>
  <speed>0.01414213562373095</speed>
  <fix>3d</fix>
</trkpt>
<trkpt lat="-35.362881" lon="149.165222">
  <ele>582.09</ele>
  <time>2026-08-28T19:09:25Z</time>
  <course>356.03</course>
  <speed>0.0</speed>
  <fix>3d</fix>
</trkpt>
<trkpt lat="-35.362881" lon="149.165222">
  <ele>582.09</ele>
  <time>2026-08-28T19:09:25Z</time>
  <course>95.98</course>
  <speed>0.01414213562373095</speed>
  <fix>3d</fix>
</trkpt>
<trkpt lat="-35.362881" lon="149.165222">
  <ele>582.09</ele>
  <time>2026-08-28T19:09:25Z</time>
  <course>356.03</course>
  <speed>0.0</speed>
  <fix>3d</fix>
</trkpt>
<trkpt lat="-35.362881" lon="149.165222">
  <ele>582.09</ele>
  <time>2026-08-28T19:09:25Z</time>
  <course>95.97</course>
  <speed>0.01414213562373095</speed>
  <fix>3d</fix>
</trkpt>
<trkpt lat="-35.362881" lon="149.165222">
  <ele>582.09</ele>
  <time>2026-08-28T19:09:25Z</time>
  <course>356.03</course>
  <speed>0.0</speed>
  <fix>3d</fix>
</trkpt>
<trkpt lat="-35.362881" lon="149.165222">
  <ele>582.09</ele>
  <time>2026-08-28T19:09:25Z</time>
  <course>95.95</course>
  <speed>0.01414213562373095</speed>
  <fix>3d</fix>
</trkpt>
<trkpt lat="-35.362881" lon="149.165222">
  <ele>582.09</ele>
  <time>2026-08-28T19:09:25Z</time>
  <course>356.03</course>
  <speed>0.0</speed>
  <fix>3d</fix>
</trkpt>
<trkpt lat="-35.362881" lon="149.165222">
  <ele>582.09</ele>
  <time>2026-08-28T19:09:25Z</time>
  <course>95.94</course>
  <speed>0.01414213562373095</speed>
  <fix>3d</fix>
</trkpt>
<trkpt lat="-35.362881" lon="149.165222">
  <ele>582.09</ele>
  <time>2026-08-28T19:09:25Z</time>
  <course>356.03</course>
  <speed>0.0</speed>
  <fix>3d</fix>
</trkpt>
<trkpt lat="-35.362881" lon="149.165222">
  <ele>582.09</ele>
  <time>2026-08-28T19:09:25Z</time>
  <course>95.92</course>
  <speed>0.01414213562373095</speed>
  <fix>3d</fix>
</trkpt>
<trkpt lat="-35.362881" lon="149.165222">
  <ele>582.09</ele>
  <time>2026-08-28T19:09:25Z</time>
  <course>356.03</course>
  <speed>0.0</speed>
  <fix>3d</fix>
</trkpt>
<trkpt lat="-35.362881" lon="149.165222">
  <ele>582.09</ele>
  <time>2026-08-28T19:09:25Z</time>
  <course>95.91</course>
  <speed>0.01414213562373095</speed>
  <fix>3d</fix>
</trkpt>
<trkpt lat="-35.362881" lon="149.165222">
  <ele>582.09</ele>
  <time>2026-08-28T19:09:25Z</time>
  <course>356.03</course>
  <speed>0.0</speed>
  <fix>3d</fix>
</trkpt>
<trkpt lat="-35.362881" lon="149.165222">
  <ele>582.09</ele>
  <time>2026-08-28T19:09:25Z</time>
  <course>95.89</course>
  <speed>0.01414213562373095</speed>
  <fix>3d</fix>
</trkpt>
<trkpt lat="-35.362881" lon="149.165222">
  <ele>582.09</ele>
  <time>2026-08-28T19:09:25Z</time>
  <course>356.03</course>
  <speed>0.0</speed>
  <fix>3d</fix>
</trkpt>
<trkpt lat="-35.362881" lon="149.165222">
  <ele>582.09</ele>
  <time>2026-08-28T19:09:25Z</time>
  <course>95.88</course>
  <speed>0.01414213562373095</speed>
  <fix>3d</fix>
</trkpt>
<trkpt lat="-35.362881" lon="149.165222">
  <ele>582.09</ele>
  <time>2026-08-28T19:09:25Z</time>
  <course>356.03</course>
  <speed>0.0</speed>
  <fix>3d</fix>
</trkpt>
<trkpt lat="-35.362881" lon="149.165222">
  <ele>582.09</ele>
  <time>2026-08-28T19:09:25Z</time>
  <course>95.87</course>
  <speed>0.01414213562373095</speed>
  <fix>3d</fix>
</trkpt>
<trkpt lat="-35.362881" lon="149.165222">
  <ele>582.09</ele>
  <time>2026-08-28T19:09:25Z</time>
  <course>356.03</course>
  <speed>0.0</speed>
  <fix>3d</fix>
</trkpt>
<trkpt lat="-35.362881" lon="149.165222">
  <ele>582.09</ele>
  <time>2026-08-28T19:09:25Z</time>
  <course>95.86</course>
  <speed>0.01414213562373095</speed>
  <fix>3d</fix>
</trkpt>
<trkpt lat="-35.362881" lon="149.165222">
  <ele>582.09</ele>
  <time>2026-08-28T19:09:25Z</time>
  <course>356.03</course>
  <speed>0.0</speed>
  <fix>3d</fix>
</trkpt>
<trkpt lat="-35.362881" lon="149.165222">
  <ele>582.09</ele>
  <time>2026-08-28T19:09:25Z</time>
  <course>95.84</course>
  <speed>0.01414213562373095</speed>
  <fix>3d</fix>
</trkpt>
<trkpt lat="-35.362881" lon="149.165222">
  <ele>582.09</ele>
  <time>2026-08-28T19:09:25Z</time>
  <course>356.03</course>
  <speed>0.0</speed>
  <fix>3d</fix>
</trkpt>
<trkpt lat="-35.362881" lon="149.165222">
  <ele>582.09</ele>
  <time>2026-08-28T19:09:25Z</time>
  <course>95.82</course>
  <speed>0.01414213562373095</speed>
  <fix>3d</fix>
</trkpt>
<trkpt lat="-35.362881" lon="149.165222">
  <ele>582.09</ele>
  <time>2026-08-28T19:09:25Z</time>
  <course>356.03</course>
  <speed>0.0</speed>
  <fix>3d</fix>
</trkpt>
<trkpt lat="-35.362881" lon="149.165222">
  <ele>582.09</ele>
  <time>2026-08-28T19:09:25Z</time>
  <course>95.81</course>
  <speed>0.01414213562373095</speed>
  <fix>3d</fix>
</trkpt>
<trkpt lat="-35.362881" lon="149.165222">
  <ele>582.09</ele>
  <time>2026-08-28T19:09:25Z</time>
  <course>356.03</course>
  <speed>0.0</speed>
  <fix>3d</fix>
</trkpt>
<trkpt lat="-35.362881" lon="149.165222">
  <ele>582.09</ele>
  <time>2026-08-28T19:09:25Z</time>
  <course>95.79</course>
  <speed>0.01414213562373095</speed>
  <fix>3d</fix>
</trkpt>
<trkpt lat="-35.362881" lon="149.165222">
  <ele>582.09</ele>
  <time>2026-08-28T19:09:25Z</time>
  <course>356.03</course>
  <speed>0.0</speed>
  <fix>3d</fix>
</trkpt>
<trkpt lat="-35.362881" lon="149.165222">
  <ele>582.09</ele>
  <time>2026-08-28T19:09:25Z</time>
  <course>95.77</course>
  <speed>0.01414213562373095</speed>
  <fix>3d</fix>
</trkpt>
<trkpt lat="-35.362881" lon="149.165222">
  <ele>582.09</ele>
  <time>2026-08-28T19:09:25Z</time>
  <course>356.03</course>
  <speed>0.0</speed>
  <fix>3d</fix>
</trkpt>
<trkpt lat="-35.362881" lon="149.165222">
  <ele>582.09</ele>
  <time>2026-08-28T19:09:25Z</time>
  <course>95.76</course>
  <speed>0.01414213562373095</speed>
  <fix>3d</fix>
</trkpt>
<trkpt lat="-35.362881" lon="149.165222">
  <ele>582.09</ele>
  <time>2026-08-28T19:09:25Z</time>
  <course>356.03</course>
  <speed>0.0</speed>
  <fix>3d</fix>
</trkpt>
<trkpt lat="-35.362881" lon="149.165222">
  <ele>582.09</ele>
  <time>2026-08-28T19:09:25Z</time>
  <course>95.74</course>
  <speed>0.01414213562373095</speed>
  <fix>3d</fix>
</trkpt>
<trkpt lat="-35.362881" lon="149.165222">
  <ele>582.09</ele>
  <time>2026-08-28T19:09:25Z</time>
  <course>356.03</course>
  <speed>0.0</speed>
  <fix>3d</fix>
</trkpt>
<trkpt lat="-35.362881" lon="149.165222">
  <ele>582.09</ele>
  <time>2026-08-28T19:09:25Z</time>
  <course>95.73</course>
  <speed>0.01414213562373095</speed>
  <fix>3d</fix>
</trkpt>
<trkpt lat="-35.362881" lon="149.165222">
  <ele>582.09</ele>
  <time>2026-08-28T19:09:25Z</time>
  <course>356.03</course>
  <speed>0.0</speed>
  <fix>3d</fix>
</trkpt>
<trkpt lat="-35.362881" lon="149.165222">
  <ele>582.09</ele>
  <time>2026-08-28T19:09:25Z</time>
  <course>95.71</course>
  <speed>0.01414213562373095</speed>
  <fix>3d</fix>
</trkpt>
<trkpt lat="-35.362881" lon="149.165222">
  <ele>582.09</ele>
  <time>2026-08-28T19:09:25Z</time>
  <course>356.03</course>
  <speed>0.0</speed>
  <fix>3d</fix>
</trkpt>
<trkpt lat="-35.362881" lon="149.165222">
  <ele>582.09</ele>
  <time>2026-08-28T19:09:25Z</time>
  <course>95.69</course>
  <speed>0.01414213562373095</speed>
  <fix>3d</fix>
</trkpt>
<trkpt lat="-35.362881" lon="149.165222">
  <ele>582.09</ele>
  <time>2026-08-28T19:09:25Z</time>
  <course>356.03</course>
  <speed>0.0</speed>
  <fix>3d</fix>
</trkpt>
<trkpt lat="-35.362881" lon="149.165222">
  <ele>582.09</ele>
  <time>2026-08-28T19:09:25Z</time>
  <course>95.67</course>
  <speed>0.01414213562373095</speed>
  <fix>3d</fix>
</trkpt>
<trkpt lat="-35.362881" lon="149.165222">
  <ele>582.09</ele>
  <time>2026-08-28T19:09:25Z</time>
  <course>356.03</course>
  <speed>0.0</speed>
  <fix>3d</fix>
</trkpt>
<trkpt lat="-35.362881" lon="149.165222">
  <ele>582.09</ele>
  <time>2026-08-28T19:09:25Z</time>
  <course>95.66</course>
  <speed>0.01414213562373095</speed>
  <fix>3d</fix>
</trkpt>
<trkpt lat="-35.362881" lon="149.165222">
  <ele>582.09</ele>
  <time>2026-08-28T19:09:25Z</time>
  <course>356.03</course>
  <speed>0.0</speed>
  <fix>3d</fix>
</trkpt>
<trkpt lat="-35.362881" lon="149.165222">
  <ele>582.09</ele>
  <time>2026-08-28T19:09:25Z</time>
  <course>95.64</course>
  <speed>0.01414213562373095</speed>
  <fix>3d</fix>
</trkpt>
<trkpt lat="-35.362881" lon="149.165222">
  <ele>582.09</ele>
  <time>2026-08-28T19:09:25Z</time>
  <course>356.03</course>
  <speed>0.0</speed>
  <fix>3d</fix>
</trkpt>
<trkpt lat="-35.362881" lon="149.165222">
  <ele>582.09</ele>
  <time>2026-08-28T19:09:25Z</time>
  <course>95.62</course>
  <speed>0.01414213562373095</speed>
  <fix>3d</fix>
</trkpt>
<trkpt lat="-35.362881" lon="149.165222">
  <ele>582.09</ele>
  <time>2026-08-28T19:09:25Z</time>
  <course>356.03</course>
  <speed>0.0</speed>
  <fix>3d</fix>
</trkpt>
<trkpt lat="-35.362881" lon="149.165222">
  <ele>582.09</ele>
  <time>2026-08-28T19:09:25Z</time>
  <course>95.61</course>
  <speed>0.01414213562373095</speed>
  <fix>3d</fix>
</trkpt>
<trkpt lat="-35.362881" lon="149.165222">
  <ele>582.09</ele>
  <time>2026-08-28T19:09:25Z</time>
  <course>356.03</course>
  <speed>0.0</speed>
  <fix>3d</fix>
</trkpt>
<trkpt lat="-35.362881" lon="149.165222">
  <ele>582.09</ele>
  <time>2026-08-28T19:09:25Z</time>
  <course>95.59</course>
  <speed>0.022360679774997897</speed>
  <fix>3d</fix>
</trkpt>
<trkpt lat="-35.362881" lon="149.165222">
  <ele>582.09</ele>
  <time>2026-08-28T19:09:25Z</time>
  <course>356.03</course>
  <speed>0.0</speed>
  <fix>3d</fix>
</trkpt>
<trkpt lat="-35.362881" lon="149.165222">
  <ele>582.09</ele>
  <time>2026-08-28T19:09:25Z</time>
  <course>95.58</course>
  <speed>0.0282842712474619</speed>
  <fix>3d</fix>
</trkpt>
<trkpt lat="-35.362881" lon="149.165222">
  <ele>582.09</ele>
  <time>2026-08-28T19:09:25Z</time>
  <course>356.03</course>
  <speed>0.0</speed>
  <fix>3d</fix>
</trkpt>
<trkpt lat="-35.362881" lon="149.165222">
  <ele>582.09</ele>
  <time>2026-08-28T19:09:25Z</time>
  <course>95.56</course>
  <speed>0.0282842712474619</speed>
  <fix>3d</fix>
</trkpt>
<trkpt lat="-35.362881" lon="149.165222">
  <ele>582.09</ele>
  <time>2026-08-28T19:09:25Z</time>
  <course>356.03</course>
  <speed>0.0</speed>
  <fix>3d</fix>
</trkpt>
<trkpt lat="-35.362881" lon="149.165222">
  <ele>582.09</ele>
  <time>2026-08-28T19:09:25Z</time>
  <course>95.55</course>
  <speed>0.0282842712474619</speed>
  <fix>3d</fix>
</trkpt>
<trkpt lat="-35.362881" lon="149.165222">
  <ele>582.09</ele>
  <time>2026-08-28T19:09:25Z</time>
  <course>356.03</course>
  <speed>0.0</speed>
  <fix>3d</fix>
</trkpt>
<trkpt lat="-35.362881" lon="149.165222">
  <ele>582.09</ele>
  <time>2026-08-28T19:09:25Z</time>
  <course>95.53</course>
  <speed>0.0282842712474619</speed>
  <fix>3d</fix>
</trkpt>
<trkpt lat="-35.362881" lon="149.165222">
  <ele>582.09</ele>
  <time>2026-08-28T19:09:25Z</time>
  <course>356.03</course>
  <speed>0.0</speed>
  <fix>3d</fix>
</trkpt>
<trkpt lat="-35.362881" lon="149.165222">
  <ele>582.09</ele>
  <time>2026-08-28T19:09:25Z</time>
  <course>95.51</course>
  <speed>0.0282842712474619</speed>
  <fix>3d</fix>
</trkpt>
<trkpt lat="-35.362881" lon="149.165222">
  <ele>582.09</ele>
  <time>2026-08-28T19:09:25Z</time>
  <course>356.03</course>
  <speed>0.0</speed>
  <fix>3d</fix>
</trkpt>
<trkpt lat="-35.362881" lon="149.165222">
  <ele>582.09</ele>
  <time>2026-08-28T19:09:25Z</time>
  <course>95.5</course>
  <speed>0.0282842712474619</speed>
  <fix>3d</fix>
</trkpt>
<trkpt lat="-35.362881" lon="149.165222">
  <ele>582.09</ele>
  <time>2026-08-28T19:09:25Z</time>
  <course>356.03</course>
  <speed>0.0</speed>
  <fix>3d</fix>
</trkpt>
<trkpt lat="-35.362881" lon="149.165222">
  <ele>582.09</ele>
  <time>2026-08-28T19:09:25Z</time>
  <course>95.48</course>
  <speed>0.0282842712474619</speed>
  <fix>3d</fix>
</trkpt>
<trkpt lat="-35.362881" lon="149.165222">
  <ele>582.09</ele>
  <time>2026-08-28T19:09:25Z</time>
  <course>356.03</course>
  <speed>0.0</speed>
  <fix>3d</fix>
</trkpt>
<trkpt lat="-35.362881" lon="149.165222">
  <ele>582.09</ele>
  <time>2026-08-28T19:09:25Z</time>
  <course>95.47</course>
  <speed>0.0282842712474619</speed>
  <fix>3d</fix>
</trkpt>
<trkpt lat="-35.362881" lon="149.165222">
  <ele>582.09</ele>
  <time>2026-08-28T19:09:25Z</time>
  <course>356.03</course>
  <speed>0.0</speed>
  <fix>3d</fix>
</trkpt>
<trkpt lat="-35.362881" lon="149.165222">
  <ele>582.09</ele>
  <time>2026-08-28T19:09:25Z</time>
  <course>95.45</course>
  <speed>0.0282842712474619</speed>
  <fix>3d</fix>
</trkpt>
<trkpt lat="-35.362881" lon="149.165222">
  <ele>582.09</ele>
  <time>2026-08-28T19:09:25Z</time>
  <course>356.03</course>
  <speed>0.0</speed>
  <fix>3d</fix>
</trkpt>
<trkpt lat="-35.362881" lon="149.165222">
  <ele>582.09</ele>
  <time>2026-08-28T19:09:25Z</time>
  <course>95.44</course>
  <speed>0.0282842712474619</speed>
  <fix>3d</fix>
</trkpt>
<trkpt lat="-35.362881" lon="149.165222">
  <ele>582.09</ele>
  <time>2026-08-28T19:09:25Z</time>
  <course>356.03</course>
  <speed>0.0</speed>
  <fix>3d</fix>
</trkpt>
<trkpt lat="-35.362881" lon="149.165222">
  <ele>582.09</ele>
  <time>2026-08-28T19:09:25Z</time>
  <course>95.42</course>
  <speed>0.0282842712474619</speed>
  <fix>3d</fix>
</trkpt>
<trkpt lat="-35.362881" lon="149.165222">
  <ele>582.09</ele>
  <time>2026-08-28T19:09:25Z</time>
  <course>356.03</course>
  <speed>0.0</speed>
  <fix>3d</fix>
</trkpt>
<trkpt lat="-35.362881" lon="149.165222">
  <ele>582.09</ele>
  <time>2026-08-28T19:09:25Z</time>
  <course>95.41</course>
  <speed>0.0282842712474619</speed>
  <fix>3d</fix>
</trkpt>
<trkpt lat="-35.362881" lon="149.165222">
  <ele>582.09</ele>
  <time>2026-08-28T19:09:25Z</time>
  <course>356.03</course>
  <speed>0.0</speed>
  <fix>3d</fix>
</trkpt>
<trkpt lat="-35.362881" lon="149.165222">
  <ele>582.09</ele>
  <time>2026-08-28T19:09:25Z</time>
  <course>95.39</course>
  <speed>0.0282842712474619</speed>
  <fix>3d</fix>
</trkpt>
<trkpt lat="-35.362881" lon="149.165222">
  <ele>582.09</ele>
  <time>2026-08-28T19:09:25Z</time>
  <course>356.03</course>
  <speed>0.0</speed>
  <fix>3d</fix>
</trkpt>
<trkpt lat="-35.362881" lon="149.165222">
  <ele>582.09</ele>
  <time>2026-08-28T19:09:25Z</time>
  <course>95.38</course>
  <speed>0.0282842712474619</speed>
  <fix>3d</fix>
</trkpt>
<trkpt lat="-35.362881" lon="149.165222">
  <ele>582.09</ele>
  <time>2026-08-28T19:09:25Z</time>
  <course>356.03</course>
  <speed>0.0</speed>
  <fix>3d</fix>
</trkpt>
<trkpt lat="-35.362881" lon="149.165222">
  <ele>582.09</ele>
  <time>2026-08-28T19:09:25Z</time>
  <course>95.37</course>
  <speed>0.0282842712474619</speed>
  <fix>3d</fix>
</trkpt>
<trkpt lat="-35.362881" lon="149.165222">
  <ele>582.09</ele>
  <time>2026-08-28T19:09:25Z</time>
  <course>356.03</course>
  <speed>0.0</speed>
  <fix>3d</fix>
</trkpt>
<trkpt lat="-35.362881" lon="149.165222">
  <ele>582.09</ele>
  <time>2026-08-28T19:09:25Z</time>
  <course>95.35</course>
  <speed>0.0282842712474619</speed>
  <fix>3d</fix>
</trkpt>
<trkpt lat="-35.362881" lon="149.165222">
  <ele>582.09</ele>
  <time>2026-08-28T19:09:25Z</time>
  <course>356.03</course>
  <speed>0.0</speed>
  <fix>3d</fix>
</trkpt>
<trkpt lat="-35.362881" lon="149.165222">
  <ele>582.09</ele>
  <time>2026-08-28T19:09:25Z</time>
  <course>95.34</course>
  <speed>0.0282842712474619</speed>
  <fix>3d</fix>
</trkpt>
<trkpt lat="-35.362881" lon="149.165222">
  <ele>582.09</ele>
  <time>2026-08-28T19:09:25Z</time>
  <course>356.03</course>
  <speed>0.0</speed>
  <fix>3d</fix>
</trkpt>
<trkpt lat="-35.362881" lon="149.165222">
  <ele>582.09</ele>
  <time>2026-08-28T19:09:25Z</time>
  <course>95.32</course>
  <speed>0.0282842712474619</speed>
  <fix>3d</fix>
</trkpt>
<trkpt lat="-35.362881" lon="149.165222">
  <ele>582.09</ele>
  <time>2026-08-28T19:09:25Z</time>
  <course>356.03</course>
  <speed>0.0</speed>
  <fix>3d</fix>
</trkpt>
<trkpt lat="-35.362881" lon="149.165222">
  <ele>582.09</ele>
  <time>2026-08-28T19:09:25Z</time>
  <course>95.31</course>
  <speed>0.0282842712474619</speed>
  <fix>3d</fix>
</trkpt>
<trkpt lat="-35.362881" lon="149.165222">
  <ele>582.09</ele>
  <time>2026-08-28T19:09:25Z</time>
  <course>356.03</course>
  <speed>0.0</speed>
  <fix>3d</fix>
</trkpt>
<trkpt lat="-35.362881" lon="149.165222">
  <ele>582.09</ele>
  <time>2026-08-28T19:09:25Z</time>
  <course>95.29</course>
  <speed>0.0282842712474619</speed>
  <fix>3d</fix>
</trkpt>
<trkpt lat="-35.362881" lon="149.165222">
  <ele>582.09</ele>
  <time>2026-08-28T19:09:25Z</time>
  <course>356.03</course>
  <speed>0.0</speed>
  <fix>3d</fix>
</trkpt>
<trkpt lat="-35.362881" lon="149.165222">
  <ele>582.09</ele>
  <time>2026-08-28T19:09:25Z</time>
  <course>95.28</course>
  <speed>0.0282842712474619</speed>
  <fix>3d</fix>
</trkpt>
<trkpt lat="-35.362881" lon="149.165222">
  <ele>582.09</ele>
  <time>2026-08-28T19:09:25Z</time>
  <course>356.03</course>
  <speed>0.0</speed>
  <fix>3d</fix>
</trkpt>
<trkpt lat="-35.362881" lon="149.165222">
  <ele>582.09</ele>
  <time>2026-08-28T19:09:25Z</time>
  <course>95.27</course>
  <speed>0.0282842712474619</speed>
  <fix>3d</fix>
</trkpt>
<trkpt lat="-35.362881" lon="149.165222">
  <ele>582.09</ele>
  <time>2026-08-28T19:09:25Z</time>
  <course>356.03</course>
  <speed>0.0</speed>
  <fix>3d</fix>
</trkpt>
<trkpt lat="-35.362881" lon="149.165222">
  <ele>582.09</ele>
  <time>2026-08-28T19:09:25Z</time>
  <course>95.25</course>
  <speed>0.0282842712474619</speed>
  <fix>3d</fix>
</trkpt>
<trkpt lat="-35.362881" lon="149.165222">
  <ele>582.09</ele>
  <time>2026-08-28T19:09:25Z</time>
  <course>356.03</course>
  <speed>0.0</speed>
  <fix>3d</fix>
</trkpt>
<trkpt lat="-35.362881" lon="149.165222">
  <ele>582.09</ele>
  <time>2026-08-28T19:09:25Z</time>
  <course>95.24</course>
  <speed>0.0282842712474619</speed>
  <fix>3d</fix>
</trkpt>
<trkpt lat="-35.362881" lon="149.165222">
  <ele>582.09</ele>
  <time>2026-08-28T19:09:25Z</time>
  <course>356.03</course>
  <speed>0.0</speed>
  <fix>3d</fix>
</trkpt>
<trkpt lat="-35.362881" lon="149.165222">
  <ele>582.09</ele>
  <time>2026-08-28T19:09:25Z</time>
  <course>95.22</course>
  <speed>0.0282842712474619</speed>
  <fix>3d</fix>
</trkpt>
<trkpt lat="-35.362881" lon="149.165222">
  <ele>582.09</ele>
  <time>2026-08-28T19:09:25Z</time>
  <course>356.03</course>
  <speed>0.0</speed>
  <fix>3d</fix>
</trkpt>
<trkpt lat="-35.362881" lon="149.165222">
  <ele>582.09</ele>
  <time>2026-08-28T19:09:25Z</time>
  <course>95.21</course>
  <speed>0.0282842712474619</speed>
  <fix>3d</fix>
</trkpt>
<trkpt lat="-35.362881" lon="149.165222">
  <ele>582.09</ele>
  <time>2026-08-28T19:09:25Z</time>
  <course>356.03</course>
  <speed>0.0</speed>
  <fix>3d</fix>
</trkpt>
<trkpt lat="-35.362881" lon="149.165222">
  <ele>582.09</ele>
  <time>2026-08-28T19:09:25Z</time>
  <course>95.2</course>
  <speed>0.0282842712474619</speed>
  <fix>3d</fix>
</trkpt>
<trkpt lat="-35.362881" lon="149.165222">
  <ele>582.09</ele>
  <time>2026-08-28T19:09:25Z</time>
  <course>356.03</course>
  <speed>0.0</speed>
  <fix>3d</fix>
</trkpt>
<trkpt lat="-35.362881" lon="149.165222">
  <ele>582.09</ele>
  <time>2026-08-28T19:09:25Z</time>
  <course>95.18</course>
  <speed>0.0282842712474619</speed>
  <fix>3d</fix>
</trkpt>
<trkpt lat="-35.362881" lon="149.165222">
  <ele>582.09</ele>
  <time>2026-08-28T19:09:25Z</time>
  <course>356.03</course>
  <speed>0.0</speed>
  <fix>3d</fix>
</trkpt>
<trkpt lat="-35.362881" lon="149.165222">
  <ele>582.09</ele>
  <time>2026-08-28T19:09:25Z</time>
  <course>95.17</course>
  <speed>0.0282842712474619</speed>
  <fix>3d</fix>
</trkpt>
<trkpt lat="-35.362881" lon="149.165222">
  <ele>582.09</ele>
  <time>2026-08-28T19:09:25Z</time>
  <course>356.03</course>
  <speed>0.0</speed>
  <fix>3d</fix>
</trkpt>
<trkpt lat="-35.362881" lon="149.165222">
  <ele>582.09</ele>
  <time>2026-08-28T19:09:25Z</time>
  <course>95.16</course>
  <speed>0.0282842712474619</speed>
  <fix>3d</fix>
</trkpt>
<trkpt lat="-35.362881" lon="149.165222">
  <ele>582.09</ele>
  <time>2026-08-28T19:09:25Z</time>
  <course>356.03</course>
  <speed>0.0</speed>
  <fix>3d</fix>
</trkpt>
<trkpt lat="-35.362881" lon="149.165222">
  <ele>582.09</ele>
  <time>2026-08-28T19:09:25Z</time>
  <course>95.14</course>
  <speed>0.0282842712474619</speed>
  <fix>3d</fix>
</trkpt>
<trkpt lat="-35.362881" lon="149.165222">
  <ele>582.09</ele>
  <time>2026-08-28T19:09:25Z</time>
  <course>356.03</course>
  <speed>0.0</speed>
  <fix>3d</fix>
</trkpt>
<trkpt lat="-35.362881" lon="149.165222">
  <ele>582.09</ele>
  <time>2026-08-28T19:09:25Z</time>
  <course>95.13</course>
  <speed>0.03605551275463989</speed>
  <fix>3d</fix>
</trkpt>
<trkpt lat="-35.362881" lon="149.165222">
  <ele>582.09</ele>
  <time>2026-08-28T19:09:25Z</time>
  <course>356.03</course>
  <speed>0.0</speed>
  <fix>3d</fix>
</trkpt>
<trkpt lat="-35.362881" lon="149.165222">
  <ele>582.09</ele>
  <time>2026-08-28T19:09:25Z</time>
  <course>95.12</course>
  <speed>0.03605551275463989</speed>
  <fix>3d</fix>
</trkpt>
<trkpt lat="-35.362881" lon="149.165222">
  <ele>582.09</ele>
  <time>2026-08-28T19:09:25Z</time>
  <course>356.03</course>
  <speed>0.0</speed>
  <fix>3d</fix>
</trkpt>
<trkpt lat="-35.362881" lon="149.165222">
  <ele>582.09</ele>
  <time>2026-08-28T19:09:25Z</time>
  <course>95.11</course>
  <speed>0.03605551275463989</speed>
  <fix>3d</fix>
</trkpt>
<trkpt lat="-35.362881" lon="149.165222">
  <ele>582.09</ele>
  <time>2026-08-28T19:09:25Z</time>
  <course>356.03</course>
  <speed>0.0</speed>
  <fix>3d</fix>
</trkpt>
<trkpt lat="-35.362881" lon="149.165222">
  <ele>582.09</ele>
  <time>2026-08-28T19:09:25Z</time>
  <course>95.09</course>
  <speed>0.03605551275463989</speed>
  <fix>3d</fix>
</trkpt>
<trkpt lat="-35.362881" lon="149.165222">
  <ele>582.09</ele>
  <time>2026-08-28T19:09:25Z</time>
  <course>356.03</course>
  <speed>0.0</speed>
  <fix>3d</fix>
</trkpt>
<trkpt lat="-35.362881" lon="149.165222">
  <ele>582.09</ele>
  <time>2026-08-28T19:09:25Z</time>
  <course>95.08</course>
  <speed>0.03605551275463989</speed>
  <fix>3d</fix>
</trkpt>
<trkpt lat="-35.362881" lon="149.165222">
  <ele>582.09</ele>
  <time>2026-08-28T19:09:25Z</time>
  <course>356.03</course>
  <speed>0.0</speed>
  <fix>3d</fix>
</trkpt>
<trkpt lat="-35.362881" lon="149.165222">
  <ele>582.09</ele>
  <time>2026-08-28T19:09:25Z</time>
  <course>95.07</course>
  <speed>0.03605551275463989</speed>
  <fix>3d</fix>
</trkpt>
<trkpt lat="-35.362881" lon="149.165222">
  <ele>582.09</ele>
  <time>2026-08-28T19:09:25Z</time>
  <course>356.03</course>
  <speed>0.0</speed>
  <fix>3d</fix>
</trkpt>
<trkpt lat="-35.362881" lon="149.165222">
  <ele>582.09</ele>
  <time>2026-08-28T19:09:25Z</time>
  <course>95.06</course>
  <speed>0.03605551275463989</speed>
  <fix>3d</fix>
</trkpt>
<trkpt lat="-35.362881" lon="149.165222">
  <ele>582.09</ele>
  <time>2026-08-28T19:09:25Z</time>
  <course>356.03</course>
  <speed>0.0</speed>
  <fix>3d</fix>
</trkpt>
<trkpt lat="-35.362881" lon="149.165222">
  <ele>582.09</ele>
  <time>2026-08-28T19:09:25Z</time>
  <course>95.05</course>
  <speed>0.03605551275463989</speed>
  <fix>3d</fix>
</trkpt>
<trkpt lat="-35.362881" lon="149.165222">
  <ele>582.09</ele>
  <time>2026-08-28T19:09:25Z</time>
  <course>356.03</course>
  <speed>0.0</speed>
  <fix>3d</fix>
</trkpt>
<trkpt lat="-35.362881" lon="149.165222">
  <ele>582.09</ele>
  <time>2026-08-28T19:09:25Z</time>
  <course>95.04</course>
  <speed>0.03605551275463989</speed>
  <fix>3d</fix>
</trkpt>
<trkpt lat="-35.362881" lon="149.165222">
  <ele>582.09</ele>
  <time>2026-08-28T19:09:25Z</time>
  <course>356.03</course>
  <speed>0.0</speed>
  <fix>3d</fix>
</trkpt>
<trkpt lat="-35.362881" lon="149.165222">
  <ele>582.09</ele>
  <time>2026-08-28T19:09:25Z</time>
  <course>95.02</course>
  <speed>0.03605551275463989</speed>
  <fix>3d</fix>
</trkpt>
<trkpt lat="-35.362881" lon="149.165222">
  <ele>582.09</ele>
  <time>2026-08-28T19:09:25Z</time>
  <course>356.03</course>
  <speed>0.0</speed>
  <fix>3d</fix>
</trkpt>
<trkpt lat="-35.362881" lon="149.165222">
  <ele>582.09</ele>
  <time>2026-08-28T19:09:25Z</time>
  <course>95.01</course>
  <speed>0.03605551275463989</speed>
  <fix>3d</fix>
</trkpt>
<trkpt lat="-35.362881" lon="149.165222">
  <ele>582.09</ele>
  <time>2026-08-28T19:09:25Z</time>
  <course>356.03</course>
  <speed>0.0</speed>
  <fix>3d</fix>
</trkpt>
<trkpt lat="-35.362881" lon="149.165222">
  <ele>582.09</ele>
  <time>2026-08-28T19:09:25Z</time>
  <course>95.0</course>
  <speed>0.03605551275463989</speed>
  <fix>3d</fix>
</trkpt>
<trkpt lat="-35.362881" lon="149.165222">
  <ele>582.09</ele>
  <time>2026-08-28T19:09:25Z</time>
  <course>356.03</course>
  <speed>0.0</speed>
  <fix>3d</fix>
</trkpt>
<trkpt lat="-35.362881" lon="149.165222">
  <ele>582.09</ele>
  <time>2026-08-28T19:09:25Z</time>
  <course>94.99</course>
  <speed>0.03605551275463989</speed>
  <fix>3d</fix>
</trkpt>
<trkpt lat="-35.362881" lon="149.165222">
  <ele>582.09</ele>
  <time>2026-08-28T19:09:25Z</time>
  <course>356.03</course>
  <speed>0.0</speed>
  <fix>3d</fix>
</trkpt>
<trkpt lat="-35.362881" lon="149.165222">
  <ele>582.09</ele>
  <time>2026-08-28T19:09:25Z</time>
  <course>94.98</course>
  <speed>0.03605551275463989</speed>
  <fix>3d</fix>
</trkpt>
<trkpt lat="-35.362881" lon="149.165222">
  <ele>582.09</ele>
  <time>2026-08-28T19:09:25Z</time>
  <course>356.03</course>
  <speed>0.0</speed>
  <fix>3d</fix>
</trkpt>
<trkpt lat="-35.362881" lon="149.165222">
  <ele>582.09</ele>
  <time>2026-08-28T19:09:25Z</time>
  <course>94.96</course>
  <speed>0.03605551275463989</speed>
  <fix>3d</fix>
</trkpt>
<trkpt lat="-35.362881" lon="149.165222">
  <ele>582.09</ele>
  <time>2026-08-28T19:09:25Z</time>
  <course>356.03</course>
  <speed>0.0</speed>
  <fix>3d</fix>
</trkpt>
<trkpt lat="-35.362881" lon="149.165222">
  <ele>582.09</ele>
  <time>2026-08-28T19:09:25Z</time>
  <course>94.95</course>
  <speed>0.04242640687119285</speed>
  <fix>3d</fix>
</trkpt>
<trkpt lat="-35.362881" lon="149.165222">
  <ele>582.09</ele>
  <time>2026-08-28T19:09:25Z</time>
  <course>356.03</course>
  <speed>0.0</speed>
  <fix>3d</fix>
</trkpt>
<trkpt lat="-35.362881" lon="149.165222">
  <ele>582.09</ele>
  <time>2026-08-28T19:09:25Z</time>
  <course>94.94</course>
  <speed>0.04242640687119285</speed>
  <fix>3d</fix>
</trkpt>
<trkpt lat="-35.362881" lon="149.165222">
  <ele>582.09</ele>
  <time>2026-08-28T19:09:25Z</time>
  <course>356.03</course>
  <speed>0.0</speed>
  <fix>3d</fix>
</trkpt>
<trkpt lat="-35.362881" lon="149.165222">
  <ele>582.09</ele>
  <time>2026-08-28T19:09:25Z</time>
  <course>94.93</course>
  <speed>0.04242640687119285</speed>
  <fix>3d</fix>
</trkpt>
<trkpt lat="-35.362881" lon="149.165222">
  <ele>582.09</ele>
  <time>2026-08-28T19:09:25Z</time>
  <course>356.03</course>
  <speed>0.0</speed>
  <fix>3d</fix>
</trkpt>
<trkpt lat="-35.362881" lon="149.165222">
  <ele>582.09</ele>
  <time>2026-08-28T19:09:25Z</time>
  <course>94.92</course>
  <speed>0.04242640687119285</speed>
  <fix>3d</fix>
</trkpt>
<trkpt lat="-35.362881" lon="149.165222">
  <ele>582.09</ele>
  <time>2026-08-28T19:09:25Z</time>
  <course>356.03</course>
  <speed>0.0</speed>
  <fix>3d</fix>
</trkpt>
<trkpt lat="-35.362881" lon="149.165222">
  <ele>582.09</ele>
  <time>2026-08-28T19:09:25Z</time>
  <course>94.91</course>
  <speed>0.04242640687119285</speed>
  <fix>3d</fix>
</trkpt>
<trkpt lat="-35.362881" lon="149.165222">
  <ele>582.09</ele>
  <time>2026-08-28T19:09:25Z</time>
  <course>356.03</course>
  <speed>0.0</speed>
  <fix>3d</fix>
</trkpt>
<trkpt lat="-35.362881" lon="149.165222">
  <ele>582.09</ele>
  <time>2026-08-28T19:09:26Z</time>
  <course>94.9</course>
  <speed>0.04242640687119285</speed>
  <fix>3d</fix>
</trkpt>
<trkpt lat="-35.362881" lon="149.165222">
  <ele>582.09</ele>
  <time>2026-08-28T19:09:26Z</time>
  <course>356.03</course>
  <speed>0.0</speed>
  <fix>3d</fix>
</trkpt>
<trkpt lat="-35.362881" lon="149.165222">
  <ele>582.09</ele>
  <time>2026-08-28T19:09:26Z</time>
  <course>94.89</course>
  <speed>0.04242640687119285</speed>
  <fix>3d</fix>
</trkpt>
<trkpt lat="-35.362881" lon="149.165222">
  <ele>582.09</ele>
  <time>2026-08-28T19:09:26Z</time>
  <course>356.03</course>
  <speed>0.0</speed>
  <fix>3d</fix>
</trkpt>
<trkpt lat="-35.362881" lon="149.165222">
  <ele>582.09</ele>
  <time>2026-08-28T19:09:26Z</time>
  <course>94.88</course>
  <speed>0.04242640687119285</speed>
  <fix>3d</fix>
</trkpt>
<trkpt lat="-35.362881" lon="149.165222">
  <ele>582.09</ele>
  <time>2026-08-28T19:09:26Z</time>
  <course>356.03</course>
  <speed>0.0</speed>
  <fix>3d</fix>
</trkpt>
<trkpt lat="-35.362881" lon="149.165222">
  <ele>582.09</ele>
  <time>2026-08-28T19:09:26Z</time>
  <course>94.87</course>
  <speed>0.04242640687119285</speed>
  <fix>3d</fix>
</trkpt>
<trkpt lat="-35.362881" lon="149.165222">
  <ele>582.09</ele>
  <time>2026-08-28T19:09:26Z</time>
  <course>356.03</course>
  <speed>0.0</speed>
  <fix>3d</fix>
</trkpt>
<trkpt lat="-35.362881" lon="149.165222">
  <ele>582.09</ele>
  <time>2026-08-28T19:09:26Z</time>
  <course>94.86</course>
  <speed>0.04242640687119285</speed>
  <fix>3d</fix>
</trkpt>
<trkpt lat="-35.362881" lon="149.165222">
  <ele>582.09</ele>
  <time>2026-08-28T19:09:26Z</time>
  <course>356.03</course>
  <speed>0.0</speed>
  <fix>3d</fix>
</trkpt>
<trkpt lat="-35.362881" lon="149.165222">
  <ele>582.09</ele>
  <time>2026-08-28T19:09:26Z</time>
  <course>94.84</course>
  <speed>0.04242640687119285</speed>
  <fix>3d</fix>
</trkpt>
<trkpt lat="-35.362881" lon="149.165222">
  <ele>582.09</ele>
  <time>2026-08-28T19:09:26Z</time>
  <course>356.03</course>
  <speed>0.0</speed>
  <fix>3d</fix>
</trkpt>
<trkpt lat="-35.362881" lon="149.165222">
  <ele>582.09</ele>
  <time>2026-08-28T19:09:26Z</time>
  <course>94.83</course>
  <speed>0.04242640687119285</speed>
  <fix>3d</fix>
</trkpt>
<trkpt lat="-35.362881" lon="149.165222">
  <ele>582.09</ele>
  <time>2026-08-28T19:09:26Z</time>
  <course>356.03</course>
  <speed>0.0</speed>
  <fix>3d</fix>
</trkpt>
<trkpt lat="-35.362881" lon="149.165222">
  <ele>582.09</ele>
  <time>2026-08-28T19:09:26Z</time>
  <course>94.82</course>
  <speed>0.04242640687119285</speed>
  <fix>3d</fix>
</trkpt>
<trkpt lat="-35.362881" lon="149.165222">
  <ele>582.09</ele>
  <time>2026-08-28T19:09:26Z</time>
  <course>356.03</course>
  <speed>0.0</speed>
  <fix>3d</fix>
</trkpt>
<trkpt lat="-35.362881" lon="149.165222">
  <ele>582.09</ele>
  <time>2026-08-28T19:09:26Z</time>
  <course>94.82</course>
  <speed>0.04242640687119285</speed>
  <fix>3d</fix>
</trkpt>
<trkpt lat="-35.362881" lon="149.165222">
  <ele>582.09</ele>
  <time>2026-08-28T19:09:26Z</time>
  <course>356.03</course>
  <speed>0.0</speed>
  <fix>3d</fix>
</trkpt>
<trkpt lat="-35.362881" lon="149.165222">
  <ele>582.09</ele>
  <time>2026-08-28T19:09:26Z</time>
  <course>94.81</course>
  <speed>0.04242640687119285</speed>
  <fix>3d</fix>
</trkpt>
<trkpt lat="-35.362881" lon="149.165222">
  <ele>582.09</ele>
  <time>2026-08-28T19:09:26Z</time>
  <course>356.03</course>
  <speed>0.0</speed>
  <fix>3d</fix>
</trkpt>
<trkpt lat="-35.362881" lon="149.165222">
  <ele>582.09</ele>
  <time>2026-08-28T19:09:26Z</time>
  <course>94.8</course>
  <speed>0.04242640687119285</speed>
  <fix>3d</fix>
</trkpt>
<trkpt lat="-35.362881" lon="149.165222">
  <ele>582.09</ele>
  <time>2026-08-28T19:09:26Z</time>
  <course>356.03</course>
  <speed>0.0</speed>
  <fix>3d</fix>
</trkpt>
<trkpt lat="-35.362881" lon="149.165222">
  <ele>582.09</ele>
  <time>2026-08-28T19:09:26Z</time>
  <course>94.79</course>
  <speed>0.04242640687119285</speed>
  <fix>3d</fix>
</trkpt>
<trkpt lat="-35.362881" lon="149.165222">
  <ele>582.09</ele>
  <time>2026-08-28T19:09:26Z</time>
  <course>356.03</course>
  <speed>0.0</speed>
  <fix>3d</fix>
</trkpt>
<trkpt lat="-35.362881" lon="149.165222">
  <ele>582.28</ele>
  <time>2026-08-28T19:09:26Z</time>
  <course>94.78</course>
  <speed>0.0</speed>
  <fix>3d</fix>
</trkpt>
<trkpt lat="-35.362881" lon="149.165222">
  <ele>582.09</ele>
  <time>2026-08-28T19:09:26Z</time>
  <course>356.03</course>
  <speed>0.0</speed>
  <fix>3d</fix>
</trkpt>
<trkpt lat="-35.362881" lon="149.165222">
  <ele>582.29</ele>
  <time>2026-08-28T19:09:26Z</time>
  <course>94.77</course>
  <speed>0.0</speed>
  <fix>3d</fix>
</trkpt>
<trkpt lat="-35.362881" lon="149.165222">
  <ele>582.09</ele>
  <time>2026-08-28T19:09:26Z</time>
  <course>356.03</course>
  <speed>0.0</speed>
  <fix>3d</fix>
</trkpt>
<trkpt lat="-35.362881" lon="149.165222">
  <ele>582.29</ele>
  <time>2026-08-28T19:09:26Z</time>
  <course>94.76</course>
  <speed>0.0</speed>
  <fix>3d</fix>
</trkpt>
<trkpt lat="-35.362881" lon="149.165222">
  <ele>582.09</ele>
  <time>2026-08-28T19:09:26Z</time>
  <course>356.03</course>
  <speed>0.0</speed>
  <fix>3d</fix>
</trkpt>
<trkpt lat="-35.362881" lon="149.165222">
  <ele>582.29</ele>
  <time>2026-08-28T19:09:26Z</time>
  <course>94.75</course>
  <speed>0.0</speed>
  <fix>3d</fix>
</trkpt>
<trkpt lat="-35.362881" lon="149.165222">
  <ele>582.09</ele>
  <time>2026-08-28T19:09:26Z</time>
  <course>1.34</course>
  <speed>0.0</speed>
  <fix>3d</fix>
</trkpt>
<trkpt lat="-35.362881" lon="149.165222">
  <ele>582.29</ele>
  <time>2026-08-28T19:09:26Z</time>
  <course>94.74</course>
  <speed>0.0</speed>
  <fix>3d</fix>
</trkpt>
<trkpt lat="-35.362881" lon="149.165222">
  <ele>582.09</ele>
  <time>2026-08-28T19:09:26Z</time>
  <course>353.29</course>
  <speed>0.0</speed>
  <fix>3d</fix>
</trkpt>
<trkpt lat="-35.362881" lon="149.165222">
  <ele>582.28</ele>
  <time>2026-08-28T19:09:26Z</time>
  <course>94.73</course>
  <speed>0.0</speed>
  <fix>3d</fix>
</trkpt>
<trkpt lat="-35.362881" lon="149.165222">
  <ele>582.09</ele>
  <time>2026-08-28T19:09:26Z</time>
  <course>252.64</course>
  <speed>0.0</speed>
  <fix>3d</fix>
</trkpt>
<trkpt lat="-35.362881" lon="149.165222">
  <ele>582.28</ele>
  <time>2026-08-28T19:09:26Z</time>
  <course>94.72</course>
  <speed>0.01</speed>
  <fix>3d</fix>
</trkpt>
<trkpt lat="-35.362881" lon="149.165222">
  <ele>582.09</ele>
  <time>2026-08-28T19:09:26Z</time>
  <course>152.47</course>
  <speed>0.0</speed>
  <fix>3d</fix>
</trkpt>
<trkpt lat="-35.362881" lon="149.165222">
  <ele>582.29</ele>
  <time>2026-08-28T19:09:26Z</time>
  <course>94.71</course>
  <speed>0.01414213562373095</speed>
  <fix>3d</fix>
</trkpt>
<trkpt lat="-35.362881" lon="149.165222">
  <ele>582.09</ele>
  <time>2026-08-28T19:09:26Z</time>
  <course>4.94</course>
  <speed>0.0</speed>
  <fix>3d</fix>
</trkpt>
<trkpt lat="-35.362881" lon="149.165222">
  <ele>582.28</ele>
  <time>2026-08-28T19:09:26Z</time>
  <course>94.71</course>
  <speed>0.01414213562373095</speed>
  <fix>3d</fix>
</trkpt>
<trkpt lat="-35.362881" lon="149.165222">
  <ele>582.09</ele>
  <time>2026-08-28T19:09:26Z</time>
  <course>351.18</course>
  <speed>0.0</speed>
  <fix>3d</fix>
</trkpt>
<trkpt lat="-35.362881" lon="149.165222">
  <ele>582.28</ele>
  <time>2026-08-28T19:09:26Z</time>
  <course>94.7</course>
  <speed>0.01414213562373095</speed>
  <fix>3d</fix>
</trkpt>
<trkpt lat="-35.362881" lon="149.165222">
  <ele>582.09</ele>
  <time>2026-08-28T19:09:26Z</time>
  <course>354.86</course>
  <speed>0.0</speed>
  <fix>3d</fix>
</trkpt>
<trkpt lat="-35.362881" lon="149.165222">
  <ele>582.28</ele>
  <time>2026-08-28T19:09:26Z</time>
  <course>94.69</course>
  <speed>0.01414213562373095</speed>
  <fix>3d</fix>
</trkpt>
<trkpt lat="-35.362881" lon="149.165222">
  <ele>582.09</ele>
  <time>2026-08-28T19:09:26Z</time>
  <course>316.53</course>
  <speed>0.0</speed>
  <fix>3d</fix>
</trkpt>
<trkpt lat="-35.362881" lon="149.165222">
  <ele>582.28</ele>
  <time>2026-08-28T19:09:26Z</time>
  <course>94.68</course>
  <speed>0.01414213562373095</speed>
  <fix>3d</fix>
</trkpt>
<trkpt lat="-35.362881" lon="149.165222">
  <ele>582.09</ele>
  <time>2026-08-28T19:09:26Z</time>
  <course>348.95</course>
  <speed>0.0</speed>
  <fix>3d</fix>
</trkpt>
<trkpt lat="-35.362881" lon="149.165222">
  <ele>582.28</ele>
  <time>2026-08-28T19:09:26Z</time>
  <course>94.67</course>
  <speed>0.01414213562373095</speed>
  <fix>3d</fix>
</trkpt>
<trkpt lat="-35.362881" lon="149.165222">
  <ele>582.09</ele>
  <time>2026-08-28T19:09:26Z</time>
  <course>354.53</course>
  <speed>0.0</speed>
  <fix>3d</fix>
</trkpt>
<trkpt lat="-35.362881" lon="149.165222">
  <ele>582.27</ele>
  <time>2026-08-28T19:09:26Z</time>
  <course>94.66</course>
  <speed>0.01414213562373095</speed>
  <fix>3d</fix>
</trkpt>
<trkpt lat="-35.362881" lon="149.165222">
  <ele>582.09</ele>
  <time>2026-08-28T19:09:26Z</time>
  <course>352.21</course>
  <speed>0.0</speed>
  <fix>3d</fix>
</trkpt>
<trkpt lat="-35.362881" lon="149.165222">
  <ele>582.27</ele>
  <time>2026-08-28T19:09:26Z</time>
  <course>94.65</course>
  <speed>0.01414213562373095</speed>
  <fix>3d</fix>
</trkpt>
<trkpt lat="-35.362881" lon="149.165222">
  <ele>582.09</ele>
  <time>2026-08-28T19:09:26Z</time>
  <course>357.0</course>
  <speed>0.0</speed>
  <fix>3d</fix>
</trkpt>
<trkpt lat="-35.362881" lon="149.165222">
  <ele>582.27</ele>
  <time>2026-08-28T19:09:26Z</time>
  <course>94.65</course>
  <speed>0.01</speed>
  <fix>3d</fix>
</trkpt>
<trkpt lat="-35.362881" lon="149.165222">
  <ele>582.09</ele>
  <time>2026-08-28T19:09:26Z</time>
  <course>356.42</course>
  <speed>0.0</speed>
  <fix>3d</fix>
</trkpt>
<trkpt lat="-35.362881" lon="149.165222">
  <ele>582.27</ele>
  <time>2026-08-28T19:09:26Z</time>
  <course>94.64</course>
  <speed>0.0</speed>
  <fix>3d</fix>
</trkpt>
<trkpt lat="-35.362881" lon="149.165222">
  <ele>582.09</ele>
  <time>2026-08-28T19:09:26Z</time>
  <course>355.87</course>
  <speed>0.0</speed>
  <fix>3d</fix>
</trkpt>
<trkpt lat="-35.362881" lon="149.165222">
  <ele>582.27</ele>
  <time>2026-08-28T19:09:26Z</time>
  <course>94.63</course>
  <speed>0.0</speed>
  <fix>3d</fix>
</trkpt>
<trkpt lat="-35.362881" lon="149.165222">
  <ele>582.09</ele>
  <time>2026-08-28T19:09:26Z</time>
  <course>356.0</course>
  <speed>0.0</speed>
  <fix>3d</fix>
</trkpt>
<trkpt lat="-35.362881" lon="149.165222">
  <ele>582.27</ele>
  <time>2026-08-28T19:09:26Z</time>
  <course>94.62</course>
  <speed>0.0</speed>
  <fix>3d</fix>
</trkpt>
<trkpt lat="-35.362881" lon="149.165222">
  <ele>582.09</ele>
  <time>2026-08-28T19:09:26Z</time>
  <course>73.7</course>
  <speed>0.0</speed>
  <fix>3d</fix>
</trkpt>
<trkpt lat="-35.362881" lon="149.165222">
  <ele>582.27</ele>
  <time>2026-08-28T19:09:26Z</time>
  <course>94.61</course>
  <speed>0.0</speed>
  <fix>3d</fix>
</trkpt>
<trkpt lat="-35.362881" lon="149.165222">
  <ele>582.09</ele>
  <time>2026-08-28T19:09:26Z</time>
  <course>58.36</course>
  <speed>0.0</speed>
  <fix>3d</fix>
</trkpt>
<trkpt lat="-35.362881" lon="149.165222">
  <ele>582.27</ele>
  <time>2026-08-28T19:09:26Z</time>
  <course>94.61</course>
  <speed>0.0</speed>
  <fix>3d</fix>
</trkpt>
<trkpt lat="-35.362881" lon="149.165222">
  <ele>582.09</ele>
  <time>2026-08-28T19:09:26Z</time>
  <course>11.48</course>
  <speed>0.0</speed>
  <fix>3d</fix>
</trkpt>
<trkpt lat="-35.362881" lon="149.165222">
  <ele>582.27</ele>
  <time>2026-08-28T19:09:26Z</time>
  <course>94.6</course>
  <speed>0.0</speed>
  <fix>3d</fix>
</trkpt>
<trkpt lat="-35.362881" lon="149.165222">
  <ele>582.09</ele>
  <time>2026-08-28T19:09:26Z</time>
  <course>250.28</course>
  <speed>0.0</speed>
  <fix>3d</fix>
</trkpt>
<trkpt lat="-35.362881" lon="149.165222">
  <ele>582.27</ele>
  <time>2026-08-28T19:09:26Z</time>
  <course>94.59</course>
  <speed>0.0</speed>
  <fix>3d</fix>
</trkpt>
<trkpt lat="-35.362881" lon="149.165222">
  <ele>582.09</ele>
  <time>2026-08-28T19:09:26Z</time>
  <course>35.78</course>
  <speed>0.0</speed>
  <fix>3d</fix>
</trkpt>
<trkpt lat="-35.362881" lon="149.165222">
  <ele>582.26</ele>
  <time>2026-08-28T19:09:26Z</time>
  <course>94.59</course>
  <speed>0.0</speed>
  <fix>3d</fix>
</trkpt>
<trkpt lat="-35.362881" lon="149.165222">
  <ele>582.09</ele>
  <time>2026-08-28T19:09:26Z</time>
  <course>24.7</course>
  <speed>0.0</speed>
  <fix>3d</fix>
</trkpt>
<trkpt lat="-35.362881" lon="149.165222">
  <ele>582.26</ele>
  <time>2026-08-28T19:09:26Z</time>
  <course>94.58</course>
  <speed>0.0</speed>
  <fix>3d</fix>
</trkpt>
<trkpt lat="-35.362881" lon="149.165222">
  <ele>582.09</ele>
  <time>2026-08-28T19:09:26Z</time>
  <course>12.81</course>
  <speed>0.0</speed>
  <fix>3d</fix>
</trkpt>
<trkpt lat="-35.362881" lon="149.165222">
  <ele>582.26</ele>
  <time>2026-08-28T19:09:26Z</time>
  <course>94.57</course>
  <speed>0.0</speed>
  <fix>3d</fix>
</trkpt>
<trkpt lat="-35.362881" lon="149.165222">
  <ele>582.09</ele>
  <time>2026-08-28T19:09:26Z</time>
  <course>15.01</course>
  <speed>0.0</speed>
  <fix>3d</fix>
</trkpt>
<trkpt lat="-35.362881" lon="149.165222">
  <ele>582.27</ele>
  <time>2026-08-28T19:09:26Z</time>
  <course>94.57</course>
  <speed>0.0</speed>
  <fix>3d</fix>
</trkpt>
<trkpt lat="-35.362881" lon="149.165222">
  <ele>582.09</ele>
  <time>2026-08-28T19:09:26Z</time>
  <course>16.77</course>
  <speed>0.0</speed>
  <fix>3d</fix>
</trkpt>
<trkpt lat="-35.362881" lon="149.165222">
  <ele>582.27</ele>
  <time>2026-08-28T19:09:26Z</time>
  <course>94.56</course>
  <speed>0.0</speed>
  <fix>3d</fix>
</trkpt>
<trkpt lat="-35.362881" lon="149.165222">
  <ele>582.09</ele>
  <time>2026-08-28T19:09:26Z</time>
  <course>16.27</course>
  <speed>0.0</speed>
  <fix>3d</fix>
</trkpt>
<trkpt lat="-35.362881" lon="149.165222">
  <ele>582.27</ele>
  <time>2026-08-28T19:09:26Z</time>
  <course>94.56</course>
  <speed>0.0</speed>
  <fix>3d</fix>
</trkpt>
<trkpt lat="-35.362881" lon="149.165222">
  <ele>582.09</ele>
  <time>2026-08-28T19:09:26Z</time>
  <course>16.1</course>
  <speed>0.0</speed>
  <fix>3d</fix>
</trkpt>
<trkpt lat="-35.362881" lon="149.165222">
  <ele>582.27</ele>
  <time>2026-08-28T19:09:26Z</time>
  <course>94.55</course>
  <speed>0.0</speed>
  <fix>3d</fix>
</trkpt>
<trkpt lat="-35.362881" lon="149.165222">
  <ele>582.09</ele>
  <time>2026-08-28T19:09:26Z</time>
  <course>16.19</course>
  <speed>0.0</speed>
  <fix>3d</fix>
</trkpt>
<trkpt lat="-35.362881" lon="149.165222">
  <ele>582.27</ele>
  <time>2026-08-28T19:09:26Z</time>
  <course>94.54</course>
  <speed>0.0</speed>
  <fix>3d</fix>
</trkpt>
<trkpt lat="-35.362881" lon="149.165222">
  <ele>582.09</ele>
  <time>2026-08-28T19:09:26Z</time>
  <course>16.2</course>
  <speed>0.0</speed>
  <fix>3d</fix>
</trkpt>
<trkpt lat="-35.362881" lon="149.165222">
  <ele>582.27</ele>
  <time>2026-08-28T19:09:26Z</time>
  <course>94.54</course>
  <speed>0.0</speed>
  <fix>3d</fix>
</trkpt>
<trkpt lat="-35.362881" lon="149.165222">
  <ele>582.09</ele>
  <time>2026-08-28T19:09:26Z</time>
  <course>16.19</course>
  <speed>0.0</speed>
  <fix>3d</fix>
</trkpt>
<trkpt lat="-35.362881" lon="149.165222">
  <ele>582.27</ele>
  <time>2026-08-28T19:09:26Z</time>
  <course>94.53</course>
  <speed>0.0</speed>
  <fix>3d</fix>
</trkpt>
<trkpt lat="-35.362881" lon="149.165222">
  <ele>582.09</ele>
  <time>2026-08-28T19:09:26Z</time>
  <course>16.19</course>
  <speed>0.0</speed>
  <fix>3d</fix>
</trkpt>
<trkpt lat="-35.362881" lon="149.165222">
  <ele>582.27</ele>
  <time>2026-08-28T19:09:26Z</time>
  <course>94.52</course>
  <speed>0.0</speed>
  <fix>3d</fix>
</trkpt>
<trkpt lat="-35.362881" lon="149.165222">
  <ele>582.09</ele>
  <time>2026-08-28T19:09:26Z</time>
  <course>16.19</course>
  <speed>0.0</speed>
  <fix>3d</fix>
</trkpt>
<trkpt lat="-35.362881" lon="149.165222">
  <ele>582.27</ele>
  <time>2026-08-28T19:09:26Z</time>
  <course>94.52</course>
  <speed>0.0</speed>
  <fix>3d</fix>
</trkpt>
<trkpt lat="-35.362881" lon="149.165222">
  <ele>582.09</ele>
  <time>2026-08-28T19:09:26Z</time>
  <course>31.01</course>
  <speed>0.0</speed>
  <fix>3d</fix>
</trkpt>
<trkpt lat="-35.362881" lon="149.165222">
  <ele>582.27</ele>
  <time>2026-08-28T19:09:26Z</time>
  <course>94.51</course>
  <speed>0.0</speed>
  <fix>3d</fix>
</trkpt>
<trkpt lat="-35.362881" lon="149.165222">
  <ele>582.09</ele>
  <time>2026-08-28T19:09:26Z</time>
  <course>357.75</course>
  <speed>0.0</speed>
  <fix>3d</fix>
</trkpt>
<trkpt lat="-35.362881" lon="149.165222">
  <ele>582.27</ele>
  <time>2026-08-28T19:09:26Z</time>
  <course>94.51</course>
  <speed>0.0</speed>
  <fix>3d</fix>
</trkpt>
<trkpt lat="-35.362881" lon="149.165222">
  <ele>582.09</ele>
  <time>2026-08-28T19:09:26Z</time>
  <course>340.15</course>
  <speed>0.0</speed>
  <fix>3d</fix>
</trkpt>
<trkpt lat="-35.362881" lon="149.165222">
  <ele>582.27</ele>
  <time>2026-08-28T19:09:26Z</time>
  <course>94.5</course>
  <speed>0.0</speed>
  <fix>3d</fix>
</trkpt>
<trkpt lat="-35.362881" lon="149.165222">
  <ele>582.09</ele>
  <time>2026-08-28T19:09:26Z</time>
  <course>182.05</course>
  <speed>0.0</speed>
  <fix>3d</fix>
</trkpt>
<trkpt lat="-35.362881" lon="149.165222">
  <ele>582.27</ele>
  <time>2026-08-28T19:09:26Z</time>
  <course>94.5</course>
  <speed>0.0</speed>
  <fix>3d</fix>
</trkpt>
<trkpt lat="-35.362881" lon="149.165222">
  <ele>582.09</ele>
  <time>2026-08-28T19:09:26Z</time>
  <course>46.12</course>
  <speed>0.0</speed>
  <fix>3d</fix>
</trkpt>
<trkpt lat="-35.362881" lon="149.165222">
  <ele>582.27</ele>
  <time>2026-08-28T19:09:26Z</time>
  <course>94.49</course>
  <speed>0.01</speed>
  <fix>3d</fix>
</trkpt>
<trkpt lat="-35.362881" lon="149.165222">
  <ele>582.09</ele>
  <time>2026-08-28T19:09:26Z</time>
  <course>7.61</course>
  <speed>0.0</speed>
  <fix>3d</fix>
</trkpt>
<trkpt lat="-35.362881" lon="149.165222">
  <ele>582.27</ele>
  <time>2026-08-28T19:09:26Z</time>
  <course>94.49</course>
  <speed>0.01</speed>
  <fix>3d</fix>
</trkpt>
<trkpt lat="-35.362881" lon="149.165222">
  <ele>582.09</ele>
  <time>2026-08-28T19:09:26Z</time>
  <course>7.89</course>
  <speed>0.0</speed>
  <fix>3d</fix>
</trkpt>
<trkpt lat="-35.362881" lon="149.165222">
  <ele>582.27</ele>
  <time>2026-08-28T19:09:26Z</time>
  <course>94.48</course>
  <speed>0.01414213562373095</speed>
  <fix>3d</fix>
</trkpt>
<trkpt lat="-35.362881" lon="149.165222">
  <ele>582.09</ele>
  <time>2026-08-28T19:09:26Z</time>
  <course>11.77</course>
  <speed>0.0</speed>
  <fix>3d</fix>
</trkpt>
<trkpt lat="-35.362881" lon="149.165222">
  <ele>582.27</ele>
  <time>2026-08-28T19:09:26Z</time>
  <course>94.48</course>
  <speed>0.01414213562373095</speed>
  <fix>3d</fix>
</trkpt>
<trkpt lat="-35.362881" lon="149.165222">
  <ele>582.09</ele>
  <time>2026-08-28T19:09:26Z</time>
  <course>11.1</course>
  <speed>0.0</speed>
  <fix>3d</fix>
</trkpt>
<trkpt lat="-35.362881" lon="149.165222">
  <ele>582.27</ele>
  <time>2026-08-28T19:09:26Z</time>
  <course>94.47</course>
  <speed>0.01414213562373095</speed>
  <fix>3d</fix>
</trkpt>
<trkpt lat="-35.362881" lon="149.165222">
  <ele>582.09</ele>
  <time>2026-08-28T19:09:26Z</time>
  <course>10.66</course>
  <speed>0.0</speed>
  <fix>3d</fix>
</trkpt>
<trkpt lat="-35.362881" lon="149.165222">
  <ele>582.27</ele>
  <time>2026-08-28T19:09:26Z</time>
  <course>94.47</course>
  <speed>0.01414213562373095</speed>
  <fix>3d</fix>
</trkpt>
<trkpt lat="-35.362881" lon="149.165222">
  <ele>582.09</ele>
  <time>2026-08-28T19:09:26Z</time>
  <course>10.79</course>
  <speed>0.0</speed>
  <fix>3d</fix>
</trkpt>
<trkpt lat="-35.362881" lon="149.165222">
  <ele>582.27</ele>
  <time>2026-08-28T19:09:26Z</time>
  <course>94.46</course>
  <speed>0.01414213562373095</speed>
  <fix>3d</fix>
</trkpt>
<trkpt lat="-35.362881" lon="149.165222">
  <ele>582.09</ele>
  <time>2026-08-28T19:09:26Z</time>
  <course>10.84</course>
  <speed>0.0</speed>
  <fix>3d</fix>
</trkpt>
<trkpt lat="-35.362881" lon="149.165222">
  <ele>582.26</ele>
  <time>2026-08-28T19:09:26Z</time>
  <course>94.46</course>
  <speed>0.01414213562373095</speed>
  <fix>3d</fix>
</trkpt>
<trkpt lat="-35.362881" lon="149.165222">
  <ele>582.09</ele>
  <time>2026-08-28T19:09:26Z</time>
  <course>10.81</course>
  <speed>0.0</speed>
  <fix>3d</fix>
</trkpt>
<trkpt lat="-35.362881" lon="149.1652219">
  <ele>582.26</ele>
  <time>2026-08-28T19:09:26Z</time>
  <course>94.46</course>
  <speed>0.01414213562373095</speed>
  <fix>3d</fix>
</trkpt>
<trkpt lat="-35.362881" lon="149.165222">
  <ele>582.09</ele>
  <time>2026-08-28T19:09:26Z</time>
  <course>10.81</course>
  <speed>0.0</speed>
  <fix>3d</fix>
</trkpt>
<trkpt lat="-35.362881" lon="149.1652219">
  <ele>582.26</ele>
  <time>2026-08-28T19:09:26Z</time>
  <course>94.45</course>
  <speed>0.01414213562373095</speed>
  <fix>3d</fix>
</trkpt>
<trkpt lat="-35.362881" lon="149.165222">
  <ele>582.09</ele>
  <time>2026-08-28T19:09:26Z</time>
  <course>10.81</course>
  <speed>0.0</speed>
  <fix>3d</fix>
</trkpt>
<trkpt lat="-35.362881" lon="149.1652219">
  <ele>582.27</ele>
  <time>2026-08-28T19:09:26Z</time>
  <course>94.45</course>
  <speed>0.01414213562373095</speed>
  <fix>3d</fix>
</trkpt>
<trkpt lat="-35.362881" lon="149.165222">
  <ele>582.09</ele>
  <time>2026-08-28T19:09:26Z</time>
  <course>10.81</course>
  <speed>0.0</speed>
  <fix>3d</fix>
</trkpt>
<trkpt lat="-35.362881" lon="149.1652219">
  <ele>582.27</ele>
  <time>2026-08-28T19:09:26Z</time>
  <course>94.44</course>
  <speed>0.01414213562373095</speed>
  <fix>3d</fix>
</trkpt>
<trkpt lat="-35.362881" lon="149.165222">
  <ele>582.09</ele>
  <time>2026-08-28T19:09:26Z</time>
  <course>10.81</course>
  <speed>0.0</speed>
  <fix>3d</fix>
</trkpt>
<trkpt lat="-35.362881" lon="149.1652219">
  <ele>582.27</ele>
  <time>2026-08-28T19:09:26Z</time>
  <course>94.44</course>
  <speed>0.01414213562373095</speed>
  <fix>3d</fix>
</trkpt>
<trkpt lat="-35.362881" lon="149.165222">
  <ele>582.09</ele>
  <time>2026-08-28T19:09:26Z</time>
  <course>10.81</course>
  <speed>0.0</speed>
  <fix>3d</fix>
</trkpt>
<trkpt lat="-35.362881" lon="149.1652219">
  <ele>582.27</ele>
  <time>2026-08-28T19:09:26Z</time>
  <course>94.43</course>
  <speed>0.01414213562373095</speed>
  <fix>3d</fix>
</trkpt>
<trkpt lat="-35.362881" lon="149.165222">
  <ele>582.09</ele>
  <time>2026-08-28T19:09:26Z</time>
  <course>10.81</course>
  <speed>0.0</speed>
  <fix>3d</fix>
</trkpt>
<trkpt lat="-35.3628811" lon="149.1652219">
  <ele>582.27</ele>
  <time>2026-08-28T19:09:26Z</time>
  <course>94.43</course>
  <speed>0.01414213562373095</speed>
  <fix>3d</fix>
</trkpt>
<trkpt lat="-35.362881" lon="149.165222">
  <ele>582.09</ele>
  <time>2026-08-28T19:09:26Z</time>
  <course>10.81</course>
  <speed>0.0</speed>
  <fix>3d</fix>
</trkpt>
<trkpt lat="-35.3628811" lon="149.1652219">
  <ele>582.27</ele>
  <time>2026-08-28T19:09:26Z</time>
  <course>94.43</course>
  <speed>0.01414213562373095</speed>
  <fix>3d</fix>
</trkpt>
<trkpt lat="-35.362881" lon="149.165222">
  <ele>582.09</ele>
  <time>2026-08-28T19:09:26Z</time>
  <course>10.81</course>
  <speed>0.0</speed>
  <fix>3d</fix>
</trkpt>
<trkpt lat="-35.3628811" lon="149.1652219">
  <ele>582.27</ele>
  <time>2026-08-28T19:09:26Z</time>
  <course>94.42</course>
  <speed>0.01414213562373095</speed>
  <fix>3d</fix>
</trkpt>
<trkpt lat="-35.362881" lon="149.165222">
  <ele>582.09</ele>
  <time>2026-08-28T19:09:26Z</time>
  <course>10.81</course>
  <speed>0.0</speed>
  <fix>3d</fix>
</trkpt>
<trkpt lat="-35.3628811" lon="149.1652219">
  <ele>582.27</ele>
  <time>2026-08-28T19:09:26Z</time>
  <course>94.42</course>
  <speed>0.022360679774997897</speed>
  <fix>3d</fix>
</trkpt>
<trkpt lat="-35.362881" lon="149.165222">
  <ele>582.09</ele>
  <time>2026-08-28T19:09:26Z</time>
  <course>10.81</course>
  <speed>0.0</speed>
  <fix>3d</fix>
</trkpt>
<trkpt lat="-35.3628811" lon="149.1652219">
  <ele>582.27</ele>
  <time>2026-08-28T19:09:26Z</time>
  <course>94.42</course>
  <speed>0.022360679774997897</speed>
  <fix>3d</fix>
</trkpt>
<trkpt lat="-35.362881" lon="149.165222">
  <ele>582.09</ele>
  <time>2026-08-28T19:09:26Z</time>
  <course>10.81</course>
  <speed>0.0</speed>
  <fix>3d</fix>
</trkpt>
<trkpt lat="-35.3628811" lon="149.1652219">
  <ele>582.27</ele>
  <time>2026-08-28T19:09:26Z</time>
  <course>94.41</course>
  <speed>0.022360679774997897</speed>
  <fix>3d</fix>
</trkpt>
<trkpt lat="-35.362881" lon="149.165222">
  <ele>582.09</ele>
  <time>2026-08-28T19:09:26Z</time>
  <course>10.81</course>
  <speed>0.0</speed>
  <fix>3d</fix>
</trkpt>
<trkpt lat="-35.3628811" lon="149.1652219">
  <ele>582.27</ele>
  <time>2026-08-28T19:09:26Z</time>
  <course>94.41</course>
  <speed>0.022360679774997897</speed>
  <fix>3d</fix>
</trkpt>
<trkpt lat="-35.362881" lon="149.165222">
  <ele>582.09</ele>
  <time>2026-08-28T19:09:26Z</time>
  <course>10.81</course>
  <speed>0.0</speed>
  <fix>3d</fix>
</trkpt>
<trkpt lat="-35.3628811" lon="149.1652219">
  <ele>582.27</ele>
  <time>2026-08-28T19:09:26Z</time>
  <course>94.4</course>
  <speed>0.022360679774997897</speed>
  <fix>3d</fix>
</trkpt>
<trkpt lat="-35.362881" lon="149.165222">
  <ele>582.09</ele>
  <time>2026-08-28T19:09:26Z</time>
  <course>10.81</course>
  <speed>0.0</speed>
  <fix>3d</fix>
</trkpt>
<trkpt lat="-35.3628811" lon="149.1652219">
  <ele>582.26</ele>
  <time>2026-08-28T19:09:26Z</time>
  <course>94.4</course>
  <speed>0.022360679774997897</speed>
  <fix>3d</fix>
</trkpt>
<trkpt lat="-35.362881" lon="149.165222">
  <ele>582.09</ele>
  <time>2026-08-28T19:09:26Z</time>
  <course>10.81</course>
  <speed>0.0</speed>
  <fix>3d</fix>
</trkpt>
<trkpt lat="-35.3628811" lon="149.1652219">
  <ele>582.26</ele>
  <time>2026-08-28T19:09:26Z</time>
  <course>94.39</course>
  <speed>0.022360679774997897</speed>
  <fix>3d</fix>
</trkpt>
<trkpt lat="-35.362881" lon="149.165222">
  <ele>582.09</ele>
  <time>2026-08-28T19:09:26Z</time>
  <course>10.81</course>
  <speed>0.0</speed>
  <fix>3d</fix>
</trkpt>
<trkpt lat="-35.3628811" lon="149.1652219">
  <ele>582.26</ele>
  <time>2026-08-28T19:09:26Z</time>
  <course>94.39</course>
  <speed>0.01414213562373095</speed>
  <fix>3d</fix>
</trkpt>
<trkpt lat="-35.362881" lon="149.165222">
  <ele>582.09</ele>
  <time>2026-08-28T19:09:26Z</time>
  <course>10.81</course>
  <speed>0.0</speed>
  <fix>3d</fix>
</trkpt>
<trkpt lat="-35.3628811" lon="149.1652219">
  <ele>582.25</ele>
  <time>2026-08-28T19:09:26Z</time>
  <course>94.39</course>
  <speed>0.01414213562373095</speed>
  <fix>3d</fix>
</trkpt>
<trkpt lat="-35.362881" lon="149.165222">
  <ele>582.09</ele>
  <time>2026-08-28T19:09:26Z</time>
  <course>10.81</course>
  <speed>0.0</speed>
  <fix>3d</fix>
</trkpt>
<trkpt lat="-35.3628811" lon="149.1652219">
  <ele>582.25</ele>
  <time>2026-08-28T19:09:26Z</time>
  <course>94.38</course>
  <speed>0.01414213562373095</speed>
  <fix>3d</fix>
</trkpt>
<trkpt lat="-35.362881" lon="149.165222">
  <ele>582.09</ele>
  <time>2026-08-28T19:09:26Z</time>
  <course>10.81</course>
  <speed>0.0</speed>
  <fix>3d</fix>
</trkpt>
<trkpt lat="-35.3628811" lon="149.1652219">
  <ele>582.25</ele>
  <time>2026-08-28T19:09:26Z</time>
  <course>94.38</course>
  <speed>0.01414213562373095</speed>
  <fix>3d</fix>
</trkpt>
<trkpt lat="-35.362881" lon="149.165222">
  <ele>582.09</ele>
  <time>2026-08-28T19:09:26Z</time>
  <course>200.8</course>
  <speed>0.0</speed>
  <fix>3d</fix>
</trkpt>
<trkpt lat="-35.3628811" lon="149.1652219">
  <ele>582.25</ele>
  <time>2026-08-28T19:09:26Z</time>
  <course>94.37</course>
  <speed>0.01414213562373095</speed>
  <fix>3d</fix>
</trkpt>
<trkpt lat="-35.362881" lon="149.165222">
  <ele>582.09</ele>
  <time>2026-08-28T19:09:26Z</time>
  <course>180.58</course>
  <speed>0.0</speed>
  <fix>3d</fix>
</trkpt>
<trkpt lat="-35.362881" lon="149.1652219">
  <ele>582.24</ele>
  <time>2026-08-28T19:09:26Z</time>
  <course>94.37</course>
  <speed>0.01414213562373095</speed>
  <fix>3d</fix>
</trkpt>
<trkpt lat="-35.362881" lon="149.165222">
  <ele>582.09</ele>
  <time>2026-08-28T19:09:26Z</time>
  <course>118.43</course>
  <speed>0.0</speed>
  <fix>3d</fix>
</trkpt>
<trkpt lat="-35.362881" lon="149.1652219">
  <ele>582.24</ele>
  <time>2026-08-28T19:09:26Z</time>
  <course>94.36</course>
  <speed>0.01</speed>
  <fix>3d</fix>
</trkpt>
<trkpt lat="-35.362881" lon="149.165222">
  <ele>582.09</ele>
  <time>2026-08-28T19:09:26Z</time>
  <course>0.52</course>
  <speed>0.0</speed>
  <fix>3d</fix>
</trkpt>
<trkpt lat="-35.362881" lon="149.1652219">
  <ele>582.24</ele>
  <time>2026-08-28T19:09:26Z</time>
  <course>94.36</course>
  <speed>0.0</speed>
  <fix>3d</fix>
</trkpt>
<trkpt lat="-35.362881" lon="149.165222">
  <ele>582.09</ele>
  <time>2026-08-28T19:09:26Z</time>
  <course>355.49</course>
  <speed>0.0</speed>
  <fix>3d</fix>
</trkpt>
<trkpt lat="-35.362881" lon="149.1652219">
  <ele>582.24</ele>
  <time>2026-08-28T19:09:26Z</time>
  <course>94.35</course>
  <speed>0.0</speed>
  <fix>3d</fix>
</trkpt>
<trkpt lat="-35.362881" lon="149.165222">
  <ele>582.09</ele>
  <time>2026-08-28T19:09:26Z</time>
  <course>30.16</course>
  <speed>0.0</speed>
  <fix>3d</fix>
</trkpt>
<trkpt lat="-35.362881" lon="149.1652219">
  <ele>582.24</ele>
  <time>2026-08-28T19:09:26Z</time>
  <course>94.35</course>
  <speed>0.0</speed>
  <fix>3d</fix>
</trkpt>
<trkpt lat="-35.362881" lon="149.165222">
  <ele>582.09</ele>
  <time>2026-08-28T19:09:26Z</time>
  <course>17.7</course>
  <speed>0.0</speed>
  <fix>3d</fix>
</trkpt>
<trkpt lat="-35.362881" lon="149.1652219">
  <ele>582.24</ele>
  <time>2026-08-28T19:09:26Z</time>
  <course>94.34</course>
  <speed>0.0</speed>
  <fix>3d</fix>
</trkpt>
<trkpt lat="-35.362881" lon="149.165222">
  <ele>582.09</ele>
  <time>2026-08-28T19:09:26Z</time>
  <course>14.75</course>
  <speed>0.0</speed>
  <fix>3d</fix>
</trkpt>
<trkpt lat="-35.362881" lon="149.1652219">
  <ele>582.24</ele>
  <time>2026-08-28T19:09:26Z</time>
  <course>94.34</course>
  <speed>0.0</speed>
  <fix>3d</fix>
</trkpt>
<trkpt lat="-35.362881" lon="149.165222">
  <ele>582.09</ele>
  <time>2026-08-28T19:09:26Z</time>
  <course>16.16</course>
  <speed>0.0</speed>
  <fix>3d</fix>
</trkpt>
<trkpt lat="-35.362881" lon="149.1652219">
  <ele>582.24</ele>
  <time>2026-08-28T19:09:26Z</time>
  <course>94.33</course>
  <speed>0.0</speed>
  <fix>3d</fix>
</trkpt>
<trkpt lat="-35.362881" lon="149.165222">
  <ele>582.09</ele>
  <time>2026-08-28T19:09:26Z</time>
  <course>322.6</course>
  <speed>0.0</speed>
  <fix>3d</fix>
</trkpt>
<trkpt lat="-35.362881" lon="149.1652219">
  <ele>582.24</ele>
  <time>2026-08-28T19:09:26Z</time>
  <course>94.33</course>
  <speed>0.0</speed>
  <fix>3d</fix>
</trkpt>
<trkpt lat="-35.362881" lon="149.165222">
  <ele>582.09</ele>
  <time>2026-08-28T19:09:26Z</time>
  <course>5.37</course>
  <speed>0.0</speed>
  <fix>3d</fix>
</trkpt>
<trkpt lat="-35.362881" lon="149.1652219">
  <ele>582.24</ele>
  <time>2026-08-28T19:09:26Z</time>
  <course>94.33</course>
  <speed>0.0</speed>
  <fix>3d</fix>
</trkpt>
<trkpt lat="-35.362881" lon="149.165222">
  <ele>582.09</ele>
  <time>2026-08-28T19:09:26Z</time>
  <course>15.2</course>
  <speed>0.0</speed>
  <fix>3d</fix>
</trkpt>
<trkpt lat="-35.362881" lon="149.1652219">
  <ele>582.24</ele>
  <time>2026-08-28T19:09:26Z</time>
  <course>94.32</course>
  <speed>0.0</speed>
  <fix>3d</fix>
</trkpt>
<trkpt lat="-35.362881" lon="149.165222">
  <ele>582.09</ele>
  <time>2026-08-28T19:09:26Z</time>
  <course>12.24</course>
  <speed>0.0</speed>
  <fix>3d</fix>
</trkpt>
<trkpt lat="-35.362881" lon="149.1652219">
  <ele>582.24</ele>
  <time>2026-08-28T19:09:26Z</time>
  <course>94.32</course>
  <speed>0.0</speed>
  <fix>3d</fix>
</trkpt>
<trkpt lat="-35.362881" lon="149.165222">
  <ele>582.09</ele>
  <time>2026-08-28T19:09:26Z</time>
  <course>17.12</course>
  <speed>0.0</speed>
  <fix>3d</fix>
</trkpt>
<trkpt lat="-35.362881" lon="149.1652219">
  <ele>582.24</ele>
  <time>2026-08-28T19:09:26Z</time>
  <course>94.31</course>
  <speed>0.0</speed>
  <fix>3d</fix>
</trkpt>
<trkpt lat="-35.362881" lon="149.165222">
  <ele>582.09</ele>
  <time>2026-08-28T19:09:26Z</time>
  <course>11.71</course>
  <speed>0.0</speed>
  <fix>3d</fix>
</trkpt>
<trkpt lat="-35.362881" lon="149.1652219">
  <ele>582.24</ele>
  <time>2026-08-28T19:09:26Z</time>
  <course>94.31</course>
  <speed>0.0</speed>
  <fix>3d</fix>
</trkpt>
<trkpt lat="-35.362881" lon="149.165222">
  <ele>582.09</ele>
  <time>2026-08-28T19:09:26Z</time>
  <course>0.27</course>
  <speed>0.0</speed>
  <fix>3d</fix>
</trkpt>
<trkpt lat="-35.362881" lon="149.1652219">
  <ele>582.24</ele>
  <time>2026-08-28T19:09:26Z</time>
  <course>94.3</course>
  <speed>0.0</speed>
  <fix>3d</fix>
</trkpt>
<trkpt lat="-35.362881" lon="149.165222">
  <ele>582.09</ele>
  <time>2026-08-28T19:09:26Z</time>
  <course>312.63</course>
  <speed>0.0</speed>
  <fix>3d</fix>
</trkpt>
<trkpt lat="-35.362881" lon="149.1652219">
  <ele>582.24</ele>
  <time>2026-08-28T19:09:26Z</time>
  <course>94.3</course>
  <speed>0.0</speed>
  <fix>3d</fix>
</trkpt>
<trkpt lat="-35.362881" lon="149.165222">
  <ele>582.09</ele>
  <time>2026-08-28T19:09:26Z</time>
  <course>143.98</course>
  <speed>0.0</speed>
  <fix>3d</fix>
</trkpt>
<trkpt lat="-35.362881" lon="149.1652219">
  <ele>582.24</ele>
  <time>2026-08-28T19:09:26Z</time>
  <course>94.3</course>
  <speed>0.0</speed>
  <fix>3d</fix>
</trkpt>
<trkpt lat="-35.362881" lon="149.165222">
  <ele>582.09</ele>
  <time>2026-08-28T19:09:26Z</time>
  <course>18.99</course>
  <speed>0.0</speed>
  <fix>3d</fix>
</trkpt>
<trkpt lat="-35.362881" lon="149.1652219">
  <ele>582.24</ele>
  <time>2026-08-28T19:09:26Z</time>
  <course>94.29</course>
  <speed>0.0</speed>
  <fix>3d</fix>
</trkpt>
<trkpt lat="-35.362881" lon="149.165222">
  <ele>582.09</ele>
  <time>2026-08-28T19:09:26Z</time>
  <course>5.84</course>
  <speed>0.0</speed>
  <fix>3d</fix>
</trkpt>
<trkpt lat="-35.362881" lon="149.1652219">
  <ele>582.24</ele>
  <time>2026-08-28T19:09:26Z</time>
  <course>94.29</course>
  <speed>0.0</speed>
  <fix>3d</fix>
</trkpt>
<trkpt lat="-35.362881" lon="149.165222">
  <ele>582.09</ele>
  <time>2026-08-28T19:09:26Z</time>
  <course>10.2</course>
  <speed>0.0</speed>
  <fix>3d</fix>
</trkpt>
<trkpt lat="-35.362881" lon="149.1652219">
  <ele>582.24</ele>
  <time>2026-08-28T19:09:26Z</time>
  <course>94.28</course>
  <speed>0.0</speed>
  <fix>3d</fix>
</trkpt>
<trkpt lat="-35.362881" lon="149.165222">
  <ele>582.09</ele>
  <time>2026-08-28T19:09:26Z</time>
  <course>11.7</course>
  <speed>0.0</speed>
  <fix>3d</fix>
</trkpt>
<trkpt lat="-35.362881" lon="149.1652219">
  <ele>582.24</ele>
  <time>2026-08-28T19:09:26Z</time>
  <course>94.28</course>
  <speed>0.0</speed>
  <fix>3d</fix>
</trkpt>
<trkpt lat="-35.362881" lon="149.165222">
  <ele>582.09</ele>
  <time>2026-08-28T19:09:26Z</time>
  <course>10.73</course>
  <speed>0.0</speed>
  <fix>3d</fix>
</trkpt>
<trkpt lat="-35.362881" lon="149.1652219">
  <ele>582.24</ele>
  <time>2026-08-28T19:09:26Z</time>
  <course>94.27</course>
  <speed>0.0</speed>
  <fix>3d</fix>
</trkpt>
<trkpt lat="-35.362881" lon="149.165222">
  <ele>582.09</ele>
  <time>2026-08-28T19:09:26Z</time>
  <course>10.55</course>
  <speed>0.0</speed>
  <fix>3d</fix>
</trkpt>
<trkpt lat="-35.362881" lon="149.1652219">
  <ele>582.24</ele>
  <time>2026-08-28T19:09:26Z</time>
  <course>94.26</course>
  <speed>0.0</speed>
  <fix>3d</fix>
</trkpt>
<trkpt lat="-35.362881" lon="149.165222">
  <ele>582.09</ele>
  <time>2026-08-28T19:09:26Z</time>
  <course>10.58</course>
  <speed>0.0</speed>
  <fix>3d</fix>
</trkpt>
<trkpt lat="-35.362881" lon="149.1652219">
  <ele>582.24</ele>
  <time>2026-08-28T19:09:26Z</time>
  <course>94.25</course>
  <speed>0.0</speed>
  <fix>3d</fix>
</trkpt>
<trkpt lat="-35.362881" lon="149.165222">
  <ele>582.09</ele>
  <time>2026-08-28T19:09:26Z</time>
  <course>10.48</course>
  <speed>0.0</speed>
  <fix>3d</fix>
</trkpt>
<trkpt lat="-35.362881" lon="149.1652219">
  <ele>582.24</ele>
  <time>2026-08-28T19:09:26Z</time>
  <course>94.24</course>
  <speed>0.0</speed>
  <fix>3d</fix>
</trkpt>
<trkpt lat="-35.362881" lon="149.165222">
  <ele>582.09</ele>
  <time>2026-08-28T19:09:26Z</time>
  <course>10.36</course>
  <speed>0.0</speed>
  <fix>3d</fix>
</trkpt>
<trkpt lat="-35.362881" lon="149.1652219">
  <ele>582.25</ele>
  <time>2026-08-28T19:09:26Z</time>
  <course>94.23</course>
  <speed>0.0</speed>
  <fix>3d</fix>
</trkpt>
<trkpt lat="-35.362881" lon="149.165222">
  <ele>582.09</ele>
  <time>2026-08-28T19:09:26Z</time>
  <course>10.26</course>
  <speed>0.0</speed>
  <fix>3d</fix>
</trkpt>
<trkpt lat="-35.362881" lon="149.1652219">
  <ele>582.25</ele>
  <time>2026-08-28T19:09:26Z</time>
  <course>94.22</course>
  <speed>0.01</speed>
  <fix>3d</fix>
</trkpt>
<trkpt lat="-35.362881" lon="149.165222">
  <ele>582.09</ele>
  <time>2026-08-28T19:09:26Z</time>
  <course>10.16</course>
  <speed>0.0</speed>
  <fix>3d</fix>
</trkpt>
<trkpt lat="-35.362881" lon="149.1652219">
  <ele>582.25</ele>
  <time>2026-08-28T19:09:26Z</time>
  <course>94.2</course>
  <speed>0.01</speed>
  <fix>3d</fix>
</trkpt>
<trkpt lat="-35.362881" lon="149.165222">
  <ele>582.09</ele>
  <time>2026-08-28T19:09:26Z</time>
  <course>61.03</course>
  <speed>0.0</speed>
  <fix>3d</fix>
</trkpt>
<trkpt lat="-35.362881" lon="149.1652219">
  <ele>582.25</ele>
  <time>2026-08-28T19:09:26Z</time>
  <course>94.18</course>
  <speed>0.01414213562373095</speed>
  <fix>3d</fix>
</trkpt>
<trkpt lat="-35.362881" lon="149.165222">
  <ele>582.09</ele>
  <time>2026-08-28T19:09:26Z</time>
  <course>52.48</course>
  <speed>0.0</speed>
  <fix>3d</fix>
</trkpt>
<trkpt lat="-35.362881" lon="149.1652219">
  <ele>582.25</ele>
  <time>2026-08-28T19:09:27Z</time>
  <course>94.16</course>
  <speed>0.01414213562373095</speed>
  <fix>3d</fix>
</trkpt>
<trkpt lat="-35.362881" lon="149.165222">
  <ele>582.09</ele>
  <time>2026-08-28T19:09:27Z</time>
  <course>350.65</course>
  <speed>0.0</speed>
  <fix>3d</fix>
</trkpt>
<trkpt lat="-35.362881" lon="149.1652219">
  <ele>582.25</ele>
  <time>2026-08-28T19:09:27Z</time>
  <course>94.14</course>
  <speed>0.01414213562373095</speed>
  <fix>3d</fix>
</trkpt>
<trkpt lat="-35.362881" lon="149.165222">
  <ele>582.09</ele>
  <time>2026-08-28T19:09:27Z</time>
  <course>345.49</course>
  <speed>0.0</speed>
  <fix>3d</fix>
</trkpt>
<trkpt lat="-35.362881" lon="149.1652219">
  <ele>582.25</ele>
  <time>2026-08-28T19:09:27Z</time>
  <course>94.12</course>
  <speed>0.01414213562373095</speed>
  <fix>3d</fix>
</trkpt>
<trkpt lat="-35.362881" lon="149.165222">
  <ele>582.09</ele>
  <time>2026-08-28T19:09:27Z</time>
  <course>13.1</course>
  <speed>0.0</speed>
  <fix>3d</fix>
</trkpt>
<trkpt lat="-35.362881" lon="149.1652219">
  <ele>582.25</ele>
  <time>2026-08-28T19:09:27Z</time>
  <course>94.1</course>
  <speed>0.01414213562373095</speed>
  <fix>3d</fix>
</trkpt>
<trkpt lat="-35.362881" lon="149.165222">
  <ele>582.09</ele>
  <time>2026-08-28T19:09:27Z</time>
  <course>11.64</course>
  <speed>0.0</speed>
  <fix>3d</fix>
</trkpt>
<trkpt lat="-35.362881" lon="149.1652219">
  <ele>582.25</ele>
  <time>2026-08-28T19:09:27Z</time>
  <course>94.08</course>
  <speed>0.01414213562373095</speed>
  <fix>3d</fix>
</trkpt>
<trkpt lat="-35.362881" lon="149.165222">
  <ele>582.09</ele>
  <time>2026-08-28T19:09:27Z</time>
  <course>4.69</course>
  <speed>0.0</speed>
  <fix>3d</fix>
</trkpt>
<trkpt lat="-35.362881" lon="149.1652219">
  <ele>582.25</ele>
  <time>2026-08-28T19:09:27Z</time>
  <course>94.05</course>
  <speed>0.01414213562373095</speed>
  <fix>3d</fix>
</trkpt>
<trkpt lat="-35.362881" lon="149.165222">
  <ele>582.09</ele>
  <time>2026-08-28T19:09:27Z</time>
  <course>2.43</course>
  <speed>0.0</speed>
  <fix>3d</fix>
</trkpt>
<trkpt lat="-35.362881" lon="149.1652219">
  <ele>582.25</ele>
  <time>2026-08-28T19:09:27Z</time>
  <course>94.02</course>
  <speed>0.01414213562373095</speed>
  <fix>3d</fix>
</trkpt>
<trkpt lat="-35.362881" lon="149.165222">
  <ele>582.09</ele>
  <time>2026-08-28T19:09:27Z</time>
  <course>2.8</course>
  <speed>0.0</speed>
  <fix>3d</fix>
</trkpt>
<trkpt lat="-35.362881" lon="149.1652219">
  <ele>582.25</ele>
  <time>2026-08-28T19:09:27Z</time>
  <course>94.0</course>
  <speed>0.01414213562373095</speed>
  <fix>3d</fix>
</trkpt>
<trkpt lat="-35.362881" lon="149.165222">
  <ele>582.09</ele>
  <time>2026-08-28T19:09:27Z</time>
  <course>5.29</course>
  <speed>0.0</speed>
  <fix>3d</fix>
</trkpt>
<trkpt lat="-35.362881" lon="149.1652219">
  <ele>582.25</ele>
  <time>2026-08-28T19:09:27Z</time>
  <course>93.97</course>
  <speed>0.01414213562373095</speed>
  <fix>3d</fix>
</trkpt>
<trkpt lat="-35.362881" lon="149.165222">
  <ele>582.09</ele>
  <time>2026-08-28T19:09:27Z</time>
  <course>1.4</course>
  <speed>0.0</speed>
  <fix>3d</fix>
</trkpt>
<trkpt lat="-35.362881" lon="149.1652219">
  <ele>582.25</ele>
  <time>2026-08-28T19:09:27Z</time>
  <course>93.93</course>
  <speed>0.01414213562373095</speed>
  <fix>3d</fix>
</trkpt>
<trkpt lat="-35.362881" lon="149.165222">
  <ele>582.09</ele>
  <time>2026-08-28T19:09:27Z</time>
  <course>3.33</course>
  <speed>0.0</speed>
  <fix>3d</fix>
</trkpt>
<trkpt lat="-35.362881" lon="149.1652219">
  <ele>582.24</ele>
  <time>2026-08-28T19:09:27Z</time>
  <course>93.9</course>
  <speed>0.01414213562373095</speed>
  <fix>3d</fix>
</trkpt>
<trkpt lat="-35.362881" lon="149.165222">
  <ele>582.09</ele>
  <time>2026-08-28T19:09:27Z</time>
  <course>359.18</course>
  <speed>0.0</speed>
  <fix>3d</fix>
</trkpt>
<trkpt lat="-35.362881" lon="149.1652219">
  <ele>582.25</ele>
  <time>2026-08-28T19:09:27Z</time>
  <course>93.87</course>
  <speed>0.01414213562373095</speed>
  <fix>3d</fix>
</trkpt>
<trkpt lat="-35.362881" lon="149.165222">
  <ele>582.09</ele>
  <time>2026-08-28T19:09:27Z</time>
  <course>355.34</course>
  <speed>0.0</speed>
  <fix>3d</fix>
</trkpt>
<trkpt lat="-35.362881" lon="149.1652219">
  <ele>582.25</ele>
  <time>2026-08-28T19:09:27Z</time>
  <course>93.84</course>
  <speed>0.022360679774997897</speed>
  <fix>3d</fix>
</trkpt>
<trkpt lat="-35.362881" lon="149.165222">
  <ele>582.09</ele>
  <time>2026-08-28T19:09:27Z</time>
  <course>1.65</course>
  <speed>0.0</speed>
  <fix>3d</fix>
</trkpt>
<trkpt lat="-35.3628811" lon="149.1652219">
  <ele>582.25</ele>
  <time>2026-08-28T19:09:27Z</time>
  <course>93.8</course>
  <speed>0.022360679774997897</speed>
  <fix>3d</fix>
</trkpt>
<trkpt lat="-35.362881" lon="149.165222">
  <ele>582.09</ele>
  <time>2026-08-28T19:09:27Z</time>
  <course>2.45</course>
  <speed>0.0</speed>
  <fix>3d</fix>
</trkpt>
<trkpt lat="-35.3628811" lon="149.1652219">
  <ele>582.25</ele>
  <time>2026-08-28T19:09:27Z</time>
  <course>93.76</course>
  <speed>0.022360679774997897</speed>
  <fix>3d</fix>
</trkpt>
<trkpt lat="-35.362881" lon="149.165222">
  <ele>582.09</ele>
  <time>2026-08-28T19:09:27Z</time>
  <course>0.19</course>
  <speed>0.0</speed>
  <fix>3d</fix>
</trkpt>
<trkpt lat="-35.3628811" lon="149.1652219">
  <ele>582.25</ele>
  <time>2026-08-28T19:09:27Z</time>
  <course>93.72</course>
  <speed>0.022360679774997897</speed>
  <fix>3d</fix>
</trkpt>
<trkpt lat="-35.362881" lon="149.165222">
  <ele>582.09</ele>
  <time>2026-08-28T19:09:27Z</time>
  <course>0.14</course>
  <speed>0.0</speed>
  <fix>3d</fix>
</trkpt>
<trkpt lat="-35.3628811" lon="149.1652219">
  <ele>582.24</ele>
  <time>2026-08-28T19:09:27Z</time>
  <course>93.69</course>
  <speed>0.022360679774997897</speed>
  <fix>3d</fix>
</trkpt>
<trkpt lat="-35.362881" lon="149.165222">
  <ele>582.09</ele>
  <time>2026-08-28T19:09:27Z</time>
  <course>0.59</course>
  <speed>0.0</speed>
  <fix>3d</fix>
</trkpt>
<trkpt lat="-35.3628811" lon="149.1652219">
  <ele>582.24</ele>
  <time>2026-08-28T19:09:27Z</time>
  <course>93.65</course>
  <speed>0.022360679774997897</speed>
  <fix>3d</fix>
</trkpt>
<trkpt lat="-35.362881" lon="149.165222">
  <ele>582.09</ele>
  <time>2026-08-28T19:09:27Z</time>
  <course>0.08</course>
  <speed>0.0</speed>
  <fix>3d</fix>
</trkpt>
<trkpt lat="-35.3628811" lon="149.1652219">
  <ele>582.24</ele>
  <time>2026-08-28T19:09:27Z</time>
  <course>93.61</course>
  <speed>0.022360679774997897</speed>
  <fix>3d</fix>
</trkpt>
<trkpt lat="-35.362881" lon="149.165222">
  <ele>582.09</ele>
  <time>2026-08-28T19:09:27Z</time>
  <course>0.06</course>
  <speed>0.0</speed>
  <fix>3d</fix>
</trkpt>
<trkpt lat="-35.3628811" lon="149.1652219">
  <ele>582.24</ele>
  <time>2026-08-28T19:09:27Z</time>
  <course>93.56</course>
  <speed>0.022360679774997897</speed>
  <fix>3d</fix>
</trkpt>
<trkpt lat="-35.362881" lon="149.165222">
  <ele>582.09</ele>
  <time>2026-08-28T19:09:27Z</time>
  <course>359.82</course>
  <speed>0.0</speed>
  <fix>3d</fix>
</trkpt>
<trkpt lat="-35.3628811" lon="149.1652219">
  <ele>582.25</ele>
  <time>2026-08-28T19:09:27Z</time>
  <course>93.52</course>
  <speed>0.0282842712474619</speed>
  <fix>3d</fix>
</trkpt>
<trkpt lat="-35.362881" lon="149.165222">
  <ele>582.09</ele>
  <time>2026-08-28T19:09:27Z</time>
  <course>359.7</course>
  <speed>0.0</speed>
  <fix>3d</fix>
</trkpt>
<trkpt lat="-35.3628811" lon="149.1652219">
  <ele>582.25</ele>
  <time>2026-08-28T19:09:27Z</time>
  <course>93.48</course>
  <speed>0.0282842712474619</speed>
  <fix>3d</fix>
</trkpt>
<trkpt lat="-35.362881" lon="149.165222">
  <ele>582.09</ele>
  <time>2026-08-28T19:09:27Z</time>
  <course>359.59</course>
  <speed>0.0</speed>
  <fix>3d</fix>
</trkpt>
<trkpt lat="-35.3628811" lon="149.1652219">
  <ele>582.25</ele>
  <time>2026-08-28T19:09:27Z</time>
  <course>93.43</course>
  <speed>0.0282842712474619</speed>
  <fix>3d</fix>
</trkpt>
<trkpt lat="-35.362881" lon="149.165222">
  <ele>582.09</ele>
  <time>2026-08-28T19:09:27Z</time>
  <course>359.49</course>
  <speed>0.0</speed>
  <fix>3d</fix>
</trkpt>
<trkpt lat="-35.3628811" lon="149.1652219">
  <ele>582.25</ele>
  <time>2026-08-28T19:09:27Z</time>
  <course>93.39</course>
  <speed>0.0282842712474619</speed>
  <fix>3d</fix>
</trkpt>
<trkpt lat="-35.362881" lon="149.165222">
  <ele>582.09</ele>
  <time>2026-08-28T19:09:27Z</time>
  <course>359.48</course>
  <speed>0.0</speed>
  <fix>3d</fix>
</trkpt>
<trkpt lat="-35.3628811" lon="149.1652219">
  <ele>582.26</ele>
  <time>2026-08-28T19:09:27Z</time>
  <course>93.34</course>
  <speed>0.0282842712474619</speed>
  <fix>3d</fix>
</trkpt>
<trkpt lat="-35.362881" lon="149.165222">
  <ele>582.09</ele>
  <time>2026-08-28T19:09:27Z</time>
  <course>359.31</course>
  <speed>0.0</speed>
  <fix>3d</fix>
</trkpt>
<trkpt lat="-35.3628811" lon="149.1652219">
  <ele>582.26</ele>
  <time>2026-08-28T19:09:27Z</time>
  <course>93.29</course>
  <speed>0.0282842712474619</speed>
  <fix>3d</fix>
</trkpt>
<trkpt lat="-35.362881" lon="149.165222">
  <ele>582.09</ele>
  <time>2026-08-28T19:09:27Z</time>
  <course>359.24</course>
  <speed>0.0</speed>
  <fix>3d</fix>
</trkpt>
<trkpt lat="-35.3628811" lon="149.1652218">
  <ele>582.26</ele>
  <time>2026-08-28T19:09:27Z</time>
  <course>93.24</course>
  <speed>0.0282842712474619</speed>
  <fix>3d</fix>
</trkpt>
<trkpt lat="-35.362881" lon="149.165222">
  <ele>582.09</ele>
  <time>2026-08-28T19:09:27Z</time>
  <course>359.11</course>
  <speed>0.0</speed>
  <fix>3d</fix>
</trkpt>
<trkpt lat="-35.3628811" lon="149.1652218">
  <ele>582.26</ele>
  <time>2026-08-28T19:09:27Z</time>
  <course>93.2</course>
  <speed>0.0282842712474619</speed>
  <fix>3d</fix>
</trkpt>
<trkpt lat="-35.362881" lon="149.165222">
  <ele>582.09</ele>
  <time>2026-08-28T19:09:27Z</time>
  <course>359.03</course>
  <speed>0.0</speed>
  <fix>3d</fix>
</trkpt>
<trkpt lat="-35.3628811" lon="149.1652218">
  <ele>582.26</ele>
  <time>2026-08-28T19:09:27Z</time>
  <course>93.15</course>
  <speed>0.0282842712474619</speed>
  <fix>3d</fix>
</trkpt>
<trkpt lat="-35.362881" lon="149.165222">
  <ele>582.09</ele>
  <time>2026-08-28T19:09:27Z</time>
  <course>358.92</course>
  <speed>0.0</speed>
  <fix>3d</fix>
</trkpt>
<trkpt lat="-35.3628811" lon="149.1652218">
  <ele>582.26</ele>
  <time>2026-08-28T19:09:27Z</time>
  <course>93.1</course>
  <speed>0.0282842712474619</speed>
  <fix>3d</fix>
</trkpt>
<trkpt lat="-35.362881" lon="149.165222">
  <ele>582.09</ele>
  <time>2026-08-28T19:09:27Z</time>
  <course>358.83</course>
  <speed>0.0</speed>
  <fix>3d</fix>
</trkpt>
<trkpt lat="-35.3628811" lon="149.1652218">
  <ele>582.26</ele>
  <time>2026-08-28T19:09:27Z</time>
  <course>93.05</course>
  <speed>0.0282842712474619</speed>
  <fix>3d</fix>
</trkpt>
<trkpt lat="-35.362881" lon="149.165222">
  <ele>582.09</ele>
  <time>2026-08-28T19:09:27Z</time>
  <course>358.73</course>
  <speed>0.0</speed>
  <fix>3d</fix>
</trkpt>
<trkpt lat="-35.3628811" lon="149.1652218">
  <ele>582.26</ele>
  <time>2026-08-28T19:09:27Z</time>
  <course>93.0</course>
  <speed>0.0282842712474619</speed>
  <fix>3d</fix>
</trkpt>
<trkpt lat="-35.362881" lon="149.165222">
  <ele>582.09</ele>
  <time>2026-08-28T19:09:27Z</time>
  <course>358.6</course>
  <speed>0.0</speed>
  <fix>3d</fix>
</trkpt>
<trkpt lat="-35.3628811" lon="149.1652218">
  <ele>582.25</ele>
  <time>2026-08-28T19:09:27Z</time>
  <course>92.95</course>
  <speed>0.0282842712474619</speed>
  <fix>3d</fix>
</trkpt>
<trkpt lat="-35.362881" lon="149.165222">
  <ele>582.09</ele>
  <time>2026-08-28T19:09:27Z</time>
  <course>358.48</course>
  <speed>0.0</speed>
  <fix>3d</fix>
</trkpt>
<trkpt lat="-35.3628811" lon="149.1652218">
  <ele>582.25</ele>
  <time>2026-08-28T19:09:27Z</time>
  <course>92.9</course>
  <speed>0.0282842712474619</speed>
  <fix>3d</fix>
</trkpt>
<trkpt lat="-35.362881" lon="149.165222">
  <ele>582.09</ele>
  <time>2026-08-28T19:09:27Z</time>
  <course>358.44</course>
  <speed>0.0</speed>
  <fix>3d</fix>
</trkpt>
<trkpt lat="-35.3628811" lon="149.1652218">
  <ele>582.25</ele>
  <time>2026-08-28T19:09:27Z</time>
  <course>92.85</course>
  <speed>0.0282842712474619</speed>
  <fix>3d</fix>
</trkpt>
<trkpt lat="-35.362881" lon="149.165222">
  <ele>582.09</ele>
  <time>2026-08-28T19:09:27Z</time>
  <course>358.34</course>
  <speed>0.0</speed>
  <fix>3d</fix>
</trkpt>
<trkpt lat="-35.3628811" lon="149.1652218">
  <ele>582.25</ele>
  <time>2026-08-28T19:09:27Z</time>
  <course>92.8</course>
  <speed>0.0282842712474619</speed>
  <fix>3d</fix>
</trkpt>
<trkpt lat="-35.362881" lon="149.165222">
  <ele>582.09</ele>
  <time>2026-08-28T19:09:27Z</time>
  <course>358.25</course>
  <speed>0.0</speed>
  <fix>3d</fix>
</trkpt>
<trkpt lat="-35.3628811" lon="149.1652218">
  <ele>582.25</ele>
  <time>2026-08-28T19:09:27Z</time>
  <course>92.75</course>
  <speed>0.0282842712474619</speed>
  <fix>3d</fix>
</trkpt>
<trkpt lat="-35.362881" lon="149.165222">
  <ele>582.09</ele>
  <time>2026-08-28T19:09:27Z</time>
  <course>358.18</course>
  <speed>0.0</speed>
  <fix>3d</fix>
</trkpt>
<trkpt lat="-35.3628811" lon="149.1652218">
  <ele>582.25</ele>
  <time>2026-08-28T19:09:27Z</time>
  <course>92.71</course>
  <speed>0.0282842712474619</speed>
  <fix>3d</fix>
</trkpt>
<trkpt lat="-35.362881" lon="149.165222">
  <ele>582.09</ele>
  <time>2026-08-28T19:09:27Z</time>
  <course>358.13</course>
  <speed>0.0</speed>
  <fix>3d</fix>
</trkpt>
<trkpt lat="-35.3628811" lon="149.1652218">
  <ele>582.25</ele>
  <time>2026-08-28T19:09:27Z</time>
  <course>92.66</course>
  <speed>0.0282842712474619</speed>
  <fix>3d</fix>
</trkpt>
<trkpt lat="-35.362881" lon="149.165222">
  <ele>582.09</ele>
  <time>2026-08-28T19:09:27Z</time>
  <course>358.06</course>
  <speed>0.0</speed>
  <fix>3d</fix>
</trkpt>
<trkpt lat="-35.3628811" lon="149.1652218">
  <ele>582.24</ele>
  <time>2026-08-28T19:09:27Z</time>
  <course>92.62</course>
  <speed>0.0282842712474619</speed>
  <fix>3d</fix>
</trkpt>
<trkpt lat="-35.362881" lon="149.165222">
  <ele>582.09</ele>
  <time>2026-08-28T19:09:27Z</time>
  <course>358.05</course>
  <speed>0.0</speed>
  <fix>3d</fix>
</trkpt>
<trkpt lat="-35.3628811" lon="149.1652218">
  <ele>582.24</ele>
  <time>2026-08-28T19:09:27Z</time>
  <course>92.57</course>
  <speed>0.022360679774997897</speed>
  <fix>3d</fix>
</trkpt>
<trkpt lat="-35.362881" lon="149.165222">
  <ele>582.09</ele>
  <time>2026-08-28T19:09:27Z</time>
  <course>357.98</course>
  <speed>0.0</speed>
  <fix>3d</fix>
</trkpt>
<trkpt lat="-35.3628811" lon="149.1652218">
  <ele>582.24</ele>
  <time>2026-08-28T19:09:27Z</time>
  <course>92.53</course>
  <speed>0.022360679774997897</speed>
  <fix>3d</fix>
</trkpt>
<trkpt lat="-35.362881" lon="149.165222">
  <ele>582.09</ele>
  <time>2026-08-28T19:09:27Z</time>
  <course>357.95</course>
  <speed>0.0</speed>
  <fix>3d</fix>
</trkpt>
<trkpt lat="-35.3628811" lon="149.1652218">
  <ele>582.24</ele>
  <time>2026-08-28T19:09:27Z</time>
  <course>92.49</course>
  <speed>0.022360679774997897</speed>
  <fix>3d</fix>
</trkpt>
<trkpt lat="-35.362881" lon="149.165222">
  <ele>582.09</ele>
  <time>2026-08-28T19:09:27Z</time>
  <course>357.88</course>
  <speed>0.0</speed>
  <fix>3d</fix>
</trkpt>
<trkpt lat="-35.3628811" lon="149.1652218">
  <ele>582.24</ele>
  <time>2026-08-28T19:09:27Z</time>
  <course>92.44</course>
  <speed>0.022360679774997897</speed>
  <fix>3d</fix>
</trkpt>
<trkpt lat="-35.362881" lon="149.165222">
  <ele>582.09</ele>
  <time>2026-08-28T19:09:27Z</time>
  <course>355.24</course>
  <speed>0.0</speed>
  <fix>3d</fix>
</trkpt>
<trkpt lat="-35.3628811" lon="149.1652218">
  <ele>582.25</ele>
  <time>2026-08-28T19:09:27Z</time>
  <course>92.4</course>
  <speed>0.022360679774997897</speed>
  <fix>3d</fix>
</trkpt>
<trkpt lat="-35.362881" lon="149.165222">
  <ele>582.09</ele>
  <time>2026-08-28T19:09:27Z</time>
  <course>358.14</course>
  <speed>0.0</speed>
  <fix>3d</fix>
</trkpt>
<trkpt lat="-35.3628811" lon="149.1652218">
  <ele>582.25</ele>
  <time>2026-08-28T19:09:27Z</time>
  <course>92.36</course>
  <speed>0.022360679774997897</speed>
  <fix>3d</fix>
</trkpt>
<trkpt lat="-35.362881" lon="149.165222">
  <ele>582.09</ele>
  <time>2026-08-28T19:09:27Z</time>
  <course>1.28</course>
  <speed>0.0</speed>
  <fix>3d</fix>
</trkpt>
<trkpt lat="-35.3628811" lon="149.1652218">
  <ele>582.25</ele>
  <time>2026-08-28T19:09:27Z</time>
  <course>92.32</course>
  <speed>0.022360679774997897</speed>
  <fix>3d</fix>
</trkpt>
<trkpt lat="-35.362881" lon="149.165222">
  <ele>582.09</ele>
  <time>2026-08-28T19:09:27Z</time>
  <course>357.88</course>
  <speed>0.0</speed>
  <fix>3d</fix>
</trkpt>
<trkpt lat="-35.3628811" lon="149.1652218">
  <ele>582.25</ele>
  <time>2026-08-28T19:09:27Z</time>
  <course>92.28</course>
  <speed>0.022360679774997897</speed>
  <fix>3d</fix>
</trkpt>
<trkpt lat="-35.362881" lon="149.165222">
  <ele>582.09</ele>
  <time>2026-08-28T19:09:27Z</time>
  <course>357.11</course>
  <speed>0.0</speed>
  <fix>3d</fix>
</trkpt>
<trkpt lat="-35.3628811" lon="149.1652218">
  <ele>582.25</ele>
  <time>2026-08-28T19:09:27Z</time>
  <course>92.24</course>
  <speed>0.022360679774997897</speed>
  <fix>3d</fix>
</trkpt>
<trkpt lat="-35.362881" lon="149.165222">
  <ele>582.09</ele>
  <time>2026-08-28T19:09:27Z</time>
  <course>357.64</course>
  <speed>0.0</speed>
  <fix>3d</fix>
</trkpt>
<trkpt lat="-35.3628811" lon="149.1652218">
  <ele>582.25</ele>
  <time>2026-08-28T19:09:27Z</time>
  <course>92.2</course>
  <speed>0.022360679774997897</speed>
  <fix>3d</fix>
</trkpt>
<trkpt lat="-35.362881" lon="149.165222">
  <ele>582.09</ele>
  <time>2026-08-28T19:09:27Z</time>
  <course>357.64</course>
  <speed>0.0</speed>
  <fix>3d</fix>
</trkpt>
<trkpt lat="-35.3628811" lon="149.1652218">
  <ele>582.25</ele>
  <time>2026-08-28T19:09:27Z</time>
  <course>92.17</course>
  <speed>0.022360679774997897</speed>
  <fix>3d</fix>
</trkpt>
<trkpt lat="-35.362881" lon="149.165222">
  <ele>582.09</ele>
  <time>2026-08-28T19:09:27Z</time>
  <course>357.65</course>
  <speed>0.0</speed>
  <fix>3d</fix>
</trkpt>
<trkpt lat="-35.3628811" lon="149.1652218">
  <ele>582.25</ele>
  <time>2026-08-28T19:09:27Z</time>
  <course>92.13</course>
  <speed>0.022360679774997897</speed>
  <fix>3d</fix>
</trkpt>
<trkpt lat="-35.362881" lon="149.165222">
  <ele>582.09</ele>
  <time>2026-08-28T19:09:27Z</time>
  <course>357.24</course>
  <speed>0.0</speed>
  <fix>3d</fix>
</trkpt>
<trkpt lat="-35.3628811" lon="149.1652218">
  <ele>582.25</ele>
  <time>2026-08-28T19:09:27Z</time>
  <course>92.09</course>
  <speed>0.022360679774997897</speed>
  <fix>3d</fix>
</trkpt>
<trkpt lat="-35.362881" lon="149.165222">
  <ele>582.09</ele>
  <time>2026-08-28T19:09:27Z</time>
  <course>357.43</course>
  <speed>0.0</speed>
  <fix>3d</fix>
</trkpt>
<trkpt lat="-35.3628811" lon="149.1652218">
  <ele>582.25</ele>
  <time>2026-08-28T19:09:27Z</time>
  <course>92.05</course>
  <speed>0.022360679774997897</speed>
  <fix>3d</fix>
</trkpt>
<trkpt lat="-35.362881" lon="149.165222">
  <ele>582.09</ele>
  <time>2026-08-28T19:09:27Z</time>
  <course>357.46</course>
  <speed>0.0</speed>
  <fix>3d</fix>
</trkpt>
<trkpt lat="-35.3628811" lon="149.1652218">
  <ele>582.25</ele>
  <time>2026-08-28T19:09:27Z</time>
  <course>92.01</course>
  <speed>0.022360679774997897</speed>
  <fix>3d</fix>
</trkpt>
<trkpt lat="-35.362881" lon="149.165222">
  <ele>582.09</ele>
  <time>2026-08-28T19:09:27Z</time>
  <course>357.28</course>
  <speed>0.0</speed>
  <fix>3d</fix>
</trkpt>
<trkpt lat="-35.3628811" lon="149.1652218">
  <ele>582.25</ele>
  <time>2026-08-28T19:09:27Z</time>
  <course>91.98</course>
  <speed>0.022360679774997897</speed>
  <fix>3d</fix>
</trkpt>
<trkpt lat="-35.362881" lon="149.165222">
  <ele>582.09</ele>
  <time>2026-08-28T19:09:27Z</time>
  <course>357.42</course>
  <speed>0.0</speed>
  <fix>3d</fix>
</trkpt>
<trkpt lat="-35.3628811" lon="149.1652218">
  <ele>582.25</ele>
  <time>2026-08-28T19:09:27Z</time>
  <course>91.94</course>
  <speed>0.022360679774997897</speed>
  <fix>3d</fix>
</trkpt>
<trkpt lat="-35.362881" lon="149.165222">
  <ele>582.09</ele>
  <time>2026-08-28T19:09:27Z</time>
  <course>357.19</course>
  <speed>0.0</speed>
  <fix>3d</fix>
</trkpt>
<trkpt lat="-35.3628811" lon="149.1652218">
  <ele>582.25</ele>
  <time>2026-08-28T19:09:27Z</time>
  <course>91.91</course>
  <speed>0.022360679774997897</speed>
  <fix>3d</fix>
</trkpt>
<trkpt lat="-35.362881" lon="149.165222">
  <ele>582.09</ele>
  <time>2026-08-28T19:09:27Z</time>
  <course>357.27</course>
  <speed>0.0</speed>
  <fix>3d</fix>
</trkpt>
<trkpt lat="-35.3628811" lon="149.1652218">
  <ele>582.26</ele>
  <time>2026-08-28T19:09:27Z</time>
  <course>91.87</course>
  <speed>0.022360679774997897</speed>
  <fix>3d</fix>
</trkpt>
<trkpt lat="-35.362881" lon="149.165222">
  <ele>582.09</ele>
  <time>2026-08-28T19:09:27Z</time>
  <course>357.35</course>
  <speed>0.0</speed>
  <fix>3d</fix>
</trkpt>
<trkpt lat="-35.3628811" lon="149.1652218">
  <ele>582.26</ele>
  <time>2026-08-28T19:09:27Z</time>
  <course>91.84</course>
  <speed>0.022360679774997897</speed>
  <fix>3d</fix>
</trkpt>
<trkpt lat="-35.362881" lon="149.165222">
  <ele>582.09</ele>
  <time>2026-08-28T19:09:27Z</time>
  <course>356.85</course>
  <speed>0.0</speed>
  <fix>3d</fix>
</trkpt>
<trkpt lat="-35.3628811" lon="149.1652218">
  <ele>582.26</ele>
  <time>2026-08-28T19:09:27Z</time>
  <course>91.81</course>
  <speed>0.022360679774997897</speed>
  <fix>3d</fix>
</trkpt>
<trkpt lat="-35.362881" lon="149.165222">
  <ele>582.09</ele>
  <time>2026-08-28T19:09:27Z</time>
  <course>357.18</course>
  <speed>0.0</speed>
  <fix>3d</fix>
</trkpt>
<trkpt lat="-35.3628811" lon="149.1652218">
  <ele>582.26</ele>
  <time>2026-08-28T19:09:27Z</time>
  <course>91.78</course>
  <speed>0.022360679774997897</speed>
  <fix>3d</fix>
</trkpt>
<trkpt lat="-35.362881" lon="149.165222">
  <ele>582.09</ele>
  <time>2026-08-28T19:09:27Z</time>
  <course>357.27</course>
  <speed>0.0</speed>
  <fix>3d</fix>
</trkpt>
<trkpt lat="-35.3628811" lon="149.1652218">
  <ele>582.26</ele>
  <time>2026-08-28T19:09:27Z</time>
  <course>91.74</course>
  <speed>0.022360679774997897</speed>
  <fix>3d</fix>
</trkpt>
<trkpt lat="-35.362881" lon="149.165222">
  <ele>582.09</ele>
  <time>2026-08-28T19:09:27Z</time>
  <course>356.86</course>
  <speed>0.0</speed>
  <fix>3d</fix>
</trkpt>
<trkpt lat="-35.3628811" lon="149.1652218">
  <ele>582.26</ele>
  <time>2026-08-28T19:09:27Z</time>
  <course>91.71</course>
  <speed>0.022360679774997897</speed>
  <fix>3d</fix>
</trkpt>
<trkpt lat="-35.362881" lon="149.165222">
  <ele>582.09</ele>
  <time>2026-08-28T19:09:27Z</time>
  <course>357.08</course>
  <speed>0.0</speed>
  <fix>3d</fix>
</trkpt>
<trkpt lat="-35.3628811" lon="149.1652218">
  <ele>582.26</ele>
  <time>2026-08-28T19:09:27Z</time>
  <course>91.68</course>
  <speed>0.022360679774997897</speed>
  <fix>3d</fix>
</trkpt>
<trkpt lat="-35.362881" lon="149.165222">
  <ele>582.09</ele>
  <time>2026-08-28T19:09:27Z</time>
  <course>357.16</course>
  <speed>0.0</speed>
  <fix>3d</fix>
</trkpt>
<trkpt lat="-35.3628811" lon="149.1652218">
  <ele>582.26</ele>
  <time>2026-08-28T19:09:27Z</time>
  <course>91.65</course>
  <speed>0.022360679774997897</speed>
  <fix>3d</fix>
</trkpt>
<trkpt lat="-35.362881" lon="149.165222">
  <ele>582.09</ele>
  <time>2026-08-28T19:09:27Z</time>
  <course>356.75</course>
  <speed>0.0</speed>
  <fix>3d</fix>
</trkpt>
<trkpt lat="-35.3628811" lon="149.1652218">
  <ele>582.26</ele>
  <time>2026-08-28T19:09:27Z</time>
  <course>91.61</course>
  <speed>0.022360679774997897</speed>
  <fix>3d</fix>
</trkpt>
<trkpt lat="-35.362881" lon="149.165222">
  <ele>582.09</ele>
  <time>2026-08-28T19:09:27Z</time>
  <course>356.97</course>
  <speed>0.0</speed>
  <fix>3d</fix>
</trkpt>
<trkpt lat="-35.3628811" lon="149.1652218">
  <ele>582.26</ele>
  <time>2026-08-28T19:09:27Z</time>
  <course>91.58</course>
  <speed>0.022360679774997897</speed>
  <fix>3d</fix>
</trkpt>
<trkpt lat="-35.362881" lon="149.165222">
  <ele>582.09</ele>
  <time>2026-08-28T19:09:27Z</time>
  <course>357.06</course>
  <speed>0.0</speed>
  <fix>3d</fix>
</trkpt>
<trkpt lat="-35.3628811" lon="149.1652218">
  <ele>582.26</ele>
  <time>2026-08-28T19:09:27Z</time>
  <course>91.55</course>
  <speed>0.022360679774997897</speed>
  <fix>3d</fix>
</trkpt>
<trkpt lat="-35.362881" lon="149.165222">
  <ele>582.09</ele>
  <time>2026-08-28T19:09:27Z</time>
  <course>356.68</course>
  <speed>0.0</speed>
  <fix>3d</fix>
</trkpt>
<trkpt lat="-35.3628811" lon="149.1652218">
  <ele>582.26</ele>
  <time>2026-08-28T19:09:27Z</time>
  <course>91.52</course>
  <speed>0.022360679774997897</speed>
  <fix>3d</fix>
</trkpt>
<trkpt lat="-35.362881" lon="149.165222">
  <ele>582.09</ele>
  <time>2026-08-28T19:09:27Z</time>
  <course>356.83</course>
  <speed>0.0</speed>
  <fix>3d</fix>
</trkpt>
<trkpt lat="-35.3628811" lon="149.1652218">
  <ele>582.26</ele>
  <time>2026-08-28T19:09:27Z</time>
  <course>91.5</course>
  <speed>0.022360679774997897</speed>
  <fix>3d</fix>
</trkpt>
<trkpt lat="-35.362881" lon="149.165222">
  <ele>582.09</ele>
  <time>2026-08-28T19:09:27Z</time>
  <course>356.98</course>
  <speed>0.0</speed>
  <fix>3d</fix>
</trkpt>
<trkpt lat="-35.3628811" lon="149.1652218">
  <ele>582.26</ele>
  <time>2026-08-28T19:09:27Z</time>
  <course>91.47</course>
  <speed>0.01414213562373095</speed>
  <fix>3d</fix>
</trkpt>
<trkpt lat="-35.362881" lon="149.165222">
  <ele>582.09</ele>
  <time>2026-08-28T19:09:27Z</time>
  <course>356.75</course>
  <speed>0.0</speed>
  <fix>3d</fix>
</trkpt>
<trkpt lat="-35.3628811" lon="149.1652218">
  <ele>582.26</ele>
  <time>2026-08-28T19:09:27Z</time>
  <course>91.44</course>
  <speed>0.01414213562373095</speed>
  <fix>3d</fix>
</trkpt>
<trkpt lat="-35.362881" lon="149.165222">
  <ele>582.09</ele>
  <time>2026-08-28T19:09:27Z</time>
  <course>356.29</course>
  <speed>0.0</speed>
  <fix>3d</fix>
</trkpt>
<trkpt lat="-35.3628811" lon="149.1652218">
  <ele>582.26</ele>
  <time>2026-08-28T19:09:27Z</time>
  <course>91.41</course>
  <speed>0.01414213562373095</speed>
  <fix>3d</fix>
</trkpt>
<trkpt lat="-35.362881" lon="149.165222">
  <ele>582.09</ele>
  <time>2026-08-28T19:09:27Z</time>
  <course>356.84</course>
  <speed>0.0</speed>
  <fix>3d</fix>
</trkpt>
<trkpt lat="-35.3628811" lon="149.1652218">
  <ele>582.26</ele>
  <time>2026-08-28T19:09:27Z</time>
  <course>91.38</course>
  <speed>0.01414213562373095</speed>
  <fix>3d</fix>
</trkpt>
<trkpt lat="-35.362881" lon="149.165222">
  <ele>582.09</ele>
  <time>2026-08-28T19:09:27Z</time>
  <course>356.85</course>
  <speed>0.0</speed>
  <fix>3d</fix>
</trkpt>
<trkpt lat="-35.3628811" lon="149.1652218">
  <ele>582.26</ele>
  <time>2026-08-28T19:09:27Z</time>
  <course>91.35</course>
  <speed>0.01414213562373095</speed>
  <fix>3d</fix>
</trkpt>
<trkpt lat="-35.362881" lon="149.165222">
  <ele>582.09</ele>
  <time>2026-08-28T19:09:27Z</time>
  <course>356.36</course>
  <speed>0.0</speed>
  <fix>3d</fix>
</trkpt>
<trkpt lat="-35.3628811" lon="149.1652218">
  <ele>582.26</ele>
  <time>2026-08-28T19:09:27Z</time>
  <course>91.32</course>
  <speed>0.01414213562373095</speed>
  <fix>3d</fix>
</trkpt>
<trkpt lat="-35.362881" lon="149.165222">
  <ele>582.09</ele>
  <time>2026-08-28T19:09:27Z</time>
  <course>356.66</course>
  <speed>0.0</speed>
  <fix>3d</fix>
</trkpt>
<trkpt lat="-35.3628811" lon="149.1652218">
  <ele>582.26</ele>
  <time>2026-08-28T19:09:27Z</time>
  <course>91.3</course>
  <speed>0.01414213562373095</speed>
  <fix>3d</fix>
</trkpt>
<trkpt lat="-35.362881" lon="149.165222">
  <ele>582.09</ele>
  <time>2026-08-28T19:09:27Z</time>
  <course>356.78</course>
  <speed>0.0</speed>
  <fix>3d</fix>
</trkpt>
<trkpt lat="-35.3628811" lon="149.1652218">
  <ele>582.27</ele>
  <time>2026-08-28T19:09:27Z</time>
  <course>91.27</course>
  <speed>0.01414213562373095</speed>
  <fix>3d</fix>
</trkpt>
<trkpt lat="-35.362881" lon="149.165222">
  <ele>582.09</ele>
  <time>2026-08-28T19:09:27Z</time>
  <course>356.54</course>
  <speed>0.0</speed>
  <fix>3d</fix>
</trkpt>
<trkpt lat="-35.3628811" lon="149.1652218">
  <ele>582.27</ele>
  <time>2026-08-28T19:09:27Z</time>
  <course>91.24</course>
  <speed>0.01414213562373095</speed>
  <fix>3d</fix>
</trkpt>
<trkpt lat="-35.362881" lon="149.165222">
  <ele>582.09</ele>
  <time>2026-08-28T19:09:27Z</time>
  <course>356.15</course>
  <speed>0.0</speed>
  <fix>3d</fix>
</trkpt>
<trkpt lat="-35.3628811" lon="149.1652218">
  <ele>582.27</ele>
  <time>2026-08-28T19:09:27Z</time>
  <course>91.22</course>
  <speed>0.01414213562373095</speed>
  <fix>3d</fix>
</trkpt>
<trkpt lat="-35.362881" lon="149.165222">
  <ele>582.09</ele>
  <time>2026-08-28T19:09:27Z</time>
  <course>356.66</course>
  <speed>0.0</speed>
  <fix>3d</fix>
</trkpt>
<trkpt lat="-35.3628811" lon="149.1652218">
  <ele>582.27</ele>
  <time>2026-08-28T19:09:27Z</time>
  <course>91.19</course>
  <speed>0.01414213562373095</speed>
  <fix>3d</fix>
</trkpt>
<trkpt lat="-35.362881" lon="149.165222">
  <ele>582.09</ele>
  <time>2026-08-28T19:09:27Z</time>
  <course>356.69</course>
  <speed>0.0</speed>
  <fix>3d</fix>
</trkpt>
<trkpt lat="-35.3628811" lon="149.1652218">
  <ele>582.28</ele>
  <time>2026-08-28T19:09:27Z</time>
  <course>91.17</course>
  <speed>0.01414213562373095</speed>
  <fix>3d</fix>
</trkpt>
<trkpt lat="-35.362881" lon="149.165222">
  <ele>582.09</ele>
  <time>2026-08-28T19:09:27Z</time>
  <course>356.29</course>
  <speed>0.0</speed>
  <fix>3d</fix>
</trkpt>
<trkpt lat="-35.3628811" lon="149.1652218">
  <ele>582.28</ele>
  <time>2026-08-28T19:09:27Z</time>
  <course>91.14</course>
  <speed>0.01414213562373095</speed>
  <fix>3d</fix>
</trkpt>
<trkpt lat="-35.362881" lon="149.165222">
  <ele>582.09</ele>
  <time>2026-08-28T19:09:27Z</time>
  <course>356.19</course>
  <speed>0.0</speed>
  <fix>3d</fix>
</trkpt>
<trkpt lat="-35.3628811" lon="149.1652218">
  <ele>582.28</ele>
  <time>2026-08-28T19:09:27Z</time>
  <course>91.12</course>
  <speed>0.01414213562373095</speed>
  <fix>3d</fix>
</trkpt>
<trkpt lat="-35.362881" lon="149.165222">
  <ele>582.09</ele>
  <time>2026-08-28T19:09:27Z</time>
  <course>356.58</course>
  <speed>0.0</speed>
  <fix>3d</fix>
</trkpt>
<trkpt lat="-35.3628811" lon="149.1652218">
  <ele>582.27</ele>
  <time>2026-08-28T19:09:27Z</time>
  <course>91.09</course>
  <speed>0.01414213562373095</speed>
  <fix>3d</fix>
</trkpt>
<trkpt lat="-35.362881" lon="149.165222">
  <ele>582.09</ele>
  <time>2026-08-28T19:09:27Z</time>
  <course>348.65</course>
  <speed>0.0</speed>
  <fix>3d</fix>
</trkpt>
<trkpt lat="-35.3628811" lon="149.1652218">
  <ele>582.27</ele>
  <time>2026-08-28T19:09:27Z</time>
  <course>91.08</course>
  <speed>0.01414213562373095</speed>
  <fix>3d</fix>
</trkpt>
<trkpt lat="-35.362881" lon="149.165222">
  <ele>582.09</ele>
  <time>2026-08-28T19:09:27Z</time>
  <course>329.05</course>
  <speed>0.0</speed>
  <fix>3d</fix>
</trkpt>
<trkpt lat="-35.3628811" lon="149.1652218">
  <ele>582.27</ele>
  <time>2026-08-28T19:09:27Z</time>
  <course>91.06</course>
  <speed>0.01414213562373095</speed>
  <fix>3d</fix>
</trkpt>
<trkpt lat="-35.362881" lon="149.165222">
  <ele>582.09</ele>
  <time>2026-08-28T19:09:27Z</time>
  <course>355.27</course>
  <speed>0.0</speed>
  <fix>3d</fix>
</trkpt>
<trkpt lat="-35.3628811" lon="149.1652218">
  <ele>582.26</ele>
  <time>2026-08-28T19:09:27Z</time>
  <course>91.04</course>
  <speed>0.01414213562373095</speed>
  <fix>3d</fix>
</trkpt>
<trkpt lat="-35.362881" lon="149.165222">
  <ele>582.09</ele>
  <time>2026-08-28T19:09:27Z</time>
  <course>358.66</course>
  <speed>0.0</speed>
  <fix>3d</fix>
</trkpt>
<trkpt lat="-35.3628811" lon="149.1652218">
  <ele>582.26</ele>
  <time>2026-08-28T19:09:27Z</time>
  <course>91.01</course>
  <speed>0.01414213562373095</speed>
  <fix>3d</fix>
</trkpt>
<trkpt lat="-35.362881" lon="149.165222">
  <ele>582.09</ele>
  <time>2026-08-28T19:09:27Z</time>
  <course>355.58</course>
  <speed>0.0</speed>
  <fix>3d</fix>
</trkpt>
<trkpt lat="-35.3628811" lon="149.1652218">
  <ele>582.26</ele>
  <time>2026-08-28T19:09:27Z</time>
  <course>90.95</course>
  <speed>0.01414213562373095</speed>
  <fix>3d</fix>
</trkpt>
<trkpt lat="-35.362881" lon="149.165222">
  <ele>582.09</ele>
  <time>2026-08-28T19:09:27Z</time>
  <course>355.42</course>
  <speed>0.0</speed>
  <fix>3d</fix>
</trkpt>
<trkpt lat="-35.3628811" lon="149.1652218">
  <ele>582.28</ele>
  <time>2026-08-28T19:09:27Z</time>
  <course>90.89</course>
  <speed>0.01414213562373095</speed>
  <fix>3d</fix>
</trkpt>
<trkpt lat="-35.362881" lon="149.165222">
  <ele>582.11</ele>
  <time>2026-08-28T19:09:27Z</time>
  <course>0.45</course>
  <speed>0.0</speed>
  <fix>3d</fix>
</trkpt>
<trkpt lat="-35.3628811" lon="149.1652218">
  <ele>582.31</ele>
  <time>2026-08-28T19:09:27Z</time>
  <course>90.81</course>
  <speed>0.01414213562373095</speed>
  <fix>3d</fix>
</trkpt>
<trkpt lat="-35.362881" lon="149.165222">
  <ele>582.13</ele>
  <time>2026-08-28T19:09:27Z</time>
  <course>0.89</course>
  <speed>0.0</speed>
  <fix>3d</fix>
</trkpt>
<trkpt lat="-35.3628811" lon="149.1652218">
  <ele>582.36</ele>
  <time>2026-08-28T19:09:27Z</time>
  <course>90.73</course>
  <speed>0.01414213562373095</speed>
  <fix>3d</fix>
</trkpt>
<trkpt lat="-35.362881" lon="149.165222">
  <ele>582.16</ele>
  <time>2026-08-28T19:09:27Z</time>
  <course>358.03</course>
  <speed>0.0</speed>
  <fix>3d</fix>
</trkpt>
<trkpt lat="-35.3628811" lon="149.1652218">
  <ele>582.45</ele>
  <time>2026-08-28T19:09:27Z</time>
  <course>86.32</course>
  <speed>0.044721359549995794</speed>
  <fix>3d</fix>
</trkpt>
<trkpt lat="-35.362881" lon="149.165222">
  <ele>582.21</ele>
  <time>2026-08-28T19:09:27Z</time>
  <course>358.38</course>
  <speed>0.01</speed>
  <fix>3d</fix>
</trkpt>
<trkpt lat="-35.3628809" lon="149.1652218">
  <ele>582.74</ele>
  <time>2026-08-28T19:09:27Z</time>
  <course>83.46</course>
  <speed>0.2109502310972899</speed>
  <fix>3d</fix>
</trkpt>
<trkpt lat="-35.3628809" lon="149.165222">
  <ele>582.38</ele>
  <time>2026-08-28T19:09:27Z</time>
  <course>355.21</course>
  <speed>0.11</speed>
  <fix>3d</fix>
</trkpt>
<trkpt lat="-35.3628804" lon="149.1652218">
  <ele>583.0</ele>
  <time>2026-08-28T19:09:27Z</time>
  <course>82.81</course>
  <speed>0.27166155414412246</speed>
  <fix>3d</fix>
</trkpt>
<trkpt lat="-35.3628805" lon="149.165222">
  <ele>582.65</ele>
  <time>2026-08-28T19:09:27Z</time>
  <course>354.53</course>
  <speed>0.24</speed>
  <fix>3d</fix>
</trkpt>
<trkpt lat="-35.3628799" lon="149.1652218">
  <ele>583.26</ele>
  <time>2026-08-28T19:09:27Z</time>
  <course>81.34</course>
  <speed>0.3026549190084311</speed>
  <fix>3d</fix>
</trkpt>
<trkpt lat="-35.36288" lon="149.1652219">
  <ele>582.91</ele>
  <time>2026-08-28T19:09:27Z</time>
  <course>353.41</course>
  <speed>0.3</speed>
  <fix>3d</fix>
</trkpt>
<trkpt lat="-35.3628793" lon="149.1652217">
  <ele>583.55</ele>
  <time>2026-08-28T19:09:27Z</time>
  <course>80.24</course>
  <speed>0.304138126514911</speed>
  <fix>3d</fix>
</trkpt>
<trkpt lat="-35.3628795" lon="149.1652218">
  <ele>583.18</ele>
  <time>2026-08-28T19:09:27Z</time>
  <course>351.93</course>
  <speed>0.32</speed>
  <fix>3d</fix>
</trkpt>
<trkpt lat="-35.3628788" lon="149.1652216">
  <ele>583.89</ele>
  <time>2026-08-28T19:09:27Z</time>
  <course>79.46</course>
  <speed>0.28442925306655786</speed>
  <fix>3d</fix>
</trkpt>
<trkpt lat="-35.3628789" lon="149.1652217">
  <ele>583.48</ele>
  <time>2026-08-28T19:09:27Z</time>
  <course>351.01</course>
  <speed>0.32</speed>
  <fix>3d</fix>
</trkpt>
<trkpt lat="-35.3628782" lon="149.1652215">
  <ele>584.27</ele>
  <time>2026-08-28T19:09:27Z</time>
  <course>78.76</course>
  <speed>0.24515301344262524</speed>
  <fix>3d</fix>
</trkpt>
<trkpt lat="-35.3628783" lon="149.1652216">
  <ele>583.82</ele>
  <time>2026-08-28T19:09:27Z</time>
  <course>350.85</course>
  <speed>0.29</speed>
  <fix>3d</fix>
</trkpt>
<trkpt lat="-35.3628778" lon="149.1652214">
  <ele>584.69</ele>
  <time>2026-08-28T19:09:27Z</time>
  <course>78.13</course>
  <speed>0.20615528128088303</speed>
  <fix>3d</fix>
</trkpt>
<trkpt lat="-35.3628778" lon="149.1652215">
  <ele>584.2</ele>
  <time>2026-08-28T19:09:27Z</time>
  <course>351.22</course>
  <speed>0.26</speed>
  <fix>3d</fix>
</trkpt>
<trkpt lat="-35.3628774" lon="149.1652213">
  <ele>585.15</ele>
  <time>2026-08-28T19:09:27Z</time>
  <course>77.46</course>
  <speed>0.1649242250247064</speed>
  <fix>3d</fix>
</trkpt>
<trkpt lat="-35.3628774" lon="149.1652214">
  <ele>584.63</ele>
  <time>2026-08-28T19:09:27Z</time>
  <course>351.89</course>
  <speed>0.22</speed>
  <fix>3d</fix>
</trkpt>
<trkpt lat="-35.3628771" lon="149.1652212">
  <ele>585.65</ele>
  <time>2026-08-28T19:09:27Z</time>
  <course>77.06</course>
  <speed>0.1264911064067352</speed>
  <fix>3d</fix>
</trkpt>
<trkpt lat="-35.362877" lon="149.1652214">
  <ele>585.09</ele>
  <time>2026-08-28T19:09:27Z</time>
  <course>352.71</course>
  <speed>0.17</speed>
  <fix>3d</fix>
</trkpt>
<trkpt lat="-35.3628769" lon="149.1652212">
  <ele>586.16</ele>
  <time>2026-08-28T19:09:27Z</time>
  <course>77.24</course>
  <speed>0.08062257748298549</speed>
  <fix>3d</fix>
</trkpt>
<trkpt lat="-35.3628767" lon="149.1652213">
  <ele>585.59</ele>
  <time>2026-08-28T19:09:27Z</time>
  <course>353.98</course>
  <speed>0.13</speed>
  <fix>3d</fix>
</trkpt>
<trkpt lat="-35.3628767" lon="149.1652212">
  <ele>586.68</ele>
  <time>2026-08-28T19:09:28Z</time>
  <course>77.67</course>
  <speed>0.03605551275463989</speed>
  <fix>3d</fix>
</trkpt>
<trkpt lat="-35.3628766" lon="149.1652212">
  <ele>586.1</ele>
  <time>2026-08-28T19:09:28Z</time>
  <course>357.42</course>
  <speed>0.08</speed>
  <fix>3d</fix>
</trkpt>
<trkpt lat="-35.3628767" lon="149.1652212">
  <ele>587.21</ele>
  <time>2026-08-28T19:09:28Z</time>
  <course>78.12</course>
  <speed>0.01</speed>
  <fix>3d</fix>
</trkpt>
<trkpt lat="-35.3628765" lon="149.1652212">
  <ele>586.62</ele>
  <time>2026-08-28T19:09:28Z</time>
  <course>9.69</course>
  <speed>0.03</speed>
  <fix>3d</fix>
</trkpt>
<trkpt lat="-35.3628767" lon="149.1652212">
  <ele>587.73</ele>
  <time>2026-08-28T19:09:28Z</time>
  <course>78.7</course>
  <speed>0.05</speed>
  <fix>3d</fix>
</trkpt>
<trkpt lat="-35.3628765" lon="149.1652213">
  <ele>587.14</ele>
  <time>2026-08-28T19:09:28Z</time>
  <course>117.13</course>
  <speed>0.01</speed>
  <fix>3d</fix>
</trkpt>
<trkpt lat="-35.3628767" lon="149.1652212">
  <ele>588.25</ele>
  <time>2026-08-28T19:09:28Z</time>
  <course>79.3</course>
  <speed>0.09055385138137417</speed>
  <fix>3d</fix>
</trkpt>
<trkpt lat="-35.3628765" lon="149.1652214">
  <ele>587.65</ele>
  <time>2026-08-28T19:09:28Z</time>
  <course>162.09</course>
  <speed>0.05</speed>
  <fix>3d</fix>
</trkpt>
<trkpt lat="-35.3628768" lon="149.1652213">
  <ele>588.76</ele>
  <time>2026-08-28T19:09:28Z</time>
  <course>79.89</course>
  <speed>0.12041594578792296</speed>
  <fix>3d</fix>
</trkpt>
<trkpt lat="-35.3628765" lon="149.1652214">
  <ele>588.16</ele>
  <time>2026-08-28T19:09:28Z</time>
  <course>170.85</course>
  <speed>0.09</speed>
  <fix>3d</fix>
</trkpt>
<trkpt lat="-35.3628771" lon="149.1652213">
  <ele>589.27</ele>
  <time>2026-08-28T19:09:28Z</time>
  <course>80.43</course>
  <speed>0.16031219541881397</speed>
  <fix>3d</fix>
</trkpt>
<trkpt lat="-35.3628767" lon="149.1652214">
  <ele>588.66</ele>
  <time>2026-08-28T19:09:28Z</time>
  <course>174.9</course>
  <speed>0.13</speed>
  <fix>3d</fix>
</trkpt>
<trkpt lat="-35.3628773" lon="149.1652214">
  <ele>589.77</ele>
  <time>2026-08-28T19:09:28Z</time>
  <course>80.97</course>
  <speed>0.18027756377319945</speed>
  <fix>3d</fix>
</trkpt>
<trkpt lat="-35.362877" lon="149.1652214">
  <ele>589.16</ele>
  <time>2026-08-28T19:09:28Z</time>
  <course>177.05</course>
  <speed>0.16</speed>
  <fix>3d</fix>
</trkpt>
<trkpt lat="-35.3628777" lon="149.1652214">
  <ele>590.27</ele>
  <time>2026-08-28T19:09:28Z</time>
  <course>81.49</course>
  <speed>0.2002498439450079</speed>
  <fix>3d</fix>
</trkpt>
<trkpt lat="-35.3628773" lon="149.1652214">
  <ele>589.65</ele>
  <time>2026-08-28T19:09:28Z</time>
  <course>178.19</course>
  <speed>0.19</speed>
  <fix>3d</fix>
</trkpt>
<trkpt lat="-35.362878" lon="149.1652214">
  <ele>590.76</ele>
  <time>2026-08-28T19:09:28Z</time>
  <course>81.96</course>
  <speed>0.22090722034374521</speed>
  <fix>3d</fix>
</trkpt>
<trkpt lat="-35.3628777" lon="149.1652214">
  <ele>590.14</ele>
  <time>2026-08-28T19:09:28Z</time>
  <course>178.82</course>
  <speed>0.21</speed>
  <fix>3d</fix>
</trkpt>
<trkpt lat="-35.3628784" lon="149.1652215">
  <ele>591.26</ele>
  <time>2026-08-28T19:09:28Z</time>
  <course>82.37</course>
  <speed>0.22090722034374521</speed>
  <fix>3d</fix>
</trkpt>
<trkpt lat="-35.3628781" lon="149.1652214">
  <ele>590.64</ele>
  <time>2026-08-28T19:09:28Z</time>
  <course>179.22</course>
  <speed>0.22</speed>
  <fix>3d</fix>
</trkpt>
<trkpt lat="-35.3628788" lon="149.1652215">
  <ele>591.75</ele>
  <time>2026-08-28T19:09:28Z</time>
  <course>82.74</course>
  <speed>0.22090722034374521</speed>
  <fix>3d</fix>
</trkpt>
<trkpt lat="-35.3628785" lon="149.1652214">
  <ele>591.13</ele>
  <time>2026-08-28T19:09:28Z</time>
  <course>179.44</course>
  <speed>0.23</speed>
  <fix>3d</fix>
</trkpt>
<trkpt lat="-35.3628792" lon="149.1652215">
  <ele>592.25</ele>
  <time>2026-08-28T19:09:28Z</time>
  <course>83.08</course>
  <speed>0.22090722034374521</speed>
  <fix>3d</fix>
</trkpt>
<trkpt lat="-35.362879" lon="149.1652214">
  <ele>591.63</ele>
  <time>2026-08-28T19:09:28Z</time>
  <course>179.52</course>
  <speed>0.23</speed>
  <fix>3d</fix>
</trkpt>
<trkpt lat="-35.3628796" lon="149.1652215">
  <ele>592.75</ele>
  <time>2026-08-28T19:09:28Z</time>
  <course>83.45</course>
  <speed>0.2109502310972899</speed>
  <fix>3d</fix>
</trkpt>
<trkpt lat="-35.3628794" lon="149.1652214">
  <ele>592.12</ele>
  <time>2026-08-28T19:09:28Z</time>
  <course>179.5</course>
  <speed>0.22</speed>
  <fix>3d</fix>
</trkpt>
<trkpt lat="-35.36288" lon="149.1652215">
  <ele>593.25</ele>
  <time>2026-08-28T19:09:28Z</time>
  <course>83.79</course>
  <speed>0.191049731745428</speed>
  <fix>3d</fix>
</trkpt>
<trkpt lat="-35.3628798" lon="149.1652214">
  <ele>592.62</ele>
  <time>2026-08-28T19:09:28Z</time>
  <course>179.37</course>
  <speed>0.21</speed>
  <fix>3d</fix>
</trkpt>
<trkpt lat="-35.3628803" lon="149.1652215">
  <ele>593.75</ele>
  <time>2026-08-28T19:09:28Z</time>
  <course>84.12</course>
  <speed>0.1711724276862369</speed>
  <fix>3d</fix>
</trkpt>
<trkpt lat="-35.3628801" lon="149.1652214">
  <ele>593.11</ele>
  <time>2026-08-28T19:09:28Z</time>
  <course>179.08</course>
  <speed>0.19</speed>
  <fix>3d</fix>
</trkpt>
<trkpt lat="-35.3628806" lon="149.1652215">
  <ele>594.25</ele>
  <time>2026-08-28T19:09:28Z</time>
  <course>84.47</course>
  <speed>0.15132745950421556</speed>
  <fix>3d</fix>
</trkpt>
<trkpt lat="-35.3628804" lon="149.1652215">
  <ele>593.61</ele>
  <time>2026-08-28T19:09:28Z</time>
  <course>178.57</course>
  <speed>0.17</speed>
  <fix>3d</fix>
</trkpt>
<trkpt lat="-35.3628809" lon="149.1652215">
  <ele>594.74</ele>
  <time>2026-08-28T19:09:28Z</time>
  <course>84.76</course>
  <speed>0.13341664064126335</speed>
  <fix>3d</fix>
</trkpt>
<trkpt lat="-35.3628807" lon="149.1652215">
  <ele>594.1</ele>
  <time>2026-08-28T19:09:28Z</time>
  <course>177.77</course>
  <speed>0.15</speed>
  <fix>3d</fix>
</trkpt>
<trkpt lat="-35.3628811" lon="149.1652215">
  <ele>595.24</ele>
  <time>2026-08-28T19:09:28Z</time>
  <course>85.04</course>
  <speed>0.11401754250991379</speed>
  <fix>3d</fix>
</trkpt>
<trkpt lat="-35.362881" lon="149.1652215">
  <ele>594.6</ele>
  <time>2026-08-28T19:09:28Z</time>
  <course>176.67</course>
  <speed>0.12</speed>
  <fix>3d</fix>
</trkpt>
<trkpt lat="-35.3628813" lon="149.1652216">
  <ele>595.74</ele>
  <time>2026-08-28T19:09:28Z</time>
  <course>85.32</course>
  <speed>0.0854400374531753</speed>
  <fix>3d</fix>
</trkpt>
<trkpt lat="-35.3628811" lon="149.1652215">
  <ele>595.1</ele>
  <time>2026-08-28T19:09:28Z</time>
  <course>175.11</course>
  <speed>0.1</speed>
  <fix>3d</fix>
</trkpt>
<trkpt lat="-35.3628814" lon="149.1652216">
  <ele>596.24</ele>
  <time>2026-08-28T19:09:28Z</time>
  <course>85.58</course>
  <speed>0.0670820393249937</speed>
  <fix>3d</fix>
</trkpt>
<trkpt lat="-35.3628813" lon="149.1652215">
  <ele>595.6</ele>
  <time>2026-08-28T19:09:28Z</time>
  <course>172.55</course>
  <speed>0.07</speed>
  <fix>3d</fix>
</trkpt>
<trkpt lat="-35.3628815" lon="149.1652216">
  <ele>596.73</ele>
  <time>2026-08-28T19:09:28Z</time>
  <course>85.85</course>
  <speed>0.05</speed>
  <fix>3d</fix>
</trkpt>
<trkpt lat="-35.3628814" lon="149.1652215">
  <ele>596.09</ele>
  <time>2026-08-28T19:09:28Z</time>
  <course>168.04</course>
  <speed>0.05</speed>
  <fix>3d</fix>
</trkpt>
<trkpt lat="-35.3628815" lon="149.1652216">
  <ele>597.23</ele>
  <time>2026-08-28T19:09:28Z</time>
  <course>86.12</course>
  <speed>0.03605551275463989</speed>
  <fix>3d</fix>
</trkpt>
<trkpt lat="-35.3628815" lon="149.1652216">
  <ele>596.59</ele>
  <time>2026-08-28T19:09:28Z</time>
  <course>158.54</course>
  <speed>0.03</speed>
  <fix>3d</fix>
</trkpt>
<trkpt lat="-35.3628816" lon="149.1652217">
  <ele>597.73</ele>
  <time>2026-08-28T19:09:28Z</time>
  <course>86.38</course>
  <speed>0.0316227766016838</speed>
  <fix>3d</fix>
</trkpt>
<trkpt lat="-35.3628816" lon="149.1652216">
  <ele>597.1</ele>
  <time>2026-08-28T19:09:28Z</time>
  <course>134.76</course>
  <speed>0.02</speed>
  <fix>3d</fix>
</trkpt>
<trkpt lat="-35.3628816" lon="149.1652217">
  <ele>598.23</ele>
  <time>2026-08-28T19:09:28Z</time>
  <course>86.63</course>
  <speed>0.03</speed>
  <fix>3d</fix>
</trkpt>
<trkpt lat="-35.3628816" lon="149.1652216">
  <ele>597.6</ele>
  <time>2026-08-28T19:09:28Z</time>
  <course>84.7</course>
  <speed>0.01</speed>
  <fix>3d</fix>
</trkpt>
<trkpt lat="-35.3628815" lon="149.1652217">
  <ele>598.74</ele>
  <time>2026-08-28T19:09:28Z</time>
  <course>86.88</course>
  <speed>0.0316227766016838</speed>
  <fix>3d</fix>
</trkpt>
<trkpt lat="-35.3628816" lon="149.1652217">
  <ele>598.1</ele>
  <time>2026-08-28T19:09:28Z</time>
  <course>48.77</course>
  <speed>0.02</speed>
  <fix>3d</fix>
</trkpt>
<trkpt lat="-35.3628815" lon="149.1652218">
  <ele>599.24</ele>
  <time>2026-08-28T19:09:28Z</time>
  <course>87.13</course>
  <speed>0.0316227766016838</speed>
  <fix>3d</fix>
</trkpt>
<trkpt lat="-35.3628816" lon="149.1652217">
  <ele>598.6</ele>
  <time>2026-08-28T19:09:28Z</time>
  <course>34.18</course>
  <speed>0.03</speed>
  <fix>3d</fix>
</trkpt>
<trkpt lat="-35.3628815" lon="149.1652218">
  <ele>599.74</ele>
  <time>2026-08-28T19:09:28Z</time>
  <course>87.4</course>
  <speed>0.03605551275463989</speed>
  <fix>3d</fix>
</trkpt>
<trkpt lat="-35.3628816" lon="149.1652217">
  <ele>599.1</ele>
  <time>2026-08-28T19:09:28Z</time>
  <course>27.59</course>
  <speed>0.04</speed>
  <fix>3d</fix>
</trkpt>
<trkpt lat="-35.3628815" lon="149.1652218">
  <ele>600.24</ele>
  <time>2026-08-28T19:09:28Z</time>
  <course>87.62</course>
  <speed>0.0282842712474619</speed>
  <fix>3d</fix>
</trkpt>
<trkpt lat="-35.3628815" lon="149.1652217">
  <ele>599.59</ele>
  <time>2026-08-28T19:09:28Z</time>
  <course>24.3</course>
  <speed>0.04</speed>
  <fix>3d</fix>
</trkpt>
<trkpt lat="-35.3628814" lon="149.1652219">
  <ele>600.74</ele>
  <time>2026-08-28T19:09:28Z</time>
  <course>87.84</course>
  <speed>0.0282842712474619</speed>
  <fix>3d</fix>
</trkpt>
<trkpt lat="-35.3628814" lon="149.1652218">
  <ele>600.09</ele>
  <time>2026-08-28T19:09:28Z</time>
  <course>22.71</course>
  <speed>0.05</speed>
  <fix>3d</fix>
</trkpt>
<trkpt lat="-35.3628814" lon="149.1652219">
  <ele>601.24</ele>
  <time>2026-08-28T19:09:28Z</time>
  <course>88.06</course>
  <speed>0.0282842712474619</speed>
  <fix>3d</fix>
</trkpt>
<trkpt lat="-35.3628813" lon="149.1652219">
  <ele>600.59</ele>
  <time>2026-08-28T19:09:28Z</time>
  <course>21.85</course>
  <speed>0.05</speed>
  <fix>3d</fix>
</trkpt>
<trkpt lat="-35.3628813" lon="149.1652219">
  <ele>601.74</ele>
  <time>2026-08-28T19:09:28Z</time>
  <course>88.22</course>
  <speed>0.0282842712474619</speed>
  <fix>3d</fix>
</trkpt>
<trkpt lat="-35.3628812" lon="149.1652219">
  <ele>601.09</ele>
  <time>2026-08-28T19:09:28Z</time>
  <course>21.61</course>
  <speed>0.05</speed>
  <fix>3d</fix>
</trkpt>
<trkpt lat="-35.3628812" lon="149.165222">
  <ele>602.23</ele>
  <time>2026-08-28T19:09:28Z</time>
  <course>88.42</course>
  <speed>0.0282842712474619</speed>
  <fix>3d</fix>
</trkpt>
<trkpt lat="-35.3628811" lon="149.1652219">
  <ele>601.59</ele>
  <time>2026-08-28T19:09:28Z</time>
  <course>21.76</course>
  <speed>0.05</speed>
  <fix>3d</fix>
</trkpt>
<trkpt lat="-35.3628811" lon="149.165222">
  <ele>602.73</ele>
  <time>2026-08-28T19:09:28Z</time>
  <course>88.56</course>
  <speed>0.022360679774997897</speed>
  <fix>3d</fix>
</trkpt>
<trkpt lat="-35.362881" lon="149.165222">
  <ele>602.09</ele>
  <time>2026-08-28T19:09:28Z</time>
  <course>22.07</course>
  <speed>0.05</speed>
  <fix>3d</fix>
</trkpt>
<trkpt lat="-35.3628811" lon="149.165222">
  <ele>603.24</ele>
  <time>2026-08-28T19:09:28Z</time>
  <course>88.71</course>
  <speed>0.01414213562373095</speed>
  <fix>3d</fix>
</trkpt>
<trkpt lat="-35.362881" lon="149.165222">
  <ele>602.59</ele>
  <time>2026-08-28T19:09:28Z</time>
  <course>22.49</course>
  <speed>0.04</speed>
  <fix>3d</fix>
</trkpt>
<trkpt lat="-35.362881" lon="149.165222">
  <ele>603.74</ele>
  <time>2026-08-28T19:09:28Z</time>
  <course>88.9</course>
  <speed>0.01414213562373095</speed>
  <fix>3d</fix>
</trkpt>
<trkpt lat="-35.3628809" lon="149.1652221">
  <ele>603.08</ele>
  <time>2026-08-28T19:09:28Z</time>
  <course>23.25</course>
  <speed>0.04</speed>
  <fix>3d</fix>
</trkpt>
<trkpt lat="-35.3628809" lon="149.1652221">
  <ele>604.24</ele>
  <time>2026-08-28T19:09:28Z</time>
  <course>89.03</course>
  <speed>0.0</speed>
  <fix>3d</fix>
</trkpt>
<trkpt lat="-35.3628808" lon="149.1652221">
  <ele>603.58</ele>
  <time>2026-08-28T19:09:28Z</time>
  <course>25.04</course>
  <speed>0.03</speed>
  <fix>3d</fix>
</trkpt>
<trkpt lat="-35.3628809" lon="149.1652221">
  <ele>604.74</ele>
  <time>2026-08-28T19:09:28Z</time>
  <course>89.18</course>
  <speed>0.0</speed>
  <fix>3d</fix>
</trkpt>
<trkpt lat="-35.3628808" lon="149.1652222">
  <ele>604.08</ele>
  <time>2026-08-28T19:09:28Z</time>
  <course>27.2</course>
  <speed>0.03</speed>
  <fix>3d</fix>
</trkpt>
<trkpt lat="-35.3628809" lon="149.1652221">
  <ele>605.24</ele>
  <time>2026-08-28T19:09:28Z</time>
  <course>89.33</course>
  <speed>0.0</speed>
  <fix>3d</fix>
</trkpt>
<trkpt lat="-35.3628807" lon="149.1652222">
  <ele>604.58</ele>
  <time>2026-08-28T19:09:28Z</time>
  <course>29.43</course>
  <speed>0.02</speed>
  <fix>3d</fix>
</trkpt>
<trkpt lat="-35.3628808" lon="149.1652221">
  <ele>605.74</ele>
  <time>2026-08-28T19:09:28Z</time>
  <course>89.47</course>
  <speed>0.01</speed>
  <fix>3d</fix>
</trkpt>
<trkpt lat="-35.3628807" lon="149.1652222">
  <ele>605.08</ele>
  <time>2026-08-28T19:09:28Z</time>
  <course>32.02</course>
  <speed>0.02</speed>
  <fix>3d</fix>
</trkpt>
<trkpt lat="-35.3628808" lon="149.1652221">
  <ele>606.24</ele>
  <time>2026-08-28T19:09:28Z</time>
  <course>89.58</course>
  <speed>0.01</speed>
  <fix>3d</fix>
</trkpt>
<trkpt lat="-35.3628807" lon="149.1652222">
  <ele>605.58</ele>
  <time>2026-08-28T19:09:28Z</time>
  <course>35.45</course>
  <speed>0.01</speed>
  <fix>3d</fix>
</trkpt>
<trkpt lat="-35.3628808" lon="149.1652221">
  <ele>606.74</ele>
  <time>2026-08-28T19:09:28Z</time>
  <course>89.7</course>
  <speed>0.02</speed>
  <fix>3d</fix>
</trkpt>
<trkpt lat="-35.3628807" lon="149.1652222">
  <ele>606.08</ele>
  <time>2026-08-28T19:09:28Z</time>
  <course>43.06</course>
  <speed>0.01</speed>
  <fix>3d</fix>
</trkpt>
<trkpt lat="-35.3628808" lon="149.1652222">
  <ele>607.23</ele>
  <time>2026-08-28T19:09:28Z</time>
  <course>89.8</course>
  <speed>0.02</speed>
  <fix>3d</fix>
</trkpt>
<trkpt lat="-35.3628807" lon="149.1652222">
  <ele>606.57</ele>
  <time>2026-08-28T19:09:28Z</time>
  <course>60.14</course>
  <speed>0.0</speed>
  <fix>3d</fix>
</trkpt>
<trkpt lat="-35.3628808" lon="149.1652222">
  <ele>607.73</ele>
  <time>2026-08-28T19:09:28Z</time>
  <course>89.89</course>
  <speed>0.022360679774997897</speed>
  <fix>3d</fix>
</trkpt>
<trkpt lat="-35.3628807" lon="149.1652222">
  <ele>607.07</ele>
  <time>2026-08-28T19:09:28Z</time>
  <course>97.24</course>
  <speed>0.0</speed>
  <fix>3d</fix>
</trkpt>
<trkpt lat="-35.3628808" lon="149.1652222">
  <ele>608.23</ele>
  <time>2026-08-28T19:09:28Z</time>
  <course>89.99</course>
  <speed>0.0316227766016838</speed>
  <fix>3d</fix>
</trkpt>
<trkpt lat="-35.3628807" lon="149.1652222">
  <ele>607.57</ele>
  <time>2026-08-28T19:09:28Z</time>
  <course>141.48</course>
  <speed>0.0</speed>
  <fix>3d</fix>
</trkpt>
<trkpt lat="-35.3628808" lon="149.1652222">
  <ele>608.73</ele>
  <time>2026-08-28T19:09:28Z</time>
  <course>90.06</course>
  <speed>0.0316227766016838</speed>
  <fix>3d</fix>
</trkpt>
<trkpt lat="-35.3628807" lon="149.1652222">
  <ele>608.07</ele>
  <time>2026-08-28T19:09:28Z</time>
  <course>162.68</course>
  <speed>0.0</speed>
  <fix>3d</fix>
</trkpt>
<trkpt lat="-35.3628808" lon="149.1652222">
  <ele>609.23</ele>
  <time>2026-08-28T19:09:28Z</time>
  <course>90.16</course>
  <speed>0.0316227766016838</speed>
  <fix>3d</fix>
</trkpt>
<trkpt lat="-35.3628807" lon="149.1652222">
  <ele>608.57</ele>
  <time>2026-08-28T19:09:28Z</time>
  <course>170.72</course>
  <speed>0.0</speed>
  <fix>3d</fix>
</trkpt>
<trkpt lat="-35.3628808" lon="149.1652222">
  <ele>609.74</ele>
  <time>2026-08-28T19:09:28Z</time>
  <course>90.26</course>
  <speed>0.0316227766016838</speed>
  <fix>3d</fix>
</trkpt>
<trkpt lat="-35.3628807" lon="149.1652222">
  <ele>609.07</ele>
  <time>2026-08-28T19:09:28Z</time>
  <course>173.3</course>
  <speed>0.0</speed>
  <fix>3d</fix>
</trkpt>
<trkpt lat="-35.3628808" lon="149.1652222">
  <ele>610.24</ele>
  <time>2026-08-28T19:09:28Z</time>
  <course>90.36</course>
  <speed>0.0316227766016838</speed>
  <fix>3d</fix>
</trkpt>
<trkpt lat="-35.3628807" lon="149.1652222">
  <ele>609.57</ele>
  <time>2026-08-28T19:09:28Z</time>
  <course>174.08</course>
  <speed>0.0</speed>
  <fix>3d</fix>
</trkpt>
<trkpt lat="-35.3628809" lon="149.1652222">
  <ele>610.74</ele>
  <time>2026-08-28T19:09:28Z</time>
  <course>90.45</course>
  <speed>0.0316227766016838</speed>
  <fix>3d</fix>
</trkpt>
<trkpt lat="-35.3628807" lon="149.1652222">
  <ele>610.07</ele>
  <time>2026-08-28T19:09:28Z</time>
  <course>173.25</course>
  <speed>0.0</speed>
  <fix>3d</fix>
</trkpt>
<trkpt lat="-35.3628809" lon="149.1652221">
  <ele>611.24</ele>
  <time>2026-08-28T19:09:28Z</time>
  <course>90.52</course>
  <speed>0.0316227766016838</speed>
  <fix>3d</fix>
</trkpt>
<trkpt lat="-35.3628807" lon="149.1652222">
  <ele>610.57</ele>
  <time>2026-08-28T19:09:28Z</time>
  <course>172.28</course>
  <speed>0.0</speed>
  <fix>3d</fix>
</trkpt>
<trkpt lat="-35.3628809" lon="149.1652221">
  <ele>611.74</ele>
  <time>2026-08-28T19:09:28Z</time>
  <course>90.59</course>
  <speed>0.0316227766016838</speed>
  <fix>3d</fix>
</trkpt>
<trkpt lat="-35.3628807" lon="149.1652222">
  <ele>611.07</ele>
  <time>2026-08-28T19:09:28Z</time>
  <course>171.28</course>
  <speed>0.0</speed>
  <fix>3d</fix>
</trkpt>
<trkpt lat="-35.3628809" lon="149.1652221">
  <ele>612.24</ele>
  <time>2026-08-28T19:09:28Z</time>
  <course>90.67</course>
  <speed>0.0316227766016838</speed>
  <fix>3d</fix>
</trkpt>
<trkpt lat="-35.3628807" lon="149.1652222">
  <ele>611.57</ele>
  <time>2026-08-28T19:09:28Z</time>
  <course>169.02</course>
  <speed>0.0</speed>
  <fix>3d</fix>
</trkpt>
<trkpt lat="-35.3628809" lon="149.1652221">
  <ele>612.74</ele>
  <time>2026-08-28T19:09:28Z</time>
  <course>90.74</course>
  <speed>0.03605551275463989</speed>
  <fix>3d</fix>
</trkpt>
<trkpt lat="-35.3628807" lon="149.1652222">
  <ele>612.07</ele>
  <time>2026-08-28T19:09:28Z</time>
  <course>166.84</course>
  <speed>0.0</speed>
  <fix>3d</fix>
</trkpt>
<trkpt lat="-35.3628809" lon="149.1652221">
  <ele>613.24</ele>
  <time>2026-08-28T19:09:28Z</time>
  <course>90.81</course>
  <speed>0.0316227766016838</speed>
  <fix>3d</fix>
</trkpt>
<trkpt lat="-35.3628807" lon="149.1652222">
  <ele>612.57</ele>
  <time>2026-08-28T19:09:28Z</time>
  <course>165.07</course>
  <speed>0.0</speed>
  <fix>3d</fix>
</trkpt>
<trkpt lat="-35.3628809" lon="149.1652221">
  <ele>613.74</ele>
  <time>2026-08-28T19:09:28Z</time>
  <course>90.88</course>
  <speed>0.0316227766016838</speed>
  <fix>3d</fix>
</trkpt>
<trkpt lat="-35.3628807" lon="149.1652222">
  <ele>613.07</ele>
  <time>2026-08-28T19:09:28Z</time>
  <course>162.52</course>
  <speed>0.0</speed>
  <fix>3d</fix>
</trkpt>
<trkpt lat="-35.3628809" lon="149.1652221">
  <ele>614.23</ele>
  <time>2026-08-28T19:09:28Z</time>
  <course>90.93</course>
  <speed>0.022360679774997897</speed>
  <fix>3d</fix>
</trkpt>
<trkpt lat="-35.3628807" lon="149.1652223">
  <ele>613.56</ele>
  <time>2026-08-28T19:09:28Z</time>
  <course>159.09</course>
  <speed>0.0</speed>
  <fix>3d</fix>
</trkpt>
<trkpt lat="-35.3628809" lon="149.1652221">
  <ele>614.73</ele>
  <time>2026-08-28T19:09:28Z</time>
  <course>91.0</course>
  <speed>0.022360679774997897</speed>
  <fix>3d</fix>
</trkpt>
<trkpt lat="-35.3628807" lon="149.1652224">
  <ele>614.06</ele>
  <time>2026-08-28T19:09:28Z</time>
  <course>154.78</course>
  <speed>0.0</speed>
  <fix>3d</fix>
</trkpt>
<trkpt lat="-35.3628809" lon="149.1652221">
  <ele>615.23</ele>
  <time>2026-08-28T19:09:28Z</time>
  <course>91.07</course>
  <speed>0.022360679774997897</speed>
  <fix>3d</fix>
</trkpt>
<trkpt lat="-35.3628807" lon="149.1652224">
  <ele>614.56</ele>
  <time>2026-08-28T19:09:28Z</time>
  <course>151.17</course>
  <speed>0.0</speed>
  <fix>3d</fix>
</trkpt>
<trkpt lat="-35.3628809" lon="149.1652222">
  <ele>615.72</ele>
  <time>2026-08-28T19:09:28Z</time>
  <course>91.09</course>
  <speed>0.022360679774997897</speed>
  <fix>3d</fix>
</trkpt>
<trkpt lat="-35.3628808" lon="149.1652224">
  <ele>615.06</ele>
  <time>2026-08-28T19:09:28Z</time>
  <course>152.57</course>
  <speed>0.0</speed>
  <fix>3d</fix>
</trkpt>
<trkpt lat="-35.3628809" lon="149.1652222">
  <ele>616.23</ele>
  <time>2026-08-28T19:09:28Z</time>
  <course>91.14</course>
  <speed>0.022360679774997897</speed>
  <fix>3d</fix>
</trkpt>
<trkpt lat="-35.3628808" lon="149.1652224">
  <ele>615.56</ele>
  <time>2026-08-28T19:09:28Z</time>
  <course>159.02</course>
  <speed>0.0</speed>
  <fix>3d</fix>
</trkpt>
<trkpt lat="-35.3628809" lon="149.1652222">
  <ele>616.72</ele>
  <time>2026-08-28T19:09:28Z</time>
  <course>91.2</course>
  <speed>0.0282842712474619</speed>
  <fix>3d</fix>
</trkpt>
<trkpt lat="-35.3628808" lon="149.1652224">
  <ele>616.06</ele>
  <time>2026-08-28T19:09:28Z</time>
  <course>170.22</course>
  <speed>0.0</speed>
  <fix>3d</fix>
</trkpt>
<trkpt lat="-35.3628809" lon="149.1652222">
  <ele>617.23</ele>
  <time>2026-08-28T19:09:28Z</time>
  <course>91.26</course>
  <speed>0.0282842712474619</speed>
  <fix>3d</fix>
</trkpt>
<trkpt lat="-35.3628808" lon="149.1652224">
  <ele>616.56</ele>
  <time>2026-08-28T19:09:28Z</time>
  <course>184.01</course>
  <speed>0.0</speed>
  <fix>3d</fix>
</trkpt>
<trkpt lat="-35.362881" lon="149.1652222">
  <ele>617.73</ele>
  <time>2026-08-28T19:09:28Z</time>
  <course>91.33</course>
  <speed>0.0282842712474619</speed>
  <fix>3d</fix>
</trkpt>
<trkpt lat="-35.3628808" lon="149.1652224">
  <ele>617.07</ele>
  <time>2026-08-28T19:09:28Z</time>
  <course>194.71</course>
  <speed>0.0</speed>
  <fix>3d</fix>
</trkpt>
<trkpt lat="-35.362881" lon="149.1652222">
  <ele>618.23</ele>
  <time>2026-08-28T19:09:28Z</time>
  <course>91.42</course>
  <speed>0.0282842712474619</speed>
  <fix>3d</fix>
</trkpt>
<trkpt lat="-35.3628808" lon="149.1652224">
  <ele>617.57</ele>
  <time>2026-08-28T19:09:28Z</time>
  <course>203.91</course>
  <speed>0.0</speed>
  <fix>3d</fix>
</trkpt>
<trkpt lat="-35.362881" lon="149.1652222">
  <ele>618.74</ele>
  <time>2026-08-28T19:09:28Z</time>
  <course>91.48</course>
  <speed>0.0282842712474619</speed>
  <fix>3d</fix>
</trkpt>
<trkpt lat="-35.3628809" lon="149.1652224">
  <ele>618.07</ele>
  <time>2026-08-28T19:09:28Z</time>
  <course>212.1</course>
  <speed>0.0</speed>
  <fix>3d</fix>
</trkpt>
<trkpt lat="-35.362881" lon="149.1652222">
  <ele>619.25</ele>
  <time>2026-08-28T19:09:28Z</time>
  <course>91.54</course>
  <speed>0.0282842712474619</speed>
  <fix>3d</fix>
</trkpt>
<trkpt lat="-35.3628809" lon="149.1652224">
  <ele>618.57</ele>
  <time>2026-08-28T19:09:28Z</time>
  <course>219.33</course>
  <speed>0.0</speed>
  <fix>3d</fix>
</trkpt>
<trkpt lat="-35.362881" lon="149.1652222">
  <ele>619.75</ele>
  <time>2026-08-28T19:09:28Z</time>
  <course>91.59</course>
  <speed>0.0282842712474619</speed>
  <fix>3d</fix>
</trkpt>
<trkpt lat="-35.3628809" lon="149.1652224">
  <ele>619.08</ele>
  <time>2026-08-28T19:09:28Z</time>
  <course>226.67</course>
  <speed>0.0</speed>
  <fix>3d</fix>
</trkpt>
<trkpt lat="-35.362881" lon="149.1652222">
  <ele>620.26</ele>
  <time>2026-08-28T19:09:28Z</time>
  <course>91.69</course>
  <speed>0.0282842712474619</speed>
  <fix>3d</fix>
</trkpt>
<trkpt lat="-35.3628809" lon="149.1652224">
  <ele>619.57</ele>
  <time>2026-08-28T19:09:28Z</time>
  <course>233.67</course>
  <speed>0.0</speed>
  <fix>3d</fix>
</trkpt>
<trkpt lat="-35.362881" lon="149.1652222">
  <ele>620.76</ele>
  <time>2026-08-28T19:09:28Z</time>
  <course>91.75</course>
  <speed>0.0282842712474619</speed>
  <fix>3d</fix>
</trkpt>
<trkpt lat="-35.3628809" lon="149.1652224">
  <ele>620.07</ele>
  <time>2026-08-28T19:09:28Z</time>
  <course>238.88</course>
  <speed>0.0</speed>
  <fix>3d</fix>
</trkpt>
<trkpt lat="-35.362881" lon="149.1652222">
  <ele>621.25</ele>
  <time>2026-08-28T19:09:28Z</time>
  <course>91.79</course>
  <speed>0.0282842712474619</speed>
  <fix>3d</fix>
</trkpt>
<trkpt lat="-35.3628809" lon="149.1652224">
  <ele>620.57</ele>
  <time>2026-08-28T19:09:28Z</time>
  <course>240.56</course>
  <speed>0.01</speed>
  <fix>3d</fix>
</trkpt>
<trkpt lat="-35.362881" lon="149.1652221">
  <ele>621.74</ele>
  <time>2026-08-28T19:09:28Z</time>
  <course>91.82</course>
  <speed>0.0282842712474619</speed>
  <fix>3d</fix>
</trkpt>
<trkpt lat="-35.3628809" lon="149.1652224">
  <ele>621.06</ele>
  <time>2026-08-28T19:09:28Z</time>
  <course>242.11</course>
  <speed>0.01</speed>
  <fix>3d</fix>
</trkpt>
<trkpt lat="-35.362881" lon="149.1652221">
  <ele>622.24</ele>
  <time>2026-08-28T19:09:28Z</time>
  <course>91.84</course>
  <speed>0.0282842712474619</speed>
  <fix>3d</fix>
</trkpt>
<trkpt lat="-35.3628809" lon="149.1652223">
  <ele>621.56</ele>
  <time>2026-08-28T19:09:28Z</time>
  <course>244.4</course>
  <speed>0.0</speed>
  <fix>3d</fix>
</trkpt>
<trkpt lat="-35.362881" lon="149.1652221">
  <ele>622.74</ele>
  <time>2026-08-28T19:09:28Z</time>
  <course>91.89</course>
  <speed>0.0282842712474619</speed>
  <fix>3d</fix>
</trkpt>
<trkpt lat="-35.3628809" lon="149.1652222">
  <ele>622.06</ele>
  <time>2026-08-28T19:09:28Z</time>
  <course>246.08</course>
  <speed>0.0</speed>
  <fix>3d</fix>
</trkpt>
<trkpt lat="-35.362881" lon="149.1652221">
  <ele>623.24</ele>
  <time>2026-08-28T19:09:28Z</time>
  <course>91.93</course>
  <speed>0.022360679774997897</speed>
  <fix>3d</fix>
</trkpt>
<trkpt lat="-35.362881" lon="149.1652222">
  <ele>622.56</ele>
  <time>2026-08-28T19:09:28Z</time>
  <course>247.61</course>
  <speed>0.0</speed>
  <fix>3d</fix>
</trkpt>
<trkpt lat="-35.362881" lon="149.1652221">
  <ele>623.74</ele>
  <time>2026-08-28T19:09:28Z</time>
  <course>91.98</course>
  <speed>0.022360679774997897</speed>
  <fix>3d</fix>
</trkpt>
<trkpt lat="-35.362881" lon="149.1652222">
  <ele>623.06</ele>
  <time>2026-08-28T19:09:28Z</time>
  <course>249.28</course>
  <speed>0.0</speed>
  <fix>3d</fix>
</trkpt>
<trkpt lat="-35.362881" lon="149.1652221">
  <ele>624.24</ele>
  <time>2026-08-28T19:09:28Z</time>
  <course>92.03</course>
  <speed>0.022360679774997897</speed>
  <fix>3d</fix>
</trkpt>
<trkpt lat="-35.362881" lon="149.1652222">
  <ele>623.55</ele>
  <time>2026-08-28T19:09:28Z</time>
  <course>251.5</course>
  <speed>0.0</speed>
  <fix>3d</fix>
</trkpt>
<trkpt lat="-35.362881" lon="149.165222">
  <ele>624.74</ele>
  <time>2026-08-28T19:09:28Z</time>
  <course>92.07</course>
  <speed>0.022360679774997897</speed>
  <fix>3d</fix>
</trkpt>
<trkpt lat="-35.362881" lon="149.1652222">
  <ele>624.05</ele>
  <time>2026-08-28T19:09:28Z</time>
  <course>253.92</course>
  <speed>0.0</speed>
  <fix>3d</fix>
</trkpt>
<trkpt lat="-35.362881" lon="149.165222">
  <ele>625.23</ele>
  <time>2026-08-28T19:09:28Z</time>
  <course>92.12</course>
  <speed>0.022360679774997897</speed>
  <fix>3d</fix>
</trkpt>
<trkpt lat="-35.362881" lon="149.1652222">
  <ele>624.55</ele>
  <time>2026-08-28T19:09:28Z</time>
  <course>256.39</course>
  <speed>0.0</speed>
  <fix>3d</fix>
</trkpt>
<trkpt lat="-35.3628811" lon="149.165222">
  <ele>625.73</ele>
  <time>2026-08-28T19:09:28Z</time>
  <course>92.15</course>
  <speed>0.022360679774997897</speed>
  <fix>3d</fix>
</trkpt>
<trkpt lat="-35.362881" lon="149.1652222">
  <ele>625.05</ele>
  <time>2026-08-28T19:09:28Z</time>
  <course>258.7</course>
  <speed>0.0</speed>
  <fix>3d</fix>
</trkpt>
<trkpt lat="-35.3628811" lon="149.165222">
  <ele>626.23</ele>
  <time>2026-08-28T19:09:28Z</time>
  <course>92.18</course>
  <speed>0.022360679774997897</speed>
  <fix>3d</fix>
</trkpt>
<trkpt lat="-35.362881" lon="149.1652222">
  <ele>625.55</ele>
  <time>2026-08-28T19:09:28Z</time>
  <course>268.8</course>
  <speed>0.0</speed>
  <fix>3d</fix>
</trkpt>
<trkpt lat="-35.3628811" lon="149.165222">
  <ele>626.73</ele>
  <time>2026-08-28T19:09:28Z</time>
  <course>92.22</course>
  <speed>0.022360679774997897</speed>
  <fix>3d</fix>
</trkpt>
<trkpt lat="-35.362881" lon="149.1652222">
  <ele>626.05</ele>
  <time>2026-08-28T19:09:28Z</time>
  <course>319.07</course>
  <speed>0.0</speed>
  <fix>3d</fix>
</trkpt>
<trkpt lat="-35.3628811" lon="149.165222">
  <ele>627.23</ele>
  <time>2026-08-28T19:09:28Z</time>
  <course>92.23</course>
  <speed>0.01414213562373095</speed>
  <fix>3d</fix>
</trkpt>
<trkpt lat="-35.362881" lon="149.1652222">
  <ele>626.55</ele>
  <time>2026-08-28T19:09:28Z</time>
  <course>2.7</course>
  <speed>0.0</speed>
  <fix>3d</fix>
</trkpt>
<trkpt lat="-35.362881" lon="149.165222">
  <ele>627.73</ele>
  <time>2026-08-28T19:09:28Z</time>
  <course>92.27</course>
  <speed>0.01414213562373095</speed>
  <fix>3d</fix>
</trkpt>
<trkpt lat="-35.362881" lon="149.1652222">
  <ele>627.05</ele>
  <time>2026-08-28T19:09:28Z</time>
  <course>16.98</course>
  <speed>0.0</speed>
  <fix>3d</fix>
</trkpt>
<trkpt lat="-35.362881" lon="149.165222">
  <ele>628.23</ele>
  <time>2026-08-28T19:09:28Z</time>
  <course>92.34</course>
  <speed>0.01414213562373095</speed>
  <fix>3d</fix>
</trkpt>
<trkpt lat="-35.362881" lon="149.1652222">
  <ele>627.55</ele>
  <time>2026-08-28T19:09:28Z</time>
  <course>21.81</course>
  <speed>0.0</speed>
  <fix>3d</fix>
</trkpt>
<trkpt lat="-35.362881" lon="149.165222">
  <ele>628.73</ele>
  <time>2026-08-28T19:09:28Z</time>
  <course>92.39</course>
  <speed>0.01414213562373095</speed>
  <fix>3d</fix>
</trkpt>
<trkpt lat="-35.362881" lon="149.1652222">
  <ele>628.06</ele>
  <time>2026-08-28T19:09:28Z</time>
  <course>25.27</course>
  <speed>0.0</speed>
  <fix>3d</fix>
</trkpt>
<trkpt lat="-35.362881" lon="149.165222">
  <ele>629.24</ele>
  <time>2026-08-28T19:09:28Z</time>
  <course>92.41</course>
  <speed>0.01414213562373095</speed>
  <fix>3d</fix>
</trkpt>
<trkpt lat="-35.362881" lon="149.1652222">
  <ele>628.56</ele>
  <time>2026-08-28T19:09:28Z</time>
  <course>29.66</course>
  <speed>0.0</speed>
  <fix>3d</fix>
</trkpt>
<trkpt lat="-35.362881" lon="149.1652221">
  <ele>629.74</ele>
  <time>2026-08-28T19:09:28Z</time>
  <course>92.45</course>
  <speed>0.01414213562373095</speed>
  <fix>3d</fix>
</trkpt>
<trkpt lat="-35.362881" lon="149.1652222">
  <ele>629.06</ele>
  <time>2026-08-28T19:09:28Z</time>
  <course>32.44</course>
  <speed>0.0</speed>
  <fix>3d</fix>
</trkpt>
<trkpt lat="-35.362881" lon="149.1652221">
  <ele>630.24</ele>
  <time>2026-08-28T19:09:28Z</time>
  <course>92.48</course>
  <speed>0.01414213562373095</speed>
  <fix>3d</fix>
</trkpt>
<trkpt lat="-35.362881" lon="149.1652222">
  <ele>629.56</ele>
  <time>2026-08-28T19:09:28Z</time>
  <course>32.64</course>
  <speed>0.0</speed>
  <fix>3d</fix>
</trkpt>
<trkpt lat="-35.362881" lon="149.1652221">
  <ele>630.74</ele>
  <time>2026-08-28T19:09:28Z</time>
  <course>92.52</course>
  <speed>0.01414213562373095</speed>
  <fix>3d</fix>
</trkpt>
<trkpt lat="-35.362881" lon="149.1652222">
  <ele>630.06</ele>
  <time>2026-08-28T19:09:28Z</time>
  <course>32.12</course>
  <speed>0.0</speed>
  <fix>3d</fix>
</trkpt>
<trkpt lat="-35.362881" lon="149.1652221">
  <ele>631.24</ele>
  <time>2026-08-28T19:09:28Z</time>
  <course>92.57</course>
  <speed>0.01414213562373095</speed>
  <fix>3d</fix>
</trkpt>
<trkpt lat="-35.362881" lon="149.1652222">
  <ele>630.56</ele>
  <time>2026-08-28T19:09:28Z</time>
  <course>32.02</course>
  <speed>0.0</speed>
  <fix>3d</fix>
</trkpt>
<trkpt lat="-35.362881" lon="149.1652221">
  <ele>631.74</ele>
  <time>2026-08-28T19:09:28Z</time>
  <course>92.6</course>
  <speed>0.01414213562373095</speed>
  <fix>3d</fix>
</trkpt>
<trkpt lat="-35.362881" lon="149.1652222">
  <ele>631.06</ele>
  <time>2026-08-28T19:09:28Z</time>
  <course>33.6</course>
  <speed>0.0</speed>
  <fix>3d</fix>
</trkpt>
<trkpt lat="-35.362881" lon="149.1652221">
  <ele>632.23</ele>
  <time>2026-08-28T19:09:28Z</time>
  <course>92.63</course>
  <speed>0.01414213562373095</speed>
  <fix>3d</fix>
</trkpt>
<trkpt lat="-35.362881" lon="149.1652222">
  <ele>631.56</ele>
  <time>2026-08-28T19:09:28Z</time>
  <course>35.52</course>
  <speed>0.0</speed>
  <fix>3d</fix>
</trkpt>
<trkpt lat="-35.362881" lon="149.1652221">
  <ele>632.73</ele>
  <time>2026-08-28T19:09:28Z</time>
  <course>92.63</course>
  <speed>0.01414213562373095</speed>
  <fix>3d</fix>
</trkpt>
<trkpt lat="-35.362881" lon="149.1652222">
  <ele>632.06</ele>
  <time>2026-08-28T19:09:28Z</time>
  <course>39.34</course>
  <speed>0.0</speed>
  <fix>3d</fix>
</trkpt>
<trkpt lat="-35.362881" lon="149.1652221">
  <ele>633.23</ele>
  <time>2026-08-28T19:09:28Z</time>
  <course>92.67</course>
  <speed>0.01414213562373095</speed>
  <fix>3d</fix>
</trkpt>
<trkpt lat="-35.362881" lon="149.1652222">
  <ele>632.56</ele>
  <time>2026-08-28T19:09:28Z</time>
  <course>42.02</course>
  <speed>0.0</speed>
  <fix>3d</fix>
</trkpt>
<trkpt lat="-35.362881" lon="149.1652221">
  <ele>633.73</ele>
  <time>2026-08-28T19:09:28Z</time>
  <course>92.7</course>
  <speed>0.022360679774997897</speed>
  <fix>3d</fix>
</trkpt>
<trkpt lat="-35.362881" lon="149.1652222">
  <ele>633.06</ele>
  <time>2026-08-28T19:09:28Z</time>
  <course>40.84</course>
  <speed>0.0</speed>
  <fix>3d</fix>
</trkpt>
<trkpt lat="-35.362881" lon="149.1652221">
  <ele>634.24</ele>
  <time>2026-08-28T19:09:28Z</time>
  <course>92.74</course>
  <speed>0.022360679774997897</speed>
  <fix>3d</fix>
</trkpt>
<trkpt lat="-35.3628809" lon="149.1652222">
  <ele>633.56</ele>
  <time>2026-08-28T19:09:28Z</time>
  <course>41.04</course>
  <speed>0.0</speed>
  <fix>3d</fix>
</trkpt>
<trkpt lat="-35.362881" lon="149.1652221">
  <ele>634.74</ele>
  <time>2026-08-28T19:09:28Z</time>
  <course>92.78</course>
  <speed>0.022360679774997897</speed>
  <fix>3d</fix>
</trkpt>
<trkpt lat="-35.3628809" lon="149.1652222">
  <ele>634.07</ele>
  <time>2026-08-28T19:09:28Z</time>
  <course>40.67</course>
  <speed>0.0</speed>
  <fix>3d</fix>
</trkpt>
<trkpt lat="-35.362881" lon="149.1652221">
  <ele>635.24</ele>
  <time>2026-08-28T19:09:28Z</time>
  <course>92.81</course>
  <speed>0.022360679774997897</speed>
  <fix>3d</fix>
</trkpt>
<trkpt lat="-35.3628809" lon="149.1652222">
  <ele>634.57</ele>
  <time>2026-08-28T19:09:28Z</time>
  <course>38.27</course>
  <speed>0.0</speed>
  <fix>3d</fix>
</trkpt>
<trkpt lat="-35.362881" lon="149.1652221">
  <ele>635.74</ele>
  <time>2026-08-28T19:09:28Z</time>
  <course>92.85</course>
  <speed>0.022360679774997897</speed>
  <fix>3d</fix>
</trkpt>
<trkpt lat="-35.3628809" lon="149.1652222">
  <ele>635.07</ele>
  <time>2026-08-28T19:09:28Z</time>
  <course>36.6</course>
  <speed>0.0</speed>
  <fix>3d</fix>
</trkpt>
<trkpt lat="-35.362881" lon="149.1652221">
  <ele>636.24</ele>
  <time>2026-08-28T19:09:28Z</time>
  <course>92.87</course>
  <speed>0.022360679774997897</speed>
  <fix>3d</fix>
</trkpt>
<trkpt lat="-35.3628809" lon="149.1652222">
  <ele>635.57</ele>
  <time>2026-08-28T19:09:28Z</time>
  <course>35.46</course>
  <speed>0.0</speed>
  <fix>3d</fix>
</trkpt>
<trkpt lat="-35.362881" lon="149.1652221">
  <ele>636.73</ele>
  <time>2026-08-28T19:09:28Z</time>
  <course>92.88</course>
  <speed>0.022360679774997897</speed>
  <fix>3d</fix>
</trkpt>
<trkpt lat="-35.3628809" lon="149.1652222">
  <ele>636.07</ele>
  <time>2026-08-28T19:09:28Z</time>
  <course>35.37</course>
  <speed>0.0</speed>
  <fix>3d</fix>
</trkpt>
<trkpt lat="-35.362881" lon="149.1652221">
  <ele>637.23</ele>
  <time>2026-08-28T19:09:28Z</time>
  <course>92.92</course>
  <speed>0.022360679774997897</speed>
  <fix>3d</fix>
</trkpt>
<trkpt lat="-35.3628809" lon="149.1652222">
  <ele>636.57</ele>
  <time>2026-08-28T19:09:28Z</time>
  <course>40.2</course>
  <speed>0.0</speed>
  <fix>3d</fix>
</trkpt>
<trkpt lat="-35.362881" lon="149.1652221">
  <ele>637.73</ele>
  <time>2026-08-28T19:09:28Z</time>
  <course>92.91</course>
  <speed>0.022360679774997897</speed>
  <fix>3d</fix>
</trkpt>
<trkpt lat="-35.3628809" lon="149.1652222">
  <ele>637.07</ele>
  <time>2026-08-28T19:09:28Z</time>
  <course>62.74</course>
  <speed>0.0</speed>
  <fix>3d</fix>
</trkpt>
<trkpt lat="-35.362881" lon="149.1652221">
  <ele>638.22</ele>
  <time>2026-08-28T19:09:28Z</time>
  <course>92.92</course>
  <speed>0.022360679774997897</speed>
  <fix>3d</fix>
</trkpt>
<trkpt lat="-35.3628809" lon="149.1652222">
  <ele>637.57</ele>
  <time>2026-08-28T19:09:28Z</time>
  <course>98.75</course>
  <speed>0.0</speed>
  <fix>3d</fix>
</trkpt>
<trkpt lat="-35.362881" lon="149.1652221">
  <ele>638.72</ele>
  <time>2026-08-28T19:09:28Z</time>
  <course>92.95</course>
  <speed>0.022360679774997897</speed>
  <fix>3d</fix>
</trkpt>
<trkpt lat="-35.3628809" lon="149.1652222">
  <ele>638.07</ele>
  <time>2026-08-28T19:09:28Z</time>
  <course>116.65</course>
  <speed>0.0</speed>
  <fix>3d</fix>
</trkpt>
<trkpt lat="-35.362881" lon="149.1652221">
  <ele>639.23</ele>
  <time>2026-08-28T19:09:28Z</time>
  <course>92.97</course>
  <speed>0.022360679774997897</speed>
  <fix>3d</fix>
</trkpt>
<trkpt lat="-35.3628809" lon="149.1652222">
  <ele>638.57</ele>
  <time>2026-08-28T19:09:28Z</time>
  <course>123.23</course>
  <speed>0.0</speed>
  <fix>3d</fix>
</trkpt>
<trkpt lat="-35.362881" lon="149.1652221">
  <ele>639.73</ele>
  <time>2026-08-28T19:09:28Z</time>
  <course>93.01</course>
  <speed>0.022360679774997897</speed>
  <fix>3d</fix>
</trkpt>
<trkpt lat="-35.3628809" lon="149.1652222">
  <ele>639.08</ele>
  <time>2026-08-28T19:09:28Z</time>
  <course>126.11</course>
  <speed>0.0</speed>
  <fix>3d</fix>
</trkpt>
<trkpt lat="-35.362881" lon="149.1652221">
  <ele>640.23</ele>
  <time>2026-08-28T19:09:28Z</time>
  <course>93.04</course>
  <speed>0.0282842712474619</speed>
  <fix>3d</fix>
</trkpt>
<trkpt lat="-35.3628809" lon="149.1652222">
  <ele>639.58</ele>
  <time>2026-08-28T19:09:28Z</time>
  <course>129.41</course>
  <speed>0.0</speed>
  <fix>3d</fix>
</trkpt>
<trkpt lat="-35.362881" lon="149.1652221">
  <ele>640.73</ele>
  <time>2026-08-28T19:09:28Z</time>
  <course>93.09</course>
  <speed>0.0282842712474619</speed>
  <fix>3d</fix>
</trkpt>
<trkpt lat="-35.3628809" lon="149.1652222">
  <ele>640.08</ele>
  <time>2026-08-28T19:09:28Z</time>
  <course>132.7</course>
  <speed>0.0</speed>
  <fix>3d</fix>
</trkpt>
<trkpt lat="-35.362881" lon="149.1652221">
  <ele>641.24</ele>
  <time>2026-08-28T19:09:28Z</time>
  <course>93.08</course>
  <speed>0.022360679774997897</speed>
  <fix>3d</fix>
</trkpt>
<trkpt lat="-35.3628809" lon="149.1652222">
  <ele>640.59</ele>
  <time>2026-08-28T19:09:28Z</time>
  <course>134.78</course>
  <speed>0.0</speed>
  <fix>3d</fix>
</trkpt>
<trkpt lat="-35.362881" lon="149.1652221">
  <ele>641.74</ele>
  <time>2026-08-28T19:09:28Z</time>
  <course>93.13</course>
  <speed>0.022360679774997897</speed>
  <fix>3d</fix>
</trkpt>
<trkpt lat="-35.3628809" lon="149.1652222">
  <ele>641.09</ele>
  <time>2026-08-28T19:09:28Z</time>
  <course>135.71</course>
  <speed>0.0</speed>
  <fix>3d</fix>
</trkpt>
<trkpt lat="-35.362881" lon="149.1652221">
  <ele>642.24</ele>
  <time>2026-08-28T19:09:29Z</time>
  <course>93.16</course>
  <speed>0.022360679774997897</speed>
  <fix>3d</fix>
</trkpt>
<trkpt lat="-35.3628809" lon="149.1652222">
  <ele>641.59</ele>
  <time>2026-08-28T19:09:29Z</time>
  <course>137.28</course>
  <speed>0.0</speed>
  <fix>3d</fix>
</trkpt>
<trkpt lat="-35.362881" lon="149.1652221">
  <ele>642.74</ele>
  <time>2026-08-28T19:09:29Z</time>
  <course>93.17</course>
  <speed>0.022360679774997897</speed>
  <fix>3d</fix>
</trkpt>
<trkpt lat="-35.3628809" lon="149.1652223">
  <ele>642.09</ele>
  <time>2026-08-28T19:09:29Z</time>
  <course>139.65</course>
  <speed>0.0</speed>
  <fix>3d</fix>
</trkpt>
<trkpt lat="-35.362881" lon="149.1652221">
  <ele>643.25</ele>
  <time>2026-08-28T19:09:29Z</time>
  <course>93.2</course>
  <speed>0.022360679774997897</speed>
  <fix>3d</fix>
</trkpt>
<trkpt lat="-35.3628809" lon="149.1652224">
  <ele>642.59</ele>
  <time>2026-08-28T19:09:29Z</time>
  <course>141.67</course>
  <speed>0.0</speed>
  <fix>3d</fix>
</trkpt>
<trkpt lat="-35.362881" lon="149.1652221">
  <ele>643.75</ele>
  <time>2026-08-28T19:09:29Z</time>
  <course>93.22</course>
  <speed>0.022360679774997897</speed>
  <fix>3d</fix>
</trkpt>
<trkpt lat="-35.3628809" lon="149.1652224">
  <ele>643.09</ele>
  <time>2026-08-28T19:09:29Z</time>
  <course>143.4</course>
  <speed>0.0</speed>
  <fix>3d</fix>
</trkpt>
<trkpt lat="-35.362881" lon="149.1652221">
  <ele>644.26</ele>
  <time>2026-08-28T19:09:29Z</time>
  <course>93.26</course>
  <speed>0.022360679774997897</speed>
  <fix>3d</fix>
</trkpt>
<trkpt lat="-35.3628809" lon="149.1652224">
  <ele>643.59</ele>
  <time>2026-08-28T19:09:29Z</time>
  <course>144.25</course>
  <speed>0.0</speed>
  <fix>3d</fix>
</trkpt>
<trkpt lat="-35.362881" lon="149.1652221">
  <ele>644.76</ele>
  <time>2026-08-28T19:09:29Z</time>
  <course>93.27</course>
  <speed>0.022360679774997897</speed>
  <fix>3d</fix>
</trkpt>
<trkpt lat="-35.3628809" lon="149.1652224">
  <ele>644.09</ele>
  <time>2026-08-28T19:09:29Z</time>
  <course>151.66</course>
  <speed>0.0</speed>
  <fix>3d</fix>
</trkpt>
<trkpt lat="-35.362881" lon="149.1652221">
  <ele>645.26</ele>
  <time>2026-08-28T19:09:29Z</time>
  <course>93.35</course>
  <speed>0.022360679774997897</speed>
  <fix>3d</fix>
</trkpt>
<trkpt lat="-35.3628809" lon="149.1652224">
  <ele>644.59</ele>
  <time>2026-08-28T19:09:29Z</time>
  <course>167.72</course>
  <speed>0.0</speed>
  <fix>3d</fix>
</trkpt>
<trkpt lat="-35.362881" lon="149.1652221">
  <ele>645.76</ele>
  <time>2026-08-28T19:09:29Z</time>
  <course>93.36</course>
  <speed>0.022360679774997897</speed>
  <fix>3d</fix>
</trkpt>
<trkpt lat="-35.3628809" lon="149.1652224">
  <ele>645.08</ele>
  <time>2026-08-28T19:09:29Z</time>
  <course>185.93</course>
  <speed>0.0</speed>
  <fix>3d</fix>
</trkpt>
<trkpt lat="-35.362881" lon="149.1652221">
  <ele>646.26</ele>
  <time>2026-08-28T19:09:29Z</time>
  <course>93.36</course>
  <speed>0.022360679774997897</speed>
  <fix>3d</fix>
</trkpt>
<trkpt lat="-35.3628809" lon="149.1652224">
  <ele>645.58</ele>
  <time>2026-08-28T19:09:29Z</time>
  <course>199.06</course>
  <speed>0.0</speed>
  <fix>3d</fix>
</trkpt>
<trkpt lat="-35.362881" lon="149.1652221">
  <ele>646.76</ele>
  <time>2026-08-28T19:09:29Z</time>
  <course>93.37</course>
  <speed>0.022360679774997897</speed>
  <fix>3d</fix>
</trkpt>
<trkpt lat="-35.3628809" lon="149.1652224">
  <ele>646.07</ele>
  <time>2026-08-28T19:09:29Z</time>
  <course>209.09</course>
  <speed>0.0</speed>
  <fix>3d</fix>
</trkpt>
<trkpt lat="-35.362881" lon="149.1652221">
  <ele>647.25</ele>
  <time>2026-08-28T19:09:29Z</time>
  <course>93.36</course>
  <speed>0.022360679774997897</speed>
  <fix>3d</fix>
</trkpt>
<trkpt lat="-35.3628809" lon="149.1652224">
  <ele>646.57</ele>
  <time>2026-08-28T19:09:29Z</time>
  <course>215.72</course>
  <speed>0.0</speed>
  <fix>3d</fix>
</trkpt>
<trkpt lat="-35.362881" lon="149.1652221">
  <ele>647.75</ele>
  <time>2026-08-28T19:09:29Z</time>
  <course>93.4</course>
  <speed>0.022360679774997897</speed>
  <fix>3d</fix>
</trkpt>
<trkpt lat="-35.3628809" lon="149.1652224">
  <ele>647.06</ele>
  <time>2026-08-28T19:09:29Z</time>
  <course>221.44</course>
  <speed>0.0</speed>
  <fix>3d</fix>
</trkpt>
<trkpt lat="-35.362881" lon="149.1652221">
  <ele>648.25</ele>
  <time>2026-08-28T19:09:29Z</time>
  <course>93.39</course>
  <speed>0.022360679774997897</speed>
  <fix>3d</fix>
</trkpt>
<trkpt lat="-35.362881" lon="149.1652224">
  <ele>647.56</ele>
  <time>2026-08-28T19:09:29Z</time>
  <course>226.44</course>
  <speed>0.0</speed>
  <fix>3d</fix>
</trkpt>
<trkpt lat="-35.362881" lon="149.1652221">
  <ele>648.75</ele>
  <time>2026-08-28T19:09:29Z</time>
  <course>93.41</course>
  <speed>0.022360679774997897</speed>
  <fix>3d</fix>
</trkpt>
<trkpt lat="-35.362881" lon="149.1652224">
  <ele>648.06</ele>
  <time>2026-08-28T19:09:29Z</time>
  <course>230.19</course>
  <speed>0.01</speed>
  <fix>3d</fix>
</trkpt>
<trkpt lat="-35.362881" lon="149.1652221">
  <ele>649.24</ele>
  <time>2026-08-28T19:09:29Z</time>
  <course>93.42</course>
  <speed>0.022360679774997897</speed>
  <fix>3d</fix>
</trkpt>
<trkpt lat="-35.362881" lon="149.1652224">
  <ele>648.56</ele>
  <time>2026-08-28T19:09:29Z</time>
  <course>234.33</course>
  <speed>0.01</speed>
  <fix>3d</fix>
</trkpt>
<trkpt lat="-35.3628811" lon="149.1652221">
  <ele>649.74</ele>
  <time>2026-08-28T19:09:29Z</time>
  <course>93.43</course>
  <speed>0.022360679774997897</speed>
  <fix>3d</fix>
</trkpt>
<trkpt lat="-35.362881" lon="149.1652224">
  <ele>649.05</ele>
  <time>2026-08-28T19:09:29Z</time>
  <course>236.77</course>
  <speed>0.01</speed>
  <fix>3d</fix>
</trkpt>
<trkpt lat="-35.3628811" lon="149.1652221">
  <ele>650.24</ele>
  <time>2026-08-28T19:09:29Z</time>
  <course>93.45</course>
  <speed>0.022360679774997897</speed>
  <fix>3d</fix>
</trkpt>
<trkpt lat="-35.362881" lon="149.1652224">
  <ele>649.55</ele>
  <time>2026-08-28T19:09:29Z</time>
  <course>239.01</course>
  <speed>0.01</speed>
  <fix>3d</fix>
</trkpt>
<trkpt lat="-35.3628811" lon="149.1652221">
  <ele>650.73</ele>
  <time>2026-08-28T19:09:29Z</time>
  <course>93.46</course>
  <speed>0.022360679774997897</speed>
  <fix>3d</fix>
</trkpt>
<trkpt lat="-35.362881" lon="149.1652223">
  <ele>650.05</ele>
  <time>2026-08-28T19:09:29Z</time>
  <course>241.3</course>
  <speed>0.01</speed>
  <fix>3d</fix>
</trkpt>
<trkpt lat="-35.3628811" lon="149.1652221">
  <ele>651.22</ele>
  <time>2026-08-28T19:09:29Z</time>
  <course>93.48</course>
  <speed>0.0316227766016838</speed>
  <fix>3d</fix>
</trkpt>
<trkpt lat="-35.362881" lon="149.1652222">
  <ele>650.55</ele>
  <time>2026-08-28T19:09:29Z</time>
  <course>246.98</course>
  <speed>0.01</speed>
  <fix>3d</fix>
</trkpt>
<trkpt lat="-35.3628811" lon="149.1652221">
  <ele>651.72</ele>
  <time>2026-08-28T19:09:29Z</time>
  <course>93.44</course>
  <speed>0.0316227766016838</speed>
  <fix>3d</fix>
</trkpt>
<trkpt lat="-35.362881" lon="149.1652222">
  <ele>651.05</ele>
  <time>2026-08-28T19:09:29Z</time>
  <course>255.47</course>
  <speed>0.01</speed>
  <fix>3d</fix>
</trkpt>
<trkpt lat="-35.3628811" lon="149.165222">
  <ele>652.22</ele>
  <time>2026-08-28T19:09:29Z</time>
  <course>93.47</course>
  <speed>0.022360679774997897</speed>
  <fix>3d</fix>
</trkpt>
<trkpt lat="-35.362881" lon="149.1652222">
  <ele>651.55</ele>
  <time>2026-08-28T19:09:29Z</time>
  <course>264.2</course>
  <speed>0.0</speed>
  <fix>3d</fix>
</trkpt>
<trkpt lat="-35.3628811" lon="149.165222">
  <ele>652.73</ele>
  <time>2026-08-28T19:09:29Z</time>
  <course>93.49</course>
  <speed>0.022360679774997897</speed>
  <fix>3d</fix>
</trkpt>
<trkpt lat="-35.362881" lon="149.1652222">
  <ele>652.05</ele>
  <time>2026-08-28T19:09:29Z</time>
  <course>273.33</course>
  <speed>0.0</speed>
  <fix>3d</fix>
</trkpt>
<trkpt lat="-35.3628811" lon="149.165222">
  <ele>653.23</ele>
  <time>2026-08-28T19:09:29Z</time>
  <course>93.52</course>
  <speed>0.022360679774997897</speed>
  <fix>3d</fix>
</trkpt>
<trkpt lat="-35.362881" lon="149.1652222">
  <ele>652.56</ele>
  <time>2026-08-28T19:09:29Z</time>
  <course>281.24</course>
  <speed>0.0</speed>
  <fix>3d</fix>
</trkpt>
<trkpt lat="-35.3628811" lon="149.165222">
  <ele>653.73</ele>
  <time>2026-08-28T19:09:29Z</time>
  <course>93.5</course>
  <speed>0.022360679774997897</speed>
  <fix>3d</fix>
</trkpt>
<trkpt lat="-35.362881" lon="149.1652222">
  <ele>653.06</ele>
  <time>2026-08-28T19:09:29Z</time>
  <course>289.65</course>
  <speed>0.0</speed>
  <fix>3d</fix>
</trkpt>
<trkpt lat="-35.3628811" lon="149.165222">
  <ele>654.23</ele>
  <time>2026-08-28T19:09:29Z</time>
  <course>93.55</course>
  <speed>0.022360679774997897</speed>
  <fix>3d</fix>
</trkpt>
<trkpt lat="-35.362881" lon="149.1652222">
  <ele>653.56</ele>
  <time>2026-08-28T19:09:29Z</time>
  <course>300.1</course>
  <speed>0.0</speed>
  <fix>3d</fix>
</trkpt>
<trkpt lat="-35.3628811" lon="149.165222">
  <ele>654.74</ele>
  <time>2026-08-28T19:09:29Z</time>
  <course>93.57</course>
  <speed>0.022360679774997897</speed>
  <fix>3d</fix>
</trkpt>
<trkpt lat="-35.362881" lon="149.1652222">
  <ele>654.07</ele>
  <time>2026-08-28T19:09:29Z</time>
  <course>310.49</course>
  <speed>0.0</speed>
  <fix>3d</fix>
</trkpt>
<trkpt lat="-35.3628811" lon="149.165222">
  <ele>655.24</ele>
  <time>2026-08-28T19:09:29Z</time>
  <course>93.58</course>
  <speed>0.022360679774997897</speed>
  <fix>3d</fix>
</trkpt>
<trkpt lat="-35.362881" lon="149.1652222">
  <ele>654.57</ele>
  <time>2026-08-28T19:09:29Z</time>
  <course>321.88</course>
  <speed>0.0</speed>
  <fix>3d</fix>
</trkpt>
<trkpt lat="-35.3628811" lon="149.165222">
  <ele>655.75</ele>
  <time>2026-08-28T19:09:29Z</time>
  <course>93.6</course>
  <speed>0.022360679774997897</speed>
  <fix>3d</fix>
</trkpt>
<trkpt lat="-35.362881" lon="149.1652222">
  <ele>655.07</ele>
  <time>2026-08-28T19:09:29Z</time>
  <course>339.27</course>
  <speed>0.0</speed>
  <fix>3d</fix>
</trkpt>
<trkpt lat="-35.3628811" lon="149.165222">
  <ele>656.25</ele>
  <time>2026-08-28T19:09:29Z</time>
  <course>93.61</course>
  <speed>0.022360679774997897</speed>
  <fix>3d</fix>
</trkpt>
<trkpt lat="-35.362881" lon="149.1652222">
  <ele>655.57</ele>
  <time>2026-08-28T19:09:29Z</time>
  <course>359.24</course>
  <speed>0.0</speed>
  <fix>3d</fix>
</trkpt>
<trkpt lat="-35.3628811" lon="149.165222">
  <ele>656.75</ele>
  <time>2026-08-28T19:09:29Z</time>
  <course>93.64</course>
  <speed>0.01414213562373095</speed>
  <fix>3d</fix>
</trkpt>
<trkpt lat="-35.362881" lon="149.1652222">
  <ele>656.07</ele>
  <time>2026-08-28T19:09:29Z</time>
  <course>17.92</course>
  <speed>0.0</speed>
  <fix>3d</fix>
</trkpt>
<trkpt lat="-35.3628811" lon="149.165222">
  <ele>657.24</ele>
  <time>2026-08-28T19:09:29Z</time>
  <course>93.65</course>
  <speed>0.01414213562373095</speed>
  <fix>3d</fix>
</trkpt>
<trkpt lat="-35.362881" lon="149.1652222">
  <ele>656.57</ele>
  <time>2026-08-28T19:09:29Z</time>
  <course>25.8</course>
  <speed>0.0</speed>
  <fix>3d</fix>
</trkpt>
<trkpt lat="-35.3628811" lon="149.165222">
  <ele>657.74</ele>
  <time>2026-08-28T19:09:29Z</time>
  <course>93.65</course>
  <speed>0.01414213562373095</speed>
  <fix>3d</fix>
</trkpt>
<trkpt lat="-35.362881" lon="149.1652222">
  <ele>657.07</ele>
  <time>2026-08-28T19:09:29Z</time>
  <course>30.99</course>
  <speed>0.0</speed>
  <fix>3d</fix>
</trkpt>
<trkpt lat="-35.3628811" lon="149.165222">
  <ele>658.23</ele>
  <time>2026-08-28T19:09:29Z</time>
  <course>93.66</course>
  <speed>0.01414213562373095</speed>
  <fix>3d</fix>
</trkpt>
<trkpt lat="-35.362881" lon="149.1652222">
  <ele>657.57</ele>
  <time>2026-08-28T19:09:29Z</time>
  <course>43.49</course>
  <speed>0.0</speed>
  <fix>3d</fix>
</trkpt>
<trkpt lat="-35.3628811" lon="149.165222">
  <ele>658.73</ele>
  <time>2026-08-28T19:09:29Z</time>
  <course>93.65</course>
  <speed>0.022360679774997897</speed>
  <fix>3d</fix>
</trkpt>
<trkpt lat="-35.362881" lon="149.1652222">
  <ele>658.07</ele>
  <time>2026-08-28T19:09:29Z</time>
  <course>54.4</course>
  <speed>0.0</speed>
  <fix>3d</fix>
</trkpt>
<trkpt lat="-35.3628811" lon="149.165222">
  <ele>659.23</ele>
  <time>2026-08-28T19:09:29Z</time>
  <course>93.66</course>
  <speed>0.022360679774997897</speed>
  <fix>3d</fix>
</trkpt>
<trkpt lat="-35.362881" lon="149.1652222">
  <ele>658.57</ele>
  <time>2026-08-28T19:09:29Z</time>
  <course>53.58</course>
  <speed>0.0</speed>
  <fix>3d</fix>
</trkpt>
<trkpt lat="-35.3628811" lon="149.165222">
  <ele>659.73</ele>
  <time>2026-08-28T19:09:29Z</time>
  <course>93.68</course>
  <speed>0.022360679774997897</speed>
  <fix>3d</fix>
</trkpt>
<trkpt lat="-35.362881" lon="149.1652222">
  <ele>659.07</ele>
  <time>2026-08-28T19:09:29Z</time>
  <course>47.08</course>
  <speed>0.0</speed>
  <fix>3d</fix>
</trkpt>
<trkpt lat="-35.3628811" lon="149.165222">
  <ele>660.23</ele>
  <time>2026-08-28T19:09:29Z</time>
  <course>93.65</course>
  <speed>0.022360679774997897</speed>
  <fix>3d</fix>
</trkpt>
<trkpt lat="-35.362881" lon="149.1652222">
  <ele>659.57</ele>
  <time>2026-08-28T19:09:29Z</time>
  <course>45.91</course>
  <speed>0.0</speed>
  <fix>3d</fix>
</trkpt>
<trkpt lat="-35.3628811" lon="149.165222">
  <ele>660.73</ele>
  <time>2026-08-28T19:09:29Z</time>
  <course>93.66</course>
  <speed>0.022360679774997897</speed>
  <fix>3d</fix>
</trkpt>
<trkpt lat="-35.362881" lon="149.1652222">
  <ele>660.07</ele>
  <time>2026-08-28T19:09:29Z</time>
  <course>43.6</course>
  <speed>0.0</speed>
  <fix>3d</fix>
</trkpt>
<trkpt lat="-35.3628811" lon="149.165222">
  <ele>661.23</ele>
  <time>2026-08-28T19:09:29Z</time>
  <course>93.69</course>
  <speed>0.022360679774997897</speed>
  <fix>3d</fix>
</trkpt>
<trkpt lat="-35.362881" lon="149.1652222">
  <ele>660.57</ele>
  <time>2026-08-28T19:09:29Z</time>
  <course>38.86</course>
  <speed>0.0</speed>
  <fix>3d</fix>
</trkpt>
<trkpt lat="-35.3628811" lon="149.165222">
  <ele>661.73</ele>
  <time>2026-08-28T19:09:29Z</time>
  <course>93.71</course>
  <speed>0.022360679774997897</speed>
  <fix>3d</fix>
</trkpt>
<trkpt lat="-35.362881" lon="149.1652222">
  <ele>661.08</ele>
  <time>2026-08-28T19:09:29Z</time>
  <course>36.9</course>
  <speed>0.0</speed>
  <fix>3d</fix>
</trkpt>
<trkpt lat="-35.3628811" lon="149.165222">
  <ele>662.23</ele>
  <time>2026-08-28T19:09:29Z</time>
  <course>93.7</course>
  <speed>0.022360679774997897</speed>
  <fix>3d</fix>
</trkpt>
<trkpt lat="-35.362881" lon="149.1652222">
  <ele>661.58</ele>
  <time>2026-08-28T19:09:29Z</time>
  <course>41.17</course>
  <speed>0.0</speed>
  <fix>3d</fix>
</trkpt>
<trkpt lat="-35.3628811" lon="149.165222">
  <ele>662.73</ele>
  <time>2026-08-28T19:09:29Z</time>
  <course>93.73</course>
  <speed>0.022360679774997897</speed>
  <fix>3d</fix>
</trkpt>
<trkpt lat="-35.362881" lon="149.1652222">
  <ele>662.08</ele>
  <time>2026-08-28T19:09:29Z</time>
  <course>44.7</course>
  <speed>0.0</speed>
  <fix>3d</fix>
</trkpt>
<trkpt lat="-35.3628811" lon="149.165222">
  <ele>663.23</ele>
  <time>2026-08-28T19:09:29Z</time>
  <course>93.74</course>
  <speed>0.022360679774997897</speed>
  <fix>3d</fix>
</trkpt>
<trkpt lat="-35.362881" lon="149.1652222">
  <ele>662.58</ele>
  <time>2026-08-28T19:09:29Z</time>
  <course>43.5</course>
  <speed>0.0</speed>
  <fix>3d</fix>
</trkpt>
<trkpt lat="-35.3628811" lon="149.165222">
  <ele>663.73</ele>
  <time>2026-08-28T19:09:29Z</time>
  <course>93.73</course>
  <speed>0.022360679774997897</speed>
  <fix>3d</fix>
</trkpt>
<trkpt lat="-35.362881" lon="149.1652222">
  <ele>663.09</ele>
  <time>2026-08-28T19:09:29Z</time>
  <course>41.14</course>
  <speed>0.0</speed>
  <fix>3d</fix>
</trkpt>
<trkpt lat="-35.3628811" lon="149.165222">
  <ele>664.24</ele>
  <time>2026-08-28T19:09:29Z</time>
  <course>93.75</course>
  <speed>0.022360679774997897</speed>
  <fix>3d</fix>
</trkpt>
<trkpt lat="-35.362881" lon="149.1652222">
  <ele>663.59</ele>
  <time>2026-08-28T19:09:29Z</time>
  <course>37.64</course>
  <speed>0.0</speed>
  <fix>3d</fix>
</trkpt>
<trkpt lat="-35.3628811" lon="149.165222">
  <ele>664.74</ele>
  <time>2026-08-28T19:09:29Z</time>
  <course>93.77</course>
  <speed>0.022360679774997897</speed>
  <fix>3d</fix>
</trkpt>
<trkpt lat="-35.362881" lon="149.1652222">
  <ele>664.09</ele>
  <time>2026-08-28T19:09:29Z</time>
  <course>38.41</course>
  <speed>0.0</speed>
  <fix>3d</fix>
</trkpt>
<trkpt lat="-35.3628811" lon="149.165222">
  <ele>665.24</ele>
  <time>2026-08-28T19:09:29Z</time>
  <course>93.79</course>
  <speed>0.022360679774997897</speed>
  <fix>3d</fix>
</trkpt>
<trkpt lat="-35.362881" lon="149.1652222">
  <ele>664.6</ele>
  <time>2026-08-28T19:09:29Z</time>
  <course>38.48</course>
  <speed>0.0</speed>
  <fix>3d</fix>
</trkpt>
<trkpt lat="-35.3628811" lon="149.165222">
  <ele>665.74</ele>
  <time>2026-08-28T19:09:29Z</time>
  <course>93.81</course>
  <speed>0.022360679774997897</speed>
  <fix>3d</fix>
</trkpt>
<trkpt lat="-35.362881" lon="149.1652222">
  <ele>665.1</ele>
  <time>2026-08-28T19:09:29Z</time>
  <course>38.62</course>
  <speed>0.0</speed>
  <fix>3d</fix>
</trkpt>
<trkpt lat="-35.3628811" lon="149.165222">
  <ele>666.24</ele>
  <time>2026-08-28T19:09:29Z</time>
  <course>93.82</course>
  <speed>0.022360679774997897</speed>
  <fix>3d</fix>
</trkpt>
<trkpt lat="-35.362881" lon="149.1652222">
  <ele>665.6</ele>
  <time>2026-08-28T19:09:29Z</time>
  <course>43.57</course>
  <speed>0.0</speed>
  <fix>3d</fix>
</trkpt>
<trkpt lat="-35.3628811" lon="149.165222">
  <ele>666.74</ele>
  <time>2026-08-28T19:09:29Z</time>
  <course>93.82</course>
  <speed>0.022360679774997897</speed>
  <fix>3d</fix>
</trkpt>
<trkpt lat="-35.362881" lon="149.1652222">
  <ele>666.1</ele>
  <time>2026-08-28T19:09:29Z</time>
  <course>50.03</course>
  <speed>0.0</speed>
  <fix>3d</fix>
</trkpt>
<trkpt lat="-35.3628811" lon="149.165222">
  <ele>667.23</ele>
  <time>2026-08-28T19:09:29Z</time>
  <course>93.79</course>
  <speed>0.022360679774997897</speed>
  <fix>3d</fix>
</trkpt>
<trkpt lat="-35.362881" lon="149.1652222">
  <ele>666.6</ele>
  <time>2026-08-28T19:09:29Z</time>
  <course>55.67</course>
  <speed>0.0</speed>
  <fix>3d</fix>
</trkpt>
<trkpt lat="-35.3628811" lon="149.165222">
  <ele>667.73</ele>
  <time>2026-08-28T19:09:29Z</time>
  <course>93.79</course>
  <speed>0.022360679774997897</speed>
  <fix>3d</fix>
</trkpt>
<trkpt lat="-35.362881" lon="149.1652222">
  <ele>667.1</ele>
  <time>2026-08-28T19:09:29Z</time>
  <course>55.81</course>
  <speed>0.0</speed>
  <fix>3d</fix>
</trkpt>
<trkpt lat="-35.3628811" lon="149.165222">
  <ele>668.23</ele>
  <time>2026-08-28T19:09:29Z</time>
  <course>93.81</course>
  <speed>0.022360679774997897</speed>
  <fix>3d</fix>
</trkpt>
<trkpt lat="-35.362881" lon="149.1652222">
  <ele>667.6</ele>
  <time>2026-08-28T19:09:29Z</time>
  <course>52.96</course>
  <speed>0.0</speed>
  <fix>3d</fix>
</trkpt>
<trkpt lat="-35.3628811" lon="149.165222">
  <ele>668.73</ele>
  <time>2026-08-28T19:09:29Z</time>
  <course>93.82</course>
  <speed>0.022360679774997897</speed>
  <fix>3d</fix>
</trkpt>
<trkpt lat="-35.362881" lon="149.1652222">
  <ele>668.1</ele>
  <time>2026-08-28T19:09:29Z</time>
  <course>51.0</course>
  <speed>0.0</speed>
  <fix>3d</fix>
</trkpt>
<trkpt lat="-35.3628811" lon="149.165222">
  <ele>669.23</ele>
  <time>2026-08-28T19:09:29Z</time>
  <course>93.82</course>
  <speed>0.022360679774997897</speed>
  <fix>3d</fix>
</trkpt>
<trkpt lat="-35.362881" lon="149.1652222">
  <ele>668.61</ele>
  <time>2026-08-28T19:09:29Z</time>
  <course>47.82</course>
  <speed>0.0</speed>
  <fix>3d</fix>
</trkpt>
<trkpt lat="-35.3628811" lon="149.165222">
  <ele>669.73</ele>
  <time>2026-08-28T19:09:29Z</time>
  <course>93.84</course>
  <speed>0.022360679774997897</speed>
  <fix>3d</fix>
</trkpt>
<trkpt lat="-35.362881" lon="149.1652222">
  <ele>669.11</ele>
  <time>2026-08-28T19:09:29Z</time>
  <course>43.51</course>
  <speed>0.0</speed>
  <fix>3d</fix>
</trkpt>
<trkpt lat="-35.3628811" lon="149.165222">
  <ele>670.23</ele>
  <time>2026-08-28T19:09:29Z</time>
  <course>93.84</course>
  <speed>0.022360679774997897</speed>
  <fix>3d</fix>
</trkpt>
<trkpt lat="-35.362881" lon="149.1652222">
  <ele>669.61</ele>
  <time>2026-08-28T19:09:29Z</time>
  <course>44.23</course>
  <speed>0.0</speed>
  <fix>3d</fix>
</trkpt>
<trkpt lat="-35.3628811" lon="149.165222">
  <ele>670.73</ele>
  <time>2026-08-28T19:09:29Z</time>
  <course>93.86</course>
  <speed>0.022360679774997897</speed>
  <fix>3d</fix>
</trkpt>
<trkpt lat="-35.362881" lon="149.1652222">
  <ele>670.12</ele>
  <time>2026-08-28T19:09:29Z</time>
  <course>48.32</course>
  <speed>0.0</speed>
  <fix>3d</fix>
</trkpt>
<trkpt lat="-35.3628811" lon="149.165222">
  <ele>671.24</ele>
  <time>2026-08-28T19:09:29Z</time>
  <course>93.85</course>
  <speed>0.022360679774997897</speed>
  <fix>3d</fix>
</trkpt>
<trkpt lat="-35.362881" lon="149.1652222">
  <ele>670.62</ele>
  <time>2026-08-28T19:09:29Z</time>
  <course>50.18</course>
  <speed>0.0</speed>
  <fix>3d</fix>
</trkpt>
<trkpt lat="-35.3628811" lon="149.165222">
  <ele>671.74</ele>
  <time>2026-08-28T19:09:29Z</time>
  <course>93.89</course>
  <speed>0.022360679774997897</speed>
  <fix>3d</fix>
</trkpt>
<trkpt lat="-35.362881" lon="149.1652222">
  <ele>671.12</ele>
  <time>2026-08-28T19:09:29Z</time>
  <course>49.18</course>
  <speed>0.0</speed>
  <fix>3d</fix>
</trkpt>
<trkpt lat="-35.3628811" lon="149.165222">
  <ele>672.24</ele>
  <time>2026-08-28T19:09:29Z</time>
  <course>93.9</course>
  <speed>0.022360679774997897</speed>
  <fix>3d</fix>
</trkpt>
<trkpt lat="-35.362881" lon="149.1652222">
  <ele>671.62</ele>
  <time>2026-08-28T19:09:29Z</time>
  <course>48.68</course>
  <speed>0.0</speed>
  <fix>3d</fix>
</trkpt>
<trkpt lat="-35.3628811" lon="149.165222">
  <ele>672.74</ele>
  <time>2026-08-28T19:09:29Z</time>
  <course>93.91</course>
  <speed>0.022360679774997897</speed>
  <fix>3d</fix>
</trkpt>
<trkpt lat="-35.3628809" lon="149.1652222">
  <ele>672.12</ele>
  <time>2026-08-28T19:09:29Z</time>
  <course>49.04</course>
  <speed>0.0</speed>
  <fix>3d</fix>
</trkpt>
<trkpt lat="-35.3628811" lon="149.165222">
  <ele>673.25</ele>
  <time>2026-08-28T19:09:29Z</time>
  <course>93.92</course>
  <speed>0.022360679774997897</speed>
  <fix>3d</fix>
</trkpt>
<trkpt lat="-35.3628809" lon="149.1652222">
  <ele>672.63</ele>
  <time>2026-08-28T19:09:29Z</time>
  <course>47.71</course>
  <speed>0.0</speed>
  <fix>3d</fix>
</trkpt>
<trkpt lat="-35.3628811" lon="149.165222">
  <ele>673.75</ele>
  <time>2026-08-28T19:09:29Z</time>
  <course>93.93</course>
  <speed>0.022360679774997897</speed>
  <fix>3d</fix>
</trkpt>
<trkpt lat="-35.3628809" lon="149.1652222">
  <ele>673.13</ele>
  <time>2026-08-28T19:09:29Z</time>
  <course>46.09</course>
  <speed>0.0</speed>
  <fix>3d</fix>
</trkpt>
<trkpt lat="-35.3628811" lon="149.165222">
  <ele>674.26</ele>
  <time>2026-08-28T19:09:29Z</time>
  <course>93.93</course>
  <speed>0.022360679774997897</speed>
  <fix>3d</fix>
</trkpt>
<trkpt lat="-35.3628809" lon="149.1652222">
  <ele>673.63</ele>
  <time>2026-08-28T19:09:29Z</time>
  <course>44.23</course>
  <speed>0.0</speed>
  <fix>3d</fix>
</trkpt>
<trkpt lat="-35.3628811" lon="149.165222">
  <ele>674.76</ele>
  <time>2026-08-28T19:09:29Z</time>
  <course>93.94</course>
  <speed>0.022360679774997897</speed>
  <fix>3d</fix>
</trkpt>
<trkpt lat="-35.3628809" lon="149.1652222">
  <ele>674.13</ele>
  <time>2026-08-28T19:09:29Z</time>
  <course>51.75</course>
  <speed>0.0</speed>
  <fix>3d</fix>
</trkpt>
<trkpt lat="-35.3628811" lon="149.165222">
  <ele>675.25</ele>
  <time>2026-08-28T19:09:29Z</time>
  <course>93.96</course>
  <speed>0.022360679774997897</speed>
  <fix>3d</fix>
</trkpt>
<trkpt lat="-35.3628809" lon="149.1652222">
  <ele>674.63</ele>
  <time>2026-08-28T19:09:29Z</time>
  <course>80.49</course>
  <speed>0.0</speed>
  <fix>3d</fix>
</trkpt>
<trkpt lat="-35.3628811" lon="149.165222">
  <ele>675.75</ele>
  <time>2026-08-28T19:09:29Z</time>
  <course>93.95</course>
  <speed>0.022360679774997897</speed>
  <fix>3d</fix>
</trkpt>
<trkpt lat="-35.3628809" lon="149.1652222">
  <ele>675.12</ele>
  <time>2026-08-28T19:09:29Z</time>
  <course>115.18</course>
  <speed>0.0</speed>
  <fix>3d</fix>
</trkpt>
<trkpt lat="-35.3628811" lon="149.165222">
  <ele>676.26</ele>
  <time>2026-08-28T19:09:29Z</time>
  <course>93.95</course>
  <speed>0.022360679774997897</speed>
  <fix>3d</fix>
</trkpt>
<trkpt lat="-35.3628809" lon="149.1652222">
  <ele>675.62</ele>
  <time>2026-08-28T19:09:29Z</time>
  <course>133.65</course>
  <speed>0.0</speed>
  <fix>3d</fix>
</trkpt>
<trkpt lat="-35.3628811" lon="149.165222">
  <ele>676.76</ele>
  <time>2026-08-28T19:09:29Z</time>
  <course>93.96</course>
  <speed>0.022360679774997897</speed>
  <fix>3d</fix>
</trkpt>
<trkpt lat="-35.3628809" lon="149.1652222">
  <ele>676.12</ele>
  <time>2026-08-28T19:09:29Z</time>
  <course>140.82</course>
  <speed>0.0</speed>
  <fix>3d</fix>
</trkpt>
<trkpt lat="-35.3628811" lon="149.165222">
  <ele>677.26</ele>
  <time>2026-08-28T19:09:29Z</time>
  <course>93.98</course>
  <speed>0.022360679774997897</speed>
  <fix>3d</fix>
</trkpt>
<trkpt lat="-35.3628809" lon="149.1652222">
  <ele>676.62</ele>
  <time>2026-08-28T19:09:29Z</time>
  <course>144.42</course>
  <speed>0.0</speed>
  <fix>3d</fix>
</trkpt>
<trkpt lat="-35.3628811" lon="149.165222">
  <ele>677.75</ele>
  <time>2026-08-28T19:09:29Z</time>
  <course>93.98</course>
  <speed>0.022360679774997897</speed>
  <fix>3d</fix>
</trkpt>
<trkpt lat="-35.3628809" lon="149.1652222">
  <ele>677.11</ele>
  <time>2026-08-28T19:09:29Z</time>
  <course>148.26</course>
  <speed>0.0</speed>
  <fix>3d</fix>
</trkpt>
<trkpt lat="-35.3628811" lon="149.165222">
  <ele>678.24</ele>
  <time>2026-08-28T19:09:29Z</time>
  <course>93.97</course>
  <speed>0.022360679774997897</speed>
  <fix>3d</fix>
</trkpt>
<trkpt lat="-35.3628809" lon="149.1652222">
  <ele>677.61</ele>
  <time>2026-08-28T19:09:29Z</time>
  <course>152.58</course>
  <speed>0.0</speed>
  <fix>3d</fix>
</trkpt>
<trkpt lat="-35.3628811" lon="149.165222">
  <ele>678.74</ele>
  <time>2026-08-28T19:09:29Z</time>
  <course>93.97</course>
  <speed>0.022360679774997897</speed>
  <fix>3d</fix>
</trkpt>
<trkpt lat="-35.3628809" lon="149.1652222">
  <ele>678.11</ele>
  <time>2026-08-28T19:09:29Z</time>
  <course>155.09</course>
  <speed>0.0</speed>
  <fix>3d</fix>
</trkpt>
<trkpt lat="-35.3628811" lon="149.165222">
  <ele>679.23</ele>
  <time>2026-08-28T19:09:29Z</time>
  <course>94.03</course>
  <speed>0.022360679774997897</speed>
  <fix>3d</fix>
</trkpt>
<trkpt lat="-35.3628809" lon="149.1652222">
  <ele>678.61</ele>
  <time>2026-08-28T19:09:29Z</time>
  <course>154.9</course>
  <speed>0.0</speed>
  <fix>3d</fix>
</trkpt>
<trkpt lat="-35.3628811" lon="149.165222">
  <ele>679.72</ele>
  <time>2026-08-28T19:09:29Z</time>
  <course>94.41</course>
  <speed>0.022360679774997897</speed>
  <fix>3d</fix>
</trkpt>
<trkpt lat="-35.3628809" lon="149.1652223">
  <ele>679.1</ele>
  <time>2026-08-28T19:09:29Z</time>
  <course>147.31</course>
  <speed>0.0</speed>
  <fix>3d</fix>
</trkpt>
<trkpt lat="-35.3628811" lon="149.165222">
  <ele>680.17</ele>
  <time>2026-08-28T19:09:29Z</time>
  <course>94.84</course>
  <speed>0.01414213562373095</speed>
  <fix>3d</fix>
</trkpt>
<trkpt lat="-35.3628809" lon="149.1652224">
  <ele>679.57</ele>
  <time>2026-08-28T19:09:29Z</time>
  <course>132.88</course>
  <speed>0.0</speed>
  <fix>3d</fix>
</trkpt>
<trkpt lat="-35.3628811" lon="149.165222">
  <ele>680.59</ele>
  <time>2026-08-28T19:09:29Z</time>
  <course>95.26</course>
  <speed>0.01414213562373095</speed>
  <fix>3d</fix>
</trkpt>
<trkpt lat="-35.3628809" lon="149.1652224">
  <ele>680.02</ele>
  <time>2026-08-28T19:09:29Z</time>
  <course>132.21</course>
  <speed>0.0</speed>
  <fix>3d</fix>
</trkpt>
<trkpt lat="-35.3628811" lon="149.165222">
  <ele>680.97</ele>
  <time>2026-08-28T19:09:29Z</time>
  <course>95.67</course>
  <speed>0.022360679774997897</speed>
  <fix>3d</fix>
</trkpt>
<trkpt lat="-35.3628809" lon="149.1652224">
  <ele>680.42</ele>
  <time>2026-08-28T19:09:29Z</time>
  <course>142.4</course>
  <speed>0.0</speed>
  <fix>3d</fix>
</trkpt>
<trkpt lat="-35.3628811" lon="149.165222">
  <ele>681.31</ele>
  <time>2026-08-28T19:09:29Z</time>
  <course>96.02</course>
  <speed>0.022360679774997897</speed>
  <fix>3d</fix>
</trkpt>
<trkpt lat="-35.3628809" lon="149.1652224">
  <ele>680.79</ele>
  <time>2026-08-28T19:09:29Z</time>
  <course>152.61</course>
  <speed>0.01</speed>
  <fix>3d</fix>
</trkpt>
<trkpt lat="-35.3628811" lon="149.1652221">
  <ele>681.59</ele>
  <time>2026-08-28T19:09:29Z</time>
  <course>96.34</course>
  <speed>0.0316227766016838</speed>
  <fix>3d</fix>
</trkpt>
<trkpt lat="-35.362881" lon="149.1652224">
  <ele>681.1</ele>
  <time>2026-08-28T19:09:29Z</time>
  <course>159.91</course>
  <speed>0.02</speed>
  <fix>3d</fix>
</trkpt>
<trkpt lat="-35.3628811" lon="149.1652221">
  <ele>681.83</ele>
  <time>2026-08-28T19:09:29Z</time>
  <course>96.62</course>
  <speed>0.0412310562561766</speed>
  <fix>3d</fix>
</trkpt>
<trkpt lat="-35.362881" lon="149.1652224">
  <ele>681.37</ele>
  <time>2026-08-28T19:09:29Z</time>
  <course>165.03</course>
  <speed>0.02</speed>
  <fix>3d</fix>
</trkpt>
<trkpt lat="-35.3628812" lon="149.1652221">
  <ele>682.02</ele>
  <time>2026-08-28T19:09:29Z</time>
  <course>96.89</course>
  <speed>0.05099019513592785</speed>
  <fix>3d</fix>
</trkpt>
<trkpt lat="-35.362881" lon="149.1652224">
  <ele>681.6</ele>
  <time>2026-08-28T19:09:29Z</time>
  <course>168.75</course>
  <speed>0.03</speed>
  <fix>3d</fix>
</trkpt>
<trkpt lat="-35.3628812" lon="149.1652221">
  <ele>682.17</ele>
  <time>2026-08-28T19:09:29Z</time>
  <course>97.12</course>
  <speed>0.05099019513592785</speed>
  <fix>3d</fix>
</trkpt>
<trkpt lat="-35.3628811" lon="149.1652224">
  <ele>681.78</ele>
  <time>2026-08-28T19:09:29Z</time>
  <course>171.56</course>
  <speed>0.04</speed>
  <fix>3d</fix>
</trkpt>
<trkpt lat="-35.3628813" lon="149.1652222">
  <ele>682.27</ele>
  <time>2026-08-28T19:09:29Z</time>
  <course>97.35</course>
  <speed>0.06082762530298219</speed>
  <fix>3d</fix>
</trkpt>
<trkpt lat="-35.3628812" lon="149.1652225">
  <ele>681.92</ele>
  <time>2026-08-28T19:09:29Z</time>
  <course>173.9</course>
  <speed>0.05</speed>
  <fix>3d</fix>
</trkpt>
<trkpt lat="-35.3628814" lon="149.1652222">
  <ele>682.34</ele>
  <time>2026-08-28T19:09:29Z</time>
  <course>97.55</course>
  <speed>0.06082762530298219</speed>
  <fix>3d</fix>
</trkpt>
<trkpt lat="-35.3628813" lon="149.1652225">
  <ele>682.02</ele>
  <time>2026-08-28T19:09:29Z</time>
  <course>175.96</course>
  <speed>0.05</speed>
  <fix>3d</fix>
</trkpt>
<trkpt lat="-35.3628815" lon="149.1652222">
  <ele>682.37</ele>
  <time>2026-08-28T19:09:29Z</time>
  <course>97.83</course>
  <speed>0.06082762530298219</speed>
  <fix>3d</fix>
</trkpt>
<trkpt lat="-35.3628814" lon="149.1652225">
  <ele>682.07</ele>
  <time>2026-08-28T19:09:29Z</time>
  <course>177.89</course>
  <speed>0.06</speed>
  <fix>3d</fix>
</trkpt>
<trkpt lat="-35.3628816" lon="149.1652222">
  <ele>682.35</ele>
  <time>2026-08-28T19:09:29Z</time>
  <course>102.23</course>
  <speed>0.07280109889280519</speed>
  <fix>3d</fix>
</trkpt>
<trkpt lat="-35.3628815" lon="149.1652225">
  <ele>682.1</ele>
  <time>2026-08-28T19:09:29Z</time>
  <course>178.87</course>
  <speed>0.05</speed>
  <fix>3d</fix>
</trkpt>
<trkpt lat="-35.3628817" lon="149.1652222">
  <ele>682.32</ele>
  <time>2026-08-28T19:09:29Z</time>
  <course>101.16</course>
  <speed>0.07280109889280519</speed>
  <fix>3d</fix>
</trkpt>
<trkpt lat="-35.3628816" lon="149.1652225">
  <ele>682.08</ele>
  <time>2026-08-28T19:09:29Z</time>
  <course>180.17</course>
  <speed>0.05</speed>
  <fix>3d</fix>
</trkpt>
<trkpt lat="-35.3628818" lon="149.1652222">
  <ele>682.29</ele>
  <time>2026-08-28T19:09:29Z</time>
  <course>100.91</course>
  <speed>0.07211102550927978</speed>
  <fix>3d</fix>
</trkpt>
<trkpt lat="-35.3628817" lon="149.1652225">
  <ele>682.06</ele>
  <time>2026-08-28T19:09:29Z</time>
  <course>189.33</course>
  <speed>0.05</speed>
  <fix>3d</fix>
</trkpt>
<trkpt lat="-35.3628819" lon="149.1652222">
  <ele>682.25</ele>
  <time>2026-08-28T19:09:29Z</time>
  <course>100.76</course>
  <speed>0.12206555615733702</speed>
  <fix>3d</fix>
</trkpt>
<trkpt lat="-35.3628818" lon="149.1652225">
  <ele>682.03</ele>
  <time>2026-08-28T19:09:29Z</time>
  <course>217.27</course>
  <speed>0.07</speed>
  <fix>3d</fix>
</trkpt>
<trkpt lat="-35.3628821" lon="149.1652219">
  <ele>682.23</ele>
  <time>2026-08-28T19:09:29Z</time>
  <course>100.71</course>
  <speed>0.23706539182259395</speed>
  <fix>3d</fix>
</trkpt>
<trkpt lat="-35.3628819" lon="149.1652223">
  <ele>682.01</ele>
  <time>2026-08-28T19:09:29Z</time>
  <course>235.34</course>
  <speed>0.14</speed>
  <fix>3d</fix>
</trkpt>
<trkpt lat="-35.3628823" lon="149.1652213">
  <ele>682.22</ele>
  <time>2026-08-28T19:09:29Z</time>
  <course>100.67</course>
  <speed>0.39824615503479754</speed>
  <fix>3d</fix>
</trkpt>
<trkpt lat="-35.3628821" lon="149.1652219">
  <ele>681.99</ele>
  <time>2026-08-28T19:09:29Z</time>
  <course>238.56</course>
  <speed>0.26</speed>
  <fix>3d</fix>
</trkpt>
<trkpt lat="-35.3628828" lon="149.1652204">
  <ele>682.21</ele>
  <time>2026-08-28T19:09:29Z</time>
  <course>100.64</course>
  <speed>0.5916924876994806</speed>
  <fix>3d</fix>
</trkpt>
<trkpt lat="-35.3628825" lon="149.1652212">
  <ele>681.98</ele>
  <time>2026-08-28T19:09:29Z</time>
  <course>237.56</course>
  <speed>0.43</speed>
  <fix>3d</fix>
</trkpt>
<trkpt lat="-35.3628834" lon="149.1652192">
  <ele>682.2</ele>
  <time>2026-08-28T19:09:29Z</time>
  <course>100.6</course>
  <speed>0.8268010643437755</speed>
  <fix>3d</fix>
</trkpt>
<trkpt lat="-35.3628829" lon="149.1652203">
  <ele>681.98</ele>
  <time>2026-08-28T19:09:29Z</time>
  <course>235.85</course>
  <speed>0.64</speed>
  <fix>3d</fix>
</trkpt>
<trkpt lat="-35.3628844" lon="149.1652175">
  <ele>682.19</ele>
  <time>2026-08-28T19:09:29Z</time>
  <course>100.52</course>
  <speed>1.0733592129385203</speed>
  <fix>3d</fix>
</trkpt>
<trkpt lat="-35.3628838" lon="149.1652189">
  <ele>681.98</ele>
  <time>2026-08-28T19:09:29Z</time>
  <course>234.29</course>
  <speed>0.87</speed>
  <fix>3d</fix>
</trkpt>
<trkpt lat="-35.3628855" lon="149.1652154">
  <ele>682.18</ele>
  <time>2026-08-28T19:09:29Z</time>
  <course>108.68</course>
  <speed>1.306330739131557</speed>
  <fix>3d</fix>
</trkpt>
<trkpt lat="-35.3628849" lon="149.1652172">
  <ele>681.98</ele>
  <time>2026-08-28T19:09:29Z</time>
  <course>234.21</course>
  <speed>1.11</speed>
  <fix>3d</fix>
</trkpt>
<trkpt lat="-35.362887" lon="149.1652129">
  <ele>682.18</ele>
  <time>2026-08-28T19:09:29Z</time>
  <course>121.54</course>
  <speed>1.5821820375671063</speed>
  <fix>3d</fix>
</trkpt>
<trkpt lat="-35.3628862" lon="149.165215">
  <ele>681.98</ele>
  <time>2026-08-28T19:09:29Z</time>
  <course>233.43</course>
  <speed>1.37</speed>
  <fix>3d</fix>
</trkpt>
<trkpt lat="-35.362889" lon="149.16521">
  <ele>682.18</ele>
  <time>2026-08-28T19:09:29Z</time>
  <course>133.16</course>
  <speed>1.8709623192357454</speed>
  <fix>3d</fix>
</trkpt>
<trkpt lat="-35.3628878" lon="149.1652123">
  <ele>681.98</ele>
  <time>2026-08-28T19:09:29Z</time>
  <course>231.16</course>
  <speed>1.65</speed>
  <fix>3d</fix>
</trkpt>
<trkpt lat="-35.3628913" lon="149.1652068">
  <ele>682.18</ele>
  <time>2026-08-28T19:09:29Z</time>
  <course>144.7</course>
  <speed>2.167487024182613</speed>
  <fix>3d</fix>
</trkpt>
<trkpt lat="-35.3628899" lon="149.1652093">
  <ele>681.99</ele>
  <time>2026-08-28T19:09:29Z</time>
  <course>228.73</course>
  <speed>1.93</speed>
  <fix>3d</fix>
</trkpt>
<trkpt lat="-35.3628942" lon="149.1652032">
  <ele>682.17</ele>
  <time>2026-08-28T19:09:29Z</time>
  <course>156.21</course>
  <speed>2.4963373169505756</speed>
  <fix>3d</fix>
</trkpt>
<trkpt lat="-35.3628925" lon="149.1652059">
  <ele>681.99</ele>
  <time>2026-08-28T19:09:29Z</time>
  <course>226.3</course>
  <speed>2.24</speed>
  <fix>3d</fix>
</trkpt>
<trkpt lat="-35.3628977" lon="149.1651991">
  <ele>682.17</ele>
  <time>2026-08-28T19:09:29Z</time>
  <course>167.73</course>
  <speed>2.892766841624122</speed>
  <fix>3d</fix>
</trkpt>
<trkpt lat="-35.3628955" lon="149.1652021">
  <ele>681.99</ele>
  <time>2026-08-28T19:09:29Z</time>
  <course>224.12</course>
  <speed>2.59</speed>
  <fix>3d</fix>
</trkpt>
<trkpt lat="-35.3629018" lon="149.1651946">
  <ele>682.16</ele>
  <time>2026-08-28T19:09:29Z</time>
  <course>179.31</course>
  <speed>3.341167460634082</speed>
  <fix>3d</fix>
</trkpt>
<trkpt lat="-35.3628992" lon="149.1651979">
  <ele>681.99</ele>
  <time>2026-08-28T19:09:29Z</time>
  <course>222.44</course>
  <speed>2.99</speed>
  <fix>3d</fix>
</trkpt>
<trkpt lat="-35.3629066" lon="149.1651895">
  <ele>682.16</ele>
  <time>2026-08-28T19:09:29Z</time>
  <course>191.1</course>
  <speed>3.8466738879192763</speed>
  <fix>3d</fix>
</trkpt>
<trkpt lat="-35.3629035" lon="149.1651931">
  <ele>681.98</ele>
  <time>2026-08-28T19:09:29Z</time>
  <course>221.39</course>
  <speed>3.46</speed>
  <fix>3d</fix>
</trkpt>
<trkpt lat="-35.3629121" lon="149.1651836">
  <ele>682.14</ele>
  <time>2026-08-28T19:09:29Z</time>
  <course>203.21</course>
  <speed>4.384803302315852</speed>
  <fix>3d</fix>
</trkpt>
<trkpt lat="-35.3629085" lon="149.1651878">
  <ele>681.97</ele>
  <time>2026-08-28T19:09:29Z</time>
  <course>221.04</course>
  <speed>3.97</speed>
  <fix>3d</fix>
</trkpt>
<trkpt lat="-35.3629183" lon="149.1651769">
  <ele>682.13</ele>
  <time>2026-08-28T19:09:29Z</time>
  <course>215.57</course>
  <speed>4.948181484141421</speed>
  <fix>3d</fix>
</trkpt>
<trkpt lat="-35.3629142" lon="149.1651817">
  <ele>681.96</ele>
  <time>2026-08-28T19:09:29Z</time>
  <course>221.36</course>
  <speed>4.52</speed>
  <fix>3d</fix>
</trkpt>
<trkpt lat="-35.3629251" lon="149.1651692">
  <ele>682.12</ele>
  <time>2026-08-28T19:09:29Z</time>
  <course>223.3</course>
  <speed>5.487804661246608</speed>
  <fix>3d</fix>
</trkpt>
<trkpt lat="-35.3629207" lon="149.1651746">
  <ele>681.96</ele>
  <time>2026-08-28T19:09:29Z</time>
  <course>222.53</course>
  <speed>5.08</speed>
  <fix>3d</fix>
</trkpt>
<trkpt lat="-35.3629324" lon="149.1651605">
  <ele>682.13</ele>
  <time>2026-08-28T19:09:29Z</time>
  <course>223.47</course>
  <speed>5.989232004188851</speed>
  <fix>3d</fix>
</trkpt>
<trkpt lat="-35.3629277" lon="149.1651665">
  <ele>681.95</ele>
  <time>2026-08-28T19:09:29Z</time>
  <course>224.04</course>
  <speed>5.61</speed>
  <fix>3d</fix>
</trkpt>
<trkpt lat="-35.3629401" lon="149.165151">
  <ele>682.14</ele>
  <time>2026-08-28T19:09:29Z</time>
  <course>224.06</course>
  <speed>6.435930391171116</speed>
  <fix>3d</fix>
</trkpt>
<trkpt lat="-35.3629351" lon="149.1651574">
  <ele>681.95</ele>
  <time>2026-08-28T19:09:29Z</time>
  <course>225.28</course>
  <speed>6.11</speed>
  <fix>3d</fix>
</trkpt>
<trkpt lat="-35.3629482" lon="149.1651405">
  <ele>682.15</ele>
  <time>2026-08-28T19:09:30Z</time>
  <course>224.98</course>
  <speed>6.849525531013079</speed>
  <fix>3d</fix>
</trkpt>
<trkpt lat="-35.3629431" lon="149.1651473">
  <ele>681.96</ele>
  <time>2026-08-28T19:09:30Z</time>
  <course>226.34</course>
  <speed>6.57</speed>
  <fix>3d</fix>
</trkpt>
<trkpt lat="-35.3629567" lon="149.1651292">
  <ele>682.15</ele>
  <time>2026-08-28T19:09:30Z</time>
  <course>225.94</course>
  <speed>7.244149363451861</speed>
  <fix>3d</fix>
</trkpt>
<trkpt lat="-35.3629514" lon="149.1651364">
  <ele>681.97</ele>
  <time>2026-08-28T19:09:30Z</time>
  <course>227.36</course>
  <speed>6.98</speed>
  <fix>3d</fix>
</trkpt>
<trkpt lat="-35.3629655" lon="149.1651171">
  <ele>682.16</ele>
  <time>2026-08-28T19:09:30Z</time>
  <course>226.83</course>
  <speed>7.605767548380637</speed>
  <fix>3d</fix>
</trkpt>
<trkpt lat="-35.3629601" lon="149.1651246">
  <ele>681.98</ele>
  <time>2026-08-28T19:09:30Z</time>
  <course>228.35</course>
  <speed>7.38</speed>
  <fix>3d</fix>
</trkpt>
<trkpt lat="-35.3629746" lon="149.1651042">
  <ele>682.16</ele>
  <time>2026-08-28T19:09:30Z</time>
  <course>227.72</course>
  <speed>7.947439839344492</speed>
  <fix>3d</fix>
</trkpt>
<trkpt lat="-35.3629691" lon="149.1651121">
  <ele>681.98</ele>
  <time>2026-08-28T19:09:30Z</time>
  <course>229.27</course>
  <speed>7.75</speed>
  <fix>3d</fix>
</trkpt>
<trkpt lat="-35.3629839" lon="149.1650906">
  <ele>682.17</ele>
  <time>2026-08-28T19:09:30Z</time>
  <course>228.65</course>
  <speed>8.246944888866421</speed>
  <fix>3d</fix>
</trkpt>
<trkpt lat="-35.3629782" lon="149.1650988">
  <ele>681.99</ele>
  <time>2026-08-28T19:09:30Z</time>
  <course>230.07</course>
  <speed>8.09</speed>
  <fix>3d</fix>
</trkpt>
<trkpt lat="-35.3629933" lon="149.1650763">
  <ele>682.18</ele>
  <time>2026-08-28T19:09:30Z</time>
  <course>229.58</course>
  <speed>8.489734978195727</speed>
  <fix>3d</fix>
</trkpt>
<trkpt lat="-35.3629877" lon="149.1650848">
  <ele>682.01</ele>
  <time>2026-08-28T19:09:30Z</time>
  <course>230.74</course>
  <speed>8.38</speed>
  <fix>3d</fix>
</trkpt>
<trkpt lat="-35.363003" lon="149.1650616">
  <ele>682.2</ele>
  <time>2026-08-28T19:09:30Z</time>
  <course>230.47</course>
  <speed>8.689539688614122</speed>
  <fix>3d</fix>
</trkpt>
<trkpt lat="-35.3629973" lon="149.1650702">
  <ele>682.03</ele>
  <time>2026-08-28T19:09:30Z</time>
  <course>231.31</course>
  <speed>8.62</speed>
  <fix>3d</fix>
</trkpt>
<trkpt lat="-35.3630128" lon="149.1650463">
  <ele>682.22</ele>
  <time>2026-08-28T19:09:30Z</time>
  <course>231.29</course>
  <speed>8.852259598543188</speed>
  <fix>3d</fix>
</trkpt>
<trkpt lat="-35.3630071" lon="149.1650552">
  <ele>682.05</ele>
  <time>2026-08-28T19:09:30Z</time>
  <course>231.79</course>
  <speed>8.81</speed>
  <fix>3d</fix>
</trkpt>
<trkpt lat="-35.3630227" lon="149.1650308">
  <ele>682.24</ele>
  <time>2026-08-28T19:09:30Z</time>
  <course>232.01</course>
  <speed>8.973187839335584</speed>
  <fix>3d</fix>
</trkpt>
<trkpt lat="-35.3630169" lon="149.1650398">
  <ele>682.07</ele>
  <time>2026-08-28T19:09:30Z</time>
  <course>232.18</course>
  <speed>8.95</speed>
  <fix>3d</fix>
</trkpt>
<trkpt lat="-35.3630326" lon="149.1650149">
  <ele>682.25</ele>
  <time>2026-08-28T19:09:30Z</time>
  <course>232.58</course>
  <speed>9.070667009652597</speed>
  <fix>3d</fix>
</trkpt>
<trkpt lat="-35.3630268" lon="149.165024">
  <ele>682.08</ele>
  <time>2026-08-28T19:09:30Z</time>
  <course>232.48</course>
  <speed>9.06</speed>
  <fix>3d</fix>
</trkpt>
<trkpt lat="-35.3630426" lon="149.1649989">
  <ele>682.27</ele>
  <time>2026-08-28T19:09:30Z</time>
  <course>233.03</course>
  <speed>9.13652559784079</speed>
  <fix>3d</fix>
</trkpt>
<trkpt lat="-35.3630368" lon="149.1650081">
  <ele>682.11</ele>
  <time>2026-08-28T19:09:30Z</time>
  <course>232.69</course>
  <speed>9.15</speed>
  <fix>3d</fix>
</trkpt>
<trkpt lat="-35.3630527" lon="149.1649827">
  <ele>682.29</ele>
  <time>2026-08-28T19:09:30Z</time>
  <course>233.35</course>
  <speed>9.180441165869972</speed>
  <fix>3d</fix>
</trkpt>
<trkpt lat="-35.3630467" lon="149.1649919">
  <ele>682.12</ele>
  <time>2026-08-28T19:09:30Z</time>
  <course>232.8</course>
  <speed>9.2</speed>
  <fix>3d</fix>
</trkpt>
<trkpt lat="-35.3630627" lon="149.1649665">
  <ele>682.29</ele>
  <time>2026-08-28T19:09:30Z</time>
  <course>233.55</course>
  <speed>9.192611163320246</speed>
  <fix>3d</fix>
</trkpt>
<trkpt lat="-35.3630567" lon="149.1649757">
  <ele>682.14</ele>
  <time>2026-08-28T19:09:30Z</time>
  <course>232.81</course>
  <speed>9.23</speed>
  <fix>3d</fix>
</trkpt>
<trkpt lat="-35.3630728" lon="149.1649503">
  <ele>682.3</ele>
  <time>2026-08-28T19:09:30Z</time>
  <course>233.62</course>
  <speed>9.196890778953504</speed>
  <fix>3d</fix>
</trkpt>
<trkpt lat="-35.3630668" lon="149.1649596">
  <ele>682.15</ele>
  <time>2026-08-28T19:09:30Z</time>
  <course>232.72</course>
  <speed>9.23</speed>
  <fix>3d</fix>
</trkpt>
<trkpt lat="-35.3630829" lon="149.1649341">
  <ele>682.29</ele>
  <time>2026-08-28T19:09:30Z</time>
  <course>233.58</course>
  <speed>9.177537796162976</speed>
  <fix>3d</fix>
</trkpt>
<trkpt lat="-35.3630768" lon="149.1649435">
  <ele>682.15</ele>
  <time>2026-08-28T19:09:30Z</time>
  <course>232.55</course>
  <speed>9.22</speed>
  <fix>3d</fix>
</trkpt>
<trkpt lat="-35.363093" lon="149.1649181">
  <ele>682.29</ele>
  <time>2026-08-28T19:09:30Z</time>
  <course>233.43</course>
  <speed>9.136459927127136</speed>
  <fix>3d</fix>
</trkpt>
<trkpt lat="-35.3630869" lon="149.1649274">
  <ele>682.16</ele>
  <time>2026-08-28T19:09:30Z</time>
  <course>232.29</course>
  <speed>9.18</speed>
  <fix>3d</fix>
</trkpt>
<trkpt lat="-35.3631032" lon="149.1649022">
  <ele>682.29</ele>
  <time>2026-08-28T19:09:30Z</time>
  <course>233.16</course>
  <speed>9.108062362544516</speed>
  <fix>3d</fix>
</trkpt>
<trkpt lat="-35.363097" lon="149.1649114">
  <ele>682.16</ele>
  <time>2026-08-28T19:09:30Z</time>
  <course>231.97</course>
  <speed>9.14</speed>
  <fix>3d</fix>
</trkpt>
<trkpt lat="-35.3631134" lon="149.1648865">
  <ele>682.28</ele>
  <time>2026-08-28T19:09:30Z</time>
  <course>232.73</course>
  <speed>9.094135472929795</speed>
  <fix>3d</fix>
</trkpt>
<trkpt lat="-35.3631072" lon="149.1648956">
  <ele>682.16</ele>
  <time>2026-08-28T19:09:30Z</time>
  <course>231.59</course>
  <speed>9.11</speed>
  <fix>3d</fix>
</trkpt>
<trkpt lat="-35.3631237" lon="149.1648707">
  <ele>682.27</ele>
  <time>2026-08-28T19:09:30Z</time>
  <course>232.15</course>
  <speed>9.108786966440702</speed>
  <fix>3d</fix>
</trkpt>
<trkpt lat="-35.3631173" lon="149.1648799">
  <ele>682.15</ele>
  <time>2026-08-28T19:09:30Z</time>
  <course>231.17</course>
  <speed>9.1</speed>
  <fix>3d</fix>
</trkpt>
<trkpt lat="-35.3631341" lon="149.1648552">
  <ele>682.25</ele>
  <time>2026-08-28T19:09:30Z</time>
  <course>231.45</course>
  <speed>9.15848240703666</speed>
  <fix>3d</fix>
</trkpt>
<trkpt lat="-35.3631276" lon="149.1648644">
  <ele>682.14</ele>
  <time>2026-08-28T19:09:30Z</time>
  <course>230.7</course>
  <speed>9.12</speed>
  <fix>3d</fix>
</trkpt>
<trkpt lat="-35.3631447" lon="149.1648396">
  <ele>682.24</ele>
  <time>2026-08-28T19:09:30Z</time>
  <course>230.67</course>
  <speed>9.229371592909239</speed>
  <fix>3d</fix>
</trkpt>
<trkpt lat="-35.3631381" lon="149.1648488">
  <ele>682.12</ele>
  <time>2026-08-28T19:09:30Z</time>
  <course>230.19</course>
  <speed>9.17</speed>
  <fix>3d</fix>
</trkpt>
<trkpt lat="-35.3631556" lon="149.164824">
  <ele>682.22</ele>
  <time>2026-08-28T19:09:30Z</time>
  <course>229.84</course>
  <speed>9.322687380793159</speed>
  <fix>3d</fix>
</trkpt>
<trkpt lat="-35.3631488" lon="149.1648333">
  <ele>682.1</ele>
  <time>2026-08-28T19:09:30Z</time>
  <course>229.65</course>
  <speed>9.24</speed>
  <fix>3d</fix>
</trkpt>
<trkpt lat="-35.3631666" lon="149.1648083">
  <ele>682.21</ele>
  <time>2026-08-28T19:09:30Z</time>
  <course>229.08</course>
  <speed>9.416650147478137</speed>
  <fix>3d</fix>
</trkpt>
<trkpt lat="-35.3631597" lon="149.1648177">
  <ele>682.08</ele>
  <time>2026-08-28T19:09:30Z</time>
  <course>229.1</course>
  <speed>9.33</speed>
  <fix>3d</fix>
</trkpt>
<trkpt lat="-35.3631778" lon="149.1647927">
  <ele>682.2</ele>
  <time>2026-08-28T19:09:30Z</time>
  <course>228.42</course>
  <speed>9.511240718223885</speed>
  <fix>3d</fix>
</trkpt>
<trkpt lat="-35.3631708" lon="149.1648022">
  <ele>682.06</ele>
  <time>2026-08-28T19:09:30Z</time>
  <course>228.6</course>
  <speed>9.43</speed>
  <fix>3d</fix>
</trkpt>
<trkpt lat="-35.3631893" lon="149.164777">
  <ele>682.2</ele>
  <time>2026-08-28T19:09:30Z</time>
  <course>227.89</course>
  <speed>9.60712756238825</speed>
  <fix>3d</fix>
</trkpt>
<trkpt lat="-35.3631821" lon="149.1647866">
  <ele>682.06</ele>
  <time>2026-08-28T19:09:30Z</time>
  <course>228.16</course>
  <speed>9.52</speed>
  <fix>3d</fix>
</trkpt>
<trkpt lat="-35.3632009" lon="149.1647613">
  <ele>682.2</ele>
  <time>2026-08-28T19:09:30Z</time>
  <course>227.52</course>
  <speed>9.697277968584793</speed>
  <fix>3d</fix>
</trkpt>
<trkpt lat="-35.3631936" lon="149.1647709">
  <ele>682.06</ele>
  <time>2026-08-28T19:09:30Z</time>
  <course>227.81</course>
  <speed>9.62</speed>
  <fix>3d</fix>
</trkpt>
<trkpt lat="-35.3632127" lon="149.1647454">
  <ele>682.2</ele>
  <time>2026-08-28T19:09:30Z</time>
  <course>227.26</course>
  <speed>9.774052383735214</speed>
  <fix>3d</fix>
</trkpt>
<trkpt lat="-35.3632053" lon="149.1647552">
  <ele>682.06</ele>
  <time>2026-08-28T19:09:30Z</time>
  <course>227.56</course>
  <speed>9.71</speed>
  <fix>3d</fix>
</trkpt>
<trkpt lat="-35.3632246" lon="149.1647295">
  <ele>682.2</ele>
  <time>2026-08-28T19:09:30Z</time>
  <course>227.12</course>
  <speed>9.858240208069592</speed>
  <fix>3d</fix>
</trkpt>
<trkpt lat="-35.3632171" lon="149.1647393">
  <ele>682.06</ele>
  <time>2026-08-28T19:09:30Z</time>
  <course>227.41</course>
  <speed>9.79</speed>
  <fix>3d</fix>
</trkpt>
<trkpt lat="-35.3632367" lon="149.1647134">
  <ele>682.21</ele>
  <time>2026-08-28T19:09:30Z</time>
  <course>227.09</course>
  <speed>9.929476320531712</speed>
  <fix>3d</fix>
</trkpt>
<trkpt lat="-35.3632291" lon="149.1647234">
  <ele>682.07</ele>
  <time>2026-08-28T19:09:30Z</time>
  <course>227.35</course>
  <speed>9.87</speed>
  <fix>3d</fix>
</trkpt>
<trkpt lat="-35.3632488" lon="149.1646972">
  <ele>682.22</ele>
  <time>2026-08-28T19:09:30Z</time>
  <course>227.17</course>
  <speed>9.986596016661533</speed>
  <fix>3d</fix>
</trkpt>
<trkpt lat="-35.3632411" lon="149.1647073">
  <ele>682.07</ele>
  <time>2026-08-28T19:09:30Z</time>
  <course>227.37</course>
  <speed>9.94</speed>
  <fix>3d</fix>
</trkpt>
<trkpt lat="-35.3632609" lon="149.164681">
  <ele>682.23</ele>
  <time>2026-08-28T19:09:30Z</time>
  <course>227.35</course>
  <speed>10.036981617996517</speed>
  <fix>3d</fix>
</trkpt>
<trkpt lat="-35.3632532" lon="149.1646911">
  <ele>682.08</ele>
  <time>2026-08-28T19:09:30Z</time>
  <course>227.46</course>
  <speed>10.0</speed>
  <fix>3d</fix>
</trkpt>
<trkpt lat="-35.363273" lon="149.1646647">
  <ele>682.23</ele>
  <time>2026-08-28T19:09:30Z</time>
  <course>227.6</course>
  <speed>10.067233979599362</speed>
  <fix>3d</fix>
</trkpt>
<trkpt lat="-35.3632655" lon="149.1646748">
  <ele>682.09</ele>
  <time>2026-08-28T19:09:30Z</time>
  <course>227.62</course>
  <speed>10.04</speed>
  <fix>3d</fix>
</trkpt>
<trkpt lat="-35.3632851" lon="149.1646482">
  <ele>682.24</ele>
  <time>2026-08-28T19:09:30Z</time>
  <course>227.91</course>
  <speed>10.097653192697797</speed>
  <fix>3d</fix>
</trkpt>
<trkpt lat="-35.3632776" lon="149.1646584">
  <ele>682.1</ele>
  <time>2026-08-28T19:09:30Z</time>
  <course>227.83</course>
  <speed>10.08</speed>
  <fix>3d</fix>
</trkpt>
<trkpt lat="-35.3632972" lon="149.1646316">
  <ele>682.24</ele>
  <time>2026-08-28T19:09:30Z</time>
  <course>228.25</course>
  <speed>10.114939446185529</speed>
  <fix>3d</fix>
</trkpt>
<trkpt lat="-35.3632897" lon="149.1646419">
  <ele>682.11</ele>
  <time>2026-08-28T19:09:30Z</time>
  <course>228.08</course>
  <speed>10.11</speed>
  <fix>3d</fix>
</trkpt>
<trkpt lat="-35.3633092" lon="149.164615">
  <ele>682.25</ele>
  <time>2026-08-28T19:09:30Z</time>
  <course>228.6</course>
  <speed>10.125023456762953</speed>
  <fix>3d</fix>
</trkpt>
<trkpt lat="-35.3633019" lon="149.1646253">
  <ele>682.12</ele>
  <time>2026-08-28T19:09:30Z</time>
  <course>228.36</course>
  <speed>10.13</speed>
  <fix>3d</fix>
</trkpt>
<trkpt lat="-35.3633212" lon="149.1645982">
  <ele>682.25</ele>
  <time>2026-08-28T19:09:30Z</time>
  <course>228.99</course>
  <speed>10.135344098746721</speed>
  <fix>3d</fix>
</trkpt>
<trkpt lat="-35.363314" lon="149.1646086">
  <ele>682.13</ele>
  <time>2026-08-28T19:09:30Z</time>
  <course>228.65</course>
  <speed>10.14</speed>
  <fix>3d</fix>
</trkpt>
<trkpt lat="-35.3633332" lon="149.1645814">
  <ele>682.26</ele>
  <time>2026-08-28T19:09:30Z</time>
  <course>229.34</course>
  <speed>10.131796484335835</speed>
  <fix>3d</fix>
</trkpt>
<trkpt lat="-35.363326" lon="149.1645917">
  <ele>682.13</ele>
  <time>2026-08-28T19:09:30Z</time>
  <course>228.94</course>
  <speed>10.15</speed>
  <fix>3d</fix>
</trkpt>
<trkpt lat="-35.363345" lon="149.1645645">
  <ele>682.27</ele>
  <time>2026-08-28T19:09:30Z</time>
  <course>229.7</course>
  <speed>10.120894229266503</speed>
  <fix>3d</fix>
</trkpt>
<trkpt lat="-35.3633379" lon="149.1645748">
  <ele>682.14</ele>
  <time>2026-08-28T19:09:30Z</time>
  <course>229.22</course>
  <speed>10.15</speed>
  <fix>3d</fix>
</trkpt>
<trkpt lat="-35.3633568" lon="149.1645476">
  <ele>682.27</ele>
  <time>2026-08-28T19:09:30Z</time>
  <course>230.03</course>
  <speed>10.11017803997536</speed>
  <fix>3d</fix>
</trkpt>
<trkpt lat="-35.3633497" lon="149.1645578">
  <ele>682.14</ele>
  <time>2026-08-28T19:09:30Z</time>
  <course>229.47</course>
  <speed>10.14</speed>
  <fix>3d</fix>
</trkpt>
<trkpt lat="-35.3633686" lon="149.1645305">
  <ele>682.28</ele>
  <time>2026-08-28T19:09:30Z</time>
  <course>230.31</course>
  <speed>10.091996829171123</speed>
  <fix>3d</fix>
</trkpt>
<trkpt lat="-35.3633616" lon="149.1645409">
  <ele>682.14</ele>
  <time>2026-08-28T19:09:30Z</time>
  <course>229.71</course>
  <speed>10.12</speed>
  <fix>3d</fix>
</trkpt>
<trkpt lat="-35.3633803" lon="149.1645135">
  <ele>682.28</ele>
  <time>2026-08-28T19:09:30Z</time>
  <course>230.6</course>
  <speed>10.06628034578811</speed>
  <fix>3d</fix>
</trkpt>
<trkpt lat="-35.3633733" lon="149.1645238">
  <ele>682.14</ele>
  <time>2026-08-28T19:09:30Z</time>
  <course>229.91</course>
  <speed>10.1</speed>
  <fix>3d</fix>
</trkpt>
<trkpt lat="-35.3633919" lon="149.1644965">
  <ele>682.28</ele>
  <time>2026-08-28T19:09:30Z</time>
  <course>230.82</course>
  <speed>10.032970646822406</speed>
  <fix>3d</fix>
</trkpt>
<trkpt lat="-35.3633849" lon="149.1645068">
  <ele>682.14</ele>
  <time>2026-08-28T19:09:30Z</time>
  <course>230.07</course>
  <speed>10.07</speed>
  <fix>3d</fix>
</trkpt>
<trkpt lat="-35.3634035" lon="149.1644794">
  <ele>682.28</ele>
  <time>2026-08-28T19:09:30Z</time>
  <course>230.98</course>
  <speed>9.998409873574898</speed>
  <fix>3d</fix>
</trkpt>
<trkpt lat="-35.3633966" lon="149.1644898">
  <ele>682.14</ele>
  <time>2026-08-28T19:09:30Z</time>
  <course>230.2</course>
  <speed>10.04</speed>
  <fix>3d</fix>
</trkpt>
<trkpt lat="-35.363415" lon="149.1644625">
  <ele>682.28</ele>
  <time>2026-08-28T19:09:30Z</time>
  <course>231.07</course>
  <speed>9.963859693913799</speed>
  <fix>3d</fix>
</trkpt>
<trkpt lat="-35.3634081" lon="149.1644728">
  <ele>682.13</ele>
  <time>2026-08-28T19:09:30Z</time>
  <course>230.28</course>
  <speed>10.01</speed>
  <fix>3d</fix>
</trkpt>
<trkpt lat="-35.3634264" lon="149.1644456">
  <ele>682.27</ele>
  <time>2026-08-28T19:09:30Z</time>
  <course>231.11</course>
  <speed>9.935698264339553</speed>
  <fix>3d</fix>
</trkpt>
<trkpt lat="-35.3634196" lon="149.1644558">
  <ele>682.13</ele>
  <time>2026-08-28T19:09:30Z</time>
  <course>230.32</course>
  <speed>9.97</speed>
  <fix>3d</fix>
</trkpt>
<trkpt lat="-35.3634378" lon="149.1644287">
  <ele>682.26</ele>
  <time>2026-08-28T19:09:30Z</time>
  <course>231.07</course>
  <speed>9.899838382519182</speed>
  <fix>3d</fix>
</trkpt>
<trkpt lat="-35.363431" lon="149.164439">
  <ele>682.12</ele>
  <time>2026-08-28T19:09:30Z</time>
  <course>230.31</course>
  <speed>9.94</speed>
  <fix>3d</fix>
</trkpt>
<trkpt lat="-35.3634492" lon="149.1644119">
  <ele>682.25</ele>
  <time>2026-08-28T19:09:30Z</time>
  <course>231.0</course>
  <speed>9.87676566493303</speed>
  <fix>3d</fix>
</trkpt>
<trkpt lat="-35.3634423" lon="149.1644222">
  <ele>682.12</ele>
  <time>2026-08-28T19:09:30Z</time>
  <course>230.27</course>
  <speed>9.91</speed>
  <fix>3d</fix>
</trkpt>
<trkpt lat="-35.3634606" lon="149.1643952">
  <ele>682.25</ele>
  <time>2026-08-28T19:09:30Z</time>
  <course>230.86</course>
  <speed>9.853730258130675</speed>
  <fix>3d</fix>
</trkpt>
<trkpt lat="-35.3634538" lon="149.1644054">
  <ele>682.11</ele>
  <time>2026-08-28T19:09:30Z</time>
  <course>230.18</course>
  <speed>9.88</speed>
  <fix>3d</fix>
</trkpt>
<trkpt lat="-35.363472" lon="149.1643786">
  <ele>682.24</ele>
  <time>2026-08-28T19:09:30Z</time>
  <course>230.65</course>
  <speed>9.838394177913385</speed>
  <fix>3d</fix>
</trkpt>
<trkpt lat="-35.3634651" lon="149.1643887">
  <ele>682.1</ele>
  <time>2026-08-28T19:09:30Z</time>
  <course>230.07</course>
  <speed>9.86</speed>
  <fix>3d</fix>
</trkpt>
<trkpt lat="-35.3634834" lon="149.1643619">
  <ele>682.23</ele>
  <time>2026-08-28T19:09:30Z</time>
  <course>230.47</course>
  <speed>9.821863366999157</speed>
  <fix>3d</fix>
</trkpt>
<trkpt lat="-35.3634765" lon="149.164372">
  <ele>682.1</ele>
  <time>2026-08-28T19:09:30Z</time>
  <course>229.94</course>
  <speed>9.85</speed>
  <fix>3d</fix>
</trkpt>
<trkpt lat="-35.3634948" lon="149.1643454">
  <ele>682.23</ele>
  <time>2026-08-28T19:09:30Z</time>
  <course>230.27</course>
  <speed>9.819501005651967</speed>
  <fix>3d</fix>
</trkpt>
<trkpt lat="-35.3634879" lon="149.1643555">
  <ele>682.09</ele>
  <time>2026-08-28T19:09:30Z</time>
  <course>229.78</course>
  <speed>9.83</speed>
  <fix>3d</fix>
</trkpt>
<trkpt lat="-35.3635062" lon="149.164329">
  <ele>682.23</ele>
  <time>2026-08-28T19:09:30Z</time>
  <course>230.03</course>
  <speed>9.817219565640773</speed>
  <fix>3d</fix>
</trkpt>
<trkpt lat="-35.3634993" lon="149.1643389">
  <ele>682.09</ele>
  <time>2026-08-28T19:09:30Z</time>
  <course>229.62</course>
  <speed>9.82</speed>
  <fix>3d</fix>
</trkpt>
<trkpt lat="-35.3635176" lon="149.1643126">
  <ele>682.23</ele>
  <time>2026-08-28T19:09:30Z</time>
  <course>229.82</course>
  <speed>9.815019103394553</speed>
  <fix>3d</fix>
</trkpt>
<trkpt lat="-35.3635108" lon="149.1643224">
  <ele>682.09</ele>
  <time>2026-08-28T19:09:30Z</time>
  <course>229.45</course>
  <speed>9.82</speed>
  <fix>3d</fix>
</trkpt>
<trkpt lat="-35.3635292" lon="149.1642961">
  <ele>682.23</ele>
  <time>2026-08-28T19:09:30Z</time>
  <course>229.6</course>
  <speed>9.820473512005417</speed>
  <fix>3d</fix>
</trkpt>
<trkpt lat="-35.3635223" lon="149.164306">
  <ele>682.09</ele>
  <time>2026-08-28T19:09:30Z</time>
  <course>229.29</course>
  <speed>9.82</speed>
  <fix>3d</fix>
</trkpt>
<trkpt lat="-35.3635407" lon="149.1642798">
  <ele>682.23</ele>
  <time>2026-08-28T19:09:30Z</time>
  <course>229.39</course>
  <speed>9.82597577851686</speed>
  <fix>3d</fix>
</trkpt>
<trkpt lat="-35.3635338" lon="149.1642896">
  <ele>682.08</ele>
  <time>2026-08-28T19:09:30Z</time>
  <course>229.14</course>
  <speed>9.83</speed>
  <fix>3d</fix>
</trkpt>
<trkpt lat="-35.3635523" lon="149.1642634">
  <ele>682.23</ele>
  <time>2026-08-28T19:09:30Z</time>
  <course>229.2</course>
  <speed>9.845633549955025</speed>
  <fix>3d</fix>
</trkpt>
<trkpt lat="-35.3635454" lon="149.1642732">
  <ele>682.08</ele>
  <time>2026-08-28T19:09:30Z</time>
  <course>229.0</course>
  <speed>9.85</speed>
  <fix>3d</fix>
</trkpt>
<trkpt lat="-35.3635639" lon="149.1642471">
  <ele>682.23</ele>
  <time>2026-08-28T19:09:30Z</time>
  <course>229.03</course>
  <speed>9.858767671468884</speed>
  <fix>3d</fix>
</trkpt>
<trkpt lat="-35.363557" lon="149.1642568">
  <ele>682.08</ele>
  <time>2026-08-28T19:09:30Z</time>
  <course>228.87</course>
  <speed>9.87</speed>
  <fix>3d</fix>
</trkpt>
<trkpt lat="-35.3635756" lon="149.1642307">
  <ele>682.23</ele>
  <time>2026-08-28T19:09:30Z</time>
  <course>228.89</course>
  <speed>9.886035605843224</speed>
  <fix>3d</fix>
</trkpt>
<trkpt lat="-35.3635687" lon="149.1642405">
  <ele>682.07</ele>
  <time>2026-08-28T19:09:30Z</time>
  <course>228.77</course>
  <speed>9.89</speed>
  <fix>3d</fix>
</trkpt>
<trkpt lat="-35.3635873" lon="149.1642143">
  <ele>682.22</ele>
  <time>2026-08-28T19:09:30Z</time>
  <course>228.79</course>
  <speed>9.906735082760616</speed>
  <fix>3d</fix>
</trkpt>
<trkpt lat="-35.3635805" lon="149.164224">
  <ele>682.07</ele>
  <time>2026-08-28T19:09:30Z</time>
  <course>228.7</course>
  <speed>9.91</speed>
  <fix>3d</fix>
</trkpt>
<trkpt lat="-35.3635991" lon="149.1641978">
  <ele>682.22</ele>
  <time>2026-08-28T19:09:30Z</time>
  <course>228.7</course>
  <speed>9.934958480034025</speed>
  <fix>3d</fix>
</trkpt>
<trkpt lat="-35.3635922" lon="149.1642077">
  <ele>682.07</ele>
  <time>2026-08-28T19:09:30Z</time>
  <course>228.66</course>
  <speed>9.93</speed>
  <fix>3d</fix>
</trkpt>
<trkpt lat="-35.363611" lon="149.1641813">
  <ele>682.22</ele>
  <time>2026-08-28T19:09:30Z</time>
  <course>228.66</course>
  <speed>9.949070308325297</speed>
  <fix>3d</fix>
</trkpt>
<trkpt lat="-35.3636041" lon="149.1641912">
  <ele>682.07</ele>
  <time>2026-08-28T19:09:30Z</time>
  <course>228.64</course>
  <speed>9.96</speed>
  <fix>3d</fix>
</trkpt>
<trkpt lat="-35.3636228" lon="149.1641648">
  <ele>682.23</ele>
  <time>2026-08-28T19:09:30Z</time>
  <course>228.66</course>
  <speed>9.970702081598867</speed>
  <fix>3d</fix>
</trkpt>
<trkpt lat="-35.3636159" lon="149.1641747">
  <ele>682.07</ele>
  <time>2026-08-28T19:09:30Z</time>
  <course>228.64</course>
  <speed>9.98</speed>
  <fix>3d</fix>
</trkpt>
<trkpt lat="-35.3636347" lon="149.1641483">
  <ele>682.23</ele>
  <time>2026-08-28T19:09:30Z</time>
  <course>228.7</course>
  <speed>9.99233706397057</speed>
  <fix>3d</fix>
</trkpt>
<trkpt lat="-35.3636278" lon="149.1641581">
  <ele>682.07</ele>
  <time>2026-08-28T19:09:30Z</time>
  <course>228.67</course>
  <speed>10.0</speed>
  <fix>3d</fix>
</trkpt>
<trkpt lat="-35.3636466" lon="149.1641316">
  <ele>682.24</ele>
  <time>2026-08-28T19:09:30Z</time>
  <course>228.81</course>
  <speed>9.999864999088738</speed>
  <fix>3d</fix>
</trkpt>
<trkpt lat="-35.3636396" lon="149.1641416">
  <ele>682.08</ele>
  <time>2026-08-28T19:09:30Z</time>
  <course>228.72</course>
  <speed>10.01</speed>
  <fix>3d</fix>
</trkpt>
<trkpt lat="-35.3636584" lon="149.164115">
  <ele>682.24</ele>
  <time>2026-08-28T19:09:30Z</time>
  <course>228.92</course>
  <speed>10.008366500083817</speed>
  <fix>3d</fix>
</trkpt>
<trkpt lat="-35.3636515" lon="149.164125">
  <ele>682.08</ele>
  <time>2026-08-28T19:09:30Z</time>
  <course>228.79</course>
  <speed>10.02</speed>
  <fix>3d</fix>
</trkpt>
<trkpt lat="-35.3636703" lon="149.1640983">
  <ele>682.24</ele>
  <time>2026-08-28T19:09:30Z</time>
  <course>229.04</course>
  <speed>10.009355623615338</speed>
  <fix>3d</fix>
</trkpt>
<trkpt lat="-35.3636633" lon="149.1641083">
  <ele>682.08</ele>
  <time>2026-08-28T19:09:30Z</time>
  <course>228.88</course>
  <speed>10.02</speed>
  <fix>3d</fix>
</trkpt>
<trkpt lat="-35.3636821" lon="149.1640817">
  <ele>682.24</ele>
  <time>2026-08-28T19:09:30Z</time>
  <course>229.15</course>
  <speed>10.01139350939718</speed>
  <fix>3d</fix>
</trkpt>
<trkpt lat="-35.3636752" lon="149.1640917">
  <ele>682.08</ele>
  <time>2026-08-28T19:09:30Z</time>
  <course>228.99</course>
  <speed>10.03</speed>
  <fix>3d</fix>
</trkpt>
<trkpt lat="-35.3636939" lon="149.164065">
  <ele>682.24</ele>
  <time>2026-08-28T19:09:30Z</time>
  <course>229.26</course>
  <speed>10.012442259508916</speed>
  <fix>3d</fix>
</trkpt>
<trkpt lat="-35.363687" lon="149.164075">
  <ele>682.09</ele>
  <time>2026-08-28T19:09:30Z</time>
  <course>229.1</course>
  <speed>10.03</speed>
  <fix>3d</fix>
</trkpt>
<trkpt lat="-35.3637057" lon="149.1640482">
  <ele>682.24</ele>
  <time>2026-08-28T19:09:30Z</time>
  <course>229.36</course>
  <speed>10.021102733731453</speed>
  <fix>3d</fix>
</trkpt>
<trkpt lat="-35.3636987" lon="149.1640583">
  <ele>682.09</ele>
  <time>2026-08-28T19:09:30Z</time>
  <course>229.2</course>
  <speed>10.04</speed>
  <fix>3d</fix>
</trkpt>
<trkpt lat="-35.3637174" lon="149.1640315">
  <ele>682.24</ele>
  <time>2026-08-28T19:09:30Z</time>
  <course>229.46</course>
  <speed>10.022200357206994</speed>
  <fix>3d</fix>
</trkpt>
<trkpt lat="-35.3637106" lon="149.1640415">
  <ele>682.08</ele>
  <time>2026-08-28T19:09:30Z</time>
  <course>229.3</course>
  <speed>10.04</speed>
  <fix>3d</fix>
</trkpt>
<trkpt lat="-35.3637292" lon="149.1640146">
  <ele>682.24</ele>
  <time>2026-08-28T19:09:30Z</time>
  <course>229.56</course>
  <speed>10.023317813977565</speed>
  <fix>3d</fix>
</trkpt>
<trkpt lat="-35.3637223" lon="149.1640248">
  <ele>682.08</ele>
  <time>2026-08-28T19:09:30Z</time>
  <course>229.39</course>
  <speed>10.04</speed>
  <fix>3d</fix>
</trkpt>
<trkpt lat="-35.3637409" lon="149.1639978">
  <ele>682.25</ele>
  <time>2026-08-28T19:09:30Z</time>
  <course>229.64</course>
  <speed>10.016835827745206</speed>
  <fix>3d</fix>
</trkpt>
<trkpt lat="-35.3637341" lon="149.1640079">
  <ele>682.09</ele>
  <time>2026-08-28T19:09:30Z</time>
  <course>229.47</course>
  <speed>10.04</speed>
  <fix>3d</fix>
</trkpt>
<trkpt lat="-35.3637526" lon="149.163981">
  <ele>682.25</ele>
  <time>2026-08-28T19:09:30Z</time>
  <course>229.73</course>
  <speed>10.010359633899274</speed>
  <fix>3d</fix>
</trkpt>
<trkpt lat="-35.3637458" lon="149.163991">
  <ele>682.09</ele>
  <time>2026-08-28T19:09:30Z</time>
  <course>229.53</course>
  <speed>10.03</speed>
  <fix>3d</fix>
</trkpt>
<trkpt lat="-35.3637644" lon="149.163964">
  <ele>682.26</ele>
  <time>2026-08-28T19:09:30Z</time>
  <course>229.82</course>
  <speed>10.003889243689176</speed>
  <fix>3d</fix>
</trkpt>
<trkpt lat="-35.3637575" lon="149.1639742">
  <ele>682.09</ele>
  <time>2026-08-28T19:09:30Z</time>
  <course>229.58</course>
  <speed>10.03</speed>
  <fix>3d</fix>
</trkpt>
<trkpt lat="-35.3637761" lon="149.1639472">
  <ele>682.26</ele>
  <time>2026-08-28T19:09:30Z</time>
  <course>229.86</course>
  <speed>9.997424668383353</speed>
  <fix>3d</fix>
</trkpt>
<trkpt lat="-35.3637691" lon="149.1639574">
  <ele>682.08</ele>
  <time>2026-08-28T19:09:30Z</time>
  <course>229.61</course>
  <speed>10.02</speed>
  <fix>3d</fix>
</trkpt>
<trkpt lat="-35.3637877" lon="149.1639304">
  <ele>682.26</ele>
  <time>2026-08-28T19:09:30Z</time>
  <course>229.93</course>
  <speed>9.983331107400977</speed>
  <fix>3d</fix>
</trkpt>
<trkpt lat="-35.3637808" lon="149.1639406">
  <ele>682.08</ele>
  <time>2026-08-28T19:09:30Z</time>
  <course>229.64</course>
  <speed>10.01</speed>
  <fix>3d</fix>
</trkpt>
<trkpt lat="-35.3637993" lon="149.1639137">
  <ele>682.26</ele>
  <time>2026-08-28T19:09:30Z</time>
  <course>229.95</course>
  <speed>9.969237683995702</speed>
  <fix>3d</fix>
</trkpt>
<trkpt lat="-35.3637925" lon="149.1639238">
  <ele>682.08</ele>
  <time>2026-08-28T19:09:30Z</time>
  <course>229.65</course>
  <speed>10.0</speed>
  <fix>3d</fix>
</trkpt>
<trkpt lat="-35.3638109" lon="149.163897">
  <ele>682.25</ele>
  <time>2026-08-28T19:09:30Z</time>
  <course>229.95</course>
  <speed>9.961606296175331</speed>
  <fix>3d</fix>
</trkpt>
<trkpt lat="-35.363804" lon="149.163907">
  <ele>682.07</ele>
  <time>2026-08-28T19:09:30Z</time>
  <course>229.66</course>
  <speed>9.98</speed>
  <fix>3d</fix>
</trkpt>
<trkpt lat="-35.3638224" lon="149.1638803">
  <ele>682.24</ele>
  <time>2026-08-28T19:09:30Z</time>
  <course>229.9</course>
  <speed>9.961606296175331</speed>
  <fix>3d</fix>
</trkpt>
<trkpt lat="-35.3638157" lon="149.1638903">
  <ele>682.07</ele>
  <time>2026-08-28T19:09:30Z</time>
  <course>229.65</course>
  <speed>9.98</speed>
  <fix>3d</fix>
</trkpt>
<trkpt lat="-35.363834" lon="149.1638636">
  <ele>682.23</ele>
  <time>2026-08-28T19:09:30Z</time>
  <course>229.82</course>
  <speed>9.953979103855904</speed>
  <fix>3d</fix>
</trkpt>
<trkpt lat="-35.3638272" lon="149.1638735">
  <ele>682.06</ele>
  <time>2026-08-28T19:09:30Z</time>
  <course>229.63</course>
  <speed>9.98</speed>
  <fix>3d</fix>
</trkpt>
<trkpt lat="-35.3638457" lon="149.1638468">
  <ele>682.22</ele>
  <time>2026-08-28T19:09:30Z</time>
  <course>229.7</course>
  <speed>9.960451796981902</speed>
  <fix>3d</fix>
</trkpt>
<trkpt lat="-35.3638389" lon="149.1638568">
  <ele>682.06</ele>
  <time>2026-08-28T19:09:30Z</time>
  <course>229.59</course>
  <speed>9.98</speed>
  <fix>3d</fix>
</trkpt>
<trkpt lat="-35.3638573" lon="149.16383">
  <ele>682.21</ele>
  <time>2026-08-28T19:09:30Z</time>
  <course>229.59</course>
  <speed>9.966930319812615</speed>
  <fix>3d</fix>
</trkpt>
<trkpt lat="-35.3638505" lon="149.16384">
  <ele>682.05</ele>
  <time>2026-08-28T19:09:30Z</time>
  <course>229.54</course>
  <speed>9.98</speed>
  <fix>3d</fix>
</trkpt>
<trkpt lat="-35.363869" lon="149.1638133">
  <ele>682.2</ele>
  <time>2026-08-28T19:09:30Z</time>
  <course>229.49</course>
  <speed>9.965806540365913</speed>
  <fix>3d</fix>
</trkpt>
<trkpt lat="-35.3638622" lon="149.1638233">
  <ele>682.05</ele>
  <time>2026-08-28T19:09:30Z</time>
  <course>229.47</course>
  <speed>9.99</speed>
  <fix>3d</fix>
</trkpt>
<trkpt lat="-35.3638807" lon="149.1637966">
  <ele>682.2</ele>
  <time>2026-08-28T19:09:30Z</time>
  <course>229.43</course>
  <speed>9.964702705048456</speed>
  <fix>3d</fix>
</trkpt>
<trkpt lat="-35.3638739" lon="149.1638065">
  <ele>682.06</ele>
  <time>2026-08-28T19:09:30Z</time>
  <course>229.4</course>
  <speed>9.98</speed>
  <fix>3d</fix>
</trkpt>
<trkpt lat="-35.3638924" lon="149.1637799">
  <ele>682.21</ele>
  <time>2026-08-28T19:09:30Z</time>
  <course>229.39</course>
  <speed>9.957108013876319</speed>
  <fix>3d</fix>
</trkpt>
<trkpt lat="-35.3638856" lon="149.1637898">
  <ele>682.06</ele>
  <time>2026-08-28T19:09:30Z</time>
  <course>229.33</course>
  <speed>9.98</speed>
  <fix>3d</fix>
</trkpt>
<trkpt lat="-35.3639041" lon="149.1637632">
  <ele>682.21</ele>
  <time>2026-08-28T19:09:30Z</time>
  <course>229.35</course>
  <speed>9.956033346669747</speed>
  <fix>3d</fix>
</trkpt>
<trkpt lat="-35.3638973" lon="149.1637731">
  <ele>682.07</ele>
  <time>2026-08-28T19:09:30Z</time>
  <course>229.28</course>
  <speed>9.97</speed>
  <fix>3d</fix>
</trkpt>
<trkpt lat="-35.3639158" lon="149.1637466">
  <ele>682.22</ele>
  <time>2026-08-28T19:09:30Z</time>
  <course>229.28</course>
  <speed>9.956033346669747</speed>
  <fix>3d</fix>
</trkpt>
<trkpt lat="-35.3639089" lon="149.1637565">
  <ele>682.07</ele>
  <time>2026-08-28T19:09:30Z</time>
  <course>229.23</course>
  <speed>9.97</speed>
  <fix>3d</fix>
</trkpt>
<trkpt lat="-35.3639274" lon="149.16373">
  <ele>682.22</ele>
  <time>2026-08-28T19:09:30Z</time>
  <course>229.26</course>
  <speed>9.948452140911167</speed>
  <fix>3d</fix>
</trkpt>
<trkpt lat="-35.3639206" lon="149.1637399">
  <ele>682.08</ele>
  <time>2026-08-28T19:09:30Z</time>
  <course>229.19</course>
  <speed>9.97</speed>
  <fix>3d</fix>
</trkpt>
<trkpt lat="-35.3639391" lon="149.1637134">
  <ele>682.23</ele>
  <time>2026-08-28T19:09:30Z</time>
  <course>229.19</course>
  <speed>9.954978653919857</speed>
  <fix>3d</fix>
</trkpt>
<trkpt lat="-35.3639323" lon="149.1637233">
  <ele>682.09</ele>
  <time>2026-08-28T19:09:30Z</time>
  <course>229.16</course>
  <speed>9.97</speed>
  <fix>3d</fix>
</trkpt>
<trkpt lat="-35.3639508" lon="149.1636968">
  <ele>682.23</ele>
  <time>2026-08-28T19:09:30Z</time>
  <course>229.14</course>
  <speed>9.954978653919857</speed>
  <fix>3d</fix>
</trkpt>
<trkpt lat="-35.3639441" lon="149.1637066">
  <ele>682.09</ele>
  <time>2026-08-28T19:09:30Z</time>
  <course>229.13</course>
  <speed>9.97</speed>
  <fix>3d</fix>
</trkpt>
<trkpt lat="-35.3639626" lon="149.1636802">
  <ele>682.23</ele>
  <time>2026-08-28T19:09:30Z</time>
  <course>229.1</course>
  <speed>9.961510929572883</speed>
  <fix>3d</fix>
</trkpt>
<trkpt lat="-35.3639558" lon="149.1636901">
  <ele>682.09</ele>
  <time>2026-08-28T19:09:30Z</time>
  <course>229.12</course>
  <speed>9.97</speed>
  <fix>3d</fix>
</trkpt>
<trkpt lat="-35.3639744" lon="149.1636635">
  <ele>682.23</ele>
  <time>2026-08-28T19:09:30Z</time>
  <course>229.1</course>
  <speed>9.96908220449606</speed>
  <fix>3d</fix>
</trkpt>
<trkpt lat="-35.3639675" lon="149.1636734">
  <ele>682.09</ele>
  <time>2026-08-28T19:09:30Z</time>
  <course>229.11</course>
  <speed>9.98</speed>
  <fix>3d</fix>
</trkpt>
<trkpt lat="-35.3639861" lon="149.1636468">
  <ele>682.23</ele>
  <time>2026-08-28T19:09:30Z</time>
  <course>229.07</course>
  <speed>9.983185864241936</speed>
  <fix>3d</fix>
</trkpt>
<trkpt lat="-35.3639792" lon="149.1636567">
  <ele>682.09</ele>
  <time>2026-08-28T19:09:30Z</time>
  <course>229.11</course>
  <speed>9.99</speed>
  <fix>3d</fix>
</trkpt>
<trkpt lat="-35.3639979" lon="149.1636302">
  <ele>682.24</ele>
  <time>2026-08-28T19:09:30Z</time>
  <course>229.09</course>
  <speed>9.983185864241936</speed>
  <fix>3d</fix>
</trkpt>
<trkpt lat="-35.3639911" lon="149.1636401">
  <ele>682.1</ele>
  <time>2026-08-28T19:09:30Z</time>
  <course>229.11</course>
  <speed>9.99</speed>
  <fix>3d</fix>
</trkpt>
<trkpt lat="-35.3640097" lon="149.1636134">
  <ele>682.25</ele>
  <time>2026-08-28T19:09:30Z</time>
  <course>229.13</course>
  <speed>9.983185864241936</speed>
  <fix>3d</fix>
</trkpt>
<trkpt lat="-35.3640028" lon="149.1636234">
  <ele>682.1</ele>
  <time>2026-08-28T19:09:30Z</time>
  <course>229.12</course>
  <speed>9.99</speed>
  <fix>3d</fix>
</trkpt>
<trkpt lat="-35.3640215" lon="149.1635967">
  <ele>682.25</ele>
  <time>2026-08-28T19:09:30Z</time>
  <course>229.19</course>
  <speed>9.976657756984551</speed>
  <fix>3d</fix>
</trkpt>
<trkpt lat="-35.3640146" lon="149.1636068">
  <ele>682.1</ele>
  <time>2026-08-28T19:09:30Z</time>
  <course>229.13</course>
  <speed>9.99</speed>
  <fix>3d</fix>
</trkpt>
<trkpt lat="-35.3640332" lon="149.16358">
  <ele>682.25</ele>
  <time>2026-08-28T19:09:30Z</time>
  <course>229.22</course>
  <speed>9.976657756984551</speed>
  <fix>3d</fix>
</trkpt>
<trkpt lat="-35.3640263" lon="149.1635901">
  <ele>682.1</ele>
  <time>2026-08-28T19:09:30Z</time>
  <course>229.15</course>
  <speed>9.99</speed>
  <fix>3d</fix>
</trkpt>
<trkpt lat="-35.364045" lon="149.1635633">
  <ele>682.25</ele>
  <time>2026-08-28T19:09:31Z</time>
  <course>229.26</course>
  <speed>9.977720180482113</speed>
  <fix>3d</fix>
</trkpt>
<trkpt lat="-35.3640381" lon="149.1635734">
  <ele>682.1</ele>
  <time>2026-08-28T19:09:31Z</time>
  <course>229.19</course>
  <speed>9.99</speed>
  <fix>3d</fix>
</trkpt>
<trkpt lat="-35.3640567" lon="149.1635466">
  <ele>682.25</ele>
  <time>2026-08-28T19:09:31Z</time>
  <course>229.29</course>
  <speed>9.977720180482113</speed>
  <fix>3d</fix>
</trkpt>
<trkpt lat="-35.3640498" lon="149.1635568">
  <ele>682.1</ele>
  <time>2026-08-28T19:09:31Z</time>
  <course>229.22</course>
  <speed>9.98</speed>
  <fix>3d</fix>
</trkpt>
<trkpt lat="-35.3640685" lon="149.1635299">
  <ele>682.25</ele>
  <time>2026-08-28T19:09:31Z</time>
  <course>229.31</course>
  <speed>9.97120855262791</speed>
  <fix>3d</fix>
</trkpt>
<trkpt lat="-35.3640615" lon="149.1635401">
  <ele>682.09</ele>
  <time>2026-08-28T19:09:31Z</time>
  <course>229.26</course>
  <speed>9.98</speed>
  <fix>3d</fix>
</trkpt>
<trkpt lat="-35.3640802" lon="149.1635132">
  <ele>682.24</ele>
  <time>2026-08-28T19:09:31Z</time>
  <course>229.33</course>
  <speed>9.978802533370423</speed>
  <fix>3d</fix>
</trkpt>
<trkpt lat="-35.3640732" lon="149.1635235">
  <ele>682.09</ele>
  <time>2026-08-28T19:09:31Z</time>
  <course>229.29</course>
  <speed>9.98</speed>
  <fix>3d</fix>
</trkpt>
<trkpt lat="-35.3640919" lon="149.1634964">
  <ele>682.24</ele>
  <time>2026-08-28T19:09:31Z</time>
  <course>229.34</course>
  <speed>9.978802533370423</speed>
  <fix>3d</fix>
</trkpt>
<trkpt lat="-35.3640849" lon="149.1635068">
  <ele>682.09</ele>
  <time>2026-08-28T19:09:31Z</time>
  <course>229.31</course>
  <speed>9.98</speed>
  <fix>3d</fix>
</trkpt>
<trkpt lat="-35.3641036" lon="149.1634797">
  <ele>682.24</ele>
  <time>2026-08-28T19:09:31Z</time>
  <course>229.35</course>
  <speed>9.972301640042785</speed>
  <fix>3d</fix>
</trkpt>
<trkpt lat="-35.3640966" lon="149.1634901">
  <ele>682.09</ele>
  <time>2026-08-28T19:09:31Z</time>
  <course>229.34</course>
  <speed>9.98</speed>
  <fix>3d</fix>
</trkpt>
<trkpt lat="-35.3641153" lon="149.1634632">
  <ele>682.24</ele>
  <time>2026-08-28T19:09:31Z</time>
  <course>229.39</course>
  <speed>9.972301640042785</speed>
  <fix>3d</fix>
</trkpt>
<trkpt lat="-35.3641083" lon="149.1634733">
  <ele>682.08</ele>
  <time>2026-08-28T19:09:31Z</time>
  <course>229.35</course>
  <speed>9.98</speed>
  <fix>3d</fix>
</trkpt>
<trkpt lat="-35.3641269" lon="149.1634465">
  <ele>682.24</ele>
  <time>2026-08-28T19:09:31Z</time>
  <course>229.4</course>
  <speed>9.964702705048456</speed>
  <fix>3d</fix>
</trkpt>
<trkpt lat="-35.36412" lon="149.1634567">
  <ele>682.08</ele>
  <time>2026-08-28T19:09:31Z</time>
  <course>229.37</course>
  <speed>9.98</speed>
  <fix>3d</fix>
</trkpt>
<trkpt lat="-35.3641386" lon="149.1634298">
  <ele>682.24</ele>
  <time>2026-08-28T19:09:31Z</time>
  <course>229.37</course>
  <speed>9.965806540365913</speed>
  <fix>3d</fix>
</trkpt>
<trkpt lat="-35.3641316" lon="149.16344">
  <ele>682.08</ele>
  <time>2026-08-28T19:09:31Z</time>
  <course>229.38</course>
  <speed>9.98</speed>
  <fix>3d</fix>
</trkpt>
<trkpt lat="-35.3641502" lon="149.1634132">
  <ele>682.24</ele>
  <time>2026-08-28T19:09:31Z</time>
  <course>229.34</course>
  <speed>9.972301640042785</speed>
  <fix>3d</fix>
</trkpt>
<trkpt lat="-35.3641433" lon="149.1634233">
  <ele>682.08</ele>
  <time>2026-08-28T19:09:31Z</time>
  <course>229.39</course>
  <speed>9.98</speed>
  <fix>3d</fix>
</trkpt>
<trkpt lat="-35.3641618" lon="149.1633966">
  <ele>682.23</ele>
  <time>2026-08-28T19:09:31Z</time>
  <course>229.31</course>
  <speed>9.972301640042785</speed>
  <fix>3d</fix>
</trkpt>
<trkpt lat="-35.364155" lon="149.1634066">
  <ele>682.08</ele>
  <time>2026-08-28T19:09:31Z</time>
  <course>229.39</course>
  <speed>9.99</speed>
  <fix>3d</fix>
</trkpt>
<trkpt lat="-35.3641735" lon="149.1633799">
  <ele>682.23</ele>
  <time>2026-08-28T19:09:31Z</time>
  <course>229.28</course>
  <speed>9.986400753024085</speed>
  <fix>3d</fix>
</trkpt>
<trkpt lat="-35.3641667" lon="149.1633899">
  <ele>682.07</ele>
  <time>2026-08-28T19:09:31Z</time>
  <course>229.38</course>
  <speed>9.99</speed>
  <fix>3d</fix>
</trkpt>
<trkpt lat="-35.3641851" lon="149.1633632">
  <ele>682.23</ele>
  <time>2026-08-28T19:09:31Z</time>
  <course>229.25</course>
  <speed>9.986400753024085</speed>
  <fix>3d</fix>
</trkpt>
<trkpt lat="-35.3641784" lon="149.1633732">
  <ele>682.07</ele>
  <time>2026-08-28T19:09:31Z</time>
  <course>229.37</course>
  <speed>10.0</speed>
  <fix>3d</fix>
</trkpt>
<trkpt lat="-35.3641968" lon="149.1633466">
  <ele>682.24</ele>
  <time>2026-08-28T19:09:31Z</time>
  <course>229.22</course>
  <speed>9.992902481261387</speed>
  <fix>3d</fix>
</trkpt>
<trkpt lat="-35.3641901" lon="149.1633565">
  <ele>682.07</ele>
  <time>2026-08-28T19:09:31Z</time>
  <course>229.35</course>
  <speed>10.01</speed>
  <fix>3d</fix>
</trkpt>
<trkpt lat="-35.3642086" lon="149.1633298">
  <ele>682.24</ele>
  <time>2026-08-28T19:09:31Z</time>
  <course>229.21</course>
  <speed>10.007002548215924</speed>
  <fix>3d</fix>
</trkpt>
<trkpt lat="-35.3642018" lon="149.1633397">
  <ele>682.07</ele>
  <time>2026-08-28T19:09:31Z</time>
  <course>229.34</course>
  <speed>10.02</speed>
  <fix>3d</fix>
</trkpt>
<trkpt lat="-35.3642203" lon="149.163313">
  <ele>682.25</ele>
  <time>2026-08-28T19:09:31Z</time>
  <course>229.21</course>
  <speed>10.007002548215924</speed>
  <fix>3d</fix>
</trkpt>
<trkpt lat="-35.3642136" lon="149.163323">
  <ele>682.07</ele>
  <time>2026-08-28T19:09:31Z</time>
  <course>229.32</course>
  <speed>10.03</speed>
  <fix>3d</fix>
</trkpt>
<trkpt lat="-35.3642321" lon="149.1632963">
  <ele>682.24</ele>
  <time>2026-08-28T19:09:31Z</time>
  <course>229.2</course>
  <speed>10.013510872815788</speed>
  <fix>3d</fix>
</trkpt>
<trkpt lat="-35.3642253" lon="149.1633062">
  <ele>682.07</ele>
  <time>2026-08-28T19:09:31Z</time>
  <course>229.3</course>
  <speed>10.03</speed>
  <fix>3d</fix>
</trkpt>
<trkpt lat="-35.3642438" lon="149.1632795">
  <ele>682.24</ele>
  <time>2026-08-28T19:09:31Z</time>
  <course>229.23</course>
  <speed>10.013510872815788</speed>
  <fix>3d</fix>
</trkpt>
<trkpt lat="-35.3642371" lon="149.1632894">
  <ele>682.07</ele>
  <time>2026-08-28T19:09:31Z</time>
  <course>229.29</course>
  <speed>10.04</speed>
  <fix>3d</fix>
</trkpt>
<trkpt lat="-35.3642557" lon="149.1632626">
  <ele>682.24</ele>
  <time>2026-08-28T19:09:31Z</time>
  <course>229.25</course>
  <speed>10.013510872815788</speed>
  <fix>3d</fix>
</trkpt>
<trkpt lat="-35.3642489" lon="149.1632725">
  <ele>682.07</ele>
  <time>2026-08-28T19:09:31Z</time>
  <course>229.29</course>
  <speed>10.04</speed>
  <fix>3d</fix>
</trkpt>
<trkpt lat="-35.3642674" lon="149.1632459">
  <ele>682.24</ele>
  <time>2026-08-28T19:09:31Z</time>
  <course>229.26</course>
  <speed>10.007002548215924</speed>
  <fix>3d</fix>
</trkpt>
<trkpt lat="-35.3642606" lon="149.1632558">
  <ele>682.07</ele>
  <time>2026-08-28T19:09:31Z</time>
  <course>229.29</course>
  <speed>10.03</speed>
  <fix>3d</fix>
</trkpt>
<trkpt lat="-35.3642792" lon="149.1632291">
  <ele>682.23</ele>
  <time>2026-08-28T19:09:31Z</time>
  <course>229.29</course>
  <speed>10.007002548215924</speed>
  <fix>3d</fix>
</trkpt>
<trkpt lat="-35.3642724" lon="149.1632391">
  <ele>682.07</ele>
  <time>2026-08-28T19:09:31Z</time>
  <course>229.29</course>
  <speed>10.03</speed>
  <fix>3d</fix>
</trkpt>
<trkpt lat="-35.364291" lon="149.1632123">
  <ele>682.22</ele>
  <time>2026-08-28T19:09:31Z</time>
  <course>229.29</course>
  <speed>9.999409982593972</speed>
  <fix>3d</fix>
</trkpt>
<trkpt lat="-35.3642841" lon="149.1632223">
  <ele>682.07</ele>
  <time>2026-08-28T19:09:31Z</time>
  <course>229.3</course>
  <speed>10.02</speed>
  <fix>3d</fix>
</trkpt>
<trkpt lat="-35.3643027" lon="149.1631956">
  <ele>682.22</ele>
  <time>2026-08-28T19:09:31Z</time>
  <course>229.29</course>
  <speed>9.992902481261387</speed>
  <fix>3d</fix>
</trkpt>
<trkpt lat="-35.3642959" lon="149.1632056">
  <ele>682.07</ele>
  <time>2026-08-28T19:09:31Z</time>
  <course>229.31</course>
  <speed>10.01</speed>
  <fix>3d</fix>
</trkpt>
<trkpt lat="-35.3643144" lon="149.1631788">
  <ele>682.22</ele>
  <time>2026-08-28T19:09:31Z</time>
  <course>229.29</course>
  <speed>9.978802533370423</speed>
  <fix>3d</fix>
</trkpt>
<trkpt lat="-35.3643076" lon="149.1631889">
  <ele>682.07</ele>
  <time>2026-08-28T19:09:31Z</time>
  <course>229.31</course>
  <speed>10.0</speed>
  <fix>3d</fix>
</trkpt>
<trkpt lat="-35.3643262" lon="149.1631621">
  <ele>682.21</ele>
  <time>2026-08-28T19:09:31Z</time>
  <course>229.29</course>
  <speed>9.978802533370423</speed>
  <fix>3d</fix>
</trkpt>
<trkpt lat="-35.3643193" lon="149.1631722">
  <ele>682.07</ele>
  <time>2026-08-28T19:09:31Z</time>
  <course>229.31</course>
  <speed>9.99</speed>
  <fix>3d</fix>
</trkpt>
<trkpt lat="-35.3643379" lon="149.1631453">
  <ele>682.21</ele>
  <time>2026-08-28T19:09:31Z</time>
  <course>229.28</course>
  <speed>9.97120855262791</speed>
  <fix>3d</fix>
</trkpt>
<trkpt lat="-35.364331" lon="149.1631555">
  <ele>682.08</ele>
  <time>2026-08-28T19:09:31Z</time>
  <course>229.32</course>
  <speed>9.98</speed>
  <fix>3d</fix>
</trkpt>
<trkpt lat="-35.3643496" lon="149.1631287">
  <ele>682.21</ele>
  <time>2026-08-28T19:09:31Z</time>
  <course>229.26</course>
  <speed>9.964702705048456</speed>
  <fix>3d</fix>
</trkpt>
<trkpt lat="-35.3643427" lon="149.1631388">
  <ele>682.08</ele>
  <time>2026-08-28T19:09:31Z</time>
  <course>229.31</course>
  <speed>9.98</speed>
  <fix>3d</fix>
</trkpt>
<trkpt lat="-35.3643613" lon="149.163112">
  <ele>682.22</ele>
  <time>2026-08-28T19:09:31Z</time>
  <course>229.25</course>
  <speed>9.957108013876319</speed>
  <fix>3d</fix>
</trkpt>
<trkpt lat="-35.3643544" lon="149.1631221">
  <ele>682.09</ele>
  <time>2026-08-28T19:09:31Z</time>
  <course>229.31</course>
  <speed>9.97</speed>
  <fix>3d</fix>
</trkpt>
<trkpt lat="-35.364373" lon="149.1630953">
  <ele>682.23</ele>
  <time>2026-08-28T19:09:31Z</time>
  <course>229.22</course>
  <speed>9.943007593278807</speed>
  <fix>3d</fix>
</trkpt>
<trkpt lat="-35.3643661" lon="149.1631054">
  <ele>682.09</ele>
  <time>2026-08-28T19:09:31Z</time>
  <course>229.31</course>
  <speed>9.96</speed>
  <fix>3d</fix>
</trkpt>
<trkpt lat="-35.3643847" lon="149.1630787">
  <ele>682.24</ele>
  <time>2026-08-28T19:09:31Z</time>
  <course>229.3</course>
  <speed>9.900707045458926</speed>
  <fix>3d</fix>
</trkpt>
<trkpt lat="-35.3643778" lon="149.1630888">
  <ele>682.1</ele>
  <time>2026-08-28T19:09:31Z</time>
  <course>229.31</course>
  <speed>9.94</speed>
  <fix>3d</fix>
</trkpt>
<trkpt lat="-35.3643963" lon="149.1630621">
  <ele>682.26</ele>
  <time>2026-08-28T19:09:31Z</time>
  <course>229.59</course>
  <speed>9.815019103394553</speed>
  <fix>3d</fix>
</trkpt>
<trkpt lat="-35.3643893" lon="149.1630722">
  <ele>682.11</ele>
  <time>2026-08-28T19:09:31Z</time>
  <course>229.3</course>
  <speed>9.88</speed>
  <fix>3d</fix>
</trkpt>
<trkpt lat="-35.3644077" lon="149.1630458">
  <ele>682.29</ele>
  <time>2026-08-28T19:09:31Z</time>
  <course>230.01</course>
  <speed>9.658830156908238</speed>
  <fix>3d</fix>
</trkpt>
<trkpt lat="-35.3644008" lon="149.1630558">
  <ele>682.13</ele>
  <time>2026-08-28T19:09:31Z</time>
  <course>229.3</course>
  <speed>9.77</speed>
  <fix>3d</fix>
</trkpt>
<trkpt lat="-35.3644189" lon="149.1630298">
  <ele>682.33</ele>
  <time>2026-08-28T19:09:31Z</time>
  <course>230.55</course>
  <speed>9.453829911734186</speed>
  <fix>3d</fix>
</trkpt>
<trkpt lat="-35.3644122" lon="149.1630396">
  <ele>682.16</ele>
  <time>2026-08-28T19:09:31Z</time>
  <course>229.33</course>
  <speed>9.61</speed>
  <fix>3d</fix>
</trkpt>
<trkpt lat="-35.3644299" lon="149.1630142">
  <ele>682.36</ele>
  <time>2026-08-28T19:09:31Z</time>
  <course>231.12</course>
  <speed>9.200048912913452</speed>
  <fix>3d</fix>
</trkpt>
<trkpt lat="-35.3644234" lon="149.1630237">
  <ele>682.19</ele>
  <time>2026-08-28T19:09:31Z</time>
  <course>229.41</course>
  <speed>9.39</speed>
  <fix>3d</fix>
</trkpt>
<trkpt lat="-35.3644405" lon="149.1629989">
  <ele>682.39</ele>
  <time>2026-08-28T19:09:31Z</time>
  <course>231.66</course>
  <speed>8.91049942483585</speed>
  <fix>3d</fix>
</trkpt>
<trkpt lat="-35.3644342" lon="149.1630082">
  <ele>682.23</ele>
  <time>2026-08-28T19:09:31Z</time>
  <course>229.54</course>
  <speed>9.13</speed>
  <fix>3d</fix>
</trkpt>
<trkpt lat="-35.3644507" lon="149.1629841">
  <ele>682.4</ele>
  <time>2026-08-28T19:09:31Z</time>
  <course>232.16</course>
  <speed>8.564607404896035</speed>
  <fix>3d</fix>
</trkpt>
<trkpt lat="-35.3644446" lon="149.1629932">
  <ele>682.25</ele>
  <time>2026-08-28T19:09:31Z</time>
  <course>229.71</course>
  <speed>8.82</speed>
  <fix>3d</fix>
</trkpt>
<trkpt lat="-35.3644604" lon="149.16297">
  <ele>682.42</ele>
  <time>2026-08-28T19:09:31Z</time>
  <course>232.62</course>
  <speed>8.176502919953004</speed>
  <fix>3d</fix>
</trkpt>
<trkpt lat="-35.3644546" lon="149.1629786">
  <ele>682.26</ele>
  <time>2026-08-28T19:09:31Z</time>
  <course>229.9</course>
  <speed>8.46</speed>
  <fix>3d</fix>
</trkpt>
<trkpt lat="-35.3644696" lon="149.1629566">
  <ele>682.42</ele>
  <time>2026-08-28T19:09:31Z</time>
  <course>233.01</course>
  <speed>7.7590527772402735</speed>
  <fix>3d</fix>
</trkpt>
<trkpt lat="-35.3644642" lon="149.1629646">
  <ele>682.27</ele>
  <time>2026-08-28T19:09:31Z</time>
  <course>230.09</course>
  <speed>8.07</speed>
  <fix>3d</fix>
</trkpt>
<trkpt lat="-35.3644783" lon="149.1629438">
  <ele>682.41</ele>
  <time>2026-08-28T19:09:31Z</time>
  <course>233.33</course>
  <speed>7.285300268348587</speed>
  <fix>3d</fix>
</trkpt>
<trkpt lat="-35.3644733" lon="149.1629513">
  <ele>682.27</ele>
  <time>2026-08-28T19:09:31Z</time>
  <course>230.29</course>
  <speed>7.62</speed>
  <fix>3d</fix>
</trkpt>
<trkpt lat="-35.3644865" lon="149.1629318">
  <ele>682.4</ele>
  <time>2026-08-28T19:09:31Z</time>
  <course>233.57</course>
  <speed>6.76804994071409</speed>
  <fix>3d</fix>
</trkpt>
<trkpt lat="-35.3644817" lon="149.1629388">
  <ele>682.26</ele>
  <time>2026-08-28T19:09:31Z</time>
  <course>230.47</course>
  <speed>7.14</speed>
  <fix>3d</fix>
</trkpt>
<trkpt lat="-35.3644939" lon="149.1629207">
  <ele>682.39</ele>
  <time>2026-08-28T19:09:31Z</time>
  <course>233.78</course>
  <speed>6.221334262037365</speed>
  <fix>3d</fix>
</trkpt>
<trkpt lat="-35.3644896" lon="149.1629271">
  <ele>682.25</ele>
  <time>2026-08-28T19:09:31Z</time>
  <course>230.64</course>
  <speed>6.61</speed>
  <fix>3d</fix>
</trkpt>
<trkpt lat="-35.3645007" lon="149.1629105">
  <ele>682.37</ele>
  <time>2026-08-28T19:09:31Z</time>
  <course>233.99</course>
  <speed>5.654166605256694</speed>
  <fix>3d</fix>
</trkpt>
<trkpt lat="-35.3644968" lon="149.1629163">
  <ele>682.24</ele>
  <time>2026-08-28T19:09:31Z</time>
  <course>230.8</course>
  <speed>6.06</speed>
  <fix>3d</fix>
</trkpt>
<trkpt lat="-35.3645069" lon="149.1629013">
  <ele>682.34</ele>
  <time>2026-08-28T19:09:31Z</time>
  <course>234.3</course>
  <speed>5.0743472486616445</speed>
  <fix>3d</fix>
</trkpt>
<trkpt lat="-35.3645032" lon="149.1629064">
  <ele>682.22</ele>
  <time>2026-08-28T19:09:31Z</time>
  <course>231.05</course>
  <speed>5.48</speed>
  <fix>3d</fix>
</trkpt>
<trkpt lat="-35.3645122" lon="149.1628929">
  <ele>682.31</ele>
  <time>2026-08-28T19:09:31Z</time>
  <course>234.93</course>
  <speed>4.491603277227409</speed>
  <fix>3d</fix>
</trkpt>
<trkpt lat="-35.3645091" lon="149.1628974">
  <ele>682.19</ele>
  <time>2026-08-28T19:09:31Z</time>
  <course>231.6</course>
  <speed>4.89</speed>
  <fix>3d</fix>
</trkpt>
<trkpt lat="-35.3645168" lon="149.1628855">
  <ele>682.28</ele>
  <time>2026-08-28T19:09:31Z</time>
  <course>236.21</course>
  <speed>3.902025115244647</speed>
  <fix>3d</fix>
</trkpt>
<trkpt lat="-35.3645142" lon="149.1628895">
  <ele>682.16</ele>
  <time>2026-08-28T19:09:31Z</time>
  <course>232.73</course>
  <speed>4.31</speed>
  <fix>3d</fix>
</trkpt>
<trkpt lat="-35.3645206" lon="149.1628789">
  <ele>682.23</ele>
  <time>2026-08-28T19:09:31Z</time>
  <course>238.56</course>
  <speed>3.3226645933647894</speed>
  <fix>3d</fix>
</trkpt>
<trkpt lat="-35.3645185" lon="149.1628823">
  <ele>682.11</ele>
  <time>2026-08-28T19:09:31Z</time>
  <course>234.8</course>
  <speed>3.72</speed>
  <fix>3d</fix>
</trkpt>
<trkpt lat="-35.3645235" lon="149.162873">
  <ele>682.18</ele>
  <time>2026-08-28T19:09:31Z</time>
  <course>242.4</course>
  <speed>2.766224864323217</speed>
  <fix>3d</fix>
</trkpt>
<trkpt lat="-35.3645219" lon="149.162876">
  <ele>682.06</ele>
  <time>2026-08-28T19:09:31Z</time>
  <course>238.32</course>
  <speed>3.15</speed>
  <fix>3d</fix>
</trkpt>
<trkpt lat="-35.3645254" lon="149.1628679">
  <ele>682.12</ele>
  <time>2026-08-28T19:09:31Z</time>
  <course>248.45</course>
  <speed>2.25656819085974</speed>
  <fix>3d</fix>
</trkpt>
<trkpt lat="-35.3645244" lon="149.1628705">
  <ele>682.01</ele>
  <time>2026-08-28T19:09:31Z</time>
  <course>244.2</course>
  <speed>2.6</speed>
  <fix>3d</fix>
</trkpt>
<trkpt lat="-35.3645263" lon="149.1628635">
  <ele>682.04</ele>
  <time>2026-08-28T19:09:31Z</time>
  <course>257.68</course>
  <speed>1.845670609832643</speed>
  <fix>3d</fix>
</trkpt>
<trkpt lat="-35.364526" lon="149.1628657">
  <ele>681.94</ele>
  <time>2026-08-28T19:09:31Z</time>
  <course>253.87</course>
  <speed>2.12</speed>
  <fix>3d</fix>
</trkpt>
<trkpt lat="-35.3645262" lon="149.1628596">
  <ele>681.96</ele>
  <time>2026-08-28T19:09:31Z</time>
  <course>269.12</course>
  <speed>1.6552945357246849</speed>
  <fix>3d</fix>
</trkpt>
<trkpt lat="-35.3645265" lon="149.1628615">
  <ele>681.87</ele>
  <time>2026-08-28T19:09:31Z</time>
  <course>269.26</course>
  <speed>1.78</speed>
  <fix>3d</fix>
</trkpt>
<trkpt lat="-35.3645251" lon="149.162856">
  <ele>681.88</ele>
  <time>2026-08-28T19:09:31Z</time>
  <course>279.56</course>
  <speed>1.7670880000724356</speed>
  <fix>3d</fix>
</trkpt>
<trkpt lat="-35.3645261" lon="149.1628577">
  <ele>681.79</ele>
  <time>2026-08-28T19:09:31Z</time>
  <course>289.65</course>
  <speed>1.68</speed>
  <fix>3d</fix>
</trkpt>
<trkpt lat="-35.3645228" lon="149.1628527">
  <ele>681.78</ele>
  <time>2026-08-28T19:09:31Z</time>
  <course>289.93</course>
  <speed>2.1162466774929616</speed>
  <fix>3d</fix>
</trkpt>
<trkpt lat="-35.3645246" lon="149.1628544">
  <ele>681.7</ele>
  <time>2026-08-28T19:09:31Z</time>
  <course>308.44</course>
  <speed>1.88</speed>
  <fix>3d</fix>
</trkpt>
<trkpt lat="-35.3645196" lon="149.1628495">
  <ele>681.66</ele>
  <time>2026-08-28T19:09:31Z</time>
  <course>300.56</course>
  <speed>2.6210112552219234</speed>
  <fix>3d</fix>
</trkpt>
<trkpt lat="-35.3645219" lon="149.1628512">
  <ele>681.59</ele>
  <time>2026-08-28T19:09:31Z</time>
  <course>321.16</course>
  <speed>2.29</speed>
  <fix>3d</fix>
</trkpt>
<trkpt lat="-35.3645151" lon="149.1628462">
  <ele>681.53</ele>
  <time>2026-08-28T19:09:31Z</time>
  <course>311.64</course>
  <speed>3.2117907777437806</speed>
  <fix>3d</fix>
</trkpt>
<trkpt lat="-35.3645181" lon="149.1628481">
  <ele>681.47</ele>
  <time>2026-08-28T19:09:31Z</time>
  <course>328.85</course>
  <speed>2.82</speed>
  <fix>3d</fix>
</trkpt>
<trkpt lat="-35.3645094" lon="149.1628428">
  <ele>681.37</ele>
  <time>2026-08-28T19:09:31Z</time>
  <course>323.37</course>
  <speed>3.8624474106452245</speed>
  <fix>3d</fix>
</trkpt>
<trkpt lat="-35.3645132" lon="149.1628448">
  <ele>681.32</ele>
  <time>2026-08-28T19:09:31Z</time>
  <course>333.53</course>
  <speed>3.42</speed>
  <fix>3d</fix>
</trkpt>
<trkpt lat="-35.3645025" lon="149.1628392">
  <ele>681.2</ele>
  <time>2026-08-28T19:09:31Z</time>
  <course>335.41</course>
  <speed>4.547724705828179</speed>
  <fix>3d</fix>
</trkpt>
<trkpt lat="-35.3645071" lon="149.1628413">
  <ele>681.16</ele>
  <time>2026-08-28T19:09:31Z</time>
  <course>336.62</course>
  <speed>4.08</speed>
  <fix>3d</fix>
</trkpt>
<trkpt lat="-35.3644943" lon="149.1628354">
  <ele>681.01</ele>
  <time>2026-08-28T19:09:31Z</time>
  <course>338.83</course>
  <speed>5.218620507375489</speed>
  <fix>3d</fix>
</trkpt>
<trkpt lat="-35.3644998" lon="149.1628376">
  <ele>680.99</ele>
  <time>2026-08-28T19:09:31Z</time>
  <course>339.07</course>
  <speed>4.76</speed>
  <fix>3d</fix>
</trkpt>
<trkpt lat="-35.364485" lon="149.1628314">
  <ele>680.81</ele>
  <time>2026-08-28T19:09:31Z</time>
  <course>339.45</course>
  <speed>5.843902805488812</speed>
  <fix>3d</fix>
</trkpt>
<trkpt lat="-35.3644912" lon="149.1628337">
  <ele>680.8</ele>
  <time>2026-08-28T19:09:31Z</time>
  <course>340.72</course>
  <speed>5.42</speed>
  <fix>3d</fix>
</trkpt>
<trkpt lat="-35.3644747" lon="149.1628272">
  <ele>680.62</ele>
  <time>2026-08-28T19:09:31Z</time>
  <course>340.06</course>
  <speed>6.37837753664676</speed>
  <fix>3d</fix>
</trkpt>
<trkpt lat="-35.3644814" lon="149.1628296">
  <ele>680.61</ele>
  <time>2026-08-28T19:09:31Z</time>
  <course>341.48</course>
  <speed>6.01</speed>
  <fix>3d</fix>
</trkpt>
<trkpt lat="-35.3644635" lon="149.1628226">
  <ele>680.42</ele>
  <time>2026-08-28T19:09:31Z</time>
  <course>340.71</course>
  <speed>6.821297530528924</speed>
  <fix>3d</fix>
</trkpt>
<trkpt lat="-35.3644706" lon="149.1628253">
  <ele>680.41</ele>
  <time>2026-08-28T19:09:31Z</time>
  <course>341.87</course>
  <speed>6.53</speed>
  <fix>3d</fix>
</trkpt>
<trkpt lat="-35.3644516" lon="149.1628179">
  <ele>680.21</ele>
  <time>2026-08-28T19:09:31Z</time>
  <course>341.32</course>
  <speed>7.172516991963143</speed>
  <fix>3d</fix>
</trkpt>
<trkpt lat="-35.3644591" lon="149.1628207">
  <ele>680.2</ele>
  <time>2026-08-28T19:09:31Z</time>
  <course>342.09</course>
  <speed>6.95</speed>
  <fix>3d</fix>
</trkpt>
<trkpt lat="-35.3644391" lon="149.162813">
  <ele>680.01</ele>
  <time>2026-08-28T19:09:31Z</time>
  <course>341.86</course>
  <speed>7.441485066839817</speed>
  <fix>3d</fix>
</trkpt>
<trkpt lat="-35.3644469" lon="149.1628159">
  <ele>680.01</ele>
  <time>2026-08-28T19:09:31Z</time>
  <course>342.23</course>
  <speed>7.28</speed>
  <fix>3d</fix>
</trkpt>
<trkpt lat="-35.3644263" lon="149.1628079">
  <ele>679.79</ele>
  <time>2026-08-28T19:09:31Z</time>
  <course>342.46</course>
  <speed>7.634684014417362</speed>
  <fix>3d</fix>
</trkpt>
<trkpt lat="-35.3644342" lon="149.1628109">
  <ele>679.8</ele>
  <time>2026-08-28T19:09:31Z</time>
  <course>342.38</course>
  <speed>7.53</speed>
  <fix>3d</fix>
</trkpt>
<trkpt lat="-35.3644131" lon="149.1628029">
  <ele>679.56</ele>
  <time>2026-08-28T19:09:31Z</time>
  <course>343.14</course>
  <speed>7.777846745725966</speed>
  <fix>3d</fix>
</trkpt>
<trkpt lat="-35.3644211" lon="149.1628059">
  <ele>679.57</ele>
  <time>2026-08-28T19:09:31Z</time>
  <course>342.62</course>
  <speed>7.71</speed>
  <fix>3d</fix>
</trkpt>
<trkpt lat="-35.3643997" lon="149.1627978">
  <ele>679.31</ele>
  <time>2026-08-28T19:09:31Z</time>
  <course>343.9</course>
  <speed>7.8867547191477945</speed>
  <fix>3d</fix>
</trkpt>
<trkpt lat="-35.3644078" lon="149.1628008">
  <ele>679.35</ele>
  <time>2026-08-28T19:09:31Z</time>
  <course>342.99</course>
  <speed>7.84</speed>
  <fix>3d</fix>
</trkpt>
<trkpt lat="-35.3643861" lon="149.1627929">
  <ele>679.06</ele>
  <time>2026-08-28T19:09:31Z</time>
  <course>344.69</course>
  <speed>7.958800160828264</speed>
  <fix>3d</fix>
</trkpt>
<trkpt lat="-35.3643942" lon="149.1627959">
  <ele>679.1</ele>
  <time>2026-08-28T19:09:31Z</time>
  <course>343.46</course>
  <speed>7.93</speed>
  <fix>3d</fix>
</trkpt>
<trkpt lat="-35.3643723" lon="149.162788">
  <ele>678.79</ele>
  <time>2026-08-28T19:09:31Z</time>
  <course>345.47</course>
  <speed>7.999931249704588</speed>
  <fix>3d</fix>
</trkpt>
<trkpt lat="-35.3643804" lon="149.1627909">
  <ele>678.83</ele>
  <time>2026-08-28T19:09:31Z</time>
  <course>343.99</course>
  <speed>8.0</speed>
  <fix>3d</fix>
</trkpt>
<trkpt lat="-35.3643583" lon="149.1627833">
  <ele>678.51</ele>
  <time>2026-08-28T19:09:31Z</time>
  <course>346.22</course>
  <speed>8.01280225638946</speed>
  <fix>3d</fix>
</trkpt>
<trkpt lat="-35.3643666" lon="149.1627861">
  <ele>678.56</ele>
  <time>2026-08-28T19:09:31Z</time>
  <course>344.54</course>
  <speed>8.03</speed>
  <fix>3d</fix>
</trkpt>
<trkpt lat="-35.3643444" lon="149.1627787">
  <ele>678.22</ele>
  <time>2026-08-28T19:09:31Z</time>
  <course>346.92</course>
  <speed>8.004323831530057</speed>
  <fix>3d</fix>
</trkpt>
<trkpt lat="-35.3643527" lon="149.1627815">
  <ele>678.27</ele>
  <time>2026-08-28T19:09:31Z</time>
  <course>345.07</course>
  <speed>8.03</speed>
  <fix>3d</fix>
</trkpt>
<trkpt lat="-35.3643305" lon="149.1627743">
  <ele>677.92</ele>
  <time>2026-08-28T19:09:31Z</time>
  <course>347.55</course>
  <speed>7.960182158719737</speed>
  <fix>3d</fix>
</trkpt>
<trkpt lat="-35.3643387" lon="149.162777">
  <ele>677.98</ele>
  <time>2026-08-28T19:09:31Z</time>
  <course>345.57</course>
  <speed>8.0</speed>
  <fix>3d</fix>
</trkpt>
<trkpt lat="-35.3643166" lon="149.16277">
  <ele>677.62</ele>
  <time>2026-08-28T19:09:31Z</time>
  <course>348.1</course>
  <speed>7.894536085166753</speed>
  <fix>3d</fix>
</trkpt>
<trkpt lat="-35.3643248" lon="149.1627727">
  <ele>677.69</ele>
  <time>2026-08-28T19:09:31Z</time>
  <course>346.01</course>
  <speed>7.95</speed>
  <fix>3d</fix>
</trkpt>
<trkpt lat="-35.3643029" lon="149.1627659">
  <ele>677.32</ele>
  <time>2026-08-28T19:09:31Z</time>
  <course>348.56</course>
  <speed>7.802493191281874</speed>
  <fix>3d</fix>
</trkpt>
<trkpt lat="-35.364311" lon="149.1627685">
  <ele>677.39</ele>
  <time>2026-08-28T19:09:31Z</time>
  <course>346.37</course>
  <speed>7.87</speed>
  <fix>3d</fix>
</trkpt>
<trkpt lat="-35.3642893" lon="149.162762">
  <ele>677.01</ele>
  <time>2026-08-28T19:09:31Z</time>
  <course>348.88</course>
  <speed>7.72503721673883</speed>
  <fix>3d</fix>
</trkpt>
<trkpt lat="-35.3642972" lon="149.1627645">
  <ele>677.08</ele>
  <time>2026-08-28T19:09:31Z</time>
  <course>346.67</course>
  <speed>7.79</speed>
  <fix>3d</fix>
</trkpt>
<trkpt lat="-35.3642758" lon="149.1627581">
  <ele>676.7</ele>
  <time>2026-08-28T19:09:31Z</time>
  <course>348.98</course>
  <speed>7.669419795525604</speed>
  <fix>3d</fix>
</trkpt>
<trkpt lat="-35.3642837" lon="149.1627606">
  <ele>676.78</ele>
  <time>2026-08-28T19:09:31Z</time>
  <course>346.87</course>
  <speed>7.71</speed>
  <fix>3d</fix>
</trkpt>
<trkpt lat="-35.3642624" lon="149.1627543">
  <ele>676.38</ele>
  <time>2026-08-28T19:09:31Z</time>
  <course>348.9</course>
  <speed>7.647646696860415</speed>
  <fix>3d</fix>
</trkpt>
<trkpt lat="-35.3642703" lon="149.1627567">
  <ele>676.47</ele>
  <time>2026-08-28T19:09:31Z</time>
  <course>346.98</course>
  <speed>7.65</speed>
  <fix>3d</fix>
</trkpt>
<trkpt lat="-35.364249" lon="149.1627504">
  <ele>676.06</ele>
  <time>2026-08-28T19:09:31Z</time>
  <course>348.65</course>
  <speed>7.642578099044851</speed>
  <fix>3d</fix>
</trkpt>
<trkpt lat="-35.3642569" lon="149.1627529">
  <ele>676.16</ele>
  <time>2026-08-28T19:09:31Z</time>
  <course>346.94</course>
  <speed>7.63</speed>
  <fix>3d</fix>
</trkpt>
<trkpt lat="-35.3642356" lon="149.1627465">
  <ele>675.74</ele>
  <time>2026-08-28T19:09:31Z</time>
  <course>348.24</course>
  <speed>7.671466613366704</speed>
  <fix>3d</fix>
</trkpt>
<trkpt lat="-35.3642436" lon="149.1627492">
  <ele>675.83</ele>
  <time>2026-08-28T19:09:31Z</time>
  <course>346.75</course>
  <speed>7.63</speed>
  <fix>3d</fix>
</trkpt>
<trkpt lat="-35.3642222" lon="149.1627425">
  <ele>675.42</ele>
  <time>2026-08-28T19:09:31Z</time>
  <course>347.72</course>
  <speed>7.705387725481437</speed>
  <fix>3d</fix>
</trkpt>
<trkpt lat="-35.3642302" lon="149.1627452">
  <ele>675.52</ele>
  <time>2026-08-28T19:09:31Z</time>
  <course>346.42</course>
  <speed>7.66</speed>
  <fix>3d</fix>
</trkpt>
<trkpt lat="-35.3642088" lon="149.1627384">
  <ele>675.11</ele>
  <time>2026-08-28T19:09:31Z</time>
  <course>347.1</course>
  <speed>7.761552679715574</speed>
  <fix>3d</fix>
</trkpt>
<trkpt lat="-35.3642168" lon="149.1627412">
  <ele>675.2</ele>
  <time>2026-08-28T19:09:31Z</time>
  <course>345.98</course>
  <speed>7.7</speed>
  <fix>3d</fix>
</trkpt>
<trkpt lat="-35.3641952" lon="149.1627341">
  <ele>674.8</ele>
  <time>2026-08-28T19:09:31Z</time>
  <course>346.44</course>
  <speed>7.811094673603694</speed>
  <fix>3d</fix>
</trkpt>
<trkpt lat="-35.3642033" lon="149.162737">
  <ele>674.9</ele>
  <time>2026-08-28T19:09:31Z</time>
  <course>345.45</course>
  <speed>7.75</speed>
  <fix>3d</fix>
</trkpt>
<trkpt lat="-35.3641816" lon="149.1627296">
  <ele>674.49</ele>
  <time>2026-08-28T19:09:31Z</time>
  <course>345.8</course>
  <speed>7.883210006082547</speed>
  <fix>3d</fix>
</trkpt>
<trkpt lat="-35.3641898" lon="149.1627326">
  <ele>674.6</ele>
  <time>2026-08-28T19:09:31Z</time>
  <course>344.89</course>
  <speed>7.8</speed>
  <fix>3d</fix>
</trkpt>
<trkpt lat="-35.3641679" lon="149.1627249">
  <ele>674.19</ele>
  <time>2026-08-28T19:09:31Z</time>
  <course>345.15</course>
  <speed>7.946401701399194</speed>
  <fix>3d</fix>
</trkpt>
<trkpt lat="-35.3641762" lon="149.162728">
  <ele>674.3</ele>
  <time>2026-08-28T19:09:31Z</time>
  <course>344.33</course>
  <speed>7.87</speed>
  <fix>3d</fix>
</trkpt>
<trkpt lat="-35.3641542" lon="149.16272">
  <ele>673.9</ele>
  <time>2026-08-28T19:09:31Z</time>
  <course>344.57</course>
  <speed>8.007427801735087</speed>
  <fix>3d</fix>
</trkpt>
<trkpt lat="-35.3641626" lon="149.1627233">
  <ele>674.0</ele>
  <time>2026-08-28T19:09:31Z</time>
  <course>343.79</course>
  <speed>7.93</speed>
  <fix>3d</fix>
</trkpt>
<trkpt lat="-35.3641404" lon="149.1627149">
  <ele>673.6</ele>
  <time>2026-08-28T19:09:31Z</time>
  <course>344.06</course>
  <speed>8.066039920555811</speed>
  <fix>3d</fix>
</trkpt>
<trkpt lat="-35.3641489" lon="149.1627183">
  <ele>673.71</ele>
  <time>2026-08-28T19:09:31Z</time>
  <course>343.3</course>
  <speed>8.0</speed>
  <fix>3d</fix>
</trkpt>
<trkpt lat="-35.3641266" lon="149.1627098">
  <ele>673.32</ele>
  <time>2026-08-28T19:09:31Z</time>
  <course>343.63</course>
  <speed>8.131574263326875</speed>
  <fix>3d</fix>
</trkpt>
<trkpt lat="-35.3641351" lon="149.1627131">
  <ele>673.43</ele>
  <time>2026-08-28T19:09:31Z</time>
  <course>342.87</course>
  <speed>8.06</speed>
  <fix>3d</fix>
</trkpt>
<trkpt lat="-35.3641128" lon="149.1627044">
  <ele>673.03</ele>
  <time>2026-08-28T19:09:31Z</time>
  <course>343.3</course>
  <speed>8.184766337532183</speed>
  <fix>3d</fix>
</trkpt>
<trkpt lat="-35.3641212" lon="149.1627078">
  <ele>673.14</ele>
  <time>2026-08-28T19:09:31Z</time>
  <course>342.52</course>
  <speed>8.12</speed>
  <fix>3d</fix>
</trkpt>
<trkpt lat="-35.3640988" lon="149.162699">
  <ele>672.74</ele>
  <time>2026-08-28T19:09:31Z</time>
  <course>343.02</course>
  <speed>8.235047055117537</speed>
  <fix>3d</fix>
</trkpt>
<trkpt lat="-35.3641071" lon="149.1627024">
  <ele>672.85</ele>
  <time>2026-08-28T19:09:31Z</time>
  <course>342.25</course>
  <speed>8.18</speed>
  <fix>3d</fix>
</trkpt>
<trkpt lat="-35.3640847" lon="149.1626934">
  <ele>672.45</ele>
  <time>2026-08-28T19:09:31Z</time>
  <course>342.84</course>
  <speed>8.285408861365866</speed>
  <fix>3d</fix>
</trkpt>
<trkpt lat="-35.3640931" lon="149.1626968">
  <ele>672.57</ele>
  <time>2026-08-28T19:09:31Z</time>
  <course>342.06</course>
  <speed>8.24</speed>
  <fix>3d</fix>
</trkpt>
<trkpt lat="-35.3640705" lon="149.1626878">
  <ele>672.16</ele>
  <time>2026-08-28T19:09:31Z</time>
  <course>342.76</course>
  <speed>8.320126200965944</speed>
  <fix>3d</fix>
</trkpt>
<trkpt lat="-35.364079" lon="149.1626912">
  <ele>672.28</ele>
  <time>2026-08-28T19:09:31Z</time>
  <course>341.94</course>
  <speed>8.29</speed>
  <fix>3d</fix>
</trkpt>
<trkpt lat="-35.3640563" lon="149.1626821">
  <ele>671.87</ele>
  <time>2026-08-28T19:09:31Z</time>
  <course>342.78</course>
  <speed>8.358163673917854</speed>
  <fix>3d</fix>
</trkpt>
<trkpt lat="-35.3640648" lon="149.1626855">
  <ele>671.99</ele>
  <time>2026-08-28T19:09:31Z</time>
  <course>341.89</course>
  <speed>8.33</speed>
  <fix>3d</fix>
</trkpt>
<trkpt lat="-35.364042" lon="149.1626764">
  <ele>671.59</ele>
  <time>2026-08-28T19:09:31Z</time>
  <course>342.84</course>
  <speed>8.377189266096355</speed>
  <fix>3d</fix>
</trkpt>
<trkpt lat="-35.3640505" lon="149.1626798">
  <ele>671.7</ele>
  <time>2026-08-28T19:09:31Z</time>
  <course>341.91</course>
  <speed>8.36</speed>
  <fix>3d</fix>
</trkpt>
<trkpt lat="-35.3640277" lon="149.1626707">
  <ele>671.3</ele>
  <time>2026-08-28T19:09:31Z</time>
  <course>342.99</course>
  <speed>8.380572772788264</speed>
  <fix>3d</fix>
</trkpt>
<trkpt lat="-35.3640362" lon="149.1626741">
  <ele>671.41</ele>
  <time>2026-08-28T19:09:31Z</time>
  <course>341.99</course>
  <speed>8.38</speed>
  <fix>3d</fix>
</trkpt>
<trkpt lat="-35.3640133" lon="149.1626651">
  <ele>671.0</ele>
  <time>2026-08-28T19:09:31Z</time>
  <course>343.21</course>
  <speed>8.38401455151409</speed>
  <fix>3d</fix>
</trkpt>
<trkpt lat="-35.3640219" lon="149.1626684">
  <ele>671.12</ele>
  <time>2026-08-28T19:09:31Z</time>
  <course>342.13</course>
  <speed>8.39</speed>
  <fix>3d</fix>
</trkpt>
<trkpt lat="-35.363999" lon="149.1626595">
  <ele>670.71</ele>
  <time>2026-08-28T19:09:31Z</time>
  <course>343.45</course>
  <speed>8.374974626827235</speed>
  <fix>3d</fix>
</trkpt>
<trkpt lat="-35.3640075" lon="149.1626628">
  <ele>670.83</ele>
  <time>2026-08-28T19:09:31Z</time>
  <course>342.31</course>
  <speed>8.39</speed>
  <fix>3d</fix>
</trkpt>
<trkpt lat="-35.3639847" lon="149.162654">
  <ele>670.42</ele>
  <time>2026-08-28T19:09:31Z</time>
  <course>343.71</course>
  <speed>8.363073597667308</speed>
  <fix>3d</fix>
</trkpt>
<trkpt lat="-35.3639931" lon="149.1626572">
  <ele>670.54</ele>
  <time>2026-08-28T19:09:31Z</time>
  <course>342.54</course>
  <speed>8.38</speed>
  <fix>3d</fix>
</trkpt>
<trkpt lat="-35.3639703" lon="149.1626486">
  <ele>670.12</ele>
  <time>2026-08-28T19:09:31Z</time>
  <course>343.97</course>
  <speed>8.341780385505244</speed>
  <fix>3d</fix>
</trkpt>
<trkpt lat="-35.3639788" lon="149.1626517">
  <ele>670.24</ele>
  <time>2026-08-28T19:09:31Z</time>
  <course>342.78</course>
  <speed>8.37</speed>
  <fix>3d</fix>
</trkpt>
<trkpt lat="-35.363956" lon="149.1626432">
  <ele>669.83</ele>
  <time>2026-08-28T19:09:31Z</time>
  <course>344.26</course>
  <speed>8.320636994846007</speed>
  <fix>3d</fix>
</trkpt>
<trkpt lat="-35.3639644" lon="149.1626463">
  <ele>669.94</ele>
  <time>2026-08-28T19:09:31Z</time>
  <course>343.04</course>
  <speed>8.35</speed>
  <fix>3d</fix>
</trkpt>
<trkpt lat="-35.3639417" lon="149.162638">
  <ele>669.52</ele>
  <time>2026-08-28T19:09:31Z</time>
  <course>344.53</course>
  <speed>8.299644570703013</speed>
  <fix>3d</fix>
</trkpt>
<trkpt lat="-35.36395" lon="149.1626409">
  <ele>669.65</ele>
  <time>2026-08-28T19:09:31Z</time>
  <course>343.3</course>
  <speed>8.34</speed>
  <fix>3d</fix>
</trkpt>
<trkpt lat="-35.3639273" lon="149.1626328">
  <ele>669.22</ele>
  <time>2026-08-28T19:09:32Z</time>
  <course>344.76</course>
  <speed>8.278804261486075</speed>
  <fix>3d</fix>
</trkpt>
<trkpt lat="-35.3639357" lon="149.1626357">
  <ele>669.35</ele>
  <time>2026-08-28T19:09:32Z</time>
  <course>343.54</course>
  <speed>8.31</speed>
  <fix>3d</fix>
</trkpt>
<trkpt lat="-35.363913" lon="149.1626277">
  <ele>668.92</ele>
  <time>2026-08-28T19:09:32Z</time>
  <course>344.98</course>
  <speed>8.251260509764553</speed>
  <fix>3d</fix>
</trkpt>
<trkpt lat="-35.3639214" lon="149.1626306">
  <ele>669.05</ele>
  <time>2026-08-28T19:09:32Z</time>
  <course>343.77</course>
  <speed>8.29</speed>
  <fix>3d</fix>
</trkpt>
<trkpt lat="-35.3638987" lon="149.1626226">
  <ele>668.62</ele>
  <time>2026-08-28T19:09:32Z</time>
  <course>345.18</course>
  <speed>8.221052244086518</speed>
  <fix>3d</fix>
</trkpt>
<trkpt lat="-35.3639071" lon="149.1626255">
  <ele>668.75</ele>
  <time>2026-08-28T19:09:32Z</time>
  <course>343.97</course>
  <speed>8.26</speed>
  <fix>3d</fix>
</trkpt>
<trkpt lat="-35.3638844" lon="149.1626177">
  <ele>668.32</ele>
  <time>2026-08-28T19:09:32Z</time>
  <course>345.33</course>
  <speed>8.186745385072141</speed>
  <fix>3d</fix>
</trkpt>
<trkpt lat="-35.3638928" lon="149.1626205">
  <ele>668.44</ele>
  <time>2026-08-28T19:09:32Z</time>
  <course>344.13</course>
  <speed>8.23</speed>
  <fix>3d</fix>
</trkpt>
<trkpt lat="-35.3638702" lon="149.1626128">
  <ele>668.02</ele>
  <time>2026-08-28T19:09:32Z</time>
  <course>345.48</course>
  <speed>8.159393359803166</speed>
  <fix>3d</fix>
</trkpt>
<trkpt lat="-35.3638787" lon="149.1626156">
  <ele>668.15</ele>
  <time>2026-08-28T19:09:32Z</time>
  <course>344.26</course>
  <speed>8.2</speed>
  <fix>3d</fix>
</trkpt>
<trkpt lat="-35.363856" lon="149.1626079">
  <ele>667.72</ele>
  <time>2026-08-28T19:09:32Z</time>
  <course>345.57</course>
  <speed>8.127810283218968</speed>
  <fix>3d</fix>
</trkpt>
<trkpt lat="-35.3638645" lon="149.1626107">
  <ele>667.85</ele>
  <time>2026-08-28T19:09:32Z</time>
  <course>344.36</course>
  <speed>8.16</speed>
  <fix>3d</fix>
</trkpt>
<trkpt lat="-35.3638419" lon="149.1626031">
  <ele>667.41</ele>
  <time>2026-08-28T19:09:32Z</time>
  <course>345.57</course>
  <speed>8.103190729583009</speed>
  <fix>3d</fix>
</trkpt>
<trkpt lat="-35.3638504" lon="149.1626059">
  <ele>667.55</ele>
  <time>2026-08-28T19:09:32Z</time>
  <course>344.43</course>
  <speed>8.13</speed>
  <fix>3d</fix>
</trkpt>
<trkpt lat="-35.3638279" lon="149.1625983">
  <ele>667.11</ele>
  <time>2026-08-28T19:09:32Z</time>
  <course>345.53</course>
  <speed>8.083916130193336</speed>
  <fix>3d</fix>
</trkpt>
<trkpt lat="-35.3638363" lon="149.1626011">
  <ele>667.25</ele>
  <time>2026-08-28T19:09:32Z</time>
  <course>344.45</course>
  <speed>8.11</speed>
  <fix>3d</fix>
</trkpt>
<trkpt lat="-35.3638139" lon="149.1625935">
  <ele>666.81</ele>
  <time>2026-08-28T19:09:32Z</time>
  <course>345.46</course>
  <speed>8.064645063485436</speed>
  <fix>3d</fix>
</trkpt>
<trkpt lat="-35.3638222" lon="149.1625963">
  <ele>666.94</ele>
  <time>2026-08-28T19:09:32Z</time>
  <course>344.43</course>
  <speed>8.09</speed>
  <fix>3d</fix>
</trkpt>
<trkpt lat="-35.3637999" lon="149.1625887">
  <ele>666.51</ele>
  <time>2026-08-28T19:09:32Z</time>
  <course>345.36</course>
  <speed>8.048068091163245</speed>
  <fix>3d</fix>
</trkpt>
<trkpt lat="-35.3638083" lon="149.1625915">
  <ele>666.64</ele>
  <time>2026-08-28T19:09:32Z</time>
  <course>344.38</course>
  <speed>8.07</speed>
  <fix>3d</fix>
</trkpt>
<trkpt lat="-35.3637859" lon="149.1625838">
  <ele>666.21</ele>
  <time>2026-08-28T19:09:32Z</time>
  <course>345.23</course>
  <speed>8.04114419718985</speed>
  <fix>3d</fix>
</trkpt>
<trkpt lat="-35.3637944" lon="149.1625867">
  <ele>666.33</ele>
  <time>2026-08-28T19:09:32Z</time>
  <course>344.29</course>
  <speed>8.06</speed>
  <fix>3d</fix>
</trkpt>
<trkpt lat="-35.3637719" lon="149.162579">
  <ele>665.9</ele>
  <time>2026-08-28T19:09:32Z</time>
  <course>345.08</course>
  <speed>8.03423922969686</speed>
  <fix>3d</fix>
</trkpt>
<trkpt lat="-35.3637804" lon="149.1625819">
  <ele>666.04</ele>
  <time>2026-08-28T19:09:32Z</time>
  <course>344.18</course>
  <speed>8.05</speed>
  <fix>3d</fix>
</trkpt>
<trkpt lat="-35.3637581" lon="149.1625741">
  <ele>665.6</ele>
  <time>2026-08-28T19:09:32Z</time>
  <course>344.91</course>
  <speed>8.030099625782983</speed>
  <fix>3d</fix>
</trkpt>
<trkpt lat="-35.3637665" lon="149.162577">
  <ele>665.74</ele>
  <time>2026-08-28T19:09:32Z</time>
  <course>344.06</course>
  <speed>8.04</speed>
  <fix>3d</fix>
</trkpt>
<trkpt lat="-35.3637442" lon="149.1625692">
  <ele>665.29</ele>
  <time>2026-08-28T19:09:32Z</time>
  <course>344.72</course>
  <speed>8.026020184375318</speed>
  <fix>3d</fix>
</trkpt>
<trkpt lat="-35.3637526" lon="149.1625721">
  <ele>665.44</ele>
  <time>2026-08-28T19:09:32Z</time>
  <course>343.92</course>
  <speed>8.04</speed>
  <fix>3d</fix>
</trkpt>
<trkpt lat="-35.3637303" lon="149.1625643">
  <ele>664.99</ele>
  <time>2026-08-28T19:09:32Z</time>
  <course>344.52</course>
  <speed>8.031600089645899</speed>
  <fix>3d</fix>
</trkpt>
<trkpt lat="-35.3637387" lon="149.1625672">
  <ele>665.14</ele>
  <time>2026-08-28T19:09:32Z</time>
  <course>343.78</course>
  <speed>8.04</speed>
  <fix>3d</fix>
</trkpt>
<trkpt lat="-35.3637165" lon="149.1625593">
  <ele>664.69</ele>
  <time>2026-08-28T19:09:32Z</time>
  <course>344.32</course>
  <speed>8.046819247379675</speed>
  <fix>3d</fix>
</trkpt>
<trkpt lat="-35.3637248" lon="149.1625623">
  <ele>664.83</ele>
  <time>2026-08-28T19:09:32Z</time>
  <course>343.64</course>
  <speed>8.05</speed>
  <fix>3d</fix>
</trkpt>
<trkpt lat="-35.3637026" lon="149.1625543">
  <ele>664.38</ele>
  <time>2026-08-28T19:09:32Z</time>
  <course>344.13</course>
  <speed>8.05248408877658</speed>
  <fix>3d</fix>
</trkpt>
<trkpt lat="-35.3637109" lon="149.1625572">
  <ele>664.54</ele>
  <time>2026-08-28T19:09:32Z</time>
  <course>343.5</course>
  <speed>8.06</speed>
  <fix>3d</fix>
</trkpt>
<trkpt lat="-35.3636888" lon="149.1625492">
  <ele>664.08</ele>
  <time>2026-08-28T19:09:32Z</time>
  <course>343.95</course>
  <speed>8.077357241078296</speed>
  <fix>3d</fix>
</trkpt>
<trkpt lat="-35.363697" lon="149.1625521">
  <ele>664.24</ele>
  <time>2026-08-28T19:09:32Z</time>
  <course>343.37</course>
  <speed>8.08</speed>
  <fix>3d</fix>
</trkpt>
<trkpt lat="-35.3636749" lon="149.1625441">
  <ele>663.78</ele>
  <time>2026-08-28T19:09:32Z</time>
  <course>343.81</course>
  <speed>8.092675700903873</speed>
  <fix>3d</fix>
</trkpt>
<trkpt lat="-35.3636831" lon="149.162547">
  <ele>663.94</ele>
  <time>2026-08-28T19:09:32Z</time>
  <course>343.26</course>
  <speed>8.1</speed>
  <fix>3d</fix>
</trkpt>
<trkpt lat="-35.363661" lon="149.1625389">
  <ele>663.49</ele>
  <time>2026-08-28T19:09:32Z</time>
  <course>343.66</course>
  <speed>8.117598166945688</speed>
  <fix>3d</fix>
</trkpt>
<trkpt lat="-35.3636692" lon="149.1625419">
  <ele>663.65</ele>
  <time>2026-08-28T19:09:32Z</time>
  <course>343.16</course>
  <speed>8.12</speed>
  <fix>3d</fix>
</trkpt>
<trkpt lat="-35.363647" lon="149.1625337">
  <ele>663.2</ele>
  <time>2026-08-28T19:09:32Z</time>
  <course>343.56</course>
  <speed>8.139637584069698</speed>
  <fix>3d</fix>
</trkpt>
<trkpt lat="-35.3636551" lon="149.1625366">
  <ele>663.35</ele>
  <time>2026-08-28T19:09:32Z</time>
  <course>343.07</course>
  <speed>8.15</speed>
  <fix>3d</fix>
</trkpt>
<trkpt lat="-35.3636329" lon="149.1625284">
  <ele>662.9</ele>
  <time>2026-08-28T19:09:32Z</time>
  <course>343.5</course>
  <speed>8.152110156272423</speed>
  <fix>3d</fix>
</trkpt>
<trkpt lat="-35.3636412" lon="149.1625314">
  <ele>663.06</ele>
  <time>2026-08-28T19:09:32Z</time>
  <course>343.02</course>
  <speed>8.17</speed>
  <fix>3d</fix>
</trkpt>
<trkpt lat="-35.3636189" lon="149.1625232">
  <ele>662.61</ele>
  <time>2026-08-28T19:09:32Z</time>
  <course>343.47</course>
  <speed>8.17415439051649</speed>
  <fix>3d</fix>
</trkpt>
<trkpt lat="-35.3636271" lon="149.1625261">
  <ele>662.76</ele>
  <time>2026-08-28T19:09:32Z</time>
  <course>342.98</course>
  <speed>8.19</speed>
  <fix>3d</fix>
</trkpt>
<trkpt lat="-35.3636047" lon="149.1625179">
  <ele>662.32</ele>
  <time>2026-08-28T19:09:32Z</time>
  <course>343.46</course>
  <speed>8.193289937503739</speed>
  <fix>3d</fix>
</trkpt>
<trkpt lat="-35.3636129" lon="149.1625208">
  <ele>662.46</ele>
  <time>2026-08-28T19:09:32Z</time>
  <course>342.98</course>
  <speed>8.21</speed>
  <fix>3d</fix>
</trkpt>
<trkpt lat="-35.3635905" lon="149.1625125">
  <ele>662.02</ele>
  <time>2026-08-28T19:09:32Z</time>
  <course>343.51</course>
  <speed>8.202859257600364</speed>
  <fix>3d</fix>
</trkpt>
<trkpt lat="-35.3635988" lon="149.1625155">
  <ele>662.17</ele>
  <time>2026-08-28T19:09:32Z</time>
  <course>342.99</course>
  <speed>8.22</speed>
  <fix>3d</fix>
</trkpt>
<trkpt lat="-35.3635764" lon="149.1625072">
  <ele>661.72</ele>
  <time>2026-08-28T19:09:32Z</time>
  <course>343.56</course>
  <speed>8.212429603960084</speed>
  <fix>3d</fix>
</trkpt>
<trkpt lat="-35.3635847" lon="149.1625102">
  <ele>661.87</ele>
  <time>2026-08-28T19:09:32Z</time>
  <course>343.03</course>
  <speed>8.23</speed>
  <fix>3d</fix>
</trkpt>
<trkpt lat="-35.3635622" lon="149.162502">
  <ele>661.43</ele>
  <time>2026-08-28T19:09:32Z</time>
  <course>343.64</course>
  <speed>8.209537136769649</speed>
  <fix>3d</fix>
</trkpt>
<trkpt lat="-35.3635706" lon="149.162505">
  <ele>661.57</ele>
  <time>2026-08-28T19:09:32Z</time>
  <course>343.09</course>
  <speed>8.24</speed>
  <fix>3d</fix>
</trkpt>
<trkpt lat="-35.363548" lon="149.1624967">
  <ele>661.13</ele>
  <time>2026-08-28T19:09:32Z</time>
  <course>343.73</course>
  <speed>8.216233930457433</speed>
  <fix>3d</fix>
</trkpt>
<trkpt lat="-35.3635563" lon="149.1624997">
  <ele>661.28</ele>
  <time>2026-08-28T19:09:32Z</time>
  <course>343.16</course>
  <speed>8.24</speed>
  <fix>3d</fix>
</trkpt>
<trkpt lat="-35.3635338" lon="149.1624915">
  <ele>660.84</ele>
  <time>2026-08-28T19:09:32Z</time>
  <course>343.82</course>
  <speed>8.210511555317366</speed>
  <fix>3d</fix>
</trkpt>
<trkpt lat="-35.3635422" lon="149.1624944">
  <ele>660.98</ele>
  <time>2026-08-28T19:09:32Z</time>
  <course>343.24</course>
  <speed>8.24</speed>
  <fix>3d</fix>
</trkpt>
<trkpt lat="-35.3635196" lon="149.1624863">
  <ele>660.54</ele>
  <time>2026-08-28T19:09:32Z</time>
  <course>343.92</course>
  <speed>8.20766714724714</speed>
  <fix>3d</fix>
</trkpt>
<trkpt lat="-35.363528" lon="149.1624893">
  <ele>660.68</ele>
  <time>2026-08-28T19:09:32Z</time>
  <course>343.33</course>
  <speed>8.24</speed>
  <fix>3d</fix>
</trkpt>
<trkpt lat="-35.3635054" lon="149.1624811">
  <ele>660.24</ele>
  <time>2026-08-28T19:09:32Z</time>
  <course>344.02</course>
  <speed>8.204833941037442</speed>
  <fix>3d</fix>
</trkpt>
<trkpt lat="-35.3635139" lon="149.162484">
  <ele>660.38</ele>
  <time>2026-08-28T19:09:32Z</time>
  <course>343.43</course>
  <speed>8.23</speed>
  <fix>3d</fix>
</trkpt>
<trkpt lat="-35.3634912" lon="149.1624759">
  <ele>659.94</ele>
  <time>2026-08-28T19:09:32Z</time>
  <course>344.11</course>
  <speed>8.1992011806029</speed>
  <fix>3d</fix>
</trkpt>
<trkpt lat="-35.3634997" lon="149.1624789">
  <ele>660.07</ele>
  <time>2026-08-28T19:09:32Z</time>
  <course>343.52</course>
  <speed>8.23</speed>
  <fix>3d</fix>
</trkpt>
<trkpt lat="-35.363477" lon="149.1624708">
  <ele>659.64</ele>
  <time>2026-08-28T19:09:32Z</time>
  <course>344.2</course>
  <speed>8.186800351785793</speed>
  <fix>3d</fix>
</trkpt>
<trkpt lat="-35.3634854" lon="149.1624737">
  <ele>659.77</ele>
  <time>2026-08-28T19:09:32Z</time>
  <course>343.61</course>
  <speed>8.22</speed>
  <fix>3d</fix>
</trkpt>
<trkpt lat="-35.3634629" lon="149.1624657">
  <ele>659.34</ele>
  <time>2026-08-28T19:09:32Z</time>
  <course>344.28</course>
  <speed>8.18400879764923</speed>
  <fix>3d</fix>
</trkpt>
<trkpt lat="-35.3634713" lon="149.1624686">
  <ele>659.46</ele>
  <time>2026-08-28T19:09:32Z</time>
  <course>343.68</course>
  <speed>8.21</speed>
  <fix>3d</fix>
</trkpt>
<trkpt lat="-35.3634487" lon="149.1624607">
  <ele>659.03</ele>
  <time>2026-08-28T19:09:32Z</time>
  <course>344.32</course>
  <speed>8.171621626091115</speed>
  <fix>3d</fix>
</trkpt>
<trkpt lat="-35.3634571" lon="149.1624636">
  <ele>659.16</ele>
  <time>2026-08-28T19:09:32Z</time>
  <course>343.75</course>
  <speed>8.2</speed>
  <fix>3d</fix>
</trkpt>
<trkpt lat="-35.3634345" lon="149.1624556">
  <ele>658.72</ele>
  <time>2026-08-28T19:09:32Z</time>
  <course>344.36</course>
  <speed>8.168849368179096</speed>
  <fix>3d</fix>
</trkpt>
<trkpt lat="-35.363443" lon="149.1624585">
  <ele>658.86</ele>
  <time>2026-08-28T19:09:32Z</time>
  <course>343.81</course>
  <speed>8.19</speed>
  <fix>3d</fix>
</trkpt>
<trkpt lat="-35.3634203" lon="149.1624506">
  <ele>658.42</ele>
  <time>2026-08-28T19:09:32Z</time>
  <course>344.38</course>
  <speed>8.15924016070124</speed>
  <fix>3d</fix>
</trkpt>
<trkpt lat="-35.3634288" lon="149.1624535">
  <ele>658.56</ele>
  <time>2026-08-28T19:09:32Z</time>
  <course>343.85</course>
  <speed>8.18</speed>
  <fix>3d</fix>
</trkpt>
<trkpt lat="-35.3634062" lon="149.1624456">
  <ele>658.11</ele>
  <time>2026-08-28T19:09:32Z</time>
  <course>344.41</course>
  <speed>8.146864427496018</speed>
  <fix>3d</fix>
</trkpt>
<trkpt lat="-35.3634147" lon="149.1624484">
  <ele>658.25</ele>
  <time>2026-08-28T19:09:32Z</time>
  <course>343.87</course>
  <speed>8.17</speed>
  <fix>3d</fix>
</trkpt>
<trkpt lat="-35.3633921" lon="149.1624406">
  <ele>657.82</ele>
  <time>2026-08-28T19:09:32Z</time>
  <course>344.38</course>
  <speed>8.137253836522492</speed>
  <fix>3d</fix>
</trkpt>
<trkpt lat="-35.3634006" lon="149.1624435">
  <ele>657.94</ele>
  <time>2026-08-28T19:09:32Z</time>
  <course>343.88</course>
  <speed>8.16</speed>
  <fix>3d</fix>
</trkpt>
<trkpt lat="-35.363378" lon="149.1624356">
  <ele>657.51</ele>
  <time>2026-08-28T19:09:32Z</time>
  <course>344.36</course>
  <speed>8.127644185125233</speed>
  <fix>3d</fix>
</trkpt>
<trkpt lat="-35.3633865" lon="149.1624385">
  <ele>657.65</ele>
  <time>2026-08-28T19:09:32Z</time>
  <course>343.87</course>
  <speed>8.15</speed>
  <fix>3d</fix>
</trkpt>
<trkpt lat="-35.3633639" lon="149.1624306">
  <ele>657.21</ele>
  <time>2026-08-28T19:09:32Z</time>
  <course>344.32</course>
  <speed>8.118035476640884</speed>
  <fix>3d</fix>
</trkpt>
<trkpt lat="-35.3633724" lon="149.1624335">
  <ele>657.35</ele>
  <time>2026-08-28T19:09:32Z</time>
  <course>343.86</course>
  <speed>8.14</speed>
  <fix>3d</fix>
</trkpt>
<trkpt lat="-35.3633498" lon="149.1624255">
  <ele>656.91</ele>
  <time>2026-08-28T19:09:32Z</time>
  <course>344.27</course>
  <speed>8.118035476640884</speed>
  <fix>3d</fix>
</trkpt>
<trkpt lat="-35.3633584" lon="149.1624286">
  <ele>657.05</ele>
  <time>2026-08-28T19:09:32Z</time>
  <course>343.83</course>
  <speed>8.14</speed>
  <fix>3d</fix>
</trkpt>
<trkpt lat="-35.3633358" lon="149.1624206">
  <ele>656.61</ele>
  <time>2026-08-28T19:09:32Z</time>
  <course>344.21</course>
  <speed>8.111208294699377</speed>
  <fix>3d</fix>
</trkpt>
<trkpt lat="-35.3633444" lon="149.1624236">
  <ele>656.75</ele>
  <time>2026-08-28T19:09:32Z</time>
  <course>343.79</course>
  <speed>8.13</speed>
  <fix>3d</fix>
</trkpt>
<trkpt lat="-35.3633218" lon="149.1624156">
  <ele>656.32</ele>
  <time>2026-08-28T19:09:32Z</time>
  <course>344.15</course>
  <speed>8.11400024648755</speed>
  <fix>3d</fix>
</trkpt>
<trkpt lat="-35.3633303" lon="149.1624185">
  <ele>656.45</ele>
  <time>2026-08-28T19:09:32Z</time>
  <course>343.74</course>
  <speed>8.13</speed>
  <fix>3d</fix>
</trkpt>
<trkpt lat="-35.3633078" lon="149.1624105">
  <ele>656.03</ele>
  <time>2026-08-28T19:09:32Z</time>
  <course>344.08</course>
  <speed>8.104400039484723</speed>
  <fix>3d</fix>
</trkpt>
<trkpt lat="-35.3633162" lon="149.1624135">
  <ele>656.15</ele>
  <time>2026-08-28T19:09:32Z</time>
  <course>343.69</course>
  <speed>8.13</speed>
  <fix>3d</fix>
</trkpt>
<trkpt lat="-35.3632938" lon="149.1624055">
  <ele>655.73</ele>
  <time>2026-08-28T19:09:32Z</time>
  <course>344.02</course>
  <speed>8.107206670611031</speed>
  <fix>3d</fix>
</trkpt>
<trkpt lat="-35.3633023" lon="149.1624085">
  <ele>655.85</ele>
  <time>2026-08-28T19:09:32Z</time>
  <course>343.64</course>
  <speed>8.13</speed>
  <fix>3d</fix>
</trkpt>
<trkpt lat="-35.3632798" lon="149.1624004">
  <ele>655.43</ele>
  <time>2026-08-28T19:09:32Z</time>
  <course>343.95</course>
  <speed>8.11002466087496</speed>
  <fix>3d</fix>
</trkpt>
<trkpt lat="-35.3632882" lon="149.1624034">
  <ele>655.55</ele>
  <time>2026-08-28T19:09:32Z</time>
  <course>343.59</course>
  <speed>8.13</speed>
  <fix>3d</fix>
</trkpt>
<trkpt lat="-35.3632658" lon="149.1623954">
  <ele>655.13</ele>
  <time>2026-08-28T19:09:32Z</time>
  <course>343.86</course>
  <speed>8.12244421341261</speed>
  <fix>3d</fix>
</trkpt>
<trkpt lat="-35.3632743" lon="149.1623983">
  <ele>655.25</ele>
  <time>2026-08-28T19:09:32Z</time>
  <course>343.53</course>
  <speed>8.14</speed>
  <fix>3d</fix>
</trkpt>
<trkpt lat="-35.3632518" lon="149.1623903">
  <ele>654.83</ele>
  <time>2026-08-28T19:09:32Z</time>
  <course>343.79</course>
  <speed>8.125281533583928</speed>
  <fix>3d</fix>
</trkpt>
<trkpt lat="-35.3632602" lon="149.1623932">
  <ele>654.94</ele>
  <time>2026-08-28T19:09:32Z</time>
  <course>343.48</course>
  <speed>8.15</speed>
  <fix>3d</fix>
</trkpt>
<trkpt lat="-35.3632378" lon="149.1623852">
  <ele>654.53</ele>
  <time>2026-08-28T19:09:32Z</time>
  <course>343.74</course>
  <speed>8.134869390469646</speed>
  <fix>3d</fix>
</trkpt>
<trkpt lat="-35.3632461" lon="149.1623881">
  <ele>654.64</ele>
  <time>2026-08-28T19:09:32Z</time>
  <course>343.42</course>
  <speed>8.15</speed>
  <fix>3d</fix>
</trkpt>
<trkpt lat="-35.3632238" lon="149.16238">
  <ele>654.23</ele>
  <time>2026-08-28T19:09:32Z</time>
  <course>343.67</course>
  <speed>8.147300166312766</speed>
  <fix>3d</fix>
</trkpt>
<trkpt lat="-35.3632321" lon="149.162383">
  <ele>654.33</ele>
  <time>2026-08-28T19:09:32Z</time>
  <course>343.38</course>
  <speed>8.16</speed>
  <fix>3d</fix>
</trkpt>
<trkpt lat="-35.3632097" lon="149.1623749">
  <ele>653.93</ele>
  <time>2026-08-28T19:09:32Z</time>
  <course>343.6</course>
  <speed>8.150153372789987</speed>
  <fix>3d</fix>
</trkpt>
<trkpt lat="-35.3632181" lon="149.1623778">
  <ele>654.03</ele>
  <time>2026-08-28T19:09:32Z</time>
  <course>343.35</course>
  <speed>8.17</speed>
  <fix>3d</fix>
</trkpt>
<trkpt lat="-35.3631956" lon="149.1623697">
  <ele>653.62</ele>
  <time>2026-08-28T19:09:32Z</time>
  <course>343.56</course>
  <speed>8.159736515353913</speed>
  <fix>3d</fix>
</trkpt>
<trkpt lat="-35.363204" lon="149.1623727">
  <ele>653.73</ele>
  <time>2026-08-28T19:09:32Z</time>
  <course>343.33</course>
  <speed>8.18</speed>
  <fix>3d</fix>
</trkpt>
<trkpt lat="-35.3631815" lon="149.1623645">
  <ele>653.31</ele>
  <time>2026-08-28T19:09:32Z</time>
  <course>343.56</course>
  <speed>8.169320657190536</speed>
  <fix>3d</fix>
</trkpt>
<trkpt lat="-35.3631898" lon="149.1623675">
  <ele>653.42</ele>
  <time>2026-08-28T19:09:32Z</time>
  <course>343.31</course>
  <speed>8.19</speed>
  <fix>3d</fix>
</trkpt>
<trkpt lat="-35.3631673" lon="149.1623593">
  <ele>653.01</ele>
  <time>2026-08-28T19:09:32Z</time>
  <course>343.55</course>
  <speed>8.169320657190536</speed>
  <fix>3d</fix>
</trkpt>
<trkpt lat="-35.3631757" lon="149.1623622">
  <ele>653.12</ele>
  <time>2026-08-28T19:09:32Z</time>
  <course>343.31</course>
  <speed>8.19</speed>
  <fix>3d</fix>
</trkpt>
<trkpt lat="-35.3631532" lon="149.1623541">
  <ele>652.7</ele>
  <time>2026-08-28T19:09:32Z</time>
  <course>343.53</course>
  <speed>8.178905794786978</speed>
  <fix>3d</fix>
</trkpt>
<trkpt lat="-35.3631616" lon="149.1623571">
  <ele>652.81</ele>
  <time>2026-08-28T19:09:32Z</time>
  <course>343.31</course>
  <speed>8.2</speed>
  <fix>3d</fix>
</trkpt>
<trkpt lat="-35.363139" lon="149.1623489">
  <ele>652.4</ele>
  <time>2026-08-28T19:09:32Z</time>
  <course>343.57</course>
  <speed>8.178905794786978</speed>
  <fix>3d</fix>
</trkpt>
<trkpt lat="-35.3631475" lon="149.162352">
  <ele>652.52</ele>
  <time>2026-08-28T19:09:32Z</time>
  <course>343.33</course>
  <speed>8.2</speed>
  <fix>3d</fix>
</trkpt>
<trkpt lat="-35.3631249" lon="149.1623437">
  <ele>652.11</ele>
  <time>2026-08-28T19:09:32Z</time>
  <course>343.59</course>
  <speed>8.178905794786978</speed>
  <fix>3d</fix>
</trkpt>
<trkpt lat="-35.3631334" lon="149.1623468">
  <ele>652.22</ele>
  <time>2026-08-28T19:09:32Z</time>
  <course>343.35</course>
  <speed>8.2</speed>
  <fix>3d</fix>
</trkpt>
<trkpt lat="-35.3631108" lon="149.1623386">
  <ele>651.81</ele>
  <time>2026-08-28T19:09:32Z</time>
  <course>343.61</course>
  <speed>8.176062622069377</speed>
  <fix>3d</fix>
</trkpt>
<trkpt lat="-35.3631193" lon="149.1623416">
  <ele>651.92</ele>
  <time>2026-08-28T19:09:32Z</time>
  <course>343.38</course>
  <speed>8.2</speed>
  <fix>3d</fix>
</trkpt>
<trkpt lat="-35.3630967" lon="149.1623334">
  <ele>651.52</ele>
  <time>2026-08-28T19:09:32Z</time>
  <course>343.65</course>
  <speed>8.16647414739066</speed>
  <fix>3d</fix>
</trkpt>
<trkpt lat="-35.3631052" lon="149.1623364">
  <ele>651.63</ele>
  <time>2026-08-28T19:09:32Z</time>
  <course>343.41</course>
  <speed>8.19</speed>
  <fix>3d</fix>
</trkpt>
<trkpt lat="-35.3630826" lon="149.1623283">
  <ele>651.22</ele>
  <time>2026-08-28T19:09:32Z</time>
  <course>343.71</course>
  <speed>8.163638894512667</speed>
  <fix>3d</fix>
</trkpt>
<trkpt lat="-35.3630911" lon="149.1623313">
  <ele>651.32</ele>
  <time>2026-08-28T19:09:32Z</time>
  <course>343.44</course>
  <speed>8.19</speed>
  <fix>3d</fix>
</trkpt>
<trkpt lat="-35.3630685" lon="149.1623232">
  <ele>650.92</ele>
  <time>2026-08-28T19:09:32Z</time>
  <course>343.74</course>
  <speed>8.163638894512667</speed>
  <fix>3d</fix>
</trkpt>
<trkpt lat="-35.363077" lon="149.1623261">
  <ele>651.03</ele>
  <time>2026-08-28T19:09:32Z</time>
  <course>343.47</course>
  <speed>8.19</speed>
  <fix>3d</fix>
</trkpt>
<trkpt lat="-35.3630543" lon="149.162318">
  <ele>650.61</ele>
  <time>2026-08-28T19:09:32Z</time>
  <course>343.75</course>
  <speed>8.16081491028929</speed>
  <fix>3d</fix>
</trkpt>
<trkpt lat="-35.3630628" lon="149.162321">
  <ele>650.73</ele>
  <time>2026-08-28T19:09:32Z</time>
  <course>343.51</course>
  <speed>8.18</speed>
  <fix>3d</fix>
</trkpt>
<trkpt lat="-35.3630402" lon="149.1623129">
  <ele>650.31</ele>
  <time>2026-08-28T19:09:32Z</time>
  <course>343.78</course>
  <speed>8.16081491028929</speed>
  <fix>3d</fix>
</trkpt>
<trkpt lat="-35.3630487" lon="149.1623159">
  <ele>650.43</ele>
  <time>2026-08-28T19:09:32Z</time>
  <course>343.54</course>
  <speed>8.18</speed>
  <fix>3d</fix>
</trkpt>
<trkpt lat="-35.3630261" lon="149.1623078">
  <ele>650.01</ele>
  <time>2026-08-28T19:09:32Z</time>
  <course>343.79</course>
  <speed>8.158002206422845</speed>
  <fix>3d</fix>
</trkpt>
<trkpt lat="-35.3630346" lon="149.1623108">
  <ele>650.13</ele>
  <time>2026-08-28T19:09:32Z</time>
  <course>343.57</course>
  <speed>8.18</speed>
  <fix>3d</fix>
</trkpt>
<trkpt lat="-35.3630121" lon="149.1623027">
  <ele>649.71</ele>
  <time>2026-08-28T19:09:32Z</time>
  <course>343.82</course>
  <speed>8.158002206422845</speed>
  <fix>3d</fix>
</trkpt>
<trkpt lat="-35.3630205" lon="149.1623057">
  <ele>649.82</ele>
  <time>2026-08-28T19:09:32Z</time>
  <course>343.59</course>
  <speed>8.18</speed>
  <fix>3d</fix>
</trkpt>
<trkpt lat="-35.3629979" lon="149.1622977">
  <ele>649.41</ele>
  <time>2026-08-28T19:09:32Z</time>
  <course>343.82</course>
  <speed>8.158002206422845</speed>
  <fix>3d</fix>
</trkpt>
<trkpt lat="-35.3630064" lon="149.1623006">
  <ele>649.53</ele>
  <time>2026-08-28T19:09:32Z</time>
  <course>343.61</course>
  <speed>8.18</speed>
  <fix>3d</fix>
</trkpt>
<trkpt lat="-35.3629839" lon="149.1622926">
  <ele>649.11</ele>
  <time>2026-08-28T19:09:32Z</time>
  <course>343.84</course>
  <speed>8.145600039285013</speed>
  <fix>3d</fix>
</trkpt>
<trkpt lat="-35.3629923" lon="149.1622955">
  <ele>649.23</ele>
  <time>2026-08-28T19:09:32Z</time>
  <course>343.62</course>
  <speed>8.17</speed>
  <fix>3d</fix>
</trkpt>
<trkpt lat="-35.3629698" lon="149.1622875">
  <ele>648.81</ele>
  <time>2026-08-28T19:09:32Z</time>
  <course>343.82</course>
  <speed>8.145600039285013</speed>
  <fix>3d</fix>
</trkpt>
<trkpt lat="-35.3629782" lon="149.1622904">
  <ele>648.93</ele>
  <time>2026-08-28T19:09:32Z</time>
  <course>343.63</course>
  <speed>8.17</speed>
  <fix>3d</fix>
</trkpt>
<trkpt lat="-35.3629558" lon="149.1622825">
  <ele>648.52</ele>
  <time>2026-08-28T19:09:32Z</time>
  <course>343.82</course>
  <speed>8.145600039285013</speed>
  <fix>3d</fix>
</trkpt>
<trkpt lat="-35.3629641" lon="149.1622853">
  <ele>648.63</ele>
  <time>2026-08-28T19:09:32Z</time>
  <course>343.64</course>
  <speed>8.17</speed>
  <fix>3d</fix>
</trkpt>
<trkpt lat="-35.3629417" lon="149.1622774">
  <ele>648.22</ele>
  <time>2026-08-28T19:09:32Z</time>
  <course>343.79</course>
  <speed>8.155200794585012</speed>
  <fix>3d</fix>
</trkpt>
<trkpt lat="-35.36295" lon="149.1622803">
  <ele>648.32</ele>
  <time>2026-08-28T19:09:32Z</time>
  <course>343.64</course>
  <speed>8.18</speed>
  <fix>3d</fix>
</trkpt>
<trkpt lat="-35.3629276" lon="149.1622723">
  <ele>647.91</ele>
  <time>2026-08-28T19:09:32Z</time>
  <course>343.78</course>
  <speed>8.158002206422845</speed>
  <fix>3d</fix>
</trkpt>
<trkpt lat="-35.3629359" lon="149.1622752">
  <ele>648.03</ele>
  <time>2026-08-28T19:09:32Z</time>
  <course>343.64</course>
  <speed>8.18</speed>
  <fix>3d</fix>
</trkpt>
<trkpt lat="-35.3629135" lon="149.1622673">
  <ele>647.61</ele>
  <time>2026-08-28T19:09:32Z</time>
  <course>343.75</course>
  <speed>8.158002206422845</speed>
  <fix>3d</fix>
</trkpt>
<trkpt lat="-35.3629218" lon="149.1622701">
  <ele>647.73</ele>
  <time>2026-08-28T19:09:32Z</time>
  <course>343.63</course>
  <speed>8.18</speed>
  <fix>3d</fix>
</trkpt>
<trkpt lat="-35.3628994" lon="149.1622621">
  <ele>647.31</ele>
  <time>2026-08-28T19:09:32Z</time>
  <course>343.74</course>
  <speed>8.158002206422845</speed>
  <fix>3d</fix>
</trkpt>
<trkpt lat="-35.3629077" lon="149.1622651">
  <ele>647.43</ele>
  <time>2026-08-28T19:09:32Z</time>
  <course>343.61</course>
  <speed>8.18</speed>
  <fix>3d</fix>
</trkpt>
<trkpt lat="-35.3628853" lon="149.1622571">
  <ele>647.01</ele>
  <time>2026-08-28T19:09:32Z</time>
  <course>343.73</course>
  <speed>8.16081491028929</speed>
  <fix>3d</fix>
</trkpt>
<trkpt lat="-35.3628936" lon="149.16226">
  <ele>647.13</ele>
  <time>2026-08-28T19:09:32Z</time>
  <course>343.6</course>
  <speed>8.19</speed>
  <fix>3d</fix>
</trkpt>
<trkpt lat="-35.3628712" lon="149.162252">
  <ele>646.72</ele>
  <time>2026-08-28T19:09:32Z</time>
  <course>343.72</course>
  <speed>8.16081491028929</speed>
  <fix>3d</fix>
</trkpt>
<trkpt lat="-35.3628794" lon="149.1622548">
  <ele>646.83</ele>
  <time>2026-08-28T19:09:32Z</time>
  <course>343.58</course>
  <speed>8.19</speed>
  <fix>3d</fix>
</trkpt>
<trkpt lat="-35.362857" lon="149.1622468">
  <ele>646.43</ele>
  <time>2026-08-28T19:09:32Z</time>
  <course>343.72</course>
  <speed>8.16081491028929</speed>
  <fix>3d</fix>
</trkpt>
<trkpt lat="-35.3628653" lon="149.1622497">
  <ele>646.54</ele>
  <time>2026-08-28T19:09:32Z</time>
  <course>343.56</course>
  <speed>8.18</speed>
  <fix>3d</fix>
</trkpt>
<trkpt lat="-35.3628429" lon="149.1622417">
  <ele>646.13</ele>
  <time>2026-08-28T19:09:32Z</time>
  <course>343.71</course>
  <speed>8.16081491028929</speed>
  <fix>3d</fix>
</trkpt>
<trkpt lat="-35.3628512" lon="149.1622446">
  <ele>646.24</ele>
  <time>2026-08-28T19:09:32Z</time>
  <course>343.55</course>
  <speed>8.18</speed>
  <fix>3d</fix>
</trkpt>
<trkpt lat="-35.3628288" lon="149.1622366">
  <ele>645.83</ele>
  <time>2026-08-28T19:09:32Z</time>
  <course>343.71</course>
  <speed>8.151220767467901</speed>
  <fix>3d</fix>
</trkpt>
<trkpt lat="-35.3628371" lon="149.1622395">
  <ele>645.94</ele>
  <time>2026-08-28T19:09:32Z</time>
  <course>343.54</course>
  <speed>8.18</speed>
  <fix>3d</fix>
</trkpt>
<trkpt lat="-35.3628147" lon="149.1622315">
  <ele>645.53</ele>
  <time>2026-08-28T19:09:32Z</time>
  <course>343.69</course>
  <speed>8.151220767467901</speed>
  <fix>3d</fix>
</trkpt>
<trkpt lat="-35.362823" lon="149.1622344">
  <ele>645.64</ele>
  <time>2026-08-28T19:09:32Z</time>
  <course>343.54</course>
  <speed>8.17</speed>
  <fix>3d</fix>
</trkpt>
<trkpt lat="-35.3628006" lon="149.1622264">
  <ele>645.23</ele>
  <time>2026-08-28T19:09:32Z</time>
  <course>343.68</course>
  <speed>8.151220767467901</speed>
  <fix>3d</fix>
</trkpt>
<trkpt lat="-35.3628089" lon="149.1622293">
  <ele>645.33</ele>
  <time>2026-08-28T19:09:32Z</time>
  <course>343.53</course>
  <speed>8.17</speed>
  <fix>3d</fix>
</trkpt>
<trkpt lat="-35.3627865" lon="149.1622213">
  <ele>644.92</ele>
  <time>2026-08-28T19:09:32Z</time>
  <course>343.67</course>
  <speed>8.151220767467901</speed>
  <fix>3d</fix>
</trkpt>
<trkpt lat="-35.3627949" lon="149.1622242">
  <ele>645.03</ele>
  <time>2026-08-28T19:09:32Z</time>
  <course>343.53</course>
  <speed>8.17</speed>
  <fix>3d</fix>
</trkpt>
<trkpt lat="-35.3627725" lon="149.1622162">
  <ele>644.62</ele>
  <time>2026-08-28T19:09:32Z</time>
  <course>343.66</course>
  <speed>8.151220767467901</speed>
  <fix>3d</fix>
</trkpt>
<trkpt lat="-35.3627808" lon="149.1622191">
  <ele>644.73</ele>
  <time>2026-08-28T19:09:32Z</time>
  <course>343.52</course>
  <speed>8.17</speed>
  <fix>3d</fix>
</trkpt>
<trkpt lat="-35.3627583" lon="149.1622111">
  <ele>644.32</ele>
  <time>2026-08-28T19:09:32Z</time>
  <course>343.63</course>
  <speed>8.151220767467901</speed>
  <fix>3d</fix>
</trkpt>
<trkpt lat="-35.3627667" lon="149.162214">
  <ele>644.43</ele>
  <time>2026-08-28T19:09:32Z</time>
  <course>343.51</course>
  <speed>8.17</speed>
  <fix>3d</fix>
</trkpt>
<trkpt lat="-35.3627442" lon="149.1622059">
  <ele>644.02</ele>
  <time>2026-08-28T19:09:32Z</time>
  <course>343.61</course>
  <speed>8.151220767467901</speed>
  <fix>3d</fix>
</trkpt>
<trkpt lat="-35.3627526" lon="149.1622089">
  <ele>644.12</ele>
  <time>2026-08-28T19:09:32Z</time>
  <course>343.51</course>
  <speed>8.17</speed>
  <fix>3d</fix>
</trkpt>
<trkpt lat="-35.3627302" lon="149.1622008">
  <ele>643.72</ele>
  <time>2026-08-28T19:09:32Z</time>
  <course>343.62</course>
  <speed>8.151220767467901</speed>
  <fix>3d</fix>
</trkpt>
<trkpt lat="-35.3627385" lon="149.1622038">
  <ele>643.81</ele>
  <time>2026-08-28T19:09:32Z</time>
  <course>343.5</course>
  <speed>8.17</speed>
  <fix>3d</fix>
</trkpt>
<trkpt lat="-35.3627161" lon="149.1621957">
  <ele>643.41</ele>
  <time>2026-08-28T19:09:32Z</time>
  <course>343.6</course>
  <speed>8.151220767467901</speed>
  <fix>3d</fix>
</trkpt>
<trkpt lat="-35.3627244" lon="149.1621987">
  <ele>643.52</ele>
  <time>2026-08-28T19:09:32Z</time>
  <course>343.49</course>
  <speed>8.17</speed>
  <fix>3d</fix>
</trkpt>
<trkpt lat="-35.3627019" lon="149.1621906">
  <ele>643.11</ele>
  <time>2026-08-28T19:09:32Z</time>
  <course>343.57</course>
  <speed>8.154048074422912</speed>
  <fix>3d</fix>
</trkpt>
<trkpt lat="-35.3627104" lon="149.1621936">
  <ele>643.22</ele>
  <time>2026-08-28T19:09:32Z</time>
  <course>343.49</course>
  <speed>8.17</speed>
  <fix>3d</fix>
</trkpt>
<trkpt lat="-35.3626879" lon="149.1621855">
  <ele>642.81</ele>
  <time>2026-08-28T19:09:32Z</time>
  <course>343.57</course>
  <speed>8.151220767467901</speed>
  <fix>3d</fix>
</trkpt>
<trkpt lat="-35.3626963" lon="149.1621885">
  <ele>642.92</ele>
  <time>2026-08-28T19:09:32Z</time>
  <course>343.49</course>
  <speed>8.17</speed>
  <fix>3d</fix>
</trkpt>
<trkpt lat="-35.3626739" lon="149.1621804">
  <ele>642.51</ele>
  <time>2026-08-28T19:09:32Z</time>
  <course>343.58</course>
  <speed>8.141627601407473</speed>
  <fix>3d</fix>
</trkpt>
<trkpt lat="-35.3626822" lon="149.1621833">
  <ele>642.62</ele>
  <time>2026-08-28T19:09:32Z</time>
  <course>343.48</course>
  <speed>8.16</speed>
  <fix>3d</fix>
</trkpt>
<trkpt lat="-35.3626598" lon="149.1621753">
  <ele>642.2</ele>
  <time>2026-08-28T19:09:32Z</time>
  <course>343.58</course>
  <speed>8.141627601407473</speed>
  <fix>3d</fix>
</trkpt>
<trkpt lat="-35.3626682" lon="149.1621782">
  <ele>642.31</ele>
  <time>2026-08-28T19:09:32Z</time>
  <course>343.48</course>
  <speed>8.16</speed>
  <fix>3d</fix>
</trkpt>
<trkpt lat="-35.3626458" lon="149.1621702">
  <ele>641.9</ele>
  <time>2026-08-28T19:09:32Z</time>
  <course>343.56</course>
  <speed>8.141627601407473</speed>
  <fix>3d</fix>
</trkpt>
<trkpt lat="-35.3626541" lon="149.1621731">
  <ele>642.02</ele>
  <time>2026-08-28T19:09:32Z</time>
  <course>343.48</course>
  <speed>8.16</speed>
  <fix>3d</fix>
</trkpt>
<trkpt lat="-35.3626318" lon="149.1621651">
  <ele>641.6</ele>
  <time>2026-08-28T19:09:32Z</time>
  <course>343.52</course>
  <speed>8.151220767467901</speed>
  <fix>3d</fix>
</trkpt>
<trkpt lat="-35.36264" lon="149.162168">
  <ele>641.73</ele>
  <time>2026-08-28T19:09:32Z</time>
  <course>343.49</course>
  <speed>8.17</speed>
  <fix>3d</fix>
</trkpt>
<trkpt lat="-35.3626177" lon="149.16216">
  <ele>641.3</ele>
  <time>2026-08-28T19:09:32Z</time>
  <course>343.5</course>
  <speed>8.151220767467901</speed>
  <fix>3d</fix>
</trkpt>
<trkpt lat="-35.3626259" lon="149.1621629">
  <ele>641.43</ele>
  <time>2026-08-28T19:09:32Z</time>
  <course>343.49</course>
  <speed>8.17</speed>
  <fix>3d</fix>
</trkpt>
<trkpt lat="-35.3626036" lon="149.1621549">
  <ele>641.0</ele>
  <time>2026-08-28T19:09:32Z</time>
  <course>343.51</course>
  <speed>8.163638894512667</speed>
  <fix>3d</fix>
</trkpt>
<trkpt lat="-35.3626118" lon="149.1621578">
  <ele>641.13</ele>
  <time>2026-08-28T19:09:32Z</time>
  <course>343.49</course>
  <speed>8.18</speed>
  <fix>3d</fix>
</trkpt>
<trkpt lat="-35.3625895" lon="149.1621498">
  <ele>640.71</ele>
  <time>2026-08-28T19:09:32Z</time>
  <course>343.49</course>
  <speed>8.173230695386005</speed>
  <fix>3d</fix>
</trkpt>
<trkpt lat="-35.3625977" lon="149.1621526">
  <ele>640.82</ele>
  <time>2026-08-28T19:09:32Z</time>
  <course>343.49</course>
  <speed>8.19</speed>
  <fix>3d</fix>
</trkpt>
<trkpt lat="-35.3625754" lon="149.1621446">
  <ele>640.42</ele>
  <time>2026-08-28T19:09:32Z</time>
  <course>343.52</course>
  <speed>8.173230695386005</speed>
  <fix>3d</fix>
</trkpt>
<trkpt lat="-35.3625836" lon="149.1621475">
  <ele>640.53</ele>
  <time>2026-08-28T19:09:32Z</time>
  <course>343.49</course>
  <speed>8.19</speed>
  <fix>3d</fix>
</trkpt>
<trkpt lat="-35.3625612" lon="149.1621395">
  <ele>640.12</ele>
  <time>2026-08-28T19:09:32Z</time>
  <course>343.52</course>
  <speed>8.173230695386005</speed>
  <fix>3d</fix>
</trkpt>
<trkpt lat="-35.3625695" lon="149.1621424">
  <ele>640.23</ele>
  <time>2026-08-28T19:09:32Z</time>
  <course>343.49</course>
  <speed>8.19</speed>
  <fix>3d</fix>
</trkpt>
<trkpt lat="-35.3625471" lon="149.1621344">
  <ele>639.83</ele>
  <time>2026-08-28T19:09:32Z</time>
  <course>343.55</course>
  <speed>8.173230695386005</speed>
  <fix>3d</fix>
</trkpt>
<trkpt lat="-35.3625554" lon="149.1621372">
  <ele>639.94</ele>
  <time>2026-08-28T19:09:32Z</time>
  <course>343.49</course>
  <speed>8.19</speed>
  <fix>3d</fix>
</trkpt>
<trkpt lat="-35.362533" lon="149.1621292">
  <ele>639.53</ele>
  <time>2026-08-28T19:09:32Z</time>
  <course>343.55</course>
  <speed>8.163638894512667</speed>
  <fix>3d</fix>
</trkpt>
<trkpt lat="-35.3625412" lon="149.1621321">
  <ele>639.64</ele>
  <time>2026-08-28T19:09:32Z</time>
  <course>343.49</course>
  <speed>8.19</speed>
  <fix>3d</fix>
</trkpt>
<trkpt lat="-35.3625189" lon="149.1621241">
  <ele>639.23</ele>
  <time>2026-08-28T19:09:32Z</time>
  <course>343.58</course>
  <speed>8.16081491028929</speed>
  <fix>3d</fix>
</trkpt>
<trkpt lat="-35.3625271" lon="149.162127">
  <ele>639.33</ele>
  <time>2026-08-28T19:09:32Z</time>
  <course>343.5</course>
  <speed>8.19</speed>
  <fix>3d</fix>
</trkpt>
<trkpt lat="-35.3625048" lon="149.162119">
  <ele>638.93</ele>
  <time>2026-08-28T19:09:32Z</time>
  <course>343.59</course>
  <speed>8.170410026430742</speed>
  <fix>3d</fix>
</trkpt>
<trkpt lat="-35.362513" lon="149.1621219">
  <ele>639.04</ele>
  <time>2026-08-28T19:09:32Z</time>
  <course>343.52</course>
  <speed>8.19</speed>
  <fix>3d</fix>
</trkpt>
<trkpt lat="-35.3624907" lon="149.1621139">
  <ele>638.63</ele>
  <time>2026-08-28T19:09:32Z</time>
  <course>343.61</course>
  <speed>8.170410026430742</speed>
  <fix>3d</fix>
</trkpt>
<trkpt lat="-35.3624989" lon="149.1621167">
  <ele>638.74</ele>
  <time>2026-08-28T19:09:32Z</time>
  <course>343.53</course>
  <speed>8.19</speed>
  <fix>3d</fix>
</trkpt>
<trkpt lat="-35.3624766" lon="149.1621088">
  <ele>638.32</ele>
  <time>2026-08-28T19:09:33Z</time>
  <course>343.6</course>
  <speed>8.170410026430742</speed>
  <fix>3d</fix>
</trkpt>
<trkpt lat="-35.3624848" lon="149.1621116">
  <ele>638.43</ele>
  <time>2026-08-28T19:09:33Z</time>
  <course>343.54</course>
  <speed>8.19</speed>
  <fix>3d</fix>
</trkpt>
<trkpt lat="-35.3624624" lon="149.1621036">
  <ele>638.02</ele>
  <time>2026-08-28T19:09:33Z</time>
  <course>343.58</course>
  <speed>8.170410026430742</speed>
  <fix>3d</fix>
</trkpt>
<trkpt lat="-35.3624707" lon="149.1621065">
  <ele>638.13</ele>
  <time>2026-08-28T19:09:33Z</time>
  <course>343.55</course>
  <speed>8.19</speed>
  <fix>3d</fix>
</trkpt>
<trkpt lat="-35.3624483" lon="149.1620985">
  <ele>637.72</ele>
  <time>2026-08-28T19:09:33Z</time>
  <course>343.59</course>
  <speed>8.170410026430742</speed>
  <fix>3d</fix>
</trkpt>
<trkpt lat="-35.3624566" lon="149.1621014">
  <ele>637.82</ele>
  <time>2026-08-28T19:09:33Z</time>
  <course>343.56</course>
  <speed>8.19</speed>
  <fix>3d</fix>
</trkpt>
<trkpt lat="-35.3624342" lon="149.1620934">
  <ele>637.42</ele>
  <time>2026-08-28T19:09:33Z</time>
  <course>343.59</course>
  <speed>8.170410026430742</speed>
  <fix>3d</fix>
</trkpt>
<trkpt lat="-35.3624424" lon="149.1620963">
  <ele>637.53</ele>
  <time>2026-08-28T19:09:33Z</time>
  <course>343.56</course>
  <speed>8.19</speed>
  <fix>3d</fix>
</trkpt>
<trkpt lat="-35.36242" lon="149.1620883">
  <ele>637.12</ele>
  <time>2026-08-28T19:09:33Z</time>
  <course>343.61</course>
  <speed>8.16081491028929</speed>
  <fix>3d</fix>
</trkpt>
<trkpt lat="-35.3624283" lon="149.1620912">
  <ele>637.23</ele>
  <time>2026-08-28T19:09:33Z</time>
  <course>343.55</course>
  <speed>8.18</speed>
  <fix>3d</fix>
</trkpt>
<trkpt lat="-35.3624059" lon="149.1620832">
  <ele>636.82</ele>
  <time>2026-08-28T19:09:33Z</time>
  <course>343.63</course>
  <speed>8.16081491028929</speed>
  <fix>3d</fix>
</trkpt>
<trkpt lat="-35.3624142" lon="149.1620861">
  <ele>636.93</ele>
  <time>2026-08-28T19:09:33Z</time>
  <course>343.56</course>
  <speed>8.17</speed>
  <fix>3d</fix>
</trkpt>
<trkpt lat="-35.3623918" lon="149.1620781">
  <ele>636.51</ele>
  <time>2026-08-28T19:09:33Z</time>
  <course>343.62</course>
  <speed>8.14840475185174</speed>
  <fix>3d</fix>
</trkpt>
<trkpt lat="-35.3624001" lon="149.162081">
  <ele>636.63</ele>
  <time>2026-08-28T19:09:33Z</time>
  <course>343.56</course>
  <speed>8.17</speed>
  <fix>3d</fix>
</trkpt>
<trkpt lat="-35.3623776" lon="149.162073">
  <ele>636.21</ele>
  <time>2026-08-28T19:09:33Z</time>
  <course>343.61</course>
  <speed>8.14840475185174</speed>
  <fix>3d</fix>
</trkpt>
<trkpt lat="-35.3623861" lon="149.1620759">
  <ele>636.32</ele>
  <time>2026-08-28T19:09:33Z</time>
  <course>343.57</course>
  <speed>8.16</speed>
  <fix>3d</fix>
</trkpt>
<trkpt lat="-35.3623636" lon="149.1620679">
  <ele>635.91</ele>
  <time>2026-08-28T19:09:33Z</time>
  <course>343.62</course>
  <speed>8.14840475185174</speed>
  <fix>3d</fix>
</trkpt>
<trkpt lat="-35.362372" lon="149.1620708">
  <ele>636.03</ele>
  <time>2026-08-28T19:09:33Z</time>
  <course>343.57</course>
  <speed>8.16</speed>
  <fix>3d</fix>
</trkpt>
<trkpt lat="-35.3623495" lon="149.1620628">
  <ele>635.6</ele>
  <time>2026-08-28T19:09:33Z</time>
  <course>343.61</course>
  <speed>8.138808266570727</speed>
  <fix>3d</fix>
</trkpt>
<trkpt lat="-35.362358" lon="149.1620658">
  <ele>635.74</ele>
  <time>2026-08-28T19:09:33Z</time>
  <course>343.57</course>
  <speed>8.15</speed>
  <fix>3d</fix>
</trkpt>
<trkpt lat="-35.3623354" lon="149.1620577">
  <ele>635.3</ele>
  <time>2026-08-28T19:09:33Z</time>
  <course>343.58</course>
  <speed>8.138808266570727</speed>
  <fix>3d</fix>
</trkpt>
<trkpt lat="-35.3623439" lon="149.1620607">
  <ele>635.44</ele>
  <time>2026-08-28T19:09:33Z</time>
  <course>343.56</course>
  <speed>8.15</speed>
  <fix>3d</fix>
</trkpt>
<trkpt lat="-35.3623213" lon="149.1620526">
  <ele>635.01</ele>
  <time>2026-08-28T19:09:33Z</time>
  <course>343.56</course>
  <speed>8.138808266570727</speed>
  <fix>3d</fix>
</trkpt>
<trkpt lat="-35.3623298" lon="149.1620556">
  <ele>635.14</ele>
  <time>2026-08-28T19:09:33Z</time>
  <course>343.56</course>
  <speed>8.14</speed>
  <fix>3d</fix>
</trkpt>
<trkpt lat="-35.3623073" lon="149.1620475">
  <ele>634.71</ele>
  <time>2026-08-28T19:09:33Z</time>
  <course>343.58</course>
  <speed>8.129212754012531</speed>
  <fix>3d</fix>
</trkpt>
<trkpt lat="-35.3623159" lon="149.1620505">
  <ele>634.84</ele>
  <time>2026-08-28T19:09:33Z</time>
  <course>343.55</course>
  <speed>8.14</speed>
  <fix>3d</fix>
</trkpt>
<trkpt lat="-35.3622933" lon="149.1620425">
  <ele>634.41</ele>
  <time>2026-08-28T19:09:33Z</time>
  <course>343.56</course>
  <speed>8.129212754012531</speed>
  <fix>3d</fix>
</trkpt>
<trkpt lat="-35.3623018" lon="149.1620454">
  <ele>634.55</ele>
  <time>2026-08-28T19:09:33Z</time>
  <course>343.54</course>
  <speed>8.14</speed>
  <fix>3d</fix>
</trkpt>
<trkpt lat="-35.3622793" lon="149.1620374">
  <ele>634.11</ele>
  <time>2026-08-28T19:09:33Z</time>
  <course>343.55</course>
  <speed>8.129212754012531</speed>
  <fix>3d</fix>
</trkpt>
<trkpt lat="-35.3622878" lon="149.1620403">
  <ele>634.25</ele>
  <time>2026-08-28T19:09:33Z</time>
  <course>343.54</course>
  <speed>8.14</speed>
  <fix>3d</fix>
</trkpt>
<trkpt lat="-35.3622653" lon="149.1620323">
  <ele>633.81</ele>
  <time>2026-08-28T19:09:33Z</time>
  <course>343.52</course>
  <speed>8.129212754012531</speed>
  <fix>3d</fix>
</trkpt>
<trkpt lat="-35.3622737" lon="149.1620353">
  <ele>633.94</ele>
  <time>2026-08-28T19:09:33Z</time>
  <course>343.53</course>
  <speed>8.14</speed>
  <fix>3d</fix>
</trkpt>
<trkpt lat="-35.3622513" lon="149.1620272">
  <ele>633.51</ele>
  <time>2026-08-28T19:09:33Z</time>
  <course>343.47</course>
  <speed>8.141627601407473</speed>
  <fix>3d</fix>
</trkpt>
<trkpt lat="-35.3622596" lon="149.1620302">
  <ele>633.65</ele>
  <time>2026-08-28T19:09:33Z</time>
  <course>343.52</course>
  <speed>8.15</speed>
  <fix>3d</fix>
</trkpt>
<trkpt lat="-35.3622373" lon="149.1620221">
  <ele>633.22</ele>
  <time>2026-08-28T19:09:33Z</time>
  <course>343.45</course>
  <speed>8.141627601407473</speed>
  <fix>3d</fix>
</trkpt>
<trkpt lat="-35.3622456" lon="149.1620251">
  <ele>633.35</ele>
  <time>2026-08-28T19:09:33Z</time>
  <course>343.51</course>
  <speed>8.16</speed>
  <fix>3d</fix>
</trkpt>
<trkpt lat="-35.3622233" lon="149.1620171">
  <ele>632.92</ele>
  <time>2026-08-28T19:09:33Z</time>
  <course>343.44</course>
  <speed>8.151220767467901</speed>
  <fix>3d</fix>
</trkpt>
<trkpt lat="-35.3622316" lon="149.16202">
  <ele>633.05</ele>
  <time>2026-08-28T19:09:33Z</time>
  <course>343.5</course>
  <speed>8.16</speed>
  <fix>3d</fix>
</trkpt>
<trkpt lat="-35.3622092" lon="149.162012">
  <ele>632.62</ele>
  <time>2026-08-28T19:09:33Z</time>
  <course>343.43</course>
  <speed>8.163638894512667</speed>
  <fix>3d</fix>
</trkpt>
<trkpt lat="-35.3622175" lon="149.1620148">
  <ele>632.75</ele>
  <time>2026-08-28T19:09:33Z</time>
  <course>343.49</course>
  <speed>8.17</speed>
  <fix>3d</fix>
</trkpt>
<trkpt lat="-35.3621952" lon="149.1620069">
  <ele>632.32</ele>
  <time>2026-08-28T19:09:33Z</time>
  <course>343.42</course>
  <speed>8.163638894512667</speed>
  <fix>3d</fix>
</trkpt>
<trkpt lat="-35.3622034" lon="149.1620097">
  <ele>632.44</ele>
  <time>2026-08-28T19:09:33Z</time>
  <course>343.48</course>
  <speed>8.18</speed>
  <fix>3d</fix>
</trkpt>
<trkpt lat="-35.3621811" lon="149.1620017">
  <ele>632.02</ele>
  <time>2026-08-28T19:09:33Z</time>
  <course>343.4</course>
  <speed>8.173230695386005</speed>
  <fix>3d</fix>
</trkpt>
<trkpt lat="-35.3621893" lon="149.1620046">
  <ele>632.15</ele>
  <time>2026-08-28T19:09:33Z</time>
  <course>343.47</course>
  <speed>8.19</speed>
  <fix>3d</fix>
</trkpt>
<trkpt lat="-35.3621669" lon="149.1619966">
  <ele>631.72</ele>
  <time>2026-08-28T19:09:33Z</time>
  <course>343.4</course>
  <speed>8.18565208153877</speed>
  <fix>3d</fix>
</trkpt>
<trkpt lat="-35.3621751" lon="149.1619994">
  <ele>631.85</ele>
  <time>2026-08-28T19:09:33Z</time>
  <course>343.47</course>
  <speed>8.2</speed>
  <fix>3d</fix>
</trkpt>
<trkpt lat="-35.3621528" lon="149.1619914">
  <ele>631.43</ele>
  <time>2026-08-28T19:09:33Z</time>
  <course>343.4</course>
  <speed>8.19524252234185</speed>
  <fix>3d</fix>
</trkpt>
<trkpt lat="-35.362161" lon="149.1619943">
  <ele>631.55</ele>
  <time>2026-08-28T19:09:33Z</time>
  <course>343.47</course>
  <speed>8.21</speed>
  <fix>3d</fix>
</trkpt>
<trkpt lat="-35.3621386" lon="149.1619863">
  <ele>631.12</ele>
  <time>2026-08-28T19:09:33Z</time>
  <course>343.42</course>
  <speed>8.19524252234185</speed>
  <fix>3d</fix>
</trkpt>
<trkpt lat="-35.3621468" lon="149.1619892">
  <ele>631.25</ele>
  <time>2026-08-28T19:09:33Z</time>
  <course>343.47</course>
  <speed>8.22</speed>
  <fix>3d</fix>
</trkpt>
<trkpt lat="-35.3621244" lon="149.1619811">
  <ele>630.82</ele>
  <time>2026-08-28T19:09:33Z</time>
  <course>343.42</course>
  <speed>8.19524252234185</speed>
  <fix>3d</fix>
</trkpt>
<trkpt lat="-35.3621327" lon="149.161984">
  <ele>630.94</ele>
  <time>2026-08-28T19:09:33Z</time>
  <course>343.47</course>
  <speed>8.22</speed>
  <fix>3d</fix>
</trkpt>
<trkpt lat="-35.3621102" lon="149.1619759">
  <ele>630.52</ele>
  <time>2026-08-28T19:09:33Z</time>
  <course>343.44</course>
  <speed>8.19524252234185</speed>
  <fix>3d</fix>
</trkpt>
<trkpt lat="-35.3621185" lon="149.1619789">
  <ele>630.65</ele>
  <time>2026-08-28T19:09:33Z</time>
  <course>343.48</course>
  <speed>8.22</speed>
  <fix>3d</fix>
</trkpt>
<trkpt lat="-35.362096" lon="149.1619708">
  <ele>630.22</ele>
  <time>2026-08-28T19:09:33Z</time>
  <course>343.49</course>
  <speed>8.192417225703291</speed>
  <fix>3d</fix>
</trkpt>
<trkpt lat="-35.3621043" lon="149.1619737">
  <ele>630.35</ele>
  <time>2026-08-28T19:09:33Z</time>
  <course>343.49</course>
  <speed>8.21</speed>
  <fix>3d</fix>
</trkpt>
<trkpt lat="-35.3620819" lon="149.1619657">
  <ele>629.92</ele>
  <time>2026-08-28T19:09:33Z</time>
  <course>343.51</course>
  <speed>8.18282347359394</speed>
  <fix>3d</fix>
</trkpt>
<trkpt lat="-35.3620902" lon="149.1619686">
  <ele>630.05</ele>
  <time>2026-08-28T19:09:33Z</time>
  <course>343.51</course>
  <speed>8.21</speed>
  <fix>3d</fix>
</trkpt>
<trkpt lat="-35.3620677" lon="149.1619605">
  <ele>629.62</ele>
  <time>2026-08-28T19:09:33Z</time>
  <course>343.54</course>
  <speed>8.180006112467154</speed>
  <fix>3d</fix>
</trkpt>
<trkpt lat="-35.362076" lon="149.1619634">
  <ele>629.75</ele>
  <time>2026-08-28T19:09:33Z</time>
  <course>343.52</course>
  <speed>8.2</speed>
  <fix>3d</fix>
</trkpt>
<trkpt lat="-35.3620536" lon="149.1619554">
  <ele>629.32</ele>
  <time>2026-08-28T19:09:33Z</time>
  <course>343.57</course>
  <speed>8.170410026430742</speed>
  <fix>3d</fix>
</trkpt>
<trkpt lat="-35.3620619" lon="149.1619583">
  <ele>629.45</ele>
  <time>2026-08-28T19:09:33Z</time>
  <course>343.54</course>
  <speed>8.19</speed>
  <fix>3d</fix>
</trkpt>
<trkpt lat="-35.3620394" lon="149.1619503">
  <ele>629.02</ele>
  <time>2026-08-28T19:09:33Z</time>
  <course>343.58</course>
  <speed>8.170410026430742</speed>
  <fix>3d</fix>
</trkpt>
<trkpt lat="-35.3620478" lon="149.1619532">
  <ele>629.16</ele>
  <time>2026-08-28T19:09:33Z</time>
  <course>343.55</course>
  <speed>8.18</speed>
  <fix>3d</fix>
</trkpt>
<trkpt lat="-35.3620253" lon="149.1619452">
  <ele>628.72</ele>
  <time>2026-08-28T19:09:33Z</time>
  <course>343.59</course>
  <speed>8.16081491028929</speed>
  <fix>3d</fix>
</trkpt>
<trkpt lat="-35.3620337" lon="149.1619481">
  <ele>628.86</ele>
  <time>2026-08-28T19:09:33Z</time>
  <course>343.56</course>
  <speed>8.18</speed>
  <fix>3d</fix>
</trkpt>
<trkpt lat="-35.3620112" lon="149.1619401">
  <ele>628.41</ele>
  <time>2026-08-28T19:09:33Z</time>
  <course>343.6</course>
  <speed>8.14840475185174</speed>
  <fix>3d</fix>
</trkpt>
<trkpt lat="-35.3620196" lon="149.161943">
  <ele>628.56</ele>
  <time>2026-08-28T19:09:33Z</time>
  <course>343.57</course>
  <speed>8.17</speed>
  <fix>3d</fix>
</trkpt>
<trkpt lat="-35.3619971" lon="149.161935">
  <ele>628.11</ele>
  <time>2026-08-28T19:09:33Z</time>
  <course>343.6</course>
  <speed>8.14840475185174</speed>
  <fix>3d</fix>
</trkpt>
<trkpt lat="-35.3620055" lon="149.1619379">
  <ele>628.26</ele>
  <time>2026-08-28T19:09:33Z</time>
  <course>343.58</course>
  <speed>8.16</speed>
  <fix>3d</fix>
</trkpt>
<trkpt lat="-35.361983" lon="149.1619299">
  <ele>627.81</ele>
  <time>2026-08-28T19:09:33Z</time>
  <course>343.59</course>
  <speed>8.138808266570727</speed>
  <fix>3d</fix>
</trkpt>
<trkpt lat="-35.3619915" lon="149.1619328">
  <ele>627.95</ele>
  <time>2026-08-28T19:09:33Z</time>
  <course>343.58</course>
  <speed>8.16</speed>
  <fix>3d</fix>
</trkpt>
<trkpt lat="-35.3619689" lon="149.1619248">
  <ele>627.51</ele>
  <time>2026-08-28T19:09:33Z</time>
  <course>343.57</course>
  <speed>8.138808266570727</speed>
  <fix>3d</fix>
</trkpt>
<trkpt lat="-35.3619774" lon="149.1619278">
  <ele>627.66</ele>
  <time>2026-08-28T19:09:33Z</time>
  <course>343.59</course>
  <speed>8.15</speed>
  <fix>3d</fix>
</trkpt>
<trkpt lat="-35.3619548" lon="149.1619197">
  <ele>627.21</ele>
  <time>2026-08-28T19:09:33Z</time>
  <course>343.58</course>
  <speed>8.129212754012531</speed>
  <fix>3d</fix>
</trkpt>
<trkpt lat="-35.3619633" lon="149.1619227">
  <ele>627.36</ele>
  <time>2026-08-28T19:09:33Z</time>
  <course>343.59</course>
  <speed>8.14</speed>
  <fix>3d</fix>
</trkpt>
<trkpt lat="-35.3619408" lon="149.1619146">
  <ele>626.91</ele>
  <time>2026-08-28T19:09:33Z</time>
  <course>343.57</course>
  <speed>8.129212754012531</speed>
  <fix>3d</fix>
</trkpt>
<trkpt lat="-35.3619493" lon="149.1619176">
  <ele>627.06</ele>
  <time>2026-08-28T19:09:33Z</time>
  <course>343.58</course>
  <speed>8.14</speed>
  <fix>3d</fix>
</trkpt>
<trkpt lat="-35.3619267" lon="149.1619096">
  <ele>626.61</ele>
  <time>2026-08-28T19:09:33Z</time>
  <course>343.55</course>
  <speed>8.129212754012531</speed>
  <fix>3d</fix>
</trkpt>
<trkpt lat="-35.3619353" lon="149.1619126">
  <ele>626.76</ele>
  <time>2026-08-28T19:09:33Z</time>
  <course>343.58</course>
  <speed>8.14</speed>
  <fix>3d</fix>
</trkpt>
<trkpt lat="-35.3619127" lon="149.1619045">
  <ele>626.31</ele>
  <time>2026-08-28T19:09:33Z</time>
  <course>343.52</course>
  <speed>8.129212754012531</speed>
  <fix>3d</fix>
</trkpt>
<trkpt lat="-35.3619212" lon="149.1619075">
  <ele>626.47</ele>
  <time>2026-08-28T19:09:33Z</time>
  <course>343.57</course>
  <speed>8.13</speed>
  <fix>3d</fix>
</trkpt>
<trkpt lat="-35.3618987" lon="149.1618994">
  <ele>626.01</ele>
  <time>2026-08-28T19:09:33Z</time>
  <course>343.46</course>
  <speed>8.119618217625753</speed>
  <fix>3d</fix>
</trkpt>
<trkpt lat="-35.3619073" lon="149.1619024">
  <ele>626.17</ele>
  <time>2026-08-28T19:09:33Z</time>
  <course>343.56</course>
  <speed>8.13</speed>
  <fix>3d</fix>
</trkpt>
<trkpt lat="-35.3618847" lon="149.1618944">
  <ele>625.72</ele>
  <time>2026-08-28T19:09:33Z</time>
  <course>343.45</course>
  <speed>8.088015825899452</speed>
  <fix>3d</fix>
</trkpt>
<trkpt lat="-35.3618933" lon="149.1618973">
  <ele>625.87</ele>
  <time>2026-08-28T19:09:33Z</time>
  <course>343.54</course>
  <speed>8.12</speed>
  <fix>3d</fix>
</trkpt>
<trkpt lat="-35.3618708" lon="149.1618893">
  <ele>625.44</ele>
  <time>2026-08-28T19:09:33Z</time>
  <course>343.56</course>
  <speed>7.998862419119359</speed>
  <fix>3d</fix>
</trkpt>
<trkpt lat="-35.3618793" lon="149.1618923">
  <ele>625.58</ele>
  <time>2026-08-28T19:09:33Z</time>
  <course>343.51</course>
  <speed>8.07</speed>
  <fix>3d</fix>
</trkpt>
<trkpt lat="-35.3618571" lon="149.1618843">
  <ele>625.18</ele>
  <time>2026-08-28T19:09:33Z</time>
  <course>343.75</course>
  <speed>7.862855715323791</speed>
  <fix>3d</fix>
</trkpt>
<trkpt lat="-35.3618654" lon="149.1618873">
  <ele>625.3</ele>
  <time>2026-08-28T19:09:33Z</time>
  <course>343.47</course>
  <speed>7.98</speed>
  <fix>3d</fix>
</trkpt>
<trkpt lat="-35.3618438" lon="149.1618794">
  <ele>624.92</ele>
  <time>2026-08-28T19:09:33Z</time>
  <course>344.02</course>
  <speed>7.676066701117182</speed>
  <fix>3d</fix>
</trkpt>
<trkpt lat="-35.3618518" lon="149.1618823">
  <ele>625.04</ele>
  <time>2026-08-28T19:09:33Z</time>
  <course>343.45</course>
  <speed>7.83</speed>
  <fix>3d</fix>
</trkpt>
<trkpt lat="-35.3618307" lon="149.1618747">
  <ele>624.67</ele>
  <time>2026-08-28T19:09:33Z</time>
  <course>344.31</course>
  <speed>7.435657334762004</speed>
  <fix>3d</fix>
</trkpt>
<trkpt lat="-35.3618385" lon="149.1618775">
  <ele>624.79</ele>
  <time>2026-08-28T19:09:33Z</time>
  <course>343.47</course>
  <speed>7.62</speed>
  <fix>3d</fix>
</trkpt>
<trkpt lat="-35.3618181" lon="149.1618701">
  <ele>624.43</ele>
  <time>2026-08-28T19:09:33Z</time>
  <course>344.6</course>
  <speed>7.151223671512449</speed>
  <fix>3d</fix>
</trkpt>
<trkpt lat="-35.3618255" lon="149.1618728">
  <ele>624.54</ele>
  <time>2026-08-28T19:09:33Z</time>
  <course>343.54</course>
  <speed>7.37</speed>
  <fix>3d</fix>
</trkpt>
<trkpt lat="-35.361806" lon="149.1618658">
  <ele>624.2</ele>
  <time>2026-08-28T19:09:33Z</time>
  <course>344.86</course>
  <speed>6.813200422708847</speed>
  <fix>3d</fix>
</trkpt>
<trkpt lat="-35.3618131" lon="149.1618682">
  <ele>624.3</ele>
  <time>2026-08-28T19:09:33Z</time>
  <course>343.65</course>
  <speed>7.07</speed>
  <fix>3d</fix>
</trkpt>
<trkpt lat="-35.3617945" lon="149.1618617">
  <ele>623.97</ele>
  <time>2026-08-28T19:09:33Z</time>
  <course>345.11</course>
  <speed>6.43401119054047</speed>
  <fix>3d</fix>
</trkpt>
<trkpt lat="-35.3618012" lon="149.161864">
  <ele>624.06</ele>
  <time>2026-08-28T19:09:33Z</time>
  <course>343.79</course>
  <speed>6.73</speed>
  <fix>3d</fix>
</trkpt>
<trkpt lat="-35.3617837" lon="149.1618578">
  <ele>623.74</ele>
  <time>2026-08-28T19:09:33Z</time>
  <course>345.3</course>
  <speed>6.013651137204419</speed>
  <fix>3d</fix>
</trkpt>
<trkpt lat="-35.3617899" lon="149.16186">
  <ele>623.83</ele>
  <time>2026-08-28T19:09:33Z</time>
  <course>343.94</course>
  <speed>6.34</speed>
  <fix>3d</fix>
</trkpt>
<trkpt lat="-35.3617736" lon="149.1618543">
  <ele>623.52</ele>
  <time>2026-08-28T19:09:33Z</time>
  <course>345.41</course>
  <speed>5.542499436174983</speed>
  <fix>3d</fix>
</trkpt>
<trkpt lat="-35.3617794" lon="149.1618563">
  <ele>623.61</ele>
  <time>2026-08-28T19:09:33Z</time>
  <course>344.1</course>
  <speed>5.9</speed>
  <fix>3d</fix>
</trkpt>
<trkpt lat="-35.3617644" lon="149.1618511">
  <ele>623.31</ele>
  <time>2026-08-28T19:09:33Z</time>
  <course>345.5</course>
  <speed>5.020537819795804</speed>
  <fix>3d</fix>
</trkpt>
<trkpt lat="-35.3617696" lon="149.1618528">
  <ele>623.39</ele>
  <time>2026-08-28T19:09:33Z</time>
  <course>344.27</course>
  <speed>5.41</speed>
  <fix>3d</fix>
</trkpt>
<trkpt lat="-35.3617561" lon="149.1618482">
  <ele>623.12</ele>
  <time>2026-08-28T19:09:33Z</time>
  <course>345.52</course>
  <speed>4.418891263654267</speed>
  <fix>3d</fix>
</trkpt>
<trkpt lat="-35.3617607" lon="149.1618498">
  <ele>623.19</ele>
  <time>2026-08-28T19:09:33Z</time>
  <course>344.41</course>
  <speed>4.86</speed>
  <fix>3d</fix>
</trkpt>
<trkpt lat="-35.361749" lon="149.1618457">
  <ele>622.94</ele>
  <time>2026-08-28T19:09:33Z</time>
  <course>345.46</course>
  <speed>3.7540644640176333</speed>
  <fix>3d</fix>
</trkpt>
<trkpt lat="-35.3617528" lon="149.1618471">
  <ele>623.0</ele>
  <time>2026-08-28T19:09:33Z</time>
  <course>344.52</course>
  <speed>4.23</speed>
  <fix>3d</fix>
</trkpt>
<trkpt lat="-35.361743" lon="149.1618437">
  <ele>622.79</ele>
  <time>2026-08-28T19:09:33Z</time>
  <course>345.22</course>
  <speed>3.0164382970649344</speed>
  <fix>3d</fix>
</trkpt>
<trkpt lat="-35.361746" lon="149.1618449">
  <ele>622.83</ele>
  <time>2026-08-28T19:09:33Z</time>
  <course>344.62</course>
  <speed>3.54</speed>
  <fix>3d</fix>
</trkpt>
<trkpt lat="-35.3617383" lon="149.1618421">
  <ele>622.64</ele>
  <time>2026-08-28T19:09:33Z</time>
  <course>344.86</course>
  <speed>2.2568340656769608</speed>
  <fix>3d</fix>
</trkpt>
<trkpt lat="-35.3617405" lon="149.161843">
  <ele>622.68</ele>
  <time>2026-08-28T19:09:33Z</time>
  <course>344.77</course>
  <speed>2.8</speed>
  <fix>3d</fix>
</trkpt>
<trkpt lat="-35.361735" lon="149.161841">
  <ele>622.52</ele>
  <time>2026-08-28T19:09:33Z</time>
  <course>344.41</course>
  <speed>1.4560219778561037</speed>
  <fix>3d</fix>
</trkpt>
<trkpt lat="-35.3617363" lon="149.1618416">
  <ele>622.54</ele>
  <time>2026-08-28T19:09:33Z</time>
  <course>345.09</course>
  <speed>2.02</speed>
  <fix>3d</fix>
</trkpt>
<trkpt lat="-35.361733" lon="149.1618404">
  <ele>622.4</ele>
  <time>2026-08-28T19:09:33Z</time>
  <course>343.79</course>
  <speed>0.6552098900352467</speed>
  <fix>3d</fix>
</trkpt>
<trkpt lat="-35.3617335" lon="149.1618407">
  <ele>622.41</ele>
  <time>2026-08-28T19:09:33Z</time>
  <course>345.84</course>
  <speed>1.21</speed>
  <fix>3d</fix>
</trkpt>
<trkpt lat="-35.3617324" lon="149.1618402">
  <ele>622.29</ele>
  <time>2026-08-28T19:09:33Z</time>
  <course>343.24</course>
  <speed>0.13341664064126335</speed>
  <fix>3d</fix>
</trkpt>
<trkpt lat="-35.3617321" lon="149.1618403">
  <ele>622.29</ele>
  <time>2026-08-28T19:09:33Z</time>
  <course>349.47</course>
  <speed>0.4</speed>
  <fix>3d</fix>
</trkpt>
<trkpt lat="-35.3617332" lon="149.1618406">
  <ele>622.2</ele>
  <time>2026-08-28T19:09:33Z</time>
  <course>342.74</course>
  <speed>0.9024965373894794</speed>
  <fix>3d</fix>
</trkpt>
<trkpt lat="-35.3617321" lon="149.1618404">
  <ele>622.19</ele>
  <time>2026-08-28T19:09:33Z</time>
  <course>158.41</course>
  <speed>0.39</speed>
  <fix>3d</fix>
</trkpt>
<trkpt lat="-35.3617353" lon="149.1618414">
  <ele>622.13</ele>
  <time>2026-08-28T19:09:33Z</time>
  <course>340.01</course>
  <speed>1.6542369842317033</speed>
  <fix>3d</fix>
</trkpt>
<trkpt lat="-35.3617333" lon="149.1618408">
  <ele>622.1</ele>
  <time>2026-08-28T19:09:33Z</time>
  <course>161.79</course>
  <speed>1.17</speed>
  <fix>3d</fix>
</trkpt>
<trkpt lat="-35.3617386" lon="149.1618428">
  <ele>622.07</ele>
  <time>2026-08-28T19:09:33Z</time>
  <course>324.51</course>
  <speed>2.397540406333124</speed>
  <fix>3d</fix>
</trkpt>
<trkpt lat="-35.3617359" lon="149.1618419">
  <ele>622.03</ele>
  <time>2026-08-28T19:09:33Z</time>
  <course>161.8</course>
  <speed>1.92</speed>
  <fix>3d</fix>
</trkpt>
<trkpt lat="-35.3617433" lon="149.1618446">
  <ele>622.03</ele>
  <time>2026-08-28T19:09:33Z</time>
  <course>311.18</course>
  <speed>3.1217463061562194</speed>
  <fix>3d</fix>
</trkpt>
<trkpt lat="-35.3617399" lon="149.1618435">
  <ele>621.97</ele>
  <time>2026-08-28T19:09:33Z</time>
  <course>161.86</course>
  <speed>2.66</speed>
  <fix>3d</fix>
</trkpt>
<trkpt lat="-35.3617491" lon="149.161847">
  <ele>622.0</ele>
  <time>2026-08-28T19:09:33Z</time>
  <course>298.52</course>
  <speed>3.7917937707633835</speed>
  <fix>3d</fix>
</trkpt>
<trkpt lat="-35.3617451" lon="149.1618456">
  <ele>621.93</ele>
  <time>2026-08-28T19:09:33Z</time>
  <course>161.89</course>
  <speed>3.37</speed>
  <fix>3d</fix>
</trkpt>
<trkpt lat="-35.361756" lon="149.1618498">
  <ele>621.97</ele>
  <time>2026-08-28T19:09:33Z</time>
  <course>286.51</course>
  <speed>4.386080254623711</speed>
  <fix>3d</fix>
</trkpt>
<trkpt lat="-35.3617514" lon="149.1618482">
  <ele>621.89</ele>
  <time>2026-08-28T19:09:33Z</time>
  <course>161.48</course>
  <speed>4.03</speed>
  <fix>3d</fix>
</trkpt>
<trkpt lat="-35.3617638" lon="149.1618532">
  <ele>621.96</ele>
  <time>2026-08-28T19:09:33Z</time>
  <course>274.98</course>
  <speed>4.892167208916719</speed>
  <fix>3d</fix>
</trkpt>
<trkpt lat="-35.3617588" lon="149.1618512">
  <ele>621.87</ele>
  <time>2026-08-28T19:09:33Z</time>
  <course>161.04</course>
  <speed>4.61</speed>
  <fix>3d</fix>
</trkpt>
<trkpt lat="-35.3617725" lon="149.1618569">
  <ele>621.96</ele>
  <time>2026-08-28T19:09:33Z</time>
  <course>263.67</course>
  <speed>5.306486596609851</speed>
  <fix>3d</fix>
</trkpt>
<trkpt lat="-35.361767" lon="149.1618547">
  <ele>621.86</ele>
  <time>2026-08-28T19:09:33Z</time>
  <course>160.82</course>
  <speed>5.1</speed>
  <fix>3d</fix>
</trkpt>
<trkpt lat="-35.3617818" lon="149.1618608">
  <ele>621.97</ele>
  <time>2026-08-28T19:09:33Z</time>
  <course>252.48</course>
  <speed>5.663647234777251</speed>
  <fix>3d</fix>
</trkpt>
<trkpt lat="-35.361776" lon="149.1618585">
  <ele>621.86</ele>
  <time>2026-08-28T19:09:33Z</time>
  <course>160.98</course>
  <speed>5.5</speed>
  <fix>3d</fix>
</trkpt>
<trkpt lat="-35.3617917" lon="149.1618648">
  <ele>621.97</ele>
  <time>2026-08-28T19:09:33Z</time>
  <course>241.11</course>
  <speed>5.986559947081462</speed>
  <fix>3d</fix>
</trkpt>
<trkpt lat="-35.3617857" lon="149.1618626">
  <ele>621.86</ele>
  <time>2026-08-28T19:09:33Z</time>
  <course>161.52</course>
  <speed>5.84</speed>
  <fix>3d</fix>
</trkpt>
<trkpt lat="-35.3618023" lon="149.1618689">
  <ele>621.97</ele>
  <time>2026-08-28T19:09:33Z</time>
  <course>229.46</course>
  <speed>6.3302843538027584</speed>
  <fix>3d</fix>
</trkpt>
<trkpt lat="-35.361796" lon="149.1618667">
  <ele>621.86</ele>
  <time>2026-08-28T19:09:33Z</time>
  <course>162.36</course>
  <speed>6.17</speed>
  <fix>3d</fix>
</trkpt>
<trkpt lat="-35.3618135" lon="149.1618731">
  <ele>621.96</ele>
  <time>2026-08-28T19:09:33Z</time>
  <course>217.55</course>
  <speed>6.7196800519072335</speed>
  <fix>3d</fix>
</trkpt>
<trkpt lat="-35.3618069" lon="149.1618708">
  <ele>621.85</ele>
  <time>2026-08-28T19:09:33Z</time>
  <course>163.28</course>
  <speed>6.53</speed>
  <fix>3d</fix>
</trkpt>
<trkpt lat="-35.3618256" lon="149.1618773">
  <ele>621.94</ele>
  <time>2026-08-28T19:09:33Z</time>
  <course>205.21</course>
  <speed>7.171784993988596</speed>
  <fix>3d</fix>
</trkpt>
<trkpt lat="-35.3618185" lon="149.161875">
  <ele>621.82</ele>
  <time>2026-08-28T19:09:33Z</time>
  <course>164.04</course>
  <speed>6.93</speed>
  <fix>3d</fix>
</trkpt>
<trkpt lat="-35.3618385" lon="149.1618817">
  <ele>621.91</ele>
  <time>2026-08-28T19:09:33Z</time>
  <course>192.44</course>
  <speed>7.678704317786953</speed>
  <fix>3d</fix>
</trkpt>
<trkpt lat="-35.3618309" lon="149.1618793">
  <ele>621.79</ele>
  <time>2026-08-28T19:09:33Z</time>
  <course>164.45</course>
  <speed>7.39</speed>
  <fix>3d</fix>
</trkpt>
<trkpt lat="-35.3618523" lon="149.1618865">
  <ele>621.88</ele>
  <time>2026-08-28T19:09:33Z</time>
  <course>179.48</course>
  <speed>8.175701804738232</speed>
  <fix>3d</fix>
</trkpt>
<trkpt lat="-35.3618441" lon="149.1618838">
  <ele>621.76</ele>
  <time>2026-08-28T19:09:33Z</time>
  <course>164.37</course>
  <speed>7.89</speed>
  <fix>3d</fix>
</trkpt>
<trkpt lat="-35.3618668" lon="149.1618917">
  <ele>621.85</ele>
  <time>2026-08-28T19:09:33Z</time>
  <course>166.9</course>
  <speed>8.614690940480685</speed>
  <fix>3d</fix>
</trkpt>
<trkpt lat="-35.3618582" lon="149.1618887">
  <ele>621.72</ele>
  <time>2026-08-28T19:09:33Z</time>
  <course>163.85</course>
  <speed>8.37</speed>
  <fix>3d</fix>
</trkpt>
<trkpt lat="-35.3618819" lon="149.1618975">
  <ele>621.84</ele>
  <time>2026-08-28T19:09:33Z</time>
  <course>155.79</course>
  <speed>8.952815199701154</speed>
  <fix>3d</fix>
</trkpt>
<trkpt lat="-35.361873" lon="149.161894">
  <ele>621.7</ele>
  <time>2026-08-28T19:09:33Z</time>
  <course>163.0</course>
  <speed>8.77</speed>
  <fix>3d</fix>
</trkpt>
<trkpt lat="-35.3618975" lon="149.1619038">
  <ele>621.85</ele>
  <time>2026-08-28T19:09:33Z</time>
  <course>155.34</course>
  <speed>9.18975516540022</speed>
  <fix>3d</fix>
</trkpt>
<trkpt lat="-35.3618882" lon="149.1619">
  <ele>621.69</ele>
  <time>2026-08-28T19:09:33Z</time>
  <course>161.97</course>
  <speed>9.08</speed>
  <fix>3d</fix>
</trkpt>
<trkpt lat="-35.3619134" lon="149.1619104">
  <ele>621.85</ele>
  <time>2026-08-28T19:09:33Z</time>
  <course>156.07</course>
  <speed>9.379733471693106</speed>
  <fix>3d</fix>
</trkpt>
<trkpt lat="-35.3619039" lon="149.1619064">
  <ele>621.68</ele>
  <time>2026-08-28T19:09:33Z</time>
  <course>161.28</course>
  <speed>9.3</speed>
  <fix>3d</fix>
</trkpt>
<trkpt lat="-35.3619295" lon="149.1619172">
  <ele>621.84</ele>
  <time>2026-08-28T19:09:33Z</time>
  <course>156.77</course>
  <speed>9.550287953773958</speed>
  <fix>3d</fix>
</trkpt>
<trkpt lat="-35.3619199" lon="149.1619131">
  <ele>621.68</ele>
  <time>2026-08-28T19:09:33Z</time>
  <course>161.18</course>
  <speed>9.48</speed>
  <fix>3d</fix>
</trkpt>
<trkpt lat="-35.3619459" lon="149.1619239">
  <ele>621.83</ele>
  <time>2026-08-28T19:09:33Z</time>
  <course>157.37</course>
  <speed>9.692393925135317</speed>
  <fix>3d</fix>
</trkpt>
<trkpt lat="-35.3619362" lon="149.1619198">
  <ele>621.67</ele>
  <time>2026-08-28T19:09:33Z</time>
  <course>161.35</course>
  <speed>9.64</speed>
  <fix>3d</fix>
</trkpt>
<trkpt lat="-35.3619626" lon="149.1619307">
  <ele>621.81</ele>
  <time>2026-08-28T19:09:33Z</time>
  <course>157.99</course>
  <speed>9.806370378483571</speed>
  <fix>3d</fix>
</trkpt>
<trkpt lat="-35.3619527" lon="149.1619266">
  <ele>621.65</ele>
  <time>2026-08-28T19:09:33Z</time>
  <course>161.67</course>
  <speed>9.77</speed>
  <fix>3d</fix>
</trkpt>
<trkpt lat="-35.3619795" lon="149.1619373">
  <ele>621.78</ele>
  <time>2026-08-28T19:09:33Z</time>
  <course>158.72</course>
  <speed>9.889211293121408</speed>
  <fix>3d</fix>
</trkpt>
<trkpt lat="-35.3619695" lon="149.1619334">
  <ele>621.63</ele>
  <time>2026-08-28T19:09:33Z</time>
  <course>162.06</course>
  <speed>9.87</speed>
  <fix>3d</fix>
</trkpt>
<trkpt lat="-35.3619965" lon="149.1619439">
  <ele>621.76</ele>
  <time>2026-08-28T19:09:33Z</time>
  <course>159.54</course>
  <speed>9.93793741175703</speed>
  <fix>3d</fix>
</trkpt>
<trkpt lat="-35.3619865" lon="149.16194">
  <ele>621.61</ele>
  <time>2026-08-28T19:09:33Z</time>
  <course>162.49</course>
  <speed>9.94</speed>
  <fix>3d</fix>
</trkpt>
<trkpt lat="-35.3620138" lon="149.1619504">
  <ele>621.74</ele>
  <time>2026-08-28T19:09:33Z</time>
  <course>160.46</course>
  <speed>9.952778506527713</speed>
  <fix>3d</fix>
</trkpt>
<trkpt lat="-35.3620035" lon="149.1619466">
  <ele>621.58</ele>
  <time>2026-08-28T19:09:33Z</time>
  <course>162.97</course>
  <speed>9.98</speed>
  <fix>3d</fix>
</trkpt>
<trkpt lat="-35.362031" lon="149.1619566">
  <ele>621.72</ele>
  <time>2026-08-28T19:09:33Z</time>
  <course>161.46</course>
  <speed>9.927200008058668</speed>
  <fix>3d</fix>
</trkpt>
<trkpt lat="-35.3620207" lon="149.1619529">
  <ele>621.56</ele>
  <time>2026-08-28T19:09:33Z</time>
  <course>163.46</course>
  <speed>9.97</speed>
  <fix>3d</fix>
</trkpt>
<trkpt lat="-35.3620481" lon="149.1619626">
  <ele>621.7</ele>
  <time>2026-08-28T19:09:33Z</time>
  <course>162.39</course>
  <speed>9.89274987048596</speed>
  <fix>3d</fix>
</trkpt>
<trkpt lat="-35.362038" lon="149.1619591">
  <ele>621.54</ele>
  <time>2026-08-28T19:09:33Z</time>
  <course>163.98</course>
  <speed>9.94</speed>
  <fix>3d</fix>
</trkpt>
<trkpt lat="-35.3620653" lon="149.1619685">
  <ele>621.66</ele>
  <time>2026-08-28T19:09:33Z</time>
  <course>163.11</course>
  <speed>9.859011106596848</speed>
  <fix>3d</fix>
</trkpt>
<trkpt lat="-35.3620551" lon="149.1619649">
  <ele>621.51</ele>
  <time>2026-08-28T19:09:33Z</time>
  <course>164.48</course>
  <speed>9.9</speed>
  <fix>3d</fix>
</trkpt>
<trkpt lat="-35.3620826" lon="149.1619741">
  <ele>621.6</ele>
  <time>2026-08-28T19:09:33Z</time>
  <course>163.52</course>
  <speed>9.87944330415434</speed>
  <fix>3d</fix>
</trkpt>
<trkpt lat="-35.3620722" lon="149.1619707">
  <ele>621.47</ele>
  <time>2026-08-28T19:09:33Z</time>
  <course>164.95</course>
  <speed>9.88</speed>
  <fix>3d</fix>
</trkpt>
<trkpt lat="-35.3620998" lon="149.1619796">
  <ele>621.53</ele>
  <time>2026-08-28T19:09:33Z</time>
  <course>163.55</course>
  <speed>9.949216049518675</speed>
  <fix>3d</fix>
</trkpt>
<trkpt lat="-35.3620894" lon="149.1619763">
  <ele>621.41</ele>
  <time>2026-08-28T19:09:33Z</time>
  <course>165.36</course>
  <speed>9.9</speed>
  <fix>3d</fix>
</trkpt>
<trkpt lat="-35.3621172" lon="149.1619851">
  <ele>621.45</ele>
  <time>2026-08-28T19:09:33Z</time>
  <course>163.24</course>
  <speed>10.09447373566349</speed>
  <fix>3d</fix>
</trkpt>
<trkpt lat="-35.3621067" lon="149.1619818">
  <ele>621.33</ele>
  <time>2026-08-28T19:09:33Z</time>
  <course>165.63</course>
  <speed>9.99</speed>
  <fix>3d</fix>
</trkpt>
<trkpt lat="-35.3621349" lon="149.1619906">
  <ele>621.36</ele>
  <time>2026-08-28T19:09:33Z</time>
  <course>162.61</course>
  <speed>10.303106327705253</speed>
  <fix>3d</fix>
</trkpt>
<trkpt lat="-35.3621242" lon="149.1619873">
  <ele>621.26</ele>
  <time>2026-08-28T19:09:33Z</time>
  <course>165.75</course>
  <speed>10.15</speed>
  <fix>3d</fix>
</trkpt>
<trkpt lat="-35.362153" lon="149.1619963">
  <ele>621.27</ele>
  <time>2026-08-28T19:09:33Z</time>
  <course>161.69</course>
  <speed>10.579848770185706</speed>
  <fix>3d</fix>
</trkpt>
<trkpt lat="-35.3621421" lon="149.1619928">
  <ele>621.17</ele>
  <time>2026-08-28T19:09:33Z</time>
  <course>165.68</course>
  <speed>10.38</speed>
  <fix>3d</fix>
</trkpt>
<trkpt lat="-35.3621716" lon="149.1620023">
  <ele>621.19</ele>
  <time>2026-08-28T19:09:33Z</time>
  <course>160.54</course>
  <speed>10.905576555139119</speed>
  <fix>3d</fix>
</trkpt>
<trkpt lat="-35.3621604" lon="149.1619986">
  <ele>621.08</ele>
  <time>2026-08-28T19:09:33Z</time>
  <course>165.43</course>
  <speed>10.67</speed>
  <fix>3d</fix>
</trkpt>
<trkpt lat="-35.3621907" lon="149.1620086">
  <ele>621.13</ele>
  <time>2026-08-28T19:09:33Z</time>
  <course>159.21</course>
  <speed>11.27108246797973</speed>
  <fix>3d</fix>
</trkpt>
<trkpt lat="-35.3621792" lon="149.1620047">
  <ele>621.01</ele>
  <time>2026-08-28T19:09:33Z</time>
  <course>165.05</course>
  <speed>11.01</speed>
  <fix>3d</fix>
</trkpt>
<trkpt lat="-35.3622106" lon="149.1620153">
  <ele>621.07</ele>
  <time>2026-08-28T19:09:33Z</time>
  <course>157.74</course>
  <speed>11.671559450219151</speed>
  <fix>3d</fix>
</trkpt>
<trkpt lat="-35.3621986" lon="149.1620111">
  <ele>620.94</ele>
  <time>2026-08-28T19:09:33Z</time>
  <course>164.59</course>
  <speed>11.39</speed>
  <fix>3d</fix>
</trkpt>
<trkpt lat="-35.362231" lon="149.1620225">
  <ele>621.02</ele>
  <time>2026-08-28T19:09:33Z</time>
  <course>156.35</course>
  <speed>12.06320023874262</speed>
  <fix>3d</fix>
</trkpt>
<trkpt lat="-35.3622187" lon="149.1620181">
  <ele>620.89</ele>
  <time>2026-08-28T19:09:33Z</time>
  <course>164.08</course>
  <speed>11.78</speed>
  <fix>3d</fix>
</trkpt>
<trkpt lat="-35.362252" lon="149.1620301">
  <ele>620.99</ele>
  <time>2026-08-28T19:09:33Z</time>
  <course>155.29</course>
  <speed>12.426841915788579</speed>
  <fix>3d</fix>
</trkpt>
<trkpt lat="-35.3622395" lon="149.1620254">
  <ele>620.85</ele>
  <time>2026-08-28T19:09:33Z</time>
  <course>163.58</course>
  <speed>12.17</speed>
  <fix>3d</fix>
</trkpt>
<trkpt lat="-35.3622737" lon="149.1620382">
  <ele>620.98</ele>
  <time>2026-08-28T19:09:33Z</time>
  <course>154.82</course>
  <speed>12.734653509224348</speed>
  <fix>3d</fix>
</trkpt>
<trkpt lat="-35.3622607" lon="149.1620332">
  <ele>620.83</ele>
  <time>2026-08-28T19:09:33Z</time>
  <course>163.12</course>
  <speed>12.53</speed>
  <fix>3d</fix>
</trkpt>
<trkpt lat="-35.3622957" lon="149.1620465">
  <ele>620.99</ele>
  <time>2026-08-28T19:09:33Z</time>
  <course>155.06</course>
  <speed>12.973773545117858</speed>
  <fix>3d</fix>
</trkpt>
<trkpt lat="-35.3622825" lon="149.1620414">
  <ele>620.82</ele>
  <time>2026-08-28T19:09:33Z</time>
  <course>162.76</course>
  <speed>12.82</speed>
  <fix>3d</fix>
</trkpt>
<trkpt lat="-35.362318" lon="149.1620551">
  <ele>621.0</ele>
  <time>2026-08-28T19:09:34Z</time>
  <course>155.89</course>
  <speed>13.137861317581336</speed>
  <fix>3d</fix>
</trkpt>
<trkpt lat="-35.3623047" lon="149.1620499">
  <ele>620.83</ele>
  <time>2026-08-28T19:09:34Z</time>
  <course>162.53</course>
  <speed>13.04</speed>
  <fix>3d</fix>
</trkpt>
<trkpt lat="-35.3623406" lon="149.1620638">
  <ele>621.02</ele>
  <time>2026-08-28T19:09:34Z</time>
  <course>157.05</course>
  <speed>13.239252244745547</speed>
  <fix>3d</fix>
</trkpt>
<trkpt lat="-35.3623271" lon="149.1620586">
  <ele>620.85</ele>
  <time>2026-08-28T19:09:34Z</time>
  <course>162.44</course>
  <speed>13.2</speed>
  <fix>3d</fix>
</trkpt>
<trkpt lat="-35.3623633" lon="149.1620726">
  <ele>621.03</ele>
  <time>2026-08-28T19:09:34Z</time>
  <course>158.27</course>
  <speed>13.293520978281112</speed>
  <fix>3d</fix>
</trkpt>
<trkpt lat="-35.3623499" lon="149.1620674">
  <ele>620.86</ele>
  <time>2026-08-28T19:09:34Z</time>
  <course>162.49</course>
  <speed>13.29</speed>
  <fix>3d</fix>
</trkpt>
<trkpt lat="-35.3623861" lon="149.1620812">
  <ele>621.04</ele>
  <time>2026-08-28T19:09:34Z</time>
  <course>159.4</course>
  <speed>13.307385167642815</speed>
  <fix>3d</fix>
</trkpt>
<trkpt lat="-35.3623727" lon="149.1620762">
  <ele>620.87</ele>
  <time>2026-08-28T19:09:34Z</time>
  <course>162.66</course>
  <speed>13.33</speed>
  <fix>3d</fix>
</trkpt>
<trkpt lat="-35.362409" lon="149.1620898">
  <ele>621.04</ele>
  <time>2026-08-28T19:09:34Z</time>
  <course>160.5</course>
  <speed>13.264950056445747</speed>
  <fix>3d</fix>
</trkpt>
<trkpt lat="-35.3623956" lon="149.1620849">
  <ele>620.87</ele>
  <time>2026-08-28T19:09:34Z</time>
  <course>162.91</course>
  <speed>13.33</speed>
  <fix>3d</fix>
</trkpt>
<trkpt lat="-35.3624319" lon="149.1620983">
  <ele>621.03</ele>
  <time>2026-08-28T19:09:34Z</time>
  <course>161.57</course>
  <speed>13.203715386208534</speed>
  <fix>3d</fix>
</trkpt>
<trkpt lat="-35.3624184" lon="149.1620935">
  <ele>620.86</ele>
  <time>2026-08-28T19:09:34Z</time>
  <course>163.19</course>
  <speed>13.29</speed>
  <fix>3d</fix>
</trkpt>
<trkpt lat="-35.3624548" lon="149.1621065">
  <ele>621.0</ele>
  <time>2026-08-28T19:09:34Z</time>
  <course>162.41</course>
  <speed>13.130411265455473</speed>
  <fix>3d</fix>
</trkpt>
<trkpt lat="-35.3624413" lon="149.1621018">
  <ele>620.85</ele>
  <time>2026-08-28T19:09:34Z</time>
  <course>163.51</course>
  <speed>13.22</speed>
  <fix>3d</fix>
</trkpt>
<trkpt lat="-35.3624774" lon="149.1621145">
  <ele>620.95</ele>
  <time>2026-08-28T19:09:34Z</time>
  <course>163.03</course>
  <speed>13.057507419105685</speed>
  <fix>3d</fix>
</trkpt>
<trkpt lat="-35.3624641" lon="149.16211">
  <ele>620.81</ele>
  <time>2026-08-28T19:09:34Z</time>
  <course>163.83</course>
  <speed>13.14</speed>
  <fix>3d</fix>
</trkpt>
<trkpt lat="-35.3625" lon="149.1621224">
  <ele>620.89</ele>
  <time>2026-08-28T19:09:34Z</time>
  <course>163.41</course>
  <speed>12.987694175641803</speed>
  <fix>3d</fix>
</trkpt>
<trkpt lat="-35.3624868" lon="149.162118">
  <ele>620.76</ele>
  <time>2026-08-28T19:09:34Z</time>
  <course>164.12</course>
  <speed>13.06</speed>
  <fix>3d</fix>
</trkpt>
<trkpt lat="-35.3625226" lon="149.1621301">
  <ele>620.81</ele>
  <time>2026-08-28T19:09:34Z</time>
  <course>163.58</course>
  <speed>12.945423901904487</speed>
  <fix>3d</fix>
</trkpt>
<trkpt lat="-35.3625093" lon="149.1621257">
  <ele>620.7</ele>
  <time>2026-08-28T19:09:34Z</time>
  <course>164.37</course>
  <speed>13.0</speed>
  <fix>3d</fix>
</trkpt>
<trkpt lat="-35.3625451" lon="149.1621377">
  <ele>620.74</ele>
  <time>2026-08-28T19:09:34Z</time>
  <course>163.65</course>
  <speed>12.896263024612983</speed>
  <fix>3d</fix>
</trkpt>
<trkpt lat="-35.3625318" lon="149.1621334">
  <ele>620.63</ele>
  <time>2026-08-28T19:09:34Z</time>
  <course>164.54</course>
  <speed>12.95</speed>
  <fix>3d</fix>
</trkpt>
<trkpt lat="-35.3625675" lon="149.1621453">
  <ele>620.67</ele>
  <time>2026-08-28T19:09:34Z</time>
  <course>163.63</course>
  <speed>12.864688103487001</speed>
  <fix>3d</fix>
</trkpt>
<trkpt lat="-35.3625541" lon="149.162141">
  <ele>620.55</ele>
  <time>2026-08-28T19:09:34Z</time>
  <course>164.63</course>
  <speed>12.9</speed>
  <fix>3d</fix>
</trkpt>
<trkpt lat="-35.3625899" lon="149.1621528">
  <ele>620.6</ele>
  <time>2026-08-28T19:09:34Z</time>
  <course>163.55</course>
  <speed>12.835750854546843</speed>
  <fix>3d</fix>
</trkpt>
<trkpt lat="-35.3625764" lon="149.1621485">
  <ele>620.49</ele>
  <time>2026-08-28T19:09:34Z</time>
  <course>164.64</course>
  <speed>12.87</speed>
  <fix>3d</fix>
</trkpt>
<trkpt lat="-35.3626121" lon="149.1621604">
  <ele>620.53</ele>
  <time>2026-08-28T19:09:34Z</time>
  <course>163.4</course>
  <speed>12.81212706774328</speed>
  <fix>3d</fix>
</trkpt>
<trkpt lat="-35.3625987" lon="149.162156">
  <ele>620.42</ele>
  <time>2026-08-28T19:09:34Z</time>
  <course>164.57</course>
  <speed>12.84</speed>
  <fix>3d</fix>
</trkpt>
<trkpt lat="-35.3626344" lon="149.162168">
  <ele>620.47</ele>
  <time>2026-08-28T19:09:34Z</time>
  <course>163.21</course>
  <speed>12.80087887607722</speed>
  <fix>3d</fix>
</trkpt>
<trkpt lat="-35.3626209" lon="149.1621635">
  <ele>620.36</ele>
  <time>2026-08-28T19:09:34Z</time>
  <course>164.45</course>
  <speed>12.81</speed>
  <fix>3d</fix>
</trkpt>
<trkpt lat="-35.3626566" lon="149.1621757">
  <ele>620.42</ele>
  <time>2026-08-28T19:09:34Z</time>
  <course>162.94</course>
  <speed>12.792439173199144</speed>
  <fix>3d</fix>
</trkpt>
<trkpt lat="-35.3626431" lon="149.1621712">
  <ele>620.31</ele>
  <time>2026-08-28T19:09:34Z</time>
  <course>164.28</course>
  <speed>12.8</speed>
  <fix>3d</fix>
</trkpt>
<trkpt lat="-35.3626787" lon="149.1621834">
  <ele>620.37</ele>
  <time>2026-08-28T19:09:34Z</time>
  <course>162.66</course>
  <speed>12.784150343296186</speed>
  <fix>3d</fix>
</trkpt>
<trkpt lat="-35.3626652" lon="149.1621788">
  <ele>620.26</ele>
  <time>2026-08-28T19:09:34Z</time>
  <course>164.08</course>
  <speed>12.78</speed>
  <fix>3d</fix>
</trkpt>
<trkpt lat="-35.3627007" lon="149.1621912">
  <ele>620.32</ele>
  <time>2026-08-28T19:09:34Z</time>
  <course>162.35</course>
  <speed>12.778802760822314</speed>
  <fix>3d</fix>
</trkpt>
<trkpt lat="-35.3626873" lon="149.1621866">
  <ele>620.21</ele>
  <time>2026-08-28T19:09:34Z</time>
  <course>163.85</course>
  <speed>12.78</speed>
  <fix>3d</fix>
</trkpt>
<trkpt lat="-35.3627227" lon="149.1621992">
  <ele>620.28</ele>
  <time>2026-08-28T19:09:34Z</time>
  <course>162.02</course>
  <speed>12.79286129057921</speed>
  <fix>3d</fix>
</trkpt>
<trkpt lat="-35.3627094" lon="149.1621945">
  <ele>620.17</ele>
  <time>2026-08-28T19:09:34Z</time>
  <course>163.62</course>
  <speed>12.78</speed>
  <fix>3d</fix>
</trkpt>
<trkpt lat="-35.3627447" lon="149.1622072">
  <ele>620.23</ele>
  <time>2026-08-28T19:09:34Z</time>
  <course>161.7</course>
  <speed>12.807099593584802</speed>
  <fix>3d</fix>
</trkpt>
<trkpt lat="-35.3627314" lon="149.1622025">
  <ele>620.12</ele>
  <time>2026-08-28T19:09:34Z</time>
  <course>163.39</course>
  <speed>12.8</speed>
  <fix>3d</fix>
</trkpt>
<trkpt lat="-35.3627667" lon="149.1622154">
  <ele>620.18</ele>
  <time>2026-08-28T19:09:34Z</time>
  <course>161.38</course>
  <speed>12.831087249333159</speed>
  <fix>3d</fix>
</trkpt>
<trkpt lat="-35.3627534" lon="149.1622106">
  <ele>620.07</ele>
  <time>2026-08-28T19:09:34Z</time>
  <course>163.18</course>
  <speed>12.82</speed>
  <fix>3d</fix>
</trkpt>
<trkpt lat="-35.3627887" lon="149.1622236">
  <ele>620.14</ele>
  <time>2026-08-28T19:09:34Z</time>
  <course>161.1</course>
  <speed>12.852303295518668</speed>
  <fix>3d</fix>
</trkpt>
<trkpt lat="-35.3627755" lon="149.1622188">
  <ele>620.04</ele>
  <time>2026-08-28T19:09:34Z</time>
  <course>162.97</course>
  <speed>12.84</speed>
  <fix>3d</fix>
</trkpt>
<trkpt lat="-35.3628107" lon="149.162232">
  <ele>620.1</ele>
  <time>2026-08-28T19:09:34Z</time>
  <course>160.86</course>
  <speed>12.883171193460095</speed>
  <fix>3d</fix>
</trkpt>
<trkpt lat="-35.3627976" lon="149.1622272">
  <ele>620.0</ele>
  <time>2026-08-28T19:09:34Z</time>
  <course>162.8</course>
  <speed>12.87</speed>
  <fix>3d</fix>
</trkpt>
<trkpt lat="-35.3628328" lon="149.1622404">
  <ele>620.05</ele>
  <time>2026-08-28T19:09:34Z</time>
  <course>160.7</course>
  <speed>12.914120179090792</speed>
  <fix>3d</fix>
</trkpt>
<trkpt lat="-35.3628197" lon="149.1622356">
  <ele>619.95</ele>
  <time>2026-08-28T19:09:34Z</time>
  <course>162.66</course>
  <speed>12.91</speed>
  <fix>3d</fix>
</trkpt>
<trkpt lat="-35.3628549" lon="149.1622489">
  <ele>620.01</ele>
  <time>2026-08-28T19:09:34Z</time>
  <course>160.55</course>
  <speed>12.94871422188319</speed>
  <fix>3d</fix>
</trkpt>
<trkpt lat="-35.3628419" lon="149.1622441">
  <ele>619.92</ele>
  <time>2026-08-28T19:09:34Z</time>
  <course>162.55</course>
  <speed>12.95</speed>
  <fix>3d</fix>
</trkpt>
<trkpt lat="-35.3628771" lon="149.1622575">
  <ele>619.98</ele>
  <time>2026-08-28T19:09:34Z</time>
  <course>160.49</course>
  <speed>12.983316217361418</speed>
  <fix>3d</fix>
</trkpt>
<trkpt lat="-35.362864" lon="149.1622526">
  <ele>619.88</ele>
  <time>2026-08-28T19:09:34Z</time>
  <course>162.48</course>
  <speed>12.98</speed>
  <fix>3d</fix>
</trkpt>
<trkpt lat="-35.3628995" lon="149.1622662">
  <ele>619.94</ele>
  <time>2026-08-28T19:09:34Z</time>
  <course>160.46</course>
  <speed>13.014933730142463</speed>
  <fix>3d</fix>
</trkpt>
<trkpt lat="-35.3628863" lon="149.1622613">
  <ele>619.85</ele>
  <time>2026-08-28T19:09:34Z</time>
  <course>162.46</course>
  <speed>13.02</speed>
  <fix>3d</fix>
</trkpt>
<trkpt lat="-35.3629218" lon="149.1622748">
  <ele>619.91</ele>
  <time>2026-08-28T19:09:34Z</time>
  <course>160.53</course>
  <speed>13.053110740356107</speed>
  <fix>3d</fix>
</trkpt>
<trkpt lat="-35.3629087" lon="149.16227">
  <ele>619.81</ele>
  <time>2026-08-28T19:09:34Z</time>
  <course>162.46</course>
  <speed>13.05</speed>
  <fix>3d</fix>
</trkpt>
<trkpt lat="-35.3629443" lon="149.1622834">
  <ele>619.87</ele>
  <time>2026-08-28T19:09:34Z</time>
  <course>160.66</course>
  <speed>13.069231040883773</speed>
  <fix>3d</fix>
</trkpt>
<trkpt lat="-35.3629312" lon="149.1622787">
  <ele>619.78</ele>
  <time>2026-08-28T19:09:34Z</time>
  <course>162.5</course>
  <speed>13.08</speed>
  <fix>3d</fix>
</trkpt>
<trkpt lat="-35.3629669" lon="149.1622921">
  <ele>619.84</ele>
  <time>2026-08-28T19:09:34Z</time>
  <course>160.85</course>
  <speed>13.085369692905125</speed>
  <fix>3d</fix>
</trkpt>
<trkpt lat="-35.3629536" lon="149.1622874">
  <ele>619.74</ele>
  <time>2026-08-28T19:09:34Z</time>
  <course>162.58</course>
  <speed>13.1</speed>
  <fix>3d</fix>
</trkpt>
<trkpt lat="-35.3629894" lon="149.1623007">
  <ele>619.81</ele>
  <time>2026-08-28T19:09:34Z</time>
  <course>161.09</course>
  <speed>13.09564813210862</speed>
  <fix>3d</fix>
</trkpt>
<trkpt lat="-35.362976" lon="149.162296">
  <ele>619.7</ele>
  <time>2026-08-28T19:09:34Z</time>
  <course>162.68</course>
  <speed>13.11</speed>
  <fix>3d</fix>
</trkpt>
<trkpt lat="-35.3630119" lon="149.1623093">
  <ele>619.77</ele>
  <time>2026-08-28T19:09:34Z</time>
  <course>161.35</course>
  <speed>13.096449900641012</speed>
  <fix>3d</fix>
</trkpt>
<trkpt lat="-35.3629985" lon="149.1623045">
  <ele>619.67</ele>
  <time>2026-08-28T19:09:34Z</time>
  <course>162.81</course>
  <speed>13.11</speed>
  <fix>3d</fix>
</trkpt>
<trkpt lat="-35.3630345" lon="149.1623177">
  <ele>619.73</ele>
  <time>2026-08-28T19:09:34Z</time>
  <course>161.61</course>
  <speed>13.097327971765845</speed>
  <fix>3d</fix>
</trkpt>
<trkpt lat="-35.3630211" lon="149.162313">
  <ele>619.64</ele>
  <time>2026-08-28T19:09:34Z</time>
  <course>162.95</course>
  <speed>13.11</speed>
  <fix>3d</fix>
</trkpt>
<trkpt lat="-35.3630571" lon="149.1623261">
  <ele>619.69</ele>
  <time>2026-08-28T19:09:34Z</time>
  <course>161.85</course>
  <speed>13.088701234270724</speed>
  <fix>3d</fix>
</trkpt>
<trkpt lat="-35.3630436" lon="149.1623215">
  <ele>619.6</ele>
  <time>2026-08-28T19:09:34Z</time>
  <course>163.11</course>
  <speed>13.11</speed>
  <fix>3d</fix>
</trkpt>
<trkpt lat="-35.3630796" lon="149.1623344">
  <ele>619.65</ele>
  <time>2026-08-28T19:09:34Z</time>
  <course>162.09</course>
  <speed>13.077297121347362</speed>
  <fix>3d</fix>
</trkpt>
<trkpt lat="-35.3630662" lon="149.1623298">
  <ele>619.56</ele>
  <time>2026-08-28T19:09:34Z</time>
  <course>163.26</course>
  <speed>13.1</speed>
  <fix>3d</fix>
</trkpt>
<trkpt lat="-35.3631022" lon="149.1623427">
  <ele>619.61</ele>
  <time>2026-08-28T19:09:34Z</time>
  <course>162.29</course>
  <speed>13.068817850134725</speed>
  <fix>3d</fix>
</trkpt>
<trkpt lat="-35.3630887" lon="149.1623381">
  <ele>619.52</ele>
  <time>2026-08-28T19:09:34Z</time>
  <course>163.41</course>
  <speed>13.09</speed>
  <fix>3d</fix>
</trkpt>
<trkpt lat="-35.3631249" lon="149.1623509">
  <ele>619.57</ele>
  <time>2026-08-28T19:09:34Z</time>
  <course>162.49</course>
  <speed>13.060401984625127</speed>
  <fix>3d</fix>
</trkpt>
<trkpt lat="-35.3631112" lon="149.1623462">
  <ele>619.47</ele>
  <time>2026-08-28T19:09:34Z</time>
  <course>163.54</course>
  <speed>13.08</speed>
  <fix>3d</fix>
</trkpt>
<trkpt lat="-35.3631475" lon="149.162359">
  <ele>619.53</ele>
  <time>2026-08-28T19:09:34Z</time>
  <course>162.66</course>
  <speed>13.04522134729802</speed>
  <fix>3d</fix>
</trkpt>
<trkpt lat="-35.3631338" lon="149.1623544">
  <ele>619.43</ele>
  <time>2026-08-28T19:09:34Z</time>
  <course>163.65</course>
  <speed>13.07</speed>
  <fix>3d</fix>
</trkpt>
<trkpt lat="-35.3631699" lon="149.162367">
  <ele>619.49</ele>
  <time>2026-08-28T19:09:34Z</time>
  <course>162.85</course>
  <speed>13.03006139663202</speed>
  <fix>3d</fix>
</trkpt>
<trkpt lat="-35.3631563" lon="149.1623625">
  <ele>619.38</ele>
  <time>2026-08-28T19:09:34Z</time>
  <course>163.74</course>
  <speed>13.05</speed>
  <fix>3d</fix>
</trkpt>
<trkpt lat="-35.3631924" lon="149.162375">
  <ele>619.44</ele>
  <time>2026-08-28T19:09:34Z</time>
  <course>162.97</course>
  <speed>13.005310453810782</speed>
  <fix>3d</fix>
</trkpt>
<trkpt lat="-35.3631789" lon="149.1623705">
  <ele>619.33</ele>
  <time>2026-08-28T19:09:34Z</time>
  <course>163.81</course>
  <speed>13.03</speed>
  <fix>3d</fix>
</trkpt>
<trkpt lat="-35.363215" lon="149.1623831">
  <ele>619.4</ele>
  <time>2026-08-28T19:09:34Z</time>
  <course>163.04</course>
  <speed>12.992940390843021</speed>
  <fix>3d</fix>
</trkpt>
<trkpt lat="-35.3632013" lon="149.1623786">
  <ele>619.29</ele>
  <time>2026-08-28T19:09:34Z</time>
  <course>163.86</course>
  <speed>13.02</speed>
  <fix>3d</fix>
</trkpt>
<trkpt lat="-35.3632375" lon="149.162391">
  <ele>619.35</ele>
  <time>2026-08-28T19:09:34Z</time>
  <course>163.08</course>
  <speed>12.970959871960131</speed>
  <fix>3d</fix>
</trkpt>
<trkpt lat="-35.3632238" lon="149.1623865">
  <ele>619.24</ele>
  <time>2026-08-28T19:09:34Z</time>
  <course>163.89</course>
  <speed>13.0</speed>
  <fix>3d</fix>
</trkpt>
<trkpt lat="-35.3632599" lon="149.162399">
  <ele>619.3</ele>
  <time>2026-08-28T19:09:34Z</time>
  <course>163.11</course>
  <speed>12.961346380681292</speed>
  <fix>3d</fix>
</trkpt>
<trkpt lat="-35.3632463" lon="149.1623944">
  <ele>619.19</ele>
  <time>2026-08-28T19:09:34Z</time>
  <course>163.89</course>
  <speed>12.98</speed>
  <fix>3d</fix>
</trkpt>
<trkpt lat="-35.3632823" lon="149.1624069">
  <ele>619.25</ele>
  <time>2026-08-28T19:09:34Z</time>
  <course>163.1</course>
  <speed>12.942121155359349</speed>
  <fix>3d</fix>
</trkpt>
<trkpt lat="-35.3632686" lon="149.1624024">
  <ele>619.15</ele>
  <time>2026-08-28T19:09:34Z</time>
  <course>163.87</course>
  <speed>12.96</speed>
  <fix>3d</fix>
</trkpt>
<trkpt lat="-35.3633047" lon="149.1624149">
  <ele>619.21</ele>
  <time>2026-08-28T19:09:34Z</time>
  <course>163.06</course>
  <speed>12.925664392981894</speed>
  <fix>3d</fix>
</trkpt>
<trkpt lat="-35.363291" lon="149.1624103">
  <ele>619.1</ele>
  <time>2026-08-28T19:09:34Z</time>
  <course>163.84</course>
  <speed>12.95</speed>
  <fix>3d</fix>
</trkpt>
<trkpt lat="-35.363327" lon="149.1624229">
  <ele>619.16</ele>
  <time>2026-08-28T19:09:34Z</time>
  <course>162.98</course>
  <speed>12.918831216483943</speed>
  <fix>3d</fix>
</trkpt>
<trkpt lat="-35.3633133" lon="149.1624182">
  <ele>619.06</ele>
  <time>2026-08-28T19:09:34Z</time>
  <course>163.78</course>
  <speed>12.94</speed>
  <fix>3d</fix>
</trkpt>
<trkpt lat="-35.3633493" lon="149.1624309">
  <ele>619.11</ele>
  <time>2026-08-28T19:09:34Z</time>
  <course>162.87</course>
  <speed>12.914801585777461</speed>
  <fix>3d</fix>
</trkpt>
<trkpt lat="-35.3633356" lon="149.1624261">
  <ele>619.01</ele>
  <time>2026-08-28T19:09:34Z</time>
  <course>163.71</course>
  <speed>12.93</speed>
  <fix>3d</fix>
</trkpt>
<trkpt lat="-35.3633716" lon="149.1624389">
  <ele>619.07</ele>
  <time>2026-08-28T19:09:34Z</time>
  <course>162.78</course>
  <speed>12.89840300192237</speed>
  <fix>3d</fix>
</trkpt>
<trkpt lat="-35.3633579" lon="149.1624342">
  <ele>618.97</ele>
  <time>2026-08-28T19:09:34Z</time>
  <course>163.63</course>
  <speed>12.92</speed>
  <fix>3d</fix>
</trkpt>
<trkpt lat="-35.3633938" lon="149.1624469">
  <ele>619.02</ele>
  <time>2026-08-28T19:09:34Z</time>
  <course>162.68</course>
  <speed>12.90403037814155</speed>
  <fix>3d</fix>
</trkpt>
<trkpt lat="-35.3633802" lon="149.1624422">
  <ele>618.92</ele>
  <time>2026-08-28T19:09:34Z</time>
  <course>163.55</course>
  <speed>12.91</speed>
  <fix>3d</fix>
</trkpt>
<trkpt lat="-35.363416" lon="149.162455">
  <ele>618.97</ele>
  <time>2026-08-28T19:09:34Z</time>
  <course>162.54</course>
  <speed>12.900096898860877</speed>
  <fix>3d</fix>
</trkpt>
<trkpt lat="-35.3634025" lon="149.1624503">
  <ele>618.87</ele>
  <time>2026-08-28T19:09:34Z</time>
  <course>163.46</course>
  <speed>12.92</speed>
  <fix>3d</fix>
</trkpt>
<trkpt lat="-35.3634383" lon="149.1624631">
  <ele>618.93</ele>
  <time>2026-08-28T19:09:34Z</time>
  <course>162.41</course>
  <speed>12.905785524329776</speed>
  <fix>3d</fix>
</trkpt>
<trkpt lat="-35.3634248" lon="149.1624585">
  <ele>618.82</ele>
  <time>2026-08-28T19:09:34Z</time>
  <course>163.38</course>
  <speed>12.92</speed>
  <fix>3d</fix>
</trkpt>
<trkpt lat="-35.3634605" lon="149.1624713">
  <ele>618.88</ele>
  <time>2026-08-28T19:09:34Z</time>
  <course>162.25</course>
  <speed>12.921083545895058</speed>
  <fix>3d</fix>
</trkpt>
<trkpt lat="-35.363447" lon="149.1624666">
  <ele>618.78</ele>
  <time>2026-08-28T19:09:34Z</time>
  <course>163.3</course>
  <speed>12.93</speed>
  <fix>3d</fix>
</trkpt>
<trkpt lat="-35.3634827" lon="149.1624795">
  <ele>618.84</ele>
  <time>2026-08-28T19:09:34Z</time>
  <course>162.12</course>
  <speed>12.926824822824821</speed>
  <fix>3d</fix>
</trkpt>
<trkpt lat="-35.3634693" lon="149.1624749">
  <ele>618.74</ele>
  <time>2026-08-28T19:09:34Z</time>
  <course>163.22</course>
  <speed>12.94</speed>
  <fix>3d</fix>
</trkpt>
<trkpt lat="-35.3635049" lon="149.1624878">
  <ele>618.81</ele>
  <time>2026-08-28T19:09:34Z</time>
  <course>162.06</course>
  <speed>12.93928127834</speed>
  <fix>3d</fix>
</trkpt>
<trkpt lat="-35.3634915" lon="149.1624831">
  <ele>618.69</ele>
  <time>2026-08-28T19:09:34Z</time>
  <course>163.15</course>
  <speed>12.95</speed>
  <fix>3d</fix>
</trkpt>
<trkpt lat="-35.3635272" lon="149.1624961">
  <ele>618.76</ele>
  <time>2026-08-28T19:09:34Z</time>
  <course>161.99</course>
  <speed>12.95174119568485</speed>
  <fix>3d</fix>
</trkpt>
<trkpt lat="-35.3635138" lon="149.1624914">
  <ele>618.65</ele>
  <time>2026-08-28T19:09:34Z</time>
  <course>163.09</course>
  <speed>12.97</speed>
  <fix>3d</fix>
</trkpt>
<trkpt lat="-35.3635495" lon="149.1625044">
  <ele>618.72</ele>
  <time>2026-08-28T19:09:34Z</time>
  <course>161.96</course>
  <speed>12.964204564877862</speed>
  <fix>3d</fix>
</trkpt>
<trkpt lat="-35.3635361" lon="149.1624997">
  <ele>618.61</ele>
  <time>2026-08-28T19:09:34Z</time>
  <course>163.05</course>
  <speed>12.98</speed>
  <fix>3d</fix>
</trkpt>
<trkpt lat="-35.3635718" lon="149.1625128">
  <ele>618.68</ele>
  <time>2026-08-28T19:09:34Z</time>
  <course>161.95</course>
  <speed>12.976671375973117</speed>
  <fix>3d</fix>
</trkpt>
<trkpt lat="-35.3635584" lon="149.162508">
  <ele>618.57</ele>
  <time>2026-08-28T19:09:34Z</time>
  <course>163.03</course>
  <speed>12.99</speed>
  <fix>3d</fix>
</trkpt>
<trkpt lat="-35.3635942" lon="149.1625212">
  <ele>618.63</ele>
  <time>2026-08-28T19:09:34Z</time>
  <course>161.93</course>
  <speed>12.98624272066405</speed>
  <fix>3d</fix>
</trkpt>
<trkpt lat="-35.3635807" lon="149.1625163">
  <ele>618.53</ele>
  <time>2026-08-28T19:09:34Z</time>
  <course>163.03</course>
  <speed>13.01</speed>
  <fix>3d</fix>
</trkpt>
<trkpt lat="-35.3636167" lon="149.1625296">
  <ele>618.59</ele>
  <time>2026-08-28T19:09:34Z</time>
  <course>161.97</course>
  <speed>13.005387345250428</speed>
  <fix>3d</fix>
</trkpt>
<trkpt lat="-35.3636031" lon="149.1625248">
  <ele>618.48</ele>
  <time>2026-08-28T19:09:34Z</time>
  <course>163.04</course>
  <speed>13.02</speed>
  <fix>3d</fix>
</trkpt>
<trkpt lat="-35.3636391" lon="149.1625379">
  <ele>618.55</ele>
  <time>2026-08-28T19:09:34Z</time>
  <course>162.05</course>
  <speed>13.014960622299247</speed>
  <fix>3d</fix>
</trkpt>
<trkpt lat="-35.3636255" lon="149.1625331">
  <ele>618.44</ele>
  <time>2026-08-28T19:09:34Z</time>
  <course>163.06</course>
  <speed>13.03</speed>
  <fix>3d</fix>
</trkpt>
<trkpt lat="-35.3636616" lon="149.1625463">
  <ele>618.5</ele>
  <time>2026-08-28T19:09:34Z</time>
  <course>162.11</course>
  <speed>13.012075161172412</speed>
  <fix>3d</fix>
</trkpt>
<trkpt lat="-35.363648" lon="149.1625415">
  <ele>618.4</ele>
  <time>2026-08-28T19:09:34Z</time>
  <course>163.09</course>
  <speed>13.03</speed>
  <fix>3d</fix>
</trkpt>
<trkpt lat="-35.3636841" lon="149.1625546">
  <ele>618.46</ele>
  <time>2026-08-28T19:09:34Z</time>
  <course>162.26</course>
  <speed>13.00919674691716</speed>
  <fix>3d</fix>
</trkpt>
<trkpt lat="-35.3636704" lon="149.1625498">
  <ele>618.36</ele>
  <time>2026-08-28T19:09:34Z</time>
  <course>163.13</course>
  <speed>13.03</speed>
  <fix>3d</fix>
</trkpt>
<trkpt lat="-35.3637065" lon="149.1625629">
  <ele>618.42</ele>
  <time>2026-08-28T19:09:34Z</time>
  <course>162.36</course>
  <speed>13.003461077728497</speed>
  <fix>3d</fix>
</trkpt>
<trkpt lat="-35.3636927" lon="149.1625581">
  <ele>618.32</ele>
  <time>2026-08-28T19:09:34Z</time>
  <course>163.18</course>
  <speed>13.03</speed>
  <fix>3d</fix>
</trkpt>
<trkpt lat="-35.3637289" lon="149.1625712">
  <ele>618.39</ele>
  <time>2026-08-28T19:09:34Z</time>
  <course>162.47</course>
  <speed>12.991019975352206</speed>
  <fix>3d</fix>
</trkpt>
<trkpt lat="-35.3637152" lon="149.1625664">
  <ele>618.29</ele>
  <time>2026-08-28T19:09:34Z</time>
  <course>163.24</course>
  <speed>13.02</speed>
  <fix>3d</fix>
</trkpt>
<trkpt lat="-35.3637512" lon="149.1625794">
  <ele>618.35</ele>
  <time>2026-08-28T19:09:34Z</time>
  <course>162.57</course>
  <speed>12.98532248348111</speed>
  <fix>3d</fix>
</trkpt>
<trkpt lat="-35.3637375" lon="149.1625747">
  <ele>618.25</ele>
  <time>2026-08-28T19:09:34Z</time>
  <course>163.3</course>
  <speed>13.01</speed>
  <fix>3d</fix>
</trkpt>
<trkpt lat="-35.3637736" lon="149.1625876">
  <ele>618.31</ele>
  <time>2026-08-28T19:09:34Z</time>
  <course>162.63</course>
  <speed>12.982484353928564</speed>
  <fix>3d</fix>
</trkpt>
<trkpt lat="-35.36376" lon="149.1625829">
  <ele>618.2</ele>
  <time>2026-08-28T19:09:34Z</time>
  <course>163.36</course>
  <speed>13.01</speed>
  <fix>3d</fix>
</trkpt>
<trkpt lat="-35.363796" lon="149.1625958">
  <ele>618.26</ele>
  <time>2026-08-28T19:09:34Z</time>
  <course>162.66</course>
  <speed>12.979653308158891</speed>
  <fix>3d</fix>
</trkpt>
<trkpt lat="-35.3637824" lon="149.162591">
  <ele>618.16</ele>
  <time>2026-08-28T19:09:34Z</time>
  <course>163.42</course>
  <speed>13.01</speed>
  <fix>3d</fix>
</trkpt>
<trkpt lat="-35.3638185" lon="149.162604">
  <ele>618.21</ele>
  <time>2026-08-28T19:09:34Z</time>
  <course>162.7</course>
  <speed>12.989245551609224</speed>
  <fix>3d</fix>
</trkpt>
<trkpt lat="-35.3638047" lon="149.1625993">
  <ele>618.11</ele>
  <time>2026-08-28T19:09:34Z</time>
  <course>163.46</course>
  <speed>13.01</speed>
  <fix>3d</fix>
</trkpt>
<trkpt lat="-35.3638409" lon="149.1626121">
  <ele>618.17</ele>
  <time>2026-08-28T19:09:34Z</time>
  <course>162.74</course>
  <speed>12.986423680136113</speed>
  <fix>3d</fix>
</trkpt>
<trkpt lat="-35.3638272" lon="149.1626074">
  <ele>618.07</ele>
  <time>2026-08-28T19:09:34Z</time>
  <course>163.49</course>
  <speed>13.01</speed>
  <fix>3d</fix>
</trkpt>
<trkpt lat="-35.3638632" lon="149.1626202">
  <ele>618.13</ele>
  <time>2026-08-28T19:09:34Z</time>
  <course>162.78</course>
  <speed>12.986423680136113</speed>
  <fix>3d</fix>
</trkpt>
<trkpt lat="-35.3638496" lon="149.1626155">
  <ele>618.03</ele>
  <time>2026-08-28T19:09:34Z</time>
  <course>163.51</course>
  <speed>13.01</speed>
  <fix>3d</fix>
</trkpt>
<trkpt lat="-35.3638856" lon="149.1626283">
  <ele>618.09</ele>
  <time>2026-08-28T19:09:34Z</time>
  <course>162.83</course>
  <speed>12.974012486505476</speed>
  <fix>3d</fix>
</trkpt>
<trkpt lat="-35.363872" lon="149.1626237">
  <ele>617.98</ele>
  <time>2026-08-28T19:09:34Z</time>
  <course>163.52</course>
  <speed>13.0</speed>
  <fix>3d</fix>
</trkpt>
<trkpt lat="-35.363908" lon="149.1626364">
  <ele>618.04</ele>
  <time>2026-08-28T19:09:34Z</time>
  <course>162.87</course>
  <speed>12.974012486505476</speed>
  <fix>3d</fix>
</trkpt>
<trkpt lat="-35.3638945" lon="149.1626318">
  <ele>617.94</ele>
  <time>2026-08-28T19:09:34Z</time>
  <course>163.53</course>
  <speed>13.0</speed>
  <fix>3d</fix>
</trkpt>
<trkpt lat="-35.3639303" lon="149.1626445">
  <ele>618.0</ele>
  <time>2026-08-28T19:09:34Z</time>
  <course>162.85</course>
  <speed>12.96441668568239</speed>
  <fix>3d</fix>
</trkpt>
<trkpt lat="-35.3639168" lon="149.1626399">
  <ele>617.9</ele>
  <time>2026-08-28T19:09:34Z</time>
  <course>163.54</course>
  <speed>13.0</speed>
  <fix>3d</fix>
</trkpt>
<trkpt lat="-35.3639526" lon="149.1626526">
  <ele>617.95</ele>
  <time>2026-08-28T19:09:34Z</time>
  <course>162.81</course>
  <speed>12.96441668568239</speed>
  <fix>3d</fix>
</trkpt>
<trkpt lat="-35.3639393" lon="149.162648">
  <ele>617.85</ele>
  <time>2026-08-28T19:09:34Z</time>
  <course>163.54</course>
  <speed>13.0</speed>
  <fix>3d</fix>
</trkpt>
<trkpt lat="-35.363975" lon="149.1626607">
  <ele>617.91</ele>
  <time>2026-08-28T19:09:34Z</time>
  <course>162.79</course>
  <speed>12.976829350808309</speed>
  <fix>3d</fix>
</trkpt>
<trkpt lat="-35.3639617" lon="149.1626562">
  <ele>617.81</ele>
  <time>2026-08-28T19:09:34Z</time>
  <course>163.53</course>
  <speed>13.0</speed>
  <fix>3d</fix>
</trkpt>
<trkpt lat="-35.3639973" lon="149.1626688">
  <ele>617.86</ele>
  <time>2026-08-28T19:09:34Z</time>
  <course>162.76</course>
  <speed>12.976829350808309</speed>
  <fix>3d</fix>
</trkpt>
<trkpt lat="-35.363984" lon="149.1626643">
  <ele>617.76</ele>
  <time>2026-08-28T19:09:34Z</time>
  <course>163.51</course>
  <speed>13.01</speed>
  <fix>3d</fix>
</trkpt>
<trkpt lat="-35.3640197" lon="149.162677">
  <ele>617.82</ele>
  <time>2026-08-28T19:09:34Z</time>
  <course>162.72</course>
  <speed>12.979653308158891</speed>
  <fix>3d</fix>
</trkpt>
<trkpt lat="-35.3640065" lon="149.1626724">
  <ele>617.72</ele>
  <time>2026-08-28T19:09:34Z</time>
  <course>163.48</course>
  <speed>13.01</speed>
  <fix>3d</fix>
</trkpt>
<trkpt lat="-35.3640421" lon="149.1626851">
  <ele>617.77</ele>
  <time>2026-08-28T19:09:34Z</time>
  <course>162.69</course>
  <speed>12.982484353928564</speed>
  <fix>3d</fix>
</trkpt>
<trkpt lat="-35.3640288" lon="149.1626805">
  <ele>617.68</ele>
  <time>2026-08-28T19:09:34Z</time>
  <course>163.46</course>
  <speed>13.02</speed>
  <fix>3d</fix>
</trkpt>
<trkpt lat="-35.3640646" lon="149.1626933">
  <ele>617.73</ele>
  <time>2026-08-28T19:09:34Z</time>
  <course>162.67</course>
  <speed>12.994910542208437</speed>
  <fix>3d</fix>
</trkpt>
<trkpt lat="-35.3640513" lon="149.1626888">
  <ele>617.63</ele>
  <time>2026-08-28T19:09:34Z</time>
  <course>163.43</course>
  <speed>13.02</speed>
  <fix>3d</fix>
</trkpt>
<trkpt lat="-35.364087" lon="149.1627015">
  <ele>617.69</ele>
  <time>2026-08-28T19:09:34Z</time>
  <course>162.66</course>
  <speed>12.994910542208437</speed>
  <fix>3d</fix>
</trkpt>
<trkpt lat="-35.3640738" lon="149.1626969">
  <ele>617.58</ele>
  <time>2026-08-28T19:09:34Z</time>
  <course>163.4</course>
  <speed>13.02</speed>
  <fix>3d</fix>
</trkpt>
<trkpt lat="-35.3641094" lon="149.1627098">
  <ele>617.65</ele>
  <time>2026-08-28T19:09:34Z</time>
  <course>162.71</course>
  <speed>12.988167692172748</speed>
  <fix>3d</fix>
</trkpt>
<trkpt lat="-35.3640963" lon="149.1627052">
  <ele>617.55</ele>
  <time>2026-08-28T19:09:34Z</time>
  <course>163.37</course>
  <speed>13.02</speed>
  <fix>3d</fix>
</trkpt>
<trkpt lat="-35.364132" lon="149.162718">
  <ele>617.62</ele>
  <time>2026-08-28T19:09:34Z</time>
  <course>162.74</course>
  <speed>12.988167692172748</speed>
  <fix>3d</fix>
</trkpt>
<trkpt lat="-35.3641187" lon="149.1627133">
  <ele>617.51</ele>
  <time>2026-08-28T19:09:34Z</time>
  <course>163.35</course>
  <speed>13.02</speed>
  <fix>3d</fix>
</trkpt>
<trkpt lat="-35.3641544" lon="149.1627262">
  <ele>617.58</ele>
  <time>2026-08-28T19:09:34Z</time>
  <course>162.79</course>
  <speed>12.978582357098944</speed>
  <fix>3d</fix>
</trkpt>
<trkpt lat="-35.3641411" lon="149.1627216">
  <ele>617.47</ele>
  <time>2026-08-28T19:09:34Z</time>
  <course>163.34</course>
  <speed>13.01</speed>
  <fix>3d</fix>
</trkpt>
<trkpt lat="-35.3641767" lon="149.1627344">
  <ele>617.54</ele>
  <time>2026-08-28T19:09:34Z</time>
  <course>162.84</course>
  <speed>12.966148232995025</speed>
  <fix>3d</fix>
</trkpt>
<trkpt lat="-35.3641635" lon="149.1627298">
  <ele>617.43</ele>
  <time>2026-08-28T19:09:34Z</time>
  <course>163.33</course>
  <speed>13.0</speed>
  <fix>3d</fix>
</trkpt>
<trkpt lat="-35.3641991" lon="149.1627426">
  <ele>617.49</ele>
  <time>2026-08-28T19:09:34Z</time>
  <course>162.83</course>
  <speed>12.966148232995025</speed>
  <fix>3d</fix>
</trkpt>
<trkpt lat="-35.3641858" lon="149.1627381">
  <ele>617.39</ele>
  <time>2026-08-28T19:09:34Z</time>
  <course>163.33</course>
  <speed>12.99</speed>
  <fix>3d</fix>
</trkpt>
<trkpt lat="-35.3642215" lon="149.1627508">
  <ele>617.45</ele>
  <time>2026-08-28T19:09:34Z</time>
  <course>162.8</course>
  <speed>12.956562043999172</speed>
  <fix>3d</fix>
</trkpt>
<trkpt lat="-35.3642081" lon="149.1627462">
  <ele>617.34</ele>
  <time>2026-08-28T19:09:34Z</time>
  <course>163.34</course>
  <speed>12.98</speed>
  <fix>3d</fix>
</trkpt>
<trkpt lat="-35.3642438" lon="149.162759">
  <ele>617.4</ele>
  <time>2026-08-28T19:09:34Z</time>
  <course>162.8</course>
  <speed>12.956562043999172</speed>
  <fix>3d</fix>
</trkpt>
<trkpt lat="-35.3642305" lon="149.1627545">
  <ele>617.3</ele>
  <time>2026-08-28T19:09:34Z</time>
  <course>163.33</course>
  <speed>12.98</speed>
  <fix>3d</fix>
</trkpt>
<trkpt lat="-35.3642661" lon="149.1627673">
  <ele>617.36</ele>
  <time>2026-08-28T19:09:34Z</time>
  <course>162.76</course>
  <speed>12.956562043999172</speed>
  <fix>3d</fix>
</trkpt>
<trkpt lat="-35.3642528" lon="149.1627626">
  <ele>617.25</ele>
  <time>2026-08-28T19:09:34Z</time>
  <course>163.33</course>
  <speed>12.98</speed>
  <fix>3d</fix>
</trkpt>
<trkpt lat="-35.3642886" lon="149.1627755">
  <ele>617.32</ele>
  <time>2026-08-28T19:09:34Z</time>
  <course>162.74</course>
  <speed>12.956562043999172</speed>
  <fix>3d</fix>
</trkpt>
<trkpt lat="-35.3642752" lon="149.1627709">
  <ele>617.2</ele>
  <time>2026-08-28T19:09:34Z</time>
  <course>163.33</course>
  <speed>12.98</speed>
  <fix>3d</fix>
</trkpt>
<trkpt lat="-35.3643109" lon="149.1627837">
  <ele>617.28</ele>
  <time>2026-08-28T19:09:34Z</time>
  <course>162.74</course>
  <speed>12.959413566979023</speed>
  <fix>3d</fix>
</trkpt>
<trkpt lat="-35.3642975" lon="149.1627791">
  <ele>617.15</ele>
  <time>2026-08-28T19:09:34Z</time>
  <course>163.32</course>
  <speed>12.98</speed>
  <fix>3d</fix>
</trkpt>
<trkpt lat="-35.3643332" lon="149.1627919">
  <ele>617.23</ele>
  <time>2026-08-28T19:09:34Z</time>
  <course>162.78</course>
  <speed>12.959413566979023</speed>
  <fix>3d</fix>
</trkpt>
<trkpt lat="-35.3643199" lon="149.1627873">
  <ele>617.11</ele>
  <time>2026-08-28T19:09:34Z</time>
  <course>163.32</course>
  <speed>12.98</speed>
  <fix>3d</fix>
</trkpt>
<trkpt lat="-35.3643556" lon="149.1628001">
  <ele>617.19</ele>
  <time>2026-08-28T19:09:34Z</time>
  <course>162.76</course>
  <speed>12.959413566979023</speed>
  <fix>3d</fix>
</trkpt>
<trkpt lat="-35.3643423" lon="149.1627955">
  <ele>617.06</ele>
  <time>2026-08-28T19:09:34Z</time>
  <course>163.32</course>
  <speed>12.98</speed>
  <fix>3d</fix>
</trkpt>
<trkpt lat="-35.364378" lon="149.1628084">
  <ele>617.15</ele>
  <time>2026-08-28T19:09:34Z</time>
  <course>162.76</course>
  <speed>12.956562043999172</speed>
  <fix>3d</fix>
</trkpt>
<trkpt lat="-35.3643646" lon="149.1628036">
  <ele>617.02</ele>
  <time>2026-08-28T19:09:34Z</time>
  <course>163.32</course>
  <speed>12.97</speed>
  <fix>3d</fix>
</trkpt>
<trkpt lat="-35.3644003" lon="149.1628166">
  <ele>617.11</ele>
  <time>2026-08-28T19:09:34Z</time>
  <course>162.8</course>
  <speed>12.956562043999172</speed>
  <fix>3d</fix>
</trkpt>
<trkpt lat="-35.3643869" lon="149.1628119">
  <ele>616.97</ele>
  <time>2026-08-28T19:09:34Z</time>
  <course>163.33</course>
  <speed>12.97</speed>
  <fix>3d</fix>
</trkpt>
<trkpt lat="-35.3644226" lon="149.1628247">
  <ele>617.06</ele>
  <time>2026-08-28T19:09:34Z</time>
  <course>162.83</course>
  <speed>12.946976481016716</speed>
  <fix>3d</fix>
</trkpt>
<trkpt lat="-35.3644093" lon="149.16282">
  <ele>616.92</ele>
  <time>2026-08-28T19:09:34Z</time>
  <course>163.33</course>
  <speed>12.97</speed>
  <fix>3d</fix>
</trkpt>
<trkpt lat="-35.3644449" lon="149.1628329">
  <ele>617.02</ele>
  <time>2026-08-28T19:09:34Z</time>
  <course>162.84</course>
  <speed>12.946976481016716</speed>
  <fix>3d</fix>
</trkpt>
<trkpt lat="-35.3644316" lon="149.1628283">
  <ele>616.88</ele>
  <time>2026-08-28T19:09:34Z</time>
  <course>163.34</course>
  <speed>12.97</speed>
  <fix>3d</fix>
</trkpt>
<trkpt lat="-35.3644671" lon="149.1628411">
  <ele>616.97</ele>
  <time>2026-08-28T19:09:35Z</time>
  <course>162.8</course>
  <speed>12.946976481016716</speed>
  <fix>3d</fix>
</trkpt>
<trkpt lat="-35.3644539" lon="149.1628364">
  <ele>616.83</ele>
  <time>2026-08-28T19:09:35Z</time>
  <course>163.35</course>
  <speed>12.97</speed>
  <fix>3d</fix>
</trkpt>
<trkpt lat="-35.3644894" lon="149.1628492">
  <ele>616.92</ele>
  <time>2026-08-28T19:09:35Z</time>
  <course>162.74</course>
  <speed>12.956562043999172</speed>
  <fix>3d</fix>
</trkpt>
<trkpt lat="-35.3644762" lon="149.1628447">
  <ele>616.78</ele>
  <time>2026-08-28T19:09:35Z</time>
  <course>163.36</course>
  <speed>12.98</speed>
  <fix>3d</fix>
</trkpt>
<trkpt lat="-35.3645117" lon="149.1628574">
  <ele>616.87</ele>
  <time>2026-08-28T19:09:35Z</time>
  <course>162.66</course>
  <speed>12.975735046616819</speed>
  <fix>3d</fix>
</trkpt>
<trkpt lat="-35.3644986" lon="149.1628529">
  <ele>616.73</ele>
  <time>2026-08-28T19:09:35Z</time>
  <course>163.36</course>
  <speed>12.99</speed>
  <fix>3d</fix>
</trkpt>
<trkpt lat="-35.3645341" lon="149.1628656">
  <ele>616.83</ele>
  <time>2026-08-28T19:09:35Z</time>
  <course>162.62</course>
  <speed>12.988167692172748</speed>
  <fix>3d</fix>
</trkpt>
<trkpt lat="-35.3645209" lon="149.162861">
  <ele>616.68</ele>
  <time>2026-08-28T19:09:35Z</time>
  <course>163.35</course>
  <speed>13.0</speed>
  <fix>3d</fix>
</trkpt>
<trkpt lat="-35.3645565" lon="149.1628738">
  <ele>616.78</ele>
  <time>2026-08-28T19:09:35Z</time>
  <course>162.62</course>
  <speed>12.997753652073884</speed>
  <fix>3d</fix>
</trkpt>
<trkpt lat="-35.3645434" lon="149.1628693">
  <ele>616.64</ele>
  <time>2026-08-28T19:09:35Z</time>
  <course>163.34</course>
  <speed>13.02</speed>
  <fix>3d</fix>
</trkpt>
<trkpt lat="-35.3645789" lon="149.1628821">
  <ele>616.74</ele>
  <time>2026-08-28T19:09:35Z</time>
  <course>162.64</course>
  <speed>13.00060383213026</speed>
  <fix>3d</fix>
</trkpt>
<trkpt lat="-35.3645659" lon="149.1628775">
  <ele>616.59</ele>
  <time>2026-08-28T19:09:35Z</time>
  <course>163.33</course>
  <speed>13.02</speed>
  <fix>3d</fix>
</trkpt>
<trkpt lat="-35.3646014" lon="149.1628903">
  <ele>616.69</ele>
  <time>2026-08-28T19:09:35Z</time>
  <course>162.71</course>
  <speed>13.00060383213026</speed>
  <fix>3d</fix>
</trkpt>
<trkpt lat="-35.3645882" lon="149.1628857">
  <ele>616.55</ele>
  <time>2026-08-28T19:09:35Z</time>
  <course>163.33</course>
  <speed>13.03</speed>
  <fix>3d</fix>
</trkpt>
<trkpt lat="-35.3646238" lon="149.1628986">
  <ele>616.65</ele>
  <time>2026-08-28T19:09:35Z</time>
  <course>162.74</course>
  <speed>12.997753652073884</speed>
  <fix>3d</fix>
</trkpt>
<trkpt lat="-35.3646107" lon="149.162894">
  <ele>616.51</ele>
  <time>2026-08-28T19:09:35Z</time>
  <course>163.33</course>
  <speed>13.03</speed>
  <fix>3d</fix>
</trkpt>
<trkpt lat="-35.3646462" lon="149.1629068">
  <ele>616.62</ele>
  <time>2026-08-28T19:09:35Z</time>
  <course>162.78</course>
  <speed>12.997753652073884</speed>
  <fix>3d</fix>
</trkpt>
<trkpt lat="-35.3646332" lon="149.1629022">
  <ele>616.47</ele>
  <time>2026-08-28T19:09:35Z</time>
  <course>163.34</course>
  <speed>13.03</speed>
  <fix>3d</fix>
</trkpt>
<trkpt lat="-35.3646686" lon="149.162915">
  <ele>616.58</ele>
  <time>2026-08-28T19:09:35Z</time>
  <course>162.84</course>
  <speed>12.997753652073884</speed>
  <fix>3d</fix>
</trkpt>
<trkpt lat="-35.3646555" lon="149.1629104">
  <ele>616.43</ele>
  <time>2026-08-28T19:09:35Z</time>
  <course>163.36</course>
  <speed>13.02</speed>
  <fix>3d</fix>
</trkpt>
<trkpt lat="-35.364691" lon="149.1629232">
  <ele>616.54</ele>
  <time>2026-08-28T19:09:35Z</time>
  <course>162.88</course>
  <speed>12.994910542208437</speed>
  <fix>3d</fix>
</trkpt>
<trkpt lat="-35.364678" lon="149.1629186">
  <ele>616.39</ele>
  <time>2026-08-28T19:09:35Z</time>
  <course>163.37</course>
  <speed>13.02</speed>
  <fix>3d</fix>
</trkpt>
<trkpt lat="-35.3647134" lon="149.1629314">
  <ele>616.49</ele>
  <time>2026-08-28T19:09:35Z</time>
  <course>162.91</course>
  <speed>12.994910542208437</speed>
  <fix>3d</fix>
</trkpt>
<trkpt lat="-35.3647004" lon="149.1629269">
  <ele>616.35</ele>
  <time>2026-08-28T19:09:35Z</time>
  <course>163.38</course>
  <speed>13.02</speed>
  <fix>3d</fix>
</trkpt>
<trkpt lat="-35.3647359" lon="149.1629396">
  <ele>616.45</ele>
  <time>2026-08-28T19:09:35Z</time>
  <course>162.9</course>
  <speed>12.994910542208437</speed>
  <fix>3d</fix>
</trkpt>
<trkpt lat="-35.3647227" lon="149.162935">
  <ele>616.31</ele>
  <time>2026-08-28T19:09:35Z</time>
  <course>163.4</course>
  <speed>13.02</speed>
  <fix>3d</fix>
</trkpt>
<trkpt lat="-35.3647584" lon="149.1629478">
  <ele>616.41</ele>
  <time>2026-08-28T19:09:35Z</time>
  <course>162.91</course>
  <speed>12.994910542208437</speed>
  <fix>3d</fix>
</trkpt>
<trkpt lat="-35.3647452" lon="149.1629432">
  <ele>616.26</ele>
  <time>2026-08-28T19:09:35Z</time>
  <course>163.41</course>
  <speed>13.01</speed>
  <fix>3d</fix>
</trkpt>
<trkpt lat="-35.3647809" lon="149.162956">
  <ele>616.36</ele>
  <time>2026-08-28T19:09:35Z</time>
  <course>162.94</course>
  <speed>12.994910542208437</speed>
  <fix>3d</fix>
</trkpt>
<trkpt lat="-35.3647677" lon="149.1629514">
  <ele>616.22</ele>
  <time>2026-08-28T19:09:35Z</time>
  <course>163.41</course>
  <speed>13.01</speed>
  <fix>3d</fix>
</trkpt>
<trkpt lat="-35.3648033" lon="149.1629642">
  <ele>616.32</ele>
  <time>2026-08-28T19:09:35Z</time>
  <course>162.98</course>
  <speed>12.994910542208437</speed>
  <fix>3d</fix>
</trkpt>
<trkpt lat="-35.3647901" lon="149.1629596">
  <ele>616.17</ele>
  <time>2026-08-28T19:09:35Z</time>
  <course>163.41</course>
  <speed>13.01</speed>
  <fix>3d</fix>
</trkpt>
<trkpt lat="-35.3648258" lon="149.1629724">
  <ele>616.28</ele>
  <time>2026-08-28T19:09:35Z</time>
  <course>163.04</course>
  <speed>12.982484353928564</speed>
  <fix>3d</fix>
</trkpt>
<trkpt lat="-35.3648125" lon="149.1629678">
  <ele>616.13</ele>
  <time>2026-08-28T19:09:35Z</time>
  <course>163.41</course>
  <speed>13.0</speed>
  <fix>3d</fix>
</trkpt>
<trkpt lat="-35.3648483" lon="149.1629806">
  <ele>616.23</ele>
  <time>2026-08-28T19:09:35Z</time>
  <course>163.12</course>
  <speed>12.96330590551654</speed>
  <fix>3d</fix>
</trkpt>
<trkpt lat="-35.3648349" lon="149.162976">
  <ele>616.08</ele>
  <time>2026-08-28T19:09:35Z</time>
  <course>163.42</course>
  <speed>12.98</speed>
  <fix>3d</fix>
</trkpt>
<trkpt lat="-35.3648707" lon="149.1629888">
  <ele>616.19</ele>
  <time>2026-08-28T19:09:35Z</time>
  <course>163.13</course>
  <speed>12.950880278961735</speed>
  <fix>3d</fix>
</trkpt>
<trkpt lat="-35.3648572" lon="149.1629841">
  <ele>616.05</ele>
  <time>2026-08-28T19:09:35Z</time>
  <course>163.43</course>
  <speed>12.97</speed>
  <fix>3d</fix>
</trkpt>
<trkpt lat="-35.3648931" lon="149.162997">
  <ele>616.15</ele>
  <time>2026-08-28T19:09:35Z</time>
  <course>163.16</course>
  <speed>12.941290507518948</speed>
  <fix>3d</fix>
</trkpt>
<trkpt lat="-35.3648795" lon="149.1629922">
  <ele>616.01</ele>
  <time>2026-08-28T19:09:35Z</time>
  <course>163.43</course>
  <speed>12.95</speed>
  <fix>3d</fix>
</trkpt>
<trkpt lat="-35.3649154" lon="149.1630051">
  <ele>616.1</ele>
  <time>2026-08-28T19:09:35Z</time>
  <course>163.14</course>
  <speed>12.928866926378351</speed>
  <fix>3d</fix>
</trkpt>
<trkpt lat="-35.3649018" lon="149.1630004">
  <ele>615.97</ele>
  <time>2026-08-28T19:09:35Z</time>
  <course>163.44</course>
  <speed>12.94</speed>
  <fix>3d</fix>
</trkpt>
<trkpt lat="-35.3649377" lon="149.1630132">
  <ele>616.06</ele>
  <time>2026-08-28T19:09:35Z</time>
  <course>163.1</course>
  <speed>12.928866926378351</speed>
  <fix>3d</fix>
</trkpt>
<trkpt lat="-35.3649241" lon="149.1630085">
  <ele>615.92</ele>
  <time>2026-08-28T19:09:35Z</time>
  <course>163.44</course>
  <speed>12.93</speed>
  <fix>3d</fix>
</trkpt>
<trkpt lat="-35.36496" lon="149.1630214">
  <ele>616.01</ele>
  <time>2026-08-28T19:09:35Z</time>
  <course>163.03</course>
  <speed>12.922112830338545</speed>
  <fix>3d</fix>
</trkpt>
<trkpt lat="-35.3649463" lon="149.1630166">
  <ele>615.88</ele>
  <time>2026-08-28T19:09:35Z</time>
  <course>163.43</course>
  <speed>12.93</speed>
  <fix>3d</fix>
</trkpt>
<trkpt lat="-35.3649823" lon="149.1630295">
  <ele>615.96</ele>
  <time>2026-08-28T19:09:35Z</time>
  <course>162.99</course>
  <speed>12.922112830338545</speed>
  <fix>3d</fix>
</trkpt>
<trkpt lat="-35.3649686" lon="149.1630247">
  <ele>615.83</ele>
  <time>2026-08-28T19:09:35Z</time>
  <course>163.42</course>
  <speed>12.93</speed>
  <fix>3d</fix>
</trkpt>
<trkpt lat="-35.3650046" lon="149.1630377">
  <ele>615.91</ele>
  <time>2026-08-28T19:09:35Z</time>
  <course>162.92</course>
  <speed>12.922112830338545</speed>
  <fix>3d</fix>
</trkpt>
<trkpt lat="-35.3649909" lon="149.1630329">
  <ele>615.79</ele>
  <time>2026-08-28T19:09:35Z</time>
  <course>163.4</course>
  <speed>12.93</speed>
  <fix>3d</fix>
</trkpt>
<trkpt lat="-35.3650267" lon="149.1630458">
  <ele>615.87</ele>
  <time>2026-08-28T19:09:35Z</time>
  <course>162.89</course>
  <speed>12.924956479617254</speed>
  <fix>3d</fix>
</trkpt>
<trkpt lat="-35.3650132" lon="149.163041">
  <ele>615.74</ele>
  <time>2026-08-28T19:09:35Z</time>
  <course>163.37</course>
  <speed>12.93</speed>
  <fix>3d</fix>
</trkpt>
<trkpt lat="-35.3650489" lon="149.1630539">
  <ele>615.83</ele>
  <time>2026-08-28T19:09:35Z</time>
  <course>162.83</course>
  <speed>12.927807238661938</speed>
  <fix>3d</fix>
</trkpt>
<trkpt lat="-35.3650355" lon="149.1630492">
  <ele>615.69</ele>
  <time>2026-08-28T19:09:35Z</time>
  <course>163.35</course>
  <speed>12.94</speed>
  <fix>3d</fix>
</trkpt>
<trkpt lat="-35.3650712" lon="149.1630621">
  <ele>615.79</ele>
  <time>2026-08-28T19:09:35Z</time>
  <course>162.78</course>
  <speed>12.937391545439134</speed>
  <fix>3d</fix>
</trkpt>
<trkpt lat="-35.3650578" lon="149.1630574">
  <ele>615.66</ele>
  <time>2026-08-28T19:09:35Z</time>
  <course>163.33</course>
  <speed>12.95</speed>
  <fix>3d</fix>
</trkpt>
<trkpt lat="-35.3650935" lon="149.1630703">
  <ele>615.74</ele>
  <time>2026-08-28T19:09:35Z</time>
  <course>162.7</course>
  <speed>12.949830114715791</speed>
  <fix>3d</fix>
</trkpt>
<trkpt lat="-35.3650801" lon="149.1630655">
  <ele>615.62</ele>
  <time>2026-08-28T19:09:35Z</time>
  <course>163.31</course>
  <speed>12.96</speed>
  <fix>3d</fix>
</trkpt>
<trkpt lat="-35.3651157" lon="149.1630785">
  <ele>615.69</ele>
  <time>2026-08-28T19:09:35Z</time>
  <course>162.63</course>
  <speed>12.962272177361498</speed>
  <fix>3d</fix>
</trkpt>
<trkpt lat="-35.3651024" lon="149.1630738">
  <ele>615.57</ele>
  <time>2026-08-28T19:09:35Z</time>
  <course>163.28</course>
  <speed>12.97</speed>
  <fix>3d</fix>
</trkpt>
<trkpt lat="-35.365138" lon="149.1630867">
  <ele>615.65</ele>
  <time>2026-08-28T19:09:35Z</time>
  <course>162.59</course>
  <speed>12.97471772332639</speed>
  <fix>3d</fix>
</trkpt>
<trkpt lat="-35.3651247" lon="149.163082">
  <ele>615.53</ele>
  <time>2026-08-28T19:09:35Z</time>
  <course>163.26</course>
  <speed>12.99</speed>
  <fix>3d</fix>
</trkpt>
<trkpt lat="-35.3651603" lon="149.1630949">
  <ele>615.61</ele>
  <time>2026-08-28T19:09:35Z</time>
  <course>162.55</course>
  <speed>12.984298209760896</speed>
  <fix>3d</fix>
</trkpt>
<trkpt lat="-35.3651471" lon="149.1630903">
  <ele>615.49</ele>
  <time>2026-08-28T19:09:35Z</time>
  <course>163.25</course>
  <speed>13.01</speed>
  <fix>3d</fix>
</trkpt>
<trkpt lat="-35.3651826" lon="149.1631031">
  <ele>615.57</ele>
  <time>2026-08-28T19:09:35Z</time>
  <course>162.54</course>
  <speed>13.006325384212097</speed>
  <fix>3d</fix>
</trkpt>
<trkpt lat="-35.3651694" lon="149.1630985">
  <ele>615.44</ele>
  <time>2026-08-28T19:09:35Z</time>
  <course>163.24</course>
  <speed>13.02</speed>
  <fix>3d</fix>
</trkpt>
<trkpt lat="-35.365205" lon="149.1631114">
  <ele>615.52</ele>
  <time>2026-08-28T19:09:35Z</time>
  <course>162.51</course>
  <speed>13.015905654237049</speed>
  <fix>3d</fix>
</trkpt>
<trkpt lat="-35.3651919" lon="149.1631068">
  <ele>615.41</ele>
  <time>2026-08-28T19:09:35Z</time>
  <course>163.23</course>
  <speed>13.04</speed>
  <fix>3d</fix>
</trkpt>
<trkpt lat="-35.3652275" lon="149.1631197">
  <ele>615.49</ele>
  <time>2026-08-28T19:09:35Z</time>
  <course>162.54</course>
  <speed>13.025486555211671</speed>
  <fix>3d</fix>
</trkpt>
<trkpt lat="-35.3652143" lon="149.1631151">
  <ele>615.37</ele>
  <time>2026-08-28T19:09:35Z</time>
  <course>163.24</course>
  <speed>13.05</speed>
  <fix>3d</fix>
</trkpt>
<trkpt lat="-35.3652499" lon="149.163128">
  <ele>615.45</ele>
  <time>2026-08-28T19:09:35Z</time>
  <course>162.58</course>
  <speed>13.0350680857447</speed>
  <fix>3d</fix>
</trkpt>
<trkpt lat="-35.3652369" lon="149.1631234">
  <ele>615.32</ele>
  <time>2026-08-28T19:09:35Z</time>
  <course>163.25</course>
  <speed>13.06</speed>
  <fix>3d</fix>
</trkpt>
<trkpt lat="-35.3652724" lon="149.1631363">
  <ele>615.41</ele>
  <time>2026-08-28T19:09:35Z</time>
  <course>162.67</course>
  <speed>13.04465024444887</speed>
  <fix>3d</fix>
</trkpt>
<trkpt lat="-35.3652594" lon="149.1631317">
  <ele>615.29</ele>
  <time>2026-08-28T19:09:35Z</time>
  <course>163.26</course>
  <speed>13.07</speed>
  <fix>3d</fix>
</trkpt>
<trkpt lat="-35.365295" lon="149.1631446">
  <ele>615.37</ele>
  <time>2026-08-28T19:09:35Z</time>
  <course>162.78</course>
  <speed>13.041794355072463</speed>
  <fix>3d</fix>
</trkpt>
<trkpt lat="-35.3652818" lon="149.16314">
  <ele>615.26</ele>
  <time>2026-08-28T19:09:35Z</time>
  <course>163.29</course>
  <speed>13.07</speed>
  <fix>3d</fix>
</trkpt>
<trkpt lat="-35.3653176" lon="149.1631529">
  <ele>615.33</ele>
  <time>2026-08-28T19:09:35Z</time>
  <course>162.89</course>
  <speed>13.029359155384427</speed>
  <fix>3d</fix>
</trkpt>
<trkpt lat="-35.3653043" lon="149.1631483">
  <ele>615.22</ele>
  <time>2026-08-28T19:09:35Z</time>
  <course>163.32</course>
  <speed>13.06</speed>
  <fix>3d</fix>
</trkpt>
<trkpt lat="-35.3653401" lon="149.1631611">
  <ele>615.3</ele>
  <time>2026-08-28T19:09:35Z</time>
  <course>162.99</course>
  <speed>13.026515266946873</speed>
  <fix>3d</fix>
</trkpt>
<trkpt lat="-35.3653268" lon="149.1631565">
  <ele>615.18</ele>
  <time>2026-08-28T19:09:35Z</time>
  <course>163.35</course>
  <speed>13.06</speed>
  <fix>3d</fix>
</trkpt>
<trkpt lat="-35.3653626" lon="149.1631694">
  <ele>615.27</ele>
  <time>2026-08-28T19:09:35Z</time>
  <course>163.1</course>
  <speed>13.014088519754274</speed>
  <fix>3d</fix>
</trkpt>
<trkpt lat="-35.3653493" lon="149.1631648">
  <ele>615.15</ele>
  <time>2026-08-28T19:09:35Z</time>
  <course>163.39</course>
  <speed>13.04</speed>
  <fix>3d</fix>
</trkpt>
<trkpt lat="-35.365385" lon="149.1631776">
  <ele>615.22</ele>
  <time>2026-08-28T19:09:35Z</time>
  <course>163.17</course>
  <speed>13.001665277955745</speed>
  <fix>3d</fix>
</trkpt>
<trkpt lat="-35.3653718" lon="149.1631729">
  <ele>615.11</ele>
  <time>2026-08-28T19:09:35Z</time>
  <course>163.43</course>
  <speed>13.03</speed>
  <fix>3d</fix>
</trkpt>
<trkpt lat="-35.3654075" lon="149.1631857">
  <ele>615.18</ele>
  <time>2026-08-28T19:09:35Z</time>
  <course>163.23</course>
  <speed>12.989245551609224</speed>
  <fix>3d</fix>
</trkpt>
<trkpt lat="-35.3653942" lon="149.1631811">
  <ele>615.06</ele>
  <time>2026-08-28T19:09:35Z</time>
  <course>163.46</course>
  <speed>13.02</speed>
  <fix>3d</fix>
</trkpt>
<trkpt lat="-35.3654299" lon="149.1631939">
  <ele>615.14</ele>
  <time>2026-08-28T19:09:35Z</time>
  <course>163.26</course>
  <speed>12.976829350808309</speed>
  <fix>3d</fix>
</trkpt>
<trkpt lat="-35.3654166" lon="149.1631893">
  <ele>615.02</ele>
  <time>2026-08-28T19:09:35Z</time>
  <course>163.49</course>
  <speed>13.01</speed>
  <fix>3d</fix>
</trkpt>
<trkpt lat="-35.3654525" lon="149.1632021">
  <ele>615.1</ele>
  <time>2026-08-28T19:09:35Z</time>
  <course>163.27</course>
  <speed>12.976829350808309</speed>
  <fix>3d</fix>
</trkpt>
<trkpt lat="-35.3654389" lon="149.1631974">
  <ele>614.97</ele>
  <time>2026-08-28T19:09:35Z</time>
  <course>163.51</course>
  <speed>12.99</speed>
  <fix>3d</fix>
</trkpt>
<trkpt lat="-35.3654749" lon="149.1632102">
  <ele>615.05</ele>
  <time>2026-08-28T19:09:35Z</time>
  <course>163.3</course>
  <speed>12.96441668568239</speed>
  <fix>3d</fix>
</trkpt>
<trkpt lat="-35.3654614" lon="149.1632055">
  <ele>614.92</ele>
  <time>2026-08-28T19:09:35Z</time>
  <course>163.52</course>
  <speed>12.98</speed>
  <fix>3d</fix>
</trkpt>
<trkpt lat="-35.3654972" lon="149.1632183">
  <ele>615.0</ele>
  <time>2026-08-28T19:09:35Z</time>
  <course>163.31</course>
  <speed>12.954821496261536</speed>
  <fix>3d</fix>
</trkpt>
<trkpt lat="-35.3654837" lon="149.1632136">
  <ele>614.88</ele>
  <time>2026-08-28T19:09:35Z</time>
  <course>163.53</course>
  <speed>12.97</speed>
  <fix>3d</fix>
</trkpt>
<trkpt lat="-35.3655196" lon="149.1632264">
  <ele>614.95</ele>
  <time>2026-08-28T19:09:35Z</time>
  <course>163.31</course>
  <speed>12.945226919602453</speed>
  <fix>3d</fix>
</trkpt>
<trkpt lat="-35.3655061" lon="149.1632217">
  <ele>614.83</ele>
  <time>2026-08-28T19:09:35Z</time>
  <course>163.52</course>
  <speed>12.96</speed>
  <fix>3d</fix>
</trkpt>
<trkpt lat="-35.365542" lon="149.1632345">
  <ele>614.91</ele>
  <time>2026-08-28T19:09:35Z</time>
  <course>163.27</course>
  <speed>12.935632957068627</speed>
  <fix>3d</fix>
</trkpt>
<trkpt lat="-35.3655284" lon="149.1632298">
  <ele>614.78</ele>
  <time>2026-08-28T19:09:35Z</time>
  <course>163.51</course>
  <speed>12.95</speed>
  <fix>3d</fix>
</trkpt>
<trkpt lat="-35.3655644" lon="149.1632427">
  <ele>614.87</ele>
  <time>2026-08-28T19:09:35Z</time>
  <course>163.25</course>
  <speed>12.928866926378351</speed>
  <fix>3d</fix>
</trkpt>
<trkpt lat="-35.3655508" lon="149.1632379">
  <ele>614.74</ele>
  <time>2026-08-28T19:09:35Z</time>
  <course>163.5</course>
  <speed>12.94</speed>
  <fix>3d</fix>
</trkpt>
<trkpt lat="-35.3655867" lon="149.1632508">
  <ele>614.82</ele>
  <time>2026-08-28T19:09:35Z</time>
  <course>163.21</course>
  <speed>12.928866926378351</speed>
  <fix>3d</fix>
</trkpt>
<trkpt lat="-35.3655731" lon="149.163246">
  <ele>614.69</ele>
  <time>2026-08-28T19:09:35Z</time>
  <course>163.48</course>
  <speed>12.94</speed>
  <fix>3d</fix>
</trkpt>
<trkpt lat="-35.365609" lon="149.1632589">
  <ele>614.77</ele>
  <time>2026-08-28T19:09:35Z</time>
  <course>163.19</course>
  <speed>12.91927629552058</speed>
  <fix>3d</fix>
</trkpt>
<trkpt lat="-35.3655953" lon="149.1632541">
  <ele>614.64</ele>
  <time>2026-08-28T19:09:35Z</time>
  <course>163.45</course>
  <speed>12.93</speed>
  <fix>3d</fix>
</trkpt>
<trkpt lat="-35.3656313" lon="149.163267">
  <ele>614.73</ele>
  <time>2026-08-28T19:09:35Z</time>
  <course>163.13</course>
  <speed>12.922112830338545</speed>
  <fix>3d</fix>
</trkpt>
<trkpt lat="-35.3656176" lon="149.1632622">
  <ele>614.6</ele>
  <time>2026-08-28T19:09:35Z</time>
  <course>163.43</course>
  <speed>12.93</speed>
  <fix>3d</fix>
</trkpt>
<trkpt lat="-35.3656535" lon="149.1632752">
  <ele>614.69</ele>
  <time>2026-08-28T19:09:35Z</time>
  <course>163.08</course>
  <speed>12.924956479617254</speed>
  <fix>3d</fix>
</trkpt>
<trkpt lat="-35.3656399" lon="149.1632704">
  <ele>614.55</ele>
  <time>2026-08-28T19:09:35Z</time>
  <course>163.4</course>
  <speed>12.93</speed>
  <fix>3d</fix>
</trkpt>
<trkpt lat="-35.3656758" lon="149.1632833">
  <ele>614.64</ele>
  <time>2026-08-28T19:09:35Z</time>
  <course>163.01</course>
  <speed>12.924956479617254</speed>
  <fix>3d</fix>
</trkpt>
<trkpt lat="-35.3656621" lon="149.1632785">
  <ele>614.51</ele>
  <time>2026-08-28T19:09:35Z</time>
  <course>163.36</course>
  <speed>12.93</speed>
  <fix>3d</fix>
</trkpt>
<trkpt lat="-35.3656981" lon="149.1632915">
  <ele>614.6</ele>
  <time>2026-08-28T19:09:35Z</time>
  <course>162.94</course>
  <speed>12.927807238661938</speed>
  <fix>3d</fix>
</trkpt>
<trkpt lat="-35.3656844" lon="149.1632867">
  <ele>614.46</ele>
  <time>2026-08-28T19:09:35Z</time>
  <course>163.33</course>
  <speed>12.93</speed>
  <fix>3d</fix>
</trkpt>
<trkpt lat="-35.3657203" lon="149.1632997">
  <ele>614.56</ele>
  <time>2026-08-28T19:09:35Z</time>
  <course>162.85</course>
  <speed>12.930665102770236</speed>
  <fix>3d</fix>
</trkpt>
<trkpt lat="-35.3657067" lon="149.1632948">
  <ele>614.41</ele>
  <time>2026-08-28T19:09:35Z</time>
  <course>163.3</course>
  <speed>12.94</speed>
  <fix>3d</fix>
</trkpt>
<trkpt lat="-35.3657425" lon="149.1633078">
  <ele>614.51</ele>
  <time>2026-08-28T19:09:35Z</time>
  <course>162.81</course>
  <speed>12.943110136284865</speed>
  <fix>3d</fix>
</trkpt>
<trkpt lat="-35.365729" lon="149.1633031">
  <ele>614.37</ele>
  <time>2026-08-28T19:09:35Z</time>
  <course>163.27</course>
  <speed>12.94</speed>
  <fix>3d</fix>
</trkpt>
<trkpt lat="-35.3657648" lon="149.1633161">
  <ele>614.47</ele>
  <time>2026-08-28T19:09:35Z</time>
  <course>162.76</course>
  <speed>12.943110136284865</speed>
  <fix>3d</fix>
</trkpt>
<trkpt lat="-35.3657513" lon="149.1633113">
  <ele>614.32</ele>
  <time>2026-08-28T19:09:35Z</time>
  <course>163.25</course>
  <speed>12.95</speed>
  <fix>3d</fix>
</trkpt>
<trkpt lat="-35.3657871" lon="149.1633243">
  <ele>614.43</ele>
  <time>2026-08-28T19:09:35Z</time>
  <course>162.7</course>
  <speed>12.955558652562999</speed>
  <fix>3d</fix>
</trkpt>
<trkpt lat="-35.3657736" lon="149.1633196">
  <ele>614.28</ele>
  <time>2026-08-28T19:09:35Z</time>
  <course>163.23</course>
  <speed>12.97</speed>
  <fix>3d</fix>
</trkpt>
<trkpt lat="-35.3658094" lon="149.1633325">
  <ele>614.38</ele>
  <time>2026-08-28T19:09:35Z</time>
  <course>162.66</course>
  <speed>12.965137870458609</speed>
  <fix>3d</fix>
</trkpt>
<trkpt lat="-35.3657959" lon="149.1633278">
  <ele>614.23</ele>
  <time>2026-08-28T19:09:35Z</time>
  <course>163.21</course>
  <speed>12.98</speed>
  <fix>3d</fix>
</trkpt>
<trkpt lat="-35.3658317" lon="149.1633408">
  <ele>614.33</ele>
  <time>2026-08-28T19:09:35Z</time>
  <course>162.62</course>
  <speed>12.987166742596322</speed>
  <fix>3d</fix>
</trkpt>
<trkpt lat="-35.3658182" lon="149.163336">
  <ele>614.18</ele>
  <time>2026-08-28T19:09:35Z</time>
  <course>163.21</course>
  <speed>13.0</speed>
  <fix>3d</fix>
</trkpt>
<trkpt lat="-35.365854" lon="149.1633491">
  <ele>614.29</ele>
  <time>2026-08-28T19:09:35Z</time>
  <course>162.6</course>
  <speed>12.99674574653209</speed>
  <fix>3d</fix>
</trkpt>
<trkpt lat="-35.3658406" lon="149.1633443">
  <ele>614.14</ele>
  <time>2026-08-28T19:09:35Z</time>
  <course>163.2</course>
  <speed>13.01</speed>
  <fix>3d</fix>
</trkpt>
<trkpt lat="-35.3658764" lon="149.1633573">
  <ele>614.25</ele>
  <time>2026-08-28T19:09:35Z</time>
  <course>162.63</course>
  <speed>13.006325384212097</speed>
  <fix>3d</fix>
</trkpt>
<trkpt lat="-35.365863" lon="149.1633526">
  <ele>614.1</ele>
  <time>2026-08-28T19:09:35Z</time>
  <course>163.2</course>
  <speed>13.02</speed>
  <fix>3d</fix>
</trkpt>
<trkpt lat="-35.3658988" lon="149.1633656">
  <ele>614.21</ele>
  <time>2026-08-28T19:09:35Z</time>
  <course>162.65</course>
  <speed>13.015905654237049</speed>
  <fix>3d</fix>
</trkpt>
<trkpt lat="-35.3658853" lon="149.1633609">
  <ele>614.06</ele>
  <time>2026-08-28T19:09:35Z</time>
  <course>163.21</course>
  <speed>13.03</speed>
  <fix>3d</fix>
</trkpt>
<trkpt lat="-35.3659213" lon="149.163374">
  <ele>614.17</ele>
  <time>2026-08-28T19:09:35Z</time>
  <course>162.7</course>
  <speed>13.015905654237049</speed>
  <fix>3d</fix>
</trkpt>
<trkpt lat="-35.3659078" lon="149.1633692">
  <ele>614.02</ele>
  <time>2026-08-28T19:09:35Z</time>
  <course>163.23</course>
  <speed>13.04</speed>
  <fix>3d</fix>
</trkpt>
<trkpt lat="-35.3659439" lon="149.1633823">
  <ele>614.12</ele>
  <time>2026-08-28T19:09:35Z</time>
  <course>162.72</course>
  <speed>13.025486555211671</speed>
  <fix>3d</fix>
</trkpt>
<trkpt lat="-35.3659303" lon="149.1633775">
  <ele>613.97</ele>
  <time>2026-08-28T19:09:35Z</time>
  <course>163.25</course>
  <speed>13.05</speed>
  <fix>3d</fix>
</trkpt>
<trkpt lat="-35.3659664" lon="149.1633905">
  <ele>614.08</ele>
  <time>2026-08-28T19:09:35Z</time>
  <course>162.82</course>
  <speed>13.03221009652622</speed>
  <fix>3d</fix>
</trkpt>
<trkpt lat="-35.3659528" lon="149.1633858">
  <ele>613.93</ele>
  <time>2026-08-28T19:09:35Z</time>
  <course>163.28</course>
  <speed>13.05</speed>
  <fix>3d</fix>
</trkpt>
<trkpt lat="-35.3659889" lon="149.1633988">
  <ele>614.03</ele>
  <time>2026-08-28T19:09:35Z</time>
  <course>162.93</course>
  <speed>13.029359155384427</speed>
  <fix>3d</fix>
</trkpt>
<trkpt lat="-35.3659753" lon="149.1633941">
  <ele>613.89</ele>
  <time>2026-08-28T19:09:35Z</time>
  <course>163.31</course>
  <speed>13.05</speed>
  <fix>3d</fix>
</trkpt>
<trkpt lat="-35.3660114" lon="149.1634071">
  <ele>613.99</ele>
  <time>2026-08-28T19:09:35Z</time>
  <course>163.03</course>
  <speed>13.016927440836412</speed>
  <fix>3d</fix>
</trkpt>
<trkpt lat="-35.3659977" lon="149.1634023">
  <ele>613.85</ele>
  <time>2026-08-28T19:09:35Z</time>
  <course>163.35</course>
  <speed>13.04</speed>
  <fix>3d</fix>
</trkpt>
<trkpt lat="-35.3660339" lon="149.1634153">
  <ele>613.95</ele>
  <time>2026-08-28T19:09:35Z</time>
  <course>163.14</course>
  <speed>13.00449922142333</speed>
  <fix>3d</fix>
</trkpt>
<trkpt lat="-35.3660201" lon="149.1634106">
  <ele>613.82</ele>
  <time>2026-08-28T19:09:35Z</time>
  <course>163.39</course>
  <speed>13.03</speed>
  <fix>3d</fix>
</trkpt>
<trkpt lat="-35.3660563" lon="149.1634235">
  <ele>613.91</ele>
  <time>2026-08-28T19:09:35Z</time>
  <course>163.2</course>
  <speed>12.992074507175518</speed>
  <fix>3d</fix>
</trkpt>
<trkpt lat="-35.3660426" lon="149.1634187">
  <ele>613.78</ele>
  <time>2026-08-28T19:09:35Z</time>
  <course>163.43</course>
  <speed>13.01</speed>
  <fix>3d</fix>
</trkpt>
<trkpt lat="-35.3660786" lon="149.1634316">
  <ele>613.86</ele>
  <time>2026-08-28T19:09:35Z</time>
  <course>163.21</course>
  <speed>12.979653308158891</speed>
  <fix>3d</fix>
</trkpt>
<trkpt lat="-35.3660649" lon="149.1634269">
  <ele>613.74</ele>
  <time>2026-08-28T19:09:35Z</time>
  <course>163.47</course>
  <speed>13.0</speed>
  <fix>3d</fix>
</trkpt>
<trkpt lat="-35.366101" lon="149.1634397">
  <ele>613.82</ele>
  <time>2026-08-28T19:09:35Z</time>
  <course>163.25</course>
  <speed>12.967235634475067</speed>
  <fix>3d</fix>
</trkpt>
<trkpt lat="-35.3660874" lon="149.163435">
  <ele>613.69</ele>
  <time>2026-08-28T19:09:35Z</time>
  <course>163.5</course>
  <speed>12.99</speed>
  <fix>3d</fix>
</trkpt>
<trkpt lat="-35.3661234" lon="149.1634479">
  <ele>613.77</ele>
  <time>2026-08-28T19:09:35Z</time>
  <course>163.21</course>
  <speed>12.967235634475067</speed>
  <fix>3d</fix>
</trkpt>
<trkpt lat="-35.3661098" lon="149.1634431">
  <ele>613.66</ele>
  <time>2026-08-28T19:09:35Z</time>
  <course>163.52</course>
  <speed>12.99</speed>
  <fix>3d</fix>
</trkpt>
<trkpt lat="-35.3661458" lon="149.163456">
  <ele>613.73</ele>
  <time>2026-08-28T19:09:35Z</time>
  <course>163.2</course>
  <speed>12.967235634475067</speed>
  <fix>3d</fix>
</trkpt>
<trkpt lat="-35.3661321" lon="149.1634512">
  <ele>613.61</ele>
  <time>2026-08-28T19:09:35Z</time>
  <course>163.53</course>
  <speed>12.99</speed>
  <fix>3d</fix>
</trkpt>
<trkpt lat="-35.3661682" lon="149.1634641">
  <ele>613.69</ele>
  <time>2026-08-28T19:09:35Z</time>
  <course>163.17</course>
  <speed>12.967235634475067</speed>
  <fix>3d</fix>
</trkpt>
<trkpt lat="-35.3661545" lon="149.1634594">
  <ele>613.57</ele>
  <time>2026-08-28T19:09:35Z</time>
  <course>163.52</course>
  <speed>12.99</speed>
  <fix>3d</fix>
</trkpt>
<trkpt lat="-35.3661905" lon="149.1634722">
  <ele>613.64</ele>
  <time>2026-08-28T19:09:35Z</time>
  <course>163.18</course>
  <speed>12.957642532497955</speed>
  <fix>3d</fix>
</trkpt>
<trkpt lat="-35.3661769" lon="149.1634675">
  <ele>613.53</ele>
  <time>2026-08-28T19:09:35Z</time>
  <course>163.51</course>
  <speed>12.98</speed>
  <fix>3d</fix>
</trkpt>
<trkpt lat="-35.3662128" lon="149.1634803">
  <ele>613.6</ele>
  <time>2026-08-28T19:09:35Z</time>
  <course>163.17</course>
  <speed>12.957642532497955</speed>
  <fix>3d</fix>
</trkpt>
<trkpt lat="-35.3661993" lon="149.1634756">
  <ele>613.49</ele>
  <time>2026-08-28T19:09:35Z</time>
  <course>163.49</course>
  <speed>12.98</speed>
  <fix>3d</fix>
</trkpt>
<trkpt lat="-35.3662352" lon="149.1634885">
  <ele>613.56</ele>
  <time>2026-08-28T19:09:35Z</time>
  <course>163.15</course>
  <speed>12.950880278961735</speed>
  <fix>3d</fix>
</trkpt>
<trkpt lat="-35.3662216" lon="149.1634838">
  <ele>613.44</ele>
  <time>2026-08-28T19:09:35Z</time>
  <course>163.47</course>
  <speed>12.97</speed>
  <fix>3d</fix>
</trkpt>
<trkpt lat="-35.3662574" lon="149.1634966">
  <ele>613.51</ele>
  <time>2026-08-28T19:09:35Z</time>
  <course>163.1</course>
  <speed>12.950880278961735</speed>
  <fix>3d</fix>
</trkpt>
<trkpt lat="-35.366244" lon="149.1634919">
  <ele>613.41</ele>
  <time>2026-08-28T19:09:35Z</time>
  <course>163.45</course>
  <speed>12.97</speed>
  <fix>3d</fix>
</trkpt>
<trkpt lat="-35.3662797" lon="149.1635047">
  <ele>613.47</ele>
  <time>2026-08-28T19:09:35Z</time>
  <course>163.03</course>
  <speed>12.953717613102427</speed>
  <fix>3d</fix>
</trkpt>
<trkpt lat="-35.3662664" lon="149.1635001">
  <ele>613.37</ele>
  <time>2026-08-28T19:09:35Z</time>
  <course>163.43</course>
  <speed>12.98</speed>
  <fix>3d</fix>
</trkpt>
<trkpt lat="-35.366302" lon="149.1635129">
  <ele>613.43</ele>
  <time>2026-08-28T19:09:35Z</time>
  <course>162.95</course>
  <speed>12.956562043999172</speed>
  <fix>3d</fix>
</trkpt>
<trkpt lat="-35.3662887" lon="149.1635082">
  <ele>613.32</ele>
  <time>2026-08-28T19:09:35Z</time>
  <course>163.4</course>
  <speed>12.98</speed>
  <fix>3d</fix>
</trkpt>
<trkpt lat="-35.3663243" lon="149.163521">
  <ele>613.38</ele>
  <time>2026-08-28T19:09:35Z</time>
  <course>162.89</course>
  <speed>12.966148232995025</speed>
  <fix>3d</fix>
</trkpt>
<trkpt lat="-35.3663111" lon="149.1635164">
  <ele>613.28</ele>
  <time>2026-08-28T19:09:35Z</time>
  <course>163.37</course>
  <speed>12.99</speed>
  <fix>3d</fix>
</trkpt>
<trkpt lat="-35.3663467" lon="149.1635292">
  <ele>613.34</ele>
  <time>2026-08-28T19:09:35Z</time>
  <course>162.86</course>
  <speed>12.978582357098944</speed>
  <fix>3d</fix>
</trkpt>
<trkpt lat="-35.3663334" lon="149.1635246">
  <ele>613.24</ele>
  <time>2026-08-28T19:09:35Z</time>
  <course>163.35</course>
  <speed>13.0</speed>
  <fix>3d</fix>
</trkpt>
<trkpt lat="-35.366369" lon="149.1635374">
  <ele>613.3</ele>
  <time>2026-08-28T19:09:35Z</time>
  <course>162.81</course>
  <speed>12.981436746369795</speed>
  <fix>3d</fix>
</trkpt>
<trkpt lat="-35.3663559" lon="149.1635327">
  <ele>613.19</ele>
  <time>2026-08-28T19:09:35Z</time>
  <course>163.32</course>
  <speed>13.01</speed>
  <fix>3d</fix>
</trkpt>
<trkpt lat="-35.3663915" lon="149.1635457">
  <ele>613.26</ele>
  <time>2026-08-28T19:09:35Z</time>
  <course>162.81</course>
  <speed>12.991019975352206</speed>
  <fix>3d</fix>
</trkpt>
<trkpt lat="-35.3663782" lon="149.163541">
  <ele>613.16</ele>
  <time>2026-08-28T19:09:35Z</time>
  <course>163.3</course>
  <speed>13.02</speed>
  <fix>3d</fix>
</trkpt>
<trkpt lat="-35.366414" lon="149.163554">
  <ele>613.22</ele>
  <time>2026-08-28T19:09:35Z</time>
  <course>162.84</course>
  <speed>12.99387932836072</speed>
  <fix>3d</fix>
</trkpt>
<trkpt lat="-35.3664007" lon="149.1635493">
  <ele>613.12</ele>
  <time>2026-08-28T19:09:35Z</time>
  <course>163.28</course>
  <speed>13.02</speed>
  <fix>3d</fix>
</trkpt>
<trkpt lat="-35.3664363" lon="149.1635622">
  <ele>613.18</ele>
  <time>2026-08-28T19:09:35Z</time>
  <course>162.9</course>
  <speed>12.99387932836072</speed>
  <fix>3d</fix>
</trkpt>
<trkpt lat="-35.3664232" lon="149.1635576">
  <ele>613.07</ele>
  <time>2026-08-28T19:09:35Z</time>
  <course>163.27</course>
  <speed>13.02</speed>
  <fix>3d</fix>
</trkpt>
<trkpt lat="-35.3664588" lon="149.1635705">
  <ele>613.14</ele>
  <time>2026-08-28T19:09:35Z</time>
  <course>162.92</course>
  <speed>12.99387932836072</speed>
  <fix>3d</fix>
</trkpt>
<trkpt lat="-35.3664456" lon="149.1635658">
  <ele>613.04</ele>
  <time>2026-08-28T19:09:35Z</time>
  <course>163.27</course>
  <speed>13.02</speed>
  <fix>3d</fix>
</trkpt>
<trkpt lat="-35.3664813" lon="149.1635787">
  <ele>613.11</ele>
  <time>2026-08-28T19:09:35Z</time>
  <course>162.96</course>
  <speed>12.991019975352206</speed>
  <fix>3d</fix>
</trkpt>
<trkpt lat="-35.366468" lon="149.1635741">
  <ele>613.0</ele>
  <time>2026-08-28T19:09:35Z</time>
  <course>163.28</course>
  <speed>13.01</speed>
  <fix>3d</fix>
</trkpt>
<trkpt lat="-35.3665037" lon="149.163587">
  <ele>613.07</ele>
  <time>2026-08-28T19:09:35Z</time>
  <course>163.01</course>
  <speed>12.981436746369795</speed>
  <fix>3d</fix>
</trkpt>
<trkpt lat="-35.3664903" lon="149.1635823">
  <ele>612.95</ele>
  <time>2026-08-28T19:09:35Z</time>
  <course>163.29</course>
  <speed>13.01</speed>
  <fix>3d</fix>
</trkpt>
<trkpt lat="-35.366526" lon="149.1635952">
  <ele>613.03</ele>
  <time>2026-08-28T19:09:35Z</time>
  <course>163.04</course>
  <speed>12.978582357098944</speed>
  <fix>3d</fix>
</trkpt>
<trkpt lat="-35.3665127" lon="149.1635906">
  <ele>612.92</ele>
  <time>2026-08-28T19:09:35Z</time>
  <course>163.31</course>
  <speed>13.0</speed>
  <fix>3d</fix>
</trkpt>
<trkpt lat="-35.3665484" lon="149.1636034">
  <ele>612.98</ele>
  <time>2026-08-28T19:09:35Z</time>
  <course>163.06</course>
  <speed>12.968997648237893</speed>
  <fix>3d</fix>
</trkpt>
<trkpt lat="-35.366535" lon="149.1635988">
  <ele>612.88</ele>
  <time>2026-08-28T19:09:35Z</time>
  <course>163.33</course>
  <speed>13.0</speed>
  <fix>3d</fix>
</trkpt>
<trkpt lat="-35.3665707" lon="149.1636116">
  <ele>612.94</ele>
  <time>2026-08-28T19:09:35Z</time>
  <course>163.08</course>
  <speed>12.966148232995025</speed>
  <fix>3d</fix>
</trkpt>
<trkpt lat="-35.3665575" lon="149.163607">
  <ele>612.83</ele>
  <time>2026-08-28T19:09:35Z</time>
  <course>163.35</course>
  <speed>12.99</speed>
  <fix>3d</fix>
</trkpt>
<trkpt lat="-35.3665931" lon="149.1636198">
  <ele>612.89</ele>
  <time>2026-08-28T19:09:35Z</time>
  <course>163.06</course>
  <speed>12.966148232995025</speed>
  <fix>3d</fix>
</trkpt>
<trkpt lat="-35.3665798" lon="149.1636151">
  <ele>612.78</ele>
  <time>2026-08-28T19:09:35Z</time>
  <course>163.36</course>
  <speed>12.99</speed>
  <fix>3d</fix>
</trkpt>
<trkpt lat="-35.3666156" lon="149.163628">
  <ele>612.85</ele>
  <time>2026-08-28T19:09:35Z</time>
  <course>163.06</course>
  <speed>12.975735046616819</speed>
  <fix>3d</fix>
</trkpt>
<trkpt lat="-35.3666022" lon="149.1636234">
  <ele>612.74</ele>
  <time>2026-08-28T19:09:35Z</time>
  <course>163.38</course>
  <speed>12.99</speed>
  <fix>3d</fix>
</trkpt>
<trkpt lat="-35.3666379" lon="149.1636362">
  <ele>612.81</ele>
  <time>2026-08-28T19:09:35Z</time>
  <course>163.06</course>
  <speed>12.975735046616819</speed>
  <fix>3d</fix>
</trkpt>
<trkpt lat="-35.3666245" lon="149.1636315">
  <ele>612.69</ele>
  <time>2026-08-28T19:09:35Z</time>
  <course>163.39</course>
  <speed>12.99</speed>
  <fix>3d</fix>
</trkpt>
<trkpt lat="-35.3666603" lon="149.1636444">
  <ele>612.77</ele>
  <time>2026-08-28T19:09:36Z</time>
  <course>163.07</course>
  <speed>12.975735046616819</speed>
  <fix>3d</fix>
</trkpt>
<trkpt lat="-35.3666469" lon="149.1636398">
  <ele>612.64</ele>
  <time>2026-08-28T19:09:36Z</time>
  <course>163.39</course>
  <speed>12.99</speed>
  <fix>3d</fix>
</trkpt>
<trkpt lat="-35.3666827" lon="149.1636526">
  <ele>612.72</ele>
  <time>2026-08-28T19:09:36Z</time>
  <course>163.1</course>
  <speed>12.975735046616819</speed>
  <fix>3d</fix>
</trkpt>
<trkpt lat="-35.3666693" lon="149.1636479">
  <ele>612.6</ele>
  <time>2026-08-28T19:09:36Z</time>
  <course>163.39</course>
  <speed>12.99</speed>
  <fix>3d</fix>
</trkpt>
<trkpt lat="-35.3667051" lon="149.1636608">
  <ele>612.68</ele>
  <time>2026-08-28T19:09:36Z</time>
  <course>163.1</course>
  <speed>12.96330590551654</speed>
  <fix>3d</fix>
</trkpt>
<trkpt lat="-35.3666917" lon="149.163656">
  <ele>612.55</ele>
  <time>2026-08-28T19:09:36Z</time>
  <course>163.39</course>
  <speed>12.99</speed>
  <fix>3d</fix>
</trkpt>
<trkpt lat="-35.3667275" lon="149.163669">
  <ele>612.63</ele>
  <time>2026-08-28T19:09:36Z</time>
  <course>163.14</course>
  <speed>12.96330590551654</speed>
  <fix>3d</fix>
</trkpt>
<trkpt lat="-35.366714" lon="149.1636643">
  <ele>612.51</ele>
  <time>2026-08-28T19:09:36Z</time>
  <course>163.4</course>
  <speed>12.98</speed>
  <fix>3d</fix>
</trkpt>
<trkpt lat="-35.3667497" lon="149.1636771">
  <ele>612.58</ele>
  <time>2026-08-28T19:09:36Z</time>
  <course>163.14</course>
  <speed>12.953717613102427</speed>
  <fix>3d</fix>
</trkpt>
<trkpt lat="-35.3667364" lon="149.1636725">
  <ele>612.46</ele>
  <time>2026-08-28T19:09:36Z</time>
  <course>163.4</course>
  <speed>12.98</speed>
  <fix>3d</fix>
</trkpt>
<trkpt lat="-35.366772" lon="149.1636852">
  <ele>612.53</ele>
  <time>2026-08-28T19:09:36Z</time>
  <course>163.1</course>
  <speed>12.953717613102427</speed>
  <fix>3d</fix>
</trkpt>
<trkpt lat="-35.3667588" lon="149.1636806">
  <ele>612.42</ele>
  <time>2026-08-28T19:09:36Z</time>
  <course>163.4</course>
  <speed>12.98</speed>
  <fix>3d</fix>
</trkpt>
<trkpt lat="-35.3667943" lon="149.1636934">
  <ele>612.49</ele>
  <time>2026-08-28T19:09:36Z</time>
  <course>163.04</course>
  <speed>12.953717613102427</speed>
  <fix>3d</fix>
</trkpt>
<trkpt lat="-35.3667811" lon="149.1636888">
  <ele>612.37</ele>
  <time>2026-08-28T19:09:36Z</time>
  <course>163.4</course>
  <speed>12.98</speed>
  <fix>3d</fix>
</trkpt>
<trkpt lat="-35.3668166" lon="149.1637015">
  <ele>612.44</ele>
  <time>2026-08-28T19:09:36Z</time>
  <course>162.98</course>
  <speed>12.966148232995025</speed>
  <fix>3d</fix>
</trkpt>
<trkpt lat="-35.3668035" lon="149.163697">
  <ele>612.32</ele>
  <time>2026-08-28T19:09:36Z</time>
  <course>163.39</course>
  <speed>12.98</speed>
  <fix>3d</fix>
</trkpt>
<trkpt lat="-35.3668389" lon="149.1637097">
  <ele>612.4</ele>
  <time>2026-08-28T19:09:36Z</time>
  <course>162.95</course>
  <speed>12.975735046616819</speed>
  <fix>3d</fix>
</trkpt>
<trkpt lat="-35.3668258" lon="149.1637051">
  <ele>612.28</ele>
  <time>2026-08-28T19:09:36Z</time>
  <course>163.38</course>
  <speed>12.99</speed>
  <fix>3d</fix>
</trkpt>
<trkpt lat="-35.3668613" lon="149.1637179">
  <ele>612.36</ele>
  <time>2026-08-28T19:09:36Z</time>
  <course>162.9</course>
  <speed>12.988167692172748</speed>
  <fix>3d</fix>
</trkpt>
<trkpt lat="-35.3668481" lon="149.1637132">
  <ele>612.24</ele>
  <time>2026-08-28T19:09:36Z</time>
  <course>163.37</course>
  <speed>13.0</speed>
  <fix>3d</fix>
</trkpt>
<trkpt lat="-35.3668837" lon="149.1637261">
  <ele>612.31</ele>
  <time>2026-08-28T19:09:36Z</time>
  <course>162.89</course>
  <speed>12.988167692172748</speed>
  <fix>3d</fix>
</trkpt>
<trkpt lat="-35.3668706" lon="149.1637215">
  <ele>612.19</ele>
  <time>2026-08-28T19:09:36Z</time>
  <course>163.35</course>
  <speed>13.01</speed>
  <fix>3d</fix>
</trkpt>
<trkpt lat="-35.3669061" lon="149.1637343">
  <ele>612.27</ele>
  <time>2026-08-28T19:09:36Z</time>
  <course>162.93</course>
  <speed>13.00060383213026</speed>
  <fix>3d</fix>
</trkpt>
<trkpt lat="-35.3668931" lon="149.1637298">
  <ele>612.15</ele>
  <time>2026-08-28T19:09:36Z</time>
  <course>163.34</course>
  <speed>13.02</speed>
  <fix>3d</fix>
</trkpt>
<trkpt lat="-35.3669286" lon="149.1637426">
  <ele>612.24</ele>
  <time>2026-08-28T19:09:36Z</time>
  <course>162.94</course>
  <speed>13.00060383213026</speed>
  <fix>3d</fix>
</trkpt>
<trkpt lat="-35.3669155" lon="149.163738">
  <ele>612.11</ele>
  <time>2026-08-28T19:09:36Z</time>
  <course>163.33</course>
  <speed>13.02</speed>
  <fix>3d</fix>
</trkpt>
<trkpt lat="-35.366951" lon="149.1637508">
  <ele>612.2</ele>
  <time>2026-08-28T19:09:36Z</time>
  <course>162.98</course>
  <speed>12.991019975352206</speed>
  <fix>3d</fix>
</trkpt>
<trkpt lat="-35.3669378" lon="149.1637462">
  <ele>612.07</ele>
  <time>2026-08-28T19:09:36Z</time>
  <course>163.33</course>
  <speed>13.02</speed>
  <fix>3d</fix>
</trkpt>
<trkpt lat="-35.3669734" lon="149.163759">
  <ele>612.16</ele>
  <time>2026-08-28T19:09:36Z</time>
  <course>163.0</course>
  <speed>12.988167692172748</speed>
  <fix>3d</fix>
</trkpt>
<trkpt lat="-35.3669603" lon="149.1637544">
  <ele>612.03</ele>
  <time>2026-08-28T19:09:36Z</time>
  <course>163.33</course>
  <speed>13.02</speed>
  <fix>3d</fix>
</trkpt>
<trkpt lat="-35.3669958" lon="149.1637672">
  <ele>612.11</ele>
  <time>2026-08-28T19:09:36Z</time>
  <course>163.04</course>
  <speed>12.988167692172748</speed>
  <fix>3d</fix>
</trkpt>
<trkpt lat="-35.3669826" lon="149.1637627">
  <ele>611.99</ele>
  <time>2026-08-28T19:09:36Z</time>
  <course>163.33</course>
  <speed>13.01</speed>
  <fix>3d</fix>
</trkpt>
<trkpt lat="-35.3670181" lon="149.1637754">
  <ele>612.06</ele>
  <time>2026-08-28T19:09:36Z</time>
  <course>163.03</course>
  <speed>12.988167692172748</speed>
  <fix>3d</fix>
</trkpt>
<trkpt lat="-35.3670051" lon="149.1637708">
  <ele>611.94</ele>
  <time>2026-08-28T19:09:36Z</time>
  <course>163.34</course>
  <speed>13.01</speed>
  <fix>3d</fix>
</trkpt>
<trkpt lat="-35.3670405" lon="149.1637836">
  <ele>612.02</ele>
  <time>2026-08-28T19:09:36Z</time>
  <course>163.03</course>
  <speed>12.988167692172748</speed>
  <fix>3d</fix>
</trkpt>
<trkpt lat="-35.3670275" lon="149.1637791">
  <ele>611.9</ele>
  <time>2026-08-28T19:09:36Z</time>
  <course>163.35</course>
  <speed>13.01</speed>
  <fix>3d</fix>
</trkpt>
<trkpt lat="-35.3670629" lon="149.1637919">
  <ele>611.98</ele>
  <time>2026-08-28T19:09:36Z</time>
  <course>163.01</course>
  <speed>12.988167692172748</speed>
  <fix>3d</fix>
</trkpt>
<trkpt lat="-35.3670499" lon="149.1637872">
  <ele>611.86</ele>
  <time>2026-08-28T19:09:36Z</time>
  <course>163.36</course>
  <speed>13.01</speed>
  <fix>3d</fix>
</trkpt>
<trkpt lat="-35.3670854" lon="149.1638001">
  <ele>611.94</ele>
  <time>2026-08-28T19:09:36Z</time>
  <course>163.03</course>
  <speed>12.988167692172748</speed>
  <fix>3d</fix>
</trkpt>
<trkpt lat="-35.3670723" lon="149.1637955">
  <ele>611.81</ele>
  <time>2026-08-28T19:09:36Z</time>
  <course>163.36</course>
  <speed>13.01</speed>
  <fix>3d</fix>
</trkpt>
<trkpt lat="-35.3671079" lon="149.1638083">
  <ele>611.89</ele>
  <time>2026-08-28T19:09:36Z</time>
  <course>163.06</course>
  <speed>12.988167692172748</speed>
  <fix>3d</fix>
</trkpt>
<trkpt lat="-35.3670946" lon="149.1638037">
  <ele>611.77</ele>
  <time>2026-08-28T19:09:36Z</time>
  <course>163.36</course>
  <speed>13.01</speed>
  <fix>3d</fix>
</trkpt>
<trkpt lat="-35.3671304" lon="149.1638166">
  <ele>611.84</ele>
  <time>2026-08-28T19:09:36Z</time>
  <course>163.06</course>
  <speed>12.988167692172748</speed>
  <fix>3d</fix>
</trkpt>
<trkpt lat="-35.3671171" lon="149.1638119">
  <ele>611.73</ele>
  <time>2026-08-28T19:09:36Z</time>
  <course>163.37</course>
  <speed>13.0</speed>
  <fix>3d</fix>
</trkpt>
<trkpt lat="-35.3671528" lon="149.1638248">
  <ele>611.79</ele>
  <time>2026-08-28T19:09:36Z</time>
  <course>163.1</course>
  <speed>12.975735046616819</speed>
  <fix>3d</fix>
</trkpt>
<trkpt lat="-35.3671396" lon="149.1638201">
  <ele>611.69</ele>
  <time>2026-08-28T19:09:36Z</time>
  <course>163.37</course>
  <speed>13.0</speed>
  <fix>3d</fix>
</trkpt>
<trkpt lat="-35.3671753" lon="149.163833">
  <ele>611.75</ele>
  <time>2026-08-28T19:09:36Z</time>
  <course>163.15</course>
  <speed>12.966148232995025</speed>
  <fix>3d</fix>
</trkpt>
<trkpt lat="-35.3671619" lon="149.1638283">
  <ele>611.65</ele>
  <time>2026-08-28T19:09:36Z</time>
  <course>163.38</course>
  <speed>12.98</speed>
  <fix>3d</fix>
</trkpt>
<trkpt lat="-35.3671977" lon="149.1638412">
  <ele>611.71</ele>
  <time>2026-08-28T19:09:36Z</time>
  <course>163.2</course>
  <speed>12.953717613102427</speed>
  <fix>3d</fix>
</trkpt>
<trkpt lat="-35.3671842" lon="149.1638365">
  <ele>611.61</ele>
  <time>2026-08-28T19:09:36Z</time>
  <course>163.39</course>
  <speed>12.97</speed>
  <fix>3d</fix>
</trkpt>
<trkpt lat="-35.3672201" lon="149.1638494">
  <ele>611.67</ele>
  <time>2026-08-28T19:09:36Z</time>
  <course>163.22</course>
  <speed>12.944129943723526</speed>
  <fix>3d</fix>
</trkpt>
<trkpt lat="-35.3672065" lon="149.1638446">
  <ele>611.57</ele>
  <time>2026-08-28T19:09:36Z</time>
  <course>163.4</course>
  <speed>12.96</speed>
  <fix>3d</fix>
</trkpt>
<trkpt lat="-35.3672424" lon="149.1638575">
  <ele>611.62</ele>
  <time>2026-08-28T19:09:36Z</time>
  <course>163.21</course>
  <speed>12.93170135751673</speed>
  <fix>3d</fix>
</trkpt>
<trkpt lat="-35.3672288" lon="149.1638528">
  <ele>611.53</ele>
  <time>2026-08-28T19:09:36Z</time>
  <course>163.4</course>
  <speed>12.95</speed>
  <fix>3d</fix>
</trkpt>
<trkpt lat="-35.3672647" lon="149.1638657">
  <ele>611.58</ele>
  <time>2026-08-28T19:09:36Z</time>
  <course>163.19</course>
  <speed>12.93170135751673</speed>
  <fix>3d</fix>
</trkpt>
<trkpt lat="-35.3672511" lon="149.1638609">
  <ele>611.49</ele>
  <time>2026-08-28T19:09:36Z</time>
  <course>163.41</course>
  <speed>12.94</speed>
  <fix>3d</fix>
</trkpt>
<trkpt lat="-35.367287" lon="149.1638738">
  <ele>611.54</ele>
  <time>2026-08-28T19:09:36Z</time>
  <course>163.16</course>
  <speed>12.93170135751673</speed>
  <fix>3d</fix>
</trkpt>
<trkpt lat="-35.3672734" lon="149.1638691">
  <ele>611.44</ele>
  <time>2026-08-28T19:09:36Z</time>
  <course>163.41</course>
  <speed>12.93</speed>
  <fix>3d</fix>
</trkpt>
<trkpt lat="-35.3673093" lon="149.163882">
  <ele>611.5</ele>
  <time>2026-08-28T19:09:36Z</time>
  <course>163.13</course>
  <speed>12.93170135751673</speed>
  <fix>3d</fix>
</trkpt>
<trkpt lat="-35.3672957" lon="149.1638772">
  <ele>611.41</ele>
  <time>2026-08-28T19:09:36Z</time>
  <course>163.41</course>
  <speed>12.93</speed>
  <fix>3d</fix>
</trkpt>
<trkpt lat="-35.3673316" lon="149.1638901">
  <ele>611.45</ele>
  <time>2026-08-28T19:09:36Z</time>
  <course>163.08</course>
  <speed>12.922112830338545</speed>
  <fix>3d</fix>
</trkpt>
<trkpt lat="-35.3673179" lon="149.1638853">
  <ele>611.37</ele>
  <time>2026-08-28T19:09:36Z</time>
  <course>163.4</course>
  <speed>12.93</speed>
  <fix>3d</fix>
</trkpt>
<trkpt lat="-35.3673538" lon="149.1638982">
  <ele>611.41</ele>
  <time>2026-08-28T19:09:36Z</time>
  <course>163.01</course>
  <speed>12.934542898765306</speed>
  <fix>3d</fix>
</trkpt>
<trkpt lat="-35.3673402" lon="149.1638934">
  <ele>611.32</ele>
  <time>2026-08-28T19:09:36Z</time>
  <course>163.38</course>
  <speed>12.93</speed>
  <fix>3d</fix>
</trkpt>
<trkpt lat="-35.367376" lon="149.1639064">
  <ele>611.37</ele>
  <time>2026-08-28T19:09:36Z</time>
  <course>162.99</course>
  <speed>12.934542898765306</speed>
  <fix>3d</fix>
</trkpt>
<trkpt lat="-35.3673626" lon="149.1639017">
  <ele>611.28</ele>
  <time>2026-08-28T19:09:36Z</time>
  <course>163.37</course>
  <speed>12.94</speed>
  <fix>3d</fix>
</trkpt>
<trkpt lat="-35.3673983" lon="149.1639145">
  <ele>611.33</ele>
  <time>2026-08-28T19:09:36Z</time>
  <course>162.95</course>
  <speed>12.937391545439134</speed>
  <fix>3d</fix>
</trkpt>
<trkpt lat="-35.3673848" lon="149.1639099">
  <ele>611.24</ele>
  <time>2026-08-28T19:09:36Z</time>
  <course>163.35</course>
  <speed>12.95</speed>
  <fix>3d</fix>
</trkpt>
<trkpt lat="-35.3674205" lon="149.1639227">
  <ele>611.28</ele>
  <time>2026-08-28T19:09:36Z</time>
  <course>162.87</course>
  <speed>12.949830114715791</speed>
  <fix>3d</fix>
</trkpt>
<trkpt lat="-35.3674071" lon="149.163918">
  <ele>611.19</ele>
  <time>2026-08-28T19:09:36Z</time>
  <course>163.33</course>
  <speed>12.96</speed>
  <fix>3d</fix>
</trkpt>
<trkpt lat="-35.3674428" lon="149.1639309">
  <ele>611.24</ele>
  <time>2026-08-28T19:09:36Z</time>
  <course>162.8</course>
  <speed>12.959413566979023</speed>
  <fix>3d</fix>
</trkpt>
<trkpt lat="-35.3674295" lon="149.1639262">
  <ele>611.15</ele>
  <time>2026-08-28T19:09:36Z</time>
  <course>163.32</course>
  <speed>12.97</speed>
  <fix>3d</fix>
</trkpt>
<trkpt lat="-35.3674651" lon="149.1639391">
  <ele>611.19</ele>
  <time>2026-08-28T19:09:36Z</time>
  <course>162.75</course>
  <speed>12.981436746369795</speed>
  <fix>3d</fix>
</trkpt>
<trkpt lat="-35.3674518" lon="149.1639344">
  <ele>611.1</ele>
  <time>2026-08-28T19:09:36Z</time>
  <course>163.3</course>
  <speed>12.99</speed>
  <fix>3d</fix>
</trkpt>
<trkpt lat="-35.3674874" lon="149.1639473">
  <ele>611.15</ele>
  <time>2026-08-28T19:09:36Z</time>
  <course>162.73</course>
  <speed>12.99387932836072</speed>
  <fix>3d</fix>
</trkpt>
<trkpt lat="-35.3674742" lon="149.1639427">
  <ele>611.06</ele>
  <time>2026-08-28T19:09:36Z</time>
  <course>163.28</course>
  <speed>13.01</speed>
  <fix>3d</fix>
</trkpt>
<trkpt lat="-35.3675097" lon="149.1639555">
  <ele>611.12</ele>
  <time>2026-08-28T19:09:36Z</time>
  <course>162.75</course>
  <speed>13.003461077728497</speed>
  <fix>3d</fix>
</trkpt>
<trkpt lat="-35.3674965" lon="149.1639509">
  <ele>611.02</ele>
  <time>2026-08-28T19:09:36Z</time>
  <course>163.27</course>
  <speed>13.02</speed>
  <fix>3d</fix>
</trkpt>
<trkpt lat="-35.3675321" lon="149.1639638">
  <ele>611.07</ele>
  <time>2026-08-28T19:09:36Z</time>
  <course>162.73</course>
  <speed>13.013043456470896</speed>
  <fix>3d</fix>
</trkpt>
<trkpt lat="-35.367519" lon="149.1639592">
  <ele>610.98</ele>
  <time>2026-08-28T19:09:36Z</time>
  <course>163.27</course>
  <speed>13.04</speed>
  <fix>3d</fix>
</trkpt>
<trkpt lat="-35.3675546" lon="149.1639721">
  <ele>611.03</ele>
  <time>2026-08-28T19:09:36Z</time>
  <course>162.72</course>
  <speed>13.025486555211671</speed>
  <fix>3d</fix>
</trkpt>
<trkpt lat="-35.3675414" lon="149.1639674">
  <ele>610.94</ele>
  <time>2026-08-28T19:09:36Z</time>
  <course>163.27</course>
  <speed>13.05</speed>
  <fix>3d</fix>
</trkpt>
<trkpt lat="-35.3675771" lon="149.1639804">
  <ele>610.99</ele>
  <time>2026-08-28T19:09:36Z</time>
  <course>162.71</course>
  <speed>13.0350680857447</speed>
  <fix>3d</fix>
</trkpt>
<trkpt lat="-35.3675639" lon="149.1639757">
  <ele>610.89</ele>
  <time>2026-08-28T19:09:36Z</time>
  <course>163.28</course>
  <speed>13.06</speed>
  <fix>3d</fix>
</trkpt>
<trkpt lat="-35.3675996" lon="149.1639886">
  <ele>610.97</ele>
  <time>2026-08-28T19:09:36Z</time>
  <course>162.86</course>
  <speed>13.013043456470896</speed>
  <fix>3d</fix>
</trkpt>
<trkpt lat="-35.3675864" lon="149.163984">
  <ele>610.85</ele>
  <time>2026-08-28T19:09:36Z</time>
  <course>163.29</course>
  <speed>13.06</speed>
  <fix>3d</fix>
</trkpt>
<trkpt lat="-35.367622" lon="149.1639969">
  <ele>610.95</ele>
  <time>2026-08-28T19:09:36Z</time>
  <course>163.28</course>
  <speed>12.937391545439134</speed>
  <fix>3d</fix>
</trkpt>
<trkpt lat="-35.3676088" lon="149.1639923">
  <ele>610.82</ele>
  <time>2026-08-28T19:09:36Z</time>
  <course>163.31</course>
  <speed>13.02</speed>
  <fix>3d</fix>
</trkpt>
<trkpt lat="-35.3676444" lon="149.1640051">
  <ele>610.94</ele>
  <time>2026-08-28T19:09:36Z</time>
  <course>163.98</course>
  <speed>12.798535072421375</speed>
  <fix>3d</fix>
</trkpt>
<trkpt lat="-35.3676312" lon="149.1640004">
  <ele>610.8</ele>
  <time>2026-08-28T19:09:36Z</time>
  <course>163.34</course>
  <speed>12.92</speed>
  <fix>3d</fix>
</trkpt>
<trkpt lat="-35.3676663" lon="149.1640131">
  <ele>610.95</ele>
  <time>2026-08-28T19:09:36Z</time>
  <course>164.8</course>
  <speed>12.593649193144932</speed>
  <fix>3d</fix>
</trkpt>
<trkpt lat="-35.3676533" lon="149.1640086">
  <ele>610.8</ele>
  <time>2026-08-28T19:09:36Z</time>
  <course>163.41</course>
  <speed>12.77</speed>
  <fix>3d</fix>
</trkpt>
<trkpt lat="-35.3676879" lon="149.1640209">
  <ele>610.95</ele>
  <time>2026-08-28T19:09:36Z</time>
  <course>165.64</course>
  <speed>12.344800524917364</speed>
  <fix>3d</fix>
</trkpt>
<trkpt lat="-35.3676751" lon="149.1640165">
  <ele>610.8</ele>
  <time>2026-08-28T19:09:36Z</time>
  <course>163.53</course>
  <speed>12.55</speed>
  <fix>3d</fix>
</trkpt>
<trkpt lat="-35.367709" lon="149.1640285">
  <ele>610.94</ele>
  <time>2026-08-28T19:09:36Z</time>
  <course>166.42</course>
  <speed>12.042445764876835</speed>
  <fix>3d</fix>
</trkpt>
<trkpt lat="-35.3676966" lon="149.1640243">
  <ele>610.8</ele>
  <time>2026-08-28T19:09:36Z</time>
  <course>163.7</course>
  <speed>12.28</speed>
  <fix>3d</fix>
</trkpt>
<trkpt lat="-35.3677296" lon="149.1640358">
  <ele>610.93</ele>
  <time>2026-08-28T19:09:36Z</time>
  <course>167.11</course>
  <speed>11.698999957261304</speed>
  <fix>3d</fix>
</trkpt>
<trkpt lat="-35.3677175" lon="149.1640317">
  <ele>610.79</ele>
  <time>2026-08-28T19:09:36Z</time>
  <course>163.9</course>
  <speed>11.96</speed>
  <fix>3d</fix>
</trkpt>
<trkpt lat="-35.3677496" lon="149.1640427">
  <ele>610.91</ele>
  <time>2026-08-28T19:09:36Z</time>
  <course>167.72</course>
  <speed>11.314459774995887</speed>
  <fix>3d</fix>
</trkpt>
<trkpt lat="-35.3677378" lon="149.1640388">
  <ele>610.78</ele>
  <time>2026-08-28T19:09:36Z</time>
  <course>164.1</course>
  <speed>11.61</speed>
  <fix>3d</fix>
</trkpt>
<trkpt lat="-35.3677689" lon="149.1640494">
  <ele>610.88</ele>
  <time>2026-08-28T19:09:36Z</time>
  <course>168.23</course>
  <speed>10.87919114640422</speed>
  <fix>3d</fix>
</trkpt>
<trkpt lat="-35.3677576" lon="149.1640457">
  <ele>610.75</ele>
  <time>2026-08-28T19:09:36Z</time>
  <course>164.3</course>
  <speed>11.2</speed>
  <fix>3d</fix>
</trkpt>
<trkpt lat="-35.3677875" lon="149.1640558">
  <ele>610.84</ele>
  <time>2026-08-28T19:09:36Z</time>
  <course>168.65</course>
  <speed>10.395830895123295</speed>
  <fix>3d</fix>
</trkpt>
<trkpt lat="-35.3677766" lon="149.1640522">
  <ele>610.72</ele>
  <time>2026-08-28T19:09:36Z</time>
  <course>164.47</course>
  <speed>10.75</speed>
  <fix>3d</fix>
</trkpt>
<trkpt lat="-35.3678051" lon="149.1640617">
  <ele>610.8</ele>
  <time>2026-08-28T19:09:36Z</time>
  <course>169.0</course>
  <speed>9.883587405390818</speed>
  <fix>3d</fix>
</trkpt>
<trkpt lat="-35.3677948" lon="149.1640583">
  <ele>610.69</ele>
  <time>2026-08-28T19:09:36Z</time>
  <course>164.6</course>
  <speed>10.26</speed>
  <fix>3d</fix>
</trkpt>
<trkpt lat="-35.3678218" lon="149.1640674">
  <ele>610.76</ele>
  <time>2026-08-28T19:09:36Z</time>
  <course>169.22</course>
  <speed>9.323143246781099</speed>
  <fix>3d</fix>
</trkpt>
<trkpt lat="-35.3678122" lon="149.1640642">
  <ele>610.64</ele>
  <time>2026-08-28T19:09:36Z</time>
  <course>164.7</course>
  <speed>9.72</speed>
  <fix>3d</fix>
</trkpt>
<trkpt lat="-35.3678377" lon="149.1640727">
  <ele>610.71</ele>
  <time>2026-08-28T19:09:36Z</time>
  <course>169.34</course>
  <speed>8.740766556772924</speed>
  <fix>3d</fix>
</trkpt>
<trkpt lat="-35.3678285" lon="149.1640697">
  <ele>610.6</ele>
  <time>2026-08-28T19:09:36Z</time>
  <course>164.75</course>
  <speed>9.16</speed>
  <fix>3d</fix>
</trkpt>
<trkpt lat="-35.3678524" lon="149.1640777">
  <ele>610.65</ele>
  <time>2026-08-28T19:09:36Z</time>
  <course>169.25</course>
  <speed>8.173328575311285</speed>
  <fix>3d</fix>
</trkpt>
<trkpt lat="-35.3678439" lon="149.1640748">
  <ele>610.55</ele>
  <time>2026-08-28T19:09:36Z</time>
  <course>164.75</course>
  <speed>8.57</speed>
  <fix>3d</fix>
</trkpt>
<trkpt lat="-35.3678662" lon="149.1640823">
  <ele>610.58</ele>
  <time>2026-08-28T19:09:36Z</time>
  <course>168.98</course>
  <speed>7.605905600255633</speed>
  <fix>3d</fix>
</trkpt>
<trkpt lat="-35.3678582" lon="149.1640796">
  <ele>610.49</ele>
  <time>2026-08-28T19:09:36Z</time>
  <course>164.71</course>
  <speed>7.99</speed>
  <fix>3d</fix>
</trkpt>
<trkpt lat="-35.367879" lon="149.1640866">
  <ele>610.52</ele>
  <time>2026-08-28T19:09:36Z</time>
  <course>168.56</course>
  <speed>7.053523941973969</speed>
  <fix>3d</fix>
</trkpt>
<trkpt lat="-35.3678716" lon="149.1640841">
  <ele>610.42</ele>
  <time>2026-08-28T19:09:36Z</time>
  <course>164.6</course>
  <speed>7.42</speed>
  <fix>3d</fix>
</trkpt>
<trkpt lat="-35.3678908" lon="149.1640907">
  <ele>610.45</ele>
  <time>2026-08-28T19:09:36Z</time>
  <course>168.0</course>
  <speed>6.510890876062968</speed>
  <fix>3d</fix>
</trkpt>
<trkpt lat="-35.367884" lon="149.1640883">
  <ele>610.35</ele>
  <time>2026-08-28T19:09:36Z</time>
  <course>164.39</course>
  <speed>6.87</speed>
  <fix>3d</fix>
</trkpt>
<trkpt lat="-35.3679017" lon="149.1640945">
  <ele>610.39</ele>
  <time>2026-08-28T19:09:36Z</time>
  <course>167.32</course>
  <speed>5.993212827857859</speed>
  <fix>3d</fix>
</trkpt>
<trkpt lat="-35.3678954" lon="149.1640923">
  <ele>610.29</ele>
  <time>2026-08-28T19:09:36Z</time>
  <course>164.07</course>
  <speed>6.34</speed>
  <fix>3d</fix>
</trkpt>
<trkpt lat="-35.3679116" lon="149.1640982">
  <ele>610.34</ele>
  <time>2026-08-28T19:09:36Z</time>
  <course>166.44</course>
  <speed>5.4883968515405295</speed>
  <fix>3d</fix>
</trkpt>
<trkpt lat="-35.3679058" lon="149.1640959">
  <ele>610.23</ele>
  <time>2026-08-28T19:09:36Z</time>
  <course>163.6</course>
  <speed>5.82</speed>
  <fix>3d</fix>
</trkpt>
<trkpt lat="-35.3679207" lon="149.1641016">
  <ele>610.3</ele>
  <time>2026-08-28T19:09:36Z</time>
  <course>165.32</course>
  <speed>4.993405651456729</speed>
  <fix>3d</fix>
</trkpt>
<trkpt lat="-35.3679154" lon="149.1640995">
  <ele>610.18</ele>
  <time>2026-08-28T19:09:36Z</time>
  <course>162.91</course>
  <speed>5.31</speed>
  <fix>3d</fix>
</trkpt>
<trkpt lat="-35.3679288" lon="149.1641049">
  <ele>610.27</ele>
  <time>2026-08-28T19:09:36Z</time>
  <course>163.74</course>
  <speed>4.5069390943299865</speed>
  <fix>3d</fix>
</trkpt>
<trkpt lat="-35.3679241" lon="149.1641029">
  <ele>610.14</ele>
  <time>2026-08-28T19:09:36Z</time>
  <course>161.79</course>
  <speed>4.81</speed>
  <fix>3d</fix>
</trkpt>
<trkpt lat="-35.367936" lon="149.1641082">
  <ele>610.24</ele>
  <time>2026-08-28T19:09:36Z</time>
  <course>161.31</course>
  <speed>4.011034779205985</speed>
  <fix>3d</fix>
</trkpt>
<trkpt lat="-35.3679319" lon="149.1641062">
  <ele>610.11</ele>
  <time>2026-08-28T19:09:36Z</time>
  <course>159.92</course>
  <speed>4.31</speed>
  <fix>3d</fix>
</trkpt>
<trkpt lat="-35.3679422" lon="149.1641115">
  <ele>610.23</ele>
  <time>2026-08-28T19:09:36Z</time>
  <course>157.68</course>
  <speed>3.5152809276073516</speed>
  <fix>3d</fix>
</trkpt>
<trkpt lat="-35.3679387" lon="149.1641094">
  <ele>610.08</ele>
  <time>2026-08-28T19:09:36Z</time>
  <course>156.95</course>
  <speed>3.81</speed>
  <fix>3d</fix>
</trkpt>
<trkpt lat="-35.3679474" lon="149.1641149">
  <ele>610.21</ele>
  <time>2026-08-28T19:09:36Z</time>
  <course>152.43</course>
  <speed>3.032655601943617</speed>
  <fix>3d</fix>
</trkpt>
<trkpt lat="-35.3679445" lon="149.1641128">
  <ele>610.07</ele>
  <time>2026-08-28T19:09:36Z</time>
  <course>152.37</course>
  <speed>3.32</speed>
  <fix>3d</fix>
</trkpt>
<trkpt lat="-35.3679515" lon="149.1641185">
  <ele>610.2</ele>
  <time>2026-08-28T19:09:36Z</time>
  <course>144.97</course>
  <speed>2.5804263213662972</speed>
  <fix>3d</fix>
</trkpt>
<trkpt lat="-35.3679492" lon="149.1641163">
  <ele>610.05</ele>
  <time>2026-08-28T19:09:36Z</time>
  <course>145.45</course>
  <speed>2.84</speed>
  <fix>3d</fix>
</trkpt>
<trkpt lat="-35.3679544" lon="149.1641223">
  <ele>610.18</ele>
  <time>2026-08-28T19:09:36Z</time>
  <course>134.6</course>
  <speed>2.220360331117452</speed>
  <fix>3d</fix>
</trkpt>
<trkpt lat="-35.3679529" lon="149.1641199">
  <ele>610.04</ele>
  <time>2026-08-28T19:09:36Z</time>
  <course>135.09</course>
  <speed>2.41</speed>
  <fix>3d</fix>
</trkpt>
<trkpt lat="-35.3679562" lon="149.1641264">
  <ele>610.17</ele>
  <time>2026-08-28T19:09:36Z</time>
  <course>122.37</course>
  <speed>2.042841158778626</speed>
  <fix>3d</fix>
</trkpt>
<trkpt lat="-35.3679554" lon="149.1641238">
  <ele>610.02</ele>
  <time>2026-08-28T19:09:36Z</time>
  <course>120.08</course>
  <speed>2.11</speed>
  <fix>3d</fix>
</trkpt>
<trkpt lat="-35.3679568" lon="149.1641308">
  <ele>610.15</ele>
  <time>2026-08-28T19:09:36Z</time>
  <course>110.8</course>
  <speed>2.11</speed>
  <fix>3d</fix>
</trkpt>
<trkpt lat="-35.3679567" lon="149.164128">
  <ele>610.0</ele>
  <time>2026-08-28T19:09:36Z</time>
  <course>101.33</course>
  <speed>2.01</speed>
  <fix>3d</fix>
</trkpt>
<trkpt lat="-35.3679562" lon="149.1641356">
  <ele>610.13</ele>
  <time>2026-08-28T19:09:36Z</time>
  <course>99.42</course>
  <speed>2.3891839611047114</speed>
  <fix>3d</fix>
</trkpt>
<trkpt lat="-35.3679568" lon="149.1641325">
  <ele>609.98</ele>
  <time>2026-08-28T19:09:36Z</time>
  <course>83.48</course>
  <speed>2.17</speed>
  <fix>3d</fix>
</trkpt>
<trkpt lat="-35.3679547" lon="149.1641409">
  <ele>610.11</ele>
  <time>2026-08-28T19:09:36Z</time>
  <course>87.8</course>
  <speed>2.836353292521931</speed>
  <fix>3d</fix>
</trkpt>
<trkpt lat="-35.3679559" lon="149.1641375">
  <ele>609.95</ele>
  <time>2026-08-28T19:09:36Z</time>
  <course>70.23</course>
  <speed>2.52</speed>
  <fix>3d</fix>
</trkpt>
<trkpt lat="-35.367952" lon="149.1641469">
  <ele>610.09</ele>
  <time>2026-08-28T19:09:36Z</time>
  <course>75.73</course>
  <speed>3.3581542549442247</speed>
  <fix>3d</fix>
</trkpt>
<trkpt lat="-35.3679538" lon="149.1641431">
  <ele>609.94</ele>
  <time>2026-08-28T19:09:36Z</time>
  <course>61.55</course>
  <speed>3.01</speed>
  <fix>3d</fix>
</trkpt>
<trkpt lat="-35.3679484" lon="149.1641535">
  <ele>610.08</ele>
  <time>2026-08-28T19:09:36Z</time>
  <course>63.09</course>
  <speed>3.924589150471677</speed>
  <fix>3d</fix>
</trkpt>
<trkpt lat="-35.3679507" lon="149.1641492">
  <ele>609.92</ele>
  <time>2026-08-28T19:09:36Z</time>
  <course>56.0</course>
  <speed>3.56</speed>
  <fix>3d</fix>
</trkpt>
<trkpt lat="-35.3679437" lon="149.1641608">
  <ele>610.07</ele>
  <time>2026-08-28T19:09:36Z</time>
  <course>50.4</course>
  <speed>4.486925450684466</speed>
  <fix>3d</fix>
</trkpt>
<trkpt lat="-35.3679467" lon="149.1641561">
  <ele>609.9</ele>
  <time>2026-08-28T19:09:36Z</time>
  <course>52.36</course>
  <speed>4.14</speed>
  <fix>3d</fix>
</trkpt>
<trkpt lat="-35.3679382" lon="149.1641687">
  <ele>610.06</ele>
  <time>2026-08-28T19:09:36Z</time>
  <course>46.03</course>
  <speed>5.010279433325052</speed>
  <fix>3d</fix>
</trkpt>
<trkpt lat="-35.3679417" lon="149.1641637">
  <ele>609.89</ele>
  <time>2026-08-28T19:09:36Z</time>
  <course>49.65</course>
  <speed>4.7</speed>
  <fix>3d</fix>
</trkpt>
<trkpt lat="-35.3679319" lon="149.1641774">
  <ele>610.07</ele>
  <time>2026-08-28T19:09:36Z</time>
  <course>44.9</course>
  <speed>5.494433546781688</speed>
  <fix>3d</fix>
</trkpt>
<trkpt lat="-35.3679358" lon="149.1641719">
  <ele>609.89</ele>
  <time>2026-08-28T19:09:36Z</time>
  <course>48.01</course>
  <speed>5.22</speed>
  <fix>3d</fix>
</trkpt>
<trkpt lat="-35.3679249" lon="149.1641867">
  <ele>610.08</ele>
  <time>2026-08-28T19:09:36Z</time>
  <course>44.49</course>
  <speed>5.940412443593458</speed>
  <fix>3d</fix>
</trkpt>
<trkpt lat="-35.3679292" lon="149.1641808">
  <ele>609.89</ele>
  <time>2026-08-28T19:09:36Z</time>
  <course>47.53</course>
  <speed>5.7</speed>
  <fix>3d</fix>
</trkpt>
<trkpt lat="-35.3679175" lon="149.1641968">
  <ele>610.09</ele>
  <time>2026-08-28T19:09:36Z</time>
  <course>44.59</course>
  <speed>6.375405869432941</speed>
  <fix>3d</fix>
</trkpt>
<trkpt lat="-35.367922" lon="149.1641905">
  <ele>609.9</ele>
  <time>2026-08-28T19:09:36Z</time>
  <course>47.73</course>
  <speed>6.15</speed>
  <fix>3d</fix>
</trkpt>
<trkpt lat="-35.3679097" lon="149.1642077">
  <ele>610.11</ele>
  <time>2026-08-28T19:09:36Z</time>
  <course>45.08</course>
  <speed>6.7986836961282435</speed>
  <fix>3d</fix>
</trkpt>
<trkpt lat="-35.3679143" lon="149.1642009">
  <ele>609.91</ele>
  <time>2026-08-28T19:09:36Z</time>
  <course>48.34</course>
  <speed>6.59</speed>
  <fix>3d</fix>
</trkpt>
<trkpt lat="-35.3679014" lon="149.1642195">
  <ele>610.12</ele>
  <time>2026-08-28T19:09:36Z</time>
  <course>45.92</course>
  <speed>7.226423735154201</speed>
  <fix>3d</fix>
</trkpt>
<trkpt lat="-35.3679063" lon="149.1642122">
  <ele>609.92</ele>
  <time>2026-08-28T19:09:36Z</time>
  <course>49.21</course>
  <speed>7.01</speed>
  <fix>3d</fix>
</trkpt>
<trkpt lat="-35.3678928" lon="149.1642322">
  <ele>610.12</ele>
  <time>2026-08-28T19:09:36Z</time>
  <course>46.75</course>
  <speed>7.6636414321130655</speed>
  <fix>3d</fix>
</trkpt>
<trkpt lat="-35.3678978" lon="149.1642244">
  <ele>609.93</ele>
  <time>2026-08-28T19:09:36Z</time>
  <course>50.17</course>
  <speed>7.44</speed>
  <fix>3d</fix>
</trkpt>
<trkpt lat="-35.3678838" lon="149.1642458">
  <ele>610.11</ele>
  <time>2026-08-28T19:09:36Z</time>
  <course>47.33</course>
  <speed>8.116514030050093</speed>
  <fix>3d</fix>
</trkpt>
<trkpt lat="-35.3678891" lon="149.1642374">
  <ele>609.93</ele>
  <time>2026-08-28T19:09:36Z</time>
  <course>51.07</course>
  <speed>7.89</speed>
  <fix>3d</fix>
</trkpt>
<trkpt lat="-35.3678745" lon="149.1642603">
  <ele>610.1</ele>
  <time>2026-08-28T19:09:36Z</time>
  <course>47.64</course>
  <speed>8.589045348582111</speed>
  <fix>3d</fix>
</trkpt>
<trkpt lat="-35.36788" lon="149.1642514">
  <ele>609.92</ele>
  <time>2026-08-28T19:09:36Z</time>
  <course>51.81</course>
  <speed>8.35</speed>
  <fix>3d</fix>
</trkpt>
<trkpt lat="-35.3678648" lon="149.1642757">
  <ele>610.09</ele>
  <time>2026-08-28T19:09:36Z</time>
  <course>47.7</course>
  <speed>9.066427080167799</speed>
  <fix>3d</fix>
</trkpt>
<trkpt lat="-35.3678705" lon="149.1642664">
  <ele>609.91</ele>
  <time>2026-08-28T19:09:36Z</time>
  <course>52.33</course>
  <speed>8.82</speed>
  <fix>3d</fix>
</trkpt>
<trkpt lat="-35.3678546" lon="149.1642921">
  <ele>610.08</ele>
  <time>2026-08-28T19:09:36Z</time>
  <course>47.54</course>
  <speed>9.54025680996062</speed>
  <fix>3d</fix>
</trkpt>
<trkpt lat="-35.3678606" lon="149.1642822">
  <ele>609.9</ele>
  <time>2026-08-28T19:09:36Z</time>
  <course>52.63</course>
  <speed>9.3</speed>
  <fix>3d</fix>
</trkpt>
<trkpt lat="-35.3678439" lon="149.1643092">
  <ele>610.08</ele>
  <time>2026-08-28T19:09:36Z</time>
  <course>47.14</course>
  <speed>10.032287874657506</speed>
  <fix>3d</fix>
</trkpt>
<trkpt lat="-35.3678503" lon="149.1642989">
  <ele>609.89</ele>
  <time>2026-08-28T19:09:36Z</time>
  <course>52.75</course>
  <speed>9.78</speed>
  <fix>3d</fix>
</trkpt>
<trkpt lat="-35.3678327" lon="149.1643272">
  <ele>610.07</ele>
  <time>2026-08-28T19:09:36Z</time>
  <course>46.61</course>
  <speed>10.50047617967871</speed>
  <fix>3d</fix>
</trkpt>
<trkpt lat="-35.3678393" lon="149.1643164">
  <ele>609.88</ele>
  <time>2026-08-28T19:09:36Z</time>
  <course>52.74</course>
  <speed>10.26</speed>
  <fix>3d</fix>
</trkpt>
<trkpt lat="-35.367821" lon="149.164346">
  <ele>610.07</ele>
  <time>2026-08-28T19:09:36Z</time>
  <course>46.13</course>
  <speed>10.952844379429482</speed>
  <fix>3d</fix>
</trkpt>
<trkpt lat="-35.3678279" lon="149.1643348">
  <ele>609.88</ele>
  <time>2026-08-28T19:09:36Z</time>
  <course>52.63</course>
  <speed>10.74</speed>
  <fix>3d</fix>
</trkpt>
<trkpt lat="-35.3678087" lon="149.1643655">
  <ele>610.08</ele>
  <time>2026-08-28T19:09:36Z</time>
  <course>45.87</course>
  <speed>11.367554706268185</speed>
  <fix>3d</fix>
</trkpt>
<trkpt lat="-35.367816" lon="149.164354">
  <ele>609.88</ele>
  <time>2026-08-28T19:09:36Z</time>
  <course>52.44</course>
  <speed>11.18</speed>
  <fix>3d</fix>
</trkpt>
<trkpt lat="-35.3677959" lon="149.1643856">
  <ele>610.1</ele>
  <time>2026-08-28T19:09:36Z</time>
  <course>45.93</course>
  <speed>11.710542259007479</speed>
  <fix>3d</fix>
</trkpt>
<trkpt lat="-35.3678034" lon="149.1643739">
  <ele>609.9</ele>
  <time>2026-08-28T19:09:36Z</time>
  <course>52.23</course>
  <speed>11.57</speed>
  <fix>3d</fix>
</trkpt>
<trkpt lat="-35.3677827" lon="149.1644063">
  <ele>610.13</ele>
  <time>2026-08-28T19:09:36Z</time>
  <course>46.21</course>
  <speed>12.005407115129415</speed>
  <fix>3d</fix>
</trkpt>
<trkpt lat="-35.3677905" lon="149.1643943">
  <ele>609.92</ele>
  <time>2026-08-28T19:09:36Z</time>
  <course>52.03</course>
  <speed>11.91</speed>
  <fix>3d</fix>
</trkpt>
<trkpt lat="-35.3677691" lon="149.1644275">
  <ele>610.16</ele>
  <time>2026-08-28T19:09:36Z</time>
  <course>46.63</course>
  <speed>12.258229888527952</speed>
  <fix>3d</fix>
</trkpt>
<trkpt lat="-35.3677771" lon="149.1644153">
  <ele>609.95</ele>
  <time>2026-08-28T19:09:36Z</time>
  <course>51.87</course>
  <speed>12.19</speed>
  <fix>3d</fix>
</trkpt>
<trkpt lat="-35.3677552" lon="149.1644491">
  <ele>610.19</ele>
  <time>2026-08-28T19:09:36Z</time>
  <course>47.11</course>
  <speed>12.47058138179612</speed>
  <fix>3d</fix>
</trkpt>
<trkpt lat="-35.3677634" lon="149.1644366">
  <ele>609.98</ele>
  <time>2026-08-28T19:09:36Z</time>
  <course>51.76</course>
  <speed>12.42</speed>
  <fix>3d</fix>
</trkpt>
<trkpt lat="-35.3677412" lon="149.1644709">
  <ele>610.22</ele>
  <time>2026-08-28T19:09:36Z</time>
  <course>47.61</course>
  <speed>12.632960856426335</speed>
  <fix>3d</fix>
</trkpt>
<trkpt lat="-35.3677495" lon="149.1644583">
  <ele>610.01</ele>
  <time>2026-08-28T19:09:36Z</time>
  <course>51.7</course>
  <speed>12.61</speed>
  <fix>3d</fix>
</trkpt>
<trkpt lat="-35.3677269" lon="149.164493">
  <ele>610.24</ele>
  <time>2026-08-28T19:09:36Z</time>
  <course>48.16</course>
  <speed>12.761022686289685</speed>
  <fix>3d</fix>
</trkpt>
<trkpt lat="-35.3677354" lon="149.1644802">
  <ele>610.04</ele>
  <time>2026-08-28T19:09:36Z</time>
  <course>51.66</course>
  <speed>12.76</speed>
  <fix>3d</fix>
</trkpt>
<trkpt lat="-35.3677125" lon="149.1645154">
  <ele>610.27</ele>
  <time>2026-08-28T19:09:36Z</time>
  <course>48.73</course>
  <speed>12.839104330131445</speed>
  <fix>3d</fix>
</trkpt>
<trkpt lat="-35.3677211" lon="149.1645024">
  <ele>610.07</ele>
  <time>2026-08-28T19:09:36Z</time>
  <course>51.65</course>
  <speed>12.86</speed>
  <fix>3d</fix>
</trkpt>
<trkpt lat="-35.3676981" lon="149.1645377">
  <ele>610.29</ele>
  <time>2026-08-28T19:09:36Z</time>
  <course>49.31</course>
  <speed>12.882864588281597</speed>
  <fix>3d</fix>
</trkpt>
<trkpt lat="-35.3677067" lon="149.1645247">
  <ele>610.1</ele>
  <time>2026-08-28T19:09:36Z</time>
  <course>51.65</course>
  <speed>12.93</speed>
  <fix>3d</fix>
</trkpt>
<trkpt lat="-35.3676837" lon="149.1645601">
  <ele>610.32</ele>
  <time>2026-08-28T19:09:36Z</time>
  <course>49.88</course>
  <speed>12.89069819676188</speed>
  <fix>3d</fix>
</trkpt>
<trkpt lat="-35.3676923" lon="149.1645471">
  <ele>610.12</ele>
  <time>2026-08-28T19:09:36Z</time>
  <course>51.67</course>
  <speed>12.95</speed>
  <fix>3d</fix>
</trkpt>
<trkpt lat="-35.3676693" lon="149.1645824">
  <ele>610.34</ele>
  <time>2026-08-28T19:09:36Z</time>
  <course>50.46</course>
  <speed>12.862600825649531</speed>
  <fix>3d</fix>
</trkpt>
<trkpt lat="-35.3676778" lon="149.1645694">
  <ele>610.15</ele>
  <time>2026-08-28T19:09:36Z</time>
  <course>51.69</course>
  <speed>12.95</speed>
  <fix>3d</fix>
</trkpt>
<trkpt lat="-35.3676549" lon="149.1646047">
  <ele>610.34</ele>
  <time>2026-08-28T19:09:36Z</time>
  <course>50.98</course>
  <speed>12.820456310131867</speed>
  <fix>3d</fix>
</trkpt>
<trkpt lat="-35.3676635" lon="149.1645917">
  <ele>610.16</ele>
  <time>2026-08-28T19:09:36Z</time>
  <course>51.72</course>
  <speed>12.91</speed>
  <fix>3d</fix>
</trkpt>
<trkpt lat="-35.3676406" lon="149.164627">
  <ele>610.34</ele>
  <time>2026-08-28T19:09:37Z</time>
  <course>51.29</course>
  <speed>12.764266528085347</speed>
  <fix>3d</fix>
</trkpt>
<trkpt lat="-35.3676491" lon="149.1646141">
  <ele>610.17</ele>
  <time>2026-08-28T19:09:37Z</time>
  <course>51.74</course>
  <speed>12.86</speed>
  <fix>3d</fix>
</trkpt>
<trkpt lat="-35.3676264" lon="149.1646491">
  <ele>610.33</ele>
  <time>2026-08-28T19:09:37Z</time>
  <course>51.36</course>
  <speed>12.736172894555098</speed>
  <fix>3d</fix>
</trkpt>
<trkpt lat="-35.3676349" lon="149.1646362">
  <ele>610.17</ele>
  <time>2026-08-28T19:09:37Z</time>
  <course>51.76</course>
  <speed>12.81</speed>
  <fix>3d</fix>
</trkpt>
<trkpt lat="-35.3676121" lon="149.1646713">
  <ele>610.31</ele>
  <time>2026-08-28T19:09:37Z</time>
  <course>51.22</course>
  <speed>12.72049134271157</speed>
  <fix>3d</fix>
</trkpt>
<trkpt lat="-35.3676207" lon="149.1646584">
  <ele>610.16</ele>
  <time>2026-08-28T19:09:37Z</time>
  <course>51.74</course>
  <speed>12.77</speed>
  <fix>3d</fix>
</trkpt>
<trkpt lat="-35.3675979" lon="149.1646933">
  <ele>610.28</ele>
  <time>2026-08-28T19:09:37Z</time>
  <course>50.94</course>
  <speed>12.725093319893572</speed>
  <fix>3d</fix>
</trkpt>
<trkpt lat="-35.3676064" lon="149.1646805">
  <ele>610.14</ele>
  <time>2026-08-28T19:09:37Z</time>
  <course>51.67</course>
  <speed>12.76</speed>
  <fix>3d</fix>
</trkpt>
<trkpt lat="-35.3675836" lon="149.1647154">
  <ele>610.25</ele>
  <time>2026-08-28T19:09:37Z</time>
  <course>50.58</course>
  <speed>12.75002745095084</speed>
  <fix>3d</fix>
</trkpt>
<trkpt lat="-35.3675921" lon="149.1647026">
  <ele>610.11</ele>
  <time>2026-08-28T19:09:37Z</time>
  <course>51.55</course>
  <speed>12.76</speed>
  <fix>3d</fix>
</trkpt>
<trkpt lat="-35.3675692" lon="149.1647376">
  <ele>610.23</ele>
  <time>2026-08-28T19:09:37Z</time>
  <course>50.2</course>
  <speed>12.781302750502391</speed>
  <fix>3d</fix>
</trkpt>
<trkpt lat="-35.3675778" lon="149.1647246">
  <ele>610.08</ele>
  <time>2026-08-28T19:09:37Z</time>
  <course>51.37</course>
  <speed>12.78</speed>
  <fix>3d</fix>
</trkpt>
<trkpt lat="-35.3675548" lon="149.1647595">
  <ele>610.21</ele>
  <time>2026-08-28T19:09:37Z</time>
  <course>49.87</course>
  <speed>12.811221643543602</speed>
  <fix>3d</fix>
</trkpt>
<trkpt lat="-35.3675635" lon="149.1647466">
  <ele>610.07</ele>
  <time>2026-08-28T19:09:37Z</time>
  <course>51.17</course>
  <speed>12.8</speed>
  <fix>3d</fix>
</trkpt>
<trkpt lat="-35.3675403" lon="149.1647815">
  <ele>610.2</ele>
  <time>2026-08-28T19:09:37Z</time>
  <course>49.6</course>
  <speed>12.835030190848792</speed>
  <fix>3d</fix>
</trkpt>
<trkpt lat="-35.367549" lon="149.1647686">
  <ele>610.05</ele>
  <time>2026-08-28T19:09:37Z</time>
  <course>50.95</course>
  <speed>12.83</speed>
  <fix>3d</fix>
</trkpt>
<trkpt lat="-35.3675257" lon="149.1648034">
  <ele>610.19</ele>
  <time>2026-08-28T19:09:37Z</time>
  <course>49.3</course>
  <speed>12.860373244972324</speed>
  <fix>3d</fix>
</trkpt>
<trkpt lat="-35.3675345" lon="149.1647905">
  <ele>610.05</ele>
  <time>2026-08-28T19:09:37Z</time>
  <course>50.75</course>
  <speed>12.85</speed>
  <fix>3d</fix>
</trkpt>
<trkpt lat="-35.367511" lon="149.1648252">
  <ele>610.19</ele>
  <time>2026-08-28T19:09:37Z</time>
  <course>49.06</course>
  <speed>12.89215653023186</speed>
  <fix>3d</fix>
</trkpt>
<trkpt lat="-35.3675198" lon="149.1648124">
  <ele>610.05</ele>
  <time>2026-08-28T19:09:37Z</time>
  <course>50.57</course>
  <speed>12.88</speed>
  <fix>3d</fix>
</trkpt>
<trkpt lat="-35.3674963" lon="149.1648471">
  <ele>610.19</ele>
  <time>2026-08-28T19:09:37Z</time>
  <course>48.83</course>
  <speed>12.931747755040693</speed>
  <fix>3d</fix>
</trkpt>
<trkpt lat="-35.3675051" lon="149.1648344">
  <ele>610.05</ele>
  <time>2026-08-28T19:09:37Z</time>
  <course>50.42</course>
  <speed>12.92</speed>
  <fix>3d</fix>
</trkpt>
<trkpt lat="-35.3674815" lon="149.1648691">
  <ele>610.2</ele>
  <time>2026-08-28T19:09:37Z</time>
  <course>48.67</course>
  <speed>12.972698254411068</speed>
  <fix>3d</fix>
</trkpt>
<trkpt lat="-35.3674902" lon="149.1648563">
  <ele>610.05</ele>
  <time>2026-08-28T19:09:37Z</time>
  <course>50.29</course>
  <speed>12.96</speed>
  <fix>3d</fix>
</trkpt>
<trkpt lat="-35.3674665" lon="149.1648912">
  <ele>610.2</ele>
  <time>2026-08-28T19:09:37Z</time>
  <course>48.53</course>
  <speed>13.00726719953119</speed>
  <fix>3d</fix>
</trkpt>
<trkpt lat="-35.3674753" lon="149.1648783">
  <ele>610.06</ele>
  <time>2026-08-28T19:09:37Z</time>
  <course>50.19</course>
  <speed>13.0</speed>
  <fix>3d</fix>
</trkpt>
<trkpt lat="-35.3674515" lon="149.1649132">
  <ele>610.2</ele>
  <time>2026-08-28T19:09:37Z</time>
  <course>48.49</course>
  <speed>13.04184419474485</speed>
  <fix>3d</fix>
</trkpt>
<trkpt lat="-35.3674603" lon="149.1649004">
  <ele>610.06</ele>
  <time>2026-08-28T19:09:37Z</time>
  <course>50.13</course>
  <speed>13.03</speed>
  <fix>3d</fix>
</trkpt>
<trkpt lat="-35.3674364" lon="149.1649353">
  <ele>610.21</ele>
  <time>2026-08-28T19:09:37Z</time>
  <course>48.54</course>
  <speed>13.077690927682914</speed>
  <fix>3d</fix>
</trkpt>
<trkpt lat="-35.3674452" lon="149.1649225">
  <ele>610.07</ele>
  <time>2026-08-28T19:09:37Z</time>
  <course>50.1</course>
  <speed>13.07</speed>
  <fix>3d</fix>
</trkpt>
<trkpt lat="-35.3674214" lon="149.1649575">
  <ele>610.22</ele>
  <time>2026-08-28T19:09:37Z</time>
  <course>48.67</course>
  <speed>13.093051592352335</speed>
  <fix>3d</fix>
</trkpt>
<trkpt lat="-35.3674301" lon="149.1649446">
  <ele>610.08</ele>
  <time>2026-08-28T19:09:37Z</time>
  <course>50.11</course>
  <speed>13.09</speed>
  <fix>3d</fix>
</trkpt>
<trkpt lat="-35.3674062" lon="149.1649798">
  <ele>610.23</ele>
  <time>2026-08-28T19:09:37Z</time>
  <course>48.83</course>
  <speed>13.108424771878582</speed>
  <fix>3d</fix>
</trkpt>
<trkpt lat="-35.3674151" lon="149.1649667">
  <ele>610.09</ele>
  <time>2026-08-28T19:09:37Z</time>
  <course>50.16</course>
  <speed>13.11</speed>
  <fix>3d</fix>
</trkpt>
<trkpt lat="-35.3673912" lon="149.165002">
  <ele>610.25</ele>
  <time>2026-08-28T19:09:37Z</time>
  <course>49.03</course>
  <speed>13.111048775746356</speed>
  <fix>3d</fix>
</trkpt>
<trkpt lat="-35.3674" lon="149.1649889">
  <ele>610.1</ele>
  <time>2026-08-28T19:09:37Z</time>
  <course>50.24</course>
  <speed>13.12</speed>
  <fix>3d</fix>
</trkpt>
<trkpt lat="-35.3673762" lon="149.1650242">
  <ele>610.25</ele>
  <time>2026-08-28T19:09:37Z</time>
  <course>49.25</course>
  <speed>13.113733259449806</speed>
  <fix>3d</fix>
</trkpt>
<trkpt lat="-35.3673849" lon="149.1650111">
  <ele>610.11</ele>
  <time>2026-08-28T19:09:37Z</time>
  <course>50.34</course>
  <speed>13.12</speed>
  <fix>3d</fix>
</trkpt>
<trkpt lat="-35.3673612" lon="149.1650465">
  <ele>610.26</ele>
  <time>2026-08-28T19:09:37Z</time>
  <course>49.45</course>
  <speed>13.116478185854616</speed>
  <fix>3d</fix>
</trkpt>
<trkpt lat="-35.3673699" lon="149.1650334">
  <ele>610.12</ele>
  <time>2026-08-28T19:09:37Z</time>
  <course>50.47</course>
  <speed>13.12</speed>
  <fix>3d</fix>
</trkpt>
<trkpt lat="-35.3673462" lon="149.1650689">
  <ele>610.26</ele>
  <time>2026-08-28T19:09:37Z</time>
  <course>49.66</course>
  <speed>13.112959238859853</speed>
  <fix>3d</fix>
</trkpt>
<trkpt lat="-35.3673549" lon="149.1650558">
  <ele>610.12</ele>
  <time>2026-08-28T19:09:37Z</time>
  <course>50.61</course>
  <speed>13.13</speed>
  <fix>3d</fix>
</trkpt>
<trkpt lat="-35.3673313" lon="149.1650913">
  <ele>610.26</ele>
  <time>2026-08-28T19:09:37Z</time>
  <course>49.85</course>
  <speed>13.115841566594192</speed>
  <fix>3d</fix>
</trkpt>
<trkpt lat="-35.36734" lon="149.1650781">
  <ele>610.12</ele>
  <time>2026-08-28T19:09:37Z</time>
  <course>50.74</course>
  <speed>13.12</speed>
  <fix>3d</fix>
</trkpt>
<trkpt lat="-35.3673164" lon="149.1651138">
  <ele>610.26</ele>
  <time>2026-08-28T19:09:37Z</time>
  <course>50.03</course>
  <speed>13.104720523536548</speed>
  <fix>3d</fix>
</trkpt>
<trkpt lat="-35.3673251" lon="149.1651006">
  <ele>610.12</ele>
  <time>2026-08-28T19:09:37Z</time>
  <course>50.88</course>
  <speed>13.12</speed>
  <fix>3d</fix>
</trkpt>
<trkpt lat="-35.3673016" lon="149.1651363">
  <ele>610.26</ele>
  <time>2026-08-28T19:09:37Z</time>
  <course>50.22</course>
  <speed>13.093666407847728</speed>
  <fix>3d</fix>
</trkpt>
<trkpt lat="-35.3673103" lon="149.165123">
  <ele>610.12</ele>
  <time>2026-08-28T19:09:37Z</time>
  <course>51.01</course>
  <speed>13.11</speed>
  <fix>3d</fix>
</trkpt>
<trkpt lat="-35.3672868" lon="149.1651588">
  <ele>610.26</ele>
  <time>2026-08-28T19:09:37Z</time>
  <course>50.41</course>
  <speed>13.088934257608601</speed>
  <fix>3d</fix>
</trkpt>
<trkpt lat="-35.3672954" lon="149.1651455">
  <ele>610.12</ele>
  <time>2026-08-28T19:09:37Z</time>
  <course>51.13</course>
  <speed>13.1</speed>
  <fix>3d</fix>
</trkpt>
<trkpt lat="-35.367272" lon="149.1651814">
  <ele>610.26</ele>
  <time>2026-08-28T19:09:37Z</time>
  <course>50.6</course>
  <speed>13.07018362533595</speed>
  <fix>3d</fix>
</trkpt>
<trkpt lat="-35.3672806" lon="149.165168">
  <ele>610.12</ele>
  <time>2026-08-28T19:09:37Z</time>
  <course>51.23</course>
  <speed>13.09</speed>
  <fix>3d</fix>
</trkpt>
<trkpt lat="-35.3672573" lon="149.165204">
  <ele>610.27</ele>
  <time>2026-08-28T19:09:37Z</time>
  <course>50.79</course>
  <speed>13.049888888415872</speed>
  <fix>3d</fix>
</trkpt>
<trkpt lat="-35.3672659" lon="149.1651905">
  <ele>610.12</ele>
  <time>2026-08-28T19:09:37Z</time>
  <course>51.31</course>
  <speed>13.07</speed>
  <fix>3d</fix>
</trkpt>
<trkpt lat="-35.3672426" lon="149.1652265">
  <ele>610.28</ele>
  <time>2026-08-28T19:09:37Z</time>
  <course>50.95</course>
  <speed>13.023371299321845</speed>
  <fix>3d</fix>
</trkpt>
<trkpt lat="-35.3672513" lon="149.165213">
  <ele>610.12</ele>
  <time>2026-08-28T19:09:37Z</time>
  <course>51.38</course>
  <speed>13.04</speed>
  <fix>3d</fix>
</trkpt>
<trkpt lat="-35.367228" lon="149.1652489">
  <ele>610.27</ele>
  <time>2026-08-28T19:09:37Z</time>
  <course>51.05</course>
  <speed>13.003095785235146</speed>
  <fix>3d</fix>
</trkpt>
<trkpt lat="-35.3672367" lon="149.1652353">
  <ele>610.12</ele>
  <time>2026-08-28T19:09:37Z</time>
  <course>51.44</course>
  <speed>13.01</speed>
  <fix>3d</fix>
</trkpt>
<trkpt lat="-35.3672134" lon="149.1652714">
  <ele>610.27</ele>
  <time>2026-08-28T19:09:37Z</time>
  <course>51.11</course>
  <speed>12.974995183043422</speed>
  <fix>3d</fix>
</trkpt>
<trkpt lat="-35.3672221" lon="149.1652578">
  <ele>610.12</ele>
  <time>2026-08-28T19:09:37Z</time>
  <course>51.47</course>
  <speed>12.99</speed>
  <fix>3d</fix>
</trkpt>
<trkpt lat="-35.3671989" lon="149.1652938">
  <ele>610.27</ele>
  <time>2026-08-28T19:09:37Z</time>
  <course>51.1</course>
  <speed>12.953115455364395</speed>
  <fix>3d</fix>
</trkpt>
<trkpt lat="-35.3672076" lon="149.1652801">
  <ele>610.11</ele>
  <time>2026-08-28T19:09:37Z</time>
  <course>51.49</course>
  <speed>12.96</speed>
  <fix>3d</fix>
</trkpt>
<trkpt lat="-35.3671844" lon="149.1653161">
  <ele>610.26</ele>
  <time>2026-08-28T19:09:37Z</time>
  <course>51.09</course>
  <speed>12.939064881203741</speed>
  <fix>3d</fix>
</trkpt>
<trkpt lat="-35.3671931" lon="149.1653025">
  <ele>610.1</ele>
  <time>2026-08-28T19:09:37Z</time>
  <course>51.48</course>
  <speed>12.94</speed>
  <fix>3d</fix>
</trkpt>
<trkpt lat="-35.3671699" lon="149.1653384">
  <ele>610.25</ele>
  <time>2026-08-28T19:09:37Z</time>
  <course>51.03</course>
  <speed>12.923412861933954</speed>
  <fix>3d</fix>
</trkpt>
<trkpt lat="-35.3671786" lon="149.1653248">
  <ele>610.1</ele>
  <time>2026-08-28T19:09:37Z</time>
  <course>51.46</course>
  <speed>12.93</speed>
  <fix>3d</fix>
</trkpt>
<trkpt lat="-35.3671554" lon="149.1653607">
  <ele>610.24</ele>
  <time>2026-08-28T19:09:37Z</time>
  <course>50.93</course>
  <speed>12.91559135308949</speed>
  <fix>3d</fix>
</trkpt>
<trkpt lat="-35.3671642" lon="149.1653471">
  <ele>610.09</ele>
  <time>2026-08-28T19:09:37Z</time>
  <course>51.41</course>
  <speed>12.92</speed>
  <fix>3d</fix>
</trkpt>
<trkpt lat="-35.367141" lon="149.1653829">
  <ele>610.24</ele>
  <time>2026-08-28T19:09:37Z</time>
  <course>50.8</course>
  <speed>12.90620006043607</speed>
  <fix>3d</fix>
</trkpt>
<trkpt lat="-35.3671497" lon="149.1653693">
  <ele>610.08</ele>
  <time>2026-08-28T19:09:37Z</time>
  <course>51.35</course>
  <speed>12.91</speed>
  <fix>3d</fix>
</trkpt>
<trkpt lat="-35.3671265" lon="149.165405">
  <ele>610.23</ele>
  <time>2026-08-28T19:09:37Z</time>
  <course>50.69</course>
  <speed>12.904642575445473</speed>
  <fix>3d</fix>
</trkpt>
<trkpt lat="-35.3671351" lon="149.1653916">
  <ele>610.08</ele>
  <time>2026-08-28T19:09:37Z</time>
  <course>51.27</course>
  <speed>12.9</speed>
  <fix>3d</fix>
</trkpt>
<trkpt lat="-35.3671119" lon="149.1654272">
  <ele>610.23</ele>
  <time>2026-08-28T19:09:37Z</time>
  <course>50.57</course>
  <speed>12.895305347295968</speed>
  <fix>3d</fix>
</trkpt>
<trkpt lat="-35.3671206" lon="149.1654138">
  <ele>610.07</ele>
  <time>2026-08-28T19:09:37Z</time>
  <course>51.19</course>
  <speed>12.9</speed>
  <fix>3d</fix>
</trkpt>
<trkpt lat="-35.3670974" lon="149.1654492">
  <ele>610.22</ele>
  <time>2026-08-28T19:09:37Z</time>
  <course>50.4</course>
  <speed>12.907846450899546</speed>
  <fix>3d</fix>
</trkpt>
<trkpt lat="-35.3671061" lon="149.1654359">
  <ele>610.07</ele>
  <time>2026-08-28T19:09:37Z</time>
  <course>51.11</course>
  <speed>12.91</speed>
  <fix>3d</fix>
</trkpt>
<trkpt lat="-35.3670829" lon="149.1654713">
  <ele>610.22</ele>
  <time>2026-08-28T19:09:37Z</time>
  <course>50.25</course>
  <speed>12.91262947660158</speed>
  <fix>3d</fix>
</trkpt>
<trkpt lat="-35.3670915" lon="149.165458">
  <ele>610.06</ele>
  <time>2026-08-28T19:09:37Z</time>
  <course>51.03</course>
  <speed>12.92</speed>
  <fix>3d</fix>
</trkpt>
<trkpt lat="-35.3670683" lon="149.1654933">
  <ele>610.22</ele>
  <time>2026-08-28T19:09:37Z</time>
  <course>50.1</course>
  <speed>12.911150219868096</speed>
  <fix>3d</fix>
</trkpt>
<trkpt lat="-35.3670769" lon="149.1654801">
  <ele>610.06</ele>
  <time>2026-08-28T19:09:37Z</time>
  <course>50.95</course>
  <speed>12.93</speed>
  <fix>3d</fix>
</trkpt>
<trkpt lat="-35.3670537" lon="149.1655153">
  <ele>610.23</ele>
  <time>2026-08-28T19:09:37Z</time>
  <course>50.11</course>
  <speed>12.895619411257453</speed>
  <fix>3d</fix>
</trkpt>
<trkpt lat="-35.3670623" lon="149.1655022">
  <ele>610.06</ele>
  <time>2026-08-28T19:09:37Z</time>
  <course>50.88</course>
  <speed>12.93</speed>
  <fix>3d</fix>
</trkpt>
<trkpt lat="-35.3670391" lon="149.1655373">
  <ele>610.25</ele>
  <time>2026-08-28T19:09:37Z</time>
  <course>50.4</course>
  <speed>12.830140295413765</speed>
  <fix>3d</fix>
</trkpt>
<trkpt lat="-35.3670476" lon="149.1655243">
  <ele>610.08</ele>
  <time>2026-08-28T19:09:37Z</time>
  <course>50.81</course>
  <speed>12.9</speed>
  <fix>3d</fix>
</trkpt>
<trkpt lat="-35.3670246" lon="149.165559">
  <ele>610.29</ele>
  <time>2026-08-28T19:09:37Z</time>
  <course>50.95</course>
  <speed>12.702082506423897</speed>
  <fix>3d</fix>
</trkpt>
<trkpt lat="-35.367033" lon="149.1655463">
  <ele>610.1</ele>
  <time>2026-08-28T19:09:37Z</time>
  <course>50.77</course>
  <speed>12.81</speed>
  <fix>3d</fix>
</trkpt>
<trkpt lat="-35.3670102" lon="149.1655807">
  <ele>610.33</ele>
  <time>2026-08-28T19:09:37Z</time>
  <course>51.67</course>
  <speed>12.511442762527428</speed>
  <fix>3d</fix>
</trkpt>
<trkpt lat="-35.3670185" lon="149.165568">
  <ele>610.14</ele>
  <time>2026-08-28T19:09:37Z</time>
  <course>50.79</course>
  <speed>12.67</speed>
  <fix>3d</fix>
</trkpt>
<trkpt lat="-35.3669961" lon="149.165602">
  <ele>610.37</ele>
  <time>2026-08-28T19:09:37Z</time>
  <course>52.45</course>
  <speed>12.2723265927859</speed>
  <fix>3d</fix>
</trkpt>
<trkpt lat="-35.3670043" lon="149.1655895">
  <ele>610.18</ele>
  <time>2026-08-28T19:09:37Z</time>
  <course>50.86</course>
  <speed>12.47</speed>
  <fix>3d</fix>
</trkpt>
<trkpt lat="-35.3669824" lon="149.1656228">
  <ele>610.41</ele>
  <time>2026-08-28T19:09:37Z</time>
  <course>53.25</course>
  <speed>11.977019662670676</speed>
  <fix>3d</fix>
</trkpt>
<trkpt lat="-35.3669902" lon="149.1656107">
  <ele>610.22</ele>
  <time>2026-08-28T19:09:37Z</time>
  <course>50.99</course>
  <speed>12.22</speed>
  <fix>3d</fix>
</trkpt>
<trkpt lat="-35.366969" lon="149.1656432">
  <ele>610.44</ele>
  <time>2026-08-28T19:09:37Z</time>
  <course>54.03</course>
  <speed>11.639630578330225</speed>
  <fix>3d</fix>
</trkpt>
<trkpt lat="-35.3669766" lon="149.1656314">
  <ele>610.26</ele>
  <time>2026-08-28T19:09:37Z</time>
  <course>51.16</course>
  <speed>11.91</speed>
  <fix>3d</fix>
</trkpt>
<trkpt lat="-35.366956" lon="149.1656631">
  <ele>610.47</ele>
  <time>2026-08-28T19:09:37Z</time>
  <course>54.75</course>
  <speed>11.246163790377588</speed>
  <fix>3d</fix>
</trkpt>
<trkpt lat="-35.3669634" lon="149.1656516">
  <ele>610.29</ele>
  <time>2026-08-28T19:09:37Z</time>
  <course>51.35</course>
  <speed>11.55</speed>
  <fix>3d</fix>
</trkpt>
<trkpt lat="-35.3669436" lon="149.1656823">
  <ele>610.48</ele>
  <time>2026-08-28T19:09:37Z</time>
  <course>55.38</course>
  <speed>10.809079516776626</speed>
  <fix>3d</fix>
</trkpt>
<trkpt lat="-35.3669507" lon="149.1656711">
  <ele>610.32</ele>
  <time>2026-08-28T19:09:37Z</time>
  <course>51.56</course>
  <speed>11.14</speed>
  <fix>3d</fix>
</trkpt>
<trkpt lat="-35.3669318" lon="149.1657007">
  <ele>610.49</ele>
  <time>2026-08-28T19:09:37Z</time>
  <course>55.89</course>
  <speed>10.328300925128005</speed>
  <fix>3d</fix>
</trkpt>
<trkpt lat="-35.3669385" lon="149.16569">
  <ele>610.33</ele>
  <time>2026-08-28T19:09:37Z</time>
  <course>51.75</course>
  <speed>10.69</speed>
  <fix>3d</fix>
</trkpt>
<trkpt lat="-35.3669206" lon="149.1657183">
  <ele>610.49</ele>
  <time>2026-08-28T19:09:37Z</time>
  <course>56.32</course>
  <speed>9.803764583056857</speed>
  <fix>3d</fix>
</trkpt>
<trkpt lat="-35.3669269" lon="149.1657081">
  <ele>610.34</ele>
  <time>2026-08-28T19:09:37Z</time>
  <course>51.93</course>
  <speed>10.19</speed>
  <fix>3d</fix>
</trkpt>
<trkpt lat="-35.36691" lon="149.1657349">
  <ele>610.48</ele>
  <time>2026-08-28T19:09:37Z</time>
  <course>56.66</course>
  <speed>9.243316504372228</speed>
  <fix>3d</fix>
</trkpt>
<trkpt lat="-35.366916" lon="149.1657253">
  <ele>610.33</ele>
  <time>2026-08-28T19:09:37Z</time>
  <course>52.09</course>
  <speed>9.65</speed>
  <fix>3d</fix>
</trkpt>
<trkpt lat="-35.3669" lon="149.1657506">
  <ele>610.46</ele>
  <time>2026-08-28T19:09:37Z</time>
  <course>56.86</course>
  <speed>8.660975695613052</speed>
  <fix>3d</fix>
</trkpt>
<trkpt lat="-35.3669056" lon="149.1657416">
  <ele>610.32</ele>
  <time>2026-08-28T19:09:37Z</time>
  <course>52.2</course>
  <speed>9.08</speed>
  <fix>3d</fix>
</trkpt>
<trkpt lat="-35.3668907" lon="149.1657653">
  <ele>610.42</ele>
  <time>2026-08-28T19:09:37Z</time>
  <course>56.83</course>
  <speed>8.090889938690305</speed>
  <fix>3d</fix>
</trkpt>
<trkpt lat="-35.3668959" lon="149.1657569">
  <ele>610.29</ele>
  <time>2026-08-28T19:09:37Z</time>
  <course>52.28</course>
  <speed>8.49</speed>
  <fix>3d</fix>
</trkpt>
<trkpt lat="-35.366882" lon="149.1657791">
  <ele>610.39</ele>
  <time>2026-08-28T19:09:37Z</time>
  <course>56.53</course>
  <speed>7.526925002947751</speed>
  <fix>3d</fix>
</trkpt>
<trkpt lat="-35.366887" lon="149.1657712">
  <ele>610.26</ele>
  <time>2026-08-28T19:09:37Z</time>
  <course>52.31</course>
  <speed>7.91</speed>
  <fix>3d</fix>
</trkpt>
<trkpt lat="-35.366874" lon="149.1657918">
  <ele>610.35</ele>
  <time>2026-08-28T19:09:37Z</time>
  <course>55.95</course>
  <speed>6.981403870282825</speed>
  <fix>3d</fix>
</trkpt>
<trkpt lat="-35.3668786" lon="149.1657845">
  <ele>610.22</ele>
  <time>2026-08-28T19:09:37Z</time>
  <course>52.21</course>
  <speed>7.35</speed>
  <fix>3d</fix>
</trkpt>
<trkpt lat="-35.3668664" lon="149.1658035">
  <ele>610.3</ele>
  <time>2026-08-28T19:09:37Z</time>
  <course>55.02</course>
  <speed>6.487464836128209</speed>
  <fix>3d</fix>
</trkpt>
<trkpt lat="-35.3668707" lon="149.1657968">
  <ele>610.17</ele>
  <time>2026-08-28T19:09:37Z</time>
  <course>51.84</course>
  <speed>6.82</speed>
  <fix>3d</fix>
</trkpt>
<trkpt lat="-35.3668593" lon="149.1658143">
  <ele>610.25</ele>
  <time>2026-08-28T19:09:37Z</time>
  <course>53.6</course>
  <speed>6.033141801748075</speed>
  <fix>3d</fix>
</trkpt>
<trkpt lat="-35.3668634" lon="149.1658082">
  <ele>610.13</ele>
  <time>2026-08-28T19:09:37Z</time>
  <course>51.0</course>
  <speed>6.32</speed>
  <fix>3d</fix>
</trkpt>
<trkpt lat="-35.3668524" lon="149.1658241">
  <ele>610.21</ele>
  <time>2026-08-28T19:09:37Z</time>
  <course>51.48</course>
  <speed>5.622277118748238</speed>
  <fix>3d</fix>
</trkpt>
<trkpt lat="-35.3668564" lon="149.1658185">
  <ele>610.08</ele>
  <time>2026-08-28T19:09:37Z</time>
  <course>49.52</course>
  <speed>5.87</speed>
  <fix>3d</fix>
</trkpt>
<trkpt lat="-35.3668456" lon="149.1658328">
  <ele>610.18</ele>
  <time>2026-08-28T19:09:37Z</time>
  <course>48.59</course>
  <speed>5.26089346024038</speed>
  <fix>3d</fix>
</trkpt>
<trkpt lat="-35.3668496" lon="149.1658279">
  <ele>610.04</ele>
  <time>2026-08-28T19:09:37Z</time>
  <course>47.24</course>
  <speed>5.47</speed>
  <fix>3d</fix>
</trkpt>
<trkpt lat="-35.366839" lon="149.1658406">
  <ele>610.15</ele>
  <time>2026-08-28T19:09:37Z</time>
  <course>44.97</course>
  <speed>4.945401904800054</speed>
  <fix>3d</fix>
</trkpt>
<trkpt lat="-35.366843" lon="149.1658362">
  <ele>610.01</ele>
  <time>2026-08-28T19:09:37Z</time>
  <course>44.08</course>
  <speed>5.12</speed>
  <fix>3d</fix>
</trkpt>
<trkpt lat="-35.3668323" lon="149.1658474">
  <ele>610.13</ele>
  <time>2026-08-28T19:09:37Z</time>
  <course>40.56</course>
  <speed>4.7</speed>
  <fix>3d</fix>
</trkpt>
<trkpt lat="-35.3668363" lon="149.1658436">
  <ele>609.99</ele>
  <time>2026-08-28T19:09:37Z</time>
  <course>40.03</course>
  <speed>4.82</speed>
  <fix>3d</fix>
</trkpt>
<trkpt lat="-35.3668255" lon="149.1658531">
  <ele>610.12</ele>
  <time>2026-08-28T19:09:37Z</time>
  <course>35.43</course>
  <speed>4.52428999954689</speed>
  <fix>3d</fix>
</trkpt>
<trkpt lat="-35.3668297" lon="149.1658498">
  <ele>609.97</ele>
  <time>2026-08-28T19:09:37Z</time>
  <course>35.13</course>
  <speed>4.59</speed>
  <fix>3d</fix>
</trkpt>
<trkpt lat="-35.3668185" lon="149.1658578">
  <ele>610.11</ele>
  <time>2026-08-28T19:09:37Z</time>
  <course>29.67</course>
  <speed>4.423595822405116</speed>
  <fix>3d</fix>
</trkpt>
<trkpt lat="-35.3668229" lon="149.1658552">
  <ele>609.96</ele>
  <time>2026-08-28T19:09:37Z</time>
  <course>29.48</course>
  <speed>4.44</speed>
  <fix>3d</fix>
</trkpt>
<trkpt lat="-35.3668111" lon="149.1658616">
  <ele>610.1</ele>
  <time>2026-08-28T19:09:37Z</time>
  <course>23.4</course>
  <speed>4.405462518283409</speed>
  <fix>3d</fix>
</trkpt>
<trkpt lat="-35.3668158" lon="149.1658596">
  <ele>609.96</ele>
  <time>2026-08-28T19:09:37Z</time>
  <course>23.3</course>
  <speed>4.37</speed>
  <fix>3d</fix>
</trkpt>
<trkpt lat="-35.3668035" lon="149.1658643">
  <ele>610.09</ele>
  <time>2026-08-28T19:09:37Z</time>
  <course>16.88</course>
  <speed>4.47545528410239</speed>
  <fix>3d</fix>
</trkpt>
<trkpt lat="-35.3668084" lon="149.1658628">
  <ele>609.95</ele>
  <time>2026-08-28T19:09:37Z</time>
  <course>16.89</course>
  <speed>4.38</speed>
  <fix>3d</fix>
</trkpt>
<trkpt lat="-35.3667956" lon="149.165866">
  <ele>610.09</ele>
  <time>2026-08-28T19:09:37Z</time>
  <course>10.52</course>
  <speed>4.6476015319732396</speed>
  <fix>3d</fix>
</trkpt>
<trkpt lat="-35.3668007" lon="149.1658651">
  <ele>609.95</ele>
  <time>2026-08-28T19:09:37Z</time>
  <course>10.68</course>
  <speed>4.49</speed>
  <fix>3d</fix>
</trkpt>
<trkpt lat="-35.3667871" lon="149.1658669">
  <ele>610.08</ele>
  <time>2026-08-28T19:09:37Z</time>
  <course>4.72</course>
  <speed>4.904497935568941</speed>
  <fix>3d</fix>
</trkpt>
<trkpt lat="-35.3667925" lon="149.1658665">
  <ele>609.94</ele>
  <time>2026-08-28T19:09:37Z</time>
  <course>5.13</course>
  <speed>4.7</speed>
  <fix>3d</fix>
</trkpt>
<trkpt lat="-35.3667781" lon="149.165867">
  <ele>610.07</ele>
  <time>2026-08-28T19:09:37Z</time>
  <course>359.76</course>
  <speed>5.2313764918996215</speed>
  <fix>3d</fix>
</trkpt>
<trkpt lat="-35.3667838" lon="149.165867">
  <ele>609.93</ele>
  <time>2026-08-28T19:09:37Z</time>
  <course>0.57</course>
  <speed>4.99</speed>
  <fix>3d</fix>
</trkpt>
<trkpt lat="-35.3667684" lon="149.1658663">
  <ele>610.07</ele>
  <time>2026-08-28T19:09:37Z</time>
  <course>355.82</course>
  <speed>5.5950424484538095</speed>
  <fix>3d</fix>
</trkpt>
<trkpt lat="-35.3667746" lon="149.1658668">
  <ele>609.93</ele>
  <time>2026-08-28T19:09:37Z</time>
  <course>357.03</course>
  <speed>5.34</speed>
  <fix>3d</fix>
</trkpt>
<trkpt lat="-35.3667582" lon="149.1658651">
  <ele>610.07</ele>
  <time>2026-08-28T19:09:37Z</time>
  <course>352.87</course>
  <speed>5.9754581414315</speed>
  <fix>3d</fix>
</trkpt>
<trkpt lat="-35.3667646" lon="149.165866">
  <ele>609.93</ele>
  <time>2026-08-28T19:09:37Z</time>
  <course>354.44</course>
  <speed>5.72</speed>
  <fix>3d</fix>
</trkpt>
<trkpt lat="-35.3667472" lon="149.1658635">
  <ele>610.07</ele>
  <time>2026-08-28T19:09:37Z</time>
  <course>350.8</course>
  <speed>6.355753299177054</speed>
  <fix>3d</fix>
</trkpt>
<trkpt lat="-35.366754" lon="149.1658645">
  <ele>609.93</ele>
  <time>2026-08-28T19:09:37Z</time>
  <course>352.65</course>
  <speed>6.11</speed>
  <fix>3d</fix>
</trkpt>
<trkpt lat="-35.3667356" lon="149.1658614">
  <ele>610.08</ele>
  <time>2026-08-28T19:09:37Z</time>
  <course>349.4</course>
  <speed>6.752962312940892</speed>
  <fix>3d</fix>
</trkpt>
<trkpt lat="-35.3667429" lon="149.1658625">
  <ele>609.93</ele>
  <time>2026-08-28T19:09:37Z</time>
  <course>351.53</course>
  <speed>6.51</speed>
  <fix>3d</fix>
</trkpt>
<trkpt lat="-35.3667233" lon="149.165859">
  <ele>610.09</ele>
  <time>2026-08-28T19:09:37Z</time>
  <course>348.44</course>
  <speed>7.153530596845169</speed>
  <fix>3d</fix>
</trkpt>
<trkpt lat="-35.3667309" lon="149.1658603">
  <ele>609.94</ele>
  <time>2026-08-28T19:09:37Z</time>
  <course>350.93</course>
  <speed>6.91</speed>
  <fix>3d</fix>
</trkpt>
<trkpt lat="-35.3667102" lon="149.1658565">
  <ele>610.09</ele>
  <time>2026-08-28T19:09:37Z</time>
  <course>347.83</course>
  <speed>7.569412130410128</speed>
  <fix>3d</fix>
</trkpt>
<trkpt lat="-35.3667183" lon="149.1658578">
  <ele>609.95</ele>
  <time>2026-08-28T19:09:37Z</time>
  <course>350.72</course>
  <speed>7.32</speed>
  <fix>3d</fix>
</trkpt>
<trkpt lat="-35.3666964" lon="149.1658538">
  <ele>610.1</ele>
  <time>2026-08-28T19:09:37Z</time>
  <course>347.43</course>
  <speed>8.000506233982948</speed>
  <fix>3d</fix>
</trkpt>
<trkpt lat="-35.3667049" lon="149.1658551">
  <ele>609.95</ele>
  <time>2026-08-28T19:09:37Z</time>
  <course>350.82</course>
  <speed>7.75</speed>
  <fix>3d</fix>
</trkpt>
<trkpt lat="-35.3666818" lon="149.165851">
  <ele>610.1</ele>
  <time>2026-08-28T19:09:37Z</time>
  <course>347.18</course>
  <speed>8.457008927510955</speed>
  <fix>3d</fix>
</trkpt>
<trkpt lat="-35.3666908" lon="149.1658524">
  <ele>609.95</ele>
  <time>2026-08-28T19:09:37Z</time>
  <course>351.14</course>
  <speed>8.19</speed>
  <fix>3d</fix>
</trkpt>
<trkpt lat="-35.3666663" lon="149.1658482">
  <ele>610.09</ele>
  <time>2026-08-28T19:09:37Z</time>
  <course>347.16</course>
  <speed>8.930985387962517</speed>
  <fix>3d</fix>
</trkpt>
<trkpt lat="-35.3666757" lon="149.1658496">
  <ele>609.95</ele>
  <time>2026-08-28T19:09:37Z</time>
  <course>351.6</course>
  <speed>8.65</speed>
  <fix>3d</fix>
</trkpt>
<trkpt lat="-35.3666499" lon="149.1658455">
  <ele>610.08</ele>
  <time>2026-08-28T19:09:37Z</time>
  <course>347.27</course>
  <speed>9.414244526248508</speed>
  <fix>3d</fix>
</trkpt>
<trkpt lat="-35.3666599" lon="149.1658468">
  <ele>609.94</ele>
  <time>2026-08-28T19:09:37Z</time>
  <course>352.15</course>
  <speed>9.13</speed>
  <fix>3d</fix>
</trkpt>
<trkpt lat="-35.3666326" lon="149.1658428">
  <ele>610.07</ele>
  <time>2026-08-28T19:09:37Z</time>
  <course>347.33</course>
  <speed>9.919243922799762</speed>
  <fix>3d</fix>
</trkpt>
<trkpt lat="-35.3666433" lon="149.1658441">
  <ele>609.93</ele>
  <time>2026-08-28T19:09:37Z</time>
  <course>352.68</course>
  <speed>9.62</speed>
  <fix>3d</fix>
</trkpt>
<trkpt lat="-35.3666145" lon="149.1658401">
  <ele>610.07</ele>
  <time>2026-08-28T19:09:37Z</time>
  <course>347.23</course>
  <speed>10.417048526334126</speed>
  <fix>3d</fix>
</trkpt>
<trkpt lat="-35.3666256" lon="149.1658414">
  <ele>609.93</ele>
  <time>2026-08-28T19:09:37Z</time>
  <course>353.09</course>
  <speed>10.13</speed>
  <fix>3d</fix>
</trkpt>
<trkpt lat="-35.3665954" lon="149.1658374">
  <ele>610.07</ele>
  <time>2026-08-28T19:09:37Z</time>
  <course>347.04</course>
  <speed>10.898499896774785</speed>
  <fix>3d</fix>
</trkpt>
<trkpt lat="-35.3666071" lon="149.1658387">
  <ele>609.92</ele>
  <time>2026-08-28T19:09:37Z</time>
  <course>353.36</course>
  <speed>10.62</speed>
  <fix>3d</fix>
</trkpt>
<trkpt lat="-35.3665755" lon="149.1658345">
  <ele>610.09</ele>
  <time>2026-08-28T19:09:37Z</time>
  <course>346.99</course>
  <speed>11.341331491496048</speed>
  <fix>3d</fix>
</trkpt>
<trkpt lat="-35.3665878" lon="149.1658359">
  <ele>609.92</ele>
  <time>2026-08-28T19:09:37Z</time>
  <course>353.47</course>
  <speed>11.1</speed>
  <fix>3d</fix>
</trkpt>
<trkpt lat="-35.3665549" lon="149.1658316">
  <ele>610.11</ele>
  <time>2026-08-28T19:09:37Z</time>
  <course>347.24</course>
  <speed>11.71460626739115</speed>
  <fix>3d</fix>
</trkpt>
<trkpt lat="-35.3665675" lon="149.1658331">
  <ele>609.94</ele>
  <time>2026-08-28T19:09:37Z</time>
  <course>353.48</course>
  <speed>11.52</speed>
  <fix>3d</fix>
</trkpt>
<trkpt lat="-35.3665337" lon="149.1658286">
  <ele>610.14</ele>
  <time>2026-08-28T19:09:37Z</time>
  <course>347.75</course>
  <speed>12.028275021797597</speed>
  <fix>3d</fix>
</trkpt>
<trkpt lat="-35.3665467" lon="149.1658301">
  <ele>609.95</ele>
  <time>2026-08-28T19:09:37Z</time>
  <course>353.44</course>
  <speed>11.88</speed>
  <fix>3d</fix>
</trkpt>
<trkpt lat="-35.3665119" lon="149.1658254">
  <ele>610.18</ele>
  <time>2026-08-28T19:09:37Z</time>
  <course>348.41</course>
  <speed>12.281209223850883</speed>
  <fix>3d</fix>
</trkpt>
<trkpt lat="-35.3665252" lon="149.1658271">
  <ele>609.98</ele>
  <time>2026-08-28T19:09:37Z</time>
  <course>353.4</course>
  <speed>12.18</speed>
  <fix>3d</fix>
</trkpt>
<trkpt lat="-35.3664898" lon="149.1658222">
  <ele>610.21</ele>
  <time>2026-08-28T19:09:37Z</time>
  <course>349.09</course>
  <speed>12.483332888295497</speed>
  <fix>3d</fix>
</trkpt>
<trkpt lat="-35.3665031" lon="149.165824">
  <ele>610.01</ele>
  <time>2026-08-28T19:09:37Z</time>
  <course>353.38</course>
  <speed>12.42</speed>
  <fix>3d</fix>
</trkpt>
<trkpt lat="-35.3664673" lon="149.165819">
  <ele>610.24</ele>
  <time>2026-08-28T19:09:37Z</time>
  <course>349.73</course>
  <speed>12.64457195795888</speed>
  <fix>3d</fix>
</trkpt>
<trkpt lat="-35.3664807" lon="149.1658208">
  <ele>610.04</ele>
  <time>2026-08-28T19:09:37Z</time>
  <course>353.38</course>
  <speed>12.61</speed>
  <fix>3d</fix>
</trkpt>
<trkpt lat="-35.3664445" lon="149.1658158">
  <ele>610.26</ele>
  <time>2026-08-28T19:09:37Z</time>
  <course>350.28</course>
  <speed>12.76492459828886</speed>
  <fix>3d</fix>
</trkpt>
<trkpt lat="-35.3664581" lon="149.1658176">
  <ele>610.07</ele>
  <time>2026-08-28T19:09:37Z</time>
  <course>353.39</course>
  <speed>12.76</speed>
  <fix>3d</fix>
</trkpt>
<trkpt lat="-35.3664216" lon="149.1658125">
  <ele>610.28</ele>
  <time>2026-08-28T19:09:37Z</time>
  <course>350.77</course>
  <speed>12.855477431818704</speed>
  <fix>3d</fix>
</trkpt>
<trkpt lat="-35.3664352" lon="149.1658143">
  <ele>610.1</ele>
  <time>2026-08-28T19:09:37Z</time>
  <course>353.39</course>
  <speed>12.88</speed>
  <fix>3d</fix>
</trkpt>
<trkpt lat="-35.3663986" lon="149.1658092">
  <ele>610.3</ele>
  <time>2026-08-28T19:09:37Z</time>
  <course>351.26</course>
  <speed>12.907455210071426</speed>
  <fix>3d</fix>
</trkpt>
<trkpt lat="-35.3664122" lon="149.1658111">
  <ele>610.12</ele>
  <time>2026-08-28T19:09:37Z</time>
  <course>353.38</course>
  <speed>12.96</speed>
  <fix>3d</fix>
</trkpt>
<trkpt lat="-35.3663755" lon="149.1658059">
  <ele>610.32</ele>
  <time>2026-08-28T19:09:37Z</time>
  <course>351.73</course>
  <speed>12.928484056531918</speed>
  <fix>3d</fix>
</trkpt>
<trkpt lat="-35.366389" lon="149.1658078">
  <ele>610.14</ele>
  <time>2026-08-28T19:09:37Z</time>
  <course>353.35</course>
  <speed>13.0</speed>
  <fix>3d</fix>
</trkpt>
<trkpt lat="-35.3663523" lon="149.1658025">
  <ele>610.34</ele>
  <time>2026-08-28T19:09:37Z</time>
  <course>352.19</course>
  <speed>12.909794731133411</speed>
  <fix>3d</fix>
</trkpt>
<trkpt lat="-35.3663657" lon="149.1658044">
  <ele>610.16</ele>
  <time>2026-08-28T19:09:37Z</time>
  <course>353.31</course>
  <speed>13.01</speed>
  <fix>3d</fix>
</trkpt>
<trkpt lat="-35.3663293" lon="149.1657992">
  <ele>610.35</ele>
  <time>2026-08-28T19:09:37Z</time>
  <course>352.68</course>
  <speed>12.861329635772499</speed>
  <fix>3d</fix>
</trkpt>
<trkpt lat="-35.3663425" lon="149.1658011">
  <ele>610.17</ele>
  <time>2026-08-28T19:09:37Z</time>
  <course>353.26</course>
  <speed>12.98</speed>
  <fix>3d</fix>
</trkpt>
<trkpt lat="-35.3663062" lon="149.1657958">
  <ele>610.36</ele>
  <time>2026-08-28T19:09:37Z</time>
  <course>353.05</course>
  <speed>12.801757691817167</speed>
  <fix>3d</fix>
</trkpt>
<trkpt lat="-35.3663194" lon="149.1657978">
  <ele>610.18</ele>
  <time>2026-08-28T19:09:37Z</time>
  <course>353.2</course>
  <speed>12.92</speed>
  <fix>3d</fix>
</trkpt>
<trkpt lat="-35.3662833" lon="149.1657924">
  <ele>610.36</ele>
  <time>2026-08-28T19:09:37Z</time>
  <course>353.2</course>
  <speed>12.743394367279073</speed>
  <fix>3d</fix>
</trkpt>
<trkpt lat="-35.3662965" lon="149.1657943">
  <ele>610.19</ele>
  <time>2026-08-28T19:09:37Z</time>
  <course>353.13</course>
  <speed>12.85</speed>
  <fix>3d</fix>
</trkpt>
<trkpt lat="-35.3662604" lon="149.165789">
  <ele>610.34</ele>
  <time>2026-08-28T19:09:37Z</time>
  <course>353.09</course>
  <speed>12.706128442605955</speed>
  <fix>3d</fix>
</trkpt>
<trkpt lat="-35.3662736" lon="149.165791">
  <ele>610.18</ele>
  <time>2026-08-28T19:09:37Z</time>
  <course>353.04</course>
  <speed>12.79</speed>
  <fix>3d</fix>
</trkpt>
<trkpt lat="-35.3662377" lon="149.1657855">
  <ele>610.31</ele>
  <time>2026-08-28T19:09:37Z</time>
  <course>352.79</course>
  <speed>12.690003940109712</speed>
  <fix>3d</fix>
</trkpt>
<trkpt lat="-35.3662508" lon="149.1657875">
  <ele>610.16</ele>
  <time>2026-08-28T19:09:37Z</time>
  <course>352.92</course>
  <speed>12.75</speed>
  <fix>3d</fix>
</trkpt>
<trkpt lat="-35.3662149" lon="149.1657819">
  <ele>610.28</ele>
  <time>2026-08-28T19:09:38Z</time>
  <course>352.36</course>
  <speed>12.696365621704503</speed>
  <fix>3d</fix>
</trkpt>
<trkpt lat="-35.366228" lon="149.165784">
  <ele>610.13</ele>
  <time>2026-08-28T19:09:38Z</time>
  <course>352.75</course>
  <speed>12.73</speed>
  <fix>3d</fix>
</trkpt>
<trkpt lat="-35.3661921" lon="149.1657782">
  <ele>610.25</ele>
  <time>2026-08-28T19:09:38Z</time>
  <course>351.88</course>
  <speed>12.714165328483029</speed>
  <fix>3d</fix>
</trkpt>
<trkpt lat="-35.3662053" lon="149.1657804">
  <ele>610.1</ele>
  <time>2026-08-28T19:09:38Z</time>
  <course>352.52</course>
  <speed>12.73</speed>
  <fix>3d</fix>
</trkpt>
<trkpt lat="-35.3661693" lon="149.1657744">
  <ele>610.23</ele>
  <time>2026-08-28T19:09:38Z</time>
  <course>351.4</course>
  <speed>12.732230755056241</speed>
  <fix>3d</fix>
</trkpt>
<trkpt lat="-35.3661826" lon="149.1657768">
  <ele>610.08</ele>
  <time>2026-08-28T19:09:38Z</time>
  <course>352.26</course>
  <speed>12.74</speed>
  <fix>3d</fix>
</trkpt>
<trkpt lat="-35.3661466" lon="149.1657705">
  <ele>610.22</ele>
  <time>2026-08-28T19:09:38Z</time>
  <course>350.97</course>
  <speed>12.760458455713886</speed>
  <fix>3d</fix>
</trkpt>
<trkpt lat="-35.3661599" lon="149.1657729">
  <ele>610.06</ele>
  <time>2026-08-28T19:09:38Z</time>
  <course>351.99</course>
  <speed>12.76</speed>
  <fix>3d</fix>
</trkpt>
<trkpt lat="-35.3661238" lon="149.1657664">
  <ele>610.21</ele>
  <time>2026-08-28T19:09:38Z</time>
  <course>350.59</course>
  <speed>12.788936625067777</speed>
  <fix>3d</fix>
</trkpt>
<trkpt lat="-35.3661372" lon="149.1657689">
  <ele>610.04</ele>
  <time>2026-08-28T19:09:38Z</time>
  <course>351.72</course>
  <speed>12.79</speed>
  <fix>3d</fix>
</trkpt>
<trkpt lat="-35.366101" lon="149.1657622">
  <ele>610.2</ele>
  <time>2026-08-28T19:09:38Z</time>
  <course>350.25</course>
  <speed>12.824538978068567</speed>
  <fix>3d</fix>
</trkpt>
<trkpt lat="-35.3661144" lon="149.1657647">
  <ele>610.03</ele>
  <time>2026-08-28T19:09:38Z</time>
  <course>351.49</course>
  <speed>12.82</speed>
  <fix>3d</fix>
</trkpt>
<trkpt lat="-35.3660782" lon="149.165758">
  <ele>610.21</ele>
  <time>2026-08-28T19:09:38Z</time>
  <course>349.96</course>
  <speed>12.861765042170534</speed>
  <fix>3d</fix>
</trkpt>
<trkpt lat="-35.3660917" lon="149.1657605">
  <ele>610.03</ele>
  <time>2026-08-28T19:09:38Z</time>
  <course>351.29</course>
  <speed>12.85</speed>
  <fix>3d</fix>
</trkpt>
<trkpt lat="-35.3660553" lon="149.1657536">
  <ele>610.21</ele>
  <time>2026-08-28T19:09:38Z</time>
  <course>349.75</course>
  <speed>12.905909499140307</speed>
  <fix>3d</fix>
</trkpt>
<trkpt lat="-35.3660688" lon="149.1657562">
  <ele>610.03</ele>
  <time>2026-08-28T19:09:38Z</time>
  <course>351.14</course>
  <speed>12.89</speed>
  <fix>3d</fix>
</trkpt>
<trkpt lat="-35.3660322" lon="149.1657491">
  <ele>610.21</ele>
  <time>2026-08-28T19:09:38Z</time>
  <course>349.59</course>
  <speed>12.948532735410604</speed>
  <fix>3d</fix>
</trkpt>
<trkpt lat="-35.3660459" lon="149.1657518">
  <ele>610.03</ele>
  <time>2026-08-28T19:09:38Z</time>
  <course>351.03</course>
  <speed>12.93</speed>
  <fix>3d</fix>
</trkpt>
<trkpt lat="-35.3660092" lon="149.1657447">
  <ele>610.21</ele>
  <time>2026-08-28T19:09:38Z</time>
  <course>349.53</course>
  <speed>12.98960353513532</speed>
  <fix>3d</fix>
</trkpt>
<trkpt lat="-35.3660229" lon="149.1657473">
  <ele>610.03</ele>
  <time>2026-08-28T19:09:38Z</time>
  <course>350.96</course>
  <speed>12.97</speed>
  <fix>3d</fix>
</trkpt>
<trkpt lat="-35.3659861" lon="149.1657402">
  <ele>610.21</ele>
  <time>2026-08-28T19:09:38Z</time>
  <course>349.52</course>
  <speed>13.029113553883855</speed>
  <fix>3d</fix>
</trkpt>
<trkpt lat="-35.3659998" lon="149.1657428">
  <ele>610.03</ele>
  <time>2026-08-28T19:09:38Z</time>
  <course>350.95</course>
  <speed>13.0</speed>
  <fix>3d</fix>
</trkpt>
<trkpt lat="-35.3659628" lon="149.1657357">
  <ele>610.21</ele>
  <time>2026-08-28T19:09:38Z</time>
  <course>349.59</course>
  <speed>13.057197249027068</speed>
  <fix>3d</fix>
</trkpt>
<trkpt lat="-35.3659767" lon="149.1657383">
  <ele>610.03</ele>
  <time>2026-08-28T19:09:38Z</time>
  <course>350.97</course>
  <speed>13.04</speed>
  <fix>3d</fix>
</trkpt>
<trkpt lat="-35.3659396" lon="149.1657312">
  <ele>610.21</ele>
  <time>2026-08-28T19:09:38Z</time>
  <course>349.73</course>
  <speed>13.083764748725805</speed>
  <fix>3d</fix>
</trkpt>
<trkpt lat="-35.3659536" lon="149.1657338">
  <ele>610.04</ele>
  <time>2026-08-28T19:09:38Z</time>
  <course>351.04</course>
  <speed>13.07</speed>
  <fix>3d</fix>
</trkpt>
<trkpt lat="-35.3659164" lon="149.1657268">
  <ele>610.22</ele>
  <time>2026-08-28T19:09:38Z</time>
  <course>349.89</course>
  <speed>13.10049235715971</speed>
  <fix>3d</fix>
</trkpt>
<trkpt lat="-35.3659303" lon="149.1657293">
  <ele>610.04</ele>
  <time>2026-08-28T19:09:38Z</time>
  <course>351.15</course>
  <speed>13.09</speed>
  <fix>3d</fix>
</trkpt>
<trkpt lat="-35.3658932" lon="149.1657225">
  <ele>610.22</ele>
  <time>2026-08-28T19:09:38Z</time>
  <course>350.1</course>
  <speed>13.115769134900171</speed>
  <fix>3d</fix>
</trkpt>
<trkpt lat="-35.3659071" lon="149.165725">
  <ele>610.05</ele>
  <time>2026-08-28T19:09:38Z</time>
  <course>351.28</course>
  <speed>13.11</speed>
  <fix>3d</fix>
</trkpt>
<trkpt lat="-35.36587" lon="149.1657182">
  <ele>610.23</ele>
  <time>2026-08-28T19:09:38Z</time>
  <course>350.3</course>
  <speed>13.1296686934591</speed>
  <fix>3d</fix>
</trkpt>
<trkpt lat="-35.3658838" lon="149.1657206">
  <ele>610.06</ele>
  <time>2026-08-28T19:09:38Z</time>
  <course>351.44</course>
  <speed>13.13</speed>
  <fix>3d</fix>
</trkpt>
<trkpt lat="-35.3658467" lon="149.165714">
  <ele>610.24</ele>
  <time>2026-08-28T19:09:38Z</time>
  <course>350.5</course>
  <speed>13.14370571794728</speed>
  <fix>3d</fix>
</trkpt>
<trkpt lat="-35.3658604" lon="149.1657164">
  <ele>610.06</ele>
  <time>2026-08-28T19:09:38Z</time>
  <course>351.6</course>
  <speed>13.14</speed>
  <fix>3d</fix>
</trkpt>
<trkpt lat="-35.3658233" lon="149.1657099">
  <ele>610.24</ele>
  <time>2026-08-28T19:09:38Z</time>
  <course>350.74</course>
  <speed>13.149372608607607</speed>
  <fix>3d</fix>
</trkpt>
<trkpt lat="-35.365837" lon="149.1657121">
  <ele>610.07</ele>
  <time>2026-08-28T19:09:38Z</time>
  <course>351.78</course>
  <speed>13.16</speed>
  <fix>3d</fix>
</trkpt>
<trkpt lat="-35.3657998" lon="149.1657058">
  <ele>610.24</ele>
  <time>2026-08-28T19:09:38Z</time>
  <course>350.95</course>
  <speed>13.163646911095725</speed>
  <fix>3d</fix>
</trkpt>
<trkpt lat="-35.3658136" lon="149.1657081">
  <ele>610.07</ele>
  <time>2026-08-28T19:09:38Z</time>
  <course>351.95</course>
  <speed>13.17</speed>
  <fix>3d</fix>
</trkpt>
<trkpt lat="-35.3657763" lon="149.1657018">
  <ele>610.25</ele>
  <time>2026-08-28T19:09:38Z</time>
  <course>351.19</course>
  <speed>13.168147174147165</speed>
  <fix>3d</fix>
</trkpt>
<trkpt lat="-35.3657902" lon="149.1657041">
  <ele>610.07</ele>
  <time>2026-08-28T19:09:38Z</time>
  <course>352.11</course>
  <speed>13.18</speed>
  <fix>3d</fix>
</trkpt>
<trkpt lat="-35.3657528" lon="149.1656979">
  <ele>610.25</ele>
  <time>2026-08-28T19:09:38Z</time>
  <course>351.47</course>
  <speed>13.164171071510731</speed>
  <fix>3d</fix>
</trkpt>
<trkpt lat="-35.3657666" lon="149.1657001">
  <ele>610.07</ele>
  <time>2026-08-28T19:09:38Z</time>
  <course>352.26</course>
  <speed>13.18</speed>
  <fix>3d</fix>
</trkpt>
<trkpt lat="-35.3657294" lon="149.1656941">
  <ele>610.26</ele>
  <time>2026-08-28T19:09:38Z</time>
  <course>351.78</course>
  <speed>13.150346003052544</speed>
  <fix>3d</fix>
</trkpt>
<trkpt lat="-35.3657432" lon="149.1656962">
  <ele>610.08</ele>
  <time>2026-08-28T19:09:38Z</time>
  <course>352.39</course>
  <speed>13.16</speed>
  <fix>3d</fix>
</trkpt>
<trkpt lat="-35.3657059" lon="149.1656903">
  <ele>610.27</ele>
  <time>2026-08-28T19:09:38Z</time>
  <course>352.05</course>
  <speed>13.118021954547874</speed>
  <fix>3d</fix>
</trkpt>
<trkpt lat="-35.3657197" lon="149.1656924">
  <ele>610.08</ele>
  <time>2026-08-28T19:09:38Z</time>
  <course>352.51</course>
  <speed>13.15</speed>
  <fix>3d</fix>
</trkpt>
<trkpt lat="-35.3656825" lon="149.1656866">
  <ele>610.27</ele>
  <time>2026-08-28T19:09:38Z</time>
  <course>352.23</course>
  <speed>13.094372837215229</speed>
  <fix>3d</fix>
</trkpt>
<trkpt lat="-35.3656964" lon="149.1656887">
  <ele>610.08</ele>
  <time>2026-08-28T19:09:38Z</time>
  <course>352.61</course>
  <speed>13.12</speed>
  <fix>3d</fix>
</trkpt>
<trkpt lat="-35.3656592" lon="149.165683">
  <ele>610.27</ele>
  <time>2026-08-28T19:09:38Z</time>
  <course>352.39</course>
  <speed>13.062101668567735</speed>
  <fix>3d</fix>
</trkpt>
<trkpt lat="-35.365673" lon="149.165685">
  <ele>610.09</ele>
  <time>2026-08-28T19:09:38Z</time>
  <course>352.7</course>
  <speed>13.09</speed>
  <fix>3d</fix>
</trkpt>
<trkpt lat="-35.3656359" lon="149.1656794">
  <ele>610.26</ele>
  <time>2026-08-28T19:09:38Z</time>
  <course>352.49</course>
  <speed>13.041012230651422</speed>
  <fix>3d</fix>
</trkpt>
<trkpt lat="-35.3656497" lon="149.1656813">
  <ele>610.08</ele>
  <time>2026-08-28T19:09:38Z</time>
  <course>352.76</course>
  <speed>13.07</speed>
  <fix>3d</fix>
</trkpt>
<trkpt lat="-35.3656127" lon="149.1656758">
  <ele>610.26</ele>
  <time>2026-08-28T19:09:38Z</time>
  <course>352.51</course>
  <speed>13.021167382381659</speed>
  <fix>3d</fix>
</trkpt>
<trkpt lat="-35.3656265" lon="149.1656778">
  <ele>610.08</ele>
  <time>2026-08-28T19:09:38Z</time>
  <course>352.79</course>
  <speed>13.04</speed>
  <fix>3d</fix>
</trkpt>
<trkpt lat="-35.3655895" lon="149.1656722">
  <ele>610.26</ele>
  <time>2026-08-28T19:09:38Z</time>
  <course>352.49</course>
  <speed>13.001323009601753</speed>
  <fix>3d</fix>
</trkpt>
<trkpt lat="-35.3656032" lon="149.1656742">
  <ele>610.07</ele>
  <time>2026-08-28T19:09:38Z</time>
  <course>352.79</course>
  <speed>13.02</speed>
  <fix>3d</fix>
</trkpt>
<trkpt lat="-35.3655664" lon="149.1656686">
  <ele>610.26</ele>
  <time>2026-08-28T19:09:38Z</time>
  <course>352.41</course>
  <speed>12.982730837539535</speed>
  <fix>3d</fix>
</trkpt>
<trkpt lat="-35.36558" lon="149.1656706">
  <ele>610.07</ele>
  <time>2026-08-28T19:09:38Z</time>
  <course>352.77</course>
  <speed>13.0</speed>
  <fix>3d</fix>
</trkpt>
<trkpt lat="-35.3655431" lon="149.1656649">
  <ele>610.25</ele>
  <time>2026-08-28T19:09:38Z</time>
  <course>352.35</course>
  <speed>12.974070294244592</speed>
  <fix>3d</fix>
</trkpt>
<trkpt lat="-35.3655569" lon="149.1656669">
  <ele>610.06</ele>
  <time>2026-08-28T19:09:38Z</time>
  <course>352.71</course>
  <speed>12.99</speed>
  <fix>3d</fix>
</trkpt>
<trkpt lat="-35.36552" lon="149.1656612">
  <ele>610.25</ele>
  <time>2026-08-28T19:09:38Z</time>
  <course>352.3</course>
  <speed>12.956778148907235</speed>
  <fix>3d</fix>
</trkpt>
<trkpt lat="-35.3655337" lon="149.1656633">
  <ele>610.06</ele>
  <time>2026-08-28T19:09:38Z</time>
  <course>352.64</course>
  <speed>12.97</speed>
  <fix>3d</fix>
</trkpt>
<trkpt lat="-35.3654968" lon="149.1656575">
  <ele>610.24</ele>
  <time>2026-08-28T19:09:38Z</time>
  <course>352.22</course>
  <speed>12.948146585515628</speed>
  <fix>3d</fix>
</trkpt>
<trkpt lat="-35.3655105" lon="149.1656596">
  <ele>610.05</ele>
  <time>2026-08-28T19:09:38Z</time>
  <course>352.55</course>
  <speed>12.96</speed>
  <fix>3d</fix>
</trkpt>
<trkpt lat="-35.3654736" lon="149.1656538">
  <ele>610.24</ele>
  <time>2026-08-28T19:09:38Z</time>
  <course>352.13</course>
  <speed>12.93091257413799</speed>
  <fix>3d</fix>
</trkpt>
<trkpt lat="-35.3654875" lon="149.1656559">
  <ele>610.05</ele>
  <time>2026-08-28T19:09:38Z</time>
  <course>352.46</course>
  <speed>12.94</speed>
  <fix>3d</fix>
</trkpt>
<trkpt lat="-35.3654506" lon="149.16565">
  <ele>610.24</ele>
  <time>2026-08-28T19:09:38Z</time>
  <course>352.0</course>
  <speed>12.923629521152328</speed>
  <fix>3d</fix>
</trkpt>
<trkpt lat="-35.3654645" lon="149.1656521">
  <ele>610.05</ele>
  <time>2026-08-28T19:09:38Z</time>
  <course>352.37</course>
  <speed>12.93</speed>
  <fix>3d</fix>
</trkpt>
<trkpt lat="-35.3654276" lon="149.1656461">
  <ele>610.24</ele>
  <time>2026-08-28T19:09:38Z</time>
  <course>351.88</course>
  <speed>12.906471245077022</speed>
  <fix>3d</fix>
</trkpt>
<trkpt lat="-35.3654414" lon="149.1656482">
  <ele>610.05</ele>
  <time>2026-08-28T19:09:38Z</time>
  <course>352.27</course>
  <speed>12.91</speed>
  <fix>3d</fix>
</trkpt>
<trkpt lat="-35.3654045" lon="149.1656422">
  <ele>610.24</ele>
  <time>2026-08-28T19:09:38Z</time>
  <course>351.76</course>
  <speed>12.899259668678665</speed>
  <fix>3d</fix>
</trkpt>
<trkpt lat="-35.3654184" lon="149.1656444">
  <ele>610.04</ele>
  <time>2026-08-28T19:09:38Z</time>
  <course>352.17</course>
  <speed>12.9</speed>
  <fix>3d</fix>
</trkpt>
<trkpt lat="-35.3653815" lon="149.1656383">
  <ele>610.24</ele>
  <time>2026-08-28T19:09:38Z</time>
  <course>351.65</course>
  <speed>12.901988218875415</speed>
  <fix>3d</fix>
</trkpt>
<trkpt lat="-35.3653955" lon="149.1656406">
  <ele>610.04</ele>
  <time>2026-08-28T19:09:38Z</time>
  <course>352.09</course>
  <speed>12.9</speed>
  <fix>3d</fix>
</trkpt>
<trkpt lat="-35.3653585" lon="149.1656344">
  <ele>610.24</ele>
  <time>2026-08-28T19:09:38Z</time>
  <course>351.51</course>
  <speed>12.903363902486824</speed>
  <fix>3d</fix>
</trkpt>
<trkpt lat="-35.3653726" lon="149.1656366">
  <ele>610.04</ele>
  <time>2026-08-28T19:09:38Z</time>
  <course>352.01</course>
  <speed>12.89</speed>
  <fix>3d</fix>
</trkpt>
<trkpt lat="-35.3653356" lon="149.1656304">
  <ele>610.24</ele>
  <time>2026-08-28T19:09:38Z</time>
  <course>351.41</course>
  <speed>12.906138074575212</speed>
  <fix>3d</fix>
</trkpt>
<trkpt lat="-35.3653496" lon="149.1656327">
  <ele>610.03</ele>
  <time>2026-08-28T19:09:38Z</time>
  <course>351.95</course>
  <speed>12.89</speed>
  <fix>3d</fix>
</trkpt>
<trkpt lat="-35.3653126" lon="149.1656264">
  <ele>610.24</ele>
  <time>2026-08-28T19:09:38Z</time>
  <course>351.3</course>
  <speed>12.907536558150824</speed>
  <fix>3d</fix>
</trkpt>
<trkpt lat="-35.3653267" lon="149.1656286">
  <ele>610.03</ele>
  <time>2026-08-28T19:09:38Z</time>
  <course>351.89</course>
  <speed>12.9</speed>
  <fix>3d</fix>
</trkpt>
<trkpt lat="-35.3652897" lon="149.1656224">
  <ele>610.23</ele>
  <time>2026-08-28T19:09:38Z</time>
  <course>351.24</course>
  <speed>12.917437826442209</speed>
  <fix>3d</fix>
</trkpt>
<trkpt lat="-35.3653037" lon="149.1656247">
  <ele>610.03</ele>
  <time>2026-08-28T19:09:38Z</time>
  <course>351.85</course>
  <speed>12.9</speed>
  <fix>3d</fix>
</trkpt>
<trkpt lat="-35.3652668" lon="149.1656183">
  <ele>610.23</ele>
  <time>2026-08-28T19:09:38Z</time>
  <course>351.16</course>
  <speed>12.91884282743621</speed>
  <fix>3d</fix>
</trkpt>
<trkpt lat="-35.3652807" lon="149.1656206">
  <ele>610.02</ele>
  <time>2026-08-28T19:09:38Z</time>
  <course>351.82</course>
  <speed>12.91</speed>
  <fix>3d</fix>
</trkpt>
<trkpt lat="-35.3652439" lon="149.1656143">
  <ele>610.23</ele>
  <time>2026-08-28T19:09:38Z</time>
  <course>351.1</course>
  <speed>12.938643669256836</speed>
  <fix>3d</fix>
</trkpt>
<trkpt lat="-35.3652577" lon="149.1656166">
  <ele>610.02</ele>
  <time>2026-08-28T19:09:38Z</time>
  <course>351.81</course>
  <speed>12.93</speed>
  <fix>3d</fix>
</trkpt>
<trkpt lat="-35.3652208" lon="149.1656102">
  <ele>610.22</ele>
  <time>2026-08-28T19:09:38Z</time>
  <course>351.02</course>
  <speed>12.948544319729535</speed>
  <fix>3d</fix>
</trkpt>
<trkpt lat="-35.3652347" lon="149.1656125">
  <ele>610.01</ele>
  <time>2026-08-28T19:09:38Z</time>
  <course>351.81</course>
  <speed>12.95</speed>
  <fix>3d</fix>
</trkpt>
<trkpt lat="-35.3651979" lon="149.1656062">
  <ele>610.22</ele>
  <time>2026-08-28T19:09:38Z</time>
  <course>350.99</course>
  <speed>12.968346078047116</speed>
  <fix>3d</fix>
</trkpt>
<trkpt lat="-35.3652116" lon="149.1656084">
  <ele>610.01</ele>
  <time>2026-08-28T19:09:38Z</time>
  <course>351.82</course>
  <speed>12.97</speed>
  <fix>3d</fix>
</trkpt>
<trkpt lat="-35.3651748" lon="149.1656021">
  <ele>610.21</ele>
  <time>2026-08-28T19:09:38Z</time>
  <course>350.95</course>
  <speed>12.988148443869896</speed>
  <fix>3d</fix>
</trkpt>
<trkpt lat="-35.3651885" lon="149.1656044">
  <ele>610.01</ele>
  <time>2026-08-28T19:09:38Z</time>
  <course>351.84</course>
  <speed>12.99</speed>
  <fix>3d</fix>
</trkpt>
<trkpt lat="-35.3651517" lon="149.1655981">
  <ele>610.21</ele>
  <time>2026-08-28T19:09:38Z</time>
  <course>350.96</course>
  <speed>13.006556039167323</speed>
  <fix>3d</fix>
</trkpt>
<trkpt lat="-35.3651654" lon="149.1656003">
  <ele>610.01</ele>
  <time>2026-08-28T19:09:38Z</time>
  <course>351.87</course>
  <speed>13.01</speed>
  <fix>3d</fix>
</trkpt>
<trkpt lat="-35.3651286" lon="149.1655941">
  <ele>610.22</ele>
  <time>2026-08-28T19:09:38Z</time>
  <course>351.02</course>
  <speed>13.026361733039659</speed>
  <fix>3d</fix>
</trkpt>
<trkpt lat="-35.3651423" lon="149.1655963">
  <ele>610.01</ele>
  <time>2026-08-28T19:09:38Z</time>
  <course>351.9</course>
  <speed>13.04</speed>
  <fix>3d</fix>
</trkpt>
<trkpt lat="-35.3651055" lon="149.1655901">
  <ele>610.22</ele>
  <time>2026-08-28T19:09:38Z</time>
  <course>351.07</course>
  <speed>13.044784398371634</speed>
  <fix>3d</fix>
</trkpt>
<trkpt lat="-35.3651191" lon="149.1655922">
  <ele>610.01</ele>
  <time>2026-08-28T19:09:38Z</time>
  <course>351.94</course>
  <speed>13.06</speed>
  <fix>3d</fix>
</trkpt>
<trkpt lat="-35.3650822" lon="149.165586">
  <ele>610.22</ele>
  <time>2026-08-28T19:09:38Z</time>
  <course>351.16</course>
  <speed>13.053313755518175</speed>
  <fix>3d</fix>
</trkpt>
<trkpt lat="-35.3650958" lon="149.1655882">
  <ele>610.01</ele>
  <time>2026-08-28T19:09:38Z</time>
  <course>351.99</course>
  <speed>13.07</speed>
  <fix>3d</fix>
</trkpt>
<trkpt lat="-35.3650589" lon="149.1655821">
  <ele>610.22</ele>
  <time>2026-08-28T19:09:38Z</time>
  <course>351.27</course>
  <speed>13.061852854782892</speed>
  <fix>3d</fix>
</trkpt>
<trkpt lat="-35.3650725" lon="149.1655842">
  <ele>610.02</ele>
  <time>2026-08-28T19:09:38Z</time>
  <course>352.05</course>
  <speed>13.08</speed>
  <fix>3d</fix>
</trkpt>
<trkpt lat="-35.3650356" lon="149.1655781">
  <ele>610.23</ele>
  <time>2026-08-28T19:09:38Z</time>
  <course>351.38</course>
  <speed>13.069051227996622</speed>
  <fix>3d</fix>
</trkpt>
<trkpt lat="-35.3650492" lon="149.1655802">
  <ele>610.02</ele>
  <time>2026-08-28T19:09:38Z</time>
  <course>352.11</course>
  <speed>13.09</speed>
  <fix>3d</fix>
</trkpt>
<trkpt lat="-35.3650122" lon="149.1655742">
  <ele>610.24</ele>
  <time>2026-08-28T19:09:38Z</time>
  <course>351.53</course>
  <speed>13.077618284687773</speed>
  <fix>3d</fix>
</trkpt>
<trkpt lat="-35.3650258" lon="149.1655763">
  <ele>610.03</ele>
  <time>2026-08-28T19:09:38Z</time>
  <course>352.17</course>
  <speed>13.1</speed>
  <fix>3d</fix>
</trkpt>
<trkpt lat="-35.3649888" lon="149.1655703">
  <ele>610.24</ele>
  <time>2026-08-28T19:09:38Z</time>
  <course>351.69</course>
  <speed>13.066372870846754</speed>
  <fix>3d</fix>
</trkpt>
<trkpt lat="-35.3650025" lon="149.1655724">
  <ele>610.03</ele>
  <time>2026-08-28T19:09:38Z</time>
  <course>352.23</course>
  <speed>13.09</speed>
  <fix>3d</fix>
</trkpt>
<trkpt lat="-35.3649655" lon="149.1655664">
  <ele>610.24</ele>
  <time>2026-08-28T19:09:38Z</time>
  <course>351.87</course>
  <speed>13.053811703866423</speed>
  <fix>3d</fix>
</trkpt>
<trkpt lat="-35.3649792" lon="149.1655685">
  <ele>610.04</ele>
  <time>2026-08-28T19:09:38Z</time>
  <course>352.3</course>
  <speed>13.08</speed>
  <fix>3d</fix>
</trkpt>
<trkpt lat="-35.3649422" lon="149.1655626">
  <ele>610.24</ele>
  <time>2026-08-28T19:09:38Z</time>
  <course>352.01</course>
  <speed>13.04258409978636</speed>
  <fix>3d</fix>
</trkpt>
<trkpt lat="-35.364956" lon="149.1655647">
  <ele>610.05</ele>
  <time>2026-08-28T19:09:38Z</time>
  <course>352.36</course>
  <speed>13.07</speed>
  <fix>3d</fix>
</trkpt>
<trkpt lat="-35.3649189" lon="149.1655588">
  <ele>610.25</ele>
  <time>2026-08-28T19:09:38Z</time>
  <course>352.12</course>
  <speed>13.03006139663202</speed>
  <fix>3d</fix>
</trkpt>
<trkpt lat="-35.3649327" lon="149.1655609">
  <ele>610.05</ele>
  <time>2026-08-28T19:09:38Z</time>
  <course>352.41</course>
  <speed>13.05</speed>
  <fix>3d</fix>
</trkpt>
<trkpt lat="-35.3648956" lon="149.165555">
  <ele>610.24</ele>
  <time>2026-08-28T19:09:38Z</time>
  <course>352.18</course>
  <speed>13.008935390722792</speed>
  <fix>3d</fix>
</trkpt>
<trkpt lat="-35.3649094" lon="149.1655571">
  <ele>610.05</ele>
  <time>2026-08-28T19:09:38Z</time>
  <course>352.46</course>
  <speed>13.04</speed>
  <fix>3d</fix>
</trkpt>
<trkpt lat="-35.3648724" lon="149.1655513">
  <ele>610.24</ele>
  <time>2026-08-28T19:09:38Z</time>
  <course>352.21</course>
  <speed>12.999019193769966</speed>
  <fix>3d</fix>
</trkpt>
<trkpt lat="-35.3648862" lon="149.1655533">
  <ele>610.05</ele>
  <time>2026-08-28T19:09:38Z</time>
  <course>352.49</course>
  <speed>13.02</speed>
  <fix>3d</fix>
</trkpt>
<trkpt lat="-35.3648492" lon="149.1655475">
  <ele>610.24</ele>
  <time>2026-08-28T19:09:38Z</time>
  <course>352.23</course>
  <speed>12.989103125312386</speed>
  <fix>3d</fix>
</trkpt>
<trkpt lat="-35.3648631" lon="149.1655496">
  <ele>610.05</ele>
  <time>2026-08-28T19:09:38Z</time>
  <course>352.5</course>
  <speed>13.01</speed>
  <fix>3d</fix>
</trkpt>
<trkpt lat="-35.3648259" lon="149.1655438">
  <ele>610.24</ele>
  <time>2026-08-28T19:09:38Z</time>
  <course>352.21</course>
  <speed>12.9692713750619</speed>
  <fix>3d</fix>
</trkpt>
<trkpt lat="-35.3648399" lon="149.1655458">
  <ele>610.05</ele>
  <time>2026-08-28T19:09:38Z</time>
  <course>352.5</course>
  <speed>12.99</speed>
  <fix>3d</fix>
</trkpt>
<trkpt lat="-35.3648029" lon="149.16554">
  <ele>610.23</ele>
  <time>2026-08-28T19:09:38Z</time>
  <course>352.22</course>
  <speed>12.95935569386071</speed>
  <fix>3d</fix>
</trkpt>
<trkpt lat="-35.3648168" lon="149.165542">
  <ele>610.05</ele>
  <time>2026-08-28T19:09:38Z</time>
  <course>352.49</course>
  <speed>12.98</speed>
  <fix>3d</fix>
</trkpt>
<trkpt lat="-35.3647797" lon="149.1655363">
  <ele>610.23</ele>
  <time>2026-08-28T19:09:38Z</time>
  <course>352.2</course>
  <speed>12.950741291524588</speed>
  <fix>3d</fix>
</trkpt>
<trkpt lat="-35.3647936" lon="149.1655383">
  <ele>610.05</ele>
  <time>2026-08-28T19:09:38Z</time>
  <course>352.46</course>
  <speed>12.96</speed>
  <fix>3d</fix>
</trkpt>
<trkpt lat="-35.3647565" lon="149.1655325">
  <ele>610.23</ele>
  <time>2026-08-28T19:09:38Z</time>
  <course>352.14</course>
  <speed>12.940826866935513</speed>
  <fix>3d</fix>
</trkpt>
<trkpt lat="-35.3647705" lon="149.1655346">
  <ele>610.05</ele>
  <time>2026-08-28T19:09:38Z</time>
  <course>352.43</course>
  <speed>12.95</speed>
  <fix>3d</fix>
</trkpt>
<trkpt lat="-35.3647334" lon="149.1655287">
  <ele>610.23</ele>
  <time>2026-08-28T19:09:38Z</time>
  <course>352.06</course>
  <speed>12.932223320063724</speed>
  <fix>3d</fix>
</trkpt>
<trkpt lat="-35.3647475" lon="149.1655309">
  <ele>610.05</ele>
  <time>2026-08-28T19:09:38Z</time>
  <course>352.39</course>
  <speed>12.94</speed>
  <fix>3d</fix>
</trkpt>
<trkpt lat="-35.3647104" lon="149.1655249">
  <ele>610.23</ele>
  <time>2026-08-28T19:09:38Z</time>
  <course>352.02</course>
  <speed>12.923629521152328</speed>
  <fix>3d</fix>
</trkpt>
<trkpt lat="-35.3647245" lon="149.1655271">
  <ele>610.05</ele>
  <time>2026-08-28T19:09:38Z</time>
  <course>352.34</course>
  <speed>12.93</speed>
  <fix>3d</fix>
</trkpt>
<trkpt lat="-35.3646873" lon="149.165521">
  <ele>610.24</ele>
  <time>2026-08-28T19:09:38Z</time>
  <course>351.96</course>
  <speed>12.9150454896605</speed>
  <fix>3d</fix>
</trkpt>
<trkpt lat="-35.3647014" lon="149.1655233">
  <ele>610.06</ele>
  <time>2026-08-28T19:09:38Z</time>
  <course>352.29</course>
  <speed>12.92</speed>
  <fix>3d</fix>
</trkpt>
<trkpt lat="-35.3646643" lon="149.1655172">
  <ele>610.24</ele>
  <time>2026-08-28T19:09:38Z</time>
  <course>351.89</course>
  <speed>12.906471245077022</speed>
  <fix>3d</fix>
</trkpt>
<trkpt lat="-35.3646784" lon="149.1655194">
  <ele>610.06</ele>
  <time>2026-08-28T19:09:38Z</time>
  <course>352.24</course>
  <speed>12.91</speed>
  <fix>3d</fix>
</trkpt>
<trkpt lat="-35.3646413" lon="149.1655133">
  <ele>610.24</ele>
  <time>2026-08-28T19:09:38Z</time>
  <course>351.81</course>
  <speed>12.907815461959471</speed>
  <fix>3d</fix>
</trkpt>
<trkpt lat="-35.3646555" lon="149.1655156">
  <ele>610.06</ele>
  <time>2026-08-28T19:09:38Z</time>
  <course>352.19</course>
  <speed>12.91</speed>
  <fix>3d</fix>
</trkpt>
<trkpt lat="-35.3646183" lon="149.1655094">
  <ele>610.23</ele>
  <time>2026-08-28T19:09:38Z</time>
  <course>351.74</course>
  <speed>12.909167285305433</speed>
  <fix>3d</fix>
</trkpt>
<trkpt lat="-35.3646325" lon="149.1655117">
  <ele>610.05</ele>
  <time>2026-08-28T19:09:38Z</time>
  <course>352.15</course>
  <speed>12.91</speed>
  <fix>3d</fix>
</trkpt>
<trkpt lat="-35.3645952" lon="149.1655055">
  <ele>610.23</ele>
  <time>2026-08-28T19:09:38Z</time>
  <course>351.63</course>
  <speed>12.920433429262348</speed>
  <fix>3d</fix>
</trkpt>
<trkpt lat="-35.3646095" lon="149.1655078">
  <ele>610.05</ele>
  <time>2026-08-28T19:09:38Z</time>
  <course>352.1</course>
  <speed>12.92</speed>
  <fix>3d</fix>
</trkpt>
<trkpt lat="-35.3645722" lon="149.1655016">
  <ele>610.22</ele>
  <time>2026-08-28T19:09:38Z</time>
  <course>351.53</course>
  <speed>12.921799410298862</speed>
  <fix>3d</fix>
</trkpt>
<trkpt lat="-35.3645865" lon="149.1655039">
  <ele>610.05</ele>
  <time>2026-08-28T19:09:38Z</time>
  <course>352.07</course>
  <speed>12.92</speed>
  <fix>3d</fix>
</trkpt>
<trkpt lat="-35.3645492" lon="149.1654977">
  <ele>610.22</ele>
  <time>2026-08-28T19:09:38Z</time>
  <course>351.46</course>
  <speed>12.933077746615458</speed>
  <fix>3d</fix>
</trkpt>
<trkpt lat="-35.3645634" lon="149.1655">
  <ele>610.05</ele>
  <time>2026-08-28T19:09:38Z</time>
  <course>352.03</course>
  <speed>12.93</speed>
  <fix>3d</fix>
</trkpt>
<trkpt lat="-35.3645262" lon="149.1654937">
  <ele>610.22</ele>
  <time>2026-08-28T19:09:38Z</time>
  <course>351.45</course>
  <speed>12.942982654705213</speed>
  <fix>3d</fix>
</trkpt>
<trkpt lat="-35.3645403" lon="149.165496">
  <ele>610.05</ele>
  <time>2026-08-28T19:09:38Z</time>
  <course>352.0</course>
  <speed>12.94</speed>
  <fix>3d</fix>
</trkpt>
<trkpt lat="-35.3645032" lon="149.1654897">
  <ele>610.22</ele>
  <time>2026-08-28T19:09:38Z</time>
  <course>351.4</course>
  <speed>12.944361706936345</speed>
  <fix>3d</fix>
</trkpt>
<trkpt lat="-35.3645173" lon="149.165492">
  <ele>610.05</ele>
  <time>2026-08-28T19:09:38Z</time>
  <course>351.99</course>
  <speed>12.95</speed>
  <fix>3d</fix>
</trkpt>
<trkpt lat="-35.3644802" lon="149.1654858">
  <ele>610.22</ele>
  <time>2026-08-28T19:09:38Z</time>
  <course>351.39</course>
  <speed>12.95426570670835</speed>
  <fix>3d</fix>
</trkpt>
<trkpt lat="-35.3644943" lon="149.165488">
  <ele>610.05</ele>
  <time>2026-08-28T19:09:38Z</time>
  <course>351.98</course>
  <speed>12.96</speed>
  <fix>3d</fix>
</trkpt>
<trkpt lat="-35.3644571" lon="149.1654818">
  <ele>610.22</ele>
  <time>2026-08-28T19:09:38Z</time>
  <course>351.38</course>
  <speed>12.964169853870322</speed>
  <fix>3d</fix>
</trkpt>
<trkpt lat="-35.3644713" lon="149.165484">
  <ele>610.05</ele>
  <time>2026-08-28T19:09:38Z</time>
  <course>351.98</course>
  <speed>12.97</speed>
  <fix>3d</fix>
</trkpt>
<trkpt lat="-35.3644341" lon="149.1654778">
  <ele>610.22</ele>
  <time>2026-08-28T19:09:38Z</time>
  <course>351.32</course>
  <speed>12.983978589015003</speed>
  <fix>3d</fix>
</trkpt>
<trkpt lat="-35.3644482" lon="149.1654801">
  <ele>610.05</ele>
  <time>2026-08-28T19:09:38Z</time>
  <course>351.99</course>
  <speed>12.98</speed>
  <fix>3d</fix>
</trkpt>
<trkpt lat="-35.364411" lon="149.1654738">
  <ele>610.22</ele>
  <time>2026-08-28T19:09:38Z</time>
  <course>351.33</course>
  <speed>12.9938831763257</speed>
  <fix>3d</fix>
</trkpt>
<trkpt lat="-35.3644251" lon="149.165476">
  <ele>610.05</ele>
  <time>2026-08-28T19:09:38Z</time>
  <course>352.0</course>
  <speed>13.0</speed>
  <fix>3d</fix>
</trkpt>
<trkpt lat="-35.3643879" lon="149.1654698">
  <ele>610.22</ele>
  <time>2026-08-28T19:09:38Z</time>
  <course>351.33</course>
  <speed>13.003787909682316</speed>
  <fix>3d</fix>
</trkpt>
<trkpt lat="-35.3644019" lon="149.1654721">
  <ele>610.05</ele>
  <time>2026-08-28T19:09:38Z</time>
  <course>352.01</course>
  <speed>13.02</speed>
  <fix>3d</fix>
</trkpt>
<trkpt lat="-35.3643648" lon="149.1654659">
  <ele>610.22</ele>
  <time>2026-08-28T19:09:38Z</time>
  <course>351.35</course>
  <speed>13.02222715206581</speed>
  <fix>3d</fix>
</trkpt>
<trkpt lat="-35.3643788" lon="149.1654681">
  <ele>610.05</ele>
  <time>2026-08-28T19:09:38Z</time>
  <course>352.03</course>
  <speed>13.03</speed>
  <fix>3d</fix>
</trkpt>
<trkpt lat="-35.3643415" lon="149.1654619">
  <ele>610.22</ele>
  <time>2026-08-28T19:09:38Z</time>
  <course>351.39</course>
  <speed>13.032133363344622</speed>
  <fix>3d</fix>
</trkpt>
<trkpt lat="-35.3643555" lon="149.1654642">
  <ele>610.06</ele>
  <time>2026-08-28T19:09:38Z</time>
  <course>352.06</course>
  <speed>13.05</speed>
  <fix>3d</fix>
</trkpt>
<trkpt lat="-35.3643183" lon="149.1654579">
  <ele>610.23</ele>
  <time>2026-08-28T19:09:38Z</time>
  <course>351.43</course>
  <speed>13.040678663321168</speed>
  <fix>3d</fix>
</trkpt>
<trkpt lat="-35.3643323" lon="149.1654601">
  <ele>610.06</ele>
  <time>2026-08-28T19:09:38Z</time>
  <course>352.09</course>
  <speed>13.06</speed>
  <fix>3d</fix>
</trkpt>
<trkpt lat="-35.364295" lon="149.165454">
  <ele>610.23</ele>
  <time>2026-08-28T19:09:38Z</time>
  <course>351.54</course>
  <speed>13.039325135910984</speed>
  <fix>3d</fix>
</trkpt>
<trkpt lat="-35.364309" lon="149.1654562">
  <ele>610.06</ele>
  <time>2026-08-28T19:09:38Z</time>
  <course>352.12</course>
  <speed>13.06</speed>
  <fix>3d</fix>
</trkpt>
<trkpt lat="-35.3642716" lon="149.1654501">
  <ele>610.24</ele>
  <time>2026-08-28T19:09:38Z</time>
  <course>351.68</course>
  <speed>13.037979137887897</speed>
  <fix>3d</fix>
</trkpt>
<trkpt lat="-35.3642858" lon="149.1654523">
  <ele>610.07</ele>
  <time>2026-08-28T19:09:38Z</time>
  <course>352.16</course>
  <speed>13.06</speed>
  <fix>3d</fix>
</trkpt>
<trkpt lat="-35.3642484" lon="149.1654462">
  <ele>610.24</ele>
  <time>2026-08-28T19:09:38Z</time>
  <course>351.79</course>
  <speed>13.026730211376915</speed>
  <fix>3d</fix>
</trkpt>
<trkpt lat="-35.3642625" lon="149.1654483">
  <ele>610.08</ele>
  <time>2026-08-28T19:09:38Z</time>
  <course>352.2</course>
  <speed>13.06</speed>
  <fix>3d</fix>
</trkpt>
<trkpt lat="-35.3642252" lon="149.1654423">
  <ele>610.25</ele>
  <time>2026-08-28T19:09:38Z</time>
  <course>351.89</course>
  <speed>13.025398266463869</speed>
  <fix>3d</fix>
</trkpt>
<trkpt lat="-35.3642393" lon="149.1654444">
  <ele>610.08</ele>
  <time>2026-08-28T19:09:38Z</time>
  <course>352.25</course>
  <speed>13.05</speed>
  <fix>3d</fix>
</trkpt>
<trkpt lat="-35.364202" lon="149.1654384">
  <ele>610.25</ele>
  <time>2026-08-28T19:09:38Z</time>
  <course>351.95</course>
  <speed>13.014161517362538</speed>
  <fix>3d</fix>
</trkpt>
<trkpt lat="-35.3642161" lon="149.1654406">
  <ele>610.09</ele>
  <time>2026-08-28T19:09:38Z</time>
  <course>352.29</course>
  <speed>13.04</speed>
  <fix>3d</fix>
</trkpt>
<trkpt lat="-35.3641788" lon="149.1654346">
  <ele>610.25</ele>
  <time>2026-08-28T19:09:38Z</time>
  <course>352.0</course>
  <speed>13.004249305515486</speed>
  <fix>3d</fix>
</trkpt>
<trkpt lat="-35.3641929" lon="149.1654367">
  <ele>610.09</ele>
  <time>2026-08-28T19:09:38Z</time>
  <course>352.32</course>
  <speed>13.03</speed>
  <fix>3d</fix>
</trkpt>
<trkpt lat="-35.3641556" lon="149.1654308">
  <ele>610.25</ele>
  <time>2026-08-28T19:09:38Z</time>
  <course>352.03</course>
  <speed>13.00293043894337</speed>
  <fix>3d</fix>
</trkpt>
<trkpt lat="-35.3641697" lon="149.165433">
  <ele>610.09</ele>
  <time>2026-08-28T19:09:38Z</time>
  <course>352.35</course>
  <speed>13.03</speed>
  <fix>3d</fix>
</trkpt>
<trkpt lat="-35.3641324" lon="149.165427">
  <ele>610.24</ele>
  <time>2026-08-28T19:09:38Z</time>
  <course>352.03</course>
  <speed>13.00293043894337</speed>
  <fix>3d</fix>
</trkpt>
<trkpt lat="-35.3641464" lon="149.1654292">
  <ele>610.09</ele>
  <time>2026-08-28T19:09:38Z</time>
  <course>352.37</course>
  <speed>13.02</speed>
  <fix>3d</fix>
</trkpt>
<trkpt lat="-35.3641091" lon="149.1654231">
  <ele>610.24</ele>
  <time>2026-08-28T19:09:38Z</time>
  <course>352.05</course>
  <speed>12.993017355487522</speed>
  <fix>3d</fix>
</trkpt>
<trkpt lat="-35.3641232" lon="149.1654254">
  <ele>610.08</ele>
  <time>2026-08-28T19:09:38Z</time>
  <course>352.38</course>
  <speed>13.02</speed>
  <fix>3d</fix>
</trkpt>
<trkpt lat="-35.364086" lon="149.1654194">
  <ele>610.25</ele>
  <time>2026-08-28T19:09:38Z</time>
  <course>352.08</course>
  <speed>12.983104405341583</speed>
  <fix>3d</fix>
</trkpt>
<trkpt lat="-35.3641" lon="149.1654216">
  <ele>610.08</ele>
  <time>2026-08-28T19:09:38Z</time>
  <course>352.39</course>
  <speed>13.01</speed>
  <fix>3d</fix>
</trkpt>
<trkpt lat="-35.3640629" lon="149.1654156">
  <ele>610.25</ele>
  <time>2026-08-28T19:09:39Z</time>
  <course>352.11</course>
  <speed>12.973191588811135</speed>
  <fix>3d</fix>
</trkpt>
<trkpt lat="-35.3640768" lon="149.1654178">
  <ele>610.08</ele>
  <time>2026-08-28T19:09:39Z</time>
  <course>352.38</course>
  <speed>13.0</speed>
  <fix>3d</fix>
</trkpt>
<trkpt lat="-35.3640399" lon="149.1654118">
  <ele>610.26</ele>
  <time>2026-08-28T19:09:39Z</time>
  <course>352.12</course>
  <speed>12.963278906202705</speed>
  <fix>3d</fix>
</trkpt>
<trkpt lat="-35.3640537" lon="149.165414">
  <ele>610.08</ele>
  <time>2026-08-28T19:09:39Z</time>
  <course>352.37</course>
  <speed>12.99</speed>
  <fix>3d</fix>
</trkpt>
<trkpt lat="-35.3640167" lon="149.165408">
  <ele>610.25</ele>
  <time>2026-08-28T19:09:39Z</time>
  <course>352.07</course>
  <speed>12.963278906202705</speed>
  <fix>3d</fix>
</trkpt>
<trkpt lat="-35.3640306" lon="149.1654102">
  <ele>610.08</ele>
  <time>2026-08-28T19:09:39Z</time>
  <course>352.35</course>
  <speed>12.98</speed>
  <fix>3d</fix>
</trkpt>
<trkpt lat="-35.3639937" lon="149.1654042">
  <ele>610.25</ele>
  <time>2026-08-28T19:09:39Z</time>
  <course>352.02</course>
  <speed>12.954690270322947</speed>
  <fix>3d</fix>
</trkpt>
<trkpt lat="-35.3640074" lon="149.1654063">
  <ele>610.08</ele>
  <time>2026-08-28T19:09:39Z</time>
  <course>352.33</course>
  <speed>12.98</speed>
  <fix>3d</fix>
</trkpt>
<trkpt lat="-35.3639706" lon="149.1654004">
  <ele>610.24</ele>
  <time>2026-08-28T19:09:39Z</time>
  <course>351.93</course>
  <speed>12.95602176595887</speed>
  <fix>3d</fix>
</trkpt>
<trkpt lat="-35.3639843" lon="149.1654025">
  <ele>610.07</ele>
  <time>2026-08-28T19:09:39Z</time>
  <course>352.3</course>
  <speed>12.98</speed>
  <fix>3d</fix>
</trkpt>
<trkpt lat="-35.3639475" lon="149.1653965">
  <ele>610.23</ele>
  <time>2026-08-28T19:09:39Z</time>
  <course>351.85</course>
  <speed>12.967270337276076</speed>
  <fix>3d</fix>
</trkpt>
<trkpt lat="-35.3639612" lon="149.1653987">
  <ele>610.06</ele>
  <time>2026-08-28T19:09:39Z</time>
  <course>352.27</course>
  <speed>12.99</speed>
  <fix>3d</fix>
</trkpt>
<trkpt lat="-35.3639245" lon="149.1653927">
  <ele>610.23</ele>
  <time>2026-08-28T19:09:39Z</time>
  <course>351.77</course>
  <speed>12.96861596316276</speed>
  <fix>3d</fix>
</trkpt>
<trkpt lat="-35.3639381" lon="149.1653948">
  <ele>610.06</ele>
  <time>2026-08-28T19:09:39Z</time>
  <course>352.23</course>
  <speed>12.99</speed>
  <fix>3d</fix>
</trkpt>
<trkpt lat="-35.3639013" lon="149.1653888">
  <ele>610.23</ele>
  <time>2026-08-28T19:09:39Z</time>
  <course>351.72</course>
  <speed>12.969969159562408</speed>
  <fix>3d</fix>
</trkpt>
<trkpt lat="-35.363915" lon="149.1653909">
  <ele>610.06</ele>
  <time>2026-08-28T19:09:39Z</time>
  <course>352.18</course>
  <speed>13.0</speed>
  <fix>3d</fix>
</trkpt>
<trkpt lat="-35.3638781" lon="149.1653848">
  <ele>610.23</ele>
  <time>2026-08-28T19:09:39Z</time>
  <course>351.7</course>
  <speed>12.97987673285074</speed>
  <fix>3d</fix>
</trkpt>
<trkpt lat="-35.3638918" lon="149.165387">
  <ele>610.06</ele>
  <time>2026-08-28T19:09:39Z</time>
  <course>352.15</course>
  <speed>13.0</speed>
  <fix>3d</fix>
</trkpt>
<trkpt lat="-35.363855" lon="149.1653809">
  <ele>610.24</ele>
  <time>2026-08-28T19:09:39Z</time>
  <course>351.67</course>
  <speed>12.981236458827796</speed>
  <fix>3d</fix>
</trkpt>
<trkpt lat="-35.3638687" lon="149.1653831">
  <ele>610.06</ele>
  <time>2026-08-28T19:09:39Z</time>
  <course>352.12</course>
  <speed>13.0</speed>
  <fix>3d</fix>
</trkpt>
<trkpt lat="-35.3638319" lon="149.165377">
  <ele>610.23</ele>
  <time>2026-08-28T19:09:39Z</time>
  <course>351.68</course>
  <speed>12.981236458827796</speed>
  <fix>3d</fix>
</trkpt>
<trkpt lat="-35.3638455" lon="149.1653792">
  <ele>610.06</ele>
  <time>2026-08-28T19:09:39Z</time>
  <course>352.1</course>
  <speed>13.0</speed>
  <fix>3d</fix>
</trkpt>
<trkpt lat="-35.3638087" lon="149.165373">
  <ele>610.24</ele>
  <time>2026-08-28T19:09:39Z</time>
  <course>351.68</course>
  <speed>12.981236458827796</speed>
  <fix>3d</fix>
</trkpt>
<trkpt lat="-35.3638223" lon="149.1653752">
  <ele>610.06</ele>
  <time>2026-08-28T19:09:39Z</time>
  <course>352.09</course>
  <speed>13.0</speed>
  <fix>3d</fix>
</trkpt>
<trkpt lat="-35.3637854" lon="149.1653691">
  <ele>610.23</ele>
  <time>2026-08-28T19:09:39Z</time>
  <course>351.72</course>
  <speed>12.981236458827796</speed>
  <fix>3d</fix>
</trkpt>
<trkpt lat="-35.3637992" lon="149.1653713">
  <ele>610.07</ele>
  <time>2026-08-28T19:09:39Z</time>
  <course>352.08</course>
  <speed>12.99</speed>
  <fix>3d</fix>
</trkpt>
<trkpt lat="-35.3637623" lon="149.1653651">
  <ele>610.23</ele>
  <time>2026-08-28T19:09:39Z</time>
  <course>351.7</course>
  <speed>12.971329924105701</speed>
  <fix>3d</fix>
</trkpt>
<trkpt lat="-35.3637761" lon="149.1653673">
  <ele>610.07</ele>
  <time>2026-08-28T19:09:39Z</time>
  <course>352.08</course>
  <speed>12.99</speed>
  <fix>3d</fix>
</trkpt>
<trkpt lat="-35.3637392" lon="149.1653612">
  <ele>610.23</ele>
  <time>2026-08-28T19:09:39Z</time>
  <course>351.72</course>
  <speed>12.971329924105701</speed>
  <fix>3d</fix>
</trkpt>
<trkpt lat="-35.363753" lon="149.1653634">
  <ele>610.07</ele>
  <time>2026-08-28T19:09:39Z</time>
  <course>352.09</course>
  <speed>12.98</speed>
  <fix>3d</fix>
</trkpt>
<trkpt lat="-35.3637161" lon="149.1653573">
  <ele>610.23</ele>
  <time>2026-08-28T19:09:39Z</time>
  <course>351.72</course>
  <speed>12.971329924105701</speed>
  <fix>3d</fix>
</trkpt>
<trkpt lat="-35.3637299" lon="149.1653595">
  <ele>610.07</ele>
  <time>2026-08-28T19:09:39Z</time>
  <course>352.1</course>
  <speed>12.98</speed>
  <fix>3d</fix>
</trkpt>
<trkpt lat="-35.363693" lon="149.1653533">
  <ele>610.24</ele>
  <time>2026-08-28T19:09:39Z</time>
  <course>351.74</course>
  <speed>12.960061728248057</speed>
  <fix>3d</fix>
</trkpt>
<trkpt lat="-35.3637068" lon="149.1653555">
  <ele>610.07</ele>
  <time>2026-08-28T19:09:39Z</time>
  <course>352.12</course>
  <speed>12.98</speed>
  <fix>3d</fix>
</trkpt>
<trkpt lat="-35.3636699" lon="149.1653494">
  <ele>610.24</ele>
  <time>2026-08-28T19:09:39Z</time>
  <course>351.75</course>
  <speed>12.960061728248057</speed>
  <fix>3d</fix>
</trkpt>
<trkpt lat="-35.3636837" lon="149.1653516">
  <ele>610.08</ele>
  <time>2026-08-28T19:09:39Z</time>
  <course>352.13</course>
  <speed>12.97</speed>
  <fix>3d</fix>
</trkpt>
<trkpt lat="-35.3636468" lon="149.1653455">
  <ele>610.24</ele>
  <time>2026-08-28T19:09:39Z</time>
  <course>351.75</course>
  <speed>12.969969159562408</speed>
  <fix>3d</fix>
</trkpt>
<trkpt lat="-35.3636606" lon="149.1653477">
  <ele>610.08</ele>
  <time>2026-08-28T19:09:39Z</time>
  <course>352.15</course>
  <speed>12.97</speed>
  <fix>3d</fix>
</trkpt>
<trkpt lat="-35.3636236" lon="149.1653416">
  <ele>610.24</ele>
  <time>2026-08-28T19:09:39Z</time>
  <course>351.73</course>
  <speed>12.969969159562408</speed>
  <fix>3d</fix>
</trkpt>
<trkpt lat="-35.3636375" lon="149.1653438">
  <ele>610.07</ele>
  <time>2026-08-28T19:09:39Z</time>
  <course>352.16</course>
  <speed>12.98</speed>
  <fix>3d</fix>
</trkpt>
<trkpt lat="-35.3636006" lon="149.1653377">
  <ele>610.24</ele>
  <time>2026-08-28T19:09:39Z</time>
  <course>351.74</course>
  <speed>12.96861596316276</speed>
  <fix>3d</fix>
</trkpt>
<trkpt lat="-35.3636143" lon="149.1653399">
  <ele>610.07</ele>
  <time>2026-08-28T19:09:39Z</time>
  <course>352.17</course>
  <speed>12.98</speed>
  <fix>3d</fix>
</trkpt>
<trkpt lat="-35.3635774" lon="149.1653338">
  <ele>610.24</ele>
  <time>2026-08-28T19:09:39Z</time>
  <course>351.78</course>
  <speed>12.978524569457038</speed>
  <fix>3d</fix>
</trkpt>
<trkpt lat="-35.3635912" lon="149.165336">
  <ele>610.07</ele>
  <time>2026-08-28T19:09:39Z</time>
  <course>352.19</course>
  <speed>12.98</speed>
  <fix>3d</fix>
</trkpt>
<trkpt lat="-35.3635542" lon="149.1653299">
  <ele>610.24</ele>
  <time>2026-08-28T19:09:39Z</time>
  <course>351.8</course>
  <speed>12.978524569457038</speed>
  <fix>3d</fix>
</trkpt>
<trkpt lat="-35.3635681" lon="149.1653321">
  <ele>610.07</ele>
  <time>2026-08-28T19:09:39Z</time>
  <course>352.2</course>
  <speed>12.98</speed>
  <fix>3d</fix>
</trkpt>
<trkpt lat="-35.363531" lon="149.165326">
  <ele>610.24</ele>
  <time>2026-08-28T19:09:39Z</time>
  <course>351.8</course>
  <speed>12.978524569457038</speed>
  <fix>3d</fix>
</trkpt>
<trkpt lat="-35.363545" lon="149.1653283">
  <ele>610.07</ele>
  <time>2026-08-28T19:09:39Z</time>
  <course>352.21</course>
  <speed>12.98</speed>
  <fix>3d</fix>
</trkpt>
<trkpt lat="-35.3635079" lon="149.1653222">
  <ele>610.24</ele>
  <time>2026-08-28T19:09:39Z</time>
  <course>351.84</course>
  <speed>12.977179971010651</speed>
  <fix>3d</fix>
</trkpt>
<trkpt lat="-35.3635219" lon="149.1653244">
  <ele>610.07</ele>
  <time>2026-08-28T19:09:39Z</time>
  <course>352.22</course>
  <speed>12.98</speed>
  <fix>3d</fix>
</trkpt>
<trkpt lat="-35.3634849" lon="149.1653183">
  <ele>610.24</ele>
  <time>2026-08-28T19:09:39Z</time>
  <course>351.89</course>
  <speed>12.967270337276076</speed>
  <fix>3d</fix>
</trkpt>
<trkpt lat="-35.3634988" lon="149.1653205">
  <ele>610.07</ele>
  <time>2026-08-28T19:09:39Z</time>
  <course>352.23</course>
  <speed>12.98</speed>
  <fix>3d</fix>
</trkpt>
<trkpt lat="-35.3634619" lon="149.1653145">
  <ele>610.24</ele>
  <time>2026-08-28T19:09:39Z</time>
  <course>351.87</course>
  <speed>12.967270337276076</speed>
  <fix>3d</fix>
</trkpt>
<trkpt lat="-35.3634757" lon="149.1653167">
  <ele>610.07</ele>
  <time>2026-08-28T19:09:39Z</time>
  <course>352.25</course>
  <speed>12.97</speed>
  <fix>3d</fix>
</trkpt>
<trkpt lat="-35.3634388" lon="149.1653106">
  <ele>610.24</ele>
  <time>2026-08-28T19:09:39Z</time>
  <course>351.84</course>
  <speed>12.967270337276076</speed>
  <fix>3d</fix>
</trkpt>
<trkpt lat="-35.3634526" lon="149.1653128">
  <ele>610.07</ele>
  <time>2026-08-28T19:09:39Z</time>
  <course>352.26</course>
  <speed>12.97</speed>
  <fix>3d</fix>
</trkpt>
<trkpt lat="-35.3634158" lon="149.1653068">
  <ele>610.23</ele>
  <time>2026-08-28T19:09:39Z</time>
  <course>351.78</course>
  <speed>12.977179971010651</speed>
  <fix>3d</fix>
</trkpt>
<trkpt lat="-35.3634295" lon="149.1653089">
  <ele>610.07</ele>
  <time>2026-08-28T19:09:39Z</time>
  <course>352.26</course>
  <speed>12.98</speed>
  <fix>3d</fix>
</trkpt>
<trkpt lat="-35.3633926" lon="149.1653029">
  <ele>610.22</ele>
  <time>2026-08-28T19:09:39Z</time>
  <course>351.72</course>
  <speed>12.987089743279668</speed>
  <fix>3d</fix>
</trkpt>
<trkpt lat="-35.3634064" lon="149.1653051">
  <ele>610.06</ele>
  <time>2026-08-28T19:09:39Z</time>
  <course>352.25</course>
  <speed>12.99</speed>
  <fix>3d</fix>
</trkpt>
<trkpt lat="-35.3633694" lon="149.165299">
  <ele>610.22</ele>
  <time>2026-08-28T19:09:39Z</time>
  <course>351.65</course>
  <speed>13.008251227586282</speed>
  <fix>3d</fix>
</trkpt>
<trkpt lat="-35.3633832" lon="149.1653012">
  <ele>610.06</ele>
  <time>2026-08-28T19:09:39Z</time>
  <course>352.24</course>
  <speed>13.0</speed>
  <fix>3d</fix>
</trkpt>
<trkpt lat="-35.3633463" lon="149.1652951">
  <ele>610.22</ele>
  <time>2026-08-28T19:09:39Z</time>
  <course>351.64</course>
  <speed>13.009600301315947</speed>
  <fix>3d</fix>
</trkpt>
<trkpt lat="-35.36336" lon="149.1652974">
  <ele>610.06</ele>
  <time>2026-08-28T19:09:39Z</time>
  <course>352.23</course>
  <speed>13.01</speed>
  <fix>3d</fix>
</trkpt>
<trkpt lat="-35.3633231" lon="149.1652912">
  <ele>610.23</ele>
  <time>2026-08-28T19:09:39Z</time>
  <course>351.66</course>
  <speed>13.009600301315947</speed>
  <fix>3d</fix>
</trkpt>
<trkpt lat="-35.3633368" lon="149.1652935">
  <ele>610.06</ele>
  <time>2026-08-28T19:09:39Z</time>
  <course>352.21</course>
  <speed>13.02</speed>
  <fix>3d</fix>
</trkpt>
<trkpt lat="-35.3632998" lon="149.1652873">
  <ele>610.24</ele>
  <time>2026-08-28T19:09:39Z</time>
  <course>351.78</course>
  <speed>12.989784447788193</speed>
  <fix>3d</fix>
</trkpt>
<trkpt lat="-35.3633136" lon="149.1652896">
  <ele>610.07</ele>
  <time>2026-08-28T19:09:39Z</time>
  <course>352.2</course>
  <speed>13.01</speed>
  <fix>3d</fix>
</trkpt>
<trkpt lat="-35.3632768" lon="149.1652835">
  <ele>610.26</ele>
  <time>2026-08-28T19:09:39Z</time>
  <course>352.09</course>
  <speed>12.91907504429013</speed>
  <fix>3d</fix>
</trkpt>
<trkpt lat="-35.3632905" lon="149.1652857">
  <ele>610.08</ele>
  <time>2026-08-28T19:09:39Z</time>
  <course>352.2</course>
  <speed>12.97</speed>
  <fix>3d</fix>
</trkpt>
<trkpt lat="-35.3632539" lon="149.1652796">
  <ele>610.3</ele>
  <time>2026-08-28T19:09:39Z</time>
  <course>352.63</course>
  <speed>12.806033734142668</speed>
  <fix>3d</fix>
</trkpt>
<trkpt lat="-35.3632675" lon="149.1652819">
  <ele>610.1</ele>
  <time>2026-08-28T19:09:39Z</time>
  <course>352.21</course>
  <speed>12.9</speed>
  <fix>3d</fix>
</trkpt>
<trkpt lat="-35.3632312" lon="149.1652759">
  <ele>610.34</ele>
  <time>2026-08-28T19:09:39Z</time>
  <course>353.32</course>
  <speed>12.633546612095909</speed>
  <fix>3d</fix>
</trkpt>
<trkpt lat="-35.3632446" lon="149.1652781">
  <ele>610.14</ele>
  <time>2026-08-28T19:09:39Z</time>
  <course>352.25</course>
  <speed>12.76</speed>
  <fix>3d</fix>
</trkpt>
<trkpt lat="-35.3632089" lon="149.1652722">
  <ele>610.38</ele>
  <time>2026-08-28T19:09:39Z</time>
  <course>354.08</course>
  <speed>12.397620739480619</speed>
  <fix>3d</fix>
</trkpt>
<trkpt lat="-35.3632221" lon="149.1652743">
  <ele>610.17</ele>
  <time>2026-08-28T19:09:39Z</time>
  <course>352.33</course>
  <speed>12.57</speed>
  <fix>3d</fix>
</trkpt>
<trkpt lat="-35.3631871" lon="149.1652687">
  <ele>610.42</ele>
  <time>2026-08-28T19:09:39Z</time>
  <course>354.85</course>
  <speed>12.122099653112905</speed>
  <fix>3d</fix>
</trkpt>
<trkpt lat="-35.3631999" lon="149.1652707">
  <ele>610.2</ele>
  <time>2026-08-28T19:09:39Z</time>
  <course>352.46</course>
  <speed>12.33</speed>
  <fix>3d</fix>
</trkpt>
<trkpt lat="-35.3631657" lon="149.1652653">
  <ele>610.46</ele>
  <time>2026-08-28T19:09:39Z</time>
  <course>355.55</course>
  <speed>11.804414428509363</speed>
  <fix>3d</fix>
</trkpt>
<trkpt lat="-35.3631781" lon="149.1652672">
  <ele>610.24</ele>
  <time>2026-08-28T19:09:39Z</time>
  <course>352.61</course>
  <speed>12.04</speed>
  <fix>3d</fix>
</trkpt>
<trkpt lat="-35.3631449" lon="149.165262">
  <ele>610.48</ele>
  <time>2026-08-28T19:09:39Z</time>
  <course>356.2</course>
  <speed>11.438483291066172</speed>
  <fix>3d</fix>
</trkpt>
<trkpt lat="-35.363157" lon="149.1652639">
  <ele>610.27</ele>
  <time>2026-08-28T19:09:39Z</time>
  <course>352.78</course>
  <speed>11.71</speed>
  <fix>3d</fix>
</trkpt>
<trkpt lat="-35.3631248" lon="149.165259">
  <ele>610.49</ele>
  <time>2026-08-28T19:09:39Z</time>
  <course>356.77</course>
  <speed>11.031686181178289</speed>
  <fix>3d</fix>
</trkpt>
<trkpt lat="-35.3631364" lon="149.1652607">
  <ele>610.29</ele>
  <time>2026-08-28T19:09:39Z</time>
  <course>352.95</course>
  <speed>11.32</speed>
  <fix>3d</fix>
</trkpt>
<trkpt lat="-35.3631054" lon="149.1652561">
  <ele>610.5</ele>
  <time>2026-08-28T19:09:39Z</time>
  <course>357.26</course>
  <speed>10.575329782091904</speed>
  <fix>3d</fix>
</trkpt>
<trkpt lat="-35.3631166" lon="149.1652577">
  <ele>610.3</ele>
  <time>2026-08-28T19:09:39Z</time>
  <course>353.11</course>
  <speed>10.89</speed>
  <fix>3d</fix>
</trkpt>
<trkpt lat="-35.3630868" lon="149.1652534">
  <ele>610.49</ele>
  <time>2026-08-28T19:09:39Z</time>
  <course>357.66</course>
  <speed>10.070556091894826</speed>
  <fix>3d</fix>
</trkpt>
<trkpt lat="-35.3630976" lon="149.1652549">
  <ele>610.3</ele>
  <time>2026-08-28T19:09:39Z</time>
  <course>353.24</course>
  <speed>10.42</speed>
  <fix>3d</fix>
</trkpt>
<trkpt lat="-35.3630692" lon="149.1652508">
  <ele>610.48</ele>
  <time>2026-08-28T19:09:39Z</time>
  <course>357.97</course>
  <speed>9.524898949595213</speed>
  <fix>3d</fix>
</trkpt>
<trkpt lat="-35.3630794" lon="149.1652523">
  <ele>610.29</ele>
  <time>2026-08-28T19:09:39Z</time>
  <course>353.34</course>
  <speed>9.9</speed>
  <fix>3d</fix>
</trkpt>
<trkpt lat="-35.3630527" lon="149.1652485">
  <ele>610.46</ele>
  <time>2026-08-28T19:09:39Z</time>
  <course>358.15</course>
  <speed>8.950625676454132</speed>
  <fix>3d</fix>
</trkpt>
<trkpt lat="-35.3630622" lon="149.1652499">
  <ele>610.28</ele>
  <time>2026-08-28T19:09:39Z</time>
  <course>353.41</course>
  <speed>9.34</speed>
  <fix>3d</fix>
</trkpt>
<trkpt lat="-35.3630371" lon="149.1652463">
  <ele>610.43</ele>
  <time>2026-08-28T19:09:39Z</time>
  <course>358.14</course>
  <speed>8.367586270842985</speed>
  <fix>3d</fix>
</trkpt>
<trkpt lat="-35.3630461" lon="149.1652475">
  <ele>610.25</ele>
  <time>2026-08-28T19:09:39Z</time>
  <course>353.43</course>
  <speed>8.76</speed>
  <fix>3d</fix>
</trkpt>
<trkpt lat="-35.3630226" lon="149.1652442">
  <ele>610.39</ele>
  <time>2026-08-28T19:09:39Z</time>
  <course>357.95</course>
  <speed>7.794485229955857</speed>
  <fix>3d</fix>
</trkpt>
<trkpt lat="-35.363031" lon="149.1652455">
  <ele>610.22</ele>
  <time>2026-08-28T19:09:39Z</time>
  <course>353.42</course>
  <speed>8.17</speed>
  <fix>3d</fix>
</trkpt>
<trkpt lat="-35.3630091" lon="149.1652422">
  <ele>610.34</ele>
  <time>2026-08-28T19:09:39Z</time>
  <course>357.63</course>
  <speed>7.242444338757462</speed>
  <fix>3d</fix>
</trkpt>
<trkpt lat="-35.3630169" lon="149.1652435">
  <ele>610.19</ele>
  <time>2026-08-28T19:09:39Z</time>
  <course>353.35</course>
  <speed>7.6</speed>
  <fix>3d</fix>
</trkpt>
<trkpt lat="-35.3629966" lon="149.1652404">
  <ele>610.3</ele>
  <time>2026-08-28T19:09:39Z</time>
  <course>357.1</course>
  <speed>6.701596824638139</speed>
  <fix>3d</fix>
</trkpt>
<trkpt lat="-35.3630038" lon="149.1652416">
  <ele>610.14</ele>
  <time>2026-08-28T19:09:39Z</time>
  <course>353.19</course>
  <speed>7.04</speed>
  <fix>3d</fix>
</trkpt>
<trkpt lat="-35.362985" lon="149.1652386">
  <ele>610.26</ele>
  <time>2026-08-28T19:09:39Z</time>
  <course>356.46</course>
  <speed>6.173370230271306</speed>
  <fix>3d</fix>
</trkpt>
<trkpt lat="-35.3629918" lon="149.1652398">
  <ele>610.1</ele>
  <time>2026-08-28T19:09:39Z</time>
  <course>352.93</course>
  <speed>6.5</speed>
  <fix>3d</fix>
</trkpt>
<trkpt lat="-35.3629745" lon="149.1652369">
  <ele>610.22</ele>
  <time>2026-08-28T19:09:39Z</time>
  <course>355.73</course>
  <speed>5.655448700147495</speed>
  <fix>3d</fix>
</trkpt>
<trkpt lat="-35.3629806" lon="149.165238">
  <ele>610.06</ele>
  <time>2026-08-28T19:09:39Z</time>
  <course>352.53</course>
  <speed>5.97</speed>
  <fix>3d</fix>
</trkpt>
<trkpt lat="-35.3629649" lon="149.1652352">
  <ele>610.2</ele>
  <time>2026-08-28T19:09:39Z</time>
  <course>354.92</course>
  <speed>5.157799918569932</speed>
  <fix>3d</fix>
</trkpt>
<trkpt lat="-35.3629704" lon="149.1652364">
  <ele>610.03</ele>
  <time>2026-08-28T19:09:39Z</time>
  <course>352.0</course>
  <speed>5.45</speed>
  <fix>3d</fix>
</trkpt>
<trkpt lat="-35.3629561" lon="149.1652336">
  <ele>610.18</ele>
  <time>2026-08-28T19:09:39Z</time>
  <course>354.06</course>
  <speed>4.682093548830481</speed>
  <fix>3d</fix>
</trkpt>
<trkpt lat="-35.3629612" lon="149.1652347">
  <ele>610.01</ele>
  <time>2026-08-28T19:09:39Z</time>
  <course>351.36</course>
  <speed>4.96</speed>
  <fix>3d</fix>
</trkpt>
<trkpt lat="-35.3629482" lon="149.165232">
  <ele>610.17</ele>
  <time>2026-08-28T19:09:39Z</time>
  <course>353.14</course>
  <speed>4.205615293866047</speed>
  <fix>3d</fix>
</trkpt>
<trkpt lat="-35.3629528" lon="149.1652331">
  <ele>609.99</ele>
  <time>2026-08-28T19:09:39Z</time>
  <course>350.62</course>
  <speed>4.48</speed>
  <fix>3d</fix>
</trkpt>
<trkpt lat="-35.3629412" lon="149.1652304">
  <ele>610.17</ele>
  <time>2026-08-28T19:09:39Z</time>
  <course>352.16</course>
  <speed>3.7478660595063955</speed>
  <fix>3d</fix>
</trkpt>
<trkpt lat="-35.3629453" lon="149.1652315">
  <ele>609.97</ele>
  <time>2026-08-28T19:09:39Z</time>
  <course>349.78</course>
  <speed>4.01</speed>
  <fix>3d</fix>
</trkpt>
<trkpt lat="-35.362935" lon="149.165229">
  <ele>610.16</ele>
  <time>2026-08-28T19:09:39Z</time>
  <course>351.1</course>
  <speed>3.291018079561399</speed>
  <fix>3d</fix>
</trkpt>
<trkpt lat="-35.3629386" lon="149.1652299">
  <ele>609.97</ele>
  <time>2026-08-28T19:09:39Z</time>
  <course>348.85</course>
  <speed>3.54</speed>
  <fix>3d</fix>
</trkpt>
<trkpt lat="-35.3629297" lon="149.1652275">
  <ele>610.16</ele>
  <time>2026-08-28T19:09:39Z</time>
  <course>349.97</course>
  <speed>2.8429737951659</speed>
  <fix>3d</fix>
</trkpt>
<trkpt lat="-35.3629327" lon="149.1652285">
  <ele>609.97</ele>
  <time>2026-08-28T19:09:39Z</time>
  <course>347.8</course>
  <speed>3.09</speed>
  <fix>3d</fix>
</trkpt>
<trkpt lat="-35.3629251" lon="149.1652262">
  <ele>610.16</ele>
  <time>2026-08-28T19:09:39Z</time>
  <course>348.66</course>
  <speed>2.3938462774372127</speed>
  <fix>3d</fix>
</trkpt>
<trkpt lat="-35.3629277" lon="149.165227">
  <ele>609.97</ele>
  <time>2026-08-28T19:09:39Z</time>
  <course>346.59</course>
  <speed>2.64</speed>
  <fix>3d</fix>
</trkpt>
<trkpt lat="-35.3629213" lon="149.165225">
  <ele>610.17</ele>
  <time>2026-08-28T19:09:39Z</time>
  <course>347.16</course>
  <speed>1.972536438193221</speed>
  <fix>3d</fix>
</trkpt>
<trkpt lat="-35.3629235" lon="149.1652257">
  <ele>609.97</ele>
  <time>2026-08-28T19:09:39Z</time>
  <course>345.18</course>
  <speed>2.2</speed>
  <fix>3d</fix>
</trkpt>
<trkpt lat="-35.3629183" lon="149.1652239">
  <ele>610.17</ele>
  <time>2026-08-28T19:09:39Z</time>
  <course>345.48</course>
  <speed>1.5814550262337528</speed>
  <fix>3d</fix>
</trkpt>
<trkpt lat="-35.36292" lon="149.1652246">
  <ele>609.97</ele>
  <time>2026-08-28T19:09:39Z</time>
  <course>343.56</course>
  <speed>1.78</speed>
  <fix>3d</fix>
</trkpt>
<trkpt lat="-35.3629159" lon="149.165223">
  <ele>610.17</ele>
  <time>2026-08-28T19:09:39Z</time>
  <course>343.72</course>
  <speed>1.2270289320142374</speed>
  <fix>3d</fix>
</trkpt>
<trkpt lat="-35.3629174" lon="149.1652236">
  <ele>609.97</ele>
  <time>2026-08-28T19:09:39Z</time>
  <course>341.77</course>
  <speed>1.4</speed>
  <fix>3d</fix>
</trkpt>
<trkpt lat="-35.3629141" lon="149.1652222">
  <ele>610.17</ele>
  <time>2026-08-28T19:09:39Z</time>
  <course>341.94</course>
  <speed>0.9304837451562494</speed>
  <fix>3d</fix>
</trkpt>
<trkpt lat="-35.3629153" lon="149.1652226">
  <ele>609.97</ele>
  <time>2026-08-28T19:09:39Z</time>
  <course>339.79</course>
  <speed>1.07</speed>
  <fix>3d</fix>
</trkpt>
<trkpt lat="-35.3629129" lon="149.1652215">
  <ele>610.16</ele>
  <time>2026-08-28T19:09:39Z</time>
  <course>341.19</course>
  <speed>0.6854195795277518</speed>
  <fix>3d</fix>
</trkpt>
<trkpt lat="-35.3629137" lon="149.1652219">
  <ele>609.97</ele>
  <time>2026-08-28T19:09:39Z</time>
  <course>337.15</course>
  <speed>0.78</speed>
  <fix>3d</fix>
</trkpt>
<trkpt lat="-35.362912" lon="149.165221">
  <ele>610.16</ele>
  <time>2026-08-28T19:09:39Z</time>
  <course>341.27</course>
  <speed>0.474236228055175</speed>
  <fix>3d</fix>
</trkpt>
<trkpt lat="-35.3629126" lon="149.1652213">
  <ele>609.97</ele>
  <time>2026-08-28T19:09:39Z</time>
  <course>333.73</course>
  <speed>0.55</speed>
  <fix>3d</fix>
</trkpt>
<trkpt lat="-35.3629114" lon="149.1652206">
  <ele>610.16</ele>
  <time>2026-08-28T19:09:39Z</time>
  <course>341.2</course>
  <speed>0.304138126514911</speed>
  <fix>3d</fix>
</trkpt>
<trkpt lat="-35.3629119" lon="149.1652209">
  <ele>609.97</ele>
  <time>2026-08-28T19:09:39Z</time>
  <course>329.64</course>
  <speed>0.35</speed>
  <fix>3d</fix>
</trkpt>
<trkpt lat="-35.3629111" lon="149.1652204">
  <ele>610.16</ele>
  <time>2026-08-28T19:09:39Z</time>
  <course>341.12</course>
  <speed>0.1835755975068582</speed>
  <fix>3d</fix>
</trkpt>
<trkpt lat="-35.3629115" lon="149.1652205">
  <ele>609.97</ele>
  <time>2026-08-28T19:09:39Z</time>
  <course>323.46</course>
  <speed>0.21</speed>
  <fix>3d</fix>
</trkpt>
<trkpt lat="-35.362911" lon="149.1652202">
  <ele>610.16</ele>
  <time>2026-08-28T19:09:39Z</time>
  <course>341.06</course>
  <speed>0.09433981132056603</speed>
  <fix>3d</fix>
</trkpt>
<trkpt lat="-35.3629113" lon="149.1652202">
  <ele>609.98</ele>
  <time>2026-08-28T19:09:39Z</time>
  <course>311.89</course>
  <speed>0.1</speed>
  <fix>3d</fix>
</trkpt>
<trkpt lat="-35.3629109" lon="149.1652201">
  <ele>610.18</ele>
  <time>2026-08-28T19:09:39Z</time>
  <course>341.01</course>
  <speed>0.044721359549995794</speed>
  <fix>3d</fix>
</trkpt>
<trkpt lat="-35.3629112" lon="149.1652202">
  <ele>609.99</ele>
  <time>2026-08-28T19:09:39Z</time>
  <course>281.89</course>
  <speed>0.03</speed>
  <fix>3d</fix>
</trkpt>
<trkpt lat="-35.362911" lon="149.1652201">
  <ele>610.19</ele>
  <time>2026-08-28T19:09:39Z</time>
  <course>340.95</course>
  <speed>0.04</speed>
  <fix>3d</fix>
</trkpt>
<trkpt lat="-35.3629112" lon="149.1652201">
  <ele>610.0</ele>
  <time>2026-08-28T19:09:39Z</time>
  <course>207.78</course>
  <speed>0.01</speed>
  <fix>3d</fix>
</trkpt>
<trkpt lat="-35.362911" lon="149.1652202">
  <ele>610.2</ele>
  <time>2026-08-28T19:09:39Z</time>
  <course>340.92</course>
  <speed>0.07280109889280519</speed>
  <fix>3d</fix>
</trkpt>
<trkpt lat="-35.3629112" lon="149.1652201">
  <ele>610.01</ele>
  <time>2026-08-28T19:09:39Z</time>
  <course>115.27</course>
  <speed>0.01</speed>
  <fix>3d</fix>
</trkpt>
<trkpt lat="-35.3629109" lon="149.1652202">
  <ele>610.21</ele>
  <time>2026-08-28T19:09:39Z</time>
  <course>340.86</course>
  <speed>0.12165525060596438</speed>
  <fix>3d</fix>
</trkpt>
<trkpt lat="-35.3629112" lon="149.1652202">
  <ele>610.02</ele>
  <time>2026-08-28T19:09:39Z</time>
  <course>36.95</course>
  <speed>0.04</speed>
  <fix>3d</fix>
</trkpt>
<trkpt lat="-35.3629107" lon="149.1652202">
  <ele>610.2</ele>
  <time>2026-08-28T19:09:39Z</time>
  <course>341.18</course>
  <speed>0.18110770276274835</speed>
  <fix>3d</fix>
</trkpt>
<trkpt lat="-35.3629111" lon="149.1652202">
  <ele>610.03</ele>
  <time>2026-08-28T19:09:39Z</time>
  <course>17.77</course>
  <speed>0.09</speed>
  <fix>3d</fix>
</trkpt>
<trkpt lat="-35.3629104" lon="149.1652202">
  <ele>610.16</ele>
  <time>2026-08-28T19:09:39Z</time>
  <course>341.58</course>
  <speed>0.22090722034374521</speed>
  <fix>3d</fix>
</trkpt>
<trkpt lat="-35.3629109" lon="149.1652202">
  <ele>610.01</ele>
  <time>2026-08-28T19:09:39Z</time>
  <course>9.92</course>
  <speed>0.15</speed>
  <fix>3d</fix>
</trkpt>
<trkpt lat="-35.3629101" lon="149.1652203">
  <ele>610.08</ele>
  <time>2026-08-28T19:09:39Z</time>
  <course>341.93</course>
  <speed>0.24020824298928628</speed>
  <fix>3d</fix>
</trkpt>
<trkpt lat="-35.3629106" lon="149.1652202">
  <ele>609.95</ele>
  <time>2026-08-28T19:09:39Z</time>
  <course>6.16</course>
  <speed>0.19</speed>
  <fix>3d</fix>
</trkpt>
<trkpt lat="-35.3629097" lon="149.1652203">
  <ele>609.95</ele>
  <time>2026-08-28T19:09:39Z</time>
  <course>342.24</course>
  <speed>0.2501999200639361</speed>
  <fix>3d</fix>
</trkpt>
<trkpt lat="-35.3629102" lon="149.1652202">
  <ele>609.86</ele>
  <time>2026-08-28T19:09:39Z</time>
  <course>4.52</course>
  <speed>0.22</speed>
  <fix>3d</fix>
</trkpt>
<trkpt lat="-35.3629093" lon="149.1652203">
  <ele>609.78</ele>
  <time>2026-08-28T19:09:39Z</time>
  <course>342.5</course>
  <speed>0.25079872407968906</speed>
  <fix>3d</fix>
</trkpt>
<trkpt lat="-35.3629098" lon="149.1652203">
  <ele>609.72</ele>
  <time>2026-08-28T19:09:39Z</time>
  <course>4.6</course>
  <speed>0.23</speed>
  <fix>3d</fix>
</trkpt>
<trkpt lat="-35.3629089" lon="149.1652204">
  <ele>609.56</ele>
  <time>2026-08-28T19:09:39Z</time>
  <course>342.73</course>
  <speed>0.23194827009486402</speed>
  <fix>3d</fix>
</trkpt>
<trkpt lat="-35.3629094" lon="149.1652203">
  <ele>609.53</ele>
  <time>2026-08-28T19:09:39Z</time>
  <course>6.17</course>
  <speed>0.22</speed>
  <fix>3d</fix>
</trkpt>
<trkpt lat="-35.3629086" lon="149.1652205">
  <ele>609.29</ele>
  <time>2026-08-28T19:09:39Z</time>
  <course>342.92</course>
  <speed>0.21377558326431947</speed>
  <fix>3d</fix>
</trkpt>
<trkpt lat="-35.362909" lon="149.1652204">
  <ele>609.3</ele>
  <time>2026-08-28T19:09:39Z</time>
  <course>9.1</course>
  <speed>0.21</speed>
  <fix>3d</fix>
</trkpt>
<trkpt lat="-35.3629083" lon="149.1652206">
  <ele>608.98</ele>
  <time>2026-08-28T19:09:39Z</time>
  <course>342.91</course>
  <speed>0.18681541692269404</speed>
  <fix>3d</fix>
</trkpt>
<trkpt lat="-35.3629086" lon="149.1652205">
  <ele>609.02</ele>
  <time>2026-08-28T19:09:39Z</time>
  <course>13.77</course>
  <speed>0.2</speed>
  <fix>3d</fix>
</trkpt>
<trkpt lat="-35.362908" lon="149.1652207">
  <ele>608.65</ele>
  <time>2026-08-28T19:09:39Z</time>
  <course>342.81</course>
  <speed>0.15652475842498528</speed>
  <fix>3d</fix>
</trkpt>
<trkpt lat="-35.3629083" lon="149.1652207">
  <ele>608.72</ele>
  <time>2026-08-28T19:09:39Z</time>
  <course>20.63</course>
  <speed>0.18</speed>
  <fix>3d</fix>
</trkpt>
<trkpt lat="-35.3629078" lon="149.1652209">
  <ele>608.32</ele>
  <time>2026-08-28T19:09:39Z</time>
  <course>342.67</course>
  <speed>0.12806248474865697</speed>
  <fix>3d</fix>
</trkpt>
<trkpt lat="-35.362908" lon="149.1652208">
  <ele>608.39</ele>
  <time>2026-08-28T19:09:39Z</time>
  <course>30.18</course>
  <speed>0.15</speed>
  <fix>3d</fix>
</trkpt>
<trkpt lat="-35.3629077" lon="149.1652211">
  <ele>607.99</ele>
  <time>2026-08-28T19:09:39Z</time>
  <course>342.55</course>
  <speed>0.10816653826391968</speed>
  <fix>3d</fix>
</trkpt>
<trkpt lat="-35.3629078" lon="149.1652209">
  <ele>608.06</ele>
  <time>2026-08-28T19:09:39Z</time>
  <course>43.5</course>
  <speed>0.13</speed>
  <fix>3d</fix>
</trkpt>
<trkpt lat="-35.3629076" lon="149.1652213">
  <ele>607.66</ele>
  <time>2026-08-28T19:09:39Z</time>
  <course>342.43</course>
  <speed>0.1004987562112089</speed>
  <fix>3d</fix>
</trkpt>
<trkpt lat="-35.3629076" lon="149.1652212">
  <ele>607.75</ele>
  <time>2026-08-28T19:09:39Z</time>
  <course>61.85</course>
  <speed>0.11</speed>
  <fix>3d</fix>
</trkpt>
<trkpt lat="-35.3629076" lon="149.1652215">
  <ele>607.35</ele>
  <time>2026-08-28T19:09:39Z</time>
  <course>342.33</course>
  <speed>0.1019803902718557</speed>
  <fix>3d</fix>
</trkpt>
<trkpt lat="-35.3629076" lon="149.1652215">
  <ele>607.43</ele>
  <time>2026-08-28T19:09:39Z</time>
  <course>84.6</course>
  <speed>0.1</speed>
  <fix>3d</fix>
</trkpt>
<trkpt lat="-35.3629077" lon="149.1652217">
  <ele>607.04</ele>
  <time>2026-08-28T19:09:39Z</time>
  <course>342.28</course>
  <speed>0.11661903789690602</speed>
  <fix>3d</fix>
</trkpt>
<trkpt lat="-35.3629076" lon="149.1652217">
  <ele>607.12</ele>
  <time>2026-08-28T19:09:39Z</time>
  <course>107.11</course>
  <speed>0.1</speed>
  <fix>3d</fix>
</trkpt>
<trkpt lat="-35.3629077" lon="149.165222">
  <ele>606.73</ele>
  <time>2026-08-28T19:09:39Z</time>
  <course>342.23</course>
  <speed>0.1345362404707371</speed>
  <fix>3d</fix>
</trkpt>
<trkpt lat="-35.3629077" lon="149.1652219">
  <ele>606.81</ele>
  <time>2026-08-28T19:09:39Z</time>
  <course>124.8</course>
  <speed>0.12</speed>
  <fix>3d</fix>
</trkpt>
<trkpt lat="-35.3629079" lon="149.1652222">
  <ele>606.43</ele>
  <time>2026-08-28T19:09:39Z</time>
  <course>342.18</course>
  <speed>0.15264337522473748</speed>
  <fix>3d</fix>
</trkpt>
<trkpt lat="-35.3629078" lon="149.1652221">
  <ele>606.52</ele>
  <time>2026-08-28T19:09:39Z</time>
  <course>137.24</course>
  <speed>0.13</speed>
  <fix>3d</fix>
</trkpt>
<trkpt lat="-35.3629082" lon="149.1652223">
  <ele>606.13</ele>
  <time>2026-08-28T19:09:39Z</time>
  <course>342.08</course>
  <speed>0.16552945357246848</speed>
  <fix>3d</fix>
</trkpt>
<trkpt lat="-35.362908" lon="149.1652222">
  <ele>606.22</ele>
  <time>2026-08-28T19:09:39Z</time>
  <course>146.11</course>
  <speed>0.15</speed>
  <fix>3d</fix>
</trkpt>
<trkpt lat="-35.3629084" lon="149.1652225">
  <ele>605.83</ele>
  <time>2026-08-28T19:09:39Z</time>
  <course>342.0</course>
  <speed>0.18027756377319945</speed>
  <fix>3d</fix>
</trkpt>
<trkpt lat="-35.3629082" lon="149.1652225">
  <ele>605.92</ele>
  <time>2026-08-28T19:09:39Z</time>
  <course>152.91</course>
  <speed>0.17</speed>
  <fix>3d</fix>
</trkpt>
<trkpt lat="-35.3629087" lon="149.1652226">
  <ele>605.53</ele>
  <time>2026-08-28T19:09:39Z</time>
  <course>341.95</course>
  <speed>0.18681541692269404</speed>
  <fix>3d</fix>
</trkpt>
<trkpt lat="-35.3629085" lon="149.1652226">
  <ele>605.63</ele>
  <time>2026-08-28T19:09:39Z</time>
  <course>158.42</course>
  <speed>0.17</speed>
  <fix>3d</fix>
</trkpt>
<trkpt lat="-35.362909" lon="149.1652228">
  <ele>605.23</ele>
  <time>2026-08-28T19:09:39Z</time>
  <course>341.93</course>
  <speed>0.18439088914585774</speed>
  <fix>3d</fix>
</trkpt>
<trkpt lat="-35.3629088" lon="149.1652228">
  <ele>605.33</ele>
  <time>2026-08-28T19:09:39Z</time>
  <course>163.04</course>
  <speed>0.18</speed>
  <fix>3d</fix>
</trkpt>
<trkpt lat="-35.3629094" lon="149.1652228">
  <ele>604.93</ele>
  <time>2026-08-28T19:09:39Z</time>
  <course>341.89</course>
  <speed>0.1824828759089466</speed>
  <fix>3d</fix>
</trkpt>
<trkpt lat="-35.3629092" lon="149.1652229">
  <ele>605.04</ele>
  <time>2026-08-28T19:09:39Z</time>
  <course>167.14</course>
  <speed>0.18</speed>
  <fix>3d</fix>
</trkpt>
<trkpt lat="-35.3629097" lon="149.1652229">
  <ele>604.64</ele>
  <time>2026-08-28T19:09:39Z</time>
  <course>341.85</course>
  <speed>0.18027756377319945</speed>
  <fix>3d</fix>
</trkpt>
<trkpt lat="-35.3629095" lon="149.165223">
  <ele>604.74</ele>
  <time>2026-08-28T19:09:39Z</time>
  <course>171.09</course>
  <speed>0.18</speed>
  <fix>3d</fix>
</trkpt>
<trkpt lat="-35.36291" lon="149.1652229">
  <ele>604.35</ele>
  <time>2026-08-28T19:09:40Z</time>
  <course>341.83</course>
  <speed>0.17</speed>
  <fix>3d</fix>
</trkpt>
<trkpt lat="-35.3629098" lon="149.165223">
  <ele>604.44</ele>
  <time>2026-08-28T19:09:40Z</time>
  <course>175.0</course>
  <speed>0.17</speed>
  <fix>3d</fix>
</trkpt>
<trkpt lat="-35.3629103" lon="149.1652229">
  <ele>604.05</ele>
  <time>2026-08-28T19:09:40Z</time>
  <course>341.79</course>
  <speed>0.16</speed>
  <fix>3d</fix>
</trkpt>
<trkpt lat="-35.3629101" lon="149.1652231">
  <ele>604.15</ele>
  <time>2026-08-28T19:09:40Z</time>
  <course>178.91</course>
  <speed>0.16</speed>
  <fix>3d</fix>
</trkpt>
<trkpt lat="-35.3629105" lon="149.165223">
  <ele>603.75</ele>
  <time>2026-08-28T19:09:40Z</time>
  <course>341.76</course>
  <speed>0.140356688476182</speed>
  <fix>3d</fix>
</trkpt>
<trkpt lat="-35.3629104" lon="149.165223">
  <ele>603.86</ele>
  <time>2026-08-28T19:09:40Z</time>
  <course>183.23</course>
  <speed>0.14</speed>
  <fix>3d</fix>
</trkpt>
<trkpt lat="-35.3629108" lon="149.165223">
  <ele>603.45</ele>
  <time>2026-08-28T19:09:40Z</time>
  <course>341.72</course>
  <speed>0.12165525060596438</speed>
  <fix>3d</fix>
</trkpt>
<trkpt lat="-35.3629107" lon="149.165223">
  <ele>603.56</ele>
  <time>2026-08-28T19:09:40Z</time>
  <course>188.26</course>
  <speed>0.13</speed>
  <fix>3d</fix>
</trkpt>
<trkpt lat="-35.362911" lon="149.1652229">
  <ele>603.16</ele>
  <time>2026-08-28T19:09:40Z</time>
  <course>341.68</course>
  <speed>0.1044030650891055</speed>
  <fix>3d</fix>
</trkpt>
<trkpt lat="-35.3629109" lon="149.165223">
  <ele>603.26</ele>
  <time>2026-08-28T19:09:40Z</time>
  <course>194.25</course>
  <speed>0.11</speed>
  <fix>3d</fix>
</trkpt>
<trkpt lat="-35.3629111" lon="149.1652228">
  <ele>602.85</ele>
  <time>2026-08-28T19:09:40Z</time>
  <course>341.64</course>
  <speed>0.08944271909999159</speed>
  <fix>3d</fix>
</trkpt>
<trkpt lat="-35.3629111" lon="149.165223">
  <ele>602.95</ele>
  <time>2026-08-28T19:09:40Z</time>
  <course>201.7</course>
  <speed>0.09</speed>
  <fix>3d</fix>
</trkpt>
<trkpt lat="-35.3629113" lon="149.1652228">
  <ele>602.55</ele>
  <time>2026-08-28T19:09:40Z</time>
  <course>341.61</course>
  <speed>0.07211102550927978</speed>
  <fix>3d</fix>
</trkpt>
<trkpt lat="-35.3629112" lon="149.1652229">
  <ele>602.66</ele>
  <time>2026-08-28T19:09:40Z</time>
  <course>211.25</course>
  <speed>0.08</speed>
  <fix>3d</fix>
</trkpt>
<trkpt lat="-35.3629113" lon="149.1652227">
  <ele>602.25</ele>
  <time>2026-08-28T19:09:40Z</time>
  <course>341.58</course>
  <speed>0.06403124237432849</speed>
  <fix>3d</fix>
</trkpt>
<trkpt lat="-35.3629113" lon="149.1652228">
  <ele>602.36</ele>
  <time>2026-08-28T19:09:40Z</time>
  <course>223.87</course>
  <speed>0.06</speed>
  <fix>3d</fix>
</trkpt>
<trkpt lat="-35.3629114" lon="149.1652226">
  <ele>601.95</ele>
  <time>2026-08-28T19:09:40Z</time>
  <course>341.55</course>
  <speed>0.053851648071345036</speed>
  <fix>3d</fix>
</trkpt>
<trkpt lat="-35.3629114" lon="149.1652226">
  <ele>602.06</ele>
  <time>2026-08-28T19:09:40Z</time>
  <course>240.11</course>
  <speed>0.05</speed>
  <fix>3d</fix>
</trkpt>
<trkpt lat="-35.3629114" lon="149.1652225">
  <ele>601.65</ele>
  <time>2026-08-28T19:09:40Z</time>
  <course>341.51</course>
  <speed>0.05</speed>
  <fix>3d</fix>
</trkpt>
<trkpt lat="-35.3629114" lon="149.1652225">
  <ele>601.77</ele>
  <time>2026-08-28T19:09:40Z</time>
  <course>258.46</course>
  <speed>0.05</speed>
  <fix>3d</fix>
</trkpt>
<trkpt lat="-35.3629114" lon="149.1652223">
  <ele>601.35</ele>
  <time>2026-08-28T19:09:40Z</time>
  <course>341.47</course>
  <speed>0.05099019513592785</speed>
  <fix>3d</fix>
</trkpt>
<trkpt lat="-35.3629114" lon="149.1652224">
  <ele>601.46</ele>
  <time>2026-08-28T19:09:40Z</time>
  <course>275.89</course>
  <speed>0.05</speed>
  <fix>3d</fix>
</trkpt>
<trkpt lat="-35.3629114" lon="149.1652222">
  <ele>601.05</ele>
  <time>2026-08-28T19:09:40Z</time>
  <course>341.44</course>
  <speed>0.053851648071345036</speed>
  <fix>3d</fix>
</trkpt>
<trkpt lat="-35.3629114" lon="149.1652223">
  <ele>601.16</ele>
  <time>2026-08-28T19:09:40Z</time>
  <course>290.56</course>
  <speed>0.05</speed>
  <fix>3d</fix>
</trkpt>
<trkpt lat="-35.3629113" lon="149.1652221">
  <ele>600.75</ele>
  <time>2026-08-28T19:09:40Z</time>
  <course>341.41</course>
  <speed>0.05</speed>
  <fix>3d</fix>
</trkpt>
<trkpt lat="-35.3629114" lon="149.1652222">
  <ele>600.87</ele>
  <time>2026-08-28T19:09:40Z</time>
  <course>302.2</course>
  <speed>0.05</speed>
  <fix>3d</fix>
</trkpt>
<trkpt lat="-35.3629113" lon="149.165222">
  <ele>600.44</ele>
  <time>2026-08-28T19:09:40Z</time>
  <course>341.39</course>
  <speed>0.05</speed>
  <fix>3d</fix>
</trkpt>
<trkpt lat="-35.3629114" lon="149.1652221">
  <ele>600.56</ele>
  <time>2026-08-28T19:09:40Z</time>
  <course>311.45</course>
  <speed>0.05</speed>
  <fix>3d</fix>
</trkpt>
<trkpt lat="-35.3629113" lon="149.165222">
  <ele>600.14</ele>
  <time>2026-08-28T19:09:40Z</time>
  <course>341.36</course>
  <speed>0.05</speed>
  <fix>3d</fix>
</trkpt>
<trkpt lat="-35.3629113" lon="149.165222">
  <ele>600.27</ele>
  <time>2026-08-28T19:09:40Z</time>
  <course>319.14</course>
  <speed>0.05</speed>
  <fix>3d</fix>
</trkpt>
<trkpt lat="-35.3629112" lon="149.1652219">
  <ele>599.84</ele>
  <time>2026-08-28T19:09:40Z</time>
  <course>341.32</course>
  <speed>0.05</speed>
  <fix>3d</fix>
</trkpt>
<trkpt lat="-35.3629112" lon="149.1652219">
  <ele>599.97</ele>
  <time>2026-08-28T19:09:40Z</time>
  <course>325.95</course>
  <speed>0.05</speed>
  <fix>3d</fix>
</trkpt>
<trkpt lat="-35.3629111" lon="149.1652218">
  <ele>599.55</ele>
  <time>2026-08-28T19:09:40Z</time>
  <course>341.3</course>
  <speed>0.044721359549995794</speed>
  <fix>3d</fix>
</trkpt>
<trkpt lat="-35.3629111" lon="149.1652219">
  <ele>599.67</ele>
  <time>2026-08-28T19:09:40Z</time>
  <course>332.19</course>
  <speed>0.05</speed>
  <fix>3d</fix>
</trkpt>
<trkpt lat="-35.362911" lon="149.1652218">
  <ele>599.25</ele>
  <time>2026-08-28T19:09:40Z</time>
  <course>341.28</course>
  <speed>0.044721359549995794</speed>
  <fix>3d</fix>
</trkpt>
<trkpt lat="-35.362911" lon="149.1652218">
  <ele>599.37</ele>
  <time>2026-08-28T19:09:40Z</time>
  <course>337.8</course>
  <speed>0.05</speed>
  <fix>3d</fix>
</trkpt>
<trkpt lat="-35.3629109" lon="149.1652218">
  <ele>598.95</ele>
  <time>2026-08-28T19:09:40Z</time>
  <course>341.26</course>
  <speed>0.0412310562561766</speed>
  <fix>3d</fix>
</trkpt>
<trkpt lat="-35.3629109" lon="149.1652217">
  <ele>599.07</ele>
  <time>2026-08-28T19:09:40Z</time>
  <course>343.68</course>
  <speed>0.04</speed>
  <fix>3d</fix>
</trkpt>
<trkpt lat="-35.3629109" lon="149.1652217">
  <ele>598.65</ele>
  <time>2026-08-28T19:09:40Z</time>
  <course>341.23</course>
  <speed>0.03</speed>
  <fix>3d</fix>
</trkpt>
<trkpt lat="-35.3629108" lon="149.1652217">
  <ele>598.78</ele>
  <time>2026-08-28T19:09:40Z</time>
  <course>350.85</course>
  <speed>0.04</speed>
  <fix>3d</fix>
</trkpt>
<trkpt lat="-35.3629108" lon="149.1652217">
  <ele>598.36</ele>
  <time>2026-08-28T19:09:40Z</time>
  <course>341.2</course>
  <speed>0.03</speed>
  <fix>3d</fix>
</trkpt>
<trkpt lat="-35.3629108" lon="149.1652217">
  <ele>598.48</ele>
  <time>2026-08-28T19:09:40Z</time>
  <course>359.87</course>
  <speed>0.03</speed>
  <fix>3d</fix>
</trkpt>
<trkpt lat="-35.3629107" lon="149.1652217">
  <ele>598.06</ele>
  <time>2026-08-28T19:09:40Z</time>
  <course>341.18</course>
  <speed>0.02</speed>
  <fix>3d</fix>
</trkpt>
<trkpt lat="-35.3629107" lon="149.1652217">
  <ele>598.18</ele>
  <time>2026-08-28T19:09:40Z</time>
  <course>11.88</course>
  <speed>0.03</speed>
  <fix>3d</fix>
</trkpt>
<trkpt lat="-35.3629107" lon="149.1652218">
  <ele>597.76</ele>
  <time>2026-08-28T19:09:40Z</time>
  <course>341.15</course>
  <speed>0.01</speed>
  <fix>3d</fix>
</trkpt>
<trkpt lat="-35.3629107" lon="149.1652217">
  <ele>597.88</ele>
  <time>2026-08-28T19:09:40Z</time>
  <course>27.36</course>
  <speed>0.02</speed>
  <fix>3d</fix>
</trkpt>
<trkpt lat="-35.3629107" lon="149.1652218">
  <ele>597.46</ele>
  <time>2026-08-28T19:09:40Z</time>
  <course>341.13</course>
  <speed>0.01414213562373095</speed>
  <fix>3d</fix>
</trkpt>
<trkpt lat="-35.3629107" lon="149.1652217">
  <ele>597.57</ele>
  <time>2026-08-28T19:09:40Z</time>
  <course>45.7</course>
  <speed>0.02</speed>
  <fix>3d</fix>
</trkpt>
<trkpt lat="-35.3629106" lon="149.1652218">
  <ele>597.16</ele>
  <time>2026-08-28T19:09:40Z</time>
  <course>341.1</course>
  <speed>0.01</speed>
  <fix>3d</fix>
</trkpt>
<trkpt lat="-35.3629106" lon="149.1652217">
  <ele>597.28</ele>
  <time>2026-08-28T19:09:40Z</time>
  <course>64.69</course>
  <speed>0.02</speed>
  <fix>3d</fix>
</trkpt>
<trkpt lat="-35.3629106" lon="149.1652218">
  <ele>596.86</ele>
  <time>2026-08-28T19:09:40Z</time>
  <course>341.08</course>
  <speed>0.01</speed>
  <fix>3d</fix>
</trkpt>
<trkpt lat="-35.3629106" lon="149.1652218">
  <ele>596.97</ele>
  <time>2026-08-28T19:09:40Z</time>
  <course>81.7</course>
  <speed>0.02</speed>
  <fix>3d</fix>
</trkpt>
<trkpt lat="-35.3629107" lon="149.1652218">
  <ele>596.55</ele>
  <time>2026-08-28T19:09:40Z</time>
  <course>341.05</course>
  <speed>0.01</speed>
  <fix>3d</fix>
</trkpt>
<trkpt lat="-35.3629106" lon="149.1652219">
  <ele>596.67</ele>
  <time>2026-08-28T19:09:40Z</time>
  <course>95.2</course>
  <speed>0.02</speed>
  <fix>3d</fix>
</trkpt>
<trkpt lat="-35.3629107" lon="149.1652219">
  <ele>596.25</ele>
  <time>2026-08-28T19:09:40Z</time>
  <course>341.03</course>
  <speed>0.01414213562373095</speed>
  <fix>3d</fix>
</trkpt>
<trkpt lat="-35.3629106" lon="149.1652219">
  <ele>596.37</ele>
  <time>2026-08-28T19:09:40Z</time>
  <course>105.53</course>
  <speed>0.03</speed>
  <fix>3d</fix>
</trkpt>
<trkpt lat="-35.3629107" lon="149.1652219">
  <ele>595.96</ele>
  <time>2026-08-28T19:09:40Z</time>
  <course>341.0</course>
  <speed>0.01414213562373095</speed>
  <fix>3d</fix>
</trkpt>
<trkpt lat="-35.3629107" lon="149.165222">
  <ele>596.06</ele>
  <time>2026-08-28T19:09:40Z</time>
  <course>113.63</course>
  <speed>0.03</speed>
  <fix>3d</fix>
</trkpt>
<trkpt lat="-35.3629107" lon="149.165222">
  <ele>595.66</ele>
  <time>2026-08-28T19:09:40Z</time>
  <course>340.98</course>
  <speed>0.01414213562373095</speed>
  <fix>3d</fix>
</trkpt>
<trkpt lat="-35.3629107" lon="149.1652221">
  <ele>595.77</ele>
  <time>2026-08-28T19:09:40Z</time>
  <course>119.91</course>
  <speed>0.03</speed>
  <fix>3d</fix>
</trkpt>
<trkpt lat="-35.3629107" lon="149.165222">
  <ele>595.36</ele>
  <time>2026-08-28T19:09:40Z</time>
  <course>340.96</course>
  <speed>0.01414213562373095</speed>
  <fix>3d</fix>
</trkpt>
<trkpt lat="-35.3629107" lon="149.1652221">
  <ele>595.47</ele>
  <time>2026-08-28T19:09:40Z</time>
  <course>125.28</course>
  <speed>0.03</speed>
  <fix>3d</fix>
</trkpt>
<trkpt lat="-35.3629107" lon="149.1652221">
  <ele>595.05</ele>
  <time>2026-08-28T19:09:40Z</time>
  <course>340.94</course>
  <speed>0.022360679774997897</speed>
  <fix>3d</fix>
</trkpt>
<trkpt lat="-35.3629107" lon="149.1652222">
  <ele>595.17</ele>
  <time>2026-08-28T19:09:40Z</time>
  <course>130.17</course>
  <speed>0.03</speed>
  <fix>3d</fix>
</trkpt>
<trkpt lat="-35.3629107" lon="149.1652221">
  <ele>594.75</ele>
  <time>2026-08-28T19:09:40Z</time>
  <course>340.9</course>
  <speed>0.02</speed>
  <fix>3d</fix>
</trkpt>
<trkpt lat="-35.3629107" lon="149.1652222">
  <ele>594.87</ele>
  <time>2026-08-28T19:09:40Z</time>
  <course>134.09</course>
  <speed>0.03</speed>
  <fix>3d</fix>
</trkpt>
<trkpt lat="-35.3629108" lon="149.1652222">
  <ele>594.45</ele>
  <time>2026-08-28T19:09:40Z</time>
  <course>340.87</course>
  <speed>0.01</speed>
  <fix>3d</fix>
</trkpt>
<trkpt lat="-35.3629107" lon="149.1652223">
  <ele>594.56</ele>
  <time>2026-08-28T19:09:40Z</time>
  <course>137.31</course>
  <speed>0.03</speed>
  <fix>3d</fix>
</trkpt>
<trkpt lat="-35.3629108" lon="149.1652222">
  <ele>594.14</ele>
  <time>2026-08-28T19:09:40Z</time>
  <course>340.85</course>
  <speed>0.01</speed>
  <fix>3d</fix>
</trkpt>
<trkpt lat="-35.3629108" lon="149.1652224">
  <ele>594.26</ele>
  <time>2026-08-28T19:09:40Z</time>
  <course>140.65</course>
  <speed>0.03</speed>
  <fix>3d</fix>
</trkpt>
<trkpt lat="-35.3629108" lon="149.1652223">
  <ele>593.84</ele>
  <time>2026-08-28T19:09:40Z</time>
  <course>340.83</course>
  <speed>0.01</speed>
  <fix>3d</fix>
</trkpt>
<trkpt lat="-35.3629108" lon="149.1652224">
  <ele>593.95</ele>
  <time>2026-08-28T19:09:40Z</time>
  <course>144.85</course>
  <speed>0.03</speed>
  <fix>3d</fix>
</trkpt>
<trkpt lat="-35.3629109" lon="149.1652223">
  <ele>593.54</ele>
  <time>2026-08-28T19:09:40Z</time>
  <course>340.78</course>
  <speed>0.01</speed>
  <fix>3d</fix>
</trkpt>
<trkpt lat="-35.3629108" lon="149.1652225">
  <ele>593.66</ele>
  <time>2026-08-28T19:09:40Z</time>
  <course>149.3</course>
  <speed>0.02</speed>
  <fix>3d</fix>
</trkpt>
<trkpt lat="-35.3629109" lon="149.1652223">
  <ele>593.25</ele>
  <time>2026-08-28T19:09:40Z</time>
  <course>340.5</course>
  <speed>0.01</speed>
  <fix>3d</fix>
</trkpt>
<trkpt lat="-35.3629109" lon="149.1652225">
  <ele>593.37</ele>
  <time>2026-08-28T19:09:40Z</time>
  <course>151.98</course>
  <speed>0.02</speed>
  <fix>3d</fix>
</trkpt>
<trkpt lat="-35.3629109" lon="149.1652223">
  <ele>592.99</ele>
  <time>2026-08-28T19:09:40Z</time>
  <course>340.13</course>
  <speed>0.01</speed>
  <fix>3d</fix>
</trkpt>
<trkpt lat="-35.3629109" lon="149.1652225">
  <ele>593.1</ele>
  <time>2026-08-28T19:09:40Z</time>
  <course>156.6</course>
  <speed>0.02</speed>
  <fix>3d</fix>
</trkpt>
<trkpt lat="-35.3629109" lon="149.1652223">
  <ele>592.77</ele>
  <time>2026-08-28T19:09:40Z</time>
  <course>339.78</course>
  <speed>0.01414213562373095</speed>
  <fix>3d</fix>
</trkpt>
<trkpt lat="-35.3629109" lon="149.1652225">
  <ele>592.85</ele>
  <time>2026-08-28T19:09:40Z</time>
  <course>169.23</course>
  <speed>0.02</speed>
  <fix>3d</fix>
</trkpt>
<trkpt lat="-35.362911" lon="149.1652223">
  <ele>592.6</ele>
  <time>2026-08-28T19:09:40Z</time>
  <course>339.44</course>
  <speed>0.022360679774997897</speed>
  <fix>3d</fix>
</trkpt>
<trkpt lat="-35.362911" lon="149.1652225">
  <ele>592.65</ele>
  <time>2026-08-28T19:09:40Z</time>
  <course>188.45</course>
  <speed>0.02</speed>
  <fix>3d</fix>
</trkpt>
<trkpt lat="-35.362911" lon="149.1652223">
  <ele>592.48</ele>
  <time>2026-08-28T19:09:40Z</time>
  <course>339.21</course>
  <speed>0.0316227766016838</speed>
  <fix>3d</fix>
</trkpt>
<trkpt lat="-35.3629111" lon="149.1652225">
  <ele>592.49</ele>
  <time>2026-08-28T19:09:40Z</time>
  <course>207.36</course>
  <speed>0.02</speed>
  <fix>3d</fix>
</trkpt>
<trkpt lat="-35.362911" lon="149.1652223">
  <ele>592.38</ele>
  <time>2026-08-28T19:09:40Z</time>
  <course>339.23</course>
  <speed>0.0412310562561766</speed>
  <fix>3d</fix>
</trkpt>
<trkpt lat="-35.3629111" lon="149.1652225">
  <ele>592.38</ele>
  <time>2026-08-28T19:09:40Z</time>
  <course>220.47</course>
  <speed>0.03</speed>
  <fix>3d</fix>
</trkpt>
<trkpt lat="-35.3629111" lon="149.1652223">
  <ele>592.3</ele>
  <time>2026-08-28T19:09:40Z</time>
  <course>339.3</course>
  <speed>0.0412310562561766</speed>
  <fix>3d</fix>
</trkpt>
<trkpt lat="-35.3629112" lon="149.1652225">
  <ele>592.29</ele>
  <time>2026-08-28T19:09:40Z</time>
  <course>228.17</course>
  <speed>0.03</speed>
  <fix>3d</fix>
</trkpt>
<trkpt lat="-35.3629111" lon="149.1652222">
  <ele>592.23</ele>
  <time>2026-08-28T19:09:40Z</time>
  <course>339.39</course>
  <speed>0.05099019513592785</speed>
  <fix>3d</fix>
</trkpt>
<trkpt lat="-35.3629112" lon="149.1652224">
  <ele>592.21</ele>
  <time>2026-08-28T19:09:40Z</time>
  <course>233.33</course>
  <speed>0.04</speed>
  <fix>3d</fix>
</trkpt>
<trkpt lat="-35.3629112" lon="149.1652221">
  <ele>592.15</ele>
  <time>2026-08-28T19:09:40Z</time>
  <course>339.46</course>
  <speed>0.05099019513592785</speed>
  <fix>3d</fix>
</trkpt>
<trkpt lat="-35.3629112" lon="149.1652223">
  <ele>592.14</ele>
  <time>2026-08-28T19:09:40Z</time>
  <course>237.91</course>
  <speed>0.04</speed>
  <fix>3d</fix>
</trkpt>
<trkpt lat="-35.3629112" lon="149.1652221">
  <ele>592.07</ele>
  <time>2026-08-28T19:09:40Z</time>
  <course>339.53</course>
  <speed>0.05</speed>
  <fix>3d</fix>
</trkpt>
<trkpt lat="-35.3629113" lon="149.1652222">
  <ele>592.06</ele>
  <time>2026-08-28T19:09:40Z</time>
  <course>242.98</course>
  <speed>0.04</speed>
  <fix>3d</fix>
</trkpt>
<trkpt lat="-35.3629112" lon="149.165222">
  <ele>591.99</ele>
  <time>2026-08-28T19:09:40Z</time>
  <course>339.56</course>
  <speed>0.04</speed>
  <fix>3d</fix>
</trkpt>
<trkpt lat="-35.3629113" lon="149.1652222">
  <ele>591.98</ele>
  <time>2026-08-28T19:09:40Z</time>
  <course>248.73</course>
  <speed>0.03</speed>
  <fix>3d</fix>
</trkpt>
<trkpt lat="-35.3629112" lon="149.1652219">
  <ele>591.9</ele>
  <time>2026-08-28T19:09:40Z</time>
  <course>339.62</course>
  <speed>0.04</speed>
  <fix>3d</fix>
</trkpt>
<trkpt lat="-35.3629113" lon="149.1652221">
  <ele>591.89</ele>
  <time>2026-08-28T19:09:40Z</time>
  <course>255.25</course>
  <speed>0.03</speed>
  <fix>3d</fix>
</trkpt>
<trkpt lat="-35.3629112" lon="149.1652219">
  <ele>591.81</ele>
  <time>2026-08-28T19:09:40Z</time>
  <course>339.65</course>
  <speed>0.03</speed>
  <fix>3d</fix>
</trkpt>
<trkpt lat="-35.3629114" lon="149.165222">
  <ele>591.8</ele>
  <time>2026-08-28T19:09:40Z</time>
  <course>262.76</course>
  <speed>0.03</speed>
  <fix>3d</fix>
</trkpt>
<trkpt lat="-35.3629112" lon="149.1652218">
  <ele>591.71</ele>
  <time>2026-08-28T19:09:40Z</time>
  <course>339.66</course>
  <speed>0.0316227766016838</speed>
  <fix>3d</fix>
</trkpt>
<trkpt lat="-35.3629114" lon="149.165222">
  <ele>591.7</ele>
  <time>2026-08-28T19:09:40Z</time>
  <course>272.38</course>
  <speed>0.02</speed>
  <fix>3d</fix>
</trkpt>
<trkpt lat="-35.3629112" lon="149.1652218">
  <ele>591.62</ele>
  <time>2026-08-28T19:09:40Z</time>
  <course>339.67</course>
  <speed>0.022360679774997897</speed>
  <fix>3d</fix>
</trkpt>
<trkpt lat="-35.3629114" lon="149.1652219">
  <ele>591.61</ele>
  <time>2026-08-28T19:09:40Z</time>
  <course>285.23</course>
  <speed>0.02</speed>
  <fix>3d</fix>
</trkpt>
<trkpt lat="-35.3629112" lon="149.1652218">
  <ele>591.52</ele>
  <time>2026-08-28T19:09:40Z</time>
  <course>339.67</course>
  <speed>0.0282842712474619</speed>
  <fix>3d</fix>
</trkpt>
<trkpt lat="-35.3629114" lon="149.1652219">
  <ele>591.52</ele>
  <time>2026-08-28T19:09:40Z</time>
  <course>302.19</course>
  <speed>0.01</speed>
  <fix>3d</fix>
</trkpt>
<trkpt lat="-35.3629112" lon="149.1652218">
  <ele>591.42</ele>
  <time>2026-08-28T19:09:40Z</time>
  <course>339.67</course>
  <speed>0.022360679774997897</speed>
  <fix>3d</fix>
</trkpt>
<trkpt lat="-35.3629114" lon="149.1652219">
  <ele>591.41</ele>
  <time>2026-08-28T19:09:40Z</time>
  <course>324.4</course>
  <speed>0.01</speed>
  <fix>3d</fix>
</trkpt>
<trkpt lat="-35.3629112" lon="149.1652218">
  <ele>591.32</ele>
  <time>2026-08-28T19:09:40Z</time>
  <course>339.67</course>
  <speed>0.022360679774997897</speed>
  <fix>3d</fix>
</trkpt>
<trkpt lat="-35.3629114" lon="149.1652219">
  <ele>591.31</ele>
  <time>2026-08-28T19:09:40Z</time>
  <course>345.61</course>
  <speed>0.01</speed>
  <fix>3d</fix>
</trkpt>
<trkpt lat="-35.3629112" lon="149.1652218">
  <ele>591.22</ele>
  <time>2026-08-28T19:09:40Z</time>
  <course>339.67</course>
  <speed>0.02</speed>
  <fix>3d</fix>
</trkpt>
<trkpt lat="-35.3629114" lon="149.1652219">
  <ele>591.2</ele>
  <time>2026-08-28T19:09:40Z</time>
  <course>359.94</course>
  <speed>0.01</speed>
  <fix>3d</fix>
</trkpt>
<trkpt lat="-35.3629112" lon="149.1652218">
  <ele>591.12</ele>
  <time>2026-08-28T19:09:40Z</time>
  <course>339.69</course>
  <speed>0.03</speed>
  <fix>3d</fix>
</trkpt>
<trkpt lat="-35.3629113" lon="149.1652219">
  <ele>591.11</ele>
  <time>2026-08-28T19:09:40Z</time>
  <course>9.08</course>
  <speed>0.02</speed>
  <fix>3d</fix>
</trkpt>
<trkpt lat="-35.3629112" lon="149.1652218">
  <ele>591.02</ele>
  <time>2026-08-28T19:09:40Z</time>
  <course>339.7</course>
  <speed>0.03</speed>
  <fix>3d</fix>
</trkpt>
<trkpt lat="-35.3629113" lon="149.1652219">
  <ele>591.0</ele>
  <time>2026-08-28T19:09:40Z</time>
  <course>15.43</course>
  <speed>0.02</speed>
  <fix>3d</fix>
</trkpt>
<trkpt lat="-35.3629112" lon="149.1652218">
  <ele>590.92</ele>
  <time>2026-08-28T19:09:40Z</time>
  <course>339.69</course>
  <speed>0.03</speed>
  <fix>3d</fix>
</trkpt>
<trkpt lat="-35.3629112" lon="149.1652219">
  <ele>590.9</ele>
  <time>2026-08-28T19:09:40Z</time>
  <course>20.72</course>
  <speed>0.02</speed>
  <fix>3d</fix>
</trkpt>
<trkpt lat="-35.3629111" lon="149.1652218">
  <ele>590.82</ele>
  <time>2026-08-28T19:09:40Z</time>
  <course>339.7</course>
  <speed>0.03</speed>
  <fix>3d</fix>
</trkpt>
<trkpt lat="-35.3629112" lon="149.1652219">
  <ele>590.8</ele>
  <time>2026-08-28T19:09:40Z</time>
  <course>25.56</course>
  <speed>0.02</speed>
  <fix>3d</fix>
</trkpt>
<trkpt lat="-35.3629111" lon="149.1652218">
  <ele>590.72</ele>
  <time>2026-08-28T19:09:40Z</time>
  <course>339.69</course>
  <speed>0.02</speed>
  <fix>3d</fix>
</trkpt>
<trkpt lat="-35.3629111" lon="149.1652219">
  <ele>590.7</ele>
  <time>2026-08-28T19:09:40Z</time>
  <course>30.12</course>
  <speed>0.02</speed>
  <fix>3d</fix>
</trkpt>
<trkpt lat="-35.362911" lon="149.1652218">
  <ele>590.62</ele>
  <time>2026-08-28T19:09:40Z</time>
  <course>339.69</course>
  <speed>0.02</speed>
  <fix>3d</fix>
</trkpt>
<trkpt lat="-35.3629111" lon="149.1652219">
  <ele>590.59</ele>
  <time>2026-08-28T19:09:40Z</time>
  <course>35.07</course>
  <speed>0.02</speed>
  <fix>3d</fix>
</trkpt>
<trkpt lat="-35.362911" lon="149.1652219">
  <ele>590.51</ele>
  <time>2026-08-28T19:09:40Z</time>
  <course>339.71</course>
  <speed>0.02</speed>
  <fix>3d</fix>
</trkpt>
<trkpt lat="-35.3629111" lon="149.1652219">
  <ele>590.49</ele>
  <time>2026-08-28T19:09:40Z</time>
  <course>40.67</course>
  <speed>0.02</speed>
  <fix>3d</fix>
</trkpt>
<trkpt lat="-35.362911" lon="149.1652219">
  <ele>590.41</ele>
  <time>2026-08-28T19:09:40Z</time>
  <course>339.69</course>
  <speed>0.01</speed>
  <fix>3d</fix>
</trkpt>
<trkpt lat="-35.362911" lon="149.1652219">
  <ele>590.39</ele>
  <time>2026-08-28T19:09:40Z</time>
  <course>47.84</course>
  <speed>0.02</speed>
  <fix>3d</fix>
</trkpt>
<trkpt lat="-35.362911" lon="149.1652219">
  <ele>590.31</ele>
  <time>2026-08-28T19:09:40Z</time>
  <course>339.7</course>
  <speed>0.01</speed>
  <fix>3d</fix>
</trkpt>
<trkpt lat="-35.3629109" lon="149.165222">
  <ele>590.29</ele>
  <time>2026-08-28T19:09:40Z</time>
  <course>55.91</course>
  <speed>0.02</speed>
  <fix>3d</fix>
</trkpt>
<trkpt lat="-35.3629109" lon="149.1652219">
  <ele>590.21</ele>
  <time>2026-08-28T19:09:40Z</time>
  <course>339.7</course>
  <speed>0.01</speed>
  <fix>3d</fix>
</trkpt>
<trkpt lat="-35.3629109" lon="149.165222">
  <ele>590.19</ele>
  <time>2026-08-28T19:09:40Z</time>
  <course>63.5</course>
  <speed>0.02</speed>
  <fix>3d</fix>
</trkpt>
<trkpt lat="-35.3629109" lon="149.165222">
  <ele>590.11</ele>
  <time>2026-08-28T19:09:40Z</time>
  <course>339.69</course>
  <speed>0.01</speed>
  <fix>3d</fix>
</trkpt>
<trkpt lat="-35.3629109" lon="149.1652221">
  <ele>590.08</ele>
  <time>2026-08-28T19:09:40Z</time>
  <course>71.0</course>
  <speed>0.02</speed>
  <fix>3d</fix>
</trkpt>
<trkpt lat="-35.3629109" lon="149.165222">
  <ele>590.01</ele>
  <time>2026-08-28T19:09:40Z</time>
  <course>339.71</course>
  <speed>0.0</speed>
  <fix>3d</fix>
</trkpt>
<trkpt lat="-35.3629109" lon="149.1652221">
  <ele>589.98</ele>
  <time>2026-08-28T19:09:40Z</time>
  <course>78.78</course>
  <speed>0.02</speed>
  <fix>3d</fix>
</trkpt>
<trkpt lat="-35.3629109" lon="149.165222">
  <ele>589.91</ele>
  <time>2026-08-28T19:09:40Z</time>
  <course>339.72</course>
  <speed>0.0</speed>
  <fix>3d</fix>
</trkpt>
<trkpt lat="-35.3629109" lon="149.1652222">
  <ele>589.88</ele>
  <time>2026-08-28T19:09:40Z</time>
  <course>86.95</course>
  <speed>0.01</speed>
  <fix>3d</fix>
</trkpt>
<trkpt lat="-35.3629109" lon="149.1652221">
  <ele>589.81</ele>
  <time>2026-08-28T19:09:40Z</time>
  <course>339.72</course>
  <speed>0.0</speed>
  <fix>3d</fix>
</trkpt>
<trkpt lat="-35.3629109" lon="149.1652222">
  <ele>589.78</ele>
  <time>2026-08-28T19:09:40Z</time>
  <course>95.53</course>
  <speed>0.01</speed>
  <fix>3d</fix>
</trkpt>
<trkpt lat="-35.3629109" lon="149.1652221">
  <ele>589.71</ele>
  <time>2026-08-28T19:09:40Z</time>
  <course>339.7</course>
  <speed>0.0</speed>
  <fix>3d</fix>
</trkpt>
<trkpt lat="-35.3629109" lon="149.1652222">
  <ele>589.68</ele>
  <time>2026-08-28T19:09:40Z</time>
  <course>103.68</course>
  <speed>0.01</speed>
  <fix>3d</fix>
</trkpt>
<trkpt lat="-35.3629109" lon="149.1652221">
  <ele>589.61</ele>
  <time>2026-08-28T19:09:40Z</time>
  <course>339.72</course>
  <speed>0.0</speed>
  <fix>3d</fix>
</trkpt>
<trkpt lat="-35.3629109" lon="149.1652222">
  <ele>589.58</ele>
  <time>2026-08-28T19:09:40Z</time>
  <course>111.17</course>
  <speed>0.01</speed>
  <fix>3d</fix>
</trkpt>
<trkpt lat="-35.3629109" lon="149.1652221">
  <ele>589.51</ele>
  <time>2026-08-28T19:09:40Z</time>
  <course>339.73</course>
  <speed>0.0</speed>
  <fix>3d</fix>
</trkpt>
<trkpt lat="-35.3629109" lon="149.1652222">
  <ele>589.48</ele>
  <time>2026-08-28T19:09:40Z</time>
  <course>118.37</course>
  <speed>0.01</speed>
  <fix>3d</fix>
</trkpt>
<trkpt lat="-35.3629109" lon="149.1652222">
  <ele>589.41</ele>
  <time>2026-08-28T19:09:40Z</time>
  <course>339.72</course>
  <speed>0.0</speed>
  <fix>3d</fix>
</trkpt>
<trkpt lat="-35.3629109" lon="149.1652223">
  <ele>589.37</ele>
  <time>2026-08-28T19:09:40Z</time>
  <course>125.38</course>
  <speed>0.01</speed>
  <fix>3d</fix>
</trkpt>
<trkpt lat="-35.3629109" lon="149.1652222">
  <ele>589.31</ele>
  <time>2026-08-28T19:09:40Z</time>
  <course>339.72</course>
  <speed>0.0</speed>
  <fix>3d</fix>
</trkpt>
<trkpt lat="-35.3629109" lon="149.1652224">
  <ele>589.27</ele>
  <time>2026-08-28T19:09:40Z</time>
  <course>131.75</course>
  <speed>0.01</speed>
  <fix>3d</fix>
</trkpt>
<trkpt lat="-35.3629109" lon="149.1652222">
  <ele>589.21</ele>
  <time>2026-08-28T19:09:40Z</time>
  <course>339.73</course>
  <speed>0.01</speed>
  <fix>3d</fix>
</trkpt>
<trkpt lat="-35.3629109" lon="149.1652224">
  <ele>589.17</ele>
  <time>2026-08-28T19:09:40Z</time>
  <course>136.92</course>
  <speed>0.01</speed>
  <fix>3d</fix>
</trkpt>
<trkpt lat="-35.3629109" lon="149.1652222">
  <ele>589.11</ele>
  <time>2026-08-28T19:09:40Z</time>
  <course>339.74</course>
  <speed>0.01</speed>
  <fix>3d</fix>
</trkpt>
<trkpt lat="-35.3629109" lon="149.1652224">
  <ele>589.07</ele>
  <time>2026-08-28T19:09:40Z</time>
  <course>142.99</course>
  <speed>0.01</speed>
  <fix>3d</fix>
</trkpt>
<trkpt lat="-35.3629109" lon="149.1652222">
  <ele>589.01</ele>
  <time>2026-08-28T19:09:40Z</time>
  <course>339.73</course>
  <speed>0.01</speed>
  <fix>3d</fix>
</trkpt>
<trkpt lat="-35.3629109" lon="149.1652224">
  <ele>588.97</ele>
  <time>2026-08-28T19:09:40Z</time>
  <course>150.29</course>
  <speed>0.01</speed>
  <fix>3d</fix>
</trkpt>
<trkpt lat="-35.3629109" lon="149.1652222">
  <ele>588.91</ele>
  <time>2026-08-28T19:09:40Z</time>
  <course>339.73</course>
  <speed>0.01</speed>
  <fix>3d</fix>
</trkpt>
<trkpt lat="-35.3629109" lon="149.1652225">
  <ele>588.87</ele>
  <time>2026-08-28T19:09:40Z</time>
  <course>157.6</course>
  <speed>0.01</speed>
  <fix>3d</fix>
</trkpt>
<trkpt lat="-35.3629109" lon="149.1652222">
  <ele>588.81</ele>
  <time>2026-08-28T19:09:40Z</time>
  <course>339.72</course>
  <speed>0.01</speed>
  <fix>3d</fix>
</trkpt>
<trkpt lat="-35.3629109" lon="149.1652225">
  <ele>588.76</ele>
  <time>2026-08-28T19:09:40Z</time>
  <course>164.2</course>
  <speed>0.01</speed>
  <fix>3d</fix>
</trkpt>
<trkpt lat="-35.3629109" lon="149.1652222">
  <ele>588.71</ele>
  <time>2026-08-28T19:09:40Z</time>
  <course>339.73</course>
  <speed>0.01</speed>
  <fix>3d</fix>
</trkpt>
<trkpt lat="-35.3629109" lon="149.1652225">
  <ele>588.66</ele>
  <time>2026-08-28T19:09:40Z</time>
  <course>171.29</course>
  <speed>0.0</speed>
  <fix>3d</fix>
</trkpt>
<trkpt lat="-35.3629109" lon="149.1652222">
  <ele>588.61</ele>
  <time>2026-08-28T19:09:40Z</time>
  <course>339.72</course>
  <speed>0.01</speed>
  <fix>3d</fix>
</trkpt>
<trkpt lat="-35.362911" lon="149.1652225">
  <ele>588.56</ele>
  <time>2026-08-28T19:09:40Z</time>
  <course>181.09</course>
  <speed>0.0</speed>
  <fix>3d</fix>
</trkpt>
<trkpt lat="-35.3629109" lon="149.1652223">
  <ele>588.5</ele>
  <time>2026-08-28T19:09:40Z</time>
  <course>339.73</course>
  <speed>0.01</speed>
  <fix>3d</fix>
</trkpt>
<trkpt lat="-35.3629111" lon="149.1652225">
  <ele>588.45</ele>
  <time>2026-08-28T19:09:40Z</time>
  <course>191.5</course>
  <speed>0.0</speed>
  <fix>3d</fix>
</trkpt>
<trkpt lat="-35.3629109" lon="149.1652223">
  <ele>588.4</ele>
  <time>2026-08-28T19:09:40Z</time>
  <course>339.73</course>
  <speed>0.02</speed>
  <fix>3d</fix>
</trkpt>
<trkpt lat="-35.3629111" lon="149.1652225">
  <ele>588.36</ele>
  <time>2026-08-28T19:09:40Z</time>
  <course>201.92</course>
  <speed>0.0</speed>
  <fix>3d</fix>
</trkpt>
<trkpt lat="-35.362911" lon="149.1652223">
  <ele>588.3</ele>
  <time>2026-08-28T19:09:40Z</time>
  <course>339.72</course>
  <speed>0.02</speed>
  <fix>3d</fix>
</trkpt>
<trkpt lat="-35.3629111" lon="149.1652225">
  <ele>588.26</ele>
  <time>2026-08-28T19:09:40Z</time>
  <course>212.03</course>
  <speed>0.0</speed>
  <fix>3d</fix>
</trkpt>
<trkpt lat="-35.362911" lon="149.1652223">
  <ele>588.2</ele>
  <time>2026-08-28T19:09:40Z</time>
  <course>339.72</course>
  <speed>0.02</speed>
  <fix>3d</fix>
</trkpt>
<trkpt lat="-35.3629111" lon="149.1652225">
  <ele>588.16</ele>
  <time>2026-08-28T19:09:40Z</time>
  <course>223.41</course>
  <speed>0.0</speed>
  <fix>3d</fix>
</trkpt>
<trkpt lat="-35.362911" lon="149.1652223">
  <ele>588.11</ele>
  <time>2026-08-28T19:09:40Z</time>
  <course>339.73</course>
  <speed>0.02</speed>
  <fix>3d</fix>
</trkpt>
<trkpt lat="-35.3629111" lon="149.1652225">
  <ele>588.06</ele>
  <time>2026-08-28T19:09:40Z</time>
  <course>235.5</course>
  <speed>0.0</speed>
  <fix>3d</fix>
</trkpt>
<trkpt lat="-35.362911" lon="149.1652223">
  <ele>588.0</ele>
  <time>2026-08-28T19:09:40Z</time>
  <course>339.75</course>
  <speed>0.02</speed>
  <fix>3d</fix>
</trkpt>
<trkpt lat="-35.3629111" lon="149.1652225">
  <ele>587.95</ele>
  <time>2026-08-28T19:09:40Z</time>
  <course>247.44</course>
  <speed>0.0</speed>
  <fix>3d</fix>
</trkpt>
<trkpt lat="-35.362911" lon="149.1652223">
  <ele>587.9</ele>
  <time>2026-08-28T19:09:40Z</time>
  <course>339.73</course>
  <speed>0.02</speed>
  <fix>3d</fix>
</trkpt>
<trkpt lat="-35.3629111" lon="149.1652225">
  <ele>587.86</ele>
  <time>2026-08-28T19:09:40Z</time>
  <course>258.64</course>
  <speed>0.0</speed>
  <fix>3d</fix>
</trkpt>
<trkpt lat="-35.362911" lon="149.1652223">
  <ele>587.8</ele>
  <time>2026-08-28T19:09:40Z</time>
  <course>339.73</course>
  <speed>0.022360679774997897</speed>
  <fix>3d</fix>
</trkpt>
<trkpt lat="-35.3629111" lon="149.1652225">
  <ele>587.76</ele>
  <time>2026-08-28T19:09:40Z</time>
  <course>268.75</course>
  <speed>0.0</speed>
  <fix>3d</fix>
</trkpt>
<trkpt lat="-35.362911" lon="149.1652223">
  <ele>587.7</ele>
  <time>2026-08-28T19:09:40Z</time>
  <course>339.75</course>
  <speed>0.022360679774997897</speed>
  <fix>3d</fix>
</trkpt>
<trkpt lat="-35.3629111" lon="149.1652224">
  <ele>587.66</ele>
  <time>2026-08-28T19:09:40Z</time>
  <course>276.45</course>
  <speed>0.0</speed>
  <fix>3d</fix>
</trkpt>
<trkpt lat="-35.362911" lon="149.1652223">
  <ele>587.6</ele>
  <time>2026-08-28T19:09:40Z</time>
  <course>339.73</course>
  <speed>0.022360679774997897</speed>
  <fix>3d</fix>
</trkpt>
<trkpt lat="-35.3629111" lon="149.1652224">
  <ele>587.56</ele>
  <time>2026-08-28T19:09:40Z</time>
  <course>282.37</course>
  <speed>0.0</speed>
  <fix>3d</fix>
</trkpt>
<trkpt lat="-35.362911" lon="149.1652223">
  <ele>587.5</ele>
  <time>2026-08-28T19:09:40Z</time>
  <course>339.75</course>
  <speed>0.022360679774997897</speed>
  <fix>3d</fix>
</trkpt>
<trkpt lat="-35.3629111" lon="149.1652224">
  <ele>587.45</ele>
  <time>2026-08-28T19:09:40Z</time>
  <course>286.76</course>
  <speed>0.01</speed>
  <fix>3d</fix>
</trkpt>
<trkpt lat="-35.362911" lon="149.1652222">
  <ele>587.4</ele>
  <time>2026-08-28T19:09:40Z</time>
  <course>339.73</course>
  <speed>0.022360679774997897</speed>
  <fix>3d</fix>
</trkpt>
<trkpt lat="-35.3629111" lon="149.1652224">
  <ele>587.36</ele>
  <time>2026-08-28T19:09:40Z</time>
  <course>289.71</course>
  <speed>0.01</speed>
  <fix>3d</fix>
</trkpt>
<trkpt lat="-35.362911" lon="149.1652222">
  <ele>587.31</ele>
  <time>2026-08-28T19:09:40Z</time>
  <course>339.76</course>
  <speed>0.022360679774997897</speed>
  <fix>3d</fix>
</trkpt>
<trkpt lat="-35.3629111" lon="149.1652224">
  <ele>587.26</ele>
  <time>2026-08-28T19:09:40Z</time>
  <course>292.51</course>
  <speed>0.01</speed>
  <fix>3d</fix>
</trkpt>
<trkpt lat="-35.362911" lon="149.1652222">
  <ele>587.21</ele>
  <time>2026-08-28T19:09:40Z</time>
  <course>339.76</course>
  <speed>0.022360679774997897</speed>
  <fix>3d</fix>
</trkpt>
<trkpt lat="-35.3629111" lon="149.1652223">
  <ele>587.16</ele>
  <time>2026-08-28T19:09:40Z</time>
  <course>296.18</course>
  <speed>0.0</speed>
  <fix>3d</fix>
</trkpt>
<trkpt lat="-35.362911" lon="149.1652222">
  <ele>587.11</ele>
  <time>2026-08-28T19:09:41Z</time>
  <course>339.76</course>
  <speed>0.022360679774997897</speed>
  <fix>3d</fix>
</trkpt>
<trkpt lat="-35.3629111" lon="149.1652222">
  <ele>587.06</ele>
  <time>2026-08-28T19:09:41Z</time>
  <course>301.07</course>
  <speed>0.0</speed>
  <fix>3d</fix>
</trkpt>
<trkpt lat="-35.362911" lon="149.1652222">
  <ele>587.01</ele>
  <time>2026-08-28T19:09:41Z</time>
  <course>339.76</course>
  <speed>0.022360679774997897</speed>
  <fix>3d</fix>
</trkpt>
<trkpt lat="-35.3629111" lon="149.1652222">
  <ele>586.95</ele>
  <time>2026-08-28T19:09:41Z</time>
  <course>305.92</course>
  <speed>0.0</speed>
  <fix>3d</fix>
</trkpt>
<trkpt lat="-35.362911" lon="149.1652222">
  <ele>586.91</ele>
  <time>2026-08-28T19:09:41Z</time>
  <course>339.76</course>
  <speed>0.01414213562373095</speed>
  <fix>3d</fix>
</trkpt>
<trkpt lat="-35.3629111" lon="149.1652222">
  <ele>586.86</ele>
  <time>2026-08-28T19:09:41Z</time>
  <course>311.57</course>
  <speed>0.0</speed>
  <fix>3d</fix>
</trkpt>
<trkpt lat="-35.362911" lon="149.1652222">
  <ele>586.81</ele>
  <time>2026-08-28T19:09:41Z</time>
  <course>339.77</course>
  <speed>0.01414213562373095</speed>
  <fix>3d</fix>
</trkpt>
<trkpt lat="-35.3629111" lon="149.1652222">
  <ele>586.76</ele>
  <time>2026-08-28T19:09:41Z</time>
  <course>319.08</course>
  <speed>0.0</speed>
  <fix>3d</fix>
</trkpt>
<trkpt lat="-35.362911" lon="149.1652221">
  <ele>586.71</ele>
  <time>2026-08-28T19:09:41Z</time>
  <course>339.78</course>
  <speed>0.01414213562373095</speed>
  <fix>3d</fix>
</trkpt>
<trkpt lat="-35.3629111" lon="149.1652222">
  <ele>586.66</ele>
  <time>2026-08-28T19:09:41Z</time>
  <course>329.97</course>
  <speed>0.0</speed>
  <fix>3d</fix>
</trkpt>
<trkpt lat="-35.362911" lon="149.1652221">
  <ele>586.61</ele>
  <time>2026-08-28T19:09:41Z</time>
  <course>339.77</course>
  <speed>0.01414213562373095</speed>
  <fix>3d</fix>
</trkpt>
<trkpt lat="-35.3629111" lon="149.1652222">
  <ele>586.56</ele>
  <time>2026-08-28T19:09:41Z</time>
  <course>348.04</course>
  <speed>0.0</speed>
  <fix>3d</fix>
</trkpt>
<trkpt lat="-35.362911" lon="149.1652221">
  <ele>586.51</ele>
  <time>2026-08-28T19:09:41Z</time>
  <course>339.78</course>
  <speed>0.01414213562373095</speed>
  <fix>3d</fix>
</trkpt>
<trkpt lat="-35.3629111" lon="149.1652222">
  <ele>586.45</ele>
  <time>2026-08-28T19:09:41Z</time>
  <course>7.46</course>
  <speed>0.0</speed>
  <fix>3d</fix>
</trkpt>
<trkpt lat="-35.362911" lon="149.1652221">
  <ele>586.41</ele>
  <time>2026-08-28T19:09:41Z</time>
  <course>339.78</course>
  <speed>0.01414213562373095</speed>
  <fix>3d</fix>
</trkpt>
<trkpt lat="-35.3629111" lon="149.1652222">
  <ele>586.36</ele>
  <time>2026-08-28T19:09:41Z</time>
  <course>19.26</course>
  <speed>0.0</speed>
  <fix>3d</fix>
</trkpt>
<trkpt lat="-35.362911" lon="149.1652221">
  <ele>586.31</ele>
  <time>2026-08-28T19:09:41Z</time>
  <course>339.77</course>
  <speed>0.01414213562373095</speed>
  <fix>3d</fix>
</trkpt>
<trkpt lat="-35.3629111" lon="149.1652222">
  <ele>586.25</ele>
  <time>2026-08-28T19:09:41Z</time>
  <course>28.73</course>
  <speed>0.0</speed>
  <fix>3d</fix>
</trkpt>
<trkpt lat="-35.362911" lon="149.1652221">
  <ele>586.21</ele>
  <time>2026-08-28T19:09:41Z</time>
  <course>339.77</course>
  <speed>0.01414213562373095</speed>
  <fix>3d</fix>
</trkpt>
<trkpt lat="-35.3629111" lon="149.1652222">
  <ele>586.15</ele>
  <time>2026-08-28T19:09:41Z</time>
  <course>37.82</course>
  <speed>0.0</speed>
  <fix>3d</fix>
</trkpt>
<trkpt lat="-35.362911" lon="149.1652221">
  <ele>586.1</ele>
  <time>2026-08-28T19:09:41Z</time>
  <course>339.77</course>
  <speed>0.01414213562373095</speed>
  <fix>3d</fix>
</trkpt>
<trkpt lat="-35.3629111" lon="149.1652222">
  <ele>586.05</ele>
  <time>2026-08-28T19:09:41Z</time>
  <course>44.37</course>
  <speed>0.0</speed>
  <fix>3d</fix>
</trkpt>
<trkpt lat="-35.362911" lon="149.1652221">
  <ele>586.0</ele>
  <time>2026-08-28T19:09:41Z</time>
  <course>339.77</course>
  <speed>0.01414213562373095</speed>
  <fix>3d</fix>
</trkpt>
<trkpt lat="-35.3629111" lon="149.1652222">
  <ele>585.95</ele>
  <time>2026-08-28T19:09:41Z</time>
  <course>48.88</course>
  <speed>0.0</speed>
  <fix>3d</fix>
</trkpt>
<trkpt lat="-35.362911" lon="149.1652221">
  <ele>585.9</ele>
  <time>2026-08-28T19:09:41Z</time>
  <course>339.78</course>
  <speed>0.01414213562373095</speed>
  <fix>3d</fix>
</trkpt>
<trkpt lat="-35.3629111" lon="149.1652222">
  <ele>585.85</ele>
  <time>2026-08-28T19:09:41Z</time>
  <course>52.26</course>
  <speed>0.0</speed>
  <fix>3d</fix>
</trkpt>
<trkpt lat="-35.362911" lon="149.1652221">
  <ele>585.8</ele>
  <time>2026-08-28T19:09:41Z</time>
  <course>339.76</course>
  <speed>0.01</speed>
  <fix>3d</fix>
</trkpt>
<trkpt lat="-35.3629111" lon="149.1652222">
  <ele>585.75</ele>
  <time>2026-08-28T19:09:41Z</time>
  <course>54.72</course>
  <speed>0.0</speed>
  <fix>3d</fix>
</trkpt>
<trkpt lat="-35.362911" lon="149.1652221">
  <ele>585.71</ele>
  <time>2026-08-28T19:09:41Z</time>
  <course>339.76</course>
  <speed>0.01</speed>
  <fix>3d</fix>
</trkpt>
<trkpt lat="-35.3629111" lon="149.1652222">
  <ele>585.65</ele>
  <time>2026-08-28T19:09:41Z</time>
  <course>56.53</course>
  <speed>0.0</speed>
  <fix>3d</fix>
</trkpt>
<trkpt lat="-35.362911" lon="149.1652221">
  <ele>585.61</ele>
  <time>2026-08-28T19:09:41Z</time>
  <course>339.78</course>
  <speed>0.01</speed>
  <fix>3d</fix>
</trkpt>
<trkpt lat="-35.3629111" lon="149.1652222">
  <ele>585.55</ele>
  <time>2026-08-28T19:09:41Z</time>
  <course>57.82</course>
  <speed>0.0</speed>
  <fix>3d</fix>
</trkpt>
<trkpt lat="-35.362911" lon="149.1652221">
  <ele>585.51</ele>
  <time>2026-08-28T19:09:41Z</time>
  <course>339.77</course>
  <speed>0.01</speed>
  <fix>3d</fix>
</trkpt>
<trkpt lat="-35.3629111" lon="149.1652222">
  <ele>585.45</ele>
  <time>2026-08-28T19:09:41Z</time>
  <course>58.33</course>
  <speed>0.0</speed>
  <fix>3d</fix>
</trkpt>
<trkpt lat="-35.362911" lon="149.1652221">
  <ele>585.41</ele>
  <time>2026-08-28T19:09:41Z</time>
  <course>339.77</course>
  <speed>0.01</speed>
  <fix>3d</fix>
</trkpt>
<trkpt lat="-35.3629111" lon="149.1652222">
  <ele>585.35</ele>
  <time>2026-08-28T19:09:41Z</time>
  <course>57.97</course>
  <speed>0.0</speed>
  <fix>3d</fix>
</trkpt>
<trkpt lat="-35.362911" lon="149.1652221">
  <ele>585.31</ele>
  <time>2026-08-28T19:09:41Z</time>
  <course>339.79</course>
  <speed>0.01</speed>
  <fix>3d</fix>
</trkpt>
<trkpt lat="-35.362911" lon="149.1652222">
  <ele>585.25</ele>
  <time>2026-08-28T19:09:41Z</time>
  <course>56.67</course>
  <speed>0.0</speed>
  <fix>3d</fix>
</trkpt>
<trkpt lat="-35.362911" lon="149.1652221">
  <ele>585.21</ele>
  <time>2026-08-28T19:09:41Z</time>
  <course>339.79</course>
  <speed>0.01</speed>
  <fix>3d</fix>
</trkpt>
<trkpt lat="-35.3629109" lon="149.1652222">
  <ele>585.15</ele>
  <time>2026-08-28T19:09:41Z</time>
  <course>55.96</course>
  <speed>0.0</speed>
  <fix>3d</fix>
</trkpt>
<trkpt lat="-35.362911" lon="149.1652221">
  <ele>585.11</ele>
  <time>2026-08-28T19:09:41Z</time>
  <course>339.77</course>
  <speed>0.01414213562373095</speed>
  <fix>3d</fix>
</trkpt>
<trkpt lat="-35.3629109" lon="149.1652222">
  <ele>585.05</ele>
  <time>2026-08-28T19:09:41Z</time>
  <course>57.43</course>
  <speed>0.0</speed>
  <fix>3d</fix>
</trkpt>
<trkpt lat="-35.362911" lon="149.1652221">
  <ele>585.01</ele>
  <time>2026-08-28T19:09:41Z</time>
  <course>339.79</course>
  <speed>0.01414213562373095</speed>
  <fix>3d</fix>
</trkpt>
<trkpt lat="-35.3629109" lon="149.1652223">
  <ele>584.95</ele>
  <time>2026-08-28T19:09:41Z</time>
  <course>60.06</course>
  <speed>0.0</speed>
  <fix>3d</fix>
</trkpt>
<trkpt lat="-35.362911" lon="149.1652221">
  <ele>584.91</ele>
  <time>2026-08-28T19:09:41Z</time>
  <course>339.79</course>
  <speed>0.01</speed>
  <fix>3d</fix>
</trkpt>
<trkpt lat="-35.3629109" lon="149.1652224">
  <ele>584.85</ele>
  <time>2026-08-28T19:09:41Z</time>
  <course>66.29</course>
  <speed>0.0</speed>
  <fix>3d</fix>
</trkpt>
<trkpt lat="-35.362911" lon="149.1652221">
  <ele>584.81</ele>
  <time>2026-08-28T19:09:41Z</time>
  <course>339.79</course>
  <speed>0.01</speed>
  <fix>3d</fix>
</trkpt>
<trkpt lat="-35.3629109" lon="149.1652224">
  <ele>584.75</ele>
  <time>2026-08-28T19:09:41Z</time>
  <course>77.57</course>
  <speed>0.0</speed>
  <fix>3d</fix>
</trkpt>
<trkpt lat="-35.362911" lon="149.1652222">
  <ele>584.71</ele>
  <time>2026-08-28T19:09:41Z</time>
  <course>339.8</course>
  <speed>0.01</speed>
  <fix>3d</fix>
</trkpt>
<trkpt lat="-35.3629109" lon="149.1652224">
  <ele>584.64</ele>
  <time>2026-08-28T19:09:41Z</time>
  <course>90.01</course>
  <speed>0.0</speed>
  <fix>3d</fix>
</trkpt>
<trkpt lat="-35.362911" lon="149.1652222">
  <ele>584.61</ele>
  <time>2026-08-28T19:09:41Z</time>
  <course>339.8</course>
  <speed>0.01</speed>
  <fix>3d</fix>
</trkpt>
<trkpt lat="-35.3629109" lon="149.1652224">
  <ele>584.54</ele>
  <time>2026-08-28T19:09:41Z</time>
  <course>104.89</course>
  <speed>0.0</speed>
  <fix>3d</fix>
</trkpt>
<trkpt lat="-35.3629109" lon="149.1652222">
  <ele>584.51</ele>
  <time>2026-08-28T19:09:41Z</time>
  <course>339.79</course>
  <speed>0.01</speed>
  <fix>3d</fix>
</trkpt>
<trkpt lat="-35.3629109" lon="149.1652224">
  <ele>584.44</ele>
  <time>2026-08-28T19:09:41Z</time>
  <course>121.02</course>
  <speed>0.0</speed>
  <fix>3d</fix>
</trkpt>
<trkpt lat="-35.3629109" lon="149.1652222">
  <ele>584.41</ele>
  <time>2026-08-28T19:09:41Z</time>
  <course>339.8</course>
  <speed>0.01</speed>
  <fix>3d</fix>
</trkpt>
<trkpt lat="-35.3629109" lon="149.1652224">
  <ele>584.33</ele>
  <time>2026-08-28T19:09:41Z</time>
  <course>135.57</course>
  <speed>0.0</speed>
  <fix>3d</fix>
</trkpt>
<trkpt lat="-35.3629109" lon="149.1652222">
  <ele>584.31</ele>
  <time>2026-08-28T19:09:41Z</time>
  <course>339.81</course>
  <speed>0.01</speed>
  <fix>3d</fix>
</trkpt>
<trkpt lat="-35.3629109" lon="149.1652224">
  <ele>584.24</ele>
  <time>2026-08-28T19:09:41Z</time>
  <course>153.56</course>
  <speed>0.0</speed>
  <fix>3d</fix>
</trkpt>
<trkpt lat="-35.362911" lon="149.1652222">
  <ele>584.21</ele>
  <time>2026-08-28T19:09:41Z</time>
  <course>339.79</course>
  <speed>0.01</speed>
  <fix>3d</fix>
</trkpt>
<trkpt lat="-35.3629109" lon="149.1652224">
  <ele>584.14</ele>
  <time>2026-08-28T19:09:41Z</time>
  <course>167.2</course>
  <speed>0.0</speed>
  <fix>3d</fix>
</trkpt>
<trkpt lat="-35.362911" lon="149.1652222">
  <ele>584.11</ele>
  <time>2026-08-28T19:09:41Z</time>
  <course>339.79</course>
  <speed>0.01</speed>
  <fix>3d</fix>
</trkpt>
<trkpt lat="-35.3629109" lon="149.1652224">
  <ele>584.04</ele>
  <time>2026-08-28T19:09:41Z</time>
  <course>173.52</course>
  <speed>0.0</speed>
  <fix>3d</fix>
</trkpt>
<trkpt lat="-35.362911" lon="149.1652222">
  <ele>584.01</ele>
  <time>2026-08-28T19:09:41Z</time>
  <course>339.8</course>
  <speed>0.01</speed>
  <fix>3d</fix>
</trkpt>
<trkpt lat="-35.3629109" lon="149.1652225">
  <ele>583.94</ele>
  <time>2026-08-28T19:09:41Z</time>
  <course>178.77</course>
  <speed>0.0</speed>
  <fix>3d</fix>
</trkpt>
<trkpt lat="-35.362911" lon="149.1652223">
  <ele>583.91</ele>
  <time>2026-08-28T19:09:41Z</time>
  <course>339.79</course>
  <speed>0.01</speed>
  <fix>3d</fix>
</trkpt>
<trkpt lat="-35.3629109" lon="149.1652225">
  <ele>583.83</ele>
  <time>2026-08-28T19:09:41Z</time>
  <course>182.73</course>
  <speed>0.0</speed>
  <fix>3d</fix>
</trkpt>
<trkpt lat="-35.362911" lon="149.1652223">
  <ele>583.81</ele>
  <time>2026-08-28T19:09:41Z</time>
  <course>339.8</course>
  <speed>0.01</speed>
  <fix>3d</fix>
</trkpt>
<trkpt lat="-35.3629109" lon="149.1652225">
  <ele>583.73</ele>
  <time>2026-08-28T19:09:41Z</time>
  <course>186.71</course>
  <speed>0.0</speed>
  <fix>3d</fix>
</trkpt>
<trkpt lat="-35.362911" lon="149.1652223">
  <ele>583.71</ele>
  <time>2026-08-28T19:09:41Z</time>
  <course>339.8</course>
  <speed>0.01</speed>
  <fix>3d</fix>
</trkpt>
<trkpt lat="-35.3629109" lon="149.1652225">
  <ele>583.63</ele>
  <time>2026-08-28T19:09:41Z</time>
  <course>192.73</course>
  <speed>0.0</speed>
  <fix>3d</fix>
</trkpt>
<trkpt lat="-35.362911" lon="149.1652223">
  <ele>583.61</ele>
  <time>2026-08-28T19:09:41Z</time>
  <course>339.79</course>
  <speed>0.02</speed>
  <fix>3d</fix>
</trkpt>
<trkpt lat="-35.3629109" lon="149.1652225">
  <ele>583.53</ele>
  <time>2026-08-28T19:09:41Z</time>
  <course>198.6</course>
  <speed>0.0</speed>
  <fix>3d</fix>
</trkpt>
<trkpt lat="-35.362911" lon="149.1652223">
  <ele>583.5</ele>
  <time>2026-08-28T19:09:41Z</time>
  <course>339.79</course>
  <speed>0.02</speed>
  <fix>3d</fix>
</trkpt>
<trkpt lat="-35.362911" lon="149.1652225">
  <ele>583.43</ele>
  <time>2026-08-28T19:09:41Z</time>
  <course>202.92</course>
  <speed>0.0</speed>
  <fix>3d</fix>
</trkpt>
<trkpt lat="-35.362911" lon="149.1652223">
  <ele>583.4</ele>
  <time>2026-08-28T19:09:41Z</time>
  <course>339.8</course>
  <speed>0.02</speed>
  <fix>3d</fix>
</trkpt>
<trkpt lat="-35.3629111" lon="149.1652225">
  <ele>583.33</ele>
  <time>2026-08-28T19:09:41Z</time>
  <course>207.58</course>
  <speed>0.01</speed>
  <fix>3d</fix>
</trkpt>
<trkpt lat="-35.362911" lon="149.1652223">
  <ele>583.3</ele>
  <time>2026-08-28T19:09:41Z</time>
  <course>339.8</course>
  <speed>0.02</speed>
  <fix>3d</fix>
</trkpt>
<trkpt lat="-35.3629111" lon="149.1652225">
  <ele>583.23</ele>
  <time>2026-08-28T19:09:41Z</time>
  <course>212.4</course>
  <speed>0.01</speed>
  <fix>3d</fix>
</trkpt>
<trkpt lat="-35.362911" lon="149.1652223">
  <ele>583.2</ele>
  <time>2026-08-28T19:09:41Z</time>
  <course>339.78</course>
  <speed>0.02</speed>
  <fix>3d</fix>
</trkpt>
<trkpt lat="-35.3629111" lon="149.1652225">
  <ele>583.13</ele>
  <time>2026-08-28T19:09:41Z</time>
  <course>217.65</course>
  <speed>0.01</speed>
  <fix>3d</fix>
</trkpt>
<trkpt lat="-35.362911" lon="149.1652223">
  <ele>583.1</ele>
  <time>2026-08-28T19:09:41Z</time>
  <course>339.75</course>
  <speed>0.02</speed>
  <fix>3d</fix>
</trkpt>
<trkpt lat="-35.3629111" lon="149.1652225">
  <ele>583.03</ele>
  <time>2026-08-28T19:09:41Z</time>
  <course>225.19</course>
  <speed>0.01</speed>
  <fix>3d</fix>
</trkpt>
<trkpt lat="-35.362911" lon="149.1652223">
  <ele>583.0</ele>
  <time>2026-08-28T19:09:41Z</time>
  <course>339.76</course>
  <speed>0.02</speed>
  <fix>3d</fix>
</trkpt>
<trkpt lat="-35.3629111" lon="149.1652225">
  <ele>582.93</ele>
  <time>2026-08-28T19:09:41Z</time>
  <course>233.25</course>
  <speed>0.0</speed>
  <fix>3d</fix>
</trkpt>
<trkpt lat="-35.362911" lon="149.1652223">
  <ele>582.9</ele>
  <time>2026-08-28T19:09:41Z</time>
  <course>339.78</course>
  <speed>0.02</speed>
  <fix>3d</fix>
</trkpt>
<trkpt lat="-35.3629111" lon="149.1652224">
  <ele>582.83</ele>
  <time>2026-08-28T19:09:41Z</time>
  <course>241.08</course>
  <speed>0.0</speed>
  <fix>3d</fix>
</trkpt>
<trkpt lat="-35.362911" lon="149.1652223">
  <ele>582.8</ele>
  <time>2026-08-28T19:09:41Z</time>
  <course>339.8</course>
  <speed>0.02</speed>
  <fix>3d</fix>
</trkpt>
<trkpt lat="-35.3629111" lon="149.1652224">
  <ele>582.74</ele>
  <time>2026-08-28T19:09:41Z</time>
  <course>250.94</course>
  <speed>0.0</speed>
  <fix>3d</fix>
</trkpt>
<trkpt lat="-35.362911" lon="149.1652223">
  <ele>582.7</ele>
  <time>2026-08-28T19:09:41Z</time>
  <course>339.81</course>
  <speed>0.02</speed>
  <fix>3d</fix>
</trkpt>
<trkpt lat="-35.3629111" lon="149.1652224">
  <ele>582.64</ele>
  <time>2026-08-28T19:09:41Z</time>
  <course>261.93</course>
  <speed>0.0</speed>
  <fix>3d</fix>
</trkpt>
<trkpt lat="-35.362911" lon="149.1652223">
  <ele>582.6</ele>
  <time>2026-08-28T19:09:41Z</time>
  <course>339.79</course>
  <speed>0.022360679774997897</speed>
  <fix>3d</fix>
</trkpt>
<trkpt lat="-35.3629111" lon="149.1652224">
  <ele>582.54</ele>
  <time>2026-08-28T19:09:41Z</time>
  <course>269.99</course>
  <speed>0.0</speed>
  <fix>3d</fix>
</trkpt>
<trkpt lat="-35.362911" lon="149.1652222">
  <ele>582.5</ele>
  <time>2026-08-28T19:09:41Z</time>
  <course>339.81</course>
  <speed>0.022360679774997897</speed>
  <fix>3d</fix>
</trkpt>
<trkpt lat="-35.3629111" lon="149.1652224">
  <ele>582.44</ele>
  <time>2026-08-28T19:09:41Z</time>
  <course>276.0</course>
  <speed>0.0</speed>
  <fix>3d</fix>
</trkpt>
<trkpt lat="-35.362911" lon="149.1652222">
  <ele>582.4</ele>
  <time>2026-08-28T19:09:41Z</time>
  <course>339.78</course>
  <speed>0.022360679774997897</speed>
  <fix>3d</fix>
</trkpt>
<trkpt lat="-35.3629111" lon="149.1652223">
  <ele>582.33</ele>
  <time>2026-08-28T19:09:41Z</time>
  <course>282.74</course>
  <speed>0.0</speed>
  <fix>3d</fix>
</trkpt>
<trkpt lat="-35.362911" lon="149.1652222">
  <ele>582.3</ele>
  <time>2026-08-28T19:09:41Z</time>
  <course>339.79</course>
  <speed>0.03</speed>
  <fix>3d</fix>
</trkpt>
<trkpt lat="-35.3629111" lon="149.1652222">
  <ele>582.24</ele>
  <time>2026-08-28T19:09:41Z</time>
  <course>291.22</course>
  <speed>0.0</speed>
  <fix>3d</fix>
</trkpt>
<trkpt lat="-35.362911" lon="149.1652222">
  <ele>582.29</ele>
  <time>2026-08-28T19:09:41Z</time>
  <course>339.78</course>
  <speed>0.02</speed>
  <fix>3d</fix>
</trkpt>
<trkpt lat="-35.3629111" lon="149.1652222">
  <ele>582.17</ele>
  <time>2026-08-28T19:09:41Z</time>
  <course>261.76</course>
  <speed>0.01</speed>
  <fix>3d</fix>
</trkpt>
<trkpt lat="-35.362911" lon="149.1652222">
  <ele>582.3</ele>
  <time>2026-08-28T19:09:41Z</time>
  <course>339.78</course>
  <speed>0.01414213562373095</speed>
  <fix>3d</fix>
</trkpt>
<trkpt lat="-35.3629111" lon="149.1652222">
  <ele>582.17</ele>
  <time>2026-08-28T19:09:41Z</time>
  <course>255.77</course>
  <speed>0.0</speed>
  <fix>3d</fix>
</trkpt>
<trkpt lat="-35.362911" lon="149.1652222">
  <ele>582.29</ele>
  <time>2026-08-28T19:09:41Z</time>
  <course>339.81</course>
  <speed>0.01</speed>
  <fix>3d</fix>
</trkpt>
<trkpt lat="-35.3629111" lon="149.1652222">
  <ele>582.18</ele>
  <time>2026-08-28T19:09:41Z</time>
  <course>50.23</course>
  <speed>0.0</speed>
  <fix>3d</fix>
</trkpt>
<trkpt lat="-35.362911" lon="149.1652222">
  <ele>582.28</ele>
  <time>2026-08-28T19:09:41Z</time>
  <course>339.85</course>
  <speed>0.01</speed>
  <fix>3d</fix>
</trkpt>
<trkpt lat="-35.3629111" lon="149.1652222">
  <ele>582.18</ele>
  <time>2026-08-28T19:09:41Z</time>
  <course>63.94</course>
  <speed>0.0</speed>
  <fix>3d</fix>
</trkpt>
<trkpt lat="-35.362911" lon="149.1652221">
  <ele>582.29</ele>
  <time>2026-08-28T19:09:41Z</time>
  <course>339.88</course>
  <speed>0.01</speed>
  <fix>3d</fix>
</trkpt>
<trkpt lat="-35.3629111" lon="149.1652222">
  <ele>582.18</ele>
  <time>2026-08-28T19:09:41Z</time>
  <course>300.8</course>
  <speed>0.0</speed>
  <fix>3d</fix>
</trkpt>
<trkpt lat="-35.362911" lon="149.1652221">
  <ele>582.29</ele>
  <time>2026-08-28T19:09:41Z</time>
  <course>339.91</course>
  <speed>0.01</speed>
  <fix>3d</fix>
</trkpt>
<trkpt lat="-35.3629111" lon="149.1652222">
  <ele>582.18</ele>
  <time>2026-08-28T19:09:41Z</time>
  <course>327.14</course>
  <speed>0.0</speed>
  <fix>3d</fix>
</trkpt>
<trkpt lat="-35.362911" lon="149.1652221">
  <ele>582.29</ele>
  <time>2026-08-28T19:09:41Z</time>
  <course>339.93</course>
  <speed>0.01</speed>
  <fix>3d</fix>
</trkpt>
<trkpt lat="-35.3629111" lon="149.1652222">
  <ele>582.18</ele>
  <time>2026-08-28T19:09:41Z</time>
  <course>14.32</course>
  <speed>0.0</speed>
  <fix>3d</fix>
</trkpt>
<trkpt lat="-35.362911" lon="149.1652221">
  <ele>582.29</ele>
  <time>2026-08-28T19:09:41Z</time>
  <course>339.96</course>
  <speed>0.01</speed>
  <fix>3d</fix>
</trkpt>
<trkpt lat="-35.3629111" lon="149.1652222">
  <ele>582.18</ele>
  <time>2026-08-28T19:09:41Z</time>
  <course>29.61</course>
  <speed>0.0</speed>
  <fix>3d</fix>
</trkpt>
<trkpt lat="-35.362911" lon="149.1652221">
  <ele>582.29</ele>
  <time>2026-08-28T19:09:41Z</time>
  <course>339.98</course>
  <speed>0.01</speed>
  <fix>3d</fix>
</trkpt>
<trkpt lat="-35.3629111" lon="149.1652222">
  <ele>582.18</ele>
  <time>2026-08-28T19:09:41Z</time>
  <course>345.32</course>
  <speed>0.0</speed>
  <fix>3d</fix>
</trkpt>
<trkpt lat="-35.362911" lon="149.1652221">
  <ele>582.29</ele>
  <time>2026-08-28T19:09:41Z</time>
  <course>340.01</course>
  <speed>0.01</speed>
  <fix>3d</fix>
</trkpt>
<trkpt lat="-35.3629111" lon="149.1652222">
  <ele>582.18</ele>
  <time>2026-08-28T19:09:41Z</time>
  <course>330.61</course>
  <speed>0.0</speed>
  <fix>3d</fix>
</trkpt>
<trkpt lat="-35.362911" lon="149.1652221">
  <ele>582.3</ele>
  <time>2026-08-28T19:09:41Z</time>
  <course>340.02</course>
  <speed>0.01</speed>
  <fix>3d</fix>
</trkpt>
<trkpt lat="-35.3629111" lon="149.1652222">
  <ele>582.18</ele>
  <time>2026-08-28T19:09:41Z</time>
  <course>69.89</course>
  <speed>0.0</speed>
  <fix>3d</fix>
</trkpt>
<trkpt lat="-35.362911" lon="149.1652222">
  <ele>582.3</ele>
  <time>2026-08-28T19:09:41Z</time>
  <course>340.0</course>
  <speed>0.0</speed>
  <fix>3d</fix>
</trkpt>
<trkpt lat="-35.3629111" lon="149.1652222">
  <ele>582.18</ele>
  <time>2026-08-28T19:09:41Z</time>
  <course>74.68</course>
  <speed>0.01</speed>
  <fix>3d</fix>
</trkpt>
<trkpt lat="-35.362911" lon="149.1652222">
  <ele>582.3</ele>
  <time>2026-08-28T19:09:41Z</time>
  <course>339.98</course>
  <speed>0.01</speed>
  <fix>3d</fix>
</trkpt>
<trkpt lat="-35.3629111" lon="149.1652222">
  <ele>582.18</ele>
  <time>2026-08-28T19:09:41Z</time>
  <course>83.81</course>
  <speed>0.0</speed>
  <fix>3d</fix>
</trkpt>
<trkpt lat="-35.362911" lon="149.1652222">
  <ele>582.3</ele>
  <time>2026-08-28T19:09:41Z</time>
  <course>339.96</course>
  <speed>0.01</speed>
  <fix>3d</fix>
</trkpt>
<trkpt lat="-35.3629111" lon="149.1652222">
  <ele>582.18</ele>
  <time>2026-08-28T19:09:41Z</time>
  <course>215.72</course>
  <speed>0.0</speed>
  <fix>3d</fix>
</trkpt>
<trkpt lat="-35.362911" lon="149.1652222">
  <ele>582.3</ele>
  <time>2026-08-28T19:09:41Z</time>
  <course>339.96</course>
  <speed>0.01</speed>
  <fix>3d</fix>
</trkpt>
<trkpt lat="-35.3629111" lon="149.1652222">
  <ele>582.18</ele>
  <time>2026-08-28T19:09:41Z</time>
  <course>225.47</course>
  <speed>0.0</speed>
  <fix>3d</fix>
</trkpt>
<trkpt lat="-35.362911" lon="149.1652222">
  <ele>582.3</ele>
  <time>2026-08-28T19:09:41Z</time>
  <course>339.96</course>
  <speed>0.01</speed>
  <fix>3d</fix>
</trkpt>
<trkpt lat="-35.3629111" lon="149.1652222">
  <ele>582.18</ele>
  <time>2026-08-28T19:09:41Z</time>
  <course>204.11</course>
  <speed>0.0</speed>
  <fix>3d</fix>
</trkpt>
<trkpt lat="-35.362911" lon="149.1652221">
  <ele>582.3</ele>
  <time>2026-08-28T19:09:41Z</time>
  <course>339.96</course>
  <speed>0.01</speed>
  <fix>3d</fix>
</trkpt>
<trkpt lat="-35.3629111" lon="149.1652222">
  <ele>582.18</ele>
  <time>2026-08-28T19:09:41Z</time>
  <course>196.74</course>
  <speed>0.0</speed>
  <fix>3d</fix>
</trkpt>
<trkpt lat="-35.362911" lon="149.1652221">
  <ele>582.3</ele>
  <time>2026-08-28T19:09:41Z</time>
  <course>339.95</course>
  <speed>0.01</speed>
  <fix>3d</fix>
</trkpt>
<trkpt lat="-35.3629111" lon="149.1652222">
  <ele>582.18</ele>
  <time>2026-08-28T19:09:41Z</time>
  <course>203.85</course>
  <speed>0.0</speed>
  <fix>3d</fix>
</trkpt>
<trkpt lat="-35.362911" lon="149.1652221">
  <ele>582.3</ele>
  <time>2026-08-28T19:09:41Z</time>
  <course>339.95</course>
  <speed>0.01</speed>
  <fix>3d</fix>
</trkpt>
<trkpt lat="-35.3629111" lon="149.1652222">
  <ele>582.18</ele>
  <time>2026-08-28T19:09:41Z</time>
  <course>15.81</course>
  <speed>0.0</speed>
  <fix>3d</fix>
</trkpt>
<trkpt lat="-35.362911" lon="149.1652221">
  <ele>582.3</ele>
  <time>2026-08-28T19:09:41Z</time>
  <course>339.95</course>
  <speed>0.01</speed>
  <fix>3d</fix>
</trkpt>
<trkpt lat="-35.3629111" lon="149.1652222">
  <ele>582.18</ele>
  <time>2026-08-28T19:09:41Z</time>
  <course>354.66</course>
  <speed>0.0</speed>
  <fix>3d</fix>
</trkpt>
<trkpt lat="-35.362911" lon="149.1652221">
  <ele>582.3</ele>
  <time>2026-08-28T19:09:41Z</time>
  <course>339.95</course>
  <speed>0.01</speed>
  <fix>3d</fix>
</trkpt>
<trkpt lat="-35.3629111" lon="149.1652222">
  <ele>582.18</ele>
  <time>2026-08-28T19:09:41Z</time>
  <course>232.96</course>
  <speed>0.0</speed>
  <fix>3d</fix>
</trkpt>
<trkpt lat="-35.362911" lon="149.1652221">
  <ele>582.3</ele>
  <time>2026-08-28T19:09:41Z</time>
  <course>339.95</course>
  <speed>0.01</speed>
  <fix>3d</fix>
</trkpt>
<trkpt lat="-35.3629111" lon="149.1652222">
  <ele>582.18</ele>
  <time>2026-08-28T19:09:41Z</time>
  <course>239.94</course>
  <speed>0.0</speed>
  <fix>3d</fix>
</trkpt>
<trkpt lat="-35.362911" lon="149.1652221">
  <ele>582.3</ele>
  <time>2026-08-28T19:09:41Z</time>
  <course>339.95</course>
  <speed>0.01</speed>
  <fix>3d</fix>
</trkpt>
<trkpt lat="-35.3629111" lon="149.1652222">
  <ele>582.18</ele>
  <time>2026-08-28T19:09:41Z</time>
  <course>261.13</course>
  <speed>0.0</speed>
  <fix>3d</fix>
</trkpt>
<trkpt lat="-35.362911" lon="149.1652221">
  <ele>582.3</ele>
  <time>2026-08-28T19:09:41Z</time>
  <course>339.94</course>
  <speed>0.01</speed>
  <fix>3d</fix>
</trkpt>
<trkpt lat="-35.3629111" lon="149.1652222">
  <ele>582.18</ele>
  <time>2026-08-28T19:09:41Z</time>
  <course>250.89</course>
  <speed>0.0</speed>
  <fix>3d</fix>
</trkpt>
<trkpt lat="-35.362911" lon="149.1652221">
  <ele>582.3</ele>
  <time>2026-08-28T19:09:41Z</time>
  <course>339.94</course>
  <speed>0.01</speed>
  <fix>3d</fix>
</trkpt>
<trkpt lat="-35.3629111" lon="149.1652222">
  <ele>582.18</ele>
  <time>2026-08-28T19:09:41Z</time>
  <course>250.2</course>
  <speed>0.0</speed>
  <fix>3d</fix>
</trkpt>
<trkpt lat="-35.362911" lon="149.1652221">
  <ele>582.31</ele>
  <time>2026-08-28T19:09:41Z</time>
  <course>339.94</course>
  <speed>0.01</speed>
  <fix>3d</fix>
</trkpt>
<trkpt lat="-35.3629111" lon="149.1652222">
  <ele>582.18</ele>
  <time>2026-08-28T19:09:41Z</time>
  <course>250.56</course>
  <speed>0.0</speed>
  <fix>3d</fix>
</trkpt>
<trkpt lat="-35.362911" lon="149.1652221">
  <ele>582.31</ele>
  <time>2026-08-28T19:09:41Z</time>
  <course>339.94</course>
  <speed>0.01</speed>
  <fix>3d</fix>
</trkpt>
<trkpt lat="-35.3629111" lon="149.1652222">
  <ele>582.18</ele>
  <time>2026-08-28T19:09:41Z</time>
  <course>69.22</course>
  <speed>0.0</speed>
  <fix>3d</fix>
</trkpt>
<trkpt lat="-35.362911" lon="149.1652221">
  <ele>582.31</ele>
  <time>2026-08-28T19:09:41Z</time>
  <course>339.94</course>
  <speed>0.01</speed>
  <fix>3d</fix>
</trkpt>
<trkpt lat="-35.3629111" lon="149.1652222">
  <ele>582.18</ele>
  <time>2026-08-28T19:09:41Z</time>
  <course>68.31</course>
  <speed>0.0</speed>
  <fix>3d</fix>
</trkpt>
<trkpt lat="-35.362911" lon="149.1652221">
  <ele>582.31</ele>
  <time>2026-08-28T19:09:41Z</time>
  <course>339.93</course>
  <speed>0.01</speed>
  <fix>3d</fix>
</trkpt>
<trkpt lat="-35.3629111" lon="149.1652222">
  <ele>582.18</ele>
  <time>2026-08-28T19:09:41Z</time>
  <course>60.05</course>
  <speed>0.0</speed>
  <fix>3d</fix>
</trkpt>
<trkpt lat="-35.362911" lon="149.1652221">
  <ele>582.31</ele>
  <time>2026-08-28T19:09:41Z</time>
  <course>339.93</course>
  <speed>0.01</speed>
  <fix>3d</fix>
</trkpt>
<trkpt lat="-35.3629111" lon="149.1652222">
  <ele>582.18</ele>
  <time>2026-08-28T19:09:41Z</time>
  <course>65.9</course>
  <speed>0.0</speed>
  <fix>3d</fix>
</trkpt>
<trkpt lat="-35.362911" lon="149.1652221">
  <ele>582.32</ele>
  <time>2026-08-28T19:09:41Z</time>
  <course>339.93</course>
  <speed>0.01</speed>
  <fix>3d</fix>
</trkpt>
<trkpt lat="-35.3629111" lon="149.1652222">
  <ele>582.18</ele>
  <time>2026-08-28T19:09:41Z</time>
  <course>66.55</course>
  <speed>0.0</speed>
  <fix>3d</fix>
</trkpt>
<trkpt lat="-35.362911" lon="149.1652221">
  <ele>582.32</ele>
  <time>2026-08-28T19:09:41Z</time>
  <course>339.93</course>
  <speed>0.01</speed>
  <fix>3d</fix>
</trkpt>
<trkpt lat="-35.3629111" lon="149.1652222">
  <ele>582.18</ele>
  <time>2026-08-28T19:09:41Z</time>
  <course>66.22</course>
  <speed>0.0</speed>
  <fix>3d</fix>
</trkpt>
<trkpt lat="-35.362911" lon="149.1652221">
  <ele>582.32</ele>
  <time>2026-08-28T19:09:41Z</time>
  <course>339.93</course>
  <speed>0.01</speed>
  <fix>3d</fix>
</trkpt>
<trkpt lat="-35.3629111" lon="149.1652222">
  <ele>582.18</ele>
  <time>2026-08-28T19:09:41Z</time>
  <course>66.18</course>
  <speed>0.0</speed>
  <fix>3d</fix>
</trkpt>
<trkpt lat="-35.362911" lon="149.1652221">
  <ele>582.32</ele>
  <time>2026-08-28T19:09:41Z</time>
  <course>339.92</course>
  <speed>0.01</speed>
  <fix>3d</fix>
</trkpt>
<trkpt lat="-35.3629111" lon="149.1652222">
  <ele>582.18</ele>
  <time>2026-08-28T19:09:41Z</time>
  <course>66.23</course>
  <speed>0.0</speed>
  <fix>3d</fix>
</trkpt>
<trkpt lat="-35.362911" lon="149.1652221">
  <ele>582.32</ele>
  <time>2026-08-28T19:09:41Z</time>
  <course>339.92</course>
  <speed>0.01</speed>
  <fix>3d</fix>
</trkpt>
<trkpt lat="-35.3629111" lon="149.1652222">
  <ele>582.18</ele>
  <time>2026-08-28T19:09:41Z</time>
  <course>66.23</course>
  <speed>0.0</speed>
  <fix>3d</fix>
</trkpt>
<trkpt lat="-35.362911" lon="149.1652221">
  <ele>582.32</ele>
  <time>2026-08-28T19:09:41Z</time>
  <course>339.92</course>
  <speed>0.01</speed>
  <fix>3d</fix>
</trkpt>
<trkpt lat="-35.3629111" lon="149.1652222">
  <ele>582.18</ele>
  <time>2026-08-28T19:09:41Z</time>
  <course>66.22</course>
  <speed>0.0</speed>
  <fix>3d</fix>
</trkpt>
<trkpt lat="-35.362911" lon="149.1652221">
  <ele>582.32</ele>
  <time>2026-08-28T19:09:41Z</time>
  <course>339.92</course>
  <speed>0.01</speed>
  <fix>3d</fix>
</trkpt>
<trkpt lat="-35.3629111" lon="149.1652222">
  <ele>582.18</ele>
  <time>2026-08-28T19:09:41Z</time>
  <course>66.22</course>
  <speed>0.0</speed>
  <fix>3d</fix>
</trkpt>
<trkpt lat="-35.362911" lon="149.1652221">
  <ele>582.32</ele>
  <time>2026-08-28T19:09:41Z</time>
  <course>339.92</course>
  <speed>0.01</speed>
  <fix>3d</fix>
</trkpt>
<trkpt lat="-35.3629111" lon="149.1652222">
  <ele>582.18</ele>
  <time>2026-08-28T19:09:41Z</time>
  <course>66.22</course>
  <speed>0.0</speed>
  <fix>3d</fix>
</trkpt>
<trkpt lat="-35.362911" lon="149.1652221">
  <ele>582.32</ele>
  <time>2026-08-28T19:09:41Z</time>
  <course>339.92</course>
  <speed>0.01</speed>
  <fix>3d</fix>
</trkpt>
<trkpt lat="-35.3629111" lon="149.1652222">
  <ele>582.18</ele>
  <time>2026-08-28T19:09:41Z</time>
  <course>66.22</course>
  <speed>0.0</speed>
  <fix>3d</fix>
</trkpt>
<trkpt lat="-35.362911" lon="149.1652221">
  <ele>582.32</ele>
  <time>2026-08-28T19:09:41Z</time>
  <course>339.91</course>
  <speed>0.01</speed>
  <fix>3d</fix>
</trkpt>
<trkpt lat="-35.3629111" lon="149.1652222">
  <ele>582.18</ele>
  <time>2026-08-28T19:09:41Z</time>
  <course>66.22</course>
  <speed>0.0</speed>
  <fix>3d</fix>
</trkpt>
<trkpt lat="-35.362911" lon="149.1652221">
  <ele>582.32</ele>
  <time>2026-08-28T19:09:41Z</time>
  <course>339.91</course>
  <speed>0.01</speed>
  <fix>3d</fix>
</trkpt>
<trkpt lat="-35.3629111" lon="149.1652222">
  <ele>582.18</ele>
  <time>2026-08-28T19:09:41Z</time>
  <course>66.22</course>
  <speed>0.0</speed>
  <fix>3d</fix>
</trkpt>
<trkpt lat="-35.362911" lon="149.1652221">
  <ele>582.32</ele>
  <time>2026-08-28T19:09:41Z</time>
  <course>339.91</course>
  <speed>0.01</speed>
  <fix>3d</fix>
</trkpt>
<trkpt lat="-35.3629111" lon="149.1652222">
  <ele>582.18</ele>
  <time>2026-08-28T19:09:41Z</time>
  <course>66.22</course>
  <speed>0.0</speed>
  <fix>3d</fix>
</trkpt>
<trkpt lat="-35.362911" lon="149.1652221">
  <ele>582.32</ele>
  <time>2026-08-28T19:09:41Z</time>
  <course>339.91</course>
  <speed>0.01</speed>
  <fix>3d</fix>
</trkpt>
<trkpt lat="-35.3629111" lon="149.1652222">
  <ele>582.18</ele>
  <time>2026-08-28T19:09:41Z</time>
  <course>66.22</course>
  <speed>0.0</speed>
  <fix>3d</fix>
</trkpt>
<trkpt lat="-35.362911" lon="149.1652221">
  <ele>582.33</ele>
  <time>2026-08-28T19:09:41Z</time>
  <course>339.91</course>
  <speed>0.01</speed>
  <fix>3d</fix>
</trkpt>
<trkpt lat="-35.3629111" lon="149.1652222">
  <ele>582.18</ele>
  <time>2026-08-28T19:09:41Z</time>
  <course>66.22</course>
  <speed>0.0</speed>
  <fix>3d</fix>
</trkpt>
<trkpt lat="-35.362911" lon="149.1652221">
  <ele>582.33</ele>
  <time>2026-08-28T19:09:41Z</time>
  <course>339.91</course>
  <speed>0.01</speed>
  <fix>3d</fix>
</trkpt>
<trkpt lat="-35.3629111" lon="149.1652222">
  <ele>582.18</ele>
  <time>2026-08-28T19:09:41Z</time>
  <course>66.22</course>
  <speed>0.0</speed>
  <fix>3d</fix>
</trkpt>
<trkpt lat="-35.362911" lon="149.1652221">
  <ele>582.33</ele>
  <time>2026-08-28T19:09:42Z</time>
  <course>339.9</course>
  <speed>0.01</speed>
  <fix>3d</fix>
</trkpt>
<trkpt lat="-35.3629111" lon="149.1652222">
  <ele>582.18</ele>
  <time>2026-08-28T19:09:42Z</time>
  <course>66.22</course>
  <speed>0.0</speed>
  <fix>3d</fix>
</trkpt>
<trkpt lat="-35.362911" lon="149.1652221">
  <ele>582.34</ele>
  <time>2026-08-28T19:09:42Z</time>
  <course>339.9</course>
  <speed>0.01</speed>
  <fix>3d</fix>
</trkpt>
<trkpt lat="-35.3629111" lon="149.1652222">
  <ele>582.18</ele>
  <time>2026-08-28T19:09:42Z</time>
  <course>66.22</course>
  <speed>0.0</speed>
  <fix>3d</fix>
</trkpt>
<trkpt lat="-35.362911" lon="149.1652221">
  <ele>582.34</ele>
  <time>2026-08-28T19:09:42Z</time>
  <course>339.9</course>
  <speed>0.01</speed>
  <fix>3d</fix>
</trkpt>
<trkpt lat="-35.3629111" lon="149.1652222">
  <ele>582.18</ele>
  <time>2026-08-28T19:09:42Z</time>
  <course>66.22</course>
  <speed>0.0</speed>
  <fix>3d</fix>
</trkpt>
<trkpt lat="-35.362911" lon="149.1652221">
  <ele>582.34</ele>
  <time>2026-08-28T19:09:42Z</time>
  <course>339.9</course>
  <speed>0.01</speed>
  <fix>3d</fix>
</trkpt>
<trkpt lat="-35.3629111" lon="149.1652222">
  <ele>582.18</ele>
  <time>2026-08-28T19:09:42Z</time>
  <course>66.22</course>
  <speed>0.0</speed>
  <fix>3d</fix>
</trkpt>
<trkpt lat="-35.362911" lon="149.1652221">
  <ele>582.34</ele>
  <time>2026-08-28T19:09:42Z</time>
  <course>339.9</course>
  <speed>0.01</speed>
  <fix>3d</fix>
</trkpt>
<trkpt lat="-35.3629111" lon="149.1652222">
  <ele>582.18</ele>
  <time>2026-08-28T19:09:42Z</time>
  <course>66.22</course>
  <speed>0.0</speed>
  <fix>3d</fix>
</trkpt>
<trkpt lat="-35.362911" lon="149.1652221">
  <ele>582.34</ele>
  <time>2026-08-28T19:09:42Z</time>
  <course>339.9</course>
  <speed>0.01</speed>
  <fix>3d</fix>
</trkpt>
<trkpt lat="-35.3629111" lon="149.1652222">
  <ele>582.18</ele>
  <time>2026-08-28T19:09:42Z</time>
  <course>66.22</course>
  <speed>0.0</speed>
  <fix>3d</fix>
</trkpt>
<trkpt lat="-35.362911" lon="149.1652221">
  <ele>582.34</ele>
  <time>2026-08-28T19:09:42Z</time>
  <course>339.89</course>
  <speed>0.01</speed>
  <fix>3d</fix>
</trkpt>
<trkpt lat="-35.3629111" lon="149.1652222">
  <ele>582.18</ele>
  <time>2026-08-28T19:09:42Z</time>
  <course>66.22</course>
  <speed>0.0</speed>
  <fix>3d</fix>
</trkpt>
<trkpt lat="-35.362911" lon="149.1652221">
  <ele>582.34</ele>
  <time>2026-08-28T19:09:42Z</time>
  <course>339.89</course>
  <speed>0.01</speed>
  <fix>3d</fix>
</trkpt>
<trkpt lat="-35.3629111" lon="149.1652222">
  <ele>582.18</ele>
  <time>2026-08-28T19:09:42Z</time>
  <course>66.22</course>
  <speed>0.0</speed>
  <fix>3d</fix>
</trkpt>
<trkpt lat="-35.362911" lon="149.1652221">
  <ele>582.34</ele>
  <time>2026-08-28T19:09:42Z</time>
  <course>339.89</course>
  <speed>0.01</speed>
  <fix>3d</fix>
</trkpt>
<trkpt lat="-35.3629111" lon="149.1652222">
  <ele>582.18</ele>
  <time>2026-08-28T19:09:42Z</time>
  <course>66.22</course>
  <speed>0.0</speed>
  <fix>3d</fix>
</trkpt>
<trkpt lat="-35.362911" lon="149.1652221">
  <ele>582.33</ele>
  <time>2026-08-28T19:09:42Z</time>
  <course>339.89</course>
  <speed>0.01</speed>
  <fix>3d</fix>
</trkpt>
<trkpt lat="-35.3629111" lon="149.1652222">
  <ele>582.18</ele>
  <time>2026-08-28T19:09:42Z</time>
  <course>66.22</course>
  <speed>0.0</speed>
  <fix>3d</fix>
</trkpt>
<trkpt lat="-35.362911" lon="149.1652221">
  <ele>582.33</ele>
  <time>2026-08-28T19:09:42Z</time>
  <course>339.89</course>
  <speed>0.01</speed>
  <fix>3d</fix>
</trkpt>
<trkpt lat="-35.3629111" lon="149.1652222">
  <ele>582.18</ele>
  <time>2026-08-28T19:09:42Z</time>
  <course>66.22</course>
  <speed>0.0</speed>
  <fix>3d</fix>
</trkpt>
<trkpt lat="-35.362911" lon="149.1652221">
  <ele>582.33</ele>
  <time>2026-08-28T19:09:42Z</time>
  <course>339.89</course>
  <speed>0.01</speed>
  <fix>3d</fix>
</trkpt>
<trkpt lat="-35.3629111" lon="149.1652222">
  <ele>582.18</ele>
  <time>2026-08-28T19:09:42Z</time>
  <course>66.22</course>
  <speed>0.0</speed>
  <fix>3d</fix>
</trkpt>
<trkpt lat="-35.362911" lon="149.1652221">
  <ele>582.33</ele>
  <time>2026-08-28T19:09:42Z</time>
  <course>339.88</course>
  <speed>0.01</speed>
  <fix>3d</fix>
</trkpt>
<trkpt lat="-35.3629111" lon="149.1652222">
  <ele>582.18</ele>
  <time>2026-08-28T19:09:42Z</time>
  <course>66.22</course>
  <speed>0.0</speed>
  <fix>3d</fix>
</trkpt>
<trkpt lat="-35.362911" lon="149.1652221">
  <ele>582.33</ele>
  <time>2026-08-28T19:09:42Z</time>
  <course>339.88</course>
  <speed>0.01</speed>
  <fix>3d</fix>
</trkpt>
<trkpt lat="-35.3629111" lon="149.1652222">
  <ele>582.18</ele>
  <time>2026-08-28T19:09:42Z</time>
  <course>66.22</course>
  <speed>0.0</speed>
  <fix>3d</fix>
</trkpt>
<trkpt lat="-35.362911" lon="149.1652221">
  <ele>582.33</ele>
  <time>2026-08-28T19:09:42Z</time>
  <course>339.88</course>
  <speed>0.01</speed>
  <fix>3d</fix>
</trkpt>
<trkpt lat="-35.3629111" lon="149.1652222">
  <ele>582.18</ele>
  <time>2026-08-28T19:09:42Z</time>
  <course>66.22</course>
  <speed>0.0</speed>
  <fix>3d</fix>
</trkpt>
<trkpt lat="-35.362911" lon="149.1652221">
  <ele>582.32</ele>
  <time>2026-08-28T19:09:42Z</time>
  <course>339.9</course>
  <speed>0.01</speed>
  <fix>3d</fix>
</trkpt>
<trkpt lat="-35.3629111" lon="149.1652222">
  <ele>582.18</ele>
  <time>2026-08-28T19:09:42Z</time>
  <course>66.22</course>
  <speed>0.0</speed>
  <fix>3d</fix>
</trkpt>
<trkpt lat="-35.362911" lon="149.1652221">
  <ele>582.32</ele>
  <time>2026-08-28T19:09:42Z</time>
  <course>339.92</course>
  <speed>0.01</speed>
  <fix>3d</fix>
</trkpt>
<trkpt lat="-35.3629111" lon="149.1652222">
  <ele>582.18</ele>
  <time>2026-08-28T19:09:42Z</time>
  <course>66.22</course>
  <speed>0.0</speed>
  <fix>3d</fix>
</trkpt>
<trkpt lat="-35.362911" lon="149.1652221">
  <ele>582.32</ele>
  <time>2026-08-28T19:09:42Z</time>
  <course>339.93</course>
  <speed>0.01</speed>
  <fix>3d</fix>
</trkpt>
<trkpt lat="-35.3629111" lon="149.1652222">
  <ele>582.18</ele>
  <time>2026-08-28T19:09:42Z</time>
  <course>66.22</course>
  <speed>0.0</speed>
  <fix>3d</fix>
</trkpt>
<trkpt lat="-35.362911" lon="149.1652221">
  <ele>582.32</ele>
  <time>2026-08-28T19:09:42Z</time>
  <course>339.95</course>
  <speed>0.01</speed>
  <fix>3d</fix>
</trkpt>
<trkpt lat="-35.3629111" lon="149.1652222">
  <ele>582.18</ele>
  <time>2026-08-28T19:09:42Z</time>
  <course>66.22</course>
  <speed>0.0</speed>
  <fix>3d</fix>
</trkpt>
<trkpt lat="-35.362911" lon="149.1652221">
  <ele>582.33</ele>
  <time>2026-08-28T19:09:42Z</time>
  <course>339.96</course>
  <speed>0.02</speed>
  <fix>3d</fix>
</trkpt>
<trkpt lat="-35.3629111" lon="149.1652222">
  <ele>582.18</ele>
  <time>2026-08-28T19:09:42Z</time>
  <course>66.22</course>
  <speed>0.0</speed>
  <fix>3d</fix>
</trkpt>
<trkpt lat="-35.362911" lon="149.1652221">
  <ele>582.33</ele>
  <time>2026-08-28T19:09:42Z</time>
  <course>339.98</course>
  <speed>0.02</speed>
  <fix>3d</fix>
</trkpt>
<trkpt lat="-35.3629111" lon="149.1652222">
  <ele>582.18</ele>
  <time>2026-08-28T19:09:42Z</time>
  <course>66.22</course>
  <speed>0.0</speed>
  <fix>3d</fix>
</trkpt>
<trkpt lat="-35.362911" lon="149.1652221">
  <ele>582.34</ele>
  <time>2026-08-28T19:09:42Z</time>
  <course>340.0</course>
  <speed>0.02</speed>
  <fix>3d</fix>
</trkpt>
<trkpt lat="-35.3629111" lon="149.1652222">
  <ele>582.18</ele>
  <time>2026-08-28T19:09:42Z</time>
  <course>66.22</course>
  <speed>0.0</speed>
  <fix>3d</fix>
</trkpt>
<trkpt lat="-35.362911" lon="149.1652221">
  <ele>582.34</ele>
  <time>2026-08-28T19:09:42Z</time>
  <course>340.01</course>
  <speed>0.02</speed>
  <fix>3d</fix>
</trkpt>
<trkpt lat="-35.3629111" lon="149.1652222">
  <ele>582.18</ele>
  <time>2026-08-28T19:09:42Z</time>
  <course>66.22</course>
  <speed>0.0</speed>
  <fix>3d</fix>
</trkpt>
<trkpt lat="-35.362911" lon="149.1652221">
  <ele>582.35</ele>
  <time>2026-08-28T19:09:42Z</time>
  <course>340.03</course>
  <speed>0.02</speed>
  <fix>3d</fix>
</trkpt>
<trkpt lat="-35.3629111" lon="149.1652222">
  <ele>582.18</ele>
  <time>2026-08-28T19:09:42Z</time>
  <course>66.22</course>
  <speed>0.0</speed>
  <fix>3d</fix>
</trkpt>
<trkpt lat="-35.362911" lon="149.1652221">
  <ele>582.34</ele>
  <time>2026-08-28T19:09:42Z</time>
  <course>340.05</course>
  <speed>0.02</speed>
  <fix>3d</fix>
</trkpt>
<trkpt lat="-35.3629111" lon="149.1652222">
  <ele>582.18</ele>
  <time>2026-08-28T19:09:42Z</time>
  <course>66.22</course>
  <speed>0.0</speed>
  <fix>3d</fix>
</trkpt>
<trkpt lat="-35.362911" lon="149.1652221">
  <ele>582.34</ele>
  <time>2026-08-28T19:09:42Z</time>
  <course>340.07</course>
  <speed>0.02</speed>
  <fix>3d</fix>
</trkpt>
<trkpt lat="-35.3629111" lon="149.1652222">
  <ele>582.18</ele>
  <time>2026-08-28T19:09:42Z</time>
  <course>66.22</course>
  <speed>0.0</speed>
  <fix>3d</fix>
</trkpt>
<trkpt lat="-35.362911" lon="149.1652221">
  <ele>582.34</ele>
  <time>2026-08-28T19:09:42Z</time>
  <course>340.08</course>
  <speed>0.02</speed>
  <fix>3d</fix>
</trkpt>
<trkpt lat="-35.3629111" lon="149.1652222">
  <ele>582.18</ele>
  <time>2026-08-28T19:09:42Z</time>
  <course>66.22</course>
  <speed>0.0</speed>
  <fix>3d</fix>
</trkpt>
<trkpt lat="-35.362911" lon="149.1652221">
  <ele>582.34</ele>
  <time>2026-08-28T19:09:42Z</time>
  <course>340.1</course>
  <speed>0.02</speed>
  <fix>3d</fix>
</trkpt>
<trkpt lat="-35.3629111" lon="149.1652222">
  <ele>582.18</ele>
  <time>2026-08-28T19:09:42Z</time>
  <course>66.22</course>
  <speed>0.0</speed>
  <fix>3d</fix>
</trkpt>
<trkpt lat="-35.362911" lon="149.1652221">
  <ele>582.34</ele>
  <time>2026-08-28T19:09:42Z</time>
  <course>340.12</course>
  <speed>0.02</speed>
  <fix>3d</fix>
</trkpt>
<trkpt lat="-35.3629111" lon="149.1652222">
  <ele>582.18</ele>
  <time>2026-08-28T19:09:42Z</time>
  <course>66.22</course>
  <speed>0.0</speed>
  <fix>3d</fix>
</trkpt>
<trkpt lat="-35.362911" lon="149.1652221">
  <ele>582.34</ele>
  <time>2026-08-28T19:09:42Z</time>
  <course>340.13</course>
  <speed>0.02</speed>
  <fix>3d</fix>
</trkpt>
<trkpt lat="-35.3629111" lon="149.1652222">
  <ele>582.18</ele>
  <time>2026-08-28T19:09:42Z</time>
  <course>66.22</course>
  <speed>0.0</speed>
  <fix>3d</fix>
</trkpt>
<trkpt lat="-35.362911" lon="149.1652221">
  <ele>582.34</ele>
  <time>2026-08-28T19:09:42Z</time>
  <course>340.15</course>
  <speed>0.02</speed>
  <fix>3d</fix>
</trkpt>
<trkpt lat="-35.3629111" lon="149.1652222">
  <ele>582.18</ele>
  <time>2026-08-28T19:09:42Z</time>
  <course>66.22</course>
  <speed>0.0</speed>
  <fix>3d</fix>
</trkpt>
<trkpt lat="-35.362911" lon="149.1652221">
  <ele>582.34</ele>
  <time>2026-08-28T19:09:42Z</time>
  <course>340.17</course>
  <speed>0.02</speed>
  <fix>3d</fix>
</trkpt>
<trkpt lat="-35.3629111" lon="149.1652222">
  <ele>582.18</ele>
  <time>2026-08-28T19:09:42Z</time>
  <course>66.22</course>
  <speed>0.0</speed>
  <fix>3d</fix>
</trkpt>
<trkpt lat="-35.362911" lon="149.1652221">
  <ele>582.35</ele>
  <time>2026-08-28T19:09:42Z</time>
  <course>340.19</course>
  <speed>0.02</speed>
  <fix>3d</fix>
</trkpt>
<trkpt lat="-35.3629111" lon="149.1652222">
  <ele>582.18</ele>
  <time>2026-08-28T19:09:42Z</time>
  <course>66.22</course>
  <speed>0.0</speed>
  <fix>3d</fix>
</trkpt>
<trkpt lat="-35.362911" lon="149.1652221">
  <ele>582.35</ele>
  <time>2026-08-28T19:09:42Z</time>
  <course>340.21</course>
  <speed>0.02</speed>
  <fix>3d</fix>
</trkpt>
<trkpt lat="-35.3629111" lon="149.1652222">
  <ele>582.18</ele>
  <time>2026-08-28T19:09:42Z</time>
  <course>66.22</course>
  <speed>0.0</speed>
  <fix>3d</fix>
</trkpt>
<trkpt lat="-35.362911" lon="149.1652221">
  <ele>582.36</ele>
  <time>2026-08-28T19:09:42Z</time>
  <course>340.23</course>
  <speed>0.02</speed>
  <fix>3d</fix>
</trkpt>
<trkpt lat="-35.3629111" lon="149.1652222">
  <ele>582.18</ele>
  <time>2026-08-28T19:09:42Z</time>
  <course>66.22</course>
  <speed>0.0</speed>
  <fix>3d</fix>
</trkpt>
<trkpt lat="-35.362911" lon="149.1652221">
  <ele>582.36</ele>
  <time>2026-08-28T19:09:42Z</time>
  <course>340.25</course>
  <speed>0.02</speed>
  <fix>3d</fix>
</trkpt>
<trkpt lat="-35.3629111" lon="149.1652222">
  <ele>582.18</ele>
  <time>2026-08-28T19:09:42Z</time>
  <course>66.22</course>
  <speed>0.0</speed>
  <fix>3d</fix>
</trkpt>
<trkpt lat="-35.362911" lon="149.1652221">
  <ele>582.36</ele>
  <time>2026-08-28T19:09:42Z</time>
  <course>340.27</course>
  <speed>0.02</speed>
  <fix>3d</fix>
</trkpt>
<trkpt lat="-35.3629111" lon="149.1652222">
  <ele>582.18</ele>
  <time>2026-08-28T19:09:42Z</time>
  <course>66.22</course>
  <speed>0.0</speed>
  <fix>3d</fix>
</trkpt>
<trkpt lat="-35.362911" lon="149.1652221">
  <ele>582.36</ele>
  <time>2026-08-28T19:09:42Z</time>
  <course>340.29</course>
  <speed>0.02</speed>
  <fix>3d</fix>
</trkpt>
<trkpt lat="-35.3629111" lon="149.1652222">
  <ele>582.18</ele>
  <time>2026-08-28T19:09:42Z</time>
  <course>66.22</course>
  <speed>0.0</speed>
  <fix>3d</fix>
</trkpt>
<trkpt lat="-35.362911" lon="149.1652221">
  <ele>582.36</ele>
  <time>2026-08-28T19:09:42Z</time>
  <course>340.31</course>
  <speed>0.02</speed>
  <fix>3d</fix>
</trkpt>
<trkpt lat="-35.3629111" lon="149.1652222">
  <ele>582.18</ele>
  <time>2026-08-28T19:09:42Z</time>
  <course>66.22</course>
  <speed>0.0</speed>
  <fix>3d</fix>
</trkpt>
<trkpt lat="-35.362911" lon="149.1652221">
  <ele>582.36</ele>
  <time>2026-08-28T19:09:42Z</time>
  <course>340.33</course>
  <speed>0.02</speed>
  <fix>3d</fix>
</trkpt>
<trkpt lat="-35.3629111" lon="149.1652222">
  <ele>582.18</ele>
  <time>2026-08-28T19:09:42Z</time>
  <course>66.22</course>
  <speed>0.0</speed>
  <fix>3d</fix>
</trkpt>
<trkpt lat="-34.9940953" lon="147.6096364">
  <ele>576.01</ele>
  <time>2026-08-28T19:09:43Z</time>
  <course>248.86</course>
  <speed>0.0</speed>
  <fix>3d</fix>
</trkpt>
<trkpt lat="-35.362881" lon="149.165222">
  <ele>582.09</ele>
  <time>2026-08-28T19:09:43Z</time>
  <course>79.27</course>
  <speed>0.0</speed>
  <fix>3d</fix>
</trkpt>
<trkpt lat="-35.362881" lon="149.165222">
  <ele>582.09</ele>
  <time>2026-08-28T19:09:43Z</time>
  <course>132.41</course>
  <speed>0.0</speed>
  <fix>3d</fix>
</trkpt>
<trkpt lat="-35.362881" lon="149.165222">
  <ele>582.09</ele>
  <time>2026-08-28T19:09:43Z</time>
  <course>79.91</course>
  <speed>0.0</speed>
  <fix>3d</fix>
</trkpt>
<trkpt lat="-35.362881" lon="149.165222">
  <ele>582.09</ele>
  <time>2026-08-28T19:09:43Z</time>
  <course>358.5</course>
  <speed>0.0</speed>
  <fix>3d</fix>
</trkpt>
<trkpt lat="-35.362881" lon="149.165222">
  <ele>582.09</ele>
  <time>2026-08-28T19:09:43Z</time>
  <course>81.14</course>
  <speed>0.0</speed>
  <fix>3d</fix>
</trkpt>
<trkpt lat="-35.362881" lon="149.165222">
  <ele>582.09</ele>
  <time>2026-08-28T19:09:43Z</time>
  <course>289.3</course>
  <speed>0.0</speed>
  <fix>3d</fix>
</trkpt>
<trkpt lat="-35.362881" lon="149.165222">
  <ele>582.09</ele>
  <time>2026-08-28T19:09:43Z</time>
  <course>82.29</course>
  <speed>0.0</speed>
  <fix>3d</fix>
</trkpt>
<trkpt lat="-35.362881" lon="149.165222">
  <ele>582.09</ele>
  <time>2026-08-28T19:09:43Z</time>
  <course>312.9</course>
  <speed>0.0</speed>
  <fix>3d</fix>
</trkpt>
<trkpt lat="-35.362881" lon="149.165222">
  <ele>582.09</ele>
  <time>2026-08-28T19:09:43Z</time>
  <course>83.34</course>
  <speed>0.0</speed>
  <fix>3d</fix>
</trkpt>
<trkpt lat="-35.362881" lon="149.165222">
  <ele>582.09</ele>
  <time>2026-08-28T19:09:43Z</time>
  <course>209.59</course>
  <speed>0.0</speed>
  <fix>3d</fix>
</trkpt>
<trkpt lat="-35.362881" lon="149.165222">
  <ele>582.09</ele>
  <time>2026-08-28T19:09:43Z</time>
  <course>84.31</course>
  <speed>0.0</speed>
  <fix>3d</fix>
</trkpt>
<trkpt lat="-35.362881" lon="149.165222">
  <ele>582.09</ele>
  <time>2026-08-28T19:09:43Z</time>
  <course>26.59</course>
  <speed>0.0</speed>
  <fix>3d</fix>
</trkpt>
<trkpt lat="-35.362881" lon="149.165222">
  <ele>582.09</ele>
  <time>2026-08-28T19:09:43Z</time>
  <course>85.25</course>
  <speed>0.0</speed>
  <fix>3d</fix>
</trkpt>
<trkpt lat="-35.362881" lon="149.165222">
  <ele>582.09</ele>
  <time>2026-08-28T19:09:43Z</time>
  <course>35.65</course>
  <speed>0.0</speed>
  <fix>3d</fix>
</trkpt>
<trkpt lat="-35.362881" lon="149.165222">
  <ele>582.09</ele>
  <time>2026-08-28T19:09:43Z</time>
  <course>86.14</course>
  <speed>0.0</speed>
  <fix>3d</fix>
</trkpt>
<trkpt lat="-35.362881" lon="149.165222">
  <ele>582.09</ele>
  <time>2026-08-28T19:09:43Z</time>
  <course>251.27</course>
  <speed>0.0</speed>
  <fix>3d</fix>
</trkpt>
<trkpt lat="-35.362881" lon="149.165222">
  <ele>582.09</ele>
  <time>2026-08-28T19:09:43Z</time>
  <course>86.97</course>
  <speed>0.0</speed>
  <fix>3d</fix>
</trkpt>
<trkpt lat="-35.362881" lon="149.165222">
  <ele>582.09</ele>
  <time>2026-08-28T19:09:43Z</time>
  <course>276.92</course>
  <speed>0.0</speed>
  <fix>3d</fix>
</trkpt>
<trkpt lat="-35.362881" lon="149.165222">
  <ele>582.09</ele>
  <time>2026-08-28T19:09:43Z</time>
  <course>87.74</course>
  <speed>0.0</speed>
  <fix>3d</fix>
</trkpt>
<trkpt lat="-35.362881" lon="149.165222">
  <ele>582.09</ele>
  <time>2026-08-28T19:09:43Z</time>
  <course>33.64</course>
  <speed>0.0</speed>
  <fix>3d</fix>
</trkpt>
<trkpt lat="-35.362881" lon="149.165222">
  <ele>582.09</ele>
  <time>2026-08-28T19:09:43Z</time>
  <course>88.45</course>
  <speed>0.0</speed>
  <fix>3d</fix>
</trkpt>
<trkpt lat="-35.362881" lon="149.165222">
  <ele>582.09</ele>
  <time>2026-08-28T19:09:43Z</time>
  <course>266.48</course>
  <speed>0.0</speed>
  <fix>3d</fix>
</trkpt>
<trkpt lat="-35.362881" lon="149.165222">
  <ele>582.09</ele>
  <time>2026-08-28T19:09:43Z</time>
  <course>89.11</course>
  <speed>0.0</speed>
  <fix>3d</fix>
</trkpt>
<trkpt lat="-35.362881" lon="149.165222">
  <ele>582.09</ele>
  <time>2026-08-28T19:09:43Z</time>
  <course>240.3</course>
  <speed>0.0</speed>
  <fix>3d</fix>
</trkpt>
<trkpt lat="-35.362881" lon="149.165222">
  <ele>582.09</ele>
  <time>2026-08-28T19:09:43Z</time>
  <course>89.72</course>
  <speed>0.0</speed>
  <fix>3d</fix>
</trkpt>
<trkpt lat="-35.362881" lon="149.165222">
  <ele>582.09</ele>
  <time>2026-08-28T19:09:43Z</time>
  <course>213.36</course>
  <speed>0.0</speed>
  <fix>3d</fix>
</trkpt>
<trkpt lat="-35.362881" lon="149.165222">
  <ele>582.09</ele>
  <time>2026-08-28T19:09:43Z</time>
  <course>90.28</course>
  <speed>0.0</speed>
  <fix>3d</fix>
</trkpt>
<trkpt lat="-35.362881" lon="149.165222">
  <ele>582.09</ele>
  <time>2026-08-28T19:09:43Z</time>
  <course>51.38</course>
  <speed>0.0</speed>
  <fix>3d</fix>
</trkpt>
<trkpt lat="-35.362881" lon="149.165222">
  <ele>582.09</ele>
  <time>2026-08-28T19:09:43Z</time>
  <course>90.81</course>
  <speed>0.0</speed>
  <fix>3d</fix>
</trkpt>
<trkpt lat="-35.362881" lon="149.165222">
  <ele>582.09</ele>
  <time>2026-08-28T19:09:43Z</time>
  <course>332.49</course>
  <speed>0.0</speed>
  <fix>3d</fix>
</trkpt>
<trkpt lat="-35.362881" lon="149.165222">
  <ele>582.09</ele>
  <time>2026-08-28T19:09:43Z</time>
  <course>91.29</course>
  <speed>0.0</speed>
  <fix>3d</fix>
</trkpt>
<trkpt lat="-35.362881" lon="149.165222">
  <ele>582.09</ele>
  <time>2026-08-28T19:09:43Z</time>
  <course>265.95</course>
  <speed>0.0</speed>
  <fix>3d</fix>
</trkpt>
<trkpt lat="-35.362881" lon="149.165222">
  <ele>582.09</ele>
  <time>2026-08-28T19:09:43Z</time>
  <course>91.73</course>
  <speed>0.0</speed>
  <fix>3d</fix>
</trkpt>
<trkpt lat="-35.362881" lon="149.165222">
  <ele>582.09</ele>
  <time>2026-08-28T19:09:43Z</time>
  <course>287.32</course>
  <speed>0.0</speed>
  <fix>3d</fix>
</trkpt>
<trkpt lat="-35.362881" lon="149.165222">
  <ele>582.09</ele>
  <time>2026-08-28T19:09:43Z</time>
  <course>92.14</course>
  <speed>0.0</speed>
  <fix>3d</fix>
</trkpt>
<trkpt lat="-35.362881" lon="149.165222">
  <ele>582.09</ele>
  <time>2026-08-28T19:09:43Z</time>
  <course>66.25</course>
  <speed>0.0</speed>
  <fix>3d</fix>
</trkpt>
<trkpt lat="-35.362881" lon="149.165222">
  <ele>582.09</ele>
  <time>2026-08-28T19:09:43Z</time>
  <course>92.51</course>
  <speed>0.0</speed>
  <fix>3d</fix>
</trkpt>
<trkpt lat="-35.362881" lon="149.165222">
  <ele>582.09</ele>
  <time>2026-08-28T19:09:43Z</time>
  <course>68.87</course>
  <speed>0.0</speed>
  <fix>3d</fix>
</trkpt>
<trkpt lat="-35.362881" lon="149.165222">
  <ele>582.09</ele>
  <time>2026-08-28T19:09:43Z</time>
  <course>92.85</course>
  <speed>0.0</speed>
  <fix>3d</fix>
</trkpt>
<trkpt lat="-35.362881" lon="149.165222">
  <ele>582.09</ele>
  <time>2026-08-28T19:09:43Z</time>
  <course>55.03</course>
  <speed>0.0</speed>
  <fix>3d</fix>
</trkpt>
<trkpt lat="-35.362881" lon="149.165222">
  <ele>582.09</ele>
  <time>2026-08-28T19:09:43Z</time>
  <course>93.17</course>
  <speed>0.0</speed>
  <fix>3d</fix>
</trkpt>
<trkpt lat="-35.362881" lon="149.165222">
  <ele>582.09</ele>
  <time>2026-08-28T19:09:43Z</time>
  <course>5.23</course>
  <speed>0.0</speed>
  <fix>3d</fix>
</trkpt>
<trkpt lat="-35.362881" lon="149.165222">
  <ele>582.09</ele>
  <time>2026-08-28T19:09:43Z</time>
  <course>93.45</course>
  <speed>0.0</speed>
  <fix>3d</fix>
</trkpt>
<trkpt lat="-35.362881" lon="149.165222">
  <ele>582.09</ele>
  <time>2026-08-28T19:09:43Z</time>
  <course>240.86</course>
  <speed>0.0</speed>
  <fix>3d</fix>
</trkpt>
<trkpt lat="-35.362881" lon="149.165222">
  <ele>582.09</ele>
  <time>2026-08-28T19:09:43Z</time>
  <course>93.71</course>
  <speed>0.0</speed>
  <fix>3d</fix>
</trkpt>
<trkpt lat="-35.362881" lon="149.165222">
  <ele>582.09</ele>
  <time>2026-08-28T19:09:43Z</time>
  <course>48.2</course>
  <speed>0.0</speed>
  <fix>3d</fix>
</trkpt>
<trkpt lat="-35.362881" lon="149.165222">
  <ele>582.09</ele>
  <time>2026-08-28T19:09:43Z</time>
  <course>93.95</course>
  <speed>0.0</speed>
  <fix>3d</fix>
</trkpt>
<trkpt lat="-35.362881" lon="149.165222">
  <ele>582.09</ele>
  <time>2026-08-28T19:09:43Z</time>
  <course>18.62</course>
  <speed>0.0</speed>
  <fix>3d</fix>
</trkpt>
<trkpt lat="-35.362881" lon="149.165222">
  <ele>582.09</ele>
  <time>2026-08-28T19:09:43Z</time>
  <course>94.17</course>
  <speed>0.0</speed>
  <fix>3d</fix>
</trkpt>
<trkpt lat="-35.362881" lon="149.165222">
  <ele>582.09</ele>
  <time>2026-08-28T19:09:43Z</time>
  <course>348.52</course>
  <speed>0.0</speed>
  <fix>3d</fix>
</trkpt>
<trkpt lat="-35.362881" lon="149.165222">
  <ele>582.09</ele>
  <time>2026-08-28T19:09:43Z</time>
  <course>94.38</course>
  <speed>0.0</speed>
  <fix>3d</fix>
</trkpt>
<trkpt lat="-35.362881" lon="149.165222">
  <ele>582.09</ele>
  <time>2026-08-28T19:09:43Z</time>
  <course>351.72</course>
  <speed>0.0</speed>
  <fix>3d</fix>
</trkpt>
<trkpt lat="-35.362881" lon="149.165222">
  <ele>582.09</ele>
  <time>2026-08-28T19:09:43Z</time>
  <course>94.57</course>
  <speed>0.0</speed>
  <fix>3d</fix>
</trkpt>
<trkpt lat="-35.362881" lon="149.165222">
  <ele>582.09</ele>
  <time>2026-08-28T19:09:43Z</time>
  <course>357.54</course>
  <speed>0.0</speed>
  <fix>3d</fix>
</trkpt>
<trkpt lat="-35.362881" lon="149.165222">
  <ele>582.09</ele>
  <time>2026-08-28T19:09:43Z</time>
  <course>94.73</course>
  <speed>0.0</speed>
  <fix>3d</fix>
</trkpt>
<trkpt lat="-35.362881" lon="149.165222">
  <ele>582.09</ele>
  <time>2026-08-28T19:09:43Z</time>
  <course>356.39</course>
  <speed>0.0</speed>
  <fix>3d</fix>
</trkpt>
<trkpt lat="-35.362881" lon="149.165222">
  <ele>582.09</ele>
  <time>2026-08-28T19:09:43Z</time>
  <course>94.88</course>
  <speed>0.0</speed>
  <fix>3d</fix>
</trkpt>
<trkpt lat="-35.362881" lon="149.165222">
  <ele>582.09</ele>
  <time>2026-08-28T19:09:43Z</time>
  <course>355.79</course>
  <speed>0.0</speed>
  <fix>3d</fix>
</trkpt>
<trkpt lat="-35.362881" lon="149.165222">
  <ele>582.09</ele>
  <time>2026-08-28T19:09:43Z</time>
  <course>95.02</course>
  <speed>0.0</speed>
  <fix>3d</fix>
</trkpt>
<trkpt lat="-35.362881" lon="149.165222">
  <ele>582.09</ele>
  <time>2026-08-28T19:09:43Z</time>
  <course>356.02</course>
  <speed>0.0</speed>
  <fix>3d</fix>
</trkpt>
<trkpt lat="-35.362881" lon="149.165222">
  <ele>582.09</ele>
  <time>2026-08-28T19:09:43Z</time>
  <course>95.14</course>
  <speed>0.0</speed>
  <fix>3d</fix>
</trkpt>
<trkpt lat="-35.362881" lon="149.165222">
  <ele>582.09</ele>
  <time>2026-08-28T19:09:43Z</time>
  <course>356.07</course>
  <speed>0.0</speed>
  <fix>3d</fix>
</trkpt>
<trkpt lat="-35.362881" lon="149.165222">
  <ele>582.09</ele>
  <time>2026-08-28T19:09:43Z</time>
  <course>95.25</course>
  <speed>0.0</speed>
  <fix>3d</fix>
</trkpt>
<trkpt lat="-35.362881" lon="149.165222">
  <ele>582.09</ele>
  <time>2026-08-28T19:09:43Z</time>
  <course>356.03</course>
  <speed>0.0</speed>
  <fix>3d</fix>
</trkpt>
<trkpt lat="-35.362881" lon="149.165222">
  <ele>582.09</ele>
  <time>2026-08-28T19:09:43Z</time>
  <course>95.36</course>
  <speed>0.0</speed>
  <fix>3d</fix>
</trkpt>
<trkpt lat="-35.362881" lon="149.165222">
  <ele>582.09</ele>
  <time>2026-08-28T19:09:43Z</time>
  <course>356.03</course>
  <speed>0.0</speed>
  <fix>3d</fix>
</trkpt>
<trkpt lat="-35.362881" lon="149.165222">
  <ele>582.09</ele>
  <time>2026-08-28T19:09:43Z</time>
  <course>95.45</course>
  <speed>0.0</speed>
  <fix>3d</fix>
</trkpt>
<trkpt lat="-35.362881" lon="149.165222">
  <ele>582.09</ele>
  <time>2026-08-28T19:09:43Z</time>
  <course>356.03</course>
  <speed>0.0</speed>
  <fix>3d</fix>
</trkpt>
<trkpt lat="-35.362881" lon="149.165222">
  <ele>582.09</ele>
  <time>2026-08-28T19:09:43Z</time>
  <course>95.53</course>
  <speed>0.0</speed>
  <fix>3d</fix>
</trkpt>
<trkpt lat="-35.362881" lon="149.165222">
  <ele>582.09</ele>
  <time>2026-08-28T19:09:43Z</time>
  <course>356.03</course>
  <speed>0.0</speed>
  <fix>3d</fix>
</trkpt>
<trkpt lat="-35.362881" lon="149.165222">
  <ele>582.09</ele>
  <time>2026-08-28T19:09:43Z</time>
  <course>95.61</course>
  <speed>0.0</speed>
  <fix>3d</fix>
</trkpt>
<trkpt lat="-35.362881" lon="149.165222">
  <ele>582.09</ele>
  <time>2026-08-28T19:09:43Z</time>
  <course>356.03</course>
  <speed>0.0</speed>
  <fix>3d</fix>
</trkpt>
<trkpt lat="-35.362881" lon="149.165222">
  <ele>582.09</ele>
  <time>2026-08-28T19:09:43Z</time>
  <course>95.67</course>
  <speed>0.0</speed>
  <fix>3d</fix>
</trkpt>
<trkpt lat="-35.362881" lon="149.165222">
  <ele>582.09</ele>
  <time>2026-08-28T19:09:43Z</time>
  <course>356.03</course>
  <speed>0.0</speed>
  <fix>3d</fix>
</trkpt>
<trkpt lat="-35.362881" lon="149.165222">
  <ele>582.09</ele>
  <time>2026-08-28T19:09:43Z</time>
  <course>95.73</course>
  <speed>0.0</speed>
  <fix>3d</fix>
</trkpt>
<trkpt lat="-35.362881" lon="149.165222">
  <ele>582.09</ele>
  <time>2026-08-28T19:09:43Z</time>
  <course>356.03</course>
  <speed>0.0</speed>
  <fix>3d</fix>
</trkpt>
<trkpt lat="-35.362881" lon="149.165222">
  <ele>582.09</ele>
  <time>2026-08-28T19:09:43Z</time>
  <course>95.79</course>
  <speed>0.0</speed>
  <fix>3d</fix>
</trkpt>
<trkpt lat="-35.362881" lon="149.165222">
  <ele>582.09</ele>
  <time>2026-08-28T19:09:43Z</time>
  <course>356.03</course>
  <speed>0.0</speed>
  <fix>3d</fix>
</trkpt>
<trkpt lat="-35.362881" lon="149.165222">
  <ele>582.09</ele>
  <time>2026-08-28T19:09:43Z</time>
  <course>95.84</course>
  <speed>0.0</speed>
  <fix>3d</fix>
</trkpt>
<trkpt lat="-35.362881" lon="149.165222">
  <ele>582.09</ele>
  <time>2026-08-28T19:09:43Z</time>
  <course>356.03</course>
  <speed>0.0</speed>
  <fix>3d</fix>
</trkpt>
<trkpt lat="-35.362881" lon="149.165222">
  <ele>582.09</ele>
  <time>2026-08-28T19:09:43Z</time>
  <course>95.88</course>
  <speed>0.0</speed>
  <fix>3d</fix>
</trkpt>
<trkpt lat="-35.362881" lon="149.165222">
  <ele>582.09</ele>
  <time>2026-08-28T19:09:43Z</time>
  <course>356.03</course>
  <speed>0.0</speed>
  <fix>3d</fix>
</trkpt>
<trkpt lat="-35.362881" lon="149.165222">
  <ele>582.09</ele>
  <time>2026-08-28T19:09:43Z</time>
  <course>95.92</course>
  <speed>0.0</speed>
  <fix>3d</fix>
</trkpt>
<trkpt lat="-35.362881" lon="149.165222">
  <ele>582.09</ele>
  <time>2026-08-28T19:09:43Z</time>
  <course>356.03</course>
  <speed>0.0</speed>
  <fix>3d</fix>
</trkpt>
<trkpt lat="-35.362881" lon="149.165222">
  <ele>582.09</ele>
  <time>2026-08-28T19:09:43Z</time>
  <course>95.95</course>
  <speed>0.0</speed>
  <fix>3d</fix>
</trkpt>
<trkpt lat="-35.362881" lon="149.165222">
  <ele>582.09</ele>
  <time>2026-08-28T19:09:43Z</time>
  <course>356.03</course>
  <speed>0.0</speed>
  <fix>3d</fix>
</trkpt>
<trkpt lat="-35.362881" lon="149.165222">
  <ele>582.09</ele>
  <time>2026-08-28T19:09:43Z</time>
  <course>95.98</course>
  <speed>0.0</speed>
  <fix>3d</fix>
</trkpt>
<trkpt lat="-35.362881" lon="149.165222">
  <ele>582.09</ele>
  <time>2026-08-28T19:09:43Z</time>
  <course>356.03</course>
  <speed>0.0</speed>
  <fix>3d</fix>
</trkpt>
<trkpt lat="-35.362881" lon="149.165222">
  <ele>582.09</ele>
  <time>2026-08-28T19:09:43Z</time>
  <course>96.0</course>
  <speed>0.0</speed>
  <fix>3d</fix>
</trkpt>
<trkpt lat="-35.362881" lon="149.165222">
  <ele>582.09</ele>
  <time>2026-08-28T19:09:43Z</time>
  <course>356.03</course>
  <speed>0.0</speed>
  <fix>3d</fix>
</trkpt>
<trkpt lat="-35.362881" lon="149.165222">
  <ele>582.09</ele>
  <time>2026-08-28T19:09:43Z</time>
  <course>96.03</course>
  <speed>0.0</speed>
  <fix>3d</fix>
</trkpt>
<trkpt lat="-35.362881" lon="149.165222">
  <ele>582.09</ele>
  <time>2026-08-28T19:09:43Z</time>
  <course>356.03</course>
  <speed>0.0</speed>
  <fix>3d</fix>
</trkpt>
<trkpt lat="-35.362881" lon="149.165222">
  <ele>582.09</ele>
  <time>2026-08-28T19:09:43Z</time>
  <course>96.04</course>
  <speed>0.0</speed>
  <fix>3d</fix>
</trkpt>
<trkpt lat="-35.362881" lon="149.165222">
  <ele>582.09</ele>
  <time>2026-08-28T19:09:43Z</time>
  <course>356.03</course>
  <speed>0.0</speed>
  <fix>3d</fix>
</trkpt>
<trkpt lat="-35.362881" lon="149.165222">
  <ele>582.09</ele>
  <time>2026-08-28T19:09:43Z</time>
  <course>96.06</course>
  <speed>0.0</speed>
  <fix>3d</fix>
</trkpt>
<trkpt lat="-35.362881" lon="149.165222">
  <ele>582.09</ele>
  <time>2026-08-28T19:09:43Z</time>
  <course>356.03</course>
  <speed>0.0</speed>
  <fix>3d</fix>
</trkpt>
<trkpt lat="-35.362881" lon="149.165222">
  <ele>582.09</ele>
  <time>2026-08-28T19:09:43Z</time>
  <course>96.07</course>
  <speed>0.0</speed>
  <fix>3d</fix>
</trkpt>
<trkpt lat="-35.362881" lon="149.165222">
  <ele>582.09</ele>
  <time>2026-08-28T19:09:43Z</time>
  <course>356.03</course>
  <speed>0.0</speed>
  <fix>3d</fix>
</trkpt>
<trkpt lat="-35.362881" lon="149.165222">
  <ele>582.09</ele>
  <time>2026-08-28T19:09:43Z</time>
  <course>96.09</course>
  <speed>0.0</speed>
  <fix>3d</fix>
</trkpt>
<trkpt lat="-35.362881" lon="149.165222">
  <ele>582.09</ele>
  <time>2026-08-28T19:09:43Z</time>
  <course>356.03</course>
  <speed>0.0</speed>
  <fix>3d</fix>
</trkpt>
<trkpt lat="-35.362881" lon="149.165222">
  <ele>582.09</ele>
  <time>2026-08-28T19:09:43Z</time>
  <course>96.1</course>
  <speed>0.0</speed>
  <fix>3d</fix>
</trkpt>
<trkpt lat="-35.362881" lon="149.165222">
  <ele>582.09</ele>
  <time>2026-08-28T19:09:43Z</time>
  <course>356.03</course>
  <speed>0.0</speed>
  <fix>3d</fix>
</trkpt>
<trkpt lat="-35.362881" lon="149.165222">
  <ele>582.09</ele>
  <time>2026-08-28T19:09:43Z</time>
  <course>96.11</course>
  <speed>0.0</speed>
  <fix>3d</fix>
</trkpt>
<trkpt lat="-35.362881" lon="149.165222">
  <ele>582.09</ele>
  <time>2026-08-28T19:09:43Z</time>
  <course>356.03</course>
  <speed>0.0</speed>
  <fix>3d</fix>
</trkpt>
<trkpt lat="-35.362881" lon="149.165222">
  <ele>582.09</ele>
  <time>2026-08-28T19:09:43Z</time>
  <course>96.11</course>
  <speed>0.0</speed>
  <fix>3d</fix>
</trkpt>
<trkpt lat="-35.362881" lon="149.165222">
  <ele>582.09</ele>
  <time>2026-08-28T19:09:43Z</time>
  <course>356.03</course>
  <speed>0.0</speed>
  <fix>3d</fix>
</trkpt>
<trkpt lat="-35.362881" lon="149.165222">
  <ele>582.09</ele>
  <time>2026-08-28T19:09:43Z</time>
  <course>96.11</course>
  <speed>0.0</speed>
  <fix>3d</fix>
</trkpt>
<trkpt lat="-35.362881" lon="149.165222">
  <ele>582.09</ele>
  <time>2026-08-28T19:09:43Z</time>
  <course>356.03</course>
  <speed>0.0</speed>
  <fix>3d</fix>
</trkpt>
<trkpt lat="-35.362881" lon="149.165222">
  <ele>582.09</ele>
  <time>2026-08-28T19:09:43Z</time>
  <course>96.11</course>
  <speed>0.0</speed>
  <fix>3d</fix>
</trkpt>
<trkpt lat="-35.362881" lon="149.165222">
  <ele>582.09</ele>
  <time>2026-08-28T19:09:43Z</time>
  <course>356.03</course>
  <speed>0.0</speed>
  <fix>3d</fix>
</trkpt>
<trkpt lat="-35.362881" lon="149.165222">
  <ele>582.09</ele>
  <time>2026-08-28T19:09:43Z</time>
  <course>96.11</course>
  <speed>0.0</speed>
  <fix>3d</fix>
</trkpt>
<trkpt lat="-35.362881" lon="149.165222">
  <ele>582.09</ele>
  <time>2026-08-28T19:09:43Z</time>
  <course>356.03</course>
  <speed>0.0</speed>
  <fix>3d</fix>
</trkpt>
<trkpt lat="-35.362881" lon="149.165222">
  <ele>582.09</ele>
  <time>2026-08-28T19:09:43Z</time>
  <course>96.11</course>
  <speed>0.0</speed>
  <fix>3d</fix>
</trkpt>
<trkpt lat="-35.362881" lon="149.165222">
  <ele>582.09</ele>
  <time>2026-08-28T19:09:43Z</time>
  <course>356.03</course>
  <speed>0.0</speed>
  <fix>3d</fix>
</trkpt>
<trkpt lat="-35.362881" lon="149.165222">
  <ele>582.09</ele>
  <time>2026-08-28T19:09:43Z</time>
  <course>96.1</course>
  <speed>0.0</speed>
  <fix>3d</fix>
</trkpt>
<trkpt lat="-35.362881" lon="149.165222">
  <ele>582.09</ele>
  <time>2026-08-28T19:09:43Z</time>
  <course>356.03</course>
  <speed>0.0</speed>
  <fix>3d</fix>
</trkpt>
<trkpt lat="-35.362881" lon="149.165222">
  <ele>582.09</ele>
  <time>2026-08-28T19:09:43Z</time>
  <course>96.1</course>
  <speed>0.0</speed>
  <fix>3d</fix>
</trkpt>
<trkpt lat="-35.362881" lon="149.165222">
  <ele>582.09</ele>
  <time>2026-08-28T19:09:43Z</time>
  <course>356.03</course>
  <speed>0.0</speed>
  <fix>3d</fix>
</trkpt>
<trkpt lat="-35.362881" lon="149.165222">
  <ele>582.09</ele>
  <time>2026-08-28T19:09:43Z</time>
  <course>96.09</course>
  <speed>0.0</speed>
  <fix>3d</fix>
</trkpt>
<trkpt lat="-35.362881" lon="149.165222">
  <ele>582.09</ele>
  <time>2026-08-28T19:09:43Z</time>
  <course>356.03</course>
  <speed>0.0</speed>
  <fix>3d</fix>
</trkpt>
<trkpt lat="-35.362881" lon="149.165222">
  <ele>582.09</ele>
  <time>2026-08-28T19:09:43Z</time>
  <course>96.08</course>
  <speed>0.0</speed>
  <fix>3d</fix>
</trkpt>
<trkpt lat="-35.362881" lon="149.165222">
  <ele>582.09</ele>
  <time>2026-08-28T19:09:43Z</time>
  <course>356.03</course>
  <speed>0.0</speed>
  <fix>3d</fix>
</trkpt>
<trkpt lat="-35.362881" lon="149.165222">
  <ele>582.09</ele>
  <time>2026-08-28T19:09:43Z</time>
  <course>96.08</course>
  <speed>0.01</speed>
  <fix>3d</fix>
</trkpt>
<trkpt lat="-35.362881" lon="149.165222">
  <ele>582.09</ele>
  <time>2026-08-28T19:09:43Z</time>
  <course>356.03</course>
  <speed>0.0</speed>
  <fix>3d</fix>
</trkpt>
<trkpt lat="-35.362881" lon="149.165222">
  <ele>582.09</ele>
  <time>2026-08-28T19:09:43Z</time>
  <course>96.07</course>
  <speed>0.01</speed>
  <fix>3d</fix>
</trkpt>
<trkpt lat="-35.362881" lon="149.165222">
  <ele>582.09</ele>
  <time>2026-08-28T19:09:43Z</time>
  <course>356.03</course>
  <speed>0.0</speed>
  <fix>3d</fix>
</trkpt>
<trkpt lat="-35.362881" lon="149.165222">
  <ele>582.09</ele>
  <time>2026-08-28T19:09:43Z</time>
  <course>96.06</course>
  <speed>0.01414213562373095</speed>
  <fix>3d</fix>
</trkpt>
<trkpt lat="-35.362881" lon="149.165222">
  <ele>582.09</ele>
  <time>2026-08-28T19:09:43Z</time>
  <course>356.03</course>
  <speed>0.0</speed>
  <fix>3d</fix>
</trkpt>
<trkpt lat="-35.362881" lon="149.165222">
  <ele>582.09</ele>
  <time>2026-08-28T19:09:43Z</time>
  <course>96.04</course>
  <speed>0.01414213562373095</speed>
  <fix>3d</fix>
</trkpt>
<trkpt lat="-35.362881" lon="149.165222">
  <ele>582.09</ele>
  <time>2026-08-28T19:09:43Z</time>
  <course>356.03</course>
  <speed>0.0</speed>
  <fix>3d</fix>
</trkpt>
<trkpt lat="-35.362881" lon="149.165222">
  <ele>582.09</ele>
  <time>2026-08-28T19:09:43Z</time>
  <course>96.03</course>
  <speed>0.01414213562373095</speed>
  <fix>3d</fix>
</trkpt>
<trkpt lat="-35.362881" lon="149.165222">
  <ele>582.09</ele>
  <time>2026-08-28T19:09:43Z</time>
  <course>356.03</course>
  <speed>0.0</speed>
  <fix>3d</fix>
</trkpt>
<trkpt lat="-35.362881" lon="149.165222">
  <ele>582.09</ele>
  <time>2026-08-28T19:09:43Z</time>
  <course>96.02</course>
  <speed>0.01414213562373095</speed>
  <fix>3d</fix>
</trkpt>
<trkpt lat="-35.362881" lon="149.165222">
  <ele>582.09</ele>
  <time>2026-08-28T19:09:43Z</time>
  <course>356.03</course>
  <speed>0.0</speed>
  <fix>3d</fix>
</trkpt>
<trkpt lat="-35.362881" lon="149.165222">
  <ele>582.09</ele>
  <time>2026-08-28T19:09:43Z</time>
  <course>96.01</course>
  <speed>0.01414213562373095</speed>
  <fix>3d</fix>
</trkpt>
<trkpt lat="-35.362881" lon="149.165222">
  <ele>582.09</ele>
  <time>2026-08-28T19:09:43Z</time>
  <course>356.03</course>
  <speed>0.0</speed>
  <fix>3d</fix>
</trkpt>
<trkpt lat="-35.362881" lon="149.165222">
  <ele>582.09</ele>
  <time>2026-08-28T19:09:43Z</time>
  <course>95.99</course>
  <speed>0.01414213562373095</speed>
  <fix>3d</fix>
</trkpt>
<trkpt lat="-35.362881" lon="149.165222">
  <ele>582.09</ele>
  <time>2026-08-28T19:09:43Z</time>
  <course>356.03</course>
  <speed>0.0</speed>
  <fix>3d</fix>
</trkpt>
<trkpt lat="-35.362881" lon="149.165222">
  <ele>582.09</ele>
  <time>2026-08-28T19:09:43Z</time>
  <course>95.98</course>
  <speed>0.01414213562373095</speed>
  <fix>3d</fix>
</trkpt>
<trkpt lat="-35.362881" lon="149.165222">
  <ele>582.09</ele>
  <time>2026-08-28T19:09:43Z</time>
  <course>356.03</course>
  <speed>0.0</speed>
  <fix>3d</fix>
</trkpt>
<trkpt lat="-35.362881" lon="149.165222">
  <ele>582.09</ele>
  <time>2026-08-28T19:09:43Z</time>
  <course>95.97</course>
  <speed>0.01414213562373095</speed>
  <fix>3d</fix>
</trkpt>
<trkpt lat="-35.362881" lon="149.165222">
  <ele>582.09</ele>
  <time>2026-08-28T19:09:43Z</time>
  <course>356.03</course>
  <speed>0.0</speed>
  <fix>3d</fix>
</trkpt>
<trkpt lat="-35.362881" lon="149.165222">
  <ele>582.09</ele>
  <time>2026-08-28T19:09:43Z</time>
  <course>95.95</course>
  <speed>0.01414213562373095</speed>
  <fix>3d</fix>
</trkpt>
<trkpt lat="-35.362881" lon="149.165222">
  <ele>582.09</ele>
  <time>2026-08-28T19:09:43Z</time>
  <course>356.03</course>
  <speed>0.0</speed>
  <fix>3d</fix>
</trkpt>
<trkpt lat="-35.362881" lon="149.165222">
  <ele>582.09</ele>
  <time>2026-08-28T19:09:43Z</time>
  <course>95.94</course>
  <speed>0.01414213562373095</speed>
  <fix>3d</fix>
</trkpt>
<trkpt lat="-35.362881" lon="149.165222">
  <ele>582.09</ele>
  <time>2026-08-28T19:09:43Z</time>
  <course>356.03</course>
  <speed>0.0</speed>
  <fix>3d</fix>
</trkpt>
<trkpt lat="-35.362881" lon="149.165222">
  <ele>582.09</ele>
  <time>2026-08-28T19:09:43Z</time>
  <course>95.92</course>
  <speed>0.01414213562373095</speed>
  <fix>3d</fix>
</trkpt>
<trkpt lat="-35.362881" lon="149.165222">
  <ele>582.09</ele>
  <time>2026-08-28T19:09:43Z</time>
  <course>356.03</course>
  <speed>0.0</speed>
  <fix>3d</fix>
</trkpt>
<trkpt lat="-35.362881" lon="149.165222">
  <ele>582.09</ele>
  <time>2026-08-28T19:09:43Z</time>
  <course>95.91</course>
  <speed>0.01414213562373095</speed>
  <fix>3d</fix>
</trkpt>
<trkpt lat="-35.362881" lon="149.165222">
  <ele>582.09</ele>
  <time>2026-08-28T19:09:43Z</time>
  <course>356.03</course>
  <speed>0.0</speed>
  <fix>3d</fix>
</trkpt>
<trkpt lat="-35.362881" lon="149.165222">
  <ele>582.09</ele>
  <time>2026-08-28T19:09:43Z</time>
  <course>95.89</course>
  <speed>0.01414213562373095</speed>
  <fix>3d</fix>
</trkpt>
<trkpt lat="-35.362881" lon="149.165222">
  <ele>582.09</ele>
  <time>2026-08-28T19:09:43Z</time>
  <course>356.03</course>
  <speed>0.0</speed>
  <fix>3d</fix>
</trkpt>
<trkpt lat="-35.362881" lon="149.165222">
  <ele>582.09</ele>
  <time>2026-08-28T19:09:43Z</time>
  <course>95.88</course>
  <speed>0.01414213562373095</speed>
  <fix>3d</fix>
</trkpt>
<trkpt lat="-35.362881" lon="149.165222">
  <ele>582.09</ele>
  <time>2026-08-28T19:09:43Z</time>
  <course>356.03</course>
  <speed>0.0</speed>
  <fix>3d</fix>
</trkpt>
<trkpt lat="-35.362881" lon="149.165222">
  <ele>582.09</ele>
  <time>2026-08-28T19:09:43Z</time>
  <course>95.86</course>
  <speed>0.01414213562373095</speed>
  <fix>3d</fix>
</trkpt>
<trkpt lat="-35.362881" lon="149.165222">
  <ele>582.09</ele>
  <time>2026-08-28T19:09:43Z</time>
  <course>356.03</course>
  <speed>0.0</speed>
  <fix>3d</fix>
</trkpt>
<trkpt lat="-35.362881" lon="149.165222">
  <ele>582.09</ele>
  <time>2026-08-28T19:09:43Z</time>
  <course>95.86</course>
  <speed>0.01414213562373095</speed>
  <fix>3d</fix>
</trkpt>
<trkpt lat="-35.362881" lon="149.165222">
  <ele>582.09</ele>
  <time>2026-08-28T19:09:43Z</time>
  <course>356.03</course>
  <speed>0.0</speed>
  <fix>3d</fix>
</trkpt>
<trkpt lat="-35.362881" lon="149.165222">
  <ele>582.09</ele>
  <time>2026-08-28T19:09:43Z</time>
  <course>95.84</course>
  <speed>0.01414213562373095</speed>
  <fix>3d</fix>
</trkpt>
<trkpt lat="-35.362881" lon="149.165222">
  <ele>582.09</ele>
  <time>2026-08-28T19:09:43Z</time>
  <course>356.03</course>
  <speed>0.0</speed>
  <fix>3d</fix>
</trkpt>
<trkpt lat="-35.362881" lon="149.165222">
  <ele>582.09</ele>
  <time>2026-08-28T19:09:43Z</time>
  <course>95.82</course>
  <speed>0.01414213562373095</speed>
  <fix>3d</fix>
</trkpt>
<trkpt lat="-35.362881" lon="149.165222">
  <ele>582.09</ele>
  <time>2026-08-28T19:09:43Z</time>
  <course>356.03</course>
  <speed>0.0</speed>
  <fix>3d</fix>
</trkpt>
<trkpt lat="-35.362881" lon="149.165222">
  <ele>582.09</ele>
  <time>2026-08-28T19:09:43Z</time>
  <course>95.81</course>
  <speed>0.01414213562373095</speed>
  <fix>3d</fix>
</trkpt>
<trkpt lat="-35.362881" lon="149.165222">
  <ele>582.09</ele>
  <time>2026-08-28T19:09:43Z</time>
  <course>356.03</course>
  <speed>0.0</speed>
  <fix>3d</fix>
</trkpt>
<trkpt lat="-35.362881" lon="149.165222">
  <ele>582.09</ele>
  <time>2026-08-28T19:09:43Z</time>
  <course>95.79</course>
  <speed>0.01414213562373095</speed>
  <fix>3d</fix>
</trkpt>
<trkpt lat="-35.362881" lon="149.165222">
  <ele>582.09</ele>
  <time>2026-08-28T19:09:43Z</time>
  <course>356.03</course>
  <speed>0.0</speed>
  <fix>3d</fix>
</trkpt>
<trkpt lat="-35.362881" lon="149.165222">
  <ele>582.09</ele>
  <time>2026-08-28T19:09:43Z</time>
  <course>95.77</course>
  <speed>0.01414213562373095</speed>
  <fix>3d</fix>
</trkpt>
<trkpt lat="-35.362881" lon="149.165222">
  <ele>582.09</ele>
  <time>2026-08-28T19:09:43Z</time>
  <course>356.03</course>
  <speed>0.0</speed>
  <fix>3d</fix>
</trkpt>
<trkpt lat="-35.362881" lon="149.165222">
  <ele>582.09</ele>
  <time>2026-08-28T19:09:43Z</time>
  <course>95.76</course>
  <speed>0.01414213562373095</speed>
  <fix>3d</fix>
</trkpt>
<trkpt lat="-35.362881" lon="149.165222">
  <ele>582.09</ele>
  <time>2026-08-28T19:09:43Z</time>
  <course>356.03</course>
  <speed>0.0</speed>
  <fix>3d</fix>
</trkpt>
<trkpt lat="-35.362881" lon="149.165222">
  <ele>582.09</ele>
  <time>2026-08-28T19:09:43Z</time>
  <course>95.74</course>
  <speed>0.01414213562373095</speed>
  <fix>3d</fix>
</trkpt>
<trkpt lat="-35.362881" lon="149.165222">
  <ele>582.09</ele>
  <time>2026-08-28T19:09:43Z</time>
  <course>356.03</course>
  <speed>0.0</speed>
  <fix>3d</fix>
</trkpt>
<trkpt lat="-35.362881" lon="149.165222">
  <ele>582.09</ele>
  <time>2026-08-28T19:09:43Z</time>
  <course>95.73</course>
  <speed>0.01414213562373095</speed>
  <fix>3d</fix>
</trkpt>
<trkpt lat="-35.362881" lon="149.165222">
  <ele>582.09</ele>
  <time>2026-08-28T19:09:43Z</time>
  <course>356.03</course>
  <speed>0.0</speed>
  <fix>3d</fix>
</trkpt>
<trkpt lat="-35.362881" lon="149.165222">
  <ele>582.09</ele>
  <time>2026-08-28T19:09:43Z</time>
  <course>95.71</course>
  <speed>0.01414213562373095</speed>
  <fix>3d</fix>
</trkpt>
<trkpt lat="-35.362881" lon="149.165222">
  <ele>582.09</ele>
  <time>2026-08-28T19:09:43Z</time>
  <course>356.03</course>
  <speed>0.0</speed>
  <fix>3d</fix>
</trkpt>
<trkpt lat="-35.362881" lon="149.165222">
  <ele>582.09</ele>
  <time>2026-08-28T19:09:43Z</time>
  <course>95.69</course>
  <speed>0.01414213562373095</speed>
  <fix>3d</fix>
</trkpt>
<trkpt lat="-35.362881" lon="149.165222">
  <ele>582.09</ele>
  <time>2026-08-28T19:09:43Z</time>
  <course>356.03</course>
  <speed>0.0</speed>
  <fix>3d</fix>
</trkpt>
<trkpt lat="-35.362881" lon="149.165222">
  <ele>582.09</ele>
  <time>2026-08-28T19:09:43Z</time>
  <course>95.67</course>
  <speed>0.01414213562373095</speed>
  <fix>3d</fix>
</trkpt>
<trkpt lat="-35.362881" lon="149.165222">
  <ele>582.09</ele>
  <time>2026-08-28T19:09:43Z</time>
  <course>356.03</course>
  <speed>0.0</speed>
  <fix>3d</fix>
</trkpt>
<trkpt lat="-35.362881" lon="149.165222">
  <ele>582.09</ele>
  <time>2026-08-28T19:09:43Z</time>
  <course>95.66</course>
  <speed>0.01414213562373095</speed>
  <fix>3d</fix>
</trkpt>
<trkpt lat="-35.362881" lon="149.165222">
  <ele>582.09</ele>
  <time>2026-08-28T19:09:43Z</time>
  <course>356.03</course>
  <speed>0.0</speed>
  <fix>3d</fix>
</trkpt>
<trkpt lat="-35.362881" lon="149.165222">
  <ele>582.09</ele>
  <time>2026-08-28T19:09:43Z</time>
  <course>95.64</course>
  <speed>0.01414213562373095</speed>
  <fix>3d</fix>
</trkpt>
<trkpt lat="-35.362881" lon="149.165222">
  <ele>582.09</ele>
  <time>2026-08-28T19:09:43Z</time>
  <course>356.03</course>
  <speed>0.0</speed>
  <fix>3d</fix>
</trkpt>
<trkpt lat="-35.362881" lon="149.165222">
  <ele>582.09</ele>
  <time>2026-08-28T19:09:43Z</time>
  <course>95.63</course>
  <speed>0.022360679774997897</speed>
  <fix>3d</fix>
</trkpt>
<trkpt lat="-35.362881" lon="149.165222">
  <ele>582.09</ele>
  <time>2026-08-28T19:09:43Z</time>
  <course>356.03</course>
  <speed>0.0</speed>
  <fix>3d</fix>
</trkpt>
<trkpt lat="-35.362881" lon="149.165222">
  <ele>582.09</ele>
  <time>2026-08-28T19:09:43Z</time>
  <course>95.61</course>
  <speed>0.022360679774997897</speed>
  <fix>3d</fix>
</trkpt>
<trkpt lat="-35.362881" lon="149.165222">
  <ele>582.09</ele>
  <time>2026-08-28T19:09:43Z</time>
  <course>356.03</course>
  <speed>0.0</speed>
  <fix>3d</fix>
</trkpt>
<trkpt lat="-35.362881" lon="149.165222">
  <ele>582.09</ele>
  <time>2026-08-28T19:09:43Z</time>
  <course>95.59</course>
  <speed>0.0282842712474619</speed>
  <fix>3d</fix>
</trkpt>
<trkpt lat="-35.362881" lon="149.165222">
  <ele>582.09</ele>
  <time>2026-08-28T19:09:43Z</time>
  <course>356.03</course>
  <speed>0.0</speed>
  <fix>3d</fix>
</trkpt>
<trkpt lat="-35.362881" lon="149.165222">
  <ele>582.09</ele>
  <time>2026-08-28T19:09:43Z</time>
  <course>95.58</course>
  <speed>0.0282842712474619</speed>
  <fix>3d</fix>
</trkpt>
<trkpt lat="-35.362881" lon="149.165222">
  <ele>582.09</ele>
  <time>2026-08-28T19:09:43Z</time>
  <course>356.03</course>
  <speed>0.0</speed>
  <fix>3d</fix>
</trkpt>
<trkpt lat="-35.362881" lon="149.165222">
  <ele>582.09</ele>
  <time>2026-08-28T19:09:43Z</time>
  <course>95.56</course>
  <speed>0.0282842712474619</speed>
  <fix>3d</fix>
</trkpt>
<trkpt lat="-35.362881" lon="149.165222">
  <ele>582.09</ele>
  <time>2026-08-28T19:09:43Z</time>
  <course>356.03</course>
  <speed>0.0</speed>
  <fix>3d</fix>
</trkpt>
<trkpt lat="-35.362881" lon="149.165222">
  <ele>582.09</ele>
  <time>2026-08-28T19:09:43Z</time>
  <course>95.55</course>
  <speed>0.0282842712474619</speed>
  <fix>3d</fix>
</trkpt>
<trkpt lat="-35.362881" lon="149.165222">
  <ele>582.09</ele>
  <time>2026-08-28T19:09:43Z</time>
  <course>356.03</course>
  <speed>0.0</speed>
  <fix>3d</fix>
</trkpt>
<trkpt lat="-35.362881" lon="149.165222">
  <ele>582.09</ele>
  <time>2026-08-28T19:09:43Z</time>
  <course>95.53</course>
  <speed>0.0282842712474619</speed>
  <fix>3d</fix>
</trkpt>
<trkpt lat="-35.362881" lon="149.165222">
  <ele>582.09</ele>
  <time>2026-08-28T19:09:43Z</time>
  <course>356.03</course>
  <speed>0.0</speed>
  <fix>3d</fix>
</trkpt>
<trkpt lat="-35.362881" lon="149.165222">
  <ele>582.09</ele>
  <time>2026-08-28T19:09:43Z</time>
  <course>95.51</course>
  <speed>0.0282842712474619</speed>
  <fix>3d</fix>
</trkpt>
<trkpt lat="-35.362881" lon="149.165222">
  <ele>582.09</ele>
  <time>2026-08-28T19:09:43Z</time>
  <course>356.03</course>
  <speed>0.0</speed>
  <fix>3d</fix>
</trkpt>
<trkpt lat="-35.362881" lon="149.165222">
  <ele>582.09</ele>
  <time>2026-08-28T19:09:43Z</time>
  <course>95.5</course>
  <speed>0.0282842712474619</speed>
  <fix>3d</fix>
</trkpt>
<trkpt lat="-35.362881" lon="149.165222">
  <ele>582.09</ele>
  <time>2026-08-28T19:09:43Z</time>
  <course>356.03</course>
  <speed>0.0</speed>
  <fix>3d</fix>
</trkpt>
<trkpt lat="-35.362881" lon="149.165222">
  <ele>582.09</ele>
  <time>2026-08-28T19:09:43Z</time>
  <course>95.48</course>
  <speed>0.0282842712474619</speed>
  <fix>3d</fix>
</trkpt>
<trkpt lat="-35.362881" lon="149.165222">
  <ele>582.09</ele>
  <time>2026-08-28T19:09:43Z</time>
  <course>356.03</course>
  <speed>0.0</speed>
  <fix>3d</fix>
</trkpt>
<trkpt lat="-35.362881" lon="149.165222">
  <ele>582.09</ele>
  <time>2026-08-28T19:09:43Z</time>
  <course>95.47</course>
  <speed>0.0282842712474619</speed>
  <fix>3d</fix>
</trkpt>
<trkpt lat="-35.362881" lon="149.165222">
  <ele>582.09</ele>
  <time>2026-08-28T19:09:43Z</time>
  <course>356.03</course>
  <speed>0.0</speed>
  <fix>3d</fix>
</trkpt>
<trkpt lat="-35.362881" lon="149.165222">
  <ele>582.09</ele>
  <time>2026-08-28T19:09:43Z</time>
  <course>95.45</course>
  <speed>0.0282842712474619</speed>
  <fix>3d</fix>
</trkpt>
<trkpt lat="-35.362881" lon="149.165222">
  <ele>582.09</ele>
  <time>2026-08-28T19:09:43Z</time>
  <course>356.03</course>
  <speed>0.0</speed>
  <fix>3d</fix>
</trkpt>
<trkpt lat="-35.362881" lon="149.165222">
  <ele>582.09</ele>
  <time>2026-08-28T19:09:43Z</time>
  <course>95.44</course>
  <speed>0.0282842712474619</speed>
  <fix>3d</fix>
</trkpt>
<trkpt lat="-35.362881" lon="149.165222">
  <ele>582.09</ele>
  <time>2026-08-28T19:09:43Z</time>
  <course>356.03</course>
  <speed>0.0</speed>
  <fix>3d</fix>
</trkpt>
<trkpt lat="-35.362881" lon="149.165222">
  <ele>582.09</ele>
  <time>2026-08-28T19:09:43Z</time>
  <course>95.42</course>
  <speed>0.0282842712474619</speed>
  <fix>3d</fix>
</trkpt>
<trkpt lat="-35.362881" lon="149.165222">
  <ele>582.09</ele>
  <time>2026-08-28T19:09:43Z</time>
  <course>356.03</course>
  <speed>0.0</speed>
  <fix>3d</fix>
</trkpt>
<trkpt lat="-35.362881" lon="149.165222">
  <ele>582.09</ele>
  <time>2026-08-28T19:09:43Z</time>
  <course>95.41</course>
  <speed>0.0282842712474619</speed>
  <fix>3d</fix>
</trkpt>
<trkpt lat="-35.362881" lon="149.165222">
  <ele>582.09</ele>
  <time>2026-08-28T19:09:43Z</time>
  <course>356.03</course>
  <speed>0.0</speed>
  <fix>3d</fix>
</trkpt>
<trkpt lat="-35.362881" lon="149.165222">
  <ele>582.09</ele>
  <time>2026-08-28T19:09:43Z</time>
  <course>95.39</course>
  <speed>0.0282842712474619</speed>
  <fix>3d</fix>
</trkpt>
<trkpt lat="-35.362881" lon="149.165222">
  <ele>582.09</ele>
  <time>2026-08-28T19:09:43Z</time>
  <course>356.03</course>
  <speed>0.0</speed>
  <fix>3d</fix>
</trkpt>
<trkpt lat="-35.362881" lon="149.165222">
  <ele>582.09</ele>
  <time>2026-08-28T19:09:43Z</time>
  <course>95.38</course>
  <speed>0.0282842712474619</speed>
  <fix>3d</fix>
</trkpt>
<trkpt lat="-35.362881" lon="149.165222">
  <ele>582.09</ele>
  <time>2026-08-28T19:09:43Z</time>
  <course>356.03</course>
  <speed>0.0</speed>
  <fix>3d</fix>
</trkpt>
<trkpt lat="-35.362881" lon="149.165222">
  <ele>582.09</ele>
  <time>2026-08-28T19:09:43Z</time>
  <course>95.37</course>
  <speed>0.0282842712474619</speed>
  <fix>3d</fix>
</trkpt>
<trkpt lat="-35.362881" lon="149.165222">
  <ele>582.09</ele>
  <time>2026-08-28T19:09:43Z</time>
  <course>356.03</course>
  <speed>0.0</speed>
  <fix>3d</fix>
</trkpt>
<trkpt lat="-35.362881" lon="149.165222">
  <ele>582.09</ele>
  <time>2026-08-28T19:09:43Z</time>
  <course>95.35</course>
  <speed>0.0282842712474619</speed>
  <fix>3d</fix>
</trkpt>
<trkpt lat="-35.362881" lon="149.165222">
  <ele>582.09</ele>
  <time>2026-08-28T19:09:43Z</time>
  <course>356.03</course>
  <speed>0.0</speed>
  <fix>3d</fix>
</trkpt>
<trkpt lat="-35.362881" lon="149.165222">
  <ele>582.09</ele>
  <time>2026-08-28T19:09:43Z</time>
  <course>95.34</course>
  <speed>0.0282842712474619</speed>
  <fix>3d</fix>
</trkpt>
<trkpt lat="-35.362881" lon="149.165222">
  <ele>582.09</ele>
  <time>2026-08-28T19:09:43Z</time>
  <course>356.03</course>
  <speed>0.0</speed>
  <fix>3d</fix>
</trkpt>
<trkpt lat="-35.362881" lon="149.165222">
  <ele>582.09</ele>
  <time>2026-08-28T19:09:43Z</time>
  <course>95.32</course>
  <speed>0.0282842712474619</speed>
  <fix>3d</fix>
</trkpt>
<trkpt lat="-35.362881" lon="149.165222">
  <ele>582.09</ele>
  <time>2026-08-28T19:09:43Z</time>
  <course>356.03</course>
  <speed>0.0</speed>
  <fix>3d</fix>
</trkpt>
<trkpt lat="-35.362881" lon="149.165222">
  <ele>582.09</ele>
  <time>2026-08-28T19:09:43Z</time>
  <course>95.31</course>
  <speed>0.0282842712474619</speed>
  <fix>3d</fix>
</trkpt>
<trkpt lat="-35.362881" lon="149.165222">
  <ele>582.09</ele>
  <time>2026-08-28T19:09:43Z</time>
  <course>356.03</course>
  <speed>0.0</speed>
  <fix>3d</fix>
</trkpt>
<trkpt lat="-35.362881" lon="149.165222">
  <ele>582.09</ele>
  <time>2026-08-28T19:09:43Z</time>
  <course>95.29</course>
  <speed>0.0282842712474619</speed>
  <fix>3d</fix>
</trkpt>
<trkpt lat="-35.362881" lon="149.165222">
  <ele>582.09</ele>
  <time>2026-08-28T19:09:43Z</time>
  <course>356.03</course>
  <speed>0.0</speed>
  <fix>3d</fix>
</trkpt>
<trkpt lat="-35.362881" lon="149.165222">
  <ele>582.09</ele>
  <time>2026-08-28T19:09:43Z</time>
  <course>95.28</course>
  <speed>0.0282842712474619</speed>
  <fix>3d</fix>
</trkpt>
<trkpt lat="-35.362881" lon="149.165222">
  <ele>582.09</ele>
  <time>2026-08-28T19:09:43Z</time>
  <course>356.03</course>
  <speed>0.0</speed>
  <fix>3d</fix>
</trkpt>
<trkpt lat="-35.362881" lon="149.165222">
  <ele>582.09</ele>
  <time>2026-08-28T19:09:43Z</time>
  <course>95.27</course>
  <speed>0.0282842712474619</speed>
  <fix>3d</fix>
</trkpt>
<trkpt lat="-35.362881" lon="149.165222">
  <ele>582.09</ele>
  <time>2026-08-28T19:09:43Z</time>
  <course>356.03</course>
  <speed>0.0</speed>
  <fix>3d</fix>
</trkpt>
<trkpt lat="-35.362881" lon="149.165222">
  <ele>582.09</ele>
  <time>2026-08-28T19:09:43Z</time>
  <course>95.25</course>
  <speed>0.0282842712474619</speed>
  <fix>3d</fix>
</trkpt>
<trkpt lat="-35.362881" lon="149.165222">
  <ele>582.09</ele>
  <time>2026-08-28T19:09:43Z</time>
  <course>356.03</course>
  <speed>0.0</speed>
  <fix>3d</fix>
</trkpt>
<trkpt lat="-35.362881" lon="149.165222">
  <ele>582.09</ele>
  <time>2026-08-28T19:09:44Z</time>
  <course>95.24</course>
  <speed>0.0282842712474619</speed>
  <fix>3d</fix>
</trkpt>
<trkpt lat="-35.362881" lon="149.165222">
  <ele>582.09</ele>
  <time>2026-08-28T19:09:44Z</time>
  <course>356.03</course>
  <speed>0.0</speed>
  <fix>3d</fix>
</trkpt>
<trkpt lat="-35.362881" lon="149.165222">
  <ele>582.09</ele>
  <time>2026-08-28T19:09:44Z</time>
  <course>95.22</course>
  <speed>0.0282842712474619</speed>
  <fix>3d</fix>
</trkpt>
<trkpt lat="-35.362881" lon="149.165222">
  <ele>582.09</ele>
  <time>2026-08-28T19:09:44Z</time>
  <course>356.03</course>
  <speed>0.0</speed>
  <fix>3d</fix>
</trkpt>
<trkpt lat="-35.362881" lon="149.165222">
  <ele>582.09</ele>
  <time>2026-08-28T19:09:44Z</time>
  <course>95.21</course>
  <speed>0.0282842712474619</speed>
  <fix>3d</fix>
</trkpt>
<trkpt lat="-35.362881" lon="149.165222">
  <ele>582.09</ele>
  <time>2026-08-28T19:09:44Z</time>
  <course>356.03</course>
  <speed>0.0</speed>
  <fix>3d</fix>
</trkpt>
<trkpt lat="-35.362881" lon="149.165222">
  <ele>582.09</ele>
  <time>2026-08-28T19:09:44Z</time>
  <course>95.2</course>
  <speed>0.0282842712474619</speed>
  <fix>3d</fix>
</trkpt>
<trkpt lat="-35.362881" lon="149.165222">
  <ele>582.09</ele>
  <time>2026-08-28T19:09:44Z</time>
  <course>356.03</course>
  <speed>0.0</speed>
  <fix>3d</fix>
</trkpt>
<trkpt lat="-35.362881" lon="149.165222">
  <ele>582.09</ele>
  <time>2026-08-28T19:09:44Z</time>
  <course>95.18</course>
  <speed>0.0282842712474619</speed>
  <fix>3d</fix>
</trkpt>
<trkpt lat="-35.362881" lon="149.165222">
  <ele>582.09</ele>
  <time>2026-08-28T19:09:44Z</time>
  <course>356.03</course>
  <speed>0.0</speed>
  <fix>3d</fix>
</trkpt>
<trkpt lat="-35.362881" lon="149.165222">
  <ele>582.09</ele>
  <time>2026-08-28T19:09:44Z</time>
  <course>95.17</course>
  <speed>0.0282842712474619</speed>
  <fix>3d</fix>
</trkpt>
<trkpt lat="-35.362881" lon="149.165222">
  <ele>582.09</ele>
  <time>2026-08-28T19:09:44Z</time>
  <course>356.03</course>
  <speed>0.0</speed>
  <fix>3d</fix>
</trkpt>
<trkpt lat="-35.362881" lon="149.165222">
  <ele>582.09</ele>
  <time>2026-08-28T19:09:44Z</time>
  <course>95.16</course>
  <speed>0.0282842712474619</speed>
  <fix>3d</fix>
</trkpt>
<trkpt lat="-35.362881" lon="149.165222">
  <ele>582.09</ele>
  <time>2026-08-28T19:09:44Z</time>
  <course>356.03</course>
  <speed>0.0</speed>
  <fix>3d</fix>
</trkpt>
<trkpt lat="-35.362881" lon="149.165222">
  <ele>582.09</ele>
  <time>2026-08-28T19:09:44Z</time>
  <course>95.14</course>
  <speed>0.0282842712474619</speed>
  <fix>3d</fix>
</trkpt>
<trkpt lat="-35.362881" lon="149.165222">
  <ele>582.09</ele>
  <time>2026-08-28T19:09:44Z</time>
  <course>356.03</course>
  <speed>0.0</speed>
  <fix>3d</fix>
</trkpt>
<trkpt lat="-35.362881" lon="149.165222">
  <ele>582.09</ele>
  <time>2026-08-28T19:09:44Z</time>
  <course>95.13</course>
  <speed>0.0282842712474619</speed>
  <fix>3d</fix>
</trkpt>
<trkpt lat="-35.362881" lon="149.165222">
  <ele>582.09</ele>
  <time>2026-08-28T19:09:44Z</time>
  <course>356.03</course>
  <speed>0.0</speed>
  <fix>3d</fix>
</trkpt>
<trkpt lat="-35.362881" lon="149.165222">
  <ele>582.09</ele>
  <time>2026-08-28T19:09:44Z</time>
  <course>95.12</course>
  <speed>0.03605551275463989</speed>
  <fix>3d</fix>
</trkpt>
<trkpt lat="-35.362881" lon="149.165222">
  <ele>582.09</ele>
  <time>2026-08-28T19:09:44Z</time>
  <course>356.03</course>
  <speed>0.0</speed>
  <fix>3d</fix>
</trkpt>
<trkpt lat="-35.362881" lon="149.165222">
  <ele>582.09</ele>
  <time>2026-08-28T19:09:44Z</time>
  <course>95.11</course>
  <speed>0.03605551275463989</speed>
  <fix>3d</fix>
</trkpt>
<trkpt lat="-35.362881" lon="149.165222">
  <ele>582.09</ele>
  <time>2026-08-28T19:09:44Z</time>
  <course>356.03</course>
  <speed>0.0</speed>
  <fix>3d</fix>
</trkpt>
<trkpt lat="-35.362881" lon="149.165222">
  <ele>582.09</ele>
  <time>2026-08-28T19:09:44Z</time>
  <course>95.09</course>
  <speed>0.03605551275463989</speed>
  <fix>3d</fix>
</trkpt>
<trkpt lat="-35.362881" lon="149.165222">
  <ele>582.09</ele>
  <time>2026-08-28T19:09:44Z</time>
  <course>356.03</course>
  <speed>0.0</speed>
  <fix>3d</fix>
</trkpt>
<trkpt lat="-35.362881" lon="149.165222">
  <ele>582.09</ele>
  <time>2026-08-28T19:09:44Z</time>
  <course>95.08</course>
  <speed>0.03605551275463989</speed>
  <fix>3d</fix>
</trkpt>
<trkpt lat="-35.362881" lon="149.165222">
  <ele>582.09</ele>
  <time>2026-08-28T19:09:44Z</time>
  <course>356.03</course>
  <speed>0.0</speed>
  <fix>3d</fix>
</trkpt>
<trkpt lat="-35.362881" lon="149.165222">
  <ele>582.09</ele>
  <time>2026-08-28T19:09:44Z</time>
  <course>95.07</course>
  <speed>0.03605551275463989</speed>
  <fix>3d</fix>
</trkpt>
<trkpt lat="-35.362881" lon="149.165222">
  <ele>582.09</ele>
  <time>2026-08-28T19:09:44Z</time>
  <course>356.03</course>
  <speed>0.0</speed>
  <fix>3d</fix>
</trkpt>
<trkpt lat="-35.362881" lon="149.165222">
  <ele>582.09</ele>
  <time>2026-08-28T19:09:44Z</time>
  <course>95.06</course>
  <speed>0.03605551275463989</speed>
  <fix>3d</fix>
</trkpt>
<trkpt lat="-35.362881" lon="149.165222">
  <ele>582.09</ele>
  <time>2026-08-28T19:09:44Z</time>
  <course>356.03</course>
  <speed>0.0</speed>
  <fix>3d</fix>
</trkpt>
<trkpt lat="-35.362881" lon="149.165222">
  <ele>582.09</ele>
  <time>2026-08-28T19:09:44Z</time>
  <course>95.05</course>
  <speed>0.03605551275463989</speed>
  <fix>3d</fix>
</trkpt>
<trkpt lat="-35.362881" lon="149.165222">
  <ele>582.09</ele>
  <time>2026-08-28T19:09:44Z</time>
  <course>356.03</course>
  <speed>0.0</speed>
  <fix>3d</fix>
</trkpt>
<trkpt lat="-35.362881" lon="149.165222">
  <ele>582.09</ele>
  <time>2026-08-28T19:09:44Z</time>
  <course>95.03</course>
  <speed>0.03605551275463989</speed>
  <fix>3d</fix>
</trkpt>
<trkpt lat="-35.362881" lon="149.165222">
  <ele>582.09</ele>
  <time>2026-08-28T19:09:44Z</time>
  <course>356.03</course>
  <speed>0.0</speed>
  <fix>3d</fix>
</trkpt>
<trkpt lat="-35.362881" lon="149.165222">
  <ele>582.09</ele>
  <time>2026-08-28T19:09:44Z</time>
  <course>95.02</course>
  <speed>0.03605551275463989</speed>
  <fix>3d</fix>
</trkpt>
<trkpt lat="-35.362881" lon="149.165222">
  <ele>582.09</ele>
  <time>2026-08-28T19:09:44Z</time>
  <course>356.03</course>
  <speed>0.0</speed>
  <fix>3d</fix>
</trkpt>
<trkpt lat="-35.362881" lon="149.165222">
  <ele>582.09</ele>
  <time>2026-08-28T19:09:44Z</time>
  <course>95.01</course>
  <speed>0.03605551275463989</speed>
  <fix>3d</fix>
</trkpt>
<trkpt lat="-35.362881" lon="149.165222">
  <ele>582.09</ele>
  <time>2026-08-28T19:09:44Z</time>
  <course>356.03</course>
  <speed>0.0</speed>
  <fix>3d</fix>
</trkpt>
<trkpt lat="-35.362881" lon="149.165222">
  <ele>582.09</ele>
  <time>2026-08-28T19:09:44Z</time>
  <course>95.0</course>
  <speed>0.03605551275463989</speed>
  <fix>3d</fix>
</trkpt>
<trkpt lat="-35.362881" lon="149.165222">
  <ele>582.09</ele>
  <time>2026-08-28T19:09:44Z</time>
  <course>356.03</course>
  <speed>0.0</speed>
  <fix>3d</fix>
</trkpt>
<trkpt lat="-35.362881" lon="149.165222">
  <ele>582.09</ele>
  <time>2026-08-28T19:09:44Z</time>
  <course>94.99</course>
  <speed>0.03605551275463989</speed>
  <fix>3d</fix>
</trkpt>
<trkpt lat="-35.362881" lon="149.165222">
  <ele>582.09</ele>
  <time>2026-08-28T19:09:44Z</time>
  <course>356.03</course>
  <speed>0.0</speed>
  <fix>3d</fix>
</trkpt>
<trkpt lat="-35.362881" lon="149.165222">
  <ele>582.09</ele>
  <time>2026-08-28T19:09:44Z</time>
  <course>94.98</course>
  <speed>0.03605551275463989</speed>
  <fix>3d</fix>
</trkpt>
<trkpt lat="-35.362881" lon="149.165222">
  <ele>582.09</ele>
  <time>2026-08-28T19:09:44Z</time>
  <course>356.03</course>
  <speed>0.0</speed>
  <fix>3d</fix>
</trkpt>
<trkpt lat="-35.362881" lon="149.165222">
  <ele>582.09</ele>
  <time>2026-08-28T19:09:44Z</time>
  <course>94.96</course>
  <speed>0.03605551275463989</speed>
  <fix>3d</fix>
</trkpt>
<trkpt lat="-35.362881" lon="149.165222">
  <ele>582.09</ele>
  <time>2026-08-28T19:09:44Z</time>
  <course>356.03</course>
  <speed>0.0</speed>
  <fix>3d</fix>
</trkpt>
<trkpt lat="-35.362881" lon="149.165222">
  <ele>582.09</ele>
  <time>2026-08-28T19:09:44Z</time>
  <course>94.95</course>
  <speed>0.03605551275463989</speed>
  <fix>3d</fix>
</trkpt>
<trkpt lat="-35.362881" lon="149.165222">
  <ele>582.09</ele>
  <time>2026-08-28T19:09:44Z</time>
  <course>356.03</course>
  <speed>0.0</speed>
  <fix>3d</fix>
</trkpt>
<trkpt lat="-35.362881" lon="149.165222">
  <ele>582.09</ele>
  <time>2026-08-28T19:09:44Z</time>
  <course>94.94</course>
  <speed>0.03605551275463989</speed>
  <fix>3d</fix>
</trkpt>
<trkpt lat="-35.362881" lon="149.165222">
  <ele>582.09</ele>
  <time>2026-08-28T19:09:44Z</time>
  <course>356.03</course>
  <speed>0.0</speed>
  <fix>3d</fix>
</trkpt>
<trkpt lat="-35.362881" lon="149.165222">
  <ele>582.09</ele>
  <time>2026-08-28T19:09:44Z</time>
  <course>94.93</course>
  <speed>0.03605551275463989</speed>
  <fix>3d</fix>
</trkpt>
<trkpt lat="-35.362881" lon="149.165222">
  <ele>582.09</ele>
  <time>2026-08-28T19:09:44Z</time>
  <course>356.03</course>
  <speed>0.0</speed>
  <fix>3d</fix>
</trkpt>
<trkpt lat="-35.362881" lon="149.165222">
  <ele>582.09</ele>
  <time>2026-08-28T19:09:44Z</time>
  <course>94.92</course>
  <speed>0.03605551275463989</speed>
  <fix>3d</fix>
</trkpt>
<trkpt lat="-35.362881" lon="149.165222">
  <ele>582.09</ele>
  <time>2026-08-28T19:09:44Z</time>
  <course>356.03</course>
  <speed>0.0</speed>
  <fix>3d</fix>
</trkpt>
<trkpt lat="-35.362881" lon="149.165222">
  <ele>582.09</ele>
  <time>2026-08-28T19:09:44Z</time>
  <course>94.91</course>
  <speed>0.04242640687119285</speed>
  <fix>3d</fix>
</trkpt>
<trkpt lat="-35.362881" lon="149.165222">
  <ele>582.09</ele>
  <time>2026-08-28T19:09:44Z</time>
  <course>356.03</course>
  <speed>0.0</speed>
  <fix>3d</fix>
</trkpt>
<trkpt lat="-35.362881" lon="149.165222">
  <ele>582.09</ele>
  <time>2026-08-28T19:09:44Z</time>
  <course>94.9</course>
  <speed>0.04242640687119285</speed>
  <fix>3d</fix>
</trkpt>
<trkpt lat="-35.362881" lon="149.165222">
  <ele>582.09</ele>
  <time>2026-08-28T19:09:44Z</time>
  <course>356.03</course>
  <speed>0.0</speed>
  <fix>3d</fix>
</trkpt>
<trkpt lat="-35.362881" lon="149.165222">
  <ele>582.09</ele>
  <time>2026-08-28T19:09:44Z</time>
  <course>94.89</course>
  <speed>0.04242640687119285</speed>
  <fix>3d</fix>
</trkpt>
<trkpt lat="-35.362881" lon="149.165222">
  <ele>582.09</ele>
  <time>2026-08-28T19:09:44Z</time>
  <course>356.03</course>
  <speed>0.0</speed>
  <fix>3d</fix>
</trkpt>
<trkpt lat="-35.362881" lon="149.165222">
  <ele>582.09</ele>
  <time>2026-08-28T19:09:44Z</time>
  <course>94.88</course>
  <speed>0.04242640687119285</speed>
  <fix>3d</fix>
</trkpt>
<trkpt lat="-35.362881" lon="149.165222">
  <ele>582.09</ele>
  <time>2026-08-28T19:09:44Z</time>
  <course>356.03</course>
  <speed>0.0</speed>
  <fix>3d</fix>
</trkpt>
<trkpt lat="-35.362881" lon="149.165222">
  <ele>582.09</ele>
  <time>2026-08-28T19:09:44Z</time>
  <course>94.87</course>
  <speed>0.04242640687119285</speed>
  <fix>3d</fix>
</trkpt>
<trkpt lat="-35.362881" lon="149.165222">
  <ele>582.09</ele>
  <time>2026-08-28T19:09:44Z</time>
  <course>356.03</course>
  <speed>0.0</speed>
  <fix>3d</fix>
</trkpt>
<trkpt lat="-35.362881" lon="149.165222">
  <ele>582.09</ele>
  <time>2026-08-28T19:09:44Z</time>
  <course>94.85</course>
  <speed>0.04242640687119285</speed>
  <fix>3d</fix>
</trkpt>
<trkpt lat="-35.362881" lon="149.165222">
  <ele>582.09</ele>
  <time>2026-08-28T19:09:44Z</time>
  <course>356.03</course>
  <speed>0.0</speed>
  <fix>3d</fix>
</trkpt>
<trkpt lat="-35.362881" lon="149.165222">
  <ele>582.09</ele>
  <time>2026-08-28T19:09:44Z</time>
  <course>94.84</course>
  <speed>0.04242640687119285</speed>
  <fix>3d</fix>
</trkpt>
<trkpt lat="-35.362881" lon="149.165222">
  <ele>582.09</ele>
  <time>2026-08-28T19:09:44Z</time>
  <course>356.03</course>
  <speed>0.0</speed>
  <fix>3d</fix>
</trkpt>
<trkpt lat="-35.362881" lon="149.165222">
  <ele>582.09</ele>
  <time>2026-08-28T19:09:44Z</time>
  <course>94.83</course>
  <speed>0.04242640687119285</speed>
  <fix>3d</fix>
</trkpt>
<trkpt lat="-35.362881" lon="149.165222">
  <ele>582.09</ele>
  <time>2026-08-28T19:09:44Z</time>
  <course>356.03</course>
  <speed>0.0</speed>
  <fix>3d</fix>
</trkpt>
<trkpt lat="-35.362881" lon="149.165222">
  <ele>582.09</ele>
  <time>2026-08-28T19:09:44Z</time>
  <course>94.82</course>
  <speed>0.04242640687119285</speed>
  <fix>3d</fix>
</trkpt>
<trkpt lat="-35.362881" lon="149.165222">
  <ele>582.09</ele>
  <time>2026-08-28T19:09:44Z</time>
  <course>356.03</course>
  <speed>0.0</speed>
  <fix>3d</fix>
</trkpt>
<trkpt lat="-35.362881" lon="149.165222">
  <ele>582.09</ele>
  <time>2026-08-28T19:09:44Z</time>
  <course>94.82</course>
  <speed>0.04242640687119285</speed>
  <fix>3d</fix>
</trkpt>
<trkpt lat="-35.362881" lon="149.165222">
  <ele>582.09</ele>
  <time>2026-08-28T19:09:44Z</time>
  <course>356.03</course>
  <speed>0.0</speed>
  <fix>3d</fix>
</trkpt>
<trkpt lat="-35.362881" lon="149.165222">
  <ele>582.09</ele>
  <time>2026-08-28T19:09:44Z</time>
  <course>94.81</course>
  <speed>0.04242640687119285</speed>
  <fix>3d</fix>
</trkpt>
<trkpt lat="-35.362881" lon="149.165222">
  <ele>582.09</ele>
  <time>2026-08-28T19:09:44Z</time>
  <course>356.03</course>
  <speed>0.0</speed>
  <fix>3d</fix>
</trkpt>
<trkpt lat="-35.362881" lon="149.165222">
  <ele>582.09</ele>
  <time>2026-08-28T19:09:44Z</time>
  <course>94.8</course>
  <speed>0.04242640687119285</speed>
  <fix>3d</fix>
</trkpt>
<trkpt lat="-35.362881" lon="149.165222">
  <ele>582.09</ele>
  <time>2026-08-28T19:09:44Z</time>
  <course>356.03</course>
  <speed>0.0</speed>
  <fix>3d</fix>
</trkpt>
<trkpt lat="-35.362881" lon="149.165222">
  <ele>582.09</ele>
  <time>2026-08-28T19:09:44Z</time>
  <course>94.79</course>
  <speed>0.04242640687119285</speed>
  <fix>3d</fix>
</trkpt>
<trkpt lat="-35.362881" lon="149.165222">
  <ele>582.09</ele>
  <time>2026-08-28T19:09:44Z</time>
  <course>356.03</course>
  <speed>0.0</speed>
  <fix>3d</fix>
</trkpt>
<trkpt lat="-35.362881" lon="149.165222">
  <ele>582.16</ele>
  <time>2026-08-28T19:09:44Z</time>
  <course>94.78</course>
  <speed>0.0</speed>
  <fix>3d</fix>
</trkpt>
<trkpt lat="-35.362881" lon="149.165222">
  <ele>582.09</ele>
  <time>2026-08-28T19:09:44Z</time>
  <course>356.03</course>
  <speed>0.0</speed>
  <fix>3d</fix>
</trkpt>
<trkpt lat="-35.362881" lon="149.165222">
  <ele>582.15</ele>
  <time>2026-08-28T19:09:44Z</time>
  <course>94.77</course>
  <speed>0.0</speed>
  <fix>3d</fix>
</trkpt>
<trkpt lat="-35.362881" lon="149.165222">
  <ele>582.09</ele>
  <time>2026-08-28T19:09:44Z</time>
  <course>356.03</course>
  <speed>0.0</speed>
  <fix>3d</fix>
</trkpt>
<trkpt lat="-35.362881" lon="149.165222">
  <ele>582.16</ele>
  <time>2026-08-28T19:09:44Z</time>
  <course>94.76</course>
  <speed>0.0</speed>
  <fix>3d</fix>
</trkpt>
<trkpt lat="-35.362881" lon="149.165222">
  <ele>582.09</ele>
  <time>2026-08-28T19:09:44Z</time>
  <course>20.58</course>
  <speed>0.0</speed>
  <fix>3d</fix>
</trkpt>
<trkpt lat="-35.362881" lon="149.165222">
  <ele>582.16</ele>
  <time>2026-08-28T19:09:44Z</time>
  <course>94.75</course>
  <speed>0.0</speed>
  <fix>3d</fix>
</trkpt>
<trkpt lat="-35.362881" lon="149.165222">
  <ele>582.09</ele>
  <time>2026-08-28T19:09:44Z</time>
  <course>1.49</course>
  <speed>0.0</speed>
  <fix>3d</fix>
</trkpt>
<trkpt lat="-35.362881" lon="149.165222">
  <ele>582.16</ele>
  <time>2026-08-28T19:09:44Z</time>
  <course>94.74</course>
  <speed>0.0</speed>
  <fix>3d</fix>
</trkpt>
<trkpt lat="-35.362881" lon="149.165222">
  <ele>582.09</ele>
  <time>2026-08-28T19:09:44Z</time>
  <course>322.22</course>
  <speed>0.0</speed>
  <fix>3d</fix>
</trkpt>
<trkpt lat="-35.362881" lon="149.165222">
  <ele>582.17</ele>
  <time>2026-08-28T19:09:44Z</time>
  <course>94.73</course>
  <speed>0.0</speed>
  <fix>3d</fix>
</trkpt>
<trkpt lat="-35.362881" lon="149.165222">
  <ele>582.09</ele>
  <time>2026-08-28T19:09:44Z</time>
  <course>175.73</course>
  <speed>0.0</speed>
  <fix>3d</fix>
</trkpt>
<trkpt lat="-35.362881" lon="149.165222">
  <ele>582.17</ele>
  <time>2026-08-28T19:09:44Z</time>
  <course>94.72</course>
  <speed>0.01</speed>
  <fix>3d</fix>
</trkpt>
<trkpt lat="-35.362881" lon="149.165222">
  <ele>582.09</ele>
  <time>2026-08-28T19:09:44Z</time>
  <course>27.34</course>
  <speed>0.0</speed>
  <fix>3d</fix>
</trkpt>
<trkpt lat="-35.362881" lon="149.165222">
  <ele>582.17</ele>
  <time>2026-08-28T19:09:44Z</time>
  <course>94.71</course>
  <speed>0.01414213562373095</speed>
  <fix>3d</fix>
</trkpt>
<trkpt lat="-35.362881" lon="149.165222">
  <ele>582.09</ele>
  <time>2026-08-28T19:09:44Z</time>
  <course>353.74</course>
  <speed>0.0</speed>
  <fix>3d</fix>
</trkpt>
<trkpt lat="-35.362881" lon="149.165222">
  <ele>582.17</ele>
  <time>2026-08-28T19:09:44Z</time>
  <course>94.71</course>
  <speed>0.01414213562373095</speed>
  <fix>3d</fix>
</trkpt>
<trkpt lat="-35.362881" lon="149.165222">
  <ele>582.09</ele>
  <time>2026-08-28T19:09:44Z</time>
  <course>352.43</course>
  <speed>0.0</speed>
  <fix>3d</fix>
</trkpt>
<trkpt lat="-35.362881" lon="149.165222">
  <ele>582.16</ele>
  <time>2026-08-28T19:09:44Z</time>
  <course>94.7</course>
  <speed>0.01414213562373095</speed>
  <fix>3d</fix>
</trkpt>
<trkpt lat="-35.362881" lon="149.165222">
  <ele>582.09</ele>
  <time>2026-08-28T19:09:44Z</time>
  <course>356.97</course>
  <speed>0.0</speed>
  <fix>3d</fix>
</trkpt>
<trkpt lat="-35.362881" lon="149.165222">
  <ele>582.16</ele>
  <time>2026-08-28T19:09:44Z</time>
  <course>94.69</course>
  <speed>0.01414213562373095</speed>
  <fix>3d</fix>
</trkpt>
<trkpt lat="-35.362881" lon="149.165222">
  <ele>582.09</ele>
  <time>2026-08-28T19:09:44Z</time>
  <course>346.57</course>
  <speed>0.0</speed>
  <fix>3d</fix>
</trkpt>
<trkpt lat="-35.362881" lon="149.165222">
  <ele>582.16</ele>
  <time>2026-08-28T19:09:44Z</time>
  <course>94.68</course>
  <speed>0.01414213562373095</speed>
  <fix>3d</fix>
</trkpt>
<trkpt lat="-35.362881" lon="149.165222">
  <ele>582.09</ele>
  <time>2026-08-28T19:09:44Z</time>
  <course>353.71</course>
  <speed>0.0</speed>
  <fix>3d</fix>
</trkpt>
<trkpt lat="-35.362881" lon="149.165222">
  <ele>582.16</ele>
  <time>2026-08-28T19:09:44Z</time>
  <course>94.67</course>
  <speed>0.01414213562373095</speed>
  <fix>3d</fix>
</trkpt>
<trkpt lat="-35.362881" lon="149.165222">
  <ele>582.09</ele>
  <time>2026-08-28T19:09:44Z</time>
  <course>353.99</course>
  <speed>0.0</speed>
  <fix>3d</fix>
</trkpt>
<trkpt lat="-35.362881" lon="149.165222">
  <ele>582.16</ele>
  <time>2026-08-28T19:09:44Z</time>
  <course>94.66</course>
  <speed>0.01414213562373095</speed>
  <fix>3d</fix>
</trkpt>
<trkpt lat="-35.362881" lon="149.165222">
  <ele>582.09</ele>
  <time>2026-08-28T19:09:44Z</time>
  <course>352.47</course>
  <speed>0.0</speed>
  <fix>3d</fix>
</trkpt>
<trkpt lat="-35.362881" lon="149.165222">
  <ele>582.16</ele>
  <time>2026-08-28T19:09:44Z</time>
  <course>94.65</course>
  <speed>0.01414213562373095</speed>
  <fix>3d</fix>
</trkpt>
<trkpt lat="-35.362881" lon="149.165222">
  <ele>582.09</ele>
  <time>2026-08-28T19:09:44Z</time>
  <course>357.03</course>
  <speed>0.0</speed>
  <fix>3d</fix>
</trkpt>
<trkpt lat="-35.362881" lon="149.165222">
  <ele>582.16</ele>
  <time>2026-08-28T19:09:44Z</time>
  <course>94.65</course>
  <speed>0.01</speed>
  <fix>3d</fix>
</trkpt>
<trkpt lat="-35.362881" lon="149.165222">
  <ele>582.09</ele>
  <time>2026-08-28T19:09:44Z</time>
  <course>356.38</course>
  <speed>0.0</speed>
  <fix>3d</fix>
</trkpt>
<trkpt lat="-35.362881" lon="149.165222">
  <ele>582.16</ele>
  <time>2026-08-28T19:09:44Z</time>
  <course>94.64</course>
  <speed>0.0</speed>
  <fix>3d</fix>
</trkpt>
<trkpt lat="-35.362881" lon="149.165222">
  <ele>582.09</ele>
  <time>2026-08-28T19:09:44Z</time>
  <course>355.87</course>
  <speed>0.0</speed>
  <fix>3d</fix>
</trkpt>
<trkpt lat="-35.362881" lon="149.165222">
  <ele>582.16</ele>
  <time>2026-08-28T19:09:44Z</time>
  <course>94.63</course>
  <speed>0.0</speed>
  <fix>3d</fix>
</trkpt>
<trkpt lat="-35.362881" lon="149.165222">
  <ele>582.09</ele>
  <time>2026-08-28T19:09:44Z</time>
  <course>356.01</course>
  <speed>0.0</speed>
  <fix>3d</fix>
</trkpt>
<trkpt lat="-35.362881" lon="149.165222">
  <ele>582.16</ele>
  <time>2026-08-28T19:09:44Z</time>
  <course>94.62</course>
  <speed>0.0</speed>
  <fix>3d</fix>
</trkpt>
<trkpt lat="-35.362881" lon="149.165222">
  <ele>582.09</ele>
  <time>2026-08-28T19:09:44Z</time>
  <course>72.18</course>
  <speed>0.0</speed>
  <fix>3d</fix>
</trkpt>
<trkpt lat="-35.362881" lon="149.165222">
  <ele>582.16</ele>
  <time>2026-08-28T19:09:44Z</time>
  <course>94.61</course>
  <speed>0.0</speed>
  <fix>3d</fix>
</trkpt>
<trkpt lat="-35.362881" lon="149.165222">
  <ele>582.09</ele>
  <time>2026-08-28T19:09:44Z</time>
  <course>57.57</course>
  <speed>0.0</speed>
  <fix>3d</fix>
</trkpt>
<trkpt lat="-35.362881" lon="149.165222">
  <ele>582.16</ele>
  <time>2026-08-28T19:09:44Z</time>
  <course>94.61</course>
  <speed>0.0</speed>
  <fix>3d</fix>
</trkpt>
<trkpt lat="-35.362881" lon="149.165222">
  <ele>582.09</ele>
  <time>2026-08-28T19:09:44Z</time>
  <course>11.22</course>
  <speed>0.0</speed>
  <fix>3d</fix>
</trkpt>
<trkpt lat="-35.362881" lon="149.165222">
  <ele>582.16</ele>
  <time>2026-08-28T19:09:44Z</time>
  <course>94.6</course>
  <speed>0.0</speed>
  <fix>3d</fix>
</trkpt>
<trkpt lat="-35.362881" lon="149.165222">
  <ele>582.09</ele>
  <time>2026-08-28T19:09:44Z</time>
  <course>250.58</course>
  <speed>0.0</speed>
  <fix>3d</fix>
</trkpt>
<trkpt lat="-35.362881" lon="149.165222">
  <ele>582.16</ele>
  <time>2026-08-28T19:09:44Z</time>
  <course>94.59</course>
  <speed>0.0</speed>
  <fix>3d</fix>
</trkpt>
<trkpt lat="-35.362881" lon="149.165222">
  <ele>582.09</ele>
  <time>2026-08-28T19:09:44Z</time>
  <course>35.37</course>
  <speed>0.0</speed>
  <fix>3d</fix>
</trkpt>
<trkpt lat="-35.362881" lon="149.165222">
  <ele>582.16</ele>
  <time>2026-08-28T19:09:44Z</time>
  <course>94.59</course>
  <speed>0.0</speed>
  <fix>3d</fix>
</trkpt>
<trkpt lat="-35.362881" lon="149.165222">
  <ele>582.09</ele>
  <time>2026-08-28T19:09:44Z</time>
  <course>24.53</course>
  <speed>0.0</speed>
  <fix>3d</fix>
</trkpt>
<trkpt lat="-35.362881" lon="149.165222">
  <ele>582.16</ele>
  <time>2026-08-28T19:09:44Z</time>
  <course>94.58</course>
  <speed>0.0</speed>
  <fix>3d</fix>
</trkpt>
<trkpt lat="-35.362881" lon="149.165222">
  <ele>582.09</ele>
  <time>2026-08-28T19:09:44Z</time>
  <course>12.85</course>
  <speed>0.0</speed>
  <fix>3d</fix>
</trkpt>
<trkpt lat="-35.362881" lon="149.165222">
  <ele>582.16</ele>
  <time>2026-08-28T19:09:44Z</time>
  <course>94.57</course>
  <speed>0.0</speed>
  <fix>3d</fix>
</trkpt>
<trkpt lat="-35.362881" lon="149.165222">
  <ele>582.09</ele>
  <time>2026-08-28T19:09:44Z</time>
  <course>15.04</course>
  <speed>0.0</speed>
  <fix>3d</fix>
</trkpt>
<trkpt lat="-35.362881" lon="149.165222">
  <ele>582.16</ele>
  <time>2026-08-28T19:09:44Z</time>
  <course>94.57</course>
  <speed>0.0</speed>
  <fix>3d</fix>
</trkpt>
<trkpt lat="-35.362881" lon="149.165222">
  <ele>582.09</ele>
  <time>2026-08-28T19:09:44Z</time>
  <course>16.76</course>
  <speed>0.0</speed>
  <fix>3d</fix>
</trkpt>
<trkpt lat="-35.362881" lon="149.165222">
  <ele>582.16</ele>
  <time>2026-08-28T19:09:44Z</time>
  <course>94.56</course>
  <speed>0.0</speed>
  <fix>3d</fix>
</trkpt>
<trkpt lat="-35.362881" lon="149.165222">
  <ele>582.09</ele>
  <time>2026-08-28T19:09:44Z</time>
  <course>16.27</course>
  <speed>0.0</speed>
  <fix>3d</fix>
</trkpt>
<trkpt lat="-35.362881" lon="149.165222">
  <ele>582.16</ele>
  <time>2026-08-28T19:09:44Z</time>
  <course>94.55</course>
  <speed>0.0</speed>
  <fix>3d</fix>
</trkpt>
<trkpt lat="-35.362881" lon="149.165222">
  <ele>582.09</ele>
  <time>2026-08-28T19:09:44Z</time>
  <course>16.1</course>
  <speed>0.0</speed>
  <fix>3d</fix>
</trkpt>
<trkpt lat="-35.362881" lon="149.165222">
  <ele>582.15</ele>
  <time>2026-08-28T19:09:44Z</time>
  <course>94.55</course>
  <speed>0.0</speed>
  <fix>3d</fix>
</trkpt>
<trkpt lat="-35.362881" lon="149.165222">
  <ele>582.09</ele>
  <time>2026-08-28T19:09:44Z</time>
  <course>16.19</course>
  <speed>0.0</speed>
  <fix>3d</fix>
</trkpt>
<trkpt lat="-35.362881" lon="149.165222">
  <ele>582.15</ele>
  <time>2026-08-28T19:09:44Z</time>
  <course>94.54</course>
  <speed>0.0</speed>
  <fix>3d</fix>
</trkpt>
<trkpt lat="-35.362881" lon="149.165222">
  <ele>582.09</ele>
  <time>2026-08-28T19:09:44Z</time>
  <course>16.2</course>
  <speed>0.0</speed>
  <fix>3d</fix>
</trkpt>
<trkpt lat="-35.362881" lon="149.165222">
  <ele>582.15</ele>
  <time>2026-08-28T19:09:44Z</time>
  <course>94.54</course>
  <speed>0.0</speed>
  <fix>3d</fix>
</trkpt>
<trkpt lat="-35.362881" lon="149.165222">
  <ele>582.09</ele>
  <time>2026-08-28T19:09:44Z</time>
  <course>16.19</course>
  <speed>0.0</speed>
  <fix>3d</fix>
</trkpt>
<trkpt lat="-35.362881" lon="149.165222">
  <ele>582.15</ele>
  <time>2026-08-28T19:09:44Z</time>
  <course>94.53</course>
  <speed>0.0</speed>
  <fix>3d</fix>
</trkpt>
<trkpt lat="-35.362881" lon="149.165222">
  <ele>582.09</ele>
  <time>2026-08-28T19:09:44Z</time>
  <course>16.19</course>
  <speed>0.0</speed>
  <fix>3d</fix>
</trkpt>
<trkpt lat="-35.362881" lon="149.165222">
  <ele>582.15</ele>
  <time>2026-08-28T19:09:44Z</time>
  <course>94.52</course>
  <speed>0.0</speed>
  <fix>3d</fix>
</trkpt>
<trkpt lat="-35.362881" lon="149.165222">
  <ele>582.09</ele>
  <time>2026-08-28T19:09:44Z</time>
  <course>16.19</course>
  <speed>0.0</speed>
  <fix>3d</fix>
</trkpt>
<trkpt lat="-35.362881" lon="149.165222">
  <ele>582.15</ele>
  <time>2026-08-28T19:09:44Z</time>
  <course>94.52</course>
  <speed>0.0</speed>
  <fix>3d</fix>
</trkpt>
<trkpt lat="-35.362881" lon="149.165222">
  <ele>582.09</ele>
  <time>2026-08-28T19:09:44Z</time>
  <course>19.75</course>
  <speed>0.0</speed>
  <fix>3d</fix>
</trkpt>
<trkpt lat="-35.362881" lon="149.165222">
  <ele>582.16</ele>
  <time>2026-08-28T19:09:44Z</time>
  <course>94.51</course>
  <speed>0.0</speed>
  <fix>3d</fix>
</trkpt>
<trkpt lat="-35.362881" lon="149.165222">
  <ele>582.09</ele>
  <time>2026-08-28T19:09:44Z</time>
  <course>2.57</course>
  <speed>0.0</speed>
  <fix>3d</fix>
</trkpt>
<trkpt lat="-35.362881" lon="149.165222">
  <ele>582.16</ele>
  <time>2026-08-28T19:09:44Z</time>
  <course>94.51</course>
  <speed>0.0</speed>
  <fix>3d</fix>
</trkpt>
<trkpt lat="-35.362881" lon="149.165222">
  <ele>582.09</ele>
  <time>2026-08-28T19:09:44Z</time>
  <course>326.64</course>
  <speed>0.0</speed>
  <fix>3d</fix>
</trkpt>
<trkpt lat="-35.362881" lon="149.165222">
  <ele>582.16</ele>
  <time>2026-08-28T19:09:44Z</time>
  <course>94.5</course>
  <speed>0.0</speed>
  <fix>3d</fix>
</trkpt>
<trkpt lat="-35.362881" lon="149.165222">
  <ele>582.09</ele>
  <time>2026-08-28T19:09:44Z</time>
  <course>159.1</course>
  <speed>0.0</speed>
  <fix>3d</fix>
</trkpt>
<trkpt lat="-35.362881" lon="149.165222">
  <ele>582.16</ele>
  <time>2026-08-28T19:09:44Z</time>
  <course>94.5</course>
  <speed>0.0</speed>
  <fix>3d</fix>
</trkpt>
<trkpt lat="-35.362881" lon="149.165222">
  <ele>582.09</ele>
  <time>2026-08-28T19:09:44Z</time>
  <course>25.86</course>
  <speed>0.0</speed>
  <fix>3d</fix>
</trkpt>
<trkpt lat="-35.362881" lon="149.165222">
  <ele>582.15</ele>
  <time>2026-08-28T19:09:44Z</time>
  <course>94.49</course>
  <speed>0.01</speed>
  <fix>3d</fix>
</trkpt>
<trkpt lat="-35.362881" lon="149.165222">
  <ele>582.09</ele>
  <time>2026-08-28T19:09:44Z</time>
  <course>6.11</course>
  <speed>0.0</speed>
  <fix>3d</fix>
</trkpt>
<trkpt lat="-35.362881" lon="149.165222">
  <ele>582.15</ele>
  <time>2026-08-28T19:09:44Z</time>
  <course>94.49</course>
  <speed>0.01</speed>
  <fix>3d</fix>
</trkpt>
<trkpt lat="-35.362881" lon="149.165222">
  <ele>582.09</ele>
  <time>2026-08-28T19:09:44Z</time>
  <course>9.38</course>
  <speed>0.0</speed>
  <fix>3d</fix>
</trkpt>
<trkpt lat="-35.362881" lon="149.165222">
  <ele>582.15</ele>
  <time>2026-08-28T19:09:44Z</time>
  <course>94.48</course>
  <speed>0.01414213562373095</speed>
  <fix>3d</fix>
</trkpt>
<trkpt lat="-35.362881" lon="149.165222">
  <ele>582.09</ele>
  <time>2026-08-28T19:09:44Z</time>
  <course>11.8</course>
  <speed>0.0</speed>
  <fix>3d</fix>
</trkpt>
<trkpt lat="-35.362881" lon="149.165222">
  <ele>582.15</ele>
  <time>2026-08-28T19:09:44Z</time>
  <course>94.48</course>
  <speed>0.01414213562373095</speed>
  <fix>3d</fix>
</trkpt>
<trkpt lat="-35.362881" lon="149.165222">
  <ele>582.09</ele>
  <time>2026-08-28T19:09:44Z</time>
  <course>10.89</course>
  <speed>0.0</speed>
  <fix>3d</fix>
</trkpt>
<trkpt lat="-35.362881" lon="149.165222">
  <ele>582.15</ele>
  <time>2026-08-28T19:09:44Z</time>
  <course>94.47</course>
  <speed>0.01414213562373095</speed>
  <fix>3d</fix>
</trkpt>
<trkpt lat="-35.362881" lon="149.165222">
  <ele>582.09</ele>
  <time>2026-08-28T19:09:44Z</time>
  <course>10.68</course>
  <speed>0.0</speed>
  <fix>3d</fix>
</trkpt>
<trkpt lat="-35.362881" lon="149.165222">
  <ele>582.15</ele>
  <time>2026-08-28T19:09:44Z</time>
  <course>94.47</course>
  <speed>0.01414213562373095</speed>
  <fix>3d</fix>
</trkpt>
<trkpt lat="-35.362881" lon="149.165222">
  <ele>582.09</ele>
  <time>2026-08-28T19:09:44Z</time>
  <course>10.82</course>
  <speed>0.0</speed>
  <fix>3d</fix>
</trkpt>
<trkpt lat="-35.362881" lon="149.165222">
  <ele>582.16</ele>
  <time>2026-08-28T19:09:44Z</time>
  <course>94.46</course>
  <speed>0.01414213562373095</speed>
  <fix>3d</fix>
</trkpt>
<trkpt lat="-35.362881" lon="149.165222">
  <ele>582.09</ele>
  <time>2026-08-28T19:09:44Z</time>
  <course>10.83</course>
  <speed>0.0</speed>
  <fix>3d</fix>
</trkpt>
<trkpt lat="-35.362881" lon="149.165222">
  <ele>582.16</ele>
  <time>2026-08-28T19:09:44Z</time>
  <course>94.46</course>
  <speed>0.01414213562373095</speed>
  <fix>3d</fix>
</trkpt>
<trkpt lat="-35.362881" lon="149.165222">
  <ele>582.09</ele>
  <time>2026-08-28T19:09:44Z</time>
  <course>10.81</course>
  <speed>0.0</speed>
  <fix>3d</fix>
</trkpt>
<trkpt lat="-35.362881" lon="149.1652219">
  <ele>582.16</ele>
  <time>2026-08-28T19:09:44Z</time>
  <course>94.46</course>
  <speed>0.01414213562373095</speed>
  <fix>3d</fix>
</trkpt>
<trkpt lat="-35.362881" lon="149.165222">
  <ele>582.09</ele>
  <time>2026-08-28T19:09:44Z</time>
  <course>10.81</course>
  <speed>0.0</speed>
  <fix>3d</fix>
</trkpt>
<trkpt lat="-35.362881" lon="149.1652219">
  <ele>582.16</ele>
  <time>2026-08-28T19:09:44Z</time>
  <course>94.45</course>
  <speed>0.01414213562373095</speed>
  <fix>3d</fix>
</trkpt>
<trkpt lat="-35.362881" lon="149.165222">
  <ele>582.09</ele>
  <time>2026-08-28T19:09:44Z</time>
  <course>10.81</course>
  <speed>0.0</speed>
  <fix>3d</fix>
</trkpt>
<trkpt lat="-35.362881" lon="149.1652219">
  <ele>582.16</ele>
  <time>2026-08-28T19:09:44Z</time>
  <course>94.45</course>
  <speed>0.01414213562373095</speed>
  <fix>3d</fix>
</trkpt>
<trkpt lat="-35.362881" lon="149.165222">
  <ele>582.09</ele>
  <time>2026-08-28T19:09:44Z</time>
  <course>10.81</course>
  <speed>0.0</speed>
  <fix>3d</fix>
</trkpt>
<trkpt lat="-35.362881" lon="149.1652219">
  <ele>582.16</ele>
  <time>2026-08-28T19:09:44Z</time>
  <course>94.44</course>
  <speed>0.01414213562373095</speed>
  <fix>3d</fix>
</trkpt>
<trkpt lat="-35.362881" lon="149.165222">
  <ele>582.09</ele>
  <time>2026-08-28T19:09:44Z</time>
  <course>10.81</course>
  <speed>0.0</speed>
  <fix>3d</fix>
</trkpt>
<trkpt lat="-35.362881" lon="149.1652219">
  <ele>582.16</ele>
  <time>2026-08-28T19:09:44Z</time>
  <course>94.44</course>
  <speed>0.01414213562373095</speed>
  <fix>3d</fix>
</trkpt>
<trkpt lat="-35.362881" lon="149.165222">
  <ele>582.09</ele>
  <time>2026-08-28T19:09:44Z</time>
  <course>10.81</course>
  <speed>0.0</speed>
  <fix>3d</fix>
</trkpt>
<trkpt lat="-35.362881" lon="149.1652219">
  <ele>582.16</ele>
  <time>2026-08-28T19:09:44Z</time>
  <course>94.43</course>
  <speed>0.01414213562373095</speed>
  <fix>3d</fix>
</trkpt>
<trkpt lat="-35.362881" lon="149.165222">
  <ele>582.09</ele>
  <time>2026-08-28T19:09:44Z</time>
  <course>10.81</course>
  <speed>0.0</speed>
  <fix>3d</fix>
</trkpt>
<trkpt lat="-35.362881" lon="149.1652219">
  <ele>582.16</ele>
  <time>2026-08-28T19:09:44Z</time>
  <course>94.43</course>
  <speed>0.01414213562373095</speed>
  <fix>3d</fix>
</trkpt>
<trkpt lat="-35.362881" lon="149.165222">
  <ele>582.09</ele>
  <time>2026-08-28T19:09:44Z</time>
  <course>10.81</course>
  <speed>0.0</speed>
  <fix>3d</fix>
</trkpt>
<trkpt lat="-35.3628811" lon="149.1652219">
  <ele>582.16</ele>
  <time>2026-08-28T19:09:44Z</time>
  <course>94.43</course>
  <speed>0.01414213562373095</speed>
  <fix>3d</fix>
</trkpt>
<trkpt lat="-35.362881" lon="149.165222">
  <ele>582.09</ele>
  <time>2026-08-28T19:09:44Z</time>
  <course>10.81</course>
  <speed>0.0</speed>
  <fix>3d</fix>
</trkpt>
<trkpt lat="-35.3628811" lon="149.1652219">
  <ele>582.16</ele>
  <time>2026-08-28T19:09:44Z</time>
  <course>94.42</course>
  <speed>0.022360679774997897</speed>
  <fix>3d</fix>
</trkpt>
<trkpt lat="-35.362881" lon="149.165222">
  <ele>582.09</ele>
  <time>2026-08-28T19:09:44Z</time>
  <course>10.81</course>
  <speed>0.0</speed>
  <fix>3d</fix>
</trkpt>
<trkpt lat="-35.3628811" lon="149.1652219">
  <ele>582.16</ele>
  <time>2026-08-28T19:09:44Z</time>
  <course>94.42</course>
  <speed>0.022360679774997897</speed>
  <fix>3d</fix>
</trkpt>
<trkpt lat="-35.362881" lon="149.165222">
  <ele>582.09</ele>
  <time>2026-08-28T19:09:44Z</time>
  <course>10.81</course>
  <speed>0.0</speed>
  <fix>3d</fix>
</trkpt>
<trkpt lat="-35.3628811" lon="149.1652219">
  <ele>582.16</ele>
  <time>2026-08-28T19:09:44Z</time>
  <course>94.41</course>
  <speed>0.022360679774997897</speed>
  <fix>3d</fix>
</trkpt>
<trkpt lat="-35.362881" lon="149.165222">
  <ele>582.09</ele>
  <time>2026-08-28T19:09:44Z</time>
  <course>10.81</course>
  <speed>0.0</speed>
  <fix>3d</fix>
</trkpt>
<trkpt lat="-35.3628811" lon="149.1652219">
  <ele>582.16</ele>
  <time>2026-08-28T19:09:44Z</time>
  <course>94.41</course>
  <speed>0.022360679774997897</speed>
  <fix>3d</fix>
</trkpt>
<trkpt lat="-35.362881" lon="149.165222">
  <ele>582.09</ele>
  <time>2026-08-28T19:09:44Z</time>
  <course>10.81</course>
  <speed>0.0</speed>
  <fix>3d</fix>
</trkpt>
<trkpt lat="-35.3628811" lon="149.1652219">
  <ele>582.15</ele>
  <time>2026-08-28T19:09:44Z</time>
  <course>94.41</course>
  <speed>0.022360679774997897</speed>
  <fix>3d</fix>
</trkpt>
<trkpt lat="-35.362881" lon="149.165222">
  <ele>582.09</ele>
  <time>2026-08-28T19:09:44Z</time>
  <course>10.81</course>
  <speed>0.0</speed>
  <fix>3d</fix>
</trkpt>
<trkpt lat="-35.3628811" lon="149.1652219">
  <ele>582.15</ele>
  <time>2026-08-28T19:09:44Z</time>
  <course>94.4</course>
  <speed>0.022360679774997897</speed>
  <fix>3d</fix>
</trkpt>
<trkpt lat="-35.362881" lon="149.165222">
  <ele>582.09</ele>
  <time>2026-08-28T19:09:44Z</time>
  <course>10.81</course>
  <speed>0.0</speed>
  <fix>3d</fix>
</trkpt>
<trkpt lat="-35.3628811" lon="149.1652219">
  <ele>582.15</ele>
  <time>2026-08-28T19:09:44Z</time>
  <course>94.4</course>
  <speed>0.022360679774997897</speed>
  <fix>3d</fix>
</trkpt>
<trkpt lat="-35.362881" lon="149.165222">
  <ele>582.09</ele>
  <time>2026-08-28T19:09:44Z</time>
  <course>10.81</course>
  <speed>0.0</speed>
  <fix>3d</fix>
</trkpt>
<trkpt lat="-35.3628811" lon="149.1652219">
  <ele>582.16</ele>
  <time>2026-08-28T19:09:44Z</time>
  <course>94.39</course>
  <speed>0.022360679774997897</speed>
  <fix>3d</fix>
</trkpt>
<trkpt lat="-35.362881" lon="149.165222">
  <ele>582.09</ele>
  <time>2026-08-28T19:09:44Z</time>
  <course>10.81</course>
  <speed>0.0</speed>
  <fix>3d</fix>
</trkpt>
<trkpt lat="-35.3628811" lon="149.1652219">
  <ele>582.16</ele>
  <time>2026-08-28T19:09:44Z</time>
  <course>94.39</course>
  <speed>0.01414213562373095</speed>
  <fix>3d</fix>
</trkpt>
<trkpt lat="-35.362881" lon="149.165222">
  <ele>582.09</ele>
  <time>2026-08-28T19:09:44Z</time>
  <course>10.81</course>
  <speed>0.0</speed>
  <fix>3d</fix>
</trkpt>
<trkpt lat="-35.3628811" lon="149.1652219">
  <ele>582.16</ele>
  <time>2026-08-28T19:09:44Z</time>
  <course>94.39</course>
  <speed>0.01414213562373095</speed>
  <fix>3d</fix>
</trkpt>
<trkpt lat="-35.362881" lon="149.165222">
  <ele>582.09</ele>
  <time>2026-08-28T19:09:44Z</time>
  <course>10.81</course>
  <speed>0.0</speed>
  <fix>3d</fix>
</trkpt>
<trkpt lat="-35.3628811" lon="149.1652219">
  <ele>582.16</ele>
  <time>2026-08-28T19:09:44Z</time>
  <course>94.38</course>
  <speed>0.01414213562373095</speed>
  <fix>3d</fix>
</trkpt>
<trkpt lat="-35.362881" lon="149.165222">
  <ele>582.09</ele>
  <time>2026-08-28T19:09:44Z</time>
  <course>10.81</course>
  <speed>0.0</speed>
  <fix>3d</fix>
</trkpt>
<trkpt lat="-35.3628811" lon="149.1652219">
  <ele>582.17</ele>
  <time>2026-08-28T19:09:44Z</time>
  <course>94.38</course>
  <speed>0.01414213562373095</speed>
  <fix>3d</fix>
</trkpt>
<trkpt lat="-35.362881" lon="149.165222">
  <ele>582.09</ele>
  <time>2026-08-28T19:09:44Z</time>
  <course>201.66</course>
  <speed>0.0</speed>
  <fix>3d</fix>
</trkpt>
<trkpt lat="-35.3628811" lon="149.1652219">
  <ele>582.17</ele>
  <time>2026-08-28T19:09:44Z</time>
  <course>94.37</course>
  <speed>0.01414213562373095</speed>
  <fix>3d</fix>
</trkpt>
<trkpt lat="-35.362881" lon="149.165222">
  <ele>582.09</ele>
  <time>2026-08-28T19:09:44Z</time>
  <course>180.64</course>
  <speed>0.0</speed>
  <fix>3d</fix>
</trkpt>
<trkpt lat="-35.362881" lon="149.1652219">
  <ele>582.18</ele>
  <time>2026-08-28T19:09:44Z</time>
  <course>94.37</course>
  <speed>0.01414213562373095</speed>
  <fix>3d</fix>
</trkpt>
<trkpt lat="-35.362881" lon="149.165222">
  <ele>582.09</ele>
  <time>2026-08-28T19:09:44Z</time>
  <course>120.67</course>
  <speed>0.0</speed>
  <fix>3d</fix>
</trkpt>
<trkpt lat="-35.362881" lon="149.1652219">
  <ele>582.18</ele>
  <time>2026-08-28T19:09:44Z</time>
  <course>94.36</course>
  <speed>0.01</speed>
  <fix>3d</fix>
</trkpt>
<trkpt lat="-35.362881" lon="149.165222">
  <ele>582.09</ele>
  <time>2026-08-28T19:09:44Z</time>
  <course>0.83</course>
  <speed>0.0</speed>
  <fix>3d</fix>
</trkpt>
<trkpt lat="-35.362881" lon="149.1652219">
  <ele>582.18</ele>
  <time>2026-08-28T19:09:44Z</time>
  <course>94.36</course>
  <speed>0.0</speed>
  <fix>3d</fix>
</trkpt>
<trkpt lat="-35.362881" lon="149.165222">
  <ele>582.09</ele>
  <time>2026-08-28T19:09:44Z</time>
  <course>355.16</course>
  <speed>0.0</speed>
  <fix>3d</fix>
</trkpt>
<trkpt lat="-35.362881" lon="149.1652219">
  <ele>582.18</ele>
  <time>2026-08-28T19:09:44Z</time>
  <course>94.35</course>
  <speed>0.0</speed>
  <fix>3d</fix>
</trkpt>
<trkpt lat="-35.362881" lon="149.165222">
  <ele>582.09</ele>
  <time>2026-08-28T19:09:44Z</time>
  <course>30.26</course>
  <speed>0.0</speed>
  <fix>3d</fix>
</trkpt>
<trkpt lat="-35.362881" lon="149.1652219">
  <ele>582.18</ele>
  <time>2026-08-28T19:09:44Z</time>
  <course>94.35</course>
  <speed>0.0</speed>
  <fix>3d</fix>
</trkpt>
<trkpt lat="-35.362881" lon="149.165222">
  <ele>582.09</ele>
  <time>2026-08-28T19:09:44Z</time>
  <course>17.8</course>
  <speed>0.0</speed>
  <fix>3d</fix>
</trkpt>
<trkpt lat="-35.362881" lon="149.1652219">
  <ele>582.18</ele>
  <time>2026-08-28T19:09:44Z</time>
  <course>94.34</course>
  <speed>0.0</speed>
  <fix>3d</fix>
</trkpt>
<trkpt lat="-35.362881" lon="149.165222">
  <ele>582.09</ele>
  <time>2026-08-28T19:09:44Z</time>
  <course>14.74</course>
  <speed>0.0</speed>
  <fix>3d</fix>
</trkpt>
<trkpt lat="-35.362881" lon="149.1652219">
  <ele>582.17</ele>
  <time>2026-08-28T19:09:44Z</time>
  <course>94.34</course>
  <speed>0.0</speed>
  <fix>3d</fix>
</trkpt>
<trkpt lat="-35.362881" lon="149.165222">
  <ele>582.09</ele>
  <time>2026-08-28T19:09:44Z</time>
  <course>16.14</course>
  <speed>0.0</speed>
  <fix>3d</fix>
</trkpt>
<trkpt lat="-35.362881" lon="149.1652219">
  <ele>582.17</ele>
  <time>2026-08-28T19:09:45Z</time>
  <course>94.33</course>
  <speed>0.0</speed>
  <fix>3d</fix>
</trkpt>
<trkpt lat="-35.362881" lon="149.165222">
  <ele>582.09</ele>
  <time>2026-08-28T19:09:45Z</time>
  <course>4.89</course>
  <speed>0.0</speed>
  <fix>3d</fix>
</trkpt>
<trkpt lat="-35.362881" lon="149.1652219">
  <ele>582.17</ele>
  <time>2026-08-28T19:09:45Z</time>
  <course>94.33</course>
  <speed>0.0</speed>
  <fix>3d</fix>
</trkpt>
<trkpt lat="-35.362881" lon="149.165222">
  <ele>582.09</ele>
  <time>2026-08-28T19:09:45Z</time>
  <course>14.03</course>
  <speed>0.0</speed>
  <fix>3d</fix>
</trkpt>
<trkpt lat="-35.362881" lon="149.1652219">
  <ele>582.17</ele>
  <time>2026-08-28T19:09:45Z</time>
  <course>94.32</course>
  <speed>0.0</speed>
  <fix>3d</fix>
</trkpt>
<trkpt lat="-35.362881" lon="149.165222">
  <ele>582.09</ele>
  <time>2026-08-28T19:09:45Z</time>
  <course>14.18</course>
  <speed>0.0</speed>
  <fix>3d</fix>
</trkpt>
<trkpt lat="-35.362881" lon="149.1652219">
  <ele>582.17</ele>
  <time>2026-08-28T19:09:45Z</time>
  <course>94.32</course>
  <speed>0.0</speed>
  <fix>3d</fix>
</trkpt>
<trkpt lat="-35.362881" lon="149.165222">
  <ele>582.09</ele>
  <time>2026-08-28T19:09:45Z</time>
  <course>12.64</course>
  <speed>0.0</speed>
  <fix>3d</fix>
</trkpt>
<trkpt lat="-35.362881" lon="149.1652219">
  <ele>582.17</ele>
  <time>2026-08-28T19:09:45Z</time>
  <course>94.31</course>
  <speed>0.0</speed>
  <fix>3d</fix>
</trkpt>
<trkpt lat="-35.362881" lon="149.165222">
  <ele>582.09</ele>
  <time>2026-08-28T19:09:45Z</time>
  <course>17.19</course>
  <speed>0.0</speed>
  <fix>3d</fix>
</trkpt>
<trkpt lat="-35.362881" lon="149.1652219">
  <ele>582.17</ele>
  <time>2026-08-28T19:09:45Z</time>
  <course>94.31</course>
  <speed>0.0</speed>
  <fix>3d</fix>
</trkpt>
<trkpt lat="-35.362881" lon="149.165222">
  <ele>582.09</ele>
  <time>2026-08-28T19:09:45Z</time>
  <course>10.01</course>
  <speed>0.0</speed>
  <fix>3d</fix>
</trkpt>
<trkpt lat="-35.362881" lon="149.1652219">
  <ele>582.17</ele>
  <time>2026-08-28T19:09:45Z</time>
  <course>94.31</course>
  <speed>0.0</speed>
  <fix>3d</fix>
</trkpt>
<trkpt lat="-35.362881" lon="149.165222">
  <ele>582.09</ele>
  <time>2026-08-28T19:09:45Z</time>
  <course>359.24</course>
  <speed>0.0</speed>
  <fix>3d</fix>
</trkpt>
<trkpt lat="-35.362881" lon="149.1652219">
  <ele>582.16</ele>
  <time>2026-08-28T19:09:45Z</time>
  <course>94.3</course>
  <speed>0.0</speed>
  <fix>3d</fix>
</trkpt>
<trkpt lat="-35.362881" lon="149.165222">
  <ele>582.09</ele>
  <time>2026-08-28T19:09:45Z</time>
  <course>310.35</course>
  <speed>0.0</speed>
  <fix>3d</fix>
</trkpt>
<trkpt lat="-35.362881" lon="149.1652219">
  <ele>582.16</ele>
  <time>2026-08-28T19:09:45Z</time>
  <course>94.3</course>
  <speed>0.0</speed>
  <fix>3d</fix>
</trkpt>
<trkpt lat="-35.362881" lon="149.165222">
  <ele>582.09</ele>
  <time>2026-08-28T19:09:45Z</time>
  <course>140.0</course>
  <speed>0.0</speed>
  <fix>3d</fix>
</trkpt>
<trkpt lat="-35.362881" lon="149.1652219">
  <ele>582.16</ele>
  <time>2026-08-28T19:09:45Z</time>
  <course>94.29</course>
  <speed>0.0</speed>
  <fix>3d</fix>
</trkpt>
<trkpt lat="-35.362881" lon="149.165222">
  <ele>582.09</ele>
  <time>2026-08-28T19:09:45Z</time>
  <course>18.01</course>
  <speed>0.0</speed>
  <fix>3d</fix>
</trkpt>
<trkpt lat="-35.362881" lon="149.1652219">
  <ele>582.16</ele>
  <time>2026-08-28T19:09:45Z</time>
  <course>94.29</course>
  <speed>0.0</speed>
  <fix>3d</fix>
</trkpt>
<trkpt lat="-35.362881" lon="149.165222">
  <ele>582.09</ele>
  <time>2026-08-28T19:09:45Z</time>
  <course>5.93</course>
  <speed>0.0</speed>
  <fix>3d</fix>
</trkpt>
<trkpt lat="-35.362881" lon="149.1652219">
  <ele>582.16</ele>
  <time>2026-08-28T19:09:45Z</time>
  <course>94.29</course>
  <speed>0.0</speed>
  <fix>3d</fix>
</trkpt>
<trkpt lat="-35.362881" lon="149.165222">
  <ele>582.09</ele>
  <time>2026-08-28T19:09:45Z</time>
  <course>10.33</course>
  <speed>0.0</speed>
  <fix>3d</fix>
</trkpt>
<trkpt lat="-35.362881" lon="149.1652219">
  <ele>582.16</ele>
  <time>2026-08-28T19:09:45Z</time>
  <course>94.28</course>
  <speed>0.0</speed>
  <fix>3d</fix>
</trkpt>
<trkpt lat="-35.362881" lon="149.165222">
  <ele>582.09</ele>
  <time>2026-08-28T19:09:45Z</time>
  <course>11.65</course>
  <speed>0.0</speed>
  <fix>3d</fix>
</trkpt>
<trkpt lat="-35.362881" lon="149.1652219">
  <ele>582.16</ele>
  <time>2026-08-28T19:09:45Z</time>
  <course>94.28</course>
  <speed>0.0</speed>
  <fix>3d</fix>
</trkpt>
<trkpt lat="-35.362881" lon="149.165222">
  <ele>582.09</ele>
  <time>2026-08-28T19:09:45Z</time>
  <course>10.72</course>
  <speed>0.0</speed>
  <fix>3d</fix>
</trkpt>
<trkpt lat="-35.362881" lon="149.1652219">
  <ele>582.16</ele>
  <time>2026-08-28T19:09:45Z</time>
  <course>94.27</course>
  <speed>0.0</speed>
  <fix>3d</fix>
</trkpt>
<trkpt lat="-35.362881" lon="149.165222">
  <ele>582.09</ele>
  <time>2026-08-28T19:09:45Z</time>
  <course>10.55</course>
  <speed>0.0</speed>
  <fix>3d</fix>
</trkpt>
<trkpt lat="-35.362881" lon="149.1652219">
  <ele>582.16</ele>
  <time>2026-08-28T19:09:45Z</time>
  <course>94.26</course>
  <speed>0.0</speed>
  <fix>3d</fix>
</trkpt>
<trkpt lat="-35.362881" lon="149.165222">
  <ele>582.09</ele>
  <time>2026-08-28T19:09:45Z</time>
  <course>10.57</course>
  <speed>0.0</speed>
  <fix>3d</fix>
</trkpt>
<trkpt lat="-35.362881" lon="149.1652219">
  <ele>582.16</ele>
  <time>2026-08-28T19:09:45Z</time>
  <course>94.25</course>
  <speed>0.0</speed>
  <fix>3d</fix>
</trkpt>
<trkpt lat="-35.362881" lon="149.165222">
  <ele>582.09</ele>
  <time>2026-08-28T19:09:45Z</time>
  <course>10.47</course>
  <speed>0.0</speed>
  <fix>3d</fix>
</trkpt>
<trkpt lat="-35.362881" lon="149.1652219">
  <ele>582.16</ele>
  <time>2026-08-28T19:09:45Z</time>
  <course>94.24</course>
  <speed>0.0</speed>
  <fix>3d</fix>
</trkpt>
<trkpt lat="-35.362881" lon="149.165222">
  <ele>582.09</ele>
  <time>2026-08-28T19:09:45Z</time>
  <course>10.36</course>
  <speed>0.0</speed>
  <fix>3d</fix>
</trkpt>
<trkpt lat="-35.362881" lon="149.1652219">
  <ele>582.16</ele>
  <time>2026-08-28T19:09:45Z</time>
  <course>94.23</course>
  <speed>0.0</speed>
  <fix>3d</fix>
</trkpt>
<trkpt lat="-35.362881" lon="149.165222">
  <ele>582.09</ele>
  <time>2026-08-28T19:09:45Z</time>
  <course>10.26</course>
  <speed>0.0</speed>
  <fix>3d</fix>
</trkpt>
<trkpt lat="-35.362881" lon="149.1652219">
  <ele>582.15</ele>
  <time>2026-08-28T19:09:45Z</time>
  <course>94.21</course>
  <speed>0.01</speed>
  <fix>3d</fix>
</trkpt>
<trkpt lat="-35.362881" lon="149.165222">
  <ele>582.09</ele>
  <time>2026-08-28T19:09:45Z</time>
  <course>10.15</course>
  <speed>0.0</speed>
  <fix>3d</fix>
</trkpt>
<trkpt lat="-35.362881" lon="149.1652219">
  <ele>582.16</ele>
  <time>2026-08-28T19:09:45Z</time>
  <course>94.2</course>
  <speed>0.01</speed>
  <fix>3d</fix>
</trkpt>
<trkpt lat="-35.362881" lon="149.165222">
  <ele>582.09</ele>
  <time>2026-08-28T19:09:45Z</time>
  <course>75.35</course>
  <speed>0.0</speed>
  <fix>3d</fix>
</trkpt>
<trkpt lat="-35.362881" lon="149.1652219">
  <ele>582.16</ele>
  <time>2026-08-28T19:09:45Z</time>
  <course>94.18</course>
  <speed>0.01414213562373095</speed>
  <fix>3d</fix>
</trkpt>
<trkpt lat="-35.362881" lon="149.165222">
  <ele>582.09</ele>
  <time>2026-08-28T19:09:45Z</time>
  <course>54.62</course>
  <speed>0.0</speed>
  <fix>3d</fix>
</trkpt>
<trkpt lat="-35.362881" lon="149.1652219">
  <ele>582.16</ele>
  <time>2026-08-28T19:09:45Z</time>
  <course>94.16</course>
  <speed>0.01414213562373095</speed>
  <fix>3d</fix>
</trkpt>
<trkpt lat="-35.362881" lon="149.165222">
  <ele>582.09</ele>
  <time>2026-08-28T19:09:45Z</time>
  <course>21.52</course>
  <speed>0.0</speed>
  <fix>3d</fix>
</trkpt>
<trkpt lat="-35.362881" lon="149.1652219">
  <ele>582.16</ele>
  <time>2026-08-28T19:09:45Z</time>
  <course>94.14</course>
  <speed>0.01414213562373095</speed>
  <fix>3d</fix>
</trkpt>
<trkpt lat="-35.362881" lon="149.165222">
  <ele>582.09</ele>
  <time>2026-08-28T19:09:45Z</time>
  <course>333.86</course>
  <speed>0.0</speed>
  <fix>3d</fix>
</trkpt>
<trkpt lat="-35.362881" lon="149.1652219">
  <ele>582.16</ele>
  <time>2026-08-28T19:09:45Z</time>
  <course>94.12</course>
  <speed>0.01414213562373095</speed>
  <fix>3d</fix>
</trkpt>
<trkpt lat="-35.362881" lon="149.165222">
  <ele>582.09</ele>
  <time>2026-08-28T19:09:45Z</time>
  <course>7.63</course>
  <speed>0.0</speed>
  <fix>3d</fix>
</trkpt>
<trkpt lat="-35.362881" lon="149.1652219">
  <ele>582.16</ele>
  <time>2026-08-28T19:09:45Z</time>
  <course>94.1</course>
  <speed>0.01414213562373095</speed>
  <fix>3d</fix>
</trkpt>
<trkpt lat="-35.362881" lon="149.165222">
  <ele>582.09</ele>
  <time>2026-08-28T19:09:45Z</time>
  <course>14.44</course>
  <speed>0.0</speed>
  <fix>3d</fix>
</trkpt>
<trkpt lat="-35.362881" lon="149.1652219">
  <ele>582.17</ele>
  <time>2026-08-28T19:09:45Z</time>
  <course>94.07</course>
  <speed>0.01414213562373095</speed>
  <fix>3d</fix>
</trkpt>
<trkpt lat="-35.362881" lon="149.165222">
  <ele>582.09</ele>
  <time>2026-08-28T19:09:45Z</time>
  <course>4.58</course>
  <speed>0.0</speed>
  <fix>3d</fix>
</trkpt>
<trkpt lat="-35.362881" lon="149.1652219">
  <ele>582.17</ele>
  <time>2026-08-28T19:09:45Z</time>
  <course>94.05</course>
  <speed>0.01414213562373095</speed>
  <fix>3d</fix>
</trkpt>
<trkpt lat="-35.362881" lon="149.165222">
  <ele>582.09</ele>
  <time>2026-08-28T19:09:45Z</time>
  <course>2.19</course>
  <speed>0.0</speed>
  <fix>3d</fix>
</trkpt>
<trkpt lat="-35.362881" lon="149.1652219">
  <ele>582.17</ele>
  <time>2026-08-28T19:09:45Z</time>
  <course>94.02</course>
  <speed>0.01414213562373095</speed>
  <fix>3d</fix>
</trkpt>
<trkpt lat="-35.362881" lon="149.165222">
  <ele>582.09</ele>
  <time>2026-08-28T19:09:45Z</time>
  <course>2.84</course>
  <speed>0.0</speed>
  <fix>3d</fix>
</trkpt>
<trkpt lat="-35.362881" lon="149.1652219">
  <ele>582.17</ele>
  <time>2026-08-28T19:09:45Z</time>
  <course>93.99</course>
  <speed>0.01414213562373095</speed>
  <fix>3d</fix>
</trkpt>
<trkpt lat="-35.362881" lon="149.165222">
  <ele>582.09</ele>
  <time>2026-08-28T19:09:45Z</time>
  <course>5.35</course>
  <speed>0.0</speed>
  <fix>3d</fix>
</trkpt>
<trkpt lat="-35.362881" lon="149.1652219">
  <ele>582.17</ele>
  <time>2026-08-28T19:09:45Z</time>
  <course>93.96</course>
  <speed>0.01414213562373095</speed>
  <fix>3d</fix>
</trkpt>
<trkpt lat="-35.362881" lon="149.165222">
  <ele>582.09</ele>
  <time>2026-08-28T19:09:45Z</time>
  <course>1.39</course>
  <speed>0.0</speed>
  <fix>3d</fix>
</trkpt>
<trkpt lat="-35.362881" lon="149.1652219">
  <ele>582.17</ele>
  <time>2026-08-28T19:09:45Z</time>
  <course>93.93</course>
  <speed>0.01414213562373095</speed>
  <fix>3d</fix>
</trkpt>
<trkpt lat="-35.362881" lon="149.165222">
  <ele>582.09</ele>
  <time>2026-08-28T19:09:45Z</time>
  <course>6.99</course>
  <speed>0.0</speed>
  <fix>3d</fix>
</trkpt>
<trkpt lat="-35.362881" lon="149.1652219">
  <ele>582.17</ele>
  <time>2026-08-28T19:09:45Z</time>
  <course>93.9</course>
  <speed>0.01414213562373095</speed>
  <fix>3d</fix>
</trkpt>
<trkpt lat="-35.362881" lon="149.165222">
  <ele>582.09</ele>
  <time>2026-08-28T19:09:45Z</time>
  <course>0.98</course>
  <speed>0.0</speed>
  <fix>3d</fix>
</trkpt>
<trkpt lat="-35.362881" lon="149.1652219">
  <ele>582.17</ele>
  <time>2026-08-28T19:09:45Z</time>
  <course>93.86</course>
  <speed>0.01414213562373095</speed>
  <fix>3d</fix>
</trkpt>
<trkpt lat="-35.362881" lon="149.165222">
  <ele>582.09</ele>
  <time>2026-08-28T19:09:45Z</time>
  <course>353.9</course>
  <speed>0.0</speed>
  <fix>3d</fix>
</trkpt>
<trkpt lat="-35.362881" lon="149.1652219">
  <ele>582.17</ele>
  <time>2026-08-28T19:09:45Z</time>
  <course>93.83</course>
  <speed>0.022360679774997897</speed>
  <fix>3d</fix>
</trkpt>
<trkpt lat="-35.362881" lon="149.165222">
  <ele>582.09</ele>
  <time>2026-08-28T19:09:45Z</time>
  <course>0.49</course>
  <speed>0.0</speed>
  <fix>3d</fix>
</trkpt>
<trkpt lat="-35.3628811" lon="149.1652219">
  <ele>582.17</ele>
  <time>2026-08-28T19:09:45Z</time>
  <course>93.79</course>
  <speed>0.022360679774997897</speed>
  <fix>3d</fix>
</trkpt>
<trkpt lat="-35.362881" lon="149.165222">
  <ele>582.09</ele>
  <time>2026-08-28T19:09:45Z</time>
  <course>3.74</course>
  <speed>0.0</speed>
  <fix>3d</fix>
</trkpt>
<trkpt lat="-35.3628811" lon="149.1652219">
  <ele>582.17</ele>
  <time>2026-08-28T19:09:45Z</time>
  <course>93.76</course>
  <speed>0.022360679774997897</speed>
  <fix>3d</fix>
</trkpt>
<trkpt lat="-35.362881" lon="149.165222">
  <ele>582.09</ele>
  <time>2026-08-28T19:09:45Z</time>
  <course>0.27</course>
  <speed>0.0</speed>
  <fix>3d</fix>
</trkpt>
<trkpt lat="-35.3628811" lon="149.1652219">
  <ele>582.17</ele>
  <time>2026-08-28T19:09:45Z</time>
  <course>93.72</course>
  <speed>0.022360679774997897</speed>
  <fix>3d</fix>
</trkpt>
<trkpt lat="-35.362881" lon="149.165222">
  <ele>582.09</ele>
  <time>2026-08-28T19:09:45Z</time>
  <course>0.08</course>
  <speed>0.0</speed>
  <fix>3d</fix>
</trkpt>
<trkpt lat="-35.3628811" lon="149.1652219">
  <ele>582.17</ele>
  <time>2026-08-28T19:09:45Z</time>
  <course>93.68</course>
  <speed>0.022360679774997897</speed>
  <fix>3d</fix>
</trkpt>
<trkpt lat="-35.362881" lon="149.165222">
  <ele>582.09</ele>
  <time>2026-08-28T19:09:45Z</time>
  <course>0.44</course>
  <speed>0.0</speed>
  <fix>3d</fix>
</trkpt>
<trkpt lat="-35.3628811" lon="149.1652219">
  <ele>582.17</ele>
  <time>2026-08-28T19:09:45Z</time>
  <course>93.64</course>
  <speed>0.022360679774997897</speed>
  <fix>3d</fix>
</trkpt>
<trkpt lat="-35.362881" lon="149.165222">
  <ele>582.09</ele>
  <time>2026-08-28T19:09:45Z</time>
  <course>0.04</course>
  <speed>0.0</speed>
  <fix>3d</fix>
</trkpt>
<trkpt lat="-35.3628811" lon="149.1652219">
  <ele>582.17</ele>
  <time>2026-08-28T19:09:45Z</time>
  <course>93.6</course>
  <speed>0.022360679774997897</speed>
  <fix>3d</fix>
</trkpt>
<trkpt lat="-35.362881" lon="149.165222">
  <ele>582.09</ele>
  <time>2026-08-28T19:09:45Z</time>
  <course>0.08</course>
  <speed>0.0</speed>
  <fix>3d</fix>
</trkpt>
<trkpt lat="-35.3628811" lon="149.1652219">
  <ele>582.17</ele>
  <time>2026-08-28T19:09:45Z</time>
  <course>93.56</course>
  <speed>0.022360679774997897</speed>
  <fix>3d</fix>
</trkpt>
<trkpt lat="-35.362881" lon="149.165222">
  <ele>582.09</ele>
  <time>2026-08-28T19:09:45Z</time>
  <course>359.82</course>
  <speed>0.0</speed>
  <fix>3d</fix>
</trkpt>
<trkpt lat="-35.3628811" lon="149.1652219">
  <ele>582.17</ele>
  <time>2026-08-28T19:09:45Z</time>
  <course>93.51</course>
  <speed>0.0282842712474619</speed>
  <fix>3d</fix>
</trkpt>
<trkpt lat="-35.362881" lon="149.165222">
  <ele>582.09</ele>
  <time>2026-08-28T19:09:45Z</time>
  <course>359.71</course>
  <speed>0.0</speed>
  <fix>3d</fix>
</trkpt>
<trkpt lat="-35.3628811" lon="149.1652219">
  <ele>582.17</ele>
  <time>2026-08-28T19:09:45Z</time>
  <course>93.47</course>
  <speed>0.0282842712474619</speed>
  <fix>3d</fix>
</trkpt>
<trkpt lat="-35.362881" lon="149.165222">
  <ele>582.09</ele>
  <time>2026-08-28T19:09:45Z</time>
  <course>359.58</course>
  <speed>0.0</speed>
  <fix>3d</fix>
</trkpt>
<trkpt lat="-35.3628811" lon="149.1652219">
  <ele>582.17</ele>
  <time>2026-08-28T19:09:45Z</time>
  <course>93.42</course>
  <speed>0.0282842712474619</speed>
  <fix>3d</fix>
</trkpt>
<trkpt lat="-35.362881" lon="149.165222">
  <ele>582.09</ele>
  <time>2026-08-28T19:09:45Z</time>
  <course>359.49</course>
  <speed>0.0</speed>
  <fix>3d</fix>
</trkpt>
<trkpt lat="-35.3628811" lon="149.1652219">
  <ele>582.17</ele>
  <time>2026-08-28T19:09:45Z</time>
  <course>93.38</course>
  <speed>0.0282842712474619</speed>
  <fix>3d</fix>
</trkpt>
<trkpt lat="-35.362881" lon="149.165222">
  <ele>582.09</ele>
  <time>2026-08-28T19:09:45Z</time>
  <course>359.44</course>
  <speed>0.0</speed>
  <fix>3d</fix>
</trkpt>
<trkpt lat="-35.3628811" lon="149.1652219">
  <ele>582.16</ele>
  <time>2026-08-28T19:09:45Z</time>
  <course>93.33</course>
  <speed>0.0282842712474619</speed>
  <fix>3d</fix>
</trkpt>
<trkpt lat="-35.362881" lon="149.165222">
  <ele>582.09</ele>
  <time>2026-08-28T19:09:45Z</time>
  <course>359.3</course>
  <speed>0.0</speed>
  <fix>3d</fix>
</trkpt>
<trkpt lat="-35.3628811" lon="149.1652219">
  <ele>582.16</ele>
  <time>2026-08-28T19:09:45Z</time>
  <course>93.28</course>
  <speed>0.0282842712474619</speed>
  <fix>3d</fix>
</trkpt>
<trkpt lat="-35.362881" lon="149.165222">
  <ele>582.09</ele>
  <time>2026-08-28T19:09:45Z</time>
  <course>359.21</course>
  <speed>0.0</speed>
  <fix>3d</fix>
</trkpt>
<trkpt lat="-35.3628811" lon="149.1652219">
  <ele>582.16</ele>
  <time>2026-08-28T19:09:45Z</time>
  <course>93.24</course>
  <speed>0.0282842712474619</speed>
  <fix>3d</fix>
</trkpt>
<trkpt lat="-35.362881" lon="149.165222">
  <ele>582.09</ele>
  <time>2026-08-28T19:09:45Z</time>
  <course>359.11</course>
  <speed>0.0</speed>
  <fix>3d</fix>
</trkpt>
<trkpt lat="-35.3628811" lon="149.1652218">
  <ele>582.16</ele>
  <time>2026-08-28T19:09:45Z</time>
  <course>93.19</course>
  <speed>0.0282842712474619</speed>
  <fix>3d</fix>
</trkpt>
<trkpt lat="-35.362881" lon="149.165222">
  <ele>582.09</ele>
  <time>2026-08-28T19:09:45Z</time>
  <course>359.01</course>
  <speed>0.0</speed>
  <fix>3d</fix>
</trkpt>
<trkpt lat="-35.3628811" lon="149.1652218">
  <ele>582.16</ele>
  <time>2026-08-28T19:09:45Z</time>
  <course>93.14</course>
  <speed>0.0282842712474619</speed>
  <fix>3d</fix>
</trkpt>
<trkpt lat="-35.362881" lon="149.165222">
  <ele>582.09</ele>
  <time>2026-08-28T19:09:45Z</time>
  <course>358.91</course>
  <speed>0.0</speed>
  <fix>3d</fix>
</trkpt>
<trkpt lat="-35.3628811" lon="149.1652218">
  <ele>582.16</ele>
  <time>2026-08-28T19:09:45Z</time>
  <course>93.09</course>
  <speed>0.0282842712474619</speed>
  <fix>3d</fix>
</trkpt>
<trkpt lat="-35.362881" lon="149.165222">
  <ele>582.09</ele>
  <time>2026-08-28T19:09:45Z</time>
  <course>358.83</course>
  <speed>0.0</speed>
  <fix>3d</fix>
</trkpt>
<trkpt lat="-35.3628811" lon="149.1652218">
  <ele>582.16</ele>
  <time>2026-08-28T19:09:45Z</time>
  <course>93.04</course>
  <speed>0.0282842712474619</speed>
  <fix>3d</fix>
</trkpt>
<trkpt lat="-35.362881" lon="149.165222">
  <ele>582.09</ele>
  <time>2026-08-28T19:09:45Z</time>
  <course>358.73</course>
  <speed>0.0</speed>
  <fix>3d</fix>
</trkpt>
<trkpt lat="-35.3628811" lon="149.1652218">
  <ele>582.16</ele>
  <time>2026-08-28T19:09:45Z</time>
  <course>92.99</course>
  <speed>0.0282842712474619</speed>
  <fix>3d</fix>
</trkpt>
<trkpt lat="-35.362881" lon="149.165222">
  <ele>582.09</ele>
  <time>2026-08-28T19:09:45Z</time>
  <course>358.62</course>
  <speed>0.0</speed>
  <fix>3d</fix>
</trkpt>
<trkpt lat="-35.3628811" lon="149.1652218">
  <ele>582.17</ele>
  <time>2026-08-28T19:09:45Z</time>
  <course>92.94</course>
  <speed>0.0282842712474619</speed>
  <fix>3d</fix>
</trkpt>
<trkpt lat="-35.362881" lon="149.165222">
  <ele>582.09</ele>
  <time>2026-08-28T19:09:45Z</time>
  <course>358.51</course>
  <speed>0.0</speed>
  <fix>3d</fix>
</trkpt>
<trkpt lat="-35.3628811" lon="149.1652218">
  <ele>582.17</ele>
  <time>2026-08-28T19:09:45Z</time>
  <course>92.89</course>
  <speed>0.0282842712474619</speed>
  <fix>3d</fix>
</trkpt>
<trkpt lat="-35.362881" lon="149.165222">
  <ele>582.09</ele>
  <time>2026-08-28T19:09:45Z</time>
  <course>358.44</course>
  <speed>0.0</speed>
  <fix>3d</fix>
</trkpt>
<trkpt lat="-35.3628811" lon="149.1652218">
  <ele>582.17</ele>
  <time>2026-08-28T19:09:45Z</time>
  <course>92.84</course>
  <speed>0.0282842712474619</speed>
  <fix>3d</fix>
</trkpt>
<trkpt lat="-35.362881" lon="149.165222">
  <ele>582.09</ele>
  <time>2026-08-28T19:09:45Z</time>
  <course>358.36</course>
  <speed>0.0</speed>
  <fix>3d</fix>
</trkpt>
<trkpt lat="-35.3628811" lon="149.1652218">
  <ele>582.17</ele>
  <time>2026-08-28T19:09:45Z</time>
  <course>92.79</course>
  <speed>0.0282842712474619</speed>
  <fix>3d</fix>
</trkpt>
<trkpt lat="-35.362881" lon="149.165222">
  <ele>582.09</ele>
  <time>2026-08-28T19:09:45Z</time>
  <course>358.29</course>
  <speed>0.0</speed>
  <fix>3d</fix>
</trkpt>
<trkpt lat="-35.3628811" lon="149.1652218">
  <ele>582.18</ele>
  <time>2026-08-28T19:09:45Z</time>
  <course>92.75</course>
  <speed>0.0282842712474619</speed>
  <fix>3d</fix>
</trkpt>
<trkpt lat="-35.362881" lon="149.165222">
  <ele>582.09</ele>
  <time>2026-08-28T19:09:45Z</time>
  <course>358.23</course>
  <speed>0.0</speed>
  <fix>3d</fix>
</trkpt>
<trkpt lat="-35.3628811" lon="149.1652218">
  <ele>582.18</ele>
  <time>2026-08-28T19:09:45Z</time>
  <course>92.7</course>
  <speed>0.0282842712474619</speed>
  <fix>3d</fix>
</trkpt>
<trkpt lat="-35.362881" lon="149.165222">
  <ele>582.09</ele>
  <time>2026-08-28T19:09:45Z</time>
  <course>358.09</course>
  <speed>0.0</speed>
  <fix>3d</fix>
</trkpt>
<trkpt lat="-35.3628811" lon="149.1652218">
  <ele>582.18</ele>
  <time>2026-08-28T19:09:45Z</time>
  <course>92.66</course>
  <speed>0.0282842712474619</speed>
  <fix>3d</fix>
</trkpt>
<trkpt lat="-35.362881" lon="149.165222">
  <ele>582.09</ele>
  <time>2026-08-28T19:09:45Z</time>
  <course>358.05</course>
  <speed>0.0</speed>
  <fix>3d</fix>
</trkpt>
<trkpt lat="-35.3628811" lon="149.1652218">
  <ele>582.18</ele>
  <time>2026-08-28T19:09:45Z</time>
  <course>92.61</course>
  <speed>0.0282842712474619</speed>
  <fix>3d</fix>
</trkpt>
<trkpt lat="-35.362881" lon="149.165222">
  <ele>582.09</ele>
  <time>2026-08-28T19:09:45Z</time>
  <course>358.04</course>
  <speed>0.0</speed>
  <fix>3d</fix>
</trkpt>
<trkpt lat="-35.3628811" lon="149.1652218">
  <ele>582.18</ele>
  <time>2026-08-28T19:09:45Z</time>
  <course>92.57</course>
  <speed>0.0282842712474619</speed>
  <fix>3d</fix>
</trkpt>
<trkpt lat="-35.362881" lon="149.165222">
  <ele>582.09</ele>
  <time>2026-08-28T19:09:45Z</time>
  <course>357.97</course>
  <speed>0.0</speed>
  <fix>3d</fix>
</trkpt>
<trkpt lat="-35.3628811" lon="149.1652218">
  <ele>582.19</ele>
  <time>2026-08-28T19:09:45Z</time>
  <course>92.52</course>
  <speed>0.0282842712474619</speed>
  <fix>3d</fix>
</trkpt>
<trkpt lat="-35.362881" lon="149.165222">
  <ele>582.09</ele>
  <time>2026-08-28T19:09:45Z</time>
  <course>357.94</course>
  <speed>0.0</speed>
  <fix>3d</fix>
</trkpt>
<trkpt lat="-35.3628811" lon="149.1652218">
  <ele>582.19</ele>
  <time>2026-08-28T19:09:45Z</time>
  <course>92.48</course>
  <speed>0.022360679774997897</speed>
  <fix>3d</fix>
</trkpt>
<trkpt lat="-35.362881" lon="149.165222">
  <ele>582.09</ele>
  <time>2026-08-28T19:09:45Z</time>
  <course>353.5</course>
  <speed>0.0</speed>
  <fix>3d</fix>
</trkpt>
<trkpt lat="-35.3628811" lon="149.1652218">
  <ele>582.19</ele>
  <time>2026-08-28T19:09:45Z</time>
  <course>92.44</course>
  <speed>0.0282842712474619</speed>
  <fix>3d</fix>
</trkpt>
<trkpt lat="-35.362881" lon="149.165222">
  <ele>582.09</ele>
  <time>2026-08-28T19:09:45Z</time>
  <course>357.24</course>
  <speed>0.0</speed>
  <fix>3d</fix>
</trkpt>
<trkpt lat="-35.3628811" lon="149.1652218">
  <ele>582.19</ele>
  <time>2026-08-28T19:09:45Z</time>
  <course>92.4</course>
  <speed>0.022360679774997897</speed>
  <fix>3d</fix>
</trkpt>
<trkpt lat="-35.362881" lon="149.165222">
  <ele>582.09</ele>
  <time>2026-08-28T19:09:45Z</time>
  <course>1.03</course>
  <speed>0.0</speed>
  <fix>3d</fix>
</trkpt>
<trkpt lat="-35.3628811" lon="149.1652218">
  <ele>582.19</ele>
  <time>2026-08-28T19:09:45Z</time>
  <course>92.35</course>
  <speed>0.022360679774997897</speed>
  <fix>3d</fix>
</trkpt>
<trkpt lat="-35.362881" lon="149.165222">
  <ele>582.09</ele>
  <time>2026-08-28T19:09:45Z</time>
  <course>357.62</course>
  <speed>0.0</speed>
  <fix>3d</fix>
</trkpt>
<trkpt lat="-35.3628811" lon="149.1652218">
  <ele>582.19</ele>
  <time>2026-08-28T19:09:45Z</time>
  <course>92.31</course>
  <speed>0.022360679774997897</speed>
  <fix>3d</fix>
</trkpt>
<trkpt lat="-35.362881" lon="149.165222">
  <ele>582.09</ele>
  <time>2026-08-28T19:09:45Z</time>
  <course>357.05</course>
  <speed>0.0</speed>
  <fix>3d</fix>
</trkpt>
<trkpt lat="-35.3628811" lon="149.1652218">
  <ele>582.18</ele>
  <time>2026-08-28T19:09:45Z</time>
  <course>92.27</course>
  <speed>0.022360679774997897</speed>
  <fix>3d</fix>
</trkpt>
<trkpt lat="-35.362881" lon="149.165222">
  <ele>582.09</ele>
  <time>2026-08-28T19:09:45Z</time>
  <course>357.77</course>
  <speed>0.0</speed>
  <fix>3d</fix>
</trkpt>
<trkpt lat="-35.3628811" lon="149.1652218">
  <ele>582.18</ele>
  <time>2026-08-28T19:09:45Z</time>
  <course>92.24</course>
  <speed>0.022360679774997897</speed>
  <fix>3d</fix>
</trkpt>
<trkpt lat="-35.362881" lon="149.165222">
  <ele>582.09</ele>
  <time>2026-08-28T19:09:45Z</time>
  <course>357.63</course>
  <speed>0.0</speed>
  <fix>3d</fix>
</trkpt>
<trkpt lat="-35.3628811" lon="149.1652218">
  <ele>582.18</ele>
  <time>2026-08-28T19:09:45Z</time>
  <course>92.2</course>
  <speed>0.022360679774997897</speed>
  <fix>3d</fix>
</trkpt>
<trkpt lat="-35.362881" lon="149.165222">
  <ele>582.09</ele>
  <time>2026-08-28T19:09:45Z</time>
  <course>357.56</course>
  <speed>0.0</speed>
  <fix>3d</fix>
</trkpt>
<trkpt lat="-35.3628811" lon="149.1652218">
  <ele>582.18</ele>
  <time>2026-08-28T19:09:45Z</time>
  <course>92.16</course>
  <speed>0.022360679774997897</speed>
  <fix>3d</fix>
</trkpt>
<trkpt lat="-35.362881" lon="149.165222">
  <ele>582.09</ele>
  <time>2026-08-28T19:09:45Z</time>
  <course>357.65</course>
  <speed>0.0</speed>
  <fix>3d</fix>
</trkpt>
<trkpt lat="-35.3628811" lon="149.1652218">
  <ele>582.18</ele>
  <time>2026-08-28T19:09:45Z</time>
  <course>92.12</course>
  <speed>0.022360679774997897</speed>
  <fix>3d</fix>
</trkpt>
<trkpt lat="-35.362881" lon="149.165222">
  <ele>582.09</ele>
  <time>2026-08-28T19:09:45Z</time>
  <course>357.2</course>
  <speed>0.0</speed>
  <fix>3d</fix>
</trkpt>
<trkpt lat="-35.3628811" lon="149.1652218">
  <ele>582.18</ele>
  <time>2026-08-28T19:09:45Z</time>
  <course>92.08</course>
  <speed>0.022360679774997897</speed>
  <fix>3d</fix>
</trkpt>
<trkpt lat="-35.362881" lon="149.165222">
  <ele>582.09</ele>
  <time>2026-08-28T19:09:45Z</time>
  <course>357.42</course>
  <speed>0.0</speed>
  <fix>3d</fix>
</trkpt>
<trkpt lat="-35.3628811" lon="149.1652218">
  <ele>582.19</ele>
  <time>2026-08-28T19:09:45Z</time>
  <course>92.05</course>
  <speed>0.022360679774997897</speed>
  <fix>3d</fix>
</trkpt>
<trkpt lat="-35.362881" lon="149.165222">
  <ele>582.09</ele>
  <time>2026-08-28T19:09:45Z</time>
  <course>357.45</course>
  <speed>0.0</speed>
  <fix>3d</fix>
</trkpt>
<trkpt lat="-35.3628811" lon="149.1652218">
  <ele>582.19</ele>
  <time>2026-08-28T19:09:45Z</time>
  <course>92.01</course>
  <speed>0.022360679774997897</speed>
  <fix>3d</fix>
</trkpt>
<trkpt lat="-35.362881" lon="149.165222">
  <ele>582.09</ele>
  <time>2026-08-28T19:09:45Z</time>
  <course>357.32</course>
  <speed>0.0</speed>
  <fix>3d</fix>
</trkpt>
<trkpt lat="-35.3628811" lon="149.1652218">
  <ele>582.19</ele>
  <time>2026-08-28T19:09:45Z</time>
  <course>91.97</course>
  <speed>0.022360679774997897</speed>
  <fix>3d</fix>
</trkpt>
<trkpt lat="-35.362881" lon="149.165222">
  <ele>582.09</ele>
  <time>2026-08-28T19:09:45Z</time>
  <course>357.43</course>
  <speed>0.0</speed>
  <fix>3d</fix>
</trkpt>
<trkpt lat="-35.3628811" lon="149.1652218">
  <ele>582.19</ele>
  <time>2026-08-28T19:09:45Z</time>
  <course>91.94</course>
  <speed>0.022360679774997897</speed>
  <fix>3d</fix>
</trkpt>
<trkpt lat="-35.362881" lon="149.165222">
  <ele>582.09</ele>
  <time>2026-08-28T19:09:45Z</time>
  <course>357.14</course>
  <speed>0.0</speed>
  <fix>3d</fix>
</trkpt>
<trkpt lat="-35.3628811" lon="149.1652218">
  <ele>582.19</ele>
  <time>2026-08-28T19:09:45Z</time>
  <course>91.9</course>
  <speed>0.022360679774997897</speed>
  <fix>3d</fix>
</trkpt>
<trkpt lat="-35.362881" lon="149.165222">
  <ele>582.09</ele>
  <time>2026-08-28T19:09:45Z</time>
  <course>357.27</course>
  <speed>0.0</speed>
  <fix>3d</fix>
</trkpt>
<trkpt lat="-35.3628811" lon="149.1652218">
  <ele>582.19</ele>
  <time>2026-08-28T19:09:45Z</time>
  <course>91.87</course>
  <speed>0.022360679774997897</speed>
  <fix>3d</fix>
</trkpt>
<trkpt lat="-35.362881" lon="149.165222">
  <ele>582.09</ele>
  <time>2026-08-28T19:09:45Z</time>
  <course>357.34</course>
  <speed>0.0</speed>
  <fix>3d</fix>
</trkpt>
<trkpt lat="-35.3628811" lon="149.1652218">
  <ele>582.18</ele>
  <time>2026-08-28T19:09:45Z</time>
  <course>91.84</course>
  <speed>0.022360679774997897</speed>
  <fix>3d</fix>
</trkpt>
<trkpt lat="-35.362881" lon="149.165222">
  <ele>582.09</ele>
  <time>2026-08-28T19:09:45Z</time>
  <course>356.83</course>
  <speed>0.0</speed>
  <fix>3d</fix>
</trkpt>
<trkpt lat="-35.3628811" lon="149.1652218">
  <ele>582.18</ele>
  <time>2026-08-28T19:09:45Z</time>
  <course>91.8</course>
  <speed>0.022360679774997897</speed>
  <fix>3d</fix>
</trkpt>
<trkpt lat="-35.362881" lon="149.165222">
  <ele>582.09</ele>
  <time>2026-08-28T19:09:45Z</time>
  <course>357.19</course>
  <speed>0.0</speed>
  <fix>3d</fix>
</trkpt>
<trkpt lat="-35.3628811" lon="149.1652218">
  <ele>582.18</ele>
  <time>2026-08-28T19:09:45Z</time>
  <course>91.77</course>
  <speed>0.022360679774997897</speed>
  <fix>3d</fix>
</trkpt>
<trkpt lat="-35.362881" lon="149.165222">
  <ele>582.09</ele>
  <time>2026-08-28T19:09:45Z</time>
  <course>357.27</course>
  <speed>0.0</speed>
  <fix>3d</fix>
</trkpt>
<trkpt lat="-35.3628811" lon="149.1652218">
  <ele>582.18</ele>
  <time>2026-08-28T19:09:45Z</time>
  <course>91.74</course>
  <speed>0.022360679774997897</speed>
  <fix>3d</fix>
</trkpt>
<trkpt lat="-35.362881" lon="149.165222">
  <ele>582.09</ele>
  <time>2026-08-28T19:09:45Z</time>
  <course>356.81</course>
  <speed>0.0</speed>
  <fix>3d</fix>
</trkpt>
<trkpt lat="-35.3628811" lon="149.1652218">
  <ele>582.18</ele>
  <time>2026-08-28T19:09:45Z</time>
  <course>91.71</course>
  <speed>0.022360679774997897</speed>
  <fix>3d</fix>
</trkpt>
<trkpt lat="-35.362881" lon="149.165222">
  <ele>582.09</ele>
  <time>2026-08-28T19:09:45Z</time>
  <course>357.09</course>
  <speed>0.0</speed>
  <fix>3d</fix>
</trkpt>
<trkpt lat="-35.3628811" lon="149.1652218">
  <ele>582.18</ele>
  <time>2026-08-28T19:09:45Z</time>
  <course>91.67</course>
  <speed>0.022360679774997897</speed>
  <fix>3d</fix>
</trkpt>
<trkpt lat="-35.362881" lon="149.165222">
  <ele>582.09</ele>
  <time>2026-08-28T19:09:45Z</time>
  <course>357.15</course>
  <speed>0.0</speed>
  <fix>3d</fix>
</trkpt>
<trkpt lat="-35.3628811" lon="149.1652218">
  <ele>582.18</ele>
  <time>2026-08-28T19:09:45Z</time>
  <course>91.64</course>
  <speed>0.022360679774997897</speed>
  <fix>3d</fix>
</trkpt>
<trkpt lat="-35.362881" lon="149.165222">
  <ele>582.09</ele>
  <time>2026-08-28T19:09:45Z</time>
  <course>356.67</course>
  <speed>0.0</speed>
  <fix>3d</fix>
</trkpt>
<trkpt lat="-35.3628811" lon="149.1652218">
  <ele>582.17</ele>
  <time>2026-08-28T19:09:45Z</time>
  <course>91.61</course>
  <speed>0.022360679774997897</speed>
  <fix>3d</fix>
</trkpt>
<trkpt lat="-35.362881" lon="149.165222">
  <ele>582.09</ele>
  <time>2026-08-28T19:09:45Z</time>
  <course>356.97</course>
  <speed>0.0</speed>
  <fix>3d</fix>
</trkpt>
<trkpt lat="-35.3628811" lon="149.1652218">
  <ele>582.17</ele>
  <time>2026-08-28T19:09:45Z</time>
  <course>91.58</course>
  <speed>0.022360679774997897</speed>
  <fix>3d</fix>
</trkpt>
<trkpt lat="-35.362881" lon="149.165222">
  <ele>582.09</ele>
  <time>2026-08-28T19:09:45Z</time>
  <course>357.06</course>
  <speed>0.0</speed>
  <fix>3d</fix>
</trkpt>
<trkpt lat="-35.3628811" lon="149.1652218">
  <ele>582.17</ele>
  <time>2026-08-28T19:09:45Z</time>
  <course>91.55</course>
  <speed>0.01414213562373095</speed>
  <fix>3d</fix>
</trkpt>
<trkpt lat="-35.362881" lon="149.165222">
  <ele>582.09</ele>
  <time>2026-08-28T19:09:45Z</time>
  <course>356.66</course>
  <speed>0.0</speed>
  <fix>3d</fix>
</trkpt>
<trkpt lat="-35.3628811" lon="149.1652218">
  <ele>582.17</ele>
  <time>2026-08-28T19:09:45Z</time>
  <course>91.52</course>
  <speed>0.01414213562373095</speed>
  <fix>3d</fix>
</trkpt>
<trkpt lat="-35.362881" lon="149.165222">
  <ele>582.09</ele>
  <time>2026-08-28T19:09:45Z</time>
  <course>356.87</course>
  <speed>0.0</speed>
  <fix>3d</fix>
</trkpt>
<trkpt lat="-35.3628811" lon="149.1652218">
  <ele>582.17</ele>
  <time>2026-08-28T19:09:45Z</time>
  <course>91.49</course>
  <speed>0.01414213562373095</speed>
  <fix>3d</fix>
</trkpt>
<trkpt lat="-35.362881" lon="149.165222">
  <ele>582.09</ele>
  <time>2026-08-28T19:09:45Z</time>
  <course>356.99</course>
  <speed>0.0</speed>
  <fix>3d</fix>
</trkpt>
<trkpt lat="-35.3628811" lon="149.1652218">
  <ele>582.17</ele>
  <time>2026-08-28T19:09:45Z</time>
  <course>91.46</course>
  <speed>0.01414213562373095</speed>
  <fix>3d</fix>
</trkpt>
<trkpt lat="-35.362881" lon="149.165222">
  <ele>582.09</ele>
  <time>2026-08-28T19:09:45Z</time>
  <course>356.7</course>
  <speed>0.0</speed>
  <fix>3d</fix>
</trkpt>
<trkpt lat="-35.3628811" lon="149.1652218">
  <ele>582.17</ele>
  <time>2026-08-28T19:09:45Z</time>
  <course>91.43</course>
  <speed>0.01414213562373095</speed>
  <fix>3d</fix>
</trkpt>
<trkpt lat="-35.362881" lon="149.165222">
  <ele>582.09</ele>
  <time>2026-08-28T19:09:45Z</time>
  <course>356.3</course>
  <speed>0.0</speed>
  <fix>3d</fix>
</trkpt>
<trkpt lat="-35.3628811" lon="149.1652218">
  <ele>582.17</ele>
  <time>2026-08-28T19:09:45Z</time>
  <course>91.4</course>
  <speed>0.01414213562373095</speed>
  <fix>3d</fix>
</trkpt>
<trkpt lat="-35.362881" lon="149.165222">
  <ele>582.09</ele>
  <time>2026-08-28T19:09:45Z</time>
  <course>356.84</course>
  <speed>0.0</speed>
  <fix>3d</fix>
</trkpt>
<trkpt lat="-35.3628811" lon="149.1652218">
  <ele>582.17</ele>
  <time>2026-08-28T19:09:45Z</time>
  <course>91.37</course>
  <speed>0.01414213562373095</speed>
  <fix>3d</fix>
</trkpt>
<trkpt lat="-35.362881" lon="149.165222">
  <ele>582.09</ele>
  <time>2026-08-28T19:09:45Z</time>
  <course>356.84</course>
  <speed>0.0</speed>
  <fix>3d</fix>
</trkpt>
<trkpt lat="-35.3628811" lon="149.1652218">
  <ele>582.16</ele>
  <time>2026-08-28T19:09:46Z</time>
  <course>91.35</course>
  <speed>0.01414213562373095</speed>
  <fix>3d</fix>
</trkpt>
<trkpt lat="-35.362881" lon="149.165222">
  <ele>582.09</ele>
  <time>2026-08-28T19:09:46Z</time>
  <course>356.33</course>
  <speed>0.0</speed>
  <fix>3d</fix>
</trkpt>
<trkpt lat="-35.3628811" lon="149.1652218">
  <ele>582.16</ele>
  <time>2026-08-28T19:09:46Z</time>
  <course>91.32</course>
  <speed>0.01414213562373095</speed>
  <fix>3d</fix>
</trkpt>
<trkpt lat="-35.362881" lon="149.165222">
  <ele>582.09</ele>
  <time>2026-08-28T19:09:46Z</time>
  <course>356.66</course>
  <speed>0.0</speed>
  <fix>3d</fix>
</trkpt>
<trkpt lat="-35.3628811" lon="149.1652218">
  <ele>582.16</ele>
  <time>2026-08-28T19:09:46Z</time>
  <course>91.29</course>
  <speed>0.01414213562373095</speed>
  <fix>3d</fix>
</trkpt>
<trkpt lat="-35.362881" lon="149.165222">
  <ele>582.09</ele>
  <time>2026-08-28T19:09:46Z</time>
  <course>356.78</course>
  <speed>0.0</speed>
  <fix>3d</fix>
</trkpt>
<trkpt lat="-35.3628811" lon="149.1652218">
  <ele>582.16</ele>
  <time>2026-08-28T19:09:46Z</time>
  <course>91.26</course>
  <speed>0.01414213562373095</speed>
  <fix>3d</fix>
</trkpt>
<trkpt lat="-35.362881" lon="149.165222">
  <ele>582.09</ele>
  <time>2026-08-28T19:09:46Z</time>
  <course>356.54</course>
  <speed>0.0</speed>
  <fix>3d</fix>
</trkpt>
<trkpt lat="-35.3628811" lon="149.1652218">
  <ele>582.16</ele>
  <time>2026-08-28T19:09:46Z</time>
  <course>91.24</course>
  <speed>0.01414213562373095</speed>
  <fix>3d</fix>
</trkpt>
<trkpt lat="-35.362881" lon="149.165222">
  <ele>582.09</ele>
  <time>2026-08-28T19:09:46Z</time>
  <course>356.14</course>
  <speed>0.0</speed>
  <fix>3d</fix>
</trkpt>
<trkpt lat="-35.3628811" lon="149.1652218">
  <ele>582.16</ele>
  <time>2026-08-28T19:09:46Z</time>
  <course>91.21</course>
  <speed>0.01414213562373095</speed>
  <fix>3d</fix>
</trkpt>
<trkpt lat="-35.362881" lon="149.165222">
  <ele>582.09</ele>
  <time>2026-08-28T19:09:46Z</time>
  <course>356.65</course>
  <speed>0.0</speed>
  <fix>3d</fix>
</trkpt>
<trkpt lat="-35.3628811" lon="149.1652218">
  <ele>582.16</ele>
  <time>2026-08-28T19:09:46Z</time>
  <course>91.19</course>
  <speed>0.01414213562373095</speed>
  <fix>3d</fix>
</trkpt>
<trkpt lat="-35.362881" lon="149.165222">
  <ele>582.09</ele>
  <time>2026-08-28T19:09:46Z</time>
  <course>356.67</course>
  <speed>0.0</speed>
  <fix>3d</fix>
</trkpt>
<trkpt lat="-35.3628811" lon="149.1652218">
  <ele>582.16</ele>
  <time>2026-08-28T19:09:46Z</time>
  <course>91.16</course>
  <speed>0.01414213562373095</speed>
  <fix>3d</fix>
</trkpt>
<trkpt lat="-35.362881" lon="149.165222">
  <ele>582.09</ele>
  <time>2026-08-28T19:09:46Z</time>
  <course>356.24</course>
  <speed>0.0</speed>
  <fix>3d</fix>
</trkpt>
<trkpt lat="-35.3628811" lon="149.1652218">
  <ele>582.16</ele>
  <time>2026-08-28T19:09:46Z</time>
  <course>91.14</course>
  <speed>0.01414213562373095</speed>
  <fix>3d</fix>
</trkpt>
<trkpt lat="-35.362881" lon="149.165222">
  <ele>582.09</ele>
  <time>2026-08-28T19:09:46Z</time>
  <course>356.21</course>
  <speed>0.0</speed>
  <fix>3d</fix>
</trkpt>
<trkpt lat="-35.3628811" lon="149.1652218">
  <ele>582.16</ele>
  <time>2026-08-28T19:09:46Z</time>
  <course>91.11</course>
  <speed>0.01414213562373095</speed>
  <fix>3d</fix>
</trkpt>
<trkpt lat="-35.362881" lon="149.165222">
  <ele>582.09</ele>
  <time>2026-08-28T19:09:46Z</time>
  <course>356.57</course>
  <speed>0.0</speed>
  <fix>3d</fix>
</trkpt>
<trkpt lat="-35.3628811" lon="149.1652218">
  <ele>582.16</ele>
  <time>2026-08-28T19:09:46Z</time>
  <course>91.09</course>
  <speed>0.01414213562373095</speed>
  <fix>3d</fix>
</trkpt>
<trkpt lat="-35.362881" lon="149.165222">
  <ele>582.09</ele>
  <time>2026-08-28T19:09:46Z</time>
  <course>343.75</course>
  <speed>0.0</speed>
  <fix>3d</fix>
</trkpt>
<trkpt lat="-35.3628811" lon="149.1652218">
  <ele>582.16</ele>
  <time>2026-08-28T19:09:46Z</time>
  <course>91.07</course>
  <speed>0.01414213562373095</speed>
  <fix>3d</fix>
</trkpt>
<trkpt lat="-35.362881" lon="149.165222">
  <ele>582.09</ele>
  <time>2026-08-28T19:09:46Z</time>
  <course>319.8</course>
  <speed>0.0</speed>
  <fix>3d</fix>
</trkpt>
<trkpt lat="-35.3628811" lon="149.1652218">
  <ele>582.16</ele>
  <time>2026-08-28T19:09:46Z</time>
  <course>91.06</course>
  <speed>0.01414213562373095</speed>
  <fix>3d</fix>
</trkpt>
<trkpt lat="-35.362881" lon="149.165222">
  <ele>582.09</ele>
  <time>2026-08-28T19:09:46Z</time>
  <course>355.84</course>
  <speed>0.0</speed>
  <fix>3d</fix>
</trkpt>
<trkpt lat="-35.3628811" lon="149.1652218">
  <ele>582.15</ele>
  <time>2026-08-28T19:09:46Z</time>
  <course>91.04</course>
  <speed>0.01414213562373095</speed>
  <fix>3d</fix>
</trkpt>
<trkpt lat="-35.362881" lon="149.165222">
  <ele>582.09</ele>
  <time>2026-08-28T19:09:46Z</time>
  <course>357.96</course>
  <speed>0.0</speed>
  <fix>3d</fix>
</trkpt>
<trkpt lat="-35.3628811" lon="149.1652218">
  <ele>582.15</ele>
  <time>2026-08-28T19:09:46Z</time>
  <course>91.0</course>
  <speed>0.01414213562373095</speed>
  <fix>3d</fix>
</trkpt>
<trkpt lat="-35.362881" lon="149.165222">
  <ele>582.09</ele>
  <time>2026-08-28T19:09:46Z</time>
  <course>354.34</course>
  <speed>0.0</speed>
  <fix>3d</fix>
</trkpt>
<trkpt lat="-35.3628811" lon="149.1652218">
  <ele>582.16</ele>
  <time>2026-08-28T19:09:46Z</time>
  <course>90.94</course>
  <speed>0.01414213562373095</speed>
  <fix>3d</fix>
</trkpt>
<trkpt lat="-35.362881" lon="149.165222">
  <ele>582.09</ele>
  <time>2026-08-28T19:09:46Z</time>
  <course>354.92</course>
  <speed>0.0</speed>
  <fix>3d</fix>
</trkpt>
<trkpt lat="-35.3628811" lon="149.1652218">
  <ele>582.18</ele>
  <time>2026-08-28T19:09:46Z</time>
  <course>90.88</course>
  <speed>0.01414213562373095</speed>
  <fix>3d</fix>
</trkpt>
<trkpt lat="-35.362881" lon="149.165222">
  <ele>582.11</ele>
  <time>2026-08-28T19:09:46Z</time>
  <course>0.01</course>
  <speed>0.0</speed>
  <fix>3d</fix>
</trkpt>
<trkpt lat="-35.3628811" lon="149.1652218">
  <ele>582.21</ele>
  <time>2026-08-28T19:09:46Z</time>
  <course>90.8</course>
  <speed>0.01414213562373095</speed>
  <fix>3d</fix>
</trkpt>
<trkpt lat="-35.362881" lon="149.165222">
  <ele>582.13</ele>
  <time>2026-08-28T19:09:46Z</time>
  <course>0.59</course>
  <speed>0.0</speed>
  <fix>3d</fix>
</trkpt>
<trkpt lat="-35.3628811" lon="149.1652218">
  <ele>582.26</ele>
  <time>2026-08-28T19:09:46Z</time>
  <course>90.72</course>
  <speed>0.01414213562373095</speed>
  <fix>3d</fix>
</trkpt>
<trkpt lat="-35.362881" lon="149.165222">
  <ele>582.17</ele>
  <time>2026-08-28T19:09:46Z</time>
  <course>357.75</course>
  <speed>0.0</speed>
  <fix>3d</fix>
</trkpt>
<trkpt lat="-35.3628811" lon="149.1652218">
  <ele>582.38</ele>
  <time>2026-08-28T19:09:46Z</time>
  <course>85.09</course>
  <speed>0.07280109889280519</speed>
  <fix>3d</fix>
</trkpt>
<trkpt lat="-35.362881" lon="149.165222">
  <ele>582.23</ele>
  <time>2026-08-28T19:09:46Z</time>
  <course>357.79</course>
  <speed>0.01</speed>
  <fix>3d</fix>
</trkpt>
<trkpt lat="-35.3628808" lon="149.1652218">
  <ele>582.68</ele>
  <time>2026-08-28T19:09:46Z</time>
  <course>83.47</course>
  <speed>0.22090722034374521</speed>
  <fix>3d</fix>
</trkpt>
<trkpt lat="-35.3628809" lon="149.165222">
  <ele>582.4</ele>
  <time>2026-08-28T19:09:46Z</time>
  <course>355.26</course>
  <speed>0.12</speed>
  <fix>3d</fix>
</trkpt>
<trkpt lat="-35.3628803" lon="149.1652218">
  <ele>582.93</ele>
  <time>2026-08-28T19:09:46Z</time>
  <course>82.6</course>
  <speed>0.2816025568065745</speed>
  <fix>3d</fix>
</trkpt>
<trkpt lat="-35.3628805" lon="149.165222">
  <ele>582.67</ele>
  <time>2026-08-28T19:09:46Z</time>
  <course>354.47</course>
  <speed>0.25</speed>
  <fix>3d</fix>
</trkpt>
<trkpt lat="-35.3628798" lon="149.1652218">
  <ele>583.19</ele>
  <time>2026-08-28T19:09:46Z</time>
  <course>81.13</course>
  <speed>0.3026549190084311</speed>
  <fix>3d</fix>
</trkpt>
<trkpt lat="-35.36288" lon="149.1652219">
  <ele>582.93</ele>
  <time>2026-08-28T19:09:46Z</time>
  <course>353.3</course>
  <speed>0.3</speed>
  <fix>3d</fix>
</trkpt>
<trkpt lat="-35.3628792" lon="149.1652217">
  <ele>583.5</ele>
  <time>2026-08-28T19:09:46Z</time>
  <course>80.12</course>
  <speed>0.2942787793912432</speed>
  <fix>3d</fix>
</trkpt>
<trkpt lat="-35.3628794" lon="149.1652218">
  <ele>583.2</ele>
  <time>2026-08-28T19:09:46Z</time>
  <course>351.83</course>
  <speed>0.32</speed>
  <fix>3d</fix>
</trkpt>
<trkpt lat="-35.3628787" lon="149.1652216">
  <ele>583.86</ele>
  <time>2026-08-28T19:09:46Z</time>
  <course>79.38</course>
  <speed>0.2745906043549196</speed>
  <fix>3d</fix>
</trkpt>
<trkpt lat="-35.3628789" lon="149.1652217">
  <ele>583.51</ele>
  <time>2026-08-28T19:09:46Z</time>
  <course>350.98</course>
  <speed>0.31</speed>
  <fix>3d</fix>
</trkpt>
<trkpt lat="-35.3628782" lon="149.1652215">
  <ele>584.24</ele>
  <time>2026-08-28T19:09:46Z</time>
  <course>78.72</course>
  <speed>0.24515301344262524</speed>
  <fix>3d</fix>
</trkpt>
<trkpt lat="-35.3628783" lon="149.1652216">
  <ele>583.85</ele>
  <time>2026-08-28T19:09:46Z</time>
  <course>350.88</course>
  <speed>0.29</speed>
  <fix>3d</fix>
</trkpt>
<trkpt lat="-35.3628777" lon="149.1652214">
  <ele>584.67</ele>
  <time>2026-08-28T19:09:46Z</time>
  <course>78.13</course>
  <speed>0.20615528128088303</speed>
  <fix>3d</fix>
</trkpt>
<trkpt lat="-35.3628778" lon="149.1652215">
  <ele>584.24</ele>
  <time>2026-08-28T19:09:46Z</time>
  <course>351.3</course>
  <speed>0.26</speed>
  <fix>3d</fix>
</trkpt>
<trkpt lat="-35.3628774" lon="149.1652213">
  <ele>585.13</ele>
  <time>2026-08-28T19:09:46Z</time>
  <course>77.5</course>
  <speed>0.15524174696260024</speed>
  <fix>3d</fix>
</trkpt>
<trkpt lat="-35.3628774" lon="149.1652214">
  <ele>584.66</ele>
  <time>2026-08-28T19:09:46Z</time>
  <course>352.02</course>
  <speed>0.21</speed>
  <fix>3d</fix>
</trkpt>
<trkpt lat="-35.3628771" lon="149.1652212">
  <ele>585.62</ele>
  <time>2026-08-28T19:09:46Z</time>
  <course>77.13</course>
  <speed>0.11704699910719625</speed>
  <fix>3d</fix>
</trkpt>
<trkpt lat="-35.362877" lon="149.1652214">
  <ele>585.12</ele>
  <time>2026-08-28T19:09:46Z</time>
  <course>352.89</course>
  <speed>0.17</speed>
  <fix>3d</fix>
</trkpt>
<trkpt lat="-35.3628769" lon="149.1652212">
  <ele>586.14</ele>
  <time>2026-08-28T19:09:46Z</time>
  <course>77.36</course>
  <speed>0.0670820393249937</speed>
  <fix>3d</fix>
</trkpt>
<trkpt lat="-35.3628767" lon="149.1652213">
  <ele>585.62</ele>
  <time>2026-08-28T19:09:46Z</time>
  <course>354.28</course>
  <speed>0.12</speed>
  <fix>3d</fix>
</trkpt>
<trkpt lat="-35.3628767" lon="149.1652212">
  <ele>586.66</ele>
  <time>2026-08-28T19:09:46Z</time>
  <course>77.76</course>
  <speed>0.0282842712474619</speed>
  <fix>3d</fix>
</trkpt>
<trkpt lat="-35.3628766" lon="149.1652212">
  <ele>586.12</ele>
  <time>2026-08-28T19:09:46Z</time>
  <course>358.11</course>
  <speed>0.08</speed>
  <fix>3d</fix>
</trkpt>
<trkpt lat="-35.3628767" lon="149.1652212">
  <ele>587.18</ele>
  <time>2026-08-28T19:09:46Z</time>
  <course>78.26</course>
  <speed>0.01</speed>
  <fix>3d</fix>
</trkpt>
<trkpt lat="-35.3628765" lon="149.1652213">
  <ele>586.64</ele>
  <time>2026-08-28T19:09:46Z</time>
  <course>12.47</course>
  <speed>0.03</speed>
  <fix>3d</fix>
</trkpt>
<trkpt lat="-35.3628767" lon="149.1652212">
  <ele>587.7</ele>
  <time>2026-08-28T19:09:46Z</time>
  <course>78.81</course>
  <speed>0.05</speed>
  <fix>3d</fix>
</trkpt>
<trkpt lat="-35.3628765" lon="149.1652214">
  <ele>587.15</ele>
  <time>2026-08-28T19:09:46Z</time>
  <course>125.08</course>
  <speed>0.01</speed>
  <fix>3d</fix>
</trkpt>
<trkpt lat="-35.3628767" lon="149.1652213">
  <ele>588.21</ele>
  <time>2026-08-28T19:09:46Z</time>
  <course>79.4</course>
  <speed>0.09055385138137417</speed>
  <fix>3d</fix>
</trkpt>
<trkpt lat="-35.3628765" lon="149.1652214">
  <ele>587.66</ele>
  <time>2026-08-28T19:09:46Z</time>
  <course>162.04</course>
  <speed>0.05</speed>
  <fix>3d</fix>
</trkpt>
<trkpt lat="-35.3628769" lon="149.1652213">
  <ele>588.71</ele>
  <time>2026-08-28T19:09:46Z</time>
  <course>79.96</course>
  <speed>0.130384048104053</speed>
  <fix>3d</fix>
</trkpt>
<trkpt lat="-35.3628765" lon="149.1652214">
  <ele>588.17</ele>
  <time>2026-08-28T19:09:46Z</time>
  <course>170.76</course>
  <speed>0.09</speed>
  <fix>3d</fix>
</trkpt>
<trkpt lat="-35.3628771" lon="149.1652214">
  <ele>589.21</ele>
  <time>2026-08-28T19:09:46Z</time>
  <course>80.49</course>
  <speed>0.16031219541881397</speed>
  <fix>3d</fix>
</trkpt>
<trkpt lat="-35.3628767" lon="149.1652214">
  <ele>588.68</ele>
  <time>2026-08-28T19:09:46Z</time>
  <course>175.16</course>
  <speed>0.13</speed>
  <fix>3d</fix>
</trkpt>
<trkpt lat="-35.3628774" lon="149.1652214">
  <ele>589.71</ele>
  <time>2026-08-28T19:09:46Z</time>
  <course>80.97</course>
  <speed>0.18027756377319945</speed>
  <fix>3d</fix>
</trkpt>
<trkpt lat="-35.362877" lon="149.1652214">
  <ele>589.18</ele>
  <time>2026-08-28T19:09:46Z</time>
  <course>177.57</course>
  <speed>0.16</speed>
  <fix>3d</fix>
</trkpt>
<trkpt lat="-35.3628777" lon="149.1652214">
  <ele>590.22</ele>
  <time>2026-08-28T19:09:46Z</time>
  <course>81.46</course>
  <speed>0.2002498439450079</speed>
  <fix>3d</fix>
</trkpt>
<trkpt lat="-35.3628774" lon="149.1652214">
  <ele>589.68</ele>
  <time>2026-08-28T19:09:46Z</time>
  <course>178.86</course>
  <speed>0.19</speed>
  <fix>3d</fix>
</trkpt>
<trkpt lat="-35.3628781" lon="149.1652215">
  <ele>590.73</ele>
  <time>2026-08-28T19:09:46Z</time>
  <course>81.9</course>
  <speed>0.22022715545545238</speed>
  <fix>3d</fix>
</trkpt>
<trkpt lat="-35.3628777" lon="149.1652214">
  <ele>590.17</ele>
  <time>2026-08-28T19:09:46Z</time>
  <course>179.53</course>
  <speed>0.21</speed>
  <fix>3d</fix>
</trkpt>
<trkpt lat="-35.3628785" lon="149.1652215">
  <ele>591.23</ele>
  <time>2026-08-28T19:09:46Z</time>
  <course>82.34</course>
  <speed>0.22022715545545238</speed>
  <fix>3d</fix>
</trkpt>
<trkpt lat="-35.3628781" lon="149.1652214">
  <ele>590.67</ele>
  <time>2026-08-28T19:09:46Z</time>
  <course>179.85</course>
  <speed>0.22</speed>
  <fix>3d</fix>
</trkpt>
<trkpt lat="-35.3628789" lon="149.1652215">
  <ele>591.73</ele>
  <time>2026-08-28T19:09:46Z</time>
  <course>82.76</course>
  <speed>0.22090722034374521</speed>
  <fix>3d</fix>
</trkpt>
<trkpt lat="-35.3628786" lon="149.1652214">
  <ele>591.16</ele>
  <time>2026-08-28T19:09:46Z</time>
  <course>179.94</course>
  <speed>0.23</speed>
  <fix>3d</fix>
</trkpt>
<trkpt lat="-35.3628793" lon="149.1652215">
  <ele>592.23</ele>
  <time>2026-08-28T19:09:46Z</time>
  <course>83.16</course>
  <speed>0.22090722034374521</speed>
  <fix>3d</fix>
</trkpt>
<trkpt lat="-35.362879" lon="149.1652214">
  <ele>591.66</ele>
  <time>2026-08-28T19:09:46Z</time>
  <course>179.88</course>
  <speed>0.23</speed>
  <fix>3d</fix>
</trkpt>
<trkpt lat="-35.3628797" lon="149.1652215">
  <ele>592.72</ele>
  <time>2026-08-28T19:09:46Z</time>
  <course>83.52</course>
  <speed>0.2009975124224178</speed>
  <fix>3d</fix>
</trkpt>
<trkpt lat="-35.3628794" lon="149.1652214">
  <ele>592.15</ele>
  <time>2026-08-28T19:09:46Z</time>
  <course>179.72</course>
  <speed>0.22</speed>
  <fix>3d</fix>
</trkpt>
<trkpt lat="-35.36288" lon="149.1652215">
  <ele>593.22</ele>
  <time>2026-08-28T19:09:46Z</time>
  <course>83.85</course>
  <speed>0.191049731745428</speed>
  <fix>3d</fix>
</trkpt>
<trkpt lat="-35.3628798" lon="149.1652214">
  <ele>592.64</ele>
  <time>2026-08-28T19:09:46Z</time>
  <course>179.41</course>
  <speed>0.21</speed>
  <fix>3d</fix>
</trkpt>
<trkpt lat="-35.3628804" lon="149.1652215">
  <ele>593.72</ele>
  <time>2026-08-28T19:09:46Z</time>
  <course>84.19</course>
  <speed>0.1711724276862369</speed>
  <fix>3d</fix>
</trkpt>
<trkpt lat="-35.3628801" lon="149.1652214">
  <ele>593.14</ele>
  <time>2026-08-28T19:09:46Z</time>
  <course>179.04</course>
  <speed>0.19</speed>
  <fix>3d</fix>
</trkpt>
<trkpt lat="-35.3628806" lon="149.1652215">
  <ele>594.21</ele>
  <time>2026-08-28T19:09:46Z</time>
  <course>84.51</course>
  <speed>0.15297058540778355</speed>
  <fix>3d</fix>
</trkpt>
<trkpt lat="-35.3628804" lon="149.1652214">
  <ele>593.63</ele>
  <time>2026-08-28T19:09:46Z</time>
  <course>178.52</course>
  <speed>0.17</speed>
  <fix>3d</fix>
</trkpt>
<trkpt lat="-35.3628809" lon="149.1652215">
  <ele>594.71</ele>
  <time>2026-08-28T19:09:46Z</time>
  <course>84.8</course>
  <speed>0.13341664064126335</speed>
  <fix>3d</fix>
</trkpt>
<trkpt lat="-35.3628807" lon="149.1652214">
  <ele>594.13</ele>
  <time>2026-08-28T19:09:46Z</time>
  <course>177.68</course>
  <speed>0.14</speed>
  <fix>3d</fix>
</trkpt>
<trkpt lat="-35.3628811" lon="149.1652215">
  <ele>595.21</ele>
  <time>2026-08-28T19:09:46Z</time>
  <course>85.09</course>
  <speed>0.1044030650891055</speed>
  <fix>3d</fix>
</trkpt>
<trkpt lat="-35.362881" lon="149.1652215">
  <ele>594.62</ele>
  <time>2026-08-28T19:09:46Z</time>
  <course>176.49</course>
  <speed>0.12</speed>
  <fix>3d</fix>
</trkpt>
<trkpt lat="-35.3628813" lon="149.1652215">
  <ele>595.72</ele>
  <time>2026-08-28T19:09:46Z</time>
  <course>85.38</course>
  <speed>0.0854400374531753</speed>
  <fix>3d</fix>
</trkpt>
<trkpt lat="-35.3628811" lon="149.1652215">
  <ele>595.12</ele>
  <time>2026-08-28T19:09:46Z</time>
  <course>174.85</course>
  <speed>0.09</speed>
  <fix>3d</fix>
</trkpt>
<trkpt lat="-35.3628814" lon="149.1652216">
  <ele>596.22</ele>
  <time>2026-08-28T19:09:46Z</time>
  <course>85.65</course>
  <speed>0.0670820393249937</speed>
  <fix>3d</fix>
</trkpt>
<trkpt lat="-35.3628813" lon="149.1652215">
  <ele>595.62</ele>
  <time>2026-08-28T19:09:46Z</time>
  <course>172.05</course>
  <speed>0.07</speed>
  <fix>3d</fix>
</trkpt>
<trkpt lat="-35.3628815" lon="149.1652216">
  <ele>596.72</ele>
  <time>2026-08-28T19:09:46Z</time>
  <course>85.92</course>
  <speed>0.05</speed>
  <fix>3d</fix>
</trkpt>
<trkpt lat="-35.3628814" lon="149.1652215">
  <ele>596.11</ele>
  <time>2026-08-28T19:09:46Z</time>
  <course>166.99</course>
  <speed>0.05</speed>
  <fix>3d</fix>
</trkpt>
<trkpt lat="-35.3628815" lon="149.1652216">
  <ele>597.22</ele>
  <time>2026-08-28T19:09:46Z</time>
  <course>86.22</course>
  <speed>0.03605551275463989</speed>
  <fix>3d</fix>
</trkpt>
<trkpt lat="-35.3628815" lon="149.1652215">
  <ele>596.61</ele>
  <time>2026-08-28T19:09:46Z</time>
  <course>156.84</course>
  <speed>0.03</speed>
  <fix>3d</fix>
</trkpt>
<trkpt lat="-35.3628816" lon="149.1652217">
  <ele>597.71</ele>
  <time>2026-08-28T19:09:46Z</time>
  <course>86.5</course>
  <speed>0.0316227766016838</speed>
  <fix>3d</fix>
</trkpt>
<trkpt lat="-35.3628816" lon="149.1652216">
  <ele>597.1</ele>
  <time>2026-08-28T19:09:46Z</time>
  <course>132.4</course>
  <speed>0.02</speed>
  <fix>3d</fix>
</trkpt>
<trkpt lat="-35.3628816" lon="149.1652217">
  <ele>598.21</ele>
  <time>2026-08-28T19:09:46Z</time>
  <course>86.73</course>
  <speed>0.03</speed>
  <fix>3d</fix>
</trkpt>
<trkpt lat="-35.3628816" lon="149.1652216">
  <ele>597.6</ele>
  <time>2026-08-28T19:09:46Z</time>
  <course>85.67</course>
  <speed>0.01</speed>
  <fix>3d</fix>
</trkpt>
<trkpt lat="-35.3628815" lon="149.1652217">
  <ele>598.71</ele>
  <time>2026-08-28T19:09:46Z</time>
  <course>86.98</course>
  <speed>0.0316227766016838</speed>
  <fix>3d</fix>
</trkpt>
<trkpt lat="-35.3628816" lon="149.1652216">
  <ele>598.1</ele>
  <time>2026-08-28T19:09:46Z</time>
  <course>52.87</course>
  <speed>0.02</speed>
  <fix>3d</fix>
</trkpt>
<trkpt lat="-35.3628815" lon="149.1652218">
  <ele>599.21</ele>
  <time>2026-08-28T19:09:46Z</time>
  <course>87.24</course>
  <speed>0.0316227766016838</speed>
  <fix>3d</fix>
</trkpt>
<trkpt lat="-35.3628816" lon="149.1652217">
  <ele>598.59</ele>
  <time>2026-08-28T19:09:46Z</time>
  <course>38.79</course>
  <speed>0.03</speed>
  <fix>3d</fix>
</trkpt>
<trkpt lat="-35.3628815" lon="149.1652218">
  <ele>599.71</ele>
  <time>2026-08-28T19:09:46Z</time>
  <course>87.46</course>
  <speed>0.03605551275463989</speed>
  <fix>3d</fix>
</trkpt>
<trkpt lat="-35.3628816" lon="149.1652217">
  <ele>599.09</ele>
  <time>2026-08-28T19:09:46Z</time>
  <course>32.18</course>
  <speed>0.04</speed>
  <fix>3d</fix>
</trkpt>
<trkpt lat="-35.3628815" lon="149.1652218">
  <ele>600.2</ele>
  <time>2026-08-28T19:09:46Z</time>
  <course>87.67</course>
  <speed>0.03605551275463989</speed>
  <fix>3d</fix>
</trkpt>
<trkpt lat="-35.3628815" lon="149.1652217">
  <ele>599.58</ele>
  <time>2026-08-28T19:09:46Z</time>
  <course>28.61</course>
  <speed>0.04</speed>
  <fix>3d</fix>
</trkpt>
<trkpt lat="-35.3628814" lon="149.1652219">
  <ele>600.7</ele>
  <time>2026-08-28T19:09:46Z</time>
  <course>87.88</course>
  <speed>0.03605551275463989</speed>
  <fix>3d</fix>
</trkpt>
<trkpt lat="-35.3628814" lon="149.1652218">
  <ele>600.08</ele>
  <time>2026-08-28T19:09:46Z</time>
  <course>26.41</course>
  <speed>0.05</speed>
  <fix>3d</fix>
</trkpt>
<trkpt lat="-35.3628814" lon="149.1652219">
  <ele>601.2</ele>
  <time>2026-08-28T19:09:46Z</time>
  <course>88.07</course>
  <speed>0.0282842712474619</speed>
  <fix>3d</fix>
</trkpt>
<trkpt lat="-35.3628813" lon="149.1652219">
  <ele>600.58</ele>
  <time>2026-08-28T19:09:46Z</time>
  <course>25.43</course>
  <speed>0.05</speed>
  <fix>3d</fix>
</trkpt>
<trkpt lat="-35.3628813" lon="149.165222">
  <ele>601.7</ele>
  <time>2026-08-28T19:09:46Z</time>
  <course>88.26</course>
  <speed>0.0282842712474619</speed>
  <fix>3d</fix>
</trkpt>
<trkpt lat="-35.3628812" lon="149.1652219">
  <ele>601.08</ele>
  <time>2026-08-28T19:09:46Z</time>
  <course>25.09</course>
  <speed>0.05</speed>
  <fix>3d</fix>
</trkpt>
<trkpt lat="-35.3628812" lon="149.165222">
  <ele>602.2</ele>
  <time>2026-08-28T19:09:46Z</time>
  <course>88.43</course>
  <speed>0.0282842712474619</speed>
  <fix>3d</fix>
</trkpt>
<trkpt lat="-35.3628811" lon="149.165222">
  <ele>601.58</ele>
  <time>2026-08-28T19:09:46Z</time>
  <course>24.78</course>
  <speed>0.05</speed>
  <fix>3d</fix>
</trkpt>
<trkpt lat="-35.3628811" lon="149.165222">
  <ele>602.7</ele>
  <time>2026-08-28T19:09:46Z</time>
  <course>88.59</course>
  <speed>0.022360679774997897</speed>
  <fix>3d</fix>
</trkpt>
<trkpt lat="-35.362881" lon="149.165222">
  <ele>602.08</ele>
  <time>2026-08-28T19:09:46Z</time>
  <course>24.67</course>
  <speed>0.05</speed>
  <fix>3d</fix>
</trkpt>
<trkpt lat="-35.3628811" lon="149.1652221">
  <ele>603.19</ele>
  <time>2026-08-28T19:09:46Z</time>
  <course>88.76</course>
  <speed>0.01414213562373095</speed>
  <fix>3d</fix>
</trkpt>
<trkpt lat="-35.362881" lon="149.1652221">
  <ele>602.57</ele>
  <time>2026-08-28T19:09:46Z</time>
  <course>24.81</course>
  <speed>0.04</speed>
  <fix>3d</fix>
</trkpt>
<trkpt lat="-35.362881" lon="149.1652221">
  <ele>603.69</ele>
  <time>2026-08-28T19:09:46Z</time>
  <course>88.9</course>
  <speed>0.01414213562373095</speed>
  <fix>3d</fix>
</trkpt>
<trkpt lat="-35.3628809" lon="149.1652221">
  <ele>603.07</ele>
  <time>2026-08-28T19:09:46Z</time>
  <course>25.21</course>
  <speed>0.04</speed>
  <fix>3d</fix>
</trkpt>
<trkpt lat="-35.3628809" lon="149.1652221">
  <ele>604.19</ele>
  <time>2026-08-28T19:09:46Z</time>
  <course>89.03</course>
  <speed>0.0</speed>
  <fix>3d</fix>
</trkpt>
<trkpt lat="-35.3628808" lon="149.1652222">
  <ele>603.57</ele>
  <time>2026-08-28T19:09:46Z</time>
  <course>25.77</course>
  <speed>0.03</speed>
  <fix>3d</fix>
</trkpt>
<trkpt lat="-35.3628809" lon="149.1652222">
  <ele>604.69</ele>
  <time>2026-08-28T19:09:46Z</time>
  <course>89.19</course>
  <speed>0.0</speed>
  <fix>3d</fix>
</trkpt>
<trkpt lat="-35.3628808" lon="149.1652222">
  <ele>604.07</ele>
  <time>2026-08-28T19:09:46Z</time>
  <course>26.16</course>
  <speed>0.03</speed>
  <fix>3d</fix>
</trkpt>
<trkpt lat="-35.3628809" lon="149.1652222">
  <ele>605.18</ele>
  <time>2026-08-28T19:09:46Z</time>
  <course>89.31</course>
  <speed>0.0</speed>
  <fix>3d</fix>
</trkpt>
<trkpt lat="-35.3628807" lon="149.1652222">
  <ele>604.57</ele>
  <time>2026-08-28T19:09:46Z</time>
  <course>26.99</course>
  <speed>0.02</speed>
  <fix>3d</fix>
</trkpt>
<trkpt lat="-35.3628809" lon="149.1652222">
  <ele>605.69</ele>
  <time>2026-08-28T19:09:46Z</time>
  <course>89.43</course>
  <speed>0.01</speed>
  <fix>3d</fix>
</trkpt>
<trkpt lat="-35.3628807" lon="149.1652222">
  <ele>605.07</ele>
  <time>2026-08-28T19:09:46Z</time>
  <course>28.49</course>
  <speed>0.02</speed>
  <fix>3d</fix>
</trkpt>
<trkpt lat="-35.3628808" lon="149.1652222">
  <ele>606.19</ele>
  <time>2026-08-28T19:09:46Z</time>
  <course>89.55</course>
  <speed>0.01</speed>
  <fix>3d</fix>
</trkpt>
<trkpt lat="-35.3628807" lon="149.1652222">
  <ele>605.57</ele>
  <time>2026-08-28T19:09:46Z</time>
  <course>30.19</course>
  <speed>0.01</speed>
  <fix>3d</fix>
</trkpt>
<trkpt lat="-35.3628808" lon="149.1652222">
  <ele>606.7</ele>
  <time>2026-08-28T19:09:46Z</time>
  <course>89.69</course>
  <speed>0.02</speed>
  <fix>3d</fix>
</trkpt>
<trkpt lat="-35.3628807" lon="149.1652222">
  <ele>606.08</ele>
  <time>2026-08-28T19:09:46Z</time>
  <course>33.45</course>
  <speed>0.0</speed>
  <fix>3d</fix>
</trkpt>
<trkpt lat="-35.3628808" lon="149.1652222">
  <ele>607.19</ele>
  <time>2026-08-28T19:09:46Z</time>
  <course>89.79</course>
  <speed>0.022360679774997897</speed>
  <fix>3d</fix>
</trkpt>
<trkpt lat="-35.3628807" lon="149.1652222">
  <ele>606.58</ele>
  <time>2026-08-28T19:09:46Z</time>
  <course>43.77</course>
  <speed>0.0</speed>
  <fix>3d</fix>
</trkpt>
<trkpt lat="-35.3628808" lon="149.1652222">
  <ele>607.69</ele>
  <time>2026-08-28T19:09:46Z</time>
  <course>89.88</course>
  <speed>0.022360679774997897</speed>
  <fix>3d</fix>
</trkpt>
<trkpt lat="-35.3628807" lon="149.1652222">
  <ele>607.08</ele>
  <time>2026-08-28T19:09:46Z</time>
  <course>81.23</course>
  <speed>0.0</speed>
  <fix>3d</fix>
</trkpt>
<trkpt lat="-35.3628808" lon="149.1652222">
  <ele>608.2</ele>
  <time>2026-08-28T19:09:46Z</time>
  <course>89.96</course>
  <speed>0.022360679774997897</speed>
  <fix>3d</fix>
</trkpt>
<trkpt lat="-35.3628807" lon="149.1652222">
  <ele>607.58</ele>
  <time>2026-08-28T19:09:46Z</time>
  <course>140.34</course>
  <speed>0.0</speed>
  <fix>3d</fix>
</trkpt>
<trkpt lat="-35.3628808" lon="149.1652222">
  <ele>608.7</ele>
  <time>2026-08-28T19:09:46Z</time>
  <course>90.09</course>
  <speed>0.0316227766016838</speed>
  <fix>3d</fix>
</trkpt>
<trkpt lat="-35.3628807" lon="149.1652222">
  <ele>608.08</ele>
  <time>2026-08-28T19:09:46Z</time>
  <course>162.55</course>
  <speed>0.0</speed>
  <fix>3d</fix>
</trkpt>
<trkpt lat="-35.3628808" lon="149.1652222">
  <ele>609.2</ele>
  <time>2026-08-28T19:09:46Z</time>
  <course>90.19</course>
  <speed>0.0316227766016838</speed>
  <fix>3d</fix>
</trkpt>
<trkpt lat="-35.3628807" lon="149.1652222">
  <ele>608.58</ele>
  <time>2026-08-28T19:09:46Z</time>
  <course>169.88</course>
  <speed>0.0</speed>
  <fix>3d</fix>
</trkpt>
<trkpt lat="-35.3628808" lon="149.1652222">
  <ele>609.71</ele>
  <time>2026-08-28T19:09:46Z</time>
  <course>90.28</course>
  <speed>0.0316227766016838</speed>
  <fix>3d</fix>
</trkpt>
<trkpt lat="-35.3628807" lon="149.1652222">
  <ele>609.08</ele>
  <time>2026-08-28T19:09:46Z</time>
  <course>172.06</course>
  <speed>0.0</speed>
  <fix>3d</fix>
</trkpt>
<trkpt lat="-35.3628808" lon="149.1652222">
  <ele>610.21</ele>
  <time>2026-08-28T19:09:46Z</time>
  <course>90.37</course>
  <speed>0.0316227766016838</speed>
  <fix>3d</fix>
</trkpt>
<trkpt lat="-35.3628807" lon="149.1652223">
  <ele>609.58</ele>
  <time>2026-08-28T19:09:46Z</time>
  <course>171.64</course>
  <speed>0.0</speed>
  <fix>3d</fix>
</trkpt>
<trkpt lat="-35.3628809" lon="149.1652222">
  <ele>610.7</ele>
  <time>2026-08-28T19:09:46Z</time>
  <course>90.47</course>
  <speed>0.0316227766016838</speed>
  <fix>3d</fix>
</trkpt>
<trkpt lat="-35.3628807" lon="149.1652224">
  <ele>610.08</ele>
  <time>2026-08-28T19:09:46Z</time>
  <course>169.58</course>
  <speed>0.0</speed>
  <fix>3d</fix>
</trkpt>
<trkpt lat="-35.3628809" lon="149.1652222">
  <ele>611.2</ele>
  <time>2026-08-28T19:09:46Z</time>
  <course>90.53</course>
  <speed>0.0316227766016838</speed>
  <fix>3d</fix>
</trkpt>
<trkpt lat="-35.3628807" lon="149.1652224">
  <ele>610.58</ele>
  <time>2026-08-28T19:09:46Z</time>
  <course>167.14</course>
  <speed>0.0</speed>
  <fix>3d</fix>
</trkpt>
<trkpt lat="-35.3628809" lon="149.1652222">
  <ele>611.7</ele>
  <time>2026-08-28T19:09:46Z</time>
  <course>90.58</course>
  <speed>0.0316227766016838</speed>
  <fix>3d</fix>
</trkpt>
<trkpt lat="-35.3628807" lon="149.1652224">
  <ele>611.08</ele>
  <time>2026-08-28T19:09:46Z</time>
  <course>165.04</course>
  <speed>0.01</speed>
  <fix>3d</fix>
</trkpt>
<trkpt lat="-35.3628809" lon="149.1652222">
  <ele>612.19</ele>
  <time>2026-08-28T19:09:46Z</time>
  <course>90.63</course>
  <speed>0.0316227766016838</speed>
  <fix>3d</fix>
</trkpt>
<trkpt lat="-35.3628807" lon="149.1652224">
  <ele>611.58</ele>
  <time>2026-08-28T19:09:46Z</time>
  <course>164.37</course>
  <speed>0.01</speed>
  <fix>3d</fix>
</trkpt>
<trkpt lat="-35.3628809" lon="149.1652222">
  <ele>612.7</ele>
  <time>2026-08-28T19:09:46Z</time>
  <course>90.71</course>
  <speed>0.0316227766016838</speed>
  <fix>3d</fix>
</trkpt>
<trkpt lat="-35.3628807" lon="149.1652224">
  <ele>612.08</ele>
  <time>2026-08-28T19:09:46Z</time>
  <course>168.38</course>
  <speed>0.0</speed>
  <fix>3d</fix>
</trkpt>
<trkpt lat="-35.3628809" lon="149.1652222">
  <ele>613.2</ele>
  <time>2026-08-28T19:09:46Z</time>
  <course>90.82</course>
  <speed>0.03605551275463989</speed>
  <fix>3d</fix>
</trkpt>
<trkpt lat="-35.3628807" lon="149.1652224">
  <ele>612.58</ele>
  <time>2026-08-28T19:09:46Z</time>
  <course>179.94</course>
  <speed>0.0</speed>
  <fix>3d</fix>
</trkpt>
<trkpt lat="-35.3628809" lon="149.1652222">
  <ele>613.69</ele>
  <time>2026-08-28T19:09:46Z</time>
  <course>90.85</course>
  <speed>0.03605551275463989</speed>
  <fix>3d</fix>
</trkpt>
<trkpt lat="-35.3628807" lon="149.1652224">
  <ele>613.08</ele>
  <time>2026-08-28T19:09:46Z</time>
  <course>195.68</course>
  <speed>0.0</speed>
  <fix>3d</fix>
</trkpt>
<trkpt lat="-35.3628809" lon="149.1652222">
  <ele>614.19</ele>
  <time>2026-08-28T19:09:46Z</time>
  <course>90.92</course>
  <speed>0.03605551275463989</speed>
  <fix>3d</fix>
</trkpt>
<trkpt lat="-35.3628807" lon="149.1652224">
  <ele>613.58</ele>
  <time>2026-08-28T19:09:46Z</time>
  <course>206.94</course>
  <speed>0.01</speed>
  <fix>3d</fix>
</trkpt>
<trkpt lat="-35.3628809" lon="149.1652222">
  <ele>614.68</ele>
  <time>2026-08-28T19:09:46Z</time>
  <course>90.96</course>
  <speed>0.0282842712474619</speed>
  <fix>3d</fix>
</trkpt>
<trkpt lat="-35.3628807" lon="149.1652224">
  <ele>614.09</ele>
  <time>2026-08-28T19:09:46Z</time>
  <course>213.29</course>
  <speed>0.01</speed>
  <fix>3d</fix>
</trkpt>
<trkpt lat="-35.3628809" lon="149.1652222">
  <ele>615.18</ele>
  <time>2026-08-28T19:09:46Z</time>
  <course>91.02</course>
  <speed>0.0282842712474619</speed>
  <fix>3d</fix>
</trkpt>
<trkpt lat="-35.3628808" lon="149.1652224">
  <ele>614.59</ele>
  <time>2026-08-28T19:09:46Z</time>
  <course>217.58</course>
  <speed>0.01</speed>
  <fix>3d</fix>
</trkpt>
<trkpt lat="-35.3628809" lon="149.1652222">
  <ele>615.68</ele>
  <time>2026-08-28T19:09:46Z</time>
  <course>91.09</course>
  <speed>0.0282842712474619</speed>
  <fix>3d</fix>
</trkpt>
<trkpt lat="-35.3628808" lon="149.1652224">
  <ele>615.09</ele>
  <time>2026-08-28T19:09:46Z</time>
  <course>220.76</course>
  <speed>0.01</speed>
  <fix>3d</fix>
</trkpt>
<trkpt lat="-35.3628809" lon="149.1652222">
  <ele>616.18</ele>
  <time>2026-08-28T19:09:46Z</time>
  <course>91.15</course>
  <speed>0.0282842712474619</speed>
  <fix>3d</fix>
</trkpt>
<trkpt lat="-35.3628808" lon="149.1652224">
  <ele>615.59</ele>
  <time>2026-08-28T19:09:46Z</time>
  <course>222.72</course>
  <speed>0.01</speed>
  <fix>3d</fix>
</trkpt>
<trkpt lat="-35.3628809" lon="149.1652222">
  <ele>616.69</ele>
  <time>2026-08-28T19:09:46Z</time>
  <course>91.21</course>
  <speed>0.0282842712474619</speed>
  <fix>3d</fix>
</trkpt>
<trkpt lat="-35.3628808" lon="149.1652224">
  <ele>616.1</ele>
  <time>2026-08-28T19:09:46Z</time>
  <course>224.7</course>
  <speed>0.01</speed>
  <fix>3d</fix>
</trkpt>
<trkpt lat="-35.362881" lon="149.1652222">
  <ele>617.2</ele>
  <time>2026-08-28T19:09:46Z</time>
  <course>91.27</course>
  <speed>0.0282842712474619</speed>
  <fix>3d</fix>
</trkpt>
<trkpt lat="-35.3628808" lon="149.1652224">
  <ele>616.6</ele>
  <time>2026-08-28T19:09:46Z</time>
  <course>227.97</course>
  <speed>0.01</speed>
  <fix>3d</fix>
</trkpt>
<trkpt lat="-35.362881" lon="149.1652221">
  <ele>617.71</ele>
  <time>2026-08-28T19:09:46Z</time>
  <course>91.37</course>
  <speed>0.0282842712474619</speed>
  <fix>3d</fix>
</trkpt>
<trkpt lat="-35.3628808" lon="149.1652223">
  <ele>617.11</ele>
  <time>2026-08-28T19:09:46Z</time>
  <course>233.17</course>
  <speed>0.01</speed>
  <fix>3d</fix>
</trkpt>
<trkpt lat="-35.362881" lon="149.1652221">
  <ele>618.21</ele>
  <time>2026-08-28T19:09:46Z</time>
  <course>91.44</course>
  <speed>0.0282842712474619</speed>
  <fix>3d</fix>
</trkpt>
<trkpt lat="-35.3628809" lon="149.1652222">
  <ele>617.61</ele>
  <time>2026-08-28T19:09:46Z</time>
  <course>236.69</course>
  <speed>0.01</speed>
  <fix>3d</fix>
</trkpt>
<trkpt lat="-35.362881" lon="149.1652221">
  <ele>618.72</ele>
  <time>2026-08-28T19:09:47Z</time>
  <course>91.5</course>
  <speed>0.0282842712474619</speed>
  <fix>3d</fix>
</trkpt>
<trkpt lat="-35.3628809" lon="149.1652222">
  <ele>618.11</ele>
  <time>2026-08-28T19:09:47Z</time>
  <course>237.89</course>
  <speed>0.01</speed>
  <fix>3d</fix>
</trkpt>
<trkpt lat="-35.362881" lon="149.1652221">
  <ele>619.22</ele>
  <time>2026-08-28T19:09:47Z</time>
  <course>91.56</course>
  <speed>0.0282842712474619</speed>
  <fix>3d</fix>
</trkpt>
<trkpt lat="-35.3628809" lon="149.1652222">
  <ele>618.62</ele>
  <time>2026-08-28T19:09:47Z</time>
  <course>238.18</course>
  <speed>0.01</speed>
  <fix>3d</fix>
</trkpt>
<trkpt lat="-35.362881" lon="149.1652221">
  <ele>619.71</ele>
  <time>2026-08-28T19:09:47Z</time>
  <course>91.61</course>
  <speed>0.0282842712474619</speed>
  <fix>3d</fix>
</trkpt>
<trkpt lat="-35.3628809" lon="149.1652222">
  <ele>619.11</ele>
  <time>2026-08-28T19:09:47Z</time>
  <course>235.73</course>
  <speed>0.01</speed>
  <fix>3d</fix>
</trkpt>
<trkpt lat="-35.362881" lon="149.165222">
  <ele>620.21</ele>
  <time>2026-08-28T19:09:47Z</time>
  <course>91.67</course>
  <speed>0.0282842712474619</speed>
  <fix>3d</fix>
</trkpt>
<trkpt lat="-35.3628809" lon="149.1652222">
  <ele>619.61</ele>
  <time>2026-08-28T19:09:47Z</time>
  <course>230.11</course>
  <speed>0.0</speed>
  <fix>3d</fix>
</trkpt>
<trkpt lat="-35.362881" lon="149.165222">
  <ele>620.71</ele>
  <time>2026-08-28T19:09:47Z</time>
  <course>91.72</course>
  <speed>0.0282842712474619</speed>
  <fix>3d</fix>
</trkpt>
<trkpt lat="-35.3628809" lon="149.1652222">
  <ele>620.11</ele>
  <time>2026-08-28T19:09:47Z</time>
  <course>220.71</course>
  <speed>0.0</speed>
  <fix>3d</fix>
</trkpt>
<trkpt lat="-35.362881" lon="149.165222">
  <ele>621.2</ele>
  <time>2026-08-28T19:09:47Z</time>
  <course>91.76</course>
  <speed>0.0282842712474619</speed>
  <fix>3d</fix>
</trkpt>
<trkpt lat="-35.3628809" lon="149.1652222">
  <ele>620.61</ele>
  <time>2026-08-28T19:09:47Z</time>
  <course>206.65</course>
  <speed>0.0</speed>
  <fix>3d</fix>
</trkpt>
<trkpt lat="-35.362881" lon="149.165222">
  <ele>621.7</ele>
  <time>2026-08-28T19:09:47Z</time>
  <course>91.8</course>
  <speed>0.022360679774997897</speed>
  <fix>3d</fix>
</trkpt>
<trkpt lat="-35.3628809" lon="149.1652222">
  <ele>621.11</ele>
  <time>2026-08-28T19:09:47Z</time>
  <course>179.63</course>
  <speed>0.0</speed>
  <fix>3d</fix>
</trkpt>
<trkpt lat="-35.362881" lon="149.165222">
  <ele>622.2</ele>
  <time>2026-08-28T19:09:47Z</time>
  <course>91.85</course>
  <speed>0.01414213562373095</speed>
  <fix>3d</fix>
</trkpt>
<trkpt lat="-35.3628809" lon="149.1652222">
  <ele>621.61</ele>
  <time>2026-08-28T19:09:47Z</time>
  <course>140.51</course>
  <speed>0.0</speed>
  <fix>3d</fix>
</trkpt>
<trkpt lat="-35.362881" lon="149.1652221">
  <ele>622.7</ele>
  <time>2026-08-28T19:09:47Z</time>
  <course>91.9</course>
  <speed>0.01414213562373095</speed>
  <fix>3d</fix>
</trkpt>
<trkpt lat="-35.3628809" lon="149.1652222">
  <ele>622.11</ele>
  <time>2026-08-28T19:09:47Z</time>
  <course>122.03</course>
  <speed>0.0</speed>
  <fix>3d</fix>
</trkpt>
<trkpt lat="-35.362881" lon="149.1652221">
  <ele>623.2</ele>
  <time>2026-08-28T19:09:47Z</time>
  <course>91.93</course>
  <speed>0.01414213562373095</speed>
  <fix>3d</fix>
</trkpt>
<trkpt lat="-35.3628809" lon="149.1652222">
  <ele>622.61</ele>
  <time>2026-08-28T19:09:47Z</time>
  <course>115.1</course>
  <speed>0.0</speed>
  <fix>3d</fix>
</trkpt>
<trkpt lat="-35.362881" lon="149.1652221">
  <ele>623.69</ele>
  <time>2026-08-28T19:09:47Z</time>
  <course>91.96</course>
  <speed>0.01414213562373095</speed>
  <fix>3d</fix>
</trkpt>
<trkpt lat="-35.3628809" lon="149.1652222">
  <ele>623.11</ele>
  <time>2026-08-28T19:09:47Z</time>
  <course>114.81</course>
  <speed>0.0</speed>
  <fix>3d</fix>
</trkpt>
<trkpt lat="-35.362881" lon="149.1652221">
  <ele>624.19</ele>
  <time>2026-08-28T19:09:47Z</time>
  <course>91.97</course>
  <speed>0.01414213562373095</speed>
  <fix>3d</fix>
</trkpt>
<trkpt lat="-35.362881" lon="149.1652222">
  <ele>623.61</ele>
  <time>2026-08-28T19:09:47Z</time>
  <course>115.2</course>
  <speed>0.0</speed>
  <fix>3d</fix>
</trkpt>
<trkpt lat="-35.362881" lon="149.1652221">
  <ele>624.69</ele>
  <time>2026-08-28T19:09:47Z</time>
  <course>92.01</course>
  <speed>0.01414213562373095</speed>
  <fix>3d</fix>
</trkpt>
<trkpt lat="-35.362881" lon="149.1652222">
  <ele>624.11</ele>
  <time>2026-08-28T19:09:47Z</time>
  <course>114.5</course>
  <speed>0.0</speed>
  <fix>3d</fix>
</trkpt>
<trkpt lat="-35.362881" lon="149.1652221">
  <ele>625.2</ele>
  <time>2026-08-28T19:09:47Z</time>
  <course>92.06</course>
  <speed>0.01414213562373095</speed>
  <fix>3d</fix>
</trkpt>
<trkpt lat="-35.362881" lon="149.1652222">
  <ele>624.61</ele>
  <time>2026-08-28T19:09:47Z</time>
  <course>112.87</course>
  <speed>0.0</speed>
  <fix>3d</fix>
</trkpt>
<trkpt lat="-35.362881" lon="149.1652221">
  <ele>625.7</ele>
  <time>2026-08-28T19:09:47Z</time>
  <course>92.13</course>
  <speed>0.01414213562373095</speed>
  <fix>3d</fix>
</trkpt>
<trkpt lat="-35.362881" lon="149.1652222">
  <ele>625.11</ele>
  <time>2026-08-28T19:09:47Z</time>
  <course>104.77</course>
  <speed>0.0</speed>
  <fix>3d</fix>
</trkpt>
<trkpt lat="-35.362881" lon="149.1652221">
  <ele>626.2</ele>
  <time>2026-08-28T19:09:47Z</time>
  <course>92.19</course>
  <speed>0.01414213562373095</speed>
  <fix>3d</fix>
</trkpt>
<trkpt lat="-35.362881" lon="149.1652222">
  <ele>625.62</ele>
  <time>2026-08-28T19:09:47Z</time>
  <course>92.21</course>
  <speed>0.0</speed>
  <fix>3d</fix>
</trkpt>
<trkpt lat="-35.362881" lon="149.1652221">
  <ele>626.7</ele>
  <time>2026-08-28T19:09:47Z</time>
  <course>92.25</course>
  <speed>0.022360679774997897</speed>
  <fix>3d</fix>
</trkpt>
<trkpt lat="-35.362881" lon="149.1652222">
  <ele>626.12</ele>
  <time>2026-08-28T19:09:47Z</time>
  <course>74.94</course>
  <speed>0.0</speed>
  <fix>3d</fix>
</trkpt>
<trkpt lat="-35.362881" lon="149.1652221">
  <ele>627.2</ele>
  <time>2026-08-28T19:09:47Z</time>
  <course>92.28</course>
  <speed>0.022360679774997897</speed>
  <fix>3d</fix>
</trkpt>
<trkpt lat="-35.362881" lon="149.1652222">
  <ele>626.62</ele>
  <time>2026-08-28T19:09:47Z</time>
  <course>54.64</course>
  <speed>0.0</speed>
  <fix>3d</fix>
</trkpt>
<trkpt lat="-35.362881" lon="149.1652221">
  <ele>627.7</ele>
  <time>2026-08-28T19:09:47Z</time>
  <course>92.32</course>
  <speed>0.022360679774997897</speed>
  <fix>3d</fix>
</trkpt>
<trkpt lat="-35.362881" lon="149.1652222">
  <ele>627.12</ele>
  <time>2026-08-28T19:09:47Z</time>
  <course>44.89</course>
  <speed>0.0</speed>
  <fix>3d</fix>
</trkpt>
<trkpt lat="-35.362881" lon="149.1652221">
  <ele>628.2</ele>
  <time>2026-08-28T19:09:47Z</time>
  <course>92.35</course>
  <speed>0.022360679774997897</speed>
  <fix>3d</fix>
</trkpt>
<trkpt lat="-35.362881" lon="149.1652222">
  <ele>627.62</ele>
  <time>2026-08-28T19:09:47Z</time>
  <course>46.81</course>
  <speed>0.0</speed>
  <fix>3d</fix>
</trkpt>
<trkpt lat="-35.362881" lon="149.1652221">
  <ele>628.71</ele>
  <time>2026-08-28T19:09:47Z</time>
  <course>92.38</course>
  <speed>0.022360679774997897</speed>
  <fix>3d</fix>
</trkpt>
<trkpt lat="-35.362881" lon="149.1652222">
  <ele>628.13</ele>
  <time>2026-08-28T19:09:47Z</time>
  <course>45.65</course>
  <speed>0.0</speed>
  <fix>3d</fix>
</trkpt>
<trkpt lat="-35.362881" lon="149.1652221">
  <ele>629.21</ele>
  <time>2026-08-28T19:09:47Z</time>
  <course>92.43</course>
  <speed>0.022360679774997897</speed>
  <fix>3d</fix>
</trkpt>
<trkpt lat="-35.362881" lon="149.1652222">
  <ele>628.63</ele>
  <time>2026-08-28T19:09:47Z</time>
  <course>44.25</course>
  <speed>0.0</speed>
  <fix>3d</fix>
</trkpt>
<trkpt lat="-35.362881" lon="149.1652221">
  <ele>629.71</ele>
  <time>2026-08-28T19:09:47Z</time>
  <course>92.47</course>
  <speed>0.022360679774997897</speed>
  <fix>3d</fix>
</trkpt>
<trkpt lat="-35.362881" lon="149.1652222">
  <ele>629.13</ele>
  <time>2026-08-28T19:09:47Z</time>
  <course>45.18</course>
  <speed>0.0</speed>
  <fix>3d</fix>
</trkpt>
<trkpt lat="-35.362881" lon="149.1652221">
  <ele>630.22</ele>
  <time>2026-08-28T19:09:47Z</time>
  <course>92.51</course>
  <speed>0.022360679774997897</speed>
  <fix>3d</fix>
</trkpt>
<trkpt lat="-35.362881" lon="149.1652222">
  <ele>629.63</ele>
  <time>2026-08-28T19:09:47Z</time>
  <course>44.2</course>
  <speed>0.0</speed>
  <fix>3d</fix>
</trkpt>
<trkpt lat="-35.362881" lon="149.1652221">
  <ele>630.72</ele>
  <time>2026-08-28T19:09:47Z</time>
  <course>92.57</course>
  <speed>0.022360679774997897</speed>
  <fix>3d</fix>
</trkpt>
<trkpt lat="-35.362881" lon="149.1652222">
  <ele>630.13</ele>
  <time>2026-08-28T19:09:47Z</time>
  <course>42.88</course>
  <speed>0.0</speed>
  <fix>3d</fix>
</trkpt>
<trkpt lat="-35.362881" lon="149.1652221">
  <ele>631.21</ele>
  <time>2026-08-28T19:09:47Z</time>
  <course>92.6</course>
  <speed>0.022360679774997897</speed>
  <fix>3d</fix>
</trkpt>
<trkpt lat="-35.362881" lon="149.1652222">
  <ele>630.63</ele>
  <time>2026-08-28T19:09:47Z</time>
  <course>43.99</course>
  <speed>0.0</speed>
  <fix>3d</fix>
</trkpt>
<trkpt lat="-35.362881" lon="149.1652221">
  <ele>631.71</ele>
  <time>2026-08-28T19:09:47Z</time>
  <course>92.62</course>
  <speed>0.022360679774997897</speed>
  <fix>3d</fix>
</trkpt>
<trkpt lat="-35.362881" lon="149.1652222">
  <ele>631.12</ele>
  <time>2026-08-28T19:09:47Z</time>
  <course>49.81</course>
  <speed>0.0</speed>
  <fix>3d</fix>
</trkpt>
<trkpt lat="-35.362881" lon="149.1652221">
  <ele>632.21</ele>
  <time>2026-08-28T19:09:47Z</time>
  <course>92.64</course>
  <speed>0.022360679774997897</speed>
  <fix>3d</fix>
</trkpt>
<trkpt lat="-35.362881" lon="149.1652222">
  <ele>631.62</ele>
  <time>2026-08-28T19:09:47Z</time>
  <course>53.55</course>
  <speed>0.0</speed>
  <fix>3d</fix>
</trkpt>
<trkpt lat="-35.362881" lon="149.1652221">
  <ele>632.71</ele>
  <time>2026-08-28T19:09:47Z</time>
  <course>92.67</course>
  <speed>0.022360679774997897</speed>
  <fix>3d</fix>
</trkpt>
<trkpt lat="-35.362881" lon="149.1652222">
  <ele>632.12</ele>
  <time>2026-08-28T19:09:47Z</time>
  <course>52.62</course>
  <speed>0.0</speed>
  <fix>3d</fix>
</trkpt>
<trkpt lat="-35.362881" lon="149.1652221">
  <ele>633.21</ele>
  <time>2026-08-28T19:09:47Z</time>
  <course>92.71</course>
  <speed>0.022360679774997897</speed>
  <fix>3d</fix>
</trkpt>
<trkpt lat="-35.362881" lon="149.1652222">
  <ele>632.62</ele>
  <time>2026-08-28T19:09:47Z</time>
  <course>50.49</course>
  <speed>0.0</speed>
  <fix>3d</fix>
</trkpt>
<trkpt lat="-35.362881" lon="149.1652221">
  <ele>633.71</ele>
  <time>2026-08-28T19:09:47Z</time>
  <course>92.73</course>
  <speed>0.022360679774997897</speed>
  <fix>3d</fix>
</trkpt>
<trkpt lat="-35.362881" lon="149.1652222">
  <ele>633.12</ele>
  <time>2026-08-28T19:09:47Z</time>
  <course>49.68</course>
  <speed>0.0</speed>
  <fix>3d</fix>
</trkpt>
<trkpt lat="-35.362881" lon="149.1652221">
  <ele>634.21</ele>
  <time>2026-08-28T19:09:47Z</time>
  <course>92.76</course>
  <speed>0.022360679774997897</speed>
  <fix>3d</fix>
</trkpt>
<trkpt lat="-35.362881" lon="149.1652222">
  <ele>633.62</ele>
  <time>2026-08-28T19:09:47Z</time>
  <course>50.79</course>
  <speed>0.0</speed>
  <fix>3d</fix>
</trkpt>
<trkpt lat="-35.362881" lon="149.1652221">
  <ele>634.71</ele>
  <time>2026-08-28T19:09:47Z</time>
  <course>92.79</course>
  <speed>0.022360679774997897</speed>
  <fix>3d</fix>
</trkpt>
<trkpt lat="-35.362881" lon="149.1652222">
  <ele>634.11</ele>
  <time>2026-08-28T19:09:47Z</time>
  <course>52.43</course>
  <speed>0.0</speed>
  <fix>3d</fix>
</trkpt>
<trkpt lat="-35.362881" lon="149.1652221">
  <ele>635.2</ele>
  <time>2026-08-28T19:09:47Z</time>
  <course>92.82</course>
  <speed>0.022360679774997897</speed>
  <fix>3d</fix>
</trkpt>
<trkpt lat="-35.362881" lon="149.1652222">
  <ele>634.61</ele>
  <time>2026-08-28T19:09:47Z</time>
  <course>54.17</course>
  <speed>0.0</speed>
  <fix>3d</fix>
</trkpt>
<trkpt lat="-35.362881" lon="149.1652221">
  <ele>635.7</ele>
  <time>2026-08-28T19:09:47Z</time>
  <course>92.85</course>
  <speed>0.022360679774997897</speed>
  <fix>3d</fix>
</trkpt>
<trkpt lat="-35.362881" lon="149.1652222">
  <ele>635.11</ele>
  <time>2026-08-28T19:09:47Z</time>
  <course>55.7</course>
  <speed>0.0</speed>
  <fix>3d</fix>
</trkpt>
<trkpt lat="-35.362881" lon="149.1652221">
  <ele>636.19</ele>
  <time>2026-08-28T19:09:47Z</time>
  <course>92.88</course>
  <speed>0.022360679774997897</speed>
  <fix>3d</fix>
</trkpt>
<trkpt lat="-35.362881" lon="149.1652222">
  <ele>635.61</ele>
  <time>2026-08-28T19:09:47Z</time>
  <course>56.28</course>
  <speed>0.0</speed>
  <fix>3d</fix>
</trkpt>
<trkpt lat="-35.362881" lon="149.1652221">
  <ele>636.69</ele>
  <time>2026-08-28T19:09:47Z</time>
  <course>92.85</course>
  <speed>0.022360679774997897</speed>
  <fix>3d</fix>
</trkpt>
<trkpt lat="-35.362881" lon="149.1652222">
  <ele>636.11</ele>
  <time>2026-08-28T19:09:47Z</time>
  <course>54.28</course>
  <speed>0.0</speed>
  <fix>3d</fix>
</trkpt>
<trkpt lat="-35.362881" lon="149.1652221">
  <ele>637.18</ele>
  <time>2026-08-28T19:09:47Z</time>
  <course>92.89</course>
  <speed>0.022360679774997897</speed>
  <fix>3d</fix>
</trkpt>
<trkpt lat="-35.362881" lon="149.1652222">
  <ele>636.61</ele>
  <time>2026-08-28T19:09:47Z</time>
  <course>46.57</course>
  <speed>0.0</speed>
  <fix>3d</fix>
</trkpt>
<trkpt lat="-35.362881" lon="149.1652221">
  <ele>637.69</ele>
  <time>2026-08-28T19:09:47Z</time>
  <course>92.89</course>
  <speed>0.022360679774997897</speed>
  <fix>3d</fix>
</trkpt>
<trkpt lat="-35.3628809" lon="149.1652223">
  <ele>637.11</ele>
  <time>2026-08-28T19:09:47Z</time>
  <course>41.52</course>
  <speed>0.0</speed>
  <fix>3d</fix>
</trkpt>
<trkpt lat="-35.362881" lon="149.1652221">
  <ele>638.19</ele>
  <time>2026-08-28T19:09:47Z</time>
  <course>92.93</course>
  <speed>0.022360679774997897</speed>
  <fix>3d</fix>
</trkpt>
<trkpt lat="-35.3628809" lon="149.1652224">
  <ele>637.62</ele>
  <time>2026-08-28T19:09:47Z</time>
  <course>39.4</course>
  <speed>0.0</speed>
  <fix>3d</fix>
</trkpt>
<trkpt lat="-35.362881" lon="149.1652221">
  <ele>638.7</ele>
  <time>2026-08-28T19:09:47Z</time>
  <course>92.96</course>
  <speed>0.022360679774997897</speed>
  <fix>3d</fix>
</trkpt>
<trkpt lat="-35.3628809" lon="149.1652224">
  <ele>638.12</ele>
  <time>2026-08-28T19:09:47Z</time>
  <course>35.56</course>
  <speed>0.0</speed>
  <fix>3d</fix>
</trkpt>
<trkpt lat="-35.362881" lon="149.1652221">
  <ele>639.2</ele>
  <time>2026-08-28T19:09:47Z</time>
  <course>93.01</course>
  <speed>0.022360679774997897</speed>
  <fix>3d</fix>
</trkpt>
<trkpt lat="-35.3628809" lon="149.1652224">
  <ele>638.63</ele>
  <time>2026-08-28T19:09:47Z</time>
  <course>29.76</course>
  <speed>0.0</speed>
  <fix>3d</fix>
</trkpt>
<trkpt lat="-35.362881" lon="149.1652221">
  <ele>639.7</ele>
  <time>2026-08-28T19:09:47Z</time>
  <course>93.03</course>
  <speed>0.022360679774997897</speed>
  <fix>3d</fix>
</trkpt>
<trkpt lat="-35.3628809" lon="149.1652224">
  <ele>639.13</ele>
  <time>2026-08-28T19:09:47Z</time>
  <course>22.85</course>
  <speed>0.0</speed>
  <fix>3d</fix>
</trkpt>
<trkpt lat="-35.362881" lon="149.1652221">
  <ele>640.2</ele>
  <time>2026-08-28T19:09:47Z</time>
  <course>93.07</course>
  <speed>0.022360679774997897</speed>
  <fix>3d</fix>
</trkpt>
<trkpt lat="-35.3628809" lon="149.1652224">
  <ele>639.63</ele>
  <time>2026-08-28T19:09:47Z</time>
  <course>6.49</course>
  <speed>0.0</speed>
  <fix>3d</fix>
</trkpt>
<trkpt lat="-35.362881" lon="149.1652221">
  <ele>640.7</ele>
  <time>2026-08-28T19:09:47Z</time>
  <course>93.06</course>
  <speed>0.022360679774997897</speed>
  <fix>3d</fix>
</trkpt>
<trkpt lat="-35.3628809" lon="149.1652224">
  <ele>640.14</ele>
  <time>2026-08-28T19:09:47Z</time>
  <course>316.31</course>
  <speed>0.0</speed>
  <fix>3d</fix>
</trkpt>
<trkpt lat="-35.362881" lon="149.1652221">
  <ele>641.2</ele>
  <time>2026-08-28T19:09:47Z</time>
  <course>93.08</course>
  <speed>0.022360679774997897</speed>
  <fix>3d</fix>
</trkpt>
<trkpt lat="-35.3628809" lon="149.1652224">
  <ele>640.64</ele>
  <time>2026-08-28T19:09:47Z</time>
  <course>266.2</course>
  <speed>0.0</speed>
  <fix>3d</fix>
</trkpt>
<trkpt lat="-35.362881" lon="149.1652221">
  <ele>641.7</ele>
  <time>2026-08-28T19:09:47Z</time>
  <course>93.12</course>
  <speed>0.022360679774997897</speed>
  <fix>3d</fix>
</trkpt>
<trkpt lat="-35.3628809" lon="149.1652224">
  <ele>641.14</ele>
  <time>2026-08-28T19:09:47Z</time>
  <course>251.78</course>
  <speed>0.0</speed>
  <fix>3d</fix>
</trkpt>
<trkpt lat="-35.362881" lon="149.1652221">
  <ele>642.2</ele>
  <time>2026-08-28T19:09:47Z</time>
  <course>93.16</course>
  <speed>0.022360679774997897</speed>
  <fix>3d</fix>
</trkpt>
<trkpt lat="-35.3628809" lon="149.1652224">
  <ele>641.64</ele>
  <time>2026-08-28T19:09:47Z</time>
  <course>249.23</course>
  <speed>0.0</speed>
  <fix>3d</fix>
</trkpt>
<trkpt lat="-35.362881" lon="149.1652221">
  <ele>642.71</ele>
  <time>2026-08-28T19:09:47Z</time>
  <course>93.18</course>
  <speed>0.022360679774997897</speed>
  <fix>3d</fix>
</trkpt>
<trkpt lat="-35.3628809" lon="149.1652224">
  <ele>642.14</ele>
  <time>2026-08-28T19:09:47Z</time>
  <course>250.48</course>
  <speed>0.0</speed>
  <fix>3d</fix>
</trkpt>
<trkpt lat="-35.362881" lon="149.1652221">
  <ele>643.21</ele>
  <time>2026-08-28T19:09:47Z</time>
  <course>93.21</course>
  <speed>0.022360679774997897</speed>
  <fix>3d</fix>
</trkpt>
<trkpt lat="-35.3628809" lon="149.1652224">
  <ele>642.65</ele>
  <time>2026-08-28T19:09:47Z</time>
  <course>249.93</course>
  <speed>0.0</speed>
  <fix>3d</fix>
</trkpt>
<trkpt lat="-35.362881" lon="149.1652221">
  <ele>643.72</ele>
  <time>2026-08-28T19:09:47Z</time>
  <course>93.23</course>
  <speed>0.022360679774997897</speed>
  <fix>3d</fix>
</trkpt>
<trkpt lat="-35.3628809" lon="149.1652224">
  <ele>643.15</ele>
  <time>2026-08-28T19:09:47Z</time>
  <course>250.02</course>
  <speed>0.0</speed>
  <fix>3d</fix>
</trkpt>
<trkpt lat="-35.362881" lon="149.1652221">
  <ele>644.22</ele>
  <time>2026-08-28T19:09:47Z</time>
  <course>93.25</course>
  <speed>0.0316227766016838</speed>
  <fix>3d</fix>
</trkpt>
<trkpt lat="-35.3628809" lon="149.1652224">
  <ele>643.65</ele>
  <time>2026-08-28T19:09:47Z</time>
  <course>249.93</course>
  <speed>0.0</speed>
  <fix>3d</fix>
</trkpt>
<trkpt lat="-35.362881" lon="149.1652221">
  <ele>644.73</ele>
  <time>2026-08-28T19:09:47Z</time>
  <course>93.28</course>
  <speed>0.0316227766016838</speed>
  <fix>3d</fix>
</trkpt>
<trkpt lat="-35.3628809" lon="149.1652224">
  <ele>644.15</ele>
  <time>2026-08-28T19:09:47Z</time>
  <course>249.38</course>
  <speed>0.0</speed>
  <fix>3d</fix>
</trkpt>
<trkpt lat="-35.362881" lon="149.1652221">
  <ele>645.23</ele>
  <time>2026-08-28T19:09:47Z</time>
  <course>93.32</course>
  <speed>0.022360679774997897</speed>
  <fix>3d</fix>
</trkpt>
<trkpt lat="-35.3628809" lon="149.1652223">
  <ele>644.65</ele>
  <time>2026-08-28T19:09:47Z</time>
  <course>246.84</course>
  <speed>0.01</speed>
  <fix>3d</fix>
</trkpt>
<trkpt lat="-35.362881" lon="149.1652221">
  <ele>645.73</ele>
  <time>2026-08-28T19:09:47Z</time>
  <course>93.35</course>
  <speed>0.022360679774997897</speed>
  <fix>3d</fix>
</trkpt>
<trkpt lat="-35.3628809" lon="149.1652222">
  <ele>645.14</ele>
  <time>2026-08-28T19:09:47Z</time>
  <course>241.76</course>
  <speed>0.0</speed>
  <fix>3d</fix>
</trkpt>
<trkpt lat="-35.362881" lon="149.1652221">
  <ele>646.23</ele>
  <time>2026-08-28T19:09:47Z</time>
  <course>93.39</course>
  <speed>0.022360679774997897</speed>
  <fix>3d</fix>
</trkpt>
<trkpt lat="-35.3628809" lon="149.1652222">
  <ele>645.64</ele>
  <time>2026-08-28T19:09:47Z</time>
  <course>238.24</course>
  <speed>0.0</speed>
  <fix>3d</fix>
</trkpt>
<trkpt lat="-35.362881" lon="149.1652221">
  <ele>646.73</ele>
  <time>2026-08-28T19:09:47Z</time>
  <course>93.39</course>
  <speed>0.0282842712474619</speed>
  <fix>3d</fix>
</trkpt>
<trkpt lat="-35.3628809" lon="149.1652222">
  <ele>646.13</ele>
  <time>2026-08-28T19:09:47Z</time>
  <course>233.43</course>
  <speed>0.0</speed>
  <fix>3d</fix>
</trkpt>
<trkpt lat="-35.362881" lon="149.165222">
  <ele>647.22</ele>
  <time>2026-08-28T19:09:47Z</time>
  <course>93.4</course>
  <speed>0.022360679774997897</speed>
  <fix>3d</fix>
</trkpt>
<trkpt lat="-35.3628809" lon="149.1652222">
  <ele>646.63</ele>
  <time>2026-08-28T19:09:47Z</time>
  <course>227.04</course>
  <speed>0.0</speed>
  <fix>3d</fix>
</trkpt>
<trkpt lat="-35.362881" lon="149.165222">
  <ele>647.71</ele>
  <time>2026-08-28T19:09:47Z</time>
  <course>93.38</course>
  <speed>0.022360679774997897</speed>
  <fix>3d</fix>
</trkpt>
<trkpt lat="-35.3628809" lon="149.1652222">
  <ele>647.12</ele>
  <time>2026-08-28T19:09:47Z</time>
  <course>221.27</course>
  <speed>0.0</speed>
  <fix>3d</fix>
</trkpt>
<trkpt lat="-35.362881" lon="149.165222">
  <ele>648.22</ele>
  <time>2026-08-28T19:09:47Z</time>
  <course>93.39</course>
  <speed>0.022360679774997897</speed>
  <fix>3d</fix>
</trkpt>
<trkpt lat="-35.3628809" lon="149.1652222">
  <ele>647.62</ele>
  <time>2026-08-28T19:09:47Z</time>
  <course>214.55</course>
  <speed>0.0</speed>
  <fix>3d</fix>
</trkpt>
<trkpt lat="-35.362881" lon="149.165222">
  <ele>648.72</ele>
  <time>2026-08-28T19:09:47Z</time>
  <course>93.43</course>
  <speed>0.022360679774997897</speed>
  <fix>3d</fix>
</trkpt>
<trkpt lat="-35.3628809" lon="149.1652222">
  <ele>648.11</ele>
  <time>2026-08-28T19:09:47Z</time>
  <course>206.67</course>
  <speed>0.0</speed>
  <fix>3d</fix>
</trkpt>
<trkpt lat="-35.362881" lon="149.165222">
  <ele>649.22</ele>
  <time>2026-08-28T19:09:47Z</time>
  <course>93.45</course>
  <speed>0.022360679774997897</speed>
  <fix>3d</fix>
</trkpt>
<trkpt lat="-35.3628809" lon="149.1652222">
  <ele>648.61</ele>
  <time>2026-08-28T19:09:47Z</time>
  <course>196.96</course>
  <speed>0.0</speed>
  <fix>3d</fix>
</trkpt>
<trkpt lat="-35.362881" lon="149.165222">
  <ele>649.72</ele>
  <time>2026-08-28T19:09:47Z</time>
  <course>93.44</course>
  <speed>0.022360679774997897</speed>
  <fix>3d</fix>
</trkpt>
<trkpt lat="-35.3628809" lon="149.1652222">
  <ele>649.11</ele>
  <time>2026-08-28T19:09:47Z</time>
  <course>187.24</course>
  <speed>0.0</speed>
  <fix>3d</fix>
</trkpt>
<trkpt lat="-35.362881" lon="149.165222">
  <ele>650.21</ele>
  <time>2026-08-28T19:09:47Z</time>
  <course>93.46</course>
  <speed>0.022360679774997897</speed>
  <fix>3d</fix>
</trkpt>
<trkpt lat="-35.3628809" lon="149.1652222">
  <ele>649.61</ele>
  <time>2026-08-28T19:09:47Z</time>
  <course>178.35</course>
  <speed>0.0</speed>
  <fix>3d</fix>
</trkpt>
<trkpt lat="-35.362881" lon="149.165222">
  <ele>650.71</ele>
  <time>2026-08-28T19:09:47Z</time>
  <course>93.47</course>
  <speed>0.022360679774997897</speed>
  <fix>3d</fix>
</trkpt>
<trkpt lat="-35.3628809" lon="149.1652222">
  <ele>650.1</ele>
  <time>2026-08-28T19:09:47Z</time>
  <course>171.65</course>
  <speed>0.0</speed>
  <fix>3d</fix>
</trkpt>
<trkpt lat="-35.362881" lon="149.165222">
  <ele>651.21</ele>
  <time>2026-08-28T19:09:47Z</time>
  <course>93.48</course>
  <speed>0.022360679774997897</speed>
  <fix>3d</fix>
</trkpt>
<trkpt lat="-35.3628809" lon="149.1652222">
  <ele>650.6</ele>
  <time>2026-08-28T19:09:47Z</time>
  <course>168.09</course>
  <speed>0.0</speed>
  <fix>3d</fix>
</trkpt>
<trkpt lat="-35.362881" lon="149.165222">
  <ele>651.7</ele>
  <time>2026-08-28T19:09:47Z</time>
  <course>93.49</course>
  <speed>0.022360679774997897</speed>
  <fix>3d</fix>
</trkpt>
<trkpt lat="-35.362881" lon="149.1652222">
  <ele>651.1</ele>
  <time>2026-08-28T19:09:47Z</time>
  <course>164.64</course>
  <speed>0.0</speed>
  <fix>3d</fix>
</trkpt>
<trkpt lat="-35.362881" lon="149.165222">
  <ele>652.2</ele>
  <time>2026-08-28T19:09:47Z</time>
  <course>93.51</course>
  <speed>0.022360679774997897</speed>
  <fix>3d</fix>
</trkpt>
<trkpt lat="-35.362881" lon="149.1652222">
  <ele>651.6</ele>
  <time>2026-08-28T19:09:47Z</time>
  <course>161.14</course>
  <speed>0.0</speed>
  <fix>3d</fix>
</trkpt>
<trkpt lat="-35.362881" lon="149.165222">
  <ele>652.69</ele>
  <time>2026-08-28T19:09:47Z</time>
  <course>93.52</course>
  <speed>0.022360679774997897</speed>
  <fix>3d</fix>
</trkpt>
<trkpt lat="-35.362881" lon="149.1652222">
  <ele>652.1</ele>
  <time>2026-08-28T19:09:47Z</time>
  <course>157.48</course>
  <speed>0.0</speed>
  <fix>3d</fix>
</trkpt>
<trkpt lat="-35.362881" lon="149.165222">
  <ele>653.2</ele>
  <time>2026-08-28T19:09:47Z</time>
  <course>93.53</course>
  <speed>0.022360679774997897</speed>
  <fix>3d</fix>
</trkpt>
<trkpt lat="-35.362881" lon="149.1652222">
  <ele>652.6</ele>
  <time>2026-08-28T19:09:47Z</time>
  <course>154.26</course>
  <speed>0.0</speed>
  <fix>3d</fix>
</trkpt>
<trkpt lat="-35.362881" lon="149.165222">
  <ele>653.7</ele>
  <time>2026-08-28T19:09:47Z</time>
  <course>93.52</course>
  <speed>0.022360679774997897</speed>
  <fix>3d</fix>
</trkpt>
<trkpt lat="-35.362881" lon="149.1652222">
  <ele>653.1</ele>
  <time>2026-08-28T19:09:47Z</time>
  <course>149.73</course>
  <speed>0.0</speed>
  <fix>3d</fix>
</trkpt>
<trkpt lat="-35.3628811" lon="149.165222">
  <ele>654.2</ele>
  <time>2026-08-28T19:09:47Z</time>
  <course>93.56</course>
  <speed>0.022360679774997897</speed>
  <fix>3d</fix>
</trkpt>
<trkpt lat="-35.362881" lon="149.1652222">
  <ele>653.6</ele>
  <time>2026-08-28T19:09:47Z</time>
  <course>139.28</course>
  <speed>0.0</speed>
  <fix>3d</fix>
</trkpt>
<trkpt lat="-35.3628811" lon="149.165222">
  <ele>654.71</ele>
  <time>2026-08-28T19:09:47Z</time>
  <course>93.57</course>
  <speed>0.022360679774997897</speed>
  <fix>3d</fix>
</trkpt>
<trkpt lat="-35.362881" lon="149.1652222">
  <ele>654.1</ele>
  <time>2026-08-28T19:09:47Z</time>
  <course>124.94</course>
  <speed>0.0</speed>
  <fix>3d</fix>
</trkpt>
<trkpt lat="-35.3628811" lon="149.165222">
  <ele>655.22</ele>
  <time>2026-08-28T19:09:47Z</time>
  <course>93.59</course>
  <speed>0.022360679774997897</speed>
  <fix>3d</fix>
</trkpt>
<trkpt lat="-35.362881" lon="149.1652222">
  <ele>654.6</ele>
  <time>2026-08-28T19:09:47Z</time>
  <course>115.2</course>
  <speed>0.0</speed>
  <fix>3d</fix>
</trkpt>
<trkpt lat="-35.3628811" lon="149.165222">
  <ele>655.72</ele>
  <time>2026-08-28T19:09:47Z</time>
  <course>93.6</course>
  <speed>0.022360679774997897</speed>
  <fix>3d</fix>
</trkpt>
<trkpt lat="-35.362881" lon="149.1652222">
  <ele>655.1</ele>
  <time>2026-08-28T19:09:47Z</time>
  <course>105.04</course>
  <speed>0.0</speed>
  <fix>3d</fix>
</trkpt>
<trkpt lat="-35.3628811" lon="149.165222">
  <ele>656.23</ele>
  <time>2026-08-28T19:09:47Z</time>
  <course>93.67</course>
  <speed>0.022360679774997897</speed>
  <fix>3d</fix>
</trkpt>
<trkpt lat="-35.362881" lon="149.1652222">
  <ele>655.6</ele>
  <time>2026-08-28T19:09:47Z</time>
  <course>85.8</course>
  <speed>0.0</speed>
  <fix>3d</fix>
</trkpt>
<trkpt lat="-35.362881" lon="149.165222">
  <ele>656.73</ele>
  <time>2026-08-28T19:09:47Z</time>
  <course>93.67</course>
  <speed>0.022360679774997897</speed>
  <fix>3d</fix>
</trkpt>
<trkpt lat="-35.362881" lon="149.1652222">
  <ele>656.1</ele>
  <time>2026-08-28T19:09:47Z</time>
  <course>86.01</course>
  <speed>0.0</speed>
  <fix>3d</fix>
</trkpt>
<trkpt lat="-35.362881" lon="149.165222">
  <ele>657.23</ele>
  <time>2026-08-28T19:09:47Z</time>
  <course>93.7</course>
  <speed>0.022360679774997897</speed>
  <fix>3d</fix>
</trkpt>
<trkpt lat="-35.362881" lon="149.1652222">
  <ele>656.59</ele>
  <time>2026-08-28T19:09:47Z</time>
  <course>91.61</course>
  <speed>0.0</speed>
  <fix>3d</fix>
</trkpt>
<trkpt lat="-35.362881" lon="149.165222">
  <ele>657.72</ele>
  <time>2026-08-28T19:09:47Z</time>
  <course>93.71</course>
  <speed>0.022360679774997897</speed>
  <fix>3d</fix>
</trkpt>
<trkpt lat="-35.362881" lon="149.1652222">
  <ele>657.08</ele>
  <time>2026-08-28T19:09:47Z</time>
  <course>88.99</course>
  <speed>0.0</speed>
  <fix>3d</fix>
</trkpt>
<trkpt lat="-35.362881" lon="149.165222">
  <ele>658.22</ele>
  <time>2026-08-28T19:09:47Z</time>
  <course>93.7</course>
  <speed>0.022360679774997897</speed>
  <fix>3d</fix>
</trkpt>
<trkpt lat="-35.362881" lon="149.1652222">
  <ele>657.58</ele>
  <time>2026-08-28T19:09:47Z</time>
  <course>94.93</course>
  <speed>0.0</speed>
  <fix>3d</fix>
</trkpt>
<trkpt lat="-35.362881" lon="149.165222">
  <ele>658.72</ele>
  <time>2026-08-28T19:09:47Z</time>
  <course>93.7</course>
  <speed>0.022360679774997897</speed>
  <fix>3d</fix>
</trkpt>
<trkpt lat="-35.362881" lon="149.1652222">
  <ele>658.07</ele>
  <time>2026-08-28T19:09:47Z</time>
  <course>97.75</course>
  <speed>0.0</speed>
  <fix>3d</fix>
</trkpt>
<trkpt lat="-35.3628811" lon="149.165222">
  <ele>659.21</ele>
  <time>2026-08-28T19:09:47Z</time>
  <course>93.69</course>
  <speed>0.022360679774997897</speed>
  <fix>3d</fix>
</trkpt>
<trkpt lat="-35.362881" lon="149.1652222">
  <ele>658.57</ele>
  <time>2026-08-28T19:09:47Z</time>
  <course>94.48</course>
  <speed>0.0</speed>
  <fix>3d</fix>
</trkpt>
<trkpt lat="-35.3628811" lon="149.165222">
  <ele>659.7</ele>
  <time>2026-08-28T19:09:47Z</time>
  <course>93.69</course>
  <speed>0.022360679774997897</speed>
  <fix>3d</fix>
</trkpt>
<trkpt lat="-35.362881" lon="149.1652222">
  <ele>659.06</ele>
  <time>2026-08-28T19:09:47Z</time>
  <course>94.8</course>
  <speed>0.0</speed>
  <fix>3d</fix>
</trkpt>
<trkpt lat="-35.3628811" lon="149.165222">
  <ele>660.18</ele>
  <time>2026-08-28T19:09:47Z</time>
  <course>93.69</course>
  <speed>0.022360679774997897</speed>
  <fix>3d</fix>
</trkpt>
<trkpt lat="-35.362881" lon="149.1652222">
  <ele>659.56</ele>
  <time>2026-08-28T19:09:47Z</time>
  <course>95.54</course>
  <speed>0.0</speed>
  <fix>3d</fix>
</trkpt>
<trkpt lat="-35.3628811" lon="149.165222">
  <ele>660.68</ele>
  <time>2026-08-28T19:09:47Z</time>
  <course>93.65</course>
  <speed>0.022360679774997897</speed>
  <fix>3d</fix>
</trkpt>
<trkpt lat="-35.362881" lon="149.1652222">
  <ele>660.06</ele>
  <time>2026-08-28T19:09:47Z</time>
  <course>90.1</course>
  <speed>0.0</speed>
  <fix>3d</fix>
</trkpt>
<trkpt lat="-35.362881" lon="149.165222">
  <ele>661.18</ele>
  <time>2026-08-28T19:09:47Z</time>
  <course>93.64</course>
  <speed>0.022360679774997897</speed>
  <fix>3d</fix>
</trkpt>
<trkpt lat="-35.362881" lon="149.1652222">
  <ele>660.56</ele>
  <time>2026-08-28T19:09:47Z</time>
  <course>75.28</course>
  <speed>0.0</speed>
  <fix>3d</fix>
</trkpt>
<trkpt lat="-35.362881" lon="149.165222">
  <ele>661.68</ele>
  <time>2026-08-28T19:09:47Z</time>
  <course>93.66</course>
  <speed>0.022360679774997897</speed>
  <fix>3d</fix>
</trkpt>
<trkpt lat="-35.362881" lon="149.1652222">
  <ele>661.06</ele>
  <time>2026-08-28T19:09:47Z</time>
  <course>55.77</course>
  <speed>0.0</speed>
  <fix>3d</fix>
</trkpt>
<trkpt lat="-35.362881" lon="149.165222">
  <ele>662.18</ele>
  <time>2026-08-28T19:09:47Z</time>
  <course>93.68</course>
  <speed>0.022360679774997897</speed>
  <fix>3d</fix>
</trkpt>
<trkpt lat="-35.362881" lon="149.1652222">
  <ele>661.57</ele>
  <time>2026-08-28T19:09:47Z</time>
  <course>44.63</course>
  <speed>0.0</speed>
  <fix>3d</fix>
</trkpt>
<trkpt lat="-35.362881" lon="149.165222">
  <ele>662.68</ele>
  <time>2026-08-28T19:09:47Z</time>
  <course>93.7</course>
  <speed>0.022360679774997897</speed>
  <fix>3d</fix>
</trkpt>
<trkpt lat="-35.362881" lon="149.1652222">
  <ele>662.07</ele>
  <time>2026-08-28T19:09:47Z</time>
  <course>40.61</course>
  <speed>0.0</speed>
  <fix>3d</fix>
</trkpt>
<trkpt lat="-35.362881" lon="149.165222">
  <ele>663.18</ele>
  <time>2026-08-28T19:09:47Z</time>
  <course>93.72</course>
  <speed>0.022360679774997897</speed>
  <fix>3d</fix>
</trkpt>
<trkpt lat="-35.362881" lon="149.1652222">
  <ele>662.58</ele>
  <time>2026-08-28T19:09:47Z</time>
  <course>38.32</course>
  <speed>0.0</speed>
  <fix>3d</fix>
</trkpt>
<trkpt lat="-35.362881" lon="149.165222">
  <ele>663.69</ele>
  <time>2026-08-28T19:09:47Z</time>
  <course>93.74</course>
  <speed>0.022360679774997897</speed>
  <fix>3d</fix>
</trkpt>
<trkpt lat="-35.362881" lon="149.1652222">
  <ele>663.08</ele>
  <time>2026-08-28T19:09:47Z</time>
  <course>38.15</course>
  <speed>0.0</speed>
  <fix>3d</fix>
</trkpt>
<trkpt lat="-35.362881" lon="149.165222">
  <ele>664.2</ele>
  <time>2026-08-28T19:09:47Z</time>
  <course>93.76</course>
  <speed>0.022360679774997897</speed>
  <fix>3d</fix>
</trkpt>
<trkpt lat="-35.362881" lon="149.1652222">
  <ele>663.59</ele>
  <time>2026-08-28T19:09:47Z</time>
  <course>40.06</course>
  <speed>0.0</speed>
  <fix>3d</fix>
</trkpt>
<trkpt lat="-35.362881" lon="149.165222">
  <ele>664.7</ele>
  <time>2026-08-28T19:09:47Z</time>
  <course>93.78</course>
  <speed>0.022360679774997897</speed>
  <fix>3d</fix>
</trkpt>
<trkpt lat="-35.362881" lon="149.1652222">
  <ele>664.09</ele>
  <time>2026-08-28T19:09:47Z</time>
  <course>40.38</course>
  <speed>0.0</speed>
  <fix>3d</fix>
</trkpt>
<trkpt lat="-35.362881" lon="149.165222">
  <ele>665.2</ele>
  <time>2026-08-28T19:09:48Z</time>
  <course>93.79</course>
  <speed>0.022360679774997897</speed>
  <fix>3d</fix>
</trkpt>
<trkpt lat="-35.362881" lon="149.1652222">
  <ele>664.59</ele>
  <time>2026-08-28T19:09:48Z</time>
  <course>42.79</course>
  <speed>0.0</speed>
  <fix>3d</fix>
</trkpt>
<trkpt lat="-35.362881" lon="149.165222">
  <ele>665.71</ele>
  <time>2026-08-28T19:09:48Z</time>
  <course>93.8</course>
  <speed>0.022360679774997897</speed>
  <fix>3d</fix>
</trkpt>
<trkpt lat="-35.362881" lon="149.1652222">
  <ele>665.1</ele>
  <time>2026-08-28T19:09:48Z</time>
  <course>48.28</course>
  <speed>0.0</speed>
  <fix>3d</fix>
</trkpt>
<trkpt lat="-35.362881" lon="149.165222">
  <ele>666.21</ele>
  <time>2026-08-28T19:09:48Z</time>
  <course>93.81</course>
  <speed>0.022360679774997897</speed>
  <fix>3d</fix>
</trkpt>
<trkpt lat="-35.362881" lon="149.1652222">
  <ele>665.6</ele>
  <time>2026-08-28T19:09:48Z</time>
  <course>48.93</course>
  <speed>0.0</speed>
  <fix>3d</fix>
</trkpt>
<trkpt lat="-35.362881" lon="149.165222">
  <ele>666.71</ele>
  <time>2026-08-28T19:09:48Z</time>
  <course>93.82</course>
  <speed>0.022360679774997897</speed>
  <fix>3d</fix>
</trkpt>
<trkpt lat="-35.362881" lon="149.1652222">
  <ele>666.1</ele>
  <time>2026-08-28T19:09:48Z</time>
  <course>47.66</course>
  <speed>0.0</speed>
  <fix>3d</fix>
</trkpt>
<trkpt lat="-35.362881" lon="149.165222">
  <ele>667.21</ele>
  <time>2026-08-28T19:09:48Z</time>
  <course>93.83</course>
  <speed>0.022360679774997897</speed>
  <fix>3d</fix>
</trkpt>
<trkpt lat="-35.362881" lon="149.1652222">
  <ele>666.6</ele>
  <time>2026-08-28T19:09:48Z</time>
  <course>47.43</course>
  <speed>0.0</speed>
  <fix>3d</fix>
</trkpt>
<trkpt lat="-35.362881" lon="149.165222">
  <ele>667.7</ele>
  <time>2026-08-28T19:09:48Z</time>
  <course>93.84</course>
  <speed>0.022360679774997897</speed>
  <fix>3d</fix>
</trkpt>
<trkpt lat="-35.362881" lon="149.1652222">
  <ele>667.1</ele>
  <time>2026-08-28T19:09:48Z</time>
  <course>47.66</course>
  <speed>0.0</speed>
  <fix>3d</fix>
</trkpt>
<trkpt lat="-35.362881" lon="149.165222">
  <ele>668.2</ele>
  <time>2026-08-28T19:09:48Z</time>
  <course>93.85</course>
  <speed>0.022360679774997897</speed>
  <fix>3d</fix>
</trkpt>
<trkpt lat="-35.362881" lon="149.1652222">
  <ele>667.6</ele>
  <time>2026-08-28T19:09:48Z</time>
  <course>48.21</course>
  <speed>0.0</speed>
  <fix>3d</fix>
</trkpt>
<trkpt lat="-35.362881" lon="149.165222">
  <ele>668.7</ele>
  <time>2026-08-28T19:09:48Z</time>
  <course>93.84</course>
  <speed>0.022360679774997897</speed>
  <fix>3d</fix>
</trkpt>
<trkpt lat="-35.362881" lon="149.1652222">
  <ele>668.1</ele>
  <time>2026-08-28T19:09:48Z</time>
  <course>49.97</course>
  <speed>0.0</speed>
  <fix>3d</fix>
</trkpt>
<trkpt lat="-35.362881" lon="149.165222">
  <ele>669.2</ele>
  <time>2026-08-28T19:09:48Z</time>
  <course>93.83</course>
  <speed>0.022360679774997897</speed>
  <fix>3d</fix>
</trkpt>
<trkpt lat="-35.362881" lon="149.1652223">
  <ele>668.6</ele>
  <time>2026-08-28T19:09:48Z</time>
  <course>55.53</course>
  <speed>0.0</speed>
  <fix>3d</fix>
</trkpt>
<trkpt lat="-35.362881" lon="149.165222">
  <ele>669.7</ele>
  <time>2026-08-28T19:09:48Z</time>
  <course>93.84</course>
  <speed>0.022360679774997897</speed>
  <fix>3d</fix>
</trkpt>
<trkpt lat="-35.362881" lon="149.1652224">
  <ele>669.1</ele>
  <time>2026-08-28T19:09:48Z</time>
  <course>62.45</course>
  <speed>0.0</speed>
  <fix>3d</fix>
</trkpt>
<trkpt lat="-35.362881" lon="149.165222">
  <ele>670.2</ele>
  <time>2026-08-28T19:09:48Z</time>
  <course>93.86</course>
  <speed>0.022360679774997897</speed>
  <fix>3d</fix>
</trkpt>
<trkpt lat="-35.362881" lon="149.1652224">
  <ele>669.6</ele>
  <time>2026-08-28T19:09:48Z</time>
  <course>60.63</course>
  <speed>0.0</speed>
  <fix>3d</fix>
</trkpt>
<trkpt lat="-35.362881" lon="149.165222">
  <ele>670.71</ele>
  <time>2026-08-28T19:09:48Z</time>
  <course>93.87</course>
  <speed>0.022360679774997897</speed>
  <fix>3d</fix>
</trkpt>
<trkpt lat="-35.362881" lon="149.1652224">
  <ele>670.1</ele>
  <time>2026-08-28T19:09:48Z</time>
  <course>57.72</course>
  <speed>0.0</speed>
  <fix>3d</fix>
</trkpt>
<trkpt lat="-35.362881" lon="149.165222">
  <ele>671.21</ele>
  <time>2026-08-28T19:09:48Z</time>
  <course>93.88</course>
  <speed>0.022360679774997897</speed>
  <fix>3d</fix>
</trkpt>
<trkpt lat="-35.362881" lon="149.1652224">
  <ele>670.6</ele>
  <time>2026-08-28T19:09:48Z</time>
  <course>51.57</course>
  <speed>0.0</speed>
  <fix>3d</fix>
</trkpt>
<trkpt lat="-35.362881" lon="149.165222">
  <ele>671.71</ele>
  <time>2026-08-28T19:09:48Z</time>
  <course>93.89</course>
  <speed>0.022360679774997897</speed>
  <fix>3d</fix>
</trkpt>
<trkpt lat="-35.362881" lon="149.1652224">
  <ele>671.1</ele>
  <time>2026-08-28T19:09:48Z</time>
  <course>27.46</course>
  <speed>0.0</speed>
  <fix>3d</fix>
</trkpt>
<trkpt lat="-35.362881" lon="149.165222">
  <ele>672.21</ele>
  <time>2026-08-28T19:09:48Z</time>
  <course>93.9</course>
  <speed>0.022360679774997897</speed>
  <fix>3d</fix>
</trkpt>
<trkpt lat="-35.362881" lon="149.1652224">
  <ele>671.6</ele>
  <time>2026-08-28T19:09:48Z</time>
  <course>351.33</course>
  <speed>0.0</speed>
  <fix>3d</fix>
</trkpt>
<trkpt lat="-35.362881" lon="149.1652221">
  <ele>672.7</ele>
  <time>2026-08-28T19:09:48Z</time>
  <course>93.91</course>
  <speed>0.022360679774997897</speed>
  <fix>3d</fix>
</trkpt>
<trkpt lat="-35.362881" lon="149.1652224">
  <ele>672.1</ele>
  <time>2026-08-28T19:09:48Z</time>
  <course>313.18</course>
  <speed>0.0</speed>
  <fix>3d</fix>
</trkpt>
<trkpt lat="-35.362881" lon="149.1652221">
  <ele>673.2</ele>
  <time>2026-08-28T19:09:48Z</time>
  <course>93.91</course>
  <speed>0.022360679774997897</speed>
  <fix>3d</fix>
</trkpt>
<trkpt lat="-35.362881" lon="149.1652224">
  <ele>672.6</ele>
  <time>2026-08-28T19:09:48Z</time>
  <course>293.07</course>
  <speed>0.0</speed>
  <fix>3d</fix>
</trkpt>
<trkpt lat="-35.362881" lon="149.1652221">
  <ele>673.69</ele>
  <time>2026-08-28T19:09:48Z</time>
  <course>93.88</course>
  <speed>0.022360679774997897</speed>
  <fix>3d</fix>
</trkpt>
<trkpt lat="-35.362881" lon="149.1652224">
  <ele>673.1</ele>
  <time>2026-08-28T19:09:48Z</time>
  <course>284.11</course>
  <speed>0.0</speed>
  <fix>3d</fix>
</trkpt>
<trkpt lat="-35.362881" lon="149.1652221">
  <ele>674.2</ele>
  <time>2026-08-28T19:09:48Z</time>
  <course>93.88</course>
  <speed>0.022360679774997897</speed>
  <fix>3d</fix>
</trkpt>
<trkpt lat="-35.362881" lon="149.1652224">
  <ele>673.6</ele>
  <time>2026-08-28T19:09:48Z</time>
  <course>281.81</course>
  <speed>0.0</speed>
  <fix>3d</fix>
</trkpt>
<trkpt lat="-35.362881" lon="149.1652221">
  <ele>674.7</ele>
  <time>2026-08-28T19:09:48Z</time>
  <course>93.91</course>
  <speed>0.022360679774997897</speed>
  <fix>3d</fix>
</trkpt>
<trkpt lat="-35.362881" lon="149.1652224">
  <ele>674.1</ele>
  <time>2026-08-28T19:09:48Z</time>
  <course>282.34</course>
  <speed>0.0</speed>
  <fix>3d</fix>
</trkpt>
<trkpt lat="-35.362881" lon="149.1652221">
  <ele>675.21</ele>
  <time>2026-08-28T19:09:48Z</time>
  <course>93.94</course>
  <speed>0.0316227766016838</speed>
  <fix>3d</fix>
</trkpt>
<trkpt lat="-35.362881" lon="149.1652224">
  <ele>674.61</ele>
  <time>2026-08-28T19:09:48Z</time>
  <course>282.81</course>
  <speed>0.0</speed>
  <fix>3d</fix>
</trkpt>
<trkpt lat="-35.362881" lon="149.1652221">
  <ele>675.71</ele>
  <time>2026-08-28T19:09:48Z</time>
  <course>93.95</course>
  <speed>0.0316227766016838</speed>
  <fix>3d</fix>
</trkpt>
<trkpt lat="-35.362881" lon="149.1652224">
  <ele>675.11</ele>
  <time>2026-08-28T19:09:48Z</time>
  <course>282.31</course>
  <speed>0.0</speed>
  <fix>3d</fix>
</trkpt>
<trkpt lat="-35.362881" lon="149.1652221">
  <ele>676.21</ele>
  <time>2026-08-28T19:09:48Z</time>
  <course>93.95</course>
  <speed>0.0316227766016838</speed>
  <fix>3d</fix>
</trkpt>
<trkpt lat="-35.362881" lon="149.1652224">
  <ele>675.61</ele>
  <time>2026-08-28T19:09:48Z</time>
  <course>280.7</course>
  <speed>0.0</speed>
  <fix>3d</fix>
</trkpt>
<trkpt lat="-35.362881" lon="149.1652221">
  <ele>676.72</ele>
  <time>2026-08-28T19:09:48Z</time>
  <course>93.96</course>
  <speed>0.0316227766016838</speed>
  <fix>3d</fix>
</trkpt>
<trkpt lat="-35.362881" lon="149.1652223">
  <ele>676.11</ele>
  <time>2026-08-28T19:09:48Z</time>
  <course>278.81</course>
  <speed>0.01</speed>
  <fix>3d</fix>
</trkpt>
<trkpt lat="-35.362881" lon="149.1652221">
  <ele>677.22</ele>
  <time>2026-08-28T19:09:48Z</time>
  <course>93.96</course>
  <speed>0.0316227766016838</speed>
  <fix>3d</fix>
</trkpt>
<trkpt lat="-35.362881" lon="149.1652222">
  <ele>676.61</ele>
  <time>2026-08-28T19:09:48Z</time>
  <course>276.97</course>
  <speed>0.01</speed>
  <fix>3d</fix>
</trkpt>
<trkpt lat="-35.362881" lon="149.1652221">
  <ele>677.72</ele>
  <time>2026-08-28T19:09:48Z</time>
  <course>93.97</course>
  <speed>0.0316227766016838</speed>
  <fix>3d</fix>
</trkpt>
<trkpt lat="-35.362881" lon="149.1652222">
  <ele>677.11</ele>
  <time>2026-08-28T19:09:48Z</time>
  <course>276.62</course>
  <speed>0.01</speed>
  <fix>3d</fix>
</trkpt>
<trkpt lat="-35.362881" lon="149.165222">
  <ele>678.21</ele>
  <time>2026-08-28T19:09:48Z</time>
  <course>93.97</course>
  <speed>0.0316227766016838</speed>
  <fix>3d</fix>
</trkpt>
<trkpt lat="-35.362881" lon="149.1652222">
  <ele>677.61</ele>
  <time>2026-08-28T19:09:48Z</time>
  <course>277.66</course>
  <speed>0.01</speed>
  <fix>3d</fix>
</trkpt>
<trkpt lat="-35.362881" lon="149.165222">
  <ele>678.71</ele>
  <time>2026-08-28T19:09:48Z</time>
  <course>93.99</course>
  <speed>0.022360679774997897</speed>
  <fix>3d</fix>
</trkpt>
<trkpt lat="-35.362881" lon="149.1652222">
  <ele>678.11</ele>
  <time>2026-08-28T19:09:48Z</time>
  <course>280.75</course>
  <speed>0.0</speed>
  <fix>3d</fix>
</trkpt>
<trkpt lat="-35.362881" lon="149.165222">
  <ele>679.21</ele>
  <time>2026-08-28T19:09:48Z</time>
  <course>94.08</course>
  <speed>0.022360679774997897</speed>
  <fix>3d</fix>
</trkpt>
<trkpt lat="-35.362881" lon="149.1652222">
  <ele>678.6</ele>
  <time>2026-08-28T19:09:48Z</time>
  <course>290.01</course>
  <speed>0.0</speed>
  <fix>3d</fix>
</trkpt>
<trkpt lat="-35.362881" lon="149.165222">
  <ele>679.69</ele>
  <time>2026-08-28T19:09:48Z</time>
  <course>94.47</course>
  <speed>0.02</speed>
  <fix>3d</fix>
</trkpt>
<trkpt lat="-35.362881" lon="149.1652222">
  <ele>679.09</ele>
  <time>2026-08-28T19:09:48Z</time>
  <course>312.08</course>
  <speed>0.0</speed>
  <fix>3d</fix>
</trkpt>
<trkpt lat="-35.362881" lon="149.165222">
  <ele>680.14</ele>
  <time>2026-08-28T19:09:48Z</time>
  <course>94.89</course>
  <speed>0.022360679774997897</speed>
  <fix>3d</fix>
</trkpt>
<trkpt lat="-35.362881" lon="149.1652222">
  <ele>679.57</ele>
  <time>2026-08-28T19:09:48Z</time>
  <course>334.12</course>
  <speed>0.0</speed>
  <fix>3d</fix>
</trkpt>
<trkpt lat="-35.362881" lon="149.165222">
  <ele>680.55</ele>
  <time>2026-08-28T19:09:48Z</time>
  <course>95.29</course>
  <speed>0.01414213562373095</speed>
  <fix>3d</fix>
</trkpt>
<trkpt lat="-35.362881" lon="149.1652222">
  <ele>680.01</ele>
  <time>2026-08-28T19:09:48Z</time>
  <course>357.68</course>
  <speed>0.0</speed>
  <fix>3d</fix>
</trkpt>
<trkpt lat="-35.362881" lon="149.165222">
  <ele>680.93</ele>
  <time>2026-08-28T19:09:48Z</time>
  <course>95.68</course>
  <speed>0.01414213562373095</speed>
  <fix>3d</fix>
</trkpt>
<trkpt lat="-35.362881" lon="149.1652222">
  <ele>680.41</ele>
  <time>2026-08-28T19:09:48Z</time>
  <course>83.23</course>
  <speed>0.0</speed>
  <fix>3d</fix>
</trkpt>
<trkpt lat="-35.362881" lon="149.165222">
  <ele>681.25</ele>
  <time>2026-08-28T19:09:48Z</time>
  <course>96.03</course>
  <speed>0.022360679774997897</speed>
  <fix>3d</fix>
</trkpt>
<trkpt lat="-35.362881" lon="149.1652222">
  <ele>680.78</ele>
  <time>2026-08-28T19:09:48Z</time>
  <course>134.5</course>
  <speed>0.0</speed>
  <fix>3d</fix>
</trkpt>
<trkpt lat="-35.3628811" lon="149.165222">
  <ele>681.53</ele>
  <time>2026-08-28T19:09:48Z</time>
  <course>96.35</course>
  <speed>0.0316227766016838</speed>
  <fix>3d</fix>
</trkpt>
<trkpt lat="-35.362881" lon="149.1652222">
  <ele>681.09</ele>
  <time>2026-08-28T19:09:48Z</time>
  <course>146.92</course>
  <speed>0.01</speed>
  <fix>3d</fix>
</trkpt>
<trkpt lat="-35.3628811" lon="149.165222">
  <ele>681.76</ele>
  <time>2026-08-28T19:09:48Z</time>
  <course>96.63</course>
  <speed>0.04</speed>
  <fix>3d</fix>
</trkpt>
<trkpt lat="-35.362881" lon="149.1652222">
  <ele>681.36</ele>
  <time>2026-08-28T19:09:48Z</time>
  <course>153.15</course>
  <speed>0.02</speed>
  <fix>3d</fix>
</trkpt>
<trkpt lat="-35.3628812" lon="149.165222">
  <ele>681.96</ele>
  <time>2026-08-28T19:09:48Z</time>
  <course>96.88</course>
  <speed>0.04</speed>
  <fix>3d</fix>
</trkpt>
<trkpt lat="-35.362881" lon="149.1652222">
  <ele>681.58</ele>
  <time>2026-08-28T19:09:48Z</time>
  <course>157.23</course>
  <speed>0.03</speed>
  <fix>3d</fix>
</trkpt>
<trkpt lat="-35.3628812" lon="149.165222">
  <ele>682.11</ele>
  <time>2026-08-28T19:09:48Z</time>
  <course>97.13</course>
  <speed>0.05</speed>
  <fix>3d</fix>
</trkpt>
<trkpt lat="-35.362881" lon="149.1652222">
  <ele>681.77</ele>
  <time>2026-08-28T19:09:48Z</time>
  <course>160.2</course>
  <speed>0.03</speed>
  <fix>3d</fix>
</trkpt>
<trkpt lat="-35.3628813" lon="149.1652221">
  <ele>682.21</ele>
  <time>2026-08-28T19:09:48Z</time>
  <course>97.36</course>
  <speed>0.06</speed>
  <fix>3d</fix>
</trkpt>
<trkpt lat="-35.362881" lon="149.1652222">
  <ele>681.91</ele>
  <time>2026-08-28T19:09:48Z</time>
  <course>162.61</course>
  <speed>0.04</speed>
  <fix>3d</fix>
</trkpt>
<trkpt lat="-35.3628814" lon="149.1652221">
  <ele>682.27</ele>
  <time>2026-08-28T19:09:48Z</time>
  <course>97.56</course>
  <speed>0.06</speed>
  <fix>3d</fix>
</trkpt>
<trkpt lat="-35.3628811" lon="149.1652222">
  <ele>682.01</ele>
  <time>2026-08-28T19:09:48Z</time>
  <course>164.79</course>
  <speed>0.05</speed>
  <fix>3d</fix>
</trkpt>
<trkpt lat="-35.3628814" lon="149.1652221">
  <ele>682.29</ele>
  <time>2026-08-28T19:09:48Z</time>
  <course>97.99</course>
  <speed>0.05</speed>
  <fix>3d</fix>
</trkpt>
<trkpt lat="-35.3628812" lon="149.1652222">
  <ele>682.07</ele>
  <time>2026-08-28T19:09:48Z</time>
  <course>166.84</course>
  <speed>0.05</speed>
  <fix>3d</fix>
</trkpt>
<trkpt lat="-35.3628815" lon="149.1652221">
  <ele>682.28</ele>
  <time>2026-08-28T19:09:48Z</time>
  <course>102.12</course>
  <speed>0.08062257748298549</speed>
  <fix>3d</fix>
</trkpt>
<trkpt lat="-35.3628813" lon="149.1652223">
  <ele>682.09</ele>
  <time>2026-08-28T19:09:48Z</time>
  <course>166.96</course>
  <speed>0.05</speed>
  <fix>3d</fix>
</trkpt>
<trkpt lat="-35.3628816" lon="149.1652221">
  <ele>682.25</ele>
  <time>2026-08-28T19:09:48Z</time>
  <course>101.13</course>
  <speed>0.07071067811865475</speed>
  <fix>3d</fix>
</trkpt>
<trkpt lat="-35.3628814" lon="149.1652224">
  <ele>682.07</ele>
  <time>2026-08-28T19:09:48Z</time>
  <course>168.05</course>
  <speed>0.06</speed>
  <fix>3d</fix>
</trkpt>
<trkpt lat="-35.3628817" lon="149.1652221">
  <ele>682.21</ele>
  <time>2026-08-28T19:09:48Z</time>
  <course>100.87</course>
  <speed>0.07615773105863909</speed>
  <fix>3d</fix>
</trkpt>
<trkpt lat="-35.3628815" lon="149.1652224">
  <ele>682.04</ele>
  <time>2026-08-28T19:09:48Z</time>
  <course>176.58</course>
  <speed>0.06</speed>
  <fix>3d</fix>
</trkpt>
<trkpt lat="-35.3628818" lon="149.1652221">
  <ele>682.18</ele>
  <time>2026-08-28T19:09:48Z</time>
  <course>100.75</course>
  <speed>0.12806248474865697</speed>
  <fix>3d</fix>
</trkpt>
<trkpt lat="-35.3628816" lon="149.1652223">
  <ele>682.01</ele>
  <time>2026-08-28T19:09:48Z</time>
  <course>204.37</course>
  <speed>0.07</speed>
  <fix>3d</fix>
</trkpt>
<trkpt lat="-35.362882" lon="149.1652218">
  <ele>682.15</ele>
  <time>2026-08-28T19:09:48Z</time>
  <course>100.7</course>
  <speed>0.24698178070456936</speed>
  <fix>3d</fix>
</trkpt>
<trkpt lat="-35.3628817" lon="149.1652222">
  <ele>681.99</ele>
  <time>2026-08-28T19:09:48Z</time>
  <course>227.7</course>
  <speed>0.13</speed>
  <fix>3d</fix>
</trkpt>
<trkpt lat="-35.3628823" lon="149.1652213">
  <ele>682.13</ele>
  <time>2026-08-28T19:09:48Z</time>
  <course>100.65</course>
  <speed>0.408166632639171</speed>
  <fix>3d</fix>
</trkpt>
<trkpt lat="-35.362882" lon="149.1652219">
  <ele>681.97</ele>
  <time>2026-08-28T19:09:48Z</time>
  <course>234.09</course>
  <speed>0.26</speed>
  <fix>3d</fix>
</trkpt>
<trkpt lat="-35.3628827" lon="149.1652204">
  <ele>682.12</ele>
  <time>2026-08-28T19:09:48Z</time>
  <course>100.59</course>
  <speed>0.6074537019394977</speed>
  <fix>3d</fix>
</trkpt>
<trkpt lat="-35.3628824" lon="149.1652214">
  <ele>681.97</ele>
  <time>2026-08-28T19:09:48Z</time>
  <course>234.66</course>
  <speed>0.43</speed>
  <fix>3d</fix>
</trkpt>
<trkpt lat="-35.3628834" lon="149.1652192">
  <ele>682.12</ele>
  <time>2026-08-28T19:09:48Z</time>
  <course>100.55</course>
  <speed>0.8431488599292536</speed>
  <fix>3d</fix>
</trkpt>
<trkpt lat="-35.3628829" lon="149.1652204">
  <ele>681.97</ele>
  <time>2026-08-28T19:09:48Z</time>
  <course>233.84</course>
  <speed>0.63</speed>
  <fix>3d</fix>
</trkpt>
<trkpt lat="-35.3628844" lon="149.1652175">
  <ele>682.11</ele>
  <time>2026-08-28T19:09:48Z</time>
  <course>100.48</course>
  <speed>1.0985900054160331</speed>
  <fix>3d</fix>
</trkpt>
<trkpt lat="-35.3628837" lon="149.1652191">
  <ele>681.97</ele>
  <time>2026-08-28T19:09:48Z</time>
  <course>232.87</course>
  <speed>0.87</speed>
  <fix>3d</fix>
</trkpt>
<trkpt lat="-35.3628856" lon="149.1652154">
  <ele>682.11</ele>
  <time>2026-08-28T19:09:48Z</time>
  <course>109.4</course>
  <speed>1.317459676802292</speed>
  <fix>3d</fix>
</trkpt>
<trkpt lat="-35.3628848" lon="149.1652173">
  <ele>681.97</ele>
  <time>2026-08-28T19:09:48Z</time>
  <course>233.18</course>
  <speed>1.11</speed>
  <fix>3d</fix>
</trkpt>
<trkpt lat="-35.3628872" lon="149.1652129">
  <ele>682.12</ele>
  <time>2026-08-28T19:09:48Z</time>
  <course>122.18</course>
  <speed>1.5940200751558933</speed>
  <fix>3d</fix>
</trkpt>
<trkpt lat="-35.3628862" lon="149.1652151">
  <ele>681.98</ele>
  <time>2026-08-28T19:09:48Z</time>
  <course>232.72</course>
  <speed>1.36</speed>
  <fix>3d</fix>
</trkpt>
<trkpt lat="-35.3628891" lon="149.16521">
  <ele>682.11</ele>
  <time>2026-08-28T19:09:48Z</time>
  <course>133.78</course>
  <speed>1.8772320048411704</speed>
  <fix>3d</fix>
</trkpt>
<trkpt lat="-35.3628878" lon="149.1652126">
  <ele>681.98</ele>
  <time>2026-08-28T19:09:48Z</time>
  <course>230.7</course>
  <speed>1.64</speed>
  <fix>3d</fix>
</trkpt>
<trkpt lat="-35.3628915" lon="149.1652068">
  <ele>682.11</ele>
  <time>2026-08-28T19:09:48Z</time>
  <course>145.3</course>
  <speed>2.174143509522773</speed>
  <fix>3d</fix>
</trkpt>
<trkpt lat="-35.3628899" lon="149.1652096">
  <ele>681.99</ele>
  <time>2026-08-28T19:09:48Z</time>
  <course>228.43</course>
  <speed>1.92</speed>
  <fix>3d</fix>
</trkpt>
<trkpt lat="-35.3628944" lon="149.1652032">
  <ele>682.11</ele>
  <time>2026-08-28T19:09:48Z</time>
  <course>156.8</course>
  <speed>2.510318704865978</speed>
  <fix>3d</fix>
</trkpt>
<trkpt lat="-35.3628925" lon="149.1652062">
  <ele>681.99</ele>
  <time>2026-08-28T19:09:48Z</time>
  <course>226.12</course>
  <speed>2.23</speed>
  <fix>3d</fix>
</trkpt>
<trkpt lat="-35.3628979" lon="149.1651992">
  <ele>682.1</ele>
  <time>2026-08-28T19:09:48Z</time>
  <course>168.33</course>
  <speed>2.9</speed>
  <fix>3d</fix>
</trkpt>
<trkpt lat="-35.3628955" lon="149.1652024">
  <ele>681.99</ele>
  <time>2026-08-28T19:09:48Z</time>
  <course>224.03</course>
  <speed>2.58</speed>
  <fix>3d</fix>
</trkpt>
<trkpt lat="-35.362902" lon="149.1651947">
  <ele>682.09</ele>
  <time>2026-08-28T19:09:48Z</time>
  <course>179.91</course>
  <speed>3.348566857627304</speed>
  <fix>3d</fix>
</trkpt>
<trkpt lat="-35.3628992" lon="149.1651982">
  <ele>681.98</ele>
  <time>2026-08-28T19:09:48Z</time>
  <course>222.42</course>
  <speed>2.98</speed>
  <fix>3d</fix>
</trkpt>
<trkpt lat="-35.3629068" lon="149.1651895">
  <ele>682.07</ele>
  <time>2026-08-28T19:09:48Z</time>
  <course>191.64</course>
  <speed>3.8533102652135347</speed>
  <fix>3d</fix>
</trkpt>
<trkpt lat="-35.3629035" lon="149.1651935">
  <ele>681.97</ele>
  <time>2026-08-28T19:09:48Z</time>
  <course>221.43</course>
  <speed>3.44</speed>
  <fix>3d</fix>
</trkpt>
<trkpt lat="-35.3629124" lon="149.1651836">
  <ele>682.06</ele>
  <time>2026-08-28T19:09:48Z</time>
  <course>203.74</course>
  <speed>4.405564663014266</speed>
  <fix>3d</fix>
</trkpt>
<trkpt lat="-35.3629085" lon="149.1651881">
  <ele>681.97</ele>
  <time>2026-08-28T19:09:48Z</time>
  <course>221.11</course>
  <speed>3.95</speed>
  <fix>3d</fix>
</trkpt>
<trkpt lat="-35.3629186" lon="149.1651769">
  <ele>682.06</ele>
  <time>2026-08-28T19:09:48Z</time>
  <course>216.16</course>
  <speed>4.961663027655143</speed>
  <fix>3d</fix>
</trkpt>
<trkpt lat="-35.3629142" lon="149.165182">
  <ele>681.96</ele>
  <time>2026-08-28T19:09:48Z</time>
  <course>221.46</course>
  <speed>4.5</speed>
  <fix>3d</fix>
</trkpt>
<trkpt lat="-35.3629255" lon="149.1651691">
  <ele>682.05</ele>
  <time>2026-08-28T19:09:48Z</time>
  <course>223.42</course>
  <speed>5.501745177668628</speed>
  <fix>3d</fix>
</trkpt>
<trkpt lat="-35.3629205" lon="149.165175">
  <ele>681.96</ele>
  <time>2026-08-28T19:09:48Z</time>
  <course>222.63</course>
  <speed>5.05</speed>
  <fix>3d</fix>
</trkpt>
<trkpt lat="-35.3629327" lon="149.1651603">
  <ele>682.05</ele>
  <time>2026-08-28T19:09:48Z</time>
  <course>223.64</course>
  <speed>5.996415596004</speed>
  <fix>3d</fix>
</trkpt>
<trkpt lat="-35.3629275" lon="149.1651669">
  <ele>681.96</ele>
  <time>2026-08-28T19:09:48Z</time>
  <course>224.15</course>
  <speed>5.59</speed>
  <fix>3d</fix>
</trkpt>
<trkpt lat="-35.3629404" lon="149.1651507">
  <ele>682.06</ele>
  <time>2026-08-28T19:09:48Z</time>
  <course>224.29</course>
  <speed>6.436551871926458</speed>
  <fix>3d</fix>
</trkpt>
<trkpt lat="-35.3629349" lon="149.1651578">
  <ele>681.96</ele>
  <time>2026-08-28T19:09:48Z</time>
  <course>225.41</course>
  <speed>6.08</speed>
  <fix>3d</fix>
</trkpt>
<trkpt lat="-35.3629485" lon="149.1651402">
  <ele>682.07</ele>
  <time>2026-08-28T19:09:48Z</time>
  <course>225.22</course>
  <speed>6.843281376649656</speed>
  <fix>3d</fix>
</trkpt>
<trkpt lat="-35.3629428" lon="149.1651478">
  <ele>681.97</ele>
  <time>2026-08-28T19:09:48Z</time>
  <course>226.48</course>
  <speed>6.53</speed>
  <fix>3d</fix>
</trkpt>
<trkpt lat="-35.3629569" lon="149.1651289">
  <ele>682.08</ele>
  <time>2026-08-28T19:09:48Z</time>
  <course>226.17</course>
  <speed>7.224140087235297</speed>
  <fix>3d</fix>
</trkpt>
<trkpt lat="-35.3629511" lon="149.1651369">
  <ele>681.98</ele>
  <time>2026-08-28T19:09:48Z</time>
  <course>227.5</course>
  <speed>6.95</speed>
  <fix>3d</fix>
</trkpt>
<trkpt lat="-35.3629656" lon="149.1651168">
  <ele>682.09</ele>
  <time>2026-08-28T19:09:48Z</time>
  <course>227.05</course>
  <speed>7.5926609301351</speed>
  <fix>3d</fix>
</trkpt>
<trkpt lat="-35.3629597" lon="149.1651252">
  <ele>681.99</ele>
  <time>2026-08-28T19:09:48Z</time>
  <course>228.48</course>
  <speed>7.34</speed>
  <fix>3d</fix>
</trkpt>
<trkpt lat="-35.3629746" lon="149.1651039">
  <ele>682.1</ele>
  <time>2026-08-28T19:09:48Z</time>
  <course>227.94</course>
  <speed>7.9268972492394525</speed>
  <fix>3d</fix>
</trkpt>
<trkpt lat="-35.3629686" lon="149.1651127">
  <ele>682.0</ele>
  <time>2026-08-28T19:09:48Z</time>
  <course>229.38</course>
  <speed>7.71</speed>
  <fix>3d</fix>
</trkpt>
<trkpt lat="-35.3629839" lon="149.1650903">
  <ele>682.11</ele>
  <time>2026-08-28T19:09:48Z</time>
  <course>228.82</course>
  <speed>8.2265059411636</speed>
  <fix>3d</fix>
</trkpt>
<trkpt lat="-35.3629777" lon="149.1650995">
  <ele>682.01</ele>
  <time>2026-08-28T19:09:48Z</time>
  <course>230.16</course>
  <speed>8.05</speed>
  <fix>3d</fix>
</trkpt>
<trkpt lat="-35.3629933" lon="149.1650762">
  <ele>682.13</ele>
  <time>2026-08-28T19:09:48Z</time>
  <course>229.71</course>
  <speed>8.469386046225546</speed>
  <fix>3d</fix>
</trkpt>
<trkpt lat="-35.3629871" lon="149.1650855">
  <ele>682.02</ele>
  <time>2026-08-28T19:09:48Z</time>
  <course>230.82</course>
  <speed>8.34</speed>
  <fix>3d</fix>
</trkpt>
<trkpt lat="-35.3630029" lon="149.1650614">
  <ele>682.15</ele>
  <time>2026-08-28T19:09:48Z</time>
  <course>230.58</course>
  <speed>8.675488458870774</speed>
  <fix>3d</fix>
</trkpt>
<trkpt lat="-35.3629966" lon="149.165071">
  <ele>682.04</ele>
  <time>2026-08-28T19:09:48Z</time>
  <course>231.36</course>
  <speed>8.58</speed>
  <fix>3d</fix>
</trkpt>
<trkpt lat="-35.3630127" lon="149.1650462">
  <ele>682.17</ele>
  <time>2026-08-28T19:09:48Z</time>
  <course>231.37</course>
  <speed>8.832043931050162</speed>
  <fix>3d</fix>
</trkpt>
<trkpt lat="-35.3630063" lon="149.165056">
  <ele>682.06</ele>
  <time>2026-08-28T19:09:48Z</time>
  <course>231.81</course>
  <speed>8.78</speed>
  <fix>3d</fix>
</trkpt>
<trkpt lat="-35.3630226" lon="149.1650306">
  <ele>682.18</ele>
  <time>2026-08-28T19:09:48Z</time>
  <course>232.05</course>
  <speed>8.959157326445384</speed>
  <fix>3d</fix>
</trkpt>
<trkpt lat="-35.3630161" lon="149.1650406">
  <ele>682.08</ele>
  <time>2026-08-28T19:09:48Z</time>
  <course>232.18</course>
  <speed>8.93</speed>
  <fix>3d</fix>
</trkpt>
<trkpt lat="-35.3630325" lon="149.1650148">
  <ele>682.2</ele>
  <time>2026-08-28T19:09:48Z</time>
  <course>232.58</course>
  <speed>9.062742410551014</speed>
  <fix>3d</fix>
</trkpt>
<trkpt lat="-35.363026" lon="149.1650249">
  <ele>682.09</ele>
  <time>2026-08-28T19:09:48Z</time>
  <course>232.47</course>
  <speed>9.04</speed>
  <fix>3d</fix>
</trkpt>
<trkpt lat="-35.3630425" lon="149.1649987">
  <ele>682.21</ele>
  <time>2026-08-28T19:09:48Z</time>
  <course>233.01</course>
  <speed>9.128592443526001</speed>
  <fix>3d</fix>
</trkpt>
<trkpt lat="-35.3630359" lon="149.165009">
  <ele>682.11</ele>
  <time>2026-08-28T19:09:48Z</time>
  <course>232.66</course>
  <speed>9.13</speed>
  <fix>3d</fix>
</trkpt>
<trkpt lat="-35.3630525" lon="149.1649826">
  <ele>682.22</ele>
  <time>2026-08-28T19:09:48Z</time>
  <course>233.3</course>
  <speed>9.178589216214004</speed>
  <fix>3d</fix>
</trkpt>
<trkpt lat="-35.363046" lon="149.1649929">
  <ele>682.12</ele>
  <time>2026-08-28T19:09:48Z</time>
  <course>232.75</course>
  <speed>9.19</speed>
  <fix>3d</fix>
</trkpt>
<trkpt lat="-35.3630626" lon="149.1649664">
  <ele>682.23</ele>
  <time>2026-08-28T19:09:48Z</time>
  <course>233.46</course>
  <speed>9.198706430797756</speed>
  <fix>3d</fix>
</trkpt>
<trkpt lat="-35.363056" lon="149.1649768">
  <ele>682.13</ele>
  <time>2026-08-28T19:09:48Z</time>
  <course>232.74</course>
  <speed>9.22</speed>
  <fix>3d</fix>
</trkpt>
<trkpt lat="-35.3630727" lon="149.1649502">
  <ele>682.23</ele>
  <time>2026-08-28T19:09:48Z</time>
  <course>233.5</course>
  <speed>9.195096519341165</speed>
  <fix>3d</fix>
</trkpt>
<trkpt lat="-35.363066" lon="149.1649606">
  <ele>682.13</ele>
  <time>2026-08-28T19:09:48Z</time>
  <course>232.64</course>
  <speed>9.24</speed>
  <fix>3d</fix>
</trkpt>
<trkpt lat="-35.3630828" lon="149.1649341">
  <ele>682.23</ele>
  <time>2026-08-28T19:09:48Z</time>
  <course>233.44</course>
  <speed>9.175805141784561</speed>
  <fix>3d</fix>
</trkpt>
<trkpt lat="-35.3630761" lon="149.1649444">
  <ele>682.14</ele>
  <time>2026-08-28T19:09:48Z</time>
  <course>232.46</course>
  <speed>9.22</speed>
  <fix>3d</fix>
</trkpt>
<trkpt lat="-35.363093" lon="149.1649182">
  <ele>682.22</ele>
  <time>2026-08-28T19:09:48Z</time>
  <course>233.29</course>
  <speed>9.14884145670915</speed>
  <fix>3d</fix>
</trkpt>
<trkpt lat="-35.3630862" lon="149.1649284">
  <ele>682.14</ele>
  <time>2026-08-28T19:09:48Z</time>
  <course>232.2</course>
  <speed>9.2</speed>
  <fix>3d</fix>
</trkpt>
<trkpt lat="-35.3631031" lon="149.1649023">
  <ele>682.22</ele>
  <time>2026-08-28T19:09:48Z</time>
  <course>233.03</course>
  <speed>9.120548229136228</speed>
  <fix>3d</fix>
</trkpt>
<trkpt lat="-35.3630964" lon="149.1649124">
  <ele>682.15</ele>
  <time>2026-08-28T19:09:48Z</time>
  <course>231.88</course>
  <speed>9.16</speed>
  <fix>3d</fix>
</trkpt>
<trkpt lat="-35.3631134" lon="149.1648865">
  <ele>682.21</ele>
  <time>2026-08-28T19:09:48Z</time>
  <course>232.62</course>
  <speed>9.10672828188038</speed>
  <fix>3d</fix>
</trkpt>
<trkpt lat="-35.3631065" lon="149.1648966">
  <ele>682.14</ele>
  <time>2026-08-28T19:09:48Z</time>
  <course>231.51</course>
  <speed>9.13</speed>
  <fix>3d</fix>
</trkpt>
<trkpt lat="-35.3631238" lon="149.1648707">
  <ele>682.19</ele>
  <time>2026-08-28T19:09:48Z</time>
  <course>232.05</course>
  <speed>9.129211356957402</speed>
  <fix>3d</fix>
</trkpt>
<trkpt lat="-35.3631168" lon="149.1648809">
  <ele>682.13</ele>
  <time>2026-08-28T19:09:48Z</time>
  <course>231.1</course>
  <speed>9.12</speed>
  <fix>3d</fix>
</trkpt>
<trkpt lat="-35.3631343" lon="149.1648551">
  <ele>682.17</ele>
  <time>2026-08-28T19:09:48Z</time>
  <course>231.36</course>
  <speed>9.178981424973035</speed>
  <fix>3d</fix>
</trkpt>
<trkpt lat="-35.3631271" lon="149.1648652">
  <ele>682.12</ele>
  <time>2026-08-28T19:09:48Z</time>
  <course>230.65</course>
  <speed>9.13</speed>
  <fix>3d</fix>
</trkpt>
<trkpt lat="-35.3631449" lon="149.1648395">
  <ele>682.15</ele>
  <time>2026-08-28T19:09:48Z</time>
  <course>230.57</course>
  <speed>9.24346796391917</speed>
  <fix>3d</fix>
</trkpt>
<trkpt lat="-35.3631376" lon="149.1648497">
  <ele>682.1</ele>
  <time>2026-08-28T19:09:48Z</time>
  <course>230.16</course>
  <speed>9.18</speed>
  <fix>3d</fix>
</trkpt>
<trkpt lat="-35.3631557" lon="149.1648239">
  <ele>682.14</ele>
  <time>2026-08-28T19:09:48Z</time>
  <course>229.77</course>
  <speed>9.329233623401228</speed>
  <fix>3d</fix>
</trkpt>
<trkpt lat="-35.3631483" lon="149.1648341">
  <ele>682.08</ele>
  <time>2026-08-28T19:09:48Z</time>
  <course>229.63</course>
  <speed>9.25</speed>
  <fix>3d</fix>
</trkpt>
<trkpt lat="-35.3631668" lon="149.1648083">
  <ele>682.12</ele>
  <time>2026-08-28T19:09:48Z</time>
  <course>229.02</course>
  <speed>9.423258459789798</speed>
  <fix>3d</fix>
</trkpt>
<trkpt lat="-35.3631592" lon="149.1648186">
  <ele>682.07</ele>
  <time>2026-08-28T19:09:48Z</time>
  <course>229.11</course>
  <speed>9.34</speed>
  <fix>3d</fix>
</trkpt>
<trkpt lat="-35.363178" lon="149.1647926">
  <ele>682.12</ele>
  <time>2026-08-28T19:09:48Z</time>
  <course>228.4</course>
  <speed>9.525360885551791</speed>
  <fix>3d</fix>
</trkpt>
<trkpt lat="-35.3631703" lon="149.164803">
  <ele>682.06</ele>
  <time>2026-08-28T19:09:48Z</time>
  <course>228.61</course>
  <speed>9.43</speed>
  <fix>3d</fix>
</trkpt>
<trkpt lat="-35.3631895" lon="149.1647769">
  <ele>682.12</ele>
  <time>2026-08-28T19:09:48Z</time>
  <course>227.9</course>
  <speed>9.61454107069079</speed>
  <fix>3d</fix>
</trkpt>
<trkpt lat="-35.3631816" lon="149.1647874">
  <ele>682.05</ele>
  <time>2026-08-28T19:09:48Z</time>
  <course>228.18</course>
  <speed>9.53</speed>
  <fix>3d</fix>
</trkpt>
<trkpt lat="-35.3632011" lon="149.1647612">
  <ele>682.12</ele>
  <time>2026-08-28T19:09:48Z</time>
  <course>227.56</course>
  <speed>9.704663827253368</speed>
  <fix>3d</fix>
</trkpt>
<trkpt lat="-35.3631931" lon="149.1647717">
  <ele>682.05</ele>
  <time>2026-08-28T19:09:48Z</time>
  <course>227.84</course>
  <speed>9.62</speed>
  <fix>3d</fix>
</trkpt>
<trkpt lat="-35.3632129" lon="149.1647453">
  <ele>682.13</ele>
  <time>2026-08-28T19:09:48Z</time>
  <course>227.29</course>
  <speed>9.781421164636559</speed>
  <fix>3d</fix>
</trkpt>
<trkpt lat="-35.3632048" lon="149.164756">
  <ele>682.06</ele>
  <time>2026-08-28T19:09:48Z</time>
  <course>227.6</course>
  <speed>9.7</speed>
  <fix>3d</fix>
</trkpt>
<trkpt lat="-35.3632248" lon="149.1647294">
  <ele>682.14</ele>
  <time>2026-08-28T19:09:48Z</time>
  <course>227.16</course>
  <speed>9.8588285308144</speed>
  <fix>3d</fix>
</trkpt>
<trkpt lat="-35.3632166" lon="149.1647402">
  <ele>682.06</ele>
  <time>2026-08-28T19:09:48Z</time>
  <course>227.45</course>
  <speed>9.78</speed>
  <fix>3d</fix>
</trkpt>
<trkpt lat="-35.3632369" lon="149.1647132">
  <ele>682.15</ele>
  <time>2026-08-28T19:09:48Z</time>
  <course>227.15</course>
  <speed>9.922711323020538</speed>
  <fix>3d</fix>
</trkpt>
<trkpt lat="-35.3632286" lon="149.1647243">
  <ele>682.07</ele>
  <time>2026-08-28T19:09:48Z</time>
  <course>227.39</course>
  <speed>9.86</speed>
  <fix>3d</fix>
</trkpt>
<trkpt lat="-35.363249" lon="149.1646971">
  <ele>682.16</ele>
  <time>2026-08-28T19:09:48Z</time>
  <course>227.25</course>
  <speed>9.979839678070986</speed>
  <fix>3d</fix>
</trkpt>
<trkpt lat="-35.3632406" lon="149.1647082">
  <ele>682.08</ele>
  <time>2026-08-28T19:09:48Z</time>
  <course>227.41</course>
  <speed>9.93</speed>
  <fix>3d</fix>
</trkpt>
<trkpt lat="-35.3632611" lon="149.1646808">
  <ele>682.17</ele>
  <time>2026-08-28T19:09:48Z</time>
  <course>227.42</course>
  <speed>10.03762920215725</speed>
  <fix>3d</fix>
</trkpt>
<trkpt lat="-35.3632527" lon="149.164692">
  <ele>682.09</ele>
  <time>2026-08-28T19:09:48Z</time>
  <course>227.51</course>
  <speed>9.99</speed>
  <fix>3d</fix>
</trkpt>
<trkpt lat="-35.3632732" lon="149.1646644">
  <ele>682.18</ele>
  <time>2026-08-28T19:09:49Z</time>
  <course>227.68</course>
  <speed>10.06793921316572</speed>
  <fix>3d</fix>
</trkpt>
<trkpt lat="-35.3632649" lon="149.1646757">
  <ele>682.1</ele>
  <time>2026-08-28T19:09:49Z</time>
  <course>227.66</course>
  <speed>10.04</speed>
  <fix>3d</fix>
</trkpt>
<trkpt lat="-35.3632853" lon="149.164648">
  <ele>682.18</ele>
  <time>2026-08-28T19:09:49Z</time>
  <course>227.99</course>
  <speed>10.098415717329129</speed>
  <fix>3d</fix>
</trkpt>
<trkpt lat="-35.363277" lon="149.1646592">
  <ele>682.1</ele>
  <time>2026-08-28T19:09:49Z</time>
  <course>227.87</course>
  <speed>10.07</speed>
  <fix>3d</fix>
</trkpt>
<trkpt lat="-35.3632973" lon="149.1646314">
  <ele>682.18</ele>
  <time>2026-08-28T19:09:49Z</time>
  <course>228.31</course>
  <speed>10.114939446185529</speed>
  <fix>3d</fix>
</trkpt>
<trkpt lat="-35.3632891" lon="149.1646428">
  <ele>682.11</ele>
  <time>2026-08-28T19:09:49Z</time>
  <course>228.12</course>
  <speed>10.1</speed>
  <fix>3d</fix>
</trkpt>
<trkpt lat="-35.3633094" lon="149.1646148">
  <ele>682.18</ele>
  <time>2026-08-28T19:09:49Z</time>
  <course>228.66</course>
  <speed>10.132531766542852</speed>
  <fix>3d</fix>
</trkpt>
<trkpt lat="-35.3633012" lon="149.1646261">
  <ele>682.11</ele>
  <time>2026-08-28T19:09:49Z</time>
  <course>228.4</course>
  <speed>10.13</speed>
  <fix>3d</fix>
</trkpt>
<trkpt lat="-35.3633213" lon="149.164598">
  <ele>682.18</ele>
  <time>2026-08-28T19:09:49Z</time>
  <course>229.03</course>
  <speed>10.142884205195285</speed>
  <fix>3d</fix>
</trkpt>
<trkpt lat="-35.3633133" lon="149.1646094">
  <ele>682.12</ele>
  <time>2026-08-28T19:09:49Z</time>
  <course>228.68</course>
  <speed>10.14</speed>
  <fix>3d</fix>
</trkpt>
<trkpt lat="-35.3633332" lon="149.1645812">
  <ele>682.19</ele>
  <time>2026-08-28T19:09:49Z</time>
  <course>229.36</course>
  <speed>10.139368816647316</speed>
  <fix>3d</fix>
</trkpt>
<trkpt lat="-35.3633253" lon="149.1645925">
  <ele>682.12</ele>
  <time>2026-08-28T19:09:49Z</time>
  <course>228.96</course>
  <speed>10.15</speed>
  <fix>3d</fix>
</trkpt>
<trkpt lat="-35.3633451" lon="149.1645643">
  <ele>682.19</ele>
  <time>2026-08-28T19:09:49Z</time>
  <course>229.71</course>
  <speed>10.128494458704118</speed>
  <fix>3d</fix>
</trkpt>
<trkpt lat="-35.3633372" lon="149.1645756">
  <ele>682.12</ele>
  <time>2026-08-28T19:09:49Z</time>
  <course>229.23</course>
  <speed>10.15</speed>
  <fix>3d</fix>
</trkpt>
<trkpt lat="-35.3633569" lon="149.1645473">
  <ele>682.19</ele>
  <time>2026-08-28T19:09:49Z</time>
  <course>230.03</course>
  <speed>10.11017803997536</speed>
  <fix>3d</fix>
</trkpt>
<trkpt lat="-35.3633491" lon="149.1645586">
  <ele>682.13</ele>
  <time>2026-08-28T19:09:49Z</time>
  <course>229.48</course>
  <speed>10.14</speed>
  <fix>3d</fix>
</trkpt>
<trkpt lat="-35.3633687" lon="149.1645302">
  <ele>682.19</ele>
  <time>2026-08-28T19:09:49Z</time>
  <course>230.29</course>
  <speed>10.091996829171123</speed>
  <fix>3d</fix>
</trkpt>
<trkpt lat="-35.3633609" lon="149.1645416">
  <ele>682.13</ele>
  <time>2026-08-28T19:09:49Z</time>
  <course>229.7</course>
  <speed>10.13</speed>
  <fix>3d</fix>
</trkpt>
<trkpt lat="-35.3633804" lon="149.1645131">
  <ele>682.19</ele>
  <time>2026-08-28T19:09:49Z</time>
  <course>230.55</course>
  <speed>10.06628034578811</speed>
  <fix>3d</fix>
</trkpt>
<trkpt lat="-35.3633727" lon="149.1645246">
  <ele>682.13</ele>
  <time>2026-08-28T19:09:49Z</time>
  <course>229.89</course>
  <speed>10.11</speed>
  <fix>3d</fix>
</trkpt>
<trkpt lat="-35.3633921" lon="149.1644961">
  <ele>682.19</ele>
  <time>2026-08-28T19:09:49Z</time>
  <course>230.76</course>
  <speed>10.039372490350182</speed>
  <fix>3d</fix>
</trkpt>
<trkpt lat="-35.3633844" lon="149.1645075">
  <ele>682.13</ele>
  <time>2026-08-28T19:09:49Z</time>
  <course>230.04</course>
  <speed>10.08</speed>
  <fix>3d</fix>
</trkpt>
<trkpt lat="-35.3634036" lon="149.1644791">
  <ele>682.19</ele>
  <time>2026-08-28T19:09:49Z</time>
  <course>230.93</course>
  <speed>10.004803846153106</speed>
  <fix>3d</fix>
</trkpt>
<trkpt lat="-35.3633959" lon="149.1644906">
  <ele>682.13</ele>
  <time>2026-08-28T19:09:49Z</time>
  <course>230.16</course>
  <speed>10.05</speed>
  <fix>3d</fix>
</trkpt>
<trkpt lat="-35.3634151" lon="149.1644622">
  <ele>682.19</ele>
  <time>2026-08-28T19:09:49Z</time>
  <course>231.01</course>
  <speed>9.970245734183285</speed>
  <fix>3d</fix>
</trkpt>
<trkpt lat="-35.3634075" lon="149.1644736">
  <ele>682.14</ele>
  <time>2026-08-28T19:09:49Z</time>
  <course>230.24</course>
  <speed>10.01</speed>
  <fix>3d</fix>
</trkpt>
<trkpt lat="-35.3634266" lon="149.1644453">
  <ele>682.18</ele>
  <time>2026-08-28T19:09:49Z</time>
  <course>231.04</course>
  <speed>9.942082276867357</speed>
  <fix>3d</fix>
</trkpt>
<trkpt lat="-35.363419" lon="149.1644566">
  <ele>682.13</ele>
  <time>2026-08-28T19:09:49Z</time>
  <course>230.28</course>
  <speed>9.98</speed>
  <fix>3d</fix>
</trkpt>
<trkpt lat="-35.363438" lon="149.1644284">
  <ele>682.18</ele>
  <time>2026-08-28T19:09:49Z</time>
  <course>231.0</course>
  <speed>9.906225315426658</speed>
  <fix>3d</fix>
</trkpt>
<trkpt lat="-35.3634304" lon="149.1644397">
  <ele>682.13</ele>
  <time>2026-08-28T19:09:49Z</time>
  <course>230.27</course>
  <speed>9.94</speed>
  <fix>3d</fix>
</trkpt>
<trkpt lat="-35.3634493" lon="149.1644117">
  <ele>682.18</ele>
  <time>2026-08-28T19:09:49Z</time>
  <course>230.93</course>
  <speed>9.87676566493303</speed>
  <fix>3d</fix>
</trkpt>
<trkpt lat="-35.3634419" lon="149.1644228">
  <ele>682.13</ele>
  <time>2026-08-28T19:09:49Z</time>
  <course>230.24</course>
  <speed>9.91</speed>
  <fix>3d</fix>
</trkpt>
<trkpt lat="-35.3634607" lon="149.164395">
  <ele>682.18</ele>
  <time>2026-08-28T19:09:49Z</time>
  <course>230.82</course>
  <speed>9.853730258130675</speed>
  <fix>3d</fix>
</trkpt>
<trkpt lat="-35.3634532" lon="149.1644061">
  <ele>682.13</ele>
  <time>2026-08-28T19:09:49Z</time>
  <course>230.16</course>
  <speed>9.89</speed>
  <fix>3d</fix>
</trkpt>
<trkpt lat="-35.3634722" lon="149.1643783">
  <ele>682.18</ele>
  <time>2026-08-28T19:09:49Z</time>
  <course>230.66</course>
  <speed>9.844820973486517</speed>
  <fix>3d</fix>
</trkpt>
<trkpt lat="-35.3634646" lon="149.1643894">
  <ele>682.12</ele>
  <time>2026-08-28T19:09:49Z</time>
  <course>230.06</course>
  <speed>9.86</speed>
  <fix>3d</fix>
</trkpt>
<trkpt lat="-35.3634836" lon="149.1643616">
  <ele>682.17</ele>
  <time>2026-08-28T19:09:49Z</time>
  <course>230.46</course>
  <speed>9.828311146885817</speed>
  <fix>3d</fix>
</trkpt>
<trkpt lat="-35.363476" lon="149.1643728">
  <ele>682.12</ele>
  <time>2026-08-28T19:09:49Z</time>
  <course>229.92</course>
  <speed>9.85</speed>
  <fix>3d</fix>
</trkpt>
<trkpt lat="-35.363495" lon="149.1643451">
  <ele>682.17</ele>
  <time>2026-08-28T19:09:49Z</time>
  <course>230.25</course>
  <speed>9.819501005651967</speed>
  <fix>3d</fix>
</trkpt>
<trkpt lat="-35.3634874" lon="149.1643561">
  <ele>682.11</ele>
  <time>2026-08-28T19:09:49Z</time>
  <course>229.77</course>
  <speed>9.84</speed>
  <fix>3d</fix>
</trkpt>
<trkpt lat="-35.3635065" lon="149.1643286">
  <ele>682.16</ele>
  <time>2026-08-28T19:09:49Z</time>
  <course>230.04</course>
  <speed>9.809612632515108</speed>
  <fix>3d</fix>
</trkpt>
<trkpt lat="-35.3634988" lon="149.1643396">
  <ele>682.11</ele>
  <time>2026-08-28T19:09:49Z</time>
  <course>229.6</course>
  <speed>9.83</speed>
  <fix>3d</fix>
</trkpt>
<trkpt lat="-35.3635179" lon="149.1643122">
  <ele>682.15</ele>
  <time>2026-08-28T19:09:49Z</time>
  <course>229.81</course>
  <speed>9.815019103394553</speed>
  <fix>3d</fix>
</trkpt>
<trkpt lat="-35.3635103" lon="149.1643231">
  <ele>682.11</ele>
  <time>2026-08-28T19:09:49Z</time>
  <course>229.44</course>
  <speed>9.82</speed>
  <fix>3d</fix>
</trkpt>
<trkpt lat="-35.3635294" lon="149.1642959">
  <ele>682.15</ele>
  <time>2026-08-28T19:09:49Z</time>
  <course>229.6</course>
  <speed>9.820473512005417</speed>
  <fix>3d</fix>
</trkpt>
<trkpt lat="-35.3635218" lon="149.1643068">
  <ele>682.11</ele>
  <time>2026-08-28T19:09:49Z</time>
  <course>229.28</course>
  <speed>9.82</speed>
  <fix>3d</fix>
</trkpt>
<trkpt lat="-35.3635409" lon="149.1642795">
  <ele>682.14</ele>
  <time>2026-08-28T19:09:49Z</time>
  <course>229.34</course>
  <speed>9.832522565445757</speed>
  <fix>3d</fix>
</trkpt>
<trkpt lat="-35.3635333" lon="149.1642904">
  <ele>682.1</ele>
  <time>2026-08-28T19:09:49Z</time>
  <course>229.13</course>
  <speed>9.83</speed>
  <fix>3d</fix>
</trkpt>
<trkpt lat="-35.3635525" lon="149.1642632">
  <ele>682.14</ele>
  <time>2026-08-28T19:09:49Z</time>
  <course>229.14</course>
  <speed>9.845633549955025</speed>
  <fix>3d</fix>
</trkpt>
<trkpt lat="-35.363545" lon="149.1642739">
  <ele>682.1</ele>
  <time>2026-08-28T19:09:49Z</time>
  <course>228.99</course>
  <speed>9.85</speed>
  <fix>3d</fix>
</trkpt>
<trkpt lat="-35.3635641" lon="149.1642468">
  <ele>682.14</ele>
  <time>2026-08-28T19:09:49Z</time>
  <course>228.93</course>
  <speed>9.865343379730884</speed>
  <fix>3d</fix>
</trkpt>
<trkpt lat="-35.3635565" lon="149.1642576">
  <ele>682.1</ele>
  <time>2026-08-28T19:09:49Z</time>
  <course>228.87</course>
  <speed>9.87</speed>
  <fix>3d</fix>
</trkpt>
<trkpt lat="-35.3635758" lon="149.1642305">
  <ele>682.14</ele>
  <time>2026-08-28T19:09:49Z</time>
  <course>228.81</course>
  <speed>9.886035605843224</speed>
  <fix>3d</fix>
</trkpt>
<trkpt lat="-35.3635682" lon="149.1642412">
  <ele>682.1</ele>
  <time>2026-08-28T19:09:49Z</time>
  <course>228.77</course>
  <speed>9.89</speed>
  <fix>3d</fix>
</trkpt>
<trkpt lat="-35.3635875" lon="149.1642141">
  <ele>682.15</ele>
  <time>2026-08-28T19:09:49Z</time>
  <course>228.72</course>
  <speed>9.906735082760616</speed>
  <fix>3d</fix>
</trkpt>
<trkpt lat="-35.36358" lon="149.1642249">
  <ele>682.11</ele>
  <time>2026-08-28T19:09:49Z</time>
  <course>228.7</course>
  <speed>9.91</speed>
  <fix>3d</fix>
</trkpt>
<trkpt lat="-35.3635994" lon="149.1641976">
  <ele>682.16</ele>
  <time>2026-08-28T19:09:49Z</time>
  <course>228.68</course>
  <speed>9.92744176512761</speed>
  <fix>3d</fix>
</trkpt>
<trkpt lat="-35.3635917" lon="149.1642084">
  <ele>682.11</ele>
  <time>2026-08-28T19:09:49Z</time>
  <course>228.65</course>
  <speed>9.93</speed>
  <fix>3d</fix>
</trkpt>
<trkpt lat="-35.3636112" lon="149.1641811">
  <ele>682.16</ele>
  <time>2026-08-28T19:09:49Z</time>
  <course>228.68</course>
  <speed>9.949070308325297</speed>
  <fix>3d</fix>
</trkpt>
<trkpt lat="-35.3636036" lon="149.1641919">
  <ele>682.12</ele>
  <time>2026-08-28T19:09:49Z</time>
  <course>228.64</course>
  <speed>9.95</speed>
  <fix>3d</fix>
</trkpt>
<trkpt lat="-35.3636231" lon="149.1641645">
  <ele>682.17</ele>
  <time>2026-08-28T19:09:49Z</time>
  <course>228.69</course>
  <speed>9.970702081598867</speed>
  <fix>3d</fix>
</trkpt>
<trkpt lat="-35.3636154" lon="149.1641755">
  <ele>682.12</ele>
  <time>2026-08-28T19:09:49Z</time>
  <course>228.65</course>
  <speed>9.97</speed>
  <fix>3d</fix>
</trkpt>
<trkpt lat="-35.3636349" lon="149.164148">
  <ele>682.17</ele>
  <time>2026-08-28T19:09:49Z</time>
  <course>228.75</course>
  <speed>9.985754853790473</speed>
  <fix>3d</fix>
</trkpt>
<trkpt lat="-35.3636273" lon="149.1641589">
  <ele>682.12</ele>
  <time>2026-08-28T19:09:49Z</time>
  <course>228.69</course>
  <speed>9.99</speed>
  <fix>3d</fix>
</trkpt>
<trkpt lat="-35.3636468" lon="149.1641314">
  <ele>682.18</ele>
  <time>2026-08-28T19:09:49Z</time>
  <course>228.82</course>
  <speed>10.000824965971557</speed>
  <fix>3d</fix>
</trkpt>
<trkpt lat="-35.3636391" lon="149.1641424">
  <ele>682.13</ele>
  <time>2026-08-28T19:09:49Z</time>
  <course>228.74</course>
  <speed>10.01</speed>
  <fix>3d</fix>
</trkpt>
<trkpt lat="-35.3636586" lon="149.1641147">
  <ele>682.18</ele>
  <time>2026-08-28T19:09:49Z</time>
  <course>228.92</course>
  <speed>10.008366500083817</speed>
  <fix>3d</fix>
</trkpt>
<trkpt lat="-35.363651" lon="149.1641258">
  <ele>682.13</ele>
  <time>2026-08-28T19:09:49Z</time>
  <course>228.82</course>
  <speed>10.02</speed>
  <fix>3d</fix>
</trkpt>
<trkpt lat="-35.3636705" lon="149.1640981">
  <ele>682.19</ele>
  <time>2026-08-28T19:09:49Z</time>
  <course>229.05</course>
  <speed>10.016910701408893</speed>
  <fix>3d</fix>
</trkpt>
<trkpt lat="-35.3636628" lon="149.1641091">
  <ele>682.13</ele>
  <time>2026-08-28T19:09:49Z</time>
  <course>228.9</course>
  <speed>10.03</speed>
  <fix>3d</fix>
</trkpt>
<trkpt lat="-35.3636823" lon="149.1640814">
  <ele>682.19</ele>
  <time>2026-08-28T19:09:49Z</time>
  <course>229.17</course>
  <speed>10.017928927677616</speed>
  <fix>3d</fix>
</trkpt>
<trkpt lat="-35.3636747" lon="149.1640924">
  <ele>682.13</ele>
  <time>2026-08-28T19:09:49Z</time>
  <course>229.0</course>
  <speed>10.03</speed>
  <fix>3d</fix>
</trkpt>
<trkpt lat="-35.363694" lon="149.1640648">
  <ele>682.19</ele>
  <time>2026-08-28T19:09:49Z</time>
  <course>229.28</course>
  <speed>10.020024950068738</speed>
  <fix>3d</fix>
</trkpt>
<trkpt lat="-35.3636865" lon="149.1640758">
  <ele>682.13</ele>
  <time>2026-08-28T19:09:49Z</time>
  <course>229.11</course>
  <speed>10.04</speed>
  <fix>3d</fix>
</trkpt>
<trkpt lat="-35.3637058" lon="149.164048">
  <ele>682.19</ele>
  <time>2026-08-28T19:09:49Z</time>
  <course>229.42</course>
  <speed>10.021102733731453</speed>
  <fix>3d</fix>
</trkpt>
<trkpt lat="-35.3636982" lon="149.164059">
  <ele>682.12</ele>
  <time>2026-08-28T19:09:49Z</time>
  <course>229.21</course>
  <speed>10.04</speed>
  <fix>3d</fix>
</trkpt>
<trkpt lat="-35.3637176" lon="149.1640312">
  <ele>682.19</ele>
  <time>2026-08-28T19:09:49Z</time>
  <course>229.54</course>
  <speed>10.022200357206994</speed>
  <fix>3d</fix>
</trkpt>
<trkpt lat="-35.36371" lon="149.1640423">
  <ele>682.12</ele>
  <time>2026-08-28T19:09:49Z</time>
  <course>229.31</course>
  <speed>10.04</speed>
  <fix>3d</fix>
</trkpt>
<trkpt lat="-35.3637294" lon="149.1640143">
  <ele>682.18</ele>
  <time>2026-08-28T19:09:49Z</time>
  <course>229.6</course>
  <speed>10.023317813977565</speed>
  <fix>3d</fix>
</trkpt>
<trkpt lat="-35.3637217" lon="149.1640254">
  <ele>682.11</ele>
  <time>2026-08-28T19:09:49Z</time>
  <course>229.4</course>
  <speed>10.04</speed>
  <fix>3d</fix>
</trkpt>
<trkpt lat="-35.3637411" lon="149.1639974">
  <ele>682.18</ele>
  <time>2026-08-28T19:09:49Z</time>
  <course>229.7</course>
  <speed>10.024455097410533</speed>
  <fix>3d</fix>
</trkpt>
<trkpt lat="-35.3637336" lon="149.1640086">
  <ele>682.11</ele>
  <time>2026-08-28T19:09:49Z</time>
  <course>229.48</course>
  <speed>10.04</speed>
  <fix>3d</fix>
</trkpt>
<trkpt lat="-35.3637529" lon="149.1639806">
  <ele>682.18</ele>
  <time>2026-08-28T19:09:49Z</time>
  <course>229.76</course>
  <speed>10.017983829094556</speed>
  <fix>3d</fix>
</trkpt>
<trkpt lat="-35.3637453" lon="149.1639918">
  <ele>682.11</ele>
  <time>2026-08-28T19:09:49Z</time>
  <course>229.54</course>
  <speed>10.04</speed>
  <fix>3d</fix>
</trkpt>
<trkpt lat="-35.3637646" lon="149.1639637">
  <ele>682.18</ele>
  <time>2026-08-28T19:09:49Z</time>
  <course>229.83</course>
  <speed>10.011518366361818</speed>
  <fix>3d</fix>
</trkpt>
<trkpt lat="-35.3637569" lon="149.163975">
  <ele>682.11</ele>
  <time>2026-08-28T19:09:49Z</time>
  <course>229.59</course>
  <speed>10.03</speed>
  <fix>3d</fix>
</trkpt>
<trkpt lat="-35.3637762" lon="149.1639469">
  <ele>682.17</ele>
  <time>2026-08-28T19:09:49Z</time>
  <course>229.85</course>
  <speed>9.997424668383353</speed>
  <fix>3d</fix>
</trkpt>
<trkpt lat="-35.3637686" lon="149.1639581">
  <ele>682.11</ele>
  <time>2026-08-28T19:09:49Z</time>
  <course>229.63</course>
  <speed>10.02</speed>
  <fix>3d</fix>
</trkpt>
<trkpt lat="-35.3637879" lon="149.1639301">
  <ele>682.17</ele>
  <time>2026-08-28T19:09:49Z</time>
  <course>229.87</course>
  <speed>9.983331107400977</speed>
  <fix>3d</fix>
</trkpt>
<trkpt lat="-35.3637803" lon="149.1639412">
  <ele>682.1</ele>
  <time>2026-08-28T19:09:49Z</time>
  <course>229.65</course>
  <speed>10.01</speed>
  <fix>3d</fix>
</trkpt>
<trkpt lat="-35.3637995" lon="149.1639133">
  <ele>682.17</ele>
  <time>2026-08-28T19:09:49Z</time>
  <course>229.92</course>
  <speed>9.975700476658268</speed>
  <fix>3d</fix>
</trkpt>
<trkpt lat="-35.363792" lon="149.1639245">
  <ele>682.1</ele>
  <time>2026-08-28T19:09:49Z</time>
  <course>229.66</course>
  <speed>10.0</speed>
  <fix>3d</fix>
</trkpt>
<trkpt lat="-35.3638111" lon="149.1638966">
  <ele>682.17</ele>
  <time>2026-08-28T19:09:49Z</time>
  <course>229.9</course>
  <speed>9.961606296175331</speed>
  <fix>3d</fix>
</trkpt>
<trkpt lat="-35.3638036" lon="149.1639077">
  <ele>682.1</ele>
  <time>2026-08-28T19:09:49Z</time>
  <course>229.65</course>
  <speed>9.99</speed>
  <fix>3d</fix>
</trkpt>
<trkpt lat="-35.3638226" lon="149.16388">
  <ele>682.17</ele>
  <time>2026-08-28T19:09:49Z</time>
  <course>229.86</course>
  <speed>9.961606296175331</speed>
  <fix>3d</fix>
</trkpt>
<trkpt lat="-35.3638152" lon="149.1638909">
  <ele>682.1</ele>
  <time>2026-08-28T19:09:49Z</time>
  <course>229.64</course>
  <speed>9.98</speed>
  <fix>3d</fix>
</trkpt>
<trkpt lat="-35.3638342" lon="149.1638633">
  <ele>682.17</ele>
  <time>2026-08-28T19:09:49Z</time>
  <course>229.82</course>
  <speed>9.953979103855904</speed>
  <fix>3d</fix>
</trkpt>
<trkpt lat="-35.3638268" lon="149.1638742">
  <ele>682.1</ele>
  <time>2026-08-28T19:09:49Z</time>
  <course>229.61</course>
  <speed>9.98</speed>
  <fix>3d</fix>
</trkpt>
<trkpt lat="-35.3638459" lon="149.1638464">
  <ele>682.17</ele>
  <time>2026-08-28T19:09:49Z</time>
  <course>229.71</course>
  <speed>9.960451796981902</speed>
  <fix>3d</fix>
</trkpt>
<trkpt lat="-35.3638383" lon="149.1638575">
  <ele>682.09</ele>
  <time>2026-08-28T19:09:49Z</time>
  <course>229.58</course>
  <speed>9.98</speed>
  <fix>3d</fix>
</trkpt>
<trkpt lat="-35.3638575" lon="149.1638297">
  <ele>682.17</ele>
  <time>2026-08-28T19:09:49Z</time>
  <course>229.62</course>
  <speed>9.959317245675027</speed>
  <fix>3d</fix>
</trkpt>
<trkpt lat="-35.36385" lon="149.1638407">
  <ele>682.09</ele>
  <time>2026-08-28T19:09:49Z</time>
  <course>229.53</course>
  <speed>9.98</speed>
  <fix>3d</fix>
</trkpt>
<trkpt lat="-35.3638692" lon="149.1638129">
  <ele>682.16</ele>
  <time>2026-08-28T19:09:49Z</time>
  <course>229.56</course>
  <speed>9.965806540365913</speed>
  <fix>3d</fix>
</trkpt>
<trkpt lat="-35.3638617" lon="149.1638239">
  <ele>682.09</ele>
  <time>2026-08-28T19:09:49Z</time>
  <course>229.47</course>
  <speed>9.98</speed>
  <fix>3d</fix>
</trkpt>
<trkpt lat="-35.3638809" lon="149.1637962">
  <ele>682.16</ele>
  <time>2026-08-28T19:09:49Z</time>
  <course>229.49</course>
  <speed>9.964702705048456</speed>
  <fix>3d</fix>
</trkpt>
<trkpt lat="-35.3638734" lon="149.1638072">
  <ele>682.09</ele>
  <time>2026-08-28T19:09:49Z</time>
  <course>229.4</course>
  <speed>9.98</speed>
  <fix>3d</fix>
</trkpt>
<trkpt lat="-35.3638926" lon="149.1637796">
  <ele>682.15</ele>
  <time>2026-08-28T19:09:49Z</time>
  <course>229.44</course>
  <speed>9.957108013876319</speed>
  <fix>3d</fix>
</trkpt>
<trkpt lat="-35.363885" lon="149.1637905">
  <ele>682.09</ele>
  <time>2026-08-28T19:09:49Z</time>
  <course>229.34</course>
  <speed>9.98</speed>
  <fix>3d</fix>
</trkpt>
<trkpt lat="-35.3639043" lon="149.1637629">
  <ele>682.15</ele>
  <time>2026-08-28T19:09:49Z</time>
  <course>229.36</course>
  <speed>9.956033346669747</speed>
  <fix>3d</fix>
</trkpt>
<trkpt lat="-35.3638967" lon="149.1637739">
  <ele>682.09</ele>
  <time>2026-08-28T19:09:49Z</time>
  <course>229.28</course>
  <speed>9.97</speed>
  <fix>3d</fix>
</trkpt>
<trkpt lat="-35.3639159" lon="149.1637463">
  <ele>682.16</ele>
  <time>2026-08-28T19:09:49Z</time>
  <course>229.31</course>
  <speed>9.956033346669747</speed>
  <fix>3d</fix>
</trkpt>
<trkpt lat="-35.3639084" lon="149.1637572">
  <ele>682.09</ele>
  <time>2026-08-28T19:09:49Z</time>
  <course>229.24</course>
  <speed>9.97</speed>
  <fix>3d</fix>
</trkpt>
<trkpt lat="-35.3639276" lon="149.1637297">
  <ele>682.16</ele>
  <time>2026-08-28T19:09:49Z</time>
  <course>229.27</course>
  <speed>9.948452140911167</speed>
  <fix>3d</fix>
</trkpt>
<trkpt lat="-35.3639201" lon="149.1637406">
  <ele>682.09</ele>
  <time>2026-08-28T19:09:49Z</time>
  <course>229.2</course>
  <speed>9.97</speed>
  <fix>3d</fix>
</trkpt>
<trkpt lat="-35.3639393" lon="149.1637132">
  <ele>682.16</ele>
  <time>2026-08-28T19:09:49Z</time>
  <course>229.23</course>
  <speed>9.954978653919857</speed>
  <fix>3d</fix>
</trkpt>
<trkpt lat="-35.3639318" lon="149.163724">
  <ele>682.09</ele>
  <time>2026-08-28T19:09:49Z</time>
  <course>229.17</course>
  <speed>9.97</speed>
  <fix>3d</fix>
</trkpt>
<trkpt lat="-35.363951" lon="149.1636966">
  <ele>682.16</ele>
  <time>2026-08-28T19:09:49Z</time>
  <course>229.15</course>
  <speed>9.954978653919857</speed>
  <fix>3d</fix>
</trkpt>
<trkpt lat="-35.3639435" lon="149.1637074">
  <ele>682.1</ele>
  <time>2026-08-28T19:09:49Z</time>
  <course>229.14</course>
  <speed>9.97</speed>
  <fix>3d</fix>
</trkpt>
<trkpt lat="-35.3639628" lon="149.1636799">
  <ele>682.17</ele>
  <time>2026-08-28T19:09:49Z</time>
  <course>229.1</course>
  <speed>9.961510929572883</speed>
  <fix>3d</fix>
</trkpt>
<trkpt lat="-35.3639553" lon="149.1636907">
  <ele>682.1</ele>
  <time>2026-08-28T19:09:49Z</time>
  <course>229.12</course>
  <speed>9.98</speed>
  <fix>3d</fix>
</trkpt>
<trkpt lat="-35.3639746" lon="149.1636632">
  <ele>682.17</ele>
  <time>2026-08-28T19:09:49Z</time>
  <course>229.08</course>
  <speed>9.975615269245301</speed>
  <fix>3d</fix>
</trkpt>
<trkpt lat="-35.363967" lon="149.1636742">
  <ele>682.1</ele>
  <time>2026-08-28T19:09:49Z</time>
  <course>229.1</course>
  <speed>9.98</speed>
  <fix>3d</fix>
</trkpt>
<trkpt lat="-35.3639864" lon="149.1636465">
  <ele>682.16</ele>
  <time>2026-08-28T19:09:49Z</time>
  <course>229.06</course>
  <speed>9.975615269245301</speed>
  <fix>3d</fix>
</trkpt>
<trkpt lat="-35.3639788" lon="149.1636575">
  <ele>682.09</ele>
  <time>2026-08-28T19:09:49Z</time>
  <course>229.09</course>
  <speed>9.99</speed>
  <fix>3d</fix>
</trkpt>
<trkpt lat="-35.3639981" lon="149.1636298">
  <ele>682.17</ele>
  <time>2026-08-28T19:09:49Z</time>
  <course>229.09</course>
  <speed>9.983185864241936</speed>
  <fix>3d</fix>
</trkpt>
<trkpt lat="-35.3639905" lon="149.1636408">
  <ele>682.09</ele>
  <time>2026-08-28T19:09:49Z</time>
  <course>229.09</course>
  <speed>9.99</speed>
  <fix>3d</fix>
</trkpt>
<trkpt lat="-35.3640099" lon="149.1636131">
  <ele>682.17</ele>
  <time>2026-08-28T19:09:49Z</time>
  <course>229.12</course>
  <speed>9.983185864241936</speed>
  <fix>3d</fix>
</trkpt>
<trkpt lat="-35.3640023" lon="149.1636242">
  <ele>682.09</ele>
  <time>2026-08-28T19:09:49Z</time>
  <course>229.1</course>
  <speed>9.99</speed>
  <fix>3d</fix>
</trkpt>
<trkpt lat="-35.3640217" lon="149.1635964">
  <ele>682.17</ele>
  <time>2026-08-28T19:09:49Z</time>
  <course>229.15</course>
  <speed>9.983185864241936</speed>
  <fix>3d</fix>
</trkpt>
<trkpt lat="-35.3640141" lon="149.1636075">
  <ele>682.1</ele>
  <time>2026-08-28T19:09:49Z</time>
  <course>229.12</course>
  <speed>9.99</speed>
  <fix>3d</fix>
</trkpt>
<trkpt lat="-35.3640335" lon="149.1635797">
  <ele>682.18</ele>
  <time>2026-08-28T19:09:49Z</time>
  <course>229.19</course>
  <speed>9.976657756984551</speed>
  <fix>3d</fix>
</trkpt>
<trkpt lat="-35.3640258" lon="149.1635908">
  <ele>682.1</ele>
  <time>2026-08-28T19:09:49Z</time>
  <course>229.14</course>
  <speed>9.99</speed>
  <fix>3d</fix>
</trkpt>
<trkpt lat="-35.3640452" lon="149.163563">
  <ele>682.18</ele>
  <time>2026-08-28T19:09:49Z</time>
  <course>229.23</course>
  <speed>9.984237577301535</speed>
  <fix>3d</fix>
</trkpt>
<trkpt lat="-35.3640375" lon="149.1635742">
  <ele>682.1</ele>
  <time>2026-08-28T19:09:49Z</time>
  <course>229.18</course>
  <speed>9.99</speed>
  <fix>3d</fix>
</trkpt>
<trkpt lat="-35.3640569" lon="149.1635464">
  <ele>682.17</ele>
  <time>2026-08-28T19:09:49Z</time>
  <course>229.26</course>
  <speed>9.977720180482113</speed>
  <fix>3d</fix>
</trkpt>
<trkpt lat="-35.3640493" lon="149.1635576">
  <ele>682.09</ele>
  <time>2026-08-28T19:09:49Z</time>
  <course>229.21</course>
  <speed>9.99</speed>
  <fix>3d</fix>
</trkpt>
<trkpt lat="-35.3640686" lon="149.1635297">
  <ele>682.17</ele>
  <time>2026-08-28T19:09:49Z</time>
  <course>229.3</course>
  <speed>9.977720180482113</speed>
  <fix>3d</fix>
</trkpt>
<trkpt lat="-35.364061" lon="149.1635409">
  <ele>682.09</ele>
  <time>2026-08-28T19:09:49Z</time>
  <course>229.25</course>
  <speed>9.98</speed>
  <fix>3d</fix>
</trkpt>
<trkpt lat="-35.3640804" lon="149.1635129">
  <ele>682.17</ele>
  <time>2026-08-28T19:09:49Z</time>
  <course>229.33</course>
  <speed>9.978802533370423</speed>
  <fix>3d</fix>
</trkpt>
<trkpt lat="-35.3640727" lon="149.1635242">
  <ele>682.09</ele>
  <time>2026-08-28T19:09:49Z</time>
  <course>229.28</course>
  <speed>9.98</speed>
  <fix>3d</fix>
</trkpt>
<trkpt lat="-35.3640922" lon="149.1634962">
  <ele>682.16</ele>
  <time>2026-08-28T19:09:49Z</time>
  <course>229.33</course>
  <speed>9.978802533370423</speed>
  <fix>3d</fix>
</trkpt>
<trkpt lat="-35.3640844" lon="149.1635076">
  <ele>682.09</ele>
  <time>2026-08-28T19:09:49Z</time>
  <course>229.31</course>
  <speed>9.98</speed>
  <fix>3d</fix>
</trkpt>
<trkpt lat="-35.3641039" lon="149.1634795">
  <ele>682.16</ele>
  <time>2026-08-28T19:09:49Z</time>
  <course>229.35</course>
  <speed>9.972301640042785</speed>
  <fix>3d</fix>
</trkpt>
<trkpt lat="-35.3640961" lon="149.1634909">
  <ele>682.09</ele>
  <time>2026-08-28T19:09:49Z</time>
  <course>229.34</course>
  <speed>9.98</speed>
  <fix>3d</fix>
</trkpt>
<trkpt lat="-35.3641156" lon="149.1634628">
  <ele>682.16</ele>
  <time>2026-08-28T19:09:49Z</time>
  <course>229.38</course>
  <speed>9.972301640042785</speed>
  <fix>3d</fix>
</trkpt>
<trkpt lat="-35.3641078" lon="149.1634742">
  <ele>682.09</ele>
  <time>2026-08-28T19:09:49Z</time>
  <course>229.36</course>
  <speed>9.98</speed>
  <fix>3d</fix>
</trkpt>
<trkpt lat="-35.3641272" lon="149.1634461">
  <ele>682.16</ele>
  <time>2026-08-28T19:09:49Z</time>
  <course>229.38</course>
  <speed>9.972301640042785</speed>
  <fix>3d</fix>
</trkpt>
<trkpt lat="-35.3641195" lon="149.1634574">
  <ele>682.09</ele>
  <time>2026-08-28T19:09:49Z</time>
  <course>229.37</course>
  <speed>9.98</speed>
  <fix>3d</fix>
</trkpt>
<trkpt lat="-35.3641389" lon="149.1634295">
  <ele>682.17</ele>
  <time>2026-08-28T19:09:49Z</time>
  <course>229.38</course>
  <speed>9.965806540365913</speed>
  <fix>3d</fix>
</trkpt>
<trkpt lat="-35.3641311" lon="149.1634407">
  <ele>682.09</ele>
  <time>2026-08-28T19:09:49Z</time>
  <course>229.38</course>
  <speed>9.98</speed>
  <fix>3d</fix>
</trkpt>
<trkpt lat="-35.3641505" lon="149.1634129">
  <ele>682.16</ele>
  <time>2026-08-28T19:09:49Z</time>
  <course>229.4</course>
  <speed>9.965806540365913</speed>
  <fix>3d</fix>
</trkpt>
<trkpt lat="-35.3641428" lon="149.163424">
  <ele>682.09</ele>
  <time>2026-08-28T19:09:49Z</time>
  <course>229.39</course>
  <speed>9.98</speed>
  <fix>3d</fix>
</trkpt>
<trkpt lat="-35.3641621" lon="149.1633962">
  <ele>682.16</ele>
  <time>2026-08-28T19:09:49Z</time>
  <course>229.34</course>
  <speed>9.965806540365913</speed>
  <fix>3d</fix>
</trkpt>
<trkpt lat="-35.3641545" lon="149.1634073">
  <ele>682.09</ele>
  <time>2026-08-28T19:09:49Z</time>
  <course>229.4</course>
  <speed>9.98</speed>
  <fix>3d</fix>
</trkpt>
<trkpt lat="-35.3641737" lon="149.1633796">
  <ele>682.16</ele>
  <time>2026-08-28T19:09:49Z</time>
  <course>229.34</course>
  <speed>9.979904809165266</speed>
  <fix>3d</fix>
</trkpt>
<trkpt lat="-35.3641662" lon="149.1633906">
  <ele>682.09</ele>
  <time>2026-08-28T19:09:49Z</time>
  <course>229.4</course>
  <speed>9.99</speed>
  <fix>3d</fix>
</trkpt>
<trkpt lat="-35.3641853" lon="149.163363">
  <ele>682.16</ele>
  <time>2026-08-28T19:09:49Z</time>
  <course>229.3</course>
  <speed>9.986400753024085</speed>
  <fix>3d</fix>
</trkpt>
<trkpt lat="-35.3641778" lon="149.1633739">
  <ele>682.08</ele>
  <time>2026-08-28T19:09:49Z</time>
  <course>229.39</course>
  <speed>10.0</speed>
  <fix>3d</fix>
</trkpt>
<trkpt lat="-35.364197" lon="149.1633463">
  <ele>682.16</ele>
  <time>2026-08-28T19:09:49Z</time>
  <course>229.23</course>
  <speed>9.986400753024085</speed>
  <fix>3d</fix>
</trkpt>
<trkpt lat="-35.3641895" lon="149.1633572">
  <ele>682.08</ele>
  <time>2026-08-28T19:09:49Z</time>
  <course>229.37</course>
  <speed>10.01</speed>
  <fix>3d</fix>
</trkpt>
<trkpt lat="-35.3642088" lon="149.1633294">
  <ele>682.16</ele>
  <time>2026-08-28T19:09:49Z</time>
  <course>229.22</course>
  <speed>10.000499987500625</speed>
  <fix>3d</fix>
</trkpt>
<trkpt lat="-35.3642013" lon="149.1633405">
  <ele>682.08</ele>
  <time>2026-08-28T19:09:49Z</time>
  <course>229.35</course>
  <speed>10.02</speed>
  <fix>3d</fix>
</trkpt>
<trkpt lat="-35.3642205" lon="149.1633127">
  <ele>682.16</ele>
  <time>2026-08-28T19:09:49Z</time>
  <course>229.21</course>
  <speed>10.007002548215924</speed>
  <fix>3d</fix>
</trkpt>
<trkpt lat="-35.364213" lon="149.1633237">
  <ele>682.08</ele>
  <time>2026-08-28T19:09:49Z</time>
  <course>229.32</course>
  <speed>10.03</speed>
  <fix>3d</fix>
</trkpt>
<trkpt lat="-35.3642323" lon="149.1632959">
  <ele>682.16</ele>
  <time>2026-08-28T19:09:49Z</time>
  <course>229.19</course>
  <speed>10.013510872815788</speed>
  <fix>3d</fix>
</trkpt>
<trkpt lat="-35.3642248" lon="149.1633069">
  <ele>682.08</ele>
  <time>2026-08-28T19:09:49Z</time>
  <course>229.3</course>
  <speed>10.03</speed>
  <fix>3d</fix>
</trkpt>
<trkpt lat="-35.3642441" lon="149.1632791">
  <ele>682.16</ele>
  <time>2026-08-28T19:09:49Z</time>
  <course>229.2</course>
  <speed>10.013510872815788</speed>
  <fix>3d</fix>
</trkpt>
<trkpt lat="-35.3642365" lon="149.1632902">
  <ele>682.09</ele>
  <time>2026-08-28T19:09:49Z</time>
  <course>229.29</course>
  <speed>10.03</speed>
  <fix>3d</fix>
</trkpt>
<trkpt lat="-35.3642558" lon="149.1632623">
  <ele>682.16</ele>
  <time>2026-08-28T19:09:49Z</time>
  <course>229.22</course>
  <speed>10.013510872815788</speed>
  <fix>3d</fix>
</trkpt>
<trkpt lat="-35.3642483" lon="149.1632733">
  <ele>682.09</ele>
  <time>2026-08-28T19:09:49Z</time>
  <course>229.28</course>
  <speed>10.03</speed>
  <fix>3d</fix>
</trkpt>
<trkpt lat="-35.3642676" lon="149.1632456">
  <ele>682.17</ele>
  <time>2026-08-28T19:09:49Z</time>
  <course>229.23</course>
  <speed>10.007002548215924</speed>
  <fix>3d</fix>
</trkpt>
<trkpt lat="-35.36426" lon="149.1632566">
  <ele>682.09</ele>
  <time>2026-08-28T19:09:49Z</time>
  <course>229.28</course>
  <speed>10.03</speed>
  <fix>3d</fix>
</trkpt>
<trkpt lat="-35.3642794" lon="149.1632288">
  <ele>682.17</ele>
  <time>2026-08-28T19:09:49Z</time>
  <course>229.27</course>
  <speed>9.999409982593972</speed>
  <fix>3d</fix>
</trkpt>
<trkpt lat="-35.3642718" lon="149.1632399">
  <ele>682.09</ele>
  <time>2026-08-28T19:09:49Z</time>
  <course>229.27</course>
  <speed>10.02</speed>
  <fix>3d</fix>
</trkpt>
<trkpt lat="-35.3642911" lon="149.1632121">
  <ele>682.17</ele>
  <time>2026-08-28T19:09:49Z</time>
  <course>229.28</course>
  <speed>9.999409982593972</speed>
  <fix>3d</fix>
</trkpt>
<trkpt lat="-35.3642835" lon="149.1632231">
  <ele>682.1</ele>
  <time>2026-08-28T19:09:49Z</time>
  <course>229.28</course>
  <speed>10.02</speed>
  <fix>3d</fix>
</trkpt>
<trkpt lat="-35.3643028" lon="149.1631954">
  <ele>682.17</ele>
  <time>2026-08-28T19:09:49Z</time>
  <course>229.31</course>
  <speed>9.985309209033039</speed>
  <fix>3d</fix>
</trkpt>
<trkpt lat="-35.3642953" lon="149.1632064">
  <ele>682.1</ele>
  <time>2026-08-28T19:09:49Z</time>
  <course>229.28</course>
  <speed>10.01</speed>
  <fix>3d</fix>
</trkpt>
<trkpt lat="-35.3643145" lon="149.1631787">
  <ele>682.17</ele>
  <time>2026-08-28T19:09:49Z</time>
  <course>229.29</course>
  <speed>9.985309209033039</speed>
  <fix>3d</fix>
</trkpt>
<trkpt lat="-35.364307" lon="149.1631897">
  <ele>682.1</ele>
  <time>2026-08-28T19:09:49Z</time>
  <course>229.29</course>
  <speed>10.0</speed>
  <fix>3d</fix>
</trkpt>
<trkpt lat="-35.3643263" lon="149.1631619">
  <ele>682.18</ele>
  <time>2026-08-28T19:09:49Z</time>
  <course>229.29</course>
  <speed>9.978802533370423</speed>
  <fix>3d</fix>
</trkpt>
<trkpt lat="-35.3643187" lon="149.163173">
  <ele>682.1</ele>
  <time>2026-08-28T19:09:49Z</time>
  <course>229.3</course>
  <speed>10.0</speed>
  <fix>3d</fix>
</trkpt>
<trkpt lat="-35.3643381" lon="149.1631451">
  <ele>682.18</ele>
  <time>2026-08-28T19:09:49Z</time>
  <course>229.31</course>
  <speed>9.97120855262791</speed>
  <fix>3d</fix>
</trkpt>
<trkpt lat="-35.3643304" lon="149.1631563">
  <ele>682.1</ele>
  <time>2026-08-28T19:09:49Z</time>
  <course>229.3</course>
  <speed>9.99</speed>
  <fix>3d</fix>
</trkpt>
<trkpt lat="-35.3643498" lon="149.1631284">
  <ele>682.18</ele>
  <time>2026-08-28T19:09:49Z</time>
  <course>229.33</course>
  <speed>9.97120855262791</speed>
  <fix>3d</fix>
</trkpt>
<trkpt lat="-35.3643421" lon="149.1631396">
  <ele>682.09</ele>
  <time>2026-08-28T19:09:49Z</time>
  <course>229.3</course>
  <speed>9.98</speed>
  <fix>3d</fix>
</trkpt>
<trkpt lat="-35.3643615" lon="149.1631117">
  <ele>682.18</ele>
  <time>2026-08-28T19:09:49Z</time>
  <course>229.32</course>
  <speed>9.957108013876319</speed>
  <fix>3d</fix>
</trkpt>
<trkpt lat="-35.3643539" lon="149.1631229">
  <ele>682.09</ele>
  <time>2026-08-28T19:09:49Z</time>
  <course>229.3</course>
  <speed>9.98</speed>
  <fix>3d</fix>
</trkpt>
<trkpt lat="-35.3643732" lon="149.163095">
  <ele>682.18</ele>
  <time>2026-08-28T19:09:49Z</time>
  <course>229.28</course>
  <speed>9.943007593278807</speed>
  <fix>3d</fix>
</trkpt>
<trkpt lat="-35.3643655" lon="149.1631062">
  <ele>682.09</ele>
  <time>2026-08-28T19:09:49Z</time>
  <course>229.31</course>
  <speed>9.97</speed>
  <fix>3d</fix>
</trkpt>
<trkpt lat="-35.3643849" lon="149.1630784">
  <ele>682.18</ele>
  <time>2026-08-28T19:09:49Z</time>
  <course>229.35</course>
  <speed>9.907214542947983</speed>
  <fix>3d</fix>
</trkpt>
<trkpt lat="-35.3643772" lon="149.1630896">
  <ele>682.09</ele>
  <time>2026-08-28T19:09:49Z</time>
  <course>229.31</course>
  <speed>9.95</speed>
  <fix>3d</fix>
</trkpt>
<trkpt lat="-35.3643965" lon="149.1630619">
  <ele>682.19</ele>
  <time>2026-08-28T19:09:50Z</time>
  <course>229.61</course>
  <speed>9.815019103394553</speed>
  <fix>3d</fix>
</trkpt>
<trkpt lat="-35.3643888" lon="149.163073">
  <ele>682.09</ele>
  <time>2026-08-28T19:09:50Z</time>
  <course>229.3</course>
  <speed>9.89</speed>
  <fix>3d</fix>
</trkpt>
<trkpt lat="-35.3644079" lon="149.1630455">
  <ele>682.21</ele>
  <time>2026-08-28T19:09:50Z</time>
  <course>230.03</course>
  <speed>9.666421261252792</speed>
  <fix>3d</fix>
</trkpt>
<trkpt lat="-35.3644003" lon="149.1630566">
  <ele>682.11</ele>
  <time>2026-08-28T19:09:50Z</time>
  <course>229.3</course>
  <speed>9.79</speed>
  <fix>3d</fix>
</trkpt>
<trkpt lat="-35.3644191" lon="149.1630295">
  <ele>682.24</ele>
  <time>2026-08-28T19:09:50Z</time>
  <course>230.53</course>
  <speed>9.453829911734186</speed>
  <fix>3d</fix>
</trkpt>
<trkpt lat="-35.3644117" lon="149.1630404">
  <ele>682.13</ele>
  <time>2026-08-28T19:09:50Z</time>
  <course>229.33</course>
  <speed>9.63</speed>
  <fix>3d</fix>
</trkpt>
<trkpt lat="-35.36443" lon="149.1630139">
  <ele>682.27</ele>
  <time>2026-08-28T19:09:50Z</time>
  <course>231.08</course>
  <speed>9.206541152897758</speed>
  <fix>3d</fix>
</trkpt>
<trkpt lat="-35.3644229" lon="149.1630245">
  <ele>682.17</ele>
  <time>2026-08-28T19:09:50Z</time>
  <course>229.4</course>
  <speed>9.41</speed>
  <fix>3d</fix>
</trkpt>
<trkpt lat="-35.3644406" lon="149.1629987">
  <ele>682.3</ele>
  <time>2026-08-28T19:09:50Z</time>
  <course>231.63</course>
  <speed>8.91049942483585</speed>
  <fix>3d</fix>
</trkpt>
<trkpt lat="-35.3644337" lon="149.1630089">
  <ele>682.2</ele>
  <time>2026-08-28T19:09:50Z</time>
  <course>229.53</course>
  <speed>9.15</speed>
  <fix>3d</fix>
</trkpt>
<trkpt lat="-35.3644509" lon="149.1629839">
  <ele>682.32</ele>
  <time>2026-08-28T19:09:50Z</time>
  <course>232.14</course>
  <speed>8.564607404896035</speed>
  <fix>3d</fix>
</trkpt>
<trkpt lat="-35.3644442" lon="149.1629938">
  <ele>682.23</ele>
  <time>2026-08-28T19:09:50Z</time>
  <course>229.7</course>
  <speed>8.84</speed>
  <fix>3d</fix>
</trkpt>
<trkpt lat="-35.3644606" lon="149.1629698">
  <ele>682.33</ele>
  <time>2026-08-28T19:09:50Z</time>
  <course>232.61</course>
  <speed>8.176502919953004</speed>
  <fix>3d</fix>
</trkpt>
<trkpt lat="-35.3644543" lon="149.1629792">
  <ele>682.24</ele>
  <time>2026-08-28T19:09:50Z</time>
  <course>229.88</course>
  <speed>8.49</speed>
  <fix>3d</fix>
</trkpt>
<trkpt lat="-35.3644699" lon="149.1629563">
  <ele>682.33</ele>
  <time>2026-08-28T19:09:50Z</time>
  <course>232.99</course>
  <speed>7.744966107091755</speed>
  <fix>3d</fix>
</trkpt>
<trkpt lat="-35.3644638" lon="149.1629652">
  <ele>682.25</ele>
  <time>2026-08-28T19:09:50Z</time>
  <course>230.08</course>
  <speed>8.09</speed>
  <fix>3d</fix>
</trkpt>
<trkpt lat="-35.3644786" lon="149.1629435">
  <ele>682.33</ele>
  <time>2026-08-28T19:09:50Z</time>
  <course>233.31</course>
  <speed>7.277616368015011</speed>
  <fix>3d</fix>
</trkpt>
<trkpt lat="-35.3644729" lon="149.1629519">
  <ele>682.26</ele>
  <time>2026-08-28T19:09:50Z</time>
  <course>230.28</course>
  <speed>7.65</speed>
  <fix>3d</fix>
</trkpt>
<trkpt lat="-35.3644866" lon="149.1629315">
  <ele>682.33</ele>
  <time>2026-08-28T19:09:50Z</time>
  <course>233.56</course>
  <speed>6.760355020263359</speed>
  <fix>3d</fix>
</trkpt>
<trkpt lat="-35.3644814" lon="149.1629393">
  <ele>682.25</ele>
  <time>2026-08-28T19:09:50Z</time>
  <course>230.46</course>
  <speed>7.16</speed>
  <fix>3d</fix>
</trkpt>
<trkpt lat="-35.3644941" lon="149.1629205">
  <ele>682.32</ele>
  <time>2026-08-28T19:09:50Z</time>
  <course>233.77</course>
  <speed>6.2072538211353985</speed>
  <fix>3d</fix>
</trkpt>
<trkpt lat="-35.3644893" lon="149.1629275">
  <ele>682.24</ele>
  <time>2026-08-28T19:09:50Z</time>
  <course>230.63</course>
  <speed>6.64</speed>
  <fix>3d</fix>
</trkpt>
<trkpt lat="-35.3645009" lon="149.1629103">
  <ele>682.3</ele>
  <time>2026-08-28T19:09:50Z</time>
  <course>234.02</course>
  <speed>5.640088651785537</speed>
  <fix>3d</fix>
</trkpt>
<trkpt lat="-35.3644965" lon="149.1629166">
  <ele>682.23</ele>
  <time>2026-08-28T19:09:50Z</time>
  <course>230.79</course>
  <speed>6.08</speed>
  <fix>3d</fix>
</trkpt>
<trkpt lat="-35.364507" lon="149.1629011">
  <ele>682.27</ele>
  <time>2026-08-28T19:09:50Z</time>
  <course>234.34</course>
  <speed>5.060276672277911</speed>
  <fix>3d</fix>
</trkpt>
<trkpt lat="-35.3645031" lon="149.1629068">
  <ele>682.2</ele>
  <time>2026-08-28T19:09:50Z</time>
  <course>231.04</course>
  <speed>5.51</speed>
  <fix>3d</fix>
</trkpt>
<trkpt lat="-35.3645124" lon="149.1628928">
  <ele>682.24</ele>
  <time>2026-08-28T19:09:50Z</time>
  <course>234.97</course>
  <speed>4.477555136455608</speed>
  <fix>3d</fix>
</trkpt>
<trkpt lat="-35.364509" lon="149.1628978">
  <ele>682.18</ele>
  <time>2026-08-28T19:09:50Z</time>
  <course>231.57</course>
  <speed>4.92</speed>
  <fix>3d</fix>
</trkpt>
<trkpt lat="-35.364517" lon="149.1628854">
  <ele>682.2</ele>
  <time>2026-08-28T19:09:50Z</time>
  <course>236.25</course>
  <speed>3.8940082177622584</speed>
  <fix>3d</fix>
</trkpt>
<trkpt lat="-35.3645141" lon="149.1628897">
  <ele>682.15</ele>
  <time>2026-08-28T19:09:50Z</time>
  <course>232.67</course>
  <speed>4.33</speed>
  <fix>3d</fix>
</trkpt>
<trkpt lat="-35.3645207" lon="149.1628787">
  <ele>682.15</ele>
  <time>2026-08-28T19:09:50Z</time>
  <course>238.61</course>
  <speed>3.3087913201046693</speed>
  <fix>3d</fix>
</trkpt>
<trkpt lat="-35.3645184" lon="149.1628826">
  <ele>682.1</ele>
  <time>2026-08-28T19:09:50Z</time>
  <course>234.69</course>
  <speed>3.74</speed>
  <fix>3d</fix>
</trkpt>
<trkpt lat="-35.3645236" lon="149.1628729">
  <ele>682.1</ele>
  <time>2026-08-28T19:09:50Z</time>
  <course>242.49</course>
  <speed>2.7478173156161603</speed>
  <fix>3d</fix>
</trkpt>
<trkpt lat="-35.3645219" lon="149.1628763">
  <ele>682.05</ele>
  <time>2026-08-28T19:09:50Z</time>
  <course>238.14</course>
  <speed>3.17</speed>
  <fix>3d</fix>
</trkpt>
<trkpt lat="-35.3645255" lon="149.1628678">
  <ele>682.03</ele>
  <time>2026-08-28T19:09:50Z</time>
  <course>248.64</course>
  <speed>2.2308070288574937</speed>
  <fix>3d</fix>
</trkpt>
<trkpt lat="-35.3645244" lon="149.1628708">
  <ele>682.0</ele>
  <time>2026-08-28T19:09:50Z</time>
  <course>243.92</course>
  <speed>2.62</speed>
  <fix>3d</fix>
</trkpt>
<trkpt lat="-35.3645264" lon="149.1628634">
  <ele>681.96</ele>
  <time>2026-08-28T19:09:50Z</time>
  <course>257.97</course>
  <speed>1.8332484828849578</speed>
  <fix>3d</fix>
</trkpt>
<trkpt lat="-35.364526" lon="149.1628659">
  <ele>681.94</ele>
  <time>2026-08-28T19:09:50Z</time>
  <course>253.44</course>
  <speed>2.13</speed>
  <fix>3d</fix>
</trkpt>
<trkpt lat="-35.3645263" lon="149.1628595">
  <ele>681.89</ele>
  <time>2026-08-28T19:09:50Z</time>
  <course>269.36</course>
  <speed>1.6497575579460153</speed>
  <fix>3d</fix>
</trkpt>
<trkpt lat="-35.3645265" lon="149.1628617">
  <ele>681.87</ele>
  <time>2026-08-28T19:09:50Z</time>
  <course>268.63</course>
  <speed>1.78</speed>
  <fix>3d</fix>
</trkpt>
<trkpt lat="-35.3645251" lon="149.162856">
  <ele>681.8</ele>
  <time>2026-08-28T19:09:50Z</time>
  <course>279.79</course>
  <speed>1.7640861656959956</speed>
  <fix>3d</fix>
</trkpt>
<trkpt lat="-35.3645261" lon="149.1628579">
  <ele>681.79</ele>
  <time>2026-08-28T19:09:50Z</time>
  <course>288.96</course>
  <speed>1.68</speed>
  <fix>3d</fix>
</trkpt>
<trkpt lat="-35.3645229" lon="149.1628527">
  <ele>681.7</ele>
  <time>2026-08-28T19:09:50Z</time>
  <course>290.18</course>
  <speed>2.1236289694765422</speed>
  <fix>3d</fix>
</trkpt>
<trkpt lat="-35.3645247" lon="149.1628546">
  <ele>681.7</ele>
  <time>2026-08-28T19:09:50Z</time>
  <course>307.91</course>
  <speed>1.87</speed>
  <fix>3d</fix>
</trkpt>
<trkpt lat="-35.3645195" lon="149.1628495">
  <ele>681.58</ele>
  <time>2026-08-28T19:09:50Z</time>
  <course>300.81</course>
  <speed>2.6293725487271673</speed>
  <fix>3d</fix>
</trkpt>
<trkpt lat="-35.3645221" lon="149.1628514">
  <ele>681.6</ele>
  <time>2026-08-28T19:09:50Z</time>
  <course>320.85</course>
  <speed>2.27</speed>
  <fix>3d</fix>
</trkpt>
<trkpt lat="-35.364515" lon="149.1628463">
  <ele>681.45</ele>
  <time>2026-08-28T19:09:50Z</time>
  <course>311.86</course>
  <speed>3.220636583037583</speed>
  <fix>3d</fix>
</trkpt>
<trkpt lat="-35.3645183" lon="149.1628483">
  <ele>681.47</ele>
  <time>2026-08-28T19:09:50Z</time>
  <course>328.67</course>
  <speed>2.79</speed>
  <fix>3d</fix>
</trkpt>
<trkpt lat="-35.3645094" lon="149.1628428">
  <ele>681.3</ele>
  <time>2026-08-28T19:09:50Z</time>
  <course>323.62</course>
  <speed>3.8715629918677545</speed>
  <fix>3d</fix>
</trkpt>
<trkpt lat="-35.3645135" lon="149.162845">
  <ele>681.33</ele>
  <time>2026-08-28T19:09:50Z</time>
  <course>333.41</course>
  <speed>3.4</speed>
  <fix>3d</fix>
</trkpt>
<trkpt lat="-35.3645024" lon="149.1628392">
  <ele>681.13</ele>
  <time>2026-08-28T19:09:50Z</time>
  <course>335.66</course>
  <speed>4.560701700396552</speed>
  <fix>3d</fix>
</trkpt>
<trkpt lat="-35.3645074" lon="149.1628415">
  <ele>681.18</ele>
  <time>2026-08-28T19:09:50Z</time>
  <course>336.52</course>
  <speed>4.05</speed>
  <fix>3d</fix>
</trkpt>
<trkpt lat="-35.3644942" lon="149.1628354">
  <ele>680.95</ele>
  <time>2026-08-28T19:09:50Z</time>
  <course>338.86</course>
  <speed>5.228049349422784</speed>
  <fix>3d</fix>
</trkpt>
<trkpt lat="-35.3645001" lon="149.1628379">
  <ele>681.0</ele>
  <time>2026-08-28T19:09:50Z</time>
  <course>338.99</course>
  <speed>4.73</speed>
  <fix>3d</fix>
</trkpt>
<trkpt lat="-35.3644848" lon="149.1628314">
  <ele>680.76</ele>
  <time>2026-08-28T19:09:50Z</time>
  <course>339.49</course>
  <speed>5.843902805488812</speed>
  <fix>3d</fix>
</trkpt>
<trkpt lat="-35.3644915" lon="149.162834">
  <ele>680.81</ele>
  <time>2026-08-28T19:09:50Z</time>
  <course>340.67</course>
  <speed>5.38</speed>
  <fix>3d</fix>
</trkpt>
<trkpt lat="-35.3644744" lon="149.1628271">
  <ele>680.56</ele>
  <time>2026-08-28T19:09:50Z</time>
  <course>340.1</course>
  <speed>6.37837753664676</speed>
  <fix>3d</fix>
</trkpt>
<trkpt lat="-35.3644818" lon="149.1628299">
  <ele>680.62</ele>
  <time>2026-08-28T19:09:50Z</time>
  <course>341.44</course>
  <speed>5.98</speed>
  <fix>3d</fix>
</trkpt>
<trkpt lat="-35.3644633" lon="149.1628226">
  <ele>680.35</ele>
  <time>2026-08-28T19:09:50Z</time>
  <course>340.75</course>
  <speed>6.821297530528924</speed>
  <fix>3d</fix>
</trkpt>
<trkpt lat="-35.3644711" lon="149.1628256">
  <ele>680.42</ele>
  <time>2026-08-28T19:09:50Z</time>
  <course>341.85</course>
  <speed>6.5</speed>
  <fix>3d</fix>
</trkpt>
<trkpt lat="-35.3644514" lon="149.1628179">
  <ele>680.15</ele>
  <time>2026-08-28T19:09:50Z</time>
  <course>341.34</course>
  <speed>7.172516991963143</speed>
  <fix>3d</fix>
</trkpt>
<trkpt lat="-35.3644597" lon="149.162821">
  <ele>680.22</ele>
  <time>2026-08-28T19:09:50Z</time>
  <course>342.07</course>
  <speed>6.93</speed>
  <fix>3d</fix>
</trkpt>
<trkpt lat="-35.364439" lon="149.162813">
  <ele>679.94</ele>
  <time>2026-08-28T19:09:50Z</time>
  <course>341.85</course>
  <speed>7.441485066839817</speed>
  <fix>3d</fix>
</trkpt>
<trkpt lat="-35.3644475" lon="149.1628162">
  <ele>680.01</ele>
  <time>2026-08-28T19:09:50Z</time>
  <course>342.2</course>
  <speed>7.26</speed>
  <fix>3d</fix>
</trkpt>
<trkpt lat="-35.3644261" lon="149.1628079">
  <ele>679.72</ele>
  <time>2026-08-28T19:09:50Z</time>
  <course>342.43</course>
  <speed>7.634684014417362</speed>
  <fix>3d</fix>
</trkpt>
<trkpt lat="-35.3644348" lon="149.1628112">
  <ele>679.8</ele>
  <time>2026-08-28T19:09:50Z</time>
  <course>342.34</course>
  <speed>7.52</speed>
  <fix>3d</fix>
</trkpt>
<trkpt lat="-35.3644129" lon="149.1628029">
  <ele>679.48</ele>
  <time>2026-08-28T19:09:50Z</time>
  <course>343.11</course>
  <speed>7.780809726500192</speed>
  <fix>3d</fix>
</trkpt>
<trkpt lat="-35.3644218" lon="149.1628062">
  <ele>679.58</ele>
  <time>2026-08-28T19:09:50Z</time>
  <course>342.57</course>
  <speed>7.7</speed>
  <fix>3d</fix>
</trkpt>
<trkpt lat="-35.3643996" lon="149.1627978">
  <ele>679.24</ele>
  <time>2026-08-28T19:09:50Z</time>
  <course>343.86</course>
  <speed>7.8867547191477945</speed>
  <fix>3d</fix>
</trkpt>
<trkpt lat="-35.3644084" lon="149.1628011">
  <ele>679.35</ele>
  <time>2026-08-28T19:09:50Z</time>
  <course>342.93</course>
  <speed>7.84</speed>
  <fix>3d</fix>
</trkpt>
<trkpt lat="-35.3643859" lon="149.1627928">
  <ele>678.98</ele>
  <time>2026-08-28T19:09:50Z</time>
  <course>344.65</course>
  <speed>7.961607877809607</speed>
  <fix>3d</fix>
</trkpt>
<trkpt lat="-35.3643949" lon="149.162796">
  <ele>679.1</ele>
  <time>2026-08-28T19:09:50Z</time>
  <course>343.39</course>
  <speed>7.93</speed>
  <fix>3d</fix>
</trkpt>
<trkpt lat="-35.364372" lon="149.1627879">
  <ele>678.7</ele>
  <time>2026-08-28T19:09:50Z</time>
  <course>345.42</course>
  <speed>8.002649561239076</speed>
  <fix>3d</fix>
</trkpt>
<trkpt lat="-35.3643811" lon="149.1627911">
  <ele>678.84</ele>
  <time>2026-08-28T19:09:50Z</time>
  <course>343.92</course>
  <speed>7.99</speed>
  <fix>3d</fix>
</trkpt>
<trkpt lat="-35.3643581" lon="149.1627832">
  <ele>678.41</ele>
  <time>2026-08-28T19:09:50Z</time>
  <course>346.14</course>
  <speed>8.01280225638946</speed>
  <fix>3d</fix>
</trkpt>
<trkpt lat="-35.3643673" lon="149.1627863">
  <ele>678.57</ele>
  <time>2026-08-28T19:09:50Z</time>
  <course>344.47</course>
  <speed>8.03</speed>
  <fix>3d</fix>
</trkpt>
<trkpt lat="-35.3643442" lon="149.1627786">
  <ele>678.12</ele>
  <time>2026-08-28T19:09:50Z</time>
  <course>346.85</course>
  <speed>8.00687829306778</speed>
  <fix>3d</fix>
</trkpt>
<trkpt lat="-35.3643534" lon="149.1627816">
  <ele>678.29</ele>
  <time>2026-08-28T19:09:50Z</time>
  <course>345.01</course>
  <speed>8.03</speed>
  <fix>3d</fix>
</trkpt>
<trkpt lat="-35.3643302" lon="149.1627742">
  <ele>677.83</ele>
  <time>2026-08-28T19:09:50Z</time>
  <course>347.49</course>
  <speed>7.960182158719737</speed>
  <fix>3d</fix>
</trkpt>
<trkpt lat="-35.3643393" lon="149.1627772">
  <ele>678.0</ele>
  <time>2026-08-28T19:09:50Z</time>
  <course>345.51</course>
  <speed>8.01</speed>
  <fix>3d</fix>
</trkpt>
<trkpt lat="-35.3643164" lon="149.1627699">
  <ele>677.54</ele>
  <time>2026-08-28T19:09:50Z</time>
  <course>348.07</course>
  <speed>7.894536085166753</speed>
  <fix>3d</fix>
</trkpt>
<trkpt lat="-35.3643254" lon="149.1627729">
  <ele>677.7</ele>
  <time>2026-08-28T19:09:50Z</time>
  <course>345.96</course>
  <speed>7.95</speed>
  <fix>3d</fix>
</trkpt>
<trkpt lat="-35.3643027" lon="149.1627658">
  <ele>677.24</ele>
  <time>2026-08-28T19:09:50Z</time>
  <course>348.53</course>
  <speed>7.802493191281874</speed>
  <fix>3d</fix>
</trkpt>
<trkpt lat="-35.3643117" lon="149.1627687">
  <ele>677.41</ele>
  <time>2026-08-28T19:09:50Z</time>
  <course>346.34</course>
  <speed>7.88</speed>
  <fix>3d</fix>
</trkpt>
<trkpt lat="-35.3642891" lon="149.1627619">
  <ele>676.93</ele>
  <time>2026-08-28T19:09:50Z</time>
  <course>348.86</course>
  <speed>7.72503721673883</speed>
  <fix>3d</fix>
</trkpt>
<trkpt lat="-35.364298" lon="149.1627647">
  <ele>677.12</ele>
  <time>2026-08-28T19:09:50Z</time>
  <course>346.64</course>
  <speed>7.79</speed>
  <fix>3d</fix>
</trkpt>
<trkpt lat="-35.3642756" lon="149.162758">
  <ele>676.62</ele>
  <time>2026-08-28T19:09:50Z</time>
  <course>348.98</course>
  <speed>7.669419795525604</speed>
  <fix>3d</fix>
</trkpt>
<trkpt lat="-35.3642844" lon="149.1627607">
  <ele>676.81</ele>
  <time>2026-08-28T19:09:50Z</time>
  <course>346.86</course>
  <speed>7.71</speed>
  <fix>3d</fix>
</trkpt>
<trkpt lat="-35.3642622" lon="149.1627542">
  <ele>676.3</ele>
  <time>2026-08-28T19:09:50Z</time>
  <course>348.91</course>
  <speed>7.647646696860415</speed>
  <fix>3d</fix>
</trkpt>
<trkpt lat="-35.3642709" lon="149.1627569">
  <ele>676.5</ele>
  <time>2026-08-28T19:09:50Z</time>
  <course>346.98</course>
  <speed>7.66</speed>
  <fix>3d</fix>
</trkpt>
<trkpt lat="-35.3642489" lon="149.1627503">
  <ele>675.98</ele>
  <time>2026-08-28T19:09:50Z</time>
  <course>348.66</course>
  <speed>7.640242142759613</speed>
  <fix>3d</fix>
</trkpt>
<trkpt lat="-35.3642576" lon="149.1627532">
  <ele>676.19</ele>
  <time>2026-08-28T19:09:50Z</time>
  <course>346.96</course>
  <speed>7.63</speed>
  <fix>3d</fix>
</trkpt>
<trkpt lat="-35.3642354" lon="149.1627465">
  <ele>675.66</ele>
  <time>2026-08-28T19:09:50Z</time>
  <course>348.27</course>
  <speed>7.669087299020659</speed>
  <fix>3d</fix>
</trkpt>
<trkpt lat="-35.3642442" lon="149.1627493">
  <ele>675.87</ele>
  <time>2026-08-28T19:09:50Z</time>
  <course>346.78</course>
  <speed>7.63</speed>
  <fix>3d</fix>
</trkpt>
<trkpt lat="-35.364222" lon="149.1627425">
  <ele>675.35</ele>
  <time>2026-08-28T19:09:50Z</time>
  <course>347.72</course>
  <speed>7.702940996788175</speed>
  <fix>3d</fix>
</trkpt>
<trkpt lat="-35.3642308" lon="149.1627454">
  <ele>675.55</ele>
  <time>2026-08-28T19:09:50Z</time>
  <course>346.46</course>
  <speed>7.66</speed>
  <fix>3d</fix>
</trkpt>
<trkpt lat="-35.3642085" lon="149.1627383">
  <ele>675.04</ele>
  <time>2026-08-28T19:09:50Z</time>
  <course>347.1</course>
  <speed>7.761552679715574</speed>
  <fix>3d</fix>
</trkpt>
<trkpt lat="-35.3642174" lon="149.1627414">
  <ele>675.24</ele>
  <time>2026-08-28T19:09:50Z</time>
  <course>346.02</course>
  <speed>7.69</speed>
  <fix>3d</fix>
</trkpt>
<trkpt lat="-35.364195" lon="149.162734">
  <ele>674.73</ele>
  <time>2026-08-28T19:09:50Z</time>
  <course>346.46</course>
  <speed>7.820748046063113</speed>
  <fix>3d</fix>
</trkpt>
<trkpt lat="-35.364204" lon="149.1627372">
  <ele>674.93</ele>
  <time>2026-08-28T19:09:50Z</time>
  <course>345.49</course>
  <speed>7.74</speed>
  <fix>3d</fix>
</trkpt>
<trkpt lat="-35.3641814" lon="149.1627295">
  <ele>674.43</ele>
  <time>2026-08-28T19:09:50Z</time>
  <course>345.81</course>
  <speed>7.883210006082547</speed>
  <fix>3d</fix>
</trkpt>
<trkpt lat="-35.3641905" lon="149.1627328">
  <ele>674.63</ele>
  <time>2026-08-28T19:09:50Z</time>
  <course>344.93</course>
  <speed>7.8</speed>
  <fix>3d</fix>
</trkpt>
<trkpt lat="-35.3641677" lon="149.1627248">
  <ele>674.13</ele>
  <time>2026-08-28T19:09:50Z</time>
  <course>345.19</course>
  <speed>7.943613787187794</speed>
  <fix>3d</fix>
</trkpt>
<trkpt lat="-35.3641768" lon="149.1627283">
  <ele>674.32</ele>
  <time>2026-08-28T19:09:50Z</time>
  <course>344.36</course>
  <speed>7.87</speed>
  <fix>3d</fix>
</trkpt>
<trkpt lat="-35.364154" lon="149.1627199">
  <ele>673.83</ele>
  <time>2026-08-28T19:09:50Z</time>
  <course>344.6</course>
  <speed>8.014143747151033</speed>
  <fix>3d</fix>
</trkpt>
<trkpt lat="-35.3641632" lon="149.1627235">
  <ele>674.03</ele>
  <time>2026-08-28T19:09:50Z</time>
  <course>343.83</course>
  <speed>7.93</speed>
  <fix>3d</fix>
</trkpt>
<trkpt lat="-35.3641402" lon="149.1627149">
  <ele>673.54</ele>
  <time>2026-08-28T19:09:50Z</time>
  <course>344.11</course>
  <speed>8.075599048987016</speed>
  <fix>3d</fix>
</trkpt>
<trkpt lat="-35.3641495" lon="149.1627185">
  <ele>673.74</ele>
  <time>2026-08-28T19:09:50Z</time>
  <course>343.34</course>
  <speed>8.0</speed>
  <fix>3d</fix>
</trkpt>
<trkpt lat="-35.3641264" lon="149.1627097">
  <ele>673.24</ele>
  <time>2026-08-28T19:09:50Z</time>
  <course>343.66</course>
  <speed>8.131574263326875</speed>
  <fix>3d</fix>
</trkpt>
<trkpt lat="-35.3641357" lon="149.1627133">
  <ele>673.45</ele>
  <time>2026-08-28T19:09:50Z</time>
  <course>342.91</course>
  <speed>8.06</speed>
  <fix>3d</fix>
</trkpt>
<trkpt lat="-35.3641126" lon="149.1627044">
  <ele>672.95</ele>
  <time>2026-08-28T19:09:50Z</time>
  <course>343.3</course>
  <speed>8.184766337532183</speed>
  <fix>3d</fix>
</trkpt>
<trkpt lat="-35.3641218" lon="149.162708">
  <ele>673.16</ele>
  <time>2026-08-28T19:09:50Z</time>
  <course>342.55</course>
  <speed>8.12</speed>
  <fix>3d</fix>
</trkpt>
<trkpt lat="-35.3640986" lon="149.1626989">
  <ele>672.66</ele>
  <time>2026-08-28T19:09:50Z</time>
  <course>343.02</course>
  <speed>8.235047055117537</speed>
  <fix>3d</fix>
</trkpt>
<trkpt lat="-35.3641078" lon="149.1627027">
  <ele>672.88</ele>
  <time>2026-08-28T19:09:50Z</time>
  <course>342.27</course>
  <speed>8.18</speed>
  <fix>3d</fix>
</trkpt>
<trkpt lat="-35.3640844" lon="149.1626933">
  <ele>672.36</ele>
  <time>2026-08-28T19:09:50Z</time>
  <course>342.84</course>
  <speed>8.285408861365866</speed>
  <fix>3d</fix>
</trkpt>
<trkpt lat="-35.3640938" lon="149.1626972">
  <ele>672.59</ele>
  <time>2026-08-28T19:09:50Z</time>
  <course>342.07</course>
  <speed>8.24</speed>
  <fix>3d</fix>
</trkpt>
<trkpt lat="-35.3640703" lon="149.1626877">
  <ele>672.08</ele>
  <time>2026-08-28T19:09:50Z</time>
  <course>342.74</course>
  <speed>8.320126200965944</speed>
  <fix>3d</fix>
</trkpt>
<trkpt lat="-35.3640797" lon="149.1626915">
  <ele>672.3</ele>
  <time>2026-08-28T19:09:50Z</time>
  <course>341.94</course>
  <speed>8.29</speed>
  <fix>3d</fix>
</trkpt>
<trkpt lat="-35.364056" lon="149.162682">
  <ele>671.79</ele>
  <time>2026-08-28T19:09:50Z</time>
  <course>342.72</course>
  <speed>8.34865258589672</speed>
  <fix>3d</fix>
</trkpt>
<trkpt lat="-35.3640655" lon="149.1626858">
  <ele>672.02</ele>
  <time>2026-08-28T19:09:50Z</time>
  <course>341.88</course>
  <speed>8.33</speed>
  <fix>3d</fix>
</trkpt>
<trkpt lat="-35.3640418" lon="149.1626763">
  <ele>671.5</ele>
  <time>2026-08-28T19:09:50Z</time>
  <course>342.78</course>
  <speed>8.377189266096355</speed>
  <fix>3d</fix>
</trkpt>
<trkpt lat="-35.3640512" lon="149.1626801">
  <ele>671.73</ele>
  <time>2026-08-28T19:09:50Z</time>
  <course>341.9</course>
  <speed>8.36</speed>
  <fix>3d</fix>
</trkpt>
<trkpt lat="-35.3640275" lon="149.1626706">
  <ele>671.21</ele>
  <time>2026-08-28T19:09:50Z</time>
  <course>342.94</course>
  <speed>8.383632864098951</speed>
  <fix>3d</fix>
</trkpt>
<trkpt lat="-35.3640369" lon="149.1626743">
  <ele>671.44</ele>
  <time>2026-08-28T19:09:50Z</time>
  <course>341.97</course>
  <speed>8.38</speed>
  <fix>3d</fix>
</trkpt>
<trkpt lat="-35.3640131" lon="149.162665">
  <ele>670.93</ele>
  <time>2026-08-28T19:09:50Z</time>
  <course>343.16</course>
  <speed>8.38401455151409</speed>
  <fix>3d</fix>
</trkpt>
<trkpt lat="-35.3640226" lon="149.1626686">
  <ele>671.16</ele>
  <time>2026-08-28T19:09:50Z</time>
  <course>342.11</course>
  <speed>8.39</speed>
  <fix>3d</fix>
</trkpt>
<trkpt lat="-35.3639988" lon="149.1626594">
  <ele>670.63</ele>
  <time>2026-08-28T19:09:50Z</time>
  <course>343.44</course>
  <speed>8.374974626827235</speed>
  <fix>3d</fix>
</trkpt>
<trkpt lat="-35.3640082" lon="149.162663">
  <ele>670.87</ele>
  <time>2026-08-28T19:09:50Z</time>
  <course>342.29</course>
  <speed>8.39</speed>
  <fix>3d</fix>
</trkpt>
<trkpt lat="-35.3639845" lon="149.1626539">
  <ele>670.33</ele>
  <time>2026-08-28T19:09:50Z</time>
  <course>343.69</course>
  <speed>8.363073597667308</speed>
  <fix>3d</fix>
</trkpt>
<trkpt lat="-35.3639938" lon="149.1626574">
  <ele>670.58</ele>
  <time>2026-08-28T19:09:50Z</time>
  <course>342.51</course>
  <speed>8.38</speed>
  <fix>3d</fix>
</trkpt>
<trkpt lat="-35.3639702" lon="149.1626485">
  <ele>670.04</ele>
  <time>2026-08-28T19:09:50Z</time>
  <course>343.95</course>
  <speed>8.341780385505244</speed>
  <fix>3d</fix>
</trkpt>
<trkpt lat="-35.3639795" lon="149.1626519">
  <ele>670.29</ele>
  <time>2026-08-28T19:09:50Z</time>
  <course>342.76</course>
  <speed>8.37</speed>
  <fix>3d</fix>
</trkpt>
<trkpt lat="-35.3639558" lon="149.1626431">
  <ele>669.74</ele>
  <time>2026-08-28T19:09:50Z</time>
  <course>344.24</course>
  <speed>8.320636994846007</speed>
  <fix>3d</fix>
</trkpt>
<trkpt lat="-35.3639651" lon="149.1626465">
  <ele>669.99</ele>
  <time>2026-08-28T19:09:50Z</time>
  <course>343.02</course>
  <speed>8.36</speed>
  <fix>3d</fix>
</trkpt>
<trkpt lat="-35.3639415" lon="149.1626379">
  <ele>669.44</ele>
  <time>2026-08-28T19:09:50Z</time>
  <course>344.5</course>
  <speed>8.299644570703013</speed>
  <fix>3d</fix>
</trkpt>
<trkpt lat="-35.3639508" lon="149.1626412">
  <ele>669.69</ele>
  <time>2026-08-28T19:09:50Z</time>
  <course>343.28</course>
  <speed>8.34</speed>
  <fix>3d</fix>
</trkpt>
<trkpt lat="-35.3639271" lon="149.1626327">
  <ele>669.14</ele>
  <time>2026-08-28T19:09:50Z</time>
  <course>344.75</course>
  <speed>8.278804261486075</speed>
  <fix>3d</fix>
</trkpt>
<trkpt lat="-35.3639364" lon="149.162636">
  <ele>669.4</ele>
  <time>2026-08-28T19:09:50Z</time>
  <course>343.53</course>
  <speed>8.32</speed>
  <fix>3d</fix>
</trkpt>
<trkpt lat="-35.3639127" lon="149.1626276">
  <ele>668.85</ele>
  <time>2026-08-28T19:09:50Z</time>
  <course>344.99</course>
  <speed>8.248502894465153</speed>
  <fix>3d</fix>
</trkpt>
<trkpt lat="-35.363922" lon="149.1626308">
  <ele>669.1</ele>
  <time>2026-08-28T19:09:50Z</time>
  <course>343.76</course>
  <speed>8.29</speed>
  <fix>3d</fix>
</trkpt>
<trkpt lat="-35.3638984" lon="149.1626225">
  <ele>668.55</ele>
  <time>2026-08-28T19:09:50Z</time>
  <course>345.19</course>
  <speed>8.221052244086518</speed>
  <fix>3d</fix>
</trkpt>
<trkpt lat="-35.3639077" lon="149.1626256">
  <ele>668.8</ele>
  <time>2026-08-28T19:09:50Z</time>
  <course>343.97</course>
  <speed>8.26</speed>
  <fix>3d</fix>
</trkpt>
<trkpt lat="-35.3638842" lon="149.1626176">
  <ele>668.25</ele>
  <time>2026-08-28T19:09:50Z</time>
  <course>345.36</course>
  <speed>8.193668287159298</speed>
  <fix>3d</fix>
</trkpt>
<trkpt lat="-35.3638935" lon="149.1626207">
  <ele>668.51</ele>
  <time>2026-08-28T19:09:50Z</time>
  <course>344.14</course>
  <speed>8.23</speed>
  <fix>3d</fix>
</trkpt>
<trkpt lat="-35.36387" lon="149.1626127">
  <ele>667.94</ele>
  <time>2026-08-28T19:09:50Z</time>
  <course>345.46</course>
  <speed>8.159393359803166</speed>
  <fix>3d</fix>
</trkpt>
<trkpt lat="-35.3638793" lon="149.1626158">
  <ele>668.2</ele>
  <time>2026-08-28T19:09:50Z</time>
  <course>344.27</course>
  <speed>8.2</speed>
  <fix>3d</fix>
</trkpt>
<trkpt lat="-35.3638558" lon="149.1626078">
  <ele>667.64</ele>
  <time>2026-08-28T19:09:50Z</time>
  <course>345.52</course>
  <speed>8.125133845051415</speed>
  <fix>3d</fix>
</trkpt>
<trkpt lat="-35.3638652" lon="149.1626109">
  <ele>667.91</ele>
  <time>2026-08-28T19:09:50Z</time>
  <course>344.37</course>
  <speed>8.17</speed>
  <fix>3d</fix>
</trkpt>
<trkpt lat="-35.3638417" lon="149.162603">
  <ele>667.33</ele>
  <time>2026-08-28T19:09:50Z</time>
  <course>345.55</course>
  <speed>8.103190729583009</speed>
  <fix>3d</fix>
</trkpt>
<trkpt lat="-35.363851" lon="149.1626061">
  <ele>667.61</ele>
  <time>2026-08-28T19:09:50Z</time>
  <course>344.44</course>
  <speed>8.14</speed>
  <fix>3d</fix>
</trkpt>
<trkpt lat="-35.3638277" lon="149.1625982">
  <ele>667.03</ele>
  <time>2026-08-28T19:09:50Z</time>
  <course>345.53</course>
  <speed>8.083916130193336</speed>
  <fix>3d</fix>
</trkpt>
<trkpt lat="-35.363837" lon="149.1626013">
  <ele>667.31</ele>
  <time>2026-08-28T19:09:50Z</time>
  <course>344.47</course>
  <speed>8.11</speed>
  <fix>3d</fix>
</trkpt>
<trkpt lat="-35.3638137" lon="149.1625934">
  <ele>666.73</ele>
  <time>2026-08-28T19:09:50Z</time>
  <course>345.47</course>
  <speed>8.064645063485436</speed>
  <fix>3d</fix>
</trkpt>
<trkpt lat="-35.3638229" lon="149.1625965">
  <ele>667.01</ele>
  <time>2026-08-28T19:09:50Z</time>
  <course>344.46</course>
  <speed>8.09</speed>
  <fix>3d</fix>
</trkpt>
<trkpt lat="-35.3637997" lon="149.1625886">
  <ele>666.44</ele>
  <time>2026-08-28T19:09:50Z</time>
  <course>345.38</course>
  <speed>8.04537755484477</speed>
  <fix>3d</fix>
</trkpt>
<trkpt lat="-35.363809" lon="149.1625918">
  <ele>666.7</ele>
  <time>2026-08-28T19:09:50Z</time>
  <course>344.41</course>
  <speed>8.07</speed>
  <fix>3d</fix>
</trkpt>
<trkpt lat="-35.3637856" lon="149.1625838">
  <ele>666.14</ele>
  <time>2026-08-28T19:09:50Z</time>
  <course>345.25</course>
  <speed>8.04114419718985</speed>
  <fix>3d</fix>
</trkpt>
<trkpt lat="-35.363795" lon="149.162587">
  <ele>666.41</ele>
  <time>2026-08-28T19:09:50Z</time>
  <course>344.33</course>
  <speed>8.06</speed>
  <fix>3d</fix>
</trkpt>
<trkpt lat="-35.3637717" lon="149.162579">
  <ele>665.84</ele>
  <time>2026-08-28T19:09:50Z</time>
  <course>345.12</course>
  <speed>8.03423922969686</speed>
  <fix>3d</fix>
</trkpt>
<trkpt lat="-35.3637811" lon="149.1625822">
  <ele>666.11</ele>
  <time>2026-08-28T19:09:50Z</time>
  <course>344.22</course>
  <speed>8.05</speed>
  <fix>3d</fix>
</trkpt>
<trkpt lat="-35.3637578" lon="149.1625741">
  <ele>665.54</ele>
  <time>2026-08-28T19:09:50Z</time>
  <course>344.96</course>
  <speed>8.030099625782983</speed>
  <fix>3d</fix>
</trkpt>
<trkpt lat="-35.3637672" lon="149.1625773">
  <ele>665.81</ele>
  <time>2026-08-28T19:09:50Z</time>
  <course>344.09</course>
  <speed>8.04</speed>
  <fix>3d</fix>
</trkpt>
<trkpt lat="-35.363744" lon="149.1625692">
  <ele>665.24</ele>
  <time>2026-08-28T19:09:50Z</time>
  <course>344.74</course>
  <speed>8.026020184375318</speed>
  <fix>3d</fix>
</trkpt>
<trkpt lat="-35.3637532" lon="149.1625724">
  <ele>665.51</ele>
  <time>2026-08-28T19:09:50Z</time>
  <course>343.94</course>
  <speed>8.04</speed>
  <fix>3d</fix>
</trkpt>
<trkpt lat="-35.3637301" lon="149.1625643">
  <ele>664.94</ele>
  <time>2026-08-28T19:09:50Z</time>
  <course>344.53</course>
  <speed>8.031600089645899</speed>
  <fix>3d</fix>
</trkpt>
<trkpt lat="-35.3637394" lon="149.1625675">
  <ele>665.2</ele>
  <time>2026-08-28T19:09:50Z</time>
  <course>343.79</course>
  <speed>8.04</speed>
  <fix>3d</fix>
</trkpt>
<trkpt lat="-35.3637163" lon="149.1625593">
  <ele>664.65</ele>
  <time>2026-08-28T19:09:50Z</time>
  <course>344.36</course>
  <speed>8.046819247379675</speed>
  <fix>3d</fix>
</trkpt>
<trkpt lat="-35.3637255" lon="149.1625626">
  <ele>664.91</ele>
  <time>2026-08-28T19:09:50Z</time>
  <course>343.64</course>
  <speed>8.05</speed>
  <fix>3d</fix>
</trkpt>
<trkpt lat="-35.3637025" lon="149.1625543">
  <ele>664.35</ele>
  <time>2026-08-28T19:09:50Z</time>
  <course>344.17</course>
  <speed>8.05248408877658</speed>
  <fix>3d</fix>
</trkpt>
<trkpt lat="-35.3637116" lon="149.1625575">
  <ele>664.6</ele>
  <time>2026-08-28T19:09:50Z</time>
  <course>343.5</course>
  <speed>8.06</speed>
  <fix>3d</fix>
</trkpt>
<trkpt lat="-35.3636886" lon="149.1625492">
  <ele>664.05</ele>
  <time>2026-08-28T19:09:50Z</time>
  <course>344.0</course>
  <speed>8.077357241078296</speed>
  <fix>3d</fix>
</trkpt>
<trkpt lat="-35.3636977" lon="149.1625524">
  <ele>664.3</ele>
  <time>2026-08-28T19:09:50Z</time>
  <course>343.37</course>
  <speed>8.08</speed>
  <fix>3d</fix>
</trkpt>
<trkpt lat="-35.3636748" lon="149.1625441">
  <ele>663.75</ele>
  <time>2026-08-28T19:09:50Z</time>
  <course>343.84</course>
  <speed>8.092675700903873</speed>
  <fix>3d</fix>
</trkpt>
<trkpt lat="-35.3636838" lon="149.1625473">
  <ele>663.99</ele>
  <time>2026-08-28T19:09:50Z</time>
  <course>343.25</course>
  <speed>8.1</speed>
  <fix>3d</fix>
</trkpt>
<trkpt lat="-35.3636608" lon="149.1625389">
  <ele>663.44</ele>
  <time>2026-08-28T19:09:50Z</time>
  <course>343.71</course>
  <speed>8.117598166945688</speed>
  <fix>3d</fix>
</trkpt>
<trkpt lat="-35.3636699" lon="149.1625422">
  <ele>663.69</ele>
  <time>2026-08-28T19:09:50Z</time>
  <course>343.15</course>
  <speed>8.12</speed>
  <fix>3d</fix>
</trkpt>
<trkpt lat="-35.3636468" lon="149.1625337">
  <ele>663.14</ele>
  <time>2026-08-28T19:09:50Z</time>
  <course>343.59</course>
  <speed>8.139637584069698</speed>
  <fix>3d</fix>
</trkpt>
<trkpt lat="-35.3636559" lon="149.1625369">
  <ele>663.39</ele>
  <time>2026-08-28T19:09:50Z</time>
  <course>343.07</course>
  <speed>8.15</speed>
  <fix>3d</fix>
</trkpt>
<trkpt lat="-35.3636327" lon="149.1625284">
  <ele>662.83</ele>
  <time>2026-08-28T19:09:50Z</time>
  <course>343.5</course>
  <speed>8.161678748884938</speed>
  <fix>3d</fix>
</trkpt>
<trkpt lat="-35.3636418" lon="149.1625317">
  <ele>663.08</ele>
  <time>2026-08-28T19:09:50Z</time>
  <course>343.01</course>
  <speed>8.17</speed>
  <fix>3d</fix>
</trkpt>
<trkpt lat="-35.3636186" lon="149.1625231">
  <ele>662.54</ele>
  <time>2026-08-28T19:09:50Z</time>
  <course>343.47</course>
  <speed>8.183721647270268</speed>
  <fix>3d</fix>
</trkpt>
<trkpt lat="-35.3636277" lon="149.1625264">
  <ele>662.78</ele>
  <time>2026-08-28T19:09:50Z</time>
  <course>342.97</course>
  <speed>8.19</speed>
  <fix>3d</fix>
</trkpt>
<trkpt lat="-35.3636045" lon="149.1625178">
  <ele>662.24</ele>
  <time>2026-08-28T19:09:50Z</time>
  <course>343.45</course>
  <speed>8.196200339181566</speed>
  <fix>3d</fix>
</trkpt>
<trkpt lat="-35.3636136" lon="149.1625211">
  <ele>662.48</ele>
  <time>2026-08-28T19:09:50Z</time>
  <course>342.96</course>
  <speed>8.21</speed>
  <fix>3d</fix>
</trkpt>
<trkpt lat="-35.3635903" lon="149.1625125">
  <ele>661.94</ele>
  <time>2026-08-28T19:09:50Z</time>
  <course>343.5</course>
  <speed>8.202859257600364</speed>
  <fix>3d</fix>
</trkpt>
<trkpt lat="-35.3635995" lon="149.1625158">
  <ele>662.18</ele>
  <time>2026-08-28T19:09:50Z</time>
  <course>342.97</course>
  <speed>8.23</speed>
  <fix>3d</fix>
</trkpt>
<trkpt lat="-35.3635761" lon="149.1625072">
  <ele>661.65</ele>
  <time>2026-08-28T19:09:50Z</time>
  <course>343.55</course>
  <speed>8.212429603960084</speed>
  <fix>3d</fix>
</trkpt>
<trkpt lat="-35.3635853" lon="149.1625105">
  <ele>661.89</ele>
  <time>2026-08-28T19:09:50Z</time>
  <course>343.01</course>
  <speed>8.24</speed>
  <fix>3d</fix>
</trkpt>
<trkpt lat="-35.363562" lon="149.1625019">
  <ele>661.36</ele>
  <time>2026-08-28T19:09:50Z</time>
  <course>343.62</course>
  <speed>8.21911187416256</speed>
  <fix>3d</fix>
</trkpt>
<trkpt lat="-35.3635711" lon="149.1625052">
  <ele>661.58</ele>
  <time>2026-08-28T19:09:50Z</time>
  <course>343.06</course>
  <speed>8.24</speed>
  <fix>3d</fix>
</trkpt>
<trkpt lat="-35.3635478" lon="149.1624966">
  <ele>661.06</ele>
  <time>2026-08-28T19:09:50Z</time>
  <course>343.73</course>
  <speed>8.216233930457433</speed>
  <fix>3d</fix>
</trkpt>
<trkpt lat="-35.363557" lon="149.1624999">
  <ele>661.29</ele>
  <time>2026-08-28T19:09:50Z</time>
  <course>343.13</course>
  <speed>8.24</speed>
  <fix>3d</fix>
</trkpt>
<trkpt lat="-35.3635336" lon="149.1624914">
  <ele>660.76</ele>
  <time>2026-08-28T19:09:50Z</time>
  <course>343.83</course>
  <speed>8.213367153610022</speed>
  <fix>3d</fix>
</trkpt>
<trkpt lat="-35.3635428" lon="149.1624946">
  <ele>660.99</ele>
  <time>2026-08-28T19:09:50Z</time>
  <course>343.22</course>
  <speed>8.24</speed>
  <fix>3d</fix>
</trkpt>
<trkpt lat="-35.3635194" lon="149.1624862">
  <ele>660.47</ele>
  <time>2026-08-28T19:09:50Z</time>
  <course>343.92</course>
  <speed>8.20766714724714</speed>
  <fix>3d</fix>
</trkpt>
<trkpt lat="-35.3635287" lon="149.1624895">
  <ele>660.69</ele>
  <time>2026-08-28T19:09:50Z</time>
  <course>343.32</course>
  <speed>8.24</speed>
  <fix>3d</fix>
</trkpt>
<trkpt lat="-35.3635052" lon="149.162481">
  <ele>660.17</ele>
  <time>2026-08-28T19:09:50Z</time>
  <course>344.02</course>
  <speed>8.204833941037442</speed>
  <fix>3d</fix>
</trkpt>
<trkpt lat="-35.3635144" lon="149.1624843">
  <ele>660.39</ele>
  <time>2026-08-28T19:09:50Z</time>
  <course>343.41</course>
  <speed>8.23</speed>
  <fix>3d</fix>
</trkpt>
<trkpt lat="-35.3634909" lon="149.1624758">
  <ele>659.86</ele>
  <time>2026-08-28T19:09:51Z</time>
  <course>344.12</course>
  <speed>8.1992011806029</speed>
  <fix>3d</fix>
</trkpt>
<trkpt lat="-35.3635003" lon="149.162479">
  <ele>660.08</ele>
  <time>2026-08-28T19:09:51Z</time>
  <course>343.51</course>
  <speed>8.23</speed>
  <fix>3d</fix>
</trkpt>
<trkpt lat="-35.3634767" lon="149.1624707">
  <ele>659.56</ele>
  <time>2026-08-28T19:09:51Z</time>
  <course>344.2</course>
  <speed>8.186800351785793</speed>
  <fix>3d</fix>
</trkpt>
<trkpt lat="-35.3634861" lon="149.1624739">
  <ele>659.78</ele>
  <time>2026-08-28T19:09:51Z</time>
  <course>343.6</course>
  <speed>8.22</speed>
  <fix>3d</fix>
</trkpt>
<trkpt lat="-35.3634626" lon="149.1624656">
  <ele>659.25</ele>
  <time>2026-08-28T19:09:51Z</time>
  <course>344.27</course>
  <speed>8.18400879764923</speed>
  <fix>3d</fix>
</trkpt>
<trkpt lat="-35.3634718" lon="149.1624688">
  <ele>659.48</ele>
  <time>2026-08-28T19:09:51Z</time>
  <course>343.68</course>
  <speed>8.21</speed>
  <fix>3d</fix>
</trkpt>
<trkpt lat="-35.3634484" lon="149.1624605">
  <ele>658.95</ele>
  <time>2026-08-28T19:09:51Z</time>
  <course>344.32</course>
  <speed>8.171621626091115</speed>
  <fix>3d</fix>
</trkpt>
<trkpt lat="-35.3634577" lon="149.1624638">
  <ele>659.17</ele>
  <time>2026-08-28T19:09:51Z</time>
  <course>343.74</course>
  <speed>8.2</speed>
  <fix>3d</fix>
</trkpt>
<trkpt lat="-35.3634342" lon="149.1624555">
  <ele>658.65</ele>
  <time>2026-08-28T19:09:51Z</time>
  <course>344.35</course>
  <speed>8.15924016070124</speed>
  <fix>3d</fix>
</trkpt>
<trkpt lat="-35.3634436" lon="149.1624587">
  <ele>658.87</ele>
  <time>2026-08-28T19:09:51Z</time>
  <course>343.8</course>
  <speed>8.19</speed>
  <fix>3d</fix>
</trkpt>
<trkpt lat="-35.3634201" lon="149.1624505">
  <ele>658.35</ele>
  <time>2026-08-28T19:09:51Z</time>
  <course>344.4</course>
  <speed>8.146864427496018</speed>
  <fix>3d</fix>
</trkpt>
<trkpt lat="-35.3634294" lon="149.1624536">
  <ele>658.56</ele>
  <time>2026-08-28T19:09:51Z</time>
  <course>343.85</course>
  <speed>8.18</speed>
  <fix>3d</fix>
</trkpt>
<trkpt lat="-35.363406" lon="149.1624455">
  <ele>658.05</ele>
  <time>2026-08-28T19:09:51Z</time>
  <course>344.43</course>
  <speed>8.137253836522492</speed>
  <fix>3d</fix>
</trkpt>
<trkpt lat="-35.3634153" lon="149.1624487">
  <ele>658.27</ele>
  <time>2026-08-28T19:09:51Z</time>
  <course>343.87</course>
  <speed>8.17</speed>
  <fix>3d</fix>
</trkpt>
<trkpt lat="-35.3633919" lon="149.1624405">
  <ele>657.75</ele>
  <time>2026-08-28T19:09:51Z</time>
  <course>344.43</course>
  <speed>8.137253836522492</speed>
  <fix>3d</fix>
</trkpt>
<trkpt lat="-35.3634013" lon="149.1624436">
  <ele>657.97</ele>
  <time>2026-08-28T19:09:51Z</time>
  <course>343.88</course>
  <speed>8.16</speed>
  <fix>3d</fix>
</trkpt>
<trkpt lat="-35.3633778" lon="149.1624355">
  <ele>657.45</ele>
  <time>2026-08-28T19:09:51Z</time>
  <course>344.4</course>
  <speed>8.127644185125233</speed>
  <fix>3d</fix>
</trkpt>
<trkpt lat="-35.3633872" lon="149.1624387">
  <ele>657.66</ele>
  <time>2026-08-28T19:09:51Z</time>
  <course>343.88</course>
  <speed>8.15</speed>
  <fix>3d</fix>
</trkpt>
<trkpt lat="-35.3633638" lon="149.1624305">
  <ele>657.14</ele>
  <time>2026-08-28T19:09:51Z</time>
  <course>344.34</course>
  <speed>8.118035476640884</speed>
  <fix>3d</fix>
</trkpt>
<trkpt lat="-35.3633732" lon="149.1624337">
  <ele>657.36</ele>
  <time>2026-08-28T19:09:51Z</time>
  <course>343.87</course>
  <speed>8.14</speed>
  <fix>3d</fix>
</trkpt>
<trkpt lat="-35.3633496" lon="149.1624254">
  <ele>656.84</ele>
  <time>2026-08-28T19:09:51Z</time>
  <course>344.28</course>
  <speed>8.108427714421582</speed>
  <fix>3d</fix>
</trkpt>
<trkpt lat="-35.3633591" lon="149.1624287">
  <ele>657.06</ele>
  <time>2026-08-28T19:09:51Z</time>
  <course>343.84</course>
  <speed>8.13</speed>
  <fix>3d</fix>
</trkpt>
<trkpt lat="-35.3633356" lon="149.1624205">
  <ele>656.54</ele>
  <time>2026-08-28T19:09:51Z</time>
  <course>344.22</course>
  <speed>8.111208294699377</speed>
  <fix>3d</fix>
</trkpt>
<trkpt lat="-35.3633451" lon="149.1624238">
  <ele>656.76</ele>
  <time>2026-08-28T19:09:51Z</time>
  <course>343.81</course>
  <speed>8.13</speed>
  <fix>3d</fix>
</trkpt>
<trkpt lat="-35.3633216" lon="149.1624155">
  <ele>656.24</ele>
  <time>2026-08-28T19:09:51Z</time>
  <course>344.16</course>
  <speed>8.101604779301445</speed>
  <fix>3d</fix>
</trkpt>
<trkpt lat="-35.363331" lon="149.1624188">
  <ele>656.45</ele>
  <time>2026-08-28T19:09:51Z</time>
  <course>343.77</course>
  <speed>8.12</speed>
  <fix>3d</fix>
</trkpt>
<trkpt lat="-35.3633076" lon="149.1624104">
  <ele>655.94</ele>
  <time>2026-08-28T19:09:51Z</time>
  <course>344.09</course>
  <speed>8.104400039484723</speed>
  <fix>3d</fix>
</trkpt>
<trkpt lat="-35.3633169" lon="149.1624138">
  <ele>656.15</ele>
  <time>2026-08-28T19:09:51Z</time>
  <course>343.72</course>
  <speed>8.12</speed>
  <fix>3d</fix>
</trkpt>
<trkpt lat="-35.3632936" lon="149.1624054">
  <ele>655.64</ele>
  <time>2026-08-28T19:09:51Z</time>
  <course>344.0</course>
  <speed>8.107206670611031</speed>
  <fix>3d</fix>
</trkpt>
<trkpt lat="-35.363303" lon="149.1624087">
  <ele>655.85</ele>
  <time>2026-08-28T19:09:51Z</time>
  <course>343.66</course>
  <speed>8.13</speed>
  <fix>3d</fix>
</trkpt>
<trkpt lat="-35.3632797" lon="149.1624004">
  <ele>655.33</ele>
  <time>2026-08-28T19:09:51Z</time>
  <course>343.91</course>
  <speed>8.119618217625753</speed>
  <fix>3d</fix>
</trkpt>
<trkpt lat="-35.3632889" lon="149.1624037">
  <ele>655.55</ele>
  <time>2026-08-28T19:09:51Z</time>
  <course>343.6</course>
  <speed>8.13</speed>
  <fix>3d</fix>
</trkpt>
<trkpt lat="-35.3632657" lon="149.1623953">
  <ele>655.03</ele>
  <time>2026-08-28T19:09:51Z</time>
  <course>343.82</course>
  <speed>8.12244421341261</speed>
  <fix>3d</fix>
</trkpt>
<trkpt lat="-35.3632749" lon="149.1623986">
  <ele>655.25</ele>
  <time>2026-08-28T19:09:51Z</time>
  <course>343.54</course>
  <speed>8.14</speed>
  <fix>3d</fix>
</trkpt>
<trkpt lat="-35.3632516" lon="149.1623902">
  <ele>654.73</ele>
  <time>2026-08-28T19:09:51Z</time>
  <course>343.75</course>
  <speed>8.134869390469646</speed>
  <fix>3d</fix>
</trkpt>
<trkpt lat="-35.3632609" lon="149.1623935">
  <ele>654.94</ele>
  <time>2026-08-28T19:09:51Z</time>
  <course>343.48</course>
  <speed>8.15</speed>
  <fix>3d</fix>
</trkpt>
<trkpt lat="-35.3632377" lon="149.1623851">
  <ele>654.43</ele>
  <time>2026-08-28T19:09:51Z</time>
  <course>343.68</course>
  <speed>8.134869390469646</speed>
  <fix>3d</fix>
</trkpt>
<trkpt lat="-35.3632468" lon="149.1623884">
  <ele>654.65</ele>
  <time>2026-08-28T19:09:51Z</time>
  <course>343.43</course>
  <speed>8.16</speed>
  <fix>3d</fix>
</trkpt>
<trkpt lat="-35.3632236" lon="149.16238">
  <ele>654.13</ele>
  <time>2026-08-28T19:09:51Z</time>
  <course>343.64</course>
  <speed>8.147300166312766</speed>
  <fix>3d</fix>
</trkpt>
<trkpt lat="-35.3632328" lon="149.1623832">
  <ele>654.35</ele>
  <time>2026-08-28T19:09:51Z</time>
  <course>343.39</course>
  <speed>8.16</speed>
  <fix>3d</fix>
</trkpt>
<trkpt lat="-35.3632095" lon="149.1623748">
  <ele>653.83</ele>
  <time>2026-08-28T19:09:51Z</time>
  <course>343.58</course>
  <speed>8.159736515353913</speed>
  <fix>3d</fix>
</trkpt>
<trkpt lat="-35.3632187" lon="149.1623781">
  <ele>654.05</ele>
  <time>2026-08-28T19:09:51Z</time>
  <course>343.35</course>
  <speed>8.17</speed>
  <fix>3d</fix>
</trkpt>
<trkpt lat="-35.3631953" lon="149.1623696">
  <ele>653.53</ele>
  <time>2026-08-28T19:09:51Z</time>
  <course>343.54</course>
  <speed>8.159736515353913</speed>
  <fix>3d</fix>
</trkpt>
<trkpt lat="-35.3632046" lon="149.162373">
  <ele>653.75</ele>
  <time>2026-08-28T19:09:51Z</time>
  <course>343.32</course>
  <speed>8.18</speed>
  <fix>3d</fix>
</trkpt>
<trkpt lat="-35.3631812" lon="149.1623644">
  <ele>653.24</ele>
  <time>2026-08-28T19:09:51Z</time>
  <course>343.52</course>
  <speed>8.172178412149357</speed>
  <fix>3d</fix>
</trkpt>
<trkpt lat="-35.3631905" lon="149.1623677">
  <ele>653.44</ele>
  <time>2026-08-28T19:09:51Z</time>
  <course>343.3</course>
  <speed>8.19</speed>
  <fix>3d</fix>
</trkpt>
<trkpt lat="-35.3631671" lon="149.1623592">
  <ele>652.94</ele>
  <time>2026-08-28T19:09:51Z</time>
  <course>343.55</course>
  <speed>8.172178412149357</speed>
  <fix>3d</fix>
</trkpt>
<trkpt lat="-35.3631764" lon="149.1623626">
  <ele>653.15</ele>
  <time>2026-08-28T19:09:51Z</time>
  <course>343.29</course>
  <speed>8.19</speed>
  <fix>3d</fix>
</trkpt>
<trkpt lat="-35.363153" lon="149.162354">
  <ele>652.64</ele>
  <time>2026-08-28T19:09:51Z</time>
  <course>343.56</course>
  <speed>8.172178412149357</speed>
  <fix>3d</fix>
</trkpt>
<trkpt lat="-35.3631623" lon="149.1623574">
  <ele>652.85</ele>
  <time>2026-08-28T19:09:51Z</time>
  <course>343.29</course>
  <speed>8.19</speed>
  <fix>3d</fix>
</trkpt>
<trkpt lat="-35.3631388" lon="149.1623488">
  <ele>652.35</ele>
  <time>2026-08-28T19:09:51Z</time>
  <course>343.58</course>
  <speed>8.169320657190536</speed>
  <fix>3d</fix>
</trkpt>
<trkpt lat="-35.3631482" lon="149.1623521">
  <ele>652.55</ele>
  <time>2026-08-28T19:09:51Z</time>
  <course>343.3</course>
  <speed>8.19</speed>
  <fix>3d</fix>
</trkpt>
<trkpt lat="-35.3631247" lon="149.1623437">
  <ele>652.05</ele>
  <time>2026-08-28T19:09:51Z</time>
  <course>343.62</course>
  <speed>8.169320657190536</speed>
  <fix>3d</fix>
</trkpt>
<trkpt lat="-35.3631341" lon="149.162347">
  <ele>652.26</ele>
  <time>2026-08-28T19:09:51Z</time>
  <course>343.32</course>
  <speed>8.19</speed>
  <fix>3d</fix>
</trkpt>
<trkpt lat="-35.3631106" lon="149.1623385">
  <ele>651.75</ele>
  <time>2026-08-28T19:09:51Z</time>
  <course>343.65</course>
  <speed>8.16647414739066</speed>
  <fix>3d</fix>
</trkpt>
<trkpt lat="-35.36312" lon="149.1623418">
  <ele>651.95</ele>
  <time>2026-08-28T19:09:51Z</time>
  <course>343.35</course>
  <speed>8.19</speed>
  <fix>3d</fix>
</trkpt>
<trkpt lat="-35.3630965" lon="149.1623333">
  <ele>651.45</ele>
  <time>2026-08-28T19:09:51Z</time>
  <course>343.68</course>
  <speed>8.16647414739066</speed>
  <fix>3d</fix>
</trkpt>
<trkpt lat="-35.3631059" lon="149.1623366">
  <ele>651.66</ele>
  <time>2026-08-28T19:09:51Z</time>
  <course>343.39</course>
  <speed>8.19</speed>
  <fix>3d</fix>
</trkpt>
<trkpt lat="-35.3630825" lon="149.1623282">
  <ele>651.15</ele>
  <time>2026-08-28T19:09:51Z</time>
  <course>343.71</course>
  <speed>8.163638894512667</speed>
  <fix>3d</fix>
</trkpt>
<trkpt lat="-35.3630918" lon="149.1623315">
  <ele>651.35</ele>
  <time>2026-08-28T19:09:51Z</time>
  <course>343.44</course>
  <speed>8.19</speed>
  <fix>3d</fix>
</trkpt>
<trkpt lat="-35.3630684" lon="149.1623231">
  <ele>650.85</ele>
  <time>2026-08-28T19:09:51Z</time>
  <course>343.74</course>
  <speed>8.173230695386005</speed>
  <fix>3d</fix>
</trkpt>
<trkpt lat="-35.3630777" lon="149.1623263">
  <ele>651.05</ele>
  <time>2026-08-28T19:09:51Z</time>
  <course>343.48</course>
  <speed>8.19</speed>
  <fix>3d</fix>
</trkpt>
<trkpt lat="-35.3630541" lon="149.1623179">
  <ele>650.54</ele>
  <time>2026-08-28T19:09:51Z</time>
  <course>343.77</course>
  <speed>8.170410026430742</speed>
  <fix>3d</fix>
</trkpt>
<trkpt lat="-35.3630636" lon="149.1623212">
  <ele>650.75</ele>
  <time>2026-08-28T19:09:51Z</time>
  <course>343.52</course>
  <speed>8.19</speed>
  <fix>3d</fix>
</trkpt>
<trkpt lat="-35.36304" lon="149.1623128">
  <ele>650.23</ele>
  <time>2026-08-28T19:09:51Z</time>
  <course>343.79</course>
  <speed>8.170410026430742</speed>
  <fix>3d</fix>
</trkpt>
<trkpt lat="-35.3630494" lon="149.1623161">
  <ele>650.44</ele>
  <time>2026-08-28T19:09:51Z</time>
  <course>343.56</course>
  <speed>8.19</speed>
  <fix>3d</fix>
</trkpt>
<trkpt lat="-35.3630259" lon="149.1623077">
  <ele>649.93</ele>
  <time>2026-08-28T19:09:51Z</time>
  <course>343.82</course>
  <speed>8.16760062686711</speed>
  <fix>3d</fix>
</trkpt>
<trkpt lat="-35.3630353" lon="149.162311">
  <ele>650.15</ele>
  <time>2026-08-28T19:09:51Z</time>
  <course>343.59</course>
  <speed>8.19</speed>
  <fix>3d</fix>
</trkpt>
<trkpt lat="-35.3630118" lon="149.1623026">
  <ele>649.63</ele>
  <time>2026-08-28T19:09:51Z</time>
  <course>343.85</course>
  <speed>8.158002206422845</speed>
  <fix>3d</fix>
</trkpt>
<trkpt lat="-35.3630212" lon="149.1623059">
  <ele>649.85</ele>
  <time>2026-08-28T19:09:51Z</time>
  <course>343.61</course>
  <speed>8.18</speed>
  <fix>3d</fix>
</trkpt>
<trkpt lat="-35.3629977" lon="149.1622976">
  <ele>649.33</ele>
  <time>2026-08-28T19:09:51Z</time>
  <course>343.82</course>
  <speed>8.158002206422845</speed>
  <fix>3d</fix>
</trkpt>
<trkpt lat="-35.363007" lon="149.1623008">
  <ele>649.55</ele>
  <time>2026-08-28T19:09:51Z</time>
  <course>343.63</course>
  <speed>8.18</speed>
  <fix>3d</fix>
</trkpt>
<trkpt lat="-35.3629837" lon="149.1622925">
  <ele>649.03</ele>
  <time>2026-08-28T19:09:51Z</time>
  <course>343.84</course>
  <speed>8.155200794585012</speed>
  <fix>3d</fix>
</trkpt>
<trkpt lat="-35.3629929" lon="149.1622957">
  <ele>649.25</ele>
  <time>2026-08-28T19:09:51Z</time>
  <course>343.65</course>
  <speed>8.18</speed>
  <fix>3d</fix>
</trkpt>
<trkpt lat="-35.3629696" lon="149.1622874">
  <ele>648.73</ele>
  <time>2026-08-28T19:09:51Z</time>
  <course>343.86</course>
  <speed>8.155200794585012</speed>
  <fix>3d</fix>
</trkpt>
<trkpt lat="-35.3629788" lon="149.1622907">
  <ele>648.94</ele>
  <time>2026-08-28T19:09:51Z</time>
  <course>343.66</course>
  <speed>8.18</speed>
  <fix>3d</fix>
</trkpt>
<trkpt lat="-35.3629555" lon="149.1622824">
  <ele>648.43</ele>
  <time>2026-08-28T19:09:51Z</time>
  <course>343.83</course>
  <speed>8.155200794585012</speed>
  <fix>3d</fix>
</trkpt>
<trkpt lat="-35.3629647" lon="149.1622856">
  <ele>648.65</ele>
  <time>2026-08-28T19:09:51Z</time>
  <course>343.66</course>
  <speed>8.18</speed>
  <fix>3d</fix>
</trkpt>
<trkpt lat="-35.3629415" lon="149.1622773">
  <ele>648.14</ele>
  <time>2026-08-28T19:09:51Z</time>
  <course>343.81</course>
  <speed>8.155200794585012</speed>
  <fix>3d</fix>
</trkpt>
<trkpt lat="-35.3629506" lon="149.1622805">
  <ele>648.35</ele>
  <time>2026-08-28T19:09:51Z</time>
  <course>343.67</course>
  <speed>8.18</speed>
  <fix>3d</fix>
</trkpt>
<trkpt lat="-35.3629274" lon="149.1622723">
  <ele>647.84</ele>
  <time>2026-08-28T19:09:51Z</time>
  <course>343.8</course>
  <speed>8.158002206422845</speed>
  <fix>3d</fix>
</trkpt>
<trkpt lat="-35.3629365" lon="149.1622755">
  <ele>648.05</ele>
  <time>2026-08-28T19:09:51Z</time>
  <course>343.66</course>
  <speed>8.18</speed>
  <fix>3d</fix>
</trkpt>
<trkpt lat="-35.3629133" lon="149.1622672">
  <ele>647.55</ele>
  <time>2026-08-28T19:09:51Z</time>
  <course>343.76</course>
  <speed>8.158002206422845</speed>
  <fix>3d</fix>
</trkpt>
<trkpt lat="-35.3629224" lon="149.1622704">
  <ele>647.76</ele>
  <time>2026-08-28T19:09:51Z</time>
  <course>343.64</course>
  <speed>8.18</speed>
  <fix>3d</fix>
</trkpt>
<trkpt lat="-35.3628991" lon="149.1622621">
  <ele>647.25</ele>
  <time>2026-08-28T19:09:51Z</time>
  <course>343.75</course>
  <speed>8.158002206422845</speed>
  <fix>3d</fix>
</trkpt>
<trkpt lat="-35.3629083" lon="149.1622653">
  <ele>647.45</ele>
  <time>2026-08-28T19:09:51Z</time>
  <course>343.62</course>
  <speed>8.18</speed>
  <fix>3d</fix>
</trkpt>
<trkpt lat="-35.362885" lon="149.162257">
  <ele>646.95</ele>
  <time>2026-08-28T19:09:51Z</time>
  <course>343.74</course>
  <speed>8.16081491028929</speed>
  <fix>3d</fix>
</trkpt>
<trkpt lat="-35.3628942" lon="149.1622602">
  <ele>647.16</ele>
  <time>2026-08-28T19:09:51Z</time>
  <course>343.6</course>
  <speed>8.18</speed>
  <fix>3d</fix>
</trkpt>
<trkpt lat="-35.3628708" lon="149.1622519">
  <ele>646.66</ele>
  <time>2026-08-28T19:09:51Z</time>
  <course>343.73</course>
  <speed>8.16081491028929</speed>
  <fix>3d</fix>
</trkpt>
<trkpt lat="-35.3628801" lon="149.1622551">
  <ele>646.86</ele>
  <time>2026-08-28T19:09:51Z</time>
  <course>343.57</course>
  <speed>8.18</speed>
  <fix>3d</fix>
</trkpt>
<trkpt lat="-35.3628567" lon="149.1622468">
  <ele>646.36</ele>
  <time>2026-08-28T19:09:51Z</time>
  <course>343.72</course>
  <speed>8.16081491028929</speed>
  <fix>3d</fix>
</trkpt>
<trkpt lat="-35.362866" lon="149.16225">
  <ele>646.55</ele>
  <time>2026-08-28T19:09:51Z</time>
  <course>343.55</course>
  <speed>8.18</speed>
  <fix>3d</fix>
</trkpt>
<trkpt lat="-35.3628427" lon="149.1622417">
  <ele>646.05</ele>
  <time>2026-08-28T19:09:51Z</time>
  <course>343.72</course>
  <speed>8.151220767467901</speed>
  <fix>3d</fix>
</trkpt>
<trkpt lat="-35.3628519" lon="149.1622449">
  <ele>646.25</ele>
  <time>2026-08-28T19:09:51Z</time>
  <course>343.54</course>
  <speed>8.18</speed>
  <fix>3d</fix>
</trkpt>
<trkpt lat="-35.3628286" lon="149.1622366">
  <ele>645.75</ele>
  <time>2026-08-28T19:09:51Z</time>
  <course>343.7</course>
  <speed>8.151220767467901</speed>
  <fix>3d</fix>
</trkpt>
<trkpt lat="-35.3628378" lon="149.1622398">
  <ele>645.94</ele>
  <time>2026-08-28T19:09:51Z</time>
  <course>343.53</course>
  <speed>8.17</speed>
  <fix>3d</fix>
</trkpt>
<trkpt lat="-35.3628145" lon="149.1622315">
  <ele>645.45</ele>
  <time>2026-08-28T19:09:51Z</time>
  <course>343.68</course>
  <speed>8.151220767467901</speed>
  <fix>3d</fix>
</trkpt>
<trkpt lat="-35.3628237" lon="149.1622347">
  <ele>645.65</ele>
  <time>2026-08-28T19:09:51Z</time>
  <course>343.53</course>
  <speed>8.17</speed>
  <fix>3d</fix>
</trkpt>
<trkpt lat="-35.3628005" lon="149.1622264">
  <ele>645.15</ele>
  <time>2026-08-28T19:09:51Z</time>
  <course>343.66</course>
  <speed>8.151220767467901</speed>
  <fix>3d</fix>
</trkpt>
<trkpt lat="-35.3628096" lon="149.1622296">
  <ele>645.34</ele>
  <time>2026-08-28T19:09:51Z</time>
  <course>343.52</course>
  <speed>8.17</speed>
  <fix>3d</fix>
</trkpt>
<trkpt lat="-35.3627864" lon="149.1622213">
  <ele>644.85</ele>
  <time>2026-08-28T19:09:51Z</time>
  <course>343.64</course>
  <speed>8.151220767467901</speed>
  <fix>3d</fix>
</trkpt>
<trkpt lat="-35.3627956" lon="149.1622245">
  <ele>645.04</ele>
  <time>2026-08-28T19:09:51Z</time>
  <course>343.52</course>
  <speed>8.17</speed>
  <fix>3d</fix>
</trkpt>
<trkpt lat="-35.3627723" lon="149.1622161">
  <ele>644.55</ele>
  <time>2026-08-28T19:09:51Z</time>
  <course>343.62</course>
  <speed>8.151220767467901</speed>
  <fix>3d</fix>
</trkpt>
<trkpt lat="-35.3627815" lon="149.1622194">
  <ele>644.74</ele>
  <time>2026-08-28T19:09:51Z</time>
  <course>343.51</course>
  <speed>8.17</speed>
  <fix>3d</fix>
</trkpt>
<trkpt lat="-35.3627582" lon="149.162211">
  <ele>644.25</ele>
  <time>2026-08-28T19:09:51Z</time>
  <course>343.62</course>
  <speed>8.151220767467901</speed>
  <fix>3d</fix>
</trkpt>
<trkpt lat="-35.3627674" lon="149.1622143">
  <ele>644.44</ele>
  <time>2026-08-28T19:09:51Z</time>
  <course>343.5</course>
  <speed>8.17</speed>
  <fix>3d</fix>
</trkpt>
<trkpt lat="-35.3627441" lon="149.1622059">
  <ele>643.95</ele>
  <time>2026-08-28T19:09:51Z</time>
  <course>343.6</course>
  <speed>8.151220767467901</speed>
  <fix>3d</fix>
</trkpt>
<trkpt lat="-35.3627533" lon="149.1622092">
  <ele>644.14</ele>
  <time>2026-08-28T19:09:51Z</time>
  <course>343.5</course>
  <speed>8.17</speed>
  <fix>3d</fix>
</trkpt>
<trkpt lat="-35.36273" lon="149.1622008">
  <ele>643.64</ele>
  <time>2026-08-28T19:09:51Z</time>
  <course>343.6</course>
  <speed>8.154048074422912</speed>
  <fix>3d</fix>
</trkpt>
<trkpt lat="-35.3627392" lon="149.1622041">
  <ele>643.83</ele>
  <time>2026-08-28T19:09:51Z</time>
  <course>343.49</course>
  <speed>8.17</speed>
  <fix>3d</fix>
</trkpt>
<trkpt lat="-35.3627159" lon="149.1621957">
  <ele>643.34</ele>
  <time>2026-08-28T19:09:51Z</time>
  <course>343.6</course>
  <speed>8.154048074422912</speed>
  <fix>3d</fix>
</trkpt>
<trkpt lat="-35.3627251" lon="149.1621989">
  <ele>643.53</ele>
  <time>2026-08-28T19:09:51Z</time>
  <course>343.48</course>
  <speed>8.17</speed>
  <fix>3d</fix>
</trkpt>
<trkpt lat="-35.3627018" lon="149.1621905">
  <ele>643.03</ele>
  <time>2026-08-28T19:09:51Z</time>
  <course>343.55</course>
  <speed>8.154048074422912</speed>
  <fix>3d</fix>
</trkpt>
<trkpt lat="-35.3627111" lon="149.1621938">
  <ele>643.23</ele>
  <time>2026-08-28T19:09:51Z</time>
  <course>343.48</course>
  <speed>8.17</speed>
  <fix>3d</fix>
</trkpt>
<trkpt lat="-35.3626877" lon="149.1621854">
  <ele>642.73</ele>
  <time>2026-08-28T19:09:51Z</time>
  <course>343.56</course>
  <speed>8.154048074422912</speed>
  <fix>3d</fix>
</trkpt>
<trkpt lat="-35.362697" lon="149.1621887">
  <ele>642.93</ele>
  <time>2026-08-28T19:09:51Z</time>
  <course>343.47</course>
  <speed>8.17</speed>
  <fix>3d</fix>
</trkpt>
<trkpt lat="-35.3626737" lon="149.1621803">
  <ele>642.43</ele>
  <time>2026-08-28T19:09:51Z</time>
  <course>343.55</course>
  <speed>8.154048074422912</speed>
  <fix>3d</fix>
</trkpt>
<trkpt lat="-35.3626829" lon="149.1621836">
  <ele>642.63</ele>
  <time>2026-08-28T19:09:51Z</time>
  <course>343.47</course>
  <speed>8.17</speed>
  <fix>3d</fix>
</trkpt>
<trkpt lat="-35.3626597" lon="149.1621752">
  <ele>642.13</ele>
  <time>2026-08-28T19:09:51Z</time>
  <course>343.56</course>
  <speed>8.144458238581619</speed>
  <fix>3d</fix>
</trkpt>
<trkpt lat="-35.3626689" lon="149.1621784">
  <ele>642.32</ele>
  <time>2026-08-28T19:09:51Z</time>
  <course>343.46</course>
  <speed>8.17</speed>
  <fix>3d</fix>
</trkpt>
<trkpt lat="-35.3626457" lon="149.1621701">
  <ele>641.84</ele>
  <time>2026-08-28T19:09:51Z</time>
  <course>343.56</course>
  <speed>8.154048074422912</speed>
  <fix>3d</fix>
</trkpt>
<trkpt lat="-35.3626548" lon="149.1621733">
  <ele>642.03</ele>
  <time>2026-08-28T19:09:51Z</time>
  <course>343.47</course>
  <speed>8.17</speed>
  <fix>3d</fix>
</trkpt>
<trkpt lat="-35.3626317" lon="149.162165">
  <ele>641.54</ele>
  <time>2026-08-28T19:09:51Z</time>
  <course>343.54</course>
  <speed>8.154048074422912</speed>
  <fix>3d</fix>
</trkpt>
<trkpt lat="-35.3626407" lon="149.1621682">
  <ele>641.74</ele>
  <time>2026-08-28T19:09:51Z</time>
  <course>343.47</course>
  <speed>8.17</speed>
  <fix>3d</fix>
</trkpt>
<trkpt lat="-35.3626175" lon="149.1621599">
  <ele>641.23</ele>
  <time>2026-08-28T19:09:51Z</time>
  <course>343.5</course>
  <speed>8.163638894512667</speed>
  <fix>3d</fix>
</trkpt>
<trkpt lat="-35.3626266" lon="149.1621631">
  <ele>641.44</ele>
  <time>2026-08-28T19:09:51Z</time>
  <course>343.48</course>
  <speed>8.18</speed>
  <fix>3d</fix>
</trkpt>
<trkpt lat="-35.3626034" lon="149.1621547">
  <ele>640.92</ele>
  <time>2026-08-28T19:09:51Z</time>
  <course>343.49</course>
  <speed>8.163638894512667</speed>
  <fix>3d</fix>
</trkpt>
<trkpt lat="-35.3626125" lon="149.162158">
  <ele>641.14</ele>
  <time>2026-08-28T19:09:51Z</time>
  <course>343.49</course>
  <speed>8.18</speed>
  <fix>3d</fix>
</trkpt>
<trkpt lat="-35.3625893" lon="149.1621496">
  <ele>640.62</ele>
  <time>2026-08-28T19:09:51Z</time>
  <course>343.48</course>
  <speed>8.173230695386005</speed>
  <fix>3d</fix>
</trkpt>
<trkpt lat="-35.3625984" lon="149.1621528">
  <ele>640.83</ele>
  <time>2026-08-28T19:09:51Z</time>
  <course>343.49</course>
  <speed>8.19</speed>
  <fix>3d</fix>
</trkpt>
<trkpt lat="-35.3625751" lon="149.1621445">
  <ele>640.33</ele>
  <time>2026-08-28T19:09:51Z</time>
  <course>343.49</course>
  <speed>8.173230695386005</speed>
  <fix>3d</fix>
</trkpt>
<trkpt lat="-35.3625842" lon="149.1621477">
  <ele>640.54</ele>
  <time>2026-08-28T19:09:51Z</time>
  <course>343.5</course>
  <speed>8.19</speed>
  <fix>3d</fix>
</trkpt>
<trkpt lat="-35.362561" lon="149.1621394">
  <ele>640.03</ele>
  <time>2026-08-28T19:09:51Z</time>
  <course>343.5</course>
  <speed>8.173230695386005</speed>
  <fix>3d</fix>
</trkpt>
<trkpt lat="-35.3625701" lon="149.1621426">
  <ele>640.24</ele>
  <time>2026-08-28T19:09:51Z</time>
  <course>343.5</course>
  <speed>8.2</speed>
  <fix>3d</fix>
</trkpt>
<trkpt lat="-35.3625469" lon="149.1621342">
  <ele>639.73</ele>
  <time>2026-08-28T19:09:51Z</time>
  <course>343.53</course>
  <speed>8.173230695386005</speed>
  <fix>3d</fix>
</trkpt>
<trkpt lat="-35.362556" lon="149.1621374">
  <ele>639.94</ele>
  <time>2026-08-28T19:09:51Z</time>
  <course>343.51</course>
  <speed>8.2</speed>
  <fix>3d</fix>
</trkpt>
<trkpt lat="-35.3625328" lon="149.1621291">
  <ele>639.44</ele>
  <time>2026-08-28T19:09:51Z</time>
  <course>343.56</course>
  <speed>8.173230695386005</speed>
  <fix>3d</fix>
</trkpt>
<trkpt lat="-35.3625419" lon="149.1621323">
  <ele>639.65</ele>
  <time>2026-08-28T19:09:51Z</time>
  <course>343.51</course>
  <speed>8.19</speed>
  <fix>3d</fix>
</trkpt>
<trkpt lat="-35.3625187" lon="149.162124">
  <ele>639.14</ele>
  <time>2026-08-28T19:09:51Z</time>
  <course>343.59</course>
  <speed>8.170410026430742</speed>
  <fix>3d</fix>
</trkpt>
<trkpt lat="-35.3625277" lon="149.1621272">
  <ele>639.36</ele>
  <time>2026-08-28T19:09:51Z</time>
  <course>343.52</course>
  <speed>8.19</speed>
  <fix>3d</fix>
</trkpt>
<trkpt lat="-35.3625046" lon="149.1621189">
  <ele>638.85</ele>
  <time>2026-08-28T19:09:51Z</time>
  <course>343.59</course>
  <speed>8.170410026430742</speed>
  <fix>3d</fix>
</trkpt>
<trkpt lat="-35.3625136" lon="149.1621221">
  <ele>639.06</ele>
  <time>2026-08-28T19:09:51Z</time>
  <course>343.53</course>
  <speed>8.19</speed>
  <fix>3d</fix>
</trkpt>
<trkpt lat="-35.3624905" lon="149.1621138">
  <ele>638.56</ele>
  <time>2026-08-28T19:09:51Z</time>
  <course>343.62</course>
  <speed>8.16081491028929</speed>
  <fix>3d</fix>
</trkpt>
<trkpt lat="-35.3624995" lon="149.162117">
  <ele>638.76</ele>
  <time>2026-08-28T19:09:51Z</time>
  <course>343.55</course>
  <speed>8.19</speed>
  <fix>3d</fix>
</trkpt>
<trkpt lat="-35.3624764" lon="149.1621087">
  <ele>638.26</ele>
  <time>2026-08-28T19:09:51Z</time>
  <course>343.63</course>
  <speed>8.16081491028929</speed>
  <fix>3d</fix>
</trkpt>
<trkpt lat="-35.3624854" lon="149.1621119">
  <ele>638.45</ele>
  <time>2026-08-28T19:09:51Z</time>
  <course>343.56</course>
  <speed>8.18</speed>
  <fix>3d</fix>
</trkpt>
<trkpt lat="-35.3624622" lon="149.1621036">
  <ele>637.96</ele>
  <time>2026-08-28T19:09:51Z</time>
  <course>343.64</course>
  <speed>8.16081491028929</speed>
  <fix>3d</fix>
</trkpt>
<trkpt lat="-35.3624713" lon="149.1621068">
  <ele>638.16</ele>
  <time>2026-08-28T19:09:51Z</time>
  <course>343.57</course>
  <speed>8.18</speed>
  <fix>3d</fix>
</trkpt>
<trkpt lat="-35.362448" lon="149.1620985">
  <ele>637.66</ele>
  <time>2026-08-28T19:09:51Z</time>
  <course>343.64</course>
  <speed>8.16081491028929</speed>
  <fix>3d</fix>
</trkpt>
<trkpt lat="-35.3624572" lon="149.1621017">
  <ele>637.85</ele>
  <time>2026-08-28T19:09:51Z</time>
  <course>343.58</course>
  <speed>8.18</speed>
  <fix>3d</fix>
</trkpt>
<trkpt lat="-35.3624339" lon="149.1620934">
  <ele>637.35</ele>
  <time>2026-08-28T19:09:51Z</time>
  <course>343.65</course>
  <speed>8.158002206422845</speed>
  <fix>3d</fix>
</trkpt>
<trkpt lat="-35.3624431" lon="149.1620965">
  <ele>637.55</ele>
  <time>2026-08-28T19:09:51Z</time>
  <course>343.58</course>
  <speed>8.18</speed>
  <fix>3d</fix>
</trkpt>
<trkpt lat="-35.3624198" lon="149.1620882">
  <ele>637.04</ele>
  <time>2026-08-28T19:09:51Z</time>
  <course>343.64</course>
  <speed>8.158002206422845</speed>
  <fix>3d</fix>
</trkpt>
<trkpt lat="-35.362429" lon="149.1620915">
  <ele>637.25</ele>
  <time>2026-08-28T19:09:51Z</time>
  <course>343.58</course>
  <speed>8.17</speed>
  <fix>3d</fix>
</trkpt>
<trkpt lat="-35.3624056" lon="149.1620831">
  <ele>636.73</ele>
  <time>2026-08-28T19:09:51Z</time>
  <course>343.62</course>
  <speed>8.14840475185174</speed>
  <fix>3d</fix>
</trkpt>
<trkpt lat="-35.3624149" lon="149.1620864">
  <ele>636.94</ele>
  <time>2026-08-28T19:09:51Z</time>
  <course>343.58</course>
  <speed>8.17</speed>
  <fix>3d</fix>
</trkpt>
<trkpt lat="-35.3623915" lon="149.1620781">
  <ele>636.43</ele>
  <time>2026-08-28T19:09:51Z</time>
  <course>343.62</course>
  <speed>8.14840475185174</speed>
  <fix>3d</fix>
</trkpt>
<trkpt lat="-35.3624008" lon="149.1620813">
  <ele>636.65</ele>
  <time>2026-08-28T19:09:51Z</time>
  <course>343.58</course>
  <speed>8.16</speed>
  <fix>3d</fix>
</trkpt>
<trkpt lat="-35.3623774" lon="149.162073">
  <ele>636.14</ele>
  <time>2026-08-28T19:09:51Z</time>
  <course>343.6</course>
  <speed>8.14840475185174</speed>
  <fix>3d</fix>
</trkpt>
<trkpt lat="-35.3623867" lon="149.1620762">
  <ele>636.35</ele>
  <time>2026-08-28T19:09:51Z</time>
  <course>343.57</course>
  <speed>8.16</speed>
  <fix>3d</fix>
</trkpt>
<trkpt lat="-35.3623634" lon="149.1620679">
  <ele>635.84</ele>
  <time>2026-08-28T19:09:51Z</time>
  <course>343.6</course>
  <speed>8.138808266570727</speed>
  <fix>3d</fix>
</trkpt>
<trkpt lat="-35.3623726" lon="149.1620711">
  <ele>636.05</ele>
  <time>2026-08-28T19:09:51Z</time>
  <course>343.56</course>
  <speed>8.15</speed>
  <fix>3d</fix>
</trkpt>
<trkpt lat="-35.3623493" lon="149.1620628">
  <ele>635.54</ele>
  <time>2026-08-28T19:09:51Z</time>
  <course>343.59</course>
  <speed>8.138808266570727</speed>
  <fix>3d</fix>
</trkpt>
<trkpt lat="-35.3623587" lon="149.162066">
  <ele>635.75</ele>
  <time>2026-08-28T19:09:51Z</time>
  <course>343.56</course>
  <speed>8.15</speed>
  <fix>3d</fix>
</trkpt>
<trkpt lat="-35.3623353" lon="149.1620577">
  <ele>635.24</ele>
  <time>2026-08-28T19:09:51Z</time>
  <course>343.58</course>
  <speed>8.138808266570727</speed>
  <fix>3d</fix>
</trkpt>
<trkpt lat="-35.3623446" lon="149.162061">
  <ele>635.45</ele>
  <time>2026-08-28T19:09:51Z</time>
  <course>343.55</course>
  <speed>8.14</speed>
  <fix>3d</fix>
</trkpt>
<trkpt lat="-35.3623211" lon="149.1620526">
  <ele>634.94</ele>
  <time>2026-08-28T19:09:51Z</time>
  <course>343.56</course>
  <speed>8.129212754012531</speed>
  <fix>3d</fix>
</trkpt>
<trkpt lat="-35.3623305" lon="149.1620559">
  <ele>635.16</ele>
  <time>2026-08-28T19:09:51Z</time>
  <course>343.54</course>
  <speed>8.14</speed>
  <fix>3d</fix>
</trkpt>
<trkpt lat="-35.3623071" lon="149.1620475">
  <ele>634.64</ele>
  <time>2026-08-28T19:09:51Z</time>
  <course>343.55</course>
  <speed>8.129212754012531</speed>
  <fix>3d</fix>
</trkpt>
<trkpt lat="-35.3623166" lon="149.1620508">
  <ele>634.86</ele>
  <time>2026-08-28T19:09:51Z</time>
  <course>343.53</course>
  <speed>8.14</speed>
  <fix>3d</fix>
</trkpt>
<trkpt lat="-35.3622931" lon="149.1620424">
  <ele>634.34</ele>
  <time>2026-08-28T19:09:51Z</time>
  <course>343.53</course>
  <speed>8.129212754012531</speed>
  <fix>3d</fix>
</trkpt>
<trkpt lat="-35.3623025" lon="149.1620457">
  <ele>634.56</ele>
  <time>2026-08-28T19:09:51Z</time>
  <course>343.52</course>
  <speed>8.14</speed>
  <fix>3d</fix>
</trkpt>
<trkpt lat="-35.3622791" lon="149.1620373">
  <ele>634.05</ele>
  <time>2026-08-28T19:09:51Z</time>
  <course>343.51</course>
  <speed>8.13203541556479</speed>
  <fix>3d</fix>
</trkpt>
<trkpt lat="-35.3622884" lon="149.1620406">
  <ele>634.26</ele>
  <time>2026-08-28T19:09:51Z</time>
  <course>343.52</course>
  <speed>8.14</speed>
  <fix>3d</fix>
</trkpt>
<trkpt lat="-35.3622651" lon="149.1620323">
  <ele>633.74</ele>
  <time>2026-08-28T19:09:51Z</time>
  <course>343.51</course>
  <speed>8.141627601407473</speed>
  <fix>3d</fix>
</trkpt>
<trkpt lat="-35.3622744" lon="149.1620355">
  <ele>633.95</ele>
  <time>2026-08-28T19:09:51Z</time>
  <course>343.51</course>
  <speed>8.15</speed>
  <fix>3d</fix>
</trkpt>
<trkpt lat="-35.3622511" lon="149.1620272">
  <ele>633.44</ele>
  <time>2026-08-28T19:09:51Z</time>
  <course>343.49</course>
  <speed>8.141627601407473</speed>
  <fix>3d</fix>
</trkpt>
<trkpt lat="-35.3622603" lon="149.1620304">
  <ele>633.65</ele>
  <time>2026-08-28T19:09:51Z</time>
  <course>343.5</course>
  <speed>8.15</speed>
  <fix>3d</fix>
</trkpt>
<trkpt lat="-35.3622371" lon="149.1620221">
  <ele>633.13</ele>
  <time>2026-08-28T19:09:51Z</time>
  <course>343.44</course>
  <speed>8.151220767467901</speed>
  <fix>3d</fix>
</trkpt>
<trkpt lat="-35.3622463" lon="149.1620253">
  <ele>633.35</ele>
  <time>2026-08-28T19:09:51Z</time>
  <course>343.5</course>
  <speed>8.16</speed>
  <fix>3d</fix>
</trkpt>
<trkpt lat="-35.3622231" lon="149.162017">
  <ele>632.83</ele>
  <time>2026-08-28T19:09:51Z</time>
  <course>343.41</course>
  <speed>8.154048074422912</speed>
  <fix>3d</fix>
</trkpt>
<trkpt lat="-35.3622322" lon="149.1620202">
  <ele>633.05</ele>
  <time>2026-08-28T19:09:51Z</time>
  <course>343.49</course>
  <speed>8.17</speed>
  <fix>3d</fix>
</trkpt>
<trkpt lat="-35.3622091" lon="149.1620119">
  <ele>632.54</ele>
  <time>2026-08-28T19:09:51Z</time>
  <course>343.37</course>
  <speed>8.163638894512667</speed>
  <fix>3d</fix>
</trkpt>
<trkpt lat="-35.3622181" lon="149.1620151">
  <ele>632.75</ele>
  <time>2026-08-28T19:09:51Z</time>
  <course>343.48</course>
  <speed>8.18</speed>
  <fix>3d</fix>
</trkpt>
<trkpt lat="-35.362195" lon="149.1620068">
  <ele>632.24</ele>
  <time>2026-08-28T19:09:51Z</time>
  <course>343.37</course>
  <speed>8.173230695386005</speed>
  <fix>3d</fix>
</trkpt>
<trkpt lat="-35.362204" lon="149.16201">
  <ele>632.45</ele>
  <time>2026-08-28T19:09:51Z</time>
  <course>343.47</course>
  <speed>8.19</speed>
  <fix>3d</fix>
</trkpt>
<trkpt lat="-35.3621808" lon="149.1620016">
  <ele>631.94</ele>
  <time>2026-08-28T19:09:51Z</time>
  <course>343.37</course>
  <speed>8.18565208153877</speed>
  <fix>3d</fix>
</trkpt>
<trkpt lat="-35.3621899" lon="149.1620048">
  <ele>632.16</ele>
  <time>2026-08-28T19:09:51Z</time>
  <course>343.46</course>
  <speed>8.2</speed>
  <fix>3d</fix>
</trkpt>
<trkpt lat="-35.3621667" lon="149.1619965">
  <ele>631.64</ele>
  <time>2026-08-28T19:09:51Z</time>
  <course>343.38</course>
  <speed>8.18565208153877</speed>
  <fix>3d</fix>
</trkpt>
<trkpt lat="-35.3621758" lon="149.1619996">
  <ele>631.86</ele>
  <time>2026-08-28T19:09:51Z</time>
  <course>343.46</course>
  <speed>8.21</speed>
  <fix>3d</fix>
</trkpt>
<trkpt lat="-35.3621525" lon="149.1619913">
  <ele>631.34</ele>
  <time>2026-08-28T19:09:51Z</time>
  <course>343.38</course>
  <speed>8.19524252234185</speed>
  <fix>3d</fix>
</trkpt>
<trkpt lat="-35.3621617" lon="149.1619945">
  <ele>631.56</ele>
  <time>2026-08-28T19:09:51Z</time>
  <course>343.46</course>
  <speed>8.21</speed>
  <fix>3d</fix>
</trkpt>
<trkpt lat="-35.3621383" lon="149.1619861">
  <ele>631.05</ele>
  <time>2026-08-28T19:09:51Z</time>
  <course>343.42</course>
  <speed>8.19524252234185</speed>
  <fix>3d</fix>
</trkpt>
<trkpt lat="-35.3621475" lon="149.1619893">
  <ele>631.26</ele>
  <time>2026-08-28T19:09:51Z</time>
  <course>343.46</course>
  <speed>8.22</speed>
  <fix>3d</fix>
</trkpt>
<trkpt lat="-35.3621241" lon="149.161981">
  <ele>630.75</ele>
  <time>2026-08-28T19:09:51Z</time>
  <course>343.44</course>
  <speed>8.19524252234185</speed>
  <fix>3d</fix>
</trkpt>
<trkpt lat="-35.3621333" lon="149.1619842">
  <ele>630.96</ele>
  <time>2026-08-28T19:09:51Z</time>
  <course>343.47</course>
  <speed>8.22</speed>
  <fix>3d</fix>
</trkpt>
<trkpt lat="-35.36211" lon="149.1619758">
  <ele>630.45</ele>
  <time>2026-08-28T19:09:51Z</time>
  <course>343.48</course>
  <speed>8.192417225703291</speed>
  <fix>3d</fix>
</trkpt>
<trkpt lat="-35.3621191" lon="149.1619791">
  <ele>630.67</ele>
  <time>2026-08-28T19:09:51Z</time>
  <course>343.48</course>
  <speed>8.21</speed>
  <fix>3d</fix>
</trkpt>
<trkpt lat="-35.3620958" lon="149.1619707">
  <ele>630.15</ele>
  <time>2026-08-28T19:09:52Z</time>
  <course>343.5</course>
  <speed>8.18282347359394</speed>
  <fix>3d</fix>
</trkpt>
<trkpt lat="-35.362105" lon="149.1619739">
  <ele>630.37</ele>
  <time>2026-08-28T19:09:52Z</time>
  <course>343.5</course>
  <speed>8.21</speed>
  <fix>3d</fix>
</trkpt>
<trkpt lat="-35.3620816" lon="149.1619655">
  <ele>629.85</ele>
  <time>2026-08-28T19:09:52Z</time>
  <course>343.52</course>
  <speed>8.18282347359394</speed>
  <fix>3d</fix>
</trkpt>
<trkpt lat="-35.3620909" lon="149.1619688">
  <ele>630.06</ele>
  <time>2026-08-28T19:09:52Z</time>
  <course>343.52</course>
  <speed>8.2</speed>
  <fix>3d</fix>
</trkpt>
<trkpt lat="-35.3620676" lon="149.1619604">
  <ele>629.55</ele>
  <time>2026-08-28T19:09:52Z</time>
  <course>343.53</course>
  <speed>8.170410026430742</speed>
  <fix>3d</fix>
</trkpt>
<trkpt lat="-35.3620767" lon="149.1619637">
  <ele>629.77</ele>
  <time>2026-08-28T19:09:52Z</time>
  <course>343.54</course>
  <speed>8.2</speed>
  <fix>3d</fix>
</trkpt>
<trkpt lat="-35.3620534" lon="149.1619553">
  <ele>629.25</ele>
  <time>2026-08-28T19:09:52Z</time>
  <course>343.58</course>
  <speed>8.170410026430742</speed>
  <fix>3d</fix>
</trkpt>
<trkpt lat="-35.3620626" lon="149.1619585">
  <ele>629.47</ele>
  <time>2026-08-28T19:09:52Z</time>
  <course>343.55</course>
  <speed>8.19</speed>
  <fix>3d</fix>
</trkpt>
<trkpt lat="-35.3620393" lon="149.1619502">
  <ele>628.96</ele>
  <time>2026-08-28T19:09:52Z</time>
  <course>343.6</course>
  <speed>8.158002206422845</speed>
  <fix>3d</fix>
</trkpt>
<trkpt lat="-35.3620485" lon="149.1619534">
  <ele>629.17</ele>
  <time>2026-08-28T19:09:52Z</time>
  <course>343.56</course>
  <speed>8.18</speed>
  <fix>3d</fix>
</trkpt>
<trkpt lat="-35.3620251" lon="149.1619451">
  <ele>628.66</ele>
  <time>2026-08-28T19:09:52Z</time>
  <course>343.61</course>
  <speed>8.158002206422845</speed>
  <fix>3d</fix>
</trkpt>
<trkpt lat="-35.3620344" lon="149.1619484">
  <ele>628.87</ele>
  <time>2026-08-28T19:09:52Z</time>
  <course>343.58</course>
  <speed>8.17</speed>
  <fix>3d</fix>
</trkpt>
<trkpt lat="-35.3620109" lon="149.16194">
  <ele>628.36</ele>
  <time>2026-08-28T19:09:52Z</time>
  <course>343.62</course>
  <speed>8.14840475185174</speed>
  <fix>3d</fix>
</trkpt>
<trkpt lat="-35.3620203" lon="149.1619433">
  <ele>628.56</ele>
  <time>2026-08-28T19:09:52Z</time>
  <course>343.59</course>
  <speed>8.17</speed>
  <fix>3d</fix>
</trkpt>
<trkpt lat="-35.3619968" lon="149.1619349">
  <ele>628.06</ele>
  <time>2026-08-28T19:09:52Z</time>
  <course>343.64</course>
  <speed>8.14840475185174</speed>
  <fix>3d</fix>
</trkpt>
<trkpt lat="-35.3620062" lon="149.1619382">
  <ele>628.27</ele>
  <time>2026-08-28T19:09:52Z</time>
  <course>343.6</course>
  <speed>8.16</speed>
  <fix>3d</fix>
</trkpt>
<trkpt lat="-35.3619827" lon="149.1619298">
  <ele>627.75</ele>
  <time>2026-08-28T19:09:52Z</time>
  <course>343.63</course>
  <speed>8.138808266570727</speed>
  <fix>3d</fix>
</trkpt>
<trkpt lat="-35.3619921" lon="149.1619331">
  <ele>627.96</ele>
  <time>2026-08-28T19:09:52Z</time>
  <course>343.6</course>
  <speed>8.15</speed>
  <fix>3d</fix>
</trkpt>
<trkpt lat="-35.3619686" lon="149.1619247">
  <ele>627.45</ele>
  <time>2026-08-28T19:09:52Z</time>
  <course>343.62</course>
  <speed>8.126401417601766</speed>
  <fix>3d</fix>
</trkpt>
<trkpt lat="-35.3619781" lon="149.161928">
  <ele>627.66</ele>
  <time>2026-08-28T19:09:52Z</time>
  <course>343.6</course>
  <speed>8.14</speed>
  <fix>3d</fix>
</trkpt>
<trkpt lat="-35.3619546" lon="149.1619197">
  <ele>627.14</ele>
  <time>2026-08-28T19:09:52Z</time>
  <course>343.61</course>
  <speed>8.126401417601766</speed>
  <fix>3d</fix>
</trkpt>
<trkpt lat="-35.361964" lon="149.161923">
  <ele>627.36</ele>
  <time>2026-08-28T19:09:52Z</time>
  <course>343.6</course>
  <speed>8.14</speed>
  <fix>3d</fix>
</trkpt>
<trkpt lat="-35.3619406" lon="149.1619146">
  <ele>626.83</ele>
  <time>2026-08-28T19:09:52Z</time>
  <course>343.59</course>
  <speed>8.126401417601766</speed>
  <fix>3d</fix>
</trkpt>
<trkpt lat="-35.3619501" lon="149.1619179">
  <ele>627.06</ele>
  <time>2026-08-28T19:09:52Z</time>
  <course>343.6</course>
  <speed>8.13</speed>
  <fix>3d</fix>
</trkpt>
<trkpt lat="-35.3619265" lon="149.1619095">
  <ele>626.53</ele>
  <time>2026-08-28T19:09:52Z</time>
  <course>343.54</course>
  <speed>8.126401417601766</speed>
  <fix>3d</fix>
</trkpt>
<trkpt lat="-35.361936" lon="149.1619129">
  <ele>626.76</ele>
  <time>2026-08-28T19:09:52Z</time>
  <course>343.59</course>
  <speed>8.13</speed>
  <fix>3d</fix>
</trkpt>
<trkpt lat="-35.3619126" lon="149.1619045">
  <ele>626.23</ele>
  <time>2026-08-28T19:09:52Z</time>
  <course>343.52</course>
  <speed>8.119618217625753</speed>
  <fix>3d</fix>
</trkpt>
<trkpt lat="-35.3619219" lon="149.1619078">
  <ele>626.45</ele>
  <time>2026-08-28T19:09:52Z</time>
  <course>343.57</course>
  <speed>8.13</speed>
  <fix>3d</fix>
</trkpt>
<trkpt lat="-35.3618985" lon="149.1618994">
  <ele>625.93</ele>
  <time>2026-08-28T19:09:52Z</time>
  <course>343.44</course>
  <speed>8.119618217625753</speed>
  <fix>3d</fix>
</trkpt>
<trkpt lat="-35.361908" lon="149.1619027">
  <ele>626.16</ele>
  <time>2026-08-28T19:09:52Z</time>
  <course>343.56</course>
  <speed>8.13</speed>
  <fix>3d</fix>
</trkpt>
<trkpt lat="-35.3618845" lon="149.1618943">
  <ele>625.65</ele>
  <time>2026-08-28T19:09:52Z</time>
  <course>343.42</course>
  <speed>8.078421875589317</speed>
  <fix>3d</fix>
</trkpt>
<trkpt lat="-35.3618939" lon="149.1618977">
  <ele>625.86</ele>
  <time>2026-08-28T19:09:52Z</time>
  <course>343.53</course>
  <speed>8.12</speed>
  <fix>3d</fix>
</trkpt>
<trkpt lat="-35.3618706" lon="149.1618893">
  <ele>625.37</ele>
  <time>2026-08-28T19:09:52Z</time>
  <course>343.54</course>
  <speed>7.998862419119359</speed>
  <fix>3d</fix>
</trkpt>
<trkpt lat="-35.36188" lon="149.1618926">
  <ele>625.57</ele>
  <time>2026-08-28T19:09:52Z</time>
  <course>343.49</course>
  <speed>8.07</speed>
  <fix>3d</fix>
</trkpt>
<trkpt lat="-35.3618569" lon="149.1618843">
  <ele>625.1</ele>
  <time>2026-08-28T19:09:52Z</time>
  <course>343.74</course>
  <speed>7.865697680434965</speed>
  <fix>3d</fix>
</trkpt>
<trkpt lat="-35.3618661" lon="149.1618876">
  <ele>625.29</ele>
  <time>2026-08-28T19:09:52Z</time>
  <course>343.45</course>
  <speed>7.98</speed>
  <fix>3d</fix>
</trkpt>
<trkpt lat="-35.3618435" lon="149.1618794">
  <ele>624.85</ele>
  <time>2026-08-28T19:09:52Z</time>
  <course>344.0</course>
  <speed>7.676066701117182</speed>
  <fix>3d</fix>
</trkpt>
<trkpt lat="-35.3618525" lon="149.1618826">
  <ele>625.03</ele>
  <time>2026-08-28T19:09:52Z</time>
  <course>343.42</course>
  <speed>7.84</speed>
  <fix>3d</fix>
</trkpt>
<trkpt lat="-35.3618305" lon="149.1618746">
  <ele>624.59</ele>
  <time>2026-08-28T19:09:52Z</time>
  <course>344.28</course>
  <speed>7.435657334762004</speed>
  <fix>3d</fix>
</trkpt>
<trkpt lat="-35.3618392" lon="149.1618777">
  <ele>624.77</ele>
  <time>2026-08-28T19:09:52Z</time>
  <course>343.44</course>
  <speed>7.64</speed>
  <fix>3d</fix>
</trkpt>
<trkpt lat="-35.3618179" lon="149.1618701">
  <ele>624.35</ele>
  <time>2026-08-28T19:09:52Z</time>
  <course>344.56</course>
  <speed>7.141631466268755</speed>
  <fix>3d</fix>
</trkpt>
<trkpt lat="-35.3618262" lon="149.1618729">
  <ele>624.53</ele>
  <time>2026-08-28T19:09:52Z</time>
  <course>343.5</course>
  <speed>7.39</speed>
  <fix>3d</fix>
</trkpt>
<trkpt lat="-35.3618059" lon="149.1618657">
  <ele>624.11</ele>
  <time>2026-08-28T19:09:52Z</time>
  <course>344.81</course>
  <speed>6.813200422708847</speed>
  <fix>3d</fix>
</trkpt>
<trkpt lat="-35.3618138" lon="149.1618684">
  <ele>624.29</ele>
  <time>2026-08-28T19:09:52Z</time>
  <course>343.61</course>
  <speed>7.09</speed>
  <fix>3d</fix>
</trkpt>
<trkpt lat="-35.3617944" lon="149.1618616">
  <ele>623.87</ele>
  <time>2026-08-28T19:09:52Z</time>
  <course>345.05</course>
  <speed>6.436800447427277</speed>
  <fix>3d</fix>
</trkpt>
<trkpt lat="-35.3618018" lon="149.1618641">
  <ele>624.05</ele>
  <time>2026-08-28T19:09:52Z</time>
  <course>343.75</course>
  <speed>6.75</speed>
  <fix>3d</fix>
</trkpt>
<trkpt lat="-35.3617836" lon="149.1618578">
  <ele>623.64</ele>
  <time>2026-08-28T19:09:52Z</time>
  <course>345.25</course>
  <speed>6.016419200820368</speed>
  <fix>3d</fix>
</trkpt>
<trkpt lat="-35.3617905" lon="149.1618601">
  <ele>623.82</ele>
  <time>2026-08-28T19:09:52Z</time>
  <course>343.9</course>
  <speed>6.36</speed>
  <fix>3d</fix>
</trkpt>
<trkpt lat="-35.3617736" lon="149.1618542">
  <ele>623.43</ele>
  <time>2026-08-28T19:09:52Z</time>
  <course>345.37</course>
  <speed>5.545250219782693</speed>
  <fix>3d</fix>
</trkpt>
<trkpt lat="-35.3617799" lon="149.1618565">
  <ele>623.6</ele>
  <time>2026-08-28T19:09:52Z</time>
  <course>344.07</course>
  <speed>5.92</speed>
  <fix>3d</fix>
</trkpt>
<trkpt lat="-35.3617643" lon="149.161851">
  <ele>623.23</ele>
  <time>2026-08-28T19:09:52Z</time>
  <course>345.42</course>
  <speed>5.0109180795538855</speed>
  <fix>3d</fix>
</trkpt>
<trkpt lat="-35.3617701" lon="149.161853">
  <ele>623.38</ele>
  <time>2026-08-28T19:09:52Z</time>
  <course>344.24</course>
  <speed>5.44</speed>
  <fix>3d</fix>
</trkpt>
<trkpt lat="-35.361756" lon="149.1618481">
  <ele>623.04</ele>
  <time>2026-08-28T19:09:52Z</time>
  <course>345.5</course>
  <speed>4.418891263654267</speed>
  <fix>3d</fix>
</trkpt>
<trkpt lat="-35.3617611" lon="149.1618499">
  <ele>623.18</ele>
  <time>2026-08-28T19:09:52Z</time>
  <course>344.4</course>
  <speed>4.89</speed>
  <fix>3d</fix>
</trkpt>
<trkpt lat="-35.3617489" lon="149.1618456">
  <ele>622.86</ele>
  <time>2026-08-28T19:09:52Z</time>
  <course>345.45</course>
  <speed>3.7417108386405276</speed>
  <fix>3d</fix>
</trkpt>
<trkpt lat="-35.3617531" lon="149.1618472">
  <ele>623.0</ele>
  <time>2026-08-28T19:09:52Z</time>
  <course>344.52</course>
  <speed>4.27</speed>
  <fix>3d</fix>
</trkpt>
<trkpt lat="-35.3617429" lon="149.1618436">
  <ele>622.7</ele>
  <time>2026-08-28T19:09:52Z</time>
  <course>345.22</course>
  <speed>3.0164382970649344</speed>
  <fix>3d</fix>
</trkpt>
<trkpt lat="-35.3617464" lon="149.1618449">
  <ele>622.83</ele>
  <time>2026-08-28T19:09:52Z</time>
  <course>344.63</course>
  <speed>3.58</speed>
  <fix>3d</fix>
</trkpt>
<trkpt lat="-35.3617382" lon="149.161842">
  <ele>622.56</ele>
  <time>2026-08-28T19:09:52Z</time>
  <course>344.88</course>
  <speed>2.247220505424423</speed>
  <fix>3d</fix>
</trkpt>
<trkpt lat="-35.3617408" lon="149.1618431">
  <ele>622.68</ele>
  <time>2026-08-28T19:09:52Z</time>
  <course>344.79</course>
  <speed>2.84</speed>
  <fix>3d</fix>
</trkpt>
<trkpt lat="-35.3617349" lon="149.1618409">
  <ele>622.43</ele>
  <time>2026-08-28T19:09:52Z</time>
  <course>344.45</course>
  <speed>1.4464093473149293</speed>
  <fix>3d</fix>
</trkpt>
<trkpt lat="-35.3617365" lon="149.1618417">
  <ele>622.54</ele>
  <time>2026-08-28T19:09:52Z</time>
  <course>345.11</course>
  <speed>2.06</speed>
  <fix>3d</fix>
</trkpt>
<trkpt lat="-35.361733" lon="149.1618403">
  <ele>622.31</ele>
  <time>2026-08-28T19:09:52Z</time>
  <course>343.88</course>
  <speed>0.6456004956627589</speed>
  <fix>3d</fix>
</trkpt>
<trkpt lat="-35.3617337" lon="149.1618407">
  <ele>622.42</ele>
  <time>2026-08-28T19:09:52Z</time>
  <course>345.87</course>
  <speed>1.25</speed>
  <fix>3d</fix>
</trkpt>
<trkpt lat="-35.3617324" lon="149.1618402">
  <ele>622.21</ele>
  <time>2026-08-28T19:09:52Z</time>
  <course>343.32</course>
  <speed>0.14317821063276354</speed>
  <fix>3d</fix>
</trkpt>
<trkpt lat="-35.3617322" lon="149.1618403">
  <ele>622.3</ele>
  <time>2026-08-28T19:09:52Z</time>
  <course>349.29</course>
  <speed>0.44</speed>
  <fix>3d</fix>
</trkpt>
<trkpt lat="-35.3617332" lon="149.1618406">
  <ele>622.12</ele>
  <time>2026-08-28T19:09:52Z</time>
  <course>342.81</course>
  <speed>0.9148223871331527</speed>
  <fix>3d</fix>
</trkpt>
<trkpt lat="-35.3617321" lon="149.1618403">
  <ele>622.2</ele>
  <time>2026-08-28T19:09:52Z</time>
  <course>157.37</course>
  <speed>0.35</speed>
  <fix>3d</fix>
</trkpt>
<trkpt lat="-35.3617354" lon="149.1618414">
  <ele>622.05</ele>
  <time>2026-08-28T19:09:52Z</time>
  <course>340.0</course>
  <speed>1.6637908522407496</speed>
  <fix>3d</fix>
</trkpt>
<trkpt lat="-35.3617333" lon="149.1618408">
  <ele>622.12</ele>
  <time>2026-08-28T19:09:52Z</time>
  <course>161.7</course>
  <speed>1.13</speed>
  <fix>3d</fix>
</trkpt>
<trkpt lat="-35.3617386" lon="149.1618428">
  <ele>622.0</ele>
  <time>2026-08-28T19:09:52Z</time>
  <course>324.51</course>
  <speed>2.397540406333124</speed>
  <fix>3d</fix>
</trkpt>
<trkpt lat="-35.3617358" lon="149.1618418">
  <ele>622.05</ele>
  <time>2026-08-28T19:09:52Z</time>
  <course>161.74</course>
  <speed>1.88</speed>
  <fix>3d</fix>
</trkpt>
<trkpt lat="-35.3617433" lon="149.1618446">
  <ele>621.95</ele>
  <time>2026-08-28T19:09:52Z</time>
  <course>311.14</course>
  <speed>3.1217463061562194</speed>
  <fix>3d</fix>
</trkpt>
<trkpt lat="-35.3617396" lon="149.1618434">
  <ele>621.99</ele>
  <time>2026-08-28T19:09:52Z</time>
  <course>161.79</course>
  <speed>2.62</speed>
  <fix>3d</fix>
</trkpt>
<trkpt lat="-35.3617492" lon="149.161847">
  <ele>621.92</ele>
  <time>2026-08-28T19:09:52Z</time>
  <course>298.47</course>
  <speed>3.7917937707633835</speed>
  <fix>3d</fix>
</trkpt>
<trkpt lat="-35.3617447" lon="149.1618454">
  <ele>621.94</ele>
  <time>2026-08-28T19:09:52Z</time>
  <course>161.86</course>
  <speed>3.33</speed>
  <fix>3d</fix>
</trkpt>
<trkpt lat="-35.3617561" lon="149.1618498">
  <ele>621.91</ele>
  <time>2026-08-28T19:09:52Z</time>
  <course>286.42</course>
  <speed>4.386080254623711</speed>
  <fix>3d</fix>
</trkpt>
<trkpt lat="-35.361751" lon="149.161848">
  <ele>621.92</ele>
  <time>2026-08-28T19:09:52Z</time>
  <course>161.47</course>
  <speed>3.99</speed>
  <fix>3d</fix>
</trkpt>
<trkpt lat="-35.3617639" lon="149.1618532">
  <ele>621.9</ele>
  <time>2026-08-28T19:09:52Z</time>
  <course>274.89</course>
  <speed>4.895406009719725</speed>
  <fix>3d</fix>
</trkpt>
<trkpt lat="-35.3617584" lon="149.161851">
  <ele>621.9</ele>
  <time>2026-08-28T19:09:52Z</time>
  <course>161.03</course>
  <speed>4.58</speed>
  <fix>3d</fix>
</trkpt>
<trkpt lat="-35.3617725" lon="149.1618569">
  <ele>621.91</ele>
  <time>2026-08-28T19:09:52Z</time>
  <course>263.66</course>
  <speed>5.306486596609851</speed>
  <fix>3d</fix>
</trkpt>
<trkpt lat="-35.3617665" lon="149.1618545">
  <ele>621.89</ele>
  <time>2026-08-28T19:09:52Z</time>
  <course>160.8</course>
  <speed>5.07</speed>
  <fix>3d</fix>
</trkpt>
<trkpt lat="-35.3617818" lon="149.1618608">
  <ele>621.91</ele>
  <time>2026-08-28T19:09:52Z</time>
  <course>252.46</course>
  <speed>5.663647234777251</speed>
  <fix>3d</fix>
</trkpt>
<trkpt lat="-35.3617755" lon="149.1618584">
  <ele>621.89</ele>
  <time>2026-08-28T19:09:52Z</time>
  <course>160.93</course>
  <speed>5.48</speed>
  <fix>3d</fix>
</trkpt>
<trkpt lat="-35.3617918" lon="149.1618649">
  <ele>621.91</ele>
  <time>2026-08-28T19:09:52Z</time>
  <course>241.07</course>
  <speed>5.986559947081462</speed>
  <fix>3d</fix>
</trkpt>
<trkpt lat="-35.3617851" lon="149.1618624">
  <ele>621.89</ele>
  <time>2026-08-28T19:09:52Z</time>
  <course>161.46</course>
  <speed>5.83</speed>
  <fix>3d</fix>
</trkpt>
<trkpt lat="-35.3618024" lon="149.161869">
  <ele>621.91</ele>
  <time>2026-08-28T19:09:52Z</time>
  <course>229.42</course>
  <speed>6.333182454343156</speed>
  <fix>3d</fix>
</trkpt>
<trkpt lat="-35.3617954" lon="149.1618665">
  <ele>621.88</ele>
  <time>2026-08-28T19:09:52Z</time>
  <course>162.28</course>
  <speed>6.16</speed>
  <fix>3d</fix>
</trkpt>
<trkpt lat="-35.3618136" lon="149.1618731">
  <ele>621.89</ele>
  <time>2026-08-28T19:09:52Z</time>
  <course>217.55</course>
  <speed>6.72244003320223</speed>
  <fix>3d</fix>
</trkpt>
<trkpt lat="-35.3618063" lon="149.1618706">
  <ele>621.87</ele>
  <time>2026-08-28T19:09:52Z</time>
  <course>163.2</course>
  <speed>6.51</speed>
  <fix>3d</fix>
</trkpt>
<trkpt lat="-35.3618256" lon="149.1618773">
  <ele>621.87</ele>
  <time>2026-08-28T19:09:52Z</time>
  <course>205.21</course>
  <speed>7.181420472302119</speed>
  <fix>3d</fix>
</trkpt>
<trkpt lat="-35.3618178" lon="149.1618748">
  <ele>621.85</ele>
  <time>2026-08-28T19:09:52Z</time>
  <course>163.99</course>
  <speed>6.91</speed>
  <fix>3d</fix>
</trkpt>
<trkpt lat="-35.3618386" lon="149.1618818">
  <ele>621.84</ele>
  <time>2026-08-28T19:09:52Z</time>
  <course>192.39</course>
  <speed>7.688341823826513</speed>
  <fix>3d</fix>
</trkpt>
<trkpt lat="-35.3618302" lon="149.1618791">
  <ele>621.82</ele>
  <time>2026-08-28T19:09:52Z</time>
  <course>164.43</course>
  <speed>7.37</speed>
  <fix>3d</fix>
</trkpt>
<trkpt lat="-35.3618524" lon="149.1618866">
  <ele>621.81</ele>
  <time>2026-08-28T19:09:52Z</time>
  <course>179.44</course>
  <speed>8.185316120957088</speed>
  <fix>3d</fix>
</trkpt>
<trkpt lat="-35.3618434" lon="149.1618836">
  <ele>621.78</ele>
  <time>2026-08-28T19:09:52Z</time>
  <course>164.39</course>
  <speed>7.87</speed>
  <fix>3d</fix>
</trkpt>
<trkpt lat="-35.361867" lon="149.1618919">
  <ele>621.79</ele>
  <time>2026-08-28T19:09:52Z</time>
  <course>166.82</course>
  <speed>8.627149007638618</speed>
  <fix>3d</fix>
</trkpt>
<trkpt lat="-35.3618574" lon="149.1618884">
  <ele>621.74</ele>
  <time>2026-08-28T19:09:52Z</time>
  <course>163.9</course>
  <speed>8.35</speed>
  <fix>3d</fix>
</trkpt>
<trkpt lat="-35.3618822" lon="149.1618976">
  <ele>621.77</ele>
  <time>2026-08-28T19:09:52Z</time>
  <course>155.77</course>
  <speed>8.952815199701154</speed>
  <fix>3d</fix>
</trkpt>
<trkpt lat="-35.3618722" lon="149.1618939">
  <ele>621.72</ele>
  <time>2026-08-28T19:09:52Z</time>
  <course>163.08</course>
  <speed>8.76</speed>
  <fix>3d</fix>
</trkpt>
<trkpt lat="-35.3618977" lon="149.161904">
  <ele>621.76</ele>
  <time>2026-08-28T19:09:52Z</time>
  <course>155.34</course>
  <speed>9.199222793258135</speed>
  <fix>3d</fix>
</trkpt>
<trkpt lat="-35.3618875" lon="149.1618998">
  <ele>621.71</ele>
  <time>2026-08-28T19:09:52Z</time>
  <course>162.04</course>
  <speed>9.07</speed>
  <fix>3d</fix>
</trkpt>
<trkpt lat="-35.3619135" lon="149.1619105">
  <ele>621.76</ele>
  <time>2026-08-28T19:09:52Z</time>
  <course>156.06</course>
  <speed>9.389190593443079</speed>
  <fix>3d</fix>
</trkpt>
<trkpt lat="-35.3619032" lon="149.1619061">
  <ele>621.7</ele>
  <time>2026-08-28T19:09:52Z</time>
  <course>161.32</course>
  <speed>9.29</speed>
  <fix>3d</fix>
</trkpt>
<trkpt lat="-35.3619297" lon="149.1619173">
  <ele>621.75</ele>
  <time>2026-08-28T19:09:52Z</time>
  <course>156.74</course>
  <speed>9.550287953773958</speed>
  <fix>3d</fix>
</trkpt>
<trkpt lat="-35.3619191" lon="149.1619127">
  <ele>621.7</ele>
  <time>2026-08-28T19:09:52Z</time>
  <course>161.2</course>
  <speed>9.48</speed>
  <fix>3d</fix>
</trkpt>
<trkpt lat="-35.3619461" lon="149.161924">
  <ele>621.74</ele>
  <time>2026-08-28T19:09:52Z</time>
  <course>157.36</course>
  <speed>9.692393925135317</speed>
  <fix>3d</fix>
</trkpt>
<trkpt lat="-35.3619353" lon="149.1619196">
  <ele>621.69</ele>
  <time>2026-08-28T19:09:52Z</time>
  <course>161.36</course>
  <speed>9.63</speed>
  <fix>3d</fix>
</trkpt>
<trkpt lat="-35.3619628" lon="149.1619307">
  <ele>621.72</ele>
  <time>2026-08-28T19:09:52Z</time>
  <course>157.99</course>
  <speed>9.806370378483571</speed>
  <fix>3d</fix>
</trkpt>
<trkpt lat="-35.3619519" lon="149.1619263">
  <ele>621.68</ele>
  <time>2026-08-28T19:09:52Z</time>
  <course>161.67</course>
  <speed>9.77</speed>
  <fix>3d</fix>
</trkpt>
<trkpt lat="-35.3619796" lon="149.1619374">
  <ele>621.7</ele>
  <time>2026-08-28T19:09:52Z</time>
  <course>158.72</course>
  <speed>9.889211293121408</speed>
  <fix>3d</fix>
</trkpt>
<trkpt lat="-35.3619687" lon="149.161933">
  <ele>621.67</ele>
  <time>2026-08-28T19:09:52Z</time>
  <course>162.05</course>
  <speed>9.87</speed>
  <fix>3d</fix>
</trkpt>
<trkpt lat="-35.3619967" lon="149.161944">
  <ele>621.68</ele>
  <time>2026-08-28T19:09:52Z</time>
  <course>159.54</course>
  <speed>9.93793741175703</speed>
  <fix>3d</fix>
</trkpt>
<trkpt lat="-35.3619857" lon="149.1619397">
  <ele>621.65</ele>
  <time>2026-08-28T19:09:52Z</time>
  <course>162.49</course>
  <speed>9.94</speed>
  <fix>3d</fix>
</trkpt>
<trkpt lat="-35.362014" lon="149.1619504">
  <ele>621.67</ele>
  <time>2026-08-28T19:09:52Z</time>
  <course>160.47</course>
  <speed>9.943203709066813</speed>
  <fix>3d</fix>
</trkpt>
<trkpt lat="-35.3620027" lon="149.1619462">
  <ele>621.63</ele>
  <time>2026-08-28T19:09:52Z</time>
  <course>162.96</course>
  <speed>9.97</speed>
  <fix>3d</fix>
</trkpt>
<trkpt lat="-35.3620312" lon="149.1619567">
  <ele>621.65</ele>
  <time>2026-08-28T19:09:52Z</time>
  <course>161.47</course>
  <speed>9.91760051625392</speed>
  <fix>3d</fix>
</trkpt>
<trkpt lat="-35.3620199" lon="149.1619526">
  <ele>621.61</ele>
  <time>2026-08-28T19:09:52Z</time>
  <course>163.46</course>
  <speed>9.97</speed>
  <fix>3d</fix>
</trkpt>
<trkpt lat="-35.3620484" lon="149.1619627">
  <ele>621.63</ele>
  <time>2026-08-28T19:09:52Z</time>
  <course>162.41</course>
  <speed>9.883127035508549</speed>
  <fix>3d</fix>
</trkpt>
<trkpt lat="-35.362037" lon="149.1619587">
  <ele>621.58</ele>
  <time>2026-08-28T19:09:52Z</time>
  <course>163.97</course>
  <speed>9.93</speed>
  <fix>3d</fix>
</trkpt>
<trkpt lat="-35.3620656" lon="149.1619685">
  <ele>621.6</ele>
  <time>2026-08-28T19:09:52Z</time>
  <course>163.13</course>
  <speed>9.859011106596848</speed>
  <fix>3d</fix>
</trkpt>
<trkpt lat="-35.3620542" lon="149.1619647">
  <ele>621.56</ele>
  <time>2026-08-28T19:09:52Z</time>
  <course>164.47</course>
  <speed>9.89</speed>
  <fix>3d</fix>
</trkpt>
<trkpt lat="-35.3620827" lon="149.1619742">
  <ele>621.55</ele>
  <time>2026-08-28T19:09:52Z</time>
  <course>163.54</course>
  <speed>9.86977709981335</speed>
  <fix>3d</fix>
</trkpt>
<trkpt lat="-35.3620714" lon="149.1619704">
  <ele>621.52</ele>
  <time>2026-08-28T19:09:52Z</time>
  <course>164.95</course>
  <speed>9.87</speed>
  <fix>3d</fix>
</trkpt>
<trkpt lat="-35.3621" lon="149.1619797">
  <ele>621.48</ele>
  <time>2026-08-28T19:09:52Z</time>
  <course>163.57</course>
  <speed>9.949216049518675</speed>
  <fix>3d</fix>
</trkpt>
<trkpt lat="-35.3620886" lon="149.161976">
  <ele>621.47</ele>
  <time>2026-08-28T19:09:52Z</time>
  <course>165.35</course>
  <speed>9.89</speed>
  <fix>3d</fix>
</trkpt>
<trkpt lat="-35.3621174" lon="149.1619851">
  <ele>621.4</ele>
  <time>2026-08-28T19:09:52Z</time>
  <course>163.26</course>
  <speed>10.084785570352995</speed>
  <fix>3d</fix>
</trkpt>
<trkpt lat="-35.3621058" lon="149.1619815">
  <ele>621.4</ele>
  <time>2026-08-28T19:09:52Z</time>
  <course>165.63</course>
  <speed>9.98</speed>
  <fix>3d</fix>
</trkpt>
<trkpt lat="-35.3621351" lon="149.1619907">
  <ele>621.31</ele>
  <time>2026-08-28T19:09:52Z</time>
  <course>162.62</course>
  <speed>10.303106327705253</speed>
  <fix>3d</fix>
</trkpt>
<trkpt lat="-35.3621233" lon="149.1619869">
  <ele>621.31</ele>
  <time>2026-08-28T19:09:52Z</time>
  <course>165.76</course>
  <speed>10.14</speed>
  <fix>3d</fix>
</trkpt>
<trkpt lat="-35.3621531" lon="149.1619963">
  <ele>621.22</ele>
  <time>2026-08-28T19:09:52Z</time>
  <course>161.7</course>
  <speed>10.579848770185706</speed>
  <fix>3d</fix>
</trkpt>
<trkpt lat="-35.3621411" lon="149.1619925">
  <ele>621.22</ele>
  <time>2026-08-28T19:09:52Z</time>
  <course>165.7</course>
  <speed>10.36</speed>
  <fix>3d</fix>
</trkpt>
<trkpt lat="-35.3621717" lon="149.1620023">
  <ele>621.13</ele>
  <time>2026-08-28T19:09:52Z</time>
  <course>160.55</course>
  <speed>10.905576555139119</speed>
  <fix>3d</fix>
</trkpt>
<trkpt lat="-35.3621594" lon="149.1619982">
  <ele>621.13</ele>
  <time>2026-08-28T19:09:52Z</time>
  <course>165.46</course>
  <speed>10.65</speed>
  <fix>3d</fix>
</trkpt>
<trkpt lat="-35.3621909" lon="149.1620086">
  <ele>621.06</ele>
  <time>2026-08-28T19:09:52Z</time>
  <course>159.2</course>
  <speed>11.27108246797973</speed>
  <fix>3d</fix>
</trkpt>
<trkpt lat="-35.3621782" lon="149.1620042">
  <ele>621.05</ele>
  <time>2026-08-28T19:09:52Z</time>
  <course>165.08</course>
  <speed>10.99</speed>
  <fix>3d</fix>
</trkpt>
<trkpt lat="-35.3622108" lon="149.1620153">
  <ele>621.0</ele>
  <time>2026-08-28T19:09:52Z</time>
  <course>157.73</course>
  <speed>11.671559450219151</speed>
  <fix>3d</fix>
</trkpt>
<trkpt lat="-35.3621976" lon="149.1620107">
  <ele>620.99</ele>
  <time>2026-08-28T19:09:52Z</time>
  <course>164.61</course>
  <speed>11.36</speed>
  <fix>3d</fix>
</trkpt>
<trkpt lat="-35.3622313" lon="149.1620225">
  <ele>620.96</ele>
  <time>2026-08-28T19:09:52Z</time>
  <course>156.33</course>
  <speed>12.066005967179033</speed>
  <fix>3d</fix>
</trkpt>
<trkpt lat="-35.3622177" lon="149.1620176">
  <ele>620.93</ele>
  <time>2026-08-28T19:09:52Z</time>
  <course>164.1</course>
  <speed>11.76</speed>
  <fix>3d</fix>
</trkpt>
<trkpt lat="-35.3622523" lon="149.1620301">
  <ele>620.93</ele>
  <time>2026-08-28T19:09:52Z</time>
  <course>155.28</course>
  <speed>12.426841915788579</speed>
  <fix>3d</fix>
</trkpt>
<trkpt lat="-35.3622383" lon="149.1620249">
  <ele>620.89</ele>
  <time>2026-08-28T19:09:52Z</time>
  <course>163.59</course>
  <speed>12.15</speed>
  <fix>3d</fix>
</trkpt>
<trkpt lat="-35.3622739" lon="149.1620382">
  <ele>620.91</ele>
  <time>2026-08-28T19:09:52Z</time>
  <course>154.84</course>
  <speed>12.734653509224348</speed>
  <fix>3d</fix>
</trkpt>
<trkpt lat="-35.3622596" lon="149.1620327">
  <ele>620.86</ele>
  <time>2026-08-28T19:09:52Z</time>
  <course>163.13</course>
  <speed>12.51</speed>
  <fix>3d</fix>
</trkpt>
<trkpt lat="-35.3622959" lon="149.1620465">
  <ele>620.91</ele>
  <time>2026-08-28T19:09:52Z</time>
  <course>155.07</course>
  <speed>12.973773545117858</speed>
  <fix>3d</fix>
</trkpt>
<trkpt lat="-35.3622813" lon="149.1620409">
  <ele>620.85</ele>
  <time>2026-08-28T19:09:52Z</time>
  <course>162.76</course>
  <speed>12.81</speed>
  <fix>3d</fix>
</trkpt>
<trkpt lat="-35.3623182" lon="149.1620551">
  <ele>620.93</ele>
  <time>2026-08-28T19:09:52Z</time>
  <course>155.88</course>
  <speed>13.137861317581336</speed>
  <fix>3d</fix>
</trkpt>
<trkpt lat="-35.3623034" lon="149.1620494">
  <ele>620.86</ele>
  <time>2026-08-28T19:09:52Z</time>
  <course>162.51</course>
  <speed>13.03</speed>
  <fix>3d</fix>
</trkpt>
<trkpt lat="-35.3623408" lon="149.1620639">
  <ele>620.94</ele>
  <time>2026-08-28T19:09:52Z</time>
  <course>157.03</course>
  <speed>13.242254339801814</speed>
  <fix>3d</fix>
</trkpt>
<trkpt lat="-35.3623259" lon="149.1620581">
  <ele>620.87</ele>
  <time>2026-08-28T19:09:52Z</time>
  <course>162.42</course>
  <speed>13.19</speed>
  <fix>3d</fix>
</trkpt>
<trkpt lat="-35.3623634" lon="149.1620726">
  <ele>620.96</ele>
  <time>2026-08-28T19:09:52Z</time>
  <course>158.24</course>
  <speed>13.293520978281112</speed>
  <fix>3d</fix>
</trkpt>
<trkpt lat="-35.3623487" lon="149.1620669">
  <ele>620.89</ele>
  <time>2026-08-28T19:09:52Z</time>
  <course>162.47</course>
  <speed>13.29</speed>
  <fix>3d</fix>
</trkpt>
<trkpt lat="-35.3623862" lon="149.1620813">
  <ele>620.97</ele>
  <time>2026-08-28T19:09:52Z</time>
  <course>159.37</course>
  <speed>13.297826890135095</speed>
  <fix>3d</fix>
</trkpt>
<trkpt lat="-35.3623714" lon="149.1620757">
  <ele>620.9</ele>
  <time>2026-08-28T19:09:52Z</time>
  <course>162.63</course>
  <speed>13.33</speed>
  <fix>3d</fix>
</trkpt>
<trkpt lat="-35.3624092" lon="149.1620899">
  <ele>620.97</ele>
  <time>2026-08-28T19:09:52Z</time>
  <course>160.49</course>
  <speed>13.267840819063213</speed>
  <fix>3d</fix>
</trkpt>
<trkpt lat="-35.3623943" lon="149.1620844">
  <ele>620.9</ele>
  <time>2026-08-28T19:09:52Z</time>
  <course>162.87</course>
  <speed>13.33</speed>
  <fix>3d</fix>
</trkpt>
<trkpt lat="-35.3624321" lon="149.1620983">
  <ele>620.96</ele>
  <time>2026-08-28T19:09:52Z</time>
  <course>161.56</course>
  <speed>13.203715386208534</speed>
  <fix>3d</fix>
</trkpt>
<trkpt lat="-35.3624172" lon="149.162093">
  <ele>620.89</ele>
  <time>2026-08-28T19:09:52Z</time>
  <course>163.16</course>
  <speed>13.29</speed>
  <fix>3d</fix>
</trkpt>
<trkpt lat="-35.3624549" lon="149.1621066">
  <ele>620.93</ele>
  <time>2026-08-28T19:09:52Z</time>
  <course>162.41</course>
  <speed>13.130411265455473</speed>
  <fix>3d</fix>
</trkpt>
<trkpt lat="-35.3624401" lon="149.1621014">
  <ele>620.88</ele>
  <time>2026-08-28T19:09:52Z</time>
  <course>163.48</course>
  <speed>13.22</speed>
  <fix>3d</fix>
</trkpt>
<trkpt lat="-35.3624776" lon="149.1621146">
  <ele>620.89</ele>
  <time>2026-08-28T19:09:52Z</time>
  <course>163.04</course>
  <speed>13.057507419105685</speed>
  <fix>3d</fix>
</trkpt>
<trkpt lat="-35.3624629" lon="149.1621096">
  <ele>620.85</ele>
  <time>2026-08-28T19:09:52Z</time>
  <course>163.8</course>
  <speed>13.14</speed>
  <fix>3d</fix>
</trkpt>
<trkpt lat="-35.3625002" lon="149.1621225">
  <ele>620.83</ele>
  <time>2026-08-28T19:09:52Z</time>
  <course>163.41</course>
  <speed>12.987694175641803</speed>
  <fix>3d</fix>
</trkpt>
<trkpt lat="-35.3624855" lon="149.1621175">
  <ele>620.8</ele>
  <time>2026-08-28T19:09:52Z</time>
  <course>164.1</course>
  <speed>13.07</speed>
  <fix>3d</fix>
</trkpt>
<trkpt lat="-35.3625228" lon="149.1621302">
  <ele>620.76</ele>
  <time>2026-08-28T19:09:52Z</time>
  <course>163.61</course>
  <speed>12.935783702582539</speed>
  <fix>3d</fix>
</trkpt>
<trkpt lat="-35.362508" lon="149.1621253">
  <ele>620.73</ele>
  <time>2026-08-28T19:09:52Z</time>
  <course>164.36</course>
  <speed>13.0</speed>
  <fix>3d</fix>
</trkpt>
<trkpt lat="-35.3625452" lon="149.1621378">
  <ele>620.68</ele>
  <time>2026-08-28T19:09:52Z</time>
  <course>163.68</course>
  <speed>12.896263024612983</speed>
  <fix>3d</fix>
</trkpt>
<trkpt lat="-35.3625305" lon="149.1621331">
  <ele>620.66</ele>
  <time>2026-08-28T19:09:52Z</time>
  <course>164.54</course>
  <speed>12.95</speed>
  <fix>3d</fix>
</trkpt>
<trkpt lat="-35.3625677" lon="149.1621454">
  <ele>620.6</ele>
  <time>2026-08-28T19:09:52Z</time>
  <course>163.65</course>
  <speed>12.864688103487001</speed>
  <fix>3d</fix>
</trkpt>
<trkpt lat="-35.3625529" lon="149.1621406">
  <ele>620.58</ele>
  <time>2026-08-28T19:09:52Z</time>
  <course>164.63</course>
  <speed>12.9</speed>
  <fix>3d</fix>
</trkpt>
<trkpt lat="-35.36259" lon="149.1621529">
  <ele>620.53</ele>
  <time>2026-08-28T19:09:52Z</time>
  <course>163.56</course>
  <speed>12.835750854546843</speed>
  <fix>3d</fix>
</trkpt>
<trkpt lat="-35.3625752" lon="149.1621481">
  <ele>620.51</ele>
  <time>2026-08-28T19:09:52Z</time>
  <course>164.65</course>
  <speed>12.87</speed>
  <fix>3d</fix>
</trkpt>
<trkpt lat="-35.3626122" lon="149.1621604">
  <ele>620.47</ele>
  <time>2026-08-28T19:09:52Z</time>
  <course>163.41</course>
  <speed>12.821766648945067</speed>
  <fix>3d</fix>
</trkpt>
<trkpt lat="-35.3625975" lon="149.1621556">
  <ele>620.44</ele>
  <time>2026-08-28T19:09:52Z</time>
  <course>164.58</course>
  <speed>12.84</speed>
  <fix>3d</fix>
</trkpt>
<trkpt lat="-35.3626344" lon="149.162168">
  <ele>620.41</ele>
  <time>2026-08-28T19:09:52Z</time>
  <course>163.19</course>
  <speed>12.80087887607722</speed>
  <fix>3d</fix>
</trkpt>
<trkpt lat="-35.3626196" lon="149.1621632">
  <ele>620.38</ele>
  <time>2026-08-28T19:09:52Z</time>
  <course>164.46</course>
  <speed>12.82</speed>
  <fix>3d</fix>
</trkpt>
<trkpt lat="-35.3626568" lon="149.1621758">
  <ele>620.35</ele>
  <time>2026-08-28T19:09:52Z</time>
  <course>162.96</course>
  <speed>12.792439173199144</speed>
  <fix>3d</fix>
</trkpt>
<trkpt lat="-35.3626418" lon="149.1621707">
  <ele>620.32</ele>
  <time>2026-08-28T19:09:52Z</time>
  <course>164.3</course>
  <speed>12.8</speed>
  <fix>3d</fix>
</trkpt>
<trkpt lat="-35.3626789" lon="149.1621835">
  <ele>620.3</ele>
  <time>2026-08-28T19:09:52Z</time>
  <course>162.67</course>
  <speed>12.784150343296186</speed>
  <fix>3d</fix>
</trkpt>
<trkpt lat="-35.3626639" lon="149.1621784">
  <ele>620.27</ele>
  <time>2026-08-28T19:09:52Z</time>
  <course>164.1</course>
  <speed>12.79</speed>
  <fix>3d</fix>
</trkpt>
<trkpt lat="-35.362701" lon="149.1621914">
  <ele>620.25</ele>
  <time>2026-08-28T19:09:52Z</time>
  <course>162.37</course>
  <speed>12.788404904443713</speed>
  <fix>3d</fix>
</trkpt>
<trkpt lat="-35.3626861" lon="149.1621862">
  <ele>620.23</ele>
  <time>2026-08-28T19:09:52Z</time>
  <course>163.88</course>
  <speed>12.78</speed>
  <fix>3d</fix>
</trkpt>
<trkpt lat="-35.362723" lon="149.1621993">
  <ele>620.21</ele>
  <time>2026-08-28T19:09:52Z</time>
  <course>162.07</course>
  <speed>12.783270317098047</speed>
  <fix>3d</fix>
</trkpt>
<trkpt lat="-35.3627082" lon="149.1621941">
  <ele>620.18</ele>
  <time>2026-08-28T19:09:52Z</time>
  <course>163.64</course>
  <speed>12.78</speed>
  <fix>3d</fix>
</trkpt>
<trkpt lat="-35.362745" lon="149.1622073">
  <ele>620.16</ele>
  <time>2026-08-28T19:09:52Z</time>
  <course>161.75</course>
  <speed>12.797519290862585</speed>
  <fix>3d</fix>
</trkpt>
<trkpt lat="-35.3627302" lon="149.1622021">
  <ele>620.14</ele>
  <time>2026-08-28T19:09:52Z</time>
  <course>163.41</course>
  <speed>12.79</speed>
  <fix>3d</fix>
</trkpt>
<trkpt lat="-35.3627669" lon="149.1622155">
  <ele>620.12</ele>
  <time>2026-08-28T19:09:52Z</time>
  <course>161.44</course>
  <speed>12.818619270420664</speed>
  <fix>3d</fix>
</trkpt>
<trkpt lat="-35.3627521" lon="149.1622102">
  <ele>620.1</ele>
  <time>2026-08-28T19:09:52Z</time>
  <course>163.2</course>
  <speed>12.8</speed>
  <fix>3d</fix>
</trkpt>
<trkpt lat="-35.3627889" lon="149.1622237">
  <ele>620.07</ele>
  <time>2026-08-28T19:09:52Z</time>
  <course>161.15</course>
  <speed>12.84274114042637</speed>
  <fix>3d</fix>
</trkpt>
<trkpt lat="-35.3627742" lon="149.1622183">
  <ele>620.05</ele>
  <time>2026-08-28T19:09:52Z</time>
  <course>163.0</course>
  <speed>12.83</speed>
  <fix>3d</fix>
</trkpt>
<trkpt lat="-35.3628109" lon="149.162232">
  <ele>620.03</ele>
  <time>2026-08-28T19:09:52Z</time>
  <course>160.89</course>
  <speed>12.873616430513998</speed>
  <fix>3d</fix>
</trkpt>
<trkpt lat="-35.3627963" lon="149.1622267">
  <ele>620.01</ele>
  <time>2026-08-28T19:09:52Z</time>
  <course>162.83</course>
  <speed>12.86</speed>
  <fix>3d</fix>
</trkpt>
<trkpt lat="-35.3628328" lon="149.1622404">
  <ele>619.98</ele>
  <time>2026-08-28T19:09:52Z</time>
  <course>160.67</course>
  <speed>12.911150219868096</speed>
  <fix>3d</fix>
</trkpt>
<trkpt lat="-35.3628184" lon="149.1622351">
  <ele>619.97</ele>
  <time>2026-08-28T19:09:52Z</time>
  <course>162.68</course>
  <speed>12.9</speed>
  <fix>3d</fix>
</trkpt>
<trkpt lat="-35.362855" lon="149.1622489">
  <ele>619.94</ele>
  <time>2026-08-28T19:09:52Z</time>
  <course>160.54</course>
  <speed>12.94871422188319</speed>
  <fix>3d</fix>
</trkpt>
<trkpt lat="-35.3628406" lon="149.1622436">
  <ele>619.93</ele>
  <time>2026-08-28T19:09:52Z</time>
  <course>162.57</course>
  <speed>12.94</speed>
  <fix>3d</fix>
</trkpt>
<trkpt lat="-35.3628772" lon="149.1622575">
  <ele>619.91</ele>
  <time>2026-08-28T19:09:52Z</time>
  <course>160.46</course>
  <speed>12.983316217361418</speed>
  <fix>3d</fix>
</trkpt>
<trkpt lat="-35.3628628" lon="149.1622521">
  <ele>619.89</ele>
  <time>2026-08-28T19:09:52Z</time>
  <course>162.49</course>
  <speed>12.98</speed>
  <fix>3d</fix>
</trkpt>
<trkpt lat="-35.3628996" lon="149.1622662">
  <ele>619.87</ele>
  <time>2026-08-28T19:09:52Z</time>
  <course>160.43</course>
  <speed>13.014933730142463</speed>
  <fix>3d</fix>
</trkpt>
<trkpt lat="-35.362885" lon="149.1622607">
  <ele>619.85</ele>
  <time>2026-08-28T19:09:52Z</time>
  <course>162.45</course>
  <speed>13.02</speed>
  <fix>3d</fix>
</trkpt>
<trkpt lat="-35.362922" lon="149.1622748">
  <ele>619.84</ele>
  <time>2026-08-28T19:09:52Z</time>
  <course>160.5</course>
  <speed>13.053110740356107</speed>
  <fix>3d</fix>
</trkpt>
<trkpt lat="-35.3629074" lon="149.1622694">
  <ele>619.82</ele>
  <time>2026-08-28T19:09:52Z</time>
  <course>162.45</course>
  <speed>13.05</speed>
  <fix>3d</fix>
</trkpt>
<trkpt lat="-35.3629445" lon="149.1622835">
  <ele>619.81</ele>
  <time>2026-08-28T19:09:52Z</time>
  <course>160.64</course>
  <speed>13.072203333791897</speed>
  <fix>3d</fix>
</trkpt>
<trkpt lat="-35.3629298" lon="149.1622781">
  <ele>619.78</ele>
  <time>2026-08-28T19:09:52Z</time>
  <course>162.49</course>
  <speed>13.08</speed>
  <fix>3d</fix>
</trkpt>
<trkpt lat="-35.362967" lon="149.1622921">
  <ele>619.78</ele>
  <time>2026-08-28T19:09:52Z</time>
  <course>160.84</course>
  <speed>13.085369692905125</speed>
  <fix>3d</fix>
</trkpt>
<trkpt lat="-35.3629522" lon="149.1622868">
  <ele>619.75</ele>
  <time>2026-08-28T19:09:52Z</time>
  <course>162.56</course>
  <speed>13.1</speed>
  <fix>3d</fix>
</trkpt>
<trkpt lat="-35.3629895" lon="149.1623007">
  <ele>619.74</ele>
  <time>2026-08-28T19:09:53Z</time>
  <course>161.07</course>
  <speed>13.09858389292522</speed>
  <fix>3d</fix>
</trkpt>
<trkpt lat="-35.3629747" lon="149.1622955">
  <ele>619.71</ele>
  <time>2026-08-28T19:09:53Z</time>
  <course>162.65</course>
  <speed>13.11</speed>
  <fix>3d</fix>
</trkpt>
<trkpt lat="-35.363012" lon="149.1623093">
  <ele>619.7</ele>
  <time>2026-08-28T19:09:53Z</time>
  <course>161.32</course>
  <speed>13.099362579912047</speed>
  <fix>3d</fix>
</trkpt>
<trkpt lat="-35.3629972" lon="149.162304">
  <ele>619.68</ele>
  <time>2026-08-28T19:09:53Z</time>
  <course>162.78</course>
  <speed>13.12</speed>
  <fix>3d</fix>
</trkpt>
<trkpt lat="-35.3630346" lon="149.1623178">
  <ele>619.66</ele>
  <time>2026-08-28T19:09:53Z</time>
  <course>161.56</course>
  <speed>13.097327971765845</speed>
  <fix>3d</fix>
</trkpt>
<trkpt lat="-35.3630197" lon="149.1623125">
  <ele>619.64</ele>
  <time>2026-08-28T19:09:53Z</time>
  <course>162.93</course>
  <speed>13.12</speed>
  <fix>3d</fix>
</trkpt>
<trkpt lat="-35.3630572" lon="149.1623262">
  <ele>619.62</ele>
  <time>2026-08-28T19:09:53Z</time>
  <course>161.81</course>
  <speed>13.088701234270724</speed>
  <fix>3d</fix>
</trkpt>
<trkpt lat="-35.3630423" lon="149.162321">
  <ele>619.6</ele>
  <time>2026-08-28T19:09:53Z</time>
  <course>163.08</course>
  <speed>13.12</speed>
  <fix>3d</fix>
</trkpt>
<trkpt lat="-35.3630796" lon="149.1623345">
  <ele>619.58</ele>
  <time>2026-08-28T19:09:53Z</time>
  <course>162.04</course>
  <speed>13.089724978012335</speed>
  <fix>3d</fix>
</trkpt>
<trkpt lat="-35.3630648" lon="149.1623293">
  <ele>619.56</ele>
  <time>2026-08-28T19:09:53Z</time>
  <course>163.23</course>
  <speed>13.11</speed>
  <fix>3d</fix>
</trkpt>
<trkpt lat="-35.3631022" lon="149.1623427">
  <ele>619.54</ele>
  <time>2026-08-28T19:09:53Z</time>
  <course>162.26</course>
  <speed>13.07841351234927</speed>
  <fix>3d</fix>
</trkpt>
<trkpt lat="-35.3630874" lon="149.1623376">
  <ele>619.52</ele>
  <time>2026-08-28T19:09:53Z</time>
  <course>163.38</course>
  <speed>13.1</speed>
  <fix>3d</fix>
</trkpt>
<trkpt lat="-35.363125" lon="149.162351">
  <ele>619.49</ele>
  <time>2026-08-28T19:09:53Z</time>
  <course>162.46</course>
  <speed>13.060401984625127</speed>
  <fix>3d</fix>
</trkpt>
<trkpt lat="-35.3631099" lon="149.1623459">
  <ele>619.48</ele>
  <time>2026-08-28T19:09:53Z</time>
  <course>163.52</course>
  <speed>13.09</speed>
  <fix>3d</fix>
</trkpt>
<trkpt lat="-35.3631477" lon="149.1623591">
  <ele>619.44</ele>
  <time>2026-08-28T19:09:53Z</time>
  <course>162.62</course>
  <speed>13.054826693602639</speed>
  <fix>3d</fix>
</trkpt>
<trkpt lat="-35.3631325" lon="149.162354">
  <ele>619.43</ele>
  <time>2026-08-28T19:09:53Z</time>
  <course>163.64</course>
  <speed>13.08</speed>
  <fix>3d</fix>
</trkpt>
<trkpt lat="-35.3631703" lon="149.1623672">
  <ele>619.4</ele>
  <time>2026-08-28T19:09:53Z</time>
  <course>162.79</course>
  <speed>13.039670241229262</speed>
  <fix>3d</fix>
</trkpt>
<trkpt lat="-35.3631551" lon="149.1623621">
  <ele>619.39</ele>
  <time>2026-08-28T19:09:53Z</time>
  <course>163.73</course>
  <speed>13.06</speed>
  <fix>3d</fix>
</trkpt>
<trkpt lat="-35.3631928" lon="149.1623752">
  <ele>619.35</ele>
  <time>2026-08-28T19:09:53Z</time>
  <course>162.95</course>
  <speed>13.0149222049154</speed>
  <fix>3d</fix>
</trkpt>
<trkpt lat="-35.3631776" lon="149.1623702">
  <ele>619.35</ele>
  <time>2026-08-28T19:09:53Z</time>
  <course>163.81</course>
  <speed>13.04</speed>
  <fix>3d</fix>
</trkpt>
<trkpt lat="-35.3632153" lon="149.1623832">
  <ele>619.31</ele>
  <time>2026-08-28T19:09:53Z</time>
  <course>163.05</course>
  <speed>12.992940390843021</speed>
  <fix>3d</fix>
</trkpt>
<trkpt lat="-35.3632001" lon="149.1623781">
  <ele>619.31</ele>
  <time>2026-08-28T19:09:53Z</time>
  <course>163.86</course>
  <speed>13.02</speed>
  <fix>3d</fix>
</trkpt>
<trkpt lat="-35.3632378" lon="149.1623912">
  <ele>619.26</ele>
  <time>2026-08-28T19:09:53Z</time>
  <course>163.12</course>
  <speed>12.970959871960131</speed>
  <fix>3d</fix>
</trkpt>
<trkpt lat="-35.3632226" lon="149.1623861">
  <ele>619.26</ele>
  <time>2026-08-28T19:09:53Z</time>
  <course>163.89</course>
  <speed>13.0</speed>
  <fix>3d</fix>
</trkpt>
<trkpt lat="-35.3632602" lon="149.1623991">
  <ele>619.22</ele>
  <time>2026-08-28T19:09:53Z</time>
  <course>163.13</course>
  <speed>12.948980654862373</speed>
  <fix>3d</fix>
</trkpt>
<trkpt lat="-35.3632449" lon="149.162394">
  <ele>619.22</ele>
  <time>2026-08-28T19:09:53Z</time>
  <course>163.9</course>
  <speed>12.97</speed>
  <fix>3d</fix>
</trkpt>
<trkpt lat="-35.3632825" lon="149.162407">
  <ele>619.18</ele>
  <time>2026-08-28T19:09:53Z</time>
  <course>163.14</course>
  <speed>12.93250942392852</speed>
  <fix>3d</fix>
</trkpt>
<trkpt lat="-35.3632674" lon="149.1624019">
  <ele>619.18</ele>
  <time>2026-08-28T19:09:53Z</time>
  <course>163.89</course>
  <speed>12.95</speed>
  <fix>3d</fix>
</trkpt>
<trkpt lat="-35.3633048" lon="149.1624149">
  <ele>619.13</ele>
  <time>2026-08-28T19:09:53Z</time>
  <course>163.06</course>
  <speed>12.922898281732314</speed>
  <fix>3d</fix>
</trkpt>
<trkpt lat="-35.3632897" lon="149.1624099">
  <ele>619.13</ele>
  <time>2026-08-28T19:09:53Z</time>
  <course>163.86</course>
  <speed>12.94</speed>
  <fix>3d</fix>
</trkpt>
<trkpt lat="-35.3633271" lon="149.1624229">
  <ele>619.09</ele>
  <time>2026-08-28T19:09:53Z</time>
  <course>162.97</course>
  <speed>12.906448000902493</speed>
  <fix>3d</fix>
</trkpt>
<trkpt lat="-35.363312" lon="149.1624178">
  <ele>619.08</ele>
  <time>2026-08-28T19:09:53Z</time>
  <course>163.8</course>
  <speed>12.92</speed>
  <fix>3d</fix>
</trkpt>
<trkpt lat="-35.3633494" lon="149.1624309">
  <ele>619.04</ele>
  <time>2026-08-28T19:09:53Z</time>
  <course>162.87</course>
  <speed>12.902406752230377</speed>
  <fix>3d</fix>
</trkpt>
<trkpt lat="-35.3633343" lon="149.1624258">
  <ele>619.04</ele>
  <time>2026-08-28T19:09:53Z</time>
  <course>163.74</course>
  <speed>12.92</speed>
  <fix>3d</fix>
</trkpt>
<trkpt lat="-35.3633717" lon="149.1624389">
  <ele>619.0</ele>
  <time>2026-08-28T19:09:53Z</time>
  <course>162.75</course>
  <speed>12.89840300192237</speed>
  <fix>3d</fix>
</trkpt>
<trkpt lat="-35.3633566" lon="149.1624337">
  <ele>619.0</ele>
  <time>2026-08-28T19:09:53Z</time>
  <course>163.66</course>
  <speed>12.91</speed>
  <fix>3d</fix>
</trkpt>
<trkpt lat="-35.363394" lon="149.162447">
  <ele>618.95</ele>
  <time>2026-08-28T19:09:53Z</time>
  <course>162.63</course>
  <speed>12.90403037814155</speed>
  <fix>3d</fix>
</trkpt>
<trkpt lat="-35.3633789" lon="149.1624418">
  <ele>618.95</ele>
  <time>2026-08-28T19:09:53Z</time>
  <course>163.57</course>
  <speed>12.91</speed>
  <fix>3d</fix>
</trkpt>
<trkpt lat="-35.3634162" lon="149.1624551">
  <ele>618.9</ele>
  <time>2026-08-28T19:09:53Z</time>
  <course>162.53</course>
  <speed>12.900096898860877</speed>
  <fix>3d</fix>
</trkpt>
<trkpt lat="-35.3634012" lon="149.1624498">
  <ele>618.9</ele>
  <time>2026-08-28T19:09:53Z</time>
  <course>163.47</course>
  <speed>12.91</speed>
  <fix>3d</fix>
</trkpt>
<trkpt lat="-35.3634384" lon="149.1624632">
  <ele>618.85</ele>
  <time>2026-08-28T19:09:53Z</time>
  <course>162.39</course>
  <speed>12.905785524329776</speed>
  <fix>3d</fix>
</trkpt>
<trkpt lat="-35.3634234" lon="149.162458">
  <ele>618.86</ele>
  <time>2026-08-28T19:09:53Z</time>
  <course>163.39</course>
  <speed>12.92</speed>
  <fix>3d</fix>
</trkpt>
<trkpt lat="-35.3634605" lon="149.1624713">
  <ele>618.81</ele>
  <time>2026-08-28T19:09:53Z</time>
  <course>162.26</course>
  <speed>12.918223562084687</speed>
  <fix>3d</fix>
</trkpt>
<trkpt lat="-35.3634456" lon="149.1624661">
  <ele>618.82</ele>
  <time>2026-08-28T19:09:53Z</time>
  <course>163.31</course>
  <speed>12.93</speed>
  <fix>3d</fix>
</trkpt>
<trkpt lat="-35.3634828" lon="149.1624795">
  <ele>618.77</ele>
  <time>2026-08-28T19:09:53Z</time>
  <course>162.12</course>
  <speed>12.923950634384209</speed>
  <fix>3d</fix>
</trkpt>
<trkpt lat="-35.3634679" lon="149.1624743">
  <ele>618.77</ele>
  <time>2026-08-28T19:09:53Z</time>
  <course>163.23</course>
  <speed>12.94</speed>
  <fix>3d</fix>
</trkpt>
<trkpt lat="-35.363505" lon="149.1624878">
  <ele>618.73</ele>
  <time>2026-08-28T19:09:53Z</time>
  <course>162.03</course>
  <speed>12.93928127834</speed>
  <fix>3d</fix>
</trkpt>
<trkpt lat="-35.3634902" lon="149.1624825">
  <ele>618.73</ele>
  <time>2026-08-28T19:09:53Z</time>
  <course>163.16</course>
  <speed>12.96</speed>
  <fix>3d</fix>
</trkpt>
<trkpt lat="-35.3635272" lon="149.1624961">
  <ele>618.69</ele>
  <time>2026-08-28T19:09:53Z</time>
  <course>161.98</course>
  <speed>12.95174119568485</speed>
  <fix>3d</fix>
</trkpt>
<trkpt lat="-35.3635124" lon="149.1624908">
  <ele>618.69</ele>
  <time>2026-08-28T19:09:53Z</time>
  <course>163.1</course>
  <speed>12.97</speed>
  <fix>3d</fix>
</trkpt>
<trkpt lat="-35.3635495" lon="149.1625044">
  <ele>618.65</ele>
  <time>2026-08-28T19:09:53Z</time>
  <course>161.94</course>
  <speed>12.964204564877862</speed>
  <fix>3d</fix>
</trkpt>
<trkpt lat="-35.3635347" lon="149.1624992">
  <ele>618.65</ele>
  <time>2026-08-28T19:09:53Z</time>
  <course>163.05</course>
  <speed>12.99</speed>
  <fix>3d</fix>
</trkpt>
<trkpt lat="-35.3635719" lon="149.1625128">
  <ele>618.61</ele>
  <time>2026-08-28T19:09:53Z</time>
  <course>161.94</course>
  <speed>12.976671375973117</speed>
  <fix>3d</fix>
</trkpt>
<trkpt lat="-35.363557" lon="149.1625075">
  <ele>618.61</ele>
  <time>2026-08-28T19:09:53Z</time>
  <course>163.03</course>
  <speed>13.0</speed>
  <fix>3d</fix>
</trkpt>
<trkpt lat="-35.3635943" lon="149.1625212">
  <ele>618.57</ele>
  <time>2026-08-28T19:09:53Z</time>
  <course>161.93</course>
  <speed>12.995814710898273</speed>
  <fix>3d</fix>
</trkpt>
<trkpt lat="-35.3635794" lon="149.1625159">
  <ele>618.56</ele>
  <time>2026-08-28T19:09:53Z</time>
  <course>163.02</course>
  <speed>13.01</speed>
  <fix>3d</fix>
</trkpt>
<trkpt lat="-35.3636168" lon="149.1625296">
  <ele>618.53</ele>
  <time>2026-08-28T19:09:53Z</time>
  <course>161.95</course>
  <speed>13.005387345250428</speed>
  <fix>3d</fix>
</trkpt>
<trkpt lat="-35.3636018" lon="149.1625242">
  <ele>618.52</ele>
  <time>2026-08-28T19:09:53Z</time>
  <course>163.02</course>
  <speed>13.02</speed>
  <fix>3d</fix>
</trkpt>
<trkpt lat="-35.3636393" lon="149.162538">
  <ele>618.49</ele>
  <time>2026-08-28T19:09:53Z</time>
  <course>162.04</course>
  <speed>13.014960622299247</speed>
  <fix>3d</fix>
</trkpt>
<trkpt lat="-35.3636242" lon="149.1625326">
  <ele>618.48</ele>
  <time>2026-08-28T19:09:53Z</time>
  <course>163.04</course>
  <speed>13.03</speed>
  <fix>3d</fix>
</trkpt>
<trkpt lat="-35.3636617" lon="149.1625463">
  <ele>618.45</ele>
  <time>2026-08-28T19:09:53Z</time>
  <course>162.12</course>
  <speed>13.02165120098062</speed>
  <fix>3d</fix>
</trkpt>
<trkpt lat="-35.3636467" lon="149.1625411">
  <ele>618.44</ele>
  <time>2026-08-28T19:09:53Z</time>
  <course>163.07</course>
  <speed>13.04</speed>
  <fix>3d</fix>
</trkpt>
<trkpt lat="-35.3636842" lon="149.1625547">
  <ele>618.41</ele>
  <time>2026-08-28T19:09:53Z</time>
  <course>162.25</course>
  <speed>13.00919674691716</speed>
  <fix>3d</fix>
</trkpt>
<trkpt lat="-35.363669" lon="149.1625494">
  <ele>618.4</ele>
  <time>2026-08-28T19:09:53Z</time>
  <course>163.11</course>
  <speed>13.04</speed>
  <fix>3d</fix>
</trkpt>
<trkpt lat="-35.3637066" lon="149.162563">
  <ele>618.37</ele>
  <time>2026-08-28T19:09:53Z</time>
  <course>162.38</course>
  <speed>13.006325384212097</speed>
  <fix>3d</fix>
</trkpt>
<trkpt lat="-35.3636915" lon="149.1625577">
  <ele>618.36</ele>
  <time>2026-08-28T19:09:53Z</time>
  <course>163.17</course>
  <speed>13.03</speed>
  <fix>3d</fix>
</trkpt>
<trkpt lat="-35.363729" lon="149.1625713">
  <ele>618.33</ele>
  <time>2026-08-28T19:09:53Z</time>
  <course>162.51</course>
  <speed>13.00060383213026</speed>
  <fix>3d</fix>
</trkpt>
<trkpt lat="-35.363714" lon="149.162566">
  <ele>618.32</ele>
  <time>2026-08-28T19:09:53Z</time>
  <course>163.23</course>
  <speed>13.03</speed>
  <fix>3d</fix>
</trkpt>
<trkpt lat="-35.3637514" lon="149.1625795">
  <ele>618.29</ele>
  <time>2026-08-28T19:09:53Z</time>
  <course>162.59</course>
  <speed>12.994910542208437</speed>
  <fix>3d</fix>
</trkpt>
<trkpt lat="-35.3637363" lon="149.1625743">
  <ele>618.28</ele>
  <time>2026-08-28T19:09:53Z</time>
  <course>163.3</course>
  <speed>13.02</speed>
  <fix>3d</fix>
</trkpt>
<trkpt lat="-35.3637737" lon="149.1625877">
  <ele>618.25</ele>
  <time>2026-08-28T19:09:53Z</time>
  <course>162.66</course>
  <speed>12.992074507175518</speed>
  <fix>3d</fix>
</trkpt>
<trkpt lat="-35.3637588" lon="149.1625824">
  <ele>618.23</ele>
  <time>2026-08-28T19:09:53Z</time>
  <course>163.36</course>
  <speed>13.02</speed>
  <fix>3d</fix>
</trkpt>
<trkpt lat="-35.3637961" lon="149.1625958">
  <ele>618.21</ele>
  <time>2026-08-28T19:09:53Z</time>
  <course>162.71</course>
  <speed>12.989245551609224</speed>
  <fix>3d</fix>
</trkpt>
<trkpt lat="-35.3637812" lon="149.1625907">
  <ele>618.18</ele>
  <time>2026-08-28T19:09:53Z</time>
  <course>163.42</course>
  <speed>13.01</speed>
  <fix>3d</fix>
</trkpt>
<trkpt lat="-35.3638187" lon="149.1626041">
  <ele>618.16</ele>
  <time>2026-08-28T19:09:53Z</time>
  <course>162.76</course>
  <speed>12.986423680136113</speed>
  <fix>3d</fix>
</trkpt>
<trkpt lat="-35.3638036" lon="149.1625988">
  <ele>618.13</ele>
  <time>2026-08-28T19:09:53Z</time>
  <course>163.47</course>
  <speed>13.01</speed>
  <fix>3d</fix>
</trkpt>
<trkpt lat="-35.3638411" lon="149.1626122">
  <ele>618.11</ele>
  <time>2026-08-28T19:09:53Z</time>
  <course>162.8</course>
  <speed>12.986423680136113</speed>
  <fix>3d</fix>
</trkpt>
<trkpt lat="-35.363826" lon="149.162607">
  <ele>618.08</ele>
  <time>2026-08-28T19:09:53Z</time>
  <course>163.5</course>
  <speed>13.01</speed>
  <fix>3d</fix>
</trkpt>
<trkpt lat="-35.3638636" lon="149.1626203">
  <ele>618.07</ele>
  <time>2026-08-28T19:09:53Z</time>
  <course>162.86</course>
  <speed>12.983608897375182</speed>
  <fix>3d</fix>
</trkpt>
<trkpt lat="-35.3638484" lon="149.1626152">
  <ele>618.04</ele>
  <time>2026-08-28T19:09:53Z</time>
  <course>163.53</course>
  <speed>13.01</speed>
  <fix>3d</fix>
</trkpt>
<trkpt lat="-35.3638859" lon="149.1626284">
  <ele>618.02</ele>
  <time>2026-08-28T19:09:53Z</time>
  <course>162.89</course>
  <speed>12.974012486505476</speed>
  <fix>3d</fix>
</trkpt>
<trkpt lat="-35.3638708" lon="149.1626233">
  <ele>617.99</ele>
  <time>2026-08-28T19:09:53Z</time>
  <course>163.54</course>
  <speed>13.0</speed>
  <fix>3d</fix>
</trkpt>
<trkpt lat="-35.3639082" lon="149.1626365">
  <ele>617.97</ele>
  <time>2026-08-28T19:09:53Z</time>
  <course>162.9</course>
  <speed>12.974012486505476</speed>
  <fix>3d</fix>
</trkpt>
<trkpt lat="-35.3638933" lon="149.1626314">
  <ele>617.94</ele>
  <time>2026-08-28T19:09:53Z</time>
  <course>163.55</course>
  <speed>13.0</speed>
  <fix>3d</fix>
</trkpt>
<trkpt lat="-35.3639305" lon="149.1626446">
  <ele>617.93</ele>
  <time>2026-08-28T19:09:53Z</time>
  <course>162.9</course>
  <speed>12.96441668568239</speed>
  <fix>3d</fix>
</trkpt>
<trkpt lat="-35.3639156" lon="149.1626395">
  <ele>617.9</ele>
  <time>2026-08-28T19:09:53Z</time>
  <course>163.56</course>
  <speed>13.0</speed>
  <fix>3d</fix>
</trkpt>
<trkpt lat="-35.3639528" lon="149.1626527">
  <ele>617.88</ele>
  <time>2026-08-28T19:09:53Z</time>
  <course>162.86</course>
  <speed>12.96441668568239</speed>
  <fix>3d</fix>
</trkpt>
<trkpt lat="-35.3639381" lon="149.1626476">
  <ele>617.85</ele>
  <time>2026-08-28T19:09:53Z</time>
  <course>163.55</course>
  <speed>13.0</speed>
  <fix>3d</fix>
</trkpt>
<trkpt lat="-35.3639752" lon="149.1626608">
  <ele>617.84</ele>
  <time>2026-08-28T19:09:53Z</time>
  <course>162.84</course>
  <speed>12.96441668568239</speed>
  <fix>3d</fix>
</trkpt>
<trkpt lat="-35.3639605" lon="149.1626557">
  <ele>617.81</ele>
  <time>2026-08-28T19:09:53Z</time>
  <course>163.54</course>
  <speed>13.0</speed>
  <fix>3d</fix>
</trkpt>
<trkpt lat="-35.3639974" lon="149.1626688">
  <ele>617.8</ele>
  <time>2026-08-28T19:09:53Z</time>
  <course>162.8</course>
  <speed>12.967235634475067</speed>
  <fix>3d</fix>
</trkpt>
<trkpt lat="-35.3639828" lon="149.1626638">
  <ele>617.76</ele>
  <time>2026-08-28T19:09:53Z</time>
  <course>163.52</course>
  <speed>13.0</speed>
  <fix>3d</fix>
</trkpt>
<trkpt lat="-35.3640198" lon="149.162677">
  <ele>617.75</ele>
  <time>2026-08-28T19:09:53Z</time>
  <course>162.76</course>
  <speed>12.979653308158891</speed>
  <fix>3d</fix>
</trkpt>
<trkpt lat="-35.3640053" lon="149.1626719">
  <ele>617.72</ele>
  <time>2026-08-28T19:09:53Z</time>
  <course>163.49</course>
  <speed>13.0</speed>
  <fix>3d</fix>
</trkpt>
<trkpt lat="-35.3640423" lon="149.1626852">
  <ele>617.71</ele>
  <time>2026-08-28T19:09:53Z</time>
  <course>162.71</course>
  <speed>12.982484353928564</speed>
  <fix>3d</fix>
</trkpt>
<trkpt lat="-35.3640276" lon="149.1626801">
  <ele>617.67</ele>
  <time>2026-08-28T19:09:53Z</time>
  <course>163.46</course>
  <speed>13.01</speed>
  <fix>3d</fix>
</trkpt>
<trkpt lat="-35.3640648" lon="149.1626934">
  <ele>617.67</ele>
  <time>2026-08-28T19:09:53Z</time>
  <course>162.68</course>
  <speed>12.982484353928564</speed>
  <fix>3d</fix>
</trkpt>
<trkpt lat="-35.3640501" lon="149.1626883">
  <ele>617.63</ele>
  <time>2026-08-28T19:09:53Z</time>
  <course>163.43</course>
  <speed>13.01</speed>
  <fix>3d</fix>
</trkpt>
<trkpt lat="-35.3640872" lon="149.1627016">
  <ele>617.63</ele>
  <time>2026-08-28T19:09:53Z</time>
  <course>162.68</course>
  <speed>12.98532248348111</speed>
  <fix>3d</fix>
</trkpt>
<trkpt lat="-35.3640725" lon="149.1626964">
  <ele>617.58</ele>
  <time>2026-08-28T19:09:53Z</time>
  <course>163.4</course>
  <speed>13.02</speed>
  <fix>3d</fix>
</trkpt>
<trkpt lat="-35.3641097" lon="149.1627098">
  <ele>617.59</ele>
  <time>2026-08-28T19:09:53Z</time>
  <course>162.72</course>
  <speed>12.988167692172748</speed>
  <fix>3d</fix>
</trkpt>
<trkpt lat="-35.364095" lon="149.1627047">
  <ele>617.54</ele>
  <time>2026-08-28T19:09:53Z</time>
  <course>163.37</course>
  <speed>13.02</speed>
  <fix>3d</fix>
</trkpt>
<trkpt lat="-35.3641321" lon="149.162718">
  <ele>617.55</ele>
  <time>2026-08-28T19:09:53Z</time>
  <course>162.76</course>
  <speed>12.978582357098944</speed>
  <fix>3d</fix>
</trkpt>
<trkpt lat="-35.3641174" lon="149.1627128">
  <ele>617.5</ele>
  <time>2026-08-28T19:09:53Z</time>
  <course>163.34</course>
  <speed>13.01</speed>
  <fix>3d</fix>
</trkpt>
<trkpt lat="-35.3641545" lon="149.1627262">
  <ele>617.51</ele>
  <time>2026-08-28T19:09:53Z</time>
  <course>162.77</course>
  <speed>12.978582357098944</speed>
  <fix>3d</fix>
</trkpt>
<trkpt lat="-35.3641398" lon="149.1627211">
  <ele>617.45</ele>
  <time>2026-08-28T19:09:53Z</time>
  <course>163.33</course>
  <speed>13.01</speed>
  <fix>3d</fix>
</trkpt>
<trkpt lat="-35.3641768" lon="149.1627345">
  <ele>617.47</ele>
  <time>2026-08-28T19:09:53Z</time>
  <course>162.8</course>
  <speed>12.968997648237893</speed>
  <fix>3d</fix>
</trkpt>
<trkpt lat="-35.3641621" lon="149.1627294">
  <ele>617.41</ele>
  <time>2026-08-28T19:09:53Z</time>
  <course>163.32</course>
  <speed>13.0</speed>
  <fix>3d</fix>
</trkpt>
<trkpt lat="-35.3641992" lon="149.1627427">
  <ele>617.42</ele>
  <time>2026-08-28T19:09:53Z</time>
  <course>162.79</course>
  <speed>12.968997648237893</speed>
  <fix>3d</fix>
</trkpt>
<trkpt lat="-35.3641846" lon="149.1627376">
  <ele>617.37</ele>
  <time>2026-08-28T19:09:53Z</time>
  <course>163.32</course>
  <speed>12.99</speed>
  <fix>3d</fix>
</trkpt>
<trkpt lat="-35.3642215" lon="149.1627509">
  <ele>617.37</ele>
  <time>2026-08-28T19:09:53Z</time>
  <course>162.77</course>
  <speed>12.959413566979023</speed>
  <fix>3d</fix>
</trkpt>
<trkpt lat="-35.3642069" lon="149.1627457">
  <ele>617.32</ele>
  <time>2026-08-28T19:09:53Z</time>
  <course>163.32</course>
  <speed>12.99</speed>
  <fix>3d</fix>
</trkpt>
<trkpt lat="-35.3642438" lon="149.1627591">
  <ele>617.32</ele>
  <time>2026-08-28T19:09:53Z</time>
  <course>162.75</course>
  <speed>12.959413566979023</speed>
  <fix>3d</fix>
</trkpt>
<trkpt lat="-35.3642292" lon="149.162754">
  <ele>617.27</ele>
  <time>2026-08-28T19:09:53Z</time>
  <course>163.32</course>
  <speed>12.98</speed>
  <fix>3d</fix>
</trkpt>
<trkpt lat="-35.3642661" lon="149.1627673">
  <ele>617.27</ele>
  <time>2026-08-28T19:09:53Z</time>
  <course>162.73</course>
  <speed>12.959413566979023</speed>
  <fix>3d</fix>
</trkpt>
<trkpt lat="-35.3642516" lon="149.1627621">
  <ele>617.22</ele>
  <time>2026-08-28T19:09:53Z</time>
  <course>163.31</course>
  <speed>12.98</speed>
  <fix>3d</fix>
</trkpt>
<trkpt lat="-35.3642887" lon="149.1627756">
  <ele>617.22</ele>
  <time>2026-08-28T19:09:53Z</time>
  <course>162.71</course>
  <speed>12.959413566979023</speed>
  <fix>3d</fix>
</trkpt>
<trkpt lat="-35.3642739" lon="149.1627704">
  <ele>617.18</ele>
  <time>2026-08-28T19:09:53Z</time>
  <course>163.31</course>
  <speed>12.98</speed>
  <fix>3d</fix>
</trkpt>
<trkpt lat="-35.364311" lon="149.1627838">
  <ele>617.18</ele>
  <time>2026-08-28T19:09:53Z</time>
  <course>162.67</course>
  <speed>12.968997648237893</speed>
  <fix>3d</fix>
</trkpt>
<trkpt lat="-35.3642962" lon="149.1627785">
  <ele>617.13</ele>
  <time>2026-08-28T19:09:53Z</time>
  <course>163.31</course>
  <speed>12.98</speed>
  <fix>3d</fix>
</trkpt>
<trkpt lat="-35.3643334" lon="149.162792">
  <ele>617.14</ele>
  <time>2026-08-28T19:09:53Z</time>
  <course>162.69</course>
  <speed>12.968997648237893</speed>
  <fix>3d</fix>
</trkpt>
<trkpt lat="-35.3643187" lon="149.1627868">
  <ele>617.08</ele>
  <time>2026-08-28T19:09:53Z</time>
  <course>163.31</course>
  <speed>12.98</speed>
  <fix>3d</fix>
</trkpt>
<trkpt lat="-35.3643558" lon="149.1628002">
  <ele>617.09</ele>
  <time>2026-08-28T19:09:53Z</time>
  <course>162.68</course>
  <speed>12.968997648237893</speed>
  <fix>3d</fix>
</trkpt>
<trkpt lat="-35.3643411" lon="149.162795">
  <ele>617.05</ele>
  <time>2026-08-28T19:09:53Z</time>
  <course>163.31</course>
  <speed>12.98</speed>
  <fix>3d</fix>
</trkpt>
<trkpt lat="-35.3643782" lon="149.1628085">
  <ele>617.05</ele>
  <time>2026-08-28T19:09:53Z</time>
  <course>162.67</course>
  <speed>12.968997648237893</speed>
  <fix>3d</fix>
</trkpt>
<trkpt lat="-35.3643634" lon="149.1628033">
  <ele>617.01</ele>
  <time>2026-08-28T19:09:53Z</time>
  <course>163.31</course>
  <speed>12.98</speed>
  <fix>3d</fix>
</trkpt>
<trkpt lat="-35.3644005" lon="149.1628167">
  <ele>617.01</ele>
  <time>2026-08-28T19:09:53Z</time>
  <course>162.75</course>
  <speed>12.959413566979023</speed>
  <fix>3d</fix>
</trkpt>
<trkpt lat="-35.3643857" lon="149.1628114">
  <ele>616.97</ele>
  <time>2026-08-28T19:09:53Z</time>
  <course>163.31</course>
  <speed>12.98</speed>
  <fix>3d</fix>
</trkpt>
<trkpt lat="-35.3644228" lon="149.1628248">
  <ele>616.97</ele>
  <time>2026-08-28T19:09:53Z</time>
  <course>162.79</course>
  <speed>12.946976481016716</speed>
  <fix>3d</fix>
</trkpt>
<trkpt lat="-35.3644081" lon="149.1628197">
  <ele>616.93</ele>
  <time>2026-08-28T19:09:53Z</time>
  <course>163.31</course>
  <speed>12.97</speed>
  <fix>3d</fix>
</trkpt>
<trkpt lat="-35.364445" lon="149.162833">
  <ele>616.92</ele>
  <time>2026-08-28T19:09:53Z</time>
  <course>162.8</course>
  <speed>12.946976481016716</speed>
  <fix>3d</fix>
</trkpt>
<trkpt lat="-35.3644304" lon="149.1628278">
  <ele>616.89</ele>
  <time>2026-08-28T19:09:53Z</time>
  <course>163.32</course>
  <speed>12.97</speed>
  <fix>3d</fix>
</trkpt>
<trkpt lat="-35.3644672" lon="149.1628411">
  <ele>616.88</ele>
  <time>2026-08-28T19:09:53Z</time>
  <course>162.75</course>
  <speed>12.946976481016716</speed>
  <fix>3d</fix>
</trkpt>
<trkpt lat="-35.3644527" lon="149.1628361">
  <ele>616.85</ele>
  <time>2026-08-28T19:09:53Z</time>
  <course>163.34</course>
  <speed>12.97</speed>
  <fix>3d</fix>
</trkpt>
<trkpt lat="-35.3644895" lon="149.1628493">
  <ele>616.84</ele>
  <time>2026-08-28T19:09:53Z</time>
  <course>162.72</course>
  <speed>12.956562043999172</speed>
  <fix>3d</fix>
</trkpt>
<trkpt lat="-35.364475" lon="149.1628443">
  <ele>616.81</ele>
  <time>2026-08-28T19:09:53Z</time>
  <course>163.35</course>
  <speed>12.97</speed>
  <fix>3d</fix>
</trkpt>
<trkpt lat="-35.3645119" lon="149.1628575">
  <ele>616.79</ele>
  <time>2026-08-28T19:09:53Z</time>
  <course>162.65</course>
  <speed>12.966148232995025</speed>
  <fix>3d</fix>
</trkpt>
<trkpt lat="-35.3644974" lon="149.1628524">
  <ele>616.76</ele>
  <time>2026-08-28T19:09:53Z</time>
  <course>163.35</course>
  <speed>12.98</speed>
  <fix>3d</fix>
</trkpt>
<trkpt lat="-35.3645343" lon="149.1628657">
  <ele>616.75</ele>
  <time>2026-08-28T19:09:53Z</time>
  <course>162.63</course>
  <speed>12.978582357098944</speed>
  <fix>3d</fix>
</trkpt>
<trkpt lat="-35.3645197" lon="149.1628607">
  <ele>616.72</ele>
  <time>2026-08-28T19:09:53Z</time>
  <course>163.35</course>
  <speed>13.0</speed>
  <fix>3d</fix>
</trkpt>
<trkpt lat="-35.3645567" lon="149.162874">
  <ele>616.71</ele>
  <time>2026-08-28T19:09:53Z</time>
  <course>162.6</course>
  <speed>12.988167692172748</speed>
  <fix>3d</fix>
</trkpt>
<trkpt lat="-35.3645421" lon="149.1628688">
  <ele>616.68</ele>
  <time>2026-08-28T19:09:53Z</time>
  <course>163.34</course>
  <speed>13.01</speed>
  <fix>3d</fix>
</trkpt>
<trkpt lat="-35.3645791" lon="149.1628822">
  <ele>616.67</ele>
  <time>2026-08-28T19:09:53Z</time>
  <course>162.66</course>
  <speed>12.997753652073884</speed>
  <fix>3d</fix>
</trkpt>
<trkpt lat="-35.3645645" lon="149.1628771">
  <ele>616.64</ele>
  <time>2026-08-28T19:09:53Z</time>
  <course>163.34</course>
  <speed>13.02</speed>
  <fix>3d</fix>
</trkpt>
<trkpt lat="-35.3646015" lon="149.1628904">
  <ele>616.63</ele>
  <time>2026-08-28T19:09:53Z</time>
  <course>162.73</course>
  <speed>12.997753652073884</speed>
  <fix>3d</fix>
</trkpt>
<trkpt lat="-35.364587" lon="149.1628854">
  <ele>616.6</ele>
  <time>2026-08-28T19:09:53Z</time>
  <course>163.34</course>
  <speed>13.02</speed>
  <fix>3d</fix>
</trkpt>
<trkpt lat="-35.3646239" lon="149.1628986">
  <ele>616.6</ele>
  <time>2026-08-28T19:09:53Z</time>
  <course>162.78</course>
  <speed>12.997753652073884</speed>
  <fix>3d</fix>
</trkpt>
<trkpt lat="-35.3646094" lon="149.1628936">
  <ele>616.56</ele>
  <time>2026-08-28T19:09:53Z</time>
  <course>163.34</course>
  <speed>13.02</speed>
  <fix>3d</fix>
</trkpt>
<trkpt lat="-35.3646463" lon="149.1629068">
  <ele>616.55</ele>
  <time>2026-08-28T19:09:53Z</time>
  <course>162.81</course>
  <speed>12.997753652073884</speed>
  <fix>3d</fix>
</trkpt>
<trkpt lat="-35.3646318" lon="149.1629017">
  <ele>616.52</ele>
  <time>2026-08-28T19:09:53Z</time>
  <course>163.36</course>
  <speed>13.02</speed>
  <fix>3d</fix>
</trkpt>
<trkpt lat="-35.3646687" lon="149.162915">
  <ele>616.52</ele>
  <time>2026-08-28T19:09:53Z</time>
  <course>162.83</course>
  <speed>12.994910542208437</speed>
  <fix>3d</fix>
</trkpt>
<trkpt lat="-35.3646543" lon="149.16291">
  <ele>616.48</ele>
  <time>2026-08-28T19:09:53Z</time>
  <course>163.37</course>
  <speed>13.02</speed>
  <fix>3d</fix>
</trkpt>
<trkpt lat="-35.364691" lon="149.1629232">
  <ele>616.47</ele>
  <time>2026-08-28T19:09:53Z</time>
  <course>162.87</course>
  <speed>12.994910542208437</speed>
  <fix>3d</fix>
</trkpt>
<trkpt lat="-35.3646767" lon="149.1629181">
  <ele>616.43</ele>
  <time>2026-08-28T19:09:53Z</time>
  <course>163.39</course>
  <speed>13.02</speed>
  <fix>3d</fix>
</trkpt>
<trkpt lat="-35.3647134" lon="149.1629314">
  <ele>616.43</ele>
  <time>2026-08-28T19:09:53Z</time>
  <course>162.91</course>
  <speed>12.994910542208437</speed>
  <fix>3d</fix>
</trkpt>
<trkpt lat="-35.364699" lon="149.1629264">
  <ele>616.39</ele>
  <time>2026-08-28T19:09:53Z</time>
  <course>163.4</course>
  <speed>13.02</speed>
  <fix>3d</fix>
</trkpt>
<trkpt lat="-35.3647358" lon="149.1629396">
  <ele>616.38</ele>
  <time>2026-08-28T19:09:53Z</time>
  <course>162.91</course>
  <speed>12.992074507175518</speed>
  <fix>3d</fix>
</trkpt>
<trkpt lat="-35.3647215" lon="149.1629345">
  <ele>616.35</ele>
  <time>2026-08-28T19:09:53Z</time>
  <course>163.41</course>
  <speed>13.02</speed>
  <fix>3d</fix>
</trkpt>
<trkpt lat="-35.3647585" lon="149.1629478">
  <ele>616.34</ele>
  <time>2026-08-28T19:09:53Z</time>
  <course>162.9</course>
  <speed>12.992074507175518</speed>
  <fix>3d</fix>
</trkpt>
<trkpt lat="-35.3647438" lon="149.1629428">
  <ele>616.3</ele>
  <time>2026-08-28T19:09:53Z</time>
  <course>163.42</course>
  <speed>13.02</speed>
  <fix>3d</fix>
</trkpt>
<trkpt lat="-35.364781" lon="149.1629561">
  <ele>616.3</ele>
  <time>2026-08-28T19:09:53Z</time>
  <course>162.94</course>
  <speed>12.994910542208437</speed>
  <fix>3d</fix>
</trkpt>
<trkpt lat="-35.3647663" lon="149.162951">
  <ele>616.26</ele>
  <time>2026-08-28T19:09:53Z</time>
  <course>163.42</course>
  <speed>13.01</speed>
  <fix>3d</fix>
</trkpt>
<trkpt lat="-35.3648035" lon="149.1629643">
  <ele>616.26</ele>
  <time>2026-08-28T19:09:53Z</time>
  <course>162.99</course>
  <speed>12.992074507175518</speed>
  <fix>3d</fix>
</trkpt>
<trkpt lat="-35.3647887" lon="149.1629592">
  <ele>616.21</ele>
  <time>2026-08-28T19:09:53Z</time>
  <course>163.42</course>
  <speed>13.01</speed>
  <fix>3d</fix>
</trkpt>
<trkpt lat="-35.364826" lon="149.1629725">
  <ele>616.21</ele>
  <time>2026-08-28T19:09:53Z</time>
  <course>163.04</course>
  <speed>12.982484353928564</speed>
  <fix>3d</fix>
</trkpt>
<trkpt lat="-35.3648112" lon="149.1629673">
  <ele>616.17</ele>
  <time>2026-08-28T19:09:53Z</time>
  <course>163.42</course>
  <speed>13.0</speed>
  <fix>3d</fix>
</trkpt>
<trkpt lat="-35.3648484" lon="149.1629807">
  <ele>616.17</ele>
  <time>2026-08-28T19:09:53Z</time>
  <course>163.1</course>
  <speed>12.97289481958441</speed>
  <fix>3d</fix>
</trkpt>
<trkpt lat="-35.3648336" lon="149.1629755">
  <ele>616.13</ele>
  <time>2026-08-28T19:09:53Z</time>
  <course>163.43</course>
  <speed>12.99</speed>
  <fix>3d</fix>
</trkpt>
<trkpt lat="-35.3648708" lon="149.1629888">
  <ele>616.12</ele>
  <time>2026-08-28T19:09:53Z</time>
  <course>163.15</course>
  <speed>12.960470670465636</speed>
  <fix>3d</fix>
</trkpt>
<trkpt lat="-35.3648559" lon="149.1629836">
  <ele>616.08</ele>
  <time>2026-08-28T19:09:53Z</time>
  <course>163.43</course>
  <speed>12.97</speed>
  <fix>3d</fix>
</trkpt>
<trkpt lat="-35.3648932" lon="149.162997">
  <ele>616.08</ele>
  <time>2026-08-28T19:09:53Z</time>
  <course>163.16</course>
  <speed>12.941290507518948</speed>
  <fix>3d</fix>
</trkpt>
<trkpt lat="-35.3648783" lon="149.1629917">
  <ele>616.05</ele>
  <time>2026-08-28T19:09:53Z</time>
  <course>163.44</course>
  <speed>12.96</speed>
  <fix>3d</fix>
</trkpt>
<trkpt lat="-35.3649155" lon="149.1630051">
  <ele>616.03</ele>
  <time>2026-08-28T19:09:53Z</time>
  <course>163.14</course>
  <speed>12.938458177078132</speed>
  <fix>3d</fix>
</trkpt>
<trkpt lat="-35.3649006" lon="149.1629999">
  <ele>616.0</ele>
  <time>2026-08-28T19:09:53Z</time>
  <course>163.45</course>
  <speed>12.95</speed>
  <fix>3d</fix>
</trkpt>
<trkpt lat="-35.3649378" lon="149.1630132">
  <ele>615.99</ele>
  <time>2026-08-28T19:09:53Z</time>
  <course>163.1</course>
  <speed>12.928866926378351</speed>
  <fix>3d</fix>
</trkpt>
<trkpt lat="-35.3649228" lon="149.163008">
  <ele>615.95</ele>
  <time>2026-08-28T19:09:53Z</time>
  <course>163.45</course>
  <speed>12.94</speed>
  <fix>3d</fix>
</trkpt>
<trkpt lat="-35.3649601" lon="149.1630214">
  <ele>615.94</ele>
  <time>2026-08-28T19:09:53Z</time>
  <course>163.04</course>
  <speed>12.93170135751673</speed>
  <fix>3d</fix>
</trkpt>
<trkpt lat="-35.3649451" lon="149.1630161">
  <ele>615.91</ele>
  <time>2026-08-28T19:09:53Z</time>
  <course>163.44</course>
  <speed>12.93</speed>
  <fix>3d</fix>
</trkpt>
<trkpt lat="-35.3649825" lon="149.1630296">
  <ele>615.89</ele>
  <time>2026-08-28T19:09:53Z</time>
  <course>163.0</course>
  <speed>12.93170135751673</speed>
  <fix>3d</fix>
</trkpt>
<trkpt lat="-35.3649674" lon="149.1630243">
  <ele>615.87</ele>
  <time>2026-08-28T19:09:53Z</time>
  <course>163.42</course>
  <speed>12.93</speed>
  <fix>3d</fix>
</trkpt>
<trkpt lat="-35.3650048" lon="149.1630377">
  <ele>615.85</ele>
  <time>2026-08-28T19:09:53Z</time>
  <course>162.95</course>
  <speed>12.934542898765306</speed>
  <fix>3d</fix>
</trkpt>
<trkpt lat="-35.3649896" lon="149.1630324">
  <ele>615.82</ele>
  <time>2026-08-28T19:09:53Z</time>
  <course>163.4</course>
  <speed>12.93</speed>
  <fix>3d</fix>
</trkpt>
<trkpt lat="-35.3650271" lon="149.1630459">
  <ele>615.8</ele>
  <time>2026-08-28T19:09:53Z</time>
  <course>162.92</course>
  <speed>12.924956479617254</speed>
  <fix>3d</fix>
</trkpt>
<trkpt lat="-35.3650119" lon="149.1630405">
  <ele>615.78</ele>
  <time>2026-08-28T19:09:53Z</time>
  <course>163.37</course>
  <speed>12.93</speed>
  <fix>3d</fix>
</trkpt>
<trkpt lat="-35.3650493" lon="149.163054">
  <ele>615.76</ele>
  <time>2026-08-28T19:09:53Z</time>
  <course>162.92</course>
  <speed>12.927807238661938</speed>
  <fix>3d</fix>
</trkpt>
<trkpt lat="-35.3650343" lon="149.1630488">
  <ele>615.74</ele>
  <time>2026-08-28T19:09:53Z</time>
  <course>163.35</course>
  <speed>12.93</speed>
  <fix>3d</fix>
</trkpt>
<trkpt lat="-35.3650715" lon="149.1630622">
  <ele>615.72</ele>
  <time>2026-08-28T19:09:53Z</time>
  <course>162.85</course>
  <speed>12.927807238661938</speed>
  <fix>3d</fix>
</trkpt>
<trkpt lat="-35.3650566" lon="149.1630569">
  <ele>615.69</ele>
  <time>2026-08-28T19:09:53Z</time>
  <course>163.33</course>
  <speed>12.94</speed>
  <fix>3d</fix>
</trkpt>
<trkpt lat="-35.3650937" lon="149.1630703">
  <ele>615.68</ele>
  <time>2026-08-28T19:09:53Z</time>
  <course>162.77</course>
  <speed>12.937391545439134</speed>
  <fix>3d</fix>
</trkpt>
<trkpt lat="-35.3650788" lon="149.163065">
  <ele>615.66</ele>
  <time>2026-08-28T19:09:53Z</time>
  <course>163.31</course>
  <speed>12.95</speed>
  <fix>3d</fix>
</trkpt>
<trkpt lat="-35.3651159" lon="149.1630785">
  <ele>615.64</ele>
  <time>2026-08-28T19:09:53Z</time>
  <course>162.72</course>
  <speed>12.949830114715791</speed>
  <fix>3d</fix>
</trkpt>
<trkpt lat="-35.3651011" lon="149.1630733">
  <ele>615.61</ele>
  <time>2026-08-28T19:09:53Z</time>
  <course>163.3</course>
  <speed>12.96</speed>
  <fix>3d</fix>
</trkpt>
<trkpt lat="-35.3651381" lon="149.1630867">
  <ele>615.6</ele>
  <time>2026-08-28T19:09:53Z</time>
  <course>162.64</course>
  <speed>12.962272177361498</speed>
  <fix>3d</fix>
</trkpt>
<trkpt lat="-35.3651234" lon="149.1630814">
  <ele>615.57</ele>
  <time>2026-08-28T19:09:53Z</time>
  <course>163.28</course>
  <speed>12.97</speed>
  <fix>3d</fix>
</trkpt>
<trkpt lat="-35.3651603" lon="149.1630949">
  <ele>615.55</ele>
  <time>2026-08-28T19:09:53Z</time>
  <course>162.57</course>
  <speed>12.97471772332639</speed>
  <fix>3d</fix>
</trkpt>
<trkpt lat="-35.3651457" lon="149.1630897">
  <ele>615.52</ele>
  <time>2026-08-28T19:09:53Z</time>
  <course>163.26</course>
  <speed>12.99</speed>
  <fix>3d</fix>
</trkpt>
<trkpt lat="-35.3651826" lon="149.1631031">
  <ele>615.51</ele>
  <time>2026-08-28T19:09:53Z</time>
  <course>162.54</course>
  <speed>12.99387932836072</speed>
  <fix>3d</fix>
</trkpt>
<trkpt lat="-35.3651681" lon="149.163098">
  <ele>615.48</ele>
  <time>2026-08-28T19:09:53Z</time>
  <course>163.24</course>
  <speed>13.01</speed>
  <fix>3d</fix>
</trkpt>
<trkpt lat="-35.3652051" lon="149.1631114">
  <ele>615.46</ele>
  <time>2026-08-28T19:09:53Z</time>
  <course>162.5</course>
  <speed>13.006325384212097</speed>
  <fix>3d</fix>
</trkpt>
<trkpt lat="-35.3651905" lon="149.1631062">
  <ele>615.44</ele>
  <time>2026-08-28T19:09:53Z</time>
  <course>163.23</course>
  <speed>13.03</speed>
  <fix>3d</fix>
</trkpt>
<trkpt lat="-35.3652276" lon="149.1631197">
  <ele>615.42</ele>
  <time>2026-08-28T19:09:53Z</time>
  <course>162.51</course>
  <speed>13.025486555211671</speed>
  <fix>3d</fix>
</trkpt>
<trkpt lat="-35.365213" lon="149.1631145">
  <ele>615.39</ele>
  <time>2026-08-28T19:09:53Z</time>
  <course>163.23</course>
  <speed>13.05</speed>
  <fix>3d</fix>
</trkpt>
<trkpt lat="-35.3652501" lon="149.163128">
  <ele>615.39</ele>
  <time>2026-08-28T19:09:53Z</time>
  <course>162.56</course>
  <speed>13.037933118404926</speed>
  <fix>3d</fix>
</trkpt>
<trkpt lat="-35.3652355" lon="149.1631228">
  <ele>615.35</ele>
  <time>2026-08-28T19:09:53Z</time>
  <course>163.23</course>
  <speed>13.06</speed>
  <fix>3d</fix>
</trkpt>
<trkpt lat="-35.3652726" lon="149.1631363">
  <ele>615.35</ele>
  <time>2026-08-28T19:09:53Z</time>
  <course>162.66</course>
  <speed>13.04465024444887</speed>
  <fix>3d</fix>
</trkpt>
<trkpt lat="-35.365258" lon="149.1631311">
  <ele>615.31</ele>
  <time>2026-08-28T19:09:53Z</time>
  <course>163.24</course>
  <speed>13.07</speed>
  <fix>3d</fix>
</trkpt>
<trkpt lat="-35.3652951" lon="149.1631446">
  <ele>615.31</ele>
  <time>2026-08-28T19:09:53Z</time>
  <course>162.74</course>
  <speed>13.04465024444887</speed>
  <fix>3d</fix>
</trkpt>
<trkpt lat="-35.3652804" lon="149.1631394">
  <ele>615.27</ele>
  <time>2026-08-28T19:09:53Z</time>
  <course>163.26</course>
  <speed>13.07</speed>
  <fix>3d</fix>
</trkpt>
<trkpt lat="-35.3653176" lon="149.1631529">
  <ele>615.27</ele>
  <time>2026-08-28T19:09:54Z</time>
  <course>162.85</course>
  <speed>13.041794355072463</speed>
  <fix>3d</fix>
</trkpt>
<trkpt lat="-35.3653029" lon="149.1631477">
  <ele>615.24</ele>
  <time>2026-08-28T19:09:54Z</time>
  <course>163.29</course>
  <speed>13.07</speed>
  <fix>3d</fix>
</trkpt>
<trkpt lat="-35.3653401" lon="149.1631611">
  <ele>615.22</ele>
  <time>2026-08-28T19:09:54Z</time>
  <course>162.96</course>
  <speed>13.029359155384427</speed>
  <fix>3d</fix>
</trkpt>
<trkpt lat="-35.3653254" lon="149.163156">
  <ele>615.19</ele>
  <time>2026-08-28T19:09:54Z</time>
  <course>163.32</course>
  <speed>13.06</speed>
  <fix>3d</fix>
</trkpt>
<trkpt lat="-35.3653626" lon="149.1631694">
  <ele>615.18</ele>
  <time>2026-08-28T19:09:54Z</time>
  <course>163.03</course>
  <speed>13.016927440836412</speed>
  <fix>3d</fix>
</trkpt>
<trkpt lat="-35.3653479" lon="149.1631643">
  <ele>615.16</ele>
  <time>2026-08-28T19:09:54Z</time>
  <course>163.36</course>
  <speed>13.05</speed>
  <fix>3d</fix>
</trkpt>
<trkpt lat="-35.3653851" lon="149.1631776">
  <ele>615.14</ele>
  <time>2026-08-28T19:09:54Z</time>
  <course>163.12</course>
  <speed>13.014088519754274</speed>
  <fix>3d</fix>
</trkpt>
<trkpt lat="-35.3653704" lon="149.1631724">
  <ele>615.12</ele>
  <time>2026-08-28T19:09:54Z</time>
  <course>163.4</course>
  <speed>13.04</speed>
  <fix>3d</fix>
</trkpt>
<trkpt lat="-35.3654075" lon="149.1631858">
  <ele>615.09</ele>
  <time>2026-08-28T19:09:54Z</time>
  <course>163.18</course>
  <speed>13.001665277955745</speed>
  <fix>3d</fix>
</trkpt>
<trkpt lat="-35.3653928" lon="149.1631807">
  <ele>615.07</ele>
  <time>2026-08-28T19:09:54Z</time>
  <course>163.43</course>
  <speed>13.03</speed>
  <fix>3d</fix>
</trkpt>
<trkpt lat="-35.3654299" lon="149.1631939">
  <ele>615.05</ele>
  <time>2026-08-28T19:09:54Z</time>
  <course>163.2</course>
  <speed>12.989245551609224</speed>
  <fix>3d</fix>
</trkpt>
<trkpt lat="-35.3654152" lon="149.1631889">
  <ele>615.03</ele>
  <time>2026-08-28T19:09:54Z</time>
  <course>163.46</course>
  <speed>13.02</speed>
  <fix>3d</fix>
</trkpt>
<trkpt lat="-35.3654526" lon="149.1632022">
  <ele>615.0</ele>
  <time>2026-08-28T19:09:54Z</time>
  <course>163.19</course>
  <speed>12.976829350808309</speed>
  <fix>3d</fix>
</trkpt>
<trkpt lat="-35.3654377" lon="149.163197">
  <ele>614.99</ele>
  <time>2026-08-28T19:09:54Z</time>
  <course>163.49</course>
  <speed>13.01</speed>
  <fix>3d</fix>
</trkpt>
<trkpt lat="-35.365475" lon="149.1632103">
  <ele>614.96</ele>
  <time>2026-08-28T19:09:54Z</time>
  <course>163.21</course>
  <speed>12.967235634475067</speed>
  <fix>3d</fix>
</trkpt>
<trkpt lat="-35.36546" lon="149.1632051">
  <ele>614.94</ele>
  <time>2026-08-28T19:09:54Z</time>
  <course>163.51</course>
  <speed>13.0</speed>
  <fix>3d</fix>
</trkpt>
<trkpt lat="-35.3654974" lon="149.1632184">
  <ele>614.91</ele>
  <time>2026-08-28T19:09:54Z</time>
  <course>163.27</course>
  <speed>12.957642532497955</speed>
  <fix>3d</fix>
</trkpt>
<trkpt lat="-35.3654825" lon="149.1632133">
  <ele>614.9</ele>
  <time>2026-08-28T19:09:54Z</time>
  <course>163.51</course>
  <speed>12.98</speed>
  <fix>3d</fix>
</trkpt>
<trkpt lat="-35.3655198" lon="149.1632266">
  <ele>614.87</ele>
  <time>2026-08-28T19:09:54Z</time>
  <course>163.25</course>
  <speed>12.954821496261536</speed>
  <fix>3d</fix>
</trkpt>
<trkpt lat="-35.3655049" lon="149.1632214">
  <ele>614.86</ele>
  <time>2026-08-28T19:09:54Z</time>
  <course>163.51</course>
  <speed>12.97</speed>
  <fix>3d</fix>
</trkpt>
<trkpt lat="-35.3655422" lon="149.1632347">
  <ele>614.83</ele>
  <time>2026-08-28T19:09:54Z</time>
  <course>163.23</course>
  <speed>12.945226919602453</speed>
  <fix>3d</fix>
</trkpt>
<trkpt lat="-35.3655272" lon="149.1632295">
  <ele>614.82</ele>
  <time>2026-08-28T19:09:54Z</time>
  <course>163.51</course>
  <speed>12.96</speed>
  <fix>3d</fix>
</trkpt>
<trkpt lat="-35.3655645" lon="149.1632428">
  <ele>614.78</ele>
  <time>2026-08-28T19:09:54Z</time>
  <course>163.21</course>
  <speed>12.938458177078132</speed>
  <fix>3d</fix>
</trkpt>
<trkpt lat="-35.3655495" lon="149.1632376">
  <ele>614.78</ele>
  <time>2026-08-28T19:09:54Z</time>
  <course>163.5</course>
  <speed>12.95</speed>
  <fix>3d</fix>
</trkpt>
<trkpt lat="-35.3655868" lon="149.1632509">
  <ele>614.73</ele>
  <time>2026-08-28T19:09:54Z</time>
  <course>163.2</course>
  <speed>12.928866926378351</speed>
  <fix>3d</fix>
</trkpt>
<trkpt lat="-35.3655719" lon="149.1632457">
  <ele>614.74</ele>
  <time>2026-08-28T19:09:54Z</time>
  <course>163.49</course>
  <speed>12.95</speed>
  <fix>3d</fix>
</trkpt>
<trkpt lat="-35.3656092" lon="149.1632591">
  <ele>614.69</ele>
  <time>2026-08-28T19:09:54Z</time>
  <course>163.18</course>
  <speed>12.928866926378351</speed>
  <fix>3d</fix>
</trkpt>
<trkpt lat="-35.3655941" lon="149.1632538">
  <ele>614.69</ele>
  <time>2026-08-28T19:09:54Z</time>
  <course>163.47</course>
  <speed>12.94</speed>
  <fix>3d</fix>
</trkpt>
<trkpt lat="-35.3656314" lon="149.1632672">
  <ele>614.65</ele>
  <time>2026-08-28T19:09:54Z</time>
  <course>163.12</course>
  <speed>12.922112830338545</speed>
  <fix>3d</fix>
</trkpt>
<trkpt lat="-35.3656164" lon="149.1632619">
  <ele>614.65</ele>
  <time>2026-08-28T19:09:54Z</time>
  <course>163.44</course>
  <speed>12.93</speed>
  <fix>3d</fix>
</trkpt>
<trkpt lat="-35.3656537" lon="149.1632753">
  <ele>614.61</ele>
  <time>2026-08-28T19:09:54Z</time>
  <course>163.09</course>
  <speed>12.922112830338545</speed>
  <fix>3d</fix>
</trkpt>
<trkpt lat="-35.3656387" lon="149.16327">
  <ele>614.61</ele>
  <time>2026-08-28T19:09:54Z</time>
  <course>163.42</course>
  <speed>12.93</speed>
  <fix>3d</fix>
</trkpt>
<trkpt lat="-35.365676" lon="149.1632835">
  <ele>614.57</ele>
  <time>2026-08-28T19:09:54Z</time>
  <course>163.04</course>
  <speed>12.915370687672887</speed>
  <fix>3d</fix>
</trkpt>
<trkpt lat="-35.365661" lon="149.1632781">
  <ele>614.57</ele>
  <time>2026-08-28T19:09:54Z</time>
  <course>163.39</course>
  <speed>12.93</speed>
  <fix>3d</fix>
</trkpt>
<trkpt lat="-35.3656983" lon="149.1632916">
  <ele>614.53</ele>
  <time>2026-08-28T19:09:54Z</time>
  <course>163.0</course>
  <speed>12.915370687672887</speed>
  <fix>3d</fix>
</trkpt>
<trkpt lat="-35.3656832" lon="149.1632863">
  <ele>614.53</ele>
  <time>2026-08-28T19:09:54Z</time>
  <course>163.36</course>
  <speed>12.93</speed>
  <fix>3d</fix>
</trkpt>
<trkpt lat="-35.3657206" lon="149.1632998">
  <ele>614.49</ele>
  <time>2026-08-28T19:09:54Z</time>
  <course>162.94</course>
  <speed>12.918223562084687</speed>
  <fix>3d</fix>
</trkpt>
<trkpt lat="-35.3657055" lon="149.1632945">
  <ele>614.48</ele>
  <time>2026-08-28T19:09:54Z</time>
  <course>163.34</course>
  <speed>12.93</speed>
  <fix>3d</fix>
</trkpt>
<trkpt lat="-35.3657428" lon="149.163308">
  <ele>614.45</ele>
  <time>2026-08-28T19:09:54Z</time>
  <course>162.9</course>
  <speed>12.927807238661938</speed>
  <fix>3d</fix>
</trkpt>
<trkpt lat="-35.3657278" lon="149.1633026">
  <ele>614.44</ele>
  <time>2026-08-28T19:09:54Z</time>
  <course>163.31</course>
  <speed>12.94</speed>
  <fix>3d</fix>
</trkpt>
<trkpt lat="-35.365765" lon="149.1633161">
  <ele>614.41</ele>
  <time>2026-08-28T19:09:54Z</time>
  <course>162.84</course>
  <speed>12.940247292845681</speed>
  <fix>3d</fix>
</trkpt>
<trkpt lat="-35.3657501" lon="149.1633109">
  <ele>614.39</ele>
  <time>2026-08-28T19:09:54Z</time>
  <course>163.29</course>
  <speed>12.95</speed>
  <fix>3d</fix>
</trkpt>
<trkpt lat="-35.3657872" lon="149.1633243">
  <ele>614.36</ele>
  <time>2026-08-28T19:09:54Z</time>
  <course>162.74</course>
  <speed>12.95269084013048</speed>
  <fix>3d</fix>
</trkpt>
<trkpt lat="-35.3657724" lon="149.163319">
  <ele>614.34</ele>
  <time>2026-08-28T19:09:54Z</time>
  <course>163.26</course>
  <speed>12.96</speed>
  <fix>3d</fix>
</trkpt>
<trkpt lat="-35.3658095" lon="149.1633326">
  <ele>614.32</ele>
  <time>2026-08-28T19:09:54Z</time>
  <course>162.68</course>
  <speed>12.965137870458609</speed>
  <fix>3d</fix>
</trkpt>
<trkpt lat="-35.3657947" lon="149.1633273">
  <ele>614.3</ele>
  <time>2026-08-28T19:09:54Z</time>
  <course>163.24</course>
  <speed>12.97</speed>
  <fix>3d</fix>
</trkpt>
<trkpt lat="-35.3658318" lon="149.1633408">
  <ele>614.27</ele>
  <time>2026-08-28T19:09:54Z</time>
  <course>162.65</course>
  <speed>12.97471772332639</speed>
  <fix>3d</fix>
</trkpt>
<trkpt lat="-35.365817" lon="149.1633355">
  <ele>614.25</ele>
  <time>2026-08-28T19:09:54Z</time>
  <course>163.23</course>
  <speed>12.99</speed>
  <fix>3d</fix>
</trkpt>
<trkpt lat="-35.3658541" lon="149.163349">
  <ele>614.22</ele>
  <time>2026-08-28T19:09:54Z</time>
  <course>162.64</course>
  <speed>12.987166742596322</speed>
  <fix>3d</fix>
</trkpt>
<trkpt lat="-35.3658394" lon="149.1633438">
  <ele>614.2</ele>
  <time>2026-08-28T19:09:54Z</time>
  <course>163.22</course>
  <speed>13.0</speed>
  <fix>3d</fix>
</trkpt>
<trkpt lat="-35.3658765" lon="149.1633573">
  <ele>614.18</ele>
  <time>2026-08-28T19:09:54Z</time>
  <course>162.65</course>
  <speed>12.99674574653209</speed>
  <fix>3d</fix>
</trkpt>
<trkpt lat="-35.3658618" lon="149.1633521">
  <ele>614.16</ele>
  <time>2026-08-28T19:09:54Z</time>
  <course>163.21</course>
  <speed>13.02</speed>
  <fix>3d</fix>
</trkpt>
<trkpt lat="-35.3658989" lon="149.1633656">
  <ele>614.14</ele>
  <time>2026-08-28T19:09:54Z</time>
  <course>162.66</course>
  <speed>13.006325384212097</speed>
  <fix>3d</fix>
</trkpt>
<trkpt lat="-35.3658841" lon="149.1633604">
  <ele>614.12</ele>
  <time>2026-08-28T19:09:54Z</time>
  <course>163.21</course>
  <speed>13.03</speed>
  <fix>3d</fix>
</trkpt>
<trkpt lat="-35.3659215" lon="149.1633739">
  <ele>614.09</ele>
  <time>2026-08-28T19:09:54Z</time>
  <course>162.69</course>
  <speed>13.015905654237049</speed>
  <fix>3d</fix>
</trkpt>
<trkpt lat="-35.3659066" lon="149.1633687">
  <ele>614.07</ele>
  <time>2026-08-28T19:09:54Z</time>
  <course>163.22</course>
  <speed>13.04</speed>
  <fix>3d</fix>
</trkpt>
<trkpt lat="-35.365944" lon="149.1633822">
  <ele>614.05</ele>
  <time>2026-08-28T19:09:54Z</time>
  <course>162.73</course>
  <speed>13.025486555211671</speed>
  <fix>3d</fix>
</trkpt>
<trkpt lat="-35.365929" lon="149.1633769">
  <ele>614.04</ele>
  <time>2026-08-28T19:09:54Z</time>
  <course>163.24</course>
  <speed>13.05</speed>
  <fix>3d</fix>
</trkpt>
<trkpt lat="-35.3659666" lon="149.1633906">
  <ele>614.01</ele>
  <time>2026-08-28T19:09:54Z</time>
  <course>162.82</course>
  <speed>13.03221009652622</speed>
  <fix>3d</fix>
</trkpt>
<trkpt lat="-35.3659515" lon="149.1633852">
  <ele>614.0</ele>
  <time>2026-08-28T19:09:54Z</time>
  <course>163.26</course>
  <speed>13.05</speed>
  <fix>3d</fix>
</trkpt>
<trkpt lat="-35.3659891" lon="149.1633988">
  <ele>613.98</ele>
  <time>2026-08-28T19:09:54Z</time>
  <course>162.92</course>
  <speed>13.022626463198582</speed>
  <fix>3d</fix>
</trkpt>
<trkpt lat="-35.365974" lon="149.1633936">
  <ele>613.95</ele>
  <time>2026-08-28T19:09:54Z</time>
  <course>163.29</course>
  <speed>13.05</speed>
  <fix>3d</fix>
</trkpt>
<trkpt lat="-35.3660115" lon="149.1634071">
  <ele>613.94</ele>
  <time>2026-08-28T19:09:54Z</time>
  <course>163.02</course>
  <speed>13.007340235420923</speed>
  <fix>3d</fix>
</trkpt>
<trkpt lat="-35.3659964" lon="149.1634018">
  <ele>613.92</ele>
  <time>2026-08-28T19:09:54Z</time>
  <course>163.32</course>
  <speed>13.04</speed>
  <fix>3d</fix>
</trkpt>
<trkpt lat="-35.366034" lon="149.1634153">
  <ele>613.9</ele>
  <time>2026-08-28T19:09:54Z</time>
  <course>163.14</course>
  <speed>12.994910542208437</speed>
  <fix>3d</fix>
</trkpt>
<trkpt lat="-35.3660189" lon="149.1634101">
  <ele>613.88</ele>
  <time>2026-08-28T19:09:54Z</time>
  <course>163.36</course>
  <speed>13.03</speed>
  <fix>3d</fix>
</trkpt>
<trkpt lat="-35.3660563" lon="149.1634235">
  <ele>613.86</ele>
  <time>2026-08-28T19:09:54Z</time>
  <course>163.2</course>
  <speed>12.982484353928564</speed>
  <fix>3d</fix>
</trkpt>
<trkpt lat="-35.3660412" lon="149.1634183">
  <ele>613.83</ele>
  <time>2026-08-28T19:09:54Z</time>
  <course>163.4</course>
  <speed>13.01</speed>
  <fix>3d</fix>
</trkpt>
<trkpt lat="-35.3660787" lon="149.1634316">
  <ele>613.81</ele>
  <time>2026-08-28T19:09:54Z</time>
  <course>163.22</course>
  <speed>12.979653308158891</speed>
  <fix>3d</fix>
</trkpt>
<trkpt lat="-35.3660637" lon="149.1634264">
  <ele>613.79</ele>
  <time>2026-08-28T19:09:54Z</time>
  <course>163.44</course>
  <speed>13.0</speed>
  <fix>3d</fix>
</trkpt>
<trkpt lat="-35.366101" lon="149.1634398">
  <ele>613.77</ele>
  <time>2026-08-28T19:09:54Z</time>
  <course>163.22</course>
  <speed>12.976829350808309</speed>
  <fix>3d</fix>
</trkpt>
<trkpt lat="-35.3660861" lon="149.1634346">
  <ele>613.75</ele>
  <time>2026-08-28T19:09:54Z</time>
  <course>163.48</course>
  <speed>13.0</speed>
  <fix>3d</fix>
</trkpt>
<trkpt lat="-35.3661234" lon="149.1634479">
  <ele>613.72</ele>
  <time>2026-08-28T19:09:54Z</time>
  <course>163.25</course>
  <speed>12.967235634475067</speed>
  <fix>3d</fix>
</trkpt>
<trkpt lat="-35.3661084" lon="149.1634427">
  <ele>613.7</ele>
  <time>2026-08-28T19:09:54Z</time>
  <course>163.5</course>
  <speed>12.99</speed>
  <fix>3d</fix>
</trkpt>
<trkpt lat="-35.3661459" lon="149.163456">
  <ele>613.68</ele>
  <time>2026-08-28T19:09:54Z</time>
  <course>163.21</course>
  <speed>12.967235634475067</speed>
  <fix>3d</fix>
</trkpt>
<trkpt lat="-35.3661309" lon="149.1634508">
  <ele>613.65</ele>
  <time>2026-08-28T19:09:54Z</time>
  <course>163.51</course>
  <speed>12.99</speed>
  <fix>3d</fix>
</trkpt>
<trkpt lat="-35.3661683" lon="149.1634642">
  <ele>613.63</ele>
  <time>2026-08-28T19:09:54Z</time>
  <course>163.19</course>
  <speed>12.967235634475067</speed>
  <fix>3d</fix>
</trkpt>
<trkpt lat="-35.3661532" lon="149.1634589">
  <ele>613.61</ele>
  <time>2026-08-28T19:09:54Z</time>
  <course>163.51</course>
  <speed>12.99</speed>
  <fix>3d</fix>
</trkpt>
<trkpt lat="-35.3661907" lon="149.1634723">
  <ele>613.58</ele>
  <time>2026-08-28T19:09:54Z</time>
  <course>163.19</course>
  <speed>12.967235634475067</speed>
  <fix>3d</fix>
</trkpt>
<trkpt lat="-35.3661757" lon="149.1634671">
  <ele>613.56</ele>
  <time>2026-08-28T19:09:54Z</time>
  <course>163.51</course>
  <speed>12.99</speed>
  <fix>3d</fix>
</trkpt>
<trkpt lat="-35.366213" lon="149.1634804">
  <ele>613.53</ele>
  <time>2026-08-28T19:09:54Z</time>
  <course>163.18</course>
  <speed>12.957642532497955</speed>
  <fix>3d</fix>
</trkpt>
<trkpt lat="-35.3661981" lon="149.1634752">
  <ele>613.52</ele>
  <time>2026-08-28T19:09:54Z</time>
  <course>163.49</course>
  <speed>12.98</speed>
  <fix>3d</fix>
</trkpt>
<trkpt lat="-35.3662353" lon="149.1634885">
  <ele>613.49</ele>
  <time>2026-08-28T19:09:54Z</time>
  <course>163.15</course>
  <speed>12.960470670465636</speed>
  <fix>3d</fix>
</trkpt>
<trkpt lat="-35.3662204" lon="149.1634833">
  <ele>613.47</ele>
  <time>2026-08-28T19:09:54Z</time>
  <course>163.48</course>
  <speed>12.98</speed>
  <fix>3d</fix>
</trkpt>
<trkpt lat="-35.3662576" lon="149.1634966">
  <ele>613.45</ele>
  <time>2026-08-28T19:09:54Z</time>
  <course>163.11</course>
  <speed>12.950880278961735</speed>
  <fix>3d</fix>
</trkpt>
<trkpt lat="-35.3662427" lon="149.1634915">
  <ele>613.43</ele>
  <time>2026-08-28T19:09:54Z</time>
  <course>163.46</course>
  <speed>12.98</speed>
  <fix>3d</fix>
</trkpt>
<trkpt lat="-35.3662799" lon="149.1635048">
  <ele>613.4</ele>
  <time>2026-08-28T19:09:54Z</time>
  <course>163.04</course>
  <speed>12.953717613102427</speed>
  <fix>3d</fix>
</trkpt>
<trkpt lat="-35.3662651" lon="149.1634996">
  <ele>613.39</ele>
  <time>2026-08-28T19:09:54Z</time>
  <course>163.44</course>
  <speed>12.98</speed>
  <fix>3d</fix>
</trkpt>
<trkpt lat="-35.3663022" lon="149.1635129">
  <ele>613.36</ele>
  <time>2026-08-28T19:09:54Z</time>
  <course>163.01</course>
  <speed>12.96330590551654</speed>
  <fix>3d</fix>
</trkpt>
<trkpt lat="-35.3662875" lon="149.1635078">
  <ele>613.34</ele>
  <time>2026-08-28T19:09:54Z</time>
  <course>163.41</course>
  <speed>12.98</speed>
  <fix>3d</fix>
</trkpt>
<trkpt lat="-35.3663244" lon="149.1635211">
  <ele>613.32</ele>
  <time>2026-08-28T19:09:54Z</time>
  <course>162.95</course>
  <speed>12.966148232995025</speed>
  <fix>3d</fix>
</trkpt>
<trkpt lat="-35.3663099" lon="149.163516">
  <ele>613.3</ele>
  <time>2026-08-28T19:09:54Z</time>
  <course>163.39</course>
  <speed>12.99</speed>
  <fix>3d</fix>
</trkpt>
<trkpt lat="-35.3663467" lon="149.1635292">
  <ele>613.28</ele>
  <time>2026-08-28T19:09:54Z</time>
  <course>162.92</course>
  <speed>12.968997648237893</speed>
  <fix>3d</fix>
</trkpt>
<trkpt lat="-35.3663322" lon="149.1635241">
  <ele>613.26</ele>
  <time>2026-08-28T19:09:54Z</time>
  <course>163.36</course>
  <speed>13.0</speed>
  <fix>3d</fix>
</trkpt>
<trkpt lat="-35.3663692" lon="149.1635375">
  <ele>613.23</ele>
  <time>2026-08-28T19:09:54Z</time>
  <course>162.89</course>
  <speed>12.978582357098944</speed>
  <fix>3d</fix>
</trkpt>
<trkpt lat="-35.3663545" lon="149.1635324">
  <ele>613.21</ele>
  <time>2026-08-28T19:09:54Z</time>
  <course>163.33</course>
  <speed>13.0</speed>
  <fix>3d</fix>
</trkpt>
<trkpt lat="-35.3663917" lon="149.1635458">
  <ele>613.19</ele>
  <time>2026-08-28T19:09:54Z</time>
  <course>162.84</course>
  <speed>12.991019975352206</speed>
  <fix>3d</fix>
</trkpt>
<trkpt lat="-35.366377" lon="149.1635405">
  <ele>613.17</ele>
  <time>2026-08-28T19:09:54Z</time>
  <course>163.31</course>
  <speed>13.01</speed>
  <fix>3d</fix>
</trkpt>
<trkpt lat="-35.3664141" lon="149.163554">
  <ele>613.15</ele>
  <time>2026-08-28T19:09:54Z</time>
  <course>162.83</course>
  <speed>12.991019975352206</speed>
  <fix>3d</fix>
</trkpt>
<trkpt lat="-35.3663994" lon="149.1635488">
  <ele>613.13</ele>
  <time>2026-08-28T19:09:54Z</time>
  <course>163.3</course>
  <speed>13.02</speed>
  <fix>3d</fix>
</trkpt>
<trkpt lat="-35.3664365" lon="149.1635623">
  <ele>613.11</ele>
  <time>2026-08-28T19:09:54Z</time>
  <course>162.88</course>
  <speed>12.99387932836072</speed>
  <fix>3d</fix>
</trkpt>
<trkpt lat="-35.3664219" lon="149.1635571">
  <ele>613.08</ele>
  <time>2026-08-28T19:09:54Z</time>
  <course>163.28</course>
  <speed>13.02</speed>
  <fix>3d</fix>
</trkpt>
<trkpt lat="-35.366459" lon="149.1635705">
  <ele>613.07</ele>
  <time>2026-08-28T19:09:54Z</time>
  <course>162.9</course>
  <speed>12.99387932836072</speed>
  <fix>3d</fix>
</trkpt>
<trkpt lat="-35.3664443" lon="149.1635653">
  <ele>613.05</ele>
  <time>2026-08-28T19:09:54Z</time>
  <course>163.28</course>
  <speed>13.02</speed>
  <fix>3d</fix>
</trkpt>
<trkpt lat="-35.3664814" lon="149.1635788">
  <ele>613.03</ele>
  <time>2026-08-28T19:09:54Z</time>
  <course>162.94</course>
  <speed>12.991019975352206</speed>
  <fix>3d</fix>
</trkpt>
<trkpt lat="-35.3664667" lon="149.1635736">
  <ele>613.01</ele>
  <time>2026-08-28T19:09:54Z</time>
  <course>163.28</course>
  <speed>13.02</speed>
  <fix>3d</fix>
</trkpt>
<trkpt lat="-35.3665038" lon="149.163587">
  <ele>612.98</ele>
  <time>2026-08-28T19:09:54Z</time>
  <course>162.99</course>
  <speed>12.981436746369795</speed>
  <fix>3d</fix>
</trkpt>
<trkpt lat="-35.366489" lon="149.1635818">
  <ele>612.97</ele>
  <time>2026-08-28T19:09:54Z</time>
  <course>163.29</course>
  <speed>13.01</speed>
  <fix>3d</fix>
</trkpt>
<trkpt lat="-35.3665261" lon="149.1635952">
  <ele>612.94</ele>
  <time>2026-08-28T19:09:54Z</time>
  <course>163.01</course>
  <speed>12.981436746369795</speed>
  <fix>3d</fix>
</trkpt>
<trkpt lat="-35.3665115" lon="149.1635901">
  <ele>612.92</ele>
  <time>2026-08-28T19:09:54Z</time>
  <course>163.3</course>
  <speed>13.0</speed>
  <fix>3d</fix>
</trkpt>
<trkpt lat="-35.3665485" lon="149.1636035">
  <ele>612.91</ele>
  <time>2026-08-28T19:09:54Z</time>
  <course>163.03</course>
  <speed>12.978582357098944</speed>
  <fix>3d</fix>
</trkpt>
<trkpt lat="-35.3665338" lon="149.1635983">
  <ele>612.88</ele>
  <time>2026-08-28T19:09:54Z</time>
  <course>163.31</course>
  <speed>13.0</speed>
  <fix>3d</fix>
</trkpt>
<trkpt lat="-35.3665708" lon="149.1636116">
  <ele>612.87</ele>
  <time>2026-08-28T19:09:54Z</time>
  <course>163.06</course>
  <speed>12.968997648237893</speed>
  <fix>3d</fix>
</trkpt>
<trkpt lat="-35.3665562" lon="149.1636065">
  <ele>612.83</ele>
  <time>2026-08-28T19:09:54Z</time>
  <course>163.33</course>
  <speed>13.0</speed>
  <fix>3d</fix>
</trkpt>
<trkpt lat="-35.3665931" lon="149.1636198">
  <ele>612.83</ele>
  <time>2026-08-28T19:09:54Z</time>
  <course>163.08</course>
  <speed>12.966148232995025</speed>
  <fix>3d</fix>
</trkpt>
<trkpt lat="-35.3665785" lon="149.1636146">
  <ele>612.79</ele>
  <time>2026-08-28T19:09:54Z</time>
  <course>163.34</course>
  <speed>12.99</speed>
  <fix>3d</fix>
</trkpt>
<trkpt lat="-35.3666157" lon="149.1636281">
  <ele>612.78</ele>
  <time>2026-08-28T19:09:54Z</time>
  <course>163.09</course>
  <speed>12.966148232995025</speed>
  <fix>3d</fix>
</trkpt>
<trkpt lat="-35.366601" lon="149.1636229">
  <ele>612.74</ele>
  <time>2026-08-28T19:09:54Z</time>
  <course>163.36</course>
  <speed>12.99</speed>
  <fix>3d</fix>
</trkpt>
<trkpt lat="-35.3666381" lon="149.1636363">
  <ele>612.73</ele>
  <time>2026-08-28T19:09:54Z</time>
  <course>163.08</course>
  <speed>12.975735046616819</speed>
  <fix>3d</fix>
</trkpt>
<trkpt lat="-35.3666233" lon="149.163631">
  <ele>612.69</ele>
  <time>2026-08-28T19:09:54Z</time>
  <course>163.37</course>
  <speed>12.99</speed>
  <fix>3d</fix>
</trkpt>
<trkpt lat="-35.3666605" lon="149.1636445">
  <ele>612.68</ele>
  <time>2026-08-28T19:09:54Z</time>
  <course>163.06</course>
  <speed>12.975735046616819</speed>
  <fix>3d</fix>
</trkpt>
<trkpt lat="-35.3666457" lon="149.1636393">
  <ele>612.65</ele>
  <time>2026-08-28T19:09:54Z</time>
  <course>163.38</course>
  <speed>12.99</speed>
  <fix>3d</fix>
</trkpt>
<trkpt lat="-35.3666829" lon="149.1636527">
  <ele>612.63</ele>
  <time>2026-08-28T19:09:54Z</time>
  <course>163.06</course>
  <speed>12.975735046616819</speed>
  <fix>3d</fix>
</trkpt>
<trkpt lat="-35.3666681" lon="149.1636474">
  <ele>612.61</ele>
  <time>2026-08-28T19:09:54Z</time>
  <course>163.38</course>
  <speed>12.99</speed>
  <fix>3d</fix>
</trkpt>
<trkpt lat="-35.3667053" lon="149.1636609">
  <ele>612.59</ele>
  <time>2026-08-28T19:09:54Z</time>
  <course>163.05</course>
  <speed>12.975735046616819</speed>
  <fix>3d</fix>
</trkpt>
<trkpt lat="-35.3666905" lon="149.1636557">
  <ele>612.56</ele>
  <time>2026-08-28T19:09:54Z</time>
  <course>163.38</course>
  <speed>12.99</speed>
  <fix>3d</fix>
</trkpt>
<trkpt lat="-35.3667276" lon="149.163669">
  <ele>612.54</ele>
  <time>2026-08-28T19:09:54Z</time>
  <course>163.1</course>
  <speed>12.96330590551654</speed>
  <fix>3d</fix>
</trkpt>
<trkpt lat="-35.3667128" lon="149.1636639">
  <ele>612.52</ele>
  <time>2026-08-28T19:09:54Z</time>
  <course>163.38</course>
  <speed>12.98</speed>
  <fix>3d</fix>
</trkpt>
<trkpt lat="-35.3667499" lon="149.1636772">
  <ele>612.5</ele>
  <time>2026-08-28T19:09:54Z</time>
  <course>163.11</course>
  <speed>12.953717613102427</speed>
  <fix>3d</fix>
</trkpt>
<trkpt lat="-35.3667352" lon="149.163672">
  <ele>612.48</ele>
  <time>2026-08-28T19:09:54Z</time>
  <course>163.38</course>
  <speed>12.98</speed>
  <fix>3d</fix>
</trkpt>
<trkpt lat="-35.3667722" lon="149.1636853">
  <ele>612.46</ele>
  <time>2026-08-28T19:09:54Z</time>
  <course>163.09</course>
  <speed>12.953717613102427</speed>
  <fix>3d</fix>
</trkpt>
<trkpt lat="-35.3667575" lon="149.1636802">
  <ele>612.44</ele>
  <time>2026-08-28T19:09:54Z</time>
  <course>163.38</course>
  <speed>12.98</speed>
  <fix>3d</fix>
</trkpt>
<trkpt lat="-35.3667943" lon="149.1636934">
  <ele>612.41</ele>
  <time>2026-08-28T19:09:54Z</time>
  <course>163.04</course>
  <speed>12.953717613102427</speed>
  <fix>3d</fix>
</trkpt>
<trkpt lat="-35.3667799" lon="149.1636884">
  <ele>612.4</ele>
  <time>2026-08-28T19:09:54Z</time>
  <course>163.39</course>
  <speed>12.98</speed>
  <fix>3d</fix>
</trkpt>
<trkpt lat="-35.3668166" lon="149.1637016">
  <ele>612.37</ele>
  <time>2026-08-28T19:09:54Z</time>
  <course>162.98</course>
  <speed>12.96330590551654</speed>
  <fix>3d</fix>
</trkpt>
<trkpt lat="-35.3668022" lon="149.1636965">
  <ele>612.35</ele>
  <time>2026-08-28T19:09:54Z</time>
  <course>163.39</course>
  <speed>12.98</speed>
  <fix>3d</fix>
</trkpt>
<trkpt lat="-35.366839" lon="149.1637098">
  <ele>612.33</ele>
  <time>2026-08-28T19:09:54Z</time>
  <course>162.93</course>
  <speed>12.966148232995025</speed>
  <fix>3d</fix>
</trkpt>
<trkpt lat="-35.3668246" lon="149.1637048">
  <ele>612.31</ele>
  <time>2026-08-28T19:09:54Z</time>
  <course>163.38</course>
  <speed>12.99</speed>
  <fix>3d</fix>
</trkpt>
<trkpt lat="-35.3668615" lon="149.163718">
  <ele>612.29</ele>
  <time>2026-08-28T19:09:54Z</time>
  <course>162.89</course>
  <speed>12.978582357098944</speed>
  <fix>3d</fix>
</trkpt>
<trkpt lat="-35.3668469" lon="149.1637129">
  <ele>612.27</ele>
  <time>2026-08-28T19:09:54Z</time>
  <course>163.37</course>
  <speed>13.0</speed>
  <fix>3d</fix>
</trkpt>
<trkpt lat="-35.3668839" lon="149.1637262">
  <ele>612.24</ele>
  <time>2026-08-28T19:09:54Z</time>
  <course>162.89</course>
  <speed>12.988167692172748</speed>
  <fix>3d</fix>
</trkpt>
<trkpt lat="-35.3668694" lon="149.1637212">
  <ele>612.22</ele>
  <time>2026-08-28T19:09:54Z</time>
  <course>163.35</course>
  <speed>13.01</speed>
  <fix>3d</fix>
</trkpt>
<trkpt lat="-35.3669063" lon="149.1637345">
  <ele>612.2</ele>
  <time>2026-08-28T19:09:54Z</time>
  <course>162.92</course>
  <speed>12.988167692172748</speed>
  <fix>3d</fix>
</trkpt>
<trkpt lat="-35.3668918" lon="149.1637294">
  <ele>612.18</ele>
  <time>2026-08-28T19:09:54Z</time>
  <course>163.34</course>
  <speed>13.01</speed>
  <fix>3d</fix>
</trkpt>
<trkpt lat="-35.3669287" lon="149.1637427">
  <ele>612.16</ele>
  <time>2026-08-28T19:09:54Z</time>
  <course>162.94</course>
  <speed>12.988167692172748</speed>
  <fix>3d</fix>
</trkpt>
<trkpt lat="-35.3669141" lon="149.1637376">
  <ele>612.14</ele>
  <time>2026-08-28T19:09:54Z</time>
  <course>163.33</course>
  <speed>13.02</speed>
  <fix>3d</fix>
</trkpt>
<trkpt lat="-35.3669511" lon="149.1637509">
  <ele>612.12</ele>
  <time>2026-08-28T19:09:54Z</time>
  <course>162.97</course>
  <speed>12.988167692172748</speed>
  <fix>3d</fix>
</trkpt>
<trkpt lat="-35.3669366" lon="149.1637458">
  <ele>612.1</ele>
  <time>2026-08-28T19:09:54Z</time>
  <course>163.33</course>
  <speed>13.02</speed>
  <fix>3d</fix>
</trkpt>
<trkpt lat="-35.3669735" lon="149.1637591">
  <ele>612.08</ele>
  <time>2026-08-28T19:09:54Z</time>
  <course>162.98</course>
  <speed>12.988167692172748</speed>
  <fix>3d</fix>
</trkpt>
<trkpt lat="-35.3669589" lon="149.1637541">
  <ele>612.06</ele>
  <time>2026-08-28T19:09:54Z</time>
  <course>163.34</course>
  <speed>13.01</speed>
  <fix>3d</fix>
</trkpt>
<trkpt lat="-35.3669959" lon="149.1637673">
  <ele>612.04</ele>
  <time>2026-08-28T19:09:54Z</time>
  <course>163.02</course>
  <speed>12.988167692172748</speed>
  <fix>3d</fix>
</trkpt>
<trkpt lat="-35.3669814" lon="149.1637622">
  <ele>612.02</ele>
  <time>2026-08-28T19:09:54Z</time>
  <course>163.35</course>
  <speed>13.01</speed>
  <fix>3d</fix>
</trkpt>
<trkpt lat="-35.3670182" lon="149.1637755">
  <ele>612.01</ele>
  <time>2026-08-28T19:09:54Z</time>
  <course>163.04</course>
  <speed>12.988167692172748</speed>
  <fix>3d</fix>
</trkpt>
<trkpt lat="-35.3670037" lon="149.1637705">
  <ele>611.98</ele>
  <time>2026-08-28T19:09:54Z</time>
  <course>163.36</course>
  <speed>13.01</speed>
  <fix>3d</fix>
</trkpt>
<trkpt lat="-35.3670405" lon="149.1637837">
  <ele>611.96</ele>
  <time>2026-08-28T19:09:54Z</time>
  <course>163.08</course>
  <speed>12.98532248348111</speed>
  <fix>3d</fix>
</trkpt>
<trkpt lat="-35.3670262" lon="149.1637787">
  <ele>611.94</ele>
  <time>2026-08-28T19:09:54Z</time>
  <course>163.37</course>
  <speed>13.01</speed>
  <fix>3d</fix>
</trkpt>
<trkpt lat="-35.3670629" lon="149.1637919">
  <ele>611.92</ele>
  <time>2026-08-28T19:09:54Z</time>
  <course>163.06</course>
  <speed>12.98532248348111</speed>
  <fix>3d</fix>
</trkpt>
<trkpt lat="-35.3670486" lon="149.1637869">
  <ele>611.89</ele>
  <time>2026-08-28T19:09:54Z</time>
  <course>163.38</course>
  <speed>13.01</speed>
  <fix>3d</fix>
</trkpt>
<trkpt lat="-35.3670855" lon="149.1638002">
  <ele>611.87</ele>
  <time>2026-08-28T19:09:54Z</time>
  <course>163.07</course>
  <speed>12.98532248348111</speed>
  <fix>3d</fix>
</trkpt>
<trkpt lat="-35.3670709" lon="149.1637951">
  <ele>611.84</ele>
  <time>2026-08-28T19:09:54Z</time>
  <course>163.39</course>
  <speed>13.01</speed>
  <fix>3d</fix>
</trkpt>
<trkpt lat="-35.3671081" lon="149.1638084">
  <ele>611.82</ele>
  <time>2026-08-28T19:09:54Z</time>
  <course>163.06</course>
  <speed>12.994910542208437</speed>
  <fix>3d</fix>
</trkpt>
<trkpt lat="-35.3670934" lon="149.1638032">
  <ele>611.8</ele>
  <time>2026-08-28T19:09:54Z</time>
  <course>163.39</course>
  <speed>13.01</speed>
  <fix>3d</fix>
</trkpt>
<trkpt lat="-35.3671306" lon="149.1638166">
  <ele>611.78</ele>
  <time>2026-08-28T19:09:54Z</time>
  <course>163.09</course>
  <speed>12.994910542208437</speed>
  <fix>3d</fix>
</trkpt>
<trkpt lat="-35.3671158" lon="149.1638115">
  <ele>611.76</ele>
  <time>2026-08-28T19:09:54Z</time>
  <course>163.4</course>
  <speed>13.01</speed>
  <fix>3d</fix>
</trkpt>
<trkpt lat="-35.367153" lon="149.1638249">
  <ele>611.74</ele>
  <time>2026-08-28T19:09:54Z</time>
  <course>163.15</course>
  <speed>12.98532248348111</speed>
  <fix>3d</fix>
</trkpt>
<trkpt lat="-35.3671382" lon="149.1638196">
  <ele>611.71</ele>
  <time>2026-08-28T19:09:54Z</time>
  <course>163.4</course>
  <speed>13.0</speed>
  <fix>3d</fix>
</trkpt>
<trkpt lat="-35.3671755" lon="149.163833">
  <ele>611.7</ele>
  <time>2026-08-28T19:09:54Z</time>
  <course>163.21</course>
  <speed>12.97289481958441</speed>
  <fix>3d</fix>
</trkpt>
<trkpt lat="-35.3671606" lon="149.1638278">
  <ele>611.67</ele>
  <time>2026-08-28T19:09:54Z</time>
  <course>163.4</course>
  <speed>12.99</speed>
  <fix>3d</fix>
</trkpt>
<trkpt lat="-35.3671978" lon="149.1638412">
  <ele>611.66</ele>
  <time>2026-08-28T19:09:54Z</time>
  <course>163.28</course>
  <speed>12.953717613102427</speed>
  <fix>3d</fix>
</trkpt>
<trkpt lat="-35.367183" lon="149.163836">
  <ele>611.63</ele>
  <time>2026-08-28T19:09:54Z</time>
  <course>163.41</course>
  <speed>12.97</speed>
  <fix>3d</fix>
</trkpt>
<trkpt lat="-35.3672202" lon="149.1638494">
  <ele>611.61</ele>
  <time>2026-08-28T19:09:54Z</time>
  <course>163.31</course>
  <speed>12.941290507518948</speed>
  <fix>3d</fix>
</trkpt>
<trkpt lat="-35.3672053" lon="149.1638441">
  <ele>611.58</ele>
  <time>2026-08-28T19:09:54Z</time>
  <course>163.42</course>
  <speed>12.96</speed>
  <fix>3d</fix>
</trkpt>
<trkpt lat="-35.3672425" lon="149.1638575">
  <ele>611.57</ele>
  <time>2026-08-28T19:09:54Z</time>
  <course>163.28</course>
  <speed>12.941290507518948</speed>
  <fix>3d</fix>
</trkpt>
<trkpt lat="-35.3672276" lon="149.1638522">
  <ele>611.55</ele>
  <time>2026-08-28T19:09:54Z</time>
  <course>163.43</course>
  <speed>12.95</speed>
  <fix>3d</fix>
</trkpt>
<trkpt lat="-35.3672648" lon="149.1638656">
  <ele>611.53</ele>
  <time>2026-08-28T19:09:54Z</time>
  <course>163.24</course>
  <speed>12.93170135751673</speed>
  <fix>3d</fix>
</trkpt>
<trkpt lat="-35.3672499" lon="149.1638604">
  <ele>611.5</ele>
  <time>2026-08-28T19:09:54Z</time>
  <course>163.43</course>
  <speed>12.94</speed>
  <fix>3d</fix>
</trkpt>
<trkpt lat="-35.3672871" lon="149.1638738">
  <ele>611.49</ele>
  <time>2026-08-28T19:09:54Z</time>
  <course>163.21</course>
  <speed>12.93170135751673</speed>
  <fix>3d</fix>
</trkpt>
<trkpt lat="-35.3672722" lon="149.1638685">
  <ele>611.45</ele>
  <time>2026-08-28T19:09:54Z</time>
  <course>163.43</course>
  <speed>12.93</speed>
  <fix>3d</fix>
</trkpt>
<trkpt lat="-35.3673095" lon="149.1638819">
  <ele>611.44</ele>
  <time>2026-08-28T19:09:54Z</time>
  <course>163.16</course>
  <speed>12.93170135751673</speed>
  <fix>3d</fix>
</trkpt>
<trkpt lat="-35.3672944" lon="149.1638767">
  <ele>611.4</ele>
  <time>2026-08-28T19:09:54Z</time>
  <course>163.42</course>
  <speed>12.93</speed>
  <fix>3d</fix>
</trkpt>
<trkpt lat="-35.3673319" lon="149.1638901">
  <ele>611.38</ele>
  <time>2026-08-28T19:09:54Z</time>
  <course>163.1</course>
  <speed>12.934542898765306</speed>
  <fix>3d</fix>
</trkpt>
<trkpt lat="-35.3673167" lon="149.1638848">
  <ele>611.36</ele>
  <time>2026-08-28T19:09:54Z</time>
  <course>163.4</course>
  <speed>12.93</speed>
  <fix>3d</fix>
</trkpt>
<trkpt lat="-35.3673542" lon="149.1638983">
  <ele>611.34</ele>
  <time>2026-08-28T19:09:54Z</time>
  <course>163.04</course>
  <speed>12.934542898765306</speed>
  <fix>3d</fix>
</trkpt>
<trkpt lat="-35.367339" lon="149.1638929">
  <ele>611.31</ele>
  <time>2026-08-28T19:09:54Z</time>
  <course>163.38</course>
  <speed>12.94</speed>
  <fix>3d</fix>
</trkpt>
<trkpt lat="-35.3673764" lon="149.1639064">
  <ele>611.29</ele>
  <time>2026-08-28T19:09:54Z</time>
  <course>163.0</course>
  <speed>12.937391545439134</speed>
  <fix>3d</fix>
</trkpt>
<trkpt lat="-35.3673613" lon="149.1639011">
  <ele>611.27</ele>
  <time>2026-08-28T19:09:54Z</time>
  <course>163.36</course>
  <speed>12.94</speed>
  <fix>3d</fix>
</trkpt>
<trkpt lat="-35.3673986" lon="149.1639146">
  <ele>611.25</ele>
  <time>2026-08-28T19:09:54Z</time>
  <course>162.97</course>
  <speed>12.937391545439134</speed>
  <fix>3d</fix>
</trkpt>
<trkpt lat="-35.3673836" lon="149.1639093">
  <ele>611.23</ele>
  <time>2026-08-28T19:09:54Z</time>
  <course>163.34</course>
  <speed>12.94</speed>
  <fix>3d</fix>
</trkpt>
<trkpt lat="-35.3674208" lon="149.1639227">
  <ele>611.21</ele>
  <time>2026-08-28T19:09:54Z</time>
  <course>162.9</course>
  <speed>12.940247292845681</speed>
  <fix>3d</fix>
</trkpt>
<trkpt lat="-35.3674059" lon="149.1639174">
  <ele>611.18</ele>
  <time>2026-08-28T19:09:54Z</time>
  <course>163.32</course>
  <speed>12.95</speed>
  <fix>3d</fix>
</trkpt>
<trkpt lat="-35.367443" lon="149.1639309">
  <ele>611.17</ele>
  <time>2026-08-28T19:09:55Z</time>
  <course>162.84</course>
  <speed>12.949830114715791</speed>
  <fix>3d</fix>
</trkpt>
<trkpt lat="-35.3674282" lon="149.1639257">
  <ele>611.14</ele>
  <time>2026-08-28T19:09:55Z</time>
  <course>163.3</course>
  <speed>12.96</speed>
  <fix>3d</fix>
</trkpt>
<trkpt lat="-35.3674652" lon="149.1639391">
  <ele>611.13</ele>
  <time>2026-08-28T19:09:55Z</time>
  <course>162.79</course>
  <speed>12.962272177361498</speed>
  <fix>3d</fix>
</trkpt>
<trkpt lat="-35.3674505" lon="149.1639339">
  <ele>611.09</ele>
  <time>2026-08-28T19:09:55Z</time>
  <course>163.28</course>
  <speed>12.97</speed>
  <fix>3d</fix>
</trkpt>
<trkpt lat="-35.3674874" lon="149.1639473">
  <ele>611.08</ele>
  <time>2026-08-28T19:09:55Z</time>
  <course>162.72</course>
  <speed>12.97471772332639</speed>
  <fix>3d</fix>
</trkpt>
<trkpt lat="-35.3674728" lon="149.1639421">
  <ele>611.05</ele>
  <time>2026-08-28T19:09:55Z</time>
  <course>163.26</course>
  <speed>12.99</speed>
  <fix>3d</fix>
</trkpt>
<trkpt lat="-35.3675097" lon="149.1639555">
  <ele>611.03</ele>
  <time>2026-08-28T19:09:55Z</time>
  <course>162.71</course>
  <speed>12.99387932836072</speed>
  <fix>3d</fix>
</trkpt>
<trkpt lat="-35.3674952" lon="149.1639503">
  <ele>611.0</ele>
  <time>2026-08-28T19:09:55Z</time>
  <course>163.25</course>
  <speed>13.01</speed>
  <fix>3d</fix>
</trkpt>
<trkpt lat="-35.3675322" lon="149.1639638">
  <ele>610.99</ele>
  <time>2026-08-28T19:09:55Z</time>
  <course>162.65</course>
  <speed>13.006325384212097</speed>
  <fix>3d</fix>
</trkpt>
<trkpt lat="-35.3675176" lon="149.1639586">
  <ele>610.95</ele>
  <time>2026-08-28T19:09:55Z</time>
  <course>163.25</course>
  <speed>13.03</speed>
  <fix>3d</fix>
</trkpt>
<trkpt lat="-35.3675547" lon="149.1639721">
  <ele>610.95</ele>
  <time>2026-08-28T19:09:55Z</time>
  <course>162.63</course>
  <speed>13.025486555211671</speed>
  <fix>3d</fix>
</trkpt>
<trkpt lat="-35.36754" lon="149.1639669">
  <ele>610.92</ele>
  <time>2026-08-28T19:09:55Z</time>
  <course>163.25</course>
  <speed>13.04</speed>
  <fix>3d</fix>
</trkpt>
<trkpt lat="-35.3675772" lon="149.1639804">
  <ele>610.91</ele>
  <time>2026-08-28T19:09:55Z</time>
  <course>162.63</course>
  <speed>13.0350680857447</speed>
  <fix>3d</fix>
</trkpt>
<trkpt lat="-35.3675625" lon="149.1639752">
  <ele>610.88</ele>
  <time>2026-08-28T19:09:55Z</time>
  <course>163.25</course>
  <speed>13.06</speed>
  <fix>3d</fix>
</trkpt>
<trkpt lat="-35.3675998" lon="149.1639887">
  <ele>610.88</ele>
  <time>2026-08-28T19:09:55Z</time>
  <course>162.78</course>
  <speed>13.015905654237049</speed>
  <fix>3d</fix>
</trkpt>
<trkpt lat="-35.367585" lon="149.1639835">
  <ele>610.83</ele>
  <time>2026-08-28T19:09:55Z</time>
  <course>163.25</course>
  <speed>13.06</speed>
  <fix>3d</fix>
</trkpt>
<trkpt lat="-35.3676222" lon="149.163997">
  <ele>610.87</ele>
  <time>2026-08-28T19:09:55Z</time>
  <course>163.22</course>
  <speed>12.940247292845681</speed>
  <fix>3d</fix>
</trkpt>
<trkpt lat="-35.3676075" lon="149.1639918">
  <ele>610.81</ele>
  <time>2026-08-28T19:09:55Z</time>
  <course>163.27</course>
  <speed>13.02</speed>
  <fix>3d</fix>
</trkpt>
<trkpt lat="-35.3676444" lon="149.1640051">
  <ele>610.86</ele>
  <time>2026-08-28T19:09:55Z</time>
  <course>163.9</course>
  <speed>12.801382737813913</speed>
  <fix>3d</fix>
</trkpt>
<trkpt lat="-35.3676298" lon="149.1639999">
  <ele>610.79</ele>
  <time>2026-08-28T19:09:55Z</time>
  <course>163.3</course>
  <speed>12.94</speed>
  <fix>3d</fix>
</trkpt>
<trkpt lat="-35.3676664" lon="149.1640132">
  <ele>610.86</ele>
  <time>2026-08-28T19:09:55Z</time>
  <course>164.74</course>
  <speed>12.606069966488366</speed>
  <fix>3d</fix>
</trkpt>
<trkpt lat="-35.367652" lon="149.1640081">
  <ele>610.79</ele>
  <time>2026-08-28T19:09:55Z</time>
  <course>163.38</course>
  <speed>12.78</speed>
  <fix>3d</fix>
</trkpt>
<trkpt lat="-35.3676879" lon="149.164021">
  <ele>610.86</ele>
  <time>2026-08-28T19:09:55Z</time>
  <course>165.59</course>
  <speed>12.347607055620129</speed>
  <fix>3d</fix>
</trkpt>
<trkpt lat="-35.3676738" lon="149.1640161">
  <ele>610.79</ele>
  <time>2026-08-28T19:09:55Z</time>
  <course>163.5</course>
  <speed>12.57</speed>
  <fix>3d</fix>
</trkpt>
<trkpt lat="-35.3677091" lon="149.1640286">
  <ele>610.86</ele>
  <time>2026-08-28T19:09:55Z</time>
  <course>166.37</course>
  <speed>12.042445764876835</speed>
  <fix>3d</fix>
</trkpt>
<trkpt lat="-35.3676952" lon="149.1640239">
  <ele>610.79</ele>
  <time>2026-08-28T19:09:55Z</time>
  <course>163.67</course>
  <speed>12.3</speed>
  <fix>3d</fix>
</trkpt>
<trkpt lat="-35.3677296" lon="149.1640358">
  <ele>610.84</ele>
  <time>2026-08-28T19:09:55Z</time>
  <course>167.08</course>
  <speed>11.698999957261304</speed>
  <fix>3d</fix>
</trkpt>
<trkpt lat="-35.3677162" lon="149.1640313">
  <ele>610.79</ele>
  <time>2026-08-28T19:09:55Z</time>
  <course>163.87</course>
  <speed>11.99</speed>
  <fix>3d</fix>
</trkpt>
<trkpt lat="-35.3677495" lon="149.1640428">
  <ele>610.82</ele>
  <time>2026-08-28T19:09:55Z</time>
  <course>167.68</course>
  <speed>11.314459774995887</speed>
  <fix>3d</fix>
</trkpt>
<trkpt lat="-35.3677366" lon="149.1640385">
  <ele>610.78</ele>
  <time>2026-08-28T19:09:55Z</time>
  <course>164.08</course>
  <speed>11.63</speed>
  <fix>3d</fix>
</trkpt>
<trkpt lat="-35.367769" lon="149.1640495">
  <ele>610.8</ele>
  <time>2026-08-28T19:09:55Z</time>
  <course>168.21</course>
  <speed>10.87919114640422</speed>
  <fix>3d</fix>
</trkpt>
<trkpt lat="-35.3677564" lon="149.1640453">
  <ele>610.76</ele>
  <time>2026-08-28T19:09:55Z</time>
  <course>164.28</course>
  <speed>11.23</speed>
  <fix>3d</fix>
</trkpt>
<trkpt lat="-35.3677875" lon="149.1640559">
  <ele>610.77</ele>
  <time>2026-08-28T19:09:55Z</time>
  <course>168.65</course>
  <speed>10.405469715490984</speed>
  <fix>3d</fix>
</trkpt>
<trkpt lat="-35.3677754" lon="149.1640519">
  <ele>610.73</ele>
  <time>2026-08-28T19:09:55Z</time>
  <course>164.46</course>
  <speed>10.79</speed>
  <fix>3d</fix>
</trkpt>
<trkpt lat="-35.3678052" lon="149.1640619">
  <ele>610.73</ele>
  <time>2026-08-28T19:09:55Z</time>
  <course>169.01</course>
  <speed>9.883587405390818</speed>
  <fix>3d</fix>
</trkpt>
<trkpt lat="-35.3677937" lon="149.1640581">
  <ele>610.69</ele>
  <time>2026-08-28T19:09:55Z</time>
  <course>164.61</course>
  <speed>10.3</speed>
  <fix>3d</fix>
</trkpt>
<trkpt lat="-35.367822" lon="149.1640675">
  <ele>610.69</ele>
  <time>2026-08-28T19:09:55Z</time>
  <course>169.26</course>
  <speed>9.33014469341178</speed>
  <fix>3d</fix>
</trkpt>
<trkpt lat="-35.3678112" lon="149.164064">
  <ele>610.66</ele>
  <time>2026-08-28T19:09:55Z</time>
  <course>164.71</course>
  <speed>9.76</speed>
  <fix>3d</fix>
</trkpt>
<trkpt lat="-35.3678377" lon="149.1640728">
  <ele>610.64</ele>
  <time>2026-08-28T19:09:55Z</time>
  <course>169.38</course>
  <speed>8.750411418899114</speed>
  <fix>3d</fix>
</trkpt>
<trkpt lat="-35.3678276" lon="149.1640694">
  <ele>610.61</ele>
  <time>2026-08-28T19:09:55Z</time>
  <course>164.77</course>
  <speed>9.2</speed>
  <fix>3d</fix>
</trkpt>
<trkpt lat="-35.3678525" lon="149.1640777">
  <ele>610.58</ele>
  <time>2026-08-28T19:09:55Z</time>
  <course>169.3</course>
  <speed>8.170679286326198</speed>
  <fix>3d</fix>
</trkpt>
<trkpt lat="-35.3678431" lon="149.1640746">
  <ele>610.56</ele>
  <time>2026-08-28T19:09:55Z</time>
  <course>164.79</course>
  <speed>8.61</speed>
  <fix>3d</fix>
</trkpt>
<trkpt lat="-35.3678663" lon="149.1640824">
  <ele>610.51</ele>
  <time>2026-08-28T19:09:55Z</time>
  <course>169.03</course>
  <speed>7.603242729257037</speed>
  <fix>3d</fix>
</trkpt>
<trkpt lat="-35.3678575" lon="149.1640794">
  <ele>610.5</ele>
  <time>2026-08-28T19:09:55Z</time>
  <course>164.76</course>
  <speed>8.03</speed>
  <fix>3d</fix>
</trkpt>
<trkpt lat="-35.3678791" lon="149.1640867">
  <ele>610.44</ele>
  <time>2026-08-28T19:09:55Z</time>
  <course>168.61</course>
  <speed>7.050822647039138</speed>
  <fix>3d</fix>
</trkpt>
<trkpt lat="-35.3678709" lon="149.1640839">
  <ele>610.43</ele>
  <time>2026-08-28T19:09:55Z</time>
  <course>164.66</course>
  <speed>7.46</speed>
  <fix>3d</fix>
</trkpt>
<trkpt lat="-35.3678909" lon="149.1640907">
  <ele>610.37</ele>
  <time>2026-08-28T19:09:55Z</time>
  <course>168.05</course>
  <speed>6.520506115325711</speed>
  <fix>3d</fix>
</trkpt>
<trkpt lat="-35.3678833" lon="149.1640881">
  <ele>610.37</ele>
  <time>2026-08-28T19:09:55Z</time>
  <course>164.46</course>
  <speed>6.91</speed>
  <fix>3d</fix>
</trkpt>
<trkpt lat="-35.3679017" lon="149.1640946">
  <ele>610.31</ele>
  <time>2026-08-28T19:09:55Z</time>
  <course>167.35</course>
  <speed>5.993212827857859</speed>
  <fix>3d</fix>
</trkpt>
<trkpt lat="-35.3678948" lon="149.1640921">
  <ele>610.31</ele>
  <time>2026-08-28T19:09:55Z</time>
  <course>164.14</course>
  <speed>6.37</speed>
  <fix>3d</fix>
</trkpt>
<trkpt lat="-35.3679117" lon="149.1640982">
  <ele>610.26</ele>
  <time>2026-08-28T19:09:55Z</time>
  <course>166.47</course>
  <speed>5.4883968515405295</speed>
  <fix>3d</fix>
</trkpt>
<trkpt lat="-35.3679054" lon="149.1640957">
  <ele>610.25</ele>
  <time>2026-08-28T19:09:55Z</time>
  <course>163.68</course>
  <speed>5.84</speed>
  <fix>3d</fix>
</trkpt>
<trkpt lat="-35.3679208" lon="149.1641016">
  <ele>610.22</ele>
  <time>2026-08-28T19:09:55Z</time>
  <course>165.34</course>
  <speed>4.99033065036777</speed>
  <fix>3d</fix>
</trkpt>
<trkpt lat="-35.3679149" lon="149.1640993">
  <ele>610.2</ele>
  <time>2026-08-28T19:09:55Z</time>
  <course>163.01</course>
  <speed>5.34</speed>
  <fix>3d</fix>
</trkpt>
<trkpt lat="-35.3679289" lon="149.1641049">
  <ele>610.18</ele>
  <time>2026-08-28T19:09:55Z</time>
  <course>163.75</course>
  <speed>4.497510422444845</speed>
  <fix>3d</fix>
</trkpt>
<trkpt lat="-35.3679237" lon="149.1641027">
  <ele>610.17</ele>
  <time>2026-08-28T19:09:55Z</time>
  <course>161.91</course>
  <speed>4.84</speed>
  <fix>3d</fix>
</trkpt>
<trkpt lat="-35.3679361" lon="149.1641082">
  <ele>610.16</ele>
  <time>2026-08-28T19:09:55Z</time>
  <course>161.28</course>
  <speed>4.00176211187022</speed>
  <fix>3d</fix>
</trkpt>
<trkpt lat="-35.3679315" lon="149.164106">
  <ele>610.14</ele>
  <time>2026-08-28T19:09:55Z</time>
  <course>160.1</course>
  <speed>4.34</speed>
  <fix>3d</fix>
</trkpt>
<trkpt lat="-35.3679423" lon="149.1641115">
  <ele>610.14</ele>
  <time>2026-08-28T19:09:55Z</time>
  <course>157.65</course>
  <speed>3.5062943401830946</speed>
  <fix>3d</fix>
</trkpt>
<trkpt lat="-35.3679384" lon="149.1641092">
  <ele>610.12</ele>
  <time>2026-08-28T19:09:55Z</time>
  <course>157.18</course>
  <speed>3.84</speed>
  <fix>3d</fix>
</trkpt>
<trkpt lat="-35.3679474" lon="149.1641149">
  <ele>610.13</ele>
  <time>2026-08-28T19:09:55Z</time>
  <course>152.38</course>
  <speed>3.018873962258113</speed>
  <fix>3d</fix>
</trkpt>
<trkpt lat="-35.3679443" lon="149.1641126">
  <ele>610.1</ele>
  <time>2026-08-28T19:09:55Z</time>
  <course>152.69</course>
  <speed>3.34</speed>
  <fix>3d</fix>
</trkpt>
<trkpt lat="-35.3679515" lon="149.1641185">
  <ele>610.13</ele>
  <time>2026-08-28T19:09:55Z</time>
  <course>144.91</course>
  <speed>2.5728777662376423</speed>
  <fix>3d</fix>
</trkpt>
<trkpt lat="-35.3679491" lon="149.164116">
  <ele>610.09</ele>
  <time>2026-08-28T19:09:55Z</time>
  <course>145.92</course>
  <speed>2.86</speed>
  <fix>3d</fix>
</trkpt>
<trkpt lat="-35.3679545" lon="149.1641223">
  <ele>610.12</ele>
  <time>2026-08-28T19:09:55Z</time>
  <course>134.53</course>
  <speed>2.220360331117452</speed>
  <fix>3d</fix>
</trkpt>
<trkpt lat="-35.3679528" lon="149.1641196">
  <ele>610.08</ele>
  <time>2026-08-28T19:09:55Z</time>
  <course>135.78</course>
  <speed>2.43</speed>
  <fix>3d</fix>
</trkpt>
<trkpt lat="-35.3679562" lon="149.1641263">
  <ele>610.1</ele>
  <time>2026-08-28T19:09:55Z</time>
  <course>122.32</course>
  <speed>2.042841158778626</speed>
  <fix>3d</fix>
</trkpt>
<trkpt lat="-35.3679553" lon="149.1641235">
  <ele>610.06</ele>
  <time>2026-08-28T19:09:55Z</time>
  <course>121.05</course>
  <speed>2.12</speed>
  <fix>3d</fix>
</trkpt>
<trkpt lat="-35.3679568" lon="149.1641307">
  <ele>610.09</ele>
  <time>2026-08-28T19:09:55Z</time>
  <course>110.79</course>
  <speed>2.11</speed>
  <fix>3d</fix>
</trkpt>
<trkpt lat="-35.3679566" lon="149.1641277">
  <ele>610.05</ele>
  <time>2026-08-28T19:09:55Z</time>
  <course>102.41</course>
  <speed>2.01</speed>
  <fix>3d</fix>
</trkpt>
<trkpt lat="-35.3679563" lon="149.1641355">
  <ele>610.07</ele>
  <time>2026-08-28T19:09:55Z</time>
  <course>99.42</course>
  <speed>2.3891839611047114</speed>
  <fix>3d</fix>
</trkpt>
<trkpt lat="-35.3679569" lon="149.1641322">
  <ele>610.03</ele>
  <time>2026-08-28T19:09:55Z</time>
  <course>84.35</course>
  <speed>2.15</speed>
  <fix>3d</fix>
</trkpt>
<trkpt lat="-35.3679547" lon="149.1641409">
  <ele>610.05</ele>
  <time>2026-08-28T19:09:55Z</time>
  <course>87.75</course>
  <speed>2.836353292521931</speed>
  <fix>3d</fix>
</trkpt>
<trkpt lat="-35.367956" lon="149.1641371">
  <ele>610.01</ele>
  <time>2026-08-28T19:09:55Z</time>
  <course>70.8</course>
  <speed>2.5</speed>
  <fix>3d</fix>
</trkpt>
<trkpt lat="-35.3679521" lon="149.1641468">
  <ele>610.03</ele>
  <time>2026-08-28T19:09:55Z</time>
  <course>75.68</course>
  <speed>3.3581542549442247</speed>
  <fix>3d</fix>
</trkpt>
<trkpt lat="-35.367954" lon="149.1641426">
  <ele>609.98</ele>
  <time>2026-08-28T19:09:55Z</time>
  <course>61.9</course>
  <speed>2.98</speed>
  <fix>3d</fix>
</trkpt>
<trkpt lat="-35.3679484" lon="149.1641534">
  <ele>610.01</ele>
  <time>2026-08-28T19:09:55Z</time>
  <course>62.98</course>
  <speed>3.924589150471677</speed>
  <fix>3d</fix>
</trkpt>
<trkpt lat="-35.367951" lon="149.1641488">
  <ele>609.95</ele>
  <time>2026-08-28T19:09:55Z</time>
  <course>56.23</course>
  <speed>3.53</speed>
  <fix>3d</fix>
</trkpt>
<trkpt lat="-35.3679437" lon="149.1641608">
  <ele>610.0</ele>
  <time>2026-08-28T19:09:55Z</time>
  <course>50.31</course>
  <speed>4.486925450684466</speed>
  <fix>3d</fix>
</trkpt>
<trkpt lat="-35.367947" lon="149.1641556">
  <ele>609.94</ele>
  <time>2026-08-28T19:09:55Z</time>
  <course>52.51</course>
  <speed>4.1</speed>
  <fix>3d</fix>
</trkpt>
<trkpt lat="-35.3679382" lon="149.1641687">
  <ele>610.0</ele>
  <time>2026-08-28T19:09:55Z</time>
  <course>46.03</course>
  <speed>5.010279433325052</speed>
  <fix>3d</fix>
</trkpt>
<trkpt lat="-35.367942" lon="149.1641632">
  <ele>609.93</ele>
  <time>2026-08-28T19:09:55Z</time>
  <course>49.75</course>
  <speed>4.67</speed>
  <fix>3d</fix>
</trkpt>
<trkpt lat="-35.3679319" lon="149.1641773">
  <ele>610.0</ele>
  <time>2026-08-28T19:09:55Z</time>
  <course>44.91</course>
  <speed>5.494433546781688</speed>
  <fix>3d</fix>
</trkpt>
<trkpt lat="-35.3679362" lon="149.1641713">
  <ele>609.93</ele>
  <time>2026-08-28T19:09:55Z</time>
  <course>48.05</course>
  <speed>5.19</speed>
  <fix>3d</fix>
</trkpt>
<trkpt lat="-35.3679249" lon="149.1641866">
  <ele>610.02</ele>
  <time>2026-08-28T19:09:55Z</time>
  <course>44.5</course>
  <speed>5.940412443593458</speed>
  <fix>3d</fix>
</trkpt>
<trkpt lat="-35.3679296" lon="149.1641802">
  <ele>609.93</ele>
  <time>2026-08-28T19:09:55Z</time>
  <course>47.52</course>
  <speed>5.68</speed>
  <fix>3d</fix>
</trkpt>
<trkpt lat="-35.3679175" lon="149.1641967">
  <ele>610.03</ele>
  <time>2026-08-28T19:09:55Z</time>
  <course>44.6</course>
  <speed>6.382045126759916</speed>
  <fix>3d</fix>
</trkpt>
<trkpt lat="-35.3679224" lon="149.1641898">
  <ele>609.94</ele>
  <time>2026-08-28T19:09:55Z</time>
  <course>47.69</course>
  <speed>6.13</speed>
  <fix>3d</fix>
</trkpt>
<trkpt lat="-35.3679097" lon="149.1642076">
  <ele>610.03</ele>
  <time>2026-08-28T19:09:55Z</time>
  <course>45.09</course>
  <speed>6.7986836961282435</speed>
  <fix>3d</fix>
</trkpt>
<trkpt lat="-35.3679147" lon="149.1642001">
  <ele>609.95</ele>
  <time>2026-08-28T19:09:55Z</time>
  <course>48.29</course>
  <speed>6.56</speed>
  <fix>3d</fix>
</trkpt>
<trkpt lat="-35.3679014" lon="149.1642194">
  <ele>610.04</ele>
  <time>2026-08-28T19:09:55Z</time>
  <course>45.91</course>
  <speed>7.226423735154201</speed>
  <fix>3d</fix>
</trkpt>
<trkpt lat="-35.3679068" lon="149.1642114">
  <ele>609.96</ele>
  <time>2026-08-28T19:09:55Z</time>
  <course>49.15</course>
  <speed>6.99</speed>
  <fix>3d</fix>
</trkpt>
<trkpt lat="-35.3678928" lon="149.1642321">
  <ele>610.04</ele>
  <time>2026-08-28T19:09:55Z</time>
  <course>46.74</course>
  <speed>7.6636414321130655</speed>
  <fix>3d</fix>
</trkpt>
<trkpt lat="-35.3678984" lon="149.1642235">
  <ele>609.97</ele>
  <time>2026-08-28T19:09:55Z</time>
  <course>50.12</course>
  <speed>7.42</speed>
  <fix>3d</fix>
</trkpt>
<trkpt lat="-35.3678838" lon="149.1642458">
  <ele>610.04</ele>
  <time>2026-08-28T19:09:55Z</time>
  <course>47.34</course>
  <speed>8.116514030050093</speed>
  <fix>3d</fix>
</trkpt>
<trkpt lat="-35.3678896" lon="149.1642365">
  <ele>609.97</ele>
  <time>2026-08-28T19:09:55Z</time>
  <course>51.04</course>
  <speed>7.86</speed>
  <fix>3d</fix>
</trkpt>
<trkpt lat="-35.3678745" lon="149.1642603">
  <ele>610.04</ele>
  <time>2026-08-28T19:09:55Z</time>
  <course>47.68</course>
  <speed>8.582924909376757</speed>
  <fix>3d</fix>
</trkpt>
<trkpt lat="-35.3678805" lon="149.1642505">
  <ele>609.97</ele>
  <time>2026-08-28T19:09:55Z</time>
  <course>51.79</course>
  <speed>8.32</speed>
  <fix>3d</fix>
</trkpt>
<trkpt lat="-35.3678648" lon="149.1642757">
  <ele>610.03</ele>
  <time>2026-08-28T19:09:55Z</time>
  <course>47.75</course>
  <speed>9.060353193998564</speed>
  <fix>3d</fix>
</trkpt>
<trkpt lat="-35.3678711" lon="149.1642654">
  <ele>609.96</ele>
  <time>2026-08-28T19:09:55Z</time>
  <course>52.32</course>
  <speed>8.79</speed>
  <fix>3d</fix>
</trkpt>
<trkpt lat="-35.3678546" lon="149.164292">
  <ele>610.02</ele>
  <time>2026-08-28T19:09:55Z</time>
  <course>47.59</course>
  <speed>9.54025680996062</speed>
  <fix>3d</fix>
</trkpt>
<trkpt lat="-35.3678612" lon="149.1642812">
  <ele>609.95</ele>
  <time>2026-08-28T19:09:55Z</time>
  <course>52.64</course>
  <speed>9.26</speed>
  <fix>3d</fix>
</trkpt>
<trkpt lat="-35.3678439" lon="149.1643092">
  <ele>610.02</ele>
  <time>2026-08-28T19:09:55Z</time>
  <course>47.2</course>
  <speed>10.018273304317466</speed>
  <fix>3d</fix>
</trkpt>
<trkpt lat="-35.3678508" lon="149.1642979">
  <ele>609.94</ele>
  <time>2026-08-28T19:09:55Z</time>
  <course>52.78</course>
  <speed>9.74</speed>
  <fix>3d</fix>
</trkpt>
<trkpt lat="-35.3678327" lon="149.1643272">
  <ele>610.01</ele>
  <time>2026-08-28T19:09:55Z</time>
  <course>46.66</course>
  <speed>10.494403270315088</speed>
  <fix>3d</fix>
</trkpt>
<trkpt lat="-35.36784" lon="149.1643154">
  <ele>609.93</ele>
  <time>2026-08-28T19:09:55Z</time>
  <course>52.78</course>
  <speed>10.23</speed>
  <fix>3d</fix>
</trkpt>
<trkpt lat="-35.367821" lon="149.164346">
  <ele>610.01</ele>
  <time>2026-08-28T19:09:55Z</time>
  <course>46.19</course>
  <speed>10.952844379429482</speed>
  <fix>3d</fix>
</trkpt>
<trkpt lat="-35.3678287" lon="149.1643338">
  <ele>609.92</ele>
  <time>2026-08-28T19:09:55Z</time>
  <course>52.67</course>
  <speed>10.7</speed>
  <fix>3d</fix>
</trkpt>
<trkpt lat="-35.3678088" lon="149.1643654">
  <ele>610.02</ele>
  <time>2026-08-28T19:09:55Z</time>
  <course>45.94</course>
  <speed>11.361425966840606</speed>
  <fix>3d</fix>
</trkpt>
<trkpt lat="-35.3678168" lon="149.1643529">
  <ele>609.92</ele>
  <time>2026-08-28T19:09:55Z</time>
  <course>52.48</course>
  <speed>11.15</speed>
  <fix>3d</fix>
</trkpt>
<trkpt lat="-35.367796" lon="149.1643856">
  <ele>610.05</ele>
  <time>2026-08-28T19:09:55Z</time>
  <course>45.99</course>
  <speed>11.704379522213042</speed>
  <fix>3d</fix>
</trkpt>
<trkpt lat="-35.3678043" lon="149.1643727">
  <ele>609.93</ele>
  <time>2026-08-28T19:09:55Z</time>
  <course>52.26</course>
  <speed>11.54</speed>
  <fix>3d</fix>
</trkpt>
<trkpt lat="-35.3677829" lon="149.1644062">
  <ele>610.08</ele>
  <time>2026-08-28T19:09:55Z</time>
  <course>46.28</course>
  <speed>12.005407115129415</speed>
  <fix>3d</fix>
</trkpt>
<trkpt lat="-35.3677914" lon="149.164393">
  <ele>609.95</ele>
  <time>2026-08-28T19:09:55Z</time>
  <course>52.05</course>
  <speed>11.88</speed>
  <fix>3d</fix>
</trkpt>
<trkpt lat="-35.3677692" lon="149.1644275">
  <ele>610.1</ele>
  <time>2026-08-28T19:09:55Z</time>
  <course>46.7</course>
  <speed>12.25202432253544</speed>
  <fix>3d</fix>
</trkpt>
<trkpt lat="-35.367778" lon="149.1644139">
  <ele>609.98</ele>
  <time>2026-08-28T19:09:55Z</time>
  <course>51.88</course>
  <speed>12.17</speed>
  <fix>3d</fix>
</trkpt>
<trkpt lat="-35.3677553" lon="149.1644491">
  <ele>610.13</ele>
  <time>2026-08-28T19:09:55Z</time>
  <course>47.15</course>
  <speed>12.47058138179612</speed>
  <fix>3d</fix>
</trkpt>
<trkpt lat="-35.3677644" lon="149.1644352">
  <ele>610.0</ele>
  <time>2026-08-28T19:09:55Z</time>
  <course>51.77</course>
  <speed>12.4</speed>
  <fix>3d</fix>
</trkpt>
<trkpt lat="-35.3677412" lon="149.164471">
  <ele>610.16</ele>
  <time>2026-08-28T19:09:55Z</time>
  <course>47.62</course>
  <speed>12.632960856426335</speed>
  <fix>3d</fix>
</trkpt>
<trkpt lat="-35.3677504" lon="149.1644569">
  <ele>610.03</ele>
  <time>2026-08-28T19:09:55Z</time>
  <course>51.7</course>
  <speed>12.59</speed>
  <fix>3d</fix>
</trkpt>
<trkpt lat="-35.3677269" lon="149.1644931">
  <ele>610.19</ele>
  <time>2026-08-28T19:09:55Z</time>
  <course>48.16</course>
  <speed>12.761022686289685</speed>
  <fix>3d</fix>
</trkpt>
<trkpt lat="-35.3677363" lon="149.1644789">
  <ele>610.06</ele>
  <time>2026-08-28T19:09:55Z</time>
  <course>51.65</course>
  <speed>12.75</speed>
  <fix>3d</fix>
</trkpt>
<trkpt lat="-35.3677126" lon="149.1645153">
  <ele>610.22</ele>
  <time>2026-08-28T19:09:55Z</time>
  <course>48.73</course>
  <speed>12.839104330131445</speed>
  <fix>3d</fix>
</trkpt>
<trkpt lat="-35.367722" lon="149.164501">
  <ele>610.08</ele>
  <time>2026-08-28T19:09:55Z</time>
  <course>51.63</course>
  <speed>12.85</speed>
  <fix>3d</fix>
</trkpt>
<trkpt lat="-35.3676982" lon="149.1645377">
  <ele>610.24</ele>
  <time>2026-08-28T19:09:55Z</time>
  <course>49.32</course>
  <speed>12.88908452916653</speed>
  <fix>3d</fix>
</trkpt>
<trkpt lat="-35.3677076" lon="149.1645232">
  <ele>610.11</ele>
  <time>2026-08-28T19:09:55Z</time>
  <course>51.63</course>
  <speed>12.92</speed>
  <fix>3d</fix>
</trkpt>
<trkpt lat="-35.3676837" lon="149.16456">
  <ele>610.26</ele>
  <time>2026-08-28T19:09:55Z</time>
  <course>49.89</course>
  <speed>12.88908452916653</speed>
  <fix>3d</fix>
</trkpt>
<trkpt lat="-35.3676932" lon="149.1645456">
  <ele>610.14</ele>
  <time>2026-08-28T19:09:55Z</time>
  <course>51.64</course>
  <speed>12.95</speed>
  <fix>3d</fix>
</trkpt>
<trkpt lat="-35.3676693" lon="149.1645824">
  <ele>610.27</ele>
  <time>2026-08-28T19:09:55Z</time>
  <course>50.45</course>
  <speed>12.868815019262652</speed>
  <fix>3d</fix>
</trkpt>
<trkpt lat="-35.3676788" lon="149.1645679">
  <ele>610.16</ele>
  <time>2026-08-28T19:09:55Z</time>
  <course>51.67</course>
  <speed>12.95</speed>
  <fix>3d</fix>
</trkpt>
<trkpt lat="-35.367655" lon="149.1646046">
  <ele>610.27</ele>
  <time>2026-08-28T19:09:55Z</time>
  <course>50.96</course>
  <speed>12.820456310131867</speed>
  <fix>3d</fix>
</trkpt>
<trkpt lat="-35.3676643" lon="149.1645903">
  <ele>610.17</ele>
  <time>2026-08-28T19:09:55Z</time>
  <course>51.7</course>
  <speed>12.91</speed>
  <fix>3d</fix>
</trkpt>
<trkpt lat="-35.3676407" lon="149.1646268">
  <ele>610.27</ele>
  <time>2026-08-28T19:09:55Z</time>
  <course>51.27</course>
  <speed>12.778313660260496</speed>
  <fix>3d</fix>
</trkpt>
<trkpt lat="-35.36765" lon="149.1646126">
  <ele>610.18</ele>
  <time>2026-08-28T19:09:55Z</time>
  <course>51.73</course>
  <speed>12.86</speed>
  <fix>3d</fix>
</trkpt>
<trkpt lat="-35.3676263" lon="149.1646492">
  <ele>610.25</ele>
  <time>2026-08-28T19:09:55Z</time>
  <course>51.33</course>
  <speed>12.742378113994263</speed>
  <fix>3d</fix>
</trkpt>
<trkpt lat="-35.3676358" lon="149.1646348">
  <ele>610.18</ele>
  <time>2026-08-28T19:09:55Z</time>
  <course>51.74</course>
  <speed>12.81</speed>
  <fix>3d</fix>
</trkpt>
<trkpt lat="-35.3676121" lon="149.1646713">
  <ele>610.23</ele>
  <time>2026-08-28T19:09:55Z</time>
  <course>51.18</course>
  <speed>12.734539646174888</speed>
  <fix>3d</fix>
</trkpt>
<trkpt lat="-35.3676215" lon="149.1646569">
  <ele>610.17</ele>
  <time>2026-08-28T19:09:55Z</time>
  <course>51.73</course>
  <speed>12.78</speed>
  <fix>3d</fix>
</trkpt>
<trkpt lat="-35.3675979" lon="149.1646934">
  <ele>610.2</ele>
  <time>2026-08-28T19:09:55Z</time>
  <course>50.91</course>
  <speed>12.739144398271023</speed>
  <fix>3d</fix>
</trkpt>
<trkpt lat="-35.3676073" lon="149.1646791">
  <ele>610.14</ele>
  <time>2026-08-28T19:09:55Z</time>
  <course>51.67</course>
  <speed>12.76</speed>
  <fix>3d</fix>
</trkpt>
<trkpt lat="-35.3675836" lon="149.1647155">
  <ele>610.18</ele>
  <time>2026-08-28T19:09:55Z</time>
  <course>50.56</course>
  <speed>12.756272966662323</speed>
  <fix>3d</fix>
</trkpt>
<trkpt lat="-35.367593" lon="149.1647012">
  <ele>610.12</ele>
  <time>2026-08-28T19:09:55Z</time>
  <course>51.55</course>
  <speed>12.77</speed>
  <fix>3d</fix>
</trkpt>
<trkpt lat="-35.3675692" lon="149.1647375">
  <ele>610.15</ele>
  <time>2026-08-28T19:09:55Z</time>
  <course>50.2</course>
  <speed>12.781302750502391</speed>
  <fix>3d</fix>
</trkpt>
<trkpt lat="-35.3675787" lon="149.1647232">
  <ele>610.1</ele>
  <time>2026-08-28T19:09:55Z</time>
  <course>51.38</course>
  <speed>12.78</speed>
  <fix>3d</fix>
</trkpt>
<trkpt lat="-35.3675548" lon="149.1647595">
  <ele>610.14</ele>
  <time>2026-08-28T19:09:55Z</time>
  <course>49.88</course>
  <speed>12.811221643543602</speed>
  <fix>3d</fix>
</trkpt>
<trkpt lat="-35.3675644" lon="149.1647452">
  <ele>610.08</ele>
  <time>2026-08-28T19:09:55Z</time>
  <course>51.19</course>
  <speed>12.8</speed>
  <fix>3d</fix>
</trkpt>
<trkpt lat="-35.3675403" lon="149.1647814">
  <ele>610.13</ele>
  <time>2026-08-28T19:09:55Z</time>
  <course>49.61</course>
  <speed>12.828706092198074</speed>
  <fix>3d</fix>
</trkpt>
<trkpt lat="-35.3675499" lon="149.1647672">
  <ele>610.07</ele>
  <time>2026-08-28T19:09:55Z</time>
  <course>50.97</course>
  <speed>12.83</speed>
  <fix>3d</fix>
</trkpt>
<trkpt lat="-35.3675257" lon="149.1648033">
  <ele>610.12</ele>
  <time>2026-08-28T19:09:55Z</time>
  <course>49.3</course>
  <speed>12.860373244972324</speed>
  <fix>3d</fix>
</trkpt>
<trkpt lat="-35.3675354" lon="149.1647891">
  <ele>610.07</ele>
  <time>2026-08-28T19:09:55Z</time>
  <course>50.77</course>
  <speed>12.85</speed>
  <fix>3d</fix>
</trkpt>
<trkpt lat="-35.3675111" lon="149.1648251">
  <ele>610.12</ele>
  <time>2026-08-28T19:09:55Z</time>
  <course>49.06</course>
  <speed>12.89215653023186</speed>
  <fix>3d</fix>
</trkpt>
<trkpt lat="-35.3675207" lon="149.164811">
  <ele>610.07</ele>
  <time>2026-08-28T19:09:55Z</time>
  <course>50.59</course>
  <speed>12.88</speed>
  <fix>3d</fix>
</trkpt>
<trkpt lat="-35.3674964" lon="149.164847">
  <ele>610.12</ele>
  <time>2026-08-28T19:09:55Z</time>
  <course>48.84</course>
  <speed>12.925362664157628</speed>
  <fix>3d</fix>
</trkpt>
<trkpt lat="-35.367506" lon="149.1648329">
  <ele>610.07</ele>
  <time>2026-08-28T19:09:55Z</time>
  <course>50.43</course>
  <speed>12.92</speed>
  <fix>3d</fix>
</trkpt>
<trkpt lat="-35.3674815" lon="149.164869">
  <ele>610.12</ele>
  <time>2026-08-28T19:09:55Z</time>
  <course>48.67</course>
  <speed>12.972698254411068</speed>
  <fix>3d</fix>
</trkpt>
<trkpt lat="-35.3674911" lon="149.1648549">
  <ele>610.07</ele>
  <time>2026-08-28T19:09:55Z</time>
  <course>50.3</course>
  <speed>12.95</speed>
  <fix>3d</fix>
</trkpt>
<trkpt lat="-35.3674665" lon="149.1648911">
  <ele>610.13</ele>
  <time>2026-08-28T19:09:55Z</time>
  <course>48.54</course>
  <speed>13.00726719953119</speed>
  <fix>3d</fix>
</trkpt>
<trkpt lat="-35.3674762" lon="149.1648769">
  <ele>610.07</ele>
  <time>2026-08-28T19:09:55Z</time>
  <course>50.2</course>
  <speed>12.99</speed>
  <fix>3d</fix>
</trkpt>
<trkpt lat="-35.3674514" lon="149.1649132">
  <ele>610.15</ele>
  <time>2026-08-28T19:09:55Z</time>
  <course>48.51</course>
  <speed>13.04184419474485</speed>
  <fix>3d</fix>
</trkpt>
<trkpt lat="-35.3674612" lon="149.1648989">
  <ele>610.08</ele>
  <time>2026-08-28T19:09:55Z</time>
  <course>50.14</course>
  <speed>13.03</speed>
  <fix>3d</fix>
</trkpt>
<trkpt lat="-35.3674364" lon="149.1649353">
  <ele>610.16</ele>
  <time>2026-08-28T19:09:55Z</time>
  <course>48.59</course>
  <speed>13.070015302209862</speed>
  <fix>3d</fix>
</trkpt>
<trkpt lat="-35.3674462" lon="149.164921">
  <ele>610.09</ele>
  <time>2026-08-28T19:09:55Z</time>
  <course>50.11</course>
  <speed>13.06</speed>
  <fix>3d</fix>
</trkpt>
<trkpt lat="-35.3674213" lon="149.1649575">
  <ele>610.17</ele>
  <time>2026-08-28T19:09:55Z</time>
  <course>48.7</course>
  <speed>13.085369692905125</speed>
  <fix>3d</fix>
</trkpt>
<trkpt lat="-35.3674311" lon="149.1649431">
  <ele>610.1</ele>
  <time>2026-08-28T19:09:55Z</time>
  <course>50.11</course>
  <speed>13.08</speed>
  <fix>3d</fix>
</trkpt>
<trkpt lat="-35.3674063" lon="149.1649797">
  <ele>610.18</ele>
  <time>2026-08-28T19:09:55Z</time>
  <course>48.85</course>
  <speed>13.102034193208318</speed>
  <fix>3d</fix>
</trkpt>
<trkpt lat="-35.367416" lon="149.1649653">
  <ele>610.1</ele>
  <time>2026-08-28T19:09:55Z</time>
  <course>50.16</course>
  <speed>13.1</speed>
  <fix>3d</fix>
</trkpt>
<trkpt lat="-35.3673912" lon="149.1650019">
  <ele>610.18</ele>
  <time>2026-08-28T19:09:55Z</time>
  <course>49.04</course>
  <speed>13.111048775746356</speed>
  <fix>3d</fix>
</trkpt>
<trkpt lat="-35.367401" lon="149.1649875">
  <ele>610.11</ele>
  <time>2026-08-28T19:09:55Z</time>
  <course>50.24</course>
  <speed>13.11</speed>
  <fix>3d</fix>
</trkpt>
<trkpt lat="-35.3673762" lon="149.1650242">
  <ele>610.18</ele>
  <time>2026-08-28T19:09:55Z</time>
  <course>49.21</course>
  <speed>13.113733259449806</speed>
  <fix>3d</fix>
</trkpt>
<trkpt lat="-35.3673859" lon="149.1650097">
  <ele>610.12</ele>
  <time>2026-08-28T19:09:55Z</time>
  <course>50.35</course>
  <speed>13.12</speed>
  <fix>3d</fix>
</trkpt>
<trkpt lat="-35.3673612" lon="149.1650465">
  <ele>610.18</ele>
  <time>2026-08-28T19:09:55Z</time>
  <course>49.44</course>
  <speed>13.116478185854616</speed>
  <fix>3d</fix>
</trkpt>
<trkpt lat="-35.3673709" lon="149.165032">
  <ele>610.12</ele>
  <time>2026-08-28T19:09:55Z</time>
  <course>50.47</course>
  <speed>13.13</speed>
  <fix>3d</fix>
</trkpt>
<trkpt lat="-35.3673463" lon="149.1650688">
  <ele>610.17</ele>
  <time>2026-08-28T19:09:55Z</time>
  <course>49.61</course>
  <speed>13.119283517021804</speed>
  <fix>3d</fix>
</trkpt>
<trkpt lat="-35.3673558" lon="149.1650543">
  <ele>610.12</ele>
  <time>2026-08-28T19:09:55Z</time>
  <course>50.61</course>
  <speed>13.13</speed>
  <fix>3d</fix>
</trkpt>
<trkpt lat="-35.3673314" lon="149.1650912">
  <ele>610.17</ele>
  <time>2026-08-28T19:09:55Z</time>
  <course>49.8</course>
  <speed>13.115841566594192</speed>
  <fix>3d</fix>
</trkpt>
<trkpt lat="-35.3673409" lon="149.1650768">
  <ele>610.13</ele>
  <time>2026-08-28T19:09:55Z</time>
  <course>50.74</course>
  <speed>13.13</speed>
  <fix>3d</fix>
</trkpt>
<trkpt lat="-35.3673164" lon="149.1651138">
  <ele>610.18</ele>
  <time>2026-08-28T19:09:55Z</time>
  <course>50.01</course>
  <speed>13.11101063991636</speed>
  <fix>3d</fix>
</trkpt>
<trkpt lat="-35.367326" lon="149.1650991">
  <ele>610.13</ele>
  <time>2026-08-28T19:09:55Z</time>
  <course>50.87</course>
  <speed>13.13</speed>
  <fix>3d</fix>
</trkpt>
<trkpt lat="-35.3673016" lon="149.1651363">
  <ele>610.18</ele>
  <time>2026-08-28T19:09:55Z</time>
  <course>50.21</course>
  <speed>13.107726728918328</speed>
  <fix>3d</fix>
</trkpt>
<trkpt lat="-35.3673111" lon="149.1651216">
  <ele>610.13</ele>
  <time>2026-08-28T19:09:55Z</time>
  <course>51.0</course>
  <speed>13.12</speed>
  <fix>3d</fix>
</trkpt>
<trkpt lat="-35.3672867" lon="149.1651589">
  <ele>610.17</ele>
  <time>2026-08-28T19:09:55Z</time>
  <course>50.41</course>
  <speed>13.088934257608601</speed>
  <fix>3d</fix>
</trkpt>
<trkpt lat="-35.3672964" lon="149.1651441">
  <ele>610.13</ele>
  <time>2026-08-28T19:09:55Z</time>
  <course>51.11</course>
  <speed>13.11</speed>
  <fix>3d</fix>
</trkpt>
<trkpt lat="-35.367272" lon="149.1651815">
  <ele>610.17</ele>
  <time>2026-08-28T19:09:56Z</time>
  <course>50.58</course>
  <speed>13.07018362533595</speed>
  <fix>3d</fix>
</trkpt>
<trkpt lat="-35.3672816" lon="149.1651666">
  <ele>610.14</ele>
  <time>2026-08-28T19:09:56Z</time>
  <course>51.22</course>
  <speed>13.09</speed>
  <fix>3d</fix>
</trkpt>
<trkpt lat="-35.3672573" lon="149.165204">
  <ele>610.18</ele>
  <time>2026-08-28T19:09:56Z</time>
  <course>50.76</course>
  <speed>13.043653629255878</speed>
  <fix>3d</fix>
</trkpt>
<trkpt lat="-35.3672669" lon="149.1651891">
  <ele>610.14</ele>
  <time>2026-08-28T19:09:56Z</time>
  <course>51.31</course>
  <speed>13.07</speed>
  <fix>3d</fix>
</trkpt>
<trkpt lat="-35.3672426" lon="149.1652265">
  <ele>610.19</ele>
  <time>2026-08-28T19:09:56Z</time>
  <course>50.9</course>
  <speed>13.023371299321845</speed>
  <fix>3d</fix>
</trkpt>
<trkpt lat="-35.3672522" lon="149.1652116">
  <ele>610.14</ele>
  <time>2026-08-28T19:09:56Z</time>
  <course>51.38</course>
  <speed>13.04</speed>
  <fix>3d</fix>
</trkpt>
<trkpt lat="-35.367228" lon="149.165249">
  <ele>610.19</ele>
  <time>2026-08-28T19:09:56Z</time>
  <course>51.04</course>
  <speed>12.989045384476874</speed>
  <fix>3d</fix>
</trkpt>
<trkpt lat="-35.3672376" lon="149.165234">
  <ele>610.15</ele>
  <time>2026-08-28T19:09:56Z</time>
  <course>51.44</course>
  <speed>13.01</speed>
  <fix>3d</fix>
</trkpt>
<trkpt lat="-35.3672135" lon="149.1652714">
  <ele>610.19</ele>
  <time>2026-08-28T19:09:56Z</time>
  <course>51.09</course>
  <speed>12.974995183043422</speed>
  <fix>3d</fix>
</trkpt>
<trkpt lat="-35.367223" lon="149.1652565">
  <ele>610.15</ele>
  <time>2026-08-28T19:09:56Z</time>
  <course>51.47</course>
  <speed>12.99</speed>
  <fix>3d</fix>
</trkpt>
<trkpt lat="-35.367199" lon="149.1652937">
  <ele>610.19</ele>
  <time>2026-08-28T19:09:56Z</time>
  <course>51.11</course>
  <speed>12.94689538074669</speed>
  <fix>3d</fix>
</trkpt>
<trkpt lat="-35.3672085" lon="149.1652788">
  <ele>610.15</ele>
  <time>2026-08-28T19:09:56Z</time>
  <course>51.49</course>
  <speed>12.96</speed>
  <fix>3d</fix>
</trkpt>
<trkpt lat="-35.3671845" lon="149.1653161">
  <ele>610.19</ele>
  <time>2026-08-28T19:09:56Z</time>
  <course>51.09</course>
  <speed>12.939064881203741</speed>
  <fix>3d</fix>
</trkpt>
<trkpt lat="-35.3671941" lon="149.1653011">
  <ele>610.14</ele>
  <time>2026-08-28T19:09:56Z</time>
  <course>51.49</course>
  <speed>12.94</speed>
  <fix>3d</fix>
</trkpt>
<trkpt lat="-35.3671699" lon="149.1653385">
  <ele>610.2</ele>
  <time>2026-08-28T19:09:56Z</time>
  <course>51.05</course>
  <speed>12.923412861933954</speed>
  <fix>3d</fix>
</trkpt>
<trkpt lat="-35.3671796" lon="149.1653234">
  <ele>610.14</ele>
  <time>2026-08-28T19:09:56Z</time>
  <course>51.46</course>
  <speed>12.93</speed>
  <fix>3d</fix>
</trkpt>
<trkpt lat="-35.3671554" lon="149.1653608">
  <ele>610.19</ele>
  <time>2026-08-28T19:09:56Z</time>
  <course>50.96</course>
  <speed>12.90777285204539</speed>
  <fix>3d</fix>
</trkpt>
<trkpt lat="-35.3671651" lon="149.1653457">
  <ele>610.13</ele>
  <time>2026-08-28T19:09:56Z</time>
  <course>51.41</course>
  <speed>12.91</speed>
  <fix>3d</fix>
</trkpt>
<trkpt lat="-35.3671409" lon="149.165383">
  <ele>610.19</ele>
  <time>2026-08-28T19:09:56Z</time>
  <course>50.85</course>
  <speed>12.90620006043607</speed>
  <fix>3d</fix>
</trkpt>
<trkpt lat="-35.3671506" lon="149.1653679">
  <ele>610.12</ele>
  <time>2026-08-28T19:09:56Z</time>
  <course>51.35</course>
  <speed>12.9</speed>
  <fix>3d</fix>
</trkpt>
<trkpt lat="-35.3671264" lon="149.1654052">
  <ele>610.19</ele>
  <time>2026-08-28T19:09:56Z</time>
  <course>50.79</course>
  <speed>12.890585712061341</speed>
  <fix>3d</fix>
</trkpt>
<trkpt lat="-35.3671361" lon="149.1653902">
  <ele>610.11</ele>
  <time>2026-08-28T19:09:56Z</time>
  <course>51.28</course>
  <speed>12.89</speed>
  <fix>3d</fix>
</trkpt>
<trkpt lat="-35.3671119" lon="149.1654272">
  <ele>610.18</ele>
  <time>2026-08-28T19:09:56Z</time>
  <course>50.66</course>
  <speed>12.881246057738359</speed>
  <fix>3d</fix>
</trkpt>
<trkpt lat="-35.3671216" lon="149.1654123">
  <ele>610.11</ele>
  <time>2026-08-28T19:09:56Z</time>
  <course>51.2</course>
  <speed>12.89</speed>
  <fix>3d</fix>
</trkpt>
<trkpt lat="-35.3670975" lon="149.1654492">
  <ele>610.17</ele>
  <time>2026-08-28T19:09:56Z</time>
  <course>50.49</course>
  <speed>12.893785324721364</speed>
  <fix>3d</fix>
</trkpt>
<trkpt lat="-35.3671071" lon="149.1654344">
  <ele>610.1</ele>
  <time>2026-08-28T19:09:56Z</time>
  <course>51.12</course>
  <speed>12.89</speed>
  <fix>3d</fix>
</trkpt>
<trkpt lat="-35.3670829" lon="149.1654713">
  <ele>610.16</ele>
  <time>2026-08-28T19:09:56Z</time>
  <course>50.27</course>
  <speed>12.89856581174822</speed>
  <fix>3d</fix>
</trkpt>
<trkpt lat="-35.3670926" lon="149.1654565">
  <ele>610.09</ele>
  <time>2026-08-28T19:09:56Z</time>
  <course>51.04</course>
  <speed>12.9</speed>
  <fix>3d</fix>
</trkpt>
<trkpt lat="-35.3670684" lon="149.1654933">
  <ele>610.15</ele>
  <time>2026-08-28T19:09:56Z</time>
  <course>50.08</course>
  <speed>12.911150219868096</speed>
  <fix>3d</fix>
</trkpt>
<trkpt lat="-35.367078" lon="149.1654786">
  <ele>610.08</ele>
  <time>2026-08-28T19:09:56Z</time>
  <course>50.96</course>
  <speed>12.92</speed>
  <fix>3d</fix>
</trkpt>
<trkpt lat="-35.3670538" lon="149.1655153">
  <ele>610.15</ele>
  <time>2026-08-28T19:09:56Z</time>
  <course>50.05</course>
  <speed>12.887858627405874</speed>
  <fix>3d</fix>
</trkpt>
<trkpt lat="-35.3670633" lon="149.1655007">
  <ele>610.08</ele>
  <time>2026-08-28T19:09:56Z</time>
  <course>50.88</course>
  <speed>12.92</speed>
  <fix>3d</fix>
</trkpt>
<trkpt lat="-35.3670393" lon="149.1655371">
  <ele>610.16</ele>
  <time>2026-08-28T19:09:56Z</time>
  <course>50.32</course>
  <speed>12.830140295413765</speed>
  <fix>3d</fix>
</trkpt>
<trkpt lat="-35.3670487" lon="149.1655228">
  <ele>610.08</ele>
  <time>2026-08-28T19:09:56Z</time>
  <course>50.81</course>
  <speed>12.9</speed>
  <fix>3d</fix>
</trkpt>
<trkpt lat="-35.3670248" lon="149.1655589">
  <ele>610.2</ele>
  <time>2026-08-28T19:09:56Z</time>
  <course>50.86</course>
  <speed>12.702082506423897</speed>
  <fix>3d</fix>
</trkpt>
<trkpt lat="-35.3670341" lon="149.1655448">
  <ele>610.11</ele>
  <time>2026-08-28T19:09:56Z</time>
  <course>50.76</course>
  <speed>12.82</speed>
  <fix>3d</fix>
</trkpt>
<trkpt lat="-35.3670103" lon="149.1655806">
  <ele>610.26</ele>
  <time>2026-08-28T19:09:56Z</time>
  <course>51.59</course>
  <speed>12.517751395518287</speed>
  <fix>3d</fix>
</trkpt>
<trkpt lat="-35.3670196" lon="149.1655665">
  <ele>610.15</ele>
  <time>2026-08-28T19:09:56Z</time>
  <course>50.76</course>
  <speed>12.69</speed>
  <fix>3d</fix>
</trkpt>
<trkpt lat="-35.3669962" lon="149.1656019">
  <ele>610.3</ele>
  <time>2026-08-28T19:09:56Z</time>
  <course>52.4</course>
  <speed>12.278619629258005</speed>
  <fix>3d</fix>
</trkpt>
<trkpt lat="-35.3670053" lon="149.165588">
  <ele>610.19</ele>
  <time>2026-08-28T19:09:56Z</time>
  <course>50.82</course>
  <speed>12.49</speed>
  <fix>3d</fix>
</trkpt>
<trkpt lat="-35.3669824" lon="149.1656228">
  <ele>610.35</ele>
  <time>2026-08-28T19:09:56Z</time>
  <course>53.22</course>
  <speed>11.983292535860084</speed>
  <fix>3d</fix>
</trkpt>
<trkpt lat="-35.3669912" lon="149.1656092">
  <ele>610.24</ele>
  <time>2026-08-28T19:09:56Z</time>
  <course>50.94</course>
  <speed>12.24</speed>
  <fix>3d</fix>
</trkpt>
<trkpt lat="-35.366969" lon="149.1656432">
  <ele>610.38</ele>
  <time>2026-08-28T19:09:56Z</time>
  <course>54.01</course>
  <speed>11.64587909949266</speed>
  <fix>3d</fix>
</trkpt>
<trkpt lat="-35.3669775" lon="149.16563">
  <ele>610.28</ele>
  <time>2026-08-28T19:09:56Z</time>
  <course>51.11</course>
  <speed>11.94</speed>
  <fix>3d</fix>
</trkpt>
<trkpt lat="-35.3669561" lon="149.165663">
  <ele>610.41</ele>
  <time>2026-08-28T19:09:56Z</time>
  <course>54.74</course>
  <speed>11.252381970054161</speed>
  <fix>3d</fix>
</trkpt>
<trkpt lat="-35.3669643" lon="149.1656501">
  <ele>610.31</ele>
  <time>2026-08-28T19:09:56Z</time>
  <course>51.31</course>
  <speed>11.58</speed>
  <fix>3d</fix>
</trkpt>
<trkpt lat="-35.3669437" lon="149.1656822">
  <ele>610.42</ele>
  <time>2026-08-28T19:09:56Z</time>
  <course>55.37</course>
  <speed>10.815271610089132</speed>
  <fix>3d</fix>
</trkpt>
<trkpt lat="-35.3669515" lon="149.1656698">
  <ele>610.33</ele>
  <time>2026-08-28T19:09:56Z</time>
  <course>51.51</course>
  <speed>11.18</speed>
  <fix>3d</fix>
</trkpt>
<trkpt lat="-35.3669318" lon="149.1657006">
  <ele>610.43</ele>
  <time>2026-08-28T19:09:56Z</time>
  <course>55.9</course>
  <speed>10.34234016071798</speed>
  <fix>3d</fix>
</trkpt>
<trkpt lat="-35.3669393" lon="149.1656887">
  <ele>610.35</ele>
  <time>2026-08-28T19:09:56Z</time>
  <course>51.72</course>
  <speed>10.73</speed>
  <fix>3d</fix>
</trkpt>
<trkpt lat="-35.3669206" lon="149.1657182">
  <ele>610.42</ele>
  <time>2026-08-28T19:09:56Z</time>
  <course>56.33</course>
  <speed>9.817800160932183</speed>
  <fix>3d</fix>
</trkpt>
<trkpt lat="-35.3669276" lon="149.1657068">
  <ele>610.35</ele>
  <time>2026-08-28T19:09:56Z</time>
  <course>51.91</course>
  <speed>10.23</speed>
  <fix>3d</fix>
</trkpt>
<trkpt lat="-35.36691" lon="149.1657348">
  <ele>610.41</ele>
  <time>2026-08-28T19:09:56Z</time>
  <course>56.66</course>
  <speed>9.257348432461642</speed>
  <fix>3d</fix>
</trkpt>
<trkpt lat="-35.3669166" lon="149.1657242">
  <ele>610.34</ele>
  <time>2026-08-28T19:09:56Z</time>
  <course>52.07</course>
  <speed>9.7</speed>
  <fix>3d</fix>
</trkpt>
<trkpt lat="-35.3669" lon="149.1657505">
  <ele>610.39</ele>
  <time>2026-08-28T19:09:56Z</time>
  <course>56.86</course>
  <speed>8.675004322765494</speed>
  <fix>3d</fix>
</trkpt>
<trkpt lat="-35.3669062" lon="149.1657405">
  <ele>610.33</ele>
  <time>2026-08-28T19:09:56Z</time>
  <course>52.19</course>
  <speed>9.12</speed>
  <fix>3d</fix>
</trkpt>
<trkpt lat="-35.3668907" lon="149.1657653">
  <ele>610.37</ele>
  <time>2026-08-28T19:09:56Z</time>
  <course>56.85</course>
  <speed>8.090889938690305</speed>
  <fix>3d</fix>
</trkpt>
<trkpt lat="-35.3668965" lon="149.1657559">
  <ele>610.31</ele>
  <time>2026-08-28T19:09:56Z</time>
  <course>52.28</course>
  <speed>8.54</speed>
  <fix>3d</fix>
</trkpt>
<trkpt lat="-35.366882" lon="149.1657791">
  <ele>610.33</ele>
  <time>2026-08-28T19:09:56Z</time>
  <course>56.56</course>
  <speed>7.526925002947751</speed>
  <fix>3d</fix>
</trkpt>
<trkpt lat="-35.3668875" lon="149.1657703">
  <ele>610.28</ele>
  <time>2026-08-28T19:09:56Z</time>
  <course>52.32</course>
  <speed>7.96</speed>
  <fix>3d</fix>
</trkpt>
<trkpt lat="-35.3668739" lon="149.1657918">
  <ele>610.28</ele>
  <time>2026-08-28T19:09:56Z</time>
  <course>56.0</course>
  <speed>6.989284655814213</speed>
  <fix>3d</fix>
</trkpt>
<trkpt lat="-35.366879" lon="149.1657837">
  <ele>610.23</ele>
  <time>2026-08-28T19:09:56Z</time>
  <course>52.25</course>
  <speed>7.39</speed>
  <fix>3d</fix>
</trkpt>
<trkpt lat="-35.3668664" lon="149.1658035">
  <ele>610.23</ele>
  <time>2026-08-28T19:09:56Z</time>
  <course>55.07</course>
  <speed>6.49526750796301</speed>
  <fix>3d</fix>
</trkpt>
<trkpt lat="-35.3668712" lon="149.1657961">
  <ele>610.18</ele>
  <time>2026-08-28T19:09:56Z</time>
  <course>51.91</course>
  <speed>6.86</speed>
  <fix>3d</fix>
</trkpt>
<trkpt lat="-35.3668592" lon="149.1658143">
  <ele>610.18</ele>
  <time>2026-08-28T19:09:56Z</time>
  <course>53.64</course>
  <speed>6.0343848070868</speed>
  <fix>3d</fix>
</trkpt>
<trkpt lat="-35.3668638" lon="149.1658075">
  <ele>610.13</ele>
  <time>2026-08-28T19:09:56Z</time>
  <course>51.12</course>
  <speed>6.36</speed>
  <fix>3d</fix>
</trkpt>
<trkpt lat="-35.3668523" lon="149.1658241">
  <ele>610.13</ele>
  <time>2026-08-28T19:09:56Z</time>
  <course>51.53</course>
  <speed>5.622277118748238</speed>
  <fix>3d</fix>
</trkpt>
<trkpt lat="-35.3668567" lon="149.1658179">
  <ele>610.08</ele>
  <time>2026-08-28T19:09:56Z</time>
  <course>49.68</course>
  <speed>5.9</speed>
  <fix>3d</fix>
</trkpt>
<trkpt lat="-35.3668456" lon="149.1658329">
  <ele>610.1</ele>
  <time>2026-08-28T19:09:56Z</time>
  <course>48.65</course>
  <speed>5.253846210158802</speed>
  <fix>3d</fix>
</trkpt>
<trkpt lat="-35.36685" lon="149.1658274">
  <ele>610.05</ele>
  <time>2026-08-28T19:09:56Z</time>
  <course>47.46</course>
  <speed>5.5</speed>
  <fix>3d</fix>
</trkpt>
<trkpt lat="-35.366839" lon="149.1658406">
  <ele>610.07</ele>
  <time>2026-08-28T19:09:56Z</time>
  <course>44.99</course>
  <speed>4.945401904800054</speed>
  <fix>3d</fix>
</trkpt>
<trkpt lat="-35.3668433" lon="149.1658358">
  <ele>610.01</ele>
  <time>2026-08-28T19:09:56Z</time>
  <course>44.35</course>
  <speed>5.14</speed>
  <fix>3d</fix>
</trkpt>
<trkpt lat="-35.3668323" lon="149.1658474">
  <ele>610.06</ele>
  <time>2026-08-28T19:09:56Z</time>
  <course>40.59</course>
  <speed>4.7</speed>
  <fix>3d</fix>
</trkpt>
<trkpt lat="-35.3668368" lon="149.1658432">
  <ele>609.99</ele>
  <time>2026-08-28T19:09:56Z</time>
  <course>40.35</course>
  <speed>4.84</speed>
  <fix>3d</fix>
</trkpt>
<trkpt lat="-35.3668255" lon="149.1658531">
  <ele>610.05</ele>
  <time>2026-08-28T19:09:56Z</time>
  <course>35.45</course>
  <speed>4.515761286870687</speed>
  <fix>3d</fix>
</trkpt>
<trkpt lat="-35.3668301" lon="149.1658496">
  <ele>609.97</ele>
  <time>2026-08-28T19:09:56Z</time>
  <course>35.48</course>
  <speed>4.6</speed>
  <fix>3d</fix>
</trkpt>
<trkpt lat="-35.3668184" lon="149.1658579">
  <ele>610.04</ele>
  <time>2026-08-28T19:09:56Z</time>
  <course>29.69</course>
  <speed>4.419287272852943</speed>
  <fix>3d</fix>
</trkpt>
<trkpt lat="-35.3668232" lon="149.165855">
  <ele>609.96</ele>
  <time>2026-08-28T19:09:56Z</time>
  <course>29.87</course>
  <speed>4.44</speed>
  <fix>3d</fix>
</trkpt>
<trkpt lat="-35.3668111" lon="149.1658616">
  <ele>610.03</ele>
  <time>2026-08-28T19:09:56Z</time>
  <course>23.42</course>
  <speed>4.396020928066653</speed>
  <fix>3d</fix>
</trkpt>
<trkpt lat="-35.3668162" lon="149.1658593">
  <ele>609.96</ele>
  <time>2026-08-28T19:09:56Z</time>
  <course>23.71</course>
  <speed>4.36</speed>
  <fix>3d</fix>
</trkpt>
<trkpt lat="-35.3668035" lon="149.1658643">
  <ele>610.02</ele>
  <time>2026-08-28T19:09:56Z</time>
  <course>16.87</course>
  <speed>4.473209138862166</speed>
  <fix>3d</fix>
</trkpt>
<trkpt lat="-35.3668089" lon="149.1658627">
  <ele>609.95</ele>
  <time>2026-08-28T19:09:56Z</time>
  <course>17.3</course>
  <speed>4.37</speed>
  <fix>3d</fix>
</trkpt>
<trkpt lat="-35.3667955" lon="149.1658661">
  <ele>610.01</ele>
  <time>2026-08-28T19:09:56Z</time>
  <course>10.46</course>
  <speed>4.646342647717665</speed>
  <fix>3d</fix>
</trkpt>
<trkpt lat="-35.3668012" lon="149.1658651">
  <ele>609.95</ele>
  <time>2026-08-28T19:09:56Z</time>
  <course>11.04</course>
  <speed>4.48</speed>
  <fix>3d</fix>
</trkpt>
<trkpt lat="-35.3667871" lon="149.1658669">
  <ele>610.01</ele>
  <time>2026-08-28T19:09:56Z</time>
  <course>4.64</course>
  <speed>4.904079934095692</speed>
  <fix>3d</fix>
</trkpt>
<trkpt lat="-35.366793" lon="149.1658665">
  <ele>609.94</ele>
  <time>2026-08-28T19:09:56Z</time>
  <course>5.42</course>
  <speed>4.68</speed>
  <fix>3d</fix>
</trkpt>
<trkpt lat="-35.366778" lon="149.165867">
  <ele>610.0</ele>
  <time>2026-08-28T19:09:56Z</time>
  <course>359.69</course>
  <speed>5.231615429291415</speed>
  <fix>3d</fix>
</trkpt>
<trkpt lat="-35.3667844" lon="149.165867">
  <ele>609.93</ele>
  <time>2026-08-28T19:09:56Z</time>
  <course>0.78</course>
  <speed>4.96</speed>
  <fix>3d</fix>
</trkpt>
<trkpt lat="-35.3667684" lon="149.1658663">
  <ele>610.0</ele>
  <time>2026-08-28T19:09:56Z</time>
  <course>355.75</course>
  <speed>5.595784127358738</speed>
  <fix>3d</fix>
</trkpt>
<trkpt lat="-35.3667751" lon="149.1658669">
  <ele>609.93</ele>
  <time>2026-08-28T19:09:56Z</time>
  <course>357.18</course>
  <speed>5.31</speed>
  <fix>3d</fix>
</trkpt>
<trkpt lat="-35.3667582" lon="149.1658651">
  <ele>610.0</ele>
  <time>2026-08-28T19:09:56Z</time>
  <course>352.82</course>
  <speed>5.966615456018596</speed>
  <fix>3d</fix>
</trkpt>
<trkpt lat="-35.3667653" lon="149.1658661">
  <ele>609.93</ele>
  <time>2026-08-28T19:09:56Z</time>
  <course>354.53</course>
  <speed>5.69</speed>
  <fix>3d</fix>
</trkpt>
<trkpt lat="-35.3667472" lon="149.1658635">
  <ele>610.01</ele>
  <time>2026-08-28T19:09:56Z</time>
  <course>350.79</course>
  <speed>6.357082664241514</speed>
  <fix>3d</fix>
</trkpt>
<trkpt lat="-35.3667547" lon="149.1658646">
  <ele>609.93</ele>
  <time>2026-08-28T19:09:56Z</time>
  <course>352.71</course>
  <speed>6.08</speed>
  <fix>3d</fix>
</trkpt>
<trkpt lat="-35.3667357" lon="149.1658614">
  <ele>610.01</ele>
  <time>2026-08-28T19:09:56Z</time>
  <course>349.39</course>
  <speed>6.743070517205052</speed>
  <fix>3d</fix>
</trkpt>
<trkpt lat="-35.3667436" lon="149.1658627">
  <ele>609.93</ele>
  <time>2026-08-28T19:09:56Z</time>
  <course>351.55</course>
  <speed>6.47</speed>
  <fix>3d</fix>
</trkpt>
<trkpt lat="-35.3667234" lon="149.165859">
  <ele>610.02</ele>
  <time>2026-08-28T19:09:56Z</time>
  <course>348.44</course>
  <speed>7.143647527698997</speed>
  <fix>3d</fix>
</trkpt>
<trkpt lat="-35.3667317" lon="149.1658605">
  <ele>609.94</ele>
  <time>2026-08-28T19:09:56Z</time>
  <course>350.93</course>
  <speed>6.88</speed>
  <fix>3d</fix>
</trkpt>
<trkpt lat="-35.3667103" lon="149.1658565">
  <ele>610.02</ele>
  <time>2026-08-28T19:09:56Z</time>
  <course>347.8</course>
  <speed>7.569412130410128</speed>
  <fix>3d</fix>
</trkpt>
<trkpt lat="-35.3667192" lon="149.165858">
  <ele>609.94</ele>
  <time>2026-08-28T19:09:56Z</time>
  <course>350.71</course>
  <speed>7.29</speed>
  <fix>3d</fix>
</trkpt>
<trkpt lat="-35.3666965" lon="149.1658538">
  <ele>610.03</ele>
  <time>2026-08-28T19:09:56Z</time>
  <course>347.4</course>
  <speed>8.000506233982948</speed>
  <fix>3d</fix>
</trkpt>
<trkpt lat="-35.3667059" lon="149.1658553">
  <ele>609.95</ele>
  <time>2026-08-28T19:09:56Z</time>
  <course>350.8</course>
  <speed>7.72</speed>
  <fix>3d</fix>
</trkpt>
<trkpt lat="-35.3666818" lon="149.165851">
  <ele>610.03</ele>
  <time>2026-08-28T19:09:56Z</time>
  <course>347.15</course>
  <speed>8.457008927510955</speed>
  <fix>3d</fix>
</trkpt>
<trkpt lat="-35.3666918" lon="149.1658525">
  <ele>609.95</ele>
  <time>2026-08-28T19:09:56Z</time>
  <course>351.1</course>
  <speed>8.16</speed>
  <fix>3d</fix>
</trkpt>
<trkpt lat="-35.3666663" lon="149.1658482">
  <ele>610.02</ele>
  <time>2026-08-28T19:09:56Z</time>
  <course>347.11</course>
  <speed>8.930985387962517</speed>
  <fix>3d</fix>
</trkpt>
<trkpt lat="-35.3666768" lon="149.1658497">
  <ele>609.94</ele>
  <time>2026-08-28T19:09:56Z</time>
  <course>351.56</course>
  <speed>8.62</speed>
  <fix>3d</fix>
</trkpt>
<trkpt lat="-35.36665" lon="149.1658455">
  <ele>610.02</ele>
  <time>2026-08-28T19:09:56Z</time>
  <course>347.22</course>
  <speed>9.42416574557133</speed>
  <fix>3d</fix>
</trkpt>
<trkpt lat="-35.3666611" lon="149.1658469">
  <ele>609.94</ele>
  <time>2026-08-28T19:09:56Z</time>
  <course>352.1</course>
  <speed>9.1</speed>
  <fix>3d</fix>
</trkpt>
<trkpt lat="-35.3666327" lon="149.1658428">
  <ele>610.01</ele>
  <time>2026-08-28T19:09:56Z</time>
  <course>347.3</course>
  <speed>9.919243922799762</speed>
  <fix>3d</fix>
</trkpt>
<trkpt lat="-35.3666444" lon="149.1658442">
  <ele>609.93</ele>
  <time>2026-08-28T19:09:56Z</time>
  <course>352.63</course>
  <speed>9.6</speed>
  <fix>3d</fix>
</trkpt>
<trkpt lat="-35.3666145" lon="149.1658401">
  <ele>610.01</ele>
  <time>2026-08-28T19:09:56Z</time>
  <course>347.2</course>
  <speed>10.417048526334126</speed>
  <fix>3d</fix>
</trkpt>
<trkpt lat="-35.3666269" lon="149.1658415">
  <ele>609.92</ele>
  <time>2026-08-28T19:09:56Z</time>
  <course>353.06</course>
  <speed>10.1</speed>
  <fix>3d</fix>
</trkpt>
<trkpt lat="-35.3665955" lon="149.1658373">
  <ele>610.01</ele>
  <time>2026-08-28T19:09:56Z</time>
  <course>347.02</course>
  <speed>10.898499896774785</speed>
  <fix>3d</fix>
</trkpt>
<trkpt lat="-35.3666084" lon="149.1658388">
  <ele>609.91</ele>
  <time>2026-08-28T19:09:56Z</time>
  <course>353.34</course>
  <speed>10.6</speed>
  <fix>3d</fix>
</trkpt>
<trkpt lat="-35.3665757" lon="149.1658345">
  <ele>610.01</ele>
  <time>2026-08-28T19:09:56Z</time>
  <course>347.01</course>
  <speed>11.341331491496048</speed>
  <fix>3d</fix>
</trkpt>
<trkpt lat="-35.3665891" lon="149.165836">
  <ele>609.91</ele>
  <time>2026-08-28T19:09:56Z</time>
  <course>353.47</course>
  <speed>11.07</speed>
  <fix>3d</fix>
</trkpt>
<trkpt lat="-35.3665551" lon="149.1658316">
  <ele>610.03</ele>
  <time>2026-08-28T19:09:56Z</time>
  <course>347.21</course>
  <speed>11.724542635002868</speed>
  <fix>3d</fix>
</trkpt>
<trkpt lat="-35.3665689" lon="149.1658333">
  <ele>609.92</ele>
  <time>2026-08-28T19:09:56Z</time>
  <course>353.49</course>
  <speed>11.5</speed>
  <fix>3d</fix>
</trkpt>
<trkpt lat="-35.3665337" lon="149.1658285">
  <ele>610.06</ele>
  <time>2026-08-28T19:09:56Z</time>
  <course>347.7</course>
  <speed>12.03820999982971</speed>
  <fix>3d</fix>
</trkpt>
<trkpt lat="-35.3665479" lon="149.1658304">
  <ele>609.94</ele>
  <time>2026-08-28T19:09:56Z</time>
  <course>353.46</course>
  <speed>11.87</speed>
  <fix>3d</fix>
</trkpt>
<trkpt lat="-35.3665119" lon="149.1658254">
  <ele>610.09</ele>
  <time>2026-08-28T19:09:56Z</time>
  <course>348.36</course>
  <speed>12.291143152693326</speed>
  <fix>3d</fix>
</trkpt>
<trkpt lat="-35.3665265" lon="149.1658273">
  <ele>609.96</ele>
  <time>2026-08-28T19:09:56Z</time>
  <course>353.42</course>
  <speed>12.18</speed>
  <fix>3d</fix>
</trkpt>
<trkpt lat="-35.3664896" lon="149.1658222">
  <ele>610.12</ele>
  <time>2026-08-28T19:09:56Z</time>
  <course>349.07</course>
  <speed>12.493266186230084</speed>
  <fix>3d</fix>
</trkpt>
<trkpt lat="-35.3665045" lon="149.1658241">
  <ele>610.0</ele>
  <time>2026-08-28T19:09:56Z</time>
  <course>353.4</course>
  <speed>12.42</speed>
  <fix>3d</fix>
</trkpt>
<trkpt lat="-35.3664672" lon="149.165819">
  <ele>610.16</ele>
  <time>2026-08-28T19:09:56Z</time>
  <course>349.73</course>
  <speed>12.654505126633756</speed>
  <fix>3d</fix>
</trkpt>
<trkpt lat="-35.3664821" lon="149.165821">
  <ele>610.03</ele>
  <time>2026-08-28T19:09:56Z</time>
  <course>353.39</course>
  <speed>12.62</speed>
  <fix>3d</fix>
</trkpt>
<trkpt lat="-35.3664445" lon="149.1658158">
  <ele>610.19</ele>
  <time>2026-08-28T19:09:56Z</time>
  <course>350.31</course>
  <speed>12.76492459828886</speed>
  <fix>3d</fix>
</trkpt>
<trkpt lat="-35.3664595" lon="149.1658178">
  <ele>610.06</ele>
  <time>2026-08-28T19:09:56Z</time>
  <course>353.4</course>
  <speed>12.77</speed>
  <fix>3d</fix>
</trkpt>
<trkpt lat="-35.3664216" lon="149.1658125">
  <ele>610.21</ele>
  <time>2026-08-28T19:09:56Z</time>
  <course>350.83</course>
  <speed>12.855477431818704</speed>
  <fix>3d</fix>
</trkpt>
<trkpt lat="-35.3664366" lon="149.1658145">
  <ele>610.09</ele>
  <time>2026-08-28T19:09:56Z</time>
  <course>353.4</course>
  <speed>12.88</speed>
  <fix>3d</fix>
</trkpt>
<trkpt lat="-35.3663985" lon="149.1658092">
  <ele>610.23</ele>
  <time>2026-08-28T19:09:56Z</time>
  <course>351.31</course>
  <speed>12.906296912747669</speed>
  <fix>3d</fix>
</trkpt>
<trkpt lat="-35.3664135" lon="149.1658113">
  <ele>610.12</ele>
  <time>2026-08-28T19:09:56Z</time>
  <course>353.39</course>
  <speed>12.95</speed>
  <fix>3d</fix>
</trkpt>
<trkpt lat="-35.3663754" lon="149.1658059">
  <ele>610.25</ele>
  <time>2026-08-28T19:09:56Z</time>
  <course>351.78</course>
  <speed>12.928484056531918</speed>
  <fix>3d</fix>
</trkpt>
<trkpt lat="-35.3663904" lon="149.165808">
  <ele>610.14</ele>
  <time>2026-08-28T19:09:56Z</time>
  <course>353.37</course>
  <speed>13.0</speed>
  <fix>3d</fix>
</trkpt>
<trkpt lat="-35.3663523" lon="149.1658025">
  <ele>610.27</ele>
  <time>2026-08-28T19:09:56Z</time>
  <course>352.24</course>
  <speed>12.909794731133411</speed>
  <fix>3d</fix>
</trkpt>
<trkpt lat="-35.3663672" lon="149.1658046">
  <ele>610.15</ele>
  <time>2026-08-28T19:09:56Z</time>
  <course>353.33</course>
  <speed>13.0</speed>
  <fix>3d</fix>
</trkpt>
<trkpt lat="-35.3663293" lon="149.1657992">
  <ele>610.28</ele>
  <time>2026-08-28T19:09:56Z</time>
  <course>352.71</course>
  <speed>12.860143856116075</speed>
  <fix>3d</fix>
</trkpt>
<trkpt lat="-35.366344" lon="149.1658013">
  <ele>610.17</ele>
  <time>2026-08-28T19:09:56Z</time>
  <course>353.28</course>
  <speed>12.98</speed>
  <fix>3d</fix>
</trkpt>
<trkpt lat="-35.3663063" lon="149.1657958">
  <ele>610.3</ele>
  <time>2026-08-28T19:09:56Z</time>
  <course>353.07</course>
  <speed>12.791829423503113</speed>
  <fix>3d</fix>
</trkpt>
<trkpt lat="-35.3663209" lon="149.165798">
  <ele>610.18</ele>
  <time>2026-08-28T19:09:56Z</time>
  <course>353.21</course>
  <speed>12.92</speed>
  <fix>3d</fix>
</trkpt>
<trkpt lat="-35.3662832" lon="149.1657924">
  <ele>610.29</ele>
  <time>2026-08-28T19:09:56Z</time>
  <course>353.22</course>
  <speed>12.733467713078005</speed>
  <fix>3d</fix>
</trkpt>
<trkpt lat="-35.3662979" lon="149.1657946">
  <ele>610.19</ele>
  <time>2026-08-28T19:09:56Z</time>
  <course>353.14</course>
  <speed>12.85</speed>
  <fix>3d</fix>
</trkpt>
<trkpt lat="-35.3662604" lon="149.165789">
  <ele>610.27</ele>
  <time>2026-08-28T19:09:56Z</time>
  <course>353.12</course>
  <speed>12.696204157148703</speed>
  <fix>3d</fix>
</trkpt>
<trkpt lat="-35.366275" lon="149.1657912">
  <ele>610.18</ele>
  <time>2026-08-28T19:09:56Z</time>
  <course>353.06</course>
  <speed>12.79</speed>
  <fix>3d</fix>
</trkpt>
<trkpt lat="-35.3662376" lon="149.1657855">
  <ele>610.24</ele>
  <time>2026-08-28T19:09:56Z</time>
  <course>352.8</course>
  <speed>12.68008280730059</speed>
  <fix>3d</fix>
</trkpt>
<trkpt lat="-35.3662522" lon="149.1657878">
  <ele>610.16</ele>
  <time>2026-08-28T19:09:56Z</time>
  <course>352.94</course>
  <speed>12.75</speed>
  <fix>3d</fix>
</trkpt>
<trkpt lat="-35.3662149" lon="149.1657819">
  <ele>610.21</ele>
  <time>2026-08-28T19:09:56Z</time>
  <course>352.36</course>
  <speed>12.686449463896508</speed>
  <fix>3d</fix>
</trkpt>
<trkpt lat="-35.3662294" lon="149.1657843">
  <ele>610.13</ele>
  <time>2026-08-28T19:09:56Z</time>
  <course>352.76</course>
  <speed>12.73</speed>
  <fix>3d</fix>
</trkpt>
<trkpt lat="-35.3661921" lon="149.1657783">
  <ele>610.19</ele>
  <time>2026-08-28T19:09:56Z</time>
  <course>351.87</course>
  <speed>12.704255192651003</speed>
  <fix>3d</fix>
</trkpt>
<trkpt lat="-35.3662067" lon="149.1657807">
  <ele>610.1</ele>
  <time>2026-08-28T19:09:56Z</time>
  <course>352.54</course>
  <speed>12.73</speed>
  <fix>3d</fix>
</trkpt>
<trkpt lat="-35.3661694" lon="149.1657745">
  <ele>610.16</ele>
  <time>2026-08-28T19:09:56Z</time>
  <course>351.38</course>
  <speed>12.732230755056241</speed>
  <fix>3d</fix>
</trkpt>
<trkpt lat="-35.366184" lon="149.165777">
  <ele>610.07</ele>
  <time>2026-08-28T19:09:56Z</time>
  <course>352.27</course>
  <speed>12.74</speed>
  <fix>3d</fix>
</trkpt>
<trkpt lat="-35.3661466" lon="149.1657705">
  <ele>610.14</ele>
  <time>2026-08-28T19:09:56Z</time>
  <course>350.96</course>
  <speed>12.760458455713886</speed>
  <fix>3d</fix>
</trkpt>
<trkpt lat="-35.3661613" lon="149.1657732">
  <ele>610.05</ele>
  <time>2026-08-28T19:09:56Z</time>
  <course>351.99</course>
  <speed>12.76</speed>
  <fix>3d</fix>
</trkpt>
<trkpt lat="-35.3661239" lon="149.1657665">
  <ele>610.13</ele>
  <time>2026-08-28T19:09:56Z</time>
  <course>350.57</course>
  <speed>12.788936625067777</speed>
  <fix>3d</fix>
</trkpt>
<trkpt lat="-35.3661386" lon="149.1657692">
  <ele>610.03</ele>
  <time>2026-08-28T19:09:56Z</time>
  <course>351.73</course>
  <speed>12.79</speed>
  <fix>3d</fix>
</trkpt>
<trkpt lat="-35.3661011" lon="149.1657623">
  <ele>610.12</ele>
  <time>2026-08-28T19:09:56Z</time>
  <course>350.22</course>
  <speed>12.826039918852585</speed>
  <fix>3d</fix>
</trkpt>
<trkpt lat="-35.3661158" lon="149.165765">
  <ele>610.02</ele>
  <time>2026-08-28T19:09:56Z</time>
  <course>351.49</course>
  <speed>12.82</speed>
  <fix>3d</fix>
</trkpt>
<trkpt lat="-35.3660783" lon="149.165758">
  <ele>610.11</ele>
  <time>2026-08-28T19:09:56Z</time>
  <course>349.91</course>
  <speed>12.871647136244839</speed>
  <fix>3d</fix>
</trkpt>
<trkpt lat="-35.3660931" lon="149.1657608">
  <ele>610.02</ele>
  <time>2026-08-28T19:09:56Z</time>
  <course>351.29</course>
  <speed>12.85</speed>
  <fix>3d</fix>
</trkpt>
<trkpt lat="-35.3660553" lon="149.1657536">
  <ele>610.11</ele>
  <time>2026-08-28T19:09:56Z</time>
  <course>349.69</course>
  <speed>12.905909499140307</speed>
  <fix>3d</fix>
</trkpt>
<trkpt lat="-35.3660702" lon="149.1657564">
  <ele>610.02</ele>
  <time>2026-08-28T19:09:56Z</time>
  <course>351.13</course>
  <speed>12.89</speed>
  <fix>3d</fix>
</trkpt>
<trkpt lat="-35.3660322" lon="149.1657491">
  <ele>610.12</ele>
  <time>2026-08-28T19:09:56Z</time>
  <course>349.53</course>
  <speed>12.948532735410604</speed>
  <fix>3d</fix>
</trkpt>
<trkpt lat="-35.3660473" lon="149.1657521">
  <ele>610.02</ele>
  <time>2026-08-28T19:09:56Z</time>
  <course>351.02</course>
  <speed>12.93</speed>
  <fix>3d</fix>
</trkpt>
<trkpt lat="-35.3660091" lon="149.1657446">
  <ele>610.12</ele>
  <time>2026-08-28T19:09:56Z</time>
  <course>349.46</course>
  <speed>12.98960353513532</speed>
  <fix>3d</fix>
</trkpt>
<trkpt lat="-35.3660243" lon="149.1657476">
  <ele>610.03</ele>
  <time>2026-08-28T19:09:56Z</time>
  <course>350.95</course>
  <speed>12.97</speed>
  <fix>3d</fix>
</trkpt>
<trkpt lat="-35.365986" lon="149.1657401">
  <ele>610.13</ele>
  <time>2026-08-28T19:09:56Z</time>
  <course>349.51</course>
  <speed>13.030675347041688</speed>
  <fix>3d</fix>
</trkpt>
<trkpt lat="-35.3660012" lon="149.1657431">
  <ele>610.03</ele>
  <time>2026-08-28T19:09:56Z</time>
  <course>350.93</course>
  <speed>13.0</speed>
  <fix>3d</fix>
</trkpt>
<trkpt lat="-35.3659628" lon="149.1657356">
  <ele>610.14</ele>
  <time>2026-08-28T19:09:56Z</time>
  <course>349.6</course>
  <speed>13.057197249027068</speed>
  <fix>3d</fix>
</trkpt>
<trkpt lat="-35.3659781" lon="149.1657386">
  <ele>610.04</ele>
  <time>2026-08-28T19:09:56Z</time>
  <course>350.96</course>
  <speed>13.03</speed>
  <fix>3d</fix>
</trkpt>
<trkpt lat="-35.3659396" lon="149.1657312">
  <ele>610.15</ele>
  <time>2026-08-28T19:09:56Z</time>
  <course>349.73</course>
  <speed>13.073882361410476</speed>
  <fix>3d</fix>
</trkpt>
<trkpt lat="-35.365955" lon="149.1657341">
  <ele>610.05</ele>
  <time>2026-08-28T19:09:56Z</time>
  <course>351.03</course>
  <speed>13.06</speed>
  <fix>3d</fix>
</trkpt>
<trkpt lat="-35.3659164" lon="149.1657268">
  <ele>610.17</ele>
  <time>2026-08-28T19:09:56Z</time>
  <course>349.92</course>
  <speed>13.090607319754115</speed>
  <fix>3d</fix>
</trkpt>
<trkpt lat="-35.3659318" lon="149.1657296">
  <ele>610.06</ele>
  <time>2026-08-28T19:09:56Z</time>
  <course>351.13</course>
  <speed>13.08</speed>
  <fix>3d</fix>
</trkpt>
<trkpt lat="-35.3658932" lon="149.1657224">
  <ele>610.17</ele>
  <time>2026-08-28T19:09:56Z</time>
  <course>350.13</course>
  <speed>13.104396208906383</speed>
  <fix>3d</fix>
</trkpt>
<trkpt lat="-35.3659085" lon="149.1657252">
  <ele>610.07</ele>
  <time>2026-08-28T19:09:56Z</time>
  <course>351.27</course>
  <speed>13.1</speed>
  <fix>3d</fix>
</trkpt>
<trkpt lat="-35.3658701" lon="149.1657182">
  <ele>610.17</ele>
  <time>2026-08-28T19:09:56Z</time>
  <course>350.33</course>
  <speed>13.119775150512298</speed>
  <fix>3d</fix>
</trkpt>
<trkpt lat="-35.3658852" lon="149.1657209">
  <ele>610.08</ele>
  <time>2026-08-28T19:09:56Z</time>
  <course>351.43</course>
  <speed>13.12</speed>
  <fix>3d</fix>
</trkpt>
<trkpt lat="-35.3658468" lon="149.165714">
  <ele>610.17</ele>
  <time>2026-08-28T19:09:56Z</time>
  <course>350.56</course>
  <speed>13.133807521050398</speed>
  <fix>3d</fix>
</trkpt>
<trkpt lat="-35.3658619" lon="149.1657166">
  <ele>610.08</ele>
  <time>2026-08-28T19:09:56Z</time>
  <course>351.6</course>
  <speed>13.14</speed>
  <fix>3d</fix>
</trkpt>
<trkpt lat="-35.3658233" lon="149.1657099">
  <ele>610.17</ele>
  <time>2026-08-28T19:09:56Z</time>
  <course>350.74</course>
  <speed>13.147977030707043</speed>
  <fix>3d</fix>
</trkpt>
<trkpt lat="-35.3658386" lon="149.1657124">
  <ele>610.08</ele>
  <time>2026-08-28T19:09:56Z</time>
  <course>351.77</course>
  <speed>13.15</speed>
  <fix>3d</fix>
</trkpt>
<trkpt lat="-35.3657999" lon="149.1657058">
  <ele>610.18</ele>
  <time>2026-08-28T19:09:56Z</time>
  <course>350.95</course>
  <speed>13.163646911095725</speed>
  <fix>3d</fix>
</trkpt>
<trkpt lat="-35.3658152" lon="149.1657083">
  <ele>610.08</ele>
  <time>2026-08-28T19:09:56Z</time>
  <course>351.95</course>
  <speed>13.17</speed>
  <fix>3d</fix>
</trkpt>
<trkpt lat="-35.3657764" lon="149.1657018">
  <ele>610.18</ele>
  <time>2026-08-28T19:09:56Z</time>
  <course>351.19</course>
  <speed>13.168147174147165</speed>
  <fix>3d</fix>
</trkpt>
<trkpt lat="-35.3657917" lon="149.1657042">
  <ele>610.08</ele>
  <time>2026-08-28T19:09:56Z</time>
  <course>352.1</course>
  <speed>13.17</speed>
  <fix>3d</fix>
</trkpt>
<trkpt lat="-35.3657528" lon="149.1656979">
  <ele>610.19</ele>
  <time>2026-08-28T19:09:56Z</time>
  <course>351.48</course>
  <speed>13.164171071510731</speed>
  <fix>3d</fix>
</trkpt>
<trkpt lat="-35.3657682" lon="149.1657003">
  <ele>610.08</ele>
  <time>2026-08-28T19:09:56Z</time>
  <course>352.25</course>
  <speed>13.17</speed>
  <fix>3d</fix>
</trkpt>
<trkpt lat="-35.3657294" lon="149.1656941">
  <ele>610.19</ele>
  <time>2026-08-28T19:09:56Z</time>
  <course>351.75</course>
  <speed>13.150346003052544</speed>
  <fix>3d</fix>
</trkpt>
<trkpt lat="-35.3657447" lon="149.1656965">
  <ele>610.08</ele>
  <time>2026-08-28T19:09:56Z</time>
  <course>352.39</course>
  <speed>13.16</speed>
  <fix>3d</fix>
</trkpt>
<trkpt lat="-35.3657059" lon="149.1656903">
  <ele>610.19</ele>
  <time>2026-08-28T19:09:56Z</time>
  <course>352.02</course>
  <speed>13.126663704079572</speed>
  <fix>3d</fix>
</trkpt>
<trkpt lat="-35.3657213" lon="149.1656927">
  <ele>610.09</ele>
  <time>2026-08-28T19:09:56Z</time>
  <course>352.51</course>
  <speed>13.15</speed>
  <fix>3d</fix>
</trkpt>
<trkpt lat="-35.3656826" lon="149.1656866">
  <ele>610.19</ele>
  <time>2026-08-28T19:09:56Z</time>
  <course>352.22</course>
  <speed>13.094372837215229</speed>
  <fix>3d</fix>
</trkpt>
<trkpt lat="-35.3656979" lon="149.1656889">
  <ele>610.09</ele>
  <time>2026-08-28T19:09:56Z</time>
  <course>352.62</course>
  <speed>13.12</speed>
  <fix>3d</fix>
</trkpt>
<trkpt lat="-35.3656593" lon="149.165683">
  <ele>610.19</ele>
  <time>2026-08-28T19:09:57Z</time>
  <course>352.39</course>
  <speed>13.07202356179027</speed>
  <fix>3d</fix>
</trkpt>
<trkpt lat="-35.3656745" lon="149.1656852">
  <ele>610.09</ele>
  <time>2026-08-28T19:09:57Z</time>
  <course>352.7</course>
  <speed>13.1</speed>
  <fix>3d</fix>
</trkpt>
<trkpt lat="-35.365636" lon="149.1656794">
  <ele>610.19</ele>
  <time>2026-08-28T19:09:57Z</time>
  <course>352.46</course>
  <speed>13.050934832417179</speed>
  <fix>3d</fix>
</trkpt>
<trkpt lat="-35.3656512" lon="149.1656816">
  <ele>610.09</ele>
  <time>2026-08-28T19:09:57Z</time>
  <course>352.76</course>
  <speed>13.07</speed>
  <fix>3d</fix>
</trkpt>
<trkpt lat="-35.3656129" lon="149.1656758">
  <ele>610.19</ele>
  <time>2026-08-28T19:09:57Z</time>
  <course>352.46</course>
  <speed>13.031089747216079</speed>
  <fix>3d</fix>
</trkpt>
<trkpt lat="-35.3656279" lon="149.165678">
  <ele>610.09</ele>
  <time>2026-08-28T19:09:57Z</time>
  <course>352.79</course>
  <speed>13.05</speed>
  <fix>3d</fix>
</trkpt>
<trkpt lat="-35.3655896" lon="149.1656722">
  <ele>610.18</ele>
  <time>2026-08-28T19:09:57Z</time>
  <course>352.48</course>
  <speed>13.011245136419495</speed>
  <fix>3d</fix>
</trkpt>
<trkpt lat="-35.3656047" lon="149.1656744">
  <ele>610.08</ele>
  <time>2026-08-28T19:09:57Z</time>
  <course>352.79</course>
  <speed>13.03</speed>
  <fix>3d</fix>
</trkpt>
<trkpt lat="-35.3655663" lon="149.1656685">
  <ele>610.18</ele>
  <time>2026-08-28T19:09:57Z</time>
  <course>352.44</course>
  <speed>12.992651769365636</speed>
  <fix>3d</fix>
</trkpt>
<trkpt lat="-35.3655815" lon="149.1656707">
  <ele>610.08</ele>
  <time>2026-08-28T19:09:57Z</time>
  <course>352.76</course>
  <speed>13.01</speed>
  <fix>3d</fix>
</trkpt>
<trkpt lat="-35.3655431" lon="149.1656649">
  <ele>610.17</ele>
  <time>2026-08-28T19:09:57Z</time>
  <course>352.36</course>
  <speed>12.974070294244592</speed>
  <fix>3d</fix>
</trkpt>
<trkpt lat="-35.3655582" lon="149.1656671">
  <ele>610.07</ele>
  <time>2026-08-28T19:09:57Z</time>
  <course>352.71</course>
  <speed>12.99</speed>
  <fix>3d</fix>
</trkpt>
<trkpt lat="-35.3655199" lon="149.1656612">
  <ele>610.17</ele>
  <time>2026-08-28T19:09:57Z</time>
  <course>352.28</course>
  <speed>12.966695801166928</speed>
  <fix>3d</fix>
</trkpt>
<trkpt lat="-35.3655351" lon="149.1656635">
  <ele>610.07</ele>
  <time>2026-08-28T19:09:57Z</time>
  <course>352.64</course>
  <speed>12.98</speed>
  <fix>3d</fix>
</trkpt>
<trkpt lat="-35.3654967" lon="149.1656575">
  <ele>610.17</ele>
  <time>2026-08-28T19:09:57Z</time>
  <course>352.2</course>
  <speed>12.948146585515628</speed>
  <fix>3d</fix>
</trkpt>
<trkpt lat="-35.3655119" lon="149.1656598">
  <ele>610.07</ele>
  <time>2026-08-28T19:09:57Z</time>
  <course>352.56</course>
  <speed>12.96</speed>
  <fix>3d</fix>
</trkpt>
<trkpt lat="-35.3654736" lon="149.1656537">
  <ele>610.18</ele>
  <time>2026-08-28T19:09:57Z</time>
  <course>352.11</course>
  <speed>12.93091257413799</speed>
  <fix>3d</fix>
</trkpt>
<trkpt lat="-35.3654889" lon="149.1656561">
  <ele>610.07</ele>
  <time>2026-08-28T19:09:57Z</time>
  <course>352.47</course>
  <speed>12.94</speed>
  <fix>3d</fix>
</trkpt>
<trkpt lat="-35.3654506" lon="149.1656499">
  <ele>610.18</ele>
  <time>2026-08-28T19:09:57Z</time>
  <course>352.04</course>
  <speed>12.923629521152328</speed>
  <fix>3d</fix>
</trkpt>
<trkpt lat="-35.3654658" lon="149.1656524">
  <ele>610.07</ele>
  <time>2026-08-28T19:09:57Z</time>
  <course>352.38</course>
  <speed>12.93</speed>
  <fix>3d</fix>
</trkpt>
<trkpt lat="-35.3654275" lon="149.1656461">
  <ele>610.17</ele>
  <time>2026-08-28T19:09:57Z</time>
  <course>351.96</course>
  <speed>12.906471245077022</speed>
  <fix>3d</fix>
</trkpt>
<trkpt lat="-35.3654428" lon="149.1656486">
  <ele>610.06</ele>
  <time>2026-08-28T19:09:57Z</time>
  <course>352.29</course>
  <speed>12.91</speed>
  <fix>3d</fix>
</trkpt>
<trkpt lat="-35.3654045" lon="149.1656423">
  <ele>610.17</ele>
  <time>2026-08-28T19:09:57Z</time>
  <course>351.84</course>
  <speed>12.899259668678665</speed>
  <fix>3d</fix>
</trkpt>
<trkpt lat="-35.3654199" lon="149.1656447">
  <ele>610.06</ele>
  <time>2026-08-28T19:09:57Z</time>
  <course>352.2</course>
  <speed>12.9</speed>
  <fix>3d</fix>
</trkpt>
<trkpt lat="-35.3653816" lon="149.1656384">
  <ele>610.16</ele>
  <time>2026-08-28T19:09:57Z</time>
  <course>351.67</course>
  <speed>12.89071371181596</speed>
  <fix>3d</fix>
</trkpt>
<trkpt lat="-35.3653969" lon="149.1656408">
  <ele>610.06</ele>
  <time>2026-08-28T19:09:57Z</time>
  <course>352.12</course>
  <speed>12.89</speed>
  <fix>3d</fix>
</trkpt>
<trkpt lat="-35.3653586" lon="149.1656344">
  <ele>610.15</ele>
  <time>2026-08-28T19:09:57Z</time>
  <course>351.54</course>
  <speed>12.893459582284345</speed>
  <fix>3d</fix>
</trkpt>
<trkpt lat="-35.3653739" lon="149.1656369">
  <ele>610.05</ele>
  <time>2026-08-28T19:09:57Z</time>
  <course>352.04</course>
  <speed>12.89</speed>
  <fix>3d</fix>
</trkpt>
<trkpt lat="-35.3653356" lon="149.1656304">
  <ele>610.14</ele>
  <time>2026-08-28T19:09:57Z</time>
  <course>351.41</course>
  <speed>12.904747188534923</speed>
  <fix>3d</fix>
</trkpt>
<trkpt lat="-35.365351" lon="149.1656329">
  <ele>610.05</ele>
  <time>2026-08-28T19:09:57Z</time>
  <course>351.96</course>
  <speed>12.89</speed>
  <fix>3d</fix>
</trkpt>
<trkpt lat="-35.3653125" lon="149.1656264">
  <ele>610.14</ele>
  <time>2026-08-28T19:09:57Z</time>
  <course>351.26</course>
  <speed>12.907536558150824</speed>
  <fix>3d</fix>
</trkpt>
<trkpt lat="-35.3653281" lon="149.165629">
  <ele>610.05</ele>
  <time>2026-08-28T19:09:57Z</time>
  <course>351.9</course>
  <speed>12.89</speed>
  <fix>3d</fix>
</trkpt>
<trkpt lat="-35.3652895" lon="149.1656224">
  <ele>610.14</ele>
  <time>2026-08-28T19:09:57Z</time>
  <course>351.18</course>
  <speed>12.91884282743621</speed>
  <fix>3d</fix>
</trkpt>
<trkpt lat="-35.3653051" lon="149.1656249">
  <ele>610.05</ele>
  <time>2026-08-28T19:09:57Z</time>
  <course>351.85</course>
  <speed>12.9</speed>
  <fix>3d</fix>
</trkpt>
<trkpt lat="-35.3652666" lon="149.1656183">
  <ele>610.14</ele>
  <time>2026-08-28T19:09:57Z</time>
  <course>351.15</course>
  <speed>12.91884282743621</speed>
  <fix>3d</fix>
</trkpt>
<trkpt lat="-35.3652821" lon="149.1656209">
  <ele>610.05</ele>
  <time>2026-08-28T19:09:57Z</time>
  <course>351.82</course>
  <speed>12.91</speed>
  <fix>3d</fix>
</trkpt>
<trkpt lat="-35.3652437" lon="149.1656143">
  <ele>610.14</ele>
  <time>2026-08-28T19:09:57Z</time>
  <course>351.09</course>
  <speed>12.92874317170853</speed>
  <fix>3d</fix>
</trkpt>
<trkpt lat="-35.3652591" lon="149.1656168">
  <ele>610.05</ele>
  <time>2026-08-28T19:09:57Z</time>
  <course>351.8</course>
  <speed>12.92</speed>
  <fix>3d</fix>
</trkpt>
<trkpt lat="-35.3652208" lon="149.1656102">
  <ele>610.14</ele>
  <time>2026-08-28T19:09:57Z</time>
  <course>351.04</course>
  <speed>12.938643669256836</speed>
  <fix>3d</fix>
</trkpt>
<trkpt lat="-35.3652362" lon="149.1656128">
  <ele>610.05</ele>
  <time>2026-08-28T19:09:57Z</time>
  <course>351.8</course>
  <speed>12.93</speed>
  <fix>3d</fix>
</trkpt>
<trkpt lat="-35.3651978" lon="149.1656062">
  <ele>610.13</ele>
  <time>2026-08-28T19:09:57Z</time>
  <course>350.97</course>
  <speed>12.95844512277611</speed>
  <fix>3d</fix>
</trkpt>
<trkpt lat="-35.3652132" lon="149.1656087">
  <ele>610.06</ele>
  <time>2026-08-28T19:09:57Z</time>
  <course>351.81</course>
  <speed>12.95</speed>
  <fix>3d</fix>
</trkpt>
<trkpt lat="-35.3651749" lon="149.1656022">
  <ele>610.13</ele>
  <time>2026-08-28T19:09:57Z</time>
  <course>350.92</course>
  <speed>12.978247185194155</speed>
  <fix>3d</fix>
</trkpt>
<trkpt lat="-35.3651901" lon="149.1656047">
  <ele>610.06</ele>
  <time>2026-08-28T19:09:57Z</time>
  <course>351.83</course>
  <speed>12.97</speed>
  <fix>3d</fix>
</trkpt>
<trkpt lat="-35.3651518" lon="149.1655981">
  <ele>610.14</ele>
  <time>2026-08-28T19:09:57Z</time>
  <course>350.92</course>
  <speed>12.998049853728057</speed>
  <fix>3d</fix>
</trkpt>
<trkpt lat="-35.365167" lon="149.1656006">
  <ele>610.06</ele>
  <time>2026-08-28T19:09:57Z</time>
  <course>351.85</course>
  <speed>13.0</speed>
  <fix>3d</fix>
</trkpt>
<trkpt lat="-35.3651288" lon="149.1655941">
  <ele>610.15</ele>
  <time>2026-08-28T19:09:57Z</time>
  <course>350.94</course>
  <speed>13.01645881182743</speed>
  <fix>3d</fix>
</trkpt>
<trkpt lat="-35.3651439" lon="149.1655965">
  <ele>610.06</ele>
  <time>2026-08-28T19:09:57Z</time>
  <course>351.88</course>
  <speed>13.02</speed>
  <fix>3d</fix>
</trkpt>
<trkpt lat="-35.3651057" lon="149.1655901">
  <ele>610.15</ele>
  <time>2026-08-28T19:09:57Z</time>
  <course>351.01</course>
  <speed>13.03488012986694</speed>
  <fix>3d</fix>
</trkpt>
<trkpt lat="-35.3651207" lon="149.1655925">
  <ele>610.07</ele>
  <time>2026-08-28T19:09:57Z</time>
  <course>351.92</course>
  <speed>13.04</speed>
  <fix>3d</fix>
</trkpt>
<trkpt lat="-35.3650823" lon="149.165586">
  <ele>610.15</ele>
  <time>2026-08-28T19:09:57Z</time>
  <course>351.1</course>
  <speed>13.053313755518175</speed>
  <fix>3d</fix>
</trkpt>
<trkpt lat="-35.3650975" lon="149.1655884">
  <ele>610.07</ele>
  <time>2026-08-28T19:09:57Z</time>
  <course>351.97</course>
  <speed>13.06</speed>
  <fix>3d</fix>
</trkpt>
<trkpt lat="-35.365059" lon="149.165582">
  <ele>610.16</ele>
  <time>2026-08-28T19:09:57Z</time>
  <course>351.21</course>
  <speed>13.061852854782892</speed>
  <fix>3d</fix>
</trkpt>
<trkpt lat="-35.3650742" lon="149.1655845">
  <ele>610.08</ele>
  <time>2026-08-28T19:09:57Z</time>
  <course>352.02</course>
  <speed>13.08</speed>
  <fix>3d</fix>
</trkpt>
<trkpt lat="-35.3650357" lon="149.1655781">
  <ele>610.16</ele>
  <time>2026-08-28T19:09:57Z</time>
  <course>351.3</course>
  <speed>13.080309629362755</speed>
  <fix>3d</fix>
</trkpt>
<trkpt lat="-35.3650509" lon="149.1655804">
  <ele>610.08</ele>
  <time>2026-08-28T19:09:57Z</time>
  <course>352.09</course>
  <speed>13.09</speed>
  <fix>3d</fix>
</trkpt>
<trkpt lat="-35.3650123" lon="149.1655741">
  <ele>610.17</ele>
  <time>2026-08-28T19:09:57Z</time>
  <course>351.46</course>
  <speed>13.077618284687773</speed>
  <fix>3d</fix>
</trkpt>
<trkpt lat="-35.3650275" lon="149.1655765">
  <ele>610.09</ele>
  <time>2026-08-28T19:09:57Z</time>
  <course>352.15</course>
  <speed>13.1</speed>
  <fix>3d</fix>
</trkpt>
<trkpt lat="-35.364989" lon="149.1655702">
  <ele>610.18</ele>
  <time>2026-08-28T19:09:57Z</time>
  <course>351.66</course>
  <speed>13.07628387578061</speed>
  <fix>3d</fix>
</trkpt>
<trkpt lat="-35.3650042" lon="149.1655726">
  <ele>610.09</ele>
  <time>2026-08-28T19:09:57Z</time>
  <course>352.22</course>
  <speed>13.1</speed>
  <fix>3d</fix>
</trkpt>
<trkpt lat="-35.3649656" lon="149.1655664">
  <ele>610.19</ele>
  <time>2026-08-28T19:09:57Z</time>
  <course>351.82</course>
  <speed>13.063724583747165</speed>
  <fix>3d</fix>
</trkpt>
<trkpt lat="-35.3649809" lon="149.1655687">
  <ele>610.1</ele>
  <time>2026-08-28T19:09:57Z</time>
  <course>352.29</course>
  <speed>13.09</speed>
  <fix>3d</fix>
</trkpt>
<trkpt lat="-35.3649423" lon="149.1655625">
  <ele>610.19</ele>
  <time>2026-08-28T19:09:57Z</time>
  <course>351.99</course>
  <speed>13.052497845240199</speed>
  <fix>3d</fix>
</trkpt>
<trkpt lat="-35.3649576" lon="149.1655649">
  <ele>610.11</ele>
  <time>2026-08-28T19:09:57Z</time>
  <course>352.35</course>
  <speed>13.08</speed>
  <fix>3d</fix>
</trkpt>
<trkpt lat="-35.364919" lon="149.1655587">
  <ele>610.19</ele>
  <time>2026-08-28T19:09:57Z</time>
  <course>352.11</course>
  <speed>13.039976993844737</speed>
  <fix>3d</fix>
</trkpt>
<trkpt lat="-35.3649343" lon="149.1655611">
  <ele>610.11</ele>
  <time>2026-08-28T19:09:57Z</time>
  <course>352.41</course>
  <speed>13.07</speed>
  <fix>3d</fix>
</trkpt>
<trkpt lat="-35.3648958" lon="149.165555">
  <ele>610.19</ele>
  <time>2026-08-28T19:09:57Z</time>
  <course>352.2</course>
  <speed>13.018851715877249</speed>
  <fix>3d</fix>
</trkpt>
<trkpt lat="-35.364911" lon="149.1655573">
  <ele>610.11</ele>
  <time>2026-08-28T19:09:57Z</time>
  <course>352.46</course>
  <speed>13.05</speed>
  <fix>3d</fix>
</trkpt>
<trkpt lat="-35.3648726" lon="149.1655512">
  <ele>610.19</ele>
  <time>2026-08-28T19:09:57Z</time>
  <course>352.25</course>
  <speed>13.008935390722792</speed>
  <fix>3d</fix>
</trkpt>
<trkpt lat="-35.3648878" lon="149.1655535">
  <ele>610.11</ele>
  <time>2026-08-28T19:09:57Z</time>
  <course>352.5</course>
  <speed>13.03</speed>
  <fix>3d</fix>
</trkpt>
<trkpt lat="-35.3648493" lon="149.1655475">
  <ele>610.18</ele>
  <time>2026-08-28T19:09:57Z</time>
  <course>352.26</course>
  <speed>12.997730571142027</speed>
  <fix>3d</fix>
</trkpt>
<trkpt lat="-35.3648646" lon="149.1655498">
  <ele>610.11</ele>
  <time>2026-08-28T19:09:57Z</time>
  <course>352.52</course>
  <speed>13.02</speed>
  <fix>3d</fix>
</trkpt>
<trkpt lat="-35.364826" lon="149.1655437">
  <ele>610.17</ele>
  <time>2026-08-28T19:09:57Z</time>
  <course>352.28</course>
  <speed>12.987813518833724</speed>
  <fix>3d</fix>
</trkpt>
<trkpt lat="-35.3648414" lon="149.165546">
  <ele>610.1</ele>
  <time>2026-08-28T19:09:57Z</time>
  <course>352.52</course>
  <speed>13.01</speed>
  <fix>3d</fix>
</trkpt>
<trkpt lat="-35.3648028" lon="149.16554">
  <ele>610.17</ele>
  <time>2026-08-28T19:09:57Z</time>
  <course>352.24</course>
  <speed>12.9692713750619</speed>
  <fix>3d</fix>
</trkpt>
<trkpt lat="-35.3648182" lon="149.1655423">
  <ele>610.1</ele>
  <time>2026-08-28T19:09:57Z</time>
  <course>352.51</course>
  <speed>12.99</speed>
  <fix>3d</fix>
</trkpt>
<trkpt lat="-35.3647796" lon="149.1655362">
  <ele>610.16</ele>
  <time>2026-08-28T19:09:57Z</time>
  <course>352.24</course>
  <speed>12.95935569386071</speed>
  <fix>3d</fix>
</trkpt>
<trkpt lat="-35.364795" lon="149.1655386">
  <ele>610.1</ele>
  <time>2026-08-28T19:09:57Z</time>
  <course>352.49</course>
  <speed>12.98</speed>
  <fix>3d</fix>
</trkpt>
<trkpt lat="-35.3647565" lon="149.1655325">
  <ele>610.16</ele>
  <time>2026-08-28T19:09:57Z</time>
  <course>352.2</course>
  <speed>12.950741291524588</speed>
  <fix>3d</fix>
</trkpt>
<trkpt lat="-35.3647719" lon="149.1655348">
  <ele>610.1</ele>
  <time>2026-08-28T19:09:57Z</time>
  <course>352.46</course>
  <speed>12.96</speed>
  <fix>3d</fix>
</trkpt>
<trkpt lat="-35.3647334" lon="149.1655287">
  <ele>610.16</ele>
  <time>2026-08-28T19:09:57Z</time>
  <course>352.11</course>
  <speed>12.932223320063724</speed>
  <fix>3d</fix>
</trkpt>
<trkpt lat="-35.3647488" lon="149.165531">
  <ele>610.1</ele>
  <time>2026-08-28T19:09:57Z</time>
  <course>352.42</course>
  <speed>12.95</speed>
  <fix>3d</fix>
</trkpt>
<trkpt lat="-35.3647103" lon="149.1655249">
  <ele>610.16</ele>
  <time>2026-08-28T19:09:57Z</time>
  <course>352.05</course>
  <speed>12.923629521152328</speed>
  <fix>3d</fix>
</trkpt>
<trkpt lat="-35.3647258" lon="149.1655273">
  <ele>610.1</ele>
  <time>2026-08-28T19:09:57Z</time>
  <course>352.37</course>
  <speed>12.94</speed>
  <fix>3d</fix>
</trkpt>
<trkpt lat="-35.3646872" lon="149.1655211">
  <ele>610.16</ele>
  <time>2026-08-28T19:09:57Z</time>
  <course>352.01</course>
  <speed>12.9150454896605</speed>
  <fix>3d</fix>
</trkpt>
<trkpt lat="-35.3647027" lon="149.1655235">
  <ele>610.1</ele>
  <time>2026-08-28T19:09:57Z</time>
  <course>352.31</course>
  <speed>12.93</speed>
  <fix>3d</fix>
</trkpt>
<trkpt lat="-35.3646643" lon="149.1655172">
  <ele>610.16</ele>
  <time>2026-08-28T19:09:57Z</time>
  <course>351.95</course>
  <speed>12.906471245077022</speed>
  <fix>3d</fix>
</trkpt>
<trkpt lat="-35.3646798" lon="149.1655197">
  <ele>610.1</ele>
  <time>2026-08-28T19:09:57Z</time>
  <course>352.26</course>
  <speed>12.92</speed>
  <fix>3d</fix>
</trkpt>
<trkpt lat="-35.3646413" lon="149.1655134">
  <ele>610.16</ele>
  <time>2026-08-28T19:09:57Z</time>
  <course>351.85</course>
  <speed>12.907815461959471</speed>
  <fix>3d</fix>
</trkpt>
<trkpt lat="-35.3646568" lon="149.1655159">
  <ele>610.11</ele>
  <time>2026-08-28T19:09:57Z</time>
  <course>352.21</course>
  <speed>12.91</speed>
  <fix>3d</fix>
</trkpt>
<trkpt lat="-35.3646183" lon="149.1655095">
  <ele>610.16</ele>
  <time>2026-08-28T19:09:57Z</time>
  <course>351.76</course>
  <speed>12.909167285305433</speed>
  <fix>3d</fix>
</trkpt>
<trkpt lat="-35.3646338" lon="149.165512">
  <ele>610.11</ele>
  <time>2026-08-28T19:09:57Z</time>
  <course>352.17</course>
  <speed>12.91</speed>
  <fix>3d</fix>
</trkpt>
<trkpt lat="-35.3645951" lon="149.1655056">
  <ele>610.16</ele>
  <time>2026-08-28T19:09:57Z</time>
  <course>351.67</course>
  <speed>12.91052671272555</speed>
  <fix>3d</fix>
</trkpt>
<trkpt lat="-35.3646108" lon="149.1655081">
  <ele>610.1</ele>
  <time>2026-08-28T19:09:57Z</time>
  <course>352.12</course>
  <speed>12.91</speed>
  <fix>3d</fix>
</trkpt>
<trkpt lat="-35.3645721" lon="149.1655016">
  <ele>610.17</ele>
  <time>2026-08-28T19:09:57Z</time>
  <course>351.59</course>
  <speed>12.921799410298862</speed>
  <fix>3d</fix>
</trkpt>
<trkpt lat="-35.3645878" lon="149.1655042">
  <ele>610.1</ele>
  <time>2026-08-28T19:09:57Z</time>
  <course>352.07</course>
  <speed>12.91</speed>
  <fix>3d</fix>
</trkpt>
<trkpt lat="-35.3645491" lon="149.1654977">
  <ele>610.17</ele>
  <time>2026-08-28T19:09:57Z</time>
  <course>351.54</course>
  <speed>12.923172984990954</speed>
  <fix>3d</fix>
</trkpt>
<trkpt lat="-35.3645648" lon="149.1655003">
  <ele>610.1</ele>
  <time>2026-08-28T19:09:57Z</time>
  <course>352.04</course>
  <speed>12.92</speed>
  <fix>3d</fix>
</trkpt>
<trkpt lat="-35.3645261" lon="149.1654937">
  <ele>610.16</ele>
  <time>2026-08-28T19:09:57Z</time>
  <course>351.51</course>
  <speed>12.923172984990954</speed>
  <fix>3d</fix>
</trkpt>
<trkpt lat="-35.3645418" lon="149.1654963">
  <ele>610.1</ele>
  <time>2026-08-28T19:09:57Z</time>
  <course>352.0</course>
  <speed>12.93</speed>
  <fix>3d</fix>
</trkpt>
<trkpt lat="-35.3645031" lon="149.1654898">
  <ele>610.16</ele>
  <time>2026-08-28T19:09:57Z</time>
  <course>351.46</course>
  <speed>12.934457854892877</speed>
  <fix>3d</fix>
</trkpt>
<trkpt lat="-35.3645188" lon="149.1654923">
  <ele>610.1</ele>
  <time>2026-08-28T19:09:57Z</time>
  <course>351.98</course>
  <speed>12.93</speed>
  <fix>3d</fix>
</trkpt>
<trkpt lat="-35.3644802" lon="149.1654858">
  <ele>610.15</ele>
  <time>2026-08-28T19:09:57Z</time>
  <course>351.39</course>
  <speed>12.944361706936345</speed>
  <fix>3d</fix>
</trkpt>
<trkpt lat="-35.3644958" lon="149.1654883">
  <ele>610.1</ele>
  <time>2026-08-28T19:09:57Z</time>
  <course>351.97</course>
  <speed>12.94</speed>
  <fix>3d</fix>
</trkpt>
<trkpt lat="-35.3644572" lon="149.1654818">
  <ele>610.15</ele>
  <time>2026-08-28T19:09:57Z</time>
  <course>351.37</course>
  <speed>12.95426570670835</speed>
  <fix>3d</fix>
</trkpt>
<trkpt lat="-35.3644727" lon="149.1654844">
  <ele>610.1</ele>
  <time>2026-08-28T19:09:57Z</time>
  <course>351.97</course>
  <speed>12.96</speed>
  <fix>3d</fix>
</trkpt>
<trkpt lat="-35.3644341" lon="149.1654779">
  <ele>610.15</ele>
  <time>2026-08-28T19:09:57Z</time>
  <course>351.31</course>
  <speed>12.97407414808471</speed>
  <fix>3d</fix>
</trkpt>
<trkpt lat="-35.3644496" lon="149.1654803">
  <ele>610.1</ele>
  <time>2026-08-28T19:09:57Z</time>
  <course>351.97</course>
  <speed>12.98</speed>
  <fix>3d</fix>
</trkpt>
<trkpt lat="-35.3644112" lon="149.1654739">
  <ele>610.16</ele>
  <time>2026-08-28T19:09:57Z</time>
  <course>351.29</course>
  <speed>12.983978589015003</speed>
  <fix>3d</fix>
</trkpt>
<trkpt lat="-35.3644265" lon="149.1654764">
  <ele>610.1</ele>
  <time>2026-08-28T19:09:57Z</time>
  <course>351.98</course>
  <speed>12.99</speed>
  <fix>3d</fix>
</trkpt>
<trkpt lat="-35.364388" lon="149.1654699">
  <ele>610.16</ele>
  <time>2026-08-28T19:09:57Z</time>
  <course>351.31</course>
  <speed>13.003787909682316</speed>
  <fix>3d</fix>
</trkpt>
<trkpt lat="-35.3644034" lon="149.1654724">
  <ele>610.1</ele>
  <time>2026-08-28T19:09:57Z</time>
  <course>351.99</course>
  <speed>13.01</speed>
  <fix>3d</fix>
</trkpt>
<trkpt lat="-35.3643648" lon="149.1654659">
  <ele>610.16</ele>
  <time>2026-08-28T19:09:57Z</time>
  <course>351.33</course>
  <speed>13.013692788751394</speed>
  <fix>3d</fix>
</trkpt>
<trkpt lat="-35.3643803" lon="149.1654684">
  <ele>610.1</ele>
  <time>2026-08-28T19:09:57Z</time>
  <course>352.01</course>
  <speed>13.03</speed>
  <fix>3d</fix>
</trkpt>
<trkpt lat="-35.3643415" lon="149.1654619">
  <ele>610.16</ele>
  <time>2026-08-28T19:09:57Z</time>
  <course>351.38</course>
  <speed>13.02222715206581</speed>
  <fix>3d</fix>
</trkpt>
<trkpt lat="-35.3643571" lon="149.1654644">
  <ele>610.1</ele>
  <time>2026-08-28T19:09:57Z</time>
  <course>352.04</course>
  <speed>13.04</speed>
  <fix>3d</fix>
</trkpt>
<trkpt lat="-35.3643182" lon="149.1654579">
  <ele>610.16</ele>
  <time>2026-08-28T19:09:57Z</time>
  <course>351.44</course>
  <speed>13.040678663321168</speed>
  <fix>3d</fix>
</trkpt>
<trkpt lat="-35.3643338" lon="149.1654605">
  <ele>610.11</ele>
  <time>2026-08-28T19:09:57Z</time>
  <course>352.07</course>
  <speed>13.05</speed>
  <fix>3d</fix>
</trkpt>
<trkpt lat="-35.364295" lon="149.165454">
  <ele>610.16</ele>
  <time>2026-08-28T19:09:57Z</time>
  <course>351.54</course>
  <speed>13.040678663321168</speed>
  <fix>3d</fix>
</trkpt>
<trkpt lat="-35.3643105" lon="149.1654565">
  <ele>610.11</ele>
  <time>2026-08-28T19:09:57Z</time>
  <course>352.1</course>
  <speed>13.06</speed>
  <fix>3d</fix>
</trkpt>
<trkpt lat="-35.3642717" lon="149.1654501">
  <ele>610.17</ele>
  <time>2026-08-28T19:09:57Z</time>
  <course>351.63</course>
  <speed>13.039325135910984</speed>
  <fix>3d</fix>
</trkpt>
<trkpt lat="-35.3642873" lon="149.1654525">
  <ele>610.11</ele>
  <time>2026-08-28T19:09:57Z</time>
  <course>352.14</course>
  <speed>13.06</speed>
  <fix>3d</fix>
</trkpt>
<trkpt lat="-35.3642485" lon="149.1654462">
  <ele>610.17</ele>
  <time>2026-08-28T19:09:57Z</time>
  <course>351.75</course>
  <speed>13.037979137887897</speed>
  <fix>3d</fix>
</trkpt>
<trkpt lat="-35.364264" lon="149.1654486">
  <ele>610.12</ele>
  <time>2026-08-28T19:09:57Z</time>
  <course>352.18</course>
  <speed>13.06</speed>
  <fix>3d</fix>
</trkpt>
<trkpt lat="-35.3642252" lon="149.1654423">
  <ele>610.17</ele>
  <time>2026-08-28T19:09:57Z</time>
  <course>351.85</course>
  <speed>13.026730211376915</speed>
  <fix>3d</fix>
</trkpt>
<trkpt lat="-35.3642408" lon="149.1654447">
  <ele>610.12</ele>
  <time>2026-08-28T19:09:57Z</time>
  <course>352.22</course>
  <speed>13.05</speed>
  <fix>3d</fix>
</trkpt>
<trkpt lat="-35.364202" lon="149.1654384">
  <ele>610.17</ele>
  <time>2026-08-28T19:09:57Z</time>
  <course>351.92</course>
  <speed>13.025398266463869</speed>
  <fix>3d</fix>
</trkpt>
<trkpt lat="-35.3642175" lon="149.1654408">
  <ele>610.13</ele>
  <time>2026-08-28T19:09:57Z</time>
  <course>352.27</course>
  <speed>13.05</speed>
  <fix>3d</fix>
</trkpt>
<trkpt lat="-35.3641789" lon="149.1654346">
  <ele>610.18</ele>
  <time>2026-08-28T19:09:57Z</time>
  <course>351.99</course>
  <speed>13.014161517362538</speed>
  <fix>3d</fix>
</trkpt>
<trkpt lat="-35.3641944" lon="149.165437">
  <ele>610.13</ele>
  <time>2026-08-28T19:09:57Z</time>
  <course>352.31</course>
  <speed>13.04</speed>
  <fix>3d</fix>
</trkpt>
<trkpt lat="-35.3641557" lon="149.1654308">
  <ele>610.18</ele>
  <time>2026-08-28T19:09:57Z</time>
  <course>352.01</course>
  <speed>13.00293043894337</speed>
  <fix>3d</fix>
</trkpt>
<trkpt lat="-35.3641712" lon="149.1654332">
  <ele>610.13</ele>
  <time>2026-08-28T19:09:57Z</time>
  <course>352.34</course>
  <speed>13.03</speed>
  <fix>3d</fix>
</trkpt>
<trkpt lat="-35.3641324" lon="149.1654269">
  <ele>610.18</ele>
  <time>2026-08-28T19:09:57Z</time>
  <course>352.05</course>
  <speed>13.00293043894337</speed>
  <fix>3d</fix>
</trkpt>
<trkpt lat="-35.364148" lon="149.1654294">
  <ele>610.13</ele>
  <time>2026-08-28T19:09:57Z</time>
  <course>352.37</course>
  <speed>13.02</speed>
  <fix>3d</fix>
</trkpt>
<trkpt lat="-35.3641091" lon="149.1654231">
  <ele>610.18</ele>
  <time>2026-08-28T19:09:57Z</time>
  <course>352.08</course>
  <speed>12.993017355487522</speed>
  <fix>3d</fix>
</trkpt>
<trkpt lat="-35.3641248" lon="149.1654256">
  <ele>610.13</ele>
  <time>2026-08-28T19:09:57Z</time>
  <course>352.38</course>
  <speed>13.02</speed>
  <fix>3d</fix>
</trkpt>
<trkpt lat="-35.364086" lon="149.1654193">
  <ele>610.18</ele>
  <time>2026-08-28T19:09:57Z</time>
  <course>352.09</course>
  <speed>12.983104405341583</speed>
  <fix>3d</fix>
</trkpt>
<trkpt lat="-35.3641015" lon="149.1654218">
  <ele>610.13</ele>
  <time>2026-08-28T19:09:57Z</time>
  <course>352.39</course>
  <speed>13.01</speed>
  <fix>3d</fix>
</trkpt>
<trkpt lat="-35.3640629" lon="149.1654155">
  <ele>610.18</ele>
  <time>2026-08-28T19:09:57Z</time>
  <course>352.12</course>
  <speed>12.973191588811135</speed>
  <fix>3d</fix>
</trkpt>
<trkpt lat="-35.3640783" lon="149.165418">
  <ele>610.13</ele>
  <time>2026-08-28T19:09:57Z</time>
  <course>352.38</course>
  <speed>13.0</speed>
  <fix>3d</fix>
</trkpt>
<trkpt lat="-35.3640398" lon="149.1654118">
  <ele>610.17</ele>
  <time>2026-08-28T19:09:57Z</time>
  <course>352.1</course>
  <speed>12.963278906202705</speed>
  <fix>3d</fix>
</trkpt>
<trkpt lat="-35.3640551" lon="149.1654141">
  <ele>610.13</ele>
  <time>2026-08-28T19:09:57Z</time>
  <course>352.37</course>
  <speed>12.99</speed>
  <fix>3d</fix>
</trkpt>
<trkpt lat="-35.3640168" lon="149.165408">
  <ele>610.17</ele>
  <time>2026-08-28T19:09:57Z</time>
  <course>352.04</course>
  <speed>12.963278906202705</speed>
  <fix>3d</fix>
</trkpt>
<trkpt lat="-35.364032" lon="149.1654103">
  <ele>610.12</ele>
  <time>2026-08-28T19:09:57Z</time>
  <course>352.35</course>
  <speed>12.99</speed>
  <fix>3d</fix>
</trkpt>
<trkpt lat="-35.3639937" lon="149.1654042">
  <ele>610.17</ele>
  <time>2026-08-28T19:09:57Z</time>
  <course>351.97</course>
  <speed>12.964601806457459</speed>
  <fix>3d</fix>
</trkpt>
<trkpt lat="-35.3640089" lon="149.1654065">
  <ele>610.12</ele>
  <time>2026-08-28T19:09:57Z</time>
  <course>352.33</course>
  <speed>12.99</speed>
  <fix>3d</fix>
</trkpt>
<trkpt lat="-35.3639706" lon="149.1654003">
  <ele>610.17</ele>
  <time>2026-08-28T19:09:57Z</time>
  <course>351.92</course>
  <speed>12.965932284259393</speed>
  <fix>3d</fix>
</trkpt>
<trkpt lat="-35.3639857" lon="149.1654027">
  <ele>610.12</ele>
  <time>2026-08-28T19:09:57Z</time>
  <course>352.31</course>
  <speed>12.99</speed>
  <fix>3d</fix>
</trkpt>
<trkpt lat="-35.3639475" lon="149.1653965">
  <ele>610.17</ele>
  <time>2026-08-28T19:09:57Z</time>
  <course>351.88</course>
  <speed>12.967270337276076</speed>
  <fix>3d</fix>
</trkpt>
<trkpt lat="-35.3639626" lon="149.1653988">
  <ele>610.11</ele>
  <time>2026-08-28T19:09:57Z</time>
  <course>352.27</course>
  <speed>12.99</speed>
  <fix>3d</fix>
</trkpt>
<trkpt lat="-35.3639245" lon="149.1653926">
  <ele>610.17</ele>
  <time>2026-08-28T19:09:57Z</time>
  <course>351.82</course>
  <speed>12.967270337276076</speed>
  <fix>3d</fix>
</trkpt>
<trkpt lat="-35.3639395" lon="149.165395">
  <ele>610.11</ele>
  <time>2026-08-28T19:09:57Z</time>
  <course>352.24</course>
  <speed>12.99</speed>
  <fix>3d</fix>
</trkpt>
<trkpt lat="-35.3639014" lon="149.1653887">
  <ele>610.17</ele>
  <time>2026-08-28T19:09:57Z</time>
  <course>351.77</course>
  <speed>12.96861596316276</speed>
  <fix>3d</fix>
</trkpt>
<trkpt lat="-35.3639164" lon="149.1653911">
  <ele>610.11</ele>
  <time>2026-08-28T19:09:57Z</time>
  <course>352.21</course>
  <speed>12.99</speed>
  <fix>3d</fix>
</trkpt>
<trkpt lat="-35.3638781" lon="149.1653848">
  <ele>610.17</ele>
  <time>2026-08-28T19:09:57Z</time>
  <course>351.72</course>
  <speed>12.969969159562408</speed>
  <fix>3d</fix>
</trkpt>
<trkpt lat="-35.3638933" lon="149.1653872">
  <ele>610.11</ele>
  <time>2026-08-28T19:09:57Z</time>
  <course>352.18</course>
  <speed>12.99</speed>
  <fix>3d</fix>
</trkpt>
<trkpt lat="-35.363855" lon="149.1653809">
  <ele>610.17</ele>
  <time>2026-08-28T19:09:57Z</time>
  <course>351.73</course>
  <speed>12.97987673285074</speed>
  <fix>3d</fix>
</trkpt>
<trkpt lat="-35.3638701" lon="149.1653833">
  <ele>610.11</ele>
  <time>2026-08-28T19:09:57Z</time>
  <course>352.15</course>
  <speed>13.0</speed>
  <fix>3d</fix>
</trkpt>
<trkpt lat="-35.3638318" lon="149.165377">
  <ele>610.17</ele>
  <time>2026-08-28T19:09:57Z</time>
  <course>351.71</course>
  <speed>12.981236458827796</speed>
  <fix>3d</fix>
</trkpt>
<trkpt lat="-35.363847" lon="149.1653794">
  <ele>610.11</ele>
  <time>2026-08-28T19:09:57Z</time>
  <course>352.13</course>
  <speed>13.0</speed>
  <fix>3d</fix>
</trkpt>
<trkpt lat="-35.3638086" lon="149.165373">
  <ele>610.17</ele>
  <time>2026-08-28T19:09:57Z</time>
  <course>351.7</course>
  <speed>12.981236458827796</speed>
  <fix>3d</fix>
</trkpt>
<trkpt lat="-35.3638238" lon="149.1653755">
  <ele>610.11</ele>
  <time>2026-08-28T19:09:57Z</time>
  <course>352.11</course>
  <speed>13.0</speed>
  <fix>3d</fix>
</trkpt>
<trkpt lat="-35.3637855" lon="149.1653691">
  <ele>610.18</ele>
  <time>2026-08-28T19:09:57Z</time>
  <course>351.72</course>
  <speed>12.981236458827796</speed>
  <fix>3d</fix>
</trkpt>
<trkpt lat="-35.3638006" lon="149.1653715">
  <ele>610.11</ele>
  <time>2026-08-28T19:09:57Z</time>
  <course>352.1</course>
  <speed>13.0</speed>
  <fix>3d</fix>
</trkpt>
<trkpt lat="-35.3637623" lon="149.1653651">
  <ele>610.17</ele>
  <time>2026-08-28T19:09:57Z</time>
  <course>351.75</course>
  <speed>12.971329924105701</speed>
  <fix>3d</fix>
</trkpt>
<trkpt lat="-35.3637775" lon="149.1653676">
  <ele>610.11</ele>
  <time>2026-08-28T19:09:57Z</time>
  <course>352.1</course>
  <speed>12.99</speed>
  <fix>3d</fix>
</trkpt>
<trkpt lat="-35.3637392" lon="149.1653612">
  <ele>610.17</ele>
  <time>2026-08-28T19:09:57Z</time>
  <course>351.78</course>
  <speed>12.971329924105701</speed>
  <fix>3d</fix>
</trkpt>
<trkpt lat="-35.3637544" lon="149.1653637">
  <ele>610.11</ele>
  <time>2026-08-28T19:09:57Z</time>
  <course>352.11</course>
  <speed>12.99</speed>
  <fix>3d</fix>
</trkpt>
<trkpt lat="-35.3637161" lon="149.1653573">
  <ele>610.17</ele>
  <time>2026-08-28T19:09:57Z</time>
  <course>351.78</course>
  <speed>12.969969159562408</speed>
  <fix>3d</fix>
</trkpt>
<trkpt lat="-35.3637313" lon="149.1653598">
  <ele>610.11</ele>
  <time>2026-08-28T19:09:57Z</time>
  <course>352.11</course>
  <speed>12.98</speed>
  <fix>3d</fix>
</trkpt>
<trkpt lat="-35.3636931" lon="149.1653534">
  <ele>610.17</ele>
  <time>2026-08-28T19:09:57Z</time>
  <course>351.77</course>
  <speed>12.960061728248057</speed>
  <fix>3d</fix>
</trkpt>
<trkpt lat="-35.3637082" lon="149.1653559">
  <ele>610.1</ele>
  <time>2026-08-28T19:09:57Z</time>
  <course>352.13</course>
  <speed>12.98</speed>
  <fix>3d</fix>
</trkpt>
<trkpt lat="-35.36367" lon="149.1653495">
  <ele>610.17</ele>
  <time>2026-08-28T19:09:57Z</time>
  <course>351.76</course>
  <speed>12.969969159562408</speed>
  <fix>3d</fix>
</trkpt>
<trkpt lat="-35.3636851" lon="149.1653519">
  <ele>610.1</ele>
  <time>2026-08-28T19:09:57Z</time>
  <course>352.14</course>
  <speed>12.98</speed>
  <fix>3d</fix>
</trkpt>
<trkpt lat="-35.3636468" lon="149.1653456">
  <ele>610.18</ele>
  <time>2026-08-28T19:09:57Z</time>
  <course>351.77</course>
  <speed>12.969969159562408</speed>
  <fix>3d</fix>
</trkpt>
<trkpt lat="-35.363662" lon="149.165348">
  <ele>610.1</ele>
  <time>2026-08-28T19:09:57Z</time>
  <course>352.15</course>
  <speed>12.98</speed>
  <fix>3d</fix>
</trkpt>
<trkpt lat="-35.3636236" lon="149.1653417">
  <ele>610.18</ele>
  <time>2026-08-28T19:09:57Z</time>
  <course>351.76</course>
  <speed>12.96861596316276</speed>
  <fix>3d</fix>
</trkpt>
<trkpt lat="-35.3636389" lon="149.1653441">
  <ele>610.1</ele>
  <time>2026-08-28T19:09:57Z</time>
  <course>352.17</course>
  <speed>12.98</speed>
  <fix>3d</fix>
</trkpt>
<trkpt lat="-35.3636005" lon="149.1653378">
  <ele>610.17</ele>
  <time>2026-08-28T19:09:57Z</time>
  <course>351.78</course>
  <speed>12.96861596316276</speed>
  <fix>3d</fix>
</trkpt>
<trkpt lat="-35.3636158" lon="149.1653402">
  <ele>610.09</ele>
  <time>2026-08-28T19:09:57Z</time>
  <course>352.17</course>
  <speed>12.98</speed>
  <fix>3d</fix>
</trkpt>
<trkpt lat="-35.3635773" lon="149.1653339">
  <ele>610.17</ele>
  <time>2026-08-28T19:09:57Z</time>
  <course>351.77</course>
  <speed>12.978524569457038</speed>
  <fix>3d</fix>
</trkpt>
<trkpt lat="-35.3635926" lon="149.1653363">
  <ele>610.09</ele>
  <time>2026-08-28T19:09:57Z</time>
  <course>352.18</course>
  <speed>12.98</speed>
  <fix>3d</fix>
</trkpt>
<trkpt lat="-35.3635542" lon="149.16533">
  <ele>610.17</ele>
  <time>2026-08-28T19:09:57Z</time>
  <course>351.8</course>
  <speed>12.978524569457038</speed>
  <fix>3d</fix>
</trkpt>
<trkpt lat="-35.3635695" lon="149.1653325">
  <ele>610.09</ele>
  <time>2026-08-28T19:09:57Z</time>
  <course>352.19</course>
  <speed>12.98</speed>
  <fix>3d</fix>
</trkpt>
<trkpt lat="-35.363531" lon="149.1653261">
  <ele>610.17</ele>
  <time>2026-08-28T19:09:57Z</time>
  <course>351.8</course>
  <speed>12.978524569457038</speed>
  <fix>3d</fix>
</trkpt>
<trkpt lat="-35.3635464" lon="149.1653286">
  <ele>610.09</ele>
  <time>2026-08-28T19:09:57Z</time>
  <course>352.2</course>
  <speed>12.98</speed>
  <fix>3d</fix>
</trkpt>
<trkpt lat="-35.3635079" lon="149.1653222">
  <ele>610.16</ele>
  <time>2026-08-28T19:09:57Z</time>
  <course>351.84</course>
  <speed>12.96861596316276</speed>
  <fix>3d</fix>
</trkpt>
<trkpt lat="-35.3635233" lon="149.1653247">
  <ele>610.09</ele>
  <time>2026-08-28T19:09:57Z</time>
  <course>352.21</course>
  <speed>12.98</speed>
  <fix>3d</fix>
</trkpt>
<trkpt lat="-35.3634849" lon="149.1653183">
  <ele>610.16</ele>
  <time>2026-08-28T19:09:57Z</time>
  <course>351.88</course>
  <speed>12.96861596316276</speed>
  <fix>3d</fix>
</trkpt>
<trkpt lat="-35.3635002" lon="149.1653208">
  <ele>610.09</ele>
  <time>2026-08-28T19:09:57Z</time>
  <course>352.21</course>
  <speed>12.97</speed>
  <fix>3d</fix>
</trkpt>
<trkpt lat="-35.3634619" lon="149.1653145">
  <ele>610.15</ele>
  <time>2026-08-28T19:09:57Z</time>
  <course>351.83</course>
  <speed>12.967270337276076</speed>
  <fix>3d</fix>
</trkpt>
<trkpt lat="-35.3634771" lon="149.1653169">
  <ele>610.09</ele>
  <time>2026-08-28T19:09:57Z</time>
  <course>352.22</course>
  <speed>12.97</speed>
  <fix>3d</fix>
</trkpt>
<trkpt lat="-35.3634389" lon="149.1653107">
  <ele>610.14</ele>
  <time>2026-08-28T19:09:57Z</time>
  <course>351.79</course>
  <speed>12.967270337276076</speed>
  <fix>3d</fix>
</trkpt>
<trkpt lat="-35.363454" lon="149.1653131">
  <ele>610.09</ele>
  <time>2026-08-28T19:09:57Z</time>
  <course>352.23</course>
  <speed>12.97</speed>
  <fix>3d</fix>
</trkpt>
<trkpt lat="-35.3634159" lon="149.1653068">
  <ele>610.14</ele>
  <time>2026-08-28T19:09:57Z</time>
  <course>351.72</course>
  <speed>12.978524569457038</speed>
  <fix>3d</fix>
</trkpt>
<trkpt lat="-35.3634309" lon="149.1653093">
  <ele>610.08</ele>
  <time>2026-08-28T19:09:57Z</time>
  <course>352.23</course>
  <speed>12.98</speed>
  <fix>3d</fix>
</trkpt>
<trkpt lat="-35.3633926" lon="149.1653029">
  <ele>610.14</ele>
  <time>2026-08-28T19:09:57Z</time>
  <course>351.63</course>
  <speed>12.988433315839137</speed>
  <fix>3d</fix>
</trkpt>
<trkpt lat="-35.3634078" lon="149.1653054">
  <ele>610.08</ele>
  <time>2026-08-28T19:09:57Z</time>
  <course>352.23</course>
  <speed>12.99</speed>
  <fix>3d</fix>
</trkpt>
<trkpt lat="-35.3633694" lon="149.165299">
  <ele>610.14</ele>
  <time>2026-08-28T19:09:58Z</time>
  <course>351.61</course>
  <speed>12.998342201988683</speed>
  <fix>3d</fix>
</trkpt>
<trkpt lat="-35.3633847" lon="149.1653015">
  <ele>610.09</ele>
  <time>2026-08-28T19:09:58Z</time>
  <course>352.22</course>
  <speed>13.0</speed>
  <fix>3d</fix>
</trkpt>
<trkpt lat="-35.3633462" lon="149.1652951">
  <ele>610.15</ele>
  <time>2026-08-28T19:09:58Z</time>
  <course>351.61</course>
  <speed>13.009600301315947</speed>
  <fix>3d</fix>
</trkpt>
<trkpt lat="-35.3633615" lon="149.1652976">
  <ele>610.09</ele>
  <time>2026-08-28T19:09:58Z</time>
  <course>352.2</course>
  <speed>13.01</speed>
  <fix>3d</fix>
</trkpt>
<trkpt lat="-35.363323" lon="149.1652912">
  <ele>610.16</ele>
  <time>2026-08-28T19:09:58Z</time>
  <course>351.66</course>
  <speed>13.009600301315947</speed>
  <fix>3d</fix>
</trkpt>
<trkpt lat="-35.3633382" lon="149.1652937">
  <ele>610.09</ele>
  <time>2026-08-28T19:09:58Z</time>
  <course>352.19</course>
  <speed>13.02</speed>
  <fix>3d</fix>
</trkpt>
<trkpt lat="-35.3632999" lon="149.1652873">
  <ele>610.18</ele>
  <time>2026-08-28T19:09:58Z</time>
  <course>351.76</course>
  <speed>12.97987673285074</speed>
  <fix>3d</fix>
</trkpt>
<trkpt lat="-35.3633151" lon="149.1652898">
  <ele>610.1</ele>
  <time>2026-08-28T19:09:58Z</time>
  <course>352.18</course>
  <speed>13.01</speed>
  <fix>3d</fix>
</trkpt>
<trkpt lat="-35.3632768" lon="149.1652834">
  <ele>610.2</ele>
  <time>2026-08-28T19:09:58Z</time>
  <course>352.08</course>
  <speed>12.91907504429013</speed>
  <fix>3d</fix>
</trkpt>
<trkpt lat="-35.363292" lon="149.1652859">
  <ele>610.11</ele>
  <time>2026-08-28T19:09:58Z</time>
  <course>352.18</course>
  <speed>12.97</speed>
  <fix>3d</fix>
</trkpt>
<trkpt lat="-35.3632539" lon="149.1652796">
  <ele>610.23</ele>
  <time>2026-08-28T19:09:58Z</time>
  <course>352.62</course>
  <speed>12.797472406690314</speed>
  <fix>3d</fix>
</trkpt>
<trkpt lat="-35.363269" lon="149.165282">
  <ele>610.13</ele>
  <time>2026-08-28T19:09:58Z</time>
  <course>352.2</course>
  <speed>12.9</speed>
  <fix>3d</fix>
</trkpt>
<trkpt lat="-35.3632313" lon="149.1652758">
  <ele>610.27</ele>
  <time>2026-08-28T19:09:58Z</time>
  <course>353.32</course>
  <speed>12.62363656004085</speed>
  <fix>3d</fix>
</trkpt>
<trkpt lat="-35.3632461" lon="149.1652782">
  <ele>610.16</ele>
  <time>2026-08-28T19:09:58Z</time>
  <course>352.24</course>
  <speed>12.77</speed>
  <fix>3d</fix>
</trkpt>
<trkpt lat="-35.3632091" lon="149.1652722">
  <ele>610.31</ele>
  <time>2026-08-28T19:09:58Z</time>
  <course>354.07</course>
  <speed>12.397620739480619</speed>
  <fix>3d</fix>
</trkpt>
<trkpt lat="-35.3632235" lon="149.1652745">
  <ele>610.19</ele>
  <time>2026-08-28T19:09:58Z</time>
  <course>352.32</course>
  <speed>12.59</speed>
  <fix>3d</fix>
</trkpt>
<trkpt lat="-35.3631872" lon="149.1652686">
  <ele>610.34</ele>
  <time>2026-08-28T19:09:58Z</time>
  <course>354.81</course>
  <speed>12.122099653112905</speed>
  <fix>3d</fix>
</trkpt>
<trkpt lat="-35.3632013" lon="149.1652709">
  <ele>610.24</ele>
  <time>2026-08-28T19:09:58Z</time>
  <course>352.45</course>
  <speed>12.35</speed>
  <fix>3d</fix>
</trkpt>
<trkpt lat="-35.3631658" lon="149.1652652">
  <ele>610.37</ele>
  <time>2026-08-28T19:09:58Z</time>
  <course>355.52</course>
  <speed>11.804414428509363</speed>
  <fix>3d</fix>
</trkpt>
<trkpt lat="-35.3631795" lon="149.1652674">
  <ele>610.27</ele>
  <time>2026-08-28T19:09:58Z</time>
  <course>352.61</course>
  <speed>12.06</speed>
  <fix>3d</fix>
</trkpt>
<trkpt lat="-35.3631449" lon="149.165262">
  <ele>610.39</ele>
  <time>2026-08-28T19:09:58Z</time>
  <course>356.17</course>
  <speed>11.438483291066172</speed>
  <fix>3d</fix>
</trkpt>
<trkpt lat="-35.3631583" lon="149.165264">
  <ele>610.3</ele>
  <time>2026-08-28T19:09:58Z</time>
  <course>352.78</course>
  <speed>11.73</speed>
  <fix>3d</fix>
</trkpt>
<trkpt lat="-35.3631247" lon="149.1652589">
  <ele>610.41</ele>
  <time>2026-08-28T19:09:58Z</time>
  <course>356.75</course>
  <speed>11.031686181178289</speed>
  <fix>3d</fix>
</trkpt>
<trkpt lat="-35.3631377" lon="149.1652608">
  <ele>610.32</ele>
  <time>2026-08-28T19:09:58Z</time>
  <course>352.95</course>
  <speed>11.35</speed>
  <fix>3d</fix>
</trkpt>
<trkpt lat="-35.3631053" lon="149.165256">
  <ele>610.41</ele>
  <time>2026-08-28T19:09:58Z</time>
  <course>357.25</course>
  <speed>10.575329782091904</speed>
  <fix>3d</fix>
</trkpt>
<trkpt lat="-35.3631178" lon="149.1652579">
  <ele>610.33</ele>
  <time>2026-08-28T19:09:58Z</time>
  <course>353.11</course>
  <speed>10.92</speed>
  <fix>3d</fix>
</trkpt>
<trkpt lat="-35.3630868" lon="149.1652533">
  <ele>610.41</ele>
  <time>2026-08-28T19:09:58Z</time>
  <course>357.65</course>
  <speed>10.069379325459936</speed>
  <fix>3d</fix>
</trkpt>
<trkpt lat="-35.3630987" lon="149.1652551">
  <ele>610.34</ele>
  <time>2026-08-28T19:09:58Z</time>
  <course>353.24</course>
  <speed>10.45</speed>
  <fix>3d</fix>
</trkpt>
<trkpt lat="-35.3630692" lon="149.1652508">
  <ele>610.41</ele>
  <time>2026-08-28T19:09:58Z</time>
  <course>357.97</course>
  <speed>9.524898949595213</speed>
  <fix>3d</fix>
</trkpt>
<trkpt lat="-35.3630805" lon="149.1652525">
  <ele>610.33</ele>
  <time>2026-08-28T19:09:58Z</time>
  <course>353.35</course>
  <speed>9.93</speed>
  <fix>3d</fix>
</trkpt>
<trkpt lat="-35.3630527" lon="149.1652485">
  <ele>610.4</ele>
  <time>2026-08-28T19:09:58Z</time>
  <course>358.17</course>
  <speed>8.950625676454132</speed>
  <fix>3d</fix>
</trkpt>
<trkpt lat="-35.3630633" lon="149.16525">
  <ele>610.32</ele>
  <time>2026-08-28T19:09:58Z</time>
  <course>353.42</course>
  <speed>9.38</speed>
  <fix>3d</fix>
</trkpt>
<trkpt lat="-35.3630371" lon="149.1652462">
  <ele>610.38</ele>
  <time>2026-08-28T19:09:58Z</time>
  <course>358.18</course>
  <speed>8.367586270842985</speed>
  <fix>3d</fix>
</trkpt>
<trkpt lat="-35.3630471" lon="149.1652477">
  <ele>610.31</ele>
  <time>2026-08-28T19:09:58Z</time>
  <course>353.45</course>
  <speed>8.8</speed>
  <fix>3d</fix>
</trkpt>
<trkpt lat="-35.3630226" lon="149.1652442">
  <ele>610.35</ele>
  <time>2026-08-28T19:09:58Z</time>
  <course>358.01</course>
  <speed>7.804415416929061</speed>
  <fix>3d</fix>
</trkpt>
<trkpt lat="-35.3630319" lon="149.1652456">
  <ele>610.28</ele>
  <time>2026-08-28T19:09:58Z</time>
  <course>353.44</course>
  <speed>8.21</speed>
  <fix>3d</fix>
</trkpt>
<trkpt lat="-35.3630091" lon="149.1652422">
  <ele>610.3</ele>
  <time>2026-08-28T19:09:58Z</time>
  <course>357.67</course>
  <speed>7.242444338757462</speed>
  <fix>3d</fix>
</trkpt>
<trkpt lat="-35.3630177" lon="149.1652436">
  <ele>610.24</ele>
  <time>2026-08-28T19:09:58Z</time>
  <course>353.37</course>
  <speed>7.64</speed>
  <fix>3d</fix>
</trkpt>
<trkpt lat="-35.3629966" lon="149.1652404">
  <ele>610.25</ele>
  <time>2026-08-28T19:09:58Z</time>
  <course>357.17</course>
  <speed>6.701596824638139</speed>
  <fix>3d</fix>
</trkpt>
<trkpt lat="-35.3630046" lon="149.1652417">
  <ele>610.19</ele>
  <time>2026-08-28T19:09:58Z</time>
  <course>353.22</course>
  <speed>7.08</speed>
  <fix>3d</fix>
</trkpt>
<trkpt lat="-35.362985" lon="149.1652386">
  <ele>610.2</ele>
  <time>2026-08-28T19:09:58Z</time>
  <course>356.53</course>
  <speed>6.173370230271306</speed>
  <fix>3d</fix>
</trkpt>
<trkpt lat="-35.3629925" lon="149.1652399">
  <ele>610.14</ele>
  <time>2026-08-28T19:09:58Z</time>
  <course>352.96</course>
  <speed>6.53</speed>
  <fix>3d</fix>
</trkpt>
<trkpt lat="-35.3629744" lon="149.1652369">
  <ele>610.16</ele>
  <time>2026-08-28T19:09:58Z</time>
  <course>355.79</course>
  <speed>5.655448700147495</speed>
  <fix>3d</fix>
</trkpt>
<trkpt lat="-35.3629813" lon="149.1652381">
  <ele>610.1</ele>
  <time>2026-08-28T19:09:58Z</time>
  <course>352.57</course>
  <speed>6.0</speed>
  <fix>3d</fix>
</trkpt>
<trkpt lat="-35.3629648" lon="149.1652352">
  <ele>610.13</ele>
  <time>2026-08-28T19:09:58Z</time>
  <course>354.97</course>
  <speed>5.157799918569932</speed>
  <fix>3d</fix>
</trkpt>
<trkpt lat="-35.362971" lon="149.1652365">
  <ele>610.06</ele>
  <time>2026-08-28T19:09:58Z</time>
  <course>352.05</course>
  <speed>5.49</speed>
  <fix>3d</fix>
</trkpt>
<trkpt lat="-35.362956" lon="149.1652336">
  <ele>610.11</ele>
  <time>2026-08-28T19:09:58Z</time>
  <course>354.08</course>
  <speed>4.672226449991482</speed>
  <fix>3d</fix>
</trkpt>
<trkpt lat="-35.3629617" lon="149.1652348">
  <ele>610.03</ele>
  <time>2026-08-28T19:09:58Z</time>
  <course>351.41</course>
  <speed>4.98</speed>
  <fix>3d</fix>
</trkpt>
<trkpt lat="-35.3629482" lon="149.165232">
  <ele>610.1</ele>
  <time>2026-08-28T19:09:58Z</time>
  <course>353.14</course>
  <speed>4.205615293866047</speed>
  <fix>3d</fix>
</trkpt>
<trkpt lat="-35.3629533" lon="149.1652332">
  <ele>610.01</ele>
  <time>2026-08-28T19:09:58Z</time>
  <course>350.67</course>
  <speed>4.5</speed>
  <fix>3d</fix>
</trkpt>
<trkpt lat="-35.3629412" lon="149.1652305">
  <ele>610.1</ele>
  <time>2026-08-28T19:09:58Z</time>
  <course>352.15</course>
  <speed>3.7380476187443095</speed>
  <fix>3d</fix>
</trkpt>
<trkpt lat="-35.3629458" lon="149.1652315">
  <ele>610.0</ele>
  <time>2026-08-28T19:09:58Z</time>
  <course>349.84</course>
  <speed>4.03</speed>
  <fix>3d</fix>
</trkpt>
<trkpt lat="-35.362935" lon="149.165229">
  <ele>610.1</ele>
  <time>2026-08-28T19:09:58Z</time>
  <course>351.1</course>
  <speed>3.291018079561399</speed>
  <fix>3d</fix>
</trkpt>
<trkpt lat="-35.362939" lon="149.16523">
  <ele>609.99</ele>
  <time>2026-08-28T19:09:58Z</time>
  <course>348.91</course>
  <speed>3.57</speed>
  <fix>3d</fix>
</trkpt>
<trkpt lat="-35.3629297" lon="149.1652275">
  <ele>610.1</ele>
  <time>2026-08-28T19:09:58Z</time>
  <course>349.97</course>
  <speed>2.8429737951659</speed>
  <fix>3d</fix>
</trkpt>
<trkpt lat="-35.3629332" lon="149.1652285">
  <ele>609.99</ele>
  <time>2026-08-28T19:09:58Z</time>
  <course>347.86</course>
  <speed>3.11</speed>
  <fix>3d</fix>
</trkpt>
<trkpt lat="-35.3629252" lon="149.1652262">
  <ele>610.09</ele>
  <time>2026-08-28T19:09:58Z</time>
  <course>348.67</course>
  <speed>2.3938462774372127</speed>
  <fix>3d</fix>
</trkpt>
<trkpt lat="-35.3629281" lon="149.1652272">
  <ele>609.99</ele>
  <time>2026-08-28T19:09:58Z</time>
  <course>346.67</course>
  <speed>2.66</speed>
  <fix>3d</fix>
</trkpt>
<trkpt lat="-35.3629214" lon="149.165225">
  <ele>610.09</ele>
  <time>2026-08-28T19:09:58Z</time>
  <course>347.18</course>
  <speed>1.972536438193221</speed>
  <fix>3d</fix>
</trkpt>
<trkpt lat="-35.3629238" lon="149.1652259">
  <ele>609.99</ele>
  <time>2026-08-28T19:09:58Z</time>
  <course>345.27</course>
  <speed>2.22</speed>
  <fix>3d</fix>
</trkpt>
<trkpt lat="-35.3629183" lon="149.1652239">
  <ele>610.09</ele>
  <time>2026-08-28T19:09:58Z</time>
  <course>345.49</course>
  <speed>1.5719096666157377</speed>
  <fix>3d</fix>
</trkpt>
<trkpt lat="-35.3629203" lon="149.1652247">
  <ele>609.99</ele>
  <time>2026-08-28T19:09:58Z</time>
  <course>343.68</course>
  <speed>1.8</speed>
  <fix>3d</fix>
</trkpt>
<trkpt lat="-35.362916" lon="149.165223">
  <ele>610.09</ele>
  <time>2026-08-28T19:09:58Z</time>
  <course>343.75</course>
  <speed>1.2270289320142374</speed>
  <fix>3d</fix>
</trkpt>
<trkpt lat="-35.3629175" lon="149.1652236">
  <ele>609.99</ele>
  <time>2026-08-28T19:09:58Z</time>
  <course>341.91</course>
  <speed>1.42</speed>
  <fix>3d</fix>
</trkpt>
<trkpt lat="-35.3629142" lon="149.1652222">
  <ele>610.09</ele>
  <time>2026-08-28T19:09:58Z</time>
  <course>341.93</course>
  <speed>0.9304837451562494</speed>
  <fix>3d</fix>
</trkpt>
<trkpt lat="-35.3629155" lon="149.1652227">
  <ele>609.99</ele>
  <time>2026-08-28T19:09:58Z</time>
  <course>339.95</course>
  <speed>1.09</speed>
  <fix>3d</fix>
</trkpt>
<trkpt lat="-35.3629129" lon="149.1652216">
  <ele>610.09</ele>
  <time>2026-08-28T19:09:58Z</time>
  <course>341.19</course>
  <speed>0.6854195795277518</speed>
  <fix>3d</fix>
</trkpt>
<trkpt lat="-35.3629138" lon="149.165222">
  <ele>609.99</ele>
  <time>2026-08-28T19:09:58Z</time>
  <course>337.34</course>
  <speed>0.8</speed>
  <fix>3d</fix>
</trkpt>
<trkpt lat="-35.362912" lon="149.165221">
  <ele>610.09</ele>
  <time>2026-08-28T19:09:58Z</time>
  <course>341.28</course>
  <speed>0.474236228055175</speed>
  <fix>3d</fix>
</trkpt>
<trkpt lat="-35.3629127" lon="149.1652214">
  <ele>609.99</ele>
  <time>2026-08-28T19:09:58Z</time>
  <course>333.99</course>
  <speed>0.56</speed>
  <fix>3d</fix>
</trkpt>
<trkpt lat="-35.3629115" lon="149.1652207">
  <ele>610.09</ele>
  <time>2026-08-28T19:09:58Z</time>
  <course>341.19</course>
  <speed>0.3176476034853718</speed>
  <fix>3d</fix>
</trkpt>
<trkpt lat="-35.362912" lon="149.1652209">
  <ele>609.99</ele>
  <time>2026-08-28T19:09:58Z</time>
  <course>330.01</course>
  <speed>0.37</speed>
  <fix>3d</fix>
</trkpt>
<trkpt lat="-35.3629111" lon="149.1652204">
  <ele>610.1</ele>
  <time>2026-08-28T19:09:58Z</time>
  <course>341.16</course>
  <speed>0.1835755975068582</speed>
  <fix>3d</fix>
</trkpt>
<trkpt lat="-35.3629116" lon="149.1652205">
  <ele>609.99</ele>
  <time>2026-08-28T19:09:58Z</time>
  <course>324.09</course>
  <speed>0.22</speed>
  <fix>3d</fix>
</trkpt>
<trkpt lat="-35.362911" lon="149.1652202">
  <ele>610.1</ele>
  <time>2026-08-28T19:09:58Z</time>
  <course>341.09</course>
  <speed>0.10295630140987001</speed>
  <fix>3d</fix>
</trkpt>
<trkpt lat="-35.3629113" lon="149.1652203">
  <ele>610.0</ele>
  <time>2026-08-28T19:09:58Z</time>
  <course>313.62</course>
  <speed>0.11</speed>
  <fix>3d</fix>
</trkpt>
<trkpt lat="-35.362911" lon="149.1652201">
  <ele>610.11</ele>
  <time>2026-08-28T19:09:58Z</time>
  <course>341.02</course>
  <speed>0.053851648071345036</speed>
  <fix>3d</fix>
</trkpt>
<trkpt lat="-35.3629113" lon="149.1652202">
  <ele>610.01</ele>
  <time>2026-08-28T19:09:58Z</time>
  <course>289.5</course>
  <speed>0.04</speed>
  <fix>3d</fix>
</trkpt>
<trkpt lat="-35.362911" lon="149.1652201">
  <ele>610.12</ele>
  <time>2026-08-28T19:09:58Z</time>
  <course>340.98</course>
  <speed>0.04</speed>
  <fix>3d</fix>
</trkpt>
<trkpt lat="-35.3629113" lon="149.1652201">
  <ele>610.02</ele>
  <time>2026-08-28T19:09:58Z</time>
  <course>225.02</course>
  <speed>0.01</speed>
  <fix>3d</fix>
</trkpt>
<trkpt lat="-35.362911" lon="149.1652202">
  <ele>610.13</ele>
  <time>2026-08-28T19:09:58Z</time>
  <course>340.92</course>
  <speed>0.07280109889280519</speed>
  <fix>3d</fix>
</trkpt>
<trkpt lat="-35.3629113" lon="149.1652201">
  <ele>610.03</ele>
  <time>2026-08-28T19:09:58Z</time>
  <course>109.46</course>
  <speed>0.01</speed>
  <fix>3d</fix>
</trkpt>
<trkpt lat="-35.3629109" lon="149.1652202">
  <ele>610.14</ele>
  <time>2026-08-28T19:09:58Z</time>
  <course>340.87</course>
  <speed>0.13152946437965907</speed>
  <fix>3d</fix>
</trkpt>
<trkpt lat="-35.3629113" lon="149.1652202">
  <ele>610.04</ele>
  <time>2026-08-28T19:09:58Z</time>
  <course>33.35</course>
  <speed>0.04</speed>
  <fix>3d</fix>
</trkpt>
<trkpt lat="-35.3629107" lon="149.1652202">
  <ele>610.14</ele>
  <time>2026-08-28T19:09:58Z</time>
  <course>341.2</course>
  <speed>0.18110770276274835</speed>
  <fix>3d</fix>
</trkpt>
<trkpt lat="-35.3629112" lon="149.1652202">
  <ele>610.04</ele>
  <time>2026-08-28T19:09:58Z</time>
  <course>16.51</course>
  <speed>0.1</speed>
  <fix>3d</fix>
</trkpt>
<trkpt lat="-35.3629104" lon="149.1652202">
  <ele>610.09</ele>
  <time>2026-08-28T19:09:58Z</time>
  <course>341.6</course>
  <speed>0.22090722034374521</speed>
  <fix>3d</fix>
</trkpt>
<trkpt lat="-35.3629109" lon="149.1652202">
  <ele>610.02</ele>
  <time>2026-08-28T19:09:58Z</time>
  <course>9.23</course>
  <speed>0.15</speed>
  <fix>3d</fix>
</trkpt>
<trkpt lat="-35.3629101" lon="149.1652203">
  <ele>610.01</ele>
  <time>2026-08-28T19:09:58Z</time>
  <course>341.95</course>
  <speed>0.2501999200639361</speed>
  <fix>3d</fix>
</trkpt>
<trkpt lat="-35.3629106" lon="149.1652202">
  <ele>609.97</ele>
  <time>2026-08-28T19:09:58Z</time>
  <course>5.66</course>
  <speed>0.19</speed>
  <fix>3d</fix>
</trkpt>
<trkpt lat="-35.3629097" lon="149.1652203">
  <ele>609.88</ele>
  <time>2026-08-28T19:09:58Z</time>
  <course>342.26</course>
  <speed>0.2501999200639361</speed>
  <fix>3d</fix>
</trkpt>
<trkpt lat="-35.3629102" lon="149.1652202">
  <ele>609.88</ele>
  <time>2026-08-28T19:09:58Z</time>
  <course>4.1</course>
  <speed>0.22</speed>
  <fix>3d</fix>
</trkpt>
<trkpt lat="-35.3629093" lon="149.1652203">
  <ele>609.71</ele>
  <time>2026-08-28T19:09:58Z</time>
  <course>342.53</course>
  <speed>0.25079872407968906</speed>
  <fix>3d</fix>
</trkpt>
<trkpt lat="-35.3629098" lon="149.1652202">
  <ele>609.74</ele>
  <time>2026-08-28T19:09:58Z</time>
  <course>4.17</course>
  <speed>0.23</speed>
  <fix>3d</fix>
</trkpt>
<trkpt lat="-35.3629089" lon="149.1652204">
  <ele>609.48</ele>
  <time>2026-08-28T19:09:58Z</time>
  <course>342.75</course>
  <speed>0.24186773244895649</speed>
  <fix>3d</fix>
</trkpt>
<trkpt lat="-35.3629094" lon="149.1652203">
  <ele>609.55</ele>
  <time>2026-08-28T19:09:58Z</time>
  <course>5.69</course>
  <speed>0.23</speed>
  <fix>3d</fix>
</trkpt>
<trkpt lat="-35.3629085" lon="149.1652204">
  <ele>609.2</ele>
  <time>2026-08-28T19:09:58Z</time>
  <course>342.93</course>
  <speed>0.21377558326431947</speed>
  <fix>3d</fix>
</trkpt>
<trkpt lat="-35.362909" lon="149.1652204">
  <ele>609.32</ele>
  <time>2026-08-28T19:09:58Z</time>
  <course>8.58</course>
  <speed>0.22</speed>
  <fix>3d</fix>
</trkpt>
<trkpt lat="-35.3629082" lon="149.1652205">
  <ele>608.9</ele>
  <time>2026-08-28T19:09:58Z</time>
  <course>342.91</course>
  <speed>0.18973665961010278</speed>
  <fix>3d</fix>
</trkpt>
<trkpt lat="-35.3629086" lon="149.1652205">
  <ele>609.05</ele>
  <time>2026-08-28T19:09:58Z</time>
  <course>13.25</course>
  <speed>0.2</speed>
  <fix>3d</fix>
</trkpt>
<trkpt lat="-35.362908" lon="149.1652207">
  <ele>608.58</ele>
  <time>2026-08-28T19:09:58Z</time>
  <course>342.83</course>
  <speed>0.15652475842498528</speed>
  <fix>3d</fix>
</trkpt>
<trkpt lat="-35.3629082" lon="149.1652206">
  <ele>608.74</ele>
  <time>2026-08-28T19:09:58Z</time>
  <course>20.11</course>
  <speed>0.18</speed>
  <fix>3d</fix>
</trkpt>
<trkpt lat="-35.3629077" lon="149.1652209">
  <ele>608.25</ele>
  <time>2026-08-28T19:09:58Z</time>
  <course>342.68</course>
  <speed>0.12806248474865697</speed>
  <fix>3d</fix>
</trkpt>
<trkpt lat="-35.362908" lon="149.1652207">
  <ele>608.43</ele>
  <time>2026-08-28T19:09:58Z</time>
  <course>29.6</course>
  <speed>0.15</speed>
  <fix>3d</fix>
</trkpt>
<trkpt lat="-35.3629076" lon="149.1652211">
  <ele>607.92</ele>
  <time>2026-08-28T19:09:58Z</time>
  <course>342.57</course>
  <speed>0.10816653826391968</speed>
  <fix>3d</fix>
</trkpt>
<trkpt lat="-35.3629078" lon="149.1652209">
  <ele>608.1</ele>
  <time>2026-08-28T19:09:58Z</time>
  <course>42.84</course>
  <speed>0.13</speed>
  <fix>3d</fix>
</trkpt>
<trkpt lat="-35.3629076" lon="149.1652213">
  <ele>607.6</ele>
  <time>2026-08-28T19:09:58Z</time>
  <course>342.45</course>
  <speed>0.1004987562112089</speed>
  <fix>3d</fix>
</trkpt>
<trkpt lat="-35.3629076" lon="149.1652212">
  <ele>607.78</ele>
  <time>2026-08-28T19:09:58Z</time>
  <course>61.3</course>
  <speed>0.11</speed>
  <fix>3d</fix>
</trkpt>
<trkpt lat="-35.3629076" lon="149.1652215">
  <ele>607.28</ele>
  <time>2026-08-28T19:09:58Z</time>
  <course>342.36</course>
  <speed>0.1019803902718557</speed>
  <fix>3d</fix>
</trkpt>
<trkpt lat="-35.3629076" lon="149.1652214">
  <ele>607.46</ele>
  <time>2026-08-28T19:09:58Z</time>
  <course>84.35</course>
  <speed>0.1</speed>
  <fix>3d</fix>
</trkpt>
<trkpt lat="-35.3629077" lon="149.1652217">
  <ele>606.97</ele>
  <time>2026-08-28T19:09:58Z</time>
  <course>342.3</course>
  <speed>0.11661903789690602</speed>
  <fix>3d</fix>
</trkpt>
<trkpt lat="-35.3629076" lon="149.1652216">
  <ele>607.15</ele>
  <time>2026-08-28T19:09:58Z</time>
  <course>106.77</course>
  <speed>0.1</speed>
  <fix>3d</fix>
</trkpt>
<trkpt lat="-35.3629078" lon="149.1652219">
  <ele>606.66</ele>
  <time>2026-08-28T19:09:58Z</time>
  <course>342.19</course>
  <speed>0.1345362404707371</speed>
  <fix>3d</fix>
</trkpt>
<trkpt lat="-35.3629076" lon="149.1652219">
  <ele>606.85</ele>
  <time>2026-08-28T19:09:58Z</time>
  <course>124.05</course>
  <speed>0.12</speed>
  <fix>3d</fix>
</trkpt>
<trkpt lat="-35.3629079" lon="149.1652222">
  <ele>606.36</ele>
  <time>2026-08-28T19:09:58Z</time>
  <course>342.14</course>
  <speed>0.15811388300841897</speed>
  <fix>3d</fix>
</trkpt>
<trkpt lat="-35.3629078" lon="149.1652221">
  <ele>606.55</ele>
  <time>2026-08-28T19:09:58Z</time>
  <course>136.36</course>
  <speed>0.14</speed>
  <fix>3d</fix>
</trkpt>
<trkpt lat="-35.3629082" lon="149.1652223">
  <ele>606.06</ele>
  <time>2026-08-28T19:09:58Z</time>
  <course>342.13</course>
  <speed>0.17</speed>
  <fix>3d</fix>
</trkpt>
<trkpt lat="-35.362908" lon="149.1652222">
  <ele>606.25</ele>
  <time>2026-08-28T19:09:58Z</time>
  <course>145.27</course>
  <speed>0.16</speed>
  <fix>3d</fix>
</trkpt>
<trkpt lat="-35.3629084" lon="149.1652225">
  <ele>605.77</ele>
  <time>2026-08-28T19:09:58Z</time>
  <course>342.07</course>
  <speed>0.18384776310850234</speed>
  <fix>3d</fix>
</trkpt>
<trkpt lat="-35.3629082" lon="149.1652225">
  <ele>605.94</ele>
  <time>2026-08-28T19:09:58Z</time>
  <course>151.92</course>
  <speed>0.17</speed>
  <fix>3d</fix>
</trkpt>
<trkpt lat="-35.3629087" lon="149.1652227">
  <ele>605.48</ele>
  <time>2026-08-28T19:09:58Z</time>
  <course>342.03</course>
  <speed>0.18681541692269404</speed>
  <fix>3d</fix>
</trkpt>
<trkpt lat="-35.3629085" lon="149.1652226">
  <ele>605.65</ele>
  <time>2026-08-28T19:09:58Z</time>
  <course>157.33</course>
  <speed>0.18</speed>
  <fix>3d</fix>
</trkpt>
<trkpt lat="-35.3629091" lon="149.1652228">
  <ele>605.17</ele>
  <time>2026-08-28T19:09:58Z</time>
  <course>342.0</course>
  <speed>0.18439088914585774</speed>
  <fix>3d</fix>
</trkpt>
<trkpt lat="-35.3629088" lon="149.1652228">
  <ele>605.36</ele>
  <time>2026-08-28T19:09:58Z</time>
  <course>162.09</course>
  <speed>0.18</speed>
  <fix>3d</fix>
</trkpt>
<trkpt lat="-35.3629094" lon="149.1652229">
  <ele>604.87</ele>
  <time>2026-08-28T19:09:58Z</time>
  <course>341.95</course>
  <speed>0.1824828759089466</speed>
  <fix>3d</fix>
</trkpt>
<trkpt lat="-35.3629091" lon="149.1652229">
  <ele>605.06</ele>
  <time>2026-08-28T19:09:58Z</time>
  <course>166.39</course>
  <speed>0.18</speed>
  <fix>3d</fix>
</trkpt>
<trkpt lat="-35.3629097" lon="149.1652229">
  <ele>604.57</ele>
  <time>2026-08-28T19:09:58Z</time>
  <course>341.89</course>
  <speed>0.18027756377319945</speed>
  <fix>3d</fix>
</trkpt>
<trkpt lat="-35.3629095" lon="149.165223">
  <ele>604.76</ele>
  <time>2026-08-28T19:09:58Z</time>
  <course>170.33</course>
  <speed>0.18</speed>
  <fix>3d</fix>
</trkpt>
<trkpt lat="-35.36291" lon="149.165223">
  <ele>604.27</ele>
  <time>2026-08-28T19:09:58Z</time>
  <course>341.84</course>
  <speed>0.17</speed>
  <fix>3d</fix>
</trkpt>
<trkpt lat="-35.3629098" lon="149.165223">
  <ele>604.46</ele>
  <time>2026-08-28T19:09:58Z</time>
  <course>174.19</course>
  <speed>0.17</speed>
  <fix>3d</fix>
</trkpt>
<trkpt lat="-35.3629103" lon="149.165223">
  <ele>603.97</ele>
  <time>2026-08-28T19:09:58Z</time>
  <course>341.8</course>
  <speed>0.15</speed>
  <fix>3d</fix>
</trkpt>
<trkpt lat="-35.3629101" lon="149.1652231">
  <ele>604.17</ele>
  <time>2026-08-28T19:09:58Z</time>
  <course>178.33</course>
  <speed>0.16</speed>
  <fix>3d</fix>
</trkpt>
<trkpt lat="-35.3629106" lon="149.165223">
  <ele>603.67</ele>
  <time>2026-08-28T19:09:58Z</time>
  <course>341.76</course>
  <speed>0.140356688476182</speed>
  <fix>3d</fix>
</trkpt>
<trkpt lat="-35.3629103" lon="149.1652231">
  <ele>603.87</ele>
  <time>2026-08-28T19:09:58Z</time>
  <course>183.02</course>
  <speed>0.15</speed>
  <fix>3d</fix>
</trkpt>
<trkpt lat="-35.3629108" lon="149.165223">
  <ele>603.36</ele>
  <time>2026-08-28T19:09:58Z</time>
  <course>341.71</course>
  <speed>0.12165525060596438</speed>
  <fix>3d</fix>
</trkpt>
<trkpt lat="-35.3629106" lon="149.165223">
  <ele>603.56</ele>
  <time>2026-08-28T19:09:58Z</time>
  <course>188.32</course>
  <speed>0.13</speed>
  <fix>3d</fix>
</trkpt>
<trkpt lat="-35.362911" lon="149.1652229">
  <ele>603.07</ele>
  <time>2026-08-28T19:09:58Z</time>
  <course>341.67</course>
  <speed>0.1044030650891055</speed>
  <fix>3d</fix>
</trkpt>
<trkpt lat="-35.3629109" lon="149.165223">
  <ele>603.27</ele>
  <time>2026-08-28T19:09:58Z</time>
  <course>194.6</course>
  <speed>0.11</speed>
  <fix>3d</fix>
</trkpt>
<trkpt lat="-35.3629111" lon="149.1652229">
  <ele>602.77</ele>
  <time>2026-08-28T19:09:58Z</time>
  <course>341.65</course>
  <speed>0.08944271909999159</speed>
  <fix>3d</fix>
</trkpt>
<trkpt lat="-35.3629111" lon="149.165223">
  <ele>602.98</ele>
  <time>2026-08-28T19:09:58Z</time>
  <course>202.45</course>
  <speed>0.1</speed>
  <fix>3d</fix>
</trkpt>
<trkpt lat="-35.3629112" lon="149.1652228">
  <ele>602.47</ele>
  <time>2026-08-28T19:09:58Z</time>
  <course>341.61</course>
  <speed>0.07810249675906654</speed>
  <fix>3d</fix>
</trkpt>
<trkpt lat="-35.3629112" lon="149.1652229">
  <ele>602.68</ele>
  <time>2026-08-28T19:09:58Z</time>
  <course>212.06</course>
  <speed>0.08</speed>
  <fix>3d</fix>
</trkpt>
<trkpt lat="-35.3629113" lon="149.1652227">
  <ele>602.16</ele>
  <time>2026-08-28T19:09:58Z</time>
  <course>341.56</course>
  <speed>0.06403124237432849</speed>
  <fix>3d</fix>
</trkpt>
<trkpt lat="-35.3629113" lon="149.1652228">
  <ele>602.39</ele>
  <time>2026-08-28T19:09:58Z</time>
  <course>223.96</course>
  <speed>0.07</speed>
  <fix>3d</fix>
</trkpt>
<trkpt lat="-35.3629114" lon="149.1652226">
  <ele>601.86</ele>
  <time>2026-08-28T19:09:58Z</time>
  <course>341.53</course>
  <speed>0.053851648071345036</speed>
  <fix>3d</fix>
</trkpt>
<trkpt lat="-35.3629114" lon="149.1652227">
  <ele>602.08</ele>
  <time>2026-08-28T19:09:58Z</time>
  <course>238.93</course>
  <speed>0.06</speed>
  <fix>3d</fix>
</trkpt>
<trkpt lat="-35.3629114" lon="149.1652224">
  <ele>601.57</ele>
  <time>2026-08-28T19:09:58Z</time>
  <course>341.49</course>
  <speed>0.05</speed>
  <fix>3d</fix>
</trkpt>
<trkpt lat="-35.3629114" lon="149.1652226">
  <ele>601.79</ele>
  <time>2026-08-28T19:09:58Z</time>
  <course>256.26</course>
  <speed>0.05</speed>
  <fix>3d</fix>
</trkpt>
<trkpt lat="-35.3629114" lon="149.1652223">
  <ele>601.27</ele>
  <time>2026-08-28T19:09:58Z</time>
  <course>341.47</course>
  <speed>0.05099019513592785</speed>
  <fix>3d</fix>
</trkpt>
<trkpt lat="-35.3629114" lon="149.1652224">
  <ele>601.5</ele>
  <time>2026-08-28T19:09:58Z</time>
  <course>273.26</course>
  <speed>0.05</speed>
  <fix>3d</fix>
</trkpt>
<trkpt lat="-35.3629114" lon="149.1652222">
  <ele>600.97</ele>
  <time>2026-08-28T19:09:58Z</time>
  <course>341.45</course>
  <speed>0.053851648071345036</speed>
  <fix>3d</fix>
</trkpt>
<trkpt lat="-35.3629114" lon="149.1652223">
  <ele>601.19</ele>
  <time>2026-08-28T19:09:58Z</time>
  <course>287.73</course>
  <speed>0.05</speed>
  <fix>3d</fix>
</trkpt>
<trkpt lat="-35.3629113" lon="149.1652221">
  <ele>600.67</ele>
  <time>2026-08-28T19:09:58Z</time>
  <course>341.43</course>
  <speed>0.05</speed>
  <fix>3d</fix>
</trkpt>
<trkpt lat="-35.3629114" lon="149.1652222">
  <ele>600.9</ele>
  <time>2026-08-28T19:09:58Z</time>
  <course>299.39</course>
  <speed>0.05</speed>
  <fix>3d</fix>
</trkpt>
<trkpt lat="-35.3629113" lon="149.165222">
  <ele>600.37</ele>
  <time>2026-08-28T19:09:58Z</time>
  <course>341.4</course>
  <speed>0.05</speed>
  <fix>3d</fix>
</trkpt>
<trkpt lat="-35.3629114" lon="149.1652221">
  <ele>600.61</ele>
  <time>2026-08-28T19:09:58Z</time>
  <course>308.96</course>
  <speed>0.05</speed>
  <fix>3d</fix>
</trkpt>
<trkpt lat="-35.3629113" lon="149.1652219">
  <ele>600.07</ele>
  <time>2026-08-28T19:09:58Z</time>
  <course>341.37</course>
  <speed>0.05</speed>
  <fix>3d</fix>
</trkpt>
<trkpt lat="-35.3629113" lon="149.165222">
  <ele>600.31</ele>
  <time>2026-08-28T19:09:58Z</time>
  <course>316.85</course>
  <speed>0.06</speed>
  <fix>3d</fix>
</trkpt>
<trkpt lat="-35.3629112" lon="149.1652219">
  <ele>599.78</ele>
  <time>2026-08-28T19:09:58Z</time>
  <course>341.35</course>
  <speed>0.05</speed>
  <fix>3d</fix>
</trkpt>
<trkpt lat="-35.3629112" lon="149.1652219">
  <ele>600.02</ele>
  <time>2026-08-28T19:09:58Z</time>
  <course>323.6</course>
  <speed>0.05</speed>
  <fix>3d</fix>
</trkpt>
<trkpt lat="-35.3629111" lon="149.1652218">
  <ele>599.48</ele>
  <time>2026-08-28T19:09:58Z</time>
  <course>341.32</course>
  <speed>0.044721359549995794</speed>
  <fix>3d</fix>
</trkpt>
<trkpt lat="-35.3629111" lon="149.1652218">
  <ele>599.72</ele>
  <time>2026-08-28T19:09:58Z</time>
  <course>330.09</course>
  <speed>0.05</speed>
  <fix>3d</fix>
</trkpt>
<trkpt lat="-35.362911" lon="149.1652218">
  <ele>599.19</ele>
  <time>2026-08-28T19:09:58Z</time>
  <course>341.3</course>
  <speed>0.044721359549995794</speed>
  <fix>3d</fix>
</trkpt>
<trkpt lat="-35.3629111" lon="149.1652217">
  <ele>599.42</ele>
  <time>2026-08-28T19:09:58Z</time>
  <course>336.61</course>
  <speed>0.05</speed>
  <fix>3d</fix>
</trkpt>
<trkpt lat="-35.3629109" lon="149.1652217">
  <ele>598.9</ele>
  <time>2026-08-28T19:09:58Z</time>
  <course>341.28</course>
  <speed>0.0412310562561766</speed>
  <fix>3d</fix>
</trkpt>
<trkpt lat="-35.362911" lon="149.1652217">
  <ele>599.12</ele>
  <time>2026-08-28T19:09:58Z</time>
  <course>343.8</course>
  <speed>0.04</speed>
  <fix>3d</fix>
</trkpt>
<trkpt lat="-35.3629109" lon="149.1652217">
  <ele>598.6</ele>
  <time>2026-08-28T19:09:58Z</time>
  <course>341.25</course>
  <speed>0.03</speed>
  <fix>3d</fix>
</trkpt>
<trkpt lat="-35.3629109" lon="149.1652217">
  <ele>598.81</ele>
  <time>2026-08-28T19:09:58Z</time>
  <course>352.38</course>
  <speed>0.04</speed>
  <fix>3d</fix>
</trkpt>
<trkpt lat="-35.3629108" lon="149.1652217">
  <ele>598.3</ele>
  <time>2026-08-28T19:09:58Z</time>
  <course>341.24</course>
  <speed>0.03</speed>
  <fix>3d</fix>
</trkpt>
<trkpt lat="-35.3629108" lon="149.1652217">
  <ele>598.52</ele>
  <time>2026-08-28T19:09:58Z</time>
  <course>2.3</course>
  <speed>0.03</speed>
  <fix>3d</fix>
</trkpt>
<trkpt lat="-35.3629108" lon="149.1652217">
  <ele>598.01</ele>
  <time>2026-08-28T19:09:58Z</time>
  <course>341.22</course>
  <speed>0.02</speed>
  <fix>3d</fix>
</trkpt>
<trkpt lat="-35.3629108" lon="149.1652217">
  <ele>598.22</ele>
  <time>2026-08-28T19:09:58Z</time>
  <course>13.46</course>
  <speed>0.03</speed>
  <fix>3d</fix>
</trkpt>
<trkpt lat="-35.3629107" lon="149.1652218">
  <ele>597.7</ele>
  <time>2026-08-28T19:09:58Z</time>
  <course>341.18</course>
  <speed>0.02</speed>
  <fix>3d</fix>
</trkpt>
<trkpt lat="-35.3629107" lon="149.1652217">
  <ele>597.91</ele>
  <time>2026-08-28T19:09:58Z</time>
  <course>26.56</course>
  <speed>0.03</speed>
  <fix>3d</fix>
</trkpt>
<trkpt lat="-35.3629107" lon="149.1652218">
  <ele>597.4</ele>
  <time>2026-08-28T19:09:58Z</time>
  <course>341.16</course>
  <speed>0.01414213562373095</speed>
  <fix>3d</fix>
</trkpt>
<trkpt lat="-35.3629107" lon="149.1652217">
  <ele>597.61</ele>
  <time>2026-08-28T19:09:58Z</time>
  <course>42.0</course>
  <speed>0.02</speed>
  <fix>3d</fix>
</trkpt>
<trkpt lat="-35.3629107" lon="149.1652218">
  <ele>597.1</ele>
  <time>2026-08-28T19:09:58Z</time>
  <course>341.13</course>
  <speed>0.01</speed>
  <fix>3d</fix>
</trkpt>
<trkpt lat="-35.3629106" lon="149.1652217">
  <ele>597.3</ele>
  <time>2026-08-28T19:09:58Z</time>
  <course>58.5</course>
  <speed>0.02</speed>
  <fix>3d</fix>
</trkpt>
<trkpt lat="-35.3629106" lon="149.1652218">
  <ele>596.79</ele>
  <time>2026-08-28T19:09:58Z</time>
  <course>341.1</course>
  <speed>0.01</speed>
  <fix>3d</fix>
</trkpt>
<trkpt lat="-35.3629106" lon="149.1652218">
  <ele>597.0</ele>
  <time>2026-08-28T19:09:58Z</time>
  <course>75.0</course>
  <speed>0.02</speed>
  <fix>3d</fix>
</trkpt>
<trkpt lat="-35.3629106" lon="149.1652218">
  <ele>596.49</ele>
  <time>2026-08-28T19:09:58Z</time>
  <course>341.08</course>
  <speed>0.02</speed>
  <fix>3d</fix>
</trkpt>
<trkpt lat="-35.3629106" lon="149.1652219">
  <ele>596.69</ele>
  <time>2026-08-28T19:09:58Z</time>
  <course>89.42</course>
  <speed>0.03</speed>
  <fix>3d</fix>
</trkpt>
<trkpt lat="-35.3629107" lon="149.1652219">
  <ele>596.19</ele>
  <time>2026-08-28T19:09:58Z</time>
  <course>341.05</course>
  <speed>0.02</speed>
  <fix>3d</fix>
</trkpt>
<trkpt lat="-35.3629106" lon="149.1652219">
  <ele>596.39</ele>
  <time>2026-08-28T19:09:58Z</time>
  <course>100.8</course>
  <speed>0.03</speed>
  <fix>3d</fix>
</trkpt>
<trkpt lat="-35.3629107" lon="149.165222">
  <ele>595.89</ele>
  <time>2026-08-28T19:09:58Z</time>
  <course>341.02</course>
  <speed>0.01414213562373095</speed>
  <fix>3d</fix>
</trkpt>
<trkpt lat="-35.3629106" lon="149.165222">
  <ele>596.08</ele>
  <time>2026-08-28T19:09:58Z</time>
  <course>109.89</course>
  <speed>0.03</speed>
  <fix>3d</fix>
</trkpt>
<trkpt lat="-35.3629107" lon="149.165222">
  <ele>595.59</ele>
  <time>2026-08-28T19:09:58Z</time>
  <course>340.98</course>
  <speed>0.01414213562373095</speed>
  <fix>3d</fix>
</trkpt>
<trkpt lat="-35.3629107" lon="149.1652221">
  <ele>595.79</ele>
  <time>2026-08-28T19:09:58Z</time>
  <course>116.99</course>
  <speed>0.03</speed>
  <fix>3d</fix>
</trkpt>
<trkpt lat="-35.3629107" lon="149.1652221">
  <ele>595.29</ele>
  <time>2026-08-28T19:09:58Z</time>
  <course>340.96</course>
  <speed>0.01414213562373095</speed>
  <fix>3d</fix>
</trkpt>
<trkpt lat="-35.3629107" lon="149.1652222">
  <ele>595.48</ele>
  <time>2026-08-28T19:09:58Z</time>
  <course>123.04</course>
  <speed>0.03</speed>
  <fix>3d</fix>
</trkpt>
<trkpt lat="-35.3629107" lon="149.1652221">
  <ele>594.98</ele>
  <time>2026-08-28T19:09:58Z</time>
  <course>340.94</course>
  <speed>0.022360679774997897</speed>
  <fix>3d</fix>
</trkpt>
<trkpt lat="-35.3629107" lon="149.1652222">
  <ele>595.18</ele>
  <time>2026-08-28T19:09:58Z</time>
  <course>128.64</course>
  <speed>0.03</speed>
  <fix>3d</fix>
</trkpt>
<trkpt lat="-35.3629107" lon="149.1652222">
  <ele>594.68</ele>
  <time>2026-08-28T19:09:58Z</time>
  <course>340.92</course>
  <speed>0.022360679774997897</speed>
  <fix>3d</fix>
</trkpt>
<trkpt lat="-35.3629107" lon="149.1652222">
  <ele>594.88</ele>
  <time>2026-08-28T19:09:58Z</time>
  <course>133.39</course>
  <speed>0.03</speed>
  <fix>3d</fix>
</trkpt>
<trkpt lat="-35.3629108" lon="149.1652222">
  <ele>594.38</ele>
  <time>2026-08-28T19:09:58Z</time>
  <course>340.9</course>
  <speed>0.02</speed>
  <fix>3d</fix>
</trkpt>
<trkpt lat="-35.3629107" lon="149.1652223">
  <ele>594.57</ele>
  <time>2026-08-28T19:09:58Z</time>
  <course>138.07</course>
  <speed>0.03</speed>
  <fix>3d</fix>
</trkpt>
<trkpt lat="-35.3629108" lon="149.1652223">
  <ele>594.07</ele>
  <time>2026-08-28T19:09:58Z</time>
  <course>340.86</course>
  <speed>0.01</speed>
  <fix>3d</fix>
</trkpt>
<trkpt lat="-35.3629108" lon="149.1652224">
  <ele>594.28</ele>
  <time>2026-08-28T19:09:58Z</time>
  <course>143.47</course>
  <speed>0.03</speed>
  <fix>3d</fix>
</trkpt>
<trkpt lat="-35.3629108" lon="149.1652223">
  <ele>593.77</ele>
  <time>2026-08-28T19:09:58Z</time>
  <course>340.83</course>
  <speed>0.01</speed>
  <fix>3d</fix>
</trkpt>
<trkpt lat="-35.3629108" lon="149.1652224">
  <ele>593.98</ele>
  <time>2026-08-28T19:09:58Z</time>
  <course>149.19</course>
  <speed>0.02</speed>
  <fix>3d</fix>
</trkpt>
<trkpt lat="-35.3629109" lon="149.1652223">
  <ele>593.47</ele>
  <time>2026-08-28T19:09:58Z</time>
  <course>340.81</course>
  <speed>0.01</speed>
  <fix>3d</fix>
</trkpt>
<trkpt lat="-35.3629108" lon="149.1652225">
  <ele>593.68</ele>
  <time>2026-08-28T19:09:58Z</time>
  <course>155.47</course>
  <speed>0.02</speed>
  <fix>3d</fix>
</trkpt>
<trkpt lat="-35.3629109" lon="149.1652223">
  <ele>593.18</ele>
  <time>2026-08-28T19:09:58Z</time>
  <course>340.53</course>
  <speed>0.01</speed>
  <fix>3d</fix>
</trkpt>
<trkpt lat="-35.3629108" lon="149.1652225">
  <ele>593.38</ele>
  <time>2026-08-28T19:09:58Z</time>
  <course>160.43</course>
  <speed>0.02</speed>
  <fix>3d</fix>
</trkpt>
<trkpt lat="-35.3629109" lon="149.1652223">
  <ele>592.93</ele>
  <time>2026-08-28T19:09:58Z</time>
  <course>340.16</course>
  <speed>0.01414213562373095</speed>
  <fix>3d</fix>
</trkpt>
<trkpt lat="-35.3629109" lon="149.1652225">
  <ele>593.1</ele>
  <time>2026-08-28T19:09:58Z</time>
  <course>166.42</course>
  <speed>0.02</speed>
  <fix>3d</fix>
</trkpt>
<trkpt lat="-35.3629109" lon="149.1652223">
  <ele>592.71</ele>
  <time>2026-08-28T19:09:58Z</time>
  <course>339.81</course>
  <speed>0.01414213562373095</speed>
  <fix>3d</fix>
</trkpt>
<trkpt lat="-35.3629109" lon="149.1652225">
  <ele>592.86</ele>
  <time>2026-08-28T19:09:58Z</time>
  <course>178.99</course>
  <speed>0.02</speed>
  <fix>3d</fix>
</trkpt>
<trkpt lat="-35.362911" lon="149.1652223">
  <ele>592.54</ele>
  <time>2026-08-28T19:09:59Z</time>
  <course>339.48</course>
  <speed>0.022360679774997897</speed>
  <fix>3d</fix>
</trkpt>
<trkpt lat="-35.362911" lon="149.1652225">
  <ele>592.65</ele>
  <time>2026-08-28T19:09:59Z</time>
  <course>195.57</course>
  <speed>0.02</speed>
  <fix>3d</fix>
</trkpt>
<trkpt lat="-35.362911" lon="149.1652223">
  <ele>592.41</ele>
  <time>2026-08-28T19:09:59Z</time>
  <course>339.24</course>
  <speed>0.0316227766016838</speed>
  <fix>3d</fix>
</trkpt>
<trkpt lat="-35.3629111" lon="149.1652225">
  <ele>592.49</ele>
  <time>2026-08-28T19:09:59Z</time>
  <course>210.39</course>
  <speed>0.02</speed>
  <fix>3d</fix>
</trkpt>
<trkpt lat="-35.362911" lon="149.1652223">
  <ele>592.31</ele>
  <time>2026-08-28T19:09:59Z</time>
  <course>339.25</course>
  <speed>0.0412310562561766</speed>
  <fix>3d</fix>
</trkpt>
<trkpt lat="-35.3629111" lon="149.1652225">
  <ele>592.37</ele>
  <time>2026-08-28T19:09:59Z</time>
  <course>220.89</course>
  <speed>0.03</speed>
  <fix>3d</fix>
</trkpt>
<trkpt lat="-35.3629111" lon="149.1652223">
  <ele>592.23</ele>
  <time>2026-08-28T19:09:59Z</time>
  <course>339.32</course>
  <speed>0.0412310562561766</speed>
  <fix>3d</fix>
</trkpt>
<trkpt lat="-35.3629112" lon="149.1652225">
  <ele>592.28</ele>
  <time>2026-08-28T19:09:59Z</time>
  <course>227.67</course>
  <speed>0.04</speed>
  <fix>3d</fix>
</trkpt>
<trkpt lat="-35.3629111" lon="149.1652222">
  <ele>592.15</ele>
  <time>2026-08-28T19:09:59Z</time>
  <course>339.41</course>
  <speed>0.05099019513592785</speed>
  <fix>3d</fix>
</trkpt>
<trkpt lat="-35.3629112" lon="149.1652224">
  <ele>592.19</ele>
  <time>2026-08-28T19:09:59Z</time>
  <course>232.68</course>
  <speed>0.04</speed>
  <fix>3d</fix>
</trkpt>
<trkpt lat="-35.3629112" lon="149.1652221">
  <ele>592.08</ele>
  <time>2026-08-28T19:09:59Z</time>
  <course>339.45</course>
  <speed>0.05099019513592785</speed>
  <fix>3d</fix>
</trkpt>
<trkpt lat="-35.3629113" lon="149.1652223">
  <ele>592.12</ele>
  <time>2026-08-28T19:09:59Z</time>
  <course>237.42</course>
  <speed>0.04</speed>
  <fix>3d</fix>
</trkpt>
<trkpt lat="-35.3629112" lon="149.165222">
  <ele>592.0</ele>
  <time>2026-08-28T19:09:59Z</time>
  <course>339.53</course>
  <speed>0.05</speed>
  <fix>3d</fix>
</trkpt>
<trkpt lat="-35.3629113" lon="149.1652222">
  <ele>592.05</ele>
  <time>2026-08-28T19:09:59Z</time>
  <course>242.74</course>
  <speed>0.04</speed>
  <fix>3d</fix>
</trkpt>
<trkpt lat="-35.3629112" lon="149.165222">
  <ele>591.91</ele>
  <time>2026-08-28T19:09:59Z</time>
  <course>339.57</course>
  <speed>0.04</speed>
  <fix>3d</fix>
</trkpt>
<trkpt lat="-35.3629113" lon="149.1652221">
  <ele>591.97</ele>
  <time>2026-08-28T19:09:59Z</time>
  <course>248.85</course>
  <speed>0.03</speed>
  <fix>3d</fix>
</trkpt>
<trkpt lat="-35.3629112" lon="149.1652219">
  <ele>591.83</ele>
  <time>2026-08-28T19:09:59Z</time>
  <course>339.62</course>
  <speed>0.04</speed>
  <fix>3d</fix>
</trkpt>
<trkpt lat="-35.3629114" lon="149.1652221">
  <ele>591.88</ele>
  <time>2026-08-28T19:09:59Z</time>
  <course>255.99</course>
  <speed>0.03</speed>
  <fix>3d</fix>
</trkpt>
<trkpt lat="-35.3629112" lon="149.1652219">
  <ele>591.73</ele>
  <time>2026-08-28T19:09:59Z</time>
  <course>339.65</course>
  <speed>0.03</speed>
  <fix>3d</fix>
</trkpt>
<trkpt lat="-35.3629114" lon="149.165222">
  <ele>591.79</ele>
  <time>2026-08-28T19:09:59Z</time>
  <course>264.36</course>
  <speed>0.03</speed>
  <fix>3d</fix>
</trkpt>
<trkpt lat="-35.3629112" lon="149.1652218">
  <ele>591.64</ele>
  <time>2026-08-28T19:09:59Z</time>
  <course>339.67</course>
  <speed>0.0316227766016838</speed>
  <fix>3d</fix>
</trkpt>
<trkpt lat="-35.3629114" lon="149.1652219">
  <ele>591.69</ele>
  <time>2026-08-28T19:09:59Z</time>
  <course>274.66</course>
  <speed>0.02</speed>
  <fix>3d</fix>
</trkpt>
<trkpt lat="-35.3629112" lon="149.1652218">
  <ele>591.54</ele>
  <time>2026-08-28T19:09:59Z</time>
  <course>339.68</course>
  <speed>0.022360679774997897</speed>
  <fix>3d</fix>
</trkpt>
<trkpt lat="-35.3629114" lon="149.1652219">
  <ele>591.6</ele>
  <time>2026-08-28T19:09:59Z</time>
  <course>288.42</course>
  <speed>0.02</speed>
  <fix>3d</fix>
</trkpt>
<trkpt lat="-35.3629112" lon="149.1652217">
  <ele>591.45</ele>
  <time>2026-08-28T19:09:59Z</time>
  <course>339.68</course>
  <speed>0.0282842712474619</speed>
  <fix>3d</fix>
</trkpt>
<trkpt lat="-35.3629114" lon="149.1652219">
  <ele>591.5</ele>
  <time>2026-08-28T19:09:59Z</time>
  <course>307.37</course>
  <speed>0.01</speed>
  <fix>3d</fix>
</trkpt>
<trkpt lat="-35.3629112" lon="149.1652217">
  <ele>591.35</ele>
  <time>2026-08-28T19:09:59Z</time>
  <course>339.69</course>
  <speed>0.022360679774997897</speed>
  <fix>3d</fix>
</trkpt>
<trkpt lat="-35.3629114" lon="149.1652219">
  <ele>591.4</ele>
  <time>2026-08-28T19:09:59Z</time>
  <course>329.52</course>
  <speed>0.01</speed>
  <fix>3d</fix>
</trkpt>
<trkpt lat="-35.3629112" lon="149.1652217">
  <ele>591.25</ele>
  <time>2026-08-28T19:09:59Z</time>
  <course>339.7</course>
  <speed>0.022360679774997897</speed>
  <fix>3d</fix>
</trkpt>
<trkpt lat="-35.3629114" lon="149.1652218">
  <ele>591.3</ele>
  <time>2026-08-28T19:09:59Z</time>
  <course>349.74</course>
  <speed>0.01</speed>
  <fix>3d</fix>
</trkpt>
<trkpt lat="-35.3629112" lon="149.1652217">
  <ele>591.15</ele>
  <time>2026-08-28T19:09:59Z</time>
  <course>339.7</course>
  <speed>0.02</speed>
  <fix>3d</fix>
</trkpt>
<trkpt lat="-35.3629113" lon="149.1652217">
  <ele>591.19</ele>
  <time>2026-08-28T19:09:59Z</time>
  <course>3.59</course>
  <speed>0.02</speed>
  <fix>3d</fix>
</trkpt>
<trkpt lat="-35.3629112" lon="149.1652218">
  <ele>591.05</ele>
  <time>2026-08-28T19:09:59Z</time>
  <course>339.7</course>
  <speed>0.03</speed>
  <fix>3d</fix>
</trkpt>
<trkpt lat="-35.3629113" lon="149.1652218">
  <ele>591.08</ele>
  <time>2026-08-28T19:09:59Z</time>
  <course>12.45</course>
  <speed>0.02</speed>
  <fix>3d</fix>
</trkpt>
<trkpt lat="-35.3629112" lon="149.1652218">
  <ele>590.95</ele>
  <time>2026-08-28T19:09:59Z</time>
  <course>339.7</course>
  <speed>0.03</speed>
  <fix>3d</fix>
</trkpt>
<trkpt lat="-35.3629113" lon="149.1652219">
  <ele>590.99</ele>
  <time>2026-08-28T19:09:59Z</time>
  <course>19.26</course>
  <speed>0.02</speed>
  <fix>3d</fix>
</trkpt>
<trkpt lat="-35.3629111" lon="149.1652218">
  <ele>590.84</ele>
  <time>2026-08-28T19:09:59Z</time>
  <course>339.7</course>
  <speed>0.03</speed>
  <fix>3d</fix>
</trkpt>
<trkpt lat="-35.3629112" lon="149.1652219">
  <ele>590.88</ele>
  <time>2026-08-28T19:09:59Z</time>
  <course>25.24</course>
  <speed>0.02</speed>
  <fix>3d</fix>
</trkpt>
<trkpt lat="-35.3629111" lon="149.1652218">
  <ele>590.74</ele>
  <time>2026-08-28T19:09:59Z</time>
  <course>339.7</course>
  <speed>0.03</speed>
  <fix>3d</fix>
</trkpt>
<trkpt lat="-35.3629112" lon="149.1652219">
  <ele>590.78</ele>
  <time>2026-08-28T19:09:59Z</time>
  <course>30.6</course>
  <speed>0.02</speed>
  <fix>3d</fix>
</trkpt>
<trkpt lat="-35.3629111" lon="149.1652218">
  <ele>590.64</ele>
  <time>2026-08-28T19:09:59Z</time>
  <course>339.72</course>
  <speed>0.02</speed>
  <fix>3d</fix>
</trkpt>
<trkpt lat="-35.3629111" lon="149.1652219">
  <ele>590.68</ele>
  <time>2026-08-28T19:09:59Z</time>
  <course>35.4</course>
  <speed>0.02</speed>
  <fix>3d</fix>
</trkpt>
<trkpt lat="-35.362911" lon="149.1652218">
  <ele>590.53</ele>
  <time>2026-08-28T19:09:59Z</time>
  <course>339.7</course>
  <speed>0.02</speed>
  <fix>3d</fix>
</trkpt>
<trkpt lat="-35.3629111" lon="149.1652219">
  <ele>590.58</ele>
  <time>2026-08-28T19:09:59Z</time>
  <course>40.69</course>
  <speed>0.02</speed>
  <fix>3d</fix>
</trkpt>
<trkpt lat="-35.362911" lon="149.1652219">
  <ele>590.43</ele>
  <time>2026-08-28T19:09:59Z</time>
  <course>339.71</course>
  <speed>0.02</speed>
  <fix>3d</fix>
</trkpt>
<trkpt lat="-35.362911" lon="149.1652219">
  <ele>590.48</ele>
  <time>2026-08-28T19:09:59Z</time>
  <course>46.69</course>
  <speed>0.02</speed>
  <fix>3d</fix>
</trkpt>
<trkpt lat="-35.362911" lon="149.1652219">
  <ele>590.33</ele>
  <time>2026-08-28T19:09:59Z</time>
  <course>339.69</course>
  <speed>0.01</speed>
  <fix>3d</fix>
</trkpt>
<trkpt lat="-35.3629109" lon="149.165222">
  <ele>590.37</ele>
  <time>2026-08-28T19:09:59Z</time>
  <course>53.04</course>
  <speed>0.02</speed>
  <fix>3d</fix>
</trkpt>
<trkpt lat="-35.362911" lon="149.1652219">
  <ele>590.23</ele>
  <time>2026-08-28T19:09:59Z</time>
  <course>339.71</course>
  <speed>0.01</speed>
  <fix>3d</fix>
</trkpt>
<trkpt lat="-35.3629109" lon="149.165222">
  <ele>590.27</ele>
  <time>2026-08-28T19:09:59Z</time>
  <course>59.42</course>
  <speed>0.02</speed>
  <fix>3d</fix>
</trkpt>
<trkpt lat="-35.3629109" lon="149.165222">
  <ele>590.13</ele>
  <time>2026-08-28T19:09:59Z</time>
  <course>339.72</course>
  <speed>0.01</speed>
  <fix>3d</fix>
</trkpt>
<trkpt lat="-35.3629109" lon="149.1652221">
  <ele>590.17</ele>
  <time>2026-08-28T19:09:59Z</time>
  <course>66.14</course>
  <speed>0.02</speed>
  <fix>3d</fix>
</trkpt>
<trkpt lat="-35.3629109" lon="149.165222">
  <ele>590.03</ele>
  <time>2026-08-28T19:09:59Z</time>
  <course>339.71</course>
  <speed>0.0</speed>
  <fix>3d</fix>
</trkpt>
<trkpt lat="-35.3629109" lon="149.1652221">
  <ele>590.07</ele>
  <time>2026-08-28T19:09:59Z</time>
  <course>73.87</course>
  <speed>0.02</speed>
  <fix>3d</fix>
</trkpt>
<trkpt lat="-35.3629109" lon="149.165222">
  <ele>589.93</ele>
  <time>2026-08-28T19:09:59Z</time>
  <course>339.71</course>
  <speed>0.0</speed>
  <fix>3d</fix>
</trkpt>
<trkpt lat="-35.3629109" lon="149.1652222">
  <ele>589.97</ele>
  <time>2026-08-28T19:09:59Z</time>
  <course>82.27</course>
  <speed>0.02</speed>
  <fix>3d</fix>
</trkpt>
<trkpt lat="-35.3629109" lon="149.1652221">
  <ele>589.84</ele>
  <time>2026-08-28T19:09:59Z</time>
  <course>339.73</course>
  <speed>0.0</speed>
  <fix>3d</fix>
</trkpt>
<trkpt lat="-35.3629109" lon="149.1652222">
  <ele>589.87</ele>
  <time>2026-08-28T19:09:59Z</time>
  <course>91.17</course>
  <speed>0.01</speed>
  <fix>3d</fix>
</trkpt>
<trkpt lat="-35.3629109" lon="149.1652221">
  <ele>589.74</ele>
  <time>2026-08-28T19:09:59Z</time>
  <course>339.73</course>
  <speed>0.0</speed>
  <fix>3d</fix>
</trkpt>
<trkpt lat="-35.3629109" lon="149.1652222">
  <ele>589.77</ele>
  <time>2026-08-28T19:09:59Z</time>
  <course>99.92</course>
  <speed>0.01</speed>
  <fix>3d</fix>
</trkpt>
<trkpt lat="-35.3629109" lon="149.1652221">
  <ele>589.63</ele>
  <time>2026-08-28T19:09:59Z</time>
  <course>339.72</course>
  <speed>0.0</speed>
  <fix>3d</fix>
</trkpt>
<trkpt lat="-35.3629109" lon="149.1652222">
  <ele>589.67</ele>
  <time>2026-08-28T19:09:59Z</time>
  <course>107.43</course>
  <speed>0.01</speed>
  <fix>3d</fix>
</trkpt>
<trkpt lat="-35.3629109" lon="149.1652222">
  <ele>589.53</ele>
  <time>2026-08-28T19:09:59Z</time>
  <course>339.73</course>
  <speed>0.0</speed>
  <fix>3d</fix>
</trkpt>
<trkpt lat="-35.3629109" lon="149.1652223">
  <ele>589.57</ele>
  <time>2026-08-28T19:09:59Z</time>
  <course>114.73</course>
  <speed>0.01</speed>
  <fix>3d</fix>
</trkpt>
<trkpt lat="-35.3629109" lon="149.1652222">
  <ele>589.43</ele>
  <time>2026-08-28T19:09:59Z</time>
  <course>339.72</course>
  <speed>0.0</speed>
  <fix>3d</fix>
</trkpt>
<trkpt lat="-35.3629109" lon="149.1652224">
  <ele>589.47</ele>
  <time>2026-08-28T19:09:59Z</time>
  <course>122.28</course>
  <speed>0.01</speed>
  <fix>3d</fix>
</trkpt>
<trkpt lat="-35.3629109" lon="149.1652222">
  <ele>589.33</ele>
  <time>2026-08-28T19:09:59Z</time>
  <course>339.73</course>
  <speed>0.0</speed>
  <fix>3d</fix>
</trkpt>
<trkpt lat="-35.3629109" lon="149.1652224">
  <ele>589.37</ele>
  <time>2026-08-28T19:09:59Z</time>
  <course>129.44</course>
  <speed>0.01</speed>
  <fix>3d</fix>
</trkpt>
<trkpt lat="-35.3629109" lon="149.1652222">
  <ele>589.23</ele>
  <time>2026-08-28T19:09:59Z</time>
  <course>339.73</course>
  <speed>0.01</speed>
  <fix>3d</fix>
</trkpt>
<trkpt lat="-35.3629109" lon="149.1652224">
  <ele>589.27</ele>
  <time>2026-08-28T19:09:59Z</time>
  <course>137.11</course>
  <speed>0.01</speed>
  <fix>3d</fix>
</trkpt>
<trkpt lat="-35.3629109" lon="149.1652222">
  <ele>589.13</ele>
  <time>2026-08-28T19:09:59Z</time>
  <course>339.73</course>
  <speed>0.01</speed>
  <fix>3d</fix>
</trkpt>
<trkpt lat="-35.3629109" lon="149.1652224">
  <ele>589.17</ele>
  <time>2026-08-28T19:09:59Z</time>
  <course>144.96</course>
  <speed>0.01</speed>
  <fix>3d</fix>
</trkpt>
<trkpt lat="-35.3629109" lon="149.1652222">
  <ele>589.03</ele>
  <time>2026-08-28T19:09:59Z</time>
  <course>339.75</course>
  <speed>0.01</speed>
  <fix>3d</fix>
</trkpt>
<trkpt lat="-35.3629109" lon="149.1652224">
  <ele>589.07</ele>
  <time>2026-08-28T19:09:59Z</time>
  <course>154.08</course>
  <speed>0.01</speed>
  <fix>3d</fix>
</trkpt>
<trkpt lat="-35.3629109" lon="149.1652222">
  <ele>588.93</ele>
  <time>2026-08-28T19:09:59Z</time>
  <course>339.73</course>
  <speed>0.01</speed>
  <fix>3d</fix>
</trkpt>
<trkpt lat="-35.3629109" lon="149.1652225">
  <ele>588.97</ele>
  <time>2026-08-28T19:09:59Z</time>
  <course>163.86</course>
  <speed>0.01</speed>
  <fix>3d</fix>
</trkpt>
<trkpt lat="-35.3629109" lon="149.1652223">
  <ele>588.83</ele>
  <time>2026-08-28T19:09:59Z</time>
  <course>339.74</course>
  <speed>0.01</speed>
  <fix>3d</fix>
</trkpt>
<trkpt lat="-35.3629109" lon="149.1652225">
  <ele>588.87</ele>
  <time>2026-08-28T19:09:59Z</time>
  <course>171.84</course>
  <speed>0.01</speed>
  <fix>3d</fix>
</trkpt>
<trkpt lat="-35.3629109" lon="149.1652223">
  <ele>588.73</ele>
  <time>2026-08-28T19:09:59Z</time>
  <course>339.74</course>
  <speed>0.01</speed>
  <fix>3d</fix>
</trkpt>
<trkpt lat="-35.3629109" lon="149.1652225">
  <ele>588.77</ele>
  <time>2026-08-28T19:09:59Z</time>
  <course>181.04</course>
  <speed>0.01</speed>
  <fix>3d</fix>
</trkpt>
<trkpt lat="-35.3629109" lon="149.1652223">
  <ele>588.63</ele>
  <time>2026-08-28T19:09:59Z</time>
  <course>339.74</course>
  <speed>0.01</speed>
  <fix>3d</fix>
</trkpt>
<trkpt lat="-35.3629109" lon="149.1652225">
  <ele>588.67</ele>
  <time>2026-08-28T19:09:59Z</time>
  <course>190.54</course>
  <speed>0.0</speed>
  <fix>3d</fix>
</trkpt>
<trkpt lat="-35.3629109" lon="149.1652223">
  <ele>588.53</ele>
  <time>2026-08-28T19:09:59Z</time>
  <course>339.76</course>
  <speed>0.02</speed>
  <fix>3d</fix>
</trkpt>
<trkpt lat="-35.362911" lon="149.1652225">
  <ele>588.57</ele>
  <time>2026-08-28T19:09:59Z</time>
  <course>199.64</course>
  <speed>0.01</speed>
  <fix>3d</fix>
</trkpt>
<trkpt lat="-35.3629109" lon="149.1652223">
  <ele>588.43</ele>
  <time>2026-08-28T19:09:59Z</time>
  <course>339.74</course>
  <speed>0.02</speed>
  <fix>3d</fix>
</trkpt>
<trkpt lat="-35.3629111" lon="149.1652225">
  <ele>588.47</ele>
  <time>2026-08-28T19:09:59Z</time>
  <course>207.65</course>
  <speed>0.01</speed>
  <fix>3d</fix>
</trkpt>
<trkpt lat="-35.362911" lon="149.1652223">
  <ele>588.33</ele>
  <time>2026-08-28T19:09:59Z</time>
  <course>339.74</course>
  <speed>0.02</speed>
  <fix>3d</fix>
</trkpt>
<trkpt lat="-35.3629111" lon="149.1652225">
  <ele>588.37</ele>
  <time>2026-08-28T19:09:59Z</time>
  <course>213.84</course>
  <speed>0.01</speed>
  <fix>3d</fix>
</trkpt>
<trkpt lat="-35.362911" lon="149.1652223">
  <ele>588.23</ele>
  <time>2026-08-28T19:09:59Z</time>
  <course>339.75</course>
  <speed>0.02</speed>
  <fix>3d</fix>
</trkpt>
<trkpt lat="-35.3629111" lon="149.1652225">
  <ele>588.27</ele>
  <time>2026-08-28T19:09:59Z</time>
  <course>220.7</course>
  <speed>0.01</speed>
  <fix>3d</fix>
</trkpt>
<trkpt lat="-35.362911" lon="149.1652223">
  <ele>588.13</ele>
  <time>2026-08-28T19:09:59Z</time>
  <course>339.75</course>
  <speed>0.02</speed>
  <fix>3d</fix>
</trkpt>
<trkpt lat="-35.3629111" lon="149.1652225">
  <ele>588.17</ele>
  <time>2026-08-28T19:09:59Z</time>
  <course>228.48</course>
  <speed>0.0</speed>
  <fix>3d</fix>
</trkpt>
<trkpt lat="-35.362911" lon="149.1652223">
  <ele>588.03</ele>
  <time>2026-08-28T19:09:59Z</time>
  <course>339.76</course>
  <speed>0.02</speed>
  <fix>3d</fix>
</trkpt>
<trkpt lat="-35.3629111" lon="149.1652225">
  <ele>588.07</ele>
  <time>2026-08-28T19:09:59Z</time>
  <course>238.44</course>
  <speed>0.0</speed>
  <fix>3d</fix>
</trkpt>
<trkpt lat="-35.362911" lon="149.1652223">
  <ele>587.93</ele>
  <time>2026-08-28T19:09:59Z</time>
  <course>339.74</course>
  <speed>0.02</speed>
  <fix>3d</fix>
</trkpt>
<trkpt lat="-35.3629111" lon="149.1652225">
  <ele>587.97</ele>
  <time>2026-08-28T19:09:59Z</time>
  <course>250.29</course>
  <speed>0.0</speed>
  <fix>3d</fix>
</trkpt>
<trkpt lat="-35.362911" lon="149.1652223">
  <ele>587.83</ele>
  <time>2026-08-28T19:09:59Z</time>
  <course>339.77</course>
  <speed>0.02</speed>
  <fix>3d</fix>
</trkpt>
<trkpt lat="-35.3629111" lon="149.1652224">
  <ele>587.87</ele>
  <time>2026-08-28T19:09:59Z</time>
  <course>262.16</course>
  <speed>0.0</speed>
  <fix>3d</fix>
</trkpt>
<trkpt lat="-35.362911" lon="149.1652223">
  <ele>587.73</ele>
  <time>2026-08-28T19:09:59Z</time>
  <course>339.76</course>
  <speed>0.022360679774997897</speed>
  <fix>3d</fix>
</trkpt>
<trkpt lat="-35.3629111" lon="149.1652224">
  <ele>587.77</ele>
  <time>2026-08-28T19:09:59Z</time>
  <course>270.96</course>
  <speed>0.0</speed>
  <fix>3d</fix>
</trkpt>
<trkpt lat="-35.362911" lon="149.1652223">
  <ele>587.63</ele>
  <time>2026-08-28T19:09:59Z</time>
  <course>339.75</course>
  <speed>0.022360679774997897</speed>
  <fix>3d</fix>
</trkpt>
<trkpt lat="-35.3629111" lon="149.1652224">
  <ele>587.67</ele>
  <time>2026-08-28T19:09:59Z</time>
  <course>278.67</course>
  <speed>0.0</speed>
  <fix>3d</fix>
</trkpt>
<trkpt lat="-35.362911" lon="149.1652223">
  <ele>587.53</ele>
  <time>2026-08-28T19:09:59Z</time>
  <course>339.76</course>
  <speed>0.022360679774997897</speed>
  <fix>3d</fix>
</trkpt>
<trkpt lat="-35.3629111" lon="149.1652224">
  <ele>587.57</ele>
  <time>2026-08-28T19:09:59Z</time>
  <course>284.92</course>
  <speed>0.0</speed>
  <fix>3d</fix>
</trkpt>
<trkpt lat="-35.362911" lon="149.1652222">
  <ele>587.43</ele>
  <time>2026-08-28T19:09:59Z</time>
  <course>339.76</course>
  <speed>0.022360679774997897</speed>
  <fix>3d</fix>
</trkpt>
<trkpt lat="-35.3629111" lon="149.1652224">
  <ele>587.47</ele>
  <time>2026-08-28T19:09:59Z</time>
  <course>290.13</course>
  <speed>0.0</speed>
  <fix>3d</fix>
</trkpt>
<trkpt lat="-35.362911" lon="149.1652222">
  <ele>587.34</ele>
  <time>2026-08-28T19:09:59Z</time>
  <course>339.78</course>
  <speed>0.022360679774997897</speed>
  <fix>3d</fix>
</trkpt>
<trkpt lat="-35.3629111" lon="149.1652223">
  <ele>587.37</ele>
  <time>2026-08-28T19:09:59Z</time>
  <course>295.29</course>
  <speed>0.0</speed>
  <fix>3d</fix>
</trkpt>
<trkpt lat="-35.362911" lon="149.1652222">
  <ele>587.24</ele>
  <time>2026-08-28T19:09:59Z</time>
  <course>339.78</course>
  <speed>0.022360679774997897</speed>
  <fix>3d</fix>
</trkpt>
<trkpt lat="-35.3629111" lon="149.1652222">
  <ele>587.27</ele>
  <time>2026-08-28T19:09:59Z</time>
  <course>299.51</course>
  <speed>0.0</speed>
  <fix>3d</fix>
</trkpt>
<trkpt lat="-35.362911" lon="149.1652222">
  <ele>587.14</ele>
  <time>2026-08-28T19:09:59Z</time>
  <course>339.79</course>
  <speed>0.022360679774997897</speed>
  <fix>3d</fix>
</trkpt>
<trkpt lat="-35.3629111" lon="149.1652222">
  <ele>587.17</ele>
  <time>2026-08-28T19:09:59Z</time>
  <course>305.85</course>
  <speed>0.0</speed>
  <fix>3d</fix>
</trkpt>
<trkpt lat="-35.362911" lon="149.1652222">
  <ele>587.04</ele>
  <time>2026-08-28T19:09:59Z</time>
  <course>339.78</course>
  <speed>0.01414213562373095</speed>
  <fix>3d</fix>
</trkpt>
<trkpt lat="-35.3629111" lon="149.1652222">
  <ele>587.07</ele>
  <time>2026-08-28T19:09:59Z</time>
  <course>314.17</course>
  <speed>0.0</speed>
  <fix>3d</fix>
</trkpt>
<trkpt lat="-35.362911" lon="149.1652222">
  <ele>586.94</ele>
  <time>2026-08-28T19:09:59Z</time>
  <course>339.79</course>
  <speed>0.01414213562373095</speed>
  <fix>3d</fix>
</trkpt>
<trkpt lat="-35.3629111" lon="149.1652222">
  <ele>586.96</ele>
  <time>2026-08-28T19:09:59Z</time>
  <course>321.89</course>
  <speed>0.0</speed>
  <fix>3d</fix>
</trkpt>
<trkpt lat="-35.362911" lon="149.1652221">
  <ele>586.84</ele>
  <time>2026-08-28T19:09:59Z</time>
  <course>339.78</course>
  <speed>0.01414213562373095</speed>
  <fix>3d</fix>
</trkpt>
<trkpt lat="-35.3629111" lon="149.1652222">
  <ele>586.86</ele>
  <time>2026-08-28T19:09:59Z</time>
  <course>331.63</course>
  <speed>0.0</speed>
  <fix>3d</fix>
</trkpt>
<trkpt lat="-35.362911" lon="149.1652221">
  <ele>586.74</ele>
  <time>2026-08-28T19:09:59Z</time>
  <course>339.79</course>
  <speed>0.01414213562373095</speed>
  <fix>3d</fix>
</trkpt>
<trkpt lat="-35.3629111" lon="149.1652222">
  <ele>586.76</ele>
  <time>2026-08-28T19:09:59Z</time>
  <course>346.74</course>
  <speed>0.0</speed>
  <fix>3d</fix>
</trkpt>
<trkpt lat="-35.362911" lon="149.1652221">
  <ele>586.64</ele>
  <time>2026-08-28T19:09:59Z</time>
  <course>339.79</course>
  <speed>0.01414213562373095</speed>
  <fix>3d</fix>
</trkpt>
<trkpt lat="-35.3629111" lon="149.1652222">
  <ele>586.66</ele>
  <time>2026-08-28T19:09:59Z</time>
  <course>2.02</course>
  <speed>0.0</speed>
  <fix>3d</fix>
</trkpt>
<trkpt lat="-35.362911" lon="149.1652221">
  <ele>586.54</ele>
  <time>2026-08-28T19:09:59Z</time>
  <course>339.8</course>
  <speed>0.01414213562373095</speed>
  <fix>3d</fix>
</trkpt>
<trkpt lat="-35.3629111" lon="149.1652222">
  <ele>586.55</ele>
  <time>2026-08-28T19:09:59Z</time>
  <course>14.2</course>
  <speed>0.0</speed>
  <fix>3d</fix>
</trkpt>
<trkpt lat="-35.362911" lon="149.1652221">
  <ele>586.44</ele>
  <time>2026-08-28T19:09:59Z</time>
  <course>339.8</course>
  <speed>0.01414213562373095</speed>
  <fix>3d</fix>
</trkpt>
<trkpt lat="-35.3629111" lon="149.1652222">
  <ele>586.45</ele>
  <time>2026-08-28T19:09:59Z</time>
  <course>26.8</course>
  <speed>0.0</speed>
  <fix>3d</fix>
</trkpt>
<trkpt lat="-35.362911" lon="149.1652221">
  <ele>586.34</ele>
  <time>2026-08-28T19:09:59Z</time>
  <course>339.79</course>
  <speed>0.01414213562373095</speed>
  <fix>3d</fix>
</trkpt>
<trkpt lat="-35.3629111" lon="149.1652222">
  <ele>586.35</ele>
  <time>2026-08-28T19:09:59Z</time>
  <course>36.74</course>
  <speed>0.0</speed>
  <fix>3d</fix>
</trkpt>
<trkpt lat="-35.362911" lon="149.1652221">
  <ele>586.23</ele>
  <time>2026-08-28T19:09:59Z</time>
  <course>339.79</course>
  <speed>0.01414213562373095</speed>
  <fix>3d</fix>
</trkpt>
<trkpt lat="-35.3629111" lon="149.1652222">
  <ele>586.25</ele>
  <time>2026-08-28T19:09:59Z</time>
  <course>41.27</course>
  <speed>0.0</speed>
  <fix>3d</fix>
</trkpt>
<trkpt lat="-35.362911" lon="149.1652222">
  <ele>586.13</ele>
  <time>2026-08-28T19:09:59Z</time>
  <course>339.78</course>
  <speed>0.01414213562373095</speed>
  <fix>3d</fix>
</trkpt>
<trkpt lat="-35.3629111" lon="149.1652222">
  <ele>586.15</ele>
  <time>2026-08-28T19:09:59Z</time>
  <course>45.41</course>
  <speed>0.0</speed>
  <fix>3d</fix>
</trkpt>
<trkpt lat="-35.362911" lon="149.1652222">
  <ele>586.03</ele>
  <time>2026-08-28T19:09:59Z</time>
  <course>339.77</course>
  <speed>0.01414213562373095</speed>
  <fix>3d</fix>
</trkpt>
<trkpt lat="-35.3629111" lon="149.1652222">
  <ele>586.05</ele>
  <time>2026-08-28T19:09:59Z</time>
  <course>50.4</course>
  <speed>0.0</speed>
  <fix>3d</fix>
</trkpt>
<trkpt lat="-35.362911" lon="149.1652222">
  <ele>585.93</ele>
  <time>2026-08-28T19:09:59Z</time>
  <course>339.79</course>
  <speed>0.01414213562373095</speed>
  <fix>3d</fix>
</trkpt>
<trkpt lat="-35.3629111" lon="149.1652222">
  <ele>585.94</ele>
  <time>2026-08-28T19:09:59Z</time>
  <course>54.18</course>
  <speed>0.0</speed>
  <fix>3d</fix>
</trkpt>
<trkpt lat="-35.362911" lon="149.1652222">
  <ele>585.83</ele>
  <time>2026-08-28T19:09:59Z</time>
  <course>339.79</course>
  <speed>0.01</speed>
  <fix>3d</fix>
</trkpt>
<trkpt lat="-35.3629111" lon="149.1652222">
  <ele>585.83</ele>
  <time>2026-08-28T19:09:59Z</time>
  <course>57.03</course>
  <speed>0.0</speed>
  <fix>3d</fix>
</trkpt>
<trkpt lat="-35.362911" lon="149.1652222">
  <ele>585.73</ele>
  <time>2026-08-28T19:09:59Z</time>
  <course>339.79</course>
  <speed>0.01</speed>
  <fix>3d</fix>
</trkpt>
<trkpt lat="-35.3629111" lon="149.1652222">
  <ele>585.74</ele>
  <time>2026-08-28T19:09:59Z</time>
  <course>58.91</course>
  <speed>0.0</speed>
  <fix>3d</fix>
</trkpt>
<trkpt lat="-35.362911" lon="149.1652222">
  <ele>585.63</ele>
  <time>2026-08-28T19:09:59Z</time>
  <course>339.8</course>
  <speed>0.01</speed>
  <fix>3d</fix>
</trkpt>
<trkpt lat="-35.3629111" lon="149.1652222">
  <ele>585.64</ele>
  <time>2026-08-28T19:09:59Z</time>
  <course>59.23</course>
  <speed>0.0</speed>
  <fix>3d</fix>
</trkpt>
<trkpt lat="-35.362911" lon="149.1652222">
  <ele>585.53</ele>
  <time>2026-08-28T19:09:59Z</time>
  <course>339.78</course>
  <speed>0.01</speed>
  <fix>3d</fix>
</trkpt>
<trkpt lat="-35.3629111" lon="149.1652222">
  <ele>585.54</ele>
  <time>2026-08-28T19:09:59Z</time>
  <course>58.87</course>
  <speed>0.0</speed>
  <fix>3d</fix>
</trkpt>
<trkpt lat="-35.362911" lon="149.1652222">
  <ele>585.43</ele>
  <time>2026-08-28T19:09:59Z</time>
  <course>339.8</course>
  <speed>0.01</speed>
  <fix>3d</fix>
</trkpt>
<trkpt lat="-35.3629111" lon="149.1652222">
  <ele>585.44</ele>
  <time>2026-08-28T19:09:59Z</time>
  <course>57.93</course>
  <speed>0.0</speed>
  <fix>3d</fix>
</trkpt>
<trkpt lat="-35.362911" lon="149.1652222">
  <ele>585.33</ele>
  <time>2026-08-28T19:09:59Z</time>
  <course>339.78</course>
  <speed>0.01</speed>
  <fix>3d</fix>
</trkpt>
<trkpt lat="-35.362911" lon="149.1652222">
  <ele>585.33</ele>
  <time>2026-08-28T19:09:59Z</time>
  <course>57.03</course>
  <speed>0.0</speed>
  <fix>3d</fix>
</trkpt>
<trkpt lat="-35.362911" lon="149.1652222">
  <ele>585.23</ele>
  <time>2026-08-28T19:09:59Z</time>
  <course>339.8</course>
  <speed>0.01414213562373095</speed>
  <fix>3d</fix>
</trkpt>
<trkpt lat="-35.3629109" lon="149.1652222">
  <ele>585.24</ele>
  <time>2026-08-28T19:09:59Z</time>
  <course>56.23</course>
  <speed>0.0</speed>
  <fix>3d</fix>
</trkpt>
<trkpt lat="-35.362911" lon="149.1652222">
  <ele>585.13</ele>
  <time>2026-08-28T19:09:59Z</time>
  <course>339.77</course>
  <speed>0.01414213562373095</speed>
  <fix>3d</fix>
</trkpt>
<trkpt lat="-35.3629109" lon="149.1652223">
  <ele>585.14</ele>
  <time>2026-08-28T19:09:59Z</time>
  <course>56.19</course>
  <speed>0.0</speed>
  <fix>3d</fix>
</trkpt>
<trkpt lat="-35.362911" lon="149.1652222">
  <ele>585.03</ele>
  <time>2026-08-28T19:09:59Z</time>
  <course>339.79</course>
  <speed>0.01414213562373095</speed>
  <fix>3d</fix>
</trkpt>
<trkpt lat="-35.3629109" lon="149.1652224">
  <ele>585.04</ele>
  <time>2026-08-28T19:09:59Z</time>
  <course>59.08</course>
  <speed>0.0</speed>
  <fix>3d</fix>
</trkpt>
<trkpt lat="-35.362911" lon="149.1652222">
  <ele>584.93</ele>
  <time>2026-08-28T19:09:59Z</time>
  <course>339.8</course>
  <speed>0.01</speed>
  <fix>3d</fix>
</trkpt>
<trkpt lat="-35.3629109" lon="149.1652224">
  <ele>584.94</ele>
  <time>2026-08-28T19:09:59Z</time>
  <course>65.26</course>
  <speed>0.0</speed>
  <fix>3d</fix>
</trkpt>
<trkpt lat="-35.362911" lon="149.1652222">
  <ele>584.83</ele>
  <time>2026-08-28T19:09:59Z</time>
  <course>339.78</course>
  <speed>0.01</speed>
  <fix>3d</fix>
</trkpt>
<trkpt lat="-35.3629109" lon="149.1652224">
  <ele>584.85</ele>
  <time>2026-08-28T19:09:59Z</time>
  <course>74.63</course>
  <speed>0.0</speed>
  <fix>3d</fix>
</trkpt>
<trkpt lat="-35.362911" lon="149.1652222">
  <ele>584.73</ele>
  <time>2026-08-28T19:09:59Z</time>
  <course>339.8</course>
  <speed>0.01</speed>
  <fix>3d</fix>
</trkpt>
<trkpt lat="-35.3629109" lon="149.1652224">
  <ele>584.75</ele>
  <time>2026-08-28T19:09:59Z</time>
  <course>90.04</course>
  <speed>0.0</speed>
  <fix>3d</fix>
</trkpt>
<trkpt lat="-35.3629109" lon="149.1652222">
  <ele>584.63</ele>
  <time>2026-08-28T19:09:59Z</time>
  <course>339.78</course>
  <speed>0.01</speed>
  <fix>3d</fix>
</trkpt>
<trkpt lat="-35.3629109" lon="149.1652224">
  <ele>584.65</ele>
  <time>2026-08-28T19:09:59Z</time>
  <course>109.25</course>
  <speed>0.0</speed>
  <fix>3d</fix>
</trkpt>
<trkpt lat="-35.3629109" lon="149.1652222">
  <ele>584.53</ele>
  <time>2026-08-28T19:09:59Z</time>
  <course>339.77</course>
  <speed>0.01</speed>
  <fix>3d</fix>
</trkpt>
<trkpt lat="-35.3629109" lon="149.1652224">
  <ele>584.55</ele>
  <time>2026-08-28T19:09:59Z</time>
  <course>132.26</course>
  <speed>0.0</speed>
  <fix>3d</fix>
</trkpt>
<trkpt lat="-35.3629109" lon="149.1652222">
  <ele>584.43</ele>
  <time>2026-08-28T19:09:59Z</time>
  <course>339.8</course>
  <speed>0.01</speed>
  <fix>3d</fix>
</trkpt>
<trkpt lat="-35.3629109" lon="149.1652224">
  <ele>584.45</ele>
  <time>2026-08-28T19:09:59Z</time>
  <course>157.85</course>
  <speed>0.0</speed>
  <fix>3d</fix>
</trkpt>
<trkpt lat="-35.362911" lon="149.1652222">
  <ele>584.33</ele>
  <time>2026-08-28T19:09:59Z</time>
  <course>339.79</course>
  <speed>0.01</speed>
  <fix>3d</fix>
</trkpt>
<trkpt lat="-35.3629109" lon="149.1652224">
  <ele>584.35</ele>
  <time>2026-08-28T19:09:59Z</time>
  <course>170.5</course>
  <speed>0.0</speed>
  <fix>3d</fix>
</trkpt>
<trkpt lat="-35.362911" lon="149.1652222">
  <ele>584.22</ele>
  <time>2026-08-28T19:09:59Z</time>
  <course>339.81</course>
  <speed>0.01</speed>
  <fix>3d</fix>
</trkpt>
<trkpt lat="-35.3629109" lon="149.1652224">
  <ele>584.25</ele>
  <time>2026-08-28T19:09:59Z</time>
  <course>176.69</course>
  <speed>0.0</speed>
  <fix>3d</fix>
</trkpt>
<trkpt lat="-35.362911" lon="149.1652222">
  <ele>584.12</ele>
  <time>2026-08-28T19:09:59Z</time>
  <course>339.8</course>
  <speed>0.01</speed>
  <fix>3d</fix>
</trkpt>
<trkpt lat="-35.3629109" lon="149.1652224">
  <ele>584.15</ele>
  <time>2026-08-28T19:09:59Z</time>
  <course>180.74</course>
  <speed>0.0</speed>
  <fix>3d</fix>
</trkpt>
<trkpt lat="-35.362911" lon="149.1652222">
  <ele>584.03</ele>
  <time>2026-08-28T19:09:59Z</time>
  <course>339.78</course>
  <speed>0.01</speed>
  <fix>3d</fix>
</trkpt>
<trkpt lat="-35.3629109" lon="149.1652224">
  <ele>584.05</ele>
  <time>2026-08-28T19:09:59Z</time>
  <course>185.63</course>
  <speed>0.0</speed>
  <fix>3d</fix>
</trkpt>
<trkpt lat="-35.362911" lon="149.1652222">
  <ele>583.93</ele>
  <time>2026-08-28T19:09:59Z</time>
  <course>339.79</course>
  <speed>0.01</speed>
  <fix>3d</fix>
</trkpt>
<trkpt lat="-35.3629109" lon="149.1652224">
  <ele>583.95</ele>
  <time>2026-08-28T19:09:59Z</time>
  <course>190.19</course>
  <speed>0.0</speed>
  <fix>3d</fix>
</trkpt>
<trkpt lat="-35.362911" lon="149.1652222">
  <ele>583.83</ele>
  <time>2026-08-28T19:09:59Z</time>
  <course>339.8</course>
  <speed>0.01</speed>
  <fix>3d</fix>
</trkpt>
<trkpt lat="-35.3629109" lon="149.1652224">
  <ele>583.86</ele>
  <time>2026-08-28T19:09:59Z</time>
  <course>192.59</course>
  <speed>0.0</speed>
  <fix>3d</fix>
</trkpt>
<trkpt lat="-35.362911" lon="149.1652222">
  <ele>583.73</ele>
  <time>2026-08-28T19:09:59Z</time>
  <course>339.81</course>
  <speed>0.01</speed>
  <fix>3d</fix>
</trkpt>
<trkpt lat="-35.3629109" lon="149.1652224">
  <ele>583.76</ele>
  <time>2026-08-28T19:09:59Z</time>
  <course>193.77</course>
  <speed>0.0</speed>
  <fix>3d</fix>
</trkpt>
<trkpt lat="-35.362911" lon="149.1652222">
  <ele>583.63</ele>
  <time>2026-08-28T19:09:59Z</time>
  <course>339.81</course>
  <speed>0.01</speed>
  <fix>3d</fix>
</trkpt>
<trkpt lat="-35.362911" lon="149.1652224">
  <ele>583.66</ele>
  <time>2026-08-28T19:09:59Z</time>
  <course>195.18</course>
  <speed>0.0</speed>
  <fix>3d</fix>
</trkpt>
<trkpt lat="-35.362911" lon="149.1652222">
  <ele>583.54</ele>
  <time>2026-08-28T19:09:59Z</time>
  <course>339.81</course>
  <speed>0.01</speed>
  <fix>3d</fix>
</trkpt>
<trkpt lat="-35.3629111" lon="149.1652224">
  <ele>583.56</ele>
  <time>2026-08-28T19:09:59Z</time>
  <course>197.22</course>
  <speed>0.0</speed>
  <fix>3d</fix>
</trkpt>
<trkpt lat="-35.362911" lon="149.1652222">
  <ele>583.44</ele>
  <time>2026-08-28T19:09:59Z</time>
  <course>339.82</course>
  <speed>0.01</speed>
  <fix>3d</fix>
</trkpt>
<trkpt lat="-35.3629111" lon="149.1652224">
  <ele>583.45</ele>
  <time>2026-08-28T19:09:59Z</time>
  <course>198.31</course>
  <speed>0.0</speed>
  <fix>3d</fix>
</trkpt>
<trkpt lat="-35.362911" lon="149.1652222">
  <ele>583.34</ele>
  <time>2026-08-28T19:09:59Z</time>
  <course>339.81</course>
  <speed>0.01</speed>
  <fix>3d</fix>
</trkpt>
<trkpt lat="-35.3629111" lon="149.1652224">
  <ele>583.36</ele>
  <time>2026-08-28T19:09:59Z</time>
  <course>199.11</course>
  <speed>0.0</speed>
  <fix>3d</fix>
</trkpt>
<trkpt lat="-35.362911" lon="149.1652222">
  <ele>583.24</ele>
  <time>2026-08-28T19:09:59Z</time>
  <course>339.82</course>
  <speed>0.01</speed>
  <fix>3d</fix>
</trkpt>
<trkpt lat="-35.3629111" lon="149.1652224">
  <ele>583.26</ele>
  <time>2026-08-28T19:09:59Z</time>
  <course>201.88</course>
  <speed>0.0</speed>
  <fix>3d</fix>
</trkpt>
<trkpt lat="-35.362911" lon="149.1652222">
  <ele>583.14</ele>
  <time>2026-08-28T19:09:59Z</time>
  <course>339.83</course>
  <speed>0.01</speed>
  <fix>3d</fix>
</trkpt>
<trkpt lat="-35.3629111" lon="149.1652224">
  <ele>583.16</ele>
  <time>2026-08-28T19:09:59Z</time>
  <course>209.67</course>
  <speed>0.0</speed>
  <fix>3d</fix>
</trkpt>
<trkpt lat="-35.362911" lon="149.1652222">
  <ele>583.03</ele>
  <time>2026-08-28T19:09:59Z</time>
  <course>339.81</course>
  <speed>0.01</speed>
  <fix>3d</fix>
</trkpt>
<trkpt lat="-35.3629111" lon="149.1652224">
  <ele>583.06</ele>
  <time>2026-08-28T19:09:59Z</time>
  <course>222.53</course>
  <speed>0.0</speed>
  <fix>3d</fix>
</trkpt>
<trkpt lat="-35.362911" lon="149.1652222">
  <ele>582.93</ele>
  <time>2026-08-28T19:09:59Z</time>
  <course>339.8</course>
  <speed>0.01</speed>
  <fix>3d</fix>
</trkpt>
<trkpt lat="-35.3629111" lon="149.1652224">
  <ele>582.95</ele>
  <time>2026-08-28T19:09:59Z</time>
  <course>241.55</course>
  <speed>0.0</speed>
  <fix>3d</fix>
</trkpt>
<trkpt lat="-35.362911" lon="149.1652222">
  <ele>582.83</ele>
  <time>2026-08-28T19:09:59Z</time>
  <course>339.82</course>
  <speed>0.02</speed>
  <fix>3d</fix>
</trkpt>
<trkpt lat="-35.3629111" lon="149.1652224">
  <ele>582.86</ele>
  <time>2026-08-28T19:09:59Z</time>
  <course>262.25</course>
  <speed>0.0</speed>
  <fix>3d</fix>
</trkpt>
<trkpt lat="-35.362911" lon="149.1652222">
  <ele>582.73</ele>
  <time>2026-08-28T19:09:59Z</time>
  <course>339.81</course>
  <speed>0.01414213562373095</speed>
  <fix>3d</fix>
</trkpt>
<trkpt lat="-35.3629111" lon="149.1652224">
  <ele>582.76</ele>
  <time>2026-08-28T19:09:59Z</time>
  <course>278.79</course>
  <speed>0.0</speed>
  <fix>3d</fix>
</trkpt>
<trkpt lat="-35.362911" lon="149.1652222">
  <ele>582.63</ele>
  <time>2026-08-28T19:10:00Z</time>
  <course>339.83</course>
  <speed>0.01414213562373095</speed>
  <fix>3d</fix>
</trkpt>
<trkpt lat="-35.3629111" lon="149.1652224">
  <ele>582.66</ele>
  <time>2026-08-28T19:10:00Z</time>
  <course>291.95</course>
  <speed>0.0</speed>
  <fix>3d</fix>
</trkpt>
<trkpt lat="-35.362911" lon="149.1652222">
  <ele>582.53</ele>
  <time>2026-08-28T19:10:00Z</time>
  <course>339.8</course>
  <speed>0.01414213562373095</speed>
  <fix>3d</fix>
</trkpt>
<trkpt lat="-35.3629111" lon="149.1652224">
  <ele>582.56</ele>
  <time>2026-08-28T19:10:00Z</time>
  <course>301.07</course>
  <speed>0.0</speed>
  <fix>3d</fix>
</trkpt>
<trkpt lat="-35.362911" lon="149.1652222">
  <ele>582.43</ele>
  <time>2026-08-28T19:10:00Z</time>
  <course>339.81</course>
  <speed>0.01414213562373095</speed>
  <fix>3d</fix>
</trkpt>
<trkpt lat="-35.3629111" lon="149.1652224">
  <ele>582.45</ele>
  <time>2026-08-28T19:10:00Z</time>
  <course>307.52</course>
  <speed>0.0</speed>
  <fix>3d</fix>
</trkpt>
<trkpt lat="-35.362911" lon="149.1652222">
  <ele>582.33</ele>
  <time>2026-08-28T19:10:00Z</time>
  <course>339.81</course>
  <speed>0.01414213562373095</speed>
  <fix>3d</fix>
</trkpt>
<trkpt lat="-35.3629111" lon="149.1652224">
  <ele>582.36</ele>
  <time>2026-08-28T19:10:00Z</time>
  <course>314.47</course>
  <speed>0.0</speed>
  <fix>3d</fix>
</trkpt>
<trkpt lat="-35.362911" lon="149.1652222">
  <ele>582.23</ele>
  <time>2026-08-28T19:10:00Z</time>
  <course>339.81</course>
  <speed>0.01414213562373095</speed>
  <fix>3d</fix>
</trkpt>
<trkpt lat="-35.3629111" lon="149.1652224">
  <ele>582.26</ele>
  <time>2026-08-28T19:10:00Z</time>
  <course>319.08</course>
  <speed>0.0</speed>
  <fix>3d</fix>
</trkpt>
<trkpt lat="-35.362911" lon="149.1652222">
  <ele>582.21</ele>
  <time>2026-08-28T19:10:00Z</time>
  <course>339.81</course>
  <speed>0.03</speed>
  <fix>3d</fix>
</trkpt>
<trkpt lat="-35.3629111" lon="149.1652224">
  <ele>582.18</ele>
  <time>2026-08-28T19:10:00Z</time>
  <course>261.43</course>
  <speed>0.01</speed>
  <fix>3d</fix>
</trkpt>
<trkpt lat="-35.362911" lon="149.1652222">
  <ele>582.23</ele>
  <time>2026-08-28T19:10:00Z</time>
  <course>339.8</course>
  <speed>0.01414213562373095</speed>
  <fix>3d</fix>
</trkpt>
<trkpt lat="-35.3629111" lon="149.1652223">
  <ele>582.17</ele>
  <time>2026-08-28T19:10:00Z</time>
  <course>253.66</course>
  <speed>0.01</speed>
  <fix>3d</fix>
</trkpt>
<trkpt lat="-35.362911" lon="149.1652222">
  <ele>582.23</ele>
  <time>2026-08-28T19:10:00Z</time>
  <course>339.83</course>
  <speed>0.01</speed>
  <fix>3d</fix>
</trkpt>
<trkpt lat="-35.3629111" lon="149.1652223">
  <ele>582.18</ele>
  <time>2026-08-28T19:10:00Z</time>
  <course>38.93</course>
  <speed>0.0</speed>
  <fix>3d</fix>
</trkpt>
<trkpt lat="-35.362911" lon="149.1652222">
  <ele>582.23</ele>
  <time>2026-08-28T19:10:00Z</time>
  <course>339.87</course>
  <speed>0.01</speed>
  <fix>3d</fix>
</trkpt>
<trkpt lat="-35.3629111" lon="149.1652224">
  <ele>582.18</ele>
  <time>2026-08-28T19:10:00Z</time>
  <course>62.81</course>
  <speed>0.0</speed>
  <fix>3d</fix>
</trkpt>
<trkpt lat="-35.362911" lon="149.1652222">
  <ele>582.23</ele>
  <time>2026-08-28T19:10:00Z</time>
  <course>339.9</course>
  <speed>0.01</speed>
  <fix>3d</fix>
</trkpt>
<trkpt lat="-35.3629111" lon="149.1652224">
  <ele>582.18</ele>
  <time>2026-08-28T19:10:00Z</time>
  <course>293.51</course>
  <speed>0.0</speed>
  <fix>3d</fix>
</trkpt>
<trkpt lat="-35.362911" lon="149.1652222">
  <ele>582.24</ele>
  <time>2026-08-28T19:10:00Z</time>
  <course>339.93</course>
  <speed>0.01</speed>
  <fix>3d</fix>
</trkpt>
<trkpt lat="-35.3629111" lon="149.1652224">
  <ele>582.18</ele>
  <time>2026-08-28T19:10:00Z</time>
  <course>315.91</course>
  <speed>0.0</speed>
  <fix>3d</fix>
</trkpt>
<trkpt lat="-35.362911" lon="149.1652222">
  <ele>582.24</ele>
  <time>2026-08-28T19:10:00Z</time>
  <course>339.95</course>
  <speed>0.01</speed>
  <fix>3d</fix>
</trkpt>
<trkpt lat="-35.3629111" lon="149.1652224">
  <ele>582.18</ele>
  <time>2026-08-28T19:10:00Z</time>
  <course>5.74</course>
  <speed>0.0</speed>
  <fix>3d</fix>
</trkpt>
<trkpt lat="-35.362911" lon="149.1652222">
  <ele>582.24</ele>
  <time>2026-08-28T19:10:00Z</time>
  <course>339.98</course>
  <speed>0.01</speed>
  <fix>3d</fix>
</trkpt>
<trkpt lat="-35.3629111" lon="149.1652224">
  <ele>582.18</ele>
  <time>2026-08-28T19:10:00Z</time>
  <course>39.24</course>
  <speed>0.0</speed>
  <fix>3d</fix>
</trkpt>
<trkpt lat="-35.362911" lon="149.1652222">
  <ele>582.25</ele>
  <time>2026-08-28T19:10:00Z</time>
  <course>340.0</course>
  <speed>0.01</speed>
  <fix>3d</fix>
</trkpt>
<trkpt lat="-35.3629111" lon="149.1652224">
  <ele>582.18</ele>
  <time>2026-08-28T19:10:00Z</time>
  <course>357.31</course>
  <speed>0.0</speed>
  <fix>3d</fix>
</trkpt>
<trkpt lat="-35.362911" lon="149.1652222">
  <ele>582.25</ele>
  <time>2026-08-28T19:10:00Z</time>
  <course>340.03</course>
  <speed>0.01</speed>
  <fix>3d</fix>
</trkpt>
<trkpt lat="-35.3629111" lon="149.1652224">
  <ele>582.18</ele>
  <time>2026-08-28T19:10:00Z</time>
  <course>340.72</course>
  <speed>0.0</speed>
  <fix>3d</fix>
</trkpt>
<trkpt lat="-35.362911" lon="149.1652222">
  <ele>582.25</ele>
  <time>2026-08-28T19:10:00Z</time>
  <course>340.04</course>
  <speed>0.01</speed>
  <fix>3d</fix>
</trkpt>
<trkpt lat="-35.3629111" lon="149.1652224">
  <ele>582.18</ele>
  <time>2026-08-28T19:10:00Z</time>
  <course>69.61</course>
  <speed>0.0</speed>
  <fix>3d</fix>
</trkpt>
<trkpt lat="-35.362911" lon="149.1652222">
  <ele>582.26</ele>
  <time>2026-08-28T19:10:00Z</time>
  <course>340.02</course>
  <speed>0.0</speed>
  <fix>3d</fix>
</trkpt>
<trkpt lat="-35.3629111" lon="149.1652224">
  <ele>582.18</ele>
  <time>2026-08-28T19:10:00Z</time>
  <course>74.54</course>
  <speed>0.01</speed>
  <fix>3d</fix>
</trkpt>
<trkpt lat="-35.362911" lon="149.1652222">
  <ele>582.26</ele>
  <time>2026-08-28T19:10:00Z</time>
  <course>340.0</course>
  <speed>0.01</speed>
  <fix>3d</fix>
</trkpt>
<trkpt lat="-35.3629111" lon="149.1652224">
  <ele>582.18</ele>
  <time>2026-08-28T19:10:00Z</time>
  <course>83.03</course>
  <speed>0.0</speed>
  <fix>3d</fix>
</trkpt>
<trkpt lat="-35.362911" lon="149.1652222">
  <ele>582.26</ele>
  <time>2026-08-28T19:10:00Z</time>
  <course>339.98</course>
  <speed>0.01</speed>
  <fix>3d</fix>
</trkpt>
<trkpt lat="-35.3629111" lon="149.1652224">
  <ele>582.18</ele>
  <time>2026-08-28T19:10:00Z</time>
  <course>212.74</course>
  <speed>0.0</speed>
  <fix>3d</fix>
</trkpt>
<trkpt lat="-35.362911" lon="149.1652222">
  <ele>582.26</ele>
  <time>2026-08-28T19:10:00Z</time>
  <course>339.98</course>
  <speed>0.01</speed>
  <fix>3d</fix>
</trkpt>
<trkpt lat="-35.3629111" lon="149.1652224">
  <ele>582.18</ele>
  <time>2026-08-28T19:10:00Z</time>
  <course>226.14</course>
  <speed>0.0</speed>
  <fix>3d</fix>
</trkpt>
<trkpt lat="-35.362911" lon="149.1652222">
  <ele>582.26</ele>
  <time>2026-08-28T19:10:00Z</time>
  <course>339.98</course>
  <speed>0.01</speed>
  <fix>3d</fix>
</trkpt>
<trkpt lat="-35.3629111" lon="149.1652224">
  <ele>582.18</ele>
  <time>2026-08-28T19:10:00Z</time>
  <course>205.54</course>
  <speed>0.0</speed>
  <fix>3d</fix>
</trkpt>
<trkpt lat="-35.362911" lon="149.1652222">
  <ele>582.25</ele>
  <time>2026-08-28T19:10:00Z</time>
  <course>339.97</course>
  <speed>0.01</speed>
  <fix>3d</fix>
</trkpt>
<trkpt lat="-35.3629111" lon="149.1652224">
  <ele>582.18</ele>
  <time>2026-08-28T19:10:00Z</time>
  <course>198.42</course>
  <speed>0.0</speed>
  <fix>3d</fix>
</trkpt>
<trkpt lat="-35.362911" lon="149.1652222">
  <ele>582.25</ele>
  <time>2026-08-28T19:10:00Z</time>
  <course>339.97</course>
  <speed>0.01</speed>
  <fix>3d</fix>
</trkpt>
<trkpt lat="-35.3629111" lon="149.1652224">
  <ele>582.18</ele>
  <time>2026-08-28T19:10:00Z</time>
  <course>203.58</course>
  <speed>0.0</speed>
  <fix>3d</fix>
</trkpt>
<trkpt lat="-35.362911" lon="149.1652222">
  <ele>582.26</ele>
  <time>2026-08-28T19:10:00Z</time>
  <course>339.97</course>
  <speed>0.01</speed>
  <fix>3d</fix>
</trkpt>
<trkpt lat="-35.3629111" lon="149.1652224">
  <ele>582.18</ele>
  <time>2026-08-28T19:10:00Z</time>
  <course>28.12</course>
  <speed>0.0</speed>
  <fix>3d</fix>
</trkpt>
<trkpt lat="-35.362911" lon="149.1652222">
  <ele>582.26</ele>
  <time>2026-08-28T19:10:00Z</time>
  <course>339.97</course>
  <speed>0.01</speed>
  <fix>3d</fix>
</trkpt>
<trkpt lat="-35.3629111" lon="149.1652224">
  <ele>582.18</ele>
  <time>2026-08-28T19:10:00Z</time>
  <course>1.02</course>
  <speed>0.0</speed>
  <fix>3d</fix>
</trkpt>
<trkpt lat="-35.362911" lon="149.1652222">
  <ele>582.26</ele>
  <time>2026-08-28T19:10:00Z</time>
  <course>339.97</course>
  <speed>0.01</speed>
  <fix>3d</fix>
</trkpt>
<trkpt lat="-35.3629111" lon="149.1652224">
  <ele>582.18</ele>
  <time>2026-08-28T19:10:00Z</time>
  <course>236.18</course>
  <speed>0.0</speed>
  <fix>3d</fix>
</trkpt>
<trkpt lat="-35.362911" lon="149.1652222">
  <ele>582.26</ele>
  <time>2026-08-28T19:10:00Z</time>
  <course>339.97</course>
  <speed>0.01</speed>
  <fix>3d</fix>
</trkpt>
<trkpt lat="-35.3629111" lon="149.1652224">
  <ele>582.18</ele>
  <time>2026-08-28T19:10:00Z</time>
  <course>238.36</course>
  <speed>0.0</speed>
  <fix>3d</fix>
</trkpt>
<trkpt lat="-35.362911" lon="149.1652222">
  <ele>582.27</ele>
  <time>2026-08-28T19:10:00Z</time>
  <course>339.96</course>
  <speed>0.01</speed>
  <fix>3d</fix>
</trkpt>
<trkpt lat="-35.3629111" lon="149.1652224">
  <ele>582.18</ele>
  <time>2026-08-28T19:10:00Z</time>
  <course>260.52</course>
  <speed>0.0</speed>
  <fix>3d</fix>
</trkpt>
<trkpt lat="-35.362911" lon="149.1652222">
  <ele>582.27</ele>
  <time>2026-08-28T19:10:00Z</time>
  <course>339.96</course>
  <speed>0.01</speed>
  <fix>3d</fix>
</trkpt>
<trkpt lat="-35.3629111" lon="149.1652224">
  <ele>582.18</ele>
  <time>2026-08-28T19:10:00Z</time>
  <course>254.14</course>
  <speed>0.0</speed>
  <fix>3d</fix>
</trkpt>
<trkpt lat="-35.362911" lon="149.1652222">
  <ele>582.26</ele>
  <time>2026-08-28T19:10:00Z</time>
  <course>339.96</course>
  <speed>0.01</speed>
  <fix>3d</fix>
</trkpt>
<trkpt lat="-35.3629111" lon="149.1652224">
  <ele>582.18</ele>
  <time>2026-08-28T19:10:00Z</time>
  <course>250.48</course>
  <speed>0.0</speed>
  <fix>3d</fix>
</trkpt>
<trkpt lat="-35.362911" lon="149.1652222">
  <ele>582.26</ele>
  <time>2026-08-28T19:10:00Z</time>
  <course>339.96</course>
  <speed>0.01</speed>
  <fix>3d</fix>
</trkpt>
<trkpt lat="-35.3629111" lon="149.1652224">
  <ele>582.18</ele>
  <time>2026-08-28T19:10:00Z</time>
  <course>250.55</course>
  <speed>0.0</speed>
  <fix>3d</fix>
</trkpt>
<trkpt lat="-35.362911" lon="149.1652222">
  <ele>582.26</ele>
  <time>2026-08-28T19:10:00Z</time>
  <course>339.96</course>
  <speed>0.01</speed>
  <fix>3d</fix>
</trkpt>
<trkpt lat="-35.3629111" lon="149.1652224">
  <ele>582.18</ele>
  <time>2026-08-28T19:10:00Z</time>
  <course>250.41</course>
  <speed>0.0</speed>
  <fix>3d</fix>
</trkpt>
<trkpt lat="-35.362911" lon="149.1652222">
  <ele>582.26</ele>
  <time>2026-08-28T19:10:00Z</time>
  <course>339.96</course>
  <speed>0.01</speed>
  <fix>3d</fix>
</trkpt>
<trkpt lat="-35.3629111" lon="149.1652224">
  <ele>582.18</ele>
  <time>2026-08-28T19:10:00Z</time>
  <course>250.51</course>
  <speed>0.0</speed>
  <fix>3d</fix>
</trkpt>
<trkpt lat="-35.362911" lon="149.1652222">
  <ele>582.26</ele>
  <time>2026-08-28T19:10:00Z</time>
  <course>339.95</course>
  <speed>0.01</speed>
  <fix>3d</fix>
</trkpt>
<trkpt lat="-35.3629111" lon="149.1652224">
  <ele>582.18</ele>
  <time>2026-08-28T19:10:00Z</time>
  <course>67.04</course>
  <speed>0.0</speed>
  <fix>3d</fix>
</trkpt>
<trkpt lat="-35.362911" lon="149.1652222">
  <ele>582.26</ele>
  <time>2026-08-28T19:10:00Z</time>
  <course>339.95</course>
  <speed>0.01</speed>
  <fix>3d</fix>
</trkpt>
<trkpt lat="-35.3629111" lon="149.1652224">
  <ele>582.18</ele>
  <time>2026-08-28T19:10:00Z</time>
  <course>68.75</course>
  <speed>0.0</speed>
  <fix>3d</fix>
</trkpt>
<trkpt lat="-35.362911" lon="149.1652222">
  <ele>582.27</ele>
  <time>2026-08-28T19:10:00Z</time>
  <course>339.95</course>
  <speed>0.01</speed>
  <fix>3d</fix>
</trkpt>
<trkpt lat="-35.3629111" lon="149.1652224">
  <ele>582.18</ele>
  <time>2026-08-28T19:10:00Z</time>
  <course>65.02</course>
  <speed>0.0</speed>
  <fix>3d</fix>
</trkpt>
<trkpt lat="-35.362911" lon="149.1652222">
  <ele>582.27</ele>
  <time>2026-08-28T19:10:00Z</time>
  <course>339.95</course>
  <speed>0.01</speed>
  <fix>3d</fix>
</trkpt>
<trkpt lat="-35.3629111" lon="149.1652224">
  <ele>582.18</ele>
  <time>2026-08-28T19:10:00Z</time>
  <course>65.24</course>
  <speed>0.0</speed>
  <fix>3d</fix>
</trkpt>
<trkpt lat="-35.362911" lon="149.1652222">
  <ele>582.26</ele>
  <time>2026-08-28T19:10:00Z</time>
  <course>339.95</course>
  <speed>0.01</speed>
  <fix>3d</fix>
</trkpt>
<trkpt lat="-35.3629111" lon="149.1652224">
  <ele>582.18</ele>
  <time>2026-08-28T19:10:00Z</time>
  <course>66.46</course>
  <speed>0.0</speed>
  <fix>3d</fix>
</trkpt>
<trkpt lat="-35.362911" lon="149.1652222">
  <ele>582.26</ele>
  <time>2026-08-28T19:10:00Z</time>
  <course>339.94</course>
  <speed>0.01</speed>
  <fix>3d</fix>
</trkpt>
<trkpt lat="-35.3629111" lon="149.1652224">
  <ele>582.18</ele>
  <time>2026-08-28T19:10:00Z</time>
  <course>66.32</course>
  <speed>0.0</speed>
  <fix>3d</fix>
</trkpt>
<trkpt lat="-35.362911" lon="149.1652222">
  <ele>582.27</ele>
  <time>2026-08-28T19:10:00Z</time>
  <course>339.94</course>
  <speed>0.01</speed>
  <fix>3d</fix>
</trkpt>
<trkpt lat="-35.3629111" lon="149.1652224">
  <ele>582.18</ele>
  <time>2026-08-28T19:10:00Z</time>
  <course>66.21</course>
  <speed>0.0</speed>
  <fix>3d</fix>
</trkpt>
<trkpt lat="-35.362911" lon="149.1652222">
  <ele>582.27</ele>
  <time>2026-08-28T19:10:00Z</time>
  <course>339.94</course>
  <speed>0.01</speed>
  <fix>3d</fix>
</trkpt>
<trkpt lat="-35.3629111" lon="149.1652224">
  <ele>582.18</ele>
  <time>2026-08-28T19:10:00Z</time>
  <course>66.24</course>
  <speed>0.0</speed>
  <fix>3d</fix>
</trkpt>
<trkpt lat="-35.362911" lon="149.1652222">
  <ele>582.27</ele>
  <time>2026-08-28T19:10:00Z</time>
  <course>339.94</course>
  <speed>0.01</speed>
  <fix>3d</fix>
</trkpt>
<trkpt lat="-35.3629111" lon="149.1652224">
  <ele>582.18</ele>
  <time>2026-08-28T19:10:00Z</time>
  <course>66.25</course>
  <speed>0.0</speed>
  <fix>3d</fix>
</trkpt>
<trkpt lat="-35.362911" lon="149.1652222">
  <ele>582.27</ele>
  <time>2026-08-28T19:10:00Z</time>
  <course>339.94</course>
  <speed>0.01</speed>
  <fix>3d</fix>
</trkpt>
<trkpt lat="-35.3629111" lon="149.1652224">
  <ele>582.18</ele>
  <time>2026-08-28T19:10:00Z</time>
  <course>66.25</course>
  <speed>0.0</speed>
  <fix>3d</fix>
</trkpt>
<trkpt lat="-35.362911" lon="149.1652222">
  <ele>582.26</ele>
  <time>2026-08-28T19:10:00Z</time>
  <course>339.94</course>
  <speed>0.01</speed>
  <fix>3d</fix>
</trkpt>
<trkpt lat="-35.3629111" lon="149.1652224">
  <ele>582.18</ele>
  <time>2026-08-28T19:10:00Z</time>
  <course>66.25</course>
  <speed>0.0</speed>
  <fix>3d</fix>
</trkpt>
<trkpt lat="-35.362911" lon="149.1652222">
  <ele>582.26</ele>
  <time>2026-08-28T19:10:00Z</time>
  <course>339.93</course>
  <speed>0.01</speed>
  <fix>3d</fix>
</trkpt>
<trkpt lat="-35.3629111" lon="149.1652224">
  <ele>582.18</ele>
  <time>2026-08-28T19:10:00Z</time>
  <course>66.25</course>
  <speed>0.0</speed>
  <fix>3d</fix>
</trkpt>
<trkpt lat="-35.362911" lon="149.1652222">
  <ele>582.26</ele>
  <time>2026-08-28T19:10:00Z</time>
  <course>339.93</course>
  <speed>0.01</speed>
  <fix>3d</fix>
</trkpt>
<trkpt lat="-35.3629111" lon="149.1652224">
  <ele>582.18</ele>
  <time>2026-08-28T19:10:00Z</time>
  <course>66.25</course>
  <speed>0.0</speed>
  <fix>3d</fix>
</trkpt>
<trkpt lat="-35.362911" lon="149.1652222">
  <ele>582.26</ele>
  <time>2026-08-28T19:10:00Z</time>
  <course>339.93</course>
  <speed>0.01</speed>
  <fix>3d</fix>
</trkpt>
<trkpt lat="-35.3629111" lon="149.1652224">
  <ele>582.18</ele>
  <time>2026-08-28T19:10:00Z</time>
  <course>66.25</course>
  <speed>0.0</speed>
  <fix>3d</fix>
</trkpt>
<trkpt lat="-35.362911" lon="149.1652222">
  <ele>582.26</ele>
  <time>2026-08-28T19:10:00Z</time>
  <course>339.93</course>
  <speed>0.01</speed>
  <fix>3d</fix>
</trkpt>
<trkpt lat="-35.3629111" lon="149.1652224">
  <ele>582.18</ele>
  <time>2026-08-28T19:10:00Z</time>
  <course>66.25</course>
  <speed>0.0</speed>
  <fix>3d</fix>
</trkpt>
<trkpt lat="-35.362911" lon="149.1652222">
  <ele>582.26</ele>
  <time>2026-08-28T19:10:00Z</time>
  <course>339.93</course>
  <speed>0.01</speed>
  <fix>3d</fix>
</trkpt>
<trkpt lat="-35.3629111" lon="149.1652224">
  <ele>582.18</ele>
  <time>2026-08-28T19:10:00Z</time>
  <course>66.25</course>
  <speed>0.0</speed>
  <fix>3d</fix>
</trkpt>
<trkpt lat="-35.362911" lon="149.1652222">
  <ele>582.26</ele>
  <time>2026-08-28T19:10:00Z</time>
  <course>339.93</course>
  <speed>0.01</speed>
  <fix>3d</fix>
</trkpt>
<trkpt lat="-35.3629111" lon="149.1652224">
  <ele>582.18</ele>
  <time>2026-08-28T19:10:00Z</time>
  <course>66.25</course>
  <speed>0.0</speed>
  <fix>3d</fix>
</trkpt>
<trkpt lat="-35.362911" lon="149.1652222">
  <ele>582.25</ele>
  <time>2026-08-28T19:10:00Z</time>
  <course>339.92</course>
  <speed>0.01</speed>
  <fix>3d</fix>
</trkpt>
<trkpt lat="-35.3629111" lon="149.1652224">
  <ele>582.18</ele>
  <time>2026-08-28T19:10:00Z</time>
  <course>66.25</course>
  <speed>0.0</speed>
  <fix>3d</fix>
</trkpt>
<trkpt lat="-35.362911" lon="149.1652222">
  <ele>582.25</ele>
  <time>2026-08-28T19:10:00Z</time>
  <course>339.92</course>
  <speed>0.01</speed>
  <fix>3d</fix>
</trkpt>
<trkpt lat="-35.3629111" lon="149.1652224">
  <ele>582.18</ele>
  <time>2026-08-28T19:10:00Z</time>
  <course>66.25</course>
  <speed>0.0</speed>
  <fix>3d</fix>
</trkpt>
<trkpt lat="-35.362911" lon="149.1652222">
  <ele>582.25</ele>
  <time>2026-08-28T19:10:00Z</time>
  <course>339.92</course>
  <speed>0.01</speed>
  <fix>3d</fix>
</trkpt>
<trkpt lat="-35.3629111" lon="149.1652224">
  <ele>582.18</ele>
  <time>2026-08-28T19:10:00Z</time>
  <course>66.25</course>
  <speed>0.0</speed>
  <fix>3d</fix>
</trkpt>
<trkpt lat="-35.362911" lon="149.1652222">
  <ele>582.25</ele>
  <time>2026-08-28T19:10:00Z</time>
  <course>339.92</course>
  <speed>0.01</speed>
  <fix>3d</fix>
</trkpt>
<trkpt lat="-35.3629111" lon="149.1652224">
  <ele>582.18</ele>
  <time>2026-08-28T19:10:00Z</time>
  <course>66.25</course>
  <speed>0.0</speed>
  <fix>3d</fix>
</trkpt>
<trkpt lat="-35.362911" lon="149.1652222">
  <ele>582.25</ele>
  <time>2026-08-28T19:10:00Z</time>
  <course>339.92</course>
  <speed>0.01</speed>
  <fix>3d</fix>
</trkpt>
<trkpt lat="-35.3629111" lon="149.1652224">
  <ele>582.18</ele>
  <time>2026-08-28T19:10:00Z</time>
  <course>66.25</course>
  <speed>0.0</speed>
  <fix>3d</fix>
</trkpt>
<trkpt lat="-35.362911" lon="149.1652222">
  <ele>582.25</ele>
  <time>2026-08-28T19:10:00Z</time>
  <course>339.92</course>
  <speed>0.01</speed>
  <fix>3d</fix>
</trkpt>
<trkpt lat="-35.3629111" lon="149.1652224">
  <ele>582.18</ele>
  <time>2026-08-28T19:10:00Z</time>
  <course>66.25</course>
  <speed>0.0</speed>
  <fix>3d</fix>
</trkpt>
<trkpt lat="-35.362911" lon="149.1652222">
  <ele>582.24</ele>
  <time>2026-08-28T19:10:00Z</time>
  <course>339.91</course>
  <speed>0.01</speed>
  <fix>3d</fix>
</trkpt>
<trkpt lat="-35.3629111" lon="149.1652224">
  <ele>582.18</ele>
  <time>2026-08-28T19:10:00Z</time>
  <course>66.25</course>
  <speed>0.0</speed>
  <fix>3d</fix>
</trkpt>
<trkpt lat="-35.362911" lon="149.1652222">
  <ele>582.24</ele>
  <time>2026-08-28T19:10:00Z</time>
  <course>339.91</course>
  <speed>0.01</speed>
  <fix>3d</fix>
</trkpt>
<trkpt lat="-35.3629111" lon="149.1652224">
  <ele>582.18</ele>
  <time>2026-08-28T19:10:00Z</time>
  <course>66.25</course>
  <speed>0.0</speed>
  <fix>3d</fix>
</trkpt>
<trkpt lat="-35.362911" lon="149.1652222">
  <ele>582.24</ele>
  <time>2026-08-28T19:10:00Z</time>
  <course>339.91</course>
  <speed>0.01</speed>
  <fix>3d</fix>
</trkpt>
<trkpt lat="-35.3629111" lon="149.1652224">
  <ele>582.18</ele>
  <time>2026-08-28T19:10:00Z</time>
  <course>66.25</course>
  <speed>0.0</speed>
  <fix>3d</fix>
</trkpt>
<trkpt lat="-35.362911" lon="149.1652222">
  <ele>582.24</ele>
  <time>2026-08-28T19:10:00Z</time>
  <course>339.91</course>
  <speed>0.01</speed>
  <fix>3d</fix>
</trkpt>
<trkpt lat="-35.3629111" lon="149.1652224">
  <ele>582.18</ele>
  <time>2026-08-28T19:10:00Z</time>
  <course>66.25</course>
  <speed>0.0</speed>
  <fix>3d</fix>
</trkpt>
<trkpt lat="-35.362911" lon="149.1652222">
  <ele>582.24</ele>
  <time>2026-08-28T19:10:00Z</time>
  <course>339.91</course>
  <speed>0.01</speed>
  <fix>3d</fix>
</trkpt>
<trkpt lat="-35.3629111" lon="149.1652224">
  <ele>582.18</ele>
  <time>2026-08-28T19:10:00Z</time>
  <course>66.25</course>
  <speed>0.0</speed>
  <fix>3d</fix>
</trkpt>
<trkpt lat="-35.362911" lon="149.1652222">
  <ele>582.25</ele>
  <time>2026-08-28T19:10:00Z</time>
  <course>339.91</course>
  <speed>0.01</speed>
  <fix>3d</fix>
</trkpt>
<trkpt lat="-35.3629111" lon="149.1652224">
  <ele>582.18</ele>
  <time>2026-08-28T19:10:00Z</time>
  <course>66.25</course>
  <speed>0.0</speed>
  <fix>3d</fix>
</trkpt>
<trkpt lat="-35.362911" lon="149.1652222">
  <ele>582.24</ele>
  <time>2026-08-28T19:10:00Z</time>
  <course>339.91</course>
  <speed>0.01</speed>
  <fix>3d</fix>
</trkpt>
<trkpt lat="-35.3629111" lon="149.1652224">
  <ele>582.18</ele>
  <time>2026-08-28T19:10:00Z</time>
  <course>66.25</course>
  <speed>0.0</speed>
  <fix>3d</fix>
</trkpt>
<trkpt lat="-35.362911" lon="149.1652222">
  <ele>582.24</ele>
  <time>2026-08-28T19:10:00Z</time>
  <course>339.9</course>
  <speed>0.01</speed>
  <fix>3d</fix>
</trkpt>
<trkpt lat="-35.3629111" lon="149.1652224">
  <ele>582.18</ele>
  <time>2026-08-28T19:10:00Z</time>
  <course>66.25</course>
  <speed>0.0</speed>
  <fix>3d</fix>
</trkpt>
<trkpt lat="-35.362911" lon="149.1652222">
  <ele>582.24</ele>
  <time>2026-08-28T19:10:00Z</time>
  <course>339.9</course>
  <speed>0.01</speed>
  <fix>3d</fix>
</trkpt>
<trkpt lat="-35.3629111" lon="149.1652224">
  <ele>582.18</ele>
  <time>2026-08-28T19:10:00Z</time>
  <course>66.25</course>
  <speed>0.0</speed>
  <fix>3d</fix>
</trkpt>
<trkpt lat="-35.362911" lon="149.1652222">
  <ele>582.24</ele>
  <time>2026-08-28T19:10:00Z</time>
  <course>339.91</course>
  <speed>0.01</speed>
  <fix>3d</fix>
</trkpt>
<trkpt lat="-35.3629111" lon="149.1652224">
  <ele>582.18</ele>
  <time>2026-08-28T19:10:00Z</time>
  <course>66.25</course>
  <speed>0.0</speed>
  <fix>3d</fix>
</trkpt>
<trkpt lat="-35.362911" lon="149.1652222">
  <ele>582.25</ele>
  <time>2026-08-28T19:10:00Z</time>
  <course>339.93</course>
  <speed>0.01</speed>
  <fix>3d</fix>
</trkpt>
<trkpt lat="-35.3629111" lon="149.1652224">
  <ele>582.18</ele>
  <time>2026-08-28T19:10:00Z</time>
  <course>66.25</course>
  <speed>0.0</speed>
  <fix>3d</fix>
</trkpt>
<trkpt lat="-35.362911" lon="149.1652222">
  <ele>582.26</ele>
  <time>2026-08-28T19:10:00Z</time>
  <course>339.94</course>
  <speed>0.01</speed>
  <fix>3d</fix>
</trkpt>
<trkpt lat="-35.3629111" lon="149.1652224">
  <ele>582.18</ele>
  <time>2026-08-28T19:10:00Z</time>
  <course>66.25</course>
  <speed>0.0</speed>
  <fix>3d</fix>
</trkpt>
<trkpt lat="-35.362911" lon="149.1652222">
  <ele>582.27</ele>
  <time>2026-08-28T19:10:00Z</time>
  <course>339.96</course>
  <speed>0.01</speed>
  <fix>3d</fix>
</trkpt>
<trkpt lat="-35.3629111" lon="149.1652224">
  <ele>582.18</ele>
  <time>2026-08-28T19:10:00Z</time>
  <course>66.25</course>
  <speed>0.0</speed>
  <fix>3d</fix>
</trkpt>
<trkpt lat="-35.362911" lon="149.1652222">
  <ele>582.28</ele>
  <time>2026-08-28T19:10:00Z</time>
  <course>339.98</course>
  <speed>0.01</speed>
  <fix>3d</fix>
</trkpt>
<trkpt lat="-35.3629111" lon="149.1652224">
  <ele>582.18</ele>
  <time>2026-08-28T19:10:00Z</time>
  <course>66.25</course>
  <speed>0.0</speed>
  <fix>3d</fix>
</trkpt>
<trkpt lat="-35.362911" lon="149.1652222">
  <ele>582.28</ele>
  <time>2026-08-28T19:10:00Z</time>
  <course>339.99</course>
  <speed>0.01</speed>
  <fix>3d</fix>
</trkpt>
<trkpt lat="-35.3629111" lon="149.1652224">
  <ele>582.18</ele>
  <time>2026-08-28T19:10:00Z</time>
  <course>66.25</course>
  <speed>0.0</speed>
  <fix>3d</fix>
</trkpt>
<trkpt lat="-35.362911" lon="149.1652222">
  <ele>582.29</ele>
  <time>2026-08-28T19:10:00Z</time>
  <course>340.01</course>
  <speed>0.02</speed>
  <fix>3d</fix>
</trkpt>
<trkpt lat="-35.3629111" lon="149.1652224">
  <ele>582.18</ele>
  <time>2026-08-28T19:10:00Z</time>
  <course>66.25</course>
  <speed>0.0</speed>
  <fix>3d</fix>
</trkpt>
<trkpt lat="-35.362911" lon="149.1652222">
  <ele>582.29</ele>
  <time>2026-08-28T19:10:00Z</time>
  <course>340.03</course>
  <speed>0.02</speed>
  <fix>3d</fix>
</trkpt>
<trkpt lat="-35.3629111" lon="149.1652224">
  <ele>582.18</ele>
  <time>2026-08-28T19:10:00Z</time>
  <course>66.25</course>
  <speed>0.0</speed>
  <fix>3d</fix>
</trkpt>
<trkpt lat="-35.362911" lon="149.1652222">
  <ele>582.28</ele>
  <time>2026-08-28T19:10:00Z</time>
  <course>340.04</course>
  <speed>0.02</speed>
  <fix>3d</fix>
</trkpt>
<trkpt lat="-35.3629111" lon="149.1652224">
  <ele>582.18</ele>
  <time>2026-08-28T19:10:00Z</time>
  <course>66.25</course>
  <speed>0.0</speed>
  <fix>3d</fix>
</trkpt>
<trkpt lat="-35.362911" lon="149.1652222">
  <ele>582.28</ele>
  <time>2026-08-28T19:10:00Z</time>
  <course>340.06</course>
  <speed>0.02</speed>
  <fix>3d</fix>
</trkpt>
<trkpt lat="-35.3629111" lon="149.1652224">
  <ele>582.18</ele>
  <time>2026-08-28T19:10:00Z</time>
  <course>66.25</course>
  <speed>0.0</speed>
  <fix>3d</fix>
</trkpt>
<trkpt lat="-35.362911" lon="149.1652222">
  <ele>582.27</ele>
  <time>2026-08-28T19:10:00Z</time>
  <course>340.08</course>
  <speed>0.02</speed>
  <fix>3d</fix>
</trkpt>
<trkpt lat="-35.3629111" lon="149.1652224">
  <ele>582.18</ele>
  <time>2026-08-28T19:10:00Z</time>
  <course>66.25</course>
  <speed>0.0</speed>
  <fix>3d</fix>
</trkpt>
<trkpt lat="-35.362911" lon="149.1652222">
  <ele>582.27</ele>
  <time>2026-08-28T19:10:00Z</time>
  <course>340.09</course>
  <speed>0.02</speed>
  <fix>3d</fix>
</trkpt>
<trkpt lat="-35.3629111" lon="149.1652224">
  <ele>582.18</ele>
  <time>2026-08-28T19:10:00Z</time>
  <course>66.25</course>
  <speed>0.0</speed>
  <fix>3d</fix>
</trkpt>
<trkpt lat="-35.362911" lon="149.1652222">
  <ele>582.26</ele>
  <time>2026-08-28T19:10:00Z</time>
  <course>340.11</course>
  <speed>0.02</speed>
  <fix>3d</fix>
</trkpt>
<trkpt lat="-35.3629111" lon="149.1652224">
  <ele>582.18</ele>
  <time>2026-08-28T19:10:00Z</time>
  <course>66.25</course>
  <speed>0.0</speed>
  <fix>3d</fix>
</trkpt>
<trkpt lat="-35.362911" lon="149.1652222">
  <ele>582.27</ele>
  <time>2026-08-28T19:10:00Z</time>
  <course>340.13</course>
  <speed>0.02</speed>
  <fix>3d</fix>
</trkpt>
<trkpt lat="-35.3629111" lon="149.1652224">
  <ele>582.18</ele>
  <time>2026-08-28T19:10:00Z</time>
  <course>66.25</course>
  <speed>0.0</speed>
  <fix>3d</fix>
</trkpt>
<trkpt lat="-35.362911" lon="149.1652222">
  <ele>582.26</ele>
  <time>2026-08-28T19:10:00Z</time>
  <course>340.15</course>
  <speed>0.02</speed>
  <fix>3d</fix>
</trkpt>
<trkpt lat="-35.3629111" lon="149.1652224">
  <ele>582.18</ele>
  <time>2026-08-28T19:10:00Z</time>
  <course>66.25</course>
  <speed>0.0</speed>
  <fix>3d</fix>
</trkpt>
<trkpt lat="-35.362911" lon="149.1652222">
  <ele>582.26</ele>
  <time>2026-08-28T19:10:00Z</time>
  <course>340.16</course>
  <speed>0.02</speed>
  <fix>3d</fix>
</trkpt>
<trkpt lat="-35.3629111" lon="149.1652224">
  <ele>582.18</ele>
  <time>2026-08-28T19:10:00Z</time>
  <course>66.25</course>
  <speed>0.0</speed>
  <fix>3d</fix>
</trkpt>
<trkpt lat="-35.362911" lon="149.1652222">
  <ele>582.26</ele>
  <time>2026-08-28T19:10:00Z</time>
  <course>340.18</course>
  <speed>0.02</speed>
  <fix>3d</fix>
</trkpt>
<trkpt lat="-35.3629111" lon="149.1652224">
  <ele>582.18</ele>
  <time>2026-08-28T19:10:00Z</time>
  <course>66.25</course>
  <speed>0.0</speed>
  <fix>3d</fix>
</trkpt>
<trkpt lat="-35.362911" lon="149.1652222">
  <ele>582.26</ele>
  <time>2026-08-28T19:10:00Z</time>
  <course>340.2</course>
  <speed>0.02</speed>
  <fix>3d</fix>
</trkpt>
<trkpt lat="-35.3629111" lon="149.1652224">
  <ele>582.18</ele>
  <time>2026-08-28T19:10:00Z</time>
  <course>66.25</course>
  <speed>0.0</speed>
  <fix>3d</fix>
</trkpt>
<trkpt lat="-35.362911" lon="149.1652222">
  <ele>582.26</ele>
  <time>2026-08-28T19:10:00Z</time>
  <course>340.22</course>
  <speed>0.02</speed>
  <fix>3d</fix>
</trkpt>
<trkpt lat="-35.3629111" lon="149.1652224">
  <ele>582.18</ele>
  <time>2026-08-28T19:10:00Z</time>
  <course>66.25</course>
  <speed>0.0</speed>
  <fix>3d</fix>
</trkpt>
<trkpt lat="-35.362911" lon="149.1652222">
  <ele>582.26</ele>
  <time>2026-08-28T19:10:00Z</time>
  <course>340.24</course>
  <speed>0.02</speed>
  <fix>3d</fix>
</trkpt>
<trkpt lat="-35.3629111" lon="149.1652224">
  <ele>582.18</ele>
  <time>2026-08-28T19:10:00Z</time>
  <course>66.25</course>
  <speed>0.0</speed>
  <fix>3d</fix>
</trkpt>
<trkpt lat="-35.362911" lon="149.1652222">
  <ele>582.27</ele>
  <time>2026-08-28T19:10:00Z</time>
  <course>340.26</course>
  <speed>0.02</speed>
  <fix>3d</fix>
</trkpt>
<trkpt lat="-35.3629111" lon="149.1652224">
  <ele>582.18</ele>
  <time>2026-08-28T19:10:00Z</time>
  <course>66.25</course>
  <speed>0.0</speed>
  <fix>3d</fix>
</trkpt>
<trkpt lat="-35.362911" lon="149.1652222">
  <ele>582.27</ele>
  <time>2026-08-28T19:10:00Z</time>
  <course>340.28</course>
  <speed>0.02</speed>
  <fix>3d</fix>
</trkpt>
<trkpt lat="-35.3629111" lon="149.1652224">
  <ele>582.18</ele>
  <time>2026-08-28T19:10:00Z</time>
  <course>66.25</course>
  <speed>0.0</speed>
  <fix>3d</fix>
</trkpt>
<trkpt lat="-35.362911" lon="149.1652222">
  <ele>582.27</ele>
  <time>2026-08-28T19:10:00Z</time>
  <course>340.3</course>
  <speed>0.02</speed>
  <fix>3d</fix>
</trkpt>
<trkpt lat="-35.3629111" lon="149.1652224">
  <ele>582.18</ele>
  <time>2026-08-28T19:10:00Z</time>
  <course>66.25</course>
  <speed>0.0</speed>
  <fix>3d</fix>
</trkpt>
<trkpt lat="-35.362911" lon="149.1652222">
  <ele>582.26</ele>
  <time>2026-08-28T19:10:00Z</time>
  <course>340.32</course>
  <speed>0.02</speed>
  <fix>3d</fix>
</trkpt>
<trkpt lat="-35.3629111" lon="149.1652224">
  <ele>582.18</ele>
  <time>2026-08-28T19:10:00Z</time>
  <course>66.25</course>
  <speed>0.0</speed>
  <fix>3d</fix>
</trkpt>
<trkpt lat="-35.362911" lon="149.1652222">
  <ele>582.26</ele>
  <time>2026-08-28T19:10:00Z</time>
  <course>340.34</course>
  <speed>0.02</speed>
  <fix>3d</fix>
</trkpt>
<trkpt lat="-35.3629111" lon="149.1652224">
  <ele>582.18</ele>
  <time>2026-08-28T19:10:00Z</time>
  <course>66.25</course>
  <speed>0.0</speed>
  <fix>3d</fix>
</trkpt>
<trkpt lat="-35.362911" lon="149.1652222">
  <ele>582.26</ele>
  <time>2026-08-28T19:10:00Z</time>
  <course>340.36</course>
  <speed>0.02</speed>
  <fix>3d</fix>
</trkpt>
<trkpt lat="-35.3629111" lon="149.1652224">
  <ele>582.18</ele>
  <time>2026-08-28T19:10:00Z</time>
  <course>66.25</course>
  <speed>0.0</speed>
  <fix>3d</fix>
</trkpt>
<trkpt lat="-35.362911" lon="149.1652222">
  <ele>582.26</ele>
  <time>2026-08-28T19:10:00Z</time>
  <course>340.38</course>
  <speed>0.02</speed>
  <fix>3d</fix>
</trkpt>
<trkpt lat="-35.3629111" lon="149.1652224">
  <ele>582.18</ele>
  <time>2026-08-28T19:10:00Z</time>
  <course>66.25</course>
  <speed>0.0</speed>
  <fix>3d</fix>
</trkpt>
<trkpt lat="-35.362911" lon="149.1652222">
  <ele>582.26</ele>
  <time>2026-08-28T19:10:00Z</time>
  <course>340.41</course>
  <speed>0.02</speed>
  <fix>3d</fix>
</trkpt>
<trkpt lat="-35.3629111" lon="149.1652224">
  <ele>582.18</ele>
  <time>2026-08-28T19:10:00Z</time>
  <course>66.25</course>
  <speed>0.0</speed>
  <fix>3d</fix>
</trkpt>
<trkpt lat="-35.362911" lon="149.1652222">
  <ele>582.25</ele>
  <time>2026-08-28T19:10:00Z</time>
  <course>340.43</course>
  <speed>0.02</speed>
  <fix>3d</fix>
</trkpt>
<trkpt lat="-35.3629111" lon="149.1652224">
  <ele>582.18</ele>
  <time>2026-08-28T19:10:00Z</time>
  <course>66.25</course>
  <speed>0.0</speed>
  <fix>3d</fix>
</trkpt>
<trkpt lat="-35.362911" lon="149.1652222">
  <ele>582.25</ele>
  <time>2026-08-28T19:10:00Z</time>
  <course>340.45</course>
  <speed>0.02</speed>
  <fix>3d</fix>
</trkpt>
<trkpt lat="-35.3629111" lon="149.1652224">
  <ele>582.18</ele>
  <time>2026-08-28T19:10:00Z</time>
  <course>66.25</course>
  <speed>0.0</speed>
  <fix>3d</fix>
</trkpt>
<trkpt lat="39.654938" lon="-104.1331666">
  <ele>1569.54</ele>
  <time>2026-08-28T19:10:02Z</time>
  <course>168.11</course>
  <speed>0.0</speed>
  <fix>3d</fix>
</trkpt>
<trkpt lat="40.072842" lon="-105.230575">
  <ele>1586.09</ele>
  <time>2026-08-28T19:10:02Z</time>
  <course>2.1</course>
  <speed>0.0</speed>
  <fix>3d</fix>
</trkpt>
<trkpt lat="40.072842" lon="-105.230575">
  <ele>1586.09</ele>
  <time>2026-08-28T19:10:02Z</time>
  <course>238.4</course>
  <speed>0.0</speed>
  <fix>3d</fix>
</trkpt>
<trkpt lat="40.072842" lon="-105.230575">
  <ele>1586.09</ele>
  <time>2026-08-28T19:10:02Z</time>
  <course>2.68</course>
  <speed>0.0</speed>
  <fix>3d</fix>
</trkpt>
<trkpt lat="40.072842" lon="-105.230575">
  <ele>1586.09</ele>
  <time>2026-08-28T19:10:02Z</time>
  <course>194.29</course>
  <speed>0.0</speed>
  <fix>3d</fix>
</trkpt>
<trkpt lat="40.072842" lon="-105.230575">
  <ele>1586.09</ele>
  <time>2026-08-28T19:10:02Z</time>
  <course>3.42</course>
  <speed>0.0</speed>
  <fix>3d</fix>
</trkpt>
<trkpt lat="40.072842" lon="-105.230575">
  <ele>1586.09</ele>
  <time>2026-08-28T19:10:02Z</time>
  <course>193.66</course>
  <speed>0.0</speed>
  <fix>3d</fix>
</trkpt>
<trkpt lat="40.072842" lon="-105.230575">
  <ele>1586.09</ele>
  <time>2026-08-28T19:10:02Z</time>
  <course>4.08</course>
  <speed>0.0</speed>
  <fix>3d</fix>
</trkpt>
<trkpt lat="40.072842" lon="-105.230575">
  <ele>1586.09</ele>
  <time>2026-08-28T19:10:02Z</time>
  <course>303.54</course>
  <speed>0.0</speed>
  <fix>3d</fix>
</trkpt>
<trkpt lat="40.072842" lon="-105.230575">
  <ele>1586.09</ele>
  <time>2026-08-28T19:10:02Z</time>
  <course>4.68</course>
  <speed>0.0</speed>
  <fix>3d</fix>
</trkpt>
<trkpt lat="40.072842" lon="-105.230575">
  <ele>1586.09</ele>
  <time>2026-08-28T19:10:02Z</time>
  <course>110.94</course>
  <speed>0.0</speed>
  <fix>3d</fix>
</trkpt>
<trkpt lat="40.072842" lon="-105.230575">
  <ele>1586.09</ele>
  <time>2026-08-28T19:10:02Z</time>
  <course>5.26</course>
  <speed>0.0</speed>
  <fix>3d</fix>
</trkpt>
<trkpt lat="40.072842" lon="-105.230575">
  <ele>1586.09</ele>
  <time>2026-08-28T19:10:02Z</time>
  <course>191.21</course>
  <speed>0.0</speed>
  <fix>3d</fix>
</trkpt>
<trkpt lat="40.072842" lon="-105.230575">
  <ele>1586.09</ele>
  <time>2026-08-28T19:10:02Z</time>
  <course>5.81</course>
  <speed>0.0</speed>
  <fix>3d</fix>
</trkpt>
<trkpt lat="40.072842" lon="-105.230575">
  <ele>1586.09</ele>
  <time>2026-08-28T19:10:02Z</time>
  <course>252.23</course>
  <speed>0.0</speed>
  <fix>3d</fix>
</trkpt>
<trkpt lat="40.072842" lon="-105.230575">
  <ele>1586.09</ele>
  <time>2026-08-28T19:10:02Z</time>
  <course>6.33</course>
  <speed>0.0</speed>
  <fix>3d</fix>
</trkpt>
<trkpt lat="40.072842" lon="-105.230575">
  <ele>1586.09</ele>
  <time>2026-08-28T19:10:02Z</time>
  <course>170.36</course>
  <speed>0.0</speed>
  <fix>3d</fix>
</trkpt>
<trkpt lat="40.072842" lon="-105.230575">
  <ele>1586.09</ele>
  <time>2026-08-28T19:10:02Z</time>
  <course>6.81</course>
  <speed>0.0</speed>
  <fix>3d</fix>
</trkpt>
<trkpt lat="40.072842" lon="-105.230575">
  <ele>1586.09</ele>
  <time>2026-08-28T19:10:02Z</time>
  <course>179.36</course>
  <speed>0.0</speed>
  <fix>3d</fix>
</trkpt>
<trkpt lat="40.072842" lon="-105.230575">
  <ele>1586.09</ele>
  <time>2026-08-28T19:10:02Z</time>
  <course>7.26</course>
  <speed>0.0</speed>
  <fix>3d</fix>
</trkpt>
<trkpt lat="40.072842" lon="-105.230575">
  <ele>1586.09</ele>
  <time>2026-08-28T19:10:02Z</time>
  <course>19.98</course>
  <speed>0.0</speed>
  <fix>3d</fix>
</trkpt>
<trkpt lat="40.072842" lon="-105.230575">
  <ele>1586.09</ele>
  <time>2026-08-28T19:10:02Z</time>
  <course>7.67</course>
  <speed>0.0</speed>
  <fix>3d</fix>
</trkpt>
<trkpt lat="40.072842" lon="-105.230575">
  <ele>1586.09</ele>
  <time>2026-08-28T19:10:02Z</time>
  <course>17.49</course>
  <speed>0.0</speed>
  <fix>3d</fix>
</trkpt>
<trkpt lat="40.072842" lon="-105.230575">
  <ele>1586.09</ele>
  <time>2026-08-28T19:10:02Z</time>
  <course>8.06</course>
  <speed>0.0</speed>
  <fix>3d</fix>
</trkpt>
<trkpt lat="40.072842" lon="-105.230575">
  <ele>1586.09</ele>
  <time>2026-08-28T19:10:02Z</time>
  <course>356.19</course>
  <speed>0.0</speed>
  <fix>3d</fix>
</trkpt>
<trkpt lat="40.072842" lon="-105.230575">
  <ele>1586.09</ele>
  <time>2026-08-28T19:10:02Z</time>
  <course>8.41</course>
  <speed>0.0</speed>
  <fix>3d</fix>
</trkpt>
<trkpt lat="40.072842" lon="-105.230575">
  <ele>1586.09</ele>
  <time>2026-08-28T19:10:02Z</time>
  <course>77.32</course>
  <speed>0.0</speed>
  <fix>3d</fix>
</trkpt>
<trkpt lat="40.072842" lon="-105.230575">
  <ele>1586.09</ele>
  <time>2026-08-28T19:10:02Z</time>
  <course>8.74</course>
  <speed>0.0</speed>
  <fix>3d</fix>
</trkpt>
<trkpt lat="40.072842" lon="-105.230575">
  <ele>1586.09</ele>
  <time>2026-08-28T19:10:02Z</time>
  <course>290.54</course>
  <speed>0.0</speed>
  <fix>3d</fix>
</trkpt>
<trkpt lat="40.072842" lon="-105.230575">
  <ele>1586.09</ele>
  <time>2026-08-28T19:10:02Z</time>
  <course>9.04</course>
  <speed>0.0</speed>
  <fix>3d</fix>
</trkpt>
<trkpt lat="40.072842" lon="-105.230575">
  <ele>1586.09</ele>
  <time>2026-08-28T19:10:02Z</time>
  <course>338.69</course>
  <speed>0.0</speed>
  <fix>3d</fix>
</trkpt>
<trkpt lat="40.072842" lon="-105.230575">
  <ele>1586.09</ele>
  <time>2026-08-28T19:10:02Z</time>
  <course>9.32</course>
  <speed>0.0</speed>
  <fix>3d</fix>
</trkpt>
<trkpt lat="40.072842" lon="-105.230575">
  <ele>1586.09</ele>
  <time>2026-08-28T19:10:02Z</time>
  <course>326.81</course>
  <speed>0.0</speed>
  <fix>3d</fix>
</trkpt>
<trkpt lat="40.072842" lon="-105.230575">
  <ele>1586.09</ele>
  <time>2026-08-28T19:10:02Z</time>
  <course>9.58</course>
  <speed>0.0</speed>
  <fix>3d</fix>
</trkpt>
<trkpt lat="40.072842" lon="-105.230575">
  <ele>1586.09</ele>
  <time>2026-08-28T19:10:02Z</time>
  <course>262.23</course>
  <speed>0.0</speed>
  <fix>3d</fix>
</trkpt>
<trkpt lat="40.072842" lon="-105.230575">
  <ele>1586.09</ele>
  <time>2026-08-28T19:10:02Z</time>
  <course>9.81</course>
  <speed>0.0</speed>
  <fix>3d</fix>
</trkpt>
<trkpt lat="40.072842" lon="-105.230575">
  <ele>1586.09</ele>
  <time>2026-08-28T19:10:02Z</time>
  <course>159.08</course>
  <speed>0.0</speed>
  <fix>3d</fix>
</trkpt>
<trkpt lat="40.072842" lon="-105.230575">
  <ele>1586.09</ele>
  <time>2026-08-28T19:10:02Z</time>
  <course>10.03</course>
  <speed>0.0</speed>
  <fix>3d</fix>
</trkpt>
<trkpt lat="40.072842" lon="-105.230575">
  <ele>1586.09</ele>
  <time>2026-08-28T19:10:02Z</time>
  <course>287.98</course>
  <speed>0.0</speed>
  <fix>3d</fix>
</trkpt>
<trkpt lat="40.072842" lon="-105.230575">
  <ele>1586.09</ele>
  <time>2026-08-28T19:10:02Z</time>
  <course>10.23</course>
  <speed>0.0</speed>
  <fix>3d</fix>
</trkpt>
<trkpt lat="40.072842" lon="-105.230575">
  <ele>1586.09</ele>
  <time>2026-08-28T19:10:02Z</time>
  <course>278.3</course>
  <speed>0.0</speed>
  <fix>3d</fix>
</trkpt>
<trkpt lat="40.072842" lon="-105.230575">
  <ele>1586.09</ele>
  <time>2026-08-28T19:10:02Z</time>
  <course>10.41</course>
  <speed>0.0</speed>
  <fix>3d</fix>
</trkpt>
<trkpt lat="40.072842" lon="-105.230575">
  <ele>1586.09</ele>
  <time>2026-08-28T19:10:02Z</time>
  <course>261.72</course>
  <speed>0.0</speed>
  <fix>3d</fix>
</trkpt>
<trkpt lat="40.072842" lon="-105.230575">
  <ele>1586.09</ele>
  <time>2026-08-28T19:10:02Z</time>
  <course>10.57</course>
  <speed>0.0</speed>
  <fix>3d</fix>
</trkpt>
<trkpt lat="40.072842" lon="-105.230575">
  <ele>1586.09</ele>
  <time>2026-08-28T19:10:02Z</time>
  <course>264.4</course>
  <speed>0.0</speed>
  <fix>3d</fix>
</trkpt>
<trkpt lat="40.072842" lon="-105.230575">
  <ele>1586.09</ele>
  <time>2026-08-28T19:10:02Z</time>
  <course>10.73</course>
  <speed>0.0</speed>
  <fix>3d</fix>
</trkpt>
<trkpt lat="40.072842" lon="-105.230575">
  <ele>1586.09</ele>
  <time>2026-08-28T19:10:02Z</time>
  <course>266.8</course>
  <speed>0.0</speed>
  <fix>3d</fix>
</trkpt>
<trkpt lat="40.072842" lon="-105.230575">
  <ele>1586.09</ele>
  <time>2026-08-28T19:10:02Z</time>
  <course>10.86</course>
  <speed>0.0</speed>
  <fix>3d</fix>
</trkpt>
<trkpt lat="40.072842" lon="-105.230575">
  <ele>1586.09</ele>
  <time>2026-08-28T19:10:02Z</time>
  <course>266.15</course>
  <speed>0.0</speed>
  <fix>3d</fix>
</trkpt>
<trkpt lat="40.072842" lon="-105.230575">
  <ele>1586.09</ele>
  <time>2026-08-28T19:10:02Z</time>
  <course>10.99</course>
  <speed>0.0</speed>
  <fix>3d</fix>
</trkpt>
<trkpt lat="40.072842" lon="-105.230575">
  <ele>1586.09</ele>
  <time>2026-08-28T19:10:02Z</time>
  <course>265.92</course>
  <speed>0.0</speed>
  <fix>3d</fix>
</trkpt>
<trkpt lat="40.072842" lon="-105.230575">
  <ele>1586.09</ele>
  <time>2026-08-28T19:10:02Z</time>
  <course>11.11</course>
  <speed>0.0</speed>
  <fix>3d</fix>
</trkpt>
<trkpt lat="40.072842" lon="-105.230575">
  <ele>1586.09</ele>
  <time>2026-08-28T19:10:02Z</time>
  <course>266.03</course>
  <speed>0.0</speed>
  <fix>3d</fix>
</trkpt>
<trkpt lat="40.072842" lon="-105.230575">
  <ele>1586.09</ele>
  <time>2026-08-28T19:10:02Z</time>
  <course>11.22</course>
  <speed>0.0</speed>
  <fix>3d</fix>
</trkpt>
<trkpt lat="40.072842" lon="-105.230575">
  <ele>1586.09</ele>
  <time>2026-08-28T19:10:02Z</time>
  <course>266.05</course>
  <speed>0.0</speed>
  <fix>3d</fix>
</trkpt>
<trkpt lat="40.072842" lon="-105.230575">
  <ele>1586.09</ele>
  <time>2026-08-28T19:10:02Z</time>
  <course>11.31</course>
  <speed>0.0</speed>
  <fix>3d</fix>
</trkpt>
<trkpt lat="40.072842" lon="-105.230575">
  <ele>1586.09</ele>
  <time>2026-08-28T19:10:02Z</time>
  <course>266.03</course>
  <speed>0.0</speed>
  <fix>3d</fix>
</trkpt>
<trkpt lat="40.072842" lon="-105.230575">
  <ele>1586.09</ele>
  <time>2026-08-28T19:10:02Z</time>
  <course>11.4</course>
  <speed>0.0</speed>
  <fix>3d</fix>
</trkpt>
<trkpt lat="40.072842" lon="-105.230575">
  <ele>1586.09</ele>
  <time>2026-08-28T19:10:02Z</time>
  <course>266.03</course>
  <speed>0.0</speed>
  <fix>3d</fix>
</trkpt>
<trkpt lat="40.072842" lon="-105.230575">
  <ele>1586.09</ele>
  <time>2026-08-28T19:10:02Z</time>
  <course>11.48</course>
  <speed>0.0</speed>
  <fix>3d</fix>
</trkpt>
<trkpt lat="40.072842" lon="-105.230575">
  <ele>1586.09</ele>
  <time>2026-08-28T19:10:02Z</time>
  <course>266.03</course>
  <speed>0.0</speed>
  <fix>3d</fix>
</trkpt>
<trkpt lat="40.072842" lon="-105.230575">
  <ele>1586.09</ele>
  <time>2026-08-28T19:10:02Z</time>
  <course>11.55</course>
  <speed>0.0</speed>
  <fix>3d</fix>
</trkpt>
<trkpt lat="40.072842" lon="-105.230575">
  <ele>1586.09</ele>
  <time>2026-08-28T19:10:02Z</time>
  <course>266.03</course>
  <speed>0.0</speed>
  <fix>3d</fix>
</trkpt>
<trkpt lat="40.072842" lon="-105.230575">
  <ele>1586.09</ele>
  <time>2026-08-28T19:10:02Z</time>
  <course>11.62</course>
  <speed>0.0</speed>
  <fix>3d</fix>
</trkpt>
<trkpt lat="40.072842" lon="-105.230575">
  <ele>1586.09</ele>
  <time>2026-08-28T19:10:02Z</time>
  <course>266.03</course>
  <speed>0.0</speed>
  <fix>3d</fix>
</trkpt>
<trkpt lat="40.072842" lon="-105.230575">
  <ele>1586.09</ele>
  <time>2026-08-28T19:10:02Z</time>
  <course>11.68</course>
  <speed>0.0</speed>
  <fix>3d</fix>
</trkpt>
<trkpt lat="40.072842" lon="-105.230575">
  <ele>1586.09</ele>
  <time>2026-08-28T19:10:02Z</time>
  <course>266.03</course>
  <speed>0.0</speed>
  <fix>3d</fix>
</trkpt>
<trkpt lat="40.072842" lon="-105.230575">
  <ele>1586.09</ele>
  <time>2026-08-28T19:10:02Z</time>
  <course>11.73</course>
  <speed>0.0</speed>
  <fix>3d</fix>
</trkpt>
<trkpt lat="40.072842" lon="-105.230575">
  <ele>1586.09</ele>
  <time>2026-08-28T19:10:02Z</time>
  <course>266.03</course>
  <speed>0.0</speed>
  <fix>3d</fix>
</trkpt>
<trkpt lat="40.072842" lon="-105.230575">
  <ele>1586.09</ele>
  <time>2026-08-28T19:10:02Z</time>
  <course>11.78</course>
  <speed>0.0</speed>
  <fix>3d</fix>
</trkpt>
<trkpt lat="40.072842" lon="-105.230575">
  <ele>1586.09</ele>
  <time>2026-08-28T19:10:02Z</time>
  <course>266.03</course>
  <speed>0.0</speed>
  <fix>3d</fix>
</trkpt>
<trkpt lat="40.072842" lon="-105.230575">
  <ele>1586.09</ele>
  <time>2026-08-28T19:10:02Z</time>
  <course>11.82</course>
  <speed>0.0</speed>
  <fix>3d</fix>
</trkpt>
<trkpt lat="40.072842" lon="-105.230575">
  <ele>1586.09</ele>
  <time>2026-08-28T19:10:02Z</time>
  <course>266.03</course>
  <speed>0.0</speed>
  <fix>3d</fix>
</trkpt>
<trkpt lat="40.072842" lon="-105.230575">
  <ele>1586.09</ele>
  <time>2026-08-28T19:10:02Z</time>
  <course>11.86</course>
  <speed>0.0</speed>
  <fix>3d</fix>
</trkpt>
<trkpt lat="40.072842" lon="-105.230575">
  <ele>1586.09</ele>
  <time>2026-08-28T19:10:02Z</time>
  <course>266.03</course>
  <speed>0.0</speed>
  <fix>3d</fix>
</trkpt>
<trkpt lat="40.072842" lon="-105.230575">
  <ele>1586.09</ele>
  <time>2026-08-28T19:10:02Z</time>
  <course>11.9</course>
  <speed>0.0</speed>
  <fix>3d</fix>
</trkpt>
<trkpt lat="40.072842" lon="-105.230575">
  <ele>1586.09</ele>
  <time>2026-08-28T19:10:02Z</time>
  <course>266.03</course>
  <speed>0.0</speed>
  <fix>3d</fix>
</trkpt>
<trkpt lat="40.072842" lon="-105.230575">
  <ele>1586.09</ele>
  <time>2026-08-28T19:10:02Z</time>
  <course>11.93</course>
  <speed>0.0</speed>
  <fix>3d</fix>
</trkpt>
<trkpt lat="40.072842" lon="-105.230575">
  <ele>1586.09</ele>
  <time>2026-08-28T19:10:02Z</time>
  <course>266.03</course>
  <speed>0.0</speed>
  <fix>3d</fix>
</trkpt>
<trkpt lat="40.072842" lon="-105.230575">
  <ele>1586.09</ele>
  <time>2026-08-28T19:10:02Z</time>
  <course>11.96</course>
  <speed>0.0</speed>
  <fix>3d</fix>
</trkpt>
<trkpt lat="40.072842" lon="-105.230575">
  <ele>1586.09</ele>
  <time>2026-08-28T19:10:02Z</time>
  <course>266.03</course>
  <speed>0.0</speed>
  <fix>3d</fix>
</trkpt>
<trkpt lat="40.072842" lon="-105.230575">
  <ele>1586.09</ele>
  <time>2026-08-28T19:10:02Z</time>
  <course>11.98</course>
  <speed>0.0</speed>
  <fix>3d</fix>
</trkpt>
<trkpt lat="40.072842" lon="-105.230575">
  <ele>1586.09</ele>
  <time>2026-08-28T19:10:02Z</time>
  <course>266.03</course>
  <speed>0.0</speed>
  <fix>3d</fix>
</trkpt>
<trkpt lat="40.072842" lon="-105.230575">
  <ele>1586.09</ele>
  <time>2026-08-28T19:10:02Z</time>
  <course>12.01</course>
  <speed>0.0</speed>
  <fix>3d</fix>
</trkpt>
<trkpt lat="40.072842" lon="-105.230575">
  <ele>1586.09</ele>
  <time>2026-08-28T19:10:02Z</time>
  <course>266.03</course>
  <speed>0.0</speed>
  <fix>3d</fix>
</trkpt>
<trkpt lat="40.072842" lon="-105.230575">
  <ele>1586.09</ele>
  <time>2026-08-28T19:10:02Z</time>
  <course>12.03</course>
  <speed>0.0</speed>
  <fix>3d</fix>
</trkpt>
<trkpt lat="40.072842" lon="-105.230575">
  <ele>1586.09</ele>
  <time>2026-08-28T19:10:02Z</time>
  <course>266.03</course>
  <speed>0.0</speed>
  <fix>3d</fix>
</trkpt>
<trkpt lat="40.072842" lon="-105.230575">
  <ele>1586.09</ele>
  <time>2026-08-28T19:10:02Z</time>
  <course>12.04</course>
  <speed>0.0</speed>
  <fix>3d</fix>
</trkpt>
<trkpt lat="40.072842" lon="-105.230575">
  <ele>1586.09</ele>
  <time>2026-08-28T19:10:02Z</time>
  <course>266.03</course>
  <speed>0.0</speed>
  <fix>3d</fix>
</trkpt>
<trkpt lat="40.072842" lon="-105.230575">
  <ele>1586.09</ele>
  <time>2026-08-28T19:10:02Z</time>
  <course>12.06</course>
  <speed>0.0</speed>
  <fix>3d</fix>
</trkpt>
<trkpt lat="40.072842" lon="-105.230575">
  <ele>1586.09</ele>
  <time>2026-08-28T19:10:02Z</time>
  <course>266.03</course>
  <speed>0.0</speed>
  <fix>3d</fix>
</trkpt>
<trkpt lat="40.072842" lon="-105.230575">
  <ele>1586.09</ele>
  <time>2026-08-28T19:10:02Z</time>
  <course>12.07</course>
  <speed>0.0</speed>
  <fix>3d</fix>
</trkpt>
<trkpt lat="40.072842" lon="-105.230575">
  <ele>1586.09</ele>
  <time>2026-08-28T19:10:02Z</time>
  <course>266.03</course>
  <speed>0.0</speed>
  <fix>3d</fix>
</trkpt>
<trkpt lat="40.072842" lon="-105.230575">
  <ele>1586.09</ele>
  <time>2026-08-28T19:10:02Z</time>
  <course>12.08</course>
  <speed>0.0</speed>
  <fix>3d</fix>
</trkpt>
<trkpt lat="40.072842" lon="-105.230575">
  <ele>1586.09</ele>
  <time>2026-08-28T19:10:02Z</time>
  <course>266.03</course>
  <speed>0.0</speed>
  <fix>3d</fix>
</trkpt>
<trkpt lat="40.072842" lon="-105.230575">
  <ele>1586.09</ele>
  <time>2026-08-28T19:10:02Z</time>
  <course>12.09</course>
  <speed>0.0</speed>
  <fix>3d</fix>
</trkpt>
<trkpt lat="40.072842" lon="-105.230575">
  <ele>1586.09</ele>
  <time>2026-08-28T19:10:02Z</time>
  <course>266.03</course>
  <speed>0.0</speed>
  <fix>3d</fix>
</trkpt>
<trkpt lat="40.072842" lon="-105.230575">
  <ele>1586.09</ele>
  <time>2026-08-28T19:10:02Z</time>
  <course>12.1</course>
  <speed>0.0</speed>
  <fix>3d</fix>
</trkpt>
<trkpt lat="40.072842" lon="-105.230575">
  <ele>1586.09</ele>
  <time>2026-08-28T19:10:02Z</time>
  <course>266.03</course>
  <speed>0.0</speed>
  <fix>3d</fix>
</trkpt>
<trkpt lat="40.072842" lon="-105.230575">
  <ele>1586.09</ele>
  <time>2026-08-28T19:10:02Z</time>
  <course>12.11</course>
  <speed>0.0</speed>
  <fix>3d</fix>
</trkpt>
<trkpt lat="40.072842" lon="-105.230575">
  <ele>1586.09</ele>
  <time>2026-08-28T19:10:02Z</time>
  <course>266.03</course>
  <speed>0.0</speed>
  <fix>3d</fix>
</trkpt>
<trkpt lat="40.072842" lon="-105.230575">
  <ele>1586.09</ele>
  <time>2026-08-28T19:10:02Z</time>
  <course>12.12</course>
  <speed>0.0</speed>
  <fix>3d</fix>
</trkpt>
<trkpt lat="40.072842" lon="-105.230575">
  <ele>1586.09</ele>
  <time>2026-08-28T19:10:02Z</time>
  <course>266.03</course>
  <speed>0.0</speed>
  <fix>3d</fix>
</trkpt>
<trkpt lat="40.072842" lon="-105.230575">
  <ele>1586.09</ele>
  <time>2026-08-28T19:10:02Z</time>
  <course>12.12</course>
  <speed>0.0</speed>
  <fix>3d</fix>
</trkpt>
<trkpt lat="40.072842" lon="-105.230575">
  <ele>1586.09</ele>
  <time>2026-08-28T19:10:02Z</time>
  <course>266.03</course>
  <speed>0.0</speed>
  <fix>3d</fix>
</trkpt>
<trkpt lat="40.072842" lon="-105.230575">
  <ele>1586.09</ele>
  <time>2026-08-28T19:10:02Z</time>
  <course>12.12</course>
  <speed>0.0</speed>
  <fix>3d</fix>
</trkpt>
<trkpt lat="40.072842" lon="-105.230575">
  <ele>1586.09</ele>
  <time>2026-08-28T19:10:02Z</time>
  <course>266.03</course>
  <speed>0.0</speed>
  <fix>3d</fix>
</trkpt>
<trkpt lat="40.072842" lon="-105.230575">
  <ele>1586.09</ele>
  <time>2026-08-28T19:10:02Z</time>
  <course>12.13</course>
  <speed>0.0</speed>
  <fix>3d</fix>
</trkpt>
<trkpt lat="40.072842" lon="-105.230575">
  <ele>1586.09</ele>
  <time>2026-08-28T19:10:02Z</time>
  <course>266.03</course>
  <speed>0.0</speed>
  <fix>3d</fix>
</trkpt>
<trkpt lat="40.072842" lon="-105.230575">
  <ele>1586.09</ele>
  <time>2026-08-28T19:10:02Z</time>
  <course>12.13</course>
  <speed>0.0</speed>
  <fix>3d</fix>
</trkpt>
<trkpt lat="40.072842" lon="-105.230575">
  <ele>1586.09</ele>
  <time>2026-08-28T19:10:02Z</time>
  <course>266.03</course>
  <speed>0.0</speed>
  <fix>3d</fix>
</trkpt>
<trkpt lat="40.072842" lon="-105.230575">
  <ele>1586.09</ele>
  <time>2026-08-28T19:10:02Z</time>
  <course>12.13</course>
  <speed>0.0</speed>
  <fix>3d</fix>
</trkpt>
<trkpt lat="40.072842" lon="-105.230575">
  <ele>1586.09</ele>
  <time>2026-08-28T19:10:02Z</time>
  <course>266.03</course>
  <speed>0.0</speed>
  <fix>3d</fix>
</trkpt>
<trkpt lat="40.072842" lon="-105.230575">
  <ele>1586.09</ele>
  <time>2026-08-28T19:10:02Z</time>
  <course>12.13</course>
  <speed>0.0</speed>
  <fix>3d</fix>
</trkpt>
<trkpt lat="40.072842" lon="-105.230575">
  <ele>1586.09</ele>
  <time>2026-08-28T19:10:02Z</time>
  <course>266.03</course>
  <speed>0.0</speed>
  <fix>3d</fix>
</trkpt>
<trkpt lat="40.072842" lon="-105.230575">
  <ele>1586.09</ele>
  <time>2026-08-28T19:10:02Z</time>
  <course>12.12</course>
  <speed>0.01</speed>
  <fix>3d</fix>
</trkpt>
<trkpt lat="40.072842" lon="-105.230575">
  <ele>1586.09</ele>
  <time>2026-08-28T19:10:02Z</time>
  <course>266.03</course>
  <speed>0.0</speed>
  <fix>3d</fix>
</trkpt>
<trkpt lat="40.072842" lon="-105.230575">
  <ele>1586.09</ele>
  <time>2026-08-28T19:10:02Z</time>
  <course>12.12</course>
  <speed>0.01</speed>
  <fix>3d</fix>
</trkpt>
<trkpt lat="40.072842" lon="-105.230575">
  <ele>1586.09</ele>
  <time>2026-08-28T19:10:02Z</time>
  <course>266.03</course>
  <speed>0.0</speed>
  <fix>3d</fix>
</trkpt>
<trkpt lat="40.072842" lon="-105.230575">
  <ele>1586.09</ele>
  <time>2026-08-28T19:10:02Z</time>
  <course>12.12</course>
  <speed>0.01</speed>
  <fix>3d</fix>
</trkpt>
<trkpt lat="40.072842" lon="-105.230575">
  <ele>1586.09</ele>
  <time>2026-08-28T19:10:02Z</time>
  <course>266.03</course>
  <speed>0.0</speed>
  <fix>3d</fix>
</trkpt>
<trkpt lat="40.072842" lon="-105.230575">
  <ele>1586.09</ele>
  <time>2026-08-28T19:10:02Z</time>
  <course>12.12</course>
  <speed>0.01</speed>
  <fix>3d</fix>
</trkpt>
<trkpt lat="40.072842" lon="-105.230575">
  <ele>1586.09</ele>
  <time>2026-08-28T19:10:02Z</time>
  <course>266.03</course>
  <speed>0.0</speed>
  <fix>3d</fix>
</trkpt>
<trkpt lat="40.072842" lon="-105.230575">
  <ele>1586.09</ele>
  <time>2026-08-28T19:10:02Z</time>
  <course>12.11</course>
  <speed>0.01</speed>
  <fix>3d</fix>
</trkpt>
<trkpt lat="40.072842" lon="-105.230575">
  <ele>1586.09</ele>
  <time>2026-08-28T19:10:02Z</time>
  <course>266.03</course>
  <speed>0.0</speed>
  <fix>3d</fix>
</trkpt>
<trkpt lat="40.072842" lon="-105.230575">
  <ele>1586.09</ele>
  <time>2026-08-28T19:10:02Z</time>
  <course>12.11</course>
  <speed>0.01</speed>
  <fix>3d</fix>
</trkpt>
<trkpt lat="40.072842" lon="-105.230575">
  <ele>1586.09</ele>
  <time>2026-08-28T19:10:02Z</time>
  <course>266.03</course>
  <speed>0.0</speed>
  <fix>3d</fix>
</trkpt>
<trkpt lat="40.072842" lon="-105.230575">
  <ele>1586.09</ele>
  <time>2026-08-28T19:10:02Z</time>
  <course>12.1</course>
  <speed>0.01</speed>
  <fix>3d</fix>
</trkpt>
<trkpt lat="40.072842" lon="-105.230575">
  <ele>1586.09</ele>
  <time>2026-08-28T19:10:02Z</time>
  <course>266.03</course>
  <speed>0.0</speed>
  <fix>3d</fix>
</trkpt>
<trkpt lat="40.072842" lon="-105.230575">
  <ele>1586.09</ele>
  <time>2026-08-28T19:10:02Z</time>
  <course>12.1</course>
  <speed>0.01</speed>
  <fix>3d</fix>
</trkpt>
<trkpt lat="40.072842" lon="-105.230575">
  <ele>1586.09</ele>
  <time>2026-08-28T19:10:02Z</time>
  <course>266.03</course>
  <speed>0.0</speed>
  <fix>3d</fix>
</trkpt>
<trkpt lat="40.072842" lon="-105.230575">
  <ele>1586.09</ele>
  <time>2026-08-28T19:10:02Z</time>
  <course>12.09</course>
  <speed>0.01</speed>
  <fix>3d</fix>
</trkpt>
<trkpt lat="40.072842" lon="-105.230575">
  <ele>1586.09</ele>
  <time>2026-08-28T19:10:02Z</time>
  <course>266.03</course>
  <speed>0.0</speed>
  <fix>3d</fix>
</trkpt>
<trkpt lat="40.072842" lon="-105.230575">
  <ele>1586.09</ele>
  <time>2026-08-28T19:10:02Z</time>
  <course>12.09</course>
  <speed>0.01</speed>
  <fix>3d</fix>
</trkpt>
<trkpt lat="40.072842" lon="-105.230575">
  <ele>1586.09</ele>
  <time>2026-08-28T19:10:02Z</time>
  <course>266.03</course>
  <speed>0.0</speed>
  <fix>3d</fix>
</trkpt>
<trkpt lat="40.072842" lon="-105.230575">
  <ele>1586.09</ele>
  <time>2026-08-28T19:10:02Z</time>
  <course>12.08</course>
  <speed>0.01414213562373095</speed>
  <fix>3d</fix>
</trkpt>
<trkpt lat="40.072842" lon="-105.230575">
  <ele>1586.09</ele>
  <time>2026-08-28T19:10:02Z</time>
  <course>266.03</course>
  <speed>0.0</speed>
  <fix>3d</fix>
</trkpt>
<trkpt lat="40.072842" lon="-105.230575">
  <ele>1586.09</ele>
  <time>2026-08-28T19:10:02Z</time>
  <course>12.07</course>
  <speed>0.01414213562373095</speed>
  <fix>3d</fix>
</trkpt>
<trkpt lat="40.072842" lon="-105.230575">
  <ele>1586.09</ele>
  <time>2026-08-28T19:10:02Z</time>
  <course>266.03</course>
  <speed>0.0</speed>
  <fix>3d</fix>
</trkpt>
<trkpt lat="40.072842" lon="-105.230575">
  <ele>1586.09</ele>
  <time>2026-08-28T19:10:02Z</time>
  <course>12.07</course>
  <speed>0.01414213562373095</speed>
  <fix>3d</fix>
</trkpt>
<trkpt lat="40.072842" lon="-105.230575">
  <ele>1586.09</ele>
  <time>2026-08-28T19:10:02Z</time>
  <course>266.03</course>
  <speed>0.0</speed>
  <fix>3d</fix>
</trkpt>
<trkpt lat="40.072842" lon="-105.230575">
  <ele>1586.09</ele>
  <time>2026-08-28T19:10:02Z</time>
  <course>12.06</course>
  <speed>0.01414213562373095</speed>
  <fix>3d</fix>
</trkpt>
<trkpt lat="40.072842" lon="-105.230575">
  <ele>1586.09</ele>
  <time>2026-08-28T19:10:02Z</time>
  <course>266.03</course>
  <speed>0.0</speed>
  <fix>3d</fix>
</trkpt>
<trkpt lat="40.072842" lon="-105.230575">
  <ele>1586.09</ele>
  <time>2026-08-28T19:10:02Z</time>
  <course>12.05</course>
  <speed>0.01414213562373095</speed>
  <fix>3d</fix>
</trkpt>
<trkpt lat="40.072842" lon="-105.230575">
  <ele>1586.09</ele>
  <time>2026-08-28T19:10:02Z</time>
  <course>266.03</course>
  <speed>0.0</speed>
  <fix>3d</fix>
</trkpt>
<trkpt lat="40.072842" lon="-105.230575">
  <ele>1586.09</ele>
  <time>2026-08-28T19:10:02Z</time>
  <course>12.05</course>
  <speed>0.01414213562373095</speed>
  <fix>3d</fix>
</trkpt>
<trkpt lat="40.072842" lon="-105.230575">
  <ele>1586.09</ele>
  <time>2026-08-28T19:10:02Z</time>
  <course>266.03</course>
  <speed>0.0</speed>
  <fix>3d</fix>
</trkpt>
<trkpt lat="40.072842" lon="-105.230575">
  <ele>1586.09</ele>
  <time>2026-08-28T19:10:02Z</time>
  <course>12.04</course>
  <speed>0.01414213562373095</speed>
  <fix>3d</fix>
</trkpt>
<trkpt lat="40.072842" lon="-105.230575">
  <ele>1586.09</ele>
  <time>2026-08-28T19:10:02Z</time>
  <course>266.03</course>
  <speed>0.0</speed>
  <fix>3d</fix>
</trkpt>
<trkpt lat="40.072842" lon="-105.230575">
  <ele>1586.09</ele>
  <time>2026-08-28T19:10:02Z</time>
  <course>12.03</course>
  <speed>0.01414213562373095</speed>
  <fix>3d</fix>
</trkpt>
<trkpt lat="40.072842" lon="-105.230575">
  <ele>1586.09</ele>
  <time>2026-08-28T19:10:02Z</time>
  <course>266.03</course>
  <speed>0.0</speed>
  <fix>3d</fix>
</trkpt>
<trkpt lat="40.072842" lon="-105.230575">
  <ele>1586.09</ele>
  <time>2026-08-28T19:10:02Z</time>
  <course>12.02</course>
  <speed>0.01414213562373095</speed>
  <fix>3d</fix>
</trkpt>
<trkpt lat="40.072842" lon="-105.230575">
  <ele>1586.09</ele>
  <time>2026-08-28T19:10:02Z</time>
  <course>266.03</course>
  <speed>0.0</speed>
  <fix>3d</fix>
</trkpt>
<trkpt lat="40.072842" lon="-105.230575">
  <ele>1586.09</ele>
  <time>2026-08-28T19:10:02Z</time>
  <course>12.02</course>
  <speed>0.01414213562373095</speed>
  <fix>3d</fix>
</trkpt>
<trkpt lat="40.072842" lon="-105.230575">
  <ele>1586.09</ele>
  <time>2026-08-28T19:10:02Z</time>
  <course>266.03</course>
  <speed>0.0</speed>
  <fix>3d</fix>
</trkpt>
<trkpt lat="40.072842" lon="-105.230575">
  <ele>1586.09</ele>
  <time>2026-08-28T19:10:02Z</time>
  <course>12.01</course>
  <speed>0.01414213562373095</speed>
  <fix>3d</fix>
</trkpt>
<trkpt lat="40.072842" lon="-105.230575">
  <ele>1586.09</ele>
  <time>2026-08-28T19:10:02Z</time>
  <course>266.03</course>
  <speed>0.0</speed>
  <fix>3d</fix>
</trkpt>
<trkpt lat="40.072842" lon="-105.230575">
  <ele>1586.09</ele>
  <time>2026-08-28T19:10:02Z</time>
  <course>12.01</course>
  <speed>0.01414213562373095</speed>
  <fix>3d</fix>
</trkpt>
<trkpt lat="40.072842" lon="-105.230575">
  <ele>1586.09</ele>
  <time>2026-08-28T19:10:02Z</time>
  <course>266.03</course>
  <speed>0.0</speed>
  <fix>3d</fix>
</trkpt>
<trkpt lat="40.072842" lon="-105.230575">
  <ele>1586.09</ele>
  <time>2026-08-28T19:10:02Z</time>
  <course>12.0</course>
  <speed>0.01414213562373095</speed>
  <fix>3d</fix>
</trkpt>
<trkpt lat="40.072842" lon="-105.230575">
  <ele>1586.09</ele>
  <time>2026-08-28T19:10:02Z</time>
  <course>266.03</course>
  <speed>0.0</speed>
  <fix>3d</fix>
</trkpt>
<trkpt lat="40.072842" lon="-105.230575">
  <ele>1586.09</ele>
  <time>2026-08-28T19:10:02Z</time>
  <course>11.99</course>
  <speed>0.01414213562373095</speed>
  <fix>3d</fix>
</trkpt>
<trkpt lat="40.072842" lon="-105.230575">
  <ele>1586.09</ele>
  <time>2026-08-28T19:10:02Z</time>
  <course>266.03</course>
  <speed>0.0</speed>
  <fix>3d</fix>
</trkpt>
<trkpt lat="40.072842" lon="-105.230575">
  <ele>1586.09</ele>
  <time>2026-08-28T19:10:02Z</time>
  <course>11.98</course>
  <speed>0.01414213562373095</speed>
  <fix>3d</fix>
</trkpt>
<trkpt lat="40.072842" lon="-105.230575">
  <ele>1586.09</ele>
  <time>2026-08-28T19:10:02Z</time>
  <course>266.03</course>
  <speed>0.0</speed>
  <fix>3d</fix>
</trkpt>
<trkpt lat="40.072842" lon="-105.230575">
  <ele>1586.09</ele>
  <time>2026-08-28T19:10:02Z</time>
  <course>11.97</course>
  <speed>0.01414213562373095</speed>
  <fix>3d</fix>
</trkpt>
<trkpt lat="40.072842" lon="-105.230575">
  <ele>1586.09</ele>
  <time>2026-08-28T19:10:02Z</time>
  <course>266.03</course>
  <speed>0.0</speed>
  <fix>3d</fix>
</trkpt>
<trkpt lat="40.072842" lon="-105.230575">
  <ele>1586.09</ele>
  <time>2026-08-28T19:10:02Z</time>
  <course>11.96</course>
  <speed>0.022360679774997897</speed>
  <fix>3d</fix>
</trkpt>
<trkpt lat="40.072842" lon="-105.230575">
  <ele>1586.09</ele>
  <time>2026-08-28T19:10:02Z</time>
  <course>266.03</course>
  <speed>0.0</speed>
  <fix>3d</fix>
</trkpt>
<trkpt lat="40.072842" lon="-105.230575">
  <ele>1586.09</ele>
  <time>2026-08-28T19:10:02Z</time>
  <course>11.96</course>
  <speed>0.022360679774997897</speed>
  <fix>3d</fix>
</trkpt>
<trkpt lat="40.072842" lon="-105.230575">
  <ele>1586.09</ele>
  <time>2026-08-28T19:10:02Z</time>
  <course>266.03</course>
  <speed>0.0</speed>
  <fix>3d</fix>
</trkpt>
<trkpt lat="40.072842" lon="-105.230575">
  <ele>1586.09</ele>
  <time>2026-08-28T19:10:02Z</time>
  <course>11.95</course>
  <speed>0.022360679774997897</speed>
  <fix>3d</fix>
</trkpt>
<trkpt lat="40.072842" lon="-105.230575">
  <ele>1586.09</ele>
  <time>2026-08-28T19:10:02Z</time>
  <course>266.03</course>
  <speed>0.0</speed>
  <fix>3d</fix>
</trkpt>
<trkpt lat="40.072842" lon="-105.230575">
  <ele>1586.09</ele>
  <time>2026-08-28T19:10:02Z</time>
  <course>11.94</course>
  <speed>0.022360679774997897</speed>
  <fix>3d</fix>
</trkpt>
<trkpt lat="40.072842" lon="-105.230575">
  <ele>1586.09</ele>
  <time>2026-08-28T19:10:02Z</time>
  <course>266.03</course>
  <speed>0.0</speed>
  <fix>3d</fix>
</trkpt>
<trkpt lat="40.072842" lon="-105.230575">
  <ele>1586.09</ele>
  <time>2026-08-28T19:10:02Z</time>
  <course>11.93</course>
  <speed>0.022360679774997897</speed>
  <fix>3d</fix>
</trkpt>
<trkpt lat="40.072842" lon="-105.230575">
  <ele>1586.09</ele>
  <time>2026-08-28T19:10:02Z</time>
  <course>266.03</course>
  <speed>0.0</speed>
  <fix>3d</fix>
</trkpt>
<trkpt lat="40.072842" lon="-105.230575">
  <ele>1586.09</ele>
  <time>2026-08-28T19:10:02Z</time>
  <course>11.92</course>
  <speed>0.022360679774997897</speed>
  <fix>3d</fix>
</trkpt>
<trkpt lat="40.072842" lon="-105.230575">
  <ele>1586.09</ele>
  <time>2026-08-28T19:10:02Z</time>
  <course>266.03</course>
  <speed>0.0</speed>
  <fix>3d</fix>
</trkpt>
<trkpt lat="40.072842" lon="-105.230575">
  <ele>1586.09</ele>
  <time>2026-08-28T19:10:02Z</time>
  <course>11.91</course>
  <speed>0.022360679774997897</speed>
  <fix>3d</fix>
</trkpt>
<trkpt lat="40.072842" lon="-105.230575">
  <ele>1586.09</ele>
  <time>2026-08-28T19:10:02Z</time>
  <course>266.03</course>
  <speed>0.0</speed>
  <fix>3d</fix>
</trkpt>
<trkpt lat="40.072842" lon="-105.230575">
  <ele>1586.09</ele>
  <time>2026-08-28T19:10:02Z</time>
  <course>11.91</course>
  <speed>0.022360679774997897</speed>
  <fix>3d</fix>
</trkpt>
<trkpt lat="40.072842" lon="-105.230575">
  <ele>1586.09</ele>
  <time>2026-08-28T19:10:02Z</time>
  <course>266.03</course>
  <speed>0.0</speed>
  <fix>3d</fix>
</trkpt>
<trkpt lat="40.072842" lon="-105.230575">
  <ele>1586.09</ele>
  <time>2026-08-28T19:10:02Z</time>
  <course>11.9</course>
  <speed>0.022360679774997897</speed>
  <fix>3d</fix>
</trkpt>
<trkpt lat="40.072842" lon="-105.230575">
  <ele>1586.09</ele>
  <time>2026-08-28T19:10:02Z</time>
  <course>266.03</course>
  <speed>0.0</speed>
  <fix>3d</fix>
</trkpt>
<trkpt lat="40.072842" lon="-105.230575">
  <ele>1586.09</ele>
  <time>2026-08-28T19:10:02Z</time>
  <course>11.89</course>
  <speed>0.022360679774997897</speed>
  <fix>3d</fix>
</trkpt>
<trkpt lat="40.072842" lon="-105.230575">
  <ele>1586.09</ele>
  <time>2026-08-28T19:10:02Z</time>
  <course>266.03</course>
  <speed>0.0</speed>
  <fix>3d</fix>
</trkpt>
<trkpt lat="40.072842" lon="-105.230575">
  <ele>1586.09</ele>
  <time>2026-08-28T19:10:02Z</time>
  <course>11.88</course>
  <speed>0.022360679774997897</speed>
  <fix>3d</fix>
</trkpt>
<trkpt lat="40.072842" lon="-105.230575">
  <ele>1586.09</ele>
  <time>2026-08-28T19:10:02Z</time>
  <course>266.03</course>
  <speed>0.0</speed>
  <fix>3d</fix>
</trkpt>
<trkpt lat="40.072842" lon="-105.230575">
  <ele>1586.09</ele>
  <time>2026-08-28T19:10:02Z</time>
  <course>11.87</course>
  <speed>0.022360679774997897</speed>
  <fix>3d</fix>
</trkpt>
<trkpt lat="40.072842" lon="-105.230575">
  <ele>1586.09</ele>
  <time>2026-08-28T19:10:02Z</time>
  <course>266.03</course>
  <speed>0.0</speed>
  <fix>3d</fix>
</trkpt>
<trkpt lat="40.072842" lon="-105.230575">
  <ele>1586.09</ele>
  <time>2026-08-28T19:10:02Z</time>
  <course>11.86</course>
  <speed>0.022360679774997897</speed>
  <fix>3d</fix>
</trkpt>
<trkpt lat="40.072842" lon="-105.230575">
  <ele>1586.09</ele>
  <time>2026-08-28T19:10:02Z</time>
  <course>266.03</course>
  <speed>0.0</speed>
  <fix>3d</fix>
</trkpt>
<trkpt lat="40.072842" lon="-105.230575">
  <ele>1586.09</ele>
  <time>2026-08-28T19:10:02Z</time>
  <course>11.86</course>
  <speed>0.022360679774997897</speed>
  <fix>3d</fix>
</trkpt>
<trkpt lat="40.072842" lon="-105.230575">
  <ele>1586.09</ele>
  <time>2026-08-28T19:10:02Z</time>
  <course>266.03</course>
  <speed>0.0</speed>
  <fix>3d</fix>
</trkpt>
<trkpt lat="40.072842" lon="-105.230575">
  <ele>1586.09</ele>
  <time>2026-08-28T19:10:02Z</time>
  <course>11.85</course>
  <speed>0.0282842712474619</speed>
  <fix>3d</fix>
</trkpt>
<trkpt lat="40.072842" lon="-105.230575">
  <ele>1586.09</ele>
  <time>2026-08-28T19:10:02Z</time>
  <course>266.03</course>
  <speed>0.0</speed>
  <fix>3d</fix>
</trkpt>
<trkpt lat="40.072842" lon="-105.230575">
  <ele>1586.09</ele>
  <time>2026-08-28T19:10:02Z</time>
  <course>11.84</course>
  <speed>0.0282842712474619</speed>
  <fix>3d</fix>
</trkpt>
<trkpt lat="40.072842" lon="-105.230575">
  <ele>1586.09</ele>
  <time>2026-08-28T19:10:02Z</time>
  <course>266.03</course>
  <speed>0.0</speed>
  <fix>3d</fix>
</trkpt>
<trkpt lat="40.072842" lon="-105.230575">
  <ele>1586.09</ele>
  <time>2026-08-28T19:10:02Z</time>
  <course>11.83</course>
  <speed>0.0282842712474619</speed>
  <fix>3d</fix>
</trkpt>
<trkpt lat="40.072842" lon="-105.230575">
  <ele>1586.09</ele>
  <time>2026-08-28T19:10:02Z</time>
  <course>266.03</course>
  <speed>0.0</speed>
  <fix>3d</fix>
</trkpt>
<trkpt lat="40.072842" lon="-105.230575">
  <ele>1586.09</ele>
  <time>2026-08-28T19:10:02Z</time>
  <course>11.82</course>
  <speed>0.0282842712474619</speed>
  <fix>3d</fix>
</trkpt>
<trkpt lat="40.072842" lon="-105.230575">
  <ele>1586.09</ele>
  <time>2026-08-28T19:10:02Z</time>
  <course>266.03</course>
  <speed>0.0</speed>
  <fix>3d</fix>
</trkpt>
<trkpt lat="40.072842" lon="-105.230575">
  <ele>1586.09</ele>
  <time>2026-08-28T19:10:02Z</time>
  <course>11.82</course>
  <speed>0.0282842712474619</speed>
  <fix>3d</fix>
</trkpt>
<trkpt lat="40.072842" lon="-105.230575">
  <ele>1586.09</ele>
  <time>2026-08-28T19:10:02Z</time>
  <course>266.03</course>
  <speed>0.0</speed>
  <fix>3d</fix>
</trkpt>
<trkpt lat="40.072842" lon="-105.230575">
  <ele>1586.09</ele>
  <time>2026-08-28T19:10:02Z</time>
  <course>11.81</course>
  <speed>0.0282842712474619</speed>
  <fix>3d</fix>
</trkpt>
<trkpt lat="40.072842" lon="-105.230575">
  <ele>1586.09</ele>
  <time>2026-08-28T19:10:02Z</time>
  <course>266.03</course>
  <speed>0.0</speed>
  <fix>3d</fix>
</trkpt>
<trkpt lat="40.072842" lon="-105.230575">
  <ele>1586.09</ele>
  <time>2026-08-28T19:10:02Z</time>
  <course>11.8</course>
  <speed>0.0282842712474619</speed>
  <fix>3d</fix>
</trkpt>
<trkpt lat="40.072842" lon="-105.230575">
  <ele>1586.09</ele>
  <time>2026-08-28T19:10:02Z</time>
  <course>266.03</course>
  <speed>0.0</speed>
  <fix>3d</fix>
</trkpt>
<trkpt lat="40.072842" lon="-105.230575">
  <ele>1586.09</ele>
  <time>2026-08-28T19:10:02Z</time>
  <course>11.79</course>
  <speed>0.0282842712474619</speed>
  <fix>3d</fix>
</trkpt>
<trkpt lat="40.072842" lon="-105.230575">
  <ele>1586.09</ele>
  <time>2026-08-28T19:10:02Z</time>
  <course>266.03</course>
  <speed>0.0</speed>
  <fix>3d</fix>
</trkpt>
<trkpt lat="40.072842" lon="-105.230575">
  <ele>1586.09</ele>
  <time>2026-08-28T19:10:02Z</time>
  <course>11.78</course>
  <speed>0.0282842712474619</speed>
  <fix>3d</fix>
</trkpt>
<trkpt lat="40.072842" lon="-105.230575">
  <ele>1586.09</ele>
  <time>2026-08-28T19:10:02Z</time>
  <course>266.03</course>
  <speed>0.0</speed>
  <fix>3d</fix>
</trkpt>
<trkpt lat="40.072842" lon="-105.230575">
  <ele>1586.09</ele>
  <time>2026-08-28T19:10:02Z</time>
  <course>11.78</course>
  <speed>0.0282842712474619</speed>
  <fix>3d</fix>
</trkpt>
<trkpt lat="40.072842" lon="-105.230575">
  <ele>1586.09</ele>
  <time>2026-08-28T19:10:02Z</time>
  <course>266.03</course>
  <speed>0.0</speed>
  <fix>3d</fix>
</trkpt>
<trkpt lat="40.072842" lon="-105.230575">
  <ele>1586.09</ele>
  <time>2026-08-28T19:10:02Z</time>
  <course>11.77</course>
  <speed>0.0282842712474619</speed>
  <fix>3d</fix>
</trkpt>
<trkpt lat="40.072842" lon="-105.230575">
  <ele>1586.09</ele>
  <time>2026-08-28T19:10:02Z</time>
  <course>266.03</course>
  <speed>0.0</speed>
  <fix>3d</fix>
</trkpt>
<trkpt lat="40.072842" lon="-105.230575">
  <ele>1586.09</ele>
  <time>2026-08-28T19:10:02Z</time>
  <course>11.76</course>
  <speed>0.0282842712474619</speed>
  <fix>3d</fix>
</trkpt>
<trkpt lat="40.072842" lon="-105.230575">
  <ele>1586.09</ele>
  <time>2026-08-28T19:10:02Z</time>
  <course>266.03</course>
  <speed>0.0</speed>
  <fix>3d</fix>
</trkpt>
<trkpt lat="40.072842" lon="-105.230575">
  <ele>1586.09</ele>
  <time>2026-08-28T19:10:03Z</time>
  <course>11.76</course>
  <speed>0.0282842712474619</speed>
  <fix>3d</fix>
</trkpt>
<trkpt lat="40.072842" lon="-105.230575">
  <ele>1586.09</ele>
  <time>2026-08-28T19:10:03Z</time>
  <course>266.03</course>
  <speed>0.0</speed>
  <fix>3d</fix>
</trkpt>
<trkpt lat="40.072842" lon="-105.230575">
  <ele>1586.09</ele>
  <time>2026-08-28T19:10:03Z</time>
  <course>11.75</course>
  <speed>0.03605551275463989</speed>
  <fix>3d</fix>
</trkpt>
<trkpt lat="40.072842" lon="-105.230575">
  <ele>1586.09</ele>
  <time>2026-08-28T19:10:03Z</time>
  <course>266.03</course>
  <speed>0.0</speed>
  <fix>3d</fix>
</trkpt>
<trkpt lat="40.072842" lon="-105.230575">
  <ele>1586.09</ele>
  <time>2026-08-28T19:10:03Z</time>
  <course>11.74</course>
  <speed>0.03605551275463989</speed>
  <fix>3d</fix>
</trkpt>
<trkpt lat="40.072842" lon="-105.230575">
  <ele>1586.09</ele>
  <time>2026-08-28T19:10:03Z</time>
  <course>266.03</course>
  <speed>0.0</speed>
  <fix>3d</fix>
</trkpt>
<trkpt lat="40.072842" lon="-105.230575">
  <ele>1586.09</ele>
  <time>2026-08-28T19:10:03Z</time>
  <course>11.73</course>
  <speed>0.03605551275463989</speed>
  <fix>3d</fix>
</trkpt>
<trkpt lat="40.072842" lon="-105.230575">
  <ele>1586.09</ele>
  <time>2026-08-28T19:10:03Z</time>
  <course>266.03</course>
  <speed>0.0</speed>
  <fix>3d</fix>
</trkpt>
<trkpt lat="40.072842" lon="-105.230575">
  <ele>1586.09</ele>
  <time>2026-08-28T19:10:03Z</time>
  <course>11.72</course>
  <speed>0.03605551275463989</speed>
  <fix>3d</fix>
</trkpt>
<trkpt lat="40.072842" lon="-105.230575">
  <ele>1586.09</ele>
  <time>2026-08-28T19:10:03Z</time>
  <course>266.03</course>
  <speed>0.0</speed>
  <fix>3d</fix>
</trkpt>
<trkpt lat="40.072842" lon="-105.230575">
  <ele>1586.09</ele>
  <time>2026-08-28T19:10:03Z</time>
  <course>11.72</course>
  <speed>0.03605551275463989</speed>
  <fix>3d</fix>
</trkpt>
<trkpt lat="40.072842" lon="-105.230575">
  <ele>1586.09</ele>
  <time>2026-08-28T19:10:03Z</time>
  <course>266.03</course>
  <speed>0.0</speed>
  <fix>3d</fix>
</trkpt>
<trkpt lat="40.072842" lon="-105.230575">
  <ele>1586.09</ele>
  <time>2026-08-28T19:10:03Z</time>
  <course>11.71</course>
  <speed>0.03605551275463989</speed>
  <fix>3d</fix>
</trkpt>
<trkpt lat="40.072842" lon="-105.230575">
  <ele>1586.09</ele>
  <time>2026-08-28T19:10:03Z</time>
  <course>266.03</course>
  <speed>0.0</speed>
  <fix>3d</fix>
</trkpt>
<trkpt lat="40.072842" lon="-105.230575">
  <ele>1586.09</ele>
  <time>2026-08-28T19:10:03Z</time>
  <course>11.7</course>
  <speed>0.03605551275463989</speed>
  <fix>3d</fix>
</trkpt>
<trkpt lat="40.072842" lon="-105.230575">
  <ele>1586.09</ele>
  <time>2026-08-28T19:10:03Z</time>
  <course>266.03</course>
  <speed>0.0</speed>
  <fix>3d</fix>
</trkpt>
<trkpt lat="40.072842" lon="-105.230575">
  <ele>1586.09</ele>
  <time>2026-08-28T19:10:03Z</time>
  <course>11.7</course>
  <speed>0.03605551275463989</speed>
  <fix>3d</fix>
</trkpt>
<trkpt lat="40.072842" lon="-105.230575">
  <ele>1586.09</ele>
  <time>2026-08-28T19:10:03Z</time>
  <course>266.03</course>
  <speed>0.0</speed>
  <fix>3d</fix>
</trkpt>
<trkpt lat="40.072842" lon="-105.230575">
  <ele>1586.09</ele>
  <time>2026-08-28T19:10:03Z</time>
  <course>11.69</course>
  <speed>0.03605551275463989</speed>
  <fix>3d</fix>
</trkpt>
<trkpt lat="40.072842" lon="-105.230575">
  <ele>1586.09</ele>
  <time>2026-08-28T19:10:03Z</time>
  <course>266.03</course>
  <speed>0.0</speed>
  <fix>3d</fix>
</trkpt>
<trkpt lat="40.072842" lon="-105.230575">
  <ele>1586.09</ele>
  <time>2026-08-28T19:10:03Z</time>
  <course>11.68</course>
  <speed>0.03605551275463989</speed>
  <fix>3d</fix>
</trkpt>
<trkpt lat="40.072842" lon="-105.230575">
  <ele>1586.09</ele>
  <time>2026-08-28T19:10:03Z</time>
  <course>266.03</course>
  <speed>0.0</speed>
  <fix>3d</fix>
</trkpt>
<trkpt lat="40.072842" lon="-105.230575">
  <ele>1586.09</ele>
  <time>2026-08-28T19:10:03Z</time>
  <course>11.67</course>
  <speed>0.03605551275463989</speed>
  <fix>3d</fix>
</trkpt>
<trkpt lat="40.072842" lon="-105.230575">
  <ele>1586.09</ele>
  <time>2026-08-28T19:10:03Z</time>
  <course>266.03</course>
  <speed>0.0</speed>
  <fix>3d</fix>
</trkpt>
<trkpt lat="40.072842" lon="-105.230575">
  <ele>1586.09</ele>
  <time>2026-08-28T19:10:03Z</time>
  <course>11.67</course>
  <speed>0.03605551275463989</speed>
  <fix>3d</fix>
</trkpt>
<trkpt lat="40.072842" lon="-105.230575">
  <ele>1586.09</ele>
  <time>2026-08-28T19:10:03Z</time>
  <course>266.03</course>
  <speed>0.0</speed>
  <fix>3d</fix>
</trkpt>
<trkpt lat="40.072842" lon="-105.230575">
  <ele>1586.09</ele>
  <time>2026-08-28T19:10:03Z</time>
  <course>11.66</course>
  <speed>0.03605551275463989</speed>
  <fix>3d</fix>
</trkpt>
<trkpt lat="40.072842" lon="-105.230575">
  <ele>1586.09</ele>
  <time>2026-08-28T19:10:03Z</time>
  <course>266.03</course>
  <speed>0.0</speed>
  <fix>3d</fix>
</trkpt>
<trkpt lat="40.072842" lon="-105.230575">
  <ele>1586.09</ele>
  <time>2026-08-28T19:10:03Z</time>
  <course>11.65</course>
  <speed>0.03605551275463989</speed>
  <fix>3d</fix>
</trkpt>
<trkpt lat="40.072842" lon="-105.230575">
  <ele>1586.09</ele>
  <time>2026-08-28T19:10:03Z</time>
  <course>266.03</course>
  <speed>0.0</speed>
  <fix>3d</fix>
</trkpt>
<trkpt lat="40.072842" lon="-105.230575">
  <ele>1586.09</ele>
  <time>2026-08-28T19:10:03Z</time>
  <course>11.65</course>
  <speed>0.03605551275463989</speed>
  <fix>3d</fix>
</trkpt>
<trkpt lat="40.072842" lon="-105.230575">
  <ele>1586.09</ele>
  <time>2026-08-28T19:10:03Z</time>
  <course>266.03</course>
  <speed>0.0</speed>
  <fix>3d</fix>
</trkpt>
<trkpt lat="40.072842" lon="-105.230575">
  <ele>1586.09</ele>
  <time>2026-08-28T19:10:03Z</time>
  <course>11.64</course>
  <speed>0.03605551275463989</speed>
  <fix>3d</fix>
</trkpt>
<trkpt lat="40.072842" lon="-105.230575">
  <ele>1586.09</ele>
  <time>2026-08-28T19:10:03Z</time>
  <course>266.03</course>
  <speed>0.0</speed>
  <fix>3d</fix>
</trkpt>
<trkpt lat="40.072842" lon="-105.230575">
  <ele>1586.09</ele>
  <time>2026-08-28T19:10:03Z</time>
  <course>11.63</course>
  <speed>0.03605551275463989</speed>
  <fix>3d</fix>
</trkpt>
<trkpt lat="40.072842" lon="-105.230575">
  <ele>1586.09</ele>
  <time>2026-08-28T19:10:03Z</time>
  <course>266.03</course>
  <speed>0.0</speed>
  <fix>3d</fix>
</trkpt>
<trkpt lat="40.072842" lon="-105.230575">
  <ele>1586.09</ele>
  <time>2026-08-28T19:10:03Z</time>
  <course>11.63</course>
  <speed>0.03605551275463989</speed>
  <fix>3d</fix>
</trkpt>
<trkpt lat="40.072842" lon="-105.230575">
  <ele>1586.09</ele>
  <time>2026-08-28T19:10:03Z</time>
  <course>266.03</course>
  <speed>0.0</speed>
  <fix>3d</fix>
</trkpt>
<trkpt lat="40.072842" lon="-105.230575">
  <ele>1586.09</ele>
  <time>2026-08-28T19:10:03Z</time>
  <course>11.62</course>
  <speed>0.03605551275463989</speed>
  <fix>3d</fix>
</trkpt>
<trkpt lat="40.072842" lon="-105.230575">
  <ele>1586.09</ele>
  <time>2026-08-28T19:10:03Z</time>
  <course>266.03</course>
  <speed>0.0</speed>
  <fix>3d</fix>
</trkpt>
<trkpt lat="40.072842" lon="-105.230575">
  <ele>1586.09</ele>
  <time>2026-08-28T19:10:03Z</time>
  <course>11.61</course>
  <speed>0.03605551275463989</speed>
  <fix>3d</fix>
</trkpt>
<trkpt lat="40.072842" lon="-105.230575">
  <ele>1586.09</ele>
  <time>2026-08-28T19:10:03Z</time>
  <course>266.03</course>
  <speed>0.0</speed>
  <fix>3d</fix>
</trkpt>
<trkpt lat="40.072842" lon="-105.230575">
  <ele>1586.09</ele>
  <time>2026-08-28T19:10:03Z</time>
  <course>11.61</course>
  <speed>0.03605551275463989</speed>
  <fix>3d</fix>
</trkpt>
<trkpt lat="40.072842" lon="-105.230575">
  <ele>1586.09</ele>
  <time>2026-08-28T19:10:03Z</time>
  <course>266.03</course>
  <speed>0.0</speed>
  <fix>3d</fix>
</trkpt>
<trkpt lat="40.072842" lon="-105.230575">
  <ele>1586.09</ele>
  <time>2026-08-28T19:10:03Z</time>
  <course>11.6</course>
  <speed>0.03605551275463989</speed>
  <fix>3d</fix>
</trkpt>
<trkpt lat="40.072842" lon="-105.230575">
  <ele>1586.09</ele>
  <time>2026-08-28T19:10:03Z</time>
  <course>266.03</course>
  <speed>0.0</speed>
  <fix>3d</fix>
</trkpt>
<trkpt lat="40.072842" lon="-105.230575">
  <ele>1586.09</ele>
  <time>2026-08-28T19:10:03Z</time>
  <course>11.59</course>
  <speed>0.03605551275463989</speed>
  <fix>3d</fix>
</trkpt>
<trkpt lat="40.072842" lon="-105.230575">
  <ele>1586.09</ele>
  <time>2026-08-28T19:10:03Z</time>
  <course>266.03</course>
  <speed>0.0</speed>
  <fix>3d</fix>
</trkpt>
<trkpt lat="40.072842" lon="-105.230575">
  <ele>1586.09</ele>
  <time>2026-08-28T19:10:03Z</time>
  <course>11.59</course>
  <speed>0.03605551275463989</speed>
  <fix>3d</fix>
</trkpt>
<trkpt lat="40.072842" lon="-105.230575">
  <ele>1586.09</ele>
  <time>2026-08-28T19:10:03Z</time>
  <course>266.03</course>
  <speed>0.0</speed>
  <fix>3d</fix>
</trkpt>
<trkpt lat="40.072842" lon="-105.230575">
  <ele>1586.09</ele>
  <time>2026-08-28T19:10:03Z</time>
  <course>11.58</course>
  <speed>0.03605551275463989</speed>
  <fix>3d</fix>
</trkpt>
<trkpt lat="40.072842" lon="-105.230575">
  <ele>1586.09</ele>
  <time>2026-08-28T19:10:03Z</time>
  <course>266.03</course>
  <speed>0.0</speed>
  <fix>3d</fix>
</trkpt>
<trkpt lat="40.072842" lon="-105.230575">
  <ele>1586.09</ele>
  <time>2026-08-28T19:10:03Z</time>
  <course>11.58</course>
  <speed>0.03605551275463989</speed>
  <fix>3d</fix>
</trkpt>
<trkpt lat="40.072842" lon="-105.230575">
  <ele>1586.09</ele>
  <time>2026-08-28T19:10:03Z</time>
  <course>266.03</course>
  <speed>0.0</speed>
  <fix>3d</fix>
</trkpt>
<trkpt lat="40.072842" lon="-105.230575">
  <ele>1586.09</ele>
  <time>2026-08-28T19:10:03Z</time>
  <course>11.57</course>
  <speed>0.03605551275463989</speed>
  <fix>3d</fix>
</trkpt>
<trkpt lat="40.072842" lon="-105.230575">
  <ele>1586.09</ele>
  <time>2026-08-28T19:10:03Z</time>
  <course>266.03</course>
  <speed>0.0</speed>
  <fix>3d</fix>
</trkpt>
<trkpt lat="40.072842" lon="-105.230575">
  <ele>1586.09</ele>
  <time>2026-08-28T19:10:03Z</time>
  <course>11.56</course>
  <speed>0.03605551275463989</speed>
  <fix>3d</fix>
</trkpt>
<trkpt lat="40.072842" lon="-105.230575">
  <ele>1586.09</ele>
  <time>2026-08-28T19:10:03Z</time>
  <course>266.03</course>
  <speed>0.0</speed>
  <fix>3d</fix>
</trkpt>
<trkpt lat="40.072842" lon="-105.230575">
  <ele>1586.09</ele>
  <time>2026-08-28T19:10:03Z</time>
  <course>11.56</course>
  <speed>0.03605551275463989</speed>
  <fix>3d</fix>
</trkpt>
<trkpt lat="40.072842" lon="-105.230575">
  <ele>1586.09</ele>
  <time>2026-08-28T19:10:03Z</time>
  <course>266.03</course>
  <speed>0.0</speed>
  <fix>3d</fix>
</trkpt>
<trkpt lat="40.072842" lon="-105.230575">
  <ele>1586.09</ele>
  <time>2026-08-28T19:10:03Z</time>
  <course>11.55</course>
  <speed>0.03605551275463989</speed>
  <fix>3d</fix>
</trkpt>
<trkpt lat="40.072842" lon="-105.230575">
  <ele>1586.09</ele>
  <time>2026-08-28T19:10:03Z</time>
  <course>266.03</course>
  <speed>0.0</speed>
  <fix>3d</fix>
</trkpt>
<trkpt lat="40.072842" lon="-105.230575">
  <ele>1586.09</ele>
  <time>2026-08-28T19:10:03Z</time>
  <course>11.54</course>
  <speed>0.03605551275463989</speed>
  <fix>3d</fix>
</trkpt>
<trkpt lat="40.072842" lon="-105.230575">
  <ele>1586.09</ele>
  <time>2026-08-28T19:10:03Z</time>
  <course>266.03</course>
  <speed>0.0</speed>
  <fix>3d</fix>
</trkpt>
<trkpt lat="40.072842" lon="-105.230575">
  <ele>1586.09</ele>
  <time>2026-08-28T19:10:03Z</time>
  <course>11.54</course>
  <speed>0.03605551275463989</speed>
  <fix>3d</fix>
</trkpt>
<trkpt lat="40.072842" lon="-105.230575">
  <ele>1586.09</ele>
  <time>2026-08-28T19:10:03Z</time>
  <course>266.03</course>
  <speed>0.0</speed>
  <fix>3d</fix>
</trkpt>
<trkpt lat="40.072842" lon="-105.230575">
  <ele>1586.09</ele>
  <time>2026-08-28T19:10:03Z</time>
  <course>11.53</course>
  <speed>0.03605551275463989</speed>
  <fix>3d</fix>
</trkpt>
<trkpt lat="40.072842" lon="-105.230575">
  <ele>1586.09</ele>
  <time>2026-08-28T19:10:03Z</time>
  <course>266.03</course>
  <speed>0.0</speed>
  <fix>3d</fix>
</trkpt>
<trkpt lat="40.072842" lon="-105.230575">
  <ele>1586.09</ele>
  <time>2026-08-28T19:10:03Z</time>
  <course>11.53</course>
  <speed>0.03605551275463989</speed>
  <fix>3d</fix>
</trkpt>
<trkpt lat="40.072842" lon="-105.230575">
  <ele>1586.09</ele>
  <time>2026-08-28T19:10:03Z</time>
  <course>266.03</course>
  <speed>0.0</speed>
  <fix>3d</fix>
</trkpt>
<trkpt lat="40.072842" lon="-105.230575">
  <ele>1586.09</ele>
  <time>2026-08-28T19:10:03Z</time>
  <course>11.52</course>
  <speed>0.03605551275463989</speed>
  <fix>3d</fix>
</trkpt>
<trkpt lat="40.072842" lon="-105.230575">
  <ele>1586.09</ele>
  <time>2026-08-28T19:10:03Z</time>
  <course>266.03</course>
  <speed>0.0</speed>
  <fix>3d</fix>
</trkpt>
<trkpt lat="40.072842" lon="-105.230575">
  <ele>1586.09</ele>
  <time>2026-08-28T19:10:03Z</time>
  <course>11.51</course>
  <speed>0.03605551275463989</speed>
  <fix>3d</fix>
</trkpt>
<trkpt lat="40.072842" lon="-105.230575">
  <ele>1586.09</ele>
  <time>2026-08-28T19:10:03Z</time>
  <course>266.03</course>
  <speed>0.0</speed>
  <fix>3d</fix>
</trkpt>
<trkpt lat="40.072842" lon="-105.230575">
  <ele>1586.09</ele>
  <time>2026-08-28T19:10:03Z</time>
  <course>11.51</course>
  <speed>0.03605551275463989</speed>
  <fix>3d</fix>
</trkpt>
<trkpt lat="40.072842" lon="-105.230575">
  <ele>1586.09</ele>
  <time>2026-08-28T19:10:03Z</time>
  <course>266.03</course>
  <speed>0.0</speed>
  <fix>3d</fix>
</trkpt>
<trkpt lat="40.072842" lon="-105.230575">
  <ele>1586.09</ele>
  <time>2026-08-28T19:10:03Z</time>
  <course>11.5</course>
  <speed>0.044721359549995794</speed>
  <fix>3d</fix>
</trkpt>
<trkpt lat="40.072842" lon="-105.230575">
  <ele>1586.09</ele>
  <time>2026-08-28T19:10:03Z</time>
  <course>266.03</course>
  <speed>0.0</speed>
  <fix>3d</fix>
</trkpt>
<trkpt lat="40.072842" lon="-105.230575">
  <ele>1586.09</ele>
  <time>2026-08-28T19:10:03Z</time>
  <course>11.5</course>
  <speed>0.044721359549995794</speed>
  <fix>3d</fix>
</trkpt>
<trkpt lat="40.072842" lon="-105.230575">
  <ele>1586.09</ele>
  <time>2026-08-28T19:10:03Z</time>
  <course>266.03</course>
  <speed>0.0</speed>
  <fix>3d</fix>
</trkpt>
<trkpt lat="40.072842" lon="-105.230575">
  <ele>1586.09</ele>
  <time>2026-08-28T19:10:03Z</time>
  <course>11.49</course>
  <speed>0.044721359549995794</speed>
  <fix>3d</fix>
</trkpt>
<trkpt lat="40.072842" lon="-105.230575">
  <ele>1586.09</ele>
  <time>2026-08-28T19:10:03Z</time>
  <course>266.03</course>
  <speed>0.0</speed>
  <fix>3d</fix>
</trkpt>
<trkpt lat="40.072842" lon="-105.230575">
  <ele>1586.09</ele>
  <time>2026-08-28T19:10:03Z</time>
  <course>11.49</course>
  <speed>0.044721359549995794</speed>
  <fix>3d</fix>
</trkpt>
<trkpt lat="40.072842" lon="-105.230575">
  <ele>1586.09</ele>
  <time>2026-08-28T19:10:03Z</time>
  <course>266.03</course>
  <speed>0.0</speed>
  <fix>3d</fix>
</trkpt>
<trkpt lat="40.072842" lon="-105.230575">
  <ele>1586.09</ele>
  <time>2026-08-28T19:10:03Z</time>
  <course>11.48</course>
  <speed>0.044721359549995794</speed>
  <fix>3d</fix>
</trkpt>
<trkpt lat="40.072842" lon="-105.230575">
  <ele>1586.09</ele>
  <time>2026-08-28T19:10:03Z</time>
  <course>266.03</course>
  <speed>0.0</speed>
  <fix>3d</fix>
</trkpt>
<trkpt lat="40.072842" lon="-105.230575">
  <ele>1586.09</ele>
  <time>2026-08-28T19:10:03Z</time>
  <course>11.48</course>
  <speed>0.044721359549995794</speed>
  <fix>3d</fix>
</trkpt>
<trkpt lat="40.072842" lon="-105.230575">
  <ele>1586.09</ele>
  <time>2026-08-28T19:10:03Z</time>
  <course>266.03</course>
  <speed>0.0</speed>
  <fix>3d</fix>
</trkpt>
<trkpt lat="40.072842" lon="-105.230575">
  <ele>1586.09</ele>
  <time>2026-08-28T19:10:03Z</time>
  <course>11.47</course>
  <speed>0.044721359549995794</speed>
  <fix>3d</fix>
</trkpt>
<trkpt lat="40.072842" lon="-105.230575">
  <ele>1586.09</ele>
  <time>2026-08-28T19:10:03Z</time>
  <course>266.03</course>
  <speed>0.0</speed>
  <fix>3d</fix>
</trkpt>
<trkpt lat="40.072842" lon="-105.230575">
  <ele>1586.09</ele>
  <time>2026-08-28T19:10:03Z</time>
  <course>11.47</course>
  <speed>0.044721359549995794</speed>
  <fix>3d</fix>
</trkpt>
<trkpt lat="40.072842" lon="-105.230575">
  <ele>1586.09</ele>
  <time>2026-08-28T19:10:03Z</time>
  <course>266.03</course>
  <speed>0.0</speed>
  <fix>3d</fix>
</trkpt>
<trkpt lat="40.072842" lon="-105.230575">
  <ele>1586.09</ele>
  <time>2026-08-28T19:10:03Z</time>
  <course>11.46</course>
  <speed>0.044721359549995794</speed>
  <fix>3d</fix>
</trkpt>
<trkpt lat="40.072842" lon="-105.230575">
  <ele>1586.09</ele>
  <time>2026-08-28T19:10:03Z</time>
  <course>266.03</course>
  <speed>0.0</speed>
  <fix>3d</fix>
</trkpt>
<trkpt lat="40.072842" lon="-105.230575">
  <ele>1586.09</ele>
  <time>2026-08-28T19:10:03Z</time>
  <course>11.46</course>
  <speed>0.044721359549995794</speed>
  <fix>3d</fix>
</trkpt>
<trkpt lat="40.072842" lon="-105.230575">
  <ele>1586.09</ele>
  <time>2026-08-28T19:10:03Z</time>
  <course>266.03</course>
  <speed>0.0</speed>
  <fix>3d</fix>
</trkpt>
<trkpt lat="40.072842" lon="-105.230575">
  <ele>1586.16</ele>
  <time>2026-08-28T19:10:03Z</time>
  <course>11.45</course>
  <speed>0.0</speed>
  <fix>3d</fix>
</trkpt>
<trkpt lat="40.072842" lon="-105.230575">
  <ele>1586.09</ele>
  <time>2026-08-28T19:10:03Z</time>
  <course>297.19</course>
  <speed>0.0</speed>
  <fix>3d</fix>
</trkpt>
<trkpt lat="40.072842" lon="-105.230575">
  <ele>1586.16</ele>
  <time>2026-08-28T19:10:03Z</time>
  <course>11.45</course>
  <speed>0.0</speed>
  <fix>3d</fix>
</trkpt>
<trkpt lat="40.072842" lon="-105.230575">
  <ele>1586.09</ele>
  <time>2026-08-28T19:10:03Z</time>
  <course>269.87</course>
  <speed>0.0</speed>
  <fix>3d</fix>
</trkpt>
<trkpt lat="40.072842" lon="-105.230575">
  <ele>1586.16</ele>
  <time>2026-08-28T19:10:03Z</time>
  <course>11.44</course>
  <speed>0.0</speed>
  <fix>3d</fix>
</trkpt>
<trkpt lat="40.072842" lon="-105.230575">
  <ele>1586.09</ele>
  <time>2026-08-28T19:10:03Z</time>
  <course>241.23</course>
  <speed>0.0</speed>
  <fix>3d</fix>
</trkpt>
<trkpt lat="40.072842" lon="-105.230575">
  <ele>1586.16</ele>
  <time>2026-08-28T19:10:03Z</time>
  <course>11.44</course>
  <speed>0.0</speed>
  <fix>3d</fix>
</trkpt>
<trkpt lat="40.072842" lon="-105.230575">
  <ele>1586.09</ele>
  <time>2026-08-28T19:10:03Z</time>
  <course>93.08</course>
  <speed>0.0</speed>
  <fix>3d</fix>
</trkpt>
<trkpt lat="40.072842" lon="-105.230575">
  <ele>1586.17</ele>
  <time>2026-08-28T19:10:03Z</time>
  <course>11.43</course>
  <speed>0.0</speed>
  <fix>3d</fix>
</trkpt>
<trkpt lat="40.072842" lon="-105.230575">
  <ele>1586.09</ele>
  <time>2026-08-28T19:10:03Z</time>
  <course>317.31</course>
  <speed>0.0</speed>
  <fix>3d</fix>
</trkpt>
<trkpt lat="40.072842" lon="-105.230575">
  <ele>1586.17</ele>
  <time>2026-08-28T19:10:03Z</time>
  <course>11.43</course>
  <speed>0.01</speed>
  <fix>3d</fix>
</trkpt>
<trkpt lat="40.072842" lon="-105.230575">
  <ele>1586.09</ele>
  <time>2026-08-28T19:10:03Z</time>
  <course>265.24</course>
  <speed>0.0</speed>
  <fix>3d</fix>
</trkpt>
<trkpt lat="40.072842" lon="-105.230575">
  <ele>1586.17</ele>
  <time>2026-08-28T19:10:03Z</time>
  <course>11.43</course>
  <speed>0.01</speed>
  <fix>3d</fix>
</trkpt>
<trkpt lat="40.072842" lon="-105.230575">
  <ele>1586.09</ele>
  <time>2026-08-28T19:10:03Z</time>
  <course>261.76</course>
  <speed>0.0</speed>
  <fix>3d</fix>
</trkpt>
<trkpt lat="40.072842" lon="-105.230575">
  <ele>1586.17</ele>
  <time>2026-08-28T19:10:03Z</time>
  <course>11.42</course>
  <speed>0.01414213562373095</speed>
  <fix>3d</fix>
</trkpt>
<trkpt lat="40.072842" lon="-105.230575">
  <ele>1586.09</ele>
  <time>2026-08-28T19:10:03Z</time>
  <course>266.78</course>
  <speed>0.0</speed>
  <fix>3d</fix>
</trkpt>
<trkpt lat="40.072842" lon="-105.230575">
  <ele>1586.17</ele>
  <time>2026-08-28T19:10:03Z</time>
  <course>11.42</course>
  <speed>0.01414213562373095</speed>
  <fix>3d</fix>
</trkpt>
<trkpt lat="40.072842" lon="-105.230575">
  <ele>1586.09</ele>
  <time>2026-08-28T19:10:03Z</time>
  <course>266.53</course>
  <speed>0.0</speed>
  <fix>3d</fix>
</trkpt>
<trkpt lat="40.072842" lon="-105.230575">
  <ele>1586.17</ele>
  <time>2026-08-28T19:10:03Z</time>
  <course>11.41</course>
  <speed>0.01414213562373095</speed>
  <fix>3d</fix>
</trkpt>
<trkpt lat="40.072842" lon="-105.230575">
  <ele>1586.09</ele>
  <time>2026-08-28T19:10:03Z</time>
  <course>265.88</course>
  <speed>0.0</speed>
  <fix>3d</fix>
</trkpt>
<trkpt lat="40.072842" lon="-105.230575">
  <ele>1586.17</ele>
  <time>2026-08-28T19:10:03Z</time>
  <course>11.41</course>
  <speed>0.01414213562373095</speed>
  <fix>3d</fix>
</trkpt>
<trkpt lat="40.072842" lon="-105.230575">
  <ele>1586.09</ele>
  <time>2026-08-28T19:10:03Z</time>
  <course>265.99</course>
  <speed>0.0</speed>
  <fix>3d</fix>
</trkpt>
<trkpt lat="40.072842" lon="-105.230575">
  <ele>1586.17</ele>
  <time>2026-08-28T19:10:03Z</time>
  <course>11.41</course>
  <speed>0.022360679774997897</speed>
  <fix>3d</fix>
</trkpt>
<trkpt lat="40.072842" lon="-105.230575">
  <ele>1586.09</ele>
  <time>2026-08-28T19:10:03Z</time>
  <course>284.06</course>
  <speed>0.0</speed>
  <fix>3d</fix>
</trkpt>
<trkpt lat="40.072842" lon="-105.230575">
  <ele>1586.17</ele>
  <time>2026-08-28T19:10:03Z</time>
  <course>11.4</course>
  <speed>0.01414213562373095</speed>
  <fix>3d</fix>
</trkpt>
<trkpt lat="40.072842" lon="-105.230575">
  <ele>1586.09</ele>
  <time>2026-08-28T19:10:03Z</time>
  <course>276.79</course>
  <speed>0.0</speed>
  <fix>3d</fix>
</trkpt>
<trkpt lat="40.072842" lon="-105.230575">
  <ele>1586.17</ele>
  <time>2026-08-28T19:10:03Z</time>
  <course>11.4</course>
  <speed>0.01414213562373095</speed>
  <fix>3d</fix>
</trkpt>
<trkpt lat="40.072842" lon="-105.230575">
  <ele>1586.09</ele>
  <time>2026-08-28T19:10:03Z</time>
  <course>260.51</course>
  <speed>0.0</speed>
  <fix>3d</fix>
</trkpt>
<trkpt lat="40.072842" lon="-105.230575">
  <ele>1586.17</ele>
  <time>2026-08-28T19:10:03Z</time>
  <course>11.39</course>
  <speed>0.01414213562373095</speed>
  <fix>3d</fix>
</trkpt>
<trkpt lat="40.072842" lon="-105.230575">
  <ele>1586.09</ele>
  <time>2026-08-28T19:10:03Z</time>
  <course>265.19</course>
  <speed>0.0</speed>
  <fix>3d</fix>
</trkpt>
<trkpt lat="40.072842" lon="-105.230575">
  <ele>1586.17</ele>
  <time>2026-08-28T19:10:03Z</time>
  <course>11.39</course>
  <speed>0.01</speed>
  <fix>3d</fix>
</trkpt>
<trkpt lat="40.072842" lon="-105.230575">
  <ele>1586.09</ele>
  <time>2026-08-28T19:10:03Z</time>
  <course>267.0</course>
  <speed>0.0</speed>
  <fix>3d</fix>
</trkpt>
<trkpt lat="40.072842" lon="-105.230575">
  <ele>1586.17</ele>
  <time>2026-08-28T19:10:03Z</time>
  <course>11.39</course>
  <speed>0.0</speed>
  <fix>3d</fix>
</trkpt>
<trkpt lat="40.072842" lon="-105.230575">
  <ele>1586.09</ele>
  <time>2026-08-28T19:10:03Z</time>
  <course>266.03</course>
  <speed>0.0</speed>
  <fix>3d</fix>
</trkpt>
<trkpt lat="40.072842" lon="-105.230575">
  <ele>1586.17</ele>
  <time>2026-08-28T19:10:03Z</time>
  <course>11.38</course>
  <speed>0.0</speed>
  <fix>3d</fix>
</trkpt>
<trkpt lat="40.072842" lon="-105.230575">
  <ele>1586.09</ele>
  <time>2026-08-28T19:10:03Z</time>
  <course>265.91</course>
  <speed>0.0</speed>
  <fix>3d</fix>
</trkpt>
<trkpt lat="40.072842" lon="-105.230575">
  <ele>1586.17</ele>
  <time>2026-08-28T19:10:03Z</time>
  <course>11.38</course>
  <speed>0.0</speed>
  <fix>3d</fix>
</trkpt>
<trkpt lat="40.072842" lon="-105.230575">
  <ele>1586.09</ele>
  <time>2026-08-28T19:10:03Z</time>
  <course>344.85</course>
  <speed>0.0</speed>
  <fix>3d</fix>
</trkpt>
<trkpt lat="40.072842" lon="-105.230575">
  <ele>1586.17</ele>
  <time>2026-08-28T19:10:03Z</time>
  <course>11.38</course>
  <speed>0.0</speed>
  <fix>3d</fix>
</trkpt>
<trkpt lat="40.072842" lon="-105.230575">
  <ele>1586.09</ele>
  <time>2026-08-28T19:10:03Z</time>
  <course>326.02</course>
  <speed>0.0</speed>
  <fix>3d</fix>
</trkpt>
<trkpt lat="40.072842" lon="-105.230575">
  <ele>1586.17</ele>
  <time>2026-08-28T19:10:03Z</time>
  <course>11.37</course>
  <speed>0.0</speed>
  <fix>3d</fix>
</trkpt>
<trkpt lat="40.072842" lon="-105.230575">
  <ele>1586.09</ele>
  <time>2026-08-28T19:10:03Z</time>
  <course>297.82</course>
  <speed>0.0</speed>
  <fix>3d</fix>
</trkpt>
<trkpt lat="40.072842" lon="-105.230575">
  <ele>1586.17</ele>
  <time>2026-08-28T19:10:03Z</time>
  <course>11.37</course>
  <speed>0.0</speed>
  <fix>3d</fix>
</trkpt>
<trkpt lat="40.072842" lon="-105.230575">
  <ele>1586.09</ele>
  <time>2026-08-28T19:10:03Z</time>
  <course>169.61</course>
  <speed>0.0</speed>
  <fix>3d</fix>
</trkpt>
<trkpt lat="40.072842" lon="-105.230575">
  <ele>1586.17</ele>
  <time>2026-08-28T19:10:03Z</time>
  <course>11.37</course>
  <speed>0.0</speed>
  <fix>3d</fix>
</trkpt>
<trkpt lat="40.072842" lon="-105.230575">
  <ele>1586.09</ele>
  <time>2026-08-28T19:10:03Z</time>
  <course>295.21</course>
  <speed>0.0</speed>
  <fix>3d</fix>
</trkpt>
<trkpt lat="40.072842" lon="-105.230575">
  <ele>1586.17</ele>
  <time>2026-08-28T19:10:03Z</time>
  <course>11.36</course>
  <speed>0.0</speed>
  <fix>3d</fix>
</trkpt>
<trkpt lat="40.072842" lon="-105.230575">
  <ele>1586.09</ele>
  <time>2026-08-28T19:10:03Z</time>
  <course>297.27</course>
  <speed>0.0</speed>
  <fix>3d</fix>
</trkpt>
<trkpt lat="40.072842" lon="-105.230575">
  <ele>1586.17</ele>
  <time>2026-08-28T19:10:03Z</time>
  <course>11.36</course>
  <speed>0.0</speed>
  <fix>3d</fix>
</trkpt>
<trkpt lat="40.072842" lon="-105.230575">
  <ele>1586.09</ele>
  <time>2026-08-28T19:10:03Z</time>
  <course>299.66</course>
  <speed>0.0</speed>
  <fix>3d</fix>
</trkpt>
<trkpt lat="40.072842" lon="-105.230575">
  <ele>1586.17</ele>
  <time>2026-08-28T19:10:03Z</time>
  <course>11.36</course>
  <speed>0.0</speed>
  <fix>3d</fix>
</trkpt>
<trkpt lat="40.072842" lon="-105.230575">
  <ele>1586.09</ele>
  <time>2026-08-28T19:10:03Z</time>
  <course>265.08</course>
  <speed>0.0</speed>
  <fix>3d</fix>
</trkpt>
<trkpt lat="40.072842" lon="-105.230575">
  <ele>1586.16</ele>
  <time>2026-08-28T19:10:03Z</time>
  <course>11.36</course>
  <speed>0.0</speed>
  <fix>3d</fix>
</trkpt>
<trkpt lat="40.072842" lon="-105.230575">
  <ele>1586.09</ele>
  <time>2026-08-28T19:10:03Z</time>
  <course>253.39</course>
  <speed>0.0</speed>
  <fix>3d</fix>
</trkpt>
<trkpt lat="40.072842" lon="-105.230575">
  <ele>1586.16</ele>
  <time>2026-08-28T19:10:03Z</time>
  <course>11.36</course>
  <speed>0.0</speed>
  <fix>3d</fix>
</trkpt>
<trkpt lat="40.072842" lon="-105.230575">
  <ele>1586.09</ele>
  <time>2026-08-28T19:10:03Z</time>
  <course>100.69</course>
  <speed>0.0</speed>
  <fix>3d</fix>
</trkpt>
<trkpt lat="40.072842" lon="-105.230575">
  <ele>1586.16</ele>
  <time>2026-08-28T19:10:03Z</time>
  <course>11.35</course>
  <speed>0.0</speed>
  <fix>3d</fix>
</trkpt>
<trkpt lat="40.072842" lon="-105.230575">
  <ele>1586.09</ele>
  <time>2026-08-28T19:10:03Z</time>
  <course>330.41</course>
  <speed>0.0</speed>
  <fix>3d</fix>
</trkpt>
<trkpt lat="40.072842" lon="-105.230575">
  <ele>1586.16</ele>
  <time>2026-08-28T19:10:03Z</time>
  <course>11.35</course>
  <speed>0.0</speed>
  <fix>3d</fix>
</trkpt>
<trkpt lat="40.072842" lon="-105.230575">
  <ele>1586.09</ele>
  <time>2026-08-28T19:10:03Z</time>
  <course>318.31</course>
  <speed>0.0</speed>
  <fix>3d</fix>
</trkpt>
<trkpt lat="40.072842" lon="-105.230575">
  <ele>1586.16</ele>
  <time>2026-08-28T19:10:03Z</time>
  <course>11.34</course>
  <speed>0.0</speed>
  <fix>3d</fix>
</trkpt>
<trkpt lat="40.072842" lon="-105.230575">
  <ele>1586.09</ele>
  <time>2026-08-28T19:10:03Z</time>
  <course>279.36</course>
  <speed>0.0</speed>
  <fix>3d</fix>
</trkpt>
<trkpt lat="40.072842" lon="-105.230575">
  <ele>1586.16</ele>
  <time>2026-08-28T19:10:03Z</time>
  <course>11.34</course>
  <speed>0.0</speed>
  <fix>3d</fix>
</trkpt>
<trkpt lat="40.072842" lon="-105.230575">
  <ele>1586.09</ele>
  <time>2026-08-28T19:10:03Z</time>
  <course>268.66</course>
  <speed>0.0</speed>
  <fix>3d</fix>
</trkpt>
<trkpt lat="40.072842" lon="-105.230575">
  <ele>1586.16</ele>
  <time>2026-08-28T19:10:03Z</time>
  <course>11.33</course>
  <speed>0.0</speed>
  <fix>3d</fix>
</trkpt>
<trkpt lat="40.072842" lon="-105.230575">
  <ele>1586.09</ele>
  <time>2026-08-28T19:10:03Z</time>
  <course>248.75</course>
  <speed>0.0</speed>
  <fix>3d</fix>
</trkpt>
<trkpt lat="40.072842" lon="-105.230575">
  <ele>1586.16</ele>
  <time>2026-08-28T19:10:03Z</time>
  <course>11.32</course>
  <speed>0.0</speed>
  <fix>3d</fix>
</trkpt>
<trkpt lat="40.072842" lon="-105.230575">
  <ele>1586.09</ele>
  <time>2026-08-28T19:10:03Z</time>
  <course>33.37</course>
  <speed>0.0</speed>
  <fix>3d</fix>
</trkpt>
<trkpt lat="40.072842" lon="-105.230575">
  <ele>1586.16</ele>
  <time>2026-08-28T19:10:03Z</time>
  <course>11.31</course>
  <speed>0.0</speed>
  <fix>3d</fix>
</trkpt>
<trkpt lat="40.072842" lon="-105.230575">
  <ele>1586.09</ele>
  <time>2026-08-28T19:10:03Z</time>
  <course>343.76</course>
  <speed>0.0</speed>
  <fix>3d</fix>
</trkpt>
<trkpt lat="40.072842" lon="-105.230575">
  <ele>1586.16</ele>
  <time>2026-08-28T19:10:03Z</time>
  <course>11.3</course>
  <speed>0.0</speed>
  <fix>3d</fix>
</trkpt>
<trkpt lat="40.072842" lon="-105.230575">
  <ele>1586.09</ele>
  <time>2026-08-28T19:10:03Z</time>
  <course>319.91</course>
  <speed>0.0</speed>
  <fix>3d</fix>
</trkpt>
<trkpt lat="40.072842" lon="-105.230575">
  <ele>1586.16</ele>
  <time>2026-08-28T19:10:03Z</time>
  <course>11.28</course>
  <speed>0.0</speed>
  <fix>3d</fix>
</trkpt>
<trkpt lat="40.072842" lon="-105.230575">
  <ele>1586.09</ele>
  <time>2026-08-28T19:10:03Z</time>
  <course>278.09</course>
  <speed>0.0</speed>
  <fix>3d</fix>
</trkpt>
<trkpt lat="40.072842" lon="-105.230575">
  <ele>1586.16</ele>
  <time>2026-08-28T19:10:03Z</time>
  <course>11.27</course>
  <speed>0.0</speed>
  <fix>3d</fix>
</trkpt>
<trkpt lat="40.072842" lon="-105.230575">
  <ele>1586.09</ele>
  <time>2026-08-28T19:10:03Z</time>
  <course>235.77</course>
  <speed>0.0</speed>
  <fix>3d</fix>
</trkpt>
<trkpt lat="40.072842" lon="-105.230575">
  <ele>1586.16</ele>
  <time>2026-08-28T19:10:03Z</time>
  <course>11.25</course>
  <speed>0.01</speed>
  <fix>3d</fix>
</trkpt>
<trkpt lat="40.072842" lon="-105.230575">
  <ele>1586.09</ele>
  <time>2026-08-28T19:10:03Z</time>
  <course>50.2</course>
  <speed>0.0</speed>
  <fix>3d</fix>
</trkpt>
<trkpt lat="40.072842" lon="-105.230575">
  <ele>1586.16</ele>
  <time>2026-08-28T19:10:03Z</time>
  <course>11.23</course>
  <speed>0.01</speed>
  <fix>3d</fix>
</trkpt>
<trkpt lat="40.072842" lon="-105.230575">
  <ele>1586.09</ele>
  <time>2026-08-28T19:10:03Z</time>
  <course>287.96</course>
  <speed>0.0</speed>
  <fix>3d</fix>
</trkpt>
<trkpt lat="40.072842" lon="-105.230575">
  <ele>1586.16</ele>
  <time>2026-08-28T19:10:03Z</time>
  <course>11.21</course>
  <speed>0.01</speed>
  <fix>3d</fix>
</trkpt>
<trkpt lat="40.072842" lon="-105.230575">
  <ele>1586.09</ele>
  <time>2026-08-28T19:10:03Z</time>
  <course>308.88</course>
  <speed>0.0</speed>
  <fix>3d</fix>
</trkpt>
<trkpt lat="40.072842" lon="-105.230575">
  <ele>1586.16</ele>
  <time>2026-08-28T19:10:03Z</time>
  <course>11.19</course>
  <speed>0.01</speed>
  <fix>3d</fix>
</trkpt>
<trkpt lat="40.072842" lon="-105.230575">
  <ele>1586.09</ele>
  <time>2026-08-28T19:10:03Z</time>
  <course>276.84</course>
  <speed>0.0</speed>
  <fix>3d</fix>
</trkpt>
<trkpt lat="40.072842" lon="-105.230575">
  <ele>1586.15</ele>
  <time>2026-08-28T19:10:03Z</time>
  <course>11.17</course>
  <speed>0.01</speed>
  <fix>3d</fix>
</trkpt>
<trkpt lat="40.072842" lon="-105.230575">
  <ele>1586.09</ele>
  <time>2026-08-28T19:10:03Z</time>
  <course>226.04</course>
  <speed>0.0</speed>
  <fix>3d</fix>
</trkpt>
<trkpt lat="40.072842" lon="-105.230575">
  <ele>1586.16</ele>
  <time>2026-08-28T19:10:03Z</time>
  <course>11.14</course>
  <speed>0.01</speed>
  <fix>3d</fix>
</trkpt>
<trkpt lat="40.072842" lon="-105.230575">
  <ele>1586.09</ele>
  <time>2026-08-28T19:10:03Z</time>
  <course>277.71</course>
  <speed>0.0</speed>
  <fix>3d</fix>
</trkpt>
<trkpt lat="40.072842" lon="-105.230575">
  <ele>1586.16</ele>
  <time>2026-08-28T19:10:03Z</time>
  <course>11.12</course>
  <speed>0.01414213562373095</speed>
  <fix>3d</fix>
</trkpt>
<trkpt lat="40.072842" lon="-105.230575">
  <ele>1586.09</ele>
  <time>2026-08-28T19:10:03Z</time>
  <course>278.43</course>
  <speed>0.0</speed>
  <fix>3d</fix>
</trkpt>
<trkpt lat="40.072842" lon="-105.230575">
  <ele>1586.16</ele>
  <time>2026-08-28T19:10:03Z</time>
  <course>11.09</course>
  <speed>0.01414213562373095</speed>
  <fix>3d</fix>
</trkpt>
<trkpt lat="40.072842" lon="-105.230575">
  <ele>1586.09</ele>
  <time>2026-08-28T19:10:03Z</time>
  <course>271.45</course>
  <speed>0.0</speed>
  <fix>3d</fix>
</trkpt>
<trkpt lat="40.072842" lon="-105.230575">
  <ele>1586.16</ele>
  <time>2026-08-28T19:10:03Z</time>
  <course>11.07</course>
  <speed>0.01414213562373095</speed>
  <fix>3d</fix>
</trkpt>
<trkpt lat="40.072842" lon="-105.230575">
  <ele>1586.09</ele>
  <time>2026-08-28T19:10:03Z</time>
  <course>288.62</course>
  <speed>0.0</speed>
  <fix>3d</fix>
</trkpt>
<trkpt lat="40.072842" lon="-105.230575">
  <ele>1586.17</ele>
  <time>2026-08-28T19:10:03Z</time>
  <course>11.06</course>
  <speed>0.01414213562373095</speed>
  <fix>3d</fix>
</trkpt>
<trkpt lat="40.072842" lon="-105.230575">
  <ele>1586.09</ele>
  <time>2026-08-28T19:10:03Z</time>
  <course>298.25</course>
  <speed>0.0</speed>
  <fix>3d</fix>
</trkpt>
<trkpt lat="40.072842" lon="-105.230575">
  <ele>1586.17</ele>
  <time>2026-08-28T19:10:03Z</time>
  <course>11.06</course>
  <speed>0.01414213562373095</speed>
  <fix>3d</fix>
</trkpt>
<trkpt lat="40.072842" lon="-105.230575">
  <ele>1586.09</ele>
  <time>2026-08-28T19:10:03Z</time>
  <course>237.58</course>
  <speed>0.0</speed>
  <fix>3d</fix>
</trkpt>
<trkpt lat="40.0728419" lon="-105.230575">
  <ele>1586.17</ele>
  <time>2026-08-28T19:10:03Z</time>
  <course>11.06</course>
  <speed>0.022360679774997897</speed>
  <fix>3d</fix>
</trkpt>
<trkpt lat="40.072842" lon="-105.230575">
  <ele>1586.09</ele>
  <time>2026-08-28T19:10:03Z</time>
  <course>7.4</course>
  <speed>0.0</speed>
  <fix>3d</fix>
</trkpt>
<trkpt lat="40.0728419" lon="-105.230575">
  <ele>1586.17</ele>
  <time>2026-08-28T19:10:03Z</time>
  <course>11.06</course>
  <speed>0.022360679774997897</speed>
  <fix>3d</fix>
</trkpt>
<trkpt lat="40.072842" lon="-105.230575">
  <ele>1586.09</ele>
  <time>2026-08-28T19:10:03Z</time>
  <course>110.82</course>
  <speed>0.0</speed>
  <fix>3d</fix>
</trkpt>
<trkpt lat="40.0728419" lon="-105.2305749">
  <ele>1586.17</ele>
  <time>2026-08-28T19:10:03Z</time>
  <course>11.06</course>
  <speed>0.022360679774997897</speed>
  <fix>3d</fix>
</trkpt>
<trkpt lat="40.072842" lon="-105.230575">
  <ele>1586.09</ele>
  <time>2026-08-28T19:10:03Z</time>
  <course>103.82</course>
  <speed>0.0</speed>
  <fix>3d</fix>
</trkpt>
<trkpt lat="40.0728419" lon="-105.2305749">
  <ele>1586.17</ele>
  <time>2026-08-28T19:10:03Z</time>
  <course>11.06</course>
  <speed>0.022360679774997897</speed>
  <fix>3d</fix>
</trkpt>
<trkpt lat="40.072842" lon="-105.230575">
  <ele>1586.09</ele>
  <time>2026-08-28T19:10:03Z</time>
  <course>339.17</course>
  <speed>0.0</speed>
  <fix>3d</fix>
</trkpt>
<trkpt lat="40.0728419" lon="-105.2305749">
  <ele>1586.17</ele>
  <time>2026-08-28T19:10:03Z</time>
  <course>11.06</course>
  <speed>0.022360679774997897</speed>
  <fix>3d</fix>
</trkpt>
<trkpt lat="40.072842" lon="-105.230575">
  <ele>1586.09</ele>
  <time>2026-08-28T19:10:03Z</time>
  <course>274.26</course>
  <speed>0.0</speed>
  <fix>3d</fix>
</trkpt>
<trkpt lat="40.0728419" lon="-105.2305749">
  <ele>1586.17</ele>
  <time>2026-08-28T19:10:03Z</time>
  <course>11.06</course>
  <speed>0.01414213562373095</speed>
  <fix>3d</fix>
</trkpt>
<trkpt lat="40.072842" lon="-105.230575">
  <ele>1586.09</ele>
  <time>2026-08-28T19:10:03Z</time>
  <course>148.7</course>
  <speed>0.0</speed>
  <fix>3d</fix>
</trkpt>
<trkpt lat="40.0728419" lon="-105.2305749">
  <ele>1586.17</ele>
  <time>2026-08-28T19:10:03Z</time>
  <course>11.06</course>
  <speed>0.01414213562373095</speed>
  <fix>3d</fix>
</trkpt>
<trkpt lat="40.072842" lon="-105.230575">
  <ele>1586.09</ele>
  <time>2026-08-28T19:10:03Z</time>
  <course>52.69</course>
  <speed>0.0</speed>
  <fix>3d</fix>
</trkpt>
<trkpt lat="40.0728419" lon="-105.2305749">
  <ele>1586.17</ele>
  <time>2026-08-28T19:10:03Z</time>
  <course>11.06</course>
  <speed>0.01414213562373095</speed>
  <fix>3d</fix>
</trkpt>
<trkpt lat="40.072842" lon="-105.230575">
  <ele>1586.09</ele>
  <time>2026-08-28T19:10:03Z</time>
  <course>285.56</course>
  <speed>0.0</speed>
  <fix>3d</fix>
</trkpt>
<trkpt lat="40.0728419" lon="-105.230575">
  <ele>1586.17</ele>
  <time>2026-08-28T19:10:03Z</time>
  <course>11.06</course>
  <speed>0.01414213562373095</speed>
  <fix>3d</fix>
</trkpt>
<trkpt lat="40.072842" lon="-105.230575">
  <ele>1586.09</ele>
  <time>2026-08-28T19:10:03Z</time>
  <course>277.52</course>
  <speed>0.0</speed>
  <fix>3d</fix>
</trkpt>
<trkpt lat="40.0728419" lon="-105.230575">
  <ele>1586.16</ele>
  <time>2026-08-28T19:10:03Z</time>
  <course>11.06</course>
  <speed>0.01</speed>
  <fix>3d</fix>
</trkpt>
<trkpt lat="40.072842" lon="-105.230575">
  <ele>1586.09</ele>
  <time>2026-08-28T19:10:03Z</time>
  <course>279.94</course>
  <speed>0.0</speed>
  <fix>3d</fix>
</trkpt>
<trkpt lat="40.0728419" lon="-105.230575">
  <ele>1586.16</ele>
  <time>2026-08-28T19:10:03Z</time>
  <course>11.06</course>
  <speed>0.01</speed>
  <fix>3d</fix>
</trkpt>
<trkpt lat="40.072842" lon="-105.230575">
  <ele>1586.09</ele>
  <time>2026-08-28T19:10:03Z</time>
  <course>281.07</course>
  <speed>0.0</speed>
  <fix>3d</fix>
</trkpt>
<trkpt lat="40.072842" lon="-105.230575">
  <ele>1586.15</ele>
  <time>2026-08-28T19:10:03Z</time>
  <course>11.06</course>
  <speed>0.01</speed>
  <fix>3d</fix>
</trkpt>
<trkpt lat="40.072842" lon="-105.230575">
  <ele>1586.09</ele>
  <time>2026-08-28T19:10:03Z</time>
  <course>280.55</course>
  <speed>0.0</speed>
  <fix>3d</fix>
</trkpt>
<trkpt lat="40.072842" lon="-105.230575">
  <ele>1586.15</ele>
  <time>2026-08-28T19:10:03Z</time>
  <course>11.06</course>
  <speed>0.01</speed>
  <fix>3d</fix>
</trkpt>
<trkpt lat="40.072842" lon="-105.230575">
  <ele>1586.09</ele>
  <time>2026-08-28T19:10:03Z</time>
  <course>280.47</course>
  <speed>0.0</speed>
  <fix>3d</fix>
</trkpt>
<trkpt lat="40.072842" lon="-105.230575">
  <ele>1586.15</ele>
  <time>2026-08-28T19:10:03Z</time>
  <course>11.06</course>
  <speed>0.01</speed>
  <fix>3d</fix>
</trkpt>
<trkpt lat="40.072842" lon="-105.230575">
  <ele>1586.09</ele>
  <time>2026-08-28T19:10:03Z</time>
  <course>280.55</course>
  <speed>0.0</speed>
  <fix>3d</fix>
</trkpt>
<trkpt lat="40.072842" lon="-105.230575">
  <ele>1586.15</ele>
  <time>2026-08-28T19:10:03Z</time>
  <course>11.05</course>
  <speed>0.0</speed>
  <fix>3d</fix>
</trkpt>
<trkpt lat="40.072842" lon="-105.230575">
  <ele>1586.09</ele>
  <time>2026-08-28T19:10:03Z</time>
  <course>280.55</course>
  <speed>0.0</speed>
  <fix>3d</fix>
</trkpt>
<trkpt lat="40.072842" lon="-105.230575">
  <ele>1586.16</ele>
  <time>2026-08-28T19:10:03Z</time>
  <course>11.05</course>
  <speed>0.0</speed>
  <fix>3d</fix>
</trkpt>
<trkpt lat="40.072842" lon="-105.230575">
  <ele>1586.09</ele>
  <time>2026-08-28T19:10:03Z</time>
  <course>280.54</course>
  <speed>0.0</speed>
  <fix>3d</fix>
</trkpt>
<trkpt lat="40.072842" lon="-105.230575">
  <ele>1586.16</ele>
  <time>2026-08-28T19:10:03Z</time>
  <course>11.05</course>
  <speed>0.0</speed>
  <fix>3d</fix>
</trkpt>
<trkpt lat="40.072842" lon="-105.230575">
  <ele>1586.09</ele>
  <time>2026-08-28T19:10:03Z</time>
  <course>280.54</course>
  <speed>0.0</speed>
  <fix>3d</fix>
</trkpt>
<trkpt lat="40.072842" lon="-105.230575">
  <ele>1586.16</ele>
  <time>2026-08-28T19:10:03Z</time>
  <course>11.05</course>
  <speed>0.0</speed>
  <fix>3d</fix>
</trkpt>
<trkpt lat="40.072842" lon="-105.230575">
  <ele>1586.09</ele>
  <time>2026-08-28T19:10:03Z</time>
  <course>280.54</course>
  <speed>0.0</speed>
  <fix>3d</fix>
</trkpt>
<trkpt lat="40.072842" lon="-105.230575">
  <ele>1586.16</ele>
  <time>2026-08-28T19:10:03Z</time>
  <course>11.05</course>
  <speed>0.0</speed>
  <fix>3d</fix>
</trkpt>
<trkpt lat="40.072842" lon="-105.230575">
  <ele>1586.09</ele>
  <time>2026-08-28T19:10:03Z</time>
  <course>296.46</course>
  <speed>0.0</speed>
  <fix>3d</fix>
</trkpt>
<trkpt lat="40.072842" lon="-105.230575">
  <ele>1586.16</ele>
  <time>2026-08-28T19:10:03Z</time>
  <course>11.05</course>
  <speed>0.0</speed>
  <fix>3d</fix>
</trkpt>
<trkpt lat="40.072842" lon="-105.230575">
  <ele>1586.09</ele>
  <time>2026-08-28T19:10:03Z</time>
  <course>290.14</course>
  <speed>0.0</speed>
  <fix>3d</fix>
</trkpt>
<trkpt lat="40.072842" lon="-105.230575">
  <ele>1586.16</ele>
  <time>2026-08-28T19:10:03Z</time>
  <course>11.05</course>
  <speed>0.0</speed>
  <fix>3d</fix>
</trkpt>
<trkpt lat="40.072842" lon="-105.230575">
  <ele>1586.09</ele>
  <time>2026-08-28T19:10:03Z</time>
  <course>274.96</course>
  <speed>0.0</speed>
  <fix>3d</fix>
</trkpt>
<trkpt lat="40.072842" lon="-105.230575">
  <ele>1586.16</ele>
  <time>2026-08-28T19:10:03Z</time>
  <course>11.05</course>
  <speed>0.0</speed>
  <fix>3d</fix>
</trkpt>
<trkpt lat="40.072842" lon="-105.230575">
  <ele>1586.09</ele>
  <time>2026-08-28T19:10:03Z</time>
  <course>279.96</course>
  <speed>0.0</speed>
  <fix>3d</fix>
</trkpt>
<trkpt lat="40.072842" lon="-105.230575">
  <ele>1586.16</ele>
  <time>2026-08-28T19:10:03Z</time>
  <course>11.05</course>
  <speed>0.0</speed>
  <fix>3d</fix>
</trkpt>
<trkpt lat="40.072842" lon="-105.230575">
  <ele>1586.09</ele>
  <time>2026-08-28T19:10:03Z</time>
  <course>281.46</course>
  <speed>0.0</speed>
  <fix>3d</fix>
</trkpt>
<trkpt lat="40.072842" lon="-105.230575">
  <ele>1586.16</ele>
  <time>2026-08-28T19:10:03Z</time>
  <course>11.04</course>
  <speed>0.0</speed>
  <fix>3d</fix>
</trkpt>
<trkpt lat="40.072842" lon="-105.230575">
  <ele>1586.09</ele>
  <time>2026-08-28T19:10:03Z</time>
  <course>280.51</course>
  <speed>0.0</speed>
  <fix>3d</fix>
</trkpt>
<trkpt lat="40.072842" lon="-105.230575">
  <ele>1586.16</ele>
  <time>2026-08-28T19:10:03Z</time>
  <course>11.04</course>
  <speed>0.0</speed>
  <fix>3d</fix>
</trkpt>
<trkpt lat="40.072842" lon="-105.230575">
  <ele>1586.09</ele>
  <time>2026-08-28T19:10:03Z</time>
  <course>280.42</course>
  <speed>0.0</speed>
  <fix>3d</fix>
</trkpt>
<trkpt lat="40.072842" lon="-105.230575">
  <ele>1586.16</ele>
  <time>2026-08-28T19:10:03Z</time>
  <course>11.04</course>
  <speed>0.0</speed>
  <fix>3d</fix>
</trkpt>
<trkpt lat="40.072842" lon="-105.230575">
  <ele>1586.09</ele>
  <time>2026-08-28T19:10:03Z</time>
  <course>280.56</course>
  <speed>0.0</speed>
  <fix>3d</fix>
</trkpt>
<trkpt lat="40.072842" lon="-105.230575">
  <ele>1586.16</ele>
  <time>2026-08-28T19:10:03Z</time>
  <course>11.04</course>
  <speed>0.0</speed>
  <fix>3d</fix>
</trkpt>
<trkpt lat="40.072842" lon="-105.230575">
  <ele>1586.09</ele>
  <time>2026-08-28T19:10:03Z</time>
  <course>280.53</course>
  <speed>0.0</speed>
  <fix>3d</fix>
</trkpt>
<trkpt lat="40.072842" lon="-105.230575">
  <ele>1586.16</ele>
  <time>2026-08-28T19:10:03Z</time>
  <course>11.04</course>
  <speed>0.0</speed>
  <fix>3d</fix>
</trkpt>
<trkpt lat="40.072842" lon="-105.230575">
  <ele>1586.09</ele>
  <time>2026-08-28T19:10:03Z</time>
  <course>280.45</course>
  <speed>0.0</speed>
  <fix>3d</fix>
</trkpt>
<trkpt lat="40.072842" lon="-105.230575">
  <ele>1586.16</ele>
  <time>2026-08-28T19:10:04Z</time>
  <course>11.03</course>
  <speed>0.0</speed>
  <fix>3d</fix>
</trkpt>
<trkpt lat="40.072842" lon="-105.230575">
  <ele>1586.09</ele>
  <time>2026-08-28T19:10:04Z</time>
  <course>280.35</course>
  <speed>0.0</speed>
  <fix>3d</fix>
</trkpt>
<trkpt lat="40.072842" lon="-105.230575">
  <ele>1586.16</ele>
  <time>2026-08-28T19:10:04Z</time>
  <course>11.03</course>
  <speed>0.0</speed>
  <fix>3d</fix>
</trkpt>
<trkpt lat="40.072842" lon="-105.230575">
  <ele>1586.09</ele>
  <time>2026-08-28T19:10:04Z</time>
  <course>280.25</course>
  <speed>0.0</speed>
  <fix>3d</fix>
</trkpt>
<trkpt lat="40.072842" lon="-105.230575">
  <ele>1586.16</ele>
  <time>2026-08-28T19:10:04Z</time>
  <course>11.02</course>
  <speed>0.0</speed>
  <fix>3d</fix>
</trkpt>
<trkpt lat="40.072842" lon="-105.230575">
  <ele>1586.09</ele>
  <time>2026-08-28T19:10:04Z</time>
  <course>280.15</course>
  <speed>0.0</speed>
  <fix>3d</fix>
</trkpt>
<trkpt lat="40.072842" lon="-105.230575">
  <ele>1586.16</ele>
  <time>2026-08-28T19:10:04Z</time>
  <course>11.01</course>
  <speed>0.0</speed>
  <fix>3d</fix>
</trkpt>
<trkpt lat="40.072842" lon="-105.230575">
  <ele>1586.09</ele>
  <time>2026-08-28T19:10:04Z</time>
  <course>307.0</course>
  <speed>0.0</speed>
  <fix>3d</fix>
</trkpt>
<trkpt lat="40.072842" lon="-105.230575">
  <ele>1586.16</ele>
  <time>2026-08-28T19:10:04Z</time>
  <course>11.0</course>
  <speed>0.01</speed>
  <fix>3d</fix>
</trkpt>
<trkpt lat="40.072842" lon="-105.230575">
  <ele>1586.09</ele>
  <time>2026-08-28T19:10:04Z</time>
  <course>321.01</course>
  <speed>0.0</speed>
  <fix>3d</fix>
</trkpt>
<trkpt lat="40.072842" lon="-105.230575">
  <ele>1586.16</ele>
  <time>2026-08-28T19:10:04Z</time>
  <course>10.99</course>
  <speed>0.01</speed>
  <fix>3d</fix>
</trkpt>
<trkpt lat="40.072842" lon="-105.230575">
  <ele>1586.09</ele>
  <time>2026-08-28T19:10:04Z</time>
  <course>312.18</course>
  <speed>0.0</speed>
  <fix>3d</fix>
</trkpt>
<trkpt lat="40.072842" lon="-105.230575">
  <ele>1586.16</ele>
  <time>2026-08-28T19:10:04Z</time>
  <course>10.97</course>
  <speed>0.01</speed>
  <fix>3d</fix>
</trkpt>
<trkpt lat="40.072842" lon="-105.230575">
  <ele>1586.09</ele>
  <time>2026-08-28T19:10:04Z</time>
  <course>210.45</course>
  <speed>0.0</speed>
  <fix>3d</fix>
</trkpt>
<trkpt lat="40.072842" lon="-105.230575">
  <ele>1586.16</ele>
  <time>2026-08-28T19:10:04Z</time>
  <course>10.97</course>
  <speed>0.01</speed>
  <fix>3d</fix>
</trkpt>
<trkpt lat="40.072842" lon="-105.230575">
  <ele>1586.09</ele>
  <time>2026-08-28T19:10:04Z</time>
  <course>241.97</course>
  <speed>0.0</speed>
  <fix>3d</fix>
</trkpt>
<trkpt lat="40.072842" lon="-105.230575">
  <ele>1586.16</ele>
  <time>2026-08-28T19:10:04Z</time>
  <course>10.97</course>
  <speed>0.01</speed>
  <fix>3d</fix>
</trkpt>
<trkpt lat="40.072842" lon="-105.230575">
  <ele>1586.09</ele>
  <time>2026-08-28T19:10:04Z</time>
  <course>299.67</course>
  <speed>0.0</speed>
  <fix>3d</fix>
</trkpt>
<trkpt lat="40.072842" lon="-105.230575">
  <ele>1586.16</ele>
  <time>2026-08-28T19:10:04Z</time>
  <course>10.97</course>
  <speed>0.01</speed>
  <fix>3d</fix>
</trkpt>
<trkpt lat="40.072842" lon="-105.230575">
  <ele>1586.09</ele>
  <time>2026-08-28T19:10:04Z</time>
  <course>290.34</course>
  <speed>0.0</speed>
  <fix>3d</fix>
</trkpt>
<trkpt lat="40.072842" lon="-105.230575">
  <ele>1586.16</ele>
  <time>2026-08-28T19:10:04Z</time>
  <course>10.97</course>
  <speed>0.01</speed>
  <fix>3d</fix>
</trkpt>
<trkpt lat="40.072842" lon="-105.230575">
  <ele>1586.09</ele>
  <time>2026-08-28T19:10:04Z</time>
  <course>288.6</course>
  <speed>0.0</speed>
  <fix>3d</fix>
</trkpt>
<trkpt lat="40.072842" lon="-105.230575">
  <ele>1586.16</ele>
  <time>2026-08-28T19:10:04Z</time>
  <course>10.97</course>
  <speed>0.01</speed>
  <fix>3d</fix>
</trkpt>
<trkpt lat="40.072842" lon="-105.230575">
  <ele>1586.09</ele>
  <time>2026-08-28T19:10:04Z</time>
  <course>294.3</course>
  <speed>0.0</speed>
  <fix>3d</fix>
</trkpt>
<trkpt lat="40.072842" lon="-105.230575">
  <ele>1586.16</ele>
  <time>2026-08-28T19:10:04Z</time>
  <course>10.97</course>
  <speed>0.01414213562373095</speed>
  <fix>3d</fix>
</trkpt>
<trkpt lat="40.072842" lon="-105.230575">
  <ele>1586.09</ele>
  <time>2026-08-28T19:10:04Z</time>
  <course>265.26</course>
  <speed>0.0</speed>
  <fix>3d</fix>
</trkpt>
<trkpt lat="40.072842" lon="-105.230575">
  <ele>1586.16</ele>
  <time>2026-08-28T19:10:04Z</time>
  <course>10.97</course>
  <speed>0.01414213562373095</speed>
  <fix>3d</fix>
</trkpt>
<trkpt lat="40.072842" lon="-105.230575">
  <ele>1586.09</ele>
  <time>2026-08-28T19:10:04Z</time>
  <course>257.98</course>
  <speed>0.0</speed>
  <fix>3d</fix>
</trkpt>
<trkpt lat="40.072842" lon="-105.230575">
  <ele>1586.15</ele>
  <time>2026-08-28T19:10:04Z</time>
  <course>10.97</course>
  <speed>0.01414213562373095</speed>
  <fix>3d</fix>
</trkpt>
<trkpt lat="40.072842" lon="-105.230575">
  <ele>1586.09</ele>
  <time>2026-08-28T19:10:04Z</time>
  <course>10.89</course>
  <speed>0.0</speed>
  <fix>3d</fix>
</trkpt>
<trkpt lat="40.072842" lon="-105.230575">
  <ele>1586.15</ele>
  <time>2026-08-28T19:10:04Z</time>
  <course>10.97</course>
  <speed>0.01414213562373095</speed>
  <fix>3d</fix>
</trkpt>
<trkpt lat="40.072842" lon="-105.230575">
  <ele>1586.09</ele>
  <time>2026-08-28T19:10:04Z</time>
  <course>313.54</course>
  <speed>0.0</speed>
  <fix>3d</fix>
</trkpt>
<trkpt lat="40.072842" lon="-105.230575">
  <ele>1586.15</ele>
  <time>2026-08-28T19:10:04Z</time>
  <course>10.97</course>
  <speed>0.01414213562373095</speed>
  <fix>3d</fix>
</trkpt>
<trkpt lat="40.072842" lon="-105.230575">
  <ele>1586.09</ele>
  <time>2026-08-28T19:10:04Z</time>
  <course>284.1</course>
  <speed>0.0</speed>
  <fix>3d</fix>
</trkpt>
<trkpt lat="40.072842" lon="-105.230575">
  <ele>1586.15</ele>
  <time>2026-08-28T19:10:04Z</time>
  <course>10.97</course>
  <speed>0.01414213562373095</speed>
  <fix>3d</fix>
</trkpt>
<trkpt lat="40.072842" lon="-105.230575">
  <ele>1586.09</ele>
  <time>2026-08-28T19:10:04Z</time>
  <course>224.19</course>
  <speed>0.0</speed>
  <fix>3d</fix>
</trkpt>
<trkpt lat="40.072842" lon="-105.230575">
  <ele>1586.15</ele>
  <time>2026-08-28T19:10:04Z</time>
  <course>10.98</course>
  <speed>0.01414213562373095</speed>
  <fix>3d</fix>
</trkpt>
<trkpt lat="40.072842" lon="-105.230575">
  <ele>1586.09</ele>
  <time>2026-08-28T19:10:04Z</time>
  <course>52.76</course>
  <speed>0.0</speed>
  <fix>3d</fix>
</trkpt>
<trkpt lat="40.0728419" lon="-105.230575">
  <ele>1586.15</ele>
  <time>2026-08-28T19:10:04Z</time>
  <course>10.98</course>
  <speed>0.01414213562373095</speed>
  <fix>3d</fix>
</trkpt>
<trkpt lat="40.072842" lon="-105.230575">
  <ele>1586.09</ele>
  <time>2026-08-28T19:10:04Z</time>
  <course>281.38</course>
  <speed>0.0</speed>
  <fix>3d</fix>
</trkpt>
<trkpt lat="40.0728419" lon="-105.230575">
  <ele>1586.15</ele>
  <time>2026-08-28T19:10:04Z</time>
  <course>10.97</course>
  <speed>0.022360679774997897</speed>
  <fix>3d</fix>
</trkpt>
<trkpt lat="40.072842" lon="-105.230575">
  <ele>1586.09</ele>
  <time>2026-08-28T19:10:04Z</time>
  <course>261.62</course>
  <speed>0.0</speed>
  <fix>3d</fix>
</trkpt>
<trkpt lat="40.0728419" lon="-105.230575">
  <ele>1586.16</ele>
  <time>2026-08-28T19:10:04Z</time>
  <course>10.97</course>
  <speed>0.022360679774997897</speed>
  <fix>3d</fix>
</trkpt>
<trkpt lat="40.072842" lon="-105.230575">
  <ele>1586.09</ele>
  <time>2026-08-28T19:10:04Z</time>
  <course>179.88</course>
  <speed>0.0</speed>
  <fix>3d</fix>
</trkpt>
<trkpt lat="40.0728419" lon="-105.2305749">
  <ele>1586.16</ele>
  <time>2026-08-28T19:10:04Z</time>
  <course>10.97</course>
  <speed>0.022360679774997897</speed>
  <fix>3d</fix>
</trkpt>
<trkpt lat="40.072842" lon="-105.230575">
  <ele>1586.09</ele>
  <time>2026-08-28T19:10:04Z</time>
  <course>309.96</course>
  <speed>0.0</speed>
  <fix>3d</fix>
</trkpt>
<trkpt lat="40.0728419" lon="-105.2305749">
  <ele>1586.16</ele>
  <time>2026-08-28T19:10:04Z</time>
  <course>10.96</course>
  <speed>0.022360679774997897</speed>
  <fix>3d</fix>
</trkpt>
<trkpt lat="40.072842" lon="-105.230575">
  <ele>1586.09</ele>
  <time>2026-08-28T19:10:04Z</time>
  <course>298.89</course>
  <speed>0.0</speed>
  <fix>3d</fix>
</trkpt>
<trkpt lat="40.0728419" lon="-105.2305749">
  <ele>1586.16</ele>
  <time>2026-08-28T19:10:04Z</time>
  <course>10.95</course>
  <speed>0.022360679774997897</speed>
  <fix>3d</fix>
</trkpt>
<trkpt lat="40.072842" lon="-105.230575">
  <ele>1586.09</ele>
  <time>2026-08-28T19:10:04Z</time>
  <course>297.24</course>
  <speed>0.0</speed>
  <fix>3d</fix>
</trkpt>
<trkpt lat="40.0728419" lon="-105.2305749">
  <ele>1586.17</ele>
  <time>2026-08-28T19:10:04Z</time>
  <course>10.95</course>
  <speed>0.022360679774997897</speed>
  <fix>3d</fix>
</trkpt>
<trkpt lat="40.072842" lon="-105.230575">
  <ele>1586.09</ele>
  <time>2026-08-28T19:10:04Z</time>
  <course>234.97</course>
  <speed>0.0</speed>
  <fix>3d</fix>
</trkpt>
<trkpt lat="40.0728419" lon="-105.2305749">
  <ele>1586.17</ele>
  <time>2026-08-28T19:10:04Z</time>
  <course>10.93</course>
  <speed>0.022360679774997897</speed>
  <fix>3d</fix>
</trkpt>
<trkpt lat="40.072842" lon="-105.230575">
  <ele>1586.09</ele>
  <time>2026-08-28T19:10:04Z</time>
  <course>266.88</course>
  <speed>0.0</speed>
  <fix>3d</fix>
</trkpt>
<trkpt lat="40.0728419" lon="-105.2305749">
  <ele>1586.17</ele>
  <time>2026-08-28T19:10:04Z</time>
  <course>10.92</course>
  <speed>0.022360679774997897</speed>
  <fix>3d</fix>
</trkpt>
<trkpt lat="40.072842" lon="-105.230575">
  <ele>1586.09</ele>
  <time>2026-08-28T19:10:04Z</time>
  <course>296.97</course>
  <speed>0.0</speed>
  <fix>3d</fix>
</trkpt>
<trkpt lat="40.0728419" lon="-105.2305749">
  <ele>1586.17</ele>
  <time>2026-08-28T19:10:04Z</time>
  <course>10.91</course>
  <speed>0.022360679774997897</speed>
  <fix>3d</fix>
</trkpt>
<trkpt lat="40.072842" lon="-105.230575">
  <ele>1586.09</ele>
  <time>2026-08-28T19:10:04Z</time>
  <course>318.37</course>
  <speed>0.0</speed>
  <fix>3d</fix>
</trkpt>
<trkpt lat="40.0728419" lon="-105.2305749">
  <ele>1586.17</ele>
  <time>2026-08-28T19:10:04Z</time>
  <course>10.89</course>
  <speed>0.022360679774997897</speed>
  <fix>3d</fix>
</trkpt>
<trkpt lat="40.072842" lon="-105.230575">
  <ele>1586.09</ele>
  <time>2026-08-28T19:10:04Z</time>
  <course>283.27</course>
  <speed>0.0</speed>
  <fix>3d</fix>
</trkpt>
<trkpt lat="40.0728419" lon="-105.2305749">
  <ele>1586.17</ele>
  <time>2026-08-28T19:10:04Z</time>
  <course>10.88</course>
  <speed>0.022360679774997897</speed>
  <fix>3d</fix>
</trkpt>
<trkpt lat="40.072842" lon="-105.230575">
  <ele>1586.09</ele>
  <time>2026-08-28T19:10:04Z</time>
  <course>270.38</course>
  <speed>0.0</speed>
  <fix>3d</fix>
</trkpt>
<trkpt lat="40.0728419" lon="-105.2305749">
  <ele>1586.17</ele>
  <time>2026-08-28T19:10:04Z</time>
  <course>10.86</course>
  <speed>0.022360679774997897</speed>
  <fix>3d</fix>
</trkpt>
<trkpt lat="40.072842" lon="-105.230575">
  <ele>1586.09</ele>
  <time>2026-08-28T19:10:04Z</time>
  <course>313.07</course>
  <speed>0.0</speed>
  <fix>3d</fix>
</trkpt>
<trkpt lat="40.0728419" lon="-105.2305749">
  <ele>1586.17</ele>
  <time>2026-08-28T19:10:04Z</time>
  <course>10.84</course>
  <speed>0.022360679774997897</speed>
  <fix>3d</fix>
</trkpt>
<trkpt lat="40.072842" lon="-105.230575">
  <ele>1586.09</ele>
  <time>2026-08-28T19:10:04Z</time>
  <course>310.03</course>
  <speed>0.0</speed>
  <fix>3d</fix>
</trkpt>
<trkpt lat="40.0728419" lon="-105.2305749">
  <ele>1586.17</ele>
  <time>2026-08-28T19:10:04Z</time>
  <course>10.82</course>
  <speed>0.022360679774997897</speed>
  <fix>3d</fix>
</trkpt>
<trkpt lat="40.072842" lon="-105.230575">
  <ele>1586.09</ele>
  <time>2026-08-28T19:10:04Z</time>
  <course>270.99</course>
  <speed>0.0</speed>
  <fix>3d</fix>
</trkpt>
<trkpt lat="40.0728419" lon="-105.2305749">
  <ele>1586.17</ele>
  <time>2026-08-28T19:10:04Z</time>
  <course>10.79</course>
  <speed>0.022360679774997897</speed>
  <fix>3d</fix>
</trkpt>
<trkpt lat="40.072842" lon="-105.230575">
  <ele>1586.09</ele>
  <time>2026-08-28T19:10:04Z</time>
  <course>260.99</course>
  <speed>0.0</speed>
  <fix>3d</fix>
</trkpt>
<trkpt lat="40.0728419" lon="-105.2305749">
  <ele>1586.17</ele>
  <time>2026-08-28T19:10:04Z</time>
  <course>10.77</course>
  <speed>0.022360679774997897</speed>
  <fix>3d</fix>
</trkpt>
<trkpt lat="40.072842" lon="-105.230575">
  <ele>1586.09</ele>
  <time>2026-08-28T19:10:04Z</time>
  <course>328.56</course>
  <speed>0.0</speed>
  <fix>3d</fix>
</trkpt>
<trkpt lat="40.0728419" lon="-105.2305749">
  <ele>1586.17</ele>
  <time>2026-08-28T19:10:04Z</time>
  <course>10.74</course>
  <speed>0.022360679774997897</speed>
  <fix>3d</fix>
</trkpt>
<trkpt lat="40.072842" lon="-105.230575">
  <ele>1586.09</ele>
  <time>2026-08-28T19:10:04Z</time>
  <course>301.12</course>
  <speed>0.0</speed>
  <fix>3d</fix>
</trkpt>
<trkpt lat="40.0728419" lon="-105.2305749">
  <ele>1586.17</ele>
  <time>2026-08-28T19:10:04Z</time>
  <course>10.71</course>
  <speed>0.022360679774997897</speed>
  <fix>3d</fix>
</trkpt>
<trkpt lat="40.072842" lon="-105.230575">
  <ele>1586.09</ele>
  <time>2026-08-28T19:10:04Z</time>
  <course>275.38</course>
  <speed>0.0</speed>
  <fix>3d</fix>
</trkpt>
<trkpt lat="40.0728419" lon="-105.2305749">
  <ele>1586.17</ele>
  <time>2026-08-28T19:10:04Z</time>
  <course>10.68</course>
  <speed>0.022360679774997897</speed>
  <fix>3d</fix>
</trkpt>
<trkpt lat="40.072842" lon="-105.230575">
  <ele>1586.09</ele>
  <time>2026-08-28T19:10:04Z</time>
  <course>255.76</course>
  <speed>0.0</speed>
  <fix>3d</fix>
</trkpt>
<trkpt lat="40.0728419" lon="-105.2305749">
  <ele>1586.17</ele>
  <time>2026-08-28T19:10:04Z</time>
  <course>10.65</course>
  <speed>0.022360679774997897</speed>
  <fix>3d</fix>
</trkpt>
<trkpt lat="40.072842" lon="-105.230575">
  <ele>1586.09</ele>
  <time>2026-08-28T19:10:04Z</time>
  <course>288.63</course>
  <speed>0.0</speed>
  <fix>3d</fix>
</trkpt>
<trkpt lat="40.0728419" lon="-105.2305749">
  <ele>1586.17</ele>
  <time>2026-08-28T19:10:04Z</time>
  <course>10.62</course>
  <speed>0.022360679774997897</speed>
  <fix>3d</fix>
</trkpt>
<trkpt lat="40.072842" lon="-105.230575">
  <ele>1586.09</ele>
  <time>2026-08-28T19:10:04Z</time>
  <course>289.0</course>
  <speed>0.0</speed>
  <fix>3d</fix>
</trkpt>
<trkpt lat="40.0728419" lon="-105.2305749">
  <ele>1586.17</ele>
  <time>2026-08-28T19:10:04Z</time>
  <course>10.59</course>
  <speed>0.022360679774997897</speed>
  <fix>3d</fix>
</trkpt>
<trkpt lat="40.072842" lon="-105.230575">
  <ele>1586.09</ele>
  <time>2026-08-28T19:10:04Z</time>
  <course>281.67</course>
  <speed>0.0</speed>
  <fix>3d</fix>
</trkpt>
<trkpt lat="40.0728419" lon="-105.2305749">
  <ele>1586.17</ele>
  <time>2026-08-28T19:10:04Z</time>
  <course>10.55</course>
  <speed>0.022360679774997897</speed>
  <fix>3d</fix>
</trkpt>
<trkpt lat="40.072842" lon="-105.230575">
  <ele>1586.09</ele>
  <time>2026-08-28T19:10:04Z</time>
  <course>257.07</course>
  <speed>0.0</speed>
  <fix>3d</fix>
</trkpt>
<trkpt lat="40.0728419" lon="-105.2305749">
  <ele>1586.17</ele>
  <time>2026-08-28T19:10:04Z</time>
  <course>10.53</course>
  <speed>0.022360679774997897</speed>
  <fix>3d</fix>
</trkpt>
<trkpt lat="40.072842" lon="-105.230575">
  <ele>1586.09</ele>
  <time>2026-08-28T19:10:04Z</time>
  <course>250.93</course>
  <speed>0.0</speed>
  <fix>3d</fix>
</trkpt>
<trkpt lat="40.0728419" lon="-105.2305749">
  <ele>1586.17</ele>
  <time>2026-08-28T19:10:04Z</time>
  <course>10.51</course>
  <speed>0.0282842712474619</speed>
  <fix>3d</fix>
</trkpt>
<trkpt lat="40.072842" lon="-105.230575">
  <ele>1586.09</ele>
  <time>2026-08-28T19:10:04Z</time>
  <course>277.87</course>
  <speed>0.0</speed>
  <fix>3d</fix>
</trkpt>
<trkpt lat="40.0728419" lon="-105.2305749">
  <ele>1586.15</ele>
  <time>2026-08-28T19:10:04Z</time>
  <course>10.51</course>
  <speed>0.022360679774997897</speed>
  <fix>3d</fix>
</trkpt>
<trkpt lat="40.072842" lon="-105.230575">
  <ele>1586.09</ele>
  <time>2026-08-28T19:10:04Z</time>
  <course>102.45</course>
  <speed>0.0</speed>
  <fix>3d</fix>
</trkpt>
<trkpt lat="40.0728419" lon="-105.2305749">
  <ele>1586.14</ele>
  <time>2026-08-28T19:10:04Z</time>
  <course>10.51</course>
  <speed>0.022360679774997897</speed>
  <fix>3d</fix>
</trkpt>
<trkpt lat="40.072842" lon="-105.230575">
  <ele>1586.09</ele>
  <time>2026-08-28T19:10:04Z</time>
  <course>99.2</course>
  <speed>0.0</speed>
  <fix>3d</fix>
</trkpt>
<trkpt lat="40.0728419" lon="-105.2305749">
  <ele>1586.14</ele>
  <time>2026-08-28T19:10:04Z</time>
  <course>10.51</course>
  <speed>0.022360679774997897</speed>
  <fix>3d</fix>
</trkpt>
<trkpt lat="40.072842" lon="-105.230575">
  <ele>1586.09</ele>
  <time>2026-08-28T19:10:04Z</time>
  <course>317.72</course>
  <speed>0.0</speed>
  <fix>3d</fix>
</trkpt>
<trkpt lat="40.0728419" lon="-105.2305749">
  <ele>1586.14</ele>
  <time>2026-08-28T19:10:04Z</time>
  <course>10.51</course>
  <speed>0.022360679774997897</speed>
  <fix>3d</fix>
</trkpt>
<trkpt lat="40.072842" lon="-105.230575">
  <ele>1586.09</ele>
  <time>2026-08-28T19:10:04Z</time>
  <course>271.86</course>
  <speed>0.0</speed>
  <fix>3d</fix>
</trkpt>
<trkpt lat="40.0728419" lon="-105.2305749">
  <ele>1586.15</ele>
  <time>2026-08-28T19:10:04Z</time>
  <course>10.51</course>
  <speed>0.022360679774997897</speed>
  <fix>3d</fix>
</trkpt>
<trkpt lat="40.072842" lon="-105.230575">
  <ele>1586.09</ele>
  <time>2026-08-28T19:10:04Z</time>
  <course>121.82</course>
  <speed>0.0</speed>
  <fix>3d</fix>
</trkpt>
<trkpt lat="40.0728419" lon="-105.2305749">
  <ele>1586.15</ele>
  <time>2026-08-28T19:10:04Z</time>
  <course>10.51</course>
  <speed>0.022360679774997897</speed>
  <fix>3d</fix>
</trkpt>
<trkpt lat="40.072842" lon="-105.230575">
  <ele>1586.09</ele>
  <time>2026-08-28T19:10:04Z</time>
  <course>60.64</course>
  <speed>0.0</speed>
  <fix>3d</fix>
</trkpt>
<trkpt lat="40.0728419" lon="-105.2305749">
  <ele>1586.16</ele>
  <time>2026-08-28T19:10:04Z</time>
  <course>10.51</course>
  <speed>0.022360679774997897</speed>
  <fix>3d</fix>
</trkpt>
<trkpt lat="40.072842" lon="-105.230575">
  <ele>1586.09</ele>
  <time>2026-08-28T19:10:04Z</time>
  <course>279.07</course>
  <speed>0.0</speed>
  <fix>3d</fix>
</trkpt>
<trkpt lat="40.0728419" lon="-105.2305749">
  <ele>1586.17</ele>
  <time>2026-08-28T19:10:04Z</time>
  <course>10.52</course>
  <speed>0.01414213562373095</speed>
  <fix>3d</fix>
</trkpt>
<trkpt lat="40.072842" lon="-105.230575">
  <ele>1586.09</ele>
  <time>2026-08-28T19:10:04Z</time>
  <course>77.03</course>
  <speed>0.0</speed>
  <fix>3d</fix>
</trkpt>
<trkpt lat="40.0728419" lon="-105.2305749">
  <ele>1586.17</ele>
  <time>2026-08-28T19:10:04Z</time>
  <course>10.52</course>
  <speed>0.01414213562373095</speed>
  <fix>3d</fix>
</trkpt>
<trkpt lat="40.072842" lon="-105.230575">
  <ele>1586.09</ele>
  <time>2026-08-28T19:10:04Z</time>
  <course>64.38</course>
  <speed>0.0</speed>
  <fix>3d</fix>
</trkpt>
<trkpt lat="40.0728419" lon="-105.2305749">
  <ele>1586.17</ele>
  <time>2026-08-28T19:10:04Z</time>
  <course>10.52</course>
  <speed>0.01414213562373095</speed>
  <fix>3d</fix>
</trkpt>
<trkpt lat="40.072842" lon="-105.230575">
  <ele>1586.09</ele>
  <time>2026-08-28T19:10:04Z</time>
  <course>285.75</course>
  <speed>0.0</speed>
  <fix>3d</fix>
</trkpt>
<trkpt lat="40.0728419" lon="-105.2305749">
  <ele>1586.18</ele>
  <time>2026-08-28T19:10:04Z</time>
  <course>10.52</course>
  <speed>0.01414213562373095</speed>
  <fix>3d</fix>
</trkpt>
<trkpt lat="40.072842" lon="-105.230575">
  <ele>1586.09</ele>
  <time>2026-08-28T19:10:04Z</time>
  <course>270.18</course>
  <speed>0.0</speed>
  <fix>3d</fix>
</trkpt>
<trkpt lat="40.0728419" lon="-105.2305749">
  <ele>1586.19</ele>
  <time>2026-08-28T19:10:04Z</time>
  <course>10.52</course>
  <speed>0.01414213562373095</speed>
  <fix>3d</fix>
</trkpt>
<trkpt lat="40.072842" lon="-105.230575">
  <ele>1586.09</ele>
  <time>2026-08-28T19:10:04Z</time>
  <course>296.03</course>
  <speed>0.0</speed>
  <fix>3d</fix>
</trkpt>
<trkpt lat="40.0728419" lon="-105.2305749">
  <ele>1586.2</ele>
  <time>2026-08-28T19:10:04Z</time>
  <course>10.52</course>
  <speed>0.01</speed>
  <fix>3d</fix>
</trkpt>
<trkpt lat="40.072842" lon="-105.230575">
  <ele>1586.09</ele>
  <time>2026-08-28T19:10:04Z</time>
  <course>289.88</course>
  <speed>0.0</speed>
  <fix>3d</fix>
</trkpt>
<trkpt lat="40.0728419" lon="-105.2305749">
  <ele>1586.2</ele>
  <time>2026-08-28T19:10:04Z</time>
  <course>10.52</course>
  <speed>0.01</speed>
  <fix>3d</fix>
</trkpt>
<trkpt lat="40.072842" lon="-105.230575">
  <ele>1586.09</ele>
  <time>2026-08-28T19:10:04Z</time>
  <course>289.73</course>
  <speed>0.0</speed>
  <fix>3d</fix>
</trkpt>
<trkpt lat="40.0728419" lon="-105.2305749">
  <ele>1586.21</ele>
  <time>2026-08-28T19:10:04Z</time>
  <course>10.52</course>
  <speed>0.01</speed>
  <fix>3d</fix>
</trkpt>
<trkpt lat="40.072842" lon="-105.230575">
  <ele>1586.09</ele>
  <time>2026-08-28T19:10:04Z</time>
  <course>289.68</course>
  <speed>0.0</speed>
  <fix>3d</fix>
</trkpt>
<trkpt lat="40.0728419" lon="-105.2305749">
  <ele>1586.21</ele>
  <time>2026-08-28T19:10:04Z</time>
  <course>10.52</course>
  <speed>0.01</speed>
  <fix>3d</fix>
</trkpt>
<trkpt lat="40.072842" lon="-105.230575">
  <ele>1586.09</ele>
  <time>2026-08-28T19:10:04Z</time>
  <course>289.71</course>
  <speed>0.0</speed>
  <fix>3d</fix>
</trkpt>
<trkpt lat="40.0728419" lon="-105.2305749">
  <ele>1586.21</ele>
  <time>2026-08-28T19:10:04Z</time>
  <course>10.52</course>
  <speed>0.01</speed>
  <fix>3d</fix>
</trkpt>
<trkpt lat="40.072842" lon="-105.230575">
  <ele>1586.09</ele>
  <time>2026-08-28T19:10:04Z</time>
  <course>289.71</course>
  <speed>0.0</speed>
  <fix>3d</fix>
</trkpt>
<trkpt lat="40.0728419" lon="-105.2305749">
  <ele>1586.21</ele>
  <time>2026-08-28T19:10:04Z</time>
  <course>10.52</course>
  <speed>0.01</speed>
  <fix>3d</fix>
</trkpt>
<trkpt lat="40.072842" lon="-105.230575">
  <ele>1586.09</ele>
  <time>2026-08-28T19:10:04Z</time>
  <course>289.71</course>
  <speed>0.0</speed>
  <fix>3d</fix>
</trkpt>
<trkpt lat="40.0728419" lon="-105.2305749">
  <ele>1586.21</ele>
  <time>2026-08-28T19:10:04Z</time>
  <course>10.52</course>
  <speed>0.01</speed>
  <fix>3d</fix>
</trkpt>
<trkpt lat="40.072842" lon="-105.230575">
  <ele>1586.09</ele>
  <time>2026-08-28T19:10:04Z</time>
  <course>289.71</course>
  <speed>0.0</speed>
  <fix>3d</fix>
</trkpt>
<trkpt lat="40.0728419" lon="-105.2305749">
  <ele>1586.2</ele>
  <time>2026-08-28T19:10:04Z</time>
  <course>10.52</course>
  <speed>0.01</speed>
  <fix>3d</fix>
</trkpt>
<trkpt lat="40.072842" lon="-105.230575">
  <ele>1586.09</ele>
  <time>2026-08-28T19:10:04Z</time>
  <course>289.71</course>
  <speed>0.0</speed>
  <fix>3d</fix>
</trkpt>
<trkpt lat="40.0728419" lon="-105.2305749">
  <ele>1586.2</ele>
  <time>2026-08-28T19:10:04Z</time>
  <course>10.52</course>
  <speed>0.01</speed>
  <fix>3d</fix>
</trkpt>
<trkpt lat="40.072842" lon="-105.230575">
  <ele>1586.09</ele>
  <time>2026-08-28T19:10:04Z</time>
  <course>289.71</course>
  <speed>0.0</speed>
  <fix>3d</fix>
</trkpt>
<trkpt lat="40.0728419" lon="-105.2305749">
  <ele>1586.2</ele>
  <time>2026-08-28T19:10:04Z</time>
  <course>10.52</course>
  <speed>0.01</speed>
  <fix>3d</fix>
</trkpt>
<trkpt lat="40.072842" lon="-105.230575">
  <ele>1586.09</ele>
  <time>2026-08-28T19:10:04Z</time>
  <course>289.71</course>
  <speed>0.0</speed>
  <fix>3d</fix>
</trkpt>
<trkpt lat="40.0728419" lon="-105.2305749">
  <ele>1586.19</ele>
  <time>2026-08-28T19:10:04Z</time>
  <course>10.52</course>
  <speed>0.01414213562373095</speed>
  <fix>3d</fix>
</trkpt>
<trkpt lat="40.072842" lon="-105.230575">
  <ele>1586.09</ele>
  <time>2026-08-28T19:10:04Z</time>
  <course>289.71</course>
  <speed>0.0</speed>
  <fix>3d</fix>
</trkpt>
<trkpt lat="40.0728419" lon="-105.2305749">
  <ele>1586.19</ele>
  <time>2026-08-28T19:10:04Z</time>
  <course>10.52</course>
  <speed>0.01414213562373095</speed>
  <fix>3d</fix>
</trkpt>
<trkpt lat="40.072842" lon="-105.230575">
  <ele>1586.09</ele>
  <time>2026-08-28T19:10:04Z</time>
  <course>289.71</course>
  <speed>0.0</speed>
  <fix>3d</fix>
</trkpt>
<trkpt lat="40.0728419" lon="-105.2305749">
  <ele>1586.2</ele>
  <time>2026-08-28T19:10:04Z</time>
  <course>10.52</course>
  <speed>0.01414213562373095</speed>
  <fix>3d</fix>
</trkpt>
<trkpt lat="40.072842" lon="-105.230575">
  <ele>1586.09</ele>
  <time>2026-08-28T19:10:04Z</time>
  <course>289.71</course>
  <speed>0.0</speed>
  <fix>3d</fix>
</trkpt>
<trkpt lat="40.0728419" lon="-105.2305749">
  <ele>1586.2</ele>
  <time>2026-08-28T19:10:04Z</time>
  <course>10.52</course>
  <speed>0.01414213562373095</speed>
  <fix>3d</fix>
</trkpt>
<trkpt lat="40.072842" lon="-105.230575">
  <ele>1586.09</ele>
  <time>2026-08-28T19:10:04Z</time>
  <course>289.71</course>
  <speed>0.0</speed>
  <fix>3d</fix>
</trkpt>
<trkpt lat="40.0728419" lon="-105.2305749">
  <ele>1586.2</ele>
  <time>2026-08-28T19:10:04Z</time>
  <course>10.52</course>
  <speed>0.01414213562373095</speed>
  <fix>3d</fix>
</trkpt>
<trkpt lat="40.072842" lon="-105.230575">
  <ele>1586.09</ele>
  <time>2026-08-28T19:10:04Z</time>
  <course>289.71</course>
  <speed>0.0</speed>
  <fix>3d</fix>
</trkpt>
<trkpt lat="40.0728419" lon="-105.2305749">
  <ele>1586.2</ele>
  <time>2026-08-28T19:10:04Z</time>
  <course>10.52</course>
  <speed>0.01414213562373095</speed>
  <fix>3d</fix>
</trkpt>
<trkpt lat="40.072842" lon="-105.230575">
  <ele>1586.09</ele>
  <time>2026-08-28T19:10:04Z</time>
  <course>271.23</course>
  <speed>0.0</speed>
  <fix>3d</fix>
</trkpt>
<trkpt lat="40.0728419" lon="-105.2305749">
  <ele>1586.2</ele>
  <time>2026-08-28T19:10:04Z</time>
  <course>10.52</course>
  <speed>0.01414213562373095</speed>
  <fix>3d</fix>
</trkpt>
<trkpt lat="40.072842" lon="-105.230575">
  <ele>1586.09</ele>
  <time>2026-08-28T19:10:04Z</time>
  <course>264.02</course>
  <speed>0.0</speed>
  <fix>3d</fix>
</trkpt>
<trkpt lat="40.0728419" lon="-105.2305749">
  <ele>1586.2</ele>
  <time>2026-08-28T19:10:04Z</time>
  <course>10.52</course>
  <speed>0.01414213562373095</speed>
  <fix>3d</fix>
</trkpt>
<trkpt lat="40.072842" lon="-105.230575">
  <ele>1586.09</ele>
  <time>2026-08-28T19:10:04Z</time>
  <course>203.76</course>
  <speed>0.0</speed>
  <fix>3d</fix>
</trkpt>
<trkpt lat="40.0728419" lon="-105.2305749">
  <ele>1586.2</ele>
  <time>2026-08-28T19:10:04Z</time>
  <course>10.53</course>
  <speed>0.01414213562373095</speed>
  <fix>3d</fix>
</trkpt>
<trkpt lat="40.072842" lon="-105.230575">
  <ele>1586.09</ele>
  <time>2026-08-28T19:10:04Z</time>
  <course>342.94</course>
  <speed>0.0</speed>
  <fix>3d</fix>
</trkpt>
<trkpt lat="40.0728419" lon="-105.2305749">
  <ele>1586.2</ele>
  <time>2026-08-28T19:10:04Z</time>
  <course>10.53</course>
  <speed>0.01414213562373095</speed>
  <fix>3d</fix>
</trkpt>
<trkpt lat="40.072842" lon="-105.230575">
  <ele>1586.09</ele>
  <time>2026-08-28T19:10:04Z</time>
  <course>285.7</course>
  <speed>0.0</speed>
  <fix>3d</fix>
</trkpt>
<trkpt lat="40.0728419" lon="-105.2305749">
  <ele>1586.19</ele>
  <time>2026-08-28T19:10:04Z</time>
  <course>10.53</course>
  <speed>0.022360679774997897</speed>
  <fix>3d</fix>
</trkpt>
<trkpt lat="40.072842" lon="-105.230575">
  <ele>1586.09</ele>
  <time>2026-08-28T19:10:04Z</time>
  <course>281.75</course>
  <speed>0.0</speed>
  <fix>3d</fix>
</trkpt>
<trkpt lat="40.0728419" lon="-105.2305749">
  <ele>1586.18</ele>
  <time>2026-08-28T19:10:04Z</time>
  <course>10.53</course>
  <speed>0.022360679774997897</speed>
  <fix>3d</fix>
</trkpt>
<trkpt lat="40.072842" lon="-105.230575">
  <ele>1586.09</ele>
  <time>2026-08-28T19:10:04Z</time>
  <course>285.75</course>
  <speed>0.0</speed>
  <fix>3d</fix>
</trkpt>
<trkpt lat="40.0728419" lon="-105.2305749">
  <ele>1586.18</ele>
  <time>2026-08-28T19:10:04Z</time>
  <course>10.53</course>
  <speed>0.022360679774997897</speed>
  <fix>3d</fix>
</trkpt>
<trkpt lat="40.072842" lon="-105.230575">
  <ele>1586.09</ele>
  <time>2026-08-28T19:10:04Z</time>
  <course>285.81</course>
  <speed>0.0</speed>
  <fix>3d</fix>
</trkpt>
<trkpt lat="40.0728419" lon="-105.2305749">
  <ele>1586.19</ele>
  <time>2026-08-28T19:10:04Z</time>
  <course>10.53</course>
  <speed>0.022360679774997897</speed>
  <fix>3d</fix>
</trkpt>
<trkpt lat="40.072842" lon="-105.230575">
  <ele>1586.09</ele>
  <time>2026-08-28T19:10:04Z</time>
  <course>285.23</course>
  <speed>0.0</speed>
  <fix>3d</fix>
</trkpt>
<trkpt lat="40.0728419" lon="-105.2305749">
  <ele>1586.19</ele>
  <time>2026-08-28T19:10:04Z</time>
  <course>10.53</course>
  <speed>0.022360679774997897</speed>
  <fix>3d</fix>
</trkpt>
<trkpt lat="40.072842" lon="-105.230575">
  <ele>1586.09</ele>
  <time>2026-08-28T19:10:04Z</time>
  <course>285.29</course>
  <speed>0.0</speed>
  <fix>3d</fix>
</trkpt>
<trkpt lat="40.0728419" lon="-105.2305749">
  <ele>1586.18</ele>
  <time>2026-08-28T19:10:04Z</time>
  <course>10.53</course>
  <speed>0.022360679774997897</speed>
  <fix>3d</fix>
</trkpt>
<trkpt lat="40.072842" lon="-105.230575">
  <ele>1586.09</ele>
  <time>2026-08-28T19:10:04Z</time>
  <course>285.36</course>
  <speed>0.0</speed>
  <fix>3d</fix>
</trkpt>
<trkpt lat="40.0728419" lon="-105.2305749">
  <ele>1586.18</ele>
  <time>2026-08-28T19:10:04Z</time>
  <course>10.53</course>
  <speed>0.022360679774997897</speed>
  <fix>3d</fix>
</trkpt>
<trkpt lat="40.072842" lon="-105.230575">
  <ele>1586.09</ele>
  <time>2026-08-28T19:10:04Z</time>
  <course>304.23</course>
  <speed>0.0</speed>
  <fix>3d</fix>
</trkpt>
<trkpt lat="40.0728419" lon="-105.2305749">
  <ele>1586.18</ele>
  <time>2026-08-28T19:10:04Z</time>
  <course>10.53</course>
  <speed>0.022360679774997897</speed>
  <fix>3d</fix>
</trkpt>
<trkpt lat="40.072842" lon="-105.230575">
  <ele>1586.09</ele>
  <time>2026-08-28T19:10:04Z</time>
  <course>296.57</course>
  <speed>0.0</speed>
  <fix>3d</fix>
</trkpt>
<trkpt lat="40.0728419" lon="-105.2305749">
  <ele>1586.18</ele>
  <time>2026-08-28T19:10:04Z</time>
  <course>10.53</course>
  <speed>0.022360679774997897</speed>
  <fix>3d</fix>
</trkpt>
<trkpt lat="40.072842" lon="-105.230575">
  <ele>1586.09</ele>
  <time>2026-08-28T19:10:04Z</time>
  <course>279.89</course>
  <speed>0.0</speed>
  <fix>3d</fix>
</trkpt>
<trkpt lat="40.0728419" lon="-105.2305749">
  <ele>1586.18</ele>
  <time>2026-08-28T19:10:04Z</time>
  <course>10.53</course>
  <speed>0.022360679774997897</speed>
  <fix>3d</fix>
</trkpt>
<trkpt lat="40.072842" lon="-105.230575">
  <ele>1586.09</ele>
  <time>2026-08-28T19:10:04Z</time>
  <course>284.35</course>
  <speed>0.0</speed>
  <fix>3d</fix>
</trkpt>
<trkpt lat="40.0728419" lon="-105.2305749">
  <ele>1586.18</ele>
  <time>2026-08-28T19:10:04Z</time>
  <course>10.53</course>
  <speed>0.022360679774997897</speed>
  <fix>3d</fix>
</trkpt>
<trkpt lat="40.072842" lon="-105.230575">
  <ele>1586.09</ele>
  <time>2026-08-28T19:10:04Z</time>
  <course>286.32</course>
  <speed>0.0</speed>
  <fix>3d</fix>
</trkpt>
<trkpt lat="40.0728419" lon="-105.2305749">
  <ele>1586.18</ele>
  <time>2026-08-28T19:10:04Z</time>
  <course>10.53</course>
  <speed>0.022360679774997897</speed>
  <fix>3d</fix>
</trkpt>
<trkpt lat="40.072842" lon="-105.230575">
  <ele>1586.09</ele>
  <time>2026-08-28T19:10:04Z</time>
  <course>285.33</course>
  <speed>0.0</speed>
  <fix>3d</fix>
</trkpt>
<trkpt lat="40.0728419" lon="-105.2305749">
  <ele>1586.18</ele>
  <time>2026-08-28T19:10:04Z</time>
  <course>10.53</course>
  <speed>0.022360679774997897</speed>
  <fix>3d</fix>
</trkpt>
<trkpt lat="40.072842" lon="-105.230575">
  <ele>1586.09</ele>
  <time>2026-08-28T19:10:04Z</time>
  <course>285.13</course>
  <speed>0.0</speed>
  <fix>3d</fix>
</trkpt>
<trkpt lat="40.0728419" lon="-105.2305749">
  <ele>1586.18</ele>
  <time>2026-08-28T19:10:04Z</time>
  <course>10.53</course>
  <speed>0.022360679774997897</speed>
  <fix>3d</fix>
</trkpt>
<trkpt lat="40.072842" lon="-105.230575">
  <ele>1586.09</ele>
  <time>2026-08-28T19:10:04Z</time>
  <course>285.17</course>
  <speed>0.0</speed>
  <fix>3d</fix>
</trkpt>
<trkpt lat="40.0728419" lon="-105.2305749">
  <ele>1586.18</ele>
  <time>2026-08-28T19:10:04Z</time>
  <course>10.52</course>
  <speed>0.022360679774997897</speed>
  <fix>3d</fix>
</trkpt>
<trkpt lat="40.072842" lon="-105.230575">
  <ele>1586.09</ele>
  <time>2026-08-28T19:10:04Z</time>
  <course>285.08</course>
  <speed>0.0</speed>
  <fix>3d</fix>
</trkpt>
<trkpt lat="40.0728419" lon="-105.2305749">
  <ele>1586.17</ele>
  <time>2026-08-28T19:10:04Z</time>
  <course>10.52</course>
  <speed>0.022360679774997897</speed>
  <fix>3d</fix>
</trkpt>
<trkpt lat="40.072842" lon="-105.230575">
  <ele>1586.09</ele>
  <time>2026-08-28T19:10:04Z</time>
  <course>284.96</course>
  <speed>0.0</speed>
  <fix>3d</fix>
</trkpt>
<trkpt lat="40.0728419" lon="-105.2305749">
  <ele>1586.17</ele>
  <time>2026-08-28T19:10:04Z</time>
  <course>10.51</course>
  <speed>0.01414213562373095</speed>
  <fix>3d</fix>
</trkpt>
<trkpt lat="40.072842" lon="-105.230575">
  <ele>1586.09</ele>
  <time>2026-08-28T19:10:04Z</time>
  <course>284.86</course>
  <speed>0.0</speed>
  <fix>3d</fix>
</trkpt>
<trkpt lat="40.0728419" lon="-105.2305749">
  <ele>1586.17</ele>
  <time>2026-08-28T19:10:04Z</time>
  <course>10.5</course>
  <speed>0.01414213562373095</speed>
  <fix>3d</fix>
</trkpt>
<trkpt lat="40.072842" lon="-105.230575">
  <ele>1586.09</ele>
  <time>2026-08-28T19:10:04Z</time>
  <course>284.77</course>
  <speed>0.0</speed>
  <fix>3d</fix>
</trkpt>
<trkpt lat="40.0728419" lon="-105.2305749">
  <ele>1586.17</ele>
  <time>2026-08-28T19:10:04Z</time>
  <course>10.49</course>
  <speed>0.01414213562373095</speed>
  <fix>3d</fix>
</trkpt>
<trkpt lat="40.072842" lon="-105.230575">
  <ele>1586.09</ele>
  <time>2026-08-28T19:10:04Z</time>
  <course>284.66</course>
  <speed>0.0</speed>
  <fix>3d</fix>
</trkpt>
<trkpt lat="40.0728419" lon="-105.2305749">
  <ele>1586.17</ele>
  <time>2026-08-28T19:10:04Z</time>
  <course>10.48</course>
  <speed>0.01414213562373095</speed>
  <fix>3d</fix>
</trkpt>
<trkpt lat="40.072842" lon="-105.230575">
  <ele>1586.09</ele>
  <time>2026-08-28T19:10:04Z</time>
  <course>284.56</course>
  <speed>0.0</speed>
  <fix>3d</fix>
</trkpt>
<trkpt lat="40.0728419" lon="-105.2305749">
  <ele>1586.17</ele>
  <time>2026-08-28T19:10:04Z</time>
  <course>10.47</course>
  <speed>0.01414213562373095</speed>
  <fix>3d</fix>
</trkpt>
<trkpt lat="40.072842" lon="-105.230575">
  <ele>1586.09</ele>
  <time>2026-08-28T19:10:04Z</time>
  <course>284.49</course>
  <speed>0.0</speed>
  <fix>3d</fix>
</trkpt>
<trkpt lat="40.0728419" lon="-105.2305749">
  <ele>1586.17</ele>
  <time>2026-08-28T19:10:04Z</time>
  <course>10.47</course>
  <speed>0.01414213562373095</speed>
  <fix>3d</fix>
</trkpt>
<trkpt lat="40.072842" lon="-105.230575">
  <ele>1586.09</ele>
  <time>2026-08-28T19:10:04Z</time>
  <course>284.8</course>
  <speed>0.0</speed>
  <fix>3d</fix>
</trkpt>
<trkpt lat="40.0728419" lon="-105.2305749">
  <ele>1586.17</ele>
  <time>2026-08-28T19:10:05Z</time>
  <course>10.47</course>
  <speed>0.01414213562373095</speed>
  <fix>3d</fix>
</trkpt>
<trkpt lat="40.072842" lon="-105.230575">
  <ele>1586.09</ele>
  <time>2026-08-28T19:10:05Z</time>
  <course>330.68</course>
  <speed>0.0</speed>
  <fix>3d</fix>
</trkpt>
<trkpt lat="40.0728419" lon="-105.2305749">
  <ele>1586.17</ele>
  <time>2026-08-28T19:10:05Z</time>
  <course>10.47</course>
  <speed>0.01414213562373095</speed>
  <fix>3d</fix>
</trkpt>
<trkpt lat="40.072842" lon="-105.230575">
  <ele>1586.09</ele>
  <time>2026-08-28T19:10:05Z</time>
  <course>303.62</course>
  <speed>0.0</speed>
  <fix>3d</fix>
</trkpt>
<trkpt lat="40.0728419" lon="-105.2305749">
  <ele>1586.17</ele>
  <time>2026-08-28T19:10:05Z</time>
  <course>10.47</course>
  <speed>0.01414213562373095</speed>
  <fix>3d</fix>
</trkpt>
<trkpt lat="40.072842" lon="-105.230575">
  <ele>1586.09</ele>
  <time>2026-08-28T19:10:05Z</time>
  <course>284.41</course>
  <speed>0.0</speed>
  <fix>3d</fix>
</trkpt>
<trkpt lat="40.0728419" lon="-105.2305749">
  <ele>1586.17</ele>
  <time>2026-08-28T19:10:05Z</time>
  <course>10.47</course>
  <speed>0.01414213562373095</speed>
  <fix>3d</fix>
</trkpt>
<trkpt lat="40.072842" lon="-105.230575">
  <ele>1586.09</ele>
  <time>2026-08-28T19:10:05Z</time>
  <course>212.46</course>
  <speed>0.0</speed>
  <fix>3d</fix>
</trkpt>
<trkpt lat="40.0728419" lon="-105.2305749">
  <ele>1586.17</ele>
  <time>2026-08-28T19:10:05Z</time>
  <course>10.47</course>
  <speed>0.01414213562373095</speed>
  <fix>3d</fix>
</trkpt>
<trkpt lat="40.072842" lon="-105.230575">
  <ele>1586.09</ele>
  <time>2026-08-28T19:10:05Z</time>
  <course>330.78</course>
  <speed>0.0</speed>
  <fix>3d</fix>
</trkpt>
<trkpt lat="40.0728419" lon="-105.2305749">
  <ele>1586.17</ele>
  <time>2026-08-28T19:10:05Z</time>
  <course>10.47</course>
  <speed>0.01414213562373095</speed>
  <fix>3d</fix>
</trkpt>
<trkpt lat="40.072842" lon="-105.230575">
  <ele>1586.09</ele>
  <time>2026-08-28T19:10:05Z</time>
  <course>275.15</course>
  <speed>0.0</speed>
  <fix>3d</fix>
</trkpt>
<trkpt lat="40.0728419" lon="-105.2305749">
  <ele>1586.17</ele>
  <time>2026-08-28T19:10:05Z</time>
  <course>10.47</course>
  <speed>0.01414213562373095</speed>
  <fix>3d</fix>
</trkpt>
<trkpt lat="40.072842" lon="-105.230575">
  <ele>1586.09</ele>
  <time>2026-08-28T19:10:05Z</time>
  <course>234.85</course>
  <speed>0.0</speed>
  <fix>3d</fix>
</trkpt>
<trkpt lat="40.0728419" lon="-105.2305749">
  <ele>1586.17</ele>
  <time>2026-08-28T19:10:05Z</time>
  <course>10.46</course>
  <speed>0.01414213562373095</speed>
  <fix>3d</fix>
</trkpt>
<trkpt lat="40.072842" lon="-105.230575">
  <ele>1586.09</ele>
  <time>2026-08-28T19:10:05Z</time>
  <course>359.12</course>
  <speed>0.0</speed>
  <fix>3d</fix>
</trkpt>
<trkpt lat="40.0728419" lon="-105.2305749">
  <ele>1586.16</ele>
  <time>2026-08-28T19:10:05Z</time>
  <course>10.46</course>
  <speed>0.01414213562373095</speed>
  <fix>3d</fix>
</trkpt>
<trkpt lat="40.072842" lon="-105.230575">
  <ele>1586.09</ele>
  <time>2026-08-28T19:10:05Z</time>
  <course>305.53</course>
  <speed>0.0</speed>
  <fix>3d</fix>
</trkpt>
<trkpt lat="40.0728419" lon="-105.2305749">
  <ele>1586.16</ele>
  <time>2026-08-28T19:10:05Z</time>
  <course>10.45</course>
  <speed>0.01414213562373095</speed>
  <fix>3d</fix>
</trkpt>
<trkpt lat="40.072842" lon="-105.230575">
  <ele>1586.09</ele>
  <time>2026-08-28T19:10:05Z</time>
  <course>297.2</course>
  <speed>0.0</speed>
  <fix>3d</fix>
</trkpt>
<trkpt lat="40.0728419" lon="-105.2305749">
  <ele>1586.16</ele>
  <time>2026-08-28T19:10:05Z</time>
  <course>10.44</course>
  <speed>0.01414213562373095</speed>
  <fix>3d</fix>
</trkpt>
<trkpt lat="40.072842" lon="-105.230575">
  <ele>1586.09</ele>
  <time>2026-08-28T19:10:05Z</time>
  <course>278.17</course>
  <speed>0.0</speed>
  <fix>3d</fix>
</trkpt>
<trkpt lat="40.0728419" lon="-105.2305749">
  <ele>1586.16</ele>
  <time>2026-08-28T19:10:05Z</time>
  <course>10.43</course>
  <speed>0.01414213562373095</speed>
  <fix>3d</fix>
</trkpt>
<trkpt lat="40.072842" lon="-105.230575">
  <ele>1586.09</ele>
  <time>2026-08-28T19:10:05Z</time>
  <course>266.96</course>
  <speed>0.0</speed>
  <fix>3d</fix>
</trkpt>
<trkpt lat="40.0728419" lon="-105.2305749">
  <ele>1586.16</ele>
  <time>2026-08-28T19:10:05Z</time>
  <course>10.42</course>
  <speed>0.01414213562373095</speed>
  <fix>3d</fix>
</trkpt>
<trkpt lat="40.072842" lon="-105.230575">
  <ele>1586.09</ele>
  <time>2026-08-28T19:10:05Z</time>
  <course>290.47</course>
  <speed>0.0</speed>
  <fix>3d</fix>
</trkpt>
<trkpt lat="40.0728419" lon="-105.2305749">
  <ele>1586.16</ele>
  <time>2026-08-28T19:10:05Z</time>
  <course>10.4</course>
  <speed>0.022360679774997897</speed>
  <fix>3d</fix>
</trkpt>
<trkpt lat="40.072842" lon="-105.230575">
  <ele>1586.09</ele>
  <time>2026-08-28T19:10:05Z</time>
  <course>308.29</course>
  <speed>0.0</speed>
  <fix>3d</fix>
</trkpt>
<trkpt lat="40.0728419" lon="-105.2305749">
  <ele>1586.16</ele>
  <time>2026-08-28T19:10:05Z</time>
  <course>10.39</course>
  <speed>0.022360679774997897</speed>
  <fix>3d</fix>
</trkpt>
<trkpt lat="40.072842" lon="-105.230575">
  <ele>1586.09</ele>
  <time>2026-08-28T19:10:05Z</time>
  <course>260.37</course>
  <speed>0.0</speed>
  <fix>3d</fix>
</trkpt>
<trkpt lat="40.0728419" lon="-105.2305749">
  <ele>1586.15</ele>
  <time>2026-08-28T19:10:05Z</time>
  <course>10.37</course>
  <speed>0.022360679774997897</speed>
  <fix>3d</fix>
</trkpt>
<trkpt lat="40.072842" lon="-105.230575">
  <ele>1586.09</ele>
  <time>2026-08-28T19:10:05Z</time>
  <course>299.26</course>
  <speed>0.0</speed>
  <fix>3d</fix>
</trkpt>
<trkpt lat="40.0728419" lon="-105.2305749">
  <ele>1586.15</ele>
  <time>2026-08-28T19:10:05Z</time>
  <course>10.35</course>
  <speed>0.022360679774997897</speed>
  <fix>3d</fix>
</trkpt>
<trkpt lat="40.072842" lon="-105.230575">
  <ele>1586.09</ele>
  <time>2026-08-28T19:10:05Z</time>
  <course>321.83</course>
  <speed>0.0</speed>
  <fix>3d</fix>
</trkpt>
<trkpt lat="40.0728419" lon="-105.2305749">
  <ele>1586.16</ele>
  <time>2026-08-28T19:10:05Z</time>
  <course>10.33</course>
  <speed>0.022360679774997897</speed>
  <fix>3d</fix>
</trkpt>
<trkpt lat="40.072842" lon="-105.230575">
  <ele>1586.09</ele>
  <time>2026-08-28T19:10:05Z</time>
  <course>270.69</course>
  <speed>0.0</speed>
  <fix>3d</fix>
</trkpt>
<trkpt lat="40.0728419" lon="-105.2305749">
  <ele>1586.16</ele>
  <time>2026-08-28T19:10:05Z</time>
  <course>10.31</course>
  <speed>0.022360679774997897</speed>
  <fix>3d</fix>
</trkpt>
<trkpt lat="40.072842" lon="-105.230575">
  <ele>1586.09</ele>
  <time>2026-08-28T19:10:05Z</time>
  <course>258.75</course>
  <speed>0.0</speed>
  <fix>3d</fix>
</trkpt>
<trkpt lat="40.0728419" lon="-105.2305749">
  <ele>1586.16</ele>
  <time>2026-08-28T19:10:05Z</time>
  <course>10.29</course>
  <speed>0.022360679774997897</speed>
  <fix>3d</fix>
</trkpt>
<trkpt lat="40.072842" lon="-105.230575">
  <ele>1586.09</ele>
  <time>2026-08-28T19:10:05Z</time>
  <course>312.59</course>
  <speed>0.0</speed>
  <fix>3d</fix>
</trkpt>
<trkpt lat="40.0728419" lon="-105.2305749">
  <ele>1586.16</ele>
  <time>2026-08-28T19:10:05Z</time>
  <course>10.26</course>
  <speed>0.022360679774997897</speed>
  <fix>3d</fix>
</trkpt>
<trkpt lat="40.072842" lon="-105.230575">
  <ele>1586.09</ele>
  <time>2026-08-28T19:10:05Z</time>
  <course>288.32</course>
  <speed>0.0</speed>
  <fix>3d</fix>
</trkpt>
<trkpt lat="40.0728419" lon="-105.2305749">
  <ele>1586.16</ele>
  <time>2026-08-28T19:10:05Z</time>
  <course>10.24</course>
  <speed>0.022360679774997897</speed>
  <fix>3d</fix>
</trkpt>
<trkpt lat="40.072842" lon="-105.230575">
  <ele>1586.09</ele>
  <time>2026-08-28T19:10:05Z</time>
  <course>260.06</course>
  <speed>0.0</speed>
  <fix>3d</fix>
</trkpt>
<trkpt lat="40.0728419" lon="-105.2305749">
  <ele>1586.16</ele>
  <time>2026-08-28T19:10:05Z</time>
  <course>10.23</course>
  <speed>0.022360679774997897</speed>
  <fix>3d</fix>
</trkpt>
<trkpt lat="40.072842" lon="-105.230575">
  <ele>1586.09</ele>
  <time>2026-08-28T19:10:05Z</time>
  <course>300.36</course>
  <speed>0.0</speed>
  <fix>3d</fix>
</trkpt>
<trkpt lat="40.0728419" lon="-105.2305749">
  <ele>1586.17</ele>
  <time>2026-08-28T19:10:05Z</time>
  <course>10.23</course>
  <speed>0.022360679774997897</speed>
  <fix>3d</fix>
</trkpt>
<trkpt lat="40.072842" lon="-105.230575">
  <ele>1586.09</ele>
  <time>2026-08-28T19:10:05Z</time>
  <course>303.13</course>
  <speed>0.0</speed>
  <fix>3d</fix>
</trkpt>
<trkpt lat="40.0728419" lon="-105.2305749">
  <ele>1586.17</ele>
  <time>2026-08-28T19:10:05Z</time>
  <course>10.23</course>
  <speed>0.022360679774997897</speed>
  <fix>3d</fix>
</trkpt>
<trkpt lat="40.072842" lon="-105.230575">
  <ele>1586.09</ele>
  <time>2026-08-28T19:10:05Z</time>
  <course>264.46</course>
  <speed>0.0</speed>
  <fix>3d</fix>
</trkpt>
<trkpt lat="40.0728419" lon="-105.2305749">
  <ele>1586.17</ele>
  <time>2026-08-28T19:10:05Z</time>
  <course>10.24</course>
  <speed>0.022360679774997897</speed>
  <fix>3d</fix>
</trkpt>
<trkpt lat="40.072842" lon="-105.230575">
  <ele>1586.09</ele>
  <time>2026-08-28T19:10:05Z</time>
  <course>202.83</course>
  <speed>0.0</speed>
  <fix>3d</fix>
</trkpt>
<trkpt lat="40.0728419" lon="-105.2305749">
  <ele>1586.17</ele>
  <time>2026-08-28T19:10:05Z</time>
  <course>10.24</course>
  <speed>0.022360679774997897</speed>
  <fix>3d</fix>
</trkpt>
<trkpt lat="40.072842" lon="-105.230575">
  <ele>1586.09</ele>
  <time>2026-08-28T19:10:05Z</time>
  <course>272.06</course>
  <speed>0.0</speed>
  <fix>3d</fix>
</trkpt>
<trkpt lat="40.0728419" lon="-105.2305749">
  <ele>1586.17</ele>
  <time>2026-08-28T19:10:05Z</time>
  <course>10.24</course>
  <speed>0.022360679774997897</speed>
  <fix>3d</fix>
</trkpt>
<trkpt lat="40.072842" lon="-105.230575">
  <ele>1586.09</ele>
  <time>2026-08-28T19:10:05Z</time>
  <course>294.81</course>
  <speed>0.0</speed>
  <fix>3d</fix>
</trkpt>
<trkpt lat="40.0728419" lon="-105.2305749">
  <ele>1586.16</ele>
  <time>2026-08-28T19:10:05Z</time>
  <course>10.24</course>
  <speed>0.022360679774997897</speed>
  <fix>3d</fix>
</trkpt>
<trkpt lat="40.072842" lon="-105.230575">
  <ele>1586.09</ele>
  <time>2026-08-28T19:10:05Z</time>
  <course>282.19</course>
  <speed>0.0</speed>
  <fix>3d</fix>
</trkpt>
<trkpt lat="40.0728419" lon="-105.2305749">
  <ele>1586.16</ele>
  <time>2026-08-28T19:10:05Z</time>
  <course>10.25</course>
  <speed>0.022360679774997897</speed>
  <fix>3d</fix>
</trkpt>
<trkpt lat="40.072842" lon="-105.230575">
  <ele>1586.09</ele>
  <time>2026-08-28T19:10:05Z</time>
  <course>295.27</course>
  <speed>0.0</speed>
  <fix>3d</fix>
</trkpt>
<trkpt lat="40.0728419" lon="-105.2305749">
  <ele>1586.16</ele>
  <time>2026-08-28T19:10:05Z</time>
  <course>10.25</course>
  <speed>0.022360679774997897</speed>
  <fix>3d</fix>
</trkpt>
<trkpt lat="40.072842" lon="-105.230575">
  <ele>1586.09</ele>
  <time>2026-08-28T19:10:05Z</time>
  <course>296.17</course>
  <speed>0.0</speed>
  <fix>3d</fix>
</trkpt>
<trkpt lat="40.0728419" lon="-105.2305749">
  <ele>1586.16</ele>
  <time>2026-08-28T19:10:05Z</time>
  <course>10.25</course>
  <speed>0.022360679774997897</speed>
  <fix>3d</fix>
</trkpt>
<trkpt lat="40.072842" lon="-105.230575">
  <ele>1586.09</ele>
  <time>2026-08-28T19:10:05Z</time>
  <course>292.33</course>
  <speed>0.0</speed>
  <fix>3d</fix>
</trkpt>
<trkpt lat="40.0728419" lon="-105.2305749">
  <ele>1586.16</ele>
  <time>2026-08-28T19:10:05Z</time>
  <course>10.25</course>
  <speed>0.022360679774997897</speed>
  <fix>3d</fix>
</trkpt>
<trkpt lat="40.072842" lon="-105.230575">
  <ele>1586.09</ele>
  <time>2026-08-28T19:10:05Z</time>
  <course>266.72</course>
  <speed>0.0</speed>
  <fix>3d</fix>
</trkpt>
<trkpt lat="40.0728419" lon="-105.2305749">
  <ele>1586.17</ele>
  <time>2026-08-28T19:10:05Z</time>
  <course>10.26</course>
  <speed>0.022360679774997897</speed>
  <fix>3d</fix>
</trkpt>
<trkpt lat="40.072842" lon="-105.230575">
  <ele>1586.09</ele>
  <time>2026-08-28T19:10:05Z</time>
  <course>296.35</course>
  <speed>0.0</speed>
  <fix>3d</fix>
</trkpt>
<trkpt lat="40.0728419" lon="-105.2305749">
  <ele>1586.17</ele>
  <time>2026-08-28T19:10:05Z</time>
  <course>10.26</course>
  <speed>0.022360679774997897</speed>
  <fix>3d</fix>
</trkpt>
<trkpt lat="40.072842" lon="-105.230575">
  <ele>1586.09</ele>
  <time>2026-08-28T19:10:05Z</time>
  <course>320.16</course>
  <speed>0.0</speed>
  <fix>3d</fix>
</trkpt>
<trkpt lat="40.0728419" lon="-105.2305749">
  <ele>1586.17</ele>
  <time>2026-08-28T19:10:05Z</time>
  <course>10.26</course>
  <speed>0.022360679774997897</speed>
  <fix>3d</fix>
</trkpt>
<trkpt lat="40.072842" lon="-105.230575">
  <ele>1586.09</ele>
  <time>2026-08-28T19:10:05Z</time>
  <course>275.57</course>
  <speed>0.0</speed>
  <fix>3d</fix>
</trkpt>
<trkpt lat="40.0728419" lon="-105.2305749">
  <ele>1586.17</ele>
  <time>2026-08-28T19:10:05Z</time>
  <course>10.26</course>
  <speed>0.022360679774997897</speed>
  <fix>3d</fix>
</trkpt>
<trkpt lat="40.072842" lon="-105.230575">
  <ele>1586.09</ele>
  <time>2026-08-28T19:10:05Z</time>
  <course>267.23</course>
  <speed>0.0</speed>
  <fix>3d</fix>
</trkpt>
<trkpt lat="40.0728419" lon="-105.2305749">
  <ele>1586.17</ele>
  <time>2026-08-28T19:10:05Z</time>
  <course>10.26</course>
  <speed>0.022360679774997897</speed>
  <fix>3d</fix>
</trkpt>
<trkpt lat="40.072842" lon="-105.230575">
  <ele>1586.09</ele>
  <time>2026-08-28T19:10:05Z</time>
  <course>306.25</course>
  <speed>0.0</speed>
  <fix>3d</fix>
</trkpt>
<trkpt lat="40.0728419" lon="-105.2305749">
  <ele>1586.16</ele>
  <time>2026-08-28T19:10:05Z</time>
  <course>10.27</course>
  <speed>0.022360679774997897</speed>
  <fix>3d</fix>
</trkpt>
<trkpt lat="40.072842" lon="-105.230575">
  <ele>1586.09</ele>
  <time>2026-08-28T19:10:05Z</time>
  <course>296.26</course>
  <speed>0.0</speed>
  <fix>3d</fix>
</trkpt>
<trkpt lat="40.0728419" lon="-105.2305749">
  <ele>1586.16</ele>
  <time>2026-08-28T19:10:05Z</time>
  <course>10.27</course>
  <speed>0.022360679774997897</speed>
  <fix>3d</fix>
</trkpt>
<trkpt lat="40.072842" lon="-105.230575">
  <ele>1586.09</ele>
  <time>2026-08-28T19:10:05Z</time>
  <course>269.18</course>
  <speed>0.0</speed>
  <fix>3d</fix>
</trkpt>
<trkpt lat="40.0728419" lon="-105.2305749">
  <ele>1586.17</ele>
  <time>2026-08-28T19:10:05Z</time>
  <course>10.27</course>
  <speed>0.022360679774997897</speed>
  <fix>3d</fix>
</trkpt>
<trkpt lat="40.072842" lon="-105.230575">
  <ele>1586.09</ele>
  <time>2026-08-28T19:10:05Z</time>
  <course>287.34</course>
  <speed>0.0</speed>
  <fix>3d</fix>
</trkpt>
<trkpt lat="40.0728419" lon="-105.2305749">
  <ele>1586.17</ele>
  <time>2026-08-28T19:10:05Z</time>
  <course>10.27</course>
  <speed>0.022360679774997897</speed>
  <fix>3d</fix>
</trkpt>
<trkpt lat="40.072842" lon="-105.230575">
  <ele>1586.09</ele>
  <time>2026-08-28T19:10:05Z</time>
  <course>306.63</course>
  <speed>0.0</speed>
  <fix>3d</fix>
</trkpt>
<trkpt lat="40.0728419" lon="-105.2305749">
  <ele>1586.17</ele>
  <time>2026-08-28T19:10:05Z</time>
  <course>10.27</course>
  <speed>0.022360679774997897</speed>
  <fix>3d</fix>
</trkpt>
<trkpt lat="40.072842" lon="-105.230575">
  <ele>1586.09</ele>
  <time>2026-08-28T19:10:05Z</time>
  <course>285.87</course>
  <speed>0.0</speed>
  <fix>3d</fix>
</trkpt>
<trkpt lat="40.0728419" lon="-105.2305749">
  <ele>1586.17</ele>
  <time>2026-08-28T19:10:05Z</time>
  <course>10.27</course>
  <speed>0.022360679774997897</speed>
  <fix>3d</fix>
</trkpt>
<trkpt lat="40.072842" lon="-105.230575">
  <ele>1586.09</ele>
  <time>2026-08-28T19:10:05Z</time>
  <course>257.04</course>
  <speed>0.0</speed>
  <fix>3d</fix>
</trkpt>
<trkpt lat="40.0728419" lon="-105.2305749">
  <ele>1586.17</ele>
  <time>2026-08-28T19:10:05Z</time>
  <course>10.27</course>
  <speed>0.022360679774997897</speed>
  <fix>3d</fix>
</trkpt>
<trkpt lat="40.072842" lon="-105.230575">
  <ele>1586.09</ele>
  <time>2026-08-28T19:10:05Z</time>
  <course>323.73</course>
  <speed>0.0</speed>
  <fix>3d</fix>
</trkpt>
<trkpt lat="40.0728419" lon="-105.2305749">
  <ele>1586.17</ele>
  <time>2026-08-28T19:10:05Z</time>
  <course>10.28</course>
  <speed>0.022360679774997897</speed>
  <fix>3d</fix>
</trkpt>
<trkpt lat="40.072842" lon="-105.230575">
  <ele>1586.09</ele>
  <time>2026-08-28T19:10:05Z</time>
  <course>295.64</course>
  <speed>0.0</speed>
  <fix>3d</fix>
</trkpt>
<trkpt lat="40.0728419" lon="-105.2305749">
  <ele>1586.18</ele>
  <time>2026-08-28T19:10:05Z</time>
  <course>10.28</course>
  <speed>0.022360679774997897</speed>
  <fix>3d</fix>
</trkpt>
<trkpt lat="40.072842" lon="-105.230575">
  <ele>1586.09</ele>
  <time>2026-08-28T19:10:05Z</time>
  <course>253.79</course>
  <speed>0.0</speed>
  <fix>3d</fix>
</trkpt>
<trkpt lat="40.0728419" lon="-105.2305749">
  <ele>1586.18</ele>
  <time>2026-08-28T19:10:05Z</time>
  <course>10.28</course>
  <speed>0.022360679774997897</speed>
  <fix>3d</fix>
</trkpt>
<trkpt lat="40.072842" lon="-105.230575">
  <ele>1586.09</ele>
  <time>2026-08-28T19:10:05Z</time>
  <course>216.51</course>
  <speed>0.0</speed>
  <fix>3d</fix>
</trkpt>
<trkpt lat="40.0728419" lon="-105.2305749">
  <ele>1586.18</ele>
  <time>2026-08-28T19:10:05Z</time>
  <course>10.28</course>
  <speed>0.022360679774997897</speed>
  <fix>3d</fix>
</trkpt>
<trkpt lat="40.072842" lon="-105.230575">
  <ele>1586.09</ele>
  <time>2026-08-28T19:10:05Z</time>
  <course>304.32</course>
  <speed>0.0</speed>
  <fix>3d</fix>
</trkpt>
<trkpt lat="40.0728419" lon="-105.2305749">
  <ele>1586.18</ele>
  <time>2026-08-28T19:10:05Z</time>
  <course>10.28</course>
  <speed>0.022360679774997897</speed>
  <fix>3d</fix>
</trkpt>
<trkpt lat="40.072842" lon="-105.230575">
  <ele>1586.09</ele>
  <time>2026-08-28T19:10:05Z</time>
  <course>295.73</course>
  <speed>0.0</speed>
  <fix>3d</fix>
</trkpt>
<trkpt lat="40.0728419" lon="-105.2305749">
  <ele>1586.18</ele>
  <time>2026-08-28T19:10:05Z</time>
  <course>10.28</course>
  <speed>0.022360679774997897</speed>
  <fix>3d</fix>
</trkpt>
<trkpt lat="40.072842" lon="-105.230575">
  <ele>1586.09</ele>
  <time>2026-08-28T19:10:05Z</time>
  <course>280.06</course>
  <speed>0.0</speed>
  <fix>3d</fix>
</trkpt>
<trkpt lat="40.0728419" lon="-105.2305749">
  <ele>1586.18</ele>
  <time>2026-08-28T19:10:05Z</time>
  <course>10.28</course>
  <speed>0.022360679774997897</speed>
  <fix>3d</fix>
</trkpt>
<trkpt lat="40.072842" lon="-105.230575">
  <ele>1586.09</ele>
  <time>2026-08-28T19:10:05Z</time>
  <course>284.72</course>
  <speed>0.0</speed>
  <fix>3d</fix>
</trkpt>
<trkpt lat="40.0728419" lon="-105.2305749">
  <ele>1586.18</ele>
  <time>2026-08-28T19:10:05Z</time>
  <course>10.29</course>
  <speed>0.022360679774997897</speed>
  <fix>3d</fix>
</trkpt>
<trkpt lat="40.072842" lon="-105.230575">
  <ele>1586.09</ele>
  <time>2026-08-28T19:10:05Z</time>
  <course>296.64</course>
  <speed>0.0</speed>
  <fix>3d</fix>
</trkpt>
<trkpt lat="40.0728419" lon="-105.2305749">
  <ele>1586.19</ele>
  <time>2026-08-28T19:10:05Z</time>
  <course>10.29</course>
  <speed>0.022360679774997897</speed>
  <fix>3d</fix>
</trkpt>
<trkpt lat="40.072842" lon="-105.230575">
  <ele>1586.09</ele>
  <time>2026-08-28T19:10:05Z</time>
  <course>301.96</course>
  <speed>0.0</speed>
  <fix>3d</fix>
</trkpt>
<trkpt lat="40.0728419" lon="-105.2305749">
  <ele>1586.19</ele>
  <time>2026-08-28T19:10:05Z</time>
  <course>10.29</course>
  <speed>0.022360679774997897</speed>
  <fix>3d</fix>
</trkpt>
<trkpt lat="40.072842" lon="-105.230575">
  <ele>1586.09</ele>
  <time>2026-08-28T19:10:05Z</time>
  <course>290.71</course>
  <speed>0.0</speed>
  <fix>3d</fix>
</trkpt>
<trkpt lat="40.0728419" lon="-105.2305749">
  <ele>1586.19</ele>
  <time>2026-08-28T19:10:05Z</time>
  <course>10.29</course>
  <speed>0.022360679774997897</speed>
  <fix>3d</fix>
</trkpt>
<trkpt lat="40.072842" lon="-105.230575">
  <ele>1586.09</ele>
  <time>2026-08-28T19:10:05Z</time>
  <course>269.94</course>
  <speed>0.0</speed>
  <fix>3d</fix>
</trkpt>
<trkpt lat="40.0728419" lon="-105.2305749">
  <ele>1586.19</ele>
  <time>2026-08-28T19:10:05Z</time>
  <course>10.29</course>
  <speed>0.022360679774997897</speed>
  <fix>3d</fix>
</trkpt>
<trkpt lat="40.072842" lon="-105.230575">
  <ele>1586.09</ele>
  <time>2026-08-28T19:10:05Z</time>
  <course>294.26</course>
  <speed>0.0</speed>
  <fix>3d</fix>
</trkpt>
<trkpt lat="40.0728419" lon="-105.2305749">
  <ele>1586.18</ele>
  <time>2026-08-28T19:10:05Z</time>
  <course>10.29</course>
  <speed>0.022360679774997897</speed>
  <fix>3d</fix>
</trkpt>
<trkpt lat="40.072842" lon="-105.230575">
  <ele>1586.09</ele>
  <time>2026-08-28T19:10:05Z</time>
  <course>313.13</course>
  <speed>0.0</speed>
  <fix>3d</fix>
</trkpt>
<trkpt lat="40.0728419" lon="-105.2305749">
  <ele>1586.18</ele>
  <time>2026-08-28T19:10:05Z</time>
  <course>10.29</course>
  <speed>0.022360679774997897</speed>
  <fix>3d</fix>
</trkpt>
<trkpt lat="40.072842" lon="-105.230575">
  <ele>1586.09</ele>
  <time>2026-08-28T19:10:05Z</time>
  <course>283.36</course>
  <speed>0.0</speed>
  <fix>3d</fix>
</trkpt>
<trkpt lat="40.0728419" lon="-105.2305749">
  <ele>1586.18</ele>
  <time>2026-08-28T19:10:05Z</time>
  <course>10.3</course>
  <speed>0.022360679774997897</speed>
  <fix>3d</fix>
</trkpt>
<trkpt lat="40.072842" lon="-105.230575">
  <ele>1586.09</ele>
  <time>2026-08-28T19:10:05Z</time>
  <course>271.66</course>
  <speed>0.0</speed>
  <fix>3d</fix>
</trkpt>
<trkpt lat="40.0728419" lon="-105.2305749">
  <ele>1586.18</ele>
  <time>2026-08-28T19:10:05Z</time>
  <course>10.3</course>
  <speed>0.022360679774997897</speed>
  <fix>3d</fix>
</trkpt>
<trkpt lat="40.072842" lon="-105.230575">
  <ele>1586.09</ele>
  <time>2026-08-28T19:10:05Z</time>
  <course>308.06</course>
  <speed>0.0</speed>
  <fix>3d</fix>
</trkpt>
<trkpt lat="40.0728419" lon="-105.2305749">
  <ele>1586.18</ele>
  <time>2026-08-28T19:10:05Z</time>
  <course>10.3</course>
  <speed>0.022360679774997897</speed>
  <fix>3d</fix>
</trkpt>
<trkpt lat="40.072842" lon="-105.230575">
  <ele>1586.09</ele>
  <time>2026-08-28T19:10:05Z</time>
  <course>312.23</course>
  <speed>0.0</speed>
  <fix>3d</fix>
</trkpt>
<trkpt lat="40.0728419" lon="-105.2305749">
  <ele>1586.18</ele>
  <time>2026-08-28T19:10:05Z</time>
  <course>10.3</course>
  <speed>0.022360679774997897</speed>
  <fix>3d</fix>
</trkpt>
<trkpt lat="40.072842" lon="-105.230575">
  <ele>1586.09</ele>
  <time>2026-08-28T19:10:05Z</time>
  <course>279.99</course>
  <speed>0.0</speed>
  <fix>3d</fix>
</trkpt>
<trkpt lat="40.0728419" lon="-105.2305749">
  <ele>1586.18</ele>
  <time>2026-08-28T19:10:05Z</time>
  <course>10.3</course>
  <speed>0.022360679774997897</speed>
  <fix>3d</fix>
</trkpt>
<trkpt lat="40.072842" lon="-105.230575">
  <ele>1586.09</ele>
  <time>2026-08-28T19:10:05Z</time>
  <course>264.77</course>
  <speed>0.0</speed>
  <fix>3d</fix>
</trkpt>
<trkpt lat="40.0728419" lon="-105.2305749">
  <ele>1586.18</ele>
  <time>2026-08-28T19:10:05Z</time>
  <course>10.3</course>
  <speed>0.022360679774997897</speed>
  <fix>3d</fix>
</trkpt>
<trkpt lat="40.072842" lon="-105.230575">
  <ele>1586.09</ele>
  <time>2026-08-28T19:10:05Z</time>
  <course>316.9</course>
  <speed>0.0</speed>
  <fix>3d</fix>
</trkpt>
<trkpt lat="40.0728419" lon="-105.2305749">
  <ele>1586.18</ele>
  <time>2026-08-28T19:10:05Z</time>
  <course>10.3</course>
  <speed>0.022360679774997897</speed>
  <fix>3d</fix>
</trkpt>
<trkpt lat="40.072842" lon="-105.230575">
  <ele>1586.09</ele>
  <time>2026-08-28T19:10:05Z</time>
  <course>297.71</course>
  <speed>0.0</speed>
  <fix>3d</fix>
</trkpt>
<trkpt lat="40.0728419" lon="-105.2305749">
  <ele>1586.18</ele>
  <time>2026-08-28T19:10:05Z</time>
  <course>10.3</course>
  <speed>0.022360679774997897</speed>
  <fix>3d</fix>
</trkpt>
<trkpt lat="40.072842" lon="-105.230575">
  <ele>1586.09</ele>
  <time>2026-08-28T19:10:05Z</time>
  <course>278.4</course>
  <speed>0.0</speed>
  <fix>3d</fix>
</trkpt>
<trkpt lat="40.0728419" lon="-105.2305749">
  <ele>1586.18</ele>
  <time>2026-08-28T19:10:05Z</time>
  <course>10.3</course>
  <speed>0.022360679774997897</speed>
  <fix>3d</fix>
</trkpt>
<trkpt lat="40.072842" lon="-105.230575">
  <ele>1586.09</ele>
  <time>2026-08-28T19:10:05Z</time>
  <course>271.65</course>
  <speed>0.0</speed>
  <fix>3d</fix>
</trkpt>
<trkpt lat="40.0728419" lon="-105.2305749">
  <ele>1586.18</ele>
  <time>2026-08-28T19:10:05Z</time>
  <course>10.3</course>
  <speed>0.022360679774997897</speed>
  <fix>3d</fix>
</trkpt>
<trkpt lat="40.072842" lon="-105.230575">
  <ele>1586.09</ele>
  <time>2026-08-28T19:10:05Z</time>
  <course>277.06</course>
  <speed>0.0</speed>
  <fix>3d</fix>
</trkpt>
<trkpt lat="40.0728419" lon="-105.2305749">
  <ele>1586.18</ele>
  <time>2026-08-28T19:10:05Z</time>
  <course>10.31</course>
  <speed>0.022360679774997897</speed>
  <fix>3d</fix>
</trkpt>
<trkpt lat="40.072842" lon="-105.230575">
  <ele>1586.09</ele>
  <time>2026-08-28T19:10:05Z</time>
  <course>272.51</course>
  <speed>0.0</speed>
  <fix>3d</fix>
</trkpt>
<trkpt lat="40.0728419" lon="-105.2305749">
  <ele>1586.19</ele>
  <time>2026-08-28T19:10:05Z</time>
  <course>10.31</course>
  <speed>0.022360679774997897</speed>
  <fix>3d</fix>
</trkpt>
<trkpt lat="40.072842" lon="-105.230575">
  <ele>1586.09</ele>
  <time>2026-08-28T19:10:05Z</time>
  <course>276.44</course>
  <speed>0.0</speed>
  <fix>3d</fix>
</trkpt>
<trkpt lat="40.0728419" lon="-105.2305749">
  <ele>1586.19</ele>
  <time>2026-08-28T19:10:05Z</time>
  <course>10.31</course>
  <speed>0.022360679774997897</speed>
  <fix>3d</fix>
</trkpt>
<trkpt lat="40.072842" lon="-105.230575">
  <ele>1586.09</ele>
  <time>2026-08-28T19:10:05Z</time>
  <course>292.86</course>
  <speed>0.0</speed>
  <fix>3d</fix>
</trkpt>
<trkpt lat="40.0728419" lon="-105.2305749">
  <ele>1586.19</ele>
  <time>2026-08-28T19:10:05Z</time>
  <course>10.31</course>
  <speed>0.022360679774997897</speed>
  <fix>3d</fix>
</trkpt>
<trkpt lat="40.072842" lon="-105.230575">
  <ele>1586.09</ele>
  <time>2026-08-28T19:10:05Z</time>
  <course>283.56</course>
  <speed>0.0</speed>
  <fix>3d</fix>
</trkpt>
<trkpt lat="40.0728419" lon="-105.2305749">
  <ele>1586.19</ele>
  <time>2026-08-28T19:10:05Z</time>
  <course>10.31</course>
  <speed>0.022360679774997897</speed>
  <fix>3d</fix>
</trkpt>
<trkpt lat="40.072842" lon="-105.230575">
  <ele>1586.09</ele>
  <time>2026-08-28T19:10:05Z</time>
  <course>288.53</course>
  <speed>0.0</speed>
  <fix>3d</fix>
</trkpt>
<trkpt lat="40.0728419" lon="-105.2305749">
  <ele>1586.19</ele>
  <time>2026-08-28T19:10:05Z</time>
  <course>10.31</course>
  <speed>0.022360679774997897</speed>
  <fix>3d</fix>
</trkpt>
<trkpt lat="40.072842" lon="-105.230575">
  <ele>1586.09</ele>
  <time>2026-08-28T19:10:05Z</time>
  <course>292.78</course>
  <speed>0.0</speed>
  <fix>3d</fix>
</trkpt>
<trkpt lat="40.0728419" lon="-105.2305749">
  <ele>1586.19</ele>
  <time>2026-08-28T19:10:05Z</time>
  <course>10.31</course>
  <speed>0.022360679774997897</speed>
  <fix>3d</fix>
</trkpt>
<trkpt lat="40.072842" lon="-105.230575">
  <ele>1586.09</ele>
  <time>2026-08-28T19:10:05Z</time>
  <course>286.91</course>
  <speed>0.0</speed>
  <fix>3d</fix>
</trkpt>
<trkpt lat="40.0728419" lon="-105.2305749">
  <ele>1586.19</ele>
  <time>2026-08-28T19:10:05Z</time>
  <course>10.31</course>
  <speed>0.022360679774997897</speed>
  <fix>3d</fix>
</trkpt>
<trkpt lat="40.072842" lon="-105.230575">
  <ele>1586.09</ele>
  <time>2026-08-28T19:10:05Z</time>
  <course>278.61</course>
  <speed>0.0</speed>
  <fix>3d</fix>
</trkpt>
<trkpt lat="40.0728419" lon="-105.2305749">
  <ele>1586.19</ele>
  <time>2026-08-28T19:10:05Z</time>
  <course>10.31</course>
  <speed>0.022360679774997897</speed>
  <fix>3d</fix>
</trkpt>
<trkpt lat="40.072842" lon="-105.230575">
  <ele>1586.09</ele>
  <time>2026-08-28T19:10:05Z</time>
  <course>292.71</course>
  <speed>0.0</speed>
  <fix>3d</fix>
</trkpt>
<trkpt lat="40.0728419" lon="-105.2305749">
  <ele>1586.18</ele>
  <time>2026-08-28T19:10:05Z</time>
  <course>10.31</course>
  <speed>0.022360679774997897</speed>
  <fix>3d</fix>
</trkpt>
<trkpt lat="40.072842" lon="-105.230575">
  <ele>1586.09</ele>
  <time>2026-08-28T19:10:05Z</time>
  <course>302.82</course>
  <speed>0.0</speed>
  <fix>3d</fix>
</trkpt>
<trkpt lat="40.0728419" lon="-105.2305749">
  <ele>1586.18</ele>
  <time>2026-08-28T19:10:05Z</time>
  <course>10.31</course>
  <speed>0.022360679774997897</speed>
  <fix>3d</fix>
</trkpt>
<trkpt lat="40.072842" lon="-105.230575">
  <ele>1586.09</ele>
  <time>2026-08-28T19:10:05Z</time>
  <course>277.73</course>
  <speed>0.0</speed>
  <fix>3d</fix>
</trkpt>
<trkpt lat="40.0728419" lon="-105.2305749">
  <ele>1586.18</ele>
  <time>2026-08-28T19:10:05Z</time>
  <course>10.31</course>
  <speed>0.022360679774997897</speed>
  <fix>3d</fix>
</trkpt>
<trkpt lat="40.072842" lon="-105.230575">
  <ele>1586.09</ele>
  <time>2026-08-28T19:10:05Z</time>
  <course>275.39</course>
  <speed>0.0</speed>
  <fix>3d</fix>
</trkpt>
<trkpt lat="40.0728419" lon="-105.2305749">
  <ele>1586.18</ele>
  <time>2026-08-28T19:10:05Z</time>
  <course>10.32</course>
  <speed>0.022360679774997897</speed>
  <fix>3d</fix>
</trkpt>
<trkpt lat="40.072842" lon="-105.230575">
  <ele>1586.09</ele>
  <time>2026-08-28T19:10:05Z</time>
  <course>304.79</course>
  <speed>0.0</speed>
  <fix>3d</fix>
</trkpt>
<trkpt lat="40.0728419" lon="-105.2305749">
  <ele>1586.17</ele>
  <time>2026-08-28T19:10:05Z</time>
  <course>10.32</course>
  <speed>0.022360679774997897</speed>
  <fix>3d</fix>
</trkpt>
<trkpt lat="40.072842" lon="-105.230575">
  <ele>1586.09</ele>
  <time>2026-08-28T19:10:05Z</time>
  <course>306.53</course>
  <speed>0.0</speed>
  <fix>3d</fix>
</trkpt>
<trkpt lat="40.0728419" lon="-105.2305749">
  <ele>1586.18</ele>
  <time>2026-08-28T19:10:05Z</time>
  <course>10.32</course>
  <speed>0.022360679774997897</speed>
  <fix>3d</fix>
</trkpt>
<trkpt lat="40.072842" lon="-105.230575">
  <ele>1586.09</ele>
  <time>2026-08-28T19:10:05Z</time>
  <course>274.8</course>
  <speed>0.0</speed>
  <fix>3d</fix>
</trkpt>
<trkpt lat="40.0728419" lon="-105.2305749">
  <ele>1586.18</ele>
  <time>2026-08-28T19:10:05Z</time>
  <course>10.32</course>
  <speed>0.022360679774997897</speed>
  <fix>3d</fix>
</trkpt>
<trkpt lat="40.072842" lon="-105.230575">
  <ele>1586.09</ele>
  <time>2026-08-28T19:10:05Z</time>
  <course>271.12</course>
  <speed>0.0</speed>
  <fix>3d</fix>
</trkpt>
<trkpt lat="40.0728419" lon="-105.2305749">
  <ele>1586.18</ele>
  <time>2026-08-28T19:10:05Z</time>
  <course>10.32</course>
  <speed>0.022360679774997897</speed>
  <fix>3d</fix>
</trkpt>
<trkpt lat="40.072842" lon="-105.230575">
  <ele>1586.09</ele>
  <time>2026-08-28T19:10:05Z</time>
  <course>313.29</course>
  <speed>0.0</speed>
  <fix>3d</fix>
</trkpt>
<trkpt lat="40.0728419" lon="-105.2305749">
  <ele>1586.18</ele>
  <time>2026-08-28T19:10:05Z</time>
  <course>10.32</course>
  <speed>0.022360679774997897</speed>
  <fix>3d</fix>
</trkpt>
<trkpt lat="40.072842" lon="-105.230575">
  <ele>1586.09</ele>
  <time>2026-08-28T19:10:05Z</time>
  <course>300.66</course>
  <speed>0.0</speed>
  <fix>3d</fix>
</trkpt>
<trkpt lat="40.0728419" lon="-105.2305749">
  <ele>1586.18</ele>
  <time>2026-08-28T19:10:05Z</time>
  <course>10.32</course>
  <speed>0.022360679774997897</speed>
  <fix>3d</fix>
</trkpt>
<trkpt lat="40.072842" lon="-105.230575">
  <ele>1586.09</ele>
  <time>2026-08-28T19:10:05Z</time>
  <course>277.21</course>
  <speed>0.0</speed>
  <fix>3d</fix>
</trkpt>
<trkpt lat="40.0728419" lon="-105.2305749">
  <ele>1586.18</ele>
  <time>2026-08-28T19:10:05Z</time>
  <course>10.32</course>
  <speed>0.022360679774997897</speed>
  <fix>3d</fix>
</trkpt>
<trkpt lat="40.072842" lon="-105.230575">
  <ele>1586.09</ele>
  <time>2026-08-28T19:10:05Z</time>
  <course>274.04</course>
  <speed>0.0</speed>
  <fix>3d</fix>
</trkpt>
<trkpt lat="40.0728419" lon="-105.2305749">
  <ele>1586.18</ele>
  <time>2026-08-28T19:10:05Z</time>
  <course>10.32</course>
  <speed>0.022360679774997897</speed>
  <fix>3d</fix>
</trkpt>
<trkpt lat="40.072842" lon="-105.230575">
  <ele>1586.09</ele>
  <time>2026-08-28T19:10:05Z</time>
  <course>312.19</course>
  <speed>0.0</speed>
  <fix>3d</fix>
</trkpt>
<trkpt lat="40.0728419" lon="-105.2305749">
  <ele>1586.18</ele>
  <time>2026-08-28T19:10:05Z</time>
  <course>10.32</course>
  <speed>0.022360679774997897</speed>
  <fix>3d</fix>
</trkpt>
<trkpt lat="40.072842" lon="-105.230575">
  <ele>1586.09</ele>
  <time>2026-08-28T19:10:05Z</time>
  <course>294.63</course>
  <speed>0.0</speed>
  <fix>3d</fix>
</trkpt>
<trkpt lat="40.0728419" lon="-105.2305749">
  <ele>1586.18</ele>
  <time>2026-08-28T19:10:05Z</time>
  <course>10.32</course>
  <speed>0.022360679774997897</speed>
  <fix>3d</fix>
</trkpt>
<trkpt lat="40.072842" lon="-105.230575">
  <ele>1586.09</ele>
  <time>2026-08-28T19:10:05Z</time>
  <course>277.61</course>
  <speed>0.0</speed>
  <fix>3d</fix>
</trkpt>
<trkpt lat="40.0728419" lon="-105.2305749">
  <ele>1586.18</ele>
  <time>2026-08-28T19:10:05Z</time>
  <course>10.32</course>
  <speed>0.022360679774997897</speed>
  <fix>3d</fix>
</trkpt>
<trkpt lat="40.072842" lon="-105.230575">
  <ele>1586.09</ele>
  <time>2026-08-28T19:10:05Z</time>
  <course>242.92</course>
  <speed>0.0</speed>
  <fix>3d</fix>
</trkpt>
<trkpt lat="40.0728419" lon="-105.2305749">
  <ele>1586.18</ele>
  <time>2026-08-28T19:10:05Z</time>
  <course>10.32</course>
  <speed>0.022360679774997897</speed>
  <fix>3d</fix>
</trkpt>
<trkpt lat="40.072842" lon="-105.230575">
  <ele>1586.09</ele>
  <time>2026-08-28T19:10:05Z</time>
  <course>269.06</course>
  <speed>0.0</speed>
  <fix>3d</fix>
</trkpt>
<trkpt lat="40.0728419" lon="-105.2305749">
  <ele>1586.19</ele>
  <time>2026-08-28T19:10:05Z</time>
  <course>10.32</course>
  <speed>0.022360679774997897</speed>
  <fix>3d</fix>
</trkpt>
<trkpt lat="40.072842" lon="-105.230575">
  <ele>1586.09</ele>
  <time>2026-08-28T19:10:05Z</time>
  <course>134.71</course>
  <speed>0.0</speed>
  <fix>3d</fix>
</trkpt>
<trkpt lat="40.0728419" lon="-105.2305749">
  <ele>1586.18</ele>
  <time>2026-08-28T19:10:05Z</time>
  <course>10.32</course>
  <speed>0.022360679774997897</speed>
  <fix>3d</fix>
</trkpt>
<trkpt lat="40.072842" lon="-105.230575">
  <ele>1586.09</ele>
  <time>2026-08-28T19:10:05Z</time>
  <course>113.25</course>
  <speed>0.0</speed>
  <fix>3d</fix>
</trkpt>
<trkpt lat="40.0728419" lon="-105.2305749">
  <ele>1586.18</ele>
  <time>2026-08-28T19:10:05Z</time>
  <course>10.32</course>
  <speed>0.022360679774997897</speed>
  <fix>3d</fix>
</trkpt>
<trkpt lat="40.072842" lon="-105.230575">
  <ele>1586.09</ele>
  <time>2026-08-28T19:10:05Z</time>
  <course>68.91</course>
  <speed>0.0</speed>
  <fix>3d</fix>
</trkpt>
<trkpt lat="40.0728419" lon="-105.2305749">
  <ele>1586.18</ele>
  <time>2026-08-28T19:10:05Z</time>
  <course>10.32</course>
  <speed>0.022360679774997897</speed>
  <fix>3d</fix>
</trkpt>
<trkpt lat="40.072842" lon="-105.230575">
  <ele>1586.09</ele>
  <time>2026-08-28T19:10:05Z</time>
  <course>287.45</course>
  <speed>0.0</speed>
  <fix>3d</fix>
</trkpt>
<trkpt lat="40.0728419" lon="-105.2305749">
  <ele>1586.17</ele>
  <time>2026-08-28T19:10:05Z</time>
  <course>10.33</course>
  <speed>0.022360679774997897</speed>
  <fix>3d</fix>
</trkpt>
<trkpt lat="40.072842" lon="-105.230575">
  <ele>1586.09</ele>
  <time>2026-08-28T19:10:05Z</time>
  <course>223.12</course>
  <speed>0.0</speed>
  <fix>3d</fix>
</trkpt>
<trkpt lat="40.0728419" lon="-105.2305749">
  <ele>1586.17</ele>
  <time>2026-08-28T19:10:05Z</time>
  <course>10.33</course>
  <speed>0.022360679774997897</speed>
  <fix>3d</fix>
</trkpt>
<trkpt lat="40.072842" lon="-105.230575">
  <ele>1586.09</ele>
  <time>2026-08-28T19:10:05Z</time>
  <course>100.27</course>
  <speed>0.0</speed>
  <fix>3d</fix>
</trkpt>
<trkpt lat="40.0728419" lon="-105.2305749">
  <ele>1586.17</ele>
  <time>2026-08-28T19:10:06Z</time>
  <course>10.33</course>
  <speed>0.01414213562373095</speed>
  <fix>3d</fix>
</trkpt>
<trkpt lat="40.072842" lon="-105.230575">
  <ele>1586.09</ele>
  <time>2026-08-28T19:10:06Z</time>
  <course>319.79</course>
  <speed>0.0</speed>
  <fix>3d</fix>
</trkpt>
<trkpt lat="40.0728419" lon="-105.2305749">
  <ele>1586.17</ele>
  <time>2026-08-28T19:10:06Z</time>
  <course>10.33</course>
  <speed>0.01414213562373095</speed>
  <fix>3d</fix>
</trkpt>
<trkpt lat="40.072842" lon="-105.230575">
  <ele>1586.09</ele>
  <time>2026-08-28T19:10:06Z</time>
  <course>279.14</course>
  <speed>0.0</speed>
  <fix>3d</fix>
</trkpt>
<trkpt lat="40.0728419" lon="-105.2305749">
  <ele>1586.17</ele>
  <time>2026-08-28T19:10:06Z</time>
  <course>10.33</course>
  <speed>0.01414213562373095</speed>
  <fix>3d</fix>
</trkpt>
<trkpt lat="40.072842" lon="-105.230575">
  <ele>1586.09</ele>
  <time>2026-08-28T19:10:06Z</time>
  <course>276.21</course>
  <speed>0.0</speed>
  <fix>3d</fix>
</trkpt>
<trkpt lat="40.0728419" lon="-105.2305749">
  <ele>1586.18</ele>
  <time>2026-08-28T19:10:06Z</time>
  <course>10.33</course>
  <speed>0.01414213562373095</speed>
  <fix>3d</fix>
</trkpt>
<trkpt lat="40.072842" lon="-105.230575">
  <ele>1586.09</ele>
  <time>2026-08-28T19:10:06Z</time>
  <course>287.88</course>
  <speed>0.0</speed>
  <fix>3d</fix>
</trkpt>
<trkpt lat="40.0728419" lon="-105.2305749">
  <ele>1586.18</ele>
  <time>2026-08-28T19:10:06Z</time>
  <course>10.33</course>
  <speed>0.01414213562373095</speed>
  <fix>3d</fix>
</trkpt>
<trkpt lat="40.072842" lon="-105.230575">
  <ele>1586.09</ele>
  <time>2026-08-28T19:10:06Z</time>
  <course>285.6</course>
  <speed>0.0</speed>
  <fix>3d</fix>
</trkpt>
<trkpt lat="40.0728419" lon="-105.2305749">
  <ele>1586.17</ele>
  <time>2026-08-28T19:10:06Z</time>
  <course>10.33</course>
  <speed>0.01414213562373095</speed>
  <fix>3d</fix>
</trkpt>
<trkpt lat="40.072842" lon="-105.230575">
  <ele>1586.09</ele>
  <time>2026-08-28T19:10:06Z</time>
  <course>284.99</course>
  <speed>0.0</speed>
  <fix>3d</fix>
</trkpt>
<trkpt lat="40.0728419" lon="-105.2305749">
  <ele>1586.18</ele>
  <time>2026-08-28T19:10:06Z</time>
  <course>10.33</course>
  <speed>0.01414213562373095</speed>
  <fix>3d</fix>
</trkpt>
<trkpt lat="40.072842" lon="-105.230575">
  <ele>1586.09</ele>
  <time>2026-08-28T19:10:06Z</time>
  <course>284.98</course>
  <speed>0.0</speed>
  <fix>3d</fix>
</trkpt>
<trkpt lat="40.0728419" lon="-105.2305749">
  <ele>1586.18</ele>
  <time>2026-08-28T19:10:06Z</time>
  <course>10.33</course>
  <speed>0.01414213562373095</speed>
  <fix>3d</fix>
</trkpt>
<trkpt lat="40.072842" lon="-105.230575">
  <ele>1586.09</ele>
  <time>2026-08-28T19:10:06Z</time>
  <course>284.99</course>
  <speed>0.0</speed>
  <fix>3d</fix>
</trkpt>
<trkpt lat="40.0728419" lon="-105.2305749">
  <ele>1586.18</ele>
  <time>2026-08-28T19:10:06Z</time>
  <course>10.33</course>
  <speed>0.01414213562373095</speed>
  <fix>3d</fix>
</trkpt>
<trkpt lat="40.072842" lon="-105.230575">
  <ele>1586.09</ele>
  <time>2026-08-28T19:10:06Z</time>
  <course>284.99</course>
  <speed>0.0</speed>
  <fix>3d</fix>
</trkpt>
<trkpt lat="40.0728419" lon="-105.2305749">
  <ele>1586.18</ele>
  <time>2026-08-28T19:10:06Z</time>
  <course>10.33</course>
  <speed>0.01414213562373095</speed>
  <fix>3d</fix>
</trkpt>
<trkpt lat="40.072842" lon="-105.230575">
  <ele>1586.09</ele>
  <time>2026-08-28T19:10:06Z</time>
  <course>284.99</course>
  <speed>0.0</speed>
  <fix>3d</fix>
</trkpt>
<trkpt lat="40.0728419" lon="-105.2305749">
  <ele>1586.18</ele>
  <time>2026-08-28T19:10:06Z</time>
  <course>10.33</course>
  <speed>0.01414213562373095</speed>
  <fix>3d</fix>
</trkpt>
<trkpt lat="40.072842" lon="-105.230575">
  <ele>1586.09</ele>
  <time>2026-08-28T19:10:06Z</time>
  <course>284.99</course>
  <speed>0.0</speed>
  <fix>3d</fix>
</trkpt>
<trkpt lat="40.0728419" lon="-105.2305749">
  <ele>1586.17</ele>
  <time>2026-08-28T19:10:06Z</time>
  <course>10.33</course>
  <speed>0.01414213562373095</speed>
  <fix>3d</fix>
</trkpt>
<trkpt lat="40.072842" lon="-105.230575">
  <ele>1586.09</ele>
  <time>2026-08-28T19:10:06Z</time>
  <course>284.99</course>
  <speed>0.0</speed>
  <fix>3d</fix>
</trkpt>
<trkpt lat="40.0728419" lon="-105.2305749">
  <ele>1586.17</ele>
  <time>2026-08-28T19:10:06Z</time>
  <course>10.33</course>
  <speed>0.01414213562373095</speed>
  <fix>3d</fix>
</trkpt>
<trkpt lat="40.072842" lon="-105.230575">
  <ele>1586.09</ele>
  <time>2026-08-28T19:10:06Z</time>
  <course>284.99</course>
  <speed>0.0</speed>
  <fix>3d</fix>
</trkpt>
<trkpt lat="40.0728419" lon="-105.2305749">
  <ele>1586.17</ele>
  <time>2026-08-28T19:10:06Z</time>
  <course>10.33</course>
  <speed>0.01414213562373095</speed>
  <fix>3d</fix>
</trkpt>
<trkpt lat="40.072842" lon="-105.230575">
  <ele>1586.09</ele>
  <time>2026-08-28T19:10:06Z</time>
  <course>284.99</course>
  <speed>0.0</speed>
  <fix>3d</fix>
</trkpt>
<trkpt lat="40.0728419" lon="-105.2305749">
  <ele>1586.17</ele>
  <time>2026-08-28T19:10:06Z</time>
  <course>10.33</course>
  <speed>0.01414213562373095</speed>
  <fix>3d</fix>
</trkpt>
<trkpt lat="40.072842" lon="-105.230575">
  <ele>1586.09</ele>
  <time>2026-08-28T19:10:06Z</time>
  <course>284.99</course>
  <speed>0.0</speed>
  <fix>3d</fix>
</trkpt>
<trkpt lat="40.0728419" lon="-105.2305749">
  <ele>1586.17</ele>
  <time>2026-08-28T19:10:06Z</time>
  <course>10.33</course>
  <speed>0.01414213562373095</speed>
  <fix>3d</fix>
</trkpt>
<trkpt lat="40.072842" lon="-105.230575">
  <ele>1586.09</ele>
  <time>2026-08-28T19:10:06Z</time>
  <course>284.99</course>
  <speed>0.0</speed>
  <fix>3d</fix>
</trkpt>
<trkpt lat="40.0728419" lon="-105.2305749">
  <ele>1586.17</ele>
  <time>2026-08-28T19:10:06Z</time>
  <course>10.33</course>
  <speed>0.01414213562373095</speed>
  <fix>3d</fix>
</trkpt>
<trkpt lat="40.072842" lon="-105.230575">
  <ele>1586.09</ele>
  <time>2026-08-28T19:10:06Z</time>
  <course>284.99</course>
  <speed>0.0</speed>
  <fix>3d</fix>
</trkpt>
<trkpt lat="40.0728419" lon="-105.2305749">
  <ele>1586.17</ele>
  <time>2026-08-28T19:10:06Z</time>
  <course>10.33</course>
  <speed>0.01414213562373095</speed>
  <fix>3d</fix>
</trkpt>
<trkpt lat="40.072842" lon="-105.230575">
  <ele>1586.09</ele>
  <time>2026-08-28T19:10:06Z</time>
  <course>284.99</course>
  <speed>0.0</speed>
  <fix>3d</fix>
</trkpt>
<trkpt lat="40.0728419" lon="-105.2305749">
  <ele>1586.17</ele>
  <time>2026-08-28T19:10:06Z</time>
  <course>10.33</course>
  <speed>0.01414213562373095</speed>
  <fix>3d</fix>
</trkpt>
<trkpt lat="40.072842" lon="-105.230575">
  <ele>1586.09</ele>
  <time>2026-08-28T19:10:06Z</time>
  <course>284.99</course>
  <speed>0.0</speed>
  <fix>3d</fix>
</trkpt>
<trkpt lat="40.0728419" lon="-105.2305749">
  <ele>1586.17</ele>
  <time>2026-08-28T19:10:06Z</time>
  <course>10.33</course>
  <speed>0.01414213562373095</speed>
  <fix>3d</fix>
</trkpt>
<trkpt lat="40.072842" lon="-105.230575">
  <ele>1586.09</ele>
  <time>2026-08-28T19:10:06Z</time>
  <course>284.99</course>
  <speed>0.0</speed>
  <fix>3d</fix>
</trkpt>
<trkpt lat="40.0728419" lon="-105.2305749">
  <ele>1586.17</ele>
  <time>2026-08-28T19:10:06Z</time>
  <course>10.33</course>
  <speed>0.01414213562373095</speed>
  <fix>3d</fix>
</trkpt>
<trkpt lat="40.072842" lon="-105.230575">
  <ele>1586.09</ele>
  <time>2026-08-28T19:10:06Z</time>
  <course>284.99</course>
  <speed>0.0</speed>
  <fix>3d</fix>
</trkpt>
<trkpt lat="40.0728419" lon="-105.2305749">
  <ele>1586.16</ele>
  <time>2026-08-28T19:10:06Z</time>
  <course>10.33</course>
  <speed>0.01414213562373095</speed>
  <fix>3d</fix>
</trkpt>
<trkpt lat="40.072842" lon="-105.230575">
  <ele>1586.09</ele>
  <time>2026-08-28T19:10:06Z</time>
  <course>284.99</course>
  <speed>0.0</speed>
  <fix>3d</fix>
</trkpt>
<trkpt lat="40.0728419" lon="-105.2305749">
  <ele>1586.16</ele>
  <time>2026-08-28T19:10:06Z</time>
  <course>10.34</course>
  <speed>0.01414213562373095</speed>
  <fix>3d</fix>
</trkpt>
<trkpt lat="40.072842" lon="-105.230575">
  <ele>1586.09</ele>
  <time>2026-08-28T19:10:06Z</time>
  <course>284.99</course>
  <speed>0.0</speed>
  <fix>3d</fix>
</trkpt>
<trkpt lat="40.0728419" lon="-105.2305749">
  <ele>1586.16</ele>
  <time>2026-08-28T19:10:06Z</time>
  <course>10.34</course>
  <speed>0.01414213562373095</speed>
  <fix>3d</fix>
</trkpt>
<trkpt lat="40.072842" lon="-105.230575">
  <ele>1586.09</ele>
  <time>2026-08-28T19:10:06Z</time>
  <course>284.99</course>
  <speed>0.0</speed>
  <fix>3d</fix>
</trkpt>
<trkpt lat="40.0728419" lon="-105.2305749">
  <ele>1586.16</ele>
  <time>2026-08-28T19:10:06Z</time>
  <course>10.34</course>
  <speed>0.01414213562373095</speed>
  <fix>3d</fix>
</trkpt>
<trkpt lat="40.072842" lon="-105.230575">
  <ele>1586.09</ele>
  <time>2026-08-28T19:10:06Z</time>
  <course>284.99</course>
  <speed>0.0</speed>
  <fix>3d</fix>
</trkpt>
<trkpt lat="40.0728419" lon="-105.2305749">
  <ele>1586.16</ele>
  <time>2026-08-28T19:10:06Z</time>
  <course>10.34</course>
  <speed>0.01414213562373095</speed>
  <fix>3d</fix>
</trkpt>
<trkpt lat="40.072842" lon="-105.230575">
  <ele>1586.09</ele>
  <time>2026-08-28T19:10:06Z</time>
  <course>284.99</course>
  <speed>0.0</speed>
  <fix>3d</fix>
</trkpt>
<trkpt lat="40.0728419" lon="-105.2305749">
  <ele>1586.16</ele>
  <time>2026-08-28T19:10:06Z</time>
  <course>10.34</course>
  <speed>0.01414213562373095</speed>
  <fix>3d</fix>
</trkpt>
<trkpt lat="40.072842" lon="-105.230575">
  <ele>1586.09</ele>
  <time>2026-08-28T19:10:06Z</time>
  <course>284.99</course>
  <speed>0.0</speed>
  <fix>3d</fix>
</trkpt>
<trkpt lat="40.0728419" lon="-105.2305749">
  <ele>1586.16</ele>
  <time>2026-08-28T19:10:06Z</time>
  <course>10.34</course>
  <speed>0.01414213562373095</speed>
  <fix>3d</fix>
</trkpt>
<trkpt lat="40.072842" lon="-105.230575">
  <ele>1586.09</ele>
  <time>2026-08-28T19:10:06Z</time>
  <course>284.99</course>
  <speed>0.0</speed>
  <fix>3d</fix>
</trkpt>
<trkpt lat="40.0728419" lon="-105.2305749">
  <ele>1586.15</ele>
  <time>2026-08-28T19:10:06Z</time>
  <course>10.34</course>
  <speed>0.01414213562373095</speed>
  <fix>3d</fix>
</trkpt>
<trkpt lat="40.072842" lon="-105.230575">
  <ele>1586.09</ele>
  <time>2026-08-28T19:10:06Z</time>
  <course>284.99</course>
  <speed>0.0</speed>
  <fix>3d</fix>
</trkpt>
<trkpt lat="40.0728419" lon="-105.2305749">
  <ele>1586.15</ele>
  <time>2026-08-28T19:10:06Z</time>
  <course>10.34</course>
  <speed>0.01414213562373095</speed>
  <fix>3d</fix>
</trkpt>
<trkpt lat="40.072842" lon="-105.230575">
  <ele>1586.09</ele>
  <time>2026-08-28T19:10:06Z</time>
  <course>284.99</course>
  <speed>0.0</speed>
  <fix>3d</fix>
</trkpt>
<trkpt lat="40.0728419" lon="-105.2305749">
  <ele>1586.15</ele>
  <time>2026-08-28T19:10:06Z</time>
  <course>10.34</course>
  <speed>0.022360679774997897</speed>
  <fix>3d</fix>
</trkpt>
<trkpt lat="40.072842" lon="-105.230575">
  <ele>1586.09</ele>
  <time>2026-08-28T19:10:06Z</time>
  <course>284.99</course>
  <speed>0.0</speed>
  <fix>3d</fix>
</trkpt>
<trkpt lat="40.0728419" lon="-105.2305749">
  <ele>1586.15</ele>
  <time>2026-08-28T19:10:06Z</time>
  <course>10.34</course>
  <speed>0.022360679774997897</speed>
  <fix>3d</fix>
</trkpt>
<trkpt lat="40.072842" lon="-105.230575">
  <ele>1586.09</ele>
  <time>2026-08-28T19:10:06Z</time>
  <course>284.99</course>
  <speed>0.0</speed>
  <fix>3d</fix>
</trkpt>
<trkpt lat="40.0728419" lon="-105.2305749">
  <ele>1586.15</ele>
  <time>2026-08-28T19:10:06Z</time>
  <course>10.34</course>
  <speed>0.022360679774997897</speed>
  <fix>3d</fix>
</trkpt>
<trkpt lat="40.072842" lon="-105.230575">
  <ele>1586.09</ele>
  <time>2026-08-28T19:10:06Z</time>
  <course>284.99</course>
  <speed>0.0</speed>
  <fix>3d</fix>
</trkpt>
<trkpt lat="40.0728419" lon="-105.2305749">
  <ele>1586.15</ele>
  <time>2026-08-28T19:10:06Z</time>
  <course>10.34</course>
  <speed>0.022360679774997897</speed>
  <fix>3d</fix>
</trkpt>
<trkpt lat="40.072842" lon="-105.230575">
  <ele>1586.09</ele>
  <time>2026-08-28T19:10:06Z</time>
  <course>284.99</course>
  <speed>0.0</speed>
  <fix>3d</fix>
</trkpt>
<trkpt lat="40.0728419" lon="-105.2305749">
  <ele>1586.15</ele>
  <time>2026-08-28T19:10:06Z</time>
  <course>10.34</course>
  <speed>0.022360679774997897</speed>
  <fix>3d</fix>
</trkpt>
<trkpt lat="40.072842" lon="-105.230575">
  <ele>1586.09</ele>
  <time>2026-08-28T19:10:06Z</time>
  <course>284.99</course>
  <speed>0.0</speed>
  <fix>3d</fix>
</trkpt>
<trkpt lat="40.0728419" lon="-105.2305749">
  <ele>1586.15</ele>
  <time>2026-08-28T19:10:06Z</time>
  <course>10.34</course>
  <speed>0.022360679774997897</speed>
  <fix>3d</fix>
</trkpt>
<trkpt lat="40.072842" lon="-105.230575">
  <ele>1586.09</ele>
  <time>2026-08-28T19:10:06Z</time>
  <course>284.99</course>
  <speed>0.0</speed>
  <fix>3d</fix>
</trkpt>
<trkpt lat="40.0728419" lon="-105.2305749">
  <ele>1586.15</ele>
  <time>2026-08-28T19:10:06Z</time>
  <course>10.34</course>
  <speed>0.022360679774997897</speed>
  <fix>3d</fix>
</trkpt>
<trkpt lat="40.072842" lon="-105.230575">
  <ele>1586.09</ele>
  <time>2026-08-28T19:10:06Z</time>
  <course>284.99</course>
  <speed>0.0</speed>
  <fix>3d</fix>
</trkpt>
<trkpt lat="40.0728419" lon="-105.2305749">
  <ele>1586.16</ele>
  <time>2026-08-28T19:10:06Z</time>
  <course>10.34</course>
  <speed>0.022360679774997897</speed>
  <fix>3d</fix>
</trkpt>
<trkpt lat="40.072842" lon="-105.230575">
  <ele>1586.09</ele>
  <time>2026-08-28T19:10:06Z</time>
  <course>284.99</course>
  <speed>0.0</speed>
  <fix>3d</fix>
</trkpt>
<trkpt lat="40.0728419" lon="-105.2305749">
  <ele>1586.17</ele>
  <time>2026-08-28T19:10:06Z</time>
  <course>10.34</course>
  <speed>0.022360679774997897</speed>
  <fix>3d</fix>
</trkpt>
<trkpt lat="40.072842" lon="-105.230575">
  <ele>1586.09</ele>
  <time>2026-08-28T19:10:06Z</time>
  <course>284.99</course>
  <speed>0.0</speed>
  <fix>3d</fix>
</trkpt>
<trkpt lat="40.0728419" lon="-105.2305749">
  <ele>1586.17</ele>
  <time>2026-08-28T19:10:06Z</time>
  <course>10.35</course>
  <speed>0.022360679774997897</speed>
  <fix>3d</fix>
</trkpt>
<trkpt lat="40.072842" lon="-105.230575">
  <ele>1586.09</ele>
  <time>2026-08-28T19:10:06Z</time>
  <course>284.99</course>
  <speed>0.0</speed>
  <fix>3d</fix>
</trkpt>
<trkpt lat="40.0728419" lon="-105.2305749">
  <ele>1586.17</ele>
  <time>2026-08-28T19:10:06Z</time>
  <course>10.35</course>
  <speed>0.022360679774997897</speed>
  <fix>3d</fix>
</trkpt>
<trkpt lat="40.072842" lon="-105.230575">
  <ele>1586.09</ele>
  <time>2026-08-28T19:10:06Z</time>
  <course>284.99</course>
  <speed>0.0</speed>
  <fix>3d</fix>
</trkpt>
<trkpt lat="40.0728419" lon="-105.2305749">
  <ele>1586.17</ele>
  <time>2026-08-28T19:10:06Z</time>
  <course>10.35</course>
  <speed>0.022360679774997897</speed>
  <fix>3d</fix>
</trkpt>
<trkpt lat="40.072842" lon="-105.230575">
  <ele>1586.09</ele>
  <time>2026-08-28T19:10:06Z</time>
  <course>284.99</course>
  <speed>0.0</speed>
  <fix>3d</fix>
</trkpt>
<trkpt lat="40.0728419" lon="-105.2305749">
  <ele>1586.17</ele>
  <time>2026-08-28T19:10:06Z</time>
  <course>10.35</course>
  <speed>0.022360679774997897</speed>
  <fix>3d</fix>
</trkpt>
<trkpt lat="40.072842" lon="-105.230575">
  <ele>1586.09</ele>
  <time>2026-08-28T19:10:06Z</time>
  <course>301.37</course>
  <speed>0.0</speed>
  <fix>3d</fix>
</trkpt>
<trkpt lat="40.0728419" lon="-105.2305749">
  <ele>1586.17</ele>
  <time>2026-08-28T19:10:06Z</time>
  <course>10.35</course>
  <speed>0.022360679774997897</speed>
  <fix>3d</fix>
</trkpt>
<trkpt lat="40.072842" lon="-105.230575">
  <ele>1586.09</ele>
  <time>2026-08-28T19:10:06Z</time>
  <course>294.86</course>
  <speed>0.0</speed>
  <fix>3d</fix>
</trkpt>
<trkpt lat="40.0728419" lon="-105.2305749">
  <ele>1586.17</ele>
  <time>2026-08-28T19:10:06Z</time>
  <course>10.35</course>
  <speed>0.022360679774997897</speed>
  <fix>3d</fix>
</trkpt>
<trkpt lat="40.072842" lon="-105.230575">
  <ele>1586.09</ele>
  <time>2026-08-28T19:10:06Z</time>
  <course>279.43</course>
  <speed>0.0</speed>
  <fix>3d</fix>
</trkpt>
<trkpt lat="40.0728419" lon="-105.2305749">
  <ele>1586.17</ele>
  <time>2026-08-28T19:10:06Z</time>
  <course>10.35</course>
  <speed>0.022360679774997897</speed>
  <fix>3d</fix>
</trkpt>
<trkpt lat="40.072842" lon="-105.230575">
  <ele>1586.09</ele>
  <time>2026-08-28T19:10:06Z</time>
  <course>284.35</course>
  <speed>0.0</speed>
  <fix>3d</fix>
</trkpt>
<trkpt lat="40.0728419" lon="-105.2305749">
  <ele>1586.18</ele>
  <time>2026-08-28T19:10:06Z</time>
  <course>10.35</course>
  <speed>0.022360679774997897</speed>
  <fix>3d</fix>
</trkpt>
<trkpt lat="40.072842" lon="-105.230575">
  <ele>1586.09</ele>
  <time>2026-08-28T19:10:06Z</time>
  <course>285.92</course>
  <speed>0.0</speed>
  <fix>3d</fix>
</trkpt>
<trkpt lat="40.0728419" lon="-105.2305749">
  <ele>1586.18</ele>
  <time>2026-08-28T19:10:06Z</time>
  <course>10.35</course>
  <speed>0.022360679774997897</speed>
  <fix>3d</fix>
</trkpt>
<trkpt lat="40.072842" lon="-105.230575">
  <ele>1586.09</ele>
  <time>2026-08-28T19:10:06Z</time>
  <course>284.96</course>
  <speed>0.0</speed>
  <fix>3d</fix>
</trkpt>
<trkpt lat="40.0728419" lon="-105.2305749">
  <ele>1586.18</ele>
  <time>2026-08-28T19:10:06Z</time>
  <course>10.35</course>
  <speed>0.022360679774997897</speed>
  <fix>3d</fix>
</trkpt>
<trkpt lat="40.072842" lon="-105.230575">
  <ele>1586.09</ele>
  <time>2026-08-28T19:10:06Z</time>
  <course>284.87</course>
  <speed>0.0</speed>
  <fix>3d</fix>
</trkpt>
<trkpt lat="40.0728419" lon="-105.2305749">
  <ele>1586.18</ele>
  <time>2026-08-28T19:10:06Z</time>
  <course>10.35</course>
  <speed>0.022360679774997897</speed>
  <fix>3d</fix>
</trkpt>
<trkpt lat="40.072842" lon="-105.230575">
  <ele>1586.09</ele>
  <time>2026-08-28T19:10:06Z</time>
  <course>285.01</course>
  <speed>0.0</speed>
  <fix>3d</fix>
</trkpt>
<trkpt lat="40.0728419" lon="-105.2305749">
  <ele>1586.18</ele>
  <time>2026-08-28T19:10:06Z</time>
  <course>10.35</course>
  <speed>0.01414213562373095</speed>
  <fix>3d</fix>
</trkpt>
<trkpt lat="40.072842" lon="-105.230575">
  <ele>1586.09</ele>
  <time>2026-08-28T19:10:06Z</time>
  <course>285.01</course>
  <speed>0.0</speed>
  <fix>3d</fix>
</trkpt>
<trkpt lat="40.0728419" lon="-105.2305749">
  <ele>1586.18</ele>
  <time>2026-08-28T19:10:06Z</time>
  <course>10.35</course>
  <speed>0.01414213562373095</speed>
  <fix>3d</fix>
</trkpt>
<trkpt lat="40.072842" lon="-105.230575">
  <ele>1586.09</ele>
  <time>2026-08-28T19:10:06Z</time>
  <course>284.99</course>
  <speed>0.0</speed>
  <fix>3d</fix>
</trkpt>
<trkpt lat="40.0728419" lon="-105.2305749">
  <ele>1586.18</ele>
  <time>2026-08-28T19:10:06Z</time>
  <course>10.35</course>
  <speed>0.01414213562373095</speed>
  <fix>3d</fix>
</trkpt>
<trkpt lat="40.072842" lon="-105.230575">
  <ele>1586.09</ele>
  <time>2026-08-28T19:10:06Z</time>
  <course>284.99</course>
  <speed>0.0</speed>
  <fix>3d</fix>
</trkpt>
<trkpt lat="40.0728419" lon="-105.2305749">
  <ele>1586.18</ele>
  <time>2026-08-28T19:10:06Z</time>
  <course>10.35</course>
  <speed>0.01414213562373095</speed>
  <fix>3d</fix>
</trkpt>
<trkpt lat="40.072842" lon="-105.230575">
  <ele>1586.09</ele>
  <time>2026-08-28T19:10:06Z</time>
  <course>284.99</course>
  <speed>0.0</speed>
  <fix>3d</fix>
</trkpt>
<trkpt lat="40.0728419" lon="-105.2305749">
  <ele>1586.18</ele>
  <time>2026-08-28T19:10:06Z</time>
  <course>10.35</course>
  <speed>0.01414213562373095</speed>
  <fix>3d</fix>
</trkpt>
<trkpt lat="40.072842" lon="-105.230575">
  <ele>1586.09</ele>
  <time>2026-08-28T19:10:06Z</time>
  <course>284.97</course>
  <speed>0.0</speed>
  <fix>3d</fix>
</trkpt>
<trkpt lat="40.0728419" lon="-105.2305749">
  <ele>1586.18</ele>
  <time>2026-08-28T19:10:06Z</time>
  <course>10.35</course>
  <speed>0.01414213562373095</speed>
  <fix>3d</fix>
</trkpt>
<trkpt lat="40.072842" lon="-105.230575">
  <ele>1586.09</ele>
  <time>2026-08-28T19:10:06Z</time>
  <course>284.89</course>
  <speed>0.0</speed>
  <fix>3d</fix>
</trkpt>
<trkpt lat="40.0728419" lon="-105.2305749">
  <ele>1586.18</ele>
  <time>2026-08-28T19:10:06Z</time>
  <course>10.35</course>
  <speed>0.01414213562373095</speed>
  <fix>3d</fix>
</trkpt>
<trkpt lat="40.072842" lon="-105.230575">
  <ele>1586.09</ele>
  <time>2026-08-28T19:10:06Z</time>
  <course>284.79</course>
  <speed>0.0</speed>
  <fix>3d</fix>
</trkpt>
<trkpt lat="40.0728419" lon="-105.2305749">
  <ele>1586.18</ele>
  <time>2026-08-28T19:10:06Z</time>
  <course>10.34</course>
  <speed>0.01414213562373095</speed>
  <fix>3d</fix>
</trkpt>
<trkpt lat="40.072842" lon="-105.230575">
  <ele>1586.09</ele>
  <time>2026-08-28T19:10:06Z</time>
  <course>284.69</course>
  <speed>0.0</speed>
  <fix>3d</fix>
</trkpt>
<trkpt lat="40.0728419" lon="-105.2305749">
  <ele>1586.19</ele>
  <time>2026-08-28T19:10:06Z</time>
  <course>10.33</course>
  <speed>0.01414213562373095</speed>
  <fix>3d</fix>
</trkpt>
<trkpt lat="40.072842" lon="-105.230575">
  <ele>1586.09</ele>
  <time>2026-08-28T19:10:06Z</time>
  <course>284.59</course>
  <speed>0.0</speed>
  <fix>3d</fix>
</trkpt>
<trkpt lat="40.0728419" lon="-105.2305749">
  <ele>1586.19</ele>
  <time>2026-08-28T19:10:06Z</time>
  <course>10.33</course>
  <speed>0.01414213562373095</speed>
  <fix>3d</fix>
</trkpt>
<trkpt lat="40.072842" lon="-105.230575">
  <ele>1586.09</ele>
  <time>2026-08-28T19:10:06Z</time>
  <course>284.5</course>
  <speed>0.0</speed>
  <fix>3d</fix>
</trkpt>
<trkpt lat="40.0728419" lon="-105.2305749">
  <ele>1586.19</ele>
  <time>2026-08-28T19:10:06Z</time>
  <course>10.32</course>
  <speed>0.01414213562373095</speed>
  <fix>3d</fix>
</trkpt>
<trkpt lat="40.072842" lon="-105.230575">
  <ele>1586.09</ele>
  <time>2026-08-28T19:10:06Z</time>
  <course>284.39</course>
  <speed>0.0</speed>
  <fix>3d</fix>
</trkpt>
<trkpt lat="40.0728419" lon="-105.2305749">
  <ele>1586.19</ele>
  <time>2026-08-28T19:10:06Z</time>
  <course>10.3</course>
  <speed>0.01414213562373095</speed>
  <fix>3d</fix>
</trkpt>
<trkpt lat="40.072842" lon="-105.230575">
  <ele>1586.09</ele>
  <time>2026-08-28T19:10:06Z</time>
  <course>284.29</course>
  <speed>0.0</speed>
  <fix>3d</fix>
</trkpt>
<trkpt lat="40.0728419" lon="-105.2305749">
  <ele>1586.2</ele>
  <time>2026-08-28T19:10:06Z</time>
  <course>10.29</course>
  <speed>0.01414213562373095</speed>
  <fix>3d</fix>
</trkpt>
<trkpt lat="40.072842" lon="-105.230575">
  <ele>1586.09</ele>
  <time>2026-08-28T19:10:06Z</time>
  <course>284.19</course>
  <speed>0.0</speed>
  <fix>3d</fix>
</trkpt>
<trkpt lat="40.0728419" lon="-105.2305749">
  <ele>1586.2</ele>
  <time>2026-08-28T19:10:06Z</time>
  <course>10.28</course>
  <speed>0.01414213562373095</speed>
  <fix>3d</fix>
</trkpt>
<trkpt lat="40.072842" lon="-105.230575">
  <ele>1586.09</ele>
  <time>2026-08-28T19:10:06Z</time>
  <course>284.08</course>
  <speed>0.0</speed>
  <fix>3d</fix>
</trkpt>
<trkpt lat="40.0728419" lon="-105.2305749">
  <ele>1586.2</ele>
  <time>2026-08-28T19:10:06Z</time>
  <course>10.26</course>
  <speed>0.01414213562373095</speed>
  <fix>3d</fix>
</trkpt>
<trkpt lat="40.072842" lon="-105.230575">
  <ele>1586.09</ele>
  <time>2026-08-28T19:10:06Z</time>
  <course>283.97</course>
  <speed>0.0</speed>
  <fix>3d</fix>
</trkpt>
<trkpt lat="40.0728419" lon="-105.2305749">
  <ele>1586.2</ele>
  <time>2026-08-28T19:10:06Z</time>
  <course>10.24</course>
  <speed>0.01414213562373095</speed>
  <fix>3d</fix>
</trkpt>
<trkpt lat="40.072842" lon="-105.230575">
  <ele>1586.09</ele>
  <time>2026-08-28T19:10:06Z</time>
  <course>283.86</course>
  <speed>0.0</speed>
  <fix>3d</fix>
</trkpt>
<trkpt lat="40.0728419" lon="-105.2305749">
  <ele>1586.2</ele>
  <time>2026-08-28T19:10:06Z</time>
  <course>10.22</course>
  <speed>0.01414213562373095</speed>
  <fix>3d</fix>
</trkpt>
<trkpt lat="40.072842" lon="-105.230575">
  <ele>1586.09</ele>
  <time>2026-08-28T19:10:06Z</time>
  <course>283.75</course>
  <speed>0.0</speed>
  <fix>3d</fix>
</trkpt>
<trkpt lat="40.0728419" lon="-105.2305749">
  <ele>1586.19</ele>
  <time>2026-08-28T19:10:06Z</time>
  <course>10.2</course>
  <speed>0.01414213562373095</speed>
  <fix>3d</fix>
</trkpt>
<trkpt lat="40.072842" lon="-105.230575">
  <ele>1586.09</ele>
  <time>2026-08-28T19:10:06Z</time>
  <course>283.63</course>
  <speed>0.0</speed>
  <fix>3d</fix>
</trkpt>
<trkpt lat="40.0728419" lon="-105.2305749">
  <ele>1586.19</ele>
  <time>2026-08-28T19:10:06Z</time>
  <course>10.18</course>
  <speed>0.01414213562373095</speed>
  <fix>3d</fix>
</trkpt>
<trkpt lat="40.072842" lon="-105.230575">
  <ele>1586.09</ele>
  <time>2026-08-28T19:10:06Z</time>
  <course>283.51</course>
  <speed>0.0</speed>
  <fix>3d</fix>
</trkpt>
<trkpt lat="40.0728419" lon="-105.2305749">
  <ele>1586.19</ele>
  <time>2026-08-28T19:10:06Z</time>
  <course>10.15</course>
  <speed>0.01414213562373095</speed>
  <fix>3d</fix>
</trkpt>
<trkpt lat="40.072842" lon="-105.230575">
  <ele>1586.09</ele>
  <time>2026-08-28T19:10:06Z</time>
  <course>283.39</course>
  <speed>0.0</speed>
  <fix>3d</fix>
</trkpt>
<trkpt lat="40.0728419" lon="-105.2305749">
  <ele>1586.19</ele>
  <time>2026-08-28T19:10:06Z</time>
  <course>10.13</course>
  <speed>0.01414213562373095</speed>
  <fix>3d</fix>
</trkpt>
<trkpt lat="40.072842" lon="-105.230575">
  <ele>1586.09</ele>
  <time>2026-08-28T19:10:06Z</time>
  <course>283.27</course>
  <speed>0.0</speed>
  <fix>3d</fix>
</trkpt>
<trkpt lat="40.0728419" lon="-105.2305749">
  <ele>1586.19</ele>
  <time>2026-08-28T19:10:06Z</time>
  <course>10.1</course>
  <speed>0.01414213562373095</speed>
  <fix>3d</fix>
</trkpt>
<trkpt lat="40.072842" lon="-105.230575">
  <ele>1586.09</ele>
  <time>2026-08-28T19:10:06Z</time>
  <course>283.15</course>
  <speed>0.0</speed>
  <fix>3d</fix>
</trkpt>
<trkpt lat="40.0728419" lon="-105.2305749">
  <ele>1586.19</ele>
  <time>2026-08-28T19:10:06Z</time>
  <course>10.07</course>
  <speed>0.01414213562373095</speed>
  <fix>3d</fix>
</trkpt>
<trkpt lat="40.072842" lon="-105.230575">
  <ele>1586.09</ele>
  <time>2026-08-28T19:10:06Z</time>
  <course>283.02</course>
  <speed>0.0</speed>
  <fix>3d</fix>
</trkpt>
<trkpt lat="40.0728419" lon="-105.2305749">
  <ele>1586.19</ele>
  <time>2026-08-28T19:10:06Z</time>
  <course>10.04</course>
  <speed>0.01414213562373095</speed>
  <fix>3d</fix>
</trkpt>
<trkpt lat="40.072842" lon="-105.230575">
  <ele>1586.09</ele>
  <time>2026-08-28T19:10:06Z</time>
  <course>331.7</course>
  <speed>0.0</speed>
  <fix>3d</fix>
</trkpt>
<trkpt lat="40.0728419" lon="-105.2305749">
  <ele>1586.19</ele>
  <time>2026-08-28T19:10:06Z</time>
  <course>10.01</course>
  <speed>0.01414213562373095</speed>
  <fix>3d</fix>
</trkpt>
<trkpt lat="40.072842" lon="-105.230575">
  <ele>1586.09</ele>
  <time>2026-08-28T19:10:06Z</time>
  <course>320.81</course>
  <speed>0.0</speed>
  <fix>3d</fix>
</trkpt>
<trkpt lat="40.0728419" lon="-105.2305749">
  <ele>1586.19</ele>
  <time>2026-08-28T19:10:06Z</time>
  <course>9.97</course>
  <speed>0.022360679774997897</speed>
  <fix>3d</fix>
</trkpt>
<trkpt lat="40.072842" lon="-105.230575">
  <ele>1586.09</ele>
  <time>2026-08-28T19:10:06Z</time>
  <course>302.86</course>
  <speed>0.0</speed>
  <fix>3d</fix>
</trkpt>
<trkpt lat="40.0728419" lon="-105.2305749">
  <ele>1586.19</ele>
  <time>2026-08-28T19:10:06Z</time>
  <course>9.94</course>
  <speed>0.022360679774997897</speed>
  <fix>3d</fix>
</trkpt>
<trkpt lat="40.072842" lon="-105.230575">
  <ele>1586.09</ele>
  <time>2026-08-28T19:10:06Z</time>
  <course>212.68</course>
  <speed>0.0</speed>
  <fix>3d</fix>
</trkpt>
<trkpt lat="40.0728419" lon="-105.2305749">
  <ele>1586.19</ele>
  <time>2026-08-28T19:10:06Z</time>
  <course>9.9</course>
  <speed>0.022360679774997897</speed>
  <fix>3d</fix>
</trkpt>
<trkpt lat="40.072842" lon="-105.230575">
  <ele>1586.09</ele>
  <time>2026-08-28T19:10:06Z</time>
  <course>285.99</course>
  <speed>0.0</speed>
  <fix>3d</fix>
</trkpt>
<trkpt lat="40.0728419" lon="-105.2305749">
  <ele>1586.19</ele>
  <time>2026-08-28T19:10:06Z</time>
  <course>9.86</course>
  <speed>0.022360679774997897</speed>
  <fix>3d</fix>
</trkpt>
<trkpt lat="40.072842" lon="-105.230575">
  <ele>1586.09</ele>
  <time>2026-08-28T19:10:06Z</time>
  <course>294.53</course>
  <speed>0.0</speed>
  <fix>3d</fix>
</trkpt>
<trkpt lat="40.0728419" lon="-105.2305749">
  <ele>1586.19</ele>
  <time>2026-08-28T19:10:06Z</time>
  <course>9.82</course>
  <speed>0.022360679774997897</speed>
  <fix>3d</fix>
</trkpt>
<trkpt lat="40.072842" lon="-105.230575">
  <ele>1586.09</ele>
  <time>2026-08-28T19:10:06Z</time>
  <course>287.78</course>
  <speed>0.0</speed>
  <fix>3d</fix>
</trkpt>
<trkpt lat="40.0728419" lon="-105.2305749">
  <ele>1586.2</ele>
  <time>2026-08-28T19:10:06Z</time>
  <course>9.78</course>
  <speed>0.022360679774997897</speed>
  <fix>3d</fix>
</trkpt>
<trkpt lat="40.072842" lon="-105.230575">
  <ele>1586.09</ele>
  <time>2026-08-28T19:10:06Z</time>
  <course>287.35</course>
  <speed>0.0</speed>
  <fix>3d</fix>
</trkpt>
<trkpt lat="40.0728419" lon="-105.2305749">
  <ele>1586.2</ele>
  <time>2026-08-28T19:10:06Z</time>
  <course>9.74</course>
  <speed>0.022360679774997897</speed>
  <fix>3d</fix>
</trkpt>
<trkpt lat="40.072842" lon="-105.230575">
  <ele>1586.09</ele>
  <time>2026-08-28T19:10:06Z</time>
  <course>288.28</course>
  <speed>0.0</speed>
  <fix>3d</fix>
</trkpt>
<trkpt lat="40.0728419" lon="-105.2305749">
  <ele>1586.2</ele>
  <time>2026-08-28T19:10:06Z</time>
  <course>9.69</course>
  <speed>0.022360679774997897</speed>
  <fix>3d</fix>
</trkpt>
<trkpt lat="40.072842" lon="-105.230575">
  <ele>1586.09</ele>
  <time>2026-08-28T19:10:06Z</time>
  <course>288.05</course>
  <speed>0.0</speed>
  <fix>3d</fix>
</trkpt>
<trkpt lat="40.0728419" lon="-105.2305749">
  <ele>1586.19</ele>
  <time>2026-08-28T19:10:06Z</time>
  <course>9.65</course>
  <speed>0.022360679774997897</speed>
  <fix>3d</fix>
</trkpt>
<trkpt lat="40.072842" lon="-105.230575">
  <ele>1586.09</ele>
  <time>2026-08-28T19:10:06Z</time>
  <course>287.78</course>
  <speed>0.0</speed>
  <fix>3d</fix>
</trkpt>
<trkpt lat="40.0728419" lon="-105.2305749">
  <ele>1586.19</ele>
  <time>2026-08-28T19:10:06Z</time>
  <course>9.6</course>
  <speed>0.022360679774997897</speed>
  <fix>3d</fix>
</trkpt>
<trkpt lat="40.072842" lon="-105.230575">
  <ele>1586.09</ele>
  <time>2026-08-28T19:10:06Z</time>
  <course>287.67</course>
  <speed>0.0</speed>
  <fix>3d</fix>
</trkpt>
<trkpt lat="40.0728419" lon="-105.2305749">
  <ele>1586.2</ele>
  <time>2026-08-28T19:10:06Z</time>
  <course>9.55</course>
  <speed>0.022360679774997897</speed>
  <fix>3d</fix>
</trkpt>
<trkpt lat="40.072842" lon="-105.230575">
  <ele>1586.09</ele>
  <time>2026-08-28T19:10:06Z</time>
  <course>287.54</course>
  <speed>0.0</speed>
  <fix>3d</fix>
</trkpt>
<trkpt lat="40.0728419" lon="-105.2305749">
  <ele>1586.19</ele>
  <time>2026-08-28T19:10:06Z</time>
  <course>9.5</course>
  <speed>0.022360679774997897</speed>
  <fix>3d</fix>
</trkpt>
<trkpt lat="40.072842" lon="-105.230575">
  <ele>1586.09</ele>
  <time>2026-08-28T19:10:06Z</time>
  <course>287.39</course>
  <speed>0.0</speed>
  <fix>3d</fix>
</trkpt>
<trkpt lat="40.0728419" lon="-105.2305749">
  <ele>1586.19</ele>
  <time>2026-08-28T19:10:06Z</time>
  <course>9.45</course>
  <speed>0.022360679774997897</speed>
  <fix>3d</fix>
</trkpt>
<trkpt lat="40.072842" lon="-105.230575">
  <ele>1586.09</ele>
  <time>2026-08-28T19:10:06Z</time>
  <course>287.24</course>
  <speed>0.0</speed>
  <fix>3d</fix>
</trkpt>
<trkpt lat="40.0728419" lon="-105.2305749">
  <ele>1586.19</ele>
  <time>2026-08-28T19:10:06Z</time>
  <course>9.39</course>
  <speed>0.022360679774997897</speed>
  <fix>3d</fix>
</trkpt>
<trkpt lat="40.072842" lon="-105.230575">
  <ele>1586.09</ele>
  <time>2026-08-28T19:10:06Z</time>
  <course>287.09</course>
  <speed>0.0</speed>
  <fix>3d</fix>
</trkpt>
<trkpt lat="40.0728419" lon="-105.2305749">
  <ele>1586.19</ele>
  <time>2026-08-28T19:10:06Z</time>
  <course>9.33</course>
  <speed>0.022360679774997897</speed>
  <fix>3d</fix>
</trkpt>
<trkpt lat="40.072842" lon="-105.230575">
  <ele>1586.09</ele>
  <time>2026-08-28T19:10:06Z</time>
  <course>286.94</course>
  <speed>0.0</speed>
  <fix>3d</fix>
</trkpt>
<trkpt lat="40.0728419" lon="-105.2305749">
  <ele>1586.19</ele>
  <time>2026-08-28T19:10:06Z</time>
  <course>9.28</course>
  <speed>0.022360679774997897</speed>
  <fix>3d</fix>
</trkpt>
<trkpt lat="40.072842" lon="-105.230575">
  <ele>1586.09</ele>
  <time>2026-08-28T19:10:06Z</time>
  <course>286.79</course>
  <speed>0.0</speed>
  <fix>3d</fix>
</trkpt>
<trkpt lat="40.0728419" lon="-105.2305749">
  <ele>1586.19</ele>
  <time>2026-08-28T19:10:06Z</time>
  <course>9.22</course>
  <speed>0.022360679774997897</speed>
  <fix>3d</fix>
</trkpt>
<trkpt lat="40.072842" lon="-105.230575">
  <ele>1586.09</ele>
  <time>2026-08-28T19:10:06Z</time>
  <course>286.64</course>
  <speed>0.0</speed>
  <fix>3d</fix>
</trkpt>
<trkpt lat="40.0728419" lon="-105.2305749">
  <ele>1586.19</ele>
  <time>2026-08-28T19:10:06Z</time>
  <course>9.16</course>
  <speed>0.022360679774997897</speed>
  <fix>3d</fix>
</trkpt>
<trkpt lat="40.072842" lon="-105.230575">
  <ele>1586.09</ele>
  <time>2026-08-28T19:10:06Z</time>
  <course>286.48</course>
  <speed>0.0</speed>
  <fix>3d</fix>
</trkpt>
<trkpt lat="40.0728419" lon="-105.2305749">
  <ele>1586.19</ele>
  <time>2026-08-28T19:10:06Z</time>
  <course>9.09</course>
  <speed>0.022360679774997897</speed>
  <fix>3d</fix>
</trkpt>
<trkpt lat="40.072842" lon="-105.230575">
  <ele>1586.09</ele>
  <time>2026-08-28T19:10:06Z</time>
  <course>286.32</course>
  <speed>0.0</speed>
  <fix>3d</fix>
</trkpt>
<trkpt lat="40.0728419" lon="-105.2305749">
  <ele>1586.19</ele>
  <time>2026-08-28T19:10:06Z</time>
  <course>9.03</course>
  <speed>0.022360679774997897</speed>
  <fix>3d</fix>
</trkpt>
<trkpt lat="40.072842" lon="-105.230575">
  <ele>1586.09</ele>
  <time>2026-08-28T19:10:06Z</time>
  <course>286.17</course>
  <speed>0.0</speed>
  <fix>3d</fix>
</trkpt>
<trkpt lat="40.0728419" lon="-105.2305749">
  <ele>1586.19</ele>
  <time>2026-08-28T19:10:07Z</time>
  <course>8.97</course>
  <speed>0.022360679774997897</speed>
  <fix>3d</fix>
</trkpt>
<trkpt lat="40.072842" lon="-105.230575">
  <ele>1586.09</ele>
  <time>2026-08-28T19:10:07Z</time>
  <course>286.07</course>
  <speed>0.0</speed>
  <fix>3d</fix>
</trkpt>
<trkpt lat="40.0728419" lon="-105.2305749">
  <ele>1586.19</ele>
  <time>2026-08-28T19:10:07Z</time>
  <course>8.9</course>
  <speed>0.022360679774997897</speed>
  <fix>3d</fix>
</trkpt>
<trkpt lat="40.072842" lon="-105.230575">
  <ele>1586.09</ele>
  <time>2026-08-28T19:10:07Z</time>
  <course>286.01</course>
  <speed>0.0</speed>
  <fix>3d</fix>
</trkpt>
<trkpt lat="40.0728419" lon="-105.2305749">
  <ele>1586.19</ele>
  <time>2026-08-28T19:10:07Z</time>
  <course>8.84</course>
  <speed>0.022360679774997897</speed>
  <fix>3d</fix>
</trkpt>
<trkpt lat="40.072842" lon="-105.230575">
  <ele>1586.09</ele>
  <time>2026-08-28T19:10:07Z</time>
  <course>285.95</course>
  <speed>0.0</speed>
  <fix>3d</fix>
</trkpt>
<trkpt lat="40.0728419" lon="-105.2305749">
  <ele>1586.2</ele>
  <time>2026-08-28T19:10:07Z</time>
  <course>8.78</course>
  <speed>0.022360679774997897</speed>
  <fix>3d</fix>
</trkpt>
<trkpt lat="40.072842" lon="-105.230575">
  <ele>1586.09</ele>
  <time>2026-08-28T19:10:07Z</time>
  <course>285.89</course>
  <speed>0.0</speed>
  <fix>3d</fix>
</trkpt>
<trkpt lat="40.0728419" lon="-105.2305749">
  <ele>1586.2</ele>
  <time>2026-08-28T19:10:07Z</time>
  <course>8.71</course>
  <speed>0.022360679774997897</speed>
  <fix>3d</fix>
</trkpt>
<trkpt lat="40.072842" lon="-105.230575">
  <ele>1586.09</ele>
  <time>2026-08-28T19:10:07Z</time>
  <course>285.82</course>
  <speed>0.0</speed>
  <fix>3d</fix>
</trkpt>
<trkpt lat="40.0728419" lon="-105.2305749">
  <ele>1586.2</ele>
  <time>2026-08-28T19:10:07Z</time>
  <course>8.65</course>
  <speed>0.022360679774997897</speed>
  <fix>3d</fix>
</trkpt>
<trkpt lat="40.072842" lon="-105.230575">
  <ele>1586.09</ele>
  <time>2026-08-28T19:10:07Z</time>
  <course>285.76</course>
  <speed>0.0</speed>
  <fix>3d</fix>
</trkpt>
<trkpt lat="40.0728419" lon="-105.2305749">
  <ele>1586.2</ele>
  <time>2026-08-28T19:10:07Z</time>
  <course>8.59</course>
  <speed>0.022360679774997897</speed>
  <fix>3d</fix>
</trkpt>
<trkpt lat="40.072842" lon="-105.230575">
  <ele>1586.09</ele>
  <time>2026-08-28T19:10:07Z</time>
  <course>285.69</course>
  <speed>0.0</speed>
  <fix>3d</fix>
</trkpt>
<trkpt lat="40.0728419" lon="-105.2305749">
  <ele>1586.2</ele>
  <time>2026-08-28T19:10:07Z</time>
  <course>8.53</course>
  <speed>0.022360679774997897</speed>
  <fix>3d</fix>
</trkpt>
<trkpt lat="40.072842" lon="-105.230575">
  <ele>1586.09</ele>
  <time>2026-08-28T19:10:07Z</time>
  <course>208.77</course>
  <speed>0.0</speed>
  <fix>3d</fix>
</trkpt>
<trkpt lat="40.0728419" lon="-105.2305749">
  <ele>1586.2</ele>
  <time>2026-08-28T19:10:07Z</time>
  <course>8.48</course>
  <speed>0.022360679774997897</speed>
  <fix>3d</fix>
</trkpt>
<trkpt lat="40.072842" lon="-105.230575">
  <ele>1586.09</ele>
  <time>2026-08-28T19:10:07Z</time>
  <course>254.43</course>
  <speed>0.0</speed>
  <fix>3d</fix>
</trkpt>
<trkpt lat="40.0728419" lon="-105.2305749">
  <ele>1586.2</ele>
  <time>2026-08-28T19:10:07Z</time>
  <course>8.42</course>
  <speed>0.022360679774997897</speed>
  <fix>3d</fix>
</trkpt>
<trkpt lat="40.072842" lon="-105.230575">
  <ele>1586.09</ele>
  <time>2026-08-28T19:10:07Z</time>
  <course>269.43</course>
  <speed>0.0</speed>
  <fix>3d</fix>
</trkpt>
<trkpt lat="40.0728419" lon="-105.2305749">
  <ele>1586.2</ele>
  <time>2026-08-28T19:10:07Z</time>
  <course>8.35</course>
  <speed>0.022360679774997897</speed>
  <fix>3d</fix>
</trkpt>
<trkpt lat="40.072842" lon="-105.230575">
  <ele>1586.09</ele>
  <time>2026-08-28T19:10:07Z</time>
  <course>269.69</course>
  <speed>0.0</speed>
  <fix>3d</fix>
</trkpt>
<trkpt lat="40.0728419" lon="-105.2305749">
  <ele>1586.21</ele>
  <time>2026-08-28T19:10:07Z</time>
  <course>8.26</course>
  <speed>0.022360679774997897</speed>
  <fix>3d</fix>
</trkpt>
<trkpt lat="40.072842" lon="-105.230575">
  <ele>1586.09</ele>
  <time>2026-08-28T19:10:07Z</time>
  <course>266.5</course>
  <speed>0.0</speed>
  <fix>3d</fix>
</trkpt>
<trkpt lat="40.0728419" lon="-105.2305749">
  <ele>1586.23</ele>
  <time>2026-08-28T19:10:07Z</time>
  <course>8.16</course>
  <speed>0.022360679774997897</speed>
  <fix>3d</fix>
</trkpt>
<trkpt lat="40.072842" lon="-105.230575">
  <ele>1586.09</ele>
  <time>2026-08-28T19:10:07Z</time>
  <course>266.47</course>
  <speed>0.0</speed>
  <fix>3d</fix>
</trkpt>
<trkpt lat="40.0728419" lon="-105.2305749">
  <ele>1586.26</ele>
  <time>2026-08-28T19:10:07Z</time>
  <course>8.05</course>
  <speed>0.022360679774997897</speed>
  <fix>3d</fix>
</trkpt>
<trkpt lat="40.072842" lon="-105.230575">
  <ele>1586.11</ele>
  <time>2026-08-28T19:10:07Z</time>
  <course>274.53</course>
  <speed>0.0</speed>
  <fix>3d</fix>
</trkpt>
<trkpt lat="40.0728419" lon="-105.2305749">
  <ele>1586.31</ele>
  <time>2026-08-28T19:10:07Z</time>
  <course>7.93</course>
  <speed>0.022360679774997897</speed>
  <fix>3d</fix>
</trkpt>
<trkpt lat="40.072842" lon="-105.230575">
  <ele>1586.15</ele>
  <time>2026-08-28T19:10:07Z</time>
  <course>274.64</course>
  <speed>0.0</speed>
  <fix>3d</fix>
</trkpt>
<trkpt lat="40.0728419" lon="-105.2305749">
  <ele>1586.4</ele>
  <time>2026-08-28T19:10:07Z</time>
  <course>2.0</course>
  <speed>0.0412310562561766</speed>
  <fix>3d</fix>
</trkpt>
<trkpt lat="40.072842" lon="-105.230575">
  <ele>1586.19</ele>
  <time>2026-08-28T19:10:07Z</time>
  <course>269.16</course>
  <speed>0.0</speed>
  <fix>3d</fix>
</trkpt>
<trkpt lat="40.0728419" lon="-105.2305752">
  <ele>1586.68</ele>
  <time>2026-08-28T19:10:07Z</time>
  <course>358.24</course>
  <speed>0.21</speed>
  <fix>3d</fix>
</trkpt>
<trkpt lat="40.072842" lon="-105.230575">
  <ele>1586.29</ele>
  <time>2026-08-28T19:10:07Z</time>
  <course>264.95</course>
  <speed>0.07</speed>
  <fix>3d</fix>
</trkpt>
<trkpt lat="40.0728419" lon="-105.2305758">
  <ele>1586.94</ele>
  <time>2026-08-28T19:10:07Z</time>
  <course>357.22</course>
  <speed>0.28</speed>
  <fix>3d</fix>
</trkpt>
<trkpt lat="40.072842" lon="-105.2305753">
  <ele>1586.52</ele>
  <time>2026-08-28T19:10:07Z</time>
  <course>264.54</course>
  <speed>0.2</speed>
  <fix>3d</fix>
</trkpt>
<trkpt lat="40.0728419" lon="-105.2305766">
  <ele>1587.2</ele>
  <time>2026-08-28T19:10:07Z</time>
  <course>355.52</course>
  <speed>0.3101612483854165</speed>
  <fix>3d</fix>
</trkpt>
<trkpt lat="40.072842" lon="-105.2305759">
  <ele>1586.8</ele>
  <time>2026-08-28T19:10:07Z</time>
  <course>263.89</course>
  <speed>0.28</speed>
  <fix>3d</fix>
</trkpt>
<trkpt lat="40.0728419" lon="-105.2305773">
  <ele>1587.5</ele>
  <time>2026-08-28T19:10:07Z</time>
  <course>354.28</course>
  <speed>0.31064449134018135</speed>
  <fix>3d</fix>
</trkpt>
<trkpt lat="40.0728419" lon="-105.2305766">
  <ele>1587.06</ele>
  <time>2026-08-28T19:10:07Z</time>
  <course>262.9</course>
  <speed>0.32</speed>
  <fix>3d</fix>
</trkpt>
<trkpt lat="40.0728418" lon="-105.230578">
  <ele>1587.83</ele>
  <time>2026-08-28T19:10:07Z</time>
  <course>353.43</course>
  <speed>0.291547594742265</speed>
  <fix>3d</fix>
</trkpt>
<trkpt lat="40.0728418" lon="-105.2305773">
  <ele>1587.34</ele>
  <time>2026-08-28T19:10:07Z</time>
  <course>262.13</course>
  <speed>0.33</speed>
  <fix>3d</fix>
</trkpt>
<trkpt lat="40.0728417" lon="-105.2305787">
  <ele>1588.21</ele>
  <time>2026-08-28T19:10:07Z</time>
  <course>352.68</course>
  <speed>0.261725046566048</speed>
  <fix>3d</fix>
</trkpt>
<trkpt lat="40.0728417" lon="-105.2305782">
  <ele>1587.66</ele>
  <time>2026-08-28T19:10:07Z</time>
  <course>262.4</course>
  <speed>0.31</speed>
  <fix>3d</fix>
</trkpt>
<trkpt lat="40.0728416" lon="-105.2305793">
  <ele>1588.62</ele>
  <time>2026-08-28T19:10:07Z</time>
  <course>351.99</course>
  <speed>0.2220360331117452</speed>
  <fix>3d</fix>
</trkpt>
<trkpt lat="40.0728417" lon="-105.2305789">
  <ele>1588.03</ele>
  <time>2026-08-28T19:10:07Z</time>
  <course>263.97</course>
  <speed>0.28</speed>
  <fix>3d</fix>
</trkpt>
<trkpt lat="40.0728416" lon="-105.2305798">
  <ele>1589.08</ele>
  <time>2026-08-28T19:10:07Z</time>
  <course>349.38</course>
  <speed>0.1711724276862369</speed>
  <fix>3d</fix>
</trkpt>
<trkpt lat="40.0728416" lon="-105.2305795">
  <ele>1588.44</ele>
  <time>2026-08-28T19:10:07Z</time>
  <course>266.88</course>
  <speed>0.24</speed>
  <fix>3d</fix>
</trkpt>
<trkpt lat="40.0728416" lon="-105.2305803">
  <ele>1589.58</ele>
  <time>2026-08-28T19:10:07Z</time>
  <course>348.83</course>
  <speed>0.13152946437965907</speed>
  <fix>3d</fix>
</trkpt>
<trkpt lat="40.0728416" lon="-105.23058">
  <ele>1588.89</ele>
  <time>2026-08-28T19:10:07Z</time>
  <course>271.2</course>
  <speed>0.2</speed>
  <fix>3d</fix>
</trkpt>
<trkpt lat="40.0728416" lon="-105.2305806">
  <ele>1590.1</ele>
  <time>2026-08-28T19:10:07Z</time>
  <course>349.07</course>
  <speed>0.09219544457292887</speed>
  <fix>3d</fix>
</trkpt>
<trkpt lat="40.0728417" lon="-105.2305805">
  <ele>1589.38</ele>
  <time>2026-08-28T19:10:07Z</time>
  <course>277.23</course>
  <speed>0.16</speed>
  <fix>3d</fix>
</trkpt>
<trkpt lat="40.0728416" lon="-105.2305808">
  <ele>1590.62</ele>
  <time>2026-08-28T19:10:07Z</time>
  <course>349.7</course>
  <speed>0.04</speed>
  <fix>3d</fix>
</trkpt>
<trkpt lat="40.0728417" lon="-105.2305808">
  <ele>1589.88</ele>
  <time>2026-08-28T19:10:07Z</time>
  <course>286.02</course>
  <speed>0.12</speed>
  <fix>3d</fix>
</trkpt>
<trkpt lat="40.0728416" lon="-105.2305809">
  <ele>1591.13</ele>
  <time>2026-08-28T19:10:07Z</time>
  <course>350.32</course>
  <speed>0.0</speed>
  <fix>3d</fix>
</trkpt>
<trkpt lat="40.0728417" lon="-105.230581">
  <ele>1590.4</ele>
  <time>2026-08-28T19:10:07Z</time>
  <course>301.66</course>
  <speed>0.08</speed>
  <fix>3d</fix>
</trkpt>
<trkpt lat="40.0728417" lon="-105.230581">
  <ele>1591.65</ele>
  <time>2026-08-28T19:10:07Z</time>
  <course>350.92</course>
  <speed>0.0316227766016838</speed>
  <fix>3d</fix>
</trkpt>
<trkpt lat="40.0728417" lon="-105.2305811">
  <ele>1590.92</ele>
  <time>2026-08-28T19:10:07Z</time>
  <course>335.48</course>
  <speed>0.05</speed>
  <fix>3d</fix>
</trkpt>
<trkpt lat="40.0728418" lon="-105.2305809">
  <ele>1592.17</ele>
  <time>2026-08-28T19:10:07Z</time>
  <course>351.51</course>
  <speed>0.08062257748298549</speed>
  <fix>3d</fix>
</trkpt>
<trkpt lat="40.0728418" lon="-105.2305811">
  <ele>1591.44</ele>
  <time>2026-08-28T19:10:07Z</time>
  <course>32.28</course>
  <speed>0.05</speed>
  <fix>3d</fix>
</trkpt>
<trkpt lat="40.0728419" lon="-105.2305807">
  <ele>1592.68</ele>
  <time>2026-08-28T19:10:07Z</time>
  <course>352.06</course>
  <speed>0.12</speed>
  <fix>3d</fix>
</trkpt>
<trkpt lat="40.0728419" lon="-105.230581">
  <ele>1591.95</ele>
  <time>2026-08-28T19:10:07Z</time>
  <course>67.07</course>
  <speed>0.08</speed>
  <fix>3d</fix>
</trkpt>
<trkpt lat="40.0728419" lon="-105.2305804">
  <ele>1593.18</ele>
  <time>2026-08-28T19:10:07Z</time>
  <course>352.58</course>
  <speed>0.16</speed>
  <fix>3d</fix>
</trkpt>
<trkpt lat="40.072842" lon="-105.2305808">
  <ele>1592.46</ele>
  <time>2026-08-28T19:10:07Z</time>
  <course>82.17</course>
  <speed>0.12</speed>
  <fix>3d</fix>
</trkpt>
<trkpt lat="40.0728419" lon="-105.23058">
  <ele>1593.69</ele>
  <time>2026-08-28T19:10:07Z</time>
  <course>353.1</course>
  <speed>0.19</speed>
  <fix>3d</fix>
</trkpt>
<trkpt lat="40.072842" lon="-105.2305805">
  <ele>1592.97</ele>
  <time>2026-08-28T19:10:07Z</time>
  <course>89.68</course>
  <speed>0.17</speed>
  <fix>3d</fix>
</trkpt>
<trkpt lat="40.0728419" lon="-105.2305795">
  <ele>1594.2</ele>
  <time>2026-08-28T19:10:07Z</time>
  <course>353.54</course>
  <speed>0.2102379604162864</speed>
  <fix>3d</fix>
</trkpt>
<trkpt lat="40.072842" lon="-105.23058">
  <ele>1593.47</ele>
  <time>2026-08-28T19:10:07Z</time>
  <course>93.9</course>
  <speed>0.21</speed>
  <fix>3d</fix>
</trkpt>
<trkpt lat="40.0728419" lon="-105.2305789">
  <ele>1594.7</ele>
  <time>2026-08-28T19:10:07Z</time>
  <course>353.98</course>
  <speed>0.23021728866442676</speed>
  <fix>3d</fix>
</trkpt>
<trkpt lat="40.072842" lon="-105.2305795">
  <ele>1593.97</ele>
  <time>2026-08-28T19:10:07Z</time>
  <course>96.63</course>
  <speed>0.24</speed>
  <fix>3d</fix>
</trkpt>
<trkpt lat="40.0728419" lon="-105.2305783">
  <ele>1595.2</ele>
  <time>2026-08-28T19:10:07Z</time>
  <course>354.4</course>
  <speed>0.24083189157584592</speed>
  <fix>3d</fix>
</trkpt>
<trkpt lat="40.0728419" lon="-105.2305789">
  <ele>1594.47</ele>
  <time>2026-08-28T19:10:07Z</time>
  <course>98.67</course>
  <speed>0.26</speed>
  <fix>3d</fix>
</trkpt>
<trkpt lat="40.0728419" lon="-105.2305777">
  <ele>1595.7</ele>
  <time>2026-08-28T19:10:07Z</time>
  <course>354.78</course>
  <speed>0.24083189157584592</speed>
  <fix>3d</fix>
</trkpt>
<trkpt lat="40.0728419" lon="-105.2305782">
  <ele>1594.96</ele>
  <time>2026-08-28T19:10:07Z</time>
  <course>100.39</course>
  <speed>0.27</speed>
  <fix>3d</fix>
</trkpt>
<trkpt lat="40.0728418" lon="-105.2305771">
  <ele>1596.2</ele>
  <time>2026-08-28T19:10:07Z</time>
  <course>355.14</course>
  <speed>0.2308679276123039</speed>
  <fix>3d</fix>
</trkpt>
<trkpt lat="40.0728418" lon="-105.2305777">
  <ele>1595.46</ele>
  <time>2026-08-28T19:10:07Z</time>
  <course>101.98</course>
  <speed>0.27</speed>
  <fix>3d</fix>
</trkpt>
<trkpt lat="40.0728416" lon="-105.2305765">
  <ele>1596.7</ele>
  <time>2026-08-28T19:10:07Z</time>
  <course>355.49</course>
  <speed>0.2102379604162864</speed>
  <fix>3d</fix>
</trkpt>
<trkpt lat="40.0728417" lon="-105.2305771">
  <ele>1595.96</ele>
  <time>2026-08-28T19:10:07Z</time>
  <course>103.57</course>
  <speed>0.26</speed>
  <fix>3d</fix>
</trkpt>
<trkpt lat="40.0728416" lon="-105.230576">
  <ele>1597.19</ele>
  <time>2026-08-28T19:10:07Z</time>
  <course>355.81</course>
  <speed>0.2002498439450079</speed>
  <fix>3d</fix>
</trkpt>
<trkpt lat="40.0728415" lon="-105.2305765">
  <ele>1596.45</ele>
  <time>2026-08-28T19:10:07Z</time>
  <course>105.26</course>
  <speed>0.25</speed>
  <fix>3d</fix>
</trkpt>
<trkpt lat="40.0728415" lon="-105.2305755">
  <ele>1597.69</ele>
  <time>2026-08-28T19:10:07Z</time>
  <course>356.09</course>
  <speed>0.17</speed>
  <fix>3d</fix>
</trkpt>
<trkpt lat="40.0728414" lon="-105.2305759">
  <ele>1596.95</ele>
  <time>2026-08-28T19:10:07Z</time>
  <course>107.05</course>
  <speed>0.23</speed>
  <fix>3d</fix>
</trkpt>
<trkpt lat="40.0728414" lon="-105.2305751">
  <ele>1598.19</ele>
  <time>2026-08-28T19:10:07Z</time>
  <course>356.37</course>
  <speed>0.15</speed>
  <fix>3d</fix>
</trkpt>
<trkpt lat="40.0728413" lon="-105.2305754">
  <ele>1597.44</ele>
  <time>2026-08-28T19:10:07Z</time>
  <course>108.99</course>
  <speed>0.2</speed>
  <fix>3d</fix>
</trkpt>
<trkpt lat="40.0728413" lon="-105.2305747">
  <ele>1598.7</ele>
  <time>2026-08-28T19:10:07Z</time>
  <course>356.64</course>
  <speed>0.12</speed>
  <fix>3d</fix>
</trkpt>
<trkpt lat="40.0728412" lon="-105.2305749">
  <ele>1597.94</ele>
  <time>2026-08-28T19:10:07Z</time>
  <course>111.25</course>
  <speed>0.17</speed>
  <fix>3d</fix>
</trkpt>
<trkpt lat="40.0728411" lon="-105.2305744">
  <ele>1599.2</ele>
  <time>2026-08-28T19:10:07Z</time>
  <course>356.89</course>
  <speed>0.09055385138137417</speed>
  <fix>3d</fix>
</trkpt>
<trkpt lat="40.0728411" lon="-105.2305746">
  <ele>1598.43</ele>
  <time>2026-08-28T19:10:07Z</time>
  <course>113.95</course>
  <speed>0.14</speed>
  <fix>3d</fix>
</trkpt>
<trkpt lat="40.0728411" lon="-105.2305742">
  <ele>1599.7</ele>
  <time>2026-08-28T19:10:07Z</time>
  <course>357.17</course>
  <speed>0.07280109889280519</speed>
  <fix>3d</fix>
</trkpt>
<trkpt lat="40.072841" lon="-105.2305744">
  <ele>1598.93</ele>
  <time>2026-08-28T19:10:07Z</time>
  <course>117.07</course>
  <speed>0.11</speed>
  <fix>3d</fix>
</trkpt>
<trkpt lat="40.0728411" lon="-105.2305741">
  <ele>1600.2</ele>
  <time>2026-08-28T19:10:07Z</time>
  <course>357.41</course>
  <speed>0.05</speed>
  <fix>3d</fix>
</trkpt>
<trkpt lat="40.0728409" lon="-105.2305742">
  <ele>1599.43</ele>
  <time>2026-08-28T19:10:07Z</time>
  <course>121.05</course>
  <speed>0.07</speed>
  <fix>3d</fix>
</trkpt>
<trkpt lat="40.0728411" lon="-105.230574">
  <ele>1600.7</ele>
  <time>2026-08-28T19:10:07Z</time>
  <course>357.66</course>
  <speed>0.044721359549995794</speed>
  <fix>3d</fix>
</trkpt>
<trkpt lat="40.0728408" lon="-105.230574">
  <ele>1599.92</ele>
  <time>2026-08-28T19:10:07Z</time>
  <course>128.56</course>
  <speed>0.04</speed>
  <fix>3d</fix>
</trkpt>
<trkpt lat="40.072841" lon="-105.230574">
  <ele>1601.2</ele>
  <time>2026-08-28T19:10:07Z</time>
  <course>357.95</course>
  <speed>0.05</speed>
  <fix>3d</fix>
</trkpt>
<trkpt lat="40.0728408" lon="-105.2305739">
  <ele>1600.42</ele>
  <time>2026-08-28T19:10:07Z</time>
  <course>155.04</course>
  <speed>0.01</speed>
  <fix>3d</fix>
</trkpt>
<trkpt lat="40.0728409" lon="-105.230574">
  <ele>1601.7</ele>
  <time>2026-08-28T19:10:07Z</time>
  <course>358.23</course>
  <speed>0.06082762530298219</speed>
  <fix>3d</fix>
</trkpt>
<trkpt lat="40.0728408" lon="-105.2305739">
  <ele>1600.91</ele>
  <time>2026-08-28T19:10:07Z</time>
  <course>253.25</course>
  <speed>0.01</speed>
  <fix>3d</fix>
</trkpt>
<trkpt lat="40.072841" lon="-105.230574">
  <ele>1602.19</ele>
  <time>2026-08-28T19:10:07Z</time>
  <course>358.49</course>
  <speed>0.0632455532033676</speed>
  <fix>3d</fix>
</trkpt>
<trkpt lat="40.0728408" lon="-105.230574">
  <ele>1601.41</ele>
  <time>2026-08-28T19:10:07Z</time>
  <course>282.36</course>
  <speed>0.03</speed>
  <fix>3d</fix>
</trkpt>
<trkpt lat="40.072841" lon="-105.2305741">
  <ele>1602.69</ele>
  <time>2026-08-28T19:10:07Z</time>
  <course>358.77</course>
  <speed>0.07615773105863909</speed>
  <fix>3d</fix>
</trkpt>
<trkpt lat="40.0728408" lon="-105.2305741">
  <ele>1601.9</ele>
  <time>2026-08-28T19:10:07Z</time>
  <course>291.5</course>
  <speed>0.05</speed>
  <fix>3d</fix>
</trkpt>
<trkpt lat="40.0728411" lon="-105.2305743">
  <ele>1603.2</ele>
  <time>2026-08-28T19:10:07Z</time>
  <course>359.06</course>
  <speed>0.08944271909999159</speed>
  <fix>3d</fix>
</trkpt>
<trkpt lat="40.0728408" lon="-105.2305742">
  <ele>1602.4</ele>
  <time>2026-08-28T19:10:07Z</time>
  <course>296.78</course>
  <speed>0.07</speed>
  <fix>3d</fix>
</trkpt>
<trkpt lat="40.0728411" lon="-105.2305744">
  <ele>1603.7</ele>
  <time>2026-08-28T19:10:07Z</time>
  <course>359.35</course>
  <speed>0.08944271909999159</speed>
  <fix>3d</fix>
</trkpt>
<trkpt lat="40.0728408" lon="-105.2305744">
  <ele>1602.9</ele>
  <time>2026-08-28T19:10:07Z</time>
  <course>300.75</course>
  <speed>0.08</speed>
  <fix>3d</fix>
</trkpt>
<trkpt lat="40.0728412" lon="-105.2305746">
  <ele>1604.2</ele>
  <time>2026-08-28T19:10:07Z</time>
  <course>359.64</course>
  <speed>0.09848857801796104</speed>
  <fix>3d</fix>
</trkpt>
<trkpt lat="40.0728409" lon="-105.2305745">
  <ele>1603.39</ele>
  <time>2026-08-28T19:10:07Z</time>
  <course>304.36</course>
  <speed>0.09</speed>
  <fix>3d</fix>
</trkpt>
<trkpt lat="40.0728413" lon="-105.2305747">
  <ele>1604.69</ele>
  <time>2026-08-28T19:10:07Z</time>
  <course>359.9</course>
  <speed>0.09848857801796104</speed>
  <fix>3d</fix>
</trkpt>
<trkpt lat="40.072841" lon="-105.2305748">
  <ele>1603.89</ele>
  <time>2026-08-28T19:10:07Z</time>
  <course>308.13</course>
  <speed>0.1</speed>
  <fix>3d</fix>
</trkpt>
<trkpt lat="40.0728414" lon="-105.2305749">
  <ele>1605.19</ele>
  <time>2026-08-28T19:10:07Z</time>
  <course>0.13</course>
  <speed>0.09486832980505139</speed>
  <fix>3d</fix>
</trkpt>
<trkpt lat="40.0728411" lon="-105.2305749">
  <ele>1604.38</ele>
  <time>2026-08-28T19:10:07Z</time>
  <course>312.06</course>
  <speed>0.1</speed>
  <fix>3d</fix>
</trkpt>
<trkpt lat="40.0728415" lon="-105.2305751">
  <ele>1605.69</ele>
  <time>2026-08-28T19:10:07Z</time>
  <course>0.36</course>
  <speed>0.09486832980505139</speed>
  <fix>3d</fix>
</trkpt>
<trkpt lat="40.0728413" lon="-105.2305752">
  <ele>1604.88</ele>
  <time>2026-08-28T19:10:07Z</time>
  <course>315.89</course>
  <speed>0.1</speed>
  <fix>3d</fix>
</trkpt>
<trkpt lat="40.0728417" lon="-105.2305752">
  <ele>1606.19</ele>
  <time>2026-08-28T19:10:07Z</time>
  <course>0.55</course>
  <speed>0.09219544457292887</speed>
  <fix>3d</fix>
</trkpt>
<trkpt lat="40.0728414" lon="-105.2305753">
  <ele>1605.37</ele>
  <time>2026-08-28T19:10:07Z</time>
  <course>319.75</course>
  <speed>0.1</speed>
  <fix>3d</fix>
</trkpt>
<trkpt lat="40.0728418" lon="-105.2305753">
  <ele>1606.68</ele>
  <time>2026-08-28T19:10:07Z</time>
  <course>0.78</course>
  <speed>0.08062257748298549</speed>
  <fix>3d</fix>
</trkpt>
<trkpt lat="40.0728415" lon="-105.2305754">
  <ele>1605.87</ele>
  <time>2026-08-28T19:10:07Z</time>
  <course>323.71</course>
  <speed>0.1</speed>
  <fix>3d</fix>
</trkpt>
<trkpt lat="40.0728419" lon="-105.2305754">
  <ele>1607.18</ele>
  <time>2026-08-28T19:10:07Z</time>
  <course>0.95</course>
  <speed>0.07</speed>
  <fix>3d</fix>
</trkpt>
<trkpt lat="40.0728417" lon="-105.2305756">
  <ele>1606.37</ele>
  <time>2026-08-28T19:10:07Z</time>
  <course>327.76</course>
  <speed>0.09</speed>
  <fix>3d</fix>
</trkpt>
<trkpt lat="40.072842" lon="-105.2305755">
  <ele>1607.67</ele>
  <time>2026-08-28T19:10:07Z</time>
  <course>1.14</course>
  <speed>0.06</speed>
  <fix>3d</fix>
</trkpt>
<trkpt lat="40.0728419" lon="-105.2305757">
  <ele>1606.86</ele>
  <time>2026-08-28T19:10:07Z</time>
  <course>331.92</course>
  <speed>0.08</speed>
  <fix>3d</fix>
</trkpt>
<trkpt lat="40.0728421" lon="-105.2305755">
  <ele>1608.16</ele>
  <time>2026-08-28T19:10:07Z</time>
  <course>1.28</course>
  <speed>0.05099019513592785</speed>
  <fix>3d</fix>
</trkpt>
<trkpt lat="40.072842" lon="-105.2305758">
  <ele>1607.36</ele>
  <time>2026-08-28T19:10:07Z</time>
  <course>336.28</course>
  <speed>0.07</speed>
  <fix>3d</fix>
</trkpt>
<trkpt lat="40.0728422" lon="-105.2305756">
  <ele>1608.66</ele>
  <time>2026-08-28T19:10:07Z</time>
  <course>1.43</course>
  <speed>0.044721359549995794</speed>
  <fix>3d</fix>
</trkpt>
<trkpt lat="40.0728421" lon="-105.2305758">
  <ele>1607.86</ele>
  <time>2026-08-28T19:10:07Z</time>
  <course>341.78</course>
  <speed>0.06</speed>
  <fix>3d</fix>
</trkpt>
<trkpt lat="40.0728423" lon="-105.2305756">
  <ele>1609.16</ele>
  <time>2026-08-28T19:10:07Z</time>
  <course>1.56</course>
  <speed>0.04242640687119285</speed>
  <fix>3d</fix>
</trkpt>
<trkpt lat="40.0728422" lon="-105.2305758">
  <ele>1608.36</ele>
  <time>2026-08-28T19:10:07Z</time>
  <course>349.06</course>
  <speed>0.05</speed>
  <fix>3d</fix>
</trkpt>
<trkpt lat="40.0728423" lon="-105.2305756">
  <ele>1609.66</ele>
  <time>2026-08-28T19:10:07Z</time>
  <course>1.72</course>
  <speed>0.03605551275463989</speed>
  <fix>3d</fix>
</trkpt>
<trkpt lat="40.0728423" lon="-105.2305758">
  <ele>1608.86</ele>
  <time>2026-08-28T19:10:07Z</time>
  <course>358.63</course>
  <speed>0.04</speed>
  <fix>3d</fix>
</trkpt>
<trkpt lat="40.0728424" lon="-105.2305756">
  <ele>1610.17</ele>
  <time>2026-08-28T19:10:07Z</time>
  <course>1.88</course>
  <speed>0.0412310562561766</speed>
  <fix>3d</fix>
</trkpt>
<trkpt lat="40.0728424" lon="-105.2305758">
  <ele>1609.37</ele>
  <time>2026-08-28T19:10:07Z</time>
  <course>11.79</course>
  <speed>0.03</speed>
  <fix>3d</fix>
</trkpt>
<trkpt lat="40.0728424" lon="-105.2305756">
  <ele>1610.67</ele>
  <time>2026-08-28T19:10:07Z</time>
  <course>2.0</course>
  <speed>0.04</speed>
  <fix>3d</fix>
</trkpt>
<trkpt lat="40.0728424" lon="-105.2305758">
  <ele>1609.87</ele>
  <time>2026-08-28T19:10:07Z</time>
  <course>29.61</course>
  <speed>0.02</speed>
  <fix>3d</fix>
</trkpt>
<trkpt lat="40.0728424" lon="-105.2305755">
  <ele>1611.18</ele>
  <time>2026-08-28T19:10:07Z</time>
  <course>2.15</course>
  <speed>0.04</speed>
  <fix>3d</fix>
</trkpt>
<trkpt lat="40.0728425" lon="-105.2305758">
  <ele>1610.37</ele>
  <time>2026-08-28T19:10:07Z</time>
  <course>53.96</course>
  <speed>0.02</speed>
  <fix>3d</fix>
</trkpt>
<trkpt lat="40.0728424" lon="-105.2305755">
  <ele>1611.68</ele>
  <time>2026-08-28T19:10:07Z</time>
  <course>2.27</course>
  <speed>0.05099019513592785</speed>
  <fix>3d</fix>
</trkpt>
<trkpt lat="40.0728425" lon="-105.2305758">
  <ele>1610.88</ele>
  <time>2026-08-28T19:10:07Z</time>
  <course>81.88</course>
  <speed>0.02</speed>
  <fix>3d</fix>
</trkpt>
<trkpt lat="40.0728424" lon="-105.2305754">
  <ele>1612.19</ele>
  <time>2026-08-28T19:10:07Z</time>
  <course>2.38</course>
  <speed>0.053851648071345036</speed>
  <fix>3d</fix>
</trkpt>
<trkpt lat="40.0728425" lon="-105.2305758">
  <ele>1611.38</ele>
  <time>2026-08-28T19:10:07Z</time>
  <course>103.22</course>
  <speed>0.02</speed>
  <fix>3d</fix>
</trkpt>
<trkpt lat="40.0728424" lon="-105.2305754">
  <ele>1612.69</ele>
  <time>2026-08-28T19:10:07Z</time>
  <course>2.5</course>
  <speed>0.05830951894845301</speed>
  <fix>3d</fix>
</trkpt>
<trkpt lat="40.0728425" lon="-105.2305758">
  <ele>1611.88</ele>
  <time>2026-08-28T19:10:07Z</time>
  <course>115.92</course>
  <speed>0.03</speed>
  <fix>3d</fix>
</trkpt>
<trkpt lat="40.0728424" lon="-105.2305753">
  <ele>1613.18</ele>
  <time>2026-08-28T19:10:07Z</time>
  <course>2.68</course>
  <speed>0.05830951894845301</speed>
  <fix>3d</fix>
</trkpt>
<trkpt lat="40.0728425" lon="-105.2305757">
  <ele>1612.38</ele>
  <time>2026-08-28T19:10:07Z</time>
  <course>123.45</course>
  <speed>0.03</speed>
  <fix>3d</fix>
</trkpt>
<trkpt lat="40.0728424" lon="-105.2305753">
  <ele>1613.66</ele>
  <time>2026-08-28T19:10:07Z</time>
  <course>3.14</course>
  <speed>0.05</speed>
  <fix>3d</fix>
</trkpt>
<trkpt lat="40.0728425" lon="-105.2305756">
  <ele>1612.87</ele>
  <time>2026-08-28T19:10:07Z</time>
  <course>130.38</course>
  <speed>0.03</speed>
  <fix>3d</fix>
</trkpt>
<trkpt lat="40.0728423" lon="-105.2305753">
  <ele>1614.12</ele>
  <time>2026-08-28T19:10:07Z</time>
  <course>3.65</course>
  <speed>0.05</speed>
  <fix>3d</fix>
</trkpt>
<trkpt lat="40.0728424" lon="-105.2305756">
  <ele>1613.35</ele>
  <time>2026-08-28T19:10:07Z</time>
  <course>136.64</course>
  <speed>0.03</speed>
  <fix>3d</fix>
</trkpt>
<trkpt lat="40.0728423" lon="-105.2305752">
  <ele>1614.54</ele>
  <time>2026-08-28T19:10:07Z</time>
  <course>4.15</course>
  <speed>0.05</speed>
  <fix>3d</fix>
</trkpt>
<trkpt lat="40.0728424" lon="-105.2305755">
  <ele>1613.81</ele>
  <time>2026-08-28T19:10:07Z</time>
  <course>139.43</course>
  <speed>0.03</speed>
  <fix>3d</fix>
</trkpt>
<trkpt lat="40.0728422" lon="-105.2305752">
  <ele>1614.92</ele>
  <time>2026-08-28T19:10:07Z</time>
  <course>4.6</course>
  <speed>0.05</speed>
  <fix>3d</fix>
</trkpt>
<trkpt lat="40.0728423" lon="-105.2305755">
  <ele>1614.24</ele>
  <time>2026-08-28T19:10:07Z</time>
  <course>138.38</course>
  <speed>0.03</speed>
  <fix>3d</fix>
</trkpt>
<trkpt lat="40.0728422" lon="-105.2305751">
  <ele>1615.24</ele>
  <time>2026-08-28T19:10:07Z</time>
  <course>5.01</course>
  <speed>0.05830951894845301</speed>
  <fix>3d</fix>
</trkpt>
<trkpt lat="40.0728423" lon="-105.2305754">
  <ele>1614.62</ele>
  <time>2026-08-28T19:10:07Z</time>
  <course>134.17</course>
  <speed>0.03</speed>
  <fix>3d</fix>
</trkpt>
<trkpt lat="40.0728422" lon="-105.230575">
  <ele>1615.52</ele>
  <time>2026-08-28T19:10:07Z</time>
  <course>5.38</course>
  <speed>0.053851648071345036</speed>
  <fix>3d</fix>
</trkpt>
<trkpt lat="40.0728422" lon="-105.2305753">
  <ele>1614.95</ele>
  <time>2026-08-28T19:10:07Z</time>
  <course>128.04</course>
  <speed>0.04</speed>
  <fix>3d</fix>
</trkpt>
<trkpt lat="40.0728421" lon="-105.2305749">
  <ele>1615.75</ele>
  <time>2026-08-28T19:10:07Z</time>
  <course>5.72</course>
  <speed>0.0632455532033676</speed>
  <fix>3d</fix>
</trkpt>
<trkpt lat="40.0728421" lon="-105.2305752">
  <ele>1615.24</ele>
  <time>2026-08-28T19:10:07Z</time>
  <course>121.34</course>
  <speed>0.04</speed>
  <fix>3d</fix>
</trkpt>
<trkpt lat="40.0728421" lon="-105.2305748">
  <ele>1615.94</ele>
  <time>2026-08-28T19:10:07Z</time>
  <course>6.03</course>
  <speed>0.0632455532033676</speed>
  <fix>3d</fix>
</trkpt>
<trkpt lat="40.0728421" lon="-105.2305751">
  <ele>1615.48</ele>
  <time>2026-08-28T19:10:07Z</time>
  <course>115.06</course>
  <speed>0.04</speed>
  <fix>3d</fix>
</trkpt>
<trkpt lat="40.0728421" lon="-105.2305747">
  <ele>1616.09</ele>
  <time>2026-08-28T19:10:07Z</time>
  <course>6.32</course>
  <speed>0.07071067811865475</speed>
  <fix>3d</fix>
</trkpt>
<trkpt lat="40.0728421" lon="-105.230575">
  <ele>1615.69</ele>
  <time>2026-08-28T19:10:07Z</time>
  <course>109.72</course>
  <speed>0.05</speed>
  <fix>3d</fix>
</trkpt>
<trkpt lat="40.072842" lon="-105.2305746">
  <ele>1616.2</ele>
  <time>2026-08-28T19:10:07Z</time>
  <course>6.6</course>
  <speed>0.07071067811865475</speed>
  <fix>3d</fix>
</trkpt>
<trkpt lat="40.072842" lon="-105.2305749">
  <ele>1615.85</ele>
  <time>2026-08-28T19:10:07Z</time>
  <course>105.36</course>
  <speed>0.05</speed>
  <fix>3d</fix>
</trkpt>
<trkpt lat="40.072842" lon="-105.2305745">
  <ele>1616.27</ele>
  <time>2026-08-28T19:10:07Z</time>
  <course>6.88</course>
  <speed>0.07071067811865475</speed>
  <fix>3d</fix>
</trkpt>
<trkpt lat="40.072842" lon="-105.2305748">
  <ele>1615.97</ele>
  <time>2026-08-28T19:10:07Z</time>
  <course>101.84</course>
  <speed>0.05</speed>
  <fix>3d</fix>
</trkpt>
<trkpt lat="40.072842" lon="-105.2305743">
  <ele>1616.3</ele>
  <time>2026-08-28T19:10:07Z</time>
  <course>7.19</course>
  <speed>0.07071067811865475</speed>
  <fix>3d</fix>
</trkpt>
<trkpt lat="40.072842" lon="-105.2305747">
  <ele>1616.05</ele>
  <time>2026-08-28T19:10:07Z</time>
  <course>99.0</course>
  <speed>0.05</speed>
  <fix>3d</fix>
</trkpt>
<trkpt lat="40.072842" lon="-105.2305742">
  <ele>1616.29</ele>
  <time>2026-08-28T19:10:07Z</time>
  <course>7.72</course>
  <speed>0.07</speed>
  <fix>3d</fix>
</trkpt>
<trkpt lat="40.072842" lon="-105.2305745">
  <ele>1616.09</ele>
  <time>2026-08-28T19:10:07Z</time>
  <course>96.83</course>
  <speed>0.05</speed>
  <fix>3d</fix>
</trkpt>
<trkpt lat="40.072842" lon="-105.2305741">
  <ele>1616.26</ele>
  <time>2026-08-28T19:10:07Z</time>
  <course>7.56</course>
  <speed>0.06</speed>
  <fix>3d</fix>
</trkpt>
<trkpt lat="40.072842" lon="-105.2305744">
  <ele>1616.09</ele>
  <time>2026-08-28T19:10:07Z</time>
  <course>94.84</course>
  <speed>0.05</speed>
  <fix>3d</fix>
</trkpt>
<trkpt lat="40.072842" lon="-105.230574">
  <ele>1616.22</ele>
  <time>2026-08-28T19:10:07Z</time>
  <course>7.41</course>
  <speed>0.06</speed>
  <fix>3d</fix>
</trkpt>
<trkpt lat="40.072842" lon="-105.2305742">
  <ele>1616.06</ele>
  <time>2026-08-28T19:10:07Z</time>
  <course>91.86</course>
  <speed>0.05</speed>
  <fix>3d</fix>
</trkpt>
<trkpt lat="40.072842" lon="-105.2305738">
  <ele>1616.19</ele>
  <time>2026-08-28T19:10:07Z</time>
  <course>7.24</course>
  <speed>0.1019803902718557</speed>
  <fix>3d</fix>
</trkpt>
<trkpt lat="40.072842" lon="-105.2305741">
  <ele>1616.04</ele>
  <time>2026-08-28T19:10:07Z</time>
  <course>80.77</course>
  <speed>0.04</speed>
  <fix>3d</fix>
</trkpt>
<trkpt lat="40.0728421" lon="-105.2305735">
  <ele>1616.17</ele>
  <time>2026-08-28T19:10:07Z</time>
  <course>7.06</course>
  <speed>0.19697715603592209</speed>
  <fix>3d</fix>
</trkpt>
<trkpt lat="40.072842" lon="-105.230574">
  <ele>1616.01</ele>
  <time>2026-08-28T19:10:07Z</time>
  <course>64.99</course>
  <speed>0.08</speed>
  <fix>3d</fix>
</trkpt>
<trkpt lat="40.0728423" lon="-105.230573">
  <ele>1616.15</ele>
  <time>2026-08-28T19:10:07Z</time>
  <course>6.84</course>
  <speed>0.3535533905932738</speed>
  <fix>3d</fix>
</trkpt>
<trkpt lat="40.0728421" lon="-105.2305738">
  <ele>1615.99</ele>
  <time>2026-08-28T19:10:07Z</time>
  <course>57.3</course>
  <speed>0.17</speed>
  <fix>3d</fix>
</trkpt>
<trkpt lat="40.0728427" lon="-105.2305722">
  <ele>1616.15</ele>
  <time>2026-08-28T19:10:07Z</time>
  <course>6.59</course>
  <speed>0.543783044972901</speed>
  <fix>3d</fix>
</trkpt>
<trkpt lat="40.0728423" lon="-105.2305733">
  <ele>1615.99</ele>
  <time>2026-08-28T19:10:07Z</time>
  <course>53.93</course>
  <speed>0.31</speed>
  <fix>3d</fix>
</trkpt>
<trkpt lat="40.0728434" lon="-105.230571">
  <ele>1616.15</ele>
  <time>2026-08-28T19:10:07Z</time>
  <course>6.31</course>
  <speed>0.7849203781276163</speed>
  <fix>3d</fix>
</trkpt>
<trkpt lat="40.0728428" lon="-105.2305725">
  <ele>1615.99</ele>
  <time>2026-08-28T19:10:07Z</time>
  <course>51.96</course>
  <speed>0.5</speed>
  <fix>3d</fix>
</trkpt>
<trkpt lat="40.0728444" lon="-105.2305693">
  <ele>1616.15</ele>
  <time>2026-08-28T19:10:07Z</time>
  <course>5.99</course>
  <speed>1.0520931517693668</speed>
  <fix>3d</fix>
</trkpt>
<trkpt lat="40.0728435" lon="-105.2305714">
  <ele>1615.99</ele>
  <time>2026-08-28T19:10:07Z</time>
  <course>50.69</course>
  <speed>0.74</speed>
  <fix>3d</fix>
</trkpt>
<trkpt lat="40.0728457" lon="-105.2305673">
  <ele>1616.16</ele>
  <time>2026-08-28T19:10:07Z</time>
  <course>12.11</course>
  <speed>1.3009611831257686</speed>
  <fix>3d</fix>
</trkpt>
<trkpt lat="40.0728444" lon="-105.2305698">
  <ele>1616.0</ele>
  <time>2026-08-28T19:10:07Z</time>
  <course>49.76</course>
  <speed>1.0</speed>
  <fix>3d</fix>
</trkpt>
<trkpt lat="40.0728475" lon="-105.2305647">
  <ele>1616.16</ele>
  <time>2026-08-28T19:10:07Z</time>
  <course>25.52</course>
  <speed>1.6648123017325407</speed>
  <fix>3d</fix>
</trkpt>
<trkpt lat="40.0728458" lon="-105.2305677">
  <ele>1616.01</ele>
  <time>2026-08-28T19:10:07Z</time>
  <course>48.4</course>
  <speed>1.27</speed>
  <fix>3d</fix>
</trkpt>
<trkpt lat="40.0728496" lon="-105.2305614">
  <ele>1616.17</ele>
  <time>2026-08-28T19:10:07Z</time>
  <course>37.5</course>
  <speed>2.086552180032889</speed>
  <fix>3d</fix>
</trkpt>
<trkpt lat="40.0728475" lon="-105.2305653">
  <ele>1616.02</ele>
  <time>2026-08-28T19:10:07Z</time>
  <course>48.15</course>
  <speed>1.6</speed>
  <fix>3d</fix>
</trkpt>
<trkpt lat="40.0728523" lon="-105.2305573">
  <ele>1616.17</ele>
  <time>2026-08-28T19:10:07Z</time>
  <course>49.41</course>
  <speed>2.554094751570505</speed>
  <fix>3d</fix>
</trkpt>
<trkpt lat="40.0728497" lon="-105.2305621">
  <ele>1616.03</ele>
  <time>2026-08-28T19:10:07Z</time>
  <course>49.11</course>
  <speed>2.01</speed>
  <fix>3d</fix>
</trkpt>
<trkpt lat="40.0728553" lon="-105.2305522">
  <ele>1616.17</ele>
  <time>2026-08-28T19:10:07Z</time>
  <course>52.47</course>
  <speed>3.036445290137795</speed>
  <fix>3d</fix>
</trkpt>
<trkpt lat="40.0728522" lon="-105.2305581">
  <ele>1616.03</ele>
  <time>2026-08-28T19:10:07Z</time>
  <course>50.59</course>
  <speed>2.47</speed>
  <fix>3d</fix>
</trkpt>
<trkpt lat="40.0728588" lon="-105.2305462">
  <ele>1616.17</ele>
  <time>2026-08-28T19:10:07Z</time>
  <course>52.17</course>
  <speed>3.526953359487477</speed>
  <fix>3d</fix>
</trkpt>
<trkpt lat="40.0728553" lon="-105.2305531">
  <ele>1616.04</ele>
  <time>2026-08-28T19:10:07Z</time>
  <course>52.21</course>
  <speed>2.95</speed>
  <fix>3d</fix>
</trkpt>
<trkpt lat="40.0728628" lon="-105.2305393">
  <ele>1616.18</ele>
  <time>2026-08-28T19:10:07Z</time>
  <course>51.99</course>
  <speed>3.989686704491971</speed>
  <fix>3d</fix>
</trkpt>
<trkpt lat="40.0728588" lon="-105.2305471">
  <ele>1616.05</ele>
  <time>2026-08-28T19:10:07Z</time>
  <course>53.2</course>
  <speed>3.44</speed>
  <fix>3d</fix>
</trkpt>
<trkpt lat="40.0728672" lon="-105.2305314">
  <ele>1616.19</ele>
  <time>2026-08-28T19:10:07Z</time>
  <course>52.12</course>
  <speed>4.416480499221071</speed>
  <fix>3d</fix>
</trkpt>
<trkpt lat="40.0728627" lon="-105.2305402">
  <ele>1616.07</ele>
  <time>2026-08-28T19:10:07Z</time>
  <course>53.8</course>
  <speed>3.91</speed>
  <fix>3d</fix>
</trkpt>
<trkpt lat="40.0728719" lon="-105.2305228">
  <ele>1616.22</ele>
  <time>2026-08-28T19:10:07Z</time>
  <course>52.48</course>
  <speed>4.809833676958071</speed>
  <fix>3d</fix>
</trkpt>
<trkpt lat="40.072867" lon="-105.2305323">
  <ele>1616.09</ele>
  <time>2026-08-28T19:10:07Z</time>
  <course>54.34</course>
  <speed>4.35</speed>
  <fix>3d</fix>
</trkpt>
<trkpt lat="40.072877" lon="-105.2305134">
  <ele>1616.25</ele>
  <time>2026-08-28T19:10:07Z</time>
  <course>53.01</course>
  <speed>5.125621913485231</speed>
  <fix>3d</fix>
</trkpt>
<trkpt lat="40.0728718" lon="-105.2305236">
  <ele>1616.13</ele>
  <time>2026-08-28T19:10:07Z</time>
  <course>54.87</course>
  <speed>4.75</speed>
  <fix>3d</fix>
</trkpt>
<trkpt lat="40.0728823" lon="-105.2305033">
  <ele>1616.3</ele>
  <time>2026-08-28T19:10:07Z</time>
  <course>53.69</course>
  <speed>5.3916973208814305</speed>
  <fix>3d</fix>
</trkpt>
<trkpt lat="40.0728769" lon="-105.2305141">
  <ele>1616.16</ele>
  <time>2026-08-28T19:10:07Z</time>
  <course>55.39</course>
  <speed>5.09</speed>
  <fix>3d</fix>
</trkpt>
<trkpt lat="40.0728878" lon="-105.2304926">
  <ele>1616.36</ele>
  <time>2026-08-28T19:10:07Z</time>
  <course>54.41</course>
  <speed>5.6025708384633575</speed>
  <fix>3d</fix>
</trkpt>
<trkpt lat="40.0728821" lon="-105.230504">
  <ele>1616.21</ele>
  <time>2026-08-28T19:10:07Z</time>
  <course>55.88</course>
  <speed>5.37</speed>
  <fix>3d</fix>
</trkpt>
<trkpt lat="40.0728934" lon="-105.2304815">
  <ele>1616.41</ele>
  <time>2026-08-28T19:10:07Z</time>
  <course>55.21</course>
  <speed>5.7555017157498956</speed>
  <fix>3d</fix>
</trkpt>
<trkpt lat="40.0728876" lon="-105.2304932">
  <ele>1616.26</ele>
  <time>2026-08-28T19:10:07Z</time>
  <course>56.35</course>
  <speed>5.59</speed>
  <fix>3d</fix>
</trkpt>
<trkpt lat="40.0728991" lon="-105.23047">
  <ele>1616.47</ele>
  <time>2026-08-28T19:10:07Z</time>
  <course>55.99</course>
  <speed>5.8672821646823845</speed>
  <fix>3d</fix>
</trkpt>
<trkpt lat="40.0728933" lon="-105.2304821">
  <ele>1616.32</ele>
  <time>2026-08-28T19:10:07Z</time>
  <course>56.82</course>
  <speed>5.75</speed>
  <fix>3d</fix>
</trkpt>
<trkpt lat="40.0729048" lon="-105.2304583">
  <ele>1616.52</ele>
  <time>2026-08-28T19:10:07Z</time>
  <course>56.71</course>
  <speed>5.934930496644422</speed>
  <fix>3d</fix>
</trkpt>
<trkpt lat="40.072899" lon="-105.2304707">
  <ele>1616.38</ele>
  <time>2026-08-28T19:10:07Z</time>
  <course>57.27</course>
  <speed>5.87</speed>
  <fix>3d</fix>
</trkpt>
<trkpt lat="40.0729105" lon="-105.2304465">
  <ele>1616.57</ele>
  <time>2026-08-28T19:10:07Z</time>
  <course>57.35</course>
  <speed>5.980610336746577</speed>
  <fix>3d</fix>
</trkpt>
<trkpt lat="40.0729047" lon="-105.2304589">
  <ele>1616.43</ele>
  <time>2026-08-28T19:10:07Z</time>
  <course>57.69</course>
  <speed>5.95</speed>
  <fix>3d</fix>
</trkpt>
<trkpt lat="40.0729162" lon="-105.2304345">
  <ele>1616.62</ele>
  <time>2026-08-28T19:10:07Z</time>
  <course>57.9</course>
  <speed>6.000941592783586</speed>
  <fix>3d</fix>
</trkpt>
<trkpt lat="40.0729104" lon="-105.230447">
  <ele>1616.48</ele>
  <time>2026-08-28T19:10:07Z</time>
  <course>58.07</course>
  <speed>6.0</speed>
  <fix>3d</fix>
</trkpt>
<trkpt lat="40.0729218" lon="-105.2304225">
  <ele>1616.67</ele>
  <time>2026-08-28T19:10:07Z</time>
  <course>58.39</course>
  <speed>5.993905237822833</speed>
  <fix>3d</fix>
</trkpt>
<trkpt lat="40.0729161" lon="-105.230435">
  <ele>1616.53</ele>
  <time>2026-08-28T19:10:07Z</time>
  <course>58.37</course>
  <speed>6.02</speed>
  <fix>3d</fix>
</trkpt>
<trkpt lat="40.0729274" lon="-105.2304104">
  <ele>1616.71</ele>
  <time>2026-08-28T19:10:08Z</time>
  <course>58.74</course>
  <speed>5.961291806311783</speed>
  <fix>3d</fix>
</trkpt>
<trkpt lat="40.0729218" lon="-105.230423">
  <ele>1616.57</ele>
  <time>2026-08-28T19:10:08Z</time>
  <course>58.61</course>
  <speed>6.01</speed>
  <fix>3d</fix>
</trkpt>
<trkpt lat="40.072933" lon="-105.2303985">
  <ele>1616.74</ele>
  <time>2026-08-28T19:10:08Z</time>
  <course>59.01</course>
  <speed>5.911556478627266</speed>
  <fix>3d</fix>
</trkpt>
<trkpt lat="40.0729274" lon="-105.2304109">
  <ele>1616.61</ele>
  <time>2026-08-28T19:10:08Z</time>
  <course>58.76</course>
  <speed>5.98</speed>
  <fix>3d</fix>
</trkpt>
<trkpt lat="40.0729384" lon="-105.2303867">
  <ele>1616.77</ele>
  <time>2026-08-28T19:10:08Z</time>
  <course>59.19</course>
  <speed>5.853246962156987</speed>
  <fix>3d</fix>
</trkpt>
<trkpt lat="40.0729329" lon="-105.2303989">
  <ele>1616.64</ele>
  <time>2026-08-28T19:10:08Z</time>
  <course>58.83</course>
  <speed>5.94</speed>
  <fix>3d</fix>
</trkpt>
<trkpt lat="40.0729439" lon="-105.230375">
  <ele>1616.8</ele>
  <time>2026-08-28T19:10:08Z</time>
  <course>59.22</course>
  <speed>5.791519662402952</speed>
  <fix>3d</fix>
</trkpt>
<trkpt lat="40.0729384" lon="-105.2303871">
  <ele>1616.67</ele>
  <time>2026-08-28T19:10:08Z</time>
  <course>58.81</course>
  <speed>5.88</speed>
  <fix>3d</fix>
</trkpt>
<trkpt lat="40.0729493" lon="-105.2303633">
  <ele>1616.83</ele>
  <time>2026-08-28T19:10:08Z</time>
  <course>59.07</course>
  <speed>5.738379562210921</speed>
  <fix>3d</fix>
</trkpt>
<trkpt lat="40.0729439" lon="-105.2303753">
  <ele>1616.71</ele>
  <time>2026-08-28T19:10:08Z</time>
  <course>58.74</course>
  <speed>5.81</speed>
  <fix>3d</fix>
</trkpt>
<trkpt lat="40.0729547" lon="-105.2303518">
  <ele>1616.85</ele>
  <time>2026-08-28T19:10:08Z</time>
  <course>58.8</course>
  <speed>5.709404522364832</speed>
  <fix>3d</fix>
</trkpt>
<trkpt lat="40.0729493" lon="-105.2303637">
  <ele>1616.73</ele>
  <time>2026-08-28T19:10:08Z</time>
  <course>58.6</course>
  <speed>5.76</speed>
  <fix>3d</fix>
</trkpt>
<trkpt lat="40.0729601" lon="-105.2303403">
  <ele>1616.87</ele>
  <time>2026-08-28T19:10:08Z</time>
  <course>58.47</course>
  <speed>5.666815684315134</speed>
  <fix>3d</fix>
</trkpt>
<trkpt lat="40.0729546" lon="-105.2303522">
  <ele>1616.76</ele>
  <time>2026-08-28T19:10:08Z</time>
  <course>58.38</course>
  <speed>5.72</speed>
  <fix>3d</fix>
</trkpt>
<trkpt lat="40.0729655" lon="-105.2303291">
  <ele>1616.9</ele>
  <time>2026-08-28T19:10:08Z</time>
  <course>58.08</course>
  <speed>5.590465096930666</speed>
  <fix>3d</fix>
</trkpt>
<trkpt lat="40.0729601" lon="-105.2303408">
  <ele>1616.78</ele>
  <time>2026-08-28T19:10:08Z</time>
  <course>58.06</course>
  <speed>5.68</speed>
  <fix>3d</fix>
</trkpt>
<trkpt lat="40.0729709" lon="-105.2303181">
  <ele>1616.93</ele>
  <time>2026-08-28T19:10:08Z</time>
  <course>57.72</course>
  <speed>5.478476065476603</speed>
  <fix>3d</fix>
</trkpt>
<trkpt lat="40.0729654" lon="-105.2303296">
  <ele>1616.8</ele>
  <time>2026-08-28T19:10:08Z</time>
  <course>57.63</course>
  <speed>5.61</speed>
  <fix>3d</fix>
</trkpt>
<trkpt lat="40.0729762" lon="-105.2303074">
  <ele>1616.96</ele>
  <time>2026-08-28T19:10:08Z</time>
  <course>57.38</course>
  <speed>5.330853590186097</speed>
  <fix>3d</fix>
</trkpt>
<trkpt lat="40.0729708" lon="-105.2303186">
  <ele>1616.84</ele>
  <time>2026-08-28T19:10:08Z</time>
  <course>57.14</course>
  <speed>5.5</speed>
  <fix>3d</fix>
</trkpt>
<trkpt lat="40.0729814" lon="-105.2302972">
  <ele>1617.01</ele>
  <time>2026-08-28T19:10:08Z</time>
  <course>57.11</course>
  <speed>5.142071566985431</speed>
  <fix>3d</fix>
</trkpt>
<trkpt lat="40.0729761" lon="-105.2303079">
  <ele>1616.88</ele>
  <time>2026-08-28T19:10:08Z</time>
  <course>56.65</course>
  <speed>5.36</speed>
  <fix>3d</fix>
</trkpt>
<trkpt lat="40.0729865" lon="-105.2302874">
  <ele>1617.05</ele>
  <time>2026-08-28T19:10:08Z</time>
  <course>56.89</course>
  <speed>4.920254058481127</speed>
  <fix>3d</fix>
</trkpt>
<trkpt lat="40.0729814" lon="-105.2302976">
  <ele>1616.91</ele>
  <time>2026-08-28T19:10:08Z</time>
  <course>56.19</course>
  <speed>5.18</speed>
  <fix>3d</fix>
</trkpt>
<trkpt lat="40.0729914" lon="-105.2302781">
  <ele>1617.08</ele>
  <time>2026-08-28T19:10:08Z</time>
  <course>56.71</course>
  <speed>4.662552948761011</speed>
  <fix>3d</fix>
</trkpt>
<trkpt lat="40.0729865" lon="-105.2302877">
  <ele>1616.96</ele>
  <time>2026-08-28T19:10:08Z</time>
  <course>55.79</course>
  <speed>4.96</speed>
  <fix>3d</fix>
</trkpt>
<trkpt lat="40.072996" lon="-105.2302693">
  <ele>1617.12</ele>
  <time>2026-08-28T19:10:08Z</time>
  <course>56.55</course>
  <speed>4.363312961500699</speed>
  <fix>3d</fix>
</trkpt>
<trkpt lat="40.0729914" lon="-105.2302783">
  <ele>1617.0</ele>
  <time>2026-08-28T19:10:08Z</time>
  <course>55.43</course>
  <speed>4.71</speed>
  <fix>3d</fix>
</trkpt>
<trkpt lat="40.0730004" lon="-105.2302612">
  <ele>1617.15</ele>
  <time>2026-08-28T19:10:08Z</time>
  <course>56.39</course>
  <speed>4.019975124301144</speed>
  <fix>3d</fix>
</trkpt>
<trkpt lat="40.0729961" lon="-105.2302695">
  <ele>1617.03</ele>
  <time>2026-08-28T19:10:08Z</time>
  <course>55.11</course>
  <speed>4.41</speed>
  <fix>3d</fix>
</trkpt>
<trkpt lat="40.0730044" lon="-105.2302538">
  <ele>1617.17</ele>
  <time>2026-08-28T19:10:08Z</time>
  <course>56.23</course>
  <speed>3.6292698990292798</speed>
  <fix>3d</fix>
</trkpt>
<trkpt lat="40.0730004" lon="-105.2302613">
  <ele>1617.06</ele>
  <time>2026-08-28T19:10:08Z</time>
  <course>54.8</course>
  <speed>4.07</speed>
  <fix>3d</fix>
</trkpt>
<trkpt lat="40.073008" lon="-105.2302472">
  <ele>1617.18</ele>
  <time>2026-08-28T19:10:08Z</time>
  <course>56.03</course>
  <speed>3.1968109108922906</speed>
  <fix>3d</fix>
</trkpt>
<trkpt lat="40.0730045" lon="-105.2302539">
  <ele>1617.08</ele>
  <time>2026-08-28T19:10:08Z</time>
  <course>54.5</course>
  <speed>3.69</speed>
  <fix>3d</fix>
</trkpt>
<trkpt lat="40.0730112" lon="-105.2302415">
  <ele>1617.19</ele>
  <time>2026-08-28T19:10:08Z</time>
  <course>55.76</course>
  <speed>2.734264069178396</speed>
  <fix>3d</fix>
</trkpt>
<trkpt lat="40.0730081" lon="-105.2302472">
  <ele>1617.1</ele>
  <time>2026-08-28T19:10:08Z</time>
  <course>54.19</course>
  <speed>3.26</speed>
  <fix>3d</fix>
</trkpt>
<trkpt lat="40.0730139" lon="-105.2302366">
  <ele>1617.18</ele>
  <time>2026-08-28T19:10:08Z</time>
  <course>55.45</course>
  <speed>2.2681490250863146</speed>
  <fix>3d</fix>
</trkpt>
<trkpt lat="40.0730114" lon="-105.2302414">
  <ele>1617.11</ele>
  <time>2026-08-28T19:10:08Z</time>
  <course>53.89</course>
  <speed>2.8</speed>
  <fix>3d</fix>
</trkpt>
<trkpt lat="40.0730162" lon="-105.2302327">
  <ele>1617.17</ele>
  <time>2026-08-28T19:10:08Z</time>
  <course>55.13</course>
  <speed>1.8101104938649464</speed>
  <fix>3d</fix>
</trkpt>
<trkpt lat="40.0730141" lon="-105.2302366">
  <ele>1617.11</ele>
  <time>2026-08-28T19:10:08Z</time>
  <course>53.64</course>
  <speed>2.33</speed>
  <fix>3d</fix>
</trkpt>
<trkpt lat="40.0730179" lon="-105.2302296">
  <ele>1617.16</ele>
  <time>2026-08-28T19:10:08Z</time>
  <course>54.92</course>
  <speed>1.3961733416735902</speed>
  <fix>3d</fix>
</trkpt>
<trkpt lat="40.0730164" lon="-105.2302326">
  <ele>1617.11</ele>
  <time>2026-08-28T19:10:08Z</time>
  <course>53.53</course>
  <speed>1.87</speed>
  <fix>3d</fix>
</trkpt>
<trkpt lat="40.0730193" lon="-105.2302273">
  <ele>1617.15</ele>
  <time>2026-08-28T19:10:08Z</time>
  <course>55.03</course>
  <speed>1.0322790320451152</speed>
  <fix>3d</fix>
</trkpt>
<trkpt lat="40.0730181" lon="-105.2302295">
  <ele>1617.1</ele>
  <time>2026-08-28T19:10:08Z</time>
  <course>53.67</course>
  <speed>1.44</speed>
  <fix>3d</fix>
</trkpt>
<trkpt lat="40.0730202" lon="-105.2302255">
  <ele>1617.14</ele>
  <time>2026-08-28T19:10:08Z</time>
  <course>55.38</course>
  <speed>0.7349829930005184</speed>
  <fix>3d</fix>
</trkpt>
<trkpt lat="40.0730194" lon="-105.2302271">
  <ele>1617.09</ele>
  <time>2026-08-28T19:10:08Z</time>
  <course>54.17</course>
  <speed>1.07</speed>
  <fix>3d</fix>
</trkpt>
<trkpt lat="40.0730209" lon="-105.2302243">
  <ele>1617.14</ele>
  <time>2026-08-28T19:10:08Z</time>
  <course>55.11</course>
  <speed>0.4854894437575342</speed>
  <fix>3d</fix>
</trkpt>
<trkpt lat="40.0730204" lon="-105.2302254">
  <ele>1617.07</ele>
  <time>2026-08-28T19:10:08Z</time>
  <course>55.34</course>
  <speed>0.75</speed>
  <fix>3d</fix>
</trkpt>
<trkpt lat="40.0730213" lon="-105.2302235">
  <ele>1617.14</ele>
  <time>2026-08-28T19:10:08Z</time>
  <course>54.99</course>
  <speed>0.28653097563788804</speed>
  <fix>3d</fix>
</trkpt>
<trkpt lat="40.073021" lon="-105.2302242">
  <ele>1617.07</ele>
  <time>2026-08-28T19:10:08Z</time>
  <course>57.28</course>
  <speed>0.49</speed>
  <fix>3d</fix>
</trkpt>
<trkpt lat="40.0730215" lon="-105.230223">
  <ele>1617.14</ele>
  <time>2026-08-28T19:10:08Z</time>
  <course>54.92</course>
  <speed>0.1392838827718412</speed>
  <fix>3d</fix>
</trkpt>
<trkpt lat="40.0730214" lon="-105.2302234">
  <ele>1617.07</ele>
  <time>2026-08-28T19:10:08Z</time>
  <course>60.16</course>
  <speed>0.29</speed>
  <fix>3d</fix>
</trkpt>
<trkpt lat="40.0730215" lon="-105.2302228">
  <ele>1617.13</ele>
  <time>2026-08-28T19:10:08Z</time>
  <course>54.87</course>
  <speed>0.04</speed>
  <fix>3d</fix>
</trkpt>
<trkpt lat="40.0730216" lon="-105.2302229">
  <ele>1617.06</ele>
  <time>2026-08-28T19:10:08Z</time>
  <course>66.82</course>
  <speed>0.13</speed>
  <fix>3d</fix>
</trkpt>
<trkpt lat="40.0730215" lon="-105.2302228">
  <ele>1617.14</ele>
  <time>2026-08-28T19:10:08Z</time>
  <course>54.8</course>
  <speed>0.0316227766016838</speed>
  <fix>3d</fix>
</trkpt>
<trkpt lat="40.0730216" lon="-105.2302227">
  <ele>1617.06</ele>
  <time>2026-08-28T19:10:08Z</time>
  <course>114.52</course>
  <speed>0.02</speed>
  <fix>3d</fix>
</trkpt>
<trkpt lat="40.0730214" lon="-105.2302228">
  <ele>1617.15</ele>
  <time>2026-08-28T19:10:08Z</time>
  <course>54.79</course>
  <speed>0.05830951894845301</speed>
  <fix>3d</fix>
</trkpt>
<trkpt lat="40.0730216" lon="-105.2302227">
  <ele>1617.07</ele>
  <time>2026-08-28T19:10:08Z</time>
  <course>214.71</course>
  <speed>0.06</speed>
  <fix>3d</fix>
</trkpt>
<trkpt lat="40.0730214" lon="-105.2302229">
  <ele>1617.15</ele>
  <time>2026-08-28T19:10:08Z</time>
  <course>54.75</course>
  <speed>0.03605551275463989</speed>
  <fix>3d</fix>
</trkpt>
<trkpt lat="40.0730215" lon="-105.2302228">
  <ele>1617.07</ele>
  <time>2026-08-28T19:10:08Z</time>
  <course>224.59</course>
  <speed>0.08</speed>
  <fix>3d</fix>
</trkpt>
<trkpt lat="40.0730213" lon="-105.2302229">
  <ele>1617.16</ele>
  <time>2026-08-28T19:10:08Z</time>
  <course>54.71</course>
  <speed>0.0</speed>
  <fix>3d</fix>
</trkpt>
<trkpt lat="40.0730214" lon="-105.2302229">
  <ele>1617.08</ele>
  <time>2026-08-28T19:10:08Z</time>
  <course>227.94</course>
  <speed>0.07</speed>
  <fix>3d</fix>
</trkpt>
<trkpt lat="40.0730214" lon="-105.2302229">
  <ele>1617.17</ele>
  <time>2026-08-28T19:10:08Z</time>
  <course>54.67</course>
  <speed>0.05830951894845301</speed>
  <fix>3d</fix>
</trkpt>
<trkpt lat="40.0730213" lon="-105.230223">
  <ele>1617.08</ele>
  <time>2026-08-28T19:10:08Z</time>
  <course>232.89</course>
  <speed>0.03</speed>
  <fix>3d</fix>
</trkpt>
<trkpt lat="40.0730214" lon="-105.2302228">
  <ele>1617.17</ele>
  <time>2026-08-28T19:10:08Z</time>
  <course>54.66</course>
  <speed>0.12806248474865697</speed>
  <fix>3d</fix>
</trkpt>
<trkpt lat="40.0730213" lon="-105.230223">
  <ele>1617.08</ele>
  <time>2026-08-28T19:10:08Z</time>
  <course>39.23</course>
  <speed>0.03</speed>
  <fix>3d</fix>
</trkpt>
<trkpt lat="40.0730215" lon="-105.2302226">
  <ele>1617.16</ele>
  <time>2026-08-28T19:10:08Z</time>
  <course>54.66</course>
  <speed>0.1769180601295413</speed>
  <fix>3d</fix>
</trkpt>
<trkpt lat="40.0730214" lon="-105.230223">
  <ele>1617.09</ele>
  <time>2026-08-28T19:10:08Z</time>
  <course>42.45</course>
  <speed>0.1</speed>
  <fix>3d</fix>
</trkpt>
<trkpt lat="40.0730218" lon="-105.2302223">
  <ele>1617.16</ele>
  <time>2026-08-28T19:10:08Z</time>
  <course>54.68</course>
  <speed>0.21213203435596426</speed>
  <fix>3d</fix>
</trkpt>
<trkpt lat="40.0730216" lon="-105.2302228">
  <ele>1617.09</ele>
  <time>2026-08-28T19:10:08Z</time>
  <course>41.56</course>
  <speed>0.16</speed>
  <fix>3d</fix>
</trkpt>
<trkpt lat="40.0730221" lon="-105.230222">
  <ele>1617.16</ele>
  <time>2026-08-28T19:10:08Z</time>
  <course>54.69</course>
  <speed>0.2193171219946131</speed>
  <fix>3d</fix>
</trkpt>
<trkpt lat="40.0730218" lon="-105.2302225">
  <ele>1617.09</ele>
  <time>2026-08-28T19:10:08Z</time>
  <course>40.09</course>
  <speed>0.2</speed>
  <fix>3d</fix>
</trkpt>
<trkpt lat="40.0730224" lon="-105.2302217">
  <ele>1617.16</ele>
  <time>2026-08-28T19:10:08Z</time>
  <course>54.7</course>
  <speed>0.2193171219946131</speed>
  <fix>3d</fix>
</trkpt>
<trkpt lat="40.0730221" lon="-105.2302222">
  <ele>1617.09</ele>
  <time>2026-08-28T19:10:08Z</time>
  <course>38.85</course>
  <speed>0.23</speed>
  <fix>3d</fix>
</trkpt>
<trkpt lat="40.0730227" lon="-105.2302214">
  <ele>1617.16</ele>
  <time>2026-08-28T19:10:08Z</time>
  <course>54.7</course>
  <speed>0.20518284528683192</speed>
  <fix>3d</fix>
</trkpt>
<trkpt lat="40.0730224" lon="-105.2302219">
  <ele>1617.09</ele>
  <time>2026-08-28T19:10:08Z</time>
  <course>38.1</course>
  <speed>0.23</speed>
  <fix>3d</fix>
</trkpt>
<trkpt lat="40.073023" lon="-105.2302211">
  <ele>1617.17</ele>
  <time>2026-08-28T19:10:08Z</time>
  <course>54.72</course>
  <speed>0.18384776310850234</speed>
  <fix>3d</fix>
</trkpt>
<trkpt lat="40.0730228" lon="-105.2302215">
  <ele>1617.09</ele>
  <time>2026-08-28T19:10:08Z</time>
  <course>37.82</course>
  <speed>0.23</speed>
  <fix>3d</fix>
</trkpt>
<trkpt lat="40.0730232" lon="-105.2302208">
  <ele>1617.17</ele>
  <time>2026-08-28T19:10:08Z</time>
  <course>54.71</course>
  <speed>0.15556349186104046</speed>
  <fix>3d</fix>
</trkpt>
<trkpt lat="40.0730231" lon="-105.2302212">
  <ele>1617.09</ele>
  <time>2026-08-28T19:10:08Z</time>
  <course>37.94</course>
  <speed>0.21</speed>
  <fix>3d</fix>
</trkpt>
<trkpt lat="40.0730234" lon="-105.2302206">
  <ele>1617.17</ele>
  <time>2026-08-28T19:10:08Z</time>
  <course>54.72</course>
  <speed>0.12041594578792296</speed>
  <fix>3d</fix>
</trkpt>
<trkpt lat="40.0730233" lon="-105.2302209">
  <ele>1617.09</ele>
  <time>2026-08-28T19:10:08Z</time>
  <course>38.3</course>
  <speed>0.18</speed>
  <fix>3d</fix>
</trkpt>
<trkpt lat="40.0730236" lon="-105.2302204">
  <ele>1617.17</ele>
  <time>2026-08-28T19:10:08Z</time>
  <course>54.71</course>
  <speed>0.07810249675906654</speed>
  <fix>3d</fix>
</trkpt>
<trkpt lat="40.0730236" lon="-105.2302206">
  <ele>1617.09</ele>
  <time>2026-08-28T19:10:08Z</time>
  <course>38.75</course>
  <speed>0.15</speed>
  <fix>3d</fix>
</trkpt>
<trkpt lat="40.0730237" lon="-105.2302203">
  <ele>1617.17</ele>
  <time>2026-08-28T19:10:08Z</time>
  <course>54.73</course>
  <speed>0.044721359549995794</speed>
  <fix>3d</fix>
</trkpt>
<trkpt lat="40.0730238" lon="-105.2302205">
  <ele>1617.09</ele>
  <time>2026-08-28T19:10:08Z</time>
  <course>39.45</course>
  <speed>0.12</speed>
  <fix>3d</fix>
</trkpt>
<trkpt lat="40.0730238" lon="-105.2302202">
  <ele>1617.17</ele>
  <time>2026-08-28T19:10:08Z</time>
  <course>54.71</course>
  <speed>0.01</speed>
  <fix>3d</fix>
</trkpt>
<trkpt lat="40.0730239" lon="-105.2302203">
  <ele>1617.09</ele>
  <time>2026-08-28T19:10:08Z</time>
  <course>40.65</course>
  <speed>0.08</speed>
  <fix>3d</fix>
</trkpt>
<trkpt lat="40.0730238" lon="-105.2302202">
  <ele>1617.17</ele>
  <time>2026-08-28T19:10:08Z</time>
  <course>54.7</course>
  <speed>0.0316227766016838</speed>
  <fix>3d</fix>
</trkpt>
<trkpt lat="40.073024" lon="-105.2302202">
  <ele>1617.09</ele>
  <time>2026-08-28T19:10:08Z</time>
  <course>42.94</course>
  <speed>0.04</speed>
  <fix>3d</fix>
</trkpt>
<trkpt lat="40.0730238" lon="-105.2302202">
  <ele>1617.17</ele>
  <time>2026-08-28T19:10:08Z</time>
  <course>54.7</course>
  <speed>0.0670820393249937</speed>
  <fix>3d</fix>
</trkpt>
<trkpt lat="40.0730241" lon="-105.2302201">
  <ele>1617.09</ele>
  <time>2026-08-28T19:10:08Z</time>
  <course>67.73</course>
  <speed>0.0</speed>
  <fix>3d</fix>
</trkpt>
<trkpt lat="40.0730238" lon="-105.2302203">
  <ele>1617.17</ele>
  <time>2026-08-28T19:10:08Z</time>
  <course>54.68</course>
  <speed>0.09433981132056603</speed>
  <fix>3d</fix>
</trkpt>
<trkpt lat="40.0730241" lon="-105.2302201">
  <ele>1617.09</ele>
  <time>2026-08-28T19:10:08Z</time>
  <course>212.96</course>
  <speed>0.03</speed>
  <fix>3d</fix>
</trkpt>
<trkpt lat="40.0730237" lon="-105.2302203">
  <ele>1617.17</ele>
  <time>2026-08-28T19:10:08Z</time>
  <course>54.69</course>
  <speed>0.12206555615733702</speed>
  <fix>3d</fix>
</trkpt>
<trkpt lat="40.0730241" lon="-105.2302201">
  <ele>1617.09</ele>
  <time>2026-08-28T19:10:08Z</time>
  <course>216.24</course>
  <speed>0.06</speed>
  <fix>3d</fix>
</trkpt>
<trkpt lat="40.0730236" lon="-105.2302205">
  <ele>1617.17</ele>
  <time>2026-08-28T19:10:08Z</time>
  <course>54.68</course>
  <speed>0.15</speed>
  <fix>3d</fix>
</trkpt>
<trkpt lat="40.0730239" lon="-105.2302202">
  <ele>1617.09</ele>
  <time>2026-08-28T19:10:08Z</time>
  <course>217.15</course>
  <speed>0.09</speed>
  <fix>3d</fix>
</trkpt>
<trkpt lat="40.0730234" lon="-105.2302207">
  <ele>1617.16</ele>
  <time>2026-08-28T19:10:08Z</time>
  <course>54.68</course>
  <speed>0.17204650534085253</speed>
  <fix>3d</fix>
</trkpt>
<trkpt lat="40.0730238" lon="-105.2302204">
  <ele>1617.09</ele>
  <time>2026-08-28T19:10:08Z</time>
  <course>217.7</course>
  <speed>0.11</speed>
  <fix>3d</fix>
</trkpt>
<trkpt lat="40.0730232" lon="-105.2302209">
  <ele>1617.17</ele>
  <time>2026-08-28T19:10:08Z</time>
  <course>54.65</course>
  <speed>0.17804493814764857</speed>
  <fix>3d</fix>
</trkpt>
<trkpt lat="40.0730237" lon="-105.2302206">
  <ele>1617.09</ele>
  <time>2026-08-28T19:10:08Z</time>
  <course>218.15</course>
  <speed>0.13</speed>
  <fix>3d</fix>
</trkpt>
<trkpt lat="40.073023" lon="-105.2302211">
  <ele>1617.17</ele>
  <time>2026-08-28T19:10:08Z</time>
  <course>54.64</course>
  <speed>0.18601075237738274</speed>
  <fix>3d</fix>
</trkpt>
<trkpt lat="40.0730235" lon="-105.2302207">
  <ele>1617.09</ele>
  <time>2026-08-28T19:10:08Z</time>
  <course>218.57</course>
  <speed>0.14</speed>
  <fix>3d</fix>
</trkpt>
<trkpt lat="40.0730228" lon="-105.2302213">
  <ele>1617.17</ele>
  <time>2026-08-28T19:10:08Z</time>
  <course>54.63</course>
  <speed>0.18601075237738274</speed>
  <fix>3d</fix>
</trkpt>
<trkpt lat="40.0730232" lon="-105.230221">
  <ele>1617.09</ele>
  <time>2026-08-28T19:10:08Z</time>
  <course>218.87</course>
  <speed>0.15</speed>
  <fix>3d</fix>
</trkpt>
<trkpt lat="40.0730226" lon="-105.2302216">
  <ele>1617.16</ele>
  <time>2026-08-28T19:10:08Z</time>
  <course>54.62</course>
  <speed>0.18601075237738274</speed>
  <fix>3d</fix>
</trkpt>
<trkpt lat="40.073023" lon="-105.2302212">
  <ele>1617.09</ele>
  <time>2026-08-28T19:10:08Z</time>
  <course>219.21</course>
  <speed>0.15</speed>
  <fix>3d</fix>
</trkpt>
<trkpt lat="40.0730224" lon="-105.2302218">
  <ele>1617.16</ele>
  <time>2026-08-28T19:10:08Z</time>
  <course>54.61</course>
  <speed>0.17804493814764857</speed>
  <fix>3d</fix>
</trkpt>
<trkpt lat="40.0730227" lon="-105.2302215">
  <ele>1617.09</ele>
  <time>2026-08-28T19:10:08Z</time>
  <course>219.67</course>
  <speed>0.15</speed>
  <fix>3d</fix>
</trkpt>
<trkpt lat="40.0730222" lon="-105.230222">
  <ele>1617.17</ele>
  <time>2026-08-28T19:10:08Z</time>
  <course>54.6</course>
  <speed>0.16401219466856726</speed>
  <fix>3d</fix>
</trkpt>
<trkpt lat="40.0730226" lon="-105.2302216">
  <ele>1617.09</ele>
  <time>2026-08-28T19:10:08Z</time>
  <course>220.01</course>
  <speed>0.15</speed>
  <fix>3d</fix>
</trkpt>
<trkpt lat="40.073022" lon="-105.2302222">
  <ele>1617.17</ele>
  <time>2026-08-28T19:10:08Z</time>
  <course>54.6</course>
  <speed>0.15</speed>
  <fix>3d</fix>
</trkpt>
<trkpt lat="40.0730224" lon="-105.2302219">
  <ele>1617.09</ele>
  <time>2026-08-28T19:10:08Z</time>
  <course>220.4</course>
  <speed>0.14</speed>
  <fix>3d</fix>
</trkpt>
<trkpt lat="40.0730218" lon="-105.2302224">
  <ele>1617.18</ele>
  <time>2026-08-28T19:10:08Z</time>
  <course>54.61</course>
  <speed>0.12806248474865697</speed>
  <fix>3d</fix>
</trkpt>
<trkpt lat="40.0730221" lon="-105.2302221">
  <ele>1617.09</ele>
  <time>2026-08-28T19:10:08Z</time>
  <course>220.99</course>
  <speed>0.12</speed>
  <fix>3d</fix>
</trkpt>
<trkpt lat="40.0730217" lon="-105.2302226">
  <ele>1617.18</ele>
  <time>2026-08-28T19:10:08Z</time>
  <course>54.62</course>
  <speed>0.11401754250991379</speed>
  <fix>3d</fix>
</trkpt>
<trkpt lat="40.073022" lon="-105.2302223">
  <ele>1617.09</ele>
  <time>2026-08-28T19:10:08Z</time>
  <course>221.76</course>
  <speed>0.11</speed>
  <fix>3d</fix>
</trkpt>
<trkpt lat="40.0730216" lon="-105.2302227">
  <ele>1617.18</ele>
  <time>2026-08-28T19:10:08Z</time>
  <course>54.63</course>
  <speed>0.09219544457292887</speed>
  <fix>3d</fix>
</trkpt>
<trkpt lat="40.0730219" lon="-105.2302225">
  <ele>1617.08</ele>
  <time>2026-08-28T19:10:08Z</time>
  <course>223.07</course>
  <speed>0.09</speed>
  <fix>3d</fix>
</trkpt>
<trkpt lat="40.0730215" lon="-105.2302228">
  <ele>1617.17</ele>
  <time>2026-08-28T19:10:08Z</time>
  <course>54.62</course>
  <speed>0.07810249675906654</speed>
  <fix>3d</fix>
</trkpt>
<trkpt lat="40.0730218" lon="-105.2302226">
  <ele>1617.08</ele>
  <time>2026-08-28T19:10:08Z</time>
  <course>225.15</course>
  <speed>0.07</speed>
  <fix>3d</fix>
</trkpt>
<trkpt lat="40.0730215" lon="-105.2302229">
  <ele>1617.17</ele>
  <time>2026-08-28T19:10:08Z</time>
  <course>54.6</course>
  <speed>0.0565685424949238</speed>
  <fix>3d</fix>
</trkpt>
<trkpt lat="40.0730217" lon="-105.2302227">
  <ele>1617.08</ele>
  <time>2026-08-28T19:10:08Z</time>
  <course>228.22</course>
  <speed>0.05</speed>
  <fix>3d</fix>
</trkpt>
<trkpt lat="40.0730215" lon="-105.2302229">
  <ele>1617.16</ele>
  <time>2026-08-28T19:10:08Z</time>
  <course>54.58</course>
  <speed>0.04242640687119285</speed>
  <fix>3d</fix>
</trkpt>
<trkpt lat="40.0730217" lon="-105.2302228">
  <ele>1617.07</ele>
  <time>2026-08-28T19:10:08Z</time>
  <course>233.41</course>
  <speed>0.03</speed>
  <fix>3d</fix>
</trkpt>
<trkpt lat="40.0730215" lon="-105.230223">
  <ele>1617.16</ele>
  <time>2026-08-28T19:10:08Z</time>
  <course>54.56</course>
  <speed>0.0282842712474619</speed>
  <fix>3d</fix>
</trkpt>
<trkpt lat="40.0730216" lon="-105.2302229">
  <ele>1617.07</ele>
  <time>2026-08-28T19:10:08Z</time>
  <course>245.82</course>
  <speed>0.02</speed>
  <fix>3d</fix>
</trkpt>
<trkpt lat="40.0730215" lon="-105.230223">
  <ele>1617.16</ele>
  <time>2026-08-28T19:10:08Z</time>
  <course>54.55</course>
  <speed>0.01414213562373095</speed>
  <fix>3d</fix>
</trkpt>
<trkpt lat="40.0730216" lon="-105.2302229">
  <ele>1617.07</ele>
  <time>2026-08-28T19:10:08Z</time>
  <course>297.06</course>
  <speed>0.0</speed>
  <fix>3d</fix>
</trkpt>
<trkpt lat="40.0730215" lon="-105.230223">
  <ele>1617.16</ele>
  <time>2026-08-28T19:10:08Z</time>
  <course>54.55</course>
  <speed>0.0</speed>
  <fix>3d</fix>
</trkpt>
<trkpt lat="40.0730217" lon="-105.2302229">
  <ele>1617.07</ele>
  <time>2026-08-28T19:10:08Z</time>
  <course>6.41</course>
  <speed>0.01</speed>
  <fix>3d</fix>
</trkpt>
<trkpt lat="40.0730215" lon="-105.2302229">
  <ele>1617.16</ele>
  <time>2026-08-28T19:10:08Z</time>
  <course>54.54</course>
  <speed>0.0</speed>
  <fix>3d</fix>
</trkpt>
<trkpt lat="40.0730217" lon="-105.2302229">
  <ele>1617.07</ele>
  <time>2026-08-28T19:10:08Z</time>
  <course>23.41</course>
  <speed>0.02</speed>
  <fix>3d</fix>
</trkpt>
<trkpt lat="40.0730215" lon="-105.2302229">
  <ele>1617.16</ele>
  <time>2026-08-28T19:10:08Z</time>
  <course>54.54</course>
  <speed>0.0</speed>
  <fix>3d</fix>
</trkpt>
<trkpt lat="40.0730217" lon="-105.2302229">
  <ele>1617.07</ele>
  <time>2026-08-28T19:10:08Z</time>
  <course>29.27</course>
  <speed>0.03</speed>
  <fix>3d</fix>
</trkpt>
<trkpt lat="40.0730216" lon="-105.2302229">
  <ele>1617.16</ele>
  <time>2026-08-28T19:10:08Z</time>
  <course>54.55</course>
  <speed>0.0</speed>
  <fix>3d</fix>
</trkpt>
<trkpt lat="40.0730217" lon="-105.2302229">
  <ele>1617.07</ele>
  <time>2026-08-28T19:10:08Z</time>
  <course>31.93</course>
  <speed>0.04</speed>
  <fix>3d</fix>
</trkpt>
<trkpt lat="40.0730216" lon="-105.2302229">
  <ele>1617.16</ele>
  <time>2026-08-28T19:10:08Z</time>
  <course>54.55</course>
  <speed>0.01</speed>
  <fix>3d</fix>
</trkpt>
<trkpt lat="40.0730217" lon="-105.2302228">
  <ele>1617.07</ele>
  <time>2026-08-28T19:10:08Z</time>
  <course>33.7</course>
  <speed>0.04</speed>
  <fix>3d</fix>
</trkpt>
<trkpt lat="40.0730217" lon="-105.2302228">
  <ele>1617.16</ele>
  <time>2026-08-28T19:10:08Z</time>
  <course>54.55</course>
  <speed>0.01</speed>
  <fix>3d</fix>
</trkpt>
<trkpt lat="40.0730218" lon="-105.2302227">
  <ele>1617.07</ele>
  <time>2026-08-28T19:10:08Z</time>
  <course>36.01</course>
  <speed>0.04</speed>
  <fix>3d</fix>
</trkpt>
<trkpt lat="40.0730218" lon="-105.2302228">
  <ele>1617.16</ele>
  <time>2026-08-28T19:10:08Z</time>
  <course>54.54</course>
  <speed>0.01</speed>
  <fix>3d</fix>
</trkpt>
<trkpt lat="40.0730219" lon="-105.2302227">
  <ele>1617.07</ele>
  <time>2026-08-28T19:10:08Z</time>
  <course>38.53</course>
  <speed>0.04</speed>
  <fix>3d</fix>
</trkpt>
<trkpt lat="40.0730218" lon="-105.2302227">
  <ele>1617.16</ele>
  <time>2026-08-28T19:10:08Z</time>
  <course>54.54</course>
  <speed>0.01</speed>
  <fix>3d</fix>
</trkpt>
<trkpt lat="40.0730219" lon="-105.2302226">
  <ele>1617.07</ele>
  <time>2026-08-28T19:10:08Z</time>
  <course>40.44</course>
  <speed>0.04</speed>
  <fix>3d</fix>
</trkpt>
<trkpt lat="40.0730218" lon="-105.2302226">
  <ele>1617.17</ele>
  <time>2026-08-28T19:10:08Z</time>
  <course>54.56</course>
  <speed>0.01</speed>
  <fix>3d</fix>
</trkpt>
<trkpt lat="40.073022" lon="-105.2302225">
  <ele>1617.07</ele>
  <time>2026-08-28T19:10:08Z</time>
  <course>41.62</course>
  <speed>0.04</speed>
  <fix>3d</fix>
</trkpt>
<trkpt lat="40.0730219" lon="-105.2302226">
  <ele>1617.16</ele>
  <time>2026-08-28T19:10:08Z</time>
  <course>54.55</course>
  <speed>0.0</speed>
  <fix>3d</fix>
</trkpt>
<trkpt lat="40.073022" lon="-105.2302225">
  <ele>1617.07</ele>
  <time>2026-08-28T19:10:08Z</time>
  <course>42.4</course>
  <speed>0.04</speed>
  <fix>3d</fix>
</trkpt>
<trkpt lat="40.0730219" lon="-105.2302225">
  <ele>1617.16</ele>
  <time>2026-08-28T19:10:08Z</time>
  <course>54.55</course>
  <speed>0.0</speed>
  <fix>3d</fix>
</trkpt>
<trkpt lat="40.0730221" lon="-105.2302225">
  <ele>1617.07</ele>
  <time>2026-08-28T19:10:08Z</time>
  <course>42.86</course>
  <speed>0.03</speed>
  <fix>3d</fix>
</trkpt>
<trkpt lat="40.0730219" lon="-105.2302225">
  <ele>1617.16</ele>
  <time>2026-08-28T19:10:08Z</time>
  <course>54.53</course>
  <speed>0.01</speed>
  <fix>3d</fix>
</trkpt>
<trkpt lat="40.0730221" lon="-105.2302224">
  <ele>1617.07</ele>
  <time>2026-08-28T19:10:08Z</time>
  <course>43.0</course>
  <speed>0.02</speed>
  <fix>3d</fix>
</trkpt>
<trkpt lat="40.073022" lon="-105.2302225">
  <ele>1617.16</ele>
  <time>2026-08-28T19:10:08Z</time>
  <course>54.51</course>
  <speed>0.03</speed>
  <fix>3d</fix>
</trkpt>
<trkpt lat="40.0730221" lon="-105.2302223">
  <ele>1617.07</ele>
  <time>2026-08-28T19:10:08Z</time>
  <course>45.54</course>
  <speed>0.02</speed>
  <fix>3d</fix>
</trkpt>
<trkpt lat="40.0730219" lon="-105.2302224">
  <ele>1617.16</ele>
  <time>2026-08-28T19:10:08Z</time>
  <course>54.63</course>
  <speed>0.1118033988749895</speed>
  <fix>3d</fix>
</trkpt>
<trkpt lat="40.0730221" lon="-105.2302223">
  <ele>1617.07</ele>
  <time>2026-08-28T19:10:08Z</time>
  <course>124.58</course>
  <speed>0.01</speed>
  <fix>3d</fix>
</trkpt>
<trkpt lat="40.0730217" lon="-105.2302224">
  <ele>1617.15</ele>
  <time>2026-08-28T19:10:08Z</time>
  <course>54.75</course>
  <speed>0.25317977802344327</speed>
  <fix>3d</fix>
</trkpt>
<trkpt lat="40.0730221" lon="-105.2302223">
  <ele>1617.07</ele>
  <time>2026-08-28T19:10:08Z</time>
  <course>182.26</course>
  <speed>0.07</speed>
  <fix>3d</fix>
</trkpt>
<trkpt lat="40.0730211" lon="-105.2302225">
  <ele>1617.15</ele>
  <time>2026-08-28T19:10:08Z</time>
  <course>54.76</course>
  <speed>0.4341658669218482</speed>
  <fix>3d</fix>
</trkpt>
<trkpt lat="40.0730219" lon="-105.2302223">
  <ele>1617.07</ele>
  <time>2026-08-28T19:10:08Z</time>
  <course>186.52</course>
  <speed>0.2</speed>
  <fix>3d</fix>
</trkpt>
<trkpt lat="40.0730202" lon="-105.2302226">
  <ele>1617.15</ele>
  <time>2026-08-28T19:10:08Z</time>
  <course>54.74</course>
  <speed>0.6228964600958975</speed>
  <fix>3d</fix>
</trkpt>
<trkpt lat="40.0730214" lon="-105.2302223">
  <ele>1617.07</ele>
  <time>2026-08-28T19:10:08Z</time>
  <course>186.01</course>
  <speed>0.37</speed>
  <fix>3d</fix>
</trkpt>
<trkpt lat="40.073019" lon="-105.2302227">
  <ele>1617.15</ele>
  <time>2026-08-28T19:10:08Z</time>
  <course>54.66</course>
  <speed>0.812219182240853</speed>
  <fix>3d</fix>
</trkpt>
<trkpt lat="40.0730206" lon="-105.2302224">
  <ele>1617.07</ele>
  <time>2026-08-28T19:10:08Z</time>
  <course>184.66</course>
  <speed>0.56</speed>
  <fix>3d</fix>
</trkpt>
<trkpt lat="40.0730175" lon="-105.2302228">
  <ele>1617.15</ele>
  <time>2026-08-28T19:10:08Z</time>
  <course>54.63</course>
  <speed>0.9918165152889924</speed>
  <fix>3d</fix>
</trkpt>
<trkpt lat="40.0730194" lon="-105.2302225">
  <ele>1617.07</ele>
  <time>2026-08-28T19:10:08Z</time>
  <course>183.47</course>
  <speed>0.75</speed>
  <fix>3d</fix>
</trkpt>
<trkpt lat="40.0730156" lon="-105.2302229">
  <ele>1617.16</ele>
  <time>2026-08-28T19:10:08Z</time>
  <course>57.93</course>
  <speed>1.1236102527122116</speed>
  <fix>3d</fix>
</trkpt>
<trkpt lat="40.0730179" lon="-105.2302226">
  <ele>1617.07</ele>
  <time>2026-08-28T19:10:08Z</time>
  <course>182.65</course>
  <speed>0.94</speed>
  <fix>3d</fix>
</trkpt>
<trkpt lat="40.0730136" lon="-105.2302231">
  <ele>1617.16</ele>
  <time>2026-08-28T19:10:08Z</time>
  <course>71.74</course>
  <speed>1.28191263352851</speed>
  <fix>3d</fix>
</trkpt>
<trkpt lat="40.0730161" lon="-105.2302228">
  <ele>1617.07</ele>
  <time>2026-08-28T19:10:08Z</time>
  <course>183.11</course>
  <speed>1.09</speed>
  <fix>3d</fix>
</trkpt>
<trkpt lat="40.0730112" lon="-105.2302231">
  <ele>1617.16</ele>
  <time>2026-08-28T19:10:08Z</time>
  <course>83.79</course>
  <speed>1.430034964607509</speed>
  <fix>3d</fix>
</trkpt>
<trkpt lat="40.073014" lon="-105.2302229">
  <ele>1617.07</ele>
  <time>2026-08-28T19:10:08Z</time>
  <course>182.57</course>
  <speed>1.24</speed>
  <fix>3d</fix>
</trkpt>
<trkpt lat="40.0730086" lon="-105.230223">
  <ele>1617.17</ele>
  <time>2026-08-28T19:10:08Z</time>
  <course>95.8</course>
  <speed>1.5715597347857955</speed>
  <fix>3d</fix>
</trkpt>
<trkpt lat="40.0730116" lon="-105.230223">
  <ele>1617.07</ele>
  <time>2026-08-28T19:10:08Z</time>
  <course>180.04</course>
  <speed>1.39</speed>
  <fix>3d</fix>
</trkpt>
<trkpt lat="40.0730057" lon="-105.2302227">
  <ele>1617.17</ele>
  <time>2026-08-28T19:10:08Z</time>
  <course>107.83</course>
  <speed>1.7095028517086481</speed>
  <fix>3d</fix>
</trkpt>
<trkpt lat="40.073009" lon="-105.2302229">
  <ele>1617.07</ele>
  <time>2026-08-28T19:10:08Z</time>
  <course>177.06</course>
  <speed>1.53</speed>
  <fix>3d</fix>
</trkpt>
<trkpt lat="40.0730025" lon="-105.2302222">
  <ele>1617.16</ele>
  <time>2026-08-28T19:10:08Z</time>
  <course>119.87</course>
  <speed>1.8725917868024522</speed>
  <fix>3d</fix>
</trkpt>
<trkpt lat="40.0730061" lon="-105.2302227">
  <ele>1617.06</ele>
  <time>2026-08-28T19:10:08Z</time>
  <course>173.98</course>
  <speed>1.67</speed>
  <fix>3d</fix>
</trkpt>
<trkpt lat="40.0729991" lon="-105.2302214">
  <ele>1617.16</ele>
  <time>2026-08-28T19:10:08Z</time>
  <course>131.97</course>
  <speed>2.0671236053995417</speed>
  <fix>3d</fix>
</trkpt>
<trkpt lat="40.073003" lon="-105.2302221">
  <ele>1617.06</ele>
  <time>2026-08-28T19:10:08Z</time>
  <course>171.27</course>
  <speed>1.83</speed>
  <fix>3d</fix>
</trkpt>
<trkpt lat="40.0729954" lon="-105.2302204">
  <ele>1617.16</ele>
  <time>2026-08-28T19:10:09Z</time>
  <course>144.06</course>
  <speed>2.2769497139814048</speed>
  <fix>3d</fix>
</trkpt>
<trkpt lat="40.0729995" lon="-105.2302214">
  <ele>1617.05</ele>
  <time>2026-08-28T19:10:09Z</time>
  <course>169.32</course>
  <speed>2.01</speed>
  <fix>3d</fix>
</trkpt>
<trkpt lat="40.0729913" lon="-105.2302192">
  <ele>1617.15</ele>
  <time>2026-08-28T19:10:09Z</time>
  <course>156.17</course>
  <speed>2.5004999500099974</speed>
  <fix>3d</fix>
</trkpt>
<trkpt lat="40.0729958" lon="-105.2302204">
  <ele>1617.05</ele>
  <time>2026-08-28T19:10:09Z</time>
  <course>168.36</course>
  <speed>2.21</speed>
  <fix>3d</fix>
</trkpt>
<trkpt lat="40.0729868" lon="-105.2302181">
  <ele>1617.15</ele>
  <time>2026-08-28T19:10:09Z</time>
  <course>168.15</course>
  <speed>2.722645772038662</speed>
  <fix>3d</fix>
</trkpt>
<trkpt lat="40.0729917" lon="-105.2302193">
  <ele>1617.04</ele>
  <time>2026-08-28T19:10:09Z</time>
  <course>168.43</course>
  <speed>2.42</speed>
  <fix>3d</fix>
</trkpt>
<trkpt lat="40.0729818" lon="-105.2302171">
  <ele>1617.14</ele>
  <time>2026-08-28T19:10:09Z</time>
  <course>171.58</course>
  <speed>2.9472699231661834</speed>
  <fix>3d</fix>
</trkpt>
<trkpt lat="40.0729873" lon="-105.2302182">
  <ele>1617.04</ele>
  <time>2026-08-28T19:10:09Z</time>
  <course>169.8</course>
  <speed>2.64</speed>
  <fix>3d</fix>
</trkpt>
<trkpt lat="40.0729766" lon="-105.2302162">
  <ele>1617.14</ele>
  <time>2026-08-28T19:10:09Z</time>
  <course>172.65</course>
  <speed>3.1384709652950433</speed>
  <fix>3d</fix>
</trkpt>
<trkpt lat="40.0729824" lon="-105.2302171">
  <ele>1617.04</ele>
  <time>2026-08-28T19:10:09Z</time>
  <course>171.79</course>
  <speed>2.86</speed>
  <fix>3d</fix>
</trkpt>
<trkpt lat="40.0729709" lon="-105.2302155">
  <ele>1617.14</ele>
  <time>2026-08-28T19:10:09Z</time>
  <course>173.96</course>
  <speed>3.301893396219811</speed>
  <fix>3d</fix>
</trkpt>
<trkpt lat="40.0729771" lon="-105.2302163">
  <ele>1617.04</ele>
  <time>2026-08-28T19:10:09Z</time>
  <course>173.47</course>
  <speed>3.06</speed>
  <fix>3d</fix>
</trkpt>
<trkpt lat="40.072965" lon="-105.2302149">
  <ele>1617.14</ele>
  <time>2026-08-28T19:10:09Z</time>
  <course>175.42</course>
  <speed>3.4557922391254947</speed>
  <fix>3d</fix>
</trkpt>
<trkpt lat="40.0729714" lon="-105.2302155">
  <ele>1617.04</ele>
  <time>2026-08-28T19:10:09Z</time>
  <course>174.97</course>
  <speed>3.23</speed>
  <fix>3d</fix>
</trkpt>
<trkpt lat="40.0729587" lon="-105.2302146">
  <ele>1617.14</ele>
  <time>2026-08-28T19:10:09Z</time>
  <course>176.93</course>
  <speed>3.6119939091864484</speed>
  <fix>3d</fix>
</trkpt>
<trkpt lat="40.0729655" lon="-105.2302149">
  <ele>1617.04</ele>
  <time>2026-08-28T19:10:09Z</time>
  <course>176.49</course>
  <speed>3.39</speed>
  <fix>3d</fix>
</trkpt>
<trkpt lat="40.0729522" lon="-105.2302144">
  <ele>1617.14</ele>
  <time>2026-08-28T19:10:09Z</time>
  <course>178.42</course>
  <speed>3.750119998080061</speed>
  <fix>3d</fix>
</trkpt>
<trkpt lat="40.0729593" lon="-105.2302145">
  <ele>1617.05</ele>
  <time>2026-08-28T19:10:09Z</time>
  <course>178.02</course>
  <speed>3.54</speed>
  <fix>3d</fix>
</trkpt>
<trkpt lat="40.0729454" lon="-105.2302144">
  <ele>1617.15</ele>
  <time>2026-08-28T19:10:09Z</time>
  <course>179.8</course>
  <speed>3.9003204996512784</speed>
  <fix>3d</fix>
</trkpt>
<trkpt lat="40.0729528" lon="-105.2302144">
  <ele>1617.05</ele>
  <time>2026-08-28T19:10:09Z</time>
  <course>179.5</course>
  <speed>3.69</speed>
  <fix>3d</fix>
</trkpt>
<trkpt lat="40.0729384" lon="-105.2302146">
  <ele>1617.15</ele>
  <time>2026-08-28T19:10:09Z</time>
  <course>181.04</course>
  <speed>4.052085882604168</speed>
  <fix>3d</fix>
</trkpt>
<trkpt lat="40.072946" lon="-105.2302144">
  <ele>1617.05</ele>
  <time>2026-08-28T19:10:09Z</time>
  <course>180.86</course>
  <speed>3.83</speed>
  <fix>3d</fix>
</trkpt>
<trkpt lat="40.0729311" lon="-105.230215">
  <ele>1617.15</ele>
  <time>2026-08-28T19:10:09Z</time>
  <course>182.05</course>
  <speed>4.2047592083257275</speed>
  <fix>3d</fix>
</trkpt>
<trkpt lat="40.072939" lon="-105.2302145">
  <ele>1617.06</ele>
  <time>2026-08-28T19:10:09Z</time>
  <course>182.03</course>
  <speed>3.99</speed>
  <fix>3d</fix>
</trkpt>
<trkpt lat="40.0729235" lon="-105.2302155">
  <ele>1617.15</ele>
  <time>2026-08-28T19:10:09Z</time>
  <course>182.81</course>
  <speed>4.367745413826222</speed>
  <fix>3d</fix>
</trkpt>
<trkpt lat="40.0729317" lon="-105.2302149">
  <ele>1617.06</ele>
  <time>2026-08-28T19:10:09Z</time>
  <course>182.99</course>
  <speed>4.14</speed>
  <fix>3d</fix>
</trkpt>
<trkpt lat="40.0729156" lon="-105.2302162">
  <ele>1617.15</ele>
  <time>2026-08-28T19:10:09Z</time>
  <course>183.33</course>
  <speed>4.530618059382185</speed>
  <fix>3d</fix>
</trkpt>
<trkpt lat="40.0729241" lon="-105.2302155">
  <ele>1617.05</ele>
  <time>2026-08-28T19:10:09Z</time>
  <course>183.71</course>
  <speed>4.3</speed>
  <fix>3d</fix>
</trkpt>
<trkpt lat="40.0729074" lon="-105.230217">
  <ele>1617.14</ele>
  <time>2026-08-28T19:10:09Z</time>
  <course>183.58</course>
  <speed>4.7122818251883025</speed>
  <fix>3d</fix>
</trkpt>
<trkpt lat="40.0729163" lon="-105.2302163">
  <ele>1617.05</ele>
  <time>2026-08-28T19:10:09Z</time>
  <course>184.2</course>
  <speed>4.47</speed>
  <fix>3d</fix>
</trkpt>
<trkpt lat="40.072899" lon="-105.2302179">
  <ele>1617.14</ele>
  <time>2026-08-28T19:10:09Z</time>
  <course>183.66</course>
  <speed>4.893260671576776</speed>
  <fix>3d</fix>
</trkpt>
<trkpt lat="40.0729081" lon="-105.2302171">
  <ele>1617.05</ele>
  <time>2026-08-28T19:10:09Z</time>
  <course>184.46</course>
  <speed>4.65</speed>
  <fix>3d</fix>
</trkpt>
<trkpt lat="40.0728901" lon="-105.2302187">
  <ele>1617.13</ele>
  <time>2026-08-28T19:10:09Z</time>
  <course>183.53</course>
  <speed>5.0927399305285554</speed>
  <fix>3d</fix>
</trkpt>
<trkpt lat="40.0728996" lon="-105.2302179">
  <ele>1617.05</ele>
  <time>2026-08-28T19:10:09Z</time>
  <course>184.52</course>
  <speed>4.84</speed>
  <fix>3d</fix>
</trkpt>
<trkpt lat="40.0728808" lon="-105.2302196">
  <ele>1617.13</ele>
  <time>2026-08-28T19:10:09Z</time>
  <course>183.21</course>
  <speed>5.311544031635245</speed>
  <fix>3d</fix>
</trkpt>
<trkpt lat="40.0728907" lon="-105.2302188">
  <ele>1617.04</ele>
  <time>2026-08-28T19:10:09Z</time>
  <course>184.39</course>
  <speed>5.04</speed>
  <fix>3d</fix>
</trkpt>
<trkpt lat="40.0728712" lon="-105.2302205">
  <ele>1617.13</ele>
  <time>2026-08-28T19:10:09Z</time>
  <course>182.73</course>
  <speed>5.529855332646597</speed>
  <fix>3d</fix>
</trkpt>
<trkpt lat="40.0728815" lon="-105.2302197">
  <ele>1617.04</ele>
  <time>2026-08-28T19:10:09Z</time>
  <course>184.1</course>
  <speed>5.25</speed>
  <fix>3d</fix>
</trkpt>
<trkpt lat="40.0728611" lon="-105.2302213">
  <ele>1617.12</ele>
  <time>2026-08-28T19:10:09Z</time>
  <course>182.17</course>
  <speed>5.767295726768309</speed>
  <fix>3d</fix>
</trkpt>
<trkpt lat="40.0728718" lon="-105.2302206">
  <ele>1617.03</ele>
  <time>2026-08-28T19:10:09Z</time>
  <course>183.69</course>
  <speed>5.47</speed>
  <fix>3d</fix>
</trkpt>
<trkpt lat="40.0728506" lon="-105.2302219">
  <ele>1617.12</ele>
  <time>2026-08-28T19:10:09Z</time>
  <course>181.48</course>
  <speed>6.005206074732157</speed>
  <fix>3d</fix>
</trkpt>
<trkpt lat="40.0728618" lon="-105.2302214">
  <ele>1617.03</ele>
  <time>2026-08-28T19:10:09Z</time>
  <course>183.18</course>
  <speed>5.71</speed>
  <fix>3d</fix>
</trkpt>
<trkpt lat="40.0728397" lon="-105.2302225">
  <ele>1617.11</ele>
  <time>2026-08-28T19:10:09Z</time>
  <course>180.77</course>
  <speed>6.2631940733143505</speed>
  <fix>3d</fix>
</trkpt>
<trkpt lat="40.0728514" lon="-105.2302221">
  <ele>1617.03</ele>
  <time>2026-08-28T19:10:09Z</time>
  <course>182.63</course>
  <speed>5.95</speed>
  <fix>3d</fix>
</trkpt>
<trkpt lat="40.0728283" lon="-105.230223">
  <ele>1617.11</ele>
  <time>2026-08-28T19:10:09Z</time>
  <course>179.91</course>
  <speed>6.521725231869249</speed>
  <fix>3d</fix>
</trkpt>
<trkpt lat="40.0728405" lon="-105.2302227">
  <ele>1617.02</ele>
  <time>2026-08-28T19:10:09Z</time>
  <course>182.05</course>
  <speed>6.21</speed>
  <fix>3d</fix>
</trkpt>
<trkpt lat="40.0728164" lon="-105.2302233">
  <ele>1617.11</ele>
  <time>2026-08-28T19:10:09Z</time>
  <course>179.2</course>
  <speed>6.730601756158211</speed>
  <fix>3d</fix>
</trkpt>
<trkpt lat="40.072829" lon="-105.2302232">
  <ele>1617.02</ele>
  <time>2026-08-28T19:10:09Z</time>
  <course>181.48</course>
  <speed>6.46</speed>
  <fix>3d</fix>
</trkpt>
<trkpt lat="40.0728044" lon="-105.2302235">
  <ele>1617.13</ele>
  <time>2026-08-28T19:10:09Z</time>
  <course>179.01</course>
  <speed>6.810007342139949</speed>
  <fix>3d</fix>
</trkpt>
<trkpt lat="40.0728172" lon="-105.2302234">
  <ele>1617.02</ele>
  <time>2026-08-28T19:10:09Z</time>
  <course>180.91</course>
  <speed>6.68</speed>
  <fix>3d</fix>
</trkpt>
<trkpt lat="40.0727924" lon="-105.2302235">
  <ele>1617.17</ele>
  <time>2026-08-28T19:10:09Z</time>
  <course>179.17</course>
  <speed>6.740118693316906</speed>
  <fix>3d</fix>
</trkpt>
<trkpt lat="40.0728051" lon="-105.2302236">
  <ele>1617.04</ele>
  <time>2026-08-28T19:10:09Z</time>
  <course>180.31</course>
  <speed>6.79</speed>
  <fix>3d</fix>
</trkpt>
<trkpt lat="40.0727805" lon="-105.2302234">
  <ele>1617.22</ele>
  <time>2026-08-28T19:10:09Z</time>
  <course>179.52</course>
  <speed>6.580372329891372</speed>
  <fix>3d</fix>
</trkpt>
<trkpt lat="40.0727929" lon="-105.2302237">
  <ele>1617.08</ele>
  <time>2026-08-28T19:10:09Z</time>
  <course>179.8</course>
  <speed>6.75</speed>
  <fix>3d</fix>
</trkpt>
<trkpt lat="40.0727688" lon="-105.2302232">
  <ele>1617.26</ele>
  <time>2026-08-28T19:10:09Z</time>
  <course>179.96</course>
  <speed>6.360385208460254</speed>
  <fix>3d</fix>
</trkpt>
<trkpt lat="40.0727809" lon="-105.2302236">
  <ele>1617.13</ele>
  <time>2026-08-28T19:10:09Z</time>
  <course>179.51</course>
  <speed>6.61</speed>
  <fix>3d</fix>
</trkpt>
<trkpt lat="40.0727576" lon="-105.2302232">
  <ele>1617.29</ele>
  <time>2026-08-28T19:10:09Z</time>
  <course>180.44</course>
  <speed>6.100295074830398</speed>
  <fix>3d</fix>
</trkpt>
<trkpt lat="40.0727692" lon="-105.2302235">
  <ele>1617.17</ele>
  <time>2026-08-28T19:10:09Z</time>
  <course>179.46</course>
  <speed>6.41</speed>
  <fix>3d</fix>
</trkpt>
<trkpt lat="40.0727468" lon="-105.2302231">
  <ele>1617.31</ele>
  <time>2026-08-28T19:10:09Z</time>
  <course>180.9</course>
  <speed>5.81013769200008</speed>
  <fix>3d</fix>
</trkpt>
<trkpt lat="40.0727579" lon="-105.2302234">
  <ele>1617.21</ele>
  <time>2026-08-28T19:10:09Z</time>
  <course>179.58</course>
  <speed>6.16</speed>
  <fix>3d</fix>
</trkpt>
<trkpt lat="40.0727366" lon="-105.2302231">
  <ele>1617.31</ele>
  <time>2026-08-28T19:10:09Z</time>
  <course>181.31</course>
  <speed>5.480036496228835</speed>
  <fix>3d</fix>
</trkpt>
<trkpt lat="40.0727471" lon="-105.2302233">
  <ele>1617.23</ele>
  <time>2026-08-28T19:10:09Z</time>
  <course>179.81</course>
  <speed>5.87</speed>
  <fix>3d</fix>
</trkpt>
<trkpt lat="40.072727" lon="-105.2302231">
  <ele>1617.31</ele>
  <time>2026-08-28T19:10:09Z</time>
  <course>181.65</course>
  <speed>5.12</speed>
  <fix>3d</fix>
</trkpt>
<trkpt lat="40.0727368" lon="-105.2302232">
  <ele>1617.24</ele>
  <time>2026-08-28T19:10:09Z</time>
  <course>180.08</course>
  <speed>5.54</speed>
  <fix>3d</fix>
</trkpt>
<trkpt lat="40.0727181" lon="-105.2302232">
  <ele>1617.3</ele>
  <time>2026-08-28T19:10:09Z</time>
  <course>181.92</course>
  <speed>4.730010570812712</speed>
  <fix>3d</fix>
</trkpt>
<trkpt lat="40.0727271" lon="-105.2302232">
  <ele>1617.24</ele>
  <time>2026-08-28T19:10:09Z</time>
  <course>180.38</course>
  <speed>5.18</speed>
  <fix>3d</fix>
</trkpt>
<trkpt lat="40.0727099" lon="-105.2302232">
  <ele>1617.28</ele>
  <time>2026-08-28T19:10:09Z</time>
  <course>182.12</course>
  <speed>4.330046189130088</speed>
  <fix>3d</fix>
</trkpt>
<trkpt lat="40.0727182" lon="-105.2302234">
  <ele>1617.23</ele>
  <time>2026-08-28T19:10:09Z</time>
  <course>180.69</course>
  <speed>4.8</speed>
  <fix>3d</fix>
</trkpt>
<trkpt lat="40.0727024" lon="-105.2302234">
  <ele>1617.25</ele>
  <time>2026-08-28T19:10:09Z</time>
  <course>182.3</course>
  <speed>3.9202040763205175</speed>
  <fix>3d</fix>
</trkpt>
<trkpt lat="40.0727099" lon="-105.2302235">
  <ele>1617.21</ele>
  <time>2026-08-28T19:10:09Z</time>
  <course>181.03</course>
  <speed>4.39</speed>
  <fix>3d</fix>
</trkpt>
<trkpt lat="40.0726957" lon="-105.2302236">
  <ele>1617.22</ele>
  <time>2026-08-28T19:10:09Z</time>
  <course>182.41</course>
  <speed>3.5203550957254297</speed>
  <fix>3d</fix>
</trkpt>
<trkpt lat="40.0727024" lon="-105.2302237">
  <ele>1617.19</ele>
  <time>2026-08-28T19:10:09Z</time>
  <course>181.38</course>
  <speed>3.99</speed>
  <fix>3d</fix>
</trkpt>
<trkpt lat="40.0726896" lon="-105.2302238">
  <ele>1617.2</ele>
  <time>2026-08-28T19:10:09Z</time>
  <course>182.48</course>
  <speed>3.130399335548102</speed>
  <fix>3d</fix>
</trkpt>
<trkpt lat="40.0726956" lon="-105.2302239">
  <ele>1617.17</ele>
  <time>2026-08-28T19:10:09Z</time>
  <course>181.73</course>
  <speed>3.58</speed>
  <fix>3d</fix>
</trkpt>
<trkpt lat="40.0726843" lon="-105.2302241">
  <ele>1617.18</ele>
  <time>2026-08-28T19:10:09Z</time>
  <course>182.48</course>
  <speed>2.750454507895013</speed>
  <fix>3d</fix>
</trkpt>
<trkpt lat="40.0726895" lon="-105.2302242">
  <ele>1617.15</ele>
  <time>2026-08-28T19:10:09Z</time>
  <course>182.05</course>
  <speed>3.18</speed>
  <fix>3d</fix>
</trkpt>
<trkpt lat="40.0726796" lon="-105.2302243">
  <ele>1617.16</ele>
  <time>2026-08-28T19:10:09Z</time>
  <course>182.4</course>
  <speed>2.390334704596827</speed>
  <fix>3d</fix>
</trkpt>
<trkpt lat="40.0726842" lon="-105.2302245">
  <ele>1617.13</ele>
  <time>2026-08-28T19:10:09Z</time>
  <course>182.3</course>
  <speed>2.79</speed>
  <fix>3d</fix>
</trkpt>
<trkpt lat="40.0726755" lon="-105.2302246">
  <ele>1617.14</ele>
  <time>2026-08-28T19:10:09Z</time>
  <course>182.21</course>
  <speed>2.060218435020908</speed>
  <fix>3d</fix>
</trkpt>
<trkpt lat="40.0726794" lon="-105.2302248">
  <ele>1617.11</ele>
  <time>2026-08-28T19:10:09Z</time>
  <course>182.44</course>
  <speed>2.43</speed>
  <fix>3d</fix>
</trkpt>
<trkpt lat="40.072672" lon="-105.2302247">
  <ele>1617.14</ele>
  <time>2026-08-28T19:10:09Z</time>
  <course>181.84</course>
  <speed>1.7501142819827509</speed>
  <fix>3d</fix>
</trkpt>
<trkpt lat="40.0726753" lon="-105.2302249">
  <ele>1617.1</ele>
  <time>2026-08-28T19:10:09Z</time>
  <course>182.42</course>
  <speed>2.09</speed>
  <fix>3d</fix>
</trkpt>
<trkpt lat="40.0726691" lon="-105.2302249">
  <ele>1617.13</ele>
  <time>2026-08-28T19:10:09Z</time>
  <course>181.23</course>
  <speed>1.46</speed>
  <fix>3d</fix>
</trkpt>
<trkpt lat="40.0726719" lon="-105.2302252">
  <ele>1617.09</ele>
  <time>2026-08-28T19:10:09Z</time>
  <course>182.19</course>
  <speed>1.77</speed>
  <fix>3d</fix>
</trkpt>
<trkpt lat="40.0726667" lon="-105.230225">
  <ele>1617.12</ele>
  <time>2026-08-28T19:10:09Z</time>
  <course>180.3</course>
  <speed>1.2001666550941998</speed>
  <fix>3d</fix>
</trkpt>
<trkpt lat="40.072669" lon="-105.2302253">
  <ele>1617.08</ele>
  <time>2026-08-28T19:10:09Z</time>
  <course>181.66</course>
  <speed>1.48</speed>
  <fix>3d</fix>
</trkpt>
<trkpt lat="40.0726647" lon="-105.2302251">
  <ele>1617.12</ele>
  <time>2026-08-28T19:10:09Z</time>
  <course>178.94</course>
  <speed>0.9608329719571451</speed>
  <fix>3d</fix>
</trkpt>
<trkpt lat="40.0726666" lon="-105.2302254">
  <ele>1617.08</ele>
  <time>2026-08-28T19:10:09Z</time>
  <course>180.74</course>
  <speed>1.21</speed>
  <fix>3d</fix>
</trkpt>
<trkpt lat="40.0726632" lon="-105.2302251">
  <ele>1617.11</ele>
  <time>2026-08-28T19:10:09Z</time>
  <course>178.11</course>
  <speed>0.7433034373659253</speed>
  <fix>3d</fix>
</trkpt>
<trkpt lat="40.0726646" lon="-105.2302254">
  <ele>1617.08</ele>
  <time>2026-08-28T19:10:09Z</time>
  <course>179.24</course>
  <speed>0.96</speed>
  <fix>3d</fix>
</trkpt>
<trkpt lat="40.072662" lon="-105.230225">
  <ele>1617.11</ele>
  <time>2026-08-28T19:10:09Z</time>
  <course>178.27</course>
  <speed>0.5474486277268398</speed>
  <fix>3d</fix>
</trkpt>
<trkpt lat="40.0726631" lon="-105.2302253">
  <ele>1617.08</ele>
  <time>2026-08-28T19:10:09Z</time>
  <course>176.51</course>
  <speed>0.74</speed>
  <fix>3d</fix>
</trkpt>
<trkpt lat="40.0726612" lon="-105.2302248">
  <ele>1617.12</ele>
  <time>2026-08-28T19:10:09Z</time>
  <course>178.21</course>
  <speed>0.3736308338453881</speed>
  <fix>3d</fix>
</trkpt>
<trkpt lat="40.0726619" lon="-105.2302252">
  <ele>1617.08</ele>
  <time>2026-08-28T19:10:09Z</time>
  <course>172.22</course>
  <speed>0.54</speed>
  <fix>3d</fix>
</trkpt>
<trkpt lat="40.0726607" lon="-105.2302246">
  <ele>1617.13</ele>
  <time>2026-08-28T19:10:09Z</time>
  <course>178.22</course>
  <speed>0.2195449840010015</speed>
  <fix>3d</fix>
</trkpt>
<trkpt lat="40.0726612" lon="-105.230225">
  <ele>1617.09</ele>
  <time>2026-08-28T19:10:09Z</time>
  <course>165.24</course>
  <speed>0.36</speed>
  <fix>3d</fix>
</trkpt>
<trkpt lat="40.0726605" lon="-105.2302244">
  <ele>1617.15</ele>
  <time>2026-08-28T19:10:09Z</time>
  <course>178.22</course>
  <speed>0.12369316876852982</speed>
  <fix>3d</fix>
</trkpt>
<trkpt lat="40.0726607" lon="-105.2302248">
  <ele>1617.1</ele>
  <time>2026-08-28T19:10:09Z</time>
  <course>149.3</course>
  <speed>0.21</speed>
  <fix>3d</fix>
</trkpt>
<trkpt lat="40.0726606" lon="-105.2302241">
  <ele>1617.16</ele>
  <time>2026-08-28T19:10:09Z</time>
  <course>178.21</course>
  <speed>0.17029386365926402</speed>
  <fix>3d</fix>
</trkpt>
<trkpt lat="40.0726605" lon="-105.2302245">
  <ele>1617.1</ele>
  <time>2026-08-28T19:10:09Z</time>
  <course>103.35</course>
  <speed>0.12</speed>
  <fix>3d</fix>
</trkpt>
<trkpt lat="40.0726609" lon="-105.2302238">
  <ele>1617.16</ele>
  <time>2026-08-28T19:10:09Z</time>
  <course>178.09</course>
  <speed>0.2863564212655271</speed>
  <fix>3d</fix>
</trkpt>
<trkpt lat="40.0726606" lon="-105.2302242">
  <ele>1617.11</ele>
  <time>2026-08-28T19:10:09Z</time>
  <course>48.29</course>
  <speed>0.18</speed>
  <fix>3d</fix>
</trkpt>
<trkpt lat="40.0726615" lon="-105.2302235">
  <ele>1617.17</ele>
  <time>2026-08-28T19:10:09Z</time>
  <course>178.52</course>
  <speed>0.45880278987817846</speed>
  <fix>3d</fix>
</trkpt>
<trkpt lat="40.0726609" lon="-105.2302239">
  <ele>1617.12</ele>
  <time>2026-08-28T19:10:09Z</time>
  <course>27.73</course>
  <speed>0.3</speed>
  <fix>3d</fix>
</trkpt>
<trkpt lat="40.0726625" lon="-105.2302232">
  <ele>1617.17</ele>
  <time>2026-08-28T19:10:09Z</time>
  <course>178.29</course>
  <speed>0.5922837157984339</speed>
  <fix>3d</fix>
</trkpt>
<trkpt lat="40.0726614" lon="-105.2302235">
  <ele>1617.12</ele>
  <time>2026-08-28T19:10:09Z</time>
  <course>18.67</course>
  <speed>0.46</speed>
  <fix>3d</fix>
</trkpt>
<trkpt lat="40.0726636" lon="-105.2302229">
  <ele>1617.18</ele>
  <time>2026-08-28T19:10:09Z</time>
  <course>178.19</course>
  <speed>0.646297145282261</speed>
  <fix>3d</fix>
</trkpt>
<trkpt lat="40.0726624" lon="-105.2302232">
  <ele>1617.12</ele>
  <time>2026-08-28T19:10:09Z</time>
  <course>13.81</course>
  <speed>0.6</speed>
  <fix>3d</fix>
</trkpt>
<trkpt lat="40.0726647" lon="-105.2302227">
  <ele>1617.18</ele>
  <time>2026-08-28T19:10:09Z</time>
  <course>178.13</course>
  <speed>0.6220128616033594</speed>
  <fix>3d</fix>
</trkpt>
<trkpt lat="40.0726635" lon="-105.2302229">
  <ele>1617.12</ele>
  <time>2026-08-28T19:10:09Z</time>
  <course>10.49</course>
  <speed>0.66</speed>
  <fix>3d</fix>
</trkpt>
<trkpt lat="40.0726658" lon="-105.2302226">
  <ele>1617.19</ele>
  <time>2026-08-28T19:10:09Z</time>
  <course>178.11</course>
  <speed>0.5608029957123981</speed>
  <fix>3d</fix>
</trkpt>
<trkpt lat="40.0726647" lon="-105.2302226">
  <ele>1617.12</ele>
  <time>2026-08-28T19:10:09Z</time>
  <course>8.04</course>
  <speed>0.65</speed>
  <fix>3d</fix>
</trkpt>
<trkpt lat="40.0726667" lon="-105.2302224">
  <ele>1617.19</ele>
  <time>2026-08-28T19:10:09Z</time>
  <course>178.12</course>
  <speed>0.48041648597857256</speed>
  <fix>3d</fix>
</trkpt>
<trkpt lat="40.0726658" lon="-105.2302225">
  <ele>1617.12</ele>
  <time>2026-08-28T19:10:09Z</time>
  <course>6.8</course>
  <speed>0.59</speed>
  <fix>3d</fix>
</trkpt>
<trkpt lat="40.0726676" lon="-105.2302223">
  <ele>1617.19</ele>
  <time>2026-08-28T19:10:09Z</time>
  <course>178.1</course>
  <speed>0.4004996878900158</speed>
  <fix>3d</fix>
</trkpt>
<trkpt lat="40.0726668" lon="-105.2302223">
  <ele>1617.12</ele>
  <time>2026-08-28T19:10:09Z</time>
  <course>6.98</course>
  <speed>0.52</speed>
  <fix>3d</fix>
</trkpt>
<trkpt lat="40.0726682" lon="-105.2302222">
  <ele>1617.19</ele>
  <time>2026-08-28T19:10:09Z</time>
  <course>178.09</course>
  <speed>0.30066592756745814</speed>
  <fix>3d</fix>
</trkpt>
<trkpt lat="40.0726676" lon="-105.2302221">
  <ele>1617.12</ele>
  <time>2026-08-28T19:10:09Z</time>
  <course>8.51</course>
  <speed>0.42</speed>
  <fix>3d</fix>
</trkpt>
<trkpt lat="40.0726687" lon="-105.2302221">
  <ele>1617.18</ele>
  <time>2026-08-28T19:10:09Z</time>
  <course>178.05</course>
  <speed>0.2009975124224178</speed>
  <fix>3d</fix>
</trkpt>
<trkpt lat="40.0726683" lon="-105.230222">
  <ele>1617.11</ele>
  <time>2026-08-28T19:10:09Z</time>
  <course>11.42</course>
  <speed>0.33</speed>
  <fix>3d</fix>
</trkpt>
<trkpt lat="40.072669" lon="-105.230222">
  <ele>1617.17</ele>
  <time>2026-08-28T19:10:09Z</time>
  <course>178.01</course>
  <speed>0.09055385138137417</speed>
  <fix>3d</fix>
</trkpt>
<trkpt lat="40.0726688" lon="-105.2302219">
  <ele>1617.11</ele>
  <time>2026-08-28T19:10:09Z</time>
  <course>16.8</course>
  <speed>0.22</speed>
  <fix>3d</fix>
</trkpt>
<trkpt lat="40.0726691" lon="-105.2302219">
  <ele>1617.17</ele>
  <time>2026-08-28T19:10:09Z</time>
  <course>177.96</course>
  <speed>0.01</speed>
  <fix>3d</fix>
</trkpt>
<trkpt lat="40.0726691" lon="-105.2302217">
  <ele>1617.1</ele>
  <time>2026-08-28T19:10:09Z</time>
  <course>30.43</course>
  <speed>0.12</speed>
  <fix>3d</fix>
</trkpt>
<trkpt lat="40.072669" lon="-105.2302217">
  <ele>1617.17</ele>
  <time>2026-08-28T19:10:09Z</time>
  <course>177.95</course>
  <speed>0.1</speed>
  <fix>3d</fix>
</trkpt>
<trkpt lat="40.0726692" lon="-105.2302215">
  <ele>1617.1</ele>
  <time>2026-08-28T19:10:09Z</time>
  <course>89.57</course>
  <speed>0.06</speed>
  <fix>3d</fix>
</trkpt>
<trkpt lat="40.0726688" lon="-105.2302216">
  <ele>1617.16</ele>
  <time>2026-08-28T19:10:09Z</time>
  <course>177.94</course>
  <speed>0.19</speed>
  <fix>3d</fix>
</trkpt>
<trkpt lat="40.0726691" lon="-105.2302214">
  <ele>1617.09</ele>
  <time>2026-08-28T19:10:09Z</time>
  <course>150.88</course>
  <speed>0.11</speed>
  <fix>3d</fix>
</trkpt>
<trkpt lat="40.0726684" lon="-105.2302215">
  <ele>1617.17</ele>
  <time>2026-08-28T19:10:09Z</time>
  <course>177.93</course>
  <speed>0.26</speed>
  <fix>3d</fix>
</trkpt>
<trkpt lat="40.0726689" lon="-105.2302213">
  <ele>1617.09</ele>
  <time>2026-08-28T19:10:09Z</time>
  <course>165.07</course>
  <speed>0.2</speed>
  <fix>3d</fix>
</trkpt>
<trkpt lat="40.0726679" lon="-105.2302215">
  <ele>1617.17</ele>
  <time>2026-08-28T19:10:09Z</time>
  <course>177.93</course>
  <speed>0.32015621187164245</speed>
  <fix>3d</fix>
</trkpt>
<trkpt lat="40.0726685" lon="-105.2302212">
  <ele>1617.09</ele>
  <time>2026-08-28T19:10:09Z</time>
  <course>170.5</course>
  <speed>0.27</speed>
  <fix>3d</fix>
</trkpt>
<trkpt lat="40.0726673" lon="-105.2302214">
  <ele>1617.17</ele>
  <time>2026-08-28T19:10:09Z</time>
  <course>177.95</course>
  <speed>0.3605551275463989</speed>
  <fix>3d</fix>
</trkpt>
<trkpt lat="40.0726679" lon="-105.2302211">
  <ele>1617.09</ele>
  <time>2026-08-28T19:10:09Z</time>
  <course>173.5</course>
  <speed>0.34</speed>
  <fix>3d</fix>
</trkpt>
<trkpt lat="40.0726666" lon="-105.2302213">
  <ele>1617.17</ele>
  <time>2026-08-28T19:10:09Z</time>
  <course>177.96</course>
  <speed>0.3905124837953327</speed>
  <fix>3d</fix>
</trkpt>
<trkpt lat="40.0726673" lon="-105.230221">
  <ele>1617.09</ele>
  <time>2026-08-28T19:10:09Z</time>
  <course>175.65</course>
  <speed>0.39</speed>
  <fix>3d</fix>
</trkpt>
<trkpt lat="40.0726658" lon="-105.2302212">
  <ele>1617.17</ele>
  <time>2026-08-28T19:10:09Z</time>
  <course>177.98</course>
  <speed>0.4011234224026316</speed>
  <fix>3d</fix>
</trkpt>
<trkpt lat="40.0726666" lon="-105.230221">
  <ele>1617.08</ele>
  <time>2026-08-28T19:10:09Z</time>
  <course>177.4</course>
  <speed>0.42</speed>
  <fix>3d</fix>
</trkpt>
<trkpt lat="40.0726651" lon="-105.2302212">
  <ele>1617.17</ele>
  <time>2026-08-28T19:10:09Z</time>
  <course>178.0</course>
  <speed>0.4019950248448356</speed>
  <fix>3d</fix>
</trkpt>
<trkpt lat="40.0726657" lon="-105.2302209">
  <ele>1617.08</ele>
  <time>2026-08-28T19:10:09Z</time>
  <course>178.96</course>
  <speed>0.44</speed>
  <fix>3d</fix>
</trkpt>
<trkpt lat="40.0726643" lon="-105.2302212">
  <ele>1617.17</ele>
  <time>2026-08-28T19:10:09Z</time>
  <course>178.01</course>
  <speed>0.39319206502675</speed>
  <fix>3d</fix>
</trkpt>
<trkpt lat="40.072665" lon="-105.2302208">
  <ele>1617.08</ele>
  <time>2026-08-28T19:10:09Z</time>
  <course>180.48</course>
  <speed>0.44</speed>
  <fix>3d</fix>
</trkpt>
<trkpt lat="40.0726636" lon="-105.2302213">
  <ele>1617.17</ele>
  <time>2026-08-28T19:10:09Z</time>
  <course>178.01</course>
  <speed>0.3649657518178932</speed>
  <fix>3d</fix>
</trkpt>
<trkpt lat="40.0726642" lon="-105.2302208">
  <ele>1617.08</ele>
  <time>2026-08-28T19:10:09Z</time>
  <course>182.06</course>
  <speed>0.43</speed>
  <fix>3d</fix>
</trkpt>
<trkpt lat="40.0726629" lon="-105.2302213">
  <ele>1617.17</ele>
  <time>2026-08-28T19:10:09Z</time>
  <course>178.03</course>
  <speed>0.327566787083184</speed>
  <fix>3d</fix>
</trkpt>
<trkpt lat="40.0726634" lon="-105.2302208">
  <ele>1617.08</ele>
  <time>2026-08-28T19:10:09Z</time>
  <course>183.82</course>
  <speed>0.41</speed>
  <fix>3d</fix>
</trkpt>
<trkpt lat="40.0726623" lon="-105.2302214">
  <ele>1617.17</ele>
  <time>2026-08-28T19:10:09Z</time>
  <course>178.04</course>
  <speed>0.28861739379323625</speed>
  <fix>3d</fix>
</trkpt>
<trkpt lat="40.0726627" lon="-105.2302209">
  <ele>1617.08</ele>
  <time>2026-08-28T19:10:09Z</time>
  <course>185.91</course>
  <speed>0.38</speed>
  <fix>3d</fix>
</trkpt>
<trkpt lat="40.0726617" lon="-105.2302215">
  <ele>1617.17</ele>
  <time>2026-08-28T19:10:09Z</time>
  <course>178.04</course>
  <speed>0.24351591323771843</speed>
  <fix>3d</fix>
</trkpt>
<trkpt lat="40.0726621" lon="-105.2302211">
  <ele>1617.07</ele>
  <time>2026-08-28T19:10:09Z</time>
  <course>188.44</course>
  <speed>0.33</speed>
  <fix>3d</fix>
</trkpt>
<trkpt lat="40.0726613" lon="-105.2302216">
  <ele>1617.17</ele>
  <time>2026-08-28T19:10:09Z</time>
  <course>178.06</course>
  <speed>0.20124611797498107</speed>
  <fix>3d</fix>
</trkpt>
<trkpt lat="40.0726615" lon="-105.2302212">
  <ele>1617.07</ele>
  <time>2026-08-28T19:10:09Z</time>
  <course>191.63</course>
  <speed>0.29</speed>
  <fix>3d</fix>
</trkpt>
<trkpt lat="40.0726609" lon="-105.2302218">
  <ele>1617.17</ele>
  <time>2026-08-28T19:10:09Z</time>
  <course>178.05</course>
  <speed>0.15811388300841897</speed>
  <fix>3d</fix>
</trkpt>
<trkpt lat="40.0726611" lon="-105.2302214">
  <ele>1617.07</ele>
  <time>2026-08-28T19:10:09Z</time>
  <course>196.02</course>
  <speed>0.24</speed>
  <fix>3d</fix>
</trkpt>
<trkpt lat="40.0726607" lon="-105.2302219">
  <ele>1617.17</ele>
  <time>2026-08-28T19:10:09Z</time>
  <course>178.04</course>
  <speed>0.11401754250991379</speed>
  <fix>3d</fix>
</trkpt>
<trkpt lat="40.0726607" lon="-105.2302215">
  <ele>1617.07</ele>
  <time>2026-08-28T19:10:09Z</time>
  <course>202.19</course>
  <speed>0.19</speed>
  <fix>3d</fix>
</trkpt>
<trkpt lat="40.0726605" lon="-105.2302221">
  <ele>1617.17</ele>
  <time>2026-08-28T19:10:09Z</time>
  <course>178.04</course>
  <speed>0.09219544457292887</speed>
  <fix>3d</fix>
</trkpt>
<trkpt lat="40.0726604" lon="-105.2302216">
  <ele>1617.07</ele>
  <time>2026-08-28T19:10:09Z</time>
  <course>211.48</course>
  <speed>0.14</speed>
  <fix>3d</fix>
</trkpt>
<trkpt lat="40.0726604" lon="-105.2302222">
  <ele>1617.17</ele>
  <time>2026-08-28T19:10:09Z</time>
  <course>178.02</course>
  <speed>0.09055385138137417</speed>
  <fix>3d</fix>
</trkpt>
<trkpt lat="40.0726602" lon="-105.2302219">
  <ele>1617.06</ele>
  <time>2026-08-28T19:10:09Z</time>
  <course>226.92</course>
  <speed>0.1</speed>
  <fix>3d</fix>
</trkpt>
<trkpt lat="40.0726604" lon="-105.2302224">
  <ele>1617.17</ele>
  <time>2026-08-28T19:10:09Z</time>
  <course>178.01</course>
  <speed>0.10816653826391968</speed>
  <fix>3d</fix>
</trkpt>
<trkpt lat="40.0726601" lon="-105.230222">
  <ele>1617.06</ele>
  <time>2026-08-28T19:10:09Z</time>
  <course>252.09</course>
  <speed>0.08</speed>
  <fix>3d</fix>
</trkpt>
<trkpt lat="40.0726605" lon="-105.2302226">
  <ele>1617.17</ele>
  <time>2026-08-28T19:10:09Z</time>
  <course>178.01</course>
  <speed>0.12041594578792296</speed>
  <fix>3d</fix>
</trkpt>
<trkpt lat="40.0726601" lon="-105.2302223">
  <ele>1617.06</ele>
  <time>2026-08-28T19:10:09Z</time>
  <course>283.1</course>
  <speed>0.07</speed>
  <fix>3d</fix>
</trkpt>
<trkpt lat="40.0726606" lon="-105.2302227">
  <ele>1617.16</ele>
  <time>2026-08-28T19:10:09Z</time>
  <course>178.0</course>
  <speed>0.13892443989449804</speed>
  <fix>3d</fix>
</trkpt>
<trkpt lat="40.0726601" lon="-105.2302224">
  <ele>1617.06</ele>
  <time>2026-08-28T19:10:09Z</time>
  <course>307.51</course>
  <speed>0.09</speed>
  <fix>3d</fix>
</trkpt>
<trkpt lat="40.0726607" lon="-105.2302228">
  <ele>1617.16</ele>
  <time>2026-08-28T19:10:09Z</time>
  <course>177.98</course>
  <speed>0.15231546211727817</speed>
  <fix>3d</fix>
</trkpt>
<trkpt lat="40.0726602" lon="-105.2302225">
  <ele>1617.06</ele>
  <time>2026-08-28T19:10:09Z</time>
  <course>322.91</course>
  <speed>0.11</speed>
  <fix>3d</fix>
</trkpt>
<trkpt lat="40.0726609" lon="-105.230223">
  <ele>1617.16</ele>
  <time>2026-08-28T19:10:10Z</time>
  <course>177.97</course>
  <speed>0.1708800749063506</speed>
  <fix>3d</fix>
</trkpt>
<trkpt lat="40.0726603" lon="-105.2302227">
  <ele>1617.06</ele>
  <time>2026-08-28T19:10:10Z</time>
  <course>332.52</course>
  <speed>0.12</speed>
  <fix>3d</fix>
</trkpt>
<trkpt lat="40.0726611" lon="-105.2302231">
  <ele>1617.16</ele>
  <time>2026-08-28T19:10:10Z</time>
  <course>177.97</course>
  <speed>0.1772004514666935</speed>
  <fix>3d</fix>
</trkpt>
<trkpt lat="40.0726606" lon="-105.2302229">
  <ele>1617.05</ele>
  <time>2026-08-28T19:10:10Z</time>
  <course>339.05</course>
  <speed>0.14</speed>
  <fix>3d</fix>
</trkpt>
<trkpt lat="40.0726614" lon="-105.2302231">
  <ele>1617.16</ele>
  <time>2026-08-28T19:10:10Z</time>
  <course>177.96</course>
  <speed>0.17464249196572978</speed>
  <fix>3d</fix>
</trkpt>
<trkpt lat="40.0726609" lon="-105.230223">
  <ele>1617.05</ele>
  <time>2026-08-28T19:10:10Z</time>
  <course>344.04</course>
  <speed>0.15</speed>
  <fix>3d</fix>
</trkpt>
<trkpt lat="40.0726616" lon="-105.2302232">
  <ele>1617.16</ele>
  <time>2026-08-28T19:10:10Z</time>
  <course>177.94</course>
  <speed>0.17262676501632068</speed>
  <fix>3d</fix>
</trkpt>
<trkpt lat="40.0726611" lon="-105.230223">
  <ele>1617.05</ele>
  <time>2026-08-28T19:10:10Z</time>
  <course>348.16</course>
  <speed>0.15</speed>
  <fix>3d</fix>
</trkpt>
<trkpt lat="40.0726619" lon="-105.2302232">
  <ele>1617.16</ele>
  <time>2026-08-28T19:10:10Z</time>
  <course>177.94</course>
  <speed>0.16124515496597097</speed>
  <fix>3d</fix>
</trkpt>
<trkpt lat="40.0726614" lon="-105.2302231">
  <ele>1617.06</ele>
  <time>2026-08-28T19:10:10Z</time>
  <course>351.81</course>
  <speed>0.15</speed>
  <fix>3d</fix>
</trkpt>
<trkpt lat="40.0726621" lon="-105.2302232">
  <ele>1617.16</ele>
  <time>2026-08-28T19:10:10Z</time>
  <course>177.94</course>
  <speed>0.15033296378372907</speed>
  <fix>3d</fix>
</trkpt>
<trkpt lat="40.0726617" lon="-105.2302232">
  <ele>1617.06</ele>
  <time>2026-08-28T19:10:10Z</time>
  <course>355.36</course>
  <speed>0.14</speed>
  <fix>3d</fix>
</trkpt>
<trkpt lat="40.0726623" lon="-105.2302232">
  <ele>1617.16</ele>
  <time>2026-08-28T19:10:10Z</time>
  <course>177.93</course>
  <speed>0.14</speed>
  <fix>3d</fix>
</trkpt>
<trkpt lat="40.0726619" lon="-105.2302232">
  <ele>1617.06</ele>
  <time>2026-08-28T19:10:10Z</time>
  <course>359.07</course>
  <speed>0.13</speed>
  <fix>3d</fix>
</trkpt>
<trkpt lat="40.0726625" lon="-105.2302232">
  <ele>1617.16</ele>
  <time>2026-08-28T19:10:10Z</time>
  <course>177.92</course>
  <speed>0.12</speed>
  <fix>3d</fix>
</trkpt>
<trkpt lat="40.0726621" lon="-105.2302232">
  <ele>1617.06</ele>
  <time>2026-08-28T19:10:10Z</time>
  <course>3.24</course>
  <speed>0.12</speed>
  <fix>3d</fix>
</trkpt>
<trkpt lat="40.0726627" lon="-105.2302232">
  <ele>1617.16</ele>
  <time>2026-08-28T19:10:10Z</time>
  <course>177.91</course>
  <speed>0.1</speed>
  <fix>3d</fix>
</trkpt>
<trkpt lat="40.0726624" lon="-105.2302232">
  <ele>1617.06</ele>
  <time>2026-08-28T19:10:10Z</time>
  <course>8.13</course>
  <speed>0.1</speed>
  <fix>3d</fix>
</trkpt>
<trkpt lat="40.0726628" lon="-105.2302232">
  <ele>1617.16</ele>
  <time>2026-08-28T19:10:10Z</time>
  <course>177.91</course>
  <speed>0.08062257748298549</speed>
  <fix>3d</fix>
</trkpt>
<trkpt lat="40.0726626" lon="-105.2302232">
  <ele>1617.06</ele>
  <time>2026-08-28T19:10:10Z</time>
  <course>14.34</course>
  <speed>0.09</speed>
  <fix>3d</fix>
</trkpt>
<trkpt lat="40.0726629" lon="-105.2302232">
  <ele>1617.16</ele>
  <time>2026-08-28T19:10:10Z</time>
  <course>177.92</course>
  <speed>0.06082762530298219</speed>
  <fix>3d</fix>
</trkpt>
<trkpt lat="40.0726627" lon="-105.2302231">
  <ele>1617.06</ele>
  <time>2026-08-28T19:10:10Z</time>
  <course>22.72</course>
  <speed>0.07</speed>
  <fix>3d</fix>
</trkpt>
<trkpt lat="40.072663" lon="-105.2302231">
  <ele>1617.17</ele>
  <time>2026-08-28T19:10:10Z</time>
  <course>177.91</course>
  <speed>0.0412310562561766</speed>
  <fix>3d</fix>
</trkpt>
<trkpt lat="40.0726628" lon="-105.230223">
  <ele>1617.06</ele>
  <time>2026-08-28T19:10:10Z</time>
  <course>34.94</course>
  <speed>0.05</speed>
  <fix>3d</fix>
</trkpt>
<trkpt lat="40.072663" lon="-105.230223">
  <ele>1617.17</ele>
  <time>2026-08-28T19:10:10Z</time>
  <course>177.92</course>
  <speed>0.0282842712474619</speed>
  <fix>3d</fix>
</trkpt>
<trkpt lat="40.0726629" lon="-105.230223">
  <ele>1617.07</ele>
  <time>2026-08-28T19:10:10Z</time>
  <course>54.51</course>
  <speed>0.04</speed>
  <fix>3d</fix>
</trkpt>
<trkpt lat="40.072663" lon="-105.2302229">
  <ele>1617.17</ele>
  <time>2026-08-28T19:10:10Z</time>
  <course>177.97</course>
  <speed>0.01414213562373095</speed>
  <fix>3d</fix>
</trkpt>
<trkpt lat="40.0726629" lon="-105.2302229">
  <ele>1617.07</ele>
  <time>2026-08-28T19:10:10Z</time>
  <course>80.77</course>
  <speed>0.03</speed>
  <fix>3d</fix>
</trkpt>
<trkpt lat="40.072663" lon="-105.2302229">
  <ele>1617.16</ele>
  <time>2026-08-28T19:10:10Z</time>
  <course>177.99</course>
  <speed>0.01</speed>
  <fix>3d</fix>
</trkpt>
<trkpt lat="40.0726629" lon="-105.2302228">
  <ele>1617.06</ele>
  <time>2026-08-28T19:10:10Z</time>
  <course>102.68</course>
  <speed>0.03</speed>
  <fix>3d</fix>
</trkpt>
<trkpt lat="40.072663" lon="-105.2302228">
  <ele>1617.16</ele>
  <time>2026-08-28T19:10:10Z</time>
  <course>177.96</course>
  <speed>0.01</speed>
  <fix>3d</fix>
</trkpt>
<trkpt lat="40.0726629" lon="-105.2302227">
  <ele>1617.06</ele>
  <time>2026-08-28T19:10:10Z</time>
  <course>116.51</course>
  <speed>0.03</speed>
  <fix>3d</fix>
</trkpt>
<trkpt lat="40.072663" lon="-105.2302227">
  <ele>1617.16</ele>
  <time>2026-08-28T19:10:10Z</time>
  <course>177.94</course>
  <speed>0.0</speed>
  <fix>3d</fix>
</trkpt>
<trkpt lat="40.0726629" lon="-105.2302227">
  <ele>1617.05</ele>
  <time>2026-08-28T19:10:10Z</time>
  <course>127.13</course>
  <speed>0.03</speed>
  <fix>3d</fix>
</trkpt>
<trkpt lat="40.072663" lon="-105.2302227">
  <ele>1617.15</ele>
  <time>2026-08-28T19:10:10Z</time>
  <course>178.05</course>
  <speed>0.0</speed>
  <fix>3d</fix>
</trkpt>
<trkpt lat="40.0726629" lon="-105.2302226">
  <ele>1617.05</ele>
  <time>2026-08-28T19:10:10Z</time>
  <course>137.26</course>
  <speed>0.03</speed>
  <fix>3d</fix>
</trkpt>
<trkpt lat="40.0726629" lon="-105.2302227">
  <ele>1617.15</ele>
  <time>2026-08-28T19:10:10Z</time>
  <course>178.06</course>
  <speed>0.022360679774997897</speed>
  <fix>3d</fix>
</trkpt>
<trkpt lat="40.0726629" lon="-105.2302225">
  <ele>1617.04</ele>
  <time>2026-08-28T19:10:10Z</time>
  <course>149.95</course>
  <speed>0.02</speed>
  <fix>3d</fix>
</trkpt>
<trkpt lat="40.0726629" lon="-105.2302227">
  <ele>1617.15</ele>
  <time>2026-08-28T19:10:10Z</time>
  <course>178.11</course>
  <speed>0.07211102550927978</speed>
  <fix>3d</fix>
</trkpt>
<trkpt lat="40.0726628" lon="-105.2302225">
  <ele>1617.04</ele>
  <time>2026-08-28T19:10:10Z</time>
  <course>207.98</course>
  <speed>0.01</speed>
  <fix>3d</fix>
</trkpt>
<trkpt lat="40.072663" lon="-105.2302228">
  <ele>1617.15</ele>
  <time>2026-08-28T19:10:10Z</time>
  <course>178.13</course>
  <speed>0.15</speed>
  <fix>3d</fix>
</trkpt>
<trkpt lat="40.0726628" lon="-105.2302225">
  <ele>1617.04</ele>
  <time>2026-08-28T19:10:10Z</time>
  <course>293.33</course>
  <speed>0.04</speed>
  <fix>3d</fix>
</trkpt>
<trkpt lat="40.0726631" lon="-105.2302231">
  <ele>1617.15</ele>
  <time>2026-08-28T19:10:10Z</time>
  <course>178.15</course>
  <speed>0.2420743687382041</speed>
  <fix>3d</fix>
</trkpt>
<trkpt lat="40.0726629" lon="-105.2302226">
  <ele>1617.04</ele>
  <time>2026-08-28T19:10:10Z</time>
  <course>303.1</course>
  <speed>0.11</speed>
  <fix>3d</fix>
</trkpt>
<trkpt lat="40.0726634" lon="-105.2302237">
  <ele>1617.14</ele>
  <time>2026-08-28T19:10:10Z</time>
  <course>178.17</course>
  <speed>0.35608987629529715</speed>
  <fix>3d</fix>
</trkpt>
<trkpt lat="40.072663" lon="-105.230223">
  <ele>1617.04</ele>
  <time>2026-08-28T19:10:10Z</time>
  <course>305.15</course>
  <speed>0.2</speed>
  <fix>3d</fix>
</trkpt>
<trkpt lat="40.0726638" lon="-105.2302244">
  <ele>1617.14</ele>
  <time>2026-08-28T19:10:10Z</time>
  <course>178.15</course>
  <speed>0.46400431032480727</speed>
  <fix>3d</fix>
</trkpt>
<trkpt lat="40.0726632" lon="-105.2302234">
  <ele>1617.04</ele>
  <time>2026-08-28T19:10:10Z</time>
  <course>305.41</course>
  <speed>0.31</speed>
  <fix>3d</fix>
</trkpt>
<trkpt lat="40.0726643" lon="-105.2302253">
  <ele>1617.14</ele>
  <time>2026-08-28T19:10:10Z</time>
  <course>178.14</course>
  <speed>0.5920304046246274</speed>
  <fix>3d</fix>
</trkpt>
<trkpt lat="40.0726636" lon="-105.2302242">
  <ele>1617.05</ele>
  <time>2026-08-28T19:10:10Z</time>
  <course>305.27</course>
  <speed>0.43</speed>
  <fix>3d</fix>
</trkpt>
<trkpt lat="40.072665" lon="-105.2302265">
  <ele>1617.14</ele>
  <time>2026-08-28T19:10:10Z</time>
  <course>178.13</course>
  <speed>0.7220110802473879</speed>
  <fix>3d</fix>
</trkpt>
<trkpt lat="40.0726641" lon="-105.2302251">
  <ele>1617.05</ele>
  <time>2026-08-28T19:10:10Z</time>
  <course>305.19</course>
  <speed>0.55</speed>
  <fix>3d</fix>
</trkpt>
<trkpt lat="40.0726658" lon="-105.230228">
  <ele>1617.15</ele>
  <time>2026-08-28T19:10:10Z</time>
  <course>178.13</course>
  <speed>0.8720091742636655</speed>
  <fix>3d</fix>
</trkpt>
<trkpt lat="40.0726648" lon="-105.2302263">
  <ele>1617.05</ele>
  <time>2026-08-28T19:10:10Z</time>
  <course>305.27</course>
  <speed>0.69</speed>
  <fix>3d</fix>
</trkpt>
<trkpt lat="40.0726668" lon="-105.2302297">
  <ele>1617.15</ele>
  <time>2026-08-28T19:10:10Z</time>
  <course>178.17</course>
  <speed>1.0360019305001318</speed>
  <fix>3d</fix>
</trkpt>
<trkpt lat="40.0726655" lon="-105.2302278">
  <ele>1617.05</ele>
  <time>2026-08-28T19:10:10Z</time>
  <course>305.43</course>
  <speed>0.84</speed>
  <fix>3d</fix>
</trkpt>
<trkpt lat="40.0726679" lon="-105.2302317">
  <ele>1617.15</ele>
  <time>2026-08-28T19:10:10Z</time>
  <course>185.07</course>
  <speed>1.1525623627379127</speed>
  <fix>3d</fix>
</trkpt>
<trkpt lat="40.0726665" lon="-105.2302295">
  <ele>1617.05</ele>
  <time>2026-08-28T19:10:10Z</time>
  <course>305.78</course>
  <speed>0.99</speed>
  <fix>3d</fix>
</trkpt>
<trkpt lat="40.0726692" lon="-105.2302341">
  <ele>1617.16</ele>
  <time>2026-08-28T19:10:10Z</time>
  <course>198.47</course>
  <speed>1.3440238093129153</speed>
  <fix>3d</fix>
</trkpt>
<trkpt lat="40.0726676" lon="-105.2302316">
  <ele>1617.05</ele>
  <time>2026-08-28T19:10:10Z</time>
  <course>306.57</course>
  <speed>1.14</speed>
  <fix>3d</fix>
</trkpt>
<trkpt lat="40.0726707" lon="-105.2302368">
  <ele>1617.15</ele>
  <time>2026-08-28T19:10:10Z</time>
  <course>210.42</course>
  <speed>1.5476756766196202</speed>
  <fix>3d</fix>
</trkpt>
<trkpt lat="40.072669" lon="-105.2302339">
  <ele>1617.04</ele>
  <time>2026-08-28T19:10:10Z</time>
  <course>305.98</course>
  <speed>1.31</speed>
  <fix>3d</fix>
</trkpt>
<trkpt lat="40.0726722" lon="-105.2302401">
  <ele>1617.14</ele>
  <time>2026-08-28T19:10:10Z</time>
  <course>222.2</course>
  <speed>1.7681911661356076</speed>
  <fix>3d</fix>
</trkpt>
<trkpt lat="40.0726704" lon="-105.2302366">
  <ele>1617.04</ele>
  <time>2026-08-28T19:10:10Z</time>
  <course>303.7</course>
  <speed>1.51</speed>
  <fix>3d</fix>
</trkpt>
<trkpt lat="40.0726739" lon="-105.2302439">
  <ele>1617.13</ele>
  <time>2026-08-28T19:10:10Z</time>
  <course>233.89</course>
  <speed>2.0407106605298067</speed>
  <fix>3d</fix>
</trkpt>
<trkpt lat="40.072672" lon="-105.2302398">
  <ele>1617.03</ele>
  <time>2026-08-28T19:10:10Z</time>
  <course>301.11</course>
  <speed>1.73</speed>
  <fix>3d</fix>
</trkpt>
<trkpt lat="40.0726757" lon="-105.2302484">
  <ele>1617.12</ele>
  <time>2026-08-28T19:10:10Z</time>
  <course>245.56</course>
  <speed>2.3612920192132103</speed>
  <fix>3d</fix>
</trkpt>
<trkpt lat="40.0726736" lon="-105.2302436">
  <ele>1617.02</ele>
  <time>2026-08-28T19:10:10Z</time>
  <course>298.63</course>
  <speed>1.99</speed>
  <fix>3d</fix>
</trkpt>
<trkpt lat="40.0726776" lon="-105.2302538">
  <ele>1617.11</ele>
  <time>2026-08-28T19:10:10Z</time>
  <course>257.25</course>
  <speed>2.750727176584403</speed>
  <fix>3d</fix>
</trkpt>
<trkpt lat="40.0726754" lon="-105.2302481">
  <ele>1617.01</ele>
  <time>2026-08-28T19:10:10Z</time>
  <course>296.63</course>
  <speed>2.3</speed>
  <fix>3d</fix>
</trkpt>
<trkpt lat="40.0726798" lon="-105.23026">
  <ele>1617.1</ele>
  <time>2026-08-28T19:10:10Z</time>
  <course>269.04</course>
  <speed>3.2030610359467087</speed>
  <fix>3d</fix>
</trkpt>
<trkpt lat="40.0726774" lon="-105.2302533">
  <ele>1617.0</ele>
  <time>2026-08-28T19:10:10Z</time>
  <course>295.33</course>
  <speed>2.68</speed>
  <fix>3d</fix>
</trkpt>
<trkpt lat="40.0726824" lon="-105.2302672">
  <ele>1617.09</ele>
  <time>2026-08-28T19:10:10Z</time>
  <course>281.15</course>
  <speed>3.6858241954819277</speed>
  <fix>3d</fix>
</trkpt>
<trkpt lat="40.0726796" lon="-105.2302594">
  <ele>1616.99</ele>
  <time>2026-08-28T19:10:10Z</time>
  <course>294.79</course>
  <speed>3.11</speed>
  <fix>3d</fix>
</trkpt>
<trkpt lat="40.0726854" lon="-105.2302754">
  <ele>1617.08</ele>
  <time>2026-08-28T19:10:10Z</time>
  <course>293.32</course>
  <speed>4.176984558266884</speed>
  <fix>3d</fix>
</trkpt>
<trkpt lat="40.0726821" lon="-105.2302666">
  <ele>1616.98</ele>
  <time>2026-08-28T19:10:10Z</time>
  <course>294.97</course>
  <speed>3.59</speed>
  <fix>3d</fix>
</trkpt>
<trkpt lat="40.072689" lon="-105.2302845">
  <ele>1617.08</ele>
  <time>2026-08-28T19:10:10Z</time>
  <course>295.87</course>
  <speed>4.634706031670186</speed>
  <fix>3d</fix>
</trkpt>
<trkpt lat="40.0726851" lon="-105.2302747">
  <ele>1616.97</ele>
  <time>2026-08-28T19:10:10Z</time>
  <course>296.04</course>
  <speed>4.08</speed>
  <fix>3d</fix>
</trkpt>
<trkpt lat="40.0726931" lon="-105.2302944">
  <ele>1617.08</ele>
  <time>2026-08-28T19:10:10Z</time>
  <course>296.31</course>
  <speed>5.004078336716962</speed>
  <fix>3d</fix>
</trkpt>
<trkpt lat="40.0726886" lon="-105.2302838">
  <ele>1616.96</ele>
  <time>2026-08-28T19:10:10Z</time>
  <course>297.42</course>
  <speed>4.54</speed>
  <fix>3d</fix>
</trkpt>
<trkpt lat="40.0726975" lon="-105.2303049">
  <ele>1617.09</ele>
  <time>2026-08-28T19:10:10Z</time>
  <course>297.21</course>
  <speed>5.312409999237634</speed>
  <fix>3d</fix>
</trkpt>
<trkpt lat="40.0726925" lon="-105.2302937">
  <ele>1616.96</ele>
  <time>2026-08-28T19:10:10Z</time>
  <course>298.46</course>
  <speed>4.93</speed>
  <fix>3d</fix>
</trkpt>
<trkpt lat="40.0727023" lon="-105.2303158">
  <ele>1617.1</ele>
  <time>2026-08-28T19:10:10Z</time>
  <course>298.39</course>
  <speed>5.537734193693301</speed>
  <fix>3d</fix>
</trkpt>
<trkpt lat="40.072697" lon="-105.2303042">
  <ele>1616.97</ele>
  <time>2026-08-28T19:10:10Z</time>
  <course>299.37</course>
  <speed>5.25</speed>
  <fix>3d</fix>
</trkpt>
<trkpt lat="40.0727075" lon="-105.2303271">
  <ele>1617.12</ele>
  <time>2026-08-28T19:10:10Z</time>
  <course>299.71</course>
  <speed>5.702850164610675</speed>
  <fix>3d</fix>
</trkpt>
<trkpt lat="40.0727018" lon="-105.2303151">
  <ele>1616.99</ele>
  <time>2026-08-28T19:10:10Z</time>
  <course>300.34</course>
  <speed>5.49</speed>
  <fix>3d</fix>
</trkpt>
<trkpt lat="40.0727129" lon="-105.2303385">
  <ele>1617.15</ele>
  <time>2026-08-28T19:10:10Z</time>
  <course>301.11</course>
  <speed>5.830574585750533</speed>
  <fix>3d</fix>
</trkpt>
<trkpt lat="40.0727069" lon="-105.2303264">
  <ele>1617.01</ele>
  <time>2026-08-28T19:10:10Z</time>
  <course>301.41</course>
  <speed>5.67</speed>
  <fix>3d</fix>
</trkpt>
<trkpt lat="40.0727186" lon="-105.2303499">
  <ele>1617.17</ele>
  <time>2026-08-28T19:10:10Z</time>
  <course>302.49</course>
  <speed>5.915919201611867</speed>
  <fix>3d</fix>
</trkpt>
<trkpt lat="40.0727124" lon="-105.2303378">
  <ele>1617.04</ele>
  <time>2026-08-28T19:10:10Z</time>
  <course>302.54</course>
  <speed>5.81</speed>
  <fix>3d</fix>
</trkpt>
<trkpt lat="40.0727246" lon="-105.2303614">
  <ele>1617.18</ele>
  <time>2026-08-28T19:10:10Z</time>
  <course>303.81</course>
  <speed>5.975483244056501</speed>
  <fix>3d</fix>
</trkpt>
<trkpt lat="40.0727182" lon="-105.2303494">
  <ele>1617.06</ele>
  <time>2026-08-28T19:10:10Z</time>
  <course>303.68</course>
  <speed>5.91</speed>
  <fix>3d</fix>
</trkpt>
<trkpt lat="40.0727307" lon="-105.2303728">
  <ele>1617.2</ele>
  <time>2026-08-28T19:10:10Z</time>
  <course>305.03</course>
  <speed>6.008935013794042</speed>
  <fix>3d</fix>
</trkpt>
<trkpt lat="40.0727242" lon="-105.2303609">
  <ele>1617.07</ele>
  <time>2026-08-28T19:10:10Z</time>
  <course>304.77</course>
  <speed>5.98</speed>
  <fix>3d</fix>
</trkpt>
<trkpt lat="40.0727371" lon="-105.2303842">
  <ele>1617.2</ele>
  <time>2026-08-28T19:10:10Z</time>
  <course>306.14</course>
  <speed>6.018056164576731</speed>
  <fix>3d</fix>
</trkpt>
<trkpt lat="40.0727304" lon="-105.2303724">
  <ele>1617.08</ele>
  <time>2026-08-28T19:10:10Z</time>
  <course>305.79</course>
  <speed>6.02</speed>
  <fix>3d</fix>
</trkpt>
<trkpt lat="40.0727436" lon="-105.2303955">
  <ele>1617.2</ele>
  <time>2026-08-28T19:10:10Z</time>
  <course>307.09</course>
  <speed>6.0002083297165605</speed>
  <fix>3d</fix>
</trkpt>
<trkpt lat="40.0727368" lon="-105.2303838">
  <ele>1617.09</ele>
  <time>2026-08-28T19:10:10Z</time>
  <course>306.69</course>
  <speed>6.03</speed>
  <fix>3d</fix>
</trkpt>
<trkpt lat="40.0727502" lon="-105.2304066">
  <ele>1617.21</ele>
  <time>2026-08-28T19:10:10Z</time>
  <course>307.89</course>
  <speed>5.9569791001815675</speed>
  <fix>3d</fix>
</trkpt>
<trkpt lat="40.0727433" lon="-105.2303951">
  <ele>1617.1</ele>
  <time>2026-08-28T19:10:10Z</time>
  <course>307.46</course>
  <speed>6.01</speed>
  <fix>3d</fix>
</trkpt>
<trkpt lat="40.0727568" lon="-105.2304176">
  <ele>1617.21</ele>
  <time>2026-08-28T19:10:10Z</time>
  <course>308.57</course>
  <speed>5.887860392366654</speed>
  <fix>3d</fix>
</trkpt>
<trkpt lat="40.07275" lon="-105.2304062">
  <ele>1617.1</ele>
  <time>2026-08-28T19:10:10Z</time>
  <course>308.08</course>
  <speed>5.97</speed>
  <fix>3d</fix>
</trkpt>
<trkpt lat="40.0727633" lon="-105.2304283">
  <ele>1617.2</ele>
  <time>2026-08-28T19:10:10Z</time>
  <course>309.03</course>
  <speed>5.8206013435039505</speed>
  <fix>3d</fix>
</trkpt>
<trkpt lat="40.0727567" lon="-105.2304172">
  <ele>1617.11</ele>
  <time>2026-08-28T19:10:10Z</time>
  <course>308.56</course>
  <speed>5.91</speed>
  <fix>3d</fix>
</trkpt>
<trkpt lat="40.0727699" lon="-105.2304389">
  <ele>1617.2</ele>
  <time>2026-08-28T19:10:10Z</time>
  <course>309.19</course>
  <speed>5.762811813689564</speed>
  <fix>3d</fix>
</trkpt>
<trkpt lat="40.0727633" lon="-105.230428">
  <ele>1617.11</ele>
  <time>2026-08-28T19:10:10Z</time>
  <course>308.88</course>
  <speed>5.84</speed>
  <fix>3d</fix>
</trkpt>
<trkpt lat="40.0727764" lon="-105.2304494">
  <ele>1617.19</ele>
  <time>2026-08-28T19:10:10Z</time>
  <course>309.16</course>
  <speed>5.706592678648092</speed>
  <fix>3d</fix>
</trkpt>
<trkpt lat="40.0727698" lon="-105.2304386">
  <ele>1617.11</ele>
  <time>2026-08-28T19:10:10Z</time>
  <course>309.04</course>
  <speed>5.78</speed>
  <fix>3d</fix>
</trkpt>
<trkpt lat="40.0727828" lon="-105.2304599">
  <ele>1617.19</ele>
  <time>2026-08-28T19:10:10Z</time>
  <course>308.97</course>
  <speed>5.645786039162306</speed>
  <fix>3d</fix>
</trkpt>
<trkpt lat="40.0727763" lon="-105.230449">
  <ele>1617.1</ele>
  <time>2026-08-28T19:10:10Z</time>
  <course>309.0</course>
  <speed>5.72</speed>
  <fix>3d</fix>
</trkpt>
<trkpt lat="40.072789" lon="-105.2304702">
  <ele>1617.19</ele>
  <time>2026-08-28T19:10:10Z</time>
  <course>308.63</course>
  <speed>5.544763295218291</speed>
  <fix>3d</fix>
</trkpt>
<trkpt lat="40.0727827" lon="-105.2304595">
  <ele>1617.09</ele>
  <time>2026-08-28T19:10:10Z</time>
  <course>308.76</course>
  <speed>5.65</speed>
  <fix>3d</fix>
</trkpt>
<trkpt lat="40.072795" lon="-105.2304803">
  <ele>1617.2</ele>
  <time>2026-08-28T19:10:10Z</time>
  <course>308.19</course>
  <speed>5.416133307074338</speed>
  <fix>3d</fix>
</trkpt>
<trkpt lat="40.072789" lon="-105.2304698">
  <ele>1617.09</ele>
  <time>2026-08-28T19:10:10Z</time>
  <course>308.33</course>
  <speed>5.55</speed>
  <fix>3d</fix>
</trkpt>
<trkpt lat="40.0728009" lon="-105.2304902">
  <ele>1617.21</ele>
  <time>2026-08-28T19:10:10Z</time>
  <course>307.69</course>
  <speed>5.246046130182235</speed>
  <fix>3d</fix>
</trkpt>
<trkpt lat="40.0727951" lon="-105.2304799">
  <ele>1617.09</ele>
  <time>2026-08-28T19:10:10Z</time>
  <course>307.76</course>
  <speed>5.42</speed>
  <fix>3d</fix>
</trkpt>
<trkpt lat="40.0728064" lon="-105.2305">
  <ele>1617.22</ele>
  <time>2026-08-28T19:10:10Z</time>
  <course>307.14</course>
  <speed>5.040634880647477</speed>
  <fix>3d</fix>
</trkpt>
<trkpt lat="40.0728009" lon="-105.2304899">
  <ele>1617.1</ele>
  <time>2026-08-28T19:10:10Z</time>
  <course>307.12</course>
  <speed>5.26</speed>
  <fix>3d</fix>
</trkpt>
<trkpt lat="40.0728117" lon="-105.2305094">
  <ele>1617.22</ele>
  <time>2026-08-28T19:10:10Z</time>
  <course>306.57</course>
  <speed>4.808097336785103</speed>
  <fix>3d</fix>
</trkpt>
<trkpt lat="40.0728065" lon="-105.2304996">
  <ele>1617.1</ele>
  <time>2026-08-28T19:10:10Z</time>
  <course>306.43</course>
  <speed>5.06</speed>
  <fix>3d</fix>
</trkpt>
<trkpt lat="40.0728165" lon="-105.2305184">
  <ele>1617.22</ele>
  <time>2026-08-28T19:10:10Z</time>
  <course>305.95</course>
  <speed>4.5378959882306695</speed>
  <fix>3d</fix>
</trkpt>
<trkpt lat="40.0728117" lon="-105.230509">
  <ele>1617.11</ele>
  <time>2026-08-28T19:10:10Z</time>
  <course>305.72</course>
  <speed>4.83</speed>
  <fix>3d</fix>
</trkpt>
<trkpt lat="40.072821" lon="-105.2305269">
  <ele>1617.22</ele>
  <time>2026-08-28T19:10:10Z</time>
  <course>305.29</course>
  <speed>4.226819134999746</speed>
  <fix>3d</fix>
</trkpt>
<trkpt lat="40.0728166" lon="-105.230518">
  <ele>1617.11</ele>
  <time>2026-08-28T19:10:10Z</time>
  <course>304.98</course>
  <speed>4.56</speed>
  <fix>3d</fix>
</trkpt>
<trkpt lat="40.0728251" lon="-105.2305349">
  <ele>1617.21</ele>
  <time>2026-08-28T19:10:10Z</time>
  <course>304.54</course>
  <speed>3.8778344472140636</speed>
  <fix>3d</fix>
</trkpt>
<trkpt lat="40.0728211" lon="-105.2305265">
  <ele>1617.12</ele>
  <time>2026-08-28T19:10:10Z</time>
  <course>304.2</course>
  <speed>4.25</speed>
  <fix>3d</fix>
</trkpt>
<trkpt lat="40.0728287" lon="-105.2305422">
  <ele>1617.2</ele>
  <time>2026-08-28T19:10:10Z</time>
  <course>303.72</course>
  <speed>3.4852833457267143</speed>
  <fix>3d</fix>
</trkpt>
<trkpt lat="40.0728252" lon="-105.2305345">
  <ele>1617.12</ele>
  <time>2026-08-28T19:10:10Z</time>
  <course>303.39</course>
  <speed>3.9</speed>
  <fix>3d</fix>
</trkpt>
<trkpt lat="40.0728318" lon="-105.2305487">
  <ele>1617.2</ele>
  <time>2026-08-28T19:10:10Z</time>
  <course>302.79</course>
  <speed>3.054390282855156</speed>
  <fix>3d</fix>
</trkpt>
<trkpt lat="40.0728289" lon="-105.2305418">
  <ele>1617.12</ele>
  <time>2026-08-28T19:10:10Z</time>
  <course>302.52</course>
  <speed>3.52</speed>
  <fix>3d</fix>
</trkpt>
<trkpt lat="40.0728345" lon="-105.2305544">
  <ele>1617.2</ele>
  <time>2026-08-28T19:10:10Z</time>
  <course>301.67</course>
  <speed>2.602249027283899</speed>
  <fix>3d</fix>
</trkpt>
<trkpt lat="40.072832" lon="-105.2305483">
  <ele>1617.11</ele>
  <time>2026-08-28T19:10:10Z</time>
  <course>301.56</course>
  <speed>3.09</speed>
  <fix>3d</fix>
</trkpt>
<trkpt lat="40.0728366" lon="-105.2305593">
  <ele>1617.19</ele>
  <time>2026-08-28T19:10:10Z</time>
  <course>300.4</course>
  <speed>2.1476731594914527</speed>
  <fix>3d</fix>
</trkpt>
<trkpt lat="40.0728347" lon="-105.2305542">
  <ele>1617.11</ele>
  <time>2026-08-28T19:10:10Z</time>
  <course>300.47</course>
  <speed>2.64</speed>
  <fix>3d</fix>
</trkpt>
<trkpt lat="40.0728383" lon="-105.2305632">
  <ele>1617.18</ele>
  <time>2026-08-28T19:10:10Z</time>
  <course>298.85</course>
  <speed>1.7039072744724109</speed>
  <fix>3d</fix>
</trkpt>
<trkpt lat="40.0728368" lon="-105.2305591">
  <ele>1617.1</ele>
  <time>2026-08-28T19:10:10Z</time>
  <course>299.22</course>
  <speed>2.18</speed>
  <fix>3d</fix>
</trkpt>
<trkpt lat="40.0728395" lon="-105.2305664">
  <ele>1617.16</ele>
  <time>2026-08-28T19:10:10Z</time>
  <course>296.99</course>
  <speed>1.3109538512091108</speed>
  <fix>3d</fix>
</trkpt>
<trkpt lat="40.0728385" lon="-105.2305632">
  <ele>1617.09</ele>
  <time>2026-08-28T19:10:10Z</time>
  <course>297.79</course>
  <speed>1.74</speed>
  <fix>3d</fix>
</trkpt>
<trkpt lat="40.0728404" lon="-105.2305689">
  <ele>1617.15</ele>
  <time>2026-08-28T19:10:10Z</time>
  <course>294.8</course>
  <speed>0.9638464608017192</speed>
  <fix>3d</fix>
</trkpt>
<trkpt lat="40.0728397" lon="-105.2305663">
  <ele>1617.07</ele>
  <time>2026-08-28T19:10:10Z</time>
  <course>296.1</course>
  <speed>1.33</speed>
  <fix>3d</fix>
</trkpt>
<trkpt lat="40.072841" lon="-105.2305707">
  <ele>1617.14</ele>
  <time>2026-08-28T19:10:10Z</time>
  <course>293.44</course>
  <speed>0.6862215385719105</speed>
  <fix>3d</fix>
</trkpt>
<trkpt lat="40.0728406" lon="-105.2305688">
  <ele>1617.06</ele>
  <time>2026-08-28T19:10:10Z</time>
  <course>293.96</course>
  <speed>0.98</speed>
  <fix>3d</fix>
</trkpt>
<trkpt lat="40.0728413" lon="-105.230572">
  <ele>1617.13</ele>
  <time>2026-08-28T19:10:10Z</time>
  <course>293.66</course>
  <speed>0.4632493928760188</speed>
  <fix>3d</fix>
</trkpt>
<trkpt lat="40.0728412" lon="-105.2305706">
  <ele>1617.04</ele>
  <time>2026-08-28T19:10:10Z</time>
  <course>290.37</course>
  <speed>0.69</speed>
  <fix>3d</fix>
</trkpt>
<trkpt lat="40.0728415" lon="-105.2305728">
  <ele>1617.12</ele>
  <time>2026-08-28T19:10:10Z</time>
  <course>293.61</course>
  <speed>0.2906888370749727</speed>
  <fix>3d</fix>
</trkpt>
<trkpt lat="40.0728415" lon="-105.2305719">
  <ele>1617.03</ele>
  <time>2026-08-28T19:10:10Z</time>
  <course>284.62</course>
  <speed>0.46</speed>
  <fix>3d</fix>
</trkpt>
<trkpt lat="40.0728415" lon="-105.2305733">
  <ele>1617.12</ele>
  <time>2026-08-28T19:10:10Z</time>
  <course>293.54</course>
  <speed>0.18110770276274835</speed>
  <fix>3d</fix>
</trkpt>
<trkpt lat="40.0728417" lon="-105.2305727">
  <ele>1617.02</ele>
  <time>2026-08-28T19:10:10Z</time>
  <course>275.44</course>
  <speed>0.28</speed>
  <fix>3d</fix>
</trkpt>
<trkpt lat="40.0728414" lon="-105.2305736">
  <ele>1617.11</ele>
  <time>2026-08-28T19:10:10Z</time>
  <course>293.47</course>
  <speed>0.10816653826391968</speed>
  <fix>3d</fix>
</trkpt>
<trkpt lat="40.0728416" lon="-105.2305733">
  <ele>1617.02</ele>
  <time>2026-08-28T19:10:10Z</time>
  <course>256.48</course>
  <speed>0.16</speed>
  <fix>3d</fix>
</trkpt>
<trkpt lat="40.0728414" lon="-105.2305738">
  <ele>1617.11</ele>
  <time>2026-08-28T19:10:10Z</time>
  <course>293.46</course>
  <speed>0.08602325267042626</speed>
  <fix>3d</fix>
</trkpt>
<trkpt lat="40.0728415" lon="-105.2305735">
  <ele>1617.02</ele>
  <time>2026-08-28T19:10:10Z</time>
  <course>222.77</course>
  <speed>0.1</speed>
  <fix>3d</fix>
</trkpt>
<trkpt lat="40.0728413" lon="-105.2305738">
  <ele>1617.12</ele>
  <time>2026-08-28T19:10:10Z</time>
  <course>293.4</course>
  <speed>0.07615773105863909</speed>
  <fix>3d</fix>
</trkpt>
<trkpt lat="40.0728414" lon="-105.2305736">
  <ele>1617.02</ele>
  <time>2026-08-28T19:10:10Z</time>
  <course>194.19</course>
  <speed>0.1</speed>
  <fix>3d</fix>
</trkpt>
<trkpt lat="40.0728411" lon="-105.2305738">
  <ele>1617.13</ele>
  <time>2026-08-28T19:10:10Z</time>
  <course>293.4</course>
  <speed>0.06403124237432849</speed>
  <fix>3d</fix>
</trkpt>
<trkpt lat="40.0728413" lon="-105.2305736">
  <ele>1617.03</ele>
  <time>2026-08-28T19:10:10Z</time>
  <course>185.06</course>
  <speed>0.09</speed>
  <fix>3d</fix>
</trkpt>
<trkpt lat="40.072841" lon="-105.2305739">
  <ele>1617.14</ele>
  <time>2026-08-28T19:10:10Z</time>
  <course>293.37</course>
  <speed>0.07071067811865475</speed>
  <fix>3d</fix>
</trkpt>
<trkpt lat="40.0728411" lon="-105.2305736">
  <ele>1617.03</ele>
  <time>2026-08-28T19:10:10Z</time>
  <course>194.19</course>
  <speed>0.08</speed>
  <fix>3d</fix>
</trkpt>
<trkpt lat="40.072841" lon="-105.2305741">
  <ele>1617.15</ele>
  <time>2026-08-28T19:10:10Z</time>
  <course>293.33</course>
  <speed>0.12165525060596438</speed>
  <fix>3d</fix>
</trkpt>
<trkpt lat="40.072841" lon="-105.2305738">
  <ele>1617.04</ele>
  <time>2026-08-28T19:10:10Z</time>
  <course>227.45</course>
  <speed>0.07</speed>
  <fix>3d</fix>
</trkpt>
<trkpt lat="40.072841" lon="-105.2305744">
  <ele>1617.15</ele>
  <time>2026-08-28T19:10:10Z</time>
  <course>293.69</course>
  <speed>0.18681541692269404</speed>
  <fix>3d</fix>
</trkpt>
<trkpt lat="40.0728409" lon="-105.2305739">
  <ele>1617.05</ele>
  <time>2026-08-28T19:10:10Z</time>
  <course>263.7</course>
  <speed>0.1</speed>
  <fix>3d</fix>
</trkpt>
<trkpt lat="40.072841" lon="-105.2305749">
  <ele>1617.15</ele>
  <time>2026-08-28T19:10:10Z</time>
  <course>306.07</course>
  <speed>0.25495097567963926</speed>
  <fix>3d</fix>
</trkpt>
<trkpt lat="40.0728409" lon="-105.2305743">
  <ele>1617.05</ele>
  <time>2026-08-28T19:10:10Z</time>
  <course>271.65</course>
  <speed>0.17</speed>
  <fix>3d</fix>
</trkpt>
<trkpt lat="40.0728411" lon="-105.2305755">
  <ele>1617.15</ele>
  <time>2026-08-28T19:10:10Z</time>
  <course>318.66</course>
  <speed>0.3195309061734092</speed>
  <fix>3d</fix>
</trkpt>
<trkpt lat="40.0728409" lon="-105.2305748">
  <ele>1617.06</ele>
  <time>2026-08-28T19:10:10Z</time>
  <course>275.54</course>
  <speed>0.24</speed>
  <fix>3d</fix>
</trkpt>
<trkpt lat="40.0728413" lon="-105.2305763">
  <ele>1617.15</ele>
  <time>2026-08-28T19:10:10Z</time>
  <course>330.85</course>
  <speed>0.3712142238654117</speed>
  <fix>3d</fix>
</trkpt>
<trkpt lat="40.072841" lon="-105.2305754">
  <ele>1617.06</ele>
  <time>2026-08-28T19:10:10Z</time>
  <course>284.55</course>
  <speed>0.3</speed>
  <fix>3d</fix>
</trkpt>
<trkpt lat="40.0728416" lon="-105.2305771">
  <ele>1617.15</ele>
  <time>2026-08-28T19:10:10Z</time>
  <course>342.91</course>
  <speed>0.43266615305567874</speed>
  <fix>3d</fix>
</trkpt>
<trkpt lat="40.0728412" lon="-105.2305762">
  <ele>1617.06</ele>
  <time>2026-08-28T19:10:10Z</time>
  <course>292.24</course>
  <speed>0.37</speed>
  <fix>3d</fix>
</trkpt>
<trkpt lat="40.0728421" lon="-105.2305779">
  <ele>1617.15</ele>
  <time>2026-08-28T19:10:10Z</time>
  <course>354.98</course>
  <speed>0.4622769732530488</speed>
  <fix>3d</fix>
</trkpt>
<trkpt lat="40.0728414" lon="-105.230577">
  <ele>1617.06</ele>
  <time>2026-08-28T19:10:10Z</time>
  <course>298.37</course>
  <speed>0.42</speed>
  <fix>3d</fix>
</trkpt>
<trkpt lat="40.0728426" lon="-105.2305788">
  <ele>1617.15</ele>
  <time>2026-08-28T19:10:10Z</time>
  <course>7.03</course>
  <speed>0.4808326112068523</speed>
  <fix>3d</fix>
</trkpt>
<trkpt lat="40.0728419" lon="-105.2305779">
  <ele>1617.06</ele>
  <time>2026-08-28T19:10:10Z</time>
  <course>303.85</course>
  <speed>0.46</speed>
  <fix>3d</fix>
</trkpt>
<trkpt lat="40.0728432" lon="-105.2305795">
  <ele>1617.15</ele>
  <time>2026-08-28T19:10:10Z</time>
  <course>12.7</course>
  <speed>0.4356604182158393</speed>
  <fix>3d</fix>
</trkpt>
<trkpt lat="40.0728424" lon="-105.2305788">
  <ele>1617.06</ele>
  <time>2026-08-28T19:10:10Z</time>
  <course>309.82</course>
  <speed>0.48</speed>
  <fix>3d</fix>
</trkpt>
<trkpt lat="40.0728438" lon="-105.2305801">
  <ele>1617.16</ele>
  <time>2026-08-28T19:10:10Z</time>
  <course>11.06</course>
  <speed>0.42941821107167777</speed>
  <fix>3d</fix>
</trkpt>
<trkpt lat="40.0728429" lon="-105.2305796">
  <ele>1617.06</ele>
  <time>2026-08-28T19:10:10Z</time>
  <course>318.13</course>
  <speed>0.45</speed>
  <fix>3d</fix>
</trkpt>
<trkpt lat="40.0728444" lon="-105.2305806">
  <ele>1617.16</ele>
  <time>2026-08-28T19:10:11Z</time>
  <course>10.93</course>
  <speed>0.4085339643163099</speed>
  <fix>3d</fix>
</trkpt>
<trkpt lat="40.0728436" lon="-105.2305802">
  <ele>1617.06</ele>
  <time>2026-08-28T19:10:11Z</time>
  <course>325.87</course>
  <speed>0.43</speed>
  <fix>3d</fix>
</trkpt>
<trkpt lat="40.072845" lon="-105.2305809">
  <ele>1617.17</ele>
  <time>2026-08-28T19:10:11Z</time>
  <course>10.91</course>
  <speed>0.3640054944640259</speed>
  <fix>3d</fix>
</trkpt>
<trkpt lat="40.0728442" lon="-105.2305808">
  <ele>1617.07</ele>
  <time>2026-08-28T19:10:11Z</time>
  <course>330.46</course>
  <speed>0.4</speed>
  <fix>3d</fix>
</trkpt>
<trkpt lat="40.0728456" lon="-105.2305812">
  <ele>1617.17</ele>
  <time>2026-08-28T19:10:11Z</time>
  <course>10.95</course>
  <speed>0.3026549190084311</speed>
  <fix>3d</fix>
</trkpt>
<trkpt lat="40.0728448" lon="-105.2305811">
  <ele>1617.07</ele>
  <time>2026-08-28T19:10:11Z</time>
  <course>335.74</course>
  <speed>0.36</speed>
  <fix>3d</fix>
</trkpt>
<trkpt lat="40.072846" lon="-105.2305813">
  <ele>1617.17</ele>
  <time>2026-08-28T19:10:11Z</time>
  <course>10.95</course>
  <speed>0.2501999200639361</speed>
  <fix>3d</fix>
</trkpt>
<trkpt lat="40.0728454" lon="-105.2305815">
  <ele>1617.07</ele>
  <time>2026-08-28T19:10:11Z</time>
  <course>342.51</course>
  <speed>0.3</speed>
  <fix>3d</fix>
</trkpt>
<trkpt lat="40.0728464" lon="-105.2305813">
  <ele>1617.16</ele>
  <time>2026-08-28T19:10:11Z</time>
  <course>10.94</course>
  <speed>0.20248456731316586</speed>
  <fix>3d</fix>
</trkpt>
<trkpt lat="40.0728459" lon="-105.2305816">
  <ele>1617.07</ele>
  <time>2026-08-28T19:10:11Z</time>
  <course>352.43</course>
  <speed>0.24</speed>
  <fix>3d</fix>
</trkpt>
<trkpt lat="40.0728467" lon="-105.2305811">
  <ele>1617.16</ele>
  <time>2026-08-28T19:10:11Z</time>
  <course>10.92</course>
  <speed>0.1769180601295413</speed>
  <fix>3d</fix>
</trkpt>
<trkpt lat="40.0728463" lon="-105.2305816">
  <ele>1617.06</ele>
  <time>2026-08-28T19:10:11Z</time>
  <course>8.21</course>
  <speed>0.18</speed>
  <fix>3d</fix>
</trkpt>
<trkpt lat="40.0728468" lon="-105.230581">
  <ele>1617.15</ele>
  <time>2026-08-28T19:10:11Z</time>
  <course>10.9</course>
  <speed>0.1708800749063506</speed>
  <fix>3d</fix>
</trkpt>
<trkpt lat="40.0728466" lon="-105.2305815">
  <ele>1617.06</ele>
  <time>2026-08-28T19:10:11Z</time>
  <course>33.51</course>
  <speed>0.14</speed>
  <fix>3d</fix>
</trkpt>
<trkpt lat="40.0728468" lon="-105.2305806">
  <ele>1617.15</ele>
  <time>2026-08-28T19:10:11Z</time>
  <course>10.88</course>
  <speed>0.2</speed>
  <fix>3d</fix>
</trkpt>
<trkpt lat="40.0728467" lon="-105.2305812">
  <ele>1617.06</ele>
  <time>2026-08-28T19:10:11Z</time>
  <course>65.98</course>
  <speed>0.13</speed>
  <fix>3d</fix>
</trkpt>
<trkpt lat="40.0728467" lon="-105.2305802">
  <ele>1617.14</ele>
  <time>2026-08-28T19:10:11Z</time>
  <course>10.85</course>
  <speed>0.23769728648009425</speed>
  <fix>3d</fix>
</trkpt>
<trkpt lat="40.0728468" lon="-105.230581">
  <ele>1617.06</ele>
  <time>2026-08-28T19:10:11Z</time>
  <course>92.71</course>
  <speed>0.16</speed>
  <fix>3d</fix>
</trkpt>
<trkpt lat="40.0728466" lon="-105.2305797">
  <ele>1617.14</ele>
  <time>2026-08-28T19:10:11Z</time>
  <course>10.8</course>
  <speed>0.27313000567495327</speed>
  <fix>3d</fix>
</trkpt>
<trkpt lat="40.0728468" lon="-105.2305806">
  <ele>1617.06</ele>
  <time>2026-08-28T19:10:11Z</time>
  <course>109.33</course>
  <speed>0.2</speed>
  <fix>3d</fix>
</trkpt>
<trkpt lat="40.0728464" lon="-105.2305792">
  <ele>1617.15</ele>
  <time>2026-08-28T19:10:11Z</time>
  <course>10.81</course>
  <speed>0.30528675044947495</speed>
  <fix>3d</fix>
</trkpt>
<trkpt lat="40.0728466" lon="-105.2305801">
  <ele>1617.06</ele>
  <time>2026-08-28T19:10:11Z</time>
  <course>119.56</course>
  <speed>0.24</speed>
  <fix>3d</fix>
</trkpt>
<trkpt lat="40.0728461" lon="-105.2305787">
  <ele>1617.15</ele>
  <time>2026-08-28T19:10:11Z</time>
  <course>10.82</course>
  <speed>0.3280243893371345</speed>
  <fix>3d</fix>
</trkpt>
<trkpt lat="40.0728463" lon="-105.2305796">
  <ele>1617.06</ele>
  <time>2026-08-28T19:10:11Z</time>
  <course>126.3</course>
  <speed>0.28</speed>
  <fix>3d</fix>
</trkpt>
<trkpt lat="40.0728456" lon="-105.2305781">
  <ele>1617.16</ele>
  <time>2026-08-28T19:10:11Z</time>
  <course>10.8</course>
  <speed>0.34713109915419565</speed>
  <fix>3d</fix>
</trkpt>
<trkpt lat="40.072846" lon="-105.230579">
  <ele>1617.06</ele>
  <time>2026-08-28T19:10:11Z</time>
  <course>131.1</course>
  <speed>0.31</speed>
  <fix>3d</fix>
</trkpt>
<trkpt lat="40.0728452" lon="-105.2305776">
  <ele>1617.16</ele>
  <time>2026-08-28T19:10:11Z</time>
  <course>10.79</course>
  <speed>0.3535533905932738</speed>
  <fix>3d</fix>
</trkpt>
<trkpt lat="40.0728455" lon="-105.2305784">
  <ele>1617.06</ele>
  <time>2026-08-28T19:10:11Z</time>
  <course>134.85</course>
  <speed>0.34</speed>
  <fix>3d</fix>
</trkpt>
<trkpt lat="40.0728447" lon="-105.2305771">
  <ele>1617.16</ele>
  <time>2026-08-28T19:10:11Z</time>
  <course>10.78</course>
  <speed>0.3538361202590826</speed>
  <fix>3d</fix>
</trkpt>
<trkpt lat="40.0728451" lon="-105.2305778">
  <ele>1617.06</ele>
  <time>2026-08-28T19:10:11Z</time>
  <course>137.9</course>
  <speed>0.35</speed>
  <fix>3d</fix>
</trkpt>
<trkpt lat="40.0728442" lon="-105.2305766">
  <ele>1617.15</ele>
  <time>2026-08-28T19:10:11Z</time>
  <course>10.77</course>
  <speed>0.34713109915419565</speed>
  <fix>3d</fix>
</trkpt>
<trkpt lat="40.0728446" lon="-105.2305773">
  <ele>1617.06</ele>
  <time>2026-08-28T19:10:11Z</time>
  <course>140.45</course>
  <speed>0.35</speed>
  <fix>3d</fix>
</trkpt>
<trkpt lat="40.0728437" lon="-105.2305761">
  <ele>1617.15</ele>
  <time>2026-08-28T19:10:11Z</time>
  <course>10.74</course>
  <speed>0.3280243893371345</speed>
  <fix>3d</fix>
</trkpt>
<trkpt lat="40.0728441" lon="-105.2305768">
  <ele>1617.06</ele>
  <time>2026-08-28T19:10:11Z</time>
  <course>142.71</course>
  <speed>0.34</speed>
  <fix>3d</fix>
</trkpt>
<trkpt lat="40.0728432" lon="-105.2305757">
  <ele>1617.14</ele>
  <time>2026-08-28T19:10:11Z</time>
  <course>10.93</course>
  <speed>0.3</speed>
  <fix>3d</fix>
</trkpt>
<trkpt lat="40.0728436" lon="-105.2305763">
  <ele>1617.06</ele>
  <time>2026-08-28T19:10:11Z</time>
  <course>144.86</course>
  <speed>0.33</speed>
  <fix>3d</fix>
</trkpt>
<trkpt lat="40.0728428" lon="-105.2305753">
  <ele>1617.11</ele>
  <time>2026-08-28T19:10:11Z</time>
  <course>11.33</course>
  <speed>0.280178514522438</speed>
  <fix>3d</fix>
</trkpt>
<trkpt lat="40.0728432" lon="-105.230576">
  <ele>1617.05</ele>
  <time>2026-08-28T19:10:11Z</time>
  <course>147.02</course>
  <speed>0.3</speed>
  <fix>3d</fix>
</trkpt>
<trkpt lat="40.0728424" lon="-105.2305751">
  <ele>1617.03</ele>
  <time>2026-08-28T19:10:11Z</time>
  <course>11.65</course>
  <speed>0.23853720883753127</speed>
  <fix>3d</fix>
</trkpt>
<trkpt lat="40.0728428" lon="-105.2305756">
  <ele>1617.03</ele>
  <time>2026-08-28T19:10:11Z</time>
  <course>148.88</course>
  <speed>0.27</speed>
  <fix>3d</fix>
</trkpt>
<trkpt lat="40.072842" lon="-105.2305748">
  <ele>1616.92</ele>
  <time>2026-08-28T19:10:11Z</time>
  <course>11.95</course>
  <speed>0.2109502310972899</speed>
  <fix>3d</fix>
</trkpt>
<trkpt lat="40.0728424" lon="-105.2305752">
  <ele>1616.96</ele>
  <time>2026-08-28T19:10:11Z</time>
  <course>150.17</course>
  <speed>0.24</speed>
  <fix>3d</fix>
</trkpt>
<trkpt lat="40.0728417" lon="-105.2305746">
  <ele>1616.76</ele>
  <time>2026-08-28T19:10:11Z</time>
  <course>12.21</course>
  <speed>0.18027756377319945</speed>
  <fix>3d</fix>
</trkpt>
<trkpt lat="40.0728419" lon="-105.2305749">
  <ele>1616.85</ele>
  <time>2026-08-28T19:10:11Z</time>
  <course>150.9</course>
  <speed>0.21</speed>
  <fix>3d</fix>
</trkpt>
<trkpt lat="40.0728415" lon="-105.2305744">
  <ele>1616.55</ele>
  <time>2026-08-28T19:10:11Z</time>
  <course>12.45</course>
  <speed>0.14422205101855956</speed>
  <fix>3d</fix>
</trkpt>
<trkpt lat="40.0728417" lon="-105.2305748">
  <ele>1616.7</ele>
  <time>2026-08-28T19:10:11Z</time>
  <course>150.91</course>
  <speed>0.17</speed>
  <fix>3d</fix>
</trkpt>
<trkpt lat="40.0728413" lon="-105.2305743">
  <ele>1616.29</ele>
  <time>2026-08-28T19:10:11Z</time>
  <course>12.64</course>
  <speed>0.11401754250991379</speed>
  <fix>3d</fix>
</trkpt>
<trkpt lat="40.0728414" lon="-105.2305745">
  <ele>1616.5</ele>
  <time>2026-08-28T19:10:11Z</time>
  <course>149.98</course>
  <speed>0.14</speed>
  <fix>3d</fix>
</trkpt>
<trkpt lat="40.0728411" lon="-105.2305741">
  <ele>1615.99</ele>
  <time>2026-08-28T19:10:11Z</time>
  <course>12.7</course>
  <speed>0.0848528137423857</speed>
  <fix>3d</fix>
</trkpt>
<trkpt lat="40.0728412" lon="-105.2305744">
  <ele>1616.25</ele>
  <time>2026-08-28T19:10:11Z</time>
  <course>147.45</course>
  <speed>0.1</speed>
  <fix>3d</fix>
</trkpt>
<trkpt lat="40.0728411" lon="-105.230574">
  <ele>1615.67</ele>
  <time>2026-08-28T19:10:11Z</time>
  <course>12.61</course>
  <speed>0.05830951894845301</speed>
  <fix>3d</fix>
</trkpt>
<trkpt lat="40.0728411" lon="-105.2305743">
  <ele>1615.97</ele>
  <time>2026-08-28T19:10:11Z</time>
  <course>141.24</course>
  <speed>0.07</speed>
  <fix>3d</fix>
</trkpt>
<trkpt lat="40.072841" lon="-105.230574">
  <ele>1615.34</ele>
  <time>2026-08-28T19:10:11Z</time>
  <course>12.49</course>
  <speed>0.04</speed>
  <fix>3d</fix>
</trkpt>
<trkpt lat="40.072841" lon="-105.2305742">
  <ele>1615.65</ele>
  <time>2026-08-28T19:10:11Z</time>
  <course>126.19</course>
  <speed>0.04</speed>
  <fix>3d</fix>
</trkpt>
<trkpt lat="40.072841" lon="-105.2305739">
  <ele>1615.01</ele>
  <time>2026-08-28T19:10:11Z</time>
  <course>12.38</course>
  <speed>0.0316227766016838</speed>
  <fix>3d</fix>
</trkpt>
<trkpt lat="40.0728409" lon="-105.2305741">
  <ele>1615.33</ele>
  <time>2026-08-28T19:10:11Z</time>
  <course>84.86</course>
  <speed>0.02</speed>
  <fix>3d</fix>
</trkpt>
<trkpt lat="40.0728411" lon="-105.2305739">
  <ele>1614.69</ele>
  <time>2026-08-28T19:10:11Z</time>
  <course>12.31</course>
  <speed>0.0316227766016838</speed>
  <fix>3d</fix>
</trkpt>
<trkpt lat="40.0728409" lon="-105.2305741">
  <ele>1615.01</ele>
  <time>2026-08-28T19:10:11Z</time>
  <course>28.24</course>
  <speed>0.03</speed>
  <fix>3d</fix>
</trkpt>
<trkpt lat="40.0728411" lon="-105.2305739">
  <ele>1614.38</ele>
  <time>2026-08-28T19:10:11Z</time>
  <course>12.21</course>
  <speed>0.05</speed>
  <fix>3d</fix>
</trkpt>
<trkpt lat="40.072841" lon="-105.2305741">
  <ele>1614.69</ele>
  <time>2026-08-28T19:10:11Z</time>
  <course>4.64</course>
  <speed>0.05</speed>
  <fix>3d</fix>
</trkpt>
<trkpt lat="40.0728412" lon="-105.230574">
  <ele>1614.07</ele>
  <time>2026-08-28T19:10:11Z</time>
  <course>12.15</course>
  <speed>0.06</speed>
  <fix>3d</fix>
</trkpt>
<trkpt lat="40.0728411" lon="-105.2305741">
  <ele>1614.37</ele>
  <time>2026-08-28T19:10:11Z</time>
  <course>354.49</course>
  <speed>0.07</speed>
  <fix>3d</fix>
</trkpt>
<trkpt lat="40.0728413" lon="-105.230574">
  <ele>1613.76</ele>
  <time>2026-08-28T19:10:11Z</time>
  <course>12.12</course>
  <speed>0.07071067811865475</speed>
  <fix>3d</fix>
</trkpt>
<trkpt lat="40.0728413" lon="-105.2305741">
  <ele>1614.06</ele>
  <time>2026-08-28T19:10:11Z</time>
  <course>349.01</course>
  <speed>0.08</speed>
  <fix>3d</fix>
</trkpt>
<trkpt lat="40.0728415" lon="-105.230574">
  <ele>1613.45</ele>
  <time>2026-08-28T19:10:11Z</time>
  <course>12.09</course>
  <speed>0.07071067811865475</speed>
  <fix>3d</fix>
</trkpt>
<trkpt lat="40.0728414" lon="-105.2305741">
  <ele>1613.76</ele>
  <time>2026-08-28T19:10:11Z</time>
  <course>345.76</course>
  <speed>0.1</speed>
  <fix>3d</fix>
</trkpt>
<trkpt lat="40.0728417" lon="-105.2305741">
  <ele>1613.15</ele>
  <time>2026-08-28T19:10:11Z</time>
  <course>12.04</course>
  <speed>0.07280109889280519</speed>
  <fix>3d</fix>
</trkpt>
<trkpt lat="40.0728415" lon="-105.2305741">
  <ele>1613.46</ele>
  <time>2026-08-28T19:10:11Z</time>
  <course>343.18</course>
  <speed>0.1</speed>
  <fix>3d</fix>
</trkpt>
<trkpt lat="40.0728418" lon="-105.2305742">
  <ele>1612.85</ele>
  <time>2026-08-28T19:10:11Z</time>
  <course>12.02</course>
  <speed>0.07280109889280519</speed>
  <fix>3d</fix>
</trkpt>
<trkpt lat="40.0728418" lon="-105.2305742">
  <ele>1613.16</ele>
  <time>2026-08-28T19:10:11Z</time>
  <course>340.7</course>
  <speed>0.11</speed>
  <fix>3d</fix>
</trkpt>
<trkpt lat="40.072842" lon="-105.2305743">
  <ele>1612.55</ele>
  <time>2026-08-28T19:10:11Z</time>
  <course>11.98</course>
  <speed>0.0670820393249937</speed>
  <fix>3d</fix>
</trkpt>
<trkpt lat="40.0728419" lon="-105.2305743">
  <ele>1612.86</ele>
  <time>2026-08-28T19:10:11Z</time>
  <course>338.41</course>
  <speed>0.11</speed>
  <fix>3d</fix>
</trkpt>
<trkpt lat="40.0728421" lon="-105.2305744">
  <ele>1612.25</ele>
  <time>2026-08-28T19:10:11Z</time>
  <course>11.97</course>
  <speed>0.05830951894845301</speed>
  <fix>3d</fix>
</trkpt>
<trkpt lat="40.0728421" lon="-105.2305744">
  <ele>1612.56</ele>
  <time>2026-08-28T19:10:11Z</time>
  <course>336.3</course>
  <speed>0.11</speed>
  <fix>3d</fix>
</trkpt>
<trkpt lat="40.0728423" lon="-105.2305745">
  <ele>1611.95</ele>
  <time>2026-08-28T19:10:11Z</time>
  <course>11.93</course>
  <speed>0.05</speed>
  <fix>3d</fix>
</trkpt>
<trkpt lat="40.0728424" lon="-105.2305745">
  <ele>1612.26</ele>
  <time>2026-08-28T19:10:11Z</time>
  <course>334.15</course>
  <speed>0.1</speed>
  <fix>3d</fix>
</trkpt>
<trkpt lat="40.0728424" lon="-105.2305746">
  <ele>1611.65</ele>
  <time>2026-08-28T19:10:11Z</time>
  <course>11.92</course>
  <speed>0.04242640687119285</speed>
  <fix>3d</fix>
</trkpt>
<trkpt lat="40.0728425" lon="-105.2305746">
  <ele>1611.97</ele>
  <time>2026-08-28T19:10:11Z</time>
  <course>331.74</course>
  <speed>0.09</speed>
  <fix>3d</fix>
</trkpt>
<trkpt lat="40.0728425" lon="-105.2305747">
  <ele>1611.36</ele>
  <time>2026-08-28T19:10:11Z</time>
  <course>11.88</course>
  <speed>0.0282842712474619</speed>
  <fix>3d</fix>
</trkpt>
<trkpt lat="40.0728426" lon="-105.2305747">
  <ele>1611.67</ele>
  <time>2026-08-28T19:10:11Z</time>
  <course>329.14</course>
  <speed>0.08</speed>
  <fix>3d</fix>
</trkpt>
<trkpt lat="40.0728426" lon="-105.2305747">
  <ele>1611.07</ele>
  <time>2026-08-28T19:10:11Z</time>
  <course>11.86</course>
  <speed>0.02</speed>
  <fix>3d</fix>
</trkpt>
<trkpt lat="40.0728427" lon="-105.2305748">
  <ele>1611.38</ele>
  <time>2026-08-28T19:10:11Z</time>
  <course>326.07</course>
  <speed>0.07</speed>
  <fix>3d</fix>
</trkpt>
<trkpt lat="40.0728427" lon="-105.2305748">
  <ele>1610.77</ele>
  <time>2026-08-28T19:10:11Z</time>
  <course>11.83</course>
  <speed>0.02</speed>
  <fix>3d</fix>
</trkpt>
<trkpt lat="40.0728428" lon="-105.2305749">
  <ele>1611.08</ele>
  <time>2026-08-28T19:10:11Z</time>
  <course>322.05</course>
  <speed>0.06</speed>
  <fix>3d</fix>
</trkpt>
<trkpt lat="40.0728427" lon="-105.2305749">
  <ele>1610.48</ele>
  <time>2026-08-28T19:10:11Z</time>
  <course>11.81</course>
  <speed>0.01414213562373095</speed>
  <fix>3d</fix>
</trkpt>
<trkpt lat="40.0728429" lon="-105.230575">
  <ele>1610.78</ele>
  <time>2026-08-28T19:10:11Z</time>
  <course>316.2</course>
  <speed>0.04</speed>
  <fix>3d</fix>
</trkpt>
<trkpt lat="40.0728427" lon="-105.230575">
  <ele>1610.18</ele>
  <time>2026-08-28T19:10:11Z</time>
  <course>11.79</course>
  <speed>0.0316227766016838</speed>
  <fix>3d</fix>
</trkpt>
<trkpt lat="40.072843" lon="-105.230575">
  <ele>1610.48</ele>
  <time>2026-08-28T19:10:11Z</time>
  <course>306.88</course>
  <speed>0.03</speed>
  <fix>3d</fix>
</trkpt>
<trkpt lat="40.0728427" lon="-105.230575">
  <ele>1609.87</ele>
  <time>2026-08-28T19:10:11Z</time>
  <course>11.77</course>
  <speed>0.04</speed>
  <fix>3d</fix>
</trkpt>
<trkpt lat="40.072843" lon="-105.2305751">
  <ele>1610.18</ele>
  <time>2026-08-28T19:10:11Z</time>
  <course>291.33</course>
  <speed>0.02</speed>
  <fix>3d</fix>
</trkpt>
<trkpt lat="40.0728427" lon="-105.2305751">
  <ele>1609.56</ele>
  <time>2026-08-28T19:10:11Z</time>
  <course>11.73</course>
  <speed>0.05</speed>
  <fix>3d</fix>
</trkpt>
<trkpt lat="40.0728431" lon="-105.2305751">
  <ele>1609.88</ele>
  <time>2026-08-28T19:10:11Z</time>
  <course>264.66</course>
  <speed>0.01</speed>
  <fix>3d</fix>
</trkpt>
<trkpt lat="40.0728428" lon="-105.2305751">
  <ele>1609.26</ele>
  <time>2026-08-28T19:10:11Z</time>
  <course>11.68</course>
  <speed>0.05</speed>
  <fix>3d</fix>
</trkpt>
<trkpt lat="40.072843" lon="-105.2305752">
  <ele>1609.58</ele>
  <time>2026-08-28T19:10:11Z</time>
  <course>231.26</course>
  <speed>0.01</speed>
  <fix>3d</fix>
</trkpt>
<trkpt lat="40.0728427" lon="-105.2305751">
  <ele>1608.96</ele>
  <time>2026-08-28T19:10:11Z</time>
  <course>11.64</course>
  <speed>0.06</speed>
  <fix>3d</fix>
</trkpt>
<trkpt lat="40.072843" lon="-105.2305753">
  <ele>1609.28</ele>
  <time>2026-08-28T19:10:11Z</time>
  <course>206.88</course>
  <speed>0.02</speed>
  <fix>3d</fix>
</trkpt>
<trkpt lat="40.0728427" lon="-105.2305751">
  <ele>1608.65</ele>
  <time>2026-08-28T19:10:11Z</time>
  <course>11.62</course>
  <speed>0.06</speed>
  <fix>3d</fix>
</trkpt>
<trkpt lat="40.072843" lon="-105.2305753">
  <ele>1608.98</ele>
  <time>2026-08-28T19:10:11Z</time>
  <course>193.13</course>
  <speed>0.02</speed>
  <fix>3d</fix>
</trkpt>
<trkpt lat="40.0728426" lon="-105.2305751">
  <ele>1608.35</ele>
  <time>2026-08-28T19:10:11Z</time>
  <course>11.59</course>
  <speed>0.07</speed>
  <fix>3d</fix>
</trkpt>
<trkpt lat="40.072843" lon="-105.2305753">
  <ele>1608.67</ele>
  <time>2026-08-28T19:10:11Z</time>
  <course>185.18</course>
  <speed>0.03</speed>
  <fix>3d</fix>
</trkpt>
<trkpt lat="40.0728426" lon="-105.2305751">
  <ele>1608.05</ele>
  <time>2026-08-28T19:10:11Z</time>
  <course>11.56</course>
  <speed>0.07</speed>
  <fix>3d</fix>
</trkpt>
<trkpt lat="40.0728429" lon="-105.2305753">
  <ele>1608.38</ele>
  <time>2026-08-28T19:10:11Z</time>
  <course>180.57</course>
  <speed>0.03</speed>
  <fix>3d</fix>
</trkpt>
<trkpt lat="40.0728425" lon="-105.2305751">
  <ele>1607.75</ele>
  <time>2026-08-28T19:10:11Z</time>
  <course>11.55</course>
  <speed>0.07071067811865475</speed>
  <fix>3d</fix>
</trkpt>
<trkpt lat="40.0728428" lon="-105.2305753">
  <ele>1608.08</ele>
  <time>2026-08-28T19:10:11Z</time>
  <course>177.07</course>
  <speed>0.04</speed>
  <fix>3d</fix>
</trkpt>
<trkpt lat="40.0728424" lon="-105.2305751">
  <ele>1607.45</ele>
  <time>2026-08-28T19:10:11Z</time>
  <course>11.51</course>
  <speed>0.07071067811865475</speed>
  <fix>3d</fix>
</trkpt>
<trkpt lat="40.0728427" lon="-105.2305753">
  <ele>1607.79</ele>
  <time>2026-08-28T19:10:11Z</time>
  <course>173.58</course>
  <speed>0.04</speed>
  <fix>3d</fix>
</trkpt>
<trkpt lat="40.0728424" lon="-105.2305751">
  <ele>1607.16</ele>
  <time>2026-08-28T19:10:11Z</time>
  <course>11.5</course>
  <speed>0.07071067811865475</speed>
  <fix>3d</fix>
</trkpt>
<trkpt lat="40.0728427" lon="-105.2305753">
  <ele>1607.49</ele>
  <time>2026-08-28T19:10:11Z</time>
  <course>170.6</course>
  <speed>0.04</speed>
  <fix>3d</fix>
</trkpt>
<trkpt lat="40.0728423" lon="-105.2305751">
  <ele>1606.86</ele>
  <time>2026-08-28T19:10:11Z</time>
  <course>11.48</course>
  <speed>0.07071067811865475</speed>
  <fix>3d</fix>
</trkpt>
<trkpt lat="40.0728426" lon="-105.2305753">
  <ele>1607.19</ele>
  <time>2026-08-28T19:10:11Z</time>
  <course>167.7</course>
  <speed>0.04</speed>
  <fix>3d</fix>
</trkpt>
<trkpt lat="40.0728422" lon="-105.2305751">
  <ele>1606.57</ele>
  <time>2026-08-28T19:10:11Z</time>
  <course>11.45</course>
  <speed>0.06082762530298219</speed>
  <fix>3d</fix>
</trkpt>
<trkpt lat="40.0728425" lon="-105.2305753">
  <ele>1606.9</ele>
  <time>2026-08-28T19:10:11Z</time>
  <course>164.72</course>
  <speed>0.04</speed>
  <fix>3d</fix>
</trkpt>
<trkpt lat="40.0728422" lon="-105.2305751">
  <ele>1606.27</ele>
  <time>2026-08-28T19:10:11Z</time>
  <course>11.43</course>
  <speed>0.06082762530298219</speed>
  <fix>3d</fix>
</trkpt>
<trkpt lat="40.0728425" lon="-105.2305753">
  <ele>1606.6</ele>
  <time>2026-08-28T19:10:11Z</time>
  <course>162.42</course>
  <speed>0.03</speed>
  <fix>3d</fix>
</trkpt>
<trkpt lat="40.0728421" lon="-105.2305751">
  <ele>1605.97</ele>
  <time>2026-08-28T19:10:11Z</time>
  <course>11.41</course>
  <speed>0.05099019513592785</speed>
  <fix>3d</fix>
</trkpt>
<trkpt lat="40.0728424" lon="-105.2305753">
  <ele>1606.3</ele>
  <time>2026-08-28T19:10:11Z</time>
  <course>160.43</course>
  <speed>0.03</speed>
  <fix>3d</fix>
</trkpt>
<trkpt lat="40.0728421" lon="-105.2305751">
  <ele>1605.67</ele>
  <time>2026-08-28T19:10:11Z</time>
  <course>11.38</course>
  <speed>0.05099019513592785</speed>
  <fix>3d</fix>
</trkpt>
<trkpt lat="40.0728423" lon="-105.2305752">
  <ele>1606.0</ele>
  <time>2026-08-28T19:10:11Z</time>
  <course>157.63</course>
  <speed>0.03</speed>
  <fix>3d</fix>
</trkpt>
<trkpt lat="40.0728421" lon="-105.2305751">
  <ele>1605.37</ele>
  <time>2026-08-28T19:10:11Z</time>
  <course>11.36</course>
  <speed>0.0412310562561766</speed>
  <fix>3d</fix>
</trkpt>
<trkpt lat="40.0728423" lon="-105.2305751">
  <ele>1605.7</ele>
  <time>2026-08-28T19:10:11Z</time>
  <course>153.53</course>
  <speed>0.02</speed>
  <fix>3d</fix>
</trkpt>
<trkpt lat="40.072842" lon="-105.2305751">
  <ele>1605.06</ele>
  <time>2026-08-28T19:10:11Z</time>
  <course>11.35</course>
  <speed>0.0412310562561766</speed>
  <fix>3d</fix>
</trkpt>
<trkpt lat="40.0728423" lon="-105.2305751">
  <ele>1605.4</ele>
  <time>2026-08-28T19:10:11Z</time>
  <course>148.0</course>
  <speed>0.02</speed>
  <fix>3d</fix>
</trkpt>
<trkpt lat="40.072842" lon="-105.2305751">
  <ele>1604.76</ele>
  <time>2026-08-28T19:10:11Z</time>
  <course>11.33</course>
  <speed>0.0316227766016838</speed>
  <fix>3d</fix>
</trkpt>
<trkpt lat="40.0728422" lon="-105.2305751">
  <ele>1605.1</ele>
  <time>2026-08-28T19:10:11Z</time>
  <course>140.18</course>
  <speed>0.01</speed>
  <fix>3d</fix>
</trkpt>
<trkpt lat="40.072842" lon="-105.230575">
  <ele>1604.46</ele>
  <time>2026-08-28T19:10:11Z</time>
  <course>11.29</course>
  <speed>0.0316227766016838</speed>
  <fix>3d</fix>
</trkpt>
<trkpt lat="40.0728421" lon="-105.2305751">
  <ele>1604.8</ele>
  <time>2026-08-28T19:10:11Z</time>
  <course>130.15</course>
  <speed>0.01</speed>
  <fix>3d</fix>
</trkpt>
<trkpt lat="40.072842" lon="-105.230575">
  <ele>1604.15</ele>
  <time>2026-08-28T19:10:11Z</time>
  <course>11.28</course>
  <speed>0.022360679774997897</speed>
  <fix>3d</fix>
</trkpt>
<trkpt lat="40.0728421" lon="-105.2305751">
  <ele>1604.5</ele>
  <time>2026-08-28T19:10:11Z</time>
  <course>116.81</course>
  <speed>0.01</speed>
  <fix>3d</fix>
</trkpt>
<trkpt lat="40.072842" lon="-105.230575">
  <ele>1603.86</ele>
  <time>2026-08-28T19:10:11Z</time>
  <course>11.26</course>
  <speed>0.022360679774997897</speed>
  <fix>3d</fix>
</trkpt>
<trkpt lat="40.0728421" lon="-105.2305751">
  <ele>1604.2</ele>
  <time>2026-08-28T19:10:11Z</time>
  <course>93.72</course>
  <speed>0.0</speed>
  <fix>3d</fix>
</trkpt>
<trkpt lat="40.072842" lon="-105.230575">
  <ele>1603.56</ele>
  <time>2026-08-28T19:10:11Z</time>
  <course>11.25</course>
  <speed>0.02</speed>
  <fix>3d</fix>
</trkpt>
<trkpt lat="40.0728421" lon="-105.2305751">
  <ele>1603.9</ele>
  <time>2026-08-28T19:10:11Z</time>
  <course>63.94</course>
  <speed>0.0</speed>
  <fix>3d</fix>
</trkpt>
<trkpt lat="40.072842" lon="-105.230575">
  <ele>1603.26</ele>
  <time>2026-08-28T19:10:11Z</time>
  <course>11.23</course>
  <speed>0.01</speed>
  <fix>3d</fix>
</trkpt>
<trkpt lat="40.0728421" lon="-105.2305751">
  <ele>1603.6</ele>
  <time>2026-08-28T19:10:11Z</time>
  <course>40.89</course>
  <speed>0.0</speed>
  <fix>3d</fix>
</trkpt>
<trkpt lat="40.072842" lon="-105.230575">
  <ele>1602.96</ele>
  <time>2026-08-28T19:10:11Z</time>
  <course>11.21</course>
  <speed>0.01</speed>
  <fix>3d</fix>
</trkpt>
<trkpt lat="40.0728421" lon="-105.230575">
  <ele>1603.31</ele>
  <time>2026-08-28T19:10:11Z</time>
  <course>27.61</course>
  <speed>0.01</speed>
  <fix>3d</fix>
</trkpt>
<trkpt lat="40.072842" lon="-105.230575">
  <ele>1602.66</ele>
  <time>2026-08-28T19:10:11Z</time>
  <course>11.2</course>
  <speed>0.01</speed>
  <fix>3d</fix>
</trkpt>
<trkpt lat="40.0728421" lon="-105.230575">
  <ele>1603.01</ele>
  <time>2026-08-28T19:10:11Z</time>
  <course>20.33</course>
  <speed>0.01</speed>
  <fix>3d</fix>
</trkpt>
<trkpt lat="40.072842" lon="-105.230575">
  <ele>1602.36</ele>
  <time>2026-08-28T19:10:11Z</time>
  <course>11.18</course>
  <speed>0.01</speed>
  <fix>3d</fix>
</trkpt>
<trkpt lat="40.0728421" lon="-105.230575">
  <ele>1602.71</ele>
  <time>2026-08-28T19:10:11Z</time>
  <course>16.0</course>
  <speed>0.01</speed>
  <fix>3d</fix>
</trkpt>
<trkpt lat="40.072842" lon="-105.230575">
  <ele>1602.06</ele>
  <time>2026-08-28T19:10:11Z</time>
  <course>11.16</course>
  <speed>0.01</speed>
  <fix>3d</fix>
</trkpt>
<trkpt lat="40.0728421" lon="-105.230575">
  <ele>1602.41</ele>
  <time>2026-08-28T19:10:11Z</time>
  <course>12.46</course>
  <speed>0.01</speed>
  <fix>3d</fix>
</trkpt>
<trkpt lat="40.072842" lon="-105.230575">
  <ele>1601.77</ele>
  <time>2026-08-28T19:10:11Z</time>
  <course>11.14</course>
  <speed>0.01</speed>
  <fix>3d</fix>
</trkpt>
<trkpt lat="40.0728422" lon="-105.230575">
  <ele>1602.11</ele>
  <time>2026-08-28T19:10:11Z</time>
  <course>8.72</course>
  <speed>0.01</speed>
  <fix>3d</fix>
</trkpt>
<trkpt lat="40.072842" lon="-105.230575">
  <ele>1601.48</ele>
  <time>2026-08-28T19:10:11Z</time>
  <course>11.14</course>
  <speed>0.01</speed>
  <fix>3d</fix>
</trkpt>
<trkpt lat="40.0728423" lon="-105.230575">
  <ele>1601.81</ele>
  <time>2026-08-28T19:10:11Z</time>
  <course>5.24</course>
  <speed>0.01</speed>
  <fix>3d</fix>
</trkpt>
<trkpt lat="40.0728421" lon="-105.230575">
  <ele>1601.18</ele>
  <time>2026-08-28T19:10:11Z</time>
  <course>11.14</course>
  <speed>0.01</speed>
  <fix>3d</fix>
</trkpt>
<trkpt lat="40.0728423" lon="-105.230575">
  <ele>1601.51</ele>
  <time>2026-08-28T19:10:11Z</time>
  <course>2.13</course>
  <speed>0.01</speed>
  <fix>3d</fix>
</trkpt>
<trkpt lat="40.0728421" lon="-105.230575">
  <ele>1600.88</ele>
  <time>2026-08-28T19:10:11Z</time>
  <course>11.13</course>
  <speed>0.01</speed>
  <fix>3d</fix>
</trkpt>
<trkpt lat="40.0728423" lon="-105.230575">
  <ele>1601.21</ele>
  <time>2026-08-28T19:10:11Z</time>
  <course>0.04</course>
  <speed>0.01</speed>
  <fix>3d</fix>
</trkpt>
<trkpt lat="40.0728421" lon="-105.230575">
  <ele>1600.58</ele>
  <time>2026-08-28T19:10:11Z</time>
  <course>11.11</course>
  <speed>0.01</speed>
  <fix>3d</fix>
</trkpt>
<trkpt lat="40.0728423" lon="-105.230575">
  <ele>1600.91</ele>
  <time>2026-08-28T19:10:11Z</time>
  <course>358.62</course>
  <speed>0.01</speed>
  <fix>3d</fix>
</trkpt>
<trkpt lat="40.0728421" lon="-105.230575">
  <ele>1600.28</ele>
  <time>2026-08-28T19:10:11Z</time>
  <course>11.09</course>
  <speed>0.01</speed>
  <fix>3d</fix>
</trkpt>
<trkpt lat="40.0728424" lon="-105.230575">
  <ele>1600.6</ele>
  <time>2026-08-28T19:10:11Z</time>
  <course>356.54</course>
  <speed>0.01</speed>
  <fix>3d</fix>
</trkpt>
<trkpt lat="40.0728421" lon="-105.230575">
  <ele>1599.98</ele>
  <time>2026-08-28T19:10:11Z</time>
  <course>11.09</course>
  <speed>0.01</speed>
  <fix>3d</fix>
</trkpt>
<trkpt lat="40.0728424" lon="-105.230575">
  <ele>1600.3</ele>
  <time>2026-08-28T19:10:11Z</time>
  <course>353.25</course>
  <speed>0.01</speed>
  <fix>3d</fix>
</trkpt>
<trkpt lat="40.0728422" lon="-105.230575">
  <ele>1599.67</ele>
  <time>2026-08-28T19:10:11Z</time>
  <course>11.08</course>
  <speed>0.02</speed>
  <fix>3d</fix>
</trkpt>
<trkpt lat="40.0728424" lon="-105.230575">
  <ele>1600.0</ele>
  <time>2026-08-28T19:10:11Z</time>
  <course>348.31</course>
  <speed>0.0</speed>
  <fix>3d</fix>
</trkpt>
<trkpt lat="40.0728422" lon="-105.230575">
  <ele>1599.37</ele>
  <time>2026-08-28T19:10:11Z</time>
  <course>11.05</course>
  <speed>0.02</speed>
  <fix>3d</fix>
</trkpt>
<trkpt lat="40.0728424" lon="-105.230575">
  <ele>1599.69</ele>
  <time>2026-08-28T19:10:11Z</time>
  <course>341.64</course>
  <speed>0.0</speed>
  <fix>3d</fix>
</trkpt>
<trkpt lat="40.0728422" lon="-105.230575">
  <ele>1599.06</ele>
  <time>2026-08-28T19:10:11Z</time>
  <course>11.03</course>
  <speed>0.02</speed>
  <fix>3d</fix>
</trkpt>
<trkpt lat="40.0728424" lon="-105.230575">
  <ele>1599.39</ele>
  <time>2026-08-28T19:10:11Z</time>
  <course>323.51</course>
  <speed>0.0</speed>
  <fix>3d</fix>
</trkpt>
<trkpt lat="40.0728422" lon="-105.230575">
  <ele>1598.76</ele>
  <time>2026-08-28T19:10:11Z</time>
  <course>11.0</course>
  <speed>0.02</speed>
  <fix>3d</fix>
</trkpt>
<trkpt lat="40.0728424" lon="-105.230575">
  <ele>1599.09</ele>
  <time>2026-08-28T19:10:11Z</time>
  <course>285.28</course>
  <speed>0.0</speed>
  <fix>3d</fix>
</trkpt>
<trkpt lat="40.0728422" lon="-105.230575">
  <ele>1598.46</ele>
  <time>2026-08-28T19:10:11Z</time>
  <course>10.99</course>
  <speed>0.02</speed>
  <fix>3d</fix>
</trkpt>
<trkpt lat="40.0728424" lon="-105.230575">
  <ele>1598.79</ele>
  <time>2026-08-28T19:10:11Z</time>
  <course>251.25</course>
  <speed>0.0</speed>
  <fix>3d</fix>
</trkpt>
<trkpt lat="40.0728422" lon="-105.230575">
  <ele>1598.15</ele>
  <time>2026-08-28T19:10:11Z</time>
  <course>10.98</course>
  <speed>0.03</speed>
  <fix>3d</fix>
</trkpt>
<trkpt lat="40.0728424" lon="-105.230575">
  <ele>1598.49</ele>
  <time>2026-08-28T19:10:11Z</time>
  <course>235.51</course>
  <speed>0.0</speed>
  <fix>3d</fix>
</trkpt>
<trkpt lat="40.0728422" lon="-105.230575">
  <ele>1597.85</ele>
  <time>2026-08-28T19:10:11Z</time>
  <course>10.97</course>
  <speed>0.03</speed>
  <fix>3d</fix>
</trkpt>
<trkpt lat="40.0728424" lon="-105.230575">
  <ele>1598.19</ele>
  <time>2026-08-28T19:10:11Z</time>
  <course>227.7</course>
  <speed>0.0</speed>
  <fix>3d</fix>
</trkpt>
<trkpt lat="40.0728422" lon="-105.230575">
  <ele>1597.55</ele>
  <time>2026-08-28T19:10:11Z</time>
  <course>10.94</course>
  <speed>0.03</speed>
  <fix>3d</fix>
</trkpt>
<trkpt lat="40.0728424" lon="-105.230575">
  <ele>1597.89</ele>
  <time>2026-08-28T19:10:11Z</time>
  <course>221.03</course>
  <speed>0.0</speed>
  <fix>3d</fix>
</trkpt>
<trkpt lat="40.0728422" lon="-105.230575">
  <ele>1597.26</ele>
  <time>2026-08-28T19:10:11Z</time>
  <course>10.75</course>
  <speed>0.03</speed>
  <fix>3d</fix>
</trkpt>
<trkpt lat="40.0728424" lon="-105.230575">
  <ele>1597.59</ele>
  <time>2026-08-28T19:10:11Z</time>
  <course>213.33</course>
  <speed>0.0</speed>
  <fix>3d</fix>
</trkpt>
<trkpt lat="40.0728422" lon="-105.230575">
  <ele>1596.99</ele>
  <time>2026-08-28T19:10:11Z</time>
  <course>10.4</course>
  <speed>0.03</speed>
  <fix>3d</fix>
</trkpt>
<trkpt lat="40.0728424" lon="-105.230575">
  <ele>1597.3</ele>
  <time>2026-08-28T19:10:11Z</time>
  <course>205.27</course>
  <speed>0.0</speed>
  <fix>3d</fix>
</trkpt>
<trkpt lat="40.0728422" lon="-105.230575">
  <ele>1596.76</ele>
  <time>2026-08-28T19:10:11Z</time>
  <course>10.05</course>
  <speed>0.03</speed>
  <fix>3d</fix>
</trkpt>
<trkpt lat="40.0728424" lon="-105.230575">
  <ele>1597.03</ele>
  <time>2026-08-28T19:10:11Z</time>
  <course>206.16</course>
  <speed>0.0</speed>
  <fix>3d</fix>
</trkpt>
<trkpt lat="40.0728422" lon="-105.230575">
  <ele>1596.58</ele>
  <time>2026-08-28T19:10:11Z</time>
  <course>9.72</course>
  <speed>0.03</speed>
  <fix>3d</fix>
</trkpt>
<trkpt lat="40.0728424" lon="-105.230575">
  <ele>1596.8</ele>
  <time>2026-08-28T19:10:11Z</time>
  <course>219.28</course>
  <speed>0.01</speed>
  <fix>3d</fix>
</trkpt>
<trkpt lat="40.0728422" lon="-105.230575">
  <ele>1596.44</ele>
  <time>2026-08-28T19:10:11Z</time>
  <course>9.43</course>
  <speed>0.03</speed>
  <fix>3d</fix>
</trkpt>
<trkpt lat="40.0728424" lon="-105.230575">
  <ele>1596.61</ele>
  <time>2026-08-28T19:10:11Z</time>
  <course>233.53</course>
  <speed>0.01</speed>
  <fix>3d</fix>
</trkpt>
<trkpt lat="40.0728422" lon="-105.230575">
  <ele>1596.33</ele>
  <time>2026-08-28T19:10:11Z</time>
  <course>9.4</course>
  <speed>0.0316227766016838</speed>
  <fix>3d</fix>
</trkpt>
<trkpt lat="40.0728424" lon="-105.230575">
  <ele>1596.47</ele>
  <time>2026-08-28T19:10:11Z</time>
  <course>244.37</course>
  <speed>0.02</speed>
  <fix>3d</fix>
</trkpt>
<trkpt lat="40.0728422" lon="-105.2305751">
  <ele>1596.25</ele>
  <time>2026-08-28T19:10:11Z</time>
  <course>9.45</course>
  <speed>0.03605551275463989</speed>
  <fix>3d</fix>
</trkpt>
<trkpt lat="40.0728424" lon="-105.2305751">
  <ele>1596.36</ele>
  <time>2026-08-28T19:10:11Z</time>
  <course>250.99</course>
  <speed>0.03</speed>
  <fix>3d</fix>
</trkpt>
<trkpt lat="40.0728422" lon="-105.2305751">
  <ele>1596.17</ele>
  <time>2026-08-28T19:10:11Z</time>
  <course>9.56</course>
  <speed>0.03605551275463989</speed>
  <fix>3d</fix>
</trkpt>
<trkpt lat="40.0728424" lon="-105.2305751">
  <ele>1596.27</ele>
  <time>2026-08-28T19:10:11Z</time>
  <course>254.73</course>
  <speed>0.03</speed>
  <fix>3d</fix>
</trkpt>
<trkpt lat="40.0728422" lon="-105.2305752">
  <ele>1596.09</ele>
  <time>2026-08-28T19:10:11Z</time>
  <course>9.63</course>
  <speed>0.03605551275463989</speed>
  <fix>3d</fix>
</trkpt>
<trkpt lat="40.0728424" lon="-105.2305752">
  <ele>1596.19</ele>
  <time>2026-08-28T19:10:11Z</time>
  <course>257.09</course>
  <speed>0.03</speed>
  <fix>3d</fix>
</trkpt>
<trkpt lat="40.0728422" lon="-105.2305753">
  <ele>1596.02</ele>
  <time>2026-08-28T19:10:11Z</time>
  <course>9.7</course>
  <speed>0.0282842712474619</speed>
  <fix>3d</fix>
</trkpt>
<trkpt lat="40.0728424" lon="-105.2305753">
  <ele>1596.12</ele>
  <time>2026-08-28T19:10:11Z</time>
  <course>258.56</course>
  <speed>0.04</speed>
  <fix>3d</fix>
</trkpt>
<trkpt lat="40.0728422" lon="-105.2305754">
  <ele>1595.94</ele>
  <time>2026-08-28T19:10:11Z</time>
  <course>9.76</course>
  <speed>0.0282842712474619</speed>
  <fix>3d</fix>
</trkpt>
<trkpt lat="40.0728423" lon="-105.2305754">
  <ele>1596.05</ele>
  <time>2026-08-28T19:10:11Z</time>
  <course>259.47</course>
  <speed>0.03</speed>
  <fix>3d</fix>
</trkpt>
<trkpt lat="40.0728422" lon="-105.2305754">
  <ele>1595.85</ele>
  <time>2026-08-28T19:10:11Z</time>
  <course>9.78</course>
  <speed>0.022360679774997897</speed>
  <fix>3d</fix>
</trkpt>
<trkpt lat="40.0728423" lon="-105.2305755">
  <ele>1595.96</ele>
  <time>2026-08-28T19:10:11Z</time>
  <course>259.6</course>
  <speed>0.03</speed>
  <fix>3d</fix>
</trkpt>
<trkpt lat="40.0728422" lon="-105.2305755">
  <ele>1595.76</ele>
  <time>2026-08-28T19:10:12Z</time>
  <course>9.85</course>
  <speed>0.022360679774997897</speed>
  <fix>3d</fix>
</trkpt>
<trkpt lat="40.0728423" lon="-105.2305756">
  <ele>1595.87</ele>
  <time>2026-08-28T19:10:12Z</time>
  <course>258.96</course>
  <speed>0.03</speed>
  <fix>3d</fix>
</trkpt>
<trkpt lat="40.0728422" lon="-105.2305755">
  <ele>1595.67</ele>
  <time>2026-08-28T19:10:12Z</time>
  <course>9.89</course>
  <speed>0.02</speed>
  <fix>3d</fix>
</trkpt>
<trkpt lat="40.0728423" lon="-105.2305756">
  <ele>1595.78</ele>
  <time>2026-08-28T19:10:12Z</time>
  <course>258.02</course>
  <speed>0.02</speed>
  <fix>3d</fix>
</trkpt>
<trkpt lat="40.0728422" lon="-105.2305756">
  <ele>1595.57</ele>
  <time>2026-08-28T19:10:12Z</time>
  <course>9.9</course>
  <speed>0.02</speed>
  <fix>3d</fix>
</trkpt>
<trkpt lat="40.0728423" lon="-105.2305757">
  <ele>1595.69</ele>
  <time>2026-08-28T19:10:12Z</time>
  <course>256.58</course>
  <speed>0.01</speed>
  <fix>3d</fix>
</trkpt>
<trkpt lat="40.0728422" lon="-105.2305756">
  <ele>1595.47</ele>
  <time>2026-08-28T19:10:12Z</time>
  <course>9.9</course>
  <speed>0.02</speed>
  <fix>3d</fix>
</trkpt>
<trkpt lat="40.0728423" lon="-105.2305758">
  <ele>1595.59</ele>
  <time>2026-08-28T19:10:12Z</time>
  <course>254.41</course>
  <speed>0.01</speed>
  <fix>3d</fix>
</trkpt>
<trkpt lat="40.0728422" lon="-105.2305756">
  <ele>1595.37</ele>
  <time>2026-08-28T19:10:12Z</time>
  <course>9.9</course>
  <speed>0.022360679774997897</speed>
  <fix>3d</fix>
</trkpt>
<trkpt lat="40.0728423" lon="-105.2305758">
  <ele>1595.49</ele>
  <time>2026-08-28T19:10:12Z</time>
  <course>247.04</course>
  <speed>0.0</speed>
  <fix>3d</fix>
</trkpt>
<trkpt lat="40.0728422" lon="-105.2305756">
  <ele>1595.27</ele>
  <time>2026-08-28T19:10:12Z</time>
  <course>9.93</course>
  <speed>0.0282842712474619</speed>
  <fix>3d</fix>
</trkpt>
<trkpt lat="40.0728423" lon="-105.2305758">
  <ele>1595.38</ele>
  <time>2026-08-28T19:10:12Z</time>
  <course>168.77</course>
  <speed>0.0</speed>
  <fix>3d</fix>
</trkpt>
<trkpt lat="40.0728422" lon="-105.2305756">
  <ele>1595.17</ele>
  <time>2026-08-28T19:10:12Z</time>
  <course>9.93</course>
  <speed>0.0282842712474619</speed>
  <fix>3d</fix>
</trkpt>
<trkpt lat="40.0728423" lon="-105.2305758">
  <ele>1595.29</ele>
  <time>2026-08-28T19:10:12Z</time>
  <course>101.11</course>
  <speed>0.0</speed>
  <fix>3d</fix>
</trkpt>
<trkpt lat="40.0728422" lon="-105.2305756">
  <ele>1595.07</ele>
  <time>2026-08-28T19:10:12Z</time>
  <course>9.94</course>
  <speed>0.0282842712474619</speed>
  <fix>3d</fix>
</trkpt>
<trkpt lat="40.0728423" lon="-105.2305758">
  <ele>1595.19</ele>
  <time>2026-08-28T19:10:12Z</time>
  <course>93.86</course>
  <speed>0.01</speed>
  <fix>3d</fix>
</trkpt>
<trkpt lat="40.0728422" lon="-105.2305756">
  <ele>1594.97</ele>
  <time>2026-08-28T19:10:12Z</time>
  <course>9.94</course>
  <speed>0.03605551275463989</speed>
  <fix>3d</fix>
</trkpt>
<trkpt lat="40.0728423" lon="-105.2305758">
  <ele>1595.09</ele>
  <time>2026-08-28T19:10:12Z</time>
  <course>91.68</course>
  <speed>0.01</speed>
  <fix>3d</fix>
</trkpt>
<trkpt lat="40.0728422" lon="-105.2305756">
  <ele>1594.87</ele>
  <time>2026-08-28T19:10:12Z</time>
  <course>9.94</course>
  <speed>0.03605551275463989</speed>
  <fix>3d</fix>
</trkpt>
<trkpt lat="40.0728423" lon="-105.2305758">
  <ele>1594.99</ele>
  <time>2026-08-28T19:10:12Z</time>
  <course>91.14</course>
  <speed>0.02</speed>
  <fix>3d</fix>
</trkpt>
<trkpt lat="40.0728422" lon="-105.2305755">
  <ele>1594.77</ele>
  <time>2026-08-28T19:10:12Z</time>
  <course>9.96</course>
  <speed>0.03605551275463989</speed>
  <fix>3d</fix>
</trkpt>
<trkpt lat="40.0728423" lon="-105.2305757">
  <ele>1594.88</ele>
  <time>2026-08-28T19:10:12Z</time>
  <course>91.01</course>
  <speed>0.02</speed>
  <fix>3d</fix>
</trkpt>
<trkpt lat="40.0728422" lon="-105.2305755">
  <ele>1594.66</ele>
  <time>2026-08-28T19:10:12Z</time>
  <course>9.95</course>
  <speed>0.03605551275463989</speed>
  <fix>3d</fix>
</trkpt>
<trkpt lat="40.0728423" lon="-105.2305756">
  <ele>1594.78</ele>
  <time>2026-08-28T19:10:12Z</time>
  <course>91.0</course>
  <speed>0.02</speed>
  <fix>3d</fix>
</trkpt>
<trkpt lat="40.0728422" lon="-105.2305754">
  <ele>1594.57</ele>
  <time>2026-08-28T19:10:12Z</time>
  <course>9.97</course>
  <speed>0.03605551275463989</speed>
  <fix>3d</fix>
</trkpt>
<trkpt lat="40.0728423" lon="-105.2305756">
  <ele>1594.67</ele>
  <time>2026-08-28T19:10:12Z</time>
  <course>91.27</course>
  <speed>0.02</speed>
  <fix>3d</fix>
</trkpt>
<trkpt lat="40.0728422" lon="-105.2305753">
  <ele>1594.47</ele>
  <time>2026-08-28T19:10:12Z</time>
  <course>9.96</course>
  <speed>0.03605551275463989</speed>
  <fix>3d</fix>
</trkpt>
<trkpt lat="40.0728423" lon="-105.2305755">
  <ele>1594.58</ele>
  <time>2026-08-28T19:10:12Z</time>
  <course>91.79</course>
  <speed>0.02</speed>
  <fix>3d</fix>
</trkpt>
<trkpt lat="40.0728422" lon="-105.2305753">
  <ele>1594.37</ele>
  <time>2026-08-28T19:10:12Z</time>
  <course>10.0</course>
  <speed>0.03605551275463989</speed>
  <fix>3d</fix>
</trkpt>
<trkpt lat="40.0728423" lon="-105.2305755">
  <ele>1594.48</ele>
  <time>2026-08-28T19:10:12Z</time>
  <course>92.36</course>
  <speed>0.02</speed>
  <fix>3d</fix>
</trkpt>
<trkpt lat="40.0728422" lon="-105.2305752">
  <ele>1594.27</ele>
  <time>2026-08-28T19:10:12Z</time>
  <course>10.0</course>
  <speed>0.03605551275463989</speed>
  <fix>3d</fix>
</trkpt>
<trkpt lat="40.0728423" lon="-105.2305754">
  <ele>1594.38</ele>
  <time>2026-08-28T19:10:12Z</time>
  <course>93.34</course>
  <speed>0.02</speed>
  <fix>3d</fix>
</trkpt>
<trkpt lat="40.0728422" lon="-105.2305752">
  <ele>1594.17</ele>
  <time>2026-08-28T19:10:12Z</time>
  <course>9.99</course>
  <speed>0.03605551275463989</speed>
  <fix>3d</fix>
</trkpt>
<trkpt lat="40.0728423" lon="-105.2305753">
  <ele>1594.28</ele>
  <time>2026-08-28T19:10:12Z</time>
  <course>94.51</course>
  <speed>0.02</speed>
  <fix>3d</fix>
</trkpt>
<trkpt lat="40.0728422" lon="-105.2305751">
  <ele>1594.07</ele>
  <time>2026-08-28T19:10:12Z</time>
  <course>10.01</course>
  <speed>0.03605551275463989</speed>
  <fix>3d</fix>
</trkpt>
<trkpt lat="40.0728423" lon="-105.2305753">
  <ele>1594.17</ele>
  <time>2026-08-28T19:10:12Z</time>
  <course>95.8</course>
  <speed>0.02</speed>
  <fix>3d</fix>
</trkpt>
<trkpt lat="40.0728422" lon="-105.2305751">
  <ele>1593.97</ele>
  <time>2026-08-28T19:10:12Z</time>
  <course>10.02</course>
  <speed>0.0282842712474619</speed>
  <fix>3d</fix>
</trkpt>
<trkpt lat="40.0728423" lon="-105.2305753">
  <ele>1594.08</ele>
  <time>2026-08-28T19:10:12Z</time>
  <course>97.4</course>
  <speed>0.02</speed>
  <fix>3d</fix>
</trkpt>
<trkpt lat="40.0728422" lon="-105.2305751">
  <ele>1593.87</ele>
  <time>2026-08-28T19:10:12Z</time>
  <course>10.02</course>
  <speed>0.0282842712474619</speed>
  <fix>3d</fix>
</trkpt>
<trkpt lat="40.0728423" lon="-105.2305752">
  <ele>1593.98</ele>
  <time>2026-08-28T19:10:12Z</time>
  <course>99.13</course>
  <speed>0.01</speed>
  <fix>3d</fix>
</trkpt>
<trkpt lat="40.0728422" lon="-105.230575">
  <ele>1593.77</ele>
  <time>2026-08-28T19:10:12Z</time>
  <course>10.03</course>
  <speed>0.0282842712474619</speed>
  <fix>3d</fix>
</trkpt>
<trkpt lat="40.0728423" lon="-105.2305751">
  <ele>1593.88</ele>
  <time>2026-08-28T19:10:12Z</time>
  <course>101.33</course>
  <speed>0.01</speed>
  <fix>3d</fix>
</trkpt>
<trkpt lat="40.0728422" lon="-105.230575">
  <ele>1593.66</ele>
  <time>2026-08-28T19:10:12Z</time>
  <course>10.04</course>
  <speed>0.0282842712474619</speed>
  <fix>3d</fix>
</trkpt>
<trkpt lat="40.0728422" lon="-105.2305751">
  <ele>1593.78</ele>
  <time>2026-08-28T19:10:12Z</time>
  <course>104.31</course>
  <speed>0.01</speed>
  <fix>3d</fix>
</trkpt>
<trkpt lat="40.0728422" lon="-105.230575">
  <ele>1593.57</ele>
  <time>2026-08-28T19:10:12Z</time>
  <course>10.03</course>
  <speed>0.022360679774997897</speed>
  <fix>3d</fix>
</trkpt>
<trkpt lat="40.0728421" lon="-105.2305751">
  <ele>1593.67</ele>
  <time>2026-08-28T19:10:12Z</time>
  <course>108.19</course>
  <speed>0.01</speed>
  <fix>3d</fix>
</trkpt>
<trkpt lat="40.0728421" lon="-105.230575">
  <ele>1593.47</ele>
  <time>2026-08-28T19:10:12Z</time>
  <course>10.04</course>
  <speed>0.022360679774997897</speed>
  <fix>3d</fix>
</trkpt>
<trkpt lat="40.0728421" lon="-105.2305751">
  <ele>1593.58</ele>
  <time>2026-08-28T19:10:12Z</time>
  <course>113.48</course>
  <speed>0.0</speed>
  <fix>3d</fix>
</trkpt>
<trkpt lat="40.0728421" lon="-105.230575">
  <ele>1593.37</ele>
  <time>2026-08-28T19:10:12Z</time>
  <course>10.05</course>
  <speed>0.022360679774997897</speed>
  <fix>3d</fix>
</trkpt>
<trkpt lat="40.0728421" lon="-105.2305751">
  <ele>1593.47</ele>
  <time>2026-08-28T19:10:12Z</time>
  <course>120.9</course>
  <speed>0.0</speed>
  <fix>3d</fix>
</trkpt>
<trkpt lat="40.0728421" lon="-105.230575">
  <ele>1593.27</ele>
  <time>2026-08-28T19:10:12Z</time>
  <course>10.06</course>
  <speed>0.022360679774997897</speed>
  <fix>3d</fix>
</trkpt>
<trkpt lat="40.0728421" lon="-105.2305751">
  <ele>1593.37</ele>
  <time>2026-08-28T19:10:12Z</time>
  <course>128.89</course>
  <speed>0.0</speed>
  <fix>3d</fix>
</trkpt>
<trkpt lat="40.0728421" lon="-105.230575">
  <ele>1593.17</ele>
  <time>2026-08-28T19:10:12Z</time>
  <course>10.07</course>
  <speed>0.02</speed>
  <fix>3d</fix>
</trkpt>
<trkpt lat="40.0728421" lon="-105.2305751">
  <ele>1593.27</ele>
  <time>2026-08-28T19:10:12Z</time>
  <course>134.68</course>
  <speed>0.0</speed>
  <fix>3d</fix>
</trkpt>
<trkpt lat="40.0728421" lon="-105.230575">
  <ele>1593.07</ele>
  <time>2026-08-28T19:10:12Z</time>
  <course>10.06</course>
  <speed>0.02</speed>
  <fix>3d</fix>
</trkpt>
<trkpt lat="40.0728421" lon="-105.2305751">
  <ele>1593.16</ele>
  <time>2026-08-28T19:10:12Z</time>
  <course>202.02</course>
  <speed>0.0</speed>
  <fix>3d</fix>
</trkpt>
<trkpt lat="40.0728421" lon="-105.230575">
  <ele>1592.97</ele>
  <time>2026-08-28T19:10:12Z</time>
  <course>10.08</course>
  <speed>0.01</speed>
  <fix>3d</fix>
</trkpt>
<trkpt lat="40.0728421" lon="-105.2305751">
  <ele>1593.07</ele>
  <time>2026-08-28T19:10:12Z</time>
  <course>309.38</course>
  <speed>0.0</speed>
  <fix>3d</fix>
</trkpt>
<trkpt lat="40.0728421" lon="-105.230575">
  <ele>1592.87</ele>
  <time>2026-08-28T19:10:12Z</time>
  <course>10.09</course>
  <speed>0.01</speed>
  <fix>3d</fix>
</trkpt>
<trkpt lat="40.0728421" lon="-105.2305751">
  <ele>1592.97</ele>
  <time>2026-08-28T19:10:12Z</time>
  <course>318.24</course>
  <speed>0.0</speed>
  <fix>3d</fix>
</trkpt>
<trkpt lat="40.0728421" lon="-105.230575">
  <ele>1592.77</ele>
  <time>2026-08-28T19:10:12Z</time>
  <course>10.09</course>
  <speed>0.01</speed>
  <fix>3d</fix>
</trkpt>
<trkpt lat="40.0728421" lon="-105.2305751">
  <ele>1592.87</ele>
  <time>2026-08-28T19:10:12Z</time>
  <course>324.83</course>
  <speed>0.0</speed>
  <fix>3d</fix>
</trkpt>
<trkpt lat="40.0728421" lon="-105.230575">
  <ele>1592.67</ele>
  <time>2026-08-28T19:10:12Z</time>
  <course>10.08</course>
  <speed>0.01</speed>
  <fix>3d</fix>
</trkpt>
<trkpt lat="40.0728421" lon="-105.2305751">
  <ele>1592.76</ele>
  <time>2026-08-28T19:10:12Z</time>
  <course>326.44</course>
  <speed>0.0</speed>
  <fix>3d</fix>
</trkpt>
<trkpt lat="40.0728421" lon="-105.230575">
  <ele>1592.57</ele>
  <time>2026-08-28T19:10:12Z</time>
  <course>10.09</course>
  <speed>0.01</speed>
  <fix>3d</fix>
</trkpt>
<trkpt lat="40.0728421" lon="-105.2305751">
  <ele>1592.65</ele>
  <time>2026-08-28T19:10:12Z</time>
  <course>328.31</course>
  <speed>0.0</speed>
  <fix>3d</fix>
</trkpt>
<trkpt lat="40.0728421" lon="-105.230575">
  <ele>1592.47</ele>
  <time>2026-08-28T19:10:12Z</time>
  <course>10.11</course>
  <speed>0.01</speed>
  <fix>3d</fix>
</trkpt>
<trkpt lat="40.0728421" lon="-105.2305751">
  <ele>1592.56</ele>
  <time>2026-08-28T19:10:12Z</time>
  <course>330.71</course>
  <speed>0.0</speed>
  <fix>3d</fix>
</trkpt>
<trkpt lat="40.0728421" lon="-105.230575">
  <ele>1592.37</ele>
  <time>2026-08-28T19:10:12Z</time>
  <course>10.12</course>
  <speed>0.01</speed>
  <fix>3d</fix>
</trkpt>
<trkpt lat="40.0728421" lon="-105.2305751">
  <ele>1592.46</ele>
  <time>2026-08-28T19:10:12Z</time>
  <course>332.1</course>
  <speed>0.0</speed>
  <fix>3d</fix>
</trkpt>
<trkpt lat="40.0728421" lon="-105.230575">
  <ele>1592.27</ele>
  <time>2026-08-28T19:10:12Z</time>
  <course>10.12</course>
  <speed>0.01</speed>
  <fix>3d</fix>
</trkpt>
<trkpt lat="40.0728421" lon="-105.2305751">
  <ele>1592.36</ele>
  <time>2026-08-28T19:10:12Z</time>
  <course>332.91</course>
  <speed>0.01</speed>
  <fix>3d</fix>
</trkpt>
<trkpt lat="40.0728421" lon="-105.230575">
  <ele>1592.17</ele>
  <time>2026-08-28T19:10:12Z</time>
  <course>10.12</course>
  <speed>0.01</speed>
  <fix>3d</fix>
</trkpt>
<trkpt lat="40.0728421" lon="-105.2305751">
  <ele>1592.26</ele>
  <time>2026-08-28T19:10:12Z</time>
  <course>333.02</course>
  <speed>0.01</speed>
  <fix>3d</fix>
</trkpt>
<trkpt lat="40.0728421" lon="-105.230575">
  <ele>1592.07</ele>
  <time>2026-08-28T19:10:12Z</time>
  <course>10.12</course>
  <speed>0.01</speed>
  <fix>3d</fix>
</trkpt>
<trkpt lat="40.0728421" lon="-105.2305751">
  <ele>1592.15</ele>
  <time>2026-08-28T19:10:12Z</time>
  <course>333.9</course>
  <speed>0.01</speed>
  <fix>3d</fix>
</trkpt>
<trkpt lat="40.0728421" lon="-105.230575">
  <ele>1591.97</ele>
  <time>2026-08-28T19:10:12Z</time>
  <course>10.13</course>
  <speed>0.01</speed>
  <fix>3d</fix>
</trkpt>
<trkpt lat="40.0728422" lon="-105.2305751">
  <ele>1592.05</ele>
  <time>2026-08-28T19:10:12Z</time>
  <course>334.7</course>
  <speed>0.01</speed>
  <fix>3d</fix>
</trkpt>
<trkpt lat="40.0728421" lon="-105.230575">
  <ele>1591.87</ele>
  <time>2026-08-28T19:10:12Z</time>
  <course>10.14</course>
  <speed>0.01</speed>
  <fix>3d</fix>
</trkpt>
<trkpt lat="40.0728423" lon="-105.2305751">
  <ele>1591.95</ele>
  <time>2026-08-28T19:10:12Z</time>
  <course>334.54</course>
  <speed>0.01</speed>
  <fix>3d</fix>
</trkpt>
<trkpt lat="40.0728421" lon="-105.230575">
  <ele>1591.77</ele>
  <time>2026-08-28T19:10:12Z</time>
  <course>10.13</course>
  <speed>0.01</speed>
  <fix>3d</fix>
</trkpt>
<trkpt lat="40.0728423" lon="-105.2305751">
  <ele>1591.85</ele>
  <time>2026-08-28T19:10:12Z</time>
  <course>334.55</course>
  <speed>0.01</speed>
  <fix>3d</fix>
</trkpt>
<trkpt lat="40.0728421" lon="-105.230575">
  <ele>1591.66</ele>
  <time>2026-08-28T19:10:12Z</time>
  <course>10.14</course>
  <speed>0.01414213562373095</speed>
  <fix>3d</fix>
</trkpt>
<trkpt lat="40.0728423" lon="-105.2305751">
  <ele>1591.74</ele>
  <time>2026-08-28T19:10:12Z</time>
  <course>333.44</course>
  <speed>0.01</speed>
  <fix>3d</fix>
</trkpt>
<trkpt lat="40.0728421" lon="-105.230575">
  <ele>1591.56</ele>
  <time>2026-08-28T19:10:12Z</time>
  <course>10.13</course>
  <speed>0.01414213562373095</speed>
  <fix>3d</fix>
</trkpt>
<trkpt lat="40.0728423" lon="-105.2305751">
  <ele>1591.63</ele>
  <time>2026-08-28T19:10:12Z</time>
  <course>330.64</course>
  <speed>0.0</speed>
  <fix>3d</fix>
</trkpt>
<trkpt lat="40.0728421" lon="-105.230575">
  <ele>1591.46</ele>
  <time>2026-08-28T19:10:12Z</time>
  <course>10.13</course>
  <speed>0.01414213562373095</speed>
  <fix>3d</fix>
</trkpt>
<trkpt lat="40.0728423" lon="-105.2305751">
  <ele>1591.54</ele>
  <time>2026-08-28T19:10:12Z</time>
  <course>324.94</course>
  <speed>0.0</speed>
  <fix>3d</fix>
</trkpt>
<trkpt lat="40.0728421" lon="-105.230575">
  <ele>1591.37</ele>
  <time>2026-08-28T19:10:12Z</time>
  <course>10.15</course>
  <speed>0.01414213562373095</speed>
  <fix>3d</fix>
</trkpt>
<trkpt lat="40.0728423" lon="-105.2305751">
  <ele>1591.44</ele>
  <time>2026-08-28T19:10:12Z</time>
  <course>314.74</course>
  <speed>0.0</speed>
  <fix>3d</fix>
</trkpt>
<trkpt lat="40.0728421" lon="-105.230575">
  <ele>1591.27</ele>
  <time>2026-08-28T19:10:12Z</time>
  <course>10.15</course>
  <speed>0.022360679774997897</speed>
  <fix>3d</fix>
</trkpt>
<trkpt lat="40.0728424" lon="-105.2305751">
  <ele>1591.34</ele>
  <time>2026-08-28T19:10:12Z</time>
  <course>300.87</course>
  <speed>0.0</speed>
  <fix>3d</fix>
</trkpt>
<trkpt lat="40.0728421" lon="-105.230575">
  <ele>1591.17</ele>
  <time>2026-08-28T19:10:12Z</time>
  <course>10.16</course>
  <speed>0.022360679774997897</speed>
  <fix>3d</fix>
</trkpt>
<trkpt lat="40.0728424" lon="-105.2305751">
  <ele>1591.24</ele>
  <time>2026-08-28T19:10:12Z</time>
  <course>284.46</course>
  <speed>0.0</speed>
  <fix>3d</fix>
</trkpt>
<trkpt lat="40.0728421" lon="-105.230575">
  <ele>1591.07</ele>
  <time>2026-08-28T19:10:12Z</time>
  <course>10.17</course>
  <speed>0.022360679774997897</speed>
  <fix>3d</fix>
</trkpt>
<trkpt lat="40.0728424" lon="-105.2305751">
  <ele>1591.13</ele>
  <time>2026-08-28T19:10:12Z</time>
  <course>267.83</course>
  <speed>0.0</speed>
  <fix>3d</fix>
</trkpt>
<trkpt lat="40.0728421" lon="-105.230575">
  <ele>1590.97</ele>
  <time>2026-08-28T19:10:12Z</time>
  <course>10.16</course>
  <speed>0.022360679774997897</speed>
  <fix>3d</fix>
</trkpt>
<trkpt lat="40.0728424" lon="-105.2305751">
  <ele>1591.03</ele>
  <time>2026-08-28T19:10:12Z</time>
  <course>250.42</course>
  <speed>0.0</speed>
  <fix>3d</fix>
</trkpt>
<trkpt lat="40.0728422" lon="-105.230575">
  <ele>1590.87</ele>
  <time>2026-08-28T19:10:12Z</time>
  <course>10.16</course>
  <speed>0.022360679774997897</speed>
  <fix>3d</fix>
</trkpt>
<trkpt lat="40.0728424" lon="-105.2305751">
  <ele>1590.92</ele>
  <time>2026-08-28T19:10:12Z</time>
  <course>235.3</course>
  <speed>0.0</speed>
  <fix>3d</fix>
</trkpt>
<trkpt lat="40.0728422" lon="-105.230575">
  <ele>1590.77</ele>
  <time>2026-08-28T19:10:12Z</time>
  <course>10.18</course>
  <speed>0.022360679774997897</speed>
  <fix>3d</fix>
</trkpt>
<trkpt lat="40.0728424" lon="-105.2305751">
  <ele>1590.83</ele>
  <time>2026-08-28T19:10:12Z</time>
  <course>224.34</course>
  <speed>0.0</speed>
  <fix>3d</fix>
</trkpt>
<trkpt lat="40.0728422" lon="-105.230575">
  <ele>1590.67</ele>
  <time>2026-08-28T19:10:12Z</time>
  <course>10.18</course>
  <speed>0.022360679774997897</speed>
  <fix>3d</fix>
</trkpt>
<trkpt lat="40.0728424" lon="-105.2305751">
  <ele>1590.73</ele>
  <time>2026-08-28T19:10:12Z</time>
  <course>216.72</course>
  <speed>0.0</speed>
  <fix>3d</fix>
</trkpt>
<trkpt lat="40.0728422" lon="-105.230575">
  <ele>1590.57</ele>
  <time>2026-08-28T19:10:12Z</time>
  <course>10.19</course>
  <speed>0.022360679774997897</speed>
  <fix>3d</fix>
</trkpt>
<trkpt lat="40.0728424" lon="-105.2305751">
  <ele>1590.63</ele>
  <time>2026-08-28T19:10:12Z</time>
  <course>212.83</course>
  <speed>0.01</speed>
  <fix>3d</fix>
</trkpt>
<trkpt lat="40.0728422" lon="-105.230575">
  <ele>1590.47</ele>
  <time>2026-08-28T19:10:12Z</time>
  <course>10.2</course>
  <speed>0.022360679774997897</speed>
  <fix>3d</fix>
</trkpt>
<trkpt lat="40.0728424" lon="-105.2305752">
  <ele>1590.52</ele>
  <time>2026-08-28T19:10:12Z</time>
  <course>210.27</course>
  <speed>0.01</speed>
  <fix>3d</fix>
</trkpt>
<trkpt lat="40.0728422" lon="-105.230575">
  <ele>1590.37</ele>
  <time>2026-08-28T19:10:12Z</time>
  <course>10.19</course>
  <speed>0.022360679774997897</speed>
  <fix>3d</fix>
</trkpt>
<trkpt lat="40.0728424" lon="-105.2305753">
  <ele>1590.41</ele>
  <time>2026-08-28T19:10:12Z</time>
  <course>208.08</course>
  <speed>0.01</speed>
  <fix>3d</fix>
</trkpt>
<trkpt lat="40.0728422" lon="-105.230575">
  <ele>1590.27</ele>
  <time>2026-08-28T19:10:12Z</time>
  <course>10.19</course>
  <speed>0.022360679774997897</speed>
  <fix>3d</fix>
</trkpt>
<trkpt lat="40.0728424" lon="-105.2305753">
  <ele>1590.32</ele>
  <time>2026-08-28T19:10:12Z</time>
  <course>206.65</course>
  <speed>0.01</speed>
  <fix>3d</fix>
</trkpt>
<trkpt lat="40.0728422" lon="-105.230575">
  <ele>1590.16</ele>
  <time>2026-08-28T19:10:12Z</time>
  <course>10.18</course>
  <speed>0.022360679774997897</speed>
  <fix>3d</fix>
</trkpt>
<trkpt lat="40.0728423" lon="-105.2305753">
  <ele>1590.22</ele>
  <time>2026-08-28T19:10:12Z</time>
  <course>205.57</course>
  <speed>0.01</speed>
  <fix>3d</fix>
</trkpt>
<trkpt lat="40.0728422" lon="-105.2305751">
  <ele>1590.06</ele>
  <time>2026-08-28T19:10:12Z</time>
  <course>10.19</course>
  <speed>0.022360679774997897</speed>
  <fix>3d</fix>
</trkpt>
<trkpt lat="40.0728423" lon="-105.2305753">
  <ele>1590.11</ele>
  <time>2026-08-28T19:10:12Z</time>
  <course>202.53</course>
  <speed>0.01</speed>
  <fix>3d</fix>
</trkpt>
<trkpt lat="40.0728422" lon="-105.2305751">
  <ele>1589.96</ele>
  <time>2026-08-28T19:10:12Z</time>
  <course>10.18</course>
  <speed>0.022360679774997897</speed>
  <fix>3d</fix>
</trkpt>
<trkpt lat="40.0728423" lon="-105.2305753">
  <ele>1590.01</ele>
  <time>2026-08-28T19:10:12Z</time>
  <course>197.58</course>
  <speed>0.01</speed>
  <fix>3d</fix>
</trkpt>
<trkpt lat="40.0728421" lon="-105.2305751">
  <ele>1589.86</ele>
  <time>2026-08-28T19:10:12Z</time>
  <course>10.18</course>
  <speed>0.022360679774997897</speed>
  <fix>3d</fix>
</trkpt>
<trkpt lat="40.0728423" lon="-105.2305753">
  <ele>1589.9</ele>
  <time>2026-08-28T19:10:12Z</time>
  <course>193.29</course>
  <speed>0.01</speed>
  <fix>3d</fix>
</trkpt>
<trkpt lat="40.0728421" lon="-105.2305751">
  <ele>1589.76</ele>
  <time>2026-08-28T19:10:12Z</time>
  <course>10.18</course>
  <speed>0.022360679774997897</speed>
  <fix>3d</fix>
</trkpt>
<trkpt lat="40.0728422" lon="-105.2305753">
  <ele>1589.81</ele>
  <time>2026-08-28T19:10:12Z</time>
  <course>189.04</course>
  <speed>0.01</speed>
  <fix>3d</fix>
</trkpt>
<trkpt lat="40.0728421" lon="-105.2305751">
  <ele>1589.66</ele>
  <time>2026-08-28T19:10:12Z</time>
  <course>10.2</course>
  <speed>0.022360679774997897</speed>
  <fix>3d</fix>
</trkpt>
<trkpt lat="40.0728421" lon="-105.2305753">
  <ele>1589.71</ele>
  <time>2026-08-28T19:10:12Z</time>
  <course>185.59</course>
  <speed>0.01</speed>
  <fix>3d</fix>
</trkpt>
<trkpt lat="40.0728421" lon="-105.2305751">
  <ele>1589.55</ele>
  <time>2026-08-28T19:10:12Z</time>
  <course>10.18</course>
  <speed>0.022360679774997897</speed>
  <fix>3d</fix>
</trkpt>
<trkpt lat="40.0728421" lon="-105.2305753">
  <ele>1589.61</ele>
  <time>2026-08-28T19:10:12Z</time>
  <course>181.98</course>
  <speed>0.0</speed>
  <fix>3d</fix>
</trkpt>
<trkpt lat="40.0728421" lon="-105.2305751">
  <ele>1589.45</ele>
  <time>2026-08-28T19:10:12Z</time>
  <course>10.2</course>
  <speed>0.022360679774997897</speed>
  <fix>3d</fix>
</trkpt>
<trkpt lat="40.0728421" lon="-105.2305753">
  <ele>1589.51</ele>
  <time>2026-08-28T19:10:12Z</time>
  <course>176.86</course>
  <speed>0.0</speed>
  <fix>3d</fix>
</trkpt>
<trkpt lat="40.0728421" lon="-105.2305751">
  <ele>1589.35</ele>
  <time>2026-08-28T19:10:12Z</time>
  <course>10.19</course>
  <speed>0.022360679774997897</speed>
  <fix>3d</fix>
</trkpt>
<trkpt lat="40.0728421" lon="-105.2305753">
  <ele>1589.4</ele>
  <time>2026-08-28T19:10:12Z</time>
  <course>170.3</course>
  <speed>0.0</speed>
  <fix>3d</fix>
</trkpt>
<trkpt lat="40.072842" lon="-105.2305751">
  <ele>1589.25</ele>
  <time>2026-08-28T19:10:12Z</time>
  <course>10.2</course>
  <speed>0.01414213562373095</speed>
  <fix>3d</fix>
</trkpt>
<trkpt lat="40.0728421" lon="-105.2305753">
  <ele>1589.31</ele>
  <time>2026-08-28T19:10:12Z</time>
  <course>156.5</course>
  <speed>0.0</speed>
  <fix>3d</fix>
</trkpt>
<trkpt lat="40.072842" lon="-105.2305751">
  <ele>1589.16</ele>
  <time>2026-08-28T19:10:12Z</time>
  <course>10.19</course>
  <speed>0.01414213562373095</speed>
  <fix>3d</fix>
</trkpt>
<trkpt lat="40.0728421" lon="-105.2305753">
  <ele>1589.21</ele>
  <time>2026-08-28T19:10:12Z</time>
  <course>112.7</course>
  <speed>0.0</speed>
  <fix>3d</fix>
</trkpt>
<trkpt lat="40.072842" lon="-105.2305751">
  <ele>1589.06</ele>
  <time>2026-08-28T19:10:12Z</time>
  <course>10.2</course>
  <speed>0.01414213562373095</speed>
  <fix>3d</fix>
</trkpt>
<trkpt lat="40.0728421" lon="-105.2305753">
  <ele>1589.11</ele>
  <time>2026-08-28T19:10:12Z</time>
  <course>54.76</course>
  <speed>0.0</speed>
  <fix>3d</fix>
</trkpt>
<trkpt lat="40.072842" lon="-105.2305751">
  <ele>1588.96</ele>
  <time>2026-08-28T19:10:12Z</time>
  <course>10.2</course>
  <speed>0.01414213562373095</speed>
  <fix>3d</fix>
</trkpt>
<trkpt lat="40.0728421" lon="-105.2305753">
  <ele>1589.01</ele>
  <time>2026-08-28T19:10:12Z</time>
  <course>34.75</course>
  <speed>0.0</speed>
  <fix>3d</fix>
</trkpt>
<trkpt lat="40.072842" lon="-105.2305751">
  <ele>1588.86</ele>
  <time>2026-08-28T19:10:12Z</time>
  <course>10.23</course>
  <speed>0.01414213562373095</speed>
  <fix>3d</fix>
</trkpt>
<trkpt lat="40.0728421" lon="-105.2305753">
  <ele>1588.91</ele>
  <time>2026-08-28T19:10:12Z</time>
  <course>27.86</course>
  <speed>0.0</speed>
  <fix>3d</fix>
</trkpt>
<trkpt lat="40.0728421" lon="-105.2305751">
  <ele>1588.76</ele>
  <time>2026-08-28T19:10:12Z</time>
  <course>10.21</course>
  <speed>0.01414213562373095</speed>
  <fix>3d</fix>
</trkpt>
<trkpt lat="40.0728421" lon="-105.2305753">
  <ele>1588.82</ele>
  <time>2026-08-28T19:10:12Z</time>
  <course>27.48</course>
  <speed>0.0</speed>
  <fix>3d</fix>
</trkpt>
<trkpt lat="40.0728421" lon="-105.2305751">
  <ele>1588.66</ele>
  <time>2026-08-28T19:10:12Z</time>
  <course>10.21</course>
  <speed>0.01414213562373095</speed>
  <fix>3d</fix>
</trkpt>
<trkpt lat="40.0728421" lon="-105.2305753">
  <ele>1588.72</ele>
  <time>2026-08-28T19:10:12Z</time>
  <course>27.59</course>
  <speed>0.0</speed>
  <fix>3d</fix>
</trkpt>
<trkpt lat="40.0728421" lon="-105.2305751">
  <ele>1588.56</ele>
  <time>2026-08-28T19:10:12Z</time>
  <course>10.23</course>
  <speed>0.01414213562373095</speed>
  <fix>3d</fix>
</trkpt>
<trkpt lat="40.0728421" lon="-105.2305753">
  <ele>1588.62</ele>
  <time>2026-08-28T19:10:12Z</time>
  <course>27.79</course>
  <speed>0.0</speed>
  <fix>3d</fix>
</trkpt>
<trkpt lat="40.0728421" lon="-105.2305751">
  <ele>1588.46</ele>
  <time>2026-08-28T19:10:12Z</time>
  <course>10.23</course>
  <speed>0.01414213562373095</speed>
  <fix>3d</fix>
</trkpt>
<trkpt lat="40.0728421" lon="-105.2305753">
  <ele>1588.52</ele>
  <time>2026-08-28T19:10:12Z</time>
  <course>28.87</course>
  <speed>0.0</speed>
  <fix>3d</fix>
</trkpt>
<trkpt lat="40.0728421" lon="-105.2305751">
  <ele>1588.36</ele>
  <time>2026-08-28T19:10:12Z</time>
  <course>10.24</course>
  <speed>0.01414213562373095</speed>
  <fix>3d</fix>
</trkpt>
<trkpt lat="40.0728421" lon="-105.2305753">
  <ele>1588.41</ele>
  <time>2026-08-28T19:10:12Z</time>
  <course>27.22</course>
  <speed>0.0</speed>
  <fix>3d</fix>
</trkpt>
<trkpt lat="40.0728421" lon="-105.2305751">
  <ele>1588.26</ele>
  <time>2026-08-28T19:10:12Z</time>
  <course>10.24</course>
  <speed>0.01414213562373095</speed>
  <fix>3d</fix>
</trkpt>
<trkpt lat="40.0728421" lon="-105.2305753">
  <ele>1588.32</ele>
  <time>2026-08-28T19:10:12Z</time>
  <course>25.87</course>
  <speed>0.01</speed>
  <fix>3d</fix>
</trkpt>
<trkpt lat="40.0728421" lon="-105.2305751">
  <ele>1588.16</ele>
  <time>2026-08-28T19:10:12Z</time>
  <course>10.23</course>
  <speed>0.01414213562373095</speed>
  <fix>3d</fix>
</trkpt>
<trkpt lat="40.0728421" lon="-105.2305753">
  <ele>1588.22</ele>
  <time>2026-08-28T19:10:12Z</time>
  <course>26.69</course>
  <speed>0.01</speed>
  <fix>3d</fix>
</trkpt>
<trkpt lat="40.0728421" lon="-105.2305751">
  <ele>1588.06</ele>
  <time>2026-08-28T19:10:12Z</time>
  <course>10.23</course>
  <speed>0.01414213562373095</speed>
  <fix>3d</fix>
</trkpt>
<trkpt lat="40.0728421" lon="-105.2305753">
  <ele>1588.12</ele>
  <time>2026-08-28T19:10:12Z</time>
  <course>26.64</course>
  <speed>0.01</speed>
  <fix>3d</fix>
</trkpt>
<trkpt lat="40.0728421" lon="-105.2305751">
  <ele>1587.96</ele>
  <time>2026-08-28T19:10:12Z</time>
  <course>10.25</course>
  <speed>0.01414213562373095</speed>
  <fix>3d</fix>
</trkpt>
<trkpt lat="40.0728421" lon="-105.2305753">
  <ele>1588.02</ele>
  <time>2026-08-28T19:10:12Z</time>
  <course>26.77</course>
  <speed>0.01</speed>
  <fix>3d</fix>
</trkpt>
<trkpt lat="40.0728421" lon="-105.2305751">
  <ele>1587.86</ele>
  <time>2026-08-28T19:10:12Z</time>
  <course>10.25</course>
  <speed>0.01414213562373095</speed>
  <fix>3d</fix>
</trkpt>
<trkpt lat="40.0728422" lon="-105.2305753">
  <ele>1587.91</ele>
  <time>2026-08-28T19:10:12Z</time>
  <course>27.46</course>
  <speed>0.01</speed>
  <fix>3d</fix>
</trkpt>
<trkpt lat="40.0728421" lon="-105.2305751">
  <ele>1587.76</ele>
  <time>2026-08-28T19:10:12Z</time>
  <course>10.24</course>
  <speed>0.01414213562373095</speed>
  <fix>3d</fix>
</trkpt>
<trkpt lat="40.0728423" lon="-105.2305753">
  <ele>1587.81</ele>
  <time>2026-08-28T19:10:12Z</time>
  <course>28.06</course>
  <speed>0.0</speed>
  <fix>3d</fix>
</trkpt>
<trkpt lat="40.0728421" lon="-105.2305751">
  <ele>1587.66</ele>
  <time>2026-08-28T19:10:12Z</time>
  <course>10.25</course>
  <speed>0.01414213562373095</speed>
  <fix>3d</fix>
</trkpt>
<trkpt lat="40.0728423" lon="-105.2305753">
  <ele>1587.71</ele>
  <time>2026-08-28T19:10:12Z</time>
  <course>27.4</course>
  <speed>0.0</speed>
  <fix>3d</fix>
</trkpt>
<trkpt lat="40.0728421" lon="-105.2305751">
  <ele>1587.56</ele>
  <time>2026-08-28T19:10:12Z</time>
  <course>10.26</course>
  <speed>0.01414213562373095</speed>
  <fix>3d</fix>
</trkpt>
<trkpt lat="40.0728423" lon="-105.2305753">
  <ele>1587.61</ele>
  <time>2026-08-28T19:10:12Z</time>
  <course>28.75</course>
  <speed>0.0</speed>
  <fix>3d</fix>
</trkpt>
<trkpt lat="40.0728421" lon="-105.2305751">
  <ele>1587.46</ele>
  <time>2026-08-28T19:10:12Z</time>
  <course>10.26</course>
  <speed>0.01414213562373095</speed>
  <fix>3d</fix>
</trkpt>
<trkpt lat="40.0728423" lon="-105.2305753">
  <ele>1587.51</ele>
  <time>2026-08-28T19:10:12Z</time>
  <course>34.84</course>
  <speed>0.0</speed>
  <fix>3d</fix>
</trkpt>
<trkpt lat="40.0728421" lon="-105.2305751">
  <ele>1587.36</ele>
  <time>2026-08-28T19:10:12Z</time>
  <course>10.24</course>
  <speed>0.01414213562373095</speed>
  <fix>3d</fix>
</trkpt>
<trkpt lat="40.0728423" lon="-105.2305753">
  <ele>1587.4</ele>
  <time>2026-08-28T19:10:12Z</time>
  <course>44.59</course>
  <speed>0.0</speed>
  <fix>3d</fix>
</trkpt>
<trkpt lat="40.0728421" lon="-105.2305751">
  <ele>1587.26</ele>
  <time>2026-08-28T19:10:12Z</time>
  <course>10.26</course>
  <speed>0.01414213562373095</speed>
  <fix>3d</fix>
</trkpt>
<trkpt lat="40.0728423" lon="-105.2305752">
  <ele>1587.31</ele>
  <time>2026-08-28T19:10:12Z</time>
  <course>57.24</course>
  <speed>0.0</speed>
  <fix>3d</fix>
</trkpt>
<trkpt lat="40.0728421" lon="-105.2305751">
  <ele>1587.16</ele>
  <time>2026-08-28T19:10:12Z</time>
  <course>10.23</course>
  <speed>0.022360679774997897</speed>
  <fix>3d</fix>
</trkpt>
<trkpt lat="40.0728423" lon="-105.2305751">
  <ele>1587.21</ele>
  <time>2026-08-28T19:10:12Z</time>
  <course>75.67</course>
  <speed>0.0</speed>
  <fix>3d</fix>
</trkpt>
<trkpt lat="40.0728421" lon="-105.2305751">
  <ele>1587.06</ele>
  <time>2026-08-28T19:10:12Z</time>
  <course>10.25</course>
  <speed>0.022360679774997897</speed>
  <fix>3d</fix>
</trkpt>
<trkpt lat="40.0728423" lon="-105.2305751">
  <ele>1587.11</ele>
  <time>2026-08-28T19:10:12Z</time>
  <course>95.22</course>
  <speed>0.0</speed>
  <fix>3d</fix>
</trkpt>
<trkpt lat="40.0728421" lon="-105.2305751">
  <ele>1586.96</ele>
  <time>2026-08-28T19:10:12Z</time>
  <course>10.25</course>
  <speed>0.022360679774997897</speed>
  <fix>3d</fix>
</trkpt>
<trkpt lat="40.0728423" lon="-105.2305751">
  <ele>1587.01</ele>
  <time>2026-08-28T19:10:12Z</time>
  <course>116.76</course>
  <speed>0.0</speed>
  <fix>3d</fix>
</trkpt>
<trkpt lat="40.0728421" lon="-105.2305751">
  <ele>1586.86</ele>
  <time>2026-08-28T19:10:12Z</time>
  <course>10.26</course>
  <speed>0.022360679774997897</speed>
  <fix>3d</fix>
</trkpt>
<trkpt lat="40.0728423" lon="-105.2305751">
  <ele>1586.9</ele>
  <time>2026-08-28T19:10:12Z</time>
  <course>139.78</course>
  <speed>0.0</speed>
  <fix>3d</fix>
</trkpt>
<trkpt lat="40.0728421" lon="-105.2305751">
  <ele>1586.76</ele>
  <time>2026-08-28T19:10:12Z</time>
  <course>10.25</course>
  <speed>0.022360679774997897</speed>
  <fix>3d</fix>
</trkpt>
<trkpt lat="40.0728423" lon="-105.2305751">
  <ele>1586.81</ele>
  <time>2026-08-28T19:10:12Z</time>
  <course>159.78</course>
  <speed>0.0</speed>
  <fix>3d</fix>
</trkpt>
<trkpt lat="40.0728421" lon="-105.2305751">
  <ele>1586.65</ele>
  <time>2026-08-28T19:10:12Z</time>
  <course>10.24</course>
  <speed>0.022360679774997897</speed>
  <fix>3d</fix>
</trkpt>
<trkpt lat="40.0728423" lon="-105.2305751">
  <ele>1586.71</ele>
  <time>2026-08-28T19:10:12Z</time>
  <course>177.98</course>
  <speed>0.0</speed>
  <fix>3d</fix>
</trkpt>
<trkpt lat="40.0728421" lon="-105.2305751">
  <ele>1586.56</ele>
  <time>2026-08-28T19:10:12Z</time>
  <course>10.26</course>
  <speed>0.022360679774997897</speed>
  <fix>3d</fix>
</trkpt>
<trkpt lat="40.0728423" lon="-105.2305751">
  <ele>1586.62</ele>
  <time>2026-08-28T19:10:12Z</time>
  <course>190.37</course>
  <speed>0.0</speed>
  <fix>3d</fix>
</trkpt>
<trkpt lat="40.0728421" lon="-105.230575">
  <ele>1586.46</ele>
  <time>2026-08-28T19:10:12Z</time>
  <course>10.24</course>
  <speed>0.022360679774997897</speed>
  <fix>3d</fix>
</trkpt>
<trkpt lat="40.0728423" lon="-105.2305751">
  <ele>1586.52</ele>
  <time>2026-08-28T19:10:12Z</time>
  <course>199.67</course>
  <speed>0.0</speed>
  <fix>3d</fix>
</trkpt>
<trkpt lat="40.0728421" lon="-105.2305751">
  <ele>1586.36</ele>
  <time>2026-08-28T19:10:12Z</time>
  <course>10.26</course>
  <speed>0.022360679774997897</speed>
  <fix>3d</fix>
</trkpt>
<trkpt lat="40.0728423" lon="-105.2305751">
  <ele>1586.41</ele>
  <time>2026-08-28T19:10:12Z</time>
  <course>206.99</course>
  <speed>0.0</speed>
  <fix>3d</fix>
</trkpt>
<trkpt lat="40.0728421" lon="-105.2305751">
  <ele>1586.26</ele>
  <time>2026-08-28T19:10:12Z</time>
  <course>10.27</course>
  <speed>0.022360679774997897</speed>
  <fix>3d</fix>
</trkpt>
<trkpt lat="40.0728423" lon="-105.2305751">
  <ele>1586.32</ele>
  <time>2026-08-28T19:10:12Z</time>
  <course>211.2</course>
  <speed>0.0</speed>
  <fix>3d</fix>
</trkpt>
<trkpt lat="40.0728421" lon="-105.2305751">
  <ele>1586.16</ele>
  <time>2026-08-28T19:10:12Z</time>
  <course>10.3</course>
  <speed>0.022360679774997897</speed>
  <fix>3d</fix>
</trkpt>
<trkpt lat="40.0728423" lon="-105.2305751">
  <ele>1586.22</ele>
  <time>2026-08-28T19:10:12Z</time>
  <course>213.43</course>
  <speed>0.0</speed>
  <fix>3d</fix>
</trkpt>
<trkpt lat="40.0728421" lon="-105.2305751">
  <ele>1586.14</ele>
  <time>2026-08-28T19:10:12Z</time>
  <course>10.3</course>
  <speed>0.01</speed>
  <fix>3d</fix>
</trkpt>
<trkpt lat="40.0728423" lon="-105.2305751">
  <ele>1586.12</ele>
  <time>2026-08-28T19:10:12Z</time>
  <course>254.41</course>
  <speed>0.01</speed>
  <fix>3d</fix>
</trkpt>
<trkpt lat="40.0728421" lon="-105.2305751">
  <ele>1586.16</ele>
  <time>2026-08-28T19:10:12Z</time>
  <course>10.35</course>
  <speed>0.01414213562373095</speed>
  <fix>3d</fix>
</trkpt>
<trkpt lat="40.0728423" lon="-105.2305751">
  <ele>1586.08</ele>
  <time>2026-08-28T19:10:12Z</time>
  <course>281.06</course>
  <speed>0.01</speed>
  <fix>3d</fix>
</trkpt>
<trkpt lat="40.0728421" lon="-105.2305751">
  <ele>1586.16</ele>
  <time>2026-08-28T19:10:12Z</time>
  <course>10.39</course>
  <speed>0.01414213562373095</speed>
  <fix>3d</fix>
</trkpt>
<trkpt lat="40.0728423" lon="-105.2305751">
  <ele>1586.09</ele>
  <time>2026-08-28T19:10:12Z</time>
  <course>336.51</course>
  <speed>0.0</speed>
  <fix>3d</fix>
</trkpt>
<trkpt lat="40.0728421" lon="-105.2305751">
  <ele>1586.15</ele>
  <time>2026-08-28T19:10:12Z</time>
  <course>10.42</course>
  <speed>0.01414213562373095</speed>
  <fix>3d</fix>
</trkpt>
<trkpt lat="40.0728423" lon="-105.2305751">
  <ele>1586.1</ele>
  <time>2026-08-28T19:10:12Z</time>
  <course>90.48</course>
  <speed>0.0</speed>
  <fix>3d</fix>
</trkpt>
<trkpt lat="40.0728421" lon="-105.2305751">
  <ele>1586.16</ele>
  <time>2026-08-28T19:10:12Z</time>
  <course>10.46</course>
  <speed>0.01414213562373095</speed>
  <fix>3d</fix>
</trkpt>
<trkpt lat="40.0728423" lon="-105.2305751">
  <ele>1586.09</ele>
  <time>2026-08-28T19:10:12Z</time>
  <course>159.39</course>
  <speed>0.0</speed>
  <fix>3d</fix>
</trkpt>
<trkpt lat="40.0728421" lon="-105.2305751">
  <ele>1586.16</ele>
  <time>2026-08-28T19:10:12Z</time>
  <course>10.49</course>
  <speed>0.01414213562373095</speed>
  <fix>3d</fix>
</trkpt>
<trkpt lat="40.0728423" lon="-105.2305751">
  <ele>1586.09</ele>
  <time>2026-08-28T19:10:12Z</time>
  <course>326.77</course>
  <speed>0.0</speed>
  <fix>3d</fix>
</trkpt>
<trkpt lat="40.0728421" lon="-105.2305751">
  <ele>1586.16</ele>
  <time>2026-08-28T19:10:12Z</time>
  <course>10.51</course>
  <speed>0.01414213562373095</speed>
  <fix>3d</fix>
</trkpt>
<trkpt lat="40.0728423" lon="-105.2305751">
  <ele>1586.09</ele>
  <time>2026-08-28T19:10:12Z</time>
  <course>33.5</course>
  <speed>0.0</speed>
  <fix>3d</fix>
</trkpt>
<trkpt lat="40.0728421" lon="-105.2305751">
  <ele>1586.16</ele>
  <time>2026-08-28T19:10:13Z</time>
  <course>10.54</course>
  <speed>0.01414213562373095</speed>
  <fix>3d</fix>
</trkpt>
<trkpt lat="40.0728423" lon="-105.2305751">
  <ele>1586.09</ele>
  <time>2026-08-28T19:10:13Z</time>
  <course>4.53</course>
  <speed>0.0</speed>
  <fix>3d</fix>
</trkpt>
<trkpt lat="40.0728421" lon="-105.2305751">
  <ele>1586.16</ele>
  <time>2026-08-28T19:10:13Z</time>
  <course>10.56</course>
  <speed>0.01414213562373095</speed>
  <fix>3d</fix>
</trkpt>
<trkpt lat="40.0728423" lon="-105.2305751">
  <ele>1586.09</ele>
  <time>2026-08-28T19:10:13Z</time>
  <course>330.53</course>
  <speed>0.0</speed>
  <fix>3d</fix>
</trkpt>
<trkpt lat="40.0728421" lon="-105.230575">
  <ele>1586.16</ele>
  <time>2026-08-28T19:10:13Z</time>
  <course>10.59</course>
  <speed>0.01414213562373095</speed>
  <fix>3d</fix>
</trkpt>
<trkpt lat="40.0728423" lon="-105.2305751">
  <ele>1586.09</ele>
  <time>2026-08-28T19:10:13Z</time>
  <course>25.79</course>
  <speed>0.0</speed>
  <fix>3d</fix>
</trkpt>
<trkpt lat="40.0728421" lon="-105.230575">
  <ele>1586.16</ele>
  <time>2026-08-28T19:10:13Z</time>
  <course>10.6</course>
  <speed>0.0282842712474619</speed>
  <fix>3d</fix>
</trkpt>
<trkpt lat="40.0728423" lon="-105.2305751">
  <ele>1586.09</ele>
  <time>2026-08-28T19:10:13Z</time>
  <course>93.87</course>
  <speed>0.0</speed>
  <fix>3d</fix>
</trkpt>
<trkpt lat="40.0728421" lon="-105.230575">
  <ele>1586.16</ele>
  <time>2026-08-28T19:10:13Z</time>
  <course>10.58</course>
  <speed>0.022360679774997897</speed>
  <fix>3d</fix>
</trkpt>
<trkpt lat="40.0728423" lon="-105.2305751">
  <ele>1586.09</ele>
  <time>2026-08-28T19:10:13Z</time>
  <course>102.25</course>
  <speed>0.0</speed>
  <fix>3d</fix>
</trkpt>
<trkpt lat="40.0728421" lon="-105.230575">
  <ele>1586.15</ele>
  <time>2026-08-28T19:10:13Z</time>
  <course>10.56</course>
  <speed>0.01414213562373095</speed>
  <fix>3d</fix>
</trkpt>
<trkpt lat="40.0728423" lon="-105.2305751">
  <ele>1586.09</ele>
  <time>2026-08-28T19:10:13Z</time>
  <course>107.05</course>
  <speed>0.0</speed>
  <fix>3d</fix>
</trkpt>
<trkpt lat="40.0728421" lon="-105.230575">
  <ele>1586.15</ele>
  <time>2026-08-28T19:10:13Z</time>
  <course>10.55</course>
  <speed>0.01414213562373095</speed>
  <fix>3d</fix>
</trkpt>
<trkpt lat="40.0728423" lon="-105.2305751">
  <ele>1586.09</ele>
  <time>2026-08-28T19:10:13Z</time>
  <course>162.05</course>
  <speed>0.0</speed>
  <fix>3d</fix>
</trkpt>
<trkpt lat="40.0728421" lon="-105.230575">
  <ele>1586.15</ele>
  <time>2026-08-28T19:10:13Z</time>
  <course>10.54</course>
  <speed>0.01414213562373095</speed>
  <fix>3d</fix>
</trkpt>
<trkpt lat="40.0728423" lon="-105.2305751">
  <ele>1586.09</ele>
  <time>2026-08-28T19:10:13Z</time>
  <course>258.26</course>
  <speed>0.0</speed>
  <fix>3d</fix>
</trkpt>
<trkpt lat="40.0728421" lon="-105.230575">
  <ele>1586.15</ele>
  <time>2026-08-28T19:10:13Z</time>
  <course>10.54</course>
  <speed>0.01414213562373095</speed>
  <fix>3d</fix>
</trkpt>
<trkpt lat="40.0728423" lon="-105.2305751">
  <ele>1586.09</ele>
  <time>2026-08-28T19:10:13Z</time>
  <course>242.31</course>
  <speed>0.0</speed>
  <fix>3d</fix>
</trkpt>
<trkpt lat="40.0728421" lon="-105.230575">
  <ele>1586.15</ele>
  <time>2026-08-28T19:10:13Z</time>
  <course>10.54</course>
  <speed>0.01414213562373095</speed>
  <fix>3d</fix>
</trkpt>
<trkpt lat="40.0728423" lon="-105.2305751">
  <ele>1586.09</ele>
  <time>2026-08-28T19:10:13Z</time>
  <course>234.87</course>
  <speed>0.0</speed>
  <fix>3d</fix>
</trkpt>
<trkpt lat="40.0728421" lon="-105.230575">
  <ele>1586.15</ele>
  <time>2026-08-28T19:10:13Z</time>
  <course>10.54</course>
  <speed>0.01414213562373095</speed>
  <fix>3d</fix>
</trkpt>
<trkpt lat="40.0728423" lon="-105.2305751">
  <ele>1586.09</ele>
  <time>2026-08-28T19:10:13Z</time>
  <course>232.89</course>
  <speed>0.0</speed>
  <fix>3d</fix>
</trkpt>
<trkpt lat="40.0728421" lon="-105.230575">
  <ele>1586.15</ele>
  <time>2026-08-28T19:10:13Z</time>
  <course>10.54</course>
  <speed>0.01414213562373095</speed>
  <fix>3d</fix>
</trkpt>
<trkpt lat="40.0728423" lon="-105.2305751">
  <ele>1586.09</ele>
  <time>2026-08-28T19:10:13Z</time>
  <course>217.37</course>
  <speed>0.0</speed>
  <fix>3d</fix>
</trkpt>
<trkpt lat="40.0728421" lon="-105.230575">
  <ele>1586.15</ele>
  <time>2026-08-28T19:10:13Z</time>
  <course>10.54</course>
  <speed>0.01414213562373095</speed>
  <fix>3d</fix>
</trkpt>
<trkpt lat="40.0728423" lon="-105.2305751">
  <ele>1586.09</ele>
  <time>2026-08-28T19:10:13Z</time>
  <course>57.21</course>
  <speed>0.0</speed>
  <fix>3d</fix>
</trkpt>
<trkpt lat="40.0728421" lon="-105.230575">
  <ele>1586.14</ele>
  <time>2026-08-28T19:10:13Z</time>
  <course>10.54</course>
  <speed>0.01414213562373095</speed>
  <fix>3d</fix>
</trkpt>
<trkpt lat="40.0728423" lon="-105.2305751">
  <ele>1586.09</ele>
  <time>2026-08-28T19:10:13Z</time>
  <course>304.04</course>
  <speed>0.0</speed>
  <fix>3d</fix>
</trkpt>
<trkpt lat="40.0728421" lon="-105.230575">
  <ele>1586.14</ele>
  <time>2026-08-28T19:10:13Z</time>
  <course>10.54</course>
  <speed>0.01414213562373095</speed>
  <fix>3d</fix>
</trkpt>
<trkpt lat="40.0728423" lon="-105.2305751">
  <ele>1586.09</ele>
  <time>2026-08-28T19:10:13Z</time>
  <course>276.58</course>
  <speed>0.0</speed>
  <fix>3d</fix>
</trkpt>
<trkpt lat="40.0728421" lon="-105.230575">
  <ele>1586.14</ele>
  <time>2026-08-28T19:10:13Z</time>
  <course>10.54</course>
  <speed>0.01414213562373095</speed>
  <fix>3d</fix>
</trkpt>
<trkpt lat="40.0728423" lon="-105.2305751">
  <ele>1586.09</ele>
  <time>2026-08-28T19:10:13Z</time>
  <course>283.56</course>
  <speed>0.0</speed>
  <fix>3d</fix>
</trkpt>
<trkpt lat="40.0728421" lon="-105.230575">
  <ele>1586.14</ele>
  <time>2026-08-28T19:10:13Z</time>
  <course>10.54</course>
  <speed>0.01414213562373095</speed>
  <fix>3d</fix>
</trkpt>
<trkpt lat="40.0728423" lon="-105.2305751">
  <ele>1586.09</ele>
  <time>2026-08-28T19:10:13Z</time>
  <course>289.09</course>
  <speed>0.0</speed>
  <fix>3d</fix>
</trkpt>
<trkpt lat="40.0728421" lon="-105.230575">
  <ele>1586.15</ele>
  <time>2026-08-28T19:10:13Z</time>
  <course>10.54</course>
  <speed>0.01414213562373095</speed>
  <fix>3d</fix>
</trkpt>
<trkpt lat="40.0728423" lon="-105.2305751">
  <ele>1586.09</ele>
  <time>2026-08-28T19:10:13Z</time>
  <course>287.49</course>
  <speed>0.0</speed>
  <fix>3d</fix>
</trkpt>
<trkpt lat="40.0728421" lon="-105.230575">
  <ele>1586.15</ele>
  <time>2026-08-28T19:10:13Z</time>
  <course>10.54</course>
  <speed>0.01414213562373095</speed>
  <fix>3d</fix>
</trkpt>
<trkpt lat="40.0728423" lon="-105.2305751">
  <ele>1586.09</ele>
  <time>2026-08-28T19:10:13Z</time>
  <course>287.61</course>
  <speed>0.0</speed>
  <fix>3d</fix>
</trkpt>
<trkpt lat="40.0728421" lon="-105.230575">
  <ele>1586.15</ele>
  <time>2026-08-28T19:10:13Z</time>
  <course>10.53</course>
  <speed>0.01414213562373095</speed>
  <fix>3d</fix>
</trkpt>
<trkpt lat="40.0728423" lon="-105.2305751">
  <ele>1586.09</ele>
  <time>2026-08-28T19:10:13Z</time>
  <course>288.55</course>
  <speed>0.0</speed>
  <fix>3d</fix>
</trkpt>
<trkpt lat="40.0728421" lon="-105.230575">
  <ele>1586.15</ele>
  <time>2026-08-28T19:10:13Z</time>
  <course>10.53</course>
  <speed>0.022360679774997897</speed>
  <fix>3d</fix>
</trkpt>
<trkpt lat="40.0728423" lon="-105.2305751">
  <ele>1586.09</ele>
  <time>2026-08-28T19:10:13Z</time>
  <course>289.09</course>
  <speed>0.0</speed>
  <fix>3d</fix>
</trkpt>
<trkpt lat="40.0728421" lon="-105.230575">
  <ele>1586.15</ele>
  <time>2026-08-28T19:10:13Z</time>
  <course>10.53</course>
  <speed>0.022360679774997897</speed>
  <fix>3d</fix>
</trkpt>
<trkpt lat="40.0728423" lon="-105.2305751">
  <ele>1586.09</ele>
  <time>2026-08-28T19:10:13Z</time>
  <course>289.52</course>
  <speed>0.0</speed>
  <fix>3d</fix>
</trkpt>
<trkpt lat="40.0728421" lon="-105.230575">
  <ele>1586.16</ele>
  <time>2026-08-28T19:10:13Z</time>
  <course>10.53</course>
  <speed>0.022360679774997897</speed>
  <fix>3d</fix>
</trkpt>
<trkpt lat="40.0728423" lon="-105.2305751">
  <ele>1586.09</ele>
  <time>2026-08-28T19:10:13Z</time>
  <course>289.99</course>
  <speed>0.0</speed>
  <fix>3d</fix>
</trkpt>
<trkpt lat="40.0728421" lon="-105.230575">
  <ele>1586.16</ele>
  <time>2026-08-28T19:10:13Z</time>
  <course>10.53</course>
  <speed>0.022360679774997897</speed>
  <fix>3d</fix>
</trkpt>
<trkpt lat="40.0728423" lon="-105.2305751">
  <ele>1586.09</ele>
  <time>2026-08-28T19:10:13Z</time>
  <course>290.44</course>
  <speed>0.0</speed>
  <fix>3d</fix>
</trkpt>
<trkpt lat="40.0728421" lon="-105.230575">
  <ele>1586.15</ele>
  <time>2026-08-28T19:10:13Z</time>
  <course>10.53</course>
  <speed>0.022360679774997897</speed>
  <fix>3d</fix>
</trkpt>
<trkpt lat="40.0728423" lon="-105.2305751">
  <ele>1586.09</ele>
  <time>2026-08-28T19:10:13Z</time>
  <course>290.84</course>
  <speed>0.0</speed>
  <fix>3d</fix>
</trkpt>
<trkpt lat="40.0728421" lon="-105.230575">
  <ele>1586.15</ele>
  <time>2026-08-28T19:10:13Z</time>
  <course>10.53</course>
  <speed>0.022360679774997897</speed>
  <fix>3d</fix>
</trkpt>
<trkpt lat="40.0728423" lon="-105.2305751">
  <ele>1586.09</ele>
  <time>2026-08-28T19:10:13Z</time>
  <course>291.22</course>
  <speed>0.0</speed>
  <fix>3d</fix>
</trkpt>
<trkpt lat="40.0728421" lon="-105.230575">
  <ele>1586.15</ele>
  <time>2026-08-28T19:10:13Z</time>
  <course>10.53</course>
  <speed>0.022360679774997897</speed>
  <fix>3d</fix>
</trkpt>
<trkpt lat="40.0728423" lon="-105.2305751">
  <ele>1586.09</ele>
  <time>2026-08-28T19:10:13Z</time>
  <course>291.58</course>
  <speed>0.0</speed>
  <fix>3d</fix>
</trkpt>
<trkpt lat="40.0728421" lon="-105.230575">
  <ele>1586.15</ele>
  <time>2026-08-28T19:10:13Z</time>
  <course>10.53</course>
  <speed>0.022360679774997897</speed>
  <fix>3d</fix>
</trkpt>
<trkpt lat="40.0728423" lon="-105.2305751">
  <ele>1586.09</ele>
  <time>2026-08-28T19:10:13Z</time>
  <course>291.91</course>
  <speed>0.0</speed>
  <fix>3d</fix>
</trkpt>
<trkpt lat="40.0728421" lon="-105.230575">
  <ele>1586.15</ele>
  <time>2026-08-28T19:10:13Z</time>
  <course>10.53</course>
  <speed>0.022360679774997897</speed>
  <fix>3d</fix>
</trkpt>
<trkpt lat="40.0728423" lon="-105.2305751">
  <ele>1586.09</ele>
  <time>2026-08-28T19:10:13Z</time>
  <course>292.21</course>
  <speed>0.0</speed>
  <fix>3d</fix>
</trkpt>
<trkpt lat="40.0728421" lon="-105.230575">
  <ele>1586.15</ele>
  <time>2026-08-28T19:10:13Z</time>
  <course>10.53</course>
  <speed>0.022360679774997897</speed>
  <fix>3d</fix>
</trkpt>
<trkpt lat="40.0728423" lon="-105.2305751">
  <ele>1586.09</ele>
  <time>2026-08-28T19:10:13Z</time>
  <course>292.49</course>
  <speed>0.0</speed>
  <fix>3d</fix>
</trkpt>
<trkpt lat="40.0728421" lon="-105.230575">
  <ele>1586.15</ele>
  <time>2026-08-28T19:10:13Z</time>
  <course>10.53</course>
  <speed>0.022360679774997897</speed>
  <fix>3d</fix>
</trkpt>
<trkpt lat="40.0728423" lon="-105.2305751">
  <ele>1586.09</ele>
  <time>2026-08-28T19:10:13Z</time>
  <course>292.75</course>
  <speed>0.0</speed>
  <fix>3d</fix>
</trkpt>
<trkpt lat="40.0728421" lon="-105.230575">
  <ele>1586.15</ele>
  <time>2026-08-28T19:10:13Z</time>
  <course>10.53</course>
  <speed>0.022360679774997897</speed>
  <fix>3d</fix>
</trkpt>
<trkpt lat="40.0728423" lon="-105.2305751">
  <ele>1586.09</ele>
  <time>2026-08-28T19:10:13Z</time>
  <course>292.98</course>
  <speed>0.0</speed>
  <fix>3d</fix>
</trkpt>
<trkpt lat="40.0728421" lon="-105.230575">
  <ele>1586.15</ele>
  <time>2026-08-28T19:10:13Z</time>
  <course>10.53</course>
  <speed>0.022360679774997897</speed>
  <fix>3d</fix>
</trkpt>
<trkpt lat="40.0728423" lon="-105.2305751">
  <ele>1586.09</ele>
  <time>2026-08-28T19:10:13Z</time>
  <course>293.2</course>
  <speed>0.0</speed>
  <fix>3d</fix>
</trkpt>
<trkpt lat="40.0728421" lon="-105.230575">
  <ele>1586.15</ele>
  <time>2026-08-28T19:10:13Z</time>
  <course>10.53</course>
  <speed>0.022360679774997897</speed>
  <fix>3d</fix>
</trkpt>
<trkpt lat="40.0728423" lon="-105.2305751">
  <ele>1586.09</ele>
  <time>2026-08-28T19:10:13Z</time>
  <course>293.41</course>
  <speed>0.0</speed>
  <fix>3d</fix>
</trkpt>
<trkpt lat="40.0728421" lon="-105.230575">
  <ele>1586.15</ele>
  <time>2026-08-28T19:10:13Z</time>
  <course>10.53</course>
  <speed>0.022360679774997897</speed>
  <fix>3d</fix>
</trkpt>
<trkpt lat="40.0728423" lon="-105.2305751">
  <ele>1586.09</ele>
  <time>2026-08-28T19:10:13Z</time>
  <course>293.59</course>
  <speed>0.0</speed>
  <fix>3d</fix>
</trkpt>
<trkpt lat="40.0728421" lon="-105.230575">
  <ele>1586.16</ele>
  <time>2026-08-28T19:10:13Z</time>
  <course>10.53</course>
  <speed>0.022360679774997897</speed>
  <fix>3d</fix>
</trkpt>
<trkpt lat="40.0728423" lon="-105.2305751">
  <ele>1586.09</ele>
  <time>2026-08-28T19:10:13Z</time>
  <course>293.76</course>
  <speed>0.0</speed>
  <fix>3d</fix>
</trkpt>
<trkpt lat="40.0728421" lon="-105.230575">
  <ele>1586.16</ele>
  <time>2026-08-28T19:10:13Z</time>
  <course>10.53</course>
  <speed>0.022360679774997897</speed>
  <fix>3d</fix>
</trkpt>
<trkpt lat="40.0728423" lon="-105.2305751">
  <ele>1586.09</ele>
  <time>2026-08-28T19:10:13Z</time>
  <course>293.92</course>
  <speed>0.0</speed>
  <fix>3d</fix>
</trkpt>
<trkpt lat="40.0728421" lon="-105.230575">
  <ele>1586.16</ele>
  <time>2026-08-28T19:10:13Z</time>
  <course>10.52</course>
  <speed>0.022360679774997897</speed>
  <fix>3d</fix>
</trkpt>
<trkpt lat="40.0728423" lon="-105.2305751">
  <ele>1586.09</ele>
  <time>2026-08-28T19:10:13Z</time>
  <course>294.06</course>
  <speed>0.0</speed>
  <fix>3d</fix>
</trkpt>
<trkpt lat="40.0728421" lon="-105.230575">
  <ele>1586.16</ele>
  <time>2026-08-28T19:10:13Z</time>
  <course>10.52</course>
  <speed>0.022360679774997897</speed>
  <fix>3d</fix>
</trkpt>
<trkpt lat="40.0728423" lon="-105.2305751">
  <ele>1586.09</ele>
  <time>2026-08-28T19:10:13Z</time>
  <course>294.2</course>
  <speed>0.0</speed>
  <fix>3d</fix>
</trkpt>
<trkpt lat="40.0728421" lon="-105.230575">
  <ele>1586.16</ele>
  <time>2026-08-28T19:10:13Z</time>
  <course>10.52</course>
  <speed>0.022360679774997897</speed>
  <fix>3d</fix>
</trkpt>
<trkpt lat="40.0728423" lon="-105.2305751">
  <ele>1586.09</ele>
  <time>2026-08-28T19:10:13Z</time>
  <course>294.32</course>
  <speed>0.0</speed>
  <fix>3d</fix>
</trkpt>
<trkpt lat="40.0728421" lon="-105.230575">
  <ele>1586.15</ele>
  <time>2026-08-28T19:10:13Z</time>
  <course>10.52</course>
  <speed>0.022360679774997897</speed>
  <fix>3d</fix>
</trkpt>
<trkpt lat="40.0728423" lon="-105.2305751">
  <ele>1586.09</ele>
  <time>2026-08-28T19:10:13Z</time>
  <course>294.44</course>
  <speed>0.0</speed>
  <fix>3d</fix>
</trkpt>
<trkpt lat="40.0728421" lon="-105.230575">
  <ele>1586.15</ele>
  <time>2026-08-28T19:10:13Z</time>
  <course>10.52</course>
  <speed>0.022360679774997897</speed>
  <fix>3d</fix>
</trkpt>
<trkpt lat="40.0728423" lon="-105.2305751">
  <ele>1586.09</ele>
  <time>2026-08-28T19:10:13Z</time>
  <course>294.54</course>
  <speed>0.0</speed>
  <fix>3d</fix>
</trkpt>
<trkpt lat="40.0728421" lon="-105.230575">
  <ele>1586.15</ele>
  <time>2026-08-28T19:10:13Z</time>
  <course>10.52</course>
  <speed>0.022360679774997897</speed>
  <fix>3d</fix>
</trkpt>
<trkpt lat="40.0728423" lon="-105.2305751">
  <ele>1586.09</ele>
  <time>2026-08-28T19:10:13Z</time>
  <course>294.64</course>
  <speed>0.0</speed>
  <fix>3d</fix>
</trkpt>
<trkpt lat="40.0728421" lon="-105.230575">
  <ele>1586.15</ele>
  <time>2026-08-28T19:10:13Z</time>
  <course>10.52</course>
  <speed>0.022360679774997897</speed>
  <fix>3d</fix>
</trkpt>
<trkpt lat="40.0728423" lon="-105.2305751">
  <ele>1586.09</ele>
  <time>2026-08-28T19:10:13Z</time>
  <course>294.73</course>
  <speed>0.0</speed>
  <fix>3d</fix>
</trkpt>
<trkpt lat="40.0728421" lon="-105.230575">
  <ele>1586.15</ele>
  <time>2026-08-28T19:10:13Z</time>
  <course>10.52</course>
  <speed>0.022360679774997897</speed>
  <fix>3d</fix>
</trkpt>
<trkpt lat="40.0728423" lon="-105.2305751">
  <ele>1586.09</ele>
  <time>2026-08-28T19:10:13Z</time>
  <course>294.81</course>
  <speed>0.0</speed>
  <fix>3d</fix>
</trkpt>
<trkpt lat="40.0728421" lon="-105.230575">
  <ele>1586.15</ele>
  <time>2026-08-28T19:10:13Z</time>
  <course>10.52</course>
  <speed>0.022360679774997897</speed>
  <fix>3d</fix>
</trkpt>
<trkpt lat="40.0728423" lon="-105.2305751">
  <ele>1586.09</ele>
  <time>2026-08-28T19:10:13Z</time>
  <course>294.89</course>
  <speed>0.0</speed>
  <fix>3d</fix>
</trkpt>
<trkpt lat="40.0728421" lon="-105.230575">
  <ele>1586.15</ele>
  <time>2026-08-28T19:10:13Z</time>
  <course>10.52</course>
  <speed>0.022360679774997897</speed>
  <fix>3d</fix>
</trkpt>
<trkpt lat="40.0728423" lon="-105.2305751">
  <ele>1586.09</ele>
  <time>2026-08-28T19:10:13Z</time>
  <course>294.96</course>
  <speed>0.0</speed>
  <fix>3d</fix>
</trkpt>
<trkpt lat="40.0728421" lon="-105.230575">
  <ele>1586.15</ele>
  <time>2026-08-28T19:10:13Z</time>
  <course>10.52</course>
  <speed>0.022360679774997897</speed>
  <fix>3d</fix>
</trkpt>
<trkpt lat="40.0728423" lon="-105.2305751">
  <ele>1586.09</ele>
  <time>2026-08-28T19:10:13Z</time>
  <course>295.02</course>
  <speed>0.0</speed>
  <fix>3d</fix>
</trkpt>
<trkpt lat="40.0728421" lon="-105.230575">
  <ele>1586.15</ele>
  <time>2026-08-28T19:10:13Z</time>
  <course>10.52</course>
  <speed>0.022360679774997897</speed>
  <fix>3d</fix>
</trkpt>
<trkpt lat="40.0728423" lon="-105.2305751">
  <ele>1586.09</ele>
  <time>2026-08-28T19:10:13Z</time>
  <course>295.08</course>
  <speed>0.0</speed>
  <fix>3d</fix>
</trkpt>
<trkpt lat="40.0728421" lon="-105.230575">
  <ele>1586.15</ele>
  <time>2026-08-28T19:10:13Z</time>
  <course>10.52</course>
  <speed>0.022360679774997897</speed>
  <fix>3d</fix>
</trkpt>
<trkpt lat="40.0728423" lon="-105.2305751">
  <ele>1586.09</ele>
  <time>2026-08-28T19:10:13Z</time>
  <course>295.14</course>
  <speed>0.0</speed>
  <fix>3d</fix>
</trkpt>
<trkpt lat="40.0728421" lon="-105.230575">
  <ele>1586.15</ele>
  <time>2026-08-28T19:10:13Z</time>
  <course>10.52</course>
  <speed>0.022360679774997897</speed>
  <fix>3d</fix>
</trkpt>
<trkpt lat="40.0728423" lon="-105.2305751">
  <ele>1586.09</ele>
  <time>2026-08-28T19:10:13Z</time>
  <course>294.96</course>
  <speed>0.0</speed>
  <fix>3d</fix>
</trkpt>
<trkpt lat="40.0728421" lon="-105.230575">
  <ele>1586.15</ele>
  <time>2026-08-28T19:10:13Z</time>
  <course>10.52</course>
  <speed>0.022360679774997897</speed>
  <fix>3d</fix>
</trkpt>
<trkpt lat="40.0728423" lon="-105.2305751">
  <ele>1586.09</ele>
  <time>2026-08-28T19:10:13Z</time>
  <course>294.63</course>
  <speed>0.0</speed>
  <fix>3d</fix>
</trkpt>
<trkpt lat="40.0728421" lon="-105.230575">
  <ele>1586.15</ele>
  <time>2026-08-28T19:10:13Z</time>
  <course>10.52</course>
  <speed>0.022360679774997897</speed>
  <fix>3d</fix>
</trkpt>
<trkpt lat="40.0728423" lon="-105.2305751">
  <ele>1586.09</ele>
  <time>2026-08-28T19:10:13Z</time>
  <course>294.55</course>
  <speed>0.0</speed>
  <fix>3d</fix>
</trkpt>
<trkpt lat="40.0728421" lon="-105.230575">
  <ele>1586.15</ele>
  <time>2026-08-28T19:10:13Z</time>
  <course>10.56</course>
  <speed>0.022360679774997897</speed>
  <fix>3d</fix>
</trkpt>
<trkpt lat="40.0728423" lon="-105.2305751">
  <ele>1586.09</ele>
  <time>2026-08-28T19:10:13Z</time>
  <course>294.62</course>
  <speed>0.0</speed>
  <fix>3d</fix>
</trkpt>
<trkpt lat="40.0728421" lon="-105.230575">
  <ele>1586.15</ele>
  <time>2026-08-28T19:10:13Z</time>
  <course>10.6</course>
  <speed>0.022360679774997897</speed>
  <fix>3d</fix>
</trkpt>
<trkpt lat="40.0728423" lon="-105.2305751">
  <ele>1586.09</ele>
  <time>2026-08-28T19:10:13Z</time>
  <course>288.42</course>
  <speed>0.0</speed>
  <fix>3d</fix>
</trkpt>
<trkpt lat="40.0728421" lon="-105.230575">
  <ele>1586.16</ele>
  <time>2026-08-28T19:10:13Z</time>
  <course>10.65</course>
  <speed>0.022360679774997897</speed>
  <fix>3d</fix>
</trkpt>
<trkpt lat="40.0728423" lon="-105.2305751">
  <ele>1586.09</ele>
  <time>2026-08-28T19:10:13Z</time>
  <course>278.52</course>
  <speed>0.0</speed>
  <fix>3d</fix>
</trkpt>
<trkpt lat="40.0728421" lon="-105.230575">
  <ele>1586.18</ele>
  <time>2026-08-28T19:10:13Z</time>
  <course>10.7</course>
  <speed>0.022360679774997897</speed>
  <fix>3d</fix>
</trkpt>
<trkpt lat="40.0728423" lon="-105.2305751">
  <ele>1586.09</ele>
  <time>2026-08-28T19:10:13Z</time>
  <course>225.75</course>
  <speed>0.0</speed>
  <fix>3d</fix>
</trkpt>
<trkpt lat="40.0728421" lon="-105.230575">
  <ele>1586.18</ele>
  <time>2026-08-28T19:10:13Z</time>
  <course>10.74</course>
  <speed>0.022360679774997897</speed>
  <fix>3d</fix>
</trkpt>
<trkpt lat="40.0728423" lon="-105.2305751">
  <ele>1586.09</ele>
  <time>2026-08-28T19:10:13Z</time>
  <course>53.01</course>
  <speed>0.0</speed>
  <fix>3d</fix>
</trkpt>
<trkpt lat="40.0728421" lon="-105.230575">
  <ele>1586.18</ele>
  <time>2026-08-28T19:10:13Z</time>
  <course>10.79</course>
  <speed>0.022360679774997897</speed>
  <fix>3d</fix>
</trkpt>
<trkpt lat="40.0728423" lon="-105.2305751">
  <ele>1586.09</ele>
  <time>2026-08-28T19:10:13Z</time>
  <course>351.59</course>
  <speed>0.0</speed>
  <fix>3d</fix>
</trkpt>
<trkpt lat="40.0728421" lon="-105.230575">
  <ele>1586.18</ele>
  <time>2026-08-28T19:10:13Z</time>
  <course>10.83</course>
  <speed>0.022360679774997897</speed>
  <fix>3d</fix>
</trkpt>
<trkpt lat="40.0728423" lon="-105.2305751">
  <ele>1586.09</ele>
  <time>2026-08-28T19:10:13Z</time>
  <course>90.5</course>
  <speed>0.0</speed>
  <fix>3d</fix>
</trkpt>
<trkpt lat="40.0728421" lon="-105.230575">
  <ele>1586.17</ele>
  <time>2026-08-28T19:10:13Z</time>
  <course>10.88</course>
  <speed>0.022360679774997897</speed>
  <fix>3d</fix>
</trkpt>
<trkpt lat="40.0728423" lon="-105.2305751">
  <ele>1586.09</ele>
  <time>2026-08-28T19:10:13Z</time>
  <course>125.01</course>
  <speed>0.0</speed>
  <fix>3d</fix>
</trkpt>
<trkpt lat="40.0728421" lon="-105.230575">
  <ele>1586.17</ele>
  <time>2026-08-28T19:10:13Z</time>
  <course>10.92</course>
  <speed>0.022360679774997897</speed>
  <fix>3d</fix>
</trkpt>
<trkpt lat="40.0728423" lon="-105.2305751">
  <ele>1586.09</ele>
  <time>2026-08-28T19:10:13Z</time>
  <course>359.25</course>
  <speed>0.0</speed>
  <fix>3d</fix>
</trkpt>
<trkpt lat="40.0728421" lon="-105.230575">
  <ele>1586.16</ele>
  <time>2026-08-28T19:10:13Z</time>
  <course>10.97</course>
  <speed>0.022360679774997897</speed>
  <fix>3d</fix>
</trkpt>
<trkpt lat="40.0728423" lon="-105.2305751">
  <ele>1586.09</ele>
  <time>2026-08-28T19:10:13Z</time>
  <course>295.65</course>
  <speed>0.0</speed>
  <fix>3d</fix>
</trkpt>
<trkpt lat="40.0728421" lon="-105.230575">
  <ele>1586.16</ele>
  <time>2026-08-28T19:10:13Z</time>
  <course>11.02</course>
  <speed>0.022360679774997897</speed>
  <fix>3d</fix>
</trkpt>
<trkpt lat="40.0728423" lon="-105.2305751">
  <ele>1586.09</ele>
  <time>2026-08-28T19:10:13Z</time>
  <course>281.67</course>
  <speed>0.0</speed>
  <fix>3d</fix>
</trkpt>
<trkpt lat="40.0728421" lon="-105.230575">
  <ele>1586.16</ele>
  <time>2026-08-28T19:10:13Z</time>
  <course>11.06</course>
  <speed>0.01414213562373095</speed>
  <fix>3d</fix>
</trkpt>
<trkpt lat="40.0728423" lon="-105.2305751">
  <ele>1586.09</ele>
  <time>2026-08-28T19:10:13Z</time>
  <course>297.96</course>
  <speed>0.0</speed>
  <fix>3d</fix>
</trkpt>
<trkpt lat="40.0728421" lon="-105.230575">
  <ele>1586.16</ele>
  <time>2026-08-28T19:10:13Z</time>
  <course>11.11</course>
  <speed>0.01414213562373095</speed>
  <fix>3d</fix>
</trkpt>
<trkpt lat="40.0728423" lon="-105.2305751">
  <ele>1586.09</ele>
  <time>2026-08-28T19:10:13Z</time>
  <course>297.12</course>
  <speed>0.0</speed>
  <fix>3d</fix>
</trkpt>
<trkpt lat="40.0728421" lon="-105.230575">
  <ele>1586.15</ele>
  <time>2026-08-28T19:10:13Z</time>
  <course>11.16</course>
  <speed>0.01414213562373095</speed>
  <fix>3d</fix>
</trkpt>
<trkpt lat="40.0728423" lon="-105.2305751">
  <ele>1586.09</ele>
  <time>2026-08-28T19:10:13Z</time>
  <course>295.63</course>
  <speed>0.0</speed>
  <fix>3d</fix>
</trkpt>
<trkpt lat="40.0728421" lon="-105.230575">
  <ele>1586.15</ele>
  <time>2026-08-28T19:10:13Z</time>
  <course>11.21</course>
  <speed>0.01414213562373095</speed>
  <fix>3d</fix>
</trkpt>
<trkpt lat="40.0728423" lon="-105.2305751">
  <ele>1586.09</ele>
  <time>2026-08-28T19:10:13Z</time>
  <course>295.82</course>
  <speed>0.0</speed>
  <fix>3d</fix>
</trkpt>
<trkpt lat="40.0728421" lon="-105.230575">
  <ele>1586.15</ele>
  <time>2026-08-28T19:10:13Z</time>
  <course>11.25</course>
  <speed>0.01414213562373095</speed>
  <fix>3d</fix>
</trkpt>
<trkpt lat="40.0728423" lon="-105.2305751">
  <ele>1586.09</ele>
  <time>2026-08-28T19:10:13Z</time>
  <course>296.01</course>
  <speed>0.0</speed>
  <fix>3d</fix>
</trkpt>
<trkpt lat="40.0728421" lon="-105.230575">
  <ele>1586.16</ele>
  <time>2026-08-28T19:10:13Z</time>
  <course>11.3</course>
  <speed>0.01414213562373095</speed>
  <fix>3d</fix>
</trkpt>
<trkpt lat="40.0728423" lon="-105.2305751">
  <ele>1586.09</ele>
  <time>2026-08-28T19:10:13Z</time>
  <course>295.96</course>
  <speed>0.0</speed>
  <fix>3d</fix>
</trkpt>
<trkpt lat="40.0728421" lon="-105.230575">
  <ele>1586.16</ele>
  <time>2026-08-28T19:10:13Z</time>
  <course>11.35</course>
  <speed>0.01414213562373095</speed>
  <fix>3d</fix>
</trkpt>
<trkpt lat="40.0728423" lon="-105.2305751">
  <ele>1586.09</ele>
  <time>2026-08-28T19:10:13Z</time>
  <course>295.94</course>
  <speed>0.0</speed>
  <fix>3d</fix>
</trkpt>
<trkpt lat="40.0728421" lon="-105.230575">
  <ele>1586.15</ele>
  <time>2026-08-28T19:10:13Z</time>
  <course>11.4</course>
  <speed>0.01414213562373095</speed>
  <fix>3d</fix>
</trkpt>
<trkpt lat="40.0728423" lon="-105.2305751">
  <ele>1586.09</ele>
  <time>2026-08-28T19:10:13Z</time>
  <course>295.95</course>
  <speed>0.0</speed>
  <fix>3d</fix>
</trkpt>
<trkpt lat="40.0728421" lon="-105.230575">
  <ele>1586.15</ele>
  <time>2026-08-28T19:10:13Z</time>
  <course>11.45</course>
  <speed>0.01414213562373095</speed>
  <fix>3d</fix>
</trkpt>
<trkpt lat="40.0728423" lon="-105.2305751">
  <ele>1586.09</ele>
  <time>2026-08-28T19:10:13Z</time>
  <course>295.95</course>
  <speed>0.0</speed>
  <fix>3d</fix>
</trkpt>
<trkpt lat="40.0728421" lon="-105.230575">
  <ele>1586.15</ele>
  <time>2026-08-28T19:10:13Z</time>
  <course>11.5</course>
  <speed>0.01414213562373095</speed>
  <fix>3d</fix>
</trkpt>
<trkpt lat="40.0728423" lon="-105.2305751">
  <ele>1586.09</ele>
  <time>2026-08-28T19:10:13Z</time>
  <course>295.95</course>
  <speed>0.0</speed>
  <fix>3d</fix>
</trkpt>
<trkpt lat="40.0728421" lon="-105.230575">
  <ele>1586.15</ele>
  <time>2026-08-28T19:10:13Z</time>
  <course>11.55</course>
  <speed>0.01414213562373095</speed>
  <fix>3d</fix>
</trkpt>
<trkpt lat="40.0728423" lon="-105.2305751">
  <ele>1586.09</ele>
  <time>2026-08-28T19:10:13Z</time>
  <course>295.95</course>
  <speed>0.0</speed>
  <fix>3d</fix>
</trkpt>
<trkpt lat="40.0728421" lon="-105.230575">
  <ele>1586.16</ele>
  <time>2026-08-28T19:10:13Z</time>
  <course>11.59</course>
  <speed>0.01414213562373095</speed>
  <fix>3d</fix>
</trkpt>
<trkpt lat="40.0728423" lon="-105.2305751">
  <ele>1586.09</ele>
  <time>2026-08-28T19:10:13Z</time>
  <course>295.95</course>
  <speed>0.0</speed>
  <fix>3d</fix>
</trkpt>
<trkpt lat="40.0728421" lon="-105.230575">
  <ele>1586.16</ele>
  <time>2026-08-28T19:10:13Z</time>
  <course>11.64</course>
  <speed>0.01414213562373095</speed>
  <fix>3d</fix>
</trkpt>
<trkpt lat="40.0728423" lon="-105.2305751">
  <ele>1586.09</ele>
  <time>2026-08-28T19:10:13Z</time>
  <course>295.95</course>
  <speed>0.0</speed>
  <fix>3d</fix>
</trkpt>
<trkpt lat="40.0728421" lon="-105.230575">
  <ele>1586.16</ele>
  <time>2026-08-28T19:10:13Z</time>
  <course>11.69</course>
  <speed>0.01414213562373095</speed>
  <fix>3d</fix>
</trkpt>
<trkpt lat="40.0728423" lon="-105.2305751">
  <ele>1586.09</ele>
  <time>2026-08-28T19:10:13Z</time>
  <course>295.95</course>
  <speed>0.0</speed>
  <fix>3d</fix>
</trkpt>
<trkpt lat="40.0728421" lon="-105.230575">
  <ele>1586.16</ele>
  <time>2026-08-28T19:10:13Z</time>
  <course>11.74</course>
  <speed>0.01414213562373095</speed>
  <fix>3d</fix>
</trkpt>
<trkpt lat="40.0728423" lon="-105.2305751">
  <ele>1586.09</ele>
  <time>2026-08-28T19:10:13Z</time>
  <course>295.95</course>
  <speed>0.0</speed>
  <fix>3d</fix>
</trkpt>
<trkpt lat="40.0728421" lon="-105.230575">
  <ele>1586.16</ele>
  <time>2026-08-28T19:10:13Z</time>
  <course>11.79</course>
  <speed>0.01414213562373095</speed>
  <fix>3d</fix>
</trkpt>
<trkpt lat="40.0728423" lon="-105.2305751">
  <ele>1586.09</ele>
  <time>2026-08-28T19:10:13Z</time>
  <course>295.95</course>
  <speed>0.0</speed>
  <fix>3d</fix>
</trkpt>
<trkpt lat="40.0728421" lon="-105.230575">
  <ele>1586.16</ele>
  <time>2026-08-28T19:10:13Z</time>
  <course>11.84</course>
  <speed>0.01414213562373095</speed>
  <fix>3d</fix>
</trkpt>
<trkpt lat="40.0728423" lon="-105.2305751">
  <ele>1586.09</ele>
  <time>2026-08-28T19:10:13Z</time>
  <course>295.95</course>
  <speed>0.0</speed>
  <fix>3d</fix>
</trkpt>
<trkpt lat="40.0728421" lon="-105.230575">
  <ele>1586.16</ele>
  <time>2026-08-28T19:10:13Z</time>
  <course>11.89</course>
  <speed>0.01414213562373095</speed>
  <fix>3d</fix>
</trkpt>
<trkpt lat="40.0728423" lon="-105.2305751">
  <ele>1586.09</ele>
  <time>2026-08-28T19:10:13Z</time>
  <course>295.95</course>
  <speed>0.0</speed>
  <fix>3d</fix>
</trkpt>
<trkpt lat="40.0728421" lon="-105.230575">
  <ele>1586.16</ele>
  <time>2026-08-28T19:10:13Z</time>
  <course>11.94</course>
  <speed>0.01414213562373095</speed>
  <fix>3d</fix>
</trkpt>
<trkpt lat="40.0728423" lon="-105.2305751">
  <ele>1586.09</ele>
  <time>2026-08-28T19:10:13Z</time>
  <course>295.95</course>
  <speed>0.0</speed>
  <fix>3d</fix>
</trkpt>
<trkpt lat="40.0728421" lon="-105.230575">
  <ele>1586.16</ele>
  <time>2026-08-28T19:10:13Z</time>
  <course>11.99</course>
  <speed>0.01414213562373095</speed>
  <fix>3d</fix>
</trkpt>
<trkpt lat="40.0728423" lon="-105.2305751">
  <ele>1586.09</ele>
  <time>2026-08-28T19:10:13Z</time>
  <course>295.95</course>
  <speed>0.0</speed>
  <fix>3d</fix>
</trkpt>
<trkpt lat="40.0728421" lon="-105.230575">
  <ele>1586.17</ele>
  <time>2026-08-28T19:10:13Z</time>
  <course>12.04</course>
  <speed>0.01414213562373095</speed>
  <fix>3d</fix>
</trkpt>
<trkpt lat="40.0728423" lon="-105.2305751">
  <ele>1586.09</ele>
  <time>2026-08-28T19:10:13Z</time>
  <course>295.95</course>
  <speed>0.0</speed>
  <fix>3d</fix>
</trkpt>
<trkpt lat="40.0728421" lon="-105.230575">
  <ele>1586.17</ele>
  <time>2026-08-28T19:10:13Z</time>
  <course>12.09</course>
  <speed>0.022360679774997897</speed>
  <fix>3d</fix>
</trkpt>
<trkpt lat="40.0728423" lon="-105.2305751">
  <ele>1586.09</ele>
  <time>2026-08-28T19:10:13Z</time>
  <course>311.33</course>
  <speed>0.0</speed>
  <fix>3d</fix>
</trkpt>
<trkpt lat="40.0728421" lon="-105.230575">
  <ele>1586.17</ele>
  <time>2026-08-28T19:10:13Z</time>
  <course>12.14</course>
  <speed>0.022360679774997897</speed>
  <fix>3d</fix>
</trkpt>
<trkpt lat="40.0728423" lon="-105.2305751">
  <ele>1586.09</ele>
  <time>2026-08-28T19:10:13Z</time>
  <course>305.22</course>
  <speed>0.0</speed>
  <fix>3d</fix>
</trkpt>
<trkpt lat="40.0728421" lon="-105.230575">
  <ele>1586.17</ele>
  <time>2026-08-28T19:10:13Z</time>
  <course>12.19</course>
  <speed>0.022360679774997897</speed>
  <fix>3d</fix>
</trkpt>
<trkpt lat="40.0728423" lon="-105.2305751">
  <ele>1586.09</ele>
  <time>2026-08-28T19:10:13Z</time>
  <course>290.37</course>
  <speed>0.0</speed>
  <fix>3d</fix>
</trkpt>
<trkpt lat="40.0728421" lon="-105.230575">
  <ele>1586.17</ele>
  <time>2026-08-28T19:10:13Z</time>
  <course>12.24</course>
  <speed>0.022360679774997897</speed>
  <fix>3d</fix>
</trkpt>
<trkpt lat="40.0728423" lon="-105.2305751">
  <ele>1586.09</ele>
  <time>2026-08-28T19:10:13Z</time>
  <course>295.44</course>
  <speed>0.0</speed>
  <fix>3d</fix>
</trkpt>
<trkpt lat="40.0728421" lon="-105.230575">
  <ele>1586.17</ele>
  <time>2026-08-28T19:10:13Z</time>
  <course>12.3</course>
  <speed>0.022360679774997897</speed>
  <fix>3d</fix>
</trkpt>
<trkpt lat="40.0728423" lon="-105.2305751">
  <ele>1586.09</ele>
  <time>2026-08-28T19:10:13Z</time>
  <course>296.86</course>
  <speed>0.0</speed>
  <fix>3d</fix>
</trkpt>
<trkpt lat="40.0728421" lon="-105.230575">
  <ele>1586.17</ele>
  <time>2026-08-28T19:10:13Z</time>
  <course>12.35</course>
  <speed>0.022360679774997897</speed>
  <fix>3d</fix>
</trkpt>
<trkpt lat="40.0728423" lon="-105.2305751">
  <ele>1586.09</ele>
  <time>2026-08-28T19:10:13Z</time>
  <course>295.91</course>
  <speed>0.0</speed>
  <fix>3d</fix>
</trkpt>
<trkpt lat="40.0728421" lon="-105.230575">
  <ele>1586.17</ele>
  <time>2026-08-28T19:10:13Z</time>
  <course>12.4</course>
  <speed>0.022360679774997897</speed>
  <fix>3d</fix>
</trkpt>
<trkpt lat="40.0728423" lon="-105.2305751">
  <ele>1586.09</ele>
  <time>2026-08-28T19:10:13Z</time>
  <course>295.84</course>
  <speed>0.0</speed>
  <fix>3d</fix>
</trkpt>
<trkpt lat="40.0728421" lon="-105.230575">
  <ele>1586.16</ele>
  <time>2026-08-28T19:10:13Z</time>
  <course>12.45</course>
  <speed>0.022360679774997897</speed>
  <fix>3d</fix>
</trkpt>
<trkpt lat="40.0728423" lon="-105.2305751">
  <ele>1586.09</ele>
  <time>2026-08-28T19:10:13Z</time>
  <course>295.97</course>
  <speed>0.0</speed>
  <fix>3d</fix>
</trkpt>
<trkpt lat="40.0728421" lon="-105.230575">
  <ele>1586.16</ele>
  <time>2026-08-28T19:10:13Z</time>
  <course>12.5</course>
  <speed>0.022360679774997897</speed>
  <fix>3d</fix>
</trkpt>
<trkpt lat="40.0728423" lon="-105.2305751">
  <ele>1586.09</ele>
  <time>2026-08-28T19:10:13Z</time>
  <course>295.97</course>
  <speed>0.0</speed>
  <fix>3d</fix>
</trkpt>
<trkpt lat="40.0728421" lon="-105.230575">
  <ele>1586.17</ele>
  <time>2026-08-28T19:10:13Z</time>
  <course>12.55</course>
  <speed>0.022360679774997897</speed>
  <fix>3d</fix>
</trkpt>
<trkpt lat="40.0728423" lon="-105.2305751">
  <ele>1586.09</ele>
  <time>2026-08-28T19:10:13Z</time>
  <course>295.95</course>
  <speed>0.0</speed>
  <fix>3d</fix>
</trkpt>
<trkpt lat="40.0728421" lon="-105.230575">
  <ele>1586.17</ele>
  <time>2026-08-28T19:10:13Z</time>
  <course>12.6</course>
  <speed>0.022360679774997897</speed>
  <fix>3d</fix>
</trkpt>
<trkpt lat="40.0728423" lon="-105.2305751">
  <ele>1586.09</ele>
  <time>2026-08-28T19:10:13Z</time>
  <course>295.95</course>
  <speed>0.0</speed>
  <fix>3d</fix>
</trkpt>
<trkpt lat="40.0728421" lon="-105.230575">
  <ele>1586.17</ele>
  <time>2026-08-28T19:10:13Z</time>
  <course>12.65</course>
  <speed>0.022360679774997897</speed>
  <fix>3d</fix>
</trkpt>
<trkpt lat="40.0728423" lon="-105.2305751">
  <ele>1586.09</ele>
  <time>2026-08-28T19:10:13Z</time>
  <course>295.95</course>
  <speed>0.0</speed>
  <fix>3d</fix>
</trkpt>
<trkpt lat="40.0728421" lon="-105.230575">
  <ele>1586.17</ele>
  <time>2026-08-28T19:10:13Z</time>
  <course>12.7</course>
  <speed>0.01414213562373095</speed>
  <fix>3d</fix>
</trkpt>
<trkpt lat="40.0728423" lon="-105.2305751">
  <ele>1586.09</ele>
  <time>2026-08-28T19:10:13Z</time>
  <course>295.93</course>
  <speed>0.0</speed>
  <fix>3d</fix>
</trkpt>
<trkpt lat="40.0728421" lon="-105.230575">
  <ele>1586.17</ele>
  <time>2026-08-28T19:10:13Z</time>
  <course>12.75</course>
  <speed>0.01414213562373095</speed>
  <fix>3d</fix>
</trkpt>
<trkpt lat="40.0728423" lon="-105.2305751">
  <ele>1586.09</ele>
  <time>2026-08-28T19:10:13Z</time>
  <course>295.85</course>
  <speed>0.0</speed>
  <fix>3d</fix>
</trkpt>
<trkpt lat="40.0728421" lon="-105.230575">
  <ele>1586.17</ele>
  <time>2026-08-28T19:10:13Z</time>
  <course>12.8</course>
  <speed>0.01414213562373095</speed>
  <fix>3d</fix>
</trkpt>
<trkpt lat="40.0728423" lon="-105.2305751">
  <ele>1586.09</ele>
  <time>2026-08-28T19:10:13Z</time>
  <course>295.74</course>
  <speed>0.0</speed>
  <fix>3d</fix>
</trkpt>
<trkpt lat="40.0728421" lon="-105.230575">
  <ele>1586.17</ele>
  <time>2026-08-28T19:10:13Z</time>
  <course>12.85</course>
  <speed>0.01414213562373095</speed>
  <fix>3d</fix>
</trkpt>
<trkpt lat="40.0728423" lon="-105.2305751">
  <ele>1586.09</ele>
  <time>2026-08-28T19:10:13Z</time>
  <course>295.65</course>
  <speed>0.0</speed>
  <fix>3d</fix>
</trkpt>
<trkpt lat="40.0728421" lon="-105.230575">
  <ele>1586.17</ele>
  <time>2026-08-28T19:10:13Z</time>
  <course>12.89</course>
  <speed>0.01414213562373095</speed>
  <fix>3d</fix>
</trkpt>
<trkpt lat="40.0728423" lon="-105.2305751">
  <ele>1586.09</ele>
  <time>2026-08-28T19:10:13Z</time>
  <course>295.55</course>
  <speed>0.0</speed>
  <fix>3d</fix>
</trkpt>
<trkpt lat="40.0728421" lon="-105.230575">
  <ele>1586.17</ele>
  <time>2026-08-28T19:10:13Z</time>
  <course>12.93</course>
  <speed>0.01414213562373095</speed>
  <fix>3d</fix>
</trkpt>
<trkpt lat="40.0728423" lon="-105.2305751">
  <ele>1586.09</ele>
  <time>2026-08-28T19:10:13Z</time>
  <course>295.45</course>
  <speed>0.0</speed>
  <fix>3d</fix>
</trkpt>
<trkpt lat="40.0728421" lon="-105.230575">
  <ele>1586.17</ele>
  <time>2026-08-28T19:10:13Z</time>
  <course>12.97</course>
  <speed>0.01414213562373095</speed>
  <fix>3d</fix>
</trkpt>
<trkpt lat="40.0728423" lon="-105.2305751">
  <ele>1586.09</ele>
  <time>2026-08-28T19:10:13Z</time>
  <course>295.35</course>
  <speed>0.0</speed>
  <fix>3d</fix>
</trkpt>
<trkpt lat="40.0728421" lon="-105.230575">
  <ele>1586.17</ele>
  <time>2026-08-28T19:10:13Z</time>
  <course>13.01</course>
  <speed>0.01414213562373095</speed>
  <fix>3d</fix>
</trkpt>
<trkpt lat="40.0728423" lon="-105.2305751">
  <ele>1586.09</ele>
  <time>2026-08-28T19:10:13Z</time>
  <course>295.25</course>
  <speed>0.0</speed>
  <fix>3d</fix>
</trkpt>
<trkpt lat="40.0728421" lon="-105.230575">
  <ele>1586.17</ele>
  <time>2026-08-28T19:10:13Z</time>
  <course>13.05</course>
  <speed>0.01414213562373095</speed>
  <fix>3d</fix>
</trkpt>
<trkpt lat="40.0728423" lon="-105.2305751">
  <ele>1586.09</ele>
  <time>2026-08-28T19:10:13Z</time>
  <course>295.14</course>
  <speed>0.0</speed>
  <fix>3d</fix>
</trkpt>
<trkpt lat="40.0728421" lon="-105.230575">
  <ele>1586.17</ele>
  <time>2026-08-28T19:10:13Z</time>
  <course>13.09</course>
  <speed>0.01414213562373095</speed>
  <fix>3d</fix>
</trkpt>
<trkpt lat="40.0728423" lon="-105.2305751">
  <ele>1586.09</ele>
  <time>2026-08-28T19:10:13Z</time>
  <course>295.04</course>
  <speed>0.0</speed>
  <fix>3d</fix>
</trkpt>
<trkpt lat="40.0728421" lon="-105.230575">
  <ele>1586.17</ele>
  <time>2026-08-28T19:10:13Z</time>
  <course>13.12</course>
  <speed>0.01414213562373095</speed>
  <fix>3d</fix>
</trkpt>
<trkpt lat="40.0728423" lon="-105.2305751">
  <ele>1586.09</ele>
  <time>2026-08-28T19:10:13Z</time>
  <course>294.93</course>
  <speed>0.0</speed>
  <fix>3d</fix>
</trkpt>
<trkpt lat="40.0728421" lon="-105.230575">
  <ele>1586.17</ele>
  <time>2026-08-28T19:10:13Z</time>
  <course>13.16</course>
  <speed>0.01414213562373095</speed>
  <fix>3d</fix>
</trkpt>
<trkpt lat="40.0728423" lon="-105.2305751">
  <ele>1586.09</ele>
  <time>2026-08-28T19:10:13Z</time>
  <course>294.82</course>
  <speed>0.0</speed>
  <fix>3d</fix>
</trkpt>
<trkpt lat="40.0728421" lon="-105.230575">
  <ele>1586.16</ele>
  <time>2026-08-28T19:10:13Z</time>
  <course>13.19</course>
  <speed>0.01414213562373095</speed>
  <fix>3d</fix>
</trkpt>
<trkpt lat="40.0728423" lon="-105.2305751">
  <ele>1586.09</ele>
  <time>2026-08-28T19:10:13Z</time>
  <course>294.7</course>
  <speed>0.0</speed>
  <fix>3d</fix>
</trkpt>
<trkpt lat="40.0728421" lon="-105.230575">
  <ele>1586.17</ele>
  <time>2026-08-28T19:10:13Z</time>
  <course>13.22</course>
  <speed>0.01414213562373095</speed>
  <fix>3d</fix>
</trkpt>
<trkpt lat="40.0728423" lon="-105.2305751">
  <ele>1586.09</ele>
  <time>2026-08-28T19:10:13Z</time>
  <course>294.59</course>
  <speed>0.0</speed>
  <fix>3d</fix>
</trkpt>
<trkpt lat="40.0728421" lon="-105.230575">
  <ele>1586.17</ele>
  <time>2026-08-28T19:10:13Z</time>
  <course>13.24</course>
  <speed>0.01414213562373095</speed>
  <fix>3d</fix>
</trkpt>
<trkpt lat="40.0728423" lon="-105.2305751">
  <ele>1586.09</ele>
  <time>2026-08-28T19:10:13Z</time>
  <course>294.47</course>
  <speed>0.0</speed>
  <fix>3d</fix>
</trkpt>
<trkpt lat="40.0728421" lon="-105.230575">
  <ele>1586.17</ele>
  <time>2026-08-28T19:10:13Z</time>
  <course>13.27</course>
  <speed>0.01414213562373095</speed>
  <fix>3d</fix>
</trkpt>
<trkpt lat="40.0728423" lon="-105.2305751">
  <ele>1586.09</ele>
  <time>2026-08-28T19:10:13Z</time>
  <course>294.35</course>
  <speed>0.0</speed>
  <fix>3d</fix>
</trkpt>
<trkpt lat="40.0728421" lon="-105.230575">
  <ele>1586.17</ele>
  <time>2026-08-28T19:10:13Z</time>
  <course>13.3</course>
  <speed>0.022360679774997897</speed>
  <fix>3d</fix>
</trkpt>
<trkpt lat="40.0728423" lon="-105.2305751">
  <ele>1586.09</ele>
  <time>2026-08-28T19:10:13Z</time>
  <course>294.23</course>
  <speed>0.0</speed>
  <fix>3d</fix>
</trkpt>
<trkpt lat="40.0728421" lon="-105.230575">
  <ele>1586.16</ele>
  <time>2026-08-28T19:10:13Z</time>
  <course>13.32</course>
  <speed>0.022360679774997897</speed>
  <fix>3d</fix>
</trkpt>
<trkpt lat="40.0728423" lon="-105.2305751">
  <ele>1586.09</ele>
  <time>2026-08-28T19:10:13Z</time>
  <course>294.11</course>
  <speed>0.0</speed>
  <fix>3d</fix>
</trkpt>
<trkpt lat="40.0728421" lon="-105.230575">
  <ele>1586.16</ele>
  <time>2026-08-28T19:10:13Z</time>
  <course>13.34</course>
  <speed>0.022360679774997897</speed>
  <fix>3d</fix>
</trkpt>
<trkpt lat="40.0728423" lon="-105.2305751">
  <ele>1586.09</ele>
  <time>2026-08-28T19:10:13Z</time>
  <course>293.98</course>
  <speed>0.0</speed>
  <fix>3d</fix>
</trkpt>
<trkpt lat="40.0728421" lon="-105.230575">
  <ele>1586.16</ele>
  <time>2026-08-28T19:10:14Z</time>
  <course>13.36</course>
  <speed>0.022360679774997897</speed>
  <fix>3d</fix>
</trkpt>
<trkpt lat="40.0728423" lon="-105.2305751">
  <ele>1586.09</ele>
  <time>2026-08-28T19:10:14Z</time>
  <course>293.86</course>
  <speed>0.0</speed>
  <fix>3d</fix>
</trkpt>
<trkpt lat="40.0728421" lon="-105.230575">
  <ele>1586.16</ele>
  <time>2026-08-28T19:10:14Z</time>
  <course>13.38</course>
  <speed>0.022360679774997897</speed>
  <fix>3d</fix>
</trkpt>
<trkpt lat="40.0728423" lon="-105.2305751">
  <ele>1586.09</ele>
  <time>2026-08-28T19:10:14Z</time>
  <course>293.73</course>
  <speed>0.0</speed>
  <fix>3d</fix>
</trkpt>
<trkpt lat="40.0728421" lon="-105.230575">
  <ele>1586.16</ele>
  <time>2026-08-28T19:10:14Z</time>
  <course>13.4</course>
  <speed>0.022360679774997897</speed>
  <fix>3d</fix>
</trkpt>
<trkpt lat="40.0728423" lon="-105.2305751">
  <ele>1586.09</ele>
  <time>2026-08-28T19:10:14Z</time>
  <course>293.6</course>
  <speed>0.0</speed>
  <fix>3d</fix>
</trkpt>
<trkpt lat="40.0728421" lon="-105.230575">
  <ele>1586.15</ele>
  <time>2026-08-28T19:10:14Z</time>
  <course>13.41</course>
  <speed>0.022360679774997897</speed>
  <fix>3d</fix>
</trkpt>
<trkpt lat="40.0728423" lon="-105.2305751">
  <ele>1586.09</ele>
  <time>2026-08-28T19:10:14Z</time>
  <course>293.47</course>
  <speed>0.0</speed>
  <fix>3d</fix>
</trkpt>
<trkpt lat="40.0728421" lon="-105.230575">
  <ele>1586.15</ele>
  <time>2026-08-28T19:10:14Z</time>
  <course>13.43</course>
  <speed>0.022360679774997897</speed>
  <fix>3d</fix>
</trkpt>
<trkpt lat="40.0728423" lon="-105.2305751">
  <ele>1586.09</ele>
  <time>2026-08-28T19:10:14Z</time>
  <course>293.34</course>
  <speed>0.0</speed>
  <fix>3d</fix>
</trkpt>
<trkpt lat="40.0728421" lon="-105.230575">
  <ele>1586.15</ele>
  <time>2026-08-28T19:10:14Z</time>
  <course>13.44</course>
  <speed>0.022360679774997897</speed>
  <fix>3d</fix>
</trkpt>
<trkpt lat="40.0728423" lon="-105.2305751">
  <ele>1586.09</ele>
  <time>2026-08-28T19:10:14Z</time>
  <course>293.2</course>
  <speed>0.0</speed>
  <fix>3d</fix>
</trkpt>
<trkpt lat="40.0728421" lon="-105.230575">
  <ele>1586.15</ele>
  <time>2026-08-28T19:10:14Z</time>
  <course>13.45</course>
  <speed>0.022360679774997897</speed>
  <fix>3d</fix>
</trkpt>
<trkpt lat="40.0728423" lon="-105.2305751">
  <ele>1586.09</ele>
  <time>2026-08-28T19:10:14Z</time>
  <course>293.07</course>
  <speed>0.0</speed>
  <fix>3d</fix>
</trkpt>
<trkpt lat="40.0728421" lon="-105.230575">
  <ele>1586.15</ele>
  <time>2026-08-28T19:10:14Z</time>
  <course>13.46</course>
  <speed>0.022360679774997897</speed>
  <fix>3d</fix>
</trkpt>
<trkpt lat="40.0728423" lon="-105.2305751">
  <ele>1586.09</ele>
  <time>2026-08-28T19:10:14Z</time>
  <course>292.93</course>
  <speed>0.0</speed>
  <fix>3d</fix>
</trkpt>
<trkpt lat="40.0728421" lon="-105.230575">
  <ele>1586.15</ele>
  <time>2026-08-28T19:10:14Z</time>
  <course>13.47</course>
  <speed>0.022360679774997897</speed>
  <fix>3d</fix>
</trkpt>
<trkpt lat="40.0728423" lon="-105.2305751">
  <ele>1586.09</ele>
  <time>2026-08-28T19:10:14Z</time>
  <course>292.8</course>
  <speed>0.0</speed>
  <fix>3d</fix>
</trkpt>
<trkpt lat="40.0728421" lon="-105.230575">
  <ele>1586.15</ele>
  <time>2026-08-28T19:10:14Z</time>
  <course>13.47</course>
  <speed>0.022360679774997897</speed>
  <fix>3d</fix>
</trkpt>
<trkpt lat="40.0728423" lon="-105.2305751">
  <ele>1586.09</ele>
  <time>2026-08-28T19:10:14Z</time>
  <course>292.65</course>
  <speed>0.0</speed>
  <fix>3d</fix>
</trkpt>
<trkpt lat="40.0728421" lon="-105.230575">
  <ele>1586.15</ele>
  <time>2026-08-28T19:10:14Z</time>
  <course>13.48</course>
  <speed>0.022360679774997897</speed>
  <fix>3d</fix>
</trkpt>
<trkpt lat="40.0728423" lon="-105.2305751">
  <ele>1586.09</ele>
  <time>2026-08-28T19:10:14Z</time>
  <course>292.51</course>
  <speed>0.0</speed>
  <fix>3d</fix>
</trkpt>
<trkpt lat="40.0728421" lon="-105.230575">
  <ele>1586.15</ele>
  <time>2026-08-28T19:10:14Z</time>
  <course>13.48</course>
  <speed>0.022360679774997897</speed>
  <fix>3d</fix>
</trkpt>
<trkpt lat="40.0728423" lon="-105.2305751">
  <ele>1586.09</ele>
  <time>2026-08-28T19:10:14Z</time>
  <course>292.37</course>
  <speed>0.0</speed>
  <fix>3d</fix>
</trkpt>
<trkpt lat="40.0728421" lon="-105.230575">
  <ele>1586.15</ele>
  <time>2026-08-28T19:10:14Z</time>
  <course>13.48</course>
  <speed>0.022360679774997897</speed>
  <fix>3d</fix>
</trkpt>
<trkpt lat="40.0728423" lon="-105.2305751">
  <ele>1586.09</ele>
  <time>2026-08-28T19:10:14Z</time>
  <course>292.23</course>
  <speed>0.0</speed>
  <fix>3d</fix>
</trkpt>
<trkpt lat="40.0728421" lon="-105.230575">
  <ele>1586.15</ele>
  <time>2026-08-28T19:10:14Z</time>
  <course>13.48</course>
  <speed>0.022360679774997897</speed>
  <fix>3d</fix>
</trkpt>
<trkpt lat="40.0728423" lon="-105.2305751">
  <ele>1586.09</ele>
  <time>2026-08-28T19:10:14Z</time>
  <course>292.08</course>
  <speed>0.0</speed>
  <fix>3d</fix>
</trkpt>
<trkpt lat="40.0728421" lon="-105.230575">
  <ele>1586.15</ele>
  <time>2026-08-28T19:10:14Z</time>
  <course>13.48</course>
  <speed>0.022360679774997897</speed>
  <fix>3d</fix>
</trkpt>
<trkpt lat="40.0728423" lon="-105.2305751">
  <ele>1586.09</ele>
  <time>2026-08-28T19:10:14Z</time>
  <course>291.94</course>
  <speed>0.0</speed>
  <fix>3d</fix>
</trkpt>
<trkpt lat="40.0728421" lon="-105.230575">
  <ele>1586.15</ele>
  <time>2026-08-28T19:10:14Z</time>
  <course>13.47</course>
  <speed>0.022360679774997897</speed>
  <fix>3d</fix>
</trkpt>
<trkpt lat="40.0728423" lon="-105.2305751">
  <ele>1586.09</ele>
  <time>2026-08-28T19:10:14Z</time>
  <course>291.79</course>
  <speed>0.0</speed>
  <fix>3d</fix>
</trkpt>
<trkpt lat="40.0728421" lon="-105.230575">
  <ele>1586.16</ele>
  <time>2026-08-28T19:10:14Z</time>
  <course>13.47</course>
  <speed>0.022360679774997897</speed>
  <fix>3d</fix>
</trkpt>
<trkpt lat="40.0728423" lon="-105.2305751">
  <ele>1586.09</ele>
  <time>2026-08-28T19:10:14Z</time>
  <course>291.64</course>
  <speed>0.0</speed>
  <fix>3d</fix>
</trkpt>
<trkpt lat="40.0728421" lon="-105.230575">
  <ele>1586.16</ele>
  <time>2026-08-28T19:10:14Z</time>
  <course>13.46</course>
  <speed>0.022360679774997897</speed>
  <fix>3d</fix>
</trkpt>
<trkpt lat="40.0728423" lon="-105.2305751">
  <ele>1586.09</ele>
  <time>2026-08-28T19:10:14Z</time>
  <course>291.49</course>
  <speed>0.0</speed>
  <fix>3d</fix>
</trkpt>
<trkpt lat="40.0728421" lon="-105.230575">
  <ele>1586.16</ele>
  <time>2026-08-28T19:10:14Z</time>
  <course>13.45</course>
  <speed>0.022360679774997897</speed>
  <fix>3d</fix>
</trkpt>
<trkpt lat="40.0728423" lon="-105.2305751">
  <ele>1586.09</ele>
  <time>2026-08-28T19:10:14Z</time>
  <course>291.33</course>
  <speed>0.0</speed>
  <fix>3d</fix>
</trkpt>
<trkpt lat="40.0728421" lon="-105.230575">
  <ele>1586.16</ele>
  <time>2026-08-28T19:10:14Z</time>
  <course>13.44</course>
  <speed>0.022360679774997897</speed>
  <fix>3d</fix>
</trkpt>
<trkpt lat="40.0728423" lon="-105.2305751">
  <ele>1586.09</ele>
  <time>2026-08-28T19:10:14Z</time>
  <course>291.18</course>
  <speed>0.0</speed>
  <fix>3d</fix>
</trkpt>
<trkpt lat="40.0728421" lon="-105.230575">
  <ele>1586.16</ele>
  <time>2026-08-28T19:10:14Z</time>
  <course>13.43</course>
  <speed>0.022360679774997897</speed>
  <fix>3d</fix>
</trkpt>
<trkpt lat="40.0728423" lon="-105.2305751">
  <ele>1586.09</ele>
  <time>2026-08-28T19:10:14Z</time>
  <course>291.02</course>
  <speed>0.0</speed>
  <fix>3d</fix>
</trkpt>
<trkpt lat="40.0728421" lon="-105.230575">
  <ele>1586.16</ele>
  <time>2026-08-28T19:10:14Z</time>
  <course>13.42</course>
  <speed>0.022360679774997897</speed>
  <fix>3d</fix>
</trkpt>
<trkpt lat="40.0728423" lon="-105.2305751">
  <ele>1586.09</ele>
  <time>2026-08-28T19:10:14Z</time>
  <course>290.88</course>
  <speed>0.0</speed>
  <fix>3d</fix>
</trkpt>
<trkpt lat="40.0728421" lon="-105.230575">
  <ele>1586.16</ele>
  <time>2026-08-28T19:10:14Z</time>
  <course>13.41</course>
  <speed>0.022360679774997897</speed>
  <fix>3d</fix>
</trkpt>
<trkpt lat="40.0728423" lon="-105.2305751">
  <ele>1586.09</ele>
  <time>2026-08-28T19:10:14Z</time>
  <course>290.78</course>
  <speed>0.0</speed>
  <fix>3d</fix>
</trkpt>
<trkpt lat="40.0728421" lon="-105.230575">
  <ele>1586.16</ele>
  <time>2026-08-28T19:10:14Z</time>
  <course>13.39</course>
  <speed>0.022360679774997897</speed>
  <fix>3d</fix>
</trkpt>
<trkpt lat="40.0728423" lon="-105.2305751">
  <ele>1586.09</ele>
  <time>2026-08-28T19:10:14Z</time>
  <course>290.73</course>
  <speed>0.0</speed>
  <fix>3d</fix>
</trkpt>
<trkpt lat="40.0728421" lon="-105.230575">
  <ele>1586.15</ele>
  <time>2026-08-28T19:10:14Z</time>
  <course>13.38</course>
  <speed>0.022360679774997897</speed>
  <fix>3d</fix>
</trkpt>
<trkpt lat="40.0728423" lon="-105.2305751">
  <ele>1586.09</ele>
  <time>2026-08-28T19:10:14Z</time>
  <course>290.66</course>
  <speed>0.0</speed>
  <fix>3d</fix>
</trkpt>
<trkpt lat="40.0728421" lon="-105.230575">
  <ele>1586.15</ele>
  <time>2026-08-28T19:10:14Z</time>
  <course>13.37</course>
  <speed>0.022360679774997897</speed>
  <fix>3d</fix>
</trkpt>
<trkpt lat="40.0728423" lon="-105.2305751">
  <ele>1586.09</ele>
  <time>2026-08-28T19:10:14Z</time>
  <course>290.59</course>
  <speed>0.0</speed>
  <fix>3d</fix>
</trkpt>
<trkpt lat="40.0728421" lon="-105.230575">
  <ele>1586.15</ele>
  <time>2026-08-28T19:10:14Z</time>
  <course>13.35</course>
  <speed>0.022360679774997897</speed>
  <fix>3d</fix>
</trkpt>
<trkpt lat="40.0728423" lon="-105.2305751">
  <ele>1586.09</ele>
  <time>2026-08-28T19:10:14Z</time>
  <course>290.52</course>
  <speed>0.0</speed>
  <fix>3d</fix>
</trkpt>
<trkpt lat="40.0728421" lon="-105.230575">
  <ele>1586.16</ele>
  <time>2026-08-28T19:10:14Z</time>
  <course>13.34</course>
  <speed>0.022360679774997897</speed>
  <fix>3d</fix>
</trkpt>
<trkpt lat="40.0728423" lon="-105.2305751">
  <ele>1586.09</ele>
  <time>2026-08-28T19:10:14Z</time>
  <course>290.46</course>
  <speed>0.0</speed>
  <fix>3d</fix>
</trkpt>
<trkpt lat="40.0728421" lon="-105.230575">
  <ele>1586.16</ele>
  <time>2026-08-28T19:10:14Z</time>
  <course>13.32</course>
  <speed>0.022360679774997897</speed>
  <fix>3d</fix>
</trkpt>
<trkpt lat="40.0728423" lon="-105.2305751">
  <ele>1586.09</ele>
  <time>2026-08-28T19:10:14Z</time>
  <course>290.39</course>
  <speed>0.0</speed>
  <fix>3d</fix>
</trkpt>
<trkpt lat="40.0728421" lon="-105.230575">
  <ele>1586.16</ele>
  <time>2026-08-28T19:10:14Z</time>
  <course>13.32</course>
  <speed>0.022360679774997897</speed>
  <fix>3d</fix>
</trkpt>
<trkpt lat="40.0728423" lon="-105.2305751">
  <ele>1586.09</ele>
  <time>2026-08-28T19:10:14Z</time>
  <course>287.45</course>
  <speed>0.0</speed>
  <fix>3d</fix>
</trkpt>
<trkpt lat="40.0728421" lon="-105.230575">
  <ele>1586.16</ele>
  <time>2026-08-28T19:10:14Z</time>
  <course>13.31</course>
  <speed>0.022360679774997897</speed>
  <fix>3d</fix>
</trkpt>
<trkpt lat="40.0728423" lon="-105.2305751">
  <ele>1586.09</ele>
  <time>2026-08-28T19:10:14Z</time>
  <course>282.25</course>
  <speed>0.0</speed>
  <fix>3d</fix>
</trkpt>
<trkpt lat="40.0728421" lon="-105.230575">
  <ele>1586.16</ele>
  <time>2026-08-28T19:10:14Z</time>
  <course>13.3</course>
  <speed>0.022360679774997897</speed>
  <fix>3d</fix>
</trkpt>
<trkpt lat="40.0728423" lon="-105.2305751">
  <ele>1586.09</ele>
  <time>2026-08-28T19:10:14Z</time>
  <course>224.58</course>
  <speed>0.0</speed>
  <fix>3d</fix>
</trkpt>
<trkpt lat="40.0728421" lon="-105.230575">
  <ele>1586.16</ele>
  <time>2026-08-28T19:10:14Z</time>
  <course>13.28</course>
  <speed>0.022360679774997897</speed>
  <fix>3d</fix>
</trkpt>
<trkpt lat="40.0728423" lon="-105.2305751">
  <ele>1586.09</ele>
  <time>2026-08-28T19:10:14Z</time>
  <course>346.46</course>
  <speed>0.0</speed>
  <fix>3d</fix>
</trkpt>
<trkpt lat="40.0728421" lon="-105.230575">
  <ele>1586.17</ele>
  <time>2026-08-28T19:10:14Z</time>
  <course>13.24</course>
  <speed>0.022360679774997897</speed>
  <fix>3d</fix>
</trkpt>
<trkpt lat="40.0728423" lon="-105.2305751">
  <ele>1586.09</ele>
  <time>2026-08-28T19:10:14Z</time>
  <course>278.44</course>
  <speed>0.0</speed>
  <fix>3d</fix>
</trkpt>
<trkpt lat="40.0728421" lon="-105.230575">
  <ele>1586.19</ele>
  <time>2026-08-28T19:10:14Z</time>
  <course>13.18</course>
  <speed>0.022360679774997897</speed>
  <fix>3d</fix>
</trkpt>
<trkpt lat="40.0728423" lon="-105.2305751">
  <ele>1586.09</ele>
  <time>2026-08-28T19:10:14Z</time>
  <course>279.74</course>
  <speed>0.0</speed>
  <fix>3d</fix>
</trkpt>
<trkpt lat="40.0728421" lon="-105.230575">
  <ele>1586.23</ele>
  <time>2026-08-28T19:10:14Z</time>
  <course>13.12</course>
  <speed>0.022360679774997897</speed>
  <fix>3d</fix>
</trkpt>
<trkpt lat="40.0728423" lon="-105.2305751">
  <ele>1586.11</ele>
  <time>2026-08-28T19:10:14Z</time>
  <course>286.66</course>
  <speed>0.0</speed>
  <fix>3d</fix>
</trkpt>
<trkpt lat="40.0728421" lon="-105.230575">
  <ele>1586.27</ele>
  <time>2026-08-28T19:10:14Z</time>
  <course>13.04</course>
  <speed>0.022360679774997897</speed>
  <fix>3d</fix>
</trkpt>
<trkpt lat="40.0728423" lon="-105.2305751">
  <ele>1586.14</ele>
  <time>2026-08-28T19:10:14Z</time>
  <course>285.06</course>
  <speed>0.0</speed>
  <fix>3d</fix>
</trkpt>
<trkpt lat="40.0728421" lon="-105.230575">
  <ele>1586.36</ele>
  <time>2026-08-28T19:10:14Z</time>
  <course>7.05</course>
  <speed>0.0412310562561766</speed>
  <fix>3d</fix>
</trkpt>
<trkpt lat="40.0728423" lon="-105.2305751">
  <ele>1586.18</ele>
  <time>2026-08-28T19:10:14Z</time>
  <course>279.52</course>
  <speed>0.0</speed>
  <fix>3d</fix>
</trkpt>
<trkpt lat="40.0728421" lon="-105.2305754">
  <ele>1586.65</ele>
  <time>2026-08-28T19:10:14Z</time>
  <course>3.03</course>
  <speed>0.21</speed>
  <fix>3d</fix>
</trkpt>
<trkpt lat="40.0728423" lon="-105.2305752">
  <ele>1586.29</ele>
  <time>2026-08-28T19:10:14Z</time>
  <course>274.09</course>
  <speed>0.06</speed>
  <fix>3d</fix>
</trkpt>
<trkpt lat="40.0728422" lon="-105.230576">
  <ele>1586.93</ele>
  <time>2026-08-28T19:10:14Z</time>
  <course>2.0</course>
  <speed>0.27018512172212594</speed>
  <fix>3d</fix>
</trkpt>
<trkpt lat="40.0728423" lon="-105.2305755">
  <ele>1586.52</ele>
  <time>2026-08-28T19:10:14Z</time>
  <course>273.17</course>
  <speed>0.19</speed>
  <fix>3d</fix>
</trkpt>
<trkpt lat="40.0728422" lon="-105.2305767">
  <ele>1587.19</ele>
  <time>2026-08-28T19:10:14Z</time>
  <course>0.35</course>
  <speed>0.3</speed>
  <fix>3d</fix>
</trkpt>
<trkpt lat="40.0728423" lon="-105.230576">
  <ele>1586.79</ele>
  <time>2026-08-28T19:10:14Z</time>
  <course>271.74</course>
  <speed>0.27</speed>
  <fix>3d</fix>
</trkpt>
<trkpt lat="40.0728422" lon="-105.2305774">
  <ele>1587.5</ele>
  <time>2026-08-28T19:10:14Z</time>
  <course>359.15</course>
  <speed>0.30016662039607267</speed>
  <fix>3d</fix>
</trkpt>
<trkpt lat="40.0728423" lon="-105.2305767">
  <ele>1587.05</ele>
  <time>2026-08-28T19:10:14Z</time>
  <course>269.95</course>
  <speed>0.31</speed>
  <fix>3d</fix>
</trkpt>
<trkpt lat="40.0728422" lon="-105.2305781">
  <ele>1587.83</ele>
  <time>2026-08-28T19:10:14Z</time>
  <course>358.34</course>
  <speed>0.280178514522438</speed>
  <fix>3d</fix>
</trkpt>
<trkpt lat="40.0728423" lon="-105.2305775">
  <ele>1587.34</ele>
  <time>2026-08-28T19:10:14Z</time>
  <course>268.51</course>
  <speed>0.31</speed>
  <fix>3d</fix>
</trkpt>
<trkpt lat="40.0728422" lon="-105.2305788">
  <ele>1588.19</ele>
  <time>2026-08-28T19:10:14Z</time>
  <course>357.6</course>
  <speed>0.24083189157584592</speed>
  <fix>3d</fix>
</trkpt>
<trkpt lat="40.0728423" lon="-105.2305782">
  <ele>1587.65</ele>
  <time>2026-08-28T19:10:14Z</time>
  <course>268.04</course>
  <speed>0.29</speed>
  <fix>3d</fix>
</trkpt>
<trkpt lat="40.0728422" lon="-105.2305793">
  <ele>1588.59</ele>
  <time>2026-08-28T19:10:14Z</time>
  <course>356.9</course>
  <speed>0.2009975124224178</speed>
  <fix>3d</fix>
</trkpt>
<trkpt lat="40.0728423" lon="-105.2305789">
  <ele>1588.01</ele>
  <time>2026-08-28T19:10:14Z</time>
  <course>268.55</course>
  <speed>0.26</speed>
  <fix>3d</fix>
</trkpt>
<trkpt lat="40.0728422" lon="-105.2305798">
  <ele>1589.03</ele>
  <time>2026-08-28T19:10:14Z</time>
  <course>359.65</course>
  <speed>0.16124515496597097</speed>
  <fix>3d</fix>
</trkpt>
<trkpt lat="40.0728423" lon="-105.2305795">
  <ele>1588.4</ele>
  <time>2026-08-28T19:10:14Z</time>
  <course>269.75</course>
  <speed>0.22</speed>
  <fix>3d</fix>
</trkpt>
<trkpt lat="40.0728422" lon="-105.2305802">
  <ele>1589.52</ele>
  <time>2026-08-28T19:10:14Z</time>
  <course>356.42</course>
  <speed>0.12369316876852982</speed>
  <fix>3d</fix>
</trkpt>
<trkpt lat="40.0728423" lon="-105.23058">
  <ele>1588.85</ele>
  <time>2026-08-28T19:10:14Z</time>
  <course>271.34</course>
  <speed>0.18</speed>
  <fix>3d</fix>
</trkpt>
<trkpt lat="40.0728422" lon="-105.2305805">
  <ele>1590.03</ele>
  <time>2026-08-28T19:10:14Z</time>
  <course>355.08</course>
  <speed>0.08944271909999159</speed>
  <fix>3d</fix>
</trkpt>
<trkpt lat="40.0728423" lon="-105.2305803">
  <ele>1589.33</ele>
  <time>2026-08-28T19:10:14Z</time>
  <course>273.6</course>
  <speed>0.14</speed>
  <fix>3d</fix>
</trkpt>
<trkpt lat="40.0728422" lon="-105.2305807">
  <ele>1590.56</ele>
  <time>2026-08-28T19:10:14Z</time>
  <course>356.57</course>
  <speed>0.044721359549995794</speed>
  <fix>3d</fix>
</trkpt>
<trkpt lat="40.0728423" lon="-105.2305806">
  <ele>1589.84</ele>
  <time>2026-08-28T19:10:14Z</time>
  <course>279.52</course>
  <speed>0.1</speed>
  <fix>3d</fix>
</trkpt>
<trkpt lat="40.0728422" lon="-105.2305807">
  <ele>1591.09</ele>
  <time>2026-08-28T19:10:14Z</time>
  <course>358.02</course>
  <speed>0.0</speed>
  <fix>3d</fix>
</trkpt>
<trkpt lat="40.0728423" lon="-105.2305808">
  <ele>1590.36</ele>
  <time>2026-08-28T19:10:14Z</time>
  <course>298.57</course>
  <speed>0.06</speed>
  <fix>3d</fix>
</trkpt>
<trkpt lat="40.0728422" lon="-105.2305807">
  <ele>1591.61</ele>
  <time>2026-08-28T19:10:14Z</time>
  <course>359.22</course>
  <speed>0.044721359549995794</speed>
  <fix>3d</fix>
</trkpt>
<trkpt lat="40.0728423" lon="-105.2305808">
  <ele>1590.88</ele>
  <time>2026-08-28T19:10:14Z</time>
  <course>344.15</course>
  <speed>0.05</speed>
  <fix>3d</fix>
</trkpt>
<trkpt lat="40.0728424" lon="-105.2305807">
  <ele>1592.13</ele>
  <time>2026-08-28T19:10:14Z</time>
  <course>0.26</course>
  <speed>0.0854400374531753</speed>
  <fix>3d</fix>
</trkpt>
<trkpt lat="40.0728424" lon="-105.2305808">
  <ele>1591.4</ele>
  <time>2026-08-28T19:10:14Z</time>
  <course>25.34</course>
  <speed>0.06</speed>
  <fix>3d</fix>
</trkpt>
<trkpt lat="40.0728425" lon="-105.2305805">
  <ele>1592.64</ele>
  <time>2026-08-28T19:10:14Z</time>
  <course>1.17</course>
  <speed>0.11401754250991379</speed>
  <fix>3d</fix>
</trkpt>
<trkpt lat="40.0728426" lon="-105.2305808">
  <ele>1591.92</ele>
  <time>2026-08-28T19:10:14Z</time>
  <course>48.32</course>
  <speed>0.09</speed>
  <fix>3d</fix>
</trkpt>
<trkpt lat="40.0728426" lon="-105.2305802">
  <ele>1593.15</ele>
  <time>2026-08-28T19:10:14Z</time>
  <course>1.98</course>
  <speed>0.1414213562373095</speed>
  <fix>3d</fix>
</trkpt>
<trkpt lat="40.0728426" lon="-105.2305806">
  <ele>1592.43</ele>
  <time>2026-08-28T19:10:14Z</time>
  <course>64.06</course>
  <speed>0.11</speed>
  <fix>3d</fix>
</trkpt>
<trkpt lat="40.0728427" lon="-105.2305799">
  <ele>1593.65</ele>
  <time>2026-08-28T19:10:14Z</time>
  <course>2.69</course>
  <speed>0.17029386365926402</speed>
  <fix>3d</fix>
</trkpt>
<trkpt lat="40.0728427" lon="-105.2305804">
  <ele>1592.93</ele>
  <time>2026-08-28T19:10:14Z</time>
  <course>75.58</course>
  <speed>0.14</speed>
  <fix>3d</fix>
</trkpt>
<trkpt lat="40.0728427" lon="-105.2305795">
  <ele>1594.15</ele>
  <time>2026-08-28T19:10:14Z</time>
  <course>3.3</course>
  <speed>0.19</speed>
  <fix>3d</fix>
</trkpt>
<trkpt lat="40.0728427" lon="-105.2305801">
  <ele>1593.44</ele>
  <time>2026-08-28T19:10:14Z</time>
  <course>83.6</course>
  <speed>0.16</speed>
  <fix>3d</fix>
</trkpt>
<trkpt lat="40.0728427" lon="-105.230579">
  <ele>1594.66</ele>
  <time>2026-08-28T19:10:14Z</time>
  <course>3.83</course>
  <speed>0.21</speed>
  <fix>3d</fix>
</trkpt>
<trkpt lat="40.0728427" lon="-105.2305796">
  <ele>1593.93</ele>
  <time>2026-08-28T19:10:14Z</time>
  <course>89.0</course>
  <speed>0.19</speed>
  <fix>3d</fix>
</trkpt>
<trkpt lat="40.0728427" lon="-105.2305785">
  <ele>1595.16</ele>
  <time>2026-08-28T19:10:14Z</time>
  <course>4.34</course>
  <speed>0.22</speed>
  <fix>3d</fix>
</trkpt>
<trkpt lat="40.0728427" lon="-105.2305791">
  <ele>1594.43</ele>
  <time>2026-08-28T19:10:14Z</time>
  <course>92.78</course>
  <speed>0.21</speed>
  <fix>3d</fix>
</trkpt>
<trkpt lat="40.0728427" lon="-105.230578">
  <ele>1595.67</ele>
  <time>2026-08-28T19:10:14Z</time>
  <course>4.81</course>
  <speed>0.22022715545545238</speed>
  <fix>3d</fix>
</trkpt>
<trkpt lat="40.0728427" lon="-105.2305786">
  <ele>1594.93</ele>
  <time>2026-08-28T19:10:14Z</time>
  <course>95.58</course>
  <speed>0.22</speed>
  <fix>3d</fix>
</trkpt>
<trkpt lat="40.0728427" lon="-105.2305775">
  <ele>1596.17</ele>
  <time>2026-08-28T19:10:14Z</time>
  <course>5.24</course>
  <speed>0.22022715545545238</speed>
  <fix>3d</fix>
</trkpt>
<trkpt lat="40.0728427" lon="-105.2305781">
  <ele>1595.43</ele>
  <time>2026-08-28T19:10:14Z</time>
  <course>97.8</course>
  <speed>0.22</speed>
  <fix>3d</fix>
</trkpt>
<trkpt lat="40.0728427" lon="-105.230577">
  <ele>1596.67</ele>
  <time>2026-08-28T19:10:14Z</time>
  <course>5.62</course>
  <speed>0.2109502310972899</speed>
  <fix>3d</fix>
</trkpt>
<trkpt lat="40.0728427" lon="-105.2305775">
  <ele>1595.92</ele>
  <time>2026-08-28T19:10:14Z</time>
  <course>99.75</course>
  <speed>0.22</speed>
  <fix>3d</fix>
</trkpt>
<trkpt lat="40.0728426" lon="-105.2305765">
  <ele>1597.17</ele>
  <time>2026-08-28T19:10:14Z</time>
  <course>6.04</course>
  <speed>0.191049731745428</speed>
  <fix>3d</fix>
</trkpt>
<trkpt lat="40.0728427" lon="-105.230577">
  <ele>1596.41</ele>
  <time>2026-08-28T19:10:14Z</time>
  <course>101.64</course>
  <speed>0.22</speed>
  <fix>3d</fix>
</trkpt>
<trkpt lat="40.0728425" lon="-105.2305761">
  <ele>1597.66</ele>
  <time>2026-08-28T19:10:14Z</time>
  <course>6.38</course>
  <speed>0.18110770276274835</speed>
  <fix>3d</fix>
</trkpt>
<trkpt lat="40.0728426" lon="-105.2305765">
  <ele>1596.91</ele>
  <time>2026-08-28T19:10:14Z</time>
  <course>103.51</course>
  <speed>0.2</speed>
  <fix>3d</fix>
</trkpt>
<trkpt lat="40.0728425" lon="-105.2305757">
  <ele>1598.15</ele>
  <time>2026-08-28T19:10:14Z</time>
  <course>6.69</course>
  <speed>0.16124515496597097</speed>
  <fix>3d</fix>
</trkpt>
<trkpt lat="40.0728425" lon="-105.230576">
  <ele>1597.4</ele>
  <time>2026-08-28T19:10:14Z</time>
  <course>105.43</course>
  <speed>0.19</speed>
  <fix>3d</fix>
</trkpt>
<trkpt lat="40.0728424" lon="-105.2305753">
  <ele>1598.64</ele>
  <time>2026-08-28T19:10:14Z</time>
  <course>6.99</course>
  <speed>0.1414213562373095</speed>
  <fix>3d</fix>
</trkpt>
<trkpt lat="40.0728424" lon="-105.2305757">
  <ele>1597.9</ele>
  <time>2026-08-28T19:10:14Z</time>
  <course>107.6</course>
  <speed>0.17</speed>
  <fix>3d</fix>
</trkpt>
<trkpt lat="40.0728423" lon="-105.230575">
  <ele>1599.13</ele>
  <time>2026-08-28T19:10:14Z</time>
  <course>7.26</course>
  <speed>0.11045361017187261</speed>
  <fix>3d</fix>
</trkpt>
<trkpt lat="40.0728423" lon="-105.2305753">
  <ele>1598.39</ele>
  <time>2026-08-28T19:10:14Z</time>
  <course>110.15</course>
  <speed>0.14</speed>
  <fix>3d</fix>
</trkpt>
<trkpt lat="40.0728422" lon="-105.2305748">
  <ele>1599.63</ele>
  <time>2026-08-28T19:10:14Z</time>
  <course>7.53</course>
  <speed>0.09055385138137417</speed>
  <fix>3d</fix>
</trkpt>
<trkpt lat="40.0728422" lon="-105.230575">
  <ele>1598.89</ele>
  <time>2026-08-28T19:10:14Z</time>
  <course>113.36</course>
  <speed>0.12</speed>
  <fix>3d</fix>
</trkpt>
<trkpt lat="40.0728422" lon="-105.2305746">
  <ele>1600.13</ele>
  <time>2026-08-28T19:10:14Z</time>
  <course>7.79</course>
  <speed>0.07071067811865475</speed>
  <fix>3d</fix>
</trkpt>
<trkpt lat="40.0728421" lon="-105.2305748">
  <ele>1599.39</ele>
  <time>2026-08-28T19:10:14Z</time>
  <course>117.43</course>
  <speed>0.1</speed>
  <fix>3d</fix>
</trkpt>
<trkpt lat="40.0728421" lon="-105.2305744">
  <ele>1600.63</ele>
  <time>2026-08-28T19:10:14Z</time>
  <course>8.05</course>
  <speed>0.04</speed>
  <fix>3d</fix>
</trkpt>
<trkpt lat="40.072842" lon="-105.2305745">
  <ele>1599.89</ele>
  <time>2026-08-28T19:10:14Z</time>
  <course>122.71</course>
  <speed>0.07</speed>
  <fix>3d</fix>
</trkpt>
<trkpt lat="40.072842" lon="-105.2305744">
  <ele>1601.13</ele>
  <time>2026-08-28T19:10:14Z</time>
  <course>8.31</course>
  <speed>0.03</speed>
  <fix>3d</fix>
</trkpt>
<trkpt lat="40.072842" lon="-105.2305744">
  <ele>1600.39</ele>
  <time>2026-08-28T19:10:14Z</time>
  <course>130.5</course>
  <speed>0.05</speed>
  <fix>3d</fix>
</trkpt>
<trkpt lat="40.072842" lon="-105.2305743">
  <ele>1601.63</ele>
  <time>2026-08-28T19:10:14Z</time>
  <course>8.59</course>
  <speed>0.01</speed>
  <fix>3d</fix>
</trkpt>
<trkpt lat="40.0728419" lon="-105.2305744">
  <ele>1600.89</ele>
  <time>2026-08-28T19:10:14Z</time>
  <course>144.11</course>
  <speed>0.03</speed>
  <fix>3d</fix>
</trkpt>
<trkpt lat="40.0728419" lon="-105.2305743">
  <ele>1602.13</ele>
  <time>2026-08-28T19:10:14Z</time>
  <course>8.86</course>
  <speed>0.01</speed>
  <fix>3d</fix>
</trkpt>
<trkpt lat="40.0728419" lon="-105.2305744">
  <ele>1601.39</ele>
  <time>2026-08-28T19:10:14Z</time>
  <course>172.77</course>
  <speed>0.02</speed>
  <fix>3d</fix>
</trkpt>
<trkpt lat="40.0728419" lon="-105.2305743">
  <ele>1602.64</ele>
  <time>2026-08-28T19:10:14Z</time>
  <course>9.1</course>
  <speed>0.01414213562373095</speed>
  <fix>3d</fix>
</trkpt>
<trkpt lat="40.0728419" lon="-105.2305744">
  <ele>1601.9</ele>
  <time>2026-08-28T19:10:14Z</time>
  <course>224.51</course>
  <speed>0.01</speed>
  <fix>3d</fix>
</trkpt>
<trkpt lat="40.0728419" lon="-105.2305743">
  <ele>1603.15</ele>
  <time>2026-08-28T19:10:14Z</time>
  <course>9.37</course>
  <speed>0.0282842712474619</speed>
  <fix>3d</fix>
</trkpt>
<trkpt lat="40.0728419" lon="-105.2305744">
  <ele>1602.4</ele>
  <time>2026-08-28T19:10:14Z</time>
  <course>259.7</course>
  <speed>0.02</speed>
  <fix>3d</fix>
</trkpt>
<trkpt lat="40.0728419" lon="-105.2305744">
  <ele>1603.65</ele>
  <time>2026-08-28T19:10:14Z</time>
  <course>9.65</course>
  <speed>0.0282842712474619</speed>
  <fix>3d</fix>
</trkpt>
<trkpt lat="40.0728419" lon="-105.2305744">
  <ele>1602.9</ele>
  <time>2026-08-28T19:10:14Z</time>
  <course>274.49</course>
  <speed>0.03</speed>
  <fix>3d</fix>
</trkpt>
<trkpt lat="40.0728419" lon="-105.2305745">
  <ele>1604.16</ele>
  <time>2026-08-28T19:10:14Z</time>
  <course>9.92</course>
  <speed>0.03605551275463989</speed>
  <fix>3d</fix>
</trkpt>
<trkpt lat="40.0728419" lon="-105.2305745">
  <ele>1603.41</ele>
  <time>2026-08-28T19:10:14Z</time>
  <course>282.57</course>
  <speed>0.04</speed>
  <fix>3d</fix>
</trkpt>
<trkpt lat="40.0728419" lon="-105.2305746">
  <ele>1604.66</ele>
  <time>2026-08-28T19:10:14Z</time>
  <course>10.16</course>
  <speed>0.04242640687119285</speed>
  <fix>3d</fix>
</trkpt>
<trkpt lat="40.0728419" lon="-105.2305746">
  <ele>1603.91</ele>
  <time>2026-08-28T19:10:14Z</time>
  <course>288.71</course>
  <speed>0.05</speed>
  <fix>3d</fix>
</trkpt>
<trkpt lat="40.072842" lon="-105.2305747">
  <ele>1605.17</ele>
  <time>2026-08-28T19:10:14Z</time>
  <course>10.39</course>
  <speed>0.03605551275463989</speed>
  <fix>3d</fix>
</trkpt>
<trkpt lat="40.0728419" lon="-105.2305747">
  <ele>1604.4</ele>
  <time>2026-08-28T19:10:14Z</time>
  <course>293.51</course>
  <speed>0.05</speed>
  <fix>3d</fix>
</trkpt>
<trkpt lat="40.072842" lon="-105.2305748">
  <ele>1605.68</ele>
  <time>2026-08-28T19:10:14Z</time>
  <course>10.6</course>
  <speed>0.03605551275463989</speed>
  <fix>3d</fix>
</trkpt>
<trkpt lat="40.0728419" lon="-105.2305748">
  <ele>1604.9</ele>
  <time>2026-08-28T19:10:14Z</time>
  <course>297.14</course>
  <speed>0.05</speed>
  <fix>3d</fix>
</trkpt>
<trkpt lat="40.072842" lon="-105.2305749">
  <ele>1606.18</ele>
  <time>2026-08-28T19:10:14Z</time>
  <course>10.81</course>
  <speed>0.03605551275463989</speed>
  <fix>3d</fix>
</trkpt>
<trkpt lat="40.0728419" lon="-105.2305749">
  <ele>1605.39</ele>
  <time>2026-08-28T19:10:14Z</time>
  <course>300.15</course>
  <speed>0.05</speed>
  <fix>3d</fix>
</trkpt>
<trkpt lat="40.0728421" lon="-105.230575">
  <ele>1606.68</ele>
  <time>2026-08-28T19:10:14Z</time>
  <course>10.98</course>
  <speed>0.0316227766016838</speed>
  <fix>3d</fix>
</trkpt>
<trkpt lat="40.072842" lon="-105.2305751">
  <ele>1605.89</ele>
  <time>2026-08-28T19:10:14Z</time>
  <course>303.14</course>
  <speed>0.05</speed>
  <fix>3d</fix>
</trkpt>
<trkpt lat="40.0728421" lon="-105.2305751">
  <ele>1607.18</ele>
  <time>2026-08-28T19:10:14Z</time>
  <course>11.19</course>
  <speed>0.0316227766016838</speed>
  <fix>3d</fix>
</trkpt>
<trkpt lat="40.072842" lon="-105.2305752">
  <ele>1606.38</ele>
  <time>2026-08-28T19:10:14Z</time>
  <course>306.85</course>
  <speed>0.05</speed>
  <fix>3d</fix>
</trkpt>
<trkpt lat="40.0728422" lon="-105.2305752">
  <ele>1607.67</ele>
  <time>2026-08-28T19:10:14Z</time>
  <course>11.37</course>
  <speed>0.03</speed>
  <fix>3d</fix>
</trkpt>
<trkpt lat="40.072842" lon="-105.2305753">
  <ele>1606.88</ele>
  <time>2026-08-28T19:10:14Z</time>
  <course>311.54</course>
  <speed>0.05</speed>
  <fix>3d</fix>
</trkpt>
<trkpt lat="40.0728422" lon="-105.2305752">
  <ele>1608.16</ele>
  <time>2026-08-28T19:10:14Z</time>
  <course>11.5</course>
  <speed>0.02</speed>
  <fix>3d</fix>
</trkpt>
<trkpt lat="40.0728421" lon="-105.2305753">
  <ele>1607.37</ele>
  <time>2026-08-28T19:10:14Z</time>
  <course>316.61</course>
  <speed>0.04</speed>
  <fix>3d</fix>
</trkpt>
<trkpt lat="40.0728422" lon="-105.2305753">
  <ele>1608.65</ele>
  <time>2026-08-28T19:10:14Z</time>
  <course>11.62</course>
  <speed>0.02</speed>
  <fix>3d</fix>
</trkpt>
<trkpt lat="40.0728422" lon="-105.2305754">
  <ele>1607.86</ele>
  <time>2026-08-28T19:10:14Z</time>
  <course>322.27</course>
  <speed>0.04</speed>
  <fix>3d</fix>
</trkpt>
<trkpt lat="40.0728423" lon="-105.2305753">
  <ele>1609.14</ele>
  <time>2026-08-28T19:10:14Z</time>
  <course>11.74</course>
  <speed>0.02</speed>
  <fix>3d</fix>
</trkpt>
<trkpt lat="40.0728423" lon="-105.2305755">
  <ele>1608.35</ele>
  <time>2026-08-28T19:10:14Z</time>
  <course>328.66</course>
  <speed>0.04</speed>
  <fix>3d</fix>
</trkpt>
<trkpt lat="40.0728423" lon="-105.2305754">
  <ele>1609.63</ele>
  <time>2026-08-28T19:10:14Z</time>
  <course>11.85</course>
  <speed>0.01414213562373095</speed>
  <fix>3d</fix>
</trkpt>
<trkpt lat="40.0728423" lon="-105.2305756">
  <ele>1608.85</ele>
  <time>2026-08-28T19:10:14Z</time>
  <course>334.89</course>
  <speed>0.03</speed>
  <fix>3d</fix>
</trkpt>
<trkpt lat="40.0728424" lon="-105.2305754">
  <ele>1610.13</ele>
  <time>2026-08-28T19:10:14Z</time>
  <course>11.98</course>
  <speed>0.01414213562373095</speed>
  <fix>3d</fix>
</trkpt>
<trkpt lat="40.0728424" lon="-105.2305756">
  <ele>1609.34</ele>
  <time>2026-08-28T19:10:14Z</time>
  <course>341.32</course>
  <speed>0.03</speed>
  <fix>3d</fix>
</trkpt>
<trkpt lat="40.0728424" lon="-105.2305754">
  <ele>1610.64</ele>
  <time>2026-08-28T19:10:14Z</time>
  <course>12.1</course>
  <speed>0.022360679774997897</speed>
  <fix>3d</fix>
</trkpt>
<trkpt lat="40.0728425" lon="-105.2305756">
  <ele>1609.84</ele>
  <time>2026-08-28T19:10:14Z</time>
  <course>349.15</course>
  <speed>0.02</speed>
  <fix>3d</fix>
</trkpt>
<trkpt lat="40.0728424" lon="-105.2305754">
  <ele>1611.15</ele>
  <time>2026-08-28T19:10:14Z</time>
  <course>12.24</course>
  <speed>0.02</speed>
  <fix>3d</fix>
</trkpt>
<trkpt lat="40.0728425" lon="-105.2305756">
  <ele>1610.34</ele>
  <time>2026-08-28T19:10:14Z</time>
  <course>358.54</course>
  <speed>0.02</speed>
  <fix>3d</fix>
</trkpt>
<trkpt lat="40.0728425" lon="-105.2305754">
  <ele>1611.65</ele>
  <time>2026-08-28T19:10:14Z</time>
  <course>12.35</course>
  <speed>0.02</speed>
  <fix>3d</fix>
</trkpt>
<trkpt lat="40.0728425" lon="-105.2305756">
  <ele>1610.84</ele>
  <time>2026-08-28T19:10:14Z</time>
  <course>8.52</course>
  <speed>0.02</speed>
  <fix>3d</fix>
</trkpt>
<trkpt lat="40.0728425" lon="-105.2305754">
  <ele>1612.14</ele>
  <time>2026-08-28T19:10:14Z</time>
  <course>12.45</course>
  <speed>0.02</speed>
  <fix>3d</fix>
</trkpt>
<trkpt lat="40.0728426" lon="-105.2305756">
  <ele>1611.34</ele>
  <time>2026-08-28T19:10:14Z</time>
  <course>19.26</course>
  <speed>0.01</speed>
  <fix>3d</fix>
</trkpt>
<trkpt lat="40.0728425" lon="-105.2305754">
  <ele>1612.64</ele>
  <time>2026-08-28T19:10:14Z</time>
  <course>12.56</course>
  <speed>0.03</speed>
  <fix>3d</fix>
</trkpt>
<trkpt lat="40.0728426" lon="-105.2305756">
  <ele>1611.84</ele>
  <time>2026-08-28T19:10:14Z</time>
  <course>32.72</course>
  <speed>0.01</speed>
  <fix>3d</fix>
</trkpt>
<trkpt lat="40.0728425" lon="-105.2305754">
  <ele>1613.14</ele>
  <time>2026-08-28T19:10:14Z</time>
  <course>12.71</course>
  <speed>0.0316227766016838</speed>
  <fix>3d</fix>
</trkpt>
<trkpt lat="40.0728426" lon="-105.2305756">
  <ele>1612.34</ele>
  <time>2026-08-28T19:10:14Z</time>
  <course>51.96</course>
  <speed>0.01</speed>
  <fix>3d</fix>
</trkpt>
<trkpt lat="40.0728425" lon="-105.2305754">
  <ele>1613.62</ele>
  <time>2026-08-28T19:10:14Z</time>
  <course>13.17</course>
  <speed>0.022360679774997897</speed>
  <fix>3d</fix>
</trkpt>
<trkpt lat="40.0728426" lon="-105.2305756">
  <ele>1612.83</ele>
  <time>2026-08-28T19:10:14Z</time>
  <course>72.01</course>
  <speed>0.01</speed>
  <fix>3d</fix>
</trkpt>
<trkpt lat="40.0728425" lon="-105.2305754">
  <ele>1614.07</ele>
  <time>2026-08-28T19:10:14Z</time>
  <course>13.69</course>
  <speed>0.0316227766016838</speed>
  <fix>3d</fix>
</trkpt>
<trkpt lat="40.0728426" lon="-105.2305756">
  <ele>1613.32</ele>
  <time>2026-08-28T19:10:14Z</time>
  <course>91.2</course>
  <speed>0.0</speed>
  <fix>3d</fix>
</trkpt>
<trkpt lat="40.0728425" lon="-105.2305753">
  <ele>1614.49</ele>
  <time>2026-08-28T19:10:14Z</time>
  <course>14.18</course>
  <speed>0.03605551275463989</speed>
  <fix>3d</fix>
</trkpt>
<trkpt lat="40.0728426" lon="-105.2305756">
  <ele>1613.78</ele>
  <time>2026-08-28T19:10:14Z</time>
  <course>104.27</course>
  <speed>0.01</speed>
  <fix>3d</fix>
</trkpt>
<trkpt lat="40.0728425" lon="-105.2305753">
  <ele>1614.86</ele>
  <time>2026-08-28T19:10:14Z</time>
  <course>14.63</course>
  <speed>0.03605551275463989</speed>
  <fix>3d</fix>
</trkpt>
<trkpt lat="40.0728426" lon="-105.2305756">
  <ele>1614.2</ele>
  <time>2026-08-28T19:10:14Z</time>
  <course>107.64</course>
  <speed>0.01</speed>
  <fix>3d</fix>
</trkpt>
<trkpt lat="40.0728425" lon="-105.2305753">
  <ele>1615.2</ele>
  <time>2026-08-28T19:10:14Z</time>
  <course>15.06</course>
  <speed>0.044721359549995794</speed>
  <fix>3d</fix>
</trkpt>
<trkpt lat="40.0728426" lon="-105.2305755">
  <ele>1614.59</ele>
  <time>2026-08-28T19:10:14Z</time>
  <course>106.28</course>
  <speed>0.02</speed>
  <fix>3d</fix>
</trkpt>
<trkpt lat="40.0728425" lon="-105.2305752">
  <ele>1615.5</ele>
  <time>2026-08-28T19:10:14Z</time>
  <course>15.45</course>
  <speed>0.053851648071345036</speed>
  <fix>3d</fix>
</trkpt>
<trkpt lat="40.0728426" lon="-105.2305754">
  <ele>1614.92</ele>
  <time>2026-08-28T19:10:14Z</time>
  <course>104.03</course>
  <speed>0.02</speed>
  <fix>3d</fix>
</trkpt>
<trkpt lat="40.0728425" lon="-105.2305751">
  <ele>1615.74</ele>
  <time>2026-08-28T19:10:14Z</time>
  <course>15.82</course>
  <speed>0.053851648071345036</speed>
  <fix>3d</fix>
</trkpt>
<trkpt lat="40.0728426" lon="-105.2305753">
  <ele>1615.22</ele>
  <time>2026-08-28T19:10:14Z</time>
  <course>102.25</course>
  <speed>0.03</speed>
  <fix>3d</fix>
</trkpt>
<trkpt lat="40.0728425" lon="-105.230575">
  <ele>1615.93</ele>
  <time>2026-08-28T19:10:14Z</time>
  <course>16.15</course>
  <speed>0.0632455532033676</speed>
  <fix>3d</fix>
</trkpt>
<trkpt lat="40.0728426" lon="-105.2305753">
  <ele>1615.47</ele>
  <time>2026-08-28T19:10:14Z</time>
  <course>101.14</course>
  <speed>0.04</speed>
  <fix>3d</fix>
</trkpt>
<trkpt lat="40.0728425" lon="-105.2305749">
  <ele>1616.08</ele>
  <time>2026-08-28T19:10:14Z</time>
  <course>16.46</course>
  <speed>0.07280109889280519</speed>
  <fix>3d</fix>
</trkpt>
<trkpt lat="40.0728426" lon="-105.2305752">
  <ele>1615.67</ele>
  <time>2026-08-28T19:10:14Z</time>
  <course>100.61</course>
  <speed>0.05</speed>
  <fix>3d</fix>
</trkpt>
<trkpt lat="40.0728425" lon="-105.2305748">
  <ele>1616.19</ele>
  <time>2026-08-28T19:10:14Z</time>
  <course>16.74</course>
  <speed>0.07280109889280519</speed>
  <fix>3d</fix>
</trkpt>
<trkpt lat="40.0728426" lon="-105.230575">
  <ele>1615.84</ele>
  <time>2026-08-28T19:10:14Z</time>
  <course>100.57</course>
  <speed>0.05</speed>
  <fix>3d</fix>
</trkpt>
<trkpt lat="40.0728425" lon="-105.2305746">
  <ele>1616.26</ele>
  <time>2026-08-28T19:10:14Z</time>
  <course>17.01</course>
  <speed>0.07280109889280519</speed>
  <fix>3d</fix>
</trkpt>
<trkpt lat="40.0728426" lon="-105.2305749">
  <ele>1615.96</ele>
  <time>2026-08-28T19:10:14Z</time>
  <course>100.96</course>
  <speed>0.06</speed>
  <fix>3d</fix>
</trkpt>
<trkpt lat="40.0728424" lon="-105.2305745">
  <ele>1616.29</ele>
  <time>2026-08-28T19:10:14Z</time>
  <course>17.29</course>
  <speed>0.07280109889280519</speed>
  <fix>3d</fix>
</trkpt>
<trkpt lat="40.0728426" lon="-105.2305748">
  <ele>1616.04</ele>
  <time>2026-08-28T19:10:14Z</time>
  <course>101.68</course>
  <speed>0.06</speed>
  <fix>3d</fix>
</trkpt>
<trkpt lat="40.0728424" lon="-105.2305743">
  <ele>1616.28</ele>
  <time>2026-08-28T19:10:14Z</time>
  <course>17.88</course>
  <speed>0.07280109889280519</speed>
  <fix>3d</fix>
</trkpt>
<trkpt lat="40.0728426" lon="-105.2305746">
  <ele>1616.08</ele>
  <time>2026-08-28T19:10:14Z</time>
  <course>102.7</course>
  <speed>0.06</speed>
  <fix>3d</fix>
</trkpt>
<trkpt lat="40.0728424" lon="-105.2305742">
  <ele>1616.25</ele>
  <time>2026-08-28T19:10:14Z</time>
  <course>17.72</course>
  <speed>0.0632455532033676</speed>
  <fix>3d</fix>
</trkpt>
<trkpt lat="40.0728426" lon="-105.2305744">
  <ele>1616.08</ele>
  <time>2026-08-28T19:10:14Z</time>
  <course>104.39</course>
  <speed>0.06</speed>
  <fix>3d</fix>
</trkpt>
<trkpt lat="40.0728424" lon="-105.2305741">
  <ele>1616.22</ele>
  <time>2026-08-28T19:10:14Z</time>
  <course>17.59</course>
  <speed>0.0632455532033676</speed>
  <fix>3d</fix>
</trkpt>
<trkpt lat="40.0728425" lon="-105.2305743">
  <ele>1616.06</ele>
  <time>2026-08-28T19:10:14Z</time>
  <course>106.25</course>
  <speed>0.05</speed>
  <fix>3d</fix>
</trkpt>
<trkpt lat="40.0728424" lon="-105.2305739">
  <ele>1616.18</ele>
  <time>2026-08-28T19:10:14Z</time>
  <course>17.42</course>
  <speed>0.09</speed>
  <fix>3d</fix>
</trkpt>
<trkpt lat="40.0728425" lon="-105.2305742">
  <ele>1616.03</ele>
  <time>2026-08-28T19:10:14Z</time>
  <course>99.88</course>
  <speed>0.05</speed>
  <fix>3d</fix>
</trkpt>
<trkpt lat="40.0728425" lon="-105.2305736">
  <ele>1616.16</ele>
  <time>2026-08-28T19:10:14Z</time>
  <course>17.22</course>
  <speed>0.18027756377319945</speed>
  <fix>3d</fix>
</trkpt>
<trkpt lat="40.0728425" lon="-105.230574">
  <ele>1616.01</ele>
  <time>2026-08-28T19:10:14Z</time>
  <course>78.69</course>
  <speed>0.07</speed>
  <fix>3d</fix>
</trkpt>
<trkpt lat="40.0728426" lon="-105.2305731">
  <ele>1616.14</ele>
  <time>2026-08-28T19:10:14Z</time>
  <course>16.99</course>
  <speed>0.33541019662496846</speed>
  <fix>3d</fix>
</trkpt>
<trkpt lat="40.0728425" lon="-105.2305738">
  <ele>1615.99</ele>
  <time>2026-08-28T19:10:14Z</time>
  <course>64.42</course>
  <speed>0.16</speed>
  <fix>3d</fix>
</trkpt>
<trkpt lat="40.072843" lon="-105.2305723">
  <ele>1616.13</ele>
  <time>2026-08-28T19:10:14Z</time>
  <course>16.76</course>
  <speed>0.5333854141237835</speed>
  <fix>3d</fix>
</trkpt>
<trkpt lat="40.0728426" lon="-105.2305734">
  <ele>1615.98</ele>
  <time>2026-08-28T19:10:14Z</time>
  <course>58.27</course>
  <speed>0.3</speed>
  <fix>3d</fix>
</trkpt>
<trkpt lat="40.0728436" lon="-105.2305711">
  <ele>1616.13</ele>
  <time>2026-08-28T19:10:14Z</time>
  <course>16.49</course>
  <speed>0.7655063683601856</speed>
  <fix>3d</fix>
</trkpt>
<trkpt lat="40.072843" lon="-105.2305725">
  <ele>1615.98</ele>
  <time>2026-08-28T19:10:14Z</time>
  <course>55.13</course>
  <speed>0.49</speed>
  <fix>3d</fix>
</trkpt>
<trkpt lat="40.0728446" lon="-105.2305694">
  <ele>1616.13</ele>
  <time>2026-08-28T19:10:14Z</time>
  <course>16.19</course>
  <speed>1.0404326023342407</speed>
  <fix>3d</fix>
</trkpt>
<trkpt lat="40.0728436" lon="-105.2305714">
  <ele>1615.98</ele>
  <time>2026-08-28T19:10:14Z</time>
  <course>53.24</course>
  <speed>0.73</speed>
  <fix>3d</fix>
</trkpt>
<trkpt lat="40.0728459" lon="-105.2305673">
  <ele>1616.14</ele>
  <time>2026-08-28T19:10:14Z</time>
  <course>21.7</course>
  <speed>1.3024976007655444</speed>
  <fix>3d</fix>
</trkpt>
<trkpt lat="40.0728446" lon="-105.2305698">
  <ele>1615.98</ele>
  <time>2026-08-28T19:10:14Z</time>
  <course>51.93</course>
  <speed>0.99</speed>
  <fix>3d</fix>
</trkpt>
<trkpt lat="40.0728475" lon="-105.2305647">
  <ele>1616.15</ele>
  <time>2026-08-28T19:10:15Z</time>
  <course>35.31</course>
  <speed>1.6602710622064096</speed>
  <fix>3d</fix>
</trkpt>
<trkpt lat="40.0728459" lon="-105.2305677">
  <ele>1615.99</ele>
  <time>2026-08-28T19:10:15Z</time>
  <course>50.11</course>
  <speed>1.27</speed>
  <fix>3d</fix>
</trkpt>
<trkpt lat="40.0728496" lon="-105.2305613">
  <ele>1616.15</ele>
  <time>2026-08-28T19:10:15Z</time>
  <course>47.4</course>
  <speed>2.0700241544484452</speed>
  <fix>3d</fix>
</trkpt>
<trkpt lat="40.0728476" lon="-105.2305651">
  <ele>1616.01</ele>
  <time>2026-08-28T19:10:15Z</time>
  <course>49.71</course>
  <speed>1.61</speed>
  <fix>3d</fix>
</trkpt>
<trkpt lat="40.0728521" lon="-105.2305571">
  <ele>1616.16</ele>
  <time>2026-08-28T19:10:15Z</time>
  <course>53.65</course>
  <speed>2.5249158401816088</speed>
  <fix>3d</fix>
</trkpt>
<trkpt lat="40.0728497" lon="-105.2305619">
  <ele>1616.02</ele>
  <time>2026-08-28T19:10:15Z</time>
  <course>51.0</course>
  <speed>2.01</speed>
  <fix>3d</fix>
</trkpt>
<trkpt lat="40.072855" lon="-105.230552">
  <ele>1616.16</ele>
  <time>2026-08-28T19:10:15Z</time>
  <course>53.44</course>
  <speed>2.993476240092779</speed>
  <fix>3d</fix>
</trkpt>
<trkpt lat="40.0728522" lon="-105.2305577">
  <ele>1616.02</ele>
  <time>2026-08-28T19:10:15Z</time>
  <course>52.67</course>
  <speed>2.46</speed>
  <fix>3d</fix>
</trkpt>
<trkpt lat="40.0728585" lon="-105.2305459">
  <ele>1616.17</ele>
  <time>2026-08-28T19:10:15Z</time>
  <course>52.8</course>
  <speed>3.4596242570545144</speed>
  <fix>3d</fix>
</trkpt>
<trkpt lat="40.072855" lon="-105.2305527">
  <ele>1616.03</ele>
  <time>2026-08-28T19:10:15Z</time>
  <course>53.8</course>
  <speed>2.93</speed>
  <fix>3d</fix>
</trkpt>
<trkpt lat="40.0728623" lon="-105.230539">
  <ele>1616.18</ele>
  <time>2026-08-28T19:10:15Z</time>
  <course>52.54</course>
  <speed>3.91184099881373</speed>
  <fix>3d</fix>
</trkpt>
<trkpt lat="40.0728584" lon="-105.2305466">
  <ele>1616.04</ele>
  <time>2026-08-28T19:10:15Z</time>
  <course>54.18</course>
  <speed>3.4</speed>
  <fix>3d</fix>
</trkpt>
<trkpt lat="40.0728666" lon="-105.2305311">
  <ele>1616.2</ele>
  <time>2026-08-28T19:10:15Z</time>
  <course>52.57</course>
  <speed>4.324742766916895</speed>
  <fix>3d</fix>
</trkpt>
<trkpt lat="40.0728622" lon="-105.2305397">
  <ele>1616.06</ele>
  <time>2026-08-28T19:10:15Z</time>
  <course>54.45</course>
  <speed>3.85</speed>
  <fix>3d</fix>
</trkpt>
<trkpt lat="40.0728713" lon="-105.2305225">
  <ele>1616.23</ele>
  <time>2026-08-28T19:10:15Z</time>
  <course>52.75</course>
  <speed>4.701680550611664</speed>
  <fix>3d</fix>
</trkpt>
<trkpt lat="40.0728665" lon="-105.2305318">
  <ele>1616.08</ele>
  <time>2026-08-28T19:10:15Z</time>
  <course>54.77</course>
  <speed>4.28</speed>
  <fix>3d</fix>
</trkpt>
<trkpt lat="40.0728763" lon="-105.2305132">
  <ele>1616.26</ele>
  <time>2026-08-28T19:10:15Z</time>
  <course>53.08</course>
  <speed>5.028727473228193</speed>
  <fix>3d</fix>
</trkpt>
<trkpt lat="40.0728711" lon="-105.2305232">
  <ele>1616.1</ele>
  <time>2026-08-28T19:10:15Z</time>
  <course>55.1</course>
  <speed>4.67</speed>
  <fix>3d</fix>
</trkpt>
<trkpt lat="40.0728815" lon="-105.2305032">
  <ele>1616.3</ele>
  <time>2026-08-28T19:10:15Z</time>
  <course>53.55</course>
  <speed>5.3002830113117545</speed>
  <fix>3d</fix>
</trkpt>
<trkpt lat="40.072876" lon="-105.2305139">
  <ele>1616.14</ele>
  <time>2026-08-28T19:10:15Z</time>
  <course>55.42</course>
  <speed>5.01</speed>
  <fix>3d</fix>
</trkpt>
<trkpt lat="40.072887" lon="-105.2304927">
  <ele>1616.35</ele>
  <time>2026-08-28T19:10:15Z</time>
  <course>54.09</course>
  <speed>5.505433679556952</speed>
  <fix>3d</fix>
</trkpt>
<trkpt lat="40.0728812" lon="-105.2305039">
  <ele>1616.17</ele>
  <time>2026-08-28T19:10:15Z</time>
  <course>55.71</course>
  <speed>5.29</speed>
  <fix>3d</fix>
</trkpt>
<trkpt lat="40.0728926" lon="-105.2304818">
  <ele>1616.4</ele>
  <time>2026-08-28T19:10:15Z</time>
  <course>54.67</course>
  <speed>5.6635059812805</speed>
  <fix>3d</fix>
</trkpt>
<trkpt lat="40.0728867" lon="-105.2304934">
  <ele>1616.22</ele>
  <time>2026-08-28T19:10:15Z</time>
  <course>56.01</course>
  <speed>5.51</speed>
  <fix>3d</fix>
</trkpt>
<trkpt lat="40.0728982" lon="-105.2304707">
  <ele>1616.45</ele>
  <time>2026-08-28T19:10:15Z</time>
  <course>55.28</course>
  <speed>5.785715167548434</speed>
  <fix>3d</fix>
</trkpt>
<trkpt lat="40.0728923" lon="-105.2304824">
  <ele>1616.27</ele>
  <time>2026-08-28T19:10:15Z</time>
  <course>56.34</course>
  <speed>5.68</speed>
  <fix>3d</fix>
</trkpt>
<trkpt lat="40.0729039" lon="-105.2304592">
  <ele>1616.49</ele>
  <time>2026-08-28T19:10:15Z</time>
  <course>55.88</course>
  <speed>5.866625946828381</speed>
  <fix>3d</fix>
</trkpt>
<trkpt lat="40.072898" lon="-105.2304712">
  <ele>1616.32</ele>
  <time>2026-08-28T19:10:15Z</time>
  <course>56.68</course>
  <speed>5.81</speed>
  <fix>3d</fix>
</trkpt>
<trkpt lat="40.0729098" lon="-105.2304474">
  <ele>1616.54</ele>
  <time>2026-08-28T19:10:15Z</time>
  <course>56.43</course>
  <speed>5.930944275577035</speed>
  <fix>3d</fix>
</trkpt>
<trkpt lat="40.0729038" lon="-105.2304597">
  <ele>1616.37</ele>
  <time>2026-08-28T19:10:15Z</time>
  <course>57.02</course>
  <speed>5.9</speed>
  <fix>3d</fix>
</trkpt>
<trkpt lat="40.0729155" lon="-105.2304355">
  <ele>1616.58</ele>
  <time>2026-08-28T19:10:15Z</time>
  <course>56.93</course>
  <speed>5.9593623820002755</speed>
  <fix>3d</fix>
</trkpt>
<trkpt lat="40.0729096" lon="-105.230448">
  <ele>1616.41</ele>
  <time>2026-08-28T19:10:15Z</time>
  <course>57.35</course>
  <speed>5.97</speed>
  <fix>3d</fix>
</trkpt>
<trkpt lat="40.0729213" lon="-105.2304237">
  <ele>1616.62</ele>
  <time>2026-08-28T19:10:15Z</time>
  <course>57.33</course>
  <speed>5.965668445363017</speed>
  <fix>3d</fix>
</trkpt>
<trkpt lat="40.0729154" lon="-105.230436">
  <ele>1616.46</ele>
  <time>2026-08-28T19:10:15Z</time>
  <course>57.63</course>
  <speed>6.0</speed>
  <fix>3d</fix>
</trkpt>
<trkpt lat="40.072927" lon="-105.2304118">
  <ele>1616.66</ele>
  <time>2026-08-28T19:10:15Z</time>
  <course>57.69</course>
  <speed>5.946604072914221</speed>
  <fix>3d</fix>
</trkpt>
<trkpt lat="40.0729211" lon="-105.2304241">
  <ele>1616.5</ele>
  <time>2026-08-28T19:10:15Z</time>
  <course>57.86</course>
  <speed>6.01</speed>
  <fix>3d</fix>
</trkpt>
<trkpt lat="40.0729326" lon="-105.2303999">
  <ele>1616.7</ele>
  <time>2026-08-28T19:10:15Z</time>
  <course>57.96</course>
  <speed>5.913797426358126</speed>
  <fix>3d</fix>
</trkpt>
<trkpt lat="40.0729269" lon="-105.2304121">
  <ele>1616.55</ele>
  <time>2026-08-28T19:10:15Z</time>
  <course>58.03</course>
  <speed>6.0</speed>
  <fix>3d</fix>
</trkpt>
<trkpt lat="40.0729382" lon="-105.2303881">
  <ele>1616.73</ele>
  <time>2026-08-28T19:10:15Z</time>
  <course>58.22</course>
  <speed>5.86400034106411</speed>
  <fix>3d</fix>
</trkpt>
<trkpt lat="40.0729326" lon="-105.2304002">
  <ele>1616.59</ele>
  <time>2026-08-28T19:10:15Z</time>
  <course>58.14</course>
  <speed>5.96</speed>
  <fix>3d</fix>
</trkpt>
<trkpt lat="40.0729438" lon="-105.2303764">
  <ele>1616.77</ele>
  <time>2026-08-28T19:10:15Z</time>
  <course>58.33</course>
  <speed>5.810955171054067</speed>
  <fix>3d</fix>
</trkpt>
<trkpt lat="40.0729381" lon="-105.2303884">
  <ele>1616.62</ele>
  <time>2026-08-28T19:10:15Z</time>
  <course>58.19</course>
  <speed>5.92</speed>
  <fix>3d</fix>
</trkpt>
<trkpt lat="40.0729493" lon="-105.2303648">
  <ele>1616.8</ele>
  <time>2026-08-28T19:10:15Z</time>
  <course>58.3</course>
  <speed>5.774919912864593</speed>
  <fix>3d</fix>
</trkpt>
<trkpt lat="40.0729438" lon="-105.2303766">
  <ele>1616.66</ele>
  <time>2026-08-28T19:10:15Z</time>
  <course>58.2</course>
  <speed>5.86</speed>
  <fix>3d</fix>
</trkpt>
<trkpt lat="40.0729548" lon="-105.2303533">
  <ele>1616.82</ele>
  <time>2026-08-28T19:10:15Z</time>
  <course>58.18</course>
  <speed>5.744153549479679</speed>
  <fix>3d</fix>
</trkpt>
<trkpt lat="40.0729493" lon="-105.2303649">
  <ele>1616.69</ele>
  <time>2026-08-28T19:10:15Z</time>
  <course>58.16</course>
  <speed>5.82</speed>
  <fix>3d</fix>
</trkpt>
<trkpt lat="40.0729603" lon="-105.2303418">
  <ele>1616.85</ele>
  <time>2026-08-28T19:10:15Z</time>
  <course>57.97</course>
  <speed>5.710210153750911</speed>
  <fix>3d</fix>
</trkpt>
<trkpt lat="40.0729548" lon="-105.2303534">
  <ele>1616.72</ele>
  <time>2026-08-28T19:10:15Z</time>
  <course>58.06</course>
  <speed>5.79</speed>
  <fix>3d</fix>
</trkpt>
<trkpt lat="40.0729658" lon="-105.2303304">
  <ele>1616.89</ele>
  <time>2026-08-28T19:10:15Z</time>
  <course>57.74</course>
  <speed>5.6456443387801185</speed>
  <fix>3d</fix>
</trkpt>
<trkpt lat="40.0729603" lon="-105.2303419">
  <ele>1616.74</ele>
  <time>2026-08-28T19:10:15Z</time>
  <course>57.87</course>
  <speed>5.75</speed>
  <fix>3d</fix>
</trkpt>
<trkpt lat="40.0729712" lon="-105.2303192">
  <ele>1616.92</ele>
  <time>2026-08-28T19:10:15Z</time>
  <course>57.54</course>
  <speed>5.542165641696394</speed>
  <fix>3d</fix>
</trkpt>
<trkpt lat="40.0729658" lon="-105.2303305">
  <ele>1616.77</ele>
  <time>2026-08-28T19:10:15Z</time>
  <course>57.56</course>
  <speed>5.68</speed>
  <fix>3d</fix>
</trkpt>
<trkpt lat="40.0729766" lon="-105.2303084">
  <ele>1616.96</ele>
  <time>2026-08-28T19:10:15Z</time>
  <course>57.36</course>
  <speed>5.389118666349813</speed>
  <fix>3d</fix>
</trkpt>
<trkpt lat="40.0729712" lon="-105.2303194">
  <ele>1616.81</ele>
  <time>2026-08-28T19:10:15Z</time>
  <course>57.2</course>
  <speed>5.58</speed>
  <fix>3d</fix>
</trkpt>
<trkpt lat="40.0729819" lon="-105.2302979">
  <ele>1617.0</ele>
  <time>2026-08-28T19:10:15Z</time>
  <course>57.2</course>
  <speed>5.2031240615614776</speed>
  <fix>3d</fix>
</trkpt>
<trkpt lat="40.0729767" lon="-105.2303085">
  <ele>1616.85</ele>
  <time>2026-08-28T19:10:15Z</time>
  <course>56.83</course>
  <speed>5.44</speed>
  <fix>3d</fix>
</trkpt>
<trkpt lat="40.072987" lon="-105.2302878">
  <ele>1617.04</ele>
  <time>2026-08-28T19:10:15Z</time>
  <course>57.07</course>
  <speed>4.981214711292819</speed>
  <fix>3d</fix>
</trkpt>
<trkpt lat="40.0729819" lon="-105.230298">
  <ele>1616.89</ele>
  <time>2026-08-28T19:10:15Z</time>
  <course>56.49</course>
  <speed>5.25</speed>
  <fix>3d</fix>
</trkpt>
<trkpt lat="40.072992" lon="-105.2302783">
  <ele>1617.08</ele>
  <time>2026-08-28T19:10:15Z</time>
  <course>57.0</course>
  <speed>4.7039238939421635</speed>
  <fix>3d</fix>
</trkpt>
<trkpt lat="40.0729871" lon="-105.2302879">
  <ele>1616.92</ele>
  <time>2026-08-28T19:10:15Z</time>
  <course>56.19</course>
  <speed>5.03</speed>
  <fix>3d</fix>
</trkpt>
<trkpt lat="40.0729966" lon="-105.2302694">
  <ele>1617.11</ele>
  <time>2026-08-28T19:10:15Z</time>
  <course>56.94</course>
  <speed>4.396282520493878</speed>
  <fix>3d</fix>
</trkpt>
<trkpt lat="40.072992" lon="-105.2302784">
  <ele>1616.96</ele>
  <time>2026-08-28T19:10:15Z</time>
  <course>55.93</course>
  <speed>4.77</speed>
  <fix>3d</fix>
</trkpt>
<trkpt lat="40.073001" lon="-105.2302611">
  <ele>1617.13</ele>
  <time>2026-08-28T19:10:15Z</time>
  <course>56.85</course>
  <speed>4.041410644812031</speed>
  <fix>3d</fix>
</trkpt>
<trkpt lat="40.0729967" lon="-105.2302694">
  <ele>1616.99</ele>
  <time>2026-08-28T19:10:15Z</time>
  <course>55.69</course>
  <speed>4.46</speed>
  <fix>3d</fix>
</trkpt>
<trkpt lat="40.0730049" lon="-105.2302536">
  <ele>1617.15</ele>
  <time>2026-08-28T19:10:15Z</time>
  <course>56.75</course>
  <speed>3.650534207482516</speed>
  <fix>3d</fix>
</trkpt>
<trkpt lat="40.0730011" lon="-105.230261">
  <ele>1617.02</ele>
  <time>2026-08-28T19:10:15Z</time>
  <course>55.47</course>
  <speed>4.11</speed>
  <fix>3d</fix>
</trkpt>
<trkpt lat="40.0730085" lon="-105.2302469">
  <ele>1617.16</ele>
  <time>2026-08-28T19:10:15Z</time>
  <course>56.6</course>
  <speed>3.2015621187164243</speed>
  <fix>3d</fix>
</trkpt>
<trkpt lat="40.073005" lon="-105.2302534">
  <ele>1617.05</ele>
  <time>2026-08-28T19:10:15Z</time>
  <course>55.26</course>
  <speed>3.71</speed>
  <fix>3d</fix>
</trkpt>
<trkpt lat="40.0730116" lon="-105.2302411">
  <ele>1617.16</ele>
  <time>2026-08-28T19:10:15Z</time>
  <course>56.35</course>
  <speed>2.7330020124398002</speed>
  <fix>3d</fix>
</trkpt>
<trkpt lat="40.0730086" lon="-105.2302467">
  <ele>1617.06</ele>
  <time>2026-08-28T19:10:15Z</time>
  <course>55.06</course>
  <speed>3.28</speed>
  <fix>3d</fix>
</trkpt>
<trkpt lat="40.0730143" lon="-105.2302362">
  <ele>1617.17</ele>
  <time>2026-08-28T19:10:15Z</time>
  <course>56.07</course>
  <speed>2.25055548698538</speed>
  <fix>3d</fix>
</trkpt>
<trkpt lat="40.0730117" lon="-105.2302409">
  <ele>1617.07</ele>
  <time>2026-08-28T19:10:15Z</time>
  <course>54.86</course>
  <speed>2.8</speed>
  <fix>3d</fix>
</trkpt>
<trkpt lat="40.0730165" lon="-105.2302322">
  <ele>1617.16</ele>
  <time>2026-08-28T19:10:15Z</time>
  <course>55.79</course>
  <speed>1.7844046626256054</speed>
  <fix>3d</fix>
</trkpt>
<trkpt lat="40.0730144" lon="-105.2302359">
  <ele>1617.08</ele>
  <time>2026-08-28T19:10:15Z</time>
  <course>54.71</course>
  <speed>2.32</speed>
  <fix>3d</fix>
</trkpt>
<trkpt lat="40.0730181" lon="-105.2302291">
  <ele>1617.15</ele>
  <time>2026-08-28T19:10:15Z</time>
  <course>55.59</course>
  <speed>1.3624243098242192</speed>
  <fix>3d</fix>
</trkpt>
<trkpt lat="40.0730166" lon="-105.230232">
  <ele>1617.07</ele>
  <time>2026-08-28T19:10:15Z</time>
  <course>54.68</course>
  <speed>1.85</speed>
  <fix>3d</fix>
</trkpt>
<trkpt lat="40.0730194" lon="-105.2302267">
  <ele>1617.14</ele>
  <time>2026-08-28T19:10:15Z</time>
  <course>55.66</course>
  <speed>1.0043903623591774</speed>
  <fix>3d</fix>
</trkpt>
<trkpt lat="40.0730183" lon="-105.2302288">
  <ele>1617.06</ele>
  <time>2026-08-28T19:10:15Z</time>
  <course>54.86</course>
  <speed>1.42</speed>
  <fix>3d</fix>
</trkpt>
<trkpt lat="40.0730203" lon="-105.230225">
  <ele>1617.13</ele>
  <time>2026-08-28T19:10:15Z</time>
  <course>55.87</course>
  <speed>0.6989277502002621</speed>
  <fix>3d</fix>
</trkpt>
<trkpt lat="40.0730195" lon="-105.2302264">
  <ele>1617.05</ele>
  <time>2026-08-28T19:10:15Z</time>
  <course>55.36</course>
  <speed>1.04</speed>
  <fix>3d</fix>
</trkpt>
<trkpt lat="40.0730209" lon="-105.2302238">
  <ele>1617.13</ele>
  <time>2026-08-28T19:10:15Z</time>
  <course>55.65</course>
  <speed>0.44944410108488464</speed>
  <fix>3d</fix>
</trkpt>
<trkpt lat="40.0730204" lon="-105.2302248">
  <ele>1617.04</ele>
  <time>2026-08-28T19:10:15Z</time>
  <course>56.37</course>
  <speed>0.72</speed>
  <fix>3d</fix>
</trkpt>
<trkpt lat="40.0730212" lon="-105.2302231">
  <ele>1617.12</ele>
  <time>2026-08-28T19:10:15Z</time>
  <course>55.53</course>
  <speed>0.25553864678361277</speed>
  <fix>3d</fix>
</trkpt>
<trkpt lat="40.073021" lon="-105.2302236">
  <ele>1617.03</ele>
  <time>2026-08-28T19:10:15Z</time>
  <course>57.84</course>
  <speed>0.46</speed>
  <fix>3d</fix>
</trkpt>
<trkpt lat="40.0730214" lon="-105.2302227">
  <ele>1617.12</ele>
  <time>2026-08-28T19:10:15Z</time>
  <course>55.46</course>
  <speed>0.10295630140987001</speed>
  <fix>3d</fix>
</trkpt>
<trkpt lat="40.0730214" lon="-105.2302229">
  <ele>1617.03</ele>
  <time>2026-08-28T19:10:15Z</time>
  <course>59.49</course>
  <speed>0.25</speed>
  <fix>3d</fix>
</trkpt>
<trkpt lat="40.0730214" lon="-105.2302226">
  <ele>1617.12</ele>
  <time>2026-08-28T19:10:15Z</time>
  <course>55.4</course>
  <speed>0.0</speed>
  <fix>3d</fix>
</trkpt>
<trkpt lat="40.0730215" lon="-105.2302225">
  <ele>1617.03</ele>
  <time>2026-08-28T19:10:15Z</time>
  <course>62.32</course>
  <speed>0.09</speed>
  <fix>3d</fix>
</trkpt>
<trkpt lat="40.0730214" lon="-105.2302226">
  <ele>1617.13</ele>
  <time>2026-08-28T19:10:15Z</time>
  <course>55.34</course>
  <speed>0.05</speed>
  <fix>3d</fix>
</trkpt>
<trkpt lat="40.0730216" lon="-105.2302225">
  <ele>1617.03</ele>
  <time>2026-08-28T19:10:15Z</time>
  <course>231.84</course>
  <speed>0.02</speed>
  <fix>3d</fix>
</trkpt>
<trkpt lat="40.0730213" lon="-105.2302228">
  <ele>1617.13</ele>
  <time>2026-08-28T19:10:15Z</time>
  <course>55.3</course>
  <speed>0.08062257748298549</speed>
  <fix>3d</fix>
</trkpt>
<trkpt lat="40.0730215" lon="-105.2302225">
  <ele>1617.03</ele>
  <time>2026-08-28T19:10:15Z</time>
  <course>241.63</course>
  <speed>0.09</speed>
  <fix>3d</fix>
</trkpt>
<trkpt lat="40.0730213" lon="-105.2302229">
  <ele>1617.14</ele>
  <time>2026-08-28T19:10:15Z</time>
  <course>55.29</course>
  <speed>0.0632455532033676</speed>
  <fix>3d</fix>
</trkpt>
<trkpt lat="40.0730214" lon="-105.2302228">
  <ele>1617.03</ele>
  <time>2026-08-28T19:10:15Z</time>
  <course>246.03</course>
  <speed>0.12</speed>
  <fix>3d</fix>
</trkpt>
<trkpt lat="40.0730213" lon="-105.2302231">
  <ele>1617.15</ele>
  <time>2026-08-28T19:10:15Z</time>
  <course>55.26</course>
  <speed>0.02</speed>
  <fix>3d</fix>
</trkpt>
<trkpt lat="40.0730214" lon="-105.230223">
  <ele>1617.04</ele>
  <time>2026-08-28T19:10:15Z</time>
  <course>253.35</course>
  <speed>0.11</speed>
  <fix>3d</fix>
</trkpt>
<trkpt lat="40.0730213" lon="-105.2302231">
  <ele>1617.15</ele>
  <time>2026-08-28T19:10:15Z</time>
  <course>55.24</course>
  <speed>0.044721359549995794</speed>
  <fix>3d</fix>
</trkpt>
<trkpt lat="40.0730213" lon="-105.2302233">
  <ele>1617.04</ele>
  <time>2026-08-28T19:10:15Z</time>
  <course>272.55</course>
  <speed>0.07</speed>
  <fix>3d</fix>
</trkpt>
<trkpt lat="40.0730214" lon="-105.2302231">
  <ele>1617.15</ele>
  <time>2026-08-28T19:10:15Z</time>
  <course>55.21</course>
  <speed>0.12041594578792296</speed>
  <fix>3d</fix>
</trkpt>
<trkpt lat="40.0730213" lon="-105.2302234">
  <ele>1617.05</ele>
  <time>2026-08-28T19:10:15Z</time>
  <course>331.13</course>
  <speed>0.05</speed>
  <fix>3d</fix>
</trkpt>
<trkpt lat="40.0730216" lon="-105.2302229">
  <ele>1617.15</ele>
  <time>2026-08-28T19:10:15Z</time>
  <course>55.22</course>
  <speed>0.1769180601295413</speed>
  <fix>3d</fix>
</trkpt>
<trkpt lat="40.0730214" lon="-105.2302234">
  <ele>1617.05</ele>
  <time>2026-08-28T19:10:15Z</time>
  <course>12.98</course>
  <speed>0.1</speed>
  <fix>3d</fix>
</trkpt>
<trkpt lat="40.0730219" lon="-105.2302228">
  <ele>1617.15</ele>
  <time>2026-08-28T19:10:15Z</time>
  <course>55.23</course>
  <speed>0.212602916254693</speed>
  <fix>3d</fix>
</trkpt>
<trkpt lat="40.0730217" lon="-105.2302233">
  <ele>1617.05</ele>
  <time>2026-08-28T19:10:15Z</time>
  <course>24.12</course>
  <speed>0.17</speed>
  <fix>3d</fix>
</trkpt>
<trkpt lat="40.0730223" lon="-105.2302226">
  <ele>1617.15</ele>
  <time>2026-08-28T19:10:15Z</time>
  <course>55.24</course>
  <speed>0.23430749027719963</speed>
  <fix>3d</fix>
</trkpt>
<trkpt lat="40.073022" lon="-105.2302231">
  <ele>1617.05</ele>
  <time>2026-08-28T19:10:15Z</time>
  <course>27.54</course>
  <speed>0.21</speed>
  <fix>3d</fix>
</trkpt>
<trkpt lat="40.0730226" lon="-105.2302223">
  <ele>1617.16</ele>
  <time>2026-08-28T19:10:15Z</time>
  <course>55.25</course>
  <speed>0.24083189157584592</speed>
  <fix>3d</fix>
</trkpt>
<trkpt lat="40.0730224" lon="-105.2302229">
  <ele>1617.05</ele>
  <time>2026-08-28T19:10:15Z</time>
  <course>28.8</course>
  <speed>0.24</speed>
  <fix>3d</fix>
</trkpt>
<trkpt lat="40.073023" lon="-105.230222">
  <ele>1617.16</ele>
  <time>2026-08-28T19:10:15Z</time>
  <course>55.25</course>
  <speed>0.22671568097509268</speed>
  <fix>3d</fix>
</trkpt>
<trkpt lat="40.0730228" lon="-105.2302226">
  <ele>1617.05</ele>
  <time>2026-08-28T19:10:15Z</time>
  <course>29.59</course>
  <speed>0.25</speed>
  <fix>3d</fix>
</trkpt>
<trkpt lat="40.0730233" lon="-105.2302217">
  <ele>1617.16</ele>
  <time>2026-08-28T19:10:15Z</time>
  <course>55.25</course>
  <speed>0.21213203435596426</speed>
  <fix>3d</fix>
</trkpt>
<trkpt lat="40.0730231" lon="-105.2302223">
  <ele>1617.06</ele>
  <time>2026-08-28T19:10:15Z</time>
  <course>30.37</course>
  <speed>0.25</speed>
  <fix>3d</fix>
</trkpt>
<trkpt lat="40.0730237" lon="-105.2302214">
  <ele>1617.16</ele>
  <time>2026-08-28T19:10:15Z</time>
  <course>55.27</course>
  <speed>0.18384776310850234</speed>
  <fix>3d</fix>
</trkpt>
<trkpt lat="40.0730236" lon="-105.230222">
  <ele>1617.06</ele>
  <time>2026-08-28T19:10:15Z</time>
  <course>31.31</course>
  <speed>0.24</speed>
  <fix>3d</fix>
</trkpt>
<trkpt lat="40.0730239" lon="-105.2302212">
  <ele>1617.16</ele>
  <time>2026-08-28T19:10:15Z</time>
  <course>55.27</course>
  <speed>0.15620499351813308</speed>
  <fix>3d</fix>
</trkpt>
<trkpt lat="40.0730239" lon="-105.2302217">
  <ele>1617.06</ele>
  <time>2026-08-28T19:10:15Z</time>
  <course>32.48</course>
  <speed>0.21</speed>
  <fix>3d</fix>
</trkpt>
<trkpt lat="40.0730242" lon="-105.230221">
  <ele>1617.16</ele>
  <time>2026-08-28T19:10:15Z</time>
  <course>55.27</course>
  <speed>0.10816653826391968</speed>
  <fix>3d</fix>
</trkpt>
<trkpt lat="40.0730242" lon="-105.2302215">
  <ele>1617.06</ele>
  <time>2026-08-28T19:10:15Z</time>
  <course>33.91</course>
  <speed>0.18</speed>
  <fix>3d</fix>
</trkpt>
<trkpt lat="40.0730243" lon="-105.2302209">
  <ele>1617.17</ele>
  <time>2026-08-28T19:10:15Z</time>
  <course>55.27</course>
  <speed>0.07280109889280519</speed>
  <fix>3d</fix>
</trkpt>
<trkpt lat="40.0730245" lon="-105.2302212">
  <ele>1617.06</ele>
  <time>2026-08-28T19:10:15Z</time>
  <course>35.74</course>
  <speed>0.15</speed>
  <fix>3d</fix>
</trkpt>
<trkpt lat="40.0730244" lon="-105.2302208">
  <ele>1617.17</ele>
  <time>2026-08-28T19:10:15Z</time>
  <course>55.29</course>
  <speed>0.05</speed>
  <fix>3d</fix>
</trkpt>
<trkpt lat="40.0730247" lon="-105.2302211">
  <ele>1617.05</ele>
  <time>2026-08-28T19:10:15Z</time>
  <course>38.43</course>
  <speed>0.11</speed>
  <fix>3d</fix>
</trkpt>
<trkpt lat="40.0730246" lon="-105.2302207">
  <ele>1617.17</ele>
  <time>2026-08-28T19:10:15Z</time>
  <course>55.27</course>
  <speed>0.044721359549995794</speed>
  <fix>3d</fix>
</trkpt>
<trkpt lat="40.0730248" lon="-105.2302209">
  <ele>1617.05</ele>
  <time>2026-08-28T19:10:15Z</time>
  <course>43.74</course>
  <speed>0.06</speed>
  <fix>3d</fix>
</trkpt>
<trkpt lat="40.0730246" lon="-105.2302207">
  <ele>1617.16</ele>
  <time>2026-08-28T19:10:15Z</time>
  <course>55.27</course>
  <speed>0.07</speed>
  <fix>3d</fix>
</trkpt>
<trkpt lat="40.0730249" lon="-105.2302208">
  <ele>1617.05</ele>
  <time>2026-08-28T19:10:15Z</time>
  <course>62.02</course>
  <speed>0.02</speed>
  <fix>3d</fix>
</trkpt>
<trkpt lat="40.0730245" lon="-105.2302207">
  <ele>1617.16</ele>
  <time>2026-08-28T19:10:15Z</time>
  <course>55.26</course>
  <speed>0.1004987562112089</speed>
  <fix>3d</fix>
</trkpt>
<trkpt lat="40.0730248" lon="-105.2302208">
  <ele>1617.05</ele>
  <time>2026-08-28T19:10:15Z</time>
  <course>168.13</course>
  <speed>0.02</speed>
  <fix>3d</fix>
</trkpt>
<trkpt lat="40.0730244" lon="-105.2302208">
  <ele>1617.15</ele>
  <time>2026-08-28T19:10:15Z</time>
  <course>55.24</course>
  <speed>0.12369316876852982</speed>
  <fix>3d</fix>
</trkpt>
<trkpt lat="40.0730248" lon="-105.2302208">
  <ele>1617.05</ele>
  <time>2026-08-28T19:10:15Z</time>
  <course>197.36</course>
  <speed>0.05</speed>
  <fix>3d</fix>
</trkpt>
<trkpt lat="40.0730242" lon="-105.2302208">
  <ele>1617.15</ele>
  <time>2026-08-28T19:10:15Z</time>
  <course>55.23</course>
  <speed>0.15811388300841897</speed>
  <fix>3d</fix>
</trkpt>
<trkpt lat="40.0730247" lon="-105.2302208">
  <ele>1617.04</ele>
  <time>2026-08-28T19:10:15Z</time>
  <course>203.73</course>
  <speed>0.08</speed>
  <fix>3d</fix>
</trkpt>
<trkpt lat="40.073024" lon="-105.230221">
  <ele>1617.14</ele>
  <time>2026-08-28T19:10:15Z</time>
  <course>55.21</course>
  <speed>0.17464249196572978</speed>
  <fix>3d</fix>
</trkpt>
<trkpt lat="40.0730245" lon="-105.2302208">
  <ele>1617.04</ele>
  <time>2026-08-28T19:10:15Z</time>
  <course>206.48</course>
  <speed>0.11</speed>
  <fix>3d</fix>
</trkpt>
<trkpt lat="40.0730238" lon="-105.2302212">
  <ele>1617.14</ele>
  <time>2026-08-28T19:10:15Z</time>
  <course>55.17</course>
  <speed>0.18788294228055935</speed>
  <fix>3d</fix>
</trkpt>
<trkpt lat="40.0730243" lon="-105.230221">
  <ele>1617.04</ele>
  <time>2026-08-28T19:10:15Z</time>
  <course>208.3</course>
  <speed>0.13</speed>
  <fix>3d</fix>
</trkpt>
<trkpt lat="40.0730236" lon="-105.2302213">
  <ele>1617.14</ele>
  <time>2026-08-28T19:10:15Z</time>
  <course>55.17</course>
  <speed>0.19697715603592209</speed>
  <fix>3d</fix>
</trkpt>
<trkpt lat="40.0730242" lon="-105.2302211">
  <ele>1617.04</ele>
  <time>2026-08-28T19:10:15Z</time>
  <course>209.79</course>
  <speed>0.15</speed>
  <fix>3d</fix>
</trkpt>
<trkpt lat="40.0730233" lon="-105.2302215">
  <ele>1617.14</ele>
  <time>2026-08-28T19:10:15Z</time>
  <course>55.17</course>
  <speed>0.20124611797498107</speed>
  <fix>3d</fix>
</trkpt>
<trkpt lat="40.0730239" lon="-105.2302214">
  <ele>1617.05</ele>
  <time>2026-08-28T19:10:15Z</time>
  <course>211.14</course>
  <speed>0.16</speed>
  <fix>3d</fix>
</trkpt>
<trkpt lat="40.0730231" lon="-105.2302217">
  <ele>1617.14</ele>
  <time>2026-08-28T19:10:15Z</time>
  <course>55.18</course>
  <speed>0.19235384061671343</speed>
  <fix>3d</fix>
</trkpt>
<trkpt lat="40.0730237" lon="-105.2302215">
  <ele>1617.05</ele>
  <time>2026-08-28T19:10:15Z</time>
  <course>212.44</course>
  <speed>0.16</speed>
  <fix>3d</fix>
</trkpt>
<trkpt lat="40.0730229" lon="-105.230222">
  <ele>1617.14</ele>
  <time>2026-08-28T19:10:15Z</time>
  <course>55.15</course>
  <speed>0.19235384061671343</speed>
  <fix>3d</fix>
</trkpt>
<trkpt lat="40.0730234" lon="-105.2302218">
  <ele>1617.05</ele>
  <time>2026-08-28T19:10:15Z</time>
  <course>213.59</course>
  <speed>0.16</speed>
  <fix>3d</fix>
</trkpt>
<trkpt lat="40.0730226" lon="-105.2302222">
  <ele>1617.14</ele>
  <time>2026-08-28T19:10:15Z</time>
  <course>55.15</course>
  <speed>0.1835755975068582</speed>
  <fix>3d</fix>
</trkpt>
<trkpt lat="40.0730231" lon="-105.230222">
  <ele>1617.05</ele>
  <time>2026-08-28T19:10:15Z</time>
  <course>214.72</course>
  <speed>0.16</speed>
  <fix>3d</fix>
</trkpt>
<trkpt lat="40.0730224" lon="-105.2302224">
  <ele>1617.14</ele>
  <time>2026-08-28T19:10:15Z</time>
  <course>55.16</course>
  <speed>0.16124515496597097</speed>
  <fix>3d</fix>
</trkpt>
<trkpt lat="40.073023" lon="-105.2302221">
  <ele>1617.06</ele>
  <time>2026-08-28T19:10:15Z</time>
  <course>215.92</course>
  <speed>0.15</speed>
  <fix>3d</fix>
</trkpt>
<trkpt lat="40.0730223" lon="-105.2302225">
  <ele>1617.15</ele>
  <time>2026-08-28T19:10:15Z</time>
  <course>55.13</course>
  <speed>0.147648230602334</speed>
  <fix>3d</fix>
</trkpt>
<trkpt lat="40.0730227" lon="-105.2302224">
  <ele>1617.06</ele>
  <time>2026-08-28T19:10:15Z</time>
  <course>217.09</course>
  <speed>0.13</speed>
  <fix>3d</fix>
</trkpt>
<trkpt lat="40.0730221" lon="-105.2302227">
  <ele>1617.15</ele>
  <time>2026-08-28T19:10:15Z</time>
  <course>55.13</course>
  <speed>0.12529964086141668</speed>
  <fix>3d</fix>
</trkpt>
<trkpt lat="40.0730226" lon="-105.2302225">
  <ele>1617.06</ele>
  <time>2026-08-28T19:10:15Z</time>
  <course>218.45</course>
  <speed>0.12</speed>
  <fix>3d</fix>
</trkpt>
<trkpt lat="40.073022" lon="-105.2302229">
  <ele>1617.16</ele>
  <time>2026-08-28T19:10:15Z</time>
  <course>55.13</course>
  <speed>0.1118033988749895</speed>
  <fix>3d</fix>
</trkpt>
<trkpt lat="40.0730224" lon="-105.2302228">
  <ele>1617.07</ele>
  <time>2026-08-28T19:10:15Z</time>
  <course>219.99</course>
  <speed>0.1</speed>
  <fix>3d</fix>
</trkpt>
<trkpt lat="40.0730219" lon="-105.230223">
  <ele>1617.15</ele>
  <time>2026-08-28T19:10:15Z</time>
  <course>55.13</course>
  <speed>0.08944271909999159</speed>
  <fix>3d</fix>
</trkpt>
<trkpt lat="40.0730222" lon="-105.2302229">
  <ele>1617.07</ele>
  <time>2026-08-28T19:10:15Z</time>
  <course>221.46</course>
  <speed>0.08</speed>
  <fix>3d</fix>
</trkpt>
<trkpt lat="40.0730218" lon="-105.2302231">
  <ele>1617.15</ele>
  <time>2026-08-28T19:10:15Z</time>
  <course>55.13</course>
  <speed>0.0670820393249937</speed>
  <fix>3d</fix>
</trkpt>
<trkpt lat="40.0730221" lon="-105.230223">
  <ele>1617.07</ele>
  <time>2026-08-28T19:10:15Z</time>
  <course>223.28</course>
  <speed>0.06</speed>
  <fix>3d</fix>
</trkpt>
<trkpt lat="40.0730218" lon="-105.2302231">
  <ele>1617.16</ele>
  <time>2026-08-28T19:10:15Z</time>
  <course>55.13</course>
  <speed>0.053851648071345036</speed>
  <fix>3d</fix>
</trkpt>
<trkpt lat="40.073022" lon="-105.2302231">
  <ele>1617.07</ele>
  <time>2026-08-28T19:10:15Z</time>
  <course>226.14</course>
  <speed>0.04</speed>
  <fix>3d</fix>
</trkpt>
<trkpt lat="40.0730218" lon="-105.2302232">
  <ele>1617.15</ele>
  <time>2026-08-28T19:10:15Z</time>
  <course>55.13</course>
  <speed>0.0316227766016838</speed>
  <fix>3d</fix>
</trkpt>
<trkpt lat="40.073022" lon="-105.2302232">
  <ele>1617.07</ele>
  <time>2026-08-28T19:10:15Z</time>
  <course>231.79</course>
  <speed>0.03</speed>
  <fix>3d</fix>
</trkpt>
<trkpt lat="40.0730218" lon="-105.2302232">
  <ele>1617.16</ele>
  <time>2026-08-28T19:10:15Z</time>
  <course>55.12</course>
  <speed>0.02</speed>
  <fix>3d</fix>
</trkpt>
<trkpt lat="40.073022" lon="-105.2302232">
  <ele>1617.08</ele>
  <time>2026-08-28T19:10:15Z</time>
  <course>249.75</course>
  <speed>0.01</speed>
  <fix>3d</fix>
</trkpt>
<trkpt lat="40.0730218" lon="-105.2302232">
  <ele>1617.16</ele>
  <time>2026-08-28T19:10:15Z</time>
  <course>55.11</course>
  <speed>0.01</speed>
  <fix>3d</fix>
</trkpt>
<trkpt lat="40.073022" lon="-105.2302232">
  <ele>1617.08</ele>
  <time>2026-08-28T19:10:15Z</time>
  <course>334.32</course>
  <speed>0.0</speed>
  <fix>3d</fix>
</trkpt>
<trkpt lat="40.0730218" lon="-105.2302232">
  <ele>1617.16</ele>
  <time>2026-08-28T19:10:15Z</time>
  <course>55.13</course>
  <speed>0.0</speed>
  <fix>3d</fix>
</trkpt>
<trkpt lat="40.073022" lon="-105.2302232">
  <ele>1617.08</ele>
  <time>2026-08-28T19:10:15Z</time>
  <course>13.3</course>
  <speed>0.01</speed>
  <fix>3d</fix>
</trkpt>
<trkpt lat="40.0730218" lon="-105.2302232">
  <ele>1617.16</ele>
  <time>2026-08-28T19:10:15Z</time>
  <course>55.14</course>
  <speed>0.01</speed>
  <fix>3d</fix>
</trkpt>
<trkpt lat="40.073022" lon="-105.2302232">
  <ele>1617.08</ele>
  <time>2026-08-28T19:10:15Z</time>
  <course>22.27</course>
  <speed>0.02</speed>
  <fix>3d</fix>
</trkpt>
<trkpt lat="40.0730219" lon="-105.2302232">
  <ele>1617.16</ele>
  <time>2026-08-28T19:10:15Z</time>
  <course>55.13</course>
  <speed>0.01</speed>
  <fix>3d</fix>
</trkpt>
<trkpt lat="40.073022" lon="-105.2302232">
  <ele>1617.07</ele>
  <time>2026-08-28T19:10:15Z</time>
  <course>26.91</course>
  <speed>0.03</speed>
  <fix>3d</fix>
</trkpt>
<trkpt lat="40.0730219" lon="-105.2302231">
  <ele>1617.16</ele>
  <time>2026-08-28T19:10:15Z</time>
  <course>55.12</course>
  <speed>0.02</speed>
  <fix>3d</fix>
</trkpt>
<trkpt lat="40.0730221" lon="-105.2302232">
  <ele>1617.07</ele>
  <time>2026-08-28T19:10:15Z</time>
  <course>30.2</course>
  <speed>0.04</speed>
  <fix>3d</fix>
</trkpt>
<trkpt lat="40.073022" lon="-105.2302231">
  <ele>1617.15</ele>
  <time>2026-08-28T19:10:15Z</time>
  <course>55.11</course>
  <speed>0.02</speed>
  <fix>3d</fix>
</trkpt>
<trkpt lat="40.0730221" lon="-105.2302232">
  <ele>1617.07</ele>
  <time>2026-08-28T19:10:15Z</time>
  <course>32.49</course>
  <speed>0.04</speed>
  <fix>3d</fix>
</trkpt>
<trkpt lat="40.073022" lon="-105.230223">
  <ele>1617.15</ele>
  <time>2026-08-28T19:10:15Z</time>
  <course>55.1</course>
  <speed>0.02</speed>
  <fix>3d</fix>
</trkpt>
<trkpt lat="40.0730222" lon="-105.2302231">
  <ele>1617.07</ele>
  <time>2026-08-28T19:10:15Z</time>
  <course>34.49</course>
  <speed>0.04</speed>
  <fix>3d</fix>
</trkpt>
<trkpt lat="40.0730221" lon="-105.230223">
  <ele>1617.15</ele>
  <time>2026-08-28T19:10:15Z</time>
  <course>55.09</course>
  <speed>0.02</speed>
  <fix>3d</fix>
</trkpt>
<trkpt lat="40.0730223" lon="-105.230223">
  <ele>1617.07</ele>
  <time>2026-08-28T19:10:15Z</time>
  <course>36.81</course>
  <speed>0.04</speed>
  <fix>3d</fix>
</trkpt>
<trkpt lat="40.0730222" lon="-105.2302229">
  <ele>1617.14</ele>
  <time>2026-08-28T19:10:15Z</time>
  <course>55.09</course>
  <speed>0.02</speed>
  <fix>3d</fix>
</trkpt>
<trkpt lat="40.0730224" lon="-105.230223">
  <ele>1617.07</ele>
  <time>2026-08-28T19:10:15Z</time>
  <course>39.52</course>
  <speed>0.04</speed>
  <fix>3d</fix>
</trkpt>
<trkpt lat="40.0730222" lon="-105.2302229">
  <ele>1617.14</ele>
  <time>2026-08-28T19:10:16Z</time>
  <course>55.09</course>
  <speed>0.02</speed>
  <fix>3d</fix>
</trkpt>
<trkpt lat="40.0730224" lon="-105.2302229">
  <ele>1617.07</ele>
  <time>2026-08-28T19:10:16Z</time>
  <course>42.4</course>
  <speed>0.04</speed>
  <fix>3d</fix>
</trkpt>
<trkpt lat="40.0730223" lon="-105.2302228">
  <ele>1617.14</ele>
  <time>2026-08-28T19:10:16Z</time>
  <course>55.08</course>
  <speed>0.01</speed>
  <fix>3d</fix>
</trkpt>
<trkpt lat="40.0730225" lon="-105.2302229">
  <ele>1617.07</ele>
  <time>2026-08-28T19:10:16Z</time>
  <course>45.29</course>
  <speed>0.04</speed>
  <fix>3d</fix>
</trkpt>
<trkpt lat="40.0730223" lon="-105.2302228">
  <ele>1617.14</ele>
  <time>2026-08-28T19:10:16Z</time>
  <course>55.09</course>
  <speed>0.01414213562373095</speed>
  <fix>3d</fix>
</trkpt>
<trkpt lat="40.0730225" lon="-105.2302228">
  <ele>1617.07</ele>
  <time>2026-08-28T19:10:16Z</time>
  <course>48.46</course>
  <speed>0.03</speed>
  <fix>3d</fix>
</trkpt>
<trkpt lat="40.0730223" lon="-105.2302227">
  <ele>1617.15</ele>
  <time>2026-08-28T19:10:16Z</time>
  <course>55.02</course>
  <speed>0.022360679774997897</speed>
  <fix>3d</fix>
</trkpt>
<trkpt lat="40.0730226" lon="-105.2302227">
  <ele>1617.08</ele>
  <time>2026-08-28T19:10:16Z</time>
  <course>52.91</course>
  <speed>0.02</speed>
  <fix>3d</fix>
</trkpt>
<trkpt lat="40.0730223" lon="-105.2302227">
  <ele>1617.15</ele>
  <time>2026-08-28T19:10:16Z</time>
  <course>55.14</course>
  <speed>0.09</speed>
  <fix>3d</fix>
</trkpt>
<trkpt lat="40.0730226" lon="-105.2302227">
  <ele>1617.08</ele>
  <time>2026-08-28T19:10:16Z</time>
  <course>88.24</course>
  <speed>0.01</speed>
  <fix>3d</fix>
</trkpt>
<trkpt lat="40.0730222" lon="-105.2302227">
  <ele>1617.15</ele>
  <time>2026-08-28T19:10:16Z</time>
  <course>55.3</course>
  <speed>0.2109502310972899</speed>
  <fix>3d</fix>
</trkpt>
<trkpt lat="40.0730226" lon="-105.2302227">
  <ele>1617.08</ele>
  <time>2026-08-28T19:10:16Z</time>
  <course>171.67</course>
  <speed>0.05</speed>
  <fix>3d</fix>
</trkpt>
<trkpt lat="40.0730217" lon="-105.2302227">
  <ele>1617.16</ele>
  <time>2026-08-28T19:10:16Z</time>
  <course>55.34</course>
  <speed>0.382099463490856</speed>
  <fix>3d</fix>
</trkpt>
<trkpt lat="40.0730224" lon="-105.2302227">
  <ele>1617.09</ele>
  <time>2026-08-28T19:10:16Z</time>
  <course>183.1</course>
  <speed>0.17</speed>
  <fix>3d</fix>
</trkpt>
<trkpt lat="40.0730209" lon="-105.2302228">
  <ele>1617.16</ele>
  <time>2026-08-28T19:10:16Z</time>
  <course>55.31</course>
  <speed>0.5721887800367987</speed>
  <fix>3d</fix>
</trkpt>
<trkpt lat="40.0730219" lon="-105.2302227">
  <ele>1617.09</ele>
  <time>2026-08-28T19:10:16Z</time>
  <course>184.18</course>
  <speed>0.33</speed>
  <fix>3d</fix>
</trkpt>
<trkpt lat="40.0730197" lon="-105.2302229">
  <ele>1617.16</ele>
  <time>2026-08-28T19:10:16Z</time>
  <course>55.26</course>
  <speed>0.7616429609731845</speed>
  <fix>3d</fix>
</trkpt>
<trkpt lat="40.0730212" lon="-105.2302227">
  <ele>1617.09</ele>
  <time>2026-08-28T19:10:16Z</time>
  <course>183.34</course>
  <speed>0.51</speed>
  <fix>3d</fix>
</trkpt>
<trkpt lat="40.0730183" lon="-105.230223">
  <ele>1617.16</ele>
  <time>2026-08-28T19:10:16Z</time>
  <course>55.24</course>
  <speed>0.9513148795220223</speed>
  <fix>3d</fix>
</trkpt>
<trkpt lat="40.0730201" lon="-105.2302227">
  <ele>1617.08</ele>
  <time>2026-08-28T19:10:16Z</time>
  <course>182.27</course>
  <speed>0.7</speed>
  <fix>3d</fix>
</trkpt>
<trkpt lat="40.0730165" lon="-105.230223">
  <ele>1617.15</ele>
  <time>2026-08-28T19:10:16Z</time>
  <course>56.18</course>
  <speed>1.1022250223978767</speed>
  <fix>3d</fix>
</trkpt>
<trkpt lat="40.0730187" lon="-105.2302228">
  <ele>1617.08</ele>
  <time>2026-08-28T19:10:16Z</time>
  <course>181.48</course>
  <speed>0.89</speed>
  <fix>3d</fix>
</trkpt>
<trkpt lat="40.0730145" lon="-105.2302232">
  <ele>1617.14</ele>
  <time>2026-08-28T19:10:16Z</time>
  <course>69.36</course>
  <speed>1.2414507642270796</speed>
  <fix>3d</fix>
</trkpt>
<trkpt lat="40.0730169" lon="-105.2302229">
  <ele>1617.08</ele>
  <time>2026-08-28T19:10:16Z</time>
  <course>182.0</course>
  <speed>1.05</speed>
  <fix>3d</fix>
</trkpt>
<trkpt lat="40.0730122" lon="-105.2302232">
  <ele>1617.14</ele>
  <time>2026-08-28T19:10:16Z</time>
  <course>81.52</course>
  <speed>1.4000357138301864</speed>
  <fix>3d</fix>
</trkpt>
<trkpt lat="40.0730148" lon="-105.2302229">
  <ele>1617.08</ele>
  <time>2026-08-28T19:10:16Z</time>
  <course>181.76</course>
  <speed>1.2</speed>
  <fix>3d</fix>
</trkpt>
<trkpt lat="40.0730096" lon="-105.2302231">
  <ele>1617.14</ele>
  <time>2026-08-28T19:10:16Z</time>
  <course>93.49</course>
  <speed>1.5311760186209813</speed>
  <fix>3d</fix>
</trkpt>
<trkpt lat="40.0730126" lon="-105.230223">
  <ele>1617.07</ele>
  <time>2026-08-28T19:10:16Z</time>
  <course>179.61</course>
  <speed>1.36</speed>
  <fix>3d</fix>
</trkpt>
<trkpt lat="40.0730068" lon="-105.2302228">
  <ele>1617.14</ele>
  <time>2026-08-28T19:10:16Z</time>
  <course>105.41</course>
  <speed>1.6776471619503308</speed>
  <fix>3d</fix>
</trkpt>
<trkpt lat="40.07301" lon="-105.2302229">
  <ele>1617.07</ele>
  <time>2026-08-28T19:10:16Z</time>
  <course>176.84</course>
  <speed>1.5</speed>
  <fix>3d</fix>
</trkpt>
<trkpt lat="40.0730038" lon="-105.2302223">
  <ele>1617.14</ele>
  <time>2026-08-28T19:10:16Z</time>
  <course>117.45</course>
  <speed>1.830027322200409</speed>
  <fix>3d</fix>
</trkpt>
<trkpt lat="40.0730071" lon="-105.2302227">
  <ele>1617.07</ele>
  <time>2026-08-28T19:10:16Z</time>
  <course>173.85</course>
  <speed>1.64</speed>
  <fix>3d</fix>
</trkpt>
<trkpt lat="40.0730004" lon="-105.2302215">
  <ele>1617.14</ele>
  <time>2026-08-28T19:10:16Z</time>
  <course>129.56</course>
  <speed>2.0124611797498106</speed>
  <fix>3d</fix>
</trkpt>
<trkpt lat="40.0730041" lon="-105.2302221">
  <ele>1617.07</ele>
  <time>2026-08-28T19:10:16Z</time>
  <course>171.11</course>
  <speed>1.79</speed>
  <fix>3d</fix>
</trkpt>
<trkpt lat="40.0729967" lon="-105.2302205">
  <ele>1617.13</ele>
  <time>2026-08-28T19:10:16Z</time>
  <course>141.72</course>
  <speed>2.2141589825484527</speed>
  <fix>3d</fix>
</trkpt>
<trkpt lat="40.0730008" lon="-105.2302214">
  <ele>1617.07</ele>
  <time>2026-08-28T19:10:16Z</time>
  <course>169.05</course>
  <speed>1.96</speed>
  <fix>3d</fix>
</trkpt>
<trkpt lat="40.0729927" lon="-105.2302194">
  <ele>1617.13</ele>
  <time>2026-08-28T19:10:16Z</time>
  <course>153.84</course>
  <speed>2.4279209212822397</speed>
  <fix>3d</fix>
</trkpt>
<trkpt lat="40.0729971" lon="-105.2302204">
  <ele>1617.07</ele>
  <time>2026-08-28T19:10:16Z</time>
  <course>167.93</course>
  <speed>2.16</speed>
  <fix>3d</fix>
</trkpt>
<trkpt lat="40.0729883" lon="-105.2302182">
  <ele>1617.13</ele>
  <time>2026-08-28T19:10:16Z</time>
  <course>165.97</course>
  <speed>2.6537709019431195</speed>
  <fix>3d</fix>
</trkpt>
<trkpt lat="40.0729932" lon="-105.2302192">
  <ele>1617.07</ele>
  <time>2026-08-28T19:10:16Z</time>
  <course>167.82</course>
  <speed>2.37</speed>
  <fix>3d</fix>
</trkpt>
<trkpt lat="40.0729835" lon="-105.2302171">
  <ele>1617.13</ele>
  <time>2026-08-28T19:10:16Z</time>
  <course>171.44</course>
  <speed>2.8765604460883485</speed>
  <fix>3d</fix>
</trkpt>
<trkpt lat="40.0729888" lon="-105.2302181">
  <ele>1617.07</ele>
  <time>2026-08-28T19:10:16Z</time>
  <course>168.87</course>
  <speed>2.6</speed>
  <fix>3d</fix>
</trkpt>
<trkpt lat="40.0729782" lon="-105.2302162">
  <ele>1617.13</ele>
  <time>2026-08-28T19:10:16Z</time>
  <course>172.54</course>
  <speed>3.068892308309303</speed>
  <fix>3d</fix>
</trkpt>
<trkpt lat="40.072984" lon="-105.230217">
  <ele>1617.07</ele>
  <time>2026-08-28T19:10:16Z</time>
  <course>170.85</course>
  <speed>2.82</speed>
  <fix>3d</fix>
</trkpt>
<trkpt lat="40.0729727" lon="-105.2302154">
  <ele>1617.13</ele>
  <time>2026-08-28T19:10:16Z</time>
  <course>173.79</course>
  <speed>3.2421135081918404</speed>
  <fix>3d</fix>
</trkpt>
<trkpt lat="40.0729788" lon="-105.230216">
  <ele>1617.07</ele>
  <time>2026-08-28T19:10:16Z</time>
  <course>172.77</course>
  <speed>3.02</speed>
  <fix>3d</fix>
</trkpt>
<trkpt lat="40.0729668" lon="-105.2302147">
  <ele>1617.14</ele>
  <time>2026-08-28T19:10:16Z</time>
  <course>175.25</course>
  <speed>3.396498196672567</speed>
  <fix>3d</fix>
</trkpt>
<trkpt lat="40.0729732" lon="-105.2302152">
  <ele>1617.08</ele>
  <time>2026-08-28T19:10:16Z</time>
  <course>174.35</course>
  <speed>3.2</speed>
  <fix>3d</fix>
</trkpt>
<trkpt lat="40.0729607" lon="-105.2302143">
  <ele>1617.14</ele>
  <time>2026-08-28T19:10:16Z</time>
  <course>176.82</course>
  <speed>3.542033314354906</speed>
  <fix>3d</fix>
</trkpt>
<trkpt lat="40.0729673" lon="-105.2302146">
  <ele>1617.08</ele>
  <time>2026-08-28T19:10:16Z</time>
  <course>175.94</course>
  <speed>3.36</speed>
  <fix>3d</fix>
</trkpt>
<trkpt lat="40.0729543" lon="-105.230214">
  <ele>1617.15</ele>
  <time>2026-08-28T19:10:16Z</time>
  <course>178.36</course>
  <speed>3.690121949204389</speed>
  <fix>3d</fix>
</trkpt>
<trkpt lat="40.0729612" lon="-105.2302141">
  <ele>1617.09</ele>
  <time>2026-08-28T19:10:16Z</time>
  <course>177.56</course>
  <speed>3.51</speed>
  <fix>3d</fix>
</trkpt>
<trkpt lat="40.0729476" lon="-105.230214">
  <ele>1617.15</ele>
  <time>2026-08-28T19:10:16Z</time>
  <course>179.84</course>
  <speed>3.8303263568526376</speed>
  <fix>3d</fix>
</trkpt>
<trkpt lat="40.0729548" lon="-105.2302139">
  <ele>1617.09</ele>
  <time>2026-08-28T19:10:16Z</time>
  <course>179.14</course>
  <speed>3.66</speed>
  <fix>3d</fix>
</trkpt>
<trkpt lat="40.0729405" lon="-105.2302141">
  <ele>1617.16</ele>
  <time>2026-08-28T19:10:16Z</time>
  <course>181.16</course>
  <speed>3.9824615503479754</speed>
  <fix>3d</fix>
</trkpt>
<trkpt lat="40.072948" lon="-105.2302138">
  <ele>1617.1</ele>
  <time>2026-08-28T19:10:16Z</time>
  <course>180.6</course>
  <speed>3.81</speed>
  <fix>3d</fix>
</trkpt>
<trkpt lat="40.0729333" lon="-105.2302145">
  <ele>1617.15</ele>
  <time>2026-08-28T19:10:16Z</time>
  <course>182.22</course>
  <speed>4.145322665366352</speed>
  <fix>3d</fix>
</trkpt>
<trkpt lat="40.072941" lon="-105.2302139">
  <ele>1617.1</ele>
  <time>2026-08-28T19:10:16Z</time>
  <course>181.87</course>
  <speed>3.96</speed>
  <fix>3d</fix>
</trkpt>
<trkpt lat="40.0729257" lon="-105.230215">
  <ele>1617.15</ele>
  <time>2026-08-28T19:10:16Z</time>
  <course>183.05</course>
  <speed>4.2991278185231945</speed>
  <fix>3d</fix>
</trkpt>
<trkpt lat="40.0729338" lon="-105.2302143">
  <ele>1617.09</ele>
  <time>2026-08-28T19:10:16Z</time>
  <course>182.92</course>
  <speed>4.12</speed>
  <fix>3d</fix>
</trkpt>
<trkpt lat="40.0729179" lon="-105.2302157">
  <ele>1617.14</ele>
  <time>2026-08-28T19:10:16Z</time>
  <course>183.62</course>
  <speed>4.462219178839157</speed>
  <fix>3d</fix>
</trkpt>
<trkpt lat="40.0729262" lon="-105.2302149">
  <ele>1617.09</ele>
  <time>2026-08-28T19:10:16Z</time>
  <course>183.72</course>
  <speed>4.28</speed>
  <fix>3d</fix>
</trkpt>
<trkpt lat="40.0729098" lon="-105.2302165">
  <ele>1617.14</ele>
  <time>2026-08-28T19:10:16Z</time>
  <course>183.96</course>
  <speed>4.643974590800428</speed>
  <fix>3d</fix>
</trkpt>
<trkpt lat="40.0729183" lon="-105.2302157">
  <ele>1617.08</ele>
  <time>2026-08-28T19:10:16Z</time>
  <course>184.29</course>
  <speed>4.45</speed>
  <fix>3d</fix>
</trkpt>
<trkpt lat="40.0729014" lon="-105.2302174">
  <ele>1617.13</ele>
  <time>2026-08-28T19:10:16Z</time>
  <course>184.04</course>
  <speed>4.824987046614736</speed>
  <fix>3d</fix>
</trkpt>
<trkpt lat="40.0729102" lon="-105.2302165">
  <ele>1617.08</ele>
  <time>2026-08-28T19:10:16Z</time>
  <course>184.62</course>
  <speed>4.62</speed>
  <fix>3d</fix>
</trkpt>
<trkpt lat="40.0728926" lon="-105.2302183">
  <ele>1617.13</ele>
  <time>2026-08-28T19:10:16Z</time>
  <course>183.93</course>
  <speed>5.015186935698409</speed>
  <fix>3d</fix>
</trkpt>
<trkpt lat="40.0729017" lon="-105.2302174">
  <ele>1617.07</ele>
  <time>2026-08-28T19:10:16Z</time>
  <course>184.74</course>
  <speed>4.81</speed>
  <fix>3d</fix>
</trkpt>
<trkpt lat="40.0728835" lon="-105.2302192">
  <ele>1617.13</ele>
  <time>2026-08-28T19:10:16Z</time>
  <course>183.67</course>
  <speed>5.223839584060751</speed>
  <fix>3d</fix>
</trkpt>
<trkpt lat="40.072893" lon="-105.2302183">
  <ele>1617.07</ele>
  <time>2026-08-28T19:10:16Z</time>
  <course>184.65</course>
  <speed>5.0</speed>
  <fix>3d</fix>
</trkpt>
<trkpt lat="40.072874" lon="-105.2302201">
  <ele>1617.12</ele>
  <time>2026-08-28T19:10:16Z</time>
  <course>183.2</course>
  <speed>5.44192061684108</speed>
  <fix>3d</fix>
</trkpt>
<trkpt lat="40.0728839" lon="-105.2302192">
  <ele>1617.06</ele>
  <time>2026-08-28T19:10:16Z</time>
  <course>184.4</course>
  <speed>5.2</speed>
  <fix>3d</fix>
</trkpt>
<trkpt lat="40.0728641" lon="-105.230221">
  <ele>1617.12</ele>
  <time>2026-08-28T19:10:16Z</time>
  <course>182.62</course>
  <speed>5.65905469137735</speed>
  <fix>3d</fix>
</trkpt>
<trkpt lat="40.0728743" lon="-105.2302202">
  <ele>1617.06</ele>
  <time>2026-08-28T19:10:16Z</time>
  <course>184.0</course>
  <speed>5.41</speed>
  <fix>3d</fix>
</trkpt>
<trkpt lat="40.0728537" lon="-105.2302217">
  <ele>1617.12</ele>
  <time>2026-08-28T19:10:16Z</time>
  <course>181.91</course>
  <speed>5.906640331017287</speed>
  <fix>3d</fix>
</trkpt>
<trkpt lat="40.0728644" lon="-105.2302211">
  <ele>1617.05</ele>
  <time>2026-08-28T19:10:16Z</time>
  <course>183.49</course>
  <speed>5.64</speed>
  <fix>3d</fix>
</trkpt>
<trkpt lat="40.0728429" lon="-105.2302223">
  <ele>1617.11</ele>
  <time>2026-08-28T19:10:16Z</time>
  <course>181.19</course>
  <speed>6.154299310238331</speed>
  <fix>3d</fix>
</trkpt>
<trkpt lat="40.0728541" lon="-105.2302218">
  <ele>1617.04</ele>
  <time>2026-08-28T19:10:16Z</time>
  <course>182.92</course>
  <speed>5.87</speed>
  <fix>3d</fix>
</trkpt>
<trkpt lat="40.0728316" lon="-105.2302229">
  <ele>1617.11</ele>
  <time>2026-08-28T19:10:16Z</time>
  <course>180.38</course>
  <speed>6.412526803062892</speed>
  <fix>3d</fix>
</trkpt>
<trkpt lat="40.0728433" lon="-105.2302225">
  <ele>1617.04</ele>
  <time>2026-08-28T19:10:16Z</time>
  <course>182.32</course>
  <speed>6.12</speed>
  <fix>3d</fix>
</trkpt>
<trkpt lat="40.0728198" lon="-105.2302233">
  <ele>1617.1</ele>
  <time>2026-08-28T19:10:16Z</time>
  <course>179.46</course>
  <speed>6.651082618641871</speed>
  <fix>3d</fix>
</trkpt>
<trkpt lat="40.0728321" lon="-105.230223">
  <ele>1617.03</ele>
  <time>2026-08-28T19:10:16Z</time>
  <course>181.71</course>
  <speed>6.38</speed>
  <fix>3d</fix>
</trkpt>
<trkpt lat="40.0728078" lon="-105.2302235">
  <ele>1617.12</ele>
  <time>2026-08-28T19:10:16Z</time>
  <course>179.12</course>
  <speed>6.770118167358675</speed>
  <fix>3d</fix>
</trkpt>
<trkpt lat="40.0728204" lon="-105.2302233">
  <ele>1617.03</ele>
  <time>2026-08-28T19:10:16Z</time>
  <course>181.12</course>
  <speed>6.61</speed>
  <fix>3d</fix>
</trkpt>
<trkpt lat="40.0727956" lon="-105.2302235">
  <ele>1617.16</ele>
  <time>2026-08-28T19:10:16Z</time>
  <course>179.17</course>
  <speed>6.740029673525185</speed>
  <fix>3d</fix>
</trkpt>
<trkpt lat="40.0728084" lon="-105.2302235">
  <ele>1617.04</ele>
  <time>2026-08-28T19:10:16Z</time>
  <course>180.51</course>
  <speed>6.75</speed>
  <fix>3d</fix>
</trkpt>
<trkpt lat="40.0727837" lon="-105.2302234">
  <ele>1617.2</ele>
  <time>2026-08-28T19:10:16Z</time>
  <course>179.48</course>
  <speed>6.5902731354625965</speed>
  <fix>3d</fix>
</trkpt>
<trkpt lat="40.0727962" lon="-105.2302237">
  <ele>1617.07</ele>
  <time>2026-08-28T19:10:16Z</time>
  <course>179.96</course>
  <speed>6.75</speed>
  <fix>3d</fix>
</trkpt>
<trkpt lat="40.072772" lon="-105.2302233">
  <ele>1617.25</ele>
  <time>2026-08-28T19:10:16Z</time>
  <course>179.89</course>
  <speed>6.380384000983013</speed>
  <fix>3d</fix>
</trkpt>
<trkpt lat="40.0727842" lon="-105.2302237">
  <ele>1617.12</ele>
  <time>2026-08-28T19:10:16Z</time>
  <course>179.63</course>
  <speed>6.63</speed>
  <fix>3d</fix>
</trkpt>
<trkpt lat="40.0727608" lon="-105.2302232">
  <ele>1617.28</ele>
  <time>2026-08-28T19:10:16Z</time>
  <course>180.34</course>
  <speed>6.140399009836412</speed>
  <fix>3d</fix>
</trkpt>
<trkpt lat="40.0727725" lon="-105.2302235">
  <ele>1617.16</ele>
  <time>2026-08-28T19:10:16Z</time>
  <course>179.56</course>
  <speed>6.43</speed>
  <fix>3d</fix>
</trkpt>
<trkpt lat="40.07275" lon="-105.2302232">
  <ele>1617.31</ele>
  <time>2026-08-28T19:10:16Z</time>
  <course>180.79</course>
  <speed>5.8502136713115025</speed>
  <fix>3d</fix>
</trkpt>
<trkpt lat="40.0727611" lon="-105.2302234">
  <ele>1617.2</ele>
  <time>2026-08-28T19:10:16Z</time>
  <course>179.71</course>
  <speed>6.19</speed>
  <fix>3d</fix>
</trkpt>
<trkpt lat="40.0727397" lon="-105.2302231">
  <ele>1617.32</ele>
  <time>2026-08-28T19:10:16Z</time>
  <course>181.21</course>
  <speed>5.530036166247016</speed>
  <fix>3d</fix>
</trkpt>
<trkpt lat="40.0727502" lon="-105.2302234">
  <ele>1617.23</ele>
  <time>2026-08-28T19:10:16Z</time>
  <course>179.99</course>
  <speed>5.91</speed>
  <fix>3d</fix>
</trkpt>
<trkpt lat="40.07273" lon="-105.2302232">
  <ele>1617.32</ele>
  <time>2026-08-28T19:10:16Z</time>
  <course>181.57</course>
  <speed>5.18</speed>
  <fix>3d</fix>
</trkpt>
<trkpt lat="40.0727399" lon="-105.2302234">
  <ele>1617.24</ele>
  <time>2026-08-28T19:10:16Z</time>
  <course>180.34</course>
  <speed>5.59</speed>
  <fix>3d</fix>
</trkpt>
<trkpt lat="40.0727209" lon="-105.2302233">
  <ele>1617.31</ele>
  <time>2026-08-28T19:10:16Z</time>
  <course>181.84</course>
  <speed>4.810010394999162</speed>
  <fix>3d</fix>
</trkpt>
<trkpt lat="40.0727301" lon="-105.2302235">
  <ele>1617.23</ele>
  <time>2026-08-28T19:10:16Z</time>
  <course>180.72</course>
  <speed>5.25</speed>
  <fix>3d</fix>
</trkpt>
<trkpt lat="40.0727125" lon="-105.2302234">
  <ele>1617.28</ele>
  <time>2026-08-28T19:10:16Z</time>
  <course>182.06</course>
  <speed>4.410045351240733</speed>
  <fix>3d</fix>
</trkpt>
<trkpt lat="40.072721" lon="-105.2302237">
  <ele>1617.22</ele>
  <time>2026-08-28T19:10:16Z</time>
  <course>181.14</course>
  <speed>4.87</speed>
  <fix>3d</fix>
</trkpt>
<trkpt lat="40.0727049" lon="-105.2302237">
  <ele>1617.26</ele>
  <time>2026-08-28T19:10:16Z</time>
  <course>182.24</course>
  <speed>4.010199496284443</speed>
  <fix>3d</fix>
</trkpt>
<trkpt lat="40.0727126" lon="-105.2302239">
  <ele>1617.2</ele>
  <time>2026-08-28T19:10:16Z</time>
  <course>181.57</course>
  <speed>4.48</speed>
  <fix>3d</fix>
</trkpt>
<trkpt lat="40.072698" lon="-105.230224">
  <ele>1617.23</ele>
  <time>2026-08-28T19:10:16Z</time>
  <course>182.35</course>
  <speed>3.6103462437832747</speed>
  <fix>3d</fix>
</trkpt>
<trkpt lat="40.0727049" lon="-105.2302243">
  <ele>1617.17</ele>
  <time>2026-08-28T19:10:16Z</time>
  <course>182.02</course>
  <speed>4.07</speed>
  <fix>3d</fix>
</trkpt>
<trkpt lat="40.0726917" lon="-105.2302243">
  <ele>1617.2</ele>
  <time>2026-08-28T19:10:16Z</time>
  <course>182.42</course>
  <speed>3.2203881753602315</speed>
  <fix>3d</fix>
</trkpt>
<trkpt lat="40.072698" lon="-105.2302246">
  <ele>1617.15</ele>
  <time>2026-08-28T19:10:16Z</time>
  <course>182.47</course>
  <speed>3.67</speed>
  <fix>3d</fix>
</trkpt>
<trkpt lat="40.0726862" lon="-105.2302247">
  <ele>1617.17</ele>
  <time>2026-08-28T19:10:16Z</time>
  <course>182.41</course>
  <speed>2.8404401067440235</speed>
  <fix>3d</fix>
</trkpt>
<trkpt lat="40.0726918" lon="-105.2302249">
  <ele>1617.12</ele>
  <time>2026-08-28T19:10:16Z</time>
  <course>182.88</course>
  <speed>3.27</speed>
  <fix>3d</fix>
</trkpt>
<trkpt lat="40.0726814" lon="-105.230225">
  <ele>1617.15</ele>
  <time>2026-08-28T19:10:16Z</time>
  <course>182.28</course>
  <speed>2.4903212644154973</speed>
  <fix>3d</fix>
</trkpt>
<trkpt lat="40.0726863" lon="-105.2302254">
  <ele>1617.1</ele>
  <time>2026-08-28T19:10:16Z</time>
  <course>183.22</course>
  <speed>2.89</speed>
  <fix>3d</fix>
</trkpt>
<trkpt lat="40.0726772" lon="-105.2302253">
  <ele>1617.12</ele>
  <time>2026-08-28T19:10:16Z</time>
  <course>181.99</course>
  <speed>2.1502092921387908</speed>
  <fix>3d</fix>
</trkpt>
<trkpt lat="40.0726813" lon="-105.2302258">
  <ele>1617.08</ele>
  <time>2026-08-28T19:10:16Z</time>
  <course>183.42</course>
  <speed>2.52</speed>
  <fix>3d</fix>
</trkpt>
<trkpt lat="40.0726736" lon="-105.2302256">
  <ele>1617.11</ele>
  <time>2026-08-28T19:10:16Z</time>
  <course>181.5</course>
  <speed>1.8400271737123886</speed>
  <fix>3d</fix>
</trkpt>
<trkpt lat="40.0726771" lon="-105.2302261">
  <ele>1617.06</ele>
  <time>2026-08-28T19:10:16Z</time>
  <course>183.44</course>
  <speed>2.18</speed>
  <fix>3d</fix>
</trkpt>
<trkpt lat="40.0726705" lon="-105.2302259">
  <ele>1617.1</ele>
  <time>2026-08-28T19:10:16Z</time>
  <course>180.71</course>
  <speed>1.5500322577288512</speed>
  <fix>3d</fix>
</trkpt>
<trkpt lat="40.0726735" lon="-105.2302263">
  <ele>1617.04</ele>
  <time>2026-08-28T19:10:16Z</time>
  <course>183.19</course>
  <speed>1.85</speed>
  <fix>3d</fix>
</trkpt>
<trkpt lat="40.0726679" lon="-105.230226">
  <ele>1617.1</ele>
  <time>2026-08-28T19:10:16Z</time>
  <course>179.5</course>
  <speed>1.2906200060436068</speed>
  <fix>3d</fix>
</trkpt>
<trkpt lat="40.0726705" lon="-105.2302266">
  <ele>1617.04</ele>
  <time>2026-08-28T19:10:16Z</time>
  <course>182.58</course>
  <speed>1.56</speed>
  <fix>3d</fix>
</trkpt>
<trkpt lat="40.0726658" lon="-105.2302261">
  <ele>1617.1</ele>
  <time>2026-08-28T19:10:16Z</time>
  <course>177.74</course>
  <speed>1.0423531071570709</speed>
  <fix>3d</fix>
</trkpt>
<trkpt lat="40.0726679" lon="-105.2302267">
  <ele>1617.04</ele>
  <time>2026-08-28T19:10:16Z</time>
  <course>181.47</course>
  <speed>1.28</speed>
  <fix>3d</fix>
</trkpt>
<trkpt lat="40.0726642" lon="-105.2302262">
  <ele>1617.11</ele>
  <time>2026-08-28T19:10:16Z</time>
  <course>175.66</course>
  <speed>0.8260750571225353</speed>
  <fix>3d</fix>
</trkpt>
<trkpt lat="40.0726658" lon="-105.2302267">
  <ele>1617.04</ele>
  <time>2026-08-28T19:10:16Z</time>
  <course>179.71</course>
  <speed>1.03</speed>
  <fix>3d</fix>
</trkpt>
<trkpt lat="40.0726629" lon="-105.230226">
  <ele>1617.12</ele>
  <time>2026-08-28T19:10:16Z</time>
  <course>176.01</course>
  <speed>0.6334824385884742</speed>
  <fix>3d</fix>
</trkpt>
<trkpt lat="40.0726642" lon="-105.2302266">
  <ele>1617.04</ele>
  <time>2026-08-28T19:10:16Z</time>
  <course>176.44</course>
  <speed>0.81</speed>
  <fix>3d</fix>
</trkpt>
<trkpt lat="40.072662" lon="-105.2302258">
  <ele>1617.13</ele>
  <time>2026-08-28T19:10:16Z</time>
  <course>176.0</course>
  <speed>0.455411901469428</speed>
  <fix>3d</fix>
</trkpt>
<trkpt lat="40.0726629" lon="-105.2302265">
  <ele>1617.05</ele>
  <time>2026-08-28T19:10:16Z</time>
  <course>171.39</course>
  <speed>0.6</speed>
  <fix>3d</fix>
</trkpt>
<trkpt lat="40.0726614" lon="-105.2302256">
  <ele>1617.14</ele>
  <time>2026-08-28T19:10:16Z</time>
  <course>176.01</course>
  <speed>0.30528675044947495</speed>
  <fix>3d</fix>
</trkpt>
<trkpt lat="40.072662" lon="-105.2302263">
  <ele>1617.05</ele>
  <time>2026-08-28T19:10:16Z</time>
  <course>163.98</course>
  <speed>0.42</speed>
  <fix>3d</fix>
</trkpt>
<trkpt lat="40.0726611" lon="-105.2302253">
  <ele>1617.14</ele>
  <time>2026-08-28T19:10:16Z</time>
  <course>176.01</course>
  <speed>0.1972308292331602</speed>
  <fix>3d</fix>
</trkpt>
<trkpt lat="40.0726614" lon="-105.230226">
  <ele>1617.06</ele>
  <time>2026-08-28T19:10:16Z</time>
  <course>149.5</course>
  <speed>0.27</speed>
  <fix>3d</fix>
</trkpt>
<trkpt lat="40.0726611" lon="-105.2302249">
  <ele>1617.14</ele>
  <time>2026-08-28T19:10:16Z</time>
  <course>176.01</course>
  <speed>0.18439088914585774</speed>
  <fix>3d</fix>
</trkpt>
<trkpt lat="40.0726611" lon="-105.2302256">
  <ele>1617.06</ele>
  <time>2026-08-28T19:10:16Z</time>
  <course>116.35</course>
  <speed>0.17</speed>
  <fix>3d</fix>
</trkpt>
<trkpt lat="40.0726612" lon="-105.2302246">
  <ele>1617.14</ele>
  <time>2026-08-28T19:10:16Z</time>
  <course>175.99</course>
  <speed>0.2690724809414742</speed>
  <fix>3d</fix>
</trkpt>
<trkpt lat="40.0726611" lon="-105.2302253">
  <ele>1617.06</ele>
  <time>2026-08-28T19:10:16Z</time>
  <course>66.41</course>
  <speed>0.18</speed>
  <fix>3d</fix>
</trkpt>
<trkpt lat="40.0726618" lon="-105.2302242">
  <ele>1617.14</ele>
  <time>2026-08-28T19:10:16Z</time>
  <course>176.07</course>
  <speed>0.40249223594996214</speed>
  <fix>3d</fix>
</trkpt>
<trkpt lat="40.0726613" lon="-105.2302249">
  <ele>1617.06</ele>
  <time>2026-08-28T19:10:16Z</time>
  <course>38.4</course>
  <speed>0.28</speed>
  <fix>3d</fix>
</trkpt>
<trkpt lat="40.0726626" lon="-105.2302238">
  <ele>1617.14</ele>
  <time>2026-08-28T19:10:16Z</time>
  <course>176.07</course>
  <speed>0.5692099788303083</speed>
  <fix>3d</fix>
</trkpt>
<trkpt lat="40.0726618" lon="-105.2302244">
  <ele>1617.06</ele>
  <time>2026-08-28T19:10:16Z</time>
  <course>25.26</course>
  <speed>0.42</speed>
  <fix>3d</fix>
</trkpt>
<trkpt lat="40.0726637" lon="-105.2302235">
  <ele>1617.14</ele>
  <time>2026-08-28T19:10:16Z</time>
  <course>175.95</course>
  <speed>0.6356099432828282</speed>
  <fix>3d</fix>
</trkpt>
<trkpt lat="40.0726626" lon="-105.230224">
  <ele>1617.06</ele>
  <time>2026-08-28T19:10:16Z</time>
  <course>18.54</course>
  <speed>0.57</speed>
  <fix>3d</fix>
</trkpt>
<trkpt lat="40.0726649" lon="-105.2302232">
  <ele>1617.15</ele>
  <time>2026-08-28T19:10:16Z</time>
  <course>175.85</course>
  <speed>0.6280127387243033</speed>
  <fix>3d</fix>
</trkpt>
<trkpt lat="40.0726638" lon="-105.2302235">
  <ele>1617.06</ele>
  <time>2026-08-28T19:10:16Z</time>
  <course>14.48</course>
  <speed>0.66</speed>
  <fix>3d</fix>
</trkpt>
<trkpt lat="40.072666" lon="-105.2302229">
  <ele>1617.15</ele>
  <time>2026-08-28T19:10:16Z</time>
  <course>175.85</course>
  <speed>0.5742821606144493</speed>
  <fix>3d</fix>
</trkpt>
<trkpt lat="40.072665" lon="-105.2302232">
  <ele>1617.07</ele>
  <time>2026-08-28T19:10:16Z</time>
  <course>11.7</course>
  <speed>0.67</speed>
  <fix>3d</fix>
</trkpt>
<trkpt lat="40.072667" lon="-105.2302228">
  <ele>1617.16</ele>
  <time>2026-08-28T19:10:16Z</time>
  <course>175.85</course>
  <speed>0.4936598018878993</speed>
  <fix>3d</fix>
</trkpt>
<trkpt lat="40.0726661" lon="-105.230223">
  <ele>1617.07</ele>
  <time>2026-08-28T19:10:16Z</time>
  <course>10.29</course>
  <speed>0.62</speed>
  <fix>3d</fix>
</trkpt>
<trkpt lat="40.0726679" lon="-105.2302226">
  <ele>1617.16</ele>
  <time>2026-08-28T19:10:16Z</time>
  <course>175.86</course>
  <speed>0.40311288741492746</speed>
  <fix>3d</fix>
</trkpt>
<trkpt lat="40.0726672" lon="-105.2302227">
  <ele>1617.07</ele>
  <time>2026-08-28T19:10:16Z</time>
  <course>10.42</course>
  <speed>0.54</speed>
  <fix>3d</fix>
</trkpt>
<trkpt lat="40.0726686" lon="-105.2302224">
  <ele>1617.17</ele>
  <time>2026-08-28T19:10:16Z</time>
  <course>175.85</course>
  <speed>0.31400636936215165</speed>
  <fix>3d</fix>
</trkpt>
<trkpt lat="40.0726681" lon="-105.2302225">
  <ele>1617.08</ele>
  <time>2026-08-28T19:10:16Z</time>
  <course>12.12</course>
  <speed>0.46</speed>
  <fix>3d</fix>
</trkpt>
<trkpt lat="40.0726691" lon="-105.2302222">
  <ele>1617.17</ele>
  <time>2026-08-28T19:10:17Z</time>
  <course>175.84</course>
  <speed>0.21377558326431947</speed>
  <fix>3d</fix>
</trkpt>
<trkpt lat="40.0726688" lon="-105.2302223">
  <ele>1617.08</ele>
  <time>2026-08-28T19:10:17Z</time>
  <course>15.45</course>
  <speed>0.36</speed>
  <fix>3d</fix>
</trkpt>
<trkpt lat="40.0726695" lon="-105.2302221">
  <ele>1617.17</ele>
  <time>2026-08-28T19:10:17Z</time>
  <course>175.79</course>
  <speed>0.1044030650891055</speed>
  <fix>3d</fix>
</trkpt>
<trkpt lat="40.0726693" lon="-105.230222">
  <ele>1617.08</ele>
  <time>2026-08-28T19:10:17Z</time>
  <course>21.42</course>
  <speed>0.26</speed>
  <fix>3d</fix>
</trkpt>
<trkpt lat="40.0726696" lon="-105.2302219">
  <ele>1617.17</ele>
  <time>2026-08-28T19:10:17Z</time>
  <course>175.77</course>
  <speed>0.02</speed>
  <fix>3d</fix>
</trkpt>
<trkpt lat="40.0726697" lon="-105.2302218">
  <ele>1617.07</ele>
  <time>2026-08-28T19:10:17Z</time>
  <course>34.4</course>
  <speed>0.16</speed>
  <fix>3d</fix>
</trkpt>
<trkpt lat="40.0726696" lon="-105.2302217">
  <ele>1617.16</ele>
  <time>2026-08-28T19:10:17Z</time>
  <course>175.74</course>
  <speed>0.09219544457292887</speed>
  <fix>3d</fix>
</trkpt>
<trkpt lat="40.0726698" lon="-105.2302215">
  <ele>1617.07</ele>
  <time>2026-08-28T19:10:17Z</time>
  <course>72.32</course>
  <speed>0.09</speed>
  <fix>3d</fix>
</trkpt>
<trkpt lat="40.0726693" lon="-105.2302216">
  <ele>1617.15</ele>
  <time>2026-08-28T19:10:17Z</time>
  <course>175.72</course>
  <speed>0.18027756377319945</speed>
  <fix>3d</fix>
</trkpt>
<trkpt lat="40.0726698" lon="-105.2302214">
  <ele>1617.06</ele>
  <time>2026-08-28T19:10:17Z</time>
  <course>132.74</course>
  <speed>0.11</speed>
  <fix>3d</fix>
</trkpt>
<trkpt lat="40.0726691" lon="-105.2302213">
  <ele>1617.15</ele>
  <time>2026-08-28T19:10:17Z</time>
  <course>175.7</course>
  <speed>0.26</speed>
  <fix>3d</fix>
</trkpt>
<trkpt lat="40.0726696" lon="-105.2302211">
  <ele>1617.06</ele>
  <time>2026-08-28T19:10:17Z</time>
  <course>156.61</course>
  <speed>0.18</speed>
  <fix>3d</fix>
</trkpt>
<trkpt lat="40.0726686" lon="-105.2302213">
  <ele>1617.15</ele>
  <time>2026-08-28T19:10:17Z</time>
  <course>175.67</course>
  <speed>0.32</speed>
  <fix>3d</fix>
</trkpt>
<trkpt lat="40.0726693" lon="-105.230221">
  <ele>1617.06</ele>
  <time>2026-08-28T19:10:17Z</time>
  <course>165.67</course>
  <speed>0.26</speed>
  <fix>3d</fix>
</trkpt>
<trkpt lat="40.072668" lon="-105.2302212">
  <ele>1617.15</ele>
  <time>2026-08-28T19:10:17Z</time>
  <course>175.68</course>
  <speed>0.37013511046643494</speed>
  <fix>3d</fix>
</trkpt>
<trkpt lat="40.0726688" lon="-105.2302209">
  <ele>1617.06</ele>
  <time>2026-08-28T19:10:17Z</time>
  <course>170.41</course>
  <speed>0.33</speed>
  <fix>3d</fix>
</trkpt>
<trkpt lat="40.0726673" lon="-105.2302211">
  <ele>1617.16</ele>
  <time>2026-08-28T19:10:17Z</time>
  <course>175.72</course>
  <speed>0.4004996878900158</speed>
  <fix>3d</fix>
</trkpt>
<trkpt lat="40.0726681" lon="-105.2302208">
  <ele>1617.06</ele>
  <time>2026-08-28T19:10:17Z</time>
  <course>173.57</course>
  <speed>0.38</speed>
  <fix>3d</fix>
</trkpt>
<trkpt lat="40.0726666" lon="-105.2302211">
  <ele>1617.16</ele>
  <time>2026-08-28T19:10:17Z</time>
  <course>175.75</course>
  <speed>0.4219004621945798</speed>
  <fix>3d</fix>
</trkpt>
<trkpt lat="40.0726674" lon="-105.2302207">
  <ele>1617.06</ele>
  <time>2026-08-28T19:10:17Z</time>
  <course>176.08</course>
  <speed>0.41</speed>
  <fix>3d</fix>
</trkpt>
<trkpt lat="40.0726658" lon="-105.230221">
  <ele>1617.16</ele>
  <time>2026-08-28T19:10:17Z</time>
  <course>175.77</course>
  <speed>0.422965719651132</speed>
  <fix>3d</fix>
</trkpt>
<trkpt lat="40.0726666" lon="-105.2302206">
  <ele>1617.06</ele>
  <time>2026-08-28T19:10:17Z</time>
  <course>178.28</course>
  <speed>0.44</speed>
  <fix>3d</fix>
</trkpt>
<trkpt lat="40.072665" lon="-105.230221">
  <ele>1617.16</ele>
  <time>2026-08-28T19:10:17Z</time>
  <course>175.8</course>
  <speed>0.4143669871020132</speed>
  <fix>3d</fix>
</trkpt>
<trkpt lat="40.0726657" lon="-105.2302206">
  <ele>1617.06</ele>
  <time>2026-08-28T19:10:17Z</time>
  <course>180.37</course>
  <speed>0.44</speed>
  <fix>3d</fix>
</trkpt>
<trkpt lat="40.0726643" lon="-105.230221">
  <ele>1617.16</ele>
  <time>2026-08-28T19:10:17Z</time>
  <course>175.79</course>
  <speed>0.396232255123179</speed>
  <fix>3d</fix>
</trkpt>
<trkpt lat="40.072665" lon="-105.2302206">
  <ele>1617.06</ele>
  <time>2026-08-28T19:10:17Z</time>
  <course>182.49</course>
  <speed>0.44</speed>
  <fix>3d</fix>
</trkpt>
<trkpt lat="40.0726636" lon="-105.2302211">
  <ele>1617.16</ele>
  <time>2026-08-28T19:10:17Z</time>
  <course>175.79</course>
  <speed>0.3687817782917155</speed>
  <fix>3d</fix>
</trkpt>
<trkpt lat="40.0726642" lon="-105.2302206">
  <ele>1617.05</ele>
  <time>2026-08-28T19:10:17Z</time>
  <course>184.72</course>
  <speed>0.42</speed>
  <fix>3d</fix>
</trkpt>
<trkpt lat="40.0726629" lon="-105.2302212">
  <ele>1617.15</ele>
  <time>2026-08-28T19:10:17Z</time>
  <course>175.82</course>
  <speed>0.32280024783137945</speed>
  <fix>3d</fix>
</trkpt>
<trkpt lat="40.0726635" lon="-105.2302207">
  <ele>1617.05</ele>
  <time>2026-08-28T19:10:17Z</time>
  <course>187.25</course>
  <speed>0.39</speed>
  <fix>3d</fix>
</trkpt>
<trkpt lat="40.0726623" lon="-105.2302213">
  <ele>1617.15</ele>
  <time>2026-08-28T19:10:17Z</time>
  <course>175.82</course>
  <speed>0.2879236009777594</speed>
  <fix>3d</fix>
</trkpt>
<trkpt lat="40.0726628" lon="-105.2302209">
  <ele>1617.05</ele>
  <time>2026-08-28T19:10:17Z</time>
  <course>190.29</course>
  <speed>0.35</speed>
  <fix>3d</fix>
</trkpt>
<trkpt lat="40.0726619" lon="-105.2302215">
  <ele>1617.15</ele>
  <time>2026-08-28T19:10:17Z</time>
  <course>175.81</course>
  <speed>0.23259406699226015</speed>
  <fix>3d</fix>
</trkpt>
<trkpt lat="40.0726622" lon="-105.230221">
  <ele>1617.05</ele>
  <time>2026-08-28T19:10:17Z</time>
  <course>194.11</course>
  <speed>0.31</speed>
  <fix>3d</fix>
</trkpt>
<trkpt lat="40.0726615" lon="-105.2302217">
  <ele>1617.15</ele>
  <time>2026-08-28T19:10:17Z</time>
  <course>175.81</course>
  <speed>0.194164878389476</speed>
  <fix>3d</fix>
</trkpt>
<trkpt lat="40.0726617" lon="-105.2302211">
  <ele>1617.05</ele>
  <time>2026-08-28T19:10:17Z</time>
  <course>199.04</course>
  <speed>0.26</speed>
  <fix>3d</fix>
</trkpt>
<trkpt lat="40.0726612" lon="-105.2302219">
  <ele>1617.15</ele>
  <time>2026-08-28T19:10:17Z</time>
  <course>175.81</course>
  <speed>0.15556349186104046</speed>
  <fix>3d</fix>
</trkpt>
<trkpt lat="40.0726613" lon="-105.2302214">
  <ele>1617.05</ele>
  <time>2026-08-28T19:10:17Z</time>
  <course>205.75</course>
  <speed>0.21</speed>
  <fix>3d</fix>
</trkpt>
<trkpt lat="40.072661" lon="-105.2302221">
  <ele>1617.14</ele>
  <time>2026-08-28T19:10:17Z</time>
  <course>175.8</course>
  <speed>0.12083045973594572</speed>
  <fix>3d</fix>
</trkpt>
<trkpt lat="40.072661" lon="-105.2302216">
  <ele>1617.05</ele>
  <time>2026-08-28T19:10:17Z</time>
  <course>215.42</course>
  <speed>0.17</speed>
  <fix>3d</fix>
</trkpt>
<trkpt lat="40.0726609" lon="-105.2302223">
  <ele>1617.14</ele>
  <time>2026-08-28T19:10:17Z</time>
  <course>175.79</course>
  <speed>0.1</speed>
  <fix>3d</fix>
</trkpt>
<trkpt lat="40.0726608" lon="-105.2302219">
  <ele>1617.05</ele>
  <time>2026-08-28T19:10:17Z</time>
  <course>229.81</course>
  <speed>0.13</speed>
  <fix>3d</fix>
</trkpt>
<trkpt lat="40.0726609" lon="-105.2302225">
  <ele>1617.14</ele>
  <time>2026-08-28T19:10:17Z</time>
  <course>175.77</course>
  <speed>0.1044030650891055</speed>
  <fix>3d</fix>
</trkpt>
<trkpt lat="40.0726607" lon="-105.2302221">
  <ele>1617.05</ele>
  <time>2026-08-28T19:10:17Z</time>
  <course>250.52</course>
  <speed>0.11</speed>
  <fix>3d</fix>
</trkpt>
<trkpt lat="40.0726609" lon="-105.2302227">
  <ele>1617.15</ele>
  <time>2026-08-28T19:10:17Z</time>
  <course>175.78</course>
  <speed>0.11401754250991379</speed>
  <fix>3d</fix>
</trkpt>
<trkpt lat="40.0726607" lon="-105.2302224">
  <ele>1617.05</ele>
  <time>2026-08-28T19:10:17Z</time>
  <course>275.33</course>
  <speed>0.1</speed>
  <fix>3d</fix>
</trkpt>
<trkpt lat="40.0726609" lon="-105.2302229">
  <ele>1617.15</ele>
  <time>2026-08-28T19:10:17Z</time>
  <course>175.77</course>
  <speed>0.12806248474865697</speed>
  <fix>3d</fix>
</trkpt>
<trkpt lat="40.0726607" lon="-105.2302226">
  <ele>1617.05</ele>
  <time>2026-08-28T19:10:17Z</time>
  <course>297.18</course>
  <speed>0.11</speed>
  <fix>3d</fix>
</trkpt>
<trkpt lat="40.0726611" lon="-105.2302231">
  <ele>1617.16</ele>
  <time>2026-08-28T19:10:17Z</time>
  <course>175.78</course>
  <speed>0.13892443989449804</speed>
  <fix>3d</fix>
</trkpt>
<trkpt lat="40.0726607" lon="-105.2302229">
  <ele>1617.05</ele>
  <time>2026-08-28T19:10:17Z</time>
  <course>312.56</course>
  <speed>0.12</speed>
  <fix>3d</fix>
</trkpt>
<trkpt lat="40.0726613" lon="-105.2302232">
  <ele>1617.16</ele>
  <time>2026-08-28T19:10:17Z</time>
  <course>175.76</course>
  <speed>0.15231546211727817</speed>
  <fix>3d</fix>
</trkpt>
<trkpt lat="40.0726609" lon="-105.230223">
  <ele>1617.06</ele>
  <time>2026-08-28T19:10:17Z</time>
  <course>323.09</course>
  <speed>0.13</speed>
  <fix>3d</fix>
</trkpt>
<trkpt lat="40.0726615" lon="-105.2302234">
  <ele>1617.16</ele>
  <time>2026-08-28T19:10:17Z</time>
  <course>175.75</course>
  <speed>0.15811388300841897</speed>
  <fix>3d</fix>
</trkpt>
<trkpt lat="40.0726612" lon="-105.2302233">
  <ele>1617.06</ele>
  <time>2026-08-28T19:10:17Z</time>
  <course>330.86</course>
  <speed>0.15</speed>
  <fix>3d</fix>
</trkpt>
<trkpt lat="40.0726618" lon="-105.2302235">
  <ele>1617.16</ele>
  <time>2026-08-28T19:10:17Z</time>
  <course>175.77</course>
  <speed>0.15524174696260024</speed>
  <fix>3d</fix>
</trkpt>
<trkpt lat="40.0726614" lon="-105.2302234">
  <ele>1617.06</ele>
  <time>2026-08-28T19:10:17Z</time>
  <course>337.12</course>
  <speed>0.15</speed>
  <fix>3d</fix>
</trkpt>
<trkpt lat="40.072662" lon="-105.2302236">
  <ele>1617.16</ele>
  <time>2026-08-28T19:10:17Z</time>
  <course>175.75</course>
  <speed>0.15132745950421556</speed>
  <fix>3d</fix>
</trkpt>
<trkpt lat="40.0726617" lon="-105.2302235">
  <ele>1617.06</ele>
  <time>2026-08-28T19:10:17Z</time>
  <course>342.31</course>
  <speed>0.16</speed>
  <fix>3d</fix>
</trkpt>
<trkpt lat="40.0726623" lon="-105.2302236">
  <ele>1617.16</ele>
  <time>2026-08-28T19:10:17Z</time>
  <course>175.73</course>
  <speed>0.15033296378372907</speed>
  <fix>3d</fix>
</trkpt>
<trkpt lat="40.0726619" lon="-105.2302236">
  <ele>1617.05</ele>
  <time>2026-08-28T19:10:17Z</time>
  <course>346.72</course>
  <speed>0.15</speed>
  <fix>3d</fix>
</trkpt>
<trkpt lat="40.0726625" lon="-105.2302237">
  <ele>1617.16</ele>
  <time>2026-08-28T19:10:17Z</time>
  <course>175.73</course>
  <speed>0.14</speed>
  <fix>3d</fix>
</trkpt>
<trkpt lat="40.0726622" lon="-105.2302237">
  <ele>1617.05</ele>
  <time>2026-08-28T19:10:17Z</time>
  <course>350.83</course>
  <speed>0.15</speed>
  <fix>3d</fix>
</trkpt>
<trkpt lat="40.0726628" lon="-105.2302237">
  <ele>1617.15</ele>
  <time>2026-08-28T19:10:17Z</time>
  <course>175.72</course>
  <speed>0.12</speed>
  <fix>3d</fix>
</trkpt>
<trkpt lat="40.0726625" lon="-105.2302237">
  <ele>1617.05</ele>
  <time>2026-08-28T19:10:17Z</time>
  <course>355.0</course>
  <speed>0.14</speed>
  <fix>3d</fix>
</trkpt>
<trkpt lat="40.072663" lon="-105.2302237">
  <ele>1617.14</ele>
  <time>2026-08-28T19:10:17Z</time>
  <course>175.7</course>
  <speed>0.1004987562112089</speed>
  <fix>3d</fix>
</trkpt>
<trkpt lat="40.0726627" lon="-105.2302237">
  <ele>1617.05</ele>
  <time>2026-08-28T19:10:17Z</time>
  <course>359.52</course>
  <speed>0.12</speed>
  <fix>3d</fix>
</trkpt>
<trkpt lat="40.0726631" lon="-105.2302237">
  <ele>1617.14</ele>
  <time>2026-08-28T19:10:17Z</time>
  <course>175.68</course>
  <speed>0.0824621125123532</speed>
  <fix>3d</fix>
</trkpt>
<trkpt lat="40.072663" lon="-105.2302237">
  <ele>1617.05</ele>
  <time>2026-08-28T19:10:17Z</time>
  <course>4.76</course>
  <speed>0.11</speed>
  <fix>3d</fix>
</trkpt>
<trkpt lat="40.0726633" lon="-105.2302237">
  <ele>1617.14</ele>
  <time>2026-08-28T19:10:17Z</time>
  <course>175.67</course>
  <speed>0.0670820393249937</speed>
  <fix>3d</fix>
</trkpt>
<trkpt lat="40.0726631" lon="-105.2302237">
  <ele>1617.05</ele>
  <time>2026-08-28T19:10:17Z</time>
  <course>11.28</course>
  <speed>0.09</speed>
  <fix>3d</fix>
</trkpt>
<trkpt lat="40.0726634" lon="-105.2302236">
  <ele>1617.14</ele>
  <time>2026-08-28T19:10:17Z</time>
  <course>175.68</course>
  <speed>0.05</speed>
  <fix>3d</fix>
</trkpt>
<trkpt lat="40.0726633" lon="-105.2302237">
  <ele>1617.05</ele>
  <time>2026-08-28T19:10:17Z</time>
  <course>20.15</course>
  <speed>0.07</speed>
  <fix>3d</fix>
</trkpt>
<trkpt lat="40.0726634" lon="-105.2302235">
  <ele>1617.15</ele>
  <time>2026-08-28T19:10:17Z</time>
  <course>175.69</course>
  <speed>0.044721359549995794</speed>
  <fix>3d</fix>
</trkpt>
<trkpt lat="40.0726634" lon="-105.2302237">
  <ele>1617.05</ele>
  <time>2026-08-28T19:10:17Z</time>
  <course>32.77</course>
  <speed>0.06</speed>
  <fix>3d</fix>
</trkpt>
<trkpt lat="40.0726635" lon="-105.2302234">
  <ele>1617.15</ele>
  <time>2026-08-28T19:10:17Z</time>
  <course>175.67</course>
  <speed>0.04</speed>
  <fix>3d</fix>
</trkpt>
<trkpt lat="40.0726635" lon="-105.2302236">
  <ele>1617.06</ele>
  <time>2026-08-28T19:10:17Z</time>
  <course>50.65</course>
  <speed>0.04</speed>
  <fix>3d</fix>
</trkpt>
<trkpt lat="40.0726635" lon="-105.2302233">
  <ele>1617.15</ele>
  <time>2026-08-28T19:10:17Z</time>
  <course>175.7</course>
  <speed>0.04</speed>
  <fix>3d</fix>
</trkpt>
<trkpt lat="40.0726635" lon="-105.2302235">
  <ele>1617.06</ele>
  <time>2026-08-28T19:10:17Z</time>
  <course>73.45</course>
  <speed>0.04</speed>
  <fix>3d</fix>
</trkpt>
<trkpt lat="40.0726635" lon="-105.2302233">
  <ele>1617.15</ele>
  <time>2026-08-28T19:10:17Z</time>
  <course>175.74</course>
  <speed>0.0316227766016838</speed>
  <fix>3d</fix>
</trkpt>
<trkpt lat="40.0726635" lon="-105.2302234">
  <ele>1617.06</ele>
  <time>2026-08-28T19:10:17Z</time>
  <course>94.09</course>
  <speed>0.04</speed>
  <fix>3d</fix>
</trkpt>
<trkpt lat="40.0726635" lon="-105.2302232">
  <ele>1617.14</ele>
  <time>2026-08-28T19:10:17Z</time>
  <course>175.72</course>
  <speed>0.022360679774997897</speed>
  <fix>3d</fix>
</trkpt>
<trkpt lat="40.0726635" lon="-105.2302233">
  <ele>1617.06</ele>
  <time>2026-08-28T19:10:17Z</time>
  <course>108.49</course>
  <speed>0.03</speed>
  <fix>3d</fix>
</trkpt>
<trkpt lat="40.0726635" lon="-105.2302232">
  <ele>1617.14</ele>
  <time>2026-08-28T19:10:17Z</time>
  <course>175.72</course>
  <speed>0.01414213562373095</speed>
  <fix>3d</fix>
</trkpt>
<trkpt lat="40.0726635" lon="-105.2302232">
  <ele>1617.06</ele>
  <time>2026-08-28T19:10:17Z</time>
  <course>120.33</course>
  <speed>0.03</speed>
  <fix>3d</fix>
</trkpt>
<trkpt lat="40.0726635" lon="-105.2302231">
  <ele>1617.14</ele>
  <time>2026-08-28T19:10:17Z</time>
  <course>175.75</course>
  <speed>0.01414213562373095</speed>
  <fix>3d</fix>
</trkpt>
<trkpt lat="40.0726635" lon="-105.2302232">
  <ele>1617.06</ele>
  <time>2026-08-28T19:10:17Z</time>
  <course>134.25</course>
  <speed>0.02</speed>
  <fix>3d</fix>
</trkpt>
<trkpt lat="40.0726634" lon="-105.2302231">
  <ele>1617.14</ele>
  <time>2026-08-28T19:10:17Z</time>
  <course>175.83</course>
  <speed>0.01</speed>
  <fix>3d</fix>
</trkpt>
<trkpt lat="40.0726635" lon="-105.2302232">
  <ele>1617.06</ele>
  <time>2026-08-28T19:10:17Z</time>
  <course>150.4</course>
  <speed>0.02</speed>
  <fix>3d</fix>
</trkpt>
<trkpt lat="40.0726635" lon="-105.2302232">
  <ele>1617.14</ele>
  <time>2026-08-28T19:10:17Z</time>
  <course>175.85</course>
  <speed>0.022360679774997897</speed>
  <fix>3d</fix>
</trkpt>
<trkpt lat="40.0726635" lon="-105.2302232">
  <ele>1617.06</ele>
  <time>2026-08-28T19:10:17Z</time>
  <course>187.69</course>
  <speed>0.01</speed>
  <fix>3d</fix>
</trkpt>
<trkpt lat="40.0726635" lon="-105.2302232">
  <ele>1617.14</ele>
  <time>2026-08-28T19:10:17Z</time>
  <course>175.88</course>
  <speed>0.08602325267042626</speed>
  <fix>3d</fix>
</trkpt>
<trkpt lat="40.0726635" lon="-105.2302232">
  <ele>1617.06</ele>
  <time>2026-08-28T19:10:17Z</time>
  <course>281.48</course>
  <speed>0.02</speed>
  <fix>3d</fix>
</trkpt>
<trkpt lat="40.0726636" lon="-105.2302234">
  <ele>1617.14</ele>
  <time>2026-08-28T19:10:17Z</time>
  <course>175.9</course>
  <speed>0.16401219466856726</speed>
  <fix>3d</fix>
</trkpt>
<trkpt lat="40.0726635" lon="-105.2302232">
  <ele>1617.06</ele>
  <time>2026-08-28T19:10:17Z</time>
  <course>300.36</course>
  <speed>0.08</speed>
  <fix>3d</fix>
</trkpt>
<trkpt lat="40.0726638" lon="-105.2302238">
  <ele>1617.14</ele>
  <time>2026-08-28T19:10:17Z</time>
  <course>175.91</course>
  <speed>0.25</speed>
  <fix>3d</fix>
</trkpt>
<trkpt lat="40.0726635" lon="-105.2302234">
  <ele>1617.06</ele>
  <time>2026-08-28T19:10:17Z</time>
  <course>304.31</course>
  <speed>0.15</speed>
  <fix>3d</fix>
</trkpt>
<trkpt lat="40.0726641" lon="-105.2302244">
  <ele>1617.14</ele>
  <time>2026-08-28T19:10:17Z</time>
  <course>175.87</course>
  <speed>0.35</speed>
  <fix>3d</fix>
</trkpt>
<trkpt lat="40.0726637" lon="-105.2302238">
  <ele>1617.06</ele>
  <time>2026-08-28T19:10:17Z</time>
  <course>304.99</course>
  <speed>0.24</speed>
  <fix>3d</fix>
</trkpt>
<trkpt lat="40.0726645" lon="-105.2302252">
  <ele>1617.13</ele>
  <time>2026-08-28T19:10:17Z</time>
  <course>175.88</course>
  <speed>0.45803929962395146</speed>
  <fix>3d</fix>
</trkpt>
<trkpt lat="40.072664" lon="-105.2302244">
  <ele>1617.06</ele>
  <time>2026-08-28T19:10:17Z</time>
  <course>304.89</course>
  <speed>0.34</speed>
  <fix>3d</fix>
</trkpt>
<trkpt lat="40.0726651" lon="-105.2302262">
  <ele>1617.13</ele>
  <time>2026-08-28T19:10:17Z</time>
  <course>175.88</course>
  <speed>0.5720139858430037</speed>
  <fix>3d</fix>
</trkpt>
<trkpt lat="40.0726644" lon="-105.2302252">
  <ele>1617.06</ele>
  <time>2026-08-28T19:10:17Z</time>
  <course>304.8</course>
  <speed>0.45</speed>
  <fix>3d</fix>
</trkpt>
<trkpt lat="40.0726657" lon="-105.2302274">
  <ele>1617.13</ele>
  <time>2026-08-28T19:10:17Z</time>
  <course>175.9</course>
  <speed>0.7</speed>
  <fix>3d</fix>
</trkpt>
<trkpt lat="40.072665" lon="-105.2302261">
  <ele>1617.06</ele>
  <time>2026-08-28T19:10:17Z</time>
  <course>304.86</course>
  <speed>0.57</speed>
  <fix>3d</fix>
</trkpt>
<trkpt lat="40.0726665" lon="-105.2302289">
  <ele>1617.13</ele>
  <time>2026-08-28T19:10:17Z</time>
  <course>175.87</course>
  <speed>0.8440379138403676</speed>
  <fix>3d</fix>
</trkpt>
<trkpt lat="40.0726656" lon="-105.2302273">
  <ele>1617.06</ele>
  <time>2026-08-28T19:10:17Z</time>
  <course>305.02</course>
  <speed>0.69</speed>
  <fix>3d</fix>
</trkpt>
<trkpt lat="40.0726675" lon="-105.2302306">
  <ele>1617.13</ele>
  <time>2026-08-28T19:10:17Z</time>
  <course>175.9</course>
  <speed>0.9940321926376429</speed>
  <fix>3d</fix>
</trkpt>
<trkpt lat="40.0726664" lon="-105.2302288">
  <ele>1617.06</ele>
  <time>2026-08-28T19:10:17Z</time>
  <course>305.21</course>
  <speed>0.83</speed>
  <fix>3d</fix>
</trkpt>
<trkpt lat="40.0726686" lon="-105.2302326">
  <ele>1617.12</ele>
  <time>2026-08-28T19:10:17Z</time>
  <course>179.54</course>
  <speed>1.1244554237496478</speed>
  <fix>3d</fix>
</trkpt>
<trkpt lat="40.0726674" lon="-105.2302306">
  <ele>1617.06</ele>
  <time>2026-08-28T19:10:17Z</time>
  <course>305.41</course>
  <speed>0.99</speed>
  <fix>3d</fix>
</trkpt>
<trkpt lat="40.0726699" lon="-105.2302349">
  <ele>1617.12</ele>
  <time>2026-08-28T19:10:17Z</time>
  <course>193.52</course>
  <speed>1.3060245020672467</speed>
  <fix>3d</fix>
</trkpt>
<trkpt lat="40.0726685" lon="-105.2302326">
  <ele>1617.06</ele>
  <time>2026-08-28T19:10:17Z</time>
  <course>306.49</course>
  <speed>1.13</speed>
  <fix>3d</fix>
</trkpt>
<trkpt lat="40.0726714" lon="-105.2302376">
  <ele>1617.12</ele>
  <time>2026-08-28T19:10:17Z</time>
  <course>205.51</course>
  <speed>1.495125412799876</speed>
  <fix>3d</fix>
</trkpt>
<trkpt lat="40.0726698" lon="-105.2302349">
  <ele>1617.06</ele>
  <time>2026-08-28T19:10:17Z</time>
  <course>306.36</course>
  <speed>1.29</speed>
  <fix>3d</fix>
</trkpt>
<trkpt lat="40.0726729" lon="-105.2302408">
  <ele>1617.12</ele>
  <time>2026-08-28T19:10:17Z</time>
  <course>217.34</course>
  <speed>1.711899529762188</speed>
  <fix>3d</fix>
</trkpt>
<trkpt lat="40.0726712" lon="-105.2302376">
  <ele>1617.06</ele>
  <time>2026-08-28T19:10:17Z</time>
  <course>304.21</course>
  <speed>1.49</speed>
  <fix>3d</fix>
</trkpt>
<trkpt lat="40.0726746" lon="-105.2302445">
  <ele>1617.12</ele>
  <time>2026-08-28T19:10:17Z</time>
  <course>229.1</course>
  <speed>1.961045639448506</speed>
  <fix>3d</fix>
</trkpt>
<trkpt lat="40.0726728" lon="-105.2302407">
  <ele>1617.06</ele>
  <time>2026-08-28T19:10:17Z</time>
  <course>301.7</course>
  <speed>1.7</speed>
  <fix>3d</fix>
</trkpt>
<trkpt lat="40.0726764" lon="-105.2302489">
  <ele>1617.11</ele>
  <time>2026-08-28T19:10:17Z</time>
  <course>240.79</course>
  <speed>2.2585393509965686</speed>
  <fix>3d</fix>
</trkpt>
<trkpt lat="40.0726744" lon="-105.2302444">
  <ele>1617.06</ele>
  <time>2026-08-28T19:10:17Z</time>
  <course>299.16</course>
  <speed>1.94</speed>
  <fix>3d</fix>
</trkpt>
<trkpt lat="40.0726783" lon="-105.230254">
  <ele>1617.1</ele>
  <time>2026-08-28T19:10:17Z</time>
  <course>252.44</course>
  <speed>2.629923953273174</speed>
  <fix>3d</fix>
</trkpt>
<trkpt lat="40.0726762" lon="-105.2302487">
  <ele>1617.05</ele>
  <time>2026-08-28T19:10:17Z</time>
  <course>296.98</course>
  <speed>2.24</speed>
  <fix>3d</fix>
</trkpt>
<trkpt lat="40.0726804" lon="-105.23026">
  <ele>1617.09</ele>
  <time>2026-08-28T19:10:17Z</time>
  <course>264.2</course>
  <speed>3.0689411854905266</speed>
  <fix>3d</fix>
</trkpt>
<trkpt lat="40.0726782" lon="-105.2302538">
  <ele>1617.04</ele>
  <time>2026-08-28T19:10:17Z</time>
  <course>295.42</course>
  <speed>2.6</speed>
  <fix>3d</fix>
</trkpt>
<trkpt lat="40.0726829" lon="-105.230267">
  <ele>1617.08</ele>
  <time>2026-08-28T19:10:17Z</time>
  <course>276.2</course>
  <speed>3.5431765409022455</speed>
  <fix>3d</fix>
</trkpt>
<trkpt lat="40.0726803" lon="-105.2302598">
  <ele>1617.03</ele>
  <time>2026-08-28T19:10:17Z</time>
  <course>294.59</course>
  <speed>3.02</speed>
  <fix>3d</fix>
</trkpt>
<trkpt lat="40.0726857" lon="-105.230275">
  <ele>1617.07</ele>
  <time>2026-08-28T19:10:17Z</time>
  <course>288.42</course>
  <speed>4.038824086290464</speed>
  <fix>3d</fix>
</trkpt>
<trkpt lat="40.0726827" lon="-105.2302668">
  <ele>1617.02</ele>
  <time>2026-08-28T19:10:17Z</time>
  <course>294.49</course>
  <speed>3.49</speed>
  <fix>3d</fix>
</trkpt>
<trkpt lat="40.0726891" lon="-105.230284">
  <ele>1617.07</ele>
  <time>2026-08-28T19:10:17Z</time>
  <course>295.59</course>
  <speed>4.50387610842039</speed>
  <fix>3d</fix>
</trkpt>
<trkpt lat="40.0726854" lon="-105.2302747">
  <ele>1617.01</ele>
  <time>2026-08-28T19:10:17Z</time>
  <course>295.09</course>
  <speed>3.98</speed>
  <fix>3d</fix>
</trkpt>
<trkpt lat="40.072693" lon="-105.2302937">
  <ele>1617.07</ele>
  <time>2026-08-28T19:10:17Z</time>
  <course>295.82</course>
  <speed>4.899489769353539</speed>
  <fix>3d</fix>
</trkpt>
<trkpt lat="40.0726887" lon="-105.2302837">
  <ele>1617.01</ele>
  <time>2026-08-28T19:10:17Z</time>
  <course>296.43</course>
  <speed>4.45</speed>
  <fix>3d</fix>
</trkpt>
<trkpt lat="40.0726973" lon="-105.2303042">
  <ele>1617.09</ele>
  <time>2026-08-28T19:10:17Z</time>
  <course>296.54</course>
  <speed>5.224566967701724</speed>
  <fix>3d</fix>
</trkpt>
<trkpt lat="40.0726926" lon="-105.2302934">
  <ele>1617.01</ele>
  <time>2026-08-28T19:10:17Z</time>
  <course>297.75</course>
  <speed>4.87</speed>
  <fix>3d</fix>
</trkpt>
<trkpt lat="40.072702" lon="-105.2303152">
  <ele>1617.11</ele>
  <time>2026-08-28T19:10:17Z</time>
  <course>297.74</course>
  <speed>5.471325250796191</speed>
  <fix>3d</fix>
</trkpt>
<trkpt lat="40.0726969" lon="-105.2303039">
  <ele>1617.01</ele>
  <time>2026-08-28T19:10:17Z</time>
  <course>298.72</course>
  <speed>5.21</speed>
  <fix>3d</fix>
</trkpt>
<trkpt lat="40.072707" lon="-105.2303265">
  <ele>1617.13</ele>
  <time>2026-08-28T19:10:17Z</time>
  <course>299.12</course>
  <speed>5.64923003603146</speed>
  <fix>3d</fix>
</trkpt>
<trkpt lat="40.0727016" lon="-105.2303149">
  <ele>1617.03</ele>
  <time>2026-08-28T19:10:17Z</time>
  <course>299.75</course>
  <speed>5.47</speed>
  <fix>3d</fix>
</trkpt>
<trkpt lat="40.0727124" lon="-105.2303379">
  <ele>1617.15</ele>
  <time>2026-08-28T19:10:17Z</time>
  <course>300.62</course>
  <speed>5.79518765873893</speed>
  <fix>3d</fix>
</trkpt>
<trkpt lat="40.0727067" lon="-105.2303261">
  <ele>1617.05</ele>
  <time>2026-08-28T19:10:17Z</time>
  <course>300.9</course>
  <speed>5.67</speed>
  <fix>3d</fix>
</trkpt>
<trkpt lat="40.0727181" lon="-105.2303495">
  <ele>1617.17</ele>
  <time>2026-08-28T19:10:17Z</time>
  <course>302.11</course>
  <speed>5.8937000262992685</speed>
  <fix>3d</fix>
</trkpt>
<trkpt lat="40.0727121" lon="-105.2303376">
  <ele>1617.06</ele>
  <time>2026-08-28T19:10:17Z</time>
  <course>302.12</course>
  <speed>5.82</speed>
  <fix>3d</fix>
</trkpt>
<trkpt lat="40.0727241" lon="-105.2303611">
  <ele>1617.18</ele>
  <time>2026-08-28T19:10:18Z</time>
  <course>303.54</course>
  <speed>5.964059020499378</speed>
  <fix>3d</fix>
</trkpt>
<trkpt lat="40.0727178" lon="-105.2303493">
  <ele>1617.08</ele>
  <time>2026-08-28T19:10:18Z</time>
  <course>303.36</course>
  <speed>5.92</speed>
  <fix>3d</fix>
</trkpt>
<trkpt lat="40.0727302" lon="-105.2303726">
  <ele>1617.19</ele>
  <time>2026-08-28T19:10:18Z</time>
  <course>304.86</course>
  <speed>5.997241032341455</speed>
  <fix>3d</fix>
</trkpt>
<trkpt lat="40.0727238" lon="-105.2303608">
  <ele>1617.09</ele>
  <time>2026-08-28T19:10:18Z</time>
  <course>304.56</course>
  <speed>6.0</speed>
  <fix>3d</fix>
</trkpt>
<trkpt lat="40.0727366" lon="-105.2303841">
  <ele>1617.2</ele>
  <time>2026-08-28T19:10:18Z</time>
  <course>306.08</course>
  <speed>6.004065289451806</speed>
  <fix>3d</fix>
</trkpt>
<trkpt lat="40.07273" lon="-105.2303724">
  <ele>1617.1</ele>
  <time>2026-08-28T19:10:18Z</time>
  <course>305.68</course>
  <speed>6.04</speed>
  <fix>3d</fix>
</trkpt>
<trkpt lat="40.0727431" lon="-105.2303953">
  <ele>1617.21</ele>
  <time>2026-08-28T19:10:18Z</time>
  <course>307.14</course>
  <speed>5.984321181220139</speed>
  <fix>3d</fix>
</trkpt>
<trkpt lat="40.0727364" lon="-105.2303839">
  <ele>1617.1</ele>
  <time>2026-08-28T19:10:18Z</time>
  <course>306.68</course>
  <speed>6.05</speed>
  <fix>3d</fix>
</trkpt>
<trkpt lat="40.0727497" lon="-105.2304065">
  <ele>1617.21</ele>
  <time>2026-08-28T19:10:18Z</time>
  <course>308.05</course>
  <speed>5.933338014979427</speed>
  <fix>3d</fix>
</trkpt>
<trkpt lat="40.072743" lon="-105.2303953">
  <ele>1617.11</ele>
  <time>2026-08-28T19:10:18Z</time>
  <course>307.56</course>
  <speed>6.03</speed>
  <fix>3d</fix>
</trkpt>
<trkpt lat="40.0727564" lon="-105.2304175">
  <ele>1617.21</ele>
  <time>2026-08-28T19:10:18Z</time>
  <course>308.81</course>
  <speed>5.8705791877803675</speed>
  <fix>3d</fix>
</trkpt>
<trkpt lat="40.0727496" lon="-105.2304063">
  <ele>1617.11</ele>
  <time>2026-08-28T19:10:18Z</time>
  <course>308.29</course>
  <speed>5.98</speed>
  <fix>3d</fix>
</trkpt>
<trkpt lat="40.072763" lon="-105.2304282">
  <ele>1617.21</ele>
  <time>2026-08-28T19:10:18Z</time>
  <course>309.35</course>
  <speed>5.795662170968905</speed>
  <fix>3d</fix>
</trkpt>
<trkpt lat="40.0727563" lon="-105.2304173">
  <ele>1617.11</ele>
  <time>2026-08-28T19:10:18Z</time>
  <course>308.86</course>
  <speed>5.91</speed>
  <fix>3d</fix>
</trkpt>
<trkpt lat="40.0727696" lon="-105.2304388">
  <ele>1617.2</ele>
  <time>2026-08-28T19:10:18Z</time>
  <course>309.59</course>
  <speed>5.7301483401391975</speed>
  <fix>3d</fix>
</trkpt>
<trkpt lat="40.0727629" lon="-105.230428">
  <ele>1617.11</ele>
  <time>2026-08-28T19:10:18Z</time>
  <course>309.28</course>
  <speed>5.83</speed>
  <fix>3d</fix>
</trkpt>
<trkpt lat="40.0727761" lon="-105.2304492">
  <ele>1617.19</ele>
  <time>2026-08-28T19:10:18Z</time>
  <course>309.63</course>
  <speed>5.673887556164645</speed>
  <fix>3d</fix>
</trkpt>
<trkpt lat="40.0727696" lon="-105.2304385">
  <ele>1617.1</ele>
  <time>2026-08-28T19:10:18Z</time>
  <course>309.51</course>
  <speed>5.76</speed>
  <fix>3d</fix>
</trkpt>
<trkpt lat="40.0727826" lon="-105.2304596">
  <ele>1617.18</ele>
  <time>2026-08-28T19:10:18Z</time>
  <course>309.45</course>
  <speed>5.605086975239545</speed>
  <fix>3d</fix>
</trkpt>
<trkpt lat="40.0727761" lon="-105.2304489">
  <ele>1617.09</ele>
  <time>2026-08-28T19:10:18Z</time>
  <course>309.54</course>
  <speed>5.69</speed>
  <fix>3d</fix>
</trkpt>
<trkpt lat="40.0727889" lon="-105.2304698">
  <ele>1617.17</ele>
  <time>2026-08-28T19:10:18Z</time>
  <course>309.1</course>
  <speed>5.511533361960172</speed>
  <fix>3d</fix>
</trkpt>
<trkpt lat="40.0727825" lon="-105.2304591">
  <ele>1617.08</ele>
  <time>2026-08-28T19:10:18Z</time>
  <course>309.35</course>
  <speed>5.62</speed>
  <fix>3d</fix>
</trkpt>
<trkpt lat="40.072795" lon="-105.2304798">
  <ele>1617.17</ele>
  <time>2026-08-28T19:10:18Z</time>
  <course>308.61</course>
  <speed>5.376430042323624</speed>
  <fix>3d</fix>
</trkpt>
<trkpt lat="40.0727889" lon="-105.2304693">
  <ele>1617.08</ele>
  <time>2026-08-28T19:10:18Z</time>
  <course>308.95</course>
  <speed>5.52</speed>
  <fix>3d</fix>
</trkpt>
<trkpt lat="40.0728008" lon="-105.2304896">
  <ele>1617.18</ele>
  <time>2026-08-28T19:10:18Z</time>
  <course>308.03</course>
  <speed>5.206006146750116</speed>
  <fix>3d</fix>
</trkpt>
<trkpt lat="40.0727951" lon="-105.2304793">
  <ele>1617.08</ele>
  <time>2026-08-28T19:10:18Z</time>
  <course>308.37</course>
  <speed>5.38</speed>
  <fix>3d</fix>
</trkpt>
<trkpt lat="40.0728064" lon="-105.2304991">
  <ele>1617.18</ele>
  <time>2026-08-28T19:10:18Z</time>
  <course>307.44</course>
  <speed>5.008313089254704</speed>
  <fix>3d</fix>
</trkpt>
<trkpt lat="40.0728009" lon="-105.2304891">
  <ele>1617.08</ele>
  <time>2026-08-28T19:10:18Z</time>
  <course>307.71</course>
  <speed>5.22</speed>
  <fix>3d</fix>
</trkpt>
<trkpt lat="40.0728116" lon="-105.2305084">
  <ele>1617.19</ele>
  <time>2026-08-28T19:10:18Z</time>
  <course>306.8</course>
  <speed>4.7754580932094886</speed>
  <fix>3d</fix>
</trkpt>
<trkpt lat="40.0728065" lon="-105.2304987">
  <ele>1617.08</ele>
  <time>2026-08-28T19:10:18Z</time>
  <course>306.98</course>
  <speed>5.02</speed>
  <fix>3d</fix>
</trkpt>
<trkpt lat="40.0728165" lon="-105.2305172">
  <ele>1617.19</ele>
  <time>2026-08-28T19:10:18Z</time>
  <course>306.08</course>
  <speed>4.52142676596669</speed>
  <fix>3d</fix>
</trkpt>
<trkpt lat="40.0728118" lon="-105.2305079">
  <ele>1617.09</ele>
  <time>2026-08-28T19:10:18Z</time>
  <course>306.22</course>
  <speed>4.79</speed>
  <fix>3d</fix>
</trkpt>
<trkpt lat="40.072821" lon="-105.2305257">
  <ele>1617.2</ele>
  <time>2026-08-28T19:10:18Z</time>
  <course>305.33</course>
  <speed>4.218494992292867</speed>
  <fix>3d</fix>
</trkpt>
<trkpt lat="40.0728167" lon="-105.2305168">
  <ele>1617.1</ele>
  <time>2026-08-28T19:10:18Z</time>
  <course>305.42</course>
  <speed>4.53</speed>
  <fix>3d</fix>
</trkpt>
<trkpt lat="40.0728251" lon="-105.2305336">
  <ele>1617.2</ele>
  <time>2026-08-28T19:10:18Z</time>
  <course>304.5</course>
  <speed>3.886244974265004</speed>
  <fix>3d</fix>
</trkpt>
<trkpt lat="40.0728212" lon="-105.2305253">
  <ele>1617.1</ele>
  <time>2026-08-28T19:10:18Z</time>
  <course>304.57</course>
  <speed>4.23</speed>
  <fix>3d</fix>
</trkpt>
<trkpt lat="40.0728288" lon="-105.2305409">
  <ele>1617.2</ele>
  <time>2026-08-28T19:10:18Z</time>
  <course>303.6</course>
  <speed>3.5075490017959834</speed>
  <fix>3d</fix>
</trkpt>
<trkpt lat="40.0728253" lon="-105.2305332">
  <ele>1617.1</ele>
  <time>2026-08-28T19:10:18Z</time>
  <course>303.67</course>
  <speed>3.9</speed>
  <fix>3d</fix>
</trkpt>
<trkpt lat="40.0728319" lon="-105.2305474">
  <ele>1617.2</ele>
  <time>2026-08-28T19:10:18Z</time>
  <course>302.53</course>
  <speed>3.0887699817241168</speed>
  <fix>3d</fix>
</trkpt>
<trkpt lat="40.072829" lon="-105.2305404">
  <ele>1617.1</ele>
  <time>2026-08-28T19:10:18Z</time>
  <course>302.7</course>
  <speed>3.52</speed>
  <fix>3d</fix>
</trkpt>
<trkpt lat="40.0728346" lon="-105.2305532">
  <ele>1617.19</ele>
  <time>2026-08-28T19:10:18Z</time>
  <course>301.3</course>
  <speed>2.645789107241921</speed>
  <fix>3d</fix>
</trkpt>
<trkpt lat="40.0728321" lon="-105.2305471">
  <ele>1617.1</ele>
  <time>2026-08-28T19:10:18Z</time>
  <course>301.62</course>
  <speed>3.11</speed>
  <fix>3d</fix>
</trkpt>
<trkpt lat="40.0728367" lon="-105.2305582">
  <ele>1617.18</ele>
  <time>2026-08-28T19:10:18Z</time>
  <course>299.82</course>
  <speed>2.1918029108475974</speed>
  <fix>3d</fix>
</trkpt>
<trkpt lat="40.0728348" lon="-105.2305528">
  <ele>1617.09</ele>
  <time>2026-08-28T19:10:18Z</time>
  <course>300.4</course>
  <speed>2.66</speed>
  <fix>3d</fix>
</trkpt>
<trkpt lat="40.0728384" lon="-105.2305622">
  <ele>1617.17</ele>
  <time>2026-08-28T19:10:18Z</time>
  <course>298.05</course>
  <speed>1.7576404638036758</speed>
  <fix>3d</fix>
</trkpt>
<trkpt lat="40.072837" lon="-105.2305578">
  <ele>1617.08</ele>
  <time>2026-08-28T19:10:18Z</time>
  <course>299.0</course>
  <speed>2.21</speed>
  <fix>3d</fix>
</trkpt>
<trkpt lat="40.0728397" lon="-105.2305655">
  <ele>1617.15</ele>
  <time>2026-08-28T19:10:18Z</time>
  <course>295.92</course>
  <speed>1.3656500283747663</speed>
  <fix>3d</fix>
</trkpt>
<trkpt lat="40.0728387" lon="-105.230562">
  <ele>1617.07</ele>
  <time>2026-08-28T19:10:18Z</time>
  <course>297.39</course>
  <speed>1.77</speed>
  <fix>3d</fix>
</trkpt>
<trkpt lat="40.0728406" lon="-105.230568">
  <ele>1617.13</ele>
  <time>2026-08-28T19:10:18Z</time>
  <course>293.46</course>
  <speed>1.0288342918079665</speed>
  <fix>3d</fix>
</trkpt>
<trkpt lat="40.07284" lon="-105.2305653">
  <ele>1617.05</ele>
  <time>2026-08-28T19:10:18Z</time>
  <course>295.45</course>
  <speed>1.36</speed>
  <fix>3d</fix>
</trkpt>
<trkpt lat="40.0728412" lon="-105.2305699">
  <ele>1617.12</ele>
  <time>2026-08-28T19:10:18Z</time>
  <course>291.24</course>
  <speed>0.75</speed>
  <fix>3d</fix>
</trkpt>
<trkpt lat="40.0728408" lon="-105.2305678">
  <ele>1617.03</ele>
  <time>2026-08-28T19:10:18Z</time>
  <course>293.01</course>
  <speed>1.01</speed>
  <fix>3d</fix>
</trkpt>
<trkpt lat="40.0728415" lon="-105.2305713">
  <ele>1617.11</ele>
  <time>2026-08-28T19:10:18Z</time>
  <course>291.61</course>
  <speed>0.5197114584074513</speed>
  <fix>3d</fix>
</trkpt>
<trkpt lat="40.0728414" lon="-105.2305696">
  <ele>1617.02</ele>
  <time>2026-08-28T19:10:18Z</time>
  <course>288.88</course>
  <speed>0.72</speed>
  <fix>3d</fix>
</trkpt>
<trkpt lat="40.0728416" lon="-105.2305722">
  <ele>1617.11</ele>
  <time>2026-08-28T19:10:18Z</time>
  <course>291.55</course>
  <speed>0.35014282800023194</speed>
  <fix>3d</fix>
</trkpt>
<trkpt lat="40.0728417" lon="-105.230571">
  <ele>1617.0</ele>
  <time>2026-08-28T19:10:18Z</time>
  <course>282.35</course>
  <speed>0.48</speed>
  <fix>3d</fix>
</trkpt>
<trkpt lat="40.0728416" lon="-105.2305728">
  <ele>1617.1</ele>
  <time>2026-08-28T19:10:18Z</time>
  <course>291.52</course>
  <speed>0.23194827009486402</speed>
  <fix>3d</fix>
</trkpt>
<trkpt lat="40.0728418" lon="-105.2305719">
  <ele>1616.99</ele>
  <time>2026-08-28T19:10:18Z</time>
  <course>272.41</course>
  <speed>0.3</speed>
  <fix>3d</fix>
</trkpt>
<trkpt lat="40.0728415" lon="-105.2305731">
  <ele>1617.11</ele>
  <time>2026-08-28T19:10:18Z</time>
  <course>291.46</course>
  <speed>0.15652475842498528</speed>
  <fix>3d</fix>
</trkpt>
<trkpt lat="40.0728417" lon="-105.2305724">
  <ele>1616.99</ele>
  <time>2026-08-28T19:10:18Z</time>
  <course>253.58</course>
  <speed>0.18</speed>
  <fix>3d</fix>
</trkpt>
<trkpt lat="40.0728415" lon="-105.2305733">
  <ele>1617.12</ele>
  <time>2026-08-28T19:10:18Z</time>
  <course>291.41</course>
  <speed>0.12041594578792296</speed>
  <fix>3d</fix>
</trkpt>
<trkpt lat="40.0728416" lon="-105.2305728">
  <ele>1616.99</ele>
  <time>2026-08-28T19:10:18Z</time>
  <course>223.38</course>
  <speed>0.12</speed>
  <fix>3d</fix>
</trkpt>
<trkpt lat="40.0728413" lon="-105.2305733">
  <ele>1617.12</ele>
  <time>2026-08-28T19:10:18Z</time>
  <course>291.4</course>
  <speed>0.09899494936611665</speed>
  <fix>3d</fix>
</trkpt>
<trkpt lat="40.0728415" lon="-105.2305729">
  <ele>1616.99</ele>
  <time>2026-08-28T19:10:18Z</time>
  <course>196.77</course>
  <speed>0.11</speed>
  <fix>3d</fix>
</trkpt>
<trkpt lat="40.0728412" lon="-105.2305734">
  <ele>1617.12</ele>
  <time>2026-08-28T19:10:18Z</time>
  <course>291.39</course>
  <speed>0.09433981132056603</speed>
  <fix>3d</fix>
</trkpt>
<trkpt lat="40.0728414" lon="-105.2305729">
  <ele>1617.0</ele>
  <time>2026-08-28T19:10:18Z</time>
  <course>186.34</course>
  <speed>0.1</speed>
  <fix>3d</fix>
</trkpt>
<trkpt lat="40.0728411" lon="-105.2305735">
  <ele>1617.13</ele>
  <time>2026-08-28T19:10:18Z</time>
  <course>291.36</course>
  <speed>0.1118033988749895</speed>
  <fix>3d</fix>
</trkpt>
<trkpt lat="40.0728412" lon="-105.230573">
  <ele>1617.0</ele>
  <time>2026-08-28T19:10:18Z</time>
  <course>192.62</course>
  <speed>0.08</speed>
  <fix>3d</fix>
</trkpt>
<trkpt lat="40.0728411" lon="-105.2305737">
  <ele>1617.13</ele>
  <time>2026-08-28T19:10:18Z</time>
  <course>291.33</course>
  <speed>0.16031219541881397</speed>
  <fix>3d</fix>
</trkpt>
<trkpt lat="40.0728411" lon="-105.2305731">
  <ele>1617.0</ele>
  <time>2026-08-28T19:10:18Z</time>
  <course>223.88</course>
  <speed>0.07</speed>
  <fix>3d</fix>
</trkpt>
<trkpt lat="40.072841" lon="-105.230574">
  <ele>1617.13</ele>
  <time>2026-08-28T19:10:18Z</time>
  <course>291.29</course>
  <speed>0.21840329667841554</speed>
  <fix>3d</fix>
</trkpt>
<trkpt lat="40.072841" lon="-105.2305733">
  <ele>1617.01</ele>
  <time>2026-08-28T19:10:18Z</time>
  <course>264.54</course>
  <speed>0.09</speed>
  <fix>3d</fix>
</trkpt>
<trkpt lat="40.0728411" lon="-105.2305744">
  <ele>1617.12</ele>
  <time>2026-08-28T19:10:18Z</time>
  <course>298.64</course>
  <speed>0.291547594742265</speed>
  <fix>3d</fix>
</trkpt>
<trkpt lat="40.0728409" lon="-105.2305736">
  <ele>1617.01</ele>
  <time>2026-08-28T19:10:18Z</time>
  <course>280.72</course>
  <speed>0.15</speed>
  <fix>3d</fix>
</trkpt>
<trkpt lat="40.0728412" lon="-105.230575">
  <ele>1617.12</ele>
  <time>2026-08-28T19:10:18Z</time>
  <course>312.22</course>
  <speed>0.3352610922848042</speed>
  <fix>3d</fix>
</trkpt>
<trkpt lat="40.0728409" lon="-105.230574">
  <ele>1617.01</ele>
  <time>2026-08-28T19:10:18Z</time>
  <course>281.2</course>
  <speed>0.22</speed>
  <fix>3d</fix>
</trkpt>
<trkpt lat="40.0728414" lon="-105.2305757">
  <ele>1617.12</ele>
  <time>2026-08-28T19:10:18Z</time>
  <course>324.44</course>
  <speed>0.39395431207184417</speed>
  <fix>3d</fix>
</trkpt>
<trkpt lat="40.0728411" lon="-105.2305746">
  <ele>1617.01</ele>
  <time>2026-08-28T19:10:18Z</time>
  <course>285.02</course>
  <speed>0.29</speed>
  <fix>3d</fix>
</trkpt>
<trkpt lat="40.0728417" lon="-105.2305765">
  <ele>1617.12</ele>
  <time>2026-08-28T19:10:18Z</time>
  <course>336.57</course>
  <speed>0.4477722635447622</speed>
  <fix>3d</fix>
</trkpt>
<trkpt lat="40.0728413" lon="-105.2305753">
  <ele>1617.02</ele>
  <time>2026-08-28T19:10:18Z</time>
  <course>293.28</course>
  <speed>0.35</speed>
  <fix>3d</fix>
</trkpt>
<trkpt lat="40.0728421" lon="-105.2305774">
  <ele>1617.12</ele>
  <time>2026-08-28T19:10:18Z</time>
  <course>348.67</course>
  <speed>0.4882622246293481</speed>
  <fix>3d</fix>
</trkpt>
<trkpt lat="40.0728416" lon="-105.2305761">
  <ele>1617.02</ele>
  <time>2026-08-28T19:10:18Z</time>
  <course>299.25</course>
  <speed>0.41</speed>
  <fix>3d</fix>
</trkpt>
<trkpt lat="40.0728426" lon="-105.2305782">
  <ele>1617.13</ele>
  <time>2026-08-28T19:10:18Z</time>
  <course>0.73</course>
  <speed>0.5108815909777921</speed>
  <fix>3d</fix>
</trkpt>
<trkpt lat="40.072842" lon="-105.230577">
  <ele>1617.02</ele>
  <time>2026-08-28T19:10:18Z</time>
  <course>304.43</course>
  <speed>0.45</speed>
  <fix>3d</fix>
</trkpt>
<trkpt lat="40.0728432" lon="-105.230579">
  <ele>1617.13</ele>
  <time>2026-08-28T19:10:18Z</time>
  <course>12.58</course>
  <speed>0.5020956084253276</speed>
  <fix>3d</fix>
</trkpt>
<trkpt lat="40.0728425" lon="-105.2305778">
  <ele>1617.03</ele>
  <time>2026-08-28T19:10:18Z</time>
  <course>309.66</course>
  <speed>0.48</speed>
  <fix>3d</fix>
</trkpt>
<trkpt lat="40.0728439" lon="-105.2305796">
  <ele>1617.13</ele>
  <time>2026-08-28T19:10:18Z</time>
  <course>13.38</course>
  <speed>0.44944410108488464</speed>
  <fix>3d</fix>
</trkpt>
<trkpt lat="40.0728431" lon="-105.2305787">
  <ele>1617.03</ele>
  <time>2026-08-28T19:10:18Z</time>
  <course>316.93</course>
  <speed>0.47</speed>
  <fix>3d</fix>
</trkpt>
<trkpt lat="40.0728445" lon="-105.2305801">
  <ele>1617.14</ele>
  <time>2026-08-28T19:10:18Z</time>
  <course>12.68</course>
  <speed>0.42941821107167777</speed>
  <fix>3d</fix>
</trkpt>
<trkpt lat="40.0728437" lon="-105.2305794">
  <ele>1617.04</ele>
  <time>2026-08-28T19:10:18Z</time>
  <course>325.45</course>
  <speed>0.44</speed>
  <fix>3d</fix>
</trkpt>
<trkpt lat="40.0728452" lon="-105.2305805">
  <ele>1617.14</ele>
  <time>2026-08-28T19:10:18Z</time>
  <course>12.59</course>
  <speed>0.3992492955535426</speed>
  <fix>3d</fix>
</trkpt>
<trkpt lat="40.0728444" lon="-105.2305799">
  <ele>1617.04</ele>
  <time>2026-08-28T19:10:18Z</time>
  <course>331.66</course>
  <speed>0.42</speed>
  <fix>3d</fix>
</trkpt>
<trkpt lat="40.0728458" lon="-105.2305807">
  <ele>1617.14</ele>
  <time>2026-08-28T19:10:18Z</time>
  <course>12.59</course>
  <speed>0.34481879299133333</speed>
  <fix>3d</fix>
</trkpt>
<trkpt lat="40.072845" lon="-105.2305803">
  <ele>1617.04</ele>
  <time>2026-08-28T19:10:18Z</time>
  <course>336.73</course>
  <speed>0.39</speed>
  <fix>3d</fix>
</trkpt>
<trkpt lat="40.0728463" lon="-105.2305809">
  <ele>1617.14</ele>
  <time>2026-08-28T19:10:18Z</time>
  <course>12.59</course>
  <speed>0.27294688127912364</speed>
  <fix>3d</fix>
</trkpt>
<trkpt lat="40.0728457" lon="-105.2305806">
  <ele>1617.05</ele>
  <time>2026-08-28T19:10:18Z</time>
  <course>342.61</course>
  <speed>0.34</speed>
  <fix>3d</fix>
</trkpt>
<trkpt lat="40.0728467" lon="-105.2305809">
  <ele>1617.14</ele>
  <time>2026-08-28T19:10:18Z</time>
  <course>12.58</course>
  <speed>0.2102379604162864</speed>
  <fix>3d</fix>
</trkpt>
<trkpt lat="40.0728462" lon="-105.2305808">
  <ele>1617.05</ele>
  <time>2026-08-28T19:10:18Z</time>
  <course>350.55</course>
  <speed>0.28</speed>
  <fix>3d</fix>
</trkpt>
<trkpt lat="40.072847" lon="-105.2305808">
  <ele>1617.14</ele>
  <time>2026-08-28T19:10:18Z</time>
  <course>12.56</course>
  <speed>0.1615549442140351</speed>
  <fix>3d</fix>
</trkpt>
<trkpt lat="40.0728467" lon="-105.2305808">
  <ele>1617.05</ele>
  <time>2026-08-28T19:10:18Z</time>
  <course>2.74</course>
  <speed>0.21</speed>
  <fix>3d</fix>
</trkpt>
<trkpt lat="40.0728472" lon="-105.2305807">
  <ele>1617.14</ele>
  <time>2026-08-28T19:10:18Z</time>
  <course>12.56</course>
  <speed>0.13601470508735444</speed>
  <fix>3d</fix>
</trkpt>
<trkpt lat="40.072847" lon="-105.2305807">
  <ele>1617.05</ele>
  <time>2026-08-28T19:10:18Z</time>
  <course>22.78</course>
  <speed>0.16</speed>
  <fix>3d</fix>
</trkpt>
<trkpt lat="40.0728473" lon="-105.2305803">
  <ele>1617.14</ele>
  <time>2026-08-28T19:10:18Z</time>
  <course>12.54</course>
  <speed>0.15033296378372907</speed>
  <fix>3d</fix>
</trkpt>
<trkpt lat="40.0728472" lon="-105.2305806">
  <ele>1617.05</ele>
  <time>2026-08-28T19:10:18Z</time>
  <course>53.18</course>
  <speed>0.13</speed>
  <fix>3d</fix>
</trkpt>
<trkpt lat="40.0728473" lon="-105.2305799">
  <ele>1617.14</ele>
  <time>2026-08-28T19:10:18Z</time>
  <course>12.52</course>
  <speed>0.18439088914585774</speed>
  <fix>3d</fix>
</trkpt>
<trkpt lat="40.0728473" lon="-105.2305803">
  <ele>1617.05</ele>
  <time>2026-08-28T19:10:18Z</time>
  <course>84.72</course>
  <speed>0.15</speed>
  <fix>3d</fix>
</trkpt>
<trkpt lat="40.0728471" lon="-105.2305795">
  <ele>1617.14</ele>
  <time>2026-08-28T19:10:18Z</time>
  <course>12.54</course>
  <speed>0.223606797749979</speed>
  <fix>3d</fix>
</trkpt>
<trkpt lat="40.0728473" lon="-105.23058">
  <ele>1617.06</ele>
  <time>2026-08-28T19:10:18Z</time>
  <course>106.29</course>
  <speed>0.18</speed>
  <fix>3d</fix>
</trkpt>
<trkpt lat="40.072847" lon="-105.230579">
  <ele>1617.14</ele>
  <time>2026-08-28T19:10:18Z</time>
  <course>12.5</course>
  <speed>0.2640075756488817</speed>
  <fix>3d</fix>
</trkpt>
<trkpt lat="40.0728472" lon="-105.2305795">
  <ele>1617.06</ele>
  <time>2026-08-28T19:10:18Z</time>
  <course>119.44</course>
  <speed>0.23</speed>
  <fix>3d</fix>
</trkpt>
<trkpt lat="40.0728466" lon="-105.2305785">
  <ele>1617.14</ele>
  <time>2026-08-28T19:10:18Z</time>
  <course>12.47</course>
  <speed>0.2973213749463701</speed>
  <fix>3d</fix>
</trkpt>
<trkpt lat="40.072847" lon="-105.230579">
  <ele>1617.06</ele>
  <time>2026-08-28T19:10:18Z</time>
  <course>127.8</course>
  <speed>0.27</speed>
  <fix>3d</fix>
</trkpt>
<trkpt lat="40.0728462" lon="-105.230578">
  <ele>1617.14</ele>
  <time>2026-08-28T19:10:18Z</time>
  <course>12.47</course>
  <speed>0.31827660925679097</speed>
  <fix>3d</fix>
</trkpt>
<trkpt lat="40.0728467" lon="-105.2305784">
  <ele>1617.06</ele>
  <time>2026-08-28T19:10:18Z</time>
  <course>133.46</course>
  <speed>0.31</speed>
  <fix>3d</fix>
</trkpt>
<trkpt lat="40.0728457" lon="-105.2305774">
  <ele>1617.14</ele>
  <time>2026-08-28T19:10:18Z</time>
  <course>12.47</course>
  <speed>0.34058772731852804</speed>
  <fix>3d</fix>
</trkpt>
<trkpt lat="40.0728462" lon="-105.2305779">
  <ele>1617.06</ele>
  <time>2026-08-28T19:10:18Z</time>
  <course>137.57</course>
  <speed>0.34</speed>
  <fix>3d</fix>
</trkpt>
<trkpt lat="40.0728452" lon="-105.2305769">
  <ele>1617.14</ele>
  <time>2026-08-28T19:10:18Z</time>
  <course>12.42</course>
  <speed>0.3420526275297414</speed>
  <fix>3d</fix>
</trkpt>
<trkpt lat="40.0728457" lon="-105.2305773">
  <ele>1617.06</ele>
  <time>2026-08-28T19:10:18Z</time>
  <course>140.83</course>
  <speed>0.36</speed>
  <fix>3d</fix>
</trkpt>
<trkpt lat="40.0728447" lon="-105.2305764">
  <ele>1617.14</ele>
  <time>2026-08-28T19:10:18Z</time>
  <course>12.43</course>
  <speed>0.33837848631377265</speed>
  <fix>3d</fix>
</trkpt>
<trkpt lat="40.0728452" lon="-105.2305768">
  <ele>1617.07</ele>
  <time>2026-08-28T19:10:18Z</time>
  <course>143.69</course>
  <speed>0.37</speed>
  <fix>3d</fix>
</trkpt>
<trkpt lat="40.0728442" lon="-105.2305759">
  <ele>1617.14</ele>
  <time>2026-08-28T19:10:18Z</time>
  <course>12.4</course>
  <speed>0.327566787083184</speed>
  <fix>3d</fix>
</trkpt>
<trkpt lat="40.0728447" lon="-105.2305763">
  <ele>1617.07</ele>
  <time>2026-08-28T19:10:18Z</time>
  <course>146.25</course>
  <speed>0.36</speed>
  <fix>3d</fix>
</trkpt>
<trkpt lat="40.0728437" lon="-105.2305755">
  <ele>1617.14</ele>
  <time>2026-08-28T19:10:18Z</time>
  <course>12.48</course>
  <speed>0.30886890422961</speed>
  <fix>3d</fix>
</trkpt>
<trkpt lat="40.0728441" lon="-105.2305758">
  <ele>1617.07</ele>
  <time>2026-08-28T19:10:18Z</time>
  <course>148.56</course>
  <speed>0.35</speed>
  <fix>3d</fix>
</trkpt>
<trkpt lat="40.0728432" lon="-105.2305752">
  <ele>1617.12</ele>
  <time>2026-08-28T19:10:18Z</time>
  <course>12.87</course>
  <speed>0.27730849247724093</speed>
  <fix>3d</fix>
</trkpt>
<trkpt lat="40.0728436" lon="-105.2305754">
  <ele>1617.07</ele>
  <time>2026-08-28T19:10:18Z</time>
  <course>150.91</course>
  <speed>0.34</speed>
  <fix>3d</fix>
</trkpt>
<trkpt lat="40.0728427" lon="-105.2305749">
  <ele>1617.06</ele>
  <time>2026-08-28T19:10:18Z</time>
  <course>13.21</course>
  <speed>0.25079872407968906</speed>
  <fix>3d</fix>
</trkpt>
<trkpt lat="40.072843" lon="-105.2305751">
  <ele>1617.05</ele>
  <time>2026-08-28T19:10:18Z</time>
  <course>153.14</course>
  <speed>0.31</speed>
  <fix>3d</fix>
</trkpt>
<trkpt lat="40.0728423" lon="-105.2305746">
  <ele>1616.96</ele>
  <time>2026-08-28T19:10:18Z</time>
  <course>13.52</course>
  <speed>0.21540659228538014</speed>
  <fix>3d</fix>
</trkpt>
<trkpt lat="40.0728426" lon="-105.2305748">
  <ele>1616.99</ele>
  <time>2026-08-28T19:10:18Z</time>
  <course>154.97</course>
  <speed>0.28</speed>
  <fix>3d</fix>
</trkpt>
<trkpt lat="40.0728419" lon="-105.2305744">
  <ele>1616.82</ele>
  <time>2026-08-28T19:10:18Z</time>
  <course>13.8</course>
  <speed>0.18384776310850234</speed>
  <fix>3d</fix>
</trkpt>
<trkpt lat="40.0728421" lon="-105.2305745">
  <ele>1616.9</ele>
  <time>2026-08-28T19:10:18Z</time>
  <course>156.37</course>
  <speed>0.25</speed>
  <fix>3d</fix>
</trkpt>
<trkpt lat="40.0728416" lon="-105.2305742">
  <ele>1616.63</ele>
  <time>2026-08-28T19:10:18Z</time>
  <course>14.03</course>
  <speed>0.14866068747318506</speed>
  <fix>3d</fix>
</trkpt>
<trkpt lat="40.0728417" lon="-105.2305744">
  <ele>1616.77</ele>
  <time>2026-08-28T19:10:18Z</time>
  <course>157.28</course>
  <speed>0.21</speed>
  <fix>3d</fix>
</trkpt>
<trkpt lat="40.0728413" lon="-105.2305741">
  <ele>1616.39</ele>
  <time>2026-08-28T19:10:18Z</time>
  <course>14.25</course>
  <speed>0.10770329614269007</speed>
  <fix>3d</fix>
</trkpt>
<trkpt lat="40.0728414" lon="-105.2305742">
  <ele>1616.58</ele>
  <time>2026-08-28T19:10:18Z</time>
  <course>157.62</course>
  <speed>0.17</speed>
  <fix>3d</fix>
</trkpt>
<trkpt lat="40.0728411" lon="-105.230574">
  <ele>1616.11</ele>
  <time>2026-08-28T19:10:18Z</time>
  <course>14.38</course>
  <speed>0.07615773105863909</speed>
  <fix>3d</fix>
</trkpt>
<trkpt lat="40.0728411" lon="-105.230574">
  <ele>1616.35</ele>
  <time>2026-08-28T19:10:18Z</time>
  <course>157.17</course>
  <speed>0.14</speed>
  <fix>3d</fix>
</trkpt>
<trkpt lat="40.072841" lon="-105.2305739">
  <ele>1615.8</ele>
  <time>2026-08-28T19:10:18Z</time>
  <course>14.32</course>
  <speed>0.03605551275463989</speed>
  <fix>3d</fix>
</trkpt>
<trkpt lat="40.0728409" lon="-105.2305739">
  <ele>1616.08</ele>
  <time>2026-08-28T19:10:18Z</time>
  <course>154.97</course>
  <speed>0.1</speed>
  <fix>3d</fix>
</trkpt>
<trkpt lat="40.0728409" lon="-105.2305738">
  <ele>1615.48</ele>
  <time>2026-08-28T19:10:18Z</time>
  <course>14.22</course>
  <speed>0.01</speed>
  <fix>3d</fix>
</trkpt>
<trkpt lat="40.0728408" lon="-105.2305738">
  <ele>1615.77</ele>
  <time>2026-08-28T19:10:18Z</time>
  <course>149.17</course>
  <speed>0.07</speed>
  <fix>3d</fix>
</trkpt>
<trkpt lat="40.0728409" lon="-105.2305738">
  <ele>1615.16</ele>
  <time>2026-08-28T19:10:18Z</time>
  <course>14.12</course>
  <speed>0.02</speed>
  <fix>3d</fix>
</trkpt>
<trkpt lat="40.0728407" lon="-105.2305737">
  <ele>1615.45</ele>
  <time>2026-08-28T19:10:18Z</time>
  <course>134.18</course>
  <speed>0.03</speed>
  <fix>3d</fix>
</trkpt>
<trkpt lat="40.0728409" lon="-105.2305738">
  <ele>1614.83</ele>
  <time>2026-08-28T19:10:19Z</time>
  <course>14.02</course>
  <speed>0.05</speed>
  <fix>3d</fix>
</trkpt>
<trkpt lat="40.0728407" lon="-105.2305736">
  <ele>1615.12</ele>
  <time>2026-08-28T19:10:19Z</time>
  <course>76.84</course>
  <speed>0.01</speed>
  <fix>3d</fix>
</trkpt>
<trkpt lat="40.0728409" lon="-105.2305738">
  <ele>1614.51</ele>
  <time>2026-08-28T19:10:19Z</time>
  <course>13.97</course>
  <speed>0.07071067811865475</speed>
  <fix>3d</fix>
</trkpt>
<trkpt lat="40.0728407" lon="-105.2305736">
  <ele>1614.79</ele>
  <time>2026-08-28T19:10:19Z</time>
  <course>14.47</course>
  <speed>0.03</speed>
  <fix>3d</fix>
</trkpt>
<trkpt lat="40.072841" lon="-105.2305738">
  <ele>1614.19</ele>
  <time>2026-08-28T19:10:19Z</time>
  <course>13.87</course>
  <speed>0.0824621125123532</speed>
  <fix>3d</fix>
</trkpt>
<trkpt lat="40.0728408" lon="-105.2305736">
  <ele>1614.47</ele>
  <time>2026-08-28T19:10:19Z</time>
  <course>358.05</course>
  <speed>0.05</speed>
  <fix>3d</fix>
</trkpt>
<trkpt lat="40.0728411" lon="-105.2305738">
  <ele>1613.87</ele>
  <time>2026-08-28T19:10:19Z</time>
  <course>13.8</course>
  <speed>0.09486832980505139</speed>
  <fix>3d</fix>
</trkpt>
<trkpt lat="40.0728408" lon="-105.2305736">
  <ele>1614.15</ele>
  <time>2026-08-28T19:10:19Z</time>
  <course>350.98</course>
  <speed>0.07</speed>
  <fix>3d</fix>
</trkpt>
<trkpt lat="40.0728413" lon="-105.2305738">
  <ele>1613.57</ele>
  <time>2026-08-28T19:10:19Z</time>
  <course>13.75</course>
  <speed>0.1044030650891055</speed>
  <fix>3d</fix>
</trkpt>
<trkpt lat="40.0728409" lon="-105.2305736">
  <ele>1613.83</ele>
  <time>2026-08-28T19:10:19Z</time>
  <course>346.65</course>
  <speed>0.08</speed>
  <fix>3d</fix>
</trkpt>
<trkpt lat="40.0728414" lon="-105.2305738">
  <ele>1613.26</ele>
  <time>2026-08-28T19:10:19Z</time>
  <course>13.73</course>
  <speed>0.10770329614269007</speed>
  <fix>3d</fix>
</trkpt>
<trkpt lat="40.0728411" lon="-105.2305736">
  <ele>1613.53</ele>
  <time>2026-08-28T19:10:19Z</time>
  <course>343.72</course>
  <speed>0.09</speed>
  <fix>3d</fix>
</trkpt>
<trkpt lat="40.0728416" lon="-105.2305739">
  <ele>1612.96</ele>
  <time>2026-08-28T19:10:19Z</time>
  <course>13.7</course>
  <speed>0.1118033988749895</speed>
  <fix>3d</fix>
</trkpt>
<trkpt lat="40.0728413" lon="-105.2305737">
  <ele>1613.22</ele>
  <time>2026-08-28T19:10:19Z</time>
  <course>341.44</course>
  <speed>0.1</speed>
  <fix>3d</fix>
</trkpt>
<trkpt lat="40.0728417" lon="-105.230574">
  <ele>1612.65</ele>
  <time>2026-08-28T19:10:19Z</time>
  <course>13.67</course>
  <speed>0.1118033988749895</speed>
  <fix>3d</fix>
</trkpt>
<trkpt lat="40.0728414" lon="-105.2305738">
  <ele>1612.91</ele>
  <time>2026-08-28T19:10:19Z</time>
  <course>339.35</course>
  <speed>0.1</speed>
  <fix>3d</fix>
</trkpt>
<trkpt lat="40.0728419" lon="-105.2305741">
  <ele>1612.35</ele>
  <time>2026-08-28T19:10:19Z</time>
  <course>13.62</course>
  <speed>0.10295630140987001</speed>
  <fix>3d</fix>
</trkpt>
<trkpt lat="40.0728417" lon="-105.2305739">
  <ele>1612.62</ele>
  <time>2026-08-28T19:10:19Z</time>
  <course>337.11</course>
  <speed>0.1</speed>
  <fix>3d</fix>
</trkpt>
<trkpt lat="40.072842" lon="-105.2305742">
  <ele>1612.05</ele>
  <time>2026-08-28T19:10:19Z</time>
  <course>13.6</course>
  <speed>0.09433981132056603</speed>
  <fix>3d</fix>
</trkpt>
<trkpt lat="40.0728418" lon="-105.230574">
  <ele>1612.32</ele>
  <time>2026-08-28T19:10:19Z</time>
  <course>334.61</course>
  <speed>0.1</speed>
  <fix>3d</fix>
</trkpt>
<trkpt lat="40.0728422" lon="-105.2305743">
  <ele>1611.75</ele>
  <time>2026-08-28T19:10:19Z</time>
  <course>13.56</course>
  <speed>0.08602325267042626</speed>
  <fix>3d</fix>
</trkpt>
<trkpt lat="40.0728419" lon="-105.2305741">
  <ele>1612.02</ele>
  <time>2026-08-28T19:10:19Z</time>
  <course>331.98</course>
  <speed>0.09</speed>
  <fix>3d</fix>
</trkpt>
<trkpt lat="40.0728423" lon="-105.2305744">
  <ele>1611.45</ele>
  <time>2026-08-28T19:10:19Z</time>
  <course>13.53</course>
  <speed>0.07810249675906654</speed>
  <fix>3d</fix>
</trkpt>
<trkpt lat="40.0728421" lon="-105.2305742">
  <ele>1611.72</ele>
  <time>2026-08-28T19:10:19Z</time>
  <course>329.13</course>
  <speed>0.08</speed>
  <fix>3d</fix>
</trkpt>
<trkpt lat="40.0728424" lon="-105.2305745">
  <ele>1611.15</ele>
  <time>2026-08-28T19:10:19Z</time>
  <course>13.51</course>
  <speed>0.07071067811865475</speed>
  <fix>3d</fix>
</trkpt>
<trkpt lat="40.0728422" lon="-105.2305743">
  <ele>1611.42</ele>
  <time>2026-08-28T19:10:19Z</time>
  <course>325.74</course>
  <speed>0.07</speed>
  <fix>3d</fix>
</trkpt>
<trkpt lat="40.0728424" lon="-105.2305746">
  <ele>1610.85</ele>
  <time>2026-08-28T19:10:19Z</time>
  <course>13.49</course>
  <speed>0.06403124237432849</speed>
  <fix>3d</fix>
</trkpt>
<trkpt lat="40.0728423" lon="-105.2305744">
  <ele>1611.13</ele>
  <time>2026-08-28T19:10:19Z</time>
  <course>321.58</course>
  <speed>0.06</speed>
  <fix>3d</fix>
</trkpt>
<trkpt lat="40.0728425" lon="-105.2305747">
  <ele>1610.55</ele>
  <time>2026-08-28T19:10:19Z</time>
  <course>13.45</course>
  <speed>0.05</speed>
  <fix>3d</fix>
</trkpt>
<trkpt lat="40.0728424" lon="-105.2305745">
  <ele>1610.83</ele>
  <time>2026-08-28T19:10:19Z</time>
  <course>316.05</course>
  <speed>0.05</speed>
  <fix>3d</fix>
</trkpt>
<trkpt lat="40.0728425" lon="-105.2305747">
  <ele>1610.25</ele>
  <time>2026-08-28T19:10:19Z</time>
  <course>13.43</course>
  <speed>0.0412310562561766</speed>
  <fix>3d</fix>
</trkpt>
<trkpt lat="40.0728425" lon="-105.2305746">
  <ele>1610.54</ele>
  <time>2026-08-28T19:10:19Z</time>
  <course>308.0</course>
  <speed>0.04</speed>
  <fix>3d</fix>
</trkpt>
<trkpt lat="40.0728425" lon="-105.2305748">
  <ele>1609.95</ele>
  <time>2026-08-28T19:10:19Z</time>
  <course>13.41</course>
  <speed>0.04</speed>
  <fix>3d</fix>
</trkpt>
<trkpt lat="40.0728425" lon="-105.2305746">
  <ele>1610.24</ele>
  <time>2026-08-28T19:10:19Z</time>
  <course>295.74</course>
  <speed>0.03</speed>
  <fix>3d</fix>
</trkpt>
<trkpt lat="40.0728425" lon="-105.2305749">
  <ele>1609.65</ele>
  <time>2026-08-28T19:10:19Z</time>
  <course>13.37</course>
  <speed>0.03</speed>
  <fix>3d</fix>
</trkpt>
<trkpt lat="40.0728426" lon="-105.2305747">
  <ele>1609.94</ele>
  <time>2026-08-28T19:10:19Z</time>
  <course>276.71</course>
  <speed>0.02</speed>
  <fix>3d</fix>
</trkpt>
<trkpt lat="40.0728425" lon="-105.2305749">
  <ele>1609.34</ele>
  <time>2026-08-28T19:10:19Z</time>
  <course>13.34</course>
  <speed>0.0316227766016838</speed>
  <fix>3d</fix>
</trkpt>
<trkpt lat="40.0728426" lon="-105.2305748">
  <ele>1609.65</ele>
  <time>2026-08-28T19:10:19Z</time>
  <course>250.56</course>
  <speed>0.02</speed>
  <fix>3d</fix>
</trkpt>
<trkpt lat="40.0728425" lon="-105.2305749">
  <ele>1609.04</ele>
  <time>2026-08-28T19:10:19Z</time>
  <course>13.29</course>
  <speed>0.0282842712474619</speed>
  <fix>3d</fix>
</trkpt>
<trkpt lat="40.0728426" lon="-105.2305748">
  <ele>1609.35</ele>
  <time>2026-08-28T19:10:19Z</time>
  <course>224.74</course>
  <speed>0.02</speed>
  <fix>3d</fix>
</trkpt>
<trkpt lat="40.0728425" lon="-105.230575">
  <ele>1608.74</ele>
  <time>2026-08-28T19:10:19Z</time>
  <course>13.27</course>
  <speed>0.0282842712474619</speed>
  <fix>3d</fix>
</trkpt>
<trkpt lat="40.0728426" lon="-105.2305748">
  <ele>1609.05</ele>
  <time>2026-08-28T19:10:19Z</time>
  <course>206.21</course>
  <speed>0.03</speed>
  <fix>3d</fix>
</trkpt>
<trkpt lat="40.0728425" lon="-105.230575">
  <ele>1608.44</ele>
  <time>2026-08-28T19:10:19Z</time>
  <course>13.24</course>
  <speed>0.0316227766016838</speed>
  <fix>3d</fix>
</trkpt>
<trkpt lat="40.0728425" lon="-105.2305748">
  <ele>1608.76</ele>
  <time>2026-08-28T19:10:19Z</time>
  <course>194.27</course>
  <speed>0.03</speed>
  <fix>3d</fix>
</trkpt>
<trkpt lat="40.0728424" lon="-105.230575">
  <ele>1608.14</ele>
  <time>2026-08-28T19:10:19Z</time>
  <course>13.23</course>
  <speed>0.0316227766016838</speed>
  <fix>3d</fix>
</trkpt>
<trkpt lat="40.0728424" lon="-105.2305748">
  <ele>1608.46</ele>
  <time>2026-08-28T19:10:19Z</time>
  <course>185.97</course>
  <speed>0.03</speed>
  <fix>3d</fix>
</trkpt>
<trkpt lat="40.0728423" lon="-105.230575">
  <ele>1607.84</ele>
  <time>2026-08-28T19:10:19Z</time>
  <course>13.18</course>
  <speed>0.0316227766016838</speed>
  <fix>3d</fix>
</trkpt>
<trkpt lat="40.0728424" lon="-105.2305748">
  <ele>1608.16</ele>
  <time>2026-08-28T19:10:19Z</time>
  <course>179.86</course>
  <speed>0.04</speed>
  <fix>3d</fix>
</trkpt>
<trkpt lat="40.0728423" lon="-105.2305749">
  <ele>1607.55</ele>
  <time>2026-08-28T19:10:19Z</time>
  <course>13.17</course>
  <speed>0.03</speed>
  <fix>3d</fix>
</trkpt>
<trkpt lat="40.0728423" lon="-105.2305748">
  <ele>1607.87</ele>
  <time>2026-08-28T19:10:19Z</time>
  <course>175.59</course>
  <speed>0.04</speed>
  <fix>3d</fix>
</trkpt>
<trkpt lat="40.0728422" lon="-105.2305749">
  <ele>1607.25</ele>
  <time>2026-08-28T19:10:19Z</time>
  <course>13.15</course>
  <speed>0.03</speed>
  <fix>3d</fix>
</trkpt>
<trkpt lat="40.0728422" lon="-105.2305748">
  <ele>1607.57</ele>
  <time>2026-08-28T19:10:19Z</time>
  <course>172.95</course>
  <speed>0.04</speed>
  <fix>3d</fix>
</trkpt>
<trkpt lat="40.0728421" lon="-105.2305749">
  <ele>1606.96</ele>
  <time>2026-08-28T19:10:19Z</time>
  <course>13.12</course>
  <speed>0.02</speed>
  <fix>3d</fix>
</trkpt>
<trkpt lat="40.0728421" lon="-105.2305748">
  <ele>1607.28</ele>
  <time>2026-08-28T19:10:19Z</time>
  <course>170.65</course>
  <speed>0.04</speed>
  <fix>3d</fix>
</trkpt>
<trkpt lat="40.0728421" lon="-105.2305749">
  <ele>1606.66</ele>
  <time>2026-08-28T19:10:19Z</time>
  <course>13.1</course>
  <speed>0.02</speed>
  <fix>3d</fix>
</trkpt>
<trkpt lat="40.072842" lon="-105.2305748">
  <ele>1606.98</ele>
  <time>2026-08-28T19:10:19Z</time>
  <course>168.62</course>
  <speed>0.04</speed>
  <fix>3d</fix>
</trkpt>
<trkpt lat="40.072842" lon="-105.2305749">
  <ele>1606.35</ele>
  <time>2026-08-28T19:10:19Z</time>
  <course>13.09</course>
  <speed>0.02</speed>
  <fix>3d</fix>
</trkpt>
<trkpt lat="40.072842" lon="-105.2305748">
  <ele>1606.69</ele>
  <time>2026-08-28T19:10:19Z</time>
  <course>166.89</course>
  <speed>0.03</speed>
  <fix>3d</fix>
</trkpt>
<trkpt lat="40.072842" lon="-105.2305749">
  <ele>1606.05</ele>
  <time>2026-08-28T19:10:19Z</time>
  <course>13.07</course>
  <speed>0.01</speed>
  <fix>3d</fix>
</trkpt>
<trkpt lat="40.0728419" lon="-105.2305748">
  <ele>1606.39</ele>
  <time>2026-08-28T19:10:19Z</time>
  <course>164.93</course>
  <speed>0.03</speed>
  <fix>3d</fix>
</trkpt>
<trkpt lat="40.0728419" lon="-105.2305749">
  <ele>1605.75</ele>
  <time>2026-08-28T19:10:19Z</time>
  <course>13.03</course>
  <speed>0.01</speed>
  <fix>3d</fix>
</trkpt>
<trkpt lat="40.0728419" lon="-105.2305748">
  <ele>1606.09</ele>
  <time>2026-08-28T19:10:19Z</time>
  <course>162.68</course>
  <speed>0.03</speed>
  <fix>3d</fix>
</trkpt>
<trkpt lat="40.0728419" lon="-105.2305749">
  <ele>1605.46</ele>
  <time>2026-08-28T19:10:19Z</time>
  <course>13.02</course>
  <speed>0.0</speed>
  <fix>3d</fix>
</trkpt>
<trkpt lat="40.0728418" lon="-105.2305748">
  <ele>1605.8</ele>
  <time>2026-08-28T19:10:19Z</time>
  <course>159.71</course>
  <speed>0.02</speed>
  <fix>3d</fix>
</trkpt>
<trkpt lat="40.0728419" lon="-105.2305749">
  <ele>1605.16</ele>
  <time>2026-08-28T19:10:19Z</time>
  <course>12.99</course>
  <speed>0.0</speed>
  <fix>3d</fix>
</trkpt>
<trkpt lat="40.0728418" lon="-105.2305748">
  <ele>1605.5</ele>
  <time>2026-08-28T19:10:19Z</time>
  <course>154.37</course>
  <speed>0.02</speed>
  <fix>3d</fix>
</trkpt>
<trkpt lat="40.0728418" lon="-105.2305749">
  <ele>1604.86</ele>
  <time>2026-08-28T19:10:19Z</time>
  <course>12.98</course>
  <speed>0.0</speed>
  <fix>3d</fix>
</trkpt>
<trkpt lat="40.0728418" lon="-105.2305748">
  <ele>1605.2</ele>
  <time>2026-08-28T19:10:19Z</time>
  <course>145.33</course>
  <speed>0.01</speed>
  <fix>3d</fix>
</trkpt>
<trkpt lat="40.0728418" lon="-105.2305749">
  <ele>1604.57</ele>
  <time>2026-08-28T19:10:19Z</time>
  <course>12.97</course>
  <speed>0.01</speed>
  <fix>3d</fix>
</trkpt>
<trkpt lat="40.0728417" lon="-105.2305748">
  <ele>1604.91</ele>
  <time>2026-08-28T19:10:19Z</time>
  <course>130.3</course>
  <speed>0.01</speed>
  <fix>3d</fix>
</trkpt>
<trkpt lat="40.0728418" lon="-105.2305749">
  <ele>1604.27</ele>
  <time>2026-08-28T19:10:19Z</time>
  <course>12.96</course>
  <speed>0.01414213562373095</speed>
  <fix>3d</fix>
</trkpt>
<trkpt lat="40.0728417" lon="-105.2305748">
  <ele>1604.61</ele>
  <time>2026-08-28T19:10:19Z</time>
  <course>107.53</course>
  <speed>0.01</speed>
  <fix>3d</fix>
</trkpt>
<trkpt lat="40.0728418" lon="-105.2305749">
  <ele>1603.97</ele>
  <time>2026-08-28T19:10:19Z</time>
  <course>12.95</course>
  <speed>0.01414213562373095</speed>
  <fix>3d</fix>
</trkpt>
<trkpt lat="40.0728417" lon="-105.2305748">
  <ele>1604.31</ele>
  <time>2026-08-28T19:10:19Z</time>
  <course>82.67</course>
  <speed>0.0</speed>
  <fix>3d</fix>
</trkpt>
<trkpt lat="40.0728418" lon="-105.2305749">
  <ele>1603.68</ele>
  <time>2026-08-28T19:10:19Z</time>
  <course>12.93</course>
  <speed>0.022360679774997897</speed>
  <fix>3d</fix>
</trkpt>
<trkpt lat="40.0728417" lon="-105.2305748">
  <ele>1604.02</ele>
  <time>2026-08-28T19:10:19Z</time>
  <course>60.33</course>
  <speed>0.0</speed>
  <fix>3d</fix>
</trkpt>
<trkpt lat="40.0728418" lon="-105.2305748">
  <ele>1603.38</ele>
  <time>2026-08-28T19:10:19Z</time>
  <course>12.9</course>
  <speed>0.022360679774997897</speed>
  <fix>3d</fix>
</trkpt>
<trkpt lat="40.0728417" lon="-105.2305747">
  <ele>1603.71</ele>
  <time>2026-08-28T19:10:19Z</time>
  <course>45.22</course>
  <speed>0.01</speed>
  <fix>3d</fix>
</trkpt>
<trkpt lat="40.0728418" lon="-105.2305748">
  <ele>1603.07</ele>
  <time>2026-08-28T19:10:19Z</time>
  <course>12.89</course>
  <speed>0.022360679774997897</speed>
  <fix>3d</fix>
</trkpt>
<trkpt lat="40.0728418" lon="-105.2305746">
  <ele>1603.41</ele>
  <time>2026-08-28T19:10:19Z</time>
  <course>36.89</course>
  <speed>0.01</speed>
  <fix>3d</fix>
</trkpt>
<trkpt lat="40.0728418" lon="-105.2305748">
  <ele>1602.77</ele>
  <time>2026-08-28T19:10:19Z</time>
  <course>12.88</course>
  <speed>0.022360679774997897</speed>
  <fix>3d</fix>
</trkpt>
<trkpt lat="40.0728418" lon="-105.2305746">
  <ele>1603.11</ele>
  <time>2026-08-28T19:10:19Z</time>
  <course>32.33</course>
  <speed>0.01</speed>
  <fix>3d</fix>
</trkpt>
<trkpt lat="40.0728418" lon="-105.2305748">
  <ele>1602.47</ele>
  <time>2026-08-28T19:10:19Z</time>
  <course>12.85</course>
  <speed>0.022360679774997897</speed>
  <fix>3d</fix>
</trkpt>
<trkpt lat="40.0728418" lon="-105.2305746">
  <ele>1602.81</ele>
  <time>2026-08-28T19:10:19Z</time>
  <course>28.58</course>
  <speed>0.01</speed>
  <fix>3d</fix>
</trkpt>
<trkpt lat="40.0728419" lon="-105.2305748">
  <ele>1602.16</ele>
  <time>2026-08-28T19:10:19Z</time>
  <course>12.84</course>
  <speed>0.022360679774997897</speed>
  <fix>3d</fix>
</trkpt>
<trkpt lat="40.0728418" lon="-105.2305746">
  <ele>1602.51</ele>
  <time>2026-08-28T19:10:19Z</time>
  <course>25.43</course>
  <speed>0.01</speed>
  <fix>3d</fix>
</trkpt>
<trkpt lat="40.0728419" lon="-105.2305748">
  <ele>1601.86</ele>
  <time>2026-08-28T19:10:19Z</time>
  <course>12.81</course>
  <speed>0.022360679774997897</speed>
  <fix>3d</fix>
</trkpt>
<trkpt lat="40.0728418" lon="-105.2305746">
  <ele>1602.21</ele>
  <time>2026-08-28T19:10:19Z</time>
  <course>22.48</course>
  <speed>0.01</speed>
  <fix>3d</fix>
</trkpt>
<trkpt lat="40.0728419" lon="-105.2305748">
  <ele>1601.56</ele>
  <time>2026-08-28T19:10:19Z</time>
  <course>12.79</course>
  <speed>0.022360679774997897</speed>
  <fix>3d</fix>
</trkpt>
<trkpt lat="40.0728418" lon="-105.2305746">
  <ele>1601.91</ele>
  <time>2026-08-28T19:10:19Z</time>
  <course>19.09</course>
  <speed>0.01</speed>
  <fix>3d</fix>
</trkpt>
<trkpt lat="40.0728419" lon="-105.2305748">
  <ele>1601.26</ele>
  <time>2026-08-28T19:10:19Z</time>
  <course>12.78</course>
  <speed>0.022360679774997897</speed>
  <fix>3d</fix>
</trkpt>
<trkpt lat="40.0728418" lon="-105.2305746">
  <ele>1601.61</ele>
  <time>2026-08-28T19:10:19Z</time>
  <course>16.66</course>
  <speed>0.01</speed>
  <fix>3d</fix>
</trkpt>
<trkpt lat="40.0728419" lon="-105.2305748">
  <ele>1600.96</ele>
  <time>2026-08-28T19:10:19Z</time>
  <course>12.75</course>
  <speed>0.022360679774997897</speed>
  <fix>3d</fix>
</trkpt>
<trkpt lat="40.0728418" lon="-105.2305746">
  <ele>1601.31</ele>
  <time>2026-08-28T19:10:19Z</time>
  <course>14.46</course>
  <speed>0.01</speed>
  <fix>3d</fix>
</trkpt>
<trkpt lat="40.072842" lon="-105.2305748">
  <ele>1600.65</ele>
  <time>2026-08-28T19:10:19Z</time>
  <course>12.74</course>
  <speed>0.022360679774997897</speed>
  <fix>3d</fix>
</trkpt>
<trkpt lat="40.0728419" lon="-105.2305746">
  <ele>1601.01</ele>
  <time>2026-08-28T19:10:19Z</time>
  <course>9.86</course>
  <speed>0.01</speed>
  <fix>3d</fix>
</trkpt>
<trkpt lat="40.072842" lon="-105.2305748">
  <ele>1600.36</ele>
  <time>2026-08-28T19:10:19Z</time>
  <course>12.74</course>
  <speed>0.01414213562373095</speed>
  <fix>3d</fix>
</trkpt>
<trkpt lat="40.0728419" lon="-105.2305746">
  <ele>1600.71</ele>
  <time>2026-08-28T19:10:19Z</time>
  <course>4.79</course>
  <speed>0.0</speed>
  <fix>3d</fix>
</trkpt>
<trkpt lat="40.072842" lon="-105.2305748">
  <ele>1600.06</ele>
  <time>2026-08-28T19:10:19Z</time>
  <course>12.72</course>
  <speed>0.022360679774997897</speed>
  <fix>3d</fix>
</trkpt>
<trkpt lat="40.0728419" lon="-105.2305746">
  <ele>1600.41</ele>
  <time>2026-08-28T19:10:19Z</time>
  <course>2.45</course>
  <speed>0.0</speed>
  <fix>3d</fix>
</trkpt>
<trkpt lat="40.072842" lon="-105.2305748">
  <ele>1599.77</ele>
  <time>2026-08-28T19:10:19Z</time>
  <course>12.71</course>
  <speed>0.022360679774997897</speed>
  <fix>3d</fix>
</trkpt>
<trkpt lat="40.0728419" lon="-105.2305746">
  <ele>1600.12</ele>
  <time>2026-08-28T19:10:19Z</time>
  <course>359.59</course>
  <speed>0.0</speed>
  <fix>3d</fix>
</trkpt>
<trkpt lat="40.072842" lon="-105.2305748">
  <ele>1599.47</ele>
  <time>2026-08-28T19:10:19Z</time>
  <course>12.7</course>
  <speed>0.022360679774997897</speed>
  <fix>3d</fix>
</trkpt>
<trkpt lat="40.0728419" lon="-105.2305746">
  <ele>1599.82</ele>
  <time>2026-08-28T19:10:19Z</time>
  <course>352.3</course>
  <speed>0.0</speed>
  <fix>3d</fix>
</trkpt>
<trkpt lat="40.072842" lon="-105.2305748">
  <ele>1599.18</ele>
  <time>2026-08-28T19:10:19Z</time>
  <course>12.69</course>
  <speed>0.022360679774997897</speed>
  <fix>3d</fix>
</trkpt>
<trkpt lat="40.0728419" lon="-105.2305746">
  <ele>1599.52</ele>
  <time>2026-08-28T19:10:19Z</time>
  <course>341.9</course>
  <speed>0.0</speed>
  <fix>3d</fix>
</trkpt>
<trkpt lat="40.072842" lon="-105.2305748">
  <ele>1598.88</ele>
  <time>2026-08-28T19:10:19Z</time>
  <course>12.69</course>
  <speed>0.022360679774997897</speed>
  <fix>3d</fix>
</trkpt>
<trkpt lat="40.0728419" lon="-105.2305746">
  <ele>1599.22</ele>
  <time>2026-08-28T19:10:19Z</time>
  <course>330.47</course>
  <speed>0.0</speed>
  <fix>3d</fix>
</trkpt>
<trkpt lat="40.072842" lon="-105.2305748">
  <ele>1598.59</ele>
  <time>2026-08-28T19:10:19Z</time>
  <course>12.68</course>
  <speed>0.022360679774997897</speed>
  <fix>3d</fix>
</trkpt>
<trkpt lat="40.0728419" lon="-105.2305746">
  <ele>1598.91</ele>
  <time>2026-08-28T19:10:19Z</time>
  <course>308.04</course>
  <speed>0.0</speed>
  <fix>3d</fix>
</trkpt>
<trkpt lat="40.072842" lon="-105.2305748">
  <ele>1598.29</ele>
  <time>2026-08-28T19:10:19Z</time>
  <course>12.67</course>
  <speed>0.02</speed>
  <fix>3d</fix>
</trkpt>
<trkpt lat="40.0728419" lon="-105.2305746">
  <ele>1598.61</ele>
  <time>2026-08-28T19:10:19Z</time>
  <course>268.87</course>
  <speed>0.0</speed>
  <fix>3d</fix>
</trkpt>
<trkpt lat="40.072842" lon="-105.2305748">
  <ele>1597.99</ele>
  <time>2026-08-28T19:10:19Z</time>
  <course>12.66</course>
  <speed>0.02</speed>
  <fix>3d</fix>
</trkpt>
<trkpt lat="40.0728419" lon="-105.2305746">
  <ele>1598.31</ele>
  <time>2026-08-28T19:10:19Z</time>
  <course>242.77</course>
  <speed>0.0</speed>
  <fix>3d</fix>
</trkpt>
<trkpt lat="40.072842" lon="-105.2305748">
  <ele>1597.69</ele>
  <time>2026-08-28T19:10:19Z</time>
  <course>12.64</course>
  <speed>0.01</speed>
  <fix>3d</fix>
</trkpt>
<trkpt lat="40.0728419" lon="-105.2305746">
  <ele>1598.01</ele>
  <time>2026-08-28T19:10:19Z</time>
  <course>227.33</course>
  <speed>0.0</speed>
  <fix>3d</fix>
</trkpt>
<trkpt lat="40.072842" lon="-105.2305748">
  <ele>1597.39</ele>
  <time>2026-08-28T19:10:19Z</time>
  <course>12.56</course>
  <speed>0.01</speed>
  <fix>3d</fix>
</trkpt>
<trkpt lat="40.0728419" lon="-105.2305746">
  <ele>1597.7</ele>
  <time>2026-08-28T19:10:19Z</time>
  <course>217.16</course>
  <speed>0.0</speed>
  <fix>3d</fix>
</trkpt>
<trkpt lat="40.072842" lon="-105.2305748">
  <ele>1597.11</ele>
  <time>2026-08-28T19:10:19Z</time>
  <course>12.26</course>
  <speed>0.01</speed>
  <fix>3d</fix>
</trkpt>
<trkpt lat="40.0728419" lon="-105.2305746">
  <ele>1597.4</ele>
  <time>2026-08-28T19:10:19Z</time>
  <course>201.34</course>
  <speed>0.0</speed>
  <fix>3d</fix>
</trkpt>
<trkpt lat="40.072842" lon="-105.2305748">
  <ele>1596.86</ele>
  <time>2026-08-28T19:10:19Z</time>
  <course>11.9</course>
  <speed>0.01</speed>
  <fix>3d</fix>
</trkpt>
<trkpt lat="40.0728419" lon="-105.2305746">
  <ele>1597.11</ele>
  <time>2026-08-28T19:10:19Z</time>
  <course>183.82</course>
  <speed>0.0</speed>
  <fix>3d</fix>
</trkpt>
<trkpt lat="40.072842" lon="-105.2305748">
  <ele>1596.65</ele>
  <time>2026-08-28T19:10:19Z</time>
  <course>11.56</course>
  <speed>0.02</speed>
  <fix>3d</fix>
</trkpt>
<trkpt lat="40.0728419" lon="-105.2305746">
  <ele>1596.85</ele>
  <time>2026-08-28T19:10:19Z</time>
  <course>208.7</course>
  <speed>0.0</speed>
  <fix>3d</fix>
</trkpt>
<trkpt lat="40.072842" lon="-105.2305748">
  <ele>1596.49</ele>
  <time>2026-08-28T19:10:19Z</time>
  <course>11.25</course>
  <speed>0.02</speed>
  <fix>3d</fix>
</trkpt>
<trkpt lat="40.0728419" lon="-105.2305746">
  <ele>1596.64</ele>
  <time>2026-08-28T19:10:19Z</time>
  <course>245.96</course>
  <speed>0.0</speed>
  <fix>3d</fix>
</trkpt>
<trkpt lat="40.072842" lon="-105.2305748">
  <ele>1596.36</ele>
  <time>2026-08-28T19:10:19Z</time>
  <course>11.09</course>
  <speed>0.03</speed>
  <fix>3d</fix>
</trkpt>
<trkpt lat="40.0728419" lon="-105.2305746">
  <ele>1596.46</ele>
  <time>2026-08-28T19:10:19Z</time>
  <course>258.6</course>
  <speed>0.01</speed>
  <fix>3d</fix>
</trkpt>
<trkpt lat="40.072842" lon="-105.2305748">
  <ele>1596.26</ele>
  <time>2026-08-28T19:10:19Z</time>
  <course>11.13</course>
  <speed>0.0412310562561766</speed>
  <fix>3d</fix>
</trkpt>
<trkpt lat="40.0728419" lon="-105.2305746">
  <ele>1596.33</ele>
  <time>2026-08-28T19:10:19Z</time>
  <course>263.4</course>
  <speed>0.01</speed>
  <fix>3d</fix>
</trkpt>
<trkpt lat="40.072842" lon="-105.2305749">
  <ele>1596.18</ele>
  <time>2026-08-28T19:10:19Z</time>
  <course>11.17</course>
  <speed>0.0412310562561766</speed>
  <fix>3d</fix>
</trkpt>
<trkpt lat="40.0728419" lon="-105.2305746">
  <ele>1596.23</ele>
  <time>2026-08-28T19:10:19Z</time>
  <course>265.41</course>
  <speed>0.02</speed>
  <fix>3d</fix>
</trkpt>
<trkpt lat="40.072842" lon="-105.230575">
  <ele>1596.1</ele>
  <time>2026-08-28T19:10:19Z</time>
  <course>11.26</course>
  <speed>0.0412310562561766</speed>
  <fix>3d</fix>
</trkpt>
<trkpt lat="40.0728419" lon="-105.2305747">
  <ele>1596.14</ele>
  <time>2026-08-28T19:10:19Z</time>
  <course>266.5</course>
  <speed>0.03</speed>
  <fix>3d</fix>
</trkpt>
<trkpt lat="40.072842" lon="-105.230575">
  <ele>1596.02</ele>
  <time>2026-08-28T19:10:19Z</time>
  <course>11.31</course>
  <speed>0.0412310562561766</speed>
  <fix>3d</fix>
</trkpt>
<trkpt lat="40.0728419" lon="-105.2305748">
  <ele>1596.06</ele>
  <time>2026-08-28T19:10:19Z</time>
  <course>267.53</course>
  <speed>0.03</speed>
  <fix>3d</fix>
</trkpt>
<trkpt lat="40.072842" lon="-105.2305751">
  <ele>1595.93</ele>
  <time>2026-08-28T19:10:19Z</time>
  <course>11.39</course>
  <speed>0.0412310562561766</speed>
  <fix>3d</fix>
</trkpt>
<trkpt lat="40.0728419" lon="-105.2305748">
  <ele>1595.99</ele>
  <time>2026-08-28T19:10:19Z</time>
  <course>268.62</course>
  <speed>0.03</speed>
  <fix>3d</fix>
</trkpt>
<trkpt lat="40.072842" lon="-105.2305751">
  <ele>1595.85</ele>
  <time>2026-08-28T19:10:19Z</time>
  <course>11.43</course>
  <speed>0.0412310562561766</speed>
  <fix>3d</fix>
</trkpt>
<trkpt lat="40.0728419" lon="-105.2305749">
  <ele>1595.9</ele>
  <time>2026-08-28T19:10:19Z</time>
  <course>269.78</course>
  <speed>0.03</speed>
  <fix>3d</fix>
</trkpt>
<trkpt lat="40.072842" lon="-105.2305752">
  <ele>1595.76</ele>
  <time>2026-08-28T19:10:19Z</time>
  <course>11.49</course>
  <speed>0.0316227766016838</speed>
  <fix>3d</fix>
</trkpt>
<trkpt lat="40.0728419" lon="-105.230575">
  <ele>1595.81</ele>
  <time>2026-08-28T19:10:19Z</time>
  <course>270.97</course>
  <speed>0.02</speed>
  <fix>3d</fix>
</trkpt>
<trkpt lat="40.072842" lon="-105.2305752">
  <ele>1595.67</ele>
  <time>2026-08-28T19:10:19Z</time>
  <course>11.52</course>
  <speed>0.0316227766016838</speed>
  <fix>3d</fix>
</trkpt>
<trkpt lat="40.0728419" lon="-105.2305751">
  <ele>1595.72</ele>
  <time>2026-08-28T19:10:19Z</time>
  <course>272.35</course>
  <speed>0.02</speed>
  <fix>3d</fix>
</trkpt>
<trkpt lat="40.072842" lon="-105.2305753">
  <ele>1595.57</ele>
  <time>2026-08-28T19:10:19Z</time>
  <course>11.55</course>
  <speed>0.022360679774997897</speed>
  <fix>3d</fix>
</trkpt>
<trkpt lat="40.0728419" lon="-105.2305751">
  <ele>1595.63</ele>
  <time>2026-08-28T19:10:19Z</time>
  <course>273.8</course>
  <speed>0.01</speed>
  <fix>3d</fix>
</trkpt>
<trkpt lat="40.072842" lon="-105.2305753">
  <ele>1595.47</ele>
  <time>2026-08-28T19:10:19Z</time>
  <course>11.56</course>
  <speed>0.022360679774997897</speed>
  <fix>3d</fix>
</trkpt>
<trkpt lat="40.0728419" lon="-105.2305751">
  <ele>1595.54</ele>
  <time>2026-08-28T19:10:19Z</time>
  <course>275.57</course>
  <speed>0.01</speed>
  <fix>3d</fix>
</trkpt>
<trkpt lat="40.072842" lon="-105.2305753">
  <ele>1595.37</ele>
  <time>2026-08-28T19:10:19Z</time>
  <course>11.56</course>
  <speed>0.01414213562373095</speed>
  <fix>3d</fix>
</trkpt>
<trkpt lat="40.0728419" lon="-105.2305751">
  <ele>1595.44</ele>
  <time>2026-08-28T19:10:19Z</time>
  <course>278.14</course>
  <speed>0.0</speed>
  <fix>3d</fix>
</trkpt>
<trkpt lat="40.072842" lon="-105.2305753">
  <ele>1595.27</ele>
  <time>2026-08-28T19:10:19Z</time>
  <course>11.56</course>
  <speed>0.01414213562373095</speed>
  <fix>3d</fix>
</trkpt>
<trkpt lat="40.0728419" lon="-105.2305751">
  <ele>1595.34</ele>
  <time>2026-08-28T19:10:19Z</time>
  <course>290.07</course>
  <speed>0.0</speed>
  <fix>3d</fix>
</trkpt>
<trkpt lat="40.072842" lon="-105.2305753">
  <ele>1595.17</ele>
  <time>2026-08-28T19:10:19Z</time>
  <course>11.58</course>
  <speed>0.01</speed>
  <fix>3d</fix>
</trkpt>
<trkpt lat="40.0728419" lon="-105.2305751">
  <ele>1595.24</ele>
  <time>2026-08-28T19:10:19Z</time>
  <course>62.23</course>
  <speed>0.0</speed>
  <fix>3d</fix>
</trkpt>
<trkpt lat="40.072842" lon="-105.2305753">
  <ele>1595.07</ele>
  <time>2026-08-28T19:10:19Z</time>
  <course>11.56</course>
  <speed>0.01</speed>
  <fix>3d</fix>
</trkpt>
<trkpt lat="40.0728419" lon="-105.2305751">
  <ele>1595.13</ele>
  <time>2026-08-28T19:10:19Z</time>
  <course>81.84</course>
  <speed>0.0</speed>
  <fix>3d</fix>
</trkpt>
<trkpt lat="40.072842" lon="-105.2305753">
  <ele>1594.97</ele>
  <time>2026-08-28T19:10:19Z</time>
  <course>11.59</course>
  <speed>0.01</speed>
  <fix>3d</fix>
</trkpt>
<trkpt lat="40.0728419" lon="-105.2305751">
  <ele>1595.03</ele>
  <time>2026-08-28T19:10:19Z</time>
  <course>84.32</course>
  <speed>0.0</speed>
  <fix>3d</fix>
</trkpt>
<trkpt lat="40.072842" lon="-105.2305753">
  <ele>1594.87</ele>
  <time>2026-08-28T19:10:20Z</time>
  <course>11.58</course>
  <speed>0.01</speed>
  <fix>3d</fix>
</trkpt>
<trkpt lat="40.0728419" lon="-105.2305751">
  <ele>1594.92</ele>
  <time>2026-08-28T19:10:20Z</time>
  <course>85.97</course>
  <speed>0.01</speed>
  <fix>3d</fix>
</trkpt>
<trkpt lat="40.072842" lon="-105.2305752">
  <ele>1594.77</ele>
  <time>2026-08-28T19:10:20Z</time>
  <course>11.59</course>
  <speed>0.01</speed>
  <fix>3d</fix>
</trkpt>
<trkpt lat="40.0728419" lon="-105.2305751">
  <ele>1594.83</ele>
  <time>2026-08-28T19:10:20Z</time>
  <course>88.2</course>
  <speed>0.01</speed>
  <fix>3d</fix>
</trkpt>
<trkpt lat="40.072842" lon="-105.2305752">
  <ele>1594.67</ele>
  <time>2026-08-28T19:10:20Z</time>
  <course>11.61</course>
  <speed>0.01</speed>
  <fix>3d</fix>
</trkpt>
<trkpt lat="40.0728419" lon="-105.2305751">
  <ele>1594.73</ele>
  <time>2026-08-28T19:10:20Z</time>
  <course>89.74</course>
  <speed>0.01</speed>
  <fix>3d</fix>
</trkpt>
<trkpt lat="40.072842" lon="-105.2305752">
  <ele>1594.57</ele>
  <time>2026-08-28T19:10:20Z</time>
  <course>11.62</course>
  <speed>0.01</speed>
  <fix>3d</fix>
</trkpt>
<trkpt lat="40.0728419" lon="-105.2305751">
  <ele>1594.63</ele>
  <time>2026-08-28T19:10:20Z</time>
  <course>90.62</course>
  <speed>0.01</speed>
  <fix>3d</fix>
</trkpt>
<trkpt lat="40.072842" lon="-105.2305751">
  <ele>1594.47</ele>
  <time>2026-08-28T19:10:20Z</time>
  <course>11.62</course>
  <speed>0.01</speed>
  <fix>3d</fix>
</trkpt>
<trkpt lat="40.0728419" lon="-105.2305751">
  <ele>1594.53</ele>
  <time>2026-08-28T19:10:20Z</time>
  <course>91.26</course>
  <speed>0.01</speed>
  <fix>3d</fix>
</trkpt>
<trkpt lat="40.072842" lon="-105.2305751">
  <ele>1594.37</ele>
  <time>2026-08-28T19:10:20Z</time>
  <course>11.65</course>
  <speed>0.01</speed>
  <fix>3d</fix>
</trkpt>
<trkpt lat="40.0728419" lon="-105.2305751">
  <ele>1594.42</ele>
  <time>2026-08-28T19:10:20Z</time>
  <course>91.79</course>
  <speed>0.01</speed>
  <fix>3d</fix>
</trkpt>
<trkpt lat="40.072842" lon="-105.2305751">
  <ele>1594.27</ele>
  <time>2026-08-28T19:10:20Z</time>
  <course>11.64</course>
  <speed>0.01</speed>
  <fix>3d</fix>
</trkpt>
<trkpt lat="40.0728419" lon="-105.230575">
  <ele>1594.33</ele>
  <time>2026-08-28T19:10:20Z</time>
  <course>92.21</course>
  <speed>0.01</speed>
  <fix>3d</fix>
</trkpt>
<trkpt lat="40.072842" lon="-105.230575">
  <ele>1594.17</ele>
  <time>2026-08-28T19:10:20Z</time>
  <course>11.65</course>
  <speed>0.01</speed>
  <fix>3d</fix>
</trkpt>
<trkpt lat="40.0728419" lon="-105.230575">
  <ele>1594.23</ele>
  <time>2026-08-28T19:10:20Z</time>
  <course>92.74</course>
  <speed>0.01</speed>
  <fix>3d</fix>
</trkpt>
<trkpt lat="40.072842" lon="-105.230575">
  <ele>1594.07</ele>
  <time>2026-08-28T19:10:20Z</time>
  <course>11.66</course>
  <speed>0.01</speed>
  <fix>3d</fix>
</trkpt>
<trkpt lat="40.0728419" lon="-105.230575">
  <ele>1594.13</ele>
  <time>2026-08-28T19:10:20Z</time>
  <course>93.77</course>
  <speed>0.01</speed>
  <fix>3d</fix>
</trkpt>
<trkpt lat="40.072842" lon="-105.230575">
  <ele>1593.97</ele>
  <time>2026-08-28T19:10:20Z</time>
  <course>11.65</course>
  <speed>0.01</speed>
  <fix>3d</fix>
</trkpt>
<trkpt lat="40.0728419" lon="-105.2305749">
  <ele>1594.03</ele>
  <time>2026-08-28T19:10:20Z</time>
  <course>95.22</course>
  <speed>0.01</speed>
  <fix>3d</fix>
</trkpt>
<trkpt lat="40.072842" lon="-105.230575">
  <ele>1593.87</ele>
  <time>2026-08-28T19:10:20Z</time>
  <course>11.67</course>
  <speed>0.01</speed>
  <fix>3d</fix>
</trkpt>
<trkpt lat="40.0728419" lon="-105.2305748">
  <ele>1593.92</ele>
  <time>2026-08-28T19:10:20Z</time>
  <course>96.49</course>
  <speed>0.01</speed>
  <fix>3d</fix>
</trkpt>
<trkpt lat="40.072842" lon="-105.2305749">
  <ele>1593.77</ele>
  <time>2026-08-28T19:10:20Z</time>
  <course>11.66</course>
  <speed>0.01</speed>
  <fix>3d</fix>
</trkpt>
<trkpt lat="40.0728419" lon="-105.2305748">
  <ele>1593.82</ele>
  <time>2026-08-28T19:10:20Z</time>
  <course>97.29</course>
  <speed>0.01</speed>
  <fix>3d</fix>
</trkpt>
<trkpt lat="40.072842" lon="-105.2305749">
  <ele>1593.67</ele>
  <time>2026-08-28T19:10:20Z</time>
  <course>11.68</course>
  <speed>0.01</speed>
  <fix>3d</fix>
</trkpt>
<trkpt lat="40.0728419" lon="-105.2305748">
  <ele>1593.72</ele>
  <time>2026-08-28T19:10:20Z</time>
  <course>98.28</course>
  <speed>0.01</speed>
  <fix>3d</fix>
</trkpt>
<trkpt lat="40.072842" lon="-105.2305749">
  <ele>1593.56</ele>
  <time>2026-08-28T19:10:20Z</time>
  <course>11.67</course>
  <speed>0.01</speed>
  <fix>3d</fix>
</trkpt>
<trkpt lat="40.0728419" lon="-105.2305748">
  <ele>1593.62</ele>
  <time>2026-08-28T19:10:20Z</time>
  <course>99.58</course>
  <speed>0.01</speed>
  <fix>3d</fix>
</trkpt>
<trkpt lat="40.072842" lon="-105.2305749">
  <ele>1593.46</ele>
  <time>2026-08-28T19:10:20Z</time>
  <course>11.68</course>
  <speed>0.01</speed>
  <fix>3d</fix>
</trkpt>
<trkpt lat="40.0728419" lon="-105.2305747">
  <ele>1593.52</ele>
  <time>2026-08-28T19:10:20Z</time>
  <course>100.86</course>
  <speed>0.01</speed>
  <fix>3d</fix>
</trkpt>
<trkpt lat="40.072842" lon="-105.2305748">
  <ele>1593.36</ele>
  <time>2026-08-28T19:10:20Z</time>
  <course>11.71</course>
  <speed>0.01</speed>
  <fix>3d</fix>
</trkpt>
<trkpt lat="40.0728419" lon="-105.2305746">
  <ele>1593.42</ele>
  <time>2026-08-28T19:10:20Z</time>
  <course>103.01</course>
  <speed>0.01</speed>
  <fix>3d</fix>
</trkpt>
<trkpt lat="40.072842" lon="-105.2305748">
  <ele>1593.26</ele>
  <time>2026-08-28T19:10:20Z</time>
  <course>11.67</course>
  <speed>0.01</speed>
  <fix>3d</fix>
</trkpt>
<trkpt lat="40.0728419" lon="-105.2305746">
  <ele>1593.33</ele>
  <time>2026-08-28T19:10:20Z</time>
  <course>106.45</course>
  <speed>0.01</speed>
  <fix>3d</fix>
</trkpt>
<trkpt lat="40.072842" lon="-105.2305748">
  <ele>1593.16</ele>
  <time>2026-08-28T19:10:20Z</time>
  <course>11.66</course>
  <speed>0.01414213562373095</speed>
  <fix>3d</fix>
</trkpt>
<trkpt lat="40.0728419" lon="-105.2305746">
  <ele>1593.23</ele>
  <time>2026-08-28T19:10:20Z</time>
  <course>110.58</course>
  <speed>0.0</speed>
  <fix>3d</fix>
</trkpt>
<trkpt lat="40.072842" lon="-105.2305748">
  <ele>1593.06</ele>
  <time>2026-08-28T19:10:20Z</time>
  <course>11.68</course>
  <speed>0.01414213562373095</speed>
  <fix>3d</fix>
</trkpt>
<trkpt lat="40.0728419" lon="-105.2305746">
  <ele>1593.13</ele>
  <time>2026-08-28T19:10:20Z</time>
  <course>115.49</course>
  <speed>0.0</speed>
  <fix>3d</fix>
</trkpt>
<trkpt lat="40.072842" lon="-105.2305748">
  <ele>1592.97</ele>
  <time>2026-08-28T19:10:20Z</time>
  <course>11.71</course>
  <speed>0.01414213562373095</speed>
  <fix>3d</fix>
</trkpt>
<trkpt lat="40.0728419" lon="-105.2305746">
  <ele>1593.03</ele>
  <time>2026-08-28T19:10:20Z</time>
  <course>122.51</course>
  <speed>0.0</speed>
  <fix>3d</fix>
</trkpt>
<trkpt lat="40.072842" lon="-105.2305747">
  <ele>1592.87</ele>
  <time>2026-08-28T19:10:20Z</time>
  <course>11.7</course>
  <speed>0.01414213562373095</speed>
  <fix>3d</fix>
</trkpt>
<trkpt lat="40.0728419" lon="-105.2305746">
  <ele>1592.92</ele>
  <time>2026-08-28T19:10:20Z</time>
  <course>134.03</course>
  <speed>0.0</speed>
  <fix>3d</fix>
</trkpt>
<trkpt lat="40.072842" lon="-105.2305747">
  <ele>1592.76</ele>
  <time>2026-08-28T19:10:20Z</time>
  <course>11.71</course>
  <speed>0.01414213562373095</speed>
  <fix>3d</fix>
</trkpt>
<trkpt lat="40.0728419" lon="-105.2305746">
  <ele>1592.83</ele>
  <time>2026-08-28T19:10:20Z</time>
  <course>149.38</course>
  <speed>0.0</speed>
  <fix>3d</fix>
</trkpt>
<trkpt lat="40.072842" lon="-105.2305747">
  <ele>1592.66</ele>
  <time>2026-08-28T19:10:20Z</time>
  <course>11.74</course>
  <speed>0.01414213562373095</speed>
  <fix>3d</fix>
</trkpt>
<trkpt lat="40.0728419" lon="-105.2305746">
  <ele>1592.73</ele>
  <time>2026-08-28T19:10:20Z</time>
  <course>167.12</course>
  <speed>0.0</speed>
  <fix>3d</fix>
</trkpt>
<trkpt lat="40.072842" lon="-105.2305747">
  <ele>1592.56</ele>
  <time>2026-08-28T19:10:20Z</time>
  <course>11.7</course>
  <speed>0.01414213562373095</speed>
  <fix>3d</fix>
</trkpt>
<trkpt lat="40.0728419" lon="-105.2305746">
  <ele>1592.63</ele>
  <time>2026-08-28T19:10:20Z</time>
  <course>181.24</course>
  <speed>0.0</speed>
  <fix>3d</fix>
</trkpt>
<trkpt lat="40.072842" lon="-105.2305747">
  <ele>1592.46</ele>
  <time>2026-08-28T19:10:20Z</time>
  <course>11.72</course>
  <speed>0.01414213562373095</speed>
  <fix>3d</fix>
</trkpt>
<trkpt lat="40.0728419" lon="-105.2305746">
  <ele>1592.54</ele>
  <time>2026-08-28T19:10:20Z</time>
  <course>192.32</course>
  <speed>0.0</speed>
  <fix>3d</fix>
</trkpt>
<trkpt lat="40.072842" lon="-105.2305747">
  <ele>1592.37</ele>
  <time>2026-08-28T19:10:20Z</time>
  <course>11.75</course>
  <speed>0.01414213562373095</speed>
  <fix>3d</fix>
</trkpt>
<trkpt lat="40.0728419" lon="-105.2305746">
  <ele>1592.44</ele>
  <time>2026-08-28T19:10:20Z</time>
  <course>202.3</course>
  <speed>0.0</speed>
  <fix>3d</fix>
</trkpt>
<trkpt lat="40.072842" lon="-105.2305747">
  <ele>1592.27</ele>
  <time>2026-08-28T19:10:20Z</time>
  <course>11.74</course>
  <speed>0.01414213562373095</speed>
  <fix>3d</fix>
</trkpt>
<trkpt lat="40.0728419" lon="-105.2305746">
  <ele>1592.34</ele>
  <time>2026-08-28T19:10:20Z</time>
  <course>207.26</course>
  <speed>0.0</speed>
  <fix>3d</fix>
</trkpt>
<trkpt lat="40.072842" lon="-105.2305747">
  <ele>1592.17</ele>
  <time>2026-08-28T19:10:20Z</time>
  <course>11.77</course>
  <speed>0.022360679774997897</speed>
  <fix>3d</fix>
</trkpt>
<trkpt lat="40.0728419" lon="-105.2305746">
  <ele>1592.24</ele>
  <time>2026-08-28T19:10:20Z</time>
  <course>212.22</course>
  <speed>0.0</speed>
  <fix>3d</fix>
</trkpt>
<trkpt lat="40.072842" lon="-105.2305747">
  <ele>1592.07</ele>
  <time>2026-08-28T19:10:20Z</time>
  <course>11.77</course>
  <speed>0.01414213562373095</speed>
  <fix>3d</fix>
</trkpt>
<trkpt lat="40.0728419" lon="-105.2305746">
  <ele>1592.13</ele>
  <time>2026-08-28T19:10:20Z</time>
  <course>216.66</course>
  <speed>0.0</speed>
  <fix>3d</fix>
</trkpt>
<trkpt lat="40.072842" lon="-105.2305747">
  <ele>1591.97</ele>
  <time>2026-08-28T19:10:20Z</time>
  <course>11.79</course>
  <speed>0.01414213562373095</speed>
  <fix>3d</fix>
</trkpt>
<trkpt lat="40.0728419" lon="-105.2305746">
  <ele>1592.04</ele>
  <time>2026-08-28T19:10:20Z</time>
  <course>218.43</course>
  <speed>0.0</speed>
  <fix>3d</fix>
</trkpt>
<trkpt lat="40.072842" lon="-105.2305747">
  <ele>1591.87</ele>
  <time>2026-08-28T19:10:20Z</time>
  <course>11.78</course>
  <speed>0.01414213562373095</speed>
  <fix>3d</fix>
</trkpt>
<trkpt lat="40.0728419" lon="-105.2305746">
  <ele>1591.94</ele>
  <time>2026-08-28T19:10:20Z</time>
  <course>217.48</course>
  <speed>0.0</speed>
  <fix>3d</fix>
</trkpt>
<trkpt lat="40.072842" lon="-105.2305747">
  <ele>1591.77</ele>
  <time>2026-08-28T19:10:20Z</time>
  <course>11.78</course>
  <speed>0.01414213562373095</speed>
  <fix>3d</fix>
</trkpt>
<trkpt lat="40.0728419" lon="-105.2305746">
  <ele>1591.84</ele>
  <time>2026-08-28T19:10:20Z</time>
  <course>216.69</course>
  <speed>0.0</speed>
  <fix>3d</fix>
</trkpt>
<trkpt lat="40.072842" lon="-105.2305747">
  <ele>1591.67</ele>
  <time>2026-08-28T19:10:20Z</time>
  <course>11.79</course>
  <speed>0.01414213562373095</speed>
  <fix>3d</fix>
</trkpt>
<trkpt lat="40.0728419" lon="-105.2305746">
  <ele>1591.74</ele>
  <time>2026-08-28T19:10:20Z</time>
  <course>216.97</course>
  <speed>0.0</speed>
  <fix>3d</fix>
</trkpt>
<trkpt lat="40.072842" lon="-105.2305747">
  <ele>1591.58</ele>
  <time>2026-08-28T19:10:20Z</time>
  <course>11.8</course>
  <speed>0.01414213562373095</speed>
  <fix>3d</fix>
</trkpt>
<trkpt lat="40.0728419" lon="-105.2305746">
  <ele>1591.63</ele>
  <time>2026-08-28T19:10:20Z</time>
  <course>217.58</course>
  <speed>0.0</speed>
  <fix>3d</fix>
</trkpt>
<trkpt lat="40.072842" lon="-105.2305747">
  <ele>1591.48</ele>
  <time>2026-08-28T19:10:20Z</time>
  <course>11.82</course>
  <speed>0.01414213562373095</speed>
  <fix>3d</fix>
</trkpt>
<trkpt lat="40.0728418" lon="-105.2305746">
  <ele>1591.54</ele>
  <time>2026-08-28T19:10:20Z</time>
  <course>220.59</course>
  <speed>0.0</speed>
  <fix>3d</fix>
</trkpt>
<trkpt lat="40.072842" lon="-105.2305748">
  <ele>1591.38</ele>
  <time>2026-08-28T19:10:20Z</time>
  <course>11.82</course>
  <speed>0.01414213562373095</speed>
  <fix>3d</fix>
</trkpt>
<trkpt lat="40.0728418" lon="-105.2305746">
  <ele>1591.44</ele>
  <time>2026-08-28T19:10:20Z</time>
  <course>222.18</course>
  <speed>0.0</speed>
  <fix>3d</fix>
</trkpt>
<trkpt lat="40.072842" lon="-105.2305748">
  <ele>1591.28</ele>
  <time>2026-08-28T19:10:20Z</time>
  <course>11.83</course>
  <speed>0.01414213562373095</speed>
  <fix>3d</fix>
</trkpt>
<trkpt lat="40.0728418" lon="-105.2305746">
  <ele>1591.34</ele>
  <time>2026-08-28T19:10:20Z</time>
  <course>222.44</course>
  <speed>0.0</speed>
  <fix>3d</fix>
</trkpt>
<trkpt lat="40.072842" lon="-105.2305748">
  <ele>1591.18</ele>
  <time>2026-08-28T19:10:20Z</time>
  <course>11.82</course>
  <speed>0.01414213562373095</speed>
  <fix>3d</fix>
</trkpt>
<trkpt lat="40.0728418" lon="-105.2305746">
  <ele>1591.23</ele>
  <time>2026-08-28T19:10:20Z</time>
  <course>222.47</course>
  <speed>0.0</speed>
  <fix>3d</fix>
</trkpt>
<trkpt lat="40.072842" lon="-105.2305748">
  <ele>1591.08</ele>
  <time>2026-08-28T19:10:20Z</time>
  <course>11.82</course>
  <speed>0.01414213562373095</speed>
  <fix>3d</fix>
</trkpt>
<trkpt lat="40.0728418" lon="-105.2305746">
  <ele>1591.13</ele>
  <time>2026-08-28T19:10:20Z</time>
  <course>227.24</course>
  <speed>0.0</speed>
  <fix>3d</fix>
</trkpt>
<trkpt lat="40.072842" lon="-105.2305748">
  <ele>1590.98</ele>
  <time>2026-08-28T19:10:20Z</time>
  <course>11.82</course>
  <speed>0.01414213562373095</speed>
  <fix>3d</fix>
</trkpt>
<trkpt lat="40.0728418" lon="-105.2305746">
  <ele>1591.03</ele>
  <time>2026-08-28T19:10:20Z</time>
  <course>239.54</course>
  <speed>0.0</speed>
  <fix>3d</fix>
</trkpt>
<trkpt lat="40.072842" lon="-105.2305748">
  <ele>1590.87</ele>
  <time>2026-08-28T19:10:20Z</time>
  <course>11.83</course>
  <speed>0.01414213562373095</speed>
  <fix>3d</fix>
</trkpt>
<trkpt lat="40.0728418" lon="-105.2305746">
  <ele>1590.92</ele>
  <time>2026-08-28T19:10:20Z</time>
  <course>249.87</course>
  <speed>0.0</speed>
  <fix>3d</fix>
</trkpt>
<trkpt lat="40.072842" lon="-105.2305747">
  <ele>1590.77</ele>
  <time>2026-08-28T19:10:20Z</time>
  <course>11.82</course>
  <speed>0.01414213562373095</speed>
  <fix>3d</fix>
</trkpt>
<trkpt lat="40.0728418" lon="-105.2305746">
  <ele>1590.83</ele>
  <time>2026-08-28T19:10:20Z</time>
  <course>260.72</course>
  <speed>0.0</speed>
  <fix>3d</fix>
</trkpt>
<trkpt lat="40.072842" lon="-105.2305747">
  <ele>1590.67</ele>
  <time>2026-08-28T19:10:20Z</time>
  <course>11.81</course>
  <speed>0.01414213562373095</speed>
  <fix>3d</fix>
</trkpt>
<trkpt lat="40.0728418" lon="-105.2305746">
  <ele>1590.72</ele>
  <time>2026-08-28T19:10:20Z</time>
  <course>275.78</course>
  <speed>0.0</speed>
  <fix>3d</fix>
</trkpt>
<trkpt lat="40.072842" lon="-105.2305747">
  <ele>1590.57</ele>
  <time>2026-08-28T19:10:20Z</time>
  <course>11.82</course>
  <speed>0.01414213562373095</speed>
  <fix>3d</fix>
</trkpt>
<trkpt lat="40.0728418" lon="-105.2305746">
  <ele>1590.62</ele>
  <time>2026-08-28T19:10:20Z</time>
  <course>288.98</course>
  <speed>0.0</speed>
  <fix>3d</fix>
</trkpt>
<trkpt lat="40.072842" lon="-105.2305747">
  <ele>1590.47</ele>
  <time>2026-08-28T19:10:20Z</time>
  <course>11.83</course>
  <speed>0.01414213562373095</speed>
  <fix>3d</fix>
</trkpt>
<trkpt lat="40.0728418" lon="-105.2305746">
  <ele>1590.52</ele>
  <time>2026-08-28T19:10:20Z</time>
  <course>293.74</course>
  <speed>0.0</speed>
  <fix>3d</fix>
</trkpt>
<trkpt lat="40.072842" lon="-105.2305748">
  <ele>1590.37</ele>
  <time>2026-08-28T19:10:20Z</time>
  <course>11.83</course>
  <speed>0.01414213562373095</speed>
  <fix>3d</fix>
</trkpt>
<trkpt lat="40.0728418" lon="-105.2305746">
  <ele>1590.41</ele>
  <time>2026-08-28T19:10:20Z</time>
  <course>295.64</course>
  <speed>0.0</speed>
  <fix>3d</fix>
</trkpt>
<trkpt lat="40.072842" lon="-105.2305748">
  <ele>1590.27</ele>
  <time>2026-08-28T19:10:20Z</time>
  <course>11.83</course>
  <speed>0.01414213562373095</speed>
  <fix>3d</fix>
</trkpt>
<trkpt lat="40.0728418" lon="-105.2305746">
  <ele>1590.32</ele>
  <time>2026-08-28T19:10:20Z</time>
  <course>297.85</course>
  <speed>0.0</speed>
  <fix>3d</fix>
</trkpt>
<trkpt lat="40.072842" lon="-105.2305748">
  <ele>1590.17</ele>
  <time>2026-08-28T19:10:20Z</time>
  <course>11.85</course>
  <speed>0.01414213562373095</speed>
  <fix>3d</fix>
</trkpt>
<trkpt lat="40.0728418" lon="-105.2305746">
  <ele>1590.22</ele>
  <time>2026-08-28T19:10:20Z</time>
  <course>301.31</course>
  <speed>0.0</speed>
  <fix>3d</fix>
</trkpt>
<trkpt lat="40.072842" lon="-105.2305748">
  <ele>1590.07</ele>
  <time>2026-08-28T19:10:20Z</time>
  <course>11.84</course>
  <speed>0.01414213562373095</speed>
  <fix>3d</fix>
</trkpt>
<trkpt lat="40.0728418" lon="-105.2305746">
  <ele>1590.12</ele>
  <time>2026-08-28T19:10:20Z</time>
  <course>304.85</course>
  <speed>0.0</speed>
  <fix>3d</fix>
</trkpt>
<trkpt lat="40.072842" lon="-105.2305748">
  <ele>1589.97</ele>
  <time>2026-08-28T19:10:20Z</time>
  <course>11.84</course>
  <speed>0.01414213562373095</speed>
  <fix>3d</fix>
</trkpt>
<trkpt lat="40.0728418" lon="-105.2305746">
  <ele>1590.03</ele>
  <time>2026-08-28T19:10:20Z</time>
  <course>305.82</course>
  <speed>0.0</speed>
  <fix>3d</fix>
</trkpt>
<trkpt lat="40.072842" lon="-105.2305748">
  <ele>1589.87</ele>
  <time>2026-08-28T19:10:20Z</time>
  <course>11.85</course>
  <speed>0.01414213562373095</speed>
  <fix>3d</fix>
</trkpt>
<trkpt lat="40.0728418" lon="-105.2305746">
  <ele>1589.92</ele>
  <time>2026-08-28T19:10:20Z</time>
  <course>307.02</course>
  <speed>0.0</speed>
  <fix>3d</fix>
</trkpt>
<trkpt lat="40.072842" lon="-105.2305748">
  <ele>1589.77</ele>
  <time>2026-08-28T19:10:20Z</time>
  <course>11.85</course>
  <speed>0.01414213562373095</speed>
  <fix>3d</fix>
</trkpt>
<trkpt lat="40.0728418" lon="-105.2305746">
  <ele>1589.83</ele>
  <time>2026-08-28T19:10:20Z</time>
  <course>308.46</course>
  <speed>0.0</speed>
  <fix>3d</fix>
</trkpt>
<trkpt lat="40.072842" lon="-105.2305748">
  <ele>1589.67</ele>
  <time>2026-08-28T19:10:20Z</time>
  <course>11.86</course>
  <speed>0.01414213562373095</speed>
  <fix>3d</fix>
</trkpt>
<trkpt lat="40.0728418" lon="-105.2305746">
  <ele>1589.73</ele>
  <time>2026-08-28T19:10:20Z</time>
  <course>308.89</course>
  <speed>0.0</speed>
  <fix>3d</fix>
</trkpt>
<trkpt lat="40.072842" lon="-105.2305748">
  <ele>1589.57</ele>
  <time>2026-08-28T19:10:20Z</time>
  <course>11.87</course>
  <speed>0.01414213562373095</speed>
  <fix>3d</fix>
</trkpt>
<trkpt lat="40.0728418" lon="-105.2305746">
  <ele>1589.63</ele>
  <time>2026-08-28T19:10:20Z</time>
  <course>308.39</course>
  <speed>0.0</speed>
  <fix>3d</fix>
</trkpt>
<trkpt lat="40.072842" lon="-105.2305748">
  <ele>1589.47</ele>
  <time>2026-08-28T19:10:20Z</time>
  <course>11.86</course>
  <speed>0.01414213562373095</speed>
  <fix>3d</fix>
</trkpt>
<trkpt lat="40.0728418" lon="-105.2305746">
  <ele>1589.52</ele>
  <time>2026-08-28T19:10:20Z</time>
  <course>309.57</course>
  <speed>0.0</speed>
  <fix>3d</fix>
</trkpt>
<trkpt lat="40.072842" lon="-105.2305748">
  <ele>1589.37</ele>
  <time>2026-08-28T19:10:20Z</time>
  <course>11.85</course>
  <speed>0.01414213562373095</speed>
  <fix>3d</fix>
</trkpt>
<trkpt lat="40.0728418" lon="-105.2305746">
  <ele>1589.41</ele>
  <time>2026-08-28T19:10:20Z</time>
  <course>311.16</course>
  <speed>0.0</speed>
  <fix>3d</fix>
</trkpt>
<trkpt lat="40.072842" lon="-105.2305748">
  <ele>1589.27</ele>
  <time>2026-08-28T19:10:20Z</time>
  <course>11.87</course>
  <speed>0.01414213562373095</speed>
  <fix>3d</fix>
</trkpt>
<trkpt lat="40.0728418" lon="-105.2305747">
  <ele>1589.32</ele>
  <time>2026-08-28T19:10:20Z</time>
  <course>309.94</course>
  <speed>0.0</speed>
  <fix>3d</fix>
</trkpt>
<trkpt lat="40.072842" lon="-105.2305748">
  <ele>1589.17</ele>
  <time>2026-08-28T19:10:20Z</time>
  <course>11.87</course>
  <speed>0.01414213562373095</speed>
  <fix>3d</fix>
</trkpt>
<trkpt lat="40.0728418" lon="-105.2305748">
  <ele>1589.22</ele>
  <time>2026-08-28T19:10:20Z</time>
  <course>306.36</course>
  <speed>0.0</speed>
  <fix>3d</fix>
</trkpt>
<trkpt lat="40.072842" lon="-105.2305748">
  <ele>1589.07</ele>
  <time>2026-08-28T19:10:20Z</time>
  <course>11.88</course>
  <speed>0.01414213562373095</speed>
  <fix>3d</fix>
</trkpt>
<trkpt lat="40.0728418" lon="-105.2305748">
  <ele>1589.12</ele>
  <time>2026-08-28T19:10:20Z</time>
  <course>303.81</course>
  <speed>0.0</speed>
  <fix>3d</fix>
</trkpt>
<trkpt lat="40.072842" lon="-105.2305748">
  <ele>1588.97</ele>
  <time>2026-08-28T19:10:20Z</time>
  <course>11.85</course>
  <speed>0.01414213562373095</speed>
  <fix>3d</fix>
</trkpt>
<trkpt lat="40.0728418" lon="-105.2305748">
  <ele>1589.02</ele>
  <time>2026-08-28T19:10:20Z</time>
  <course>306.58</course>
  <speed>0.0</speed>
  <fix>3d</fix>
</trkpt>
<trkpt lat="40.072842" lon="-105.2305748">
  <ele>1588.87</ele>
  <time>2026-08-28T19:10:20Z</time>
  <course>11.88</course>
  <speed>0.01414213562373095</speed>
  <fix>3d</fix>
</trkpt>
<trkpt lat="40.0728418" lon="-105.2305748">
  <ele>1588.91</ele>
  <time>2026-08-28T19:10:20Z</time>
  <course>314.59</course>
  <speed>0.0</speed>
  <fix>3d</fix>
</trkpt>
<trkpt lat="40.072842" lon="-105.2305748">
  <ele>1588.77</ele>
  <time>2026-08-28T19:10:20Z</time>
  <course>11.88</course>
  <speed>0.01414213562373095</speed>
  <fix>3d</fix>
</trkpt>
<trkpt lat="40.0728418" lon="-105.2305748">
  <ele>1588.82</ele>
  <time>2026-08-28T19:10:20Z</time>
  <course>329.03</course>
  <speed>0.0</speed>
  <fix>3d</fix>
</trkpt>
<trkpt lat="40.072842" lon="-105.2305748">
  <ele>1588.67</ele>
  <time>2026-08-28T19:10:20Z</time>
  <course>11.86</course>
  <speed>0.01414213562373095</speed>
  <fix>3d</fix>
</trkpt>
<trkpt lat="40.0728418" lon="-105.2305748">
  <ele>1588.72</ele>
  <time>2026-08-28T19:10:20Z</time>
  <course>0.96</course>
  <speed>0.0</speed>
  <fix>3d</fix>
</trkpt>
<trkpt lat="40.072842" lon="-105.2305748">
  <ele>1588.56</ele>
  <time>2026-08-28T19:10:20Z</time>
  <course>11.89</course>
  <speed>0.01414213562373095</speed>
  <fix>3d</fix>
</trkpt>
<trkpt lat="40.0728418" lon="-105.2305748">
  <ele>1588.63</ele>
  <time>2026-08-28T19:10:20Z</time>
  <course>30.19</course>
  <speed>0.0</speed>
  <fix>3d</fix>
</trkpt>
<trkpt lat="40.072842" lon="-105.2305748">
  <ele>1588.47</ele>
  <time>2026-08-28T19:10:20Z</time>
  <course>11.86</course>
  <speed>0.01414213562373095</speed>
  <fix>3d</fix>
</trkpt>
<trkpt lat="40.0728418" lon="-105.2305748">
  <ele>1588.53</ele>
  <time>2026-08-28T19:10:20Z</time>
  <course>45.43</course>
  <speed>0.0</speed>
  <fix>3d</fix>
</trkpt>
<trkpt lat="40.072842" lon="-105.2305748">
  <ele>1588.37</ele>
  <time>2026-08-28T19:10:20Z</time>
  <course>11.87</course>
  <speed>0.01414213562373095</speed>
  <fix>3d</fix>
</trkpt>
<trkpt lat="40.0728418" lon="-105.2305748">
  <ele>1588.42</ele>
  <time>2026-08-28T19:10:20Z</time>
  <course>54.55</course>
  <speed>0.0</speed>
  <fix>3d</fix>
</trkpt>
<trkpt lat="40.072842" lon="-105.2305748">
  <ele>1588.27</ele>
  <time>2026-08-28T19:10:20Z</time>
  <course>11.88</course>
  <speed>0.01414213562373095</speed>
  <fix>3d</fix>
</trkpt>
<trkpt lat="40.0728418" lon="-105.2305748">
  <ele>1588.33</ele>
  <time>2026-08-28T19:10:20Z</time>
  <course>59.38</course>
  <speed>0.0</speed>
  <fix>3d</fix>
</trkpt>
<trkpt lat="40.072842" lon="-105.2305748">
  <ele>1588.17</ele>
  <time>2026-08-28T19:10:20Z</time>
  <course>11.9</course>
  <speed>0.01414213562373095</speed>
  <fix>3d</fix>
</trkpt>
<trkpt lat="40.0728418" lon="-105.2305748">
  <ele>1588.23</ele>
  <time>2026-08-28T19:10:20Z</time>
  <course>64.39</course>
  <speed>0.0</speed>
  <fix>3d</fix>
</trkpt>
<trkpt lat="40.072842" lon="-105.2305748">
  <ele>1588.07</ele>
  <time>2026-08-28T19:10:20Z</time>
  <course>11.91</course>
  <speed>0.01414213562373095</speed>
  <fix>3d</fix>
</trkpt>
<trkpt lat="40.0728418" lon="-105.2305748">
  <ele>1588.13</ele>
  <time>2026-08-28T19:10:20Z</time>
  <course>67.52</course>
  <speed>0.0</speed>
  <fix>3d</fix>
</trkpt>
<trkpt lat="40.072842" lon="-105.2305748">
  <ele>1587.98</ele>
  <time>2026-08-28T19:10:20Z</time>
  <course>11.9</course>
  <speed>0.01414213562373095</speed>
  <fix>3d</fix>
</trkpt>
<trkpt lat="40.0728418" lon="-105.2305748">
  <ele>1588.03</ele>
  <time>2026-08-28T19:10:20Z</time>
  <course>70.7</course>
  <speed>0.0</speed>
  <fix>3d</fix>
</trkpt>
<trkpt lat="40.072842" lon="-105.2305748">
  <ele>1587.87</ele>
  <time>2026-08-28T19:10:20Z</time>
  <course>11.9</course>
  <speed>0.01414213562373095</speed>
  <fix>3d</fix>
</trkpt>
<trkpt lat="40.0728418" lon="-105.2305748">
  <ele>1587.92</ele>
  <time>2026-08-28T19:10:20Z</time>
  <course>74.26</course>
  <speed>0.0</speed>
  <fix>3d</fix>
</trkpt>
<trkpt lat="40.072842" lon="-105.2305748">
  <ele>1587.77</ele>
  <time>2026-08-28T19:10:20Z</time>
  <course>11.91</course>
  <speed>0.01414213562373095</speed>
  <fix>3d</fix>
</trkpt>
<trkpt lat="40.0728418" lon="-105.2305748">
  <ele>1587.83</ele>
  <time>2026-08-28T19:10:20Z</time>
  <course>76.61</course>
  <speed>0.0</speed>
  <fix>3d</fix>
</trkpt>
<trkpt lat="40.072842" lon="-105.2305748">
  <ele>1587.67</ele>
  <time>2026-08-28T19:10:20Z</time>
  <course>11.92</course>
  <speed>0.01414213562373095</speed>
  <fix>3d</fix>
</trkpt>
<trkpt lat="40.0728418" lon="-105.2305748">
  <ele>1587.73</ele>
  <time>2026-08-28T19:10:20Z</time>
  <course>77.98</course>
  <speed>0.0</speed>
  <fix>3d</fix>
</trkpt>
<trkpt lat="40.072842" lon="-105.2305748">
  <ele>1587.57</ele>
  <time>2026-08-28T19:10:20Z</time>
  <course>11.9</course>
  <speed>0.01414213562373095</speed>
  <fix>3d</fix>
</trkpt>
<trkpt lat="40.0728418" lon="-105.2305748">
  <ele>1587.63</ele>
  <time>2026-08-28T19:10:20Z</time>
  <course>78.92</course>
  <speed>0.0</speed>
  <fix>3d</fix>
</trkpt>
<trkpt lat="40.072842" lon="-105.2305748">
  <ele>1587.47</ele>
  <time>2026-08-28T19:10:20Z</time>
  <course>11.92</course>
  <speed>0.01414213562373095</speed>
  <fix>3d</fix>
</trkpt>
<trkpt lat="40.0728418" lon="-105.2305747">
  <ele>1587.53</ele>
  <time>2026-08-28T19:10:20Z</time>
  <course>78.91</course>
  <speed>0.0</speed>
  <fix>3d</fix>
</trkpt>
<trkpt lat="40.072842" lon="-105.2305748">
  <ele>1587.37</ele>
  <time>2026-08-28T19:10:20Z</time>
  <course>11.91</course>
  <speed>0.01414213562373095</speed>
  <fix>3d</fix>
</trkpt>
<trkpt lat="40.0728418" lon="-105.2305746">
  <ele>1587.42</ele>
  <time>2026-08-28T19:10:20Z</time>
  <course>78.24</course>
  <speed>0.0</speed>
  <fix>3d</fix>
</trkpt>
<trkpt lat="40.072842" lon="-105.2305748">
  <ele>1587.27</ele>
  <time>2026-08-28T19:10:20Z</time>
  <course>11.91</course>
  <speed>0.01414213562373095</speed>
  <fix>3d</fix>
</trkpt>
<trkpt lat="40.0728419" lon="-105.2305746">
  <ele>1587.33</ele>
  <time>2026-08-28T19:10:20Z</time>
  <course>77.44</course>
  <speed>0.0</speed>
  <fix>3d</fix>
</trkpt>
<trkpt lat="40.072842" lon="-105.2305748">
  <ele>1587.17</ele>
  <time>2026-08-28T19:10:20Z</time>
  <course>11.89</course>
  <speed>0.01414213562373095</speed>
  <fix>3d</fix>
</trkpt>
<trkpt lat="40.0728419" lon="-105.2305746">
  <ele>1587.23</ele>
  <time>2026-08-28T19:10:20Z</time>
  <course>76.4</course>
  <speed>0.0</speed>
  <fix>3d</fix>
</trkpt>
<trkpt lat="40.072842" lon="-105.2305748">
  <ele>1587.07</ele>
  <time>2026-08-28T19:10:20Z</time>
  <course>11.9</course>
  <speed>0.01414213562373095</speed>
  <fix>3d</fix>
</trkpt>
<trkpt lat="40.0728419" lon="-105.2305746">
  <ele>1587.13</ele>
  <time>2026-08-28T19:10:20Z</time>
  <course>75.68</course>
  <speed>0.0</speed>
  <fix>3d</fix>
</trkpt>
<trkpt lat="40.072842" lon="-105.2305748">
  <ele>1586.97</ele>
  <time>2026-08-28T19:10:20Z</time>
  <course>11.9</course>
  <speed>0.01414213562373095</speed>
  <fix>3d</fix>
</trkpt>
<trkpt lat="40.0728419" lon="-105.2305746">
  <ele>1587.03</ele>
  <time>2026-08-28T19:10:20Z</time>
  <course>76.98</course>
  <speed>0.0</speed>
  <fix>3d</fix>
</trkpt>
<trkpt lat="40.072842" lon="-105.2305748">
  <ele>1586.87</ele>
  <time>2026-08-28T19:10:20Z</time>
  <course>11.91</course>
  <speed>0.01414213562373095</speed>
  <fix>3d</fix>
</trkpt>
<trkpt lat="40.0728419" lon="-105.2305746">
  <ele>1586.92</ele>
  <time>2026-08-28T19:10:20Z</time>
  <course>83.34</course>
  <speed>0.0</speed>
  <fix>3d</fix>
</trkpt>
<trkpt lat="40.072842" lon="-105.2305748">
  <ele>1586.77</ele>
  <time>2026-08-28T19:10:20Z</time>
  <course>11.92</course>
  <speed>0.01414213562373095</speed>
  <fix>3d</fix>
</trkpt>
<trkpt lat="40.0728419" lon="-105.2305746">
  <ele>1586.83</ele>
  <time>2026-08-28T19:10:20Z</time>
  <course>94.71</course>
  <speed>0.0</speed>
  <fix>3d</fix>
</trkpt>
<trkpt lat="40.072842" lon="-105.2305748">
  <ele>1586.67</ele>
  <time>2026-08-28T19:10:20Z</time>
  <course>11.93</course>
  <speed>0.01414213562373095</speed>
  <fix>3d</fix>
</trkpt>
<trkpt lat="40.0728419" lon="-105.2305746">
  <ele>1586.73</ele>
  <time>2026-08-28T19:10:20Z</time>
  <course>119.66</course>
  <speed>0.0</speed>
  <fix>3d</fix>
</trkpt>
<trkpt lat="40.072842" lon="-105.2305748">
  <ele>1586.57</ele>
  <time>2026-08-28T19:10:20Z</time>
  <course>11.92</course>
  <speed>0.01414213562373095</speed>
  <fix>3d</fix>
</trkpt>
<trkpt lat="40.0728419" lon="-105.2305746">
  <ele>1586.63</ele>
  <time>2026-08-28T19:10:20Z</time>
  <course>152.08</course>
  <speed>0.0</speed>
  <fix>3d</fix>
</trkpt>
<trkpt lat="40.072842" lon="-105.2305748">
  <ele>1586.47</ele>
  <time>2026-08-28T19:10:20Z</time>
  <course>11.92</course>
  <speed>0.01414213562373095</speed>
  <fix>3d</fix>
</trkpt>
<trkpt lat="40.0728419" lon="-105.2305746">
  <ele>1586.53</ele>
  <time>2026-08-28T19:10:20Z</time>
  <course>173.25</course>
  <speed>0.0</speed>
  <fix>3d</fix>
</trkpt>
<trkpt lat="40.072842" lon="-105.2305748">
  <ele>1586.38</ele>
  <time>2026-08-28T19:10:20Z</time>
  <course>11.94</course>
  <speed>0.01414213562373095</speed>
  <fix>3d</fix>
</trkpt>
<trkpt lat="40.0728419" lon="-105.2305746">
  <ele>1586.42</ele>
  <time>2026-08-28T19:10:20Z</time>
  <course>183.09</course>
  <speed>0.0</speed>
  <fix>3d</fix>
</trkpt>
<trkpt lat="40.072842" lon="-105.2305748">
  <ele>1586.28</ele>
  <time>2026-08-28T19:10:20Z</time>
  <course>11.95</course>
  <speed>0.01414213562373095</speed>
  <fix>3d</fix>
</trkpt>
<trkpt lat="40.0728419" lon="-105.2305746">
  <ele>1586.33</ele>
  <time>2026-08-28T19:10:20Z</time>
  <course>187.06</course>
  <speed>0.0</speed>
  <fix>3d</fix>
</trkpt>
<trkpt lat="40.072842" lon="-105.2305748">
  <ele>1586.18</ele>
  <time>2026-08-28T19:10:20Z</time>
  <course>11.94</course>
  <speed>0.01414213562373095</speed>
  <fix>3d</fix>
</trkpt>
<trkpt lat="40.0728419" lon="-105.2305746">
  <ele>1586.23</ele>
  <time>2026-08-28T19:10:20Z</time>
  <course>189.86</course>
  <speed>0.0</speed>
  <fix>3d</fix>
</trkpt>
<trkpt lat="40.072842" lon="-105.2305748">
  <ele>1586.13</ele>
  <time>2026-08-28T19:10:20Z</time>
  <course>11.94</course>
  <speed>0.03605551275463989</speed>
  <fix>3d</fix>
</trkpt>
<trkpt lat="40.0728419" lon="-105.2305746">
  <ele>1586.13</ele>
  <time>2026-08-28T19:10:20Z</time>
  <course>243.42</course>
  <speed>0.0</speed>
  <fix>3d</fix>
</trkpt>
<trkpt lat="40.072842" lon="-105.2305748">
  <ele>1586.16</ele>
  <time>2026-08-28T19:10:20Z</time>
  <course>11.98</course>
  <speed>0.022360679774997897</speed>
  <fix>3d</fix>
</trkpt>
<trkpt lat="40.0728419" lon="-105.2305746">
  <ele>1586.08</ele>
  <time>2026-08-28T19:10:20Z</time>
  <course>281.48</course>
  <speed>0.01</speed>
  <fix>3d</fix>
</trkpt>
<trkpt lat="40.072842" lon="-105.2305748">
  <ele>1586.15</ele>
  <time>2026-08-28T19:10:20Z</time>
  <course>12.02</course>
  <speed>0.01414213562373095</speed>
  <fix>3d</fix>
</trkpt>
<trkpt lat="40.0728419" lon="-105.2305746">
  <ele>1586.09</ele>
  <time>2026-08-28T19:10:20Z</time>
  <course>316.03</course>
  <speed>0.0</speed>
  <fix>3d</fix>
</trkpt>
<trkpt lat="40.072842" lon="-105.2305748">
  <ele>1586.15</ele>
  <time>2026-08-28T19:10:20Z</time>
  <course>12.06</course>
  <speed>0.022360679774997897</speed>
  <fix>3d</fix>
</trkpt>
<trkpt lat="40.0728419" lon="-105.2305746">
  <ele>1586.1</ele>
  <time>2026-08-28T19:10:20Z</time>
  <course>88.76</course>
  <speed>0.0</speed>
  <fix>3d</fix>
</trkpt>
<trkpt lat="40.072842" lon="-105.2305748">
  <ele>1586.15</ele>
  <time>2026-08-28T19:10:20Z</time>
  <course>12.09</course>
  <speed>0.022360679774997897</speed>
  <fix>3d</fix>
</trkpt>
<trkpt lat="40.0728419" lon="-105.2305746">
  <ele>1586.1</ele>
  <time>2026-08-28T19:10:20Z</time>
  <course>140.19</course>
  <speed>0.0</speed>
  <fix>3d</fix>
</trkpt>
<trkpt lat="40.072842" lon="-105.2305748">
  <ele>1586.15</ele>
  <time>2026-08-28T19:10:20Z</time>
  <course>12.12</course>
  <speed>0.022360679774997897</speed>
  <fix>3d</fix>
</trkpt>
<trkpt lat="40.0728419" lon="-105.2305746">
  <ele>1586.1</ele>
  <time>2026-08-28T19:10:20Z</time>
  <course>333.23</course>
  <speed>0.0</speed>
  <fix>3d</fix>
</trkpt>
<trkpt lat="40.072842" lon="-105.2305748">
  <ele>1586.15</ele>
  <time>2026-08-28T19:10:20Z</time>
  <course>12.14</course>
  <speed>0.022360679774997897</speed>
  <fix>3d</fix>
</trkpt>
<trkpt lat="40.0728419" lon="-105.2305746">
  <ele>1586.1</ele>
  <time>2026-08-28T19:10:20Z</time>
  <course>7.6</course>
  <speed>0.0</speed>
  <fix>3d</fix>
</trkpt>
<trkpt lat="40.072842" lon="-105.2305748">
  <ele>1586.15</ele>
  <time>2026-08-28T19:10:20Z</time>
  <course>12.17</course>
  <speed>0.022360679774997897</speed>
  <fix>3d</fix>
</trkpt>
<trkpt lat="40.0728419" lon="-105.2305746">
  <ele>1586.1</ele>
  <time>2026-08-28T19:10:20Z</time>
  <course>60.44</course>
  <speed>0.0</speed>
  <fix>3d</fix>
</trkpt>
<trkpt lat="40.072842" lon="-105.2305748">
  <ele>1586.15</ele>
  <time>2026-08-28T19:10:20Z</time>
  <course>12.19</course>
  <speed>0.022360679774997897</speed>
  <fix>3d</fix>
</trkpt>
<trkpt lat="40.0728419" lon="-105.2305746">
  <ele>1586.1</ele>
  <time>2026-08-28T19:10:20Z</time>
  <course>62.15</course>
  <speed>0.0</speed>
  <fix>3d</fix>
</trkpt>
<trkpt lat="40.072842" lon="-105.2305748">
  <ele>1586.15</ele>
  <time>2026-08-28T19:10:20Z</time>
  <course>12.21</course>
  <speed>0.022360679774997897</speed>
  <fix>3d</fix>
</trkpt>
<trkpt lat="40.0728419" lon="-105.2305746">
  <ele>1586.1</ele>
  <time>2026-08-28T19:10:20Z</time>
  <course>12.69</course>
  <speed>0.0</speed>
  <fix>3d</fix>
</trkpt>
<trkpt lat="40.072842" lon="-105.2305748">
  <ele>1586.15</ele>
  <time>2026-08-28T19:10:20Z</time>
  <course>12.23</course>
  <speed>0.01</speed>
  <fix>3d</fix>
</trkpt>
<trkpt lat="40.0728419" lon="-105.2305746">
  <ele>1586.1</ele>
  <time>2026-08-28T19:10:20Z</time>
  <course>86.18</course>
  <speed>0.0</speed>
  <fix>3d</fix>
</trkpt>
<trkpt lat="40.072842" lon="-105.2305748">
  <ele>1586.15</ele>
  <time>2026-08-28T19:10:20Z</time>
  <course>12.21</course>
  <speed>0.01</speed>
  <fix>3d</fix>
</trkpt>
<trkpt lat="40.0728419" lon="-105.2305746">
  <ele>1586.1</ele>
  <time>2026-08-28T19:10:20Z</time>
  <course>105.25</course>
  <speed>0.0</speed>
  <fix>3d</fix>
</trkpt>
<trkpt lat="40.072842" lon="-105.2305748">
  <ele>1586.15</ele>
  <time>2026-08-28T19:10:20Z</time>
  <course>12.19</course>
  <speed>0.01414213562373095</speed>
  <fix>3d</fix>
</trkpt>
<trkpt lat="40.0728419" lon="-105.2305746">
  <ele>1586.1</ele>
  <time>2026-08-28T19:10:20Z</time>
  <course>109.24</course>
  <speed>0.0</speed>
  <fix>3d</fix>
</trkpt>
<trkpt lat="40.072842" lon="-105.2305748">
  <ele>1586.15</ele>
  <time>2026-08-28T19:10:20Z</time>
  <course>12.18</course>
  <speed>0.01414213562373095</speed>
  <fix>3d</fix>
</trkpt>
<trkpt lat="40.0728419" lon="-105.2305746">
  <ele>1586.1</ele>
  <time>2026-08-28T19:10:20Z</time>
  <course>137.27</course>
  <speed>0.0</speed>
  <fix>3d</fix>
</trkpt>
<trkpt lat="40.072842" lon="-105.2305748">
  <ele>1586.15</ele>
  <time>2026-08-28T19:10:20Z</time>
  <course>12.17</course>
  <speed>0.01414213562373095</speed>
  <fix>3d</fix>
</trkpt>
<trkpt lat="40.0728419" lon="-105.2305746">
  <ele>1586.1</ele>
  <time>2026-08-28T19:10:20Z</time>
  <course>259.96</course>
  <speed>0.0</speed>
  <fix>3d</fix>
</trkpt>
<trkpt lat="40.072842" lon="-105.2305748">
  <ele>1586.14</ele>
  <time>2026-08-28T19:10:20Z</time>
  <course>12.17</course>
  <speed>0.01414213562373095</speed>
  <fix>3d</fix>
</trkpt>
<trkpt lat="40.0728419" lon="-105.2305746">
  <ele>1586.1</ele>
  <time>2026-08-28T19:10:20Z</time>
  <course>246.98</course>
  <speed>0.0</speed>
  <fix>3d</fix>
</trkpt>
<trkpt lat="40.072842" lon="-105.2305748">
  <ele>1586.14</ele>
  <time>2026-08-28T19:10:20Z</time>
  <course>12.16</course>
  <speed>0.01414213562373095</speed>
  <fix>3d</fix>
</trkpt>
<trkpt lat="40.0728419" lon="-105.2305746">
  <ele>1586.1</ele>
  <time>2026-08-28T19:10:20Z</time>
  <course>235.21</course>
  <speed>0.0</speed>
  <fix>3d</fix>
</trkpt>
<trkpt lat="40.072842" lon="-105.2305748">
  <ele>1586.14</ele>
  <time>2026-08-28T19:10:20Z</time>
  <course>12.16</course>
  <speed>0.022360679774997897</speed>
  <fix>3d</fix>
</trkpt>
<trkpt lat="40.0728419" lon="-105.2305746">
  <ele>1586.1</ele>
  <time>2026-08-28T19:10:20Z</time>
  <course>238.51</course>
  <speed>0.0</speed>
  <fix>3d</fix>
</trkpt>
<trkpt lat="40.072842" lon="-105.2305748">
  <ele>1586.14</ele>
  <time>2026-08-28T19:10:20Z</time>
  <course>12.16</course>
  <speed>0.022360679774997897</speed>
  <fix>3d</fix>
</trkpt>
<trkpt lat="40.0728419" lon="-105.2305746">
  <ele>1586.1</ele>
  <time>2026-08-28T19:10:20Z</time>
  <course>246.38</course>
  <speed>0.0</speed>
  <fix>3d</fix>
</trkpt>
<trkpt lat="40.072842" lon="-105.2305748">
  <ele>1586.14</ele>
  <time>2026-08-28T19:10:20Z</time>
  <course>12.16</course>
  <speed>0.022360679774997897</speed>
  <fix>3d</fix>
</trkpt>
<trkpt lat="40.0728419" lon="-105.2305746">
  <ele>1586.1</ele>
  <time>2026-08-28T19:10:20Z</time>
  <course>197.23</course>
  <speed>0.0</speed>
  <fix>3d</fix>
</trkpt>
<trkpt lat="40.072842" lon="-105.2305748">
  <ele>1586.14</ele>
  <time>2026-08-28T19:10:20Z</time>
  <course>12.16</course>
  <speed>0.022360679774997897</speed>
  <fix>3d</fix>
</trkpt>
<trkpt lat="40.0728419" lon="-105.2305746">
  <ele>1586.1</ele>
  <time>2026-08-28T19:10:20Z</time>
  <course>209.25</course>
  <speed>0.0</speed>
  <fix>3d</fix>
</trkpt>
<trkpt lat="40.072842" lon="-105.2305748">
  <ele>1586.14</ele>
  <time>2026-08-28T19:10:20Z</time>
  <course>12.15</course>
  <speed>0.022360679774997897</speed>
  <fix>3d</fix>
</trkpt>
<trkpt lat="40.0728419" lon="-105.2305746">
  <ele>1586.1</ele>
  <time>2026-08-28T19:10:20Z</time>
  <course>337.84</course>
  <speed>0.0</speed>
  <fix>3d</fix>
</trkpt>
<trkpt lat="40.072842" lon="-105.2305748">
  <ele>1586.14</ele>
  <time>2026-08-28T19:10:21Z</time>
  <course>12.15</course>
  <speed>0.022360679774997897</speed>
  <fix>3d</fix>
</trkpt>
<trkpt lat="40.0728419" lon="-105.2305746">
  <ele>1586.1</ele>
  <time>2026-08-28T19:10:21Z</time>
  <course>303.38</course>
  <speed>0.0</speed>
  <fix>3d</fix>
</trkpt>
<trkpt lat="40.072842" lon="-105.2305748">
  <ele>1586.14</ele>
  <time>2026-08-28T19:10:21Z</time>
  <course>12.15</course>
  <speed>0.022360679774997897</speed>
  <fix>3d</fix>
</trkpt>
<trkpt lat="40.0728419" lon="-105.2305746">
  <ele>1586.1</ele>
  <time>2026-08-28T19:10:21Z</time>
  <course>253.69</course>
  <speed>0.0</speed>
  <fix>3d</fix>
</trkpt>
<trkpt lat="40.072842" lon="-105.2305748">
  <ele>1586.14</ele>
  <time>2026-08-28T19:10:21Z</time>
  <course>12.15</course>
  <speed>0.022360679774997897</speed>
  <fix>3d</fix>
</trkpt>
<trkpt lat="40.0728419" lon="-105.2305746">
  <ele>1586.1</ele>
  <time>2026-08-28T19:10:21Z</time>
  <course>258.71</course>
  <speed>0.0</speed>
  <fix>3d</fix>
</trkpt>
<trkpt lat="40.072842" lon="-105.2305748">
  <ele>1586.14</ele>
  <time>2026-08-28T19:10:21Z</time>
  <course>12.15</course>
  <speed>0.022360679774997897</speed>
  <fix>3d</fix>
</trkpt>
<trkpt lat="40.0728419" lon="-105.2305746">
  <ele>1586.1</ele>
  <time>2026-08-28T19:10:21Z</time>
  <course>262.67</course>
  <speed>0.0</speed>
  <fix>3d</fix>
</trkpt>
<trkpt lat="40.072842" lon="-105.2305748">
  <ele>1586.14</ele>
  <time>2026-08-28T19:10:21Z</time>
  <course>12.15</course>
  <speed>0.022360679774997897</speed>
  <fix>3d</fix>
</trkpt>
<trkpt lat="40.0728419" lon="-105.2305746">
  <ele>1586.1</ele>
  <time>2026-08-28T19:10:21Z</time>
  <course>255.91</course>
  <speed>0.0</speed>
  <fix>3d</fix>
</trkpt>
<trkpt lat="40.072842" lon="-105.2305748">
  <ele>1586.14</ele>
  <time>2026-08-28T19:10:21Z</time>
  <course>12.14</course>
  <speed>0.022360679774997897</speed>
  <fix>3d</fix>
</trkpt>
<trkpt lat="40.0728419" lon="-105.2305746">
  <ele>1586.1</ele>
  <time>2026-08-28T19:10:21Z</time>
  <course>250.57</course>
  <speed>0.0</speed>
  <fix>3d</fix>
</trkpt>
<trkpt lat="40.072842" lon="-105.2305748">
  <ele>1586.14</ele>
  <time>2026-08-28T19:10:21Z</time>
  <course>12.14</course>
  <speed>0.022360679774997897</speed>
  <fix>3d</fix>
</trkpt>
<trkpt lat="40.0728419" lon="-105.2305746">
  <ele>1586.1</ele>
  <time>2026-08-28T19:10:21Z</time>
  <course>246.19</course>
  <speed>0.0</speed>
  <fix>3d</fix>
</trkpt>
<trkpt lat="40.072842" lon="-105.2305748">
  <ele>1586.15</ele>
  <time>2026-08-28T19:10:21Z</time>
  <course>12.14</course>
  <speed>0.022360679774997897</speed>
  <fix>3d</fix>
</trkpt>
<trkpt lat="40.0728419" lon="-105.2305746">
  <ele>1586.1</ele>
  <time>2026-08-28T19:10:21Z</time>
  <course>240.91</course>
  <speed>0.0</speed>
  <fix>3d</fix>
</trkpt>
<trkpt lat="40.072842" lon="-105.2305748">
  <ele>1586.15</ele>
  <time>2026-08-28T19:10:21Z</time>
  <course>12.14</course>
  <speed>0.022360679774997897</speed>
  <fix>3d</fix>
</trkpt>
<trkpt lat="40.0728419" lon="-105.2305746">
  <ele>1586.1</ele>
  <time>2026-08-28T19:10:21Z</time>
  <course>235.13</course>
  <speed>0.0</speed>
  <fix>3d</fix>
</trkpt>
<trkpt lat="40.072842" lon="-105.2305748">
  <ele>1586.15</ele>
  <time>2026-08-28T19:10:21Z</time>
  <course>12.14</course>
  <speed>0.022360679774997897</speed>
  <fix>3d</fix>
</trkpt>
<trkpt lat="40.0728419" lon="-105.2305746">
  <ele>1586.1</ele>
  <time>2026-08-28T19:10:21Z</time>
  <course>229.22</course>
  <speed>0.0</speed>
  <fix>3d</fix>
</trkpt>
<trkpt lat="40.072842" lon="-105.2305748">
  <ele>1586.16</ele>
  <time>2026-08-28T19:10:21Z</time>
  <course>12.14</course>
  <speed>0.022360679774997897</speed>
  <fix>3d</fix>
</trkpt>
<trkpt lat="40.0728419" lon="-105.2305746">
  <ele>1586.1</ele>
  <time>2026-08-28T19:10:21Z</time>
  <course>223.26</course>
  <speed>0.0</speed>
  <fix>3d</fix>
</trkpt>
<trkpt lat="40.072842" lon="-105.2305748">
  <ele>1586.16</ele>
  <time>2026-08-28T19:10:21Z</time>
  <course>12.13</course>
  <speed>0.022360679774997897</speed>
  <fix>3d</fix>
</trkpt>
<trkpt lat="40.0728419" lon="-105.2305746">
  <ele>1586.1</ele>
  <time>2026-08-28T19:10:21Z</time>
  <course>217.38</course>
  <speed>0.0</speed>
  <fix>3d</fix>
</trkpt>
<trkpt lat="40.072842" lon="-105.2305748">
  <ele>1586.16</ele>
  <time>2026-08-28T19:10:21Z</time>
  <course>12.13</course>
  <speed>0.022360679774997897</speed>
  <fix>3d</fix>
</trkpt>
<trkpt lat="40.0728419" lon="-105.2305746">
  <ele>1586.1</ele>
  <time>2026-08-28T19:10:21Z</time>
  <course>211.73</course>
  <speed>0.0</speed>
  <fix>3d</fix>
</trkpt>
<trkpt lat="40.072842" lon="-105.2305748">
  <ele>1586.16</ele>
  <time>2026-08-28T19:10:21Z</time>
  <course>12.13</course>
  <speed>0.022360679774997897</speed>
  <fix>3d</fix>
</trkpt>
<trkpt lat="40.0728419" lon="-105.2305746">
  <ele>1586.1</ele>
  <time>2026-08-28T19:10:21Z</time>
  <course>206.44</course>
  <speed>0.0</speed>
  <fix>3d</fix>
</trkpt>
<trkpt lat="40.072842" lon="-105.2305748">
  <ele>1586.16</ele>
  <time>2026-08-28T19:10:21Z</time>
  <course>12.13</course>
  <speed>0.022360679774997897</speed>
  <fix>3d</fix>
</trkpt>
<trkpt lat="40.0728419" lon="-105.2305746">
  <ele>1586.1</ele>
  <time>2026-08-28T19:10:21Z</time>
  <course>201.56</course>
  <speed>0.0</speed>
  <fix>3d</fix>
</trkpt>
<trkpt lat="40.072842" lon="-105.2305748">
  <ele>1586.16</ele>
  <time>2026-08-28T19:10:21Z</time>
  <course>12.13</course>
  <speed>0.022360679774997897</speed>
  <fix>3d</fix>
</trkpt>
<trkpt lat="40.0728419" lon="-105.2305746">
  <ele>1586.1</ele>
  <time>2026-08-28T19:10:21Z</time>
  <course>197.14</course>
  <speed>0.0</speed>
  <fix>3d</fix>
</trkpt>
<trkpt lat="40.072842" lon="-105.2305748">
  <ele>1586.16</ele>
  <time>2026-08-28T19:10:21Z</time>
  <course>12.13</course>
  <speed>0.022360679774997897</speed>
  <fix>3d</fix>
</trkpt>
<trkpt lat="40.0728419" lon="-105.2305746">
  <ele>1586.1</ele>
  <time>2026-08-28T19:10:21Z</time>
  <course>193.16</course>
  <speed>0.0</speed>
  <fix>3d</fix>
</trkpt>
<trkpt lat="40.072842" lon="-105.2305748">
  <ele>1586.16</ele>
  <time>2026-08-28T19:10:21Z</time>
  <course>12.13</course>
  <speed>0.022360679774997897</speed>
  <fix>3d</fix>
</trkpt>
<trkpt lat="40.0728419" lon="-105.2305746">
  <ele>1586.1</ele>
  <time>2026-08-28T19:10:21Z</time>
  <course>189.62</course>
  <speed>0.0</speed>
  <fix>3d</fix>
</trkpt>
<trkpt lat="40.072842" lon="-105.2305748">
  <ele>1586.16</ele>
  <time>2026-08-28T19:10:21Z</time>
  <course>12.12</course>
  <speed>0.022360679774997897</speed>
  <fix>3d</fix>
</trkpt>
<trkpt lat="40.0728419" lon="-105.2305746">
  <ele>1586.1</ele>
  <time>2026-08-28T19:10:21Z</time>
  <course>186.48</course>
  <speed>0.0</speed>
  <fix>3d</fix>
</trkpt>
<trkpt lat="40.072842" lon="-105.2305748">
  <ele>1586.16</ele>
  <time>2026-08-28T19:10:21Z</time>
  <course>12.12</course>
  <speed>0.01414213562373095</speed>
  <fix>3d</fix>
</trkpt>
<trkpt lat="40.0728419" lon="-105.2305746">
  <ele>1586.1</ele>
  <time>2026-08-28T19:10:21Z</time>
  <course>183.7</course>
  <speed>0.0</speed>
  <fix>3d</fix>
</trkpt>
<trkpt lat="40.072842" lon="-105.2305748">
  <ele>1586.16</ele>
  <time>2026-08-28T19:10:21Z</time>
  <course>12.12</course>
  <speed>0.01414213562373095</speed>
  <fix>3d</fix>
</trkpt>
<trkpt lat="40.0728419" lon="-105.2305746">
  <ele>1586.1</ele>
  <time>2026-08-28T19:10:21Z</time>
  <course>181.24</course>
  <speed>0.0</speed>
  <fix>3d</fix>
</trkpt>
<trkpt lat="40.072842" lon="-105.2305748">
  <ele>1586.16</ele>
  <time>2026-08-28T19:10:21Z</time>
  <course>12.12</course>
  <speed>0.01414213562373095</speed>
  <fix>3d</fix>
</trkpt>
<trkpt lat="40.0728419" lon="-105.2305746">
  <ele>1586.1</ele>
  <time>2026-08-28T19:10:21Z</time>
  <course>179.07</course>
  <speed>0.0</speed>
  <fix>3d</fix>
</trkpt>
<trkpt lat="40.072842" lon="-105.2305748">
  <ele>1586.16</ele>
  <time>2026-08-28T19:10:21Z</time>
  <course>12.12</course>
  <speed>0.01414213562373095</speed>
  <fix>3d</fix>
</trkpt>
<trkpt lat="40.0728419" lon="-105.2305746">
  <ele>1586.1</ele>
  <time>2026-08-28T19:10:21Z</time>
  <course>237.24</course>
  <speed>0.0</speed>
  <fix>3d</fix>
</trkpt>
<trkpt lat="40.072842" lon="-105.2305748">
  <ele>1586.16</ele>
  <time>2026-08-28T19:10:21Z</time>
  <course>12.12</course>
  <speed>0.01414213562373095</speed>
  <fix>3d</fix>
</trkpt>
<trkpt lat="40.0728419" lon="-105.2305746">
  <ele>1586.1</ele>
  <time>2026-08-28T19:10:21Z</time>
  <course>272.7</course>
  <speed>0.0</speed>
  <fix>3d</fix>
</trkpt>
<trkpt lat="40.072842" lon="-105.2305748">
  <ele>1586.16</ele>
  <time>2026-08-28T19:10:21Z</time>
  <course>12.12</course>
  <speed>0.01414213562373095</speed>
  <fix>3d</fix>
</trkpt>
<trkpt lat="40.0728419" lon="-105.2305746">
  <ele>1586.1</ele>
  <time>2026-08-28T19:10:21Z</time>
  <course>270.78</course>
  <speed>0.0</speed>
  <fix>3d</fix>
</trkpt>
<trkpt lat="40.072842" lon="-105.2305748">
  <ele>1586.16</ele>
  <time>2026-08-28T19:10:21Z</time>
  <course>12.11</course>
  <speed>0.01414213562373095</speed>
  <fix>3d</fix>
</trkpt>
<trkpt lat="40.0728419" lon="-105.2305746">
  <ele>1586.1</ele>
  <time>2026-08-28T19:10:21Z</time>
  <course>152.35</course>
  <speed>0.0</speed>
  <fix>3d</fix>
</trkpt>
<trkpt lat="40.072842" lon="-105.2305748">
  <ele>1586.17</ele>
  <time>2026-08-28T19:10:21Z</time>
  <course>12.11</course>
  <speed>0.01414213562373095</speed>
  <fix>3d</fix>
</trkpt>
<trkpt lat="40.0728419" lon="-105.2305746">
  <ele>1586.1</ele>
  <time>2026-08-28T19:10:21Z</time>
  <course>138.53</course>
  <speed>0.0</speed>
  <fix>3d</fix>
</trkpt>
<trkpt lat="40.072842" lon="-105.2305748">
  <ele>1586.16</ele>
  <time>2026-08-28T19:10:21Z</time>
  <course>12.11</course>
  <speed>0.01414213562373095</speed>
  <fix>3d</fix>
</trkpt>
<trkpt lat="40.0728419" lon="-105.2305746">
  <ele>1586.1</ele>
  <time>2026-08-28T19:10:21Z</time>
  <course>162.53</course>
  <speed>0.0</speed>
  <fix>3d</fix>
</trkpt>
<trkpt lat="40.072842" lon="-105.2305748">
  <ele>1586.17</ele>
  <time>2026-08-28T19:10:21Z</time>
  <course>12.11</course>
  <speed>0.01414213562373095</speed>
  <fix>3d</fix>
</trkpt>
<trkpt lat="40.0728419" lon="-105.2305746">
  <ele>1586.1</ele>
  <time>2026-08-28T19:10:21Z</time>
  <course>161.52</course>
  <speed>0.0</speed>
  <fix>3d</fix>
</trkpt>
<trkpt lat="40.072842" lon="-105.2305748">
  <ele>1586.17</ele>
  <time>2026-08-28T19:10:21Z</time>
  <course>12.11</course>
  <speed>0.01414213562373095</speed>
  <fix>3d</fix>
</trkpt>
<trkpt lat="40.0728419" lon="-105.2305746">
  <ele>1586.1</ele>
  <time>2026-08-28T19:10:21Z</time>
  <course>157.31</course>
  <speed>0.0</speed>
  <fix>3d</fix>
</trkpt>
<trkpt lat="40.072842" lon="-105.2305748">
  <ele>1586.17</ele>
  <time>2026-08-28T19:10:21Z</time>
  <course>12.11</course>
  <speed>0.01414213562373095</speed>
  <fix>3d</fix>
</trkpt>
<trkpt lat="40.0728419" lon="-105.2305746">
  <ele>1586.1</ele>
  <time>2026-08-28T19:10:21Z</time>
  <course>157.92</course>
  <speed>0.0</speed>
  <fix>3d</fix>
</trkpt>
<trkpt lat="40.072842" lon="-105.2305748">
  <ele>1586.17</ele>
  <time>2026-08-28T19:10:21Z</time>
  <course>12.11</course>
  <speed>0.01414213562373095</speed>
  <fix>3d</fix>
</trkpt>
<trkpt lat="40.0728419" lon="-105.2305746">
  <ele>1586.1</ele>
  <time>2026-08-28T19:10:21Z</time>
  <course>158.39</course>
  <speed>0.0</speed>
  <fix>3d</fix>
</trkpt>
<trkpt lat="40.072842" lon="-105.2305748">
  <ele>1586.17</ele>
  <time>2026-08-28T19:10:21Z</time>
  <course>12.11</course>
  <speed>0.01414213562373095</speed>
  <fix>3d</fix>
</trkpt>
<trkpt lat="40.0728419" lon="-105.2305746">
  <ele>1586.1</ele>
  <time>2026-08-28T19:10:21Z</time>
  <course>158.25</course>
  <speed>0.0</speed>
  <fix>3d</fix>
</trkpt>
<trkpt lat="40.072842" lon="-105.2305748">
  <ele>1586.17</ele>
  <time>2026-08-28T19:10:21Z</time>
  <course>12.11</course>
  <speed>0.01414213562373095</speed>
  <fix>3d</fix>
</trkpt>
<trkpt lat="40.0728419" lon="-105.2305746">
  <ele>1586.1</ele>
  <time>2026-08-28T19:10:21Z</time>
  <course>158.2</course>
  <speed>0.0</speed>
  <fix>3d</fix>
</trkpt>
<trkpt lat="40.072842" lon="-105.2305748">
  <ele>1586.17</ele>
  <time>2026-08-28T19:10:21Z</time>
  <course>12.1</course>
  <speed>0.01414213562373095</speed>
  <fix>3d</fix>
</trkpt>
<trkpt lat="40.0728419" lon="-105.2305746">
  <ele>1586.1</ele>
  <time>2026-08-28T19:10:21Z</time>
  <course>158.23</course>
  <speed>0.0</speed>
  <fix>3d</fix>
</trkpt>
<trkpt lat="40.072842" lon="-105.2305748">
  <ele>1586.17</ele>
  <time>2026-08-28T19:10:21Z</time>
  <course>12.1</course>
  <speed>0.01414213562373095</speed>
  <fix>3d</fix>
</trkpt>
<trkpt lat="40.0728419" lon="-105.2305746">
  <ele>1586.1</ele>
  <time>2026-08-28T19:10:21Z</time>
  <course>158.23</course>
  <speed>0.0</speed>
  <fix>3d</fix>
</trkpt>
<trkpt lat="40.072842" lon="-105.2305748">
  <ele>1586.17</ele>
  <time>2026-08-28T19:10:21Z</time>
  <course>12.1</course>
  <speed>0.01414213562373095</speed>
  <fix>3d</fix>
</trkpt>
<trkpt lat="40.0728419" lon="-105.2305746">
  <ele>1586.1</ele>
  <time>2026-08-28T19:10:21Z</time>
  <course>158.23</course>
  <speed>0.0</speed>
  <fix>3d</fix>
</trkpt>
<trkpt lat="40.072842" lon="-105.2305748">
  <ele>1586.17</ele>
  <time>2026-08-28T19:10:21Z</time>
  <course>12.1</course>
  <speed>0.01414213562373095</speed>
  <fix>3d</fix>
</trkpt>
<trkpt lat="40.0728419" lon="-105.2305746">
  <ele>1586.1</ele>
  <time>2026-08-28T19:10:21Z</time>
  <course>158.23</course>
  <speed>0.0</speed>
  <fix>3d</fix>
</trkpt>
<trkpt lat="40.072842" lon="-105.2305748">
  <ele>1586.17</ele>
  <time>2026-08-28T19:10:21Z</time>
  <course>12.11</course>
  <speed>0.01414213562373095</speed>
  <fix>3d</fix>
</trkpt>
<trkpt lat="40.0728419" lon="-105.2305746">
  <ele>1586.1</ele>
  <time>2026-08-28T19:10:21Z</time>
  <course>158.23</course>
  <speed>0.0</speed>
  <fix>3d</fix>
</trkpt>
<trkpt lat="40.072842" lon="-105.2305748">
  <ele>1586.17</ele>
  <time>2026-08-28T19:10:21Z</time>
  <course>12.15</course>
  <speed>0.01414213562373095</speed>
  <fix>3d</fix>
</trkpt>
<trkpt lat="40.0728419" lon="-105.2305746">
  <ele>1586.1</ele>
  <time>2026-08-28T19:10:21Z</time>
  <course>158.23</course>
  <speed>0.0</speed>
  <fix>3d</fix>
</trkpt>
<trkpt lat="40.072842" lon="-105.2305748">
  <ele>1586.18</ele>
  <time>2026-08-28T19:10:21Z</time>
  <course>12.19</course>
  <speed>0.01414213562373095</speed>
  <fix>3d</fix>
</trkpt>
<trkpt lat="40.0728419" lon="-105.2305746">
  <ele>1586.1</ele>
  <time>2026-08-28T19:10:21Z</time>
  <course>158.23</course>
  <speed>0.0</speed>
  <fix>3d</fix>
</trkpt>
<trkpt lat="40.072842" lon="-105.2305748">
  <ele>1586.18</ele>
  <time>2026-08-28T19:10:21Z</time>
  <course>12.23</course>
  <speed>0.01414213562373095</speed>
  <fix>3d</fix>
</trkpt>
<trkpt lat="40.0728419" lon="-105.2305746">
  <ele>1586.1</ele>
  <time>2026-08-28T19:10:21Z</time>
  <course>158.23</course>
  <speed>0.0</speed>
  <fix>3d</fix>
</trkpt>
<trkpt lat="40.072842" lon="-105.2305748">
  <ele>1586.18</ele>
  <time>2026-08-28T19:10:21Z</time>
  <course>12.27</course>
  <speed>0.01414213562373095</speed>
  <fix>3d</fix>
</trkpt>
<trkpt lat="40.0728419" lon="-105.2305746">
  <ele>1586.1</ele>
  <time>2026-08-28T19:10:21Z</time>
  <course>158.23</course>
  <speed>0.0</speed>
  <fix>3d</fix>
</trkpt>
<trkpt lat="40.072842" lon="-105.2305748">
  <ele>1586.18</ele>
  <time>2026-08-28T19:10:21Z</time>
  <course>12.31</course>
  <speed>0.01414213562373095</speed>
  <fix>3d</fix>
</trkpt>
<trkpt lat="40.0728419" lon="-105.2305746">
  <ele>1586.1</ele>
  <time>2026-08-28T19:10:21Z</time>
  <course>158.23</course>
  <speed>0.0</speed>
  <fix>3d</fix>
</trkpt>
<trkpt lat="40.072842" lon="-105.2305748">
  <ele>1586.18</ele>
  <time>2026-08-28T19:10:21Z</time>
  <course>12.35</course>
  <speed>0.01414213562373095</speed>
  <fix>3d</fix>
</trkpt>
<trkpt lat="40.0728419" lon="-105.2305746">
  <ele>1586.1</ele>
  <time>2026-08-28T19:10:21Z</time>
  <course>158.23</course>
  <speed>0.0</speed>
  <fix>3d</fix>
</trkpt>
<trkpt lat="40.072842" lon="-105.2305748">
  <ele>1586.17</ele>
  <time>2026-08-28T19:10:21Z</time>
  <course>12.39</course>
  <speed>0.01414213562373095</speed>
  <fix>3d</fix>
</trkpt>
<trkpt lat="40.0728419" lon="-105.2305746">
  <ele>1586.1</ele>
  <time>2026-08-28T19:10:21Z</time>
  <course>158.23</course>
  <speed>0.0</speed>
  <fix>3d</fix>
</trkpt>
<trkpt lat="40.072842" lon="-105.2305748">
  <ele>1586.18</ele>
  <time>2026-08-28T19:10:21Z</time>
  <course>12.43</course>
  <speed>0.01414213562373095</speed>
  <fix>3d</fix>
</trkpt>
<trkpt lat="40.0728419" lon="-105.2305746">
  <ele>1586.1</ele>
  <time>2026-08-28T19:10:21Z</time>
  <course>158.23</course>
  <speed>0.0</speed>
  <fix>3d</fix>
</trkpt>
<trkpt lat="40.072842" lon="-105.2305748">
  <ele>1586.18</ele>
  <time>2026-08-28T19:10:21Z</time>
  <course>12.47</course>
  <speed>0.01414213562373095</speed>
  <fix>3d</fix>
</trkpt>
<trkpt lat="40.0728419" lon="-105.2305746">
  <ele>1586.1</ele>
  <time>2026-08-28T19:10:21Z</time>
  <course>158.23</course>
  <speed>0.0</speed>
  <fix>3d</fix>
</trkpt>
<trkpt lat="40.072842" lon="-105.2305748">
  <ele>1586.18</ele>
  <time>2026-08-28T19:10:21Z</time>
  <course>12.51</course>
  <speed>0.01414213562373095</speed>
  <fix>3d</fix>
</trkpt>
<trkpt lat="40.0728419" lon="-105.2305746">
  <ele>1586.1</ele>
  <time>2026-08-28T19:10:21Z</time>
  <course>158.23</course>
  <speed>0.0</speed>
  <fix>3d</fix>
</trkpt>
<trkpt lat="40.072842" lon="-105.2305747">
  <ele>1586.18</ele>
  <time>2026-08-28T19:10:21Z</time>
  <course>12.68</course>
  <speed>0.01414213562373095</speed>
  <fix>3d</fix>
</trkpt>
<trkpt lat="40.0728419" lon="-105.2305746">
  <ele>1586.1</ele>
  <time>2026-08-28T19:10:21Z</time>
  <course>158.23</course>
  <speed>0.0</speed>
  <fix>3d</fix>
</trkpt>
<trkpt lat="40.072842" lon="-105.2305747">
  <ele>1586.17</ele>
  <time>2026-08-28T19:10:21Z</time>
  <course>12.72</course>
  <speed>0.01414213562373095</speed>
  <fix>3d</fix>
</trkpt>
<trkpt lat="40.0728419" lon="-105.2305746">
  <ele>1586.1</ele>
  <time>2026-08-28T19:10:21Z</time>
  <course>158.22</course>
  <speed>0.0</speed>
  <fix>3d</fix>
</trkpt>
<trkpt lat="40.072842" lon="-105.2305747">
  <ele>1586.17</ele>
  <time>2026-08-28T19:10:21Z</time>
  <course>12.76</course>
  <speed>0.01414213562373095</speed>
  <fix>3d</fix>
</trkpt>
<trkpt lat="40.0728419" lon="-105.2305746">
  <ele>1586.1</ele>
  <time>2026-08-28T19:10:21Z</time>
  <course>158.22</course>
  <speed>0.0</speed>
  <fix>3d</fix>
</trkpt>
<trkpt lat="40.072842" lon="-105.2305747">
  <ele>1586.17</ele>
  <time>2026-08-28T19:10:21Z</time>
  <course>12.8</course>
  <speed>0.01</speed>
  <fix>3d</fix>
</trkpt>
<trkpt lat="40.0728419" lon="-105.2305746">
  <ele>1586.1</ele>
  <time>2026-08-28T19:10:21Z</time>
  <course>158.22</course>
  <speed>0.0</speed>
  <fix>3d</fix>
</trkpt>
<trkpt lat="40.072842" lon="-105.2305747">
  <ele>1586.18</ele>
  <time>2026-08-28T19:10:21Z</time>
  <course>12.84</course>
  <speed>0.01</speed>
  <fix>3d</fix>
</trkpt>
<trkpt lat="40.0728419" lon="-105.2305746">
  <ele>1586.1</ele>
  <time>2026-08-28T19:10:21Z</time>
  <course>158.22</course>
  <speed>0.0</speed>
  <fix>3d</fix>
</trkpt>
<trkpt lat="40.072842" lon="-105.2305747">
  <ele>1586.19</ele>
  <time>2026-08-28T19:10:21Z</time>
  <course>12.88</course>
  <speed>0.01</speed>
  <fix>3d</fix>
</trkpt>
<trkpt lat="40.0728419" lon="-105.2305746">
  <ele>1586.1</ele>
  <time>2026-08-28T19:10:21Z</time>
  <course>158.22</course>
  <speed>0.0</speed>
  <fix>3d</fix>
</trkpt>
<trkpt lat="40.072842" lon="-105.2305747">
  <ele>1586.19</ele>
  <time>2026-08-28T19:10:21Z</time>
  <course>12.92</course>
  <speed>0.01</speed>
  <fix>3d</fix>
</trkpt>
<trkpt lat="40.0728419" lon="-105.2305746">
  <ele>1586.1</ele>
  <time>2026-08-28T19:10:21Z</time>
  <course>158.22</course>
  <speed>0.0</speed>
  <fix>3d</fix>
</trkpt>
<trkpt lat="40.072842" lon="-105.2305747">
  <ele>1586.19</ele>
  <time>2026-08-28T19:10:21Z</time>
  <course>12.96</course>
  <speed>0.01</speed>
  <fix>3d</fix>
</trkpt>
<trkpt lat="40.0728419" lon="-105.2305746">
  <ele>1586.1</ele>
  <time>2026-08-28T19:10:21Z</time>
  <course>158.22</course>
  <speed>0.0</speed>
  <fix>3d</fix>
</trkpt>
<trkpt lat="40.0728419" lon="-105.2305746">
  <ele>1586.1</ele>
  <time>2026-08-28T19:10:21Z</time>
  <course>12.84</course>
  <speed>0.0</speed>
  <fix>3d</fix>
</trkpt>
<trkpt lat="40.0728419" lon="-105.2305746">
  <ele>1586.1</ele>
  <time>2026-08-28T19:10:21Z</time>
  <course>158.22</course>
  <speed>0.0</speed>
  <fix>3d</fix>
</trkpt>
<trkpt lat="40.0728419" lon="-105.2305746">
  <ele>1586.1</ele>
  <time>2026-08-28T19:10:21Z</time>
  <course>12.84</course>
  <speed>0.0</speed>
  <fix>3d</fix>
</trkpt>
<trkpt lat="40.0728419" lon="-105.2305746">
  <ele>1586.1</ele>
  <time>2026-08-28T19:10:21Z</time>
  <course>308.43</course>
  <speed>0.0</speed>
  <fix>3d</fix>
</trkpt>
<trkpt lat="40.0728419" lon="-105.2305746">
  <ele>1586.1</ele>
  <time>2026-08-28T19:10:21Z</time>
  <course>12.84</course>
  <speed>0.0</speed>
  <fix>3d</fix>
</trkpt>
<trkpt lat="40.0728419" lon="-105.2305746">
  <ele>1586.1</ele>
  <time>2026-08-28T19:10:21Z</time>
  <course>287.6</course>
  <speed>0.0</speed>
  <fix>3d</fix>
</trkpt>
<trkpt lat="40.0728419" lon="-105.2305746">
  <ele>1586.1</ele>
  <time>2026-08-28T19:10:21Z</time>
  <course>12.84</course>
  <speed>0.0</speed>
  <fix>3d</fix>
</trkpt>
<trkpt lat="40.0728419" lon="-105.2305746">
  <ele>1586.1</ele>
  <time>2026-08-28T19:10:21Z</time>
  <course>328.32</course>
  <speed>0.0</speed>
  <fix>3d</fix>
</trkpt>
<trkpt lat="40.0728419" lon="-105.2305746">
  <ele>1586.1</ele>
  <time>2026-08-28T19:10:21Z</time>
  <course>12.84</course>
  <speed>0.0</speed>
  <fix>3d</fix>
</trkpt>
<trkpt lat="40.0728419" lon="-105.2305746">
  <ele>1586.1</ele>
  <time>2026-08-28T19:10:21Z</time>
  <course>30.69</course>
  <speed>0.0</speed>
  <fix>3d</fix>
</trkpt>
<trkpt lat="40.0728419" lon="-105.2305746">
  <ele>1586.1</ele>
  <time>2026-08-28T19:10:21Z</time>
  <course>12.84</course>
  <speed>0.0</speed>
  <fix>3d</fix>
</trkpt>
<trkpt lat="40.0728419" lon="-105.2305746">
  <ele>1586.1</ele>
  <time>2026-08-28T19:10:21Z</time>
  <course>158.44</course>
  <speed>0.0</speed>
  <fix>3d</fix>
</trkpt>
<trkpt lat="40.0728419" lon="-105.2305746">
  <ele>1586.1</ele>
  <time>2026-08-28T19:10:21Z</time>
  <course>12.84</course>
  <speed>0.0</speed>
  <fix>3d</fix>
</trkpt>
<trkpt lat="40.0728419" lon="-105.2305746">
  <ele>1586.1</ele>
  <time>2026-08-28T19:10:21Z</time>
  <course>182.23</course>
  <speed>0.0</speed>
  <fix>3d</fix>
</trkpt>
<trkpt lat="40.0728419" lon="-105.2305746">
  <ele>1586.1</ele>
  <time>2026-08-28T19:10:21Z</time>
  <course>12.84</course>
  <speed>0.0</speed>
  <fix>3d</fix>
</trkpt>
<trkpt lat="40.0728419" lon="-105.2305746">
  <ele>1586.1</ele>
  <time>2026-08-28T19:10:21Z</time>
  <course>181.92</course>
  <speed>0.0</speed>
  <fix>3d</fix>
</trkpt>
<trkpt lat="40.0728419" lon="-105.2305746">
  <ele>1586.1</ele>
  <time>2026-08-28T19:10:21Z</time>
  <course>12.84</course>
  <speed>0.0</speed>
  <fix>3d</fix>
</trkpt>
<trkpt lat="40.0728419" lon="-105.2305746">
  <ele>1586.1</ele>
  <time>2026-08-28T19:10:21Z</time>
  <course>219.12</course>
  <speed>0.0</speed>
  <fix>3d</fix>
</trkpt>
<trkpt lat="40.0728419" lon="-105.2305746">
  <ele>1586.1</ele>
  <time>2026-08-28T19:10:21Z</time>
  <course>12.84</course>
  <speed>0.0</speed>
  <fix>3d</fix>
</trkpt>
<trkpt lat="40.0728419" lon="-105.2305746">
  <ele>1586.1</ele>
  <time>2026-08-28T19:10:21Z</time>
  <course>7.98</course>
  <speed>0.0</speed>
  <fix>3d</fix>
</trkpt>
<trkpt lat="40.0728419" lon="-105.2305746">
  <ele>1586.1</ele>
  <time>2026-08-28T19:10:21Z</time>
  <course>12.84</course>
  <speed>0.0</speed>
  <fix>3d</fix>
</trkpt>
<trkpt lat="40.0728419" lon="-105.2305746">
  <ele>1586.1</ele>
  <time>2026-08-28T19:10:21Z</time>
  <course>340.67</course>
  <speed>0.0</speed>
  <fix>3d</fix>
</trkpt>
<trkpt lat="40.072842" lon="-105.230575">
  <ele>1586.09</ele>
  <time>2026-08-28T19:10:21Z</time>
  <course>0.0</course>
  <speed>0.0</speed>
  <fix>3d</fix>
</trkpt>
<trkpt lat="40.072842" lon="-105.230575">
  <ele>1586.09</ele>
  <time>2026-08-28T19:10:21Z</time>
  <course>0.0</course>
  <speed>0.0</speed>
  <fix>3d</fix>
</trkpt>
<trkpt lat="40.072842" lon="-105.230575">
  <ele>1586.09</ele>
  <time>2026-08-28T19:10:21Z</time>
  <course>0.0</course>
  <speed>0.0</speed>
  <fix>3d</fix>
</trkpt>
<trkpt lat="40.072842" lon="-105.230575">
  <ele>1586.09</ele>
  <time>2026-08-28T19:10:21Z</time>
  <course>0.0</course>
  <speed>0.0</speed>
  <fix>3d</fix>
</trkpt>
<trkpt lat="40.072842" lon="-105.230575">
  <ele>1586.09</ele>
  <time>2026-08-28T19:10:21Z</time>
  <course>0.0</course>
  <speed>0.0</speed>
  <fix>3d</fix>
</trkpt>
<trkpt lat="40.072842" lon="-105.230575">
  <ele>1586.09</ele>
  <time>2026-08-28T19:10:21Z</time>
  <course>0.0</course>
  <speed>0.0</speed>
  <fix>3d</fix>
</trkpt>
<trkpt lat="40.072842" lon="-105.230575">
  <ele>1586.09</ele>
  <time>2026-08-28T19:10:21Z</time>
  <course>0.0</course>
  <speed>0.0</speed>
  <fix>3d</fix>
</trkpt>
<trkpt lat="40.072842" lon="-105.230575">
  <ele>1586.09</ele>
  <time>2026-08-28T19:10:21Z</time>
  <course>0.0</course>
  <speed>0.0</speed>
  <fix>3d</fix>
</trkpt>
<trkpt lat="40.072842" lon="-105.230575">
  <ele>1586.09</ele>
  <time>2026-08-28T19:10:21Z</time>
  <course>0.0</course>
  <speed>0.0</speed>
  <fix>3d</fix>
</trkpt>
<trkpt lat="40.072842" lon="-105.230575">
  <ele>1586.09</ele>
  <time>2026-08-28T19:10:21Z</time>
  <course>0.0</course>
  <speed>0.0</speed>
  <fix>3d</fix>
</trkpt>
<trkpt lat="40.072842" lon="-105.230575">
  <ele>1586.09</ele>
  <time>2026-08-28T19:10:21Z</time>
  <course>0.0</course>
  <speed>0.0</speed>
  <fix>3d</fix>
</trkpt>
<trkpt lat="40.072842" lon="-105.230575">
  <ele>1586.09</ele>
  <time>2026-08-28T19:10:21Z</time>
  <course>0.0</course>
  <speed>0.0</speed>
  <fix>3d</fix>
</trkpt>
<trkpt lat="40.072842" lon="-105.230575">
  <ele>1586.09</ele>
  <time>2026-08-28T19:10:21Z</time>
  <course>0.0</course>
  <speed>0.0</speed>
  <fix>3d</fix>
</trkpt>
<trkpt lat="40.072842" lon="-105.230575">
  <ele>1586.09</ele>
  <time>2026-08-28T19:10:21Z</time>
  <course>0.0</course>
  <speed>0.0</speed>
  <fix>3d</fix>
</trkpt>
<trkpt lat="40.072842" lon="-105.230575">
  <ele>1586.09</ele>
  <time>2026-08-28T19:10:21Z</time>
  <course>0.0</course>
  <speed>0.0</speed>
  <fix>3d</fix>
</trkpt>
<trkpt lat="40.072842" lon="-105.230575">
  <ele>1586.09</ele>
  <time>2026-08-28T19:10:21Z</time>
  <course>0.0</course>
  <speed>0.0</speed>
  <fix>3d</fix>
</trkpt>
<trkpt lat="40.072842" lon="-105.230575">
  <ele>1586.09</ele>
  <time>2026-08-28T19:10:22Z</time>
  <course>0.0</course>
  <speed>0.0</speed>
  <fix>3d</fix>
</trkpt>
<trkpt lat="40.072842" lon="-105.230575">
  <ele>1586.09</ele>
  <time>2026-08-28T19:10:22Z</time>
  <course>0.0</course>
  <speed>0.0</speed>
  <fix>3d</fix>
</trkpt>
<trkpt lat="40.072842" lon="-105.230575">
  <ele>1586.09</ele>
  <time>2026-08-28T19:10:22Z</time>
  <course>0.0</course>
  <speed>0.0</speed>
  <fix>3d</fix>
</trkpt>
<trkpt lat="40.072842" lon="-105.230575">
  <ele>1586.09</ele>
  <time>2026-08-28T19:10:22Z</time>
  <course>0.0</course>
  <speed>0.0</speed>
  <fix>3d</fix>
</trkpt>
<trkpt lat="40.072842" lon="-105.230575">
  <ele>1586.09</ele>
  <time>2026-08-28T19:10:22Z</time>
  <course>0.0</course>
  <speed>0.0</speed>
  <fix>3d</fix>
</trkpt>
<trkpt lat="40.072842" lon="-105.230575">
  <ele>1586.09</ele>
  <time>2026-08-28T19:10:22Z</time>
  <course>0.0</course>
  <speed>0.0</speed>
  <fix>3d</fix>
</trkpt>
<trkpt lat="40.072842" lon="-105.230575">
  <ele>1586.09</ele>
  <time>2026-08-28T19:10:22Z</time>
  <course>0.0</course>
  <speed>0.0</speed>
  <fix>3d</fix>
</trkpt>
<trkpt lat="40.072842" lon="-105.230575">
  <ele>1586.09</ele>
  <time>2026-08-28T19:10:22Z</time>
  <course>0.0</course>
  <speed>0.0</speed>
  <fix>3d</fix>
</trkpt>
<trkpt lat="40.072842" lon="-105.230575">
  <ele>1586.09</ele>
  <time>2026-08-28T19:10:22Z</time>
  <course>0.0</course>
  <speed>0.0</speed>
  <fix>3d</fix>
</trkpt>
<trkpt lat="40.072842" lon="-105.230575">
  <ele>1586.09</ele>
  <time>2026-08-28T19:10:22Z</time>
  <course>0.0</course>
  <speed>0.0</speed>
  <fix>3d</fix>
</trkpt>
<trkpt lat="40.072842" lon="-105.230575">
  <ele>1586.09</ele>
  <time>2026-08-28T19:10:22Z</time>
  <course>0.0</course>
  <speed>0.0</speed>
  <fix>3d</fix>
</trkpt>
<trkpt lat="40.072842" lon="-105.230575">
  <ele>1586.09</ele>
  <time>2026-08-28T19:10:22Z</time>
  <course>0.0</course>
  <speed>0.0</speed>
  <fix>3d</fix>
</trkpt>
<trkpt lat="40.072842" lon="-105.230575">
  <ele>1586.09</ele>
  <time>2026-08-28T19:10:22Z</time>
  <course>0.0</course>
  <speed>0.0</speed>
  <fix>3d</fix>
</trkpt>
<trkpt lat="40.072842" lon="-105.230575">
  <ele>1586.09</ele>
  <time>2026-08-28T19:10:22Z</time>
  <course>0.0</course>
  <speed>0.0</speed>
  <fix>3d</fix>
</trkpt>
<trkpt lat="40.072842" lon="-105.230575">
  <ele>1586.09</ele>
  <time>2026-08-28T19:10:22Z</time>
  <course>0.0</course>
  <speed>0.0</speed>
  <fix>3d</fix>
</trkpt>
<trkpt lat="40.072842" lon="-105.230575">
  <ele>1586.09</ele>
  <time>2026-08-28T19:10:22Z</time>
  <course>0.0</course>
  <speed>0.0</speed>
  <fix>3d</fix>
</trkpt>
<trkpt lat="40.072842" lon="-105.230575">
  <ele>1586.09</ele>
  <time>2026-08-28T19:10:22Z</time>
  <course>0.0</course>
  <speed>0.0</speed>
  <fix>3d</fix>
</trkpt>
<trkpt lat="40.072842" lon="-105.230575">
  <ele>1586.09</ele>
  <time>2026-08-28T19:10:22Z</time>
  <course>0.0</course>
  <speed>0.0</speed>
  <fix>3d</fix>
</trkpt>
<trkpt lat="40.072842" lon="-105.230575">
  <ele>1586.09</ele>
  <time>2026-08-28T19:10:22Z</time>
  <course>0.0</course>
  <speed>0.0</speed>
  <fix>3d</fix>
</trkpt>
<trkpt lat="40.072842" lon="-105.230575">
  <ele>1586.09</ele>
  <time>2026-08-28T19:10:22Z</time>
  <course>0.0</course>
  <speed>0.0</speed>
  <fix>3d</fix>
</trkpt>
<trkpt lat="40.072842" lon="-105.230575">
  <ele>1586.09</ele>
  <time>2026-08-28T19:10:22Z</time>
  <course>0.0</course>
  <speed>0.0</speed>
  <fix>3d</fix>
</trkpt>
<trkpt lat="39.654938" lon="-104.1331666">
  <ele>1569.54</ele>
  <time>2026-08-28T19:10:22Z</time>
  <course>127.59</course>
  <speed>0.0</speed>
  <fix>3d</fix>
</trkpt>
<trkpt lat="40.072842" lon="-105.230575">
  <ele>1586.09</ele>
  <time>2026-08-28T19:10:22Z</time>
  <course>0.0</course>
  <speed>0.0</speed>
  <fix>3d</fix>
</trkpt>
<trkpt lat="40.072842" lon="-105.230575">
  <ele>1586.09</ele>
  <time>2026-08-28T19:10:22Z</time>
  <course>121.35</course>
  <speed>0.0</speed>
  <fix>3d</fix>
</trkpt>
<trkpt lat="40.072842" lon="-105.230575">
  <ele>1586.09</ele>
  <time>2026-08-28T19:10:22Z</time>
  <course>0.0</course>
  <speed>0.0</speed>
  <fix>3d</fix>
</trkpt>
<trkpt lat="40.072842" lon="-105.230575">
  <ele>1586.09</ele>
  <time>2026-08-28T19:10:22Z</time>
  <course>94.19</course>
  <speed>0.0</speed>
  <fix>3d</fix>
</trkpt>
<trkpt lat="40.072842" lon="-105.230575">
  <ele>1586.09</ele>
  <time>2026-08-28T19:10:22Z</time>
  <course>0.0</course>
  <speed>0.0</speed>
  <fix>3d</fix>
</trkpt>
<trkpt lat="40.072842" lon="-105.230575">
  <ele>1586.09</ele>
  <time>2026-08-28T19:10:22Z</time>
  <course>350.76</course>
  <speed>0.0</speed>
  <fix>3d</fix>
</trkpt>
<trkpt lat="40.072842" lon="-105.230575">
  <ele>1586.09</ele>
  <time>2026-08-28T19:10:22Z</time>
  <course>0.0</course>
  <speed>0.0</speed>
  <fix>3d</fix>
</trkpt>
<trkpt lat="40.072842" lon="-105.230575">
  <ele>1586.09</ele>
  <time>2026-08-28T19:10:22Z</time>
  <course>284.47</course>
  <speed>0.0</speed>
  <fix>3d</fix>
</trkpt>
<trkpt lat="40.072842" lon="-105.230575">
  <ele>1586.09</ele>
  <time>2026-08-28T19:10:22Z</time>
  <course>0.0</course>
  <speed>0.0</speed>
  <fix>3d</fix>
</trkpt>
<trkpt lat="40.072842" lon="-105.230575">
  <ele>1586.09</ele>
  <time>2026-08-28T19:10:22Z</time>
  <course>135.24</course>
  <speed>0.0</speed>
  <fix>3d</fix>
</trkpt>
<trkpt lat="40.072842" lon="-105.230575">
  <ele>1586.09</ele>
  <time>2026-08-28T19:10:22Z</time>
  <course>0.0</course>
  <speed>0.0</speed>
  <fix>3d</fix>
</trkpt>
<trkpt lat="40.072842" lon="-105.230575">
  <ele>1586.09</ele>
  <time>2026-08-28T19:10:22Z</time>
  <course>357.93</course>
  <speed>0.0</speed>
  <fix>3d</fix>
</trkpt>
<trkpt lat="40.072842" lon="-105.230575">
  <ele>1586.09</ele>
  <time>2026-08-28T19:10:22Z</time>
  <course>0.0</course>
  <speed>0.0</speed>
  <fix>3d</fix>
</trkpt>
<trkpt lat="40.072842" lon="-105.230575">
  <ele>1586.09</ele>
  <time>2026-08-28T19:10:22Z</time>
  <course>325.22</course>
  <speed>0.0</speed>
  <fix>3d</fix>
</trkpt>
<trkpt lat="40.072842" lon="-105.230575">
  <ele>1586.09</ele>
  <time>2026-08-28T19:10:22Z</time>
  <course>0.0</course>
  <speed>0.0</speed>
  <fix>3d</fix>
</trkpt>
<trkpt lat="40.072842" lon="-105.230575">
  <ele>1586.09</ele>
  <time>2026-08-28T19:10:22Z</time>
  <course>128.09</course>
  <speed>0.0</speed>
  <fix>3d</fix>
</trkpt>
<trkpt lat="40.072842" lon="-105.230575">
  <ele>1586.09</ele>
  <time>2026-08-28T19:10:22Z</time>
  <course>0.0</course>
  <speed>0.0</speed>
  <fix>3d</fix>
</trkpt>
<trkpt lat="40.072842" lon="-105.230575">
  <ele>1586.09</ele>
  <time>2026-08-28T19:10:22Z</time>
  <course>27.14</course>
  <speed>0.0</speed>
  <fix>3d</fix>
</trkpt>
<trkpt lat="40.072842" lon="-105.230575">
  <ele>1586.09</ele>
  <time>2026-08-28T19:10:22Z</time>
  <course>0.0</course>
  <speed>0.0</speed>
  <fix>3d</fix>
</trkpt>
<trkpt lat="40.072842" lon="-105.230575">
  <ele>1586.09</ele>
  <time>2026-08-28T19:10:22Z</time>
  <course>290.19</course>
  <speed>0.0</speed>
  <fix>3d</fix>
</trkpt>
<trkpt lat="40.072842" lon="-105.230575">
  <ele>1586.09</ele>
  <time>2026-08-28T19:10:22Z</time>
  <course>0.0</course>
  <speed>0.0</speed>
  <fix>3d</fix>
</trkpt>
<trkpt lat="40.072842" lon="-105.230575">
  <ele>1586.09</ele>
  <time>2026-08-28T19:10:22Z</time>
  <course>206.36</course>
  <speed>0.0</speed>
  <fix>3d</fix>
</trkpt>
<trkpt lat="40.072842" lon="-105.230575">
  <ele>1586.09</ele>
  <time>2026-08-28T19:10:22Z</time>
  <course>0.0</course>
  <speed>0.0</speed>
  <fix>3d</fix>
</trkpt>
<trkpt lat="40.072842" lon="-105.230575">
  <ele>1586.09</ele>
  <time>2026-08-28T19:10:22Z</time>
  <course>78.54</course>
  <speed>0.0</speed>
  <fix>3d</fix>
</trkpt>
<trkpt lat="40.072842" lon="-105.230575">
  <ele>1586.09</ele>
  <time>2026-08-28T19:10:22Z</time>
  <course>0.0</course>
  <speed>0.0</speed>
  <fix>3d</fix>
</trkpt>
<trkpt lat="40.072842" lon="-105.230575">
  <ele>1586.09</ele>
  <time>2026-08-28T19:10:22Z</time>
  <course>225.42</course>
  <speed>0.0</speed>
  <fix>3d</fix>
</trkpt>
<trkpt lat="40.072842" lon="-105.230575">
  <ele>1586.09</ele>
  <time>2026-08-28T19:10:22Z</time>
  <course>0.0</course>
  <speed>0.0</speed>
  <fix>3d</fix>
</trkpt>
<trkpt lat="40.072842" lon="-105.230575">
  <ele>1586.09</ele>
  <time>2026-08-28T19:10:22Z</time>
  <course>269.57</course>
  <speed>0.0</speed>
  <fix>3d</fix>
</trkpt>
<trkpt lat="40.072842" lon="-105.230575">
  <ele>1586.09</ele>
  <time>2026-08-28T19:10:22Z</time>
  <course>0.0</course>
  <speed>0.0</speed>
  <fix>3d</fix>
</trkpt>
<trkpt lat="40.072842" lon="-105.230575">
  <ele>1586.09</ele>
  <time>2026-08-28T19:10:22Z</time>
  <course>20.38</course>
  <speed>0.0</speed>
  <fix>3d</fix>
</trkpt>
<trkpt lat="40.072842" lon="-105.230575">
  <ele>1586.09</ele>
  <time>2026-08-28T19:10:22Z</time>
  <course>0.0</course>
  <speed>0.0</speed>
  <fix>3d</fix>
</trkpt>
<trkpt lat="40.072842" lon="-105.230575">
  <ele>1586.09</ele>
  <time>2026-08-28T19:10:22Z</time>
  <course>184.63</course>
  <speed>0.0</speed>
  <fix>3d</fix>
</trkpt>
<trkpt lat="40.072842" lon="-105.230575">
  <ele>1586.09</ele>
  <time>2026-08-28T19:10:22Z</time>
  <course>0.0</course>
  <speed>0.0</speed>
  <fix>3d</fix>
</trkpt>
<trkpt lat="40.072842" lon="-105.230575">
  <ele>1586.09</ele>
  <time>2026-08-28T19:10:22Z</time>
  <course>149.79</course>
  <speed>0.0</speed>
  <fix>3d</fix>
</trkpt>
<trkpt lat="40.072842" lon="-105.230575">
  <ele>1586.09</ele>
  <time>2026-08-28T19:10:22Z</time>
  <course>0.0</course>
  <speed>0.0</speed>
  <fix>3d</fix>
</trkpt>
<trkpt lat="40.072842" lon="-105.230575">
  <ele>1586.09</ele>
  <time>2026-08-28T19:10:22Z</time>
  <course>128.34</course>
  <speed>0.0</speed>
  <fix>3d</fix>
</trkpt>
<trkpt lat="40.072842" lon="-105.230575">
  <ele>1586.09</ele>
  <time>2026-08-28T19:10:22Z</time>
  <course>0.0</course>
  <speed>0.0</speed>
  <fix>3d</fix>
</trkpt>
<trkpt lat="40.072842" lon="-105.230575">
  <ele>1586.09</ele>
  <time>2026-08-28T19:10:22Z</time>
  <course>306.56</course>
  <speed>0.0</speed>
  <fix>3d</fix>
</trkpt>
<trkpt lat="40.072842" lon="-105.230575">
  <ele>1586.09</ele>
  <time>2026-08-28T19:10:22Z</time>
  <course>0.0</course>
  <speed>0.0</speed>
  <fix>3d</fix>
</trkpt>
<trkpt lat="40.072842" lon="-105.230575">
  <ele>1586.09</ele>
  <time>2026-08-28T19:10:22Z</time>
  <course>194.19</course>
  <speed>0.0</speed>
  <fix>3d</fix>
</trkpt>
<trkpt lat="40.072842" lon="-105.230575">
  <ele>1586.09</ele>
  <time>2026-08-28T19:10:22Z</time>
  <course>0.0</course>
  <speed>0.0</speed>
  <fix>3d</fix>
</trkpt>
<trkpt lat="40.072842" lon="-105.230575">
  <ele>1586.09</ele>
  <time>2026-08-28T19:10:22Z</time>
  <course>39.63</course>
  <speed>0.0</speed>
  <fix>3d</fix>
</trkpt>
<trkpt lat="40.072842" lon="-105.230575">
  <ele>1586.09</ele>
  <time>2026-08-28T19:10:22Z</time>
  <course>0.0</course>
  <speed>0.0</speed>
  <fix>3d</fix>
</trkpt>
<trkpt lat="40.072842" lon="-105.230575">
  <ele>1586.09</ele>
  <time>2026-08-28T19:10:22Z</time>
  <course>357.64</course>
  <speed>0.0</speed>
  <fix>3d</fix>
</trkpt>
<trkpt lat="40.072842" lon="-105.230575">
  <ele>1586.09</ele>
  <time>2026-08-28T19:10:22Z</time>
  <course>0.0</course>
  <speed>0.0</speed>
  <fix>3d</fix>
</trkpt>
<trkpt lat="40.072842" lon="-105.230575">
  <ele>1586.09</ele>
  <time>2026-08-28T19:10:22Z</time>
  <course>326.3</course>
  <speed>0.0</speed>
  <fix>3d</fix>
</trkpt>
<trkpt lat="40.072842" lon="-105.230575">
  <ele>1586.09</ele>
  <time>2026-08-28T19:10:22Z</time>
  <course>0.0</course>
  <speed>0.0</speed>
  <fix>3d</fix>
</trkpt>
<trkpt lat="40.072842" lon="-105.230575">
  <ele>1586.09</ele>
  <time>2026-08-28T19:10:22Z</time>
  <course>195.99</course>
  <speed>0.0</speed>
  <fix>3d</fix>
</trkpt>
<trkpt lat="40.072842" lon="-105.230575">
  <ele>1586.09</ele>
  <time>2026-08-28T19:10:22Z</time>
  <course>0.0</course>
  <speed>0.0</speed>
  <fix>3d</fix>
</trkpt>
<trkpt lat="40.072842" lon="-105.230575">
  <ele>1586.09</ele>
  <time>2026-08-28T19:10:22Z</time>
  <course>143.09</course>
  <speed>0.0</speed>
  <fix>3d</fix>
</trkpt>
<trkpt lat="40.072842" lon="-105.230575">
  <ele>1586.09</ele>
  <time>2026-08-28T19:10:22Z</time>
  <course>0.0</course>
  <speed>0.0</speed>
  <fix>3d</fix>
</trkpt>
<trkpt lat="40.072842" lon="-105.230575">
  <ele>1586.09</ele>
  <time>2026-08-28T19:10:22Z</time>
  <course>356.33</course>
  <speed>0.0</speed>
  <fix>3d</fix>
</trkpt>
<trkpt lat="40.072842" lon="-105.230575">
  <ele>1586.09</ele>
  <time>2026-08-28T19:10:22Z</time>
  <course>0.0</course>
  <speed>0.0</speed>
  <fix>3d</fix>
</trkpt>
<trkpt lat="40.072842" lon="-105.230575">
  <ele>1586.09</ele>
  <time>2026-08-28T19:10:22Z</time>
  <course>258.95</course>
  <speed>0.0</speed>
  <fix>3d</fix>
</trkpt>
<trkpt lat="40.072842" lon="-105.230575">
  <ele>1586.09</ele>
  <time>2026-08-28T19:10:22Z</time>
  <course>0.0</course>
  <speed>0.0</speed>
  <fix>3d</fix>
</trkpt>
<trkpt lat="40.072842" lon="-105.230575">
  <ele>1586.09</ele>
  <time>2026-08-28T19:10:22Z</time>
  <course>175.92</course>
  <speed>0.0</speed>
  <fix>3d</fix>
</trkpt>
<trkpt lat="40.072842" lon="-105.230575">
  <ele>1586.09</ele>
  <time>2026-08-28T19:10:22Z</time>
  <course>0.0</course>
  <speed>0.0</speed>
  <fix>3d</fix>
</trkpt>
<trkpt lat="40.072842" lon="-105.230575">
  <ele>1586.09</ele>
  <time>2026-08-28T19:10:22Z</time>
  <course>12.3</course>
  <speed>0.0</speed>
  <fix>3d</fix>
</trkpt>
<trkpt lat="40.072842" lon="-105.230575">
  <ele>1586.09</ele>
  <time>2026-08-28T19:10:22Z</time>
  <course>0.0</course>
  <speed>0.0</speed>
  <fix>3d</fix>
</trkpt>
<trkpt lat="40.072842" lon="-105.230575">
  <ele>1586.09</ele>
  <time>2026-08-28T19:10:22Z</time>
  <course>251.26</course>
  <speed>0.0</speed>
  <fix>3d</fix>
</trkpt>
<trkpt lat="40.072842" lon="-105.230575">
  <ele>1586.09</ele>
  <time>2026-08-28T19:10:22Z</time>
  <course>0.0</course>
  <speed>0.0</speed>
  <fix>3d</fix>
</trkpt>
<trkpt lat="40.072842" lon="-105.230575">
  <ele>1586.09</ele>
  <time>2026-08-28T19:10:22Z</time>
  <course>154.02</course>
  <speed>0.0</speed>
  <fix>3d</fix>
</trkpt>
<trkpt lat="40.072842" lon="-105.230575">
  <ele>1586.09</ele>
  <time>2026-08-28T19:10:22Z</time>
  <course>0.0</course>
  <speed>0.0</speed>
  <fix>3d</fix>
</trkpt>
<trkpt lat="40.072842" lon="-105.230575">
  <ele>1586.09</ele>
  <time>2026-08-28T19:10:22Z</time>
  <course>111.61</course>
  <speed>0.0</speed>
  <fix>3d</fix>
</trkpt>
<trkpt lat="40.072842" lon="-105.230575">
  <ele>1586.09</ele>
  <time>2026-08-28T19:10:22Z</time>
  <course>0.0</course>
  <speed>0.0</speed>
  <fix>3d</fix>
</trkpt>
<trkpt lat="40.072842" lon="-105.230575">
  <ele>1586.09</ele>
  <time>2026-08-28T19:10:22Z</time>
  <course>66.22</course>
  <speed>0.0</speed>
  <fix>3d</fix>
</trkpt>
<trkpt lat="40.072842" lon="-105.230575">
  <ele>1586.09</ele>
  <time>2026-08-28T19:10:22Z</time>
  <course>0.0</course>
  <speed>0.0</speed>
  <fix>3d</fix>
</trkpt>
<trkpt lat="40.072842" lon="-105.230575">
  <ele>1586.09</ele>
  <time>2026-08-28T19:10:22Z</time>
  <course>321.53</course>
  <speed>0.0</speed>
  <fix>3d</fix>
</trkpt>
<trkpt lat="40.072842" lon="-105.230575">
  <ele>1586.09</ele>
  <time>2026-08-28T19:10:22Z</time>
  <course>0.0</course>
  <speed>0.0</speed>
  <fix>3d</fix>
</trkpt>
<trkpt lat="40.072842" lon="-105.230575">
  <ele>1586.09</ele>
  <time>2026-08-28T19:10:22Z</time>
  <course>247.1</course>
  <speed>0.0</speed>
  <fix>3d</fix>
</trkpt>
<trkpt lat="40.072842" lon="-105.230575">
  <ele>1586.09</ele>
  <time>2026-08-28T19:10:22Z</time>
  <course>0.0</course>
  <speed>0.0</speed>
  <fix>3d</fix>
</trkpt>
<trkpt lat="40.072842" lon="-105.230575">
  <ele>1586.09</ele>
  <time>2026-08-28T19:10:22Z</time>
  <course>111.31</course>
  <speed>0.0</speed>
  <fix>3d</fix>
</trkpt>
<trkpt lat="40.072842" lon="-105.230575">
  <ele>1586.09</ele>
  <time>2026-08-28T19:10:22Z</time>
  <course>0.0</course>
  <speed>0.0</speed>
  <fix>3d</fix>
</trkpt>
<trkpt lat="40.072842" lon="-105.230575">
  <ele>1586.09</ele>
  <time>2026-08-28T19:10:22Z</time>
  <course>358.22</course>
  <speed>0.0</speed>
  <fix>3d</fix>
</trkpt>
<trkpt lat="40.072842" lon="-105.230575">
  <ele>1586.09</ele>
  <time>2026-08-28T19:10:22Z</time>
  <course>359.99</course>
  <speed>0.0</speed>
  <fix>3d</fix>
</trkpt>
<trkpt lat="40.072842" lon="-105.230575">
  <ele>1586.09</ele>
  <time>2026-08-28T19:10:22Z</time>
  <course>330.57</course>
  <speed>0.0</speed>
  <fix>3d</fix>
</trkpt>
<trkpt lat="40.072842" lon="-105.230575">
  <ele>1586.09</ele>
  <time>2026-08-28T19:10:22Z</time>
  <course>359.99</course>
  <speed>0.0</speed>
  <fix>3d</fix>
</trkpt>
<trkpt lat="40.072842" lon="-105.230575">
  <ele>1586.09</ele>
  <time>2026-08-28T19:10:22Z</time>
  <course>314.49</course>
  <speed>0.0</speed>
  <fix>3d</fix>
</trkpt>
<trkpt lat="40.072842" lon="-105.230575">
  <ele>1586.09</ele>
  <time>2026-08-28T19:10:22Z</time>
  <course>359.98</course>
  <speed>0.0</speed>
  <fix>3d</fix>
</trkpt>
<trkpt lat="40.072842" lon="-105.230575">
  <ele>1586.09</ele>
  <time>2026-08-28T19:10:22Z</time>
  <course>88.54</course>
  <speed>0.0</speed>
  <fix>3d</fix>
</trkpt>
<trkpt lat="40.072842" lon="-105.230575">
  <ele>1586.09</ele>
  <time>2026-08-28T19:10:22Z</time>
  <course>359.97</course>
  <speed>0.0</speed>
  <fix>3d</fix>
</trkpt>
<trkpt lat="40.072842" lon="-105.230575">
  <ele>1586.09</ele>
  <time>2026-08-28T19:10:22Z</time>
  <course>278.95</course>
  <speed>0.0</speed>
  <fix>3d</fix>
</trkpt>
<trkpt lat="40.072842" lon="-105.230575">
  <ele>1586.09</ele>
  <time>2026-08-28T19:10:22Z</time>
  <course>359.96</course>
  <speed>0.0</speed>
  <fix>3d</fix>
</trkpt>
<trkpt lat="40.072842" lon="-105.230575">
  <ele>1586.09</ele>
  <time>2026-08-28T19:10:22Z</time>
  <course>233.18</course>
  <speed>0.0</speed>
  <fix>3d</fix>
</trkpt>
<trkpt lat="40.072842" lon="-105.230575">
  <ele>1586.09</ele>
  <time>2026-08-28T19:10:22Z</time>
  <course>359.94</course>
  <speed>0.0</speed>
  <fix>3d</fix>
</trkpt>
<trkpt lat="40.072842" lon="-105.230575">
  <ele>1586.09</ele>
  <time>2026-08-28T19:10:22Z</time>
  <course>241.49</course>
  <speed>0.0</speed>
  <fix>3d</fix>
</trkpt>
<trkpt lat="40.072842" lon="-105.230575">
  <ele>1586.09</ele>
  <time>2026-08-28T19:10:22Z</time>
  <course>359.93</course>
  <speed>0.0</speed>
  <fix>3d</fix>
</trkpt>
<trkpt lat="40.072842" lon="-105.230575">
  <ele>1586.09</ele>
  <time>2026-08-28T19:10:22Z</time>
  <course>236.36</course>
  <speed>0.0</speed>
  <fix>3d</fix>
</trkpt>
<trkpt lat="40.072842" lon="-105.230575">
  <ele>1586.09</ele>
  <time>2026-08-28T19:10:22Z</time>
  <course>359.91</course>
  <speed>0.0</speed>
  <fix>3d</fix>
</trkpt>
<trkpt lat="40.072842" lon="-105.230575">
  <ele>1586.09</ele>
  <time>2026-08-28T19:10:22Z</time>
  <course>247.35</course>
  <speed>0.0</speed>
  <fix>3d</fix>
</trkpt>
<trkpt lat="40.072842" lon="-105.230575">
  <ele>1586.09</ele>
  <time>2026-08-28T19:10:22Z</time>
  <course>359.89</course>
  <speed>0.0</speed>
  <fix>3d</fix>
</trkpt>
<trkpt lat="40.072842" lon="-105.230575">
  <ele>1586.09</ele>
  <time>2026-08-28T19:10:22Z</time>
  <course>250.99</course>
  <speed>0.0</speed>
  <fix>3d</fix>
</trkpt>
<trkpt lat="40.072842" lon="-105.230575">
  <ele>1586.09</ele>
  <time>2026-08-28T19:10:22Z</time>
  <course>359.87</course>
  <speed>0.0</speed>
  <fix>3d</fix>
</trkpt>
<trkpt lat="40.072842" lon="-105.230575">
  <ele>1586.09</ele>
  <time>2026-08-28T19:10:22Z</time>
  <course>240.18</course>
  <speed>0.0</speed>
  <fix>3d</fix>
</trkpt>
<trkpt lat="40.072842" lon="-105.230575">
  <ele>1586.09</ele>
  <time>2026-08-28T19:10:22Z</time>
  <course>359.85</course>
  <speed>0.0</speed>
  <fix>3d</fix>
</trkpt>
<trkpt lat="40.072842" lon="-105.230575">
  <ele>1586.09</ele>
  <time>2026-08-28T19:10:22Z</time>
  <course>282.98</course>
  <speed>0.0</speed>
  <fix>3d</fix>
</trkpt>
<trkpt lat="40.072842" lon="-105.230575">
  <ele>1586.09</ele>
  <time>2026-08-28T19:10:22Z</time>
  <course>359.83</course>
  <speed>0.0</speed>
  <fix>3d</fix>
</trkpt>
<trkpt lat="40.072842" lon="-105.230575">
  <ele>1586.09</ele>
  <time>2026-08-28T19:10:22Z</time>
  <course>306.6</course>
  <speed>0.0</speed>
  <fix>3d</fix>
</trkpt>
<trkpt lat="40.072842" lon="-105.230575">
  <ele>1586.09</ele>
  <time>2026-08-28T19:10:22Z</time>
  <course>359.81</course>
  <speed>0.0</speed>
  <fix>3d</fix>
</trkpt>
<trkpt lat="40.072842" lon="-105.230575">
  <ele>1586.09</ele>
  <time>2026-08-28T19:10:22Z</time>
  <course>291.13</course>
  <speed>0.0</speed>
  <fix>3d</fix>
</trkpt>
<trkpt lat="40.072842" lon="-105.230575">
  <ele>1586.09</ele>
  <time>2026-08-28T19:10:22Z</time>
  <course>359.78</course>
  <speed>0.0</speed>
  <fix>3d</fix>
</trkpt>
<trkpt lat="40.072842" lon="-105.230575">
  <ele>1586.09</ele>
  <time>2026-08-28T19:10:22Z</time>
  <course>280.68</course>
  <speed>0.0</speed>
  <fix>3d</fix>
</trkpt>
<trkpt lat="40.072842" lon="-105.230575">
  <ele>1586.09</ele>
  <time>2026-08-28T19:10:22Z</time>
  <course>359.75</course>
  <speed>0.0</speed>
  <fix>3d</fix>
</trkpt>
<trkpt lat="40.072842" lon="-105.230575">
  <ele>1586.09</ele>
  <time>2026-08-28T19:10:22Z</time>
  <course>261.58</course>
  <speed>0.0</speed>
  <fix>3d</fix>
</trkpt>
<trkpt lat="40.072842" lon="-105.230575">
  <ele>1586.09</ele>
  <time>2026-08-28T19:10:22Z</time>
  <course>359.73</course>
  <speed>0.0</speed>
  <fix>3d</fix>
</trkpt>
<trkpt lat="40.072842" lon="-105.230575">
  <ele>1586.09</ele>
  <time>2026-08-28T19:10:22Z</time>
  <course>247.63</course>
  <speed>0.0</speed>
  <fix>3d</fix>
</trkpt>
<trkpt lat="40.072842" lon="-105.230575">
  <ele>1586.09</ele>
  <time>2026-08-28T19:10:22Z</time>
  <course>359.7</course>
  <speed>0.0</speed>
  <fix>3d</fix>
</trkpt>
<trkpt lat="40.072842" lon="-105.230575">
  <ele>1586.09</ele>
  <time>2026-08-28T19:10:22Z</time>
  <course>254.38</course>
  <speed>0.0</speed>
  <fix>3d</fix>
</trkpt>
<trkpt lat="40.072842" lon="-105.230575">
  <ele>1586.09</ele>
  <time>2026-08-28T19:10:22Z</time>
  <course>359.66</course>
  <speed>0.0</speed>
  <fix>3d</fix>
</trkpt>
<trkpt lat="40.072842" lon="-105.230575">
  <ele>1586.09</ele>
  <time>2026-08-28T19:10:22Z</time>
  <course>267.61</course>
  <speed>0.0</speed>
  <fix>3d</fix>
</trkpt>
<trkpt lat="40.072842" lon="-105.230575">
  <ele>1586.09</ele>
  <time>2026-08-28T19:10:22Z</time>
  <course>359.63</course>
  <speed>0.0</speed>
  <fix>3d</fix>
</trkpt>
<trkpt lat="40.072842" lon="-105.230575">
  <ele>1586.09</ele>
  <time>2026-08-28T19:10:22Z</time>
  <course>271.22</course>
  <speed>0.0</speed>
  <fix>3d</fix>
</trkpt>
<trkpt lat="40.072842" lon="-105.230575">
  <ele>1586.09</ele>
  <time>2026-08-28T19:10:22Z</time>
  <course>359.6</course>
  <speed>0.0</speed>
  <fix>3d</fix>
</trkpt>
<trkpt lat="40.072842" lon="-105.230575">
  <ele>1586.09</ele>
  <time>2026-08-28T19:10:22Z</time>
  <course>273.78</course>
  <speed>0.0</speed>
  <fix>3d</fix>
</trkpt>
<trkpt lat="40.072842" lon="-105.230575">
  <ele>1586.09</ele>
  <time>2026-08-28T19:10:22Z</time>
  <course>359.56</course>
  <speed>0.0</speed>
  <fix>3d</fix>
</trkpt>
<trkpt lat="40.072842" lon="-105.230575">
  <ele>1586.09</ele>
  <time>2026-08-28T19:10:22Z</time>
  <course>268.37</course>
  <speed>0.0</speed>
  <fix>3d</fix>
</trkpt>
<trkpt lat="40.072842" lon="-105.230575">
  <ele>1586.09</ele>
  <time>2026-08-28T19:10:22Z</time>
  <course>359.53</course>
  <speed>0.0</speed>
  <fix>3d</fix>
</trkpt>
<trkpt lat="40.072842" lon="-105.230575">
  <ele>1586.09</ele>
  <time>2026-08-28T19:10:22Z</time>
  <course>264.96</course>
  <speed>0.0</speed>
  <fix>3d</fix>
</trkpt>
<trkpt lat="40.072842" lon="-105.230575">
  <ele>1586.09</ele>
  <time>2026-08-28T19:10:22Z</time>
  <course>359.49</course>
  <speed>0.0</speed>
  <fix>3d</fix>
</trkpt>
<trkpt lat="40.072842" lon="-105.230575">
  <ele>1586.09</ele>
  <time>2026-08-28T19:10:22Z</time>
  <course>265.58</course>
  <speed>0.0</speed>
  <fix>3d</fix>
</trkpt>
<trkpt lat="40.072842" lon="-105.230575">
  <ele>1586.09</ele>
  <time>2026-08-28T19:10:22Z</time>
  <course>359.45</course>
  <speed>0.0</speed>
  <fix>3d</fix>
</trkpt>
<trkpt lat="40.072842" lon="-105.230575">
  <ele>1586.09</ele>
  <time>2026-08-28T19:10:22Z</time>
  <course>261.47</course>
  <speed>0.0</speed>
  <fix>3d</fix>
</trkpt>
<trkpt lat="40.072842" lon="-105.230575">
  <ele>1586.09</ele>
  <time>2026-08-28T19:10:22Z</time>
  <course>359.41</course>
  <speed>0.0</speed>
  <fix>3d</fix>
</trkpt>
<trkpt lat="40.072842" lon="-105.230575">
  <ele>1586.09</ele>
  <time>2026-08-28T19:10:22Z</time>
  <course>270.21</course>
  <speed>0.0</speed>
  <fix>3d</fix>
</trkpt>
<trkpt lat="40.072842" lon="-105.230575">
  <ele>1586.09</ele>
  <time>2026-08-28T19:10:22Z</time>
  <course>359.37</course>
  <speed>0.0</speed>
  <fix>3d</fix>
</trkpt>
<trkpt lat="40.072842" lon="-105.230575">
  <ele>1586.09</ele>
  <time>2026-08-28T19:10:22Z</time>
  <course>274.42</course>
  <speed>0.0</speed>
  <fix>3d</fix>
</trkpt>
<trkpt lat="40.072842" lon="-105.230575">
  <ele>1586.09</ele>
  <time>2026-08-28T19:10:22Z</time>
  <course>359.33</course>
  <speed>0.0</speed>
  <fix>3d</fix>
</trkpt>
<trkpt lat="40.072842" lon="-105.230575">
  <ele>1586.09</ele>
  <time>2026-08-28T19:10:22Z</time>
  <course>272.84</course>
  <speed>0.0</speed>
  <fix>3d</fix>
</trkpt>
<trkpt lat="40.072842" lon="-105.230575">
  <ele>1586.09</ele>
  <time>2026-08-28T19:10:22Z</time>
  <course>359.29</course>
  <speed>0.0</speed>
  <fix>3d</fix>
</trkpt>
<trkpt lat="40.072842" lon="-105.230575">
  <ele>1586.09</ele>
  <time>2026-08-28T19:10:22Z</time>
  <course>269.07</course>
  <speed>0.0</speed>
  <fix>3d</fix>
</trkpt>
<trkpt lat="40.072842" lon="-105.230575">
  <ele>1586.09</ele>
  <time>2026-08-28T19:10:22Z</time>
  <course>359.24</course>
  <speed>0.0</speed>
  <fix>3d</fix>
</trkpt>
<trkpt lat="40.072842" lon="-105.230575">
  <ele>1586.09</ele>
  <time>2026-08-28T19:10:22Z</time>
  <course>268.71</course>
  <speed>0.0</speed>
  <fix>3d</fix>
</trkpt>
<trkpt lat="40.072842" lon="-105.230575">
  <ele>1586.09</ele>
  <time>2026-08-28T19:10:22Z</time>
  <course>359.2</course>
  <speed>0.0</speed>
  <fix>3d</fix>
</trkpt>
<trkpt lat="40.072842" lon="-105.230575">
  <ele>1586.09</ele>
  <time>2026-08-28T19:10:22Z</time>
  <course>267.27</course>
  <speed>0.0</speed>
  <fix>3d</fix>
</trkpt>
<trkpt lat="40.072842" lon="-105.230575">
  <ele>1586.09</ele>
  <time>2026-08-28T19:10:22Z</time>
  <course>359.15</course>
  <speed>0.0</speed>
  <fix>3d</fix>
</trkpt>
<trkpt lat="40.072842" lon="-105.230575">
  <ele>1586.09</ele>
  <time>2026-08-28T19:10:22Z</time>
  <course>266.56</course>
  <speed>0.0</speed>
  <fix>3d</fix>
</trkpt>
<trkpt lat="40.072842" lon="-105.230575">
  <ele>1586.09</ele>
  <time>2026-08-28T19:10:22Z</time>
  <course>359.11</course>
  <speed>0.0</speed>
  <fix>3d</fix>
</trkpt>
<trkpt lat="40.072842" lon="-105.230575">
  <ele>1586.09</ele>
  <time>2026-08-28T19:10:22Z</time>
  <course>270.08</course>
  <speed>0.0</speed>
  <fix>3d</fix>
</trkpt>
<trkpt lat="40.072842" lon="-105.230575">
  <ele>1586.09</ele>
  <time>2026-08-28T19:10:22Z</time>
  <course>359.06</course>
  <speed>0.0</speed>
  <fix>3d</fix>
</trkpt>
<trkpt lat="40.072842" lon="-105.230575">
  <ele>1586.09</ele>
  <time>2026-08-28T19:10:22Z</time>
  <course>271.76</course>
  <speed>0.0</speed>
  <fix>3d</fix>
</trkpt>
<trkpt lat="40.072842" lon="-105.230575">
  <ele>1586.09</ele>
  <time>2026-08-28T19:10:22Z</time>
  <course>359.01</course>
  <speed>0.0</speed>
  <fix>3d</fix>
</trkpt>
<trkpt lat="40.072842" lon="-105.230575">
  <ele>1586.09</ele>
  <time>2026-08-28T19:10:22Z</time>
  <course>269.94</course>
  <speed>0.0</speed>
  <fix>3d</fix>
</trkpt>
<trkpt lat="40.072842" lon="-105.230575">
  <ele>1586.09</ele>
  <time>2026-08-28T19:10:22Z</time>
  <course>358.96</course>
  <speed>0.0</speed>
  <fix>3d</fix>
</trkpt>
<trkpt lat="40.072842" lon="-105.230575">
  <ele>1586.09</ele>
  <time>2026-08-28T19:10:22Z</time>
  <course>266.89</course>
  <speed>0.0</speed>
  <fix>3d</fix>
</trkpt>
<trkpt lat="40.072842" lon="-105.230575">
  <ele>1586.09</ele>
  <time>2026-08-28T19:10:22Z</time>
  <course>358.91</course>
  <speed>0.0</speed>
  <fix>3d</fix>
</trkpt>
<trkpt lat="40.072842" lon="-105.230575">
  <ele>1586.09</ele>
  <time>2026-08-28T19:10:22Z</time>
  <course>265.19</course>
  <speed>0.0</speed>
  <fix>3d</fix>
</trkpt>
<trkpt lat="40.072842" lon="-105.230575">
  <ele>1586.09</ele>
  <time>2026-08-28T19:10:22Z</time>
  <course>358.86</course>
  <speed>0.0</speed>
  <fix>3d</fix>
</trkpt>
<trkpt lat="40.072842" lon="-105.230575">
  <ele>1586.09</ele>
  <time>2026-08-28T19:10:22Z</time>
  <course>266.2</course>
  <speed>0.0</speed>
  <fix>3d</fix>
</trkpt>
<trkpt lat="40.072842" lon="-105.230575">
  <ele>1586.09</ele>
  <time>2026-08-28T19:10:22Z</time>
  <course>358.81</course>
  <speed>0.0</speed>
  <fix>3d</fix>
</trkpt>
<trkpt lat="40.072842" lon="-105.230575">
  <ele>1586.09</ele>
  <time>2026-08-28T19:10:22Z</time>
  <course>268.49</course>
  <speed>0.0</speed>
  <fix>3d</fix>
</trkpt>
<trkpt lat="40.072842" lon="-105.230575">
  <ele>1586.09</ele>
  <time>2026-08-28T19:10:22Z</time>
  <course>358.76</course>
  <speed>0.0</speed>
  <fix>3d</fix>
</trkpt>
<trkpt lat="40.072842" lon="-105.230575">
  <ele>1586.09</ele>
  <time>2026-08-28T19:10:22Z</time>
  <course>268.78</course>
  <speed>0.0</speed>
  <fix>3d</fix>
</trkpt>
<trkpt lat="40.072842" lon="-105.230575">
  <ele>1586.09</ele>
  <time>2026-08-28T19:10:22Z</time>
  <course>358.71</course>
  <speed>0.0</speed>
  <fix>3d</fix>
</trkpt>
<trkpt lat="40.072842" lon="-105.230575">
  <ele>1586.09</ele>
  <time>2026-08-28T19:10:22Z</time>
  <course>269.82</course>
  <speed>0.0</speed>
  <fix>3d</fix>
</trkpt>
<trkpt lat="40.072842" lon="-105.230575">
  <ele>1586.09</ele>
  <time>2026-08-28T19:10:22Z</time>
  <course>358.66</course>
  <speed>0.0</speed>
  <fix>3d</fix>
</trkpt>
<trkpt lat="40.072842" lon="-105.230575">
  <ele>1586.09</ele>
  <time>2026-08-28T19:10:22Z</time>
  <course>272.23</course>
  <speed>0.0</speed>
  <fix>3d</fix>
</trkpt>
<trkpt lat="40.072842" lon="-105.230575">
  <ele>1586.09</ele>
  <time>2026-08-28T19:10:22Z</time>
  <course>358.62</course>
  <speed>0.0</speed>
  <fix>3d</fix>
</trkpt>
<trkpt lat="40.072842" lon="-105.230575">
  <ele>1586.09</ele>
  <time>2026-08-28T19:10:22Z</time>
  <course>267.31</course>
  <speed>0.0</speed>
  <fix>3d</fix>
</trkpt>
<trkpt lat="40.072842" lon="-105.230575">
  <ele>1586.09</ele>
  <time>2026-08-28T19:10:22Z</time>
  <course>358.57</course>
  <speed>0.0</speed>
  <fix>3d</fix>
</trkpt>
<trkpt lat="40.072842" lon="-105.230575">
  <ele>1586.09</ele>
  <time>2026-08-28T19:10:22Z</time>
  <course>264.28</course>
  <speed>0.0</speed>
  <fix>3d</fix>
</trkpt>
<trkpt lat="40.072842" lon="-105.230575">
  <ele>1586.09</ele>
  <time>2026-08-28T19:10:22Z</time>
  <course>358.52</course>
  <speed>0.0</speed>
  <fix>3d</fix>
</trkpt>
<trkpt lat="40.072842" lon="-105.230575">
  <ele>1586.09</ele>
  <time>2026-08-28T19:10:22Z</time>
  <course>266.47</course>
  <speed>0.0</speed>
  <fix>3d</fix>
</trkpt>
<trkpt lat="40.072842" lon="-105.230575">
  <ele>1586.09</ele>
  <time>2026-08-28T19:10:22Z</time>
  <course>358.48</course>
  <speed>0.0</speed>
  <fix>3d</fix>
</trkpt>
<trkpt lat="40.072842" lon="-105.230575">
  <ele>1586.09</ele>
  <time>2026-08-28T19:10:22Z</time>
  <course>268.64</course>
  <speed>0.0</speed>
  <fix>3d</fix>
</trkpt>
<trkpt lat="40.072842" lon="-105.230575">
  <ele>1586.09</ele>
  <time>2026-08-28T19:10:22Z</time>
  <course>358.43</course>
  <speed>0.0</speed>
  <fix>3d</fix>
</trkpt>
<trkpt lat="40.072842" lon="-105.230575">
  <ele>1586.09</ele>
  <time>2026-08-28T19:10:22Z</time>
  <course>271.29</course>
  <speed>0.0</speed>
  <fix>3d</fix>
</trkpt>
<trkpt lat="40.072842" lon="-105.230575">
  <ele>1586.09</ele>
  <time>2026-08-28T19:10:22Z</time>
  <course>358.38</course>
  <speed>0.0</speed>
  <fix>3d</fix>
</trkpt>
<trkpt lat="40.072842" lon="-105.230575">
  <ele>1586.09</ele>
  <time>2026-08-28T19:10:22Z</time>
  <course>270.01</course>
  <speed>0.0</speed>
  <fix>3d</fix>
</trkpt>
<trkpt lat="40.072842" lon="-105.230575">
  <ele>1586.09</ele>
  <time>2026-08-28T19:10:22Z</time>
  <course>358.34</course>
  <speed>0.0</speed>
  <fix>3d</fix>
</trkpt>
<trkpt lat="40.072842" lon="-105.230575">
  <ele>1586.09</ele>
  <time>2026-08-28T19:10:22Z</time>
  <course>266.7</course>
  <speed>0.0</speed>
  <fix>3d</fix>
</trkpt>
<trkpt lat="40.072842" lon="-105.230575">
  <ele>1586.09</ele>
  <time>2026-08-28T19:10:22Z</time>
  <course>358.3</course>
  <speed>0.0</speed>
  <fix>3d</fix>
</trkpt>
<trkpt lat="40.072842" lon="-105.230575">
  <ele>1586.09</ele>
  <time>2026-08-28T19:10:22Z</time>
  <course>264.96</course>
  <speed>0.0</speed>
  <fix>3d</fix>
</trkpt>
<trkpt lat="40.072842" lon="-105.230575">
  <ele>1586.09</ele>
  <time>2026-08-28T19:10:22Z</time>
  <course>358.25</course>
  <speed>0.0</speed>
  <fix>3d</fix>
</trkpt>
<trkpt lat="40.072842" lon="-105.230575">
  <ele>1586.09</ele>
  <time>2026-08-28T19:10:22Z</time>
  <course>264.66</course>
  <speed>0.0</speed>
  <fix>3d</fix>
</trkpt>
<trkpt lat="40.072842" lon="-105.230575">
  <ele>1586.09</ele>
  <time>2026-08-28T19:10:22Z</time>
  <course>358.21</course>
  <speed>0.0</speed>
  <fix>3d</fix>
</trkpt>
<trkpt lat="40.072842" lon="-105.230575">
  <ele>1586.09</ele>
  <time>2026-08-28T19:10:22Z</time>
  <course>264.74</course>
  <speed>0.0</speed>
  <fix>3d</fix>
</trkpt>
<trkpt lat="40.072842" lon="-105.230575">
  <ele>1586.09</ele>
  <time>2026-08-28T19:10:22Z</time>
  <course>358.17</course>
  <speed>0.0</speed>
  <fix>3d</fix>
</trkpt>
<trkpt lat="40.072842" lon="-105.230575">
  <ele>1586.09</ele>
  <time>2026-08-28T19:10:22Z</time>
  <course>268.96</course>
  <speed>0.0</speed>
  <fix>3d</fix>
</trkpt>
<trkpt lat="40.072842" lon="-105.230575">
  <ele>1586.09</ele>
  <time>2026-08-28T19:10:22Z</time>
  <course>358.13</course>
  <speed>0.0</speed>
  <fix>3d</fix>
</trkpt>
<trkpt lat="40.072842" lon="-105.230575">
  <ele>1586.09</ele>
  <time>2026-08-28T19:10:22Z</time>
  <course>268.24</course>
  <speed>0.0</speed>
  <fix>3d</fix>
</trkpt>
<trkpt lat="40.072842" lon="-105.230575">
  <ele>1586.09</ele>
  <time>2026-08-28T19:10:22Z</time>
  <course>358.09</course>
  <speed>0.0</speed>
  <fix>3d</fix>
</trkpt>
<trkpt lat="40.072842" lon="-105.230575">
  <ele>1586.09</ele>
  <time>2026-08-28T19:10:22Z</time>
  <course>265.65</course>
  <speed>0.0</speed>
  <fix>3d</fix>
</trkpt>
<trkpt lat="40.072842" lon="-105.230575">
  <ele>1586.09</ele>
  <time>2026-08-28T19:10:22Z</time>
  <course>358.05</course>
  <speed>0.0</speed>
  <fix>3d</fix>
</trkpt>
<trkpt lat="40.072842" lon="-105.230575">
  <ele>1586.09</ele>
  <time>2026-08-28T19:10:22Z</time>
  <course>266.45</course>
  <speed>0.0</speed>
  <fix>3d</fix>
</trkpt>
<trkpt lat="40.072842" lon="-105.230575">
  <ele>1586.09</ele>
  <time>2026-08-28T19:10:22Z</time>
  <course>358.01</course>
  <speed>0.0</speed>
  <fix>3d</fix>
</trkpt>
<trkpt lat="40.072842" lon="-105.230575">
  <ele>1586.09</ele>
  <time>2026-08-28T19:10:22Z</time>
  <course>263.06</course>
  <speed>0.0</speed>
  <fix>3d</fix>
</trkpt>
<trkpt lat="40.072842" lon="-105.230575">
  <ele>1586.09</ele>
  <time>2026-08-28T19:10:22Z</time>
  <course>357.97</course>
  <speed>0.0</speed>
  <fix>3d</fix>
</trkpt>
<trkpt lat="40.072842" lon="-105.230575">
  <ele>1586.09</ele>
  <time>2026-08-28T19:10:22Z</time>
  <course>263.52</course>
  <speed>0.0</speed>
  <fix>3d</fix>
</trkpt>
<trkpt lat="40.072842" lon="-105.230575">
  <ele>1586.09</ele>
  <time>2026-08-28T19:10:22Z</time>
  <course>357.93</course>
  <speed>0.0</speed>
  <fix>3d</fix>
</trkpt>
<trkpt lat="40.072842" lon="-105.230575">
  <ele>1586.09</ele>
  <time>2026-08-28T19:10:22Z</time>
  <course>267.23</course>
  <speed>0.0</speed>
  <fix>3d</fix>
</trkpt>
<trkpt lat="40.072842" lon="-105.230575">
  <ele>1586.09</ele>
  <time>2026-08-28T19:10:22Z</time>
  <course>357.89</course>
  <speed>0.0</speed>
  <fix>3d</fix>
</trkpt>
<trkpt lat="40.072842" lon="-105.230575">
  <ele>1586.09</ele>
  <time>2026-08-28T19:10:22Z</time>
  <course>270.24</course>
  <speed>0.0</speed>
  <fix>3d</fix>
</trkpt>
<trkpt lat="40.072842" lon="-105.230575">
  <ele>1586.09</ele>
  <time>2026-08-28T19:10:22Z</time>
  <course>357.85</course>
  <speed>0.0</speed>
  <fix>3d</fix>
</trkpt>
<trkpt lat="40.072842" lon="-105.230575">
  <ele>1586.09</ele>
  <time>2026-08-28T19:10:22Z</time>
  <course>270.64</course>
  <speed>0.0</speed>
  <fix>3d</fix>
</trkpt>
<trkpt lat="40.072842" lon="-105.230575">
  <ele>1586.09</ele>
  <time>2026-08-28T19:10:22Z</time>
  <course>357.81</course>
  <speed>0.0</speed>
  <fix>3d</fix>
</trkpt>
<trkpt lat="40.072842" lon="-105.230575">
  <ele>1586.09</ele>
  <time>2026-08-28T19:10:22Z</time>
  <course>269.11</course>
  <speed>0.0</speed>
  <fix>3d</fix>
</trkpt>
<trkpt lat="40.072842" lon="-105.230575">
  <ele>1586.09</ele>
  <time>2026-08-28T19:10:22Z</time>
  <course>357.77</course>
  <speed>0.0</speed>
  <fix>3d</fix>
</trkpt>
<trkpt lat="40.072842" lon="-105.230575">
  <ele>1586.09</ele>
  <time>2026-08-28T19:10:22Z</time>
  <course>267.57</course>
  <speed>0.0</speed>
  <fix>3d</fix>
</trkpt>
<trkpt lat="40.072842" lon="-105.230575">
  <ele>1586.09</ele>
  <time>2026-08-28T19:10:22Z</time>
  <course>357.74</course>
  <speed>0.0</speed>
  <fix>3d</fix>
</trkpt>
<trkpt lat="40.072842" lon="-105.230575">
  <ele>1586.09</ele>
  <time>2026-08-28T19:10:22Z</time>
  <course>266.9</course>
  <speed>0.0</speed>
  <fix>3d</fix>
</trkpt>
<trkpt lat="40.072842" lon="-105.230575">
  <ele>1586.09</ele>
  <time>2026-08-28T19:10:23Z</time>
  <course>357.7</course>
  <speed>0.0</speed>
  <fix>3d</fix>
</trkpt>
<trkpt lat="40.072842" lon="-105.230575">
  <ele>1586.09</ele>
  <time>2026-08-28T19:10:23Z</time>
  <course>265.43</course>
  <speed>0.0</speed>
  <fix>3d</fix>
</trkpt>
<trkpt lat="40.072842" lon="-105.230575">
  <ele>1586.09</ele>
  <time>2026-08-28T19:10:23Z</time>
  <course>357.67</course>
  <speed>0.0</speed>
  <fix>3d</fix>
</trkpt>
<trkpt lat="40.072842" lon="-105.230575">
  <ele>1586.09</ele>
  <time>2026-08-28T19:10:23Z</time>
  <course>268.74</course>
  <speed>0.0</speed>
  <fix>3d</fix>
</trkpt>
<trkpt lat="40.072842" lon="-105.230575">
  <ele>1586.09</ele>
  <time>2026-08-28T19:10:23Z</time>
  <course>357.63</course>
  <speed>0.0</speed>
  <fix>3d</fix>
</trkpt>
<trkpt lat="40.072842" lon="-105.230575">
  <ele>1586.09</ele>
  <time>2026-08-28T19:10:23Z</time>
  <course>271.09</course>
  <speed>0.0</speed>
  <fix>3d</fix>
</trkpt>
<trkpt lat="40.072842" lon="-105.230575">
  <ele>1586.09</ele>
  <time>2026-08-28T19:10:23Z</time>
  <course>357.6</course>
  <speed>0.0</speed>
  <fix>3d</fix>
</trkpt>
<trkpt lat="40.072842" lon="-105.230575">
  <ele>1586.09</ele>
  <time>2026-08-28T19:10:23Z</time>
  <course>268.92</course>
  <speed>0.0</speed>
  <fix>3d</fix>
</trkpt>
<trkpt lat="40.072842" lon="-105.230575">
  <ele>1586.09</ele>
  <time>2026-08-28T19:10:23Z</time>
  <course>357.56</course>
  <speed>0.0</speed>
  <fix>3d</fix>
</trkpt>
<trkpt lat="40.072842" lon="-105.230575">
  <ele>1586.09</ele>
  <time>2026-08-28T19:10:23Z</time>
  <course>264.84</course>
  <speed>0.0</speed>
  <fix>3d</fix>
</trkpt>
<trkpt lat="40.072842" lon="-105.230575">
  <ele>1586.09</ele>
  <time>2026-08-28T19:10:23Z</time>
  <course>357.53</course>
  <speed>0.0</speed>
  <fix>3d</fix>
</trkpt>
<trkpt lat="40.072842" lon="-105.230575">
  <ele>1586.09</ele>
  <time>2026-08-28T19:10:23Z</time>
  <course>263.01</course>
  <speed>0.0</speed>
  <fix>3d</fix>
</trkpt>
<trkpt lat="40.072842" lon="-105.230575">
  <ele>1586.09</ele>
  <time>2026-08-28T19:10:23Z</time>
  <course>357.49</course>
  <speed>0.0</speed>
  <fix>3d</fix>
</trkpt>
<trkpt lat="40.072842" lon="-105.230575">
  <ele>1586.09</ele>
  <time>2026-08-28T19:10:23Z</time>
  <course>264.75</course>
  <speed>0.0</speed>
  <fix>3d</fix>
</trkpt>
<trkpt lat="40.072842" lon="-105.230575">
  <ele>1586.09</ele>
  <time>2026-08-28T19:10:23Z</time>
  <course>357.46</course>
  <speed>0.0</speed>
  <fix>3d</fix>
</trkpt>
<trkpt lat="40.072842" lon="-105.230575">
  <ele>1586.09</ele>
  <time>2026-08-28T19:10:23Z</time>
  <course>264.78</course>
  <speed>0.0</speed>
  <fix>3d</fix>
</trkpt>
<trkpt lat="40.072842" lon="-105.230575">
  <ele>1586.09</ele>
  <time>2026-08-28T19:10:23Z</time>
  <course>357.43</course>
  <speed>0.0</speed>
  <fix>3d</fix>
</trkpt>
<trkpt lat="40.072842" lon="-105.230575">
  <ele>1586.09</ele>
  <time>2026-08-28T19:10:23Z</time>
  <course>263.79</course>
  <speed>0.0</speed>
  <fix>3d</fix>
</trkpt>
<trkpt lat="40.072842" lon="-105.230575">
  <ele>1586.09</ele>
  <time>2026-08-28T19:10:23Z</time>
  <course>357.39</course>
  <speed>0.0</speed>
  <fix>3d</fix>
</trkpt>
<trkpt lat="40.072842" lon="-105.230575">
  <ele>1586.09</ele>
  <time>2026-08-28T19:10:23Z</time>
  <course>266.44</course>
  <speed>0.0</speed>
  <fix>3d</fix>
</trkpt>
<trkpt lat="40.072842" lon="-105.230575">
  <ele>1586.09</ele>
  <time>2026-08-28T19:10:23Z</time>
  <course>357.36</course>
  <speed>0.0</speed>
  <fix>3d</fix>
</trkpt>
<trkpt lat="40.072842" lon="-105.230575">
  <ele>1586.09</ele>
  <time>2026-08-28T19:10:23Z</time>
  <course>265.61</course>
  <speed>0.0</speed>
  <fix>3d</fix>
</trkpt>
<trkpt lat="40.072842" lon="-105.230575">
  <ele>1586.09</ele>
  <time>2026-08-28T19:10:23Z</time>
  <course>357.33</course>
  <speed>0.0</speed>
  <fix>3d</fix>
</trkpt>
<trkpt lat="40.072842" lon="-105.230575">
  <ele>1586.09</ele>
  <time>2026-08-28T19:10:23Z</time>
  <course>262.94</course>
  <speed>0.0</speed>
  <fix>3d</fix>
</trkpt>
<trkpt lat="40.072842" lon="-105.230575">
  <ele>1586.09</ele>
  <time>2026-08-28T19:10:23Z</time>
  <course>357.3</course>
  <speed>0.0</speed>
  <fix>3d</fix>
</trkpt>
<trkpt lat="40.072842" lon="-105.230575">
  <ele>1586.09</ele>
  <time>2026-08-28T19:10:23Z</time>
  <course>263.8</course>
  <speed>0.0</speed>
  <fix>3d</fix>
</trkpt>
<trkpt lat="40.072842" lon="-105.230575">
  <ele>1586.09</ele>
  <time>2026-08-28T19:10:23Z</time>
  <course>357.27</course>
  <speed>0.0</speed>
  <fix>3d</fix>
</trkpt>
<trkpt lat="40.072842" lon="-105.230575">
  <ele>1586.09</ele>
  <time>2026-08-28T19:10:23Z</time>
  <course>264.59</course>
  <speed>0.0</speed>
  <fix>3d</fix>
</trkpt>
<trkpt lat="40.072842" lon="-105.230575">
  <ele>1586.09</ele>
  <time>2026-08-28T19:10:23Z</time>
  <course>357.24</course>
  <speed>0.0</speed>
  <fix>3d</fix>
</trkpt>
<trkpt lat="40.072842" lon="-105.230575">
  <ele>1586.09</ele>
  <time>2026-08-28T19:10:23Z</time>
  <course>266.92</course>
  <speed>0.0</speed>
  <fix>3d</fix>
</trkpt>
<trkpt lat="40.072842" lon="-105.230575">
  <ele>1586.09</ele>
  <time>2026-08-28T19:10:23Z</time>
  <course>357.21</course>
  <speed>0.0</speed>
  <fix>3d</fix>
</trkpt>
<trkpt lat="40.072842" lon="-105.230575">
  <ele>1586.09</ele>
  <time>2026-08-28T19:10:23Z</time>
  <course>269.1</course>
  <speed>0.0</speed>
  <fix>3d</fix>
</trkpt>
<trkpt lat="40.072842" lon="-105.230575">
  <ele>1586.09</ele>
  <time>2026-08-28T19:10:23Z</time>
  <course>357.18</course>
  <speed>0.0</speed>
  <fix>3d</fix>
</trkpt>
<trkpt lat="40.072842" lon="-105.230575">
  <ele>1586.09</ele>
  <time>2026-08-28T19:10:23Z</time>
  <course>269.19</course>
  <speed>0.0</speed>
  <fix>3d</fix>
</trkpt>
<trkpt lat="40.072842" lon="-105.230575">
  <ele>1586.09</ele>
  <time>2026-08-28T19:10:23Z</time>
  <course>357.15</course>
  <speed>0.0</speed>
  <fix>3d</fix>
</trkpt>
<trkpt lat="40.072842" lon="-105.230575">
  <ele>1586.09</ele>
  <time>2026-08-28T19:10:23Z</time>
  <course>267.99</course>
  <speed>0.0</speed>
  <fix>3d</fix>
</trkpt>
<trkpt lat="40.072842" lon="-105.230575">
  <ele>1586.09</ele>
  <time>2026-08-28T19:10:23Z</time>
  <course>357.12</course>
  <speed>0.0</speed>
  <fix>3d</fix>
</trkpt>
<trkpt lat="40.072842" lon="-105.230575">
  <ele>1586.09</ele>
  <time>2026-08-28T19:10:23Z</time>
  <course>266.35</course>
  <speed>0.0</speed>
  <fix>3d</fix>
</trkpt>
<trkpt lat="40.072842" lon="-105.230575">
  <ele>1586.09</ele>
  <time>2026-08-28T19:10:23Z</time>
  <course>357.09</course>
  <speed>0.0</speed>
  <fix>3d</fix>
</trkpt>
<trkpt lat="40.072842" lon="-105.230575">
  <ele>1586.09</ele>
  <time>2026-08-28T19:10:23Z</time>
  <course>263.66</course>
  <speed>0.0</speed>
  <fix>3d</fix>
</trkpt>
<trkpt lat="40.072842" lon="-105.230575">
  <ele>1586.09</ele>
  <time>2026-08-28T19:10:23Z</time>
  <course>357.06</course>
  <speed>0.0</speed>
  <fix>3d</fix>
</trkpt>
<trkpt lat="40.072842" lon="-105.230575">
  <ele>1586.09</ele>
  <time>2026-08-28T19:10:23Z</time>
  <course>266.65</course>
  <speed>0.0</speed>
  <fix>3d</fix>
</trkpt>
<trkpt lat="40.072842" lon="-105.230575">
  <ele>1586.09</ele>
  <time>2026-08-28T19:10:23Z</time>
  <course>357.03</course>
  <speed>0.0</speed>
  <fix>3d</fix>
</trkpt>
<trkpt lat="40.072842" lon="-105.230575">
  <ele>1586.09</ele>
  <time>2026-08-28T19:10:23Z</time>
  <course>269.33</course>
  <speed>0.0</speed>
  <fix>3d</fix>
</trkpt>
<trkpt lat="40.072842" lon="-105.230575">
  <ele>1586.09</ele>
  <time>2026-08-28T19:10:23Z</time>
  <course>357.01</course>
  <speed>0.0</speed>
  <fix>3d</fix>
</trkpt>
<trkpt lat="40.072842" lon="-105.230575">
  <ele>1586.09</ele>
  <time>2026-08-28T19:10:23Z</time>
  <course>268.85</course>
  <speed>0.0</speed>
  <fix>3d</fix>
</trkpt>
<trkpt lat="40.072842" lon="-105.230575">
  <ele>1586.09</ele>
  <time>2026-08-28T19:10:23Z</time>
  <course>356.98</course>
  <speed>0.0</speed>
  <fix>3d</fix>
</trkpt>
<trkpt lat="40.072842" lon="-105.230575">
  <ele>1586.09</ele>
  <time>2026-08-28T19:10:23Z</time>
  <course>268.52</course>
  <speed>0.0</speed>
  <fix>3d</fix>
</trkpt>
<trkpt lat="40.072842" lon="-105.230575">
  <ele>1586.09</ele>
  <time>2026-08-28T19:10:23Z</time>
  <course>356.95</course>
  <speed>0.0</speed>
  <fix>3d</fix>
</trkpt>
<trkpt lat="40.072842" lon="-105.230575">
  <ele>1586.09</ele>
  <time>2026-08-28T19:10:23Z</time>
  <course>264.64</course>
  <speed>0.0</speed>
  <fix>3d</fix>
</trkpt>
<trkpt lat="40.072842" lon="-105.230575">
  <ele>1586.09</ele>
  <time>2026-08-28T19:10:23Z</time>
  <course>356.93</course>
  <speed>0.0</speed>
  <fix>3d</fix>
</trkpt>
<trkpt lat="40.072842" lon="-105.230575">
  <ele>1586.09</ele>
  <time>2026-08-28T19:10:23Z</time>
  <course>262.61</course>
  <speed>0.0</speed>
  <fix>3d</fix>
</trkpt>
<trkpt lat="40.072842" lon="-105.230575">
  <ele>1586.09</ele>
  <time>2026-08-28T19:10:23Z</time>
  <course>356.9</course>
  <speed>0.0</speed>
  <fix>3d</fix>
</trkpt>
<trkpt lat="40.072842" lon="-105.230575">
  <ele>1586.09</ele>
  <time>2026-08-28T19:10:23Z</time>
  <course>263.05</course>
  <speed>0.0</speed>
  <fix>3d</fix>
</trkpt>
<trkpt lat="40.072842" lon="-105.230575">
  <ele>1586.09</ele>
  <time>2026-08-28T19:10:23Z</time>
  <course>356.87</course>
  <speed>0.0</speed>
  <fix>3d</fix>
</trkpt>
<trkpt lat="40.072842" lon="-105.230575">
  <ele>1586.09</ele>
  <time>2026-08-28T19:10:23Z</time>
  <course>264.67</course>
  <speed>0.0</speed>
  <fix>3d</fix>
</trkpt>
<trkpt lat="40.072842" lon="-105.230575">
  <ele>1586.09</ele>
  <time>2026-08-28T19:10:23Z</time>
  <course>356.85</course>
  <speed>0.0</speed>
  <fix>3d</fix>
</trkpt>
<trkpt lat="40.072842" lon="-105.230575">
  <ele>1586.09</ele>
  <time>2026-08-28T19:10:23Z</time>
  <course>265.16</course>
  <speed>0.0</speed>
  <fix>3d</fix>
</trkpt>
<trkpt lat="40.072842" lon="-105.230575">
  <ele>1586.09</ele>
  <time>2026-08-28T19:10:23Z</time>
  <course>356.82</course>
  <speed>0.0</speed>
  <fix>3d</fix>
</trkpt>
<trkpt lat="40.072842" lon="-105.230575">
  <ele>1586.09</ele>
  <time>2026-08-28T19:10:23Z</time>
  <course>266.43</course>
  <speed>0.0</speed>
  <fix>3d</fix>
</trkpt>
<trkpt lat="40.072842" lon="-105.230575">
  <ele>1586.09</ele>
  <time>2026-08-28T19:10:23Z</time>
  <course>356.8</course>
  <speed>0.0</speed>
  <fix>3d</fix>
</trkpt>
<trkpt lat="40.072842" lon="-105.230575">
  <ele>1586.09</ele>
  <time>2026-08-28T19:10:23Z</time>
  <course>264.95</course>
  <speed>0.0</speed>
  <fix>3d</fix>
</trkpt>
<trkpt lat="40.072842" lon="-105.230575">
  <ele>1586.09</ele>
  <time>2026-08-28T19:10:23Z</time>
  <course>356.77</course>
  <speed>0.0</speed>
  <fix>3d</fix>
</trkpt>
<trkpt lat="40.072842" lon="-105.230575">
  <ele>1586.09</ele>
  <time>2026-08-28T19:10:23Z</time>
  <course>264.52</course>
  <speed>0.0</speed>
  <fix>3d</fix>
</trkpt>
<trkpt lat="40.072842" lon="-105.230575">
  <ele>1586.09</ele>
  <time>2026-08-28T19:10:23Z</time>
  <course>356.75</course>
  <speed>0.0</speed>
  <fix>3d</fix>
</trkpt>
<trkpt lat="40.072842" lon="-105.230575">
  <ele>1586.09</ele>
  <time>2026-08-28T19:10:23Z</time>
  <course>263.63</course>
  <speed>0.0</speed>
  <fix>3d</fix>
</trkpt>
<trkpt lat="40.072842" lon="-105.230575">
  <ele>1586.09</ele>
  <time>2026-08-28T19:10:23Z</time>
  <course>356.72</course>
  <speed>0.0</speed>
  <fix>3d</fix>
</trkpt>
<trkpt lat="40.072842" lon="-105.230575">
  <ele>1586.09</ele>
  <time>2026-08-28T19:10:23Z</time>
  <course>263.02</course>
  <speed>0.0</speed>
  <fix>3d</fix>
</trkpt>
<trkpt lat="40.072842" lon="-105.230575">
  <ele>1586.09</ele>
  <time>2026-08-28T19:10:23Z</time>
  <course>356.7</course>
  <speed>0.0</speed>
  <fix>3d</fix>
</trkpt>
<trkpt lat="40.072842" lon="-105.230575">
  <ele>1586.09</ele>
  <time>2026-08-28T19:10:23Z</time>
  <course>266.22</course>
  <speed>0.0</speed>
  <fix>3d</fix>
</trkpt>
<trkpt lat="40.072842" lon="-105.230575">
  <ele>1586.09</ele>
  <time>2026-08-28T19:10:23Z</time>
  <course>356.68</course>
  <speed>0.0</speed>
  <fix>3d</fix>
</trkpt>
<trkpt lat="40.072842" lon="-105.230575">
  <ele>1586.09</ele>
  <time>2026-08-28T19:10:23Z</time>
  <course>269.89</course>
  <speed>0.0</speed>
  <fix>3d</fix>
</trkpt>
<trkpt lat="40.072842" lon="-105.230575">
  <ele>1586.09</ele>
  <time>2026-08-28T19:10:23Z</time>
  <course>356.65</course>
  <speed>0.0</speed>
  <fix>3d</fix>
</trkpt>
<trkpt lat="40.072842" lon="-105.230575">
  <ele>1586.09</ele>
  <time>2026-08-28T19:10:23Z</time>
  <course>268.77</course>
  <speed>0.0</speed>
  <fix>3d</fix>
</trkpt>
<trkpt lat="40.072842" lon="-105.230575">
  <ele>1586.09</ele>
  <time>2026-08-28T19:10:23Z</time>
  <course>356.63</course>
  <speed>0.0</speed>
  <fix>3d</fix>
</trkpt>
<trkpt lat="40.072842" lon="-105.230575">
  <ele>1586.09</ele>
  <time>2026-08-28T19:10:23Z</time>
  <course>265.63</course>
  <speed>0.0</speed>
  <fix>3d</fix>
</trkpt>
<trkpt lat="40.072842" lon="-105.230575">
  <ele>1586.09</ele>
  <time>2026-08-28T19:10:23Z</time>
  <course>356.61</course>
  <speed>0.0</speed>
  <fix>3d</fix>
</trkpt>
<trkpt lat="40.072842" lon="-105.230575">
  <ele>1586.09</ele>
  <time>2026-08-28T19:10:23Z</time>
  <course>265.92</course>
  <speed>0.0</speed>
  <fix>3d</fix>
</trkpt>
<trkpt lat="40.072842" lon="-105.230575">
  <ele>1586.09</ele>
  <time>2026-08-28T19:10:23Z</time>
  <course>356.58</course>
  <speed>0.0</speed>
  <fix>3d</fix>
</trkpt>
<trkpt lat="40.072842" lon="-105.230575">
  <ele>1586.09</ele>
  <time>2026-08-28T19:10:23Z</time>
  <course>265.58</course>
  <speed>0.0</speed>
  <fix>3d</fix>
</trkpt>
<trkpt lat="40.072842" lon="-105.230575">
  <ele>1586.09</ele>
  <time>2026-08-28T19:10:23Z</time>
  <course>356.56</course>
  <speed>0.0</speed>
  <fix>3d</fix>
</trkpt>
<trkpt lat="40.072842" lon="-105.230575">
  <ele>1586.09</ele>
  <time>2026-08-28T19:10:23Z</time>
  <course>264.95</course>
  <speed>0.0</speed>
  <fix>3d</fix>
</trkpt>
<trkpt lat="40.072842" lon="-105.230575">
  <ele>1586.09</ele>
  <time>2026-08-28T19:10:23Z</time>
  <course>356.55</course>
  <speed>0.0</speed>
  <fix>3d</fix>
</trkpt>
<trkpt lat="40.072842" lon="-105.230575">
  <ele>1586.09</ele>
  <time>2026-08-28T19:10:23Z</time>
  <course>266.44</course>
  <speed>0.0</speed>
  <fix>3d</fix>
</trkpt>
<trkpt lat="40.072842" lon="-105.230575">
  <ele>1586.09</ele>
  <time>2026-08-28T19:10:23Z</time>
  <course>356.54</course>
  <speed>0.0</speed>
  <fix>3d</fix>
</trkpt>
<trkpt lat="40.072842" lon="-105.230575">
  <ele>1586.09</ele>
  <time>2026-08-28T19:10:23Z</time>
  <course>267.11</course>
  <speed>0.0</speed>
  <fix>3d</fix>
</trkpt>
<trkpt lat="40.072842" lon="-105.230575">
  <ele>1586.09</ele>
  <time>2026-08-28T19:10:23Z</time>
  <course>356.52</course>
  <speed>0.0</speed>
  <fix>3d</fix>
</trkpt>
<trkpt lat="40.072842" lon="-105.230575">
  <ele>1586.09</ele>
  <time>2026-08-28T19:10:23Z</time>
  <course>267.13</course>
  <speed>0.0</speed>
  <fix>3d</fix>
</trkpt>
<trkpt lat="40.072842" lon="-105.230575">
  <ele>1586.09</ele>
  <time>2026-08-28T19:10:23Z</time>
  <course>356.52</course>
  <speed>0.0</speed>
  <fix>3d</fix>
</trkpt>
<trkpt lat="40.072842" lon="-105.230575">
  <ele>1586.09</ele>
  <time>2026-08-28T19:10:23Z</time>
  <course>356.49</course>
  <speed>0.0</speed>
  <fix>3d</fix>
</trkpt>
<trkpt lat="40.072842" lon="-105.230575">
  <ele>1586.09</ele>
  <time>2026-08-28T19:10:23Z</time>
  <course>265.65</course>
  <speed>0.0</speed>
  <fix>3d</fix>
</trkpt>
<trkpt lat="40.072842" lon="-105.230575">
  <ele>1586.09</ele>
  <time>2026-08-28T19:10:23Z</time>
  <course>356.49</course>
  <speed>0.0</speed>
  <fix>3d</fix>
</trkpt>
<trkpt lat="40.072842" lon="-105.230575">
  <ele>1586.1</ele>
  <time>2026-08-28T19:10:23Z</time>
  <course>356.45</course>
  <speed>0.0</speed>
  <fix>3d</fix>
</trkpt>
<trkpt lat="40.072842" lon="-105.230575">
  <ele>1586.09</ele>
  <time>2026-08-28T19:10:23Z</time>
  <course>265.31</course>
  <speed>0.0</speed>
  <fix>3d</fix>
</trkpt>
<trkpt lat="40.072842" lon="-105.230575">
  <ele>1586.1</ele>
  <time>2026-08-28T19:10:23Z</time>
  <course>356.44</course>
  <speed>0.0</speed>
  <fix>3d</fix>
</trkpt>
<trkpt lat="40.072842" lon="-105.230575">
  <ele>1586.11</ele>
  <time>2026-08-28T19:10:23Z</time>
  <course>356.38</course>
  <speed>0.0</speed>
  <fix>3d</fix>
</trkpt>
<trkpt lat="40.072842" lon="-105.230575">
  <ele>1586.09</ele>
  <time>2026-08-28T19:10:23Z</time>
  <course>265.36</course>
  <speed>0.0</speed>
  <fix>3d</fix>
</trkpt>
<trkpt lat="40.072842" lon="-105.230575">
  <ele>1586.12</ele>
  <time>2026-08-28T19:10:23Z</time>
  <course>356.37</course>
  <speed>0.0</speed>
  <fix>3d</fix>
</trkpt>
<trkpt lat="40.072842" lon="-105.230575">
  <ele>1586.17</ele>
  <time>2026-08-28T19:10:23Z</time>
  <course>356.31</course>
  <speed>0.0</speed>
  <fix>3d</fix>
</trkpt>
<trkpt lat="40.072842" lon="-105.230575">
  <ele>1586.12</ele>
  <time>2026-08-28T19:10:23Z</time>
  <course>264.98</course>
  <speed>0.0</speed>
  <fix>3d</fix>
</trkpt>
<trkpt lat="40.072842" lon="-105.230575">
  <ele>1586.18</ele>
  <time>2026-08-28T19:10:23Z</time>
  <course>356.29</course>
  <speed>0.0</speed>
  <fix>3d</fix>
</trkpt>
<trkpt lat="40.072842" lon="-105.230575">
  <ele>1586.22</ele>
  <time>2026-08-28T19:10:23Z</time>
  <course>356.22</course>
  <speed>0.0</speed>
  <fix>3d</fix>
</trkpt>
<trkpt lat="40.072842" lon="-105.230575">
  <ele>1586.17</ele>
  <time>2026-08-28T19:10:23Z</time>
  <course>286.21</course>
  <speed>0.0</speed>
  <fix>3d</fix>
</trkpt>
<trkpt lat="40.072842" lon="-105.230575">
  <ele>1586.22</ele>
  <time>2026-08-28T19:10:23Z</time>
  <course>356.08</course>
  <speed>0.0</speed>
  <fix>3d</fix>
</trkpt>
<trkpt lat="40.072842" lon="-105.2305751">
  <ele>1586.35</ele>
  <time>2026-08-28T19:10:23Z</time>
  <course>351.2</course>
  <speed>0.09055385138137417</speed>
  <fix>3d</fix>
</trkpt>
<trkpt lat="40.072842" lon="-105.230575">
  <ele>1586.24</ele>
  <time>2026-08-28T19:10:23Z</time>
  <course>263.86</course>
  <speed>0.02</speed>
  <fix>3d</fix>
</trkpt>
<trkpt lat="40.072842" lon="-105.2305751">
  <ele>1586.38</ele>
  <time>2026-08-28T19:10:23Z</time>
  <course>350.83</course>
  <speed>0.11045361017187261</speed>
  <fix>3d</fix>
</trkpt>
<trkpt lat="40.072842" lon="-105.2305753">
  <ele>1586.58</ele>
  <time>2026-08-28T19:10:23Z</time>
  <course>350.95</course>
  <speed>0.19235384061671343</speed>
  <fix>3d</fix>
</trkpt>
<trkpt lat="40.072842" lon="-105.2305751">
  <ele>1586.39</ele>
  <time>2026-08-28T19:10:23Z</time>
  <course>261.02</course>
  <speed>0.1</speed>
  <fix>3d</fix>
</trkpt>
<trkpt lat="40.072842" lon="-105.2305755">
  <ele>1586.61</ele>
  <time>2026-08-28T19:10:23Z</time>
  <course>351.03</course>
  <speed>0.19235384061671343</speed>
  <fix>3d</fix>
</trkpt>
<trkpt lat="40.0728419" lon="-105.2305758">
  <ele>1586.73</ele>
  <time>2026-08-28T19:10:23Z</time>
  <course>350.96</course>
  <speed>0.22561028345356957</speed>
  <fix>3d</fix>
</trkpt>
<trkpt lat="40.0728419" lon="-105.2305755">
  <ele>1586.6</ele>
  <time>2026-08-28T19:10:23Z</time>
  <course>259.01</course>
  <speed>0.19</speed>
  <fix>3d</fix>
</trkpt>
<trkpt lat="40.0728419" lon="-105.230576">
  <ele>1586.75</ele>
  <time>2026-08-28T19:10:23Z</time>
  <course>350.89</course>
  <speed>0.22561028345356957</speed>
  <fix>3d</fix>
</trkpt>
<trkpt lat="40.0728418" lon="-105.2305765">
  <ele>1586.83</ele>
  <time>2026-08-28T19:10:23Z</time>
  <course>350.48</course>
  <speed>0.25</speed>
  <fix>3d</fix>
</trkpt>
<trkpt lat="40.0728418" lon="-105.230576">
  <ele>1586.74</ele>
  <time>2026-08-28T19:10:23Z</time>
  <course>256.06</course>
  <speed>0.23</speed>
  <fix>3d</fix>
</trkpt>
<trkpt lat="40.0728418" lon="-105.2305765">
  <ele>1586.85</ele>
  <time>2026-08-28T19:10:23Z</time>
  <course>350.44</course>
  <speed>0.25</speed>
  <fix>3d</fix>
</trkpt>
<trkpt lat="40.0728417" lon="-105.230577">
  <ele>1586.93</ele>
  <time>2026-08-28T19:10:23Z</time>
  <course>350.39</course>
  <speed>0.25632011235952595</speed>
  <fix>3d</fix>
</trkpt>
<trkpt lat="40.0728417" lon="-105.2305765">
  <ele>1586.85</ele>
  <time>2026-08-28T19:10:23Z</time>
  <course>252.46</course>
  <speed>0.25</speed>
  <fix>3d</fix>
</trkpt>
<trkpt lat="40.0728415" lon="-105.230577">
  <ele>1586.94</ele>
  <time>2026-08-28T19:10:23Z</time>
  <course>350.4</course>
  <speed>0.25632011235952595</speed>
  <fix>3d</fix>
</trkpt>
<trkpt lat="40.0728414" lon="-105.2305775">
  <ele>1587.02</ele>
  <time>2026-08-28T19:10:23Z</time>
  <course>350.44</course>
  <speed>0.25079872407968906</speed>
  <fix>3d</fix>
</trkpt>
<trkpt lat="40.0728415" lon="-105.2305771">
  <ele>1586.94</ele>
  <time>2026-08-28T19:10:23Z</time>
  <course>248.63</course>
  <speed>0.25</speed>
  <fix>3d</fix>
</trkpt>
<trkpt lat="40.0728414" lon="-105.2305777">
  <ele>1587.03</ele>
  <time>2026-08-28T19:10:23Z</time>
  <course>350.45</course>
  <speed>0.25079872407968906</speed>
  <fix>3d</fix>
</trkpt>
<trkpt lat="40.0728413" lon="-105.2305782">
  <ele>1587.11</ele>
  <time>2026-08-28T19:10:23Z</time>
  <course>350.5</course>
  <speed>0.25059928172283336</speed>
  <fix>3d</fix>
</trkpt>
<trkpt lat="40.0728414" lon="-105.2305777">
  <ele>1587.03</ele>
  <time>2026-08-28T19:10:23Z</time>
  <course>244.63</course>
  <speed>0.25</speed>
  <fix>3d</fix>
</trkpt>
<trkpt lat="40.0728412" lon="-105.2305782">
  <ele>1587.13</ele>
  <time>2026-08-28T19:10:23Z</time>
  <course>350.51</course>
  <speed>0.24186773244895649</speed>
  <fix>3d</fix>
</trkpt>
<trkpt lat="40.0728409" lon="-105.2305787">
  <ele>1587.21</ele>
  <time>2026-08-28T19:10:23Z</time>
  <course>350.58</course>
  <speed>0.23853720883753127</speed>
  <fix>3d</fix>
</trkpt>
<trkpt lat="40.0728412" lon="-105.2305782">
  <ele>1587.13</ele>
  <time>2026-08-28T19:10:23Z</time>
  <course>240.56</course>
  <speed>0.25</speed>
  <fix>3d</fix>
</trkpt>
<trkpt lat="40.0728409" lon="-105.2305787">
  <ele>1587.22</ele>
  <time>2026-08-28T19:10:23Z</time>
  <course>350.6</course>
  <speed>0.23853720883753127</speed>
  <fix>3d</fix>
</trkpt>
<trkpt lat="40.0728408" lon="-105.2305791">
  <ele>1587.32</ele>
  <time>2026-08-28T19:10:23Z</time>
  <course>350.72</course>
  <speed>0.23600847442411893</speed>
  <fix>3d</fix>
</trkpt>
<trkpt lat="40.0728409" lon="-105.2305787">
  <ele>1587.23</ele>
  <time>2026-08-28T19:10:23Z</time>
  <course>236.51</course>
  <speed>0.24</speed>
  <fix>3d</fix>
</trkpt>
<trkpt lat="40.0728408" lon="-105.2305791">
  <ele>1587.33</ele>
  <time>2026-08-28T19:10:23Z</time>
  <course>350.75</course>
  <speed>0.23600847442411893</speed>
  <fix>3d</fix>
</trkpt>
<trkpt lat="40.0728405" lon="-105.2305796">
  <ele>1587.43</ele>
  <time>2026-08-28T19:10:23Z</time>
  <course>350.9</course>
  <speed>0.23430749027719963</speed>
  <fix>3d</fix>
</trkpt>
<trkpt lat="40.0728407" lon="-105.2305791">
  <ele>1587.33</ele>
  <time>2026-08-28T19:10:23Z</time>
  <course>232.61</course>
  <speed>0.24</speed>
  <fix>3d</fix>
</trkpt>
<trkpt lat="40.0728405" lon="-105.2305796">
  <ele>1587.44</ele>
  <time>2026-08-28T19:10:23Z</time>
  <course>350.93</course>
  <speed>0.24083189157584592</speed>
  <fix>3d</fix>
</trkpt>
<trkpt lat="40.0728402" lon="-105.2305799">
  <ele>1587.54</ele>
  <time>2026-08-28T19:10:23Z</time>
  <course>351.11</course>
  <speed>0.24041630560342614</speed>
  <fix>3d</fix>
</trkpt>
<trkpt lat="40.0728404" lon="-105.2305796">
  <ele>1587.44</ele>
  <time>2026-08-28T19:10:23Z</time>
  <course>228.92</course>
  <speed>0.24</speed>
  <fix>3d</fix>
</trkpt>
<trkpt lat="40.0728402" lon="-105.2305801">
  <ele>1587.56</ele>
  <time>2026-08-28T19:10:23Z</time>
  <course>351.14</course>
  <speed>0.24041630560342614</speed>
  <fix>3d</fix>
</trkpt>
<trkpt lat="40.0728399" lon="-105.2305803">
  <ele>1587.66</ele>
  <time>2026-08-28T19:10:23Z</time>
  <course>351.34</course>
  <speed>0.24083189157584592</speed>
  <fix>3d</fix>
</trkpt>
<trkpt lat="40.0728401" lon="-105.2305801">
  <ele>1587.56</ele>
  <time>2026-08-28T19:10:23Z</time>
  <course>225.51</course>
  <speed>0.24</speed>
  <fix>3d</fix>
</trkpt>
<trkpt lat="40.0728399" lon="-105.2305805">
  <ele>1587.68</ele>
  <time>2026-08-28T19:10:23Z</time>
  <course>351.37</course>
  <speed>0.24083189157584592</speed>
  <fix>3d</fix>
</trkpt>
<trkpt lat="40.0728395" lon="-105.2305808">
  <ele>1587.78</ele>
  <time>2026-08-28T19:10:23Z</time>
  <course>351.58</course>
  <speed>0.24839484696748443</speed>
  <fix>3d</fix>
</trkpt>
<trkpt lat="40.0728398" lon="-105.2305805">
  <ele>1587.67</ele>
  <time>2026-08-28T19:10:23Z</time>
  <course>222.43</course>
  <speed>0.24</speed>
  <fix>3d</fix>
</trkpt>
<trkpt lat="40.0728395" lon="-105.2305808">
  <ele>1587.8</ele>
  <time>2026-08-28T19:10:23Z</time>
  <course>351.62</course>
  <speed>0.2420743687382041</speed>
  <fix>3d</fix>
</trkpt>
<trkpt lat="40.0728392" lon="-105.2305811">
  <ele>1587.91</ele>
  <time>2026-08-28T19:10:23Z</time>
  <course>351.83</course>
  <speed>0.25</speed>
  <fix>3d</fix>
</trkpt>
<trkpt lat="40.0728395" lon="-105.2305808">
  <ele>1587.8</ele>
  <time>2026-08-28T19:10:23Z</time>
  <course>219.64</course>
  <speed>0.24</speed>
  <fix>3d</fix>
</trkpt>
<trkpt lat="40.0728392" lon="-105.2305811">
  <ele>1587.93</ele>
  <time>2026-08-28T19:10:23Z</time>
  <course>351.87</course>
  <speed>0.25</speed>
  <fix>3d</fix>
</trkpt>
<trkpt lat="40.0728388" lon="-105.2305815">
  <ele>1588.03</ele>
  <time>2026-08-28T19:10:23Z</time>
  <course>352.08</course>
  <speed>0.24413111231467405</speed>
  <fix>3d</fix>
</trkpt>
<trkpt lat="40.0728391" lon="-105.2305811">
  <ele>1587.92</ele>
  <time>2026-08-28T19:10:23Z</time>
  <course>217.14</course>
  <speed>0.25</speed>
  <fix>3d</fix>
</trkpt>
<trkpt lat="40.0728388" lon="-105.2305815">
  <ele>1588.05</ele>
  <time>2026-08-28T19:10:23Z</time>
  <course>352.12</course>
  <speed>0.25238858928247926</speed>
  <fix>3d</fix>
</trkpt>
<trkpt lat="40.0728384" lon="-105.2305818">
  <ele>1588.16</ele>
  <time>2026-08-28T19:10:23Z</time>
  <course>352.33</course>
  <speed>0.25238858928247926</speed>
  <fix>3d</fix>
</trkpt>
<trkpt lat="40.0728388" lon="-105.2305815">
  <ele>1588.05</ele>
  <time>2026-08-28T19:10:23Z</time>
  <course>214.95</course>
  <speed>0.25</speed>
  <fix>3d</fix>
</trkpt>
<trkpt lat="40.0728383" lon="-105.2305818">
  <ele>1588.18</ele>
  <time>2026-08-28T19:10:23Z</time>
  <course>352.36</course>
  <speed>0.25238858928247926</speed>
  <fix>3d</fix>
</trkpt>
<trkpt lat="40.0728381" lon="-105.2305822">
  <ele>1588.28</ele>
  <time>2026-08-28T19:10:23Z</time>
  <course>352.57</course>
  <speed>0.25553864678361277</speed>
  <fix>3d</fix>
</trkpt>
<trkpt lat="40.0728383" lon="-105.2305819">
  <ele>1588.17</ele>
  <time>2026-08-28T19:10:23Z</time>
  <course>212.98</course>
  <speed>0.26</speed>
  <fix>3d</fix>
</trkpt>
<trkpt lat="40.072838" lon="-105.2305822">
  <ele>1588.3</ele>
  <time>2026-08-28T19:10:23Z</time>
  <course>352.6</course>
  <speed>0.25553864678361277</speed>
  <fix>3d</fix>
</trkpt>
<trkpt lat="40.0728377" lon="-105.2305825">
  <ele>1588.41</ele>
  <time>2026-08-28T19:10:23Z</time>
  <course>352.81</course>
  <speed>0.2641968962724581</speed>
  <fix>3d</fix>
</trkpt>
<trkpt lat="40.072838" lon="-105.2305822">
  <ele>1588.3</ele>
  <time>2026-08-28T19:10:23Z</time>
  <course>211.23</course>
  <speed>0.26</speed>
  <fix>3d</fix>
</trkpt>
<trkpt lat="40.0728376" lon="-105.2305825">
  <ele>1588.43</ele>
  <time>2026-08-28T19:10:23Z</time>
  <course>352.84</course>
  <speed>0.2641968962724581</speed>
  <fix>3d</fix>
</trkpt>
<trkpt lat="40.0728371" lon="-105.2305827">
  <ele>1588.54</ele>
  <time>2026-08-28T19:10:23Z</time>
  <course>353.04</course>
  <speed>0.2641968962724581</speed>
  <fix>3d</fix>
</trkpt>
<trkpt lat="40.0728376" lon="-105.2305825">
  <ele>1588.42</ele>
  <time>2026-08-28T19:10:23Z</time>
  <course>209.68</course>
  <speed>0.26</speed>
  <fix>3d</fix>
</trkpt>
<trkpt lat="40.0728371" lon="-105.2305829">
  <ele>1588.55</ele>
  <time>2026-08-28T19:10:23Z</time>
  <course>353.07</course>
  <speed>0.2683281572999748</speed>
  <fix>3d</fix>
</trkpt>
<trkpt lat="40.0728368" lon="-105.230583">
  <ele>1588.66</ele>
  <time>2026-08-28T19:10:23Z</time>
  <course>353.24</course>
  <speed>0.2683281572999748</speed>
  <fix>3d</fix>
</trkpt>
<trkpt lat="40.0728371" lon="-105.2305828">
  <ele>1588.55</ele>
  <time>2026-08-28T19:10:23Z</time>
  <course>208.31</course>
  <speed>0.27</speed>
  <fix>3d</fix>
</trkpt>
<trkpt lat="40.0728366" lon="-105.2305832">
  <ele>1588.68</ele>
  <time>2026-08-28T19:10:23Z</time>
  <course>353.28</course>
  <speed>0.2683281572999748</speed>
  <fix>3d</fix>
</trkpt>
<trkpt lat="40.0728363" lon="-105.2305834">
  <ele>1588.79</ele>
  <time>2026-08-28T19:10:23Z</time>
  <course>353.45</course>
  <speed>0.27730849247724093</speed>
  <fix>3d</fix>
</trkpt>
<trkpt lat="40.0728366" lon="-105.2305831">
  <ele>1588.67</ele>
  <time>2026-08-28T19:10:23Z</time>
  <course>207.08</course>
  <speed>0.27</speed>
  <fix>3d</fix>
</trkpt>
<trkpt lat="40.0728363" lon="-105.2305835">
  <ele>1588.8</ele>
  <time>2026-08-28T19:10:23Z</time>
  <course>353.47</course>
  <speed>0.27730849247724093</speed>
  <fix>3d</fix>
</trkpt>
<trkpt lat="40.0728359" lon="-105.2305837">
  <ele>1588.91</ele>
  <time>2026-08-28T19:10:23Z</time>
  <course>353.64</course>
  <speed>0.27730849247724093</speed>
  <fix>3d</fix>
</trkpt>
<trkpt lat="40.0728362" lon="-105.2305834">
  <ele>1588.8</ele>
  <time>2026-08-28T19:10:23Z</time>
  <course>206.0</course>
  <speed>0.28</speed>
  <fix>3d</fix>
</trkpt>
<trkpt lat="40.0728358" lon="-105.2305837">
  <ele>1588.93</ele>
  <time>2026-08-28T19:10:23Z</time>
  <course>353.67</course>
  <speed>0.27730849247724093</speed>
  <fix>3d</fix>
</trkpt>
<trkpt lat="40.0728353" lon="-105.2305839">
  <ele>1589.04</ele>
  <time>2026-08-28T19:10:23Z</time>
  <course>353.83</course>
  <speed>0.2823118842698621</speed>
  <fix>3d</fix>
</trkpt>
<trkpt lat="40.0728357" lon="-105.2305837">
  <ele>1588.93</ele>
  <time>2026-08-28T19:10:23Z</time>
  <course>205.03</course>
  <speed>0.28</speed>
  <fix>3d</fix>
</trkpt>
<trkpt lat="40.0728353" lon="-105.2305839">
  <ele>1589.06</ele>
  <time>2026-08-28T19:10:23Z</time>
  <course>353.85</course>
  <speed>0.2823118842698621</speed>
  <fix>3d</fix>
</trkpt>
<trkpt lat="40.0728348" lon="-105.2305842">
  <ele>1589.16</ele>
  <time>2026-08-28T19:10:23Z</time>
  <course>354.0</course>
  <speed>0.2823118842698621</speed>
  <fix>3d</fix>
</trkpt>
<trkpt lat="40.0728353" lon="-105.230584">
  <ele>1589.06</ele>
  <time>2026-08-28T19:10:23Z</time>
  <course>204.18</course>
  <speed>0.28</speed>
  <fix>3d</fix>
</trkpt>
<trkpt lat="40.0728348" lon="-105.2305842">
  <ele>1589.18</ele>
  <time>2026-08-28T19:10:23Z</time>
  <course>354.03</course>
  <speed>0.2823118842698621</speed>
  <fix>3d</fix>
</trkpt>
<trkpt lat="40.0728345" lon="-105.2305844">
  <ele>1589.29</ele>
  <time>2026-08-28T19:10:23Z</time>
  <course>354.18</course>
  <speed>0.291547594742265</speed>
  <fix>3d</fix>
</trkpt>
<trkpt lat="40.0728348" lon="-105.2305843">
  <ele>1589.18</ele>
  <time>2026-08-28T19:10:23Z</time>
  <course>203.43</course>
  <speed>0.29</speed>
  <fix>3d</fix>
</trkpt>
<trkpt lat="40.0728344" lon="-105.2305846">
  <ele>1589.31</ele>
  <time>2026-08-28T19:10:23Z</time>
  <course>354.2</course>
  <speed>0.291547594742265</speed>
  <fix>3d</fix>
</trkpt>
<trkpt lat="40.072834" lon="-105.2305847">
  <ele>1589.42</ele>
  <time>2026-08-28T19:10:23Z</time>
  <course>354.34</course>
  <speed>0.291547594742265</speed>
  <fix>3d</fix>
</trkpt>
<trkpt lat="40.0728343" lon="-105.2305845">
  <ele>1589.31</ele>
  <time>2026-08-28T19:10:23Z</time>
  <course>202.79</course>
  <speed>0.29</speed>
  <fix>3d</fix>
</trkpt>
<trkpt lat="40.0728339" lon="-105.2305847">
  <ele>1589.43</ele>
  <time>2026-08-28T19:10:23Z</time>
  <course>354.37</course>
  <speed>0.291547594742265</speed>
  <fix>3d</fix>
</trkpt>
<trkpt lat="40.0728335" lon="-105.2305851">
  <ele>1589.54</ele>
  <time>2026-08-28T19:10:23Z</time>
  <course>354.49</course>
  <speed>0.291547594742265</speed>
  <fix>3d</fix>
</trkpt>
<trkpt lat="40.0728338" lon="-105.2305848">
  <ele>1589.43</ele>
  <time>2026-08-28T19:10:23Z</time>
  <course>202.22</course>
  <speed>0.29</speed>
  <fix>3d</fix>
</trkpt>
<trkpt lat="40.0728334" lon="-105.2305851">
  <ele>1589.56</ele>
  <time>2026-08-28T19:10:23Z</time>
  <course>354.52</course>
  <speed>0.291547594742265</speed>
  <fix>3d</fix>
</trkpt>
<trkpt lat="40.0728329" lon="-105.2305853">
  <ele>1589.67</ele>
  <time>2026-08-28T19:10:23Z</time>
  <course>354.65</course>
  <speed>0.30083217912982646</speed>
  <fix>3d</fix>
</trkpt>
<trkpt lat="40.0728333" lon="-105.230585">
  <ele>1589.56</ele>
  <time>2026-08-28T19:10:23Z</time>
  <course>201.73</course>
  <speed>0.3</speed>
  <fix>3d</fix>
</trkpt>
<trkpt lat="40.0728329" lon="-105.2305854">
  <ele>1589.68</ele>
  <time>2026-08-28T19:10:23Z</time>
  <course>354.67</course>
  <speed>0.2973213749463701</speed>
  <fix>3d</fix>
</trkpt>
<trkpt lat="40.0728324" lon="-105.2305856">
  <ele>1589.79</ele>
  <time>2026-08-28T19:10:23Z</time>
  <course>354.8</course>
  <speed>0.2973213749463701</speed>
  <fix>3d</fix>
</trkpt>
<trkpt lat="40.0728328" lon="-105.2305853">
  <ele>1589.68</ele>
  <time>2026-08-28T19:10:23Z</time>
  <course>201.29</course>
  <speed>0.3</speed>
  <fix>3d</fix>
</trkpt>
<trkpt lat="40.0728323" lon="-105.2305856">
  <ele>1589.81</ele>
  <time>2026-08-28T19:10:23Z</time>
  <course>354.81</course>
  <speed>0.2973213749463701</speed>
  <fix>3d</fix>
</trkpt>
<trkpt lat="40.0728319" lon="-105.2305858">
  <ele>1589.92</ele>
  <time>2026-08-28T19:10:23Z</time>
  <course>354.93</course>
  <speed>0.2973213749463701</speed>
  <fix>3d</fix>
</trkpt>
<trkpt lat="40.0728323" lon="-105.2305855">
  <ele>1589.81</ele>
  <time>2026-08-28T19:10:23Z</time>
  <course>200.9</course>
  <speed>0.3</speed>
  <fix>3d</fix>
</trkpt>
<trkpt lat="40.0728319" lon="-105.2305859">
  <ele>1589.93</ele>
  <time>2026-08-28T19:10:23Z</time>
  <course>354.95</course>
  <speed>0.2973213749463701</speed>
  <fix>3d</fix>
</trkpt>
<trkpt lat="40.0728314" lon="-105.2305861">
  <ele>1590.04</ele>
  <time>2026-08-28T19:10:23Z</time>
  <course>355.06</course>
  <speed>0.2973213749463701</speed>
  <fix>3d</fix>
</trkpt>
<trkpt lat="40.0728318" lon="-105.2305858">
  <ele>1589.94</ele>
  <time>2026-08-28T19:10:23Z</time>
  <course>200.58</course>
  <speed>0.3</speed>
  <fix>3d</fix>
</trkpt>
<trkpt lat="40.0728313" lon="-105.2305861">
  <ele>1590.06</ele>
  <time>2026-08-28T19:10:23Z</time>
  <course>355.08</course>
  <speed>0.2973213749463701</speed>
  <fix>3d</fix>
</trkpt>
<trkpt lat="40.0728309" lon="-105.2305863">
  <ele>1590.17</ele>
  <time>2026-08-28T19:10:23Z</time>
  <course>355.19</course>
  <speed>0.30675723300355934</speed>
  <fix>3d</fix>
</trkpt>
<trkpt lat="40.0728313" lon="-105.2305861">
  <ele>1590.06</ele>
  <time>2026-08-28T19:10:23Z</time>
  <course>200.31</course>
  <speed>0.3</speed>
  <fix>3d</fix>
</trkpt>
<trkpt lat="40.0728308" lon="-105.2305863">
  <ele>1590.19</ele>
  <time>2026-08-28T19:10:23Z</time>
  <course>355.21</course>
  <speed>0.30675723300355934</speed>
  <fix>3d</fix>
</trkpt>
<trkpt lat="40.0728304" lon="-105.2305866">
  <ele>1590.29</ele>
  <time>2026-08-28T19:10:23Z</time>
  <course>355.32</course>
  <speed>0.30675723300355934</speed>
  <fix>3d</fix>
</trkpt>
<trkpt lat="40.0728308" lon="-105.2305863">
  <ele>1590.19</ele>
  <time>2026-08-28T19:10:23Z</time>
  <course>200.08</course>
  <speed>0.31</speed>
  <fix>3d</fix>
</trkpt>
<trkpt lat="40.0728303" lon="-105.2305866">
  <ele>1590.31</ele>
  <time>2026-08-28T19:10:23Z</time>
  <course>355.33</course>
  <speed>0.30675723300355934</speed>
  <fix>3d</fix>
</trkpt>
<trkpt lat="40.0728298" lon="-105.2305868">
  <ele>1590.42</ele>
  <time>2026-08-28T19:10:23Z</time>
  <course>355.43</course>
  <speed>0.30675723300355934</speed>
  <fix>3d</fix>
</trkpt>
<trkpt lat="40.0728302" lon="-105.2305866">
  <ele>1590.31</ele>
  <time>2026-08-28T19:10:23Z</time>
  <course>199.88</course>
  <speed>0.31</speed>
  <fix>3d</fix>
</trkpt>
<trkpt lat="40.0728298" lon="-105.2305868">
  <ele>1590.44</ele>
  <time>2026-08-28T19:10:23Z</time>
  <course>355.45</course>
  <speed>0.30675723300355934</speed>
  <fix>3d</fix>
</trkpt>
<trkpt lat="40.0728292" lon="-105.230587">
  <ele>1590.55</ele>
  <time>2026-08-28T19:10:23Z</time>
  <course>355.54</course>
  <speed>0.30675723300355934</speed>
  <fix>3d</fix>
</trkpt>
<trkpt lat="40.0728297" lon="-105.2305868">
  <ele>1590.44</ele>
  <time>2026-08-28T19:10:23Z</time>
  <course>199.74</course>
  <speed>0.31</speed>
  <fix>3d</fix>
</trkpt>
<trkpt lat="40.0728292" lon="-105.230587">
  <ele>1590.56</ele>
  <time>2026-08-28T19:10:23Z</time>
  <course>355.55</course>
  <speed>0.30675723300355934</speed>
  <fix>3d</fix>
</trkpt>
<trkpt lat="40.0728287" lon="-105.2305873">
  <ele>1590.67</ele>
  <time>2026-08-28T19:10:23Z</time>
  <course>355.65</course>
  <speed>0.30675723300355934</speed>
  <fix>3d</fix>
</trkpt>
<trkpt lat="40.0728292" lon="-105.2305871">
  <ele>1590.56</ele>
  <time>2026-08-28T19:10:23Z</time>
  <course>199.62</course>
  <speed>0.31</speed>
  <fix>3d</fix>
</trkpt>
<trkpt lat="40.0728286" lon="-105.2305873">
  <ele>1590.69</ele>
  <time>2026-08-28T19:10:23Z</time>
  <course>355.66</course>
  <speed>0.30675723300355934</speed>
  <fix>3d</fix>
</trkpt>
<trkpt lat="40.0728283" lon="-105.2305875">
  <ele>1590.8</ele>
  <time>2026-08-28T19:10:23Z</time>
  <course>355.75</course>
  <speed>0.30675723300355934</speed>
  <fix>3d</fix>
</trkpt>
<trkpt lat="40.0728287" lon="-105.2305873">
  <ele>1590.69</ele>
  <time>2026-08-28T19:10:23Z</time>
  <course>199.52</course>
  <speed>0.31</speed>
  <fix>3d</fix>
</trkpt>
<trkpt lat="40.0728281" lon="-105.2305875">
  <ele>1590.81</ele>
  <time>2026-08-28T19:10:23Z</time>
  <course>355.77</course>
  <speed>0.30675723300355934</speed>
  <fix>3d</fix>
</trkpt>
<trkpt lat="40.0728277" lon="-105.2305878">
  <ele>1590.92</ele>
  <time>2026-08-28T19:10:23Z</time>
  <course>355.85</course>
  <speed>0.30675723300355934</speed>
  <fix>3d</fix>
</trkpt>
<trkpt lat="40.0728281" lon="-105.2305876">
  <ele>1590.82</ele>
  <time>2026-08-28T19:10:23Z</time>
  <course>199.44</course>
  <speed>0.31</speed>
  <fix>3d</fix>
</trkpt>
<trkpt lat="40.0728275" lon="-105.2305878">
  <ele>1590.94</ele>
  <time>2026-08-28T19:10:23Z</time>
  <course>355.87</course>
  <speed>0.30675723300355934</speed>
  <fix>3d</fix>
</trkpt>
<trkpt lat="40.0728272" lon="-105.230588">
  <ele>1591.05</ele>
  <time>2026-08-28T19:10:23Z</time>
  <course>355.94</course>
  <speed>0.30675723300355934</speed>
  <fix>3d</fix>
</trkpt>
<trkpt lat="40.0728276" lon="-105.2305878">
  <ele>1590.94</ele>
  <time>2026-08-28T19:10:23Z</time>
  <course>199.41</course>
  <speed>0.31</speed>
  <fix>3d</fix>
</trkpt>
<trkpt lat="40.0728271" lon="-105.230588">
  <ele>1591.07</ele>
  <time>2026-08-28T19:10:23Z</time>
  <course>355.96</course>
  <speed>0.30675723300355934</speed>
  <fix>3d</fix>
</trkpt>
<trkpt lat="40.0728267" lon="-105.2305882">
  <ele>1591.17</ele>
  <time>2026-08-28T19:10:23Z</time>
  <course>356.04</course>
  <speed>0.30675723300355934</speed>
  <fix>3d</fix>
</trkpt>
<trkpt lat="40.0728271" lon="-105.2305881">
  <ele>1591.07</ele>
  <time>2026-08-28T19:10:23Z</time>
  <course>199.4</course>
  <speed>0.31</speed>
  <fix>3d</fix>
</trkpt>
<trkpt lat="40.0728266" lon="-105.2305882">
  <ele>1591.19</ele>
  <time>2026-08-28T19:10:23Z</time>
  <course>356.05</course>
  <speed>0.30675723300355934</speed>
  <fix>3d</fix>
</trkpt>
<trkpt lat="40.0728261" lon="-105.2305885">
  <ele>1591.3</ele>
  <time>2026-08-28T19:10:23Z</time>
  <course>356.13</course>
  <speed>0.30675723300355934</speed>
  <fix>3d</fix>
</trkpt>
<trkpt lat="40.0728265" lon="-105.2305883">
  <ele>1591.19</ele>
  <time>2026-08-28T19:10:23Z</time>
  <course>199.41</course>
  <speed>0.31</speed>
  <fix>3d</fix>
</trkpt>
<trkpt lat="40.0728261" lon="-105.2305885">
  <ele>1591.32</ele>
  <time>2026-08-28T19:10:23Z</time>
  <course>356.14</course>
  <speed>0.30675723300355934</speed>
  <fix>3d</fix>
</trkpt>
<trkpt lat="40.0728256" lon="-105.2305887">
  <ele>1591.42</ele>
  <time>2026-08-28T19:10:23Z</time>
  <course>356.21</course>
  <speed>0.30675723300355934</speed>
  <fix>3d</fix>
</trkpt>
<trkpt lat="40.072826" lon="-105.2305886">
  <ele>1591.32</ele>
  <time>2026-08-28T19:10:23Z</time>
  <course>199.44</course>
  <speed>0.31</speed>
  <fix>3d</fix>
</trkpt>
<trkpt lat="40.0728255" lon="-105.2305887">
  <ele>1591.44</ele>
  <time>2026-08-28T19:10:23Z</time>
  <course>356.22</course>
  <speed>0.30675723300355934</speed>
  <fix>3d</fix>
</trkpt>
<trkpt lat="40.072825" lon="-105.230589">
  <ele>1591.55</ele>
  <time>2026-08-28T19:10:23Z</time>
  <course>356.29</course>
  <speed>0.30675723300355934</speed>
  <fix>3d</fix>
</trkpt>
<trkpt lat="40.0728254" lon="-105.2305888">
  <ele>1591.44</ele>
  <time>2026-08-28T19:10:23Z</time>
  <course>199.49</course>
  <speed>0.31</speed>
  <fix>3d</fix>
</trkpt>
<trkpt lat="40.072825" lon="-105.230589">
  <ele>1591.57</ele>
  <time>2026-08-28T19:10:23Z</time>
  <course>356.3</course>
  <speed>0.30675723300355934</speed>
  <fix>3d</fix>
</trkpt>
<trkpt lat="40.0728244" lon="-105.2305892">
  <ele>1591.68</ele>
  <time>2026-08-28T19:10:23Z</time>
  <course>356.37</course>
  <speed>0.30675723300355934</speed>
  <fix>3d</fix>
</trkpt>
<trkpt lat="40.0728249" lon="-105.2305891">
  <ele>1591.57</ele>
  <time>2026-08-28T19:10:23Z</time>
  <course>199.56</course>
  <speed>0.31</speed>
  <fix>3d</fix>
</trkpt>
<trkpt lat="40.0728244" lon="-105.2305892">
  <ele>1591.7</ele>
  <time>2026-08-28T19:10:23Z</time>
  <course>356.38</course>
  <speed>0.30675723300355934</speed>
  <fix>3d</fix>
</trkpt>
<trkpt lat="40.072824" lon="-105.2305894">
  <ele>1591.8</ele>
  <time>2026-08-28T19:10:23Z</time>
  <course>356.43</course>
  <speed>0.30675723300355934</speed>
  <fix>3d</fix>
</trkpt>
<trkpt lat="40.0728244" lon="-105.2305893">
  <ele>1591.69</ele>
  <time>2026-08-28T19:10:23Z</time>
  <course>199.65</course>
  <speed>0.31</speed>
  <fix>3d</fix>
</trkpt>
<trkpt lat="40.0728238" lon="-105.2305896">
  <ele>1591.82</ele>
  <time>2026-08-28T19:10:23Z</time>
  <course>356.45</course>
  <speed>0.30675723300355934</speed>
  <fix>3d</fix>
</trkpt>
<trkpt lat="40.0728235" lon="-105.2305897">
  <ele>1591.93</ele>
  <time>2026-08-28T19:10:23Z</time>
  <course>356.51</course>
  <speed>0.30675723300355934</speed>
  <fix>3d</fix>
</trkpt>
<trkpt lat="40.0728239" lon="-105.2305896">
  <ele>1591.82</ele>
  <time>2026-08-28T19:10:23Z</time>
  <course>199.74</course>
  <speed>0.31</speed>
  <fix>3d</fix>
</trkpt>
<trkpt lat="40.0728234" lon="-105.2305897">
  <ele>1591.94</ele>
  <time>2026-08-28T19:10:23Z</time>
  <course>356.52</course>
  <speed>0.30675723300355934</speed>
  <fix>3d</fix>
</trkpt>
<trkpt lat="40.0728229" lon="-105.2305899">
  <ele>1592.05</ele>
  <time>2026-08-28T19:10:23Z</time>
  <course>356.58</course>
  <speed>0.30675723300355934</speed>
  <fix>3d</fix>
</trkpt>
<trkpt lat="40.0728233" lon="-105.2305898">
  <ele>1591.95</ele>
  <time>2026-08-28T19:10:23Z</time>
  <course>199.86</course>
  <speed>0.31</speed>
  <fix>3d</fix>
</trkpt>
<trkpt lat="40.0728229" lon="-105.2305901">
  <ele>1592.07</ele>
  <time>2026-08-28T19:10:23Z</time>
  <course>356.59</course>
  <speed>0.30675723300355934</speed>
  <fix>3d</fix>
</trkpt>
<trkpt lat="40.0728224" lon="-105.2305902">
  <ele>1592.18</ele>
  <time>2026-08-28T19:10:23Z</time>
  <course>356.65</course>
  <speed>0.30675723300355934</speed>
  <fix>3d</fix>
</trkpt>
<trkpt lat="40.0728228" lon="-105.2305901">
  <ele>1592.07</ele>
  <time>2026-08-28T19:10:23Z</time>
  <course>199.99</course>
  <speed>0.31</speed>
  <fix>3d</fix>
</trkpt>
<trkpt lat="40.0728223" lon="-105.2305902">
  <ele>1592.2</ele>
  <time>2026-08-28T19:10:23Z</time>
  <course>356.66</course>
  <speed>0.30675723300355934</speed>
  <fix>3d</fix>
</trkpt>
<trkpt lat="40.0728219" lon="-105.2305904">
  <ele>1592.3</ele>
  <time>2026-08-28T19:10:23Z</time>
  <course>356.71</course>
  <speed>0.30675723300355934</speed>
  <fix>3d</fix>
</trkpt>
<trkpt lat="40.0728223" lon="-105.2305903">
  <ele>1592.2</ele>
  <time>2026-08-28T19:10:23Z</time>
  <course>200.11</course>
  <speed>0.31</speed>
  <fix>3d</fix>
</trkpt>
<trkpt lat="40.0728218" lon="-105.2305906">
  <ele>1592.32</ele>
  <time>2026-08-28T19:10:23Z</time>
  <course>356.72</course>
  <speed>0.30675723300355934</speed>
  <fix>3d</fix>
</trkpt>
<trkpt lat="40.0728213" lon="-105.2305908">
  <ele>1592.43</ele>
  <time>2026-08-28T19:10:23Z</time>
  <course>356.78</course>
  <speed>0.2973213749463701</speed>
  <fix>3d</fix>
</trkpt>
<trkpt lat="40.0728218" lon="-105.2305906">
  <ele>1592.32</ele>
  <time>2026-08-28T19:10:23Z</time>
  <course>200.23</course>
  <speed>0.31</speed>
  <fix>3d</fix>
</trkpt>
<trkpt lat="40.0728213" lon="-105.2305908">
  <ele>1592.45</ele>
  <time>2026-08-28T19:10:23Z</time>
  <course>356.79</course>
  <speed>0.2973213749463701</speed>
  <fix>3d</fix>
</trkpt>
<trkpt lat="40.0728208" lon="-105.2305911">
  <ele>1592.56</ele>
  <time>2026-08-28T19:10:23Z</time>
  <course>356.85</course>
  <speed>0.2973213749463701</speed>
  <fix>3d</fix>
</trkpt>
<trkpt lat="40.0728212" lon="-105.2305908">
  <ele>1592.45</ele>
  <time>2026-08-28T19:10:23Z</time>
  <course>200.35</course>
  <speed>0.3</speed>
  <fix>3d</fix>
</trkpt>
<trkpt lat="40.0728207" lon="-105.2305911">
  <ele>1592.57</ele>
  <time>2026-08-28T19:10:23Z</time>
  <course>356.85</course>
  <speed>0.2973213749463701</speed>
  <fix>3d</fix>
</trkpt>
<trkpt lat="40.0728202" lon="-105.2305913">
  <ele>1592.68</ele>
  <time>2026-08-28T19:10:23Z</time>
  <course>356.9</course>
  <speed>0.2973213749463701</speed>
  <fix>3d</fix>
</trkpt>
<trkpt lat="40.0728207" lon="-105.2305911">
  <ele>1592.57</ele>
  <time>2026-08-28T19:10:23Z</time>
  <course>200.48</course>
  <speed>0.3</speed>
  <fix>3d</fix>
</trkpt>
<trkpt lat="40.0728202" lon="-105.2305913">
  <ele>1592.7</ele>
  <time>2026-08-28T19:10:23Z</time>
  <course>356.91</course>
  <speed>0.2973213749463701</speed>
  <fix>3d</fix>
</trkpt>
<trkpt lat="40.0728198" lon="-105.2305916">
  <ele>1592.81</ele>
  <time>2026-08-28T19:10:23Z</time>
  <course>356.96</course>
  <speed>0.2973213749463701</speed>
  <fix>3d</fix>
</trkpt>
<trkpt lat="40.0728202" lon="-105.2305913">
  <ele>1592.7</ele>
  <time>2026-08-28T19:10:23Z</time>
  <course>200.63</course>
  <speed>0.3</speed>
  <fix>3d</fix>
</trkpt>
<trkpt lat="40.0728198" lon="-105.2305916">
  <ele>1592.82</ele>
  <time>2026-08-28T19:10:23Z</time>
  <course>356.97</course>
  <speed>0.2973213749463701</speed>
  <fix>3d</fix>
</trkpt>
<trkpt lat="40.0728193" lon="-105.2305918">
  <ele>1592.93</ele>
  <time>2026-08-28T19:10:23Z</time>
  <course>357.03</course>
  <speed>0.2973213749463701</speed>
  <fix>3d</fix>
</trkpt>
<trkpt lat="40.0728197" lon="-105.2305916">
  <ele>1592.82</ele>
  <time>2026-08-28T19:10:23Z</time>
  <course>200.79</course>
  <speed>0.3</speed>
  <fix>3d</fix>
</trkpt>
<trkpt lat="40.0728192" lon="-105.2305918">
  <ele>1592.95</ele>
  <time>2026-08-28T19:10:23Z</time>
  <course>357.04</course>
  <speed>0.2973213749463701</speed>
  <fix>3d</fix>
</trkpt>
<trkpt lat="40.0728188" lon="-105.2305921">
  <ele>1593.06</ele>
  <time>2026-08-28T19:10:23Z</time>
  <course>357.09</course>
  <speed>0.2973213749463701</speed>
  <fix>3d</fix>
</trkpt>
<trkpt lat="40.0728192" lon="-105.2305918">
  <ele>1592.95</ele>
  <time>2026-08-28T19:10:23Z</time>
  <course>200.94</course>
  <speed>0.3</speed>
  <fix>3d</fix>
</trkpt>
<trkpt lat="40.0728187" lon="-105.2305921">
  <ele>1593.08</ele>
  <time>2026-08-28T19:10:23Z</time>
  <course>357.1</course>
  <speed>0.2973213749463701</speed>
  <fix>3d</fix>
</trkpt>
<trkpt lat="40.0728183" lon="-105.2305923">
  <ele>1593.18</ele>
  <time>2026-08-28T19:10:23Z</time>
  <course>357.14</course>
  <speed>0.2973213749463701</speed>
  <fix>3d</fix>
</trkpt>
<trkpt lat="40.0728187" lon="-105.2305921">
  <ele>1593.08</ele>
  <time>2026-08-28T19:10:23Z</time>
  <course>201.1</course>
  <speed>0.3</speed>
  <fix>3d</fix>
</trkpt>
<trkpt lat="40.0728182" lon="-105.2305923">
  <ele>1593.2</ele>
  <time>2026-08-28T19:10:23Z</time>
  <course>357.15</course>
  <speed>0.2973213749463701</speed>
  <fix>3d</fix>
</trkpt>
<trkpt lat="40.0728177" lon="-105.2305926">
  <ele>1593.31</ele>
  <time>2026-08-28T19:10:23Z</time>
  <course>357.2</course>
  <speed>0.2879236009777594</speed>
  <fix>3d</fix>
</trkpt>
<trkpt lat="40.0728182" lon="-105.2305923">
  <ele>1593.2</ele>
  <time>2026-08-28T19:10:23Z</time>
  <course>201.28</course>
  <speed>0.3</speed>
  <fix>3d</fix>
</trkpt>
<trkpt lat="40.0728177" lon="-105.2305926">
  <ele>1593.33</ele>
  <time>2026-08-28T19:10:23Z</time>
  <course>357.21</course>
  <speed>0.2879236009777594</speed>
  <fix>3d</fix>
</trkpt>
<trkpt lat="40.0728172" lon="-105.2305928">
  <ele>1593.43</ele>
  <time>2026-08-28T19:10:23Z</time>
  <course>357.25</course>
  <speed>0.291547594742265</speed>
  <fix>3d</fix>
</trkpt>
<trkpt lat="40.0728177" lon="-105.2305926">
  <ele>1593.33</ele>
  <time>2026-08-28T19:10:23Z</time>
  <course>201.45</course>
  <speed>0.3</speed>
  <fix>3d</fix>
</trkpt>
<trkpt lat="40.0728171" lon="-105.2305928">
  <ele>1593.45</ele>
  <time>2026-08-28T19:10:23Z</time>
  <course>357.26</course>
  <speed>0.291547594742265</speed>
  <fix>3d</fix>
</trkpt>
<trkpt lat="40.0728168" lon="-105.230593">
  <ele>1593.56</ele>
  <time>2026-08-28T19:10:23Z</time>
  <course>357.31</course>
  <speed>0.291547594742265</speed>
  <fix>3d</fix>
</trkpt>
<trkpt lat="40.0728172" lon="-105.2305929">
  <ele>1593.45</ele>
  <time>2026-08-28T19:10:23Z</time>
  <course>201.63</course>
  <speed>0.29</speed>
  <fix>3d</fix>
</trkpt>
<trkpt lat="40.0728167" lon="-105.230593">
  <ele>1593.58</ele>
  <time>2026-08-28T19:10:23Z</time>
  <course>357.31</course>
  <speed>0.291547594742265</speed>
  <fix>3d</fix>
</trkpt>
<trkpt lat="40.0728163" lon="-105.2305933">
  <ele>1593.69</ele>
  <time>2026-08-28T19:10:23Z</time>
  <course>357.37</course>
  <speed>0.291547594742265</speed>
  <fix>3d</fix>
</trkpt>
<trkpt lat="40.0728167" lon="-105.2305931">
  <ele>1593.58</ele>
  <time>2026-08-28T19:10:23Z</time>
  <course>201.84</course>
  <speed>0.29</speed>
  <fix>3d</fix>
</trkpt>
<trkpt lat="40.0728162" lon="-105.2305933">
  <ele>1593.7</ele>
  <time>2026-08-28T19:10:23Z</time>
  <course>357.38</course>
  <speed>0.291547594742265</speed>
  <fix>3d</fix>
</trkpt>
<trkpt lat="40.0728158" lon="-105.2305935">
  <ele>1593.81</ele>
  <time>2026-08-28T19:10:23Z</time>
  <course>357.42</course>
  <speed>0.291547594742265</speed>
  <fix>3d</fix>
</trkpt>
<trkpt lat="40.0728162" lon="-105.2305934">
  <ele>1593.7</ele>
  <time>2026-08-28T19:10:23Z</time>
  <course>202.02</course>
  <speed>0.29</speed>
  <fix>3d</fix>
</trkpt>
<trkpt lat="40.0728157" lon="-105.2305937">
  <ele>1593.83</ele>
  <time>2026-08-28T19:10:23Z</time>
  <course>357.42</course>
  <speed>0.291547594742265</speed>
  <fix>3d</fix>
</trkpt>
<trkpt lat="40.0728152" lon="-105.2305938">
  <ele>1593.94</ele>
  <time>2026-08-28T19:10:23Z</time>
  <course>357.46</course>
  <speed>0.291547594742265</speed>
  <fix>3d</fix>
</trkpt>
<trkpt lat="40.0728157" lon="-105.2305936">
  <ele>1593.83</ele>
  <time>2026-08-28T19:10:23Z</time>
  <course>202.21</course>
  <speed>0.29</speed>
  <fix>3d</fix>
</trkpt>
<trkpt lat="40.0728152" lon="-105.2305938">
  <ele>1593.95</ele>
  <time>2026-08-28T19:10:23Z</time>
  <course>357.47</course>
  <speed>0.291547594742265</speed>
  <fix>3d</fix>
</trkpt>
<trkpt lat="40.0728147" lon="-105.230594">
  <ele>1594.06</ele>
  <time>2026-08-28T19:10:23Z</time>
  <course>357.52</course>
  <speed>0.2823118842698621</speed>
  <fix>3d</fix>
</trkpt>
<trkpt lat="40.0728152" lon="-105.2305939">
  <ele>1593.96</ele>
  <time>2026-08-28T19:10:23Z</time>
  <course>202.41</course>
  <speed>0.29</speed>
  <fix>3d</fix>
</trkpt>
<trkpt lat="40.0728147" lon="-105.2305942">
  <ele>1594.08</ele>
  <time>2026-08-28T19:10:23Z</time>
  <course>357.52</course>
  <speed>0.2823118842698621</speed>
  <fix>3d</fix>
</trkpt>
<trkpt lat="40.0728144" lon="-105.2305944">
  <ele>1594.19</ele>
  <time>2026-08-28T19:10:23Z</time>
  <course>357.57</course>
  <speed>0.2823118842698621</speed>
  <fix>3d</fix>
</trkpt>
<trkpt lat="40.0728147" lon="-105.2305941">
  <ele>1594.08</ele>
  <time>2026-08-28T19:10:23Z</time>
  <course>202.62</course>
  <speed>0.29</speed>
  <fix>3d</fix>
</trkpt>
<trkpt lat="40.0728143" lon="-105.2305944">
  <ele>1594.2</ele>
  <time>2026-08-28T19:10:23Z</time>
  <course>357.57</course>
  <speed>0.2823118842698621</speed>
  <fix>3d</fix>
</trkpt>
<trkpt lat="40.0728139" lon="-105.2305947">
  <ele>1594.31</ele>
  <time>2026-08-28T19:10:23Z</time>
  <course>357.62</course>
  <speed>0.2823118842698621</speed>
  <fix>3d</fix>
</trkpt>
<trkpt lat="40.0728142" lon="-105.2305944">
  <ele>1594.21</ele>
  <time>2026-08-28T19:10:23Z</time>
  <course>202.84</course>
  <speed>0.28</speed>
  <fix>3d</fix>
</trkpt>
<trkpt lat="40.0728138" lon="-105.2305947">
  <ele>1594.33</ele>
  <time>2026-08-28T19:10:23Z</time>
  <course>357.62</course>
  <speed>0.2823118842698621</speed>
  <fix>3d</fix>
</trkpt>
<trkpt lat="40.0728134" lon="-105.2305949">
  <ele>1594.44</ele>
  <time>2026-08-28T19:10:23Z</time>
  <course>357.66</course>
  <speed>0.2823118842698621</speed>
  <fix>3d</fix>
</trkpt>
<trkpt lat="40.0728138" lon="-105.2305946">
  <ele>1594.33</ele>
  <time>2026-08-28T19:10:23Z</time>
  <course>203.08</course>
  <speed>0.28</speed>
  <fix>3d</fix>
</trkpt>
<trkpt lat="40.0728133" lon="-105.2305949">
  <ele>1594.46</ele>
  <time>2026-08-28T19:10:23Z</time>
  <course>357.67</course>
  <speed>0.2823118842698621</speed>
  <fix>3d</fix>
</trkpt>
<trkpt lat="40.0728128" lon="-105.2305952">
  <ele>1594.57</ele>
  <time>2026-08-28T19:10:23Z</time>
  <course>357.71</course>
  <speed>0.27313000567495327</speed>
  <fix>3d</fix>
</trkpt>
<trkpt lat="40.0728133" lon="-105.2305949">
  <ele>1594.46</ele>
  <time>2026-08-28T19:10:23Z</time>
  <course>203.32</course>
  <speed>0.28</speed>
  <fix>3d</fix>
</trkpt>
<trkpt lat="40.0728128" lon="-105.2305952">
  <ele>1594.58</ele>
  <time>2026-08-28T19:10:23Z</time>
  <course>357.71</course>
  <speed>0.27313000567495327</speed>
  <fix>3d</fix>
</trkpt>
<trkpt lat="40.0728125" lon="-105.2305954">
  <ele>1594.69</ele>
  <time>2026-08-28T19:10:23Z</time>
  <course>357.75</course>
  <speed>0.27313000567495327</speed>
  <fix>3d</fix>
</trkpt>
<trkpt lat="40.0728128" lon="-105.2305952">
  <ele>1594.58</ele>
  <time>2026-08-28T19:10:23Z</time>
  <course>203.56</course>
  <speed>0.28</speed>
  <fix>3d</fix>
</trkpt>
<trkpt lat="40.0728123" lon="-105.2305954">
  <ele>1594.71</ele>
  <time>2026-08-28T19:10:23Z</time>
  <course>357.76</course>
  <speed>0.27313000567495327</speed>
  <fix>3d</fix>
</trkpt>
<trkpt lat="40.072812" lon="-105.2305957">
  <ele>1594.82</ele>
  <time>2026-08-28T19:10:23Z</time>
  <course>357.8</course>
  <speed>0.27313000567495327</speed>
  <fix>3d</fix>
</trkpt>
<trkpt lat="40.0728124" lon="-105.2305954">
  <ele>1594.71</ele>
  <time>2026-08-28T19:10:23Z</time>
  <course>203.79</course>
  <speed>0.28</speed>
  <fix>3d</fix>
</trkpt>
<trkpt lat="40.072812" lon="-105.2305957">
  <ele>1594.83</ele>
  <time>2026-08-28T19:10:23Z</time>
  <course>357.8</course>
  <speed>0.27313000567495327</speed>
  <fix>3d</fix>
</trkpt>
<trkpt lat="40.0728116" lon="-105.2305959">
  <ele>1594.94</ele>
  <time>2026-08-28T19:10:23Z</time>
  <course>357.84</course>
  <speed>0.27313000567495327</speed>
  <fix>3d</fix>
</trkpt>
<trkpt lat="40.0728119" lon="-105.2305957">
  <ele>1594.83</ele>
  <time>2026-08-28T19:10:23Z</time>
  <course>204.03</course>
  <speed>0.27</speed>
  <fix>3d</fix>
</trkpt>
<trkpt lat="40.0728115" lon="-105.2305959">
  <ele>1594.96</ele>
  <time>2026-08-28T19:10:23Z</time>
  <course>357.84</course>
  <speed>0.27313000567495327</speed>
  <fix>3d</fix>
</trkpt>
<trkpt lat="40.072811" lon="-105.2305963">
  <ele>1595.07</ele>
  <time>2026-08-28T19:10:23Z</time>
  <course>357.88</course>
  <speed>0.27313000567495327</speed>
  <fix>3d</fix>
</trkpt>
<trkpt lat="40.0728115" lon="-105.230596">
  <ele>1594.96</ele>
  <time>2026-08-28T19:10:23Z</time>
  <course>204.3</course>
  <speed>0.27</speed>
  <fix>3d</fix>
</trkpt>
<trkpt lat="40.072811" lon="-105.2305963">
  <ele>1595.08</ele>
  <time>2026-08-28T19:10:23Z</time>
  <course>357.89</course>
  <speed>0.27313000567495327</speed>
  <fix>3d</fix>
</trkpt>
<trkpt lat="40.0728107" lon="-105.2305964">
  <ele>1595.19</ele>
  <time>2026-08-28T19:10:23Z</time>
  <course>357.92</course>
  <speed>0.2640075756488817</speed>
  <fix>3d</fix>
</trkpt>
<trkpt lat="40.072811" lon="-105.2305963">
  <ele>1595.09</ele>
  <time>2026-08-28T19:10:23Z</time>
  <course>204.55</course>
  <speed>0.27</speed>
  <fix>3d</fix>
</trkpt>
<trkpt lat="40.0728105" lon="-105.2305966">
  <ele>1595.21</ele>
  <time>2026-08-28T19:10:23Z</time>
  <course>357.93</course>
  <speed>0.2640075756488817</speed>
  <fix>3d</fix>
</trkpt>
<trkpt lat="40.0728102" lon="-105.2305968">
  <ele>1595.32</ele>
  <time>2026-08-28T19:10:23Z</time>
  <course>357.97</course>
  <speed>0.2640075756488817</speed>
  <fix>3d</fix>
</trkpt>
<trkpt lat="40.0728105" lon="-105.2305965">
  <ele>1595.21</ele>
  <time>2026-08-28T19:10:23Z</time>
  <course>204.81</course>
  <speed>0.27</speed>
  <fix>3d</fix>
</trkpt>
<trkpt lat="40.0728098" lon="-105.2305971">
  <ele>1595.44</ele>
  <time>2026-08-28T19:10:23Z</time>
  <course>358.25</course>
  <speed>0.2640075756488817</speed>
  <fix>3d</fix>
</trkpt>
<trkpt lat="40.0728101" lon="-105.2305968">
  <ele>1595.34</ele>
  <time>2026-08-28T19:10:23Z</time>
  <course>205.26</course>
  <speed>0.27</speed>
  <fix>3d</fix>
</trkpt>
<trkpt lat="40.0728092" lon="-105.2305973">
  <ele>1595.53</ele>
  <time>2026-08-28T19:10:24Z</time>
  <course>358.68</course>
  <speed>0.25495097567963926</speed>
  <fix>3d</fix>
</trkpt>
<trkpt lat="40.0728096" lon="-105.2305971">
  <ele>1595.45</ele>
  <time>2026-08-28T19:10:24Z</time>
  <course>205.76</course>
  <speed>0.26</speed>
  <fix>3d</fix>
</trkpt>
<trkpt lat="40.0728089" lon="-105.2305976">
  <ele>1595.59</ele>
  <time>2026-08-28T19:10:24Z</time>
  <course>358.91</course>
  <speed>0.25495097567963926</speed>
  <fix>3d</fix>
</trkpt>
<trkpt lat="40.0728092" lon="-105.2305973">
  <ele>1595.53</ele>
  <time>2026-08-28T19:10:24Z</time>
  <course>205.88</course>
  <speed>0.26</speed>
  <fix>3d</fix>
</trkpt>
<trkpt lat="40.0728088" lon="-105.2305976">
  <ele>1595.59</ele>
  <time>2026-08-28T19:10:24Z</time>
  <course>358.93</course>
  <speed>0.25495097567963926</speed>
  <fix>3d</fix>
</trkpt>
<trkpt lat="40.0728085" lon="-105.2305978">
  <ele>1595.62</ele>
  <time>2026-08-28T19:10:24Z</time>
  <course>359.04</course>
  <speed>0.25079872407968906</speed>
  <fix>3d</fix>
</trkpt>
<trkpt lat="40.0728088" lon="-105.2305976">
  <ele>1595.59</ele>
  <time>2026-08-28T19:10:24Z</time>
  <course>205.58</course>
  <speed>0.26</speed>
  <fix>3d</fix>
</trkpt>
<trkpt lat="40.0728084" lon="-105.2305978">
  <ele>1595.63</ele>
  <time>2026-08-28T19:10:24Z</time>
  <course>359.05</course>
  <speed>0.25079872407968906</speed>
  <fix>3d</fix>
</trkpt>
<trkpt lat="40.072808" lon="-105.2305981">
  <ele>1595.64</ele>
  <time>2026-08-28T19:10:24Z</time>
  <course>359.1</course>
  <speed>0.24166091947189144</speed>
  <fix>3d</fix>
</trkpt>
<trkpt lat="40.0728084" lon="-105.2305979">
  <ele>1595.62</ele>
  <time>2026-08-28T19:10:24Z</time>
  <course>204.99</course>
  <speed>0.25</speed>
  <fix>3d</fix>
</trkpt>
<trkpt lat="40.0728079" lon="-105.2305981">
  <ele>1595.64</ele>
  <time>2026-08-28T19:10:24Z</time>
  <course>359.11</course>
  <speed>0.24166091947189144</speed>
  <fix>3d</fix>
</trkpt>
<trkpt lat="40.0728077" lon="-105.2305983">
  <ele>1595.65</ele>
  <time>2026-08-28T19:10:24Z</time>
  <course>359.12</course>
  <speed>0.23769728648009425</speed>
  <fix>3d</fix>
</trkpt>
<trkpt lat="40.0728079" lon="-105.2305982">
  <ele>1595.64</ele>
  <time>2026-08-28T19:10:24Z</time>
  <course>204.15</course>
  <speed>0.24</speed>
  <fix>3d</fix>
</trkpt>
<trkpt lat="40.0728076" lon="-105.2305983">
  <ele>1595.65</ele>
  <time>2026-08-28T19:10:24Z</time>
  <course>359.12</course>
  <speed>0.23769728648009425</speed>
  <fix>3d</fix>
</trkpt>
<trkpt lat="40.0728073" lon="-105.2305985">
  <ele>1595.64</ele>
  <time>2026-08-28T19:10:24Z</time>
  <course>359.13</course>
  <speed>0.22472205054244232</speed>
  <fix>3d</fix>
</trkpt>
<trkpt lat="40.0728076" lon="-105.2305983">
  <ele>1595.65</ele>
  <time>2026-08-28T19:10:24Z</time>
  <course>203.13</course>
  <speed>0.24</speed>
  <fix>3d</fix>
</trkpt>
<trkpt lat="40.0728072" lon="-105.2305985">
  <ele>1595.64</ele>
  <time>2026-08-28T19:10:24Z</time>
  <course>359.13</course>
  <speed>0.22472205054244232</speed>
  <fix>3d</fix>
</trkpt>
<trkpt lat="40.0728068" lon="-105.2305988">
  <ele>1595.64</ele>
  <time>2026-08-28T19:10:24Z</time>
  <course>359.13</course>
  <speed>0.22472205054244232</speed>
  <fix>3d</fix>
</trkpt>
<trkpt lat="40.0728072" lon="-105.2305986">
  <ele>1595.64</ele>
  <time>2026-08-28T19:10:24Z</time>
  <course>202.01</course>
  <speed>0.23</speed>
  <fix>3d</fix>
</trkpt>
<trkpt lat="40.0728067" lon="-105.2305988">
  <ele>1595.64</ele>
  <time>2026-08-28T19:10:24Z</time>
  <course>359.13</course>
  <speed>0.22472205054244232</speed>
  <fix>3d</fix>
</trkpt>
<trkpt lat="40.0728065" lon="-105.230599">
  <ele>1595.63</ele>
  <time>2026-08-28T19:10:24Z</time>
  <course>359.12</course>
  <speed>0.22135943621178655</speed>
  <fix>3d</fix>
</trkpt>
<trkpt lat="40.0728067" lon="-105.2305988">
  <ele>1595.64</ele>
  <time>2026-08-28T19:10:24Z</time>
  <course>200.88</course>
  <speed>0.23</speed>
  <fix>3d</fix>
</trkpt>
<trkpt lat="40.0728064" lon="-105.230599">
  <ele>1595.63</ele>
  <time>2026-08-28T19:10:24Z</time>
  <course>359.12</course>
  <speed>0.22135943621178655</speed>
  <fix>3d</fix>
</trkpt>
<trkpt lat="40.0728061" lon="-105.230599">
  <ele>1595.63</ele>
  <time>2026-08-28T19:10:24Z</time>
  <course>359.11</course>
  <speed>0.21189620100417092</speed>
  <fix>3d</fix>
</trkpt>
<trkpt lat="40.0728064" lon="-105.2305989">
  <ele>1595.63</ele>
  <time>2026-08-28T19:10:24Z</time>
  <course>199.74</course>
  <speed>0.22</speed>
  <fix>3d</fix>
</trkpt>
<trkpt lat="40.0728061" lon="-105.2305992">
  <ele>1595.63</ele>
  <time>2026-08-28T19:10:24Z</time>
  <course>359.11</course>
  <speed>0.21189620100417092</speed>
  <fix>3d</fix>
</trkpt>
<trkpt lat="40.0728056" lon="-105.2305993">
  <ele>1595.62</ele>
  <time>2026-08-28T19:10:24Z</time>
  <course>359.12</course>
  <speed>0.208806130178211</speed>
  <fix>3d</fix>
</trkpt>
<trkpt lat="40.072806" lon="-105.2305992">
  <ele>1595.62</ele>
  <time>2026-08-28T19:10:24Z</time>
  <course>198.63</course>
  <speed>0.21</speed>
  <fix>3d</fix>
</trkpt>
<trkpt lat="40.0728056" lon="-105.2305993">
  <ele>1595.62</ele>
  <time>2026-08-28T19:10:24Z</time>
  <course>359.12</course>
  <speed>0.208806130178211</speed>
  <fix>3d</fix>
</trkpt>
<trkpt lat="40.0728054" lon="-105.2305995">
  <ele>1595.62</ele>
  <time>2026-08-28T19:10:24Z</time>
  <course>359.13</course>
  <speed>0.208806130178211</speed>
  <fix>3d</fix>
</trkpt>
<trkpt lat="40.0728057" lon="-105.2305993">
  <ele>1595.62</ele>
  <time>2026-08-28T19:10:24Z</time>
  <course>197.59</course>
  <speed>0.21</speed>
  <fix>3d</fix>
</trkpt>
<trkpt lat="40.0728053" lon="-105.2305995">
  <ele>1595.62</ele>
  <time>2026-08-28T19:10:24Z</time>
  <course>359.13</course>
  <speed>0.20615528128088303</speed>
  <fix>3d</fix>
</trkpt>
<trkpt lat="40.0728049" lon="-105.2305995">
  <ele>1595.62</ele>
  <time>2026-08-28T19:10:24Z</time>
  <course>359.14</course>
  <speed>0.196468827043885</speed>
  <fix>3d</fix>
</trkpt>
<trkpt lat="40.0728053" lon="-105.2305994">
  <ele>1595.62</ele>
  <time>2026-08-28T19:10:24Z</time>
  <course>196.6</course>
  <speed>0.2</speed>
  <fix>3d</fix>
</trkpt>
<trkpt lat="40.0728049" lon="-105.2305995">
  <ele>1595.62</ele>
  <time>2026-08-28T19:10:24Z</time>
  <course>359.14</course>
  <speed>0.196468827043885</speed>
  <fix>3d</fix>
</trkpt>
<trkpt lat="40.0728047" lon="-105.2305997">
  <ele>1595.61</ele>
  <time>2026-08-28T19:10:24Z</time>
  <course>359.16</course>
  <speed>0.196468827043885</speed>
  <fix>3d</fix>
</trkpt>
<trkpt lat="40.0728049" lon="-105.2305996">
  <ele>1595.62</ele>
  <time>2026-08-28T19:10:24Z</time>
  <course>195.68</course>
  <speed>0.2</speed>
  <fix>3d</fix>
</trkpt>
<trkpt lat="40.0728046" lon="-105.2305997">
  <ele>1595.61</ele>
  <time>2026-08-28T19:10:24Z</time>
  <course>359.16</course>
  <speed>0.196468827043885</speed>
  <fix>3d</fix>
</trkpt>
<trkpt lat="40.0728043" lon="-105.2305997">
  <ele>1595.61</ele>
  <time>2026-08-28T19:10:24Z</time>
  <course>359.17</course>
  <speed>0.194164878389476</speed>
  <fix>3d</fix>
</trkpt>
<trkpt lat="40.0728046" lon="-105.2305997">
  <ele>1595.61</ele>
  <time>2026-08-28T19:10:24Z</time>
  <course>194.81</course>
  <speed>0.2</speed>
  <fix>3d</fix>
</trkpt>
<trkpt lat="40.0728043" lon="-105.2305999">
  <ele>1595.61</ele>
  <time>2026-08-28T19:10:24Z</time>
  <course>359.17</course>
  <speed>0.194164878389476</speed>
  <fix>3d</fix>
</trkpt>
<trkpt lat="40.072804" lon="-105.2305999">
  <ele>1595.61</ele>
  <time>2026-08-28T19:10:24Z</time>
  <course>359.18</course>
  <speed>0.18439088914585774</speed>
  <fix>3d</fix>
</trkpt>
<trkpt lat="40.0728042" lon="-105.2305998">
  <ele>1595.61</ele>
  <time>2026-08-28T19:10:24Z</time>
  <course>194.0</course>
  <speed>0.19</speed>
  <fix>3d</fix>
</trkpt>
<trkpt lat="40.0728038" lon="-105.2306">
  <ele>1595.61</ele>
  <time>2026-08-28T19:10:24Z</time>
  <course>359.18</course>
  <speed>0.18439088914585774</speed>
  <fix>3d</fix>
</trkpt>
<trkpt lat="40.0728036" lon="-105.2306">
  <ele>1595.61</ele>
  <time>2026-08-28T19:10:24Z</time>
  <course>359.2</course>
  <speed>0.18439088914585774</speed>
  <fix>3d</fix>
</trkpt>
<trkpt lat="40.0728039" lon="-105.2305999">
  <ele>1595.61</ele>
  <time>2026-08-28T19:10:24Z</time>
  <course>193.28</course>
  <speed>0.19</speed>
  <fix>3d</fix>
</trkpt>
<trkpt lat="40.0728036" lon="-105.2306">
  <ele>1595.61</ele>
  <time>2026-08-28T19:10:24Z</time>
  <course>359.2</course>
  <speed>0.18439088914585774</speed>
  <fix>3d</fix>
</trkpt>
<trkpt lat="40.0728032" lon="-105.2306">
  <ele>1595.61</ele>
  <time>2026-08-28T19:10:24Z</time>
  <course>359.21</course>
  <speed>0.1824828759089466</speed>
  <fix>3d</fix>
</trkpt>
<trkpt lat="40.0728036" lon="-105.2306">
  <ele>1595.61</ele>
  <time>2026-08-28T19:10:24Z</time>
  <course>192.61</course>
  <speed>0.18</speed>
  <fix>3d</fix>
</trkpt>
<trkpt lat="40.0728032" lon="-105.2306002">
  <ele>1595.61</ele>
  <time>2026-08-28T19:10:24Z</time>
  <course>359.21</course>
  <speed>0.1824828759089466</speed>
  <fix>3d</fix>
</trkpt>
<trkpt lat="40.072803" lon="-105.2306002">
  <ele>1595.61</ele>
  <time>2026-08-28T19:10:24Z</time>
  <course>359.23</course>
  <speed>0.17262676501632068</speed>
  <fix>3d</fix>
</trkpt>
<trkpt lat="40.0728032" lon="-105.2306001">
  <ele>1595.61</ele>
  <time>2026-08-28T19:10:24Z</time>
  <course>191.94</course>
  <speed>0.18</speed>
  <fix>3d</fix>
</trkpt>
<trkpt lat="40.0728029" lon="-105.2306002">
  <ele>1595.61</ele>
  <time>2026-08-28T19:10:24Z</time>
  <course>359.23</course>
  <speed>0.17262676501632068</speed>
  <fix>3d</fix>
</trkpt>
<trkpt lat="40.0728026" lon="-105.2306002">
  <ele>1595.61</ele>
  <time>2026-08-28T19:10:24Z</time>
  <course>359.24</course>
  <speed>0.17262676501632068</speed>
  <fix>3d</fix>
</trkpt>
<trkpt lat="40.0728029" lon="-105.2306002">
  <ele>1595.61</ele>
  <time>2026-08-28T19:10:24Z</time>
  <course>191.32</course>
  <speed>0.18</speed>
  <fix>3d</fix>
</trkpt>
<trkpt lat="40.0728025" lon="-105.2306002">
  <ele>1595.61</ele>
  <time>2026-08-28T19:10:24Z</time>
  <course>359.24</course>
  <speed>0.17262676501632068</speed>
  <fix>3d</fix>
</trkpt>
<trkpt lat="40.0728024" lon="-105.2306004">
  <ele>1595.61</ele>
  <time>2026-08-28T19:10:24Z</time>
  <course>359.26</course>
  <speed>0.17262676501632068</speed>
  <fix>3d</fix>
</trkpt>
<trkpt lat="40.0728026" lon="-105.2306003">
  <ele>1595.61</ele>
  <time>2026-08-28T19:10:24Z</time>
  <course>190.76</course>
  <speed>0.17</speed>
  <fix>3d</fix>
</trkpt>
<trkpt lat="40.0728023" lon="-105.2306004">
  <ele>1595.61</ele>
  <time>2026-08-28T19:10:24Z</time>
  <course>359.26</course>
  <speed>0.17262676501632068</speed>
  <fix>3d</fix>
</trkpt>
<trkpt lat="40.072802" lon="-105.2306005">
  <ele>1595.62</ele>
  <time>2026-08-28T19:10:24Z</time>
  <course>359.27</course>
  <speed>0.16124515496597097</speed>
  <fix>3d</fix>
</trkpt>
<trkpt lat="40.0728023" lon="-105.2306004">
  <ele>1595.61</ele>
  <time>2026-08-28T19:10:24Z</time>
  <course>190.21</course>
  <speed>0.17</speed>
  <fix>3d</fix>
</trkpt>
<trkpt lat="40.0728019" lon="-105.2306005">
  <ele>1595.62</ele>
  <time>2026-08-28T19:10:24Z</time>
  <course>359.28</course>
  <speed>0.16124515496597097</speed>
  <fix>3d</fix>
</trkpt>
<trkpt lat="40.0728018" lon="-105.2306005">
  <ele>1595.62</ele>
  <time>2026-08-28T19:10:24Z</time>
  <course>359.3</course>
  <speed>0.16124515496597097</speed>
  <fix>3d</fix>
</trkpt>
<trkpt lat="40.072802" lon="-105.2306004">
  <ele>1595.61</ele>
  <time>2026-08-28T19:10:24Z</time>
  <course>189.7</course>
  <speed>0.17</speed>
  <fix>3d</fix>
</trkpt>
<trkpt lat="40.0728017" lon="-105.2306005">
  <ele>1595.62</ele>
  <time>2026-08-28T19:10:24Z</time>
  <course>359.3</course>
  <speed>0.16124515496597097</speed>
  <fix>3d</fix>
</trkpt>
<trkpt lat="40.0728015" lon="-105.2306005">
  <ele>1595.61</ele>
  <time>2026-08-28T19:10:24Z</time>
  <course>359.32</course>
  <speed>0.16124515496597097</speed>
  <fix>3d</fix>
</trkpt>
<trkpt lat="40.0728017" lon="-105.2306005">
  <ele>1595.61</ele>
  <time>2026-08-28T19:10:24Z</time>
  <course>189.2</course>
  <speed>0.16</speed>
  <fix>3d</fix>
</trkpt>
<trkpt lat="40.0728013" lon="-105.2306005">
  <ele>1595.61</ele>
  <time>2026-08-28T19:10:24Z</time>
  <course>359.32</course>
  <speed>0.16124515496597097</speed>
  <fix>3d</fix>
</trkpt>
<trkpt lat="40.0728012" lon="-105.2306005">
  <ele>1595.61</ele>
  <time>2026-08-28T19:10:24Z</time>
  <course>359.32</course>
  <speed>0.16124515496597097</speed>
  <fix>3d</fix>
</trkpt>
<trkpt lat="40.0728014" lon="-105.2306005">
  <ele>1595.61</ele>
  <time>2026-08-28T19:10:24Z</time>
  <course>188.69</course>
  <speed>0.16</speed>
  <fix>3d</fix>
</trkpt>
<trkpt lat="40.0728011" lon="-105.2306007">
  <ele>1595.61</ele>
  <time>2026-08-28T19:10:24Z</time>
  <course>359.32</course>
  <speed>0.16124515496597097</speed>
  <fix>3d</fix>
</trkpt>
<trkpt lat="40.0728009" lon="-105.2306007">
  <ele>1595.61</ele>
  <time>2026-08-28T19:10:24Z</time>
  <course>359.33</course>
  <speed>0.15132745950421556</speed>
  <fix>3d</fix>
</trkpt>
<trkpt lat="40.0728011" lon="-105.2306006">
  <ele>1595.61</ele>
  <time>2026-08-28T19:10:24Z</time>
  <course>188.22</course>
  <speed>0.16</speed>
  <fix>3d</fix>
</trkpt>
<trkpt lat="40.0728007" lon="-105.2306007">
  <ele>1595.61</ele>
  <time>2026-08-28T19:10:24Z</time>
  <course>359.33</course>
  <speed>0.15132745950421556</speed>
  <fix>3d</fix>
</trkpt>
<trkpt lat="40.0728006" lon="-105.2306007">
  <ele>1595.61</ele>
  <time>2026-08-28T19:10:24Z</time>
  <course>359.34</course>
  <speed>0.15132745950421556</speed>
  <fix>3d</fix>
</trkpt>
<trkpt lat="40.0728008" lon="-105.2306007">
  <ele>1595.61</ele>
  <time>2026-08-28T19:10:24Z</time>
  <course>187.78</course>
  <speed>0.15</speed>
  <fix>3d</fix>
</trkpt>
<trkpt lat="40.0728006" lon="-105.2306007">
  <ele>1595.61</ele>
  <time>2026-08-28T19:10:24Z</time>
  <course>359.34</course>
  <speed>0.15132745950421556</speed>
  <fix>3d</fix>
</trkpt>
<trkpt lat="40.0728003" lon="-105.2306007">
  <ele>1595.61</ele>
  <time>2026-08-28T19:10:24Z</time>
  <course>359.35</course>
  <speed>0.15033296378372907</speed>
  <fix>3d</fix>
</trkpt>
<trkpt lat="40.0728005" lon="-105.2306007">
  <ele>1595.61</ele>
  <time>2026-08-28T19:10:24Z</time>
  <course>187.39</course>
  <speed>0.15</speed>
  <fix>3d</fix>
</trkpt>
<trkpt lat="40.0728003" lon="-105.2306007">
  <ele>1595.61</ele>
  <time>2026-08-28T19:10:24Z</time>
  <course>359.35</course>
  <speed>0.15033296378372907</speed>
  <fix>3d</fix>
</trkpt>
<trkpt lat="40.0728" lon="-105.2306007">
  <ele>1595.61</ele>
  <time>2026-08-28T19:10:24Z</time>
  <course>359.36</course>
  <speed>0.140356688476182</speed>
  <fix>3d</fix>
</trkpt>
<trkpt lat="40.0728002" lon="-105.2306007">
  <ele>1595.61</ele>
  <time>2026-08-28T19:10:24Z</time>
  <course>187.03</course>
  <speed>0.15</speed>
  <fix>3d</fix>
</trkpt>
<trkpt lat="40.0728" lon="-105.2306007">
  <ele>1595.61</ele>
  <time>2026-08-28T19:10:24Z</time>
  <course>359.37</course>
  <speed>0.140356688476182</speed>
  <fix>3d</fix>
</trkpt>
<trkpt lat="40.0727998" lon="-105.2306009">
  <ele>1595.61</ele>
  <time>2026-08-28T19:10:24Z</time>
  <course>359.37</course>
  <speed>0.140356688476182</speed>
  <fix>3d</fix>
</trkpt>
<trkpt lat="40.0728" lon="-105.2306008">
  <ele>1595.61</ele>
  <time>2026-08-28T19:10:24Z</time>
  <course>186.69</course>
  <speed>0.15</speed>
  <fix>3d</fix>
</trkpt>
<trkpt lat="40.0727997" lon="-105.2306009">
  <ele>1595.61</ele>
  <time>2026-08-28T19:10:24Z</time>
  <course>359.38</course>
  <speed>0.140356688476182</speed>
  <fix>3d</fix>
</trkpt>
<trkpt lat="40.0727994" lon="-105.2306009">
  <ele>1595.62</ele>
  <time>2026-08-28T19:10:24Z</time>
  <course>359.39</course>
  <speed>0.140356688476182</speed>
  <fix>3d</fix>
</trkpt>
<trkpt lat="40.0727997" lon="-105.2306009">
  <ele>1595.61</ele>
  <time>2026-08-28T19:10:24Z</time>
  <course>186.4</course>
  <speed>0.14</speed>
  <fix>3d</fix>
</trkpt>
<trkpt lat="40.0727994" lon="-105.2306009">
  <ele>1595.62</ele>
  <time>2026-08-28T19:10:24Z</time>
  <course>359.39</course>
  <speed>0.140356688476182</speed>
  <fix>3d</fix>
</trkpt>
<trkpt lat="40.0727993" lon="-105.2306009">
  <ele>1595.62</ele>
  <time>2026-08-28T19:10:24Z</time>
  <course>359.42</course>
  <speed>0.140356688476182</speed>
  <fix>3d</fix>
</trkpt>
<trkpt lat="40.0727995" lon="-105.2306009">
  <ele>1595.62</ele>
  <time>2026-08-28T19:10:24Z</time>
  <course>186.16</course>
  <speed>0.14</speed>
  <fix>3d</fix>
</trkpt>
<trkpt lat="40.0727992" lon="-105.2306009">
  <ele>1595.62</ele>
  <time>2026-08-28T19:10:24Z</time>
  <course>359.42</course>
  <speed>0.140356688476182</speed>
  <fix>3d</fix>
</trkpt>
<trkpt lat="40.0727989" lon="-105.2306009">
  <ele>1595.61</ele>
  <time>2026-08-28T19:10:24Z</time>
  <course>359.43</course>
  <speed>0.130384048104053</speed>
  <fix>3d</fix>
</trkpt>
<trkpt lat="40.0727992" lon="-105.2306009">
  <ele>1595.61</ele>
  <time>2026-08-28T19:10:24Z</time>
  <course>185.9</course>
  <speed>0.14</speed>
  <fix>3d</fix>
</trkpt>
<trkpt lat="40.0727989" lon="-105.2306009">
  <ele>1595.61</ele>
  <time>2026-08-28T19:10:24Z</time>
  <course>359.43</course>
  <speed>0.130384048104053</speed>
  <fix>3d</fix>
</trkpt>
<trkpt lat="40.0727988" lon="-105.2306009">
  <ele>1595.61</ele>
  <time>2026-08-28T19:10:24Z</time>
  <course>359.42</course>
  <speed>0.130384048104053</speed>
  <fix>3d</fix>
</trkpt>
<trkpt lat="40.0727989" lon="-105.2306009">
  <ele>1595.61</ele>
  <time>2026-08-28T19:10:24Z</time>
  <course>185.59</course>
  <speed>0.13</speed>
  <fix>3d</fix>
</trkpt>
<trkpt lat="40.0727987" lon="-105.2306009">
  <ele>1595.61</ele>
  <time>2026-08-28T19:10:24Z</time>
  <course>359.42</course>
  <speed>0.130384048104053</speed>
  <fix>3d</fix>
</trkpt>
<trkpt lat="40.0727985" lon="-105.2306009">
  <ele>1595.61</ele>
  <time>2026-08-28T19:10:24Z</time>
  <course>359.43</course>
  <speed>0.130384048104053</speed>
  <fix>3d</fix>
</trkpt>
<trkpt lat="40.0727987" lon="-105.2306009">
  <ele>1595.61</ele>
  <time>2026-08-28T19:10:24Z</time>
  <course>185.3</course>
  <speed>0.13</speed>
  <fix>3d</fix>
</trkpt>
<trkpt lat="40.0727985" lon="-105.2306009">
  <ele>1595.61</ele>
  <time>2026-08-28T19:10:24Z</time>
  <course>359.44</course>
  <speed>0.130384048104053</speed>
  <fix>3d</fix>
</trkpt>
<trkpt lat="40.0727982" lon="-105.2306011">
  <ele>1595.61</ele>
  <time>2026-08-28T19:10:24Z</time>
  <course>359.44</course>
  <speed>0.130384048104053</speed>
  <fix>3d</fix>
</trkpt>
<trkpt lat="40.0727985" lon="-105.230601">
  <ele>1595.61</ele>
  <time>2026-08-28T19:10:24Z</time>
  <course>185.07</course>
  <speed>0.13</speed>
  <fix>3d</fix>
</trkpt>
<trkpt lat="40.0727982" lon="-105.2306011">
  <ele>1595.61</ele>
  <time>2026-08-28T19:10:24Z</time>
  <course>359.45</course>
  <speed>0.130384048104053</speed>
  <fix>3d</fix>
</trkpt>
<trkpt lat="40.0727981" lon="-105.2306011">
  <ele>1595.61</ele>
  <time>2026-08-28T19:10:24Z</time>
  <course>359.45</course>
  <speed>0.12041594578792296</speed>
  <fix>3d</fix>
</trkpt>
<trkpt lat="40.0727982" lon="-105.2306011">
  <ele>1595.61</ele>
  <time>2026-08-28T19:10:24Z</time>
  <course>184.86</course>
  <speed>0.13</speed>
  <fix>3d</fix>
</trkpt>
<trkpt lat="40.072798" lon="-105.2306011">
  <ele>1595.61</ele>
  <time>2026-08-28T19:10:24Z</time>
  <course>359.45</course>
  <speed>0.12041594578792296</speed>
  <fix>3d</fix>
</trkpt>
<trkpt lat="40.0727977" lon="-105.2306011">
  <ele>1595.61</ele>
  <time>2026-08-28T19:10:24Z</time>
  <course>359.46</course>
  <speed>0.12</speed>
  <fix>3d</fix>
</trkpt>
<trkpt lat="40.072798" lon="-105.2306011">
  <ele>1595.61</ele>
  <time>2026-08-28T19:10:24Z</time>
  <course>184.66</course>
  <speed>0.12</speed>
  <fix>3d</fix>
</trkpt>
<trkpt lat="40.0727977" lon="-105.2306011">
  <ele>1595.61</ele>
  <time>2026-08-28T19:10:24Z</time>
  <course>359.46</course>
  <speed>0.12</speed>
  <fix>3d</fix>
</trkpt>
<trkpt lat="40.0727976" lon="-105.2306011">
  <ele>1595.61</ele>
  <time>2026-08-28T19:10:24Z</time>
  <course>359.48</course>
  <speed>0.12</speed>
  <fix>3d</fix>
</trkpt>
<trkpt lat="40.0727977" lon="-105.2306011">
  <ele>1595.61</ele>
  <time>2026-08-28T19:10:24Z</time>
  <course>184.45</course>
  <speed>0.12</speed>
  <fix>3d</fix>
</trkpt>
<trkpt lat="40.0727976" lon="-105.2306011">
  <ele>1595.61</ele>
  <time>2026-08-28T19:10:24Z</time>
  <course>359.48</course>
  <speed>0.12</speed>
  <fix>3d</fix>
</trkpt>
<trkpt lat="40.0727974" lon="-105.2306012">
  <ele>1595.62</ele>
  <time>2026-08-28T19:10:24Z</time>
  <course>359.49</course>
  <speed>0.12</speed>
  <fix>3d</fix>
</trkpt>
<trkpt lat="40.0727976" lon="-105.2306011">
  <ele>1595.61</ele>
  <time>2026-08-28T19:10:24Z</time>
  <course>184.26</course>
  <speed>0.12</speed>
  <fix>3d</fix>
</trkpt>
<trkpt lat="40.0727974" lon="-105.2306012">
  <ele>1595.62</ele>
  <time>2026-08-28T19:10:24Z</time>
  <course>359.49</course>
  <speed>0.11</speed>
  <fix>3d</fix>
</trkpt>
<trkpt lat="40.0727971" lon="-105.2306012">
  <ele>1595.62</ele>
  <time>2026-08-28T19:10:24Z</time>
  <course>359.5</course>
  <speed>0.11</speed>
  <fix>3d</fix>
</trkpt>
<trkpt lat="40.0727973" lon="-105.2306012">
  <ele>1595.61</ele>
  <time>2026-08-28T19:10:24Z</time>
  <course>184.09</course>
  <speed>0.12</speed>
  <fix>3d</fix>
</trkpt>
<trkpt lat="40.072797" lon="-105.2306012">
  <ele>1595.62</ele>
  <time>2026-08-28T19:10:24Z</time>
  <course>359.51</course>
  <speed>0.11</speed>
  <fix>3d</fix>
</trkpt>
<trkpt lat="40.072797" lon="-105.2306012">
  <ele>1595.61</ele>
  <time>2026-08-28T19:10:24Z</time>
  <course>359.52</course>
  <speed>0.11</speed>
  <fix>3d</fix>
</trkpt>
<trkpt lat="40.0727971" lon="-105.2306012">
  <ele>1595.62</ele>
  <time>2026-08-28T19:10:24Z</time>
  <course>183.99</course>
  <speed>0.11</speed>
  <fix>3d</fix>
</trkpt>
<trkpt lat="40.0727969" lon="-105.2306012">
  <ele>1595.61</ele>
  <time>2026-08-28T19:10:24Z</time>
  <course>359.52</course>
  <speed>0.11</speed>
  <fix>3d</fix>
</trkpt>
<trkpt lat="40.0727968" lon="-105.2306012">
  <ele>1595.61</ele>
  <time>2026-08-28T19:10:24Z</time>
  <course>359.53</course>
  <speed>0.11</speed>
  <fix>3d</fix>
</trkpt>
<trkpt lat="40.0727969" lon="-105.2306012">
  <ele>1595.61</ele>
  <time>2026-08-28T19:10:24Z</time>
  <course>183.94</course>
  <speed>0.11</speed>
  <fix>3d</fix>
</trkpt>
<trkpt lat="40.0727967" lon="-105.2306012">
  <ele>1595.61</ele>
  <time>2026-08-28T19:10:24Z</time>
  <course>359.52</course>
  <speed>0.11</speed>
  <fix>3d</fix>
</trkpt>
<trkpt lat="40.0727965" lon="-105.2306012">
  <ele>1595.61</ele>
  <time>2026-08-28T19:10:24Z</time>
  <course>359.53</course>
  <speed>0.11</speed>
  <fix>3d</fix>
</trkpt>
<trkpt lat="40.0727967" lon="-105.2306012">
  <ele>1595.61</ele>
  <time>2026-08-28T19:10:24Z</time>
  <course>183.83</course>
  <speed>0.11</speed>
  <fix>3d</fix>
</trkpt>
<trkpt lat="40.0727964" lon="-105.2306012">
  <ele>1595.61</ele>
  <time>2026-08-28T19:10:24Z</time>
  <course>359.53</course>
  <speed>0.11</speed>
  <fix>3d</fix>
</trkpt>
<trkpt lat="40.0727964" lon="-105.2306012">
  <ele>1595.61</ele>
  <time>2026-08-28T19:10:24Z</time>
  <course>359.53</course>
  <speed>0.1</speed>
  <fix>3d</fix>
</trkpt>
<trkpt lat="40.0727964" lon="-105.2306012">
  <ele>1595.61</ele>
  <time>2026-08-28T19:10:24Z</time>
  <course>183.72</course>
  <speed>0.11</speed>
  <fix>3d</fix>
</trkpt>
<trkpt lat="40.0727963" lon="-105.2306012">
  <ele>1595.61</ele>
  <time>2026-08-28T19:10:24Z</time>
  <course>359.53</course>
  <speed>0.1</speed>
  <fix>3d</fix>
</trkpt>
<trkpt lat="40.0727962" lon="-105.2306012">
  <ele>1595.61</ele>
  <time>2026-08-28T19:10:24Z</time>
  <course>359.55</course>
  <speed>0.1</speed>
  <fix>3d</fix>
</trkpt>
<trkpt lat="40.0727963" lon="-105.2306012">
  <ele>1595.61</ele>
  <time>2026-08-28T19:10:24Z</time>
  <course>183.63</course>
  <speed>0.1</speed>
  <fix>3d</fix>
</trkpt>
<trkpt lat="40.0727961" lon="-105.2306012">
  <ele>1595.61</ele>
  <time>2026-08-28T19:10:24Z</time>
  <course>359.55</course>
  <speed>0.1</speed>
  <fix>3d</fix>
</trkpt>
<trkpt lat="40.0727959" lon="-105.2306012">
  <ele>1595.61</ele>
  <time>2026-08-28T19:10:24Z</time>
  <course>359.55</course>
  <speed>0.1</speed>
  <fix>3d</fix>
</trkpt>
<trkpt lat="40.0727961" lon="-105.2306012">
  <ele>1595.61</ele>
  <time>2026-08-28T19:10:24Z</time>
  <course>183.55</course>
  <speed>0.1</speed>
  <fix>3d</fix>
</trkpt>
<trkpt lat="40.0727958" lon="-105.2306012">
  <ele>1595.61</ele>
  <time>2026-08-28T19:10:24Z</time>
  <course>359.55</course>
  <speed>0.1</speed>
  <fix>3d</fix>
</trkpt>
<trkpt lat="40.0727958" lon="-105.2306012">
  <ele>1595.61</ele>
  <time>2026-08-28T19:10:24Z</time>
  <course>359.56</course>
  <speed>0.1</speed>
  <fix>3d</fix>
</trkpt>
<trkpt lat="40.0727959" lon="-105.2306012">
  <ele>1595.61</ele>
  <time>2026-08-28T19:10:24Z</time>
  <course>183.48</course>
  <speed>0.1</speed>
  <fix>3d</fix>
</trkpt>
<trkpt lat="40.0727958" lon="-105.2306012">
  <ele>1595.61</ele>
  <time>2026-08-28T19:10:24Z</time>
  <course>359.56</course>
  <speed>0.1</speed>
  <fix>3d</fix>
</trkpt>
<trkpt lat="40.0727956" lon="-105.2306012">
  <ele>1595.61</ele>
  <time>2026-08-28T19:10:24Z</time>
  <course>359.57</course>
  <speed>0.1</speed>
  <fix>3d</fix>
</trkpt>
<trkpt lat="40.0727957" lon="-105.2306012">
  <ele>1595.61</ele>
  <time>2026-08-28T19:10:24Z</time>
  <course>183.46</course>
  <speed>0.1</speed>
  <fix>3d</fix>
</trkpt>
<trkpt lat="40.0727956" lon="-105.2306012">
  <ele>1595.61</ele>
  <time>2026-08-28T19:10:24Z</time>
  <course>359.57</course>
  <speed>0.1</speed>
  <fix>3d</fix>
</trkpt>
<trkpt lat="40.0727953" lon="-105.2306012">
  <ele>1595.61</ele>
  <time>2026-08-28T19:10:24Z</time>
  <course>359.58</course>
  <speed>0.09</speed>
  <fix>3d</fix>
</trkpt>
<trkpt lat="40.0727956" lon="-105.2306012">
  <ele>1595.61</ele>
  <time>2026-08-28T19:10:24Z</time>
  <course>183.4</course>
  <speed>0.1</speed>
  <fix>3d</fix>
</trkpt>
<trkpt lat="40.0727953" lon="-105.2306012">
  <ele>1595.61</ele>
  <time>2026-08-28T19:10:24Z</time>
  <course>359.58</course>
  <speed>0.09</speed>
  <fix>3d</fix>
</trkpt>
<trkpt lat="40.0727952" lon="-105.2306012">
  <ele>1595.62</ele>
  <time>2026-08-28T19:10:24Z</time>
  <course>359.59</course>
  <speed>0.09</speed>
  <fix>3d</fix>
</trkpt>
<trkpt lat="40.0727953" lon="-105.2306012">
  <ele>1595.61</ele>
  <time>2026-08-28T19:10:24Z</time>
  <course>183.33</course>
  <speed>0.09</speed>
  <fix>3d</fix>
</trkpt>
<trkpt lat="40.0727952" lon="-105.2306012">
  <ele>1595.62</ele>
  <time>2026-08-28T19:10:24Z</time>
  <course>359.59</course>
  <speed>0.09</speed>
  <fix>3d</fix>
</trkpt>
<trkpt lat="40.0727951" lon="-105.2306014">
  <ele>1595.62</ele>
  <time>2026-08-28T19:10:24Z</time>
  <course>359.61</course>
  <speed>0.09</speed>
  <fix>3d</fix>
</trkpt>
<trkpt lat="40.0727952" lon="-105.2306013">
  <ele>1595.62</ele>
  <time>2026-08-28T19:10:24Z</time>
  <course>183.33</course>
  <speed>0.09</speed>
  <fix>3d</fix>
</trkpt>
<trkpt lat="40.072795" lon="-105.2306014">
  <ele>1595.61</ele>
  <time>2026-08-28T19:10:24Z</time>
  <course>359.61</course>
  <speed>0.09</speed>
  <fix>3d</fix>
</trkpt>
<trkpt lat="40.0727949" lon="-105.2306014">
  <ele>1595.61</ele>
  <time>2026-08-28T19:10:24Z</time>
  <course>359.61</course>
  <speed>0.09</speed>
  <fix>3d</fix>
</trkpt>
<trkpt lat="40.072795" lon="-105.2306014">
  <ele>1595.61</ele>
  <time>2026-08-28T19:10:24Z</time>
  <course>183.25</course>
  <speed>0.09</speed>
  <fix>3d</fix>
</trkpt>
<trkpt lat="40.0727949" lon="-105.2306014">
  <ele>1595.61</ele>
  <time>2026-08-28T19:10:24Z</time>
  <course>359.61</course>
  <speed>0.09</speed>
  <fix>3d</fix>
</trkpt>
<trkpt lat="40.0727946" lon="-105.2306014">
  <ele>1595.61</ele>
  <time>2026-08-28T19:10:24Z</time>
  <course>359.61</course>
  <speed>0.09</speed>
  <fix>3d</fix>
</trkpt>
<trkpt lat="40.0727949" lon="-105.2306014">
  <ele>1595.61</ele>
  <time>2026-08-28T19:10:24Z</time>
  <course>183.16</course>
  <speed>0.09</speed>
  <fix>3d</fix>
</trkpt>
<trkpt lat="40.0727946" lon="-105.2306014">
  <ele>1595.61</ele>
  <time>2026-08-28T19:10:24Z</time>
  <course>359.61</course>
  <speed>0.09</speed>
  <fix>3d</fix>
</trkpt>
<trkpt lat="40.0727946" lon="-105.2306014">
  <ele>1595.61</ele>
  <time>2026-08-28T19:10:24Z</time>
  <course>359.62</course>
  <speed>0.09</speed>
  <fix>3d</fix>
</trkpt>
<trkpt lat="40.0727947" lon="-105.2306014">
  <ele>1595.61</ele>
  <time>2026-08-28T19:10:24Z</time>
  <course>183.15</course>
  <speed>0.09</speed>
  <fix>3d</fix>
</trkpt>
<trkpt lat="40.0727944" lon="-105.2306014">
  <ele>1595.61</ele>
  <time>2026-08-28T19:10:24Z</time>
  <course>359.62</course>
  <speed>0.08</speed>
  <fix>3d</fix>
</trkpt>
<trkpt lat="40.0727945" lon="-105.2306014">
  <ele>1595.61</ele>
  <time>2026-08-28T19:10:24Z</time>
  <course>183.15</course>
  <speed>0.09</speed>
  <fix>3d</fix>
</trkpt>
<trkpt lat="40.0727942" lon="-105.2306014">
  <ele>1595.61</ele>
  <time>2026-08-28T19:10:24Z</time>
  <course>359.63</course>
  <speed>0.08</speed>
  <fix>3d</fix>
</trkpt>
<trkpt lat="40.0727944" lon="-105.2306014">
  <ele>1595.61</ele>
  <time>2026-08-28T19:10:24Z</time>
  <course>183.16</course>
  <speed>0.08</speed>
  <fix>3d</fix>
</trkpt>
<trkpt lat="40.072794" lon="-105.2306014">
  <ele>1595.61</ele>
  <time>2026-08-28T19:10:24Z</time>
  <course>359.64</course>
  <speed>0.08</speed>
  <fix>3d</fix>
</trkpt>
<trkpt lat="40.0727942" lon="-105.2306014">
  <ele>1595.61</ele>
  <time>2026-08-28T19:10:24Z</time>
  <course>183.15</course>
  <speed>0.08</speed>
  <fix>3d</fix>
</trkpt>
<trkpt lat="40.0727939" lon="-105.2306014">
  <ele>1595.61</ele>
  <time>2026-08-28T19:10:24Z</time>
  <course>359.65</course>
  <speed>0.08</speed>
  <fix>3d</fix>
</trkpt>
<trkpt lat="40.072794" lon="-105.2306014">
  <ele>1595.61</ele>
  <time>2026-08-28T19:10:24Z</time>
  <course>183.16</course>
  <speed>0.08</speed>
  <fix>3d</fix>
</trkpt>
<trkpt lat="40.0727938" lon="-105.2306014">
  <ele>1595.61</ele>
  <time>2026-08-28T19:10:24Z</time>
  <course>359.66</course>
  <speed>0.08</speed>
  <fix>3d</fix>
</trkpt>
<trkpt lat="40.0727938" lon="-105.2306014">
  <ele>1595.61</ele>
  <time>2026-08-28T19:10:24Z</time>
  <course>183.19</course>
  <speed>0.08</speed>
  <fix>3d</fix>
</trkpt>
<trkpt lat="40.0727936" lon="-105.2306014">
  <ele>1595.62</ele>
  <time>2026-08-28T19:10:24Z</time>
  <course>359.66</course>
  <speed>0.08</speed>
  <fix>3d</fix>
</trkpt>
<trkpt lat="40.0727937" lon="-105.2306014">
  <ele>1595.61</ele>
  <time>2026-08-28T19:10:24Z</time>
  <course>183.2</course>
  <speed>0.08</speed>
  <fix>3d</fix>
</trkpt>
<trkpt lat="40.0727934" lon="-105.2306014">
  <ele>1595.62</ele>
  <time>2026-08-28T19:10:24Z</time>
  <course>359.68</course>
  <speed>0.07</speed>
  <fix>3d</fix>
</trkpt>
<trkpt lat="40.0727936" lon="-105.2306014">
  <ele>1595.62</ele>
  <time>2026-08-28T19:10:24Z</time>
  <course>183.22</course>
  <speed>0.08</speed>
  <fix>3d</fix>
</trkpt>
<trkpt lat="40.0727933" lon="-105.2306014">
  <ele>1595.61</ele>
  <time>2026-08-28T19:10:24Z</time>
  <course>359.69</course>
  <speed>0.07</speed>
  <fix>3d</fix>
</trkpt>
<trkpt lat="40.0727934" lon="-105.2306014">
  <ele>1595.61</ele>
  <time>2026-08-28T19:10:24Z</time>
  <course>183.24</course>
  <speed>0.07</speed>
  <fix>3d</fix>
</trkpt>
<trkpt lat="40.0727932" lon="-105.2306014">
  <ele>1595.61</ele>
  <time>2026-08-28T19:10:24Z</time>
  <course>359.68</course>
  <speed>0.07</speed>
  <fix>3d</fix>
</trkpt>
<trkpt lat="40.0727933" lon="-105.2306014">
  <ele>1595.61</ele>
  <time>2026-08-28T19:10:24Z</time>
  <course>183.17</course>
  <speed>0.07</speed>
  <fix>3d</fix>
</trkpt>
<trkpt lat="40.0727931" lon="-105.2306014">
  <ele>1595.61</ele>
  <time>2026-08-28T19:10:24Z</time>
  <course>359.68</course>
  <speed>0.07</speed>
  <fix>3d</fix>
</trkpt>
<trkpt lat="40.0727932" lon="-105.2306014">
  <ele>1595.61</ele>
  <time>2026-08-28T19:10:24Z</time>
  <course>183.05</course>
  <speed>0.07</speed>
  <fix>3d</fix>
</trkpt>
<trkpt lat="40.072793" lon="-105.2306014">
  <ele>1595.61</ele>
  <time>2026-08-28T19:10:24Z</time>
  <course>359.69</course>
  <speed>0.07</speed>
  <fix>3d</fix>
</trkpt>
<trkpt lat="40.072793" lon="-105.2306014">
  <ele>1595.61</ele>
  <time>2026-08-28T19:10:24Z</time>
  <course>182.98</course>
  <speed>0.07</speed>
  <fix>3d</fix>
</trkpt>
<trkpt lat="40.0727927" lon="-105.2306014">
  <ele>1595.61</ele>
  <time>2026-08-28T19:10:24Z</time>
  <course>359.69</course>
  <speed>0.07</speed>
  <fix>3d</fix>
</trkpt>
<trkpt lat="40.0727929" lon="-105.2306014">
  <ele>1595.61</ele>
  <time>2026-08-28T19:10:24Z</time>
  <course>182.9</course>
  <speed>0.07</speed>
  <fix>3d</fix>
</trkpt>
<trkpt lat="40.0727927" lon="-105.2306014">
  <ele>1595.61</ele>
  <time>2026-08-28T19:10:24Z</time>
  <course>359.7</course>
  <speed>0.06</speed>
  <fix>3d</fix>
</trkpt>
<trkpt lat="40.0727928" lon="-105.2306014">
  <ele>1595.61</ele>
  <time>2026-08-28T19:10:24Z</time>
  <course>182.91</course>
  <speed>0.06</speed>
  <fix>3d</fix>
</trkpt>
<trkpt lat="40.0727926" lon="-105.2306014">
  <ele>1595.61</ele>
  <time>2026-08-28T19:10:24Z</time>
  <course>359.71</course>
  <speed>0.06</speed>
  <fix>3d</fix>
</trkpt>
<trkpt lat="40.0727926" lon="-105.2306014">
  <ele>1595.61</ele>
  <time>2026-08-28T19:10:24Z</time>
  <course>182.96</course>
  <speed>0.06</speed>
  <fix>3d</fix>
</trkpt>
<trkpt lat="40.0727925" lon="-105.2306014">
  <ele>1595.61</ele>
  <time>2026-08-28T19:10:24Z</time>
  <course>359.71</course>
  <speed>0.06</speed>
  <fix>3d</fix>
</trkpt>
<trkpt lat="40.0727925" lon="-105.2306014">
  <ele>1595.61</ele>
  <time>2026-08-28T19:10:24Z</time>
  <course>182.91</course>
  <speed>0.06</speed>
  <fix>3d</fix>
</trkpt>
<trkpt lat="40.0727924" lon="-105.2306014">
  <ele>1595.61</ele>
  <time>2026-08-28T19:10:24Z</time>
  <course>359.72</course>
  <speed>0.06</speed>
  <fix>3d</fix>
</trkpt>
<trkpt lat="40.0727924" lon="-105.2306014">
  <ele>1595.61</ele>
  <time>2026-08-28T19:10:24Z</time>
  <course>182.88</course>
  <speed>0.06</speed>
  <fix>3d</fix>
</trkpt>
<trkpt lat="40.0727921" lon="-105.2306016">
  <ele>1595.62</ele>
  <time>2026-08-28T19:10:24Z</time>
  <course>359.73</course>
  <speed>0.06</speed>
  <fix>3d</fix>
</trkpt>
<trkpt lat="40.0727923" lon="-105.2306015">
  <ele>1595.61</ele>
  <time>2026-08-28T19:10:24Z</time>
  <course>182.92</course>
  <speed>0.06</speed>
  <fix>3d</fix>
</trkpt>
<trkpt lat="40.0727921" lon="-105.2306016">
  <ele>1595.62</ele>
  <time>2026-08-28T19:10:24Z</time>
  <course>359.74</course>
  <speed>0.06</speed>
  <fix>3d</fix>
</trkpt>
<trkpt lat="40.0727922" lon="-105.2306016">
  <ele>1595.62</ele>
  <time>2026-08-28T19:10:24Z</time>
  <course>183.01</course>
  <speed>0.06</speed>
  <fix>3d</fix>
</trkpt>
<trkpt lat="40.072792" lon="-105.2306016">
  <ele>1595.61</ele>
  <time>2026-08-28T19:10:24Z</time>
  <course>359.75</course>
  <speed>0.05</speed>
  <fix>3d</fix>
</trkpt>
<trkpt lat="40.0727921" lon="-105.2306016">
  <ele>1595.61</ele>
  <time>2026-08-28T19:10:24Z</time>
  <course>183.06</course>
  <speed>0.06</speed>
  <fix>3d</fix>
</trkpt>
<trkpt lat="40.0727919" lon="-105.2306016">
  <ele>1595.61</ele>
  <time>2026-08-28T19:10:24Z</time>
  <course>359.75</course>
  <speed>0.05</speed>
  <fix>3d</fix>
</trkpt>
<trkpt lat="40.072792" lon="-105.2306016">
  <ele>1595.61</ele>
  <time>2026-08-28T19:10:24Z</time>
  <course>183.04</course>
  <speed>0.05</speed>
  <fix>3d</fix>
</trkpt>
<trkpt lat="40.0727918" lon="-105.2306016">
  <ele>1595.61</ele>
  <time>2026-08-28T19:10:24Z</time>
  <course>359.74</course>
  <speed>0.05</speed>
  <fix>3d</fix>
</trkpt>
<trkpt lat="40.0727919" lon="-105.2306016">
  <ele>1595.61</ele>
  <time>2026-08-28T19:10:24Z</time>
  <course>183.06</course>
  <speed>0.05</speed>
  <fix>3d</fix>
</trkpt>
<trkpt lat="40.0727916" lon="-105.2306016">
  <ele>1595.61</ele>
  <time>2026-08-28T19:10:24Z</time>
  <course>359.75</course>
  <speed>0.05</speed>
  <fix>3d</fix>
</trkpt>
<trkpt lat="40.0727917" lon="-105.2306016">
  <ele>1595.61</ele>
  <time>2026-08-28T19:10:24Z</time>
  <course>183.1</course>
  <speed>0.05</speed>
  <fix>3d</fix>
</trkpt>
<trkpt lat="40.0727915" lon="-105.2306016">
  <ele>1595.61</ele>
  <time>2026-08-28T19:10:24Z</time>
  <course>359.76</course>
  <speed>0.05</speed>
  <fix>3d</fix>
</trkpt>
<trkpt lat="40.0727916" lon="-105.2306016">
  <ele>1595.61</ele>
  <time>2026-08-28T19:10:24Z</time>
  <course>183.1</course>
  <speed>0.05</speed>
  <fix>3d</fix>
</trkpt>
<trkpt lat="40.0727915" lon="-105.2306016">
  <ele>1595.61</ele>
  <time>2026-08-28T19:10:24Z</time>
  <course>359.76</course>
  <speed>0.05</speed>
  <fix>3d</fix>
</trkpt>
<trkpt lat="40.0727915" lon="-105.2306016">
  <ele>1595.61</ele>
  <time>2026-08-28T19:10:24Z</time>
  <course>183.08</course>
  <speed>0.05</speed>
  <fix>3d</fix>
</trkpt>
<trkpt lat="40.0727914" lon="-105.2306016">
  <ele>1595.61</ele>
  <time>2026-08-28T19:10:24Z</time>
  <course>359.76</course>
  <speed>0.05</speed>
  <fix>3d</fix>
</trkpt>
<trkpt lat="40.0727915" lon="-105.2306016">
  <ele>1595.61</ele>
  <time>2026-08-28T19:10:24Z</time>
  <course>183.11</course>
  <speed>0.05</speed>
  <fix>3d</fix>
</trkpt>
<trkpt lat="40.0727913" lon="-105.2306016">
  <ele>1595.61</ele>
  <time>2026-08-28T19:10:24Z</time>
  <course>359.77</course>
  <speed>0.05</speed>
  <fix>3d</fix>
</trkpt>
<trkpt lat="40.0727914" lon="-105.2306016">
  <ele>1595.61</ele>
  <time>2026-08-28T19:10:24Z</time>
  <course>183.23</course>
  <speed>0.05</speed>
  <fix>3d</fix>
</trkpt>
<trkpt lat="40.0727912" lon="-105.2306016">
  <ele>1595.61</ele>
  <time>2026-08-28T19:10:24Z</time>
  <course>359.77</course>
  <speed>0.04</speed>
  <fix>3d</fix>
</trkpt>
<trkpt lat="40.0727913" lon="-105.2306016">
  <ele>1595.61</ele>
  <time>2026-08-28T19:10:24Z</time>
  <course>183.33</course>
  <speed>0.05</speed>
  <fix>3d</fix>
</trkpt>
<trkpt lat="40.0727912" lon="-105.2306016">
  <ele>1595.62</ele>
  <time>2026-08-28T19:10:24Z</time>
  <course>359.78</course>
  <speed>0.04</speed>
  <fix>3d</fix>
</trkpt>
<trkpt lat="40.0727912" lon="-105.2306016">
  <ele>1595.61</ele>
  <time>2026-08-28T19:10:24Z</time>
  <course>183.39</course>
  <speed>0.04</speed>
  <fix>3d</fix>
</trkpt>
<trkpt lat="40.072791" lon="-105.2306016">
  <ele>1595.62</ele>
  <time>2026-08-28T19:10:24Z</time>
  <course>359.79</course>
  <speed>0.04</speed>
  <fix>3d</fix>
</trkpt>
<trkpt lat="40.0727911" lon="-105.2306016">
  <ele>1595.62</ele>
  <time>2026-08-28T19:10:24Z</time>
  <course>183.56</course>
  <speed>0.04</speed>
  <fix>3d</fix>
</trkpt>
<trkpt lat="40.0727909" lon="-105.2306016">
  <ele>1595.61</ele>
  <time>2026-08-28T19:10:24Z</time>
  <course>359.8</course>
  <speed>0.04</speed>
  <fix>3d</fix>
</trkpt>
<trkpt lat="40.072791" lon="-105.2306016">
  <ele>1595.62</ele>
  <time>2026-08-28T19:10:24Z</time>
  <course>183.83</course>
  <speed>0.04</speed>
  <fix>3d</fix>
</trkpt>
<trkpt lat="40.0727909" lon="-105.2306016">
  <ele>1595.61</ele>
  <time>2026-08-28T19:10:24Z</time>
  <course>359.8</course>
  <speed>0.04</speed>
  <fix>3d</fix>
</trkpt>
<trkpt lat="40.0727909" lon="-105.2306016">
  <ele>1595.61</ele>
  <time>2026-08-28T19:10:24Z</time>
  <course>183.87</course>
  <speed>0.04</speed>
  <fix>3d</fix>
</trkpt>
<trkpt lat="40.0727908" lon="-105.2306016">
  <ele>1595.61</ele>
  <time>2026-08-28T19:10:24Z</time>
  <course>359.8</course>
  <speed>0.04</speed>
  <fix>3d</fix>
</trkpt>
<trkpt lat="40.0727909" lon="-105.2306016">
  <ele>1595.61</ele>
  <time>2026-08-28T19:10:24Z</time>
  <course>183.94</course>
  <speed>0.04</speed>
  <fix>3d</fix>
</trkpt>
<trkpt lat="40.0727907" lon="-105.2306016">
  <ele>1595.61</ele>
  <time>2026-08-28T19:10:24Z</time>
  <course>359.8</course>
  <speed>0.04</speed>
  <fix>3d</fix>
</trkpt>
<trkpt lat="40.0727908" lon="-105.2306016">
  <ele>1595.61</ele>
  <time>2026-08-28T19:10:24Z</time>
  <course>184.19</course>
  <speed>0.04</speed>
  <fix>3d</fix>
</trkpt>
<trkpt lat="40.0727907" lon="-105.2306016">
  <ele>1595.61</ele>
  <time>2026-08-28T19:10:24Z</time>
  <course>359.8</course>
  <speed>0.04</speed>
  <fix>3d</fix>
</trkpt>
<trkpt lat="40.0727907" lon="-105.2306016">
  <ele>1595.61</ele>
  <time>2026-08-28T19:10:24Z</time>
  <course>184.3</course>
  <speed>0.04</speed>
  <fix>3d</fix>
</trkpt>
<trkpt lat="40.0727906" lon="-105.2306016">
  <ele>1595.61</ele>
  <time>2026-08-28T19:10:24Z</time>
  <course>359.81</course>
  <speed>0.04</speed>
  <fix>3d</fix>
</trkpt>
<trkpt lat="40.0727906" lon="-105.2306016">
  <ele>1595.61</ele>
  <time>2026-08-28T19:10:24Z</time>
  <course>184.39</course>
  <speed>0.04</speed>
  <fix>3d</fix>
</trkpt>
<trkpt lat="40.0727904" lon="-105.2306016">
  <ele>1595.61</ele>
  <time>2026-08-28T19:10:24Z</time>
  <course>359.81</course>
  <speed>0.04</speed>
  <fix>3d</fix>
</trkpt>
<trkpt lat="40.0727905" lon="-105.2306016">
  <ele>1595.61</ele>
  <time>2026-08-28T19:10:24Z</time>
  <course>184.49</course>
  <speed>0.04</speed>
  <fix>3d</fix>
</trkpt>
<trkpt lat="40.0727904" lon="-105.2306016">
  <ele>1595.61</ele>
  <time>2026-08-28T19:10:24Z</time>
  <course>359.81</course>
  <speed>0.03</speed>
  <fix>3d</fix>
</trkpt>
<trkpt lat="40.0727904" lon="-105.2306016">
  <ele>1595.61</ele>
  <time>2026-08-28T19:10:24Z</time>
  <course>184.6</course>
  <speed>0.04</speed>
  <fix>3d</fix>
</trkpt>
<trkpt lat="40.0727903" lon="-105.2306016">
  <ele>1595.61</ele>
  <time>2026-08-28T19:10:24Z</time>
  <course>359.81</course>
  <speed>0.03</speed>
  <fix>3d</fix>
</trkpt>
<trkpt lat="40.0727904" lon="-105.2306016">
  <ele>1595.61</ele>
  <time>2026-08-28T19:10:24Z</time>
  <course>184.74</course>
  <speed>0.03</speed>
  <fix>3d</fix>
</trkpt>
<trkpt lat="40.0727903" lon="-105.2306016">
  <ele>1595.62</ele>
  <time>2026-08-28T19:10:24Z</time>
  <course>359.82</course>
  <speed>0.03</speed>
  <fix>3d</fix>
</trkpt>
<trkpt lat="40.0727903" lon="-105.2306016">
  <ele>1595.61</ele>
  <time>2026-08-28T19:10:24Z</time>
  <course>184.93</course>
  <speed>0.03</speed>
  <fix>3d</fix>
</trkpt>
<trkpt lat="40.0727903" lon="-105.2306016">
  <ele>1595.62</ele>
  <time>2026-08-28T19:10:24Z</time>
  <course>359.83</course>
  <speed>0.03</speed>
  <fix>3d</fix>
</trkpt>
<trkpt lat="40.0727903" lon="-105.2306016">
  <ele>1595.62</ele>
  <time>2026-08-28T19:10:24Z</time>
  <course>185.25</course>
  <speed>0.03</speed>
  <fix>3d</fix>
</trkpt>
<trkpt lat="40.0727902" lon="-105.2306016">
  <ele>1595.61</ele>
  <time>2026-08-28T19:10:24Z</time>
  <course>359.84</course>
  <speed>0.03</speed>
  <fix>3d</fix>
</trkpt>
<trkpt lat="40.0727902" lon="-105.2306016">
  <ele>1595.61</ele>
  <time>2026-08-28T19:10:24Z</time>
  <course>185.61</course>
  <speed>0.03</speed>
  <fix>3d</fix>
</trkpt>
<trkpt lat="40.0727901" lon="-105.2306016">
  <ele>1595.61</ele>
  <time>2026-08-28T19:10:24Z</time>
  <course>359.84</course>
  <speed>0.03</speed>
  <fix>3d</fix>
</trkpt>
<trkpt lat="40.0727901" lon="-105.2306016">
  <ele>1595.61</ele>
  <time>2026-08-28T19:10:24Z</time>
  <course>185.69</course>
  <speed>0.03</speed>
  <fix>3d</fix>
</trkpt>
<trkpt lat="40.0727901" lon="-105.2306018">
  <ele>1595.61</ele>
  <time>2026-08-28T19:10:24Z</time>
  <course>359.83</course>
  <speed>0.03</speed>
  <fix>3d</fix>
</trkpt>
<trkpt lat="40.0727901" lon="-105.2306016">
  <ele>1595.61</ele>
  <time>2026-08-28T19:10:24Z</time>
  <course>185.6</course>
  <speed>0.03</speed>
  <fix>3d</fix>
</trkpt>
<trkpt lat="40.07279" lon="-105.2306018">
  <ele>1595.61</ele>
  <time>2026-08-28T19:10:24Z</time>
  <course>359.83</course>
  <speed>0.03</speed>
  <fix>3d</fix>
</trkpt>
<trkpt lat="40.07279" lon="-105.2306017">
  <ele>1595.61</ele>
  <time>2026-08-28T19:10:24Z</time>
  <course>185.65</course>
  <speed>0.03</speed>
  <fix>3d</fix>
</trkpt>
<trkpt lat="40.0727898" lon="-105.2306018">
  <ele>1595.61</ele>
  <time>2026-08-28T19:10:24Z</time>
  <course>359.83</course>
  <speed>0.03</speed>
  <fix>3d</fix>
</trkpt>
<trkpt lat="40.07279" lon="-105.2306018">
  <ele>1595.61</ele>
  <time>2026-08-28T19:10:24Z</time>
  <course>185.79</course>
  <speed>0.03</speed>
  <fix>3d</fix>
</trkpt>
<trkpt lat="40.0727898" lon="-105.2306018">
  <ele>1595.61</ele>
  <time>2026-08-28T19:10:24Z</time>
  <course>359.84</course>
  <speed>0.03</speed>
  <fix>3d</fix>
</trkpt>
<trkpt lat="40.0727899" lon="-105.2306018">
  <ele>1595.61</ele>
  <time>2026-08-28T19:10:24Z</time>
  <course>185.97</course>
  <speed>0.03</speed>
  <fix>3d</fix>
</trkpt>
<trkpt lat="40.0727897" lon="-105.2306018">
  <ele>1595.61</ele>
  <time>2026-08-28T19:10:24Z</time>
  <course>359.85</course>
  <speed>0.03</speed>
  <fix>3d</fix>
</trkpt>
<trkpt lat="40.0727898" lon="-105.2306018">
  <ele>1595.61</ele>
  <time>2026-08-28T19:10:24Z</time>
  <course>186.19</course>
  <speed>0.03</speed>
  <fix>3d</fix>
</trkpt>
<trkpt lat="40.0727897" lon="-105.2306018">
  <ele>1595.61</ele>
  <time>2026-08-28T19:10:24Z</time>
  <course>359.85</course>
  <speed>0.02</speed>
  <fix>3d</fix>
</trkpt>
<trkpt lat="40.0727898" lon="-105.2306018">
  <ele>1595.61</ele>
  <time>2026-08-28T19:10:24Z</time>
  <course>186.3</course>
  <speed>0.03</speed>
  <fix>3d</fix>
</trkpt>
<trkpt lat="40.0727897" lon="-105.2306018">
  <ele>1595.61</ele>
  <time>2026-08-28T19:10:24Z</time>
  <course>359.85</course>
  <speed>0.02</speed>
  <fix>3d</fix>
</trkpt>
<trkpt lat="40.0727897" lon="-105.2306018">
  <ele>1595.61</ele>
  <time>2026-08-28T19:10:24Z</time>
  <course>186.53</course>
  <speed>0.02</speed>
  <fix>3d</fix>
</trkpt>
<trkpt lat="40.0727897" lon="-105.2306018">
  <ele>1595.62</ele>
  <time>2026-08-28T19:10:24Z</time>
  <course>359.86</course>
  <speed>0.02</speed>
  <fix>3d</fix>
</trkpt>
<trkpt lat="40.0727897" lon="-105.2306018">
  <ele>1595.61</ele>
  <time>2026-08-28T19:10:24Z</time>
  <course>186.84</course>
  <speed>0.02</speed>
  <fix>3d</fix>
</trkpt>
<trkpt lat="40.0727896" lon="-105.2306018">
  <ele>1595.62</ele>
  <time>2026-08-28T19:10:24Z</time>
  <course>359.87</course>
  <speed>0.02</speed>
  <fix>3d</fix>
</trkpt>
<trkpt lat="40.0727896" lon="-105.2306018">
  <ele>1595.62</ele>
  <time>2026-08-28T19:10:24Z</time>
  <course>187.04</course>
  <speed>0.02</speed>
  <fix>3d</fix>
</trkpt>
<trkpt lat="40.0727896" lon="-105.2306018">
  <ele>1595.61</ele>
  <time>2026-08-28T19:10:24Z</time>
  <course>359.88</course>
  <speed>0.02</speed>
  <fix>3d</fix>
</trkpt>
<trkpt lat="40.0727896" lon="-105.2306018">
  <ele>1595.61</ele>
  <time>2026-08-28T19:10:24Z</time>
  <course>187.49</course>
  <speed>0.02</speed>
  <fix>3d</fix>
</trkpt>
<trkpt lat="40.0727895" lon="-105.2306018">
  <ele>1595.61</ele>
  <time>2026-08-28T19:10:24Z</time>
  <course>359.87</course>
  <speed>0.02</speed>
  <fix>3d</fix>
</trkpt>
<trkpt lat="40.0727895" lon="-105.2306018">
  <ele>1595.61</ele>
  <time>2026-08-28T19:10:24Z</time>
  <course>187.81</course>
  <speed>0.02</speed>
  <fix>3d</fix>
</trkpt>
<trkpt lat="40.0727895" lon="-105.2306018">
  <ele>1595.61</ele>
  <time>2026-08-28T19:10:24Z</time>
  <course>359.87</course>
  <speed>0.02</speed>
  <fix>3d</fix>
</trkpt>
<trkpt lat="40.0727895" lon="-105.2306018">
  <ele>1595.61</ele>
  <time>2026-08-28T19:10:24Z</time>
  <course>187.92</course>
  <speed>0.02</speed>
  <fix>3d</fix>
</trkpt>
<trkpt lat="40.0727894" lon="-105.2306018">
  <ele>1595.61</ele>
  <time>2026-08-28T19:10:24Z</time>
  <course>359.87</course>
  <speed>0.02</speed>
  <fix>3d</fix>
</trkpt>
<trkpt lat="40.0727895" lon="-105.2306018">
  <ele>1595.61</ele>
  <time>2026-08-28T19:10:24Z</time>
  <course>188.03</course>
  <speed>0.02</speed>
  <fix>3d</fix>
</trkpt>
<trkpt lat="40.0727894" lon="-105.2306019">
  <ele>1595.61</ele>
  <time>2026-08-28T19:10:24Z</time>
  <course>359.87</course>
  <speed>0.02</speed>
  <fix>3d</fix>
</trkpt>
<trkpt lat="40.0727894" lon="-105.2306018">
  <ele>1595.61</ele>
  <time>2026-08-28T19:10:24Z</time>
  <course>188.15</course>
  <speed>0.02</speed>
  <fix>3d</fix>
</trkpt>
<trkpt lat="40.0727894" lon="-105.2306019">
  <ele>1595.61</ele>
  <time>2026-08-28T19:10:24Z</time>
  <course>359.87</course>
  <speed>0.02</speed>
  <fix>3d</fix>
</trkpt>
<trkpt lat="40.0727894" lon="-105.2306019">
  <ele>1595.61</ele>
  <time>2026-08-28T19:10:24Z</time>
  <course>188.38</course>
  <speed>0.02</speed>
  <fix>3d</fix>
</trkpt>
<trkpt lat="40.0727892" lon="-105.2306019">
  <ele>1595.61</ele>
  <time>2026-08-28T19:10:24Z</time>
  <course>359.87</course>
  <speed>0.02</speed>
  <fix>3d</fix>
</trkpt>
<trkpt lat="40.0727893" lon="-105.2306019">
  <ele>1595.61</ele>
  <time>2026-08-28T19:10:24Z</time>
  <course>188.72</course>
  <speed>0.02</speed>
  <fix>3d</fix>
</trkpt>
<trkpt lat="40.0727892" lon="-105.2306019">
  <ele>1595.61</ele>
  <time>2026-08-28T19:10:24Z</time>
  <course>359.88</course>
  <speed>0.02</speed>
  <fix>3d</fix>
</trkpt>
<trkpt lat="40.0727892" lon="-105.2306019">
  <ele>1595.61</ele>
  <time>2026-08-28T19:10:24Z</time>
  <course>189.05</course>
  <speed>0.02</speed>
  <fix>3d</fix>
</trkpt>
<trkpt lat="40.0727891" lon="-105.2306019">
  <ele>1595.62</ele>
  <time>2026-08-28T19:10:24Z</time>
  <course>359.88</course>
  <speed>0.02</speed>
  <fix>3d</fix>
</trkpt>
<trkpt lat="40.0727892" lon="-105.2306019">
  <ele>1595.61</ele>
  <time>2026-08-28T19:10:24Z</time>
  <course>189.37</course>
  <speed>0.02</speed>
  <fix>3d</fix>
</trkpt>
<trkpt lat="40.0727891" lon="-105.2306019">
  <ele>1595.62</ele>
  <time>2026-08-28T19:10:24Z</time>
  <course>359.89</course>
  <speed>0.02</speed>
  <fix>3d</fix>
</trkpt>
<trkpt lat="40.0727892" lon="-105.2306019">
  <ele>1595.62</ele>
  <time>2026-08-28T19:10:24Z</time>
  <course>189.92</course>
  <speed>0.02</speed>
  <fix>3d</fix>
</trkpt>
<trkpt lat="40.0727891" lon="-105.2306019">
  <ele>1595.62</ele>
  <time>2026-08-28T19:10:24Z</time>
  <course>359.9</course>
  <speed>0.02</speed>
  <fix>3d</fix>
</trkpt>
<trkpt lat="40.0727891" lon="-105.2306019">
  <ele>1595.62</ele>
  <time>2026-08-28T19:10:24Z</time>
  <course>190.24</course>
  <speed>0.02</speed>
  <fix>3d</fix>
</trkpt>
<trkpt lat="40.0727891" lon="-105.2306019">
  <ele>1595.61</ele>
  <time>2026-08-28T19:10:24Z</time>
  <course>359.9</course>
  <speed>0.01</speed>
  <fix>3d</fix>
</trkpt>
<trkpt lat="40.0727891" lon="-105.2306019">
  <ele>1595.61</ele>
  <time>2026-08-28T19:10:24Z</time>
  <course>190.32</course>
  <speed>0.02</speed>
  <fix>3d</fix>
</trkpt>
<trkpt lat="40.0727891" lon="-105.2306019">
  <ele>1595.61</ele>
  <time>2026-08-28T19:10:24Z</time>
  <course>359.89</course>
  <speed>0.01</speed>
  <fix>3d</fix>
</trkpt>
<trkpt lat="40.0727891" lon="-105.2306019">
  <ele>1595.61</ele>
  <time>2026-08-28T19:10:24Z</time>
  <course>190.45</course>
  <speed>0.01</speed>
  <fix>3d</fix>
</trkpt>
<trkpt lat="40.0727891" lon="-105.2306019">
  <ele>1595.61</ele>
  <time>2026-08-28T19:10:24Z</time>
  <course>359.89</course>
  <speed>0.01</speed>
  <fix>3d</fix>
</trkpt>
<trkpt lat="40.0727891" lon="-105.2306019">
  <ele>1595.61</ele>
  <time>2026-08-28T19:10:24Z</time>
  <course>190.63</course>
  <speed>0.01</speed>
  <fix>3d</fix>
</trkpt>
<trkpt lat="40.072789" lon="-105.2306019">
  <ele>1595.61</ele>
  <time>2026-08-28T19:10:24Z</time>
  <course>359.89</course>
  <speed>0.01</speed>
  <fix>3d</fix>
</trkpt>
<trkpt lat="40.072789" lon="-105.2306019">
  <ele>1595.61</ele>
  <time>2026-08-28T19:10:24Z</time>
  <course>190.94</course>
  <speed>0.01</speed>
  <fix>3d</fix>
</trkpt>
<trkpt lat="40.072789" lon="-105.2306019">
  <ele>1595.61</ele>
  <time>2026-08-28T19:10:24Z</time>
  <course>359.9</course>
  <speed>0.01</speed>
  <fix>3d</fix>
</trkpt>
<trkpt lat="40.072789" lon="-105.2306019">
  <ele>1595.61</ele>
  <time>2026-08-28T19:10:24Z</time>
  <course>191.21</course>
  <speed>0.01</speed>
  <fix>3d</fix>
</trkpt>
<trkpt lat="40.072789" lon="-105.2306019">
  <ele>1595.61</ele>
  <time>2026-08-28T19:10:24Z</time>
  <course>359.9</course>
  <speed>0.01</speed>
  <fix>3d</fix>
</trkpt>
<trkpt lat="40.072789" lon="-105.2306019">
  <ele>1595.61</ele>
  <time>2026-08-28T19:10:25Z</time>
  <course>191.59</course>
  <speed>0.01</speed>
  <fix>3d</fix>
</trkpt>
<trkpt lat="40.0727889" lon="-105.2306019">
  <ele>1595.61</ele>
  <time>2026-08-28T19:10:25Z</time>
  <course>359.9</course>
  <speed>0.01</speed>
  <fix>3d</fix>
</trkpt>
<trkpt lat="40.0727889" lon="-105.2306019">
  <ele>1595.61</ele>
  <time>2026-08-28T19:10:25Z</time>
  <course>192.08</course>
  <speed>0.01</speed>
  <fix>3d</fix>
</trkpt>
<trkpt lat="40.0727889" lon="-105.2306019">
  <ele>1595.61</ele>
  <time>2026-08-28T19:10:25Z</time>
  <course>359.9</course>
  <speed>0.01</speed>
  <fix>3d</fix>
</trkpt>
<trkpt lat="40.0727889" lon="-105.2306019">
  <ele>1595.61</ele>
  <time>2026-08-28T19:10:25Z</time>
  <course>192.63</course>
  <speed>0.01</speed>
  <fix>3d</fix>
</trkpt>
<trkpt lat="40.0727889" lon="-105.2306019">
  <ele>1595.62</ele>
  <time>2026-08-28T19:10:25Z</time>
  <course>359.9</course>
  <speed>0.01</speed>
  <fix>3d</fix>
</trkpt>
<trkpt lat="40.0727889" lon="-105.2306019">
  <ele>1595.61</ele>
  <time>2026-08-28T19:10:25Z</time>
  <course>193.1</course>
  <speed>0.01</speed>
  <fix>3d</fix>
</trkpt>
<trkpt lat="40.0727889" lon="-105.2306019">
  <ele>1595.62</ele>
  <time>2026-08-28T19:10:25Z</time>
  <course>359.91</course>
  <speed>0.01</speed>
  <fix>3d</fix>
</trkpt>
<trkpt lat="40.0727889" lon="-105.2306019">
  <ele>1595.61</ele>
  <time>2026-08-28T19:10:25Z</time>
  <course>194.1</course>
  <speed>0.01</speed>
  <fix>3d</fix>
</trkpt>
<trkpt lat="40.0727888" lon="-105.2306019">
  <ele>1595.62</ele>
  <time>2026-08-28T19:10:25Z</time>
  <course>359.91</course>
  <speed>0.01</speed>
  <fix>3d</fix>
</trkpt>
<trkpt lat="40.0727888" lon="-105.2306019">
  <ele>1595.62</ele>
  <time>2026-08-28T19:10:25Z</time>
  <course>195.6</course>
  <speed>0.01</speed>
  <fix>3d</fix>
</trkpt>
<trkpt lat="40.0727888" lon="-105.2306019">
  <ele>1595.61</ele>
  <time>2026-08-28T19:10:25Z</time>
  <course>359.92</course>
  <speed>0.01</speed>
  <fix>3d</fix>
</trkpt>
<trkpt lat="40.0727888" lon="-105.2306019">
  <ele>1595.61</ele>
  <time>2026-08-28T19:10:25Z</time>
  <course>196.62</course>
  <speed>0.01</speed>
  <fix>3d</fix>
</trkpt>
<trkpt lat="40.0727888" lon="-105.2306019">
  <ele>1595.61</ele>
  <time>2026-08-28T19:10:25Z</time>
  <course>359.91</course>
  <speed>0.01</speed>
  <fix>3d</fix>
</trkpt>
<trkpt lat="40.0727888" lon="-105.2306019">
  <ele>1595.61</ele>
  <time>2026-08-28T19:10:25Z</time>
  <course>197.0</course>
  <speed>0.01</speed>
  <fix>3d</fix>
</trkpt>
<trkpt lat="40.0727888" lon="-105.2306019">
  <ele>1595.61</ele>
  <time>2026-08-28T19:10:25Z</time>
  <course>359.91</course>
  <speed>0.01</speed>
  <fix>3d</fix>
</trkpt>
<trkpt lat="40.0727888" lon="-105.2306019">
  <ele>1595.61</ele>
  <time>2026-08-28T19:10:25Z</time>
  <course>197.41</course>
  <speed>0.01</speed>
  <fix>3d</fix>
</trkpt>
<trkpt lat="40.0727886" lon="-105.2306019">
  <ele>1595.61</ele>
  <time>2026-08-28T19:10:25Z</time>
  <course>359.91</course>
  <speed>0.01</speed>
  <fix>3d</fix>
</trkpt>
<trkpt lat="40.0727888" lon="-105.2306019">
  <ele>1595.61</ele>
  <time>2026-08-28T19:10:25Z</time>
  <course>198.08</course>
  <speed>0.01</speed>
  <fix>3d</fix>
</trkpt>
<trkpt lat="40.0727886" lon="-105.2306019">
  <ele>1595.61</ele>
  <time>2026-08-28T19:10:25Z</time>
  <course>359.91</course>
  <speed>0.01</speed>
  <fix>3d</fix>
</trkpt>
<trkpt lat="40.0727887" lon="-105.2306019">
  <ele>1595.61</ele>
  <time>2026-08-28T19:10:25Z</time>
  <course>198.58</course>
  <speed>0.01</speed>
  <fix>3d</fix>
</trkpt>
<trkpt lat="40.0727886" lon="-105.2306021">
  <ele>1595.61</ele>
  <time>2026-08-28T19:10:25Z</time>
  <course>359.91</course>
  <speed>0.01</speed>
  <fix>3d</fix>
</trkpt>
<trkpt lat="40.0727886" lon="-105.2306019">
  <ele>1595.61</ele>
  <time>2026-08-28T19:10:25Z</time>
  <course>198.99</course>
  <speed>0.01</speed>
  <fix>3d</fix>
</trkpt>
<trkpt lat="40.0727886" lon="-105.2306021">
  <ele>1595.61</ele>
  <time>2026-08-28T19:10:25Z</time>
  <course>359.91</course>
  <speed>0.01</speed>
  <fix>3d</fix>
</trkpt>
<trkpt lat="40.0727886" lon="-105.230602">
  <ele>1595.61</ele>
  <time>2026-08-28T19:10:25Z</time>
  <course>199.86</course>
  <speed>0.01</speed>
  <fix>3d</fix>
</trkpt>
<trkpt lat="40.0727886" lon="-105.2306021">
  <ele>1595.61</ele>
  <time>2026-08-28T19:10:25Z</time>
  <course>359.91</course>
  <speed>0.01</speed>
  <fix>3d</fix>
</trkpt>
<trkpt lat="40.0727886" lon="-105.2306021">
  <ele>1595.61</ele>
  <time>2026-08-28T19:10:25Z</time>
  <course>201.16</course>
  <speed>0.01</speed>
  <fix>3d</fix>
</trkpt>
<trkpt lat="40.0727885" lon="-105.2306021">
  <ele>1595.62</ele>
  <time>2026-08-28T19:10:25Z</time>
  <course>359.86</course>
  <speed>0.0</speed>
  <fix>3d</fix>
</trkpt>
<trkpt lat="40.0727886" lon="-105.2306021">
  <ele>1595.61</ele>
  <time>2026-08-28T19:10:25Z</time>
  <course>200.86</course>
  <speed>0.01</speed>
  <fix>3d</fix>
</trkpt>
<trkpt lat="40.0727885" lon="-105.2306021">
  <ele>1595.63</ele>
  <time>2026-08-28T19:10:25Z</time>
  <course>359.74</course>
  <speed>0.0</speed>
  <fix>3d</fix>
</trkpt>
<trkpt lat="40.0727886" lon="-105.2306021">
  <ele>1595.62</ele>
  <time>2026-08-28T19:10:25Z</time>
  <course>199.23</course>
  <speed>0.01</speed>
  <fix>3d</fix>
</trkpt>
<trkpt lat="40.0727885" lon="-105.2306021">
  <ele>1595.65</ele>
  <time>2026-08-28T19:10:25Z</time>
  <course>359.54</course>
  <speed>0.0</speed>
  <fix>3d</fix>
</trkpt>
<trkpt lat="40.0727885" lon="-105.2306021">
  <ele>1595.63</ele>
  <time>2026-08-28T19:10:25Z</time>
  <course>200.52</course>
  <speed>0.0</speed>
  <fix>3d</fix>
</trkpt>
<trkpt lat="40.0727885" lon="-105.2306021">
  <ele>1595.7</ele>
  <time>2026-08-28T19:10:25Z</time>
  <course>359.32</course>
  <speed>0.0</speed>
  <fix>3d</fix>
</trkpt>
<trkpt lat="40.0727885" lon="-105.2306021">
  <ele>1595.66</ele>
  <time>2026-08-28T19:10:25Z</time>
  <course>210.5</course>
  <speed>0.0</speed>
  <fix>3d</fix>
</trkpt>
<trkpt lat="40.0727885" lon="-105.2306021">
  <ele>1595.77</ele>
  <time>2026-08-28T19:10:25Z</time>
  <course>359.06</course>
  <speed>0.0</speed>
  <fix>3d</fix>
</trkpt>
<trkpt lat="40.0727885" lon="-105.2306021">
  <ele>1595.71</ele>
  <time>2026-08-28T19:10:25Z</time>
  <course>236.75</course>
  <speed>0.0</speed>
  <fix>3d</fix>
</trkpt>
<trkpt lat="40.0727885" lon="-105.2306021">
  <ele>1595.87</ele>
  <time>2026-08-28T19:10:25Z</time>
  <course>358.78</course>
  <speed>0.01</speed>
  <fix>3d</fix>
</trkpt>
<trkpt lat="40.0727885" lon="-105.2306021">
  <ele>1595.79</ele>
  <time>2026-08-28T19:10:25Z</time>
  <course>255.99</course>
  <speed>0.0</speed>
  <fix>3d</fix>
</trkpt>
<trkpt lat="40.0727885" lon="-105.2306021">
  <ele>1596.01</ele>
  <time>2026-08-28T19:10:25Z</time>
  <course>358.52</course>
  <speed>0.01</speed>
  <fix>3d</fix>
</trkpt>
<trkpt lat="40.0727885" lon="-105.2306021">
  <ele>1595.89</ele>
  <time>2026-08-28T19:10:25Z</time>
  <course>259.74</course>
  <speed>0.01</speed>
  <fix>3d</fix>
</trkpt>
<trkpt lat="40.0727885" lon="-105.2306021">
  <ele>1596.18</ele>
  <time>2026-08-28T19:10:25Z</time>
  <course>358.29</course>
  <speed>0.02</speed>
  <fix>3d</fix>
</trkpt>
<trkpt lat="40.0727885" lon="-105.2306021">
  <ele>1596.04</ele>
  <time>2026-08-28T19:10:25Z</time>
  <course>259.59</course>
  <speed>0.01</speed>
  <fix>3d</fix>
</trkpt>
<trkpt lat="40.0727885" lon="-105.2306023">
  <ele>1596.39</ele>
  <time>2026-08-28T19:10:25Z</time>
  <course>358.08</course>
  <speed>0.03</speed>
  <fix>3d</fix>
</trkpt>
<trkpt lat="40.0727885" lon="-105.2306022">
  <ele>1596.22</ele>
  <time>2026-08-28T19:10:25Z</time>
  <course>259.47</course>
  <speed>0.02</speed>
  <fix>3d</fix>
</trkpt>
<trkpt lat="40.0727885" lon="-105.2306024">
  <ele>1596.63</ele>
  <time>2026-08-28T19:10:25Z</time>
  <course>357.88</course>
  <speed>0.03</speed>
  <fix>3d</fix>
</trkpt>
<trkpt lat="40.0727885" lon="-105.2306023">
  <ele>1596.42</ele>
  <time>2026-08-28T19:10:25Z</time>
  <course>259.3</course>
  <speed>0.03</speed>
  <fix>3d</fix>
</trkpt>
<trkpt lat="40.0727885" lon="-105.2306024">
  <ele>1596.89</ele>
  <time>2026-08-28T19:10:25Z</time>
  <course>357.72</course>
  <speed>0.03</speed>
  <fix>3d</fix>
</trkpt>
<trkpt lat="40.0727885" lon="-105.2306023">
  <ele>1596.67</ele>
  <time>2026-08-28T19:10:25Z</time>
  <course>258.23</course>
  <speed>0.03</speed>
  <fix>3d</fix>
</trkpt>
<trkpt lat="40.0727885" lon="-105.2306024">
  <ele>1597.19</ele>
  <time>2026-08-28T19:10:25Z</time>
  <course>357.63</course>
  <speed>0.03</speed>
  <fix>3d</fix>
</trkpt>
<trkpt lat="40.0727885" lon="-105.2306024">
  <ele>1596.94</ele>
  <time>2026-08-28T19:10:25Z</time>
  <course>256.99</course>
  <speed>0.03</speed>
  <fix>3d</fix>
</trkpt>
<trkpt lat="40.0727885" lon="-105.2306026">
  <ele>1597.5</ele>
  <time>2026-08-28T19:10:25Z</time>
  <course>357.62</course>
  <speed>0.03</speed>
  <fix>3d</fix>
</trkpt>
<trkpt lat="40.0727885" lon="-105.2306025">
  <ele>1597.23</ele>
  <time>2026-08-28T19:10:25Z</time>
  <course>257.17</course>
  <speed>0.03</speed>
  <fix>3d</fix>
</trkpt>
<trkpt lat="40.0727885" lon="-105.2306026">
  <ele>1597.82</ele>
  <time>2026-08-28T19:10:25Z</time>
  <course>357.65</course>
  <speed>0.03</speed>
  <fix>3d</fix>
</trkpt>
<trkpt lat="40.0727885" lon="-105.2306026">
  <ele>1597.55</ele>
  <time>2026-08-28T19:10:25Z</time>
  <course>258.19</course>
  <speed>0.04</speed>
  <fix>3d</fix>
</trkpt>
<trkpt lat="40.0727885" lon="-105.2306028">
  <ele>1598.15</ele>
  <time>2026-08-28T19:10:25Z</time>
  <course>357.74</course>
  <speed>0.03</speed>
  <fix>3d</fix>
</trkpt>
<trkpt lat="40.0727885" lon="-105.2306027">
  <ele>1597.87</ele>
  <time>2026-08-28T19:10:25Z</time>
  <course>258.81</course>
  <speed>0.03</speed>
  <fix>3d</fix>
</trkpt>
<trkpt lat="40.0727885" lon="-105.2306028">
  <ele>1598.48</ele>
  <time>2026-08-28T19:10:25Z</time>
  <course>357.86</course>
  <speed>0.03</speed>
  <fix>3d</fix>
</trkpt>
<trkpt lat="40.0727885" lon="-105.2306028">
  <ele>1598.2</ele>
  <time>2026-08-28T19:10:25Z</time>
  <course>259.08</course>
  <speed>0.03</speed>
  <fix>3d</fix>
</trkpt>
<trkpt lat="40.0727885" lon="-105.230603">
  <ele>1598.81</ele>
  <time>2026-08-28T19:10:25Z</time>
  <course>357.96</course>
  <speed>0.02</speed>
  <fix>3d</fix>
</trkpt>
<trkpt lat="40.0727885" lon="-105.2306028">
  <ele>1598.53</ele>
  <time>2026-08-28T19:10:25Z</time>
  <course>259.07</course>
  <speed>0.03</speed>
  <fix>3d</fix>
</trkpt>
<trkpt lat="40.0727885" lon="-105.230603">
  <ele>1599.14</ele>
  <time>2026-08-28T19:10:25Z</time>
  <course>358.05</course>
  <speed>0.01</speed>
  <fix>3d</fix>
</trkpt>
<trkpt lat="40.0727885" lon="-105.2306029">
  <ele>1598.86</ele>
  <time>2026-08-28T19:10:25Z</time>
  <course>259.66</course>
  <speed>0.02</speed>
  <fix>3d</fix>
</trkpt>
<trkpt lat="40.0727885" lon="-105.230603">
  <ele>1599.46</ele>
  <time>2026-08-28T19:10:25Z</time>
  <course>358.16</course>
  <speed>0.0</speed>
  <fix>3d</fix>
</trkpt>
<trkpt lat="40.0727885" lon="-105.230603">
  <ele>1599.19</ele>
  <time>2026-08-28T19:10:25Z</time>
  <course>261.34</course>
  <speed>0.01</speed>
  <fix>3d</fix>
</trkpt>
<trkpt lat="40.0727885" lon="-105.2306031">
  <ele>1599.77</ele>
  <time>2026-08-28T19:10:25Z</time>
  <course>358.35</course>
  <speed>0.0</speed>
  <fix>3d</fix>
</trkpt>
<trkpt lat="40.0727885" lon="-105.230603">
  <ele>1599.51</ele>
  <time>2026-08-28T19:10:25Z</time>
  <course>267.72</course>
  <speed>0.0</speed>
  <fix>3d</fix>
</trkpt>
<trkpt lat="40.0727885" lon="-105.230603">
  <ele>1600.07</ele>
  <time>2026-08-28T19:10:25Z</time>
  <course>358.57</course>
  <speed>0.01414213562373095</speed>
  <fix>3d</fix>
</trkpt>
<trkpt lat="40.0727885" lon="-105.2306031">
  <ele>1599.82</ele>
  <time>2026-08-28T19:10:25Z</time>
  <course>22.68</course>
  <speed>0.0</speed>
  <fix>3d</fix>
</trkpt>
<trkpt lat="40.0727885" lon="-105.230603">
  <ele>1600.34</ele>
  <time>2026-08-28T19:10:25Z</time>
  <course>358.79</course>
  <speed>0.06403124237432849</speed>
  <fix>3d</fix>
</trkpt>
<trkpt lat="40.0727885" lon="-105.230603">
  <ele>1600.11</ele>
  <time>2026-08-28T19:10:25Z</time>
  <course>39.83</course>
  <speed>0.03</speed>
  <fix>3d</fix>
</trkpt>
<trkpt lat="40.0727885" lon="-105.2306028">
  <ele>1600.58</ele>
  <time>2026-08-28T19:10:25Z</time>
  <course>359.01</course>
  <speed>0.15264337522473748</speed>
  <fix>3d</fix>
</trkpt>
<trkpt lat="40.0727885" lon="-105.230603">
  <ele>1600.37</ele>
  <time>2026-08-28T19:10:25Z</time>
  <course>35.75</course>
  <speed>0.08</speed>
  <fix>3d</fix>
</trkpt>
<trkpt lat="40.0727889" lon="-105.2306026">
  <ele>1600.79</ele>
  <time>2026-08-28T19:10:25Z</time>
  <course>359.2</course>
  <speed>0.28653097563788804</speed>
  <fix>3d</fix>
</trkpt>
<trkpt lat="40.0727886" lon="-105.2306029">
  <ele>1600.61</ele>
  <time>2026-08-28T19:10:25Z</time>
  <course>31.97</course>
  <speed>0.18</speed>
  <fix>3d</fix>
</trkpt>
<trkpt lat="40.0727896" lon="-105.2306021">
  <ele>1600.95</ele>
  <time>2026-08-28T19:10:25Z</time>
  <course>359.34</course>
  <speed>0.4741307836451879</speed>
  <fix>3d</fix>
</trkpt>
<trkpt lat="40.072789" lon="-105.2306026">
  <ele>1600.81</ele>
  <time>2026-08-28T19:10:25Z</time>
  <course>29.18</course>
  <speed>0.33</speed>
  <fix>3d</fix>
</trkpt>
<trkpt lat="40.0727904" lon="-105.2306016">
  <ele>1601.07</ele>
  <time>2026-08-28T19:10:25Z</time>
  <course>359.21</course>
  <speed>0.7068238818828917</speed>
  <fix>3d</fix>
</trkpt>
<trkpt lat="40.0727897" lon="-105.2306021">
  <ele>1600.97</ele>
  <time>2026-08-28T19:10:25Z</time>
  <course>27.03</course>
  <speed>0.52</speed>
  <fix>3d</fix>
</trkpt>
<trkpt lat="40.0727919" lon="-105.2306007">
  <ele>1601.15</ele>
  <time>2026-08-28T19:10:25Z</time>
  <course>359.14</course>
  <speed>0.9625487000666512</speed>
  <fix>3d</fix>
</trkpt>
<trkpt lat="40.0727908" lon="-105.2306014">
  <ele>1601.08</ele>
  <time>2026-08-28T19:10:25Z</time>
  <course>25.23</course>
  <speed>0.75</speed>
  <fix>3d</fix>
</trkpt>
<trkpt lat="40.0727937" lon="-105.2305997">
  <ele>1601.2</ele>
  <time>2026-08-28T19:10:25Z</time>
  <course>1.32</course>
  <speed>1.2313001258832064</speed>
  <fix>3d</fix>
</trkpt>
<trkpt lat="40.0727922" lon="-105.2306006">
  <ele>1601.15</ele>
  <time>2026-08-28T19:10:25Z</time>
  <course>23.52</course>
  <speed>1.01</speed>
  <fix>3d</fix>
</trkpt>
<trkpt lat="40.0727959" lon="-105.2305987">
  <ele>1601.21</ele>
  <time>2026-08-28T19:10:25Z</time>
  <course>15.17</course>
  <speed>1.5310127367203712</speed>
  <fix>3d</fix>
</trkpt>
<trkpt lat="40.0727941" lon="-105.2305995">
  <ele>1601.19</ele>
  <time>2026-08-28T19:10:25Z</time>
  <course>21.19</course>
  <speed>1.29</speed>
  <fix>3d</fix>
</trkpt>
<trkpt lat="40.0727988" lon="-105.2305971">
  <ele>1601.2</ele>
  <time>2026-08-28T19:10:25Z</time>
  <course>23.08</course>
  <speed>1.8346934348822421</speed>
  <fix>3d</fix>
</trkpt>
<trkpt lat="40.0727965" lon="-105.2305983">
  <ele>1601.2</ele>
  <time>2026-08-28T19:10:25Z</time>
  <course>20.92</course>
  <speed>1.58</speed>
  <fix>3d</fix>
</trkpt>
<trkpt lat="40.0728022" lon="-105.2305954">
  <ele>1601.17</ele>
  <time>2026-08-28T19:10:25Z</time>
  <course>23.27</course>
  <speed>2.0946837470128994</speed>
  <fix>3d</fix>
</trkpt>
<trkpt lat="40.0727994" lon="-105.2305969">
  <ele>1601.19</ele>
  <time>2026-08-28T19:10:25Z</time>
  <course>22.12</course>
  <speed>1.88</speed>
  <fix>3d</fix>
</trkpt>
<trkpt lat="40.0728058" lon="-105.2305935">
  <ele>1601.15</ele>
  <time>2026-08-28T19:10:25Z</time>
  <course>22.35</course>
  <speed>2.271057022621845</speed>
  <fix>3d</fix>
</trkpt>
<trkpt lat="40.0728028" lon="-105.2305951">
  <ele>1601.17</ele>
  <time>2026-08-28T19:10:25Z</time>
  <course>22.18</course>
  <speed>2.12</speed>
  <fix>3d</fix>
</trkpt>
<trkpt lat="40.0728097" lon="-105.2305914">
  <ele>1601.13</ele>
  <time>2026-08-28T19:10:25Z</time>
  <course>21.55</course>
  <speed>2.3549097647256043</speed>
  <fix>3d</fix>
</trkpt>
<trkpt lat="40.0728065" lon="-105.2305931">
  <ele>1601.14</ele>
  <time>2026-08-28T19:10:25Z</time>
  <course>21.59</course>
  <speed>2.28</speed>
  <fix>3d</fix>
</trkpt>
<trkpt lat="40.0728137" lon="-105.2305894">
  <ele>1601.12</ele>
  <time>2026-08-28T19:10:25Z</time>
  <course>21.08</course>
  <speed>2.3607202290826415</speed>
  <fix>3d</fix>
</trkpt>
<trkpt lat="40.0728103" lon="-105.2305911">
  <ele>1601.12</ele>
  <time>2026-08-28T19:10:25Z</time>
  <course>21.01</course>
  <speed>2.35</speed>
  <fix>3d</fix>
</trkpt>
<trkpt lat="40.0728177" lon="-105.2305875">
  <ele>1601.12</ele>
  <time>2026-08-28T19:10:25Z</time>
  <course>20.99</course>
  <speed>2.3068810112357334</speed>
  <fix>3d</fix>
</trkpt>
<trkpt lat="40.0728143" lon="-105.2305892">
  <ele>1601.12</ele>
  <time>2026-08-28T19:10:25Z</time>
  <course>20.66</course>
  <speed>2.35</speed>
  <fix>3d</fix>
</trkpt>
<trkpt lat="40.0728214" lon="-105.2305856">
  <ele>1601.12</ele>
  <time>2026-08-28T19:10:25Z</time>
  <course>21.19</course>
  <speed>2.212080468699093</speed>
  <fix>3d</fix>
</trkpt>
<trkpt lat="40.0728182" lon="-105.2305872">
  <ele>1601.12</ele>
  <time>2026-08-28T19:10:25Z</time>
  <course>20.59</course>
  <speed>2.29</speed>
  <fix>3d</fix>
</trkpt>
<trkpt lat="40.072825" lon="-105.2305839">
  <ele>1601.12</ele>
  <time>2026-08-28T19:10:25Z</time>
  <course>21.58</course>
  <speed>2.0985947679340096</speed>
  <fix>3d</fix>
</trkpt>
<trkpt lat="40.072822" lon="-105.2305854">
  <ele>1601.12</ele>
  <time>2026-08-28T19:10:25Z</time>
  <course>20.79</course>
  <speed>2.19</speed>
  <fix>3d</fix>
</trkpt>
<trkpt lat="40.0728285" lon="-105.2305822">
  <ele>1601.12</ele>
  <time>2026-08-28T19:10:25Z</time>
  <course>22.1</course>
  <speed>1.9888187448835049</speed>
  <fix>3d</fix>
</trkpt>
<trkpt lat="40.0728256" lon="-105.2305835">
  <ele>1601.12</ele>
  <time>2026-08-28T19:10:25Z</time>
  <course>21.22</course>
  <speed>2.08</speed>
  <fix>3d</fix>
</trkpt>
<trkpt lat="40.0728316" lon="-105.2305805">
  <ele>1601.12</ele>
  <time>2026-08-28T19:10:25Z</time>
  <course>22.73</course>
  <speed>1.8569868066305693</speed>
  <fix>3d</fix>
</trkpt>
<trkpt lat="40.072829" lon="-105.2305818">
  <ele>1601.12</ele>
  <time>2026-08-28T19:10:25Z</time>
  <course>21.78</course>
  <speed>1.96</speed>
  <fix>3d</fix>
</trkpt>
<trkpt lat="40.0728347" lon="-105.2305789">
  <ele>1601.11</ele>
  <time>2026-08-28T19:10:25Z</time>
  <course>23.28</course>
  <speed>1.69</speed>
  <fix>3d</fix>
</trkpt>
<trkpt lat="40.0728321" lon="-105.2305801">
  <ele>1601.12</ele>
  <time>2026-08-28T19:10:25Z</time>
  <course>22.3</course>
  <speed>1.83</speed>
  <fix>3d</fix>
</trkpt>
<trkpt lat="40.0728374" lon="-105.2305774">
  <ele>1601.11</ele>
  <time>2026-08-28T19:10:25Z</time>
  <course>23.63</course>
  <speed>1.4969301920931384</speed>
  <fix>3d</fix>
</trkpt>
<trkpt lat="40.0728351" lon="-105.2305786">
  <ele>1601.11</ele>
  <time>2026-08-28T19:10:25Z</time>
  <course>22.67</course>
  <speed>1.66</speed>
  <fix>3d</fix>
</trkpt>
<trkpt lat="40.0728395" lon="-105.230576">
  <ele>1601.11</ele>
  <time>2026-08-28T19:10:25Z</time>
  <course>23.82</course>
  <speed>1.2592458060283545</speed>
  <fix>3d</fix>
</trkpt>
<trkpt lat="40.0728377" lon="-105.2305772">
  <ele>1601.11</ele>
  <time>2026-08-28T19:10:25Z</time>
  <course>22.88</course>
  <speed>1.45</speed>
  <fix>3d</fix>
</trkpt>
<trkpt lat="40.0728414" lon="-105.2305751">
  <ele>1601.1</ele>
  <time>2026-08-28T19:10:25Z</time>
  <course>23.96</course>
  <speed>0.976933979345585</speed>
  <fix>3d</fix>
</trkpt>
<trkpt lat="40.0728399" lon="-105.2305759">
  <ele>1601.11</ele>
  <time>2026-08-28T19:10:25Z</time>
  <course>23.02</course>
  <speed>1.21</speed>
  <fix>3d</fix>
</trkpt>
<trkpt lat="40.0728429" lon="-105.2305743">
  <ele>1601.1</ele>
  <time>2026-08-28T19:10:25Z</time>
  <course>24.08</course>
  <speed>0.6854195795277518</speed>
  <fix>3d</fix>
</trkpt>
<trkpt lat="40.0728417" lon="-105.2305749">
  <ele>1601.1</ele>
  <time>2026-08-28T19:10:25Z</time>
  <course>23.22</course>
  <speed>0.93</speed>
  <fix>3d</fix>
</trkpt>
<trkpt lat="40.0728438" lon="-105.2305738">
  <ele>1601.1</ele>
  <time>2026-08-28T19:10:25Z</time>
  <course>24.04</course>
  <speed>0.3757658845611187</speed>
  <fix>3d</fix>
</trkpt>
<trkpt lat="40.072843" lon="-105.2305741">
  <ele>1601.1</ele>
  <time>2026-08-28T19:10:25Z</time>
  <course>23.8</course>
  <speed>0.63</speed>
  <fix>3d</fix>
</trkpt>
<trkpt lat="40.0728441" lon="-105.2305736">
  <ele>1601.09</ele>
  <time>2026-08-28T19:10:25Z</time>
  <course>23.97</course>
  <speed>0.07810249675906654</speed>
  <fix>3d</fix>
</trkpt>
<trkpt lat="40.0728438" lon="-105.2305737">
  <ele>1601.09</ele>
  <time>2026-08-28T19:10:25Z</time>
  <course>25.99</course>
  <speed>0.32</speed>
  <fix>3d</fix>
</trkpt>
<trkpt lat="40.0728439" lon="-105.2305734">
  <ele>1601.08</ele>
  <time>2026-08-28T19:10:25Z</time>
  <course>23.86</course>
  <speed>0.16124515496597097</speed>
  <fix>3d</fix>
</trkpt>
<trkpt lat="40.0728441" lon="-105.2305735">
  <ele>1601.09</ele>
  <time>2026-08-28T19:10:25Z</time>
  <course>56.24</course>
  <speed>0.05</speed>
  <fix>3d</fix>
</trkpt>
<trkpt lat="40.0728436" lon="-105.2305736">
  <ele>1601.08</ele>
  <time>2026-08-28T19:10:25Z</time>
  <course>23.76</course>
  <speed>0.34928498393145957</speed>
  <fix>3d</fix>
</trkpt>
<trkpt lat="40.0728439" lon="-105.2305735">
  <ele>1601.08</ele>
  <time>2026-08-28T19:10:25Z</time>
  <course>190.47</course>
  <speed>0.19</speed>
  <fix>3d</fix>
</trkpt>
<trkpt lat="40.0728429" lon="-105.2305738">
  <ele>1601.08</ele>
  <time>2026-08-28T19:10:25Z</time>
  <course>23.66</course>
  <speed>0.4632493928760188</speed>
  <fix>3d</fix>
</trkpt>
<trkpt lat="40.0728434" lon="-105.2305737">
  <ele>1601.08</ele>
  <time>2026-08-28T19:10:25Z</time>
  <course>194.0</course>
  <speed>0.36</speed>
  <fix>3d</fix>
</trkpt>
<trkpt lat="40.072842" lon="-105.2305741">
  <ele>1601.07</ele>
  <time>2026-08-28T19:10:25Z</time>
  <course>23.59</course>
  <speed>0.49477267507411926</speed>
  <fix>3d</fix>
</trkpt>
<trkpt lat="40.0728427" lon="-105.2305739">
  <ele>1601.07</ele>
  <time>2026-08-28T19:10:25Z</time>
  <course>194.51</course>
  <speed>0.46</speed>
  <fix>3d</fix>
</trkpt>
<trkpt lat="40.0728412" lon="-105.2305744">
  <ele>1601.08</ele>
  <time>2026-08-28T19:10:25Z</time>
  <course>23.55</course>
  <speed>0.4753945729601885</speed>
  <fix>3d</fix>
</trkpt>
<trkpt lat="40.0728419" lon="-105.2305741">
  <ele>1601.07</ele>
  <time>2026-08-28T19:10:25Z</time>
  <course>194.66</course>
  <speed>0.49</speed>
  <fix>3d</fix>
</trkpt>
<trkpt lat="40.0728403" lon="-105.2305746">
  <ele>1601.08</ele>
  <time>2026-08-28T19:10:25Z</time>
  <course>23.53</course>
  <speed>0.41484937025383084</speed>
  <fix>3d</fix>
</trkpt>
<trkpt lat="40.0728411" lon="-105.2305744">
  <ele>1601.08</ele>
  <time>2026-08-28T19:10:25Z</time>
  <course>195.02</course>
  <speed>0.47</speed>
  <fix>3d</fix>
</trkpt>
<trkpt lat="40.0728397" lon="-105.2305748">
  <ele>1601.08</ele>
  <time>2026-08-28T19:10:25Z</time>
  <course>23.5</course>
  <speed>0.30364452901377953</speed>
  <fix>3d</fix>
</trkpt>
<trkpt lat="40.0728403" lon="-105.2305747">
  <ele>1601.08</ele>
  <time>2026-08-28T19:10:25Z</time>
  <course>195.78</course>
  <speed>0.39</speed>
  <fix>3d</fix>
</trkpt>
<trkpt lat="40.0728393" lon="-105.230575">
  <ele>1601.08</ele>
  <time>2026-08-28T19:10:25Z</time>
  <course>17.62</course>
  <speed>0.2002498439450079</speed>
  <fix>3d</fix>
</trkpt>
<trkpt lat="40.0728397" lon="-105.2305748">
  <ele>1601.08</ele>
  <time>2026-08-28T19:10:25Z</time>
  <course>193.58</course>
  <speed>0.29</speed>
  <fix>3d</fix>
</trkpt>
<trkpt lat="40.072839" lon="-105.2305751">
  <ele>1601.09</ele>
  <time>2026-08-28T19:10:25Z</time>
  <course>3.83</course>
  <speed>0.1004987562112089</speed>
  <fix>3d</fix>
</trkpt>
<trkpt lat="40.0728393" lon="-105.230575">
  <ele>1601.08</ele>
  <time>2026-08-28T19:10:25Z</time>
  <course>188.07</course>
  <speed>0.18</speed>
  <fix>3d</fix>
</trkpt>
<trkpt lat="40.0728389" lon="-105.2305751">
  <ele>1601.09</ele>
  <time>2026-08-28T19:10:25Z</time>
  <course>358.3</course>
  <speed>0.09486832980505139</speed>
  <fix>3d</fix>
</trkpt>
<trkpt lat="40.072839" lon="-105.2305751">
  <ele>1601.09</ele>
  <time>2026-08-28T19:10:25Z</time>
  <course>204.95</course>
  <speed>0.1</speed>
  <fix>3d</fix>
</trkpt>
<trkpt lat="40.0728389" lon="-105.2305753">
  <ele>1601.09</ele>
  <time>2026-08-28T19:10:25Z</time>
  <course>359.9</course>
  <speed>0.0824621125123532</speed>
  <fix>3d</fix>
</trkpt>
<trkpt lat="40.0728389" lon="-105.2305752">
  <ele>1601.09</ele>
  <time>2026-08-28T19:10:25Z</time>
  <course>253.06</course>
  <speed>0.08</speed>
  <fix>3d</fix>
</trkpt>
<trkpt lat="40.0728389" lon="-105.2305756">
  <ele>1601.09</ele>
  <time>2026-08-28T19:10:25Z</time>
  <course>0.21</course>
  <speed>0.09219544457292887</speed>
  <fix>3d</fix>
</trkpt>
<trkpt lat="40.0728389" lon="-105.2305754">
  <ele>1601.09</ele>
  <time>2026-08-28T19:10:25Z</time>
  <course>292.55</course>
  <speed>0.08</speed>
  <fix>3d</fix>
</trkpt>
<trkpt lat="40.0728392" lon="-105.2305756">
  <ele>1601.09</ele>
  <time>2026-08-28T19:10:25Z</time>
  <course>0.22</course>
  <speed>0.12369316876852982</speed>
  <fix>3d</fix>
</trkpt>
<trkpt lat="40.072839" lon="-105.2305756">
  <ele>1601.09</ele>
  <time>2026-08-28T19:10:25Z</time>
  <course>326.34</course>
  <speed>0.1</speed>
  <fix>3d</fix>
</trkpt>
<trkpt lat="40.0728394" lon="-105.2305758">
  <ele>1601.09</ele>
  <time>2026-08-28T19:10:25Z</time>
  <course>0.23</course>
  <speed>0.16031219541881397</speed>
  <fix>3d</fix>
</trkpt>
<trkpt lat="40.0728392" lon="-105.2305756">
  <ele>1601.09</ele>
  <time>2026-08-28T19:10:25Z</time>
  <course>345.4</course>
  <speed>0.13</speed>
  <fix>3d</fix>
</trkpt>
<trkpt lat="40.0728396" lon="-105.2305758">
  <ele>1601.09</ele>
  <time>2026-08-28T19:10:25Z</time>
  <course>0.22</course>
  <speed>0.2</speed>
  <fix>3d</fix>
</trkpt>
<trkpt lat="40.0728394" lon="-105.2305757">
  <ele>1601.09</ele>
  <time>2026-08-28T19:10:25Z</time>
  <course>354.18</course>
  <speed>0.17</speed>
  <fix>3d</fix>
</trkpt>
<trkpt lat="40.0728401" lon="-105.2305758">
  <ele>1601.09</ele>
  <time>2026-08-28T19:10:25Z</time>
  <course>0.23</course>
  <speed>0.22</speed>
  <fix>3d</fix>
</trkpt>
<trkpt lat="40.0728397" lon="-105.2305758">
  <ele>1601.09</ele>
  <time>2026-08-28T19:10:25Z</time>
  <course>358.42</course>
  <speed>0.2</speed>
  <fix>3d</fix>
</trkpt>
<trkpt lat="40.0728405" lon="-105.2305758">
  <ele>1601.08</ele>
  <time>2026-08-28T19:10:25Z</time>
  <course>0.24</course>
  <speed>0.23021728866442676</speed>
  <fix>3d</fix>
</trkpt>
<trkpt lat="40.0728402" lon="-105.2305758">
  <ele>1601.08</ele>
  <time>2026-08-28T19:10:25Z</time>
  <course>1.16</course>
  <speed>0.22</speed>
  <fix>3d</fix>
</trkpt>
<trkpt lat="40.0728409" lon="-105.2305758">
  <ele>1601.08</ele>
  <time>2026-08-28T19:10:25Z</time>
  <course>0.22</course>
  <speed>0.2308679276123039</speed>
  <fix>3d</fix>
</trkpt>
<trkpt lat="40.0728406" lon="-105.2305758">
  <ele>1601.08</ele>
  <time>2026-08-28T19:10:25Z</time>
  <course>3.27</course>
  <speed>0.23</speed>
  <fix>3d</fix>
</trkpt>
<trkpt lat="40.0728414" lon="-105.2305758">
  <ele>1601.09</ele>
  <time>2026-08-28T19:10:25Z</time>
  <course>0.23</course>
  <speed>0.22090722034374521</speed>
  <fix>3d</fix>
</trkpt>
<trkpt lat="40.0728409" lon="-105.2305758">
  <ele>1601.08</ele>
  <time>2026-08-28T19:10:25Z</time>
  <course>5.18</course>
  <speed>0.23</speed>
  <fix>3d</fix>
</trkpt>
<trkpt lat="40.0728418" lon="-105.2305756">
  <ele>1601.09</ele>
  <time>2026-08-28T19:10:25Z</time>
  <course>0.26</course>
  <speed>0.20223748416156684</speed>
  <fix>3d</fix>
</trkpt>
<trkpt lat="40.0728414" lon="-105.2305757">
  <ele>1601.09</ele>
  <time>2026-08-28T19:10:25Z</time>
  <course>7.27</course>
  <speed>0.22</speed>
  <fix>3d</fix>
</trkpt>
<trkpt lat="40.072842" lon="-105.2305756">
  <ele>1601.09</ele>
  <time>2026-08-28T19:10:25Z</time>
  <course>0.25</course>
  <speed>0.1824828759089466</speed>
  <fix>3d</fix>
</trkpt>
<trkpt lat="40.0728418" lon="-105.2305756">
  <ele>1601.09</ele>
  <time>2026-08-28T19:10:25Z</time>
  <course>9.68</course>
  <speed>0.2</speed>
  <fix>3d</fix>
</trkpt>
<trkpt lat="40.0728424" lon="-105.2305755">
  <ele>1601.09</ele>
  <time>2026-08-28T19:10:25Z</time>
  <course>0.26</course>
  <speed>0.1649242250247064</speed>
  <fix>3d</fix>
</trkpt>
<trkpt lat="40.0728421" lon="-105.2305756">
  <ele>1601.09</ele>
  <time>2026-08-28T19:10:25Z</time>
  <course>12.29</course>
  <speed>0.18</speed>
  <fix>3d</fix>
</trkpt>
<trkpt lat="40.0728426" lon="-105.2305753">
  <ele>1601.09</ele>
  <time>2026-08-28T19:10:25Z</time>
  <course>0.26</course>
  <speed>0.13601470508735444</speed>
  <fix>3d</fix>
</trkpt>
<trkpt lat="40.0728424" lon="-105.2305755">
  <ele>1601.09</ele>
  <time>2026-08-28T19:10:25Z</time>
  <course>15.36</course>
  <speed>0.16</speed>
  <fix>3d</fix>
</trkpt>
<trkpt lat="40.0728429" lon="-105.2305753">
  <ele>1601.09</ele>
  <time>2026-08-28T19:10:25Z</time>
  <course>0.25</course>
  <speed>0.09848857801796104</speed>
  <fix>3d</fix>
</trkpt>
<trkpt lat="40.0728426" lon="-105.2305754">
  <ele>1601.09</ele>
  <time>2026-08-28T19:10:25Z</time>
  <course>19.58</course>
  <speed>0.13</speed>
  <fix>3d</fix>
</trkpt>
<trkpt lat="40.0728431" lon="-105.2305751">
  <ele>1601.09</ele>
  <time>2026-08-28T19:10:25Z</time>
  <course>0.25</course>
  <speed>0.08062257748298549</speed>
  <fix>3d</fix>
</trkpt>
<trkpt lat="40.0728429" lon="-105.2305753">
  <ele>1601.09</ele>
  <time>2026-08-28T19:10:25Z</time>
  <course>25.3</course>
  <speed>0.1</speed>
  <fix>3d</fix>
</trkpt>
<trkpt lat="40.0728432" lon="-105.2305751">
  <ele>1601.09</ele>
  <time>2026-08-28T19:10:25Z</time>
  <course>0.24</course>
  <speed>0.05</speed>
  <fix>3d</fix>
</trkpt>
<trkpt lat="40.072843" lon="-105.2305752">
  <ele>1601.09</ele>
  <time>2026-08-28T19:10:25Z</time>
  <course>34.06</course>
  <speed>0.07</speed>
  <fix>3d</fix>
</trkpt>
<trkpt lat="40.0728432" lon="-105.230575">
  <ele>1601.08</ele>
  <time>2026-08-28T19:10:25Z</time>
  <course>0.24</course>
  <speed>0.03</speed>
  <fix>3d</fix>
</trkpt>
<trkpt lat="40.0728431" lon="-105.2305751">
  <ele>1601.08</ele>
  <time>2026-08-28T19:10:25Z</time>
  <course>50.15</course>
  <speed>0.05</speed>
  <fix>3d</fix>
</trkpt>
<trkpt lat="40.0728432" lon="-105.2305748">
  <ele>1601.08</ele>
  <time>2026-08-28T19:10:25Z</time>
  <course>0.22</course>
  <speed>0.0316227766016838</speed>
  <fix>3d</fix>
</trkpt>
<trkpt lat="40.0728432" lon="-105.230575">
  <ele>1601.08</ele>
  <time>2026-08-28T19:10:25Z</time>
  <course>82.0</course>
  <speed>0.03</speed>
  <fix>3d</fix>
</trkpt>
<trkpt lat="40.0728432" lon="-105.2305748">
  <ele>1601.09</ele>
  <time>2026-08-28T19:10:25Z</time>
  <course>0.2</course>
  <speed>0.04242640687119285</speed>
  <fix>3d</fix>
</trkpt>
<trkpt lat="40.0728432" lon="-105.2305749">
  <ele>1601.08</ele>
  <time>2026-08-28T19:10:25Z</time>
  <course>120.7</course>
  <speed>0.04</speed>
  <fix>3d</fix>
</trkpt>
<trkpt lat="40.0728432" lon="-105.2305748">
  <ele>1601.09</ele>
  <time>2026-08-28T19:10:25Z</time>
  <course>0.21</course>
  <speed>0.053851648071345036</speed>
  <fix>3d</fix>
</trkpt>
<trkpt lat="40.0728432" lon="-105.2305748">
  <ele>1601.08</ele>
  <time>2026-08-28T19:10:25Z</time>
  <course>144.31</course>
  <speed>0.05</speed>
  <fix>3d</fix>
</trkpt>
<trkpt lat="40.072843" lon="-105.2305746">
  <ele>1601.09</ele>
  <time>2026-08-28T19:10:25Z</time>
  <course>0.22</course>
  <speed>0.07280109889280519</speed>
  <fix>3d</fix>
</trkpt>
<trkpt lat="40.0728431" lon="-105.2305747">
  <ele>1601.09</ele>
  <time>2026-08-28T19:10:25Z</time>
  <course>157.67</course>
  <speed>0.06</speed>
  <fix>3d</fix>
</trkpt>
<trkpt lat="40.0728429" lon="-105.2305746">
  <ele>1601.09</ele>
  <time>2026-08-28T19:10:25Z</time>
  <course>0.21</course>
  <speed>0.08062257748298549</speed>
  <fix>3d</fix>
</trkpt>
<trkpt lat="40.072843" lon="-105.2305746">
  <ele>1601.09</ele>
  <time>2026-08-28T19:10:25Z</time>
  <course>165.53</course>
  <speed>0.07</speed>
  <fix>3d</fix>
</trkpt>
<trkpt lat="40.0728426" lon="-105.2305746">
  <ele>1601.08</ele>
  <time>2026-08-28T19:10:25Z</time>
  <course>0.25</course>
  <speed>0.09</speed>
  <fix>3d</fix>
</trkpt>
<trkpt lat="40.0728428" lon="-105.2305746">
  <ele>1601.09</ele>
  <time>2026-08-28T19:10:25Z</time>
  <course>170.94</course>
  <speed>0.08</speed>
  <fix>3d</fix>
</trkpt>
<trkpt lat="40.0728426" lon="-105.2305746">
  <ele>1601.06</ele>
  <time>2026-08-28T19:10:25Z</time>
  <course>0.62</course>
  <speed>0.09</speed>
  <fix>3d</fix>
</trkpt>
<trkpt lat="40.0728426" lon="-105.2305746">
  <ele>1601.08</ele>
  <time>2026-08-28T19:10:25Z</time>
  <course>175.88</course>
  <speed>0.09</speed>
  <fix>3d</fix>
</trkpt>
<trkpt lat="40.0728424" lon="-105.2305746">
  <ele>1601.01</ele>
  <time>2026-08-28T19:10:25Z</time>
  <course>0.99</course>
  <speed>0.08</speed>
  <fix>3d</fix>
</trkpt>
<trkpt lat="40.0728425" lon="-105.2305746">
  <ele>1601.05</ele>
  <time>2026-08-28T19:10:25Z</time>
  <course>179.22</course>
  <speed>0.09</speed>
  <fix>3d</fix>
</trkpt>
<trkpt lat="40.0728421" lon="-105.2305746">
  <ele>1600.91</ele>
  <time>2026-08-28T19:10:25Z</time>
  <course>1.32</course>
  <speed>0.08</speed>
  <fix>3d</fix>
</trkpt>
<trkpt lat="40.0728423" lon="-105.2305746">
  <ele>1600.99</ele>
  <time>2026-08-28T19:10:25Z</time>
  <course>180.52</course>
  <speed>0.08</speed>
  <fix>3d</fix>
</trkpt>
<trkpt lat="40.072842" lon="-105.2305746">
  <ele>1600.77</ele>
  <time>2026-08-28T19:10:25Z</time>
  <course>1.58</course>
  <speed>0.07</speed>
  <fix>3d</fix>
</trkpt>
<trkpt lat="40.0728421" lon="-105.2305746">
  <ele>1600.88</ele>
  <time>2026-08-28T19:10:25Z</time>
  <course>180.77</course>
  <speed>0.08</speed>
  <fix>3d</fix>
</trkpt>
<trkpt lat="40.072842" lon="-105.2305746">
  <ele>1600.58</ele>
  <time>2026-08-28T19:10:25Z</time>
  <course>1.82</course>
  <speed>0.06</speed>
  <fix>3d</fix>
</trkpt>
<trkpt lat="40.072842" lon="-105.2305746">
  <ele>1600.73</ele>
  <time>2026-08-28T19:10:25Z</time>
  <course>179.63</course>
  <speed>0.07</speed>
  <fix>3d</fix>
</trkpt>
<trkpt lat="40.0728419" lon="-105.2305746">
  <ele>1600.34</ele>
  <time>2026-08-28T19:10:25Z</time>
  <course>2.04</course>
  <speed>0.05</speed>
  <fix>3d</fix>
</trkpt>
<trkpt lat="40.0728419" lon="-105.2305746">
  <ele>1600.54</ele>
  <time>2026-08-28T19:10:25Z</time>
  <course>176.66</course>
  <speed>0.06</speed>
  <fix>3d</fix>
</trkpt>
<trkpt lat="40.0728418" lon="-105.2305746">
  <ele>1600.06</ele>
  <time>2026-08-28T19:10:25Z</time>
  <course>2.19</course>
  <speed>0.0412310562561766</speed>
  <fix>3d</fix>
</trkpt>
<trkpt lat="40.0728418" lon="-105.2305746">
  <ele>1600.29</ele>
  <time>2026-08-28T19:10:25Z</time>
  <course>171.76</course>
  <speed>0.05</speed>
  <fix>3d</fix>
</trkpt>
<trkpt lat="40.0728417" lon="-105.2305746">
  <ele>1599.76</ele>
  <time>2026-08-28T19:10:25Z</time>
  <course>2.14</course>
  <speed>0.0316227766016838</speed>
  <fix>3d</fix>
</trkpt>
<trkpt lat="40.0728417" lon="-105.2305746">
  <ele>1600.01</ele>
  <time>2026-08-28T19:10:25Z</time>
  <course>163.29</course>
  <speed>0.04</speed>
  <fix>3d</fix>
</trkpt>
<trkpt lat="40.0728417" lon="-105.2305744">
  <ele>1599.43</ele>
  <time>2026-08-28T19:10:25Z</time>
  <course>2.04</course>
  <speed>0.022360679774997897</speed>
  <fix>3d</fix>
</trkpt>
<trkpt lat="40.0728417" lon="-105.2305746">
  <ele>1599.7</ele>
  <time>2026-08-28T19:10:25Z</time>
  <course>148.73</course>
  <speed>0.03</speed>
  <fix>3d</fix>
</trkpt>
<trkpt lat="40.0728415" lon="-105.2305744">
  <ele>1599.11</ele>
  <time>2026-08-28T19:10:25Z</time>
  <course>1.93</course>
  <speed>0.02</speed>
  <fix>3d</fix>
</trkpt>
<trkpt lat="40.0728416" lon="-105.2305745">
  <ele>1599.38</ele>
  <time>2026-08-28T19:10:25Z</time>
  <course>128.35</course>
  <speed>0.02</speed>
  <fix>3d</fix>
</trkpt>
<trkpt lat="40.0728415" lon="-105.2305744">
  <ele>1598.78</ele>
  <time>2026-08-28T19:10:25Z</time>
  <course>1.82</course>
  <speed>0.02</speed>
  <fix>3d</fix>
</trkpt>
<trkpt lat="40.0728415" lon="-105.2305744">
  <ele>1599.05</ele>
  <time>2026-08-28T19:10:25Z</time>
  <course>104.14</course>
  <speed>0.02</speed>
  <fix>3d</fix>
</trkpt>
<trkpt lat="40.0728415" lon="-105.2305744">
  <ele>1598.46</ele>
  <time>2026-08-28T19:10:25Z</time>
  <course>1.73</course>
  <speed>0.01414213562373095</speed>
  <fix>3d</fix>
</trkpt>
<trkpt lat="40.0728415" lon="-105.2305744">
  <ele>1598.73</ele>
  <time>2026-08-28T19:10:25Z</time>
  <course>72.28</course>
  <speed>0.02</speed>
  <fix>3d</fix>
</trkpt>
<trkpt lat="40.0728415" lon="-105.2305743">
  <ele>1598.15</ele>
  <time>2026-08-28T19:10:25Z</time>
  <course>1.67</course>
  <speed>0.022360679774997897</speed>
  <fix>3d</fix>
</trkpt>
<trkpt lat="40.0728415" lon="-105.2305744">
  <ele>1598.4</ele>
  <time>2026-08-28T19:10:25Z</time>
  <course>43.85</course>
  <speed>0.02</speed>
  <fix>3d</fix>
</trkpt>
<trkpt lat="40.0728415" lon="-105.2305743">
  <ele>1597.84</ele>
  <time>2026-08-28T19:10:25Z</time>
  <course>1.62</course>
  <speed>0.0316227766016838</speed>
  <fix>3d</fix>
</trkpt>
<trkpt lat="40.0728415" lon="-105.2305743">
  <ele>1598.09</ele>
  <time>2026-08-28T19:10:25Z</time>
  <course>26.97</course>
  <speed>0.03</speed>
  <fix>3d</fix>
</trkpt>
<trkpt lat="40.0728417" lon="-105.2305743">
  <ele>1597.53</ele>
  <time>2026-08-28T19:10:25Z</time>
  <course>1.57</course>
  <speed>0.03</speed>
  <fix>3d</fix>
</trkpt>
<trkpt lat="40.0728416" lon="-105.2305743">
  <ele>1597.78</ele>
  <time>2026-08-28T19:10:25Z</time>
  <course>15.19</course>
  <speed>0.03</speed>
  <fix>3d</fix>
</trkpt>
<trkpt lat="40.0728418" lon="-105.2305743">
  <ele>1597.23</ele>
  <time>2026-08-28T19:10:25Z</time>
  <course>1.41</course>
  <speed>0.03</speed>
  <fix>3d</fix>
</trkpt>
<trkpt lat="40.0728417" lon="-105.2305743">
  <ele>1597.48</ele>
  <time>2026-08-28T19:10:25Z</time>
  <course>6.36</course>
  <speed>0.03</speed>
  <fix>3d</fix>
</trkpt>
<trkpt lat="40.0728418" lon="-105.2305743">
  <ele>1596.96</ele>
  <time>2026-08-28T19:10:25Z</time>
  <course>1.07</course>
  <speed>0.03</speed>
  <fix>3d</fix>
</trkpt>
<trkpt lat="40.0728418" lon="-105.2305743">
  <ele>1597.19</ele>
  <time>2026-08-28T19:10:25Z</time>
  <course>358.57</course>
  <speed>0.03</speed>
  <fix>3d</fix>
</trkpt>
<trkpt lat="40.0728419" lon="-105.2305743">
  <ele>1596.73</ele>
  <time>2026-08-28T19:10:25Z</time>
  <course>0.69</course>
  <speed>0.0316227766016838</speed>
  <fix>3d</fix>
</trkpt>
<trkpt lat="40.0728418" lon="-105.2305743">
  <ele>1596.92</ele>
  <time>2026-08-28T19:10:25Z</time>
  <course>347.91</course>
  <speed>0.03</speed>
  <fix>3d</fix>
</trkpt>
<trkpt lat="40.072842" lon="-105.2305743">
  <ele>1596.53</ele>
  <time>2026-08-28T19:10:26Z</time>
  <course>0.34</course>
  <speed>0.0282842712474619</speed>
  <fix>3d</fix>
</trkpt>
<trkpt lat="40.0728419" lon="-105.2305743">
  <ele>1596.69</ele>
  <time>2026-08-28T19:10:26Z</time>
  <course>333.28</course>
  <speed>0.03</speed>
  <fix>3d</fix>
</trkpt>
<trkpt lat="40.072842" lon="-105.2305743">
  <ele>1596.39</ele>
  <time>2026-08-28T19:10:26Z</time>
  <course>0.02</course>
  <speed>0.03605551275463989</speed>
  <fix>3d</fix>
</trkpt>
<trkpt lat="40.0728419" lon="-105.2305743">
  <ele>1596.51</ele>
  <time>2026-08-28T19:10:26Z</time>
  <course>316.28</course>
  <speed>0.03</speed>
  <fix>3d</fix>
</trkpt>
<trkpt lat="40.072842" lon="-105.2305744">
  <ele>1596.28</ele>
  <time>2026-08-28T19:10:26Z</time>
  <course>359.94</course>
  <speed>0.0412310562561766</speed>
  <fix>3d</fix>
</trkpt>
<trkpt lat="40.072842" lon="-105.2305743">
  <ele>1596.37</ele>
  <time>2026-08-28T19:10:26Z</time>
  <course>300.06</course>
  <speed>0.03</speed>
  <fix>3d</fix>
</trkpt>
<trkpt lat="40.072842" lon="-105.2305744">
  <ele>1596.19</ele>
  <time>2026-08-28T19:10:26Z</time>
  <course>359.99</course>
  <speed>0.05099019513592785</speed>
  <fix>3d</fix>
</trkpt>
<trkpt lat="40.072842" lon="-105.2305744">
  <ele>1596.26</ele>
  <time>2026-08-28T19:10:26Z</time>
  <course>288.5</course>
  <speed>0.04</speed>
  <fix>3d</fix>
</trkpt>
<trkpt lat="40.072842" lon="-105.2305746">
  <ele>1596.11</ele>
  <time>2026-08-28T19:10:26Z</time>
  <course>0.05</course>
  <speed>0.05</speed>
  <fix>3d</fix>
</trkpt>
<trkpt lat="40.072842" lon="-105.2305745">
  <ele>1596.17</ele>
  <time>2026-08-28T19:10:26Z</time>
  <course>281.91</course>
  <speed>0.05</speed>
  <fix>3d</fix>
</trkpt>
<trkpt lat="40.072842" lon="-105.2305748">
  <ele>1596.03</ele>
  <time>2026-08-28T19:10:26Z</time>
  <course>0.12</course>
  <speed>0.06</speed>
  <fix>3d</fix>
</trkpt>
<trkpt lat="40.072842" lon="-105.2305747">
  <ele>1596.1</ele>
  <time>2026-08-28T19:10:26Z</time>
  <course>278.46</course>
  <speed>0.05</speed>
  <fix>3d</fix>
</trkpt>
<trkpt lat="40.072842" lon="-105.2305748">
  <ele>1595.95</ele>
  <time>2026-08-28T19:10:26Z</time>
  <course>0.18</course>
  <speed>0.05</speed>
  <fix>3d</fix>
</trkpt>
<trkpt lat="40.072842" lon="-105.2305748">
  <ele>1596.02</ele>
  <time>2026-08-28T19:10:26Z</time>
  <course>276.52</course>
  <speed>0.06</speed>
  <fix>3d</fix>
</trkpt>
<trkpt lat="40.072842" lon="-105.2305751">
  <ele>1595.87</ele>
  <time>2026-08-28T19:10:26Z</time>
  <course>0.22</course>
  <speed>0.05</speed>
  <fix>3d</fix>
</trkpt>
<trkpt lat="40.072842" lon="-105.2305749">
  <ele>1595.94</ele>
  <time>2026-08-28T19:10:26Z</time>
  <course>275.33</course>
  <speed>0.05</speed>
  <fix>3d</fix>
</trkpt>
<trkpt lat="40.072842" lon="-105.2305751">
  <ele>1595.78</ele>
  <time>2026-08-28T19:10:26Z</time>
  <course>0.24</course>
  <speed>0.04</speed>
  <fix>3d</fix>
</trkpt>
<trkpt lat="40.072842" lon="-105.2305751">
  <ele>1595.85</ele>
  <time>2026-08-28T19:10:26Z</time>
  <course>274.62</course>
  <speed>0.05</speed>
  <fix>3d</fix>
</trkpt>
<trkpt lat="40.072842" lon="-105.2305753">
  <ele>1595.69</ele>
  <time>2026-08-28T19:10:26Z</time>
  <course>0.25</course>
  <speed>0.04</speed>
  <fix>3d</fix>
</trkpt>
<trkpt lat="40.072842" lon="-105.2305752">
  <ele>1595.76</ele>
  <time>2026-08-28T19:10:26Z</time>
  <course>274.31</course>
  <speed>0.04</speed>
  <fix>3d</fix>
</trkpt>
<trkpt lat="40.072842" lon="-105.2305753">
  <ele>1595.59</ele>
  <time>2026-08-28T19:10:26Z</time>
  <course>0.26</course>
  <speed>0.03</speed>
  <fix>3d</fix>
</trkpt>
<trkpt lat="40.072842" lon="-105.2305753">
  <ele>1595.66</ele>
  <time>2026-08-28T19:10:26Z</time>
  <course>274.45</course>
  <speed>0.03</speed>
  <fix>3d</fix>
</trkpt>
<trkpt lat="40.072842" lon="-105.2305755">
  <ele>1595.49</ele>
  <time>2026-08-28T19:10:26Z</time>
  <course>0.25</course>
  <speed>0.02</speed>
  <fix>3d</fix>
</trkpt>
<trkpt lat="40.072842" lon="-105.2305753">
  <ele>1595.57</ele>
  <time>2026-08-28T19:10:26Z</time>
  <course>274.46</course>
  <speed>0.03</speed>
  <fix>3d</fix>
</trkpt>
<trkpt lat="40.072842" lon="-105.2305755">
  <ele>1595.39</ele>
  <time>2026-08-28T19:10:26Z</time>
  <course>0.25</course>
  <speed>0.01</speed>
  <fix>3d</fix>
</trkpt>
<trkpt lat="40.072842" lon="-105.2305754">
  <ele>1595.48</ele>
  <time>2026-08-28T19:10:26Z</time>
  <course>274.32</course>
  <speed>0.02</speed>
  <fix>3d</fix>
</trkpt>
<trkpt lat="40.072842" lon="-105.2305755">
  <ele>1595.29</ele>
  <time>2026-08-28T19:10:26Z</time>
  <course>0.23</course>
  <speed>0.01</speed>
  <fix>3d</fix>
</trkpt>
<trkpt lat="40.072842" lon="-105.2305755">
  <ele>1595.38</ele>
  <time>2026-08-28T19:10:26Z</time>
  <course>274.41</course>
  <speed>0.01</speed>
  <fix>3d</fix>
</trkpt>
<trkpt lat="40.072842" lon="-105.2305756">
  <ele>1595.19</ele>
  <time>2026-08-28T19:10:26Z</time>
  <course>0.23</course>
  <speed>0.0</speed>
  <fix>3d</fix>
</trkpt>
<trkpt lat="40.072842" lon="-105.2305755">
  <ele>1595.28</ele>
  <time>2026-08-28T19:10:26Z</time>
  <course>275.24</course>
  <speed>0.0</speed>
  <fix>3d</fix>
</trkpt>
<trkpt lat="40.072842" lon="-105.2305756">
  <ele>1595.09</ele>
  <time>2026-08-28T19:10:26Z</time>
  <course>0.22</course>
  <speed>0.0</speed>
  <fix>3d</fix>
</trkpt>
<trkpt lat="40.072842" lon="-105.2305756">
  <ele>1595.17</ele>
  <time>2026-08-28T19:10:26Z</time>
  <course>296.08</course>
  <speed>0.0</speed>
  <fix>3d</fix>
</trkpt>
<trkpt lat="40.072842" lon="-105.2305755">
  <ele>1594.99</ele>
  <time>2026-08-28T19:10:26Z</time>
  <course>0.22</course>
  <speed>0.01</speed>
  <fix>3d</fix>
</trkpt>
<trkpt lat="40.072842" lon="-105.2305755">
  <ele>1595.08</ele>
  <time>2026-08-28T19:10:26Z</time>
  <course>85.89</course>
  <speed>0.0</speed>
  <fix>3d</fix>
</trkpt>
<trkpt lat="40.072842" lon="-105.2305755">
  <ele>1594.89</ele>
  <time>2026-08-28T19:10:26Z</time>
  <course>0.21</course>
  <speed>0.01</speed>
  <fix>3d</fix>
</trkpt>
<trkpt lat="40.072842" lon="-105.2305755">
  <ele>1594.98</ele>
  <time>2026-08-28T19:10:26Z</time>
  <course>88.49</course>
  <speed>0.01</speed>
  <fix>3d</fix>
</trkpt>
<trkpt lat="40.072842" lon="-105.2305755">
  <ele>1594.79</ele>
  <time>2026-08-28T19:10:26Z</time>
  <course>0.21</course>
  <speed>0.01</speed>
  <fix>3d</fix>
</trkpt>
<trkpt lat="40.072842" lon="-105.2305755">
  <ele>1594.88</ele>
  <time>2026-08-28T19:10:26Z</time>
  <course>88.56</course>
  <speed>0.01</speed>
  <fix>3d</fix>
</trkpt>
<trkpt lat="40.072842" lon="-105.2305755">
  <ele>1594.69</ele>
  <time>2026-08-28T19:10:26Z</time>
  <course>0.2</course>
  <speed>0.02</speed>
  <fix>3d</fix>
</trkpt>
<trkpt lat="40.072842" lon="-105.2305755">
  <ele>1594.78</ele>
  <time>2026-08-28T19:10:26Z</time>
  <course>89.09</course>
  <speed>0.01</speed>
  <fix>3d</fix>
</trkpt>
<trkpt lat="40.072842" lon="-105.2305755">
  <ele>1594.59</ele>
  <time>2026-08-28T19:10:26Z</time>
  <course>0.19</course>
  <speed>0.02</speed>
  <fix>3d</fix>
</trkpt>
<trkpt lat="40.072842" lon="-105.2305755">
  <ele>1594.67</ele>
  <time>2026-08-28T19:10:26Z</time>
  <course>90.46</course>
  <speed>0.02</speed>
  <fix>3d</fix>
</trkpt>
<trkpt lat="40.072842" lon="-105.2305753">
  <ele>1594.49</ele>
  <time>2026-08-28T19:10:26Z</time>
  <course>0.19</course>
  <speed>0.02</speed>
  <fix>3d</fix>
</trkpt>
<trkpt lat="40.072842" lon="-105.2305754">
  <ele>1594.58</ele>
  <time>2026-08-28T19:10:26Z</time>
  <course>91.16</course>
  <speed>0.02</speed>
  <fix>3d</fix>
</trkpt>
<trkpt lat="40.072842" lon="-105.2305753">
  <ele>1594.39</ele>
  <time>2026-08-28T19:10:26Z</time>
  <course>0.19</course>
  <speed>0.02</speed>
  <fix>3d</fix>
</trkpt>
<trkpt lat="40.072842" lon="-105.2305753">
  <ele>1594.48</ele>
  <time>2026-08-28T19:10:26Z</time>
  <course>91.07</course>
  <speed>0.02</speed>
  <fix>3d</fix>
</trkpt>
<trkpt lat="40.072842" lon="-105.2305753">
  <ele>1594.29</ele>
  <time>2026-08-28T19:10:26Z</time>
  <course>0.19</course>
  <speed>0.02</speed>
  <fix>3d</fix>
</trkpt>
<trkpt lat="40.072842" lon="-105.2305753">
  <ele>1594.38</ele>
  <time>2026-08-28T19:10:26Z</time>
  <course>90.5</course>
  <speed>0.02</speed>
  <fix>3d</fix>
</trkpt>
<trkpt lat="40.072842" lon="-105.2305751">
  <ele>1594.19</ele>
  <time>2026-08-28T19:10:26Z</time>
  <course>0.18</course>
  <speed>0.02</speed>
  <fix>3d</fix>
</trkpt>
<trkpt lat="40.072842" lon="-105.2305752">
  <ele>1594.28</ele>
  <time>2026-08-28T19:10:26Z</time>
  <course>90.56</course>
  <speed>0.02</speed>
  <fix>3d</fix>
</trkpt>
<trkpt lat="40.072842" lon="-105.2305751">
  <ele>1594.09</ele>
  <time>2026-08-28T19:10:26Z</time>
  <course>0.17</course>
  <speed>0.02</speed>
  <fix>3d</fix>
</trkpt>
<trkpt lat="40.072842" lon="-105.2305751">
  <ele>1594.17</ele>
  <time>2026-08-28T19:10:26Z</time>
  <course>91.49</course>
  <speed>0.02</speed>
  <fix>3d</fix>
</trkpt>
<trkpt lat="40.072842" lon="-105.2305751">
  <ele>1593.99</ele>
  <time>2026-08-28T19:10:26Z</time>
  <course>0.17</course>
  <speed>0.01</speed>
  <fix>3d</fix>
</trkpt>
<trkpt lat="40.072842" lon="-105.2305751">
  <ele>1594.08</ele>
  <time>2026-08-28T19:10:26Z</time>
  <course>91.66</course>
  <speed>0.02</speed>
  <fix>3d</fix>
</trkpt>
<trkpt lat="40.072842" lon="-105.2305751">
  <ele>1593.89</ele>
  <time>2026-08-28T19:10:26Z</time>
  <course>0.17</course>
  <speed>0.01</speed>
  <fix>3d</fix>
</trkpt>
<trkpt lat="40.072842" lon="-105.2305751">
  <ele>1593.98</ele>
  <time>2026-08-28T19:10:26Z</time>
  <course>91.99</course>
  <speed>0.01</speed>
  <fix>3d</fix>
</trkpt>
<trkpt lat="40.072842" lon="-105.230575">
  <ele>1593.79</ele>
  <time>2026-08-28T19:10:26Z</time>
  <course>0.16</course>
  <speed>0.01</speed>
  <fix>3d</fix>
</trkpt>
<trkpt lat="40.072842" lon="-105.2305751">
  <ele>1593.88</ele>
  <time>2026-08-28T19:10:26Z</time>
  <course>93.52</course>
  <speed>0.01</speed>
  <fix>3d</fix>
</trkpt>
<trkpt lat="40.072842" lon="-105.230575">
  <ele>1593.69</ele>
  <time>2026-08-28T19:10:26Z</time>
  <course>0.15</course>
  <speed>0.01</speed>
  <fix>3d</fix>
</trkpt>
<trkpt lat="40.072842" lon="-105.230575">
  <ele>1593.78</ele>
  <time>2026-08-28T19:10:26Z</time>
  <course>94.93</course>
  <speed>0.01</speed>
  <fix>3d</fix>
</trkpt>
<trkpt lat="40.072842" lon="-105.230575">
  <ele>1593.59</ele>
  <time>2026-08-28T19:10:26Z</time>
  <course>0.15</course>
  <speed>0.01</speed>
  <fix>3d</fix>
</trkpt>
<trkpt lat="40.072842" lon="-105.230575">
  <ele>1593.67</ele>
  <time>2026-08-28T19:10:26Z</time>
  <course>95.24</course>
  <speed>0.01</speed>
  <fix>3d</fix>
</trkpt>
<trkpt lat="40.072842" lon="-105.230575">
  <ele>1593.49</ele>
  <time>2026-08-28T19:10:26Z</time>
  <course>0.16</course>
  <speed>0.0</speed>
  <fix>3d</fix>
</trkpt>
<trkpt lat="40.072842" lon="-105.230575">
  <ele>1593.58</ele>
  <time>2026-08-28T19:10:26Z</time>
  <course>95.1</course>
  <speed>0.01</speed>
  <fix>3d</fix>
</trkpt>
<trkpt lat="40.072842" lon="-105.2305748">
  <ele>1593.39</ele>
  <time>2026-08-28T19:10:26Z</time>
  <course>0.15</course>
  <speed>0.0</speed>
  <fix>3d</fix>
</trkpt>
<trkpt lat="40.072842" lon="-105.2305749">
  <ele>1593.48</ele>
  <time>2026-08-28T19:10:26Z</time>
  <course>96.91</course>
  <speed>0.0</speed>
  <fix>3d</fix>
</trkpt>
<trkpt lat="40.072842" lon="-105.2305748">
  <ele>1593.29</ele>
  <time>2026-08-28T19:10:26Z</time>
  <course>0.15</course>
  <speed>0.0</speed>
  <fix>3d</fix>
</trkpt>
<trkpt lat="40.072842" lon="-105.2305748">
  <ele>1593.38</ele>
  <time>2026-08-28T19:10:26Z</time>
  <course>100.4</course>
  <speed>0.0</speed>
  <fix>3d</fix>
</trkpt>
<trkpt lat="40.072842" lon="-105.2305748">
  <ele>1593.19</ele>
  <time>2026-08-28T19:10:26Z</time>
  <course>0.15</course>
  <speed>0.0</speed>
  <fix>3d</fix>
</trkpt>
<trkpt lat="40.072842" lon="-105.2305748">
  <ele>1593.28</ele>
  <time>2026-08-28T19:10:26Z</time>
  <course>110.8</course>
  <speed>0.0</speed>
  <fix>3d</fix>
</trkpt>
<trkpt lat="40.072842" lon="-105.2305748">
  <ele>1593.09</ele>
  <time>2026-08-28T19:10:26Z</time>
  <course>0.14</course>
  <speed>0.0</speed>
  <fix>3d</fix>
</trkpt>
<trkpt lat="40.072842" lon="-105.2305748">
  <ele>1593.17</ele>
  <time>2026-08-28T19:10:26Z</time>
  <course>240.8</course>
  <speed>0.0</speed>
  <fix>3d</fix>
</trkpt>
<trkpt lat="40.072842" lon="-105.2305748">
  <ele>1592.99</ele>
  <time>2026-08-28T19:10:26Z</time>
  <course>0.13</course>
  <speed>0.0</speed>
  <fix>3d</fix>
</trkpt>
<trkpt lat="40.072842" lon="-105.2305748">
  <ele>1593.08</ele>
  <time>2026-08-28T19:10:26Z</time>
  <course>255.91</course>
  <speed>0.0</speed>
  <fix>3d</fix>
</trkpt>
<trkpt lat="40.072842" lon="-105.2305748">
  <ele>1592.89</ele>
  <time>2026-08-28T19:10:26Z</time>
  <course>0.14</course>
  <speed>0.0</speed>
  <fix>3d</fix>
</trkpt>
<trkpt lat="40.072842" lon="-105.2305748">
  <ele>1592.98</ele>
  <time>2026-08-28T19:10:26Z</time>
  <course>258.78</course>
  <speed>0.0</speed>
  <fix>3d</fix>
</trkpt>
<trkpt lat="40.072842" lon="-105.2305748">
  <ele>1592.79</ele>
  <time>2026-08-28T19:10:26Z</time>
  <course>0.13</course>
  <speed>0.0</speed>
  <fix>3d</fix>
</trkpt>
<trkpt lat="40.072842" lon="-105.2305748">
  <ele>1592.88</ele>
  <time>2026-08-28T19:10:26Z</time>
  <course>259.93</course>
  <speed>0.0</speed>
  <fix>3d</fix>
</trkpt>
<trkpt lat="40.072842" lon="-105.2305748">
  <ele>1592.69</ele>
  <time>2026-08-28T19:10:26Z</time>
  <course>0.13</course>
  <speed>0.01</speed>
  <fix>3d</fix>
</trkpt>
<trkpt lat="40.072842" lon="-105.2305748">
  <ele>1592.78</ele>
  <time>2026-08-28T19:10:26Z</time>
  <course>260.66</course>
  <speed>0.0</speed>
  <fix>3d</fix>
</trkpt>
<trkpt lat="40.072842" lon="-105.2305748">
  <ele>1592.59</ele>
  <time>2026-08-28T19:10:26Z</time>
  <course>0.13</course>
  <speed>0.01</speed>
  <fix>3d</fix>
</trkpt>
<trkpt lat="40.072842" lon="-105.2305748">
  <ele>1592.67</ele>
  <time>2026-08-28T19:10:26Z</time>
  <course>261.61</course>
  <speed>0.01</speed>
  <fix>3d</fix>
</trkpt>
<trkpt lat="40.072842" lon="-105.230575">
  <ele>1592.49</ele>
  <time>2026-08-28T19:10:26Z</time>
  <course>0.12</course>
  <speed>0.01</speed>
  <fix>3d</fix>
</trkpt>
<trkpt lat="40.072842" lon="-105.2305748">
  <ele>1592.58</ele>
  <time>2026-08-28T19:10:26Z</time>
  <course>262.39</course>
  <speed>0.01</speed>
  <fix>3d</fix>
</trkpt>
<trkpt lat="40.072842" lon="-105.230575">
  <ele>1592.39</ele>
  <time>2026-08-28T19:10:26Z</time>
  <course>0.12</course>
  <speed>0.01</speed>
  <fix>3d</fix>
</trkpt>
<trkpt lat="40.072842" lon="-105.2305749">
  <ele>1592.48</ele>
  <time>2026-08-28T19:10:26Z</time>
  <course>262.82</course>
  <speed>0.01</speed>
  <fix>3d</fix>
</trkpt>
<trkpt lat="40.072842" lon="-105.230575">
  <ele>1592.29</ele>
  <time>2026-08-28T19:10:26Z</time>
  <course>0.11</course>
  <speed>0.0</speed>
  <fix>3d</fix>
</trkpt>
<trkpt lat="40.072842" lon="-105.230575">
  <ele>1592.38</ele>
  <time>2026-08-28T19:10:26Z</time>
  <course>261.11</course>
  <speed>0.01</speed>
  <fix>3d</fix>
</trkpt>
<trkpt lat="40.072842" lon="-105.230575">
  <ele>1592.19</ele>
  <time>2026-08-28T19:10:26Z</time>
  <course>0.11</course>
  <speed>0.0</speed>
  <fix>3d</fix>
</trkpt>
<trkpt lat="40.072842" lon="-105.230575">
  <ele>1592.28</ele>
  <time>2026-08-28T19:10:26Z</time>
  <course>256.76</course>
  <speed>0.0</speed>
  <fix>3d</fix>
</trkpt>
<trkpt lat="40.072842" lon="-105.230575">
  <ele>1592.09</ele>
  <time>2026-08-28T19:10:26Z</time>
  <course>0.11</course>
  <speed>0.0</speed>
  <fix>3d</fix>
</trkpt>
<trkpt lat="40.072842" lon="-105.230575">
  <ele>1592.17</ele>
  <time>2026-08-28T19:10:26Z</time>
  <course>253.75</course>
  <speed>0.0</speed>
  <fix>3d</fix>
</trkpt>
<trkpt lat="40.072842" lon="-105.2305751">
  <ele>1591.99</ele>
  <time>2026-08-28T19:10:26Z</time>
  <course>0.11</course>
  <speed>0.0</speed>
  <fix>3d</fix>
</trkpt>
<trkpt lat="40.072842" lon="-105.230575">
  <ele>1592.08</ele>
  <time>2026-08-28T19:10:26Z</time>
  <course>254.55</course>
  <speed>0.0</speed>
  <fix>3d</fix>
</trkpt>
<trkpt lat="40.072842" lon="-105.2305751">
  <ele>1591.89</ele>
  <time>2026-08-28T19:10:26Z</time>
  <course>0.1</course>
  <speed>0.0</speed>
  <fix>3d</fix>
</trkpt>
<trkpt lat="40.072842" lon="-105.230575">
  <ele>1591.98</ele>
  <time>2026-08-28T19:10:26Z</time>
  <course>256.04</course>
  <speed>0.0</speed>
  <fix>3d</fix>
</trkpt>
<trkpt lat="40.072842" lon="-105.2305751">
  <ele>1591.79</ele>
  <time>2026-08-28T19:10:26Z</time>
  <course>0.1</course>
  <speed>0.0</speed>
  <fix>3d</fix>
</trkpt>
<trkpt lat="40.072842" lon="-105.2305751">
  <ele>1591.88</ele>
  <time>2026-08-28T19:10:26Z</time>
  <course>252.48</course>
  <speed>0.0</speed>
  <fix>3d</fix>
</trkpt>
<trkpt lat="40.072842" lon="-105.2305751">
  <ele>1591.69</ele>
  <time>2026-08-28T19:10:26Z</time>
  <course>0.11</course>
  <speed>0.0</speed>
  <fix>3d</fix>
</trkpt>
<trkpt lat="40.072842" lon="-105.2305751">
  <ele>1591.78</ele>
  <time>2026-08-28T19:10:26Z</time>
  <course>237.16</course>
  <speed>0.0</speed>
  <fix>3d</fix>
</trkpt>
<trkpt lat="40.072842" lon="-105.2305751">
  <ele>1591.59</ele>
  <time>2026-08-28T19:10:26Z</time>
  <course>0.1</course>
  <speed>0.0</speed>
  <fix>3d</fix>
</trkpt>
<trkpt lat="40.072842" lon="-105.2305751">
  <ele>1591.67</ele>
  <time>2026-08-28T19:10:26Z</time>
  <course>149.57</course>
  <speed>0.0</speed>
  <fix>3d</fix>
</trkpt>
<trkpt lat="40.072842" lon="-105.2305751">
  <ele>1591.49</ele>
  <time>2026-08-28T19:10:26Z</time>
  <course>0.09</course>
  <speed>0.0</speed>
  <fix>3d</fix>
</trkpt>
<trkpt lat="40.072842" lon="-105.2305751">
  <ele>1591.58</ele>
  <time>2026-08-28T19:10:26Z</time>
  <course>103.74</course>
  <speed>0.0</speed>
  <fix>3d</fix>
</trkpt>
<trkpt lat="40.072842" lon="-105.2305751">
  <ele>1591.39</ele>
  <time>2026-08-28T19:10:26Z</time>
  <course>0.09</course>
  <speed>0.0</speed>
  <fix>3d</fix>
</trkpt>
<trkpt lat="40.072842" lon="-105.2305751">
  <ele>1591.48</ele>
  <time>2026-08-28T19:10:26Z</time>
  <course>97.1</course>
  <speed>0.0</speed>
  <fix>3d</fix>
</trkpt>
<trkpt lat="40.072842" lon="-105.2305751">
  <ele>1591.29</ele>
  <time>2026-08-28T19:10:26Z</time>
  <course>0.09</course>
  <speed>0.0</speed>
  <fix>3d</fix>
</trkpt>
<trkpt lat="40.072842" lon="-105.2305751">
  <ele>1591.38</ele>
  <time>2026-08-28T19:10:26Z</time>
  <course>93.67</course>
  <speed>0.0</speed>
  <fix>3d</fix>
</trkpt>
<trkpt lat="40.072842" lon="-105.2305751">
  <ele>1591.19</ele>
  <time>2026-08-28T19:10:26Z</time>
  <course>0.08</course>
  <speed>0.0</speed>
  <fix>3d</fix>
</trkpt>
<trkpt lat="40.072842" lon="-105.2305751">
  <ele>1591.28</ele>
  <time>2026-08-28T19:10:26Z</time>
  <course>91.35</course>
  <speed>0.0</speed>
  <fix>3d</fix>
</trkpt>
<trkpt lat="40.072842" lon="-105.2305751">
  <ele>1591.09</ele>
  <time>2026-08-28T19:10:26Z</time>
  <course>0.09</course>
  <speed>0.0</speed>
  <fix>3d</fix>
</trkpt>
<trkpt lat="40.072842" lon="-105.2305751">
  <ele>1591.17</ele>
  <time>2026-08-28T19:10:26Z</time>
  <course>89.7</course>
  <speed>0.0</speed>
  <fix>3d</fix>
</trkpt>
<trkpt lat="40.072842" lon="-105.2305751">
  <ele>1590.99</ele>
  <time>2026-08-28T19:10:26Z</time>
  <course>0.08</course>
  <speed>0.0</speed>
  <fix>3d</fix>
</trkpt>
<trkpt lat="40.072842" lon="-105.2305751">
  <ele>1591.08</ele>
  <time>2026-08-28T19:10:26Z</time>
  <course>89.09</course>
  <speed>0.0</speed>
  <fix>3d</fix>
</trkpt>
<trkpt lat="40.072842" lon="-105.2305751">
  <ele>1590.89</ele>
  <time>2026-08-28T19:10:26Z</time>
  <course>0.08</course>
  <speed>0.0</speed>
  <fix>3d</fix>
</trkpt>
<trkpt lat="40.072842" lon="-105.2305751">
  <ele>1590.98</ele>
  <time>2026-08-28T19:10:26Z</time>
  <course>88.48</course>
  <speed>0.0</speed>
  <fix>3d</fix>
</trkpt>
<trkpt lat="40.072842" lon="-105.2305751">
  <ele>1590.79</ele>
  <time>2026-08-28T19:10:26Z</time>
  <course>0.08</course>
  <speed>0.0</speed>
  <fix>3d</fix>
</trkpt>
<trkpt lat="40.072842" lon="-105.2305751">
  <ele>1590.88</ele>
  <time>2026-08-28T19:10:26Z</time>
  <course>88.33</course>
  <speed>0.0</speed>
  <fix>3d</fix>
</trkpt>
<trkpt lat="40.072842" lon="-105.2305751">
  <ele>1590.69</ele>
  <time>2026-08-28T19:10:26Z</time>
  <course>0.08</course>
  <speed>0.0</speed>
  <fix>3d</fix>
</trkpt>
<trkpt lat="40.072842" lon="-105.2305751">
  <ele>1590.78</ele>
  <time>2026-08-28T19:10:26Z</time>
  <course>88.57</course>
  <speed>0.0</speed>
  <fix>3d</fix>
</trkpt>
<trkpt lat="40.072842" lon="-105.2305751">
  <ele>1590.59</ele>
  <time>2026-08-28T19:10:26Z</time>
  <course>0.07</course>
  <speed>0.0</speed>
  <fix>3d</fix>
</trkpt>
<trkpt lat="40.072842" lon="-105.2305751">
  <ele>1590.67</ele>
  <time>2026-08-28T19:10:26Z</time>
  <course>88.15</course>
  <speed>0.0</speed>
  <fix>3d</fix>
</trkpt>
<trkpt lat="40.072842" lon="-105.230575">
  <ele>1590.49</ele>
  <time>2026-08-28T19:10:26Z</time>
  <course>0.07</course>
  <speed>0.0</speed>
  <fix>3d</fix>
</trkpt>
<trkpt lat="40.072842" lon="-105.230575">
  <ele>1590.58</ele>
  <time>2026-08-28T19:10:26Z</time>
  <course>88.08</course>
  <speed>0.0</speed>
  <fix>3d</fix>
</trkpt>
<trkpt lat="40.072842" lon="-105.230575">
  <ele>1590.39</ele>
  <time>2026-08-28T19:10:26Z</time>
  <course>0.07</course>
  <speed>0.0</speed>
  <fix>3d</fix>
</trkpt>
<trkpt lat="40.072842" lon="-105.230575">
  <ele>1590.48</ele>
  <time>2026-08-28T19:10:26Z</time>
  <course>87.74</course>
  <speed>0.0</speed>
  <fix>3d</fix>
</trkpt>
<trkpt lat="40.072842" lon="-105.230575">
  <ele>1590.29</ele>
  <time>2026-08-28T19:10:26Z</time>
  <course>0.07</course>
  <speed>0.0</speed>
  <fix>3d</fix>
</trkpt>
<trkpt lat="40.072842" lon="-105.230575">
  <ele>1590.38</ele>
  <time>2026-08-28T19:10:26Z</time>
  <course>86.09</course>
  <speed>0.0</speed>
  <fix>3d</fix>
</trkpt>
<trkpt lat="40.072842" lon="-105.230575">
  <ele>1590.19</ele>
  <time>2026-08-28T19:10:26Z</time>
  <course>0.07</course>
  <speed>0.0</speed>
  <fix>3d</fix>
</trkpt>
<trkpt lat="40.072842" lon="-105.230575">
  <ele>1590.28</ele>
  <time>2026-08-28T19:10:26Z</time>
  <course>85.56</course>
  <speed>0.0</speed>
  <fix>3d</fix>
</trkpt>
<trkpt lat="40.072842" lon="-105.230575">
  <ele>1590.09</ele>
  <time>2026-08-28T19:10:26Z</time>
  <course>0.06</course>
  <speed>0.0</speed>
  <fix>3d</fix>
</trkpt>
<trkpt lat="40.072842" lon="-105.230575">
  <ele>1590.17</ele>
  <time>2026-08-28T19:10:26Z</time>
  <course>87.16</course>
  <speed>0.0</speed>
  <fix>3d</fix>
</trkpt>
<trkpt lat="40.072842" lon="-105.230575">
  <ele>1589.99</ele>
  <time>2026-08-28T19:10:26Z</time>
  <course>0.06</course>
  <speed>0.0</speed>
  <fix>3d</fix>
</trkpt>
<trkpt lat="40.072842" lon="-105.230575">
  <ele>1590.08</ele>
  <time>2026-08-28T19:10:26Z</time>
  <course>86.91</course>
  <speed>0.0</speed>
  <fix>3d</fix>
</trkpt>
<trkpt lat="40.072842" lon="-105.230575">
  <ele>1589.89</ele>
  <time>2026-08-28T19:10:26Z</time>
  <course>0.06</course>
  <speed>0.0</speed>
  <fix>3d</fix>
</trkpt>
<trkpt lat="40.072842" lon="-105.230575">
  <ele>1589.98</ele>
  <time>2026-08-28T19:10:26Z</time>
  <course>85.82</course>
  <speed>0.0</speed>
  <fix>3d</fix>
</trkpt>
<trkpt lat="40.072842" lon="-105.230575">
  <ele>1589.79</ele>
  <time>2026-08-28T19:10:26Z</time>
  <course>0.06</course>
  <speed>0.0</speed>
  <fix>3d</fix>
</trkpt>
<trkpt lat="40.072842" lon="-105.230575">
  <ele>1589.88</ele>
  <time>2026-08-28T19:10:26Z</time>
  <course>85.69</course>
  <speed>0.0</speed>
  <fix>3d</fix>
</trkpt>
<trkpt lat="40.072842" lon="-105.230575">
  <ele>1589.69</ele>
  <time>2026-08-28T19:10:26Z</time>
  <course>0.06</course>
  <speed>0.0</speed>
  <fix>3d</fix>
</trkpt>
<trkpt lat="40.072842" lon="-105.230575">
  <ele>1589.78</ele>
  <time>2026-08-28T19:10:26Z</time>
  <course>85.21</course>
  <speed>0.0</speed>
  <fix>3d</fix>
</trkpt>
<trkpt lat="40.072842" lon="-105.230575">
  <ele>1589.59</ele>
  <time>2026-08-28T19:10:26Z</time>
  <course>0.06</course>
  <speed>0.0</speed>
  <fix>3d</fix>
</trkpt>
<trkpt lat="40.072842" lon="-105.230575">
  <ele>1589.67</ele>
  <time>2026-08-28T19:10:26Z</time>
  <course>84.56</course>
  <speed>0.0</speed>
  <fix>3d</fix>
</trkpt>
<trkpt lat="40.072842" lon="-105.230575">
  <ele>1589.49</ele>
  <time>2026-08-28T19:10:26Z</time>
  <course>0.05</course>
  <speed>0.0</speed>
  <fix>3d</fix>
</trkpt>
<trkpt lat="40.072842" lon="-105.230575">
  <ele>1589.58</ele>
  <time>2026-08-28T19:10:26Z</time>
  <course>85.03</course>
  <speed>0.0</speed>
  <fix>3d</fix>
</trkpt>
<trkpt lat="40.072842" lon="-105.230575">
  <ele>1589.39</ele>
  <time>2026-08-28T19:10:26Z</time>
  <course>0.06</course>
  <speed>0.0</speed>
  <fix>3d</fix>
</trkpt>
<trkpt lat="40.072842" lon="-105.230575">
  <ele>1589.48</ele>
  <time>2026-08-28T19:10:26Z</time>
  <course>84.88</course>
  <speed>0.0</speed>
  <fix>3d</fix>
</trkpt>
<trkpt lat="40.072842" lon="-105.2305748">
  <ele>1589.29</ele>
  <time>2026-08-28T19:10:26Z</time>
  <course>0.06</course>
  <speed>0.0</speed>
  <fix>3d</fix>
</trkpt>
<trkpt lat="40.072842" lon="-105.2305749">
  <ele>1589.38</ele>
  <time>2026-08-28T19:10:26Z</time>
  <course>82.47</course>
  <speed>0.0</speed>
  <fix>3d</fix>
</trkpt>
<trkpt lat="40.072842" lon="-105.2305748">
  <ele>1589.19</ele>
  <time>2026-08-28T19:10:26Z</time>
  <course>0.06</course>
  <speed>0.0</speed>
  <fix>3d</fix>
</trkpt>
<trkpt lat="40.072842" lon="-105.2305748">
  <ele>1589.28</ele>
  <time>2026-08-28T19:10:26Z</time>
  <course>335.25</course>
  <speed>0.0</speed>
  <fix>3d</fix>
</trkpt>
<trkpt lat="40.072842" lon="-105.230575">
  <ele>1589.09</ele>
  <time>2026-08-28T19:10:26Z</time>
  <course>0.05</course>
  <speed>0.0</speed>
  <fix>3d</fix>
</trkpt>
<trkpt lat="40.072842" lon="-105.2305749">
  <ele>1589.17</ele>
  <time>2026-08-28T19:10:26Z</time>
  <course>278.08</course>
  <speed>0.0</speed>
  <fix>3d</fix>
</trkpt>
<trkpt lat="40.072842" lon="-105.230575">
  <ele>1588.99</ele>
  <time>2026-08-28T19:10:26Z</time>
  <course>0.05</course>
  <speed>0.0</speed>
  <fix>3d</fix>
</trkpt>
<trkpt lat="40.072842" lon="-105.230575">
  <ele>1589.08</ele>
  <time>2026-08-28T19:10:26Z</time>
  <course>270.9</course>
  <speed>0.0</speed>
  <fix>3d</fix>
</trkpt>
<trkpt lat="40.072842" lon="-105.230575">
  <ele>1588.89</ele>
  <time>2026-08-28T19:10:26Z</time>
  <course>0.04</course>
  <speed>0.0</speed>
  <fix>3d</fix>
</trkpt>
<trkpt lat="40.072842" lon="-105.230575">
  <ele>1588.98</ele>
  <time>2026-08-28T19:10:26Z</time>
  <course>262.03</course>
  <speed>0.0</speed>
  <fix>3d</fix>
</trkpt>
<trkpt lat="40.072842" lon="-105.230575">
  <ele>1588.79</ele>
  <time>2026-08-28T19:10:26Z</time>
  <course>0.05</course>
  <speed>0.0</speed>
  <fix>3d</fix>
</trkpt>
<trkpt lat="40.072842" lon="-105.230575">
  <ele>1588.88</ele>
  <time>2026-08-28T19:10:26Z</time>
  <course>252.37</course>
  <speed>0.0</speed>
  <fix>3d</fix>
</trkpt>
<trkpt lat="40.072842" lon="-105.230575">
  <ele>1588.69</ele>
  <time>2026-08-28T19:10:26Z</time>
  <course>0.04</course>
  <speed>0.0</speed>
  <fix>3d</fix>
</trkpt>
<trkpt lat="40.072842" lon="-105.230575">
  <ele>1588.78</ele>
  <time>2026-08-28T19:10:26Z</time>
  <course>247.49</course>
  <speed>0.0</speed>
  <fix>3d</fix>
</trkpt>
<trkpt lat="40.072842" lon="-105.230575">
  <ele>1588.59</ele>
  <time>2026-08-28T19:10:26Z</time>
  <course>0.04</course>
  <speed>0.0</speed>
  <fix>3d</fix>
</trkpt>
<trkpt lat="40.072842" lon="-105.230575">
  <ele>1588.67</ele>
  <time>2026-08-28T19:10:26Z</time>
  <course>252.33</course>
  <speed>0.0</speed>
  <fix>3d</fix>
</trkpt>
<trkpt lat="40.072842" lon="-105.230575">
  <ele>1588.49</ele>
  <time>2026-08-28T19:10:26Z</time>
  <course>0.04</course>
  <speed>0.0</speed>
  <fix>3d</fix>
</trkpt>
<trkpt lat="40.072842" lon="-105.230575">
  <ele>1588.58</ele>
  <time>2026-08-28T19:10:26Z</time>
  <course>255.97</course>
  <speed>0.0</speed>
  <fix>3d</fix>
</trkpt>
<trkpt lat="40.072842" lon="-105.230575">
  <ele>1588.39</ele>
  <time>2026-08-28T19:10:26Z</time>
  <course>0.04</course>
  <speed>0.0</speed>
  <fix>3d</fix>
</trkpt>
<trkpt lat="40.072842" lon="-105.230575">
  <ele>1588.48</ele>
  <time>2026-08-28T19:10:26Z</time>
  <course>256.76</course>
  <speed>0.0</speed>
  <fix>3d</fix>
</trkpt>
<trkpt lat="40.072842" lon="-105.230575">
  <ele>1588.29</ele>
  <time>2026-08-28T19:10:26Z</time>
  <course>0.04</course>
  <speed>0.0</speed>
  <fix>3d</fix>
</trkpt>
<trkpt lat="40.072842" lon="-105.230575">
  <ele>1588.38</ele>
  <time>2026-08-28T19:10:26Z</time>
  <course>258.26</course>
  <speed>0.0</speed>
  <fix>3d</fix>
</trkpt>
<trkpt lat="40.072842" lon="-105.230575">
  <ele>1588.19</ele>
  <time>2026-08-28T19:10:26Z</time>
  <course>0.04</course>
  <speed>0.0</speed>
  <fix>3d</fix>
</trkpt>
<trkpt lat="40.072842" lon="-105.230575">
  <ele>1588.28</ele>
  <time>2026-08-28T19:10:26Z</time>
  <course>259.71</course>
  <speed>0.0</speed>
  <fix>3d</fix>
</trkpt>
<trkpt lat="40.072842" lon="-105.230575">
  <ele>1588.09</ele>
  <time>2026-08-28T19:10:26Z</time>
  <course>0.04</course>
  <speed>0.0</speed>
  <fix>3d</fix>
</trkpt>
<trkpt lat="40.072842" lon="-105.230575">
  <ele>1588.17</ele>
  <time>2026-08-28T19:10:26Z</time>
  <course>263.65</course>
  <speed>0.0</speed>
  <fix>3d</fix>
</trkpt>
<trkpt lat="40.072842" lon="-105.230575">
  <ele>1587.99</ele>
  <time>2026-08-28T19:10:26Z</time>
  <course>0.04</course>
  <speed>0.0</speed>
  <fix>3d</fix>
</trkpt>
<trkpt lat="40.072842" lon="-105.230575">
  <ele>1588.08</ele>
  <time>2026-08-28T19:10:26Z</time>
  <course>266.82</course>
  <speed>0.0</speed>
  <fix>3d</fix>
</trkpt>
<trkpt lat="40.072842" lon="-105.230575">
  <ele>1587.89</ele>
  <time>2026-08-28T19:10:26Z</time>
  <course>0.04</course>
  <speed>0.0</speed>
  <fix>3d</fix>
</trkpt>
<trkpt lat="40.072842" lon="-105.230575">
  <ele>1587.98</ele>
  <time>2026-08-28T19:10:26Z</time>
  <course>268.54</course>
  <speed>0.0</speed>
  <fix>3d</fix>
</trkpt>
<trkpt lat="40.072842" lon="-105.230575">
  <ele>1587.79</ele>
  <time>2026-08-28T19:10:26Z</time>
  <course>0.03</course>
  <speed>0.0</speed>
  <fix>3d</fix>
</trkpt>
<trkpt lat="40.072842" lon="-105.230575">
  <ele>1587.88</ele>
  <time>2026-08-28T19:10:26Z</time>
  <course>272.48</course>
  <speed>0.0</speed>
  <fix>3d</fix>
</trkpt>
<trkpt lat="40.072842" lon="-105.230575">
  <ele>1587.69</ele>
  <time>2026-08-28T19:10:26Z</time>
  <course>0.03</course>
  <speed>0.0</speed>
  <fix>3d</fix>
</trkpt>
<trkpt lat="40.072842" lon="-105.230575">
  <ele>1587.78</ele>
  <time>2026-08-28T19:10:26Z</time>
  <course>281.58</course>
  <speed>0.0</speed>
  <fix>3d</fix>
</trkpt>
<trkpt lat="40.072842" lon="-105.230575">
  <ele>1587.59</ele>
  <time>2026-08-28T19:10:26Z</time>
  <course>0.03</course>
  <speed>0.0</speed>
  <fix>3d</fix>
</trkpt>
<trkpt lat="40.072842" lon="-105.230575">
  <ele>1587.67</ele>
  <time>2026-08-28T19:10:26Z</time>
  <course>293.39</course>
  <speed>0.0</speed>
  <fix>3d</fix>
</trkpt>
<trkpt lat="40.072842" lon="-105.230575">
  <ele>1587.49</ele>
  <time>2026-08-28T19:10:26Z</time>
  <course>0.03</course>
  <speed>0.0</speed>
  <fix>3d</fix>
</trkpt>
<trkpt lat="40.072842" lon="-105.230575">
  <ele>1587.58</ele>
  <time>2026-08-28T19:10:26Z</time>
  <course>300.15</course>
  <speed>0.0</speed>
  <fix>3d</fix>
</trkpt>
<trkpt lat="40.072842" lon="-105.230575">
  <ele>1587.39</ele>
  <time>2026-08-28T19:10:26Z</time>
  <course>0.03</course>
  <speed>0.0</speed>
  <fix>3d</fix>
</trkpt>
<trkpt lat="40.072842" lon="-105.230575">
  <ele>1587.48</ele>
  <time>2026-08-28T19:10:26Z</time>
  <course>306.38</course>
  <speed>0.0</speed>
  <fix>3d</fix>
</trkpt>
<trkpt lat="40.072842" lon="-105.230575">
  <ele>1587.29</ele>
  <time>2026-08-28T19:10:26Z</time>
  <course>0.03</course>
  <speed>0.0</speed>
  <fix>3d</fix>
</trkpt>
<trkpt lat="40.072842" lon="-105.230575">
  <ele>1587.38</ele>
  <time>2026-08-28T19:10:26Z</time>
  <course>313.13</course>
  <speed>0.0</speed>
  <fix>3d</fix>
</trkpt>
<trkpt lat="40.072842" lon="-105.230575">
  <ele>1587.19</ele>
  <time>2026-08-28T19:10:26Z</time>
  <course>0.03</course>
  <speed>0.0</speed>
  <fix>3d</fix>
</trkpt>
<trkpt lat="40.072842" lon="-105.230575">
  <ele>1587.28</ele>
  <time>2026-08-28T19:10:26Z</time>
  <course>316.71</course>
  <speed>0.0</speed>
  <fix>3d</fix>
</trkpt>
<trkpt lat="40.072842" lon="-105.230575">
  <ele>1587.09</ele>
  <time>2026-08-28T19:10:26Z</time>
  <course>0.02</course>
  <speed>0.0</speed>
  <fix>3d</fix>
</trkpt>
<trkpt lat="40.072842" lon="-105.230575">
  <ele>1587.17</ele>
  <time>2026-08-28T19:10:26Z</time>
  <course>320.69</course>
  <speed>0.0</speed>
  <fix>3d</fix>
</trkpt>
<trkpt lat="40.072842" lon="-105.230575">
  <ele>1586.99</ele>
  <time>2026-08-28T19:10:26Z</time>
  <course>0.02</course>
  <speed>0.0</speed>
  <fix>3d</fix>
</trkpt>
<trkpt lat="40.072842" lon="-105.230575">
  <ele>1587.08</ele>
  <time>2026-08-28T19:10:26Z</time>
  <course>325.91</course>
  <speed>0.0</speed>
  <fix>3d</fix>
</trkpt>
<trkpt lat="40.072842" lon="-105.230575">
  <ele>1586.89</ele>
  <time>2026-08-28T19:10:26Z</time>
  <course>0.02</course>
  <speed>0.0</speed>
  <fix>3d</fix>
</trkpt>
<trkpt lat="40.072842" lon="-105.230575">
  <ele>1586.98</ele>
  <time>2026-08-28T19:10:26Z</time>
  <course>329.01</course>
  <speed>0.0</speed>
  <fix>3d</fix>
</trkpt>
<trkpt lat="40.072842" lon="-105.230575">
  <ele>1586.79</ele>
  <time>2026-08-28T19:10:26Z</time>
  <course>0.02</course>
  <speed>0.0</speed>
  <fix>3d</fix>
</trkpt>
<trkpt lat="40.072842" lon="-105.230575">
  <ele>1586.88</ele>
  <time>2026-08-28T19:10:26Z</time>
  <course>331.29</course>
  <speed>0.0</speed>
  <fix>3d</fix>
</trkpt>
<trkpt lat="40.072842" lon="-105.230575">
  <ele>1586.69</ele>
  <time>2026-08-28T19:10:26Z</time>
  <course>0.02</course>
  <speed>0.0</speed>
  <fix>3d</fix>
</trkpt>
<trkpt lat="40.072842" lon="-105.230575">
  <ele>1586.78</ele>
  <time>2026-08-28T19:10:26Z</time>
  <course>329.88</course>
  <speed>0.0</speed>
  <fix>3d</fix>
</trkpt>
<trkpt lat="40.072842" lon="-105.230575">
  <ele>1586.59</ele>
  <time>2026-08-28T19:10:26Z</time>
  <course>0.02</course>
  <speed>0.0</speed>
  <fix>3d</fix>
</trkpt>
<trkpt lat="40.072842" lon="-105.230575">
  <ele>1586.67</ele>
  <time>2026-08-28T19:10:26Z</time>
  <course>329.09</course>
  <speed>0.0</speed>
  <fix>3d</fix>
</trkpt>
<trkpt lat="40.072842" lon="-105.230575">
  <ele>1586.49</ele>
  <time>2026-08-28T19:10:26Z</time>
  <course>0.02</course>
  <speed>0.0</speed>
  <fix>3d</fix>
</trkpt>
<trkpt lat="40.072842" lon="-105.230575">
  <ele>1586.58</ele>
  <time>2026-08-28T19:10:26Z</time>
  <course>330.76</course>
  <speed>0.0</speed>
  <fix>3d</fix>
</trkpt>
<trkpt lat="40.072842" lon="-105.230575">
  <ele>1586.39</ele>
  <time>2026-08-28T19:10:26Z</time>
  <course>0.02</course>
  <speed>0.0</speed>
  <fix>3d</fix>
</trkpt>
<trkpt lat="40.072842" lon="-105.230575">
  <ele>1586.48</ele>
  <time>2026-08-28T19:10:26Z</time>
  <course>336.06</course>
  <speed>0.0</speed>
  <fix>3d</fix>
</trkpt>
<trkpt lat="40.072842" lon="-105.230575">
  <ele>1586.29</ele>
  <time>2026-08-28T19:10:26Z</time>
  <course>0.01</course>
  <speed>0.0</speed>
  <fix>3d</fix>
</trkpt>
<trkpt lat="40.072842" lon="-105.230575">
  <ele>1586.38</ele>
  <time>2026-08-28T19:10:26Z</time>
  <course>337.95</course>
  <speed>0.0</speed>
  <fix>3d</fix>
</trkpt>
<trkpt lat="40.072842" lon="-105.230575">
  <ele>1586.19</ele>
  <time>2026-08-28T19:10:26Z</time>
  <course>0.02</course>
  <speed>0.0</speed>
  <fix>3d</fix>
</trkpt>
<trkpt lat="40.072842" lon="-105.230575">
  <ele>1586.28</ele>
  <time>2026-08-28T19:10:26Z</time>
  <course>325.75</course>
  <speed>0.0</speed>
  <fix>3d</fix>
</trkpt>
<trkpt lat="40.072842" lon="-105.230575">
  <ele>1586.09</ele>
  <time>2026-08-28T19:10:26Z</time>
  <course>0.02</course>
  <speed>0.0</speed>
  <fix>3d</fix>
</trkpt>
<trkpt lat="40.072842" lon="-105.230575">
  <ele>1586.17</ele>
  <time>2026-08-28T19:10:26Z</time>
  <course>317.02</course>
  <speed>0.0</speed>
  <fix>3d</fix>
</trkpt>
<trkpt lat="40.072842" lon="-105.230575">
  <ele>1586.07</ele>
  <time>2026-08-28T19:10:26Z</time>
  <course>0.03</course>
  <speed>0.01</speed>
  <fix>3d</fix>
</trkpt>
<trkpt lat="40.072842" lon="-105.230575">
  <ele>1586.1</ele>
  <time>2026-08-28T19:10:26Z</time>
  <course>272.07</course>
  <speed>0.01</speed>
  <fix>3d</fix>
</trkpt>
<trkpt lat="40.072842" lon="-105.230575">
  <ele>1586.1</ele>
  <time>2026-08-28T19:10:26Z</time>
  <course>0.06</course>
  <speed>0.0</speed>
  <fix>3d</fix>
</trkpt>
<trkpt lat="40.072842" lon="-105.230575">
  <ele>1586.08</ele>
  <time>2026-08-28T19:10:26Z</time>
  <course>278.58</course>
  <speed>0.01</speed>
  <fix>3d</fix>
</trkpt>
<trkpt lat="40.072842" lon="-105.230575">
  <ele>1586.1</ele>
  <time>2026-08-28T19:10:26Z</time>
  <course>0.09</course>
  <speed>0.0</speed>
  <fix>3d</fix>
</trkpt>
<trkpt lat="40.072842" lon="-105.230575">
  <ele>1586.09</ele>
  <time>2026-08-28T19:10:26Z</time>
  <course>32.07</course>
  <speed>0.0</speed>
  <fix>3d</fix>
</trkpt>
<trkpt lat="40.072842" lon="-105.230575">
  <ele>1586.09</ele>
  <time>2026-08-28T19:10:26Z</time>
  <course>0.13</course>
  <speed>0.0</speed>
  <fix>3d</fix>
</trkpt>
<trkpt lat="40.072842" lon="-105.230575">
  <ele>1586.09</ele>
  <time>2026-08-28T19:10:26Z</time>
  <course>108.4</course>
  <speed>0.0</speed>
  <fix>3d</fix>
</trkpt>
<trkpt lat="40.072842" lon="-105.230575">
  <ele>1586.09</ele>
  <time>2026-08-28T19:10:26Z</time>
  <course>0.16</course>
  <speed>0.0</speed>
  <fix>3d</fix>
</trkpt>
<trkpt lat="40.072842" lon="-105.230575">
  <ele>1586.09</ele>
  <time>2026-08-28T19:10:26Z</time>
  <course>344.1</course>
  <speed>0.0</speed>
  <fix>3d</fix>
</trkpt>
<trkpt lat="40.072842" lon="-105.230575">
  <ele>1586.09</ele>
  <time>2026-08-28T19:10:26Z</time>
  <course>0.19</course>
  <speed>0.0</speed>
  <fix>3d</fix>
</trkpt>
<trkpt lat="40.072842" lon="-105.230575">
  <ele>1586.09</ele>
  <time>2026-08-28T19:10:26Z</time>
  <course>357.36</course>
  <speed>0.0</speed>
  <fix>3d</fix>
</trkpt>
<trkpt lat="40.072842" lon="-105.230575">
  <ele>1586.09</ele>
  <time>2026-08-28T19:10:26Z</time>
  <course>0.21</course>
  <speed>0.0</speed>
  <fix>3d</fix>
</trkpt>
<trkpt lat="40.072842" lon="-105.230575">
  <ele>1586.09</ele>
  <time>2026-08-28T19:10:26Z</time>
  <course>2.44</course>
  <speed>0.0</speed>
  <fix>3d</fix>
</trkpt>
<trkpt lat="40.072842" lon="-105.230575">
  <ele>1586.09</ele>
  <time>2026-08-28T19:10:26Z</time>
  <course>0.24</course>
  <speed>0.0</speed>
  <fix>3d</fix>
</trkpt>
<trkpt lat="40.072842" lon="-105.230575">
  <ele>1586.09</ele>
  <time>2026-08-28T19:10:26Z</time>
  <course>359.05</course>
  <speed>0.0</speed>
  <fix>3d</fix>
</trkpt>
<trkpt lat="40.072842" lon="-105.230575">
  <ele>1586.09</ele>
  <time>2026-08-28T19:10:26Z</time>
  <course>0.26</course>
  <speed>0.0</speed>
  <fix>3d</fix>
</trkpt>
<trkpt lat="40.072842" lon="-105.230575">
  <ele>1586.09</ele>
  <time>2026-08-28T19:10:26Z</time>
  <course>12.18</course>
  <speed>0.0</speed>
  <fix>3d</fix>
</trkpt>
<trkpt lat="40.072842" lon="-105.230575">
  <ele>1586.09</ele>
  <time>2026-08-28T19:10:26Z</time>
  <course>0.29</course>
  <speed>0.0</speed>
  <fix>3d</fix>
</trkpt>
<trkpt lat="40.072842" lon="-105.230575">
  <ele>1586.09</ele>
  <time>2026-08-28T19:10:26Z</time>
  <course>13.04</course>
  <speed>0.0</speed>
  <fix>3d</fix>
</trkpt>
<trkpt lat="40.072842" lon="-105.230575">
  <ele>1586.09</ele>
  <time>2026-08-28T19:10:26Z</time>
  <course>0.28</course>
  <speed>0.01</speed>
  <fix>3d</fix>
</trkpt>
<trkpt lat="40.072842" lon="-105.230575">
  <ele>1586.09</ele>
  <time>2026-08-28T19:10:26Z</time>
  <course>89.48</course>
  <speed>0.0</speed>
  <fix>3d</fix>
</trkpt>
<trkpt lat="40.072842" lon="-105.230575">
  <ele>1586.09</ele>
  <time>2026-08-28T19:10:27Z</time>
  <course>0.26</course>
  <speed>0.0</speed>
  <fix>3d</fix>
</trkpt>
<trkpt lat="40.072842" lon="-105.230575">
  <ele>1586.09</ele>
  <time>2026-08-28T19:10:27Z</time>
  <course>94.42</course>
  <speed>0.01</speed>
  <fix>3d</fix>
</trkpt>
<trkpt lat="40.072842" lon="-105.230575">
  <ele>1586.09</ele>
  <time>2026-08-28T19:10:27Z</time>
  <course>0.24</course>
  <speed>0.0</speed>
  <fix>3d</fix>
</trkpt>
<trkpt lat="40.072842" lon="-105.230575">
  <ele>1586.09</ele>
  <time>2026-08-28T19:10:27Z</time>
  <course>103.39</course>
  <speed>0.0</speed>
  <fix>3d</fix>
</trkpt>
<trkpt lat="40.072842" lon="-105.230575">
  <ele>1586.09</ele>
  <time>2026-08-28T19:10:27Z</time>
  <course>0.23</course>
  <speed>0.0</speed>
  <fix>3d</fix>
</trkpt>
<trkpt lat="40.072842" lon="-105.230575">
  <ele>1586.09</ele>
  <time>2026-08-28T19:10:27Z</time>
  <course>230.66</course>
  <speed>0.0</speed>
  <fix>3d</fix>
</trkpt>
<trkpt lat="40.072842" lon="-105.230575">
  <ele>1586.09</ele>
  <time>2026-08-28T19:10:27Z</time>
  <course>0.23</course>
  <speed>0.0</speed>
  <fix>3d</fix>
</trkpt>
<trkpt lat="40.072842" lon="-105.230575">
  <ele>1586.09</ele>
  <time>2026-08-28T19:10:27Z</time>
  <course>241.82</course>
  <speed>0.0</speed>
  <fix>3d</fix>
</trkpt>
<trkpt lat="40.072842" lon="-105.230575">
  <ele>1586.09</ele>
  <time>2026-08-28T19:10:27Z</time>
  <course>0.23</course>
  <speed>0.0</speed>
  <fix>3d</fix>
</trkpt>
<trkpt lat="40.072842" lon="-105.230575">
  <ele>1586.09</ele>
  <time>2026-08-28T19:10:27Z</time>
  <course>227.38</course>
  <speed>0.0</speed>
  <fix>3d</fix>
</trkpt>
<trkpt lat="40.072842" lon="-105.230575">
  <ele>1586.09</ele>
  <time>2026-08-28T19:10:27Z</time>
  <course>0.23</course>
  <speed>0.0</speed>
  <fix>3d</fix>
</trkpt>
<trkpt lat="40.072842" lon="-105.230575">
  <ele>1586.09</ele>
  <time>2026-08-28T19:10:27Z</time>
  <course>226.91</course>
  <speed>0.0</speed>
  <fix>3d</fix>
</trkpt>
<trkpt lat="40.072842" lon="-105.230575">
  <ele>1586.09</ele>
  <time>2026-08-28T19:10:27Z</time>
  <course>0.23</course>
  <speed>0.0</speed>
  <fix>3d</fix>
</trkpt>
<trkpt lat="40.072842" lon="-105.230575">
  <ele>1586.09</ele>
  <time>2026-08-28T19:10:27Z</time>
  <course>224.73</course>
  <speed>0.0</speed>
  <fix>3d</fix>
</trkpt>
<trkpt lat="40.072842" lon="-105.230575">
  <ele>1586.09</ele>
  <time>2026-08-28T19:10:27Z</time>
  <course>0.23</course>
  <speed>0.0</speed>
  <fix>3d</fix>
</trkpt>
<trkpt lat="40.072842" lon="-105.230575">
  <ele>1586.09</ele>
  <time>2026-08-28T19:10:27Z</time>
  <course>265.84</course>
  <speed>0.0</speed>
  <fix>3d</fix>
</trkpt>
<trkpt lat="40.072842" lon="-105.230575">
  <ele>1586.09</ele>
  <time>2026-08-28T19:10:27Z</time>
  <course>0.22</course>
  <speed>0.0</speed>
  <fix>3d</fix>
</trkpt>
<trkpt lat="40.072842" lon="-105.230575">
  <ele>1586.09</ele>
  <time>2026-08-28T19:10:27Z</time>
  <course>247.73</course>
  <speed>0.0</speed>
  <fix>3d</fix>
</trkpt>
<trkpt lat="40.072842" lon="-105.230575">
  <ele>1586.09</ele>
  <time>2026-08-28T19:10:27Z</time>
  <course>0.22</course>
  <speed>0.0</speed>
  <fix>3d</fix>
</trkpt>
<trkpt lat="40.072842" lon="-105.230575">
  <ele>1586.09</ele>
  <time>2026-08-28T19:10:27Z</time>
  <course>226.87</course>
  <speed>0.0</speed>
  <fix>3d</fix>
</trkpt>
<trkpt lat="40.072842" lon="-105.230575">
  <ele>1586.09</ele>
  <time>2026-08-28T19:10:27Z</time>
  <course>0.22</course>
  <speed>0.0</speed>
  <fix>3d</fix>
</trkpt>
<trkpt lat="40.072842" lon="-105.230575">
  <ele>1586.09</ele>
  <time>2026-08-28T19:10:27Z</time>
  <course>285.13</course>
  <speed>0.0</speed>
  <fix>3d</fix>
</trkpt>
<trkpt lat="40.072842" lon="-105.230575">
  <ele>1586.09</ele>
  <time>2026-08-28T19:10:27Z</time>
  <course>0.22</course>
  <speed>0.0</speed>
  <fix>3d</fix>
</trkpt>
<trkpt lat="40.072842" lon="-105.230575">
  <ele>1586.09</ele>
  <time>2026-08-28T19:10:27Z</time>
  <course>264.29</course>
  <speed>0.0</speed>
  <fix>3d</fix>
</trkpt>
<trkpt lat="40.072842" lon="-105.230575">
  <ele>1586.09</ele>
  <time>2026-08-28T19:10:27Z</time>
  <course>0.22</course>
  <speed>0.0</speed>
  <fix>3d</fix>
</trkpt>
<trkpt lat="40.072842" lon="-105.230575">
  <ele>1586.09</ele>
  <time>2026-08-28T19:10:27Z</time>
  <course>254.71</course>
  <speed>0.0</speed>
  <fix>3d</fix>
</trkpt>
<trkpt lat="40.072842" lon="-105.230575">
  <ele>1586.09</ele>
  <time>2026-08-28T19:10:27Z</time>
  <course>0.22</course>
  <speed>0.0</speed>
  <fix>3d</fix>
</trkpt>
<trkpt lat="40.072842" lon="-105.230575">
  <ele>1586.09</ele>
  <time>2026-08-28T19:10:27Z</time>
  <course>267.06</course>
  <speed>0.0</speed>
  <fix>3d</fix>
</trkpt>
<trkpt lat="40.072842" lon="-105.230575">
  <ele>1586.09</ele>
  <time>2026-08-28T19:10:27Z</time>
  <course>0.22</course>
  <speed>0.0</speed>
  <fix>3d</fix>
</trkpt>
<trkpt lat="40.072842" lon="-105.230575">
  <ele>1586.09</ele>
  <time>2026-08-28T19:10:27Z</time>
  <course>282.46</course>
  <speed>0.0</speed>
  <fix>3d</fix>
</trkpt>
<trkpt lat="40.072842" lon="-105.230575">
  <ele>1586.09</ele>
  <time>2026-08-28T19:10:27Z</time>
  <course>0.22</course>
  <speed>0.0</speed>
  <fix>3d</fix>
</trkpt>
<trkpt lat="40.072842" lon="-105.230575">
  <ele>1586.09</ele>
  <time>2026-08-28T19:10:27Z</time>
  <course>268.33</course>
  <speed>0.0</speed>
  <fix>3d</fix>
</trkpt>
<trkpt lat="40.072842" lon="-105.230575">
  <ele>1586.09</ele>
  <time>2026-08-28T19:10:27Z</time>
  <course>0.22</course>
  <speed>0.0</speed>
  <fix>3d</fix>
</trkpt>
<trkpt lat="40.072842" lon="-105.230575">
  <ele>1586.09</ele>
  <time>2026-08-28T19:10:27Z</time>
  <course>248.41</course>
  <speed>0.0</speed>
  <fix>3d</fix>
</trkpt>
<trkpt lat="40.072842" lon="-105.230575">
  <ele>1586.09</ele>
  <time>2026-08-28T19:10:27Z</time>
  <course>0.22</course>
  <speed>0.0</speed>
  <fix>3d</fix>
</trkpt>
<trkpt lat="40.072842" lon="-105.230575">
  <ele>1586.09</ele>
  <time>2026-08-28T19:10:27Z</time>
  <course>313.99</course>
  <speed>0.0</speed>
  <fix>3d</fix>
</trkpt>
<trkpt lat="40.072842" lon="-105.230575">
  <ele>1586.09</ele>
  <time>2026-08-28T19:10:27Z</time>
  <course>0.22</course>
  <speed>0.0</speed>
  <fix>3d</fix>
</trkpt>
<trkpt lat="40.072842" lon="-105.230575">
  <ele>1586.09</ele>
  <time>2026-08-28T19:10:27Z</time>
  <course>258.64</course>
  <speed>0.0</speed>
  <fix>3d</fix>
</trkpt>
<trkpt lat="40.072842" lon="-105.230575">
  <ele>1586.09</ele>
  <time>2026-08-28T19:10:27Z</time>
  <course>0.22</course>
  <speed>0.0</speed>
  <fix>3d</fix>
</trkpt>
<trkpt lat="40.072842" lon="-105.230575">
  <ele>1586.09</ele>
  <time>2026-08-28T19:10:27Z</time>
  <course>275.26</course>
  <speed>0.0</speed>
  <fix>3d</fix>
</trkpt>
<trkpt lat="40.072842" lon="-105.230575">
  <ele>1586.09</ele>
  <time>2026-08-28T19:10:27Z</time>
  <course>0.22</course>
  <speed>0.0</speed>
  <fix>3d</fix>
</trkpt>
<trkpt lat="40.072842" lon="-105.230575">
  <ele>1586.09</ele>
  <time>2026-08-28T19:10:27Z</time>
  <course>300.05</course>
  <speed>0.0</speed>
  <fix>3d</fix>
</trkpt>
<trkpt lat="40.072842" lon="-105.230575">
  <ele>1586.09</ele>
  <time>2026-08-28T19:10:27Z</time>
  <course>0.22</course>
  <speed>0.0</speed>
  <fix>3d</fix>
</trkpt>
<trkpt lat="40.072842" lon="-105.230575">
  <ele>1586.09</ele>
  <time>2026-08-28T19:10:27Z</time>
  <course>200.24</course>
  <speed>0.0</speed>
  <fix>3d</fix>
</trkpt>
<trkpt lat="40.072842" lon="-105.230575">
  <ele>1586.09</ele>
  <time>2026-08-28T19:10:27Z</time>
  <course>0.22</course>
  <speed>0.0</speed>
  <fix>3d</fix>
</trkpt>
<trkpt lat="40.072842" lon="-105.230575">
  <ele>1586.09</ele>
  <time>2026-08-28T19:10:27Z</time>
  <course>138.38</course>
  <speed>0.0</speed>
  <fix>3d</fix>
</trkpt>
<trkpt lat="40.072842" lon="-105.230575">
  <ele>1586.09</ele>
  <time>2026-08-28T19:10:27Z</time>
  <course>0.22</course>
  <speed>0.0</speed>
  <fix>3d</fix>
</trkpt>
<trkpt lat="40.072842" lon="-105.230575">
  <ele>1586.09</ele>
  <time>2026-08-28T19:10:27Z</time>
  <course>332.79</course>
  <speed>0.0</speed>
  <fix>3d</fix>
</trkpt>
<trkpt lat="40.072842" lon="-105.230575">
  <ele>1586.09</ele>
  <time>2026-08-28T19:10:27Z</time>
  <course>0.22</course>
  <speed>0.0</speed>
  <fix>3d</fix>
</trkpt>
<trkpt lat="40.072842" lon="-105.230575">
  <ele>1586.09</ele>
  <time>2026-08-28T19:10:27Z</time>
  <course>285.52</course>
  <speed>0.0</speed>
  <fix>3d</fix>
</trkpt>
<trkpt lat="40.072842" lon="-105.230575">
  <ele>1586.09</ele>
  <time>2026-08-28T19:10:27Z</time>
  <course>0.22</course>
  <speed>0.0</speed>
  <fix>3d</fix>
</trkpt>
<trkpt lat="40.072842" lon="-105.230575">
  <ele>1586.09</ele>
  <time>2026-08-28T19:10:27Z</time>
  <course>271.23</course>
  <speed>0.0</speed>
  <fix>3d</fix>
</trkpt>
<trkpt lat="40.072842" lon="-105.230575">
  <ele>1586.09</ele>
  <time>2026-08-28T19:10:27Z</time>
  <course>0.22</course>
  <speed>0.0</speed>
  <fix>3d</fix>
</trkpt>
<trkpt lat="40.072842" lon="-105.230575">
  <ele>1586.09</ele>
  <time>2026-08-28T19:10:27Z</time>
  <course>225.9</course>
  <speed>0.0</speed>
  <fix>3d</fix>
</trkpt>
<trkpt lat="40.072842" lon="-105.230575">
  <ele>1586.09</ele>
  <time>2026-08-28T19:10:27Z</time>
  <course>0.22</course>
  <speed>0.0</speed>
  <fix>3d</fix>
</trkpt>
<trkpt lat="40.072842" lon="-105.230575">
  <ele>1586.09</ele>
  <time>2026-08-28T19:10:27Z</time>
  <course>280.26</course>
  <speed>0.0</speed>
  <fix>3d</fix>
</trkpt>
<trkpt lat="40.072842" lon="-105.230575">
  <ele>1586.09</ele>
  <time>2026-08-28T19:10:27Z</time>
  <course>0.21</course>
  <speed>0.0</speed>
  <fix>3d</fix>
</trkpt>
<trkpt lat="40.072842" lon="-105.230575">
  <ele>1586.09</ele>
  <time>2026-08-28T19:10:27Z</time>
  <course>300.1</course>
  <speed>0.0</speed>
  <fix>3d</fix>
</trkpt>
<trkpt lat="40.072842" lon="-105.230575">
  <ele>1586.09</ele>
  <time>2026-08-28T19:10:27Z</time>
  <course>0.21</course>
  <speed>0.0</speed>
  <fix>3d</fix>
</trkpt>
<trkpt lat="40.072842" lon="-105.230575">
  <ele>1586.09</ele>
  <time>2026-08-28T19:10:27Z</time>
  <course>257.62</course>
  <speed>0.0</speed>
  <fix>3d</fix>
</trkpt>
<trkpt lat="40.072842" lon="-105.230575">
  <ele>1586.09</ele>
  <time>2026-08-28T19:10:27Z</time>
  <course>0.21</course>
  <speed>0.0</speed>
  <fix>3d</fix>
</trkpt>
<trkpt lat="40.072842" lon="-105.230575">
  <ele>1586.09</ele>
  <time>2026-08-28T19:10:27Z</time>
  <course>193.04</course>
  <speed>0.0</speed>
  <fix>3d</fix>
</trkpt>
<trkpt lat="40.072842" lon="-105.230575">
  <ele>1586.09</ele>
  <time>2026-08-28T19:10:27Z</time>
  <course>0.21</course>
  <speed>0.0</speed>
  <fix>3d</fix>
</trkpt>
<trkpt lat="40.072842" lon="-105.230575">
  <ele>1586.09</ele>
  <time>2026-08-28T19:10:27Z</time>
  <course>226.75</course>
  <speed>0.0</speed>
  <fix>3d</fix>
</trkpt>
<trkpt lat="40.072842" lon="-105.230575">
  <ele>1586.09</ele>
  <time>2026-08-28T19:10:27Z</time>
  <course>0.21</course>
  <speed>0.0</speed>
  <fix>3d</fix>
</trkpt>
<trkpt lat="40.072842" lon="-105.230575">
  <ele>1586.09</ele>
  <time>2026-08-28T19:10:27Z</time>
  <course>300.76</course>
  <speed>0.0</speed>
  <fix>3d</fix>
</trkpt>
<trkpt lat="40.072842" lon="-105.230575">
  <ele>1586.09</ele>
  <time>2026-08-28T19:10:27Z</time>
  <course>0.21</course>
  <speed>0.0</speed>
  <fix>3d</fix>
</trkpt>
<trkpt lat="40.072842" lon="-105.230575">
  <ele>1586.09</ele>
  <time>2026-08-28T19:10:27Z</time>
  <course>257.94</course>
  <speed>0.0</speed>
  <fix>3d</fix>
</trkpt>
<trkpt lat="40.072842" lon="-105.230575">
  <ele>1586.09</ele>
  <time>2026-08-28T19:10:27Z</time>
  <course>0.21</course>
  <speed>0.0</speed>
  <fix>3d</fix>
</trkpt>
<trkpt lat="40.072842" lon="-105.230575">
  <ele>1586.09</ele>
  <time>2026-08-28T19:10:27Z</time>
  <course>156.51</course>
  <speed>0.0</speed>
  <fix>3d</fix>
</trkpt>
<trkpt lat="40.072842" lon="-105.230575">
  <ele>1586.09</ele>
  <time>2026-08-28T19:10:27Z</time>
  <course>0.21</course>
  <speed>0.0</speed>
  <fix>3d</fix>
</trkpt>
<trkpt lat="40.072842" lon="-105.230575">
  <ele>1586.09</ele>
  <time>2026-08-28T19:10:27Z</time>
  <course>115.75</course>
  <speed>0.0</speed>
  <fix>3d</fix>
</trkpt>
<trkpt lat="40.072842" lon="-105.230575">
  <ele>1586.09</ele>
  <time>2026-08-28T19:10:27Z</time>
  <course>0.21</course>
  <speed>0.0</speed>
  <fix>3d</fix>
</trkpt>
<trkpt lat="40.072842" lon="-105.230575">
  <ele>1586.09</ele>
  <time>2026-08-28T19:10:27Z</time>
  <course>247.23</course>
  <speed>0.0</speed>
  <fix>3d</fix>
</trkpt>
<trkpt lat="40.072842" lon="-105.230575">
  <ele>1586.09</ele>
  <time>2026-08-28T19:10:27Z</time>
  <course>0.21</course>
  <speed>0.0</speed>
  <fix>3d</fix>
</trkpt>
<trkpt lat="40.072842" lon="-105.230575">
  <ele>1586.09</ele>
  <time>2026-08-28T19:10:27Z</time>
  <course>131.91</course>
  <speed>0.0</speed>
  <fix>3d</fix>
</trkpt>
<trkpt lat="40.072842" lon="-105.230575">
  <ele>1586.09</ele>
  <time>2026-08-28T19:10:27Z</time>
  <course>0.21</course>
  <speed>0.0</speed>
  <fix>3d</fix>
</trkpt>
<trkpt lat="40.072842" lon="-105.230575">
  <ele>1586.09</ele>
  <time>2026-08-28T19:10:27Z</time>
  <course>77.14</course>
  <speed>0.0</speed>
  <fix>3d</fix>
</trkpt>
<trkpt lat="40.072842" lon="-105.230575">
  <ele>1586.09</ele>
  <time>2026-08-28T19:10:27Z</time>
  <course>0.21</course>
  <speed>0.0</speed>
  <fix>3d</fix>
</trkpt>
<trkpt lat="40.072842" lon="-105.230575">
  <ele>1586.09</ele>
  <time>2026-08-28T19:10:27Z</time>
  <course>325.85</course>
  <speed>0.0</speed>
  <fix>3d</fix>
</trkpt>
<trkpt lat="40.072842" lon="-105.230575">
  <ele>1586.09</ele>
  <time>2026-08-28T19:10:27Z</time>
  <course>0.21</course>
  <speed>0.0</speed>
  <fix>3d</fix>
</trkpt>
<trkpt lat="40.072842" lon="-105.230575">
  <ele>1586.09</ele>
  <time>2026-08-28T19:10:27Z</time>
  <course>255.14</course>
  <speed>0.0</speed>
  <fix>3d</fix>
</trkpt>
<trkpt lat="40.072842" lon="-105.230575">
  <ele>1586.09</ele>
  <time>2026-08-28T19:10:27Z</time>
  <course>0.21</course>
  <speed>0.0</speed>
  <fix>3d</fix>
</trkpt>
<trkpt lat="40.072842" lon="-105.230575">
  <ele>1586.09</ele>
  <time>2026-08-28T19:10:27Z</time>
  <course>166.24</course>
  <speed>0.0</speed>
  <fix>3d</fix>
</trkpt>
<trkpt lat="40.072842" lon="-105.230575">
  <ele>1586.09</ele>
  <time>2026-08-28T19:10:27Z</time>
  <course>0.21</course>
  <speed>0.0</speed>
  <fix>3d</fix>
</trkpt>
<trkpt lat="40.072842" lon="-105.230575">
  <ele>1586.09</ele>
  <time>2026-08-28T19:10:27Z</time>
  <course>13.35</course>
  <speed>0.0</speed>
  <fix>3d</fix>
</trkpt>
<trkpt lat="40.072842" lon="-105.230575">
  <ele>1586.09</ele>
  <time>2026-08-28T19:10:27Z</time>
  <course>0.21</course>
  <speed>0.0</speed>
  <fix>3d</fix>
</trkpt>
<trkpt lat="40.072842" lon="-105.230575">
  <ele>1586.09</ele>
  <time>2026-08-28T19:10:27Z</time>
  <course>205.53</course>
  <speed>0.0</speed>
  <fix>3d</fix>
</trkpt>
<trkpt lat="40.072842" lon="-105.230575">
  <ele>1586.09</ele>
  <time>2026-08-28T19:10:27Z</time>
  <course>0.21</course>
  <speed>0.0</speed>
  <fix>3d</fix>
</trkpt>
<trkpt lat="40.072842" lon="-105.230575">
  <ele>1586.09</ele>
  <time>2026-08-28T19:10:27Z</time>
  <course>206.26</course>
  <speed>0.0</speed>
  <fix>3d</fix>
</trkpt>
<trkpt lat="40.072842" lon="-105.230575">
  <ele>1586.09</ele>
  <time>2026-08-28T19:10:27Z</time>
  <course>0.21</course>
  <speed>0.0</speed>
  <fix>3d</fix>
</trkpt>
<trkpt lat="40.072842" lon="-105.230575">
  <ele>1586.09</ele>
  <time>2026-08-28T19:10:27Z</time>
  <course>278.56</course>
  <speed>0.0</speed>
  <fix>3d</fix>
</trkpt>
<trkpt lat="40.072842" lon="-105.230575">
  <ele>1586.09</ele>
  <time>2026-08-28T19:10:27Z</time>
  <course>0.21</course>
  <speed>0.0</speed>
  <fix>3d</fix>
</trkpt>
<trkpt lat="40.072842" lon="-105.230575">
  <ele>1586.09</ele>
  <time>2026-08-28T19:10:27Z</time>
  <course>261.24</course>
  <speed>0.0</speed>
  <fix>3d</fix>
</trkpt>
<trkpt lat="40.072842" lon="-105.230575">
  <ele>1586.09</ele>
  <time>2026-08-28T19:10:27Z</time>
  <course>0.21</course>
  <speed>0.0</speed>
  <fix>3d</fix>
</trkpt>
<trkpt lat="40.072842" lon="-105.230575">
  <ele>1586.09</ele>
  <time>2026-08-28T19:10:27Z</time>
  <course>206.26</course>
  <speed>0.0</speed>
  <fix>3d</fix>
</trkpt>
<trkpt lat="40.072842" lon="-105.230575">
  <ele>1586.09</ele>
  <time>2026-08-28T19:10:27Z</time>
  <course>0.21</course>
  <speed>0.0</speed>
  <fix>3d</fix>
</trkpt>
<trkpt lat="40.072842" lon="-105.230575">
  <ele>1586.09</ele>
  <time>2026-08-28T19:10:27Z</time>
  <course>355.04</course>
  <speed>0.0</speed>
  <fix>3d</fix>
</trkpt>
<trkpt lat="40.072842" lon="-105.230575">
  <ele>1586.09</ele>
  <time>2026-08-28T19:10:27Z</time>
  <course>0.21</course>
  <speed>0.0</speed>
  <fix>3d</fix>
</trkpt>
<trkpt lat="40.072842" lon="-105.230575">
  <ele>1586.09</ele>
  <time>2026-08-28T19:10:27Z</time>
  <course>294.96</course>
  <speed>0.0</speed>
  <fix>3d</fix>
</trkpt>
<trkpt lat="40.072842" lon="-105.230575">
  <ele>1586.09</ele>
  <time>2026-08-28T19:10:27Z</time>
  <course>0.21</course>
  <speed>0.0</speed>
  <fix>3d</fix>
</trkpt>
<trkpt lat="40.072842" lon="-105.230575">
  <ele>1586.09</ele>
  <time>2026-08-28T19:10:27Z</time>
  <course>270.12</course>
  <speed>0.0</speed>
  <fix>3d</fix>
</trkpt>
<trkpt lat="40.072842" lon="-105.230575">
  <ele>1586.09</ele>
  <time>2026-08-28T19:10:27Z</time>
  <course>0.21</course>
  <speed>0.0</speed>
  <fix>3d</fix>
</trkpt>
<trkpt lat="40.072842" lon="-105.230575">
  <ele>1586.09</ele>
  <time>2026-08-28T19:10:27Z</time>
  <course>219.23</course>
  <speed>0.0</speed>
  <fix>3d</fix>
</trkpt>
<trkpt lat="40.072842" lon="-105.230575">
  <ele>1586.09</ele>
  <time>2026-08-28T19:10:27Z</time>
  <course>0.21</course>
  <speed>0.0</speed>
  <fix>3d</fix>
</trkpt>
<trkpt lat="40.072842" lon="-105.230575">
  <ele>1586.09</ele>
  <time>2026-08-28T19:10:28Z</time>
  <course>38.1</course>
  <speed>0.0</speed>
  <fix>3d</fix>
</trkpt>
<trkpt lat="40.072842" lon="-105.230575">
  <ele>1586.09</ele>
  <time>2026-08-28T19:10:28Z</time>
  <course>0.21</course>
  <speed>0.0</speed>
  <fix>3d</fix>
</trkpt>
<trkpt lat="40.072842" lon="-105.230575">
  <ele>1586.09</ele>
  <time>2026-08-28T19:10:28Z</time>
  <course>283.78</course>
  <speed>0.0</speed>
  <fix>3d</fix>
</trkpt>
<trkpt lat="40.072842" lon="-105.230575">
  <ele>1586.09</ele>
  <time>2026-08-28T19:10:28Z</time>
  <course>0.21</course>
  <speed>0.0</speed>
  <fix>3d</fix>
</trkpt>
<trkpt lat="40.072842" lon="-105.230575">
  <ele>1586.09</ele>
  <time>2026-08-28T19:10:28Z</time>
  <course>260.23</course>
  <speed>0.0</speed>
  <fix>3d</fix>
</trkpt>
<trkpt lat="40.072842" lon="-105.230575">
  <ele>1586.09</ele>
  <time>2026-08-28T19:10:28Z</time>
  <course>0.21</course>
  <speed>0.0</speed>
  <fix>3d</fix>
</trkpt>
<trkpt lat="40.072842" lon="-105.230575">
  <ele>1586.09</ele>
  <time>2026-08-28T19:10:28Z</time>
  <course>269.82</course>
  <speed>0.0</speed>
  <fix>3d</fix>
</trkpt>
<trkpt lat="40.072842" lon="-105.230575">
  <ele>1586.09</ele>
  <time>2026-08-28T19:10:28Z</time>
  <course>0.21</course>
  <speed>0.0</speed>
  <fix>3d</fix>
</trkpt>
<trkpt lat="40.072842" lon="-105.230575">
  <ele>1586.09</ele>
  <time>2026-08-28T19:10:28Z</time>
  <course>270.7</course>
  <speed>0.0</speed>
  <fix>3d</fix>
</trkpt>
<trkpt lat="40.072842" lon="-105.230575">
  <ele>1586.09</ele>
  <time>2026-08-28T19:10:28Z</time>
  <course>0.21</course>
  <speed>0.0</speed>
  <fix>3d</fix>
</trkpt>
<trkpt lat="40.072842" lon="-105.230575">
  <ele>1586.09</ele>
  <time>2026-08-28T19:10:28Z</time>
  <course>279.62</course>
  <speed>0.0</speed>
  <fix>3d</fix>
</trkpt>
<trkpt lat="40.072842" lon="-105.230575">
  <ele>1586.09</ele>
  <time>2026-08-28T19:10:28Z</time>
  <course>0.21</course>
  <speed>0.0</speed>
  <fix>3d</fix>
</trkpt>
<trkpt lat="40.072842" lon="-105.230575">
  <ele>1586.09</ele>
  <time>2026-08-28T19:10:28Z</time>
  <course>288.53</course>
  <speed>0.0</speed>
  <fix>3d</fix>
</trkpt>
<trkpt lat="40.072842" lon="-105.230575">
  <ele>1586.09</ele>
  <time>2026-08-28T19:10:28Z</time>
  <course>0.21</course>
  <speed>0.0</speed>
  <fix>3d</fix>
</trkpt>
<trkpt lat="40.072842" lon="-105.230575">
  <ele>1586.09</ele>
  <time>2026-08-28T19:10:28Z</time>
  <course>139.29</course>
  <speed>0.0</speed>
  <fix>3d</fix>
</trkpt>
<trkpt lat="40.072842" lon="-105.230575">
  <ele>1586.09</ele>
  <time>2026-08-28T19:10:28Z</time>
  <course>0.21</course>
  <speed>0.0</speed>
  <fix>3d</fix>
</trkpt>
<trkpt lat="40.072842" lon="-105.230575">
  <ele>1586.09</ele>
  <time>2026-08-28T19:10:28Z</time>
  <course>196.4</course>
  <speed>0.0</speed>
  <fix>3d</fix>
</trkpt>
<trkpt lat="40.072842" lon="-105.230575">
  <ele>1586.09</ele>
  <time>2026-08-28T19:10:28Z</time>
  <course>0.21</course>
  <speed>0.0</speed>
  <fix>3d</fix>
</trkpt>
<trkpt lat="40.072842" lon="-105.230575">
  <ele>1586.09</ele>
  <time>2026-08-28T19:10:28Z</time>
  <course>274.87</course>
  <speed>0.0</speed>
  <fix>3d</fix>
</trkpt>
<trkpt lat="40.072842" lon="-105.230575">
  <ele>1586.09</ele>
  <time>2026-08-28T19:10:28Z</time>
  <course>0.21</course>
  <speed>0.0</speed>
  <fix>3d</fix>
</trkpt>
<trkpt lat="40.072842" lon="-105.230575">
  <ele>1586.09</ele>
  <time>2026-08-28T19:10:28Z</time>
  <course>255.03</course>
  <speed>0.0</speed>
  <fix>3d</fix>
</trkpt>
<trkpt lat="40.072842" lon="-105.230575">
  <ele>1586.09</ele>
  <time>2026-08-28T19:10:28Z</time>
  <course>0.21</course>
  <speed>0.0</speed>
  <fix>3d</fix>
</trkpt>
<trkpt lat="40.072842" lon="-105.230575">
  <ele>1586.09</ele>
  <time>2026-08-28T19:10:28Z</time>
  <course>257.62</course>
  <speed>0.0</speed>
  <fix>3d</fix>
</trkpt>
<trkpt lat="40.072842" lon="-105.230575">
  <ele>1586.09</ele>
  <time>2026-08-28T19:10:28Z</time>
  <course>0.21</course>
  <speed>0.0</speed>
  <fix>3d</fix>
</trkpt>
<trkpt lat="40.072842" lon="-105.230575">
  <ele>1586.09</ele>
  <time>2026-08-28T19:10:28Z</time>
  <course>262.36</course>
  <speed>0.0</speed>
  <fix>3d</fix>
</trkpt>
<trkpt lat="40.072842" lon="-105.230575">
  <ele>1586.09</ele>
  <time>2026-08-28T19:10:28Z</time>
  <course>0.21</course>
  <speed>0.0</speed>
  <fix>3d</fix>
</trkpt>
<trkpt lat="40.072842" lon="-105.230575">
  <ele>1586.09</ele>
  <time>2026-08-28T19:10:28Z</time>
  <course>334.03</course>
  <speed>0.0</speed>
  <fix>3d</fix>
</trkpt>
<trkpt lat="40.072842" lon="-105.230575">
  <ele>1586.09</ele>
  <time>2026-08-28T19:10:28Z</time>
  <course>0.21</course>
  <speed>0.0</speed>
  <fix>3d</fix>
</trkpt>
<trkpt lat="40.072842" lon="-105.230575">
  <ele>1586.09</ele>
  <time>2026-08-28T19:10:28Z</time>
  <course>313.65</course>
  <speed>0.0</speed>
  <fix>3d</fix>
</trkpt>
<trkpt lat="40.072842" lon="-105.230575">
  <ele>1586.09</ele>
  <time>2026-08-28T19:10:28Z</time>
  <course>0.21</course>
  <speed>0.0</speed>
  <fix>3d</fix>
</trkpt>
<trkpt lat="40.072842" lon="-105.230575">
  <ele>1586.09</ele>
  <time>2026-08-28T19:10:28Z</time>
  <course>286.06</course>
  <speed>0.0</speed>
  <fix>3d</fix>
</trkpt>
<trkpt lat="40.072842" lon="-105.230575">
  <ele>1586.09</ele>
  <time>2026-08-28T19:10:28Z</time>
  <course>0.21</course>
  <speed>0.0</speed>
  <fix>3d</fix>
</trkpt>
<trkpt lat="40.072842" lon="-105.230575">
  <ele>1586.09</ele>
  <time>2026-08-28T19:10:28Z</time>
  <course>278.75</course>
  <speed>0.0</speed>
  <fix>3d</fix>
</trkpt>
<trkpt lat="40.072842" lon="-105.230575">
  <ele>1586.09</ele>
  <time>2026-08-28T19:10:28Z</time>
  <course>0.21</course>
  <speed>0.0</speed>
  <fix>3d</fix>
</trkpt>
<trkpt lat="40.072842" lon="-105.230575">
  <ele>1586.09</ele>
  <time>2026-08-28T19:10:28Z</time>
  <course>272.59</course>
  <speed>0.0</speed>
  <fix>3d</fix>
</trkpt>
<trkpt lat="40.072842" lon="-105.230575">
  <ele>1586.09</ele>
  <time>2026-08-28T19:10:28Z</time>
  <course>0.21</course>
  <speed>0.0</speed>
  <fix>3d</fix>
</trkpt>
<trkpt lat="40.072842" lon="-105.230575">
  <ele>1586.09</ele>
  <time>2026-08-28T19:10:28Z</time>
  <course>198.38</course>
  <speed>0.0</speed>
  <fix>3d</fix>
</trkpt>
<trkpt lat="40.072842" lon="-105.230575">
  <ele>1586.09</ele>
  <time>2026-08-28T19:10:28Z</time>
  <course>0.21</course>
  <speed>0.0</speed>
  <fix>3d</fix>
</trkpt>
<trkpt lat="40.072842" lon="-105.230575">
  <ele>1586.09</ele>
  <time>2026-08-28T19:10:28Z</time>
  <course>274.4</course>
  <speed>0.0</speed>
  <fix>3d</fix>
</trkpt>
<trkpt lat="40.072842" lon="-105.230575">
  <ele>1586.09</ele>
  <time>2026-08-28T19:10:28Z</time>
  <course>0.21</course>
  <speed>0.0</speed>
  <fix>3d</fix>
</trkpt>
<trkpt lat="40.072842" lon="-105.230575">
  <ele>1586.09</ele>
  <time>2026-08-28T19:10:28Z</time>
  <course>297.8</course>
  <speed>0.0</speed>
  <fix>3d</fix>
</trkpt>
<trkpt lat="40.072842" lon="-105.230575">
  <ele>1586.09</ele>
  <time>2026-08-28T19:10:28Z</time>
  <course>0.21</course>
  <speed>0.0</speed>
  <fix>3d</fix>
</trkpt>
<trkpt lat="40.072842" lon="-105.230575">
  <ele>1586.09</ele>
  <time>2026-08-28T19:10:28Z</time>
  <course>276.98</course>
  <speed>0.0</speed>
  <fix>3d</fix>
</trkpt>
<trkpt lat="40.072842" lon="-105.230575">
  <ele>1586.09</ele>
  <time>2026-08-28T19:10:28Z</time>
  <course>0.21</course>
  <speed>0.0</speed>
  <fix>3d</fix>
</trkpt>
<trkpt lat="40.072842" lon="-105.230575">
  <ele>1586.09</ele>
  <time>2026-08-28T19:10:28Z</time>
  <course>257.05</course>
  <speed>0.0</speed>
  <fix>3d</fix>
</trkpt>
<trkpt lat="40.072842" lon="-105.230575">
  <ele>1586.09</ele>
  <time>2026-08-28T19:10:28Z</time>
  <course>0.21</course>
  <speed>0.0</speed>
  <fix>3d</fix>
</trkpt>
<trkpt lat="40.072842" lon="-105.230575">
  <ele>1586.09</ele>
  <time>2026-08-28T19:10:28Z</time>
  <course>260.24</course>
  <speed>0.0</speed>
  <fix>3d</fix>
</trkpt>
<trkpt lat="40.072842" lon="-105.230575">
  <ele>1586.09</ele>
  <time>2026-08-28T19:10:28Z</time>
  <course>0.21</course>
  <speed>0.0</speed>
  <fix>3d</fix>
</trkpt>
<trkpt lat="40.072842" lon="-105.230575">
  <ele>1586.09</ele>
  <time>2026-08-28T19:10:28Z</time>
  <course>229.03</course>
  <speed>0.0</speed>
  <fix>3d</fix>
</trkpt>
<trkpt lat="40.072842" lon="-105.230575">
  <ele>1586.09</ele>
  <time>2026-08-28T19:10:28Z</time>
  <course>0.21</course>
  <speed>0.0</speed>
  <fix>3d</fix>
</trkpt>
<trkpt lat="40.072842" lon="-105.230575">
  <ele>1586.09</ele>
  <time>2026-08-28T19:10:28Z</time>
  <course>202.19</course>
  <speed>0.0</speed>
  <fix>3d</fix>
</trkpt>
<trkpt lat="40.072842" lon="-105.230575">
  <ele>1586.09</ele>
  <time>2026-08-28T19:10:28Z</time>
  <course>0.21</course>
  <speed>0.0</speed>
  <fix>3d</fix>
</trkpt>
<trkpt lat="40.072842" lon="-105.230575">
  <ele>1586.09</ele>
  <time>2026-08-28T19:10:28Z</time>
  <course>288.4</course>
  <speed>0.0</speed>
  <fix>3d</fix>
</trkpt>
<trkpt lat="40.072842" lon="-105.230575">
  <ele>1586.09</ele>
  <time>2026-08-28T19:10:28Z</time>
  <course>0.21</course>
  <speed>0.0</speed>
  <fix>3d</fix>
</trkpt>
<trkpt lat="40.072842" lon="-105.230575">
  <ele>1586.09</ele>
  <time>2026-08-28T19:10:28Z</time>
  <course>247.28</course>
  <speed>0.0</speed>
  <fix>3d</fix>
</trkpt>
<trkpt lat="40.072842" lon="-105.230575">
  <ele>1586.09</ele>
  <time>2026-08-28T19:10:28Z</time>
  <course>0.21</course>
  <speed>0.0</speed>
  <fix>3d</fix>
</trkpt>
<trkpt lat="40.072842" lon="-105.230575">
  <ele>1586.09</ele>
  <time>2026-08-28T19:10:28Z</time>
  <course>265.85</course>
  <speed>0.0</speed>
  <fix>3d</fix>
</trkpt>
<trkpt lat="40.072842" lon="-105.230575">
  <ele>1586.09</ele>
  <time>2026-08-28T19:10:28Z</time>
  <course>0.21</course>
  <speed>0.0</speed>
  <fix>3d</fix>
</trkpt>
<trkpt lat="40.072842" lon="-105.230575">
  <ele>1586.09</ele>
  <time>2026-08-28T19:10:28Z</time>
  <course>281.23</course>
  <speed>0.0</speed>
  <fix>3d</fix>
</trkpt>
<trkpt lat="40.072842" lon="-105.230575">
  <ele>1586.09</ele>
  <time>2026-08-28T19:10:28Z</time>
  <course>0.21</course>
  <speed>0.0</speed>
  <fix>3d</fix>
</trkpt>
<trkpt lat="40.072842" lon="-105.230575">
  <ele>1586.09</ele>
  <time>2026-08-28T19:10:28Z</time>
  <course>249.05</course>
  <speed>0.0</speed>
  <fix>3d</fix>
</trkpt>
<trkpt lat="40.072842" lon="-105.230575">
  <ele>1586.09</ele>
  <time>2026-08-28T19:10:28Z</time>
  <course>0.21</course>
  <speed>0.0</speed>
  <fix>3d</fix>
</trkpt>
<trkpt lat="40.072842" lon="-105.230575">
  <ele>1586.09</ele>
  <time>2026-08-28T19:10:28Z</time>
  <course>246.3</course>
  <speed>0.0</speed>
  <fix>3d</fix>
</trkpt>
<trkpt lat="40.072842" lon="-105.230575">
  <ele>1586.09</ele>
  <time>2026-08-28T19:10:28Z</time>
  <course>0.21</course>
  <speed>0.0</speed>
  <fix>3d</fix>
</trkpt>
<trkpt lat="40.072842" lon="-105.230575">
  <ele>1586.09</ele>
  <time>2026-08-28T19:10:28Z</time>
  <course>297.96</course>
  <speed>0.0</speed>
  <fix>3d</fix>
</trkpt>
<trkpt lat="40.072842" lon="-105.230575">
  <ele>1586.09</ele>
  <time>2026-08-28T19:10:28Z</time>
  <course>0.21</course>
  <speed>0.0</speed>
  <fix>3d</fix>
</trkpt>
<trkpt lat="40.072842" lon="-105.230575">
  <ele>1586.09</ele>
  <time>2026-08-28T19:10:28Z</time>
  <course>304.62</course>
  <speed>0.0</speed>
  <fix>3d</fix>
</trkpt>
<trkpt lat="40.072842" lon="-105.230575">
  <ele>1586.09</ele>
  <time>2026-08-28T19:10:28Z</time>
  <course>0.21</course>
  <speed>0.0</speed>
  <fix>3d</fix>
</trkpt>
<trkpt lat="40.072842" lon="-105.230575">
  <ele>1586.09</ele>
  <time>2026-08-28T19:10:28Z</time>
  <course>280.61</course>
  <speed>0.0</speed>
  <fix>3d</fix>
</trkpt>
<trkpt lat="40.072842" lon="-105.230575">
  <ele>1586.09</ele>
  <time>2026-08-28T19:10:28Z</time>
  <course>0.21</course>
  <speed>0.0</speed>
  <fix>3d</fix>
</trkpt>
<trkpt lat="40.072842" lon="-105.230575">
  <ele>1586.09</ele>
  <time>2026-08-28T19:10:28Z</time>
  <course>276.05</course>
  <speed>0.0</speed>
  <fix>3d</fix>
</trkpt>
<trkpt lat="40.072842" lon="-105.230575">
  <ele>1586.09</ele>
  <time>2026-08-28T19:10:28Z</time>
  <course>0.21</course>
  <speed>0.0</speed>
  <fix>3d</fix>
</trkpt>
<trkpt lat="40.072842" lon="-105.230575">
  <ele>1586.09</ele>
  <time>2026-08-28T19:10:28Z</time>
  <course>263.25</course>
  <speed>0.0</speed>
  <fix>3d</fix>
</trkpt>
<trkpt lat="40.072842" lon="-105.230575">
  <ele>1586.09</ele>
  <time>2026-08-28T19:10:28Z</time>
  <course>0.21</course>
  <speed>0.0</speed>
  <fix>3d</fix>
</trkpt>
<trkpt lat="40.072842" lon="-105.230575">
  <ele>1586.09</ele>
  <time>2026-08-28T19:10:28Z</time>
  <course>261.47</course>
  <speed>0.0</speed>
  <fix>3d</fix>
</trkpt>
<trkpt lat="40.072842" lon="-105.230575">
  <ele>1586.09</ele>
  <time>2026-08-28T19:10:28Z</time>
  <course>0.21</course>
  <speed>0.0</speed>
  <fix>3d</fix>
</trkpt>
<trkpt lat="40.072842" lon="-105.230575">
  <ele>1586.09</ele>
  <time>2026-08-28T19:10:28Z</time>
  <course>350.05</course>
  <speed>0.0</speed>
  <fix>3d</fix>
</trkpt>
<trkpt lat="40.072842" lon="-105.230575">
  <ele>1586.09</ele>
  <time>2026-08-28T19:10:28Z</time>
  <course>0.21</course>
  <speed>0.0</speed>
  <fix>3d</fix>
</trkpt>
<trkpt lat="40.072842" lon="-105.230575">
  <ele>1586.09</ele>
  <time>2026-08-28T19:10:28Z</time>
  <course>286.01</course>
  <speed>0.0</speed>
  <fix>3d</fix>
</trkpt>
<trkpt lat="40.072842" lon="-105.230575">
  <ele>1586.09</ele>
  <time>2026-08-28T19:10:28Z</time>
  <course>0.21</course>
  <speed>0.0</speed>
  <fix>3d</fix>
</trkpt>
<trkpt lat="40.072842" lon="-105.230575">
  <ele>1586.09</ele>
  <time>2026-08-28T19:10:28Z</time>
  <course>270.68</course>
  <speed>0.0</speed>
  <fix>3d</fix>
</trkpt>
<trkpt lat="40.072842" lon="-105.230575">
  <ele>1586.09</ele>
  <time>2026-08-28T19:10:28Z</time>
  <course>0.21</course>
  <speed>0.0</speed>
  <fix>3d</fix>
</trkpt>
<trkpt lat="40.072842" lon="-105.230575">
  <ele>1586.09</ele>
  <time>2026-08-28T19:10:28Z</time>
  <course>280.11</course>
  <speed>0.0</speed>
  <fix>3d</fix>
</trkpt>
<trkpt lat="40.072842" lon="-105.230575">
  <ele>1586.09</ele>
  <time>2026-08-28T19:10:28Z</time>
  <course>0.21</course>
  <speed>0.0</speed>
  <fix>3d</fix>
</trkpt>
<trkpt lat="40.072842" lon="-105.230575">
  <ele>1586.09</ele>
  <time>2026-08-28T19:10:28Z</time>
  <course>290.7</course>
  <speed>0.0</speed>
  <fix>3d</fix>
</trkpt>
<trkpt lat="40.072842" lon="-105.230575">
  <ele>1586.09</ele>
  <time>2026-08-28T19:10:28Z</time>
  <course>0.21</course>
  <speed>0.0</speed>
  <fix>3d</fix>
</trkpt>
<trkpt lat="40.072842" lon="-105.230575">
  <ele>1586.09</ele>
  <time>2026-08-28T19:10:28Z</time>
  <course>264.1</course>
  <speed>0.0</speed>
  <fix>3d</fix>
</trkpt>
<trkpt lat="40.072842" lon="-105.230575">
  <ele>1586.09</ele>
  <time>2026-08-28T19:10:28Z</time>
  <course>0.21</course>
  <speed>0.0</speed>
  <fix>3d</fix>
</trkpt>
<trkpt lat="40.072842" lon="-105.230575">
  <ele>1586.09</ele>
  <time>2026-08-28T19:10:28Z</time>
  <course>261.86</course>
  <speed>0.0</speed>
  <fix>3d</fix>
</trkpt>
<trkpt lat="40.072842" lon="-105.230575">
  <ele>1586.09</ele>
  <time>2026-08-28T19:10:28Z</time>
  <course>0.21</course>
  <speed>0.0</speed>
  <fix>3d</fix>
</trkpt>
<trkpt lat="40.072842" lon="-105.230575">
  <ele>1586.09</ele>
  <time>2026-08-28T19:10:28Z</time>
  <course>256.85</course>
  <speed>0.0</speed>
  <fix>3d</fix>
</trkpt>
<trkpt lat="40.072842" lon="-105.230575">
  <ele>1586.09</ele>
  <time>2026-08-28T19:10:28Z</time>
  <course>0.21</course>
  <speed>0.0</speed>
  <fix>3d</fix>
</trkpt>
<trkpt lat="40.072842" lon="-105.230575">
  <ele>1586.09</ele>
  <time>2026-08-28T19:10:28Z</time>
  <course>258.83</course>
  <speed>0.0</speed>
  <fix>3d</fix>
</trkpt>
<trkpt lat="40.072842" lon="-105.230575">
  <ele>1586.09</ele>
  <time>2026-08-28T19:10:28Z</time>
  <course>0.21</course>
  <speed>0.0</speed>
  <fix>3d</fix>
</trkpt>
<trkpt lat="40.072842" lon="-105.230575">
  <ele>1586.09</ele>
  <time>2026-08-28T19:10:28Z</time>
  <course>308.9</course>
  <speed>0.0</speed>
  <fix>3d</fix>
</trkpt>
<trkpt lat="40.072842" lon="-105.230575">
  <ele>1586.09</ele>
  <time>2026-08-28T19:10:28Z</time>
  <course>0.21</course>
  <speed>0.0</speed>
  <fix>3d</fix>
</trkpt>
<trkpt lat="40.072842" lon="-105.230575">
  <ele>1586.09</ele>
  <time>2026-08-28T19:10:28Z</time>
  <course>297.79</course>
  <speed>0.0</speed>
  <fix>3d</fix>
</trkpt>
<trkpt lat="40.072842" lon="-105.230575">
  <ele>1586.09</ele>
  <time>2026-08-28T19:10:28Z</time>
  <course>0.21</course>
  <speed>0.0</speed>
  <fix>3d</fix>
</trkpt>
<trkpt lat="40.072842" lon="-105.230575">
  <ele>1586.09</ele>
  <time>2026-08-28T19:10:28Z</time>
  <course>243.68</course>
  <speed>0.0</speed>
  <fix>3d</fix>
</trkpt>
<trkpt lat="40.072842" lon="-105.230575">
  <ele>1586.09</ele>
  <time>2026-08-28T19:10:28Z</time>
  <course>0.21</course>
  <speed>0.0</speed>
  <fix>3d</fix>
</trkpt>
<trkpt lat="40.072842" lon="-105.230575">
  <ele>1586.09</ele>
  <time>2026-08-28T19:10:28Z</time>
  <course>274.09</course>
  <speed>0.0</speed>
  <fix>3d</fix>
</trkpt>
<trkpt lat="40.072842" lon="-105.230575">
  <ele>1586.09</ele>
  <time>2026-08-28T19:10:28Z</time>
  <course>0.21</course>
  <speed>0.0</speed>
  <fix>3d</fix>
</trkpt>
<trkpt lat="40.072842" lon="-105.230575">
  <ele>1586.09</ele>
  <time>2026-08-28T19:10:28Z</time>
  <course>306.1</course>
  <speed>0.0</speed>
  <fix>3d</fix>
</trkpt>
<trkpt lat="40.072842" lon="-105.230575">
  <ele>1586.09</ele>
  <time>2026-08-28T19:10:28Z</time>
  <course>0.21</course>
  <speed>0.0</speed>
  <fix>3d</fix>
</trkpt>
<trkpt lat="40.072842" lon="-105.230575">
  <ele>1586.09</ele>
  <time>2026-08-28T19:10:28Z</time>
  <course>311.66</course>
  <speed>0.0</speed>
  <fix>3d</fix>
</trkpt>
<trkpt lat="40.072842" lon="-105.230575">
  <ele>1586.09</ele>
  <time>2026-08-28T19:10:28Z</time>
  <course>0.21</course>
  <speed>0.0</speed>
  <fix>3d</fix>
</trkpt>
<trkpt lat="40.072842" lon="-105.230575">
  <ele>1586.09</ele>
  <time>2026-08-28T19:10:28Z</time>
  <course>317.06</course>
  <speed>0.0</speed>
  <fix>3d</fix>
</trkpt>
<trkpt lat="40.072842" lon="-105.230575">
  <ele>1586.09</ele>
  <time>2026-08-28T19:10:28Z</time>
  <course>0.21</course>
  <speed>0.0</speed>
  <fix>3d</fix>
</trkpt>
<trkpt lat="40.072842" lon="-105.230575">
  <ele>1586.09</ele>
  <time>2026-08-28T19:10:28Z</time>
  <course>311.78</course>
  <speed>0.0</speed>
  <fix>3d</fix>
</trkpt>
<trkpt lat="40.072842" lon="-105.230575">
  <ele>1586.09</ele>
  <time>2026-08-28T19:10:28Z</time>
  <course>0.21</course>
  <speed>0.0</speed>
  <fix>3d</fix>
</trkpt>
<trkpt lat="40.072842" lon="-105.230575">
  <ele>1586.09</ele>
  <time>2026-08-28T19:10:28Z</time>
  <course>295.46</course>
  <speed>0.0</speed>
  <fix>3d</fix>
</trkpt>
<trkpt lat="40.072842" lon="-105.230575">
  <ele>1586.09</ele>
  <time>2026-08-28T19:10:28Z</time>
  <course>0.21</course>
  <speed>0.0</speed>
  <fix>3d</fix>
</trkpt>
<trkpt lat="40.072842" lon="-105.230575">
  <ele>1586.09</ele>
  <time>2026-08-28T19:10:28Z</time>
  <course>303.24</course>
  <speed>0.0</speed>
  <fix>3d</fix>
</trkpt>
<trkpt lat="40.072842" lon="-105.230575">
  <ele>1586.09</ele>
  <time>2026-08-28T19:10:28Z</time>
  <course>0.21</course>
  <speed>0.0</speed>
  <fix>3d</fix>
</trkpt>
<trkpt lat="40.072842" lon="-105.230575">
  <ele>1586.09</ele>
  <time>2026-08-28T19:10:28Z</time>
  <course>302.66</course>
  <speed>0.0</speed>
  <fix>3d</fix>
</trkpt>
<trkpt lat="40.072842" lon="-105.230575">
  <ele>1586.09</ele>
  <time>2026-08-28T19:10:28Z</time>
  <course>0.21</course>
  <speed>0.0</speed>
  <fix>3d</fix>
</trkpt>
<trkpt lat="40.072842" lon="-105.230575">
  <ele>1586.09</ele>
  <time>2026-08-28T19:10:28Z</time>
  <course>317.56</course>
  <speed>0.0</speed>
  <fix>3d</fix>
</trkpt>
<trkpt lat="40.072842" lon="-105.230575">
  <ele>1586.09</ele>
  <time>2026-08-28T19:10:28Z</time>
  <course>0.21</course>
  <speed>0.0</speed>
  <fix>3d</fix>
</trkpt>
<trkpt lat="40.072842" lon="-105.230575">
  <ele>1586.09</ele>
  <time>2026-08-28T19:10:28Z</time>
  <course>297.24</course>
  <speed>0.0</speed>
  <fix>3d</fix>
</trkpt>
<trkpt lat="40.072842" lon="-105.230575">
  <ele>1586.09</ele>
  <time>2026-08-28T19:10:28Z</time>
  <course>0.21</course>
  <speed>0.0</speed>
  <fix>3d</fix>
</trkpt>
<trkpt lat="40.072842" lon="-105.230575">
  <ele>1586.09</ele>
  <time>2026-08-28T19:10:28Z</time>
  <course>285.36</course>
  <speed>0.0</speed>
  <fix>3d</fix>
</trkpt>
<trkpt lat="40.072842" lon="-105.230575">
  <ele>1586.09</ele>
  <time>2026-08-28T19:10:28Z</time>
  <course>0.21</course>
  <speed>0.0</speed>
  <fix>3d</fix>
</trkpt>
<trkpt lat="40.072842" lon="-105.230575">
  <ele>1586.09</ele>
  <time>2026-08-28T19:10:28Z</time>
  <course>277.75</course>
  <speed>0.0</speed>
  <fix>3d</fix>
</trkpt>
<trkpt lat="40.072842" lon="-105.230575">
  <ele>1586.09</ele>
  <time>2026-08-28T19:10:28Z</time>
  <course>0.21</course>
  <speed>0.0</speed>
  <fix>3d</fix>
</trkpt>
<trkpt lat="40.072842" lon="-105.230575">
  <ele>1586.09</ele>
  <time>2026-08-28T19:10:28Z</time>
  <course>275.02</course>
  <speed>0.0</speed>
  <fix>3d</fix>
</trkpt>
<trkpt lat="40.072842" lon="-105.230575">
  <ele>1586.09</ele>
  <time>2026-08-28T19:10:28Z</time>
  <course>0.21</course>
  <speed>0.0</speed>
  <fix>3d</fix>
</trkpt>
<trkpt lat="40.072842" lon="-105.230575">
  <ele>1586.09</ele>
  <time>2026-08-28T19:10:28Z</time>
  <course>282.9</course>
  <speed>0.0</speed>
  <fix>3d</fix>
</trkpt>
<trkpt lat="40.072842" lon="-105.230575">
  <ele>1586.09</ele>
  <time>2026-08-28T19:10:28Z</time>
  <course>0.21</course>
  <speed>0.0</speed>
  <fix>3d</fix>
</trkpt>
<trkpt lat="40.072842" lon="-105.230575">
  <ele>1586.09</ele>
  <time>2026-08-28T19:10:28Z</time>
  <course>269.35</course>
  <speed>0.0</speed>
  <fix>3d</fix>
</trkpt>
<trkpt lat="40.072842" lon="-105.230575">
  <ele>1586.09</ele>
  <time>2026-08-28T19:10:28Z</time>
  <course>0.21</course>
  <speed>0.0</speed>
  <fix>3d</fix>
</trkpt>
<trkpt lat="40.072842" lon="-105.230575">
  <ele>1586.09</ele>
  <time>2026-08-28T19:10:28Z</time>
  <course>286.46</course>
  <speed>0.0</speed>
  <fix>3d</fix>
</trkpt>
<trkpt lat="40.072842" lon="-105.230575">
  <ele>1586.09</ele>
  <time>2026-08-28T19:10:28Z</time>
  <course>0.21</course>
  <speed>0.0</speed>
  <fix>3d</fix>
</trkpt>
<trkpt lat="40.072842" lon="-105.230575">
  <ele>1586.09</ele>
  <time>2026-08-28T19:10:28Z</time>
  <course>283.36</course>
  <speed>0.0</speed>
  <fix>3d</fix>
</trkpt>
<trkpt lat="40.072842" lon="-105.230575">
  <ele>1586.09</ele>
  <time>2026-08-28T19:10:28Z</time>
  <course>0.21</course>
  <speed>0.0</speed>
  <fix>3d</fix>
</trkpt>
<trkpt lat="40.072842" lon="-105.230575">
  <ele>1586.09</ele>
  <time>2026-08-28T19:10:28Z</time>
  <course>279.77</course>
  <speed>0.0</speed>
  <fix>3d</fix>
</trkpt>
<trkpt lat="40.072842" lon="-105.230575">
  <ele>1586.09</ele>
  <time>2026-08-28T19:10:28Z</time>
  <course>0.21</course>
  <speed>0.0</speed>
  <fix>3d</fix>
</trkpt>
<trkpt lat="40.072842" lon="-105.230575">
  <ele>1586.09</ele>
  <time>2026-08-28T19:10:28Z</time>
  <course>306.36</course>
  <speed>0.0</speed>
  <fix>3d</fix>
</trkpt>
<trkpt lat="40.072842" lon="-105.230575">
  <ele>1586.09</ele>
  <time>2026-08-28T19:10:28Z</time>
  <course>0.21</course>
  <speed>0.0</speed>
  <fix>3d</fix>
</trkpt>
<trkpt lat="40.072842" lon="-105.230575">
  <ele>1586.09</ele>
  <time>2026-08-28T19:10:28Z</time>
  <course>317.43</course>
  <speed>0.0</speed>
  <fix>3d</fix>
</trkpt>
<trkpt lat="40.072842" lon="-105.230575">
  <ele>1586.09</ele>
  <time>2026-08-28T19:10:28Z</time>
  <course>0.21</course>
  <speed>0.0</speed>
  <fix>3d</fix>
</trkpt>
<trkpt lat="40.072842" lon="-105.230575">
  <ele>1586.09</ele>
  <time>2026-08-28T19:10:28Z</time>
  <course>297.3</course>
  <speed>0.0</speed>
  <fix>3d</fix>
</trkpt>
<trkpt lat="40.072842" lon="-105.230575">
  <ele>1586.09</ele>
  <time>2026-08-28T19:10:28Z</time>
  <course>0.21</course>
  <speed>0.0</speed>
  <fix>3d</fix>
</trkpt>
<trkpt lat="40.072842" lon="-105.230575">
  <ele>1586.09</ele>
  <time>2026-08-28T19:10:28Z</time>
  <course>276.45</course>
  <speed>0.0</speed>
  <fix>3d</fix>
</trkpt>
<trkpt lat="40.072842" lon="-105.230575">
  <ele>1586.09</ele>
  <time>2026-08-28T19:10:28Z</time>
  <course>0.21</course>
  <speed>0.0</speed>
  <fix>3d</fix>
</trkpt>
<trkpt lat="40.072842" lon="-105.230575">
  <ele>1586.09</ele>
  <time>2026-08-28T19:10:28Z</time>
  <course>286.42</course>
  <speed>0.0</speed>
  <fix>3d</fix>
</trkpt>
<trkpt lat="40.072842" lon="-105.230575">
  <ele>1586.09</ele>
  <time>2026-08-28T19:10:28Z</time>
  <course>0.21</course>
  <speed>0.0</speed>
  <fix>3d</fix>
</trkpt>
<trkpt lat="40.072842" lon="-105.230575">
  <ele>1586.09</ele>
  <time>2026-08-28T19:10:28Z</time>
  <course>276.85</course>
  <speed>0.0</speed>
  <fix>3d</fix>
</trkpt>
<trkpt lat="40.072842" lon="-105.230575">
  <ele>1586.09</ele>
  <time>2026-08-28T19:10:28Z</time>
  <course>0.21</course>
  <speed>0.0</speed>
  <fix>3d</fix>
</trkpt>
<trkpt lat="40.072842" lon="-105.230575">
  <ele>1586.09</ele>
  <time>2026-08-28T19:10:28Z</time>
  <course>268.02</course>
  <speed>0.0</speed>
  <fix>3d</fix>
</trkpt>
<trkpt lat="40.072842" lon="-105.230575">
  <ele>1586.09</ele>
  <time>2026-08-28T19:10:28Z</time>
  <course>0.21</course>
  <speed>0.0</speed>
  <fix>3d</fix>
</trkpt>
<trkpt lat="40.072842" lon="-105.230575">
  <ele>1586.09</ele>
  <time>2026-08-28T19:10:28Z</time>
  <course>262.81</course>
  <speed>0.0</speed>
  <fix>3d</fix>
</trkpt>
<trkpt lat="40.072842" lon="-105.230575">
  <ele>1586.09</ele>
  <time>2026-08-28T19:10:28Z</time>
  <course>0.21</course>
  <speed>0.0</speed>
  <fix>3d</fix>
</trkpt>
<trkpt lat="40.072842" lon="-105.230575">
  <ele>1586.09</ele>
  <time>2026-08-28T19:10:28Z</time>
  <course>332.6</course>
  <speed>0.0</speed>
  <fix>3d</fix>
</trkpt>
<trkpt lat="40.072842" lon="-105.230575">
  <ele>1586.09</ele>
  <time>2026-08-28T19:10:28Z</time>
  <course>0.21</course>
  <speed>0.0</speed>
  <fix>3d</fix>
</trkpt>
<trkpt lat="40.072842" lon="-105.230575">
  <ele>1586.09</ele>
  <time>2026-08-28T19:10:28Z</time>
  <course>310.32</course>
  <speed>0.0</speed>
  <fix>3d</fix>
</trkpt>
<trkpt lat="40.072842" lon="-105.230575">
  <ele>1586.09</ele>
  <time>2026-08-28T19:10:28Z</time>
  <course>0.21</course>
  <speed>0.0</speed>
  <fix>3d</fix>
</trkpt>
<trkpt lat="40.072842" lon="-105.230575">
  <ele>1586.09</ele>
  <time>2026-08-28T19:10:28Z</time>
  <course>275.39</course>
  <speed>0.0</speed>
  <fix>3d</fix>
</trkpt>
<trkpt lat="40.0728419" lon="-105.2305749">
  <ele>1586.14</ele>
  <time>2026-08-28T19:10:28Z</time>
  <course>6.88</course>
  <speed>0.01414213562373095</speed>
  <fix>3d</fix>
</trkpt>
<trkpt lat="40.072842" lon="-105.230575">
  <ele>1586.09</ele>
  <time>2026-08-28T19:10:28Z</time>
  <course>232.55</course>
  <speed>0.0</speed>
  <fix>3d</fix>
</trkpt>
<trkpt lat="40.0728419" lon="-105.2305749">
  <ele>1586.14</ele>
  <time>2026-08-28T19:10:28Z</time>
  <course>6.92</course>
  <speed>0.01414213562373095</speed>
  <fix>3d</fix>
</trkpt>
<trkpt lat="40.072842" lon="-105.230575">
  <ele>1586.09</ele>
  <time>2026-08-28T19:10:28Z</time>
  <course>276.18</course>
  <speed>0.0</speed>
  <fix>3d</fix>
</trkpt>
<trkpt lat="40.0728419" lon="-105.2305749">
  <ele>1586.13</ele>
  <time>2026-08-28T19:10:28Z</time>
  <course>6.97</course>
  <speed>0.01414213562373095</speed>
  <fix>3d</fix>
</trkpt>
<trkpt lat="40.072842" lon="-105.230575">
  <ele>1586.09</ele>
  <time>2026-08-28T19:10:28Z</time>
  <course>278.8</course>
  <speed>0.0</speed>
  <fix>3d</fix>
</trkpt>
<trkpt lat="40.0728419" lon="-105.2305749">
  <ele>1586.13</ele>
  <time>2026-08-28T19:10:28Z</time>
  <course>7.01</course>
  <speed>0.01414213562373095</speed>
  <fix>3d</fix>
</trkpt>
<trkpt lat="40.072842" lon="-105.230575">
  <ele>1586.09</ele>
  <time>2026-08-28T19:10:28Z</time>
  <course>266.75</course>
  <speed>0.0</speed>
  <fix>3d</fix>
</trkpt>
<trkpt lat="40.0728419" lon="-105.2305749">
  <ele>1586.13</ele>
  <time>2026-08-28T19:10:28Z</time>
  <course>7.05</course>
  <speed>0.01414213562373095</speed>
  <fix>3d</fix>
</trkpt>
<trkpt lat="40.072842" lon="-105.230575">
  <ele>1586.09</ele>
  <time>2026-08-28T19:10:28Z</time>
  <course>265.93</course>
  <speed>0.0</speed>
  <fix>3d</fix>
</trkpt>
<trkpt lat="39.654938" lon="-104.1331666">
  <ele>1569.54</ele>
  <time>2026-08-28T19:10:28Z</time>
  <course>208.61</course>
  <speed>0.0</speed>
  <fix>3d</fix>
</trkpt>
<trkpt lat="40.072842" lon="-105.230575">
  <ele>1586.09</ele>
  <time>2026-08-28T19:10:28Z</time>
  <course>2.03</course>
  <speed>0.0</speed>
  <fix>3d</fix>
</trkpt>
<trkpt lat="40.072842" lon="-105.230575">
  <ele>1586.09</ele>
  <time>2026-08-28T19:10:28Z</time>
  <course>205.21</course>
  <speed>0.0</speed>
  <fix>3d</fix>
</trkpt>
<trkpt lat="40.072842" lon="-105.230575">
  <ele>1586.09</ele>
  <time>2026-08-28T19:10:28Z</time>
  <course>2.4</course>
  <speed>0.0</speed>
  <fix>3d</fix>
</trkpt>
<trkpt lat="40.072842" lon="-105.230575">
  <ele>1586.09</ele>
  <time>2026-08-28T19:10:28Z</time>
  <course>201.23</course>
  <speed>0.0</speed>
  <fix>3d</fix>
</trkpt>
<trkpt lat="40.072842" lon="-105.230575">
  <ele>1586.09</ele>
  <time>2026-08-28T19:10:28Z</time>
  <course>3.13</course>
  <speed>0.0</speed>
  <fix>3d</fix>
</trkpt>
<trkpt lat="40.072842" lon="-105.230575">
  <ele>1586.09</ele>
  <time>2026-08-28T19:10:28Z</time>
  <course>200.88</course>
  <speed>0.0</speed>
  <fix>3d</fix>
</trkpt>
<trkpt lat="40.072842" lon="-105.230575">
  <ele>1586.09</ele>
  <time>2026-08-28T19:10:28Z</time>
  <course>3.82</course>
  <speed>0.0</speed>
  <fix>3d</fix>
</trkpt>
<trkpt lat="40.072842" lon="-105.230575">
  <ele>1586.09</ele>
  <time>2026-08-28T19:10:28Z</time>
  <course>201.44</course>
  <speed>0.0</speed>
  <fix>3d</fix>
</trkpt>
<trkpt lat="40.072842" lon="-105.230575">
  <ele>1586.09</ele>
  <time>2026-08-28T19:10:28Z</time>
  <course>4.45</course>
  <speed>0.0</speed>
  <fix>3d</fix>
</trkpt>
<trkpt lat="40.072842" lon="-105.230575">
  <ele>1586.09</ele>
  <time>2026-08-28T19:10:28Z</time>
  <course>201.42</course>
  <speed>0.0</speed>
  <fix>3d</fix>
</trkpt>
<trkpt lat="40.072842" lon="-105.230575">
  <ele>1586.09</ele>
  <time>2026-08-28T19:10:28Z</time>
  <course>5.03</course>
  <speed>0.0</speed>
  <fix>3d</fix>
</trkpt>
<trkpt lat="40.072842" lon="-105.230575">
  <ele>1586.09</ele>
  <time>2026-08-28T19:10:28Z</time>
  <course>201.35</course>
  <speed>0.0</speed>
  <fix>3d</fix>
</trkpt>
<trkpt lat="40.072842" lon="-105.230575">
  <ele>1586.09</ele>
  <time>2026-08-28T19:10:28Z</time>
  <course>5.6</course>
  <speed>0.0</speed>
  <fix>3d</fix>
</trkpt>
<trkpt lat="40.072842" lon="-105.230575">
  <ele>1586.09</ele>
  <time>2026-08-28T19:10:28Z</time>
  <course>201.36</course>
  <speed>0.0</speed>
  <fix>3d</fix>
</trkpt>
<trkpt lat="40.072842" lon="-105.230575">
  <ele>1586.09</ele>
  <time>2026-08-28T19:10:28Z</time>
  <course>6.13</course>
  <speed>0.0</speed>
  <fix>3d</fix>
</trkpt>
<trkpt lat="40.072842" lon="-105.230575">
  <ele>1586.09</ele>
  <time>2026-08-28T19:10:28Z</time>
  <course>201.37</course>
  <speed>0.0</speed>
  <fix>3d</fix>
</trkpt>
<trkpt lat="40.072842" lon="-105.230575">
  <ele>1586.09</ele>
  <time>2026-08-28T19:10:28Z</time>
  <course>6.62</course>
  <speed>0.0</speed>
  <fix>3d</fix>
</trkpt>
<trkpt lat="40.072842" lon="-105.230575">
  <ele>1586.09</ele>
  <time>2026-08-28T19:10:28Z</time>
  <course>201.36</course>
  <speed>0.0</speed>
  <fix>3d</fix>
</trkpt>
<trkpt lat="40.072842" lon="-105.230575">
  <ele>1586.09</ele>
  <time>2026-08-28T19:10:28Z</time>
  <course>7.08</course>
  <speed>0.0</speed>
  <fix>3d</fix>
</trkpt>
<trkpt lat="40.072842" lon="-105.230575">
  <ele>1586.09</ele>
  <time>2026-08-28T19:10:28Z</time>
  <course>201.36</course>
  <speed>0.0</speed>
  <fix>3d</fix>
</trkpt>
<trkpt lat="40.072842" lon="-105.230575">
  <ele>1586.09</ele>
  <time>2026-08-28T19:10:28Z</time>
  <course>7.51</course>
  <speed>0.0</speed>
  <fix>3d</fix>
</trkpt>
<trkpt lat="40.072842" lon="-105.230575">
  <ele>1586.09</ele>
  <time>2026-08-28T19:10:28Z</time>
  <course>201.36</course>
  <speed>0.0</speed>
  <fix>3d</fix>
</trkpt>
<trkpt lat="40.072842" lon="-105.230575">
  <ele>1586.09</ele>
  <time>2026-08-28T19:10:28Z</time>
  <course>7.91</course>
  <speed>0.0</speed>
  <fix>3d</fix>
</trkpt>
<trkpt lat="40.072842" lon="-105.230575">
  <ele>1586.09</ele>
  <time>2026-08-28T19:10:28Z</time>
  <course>201.36</course>
  <speed>0.0</speed>
  <fix>3d</fix>
</trkpt>
<trkpt lat="40.072842" lon="-105.230575">
  <ele>1586.09</ele>
  <time>2026-08-28T19:10:28Z</time>
  <course>8.27</course>
  <speed>0.0</speed>
  <fix>3d</fix>
</trkpt>
<trkpt lat="40.072842" lon="-105.230575">
  <ele>1586.09</ele>
  <time>2026-08-28T19:10:28Z</time>
  <course>201.36</course>
  <speed>0.0</speed>
  <fix>3d</fix>
</trkpt>
<trkpt lat="40.072842" lon="-105.230575">
  <ele>1586.09</ele>
  <time>2026-08-28T19:10:28Z</time>
  <course>8.61</course>
  <speed>0.0</speed>
  <fix>3d</fix>
</trkpt>
<trkpt lat="40.072842" lon="-105.230575">
  <ele>1586.09</ele>
  <time>2026-08-28T19:10:28Z</time>
  <course>201.36</course>
  <speed>0.0</speed>
  <fix>3d</fix>
</trkpt>
<trkpt lat="40.072842" lon="-105.230575">
  <ele>1586.09</ele>
  <time>2026-08-28T19:10:28Z</time>
  <course>8.92</course>
  <speed>0.0</speed>
  <fix>3d</fix>
</trkpt>
<trkpt lat="40.072842" lon="-105.230575">
  <ele>1586.09</ele>
  <time>2026-08-28T19:10:28Z</time>
  <course>333.66</course>
  <speed>0.0</speed>
  <fix>3d</fix>
</trkpt>
<trkpt lat="40.072842" lon="-105.230575">
  <ele>1586.09</ele>
  <time>2026-08-28T19:10:28Z</time>
  <course>9.21</course>
  <speed>0.0</speed>
  <fix>3d</fix>
</trkpt>
<trkpt lat="40.072842" lon="-105.230575">
  <ele>1586.09</ele>
  <time>2026-08-28T19:10:28Z</time>
  <course>324.37</course>
  <speed>0.0</speed>
  <fix>3d</fix>
</trkpt>
<trkpt lat="40.072842" lon="-105.230575">
  <ele>1586.09</ele>
  <time>2026-08-28T19:10:28Z</time>
  <course>9.48</course>
  <speed>0.0</speed>
  <fix>3d</fix>
</trkpt>
<trkpt lat="40.072842" lon="-105.230575">
  <ele>1586.09</ele>
  <time>2026-08-28T19:10:28Z</time>
  <course>230.05</course>
  <speed>0.0</speed>
  <fix>3d</fix>
</trkpt>
<trkpt lat="40.072842" lon="-105.230575">
  <ele>1586.09</ele>
  <time>2026-08-28T19:10:28Z</time>
  <course>9.72</course>
  <speed>0.0</speed>
  <fix>3d</fix>
</trkpt>
<trkpt lat="40.072842" lon="-105.230575">
  <ele>1586.09</ele>
  <time>2026-08-28T19:10:28Z</time>
  <course>142.87</course>
  <speed>0.0</speed>
  <fix>3d</fix>
</trkpt>
<trkpt lat="40.072842" lon="-105.230575">
  <ele>1586.09</ele>
  <time>2026-08-28T19:10:28Z</time>
  <course>9.95</course>
  <speed>0.0</speed>
  <fix>3d</fix>
</trkpt>
<trkpt lat="40.072842" lon="-105.230575">
  <ele>1586.09</ele>
  <time>2026-08-28T19:10:28Z</time>
  <course>315.72</course>
  <speed>0.0</speed>
  <fix>3d</fix>
</trkpt>
<trkpt lat="40.072842" lon="-105.230575">
  <ele>1586.09</ele>
  <time>2026-08-28T19:10:28Z</time>
  <course>10.15</course>
  <speed>0.0</speed>
  <fix>3d</fix>
</trkpt>
<trkpt lat="40.072842" lon="-105.230575">
  <ele>1586.09</ele>
  <time>2026-08-28T19:10:28Z</time>
  <course>283.29</course>
  <speed>0.0</speed>
  <fix>3d</fix>
</trkpt>
<trkpt lat="40.072842" lon="-105.230575">
  <ele>1586.09</ele>
  <time>2026-08-28T19:10:28Z</time>
  <course>10.34</course>
  <speed>0.0</speed>
  <fix>3d</fix>
</trkpt>
<trkpt lat="40.072842" lon="-105.230575">
  <ele>1586.09</ele>
  <time>2026-08-28T19:10:28Z</time>
  <course>254.12</course>
  <speed>0.0</speed>
  <fix>3d</fix>
</trkpt>
<trkpt lat="40.072842" lon="-105.230575">
  <ele>1586.09</ele>
  <time>2026-08-28T19:10:28Z</time>
  <course>10.51</course>
  <speed>0.0</speed>
  <fix>3d</fix>
</trkpt>
<trkpt lat="40.072842" lon="-105.230575">
  <ele>1586.09</ele>
  <time>2026-08-28T19:10:28Z</time>
  <course>263.55</course>
  <speed>0.0</speed>
  <fix>3d</fix>
</trkpt>
<trkpt lat="40.072842" lon="-105.230575">
  <ele>1586.09</ele>
  <time>2026-08-28T19:10:28Z</time>
  <course>10.67</course>
  <speed>0.0</speed>
  <fix>3d</fix>
</trkpt>
<trkpt lat="40.072842" lon="-105.230575">
  <ele>1586.09</ele>
  <time>2026-08-28T19:10:28Z</time>
  <course>267.82</course>
  <speed>0.0</speed>
  <fix>3d</fix>
</trkpt>
<trkpt lat="40.072842" lon="-105.230575">
  <ele>1586.09</ele>
  <time>2026-08-28T19:10:28Z</time>
  <course>10.81</course>
  <speed>0.0</speed>
  <fix>3d</fix>
</trkpt>
<trkpt lat="40.072842" lon="-105.230575">
  <ele>1586.09</ele>
  <time>2026-08-28T19:10:28Z</time>
  <course>266.13</course>
  <speed>0.0</speed>
  <fix>3d</fix>
</trkpt>
<trkpt lat="40.072842" lon="-105.230575">
  <ele>1586.09</ele>
  <time>2026-08-28T19:10:28Z</time>
  <course>10.94</course>
  <speed>0.0</speed>
  <fix>3d</fix>
</trkpt>
<trkpt lat="40.072842" lon="-105.230575">
  <ele>1586.09</ele>
  <time>2026-08-28T19:10:28Z</time>
  <course>265.78</course>
  <speed>0.0</speed>
  <fix>3d</fix>
</trkpt>
<trkpt lat="40.072842" lon="-105.230575">
  <ele>1586.09</ele>
  <time>2026-08-28T19:10:28Z</time>
  <course>11.06</course>
  <speed>0.0</speed>
  <fix>3d</fix>
</trkpt>
<trkpt lat="40.072842" lon="-105.230575">
  <ele>1586.09</ele>
  <time>2026-08-28T19:10:28Z</time>
  <course>266.05</course>
  <speed>0.0</speed>
  <fix>3d</fix>
</trkpt>
<trkpt lat="40.072842" lon="-105.230575">
  <ele>1586.09</ele>
  <time>2026-08-28T19:10:28Z</time>
  <course>11.18</course>
  <speed>0.0</speed>
  <fix>3d</fix>
</trkpt>
<trkpt lat="40.072842" lon="-105.230575">
  <ele>1586.09</ele>
  <time>2026-08-28T19:10:28Z</time>
  <course>266.07</course>
  <speed>0.0</speed>
  <fix>3d</fix>
</trkpt>
<trkpt lat="40.072842" lon="-105.230575">
  <ele>1586.09</ele>
  <time>2026-08-28T19:10:29Z</time>
  <course>11.28</course>
  <speed>0.0</speed>
  <fix>3d</fix>
</trkpt>
<trkpt lat="40.072842" lon="-105.230575">
  <ele>1586.09</ele>
  <time>2026-08-28T19:10:29Z</time>
  <course>266.03</course>
  <speed>0.0</speed>
  <fix>3d</fix>
</trkpt>
<trkpt lat="40.072842" lon="-105.230575">
  <ele>1586.09</ele>
  <time>2026-08-28T19:10:29Z</time>
  <course>11.37</course>
  <speed>0.0</speed>
  <fix>3d</fix>
</trkpt>
<trkpt lat="40.072842" lon="-105.230575">
  <ele>1586.09</ele>
  <time>2026-08-28T19:10:29Z</time>
  <course>266.03</course>
  <speed>0.0</speed>
  <fix>3d</fix>
</trkpt>
<trkpt lat="40.072842" lon="-105.230575">
  <ele>1586.09</ele>
  <time>2026-08-28T19:10:29Z</time>
  <course>11.45</course>
  <speed>0.0</speed>
  <fix>3d</fix>
</trkpt>
<trkpt lat="40.072842" lon="-105.230575">
  <ele>1586.09</ele>
  <time>2026-08-28T19:10:29Z</time>
  <course>266.04</course>
  <speed>0.0</speed>
  <fix>3d</fix>
</trkpt>
<trkpt lat="40.072842" lon="-105.230575">
  <ele>1586.09</ele>
  <time>2026-08-28T19:10:29Z</time>
  <course>11.52</course>
  <speed>0.0</speed>
  <fix>3d</fix>
</trkpt>
<trkpt lat="40.072842" lon="-105.230575">
  <ele>1586.09</ele>
  <time>2026-08-28T19:10:29Z</time>
  <course>266.03</course>
  <speed>0.0</speed>
  <fix>3d</fix>
</trkpt>
<trkpt lat="40.072842" lon="-105.230575">
  <ele>1586.09</ele>
  <time>2026-08-28T19:10:29Z</time>
  <course>11.59</course>
  <speed>0.0</speed>
  <fix>3d</fix>
</trkpt>
<trkpt lat="40.072842" lon="-105.230575">
  <ele>1586.09</ele>
  <time>2026-08-28T19:10:29Z</time>
  <course>266.03</course>
  <speed>0.0</speed>
  <fix>3d</fix>
</trkpt>
<trkpt lat="40.072842" lon="-105.230575">
  <ele>1586.09</ele>
  <time>2026-08-28T19:10:29Z</time>
  <course>11.65</course>
  <speed>0.0</speed>
  <fix>3d</fix>
</trkpt>
<trkpt lat="40.072842" lon="-105.230575">
  <ele>1586.09</ele>
  <time>2026-08-28T19:10:29Z</time>
  <course>266.03</course>
  <speed>0.0</speed>
  <fix>3d</fix>
</trkpt>
<trkpt lat="40.072842" lon="-105.230575">
  <ele>1586.09</ele>
  <time>2026-08-28T19:10:29Z</time>
  <course>11.71</course>
  <speed>0.0</speed>
  <fix>3d</fix>
</trkpt>
<trkpt lat="40.072842" lon="-105.230575">
  <ele>1586.09</ele>
  <time>2026-08-28T19:10:29Z</time>
  <course>266.03</course>
  <speed>0.0</speed>
  <fix>3d</fix>
</trkpt>
<trkpt lat="40.072842" lon="-105.230575">
  <ele>1586.09</ele>
  <time>2026-08-28T19:10:29Z</time>
  <course>11.76</course>
  <speed>0.0</speed>
  <fix>3d</fix>
</trkpt>
<trkpt lat="40.072842" lon="-105.230575">
  <ele>1586.09</ele>
  <time>2026-08-28T19:10:29Z</time>
  <course>266.03</course>
  <speed>0.0</speed>
  <fix>3d</fix>
</trkpt>
<trkpt lat="40.072842" lon="-105.230575">
  <ele>1586.09</ele>
  <time>2026-08-28T19:10:29Z</time>
  <course>11.81</course>
  <speed>0.0</speed>
  <fix>3d</fix>
</trkpt>
<trkpt lat="40.072842" lon="-105.230575">
  <ele>1586.09</ele>
  <time>2026-08-28T19:10:29Z</time>
  <course>266.03</course>
  <speed>0.0</speed>
  <fix>3d</fix>
</trkpt>
<trkpt lat="40.072842" lon="-105.230575">
  <ele>1586.09</ele>
  <time>2026-08-28T19:10:29Z</time>
  <course>11.85</course>
  <speed>0.0</speed>
  <fix>3d</fix>
</trkpt>
<trkpt lat="40.072842" lon="-105.230575">
  <ele>1586.09</ele>
  <time>2026-08-28T19:10:29Z</time>
  <course>266.03</course>
  <speed>0.0</speed>
  <fix>3d</fix>
</trkpt>
<trkpt lat="40.072842" lon="-105.230575">
  <ele>1586.09</ele>
  <time>2026-08-28T19:10:29Z</time>
  <course>11.88</course>
  <speed>0.0</speed>
  <fix>3d</fix>
</trkpt>
<trkpt lat="40.072842" lon="-105.230575">
  <ele>1586.09</ele>
  <time>2026-08-28T19:10:29Z</time>
  <course>266.03</course>
  <speed>0.0</speed>
  <fix>3d</fix>
</trkpt>
<trkpt lat="40.072842" lon="-105.230575">
  <ele>1586.09</ele>
  <time>2026-08-28T19:10:29Z</time>
  <course>11.92</course>
  <speed>0.0</speed>
  <fix>3d</fix>
</trkpt>
<trkpt lat="40.072842" lon="-105.230575">
  <ele>1586.09</ele>
  <time>2026-08-28T19:10:29Z</time>
  <course>266.03</course>
  <speed>0.0</speed>
  <fix>3d</fix>
</trkpt>
<trkpt lat="40.072842" lon="-105.230575">
  <ele>1586.09</ele>
  <time>2026-08-28T19:10:29Z</time>
  <course>11.95</course>
  <speed>0.0</speed>
  <fix>3d</fix>
</trkpt>
<trkpt lat="40.072842" lon="-105.230575">
  <ele>1586.09</ele>
  <time>2026-08-28T19:10:29Z</time>
  <course>266.03</course>
  <speed>0.0</speed>
  <fix>3d</fix>
</trkpt>
<trkpt lat="40.072842" lon="-105.230575">
  <ele>1586.09</ele>
  <time>2026-08-28T19:10:29Z</time>
  <course>11.97</course>
  <speed>0.0</speed>
  <fix>3d</fix>
</trkpt>
<trkpt lat="40.072842" lon="-105.230575">
  <ele>1586.09</ele>
  <time>2026-08-28T19:10:29Z</time>
  <course>266.03</course>
  <speed>0.0</speed>
  <fix>3d</fix>
</trkpt>
<trkpt lat="40.072842" lon="-105.230575">
  <ele>1586.09</ele>
  <time>2026-08-28T19:10:29Z</time>
  <course>12.0</course>
  <speed>0.0</speed>
  <fix>3d</fix>
</trkpt>
<trkpt lat="40.072842" lon="-105.230575">
  <ele>1586.09</ele>
  <time>2026-08-28T19:10:29Z</time>
  <course>266.03</course>
  <speed>0.0</speed>
  <fix>3d</fix>
</trkpt>
<trkpt lat="40.072842" lon="-105.230575">
  <ele>1586.09</ele>
  <time>2026-08-28T19:10:29Z</time>
  <course>12.02</course>
  <speed>0.0</speed>
  <fix>3d</fix>
</trkpt>
<trkpt lat="40.072842" lon="-105.230575">
  <ele>1586.09</ele>
  <time>2026-08-28T19:10:29Z</time>
  <course>266.03</course>
  <speed>0.0</speed>
  <fix>3d</fix>
</trkpt>
<trkpt lat="40.072842" lon="-105.230575">
  <ele>1586.09</ele>
  <time>2026-08-28T19:10:29Z</time>
  <course>12.03</course>
  <speed>0.0</speed>
  <fix>3d</fix>
</trkpt>
<trkpt lat="40.072842" lon="-105.230575">
  <ele>1586.09</ele>
  <time>2026-08-28T19:10:29Z</time>
  <course>266.03</course>
  <speed>0.0</speed>
  <fix>3d</fix>
</trkpt>
<trkpt lat="40.072842" lon="-105.230575">
  <ele>1586.09</ele>
  <time>2026-08-28T19:10:29Z</time>
  <course>12.05</course>
  <speed>0.0</speed>
  <fix>3d</fix>
</trkpt>
<trkpt lat="40.072842" lon="-105.230575">
  <ele>1586.09</ele>
  <time>2026-08-28T19:10:29Z</time>
  <course>266.03</course>
  <speed>0.0</speed>
  <fix>3d</fix>
</trkpt>
<trkpt lat="40.072842" lon="-105.230575">
  <ele>1586.09</ele>
  <time>2026-08-28T19:10:29Z</time>
  <course>12.07</course>
  <speed>0.0</speed>
  <fix>3d</fix>
</trkpt>
<trkpt lat="40.072842" lon="-105.230575">
  <ele>1586.09</ele>
  <time>2026-08-28T19:10:29Z</time>
  <course>266.03</course>
  <speed>0.0</speed>
  <fix>3d</fix>
</trkpt>
<trkpt lat="40.072842" lon="-105.230575">
  <ele>1586.09</ele>
  <time>2026-08-28T19:10:29Z</time>
  <course>12.08</course>
  <speed>0.0</speed>
  <fix>3d</fix>
</trkpt>
<trkpt lat="40.072842" lon="-105.230575">
  <ele>1586.09</ele>
  <time>2026-08-28T19:10:29Z</time>
  <course>266.03</course>
  <speed>0.0</speed>
  <fix>3d</fix>
</trkpt>
<trkpt lat="40.072842" lon="-105.230575">
  <ele>1586.09</ele>
  <time>2026-08-28T19:10:29Z</time>
  <course>12.09</course>
  <speed>0.0</speed>
  <fix>3d</fix>
</trkpt>
<trkpt lat="40.072842" lon="-105.230575">
  <ele>1586.09</ele>
  <time>2026-08-28T19:10:29Z</time>
  <course>266.03</course>
  <speed>0.0</speed>
  <fix>3d</fix>
</trkpt>
<trkpt lat="40.072842" lon="-105.230575">
  <ele>1586.09</ele>
  <time>2026-08-28T19:10:29Z</time>
  <course>12.1</course>
  <speed>0.0</speed>
  <fix>3d</fix>
</trkpt>
<trkpt lat="40.072842" lon="-105.230575">
  <ele>1586.09</ele>
  <time>2026-08-28T19:10:29Z</time>
  <course>266.03</course>
  <speed>0.0</speed>
  <fix>3d</fix>
</trkpt>
<trkpt lat="40.072842" lon="-105.230575">
  <ele>1586.09</ele>
  <time>2026-08-28T19:10:29Z</time>
  <course>12.1</course>
  <speed>0.0</speed>
  <fix>3d</fix>
</trkpt>
<trkpt lat="40.072842" lon="-105.230575">
  <ele>1586.09</ele>
  <time>2026-08-28T19:10:29Z</time>
  <course>266.03</course>
  <speed>0.0</speed>
  <fix>3d</fix>
</trkpt>
<trkpt lat="40.072842" lon="-105.230575">
  <ele>1586.09</ele>
  <time>2026-08-28T19:10:29Z</time>
  <course>12.11</course>
  <speed>0.0</speed>
  <fix>3d</fix>
</trkpt>
<trkpt lat="40.072842" lon="-105.230575">
  <ele>1586.09</ele>
  <time>2026-08-28T19:10:29Z</time>
  <course>266.03</course>
  <speed>0.0</speed>
  <fix>3d</fix>
</trkpt>
<trkpt lat="40.072842" lon="-105.230575">
  <ele>1586.09</ele>
  <time>2026-08-28T19:10:29Z</time>
  <course>12.12</course>
  <speed>0.0</speed>
  <fix>3d</fix>
</trkpt>
<trkpt lat="40.072842" lon="-105.230575">
  <ele>1586.09</ele>
  <time>2026-08-28T19:10:29Z</time>
  <course>266.03</course>
  <speed>0.0</speed>
  <fix>3d</fix>
</trkpt>
<trkpt lat="40.072842" lon="-105.230575">
  <ele>1586.09</ele>
  <time>2026-08-28T19:10:29Z</time>
  <course>12.12</course>
  <speed>0.0</speed>
  <fix>3d</fix>
</trkpt>
<trkpt lat="40.072842" lon="-105.230575">
  <ele>1586.09</ele>
  <time>2026-08-28T19:10:29Z</time>
  <course>266.03</course>
  <speed>0.0</speed>
  <fix>3d</fix>
</trkpt>
<trkpt lat="40.072842" lon="-105.230575">
  <ele>1586.09</ele>
  <time>2026-08-28T19:10:29Z</time>
  <course>12.12</course>
  <speed>0.0</speed>
  <fix>3d</fix>
</trkpt>
<trkpt lat="40.072842" lon="-105.230575">
  <ele>1586.09</ele>
  <time>2026-08-28T19:10:29Z</time>
  <course>266.03</course>
  <speed>0.0</speed>
  <fix>3d</fix>
</trkpt>
<trkpt lat="40.072842" lon="-105.230575">
  <ele>1586.09</ele>
  <time>2026-08-28T19:10:29Z</time>
  <course>12.13</course>
  <speed>0.0</speed>
  <fix>3d</fix>
</trkpt>
<trkpt lat="40.072842" lon="-105.230575">
  <ele>1586.09</ele>
  <time>2026-08-28T19:10:29Z</time>
  <course>266.03</course>
  <speed>0.0</speed>
  <fix>3d</fix>
</trkpt>
<trkpt lat="40.072842" lon="-105.230575">
  <ele>1586.09</ele>
  <time>2026-08-28T19:10:29Z</time>
  <course>12.13</course>
  <speed>0.0</speed>
  <fix>3d</fix>
</trkpt>
<trkpt lat="40.072842" lon="-105.230575">
  <ele>1586.09</ele>
  <time>2026-08-28T19:10:29Z</time>
  <course>266.03</course>
  <speed>0.0</speed>
  <fix>3d</fix>
</trkpt>
<trkpt lat="40.072842" lon="-105.230575">
  <ele>1586.09</ele>
  <time>2026-08-28T19:10:29Z</time>
  <course>12.13</course>
  <speed>0.0</speed>
  <fix>3d</fix>
</trkpt>
<trkpt lat="40.072842" lon="-105.230575">
  <ele>1586.09</ele>
  <time>2026-08-28T19:10:29Z</time>
  <course>266.03</course>
  <speed>0.0</speed>
  <fix>3d</fix>
</trkpt>
<trkpt lat="40.072842" lon="-105.230575">
  <ele>1586.09</ele>
  <time>2026-08-28T19:10:29Z</time>
  <course>12.12</course>
  <speed>0.01</speed>
  <fix>3d</fix>
</trkpt>
<trkpt lat="40.072842" lon="-105.230575">
  <ele>1586.09</ele>
  <time>2026-08-28T19:10:29Z</time>
  <course>266.03</course>
  <speed>0.0</speed>
  <fix>3d</fix>
</trkpt>
<trkpt lat="40.072842" lon="-105.230575">
  <ele>1586.09</ele>
  <time>2026-08-28T19:10:29Z</time>
  <course>12.12</course>
  <speed>0.01</speed>
  <fix>3d</fix>
</trkpt>
<trkpt lat="40.072842" lon="-105.230575">
  <ele>1586.09</ele>
  <time>2026-08-28T19:10:29Z</time>
  <course>266.03</course>
  <speed>0.0</speed>
  <fix>3d</fix>
</trkpt>
<trkpt lat="40.072842" lon="-105.230575">
  <ele>1586.09</ele>
  <time>2026-08-28T19:10:29Z</time>
  <course>12.12</course>
  <speed>0.01</speed>
  <fix>3d</fix>
</trkpt>
<trkpt lat="40.072842" lon="-105.230575">
  <ele>1586.09</ele>
  <time>2026-08-28T19:10:29Z</time>
  <course>266.03</course>
  <speed>0.0</speed>
  <fix>3d</fix>
</trkpt>
<trkpt lat="40.072842" lon="-105.230575">
  <ele>1586.09</ele>
  <time>2026-08-28T19:10:29Z</time>
  <course>12.12</course>
  <speed>0.01</speed>
  <fix>3d</fix>
</trkpt>
<trkpt lat="40.072842" lon="-105.230575">
  <ele>1586.09</ele>
  <time>2026-08-28T19:10:29Z</time>
  <course>266.03</course>
  <speed>0.0</speed>
  <fix>3d</fix>
</trkpt>
<trkpt lat="40.072842" lon="-105.230575">
  <ele>1586.09</ele>
  <time>2026-08-28T19:10:29Z</time>
  <course>12.11</course>
  <speed>0.01</speed>
  <fix>3d</fix>
</trkpt>
<trkpt lat="40.072842" lon="-105.230575">
  <ele>1586.09</ele>
  <time>2026-08-28T19:10:29Z</time>
  <course>266.03</course>
  <speed>0.0</speed>
  <fix>3d</fix>
</trkpt>
<trkpt lat="40.072842" lon="-105.230575">
  <ele>1586.09</ele>
  <time>2026-08-28T19:10:29Z</time>
  <course>12.11</course>
  <speed>0.01</speed>
  <fix>3d</fix>
</trkpt>
<trkpt lat="40.072842" lon="-105.230575">
  <ele>1586.09</ele>
  <time>2026-08-28T19:10:29Z</time>
  <course>266.03</course>
  <speed>0.0</speed>
  <fix>3d</fix>
</trkpt>
<trkpt lat="40.072842" lon="-105.230575">
  <ele>1586.09</ele>
  <time>2026-08-28T19:10:29Z</time>
  <course>12.1</course>
  <speed>0.01</speed>
  <fix>3d</fix>
</trkpt>
<trkpt lat="40.072842" lon="-105.230575">
  <ele>1586.09</ele>
  <time>2026-08-28T19:10:29Z</time>
  <course>266.03</course>
  <speed>0.0</speed>
  <fix>3d</fix>
</trkpt>
<trkpt lat="40.072842" lon="-105.230575">
  <ele>1586.09</ele>
  <time>2026-08-28T19:10:29Z</time>
  <course>12.1</course>
  <speed>0.01</speed>
  <fix>3d</fix>
</trkpt>
<trkpt lat="40.072842" lon="-105.230575">
  <ele>1586.09</ele>
  <time>2026-08-28T19:10:29Z</time>
  <course>266.03</course>
  <speed>0.0</speed>
  <fix>3d</fix>
</trkpt>
<trkpt lat="40.072842" lon="-105.230575">
  <ele>1586.09</ele>
  <time>2026-08-28T19:10:29Z</time>
  <course>12.09</course>
  <speed>0.01</speed>
  <fix>3d</fix>
</trkpt>
<trkpt lat="40.072842" lon="-105.230575">
  <ele>1586.09</ele>
  <time>2026-08-28T19:10:29Z</time>
  <course>266.03</course>
  <speed>0.0</speed>
  <fix>3d</fix>
</trkpt>
<trkpt lat="40.072842" lon="-105.230575">
  <ele>1586.09</ele>
  <time>2026-08-28T19:10:29Z</time>
  <course>12.09</course>
  <speed>0.01</speed>
  <fix>3d</fix>
</trkpt>
<trkpt lat="40.072842" lon="-105.230575">
  <ele>1586.09</ele>
  <time>2026-08-28T19:10:29Z</time>
  <course>266.03</course>
  <speed>0.0</speed>
  <fix>3d</fix>
</trkpt>
<trkpt lat="40.072842" lon="-105.230575">
  <ele>1586.09</ele>
  <time>2026-08-28T19:10:29Z</time>
  <course>12.08</course>
  <speed>0.01</speed>
  <fix>3d</fix>
</trkpt>
<trkpt lat="40.072842" lon="-105.230575">
  <ele>1586.09</ele>
  <time>2026-08-28T19:10:29Z</time>
  <course>266.03</course>
  <speed>0.0</speed>
  <fix>3d</fix>
</trkpt>
<trkpt lat="40.072842" lon="-105.230575">
  <ele>1586.09</ele>
  <time>2026-08-28T19:10:29Z</time>
  <course>12.08</course>
  <speed>0.01414213562373095</speed>
  <fix>3d</fix>
</trkpt>
<trkpt lat="40.072842" lon="-105.230575">
  <ele>1586.09</ele>
  <time>2026-08-28T19:10:29Z</time>
  <course>266.03</course>
  <speed>0.0</speed>
  <fix>3d</fix>
</trkpt>
<trkpt lat="40.072842" lon="-105.230575">
  <ele>1586.09</ele>
  <time>2026-08-28T19:10:29Z</time>
  <course>12.07</course>
  <speed>0.01414213562373095</speed>
  <fix>3d</fix>
</trkpt>
<trkpt lat="40.072842" lon="-105.230575">
  <ele>1586.09</ele>
  <time>2026-08-28T19:10:29Z</time>
  <course>266.03</course>
  <speed>0.0</speed>
  <fix>3d</fix>
</trkpt>
<trkpt lat="40.072842" lon="-105.230575">
  <ele>1586.09</ele>
  <time>2026-08-28T19:10:29Z</time>
  <course>12.06</course>
  <speed>0.01414213562373095</speed>
  <fix>3d</fix>
</trkpt>
<trkpt lat="40.072842" lon="-105.230575">
  <ele>1586.09</ele>
  <time>2026-08-28T19:10:29Z</time>
  <course>266.03</course>
  <speed>0.0</speed>
  <fix>3d</fix>
</trkpt>
<trkpt lat="40.072842" lon="-105.230575">
  <ele>1586.09</ele>
  <time>2026-08-28T19:10:29Z</time>
  <course>12.05</course>
  <speed>0.01414213562373095</speed>
  <fix>3d</fix>
</trkpt>
<trkpt lat="40.072842" lon="-105.230575">
  <ele>1586.09</ele>
  <time>2026-08-28T19:10:29Z</time>
  <course>266.03</course>
  <speed>0.0</speed>
  <fix>3d</fix>
</trkpt>
<trkpt lat="40.072842" lon="-105.230575">
  <ele>1586.09</ele>
  <time>2026-08-28T19:10:29Z</time>
  <course>12.05</course>
  <speed>0.01414213562373095</speed>
  <fix>3d</fix>
</trkpt>
<trkpt lat="40.072842" lon="-105.230575">
  <ele>1586.09</ele>
  <time>2026-08-28T19:10:29Z</time>
  <course>266.03</course>
  <speed>0.0</speed>
  <fix>3d</fix>
</trkpt>
<trkpt lat="40.072842" lon="-105.230575">
  <ele>1586.09</ele>
  <time>2026-08-28T19:10:29Z</time>
  <course>12.04</course>
  <speed>0.01414213562373095</speed>
  <fix>3d</fix>
</trkpt>
<trkpt lat="40.072842" lon="-105.230575">
  <ele>1586.09</ele>
  <time>2026-08-28T19:10:29Z</time>
  <course>266.03</course>
  <speed>0.0</speed>
  <fix>3d</fix>
</trkpt>
<trkpt lat="40.072842" lon="-105.230575">
  <ele>1586.09</ele>
  <time>2026-08-28T19:10:29Z</time>
  <course>12.03</course>
  <speed>0.01414213562373095</speed>
  <fix>3d</fix>
</trkpt>
<trkpt lat="40.072842" lon="-105.230575">
  <ele>1586.09</ele>
  <time>2026-08-28T19:10:29Z</time>
  <course>266.03</course>
  <speed>0.0</speed>
  <fix>3d</fix>
</trkpt>
<trkpt lat="40.072842" lon="-105.230575">
  <ele>1586.09</ele>
  <time>2026-08-28T19:10:29Z</time>
  <course>12.03</course>
  <speed>0.01414213562373095</speed>
  <fix>3d</fix>
</trkpt>
<trkpt lat="40.072842" lon="-105.230575">
  <ele>1586.09</ele>
  <time>2026-08-28T19:10:29Z</time>
  <course>266.03</course>
  <speed>0.0</speed>
  <fix>3d</fix>
</trkpt>
<trkpt lat="40.072842" lon="-105.230575">
  <ele>1586.09</ele>
  <time>2026-08-28T19:10:29Z</time>
  <course>12.02</course>
  <speed>0.01414213562373095</speed>
  <fix>3d</fix>
</trkpt>
<trkpt lat="40.072842" lon="-105.230575">
  <ele>1586.09</ele>
  <time>2026-08-28T19:10:29Z</time>
  <course>266.03</course>
  <speed>0.0</speed>
  <fix>3d</fix>
</trkpt>
<trkpt lat="40.072842" lon="-105.230575">
  <ele>1586.09</ele>
  <time>2026-08-28T19:10:29Z</time>
  <course>12.01</course>
  <speed>0.01414213562373095</speed>
  <fix>3d</fix>
</trkpt>
<trkpt lat="40.072842" lon="-105.230575">
  <ele>1586.09</ele>
  <time>2026-08-28T19:10:29Z</time>
  <course>266.03</course>
  <speed>0.0</speed>
  <fix>3d</fix>
</trkpt>
<trkpt lat="40.072842" lon="-105.230575">
  <ele>1586.09</ele>
  <time>2026-08-28T19:10:29Z</time>
  <course>12.01</course>
  <speed>0.01414213562373095</speed>
  <fix>3d</fix>
</trkpt>
<trkpt lat="40.072842" lon="-105.230575">
  <ele>1586.09</ele>
  <time>2026-08-28T19:10:29Z</time>
  <course>266.03</course>
  <speed>0.0</speed>
  <fix>3d</fix>
</trkpt>
<trkpt lat="40.072842" lon="-105.230575">
  <ele>1586.09</ele>
  <time>2026-08-28T19:10:29Z</time>
  <course>12.0</course>
  <speed>0.01414213562373095</speed>
  <fix>3d</fix>
</trkpt>
<trkpt lat="40.072842" lon="-105.230575">
  <ele>1586.09</ele>
  <time>2026-08-28T19:10:29Z</time>
  <course>266.03</course>
  <speed>0.0</speed>
  <fix>3d</fix>
</trkpt>
<trkpt lat="40.072842" lon="-105.230575">
  <ele>1586.09</ele>
  <time>2026-08-28T19:10:29Z</time>
  <course>11.99</course>
  <speed>0.01414213562373095</speed>
  <fix>3d</fix>
</trkpt>
<trkpt lat="40.072842" lon="-105.230575">
  <ele>1586.09</ele>
  <time>2026-08-28T19:10:29Z</time>
  <course>266.03</course>
  <speed>0.0</speed>
  <fix>3d</fix>
</trkpt>
<trkpt lat="40.072842" lon="-105.230575">
  <ele>1586.09</ele>
  <time>2026-08-28T19:10:29Z</time>
  <course>11.98</course>
  <speed>0.01414213562373095</speed>
  <fix>3d</fix>
</trkpt>
<trkpt lat="40.072842" lon="-105.230575">
  <ele>1586.09</ele>
  <time>2026-08-28T19:10:29Z</time>
  <course>266.03</course>
  <speed>0.0</speed>
  <fix>3d</fix>
</trkpt>
<trkpt lat="40.072842" lon="-105.230575">
  <ele>1586.09</ele>
  <time>2026-08-28T19:10:29Z</time>
  <course>11.98</course>
  <speed>0.01414213562373095</speed>
  <fix>3d</fix>
</trkpt>
<trkpt lat="40.072842" lon="-105.230575">
  <ele>1586.09</ele>
  <time>2026-08-28T19:10:29Z</time>
  <course>266.03</course>
  <speed>0.0</speed>
  <fix>3d</fix>
</trkpt>
<trkpt lat="40.072842" lon="-105.230575">
  <ele>1586.09</ele>
  <time>2026-08-28T19:10:29Z</time>
  <course>11.97</course>
  <speed>0.022360679774997897</speed>
  <fix>3d</fix>
</trkpt>
<trkpt lat="40.072842" lon="-105.230575">
  <ele>1586.09</ele>
  <time>2026-08-28T19:10:29Z</time>
  <course>266.03</course>
  <speed>0.0</speed>
  <fix>3d</fix>
</trkpt>
<trkpt lat="40.072842" lon="-105.230575">
  <ele>1586.09</ele>
  <time>2026-08-28T19:10:29Z</time>
  <course>11.96</course>
  <speed>0.022360679774997897</speed>
  <fix>3d</fix>
</trkpt>
<trkpt lat="40.072842" lon="-105.230575">
  <ele>1586.09</ele>
  <time>2026-08-28T19:10:29Z</time>
  <course>266.03</course>
  <speed>0.0</speed>
  <fix>3d</fix>
</trkpt>
<trkpt lat="40.072842" lon="-105.230575">
  <ele>1586.09</ele>
  <time>2026-08-28T19:10:29Z</time>
  <course>11.95</course>
  <speed>0.022360679774997897</speed>
  <fix>3d</fix>
</trkpt>
<trkpt lat="40.072842" lon="-105.230575">
  <ele>1586.09</ele>
  <time>2026-08-28T19:10:29Z</time>
  <course>266.03</course>
  <speed>0.0</speed>
  <fix>3d</fix>
</trkpt>
<trkpt lat="40.072842" lon="-105.230575">
  <ele>1586.09</ele>
  <time>2026-08-28T19:10:29Z</time>
  <course>11.94</course>
  <speed>0.022360679774997897</speed>
  <fix>3d</fix>
</trkpt>
<trkpt lat="40.072842" lon="-105.230575">
  <ele>1586.09</ele>
  <time>2026-08-28T19:10:29Z</time>
  <course>266.03</course>
  <speed>0.0</speed>
  <fix>3d</fix>
</trkpt>
<trkpt lat="40.072842" lon="-105.230575">
  <ele>1586.09</ele>
  <time>2026-08-28T19:10:29Z</time>
  <course>11.93</course>
  <speed>0.022360679774997897</speed>
  <fix>3d</fix>
</trkpt>
<trkpt lat="40.072842" lon="-105.230575">
  <ele>1586.09</ele>
  <time>2026-08-28T19:10:29Z</time>
  <course>266.03</course>
  <speed>0.0</speed>
  <fix>3d</fix>
</trkpt>
<trkpt lat="40.072842" lon="-105.230575">
  <ele>1586.09</ele>
  <time>2026-08-28T19:10:29Z</time>
  <course>11.92</course>
  <speed>0.022360679774997897</speed>
  <fix>3d</fix>
</trkpt>
<trkpt lat="40.072842" lon="-105.230575">
  <ele>1586.09</ele>
  <time>2026-08-28T19:10:29Z</time>
  <course>266.03</course>
  <speed>0.0</speed>
  <fix>3d</fix>
</trkpt>
<trkpt lat="40.072842" lon="-105.230575">
  <ele>1586.09</ele>
  <time>2026-08-28T19:10:29Z</time>
  <course>11.92</course>
  <speed>0.022360679774997897</speed>
  <fix>3d</fix>
</trkpt>
<trkpt lat="40.072842" lon="-105.230575">
  <ele>1586.09</ele>
  <time>2026-08-28T19:10:29Z</time>
  <course>266.03</course>
  <speed>0.0</speed>
  <fix>3d</fix>
</trkpt>
<trkpt lat="40.072842" lon="-105.230575">
  <ele>1586.09</ele>
  <time>2026-08-28T19:10:29Z</time>
  <course>11.91</course>
  <speed>0.022360679774997897</speed>
  <fix>3d</fix>
</trkpt>
<trkpt lat="40.072842" lon="-105.230575">
  <ele>1586.09</ele>
  <time>2026-08-28T19:10:29Z</time>
  <course>266.03</course>
  <speed>0.0</speed>
  <fix>3d</fix>
</trkpt>
<trkpt lat="40.072842" lon="-105.230575">
  <ele>1586.09</ele>
  <time>2026-08-28T19:10:29Z</time>
  <course>11.9</course>
  <speed>0.022360679774997897</speed>
  <fix>3d</fix>
</trkpt>
<trkpt lat="40.072842" lon="-105.230575">
  <ele>1586.09</ele>
  <time>2026-08-28T19:10:29Z</time>
  <course>266.03</course>
  <speed>0.0</speed>
  <fix>3d</fix>
</trkpt>
<trkpt lat="40.072842" lon="-105.230575">
  <ele>1586.09</ele>
  <time>2026-08-28T19:10:29Z</time>
  <course>11.89</course>
  <speed>0.022360679774997897</speed>
  <fix>3d</fix>
</trkpt>
<trkpt lat="40.072842" lon="-105.230575">
  <ele>1586.09</ele>
  <time>2026-08-28T19:10:29Z</time>
  <course>266.03</course>
  <speed>0.0</speed>
  <fix>3d</fix>
</trkpt>
<trkpt lat="40.072842" lon="-105.230575">
  <ele>1586.09</ele>
  <time>2026-08-28T19:10:29Z</time>
  <course>11.88</course>
  <speed>0.022360679774997897</speed>
  <fix>3d</fix>
</trkpt>
<trkpt lat="40.072842" lon="-105.230575">
  <ele>1586.09</ele>
  <time>2026-08-28T19:10:29Z</time>
  <course>266.03</course>
  <speed>0.0</speed>
  <fix>3d</fix>
</trkpt>
<trkpt lat="40.072842" lon="-105.230575">
  <ele>1586.09</ele>
  <time>2026-08-28T19:10:29Z</time>
  <course>11.88</course>
  <speed>0.022360679774997897</speed>
  <fix>3d</fix>
</trkpt>
<trkpt lat="40.072842" lon="-105.230575">
  <ele>1586.09</ele>
  <time>2026-08-28T19:10:29Z</time>
  <course>266.03</course>
  <speed>0.0</speed>
  <fix>3d</fix>
</trkpt>
<trkpt lat="40.072842" lon="-105.230575">
  <ele>1586.09</ele>
  <time>2026-08-28T19:10:29Z</time>
  <course>11.87</course>
  <speed>0.022360679774997897</speed>
  <fix>3d</fix>
</trkpt>
<trkpt lat="40.072842" lon="-105.230575">
  <ele>1586.09</ele>
  <time>2026-08-28T19:10:29Z</time>
  <course>266.03</course>
  <speed>0.0</speed>
  <fix>3d</fix>
</trkpt>
<trkpt lat="40.072842" lon="-105.230575">
  <ele>1586.09</ele>
  <time>2026-08-28T19:10:29Z</time>
  <course>11.86</course>
  <speed>0.022360679774997897</speed>
  <fix>3d</fix>
</trkpt>
<trkpt lat="40.072842" lon="-105.230575">
  <ele>1586.09</ele>
  <time>2026-08-28T19:10:29Z</time>
  <course>266.03</course>
  <speed>0.0</speed>
  <fix>3d</fix>
</trkpt>
<trkpt lat="40.072842" lon="-105.230575">
  <ele>1586.09</ele>
  <time>2026-08-28T19:10:29Z</time>
  <course>11.85</course>
  <speed>0.022360679774997897</speed>
  <fix>3d</fix>
</trkpt>
<trkpt lat="40.072842" lon="-105.230575">
  <ele>1586.09</ele>
  <time>2026-08-28T19:10:29Z</time>
  <course>266.03</course>
  <speed>0.0</speed>
  <fix>3d</fix>
</trkpt>
<trkpt lat="40.072842" lon="-105.230575">
  <ele>1586.09</ele>
  <time>2026-08-28T19:10:29Z</time>
  <course>11.84</course>
  <speed>0.0282842712474619</speed>
  <fix>3d</fix>
</trkpt>
<trkpt lat="40.072842" lon="-105.230575">
  <ele>1586.09</ele>
  <time>2026-08-28T19:10:29Z</time>
  <course>266.03</course>
  <speed>0.0</speed>
  <fix>3d</fix>
</trkpt>
<trkpt lat="40.072842" lon="-105.230575">
  <ele>1586.09</ele>
  <time>2026-08-28T19:10:29Z</time>
  <course>11.83</course>
  <speed>0.0282842712474619</speed>
  <fix>3d</fix>
</trkpt>
<trkpt lat="40.072842" lon="-105.230575">
  <ele>1586.09</ele>
  <time>2026-08-28T19:10:29Z</time>
  <course>266.03</course>
  <speed>0.0</speed>
  <fix>3d</fix>
</trkpt>
<trkpt lat="40.072842" lon="-105.230575">
  <ele>1586.09</ele>
  <time>2026-08-28T19:10:29Z</time>
  <course>11.83</course>
  <speed>0.0282842712474619</speed>
  <fix>3d</fix>
</trkpt>
<trkpt lat="40.072842" lon="-105.230575">
  <ele>1586.09</ele>
  <time>2026-08-28T19:10:29Z</time>
  <course>266.03</course>
  <speed>0.0</speed>
  <fix>3d</fix>
</trkpt>
<trkpt lat="40.072842" lon="-105.230575">
  <ele>1586.09</ele>
  <time>2026-08-28T19:10:29Z</time>
  <course>11.82</course>
  <speed>0.0282842712474619</speed>
  <fix>3d</fix>
</trkpt>
<trkpt lat="40.072842" lon="-105.230575">
  <ele>1586.09</ele>
  <time>2026-08-28T19:10:29Z</time>
  <course>266.03</course>
  <speed>0.0</speed>
  <fix>3d</fix>
</trkpt>
<trkpt lat="40.072842" lon="-105.230575">
  <ele>1586.09</ele>
  <time>2026-08-28T19:10:29Z</time>
  <course>11.81</course>
  <speed>0.0282842712474619</speed>
  <fix>3d</fix>
</trkpt>
<trkpt lat="40.072842" lon="-105.230575">
  <ele>1586.09</ele>
  <time>2026-08-28T19:10:29Z</time>
  <course>266.03</course>
  <speed>0.0</speed>
  <fix>3d</fix>
</trkpt>
<trkpt lat="40.072842" lon="-105.230575">
  <ele>1586.09</ele>
  <time>2026-08-28T19:10:29Z</time>
  <course>11.8</course>
  <speed>0.0282842712474619</speed>
  <fix>3d</fix>
</trkpt>
<trkpt lat="40.072842" lon="-105.230575">
  <ele>1586.09</ele>
  <time>2026-08-28T19:10:29Z</time>
  <course>266.03</course>
  <speed>0.0</speed>
  <fix>3d</fix>
</trkpt>
<trkpt lat="40.072842" lon="-105.230575">
  <ele>1586.09</ele>
  <time>2026-08-28T19:10:29Z</time>
  <course>11.79</course>
  <speed>0.0282842712474619</speed>
  <fix>3d</fix>
</trkpt>
<trkpt lat="40.072842" lon="-105.230575">
  <ele>1586.09</ele>
  <time>2026-08-28T19:10:29Z</time>
  <course>266.03</course>
  <speed>0.0</speed>
  <fix>3d</fix>
</trkpt>
<trkpt lat="40.072842" lon="-105.230575">
  <ele>1586.09</ele>
  <time>2026-08-28T19:10:29Z</time>
  <course>11.79</course>
  <speed>0.0282842712474619</speed>
  <fix>3d</fix>
</trkpt>
<trkpt lat="40.072842" lon="-105.230575">
  <ele>1586.09</ele>
  <time>2026-08-28T19:10:29Z</time>
  <course>266.03</course>
  <speed>0.0</speed>
  <fix>3d</fix>
</trkpt>
<trkpt lat="40.072842" lon="-105.230575">
  <ele>1586.09</ele>
  <time>2026-08-28T19:10:29Z</time>
  <course>11.78</course>
  <speed>0.0282842712474619</speed>
  <fix>3d</fix>
</trkpt>
<trkpt lat="40.072842" lon="-105.230575">
  <ele>1586.09</ele>
  <time>2026-08-28T19:10:29Z</time>
  <course>266.03</course>
  <speed>0.0</speed>
  <fix>3d</fix>
</trkpt>
<trkpt lat="40.072842" lon="-105.230575">
  <ele>1586.09</ele>
  <time>2026-08-28T19:10:29Z</time>
  <course>11.77</course>
  <speed>0.0282842712474619</speed>
  <fix>3d</fix>
</trkpt>
<trkpt lat="40.072842" lon="-105.230575">
  <ele>1586.09</ele>
  <time>2026-08-28T19:10:29Z</time>
  <course>266.03</course>
  <speed>0.0</speed>
  <fix>3d</fix>
</trkpt>
<trkpt lat="40.072842" lon="-105.230575">
  <ele>1586.09</ele>
  <time>2026-08-28T19:10:29Z</time>
  <course>11.77</course>
  <speed>0.0282842712474619</speed>
  <fix>3d</fix>
</trkpt>
<trkpt lat="40.072842" lon="-105.230575">
  <ele>1586.09</ele>
  <time>2026-08-28T19:10:29Z</time>
  <course>266.03</course>
  <speed>0.0</speed>
  <fix>3d</fix>
</trkpt>
<trkpt lat="40.072842" lon="-105.230575">
  <ele>1586.09</ele>
  <time>2026-08-28T19:10:29Z</time>
  <course>11.76</course>
  <speed>0.0282842712474619</speed>
  <fix>3d</fix>
</trkpt>
<trkpt lat="40.072842" lon="-105.230575">
  <ele>1586.09</ele>
  <time>2026-08-28T19:10:29Z</time>
  <course>266.03</course>
  <speed>0.0</speed>
  <fix>3d</fix>
</trkpt>
<trkpt lat="40.072842" lon="-105.230575">
  <ele>1586.09</ele>
  <time>2026-08-28T19:10:29Z</time>
  <course>11.75</course>
  <speed>0.0282842712474619</speed>
  <fix>3d</fix>
</trkpt>
<trkpt lat="40.072842" lon="-105.230575">
  <ele>1586.09</ele>
  <time>2026-08-28T19:10:29Z</time>
  <course>266.03</course>
  <speed>0.0</speed>
  <fix>3d</fix>
</trkpt>
<trkpt lat="40.072842" lon="-105.230575">
  <ele>1586.09</ele>
  <time>2026-08-28T19:10:29Z</time>
  <course>11.74</course>
  <speed>0.03605551275463989</speed>
  <fix>3d</fix>
</trkpt>
<trkpt lat="40.072842" lon="-105.230575">
  <ele>1586.09</ele>
  <time>2026-08-28T19:10:29Z</time>
  <course>266.03</course>
  <speed>0.0</speed>
  <fix>3d</fix>
</trkpt>
<trkpt lat="40.072842" lon="-105.230575">
  <ele>1586.09</ele>
  <time>2026-08-28T19:10:29Z</time>
  <course>11.73</course>
  <speed>0.03605551275463989</speed>
  <fix>3d</fix>
</trkpt>
<trkpt lat="40.072842" lon="-105.230575">
  <ele>1586.09</ele>
  <time>2026-08-28T19:10:29Z</time>
  <course>266.03</course>
  <speed>0.0</speed>
  <fix>3d</fix>
</trkpt>
<trkpt lat="40.072842" lon="-105.230575">
  <ele>1586.09</ele>
  <time>2026-08-28T19:10:29Z</time>
  <course>11.73</course>
  <speed>0.03605551275463989</speed>
  <fix>3d</fix>
</trkpt>
<trkpt lat="40.072842" lon="-105.230575">
  <ele>1586.09</ele>
  <time>2026-08-28T19:10:29Z</time>
  <course>266.03</course>
  <speed>0.0</speed>
  <fix>3d</fix>
</trkpt>
<trkpt lat="40.072842" lon="-105.230575">
  <ele>1586.09</ele>
  <time>2026-08-28T19:10:29Z</time>
  <course>11.72</course>
  <speed>0.03605551275463989</speed>
  <fix>3d</fix>
</trkpt>
<trkpt lat="40.072842" lon="-105.230575">
  <ele>1586.09</ele>
  <time>2026-08-28T19:10:29Z</time>
  <course>266.03</course>
  <speed>0.0</speed>
  <fix>3d</fix>
</trkpt>
<trkpt lat="40.072842" lon="-105.230575">
  <ele>1586.09</ele>
  <time>2026-08-28T19:10:29Z</time>
  <course>11.71</course>
  <speed>0.03605551275463989</speed>
  <fix>3d</fix>
</trkpt>
<trkpt lat="40.072842" lon="-105.230575">
  <ele>1586.09</ele>
  <time>2026-08-28T19:10:29Z</time>
  <course>266.03</course>
  <speed>0.0</speed>
  <fix>3d</fix>
</trkpt>
<trkpt lat="40.072842" lon="-105.230575">
  <ele>1586.09</ele>
  <time>2026-08-28T19:10:29Z</time>
  <course>11.71</course>
  <speed>0.03605551275463989</speed>
  <fix>3d</fix>
</trkpt>
<trkpt lat="40.072842" lon="-105.230575">
  <ele>1586.09</ele>
  <time>2026-08-28T19:10:29Z</time>
  <course>266.03</course>
  <speed>0.0</speed>
  <fix>3d</fix>
</trkpt>
<trkpt lat="40.072842" lon="-105.230575">
  <ele>1586.09</ele>
  <time>2026-08-28T19:10:29Z</time>
  <course>11.7</course>
  <speed>0.03605551275463989</speed>
  <fix>3d</fix>
</trkpt>
<trkpt lat="40.072842" lon="-105.230575">
  <ele>1586.09</ele>
  <time>2026-08-28T19:10:29Z</time>
  <course>266.03</course>
  <speed>0.0</speed>
  <fix>3d</fix>
</trkpt>
<trkpt lat="40.072842" lon="-105.230575">
  <ele>1586.09</ele>
  <time>2026-08-28T19:10:29Z</time>
  <course>11.69</course>
  <speed>0.03605551275463989</speed>
  <fix>3d</fix>
</trkpt>
<trkpt lat="40.072842" lon="-105.230575">
  <ele>1586.09</ele>
  <time>2026-08-28T19:10:29Z</time>
  <course>266.03</course>
  <speed>0.0</speed>
  <fix>3d</fix>
</trkpt>
<trkpt lat="40.072842" lon="-105.230575">
  <ele>1586.09</ele>
  <time>2026-08-28T19:10:29Z</time>
  <course>11.68</course>
  <speed>0.03605551275463989</speed>
  <fix>3d</fix>
</trkpt>
<trkpt lat="40.072842" lon="-105.230575">
  <ele>1586.09</ele>
  <time>2026-08-28T19:10:29Z</time>
  <course>266.03</course>
  <speed>0.0</speed>
  <fix>3d</fix>
</trkpt>
<trkpt lat="40.072842" lon="-105.230575">
  <ele>1586.09</ele>
  <time>2026-08-28T19:10:29Z</time>
  <course>11.68</course>
  <speed>0.03605551275463989</speed>
  <fix>3d</fix>
</trkpt>
<trkpt lat="40.072842" lon="-105.230575">
  <ele>1586.09</ele>
  <time>2026-08-28T19:10:29Z</time>
  <course>266.03</course>
  <speed>0.0</speed>
  <fix>3d</fix>
</trkpt>
<trkpt lat="40.072842" lon="-105.230575">
  <ele>1586.09</ele>
  <time>2026-08-28T19:10:29Z</time>
  <course>11.67</course>
  <speed>0.03605551275463989</speed>
  <fix>3d</fix>
</trkpt>
<trkpt lat="40.072842" lon="-105.230575">
  <ele>1586.09</ele>
  <time>2026-08-28T19:10:29Z</time>
  <course>266.03</course>
  <speed>0.0</speed>
  <fix>3d</fix>
</trkpt>
<trkpt lat="40.072842" lon="-105.230575">
  <ele>1586.09</ele>
  <time>2026-08-28T19:10:29Z</time>
  <course>11.66</course>
  <speed>0.03605551275463989</speed>
  <fix>3d</fix>
</trkpt>
<trkpt lat="40.072842" lon="-105.230575">
  <ele>1586.09</ele>
  <time>2026-08-28T19:10:29Z</time>
  <course>266.03</course>
  <speed>0.0</speed>
  <fix>3d</fix>
</trkpt>
<trkpt lat="40.072842" lon="-105.230575">
  <ele>1586.09</ele>
  <time>2026-08-28T19:10:29Z</time>
  <course>11.65</course>
  <speed>0.03605551275463989</speed>
  <fix>3d</fix>
</trkpt>
<trkpt lat="40.072842" lon="-105.230575">
  <ele>1586.09</ele>
  <time>2026-08-28T19:10:29Z</time>
  <course>266.03</course>
  <speed>0.0</speed>
  <fix>3d</fix>
</trkpt>
<trkpt lat="40.072842" lon="-105.230575">
  <ele>1586.09</ele>
  <time>2026-08-28T19:10:29Z</time>
  <course>11.65</course>
  <speed>0.03605551275463989</speed>
  <fix>3d</fix>
</trkpt>
<trkpt lat="40.072842" lon="-105.230575">
  <ele>1586.09</ele>
  <time>2026-08-28T19:10:29Z</time>
  <course>266.03</course>
  <speed>0.0</speed>
  <fix>3d</fix>
</trkpt>
<trkpt lat="40.072842" lon="-105.230575">
  <ele>1586.09</ele>
  <time>2026-08-28T19:10:29Z</time>
  <course>11.64</course>
  <speed>0.03605551275463989</speed>
  <fix>3d</fix>
</trkpt>
<trkpt lat="40.072842" lon="-105.230575">
  <ele>1586.09</ele>
  <time>2026-08-28T19:10:29Z</time>
  <course>266.03</course>
  <speed>0.0</speed>
  <fix>3d</fix>
</trkpt>
<trkpt lat="40.072842" lon="-105.230575">
  <ele>1586.09</ele>
  <time>2026-08-28T19:10:29Z</time>
  <course>11.63</course>
  <speed>0.03605551275463989</speed>
  <fix>3d</fix>
</trkpt>
<trkpt lat="40.072842" lon="-105.230575">
  <ele>1586.09</ele>
  <time>2026-08-28T19:10:29Z</time>
  <course>266.03</course>
  <speed>0.0</speed>
  <fix>3d</fix>
</trkpt>
<trkpt lat="40.072842" lon="-105.230575">
  <ele>1586.09</ele>
  <time>2026-08-28T19:10:29Z</time>
  <course>11.63</course>
  <speed>0.03605551275463989</speed>
  <fix>3d</fix>
</trkpt>
<trkpt lat="40.072842" lon="-105.230575">
  <ele>1586.09</ele>
  <time>2026-08-28T19:10:29Z</time>
  <course>266.03</course>
  <speed>0.0</speed>
  <fix>3d</fix>
</trkpt>
<trkpt lat="40.072842" lon="-105.230575">
  <ele>1586.09</ele>
  <time>2026-08-28T19:10:29Z</time>
  <course>11.62</course>
  <speed>0.03605551275463989</speed>
  <fix>3d</fix>
</trkpt>
<trkpt lat="40.072842" lon="-105.230575">
  <ele>1586.09</ele>
  <time>2026-08-28T19:10:29Z</time>
  <course>266.03</course>
  <speed>0.0</speed>
  <fix>3d</fix>
</trkpt>
<trkpt lat="40.072842" lon="-105.230575">
  <ele>1586.09</ele>
  <time>2026-08-28T19:10:29Z</time>
  <course>11.61</course>
  <speed>0.03605551275463989</speed>
  <fix>3d</fix>
</trkpt>
<trkpt lat="40.072842" lon="-105.230575">
  <ele>1586.09</ele>
  <time>2026-08-28T19:10:29Z</time>
  <course>266.03</course>
  <speed>0.0</speed>
  <fix>3d</fix>
</trkpt>
<trkpt lat="40.072842" lon="-105.230575">
  <ele>1586.09</ele>
  <time>2026-08-28T19:10:29Z</time>
  <course>11.61</course>
  <speed>0.03605551275463989</speed>
  <fix>3d</fix>
</trkpt>
<trkpt lat="40.072842" lon="-105.230575">
  <ele>1586.09</ele>
  <time>2026-08-28T19:10:29Z</time>
  <course>266.03</course>
  <speed>0.0</speed>
  <fix>3d</fix>
</trkpt>
<trkpt lat="40.072842" lon="-105.230575">
  <ele>1586.09</ele>
  <time>2026-08-28T19:10:29Z</time>
  <course>11.6</course>
  <speed>0.03605551275463989</speed>
  <fix>3d</fix>
</trkpt>
<trkpt lat="40.072842" lon="-105.230575">
  <ele>1586.09</ele>
  <time>2026-08-28T19:10:29Z</time>
  <course>266.03</course>
  <speed>0.0</speed>
  <fix>3d</fix>
</trkpt>
<trkpt lat="40.072842" lon="-105.230575">
  <ele>1586.09</ele>
  <time>2026-08-28T19:10:29Z</time>
  <course>11.6</course>
  <speed>0.03605551275463989</speed>
  <fix>3d</fix>
</trkpt>
<trkpt lat="40.072842" lon="-105.230575">
  <ele>1586.09</ele>
  <time>2026-08-28T19:10:29Z</time>
  <course>266.03</course>
  <speed>0.0</speed>
  <fix>3d</fix>
</trkpt>
<trkpt lat="40.072842" lon="-105.230575">
  <ele>1586.09</ele>
  <time>2026-08-28T19:10:29Z</time>
  <course>11.59</course>
  <speed>0.03605551275463989</speed>
  <fix>3d</fix>
</trkpt>
<trkpt lat="40.072842" lon="-105.230575">
  <ele>1586.09</ele>
  <time>2026-08-28T19:10:29Z</time>
  <course>266.03</course>
  <speed>0.0</speed>
  <fix>3d</fix>
</trkpt>
<trkpt lat="40.072842" lon="-105.230575">
  <ele>1586.09</ele>
  <time>2026-08-28T19:10:29Z</time>
  <course>11.58</course>
  <speed>0.03605551275463989</speed>
  <fix>3d</fix>
</trkpt>
<trkpt lat="40.072842" lon="-105.230575">
  <ele>1586.09</ele>
  <time>2026-08-28T19:10:29Z</time>
  <course>266.03</course>
  <speed>0.0</speed>
  <fix>3d</fix>
</trkpt>
<trkpt lat="40.072842" lon="-105.230575">
  <ele>1586.09</ele>
  <time>2026-08-28T19:10:29Z</time>
  <course>11.58</course>
  <speed>0.03605551275463989</speed>
  <fix>3d</fix>
</trkpt>
<trkpt lat="40.072842" lon="-105.230575">
  <ele>1586.09</ele>
  <time>2026-08-28T19:10:29Z</time>
  <course>266.03</course>
  <speed>0.0</speed>
  <fix>3d</fix>
</trkpt>
<trkpt lat="40.072842" lon="-105.230575">
  <ele>1586.09</ele>
  <time>2026-08-28T19:10:29Z</time>
  <course>11.57</course>
  <speed>0.03605551275463989</speed>
  <fix>3d</fix>
</trkpt>
<trkpt lat="40.072842" lon="-105.230575">
  <ele>1586.09</ele>
  <time>2026-08-28T19:10:29Z</time>
  <course>266.03</course>
  <speed>0.0</speed>
  <fix>3d</fix>
</trkpt>
<trkpt lat="40.072842" lon="-105.230575">
  <ele>1586.09</ele>
  <time>2026-08-28T19:10:29Z</time>
  <course>11.56</course>
  <speed>0.03605551275463989</speed>
  <fix>3d</fix>
</trkpt>
<trkpt lat="40.072842" lon="-105.230575">
  <ele>1586.09</ele>
  <time>2026-08-28T19:10:29Z</time>
  <course>266.03</course>
  <speed>0.0</speed>
  <fix>3d</fix>
</trkpt>
<trkpt lat="40.072842" lon="-105.230575">
  <ele>1586.09</ele>
  <time>2026-08-28T19:10:29Z</time>
  <course>11.56</course>
  <speed>0.03605551275463989</speed>
  <fix>3d</fix>
</trkpt>
<trkpt lat="40.072842" lon="-105.230575">
  <ele>1586.09</ele>
  <time>2026-08-28T19:10:29Z</time>
  <course>266.03</course>
  <speed>0.0</speed>
  <fix>3d</fix>
</trkpt>
<trkpt lat="40.072842" lon="-105.230575">
  <ele>1586.09</ele>
  <time>2026-08-28T19:10:29Z</time>
  <course>11.55</course>
  <speed>0.03605551275463989</speed>
  <fix>3d</fix>
</trkpt>
<trkpt lat="40.072842" lon="-105.230575">
  <ele>1586.09</ele>
  <time>2026-08-28T19:10:29Z</time>
  <course>266.03</course>
  <speed>0.0</speed>
  <fix>3d</fix>
</trkpt>
<trkpt lat="40.072842" lon="-105.230575">
  <ele>1586.09</ele>
  <time>2026-08-28T19:10:29Z</time>
  <course>11.55</course>
  <speed>0.03605551275463989</speed>
  <fix>3d</fix>
</trkpt>
<trkpt lat="40.072842" lon="-105.230575">
  <ele>1586.09</ele>
  <time>2026-08-28T19:10:29Z</time>
  <course>266.03</course>
  <speed>0.0</speed>
  <fix>3d</fix>
</trkpt>
<trkpt lat="40.072842" lon="-105.230575">
  <ele>1586.09</ele>
  <time>2026-08-28T19:10:29Z</time>
  <course>11.54</course>
  <speed>0.03605551275463989</speed>
  <fix>3d</fix>
</trkpt>
<trkpt lat="40.072842" lon="-105.230575">
  <ele>1586.09</ele>
  <time>2026-08-28T19:10:29Z</time>
  <course>266.03</course>
  <speed>0.0</speed>
  <fix>3d</fix>
</trkpt>
<trkpt lat="40.072842" lon="-105.230575">
  <ele>1586.09</ele>
  <time>2026-08-28T19:10:29Z</time>
  <course>11.53</course>
  <speed>0.03605551275463989</speed>
  <fix>3d</fix>
</trkpt>
<trkpt lat="40.072842" lon="-105.230575">
  <ele>1586.09</ele>
  <time>2026-08-28T19:10:29Z</time>
  <course>266.03</course>
  <speed>0.0</speed>
  <fix>3d</fix>
</trkpt>
<trkpt lat="40.072842" lon="-105.230575">
  <ele>1586.09</ele>
  <time>2026-08-28T19:10:29Z</time>
  <course>11.53</course>
  <speed>0.03605551275463989</speed>
  <fix>3d</fix>
</trkpt>
<trkpt lat="40.072842" lon="-105.230575">
  <ele>1586.09</ele>
  <time>2026-08-28T19:10:29Z</time>
  <course>266.03</course>
  <speed>0.0</speed>
  <fix>3d</fix>
</trkpt>
<trkpt lat="40.072842" lon="-105.230575">
  <ele>1586.09</ele>
  <time>2026-08-28T19:10:29Z</time>
  <course>11.52</course>
  <speed>0.03605551275463989</speed>
  <fix>3d</fix>
</trkpt>
<trkpt lat="40.072842" lon="-105.230575">
  <ele>1586.09</ele>
  <time>2026-08-28T19:10:29Z</time>
  <course>266.03</course>
  <speed>0.0</speed>
  <fix>3d</fix>
</trkpt>
<trkpt lat="40.072842" lon="-105.230575">
  <ele>1586.09</ele>
  <time>2026-08-28T19:10:29Z</time>
  <course>11.52</course>
  <speed>0.03605551275463989</speed>
  <fix>3d</fix>
</trkpt>
<trkpt lat="40.072842" lon="-105.230575">
  <ele>1586.09</ele>
  <time>2026-08-28T19:10:29Z</time>
  <course>266.03</course>
  <speed>0.0</speed>
  <fix>3d</fix>
</trkpt>
<trkpt lat="40.072842" lon="-105.230575">
  <ele>1586.09</ele>
  <time>2026-08-28T19:10:29Z</time>
  <course>11.51</course>
  <speed>0.03605551275463989</speed>
  <fix>3d</fix>
</trkpt>
<trkpt lat="40.072842" lon="-105.230575">
  <ele>1586.09</ele>
  <time>2026-08-28T19:10:29Z</time>
  <course>266.03</course>
  <speed>0.0</speed>
  <fix>3d</fix>
</trkpt>
<trkpt lat="40.072842" lon="-105.230575">
  <ele>1586.09</ele>
  <time>2026-08-28T19:10:29Z</time>
  <course>11.51</course>
  <speed>0.03605551275463989</speed>
  <fix>3d</fix>
</trkpt>
<trkpt lat="40.072842" lon="-105.230575">
  <ele>1586.09</ele>
  <time>2026-08-28T19:10:29Z</time>
  <course>266.03</course>
  <speed>0.0</speed>
  <fix>3d</fix>
</trkpt>
<trkpt lat="40.072842" lon="-105.230575">
  <ele>1586.09</ele>
  <time>2026-08-28T19:10:29Z</time>
  <course>11.5</course>
  <speed>0.044721359549995794</speed>
  <fix>3d</fix>
</trkpt>
<trkpt lat="40.072842" lon="-105.230575">
  <ele>1586.09</ele>
  <time>2026-08-28T19:10:29Z</time>
  <course>266.03</course>
  <speed>0.0</speed>
  <fix>3d</fix>
</trkpt>
<trkpt lat="40.072842" lon="-105.230575">
  <ele>1586.09</ele>
  <time>2026-08-28T19:10:29Z</time>
  <course>11.49</course>
  <speed>0.044721359549995794</speed>
  <fix>3d</fix>
</trkpt>
<trkpt lat="40.072842" lon="-105.230575">
  <ele>1586.09</ele>
  <time>2026-08-28T19:10:29Z</time>
  <course>266.03</course>
  <speed>0.0</speed>
  <fix>3d</fix>
</trkpt>
<trkpt lat="40.072842" lon="-105.230575">
  <ele>1586.09</ele>
  <time>2026-08-28T19:10:29Z</time>
  <course>11.49</course>
  <speed>0.044721359549995794</speed>
  <fix>3d</fix>
</trkpt>
<trkpt lat="40.072842" lon="-105.230575">
  <ele>1586.09</ele>
  <time>2026-08-28T19:10:29Z</time>
  <course>266.03</course>
  <speed>0.0</speed>
  <fix>3d</fix>
</trkpt>
<trkpt lat="40.072842" lon="-105.230575">
  <ele>1586.09</ele>
  <time>2026-08-28T19:10:29Z</time>
  <course>11.48</course>
  <speed>0.044721359549995794</speed>
  <fix>3d</fix>
</trkpt>
<trkpt lat="40.072842" lon="-105.230575">
  <ele>1586.09</ele>
  <time>2026-08-28T19:10:29Z</time>
  <course>266.03</course>
  <speed>0.0</speed>
  <fix>3d</fix>
</trkpt>
<trkpt lat="40.072842" lon="-105.230575">
  <ele>1586.09</ele>
  <time>2026-08-28T19:10:29Z</time>
  <course>11.48</course>
  <speed>0.044721359549995794</speed>
  <fix>3d</fix>
</trkpt>
<trkpt lat="40.072842" lon="-105.230575">
  <ele>1586.09</ele>
  <time>2026-08-28T19:10:29Z</time>
  <course>266.03</course>
  <speed>0.0</speed>
  <fix>3d</fix>
</trkpt>
<trkpt lat="40.072842" lon="-105.230575">
  <ele>1586.09</ele>
  <time>2026-08-28T19:10:29Z</time>
  <course>11.47</course>
  <speed>0.044721359549995794</speed>
  <fix>3d</fix>
</trkpt>
<trkpt lat="40.072842" lon="-105.230575">
  <ele>1586.09</ele>
  <time>2026-08-28T19:10:29Z</time>
  <course>266.03</course>
  <speed>0.0</speed>
  <fix>3d</fix>
</trkpt>
<trkpt lat="40.072842" lon="-105.230575">
  <ele>1586.09</ele>
  <time>2026-08-28T19:10:30Z</time>
  <course>11.47</course>
  <speed>0.044721359549995794</speed>
  <fix>3d</fix>
</trkpt>
<trkpt lat="40.072842" lon="-105.230575">
  <ele>1586.09</ele>
  <time>2026-08-28T19:10:30Z</time>
  <course>266.03</course>
  <speed>0.0</speed>
  <fix>3d</fix>
</trkpt>
<trkpt lat="40.072842" lon="-105.230575">
  <ele>1586.09</ele>
  <time>2026-08-28T19:10:30Z</time>
  <course>11.47</course>
  <speed>0.044721359549995794</speed>
  <fix>3d</fix>
</trkpt>
<trkpt lat="40.072842" lon="-105.230575">
  <ele>1586.09</ele>
  <time>2026-08-28T19:10:30Z</time>
  <course>266.03</course>
  <speed>0.0</speed>
  <fix>3d</fix>
</trkpt>
<trkpt lat="40.072842" lon="-105.230575">
  <ele>1586.09</ele>
  <time>2026-08-28T19:10:30Z</time>
  <course>11.46</course>
  <speed>0.044721359549995794</speed>
  <fix>3d</fix>
</trkpt>
<trkpt lat="40.072842" lon="-105.230575">
  <ele>1586.09</ele>
  <time>2026-08-28T19:10:30Z</time>
  <course>266.03</course>
  <speed>0.0</speed>
  <fix>3d</fix>
</trkpt>
<trkpt lat="40.072842" lon="-105.230575">
  <ele>1586.16</ele>
  <time>2026-08-28T19:10:30Z</time>
  <course>11.45</course>
  <speed>0.0</speed>
  <fix>3d</fix>
</trkpt>
<trkpt lat="40.072842" lon="-105.230575">
  <ele>1586.09</ele>
  <time>2026-08-28T19:10:30Z</time>
  <course>266.03</course>
  <speed>0.0</speed>
  <fix>3d</fix>
</trkpt>
<trkpt lat="40.072842" lon="-105.230575">
  <ele>1586.16</ele>
  <time>2026-08-28T19:10:30Z</time>
  <course>11.45</course>
  <speed>0.0</speed>
  <fix>3d</fix>
</trkpt>
<trkpt lat="40.072842" lon="-105.230575">
  <ele>1586.09</ele>
  <time>2026-08-28T19:10:30Z</time>
  <course>266.03</course>
  <speed>0.0</speed>
  <fix>3d</fix>
</trkpt>
<trkpt lat="40.072842" lon="-105.230575">
  <ele>1586.16</ele>
  <time>2026-08-28T19:10:30Z</time>
  <course>11.44</course>
  <speed>0.0</speed>
  <fix>3d</fix>
</trkpt>
<trkpt lat="40.072842" lon="-105.230575">
  <ele>1586.09</ele>
  <time>2026-08-28T19:10:30Z</time>
  <course>266.03</course>
  <speed>0.0</speed>
  <fix>3d</fix>
</trkpt>
<trkpt lat="40.072842" lon="-105.230575">
  <ele>1586.16</ele>
  <time>2026-08-28T19:10:30Z</time>
  <course>11.44</course>
  <speed>0.0</speed>
  <fix>3d</fix>
</trkpt>
<trkpt lat="40.072842" lon="-105.230575">
  <ele>1586.09</ele>
  <time>2026-08-28T19:10:30Z</time>
  <course>266.03</course>
  <speed>0.0</speed>
  <fix>3d</fix>
</trkpt>
<trkpt lat="40.072842" lon="-105.230575">
  <ele>1586.17</ele>
  <time>2026-08-28T19:10:30Z</time>
  <course>11.44</course>
  <speed>0.0</speed>
  <fix>3d</fix>
</trkpt>
<trkpt lat="40.072842" lon="-105.230575">
  <ele>1586.09</ele>
  <time>2026-08-28T19:10:30Z</time>
  <course>266.03</course>
  <speed>0.0</speed>
  <fix>3d</fix>
</trkpt>
<trkpt lat="40.072842" lon="-105.230575">
  <ele>1586.17</ele>
  <time>2026-08-28T19:10:30Z</time>
  <course>11.43</course>
  <speed>0.01</speed>
  <fix>3d</fix>
</trkpt>
<trkpt lat="40.072842" lon="-105.230575">
  <ele>1586.09</ele>
  <time>2026-08-28T19:10:30Z</time>
  <course>266.03</course>
  <speed>0.0</speed>
  <fix>3d</fix>
</trkpt>
<trkpt lat="40.072842" lon="-105.230575">
  <ele>1586.17</ele>
  <time>2026-08-28T19:10:30Z</time>
  <course>11.43</course>
  <speed>0.01</speed>
  <fix>3d</fix>
</trkpt>
<trkpt lat="40.072842" lon="-105.230575">
  <ele>1586.09</ele>
  <time>2026-08-28T19:10:30Z</time>
  <course>266.03</course>
  <speed>0.0</speed>
  <fix>3d</fix>
</trkpt>
<trkpt lat="40.072842" lon="-105.230575">
  <ele>1586.17</ele>
  <time>2026-08-28T19:10:30Z</time>
  <course>11.42</course>
  <speed>0.01</speed>
  <fix>3d</fix>
</trkpt>
<trkpt lat="40.072842" lon="-105.230575">
  <ele>1586.09</ele>
  <time>2026-08-28T19:10:30Z</time>
  <course>266.03</course>
  <speed>0.0</speed>
  <fix>3d</fix>
</trkpt>
<trkpt lat="40.072842" lon="-105.230575">
  <ele>1586.17</ele>
  <time>2026-08-28T19:10:30Z</time>
  <course>11.42</course>
  <speed>0.01414213562373095</speed>
  <fix>3d</fix>
</trkpt>
<trkpt lat="40.072842" lon="-105.230575">
  <ele>1586.09</ele>
  <time>2026-08-28T19:10:30Z</time>
  <course>266.03</course>
  <speed>0.0</speed>
  <fix>3d</fix>
</trkpt>
<trkpt lat="40.072842" lon="-105.230575">
  <ele>1586.17</ele>
  <time>2026-08-28T19:10:30Z</time>
  <course>11.42</course>
  <speed>0.01414213562373095</speed>
  <fix>3d</fix>
</trkpt>
<trkpt lat="40.072842" lon="-105.230575">
  <ele>1586.09</ele>
  <time>2026-08-28T19:10:30Z</time>
  <course>266.03</course>
  <speed>0.0</speed>
  <fix>3d</fix>
</trkpt>
<trkpt lat="40.072842" lon="-105.230575">
  <ele>1586.17</ele>
  <time>2026-08-28T19:10:30Z</time>
  <course>11.41</course>
  <speed>0.01414213562373095</speed>
  <fix>3d</fix>
</trkpt>
<trkpt lat="40.072842" lon="-105.230575">
  <ele>1586.09</ele>
  <time>2026-08-28T19:10:30Z</time>
  <course>266.03</course>
  <speed>0.0</speed>
  <fix>3d</fix>
</trkpt>
<trkpt lat="40.072842" lon="-105.230575">
  <ele>1586.17</ele>
  <time>2026-08-28T19:10:30Z</time>
  <course>11.41</course>
  <speed>0.022360679774997897</speed>
  <fix>3d</fix>
</trkpt>
<trkpt lat="40.072842" lon="-105.230575">
  <ele>1586.09</ele>
  <time>2026-08-28T19:10:30Z</time>
  <course>266.03</course>
  <speed>0.0</speed>
  <fix>3d</fix>
</trkpt>
<trkpt lat="40.072842" lon="-105.230575">
  <ele>1586.17</ele>
  <time>2026-08-28T19:10:30Z</time>
  <course>11.4</course>
  <speed>0.022360679774997897</speed>
  <fix>3d</fix>
</trkpt>
<trkpt lat="40.072842" lon="-105.230575">
  <ele>1586.09</ele>
  <time>2026-08-28T19:10:30Z</time>
  <course>201.76</course>
  <speed>0.0</speed>
  <fix>3d</fix>
</trkpt>
<trkpt lat="40.072842" lon="-105.230575">
  <ele>1586.17</ele>
  <time>2026-08-28T19:10:30Z</time>
  <course>11.4</course>
  <speed>0.022360679774997897</speed>
  <fix>3d</fix>
</trkpt>
<trkpt lat="40.072842" lon="-105.230575">
  <ele>1586.09</ele>
  <time>2026-08-28T19:10:30Z</time>
  <course>250.45</course>
  <speed>0.0</speed>
  <fix>3d</fix>
</trkpt>
<trkpt lat="40.072842" lon="-105.230575">
  <ele>1586.17</ele>
  <time>2026-08-28T19:10:30Z</time>
  <course>11.4</course>
  <speed>0.022360679774997897</speed>
  <fix>3d</fix>
</trkpt>
<trkpt lat="40.072842" lon="-105.230575">
  <ele>1586.09</ele>
  <time>2026-08-28T19:10:30Z</time>
  <course>265.7</course>
  <speed>0.0</speed>
  <fix>3d</fix>
</trkpt>
<trkpt lat="40.072842" lon="-105.230575">
  <ele>1586.17</ele>
  <time>2026-08-28T19:10:30Z</time>
  <course>11.39</course>
  <speed>0.01414213562373095</speed>
  <fix>3d</fix>
</trkpt>
<trkpt lat="40.072842" lon="-105.230575">
  <ele>1586.09</ele>
  <time>2026-08-28T19:10:30Z</time>
  <course>261.83</course>
  <speed>0.0</speed>
  <fix>3d</fix>
</trkpt>
<trkpt lat="40.072842" lon="-105.230575">
  <ele>1586.17</ele>
  <time>2026-08-28T19:10:30Z</time>
  <course>11.39</course>
  <speed>0.01414213562373095</speed>
  <fix>3d</fix>
</trkpt>
<trkpt lat="40.072842" lon="-105.230575">
  <ele>1586.09</ele>
  <time>2026-08-28T19:10:30Z</time>
  <course>266.9</course>
  <speed>0.0</speed>
  <fix>3d</fix>
</trkpt>
<trkpt lat="40.072842" lon="-105.230575">
  <ele>1586.17</ele>
  <time>2026-08-28T19:10:30Z</time>
  <course>11.38</course>
  <speed>0.01</speed>
  <fix>3d</fix>
</trkpt>
<trkpt lat="40.072842" lon="-105.230575">
  <ele>1586.09</ele>
  <time>2026-08-28T19:10:30Z</time>
  <course>266.49</course>
  <speed>0.0</speed>
  <fix>3d</fix>
</trkpt>
<trkpt lat="40.072842" lon="-105.230575">
  <ele>1586.17</ele>
  <time>2026-08-28T19:10:30Z</time>
  <course>11.38</course>
  <speed>0.0</speed>
  <fix>3d</fix>
</trkpt>
<trkpt lat="40.072842" lon="-105.230575">
  <ele>1586.09</ele>
  <time>2026-08-28T19:10:30Z</time>
  <course>265.87</course>
  <speed>0.0</speed>
  <fix>3d</fix>
</trkpt>
<trkpt lat="40.072842" lon="-105.230575">
  <ele>1586.17</ele>
  <time>2026-08-28T19:10:30Z</time>
  <course>11.38</course>
  <speed>0.0</speed>
  <fix>3d</fix>
</trkpt>
<trkpt lat="40.072842" lon="-105.230575">
  <ele>1586.09</ele>
  <time>2026-08-28T19:10:30Z</time>
  <course>265.99</course>
  <speed>0.0</speed>
  <fix>3d</fix>
</trkpt>
<trkpt lat="40.072842" lon="-105.230575">
  <ele>1586.17</ele>
  <time>2026-08-28T19:10:30Z</time>
  <course>11.37</course>
  <speed>0.0</speed>
  <fix>3d</fix>
</trkpt>
<trkpt lat="40.072842" lon="-105.230575">
  <ele>1586.09</ele>
  <time>2026-08-28T19:10:30Z</time>
  <course>266.06</course>
  <speed>0.0</speed>
  <fix>3d</fix>
</trkpt>
<trkpt lat="40.072842" lon="-105.230575">
  <ele>1586.17</ele>
  <time>2026-08-28T19:10:30Z</time>
  <course>11.37</course>
  <speed>0.0</speed>
  <fix>3d</fix>
</trkpt>
<trkpt lat="40.072842" lon="-105.230575">
  <ele>1586.09</ele>
  <time>2026-08-28T19:10:30Z</time>
  <course>266.04</course>
  <speed>0.0</speed>
  <fix>3d</fix>
</trkpt>
<trkpt lat="40.072842" lon="-105.230575">
  <ele>1586.17</ele>
  <time>2026-08-28T19:10:30Z</time>
  <course>11.37</course>
  <speed>0.0</speed>
  <fix>3d</fix>
</trkpt>
<trkpt lat="40.072842" lon="-105.230575">
  <ele>1586.09</ele>
  <time>2026-08-28T19:10:30Z</time>
  <course>266.03</course>
  <speed>0.0</speed>
  <fix>3d</fix>
</trkpt>
<trkpt lat="40.072842" lon="-105.230575">
  <ele>1586.17</ele>
  <time>2026-08-28T19:10:30Z</time>
  <course>11.36</course>
  <speed>0.0</speed>
  <fix>3d</fix>
</trkpt>
<trkpt lat="40.072842" lon="-105.230575">
  <ele>1586.09</ele>
  <time>2026-08-28T19:10:30Z</time>
  <course>266.03</course>
  <speed>0.0</speed>
  <fix>3d</fix>
</trkpt>
<trkpt lat="40.072842" lon="-105.230575">
  <ele>1586.17</ele>
  <time>2026-08-28T19:10:30Z</time>
  <course>11.36</course>
  <speed>0.0</speed>
  <fix>3d</fix>
</trkpt>
<trkpt lat="40.072842" lon="-105.230575">
  <ele>1586.09</ele>
  <time>2026-08-28T19:10:30Z</time>
  <course>266.03</course>
  <speed>0.0</speed>
  <fix>3d</fix>
</trkpt>
<trkpt lat="40.072842" lon="-105.230575">
  <ele>1586.17</ele>
  <time>2026-08-28T19:10:30Z</time>
  <course>11.36</course>
  <speed>0.0</speed>
  <fix>3d</fix>
</trkpt>
<trkpt lat="40.072842" lon="-105.230575">
  <ele>1586.09</ele>
  <time>2026-08-28T19:10:30Z</time>
  <course>265.98</course>
  <speed>0.0</speed>
  <fix>3d</fix>
</trkpt>
<trkpt lat="40.072842" lon="-105.230575">
  <ele>1586.17</ele>
  <time>2026-08-28T19:10:30Z</time>
  <course>11.35</course>
  <speed>0.0</speed>
  <fix>3d</fix>
</trkpt>
<trkpt lat="40.072842" lon="-105.230575">
  <ele>1586.09</ele>
  <time>2026-08-28T19:10:30Z</time>
  <course>265.88</course>
  <speed>0.0</speed>
  <fix>3d</fix>
</trkpt>
<trkpt lat="40.072842" lon="-105.230575">
  <ele>1586.16</ele>
  <time>2026-08-28T19:10:30Z</time>
  <course>11.34</course>
  <speed>0.0</speed>
  <fix>3d</fix>
</trkpt>
<trkpt lat="40.072842" lon="-105.230575">
  <ele>1586.09</ele>
  <time>2026-08-28T19:10:30Z</time>
  <course>265.77</course>
  <speed>0.0</speed>
  <fix>3d</fix>
</trkpt>
<trkpt lat="40.072842" lon="-105.230575">
  <ele>1586.16</ele>
  <time>2026-08-28T19:10:30Z</time>
  <course>11.33</course>
  <speed>0.0</speed>
  <fix>3d</fix>
</trkpt>
<trkpt lat="40.072842" lon="-105.230575">
  <ele>1586.09</ele>
  <time>2026-08-28T19:10:30Z</time>
  <course>265.67</course>
  <speed>0.0</speed>
  <fix>3d</fix>
</trkpt>
<trkpt lat="40.072842" lon="-105.230575">
  <ele>1586.16</ele>
  <time>2026-08-28T19:10:30Z</time>
  <course>11.32</course>
  <speed>0.0</speed>
  <fix>3d</fix>
</trkpt>
<trkpt lat="40.072842" lon="-105.230575">
  <ele>1586.09</ele>
  <time>2026-08-28T19:10:30Z</time>
  <course>271.87</course>
  <speed>0.0</speed>
  <fix>3d</fix>
</trkpt>
<trkpt lat="40.072842" lon="-105.230575">
  <ele>1586.16</ele>
  <time>2026-08-28T19:10:30Z</time>
  <course>11.31</course>
  <speed>0.0</speed>
  <fix>3d</fix>
</trkpt>
<trkpt lat="40.072842" lon="-105.230575">
  <ele>1586.09</ele>
  <time>2026-08-28T19:10:30Z</time>
  <course>263.64</course>
  <speed>0.0</speed>
  <fix>3d</fix>
</trkpt>
<trkpt lat="40.072842" lon="-105.230575">
  <ele>1586.16</ele>
  <time>2026-08-28T19:10:30Z</time>
  <course>11.3</course>
  <speed>0.0</speed>
  <fix>3d</fix>
</trkpt>
<trkpt lat="40.072842" lon="-105.230575">
  <ele>1586.09</ele>
  <time>2026-08-28T19:10:30Z</time>
  <course>167.11</course>
  <speed>0.0</speed>
  <fix>3d</fix>
</trkpt>
<trkpt lat="40.072842" lon="-105.230575">
  <ele>1586.16</ele>
  <time>2026-08-28T19:10:30Z</time>
  <course>11.28</course>
  <speed>0.0</speed>
  <fix>3d</fix>
</trkpt>
<trkpt lat="40.072842" lon="-105.230575">
  <ele>1586.09</ele>
  <time>2026-08-28T19:10:30Z</time>
  <course>64.34</course>
  <speed>0.0</speed>
  <fix>3d</fix>
</trkpt>
<trkpt lat="40.072842" lon="-105.230575">
  <ele>1586.16</ele>
  <time>2026-08-28T19:10:30Z</time>
  <course>11.27</course>
  <speed>0.0</speed>
  <fix>3d</fix>
</trkpt>
<trkpt lat="40.072842" lon="-105.230575">
  <ele>1586.09</ele>
  <time>2026-08-28T19:10:30Z</time>
  <course>274.88</course>
  <speed>0.0</speed>
  <fix>3d</fix>
</trkpt>
<trkpt lat="40.072842" lon="-105.230575">
  <ele>1586.16</ele>
  <time>2026-08-28T19:10:30Z</time>
  <course>11.25</course>
  <speed>0.0</speed>
  <fix>3d</fix>
</trkpt>
<trkpt lat="40.072842" lon="-105.230575">
  <ele>1586.09</ele>
  <time>2026-08-28T19:10:30Z</time>
  <course>260.44</course>
  <speed>0.0</speed>
  <fix>3d</fix>
</trkpt>
<trkpt lat="40.072842" lon="-105.230575">
  <ele>1586.16</ele>
  <time>2026-08-28T19:10:30Z</time>
  <course>11.23</course>
  <speed>0.0</speed>
  <fix>3d</fix>
</trkpt>
<trkpt lat="40.072842" lon="-105.230575">
  <ele>1586.09</ele>
  <time>2026-08-28T19:10:30Z</time>
  <course>263.53</course>
  <speed>0.0</speed>
  <fix>3d</fix>
</trkpt>
<trkpt lat="40.072842" lon="-105.230575">
  <ele>1586.16</ele>
  <time>2026-08-28T19:10:30Z</time>
  <course>11.21</course>
  <speed>0.0</speed>
  <fix>3d</fix>
</trkpt>
<trkpt lat="40.072842" lon="-105.230575">
  <ele>1586.09</ele>
  <time>2026-08-28T19:10:30Z</time>
  <course>265.76</course>
  <speed>0.0</speed>
  <fix>3d</fix>
</trkpt>
<trkpt lat="40.072842" lon="-105.230575">
  <ele>1586.16</ele>
  <time>2026-08-28T19:10:30Z</time>
  <course>11.19</course>
  <speed>0.0</speed>
  <fix>3d</fix>
</trkpt>
<trkpt lat="40.072842" lon="-105.230575">
  <ele>1586.09</ele>
  <time>2026-08-28T19:10:30Z</time>
  <course>265.99</course>
  <speed>0.0</speed>
  <fix>3d</fix>
</trkpt>
<trkpt lat="40.072842" lon="-105.230575">
  <ele>1586.16</ele>
  <time>2026-08-28T19:10:30Z</time>
  <course>11.17</course>
  <speed>0.0</speed>
  <fix>3d</fix>
</trkpt>
<trkpt lat="40.072842" lon="-105.230575">
  <ele>1586.09</ele>
  <time>2026-08-28T19:10:30Z</time>
  <course>269.21</course>
  <speed>0.0</speed>
  <fix>3d</fix>
</trkpt>
<trkpt lat="40.072842" lon="-105.230575">
  <ele>1586.16</ele>
  <time>2026-08-28T19:10:30Z</time>
  <course>11.14</course>
  <speed>0.0</speed>
  <fix>3d</fix>
</trkpt>
<trkpt lat="40.072842" lon="-105.230575">
  <ele>1586.09</ele>
  <time>2026-08-28T19:10:30Z</time>
  <course>269.25</course>
  <speed>0.0</speed>
  <fix>3d</fix>
</trkpt>
<trkpt lat="40.072842" lon="-105.230575">
  <ele>1586.16</ele>
  <time>2026-08-28T19:10:30Z</time>
  <course>11.12</course>
  <speed>0.0</speed>
  <fix>3d</fix>
</trkpt>
<trkpt lat="40.072842" lon="-105.230575">
  <ele>1586.09</ele>
  <time>2026-08-28T19:10:30Z</time>
  <course>267.95</course>
  <speed>0.0</speed>
  <fix>3d</fix>
</trkpt>
<trkpt lat="40.072842" lon="-105.230575">
  <ele>1586.16</ele>
  <time>2026-08-28T19:10:30Z</time>
  <course>11.09</course>
  <speed>0.01</speed>
  <fix>3d</fix>
</trkpt>
<trkpt lat="40.072842" lon="-105.230575">
  <ele>1586.09</ele>
  <time>2026-08-28T19:10:30Z</time>
  <course>268.16</course>
  <speed>0.0</speed>
  <fix>3d</fix>
</trkpt>
<trkpt lat="40.072842" lon="-105.230575">
  <ele>1586.16</ele>
  <time>2026-08-28T19:10:30Z</time>
  <course>11.06</course>
  <speed>0.01</speed>
  <fix>3d</fix>
</trkpt>
<trkpt lat="40.072842" lon="-105.230575">
  <ele>1586.09</ele>
  <time>2026-08-28T19:10:30Z</time>
  <course>268.4</course>
  <speed>0.0</speed>
  <fix>3d</fix>
</trkpt>
<trkpt lat="40.072842" lon="-105.230575">
  <ele>1586.16</ele>
  <time>2026-08-28T19:10:30Z</time>
  <course>11.03</course>
  <speed>0.01</speed>
  <fix>3d</fix>
</trkpt>
<trkpt lat="40.072842" lon="-105.230575">
  <ele>1586.09</ele>
  <time>2026-08-28T19:10:30Z</time>
  <course>269.39</course>
  <speed>0.0</speed>
  <fix>3d</fix>
</trkpt>
<trkpt lat="40.072842" lon="-105.230575">
  <ele>1586.16</ele>
  <time>2026-08-28T19:10:30Z</time>
  <course>11.0</course>
  <speed>0.01</speed>
  <fix>3d</fix>
</trkpt>
<trkpt lat="40.072842" lon="-105.230575">
  <ele>1586.09</ele>
  <time>2026-08-28T19:10:30Z</time>
  <course>269.43</course>
  <speed>0.0</speed>
  <fix>3d</fix>
</trkpt>
<trkpt lat="40.072842" lon="-105.230575">
  <ele>1586.16</ele>
  <time>2026-08-28T19:10:30Z</time>
  <course>10.96</course>
  <speed>0.01</speed>
  <fix>3d</fix>
</trkpt>
<trkpt lat="40.072842" lon="-105.230575">
  <ele>1586.09</ele>
  <time>2026-08-28T19:10:30Z</time>
  <course>290.2</course>
  <speed>0.0</speed>
  <fix>3d</fix>
</trkpt>
<trkpt lat="40.072842" lon="-105.230575">
  <ele>1586.16</ele>
  <time>2026-08-28T19:10:30Z</time>
  <course>10.93</course>
  <speed>0.01414213562373095</speed>
  <fix>3d</fix>
</trkpt>
<trkpt lat="40.072842" lon="-105.230575">
  <ele>1586.09</ele>
  <time>2026-08-28T19:10:30Z</time>
  <course>312.95</course>
  <speed>0.0</speed>
  <fix>3d</fix>
</trkpt>
<trkpt lat="40.072842" lon="-105.230575">
  <ele>1586.17</ele>
  <time>2026-08-28T19:10:30Z</time>
  <course>10.89</course>
  <speed>0.01414213562373095</speed>
  <fix>3d</fix>
</trkpt>
<trkpt lat="40.072842" lon="-105.230575">
  <ele>1586.09</ele>
  <time>2026-08-28T19:10:30Z</time>
  <course>289.07</course>
  <speed>0.0</speed>
  <fix>3d</fix>
</trkpt>
<trkpt lat="40.072842" lon="-105.230575">
  <ele>1586.17</ele>
  <time>2026-08-28T19:10:30Z</time>
  <course>10.86</course>
  <speed>0.01414213562373095</speed>
  <fix>3d</fix>
</trkpt>
<trkpt lat="40.072842" lon="-105.230575">
  <ele>1586.09</ele>
  <time>2026-08-28T19:10:30Z</time>
  <course>262.64</course>
  <speed>0.0</speed>
  <fix>3d</fix>
</trkpt>
<trkpt lat="40.072842" lon="-105.230575">
  <ele>1586.17</ele>
  <time>2026-08-28T19:10:30Z</time>
  <course>10.82</course>
  <speed>0.01414213562373095</speed>
  <fix>3d</fix>
</trkpt>
<trkpt lat="40.072842" lon="-105.230575">
  <ele>1586.09</ele>
  <time>2026-08-28T19:10:30Z</time>
  <course>269.05</course>
  <speed>0.0</speed>
  <fix>3d</fix>
</trkpt>
<trkpt lat="40.072842" lon="-105.230575">
  <ele>1586.17</ele>
  <time>2026-08-28T19:10:30Z</time>
  <course>10.78</course>
  <speed>0.01414213562373095</speed>
  <fix>3d</fix>
</trkpt>
<trkpt lat="40.072842" lon="-105.230575">
  <ele>1586.09</ele>
  <time>2026-08-28T19:10:30Z</time>
  <course>275.48</course>
  <speed>0.0</speed>
  <fix>3d</fix>
</trkpt>
<trkpt lat="40.0728419" lon="-105.230575">
  <ele>1586.17</ele>
  <time>2026-08-28T19:10:30Z</time>
  <course>10.74</course>
  <speed>0.01414213562373095</speed>
  <fix>3d</fix>
</trkpt>
<trkpt lat="40.072842" lon="-105.230575">
  <ele>1586.09</ele>
  <time>2026-08-28T19:10:30Z</time>
  <course>269.93</course>
  <speed>0.0</speed>
  <fix>3d</fix>
</trkpt>
<trkpt lat="40.0728419" lon="-105.230575">
  <ele>1586.17</ele>
  <time>2026-08-28T19:10:30Z</time>
  <course>10.7</course>
  <speed>0.022360679774997897</speed>
  <fix>3d</fix>
</trkpt>
<trkpt lat="40.072842" lon="-105.230575">
  <ele>1586.09</ele>
  <time>2026-08-28T19:10:30Z</time>
  <course>269.56</course>
  <speed>0.0</speed>
  <fix>3d</fix>
</trkpt>
<trkpt lat="40.0728419" lon="-105.230575">
  <ele>1586.17</ele>
  <time>2026-08-28T19:10:30Z</time>
  <course>10.65</course>
  <speed>0.022360679774997897</speed>
  <fix>3d</fix>
</trkpt>
<trkpt lat="40.072842" lon="-105.230575">
  <ele>1586.09</ele>
  <time>2026-08-28T19:10:30Z</time>
  <course>269.72</course>
  <speed>0.0</speed>
  <fix>3d</fix>
</trkpt>
<trkpt lat="40.0728419" lon="-105.2305749">
  <ele>1586.17</ele>
  <time>2026-08-28T19:10:30Z</time>
  <course>10.61</course>
  <speed>0.022360679774997897</speed>
  <fix>3d</fix>
</trkpt>
<trkpt lat="40.072842" lon="-105.230575">
  <ele>1586.09</ele>
  <time>2026-08-28T19:10:30Z</time>
  <course>270.21</course>
  <speed>0.0</speed>
  <fix>3d</fix>
</trkpt>
<trkpt lat="40.0728419" lon="-105.2305749">
  <ele>1586.17</ele>
  <time>2026-08-28T19:10:30Z</time>
  <course>10.56</course>
  <speed>0.022360679774997897</speed>
  <fix>3d</fix>
</trkpt>
<trkpt lat="40.072842" lon="-105.230575">
  <ele>1586.09</ele>
  <time>2026-08-28T19:10:30Z</time>
  <course>269.4</course>
  <speed>0.0</speed>
  <fix>3d</fix>
</trkpt>
<trkpt lat="40.0728419" lon="-105.2305749">
  <ele>1586.17</ele>
  <time>2026-08-28T19:10:30Z</time>
  <course>10.52</course>
  <speed>0.022360679774997897</speed>
  <fix>3d</fix>
</trkpt>
<trkpt lat="40.072842" lon="-105.230575">
  <ele>1586.09</ele>
  <time>2026-08-28T19:10:30Z</time>
  <course>269.32</course>
  <speed>0.0</speed>
  <fix>3d</fix>
</trkpt>
<trkpt lat="40.0728419" lon="-105.2305749">
  <ele>1586.17</ele>
  <time>2026-08-28T19:10:30Z</time>
  <course>10.47</course>
  <speed>0.022360679774997897</speed>
  <fix>3d</fix>
</trkpt>
<trkpt lat="40.072842" lon="-105.230575">
  <ele>1586.09</ele>
  <time>2026-08-28T19:10:30Z</time>
  <course>269.3</course>
  <speed>0.0</speed>
  <fix>3d</fix>
</trkpt>
<trkpt lat="40.0728419" lon="-105.2305749">
  <ele>1586.17</ele>
  <time>2026-08-28T19:10:30Z</time>
  <course>10.42</course>
  <speed>0.022360679774997897</speed>
  <fix>3d</fix>
</trkpt>
<trkpt lat="40.072842" lon="-105.230575">
  <ele>1586.09</ele>
  <time>2026-08-28T19:10:30Z</time>
  <course>269.12</course>
  <speed>0.0</speed>
  <fix>3d</fix>
</trkpt>
<trkpt lat="40.0728419" lon="-105.2305749">
  <ele>1586.16</ele>
  <time>2026-08-28T19:10:30Z</time>
  <course>10.37</course>
  <speed>0.022360679774997897</speed>
  <fix>3d</fix>
</trkpt>
<trkpt lat="40.072842" lon="-105.230575">
  <ele>1586.09</ele>
  <time>2026-08-28T19:10:30Z</time>
  <course>269.07</course>
  <speed>0.0</speed>
  <fix>3d</fix>
</trkpt>
<trkpt lat="40.0728419" lon="-105.2305749">
  <ele>1586.16</ele>
  <time>2026-08-28T19:10:30Z</time>
  <course>10.32</course>
  <speed>0.022360679774997897</speed>
  <fix>3d</fix>
</trkpt>
<trkpt lat="40.072842" lon="-105.230575">
  <ele>1586.09</ele>
  <time>2026-08-28T19:10:30Z</time>
  <course>268.93</course>
  <speed>0.0</speed>
  <fix>3d</fix>
</trkpt>
<trkpt lat="40.0728419" lon="-105.2305749">
  <ele>1586.16</ele>
  <time>2026-08-28T19:10:30Z</time>
  <course>10.27</course>
  <speed>0.022360679774997897</speed>
  <fix>3d</fix>
</trkpt>
<trkpt lat="40.072842" lon="-105.230575">
  <ele>1586.09</ele>
  <time>2026-08-28T19:10:30Z</time>
  <course>268.83</course>
  <speed>0.0</speed>
  <fix>3d</fix>
</trkpt>
<trkpt lat="40.0728419" lon="-105.2305749">
  <ele>1586.16</ele>
  <time>2026-08-28T19:10:30Z</time>
  <course>10.21</course>
  <speed>0.022360679774997897</speed>
  <fix>3d</fix>
</trkpt>
<trkpt lat="40.072842" lon="-105.230575">
  <ele>1586.09</ele>
  <time>2026-08-28T19:10:30Z</time>
  <course>268.82</course>
  <speed>0.0</speed>
  <fix>3d</fix>
</trkpt>
<trkpt lat="40.0728419" lon="-105.2305749">
  <ele>1586.16</ele>
  <time>2026-08-28T19:10:30Z</time>
  <course>10.16</course>
  <speed>0.022360679774997897</speed>
  <fix>3d</fix>
</trkpt>
<trkpt lat="40.072842" lon="-105.230575">
  <ele>1586.09</ele>
  <time>2026-08-28T19:10:30Z</time>
  <course>268.55</course>
  <speed>0.0</speed>
  <fix>3d</fix>
</trkpt>
<trkpt lat="40.0728419" lon="-105.2305749">
  <ele>1586.16</ele>
  <time>2026-08-28T19:10:30Z</time>
  <course>10.1</course>
  <speed>0.022360679774997897</speed>
  <fix>3d</fix>
</trkpt>
<trkpt lat="40.072842" lon="-105.230575">
  <ele>1586.09</ele>
  <time>2026-08-28T19:10:30Z</time>
  <course>268.56</course>
  <speed>0.0</speed>
  <fix>3d</fix>
</trkpt>
<trkpt lat="40.0728419" lon="-105.2305749">
  <ele>1586.16</ele>
  <time>2026-08-28T19:10:30Z</time>
  <course>10.05</course>
  <speed>0.022360679774997897</speed>
  <fix>3d</fix>
</trkpt>
<trkpt lat="40.072842" lon="-105.230575">
  <ele>1586.09</ele>
  <time>2026-08-28T19:10:30Z</time>
  <course>268.56</course>
  <speed>0.0</speed>
  <fix>3d</fix>
</trkpt>
<trkpt lat="40.0728419" lon="-105.2305749">
  <ele>1586.16</ele>
  <time>2026-08-28T19:10:30Z</time>
  <course>9.99</course>
  <speed>0.022360679774997897</speed>
  <fix>3d</fix>
</trkpt>
<trkpt lat="40.072842" lon="-105.230575">
  <ele>1586.09</ele>
  <time>2026-08-28T19:10:30Z</time>
  <course>267.83</course>
  <speed>0.0</speed>
  <fix>3d</fix>
</trkpt>
<trkpt lat="40.0728419" lon="-105.2305749">
  <ele>1586.16</ele>
  <time>2026-08-28T19:10:30Z</time>
  <course>9.93</course>
  <speed>0.022360679774997897</speed>
  <fix>3d</fix>
</trkpt>
<trkpt lat="40.072842" lon="-105.230575">
  <ele>1586.09</ele>
  <time>2026-08-28T19:10:30Z</time>
  <course>268.25</course>
  <speed>0.0</speed>
  <fix>3d</fix>
</trkpt>
<trkpt lat="40.0728419" lon="-105.2305749">
  <ele>1586.17</ele>
  <time>2026-08-28T19:10:30Z</time>
  <course>9.88</course>
  <speed>0.022360679774997897</speed>
  <fix>3d</fix>
</trkpt>
<trkpt lat="40.072842" lon="-105.230575">
  <ele>1586.09</ele>
  <time>2026-08-28T19:10:30Z</time>
  <course>268.3</course>
  <speed>0.0</speed>
  <fix>3d</fix>
</trkpt>
<trkpt lat="40.0728419" lon="-105.2305749">
  <ele>1586.17</ele>
  <time>2026-08-28T19:10:30Z</time>
  <course>9.83</course>
  <speed>0.022360679774997897</speed>
  <fix>3d</fix>
</trkpt>
<trkpt lat="40.072842" lon="-105.230575">
  <ele>1586.09</ele>
  <time>2026-08-28T19:10:30Z</time>
  <course>267.08</course>
  <speed>0.0</speed>
  <fix>3d</fix>
</trkpt>
<trkpt lat="40.0728419" lon="-105.2305749">
  <ele>1586.17</ele>
  <time>2026-08-28T19:10:30Z</time>
  <course>9.77</course>
  <speed>0.022360679774997897</speed>
  <fix>3d</fix>
</trkpt>
<trkpt lat="40.072842" lon="-105.230575">
  <ele>1586.09</ele>
  <time>2026-08-28T19:10:30Z</time>
  <course>249.5</course>
  <speed>0.0</speed>
  <fix>3d</fix>
</trkpt>
<trkpt lat="40.0728419" lon="-105.2305749">
  <ele>1586.17</ele>
  <time>2026-08-28T19:10:30Z</time>
  <course>9.72</course>
  <speed>0.022360679774997897</speed>
  <fix>3d</fix>
</trkpt>
<trkpt lat="40.072842" lon="-105.230575">
  <ele>1586.09</ele>
  <time>2026-08-28T19:10:30Z</time>
  <course>245.22</course>
  <speed>0.0</speed>
  <fix>3d</fix>
</trkpt>
<trkpt lat="40.0728419" lon="-105.2305749">
  <ele>1586.17</ele>
  <time>2026-08-28T19:10:30Z</time>
  <course>9.66</course>
  <speed>0.022360679774997897</speed>
  <fix>3d</fix>
</trkpt>
<trkpt lat="40.072842" lon="-105.230575">
  <ele>1586.09</ele>
  <time>2026-08-28T19:10:30Z</time>
  <course>265.29</course>
  <speed>0.0</speed>
  <fix>3d</fix>
</trkpt>
<trkpt lat="40.0728419" lon="-105.2305749">
  <ele>1586.17</ele>
  <time>2026-08-28T19:10:30Z</time>
  <course>9.61</course>
  <speed>0.022360679774997897</speed>
  <fix>3d</fix>
</trkpt>
<trkpt lat="40.072842" lon="-105.230575">
  <ele>1586.09</ele>
  <time>2026-08-28T19:10:30Z</time>
  <course>270.1</course>
  <speed>0.0</speed>
  <fix>3d</fix>
</trkpt>
<trkpt lat="40.0728419" lon="-105.2305749">
  <ele>1586.17</ele>
  <time>2026-08-28T19:10:30Z</time>
  <course>9.56</course>
  <speed>0.022360679774997897</speed>
  <fix>3d</fix>
</trkpt>
<trkpt lat="40.072842" lon="-105.230575">
  <ele>1586.09</ele>
  <time>2026-08-28T19:10:30Z</time>
  <course>266.67</course>
  <speed>0.0</speed>
  <fix>3d</fix>
</trkpt>
<trkpt lat="40.0728419" lon="-105.2305749">
  <ele>1586.17</ele>
  <time>2026-08-28T19:10:30Z</time>
  <course>9.51</course>
  <speed>0.022360679774997897</speed>
  <fix>3d</fix>
</trkpt>
<trkpt lat="40.072842" lon="-105.230575">
  <ele>1586.09</ele>
  <time>2026-08-28T19:10:30Z</time>
  <course>266.82</course>
  <speed>0.0</speed>
  <fix>3d</fix>
</trkpt>
<trkpt lat="40.0728419" lon="-105.2305749">
  <ele>1586.17</ele>
  <time>2026-08-28T19:10:30Z</time>
  <course>9.46</course>
  <speed>0.022360679774997897</speed>
  <fix>3d</fix>
</trkpt>
<trkpt lat="40.072842" lon="-105.230575">
  <ele>1586.09</ele>
  <time>2026-08-28T19:10:30Z</time>
  <course>267.49</course>
  <speed>0.0</speed>
  <fix>3d</fix>
</trkpt>
<trkpt lat="40.0728419" lon="-105.2305749">
  <ele>1586.17</ele>
  <time>2026-08-28T19:10:30Z</time>
  <course>9.4</course>
  <speed>0.022360679774997897</speed>
  <fix>3d</fix>
</trkpt>
<trkpt lat="40.072842" lon="-105.230575">
  <ele>1586.09</ele>
  <time>2026-08-28T19:10:30Z</time>
  <course>265.81</course>
  <speed>0.0</speed>
  <fix>3d</fix>
</trkpt>
<trkpt lat="40.0728419" lon="-105.2305749">
  <ele>1586.17</ele>
  <time>2026-08-28T19:10:30Z</time>
  <course>9.35</course>
  <speed>0.022360679774997897</speed>
  <fix>3d</fix>
</trkpt>
<trkpt lat="40.072842" lon="-105.230575">
  <ele>1586.09</ele>
  <time>2026-08-28T19:10:30Z</time>
  <course>266.83</course>
  <speed>0.0</speed>
  <fix>3d</fix>
</trkpt>
<trkpt lat="40.0728419" lon="-105.2305749">
  <ele>1586.17</ele>
  <time>2026-08-28T19:10:30Z</time>
  <course>9.3</course>
  <speed>0.022360679774997897</speed>
  <fix>3d</fix>
</trkpt>
<trkpt lat="40.072842" lon="-105.230575">
  <ele>1586.09</ele>
  <time>2026-08-28T19:10:30Z</time>
  <course>267.28</course>
  <speed>0.0</speed>
  <fix>3d</fix>
</trkpt>
<trkpt lat="40.0728419" lon="-105.2305749">
  <ele>1586.17</ele>
  <time>2026-08-28T19:10:30Z</time>
  <course>9.25</course>
  <speed>0.022360679774997897</speed>
  <fix>3d</fix>
</trkpt>
<trkpt lat="40.072842" lon="-105.230575">
  <ele>1586.09</ele>
  <time>2026-08-28T19:10:30Z</time>
  <course>266.22</course>
  <speed>0.0</speed>
  <fix>3d</fix>
</trkpt>
<trkpt lat="40.0728419" lon="-105.2305749">
  <ele>1586.17</ele>
  <time>2026-08-28T19:10:30Z</time>
  <course>9.2</course>
  <speed>0.022360679774997897</speed>
  <fix>3d</fix>
</trkpt>
<trkpt lat="40.072842" lon="-105.230575">
  <ele>1586.09</ele>
  <time>2026-08-28T19:10:30Z</time>
  <course>266.74</course>
  <speed>0.0</speed>
  <fix>3d</fix>
</trkpt>
<trkpt lat="40.0728419" lon="-105.2305749">
  <ele>1586.16</ele>
  <time>2026-08-28T19:10:30Z</time>
  <course>9.15</course>
  <speed>0.022360679774997897</speed>
  <fix>3d</fix>
</trkpt>
<trkpt lat="40.072842" lon="-105.230575">
  <ele>1586.09</ele>
  <time>2026-08-28T19:10:30Z</time>
  <course>267.11</course>
  <speed>0.0</speed>
  <fix>3d</fix>
</trkpt>
<trkpt lat="40.0728419" lon="-105.2305749">
  <ele>1586.16</ele>
  <time>2026-08-28T19:10:30Z</time>
  <course>9.1</course>
  <speed>0.022360679774997897</speed>
  <fix>3d</fix>
</trkpt>
<trkpt lat="40.072842" lon="-105.230575">
  <ele>1586.09</ele>
  <time>2026-08-28T19:10:30Z</time>
  <course>265.86</course>
  <speed>0.0</speed>
  <fix>3d</fix>
</trkpt>
<trkpt lat="40.0728419" lon="-105.2305749">
  <ele>1586.16</ele>
  <time>2026-08-28T19:10:30Z</time>
  <course>9.05</course>
  <speed>0.022360679774997897</speed>
  <fix>3d</fix>
</trkpt>
<trkpt lat="40.072842" lon="-105.230575">
  <ele>1586.09</ele>
  <time>2026-08-28T19:10:30Z</time>
  <course>266.53</course>
  <speed>0.0</speed>
  <fix>3d</fix>
</trkpt>
<trkpt lat="40.0728419" lon="-105.2305749">
  <ele>1586.16</ele>
  <time>2026-08-28T19:10:30Z</time>
  <course>9.01</course>
  <speed>0.022360679774997897</speed>
  <fix>3d</fix>
</trkpt>
<trkpt lat="40.072842" lon="-105.230575">
  <ele>1586.09</ele>
  <time>2026-08-28T19:10:30Z</time>
  <course>266.95</course>
  <speed>0.0</speed>
  <fix>3d</fix>
</trkpt>
<trkpt lat="40.0728419" lon="-105.2305749">
  <ele>1586.16</ele>
  <time>2026-08-28T19:10:30Z</time>
  <course>8.96</course>
  <speed>0.022360679774997897</speed>
  <fix>3d</fix>
</trkpt>
<trkpt lat="40.072842" lon="-105.230575">
  <ele>1586.09</ele>
  <time>2026-08-28T19:10:30Z</time>
  <course>265.87</course>
  <speed>0.0</speed>
  <fix>3d</fix>
</trkpt>
<trkpt lat="40.0728419" lon="-105.2305749">
  <ele>1586.16</ele>
  <time>2026-08-28T19:10:30Z</time>
  <course>8.91</course>
  <speed>0.022360679774997897</speed>
  <fix>3d</fix>
</trkpt>
<trkpt lat="40.072842" lon="-105.230575">
  <ele>1586.09</ele>
  <time>2026-08-28T19:10:30Z</time>
  <course>266.01</course>
  <speed>0.0</speed>
  <fix>3d</fix>
</trkpt>
<trkpt lat="40.0728419" lon="-105.2305749">
  <ele>1586.16</ele>
  <time>2026-08-28T19:10:30Z</time>
  <course>8.86</course>
  <speed>0.022360679774997897</speed>
  <fix>3d</fix>
</trkpt>
<trkpt lat="40.072842" lon="-105.230575">
  <ele>1586.09</ele>
  <time>2026-08-28T19:10:30Z</time>
  <course>266.74</course>
  <speed>0.0</speed>
  <fix>3d</fix>
</trkpt>
<trkpt lat="40.0728419" lon="-105.2305749">
  <ele>1586.16</ele>
  <time>2026-08-28T19:10:30Z</time>
  <course>8.82</course>
  <speed>0.022360679774997897</speed>
  <fix>3d</fix>
</trkpt>
<trkpt lat="40.072842" lon="-105.230575">
  <ele>1586.09</ele>
  <time>2026-08-28T19:10:30Z</time>
  <course>266.07</course>
  <speed>0.0</speed>
  <fix>3d</fix>
</trkpt>
<trkpt lat="40.0728419" lon="-105.2305749">
  <ele>1586.16</ele>
  <time>2026-08-28T19:10:30Z</time>
  <course>8.77</course>
  <speed>0.022360679774997897</speed>
  <fix>3d</fix>
</trkpt>
<trkpt lat="40.072842" lon="-105.230575">
  <ele>1586.09</ele>
  <time>2026-08-28T19:10:30Z</time>
  <course>262.77</course>
  <speed>0.0</speed>
  <fix>3d</fix>
</trkpt>
<trkpt lat="40.0728419" lon="-105.2305749">
  <ele>1586.16</ele>
  <time>2026-08-28T19:10:30Z</time>
  <course>8.72</course>
  <speed>0.022360679774997897</speed>
  <fix>3d</fix>
</trkpt>
<trkpt lat="40.072842" lon="-105.230575">
  <ele>1586.09</ele>
  <time>2026-08-28T19:10:30Z</time>
  <course>266.45</course>
  <speed>0.0</speed>
  <fix>3d</fix>
</trkpt>
<trkpt lat="40.0728419" lon="-105.2305749">
  <ele>1586.15</ele>
  <time>2026-08-28T19:10:30Z</time>
  <course>8.68</course>
  <speed>0.022360679774997897</speed>
  <fix>3d</fix>
</trkpt>
<trkpt lat="40.072842" lon="-105.230575">
  <ele>1586.09</ele>
  <time>2026-08-28T19:10:30Z</time>
  <course>266.49</course>
  <speed>0.0</speed>
  <fix>3d</fix>
</trkpt>
<trkpt lat="40.0728419" lon="-105.2305749">
  <ele>1586.15</ele>
  <time>2026-08-28T19:10:30Z</time>
  <course>8.63</course>
  <speed>0.022360679774997897</speed>
  <fix>3d</fix>
</trkpt>
<trkpt lat="40.072842" lon="-105.230575">
  <ele>1586.09</ele>
  <time>2026-08-28T19:10:30Z</time>
  <course>263.9</course>
  <speed>0.0</speed>
  <fix>3d</fix>
</trkpt>
<trkpt lat="40.0728419" lon="-105.2305749">
  <ele>1586.15</ele>
  <time>2026-08-28T19:10:30Z</time>
  <course>8.58</course>
  <speed>0.01414213562373095</speed>
  <fix>3d</fix>
</trkpt>
<trkpt lat="40.072842" lon="-105.230575">
  <ele>1586.09</ele>
  <time>2026-08-28T19:10:30Z</time>
  <course>266.26</course>
  <speed>0.0</speed>
  <fix>3d</fix>
</trkpt>
<trkpt lat="40.0728419" lon="-105.2305749">
  <ele>1586.15</ele>
  <time>2026-08-28T19:10:30Z</time>
  <course>8.54</course>
  <speed>0.01414213562373095</speed>
  <fix>3d</fix>
</trkpt>
<trkpt lat="40.072842" lon="-105.230575">
  <ele>1586.09</ele>
  <time>2026-08-28T19:10:30Z</time>
  <course>265.29</course>
  <speed>0.0</speed>
  <fix>3d</fix>
</trkpt>
<trkpt lat="40.0728419" lon="-105.2305749">
  <ele>1586.15</ele>
  <time>2026-08-28T19:10:30Z</time>
  <course>8.49</course>
  <speed>0.01414213562373095</speed>
  <fix>3d</fix>
</trkpt>
<trkpt lat="40.072842" lon="-105.230575">
  <ele>1586.09</ele>
  <time>2026-08-28T19:10:30Z</time>
  <course>269.17</course>
  <speed>0.0</speed>
  <fix>3d</fix>
</trkpt>
<trkpt lat="40.0728419" lon="-105.2305749">
  <ele>1586.16</ele>
  <time>2026-08-28T19:10:30Z</time>
  <course>8.45</course>
  <speed>0.01414213562373095</speed>
  <fix>3d</fix>
</trkpt>
<trkpt lat="40.072842" lon="-105.230575">
  <ele>1586.09</ele>
  <time>2026-08-28T19:10:30Z</time>
  <course>269.11</course>
  <speed>0.0</speed>
  <fix>3d</fix>
</trkpt>
<trkpt lat="40.0728419" lon="-105.2305749">
  <ele>1586.16</ele>
  <time>2026-08-28T19:10:30Z</time>
  <course>8.41</course>
  <speed>0.01414213562373095</speed>
  <fix>3d</fix>
</trkpt>
<trkpt lat="40.072842" lon="-105.230575">
  <ele>1586.09</ele>
  <time>2026-08-28T19:10:30Z</time>
  <course>265.88</course>
  <speed>0.0</speed>
  <fix>3d</fix>
</trkpt>
<trkpt lat="40.0728419" lon="-105.2305749">
  <ele>1586.16</ele>
  <time>2026-08-28T19:10:30Z</time>
  <course>8.36</course>
  <speed>0.01414213562373095</speed>
  <fix>3d</fix>
</trkpt>
<trkpt lat="40.072842" lon="-105.230575">
  <ele>1586.09</ele>
  <time>2026-08-28T19:10:30Z</time>
  <course>265.48</course>
  <speed>0.0</speed>
  <fix>3d</fix>
</trkpt>
<trkpt lat="40.0728419" lon="-105.2305749">
  <ele>1586.16</ele>
  <time>2026-08-28T19:10:30Z</time>
  <course>8.32</course>
  <speed>0.01414213562373095</speed>
  <fix>3d</fix>
</trkpt>
<trkpt lat="40.072842" lon="-105.230575">
  <ele>1586.09</ele>
  <time>2026-08-28T19:10:30Z</time>
  <course>263.5</course>
  <speed>0.0</speed>
  <fix>3d</fix>
</trkpt>
<trkpt lat="40.0728419" lon="-105.2305749">
  <ele>1586.16</ele>
  <time>2026-08-28T19:10:30Z</time>
  <course>8.27</course>
  <speed>0.01414213562373095</speed>
  <fix>3d</fix>
</trkpt>
<trkpt lat="40.072842" lon="-105.230575">
  <ele>1586.09</ele>
  <time>2026-08-28T19:10:30Z</time>
  <course>266.09</course>
  <speed>0.0</speed>
  <fix>3d</fix>
</trkpt>
<trkpt lat="40.0728419" lon="-105.2305749">
  <ele>1586.17</ele>
  <time>2026-08-28T19:10:30Z</time>
  <course>8.23</course>
  <speed>0.01414213562373095</speed>
  <fix>3d</fix>
</trkpt>
<trkpt lat="40.072842" lon="-105.230575">
  <ele>1586.09</ele>
  <time>2026-08-28T19:10:30Z</time>
  <course>266.12</course>
  <speed>0.0</speed>
  <fix>3d</fix>
</trkpt>
<trkpt lat="40.0728419" lon="-105.2305749">
  <ele>1586.17</ele>
  <time>2026-08-28T19:10:30Z</time>
  <course>8.19</course>
  <speed>0.01414213562373095</speed>
  <fix>3d</fix>
</trkpt>
<trkpt lat="40.072842" lon="-105.230575">
  <ele>1586.09</ele>
  <time>2026-08-28T19:10:30Z</time>
  <course>264.16</course>
  <speed>0.0</speed>
  <fix>3d</fix>
</trkpt>
<trkpt lat="40.0728419" lon="-105.2305749">
  <ele>1586.17</ele>
  <time>2026-08-28T19:10:30Z</time>
  <course>8.15</course>
  <speed>0.01414213562373095</speed>
  <fix>3d</fix>
</trkpt>
<trkpt lat="40.072842" lon="-105.230575">
  <ele>1586.09</ele>
  <time>2026-08-28T19:10:30Z</time>
  <course>263.81</course>
  <speed>0.0</speed>
  <fix>3d</fix>
</trkpt>
<trkpt lat="40.0728419" lon="-105.2305749">
  <ele>1586.17</ele>
  <time>2026-08-28T19:10:30Z</time>
  <course>8.11</course>
  <speed>0.01414213562373095</speed>
  <fix>3d</fix>
</trkpt>
<trkpt lat="40.072842" lon="-105.230575">
  <ele>1586.09</ele>
  <time>2026-08-28T19:10:30Z</time>
  <course>265.9</course>
  <speed>0.0</speed>
  <fix>3d</fix>
</trkpt>
<trkpt lat="40.0728419" lon="-105.2305749">
  <ele>1586.17</ele>
  <time>2026-08-28T19:10:30Z</time>
  <course>8.06</course>
  <speed>0.01414213562373095</speed>
  <fix>3d</fix>
</trkpt>
<trkpt lat="40.072842" lon="-105.230575">
  <ele>1586.09</ele>
  <time>2026-08-28T19:10:30Z</time>
  <course>265.85</course>
  <speed>0.0</speed>
  <fix>3d</fix>
</trkpt>
<trkpt lat="40.0728419" lon="-105.2305749">
  <ele>1586.17</ele>
  <time>2026-08-28T19:10:30Z</time>
  <course>8.02</course>
  <speed>0.01414213562373095</speed>
  <fix>3d</fix>
</trkpt>
<trkpt lat="40.072842" lon="-105.230575">
  <ele>1586.09</ele>
  <time>2026-08-28T19:10:30Z</time>
  <course>263.69</course>
  <speed>0.0</speed>
  <fix>3d</fix>
</trkpt>
<trkpt lat="40.0728419" lon="-105.2305749">
  <ele>1586.18</ele>
  <time>2026-08-28T19:10:30Z</time>
  <course>7.98</course>
  <speed>0.01414213562373095</speed>
  <fix>3d</fix>
</trkpt>
<trkpt lat="40.072842" lon="-105.230575">
  <ele>1586.09</ele>
  <time>2026-08-28T19:10:30Z</time>
  <course>265.58</course>
  <speed>0.0</speed>
  <fix>3d</fix>
</trkpt>
<trkpt lat="40.0728419" lon="-105.2305749">
  <ele>1586.18</ele>
  <time>2026-08-28T19:10:30Z</time>
  <course>7.94</course>
  <speed>0.01414213562373095</speed>
  <fix>3d</fix>
</trkpt>
<trkpt lat="40.072842" lon="-105.230575">
  <ele>1586.09</ele>
  <time>2026-08-28T19:10:30Z</time>
  <course>265.94</course>
  <speed>0.0</speed>
  <fix>3d</fix>
</trkpt>
<trkpt lat="40.0728419" lon="-105.2305749">
  <ele>1586.18</ele>
  <time>2026-08-28T19:10:30Z</time>
  <course>7.9</course>
  <speed>0.01414213562373095</speed>
  <fix>3d</fix>
</trkpt>
<trkpt lat="40.072842" lon="-105.230575">
  <ele>1586.09</ele>
  <time>2026-08-28T19:10:30Z</time>
  <course>265.14</course>
  <speed>0.0</speed>
  <fix>3d</fix>
</trkpt>
<trkpt lat="40.0728419" lon="-105.2305749">
  <ele>1586.17</ele>
  <time>2026-08-28T19:10:30Z</time>
  <course>7.86</course>
  <speed>0.01414213562373095</speed>
  <fix>3d</fix>
</trkpt>
<trkpt lat="40.072842" lon="-105.230575">
  <ele>1586.09</ele>
  <time>2026-08-28T19:10:30Z</time>
  <course>263.36</course>
  <speed>0.0</speed>
  <fix>3d</fix>
</trkpt>
<trkpt lat="40.0728419" lon="-105.2305749">
  <ele>1586.17</ele>
  <time>2026-08-28T19:10:30Z</time>
  <course>7.82</course>
  <speed>0.01414213562373095</speed>
  <fix>3d</fix>
</trkpt>
<trkpt lat="40.072842" lon="-105.230575">
  <ele>1586.09</ele>
  <time>2026-08-28T19:10:30Z</time>
  <course>265.68</course>
  <speed>0.0</speed>
  <fix>3d</fix>
</trkpt>
<trkpt lat="40.0728419" lon="-105.2305749">
  <ele>1586.17</ele>
  <time>2026-08-28T19:10:30Z</time>
  <course>7.78</course>
  <speed>0.01414213562373095</speed>
  <fix>3d</fix>
</trkpt>
<trkpt lat="40.072842" lon="-105.230575">
  <ele>1586.09</ele>
  <time>2026-08-28T19:10:30Z</time>
  <course>265.79</course>
  <speed>0.0</speed>
  <fix>3d</fix>
</trkpt>
<trkpt lat="40.0728419" lon="-105.2305749">
  <ele>1586.17</ele>
  <time>2026-08-28T19:10:30Z</time>
  <course>7.74</course>
  <speed>0.01414213562373095</speed>
  <fix>3d</fix>
</trkpt>
<trkpt lat="40.072842" lon="-105.230575">
  <ele>1586.09</ele>
  <time>2026-08-28T19:10:30Z</time>
  <course>264.45</course>
  <speed>0.0</speed>
  <fix>3d</fix>
</trkpt>
<trkpt lat="40.0728419" lon="-105.2305749">
  <ele>1586.17</ele>
  <time>2026-08-28T19:10:30Z</time>
  <course>7.7</course>
  <speed>0.01414213562373095</speed>
  <fix>3d</fix>
</trkpt>
<trkpt lat="40.072842" lon="-105.230575">
  <ele>1586.09</ele>
  <time>2026-08-28T19:10:30Z</time>
  <course>263.59</course>
  <speed>0.0</speed>
  <fix>3d</fix>
</trkpt>
<trkpt lat="40.0728419" lon="-105.2305749">
  <ele>1586.17</ele>
  <time>2026-08-28T19:10:30Z</time>
  <course>7.67</course>
  <speed>0.01414213562373095</speed>
  <fix>3d</fix>
</trkpt>
<trkpt lat="40.072842" lon="-105.230575">
  <ele>1586.09</ele>
  <time>2026-08-28T19:10:30Z</time>
  <course>265.56</course>
  <speed>0.0</speed>
  <fix>3d</fix>
</trkpt>
<trkpt lat="40.0728419" lon="-105.2305749">
  <ele>1586.17</ele>
  <time>2026-08-28T19:10:30Z</time>
  <course>7.63</course>
  <speed>0.01414213562373095</speed>
  <fix>3d</fix>
</trkpt>
<trkpt lat="40.072842" lon="-105.230575">
  <ele>1586.09</ele>
  <time>2026-08-28T19:10:30Z</time>
  <course>265.59</course>
  <speed>0.0</speed>
  <fix>3d</fix>
</trkpt>
<trkpt lat="40.0728419" lon="-105.2305749">
  <ele>1586.17</ele>
  <time>2026-08-28T19:10:30Z</time>
  <course>7.59</course>
  <speed>0.01414213562373095</speed>
  <fix>3d</fix>
</trkpt>
<trkpt lat="40.072842" lon="-105.230575">
  <ele>1586.09</ele>
  <time>2026-08-28T19:10:30Z</time>
  <course>264.04</course>
  <speed>0.0</speed>
  <fix>3d</fix>
</trkpt>
<trkpt lat="40.0728419" lon="-105.2305749">
  <ele>1586.17</ele>
  <time>2026-08-28T19:10:30Z</time>
  <course>7.55</course>
  <speed>0.01414213562373095</speed>
  <fix>3d</fix>
</trkpt>
<trkpt lat="40.072842" lon="-105.230575">
  <ele>1586.09</ele>
  <time>2026-08-28T19:10:30Z</time>
  <course>263.74</course>
  <speed>0.0</speed>
  <fix>3d</fix>
</trkpt>
<trkpt lat="40.0728419" lon="-105.2305749">
  <ele>1586.18</ele>
  <time>2026-08-28T19:10:30Z</time>
  <course>7.52</course>
  <speed>0.01414213562373095</speed>
  <fix>3d</fix>
</trkpt>
<trkpt lat="40.072842" lon="-105.230575">
  <ele>1586.09</ele>
  <time>2026-08-28T19:10:30Z</time>
  <course>265.39</course>
  <speed>0.0</speed>
  <fix>3d</fix>
</trkpt>
<trkpt lat="40.0728419" lon="-105.2305749">
  <ele>1586.17</ele>
  <time>2026-08-28T19:10:30Z</time>
  <course>7.48</course>
  <speed>0.01414213562373095</speed>
  <fix>3d</fix>
</trkpt>
<trkpt lat="40.072842" lon="-105.230575">
  <ele>1586.09</ele>
  <time>2026-08-28T19:10:30Z</time>
  <course>265.54</course>
  <speed>0.0</speed>
  <fix>3d</fix>
</trkpt>
<trkpt lat="40.0728419" lon="-105.2305749">
  <ele>1586.17</ele>
  <time>2026-08-28T19:10:30Z</time>
  <course>7.44</course>
  <speed>0.01414213562373095</speed>
  <fix>3d</fix>
</trkpt>
<trkpt lat="40.072842" lon="-105.230575">
  <ele>1586.09</ele>
  <time>2026-08-28T19:10:30Z</time>
  <course>264.6</course>
  <speed>0.0</speed>
  <fix>3d</fix>
</trkpt>
<trkpt lat="40.0728419" lon="-105.2305749">
  <ele>1586.16</ele>
  <time>2026-08-28T19:10:30Z</time>
  <course>7.41</course>
  <speed>0.01414213562373095</speed>
  <fix>3d</fix>
</trkpt>
<trkpt lat="40.072842" lon="-105.230575">
  <ele>1586.09</ele>
  <time>2026-08-28T19:10:30Z</time>
  <course>263.49</course>
  <speed>0.0</speed>
  <fix>3d</fix>
</trkpt>
<trkpt lat="40.0728419" lon="-105.2305749">
  <ele>1586.16</ele>
  <time>2026-08-28T19:10:30Z</time>
  <course>7.37</course>
  <speed>0.01414213562373095</speed>
  <fix>3d</fix>
</trkpt>
<trkpt lat="40.072842" lon="-105.230575">
  <ele>1586.09</ele>
  <time>2026-08-28T19:10:30Z</time>
  <course>265.15</course>
  <speed>0.0</speed>
  <fix>3d</fix>
</trkpt>
<trkpt lat="40.0728419" lon="-105.2305749">
  <ele>1586.16</ele>
  <time>2026-08-28T19:10:30Z</time>
  <course>7.33</course>
  <speed>0.01414213562373095</speed>
  <fix>3d</fix>
</trkpt>
<trkpt lat="40.072842" lon="-105.230575">
  <ele>1586.09</ele>
  <time>2026-08-28T19:10:30Z</time>
  <course>265.4</course>
  <speed>0.0</speed>
  <fix>3d</fix>
</trkpt>
<trkpt lat="40.0728419" lon="-105.2305749">
  <ele>1586.16</ele>
  <time>2026-08-28T19:10:30Z</time>
  <course>7.3</course>
  <speed>0.01414213562373095</speed>
  <fix>3d</fix>
</trkpt>
<trkpt lat="40.072842" lon="-105.230575">
  <ele>1586.09</ele>
  <time>2026-08-28T19:10:30Z</time>
  <course>264.72</course>
  <speed>0.0</speed>
  <fix>3d</fix>
</trkpt>
<trkpt lat="40.0728419" lon="-105.2305749">
  <ele>1586.16</ele>
  <time>2026-08-28T19:10:31Z</time>
  <course>7.26</course>
  <speed>0.01414213562373095</speed>
  <fix>3d</fix>
</trkpt>
<trkpt lat="40.072842" lon="-105.230575">
  <ele>1586.09</ele>
  <time>2026-08-28T19:10:31Z</time>
  <course>263.43</course>
  <speed>0.0</speed>
  <fix>3d</fix>
</trkpt>
<trkpt lat="40.0728419" lon="-105.2305749">
  <ele>1586.17</ele>
  <time>2026-08-28T19:10:31Z</time>
  <course>7.23</course>
  <speed>0.01414213562373095</speed>
  <fix>3d</fix>
</trkpt>
<trkpt lat="40.072842" lon="-105.230575">
  <ele>1586.09</ele>
  <time>2026-08-28T19:10:31Z</time>
  <course>264.43</course>
  <speed>0.0</speed>
  <fix>3d</fix>
</trkpt>
<trkpt lat="40.0728419" lon="-105.2305749">
  <ele>1586.17</ele>
  <time>2026-08-28T19:10:31Z</time>
  <course>7.19</course>
  <speed>0.01414213562373095</speed>
  <fix>3d</fix>
</trkpt>
<trkpt lat="40.072842" lon="-105.230575">
  <ele>1586.09</ele>
  <time>2026-08-28T19:10:31Z</time>
  <course>265.53</course>
  <speed>0.0</speed>
  <fix>3d</fix>
</trkpt>
<trkpt lat="40.0728419" lon="-105.2305749">
  <ele>1586.17</ele>
  <time>2026-08-28T19:10:31Z</time>
  <course>7.16</course>
  <speed>0.01414213562373095</speed>
  <fix>3d</fix>
</trkpt>
<trkpt lat="40.072842" lon="-105.230575">
  <ele>1586.09</ele>
  <time>2026-08-28T19:10:31Z</time>
  <course>268.89</course>
  <speed>0.0</speed>
  <fix>3d</fix>
</trkpt>
<trkpt lat="40.0728419" lon="-105.2305749">
  <ele>1586.17</ele>
  <time>2026-08-28T19:10:31Z</time>
  <course>7.14</course>
  <speed>0.01414213562373095</speed>
  <fix>3d</fix>
</trkpt>
<trkpt lat="40.072842" lon="-105.230575">
  <ele>1586.09</ele>
  <time>2026-08-28T19:10:31Z</time>
  <course>268.57</course>
  <speed>0.0</speed>
  <fix>3d</fix>
</trkpt>
<trkpt lat="40.0728419" lon="-105.2305749">
  <ele>1586.17</ele>
  <time>2026-08-28T19:10:31Z</time>
  <course>7.12</course>
  <speed>0.01414213562373095</speed>
  <fix>3d</fix>
</trkpt>
<trkpt lat="40.072842" lon="-105.230575">
  <ele>1586.09</ele>
  <time>2026-08-28T19:10:31Z</time>
  <course>264.77</course>
  <speed>0.0</speed>
  <fix>3d</fix>
</trkpt>
<trkpt lat="40.0728419" lon="-105.2305749">
  <ele>1586.17</ele>
  <time>2026-08-28T19:10:31Z</time>
  <course>7.11</course>
  <speed>0.01414213562373095</speed>
  <fix>3d</fix>
</trkpt>
<trkpt lat="40.0728419" lon="-105.2305749">
  <ele>1586.18</ele>
  <time>2026-08-28T19:10:31Z</time>
  <course>7.08</course>
  <speed>0.01414213562373095</speed>
  <fix>3d</fix>
</trkpt>
<trkpt lat="40.072842" lon="-105.230575">
  <ele>1586.09</ele>
  <time>2026-08-28T19:10:31Z</time>
  <course>265.49</course>
  <speed>0.0</speed>
  <fix>3d</fix>
</trkpt>
<trkpt lat="40.0728419" lon="-105.2305749">
  <ele>1586.18</ele>
  <time>2026-08-28T19:10:31Z</time>
  <course>7.07</course>
  <speed>0.01414213562373095</speed>
  <fix>3d</fix>
</trkpt>
<trkpt lat="40.0728419" lon="-105.2305749">
  <ele>1586.18</ele>
  <time>2026-08-28T19:10:31Z</time>
  <course>7.03</course>
  <speed>0.01414213562373095</speed>
  <fix>3d</fix>
</trkpt>
<trkpt lat="40.072842" lon="-105.230575">
  <ele>1586.09</ele>
  <time>2026-08-28T19:10:31Z</time>
  <course>265.92</course>
  <speed>0.0</speed>
  <fix>3d</fix>
</trkpt>
<trkpt lat="40.0728419" lon="-105.2305749">
  <ele>1586.18</ele>
  <time>2026-08-28T19:10:31Z</time>
  <course>7.02</course>
  <speed>0.01414213562373095</speed>
  <fix>3d</fix>
</trkpt>
<trkpt lat="40.0728419" lon="-105.2305749">
  <ele>1586.2</ele>
  <time>2026-08-28T19:10:31Z</time>
  <course>6.97</course>
  <speed>0.01414213562373095</speed>
  <fix>3d</fix>
</trkpt>
<trkpt lat="40.072842" lon="-105.230575">
  <ele>1586.09</ele>
  <time>2026-08-28T19:10:31Z</time>
  <course>265.12</course>
  <speed>0.0</speed>
  <fix>3d</fix>
</trkpt>
<trkpt lat="40.0728419" lon="-105.2305749">
  <ele>1586.21</ele>
  <time>2026-08-28T19:10:31Z</time>
  <course>6.96</course>
  <speed>0.01414213562373095</speed>
  <fix>3d</fix>
</trkpt>
<trkpt lat="40.0728419" lon="-105.2305749">
  <ele>1586.26</ele>
  <time>2026-08-28T19:10:31Z</time>
  <course>6.88</course>
  <speed>0.01414213562373095</speed>
  <fix>3d</fix>
</trkpt>
<trkpt lat="40.072842" lon="-105.230575">
  <ele>1586.12</ele>
  <time>2026-08-28T19:10:31Z</time>
  <course>264.29</course>
  <speed>0.0</speed>
  <fix>3d</fix>
</trkpt>
<trkpt lat="40.0728419" lon="-105.2305749">
  <ele>1586.27</ele>
  <time>2026-08-28T19:10:31Z</time>
  <course>6.86</course>
  <speed>0.01414213562373095</speed>
  <fix>3d</fix>
</trkpt>
<trkpt lat="40.0728419" lon="-105.2305749">
  <ele>1586.3</ele>
  <time>2026-08-28T19:10:31Z</time>
  <course>6.79</course>
  <speed>0.01414213562373095</speed>
  <fix>3d</fix>
</trkpt>
<trkpt lat="40.072842" lon="-105.230575">
  <ele>1586.17</ele>
  <time>2026-08-28T19:10:31Z</time>
  <course>275.63</course>
  <speed>0.0</speed>
  <fix>3d</fix>
</trkpt>
<trkpt lat="40.0728419" lon="-105.2305749">
  <ele>1586.32</ele>
  <time>2026-08-28T19:10:31Z</time>
  <course>6.55</course>
  <speed>0.01414213562373095</speed>
  <fix>3d</fix>
</trkpt>
<trkpt lat="40.0728419" lon="-105.2305749">
  <ele>1586.43</ele>
  <time>2026-08-28T19:10:31Z</time>
  <course>0.27</course>
  <speed>0.06082762530298219</speed>
  <fix>3d</fix>
</trkpt>
<trkpt lat="40.072842" lon="-105.230575">
  <ele>1586.24</ele>
  <time>2026-08-28T19:10:31Z</time>
  <course>263.9</course>
  <speed>0.02</speed>
  <fix>3d</fix>
</trkpt>
<trkpt lat="40.0728419" lon="-105.2305749">
  <ele>1586.49</ele>
  <time>2026-08-28T19:10:31Z</time>
  <course>358.91</course>
  <speed>0.1004987562112089</speed>
  <fix>3d</fix>
</trkpt>
<trkpt lat="40.0728419" lon="-105.2305752">
  <ele>1586.67</ele>
  <time>2026-08-28T19:10:31Z</time>
  <course>358.18</course>
  <speed>0.191049731745428</speed>
  <fix>3d</fix>
</trkpt>
<trkpt lat="40.072842" lon="-105.2305751">
  <ele>1586.4</ele>
  <time>2026-08-28T19:10:31Z</time>
  <course>260.14</course>
  <speed>0.11</speed>
  <fix>3d</fix>
</trkpt>
<trkpt lat="40.0728419" lon="-105.2305754">
  <ele>1586.71</ele>
  <time>2026-08-28T19:10:31Z</time>
  <course>358.3</course>
  <speed>0.2009975124224178</speed>
  <fix>3d</fix>
</trkpt>
<trkpt lat="40.0728419" lon="-105.2305758">
  <ele>1586.82</ele>
  <time>2026-08-28T19:10:31Z</time>
  <course>358.19</course>
  <speed>0.23194827009486402</speed>
  <fix>3d</fix>
</trkpt>
<trkpt lat="40.0728419" lon="-105.2305755">
  <ele>1586.6</ele>
  <time>2026-08-28T19:10:31Z</time>
  <course>258.03</course>
  <speed>0.21</speed>
  <fix>3d</fix>
</trkpt>
<trkpt lat="40.0728419" lon="-105.2305758">
  <ele>1586.83</ele>
  <time>2026-08-28T19:10:31Z</time>
  <course>358.14</course>
  <speed>0.24186773244895649</speed>
  <fix>3d</fix>
</trkpt>
<trkpt lat="40.0728418" lon="-105.2305764">
  <ele>1586.92</ele>
  <time>2026-08-28T19:10:31Z</time>
  <course>357.47</course>
  <speed>0.26476404589747454</speed>
  <fix>3d</fix>
</trkpt>
<trkpt lat="40.0728418" lon="-105.230576">
  <ele>1586.74</ele>
  <time>2026-08-28T19:10:31Z</time>
  <course>255.18</course>
  <speed>0.26</speed>
  <fix>3d</fix>
</trkpt>
<trkpt lat="40.0728418" lon="-105.2305764">
  <ele>1586.93</ele>
  <time>2026-08-28T19:10:31Z</time>
  <course>357.45</course>
  <speed>0.26476404589747454</speed>
  <fix>3d</fix>
</trkpt>
<trkpt lat="40.0728417" lon="-105.230577">
  <ele>1587.03</ele>
  <time>2026-08-28T19:10:31Z</time>
  <course>357.2</course>
  <speed>0.29120439557122074</speed>
  <fix>3d</fix>
</trkpt>
<trkpt lat="40.0728417" lon="-105.2305767">
  <ele>1586.85</ele>
  <time>2026-08-28T19:10:31Z</time>
  <course>251.52</course>
  <speed>0.28</speed>
  <fix>3d</fix>
</trkpt>
<trkpt lat="40.0728416" lon="-105.2305771">
  <ele>1587.03</ele>
  <time>2026-08-28T19:10:31Z</time>
  <course>357.2</course>
  <speed>0.29120439557122074</speed>
  <fix>3d</fix>
</trkpt>
<trkpt lat="40.0728415" lon="-105.2305777">
  <ele>1587.12</ele>
  <time>2026-08-28T19:10:31Z</time>
  <course>357.28</course>
  <speed>0.291547594742265</speed>
  <fix>3d</fix>
</trkpt>
<trkpt lat="40.0728414" lon="-105.2305773">
  <ele>1586.94</ele>
  <time>2026-08-28T19:10:31Z</time>
  <course>247.56</course>
  <speed>0.3</speed>
  <fix>3d</fix>
</trkpt>
<trkpt lat="40.0728414" lon="-105.2305778">
  <ele>1587.14</ele>
  <time>2026-08-28T19:10:31Z</time>
  <course>357.31</course>
  <speed>0.291547594742265</speed>
  <fix>3d</fix>
</trkpt>
<trkpt lat="40.0728412" lon="-105.2305783">
  <ele>1587.21</ele>
  <time>2026-08-28T19:10:31Z</time>
  <course>357.42</course>
  <speed>0.2906888370749727</speed>
  <fix>3d</fix>
</trkpt>
<trkpt lat="40.0728413" lon="-105.230578">
  <ele>1587.03</ele>
  <time>2026-08-28T19:10:31Z</time>
  <course>243.47</course>
  <speed>0.3</speed>
  <fix>3d</fix>
</trkpt>
<trkpt lat="40.0728412" lon="-105.2305784">
  <ele>1587.23</ele>
  <time>2026-08-28T19:10:31Z</time>
  <course>357.44</course>
  <speed>0.295296461204668</speed>
  <fix>3d</fix>
</trkpt>
<trkpt lat="40.0728409" lon="-105.2305789">
  <ele>1587.31</ele>
  <time>2026-08-28T19:10:31Z</time>
  <course>357.6</course>
  <speed>0.291547594742265</speed>
  <fix>3d</fix>
</trkpt>
<trkpt lat="40.072841" lon="-105.2305786">
  <ele>1587.12</ele>
  <time>2026-08-28T19:10:31Z</time>
  <course>239.35</course>
  <speed>0.3</speed>
  <fix>3d</fix>
</trkpt>
<trkpt lat="40.0728409" lon="-105.230579">
  <ele>1587.32</ele>
  <time>2026-08-28T19:10:31Z</time>
  <course>357.63</course>
  <speed>0.2884441020371191</speed>
  <fix>3d</fix>
</trkpt>
<trkpt lat="40.0728406" lon="-105.2305795">
  <ele>1587.4</ele>
  <time>2026-08-28T19:10:31Z</time>
  <course>357.84</course>
  <speed>0.2920616373302047</speed>
  <fix>3d</fix>
</trkpt>
<trkpt lat="40.0728407" lon="-105.2305791">
  <ele>1587.22</ele>
  <time>2026-08-28T19:10:31Z</time>
  <course>235.31</course>
  <speed>0.29</speed>
  <fix>3d</fix>
</trkpt>
<trkpt lat="40.0728406" lon="-105.2305795">
  <ele>1587.41</ele>
  <time>2026-08-28T19:10:31Z</time>
  <course>357.84</course>
  <speed>0.2920616373302047</speed>
  <fix>3d</fix>
</trkpt>
<trkpt lat="40.0728402" lon="-105.23058">
  <ele>1587.51</ele>
  <time>2026-08-28T19:10:31Z</time>
  <course>358.15</course>
  <speed>0.2906888370749727</speed>
  <fix>3d</fix>
</trkpt>
<trkpt lat="40.0728404" lon="-105.2305797">
  <ele>1587.32</ele>
  <time>2026-08-28T19:10:31Z</time>
  <course>231.49</course>
  <speed>0.29</speed>
  <fix>3d</fix>
</trkpt>
<trkpt lat="40.0728402" lon="-105.2305801">
  <ele>1587.52</ele>
  <time>2026-08-28T19:10:31Z</time>
  <course>358.2</course>
  <speed>0.29</speed>
  <fix>3d</fix>
</trkpt>
<trkpt lat="40.0728399" lon="-105.2305805">
  <ele>1587.63</ele>
  <time>2026-08-28T19:10:31Z</time>
  <course>358.48</course>
  <speed>0.29</speed>
  <fix>3d</fix>
</trkpt>
<trkpt lat="40.07284" lon="-105.2305803">
  <ele>1587.43</ele>
  <time>2026-08-28T19:10:31Z</time>
  <course>227.97</course>
  <speed>0.28</speed>
  <fix>3d</fix>
</trkpt>
<trkpt lat="40.0728398" lon="-105.2305806">
  <ele>1587.64</ele>
  <time>2026-08-28T19:10:31Z</time>
  <course>358.53</course>
  <speed>0.29</speed>
  <fix>3d</fix>
</trkpt>
<trkpt lat="40.0728395" lon="-105.230581">
  <ele>1587.75</ele>
  <time>2026-08-28T19:10:31Z</time>
  <course>358.82</course>
  <speed>0.29832867780352595</speed>
  <fix>3d</fix>
</trkpt>
<trkpt lat="40.0728397" lon="-105.2305808">
  <ele>1587.55</ele>
  <time>2026-08-28T19:10:31Z</time>
  <course>224.75</course>
  <speed>0.28</speed>
  <fix>3d</fix>
</trkpt>
<trkpt lat="40.0728394" lon="-105.2305811">
  <ele>1587.77</ele>
  <time>2026-08-28T19:10:31Z</time>
  <course>358.88</course>
  <speed>0.29832867780352595</speed>
  <fix>3d</fix>
</trkpt>
<trkpt lat="40.0728391" lon="-105.2305815">
  <ele>1587.88</ele>
  <time>2026-08-28T19:10:31Z</time>
  <course>359.21</course>
  <speed>0.3</speed>
  <fix>3d</fix>
</trkpt>
<trkpt lat="40.0728393" lon="-105.2305812">
  <ele>1587.66</ele>
  <time>2026-08-28T19:10:31Z</time>
  <course>221.89</course>
  <speed>0.28</speed>
  <fix>3d</fix>
</trkpt>
<trkpt lat="40.072839" lon="-105.2305815">
  <ele>1587.88</ele>
  <time>2026-08-28T19:10:31Z</time>
  <course>359.21</course>
  <speed>0.3</speed>
  <fix>3d</fix>
</trkpt>
<trkpt lat="40.0728386" lon="-105.2305819">
  <ele>1588.01</ele>
  <time>2026-08-28T19:10:31Z</time>
  <course>359.62</course>
  <speed>0.3080584360149873</speed>
  <fix>3d</fix>
</trkpt>
<trkpt lat="40.072839" lon="-105.2305816">
  <ele>1587.79</ele>
  <time>2026-08-28T19:10:31Z</time>
  <course>219.41</course>
  <speed>0.29</speed>
  <fix>3d</fix>
</trkpt>
<trkpt lat="40.0728386" lon="-105.2305819">
  <ele>1588.03</ele>
  <time>2026-08-28T19:10:31Z</time>
  <course>359.68</course>
  <speed>0.3080584360149873</speed>
  <fix>3d</fix>
</trkpt>
<trkpt lat="40.0728382" lon="-105.2305823">
  <ele>1588.13</ele>
  <time>2026-08-28T19:10:31Z</time>
  <course>0.02</course>
  <speed>0.31064449134018135</speed>
  <fix>3d</fix>
</trkpt>
<trkpt lat="40.0728386" lon="-105.230582">
  <ele>1587.91</ele>
  <time>2026-08-28T19:10:31Z</time>
  <course>217.23</course>
  <speed>0.29</speed>
  <fix>3d</fix>
</trkpt>
<trkpt lat="40.0728382" lon="-105.2305823">
  <ele>1588.13</ele>
  <time>2026-08-28T19:10:31Z</time>
  <course>0.02</course>
  <speed>0.31064449134018135</speed>
  <fix>3d</fix>
</trkpt>
<trkpt lat="40.0728377" lon="-105.2305827">
  <ele>1588.26</ele>
  <time>2026-08-28T19:10:31Z</time>
  <course>0.41</course>
  <speed>0.3138470965295043</speed>
  <fix>3d</fix>
</trkpt>
<trkpt lat="40.0728381" lon="-105.2305825">
  <ele>1588.04</ele>
  <time>2026-08-28T19:10:31Z</time>
  <course>215.3</course>
  <speed>0.29</speed>
  <fix>3d</fix>
</trkpt>
<trkpt lat="40.0728377" lon="-105.2305827">
  <ele>1588.28</ele>
  <time>2026-08-28T19:10:31Z</time>
  <course>0.47</course>
  <speed>0.3138470965295043</speed>
  <fix>3d</fix>
</trkpt>
<trkpt lat="40.0728373" lon="-105.2305831">
  <ele>1588.38</ele>
  <time>2026-08-28T19:10:31Z</time>
  <course>0.82</course>
  <speed>0.32249030993194194</speed>
  <fix>3d</fix>
</trkpt>
<trkpt lat="40.0728376" lon="-105.2305829">
  <ele>1588.15</ele>
  <time>2026-08-28T19:10:31Z</time>
  <course>213.56</course>
  <speed>0.3</speed>
  <fix>3d</fix>
</trkpt>
<trkpt lat="40.0728372" lon="-105.2305831">
  <ele>1588.4</ele>
  <time>2026-08-28T19:10:31Z</time>
  <course>0.88</course>
  <speed>0.3176476034853718</speed>
  <fix>3d</fix>
</trkpt>
<trkpt lat="40.0728368" lon="-105.2305834">
  <ele>1588.51</ele>
  <time>2026-08-28T19:10:31Z</time>
  <course>1.23</course>
  <speed>0.32649655434629016</speed>
  <fix>3d</fix>
</trkpt>
<trkpt lat="40.0728372" lon="-105.2305832">
  <ele>1588.28</ele>
  <time>2026-08-28T19:10:31Z</time>
  <course>212.05</course>
  <speed>0.3</speed>
  <fix>3d</fix>
</trkpt>
<trkpt lat="40.0728368" lon="-105.2305834">
  <ele>1588.51</ele>
  <time>2026-08-28T19:10:31Z</time>
  <course>1.23</course>
  <speed>0.32649655434629016</speed>
  <fix>3d</fix>
</trkpt>
<trkpt lat="40.0728363" lon="-105.2305838">
  <ele>1588.63</ele>
  <time>2026-08-28T19:10:31Z</time>
  <course>1.6</course>
  <speed>0.33541019662496846</speed>
  <fix>3d</fix>
</trkpt>
<trkpt lat="40.0728367" lon="-105.2305837">
  <ele>1588.4</ele>
  <time>2026-08-28T19:10:31Z</time>
  <course>210.74</course>
  <speed>0.31</speed>
  <fix>3d</fix>
</trkpt>
<trkpt lat="40.0728361" lon="-105.2305839">
  <ele>1588.67</ele>
  <time>2026-08-28T19:10:31Z</time>
  <course>1.71</course>
  <speed>0.33105890714493696</speed>
  <fix>3d</fix>
</trkpt>
<trkpt lat="40.0728358" lon="-105.2305842">
  <ele>1588.74</ele>
  <time>2026-08-28T19:10:31Z</time>
  <course>1.94</course>
  <speed>0.340147027033899</speed>
  <fix>3d</fix>
</trkpt>
<trkpt lat="40.0728362" lon="-105.230584">
  <ele>1588.53</ele>
  <time>2026-08-28T19:10:31Z</time>
  <course>209.54</course>
  <speed>0.31</speed>
  <fix>3d</fix>
</trkpt>
<trkpt lat="40.0728357" lon="-105.2305842">
  <ele>1588.76</ele>
  <time>2026-08-28T19:10:31Z</time>
  <course>1.99</course>
  <speed>0.340147027033899</speed>
  <fix>3d</fix>
</trkpt>
<trkpt lat="40.0728353" lon="-105.2305845">
  <ele>1588.86</ele>
  <time>2026-08-28T19:10:31Z</time>
  <course>0.93</course>
  <speed>0.340147027033899</speed>
  <fix>3d</fix>
</trkpt>
<trkpt lat="40.0728357" lon="-105.2305844">
  <ele>1588.65</ele>
  <time>2026-08-28T19:10:31Z</time>
  <course>208.48</course>
  <speed>0.32</speed>
  <fix>3d</fix>
</trkpt>
<trkpt lat="40.0728353" lon="-105.2305845">
  <ele>1588.86</ele>
  <time>2026-08-28T19:10:31Z</time>
  <course>0.93</course>
  <speed>0.340147027033899</speed>
  <fix>3d</fix>
</trkpt>
<trkpt lat="40.0728347" lon="-105.2305849">
  <ele>1588.99</ele>
  <time>2026-08-28T19:10:31Z</time>
  <course>1.14</course>
  <speed>0.3453983207834109</speed>
  <fix>3d</fix>
</trkpt>
<trkpt lat="40.0728352" lon="-105.2305848">
  <ele>1588.78</ele>
  <time>2026-08-28T19:10:31Z</time>
  <course>207.56</course>
  <speed>0.32</speed>
  <fix>3d</fix>
</trkpt>
<trkpt lat="40.0728347" lon="-105.2305849">
  <ele>1589.0</ele>
  <time>2026-08-28T19:10:31Z</time>
  <course>1.21</course>
  <speed>0.3453983207834109</speed>
  <fix>3d</fix>
</trkpt>
<trkpt lat="40.0728342" lon="-105.2305852">
  <ele>1589.12</ele>
  <time>2026-08-28T19:10:31Z</time>
  <course>1.61</course>
  <speed>0.3453983207834109</speed>
  <fix>3d</fix>
</trkpt>
<trkpt lat="40.0728347" lon="-105.2305851">
  <ele>1588.9</ele>
  <time>2026-08-28T19:10:31Z</time>
  <course>206.89</course>
  <speed>0.32</speed>
  <fix>3d</fix>
</trkpt>
<trkpt lat="40.0728342" lon="-105.2305852">
  <ele>1589.12</ele>
  <time>2026-08-28T19:10:31Z</time>
  <course>1.62</course>
  <speed>0.3453983207834109</speed>
  <fix>3d</fix>
</trkpt>
<trkpt lat="40.0728337" lon="-105.2305855">
  <ele>1589.25</ele>
  <time>2026-08-28T19:10:31Z</time>
  <course>1.96</course>
  <speed>0.3453983207834109</speed>
  <fix>3d</fix>
</trkpt>
<trkpt lat="40.0728342" lon="-105.2305854">
  <ele>1589.03</ele>
  <time>2026-08-28T19:10:31Z</time>
  <course>206.34</course>
  <speed>0.33</speed>
  <fix>3d</fix>
</trkpt>
<trkpt lat="40.0728336" lon="-105.2305856">
  <ele>1589.26</ele>
  <time>2026-08-28T19:10:31Z</time>
  <course>2.0</course>
  <speed>0.3453983207834109</speed>
  <fix>3d</fix>
</trkpt>
<trkpt lat="40.0728331" lon="-105.2305859">
  <ele>1589.37</ele>
  <time>2026-08-28T19:10:31Z</time>
  <course>2.21</course>
  <speed>0.3453983207834109</speed>
  <fix>3d</fix>
</trkpt>
<trkpt lat="40.0728336" lon="-105.2305858">
  <ele>1589.15</ele>
  <time>2026-08-28T19:10:31Z</time>
  <course>205.82</course>
  <speed>0.33</speed>
  <fix>3d</fix>
</trkpt>
<trkpt lat="40.0728331" lon="-105.2305859">
  <ele>1589.39</ele>
  <time>2026-08-28T19:10:31Z</time>
  <course>2.25</course>
  <speed>0.3417601498127012</speed>
  <fix>3d</fix>
</trkpt>
<trkpt lat="40.0728326" lon="-105.2305862">
  <ele>1589.49</ele>
  <time>2026-08-28T19:10:31Z</time>
  <course>2.39</course>
  <speed>0.3417601498127012</speed>
  <fix>3d</fix>
</trkpt>
<trkpt lat="40.072833" lon="-105.2305861">
  <ele>1589.28</ele>
  <time>2026-08-28T19:10:31Z</time>
  <course>205.26</course>
  <speed>0.34</speed>
  <fix>3d</fix>
</trkpt>
<trkpt lat="40.0728325" lon="-105.2305862">
  <ele>1589.51</ele>
  <time>2026-08-28T19:10:31Z</time>
  <course>2.42</course>
  <speed>0.3417601498127012</speed>
  <fix>3d</fix>
</trkpt>
<trkpt lat="40.0728321" lon="-105.2305865">
  <ele>1589.62</ele>
  <time>2026-08-28T19:10:31Z</time>
  <course>2.58</course>
  <speed>0.3417601498127012</speed>
  <fix>3d</fix>
</trkpt>
<trkpt lat="40.0728325" lon="-105.2305865">
  <ele>1589.4</ele>
  <time>2026-08-28T19:10:31Z</time>
  <course>204.69</course>
  <speed>0.35</speed>
  <fix>3d</fix>
</trkpt>
<trkpt lat="40.072832" lon="-105.2305866">
  <ele>1589.64</ele>
  <time>2026-08-28T19:10:31Z</time>
  <course>2.6</course>
  <speed>0.3417601498127012</speed>
  <fix>3d</fix>
</trkpt>
<trkpt lat="40.0728315" lon="-105.2305869">
  <ele>1589.75</ele>
  <time>2026-08-28T19:10:31Z</time>
  <course>2.72</course>
  <speed>0.3417601498127012</speed>
  <fix>3d</fix>
</trkpt>
<trkpt lat="40.0728319" lon="-105.2305868">
  <ele>1589.53</ele>
  <time>2026-08-28T19:10:31Z</time>
  <course>204.12</course>
  <speed>0.35</speed>
  <fix>3d</fix>
</trkpt>
<trkpt lat="40.0728315" lon="-105.2305869">
  <ele>1589.75</ele>
  <time>2026-08-28T19:10:31Z</time>
  <course>2.73</course>
  <speed>0.3417601498127012</speed>
  <fix>3d</fix>
</trkpt>
<trkpt lat="40.0728309" lon="-105.2305872">
  <ele>1589.87</ele>
  <time>2026-08-28T19:10:31Z</time>
  <course>2.89</course>
  <speed>0.3417601498127012</speed>
  <fix>3d</fix>
</trkpt>
<trkpt lat="40.0728314" lon="-105.2305872">
  <ele>1589.66</ele>
  <time>2026-08-28T19:10:31Z</time>
  <course>203.51</course>
  <speed>0.36</speed>
  <fix>3d</fix>
</trkpt>
<trkpt lat="40.0728309" lon="-105.2305872">
  <ele>1589.89</ele>
  <time>2026-08-28T19:10:31Z</time>
  <course>2.91</course>
  <speed>0.3417601498127012</speed>
  <fix>3d</fix>
</trkpt>
<trkpt lat="40.0728304" lon="-105.2305875">
  <ele>1590.0</ele>
  <time>2026-08-28T19:10:31Z</time>
  <course>3.09</course>
  <speed>0.35114099732158877</speed>
  <fix>3d</fix>
</trkpt>
<trkpt lat="40.0728307" lon="-105.2305875">
  <ele>1589.79</ele>
  <time>2026-08-28T19:10:31Z</time>
  <course>202.95</course>
  <speed>0.37</speed>
  <fix>3d</fix>
</trkpt>
<trkpt lat="40.0728303" lon="-105.2305876">
  <ele>1590.01</ele>
  <time>2026-08-28T19:10:31Z</time>
  <course>3.12</course>
  <speed>0.35114099732158877</speed>
  <fix>3d</fix>
</trkpt>
<trkpt lat="40.0728297" lon="-105.2305879">
  <ele>1590.12</ele>
  <time>2026-08-28T19:10:31Z</time>
  <course>3.3</course>
  <speed>0.35114099732158877</speed>
  <fix>3d</fix>
</trkpt>
<trkpt lat="40.0728301" lon="-105.2305878">
  <ele>1589.91</ele>
  <time>2026-08-28T19:10:31Z</time>
  <course>202.48</course>
  <speed>0.37</speed>
  <fix>3d</fix>
</trkpt>
<trkpt lat="40.0728297" lon="-105.2305879">
  <ele>1590.14</ele>
  <time>2026-08-28T19:10:31Z</time>
  <course>3.33</course>
  <speed>0.35114099732158877</speed>
  <fix>3d</fix>
</trkpt>
<trkpt lat="40.0728291" lon="-105.2305882">
  <ele>1590.24</ele>
  <time>2026-08-28T19:10:31Z</time>
  <course>3.49</course>
  <speed>0.3605551275463989</speed>
  <fix>3d</fix>
</trkpt>
<trkpt lat="40.0728295" lon="-105.2305882">
  <ele>1590.04</ele>
  <time>2026-08-28T19:10:31Z</time>
  <course>202.11</course>
  <speed>0.38</speed>
  <fix>3d</fix>
</trkpt>
<trkpt lat="40.072829" lon="-105.2305883">
  <ele>1590.26</ele>
  <time>2026-08-28T19:10:31Z</time>
  <course>3.51</course>
  <speed>0.3605551275463989</speed>
  <fix>3d</fix>
</trkpt>
<trkpt lat="40.0728285" lon="-105.2305886">
  <ele>1590.37</ele>
  <time>2026-08-28T19:10:31Z</time>
  <course>3.67</course>
  <speed>0.3605551275463989</speed>
  <fix>3d</fix>
</trkpt>
<trkpt lat="40.0728288" lon="-105.2305886">
  <ele>1590.17</ele>
  <time>2026-08-28T19:10:31Z</time>
  <course>201.76</course>
  <speed>0.38</speed>
  <fix>3d</fix>
</trkpt>
<trkpt lat="40.0728285" lon="-105.2305886">
  <ele>1590.38</ele>
  <time>2026-08-28T19:10:31Z</time>
  <course>3.68</course>
  <speed>0.3605551275463989</speed>
  <fix>3d</fix>
</trkpt>
<trkpt lat="40.0728278" lon="-105.2305889">
  <ele>1590.5</ele>
  <time>2026-08-28T19:10:31Z</time>
  <course>3.86</course>
  <speed>0.37336309405188944</speed>
  <fix>3d</fix>
</trkpt>
<trkpt lat="40.0728282" lon="-105.2305889">
  <ele>1590.3</ele>
  <time>2026-08-28T19:10:31Z</time>
  <course>201.49</course>
  <speed>0.38</speed>
  <fix>3d</fix>
</trkpt>
<trkpt lat="40.0728277" lon="-105.230589">
  <ele>1590.52</ele>
  <time>2026-08-28T19:10:31Z</time>
  <course>3.88</course>
  <speed>0.37336309405188944</speed>
  <fix>3d</fix>
</trkpt>
<trkpt lat="40.0728272" lon="-105.2305893">
  <ele>1590.63</ele>
  <time>2026-08-28T19:10:31Z</time>
  <course>3.99</course>
  <speed>0.37336309405188944</speed>
  <fix>3d</fix>
</trkpt>
<trkpt lat="40.0728275" lon="-105.2305892">
  <ele>1590.42</ele>
  <time>2026-08-28T19:10:31Z</time>
  <course>201.28</course>
  <speed>0.39</speed>
  <fix>3d</fix>
</trkpt>
<trkpt lat="40.0728272" lon="-105.2305893">
  <ele>1590.63</ele>
  <time>2026-08-28T19:10:31Z</time>
  <course>3.99</course>
  <speed>0.37336309405188944</speed>
  <fix>3d</fix>
</trkpt>
<trkpt lat="40.0728265" lon="-105.2305896">
  <ele>1590.75</ele>
  <time>2026-08-28T19:10:31Z</time>
  <course>4.15</course>
  <speed>0.3827531841800928</speed>
  <fix>3d</fix>
</trkpt>
<trkpt lat="40.0728268" lon="-105.2305896">
  <ele>1590.55</ele>
  <time>2026-08-28T19:10:31Z</time>
  <course>201.13</course>
  <speed>0.39</speed>
  <fix>3d</fix>
</trkpt>
<trkpt lat="40.0728265" lon="-105.2305896">
  <ele>1590.75</ele>
  <time>2026-08-28T19:10:31Z</time>
  <course>4.15</course>
  <speed>0.3827531841800928</speed>
  <fix>3d</fix>
</trkpt>
<trkpt lat="40.0728258" lon="-105.2305899">
  <ele>1590.88</ele>
  <time>2026-08-28T19:10:31Z</time>
  <course>4.27</course>
  <speed>0.3827531841800928</speed>
  <fix>3d</fix>
</trkpt>
<trkpt lat="40.0728262" lon="-105.2305899">
  <ele>1590.68</ele>
  <time>2026-08-28T19:10:31Z</time>
  <course>201.04</course>
  <speed>0.39</speed>
  <fix>3d</fix>
</trkpt>
<trkpt lat="40.0728257" lon="-105.23059">
  <ele>1590.9</ele>
  <time>2026-08-28T19:10:31Z</time>
  <course>4.29</course>
  <speed>0.3827531841800928</speed>
  <fix>3d</fix>
</trkpt>
<trkpt lat="40.0728252" lon="-105.2305903">
  <ele>1591.0</ele>
  <time>2026-08-28T19:10:31Z</time>
  <course>4.42</course>
  <speed>0.3827531841800928</speed>
  <fix>3d</fix>
</trkpt>
<trkpt lat="40.0728255" lon="-105.2305902">
  <ele>1590.81</ele>
  <time>2026-08-28T19:10:31Z</time>
  <course>200.95</course>
  <speed>0.4</speed>
  <fix>3d</fix>
</trkpt>
<trkpt lat="40.0728251" lon="-105.2305903">
  <ele>1591.02</ele>
  <time>2026-08-28T19:10:31Z</time>
  <course>4.44</course>
  <speed>0.3827531841800928</speed>
  <fix>3d</fix>
</trkpt>
<trkpt lat="40.0728245" lon="-105.2305906">
  <ele>1591.13</ele>
  <time>2026-08-28T19:10:31Z</time>
  <course>4.55</course>
  <speed>0.3827531841800928</speed>
  <fix>3d</fix>
</trkpt>
<trkpt lat="40.0728249" lon="-105.2305906">
  <ele>1590.94</ele>
  <time>2026-08-28T19:10:31Z</time>
  <course>200.94</course>
  <speed>0.4</speed>
  <fix>3d</fix>
</trkpt>
<trkpt lat="40.0728245" lon="-105.2305906">
  <ele>1591.14</ele>
  <time>2026-08-28T19:10:31Z</time>
  <course>4.56</course>
  <speed>0.3827531841800928</speed>
  <fix>3d</fix>
</trkpt>
<trkpt lat="40.0728238" lon="-105.230591">
  <ele>1591.26</ele>
  <time>2026-08-28T19:10:31Z</time>
  <course>4.7</course>
  <speed>0.3827531841800928</speed>
  <fix>3d</fix>
</trkpt>
<trkpt lat="40.0728242" lon="-105.2305909">
  <ele>1591.06</ele>
  <time>2026-08-28T19:10:31Z</time>
  <course>200.98</course>
  <speed>0.4</speed>
  <fix>3d</fix>
</trkpt>
<trkpt lat="40.0728237" lon="-105.230591">
  <ele>1591.28</ele>
  <time>2026-08-28T19:10:31Z</time>
  <course>4.72</course>
  <speed>0.3827531841800928</speed>
  <fix>3d</fix>
</trkpt>
<trkpt lat="40.0728231" lon="-105.2305913">
  <ele>1591.38</ele>
  <time>2026-08-28T19:10:31Z</time>
  <course>4.83</course>
  <speed>0.3921734310225516</speed>
  <fix>3d</fix>
</trkpt>
<trkpt lat="40.0728235" lon="-105.2305912">
  <ele>1591.19</ele>
  <time>2026-08-28T19:10:31Z</time>
  <course>201.04</course>
  <speed>0.4</speed>
  <fix>3d</fix>
</trkpt>
<trkpt lat="40.072823" lon="-105.2305914">
  <ele>1591.4</ele>
  <time>2026-08-28T19:10:31Z</time>
  <course>4.84</course>
  <speed>0.3921734310225516</speed>
  <fix>3d</fix>
</trkpt>
<trkpt lat="40.0728225" lon="-105.2305916">
  <ele>1591.51</ele>
  <time>2026-08-28T19:10:31Z</time>
  <course>4.91</course>
  <speed>0.3921734310225516</speed>
  <fix>3d</fix>
</trkpt>
<trkpt lat="40.0728228" lon="-105.2305916">
  <ele>1591.32</ele>
  <time>2026-08-28T19:10:31Z</time>
  <course>201.11</course>
  <speed>0.4</speed>
  <fix>3d</fix>
</trkpt>
<trkpt lat="40.0728224" lon="-105.2305917">
  <ele>1591.53</ele>
  <time>2026-08-28T19:10:31Z</time>
  <course>4.93</course>
  <speed>0.3921734310225516</speed>
  <fix>3d</fix>
</trkpt>
<trkpt lat="40.0728218" lon="-105.230592">
  <ele>1591.64</ele>
  <time>2026-08-28T19:10:31Z</time>
  <course>5.05</course>
  <speed>0.3921734310225516</speed>
  <fix>3d</fix>
</trkpt>
<trkpt lat="40.0728221" lon="-105.2305919">
  <ele>1591.44</ele>
  <time>2026-08-28T19:10:31Z</time>
  <course>201.19</course>
  <speed>0.4</speed>
  <fix>3d</fix>
</trkpt>
<trkpt lat="40.0728218" lon="-105.230592">
  <ele>1591.64</ele>
  <time>2026-08-28T19:10:31Z</time>
  <course>5.05</course>
  <speed>0.3921734310225516</speed>
  <fix>3d</fix>
</trkpt>
<trkpt lat="40.0728211" lon="-105.2305923">
  <ele>1591.77</ele>
  <time>2026-08-28T19:10:31Z</time>
  <course>5.18</course>
  <speed>0.3921734310225516</speed>
  <fix>3d</fix>
</trkpt>
<trkpt lat="40.0728215" lon="-105.2305923">
  <ele>1591.57</ele>
  <time>2026-08-28T19:10:31Z</time>
  <course>201.34</course>
  <speed>0.4</speed>
  <fix>3d</fix>
</trkpt>
<trkpt lat="40.072821" lon="-105.2305924">
  <ele>1591.78</ele>
  <time>2026-08-28T19:10:31Z</time>
  <course>5.2</course>
  <speed>0.3921734310225516</speed>
  <fix>3d</fix>
</trkpt>
<trkpt lat="40.0728204" lon="-105.2305927">
  <ele>1591.89</ele>
  <time>2026-08-28T19:10:31Z</time>
  <course>5.29</course>
  <speed>0.3921734310225516</speed>
  <fix>3d</fix>
</trkpt>
<trkpt lat="40.0728208" lon="-105.2305926">
  <ele>1591.7</ele>
  <time>2026-08-28T19:10:31Z</time>
  <course>201.51</course>
  <speed>0.4</speed>
  <fix>3d</fix>
</trkpt>
<trkpt lat="40.0728204" lon="-105.2305927">
  <ele>1591.9</ele>
  <time>2026-08-28T19:10:31Z</time>
  <course>5.29</course>
  <speed>0.3921734310225516</speed>
  <fix>3d</fix>
</trkpt>
<trkpt lat="40.0728197" lon="-105.230593">
  <ele>1592.02</ele>
  <time>2026-08-28T19:10:31Z</time>
  <course>5.4</course>
  <speed>0.3921734310225516</speed>
  <fix>3d</fix>
</trkpt>
<trkpt lat="40.0728201" lon="-105.230593">
  <ele>1591.82</ele>
  <time>2026-08-28T19:10:31Z</time>
  <course>201.68</course>
  <speed>0.4</speed>
  <fix>3d</fix>
</trkpt>
<trkpt lat="40.0728197" lon="-105.2305931">
  <ele>1592.04</ele>
  <time>2026-08-28T19:10:31Z</time>
  <course>5.42</course>
  <speed>0.3921734310225516</speed>
  <fix>3d</fix>
</trkpt>
<trkpt lat="40.0728191" lon="-105.2305934">
  <ele>1592.14</ele>
  <time>2026-08-28T19:10:31Z</time>
  <course>5.51</course>
  <speed>0.3921734310225516</speed>
  <fix>3d</fix>
</trkpt>
<trkpt lat="40.0728194" lon="-105.2305933">
  <ele>1591.95</ele>
  <time>2026-08-28T19:10:31Z</time>
  <course>201.86</course>
  <speed>0.4</speed>
  <fix>3d</fix>
</trkpt>
<trkpt lat="40.072819" lon="-105.2305934">
  <ele>1592.16</ele>
  <time>2026-08-28T19:10:31Z</time>
  <course>5.53</course>
  <speed>0.3921734310225516</speed>
  <fix>3d</fix>
</trkpt>
<trkpt lat="40.0728184" lon="-105.2305937">
  <ele>1592.26</ele>
  <time>2026-08-28T19:10:31Z</time>
  <course>5.6</course>
  <speed>0.3921734310225516</speed>
  <fix>3d</fix>
</trkpt>
<trkpt lat="40.0728187" lon="-105.2305936">
  <ele>1592.07</ele>
  <time>2026-08-28T19:10:31Z</time>
  <course>202.04</course>
  <speed>0.4</speed>
  <fix>3d</fix>
</trkpt>
<trkpt lat="40.0728184" lon="-105.2305937">
  <ele>1592.26</ele>
  <time>2026-08-28T19:10:31Z</time>
  <course>5.6</course>
  <speed>0.3921734310225516</speed>
  <fix>3d</fix>
</trkpt>
<trkpt lat="40.0728177" lon="-105.2305941">
  <ele>1592.39</ele>
  <time>2026-08-28T19:10:31Z</time>
  <course>5.71</course>
  <speed>0.3921734310225516</speed>
  <fix>3d</fix>
</trkpt>
<trkpt lat="40.0728181" lon="-105.230594">
  <ele>1592.2</ele>
  <time>2026-08-28T19:10:31Z</time>
  <course>202.3</course>
  <speed>0.39</speed>
  <fix>3d</fix>
</trkpt>
<trkpt lat="40.0728176" lon="-105.2305941">
  <ele>1592.4</ele>
  <time>2026-08-28T19:10:31Z</time>
  <course>5.71</course>
  <speed>0.3921734310225516</speed>
  <fix>3d</fix>
</trkpt>
<trkpt lat="40.0728171" lon="-105.2305944">
  <ele>1592.51</ele>
  <time>2026-08-28T19:10:31Z</time>
  <course>5.79</course>
  <speed>0.3827531841800928</speed>
  <fix>3d</fix>
</trkpt>
<trkpt lat="40.0728175" lon="-105.2305944">
  <ele>1592.32</ele>
  <time>2026-08-28T19:10:31Z</time>
  <course>202.61</course>
  <speed>0.39</speed>
  <fix>3d</fix>
</trkpt>
<trkpt lat="40.072817" lon="-105.2305945">
  <ele>1592.53</ele>
  <time>2026-08-28T19:10:31Z</time>
  <course>5.8</course>
  <speed>0.3827531841800928</speed>
  <fix>3d</fix>
</trkpt>
<trkpt lat="40.0728164" lon="-105.2305948">
  <ele>1592.63</ele>
  <time>2026-08-28T19:10:31Z</time>
  <course>5.91</course>
  <speed>0.3827531841800928</speed>
  <fix>3d</fix>
</trkpt>
<trkpt lat="40.0728168" lon="-105.2305947">
  <ele>1592.45</ele>
  <time>2026-08-28T19:10:31Z</time>
  <course>202.91</course>
  <speed>0.39</speed>
  <fix>3d</fix>
</trkpt>
<trkpt lat="40.0728164" lon="-105.2305948">
  <ele>1592.64</ele>
  <time>2026-08-28T19:10:31Z</time>
  <course>5.91</course>
  <speed>0.3827531841800928</speed>
  <fix>3d</fix>
</trkpt>
<trkpt lat="40.0728158" lon="-105.2305951">
  <ele>1592.76</ele>
  <time>2026-08-28T19:10:31Z</time>
  <course>5.97</course>
  <speed>0.3827531841800928</speed>
  <fix>3d</fix>
</trkpt>
<trkpt lat="40.0728161" lon="-105.2305951">
  <ele>1592.57</ele>
  <time>2026-08-28T19:10:31Z</time>
  <course>203.23</course>
  <speed>0.39</speed>
  <fix>3d</fix>
</trkpt>
<trkpt lat="40.0728157" lon="-105.2305952">
  <ele>1592.78</ele>
  <time>2026-08-28T19:10:31Z</time>
  <course>5.99</course>
  <speed>0.3827531841800928</speed>
  <fix>3d</fix>
</trkpt>
<trkpt lat="40.0728151" lon="-105.2305955">
  <ele>1592.89</ele>
  <time>2026-08-28T19:10:31Z</time>
  <course>6.08</course>
  <speed>0.3827531841800928</speed>
  <fix>3d</fix>
</trkpt>
<trkpt lat="40.0728155" lon="-105.2305954">
  <ele>1592.7</ele>
  <time>2026-08-28T19:10:31Z</time>
  <course>203.58</course>
  <speed>0.39</speed>
  <fix>3d</fix>
</trkpt>
<trkpt lat="40.0728151" lon="-105.2305955">
  <ele>1592.89</ele>
  <time>2026-08-28T19:10:31Z</time>
  <course>6.08</course>
  <speed>0.3827531841800928</speed>
  <fix>3d</fix>
</trkpt>
<trkpt lat="40.0728145" lon="-105.2305958">
  <ele>1593.02</ele>
  <time>2026-08-28T19:10:31Z</time>
  <course>6.16</course>
  <speed>0.3827531841800928</speed>
  <fix>3d</fix>
</trkpt>
<trkpt lat="40.0728149" lon="-105.2305959">
  <ele>1592.83</ele>
  <time>2026-08-28T19:10:31Z</time>
  <course>203.98</course>
  <speed>0.39</speed>
  <fix>3d</fix>
</trkpt>
<trkpt lat="40.0728144" lon="-105.2305959">
  <ele>1593.03</ele>
  <time>2026-08-28T19:10:31Z</time>
  <course>6.18</course>
  <speed>0.3827531841800928</speed>
  <fix>3d</fix>
</trkpt>
<trkpt lat="40.0728138" lon="-105.2305962">
  <ele>1593.14</ele>
  <time>2026-08-28T19:10:31Z</time>
  <course>6.25</course>
  <speed>0.37336309405188944</speed>
  <fix>3d</fix>
</trkpt>
<trkpt lat="40.0728142" lon="-105.2305962">
  <ele>1592.96</ele>
  <time>2026-08-28T19:10:31Z</time>
  <course>204.39</course>
  <speed>0.38</speed>
  <fix>3d</fix>
</trkpt>
<trkpt lat="40.0728137" lon="-105.2305963">
  <ele>1593.16</ele>
  <time>2026-08-28T19:10:31Z</time>
  <course>6.26</course>
  <speed>0.37336309405188944</speed>
  <fix>3d</fix>
</trkpt>
<trkpt lat="40.0728132" lon="-105.2305966">
  <ele>1593.27</ele>
  <time>2026-08-28T19:10:31Z</time>
  <course>6.35</course>
  <speed>0.37336309405188944</speed>
  <fix>3d</fix>
</trkpt>
<trkpt lat="40.0728136" lon="-105.2305966">
  <ele>1593.08</ele>
  <time>2026-08-28T19:10:31Z</time>
  <course>204.78</course>
  <speed>0.38</speed>
  <fix>3d</fix>
</trkpt>
<trkpt lat="40.0728131" lon="-105.2305966">
  <ele>1593.28</ele>
  <time>2026-08-28T19:10:31Z</time>
  <course>6.35</course>
  <speed>0.37336309405188944</speed>
  <fix>3d</fix>
</trkpt>
<trkpt lat="40.0728126" lon="-105.2305969">
  <ele>1593.39</ele>
  <time>2026-08-28T19:10:31Z</time>
  <course>6.42</course>
  <speed>0.37336309405188944</speed>
  <fix>3d</fix>
</trkpt>
<trkpt lat="40.0728129" lon="-105.2305969">
  <ele>1593.21</ele>
  <time>2026-08-28T19:10:31Z</time>
  <course>205.2</course>
  <speed>0.38</speed>
  <fix>3d</fix>
</trkpt>
<trkpt lat="40.0728125" lon="-105.230597">
  <ele>1593.41</ele>
  <time>2026-08-28T19:10:31Z</time>
  <course>6.44</course>
  <speed>0.37336309405188944</speed>
  <fix>3d</fix>
</trkpt>
<trkpt lat="40.072812" lon="-105.2305973">
  <ele>1593.52</ele>
  <time>2026-08-28T19:10:31Z</time>
  <course>6.49</course>
  <speed>0.37336309405188944</speed>
  <fix>3d</fix>
</trkpt>
<trkpt lat="40.0728124" lon="-105.2305973">
  <ele>1593.34</ele>
  <time>2026-08-28T19:10:31Z</time>
  <course>205.6</course>
  <speed>0.38</speed>
  <fix>3d</fix>
</trkpt>
<trkpt lat="40.0728119" lon="-105.2305973">
  <ele>1593.52</ele>
  <time>2026-08-28T19:10:31Z</time>
  <course>6.49</course>
  <speed>0.37336309405188944</speed>
  <fix>3d</fix>
</trkpt>
<trkpt lat="40.0728113" lon="-105.2305977">
  <ele>1593.65</ele>
  <time>2026-08-28T19:10:31Z</time>
  <course>6.58</course>
  <speed>0.3640054944640259</speed>
  <fix>3d</fix>
</trkpt>
<trkpt lat="40.0728117" lon="-105.2305978">
  <ele>1593.47</ele>
  <time>2026-08-28T19:10:31Z</time>
  <course>206.0</course>
  <speed>0.37</speed>
  <fix>3d</fix>
</trkpt>
<trkpt lat="40.0728113" lon="-105.2305978">
  <ele>1593.67</ele>
  <time>2026-08-28T19:10:31Z</time>
  <course>6.59</course>
  <speed>0.3640054944640259</speed>
  <fix>3d</fix>
</trkpt>
<trkpt lat="40.0728107" lon="-105.2305981">
  <ele>1593.78</ele>
  <time>2026-08-28T19:10:31Z</time>
  <course>6.69</course>
  <speed>0.3640054944640259</speed>
  <fix>3d</fix>
</trkpt>
<trkpt lat="40.072811" lon="-105.2305982">
  <ele>1593.59</ele>
  <time>2026-08-28T19:10:31Z</time>
  <course>206.45</course>
  <speed>0.37</speed>
  <fix>3d</fix>
</trkpt>
<trkpt lat="40.0728106" lon="-105.2305982">
  <ele>1593.8</ele>
  <time>2026-08-28T19:10:31Z</time>
  <course>6.7</course>
  <speed>0.3640054944640259</speed>
  <fix>3d</fix>
</trkpt>
<trkpt lat="40.0728101" lon="-105.2305985">
  <ele>1593.91</ele>
  <time>2026-08-28T19:10:31Z</time>
  <course>6.77</course>
  <speed>0.3640054944640259</speed>
  <fix>3d</fix>
</trkpt>
<trkpt lat="40.0728105" lon="-105.2305985">
  <ele>1593.72</ele>
  <time>2026-08-28T19:10:31Z</time>
  <course>206.92</course>
  <speed>0.37</speed>
  <fix>3d</fix>
</trkpt>
<trkpt lat="40.07281" lon="-105.2305985">
  <ele>1593.93</ele>
  <time>2026-08-28T19:10:31Z</time>
  <course>6.78</course>
  <speed>0.3640054944640259</speed>
  <fix>3d</fix>
</trkpt>
<trkpt lat="40.0728095" lon="-105.2305989">
  <ele>1594.04</ele>
  <time>2026-08-28T19:10:31Z</time>
  <course>6.85</course>
  <speed>0.3584689665786984</speed>
  <fix>3d</fix>
</trkpt>
<trkpt lat="40.0728099" lon="-105.230599">
  <ele>1593.85</ele>
  <time>2026-08-28T19:10:31Z</time>
  <course>207.38</course>
  <speed>0.36</speed>
  <fix>3d</fix>
</trkpt>
<trkpt lat="40.0728095" lon="-105.2305989">
  <ele>1594.05</ele>
  <time>2026-08-28T19:10:31Z</time>
  <course>6.86</course>
  <speed>0.3584689665786984</speed>
  <fix>3d</fix>
</trkpt>
<trkpt lat="40.072809" lon="-105.2305993">
  <ele>1594.17</ele>
  <time>2026-08-28T19:10:31Z</time>
  <course>6.97</course>
  <speed>0.3584689665786984</speed>
  <fix>3d</fix>
</trkpt>
<trkpt lat="40.0728094" lon="-105.2305993">
  <ele>1593.97</ele>
  <time>2026-08-28T19:10:31Z</time>
  <course>207.85</course>
  <speed>0.36</speed>
  <fix>3d</fix>
</trkpt>
<trkpt lat="40.0728089" lon="-105.2305993">
  <ele>1594.17</ele>
  <time>2026-08-28T19:10:31Z</time>
  <course>6.97</course>
  <speed>0.3584689665786984</speed>
  <fix>3d</fix>
</trkpt>
<trkpt lat="40.0728084" lon="-105.2305997">
  <ele>1594.29</ele>
  <time>2026-08-28T19:10:31Z</time>
  <course>7.02</course>
  <speed>0.3584689665786984</speed>
  <fix>3d</fix>
</trkpt>
<trkpt lat="40.0728088" lon="-105.2305997">
  <ele>1594.1</ele>
  <time>2026-08-28T19:10:31Z</time>
  <course>208.31</course>
  <speed>0.36</speed>
  <fix>3d</fix>
</trkpt>
<trkpt lat="40.0728083" lon="-105.2305997">
  <ele>1594.31</ele>
  <time>2026-08-28T19:10:31Z</time>
  <course>7.03</course>
  <speed>0.34928498393145957</speed>
  <fix>3d</fix>
</trkpt>
<trkpt lat="40.0728078" lon="-105.2306001">
  <ele>1594.42</ele>
  <time>2026-08-28T19:10:31Z</time>
  <course>7.08</course>
  <speed>0.34928498393145957</speed>
  <fix>3d</fix>
</trkpt>
<trkpt lat="40.0728082" lon="-105.2306002">
  <ele>1594.22</ele>
  <time>2026-08-28T19:10:31Z</time>
  <course>208.74</course>
  <speed>0.35</speed>
  <fix>3d</fix>
</trkpt>
<trkpt lat="40.0728077" lon="-105.2306002">
  <ele>1594.44</ele>
  <time>2026-08-28T19:10:31Z</time>
  <course>7.09</course>
  <speed>0.34928498393145957</speed>
  <fix>3d</fix>
</trkpt>
<trkpt lat="40.0728073" lon="-105.2306005">
  <ele>1594.54</ele>
  <time>2026-08-28T19:10:31Z</time>
  <course>7.17</course>
  <speed>0.34928498393145957</speed>
  <fix>3d</fix>
</trkpt>
<trkpt lat="40.0728076" lon="-105.2306006">
  <ele>1594.34</ele>
  <time>2026-08-28T19:10:31Z</time>
  <course>209.19</course>
  <speed>0.35</speed>
  <fix>3d</fix>
</trkpt>
<trkpt lat="40.0728072" lon="-105.2306005">
  <ele>1594.56</ele>
  <time>2026-08-28T19:10:31Z</time>
  <course>7.17</course>
  <speed>0.34928498393145957</speed>
  <fix>3d</fix>
</trkpt>
<trkpt lat="40.0728067" lon="-105.2306009">
  <ele>1594.67</ele>
  <time>2026-08-28T19:10:31Z</time>
  <course>7.21</course>
  <speed>0.340147027033899</speed>
  <fix>3d</fix>
</trkpt>
<trkpt lat="40.072807" lon="-105.2306009">
  <ele>1594.46</ele>
  <time>2026-08-28T19:10:31Z</time>
  <course>209.64</course>
  <speed>0.35</speed>
  <fix>3d</fix>
</trkpt>
<trkpt lat="40.0728066" lon="-105.230601">
  <ele>1594.68</ele>
  <time>2026-08-28T19:10:31Z</time>
  <course>7.23</course>
  <speed>0.340147027033899</speed>
  <fix>3d</fix>
</trkpt>
<trkpt lat="40.0728061" lon="-105.2306013">
  <ele>1594.79</ele>
  <time>2026-08-28T19:10:31Z</time>
  <course>7.27</course>
  <speed>0.340147027033899</speed>
  <fix>3d</fix>
</trkpt>
<trkpt lat="40.0728065" lon="-105.2306014">
  <ele>1594.59</ele>
  <time>2026-08-28T19:10:31Z</time>
  <course>210.06</course>
  <speed>0.34</speed>
  <fix>3d</fix>
</trkpt>
<trkpt lat="40.0728061" lon="-105.2306014">
  <ele>1594.81</ele>
  <time>2026-08-28T19:10:31Z</time>
  <course>7.28</course>
  <speed>0.340147027033899</speed>
  <fix>3d</fix>
</trkpt>
<trkpt lat="40.0728056" lon="-105.2306017">
  <ele>1594.91</ele>
  <time>2026-08-28T19:10:31Z</time>
  <course>7.33</course>
  <speed>0.340147027033899</speed>
  <fix>3d</fix>
</trkpt>
<trkpt lat="40.072806" lon="-105.2306017">
  <ele>1594.71</ele>
  <time>2026-08-28T19:10:31Z</time>
  <course>210.44</course>
  <speed>0.34</speed>
  <fix>3d</fix>
</trkpt>
<trkpt lat="40.0728056" lon="-105.2306017">
  <ele>1594.91</ele>
  <time>2026-08-28T19:10:31Z</time>
  <course>7.33</course>
  <speed>0.340147027033899</speed>
  <fix>3d</fix>
</trkpt>
<trkpt lat="40.0728051" lon="-105.2306021">
  <ele>1595.03</ele>
  <time>2026-08-28T19:10:31Z</time>
  <course>7.4</course>
  <speed>0.33105890714493696</speed>
  <fix>3d</fix>
</trkpt>
<trkpt lat="40.0728055" lon="-105.2306021">
  <ele>1594.83</ele>
  <time>2026-08-28T19:10:31Z</time>
  <course>210.8</course>
  <speed>0.34</speed>
  <fix>3d</fix>
</trkpt>
<trkpt lat="40.072805" lon="-105.2306022">
  <ele>1595.04</ele>
  <time>2026-08-28T19:10:31Z</time>
  <course>7.4</course>
  <speed>0.33105890714493696</speed>
  <fix>3d</fix>
</trkpt>
<trkpt lat="40.0728046" lon="-105.2306025">
  <ele>1595.15</ele>
  <time>2026-08-28T19:10:31Z</time>
  <course>7.46</course>
  <speed>0.33105890714493696</speed>
  <fix>3d</fix>
</trkpt>
<trkpt lat="40.0728049" lon="-105.2306026">
  <ele>1594.96</ele>
  <time>2026-08-28T19:10:31Z</time>
  <course>211.19</course>
  <speed>0.33</speed>
  <fix>3d</fix>
</trkpt>
<trkpt lat="40.0728045" lon="-105.2306026">
  <ele>1595.17</ele>
  <time>2026-08-28T19:10:31Z</time>
  <course>7.47</course>
  <speed>0.33105890714493696</speed>
  <fix>3d</fix>
</trkpt>
<trkpt lat="40.072804" lon="-105.2306029">
  <ele>1595.27</ele>
  <time>2026-08-28T19:10:31Z</time>
  <course>7.5</course>
  <speed>0.33105890714493696</speed>
  <fix>3d</fix>
</trkpt>
<trkpt lat="40.0728044" lon="-105.230603">
  <ele>1595.08</ele>
  <time>2026-08-28T19:10:31Z</time>
  <course>211.59</course>
  <speed>0.33</speed>
  <fix>3d</fix>
</trkpt>
<trkpt lat="40.0728035" lon="-105.2306033">
  <ele>1595.39</ele>
  <time>2026-08-28T19:10:31Z</time>
  <course>7.8</course>
  <speed>0.32649655434629016</speed>
  <fix>3d</fix>
</trkpt>
<trkpt lat="40.0728039" lon="-105.2306033">
  <ele>1595.2</ele>
  <time>2026-08-28T19:10:31Z</time>
  <course>212.22</course>
  <speed>0.33</speed>
  <fix>3d</fix>
</trkpt>
<trkpt lat="40.072803" lon="-105.2306038">
  <ele>1595.49</ele>
  <time>2026-08-28T19:10:31Z</time>
  <course>8.44</course>
  <speed>0.3176476034853718</speed>
  <fix>3d</fix>
</trkpt>
<trkpt lat="40.0728034" lon="-105.2306038">
  <ele>1595.32</ele>
  <time>2026-08-28T19:10:31Z</time>
  <course>212.97</course>
  <speed>0.32</speed>
  <fix>3d</fix>
</trkpt>
<trkpt lat="40.0728025" lon="-105.2306042">
  <ele>1595.56</ele>
  <time>2026-08-28T19:10:31Z</time>
  <course>8.79</course>
  <speed>0.31304951684997057</speed>
  <fix>3d</fix>
</trkpt>
<trkpt lat="40.0728029" lon="-105.2306043">
  <ele>1595.4</ele>
  <time>2026-08-28T19:10:31Z</time>
  <course>213.37</course>
  <speed>0.32</speed>
  <fix>3d</fix>
</trkpt>
<trkpt lat="40.0728021" lon="-105.2306046">
  <ele>1595.6</ele>
  <time>2026-08-28T19:10:31Z</time>
  <course>8.33</course>
  <speed>0.29966648127543394</speed>
  <fix>3d</fix>
</trkpt>
<trkpt lat="40.0728024" lon="-105.2306046">
  <ele>1595.46</ele>
  <time>2026-08-28T19:10:31Z</time>
  <course>213.2</course>
  <speed>0.31</speed>
  <fix>3d</fix>
</trkpt>
<trkpt lat="40.0728016" lon="-105.230605">
  <ele>1595.63</ele>
  <time>2026-08-28T19:10:31Z</time>
  <course>7.87</course>
  <speed>0.29966648127543394</speed>
  <fix>3d</fix>
</trkpt>
<trkpt lat="40.072802" lon="-105.230605">
  <ele>1595.49</ele>
  <time>2026-08-28T19:10:31Z</time>
  <course>212.9</course>
  <speed>0.3</speed>
  <fix>3d</fix>
</trkpt>
<trkpt lat="40.0728012" lon="-105.2306053">
  <ele>1595.64</ele>
  <time>2026-08-28T19:10:31Z</time>
  <course>7.69</course>
  <speed>0.2906888370749727</speed>
  <fix>3d</fix>
</trkpt>
<trkpt lat="40.0728016" lon="-105.2306054">
  <ele>1595.52</ele>
  <time>2026-08-28T19:10:31Z</time>
  <course>212.69</course>
  <speed>0.29</speed>
  <fix>3d</fix>
</trkpt>
<trkpt lat="40.0728007" lon="-105.2306057">
  <ele>1595.66</ele>
  <time>2026-08-28T19:10:31Z</time>
  <course>7.63</course>
  <speed>0.2863564212655271</speed>
  <fix>3d</fix>
</trkpt>
<trkpt lat="40.0728011" lon="-105.2306057">
  <ele>1595.54</ele>
  <time>2026-08-28T19:10:31Z</time>
  <course>212.28</course>
  <speed>0.28</speed>
  <fix>3d</fix>
</trkpt>
<trkpt lat="40.0728003" lon="-105.230606">
  <ele>1595.66</ele>
  <time>2026-08-28T19:10:31Z</time>
  <course>7.62</course>
  <speed>0.2823118842698621</speed>
  <fix>3d</fix>
</trkpt>
<trkpt lat="40.0728007" lon="-105.2306062">
  <ele>1595.55</ele>
  <time>2026-08-28T19:10:31Z</time>
  <course>211.72</course>
  <speed>0.28</speed>
  <fix>3d</fix>
</trkpt>
<trkpt lat="40.0727999" lon="-105.2306064">
  <ele>1595.67</ele>
  <time>2026-08-28T19:10:31Z</time>
  <course>7.63</course>
  <speed>0.27313000567495327</speed>
  <fix>3d</fix>
</trkpt>
<trkpt lat="40.0728003" lon="-105.2306065">
  <ele>1595.56</ele>
  <time>2026-08-28T19:10:31Z</time>
  <course>211.12</course>
  <speed>0.27</speed>
  <fix>3d</fix>
</trkpt>
<trkpt lat="40.0727995" lon="-105.2306067">
  <ele>1595.67</ele>
  <time>2026-08-28T19:10:31Z</time>
  <course>7.65</course>
  <speed>0.2692582403567252</speed>
  <fix>3d</fix>
</trkpt>
<trkpt lat="40.0727998" lon="-105.2306068">
  <ele>1595.56</ele>
  <time>2026-08-28T19:10:31Z</time>
  <course>210.54</course>
  <speed>0.26</speed>
  <fix>3d</fix>
</trkpt>
<trkpt lat="40.0727991" lon="-105.230607">
  <ele>1595.68</ele>
  <time>2026-08-28T19:10:31Z</time>
  <course>7.67</course>
  <speed>0.26</speed>
  <fix>3d</fix>
</trkpt>
<trkpt lat="40.0727993" lon="-105.2306071">
  <ele>1595.57</ele>
  <time>2026-08-28T19:10:31Z</time>
  <course>209.97</course>
  <speed>0.26</speed>
  <fix>3d</fix>
</trkpt>
<trkpt lat="40.0727987" lon="-105.2306073">
  <ele>1595.68</ele>
  <time>2026-08-28T19:10:31Z</time>
  <course>7.71</course>
  <speed>0.25632011235952595</speed>
  <fix>3d</fix>
</trkpt>
<trkpt lat="40.072799" lon="-105.2306074">
  <ele>1595.57</ele>
  <time>2026-08-28T19:10:31Z</time>
  <course>209.46</course>
  <speed>0.25</speed>
  <fix>3d</fix>
</trkpt>
<trkpt lat="40.0727983" lon="-105.2306076">
  <ele>1595.68</ele>
  <time>2026-08-28T19:10:31Z</time>
  <course>7.71</course>
  <speed>0.24698178070456936</speed>
  <fix>3d</fix>
</trkpt>
<trkpt lat="40.0727986" lon="-105.2306077">
  <ele>1595.57</ele>
  <time>2026-08-28T19:10:31Z</time>
  <course>208.97</course>
  <speed>0.24</speed>
  <fix>3d</fix>
</trkpt>
<trkpt lat="40.0727979" lon="-105.2306079">
  <ele>1595.69</ele>
  <time>2026-08-28T19:10:31Z</time>
  <course>7.73</course>
  <speed>0.24351591323771843</speed>
  <fix>3d</fix>
</trkpt>
<trkpt lat="40.0727983" lon="-105.230608">
  <ele>1595.58</ele>
  <time>2026-08-28T19:10:31Z</time>
  <course>208.56</course>
  <speed>0.24</speed>
  <fix>3d</fix>
</trkpt>
<trkpt lat="40.0727975" lon="-105.2306081">
  <ele>1595.69</ele>
  <time>2026-08-28T19:10:31Z</time>
  <course>7.75</course>
  <speed>0.2340939982143925</speed>
  <fix>3d</fix>
</trkpt>
<trkpt lat="40.0727979" lon="-105.2306083">
  <ele>1595.58</ele>
  <time>2026-08-28T19:10:31Z</time>
  <course>208.28</course>
  <speed>0.23</speed>
  <fix>3d</fix>
</trkpt>
<trkpt lat="40.0727972" lon="-105.2306084">
  <ele>1595.69</ele>
  <time>2026-08-28T19:10:31Z</time>
  <course>7.78</course>
  <speed>0.22472205054244232</speed>
  <fix>3d</fix>
</trkpt>
<trkpt lat="40.0727974" lon="-105.2306085">
  <ele>1595.58</ele>
  <time>2026-08-28T19:10:31Z</time>
  <course>208.08</course>
  <speed>0.22</speed>
  <fix>3d</fix>
</trkpt>
<trkpt lat="40.0727968" lon="-105.2306086">
  <ele>1595.69</ele>
  <time>2026-08-28T19:10:31Z</time>
  <course>7.81</course>
  <speed>0.22135943621178655</speed>
  <fix>3d</fix>
</trkpt>
<trkpt lat="40.0727971" lon="-105.2306088">
  <ele>1595.58</ele>
  <time>2026-08-28T19:10:31Z</time>
  <course>207.98</course>
  <speed>0.21</speed>
  <fix>3d</fix>
</trkpt>
<trkpt lat="40.0727965" lon="-105.2306088">
  <ele>1595.69</ele>
  <time>2026-08-28T19:10:31Z</time>
  <course>7.82</course>
  <speed>0.21189620100417092</speed>
  <fix>3d</fix>
</trkpt>
<trkpt lat="40.0727968" lon="-105.2306089">
  <ele>1595.58</ele>
  <time>2026-08-28T19:10:31Z</time>
  <course>207.89</course>
  <speed>0.21</speed>
  <fix>3d</fix>
</trkpt>
<trkpt lat="40.0727962" lon="-105.2306091">
  <ele>1595.7</ele>
  <time>2026-08-28T19:10:31Z</time>
  <course>7.83</course>
  <speed>0.20248456731316586</speed>
  <fix>3d</fix>
</trkpt>
<trkpt lat="40.0727964" lon="-105.2306092">
  <ele>1595.57</ele>
  <time>2026-08-28T19:10:31Z</time>
  <course>207.73</course>
  <speed>0.2</speed>
  <fix>3d</fix>
</trkpt>
<trkpt lat="40.0727958" lon="-105.2306093">
  <ele>1595.69</ele>
  <time>2026-08-28T19:10:31Z</time>
  <course>7.86</course>
  <speed>0.20248456731316586</speed>
  <fix>3d</fix>
</trkpt>
<trkpt lat="40.0727961" lon="-105.2306094">
  <ele>1595.57</ele>
  <time>2026-08-28T19:10:31Z</time>
  <course>207.82</course>
  <speed>0.19</speed>
  <fix>3d</fix>
</trkpt>
<trkpt lat="40.0727956" lon="-105.2306095">
  <ele>1595.69</ele>
  <time>2026-08-28T19:10:31Z</time>
  <course>7.87</course>
  <speed>0.19235384061671343</speed>
  <fix>3d</fix>
</trkpt>
<trkpt lat="40.0727958" lon="-105.2306097">
  <ele>1595.57</ele>
  <time>2026-08-28T19:10:31Z</time>
  <course>210.78</course>
  <speed>0.19</speed>
  <fix>3d</fix>
</trkpt>
<trkpt lat="40.0727953" lon="-105.2306098">
  <ele>1595.69</ele>
  <time>2026-08-28T19:10:31Z</time>
  <course>7.87</course>
  <speed>0.18384776310850234</speed>
  <fix>3d</fix>
</trkpt>
<trkpt lat="40.0727956" lon="-105.2306099">
  <ele>1595.57</ele>
  <time>2026-08-28T19:10:31Z</time>
  <course>220.68</course>
  <speed>0.19</speed>
  <fix>3d</fix>
</trkpt>
<trkpt lat="40.0727951" lon="-105.2306103">
  <ele>1595.68</ele>
  <time>2026-08-28T19:10:31Z</time>
  <course>7.87</course>
  <speed>0.21540659228538014</speed>
  <fix>3d</fix>
</trkpt>
<trkpt lat="40.0727953" lon="-105.2306103">
  <ele>1595.56</ele>
  <time>2026-08-28T19:10:31Z</time>
  <course>237.36</course>
  <speed>0.21</speed>
  <fix>3d</fix>
</trkpt>
<trkpt lat="40.0727951" lon="-105.2306109">
  <ele>1595.69</ele>
  <time>2026-08-28T19:10:31Z</time>
  <course>7.85</course>
  <speed>0.291547594742265</speed>
  <fix>3d</fix>
</trkpt>
<trkpt lat="40.0727952" lon="-105.2306107">
  <ele>1595.56</ele>
  <time>2026-08-28T19:10:31Z</time>
  <course>253.46</course>
  <speed>0.27</speed>
  <fix>3d</fix>
</trkpt>
<trkpt lat="40.072795" lon="-105.2306118">
  <ele>1595.68</ele>
  <time>2026-08-28T19:10:31Z</time>
  <course>7.81</course>
  <speed>0.3901281840626232</speed>
  <fix>3d</fix>
</trkpt>
<trkpt lat="40.0727951" lon="-105.2306115">
  <ele>1595.56</ele>
  <time>2026-08-28T19:10:31Z</time>
  <course>263.85</course>
  <speed>0.35</speed>
  <fix>3d</fix>
</trkpt>
<trkpt lat="40.072795" lon="-105.2306129">
  <ele>1595.68</ele>
  <time>2026-08-28T19:10:31Z</time>
  <course>7.68</course>
  <speed>0.49254441424099005</speed>
  <fix>3d</fix>
</trkpt>
<trkpt lat="40.072795" lon="-105.2306124">
  <ele>1595.56</ele>
  <time>2026-08-28T19:10:31Z</time>
  <course>269.31</course>
  <speed>0.46</speed>
  <fix>3d</fix>
</trkpt>
<trkpt lat="40.0727951" lon="-105.2306142">
  <ele>1595.67</ele>
  <time>2026-08-28T19:10:31Z</time>
  <course>7.59</course>
  <speed>0.563205113613149</speed>
  <fix>3d</fix>
</trkpt>
<trkpt lat="40.072795" lon="-105.2306136">
  <ele>1595.56</ele>
  <time>2026-08-28T19:10:31Z</time>
  <course>271.85</course>
  <speed>0.55</speed>
  <fix>3d</fix>
</trkpt>
<trkpt lat="40.0727952" lon="-105.2306157">
  <ele>1595.67</ele>
  <time>2026-08-28T19:10:31Z</time>
  <course>7.56</course>
  <speed>0.6029925372672534</speed>
  <fix>3d</fix>
</trkpt>
<trkpt lat="40.0727951" lon="-105.230615">
  <ele>1595.56</ele>
  <time>2026-08-28T19:10:31Z</time>
  <course>272.76</course>
  <speed>0.61</speed>
  <fix>3d</fix>
</trkpt>
<trkpt lat="40.0727952" lon="-105.2306171">
  <ele>1595.66</ele>
  <time>2026-08-28T19:10:31Z</time>
  <course>7.61</course>
  <speed>0.5913543776789008</speed>
  <fix>3d</fix>
</trkpt>
<trkpt lat="40.0727951" lon="-105.2306165">
  <ele>1595.56</ele>
  <time>2026-08-28T19:10:31Z</time>
  <course>272.68</course>
  <speed>0.63</speed>
  <fix>3d</fix>
</trkpt>
<trkpt lat="40.0727952" lon="-105.2306185">
  <ele>1595.67</ele>
  <time>2026-08-28T19:10:31Z</time>
  <course>7.74</course>
  <speed>0.5200961449578337</speed>
  <fix>3d</fix>
</trkpt>
<trkpt lat="40.0727951" lon="-105.2306179">
  <ele>1595.56</ele>
  <time>2026-08-28T19:10:31Z</time>
  <course>271.9</course>
  <speed>0.61</speed>
  <fix>3d</fix>
</trkpt>
<trkpt lat="40.0727952" lon="-105.2306197">
  <ele>1595.67</ele>
  <time>2026-08-28T19:10:31Z</time>
  <course>7.91</course>
  <speed>0.41048751503547587</speed>
  <fix>3d</fix>
</trkpt>
<trkpt lat="40.0727951" lon="-105.2306193">
  <ele>1595.56</ele>
  <time>2026-08-28T19:10:31Z</time>
  <course>270.43</course>
  <speed>0.52</speed>
  <fix>3d</fix>
</trkpt>
<trkpt lat="40.0727951" lon="-105.2306206">
  <ele>1595.67</ele>
  <time>2026-08-28T19:10:31Z</time>
  <course>8.03</course>
  <speed>0.2570992026436488</speed>
  <fix>3d</fix>
</trkpt>
<trkpt lat="40.0727951" lon="-105.2306204">
  <ele>1595.57</ele>
  <time>2026-08-28T19:10:31Z</time>
  <course>267.91</course>
  <speed>0.39</speed>
  <fix>3d</fix>
</trkpt>
<trkpt lat="40.072795" lon="-105.230621">
  <ele>1595.68</ele>
  <time>2026-08-28T19:10:31Z</time>
  <course>8.06</course>
  <speed>0.11661903789690602</speed>
  <fix>3d</fix>
</trkpt>
<trkpt lat="40.0727951" lon="-105.2306212">
  <ele>1595.58</ele>
  <time>2026-08-28T19:10:31Z</time>
  <course>262.31</course>
  <speed>0.23</speed>
  <fix>3d</fix>
</trkpt>
<trkpt lat="40.0727949" lon="-105.2306211">
  <ele>1595.68</ele>
  <time>2026-08-28T19:10:31Z</time>
  <course>7.94</course>
  <speed>0.1769180601295413</speed>
  <fix>3d</fix>
</trkpt>
<trkpt lat="40.0727951" lon="-105.2306215">
  <ele>1595.58</ele>
  <time>2026-08-28T19:10:31Z</time>
  <course>219.59</course>
  <speed>0.05</speed>
  <fix>3d</fix>
</trkpt>
<trkpt lat="40.0727947" lon="-105.2306207">
  <ele>1595.68</ele>
  <time>2026-08-28T19:10:31Z</time>
  <course>7.66</course>
  <speed>0.3453983207834109</speed>
  <fix>3d</fix>
</trkpt>
<trkpt lat="40.072795" lon="-105.2306213">
  <ele>1595.58</ele>
  <time>2026-08-28T19:10:31Z</time>
  <course>103.67</course>
  <speed>0.17</speed>
  <fix>3d</fix>
</trkpt>
<trkpt lat="40.0727946" lon="-105.2306198">
  <ele>1595.68</ele>
  <time>2026-08-28T19:10:31Z</time>
  <course>7.33</course>
  <speed>0.5044799302251776</speed>
  <fix>3d</fix>
</trkpt>
<trkpt lat="40.0727949" lon="-105.2306208">
  <ele>1595.59</ele>
  <time>2026-08-28T19:10:31Z</time>
  <course>94.72</course>
  <speed>0.36</speed>
  <fix>3d</fix>
</trkpt>
<trkpt lat="40.0727945" lon="-105.2306186">
  <ele>1595.68</ele>
  <time>2026-08-28T19:10:31Z</time>
  <course>7.1</course>
  <speed>0.6264982043070834</speed>
  <fix>3d</fix>
</trkpt>
<trkpt lat="40.0727949" lon="-105.2306198">
  <ele>1595.59</ele>
  <time>2026-08-28T19:10:31Z</time>
  <course>90.77</course>
  <speed>0.51</speed>
  <fix>3d</fix>
</trkpt>
<trkpt lat="40.0727945" lon="-105.2306171">
  <ele>1595.68</ele>
  <time>2026-08-28T19:10:31Z</time>
  <course>7.07</course>
  <speed>0.6811754546370561</speed>
  <fix>3d</fix>
</trkpt>
<trkpt lat="40.0727949" lon="-105.2306184">
  <ele>1595.59</ele>
  <time>2026-08-28T19:10:31Z</time>
  <course>87.7</course>
  <speed>0.63</speed>
  <fix>3d</fix>
</trkpt>
<trkpt lat="40.0727947" lon="-105.2306155">
  <ele>1595.69</ele>
  <time>2026-08-28T19:10:31Z</time>
  <course>7.24</course>
  <speed>0.6900724599634447</speed>
  <fix>3d</fix>
</trkpt>
<trkpt lat="40.072795" lon="-105.2306169">
  <ele>1595.59</ele>
  <time>2026-08-28T19:10:31Z</time>
  <course>84.6</course>
  <speed>0.68</speed>
  <fix>3d</fix>
</trkpt>
<trkpt lat="40.0727949" lon="-105.230614">
  <ele>1595.69</ele>
  <time>2026-08-28T19:10:32Z</time>
  <course>7.48</course>
  <speed>0.6239390995922599</speed>
  <fix>3d</fix>
</trkpt>
<trkpt lat="40.0727951" lon="-105.2306153">
  <ele>1595.59</ele>
  <time>2026-08-28T19:10:32Z</time>
  <course>80.9</course>
  <speed>0.67</speed>
  <fix>3d</fix>
</trkpt>
<trkpt lat="40.0727952" lon="-105.2306128">
  <ele>1595.69</ele>
  <time>2026-08-28T19:10:32Z</time>
  <course>7.73</course>
  <speed>0.5166236541235796</speed>
  <fix>3d</fix>
</trkpt>
<trkpt lat="40.0727953" lon="-105.2306138">
  <ele>1595.59</ele>
  <time>2026-08-28T19:10:32Z</time>
  <course>75.85</course>
  <speed>0.6</speed>
  <fix>3d</fix>
</trkpt>
<trkpt lat="40.0727956" lon="-105.2306118">
  <ele>1595.69</ele>
  <time>2026-08-28T19:10:32Z</time>
  <course>7.95</course>
  <speed>0.3671511950137164</speed>
  <fix>3d</fix>
</trkpt>
<trkpt lat="40.0727956" lon="-105.2306125">
  <ele>1595.59</ele>
  <time>2026-08-28T19:10:32Z</time>
  <course>67.73</course>
  <speed>0.48</speed>
  <fix>3d</fix>
</trkpt>
<trkpt lat="40.072796" lon="-105.2306113">
  <ele>1595.69</ele>
  <time>2026-08-28T19:10:32Z</time>
  <course>8.08</course>
  <speed>0.24186773244895649</speed>
  <fix>3d</fix>
</trkpt>
<trkpt lat="40.0727959" lon="-105.2306117">
  <ele>1595.59</ele>
  <time>2026-08-28T19:10:32Z</time>
  <course>51.71</course>
  <speed>0.34</speed>
  <fix>3d</fix>
</trkpt>
<trkpt lat="40.0727965" lon="-105.2306113">
  <ele>1595.69</ele>
  <time>2026-08-28T19:10:32Z</time>
  <course>8.12</course>
  <speed>0.25079872407968906</speed>
  <fix>3d</fix>
</trkpt>
<trkpt lat="40.0727964" lon="-105.2306112">
  <ele>1595.58</ele>
  <time>2026-08-28T19:10:32Z</time>
  <course>14.17</course>
  <speed>0.23</speed>
  <fix>3d</fix>
</trkpt>
<trkpt lat="40.0727969" lon="-105.2306117">
  <ele>1595.68</ele>
  <time>2026-08-28T19:10:32Z</time>
  <course>8.07</course>
  <speed>0.38600518131237566</speed>
  <fix>3d</fix>
</trkpt>
<trkpt lat="40.0727968" lon="-105.2306113">
  <ele>1595.58</ele>
  <time>2026-08-28T19:10:32Z</time>
  <course>323.97</course>
  <speed>0.27</speed>
  <fix>3d</fix>
</trkpt>
<trkpt lat="40.0727973" lon="-105.2306126">
  <ele>1595.68</ele>
  <time>2026-08-28T19:10:32Z</time>
  <course>8.0</course>
  <speed>0.54230987451825</speed>
  <fix>3d</fix>
</trkpt>
<trkpt lat="40.0727971" lon="-105.2306119">
  <ele>1595.58</ele>
  <time>2026-08-28T19:10:32Z</time>
  <course>299.0</course>
  <speed>0.42</speed>
  <fix>3d</fix>
</trkpt>
<trkpt lat="40.0727977" lon="-105.230614">
  <ele>1595.68</ele>
  <time>2026-08-28T19:10:32Z</time>
  <course>7.98</course>
  <speed>0.6621933252457322</speed>
  <fix>3d</fix>
</trkpt>
<trkpt lat="40.0727975" lon="-105.230613">
  <ele>1595.58</ele>
  <time>2026-08-28T19:10:32Z</time>
  <course>287.42</course>
  <speed>0.57</speed>
  <fix>3d</fix>
</trkpt>
<trkpt lat="40.0727979" lon="-105.2306156">
  <ele>1595.68</ele>
  <time>2026-08-28T19:10:32Z</time>
  <course>8.0</course>
  <speed>0.7283543093852057</speed>
  <fix>3d</fix>
</trkpt>
<trkpt lat="40.0727977" lon="-105.2306145">
  <ele>1595.58</ele>
  <time>2026-08-28T19:10:32Z</time>
  <course>280.45</course>
  <speed>0.69</speed>
  <fix>3d</fix>
</trkpt>
<trkpt lat="40.072798" lon="-105.2306173">
  <ele>1595.68</ele>
  <time>2026-08-28T19:10:32Z</time>
  <course>8.07</course>
  <speed>0.7310950690573697</speed>
  <fix>3d</fix>
</trkpt>
<trkpt lat="40.0727979" lon="-105.2306161">
  <ele>1595.58</ele>
  <time>2026-08-28T19:10:32Z</time>
  <course>275.17</course>
  <speed>0.74</speed>
  <fix>3d</fix>
</trkpt>
<trkpt lat="40.072798" lon="-105.2306189">
  <ele>1595.68</ele>
  <time>2026-08-28T19:10:32Z</time>
  <course>8.16</course>
  <speed>0.6702984409947557</speed>
  <fix>3d</fix>
</trkpt>
<trkpt lat="40.072798" lon="-105.2306179">
  <ele>1595.58</ele>
  <time>2026-08-28T19:10:32Z</time>
  <course>270.32</course>
  <speed>0.73</speed>
  <fix>3d</fix>
</trkpt>
<trkpt lat="40.0727979" lon="-105.2306204">
  <ele>1595.68</ele>
  <time>2026-08-28T19:10:32Z</time>
  <course>8.31</course>
  <speed>0.5474486277268398</speed>
  <fix>3d</fix>
</trkpt>
<trkpt lat="40.072798" lon="-105.2306196">
  <ele>1595.58</ele>
  <time>2026-08-28T19:10:32Z</time>
  <course>264.91</course>
  <speed>0.65</speed>
  <fix>3d</fix>
</trkpt>
<trkpt lat="40.0727977" lon="-105.2306215">
  <ele>1595.68</ele>
  <time>2026-08-28T19:10:32Z</time>
  <course>8.4</course>
  <speed>0.39</speed>
  <fix>3d</fix>
</trkpt>
<trkpt lat="40.0727979" lon="-105.2306209">
  <ele>1595.59</ele>
  <time>2026-08-28T19:10:32Z</time>
  <course>257.49</course>
  <speed>0.52</speed>
  <fix>3d</fix>
</trkpt>
<trkpt lat="40.0727974" lon="-105.2306221">
  <ele>1595.68</ele>
  <time>2026-08-28T19:10:32Z</time>
  <course>8.42</course>
  <speed>0.25</speed>
  <fix>3d</fix>
</trkpt>
<trkpt lat="40.0727976" lon="-105.230622">
  <ele>1595.59</ele>
  <time>2026-08-28T19:10:32Z</time>
  <course>244.16</course>
  <speed>0.36</speed>
  <fix>3d</fix>
</trkpt>
<trkpt lat="40.072797" lon="-105.2306223">
  <ele>1595.68</ele>
  <time>2026-08-28T19:10:32Z</time>
  <course>8.36</course>
  <speed>0.2308679276123039</speed>
  <fix>3d</fix>
</trkpt>
<trkpt lat="40.0727973" lon="-105.2306225">
  <ele>1595.6</ele>
  <time>2026-08-28T19:10:32Z</time>
  <course>210.25</course>
  <speed>0.21</speed>
  <fix>3d</fix>
</trkpt>
<trkpt lat="40.0727966" lon="-105.230622">
  <ele>1595.69</ele>
  <time>2026-08-28T19:10:32Z</time>
  <course>8.25</course>
  <speed>0.37013511046643494</speed>
  <fix>3d</fix>
</trkpt>
<trkpt lat="40.0727969" lon="-105.2306225">
  <ele>1595.6</ele>
  <time>2026-08-28T19:10:32Z</time>
  <course>149.09</course>
  <speed>0.23</speed>
  <fix>3d</fix>
</trkpt>
<trkpt lat="40.0727963" lon="-105.2306211">
  <ele>1595.69</ele>
  <time>2026-08-28T19:10:32Z</time>
  <course>8.11</course>
  <speed>0.5239274758971895</speed>
  <fix>3d</fix>
</trkpt>
<trkpt lat="40.0727966" lon="-105.230622">
  <ele>1595.6</ele>
  <time>2026-08-28T19:10:32Z</time>
  <course>119.43</course>
  <speed>0.38</speed>
  <fix>3d</fix>
</trkpt>
<trkpt lat="40.072796" lon="-105.2306199">
  <ele>1595.69</ele>
  <time>2026-08-28T19:10:32Z</time>
  <course>8.02</course>
  <speed>0.6552098900352467</speed>
  <fix>3d</fix>
</trkpt>
<trkpt lat="40.0727963" lon="-105.230621">
  <ele>1595.6</ele>
  <time>2026-08-28T19:10:32Z</time>
  <course>107.26</course>
  <speed>0.53</speed>
  <fix>3d</fix>
</trkpt>
<trkpt lat="40.0727957" lon="-105.2306184">
  <ele>1595.69</ele>
  <time>2026-08-28T19:10:32Z</time>
  <course>7.98</course>
  <speed>0.7200694410957876</speed>
  <fix>3d</fix>
</trkpt>
<trkpt lat="40.0727961" lon="-105.2306196">
  <ele>1595.6</ele>
  <time>2026-08-28T19:10:32Z</time>
  <course>100.17</course>
  <speed>0.65</speed>
  <fix>3d</fix>
</trkpt>
<trkpt lat="40.0727957" lon="-105.2306168">
  <ele>1595.69</ele>
  <time>2026-08-28T19:10:32Z</time>
  <course>7.99</course>
  <speed>0.7217340230306452</speed>
  <fix>3d</fix>
</trkpt>
<trkpt lat="40.0727959" lon="-105.230618">
  <ele>1595.6</ele>
  <time>2026-08-28T19:10:32Z</time>
  <course>94.76</course>
  <speed>0.71</speed>
  <fix>3d</fix>
</trkpt>
<trkpt lat="40.0727957" lon="-105.2306152">
  <ele>1595.69</ele>
  <time>2026-08-28T19:10:32Z</time>
  <course>8.06</course>
  <speed>0.66007575322837</speed>
  <fix>3d</fix>
</trkpt>
<trkpt lat="40.0727958" lon="-105.2306164">
  <ele>1595.6</ele>
  <time>2026-08-28T19:10:32Z</time>
  <course>89.67</course>
  <speed>0.7</speed>
  <fix>3d</fix>
</trkpt>
<trkpt lat="40.0727957" lon="-105.2306138">
  <ele>1595.69</ele>
  <time>2026-08-28T19:10:32Z</time>
  <course>8.16</course>
  <speed>0.5458937625582473</speed>
  <fix>3d</fix>
</trkpt>
<trkpt lat="40.0727958" lon="-105.2306148">
  <ele>1595.6</ele>
  <time>2026-08-28T19:10:32Z</time>
  <course>83.82</course>
  <speed>0.63</speed>
  <fix>3d</fix>
</trkpt>
<trkpt lat="40.072796" lon="-105.2306127">
  <ele>1595.69</ele>
  <time>2026-08-28T19:10:32Z</time>
  <course>8.26</course>
  <speed>0.38626415831655936</speed>
  <fix>3d</fix>
</trkpt>
<trkpt lat="40.072796" lon="-105.2306135">
  <ele>1595.6</ele>
  <time>2026-08-28T19:10:32Z</time>
  <course>75.49</course>
  <speed>0.5</speed>
  <fix>3d</fix>
</trkpt>
<trkpt lat="40.0727963" lon="-105.2306121">
  <ele>1595.69</ele>
  <time>2026-08-28T19:10:32Z</time>
  <course>8.32</course>
  <speed>0.2420743687382041</speed>
  <fix>3d</fix>
</trkpt>
<trkpt lat="40.0727963" lon="-105.2306125">
  <ele>1595.6</ele>
  <time>2026-08-28T19:10:32Z</time>
  <course>59.98</course>
  <speed>0.35</speed>
  <fix>3d</fix>
</trkpt>
<trkpt lat="40.0727968" lon="-105.230612">
  <ele>1595.69</ele>
  <time>2026-08-28T19:10:32Z</time>
  <course>8.32</course>
  <speed>0.2308679276123039</speed>
  <fix>3d</fix>
</trkpt>
<trkpt lat="40.0727966" lon="-105.2306121">
  <ele>1595.6</ele>
  <time>2026-08-28T19:10:32Z</time>
  <course>22.02</course>
  <speed>0.22</speed>
  <fix>3d</fix>
</trkpt>
<trkpt lat="40.0727972" lon="-105.2306124">
  <ele>1595.69</ele>
  <time>2026-08-28T19:10:32Z</time>
  <course>8.3</course>
  <speed>0.378021163428716</speed>
  <fix>3d</fix>
</trkpt>
<trkpt lat="40.072797" lon="-105.2306122">
  <ele>1595.6</ele>
  <time>2026-08-28T19:10:32Z</time>
  <course>326.86</course>
  <speed>0.26</speed>
  <fix>3d</fix>
</trkpt>
<trkpt lat="40.0727976" lon="-105.2306133">
  <ele>1595.69</ele>
  <time>2026-08-28T19:10:32Z</time>
  <course>8.26</course>
  <speed>0.5371219600798314</speed>
  <fix>3d</fix>
</trkpt>
<trkpt lat="40.0727974" lon="-105.2306127">
  <ele>1595.59</ele>
  <time>2026-08-28T19:10:32Z</time>
  <course>300.93</course>
  <speed>0.42</speed>
  <fix>3d</fix>
</trkpt>
<trkpt lat="40.072798" lon="-105.2306147">
  <ele>1595.69</ele>
  <time>2026-08-28T19:10:32Z</time>
  <course>8.21</course>
  <speed>0.6648308055437865</speed>
  <fix>3d</fix>
</trkpt>
<trkpt lat="40.0727978" lon="-105.2306137">
  <ele>1595.59</ele>
  <time>2026-08-28T19:10:32Z</time>
  <course>289.41</course>
  <speed>0.58</speed>
  <fix>3d</fix>
</trkpt>
<trkpt lat="40.0727982" lon="-105.2306163">
  <ele>1595.68</ele>
  <time>2026-08-28T19:10:32Z</time>
  <course>8.23</course>
  <speed>0.7316419889536138</speed>
  <fix>3d</fix>
</trkpt>
<trkpt lat="40.0727981" lon="-105.2306151">
  <ele>1595.59</ele>
  <time>2026-08-28T19:10:32Z</time>
  <course>282.53</course>
  <speed>0.69</speed>
  <fix>3d</fix>
</trkpt>
<trkpt lat="40.0727984" lon="-105.230618">
  <ele>1595.68</ele>
  <time>2026-08-28T19:10:32Z</time>
  <course>8.28</course>
  <speed>0.7424284477308234</speed>
  <fix>3d</fix>
</trkpt>
<trkpt lat="40.0727983" lon="-105.2306169">
  <ele>1595.59</ele>
  <time>2026-08-28T19:10:32Z</time>
  <course>277.37</course>
  <speed>0.75</speed>
  <fix>3d</fix>
</trkpt>
<trkpt lat="40.0727984" lon="-105.2306197">
  <ele>1595.68</ele>
  <time>2026-08-28T19:10:32Z</time>
  <course>8.37</course>
  <speed>0.68</speed>
  <fix>3d</fix>
</trkpt>
<trkpt lat="40.0727984" lon="-105.2306186">
  <ele>1595.59</ele>
  <time>2026-08-28T19:10:32Z</time>
  <course>272.69</course>
  <speed>0.74</speed>
  <fix>3d</fix>
</trkpt>
<trkpt lat="40.0727984" lon="-105.2306212">
  <ele>1595.69</ele>
  <time>2026-08-28T19:10:32Z</time>
  <course>8.5</course>
  <speed>0.5544366510251645</speed>
  <fix>3d</fix>
</trkpt>
<trkpt lat="40.0727985" lon="-105.2306203">
  <ele>1595.6</ele>
  <time>2026-08-28T19:10:32Z</time>
  <course>267.57</course>
  <speed>0.67</speed>
  <fix>3d</fix>
</trkpt>
<trkpt lat="40.0727983" lon="-105.2306223">
  <ele>1595.69</ele>
  <time>2026-08-28T19:10:32Z</time>
  <course>8.56</course>
  <speed>0.4016217125604641</speed>
  <fix>3d</fix>
</trkpt>
<trkpt lat="40.0727984" lon="-105.2306218">
  <ele>1595.6</ele>
  <time>2026-08-28T19:10:32Z</time>
  <course>260.72</course>
  <speed>0.54</speed>
  <fix>3d</fix>
</trkpt>
<trkpt lat="40.072798" lon="-105.230623">
  <ele>1595.69</ele>
  <time>2026-08-28T19:10:32Z</time>
  <course>8.58</course>
  <speed>0.24083189157584592</speed>
  <fix>3d</fix>
</trkpt>
<trkpt lat="40.0727982" lon="-105.2306228">
  <ele>1595.61</ele>
  <time>2026-08-28T19:10:32Z</time>
  <course>248.65</course>
  <speed>0.37</speed>
  <fix>3d</fix>
</trkpt>
<trkpt lat="40.0727977" lon="-105.2306232">
  <ele>1595.7</ele>
  <time>2026-08-28T19:10:32Z</time>
  <course>8.49</course>
  <speed>0.21840329667841554</speed>
  <fix>3d</fix>
</trkpt>
<trkpt lat="40.0727979" lon="-105.2306234">
  <ele>1595.61</ele>
  <time>2026-08-28T19:10:32Z</time>
  <course>217.49</course>
  <speed>0.21</speed>
  <fix>3d</fix>
</trkpt>
<trkpt lat="40.0727973" lon="-105.2306229">
  <ele>1595.69</ele>
  <time>2026-08-28T19:10:32Z</time>
  <course>8.39</course>
  <speed>0.35608987629529715</speed>
  <fix>3d</fix>
</trkpt>
<trkpt lat="40.0727976" lon="-105.2306234">
  <ele>1595.61</ele>
  <time>2026-08-28T19:10:32Z</time>
  <course>151.95</course>
  <speed>0.2</speed>
  <fix>3d</fix>
</trkpt>
<trkpt lat="40.0727969" lon="-105.2306221">
  <ele>1595.68</ele>
  <time>2026-08-28T19:10:32Z</time>
  <course>8.25</course>
  <speed>0.51478150704935</speed>
  <fix>3d</fix>
</trkpt>
<trkpt lat="40.0727973" lon="-105.230623">
  <ele>1595.6</ele>
  <time>2026-08-28T19:10:32Z</time>
  <course>119.77</course>
  <speed>0.36</speed>
  <fix>3d</fix>
</trkpt>
<trkpt lat="40.0727966" lon="-105.2306209">
  <ele>1595.68</ele>
  <time>2026-08-28T19:10:32Z</time>
  <course>8.14</course>
  <speed>0.6428841264178172</speed>
  <fix>3d</fix>
</trkpt>
<trkpt lat="40.072797" lon="-105.2306221">
  <ele>1595.6</ele>
  <time>2026-08-28T19:10:32Z</time>
  <course>107.39</course>
  <speed>0.52</speed>
  <fix>3d</fix>
</trkpt>
<trkpt lat="40.0727964" lon="-105.2306194">
  <ele>1595.68</ele>
  <time>2026-08-28T19:10:32Z</time>
  <course>8.07</course>
  <speed>0.7200694410957876</speed>
  <fix>3d</fix>
</trkpt>
<trkpt lat="40.0727968" lon="-105.2306207">
  <ele>1595.6</ele>
  <time>2026-08-28T19:10:32Z</time>
  <course>100.35</course>
  <speed>0.64</speed>
  <fix>3d</fix>
</trkpt>
<trkpt lat="40.0727963" lon="-105.2306178">
  <ele>1595.68</ele>
  <time>2026-08-28T19:10:32Z</time>
  <course>8.1</course>
  <speed>0.7224956747275377</speed>
  <fix>3d</fix>
</trkpt>
<trkpt lat="40.0727966" lon="-105.2306192">
  <ele>1595.59</ele>
  <time>2026-08-28T19:10:32Z</time>
  <course>95.04</course>
  <speed>0.7</speed>
  <fix>3d</fix>
</trkpt>
<trkpt lat="40.0727964" lon="-105.2306162">
  <ele>1595.68</ele>
  <time>2026-08-28T19:10:32Z</time>
  <course>8.18</course>
  <speed>0.66007575322837</speed>
  <fix>3d</fix>
</trkpt>
<trkpt lat="40.0727965" lon="-105.2306175">
  <ele>1595.59</ele>
  <time>2026-08-28T19:10:32Z</time>
  <course>90.03</course>
  <speed>0.69</speed>
  <fix>3d</fix>
</trkpt>
<trkpt lat="40.0727964" lon="-105.2306149">
  <ele>1595.68</ele>
  <time>2026-08-28T19:10:32Z</time>
  <course>8.27</course>
  <speed>0.5445181356024793</speed>
  <fix>3d</fix>
</trkpt>
<trkpt lat="40.0727965" lon="-105.2306159">
  <ele>1595.6</ele>
  <time>2026-08-28T19:10:32Z</time>
  <course>84.24</course>
  <speed>0.62</speed>
  <fix>3d</fix>
</trkpt>
<trkpt lat="40.0727967" lon="-105.2306138">
  <ele>1595.69</ele>
  <time>2026-08-28T19:10:32Z</time>
  <course>8.36</course>
  <speed>0.38626415831655936</speed>
  <fix>3d</fix>
</trkpt>
<trkpt lat="40.0727967" lon="-105.2306146">
  <ele>1595.6</ele>
  <time>2026-08-28T19:10:32Z</time>
  <course>75.95</course>
  <speed>0.5</speed>
  <fix>3d</fix>
</trkpt>
<trkpt lat="40.072797" lon="-105.2306132">
  <ele>1595.69</ele>
  <time>2026-08-28T19:10:32Z</time>
  <course>8.42</course>
  <speed>0.23430749027719963</speed>
  <fix>3d</fix>
</trkpt>
<trkpt lat="40.0727969" lon="-105.2306136">
  <ele>1595.6</ele>
  <time>2026-08-28T19:10:32Z</time>
  <course>60.44</course>
  <speed>0.34</speed>
  <fix>3d</fix>
</trkpt>
<trkpt lat="40.0727974" lon="-105.2306131">
  <ele>1595.68</ele>
  <time>2026-08-28T19:10:32Z</time>
  <course>8.42</course>
  <speed>0.2308679276123039</speed>
  <fix>3d</fix>
</trkpt>
<trkpt lat="40.0727973" lon="-105.2306132">
  <ele>1595.6</ele>
  <time>2026-08-28T19:10:32Z</time>
  <course>22.26</course>
  <speed>0.22</speed>
  <fix>3d</fix>
</trkpt>
<trkpt lat="40.0727978" lon="-105.2306136">
  <ele>1595.68</ele>
  <time>2026-08-28T19:10:32Z</time>
  <course>8.4</course>
  <speed>0.37013511046643494</speed>
  <fix>3d</fix>
</trkpt>
<trkpt lat="40.0727976" lon="-105.2306133">
  <ele>1595.6</ele>
  <time>2026-08-28T19:10:32Z</time>
  <course>326.92</course>
  <speed>0.26</speed>
  <fix>3d</fix>
</trkpt>
<trkpt lat="40.0727982" lon="-105.2306144">
  <ele>1595.68</ele>
  <time>2026-08-28T19:10:32Z</time>
  <course>8.35</course>
  <speed>0.5331041174104736</speed>
  <fix>3d</fix>
</trkpt>
<trkpt lat="40.0727981" lon="-105.2306139">
  <ele>1595.6</ele>
  <time>2026-08-28T19:10:32Z</time>
  <course>301.15</course>
  <speed>0.42</speed>
  <fix>3d</fix>
</trkpt>
<trkpt lat="40.0727986" lon="-105.2306157">
  <ele>1595.68</ele>
  <time>2026-08-28T19:10:32Z</time>
  <course>8.31</course>
  <speed>0.6552098900352467</speed>
  <fix>3d</fix>
</trkpt>
<trkpt lat="40.0727984" lon="-105.2306149">
  <ele>1595.6</ele>
  <time>2026-08-28T19:10:32Z</time>
  <course>289.73</course>
  <speed>0.58</speed>
  <fix>3d</fix>
</trkpt>
<trkpt lat="40.0727989" lon="-105.2306173">
  <ele>1595.68</ele>
  <time>2026-08-28T19:10:32Z</time>
  <course>8.32</course>
  <speed>0.7316419889536138</speed>
  <fix>3d</fix>
</trkpt>
<trkpt lat="40.0727987" lon="-105.2306164">
  <ele>1595.6</ele>
  <time>2026-08-28T19:10:32Z</time>
  <course>282.94</course>
  <speed>0.7</speed>
  <fix>3d</fix>
</trkpt>
<trkpt lat="40.072799" lon="-105.2306191">
  <ele>1595.69</ele>
  <time>2026-08-28T19:10:32Z</time>
  <course>8.42</course>
  <speed>0.7333484846919641</speed>
  <fix>3d</fix>
</trkpt>
<trkpt lat="40.0727989" lon="-105.230618">
  <ele>1595.6</ele>
  <time>2026-08-28T19:10:32Z</time>
  <course>277.86</course>
  <speed>0.75</speed>
  <fix>3d</fix>
</trkpt>
<trkpt lat="40.0727991" lon="-105.2306208">
  <ele>1595.69</ele>
  <time>2026-08-28T19:10:32Z</time>
  <course>8.53</course>
  <speed>0.68</speed>
  <fix>3d</fix>
</trkpt>
<trkpt lat="40.0727991" lon="-105.2306198">
  <ele>1595.6</ele>
  <time>2026-08-28T19:10:32Z</time>
  <course>273.27</course>
  <speed>0.75</speed>
  <fix>3d</fix>
</trkpt>
<trkpt lat="40.072799" lon="-105.2306223">
  <ele>1595.69</ele>
  <time>2026-08-28T19:10:32Z</time>
  <course>8.62</course>
  <speed>0.5532630477449222</speed>
  <fix>3d</fix>
</trkpt>
<trkpt lat="40.0727992" lon="-105.2306214">
  <ele>1595.6</ele>
  <time>2026-08-28T19:10:32Z</time>
  <course>268.29</course>
  <speed>0.67</speed>
  <fix>3d</fix>
</trkpt>
<trkpt lat="40.072799" lon="-105.2306234">
  <ele>1595.69</ele>
  <time>2026-08-28T19:10:32Z</time>
  <course>8.67</course>
  <speed>0.3889730067755345</speed>
  <fix>3d</fix>
</trkpt>
<trkpt lat="40.0727991" lon="-105.2306229">
  <ele>1595.61</ele>
  <time>2026-08-28T19:10:32Z</time>
  <course>261.68</course>
  <speed>0.54</speed>
  <fix>3d</fix>
</trkpt>
<trkpt lat="40.0727987" lon="-105.2306241">
  <ele>1595.69</ele>
  <time>2026-08-28T19:10:32Z</time>
  <course>8.65</course>
  <speed>0.23345235059857505</speed>
  <fix>3d</fix>
</trkpt>
<trkpt lat="40.0727989" lon="-105.230624">
  <ele>1595.61</ele>
  <time>2026-08-28T19:10:32Z</time>
  <course>250.11</course>
  <speed>0.37</speed>
  <fix>3d</fix>
</trkpt>
<trkpt lat="40.0727984" lon="-105.2306243">
  <ele>1595.68</ele>
  <time>2026-08-28T19:10:32Z</time>
  <course>8.55</course>
  <speed>0.208806130178211</speed>
  <fix>3d</fix>
</trkpt>
<trkpt lat="40.0727987" lon="-105.2306246">
  <ele>1595.61</ele>
  <time>2026-08-28T19:10:32Z</time>
  <course>219.77</course>
  <speed>0.21</speed>
  <fix>3d</fix>
</trkpt>
<trkpt lat="40.072798" lon="-105.230624">
  <ele>1595.68</ele>
  <time>2026-08-28T19:10:32Z</time>
  <course>8.46</course>
  <speed>0.35</speed>
  <fix>3d</fix>
</trkpt>
<trkpt lat="40.0727984" lon="-105.2306246">
  <ele>1595.61</ele>
  <time>2026-08-28T19:10:32Z</time>
  <course>152.12</course>
  <speed>0.2</speed>
  <fix>3d</fix>
</trkpt>
<trkpt lat="40.0727977" lon="-105.2306233">
  <ele>1595.68</ele>
  <time>2026-08-28T19:10:32Z</time>
  <course>8.31</course>
  <speed>0.5107837115648853</speed>
  <fix>3d</fix>
</trkpt>
<trkpt lat="40.0727981" lon="-105.2306242">
  <ele>1595.61</ele>
  <time>2026-08-28T19:10:32Z</time>
  <course>119.27</course>
  <speed>0.35</speed>
  <fix>3d</fix>
</trkpt>
<trkpt lat="40.0727974" lon="-105.2306221">
  <ele>1595.68</ele>
  <time>2026-08-28T19:10:32Z</time>
  <course>8.2</course>
  <speed>0.6428841264178172</speed>
  <fix>3d</fix>
</trkpt>
<trkpt lat="40.0727977" lon="-105.2306232">
  <ele>1595.61</ele>
  <time>2026-08-28T19:10:32Z</time>
  <course>107.06</course>
  <speed>0.51</speed>
  <fix>3d</fix>
</trkpt>
<trkpt lat="40.0727972" lon="-105.2306206">
  <ele>1595.67</ele>
  <time>2026-08-28T19:10:32Z</time>
  <course>8.18</course>
  <speed>0.7102112361825881</speed>
  <fix>3d</fix>
</trkpt>
<trkpt lat="40.0727976" lon="-105.2306219">
  <ele>1595.61</ele>
  <time>2026-08-28T19:10:32Z</time>
  <course>100.17</course>
  <speed>0.63</speed>
  <fix>3d</fix>
</trkpt>
<trkpt lat="40.0727971" lon="-105.230619">
  <ele>1595.68</ele>
  <time>2026-08-28T19:10:32Z</time>
  <course>8.19</course>
  <speed>0.7217340230306452</speed>
  <fix>3d</fix>
</trkpt>
<trkpt lat="40.0727974" lon="-105.2306203">
  <ele>1595.61</ele>
  <time>2026-08-28T19:10:32Z</time>
  <course>94.94</course>
  <speed>0.7</speed>
  <fix>3d</fix>
</trkpt>
<trkpt lat="40.0727972" lon="-105.2306174">
  <ele>1595.68</ele>
  <time>2026-08-28T19:10:32Z</time>
  <course>8.26</course>
  <speed>0.66007575322837</speed>
  <fix>3d</fix>
</trkpt>
<trkpt lat="40.0727974" lon="-105.2306187">
  <ele>1595.61</ele>
  <time>2026-08-28T19:10:32Z</time>
  <course>89.98</course>
  <speed>0.69</speed>
  <fix>3d</fix>
</trkpt>
<trkpt lat="40.0727972" lon="-105.230616">
  <ele>1595.68</ele>
  <time>2026-08-28T19:10:32Z</time>
  <course>8.34</course>
  <speed>0.5458937625582473</speed>
  <fix>3d</fix>
</trkpt>
<trkpt lat="40.0727974" lon="-105.2306172">
  <ele>1595.61</ele>
  <time>2026-08-28T19:10:32Z</time>
  <course>84.21</course>
  <speed>0.62</speed>
  <fix>3d</fix>
</trkpt>
<trkpt lat="40.0727975" lon="-105.230615">
  <ele>1595.67</ele>
  <time>2026-08-28T19:10:32Z</time>
  <course>8.4</course>
  <speed>0.38626415831655936</speed>
  <fix>3d</fix>
</trkpt>
<trkpt lat="40.0727975" lon="-105.2306159">
  <ele>1595.61</ele>
  <time>2026-08-28T19:10:32Z</time>
  <course>75.92</course>
  <speed>0.5</speed>
  <fix>3d</fix>
</trkpt>
<trkpt lat="40.0727978" lon="-105.2306144">
  <ele>1595.68</ele>
  <time>2026-08-28T19:10:32Z</time>
  <course>8.45</course>
  <speed>0.2420743687382041</speed>
  <fix>3d</fix>
</trkpt>
<trkpt lat="40.0727977" lon="-105.2306149">
  <ele>1595.61</ele>
  <time>2026-08-28T19:10:32Z</time>
  <course>60.29</course>
  <speed>0.34</speed>
  <fix>3d</fix>
</trkpt>
<trkpt lat="40.0727982" lon="-105.2306144">
  <ele>1595.68</ele>
  <time>2026-08-28T19:10:32Z</time>
  <course>8.47</course>
  <speed>0.2308679276123039</speed>
  <fix>3d</fix>
</trkpt>
<trkpt lat="40.0727981" lon="-105.2306145">
  <ele>1595.62</ele>
  <time>2026-08-28T19:10:32Z</time>
  <course>21.84</course>
  <speed>0.22</speed>
  <fix>3d</fix>
</trkpt>
<trkpt lat="40.0727987" lon="-105.2306148">
  <ele>1595.68</ele>
  <time>2026-08-28T19:10:32Z</time>
  <course>8.46</course>
  <speed>0.37013511046643494</speed>
  <fix>3d</fix>
</trkpt>
<trkpt lat="40.0727985" lon="-105.2306146">
  <ele>1595.62</ele>
  <time>2026-08-28T19:10:32Z</time>
  <course>326.83</course>
  <speed>0.26</speed>
  <fix>3d</fix>
</trkpt>
<trkpt lat="40.0727991" lon="-105.2306157">
  <ele>1595.68</ele>
  <time>2026-08-28T19:10:32Z</time>
  <course>8.4</course>
  <speed>0.5331041174104736</speed>
  <fix>3d</fix>
</trkpt>
<trkpt lat="40.0727988" lon="-105.2306151">
  <ele>1595.62</ele>
  <time>2026-08-28T19:10:32Z</time>
  <course>301.24</course>
  <speed>0.42</speed>
  <fix>3d</fix>
</trkpt>
<trkpt lat="40.0727994" lon="-105.230617">
  <ele>1595.68</ele>
  <time>2026-08-28T19:10:32Z</time>
  <course>8.36</course>
  <speed>0.6648308055437865</speed>
  <fix>3d</fix>
</trkpt>
<trkpt lat="40.0727992" lon="-105.2306161">
  <ele>1595.62</ele>
  <time>2026-08-28T19:10:32Z</time>
  <course>289.85</course>
  <speed>0.58</speed>
  <fix>3d</fix>
</trkpt>
<trkpt lat="40.0727997" lon="-105.2306186">
  <ele>1595.69</ele>
  <time>2026-08-28T19:10:32Z</time>
  <course>8.38</course>
  <speed>0.7316419889536138</speed>
  <fix>3d</fix>
</trkpt>
<trkpt lat="40.0727995" lon="-105.2306175">
  <ele>1595.63</ele>
  <time>2026-08-28T19:10:32Z</time>
  <course>283.05</course>
  <speed>0.69</speed>
  <fix>3d</fix>
</trkpt>
<trkpt lat="40.0727999" lon="-105.2306204">
  <ele>1595.69</ele>
  <time>2026-08-28T19:10:32Z</time>
  <course>8.48</course>
  <speed>0.7333484846919641</speed>
  <fix>3d</fix>
</trkpt>
<trkpt lat="40.0727998" lon="-105.2306193">
  <ele>1595.63</ele>
  <time>2026-08-28T19:10:32Z</time>
  <course>277.94</course>
  <speed>0.75</speed>
  <fix>3d</fix>
</trkpt>
<trkpt lat="40.0727999" lon="-105.230622">
  <ele>1595.7</ele>
  <time>2026-08-28T19:10:32Z</time>
  <course>8.6</course>
  <speed>0.68</speed>
  <fix>3d</fix>
</trkpt>
<trkpt lat="40.0727999" lon="-105.230621">
  <ele>1595.63</ele>
  <time>2026-08-28T19:10:32Z</time>
  <course>273.32</course>
  <speed>0.74</speed>
  <fix>3d</fix>
</trkpt>
<trkpt lat="40.0727999" lon="-105.2306235">
  <ele>1595.71</ele>
  <time>2026-08-28T19:10:32Z</time>
  <course>8.69</course>
  <speed>0.5532630477449222</speed>
  <fix>3d</fix>
</trkpt>
<trkpt lat="40.0728" lon="-105.2306227">
  <ele>1595.63</ele>
  <time>2026-08-28T19:10:32Z</time>
  <course>268.3</course>
  <speed>0.67</speed>
  <fix>3d</fix>
</trkpt>
<trkpt lat="40.0727998" lon="-105.2306247">
  <ele>1595.71</ele>
  <time>2026-08-28T19:10:32Z</time>
  <course>8.78</course>
  <speed>0.3889730067755345</speed>
  <fix>3d</fix>
</trkpt>
<trkpt lat="40.0727999" lon="-105.2306242">
  <ele>1595.64</ele>
  <time>2026-08-28T19:10:32Z</time>
  <course>261.67</course>
  <speed>0.54</speed>
  <fix>3d</fix>
</trkpt>
<trkpt lat="40.0727995" lon="-105.2306254">
  <ele>1595.72</ele>
  <time>2026-08-28T19:10:32Z</time>
  <course>8.77</course>
  <speed>0.23345235059857505</speed>
  <fix>3d</fix>
</trkpt>
<trkpt lat="40.0727998" lon="-105.2306252">
  <ele>1595.64</ele>
  <time>2026-08-28T19:10:32Z</time>
  <course>250.02</course>
  <speed>0.37</speed>
  <fix>3d</fix>
</trkpt>
<trkpt lat="40.0727992" lon="-105.2306256">
  <ele>1595.71</ele>
  <time>2026-08-28T19:10:32Z</time>
  <course>8.68</course>
  <speed>0.208806130178211</speed>
  <fix>3d</fix>
</trkpt>
<trkpt lat="40.0727995" lon="-105.2306258">
  <ele>1595.63</ele>
  <time>2026-08-28T19:10:32Z</time>
  <course>219.22</course>
  <speed>0.2</speed>
  <fix>3d</fix>
</trkpt>
<trkpt lat="40.0727989" lon="-105.2306252">
  <ele>1595.7</ele>
  <time>2026-08-28T19:10:32Z</time>
  <course>8.53</course>
  <speed>0.35</speed>
  <fix>3d</fix>
</trkpt>
<trkpt lat="40.0727992" lon="-105.2306258">
  <ele>1595.62</ele>
  <time>2026-08-28T19:10:32Z</time>
  <course>151.5</course>
  <speed>0.2</speed>
  <fix>3d</fix>
</trkpt>
<trkpt lat="40.0727985" lon="-105.2306245">
  <ele>1595.69</ele>
  <time>2026-08-28T19:10:32Z</time>
  <course>8.4</course>
  <speed>0.5107837115648853</speed>
  <fix>3d</fix>
</trkpt>
<trkpt lat="40.0727988" lon="-105.2306253">
  <ele>1595.62</ele>
  <time>2026-08-28T19:10:32Z</time>
  <course>119.17</course>
  <speed>0.36</speed>
  <fix>3d</fix>
</trkpt>
<trkpt lat="40.0727983" lon="-105.2306233">
  <ele>1595.69</ele>
  <time>2026-08-28T19:10:32Z</time>
  <course>8.27</course>
  <speed>0.6428841264178172</speed>
  <fix>3d</fix>
</trkpt>
<trkpt lat="40.0727986" lon="-105.2306245">
  <ele>1595.61</ele>
  <time>2026-08-28T19:10:32Z</time>
  <course>107.08</course>
  <speed>0.52</speed>
  <fix>3d</fix>
</trkpt>
<trkpt lat="40.072798" lon="-105.2306218">
  <ele>1595.69</ele>
  <time>2026-08-28T19:10:32Z</time>
  <course>8.23</course>
  <speed>0.7102112361825881</speed>
  <fix>3d</fix>
</trkpt>
<trkpt lat="40.0727983" lon="-105.2306231">
  <ele>1595.6</ele>
  <time>2026-08-28T19:10:32Z</time>
  <course>100.23</course>
  <speed>0.64</speed>
  <fix>3d</fix>
</trkpt>
<trkpt lat="40.0727979" lon="-105.2306202">
  <ele>1595.69</ele>
  <time>2026-08-28T19:10:32Z</time>
  <course>8.25</course>
  <speed>0.7217340230306452</speed>
  <fix>3d</fix>
</trkpt>
<trkpt lat="40.0727981" lon="-105.2306216">
  <ele>1595.6</ele>
  <time>2026-08-28T19:10:32Z</time>
  <course>95.04</course>
  <speed>0.7</speed>
  <fix>3d</fix>
</trkpt>
<trkpt lat="40.072798" lon="-105.2306186">
  <ele>1595.69</ele>
  <time>2026-08-28T19:10:32Z</time>
  <course>8.32</course>
  <speed>0.66</speed>
  <fix>3d</fix>
</trkpt>
<trkpt lat="40.0727981" lon="-105.2306199">
  <ele>1595.6</ele>
  <time>2026-08-28T19:10:32Z</time>
  <course>90.13</course>
  <speed>0.69</speed>
  <fix>3d</fix>
</trkpt>
<trkpt lat="40.072798" lon="-105.2306172">
  <ele>1595.69</ele>
  <time>2026-08-28T19:10:32Z</time>
  <course>8.41</course>
  <speed>0.5445181356024793</speed>
  <fix>3d</fix>
</trkpt>
<trkpt lat="40.0727981" lon="-105.2306183">
  <ele>1595.6</ele>
  <time>2026-08-28T19:10:32Z</time>
  <course>84.48</course>
  <speed>0.63</speed>
  <fix>3d</fix>
</trkpt>
<trkpt lat="40.0727982" lon="-105.2306162">
  <ele>1595.69</ele>
  <time>2026-08-28T19:10:32Z</time>
  <course>8.51</course>
  <speed>0.3827531841800928</speed>
  <fix>3d</fix>
</trkpt>
<trkpt lat="40.0727982" lon="-105.230617">
  <ele>1595.6</ele>
  <time>2026-08-28T19:10:32Z</time>
  <course>76.38</course>
  <speed>0.5</speed>
  <fix>3d</fix>
</trkpt>
<trkpt lat="40.0727986" lon="-105.2306156">
  <ele>1595.69</ele>
  <time>2026-08-28T19:10:32Z</time>
  <course>8.54</course>
  <speed>0.23430749027719963</speed>
  <fix>3d</fix>
</trkpt>
<trkpt lat="40.0727985" lon="-105.230616">
  <ele>1595.6</ele>
  <time>2026-08-28T19:10:32Z</time>
  <course>61.21</course>
  <speed>0.34</speed>
  <fix>3d</fix>
</trkpt>
<trkpt lat="40.072799" lon="-105.2306155">
  <ele>1595.69</ele>
  <time>2026-08-28T19:10:32Z</time>
  <course>8.53</course>
  <speed>0.22135943621178655</speed>
  <fix>3d</fix>
</trkpt>
<trkpt lat="40.0727988" lon="-105.2306155">
  <ele>1595.6</ele>
  <time>2026-08-28T19:10:32Z</time>
  <course>23.65</course>
  <speed>0.22</speed>
  <fix>3d</fix>
</trkpt>
<trkpt lat="40.0727994" lon="-105.2306159">
  <ele>1595.69</ele>
  <time>2026-08-28T19:10:32Z</time>
  <course>8.5</course>
  <speed>0.34058772731852804</speed>
  <fix>3d</fix>
</trkpt>
<trkpt lat="40.0727992" lon="-105.2306156">
  <ele>1595.59</ele>
  <time>2026-08-28T19:10:32Z</time>
  <course>328.57</course>
  <speed>0.25</speed>
  <fix>3d</fix>
</trkpt>
<trkpt lat="40.0727998" lon="-105.2306166">
  <ele>1595.68</ele>
  <time>2026-08-28T19:10:32Z</time>
  <course>8.52</course>
  <speed>0.40249223594996214</speed>
  <fix>3d</fix>
</trkpt>
<trkpt lat="40.0727995" lon="-105.2306161">
  <ele>1595.59</ele>
  <time>2026-08-28T19:10:32Z</time>
  <course>304.58</course>
  <speed>0.36</speed>
  <fix>3d</fix>
</trkpt>
<trkpt lat="40.0728001" lon="-105.2306174">
  <ele>1595.69</ele>
  <time>2026-08-28T19:10:32Z</time>
  <course>8.55</course>
  <speed>0.4143669871020132</speed>
  <fix>3d</fix>
</trkpt>
<trkpt lat="40.0727999" lon="-105.2306169">
  <ele>1595.59</ele>
  <time>2026-08-28T19:10:32Z</time>
  <course>294.32</course>
  <speed>0.42</speed>
  <fix>3d</fix>
</trkpt>
<trkpt lat="40.0728003" lon="-105.2306184">
  <ele>1595.69</ele>
  <time>2026-08-28T19:10:32Z</time>
  <course>8.56</course>
  <speed>0.3956008088970496</speed>
  <fix>3d</fix>
</trkpt>
<trkpt lat="40.0728002" lon="-105.2306179">
  <ele>1595.59</ele>
  <time>2026-08-28T19:10:32Z</time>
  <course>288.41</course>
  <speed>0.43</speed>
  <fix>3d</fix>
</trkpt>
<trkpt lat="40.0728005" lon="-105.2306193">
  <ele>1595.69</ele>
  <time>2026-08-28T19:10:32Z</time>
  <course>8.58</course>
  <speed>0.3590264614203248</speed>
  <fix>3d</fix>
</trkpt>
<trkpt lat="40.0728005" lon="-105.2306188">
  <ele>1595.59</ele>
  <time>2026-08-28T19:10:32Z</time>
  <course>284.89</course>
  <speed>0.41</speed>
  <fix>3d</fix>
</trkpt>
<trkpt lat="40.0728006" lon="-105.2306201">
  <ele>1595.7</ele>
  <time>2026-08-28T19:10:32Z</time>
  <course>8.56</course>
  <speed>0.327566787083184</speed>
  <fix>3d</fix>
</trkpt>
<trkpt lat="40.0728006" lon="-105.2306197">
  <ele>1595.59</ele>
  <time>2026-08-28T19:10:32Z</time>
  <course>282.96</course>
  <speed>0.38</speed>
  <fix>3d</fix>
</trkpt>
<trkpt lat="40.0728007" lon="-105.2306209">
  <ele>1595.7</ele>
  <time>2026-08-28T19:10:32Z</time>
  <course>8.54</course>
  <speed>0.2863564212655271</speed>
  <fix>3d</fix>
</trkpt>
<trkpt lat="40.0728007" lon="-105.2306206">
  <ele>1595.59</ele>
  <time>2026-08-28T19:10:32Z</time>
  <course>282.21</course>
  <speed>0.34</speed>
  <fix>3d</fix>
</trkpt>
<trkpt lat="40.0728009" lon="-105.2306215">
  <ele>1595.71</ele>
  <time>2026-08-28T19:10:32Z</time>
  <course>8.55</course>
  <speed>0.25495097567963926</speed>
  <fix>3d</fix>
</trkpt>
<trkpt lat="40.0728009" lon="-105.2306213">
  <ele>1595.59</ele>
  <time>2026-08-28T19:10:32Z</time>
  <course>282.4</course>
  <speed>0.31</speed>
  <fix>3d</fix>
</trkpt>
<trkpt lat="40.072801" lon="-105.2306222">
  <ele>1595.71</ele>
  <time>2026-08-28T19:10:32Z</time>
  <course>8.59</course>
  <speed>0.22561028345356957</speed>
  <fix>3d</fix>
</trkpt>
<trkpt lat="40.072801" lon="-105.230622">
  <ele>1595.59</ele>
  <time>2026-08-28T19:10:32Z</time>
  <course>283.32</course>
  <speed>0.28</speed>
  <fix>3d</fix>
</trkpt>
<trkpt lat="40.0728011" lon="-105.2306227">
  <ele>1595.71</ele>
  <time>2026-08-28T19:10:32Z</time>
  <course>8.63</course>
  <speed>0.2039607805437114</speed>
  <fix>3d</fix>
</trkpt>
<trkpt lat="40.0728011" lon="-105.2306226">
  <ele>1595.58</ele>
  <time>2026-08-28T19:10:32Z</time>
  <course>284.7</course>
  <speed>0.25</speed>
  <fix>3d</fix>
</trkpt>
<trkpt lat="40.0728012" lon="-105.2306232">
  <ele>1595.7</ele>
  <time>2026-08-28T19:10:32Z</time>
  <course>8.62</course>
  <speed>0.17464249196572978</speed>
  <fix>3d</fix>
</trkpt>
<trkpt lat="40.0728012" lon="-105.2306231">
  <ele>1595.58</ele>
  <time>2026-08-28T19:10:32Z</time>
  <course>286.44</course>
  <speed>0.22</speed>
  <fix>3d</fix>
</trkpt>
<trkpt lat="40.0728013" lon="-105.2306237">
  <ele>1595.7</ele>
  <time>2026-08-28T19:10:32Z</time>
  <course>8.62</course>
  <speed>0.15524174696260024</speed>
  <fix>3d</fix>
</trkpt>
<trkpt lat="40.0728013" lon="-105.2306236">
  <ele>1595.57</ele>
  <time>2026-08-28T19:10:32Z</time>
  <course>288.57</course>
  <speed>0.2</speed>
  <fix>3d</fix>
</trkpt>
<trkpt lat="40.0728014" lon="-105.2306241">
  <ele>1595.7</ele>
  <time>2026-08-28T19:10:32Z</time>
  <course>8.62</course>
  <speed>0.14560219778561037</speed>
  <fix>3d</fix>
</trkpt>
<trkpt lat="40.0728015" lon="-105.2306241">
  <ele>1595.57</ele>
  <time>2026-08-28T19:10:32Z</time>
  <course>290.93</course>
  <speed>0.18</speed>
  <fix>3d</fix>
</trkpt>
<trkpt lat="40.0728015" lon="-105.2306244">
  <ele>1595.69</ele>
  <time>2026-08-28T19:10:32Z</time>
  <course>8.61</course>
  <speed>0.1264911064067352</speed>
  <fix>3d</fix>
</trkpt>
<trkpt lat="40.0728016" lon="-105.2306245">
  <ele>1595.56</ele>
  <time>2026-08-28T19:10:32Z</time>
  <course>293.41</course>
  <speed>0.17</speed>
  <fix>3d</fix>
</trkpt>
<trkpt lat="40.0728016" lon="-105.2306248">
  <ele>1595.68</ele>
  <time>2026-08-28T19:10:32Z</time>
  <course>8.58</course>
  <speed>0.11704699910719625</speed>
  <fix>3d</fix>
</trkpt>
<trkpt lat="40.0728017" lon="-105.2306248">
  <ele>1595.56</ele>
  <time>2026-08-28T19:10:32Z</time>
  <course>295.91</course>
  <speed>0.15</speed>
  <fix>3d</fix>
</trkpt>
<trkpt lat="40.0728017" lon="-105.2306251">
  <ele>1595.67</ele>
  <time>2026-08-28T19:10:32Z</time>
  <course>8.53</course>
  <speed>0.10770329614269007</speed>
  <fix>3d</fix>
</trkpt>
<trkpt lat="40.0728018" lon="-105.2306251">
  <ele>1595.55</ele>
  <time>2026-08-28T19:10:32Z</time>
  <course>298.22</course>
  <speed>0.14</speed>
  <fix>3d</fix>
</trkpt>
<trkpt lat="40.0728019" lon="-105.2306253">
  <ele>1595.66</ele>
  <time>2026-08-28T19:10:32Z</time>
  <course>8.51</course>
  <speed>0.09848857801796104</speed>
  <fix>3d</fix>
</trkpt>
<trkpt lat="40.0728019" lon="-105.2306254">
  <ele>1595.55</ele>
  <time>2026-08-28T19:10:32Z</time>
  <course>300.34</course>
  <speed>0.13</speed>
  <fix>3d</fix>
</trkpt>
<trkpt lat="40.072802" lon="-105.2306256">
  <ele>1595.66</ele>
  <time>2026-08-28T19:10:32Z</time>
  <course>8.48</course>
  <speed>0.08944271909999159</speed>
  <fix>3d</fix>
</trkpt>
<trkpt lat="40.0728021" lon="-105.2306257">
  <ele>1595.55</ele>
  <time>2026-08-28T19:10:32Z</time>
  <course>302.5</course>
  <speed>0.12</speed>
  <fix>3d</fix>
</trkpt>
<trkpt lat="40.0728021" lon="-105.2306258">
  <ele>1595.66</ele>
  <time>2026-08-28T19:10:32Z</time>
  <course>8.45</course>
  <speed>0.09433981132056603</speed>
  <fix>3d</fix>
</trkpt>
<trkpt lat="40.0728022" lon="-105.230626">
  <ele>1595.55</ele>
  <time>2026-08-28T19:10:32Z</time>
  <course>304.09</course>
  <speed>0.12</speed>
  <fix>3d</fix>
</trkpt>
<trkpt lat="40.0728022" lon="-105.2306261">
  <ele>1595.66</ele>
  <time>2026-08-28T19:10:32Z</time>
  <course>8.46</course>
  <speed>0.1341640786499874</speed>
  <fix>3d</fix>
</trkpt>
<trkpt lat="40.0728023" lon="-105.2306262">
  <ele>1595.55</ele>
  <time>2026-08-28T19:10:32Z</time>
  <course>303.07</course>
  <speed>0.13</speed>
  <fix>3d</fix>
</trkpt>
<trkpt lat="40.0728024" lon="-105.2306265">
  <ele>1595.67</ele>
  <time>2026-08-28T19:10:32Z</time>
  <course>8.48</course>
  <speed>0.19697715603592209</speed>
  <fix>3d</fix>
</trkpt>
<trkpt lat="40.0728024" lon="-105.2306265">
  <ele>1595.56</ele>
  <time>2026-08-28T19:10:32Z</time>
  <course>299.3</course>
  <speed>0.18</speed>
  <fix>3d</fix>
</trkpt>
<trkpt lat="40.0728026" lon="-105.2306271">
  <ele>1595.67</ele>
  <time>2026-08-28T19:10:32Z</time>
  <course>8.5</course>
  <speed>0.2879236009777594</speed>
  <fix>3d</fix>
</trkpt>
<trkpt lat="40.0728026" lon="-105.230627">
  <ele>1595.56</ele>
  <time>2026-08-28T19:10:32Z</time>
  <course>294.88</course>
  <speed>0.25</speed>
  <fix>3d</fix>
</trkpt>
<trkpt lat="40.0728028" lon="-105.2306279">
  <ele>1595.67</ele>
  <time>2026-08-28T19:10:32Z</time>
  <course>8.49</course>
  <speed>0.3889730067755345</speed>
  <fix>3d</fix>
</trkpt>
<trkpt lat="40.0728029" lon="-105.2306276">
  <ele>1595.56</ele>
  <time>2026-08-28T19:10:32Z</time>
  <course>290.97</course>
  <speed>0.34</speed>
  <fix>3d</fix>
</trkpt>
<trkpt lat="40.0728031" lon="-105.230629">
  <ele>1595.67</ele>
  <time>2026-08-28T19:10:32Z</time>
  <course>8.48</course>
  <speed>0.4876474136094644</speed>
  <fix>3d</fix>
</trkpt>
<trkpt lat="40.0728031" lon="-105.2306285">
  <ele>1595.57</ele>
  <time>2026-08-28T19:10:32Z</time>
  <course>287.71</course>
  <speed>0.44</speed>
  <fix>3d</fix>
</trkpt>
<trkpt lat="40.0728033" lon="-105.2306302">
  <ele>1595.68</ele>
  <time>2026-08-28T19:10:32Z</time>
  <course>8.48</course>
  <speed>0.5629387178015027</speed>
  <fix>3d</fix>
</trkpt>
<trkpt lat="40.0728034" lon="-105.2306295">
  <ele>1595.57</ele>
  <time>2026-08-28T19:10:32Z</time>
  <course>284.92</course>
  <speed>0.53</speed>
  <fix>3d</fix>
</trkpt>
<trkpt lat="40.0728036" lon="-105.2306316">
  <ele>1595.68</ele>
  <time>2026-08-28T19:10:32Z</time>
  <course>8.51</course>
  <speed>0.5885575587824864</speed>
  <fix>3d</fix>
</trkpt>
<trkpt lat="40.0728036" lon="-105.2306309">
  <ele>1595.57</ele>
  <time>2026-08-28T19:10:32Z</time>
  <course>282.36</course>
  <speed>0.59</speed>
  <fix>3d</fix>
</trkpt>
<trkpt lat="40.0728038" lon="-105.230633">
  <ele>1595.69</ele>
  <time>2026-08-28T19:10:32Z</time>
  <course>8.55</course>
  <speed>0.5742821606144493</speed>
  <fix>3d</fix>
</trkpt>
<trkpt lat="40.0728038" lon="-105.2306323">
  <ele>1595.58</ele>
  <time>2026-08-28T19:10:32Z</time>
  <course>279.85</course>
  <speed>0.61</speed>
  <fix>3d</fix>
</trkpt>
<trkpt lat="40.0728039" lon="-105.2306343">
  <ele>1595.69</ele>
  <time>2026-08-28T19:10:32Z</time>
  <course>8.61</course>
  <speed>0.5108815909777921</speed>
  <fix>3d</fix>
</trkpt>
<trkpt lat="40.072804" lon="-105.2306337">
  <ele>1595.58</ele>
  <time>2026-08-28T19:10:32Z</time>
  <course>277.13</course>
  <speed>0.59</speed>
  <fix>3d</fix>
</trkpt>
<trkpt lat="40.0728039" lon="-105.2306355">
  <ele>1595.7</ele>
  <time>2026-08-28T19:10:32Z</time>
  <course>8.64</course>
  <speed>0.4001249804748511</speed>
  <fix>3d</fix>
</trkpt>
<trkpt lat="40.0728041" lon="-105.230635">
  <ele>1595.58</ele>
  <time>2026-08-28T19:10:32Z</time>
  <course>273.79</course>
  <speed>0.51</speed>
  <fix>3d</fix>
</trkpt>
<trkpt lat="40.0728039" lon="-105.2306363">
  <ele>1595.7</ele>
  <time>2026-08-28T19:10:32Z</time>
  <course>8.66</course>
  <speed>0.24738633753705963</speed>
  <fix>3d</fix>
</trkpt>
<trkpt lat="40.0728041" lon="-105.230636">
  <ele>1595.58</ele>
  <time>2026-08-28T19:10:32Z</time>
  <course>268.8</course>
  <speed>0.38</speed>
  <fix>3d</fix>
</trkpt>
<trkpt lat="40.0728038" lon="-105.2306367">
  <ele>1595.7</ele>
  <time>2026-08-28T19:10:32Z</time>
  <course>8.66</course>
  <speed>0.1118033988749895</speed>
  <fix>3d</fix>
</trkpt>
<trkpt lat="40.072804" lon="-105.2306367">
  <ele>1595.58</ele>
  <time>2026-08-28T19:10:32Z</time>
  <course>257.78</course>
  <speed>0.22</speed>
  <fix>3d</fix>
</trkpt>
<trkpt lat="40.0728037" lon="-105.2306367">
  <ele>1595.69</ele>
  <time>2026-08-28T19:10:32Z</time>
  <course>8.58</course>
  <speed>0.191049731745428</speed>
  <fix>3d</fix>
</trkpt>
<trkpt lat="40.072804" lon="-105.2306371">
  <ele>1595.58</ele>
  <time>2026-08-28T19:10:32Z</time>
  <course>197.91</course>
  <speed>0.08</speed>
  <fix>3d</fix>
</trkpt>
<trkpt lat="40.0728035" lon="-105.2306363">
  <ele>1595.68</ele>
  <time>2026-08-28T19:10:32Z</time>
  <course>8.48</course>
  <speed>0.3716180835212409</speed>
  <fix>3d</fix>
</trkpt>
<trkpt lat="40.0728038" lon="-105.2306369">
  <ele>1595.57</ele>
  <time>2026-08-28T19:10:32Z</time>
  <course>119.77</course>
  <speed>0.2</speed>
  <fix>3d</fix>
</trkpt>
<trkpt lat="40.0728033" lon="-105.2306353">
  <ele>1595.68</ele>
  <time>2026-08-28T19:10:32Z</time>
  <course>8.34</course>
  <speed>0.5316013544000805</speed>
  <fix>3d</fix>
</trkpt>
<trkpt lat="40.0728036" lon="-105.2306363">
  <ele>1595.57</ele>
  <time>2026-08-28T19:10:32Z</time>
  <course>106.24</course>
  <speed>0.38</speed>
  <fix>3d</fix>
</trkpt>
<trkpt lat="40.0728031" lon="-105.230634">
  <ele>1595.68</ele>
  <time>2026-08-28T19:10:32Z</time>
  <course>8.26</course>
  <speed>0.6432728814430156</speed>
  <fix>3d</fix>
</trkpt>
<trkpt lat="40.0728035" lon="-105.2306352">
  <ele>1595.57</ele>
  <time>2026-08-28T19:10:32Z</time>
  <course>100.44</course>
  <speed>0.53</speed>
  <fix>3d</fix>
</trkpt>
<trkpt lat="40.072803" lon="-105.2306325">
  <ele>1595.67</ele>
  <time>2026-08-28T19:10:32Z</time>
  <course>8.22</course>
  <speed>0.7057619995437555</speed>
  <fix>3d</fix>
</trkpt>
<trkpt lat="40.0728033" lon="-105.2306339">
  <ele>1595.56</ele>
  <time>2026-08-28T19:10:32Z</time>
  <course>96.44</course>
  <speed>0.64</speed>
  <fix>3d</fix>
</trkpt>
<trkpt lat="40.0728029" lon="-105.2306309">
  <ele>1595.67</ele>
  <time>2026-08-28T19:10:32Z</time>
  <course>8.26</course>
  <speed>0.711125867902441</speed>
  <fix>3d</fix>
</trkpt>
<trkpt lat="40.0728032" lon="-105.2306323">
  <ele>1595.56</ele>
  <time>2026-08-28T19:10:32Z</time>
  <course>92.89</course>
  <speed>0.7</speed>
  <fix>3d</fix>
</trkpt>
<trkpt lat="40.072803" lon="-105.2306294">
  <ele>1595.67</ele>
  <time>2026-08-28T19:10:33Z</time>
  <course>8.3</course>
  <speed>0.6400781202322103</speed>
  <fix>3d</fix>
</trkpt>
<trkpt lat="40.0728031" lon="-105.2306307">
  <ele>1595.56</ele>
  <time>2026-08-28T19:10:33Z</time>
  <course>89.09</course>
  <speed>0.68</speed>
  <fix>3d</fix>
</trkpt>
<trkpt lat="40.072803" lon="-105.2306281">
  <ele>1595.68</ele>
  <time>2026-08-28T19:10:33Z</time>
  <course>8.38</course>
  <speed>0.5246903848937962</speed>
  <fix>3d</fix>
</trkpt>
<trkpt lat="40.0728032" lon="-105.2306291">
  <ele>1595.57</ele>
  <time>2026-08-28T19:10:33Z</time>
  <course>84.3</course>
  <speed>0.61</speed>
  <fix>3d</fix>
</trkpt>
<trkpt lat="40.0728033" lon="-105.2306271">
  <ele>1595.68</ele>
  <time>2026-08-28T19:10:33Z</time>
  <course>8.45</course>
  <speed>0.37</speed>
  <fix>3d</fix>
</trkpt>
<trkpt lat="40.0728034" lon="-105.2306278">
  <ele>1595.57</ele>
  <time>2026-08-28T19:10:33Z</time>
  <course>77.02</course>
  <speed>0.48</speed>
  <fix>3d</fix>
</trkpt>
<trkpt lat="40.0728036" lon="-105.2306265">
  <ele>1595.68</ele>
  <time>2026-08-28T19:10:33Z</time>
  <course>8.52</course>
  <speed>0.212602916254693</speed>
  <fix>3d</fix>
</trkpt>
<trkpt lat="40.0728036" lon="-105.2306269">
  <ele>1595.57</ele>
  <time>2026-08-28T19:10:33Z</time>
  <course>62.67</course>
  <speed>0.32</speed>
  <fix>3d</fix>
</trkpt>
<trkpt lat="40.0728039" lon="-105.2306264">
  <ele>1595.68</ele>
  <time>2026-08-28T19:10:33Z</time>
  <course>8.52</course>
  <speed>0.20248456731316586</speed>
  <fix>3d</fix>
</trkpt>
<trkpt lat="40.0728038" lon="-105.2306265">
  <ele>1595.58</ele>
  <time>2026-08-28T19:10:33Z</time>
  <course>23.85</course>
  <speed>0.19</speed>
  <fix>3d</fix>
</trkpt>
<trkpt lat="40.0728043" lon="-105.2306267">
  <ele>1595.68</ele>
  <time>2026-08-28T19:10:33Z</time>
  <course>8.52</course>
  <speed>0.3522782990761707</speed>
  <fix>3d</fix>
</trkpt>
<trkpt lat="40.0728042" lon="-105.2306265">
  <ele>1595.58</ele>
  <time>2026-08-28T19:10:33Z</time>
  <course>324.04</course>
  <speed>0.24</speed>
  <fix>3d</fix>
</trkpt>
<trkpt lat="40.0728047" lon="-105.2306276">
  <ele>1595.68</ele>
  <time>2026-08-28T19:10:33Z</time>
  <course>8.49</course>
  <speed>0.5069516742254631</speed>
  <fix>3d</fix>
</trkpt>
<trkpt lat="40.0728046" lon="-105.230627">
  <ele>1595.58</ele>
  <time>2026-08-28T19:10:33Z</time>
  <course>298.74</course>
  <speed>0.4</speed>
  <fix>3d</fix>
</trkpt>
<trkpt lat="40.072805" lon="-105.2306289">
  <ele>1595.68</ele>
  <time>2026-08-28T19:10:33Z</time>
  <course>8.42</course>
  <speed>0.6403124237432849</speed>
  <fix>3d</fix>
</trkpt>
<trkpt lat="40.0728049" lon="-105.230628">
  <ele>1595.58</ele>
  <time>2026-08-28T19:10:33Z</time>
  <course>288.1</course>
  <speed>0.56</speed>
  <fix>3d</fix>
</trkpt>
<trkpt lat="40.0728053" lon="-105.2306305">
  <ele>1595.68</ele>
  <time>2026-08-28T19:10:33Z</time>
  <course>8.43</course>
  <speed>0.708590149522275</speed>
  <fix>3d</fix>
</trkpt>
<trkpt lat="40.0728052" lon="-105.2306294">
  <ele>1595.58</ele>
  <time>2026-08-28T19:10:33Z</time>
  <course>281.8</course>
  <speed>0.67</speed>
  <fix>3d</fix>
</trkpt>
<trkpt lat="40.0728054" lon="-105.2306321">
  <ele>1595.69</ele>
  <time>2026-08-28T19:10:33Z</time>
  <course>8.48</course>
  <speed>0.7117583859709699</speed>
  <fix>3d</fix>
</trkpt>
<trkpt lat="40.0728054" lon="-105.2306311">
  <ele>1595.58</ele>
  <time>2026-08-28T19:10:33Z</time>
  <course>277.02</course>
  <speed>0.73</speed>
  <fix>3d</fix>
</trkpt>
<trkpt lat="40.0728055" lon="-105.2306338">
  <ele>1595.7</ele>
  <time>2026-08-28T19:10:33Z</time>
  <course>8.61</course>
  <speed>0.65</speed>
  <fix>3d</fix>
</trkpt>
<trkpt lat="40.0728055" lon="-105.2306328">
  <ele>1595.58</ele>
  <time>2026-08-28T19:10:33Z</time>
  <course>272.63</course>
  <speed>0.72</speed>
  <fix>3d</fix>
</trkpt>
<trkpt lat="40.0728054" lon="-105.2306352">
  <ele>1595.7</ele>
  <time>2026-08-28T19:10:33Z</time>
  <course>8.71</course>
  <speed>0.5333854141237835</speed>
  <fix>3d</fix>
</trkpt>
<trkpt lat="40.0728055" lon="-105.2306345">
  <ele>1595.59</ele>
  <time>2026-08-28T19:10:33Z</time>
  <course>267.75</course>
  <speed>0.65</speed>
  <fix>3d</fix>
</trkpt>
<trkpt lat="40.0728052" lon="-105.2306363">
  <ele>1595.71</ele>
  <time>2026-08-28T19:10:33Z</time>
  <course>8.77</course>
  <speed>0.37</speed>
  <fix>3d</fix>
</trkpt>
<trkpt lat="40.0728054" lon="-105.2306358">
  <ele>1595.59</ele>
  <time>2026-08-28T19:10:33Z</time>
  <course>261.1</course>
  <speed>0.52</speed>
  <fix>3d</fix>
</trkpt>
<trkpt lat="40.072805" lon="-105.2306369">
  <ele>1595.71</ele>
  <time>2026-08-28T19:10:33Z</time>
  <course>8.76</course>
  <speed>0.22022715545545238</speed>
  <fix>3d</fix>
</trkpt>
<trkpt lat="40.0728053" lon="-105.2306368">
  <ele>1595.59</ele>
  <time>2026-08-28T19:10:33Z</time>
  <course>249.04</course>
  <speed>0.35</speed>
  <fix>3d</fix>
</trkpt>
<trkpt lat="40.0728047" lon="-105.2306371">
  <ele>1595.7</ele>
  <time>2026-08-28T19:10:33Z</time>
  <course>8.66</course>
  <speed>0.21189620100417092</speed>
  <fix>3d</fix>
</trkpt>
<trkpt lat="40.072805" lon="-105.2306374">
  <ele>1595.59</ele>
  <time>2026-08-28T19:10:33Z</time>
  <course>216.05</course>
  <speed>0.19</speed>
  <fix>3d</fix>
</trkpt>
<trkpt lat="40.0728044" lon="-105.2306368">
  <ele>1595.7</ele>
  <time>2026-08-28T19:10:33Z</time>
  <course>8.55</course>
  <speed>0.3522782990761707</speed>
  <fix>3d</fix>
</trkpt>
<trkpt lat="40.0728047" lon="-105.2306374">
  <ele>1595.58</ele>
  <time>2026-08-28T19:10:33Z</time>
  <course>148.27</course>
  <speed>0.2</speed>
  <fix>3d</fix>
</trkpt>
<trkpt lat="40.0728041" lon="-105.230636">
  <ele>1595.7</ele>
  <time>2026-08-28T19:10:33Z</time>
  <course>8.41</course>
  <speed>0.5162363799656123</speed>
  <fix>3d</fix>
</trkpt>
<trkpt lat="40.0728044" lon="-105.2306369">
  <ele>1595.58</ele>
  <time>2026-08-28T19:10:33Z</time>
  <course>118.22</course>
  <speed>0.36</speed>
  <fix>3d</fix>
</trkpt>
<trkpt lat="40.0728038" lon="-105.2306348">
  <ele>1595.69</ele>
  <time>2026-08-28T19:10:33Z</time>
  <course>8.31</course>
  <speed>0.65</speed>
  <fix>3d</fix>
</trkpt>
<trkpt lat="40.0728041" lon="-105.230636">
  <ele>1595.57</ele>
  <time>2026-08-28T19:10:33Z</time>
  <course>106.76</course>
  <speed>0.52</speed>
  <fix>3d</fix>
</trkpt>
<trkpt lat="40.0728036" lon="-105.2306333">
  <ele>1595.68</ele>
  <time>2026-08-28T19:10:33Z</time>
  <course>8.28</course>
  <speed>0.7184705978674423</speed>
  <fix>3d</fix>
</trkpt>
<trkpt lat="40.0728038" lon="-105.2306347">
  <ele>1595.56</ele>
  <time>2026-08-28T19:10:33Z</time>
  <course>100.18</course>
  <speed>0.64</speed>
  <fix>3d</fix>
</trkpt>
<trkpt lat="40.0728035" lon="-105.2306317">
  <ele>1595.68</ele>
  <time>2026-08-28T19:10:33Z</time>
  <course>8.29</course>
  <speed>0.7217340230306452</speed>
  <fix>3d</fix>
</trkpt>
<trkpt lat="40.0728037" lon="-105.2306331">
  <ele>1595.56</ele>
  <time>2026-08-28T19:10:33Z</time>
  <course>95.13</course>
  <speed>0.7</speed>
  <fix>3d</fix>
</trkpt>
<trkpt lat="40.0728035" lon="-105.2306301">
  <ele>1595.68</ele>
  <time>2026-08-28T19:10:33Z</time>
  <course>8.34</course>
  <speed>0.66</speed>
  <fix>3d</fix>
</trkpt>
<trkpt lat="40.0728037" lon="-105.2306314">
  <ele>1595.56</ele>
  <time>2026-08-28T19:10:33Z</time>
  <course>90.32</course>
  <speed>0.69</speed>
  <fix>3d</fix>
</trkpt>
<trkpt lat="40.0728036" lon="-105.2306287">
  <ele>1595.68</ele>
  <time>2026-08-28T19:10:33Z</time>
  <course>8.41</course>
  <speed>0.5445181356024793</speed>
  <fix>3d</fix>
</trkpt>
<trkpt lat="40.0728037" lon="-105.2306299">
  <ele>1595.56</ele>
  <time>2026-08-28T19:10:33Z</time>
  <course>84.75</course>
  <speed>0.62</speed>
  <fix>3d</fix>
</trkpt>
<trkpt lat="40.0728038" lon="-105.2306277">
  <ele>1595.68</ele>
  <time>2026-08-28T19:10:33Z</time>
  <course>8.51</course>
  <speed>0.3921734310225516</speed>
  <fix>3d</fix>
</trkpt>
<trkpt lat="40.0728038" lon="-105.2306285">
  <ele>1595.56</ele>
  <time>2026-08-28T19:10:33Z</time>
  <course>76.78</course>
  <speed>0.5</speed>
  <fix>3d</fix>
</trkpt>
<trkpt lat="40.0728041" lon="-105.2306271">
  <ele>1595.68</ele>
  <time>2026-08-28T19:10:33Z</time>
  <course>8.54</course>
  <speed>0.24083189157584592</speed>
  <fix>3d</fix>
</trkpt>
<trkpt lat="40.072804" lon="-105.2306276">
  <ele>1595.56</ele>
  <time>2026-08-28T19:10:33Z</time>
  <course>61.94</course>
  <speed>0.34</speed>
  <fix>3d</fix>
</trkpt>
<trkpt lat="40.0728045" lon="-105.2306269">
  <ele>1595.67</ele>
  <time>2026-08-28T19:10:33Z</time>
  <course>8.54</course>
  <speed>0.21840329667841554</speed>
  <fix>3d</fix>
</trkpt>
<trkpt lat="40.0728043" lon="-105.2306271">
  <ele>1595.56</ele>
  <time>2026-08-28T19:10:33Z</time>
  <course>25.1</course>
  <speed>0.21</speed>
  <fix>3d</fix>
</trkpt>
<trkpt lat="40.0728049" lon="-105.2306273">
  <ele>1595.68</ele>
  <time>2026-08-28T19:10:33Z</time>
  <course>8.48</course>
  <speed>0.35608987629529715</speed>
  <fix>3d</fix>
</trkpt>
<trkpt lat="40.0728048" lon="-105.2306271">
  <ele>1595.56</ele>
  <time>2026-08-28T19:10:33Z</time>
  <course>328.47</course>
  <speed>0.25</speed>
  <fix>3d</fix>
</trkpt>
<trkpt lat="40.0728053" lon="-105.2306282">
  <ele>1595.68</ele>
  <time>2026-08-28T19:10:33Z</time>
  <course>8.42</course>
  <speed>0.5107837115648853</speed>
  <fix>3d</fix>
</trkpt>
<trkpt lat="40.0728051" lon="-105.2306276">
  <ele>1595.56</ele>
  <time>2026-08-28T19:10:33Z</time>
  <course>301.66</course>
  <speed>0.4</speed>
  <fix>3d</fix>
</trkpt>
<trkpt lat="40.0728056" lon="-105.2306295">
  <ele>1595.67</ele>
  <time>2026-08-28T19:10:33Z</time>
  <course>8.41</course>
  <speed>0.6332456079595026</speed>
  <fix>3d</fix>
</trkpt>
<trkpt lat="40.0728055" lon="-105.2306286">
  <ele>1595.56</ele>
  <time>2026-08-28T19:10:33Z</time>
  <course>290.05</course>
  <speed>0.56</speed>
  <fix>3d</fix>
</trkpt>
<trkpt lat="40.0728059" lon="-105.230631">
  <ele>1595.67</ele>
  <time>2026-08-28T19:10:33Z</time>
  <course>8.44</course>
  <speed>0.7102112361825881</speed>
  <fix>3d</fix>
</trkpt>
<trkpt lat="40.0728058" lon="-105.23063">
  <ele>1595.57</ele>
  <time>2026-08-28T19:10:33Z</time>
  <course>283.21</course>
  <speed>0.68</speed>
  <fix>3d</fix>
</trkpt>
<trkpt lat="40.0728061" lon="-105.2306327">
  <ele>1595.67</ele>
  <time>2026-08-28T19:10:33Z</time>
  <course>8.48</course>
  <speed>0.7125307010929425</speed>
  <fix>3d</fix>
</trkpt>
<trkpt lat="40.072806" lon="-105.2306317">
  <ele>1595.57</ele>
  <time>2026-08-28T19:10:33Z</time>
  <course>278.11</course>
  <speed>0.73</speed>
  <fix>3d</fix>
</trkpt>
<trkpt lat="40.0728061" lon="-105.2306343">
  <ele>1595.68</ele>
  <time>2026-08-28T19:10:33Z</time>
  <course>8.55</course>
  <speed>0.65</speed>
  <fix>3d</fix>
</trkpt>
<trkpt lat="40.0728061" lon="-105.2306335">
  <ele>1595.57</ele>
  <time>2026-08-28T19:10:33Z</time>
  <course>273.47</course>
  <speed>0.73</speed>
  <fix>3d</fix>
</trkpt>
<trkpt lat="40.0728061" lon="-105.2306358">
  <ele>1595.68</ele>
  <time>2026-08-28T19:10:33Z</time>
  <course>8.68</course>
  <speed>0.5333854141237835</speed>
  <fix>3d</fix>
</trkpt>
<trkpt lat="40.0728061" lon="-105.2306351">
  <ele>1595.58</ele>
  <time>2026-08-28T19:10:33Z</time>
  <course>268.42</course>
  <speed>0.65</speed>
  <fix>3d</fix>
</trkpt>
<trkpt lat="40.072806" lon="-105.2306369">
  <ele>1595.69</ele>
  <time>2026-08-28T19:10:33Z</time>
  <course>8.71</course>
  <speed>0.37947331922020555</speed>
  <fix>3d</fix>
</trkpt>
<trkpt lat="40.0728061" lon="-105.2306365">
  <ele>1595.58</ele>
  <time>2026-08-28T19:10:33Z</time>
  <course>261.63</course>
  <speed>0.52</speed>
  <fix>3d</fix>
</trkpt>
<trkpt lat="40.0728057" lon="-105.2306376">
  <ele>1595.68</ele>
  <time>2026-08-28T19:10:33Z</time>
  <course>8.71</course>
  <speed>0.22671568097509268</speed>
  <fix>3d</fix>
</trkpt>
<trkpt lat="40.072806" lon="-105.2306376">
  <ele>1595.59</ele>
  <time>2026-08-28T19:10:33Z</time>
  <course>249.48</course>
  <speed>0.36</speed>
  <fix>3d</fix>
</trkpt>
<trkpt lat="40.0728054" lon="-105.2306379">
  <ele>1595.68</ele>
  <time>2026-08-28T19:10:33Z</time>
  <course>8.63</course>
  <speed>0.21189620100417092</speed>
  <fix>3d</fix>
</trkpt>
<trkpt lat="40.0728057" lon="-105.230638">
  <ele>1595.59</ele>
  <time>2026-08-28T19:10:33Z</time>
  <course>217.13</course>
  <speed>0.2</speed>
  <fix>3d</fix>
</trkpt>
<trkpt lat="40.0728051" lon="-105.2306375">
  <ele>1595.68</ele>
  <time>2026-08-28T19:10:33Z</time>
  <course>8.51</course>
  <speed>0.35805027579936316</speed>
  <fix>3d</fix>
</trkpt>
<trkpt lat="40.0728054" lon="-105.230638">
  <ele>1595.59</ele>
  <time>2026-08-28T19:10:33Z</time>
  <course>150.02</course>
  <speed>0.2</speed>
  <fix>3d</fix>
</trkpt>
<trkpt lat="40.0728047" lon="-105.2306367">
  <ele>1595.68</ele>
  <time>2026-08-28T19:10:33Z</time>
  <course>8.38</course>
  <speed>0.52</speed>
  <fix>3d</fix>
</trkpt>
<trkpt lat="40.0728051" lon="-105.2306376">
  <ele>1595.59</ele>
  <time>2026-08-28T19:10:33Z</time>
  <course>119.11</course>
  <speed>0.36</speed>
  <fix>3d</fix>
</trkpt>
<trkpt lat="40.0728045" lon="-105.2306355">
  <ele>1595.67</ele>
  <time>2026-08-28T19:10:33Z</time>
  <course>8.28</course>
  <speed>0.6428841264178172</speed>
  <fix>3d</fix>
</trkpt>
<trkpt lat="40.0728048" lon="-105.2306367">
  <ele>1595.59</ele>
  <time>2026-08-28T19:10:33Z</time>
  <course>107.3</course>
  <speed>0.52</speed>
  <fix>3d</fix>
</trkpt>
<trkpt lat="40.0728042" lon="-105.230634">
  <ele>1595.67</ele>
  <time>2026-08-28T19:10:33Z</time>
  <course>8.26</course>
  <speed>0.7102112361825881</speed>
  <fix>3d</fix>
</trkpt>
<trkpt lat="40.0728046" lon="-105.2306354">
  <ele>1595.59</ele>
  <time>2026-08-28T19:10:33Z</time>
  <course>100.52</course>
  <speed>0.64</speed>
  <fix>3d</fix>
</trkpt>
<trkpt lat="40.0728041" lon="-105.2306324">
  <ele>1595.67</ele>
  <time>2026-08-28T19:10:33Z</time>
  <course>8.3</course>
  <speed>0.7217340230306452</speed>
  <fix>3d</fix>
</trkpt>
<trkpt lat="40.0728044" lon="-105.2306338">
  <ele>1595.59</ele>
  <time>2026-08-28T19:10:33Z</time>
  <course>95.35</course>
  <speed>0.7</speed>
  <fix>3d</fix>
</trkpt>
<trkpt lat="40.0728042" lon="-105.2306308">
  <ele>1595.68</ele>
  <time>2026-08-28T19:10:33Z</time>
  <course>8.35</course>
  <speed>0.66</speed>
  <fix>3d</fix>
</trkpt>
<trkpt lat="40.0728043" lon="-105.2306321">
  <ele>1595.59</ele>
  <time>2026-08-28T19:10:33Z</time>
  <course>90.44</course>
  <speed>0.69</speed>
  <fix>3d</fix>
</trkpt>
<trkpt lat="40.0728043" lon="-105.2306295">
  <ele>1595.68</ele>
  <time>2026-08-28T19:10:33Z</time>
  <course>8.43</course>
  <speed>0.5445181356024793</speed>
  <fix>3d</fix>
</trkpt>
<trkpt lat="40.0728044" lon="-105.2306306">
  <ele>1595.59</ele>
  <time>2026-08-28T19:10:33Z</time>
  <course>84.77</course>
  <speed>0.62</speed>
  <fix>3d</fix>
</trkpt>
<trkpt lat="40.0728044" lon="-105.2306284">
  <ele>1595.68</ele>
  <time>2026-08-28T19:10:33Z</time>
  <course>8.49</course>
  <speed>0.3921734310225516</speed>
  <fix>3d</fix>
</trkpt>
<trkpt lat="40.0728045" lon="-105.2306293">
  <ele>1595.6</ele>
  <time>2026-08-28T19:10:33Z</time>
  <course>76.73</course>
  <speed>0.5</speed>
  <fix>3d</fix>
</trkpt>
<trkpt lat="40.0728048" lon="-105.2306278">
  <ele>1595.69</ele>
  <time>2026-08-28T19:10:33Z</time>
  <course>8.56</course>
  <speed>0.24083189157584592</speed>
  <fix>3d</fix>
</trkpt>
<trkpt lat="40.0728047" lon="-105.2306283">
  <ele>1595.6</ele>
  <time>2026-08-28T19:10:33Z</time>
  <course>61.82</course>
  <speed>0.35</speed>
  <fix>3d</fix>
</trkpt>
<trkpt lat="40.0728052" lon="-105.2306277">
  <ele>1595.69</ele>
  <time>2026-08-28T19:10:33Z</time>
  <course>8.56</course>
  <speed>0.21840329667841554</speed>
  <fix>3d</fix>
</trkpt>
<trkpt lat="40.072805" lon="-105.2306278">
  <ele>1595.6</ele>
  <time>2026-08-28T19:10:33Z</time>
  <course>25.34</course>
  <speed>0.22</speed>
  <fix>3d</fix>
</trkpt>
<trkpt lat="40.0728056" lon="-105.230628">
  <ele>1595.68</ele>
  <time>2026-08-28T19:10:33Z</time>
  <course>8.54</course>
  <speed>0.35608987629529715</speed>
  <fix>3d</fix>
</trkpt>
<trkpt lat="40.0728055" lon="-105.2306278">
  <ele>1595.61</ele>
  <time>2026-08-28T19:10:33Z</time>
  <course>329.46</course>
  <speed>0.25</speed>
  <fix>3d</fix>
</trkpt>
<trkpt lat="40.072806" lon="-105.2306289">
  <ele>1595.68</ele>
  <time>2026-08-28T19:10:33Z</time>
  <course>8.46</course>
  <speed>0.51478150704935</speed>
  <fix>3d</fix>
</trkpt>
<trkpt lat="40.0728059" lon="-105.2306283">
  <ele>1595.61</ele>
  <time>2026-08-28T19:10:33Z</time>
  <course>302.4</course>
  <speed>0.4</speed>
  <fix>3d</fix>
</trkpt>
<trkpt lat="40.0728064" lon="-105.2306302">
  <ele>1595.68</ele>
  <time>2026-08-28T19:10:33Z</time>
  <course>8.45</course>
  <speed>0.6360031446463138</speed>
  <fix>3d</fix>
</trkpt>
<trkpt lat="40.0728062" lon="-105.2306294">
  <ele>1595.61</ele>
  <time>2026-08-28T19:10:33Z</time>
  <course>290.57</course>
  <speed>0.56</speed>
  <fix>3d</fix>
</trkpt>
<trkpt lat="40.0728066" lon="-105.2306318">
  <ele>1595.68</ele>
  <time>2026-08-28T19:10:33Z</time>
  <course>8.45</course>
  <speed>0.7119691004531025</speed>
  <fix>3d</fix>
</trkpt>
<trkpt lat="40.0728065" lon="-105.2306308">
  <ele>1595.61</ele>
  <time>2026-08-28T19:10:33Z</time>
  <course>283.62</course>
  <speed>0.67</speed>
  <fix>3d</fix>
</trkpt>
<trkpt lat="40.0728068" lon="-105.2306335">
  <ele>1595.69</ele>
  <time>2026-08-28T19:10:33Z</time>
  <course>8.55</course>
  <speed>0.7125307010929425</speed>
  <fix>3d</fix>
</trkpt>
<trkpt lat="40.0728067" lon="-105.2306324">
  <ele>1595.61</ele>
  <time>2026-08-28T19:10:33Z</time>
  <course>278.44</course>
  <speed>0.73</speed>
  <fix>3d</fix>
</trkpt>
<trkpt lat="40.0728069" lon="-105.2306351">
  <ele>1595.69</ele>
  <time>2026-08-28T19:10:33Z</time>
  <course>8.66</course>
  <speed>0.65</speed>
  <fix>3d</fix>
</trkpt>
<trkpt lat="40.0728069" lon="-105.2306341">
  <ele>1595.61</ele>
  <time>2026-08-28T19:10:33Z</time>
  <course>273.76</course>
  <speed>0.72</speed>
  <fix>3d</fix>
</trkpt>
<trkpt lat="40.0728068" lon="-105.2306365">
  <ele>1595.69</ele>
  <time>2026-08-28T19:10:33Z</time>
  <course>8.72</course>
  <speed>0.5333854141237835</speed>
  <fix>3d</fix>
</trkpt>
<trkpt lat="40.0728069" lon="-105.2306357">
  <ele>1595.61</ele>
  <time>2026-08-28T19:10:33Z</time>
  <course>268.66</course>
  <speed>0.65</speed>
  <fix>3d</fix>
</trkpt>
<trkpt lat="40.0728067" lon="-105.2306376">
  <ele>1595.7</ele>
  <time>2026-08-28T19:10:33Z</time>
  <course>8.75</course>
  <speed>0.37947331922020555</speed>
  <fix>3d</fix>
</trkpt>
<trkpt lat="40.0728068" lon="-105.2306371">
  <ele>1595.62</ele>
  <time>2026-08-28T19:10:33Z</time>
  <course>261.84</course>
  <speed>0.52</speed>
  <fix>3d</fix>
</trkpt>
<trkpt lat="40.0728065" lon="-105.2306383">
  <ele>1595.7</ele>
  <time>2026-08-28T19:10:33Z</time>
  <course>8.73</course>
  <speed>0.22022715545545238</speed>
  <fix>3d</fix>
</trkpt>
<trkpt lat="40.0728067" lon="-105.2306381">
  <ele>1595.62</ele>
  <time>2026-08-28T19:10:33Z</time>
  <course>249.6</course>
  <speed>0.35</speed>
  <fix>3d</fix>
</trkpt>
<trkpt lat="40.0728062" lon="-105.2306384">
  <ele>1595.7</ele>
  <time>2026-08-28T19:10:33Z</time>
  <course>8.65</course>
  <speed>0.21189620100417092</speed>
  <fix>3d</fix>
</trkpt>
<trkpt lat="40.0728065" lon="-105.2306386">
  <ele>1595.62</ele>
  <time>2026-08-28T19:10:33Z</time>
  <course>216.2</course>
  <speed>0.19</speed>
  <fix>3d</fix>
</trkpt>
<trkpt lat="40.0728058" lon="-105.2306382">
  <ele>1595.69</ele>
  <time>2026-08-28T19:10:33Z</time>
  <course>8.55</course>
  <speed>0.35805027579936316</speed>
  <fix>3d</fix>
</trkpt>
<trkpt lat="40.0728062" lon="-105.2306386">
  <ele>1595.62</ele>
  <time>2026-08-28T19:10:33Z</time>
  <course>147.97</course>
  <speed>0.2</speed>
  <fix>3d</fix>
</trkpt>
<trkpt lat="40.0728055" lon="-105.2306373">
  <ele>1595.69</ele>
  <time>2026-08-28T19:10:33Z</time>
  <course>8.43</course>
  <speed>0.52</speed>
  <fix>3d</fix>
</trkpt>
<trkpt lat="40.0728059" lon="-105.2306382">
  <ele>1595.61</ele>
  <time>2026-08-28T19:10:33Z</time>
  <course>118.21</course>
  <speed>0.36</speed>
  <fix>3d</fix>
</trkpt>
<trkpt lat="40.0728052" lon="-105.2306361">
  <ele>1595.69</ele>
  <time>2026-08-28T19:10:33Z</time>
  <course>8.34</course>
  <speed>0.6403124237432849</speed>
  <fix>3d</fix>
</trkpt>
<trkpt lat="40.0728056" lon="-105.2306372">
  <ele>1595.61</ele>
  <time>2026-08-28T19:10:33Z</time>
  <course>106.85</course>
  <speed>0.52</speed>
  <fix>3d</fix>
</trkpt>
<trkpt lat="40.072805" lon="-105.2306346">
  <ele>1595.69</ele>
  <time>2026-08-28T19:10:33Z</time>
  <course>8.3</course>
  <speed>0.7200694410957876</speed>
  <fix>3d</fix>
</trkpt>
<trkpt lat="40.0728054" lon="-105.2306359">
  <ele>1595.61</ele>
  <time>2026-08-28T19:10:33Z</time>
  <course>100.29</course>
  <speed>0.64</speed>
  <fix>3d</fix>
</trkpt>
<trkpt lat="40.072805" lon="-105.230633">
  <ele>1595.69</ele>
  <time>2026-08-28T19:10:33Z</time>
  <course>8.33</course>
  <speed>0.7217340230306452</speed>
  <fix>3d</fix>
</trkpt>
<trkpt lat="40.0728052" lon="-105.2306343">
  <ele>1595.6</ele>
  <time>2026-08-28T19:10:33Z</time>
  <course>95.25</course>
  <speed>0.7</speed>
  <fix>3d</fix>
</trkpt>
<trkpt lat="40.072805" lon="-105.2306314">
  <ele>1595.69</ele>
  <time>2026-08-28T19:10:33Z</time>
  <course>8.39</course>
  <speed>0.66</speed>
  <fix>3d</fix>
</trkpt>
<trkpt lat="40.0728052" lon="-105.2306326">
  <ele>1595.6</ele>
  <time>2026-08-28T19:10:33Z</time>
  <course>90.46</course>
  <speed>0.7</speed>
  <fix>3d</fix>
</trkpt>
<trkpt lat="40.072805" lon="-105.23063">
  <ele>1595.69</ele>
  <time>2026-08-28T19:10:33Z</time>
  <course>8.43</course>
  <speed>0.5445181356024793</speed>
  <fix>3d</fix>
</trkpt>
<trkpt lat="40.0728052" lon="-105.230631">
  <ele>1595.6</ele>
  <time>2026-08-28T19:10:33Z</time>
  <course>84.91</course>
  <speed>0.63</speed>
  <fix>3d</fix>
</trkpt>
<trkpt lat="40.0728053" lon="-105.230629">
  <ele>1595.69</ele>
  <time>2026-08-28T19:10:33Z</time>
  <course>8.51</course>
  <speed>0.3921734310225516</speed>
  <fix>3d</fix>
</trkpt>
<trkpt lat="40.0728053" lon="-105.2306297">
  <ele>1595.6</ele>
  <time>2026-08-28T19:10:33Z</time>
  <course>77.0</course>
  <speed>0.51</speed>
  <fix>3d</fix>
</trkpt>
<trkpt lat="40.0728056" lon="-105.2306283">
  <ele>1595.69</ele>
  <time>2026-08-28T19:10:33Z</time>
  <course>8.58</course>
  <speed>0.24083189157584592</speed>
  <fix>3d</fix>
</trkpt>
<trkpt lat="40.0728055" lon="-105.2306288">
  <ele>1595.6</ele>
  <time>2026-08-28T19:10:33Z</time>
  <course>62.39</course>
  <speed>0.35</speed>
  <fix>3d</fix>
</trkpt>
<trkpt lat="40.072806" lon="-105.2306282">
  <ele>1595.69</ele>
  <time>2026-08-28T19:10:33Z</time>
  <course>8.58</course>
  <speed>0.21840329667841554</speed>
  <fix>3d</fix>
</trkpt>
<trkpt lat="40.0728058" lon="-105.2306283">
  <ele>1595.6</ele>
  <time>2026-08-28T19:10:33Z</time>
  <course>26.39</course>
  <speed>0.22</speed>
  <fix>3d</fix>
</trkpt>
<trkpt lat="40.0728064" lon="-105.2306285">
  <ele>1595.69</ele>
  <time>2026-08-28T19:10:33Z</time>
  <course>8.56</course>
  <speed>0.35608987629529715</speed>
  <fix>3d</fix>
</trkpt>
<trkpt lat="40.0728062" lon="-105.2306283">
  <ele>1595.6</ele>
  <time>2026-08-28T19:10:33Z</time>
  <course>329.77</course>
  <speed>0.25</speed>
  <fix>3d</fix>
</trkpt>
<trkpt lat="40.0728068" lon="-105.2306294">
  <ele>1595.68</ele>
  <time>2026-08-28T19:10:33Z</time>
  <course>8.52</course>
  <speed>0.51478150704935</speed>
  <fix>3d</fix>
</trkpt>
<trkpt lat="40.0728065" lon="-105.2306288">
  <ele>1595.6</ele>
  <time>2026-08-28T19:10:33Z</time>
  <course>302.34</course>
  <speed>0.4</speed>
  <fix>3d</fix>
</trkpt>
<trkpt lat="40.0728071" lon="-105.2306307">
  <ele>1595.68</ele>
  <time>2026-08-28T19:10:33Z</time>
  <course>8.48</course>
  <speed>0.6332456079595026</speed>
  <fix>3d</fix>
</trkpt>
<trkpt lat="40.072807" lon="-105.2306298">
  <ele>1595.6</ele>
  <time>2026-08-28T19:10:33Z</time>
  <course>290.49</course>
  <speed>0.55</speed>
  <fix>3d</fix>
</trkpt>
<trkpt lat="40.0728074" lon="-105.2306322">
  <ele>1595.67</ele>
  <time>2026-08-28T19:10:33Z</time>
  <course>8.47</course>
  <speed>0.7102112361825881</speed>
  <fix>3d</fix>
</trkpt>
<trkpt lat="40.0728072" lon="-105.2306312">
  <ele>1595.6</ele>
  <time>2026-08-28T19:10:33Z</time>
  <course>283.55</course>
  <speed>0.67</speed>
  <fix>3d</fix>
</trkpt>
<trkpt lat="40.0728076" lon="-105.2306339">
  <ele>1595.68</ele>
  <time>2026-08-28T19:10:33Z</time>
  <course>8.51</course>
  <speed>0.7125307010929425</speed>
  <fix>3d</fix>
</trkpt>
<trkpt lat="40.0728074" lon="-105.2306328">
  <ele>1595.6</ele>
  <time>2026-08-28T19:10:33Z</time>
  <course>278.39</course>
  <speed>0.73</speed>
  <fix>3d</fix>
</trkpt>
<trkpt lat="40.0728076" lon="-105.2306355">
  <ele>1595.68</ele>
  <time>2026-08-28T19:10:33Z</time>
  <course>8.57</course>
  <speed>0.65</speed>
  <fix>3d</fix>
</trkpt>
<trkpt lat="40.0728076" lon="-105.2306345">
  <ele>1595.6</ele>
  <time>2026-08-28T19:10:33Z</time>
  <course>273.75</course>
  <speed>0.72</speed>
  <fix>3d</fix>
</trkpt>
<trkpt lat="40.0728076" lon="-105.230637">
  <ele>1595.69</ele>
  <time>2026-08-28T19:10:33Z</time>
  <course>8.7</course>
  <speed>0.5333854141237835</speed>
  <fix>3d</fix>
</trkpt>
<trkpt lat="40.0728077" lon="-105.2306361">
  <ele>1595.6</ele>
  <time>2026-08-28T19:10:33Z</time>
  <course>268.71</course>
  <speed>0.65</speed>
  <fix>3d</fix>
</trkpt>
<trkpt lat="40.0728075" lon="-105.2306381">
  <ele>1595.69</ele>
  <time>2026-08-28T19:10:33Z</time>
  <course>8.75</course>
  <speed>0.37947331922020555</speed>
  <fix>3d</fix>
</trkpt>
<trkpt lat="40.0728076" lon="-105.2306376">
  <ele>1595.61</ele>
  <time>2026-08-28T19:10:33Z</time>
  <course>261.93</course>
  <speed>0.52</speed>
  <fix>3d</fix>
</trkpt>
<trkpt lat="40.0728072" lon="-105.2306387">
  <ele>1595.69</ele>
  <time>2026-08-28T19:10:33Z</time>
  <course>8.72</course>
  <speed>0.22671568097509268</speed>
  <fix>3d</fix>
</trkpt>
<trkpt lat="40.0728074" lon="-105.2306385">
  <ele>1595.61</ele>
  <time>2026-08-28T19:10:33Z</time>
  <course>249.79</course>
  <speed>0.35</speed>
  <fix>3d</fix>
</trkpt>
<trkpt lat="40.0728069" lon="-105.2306389">
  <ele>1595.7</ele>
  <time>2026-08-28T19:10:33Z</time>
  <course>8.65</course>
  <speed>0.21189620100417092</speed>
  <fix>3d</fix>
</trkpt>
<trkpt lat="40.0728072" lon="-105.2306391">
  <ele>1595.62</ele>
  <time>2026-08-28T19:10:33Z</time>
  <course>217.01</course>
  <speed>0.19</speed>
  <fix>3d</fix>
</trkpt>
<trkpt lat="40.0728066" lon="-105.2306386">
  <ele>1595.7</ele>
  <time>2026-08-28T19:10:33Z</time>
  <course>8.56</course>
  <speed>0.35805027579936316</speed>
  <fix>3d</fix>
</trkpt>
<trkpt lat="40.072807" lon="-105.2306391">
  <ele>1595.61</ele>
  <time>2026-08-28T19:10:33Z</time>
  <course>149.03</course>
  <speed>0.2</speed>
  <fix>3d</fix>
</trkpt>
<trkpt lat="40.0728062" lon="-105.2306378">
  <ele>1595.69</ele>
  <time>2026-08-28T19:10:33Z</time>
  <course>8.43</course>
  <speed>0.52</speed>
  <fix>3d</fix>
</trkpt>
<trkpt lat="40.0728066" lon="-105.2306386">
  <ele>1595.61</ele>
  <time>2026-08-28T19:10:33Z</time>
  <course>118.63</course>
  <speed>0.36</speed>
  <fix>3d</fix>
</trkpt>
<trkpt lat="40.072806" lon="-105.2306365">
  <ele>1595.69</ele>
  <time>2026-08-28T19:10:33Z</time>
  <course>8.35</course>
  <speed>0.6428841264178172</speed>
  <fix>3d</fix>
</trkpt>
<trkpt lat="40.0728063" lon="-105.2306377">
  <ele>1595.61</ele>
  <time>2026-08-28T19:10:33Z</time>
  <course>107.04</course>
  <speed>0.52</speed>
  <fix>3d</fix>
</trkpt>
<trkpt lat="40.0728058" lon="-105.230635">
  <ele>1595.68</ele>
  <time>2026-08-28T19:10:33Z</time>
  <course>8.32</course>
  <speed>0.7200694410957876</speed>
  <fix>3d</fix>
</trkpt>
<trkpt lat="40.072806" lon="-105.2306364">
  <ele>1595.6</ele>
  <time>2026-08-28T19:10:33Z</time>
  <course>100.37</course>
  <speed>0.64</speed>
  <fix>3d</fix>
</trkpt>
<trkpt lat="40.0728057" lon="-105.2306334">
  <ele>1595.68</ele>
  <time>2026-08-28T19:10:33Z</time>
  <course>8.33</course>
  <speed>0.7224956747275377</speed>
  <fix>3d</fix>
</trkpt>
<trkpt lat="40.0728059" lon="-105.2306348">
  <ele>1595.6</ele>
  <time>2026-08-28T19:10:33Z</time>
  <course>95.25</course>
  <speed>0.7</speed>
  <fix>3d</fix>
</trkpt>
<trkpt lat="40.0728057" lon="-105.2306318">
  <ele>1595.69</ele>
  <time>2026-08-28T19:10:33Z</time>
  <course>8.38</course>
  <speed>0.66</speed>
  <fix>3d</fix>
</trkpt>
<trkpt lat="40.0728059" lon="-105.2306332">
  <ele>1595.6</ele>
  <time>2026-08-28T19:10:33Z</time>
  <course>90.38</course>
  <speed>0.69</speed>
  <fix>3d</fix>
</trkpt>
<trkpt lat="40.0728057" lon="-105.2306305">
  <ele>1595.69</ele>
  <time>2026-08-28T19:10:33Z</time>
  <course>8.47</course>
  <speed>0.5445181356024793</speed>
  <fix>3d</fix>
</trkpt>
<trkpt lat="40.0728059" lon="-105.2306316">
  <ele>1595.6</ele>
  <time>2026-08-28T19:10:33Z</time>
  <course>84.73</course>
  <speed>0.62</speed>
  <fix>3d</fix>
</trkpt>
<trkpt lat="40.072806" lon="-105.2306294">
  <ele>1595.69</ele>
  <time>2026-08-28T19:10:33Z</time>
  <course>8.56</course>
  <speed>0.3921734310225516</speed>
  <fix>3d</fix>
</trkpt>
<trkpt lat="40.072806" lon="-105.2306303">
  <ele>1595.6</ele>
  <time>2026-08-28T19:10:33Z</time>
  <course>76.64</course>
  <speed>0.5</speed>
  <fix>3d</fix>
</trkpt>
<trkpt lat="40.0728063" lon="-105.2306288">
  <ele>1595.69</ele>
  <time>2026-08-28T19:10:33Z</time>
  <course>8.6</course>
  <speed>0.24083189157584592</speed>
  <fix>3d</fix>
</trkpt>
<trkpt lat="40.0728062" lon="-105.2306293">
  <ele>1595.6</ele>
  <time>2026-08-28T19:10:33Z</time>
  <course>61.66</course>
  <speed>0.35</speed>
  <fix>3d</fix>
</trkpt>
<trkpt lat="40.0728067" lon="-105.2306287">
  <ele>1595.68</ele>
  <time>2026-08-28T19:10:33Z</time>
  <course>8.59</course>
  <speed>0.21840329667841554</speed>
  <fix>3d</fix>
</trkpt>
<trkpt lat="40.0728065" lon="-105.2306289">
  <ele>1595.6</ele>
  <time>2026-08-28T19:10:33Z</time>
  <course>24.96</course>
  <speed>0.22</speed>
  <fix>3d</fix>
</trkpt>
<trkpt lat="40.0728071" lon="-105.230629">
  <ele>1595.68</ele>
  <time>2026-08-28T19:10:33Z</time>
  <course>8.54</course>
  <speed>0.32649655434629016</speed>
  <fix>3d</fix>
</trkpt>
<trkpt lat="40.072807" lon="-105.2306289">
  <ele>1595.6</ele>
  <time>2026-08-28T19:10:33Z</time>
  <course>330.01</course>
  <speed>0.25</speed>
  <fix>3d</fix>
</trkpt>
<trkpt lat="40.0728075" lon="-105.2306297">
  <ele>1595.68</ele>
  <time>2026-08-28T19:10:33Z</time>
  <course>8.52</course>
  <speed>0.38470768123342686</speed>
  <fix>3d</fix>
</trkpt>
<trkpt lat="40.0728074" lon="-105.2306293">
  <ele>1595.6</ele>
  <time>2026-08-28T19:10:33Z</time>
  <course>305.48</course>
  <speed>0.36</speed>
  <fix>3d</fix>
</trkpt>
<trkpt lat="40.0728078" lon="-105.2306306">
  <ele>1595.68</ele>
  <time>2026-08-28T19:10:33Z</time>
  <course>8.59</course>
  <speed>0.3956008088970496</speed>
  <fix>3d</fix>
</trkpt>
<trkpt lat="40.0728077" lon="-105.2306301">
  <ele>1595.6</ele>
  <time>2026-08-28T19:10:33Z</time>
  <course>295.0</course>
  <speed>0.41</speed>
  <fix>3d</fix>
</trkpt>
<trkpt lat="40.072808" lon="-105.2306315">
  <ele>1595.68</ele>
  <time>2026-08-28T19:10:33Z</time>
  <course>8.61</course>
  <speed>0.3736308338453881</speed>
  <fix>3d</fix>
</trkpt>
<trkpt lat="40.0728079" lon="-105.230631">
  <ele>1595.6</ele>
  <time>2026-08-28T19:10:33Z</time>
  <course>288.98</course>
  <speed>0.41</speed>
  <fix>3d</fix>
</trkpt>
<trkpt lat="40.0728082" lon="-105.2306323">
  <ele>1595.69</ele>
  <time>2026-08-28T19:10:33Z</time>
  <course>8.61</course>
  <speed>0.33955853692699295</speed>
  <fix>3d</fix>
</trkpt>
<trkpt lat="40.0728082" lon="-105.2306319">
  <ele>1595.6</ele>
  <time>2026-08-28T19:10:33Z</time>
  <course>285.4</course>
  <speed>0.39</speed>
  <fix>3d</fix>
</trkpt>
<trkpt lat="40.0728083" lon="-105.2306331">
  <ele>1595.69</ele>
  <time>2026-08-28T19:10:33Z</time>
  <course>8.62</course>
  <speed>0.3059411708155671</speed>
  <fix>3d</fix>
</trkpt>
<trkpt lat="40.0728084" lon="-105.2306328">
  <ele>1595.61</ele>
  <time>2026-08-28T19:10:33Z</time>
  <course>283.45</course>
  <speed>0.36</speed>
  <fix>3d</fix>
</trkpt>
<trkpt lat="40.0728085" lon="-105.2306338">
  <ele>1595.69</ele>
  <time>2026-08-28T19:10:33Z</time>
  <course>8.62</course>
  <speed>0.26476404589747454</speed>
  <fix>3d</fix>
</trkpt>
<trkpt lat="40.0728085" lon="-105.2306336">
  <ele>1595.61</ele>
  <time>2026-08-28T19:10:33Z</time>
  <course>282.7</course>
  <speed>0.32</speed>
  <fix>3d</fix>
</trkpt>
<trkpt lat="40.0728086" lon="-105.2306345">
  <ele>1595.69</ele>
  <time>2026-08-28T19:10:33Z</time>
  <course>8.62</course>
  <speed>0.2353720459187964</speed>
  <fix>3d</fix>
</trkpt>
<trkpt lat="40.0728086" lon="-105.2306343">
  <ele>1595.61</ele>
  <time>2026-08-28T19:10:33Z</time>
  <course>282.88</course>
  <speed>0.29</speed>
  <fix>3d</fix>
</trkpt>
<trkpt lat="40.0728087" lon="-105.230635">
  <ele>1595.68</ele>
  <time>2026-08-28T19:10:33Z</time>
  <course>8.6</course>
  <speed>0.2039607805437114</speed>
  <fix>3d</fix>
</trkpt>
<trkpt lat="40.0728087" lon="-105.2306349">
  <ele>1595.61</ele>
  <time>2026-08-28T19:10:33Z</time>
  <course>283.72</course>
  <speed>0.26</speed>
  <fix>3d</fix>
</trkpt>
<trkpt lat="40.0728088" lon="-105.2306356">
  <ele>1595.68</ele>
  <time>2026-08-28T19:10:33Z</time>
  <course>8.59</course>
  <speed>0.18439088914585774</speed>
  <fix>3d</fix>
</trkpt>
<trkpt lat="40.0728088" lon="-105.2306355">
  <ele>1595.61</ele>
  <time>2026-08-28T19:10:33Z</time>
  <course>285.12</course>
  <speed>0.23</speed>
  <fix>3d</fix>
</trkpt>
<trkpt lat="40.0728089" lon="-105.230636">
  <ele>1595.68</ele>
  <time>2026-08-28T19:10:33Z</time>
  <course>8.56</course>
  <speed>0.15524174696260024</speed>
  <fix>3d</fix>
</trkpt>
<trkpt lat="40.0728089" lon="-105.230636">
  <ele>1595.61</ele>
  <time>2026-08-28T19:10:33Z</time>
  <course>287.17</course>
  <speed>0.2</speed>
  <fix>3d</fix>
</trkpt>
<trkpt lat="40.072809" lon="-105.2306364">
  <ele>1595.68</ele>
  <time>2026-08-28T19:10:33Z</time>
  <course>8.57</course>
  <speed>0.13601470508735444</speed>
  <fix>3d</fix>
</trkpt>
<trkpt lat="40.0728091" lon="-105.2306365">
  <ele>1595.61</ele>
  <time>2026-08-28T19:10:33Z</time>
  <course>289.69</course>
  <speed>0.18</speed>
  <fix>3d</fix>
</trkpt>
<trkpt lat="40.0728091" lon="-105.2306368">
  <ele>1595.68</ele>
  <time>2026-08-28T19:10:33Z</time>
  <course>8.57</course>
  <speed>0.1264911064067352</speed>
  <fix>3d</fix>
</trkpt>
<trkpt lat="40.0728092" lon="-105.2306368">
  <ele>1595.61</ele>
  <time>2026-08-28T19:10:33Z</time>
  <course>292.22</course>
  <speed>0.16</speed>
  <fix>3d</fix>
</trkpt>
<trkpt lat="40.0728092" lon="-105.2306371">
  <ele>1595.68</ele>
  <time>2026-08-28T19:10:33Z</time>
  <course>8.58</course>
  <speed>0.10770329614269007</speed>
  <fix>3d</fix>
</trkpt>
<trkpt lat="40.0728093" lon="-105.2306371">
  <ele>1595.61</ele>
  <time>2026-08-28T19:10:33Z</time>
  <course>294.88</course>
  <speed>0.15</speed>
  <fix>3d</fix>
</trkpt>
<trkpt lat="40.0728093" lon="-105.2306374">
  <ele>1595.69</ele>
  <time>2026-08-28T19:10:33Z</time>
  <course>8.59</course>
  <speed>0.09848857801796104</speed>
  <fix>3d</fix>
</trkpt>
<trkpt lat="40.0728094" lon="-105.2306375">
  <ele>1595.61</ele>
  <time>2026-08-28T19:10:33Z</time>
  <course>297.97</course>
  <speed>0.13</speed>
  <fix>3d</fix>
</trkpt>
<trkpt lat="40.0728094" lon="-105.2306376">
  <ele>1595.69</ele>
  <time>2026-08-28T19:10:33Z</time>
  <course>8.58</course>
  <speed>0.08944271909999159</speed>
  <fix>3d</fix>
</trkpt>
<trkpt lat="40.0728095" lon="-105.2306377">
  <ele>1595.61</ele>
  <time>2026-08-28T19:10:33Z</time>
  <course>301.22</course>
  <speed>0.12</speed>
  <fix>3d</fix>
</trkpt>
<trkpt lat="40.0728095" lon="-105.2306379">
  <ele>1595.68</ele>
  <time>2026-08-28T19:10:33Z</time>
  <course>8.57</course>
  <speed>0.08062257748298549</speed>
  <fix>3d</fix>
</trkpt>
<trkpt lat="40.0728096" lon="-105.230638">
  <ele>1595.62</ele>
  <time>2026-08-28T19:10:33Z</time>
  <course>304.33</course>
  <speed>0.11</speed>
  <fix>3d</fix>
</trkpt>
<trkpt lat="40.0728097" lon="-105.2306381">
  <ele>1595.68</ele>
  <time>2026-08-28T19:10:33Z</time>
  <course>8.57</course>
  <speed>0.07211102550927978</speed>
  <fix>3d</fix>
</trkpt>
<trkpt lat="40.0728098" lon="-105.2306382">
  <ele>1595.62</ele>
  <time>2026-08-28T19:10:33Z</time>
  <course>307.32</course>
  <speed>0.11</speed>
  <fix>3d</fix>
</trkpt>
<trkpt lat="40.0728098" lon="-105.2306383">
  <ele>1595.68</ele>
  <time>2026-08-28T19:10:33Z</time>
  <course>8.56</course>
  <speed>0.08602325267042626</speed>
  <fix>3d</fix>
</trkpt>
<trkpt lat="40.0728099" lon="-105.2306385">
  <ele>1595.62</ele>
  <time>2026-08-28T19:10:33Z</time>
  <course>309.34</course>
  <speed>0.11</speed>
  <fix>3d</fix>
</trkpt>
<trkpt lat="40.0728099" lon="-105.2306385">
  <ele>1595.68</ele>
  <time>2026-08-28T19:10:33Z</time>
  <course>8.54</course>
  <speed>0.11661903789690602</speed>
  <fix>3d</fix>
</trkpt>
<trkpt lat="40.07281" lon="-105.2306386">
  <ele>1595.62</ele>
  <time>2026-08-28T19:10:33Z</time>
  <course>307.41</course>
  <speed>0.12</speed>
  <fix>3d</fix>
</trkpt>
<trkpt lat="40.0728101" lon="-105.2306389">
  <ele>1595.67</ele>
  <time>2026-08-28T19:10:33Z</time>
  <course>8.56</course>
  <speed>0.18788294228055935</speed>
  <fix>3d</fix>
</trkpt>
<trkpt lat="40.0728102" lon="-105.2306389">
  <ele>1595.62</ele>
  <time>2026-08-28T19:10:33Z</time>
  <course>301.71</course>
  <speed>0.16</speed>
  <fix>3d</fix>
</trkpt>
<trkpt lat="40.0728103" lon="-105.2306395">
  <ele>1595.67</ele>
  <time>2026-08-28T19:10:34Z</time>
  <course>8.55</course>
  <speed>0.2879236009777594</speed>
  <fix>3d</fix>
</trkpt>
<trkpt lat="40.0728103" lon="-105.2306393">
  <ele>1595.62</ele>
  <time>2026-08-28T19:10:34Z</time>
  <course>296.02</course>
  <speed>0.24</speed>
  <fix>3d</fix>
</trkpt>
<trkpt lat="40.0728105" lon="-105.2306403">
  <ele>1595.67</ele>
  <time>2026-08-28T19:10:34Z</time>
  <course>8.53</course>
  <speed>0.3984971769034255</speed>
  <fix>3d</fix>
</trkpt>
<trkpt lat="40.0728105" lon="-105.2306399">
  <ele>1595.62</ele>
  <time>2026-08-28T19:10:34Z</time>
  <course>291.56</course>
  <speed>0.34</speed>
  <fix>3d</fix>
</trkpt>
<trkpt lat="40.0728108" lon="-105.2306413">
  <ele>1595.67</ele>
  <time>2026-08-28T19:10:34Z</time>
  <course>8.49</course>
  <speed>0.49729267036625424</speed>
  <fix>3d</fix>
</trkpt>
<trkpt lat="40.0728108" lon="-105.2306409">
  <ele>1595.62</ele>
  <time>2026-08-28T19:10:34Z</time>
  <course>288.05</course>
  <speed>0.44</speed>
  <fix>3d</fix>
</trkpt>
<trkpt lat="40.0728111" lon="-105.2306426">
  <ele>1595.67</ele>
  <time>2026-08-28T19:10:34Z</time>
  <course>8.45</course>
  <speed>0.5629387178015027</speed>
  <fix>3d</fix>
</trkpt>
<trkpt lat="40.072811" lon="-105.2306419">
  <ele>1595.62</ele>
  <time>2026-08-28T19:10:34Z</time>
  <course>285.1</course>
  <speed>0.54</speed>
  <fix>3d</fix>
</trkpt>
<trkpt lat="40.0728113" lon="-105.230644">
  <ele>1595.68</ele>
  <time>2026-08-28T19:10:34Z</time>
  <course>8.45</course>
  <speed>0.5984145720150873</speed>
  <fix>3d</fix>
</trkpt>
<trkpt lat="40.0728113" lon="-105.2306433">
  <ele>1595.63</ele>
  <time>2026-08-28T19:10:34Z</time>
  <course>282.44</course>
  <speed>0.6</speed>
  <fix>3d</fix>
</trkpt>
<trkpt lat="40.0728115" lon="-105.2306454">
  <ele>1595.69</ele>
  <time>2026-08-28T19:10:34Z</time>
  <course>8.53</course>
  <speed>0.5731491952362839</speed>
  <fix>3d</fix>
</trkpt>
<trkpt lat="40.0728115" lon="-105.2306447">
  <ele>1595.63</ele>
  <time>2026-08-28T19:10:34Z</time>
  <course>279.8</course>
  <speed>0.62</speed>
  <fix>3d</fix>
</trkpt>
<trkpt lat="40.0728116" lon="-105.2306467">
  <ele>1595.7</ele>
  <time>2026-08-28T19:10:34Z</time>
  <course>8.64</course>
  <speed>0.5003998401278722</speed>
  <fix>3d</fix>
</trkpt>
<trkpt lat="40.0728117" lon="-105.2306461">
  <ele>1595.63</ele>
  <time>2026-08-28T19:10:34Z</time>
  <course>276.93</course>
  <speed>0.58</speed>
  <fix>3d</fix>
</trkpt>
<trkpt lat="40.0728116" lon="-105.2306478">
  <ele>1595.7</ele>
  <time>2026-08-28T19:10:34Z</time>
  <course>8.67</course>
  <speed>0.38052595180880894</speed>
  <fix>3d</fix>
</trkpt>
<trkpt lat="40.0728117" lon="-105.2306474">
  <ele>1595.64</ele>
  <time>2026-08-28T19:10:34Z</time>
  <course>273.35</course>
  <speed>0.5</speed>
  <fix>3d</fix>
</trkpt>
<trkpt lat="40.0728115" lon="-105.2306486">
  <ele>1595.7</ele>
  <time>2026-08-28T19:10:34Z</time>
  <course>8.68</course>
  <speed>0.2308679276123039</speed>
  <fix>3d</fix>
</trkpt>
<trkpt lat="40.0728117" lon="-105.2306484">
  <ele>1595.64</ele>
  <time>2026-08-28T19:10:34Z</time>
  <course>267.8</course>
  <speed>0.37</speed>
  <fix>3d</fix>
</trkpt>
<trkpt lat="40.0728115" lon="-105.230649">
  <ele>1595.7</ele>
  <time>2026-08-28T19:10:34Z</time>
  <course>8.68</course>
  <speed>0.11401754250991379</speed>
  <fix>3d</fix>
</trkpt>
<trkpt lat="40.0728117" lon="-105.2306491">
  <ele>1595.64</ele>
  <time>2026-08-28T19:10:34Z</time>
  <course>254.81</course>
  <speed>0.2</speed>
  <fix>3d</fix>
</trkpt>
<trkpt lat="40.0728113" lon="-105.2306489">
  <ele>1595.71</ele>
  <time>2026-08-28T19:10:34Z</time>
  <course>8.61</course>
  <speed>0.212602916254693</speed>
  <fix>3d</fix>
</trkpt>
<trkpt lat="40.0728117" lon="-105.2306493">
  <ele>1595.64</ele>
  <time>2026-08-28T19:10:34Z</time>
  <course>183.01</course>
  <speed>0.08</speed>
  <fix>3d</fix>
</trkpt>
<trkpt lat="40.0728111" lon="-105.2306484">
  <ele>1595.71</ele>
  <time>2026-08-28T19:10:34Z</time>
  <course>8.53</course>
  <speed>0.38078865529319544</speed>
  <fix>3d</fix>
</trkpt>
<trkpt lat="40.0728115" lon="-105.2306491">
  <ele>1595.64</ele>
  <time>2026-08-28T19:10:34Z</time>
  <course>118.1</course>
  <speed>0.22</speed>
  <fix>3d</fix>
</trkpt>
<trkpt lat="40.0728109" lon="-105.2306475">
  <ele>1595.71</ele>
  <time>2026-08-28T19:10:34Z</time>
  <course>8.44</course>
  <speed>0.5385164807134504</speed>
  <fix>3d</fix>
</trkpt>
<trkpt lat="40.0728113" lon="-105.2306485">
  <ele>1595.63</ele>
  <time>2026-08-28T19:10:34Z</time>
  <course>105.86</course>
  <speed>0.39</speed>
  <fix>3d</fix>
</trkpt>
<trkpt lat="40.0728108" lon="-105.2306462">
  <ele>1595.7</ele>
  <time>2026-08-28T19:10:34Z</time>
  <course>8.35</course>
  <speed>0.6413267497929586</speed>
  <fix>3d</fix>
</trkpt>
<trkpt lat="40.0728111" lon="-105.2306475">
  <ele>1595.62</ele>
  <time>2026-08-28T19:10:34Z</time>
  <course>100.23</course>
  <speed>0.54</speed>
  <fix>3d</fix>
</trkpt>
<trkpt lat="40.0728106" lon="-105.2306447">
  <ele>1595.7</ele>
  <time>2026-08-28T19:10:34Z</time>
  <course>8.33</course>
  <speed>0.6946221994724903</speed>
  <fix>3d</fix>
</trkpt>
<trkpt lat="40.072811" lon="-105.2306461">
  <ele>1595.62</ele>
  <time>2026-08-28T19:10:34Z</time>
  <course>96.23</course>
  <speed>0.64</speed>
  <fix>3d</fix>
</trkpt>
<trkpt lat="40.0728106" lon="-105.2306432">
  <ele>1595.69</ele>
  <time>2026-08-28T19:10:34Z</time>
  <course>8.35</course>
  <speed>0.6806614430096655</speed>
  <fix>3d</fix>
</trkpt>
<trkpt lat="40.0728109" lon="-105.2306445">
  <ele>1595.61</ele>
  <time>2026-08-28T19:10:34Z</time>
  <course>92.59</course>
  <speed>0.68</speed>
  <fix>3d</fix>
</trkpt>
<trkpt lat="40.0728107" lon="-105.2306417">
  <ele>1595.69</ele>
  <time>2026-08-28T19:10:34Z</time>
  <course>8.39</course>
  <speed>0.6103277807866851</speed>
  <fix>3d</fix>
</trkpt>
<trkpt lat="40.0728109" lon="-105.2306428">
  <ele>1595.61</ele>
  <time>2026-08-28T19:10:34Z</time>
  <course>88.61</course>
  <speed>0.66</speed>
  <fix>3d</fix>
</trkpt>
<trkpt lat="40.0728108" lon="-105.2306404">
  <ele>1595.69</ele>
  <time>2026-08-28T19:10:34Z</time>
  <course>8.48</course>
  <speed>0.4850773134253961</speed>
  <fix>3d</fix>
</trkpt>
<trkpt lat="40.0728109" lon="-105.2306414">
  <ele>1595.61</ele>
  <time>2026-08-28T19:10:34Z</time>
  <course>83.43</course>
  <speed>0.58</speed>
  <fix>3d</fix>
</trkpt>
<trkpt lat="40.072811" lon="-105.2306395">
  <ele>1595.69</ele>
  <time>2026-08-28T19:10:34Z</time>
  <course>8.54</course>
  <speed>0.3231098884280702</speed>
  <fix>3d</fix>
</trkpt>
<trkpt lat="40.072811" lon="-105.2306402">
  <ele>1595.61</ele>
  <time>2026-08-28T19:10:34Z</time>
  <course>75.28</course>
  <speed>0.45</speed>
  <fix>3d</fix>
</trkpt>
<trkpt lat="40.0728113" lon="-105.2306391">
  <ele>1595.69</ele>
  <time>2026-08-28T19:10:34Z</time>
  <course>8.58</course>
  <speed>0.1835755975068582</speed>
  <fix>3d</fix>
</trkpt>
<trkpt lat="40.0728112" lon="-105.2306394">
  <ele>1595.61</ele>
  <time>2026-08-28T19:10:34Z</time>
  <course>58.27</course>
  <speed>0.29</speed>
  <fix>3d</fix>
</trkpt>
<trkpt lat="40.0728116" lon="-105.2306391">
  <ele>1595.68</ele>
  <time>2026-08-28T19:10:34Z</time>
  <course>8.57</course>
  <speed>0.2195449840010015</speed>
  <fix>3d</fix>
</trkpt>
<trkpt lat="40.0728115" lon="-105.2306391">
  <ele>1595.61</ele>
  <time>2026-08-28T19:10:34Z</time>
  <course>11.84</course>
  <speed>0.18</speed>
  <fix>3d</fix>
</trkpt>
<trkpt lat="40.072812" lon="-105.2306395">
  <ele>1595.68</ele>
  <time>2026-08-28T19:10:34Z</time>
  <course>8.52</course>
  <speed>0.3721558813185679</speed>
  <fix>3d</fix>
</trkpt>
<trkpt lat="40.0728119" lon="-105.2306392">
  <ele>1595.61</ele>
  <time>2026-08-28T19:10:34Z</time>
  <course>317.49</course>
  <speed>0.26</speed>
  <fix>3d</fix>
</trkpt>
<trkpt lat="40.0728124" lon="-105.2306405">
  <ele>1595.68</ele>
  <time>2026-08-28T19:10:34Z</time>
  <course>8.47</course>
  <speed>0.5314132102234569</speed>
  <fix>3d</fix>
</trkpt>
<trkpt lat="40.0728122" lon="-105.2306399">
  <ele>1595.6</ele>
  <time>2026-08-28T19:10:34Z</time>
  <course>296.56</course>
  <speed>0.42</speed>
  <fix>3d</fix>
</trkpt>
<trkpt lat="40.0728127" lon="-105.2306418">
  <ele>1595.68</ele>
  <time>2026-08-28T19:10:34Z</time>
  <course>8.44</course>
  <speed>0.6378871373526824</speed>
  <fix>3d</fix>
</trkpt>
<trkpt lat="40.0728126" lon="-105.2306409">
  <ele>1595.6</ele>
  <time>2026-08-28T19:10:34Z</time>
  <course>287.11</course>
  <speed>0.57</speed>
  <fix>3d</fix>
</trkpt>
<trkpt lat="40.0728129" lon="-105.2306433">
  <ele>1595.68</ele>
  <time>2026-08-28T19:10:34Z</time>
  <course>8.47</course>
  <speed>0.6972087205421343</speed>
  <fix>3d</fix>
</trkpt>
<trkpt lat="40.0728129" lon="-105.2306423">
  <ele>1595.6</ele>
  <time>2026-08-28T19:10:34Z</time>
  <course>281.21</course>
  <speed>0.67</speed>
  <fix>3d</fix>
</trkpt>
<trkpt lat="40.072813" lon="-105.2306449">
  <ele>1595.69</ele>
  <time>2026-08-28T19:10:34Z</time>
  <course>8.58</course>
  <speed>0.6811754546370561</speed>
  <fix>3d</fix>
</trkpt>
<trkpt lat="40.072813" lon="-105.2306439">
  <ele>1595.6</ele>
  <time>2026-08-28T19:10:34Z</time>
  <course>276.57</course>
  <speed>0.71</speed>
  <fix>3d</fix>
</trkpt>
<trkpt lat="40.0728131" lon="-105.2306465">
  <ele>1595.69</ele>
  <time>2026-08-28T19:10:34Z</time>
  <course>8.66</course>
  <speed>0.6100819617067857</speed>
  <fix>3d</fix>
</trkpt>
<trkpt lat="40.0728131" lon="-105.2306456">
  <ele>1595.61</ele>
  <time>2026-08-28T19:10:34Z</time>
  <course>272.16</course>
  <speed>0.69</speed>
  <fix>3d</fix>
</trkpt>
<trkpt lat="40.072813" lon="-105.2306478">
  <ele>1595.7</ele>
  <time>2026-08-28T19:10:34Z</time>
  <course>8.73</course>
  <speed>0.4850773134253961</speed>
  <fix>3d</fix>
</trkpt>
<trkpt lat="40.0728131" lon="-105.2306471">
  <ele>1595.61</ele>
  <time>2026-08-28T19:10:34Z</time>
  <course>267.07</course>
  <speed>0.61</speed>
  <fix>3d</fix>
</trkpt>
<trkpt lat="40.0728128" lon="-105.2306488">
  <ele>1595.69</ele>
  <time>2026-08-28T19:10:34Z</time>
  <course>8.74</course>
  <speed>0.32695565448543634</speed>
  <fix>3d</fix>
</trkpt>
<trkpt lat="40.0728131" lon="-105.2306484">
  <ele>1595.61</ele>
  <time>2026-08-28T19:10:34Z</time>
  <course>259.76</course>
  <speed>0.47</speed>
  <fix>3d</fix>
</trkpt>
<trkpt lat="40.0728126" lon="-105.2306493">
  <ele>1595.69</ele>
  <time>2026-08-28T19:10:34Z</time>
  <course>8.7</course>
  <speed>0.19235384061671343</speed>
  <fix>3d</fix>
</trkpt>
<trkpt lat="40.0728129" lon="-105.2306493">
  <ele>1595.61</ele>
  <time>2026-08-28T19:10:34Z</time>
  <course>245.44</course>
  <speed>0.3</speed>
  <fix>3d</fix>
</trkpt>
<trkpt lat="40.0728123" lon="-105.2306494">
  <ele>1595.68</ele>
  <time>2026-08-28T19:10:34Z</time>
  <course>8.62</course>
  <speed>0.22472205054244232</speed>
  <fix>3d</fix>
</trkpt>
<trkpt lat="40.0728127" lon="-105.2306498">
  <ele>1595.61</ele>
  <time>2026-08-28T19:10:34Z</time>
  <course>203.17</course>
  <speed>0.17</speed>
  <fix>3d</fix>
</trkpt>
<trkpt lat="40.072812" lon="-105.230649">
  <ele>1595.68</ele>
  <time>2026-08-28T19:10:34Z</time>
  <course>8.49</course>
  <speed>0.3858756276314948</speed>
  <fix>3d</fix>
</trkpt>
<trkpt lat="40.0728124" lon="-105.2306496">
  <ele>1595.61</ele>
  <time>2026-08-28T19:10:34Z</time>
  <course>138.56</course>
  <speed>0.22</speed>
  <fix>3d</fix>
</trkpt>
<trkpt lat="40.0728117" lon="-105.2306481">
  <ele>1595.68</ele>
  <time>2026-08-28T19:10:34Z</time>
  <course>8.37</course>
  <speed>0.5314132102234569</speed>
  <fix>3d</fix>
</trkpt>
<trkpt lat="40.072812" lon="-105.230649">
  <ele>1595.6</ele>
  <time>2026-08-28T19:10:34Z</time>
  <course>115.09</course>
  <speed>0.39</speed>
  <fix>3d</fix>
</trkpt>
<trkpt lat="40.0728115" lon="-105.2306469">
  <ele>1595.68</ele>
  <time>2026-08-28T19:10:34Z</time>
  <course>8.3</course>
  <speed>0.6476109943476871</speed>
  <fix>3d</fix>
</trkpt>
<trkpt lat="40.0728117" lon="-105.2306481">
  <ele>1595.6</ele>
  <time>2026-08-28T19:10:34Z</time>
  <course>105.3</course>
  <speed>0.54</speed>
  <fix>3d</fix>
</trkpt>
<trkpt lat="40.0728113" lon="-105.2306454">
  <ele>1595.67</ele>
  <time>2026-08-28T19:10:34Z</time>
  <course>8.3</course>
  <speed>0.6972087205421343</speed>
  <fix>3d</fix>
</trkpt>
<trkpt lat="40.0728115" lon="-105.2306467">
  <ele>1595.6</ele>
  <time>2026-08-28T19:10:34Z</time>
  <course>99.27</course>
  <speed>0.64</speed>
  <fix>3d</fix>
</trkpt>
<trkpt lat="40.0728112" lon="-105.2306439">
  <ele>1595.68</ele>
  <time>2026-08-28T19:10:34Z</time>
  <course>8.33</course>
  <speed>0.6911584478250989</speed>
  <fix>3d</fix>
</trkpt>
<trkpt lat="40.0728114" lon="-105.2306452">
  <ele>1595.6</ele>
  <time>2026-08-28T19:10:34Z</time>
  <course>94.41</course>
  <speed>0.68</speed>
  <fix>3d</fix>
</trkpt>
<trkpt lat="40.0728112" lon="-105.2306424">
  <ele>1595.68</ele>
  <time>2026-08-28T19:10:34Z</time>
  <course>8.39</course>
  <speed>0.620322496770833</speed>
  <fix>3d</fix>
</trkpt>
<trkpt lat="40.0728114" lon="-105.2306435">
  <ele>1595.6</ele>
  <time>2026-08-28T19:10:34Z</time>
  <course>89.58</course>
  <speed>0.66</speed>
  <fix>3d</fix>
</trkpt>
<trkpt lat="40.0728114" lon="-105.2306411">
  <ele>1595.68</ele>
  <time>2026-08-28T19:10:34Z</time>
  <course>8.5</course>
  <speed>0.49648766349225637</speed>
  <fix>3d</fix>
</trkpt>
<trkpt lat="40.0728114" lon="-105.2306421">
  <ele>1595.6</ele>
  <time>2026-08-28T19:10:34Z</time>
  <course>83.74</course>
  <speed>0.58</speed>
  <fix>3d</fix>
</trkpt>
<trkpt lat="40.0728115" lon="-105.2306402">
  <ele>1595.69</ele>
  <time>2026-08-28T19:10:34Z</time>
  <course>8.56</course>
  <speed>0.340147027033899</speed>
  <fix>3d</fix>
</trkpt>
<trkpt lat="40.0728115" lon="-105.2306409">
  <ele>1595.61</ele>
  <time>2026-08-28T19:10:34Z</time>
  <course>74.89</course>
  <speed>0.45</speed>
  <fix>3d</fix>
</trkpt>
<trkpt lat="40.0728119" lon="-105.2306397">
  <ele>1595.69</ele>
  <time>2026-08-28T19:10:34Z</time>
  <course>8.59</course>
  <speed>0.20591260281974003</speed>
  <fix>3d</fix>
</trkpt>
<trkpt lat="40.0728117" lon="-105.23064">
  <ele>1595.61</ele>
  <time>2026-08-28T19:10:34Z</time>
  <course>57.16</course>
  <speed>0.3</speed>
  <fix>3d</fix>
</trkpt>
<trkpt lat="40.0728122" lon="-105.2306397">
  <ele>1595.69</ele>
  <time>2026-08-28T19:10:34Z</time>
  <course>8.59</course>
  <speed>0.22825424421026652</speed>
  <fix>3d</fix>
</trkpt>
<trkpt lat="40.072812" lon="-105.2306397">
  <ele>1595.61</ele>
  <time>2026-08-28T19:10:34Z</time>
  <course>12.66</course>
  <speed>0.2</speed>
  <fix>3d</fix>
</trkpt>
<trkpt lat="40.0728126" lon="-105.2306401">
  <ele>1595.69</ele>
  <time>2026-08-28T19:10:34Z</time>
  <course>8.56</course>
  <speed>0.3827531841800928</speed>
  <fix>3d</fix>
</trkpt>
<trkpt lat="40.0728125" lon="-105.2306399">
  <ele>1595.61</ele>
  <time>2026-08-28T19:10:34Z</time>
  <course>320.64</course>
  <speed>0.27</speed>
  <fix>3d</fix>
</trkpt>
<trkpt lat="40.072813" lon="-105.2306411">
  <ele>1595.69</ele>
  <time>2026-08-28T19:10:34Z</time>
  <course>8.52</course>
  <speed>0.5255473337388366</speed>
  <fix>3d</fix>
</trkpt>
<trkpt lat="40.0728129" lon="-105.2306405">
  <ele>1595.61</ele>
  <time>2026-08-28T19:10:34Z</time>
  <course>298.83</course>
  <speed>0.43</speed>
  <fix>3d</fix>
</trkpt>
<trkpt lat="40.0728133" lon="-105.2306424">
  <ele>1595.69</ele>
  <time>2026-08-28T19:10:34Z</time>
  <course>8.51</course>
  <speed>0.6403124237432849</speed>
  <fix>3d</fix>
</trkpt>
<trkpt lat="40.0728132" lon="-105.2306415">
  <ele>1595.6</ele>
  <time>2026-08-28T19:10:34Z</time>
  <course>288.71</course>
  <speed>0.57</speed>
  <fix>3d</fix>
</trkpt>
<trkpt lat="40.0728136" lon="-105.2306439">
  <ele>1595.69</ele>
  <time>2026-08-28T19:10:34Z</time>
  <course>8.55</course>
  <speed>0.6987131027825368</speed>
  <fix>3d</fix>
</trkpt>
<trkpt lat="40.0728135" lon="-105.2306429">
  <ele>1595.6</ele>
  <time>2026-08-28T19:10:34Z</time>
  <course>282.4</course>
  <speed>0.67</speed>
  <fix>3d</fix>
</trkpt>
<trkpt lat="40.0728137" lon="-105.2306456">
  <ele>1595.69</ele>
  <time>2026-08-28T19:10:34Z</time>
  <course>8.61</course>
  <speed>0.691809222257119</speed>
  <fix>3d</fix>
</trkpt>
<trkpt lat="40.0728137" lon="-105.2306445">
  <ele>1595.6</ele>
  <time>2026-08-28T19:10:34Z</time>
  <course>277.49</course>
  <speed>0.72</speed>
  <fix>3d</fix>
</trkpt>
<trkpt lat="40.0728138" lon="-105.2306471">
  <ele>1595.69</ele>
  <time>2026-08-28T19:10:34Z</time>
  <course>8.67</course>
  <speed>0.6200806399170998</speed>
  <fix>3d</fix>
</trkpt>
<trkpt lat="40.0728138" lon="-105.2306462">
  <ele>1595.6</ele>
  <time>2026-08-28T19:10:34Z</time>
  <course>272.87</course>
  <speed>0.69</speed>
  <fix>3d</fix>
</trkpt>
<trkpt lat="40.0728137" lon="-105.2306485">
  <ele>1595.69</ele>
  <time>2026-08-28T19:10:34Z</time>
  <course>8.71</course>
  <speed>0.4850773134253961</speed>
  <fix>3d</fix>
</trkpt>
<trkpt lat="40.0728138" lon="-105.2306478">
  <ele>1595.6</ele>
  <time>2026-08-28T19:10:34Z</time>
  <course>267.62</course>
  <speed>0.61</speed>
  <fix>3d</fix>
</trkpt>
<trkpt lat="40.0728135" lon="-105.2306495">
  <ele>1595.69</ele>
  <time>2026-08-28T19:10:34Z</time>
  <course>8.72</course>
  <speed>0.32695565448543634</speed>
  <fix>3d</fix>
</trkpt>
<trkpt lat="40.0728138" lon="-105.230649">
  <ele>1595.61</ele>
  <time>2026-08-28T19:10:34Z</time>
  <course>260.21</course>
  <speed>0.47</speed>
  <fix>3d</fix>
</trkpt>
<trkpt lat="40.0728134" lon="-105.23065">
  <ele>1595.69</ele>
  <time>2026-08-28T19:10:34Z</time>
  <course>8.69</course>
  <speed>0.19235384061671343</speed>
  <fix>3d</fix>
</trkpt>
<trkpt lat="40.0728137" lon="-105.2306499">
  <ele>1595.61</ele>
  <time>2026-08-28T19:10:34Z</time>
  <course>245.81</course>
  <speed>0.3</speed>
  <fix>3d</fix>
</trkpt>
<trkpt lat="40.0728131" lon="-105.23065">
  <ele>1595.69</ele>
  <time>2026-08-28T19:10:34Z</time>
  <course>8.62</course>
  <speed>0.22472205054244232</speed>
  <fix>3d</fix>
</trkpt>
<trkpt lat="40.0728134" lon="-105.2306503">
  <ele>1595.61</ele>
  <time>2026-08-28T19:10:34Z</time>
  <course>203.13</course>
  <speed>0.17</speed>
  <fix>3d</fix>
</trkpt>
<trkpt lat="40.0728127" lon="-105.2306497">
  <ele>1595.69</ele>
  <time>2026-08-28T19:10:34Z</time>
  <course>8.53</course>
  <speed>0.3858756276314948</speed>
  <fix>3d</fix>
</trkpt>
<trkpt lat="40.0728131" lon="-105.2306502">
  <ele>1595.61</ele>
  <time>2026-08-28T19:10:34Z</time>
  <course>138.4</course>
  <speed>0.22</speed>
  <fix>3d</fix>
</trkpt>
<trkpt lat="40.0728124" lon="-105.2306488">
  <ele>1595.69</ele>
  <time>2026-08-28T19:10:34Z</time>
  <course>8.43</course>
  <speed>0.5314132102234569</speed>
  <fix>3d</fix>
</trkpt>
<trkpt lat="40.0728128" lon="-105.2306496">
  <ele>1595.6</ele>
  <time>2026-08-28T19:10:34Z</time>
  <course>115.05</course>
  <speed>0.39</speed>
  <fix>3d</fix>
</trkpt>
<trkpt lat="40.0728122" lon="-105.2306475">
  <ele>1595.68</ele>
  <time>2026-08-28T19:10:34Z</time>
  <course>8.34</course>
  <speed>0.6476109943476871</speed>
  <fix>3d</fix>
</trkpt>
<trkpt lat="40.0728125" lon="-105.2306486">
  <ele>1595.6</ele>
  <time>2026-08-28T19:10:34Z</time>
  <course>105.28</course>
  <speed>0.54</speed>
  <fix>3d</fix>
</trkpt>
<trkpt lat="40.072812" lon="-105.230646">
  <ele>1595.68</ele>
  <time>2026-08-28T19:10:34Z</time>
  <course>8.31</course>
  <speed>0.6972087205421343</speed>
  <fix>3d</fix>
</trkpt>
<trkpt lat="40.0728122" lon="-105.2306473">
  <ele>1595.6</ele>
  <time>2026-08-28T19:10:34Z</time>
  <course>99.23</course>
  <speed>0.64</speed>
  <fix>3d</fix>
</trkpt>
<trkpt lat="40.0728119" lon="-105.2306445">
  <ele>1595.68</ele>
  <time>2026-08-28T19:10:34Z</time>
  <course>8.33</course>
  <speed>0.6911584478250989</speed>
  <fix>3d</fix>
</trkpt>
<trkpt lat="40.0728121" lon="-105.2306457">
  <ele>1595.6</ele>
  <time>2026-08-28T19:10:34Z</time>
  <course>94.35</course>
  <speed>0.69</speed>
  <fix>3d</fix>
</trkpt>
<trkpt lat="40.072812" lon="-105.230643">
  <ele>1595.68</ele>
  <time>2026-08-28T19:10:34Z</time>
  <course>8.38</course>
  <speed>0.6200806399170998</speed>
  <fix>3d</fix>
</trkpt>
<trkpt lat="40.0728121" lon="-105.2306442">
  <ele>1595.6</ele>
  <time>2026-08-28T19:10:34Z</time>
  <course>89.5</course>
  <speed>0.67</speed>
  <fix>3d</fix>
</trkpt>
<trkpt lat="40.0728121" lon="-105.2306417">
  <ele>1595.68</ele>
  <time>2026-08-28T19:10:34Z</time>
  <course>8.47</course>
  <speed>0.49648766349225637</speed>
  <fix>3d</fix>
</trkpt>
<trkpt lat="40.0728122" lon="-105.2306426">
  <ele>1595.6</ele>
  <time>2026-08-28T19:10:34Z</time>
  <course>83.61</course>
  <speed>0.59</speed>
  <fix>3d</fix>
</trkpt>
<trkpt lat="40.0728123" lon="-105.2306408">
  <ele>1595.68</ele>
  <time>2026-08-28T19:10:34Z</time>
  <course>8.55</course>
  <speed>0.340147027033899</speed>
  <fix>3d</fix>
</trkpt>
<trkpt lat="40.0728123" lon="-105.2306414">
  <ele>1595.6</ele>
  <time>2026-08-28T19:10:34Z</time>
  <course>74.74</course>
  <speed>0.46</speed>
  <fix>3d</fix>
</trkpt>
<trkpt lat="40.0728126" lon="-105.2306403">
  <ele>1595.68</ele>
  <time>2026-08-28T19:10:34Z</time>
  <course>8.58</course>
  <speed>0.20591260281974003</speed>
  <fix>3d</fix>
</trkpt>
<trkpt lat="40.0728125" lon="-105.2306405">
  <ele>1595.6</ele>
  <time>2026-08-28T19:10:34Z</time>
  <course>57.03</course>
  <speed>0.3</speed>
  <fix>3d</fix>
</trkpt>
<trkpt lat="40.072813" lon="-105.2306403">
  <ele>1595.68</ele>
  <time>2026-08-28T19:10:34Z</time>
  <course>8.57</course>
  <speed>0.22825424421026652</speed>
  <fix>3d</fix>
</trkpt>
<trkpt lat="40.0728128" lon="-105.2306402">
  <ele>1595.6</ele>
  <time>2026-08-28T19:10:34Z</time>
  <course>12.83</course>
  <speed>0.2</speed>
  <fix>3d</fix>
</trkpt>
<trkpt lat="40.0728134" lon="-105.2306407">
  <ele>1595.68</ele>
  <time>2026-08-28T19:10:34Z</time>
  <course>8.55</course>
  <speed>0.37443290453698114</speed>
  <fix>3d</fix>
</trkpt>
<trkpt lat="40.0728132" lon="-105.2306404">
  <ele>1595.6</ele>
  <time>2026-08-28T19:10:34Z</time>
  <course>321.0</course>
  <speed>0.27</speed>
  <fix>3d</fix>
</trkpt>
<trkpt lat="40.0728138" lon="-105.2306416">
  <ele>1595.68</ele>
  <time>2026-08-28T19:10:34Z</time>
  <course>8.53</course>
  <speed>0.5255473337388366</speed>
  <fix>3d</fix>
</trkpt>
<trkpt lat="40.0728136" lon="-105.230641">
  <ele>1595.6</ele>
  <time>2026-08-28T19:10:34Z</time>
  <course>299.08</course>
  <speed>0.43</speed>
  <fix>3d</fix>
</trkpt>
<trkpt lat="40.0728141" lon="-105.2306429">
  <ele>1595.68</ele>
  <time>2026-08-28T19:10:34Z</time>
  <course>8.51</course>
  <speed>0.6403124237432849</speed>
  <fix>3d</fix>
</trkpt>
<trkpt lat="40.0728139" lon="-105.230642">
  <ele>1595.6</ele>
  <time>2026-08-28T19:10:34Z</time>
  <course>288.91</course>
  <speed>0.57</speed>
  <fix>3d</fix>
</trkpt>
<trkpt lat="40.0728143" lon="-105.2306445">
  <ele>1595.68</ele>
  <time>2026-08-28T19:10:34Z</time>
  <course>8.53</course>
  <speed>0.6987131027825368</speed>
  <fix>3d</fix>
</trkpt>
<trkpt lat="40.0728143" lon="-105.2306434">
  <ele>1595.6</ele>
  <time>2026-08-28T19:10:34Z</time>
  <course>282.58</course>
  <speed>0.67</speed>
  <fix>3d</fix>
</trkpt>
<trkpt lat="40.0728145" lon="-105.2306461">
  <ele>1595.68</ele>
  <time>2026-08-28T19:10:34Z</time>
  <course>8.6</course>
  <speed>0.691809222257119</speed>
  <fix>3d</fix>
</trkpt>
<trkpt lat="40.0728145" lon="-105.2306451">
  <ele>1595.6</ele>
  <time>2026-08-28T19:10:34Z</time>
  <course>277.67</course>
  <speed>0.72</speed>
  <fix>3d</fix>
</trkpt>
<trkpt lat="40.0728145" lon="-105.2306477">
  <ele>1595.69</ele>
  <time>2026-08-28T19:10:34Z</time>
  <course>8.67</course>
  <speed>0.6200806399170998</speed>
  <fix>3d</fix>
</trkpt>
<trkpt lat="40.0728146" lon="-105.2306467">
  <ele>1595.6</ele>
  <time>2026-08-28T19:10:34Z</time>
  <course>273.08</course>
  <speed>0.7</speed>
  <fix>3d</fix>
</trkpt>
<trkpt lat="40.0728145" lon="-105.230649">
  <ele>1595.7</ele>
  <time>2026-08-28T19:10:34Z</time>
  <course>8.71</course>
  <speed>0.4850773134253961</speed>
  <fix>3d</fix>
</trkpt>
<trkpt lat="40.0728146" lon="-105.2306483">
  <ele>1595.6</ele>
  <time>2026-08-28T19:10:34Z</time>
  <course>267.9</course>
  <speed>0.61</speed>
  <fix>3d</fix>
</trkpt>
<trkpt lat="40.0728143" lon="-105.23065">
  <ele>1595.7</ele>
  <time>2026-08-28T19:10:34Z</time>
  <course>8.74</course>
  <speed>0.32695565448543634</speed>
  <fix>3d</fix>
</trkpt>
<trkpt lat="40.0728146" lon="-105.2306496">
  <ele>1595.61</ele>
  <time>2026-08-28T19:10:34Z</time>
  <course>260.61</course>
  <speed>0.47</speed>
  <fix>3d</fix>
</trkpt>
<trkpt lat="40.0728141" lon="-105.2306505">
  <ele>1595.71</ele>
  <time>2026-08-28T19:10:34Z</time>
  <course>8.73</course>
  <speed>0.1972308292331602</speed>
  <fix>3d</fix>
</trkpt>
<trkpt lat="40.0728145" lon="-105.2306505">
  <ele>1595.61</ele>
  <time>2026-08-28T19:10:34Z</time>
  <course>246.51</course>
  <speed>0.31</speed>
  <fix>3d</fix>
</trkpt>
<trkpt lat="40.0728138" lon="-105.2306506">
  <ele>1595.7</ele>
  <time>2026-08-28T19:10:34Z</time>
  <course>8.66</course>
  <speed>0.22472205054244232</speed>
  <fix>3d</fix>
</trkpt>
<trkpt lat="40.0728142" lon="-105.230651">
  <ele>1595.61</ele>
  <time>2026-08-28T19:10:34Z</time>
  <course>204.63</course>
  <speed>0.17</speed>
  <fix>3d</fix>
</trkpt>
<trkpt lat="40.0728135" lon="-105.2306502">
  <ele>1595.7</ele>
  <time>2026-08-28T19:10:34Z</time>
  <course>8.56</course>
  <speed>0.3773592452822641</speed>
  <fix>3d</fix>
</trkpt>
<trkpt lat="40.0728139" lon="-105.2306509">
  <ele>1595.6</ele>
  <time>2026-08-28T19:10:34Z</time>
  <course>138.9</course>
  <speed>0.22</speed>
  <fix>3d</fix>
</trkpt>
<trkpt lat="40.0728132" lon="-105.2306494">
  <ele>1595.69</ele>
  <time>2026-08-28T19:10:34Z</time>
  <course>8.48</course>
  <speed>0.5314132102234569</speed>
  <fix>3d</fix>
</trkpt>
<trkpt lat="40.0728136" lon="-105.2306502">
  <ele>1595.6</ele>
  <time>2026-08-28T19:10:34Z</time>
  <course>115.12</course>
  <speed>0.38</speed>
  <fix>3d</fix>
</trkpt>
<trkpt lat="40.072813" lon="-105.2306481">
  <ele>1595.68</ele>
  <time>2026-08-28T19:10:34Z</time>
  <course>8.35</course>
  <speed>0.6476109943476871</speed>
  <fix>3d</fix>
</trkpt>
<trkpt lat="40.0728133" lon="-105.2306492">
  <ele>1595.59</ele>
  <time>2026-08-28T19:10:34Z</time>
  <course>105.27</course>
  <speed>0.53</speed>
  <fix>3d</fix>
</trkpt>
<trkpt lat="40.0728128" lon="-105.2306466">
  <ele>1595.67</ele>
  <time>2026-08-28T19:10:34Z</time>
  <course>8.31</course>
  <speed>0.7071067811865476</speed>
  <fix>3d</fix>
</trkpt>
<trkpt lat="40.0728131" lon="-105.2306479">
  <ele>1595.59</ele>
  <time>2026-08-28T19:10:34Z</time>
  <course>99.21</course>
  <speed>0.64</speed>
  <fix>3d</fix>
</trkpt>
<trkpt lat="40.0728127" lon="-105.230645">
  <ele>1595.67</ele>
  <time>2026-08-28T19:10:34Z</time>
  <course>8.3</course>
  <speed>0.7011419257183242</speed>
  <fix>3d</fix>
</trkpt>
<trkpt lat="40.0728129" lon="-105.2306463">
  <ele>1595.59</ele>
  <time>2026-08-28T19:10:34Z</time>
  <course>94.33</course>
  <speed>0.68</speed>
  <fix>3d</fix>
</trkpt>
<trkpt lat="40.0728128" lon="-105.2306435">
  <ele>1595.67</ele>
  <time>2026-08-28T19:10:34Z</time>
  <course>8.37</course>
  <speed>0.6300793600809346</speed>
  <fix>3d</fix>
</trkpt>
<trkpt lat="40.0728128" lon="-105.2306447">
  <ele>1595.59</ele>
  <time>2026-08-28T19:10:34Z</time>
  <course>89.49</course>
  <speed>0.67</speed>
  <fix>3d</fix>
</trkpt>
<trkpt lat="40.0728129" lon="-105.2306422">
  <ele>1595.68</ele>
  <time>2026-08-28T19:10:34Z</time>
  <course>8.45</course>
  <speed>0.5063595560468865</speed>
  <fix>3d</fix>
</trkpt>
<trkpt lat="40.0728129" lon="-105.2306433">
  <ele>1595.59</ele>
  <time>2026-08-28T19:10:34Z</time>
  <course>83.65</course>
  <speed>0.59</speed>
  <fix>3d</fix>
</trkpt>
<trkpt lat="40.0728131" lon="-105.2306413">
  <ele>1595.68</ele>
  <time>2026-08-28T19:10:34Z</time>
  <course>8.54</course>
  <speed>0.3361547262794322</speed>
  <fix>3d</fix>
</trkpt>
<trkpt lat="40.0728131" lon="-105.2306421">
  <ele>1595.59</ele>
  <time>2026-08-28T19:10:34Z</time>
  <course>74.79</course>
  <speed>0.46</speed>
  <fix>3d</fix>
</trkpt>
<trkpt lat="40.0728134" lon="-105.2306408">
  <ele>1595.68</ele>
  <time>2026-08-28T19:10:34Z</time>
  <course>8.57</course>
  <speed>0.20591260281974003</speed>
  <fix>3d</fix>
</trkpt>
<trkpt lat="40.0728133" lon="-105.2306413">
  <ele>1595.59</ele>
  <time>2026-08-28T19:10:34Z</time>
  <course>57.07</course>
  <speed>0.3</speed>
  <fix>3d</fix>
</trkpt>
<trkpt lat="40.0728138" lon="-105.2306408">
  <ele>1595.68</ele>
  <time>2026-08-28T19:10:34Z</time>
  <course>8.57</course>
  <speed>0.22825424421026652</speed>
  <fix>3d</fix>
</trkpt>
<trkpt lat="40.0728136" lon="-105.2306409">
  <ele>1595.6</ele>
  <time>2026-08-28T19:10:34Z</time>
  <course>12.28</course>
  <speed>0.2</speed>
  <fix>3d</fix>
</trkpt>
<trkpt lat="40.0728141" lon="-105.2306413">
  <ele>1595.68</ele>
  <time>2026-08-28T19:10:34Z</time>
  <course>8.51</course>
  <speed>0.3827531841800928</speed>
  <fix>3d</fix>
</trkpt>
<trkpt lat="40.0728139" lon="-105.2306411">
  <ele>1595.6</ele>
  <time>2026-08-28T19:10:34Z</time>
  <course>320.32</course>
  <speed>0.27</speed>
  <fix>3d</fix>
</trkpt>
<trkpt lat="40.0728145" lon="-105.2306422">
  <ele>1595.68</ele>
  <time>2026-08-28T19:10:34Z</time>
  <course>8.45</course>
  <speed>0.5255473337388366</speed>
  <fix>3d</fix>
</trkpt>
<trkpt lat="40.0728144" lon="-105.2306417">
  <ele>1595.6</ele>
  <time>2026-08-28T19:10:34Z</time>
  <course>298.73</course>
  <speed>0.43</speed>
  <fix>3d</fix>
</trkpt>
<trkpt lat="40.0728149" lon="-105.2306436">
  <ele>1595.68</ele>
  <time>2026-08-28T19:10:34Z</time>
  <course>8.47</course>
  <speed>0.6403124237432849</speed>
  <fix>3d</fix>
</trkpt>
<trkpt lat="40.0728147" lon="-105.2306428">
  <ele>1595.6</ele>
  <time>2026-08-28T19:10:34Z</time>
  <course>288.7</course>
  <speed>0.58</speed>
  <fix>3d</fix>
</trkpt>
<trkpt lat="40.0728151" lon="-105.2306451">
  <ele>1595.69</ele>
  <time>2026-08-28T19:10:34Z</time>
  <course>8.51</course>
  <speed>0.6987131027825368</speed>
  <fix>3d</fix>
</trkpt>
<trkpt lat="40.072815" lon="-105.2306442">
  <ele>1595.6</ele>
  <time>2026-08-28T19:10:34Z</time>
  <course>282.46</course>
  <speed>0.68</speed>
  <fix>3d</fix>
</trkpt>
<trkpt lat="40.0728153" lon="-105.2306468">
  <ele>1595.69</ele>
  <time>2026-08-28T19:10:34Z</time>
  <course>8.61</course>
  <speed>0.691809222257119</speed>
  <fix>3d</fix>
</trkpt>
<trkpt lat="40.0728153" lon="-105.2306458">
  <ele>1595.6</ele>
  <time>2026-08-28T19:10:34Z</time>
  <course>277.6</course>
  <speed>0.72</speed>
  <fix>3d</fix>
</trkpt>
<trkpt lat="40.0728153" lon="-105.2306483">
  <ele>1595.69</ele>
  <time>2026-08-28T19:10:34Z</time>
  <course>8.68</course>
  <speed>0.6200806399170998</speed>
  <fix>3d</fix>
</trkpt>
<trkpt lat="40.0728153" lon="-105.2306475">
  <ele>1595.6</ele>
  <time>2026-08-28T19:10:34Z</time>
  <course>273.05</course>
  <speed>0.7</speed>
  <fix>3d</fix>
</trkpt>
<trkpt lat="40.0728152" lon="-105.2306497">
  <ele>1595.69</ele>
  <time>2026-08-28T19:10:34Z</time>
  <course>8.71</course>
  <speed>0.4949747468305833</speed>
  <fix>3d</fix>
</trkpt>
<trkpt lat="40.0728153" lon="-105.230649">
  <ele>1595.6</ele>
  <time>2026-08-28T19:10:34Z</time>
  <course>267.88</course>
  <speed>0.61</speed>
  <fix>3d</fix>
</trkpt>
<trkpt lat="40.0728151" lon="-105.2306507">
  <ele>1595.69</ele>
  <time>2026-08-28T19:10:34Z</time>
  <course>8.74</course>
  <speed>0.3361547262794322</speed>
  <fix>3d</fix>
</trkpt>
<trkpt lat="40.0728153" lon="-105.2306503">
  <ele>1595.61</ele>
  <time>2026-08-28T19:10:34Z</time>
  <course>260.6</course>
  <speed>0.48</speed>
  <fix>3d</fix>
</trkpt>
<trkpt lat="40.0728149" lon="-105.2306513">
  <ele>1595.69</ele>
  <time>2026-08-28T19:10:34Z</time>
  <course>8.71</course>
  <speed>0.1972308292331602</speed>
  <fix>3d</fix>
</trkpt>
<trkpt lat="40.0728152" lon="-105.2306512">
  <ele>1595.61</ele>
  <time>2026-08-28T19:10:34Z</time>
  <course>246.59</course>
  <speed>0.31</speed>
  <fix>3d</fix>
</trkpt>
<trkpt lat="40.0728146" lon="-105.2306513">
  <ele>1595.68</ele>
  <time>2026-08-28T19:10:34Z</time>
  <course>8.63</course>
  <speed>0.22472205054244232</speed>
  <fix>3d</fix>
</trkpt>
<trkpt lat="40.072815" lon="-105.2306517">
  <ele>1595.61</ele>
  <time>2026-08-28T19:10:34Z</time>
  <course>204.79</course>
  <speed>0.17</speed>
  <fix>3d</fix>
</trkpt>
<trkpt lat="40.0728143" lon="-105.230651">
  <ele>1595.68</ele>
  <time>2026-08-28T19:10:34Z</time>
  <course>8.5</course>
  <speed>0.3858756276314948</speed>
  <fix>3d</fix>
</trkpt>
<trkpt lat="40.0728146" lon="-105.2306515">
  <ele>1595.6</ele>
  <time>2026-08-28T19:10:34Z</time>
  <course>138.7</course>
  <speed>0.22</speed>
  <fix>3d</fix>
</trkpt>
<trkpt lat="40.072814" lon="-105.23065">
  <ele>1595.68</ele>
  <time>2026-08-28T19:10:34Z</time>
  <course>8.37</course>
  <speed>0.5314132102234569</speed>
  <fix>3d</fix>
</trkpt>
<trkpt lat="40.0728144" lon="-105.230651">
  <ele>1595.6</ele>
  <time>2026-08-28T19:10:34Z</time>
  <course>114.99</course>
  <speed>0.38</speed>
  <fix>3d</fix>
</trkpt>
<trkpt lat="40.0728137" lon="-105.2306488">
  <ele>1595.68</ele>
  <time>2026-08-28T19:10:34Z</time>
  <course>8.31</course>
  <speed>0.6476109943476871</speed>
  <fix>3d</fix>
</trkpt>
<trkpt lat="40.0728141" lon="-105.23065">
  <ele>1595.6</ele>
  <time>2026-08-28T19:10:34Z</time>
  <course>105.2</course>
  <speed>0.53</speed>
  <fix>3d</fix>
</trkpt>
<trkpt lat="40.0728136" lon="-105.2306473">
  <ele>1595.67</ele>
  <time>2026-08-28T19:10:34Z</time>
  <course>8.31</course>
  <speed>0.7071067811865476</speed>
  <fix>3d</fix>
</trkpt>
<trkpt lat="40.0728139" lon="-105.2306486">
  <ele>1595.6</ele>
  <time>2026-08-28T19:10:34Z</time>
  <course>99.16</course>
  <speed>0.64</speed>
  <fix>3d</fix>
</trkpt>
<trkpt lat="40.0728135" lon="-105.2306457">
  <ele>1595.68</ele>
  <time>2026-08-28T19:10:34Z</time>
  <course>8.33</course>
  <speed>0.6911584478250989</speed>
  <fix>3d</fix>
</trkpt>
<trkpt lat="40.0728137" lon="-105.2306471">
  <ele>1595.6</ele>
  <time>2026-08-28T19:10:34Z</time>
  <course>94.29</course>
  <speed>0.68</speed>
  <fix>3d</fix>
</trkpt>
<trkpt lat="40.0728135" lon="-105.2306442">
  <ele>1595.69</ele>
  <time>2026-08-28T19:10:34Z</time>
  <course>8.39</course>
  <speed>0.620322496770833</speed>
  <fix>3d</fix>
</trkpt>
<trkpt lat="40.0728137" lon="-105.2306455">
  <ele>1595.6</ele>
  <time>2026-08-28T19:10:34Z</time>
  <course>89.44</course>
  <speed>0.67</speed>
  <fix>3d</fix>
</trkpt>
<trkpt lat="40.0728136" lon="-105.230643">
  <ele>1595.69</ele>
  <time>2026-08-28T19:10:34Z</time>
  <course>8.5</course>
  <speed>0.49648766349225637</speed>
  <fix>3d</fix>
</trkpt>
<trkpt lat="40.0728137" lon="-105.230644">
  <ele>1595.6</ele>
  <time>2026-08-28T19:10:34Z</time>
  <course>83.56</course>
  <speed>0.58</speed>
  <fix>3d</fix>
</trkpt>
<trkpt lat="40.0728138" lon="-105.230642">
  <ele>1595.7</ele>
  <time>2026-08-28T19:10:34Z</time>
  <course>8.58</course>
  <speed>0.340147027033899</speed>
  <fix>3d</fix>
</trkpt>
<trkpt lat="40.0728139" lon="-105.2306428">
  <ele>1595.6</ele>
  <time>2026-08-28T19:10:34Z</time>
  <course>74.69</course>
  <speed>0.46</speed>
  <fix>3d</fix>
</trkpt>
<trkpt lat="40.0728142" lon="-105.2306416">
  <ele>1595.7</ele>
  <time>2026-08-28T19:10:34Z</time>
  <course>8.61</course>
  <speed>0.20591260281974003</speed>
  <fix>3d</fix>
</trkpt>
<trkpt lat="40.0728141" lon="-105.2306419">
  <ele>1595.61</ele>
  <time>2026-08-28T19:10:34Z</time>
  <course>57.02</course>
  <speed>0.3</speed>
  <fix>3d</fix>
</trkpt>
<trkpt lat="40.0728146" lon="-105.2306415">
  <ele>1595.7</ele>
  <time>2026-08-28T19:10:34Z</time>
  <course>8.6</course>
  <speed>0.22825424421026652</speed>
  <fix>3d</fix>
</trkpt>
<trkpt lat="40.0728144" lon="-105.2306416">
  <ele>1595.6</ele>
  <time>2026-08-28T19:10:34Z</time>
  <course>12.72</course>
  <speed>0.2</speed>
  <fix>3d</fix>
</trkpt>
<trkpt lat="40.0728149" lon="-105.230642">
  <ele>1595.7</ele>
  <time>2026-08-28T19:10:34Z</time>
  <course>8.57</course>
  <speed>0.33600595232822883</speed>
  <fix>3d</fix>
</trkpt>
<trkpt lat="40.0728148" lon="-105.2306418">
  <ele>1595.6</ele>
  <time>2026-08-28T19:10:34Z</time>
  <course>322.34</course>
  <speed>0.26</speed>
  <fix>3d</fix>
</trkpt>
<trkpt lat="40.0728153" lon="-105.2306427">
  <ele>1595.7</ele>
  <time>2026-08-28T19:10:34Z</time>
  <course>8.61</course>
  <speed>0.3757658845611187</speed>
  <fix>3d</fix>
</trkpt>
<trkpt lat="40.0728151" lon="-105.2306423">
  <ele>1595.6</ele>
  <time>2026-08-28T19:10:34Z</time>
  <course>302.44</course>
  <speed>0.36</speed>
  <fix>3d</fix>
</trkpt>
<trkpt lat="40.0728156" lon="-105.2306435">
  <ele>1595.7</ele>
  <time>2026-08-28T19:10:34Z</time>
  <course>8.64</course>
  <speed>0.37947331922020555</speed>
  <fix>3d</fix>
</trkpt>
<trkpt lat="40.0728155" lon="-105.2306431">
  <ele>1595.59</ele>
  <time>2026-08-28T19:10:34Z</time>
  <course>293.33</course>
  <speed>0.4</speed>
  <fix>3d</fix>
</trkpt>
<trkpt lat="40.0728158" lon="-105.2306444">
  <ele>1595.69</ele>
  <time>2026-08-28T19:10:35Z</time>
  <course>8.62</course>
  <speed>0.35171010790137947</speed>
  <fix>3d</fix>
</trkpt>
<trkpt lat="40.0728158" lon="-105.2306439">
  <ele>1595.59</ele>
  <time>2026-08-28T19:10:35Z</time>
  <course>287.96</course>
  <speed>0.4</speed>
  <fix>3d</fix>
</trkpt>
<trkpt lat="40.0728159" lon="-105.2306452">
  <ele>1595.69</ele>
  <time>2026-08-28T19:10:35Z</time>
  <course>8.64</course>
  <speed>0.3178049716414141</speed>
  <fix>3d</fix>
</trkpt>
<trkpt lat="40.0728159" lon="-105.2306447">
  <ele>1595.59</ele>
  <time>2026-08-28T19:10:35Z</time>
  <course>284.76</course>
  <speed>0.37</speed>
  <fix>3d</fix>
</trkpt>
<trkpt lat="40.0728161" lon="-105.2306459">
  <ele>1595.69</ele>
  <time>2026-08-28T19:10:35Z</time>
  <course>8.63</course>
  <speed>0.2863564212655271</speed>
  <fix>3d</fix>
</trkpt>
<trkpt lat="40.0728161" lon="-105.2306456">
  <ele>1595.59</ele>
  <time>2026-08-28T19:10:35Z</time>
  <course>283.08</course>
  <speed>0.34</speed>
  <fix>3d</fix>
</trkpt>
<trkpt lat="40.0728162" lon="-105.2306466">
  <ele>1595.68</ele>
  <time>2026-08-28T19:10:35Z</time>
  <course>8.59</course>
  <speed>0.24515301344262524</speed>
  <fix>3d</fix>
</trkpt>
<trkpt lat="40.0728162" lon="-105.2306463">
  <ele>1595.58</ele>
  <time>2026-08-28T19:10:35Z</time>
  <course>282.56</course>
  <speed>0.3</speed>
  <fix>3d</fix>
</trkpt>
<trkpt lat="40.0728163" lon="-105.2306472">
  <ele>1595.68</ele>
  <time>2026-08-28T19:10:35Z</time>
  <course>8.58</course>
  <speed>0.21377558326431947</speed>
  <fix>3d</fix>
</trkpt>
<trkpt lat="40.0728163" lon="-105.230647">
  <ele>1595.58</ele>
  <time>2026-08-28T19:10:35Z</time>
  <course>282.92</course>
  <speed>0.27</speed>
  <fix>3d</fix>
</trkpt>
<trkpt lat="40.0728164" lon="-105.2306477">
  <ele>1595.68</ele>
  <time>2026-08-28T19:10:35Z</time>
  <course>8.58</course>
  <speed>0.18439088914585774</speed>
  <fix>3d</fix>
</trkpt>
<trkpt lat="40.0728164" lon="-105.2306476">
  <ele>1595.58</ele>
  <time>2026-08-28T19:10:35Z</time>
  <course>283.9</course>
  <speed>0.24</speed>
  <fix>3d</fix>
</trkpt>
<trkpt lat="40.0728165" lon="-105.2306482">
  <ele>1595.67</ele>
  <time>2026-08-28T19:10:35Z</time>
  <course>8.57</course>
  <speed>0.1649242250247064</speed>
  <fix>3d</fix>
</trkpt>
<trkpt lat="40.0728165" lon="-105.2306481">
  <ele>1595.58</ele>
  <time>2026-08-28T19:10:35Z</time>
  <course>285.43</course>
  <speed>0.21</speed>
  <fix>3d</fix>
</trkpt>
<trkpt lat="40.0728166" lon="-105.2306486">
  <ele>1595.68</ele>
  <time>2026-08-28T19:10:35Z</time>
  <course>8.56</course>
  <speed>0.14560219778561037</speed>
  <fix>3d</fix>
</trkpt>
<trkpt lat="40.0728166" lon="-105.2306486">
  <ele>1595.58</ele>
  <time>2026-08-28T19:10:35Z</time>
  <course>287.48</course>
  <speed>0.19</speed>
  <fix>3d</fix>
</trkpt>
<trkpt lat="40.0728167" lon="-105.230649">
  <ele>1595.68</ele>
  <time>2026-08-28T19:10:35Z</time>
  <course>8.56</course>
  <speed>0.1264911064067352</speed>
  <fix>3d</fix>
</trkpt>
<trkpt lat="40.0728167" lon="-105.230649">
  <ele>1595.58</ele>
  <time>2026-08-28T19:10:35Z</time>
  <course>289.88</course>
  <speed>0.17</speed>
  <fix>3d</fix>
</trkpt>
<trkpt lat="40.0728167" lon="-105.2306493">
  <ele>1595.68</ele>
  <time>2026-08-28T19:10:35Z</time>
  <course>8.56</course>
  <speed>0.11704699910719625</speed>
  <fix>3d</fix>
</trkpt>
<trkpt lat="40.0728168" lon="-105.2306493">
  <ele>1595.58</ele>
  <time>2026-08-28T19:10:35Z</time>
  <course>292.63</course>
  <speed>0.15</speed>
  <fix>3d</fix>
</trkpt>
<trkpt lat="40.0728168" lon="-105.2306496">
  <ele>1595.68</ele>
  <time>2026-08-28T19:10:35Z</time>
  <course>8.56</course>
  <speed>0.09848857801796104</speed>
  <fix>3d</fix>
</trkpt>
<trkpt lat="40.0728169" lon="-105.2306496">
  <ele>1595.58</ele>
  <time>2026-08-28T19:10:35Z</time>
  <course>295.72</course>
  <speed>0.14</speed>
  <fix>3d</fix>
</trkpt>
<trkpt lat="40.0728169" lon="-105.2306498">
  <ele>1595.68</ele>
  <time>2026-08-28T19:10:35Z</time>
  <course>8.56</course>
  <speed>0.08944271909999159</speed>
  <fix>3d</fix>
</trkpt>
<trkpt lat="40.072817" lon="-105.2306499">
  <ele>1595.59</ele>
  <time>2026-08-28T19:10:35Z</time>
  <course>298.88</course>
  <speed>0.12</speed>
  <fix>3d</fix>
</trkpt>
<trkpt lat="40.072817" lon="-105.2306501">
  <ele>1595.68</ele>
  <time>2026-08-28T19:10:35Z</time>
  <course>8.56</course>
  <speed>0.08062257748298549</speed>
  <fix>3d</fix>
</trkpt>
<trkpt lat="40.0728172" lon="-105.2306501">
  <ele>1595.59</ele>
  <time>2026-08-28T19:10:35Z</time>
  <course>302.03</course>
  <speed>0.11</speed>
  <fix>3d</fix>
</trkpt>
<trkpt lat="40.0728172" lon="-105.2306503">
  <ele>1595.68</ele>
  <time>2026-08-28T19:10:35Z</time>
  <course>8.56</course>
  <speed>0.07211102550927978</speed>
  <fix>3d</fix>
</trkpt>
<trkpt lat="40.0728173" lon="-105.2306504">
  <ele>1595.59</ele>
  <time>2026-08-28T19:10:35Z</time>
  <course>305.28</course>
  <speed>0.1</speed>
  <fix>3d</fix>
</trkpt>
<trkpt lat="40.0728173" lon="-105.2306504">
  <ele>1595.68</ele>
  <time>2026-08-28T19:10:35Z</time>
  <course>8.56</course>
  <speed>0.06403124237432849</speed>
  <fix>3d</fix>
</trkpt>
<trkpt lat="40.0728174" lon="-105.2306505">
  <ele>1595.59</ele>
  <time>2026-08-28T19:10:35Z</time>
  <course>308.63</course>
  <speed>0.1</speed>
  <fix>3d</fix>
</trkpt>
<trkpt lat="40.0728174" lon="-105.2306506">
  <ele>1595.68</ele>
  <time>2026-08-28T19:10:35Z</time>
  <course>8.59</course>
  <speed>0.06403124237432849</speed>
  <fix>3d</fix>
</trkpt>
<trkpt lat="40.0728175" lon="-105.2306508">
  <ele>1595.59</ele>
  <time>2026-08-28T19:10:35Z</time>
  <course>313.48</course>
  <speed>0.09</speed>
  <fix>3d</fix>
</trkpt>
<trkpt lat="40.0728176" lon="-105.2306507">
  <ele>1595.68</ele>
  <time>2026-08-28T19:10:35Z</time>
  <course>8.59</course>
  <speed>0.09219544457292887</speed>
  <fix>3d</fix>
</trkpt>
<trkpt lat="40.0728177" lon="-105.2306509">
  <ele>1595.59</ele>
  <time>2026-08-28T19:10:35Z</time>
  <course>325.55</course>
  <speed>0.1</speed>
  <fix>3d</fix>
</trkpt>
<trkpt lat="40.0728178" lon="-105.2306508">
  <ele>1595.69</ele>
  <time>2026-08-28T19:10:35Z</time>
  <course>8.59</course>
  <speed>0.16</speed>
  <fix>3d</fix>
</trkpt>
<trkpt lat="40.0728178" lon="-105.230651">
  <ele>1595.59</ele>
  <time>2026-08-28T19:10:35Z</time>
  <course>344.48</course>
  <speed>0.13</speed>
  <fix>3d</fix>
</trkpt>
<trkpt lat="40.0728182" lon="-105.2306508">
  <ele>1595.69</ele>
  <time>2026-08-28T19:10:35Z</time>
  <course>8.57</course>
  <speed>0.26305892875931813</speed>
  <fix>3d</fix>
</trkpt>
<trkpt lat="40.0728182" lon="-105.230651">
  <ele>1595.59</ele>
  <time>2026-08-28T19:10:35Z</time>
  <course>358.47</course>
  <speed>0.2</speed>
  <fix>3d</fix>
</trkpt>
<trkpt lat="40.0728189" lon="-105.2306507">
  <ele>1595.69</ele>
  <time>2026-08-28T19:10:35Z</time>
  <course>8.54</course>
  <speed>0.388329756778952</speed>
  <fix>3d</fix>
</trkpt>
<trkpt lat="40.0728186" lon="-105.230651">
  <ele>1595.59</ele>
  <time>2026-08-28T19:10:35Z</time>
  <course>5.15</course>
  <speed>0.31</speed>
  <fix>3d</fix>
</trkpt>
<trkpt lat="40.0728197" lon="-105.2306506">
  <ele>1595.68</ele>
  <time>2026-08-28T19:10:35Z</time>
  <course>8.5</course>
  <speed>0.5099019513592785</speed>
  <fix>3d</fix>
</trkpt>
<trkpt lat="40.0728193" lon="-105.230651">
  <ele>1595.59</ele>
  <time>2026-08-28T19:10:35Z</time>
  <course>7.75</course>
  <speed>0.44</speed>
  <fix>3d</fix>
</trkpt>
<trkpt lat="40.0728207" lon="-105.2306504">
  <ele>1595.68</ele>
  <time>2026-08-28T19:10:35Z</time>
  <course>8.47</course>
  <speed>0.6216912416947821</speed>
  <fix>3d</fix>
</trkpt>
<trkpt lat="40.0728201" lon="-105.2306509">
  <ele>1595.59</ele>
  <time>2026-08-28T19:10:35Z</time>
  <course>8.33</course>
  <speed>0.56</speed>
  <fix>3d</fix>
</trkpt>
<trkpt lat="40.0728219" lon="-105.2306502">
  <ele>1595.68</ele>
  <time>2026-08-28T19:10:35Z</time>
  <course>8.41</course>
  <speed>0.6987131027825368</speed>
  <fix>3d</fix>
</trkpt>
<trkpt lat="40.0728213" lon="-105.2306506">
  <ele>1595.59</ele>
  <time>2026-08-28T19:10:35Z</time>
  <course>7.81</course>
  <speed>0.66</speed>
  <fix>3d</fix>
</trkpt>
<trkpt lat="40.0728232" lon="-105.23065">
  <ele>1595.67</ele>
  <time>2026-08-28T19:10:35Z</time>
  <course>8.38</course>
  <speed>0.7256031973468694</speed>
  <fix>3d</fix>
</trkpt>
<trkpt lat="40.0728225" lon="-105.2306505">
  <ele>1595.59</ele>
  <time>2026-08-28T19:10:35Z</time>
  <course>6.6</course>
  <speed>0.73</speed>
  <fix>3d</fix>
</trkpt>
<trkpt lat="40.0728245" lon="-105.2306499">
  <ele>1595.68</ele>
  <time>2026-08-28T19:10:35Z</time>
  <course>8.4</course>
  <speed>0.6926037828369117</speed>
  <fix>3d</fix>
</trkpt>
<trkpt lat="40.0728238" lon="-105.2306503">
  <ele>1595.59</ele>
  <time>2026-08-28T19:10:35Z</time>
  <course>4.83</course>
  <speed>0.74</speed>
  <fix>3d</fix>
</trkpt>
<trkpt lat="40.0728257" lon="-105.2306499">
  <ele>1595.68</ele>
  <time>2026-08-28T19:10:35Z</time>
  <course>8.45</course>
  <speed>0.6000833275470999</speed>
  <fix>3d</fix>
</trkpt>
<trkpt lat="40.0728252" lon="-105.2306502">
  <ele>1595.59</ele>
  <time>2026-08-28T19:10:35Z</time>
  <course>2.43</course>
  <speed>0.7</speed>
  <fix>3d</fix>
</trkpt>
<trkpt lat="40.0728267" lon="-105.2306499">
  <ele>1595.68</ele>
  <time>2026-08-28T19:10:35Z</time>
  <course>8.5</course>
  <speed>0.4509988913511872</speed>
  <fix>3d</fix>
</trkpt>
<trkpt lat="40.0728263" lon="-105.2306502">
  <ele>1595.6</ele>
  <time>2026-08-28T19:10:35Z</time>
  <course>358.95</course>
  <speed>0.6</speed>
  <fix>3d</fix>
</trkpt>
<trkpt lat="40.0728274" lon="-105.2306501">
  <ele>1595.68</ele>
  <time>2026-08-28T19:10:35Z</time>
  <course>8.52</course>
  <speed>0.2692582403567252</speed>
  <fix>3d</fix>
</trkpt>
<trkpt lat="40.0728273" lon="-105.2306502">
  <ele>1595.6</ele>
  <time>2026-08-28T19:10:35Z</time>
  <course>352.98</course>
  <speed>0.44</speed>
  <fix>3d</fix>
</trkpt>
<trkpt lat="40.0728278" lon="-105.2306503">
  <ele>1595.68</ele>
  <time>2026-08-28T19:10:35Z</time>
  <course>8.55</course>
  <speed>0.12369316876852982</speed>
  <fix>3d</fix>
</trkpt>
<trkpt lat="40.0728279" lon="-105.2306504">
  <ele>1595.6</ele>
  <time>2026-08-28T19:10:35Z</time>
  <course>338.11</course>
  <speed>0.25</speed>
  <fix>3d</fix>
</trkpt>
<trkpt lat="40.0728277" lon="-105.2306507">
  <ele>1595.68</ele>
  <time>2026-08-28T19:10:35Z</time>
  <course>8.53</course>
  <speed>0.24413111231467405</speed>
  <fix>3d</fix>
</trkpt>
<trkpt lat="40.0728281" lon="-105.2306506">
  <ele>1595.61</ele>
  <time>2026-08-28T19:10:35Z</time>
  <course>271.0</course>
  <speed>0.12</speed>
  <fix>3d</fix>
</trkpt>
<trkpt lat="40.0728272" lon="-105.2306511">
  <ele>1595.68</ele>
  <time>2026-08-28T19:10:35Z</time>
  <course>8.49</course>
  <speed>0.44944410108488464</speed>
  <fix>3d</fix>
</trkpt>
<trkpt lat="40.072828" lon="-105.2306509">
  <ele>1595.61</ele>
  <time>2026-08-28T19:10:35Z</time>
  <course>211.41</course>
  <speed>0.27</speed>
  <fix>3d</fix>
</trkpt>
<trkpt lat="40.0728264" lon="-105.2306514">
  <ele>1595.68</ele>
  <time>2026-08-28T19:10:35Z</time>
  <course>8.48</course>
  <speed>0.6378871373526824</speed>
  <fix>3d</fix>
</trkpt>
<trkpt lat="40.0728273" lon="-105.2306512">
  <ele>1595.61</ele>
  <time>2026-08-28T19:10:35Z</time>
  <course>197.82</course>
  <speed>0.48</speed>
  <fix>3d</fix>
</trkpt>
<trkpt lat="40.0728253" lon="-105.2306517">
  <ele>1595.67</ele>
  <time>2026-08-28T19:10:35Z</time>
  <course>8.46</course>
  <speed>0.7710382610480494</speed>
  <fix>3d</fix>
</trkpt>
<trkpt lat="40.0728263" lon="-105.2306516">
  <ele>1595.61</ele>
  <time>2026-08-28T19:10:35Z</time>
  <course>191.75</course>
  <speed>0.66</speed>
  <fix>3d</fix>
</trkpt>
<trkpt lat="40.0728239" lon="-105.230652">
  <ele>1595.67</ele>
  <time>2026-08-28T19:10:35Z</time>
  <course>8.46</course>
  <speed>0.8338465086573187</speed>
  <fix>3d</fix>
</trkpt>
<trkpt lat="40.072825" lon="-105.2306519">
  <ele>1595.61</ele>
  <time>2026-08-28T19:10:35Z</time>
  <course>187.72</course>
  <speed>0.78</speed>
  <fix>3d</fix>
</trkpt>
<trkpt lat="40.0728225" lon="-105.2306521">
  <ele>1595.67</ele>
  <time>2026-08-28T19:10:35Z</time>
  <course>8.48</course>
  <speed>0.8305419917138447</speed>
  <fix>3d</fix>
</trkpt>
<trkpt lat="40.0728236" lon="-105.230652">
  <ele>1595.61</ele>
  <time>2026-08-28T19:10:35Z</time>
  <course>184.34</course>
  <speed>0.83</speed>
  <fix>3d</fix>
</trkpt>
<trkpt lat="40.0728211" lon="-105.2306521">
  <ele>1595.67</ele>
  <time>2026-08-28T19:10:35Z</time>
  <course>8.5</course>
  <speed>0.7502666192761077</speed>
  <fix>3d</fix>
</trkpt>
<trkpt lat="40.0728221" lon="-105.2306522">
  <ele>1595.61</ele>
  <time>2026-08-28T19:10:35Z</time>
  <course>180.91</course>
  <speed>0.81</speed>
  <fix>3d</fix>
</trkpt>
<trkpt lat="40.0728199" lon="-105.230652">
  <ele>1595.68</ele>
  <time>2026-08-28T19:10:35Z</time>
  <course>8.5</course>
  <speed>0.6053098380168622</speed>
  <fix>3d</fix>
</trkpt>
<trkpt lat="40.0728207" lon="-105.2306521">
  <ele>1595.62</ele>
  <time>2026-08-28T19:10:35Z</time>
  <course>176.79</course>
  <speed>0.71</speed>
  <fix>3d</fix>
</trkpt>
<trkpt lat="40.072819" lon="-105.2306518">
  <ele>1595.68</ele>
  <time>2026-08-28T19:10:35Z</time>
  <course>8.58</course>
  <speed>0.41109609582188933</speed>
  <fix>3d</fix>
</trkpt>
<trkpt lat="40.0728196" lon="-105.230652">
  <ele>1595.63</ele>
  <time>2026-08-28T19:10:35Z</time>
  <course>170.76</course>
  <speed>0.55</speed>
  <fix>3d</fix>
</trkpt>
<trkpt lat="40.0728185" lon="-105.2306515">
  <ele>1595.69</ele>
  <time>2026-08-28T19:10:35Z</time>
  <course>8.57</course>
  <speed>0.22022715545545238</speed>
  <fix>3d</fix>
</trkpt>
<trkpt lat="40.0728187" lon="-105.2306518">
  <ele>1595.63</ele>
  <time>2026-08-28T19:10:35Z</time>
  <course>158.57</course>
  <speed>0.35</speed>
  <fix>3d</fix>
</trkpt>
<trkpt lat="40.0728185" lon="-105.2306511">
  <ele>1595.69</ele>
  <time>2026-08-28T19:10:35Z</time>
  <course>8.54</course>
  <speed>0.22472205054244232</speed>
  <fix>3d</fix>
</trkpt>
<trkpt lat="40.0728184" lon="-105.2306514">
  <ele>1595.64</ele>
  <time>2026-08-28T19:10:35Z</time>
  <course>116.27</course>
  <speed>0.17</speed>
  <fix>3d</fix>
</trkpt>
<trkpt lat="40.0728189" lon="-105.2306506">
  <ele>1595.69</ele>
  <time>2026-08-28T19:10:35Z</time>
  <course>8.52</course>
  <speed>0.4159326868617084</speed>
  <fix>3d</fix>
</trkpt>
<trkpt lat="40.0728184" lon="-105.230651">
  <ele>1595.64</ele>
  <time>2026-08-28T19:10:35Z</time>
  <course>41.44</course>
  <speed>0.24</speed>
  <fix>3d</fix>
</trkpt>
<trkpt lat="40.0728196" lon="-105.2306502">
  <ele>1595.68</ele>
  <time>2026-08-28T19:10:35Z</time>
  <course>8.43</course>
  <speed>0.6140032573203501</speed>
  <fix>3d</fix>
</trkpt>
<trkpt lat="40.0728189" lon="-105.2306507">
  <ele>1595.64</ele>
  <time>2026-08-28T19:10:35Z</time>
  <course>19.51</course>
  <speed>0.46</speed>
  <fix>3d</fix>
</trkpt>
<trkpt lat="40.0728208" lon="-105.2306499">
  <ele>1595.67</ele>
  <time>2026-08-28T19:10:35Z</time>
  <course>8.36</course>
  <speed>0.7611832893594026</speed>
  <fix>3d</fix>
</trkpt>
<trkpt lat="40.07282" lon="-105.2306504">
  <ele>1595.63</ele>
  <time>2026-08-28T19:10:35Z</time>
  <course>10.96</course>
  <speed>0.65</speed>
  <fix>3d</fix>
</trkpt>
<trkpt lat="40.0728223" lon="-105.2306498">
  <ele>1595.67</ele>
  <time>2026-08-28T19:10:35Z</time>
  <course>8.32</course>
  <speed>0.8438009243891595</speed>
  <fix>3d</fix>
</trkpt>
<trkpt lat="40.0728213" lon="-105.2306501">
  <ele>1595.63</ele>
  <time>2026-08-28T19:10:35Z</time>
  <course>5.72</course>
  <speed>0.79</speed>
  <fix>3d</fix>
</trkpt>
<trkpt lat="40.0728238" lon="-105.2306497">
  <ele>1595.67</ele>
  <time>2026-08-28T19:10:35Z</time>
  <course>8.31</course>
  <speed>0.8600581375697809</speed>
  <fix>3d</fix>
</trkpt>
<trkpt lat="40.0728228" lon="-105.23065">
  <ele>1595.63</ele>
  <time>2026-08-28T19:10:35Z</time>
  <course>1.53</course>
  <speed>0.87</speed>
  <fix>3d</fix>
</trkpt>
<trkpt lat="40.0728253" lon="-105.2306498">
  <ele>1595.68</ele>
  <time>2026-08-28T19:10:35Z</time>
  <course>8.37</course>
  <speed>0.7810249675906654</speed>
  <fix>3d</fix>
</trkpt>
<trkpt lat="40.0728244" lon="-105.23065">
  <ele>1595.64</ele>
  <time>2026-08-28T19:10:35Z</time>
  <course>357.42</course>
  <speed>0.86</speed>
  <fix>3d</fix>
</trkpt>
<trkpt lat="40.0728266" lon="-105.23065">
  <ele>1595.69</ele>
  <time>2026-08-28T19:10:35Z</time>
  <course>8.46</course>
  <speed>0.6493843238021688</speed>
  <fix>3d</fix>
</trkpt>
<trkpt lat="40.0728259" lon="-105.2306501">
  <ele>1595.64</ele>
  <time>2026-08-28T19:10:35Z</time>
  <course>352.6</course>
  <speed>0.78</speed>
  <fix>3d</fix>
</trkpt>
<trkpt lat="40.0728276" lon="-105.2306504">
  <ele>1595.7</ele>
  <time>2026-08-28T19:10:35Z</time>
  <course>8.52</course>
  <speed>0.45880278987817846</speed>
  <fix>3d</fix>
</trkpt>
<trkpt lat="40.0728271" lon="-105.2306504">
  <ele>1595.65</ele>
  <time>2026-08-28T19:10:35Z</time>
  <course>345.78</course>
  <speed>0.63</speed>
  <fix>3d</fix>
</trkpt>
<trkpt lat="40.0728282" lon="-105.2306509">
  <ele>1595.71</ele>
  <time>2026-08-28T19:10:35Z</time>
  <course>8.58</course>
  <speed>0.2690724809414742</speed>
  <fix>3d</fix>
</trkpt>
<trkpt lat="40.072828" lon="-105.2306508">
  <ele>1595.66</ele>
  <time>2026-08-28T19:10:35Z</time>
  <course>333.39</course>
  <speed>0.44</speed>
  <fix>3d</fix>
</trkpt>
<trkpt lat="40.0728283" lon="-105.2306515">
  <ele>1595.71</ele>
  <time>2026-08-28T19:10:35Z</time>
  <course>8.62</course>
  <speed>0.2340939982143925</speed>
  <fix>3d</fix>
</trkpt>
<trkpt lat="40.0728285" lon="-105.2306513">
  <ele>1595.66</ele>
  <time>2026-08-28T19:10:35Z</time>
  <course>302.11</course>
  <speed>0.26</speed>
  <fix>3d</fix>
</trkpt>
<trkpt lat="40.072828" lon="-105.230652">
  <ele>1595.71</ele>
  <time>2026-08-28T19:10:35Z</time>
  <course>8.63</course>
  <speed>0.4049691346263317</speed>
  <fix>3d</fix>
</trkpt>
<trkpt lat="40.0728285" lon="-105.2306519">
  <ele>1595.66</ele>
  <time>2026-08-28T19:10:35Z</time>
  <course>241.68</course>
  <speed>0.26</speed>
  <fix>3d</fix>
</trkpt>
<trkpt lat="40.0728274" lon="-105.2306526">
  <ele>1595.71</ele>
  <time>2026-08-28T19:10:35Z</time>
  <course>8.6</course>
  <speed>0.5946427498927402</speed>
  <fix>3d</fix>
</trkpt>
<trkpt lat="40.072828" lon="-105.2306524">
  <ele>1595.65</ele>
  <time>2026-08-28T19:10:35Z</time>
  <course>210.28</course>
  <speed>0.43</speed>
  <fix>3d</fix>
</trkpt>
<trkpt lat="40.0728263" lon="-105.230653">
  <ele>1595.71</ele>
  <time>2026-08-28T19:10:35Z</time>
  <course>8.58</course>
  <speed>0.7473285756613351</speed>
  <fix>3d</fix>
</trkpt>
<trkpt lat="40.0728273" lon="-105.2306529">
  <ele>1595.64</ele>
  <time>2026-08-28T19:10:35Z</time>
  <course>197.78</course>
  <speed>0.61</speed>
  <fix>3d</fix>
</trkpt>
<trkpt lat="40.0728249" lon="-105.2306533">
  <ele>1595.7</ele>
  <time>2026-08-28T19:10:35Z</time>
  <course>8.57</course>
  <speed>0.8260750571225353</speed>
  <fix>3d</fix>
</trkpt>
<trkpt lat="40.0728261" lon="-105.2306533">
  <ele>1595.64</ele>
  <time>2026-08-28T19:10:35Z</time>
  <course>190.8</course>
  <speed>0.75</speed>
  <fix>3d</fix>
</trkpt>
<trkpt lat="40.0728235" lon="-105.2306535">
  <ele>1595.7</ele>
  <time>2026-08-28T19:10:35Z</time>
  <course>8.57</course>
  <speed>0.840535543567314</speed>
  <fix>3d</fix>
</trkpt>
<trkpt lat="40.0728246" lon="-105.2306535">
  <ele>1595.63</ele>
  <time>2026-08-28T19:10:35Z</time>
  <course>185.71</course>
  <speed>0.82</speed>
  <fix>3d</fix>
</trkpt>
<trkpt lat="40.0728221" lon="-105.2306535">
  <ele>1595.71</ele>
  <time>2026-08-28T19:10:35Z</time>
  <course>8.62</course>
  <speed>0.7705841939723393</speed>
  <fix>3d</fix>
</trkpt>
<trkpt lat="40.0728232" lon="-105.2306536">
  <ele>1595.63</ele>
  <time>2026-08-28T19:10:35Z</time>
  <course>181.14</course>
  <speed>0.82</speed>
  <fix>3d</fix>
</trkpt>
<trkpt lat="40.0728209" lon="-105.2306535">
  <ele>1595.71</ele>
  <time>2026-08-28T19:10:35Z</time>
  <course>8.63</course>
  <speed>0.6378871373526824</speed>
  <fix>3d</fix>
</trkpt>
<trkpt lat="40.0728218" lon="-105.2306536">
  <ele>1595.63</ele>
  <time>2026-08-28T19:10:35Z</time>
  <course>176.13</course>
  <speed>0.73</speed>
  <fix>3d</fix>
</trkpt>
<trkpt lat="40.07282" lon="-105.2306532">
  <ele>1595.7</ele>
  <time>2026-08-28T19:10:35Z</time>
  <course>8.61</course>
  <speed>0.44944410108488464</speed>
  <fix>3d</fix>
</trkpt>
<trkpt lat="40.0728206" lon="-105.2306534">
  <ele>1595.63</ele>
  <time>2026-08-28T19:10:35Z</time>
  <course>169.26</course>
  <speed>0.58</speed>
  <fix>3d</fix>
</trkpt>
<trkpt lat="40.0728194" lon="-105.2306528">
  <ele>1595.7</ele>
  <time>2026-08-28T19:10:35Z</time>
  <course>8.58</course>
  <speed>0.26248809496813374</speed>
  <fix>3d</fix>
</trkpt>
<trkpt lat="40.0728197" lon="-105.2306532">
  <ele>1595.62</ele>
  <time>2026-08-28T19:10:35Z</time>
  <course>156.44</course>
  <speed>0.38</speed>
  <fix>3d</fix>
</trkpt>
<trkpt lat="40.0728193" lon="-105.2306523">
  <ele>1595.69</ele>
  <time>2026-08-28T19:10:35Z</time>
  <course>8.55</course>
  <speed>0.23769728648009425</speed>
  <fix>3d</fix>
</trkpt>
<trkpt lat="40.0728193" lon="-105.2306528">
  <ele>1595.62</ele>
  <time>2026-08-28T19:10:35Z</time>
  <course>118.89</course>
  <speed>0.21</speed>
  <fix>3d</fix>
</trkpt>
<trkpt lat="40.0728197" lon="-105.2306518">
  <ele>1595.69</ele>
  <time>2026-08-28T19:10:35Z</time>
  <course>8.52</course>
  <speed>0.41340053217188777</speed>
  <fix>3d</fix>
</trkpt>
<trkpt lat="40.0728193" lon="-105.2306524">
  <ele>1595.62</ele>
  <time>2026-08-28T19:10:35Z</time>
  <course>49.64</course>
  <speed>0.25</speed>
  <fix>3d</fix>
</trkpt>
<trkpt lat="40.0728204" lon="-105.2306514">
  <ele>1595.68</ele>
  <time>2026-08-28T19:10:35Z</time>
  <course>8.47</course>
  <speed>0.6040695324215583</speed>
  <fix>3d</fix>
</trkpt>
<trkpt lat="40.0728198" lon="-105.2306519">
  <ele>1595.61</ele>
  <time>2026-08-28T19:10:35Z</time>
  <course>23.51</course>
  <speed>0.45</speed>
  <fix>3d</fix>
</trkpt>
<trkpt lat="40.0728216" lon="-105.230651">
  <ele>1595.68</ele>
  <time>2026-08-28T19:10:35Z</time>
  <course>8.37</course>
  <speed>0.7550496672405067</speed>
  <fix>3d</fix>
</trkpt>
<trkpt lat="40.0728207" lon="-105.2306515">
  <ele>1595.6</ele>
  <time>2026-08-28T19:10:35Z</time>
  <course>13.31</course>
  <speed>0.65</speed>
  <fix>3d</fix>
</trkpt>
<trkpt lat="40.072823" lon="-105.2306508">
  <ele>1595.68</ele>
  <time>2026-08-28T19:10:35Z</time>
  <course>8.34</course>
  <speed>0.8448076704197234</speed>
  <fix>3d</fix>
</trkpt>
<trkpt lat="40.072822" lon="-105.2306512">
  <ele>1595.6</ele>
  <time>2026-08-28T19:10:35Z</time>
  <course>7.27</course>
  <speed>0.79</speed>
  <fix>3d</fix>
</trkpt>
<trkpt lat="40.0728245" lon="-105.2306507">
  <ele>1595.69</ele>
  <time>2026-08-28T19:10:35Z</time>
  <course>8.37</course>
  <speed>0.8502352615599991</speed>
  <fix>3d</fix>
</trkpt>
<trkpt lat="40.0728235" lon="-105.230651">
  <ele>1595.6</ele>
  <time>2026-08-28T19:10:35Z</time>
  <course>2.59</course>
  <speed>0.86</speed>
  <fix>3d</fix>
</trkpt>
<trkpt lat="40.072826" lon="-105.2306508">
  <ele>1595.69</ele>
  <time>2026-08-28T19:10:35Z</time>
  <course>8.44</course>
  <speed>0.7810249675906654</speed>
  <fix>3d</fix>
</trkpt>
<trkpt lat="40.0728251" lon="-105.230651">
  <ele>1595.6</ele>
  <time>2026-08-28T19:10:35Z</time>
  <course>358.16</course>
  <speed>0.86</speed>
  <fix>3d</fix>
</trkpt>
<trkpt lat="40.0728273" lon="-105.230651">
  <ele>1595.7</ele>
  <time>2026-08-28T19:10:35Z</time>
  <course>8.48</course>
  <speed>0.6493843238021688</speed>
  <fix>3d</fix>
</trkpt>
<trkpt lat="40.0728266" lon="-105.2306511">
  <ele>1595.6</ele>
  <time>2026-08-28T19:10:35Z</time>
  <course>353.14</course>
  <speed>0.78</speed>
  <fix>3d</fix>
</trkpt>
<trkpt lat="40.0728283" lon="-105.2306514">
  <ele>1595.7</ele>
  <time>2026-08-28T19:10:35Z</time>
  <course>8.54</course>
  <speed>0.45880278987817846</speed>
  <fix>3d</fix>
</trkpt>
<trkpt lat="40.0728278" lon="-105.2306514">
  <ele>1595.61</ele>
  <time>2026-08-28T19:10:35Z</time>
  <course>346.2</course>
  <speed>0.63</speed>
  <fix>3d</fix>
</trkpt>
<trkpt lat="40.0728289" lon="-105.2306519">
  <ele>1595.7</ele>
  <time>2026-08-28T19:10:35Z</time>
  <course>8.61</course>
  <speed>0.2690724809414742</speed>
  <fix>3d</fix>
</trkpt>
<trkpt lat="40.0728287" lon="-105.2306518">
  <ele>1595.61</ele>
  <time>2026-08-28T19:10:35Z</time>
  <course>333.83</course>
  <speed>0.44</speed>
  <fix>3d</fix>
</trkpt>
<trkpt lat="40.0728291" lon="-105.2306525">
  <ele>1595.7</ele>
  <time>2026-08-28T19:10:35Z</time>
  <course>8.63</course>
  <speed>0.24351591323771843</speed>
  <fix>3d</fix>
</trkpt>
<trkpt lat="40.0728292" lon="-105.2306523">
  <ele>1595.61</ele>
  <time>2026-08-28T19:10:35Z</time>
  <course>303.31</course>
  <speed>0.27</speed>
  <fix>3d</fix>
</trkpt>
<trkpt lat="40.0728288" lon="-105.230653">
  <ele>1595.69</ele>
  <time>2026-08-28T19:10:35Z</time>
  <course>8.62</course>
  <speed>0.4022437072223753</speed>
  <fix>3d</fix>
</trkpt>
<trkpt lat="40.0728292" lon="-105.2306528">
  <ele>1595.6</ele>
  <time>2026-08-28T19:10:35Z</time>
  <course>243.56</course>
  <speed>0.26</speed>
  <fix>3d</fix>
</trkpt>
<trkpt lat="40.072828" lon="-105.2306536">
  <ele>1595.69</ele>
  <time>2026-08-28T19:10:35Z</time>
  <course>8.57</course>
  <speed>0.5946427498927402</speed>
  <fix>3d</fix>
</trkpt>
<trkpt lat="40.0728289" lon="-105.2306534">
  <ele>1595.6</ele>
  <time>2026-08-28T19:10:35Z</time>
  <course>211.27</course>
  <speed>0.43</speed>
  <fix>3d</fix>
</trkpt>
<trkpt lat="40.072827" lon="-105.230654">
  <ele>1595.69</ele>
  <time>2026-08-28T19:10:35Z</time>
  <course>8.56</course>
  <speed>0.7473285756613351</speed>
  <fix>3d</fix>
</trkpt>
<trkpt lat="40.0728281" lon="-105.2306538">
  <ele>1595.59</ele>
  <time>2026-08-28T19:10:35Z</time>
  <course>198.35</course>
  <speed>0.61</speed>
  <fix>3d</fix>
</trkpt>
<trkpt lat="40.0728257" lon="-105.2306544">
  <ele>1595.69</ele>
  <time>2026-08-28T19:10:35Z</time>
  <course>8.54</course>
  <speed>0.8372574275573791</speed>
  <fix>3d</fix>
</trkpt>
<trkpt lat="40.0728269" lon="-105.2306543">
  <ele>1595.59</ele>
  <time>2026-08-28T19:10:35Z</time>
  <course>191.17</course>
  <speed>0.75</speed>
  <fix>3d</fix>
</trkpt>
<trkpt lat="40.0728242" lon="-105.2306545">
  <ele>1595.69</ele>
  <time>2026-08-28T19:10:35Z</time>
  <course>8.55</course>
  <speed>0.8409518416651456</speed>
  <fix>3d</fix>
</trkpt>
<trkpt lat="40.0728255" lon="-105.2306546">
  <ele>1595.59</ele>
  <time>2026-08-28T19:10:35Z</time>
  <course>185.96</course>
  <speed>0.82</speed>
  <fix>3d</fix>
</trkpt>
<trkpt lat="40.0728228" lon="-105.2306546">
  <ele>1595.69</ele>
  <time>2026-08-28T19:10:35Z</time>
  <course>8.57</course>
  <speed>0.7705841939723393</speed>
  <fix>3d</fix>
</trkpt>
<trkpt lat="40.072824" lon="-105.2306547">
  <ele>1595.59</ele>
  <time>2026-08-28T19:10:35Z</time>
  <course>181.33</course>
  <speed>0.81</speed>
  <fix>3d</fix>
</trkpt>
<trkpt lat="40.0728216" lon="-105.2306544">
  <ele>1595.69</ele>
  <time>2026-08-28T19:10:35Z</time>
  <course>8.62</course>
  <speed>0.6378871373526824</speed>
  <fix>3d</fix>
</trkpt>
<trkpt lat="40.0728226" lon="-105.2306546">
  <ele>1595.59</ele>
  <time>2026-08-28T19:10:35Z</time>
  <course>176.24</course>
  <speed>0.73</speed>
  <fix>3d</fix>
</trkpt>
<trkpt lat="40.0728207" lon="-105.2306542">
  <ele>1595.69</ele>
  <time>2026-08-28T19:10:35Z</time>
  <course>8.6</course>
  <speed>0.44944410108488464</speed>
  <fix>3d</fix>
</trkpt>
<trkpt lat="40.0728214" lon="-105.2306545">
  <ele>1595.59</ele>
  <time>2026-08-28T19:10:35Z</time>
  <course>169.24</course>
  <speed>0.58</speed>
  <fix>3d</fix>
</trkpt>
<trkpt lat="40.0728202" lon="-105.2306538">
  <ele>1595.69</ele>
  <time>2026-08-28T19:10:35Z</time>
  <course>8.61</course>
  <speed>0.26248809496813374</speed>
  <fix>3d</fix>
</trkpt>
<trkpt lat="40.0728206" lon="-105.2306543">
  <ele>1595.59</ele>
  <time>2026-08-28T19:10:35Z</time>
  <course>156.2</course>
  <speed>0.38</speed>
  <fix>3d</fix>
</trkpt>
<trkpt lat="40.0728201" lon="-105.2306533">
  <ele>1595.69</ele>
  <time>2026-08-28T19:10:35Z</time>
  <course>8.57</course>
  <speed>0.23769728648009425</speed>
  <fix>3d</fix>
</trkpt>
<trkpt lat="40.0728201" lon="-105.2306538">
  <ele>1595.59</ele>
  <time>2026-08-28T19:10:35Z</time>
  <course>118.23</course>
  <speed>0.21</speed>
  <fix>3d</fix>
</trkpt>
<trkpt lat="40.0728205" lon="-105.2306529">
  <ele>1595.69</ele>
  <time>2026-08-28T19:10:35Z</time>
  <course>8.51</course>
  <speed>0.41340053217188777</speed>
  <fix>3d</fix>
</trkpt>
<trkpt lat="40.0728201" lon="-105.2306534">
  <ele>1595.58</ele>
  <time>2026-08-28T19:10:35Z</time>
  <course>49.51</course>
  <speed>0.25</speed>
  <fix>3d</fix>
</trkpt>
<trkpt lat="40.0728213" lon="-105.2306524">
  <ele>1595.68</ele>
  <time>2026-08-28T19:10:35Z</time>
  <course>8.44</course>
  <speed>0.6040695324215583</speed>
  <fix>3d</fix>
</trkpt>
<trkpt lat="40.0728206" lon="-105.2306529">
  <ele>1595.58</ele>
  <time>2026-08-28T19:10:35Z</time>
  <course>23.6</course>
  <speed>0.45</speed>
  <fix>3d</fix>
</trkpt>
<trkpt lat="40.0728224" lon="-105.2306521">
  <ele>1595.68</ele>
  <time>2026-08-28T19:10:35Z</time>
  <course>8.37</course>
  <speed>0.757099729229908</speed>
  <fix>3d</fix>
</trkpt>
<trkpt lat="40.0728216" lon="-105.2306525">
  <ele>1595.57</ele>
  <time>2026-08-28T19:10:35Z</time>
  <course>13.41</course>
  <speed>0.65</speed>
  <fix>3d</fix>
</trkpt>
<trkpt lat="40.0728238" lon="-105.2306518">
  <ele>1595.67</ele>
  <time>2026-08-28T19:10:35Z</time>
  <course>8.35</course>
  <speed>0.845931439302264</speed>
  <fix>3d</fix>
</trkpt>
<trkpt lat="40.0728229" lon="-105.2306522">
  <ele>1595.57</ele>
  <time>2026-08-28T19:10:35Z</time>
  <course>7.37</course>
  <speed>0.79</speed>
  <fix>3d</fix>
</trkpt>
<trkpt lat="40.0728253" lon="-105.2306518">
  <ele>1595.67</ele>
  <time>2026-08-28T19:10:35Z</time>
  <course>8.34</course>
  <speed>0.8505292469985968</speed>
  <fix>3d</fix>
</trkpt>
<trkpt lat="40.0728244" lon="-105.230652">
  <ele>1595.57</ele>
  <time>2026-08-28T19:10:35Z</time>
  <course>2.68</course>
  <speed>0.87</speed>
  <fix>3d</fix>
</trkpt>
<trkpt lat="40.0728268" lon="-105.2306518">
  <ele>1595.67</ele>
  <time>2026-08-28T19:10:35Z</time>
  <course>8.39</course>
  <speed>0.7910120100226039</speed>
  <fix>3d</fix>
</trkpt>
<trkpt lat="40.072826" lon="-105.230652">
  <ele>1595.57</ele>
  <time>2026-08-28T19:10:35Z</time>
  <course>358.26</course>
  <speed>0.87</speed>
  <fix>3d</fix>
</trkpt>
<trkpt lat="40.0728282" lon="-105.2306521">
  <ele>1595.68</ele>
  <time>2026-08-28T19:10:35Z</time>
  <course>8.48</course>
  <speed>0.6477653896280658</speed>
  <fix>3d</fix>
</trkpt>
<trkpt lat="40.0728275" lon="-105.2306521">
  <ele>1595.58</ele>
  <time>2026-08-28T19:10:35Z</time>
  <course>353.27</course>
  <speed>0.79</speed>
  <fix>3d</fix>
</trkpt>
<trkpt lat="40.0728292" lon="-105.2306524">
  <ele>1595.68</ele>
  <time>2026-08-28T19:10:35Z</time>
  <course>8.54</course>
  <speed>0.468187996428785</speed>
  <fix>3d</fix>
</trkpt>
<trkpt lat="40.0728287" lon="-105.2306524">
  <ele>1595.58</ele>
  <time>2026-08-28T19:10:35Z</time>
  <course>346.37</course>
  <speed>0.64</speed>
  <fix>3d</fix>
</trkpt>
<trkpt lat="40.0728298" lon="-105.2306529">
  <ele>1595.68</ele>
  <time>2026-08-28T19:10:35Z</time>
  <course>8.59</course>
  <speed>0.27586228448267447</speed>
  <fix>3d</fix>
</trkpt>
<trkpt lat="40.0728297" lon="-105.2306528">
  <ele>1595.59</ele>
  <time>2026-08-28T19:10:35Z</time>
  <course>334.14</course>
  <speed>0.45</speed>
  <fix>3d</fix>
</trkpt>
<trkpt lat="40.07283" lon="-105.2306535">
  <ele>1595.68</ele>
  <time>2026-08-28T19:10:35Z</time>
  <course>8.61</course>
  <speed>0.24041630560342614</speed>
  <fix>3d</fix>
</trkpt>
<trkpt lat="40.0728302" lon="-105.2306533">
  <ele>1595.59</ele>
  <time>2026-08-28T19:10:35Z</time>
  <course>304.21</course>
  <speed>0.27</speed>
  <fix>3d</fix>
</trkpt>
<trkpt lat="40.0728297" lon="-105.230654">
  <ele>1595.68</ele>
  <time>2026-08-28T19:10:35Z</time>
  <course>8.58</course>
  <speed>0.4022437072223753</speed>
  <fix>3d</fix>
</trkpt>
<trkpt lat="40.0728303" lon="-105.2306538">
  <ele>1595.59</ele>
  <time>2026-08-28T19:10:35Z</time>
  <course>244.69</course>
  <speed>0.26</speed>
  <fix>3d</fix>
</trkpt>
<trkpt lat="40.072829" lon="-105.2306546">
  <ele>1595.68</ele>
  <time>2026-08-28T19:10:35Z</time>
  <course>8.56</course>
  <speed>0.5980802621722272</speed>
  <fix>3d</fix>
</trkpt>
<trkpt lat="40.0728299" lon="-105.2306544">
  <ele>1595.59</ele>
  <time>2026-08-28T19:10:35Z</time>
  <course>211.72</course>
  <speed>0.43</speed>
  <fix>3d</fix>
</trkpt>
<trkpt lat="40.072828" lon="-105.230655">
  <ele>1595.68</ele>
  <time>2026-08-28T19:10:35Z</time>
  <course>8.54</course>
  <speed>0.7473285756613351</speed>
  <fix>3d</fix>
</trkpt>
<trkpt lat="40.0728291" lon="-105.2306549">
  <ele>1595.59</ele>
  <time>2026-08-28T19:10:35Z</time>
  <course>198.59</course>
  <speed>0.61</speed>
  <fix>3d</fix>
</trkpt>
<trkpt lat="40.0728267" lon="-105.2306554">
  <ele>1595.68</ele>
  <time>2026-08-28T19:10:35Z</time>
  <course>8.52</course>
  <speed>0.8273451516749222</speed>
  <fix>3d</fix>
</trkpt>
<trkpt lat="40.0728279" lon="-105.2306553">
  <ele>1595.59</ele>
  <time>2026-08-28T19:10:35Z</time>
  <course>191.34</course>
  <speed>0.75</speed>
  <fix>3d</fix>
</trkpt>
<trkpt lat="40.0728252" lon="-105.2306556">
  <ele>1595.69</ele>
  <time>2026-08-28T19:10:35Z</time>
  <course>8.55</course>
  <speed>0.8409518416651456</speed>
  <fix>3d</fix>
</trkpt>
<trkpt lat="40.0728265" lon="-105.2306556">
  <ele>1595.59</ele>
  <time>2026-08-28T19:10:35Z</time>
  <course>186.12</course>
  <speed>0.82</speed>
  <fix>3d</fix>
</trkpt>
<trkpt lat="40.0728238" lon="-105.2306556">
  <ele>1595.69</ele>
  <time>2026-08-28T19:10:35Z</time>
  <course>8.55</course>
  <speed>0.7702596964660685</speed>
  <fix>3d</fix>
</trkpt>
<trkpt lat="40.072825" lon="-105.2306557">
  <ele>1595.59</ele>
  <time>2026-08-28T19:10:35Z</time>
  <course>181.45</course>
  <speed>0.81</speed>
  <fix>3d</fix>
</trkpt>
<trkpt lat="40.0728226" lon="-105.2306554">
  <ele>1595.69</ele>
  <time>2026-08-28T19:10:35Z</time>
  <course>8.61</course>
  <speed>0.6363961030678928</speed>
  <fix>3d</fix>
</trkpt>
<trkpt lat="40.0728236" lon="-105.2306557">
  <ele>1595.59</ele>
  <time>2026-08-28T19:10:35Z</time>
  <course>176.38</course>
  <speed>0.73</speed>
  <fix>3d</fix>
</trkpt>
<trkpt lat="40.0728217" lon="-105.2306553">
  <ele>1595.69</ele>
  <time>2026-08-28T19:10:35Z</time>
  <course>8.62</course>
  <speed>0.4459820624195552</speed>
  <fix>3d</fix>
</trkpt>
<trkpt lat="40.0728224" lon="-105.2306555">
  <ele>1595.59</ele>
  <time>2026-08-28T19:10:35Z</time>
  <course>169.45</course>
  <speed>0.58</speed>
  <fix>3d</fix>
</trkpt>
<trkpt lat="40.0728212" lon="-105.2306549">
  <ele>1595.69</ele>
  <time>2026-08-28T19:10:35Z</time>
  <course>8.59</course>
  <speed>0.26248809496813374</speed>
  <fix>3d</fix>
</trkpt>
<trkpt lat="40.0728216" lon="-105.2306553">
  <ele>1595.59</ele>
  <time>2026-08-28T19:10:35Z</time>
  <course>156.51</course>
  <speed>0.38</speed>
  <fix>3d</fix>
</trkpt>
<trkpt lat="40.0728211" lon="-105.2306544">
  <ele>1595.69</ele>
  <time>2026-08-28T19:10:35Z</time>
  <course>8.56</course>
  <speed>0.23769728648009425</speed>
  <fix>3d</fix>
</trkpt>
<trkpt lat="40.0728212" lon="-105.2306548">
  <ele>1595.59</ele>
  <time>2026-08-28T19:10:35Z</time>
  <course>118.82</course>
  <speed>0.21</speed>
  <fix>3d</fix>
</trkpt>
<trkpt lat="40.0728215" lon="-105.2306539">
  <ele>1595.68</ele>
  <time>2026-08-28T19:10:35Z</time>
  <course>8.53</course>
  <speed>0.41340053217188777</speed>
  <fix>3d</fix>
</trkpt>
<trkpt lat="40.0728212" lon="-105.2306544">
  <ele>1595.59</ele>
  <time>2026-08-28T19:10:35Z</time>
  <course>49.83</course>
  <speed>0.25</speed>
  <fix>3d</fix>
</trkpt>
<trkpt lat="40.0728224" lon="-105.2306535">
  <ele>1595.67</ele>
  <time>2026-08-28T19:10:35Z</time>
  <course>8.44</course>
  <speed>0.6040695324215583</speed>
  <fix>3d</fix>
</trkpt>
<trkpt lat="40.0728217" lon="-105.2306539">
  <ele>1595.58</ele>
  <time>2026-08-28T19:10:35Z</time>
  <course>23.67</course>
  <speed>0.45</speed>
  <fix>3d</fix>
</trkpt>
<trkpt lat="40.0728234" lon="-105.2306531">
  <ele>1595.67</ele>
  <time>2026-08-28T19:10:35Z</time>
  <course>8.36</course>
  <speed>0.7550496672405067</speed>
  <fix>3d</fix>
</trkpt>
<trkpt lat="40.0728226" lon="-105.2306536">
  <ele>1595.58</ele>
  <time>2026-08-28T19:10:35Z</time>
  <course>13.41</course>
  <speed>0.65</speed>
  <fix>3d</fix>
</trkpt>
<trkpt lat="40.0728249" lon="-105.2306529">
  <ele>1595.67</ele>
  <time>2026-08-28T19:10:35Z</time>
  <course>8.34</course>
  <speed>0.8448076704197234</speed>
  <fix>3d</fix>
</trkpt>
<trkpt lat="40.0728238" lon="-105.2306533">
  <ele>1595.58</ele>
  <time>2026-08-28T19:10:35Z</time>
  <course>7.33</course>
  <speed>0.79</speed>
  <fix>3d</fix>
</trkpt>
<trkpt lat="40.0728264" lon="-105.2306528">
  <ele>1595.67</ele>
  <time>2026-08-28T19:10:35Z</time>
  <course>8.35</course>
  <speed>0.8505292469985968</speed>
  <fix>3d</fix>
</trkpt>
<trkpt lat="40.0728254" lon="-105.2306531">
  <ele>1595.58</ele>
  <time>2026-08-28T19:10:35Z</time>
  <course>2.63</course>
  <speed>0.86</speed>
  <fix>3d</fix>
</trkpt>
<trkpt lat="40.0728279" lon="-105.2306529">
  <ele>1595.67</ele>
  <time>2026-08-28T19:10:35Z</time>
  <course>8.36</course>
  <speed>0.7810249675906654</speed>
  <fix>3d</fix>
</trkpt>
<trkpt lat="40.072827" lon="-105.2306531">
  <ele>1595.58</ele>
  <time>2026-08-28T19:10:35Z</time>
  <course>358.19</course>
  <speed>0.86</speed>
  <fix>3d</fix>
</trkpt>
<trkpt lat="40.0728292" lon="-105.2306532">
  <ele>1595.68</ele>
  <time>2026-08-28T19:10:35Z</time>
  <course>8.47</course>
  <speed>0.6493843238021688</speed>
  <fix>3d</fix>
</trkpt>
<trkpt lat="40.0728285" lon="-105.2306532">
  <ele>1595.59</ele>
  <time>2026-08-28T19:10:35Z</time>
  <course>353.16</course>
  <speed>0.78</speed>
  <fix>3d</fix>
</trkpt>
<trkpt lat="40.0728302" lon="-105.2306534">
  <ele>1595.68</ele>
  <time>2026-08-28T19:10:35Z</time>
  <course>8.52</course>
  <speed>0.45880278987817846</speed>
  <fix>3d</fix>
</trkpt>
<trkpt lat="40.0728297" lon="-105.2306534">
  <ele>1595.59</ele>
  <time>2026-08-28T19:10:35Z</time>
  <course>346.22</course>
  <speed>0.63</speed>
  <fix>3d</fix>
</trkpt>
<trkpt lat="40.0728308" lon="-105.2306539">
  <ele>1595.69</ele>
  <time>2026-08-28T19:10:35Z</time>
  <course>8.59</course>
  <speed>0.27586228448267447</speed>
  <fix>3d</fix>
</trkpt>
<trkpt lat="40.0728306" lon="-105.2306538">
  <ele>1595.6</ele>
  <time>2026-08-28T19:10:35Z</time>
  <course>333.82</course>
  <speed>0.44</speed>
  <fix>3d</fix>
</trkpt>
<trkpt lat="40.072831" lon="-105.2306545">
  <ele>1595.7</ele>
  <time>2026-08-28T19:10:35Z</time>
  <course>8.62</course>
  <speed>0.24041630560342614</speed>
  <fix>3d</fix>
</trkpt>
<trkpt lat="40.0728311" lon="-105.2306543">
  <ele>1595.6</ele>
  <time>2026-08-28T19:10:35Z</time>
  <course>303.31</course>
  <speed>0.27</speed>
  <fix>3d</fix>
</trkpt>
<trkpt lat="40.0728307" lon="-105.2306551">
  <ele>1595.7</ele>
  <time>2026-08-28T19:10:35Z</time>
  <course>8.61</course>
  <speed>0.4022437072223753</speed>
  <fix>3d</fix>
</trkpt>
<trkpt lat="40.0728311" lon="-105.2306549">
  <ele>1595.6</ele>
  <time>2026-08-28T19:10:35Z</time>
  <course>243.91</course>
  <speed>0.26</speed>
  <fix>3d</fix>
</trkpt>
<trkpt lat="40.0728299" lon="-105.2306556">
  <ele>1595.7</ele>
  <time>2026-08-28T19:10:35Z</time>
  <course>8.58</course>
  <speed>0.5980802621722272</speed>
  <fix>3d</fix>
</trkpt>
<trkpt lat="40.0728307" lon="-105.2306555">
  <ele>1595.6</ele>
  <time>2026-08-28T19:10:35Z</time>
  <course>211.53</course>
  <speed>0.43</speed>
  <fix>3d</fix>
</trkpt>
<trkpt lat="40.0728289" lon="-105.2306561">
  <ele>1595.7</ele>
  <time>2026-08-28T19:10:35Z</time>
  <course>8.57</course>
  <speed>0.7473285756613351</speed>
  <fix>3d</fix>
</trkpt>
<trkpt lat="40.0728299" lon="-105.230656">
  <ele>1595.59</ele>
  <time>2026-08-28T19:10:35Z</time>
  <course>198.54</course>
  <speed>0.61</speed>
  <fix>3d</fix>
</trkpt>
<trkpt lat="40.0728276" lon="-105.2306564">
  <ele>1595.69</ele>
  <time>2026-08-28T19:10:35Z</time>
  <course>8.56</course>
  <speed>0.8273451516749222</speed>
  <fix>3d</fix>
</trkpt>
<trkpt lat="40.0728287" lon="-105.2306563">
  <ele>1595.59</ele>
  <time>2026-08-28T19:10:35Z</time>
  <course>191.32</course>
  <speed>0.75</speed>
  <fix>3d</fix>
</trkpt>
<trkpt lat="40.0728261" lon="-105.2306566">
  <ele>1595.69</ele>
  <time>2026-08-28T19:10:35Z</time>
  <course>8.56</course>
  <speed>0.8409518416651456</speed>
  <fix>3d</fix>
</trkpt>
<trkpt lat="40.0728273" lon="-105.2306567">
  <ele>1595.59</ele>
  <time>2026-08-28T19:10:35Z</time>
  <course>186.09</course>
  <speed>0.82</speed>
  <fix>3d</fix>
</trkpt>
<trkpt lat="40.0728247" lon="-105.2306566">
  <ele>1595.68</ele>
  <time>2026-08-28T19:10:35Z</time>
  <course>8.58</course>
  <speed>0.7702596964660685</speed>
  <fix>3d</fix>
</trkpt>
<trkpt lat="40.0728259" lon="-105.2306567">
  <ele>1595.59</ele>
  <time>2026-08-28T19:10:35Z</time>
  <course>181.43</course>
  <speed>0.81</speed>
  <fix>3d</fix>
</trkpt>
<trkpt lat="40.0728235" lon="-105.2306565">
  <ele>1595.69</ele>
  <time>2026-08-28T19:10:36Z</time>
  <course>8.62</course>
  <speed>0.6363961030678928</speed>
  <fix>3d</fix>
</trkpt>
<trkpt lat="40.0728244" lon="-105.2306567">
  <ele>1595.59</ele>
  <time>2026-08-28T19:10:36Z</time>
  <course>176.34</course>
  <speed>0.73</speed>
  <fix>3d</fix>
</trkpt>
<trkpt lat="40.0728226" lon="-105.2306563">
  <ele>1595.69</ele>
  <time>2026-08-28T19:10:36Z</time>
  <course>8.63</course>
  <speed>0.4459820624195552</speed>
  <fix>3d</fix>
</trkpt>
<trkpt lat="40.0728232" lon="-105.2306566">
  <ele>1595.59</ele>
  <time>2026-08-28T19:10:36Z</time>
  <course>169.37</course>
  <speed>0.58</speed>
  <fix>3d</fix>
</trkpt>
<trkpt lat="40.072822" lon="-105.2306559">
  <ele>1595.69</ele>
  <time>2026-08-28T19:10:36Z</time>
  <course>8.6</course>
  <speed>0.26248809496813374</speed>
  <fix>3d</fix>
</trkpt>
<trkpt lat="40.0728225" lon="-105.2306563">
  <ele>1595.59</ele>
  <time>2026-08-28T19:10:36Z</time>
  <course>156.42</course>
  <speed>0.38</speed>
  <fix>3d</fix>
</trkpt>
<trkpt lat="40.072822" lon="-105.2306554">
  <ele>1595.69</ele>
  <time>2026-08-28T19:10:36Z</time>
  <course>8.55</course>
  <speed>0.2340939982143925</speed>
  <fix>3d</fix>
</trkpt>
<trkpt lat="40.072822" lon="-105.2306559">
  <ele>1595.59</ele>
  <time>2026-08-28T19:10:36Z</time>
  <course>118.88</course>
  <speed>0.21</speed>
  <fix>3d</fix>
</trkpt>
<trkpt lat="40.0728223" lon="-105.230655">
  <ele>1595.69</ele>
  <time>2026-08-28T19:10:36Z</time>
  <course>8.45</course>
  <speed>0.33421549934136807</speed>
  <fix>3d</fix>
</trkpt>
<trkpt lat="40.072822" lon="-105.2306555">
  <ele>1595.59</ele>
  <time>2026-08-28T19:10:36Z</time>
  <course>54.51</course>
  <speed>0.24</speed>
  <fix>3d</fix>
</trkpt>
<trkpt lat="40.0728229" lon="-105.2306546">
  <ele>1595.69</ele>
  <time>2026-08-28T19:10:36Z</time>
  <course>8.47</course>
  <speed>0.3716180835212409</speed>
  <fix>3d</fix>
</trkpt>
<trkpt lat="40.0728223" lon="-105.230655">
  <ele>1595.58</ele>
  <time>2026-08-28T19:10:36Z</time>
  <course>29.47</course>
  <speed>0.34</speed>
  <fix>3d</fix>
</trkpt>
<trkpt lat="40.0728234" lon="-105.2306543">
  <ele>1595.69</ele>
  <time>2026-08-28T19:10:36Z</time>
  <course>8.54</course>
  <speed>0.3736308338453881</speed>
  <fix>3d</fix>
</trkpt>
<trkpt lat="40.072823" lon="-105.2306547">
  <ele>1595.58</ele>
  <time>2026-08-28T19:10:36Z</time>
  <course>17.23</course>
  <speed>0.38</speed>
  <fix>3d</fix>
</trkpt>
<trkpt lat="40.0728241" lon="-105.2306542">
  <ele>1595.68</ele>
  <time>2026-08-28T19:10:36Z</time>
  <course>8.57</course>
  <speed>0.3649657518178932</speed>
  <fix>3d</fix>
</trkpt>
<trkpt lat="40.0728237" lon="-105.2306545">
  <ele>1595.58</ele>
  <time>2026-08-28T19:10:36Z</time>
  <course>9.38</course>
  <speed>0.39</speed>
  <fix>3d</fix>
</trkpt>
<trkpt lat="40.0728247" lon="-105.2306541">
  <ele>1595.68</ele>
  <time>2026-08-28T19:10:36Z</time>
  <course>8.59</course>
  <speed>0.34132096331752027</speed>
  <fix>3d</fix>
</trkpt>
<trkpt lat="40.0728244" lon="-105.2306544">
  <ele>1595.58</ele>
  <time>2026-08-28T19:10:36Z</time>
  <course>3.97</course>
  <speed>0.38</speed>
  <fix>3d</fix>
</trkpt>
<trkpt lat="40.0728253" lon="-105.2306541">
  <ele>1595.68</ele>
  <time>2026-08-28T19:10:36Z</time>
  <course>8.59</course>
  <speed>0.32015621187164245</speed>
  <fix>3d</fix>
</trkpt>
<trkpt lat="40.0728251" lon="-105.2306543">
  <ele>1595.58</ele>
  <time>2026-08-28T19:10:36Z</time>
  <course>0.46</course>
  <speed>0.36</speed>
  <fix>3d</fix>
</trkpt>
<trkpt lat="40.0728259" lon="-105.2306542">
  <ele>1595.68</ele>
  <time>2026-08-28T19:10:36Z</time>
  <course>8.59</course>
  <speed>0.30016662039607267</speed>
  <fix>3d</fix>
</trkpt>
<trkpt lat="40.0728256" lon="-105.2306543">
  <ele>1595.58</ele>
  <time>2026-08-28T19:10:36Z</time>
  <course>358.37</course>
  <speed>0.34</speed>
  <fix>3d</fix>
</trkpt>
<trkpt lat="40.0728265" lon="-105.2306542">
  <ele>1595.68</ele>
  <time>2026-08-28T19:10:36Z</time>
  <course>8.59</course>
  <speed>0.28</speed>
  <fix>3d</fix>
</trkpt>
<trkpt lat="40.0728263" lon="-105.2306543">
  <ele>1595.58</ele>
  <time>2026-08-28T19:10:36Z</time>
  <course>357.32</course>
  <speed>0.32</speed>
  <fix>3d</fix>
</trkpt>
<trkpt lat="40.072827" lon="-105.2306542">
  <ele>1595.69</ele>
  <time>2026-08-28T19:10:36Z</time>
  <course>8.59</course>
  <speed>0.27</speed>
  <fix>3d</fix>
</trkpt>
<trkpt lat="40.0728268" lon="-105.2306543">
  <ele>1595.58</ele>
  <time>2026-08-28T19:10:36Z</time>
  <course>356.96</course>
  <speed>0.3</speed>
  <fix>3d</fix>
</trkpt>
<trkpt lat="40.0728275" lon="-105.2306542">
  <ele>1595.69</ele>
  <time>2026-08-28T19:10:36Z</time>
  <course>8.62</course>
  <speed>0.25</speed>
  <fix>3d</fix>
</trkpt>
<trkpt lat="40.0728274" lon="-105.2306543">
  <ele>1595.58</ele>
  <time>2026-08-28T19:10:36Z</time>
  <course>356.94</course>
  <speed>0.29</speed>
  <fix>3d</fix>
</trkpt>
<trkpt lat="40.072828" lon="-105.2306542">
  <ele>1595.68</ele>
  <time>2026-08-28T19:10:36Z</time>
  <course>8.6</course>
  <speed>0.24</speed>
  <fix>3d</fix>
</trkpt>
<trkpt lat="40.0728279" lon="-105.2306544">
  <ele>1595.58</ele>
  <time>2026-08-28T19:10:36Z</time>
  <course>357.13</course>
  <speed>0.27</speed>
  <fix>3d</fix>
</trkpt>
<trkpt lat="40.0728285" lon="-105.2306542">
  <ele>1595.68</ele>
  <time>2026-08-28T19:10:36Z</time>
  <course>8.58</course>
  <speed>0.23</speed>
  <fix>3d</fix>
</trkpt>
<trkpt lat="40.0728284" lon="-105.2306545">
  <ele>1595.58</ele>
  <time>2026-08-28T19:10:36Z</time>
  <course>357.36</course>
  <speed>0.26</speed>
  <fix>3d</fix>
</trkpt>
<trkpt lat="40.072829" lon="-105.2306542">
  <ele>1595.68</ele>
  <time>2026-08-28T19:10:36Z</time>
  <course>8.57</course>
  <speed>0.22</speed>
  <fix>3d</fix>
</trkpt>
<trkpt lat="40.0728289" lon="-105.2306545">
  <ele>1595.58</ele>
  <time>2026-08-28T19:10:36Z</time>
  <course>357.5</course>
  <speed>0.25</speed>
  <fix>3d</fix>
</trkpt>
<trkpt lat="40.0728294" lon="-105.2306543">
  <ele>1595.67</ele>
  <time>2026-08-28T19:10:36Z</time>
  <course>8.57</course>
  <speed>0.21</speed>
  <fix>3d</fix>
</trkpt>
<trkpt lat="40.0728293" lon="-105.2306545">
  <ele>1595.58</ele>
  <time>2026-08-28T19:10:36Z</time>
  <course>357.68</course>
  <speed>0.24</speed>
  <fix>3d</fix>
</trkpt>
<trkpt lat="40.0728298" lon="-105.2306543">
  <ele>1595.67</ele>
  <time>2026-08-28T19:10:36Z</time>
  <course>8.57</course>
  <speed>0.2002498439450079</speed>
  <fix>3d</fix>
</trkpt>
<trkpt lat="40.0728297" lon="-105.2306545">
  <ele>1595.58</ele>
  <time>2026-08-28T19:10:36Z</time>
  <course>357.9</course>
  <speed>0.23</speed>
  <fix>3d</fix>
</trkpt>
<trkpt lat="40.0728302" lon="-105.2306543">
  <ele>1595.67</ele>
  <time>2026-08-28T19:10:36Z</time>
  <course>8.56</course>
  <speed>0.19026297590440447</speed>
  <fix>3d</fix>
</trkpt>
<trkpt lat="40.0728302" lon="-105.2306546">
  <ele>1595.58</ele>
  <time>2026-08-28T19:10:36Z</time>
  <course>358.23</course>
  <speed>0.22</speed>
  <fix>3d</fix>
</trkpt>
<trkpt lat="40.0728306" lon="-105.2306543">
  <ele>1595.68</ele>
  <time>2026-08-28T19:10:36Z</time>
  <course>8.58</course>
  <speed>0.19026297590440447</speed>
  <fix>3d</fix>
</trkpt>
<trkpt lat="40.0728306" lon="-105.2306546">
  <ele>1595.58</ele>
  <time>2026-08-28T19:10:36Z</time>
  <course>358.45</course>
  <speed>0.21</speed>
  <fix>3d</fix>
</trkpt>
<trkpt lat="40.072831" lon="-105.2306544">
  <ele>1595.68</ele>
  <time>2026-08-28T19:10:36Z</time>
  <course>8.57</course>
  <speed>0.19026297590440447</speed>
  <fix>3d</fix>
</trkpt>
<trkpt lat="40.0728309" lon="-105.2306546">
  <ele>1595.58</ele>
  <time>2026-08-28T19:10:36Z</time>
  <course>358.59</course>
  <speed>0.21</speed>
  <fix>3d</fix>
</trkpt>
<trkpt lat="40.0728314" lon="-105.2306544">
  <ele>1595.69</ele>
  <time>2026-08-28T19:10:36Z</time>
  <course>8.58</course>
  <speed>0.22090722034374521</speed>
  <fix>3d</fix>
</trkpt>
<trkpt lat="40.0728313" lon="-105.2306546">
  <ele>1595.59</ele>
  <time>2026-08-28T19:10:36Z</time>
  <course>359.9</course>
  <speed>0.22</speed>
  <fix>3d</fix>
</trkpt>
<trkpt lat="40.0728319" lon="-105.2306543">
  <ele>1595.7</ele>
  <time>2026-08-28T19:10:36Z</time>
  <course>8.58</course>
  <speed>0.282842712474619</speed>
  <fix>3d</fix>
</trkpt>
<trkpt lat="40.0728317" lon="-105.2306546">
  <ele>1595.59</ele>
  <time>2026-08-28T19:10:36Z</time>
  <course>2.89</course>
  <speed>0.26</speed>
  <fix>3d</fix>
</trkpt>
<trkpt lat="40.0728325" lon="-105.2306543">
  <ele>1595.7</ele>
  <time>2026-08-28T19:10:36Z</time>
  <course>8.58</course>
  <speed>0.37656340767525465</speed>
  <fix>3d</fix>
</trkpt>
<trkpt lat="40.0728323" lon="-105.2306546">
  <ele>1595.59</ele>
  <time>2026-08-28T19:10:36Z</time>
  <course>6.0</course>
  <speed>0.33</speed>
  <fix>3d</fix>
</trkpt>
<trkpt lat="40.0728333" lon="-105.2306542">
  <ele>1595.7</ele>
  <time>2026-08-28T19:10:36Z</time>
  <course>8.56</course>
  <speed>0.4883646178829912</speed>
  <fix>3d</fix>
</trkpt>
<trkpt lat="40.072833" lon="-105.2306545">
  <ele>1595.59</ele>
  <time>2026-08-28T19:10:36Z</time>
  <course>7.93</course>
  <speed>0.42</speed>
  <fix>3d</fix>
</trkpt>
<trkpt lat="40.0728343" lon="-105.230654">
  <ele>1595.69</ele>
  <time>2026-08-28T19:10:36Z</time>
  <course>8.54</course>
  <speed>0.5903388857258176</speed>
  <fix>3d</fix>
</trkpt>
<trkpt lat="40.0728338" lon="-105.2306543">
  <ele>1595.58</ele>
  <time>2026-08-28T19:10:36Z</time>
  <course>8.58</course>
  <speed>0.53</speed>
  <fix>3d</fix>
</trkpt>
<trkpt lat="40.0728355" lon="-105.2306537">
  <ele>1595.68</ele>
  <time>2026-08-28T19:10:36Z</time>
  <course>8.51</course>
  <speed>0.669103878332804</speed>
  <fix>3d</fix>
</trkpt>
<trkpt lat="40.0728348" lon="-105.2306541">
  <ele>1595.58</ele>
  <time>2026-08-28T19:10:36Z</time>
  <course>8.3</course>
  <speed>0.63</speed>
  <fix>3d</fix>
</trkpt>
<trkpt lat="40.0728367" lon="-105.2306535">
  <ele>1595.68</ele>
  <time>2026-08-28T19:10:36Z</time>
  <course>8.5</course>
  <speed>0.717007670809734</speed>
  <fix>3d</fix>
</trkpt>
<trkpt lat="40.072836" lon="-105.2306538">
  <ele>1595.58</ele>
  <time>2026-08-28T19:10:36Z</time>
  <course>7.36</course>
  <speed>0.7</speed>
  <fix>3d</fix>
</trkpt>
<trkpt lat="40.072838" lon="-105.2306534">
  <ele>1595.67</ele>
  <time>2026-08-28T19:10:36Z</time>
  <course>8.5</course>
  <speed>0.7034912934784623</speed>
  <fix>3d</fix>
</trkpt>
<trkpt lat="40.0728373" lon="-105.2306537">
  <ele>1595.58</ele>
  <time>2026-08-28T19:10:36Z</time>
  <course>5.85</course>
  <speed>0.73</speed>
  <fix>3d</fix>
</trkpt>
<trkpt lat="40.0728393" lon="-105.2306533">
  <ele>1595.67</ele>
  <time>2026-08-28T19:10:36Z</time>
  <course>8.49</course>
  <speed>0.6407027391856539</speed>
  <fix>3d</fix>
</trkpt>
<trkpt lat="40.0728386" lon="-105.2306535">
  <ele>1595.58</ele>
  <time>2026-08-28T19:10:36Z</time>
  <course>3.77</course>
  <speed>0.71</speed>
  <fix>3d</fix>
</trkpt>
<trkpt lat="40.0728404" lon="-105.2306533">
  <ele>1595.68</ele>
  <time>2026-08-28T19:10:36Z</time>
  <course>8.51</course>
  <speed>0.52</speed>
  <fix>3d</fix>
</trkpt>
<trkpt lat="40.0728399" lon="-105.2306534">
  <ele>1595.58</ele>
  <time>2026-08-28T19:10:36Z</time>
  <course>0.86</course>
  <speed>0.63</speed>
  <fix>3d</fix>
</trkpt>
<trkpt lat="40.0728412" lon="-105.2306533">
  <ele>1595.68</ele>
  <time>2026-08-28T19:10:36Z</time>
  <course>8.54</course>
  <speed>0.34365680554879163</speed>
  <fix>3d</fix>
</trkpt>
<trkpt lat="40.0728409" lon="-105.2306535">
  <ele>1595.59</ele>
  <time>2026-08-28T19:10:36Z</time>
  <course>356.26</course>
  <speed>0.5</speed>
  <fix>3d</fix>
</trkpt>
<trkpt lat="40.0728417" lon="-105.2306535">
  <ele>1595.69</ele>
  <time>2026-08-28T19:10:36Z</time>
  <course>8.56</course>
  <speed>0.16401219466856726</speed>
  <fix>3d</fix>
</trkpt>
<trkpt lat="40.0728417" lon="-105.2306536">
  <ele>1595.59</ele>
  <time>2026-08-28T19:10:36Z</time>
  <course>346.82</course>
  <speed>0.32</speed>
  <fix>3d</fix>
</trkpt>
<trkpt lat="40.0728418" lon="-105.2306539">
  <ele>1595.69</ele>
  <time>2026-08-28T19:10:36Z</time>
  <course>8.57</course>
  <speed>0.15811388300841897</speed>
  <fix>3d</fix>
</trkpt>
<trkpt lat="40.072842" lon="-105.2306538">
  <ele>1595.59</ele>
  <time>2026-08-28T19:10:36Z</time>
  <course>312.29</course>
  <speed>0.14</speed>
  <fix>3d</fix>
</trkpt>
<trkpt lat="40.0728414" lon="-105.2306542">
  <ele>1595.69</ele>
  <time>2026-08-28T19:10:36Z</time>
  <course>8.55</course>
  <speed>0.3624913792078372</speed>
  <fix>3d</fix>
</trkpt>
<trkpt lat="40.0728419" lon="-105.2306541">
  <ele>1595.6</ele>
  <time>2026-08-28T19:10:36Z</time>
  <course>225.4</course>
  <speed>0.19</speed>
  <fix>3d</fix>
</trkpt>
<trkpt lat="40.0728408" lon="-105.2306546">
  <ele>1595.69</ele>
  <time>2026-08-28T19:10:36Z</time>
  <course>8.5</course>
  <speed>0.563205113613149</speed>
  <fix>3d</fix>
</trkpt>
<trkpt lat="40.0728416" lon="-105.2306544">
  <ele>1595.59</ele>
  <time>2026-08-28T19:10:36Z</time>
  <course>202.03</course>
  <speed>0.39</speed>
  <fix>3d</fix>
</trkpt>
<trkpt lat="40.0728398" lon="-105.2306549">
  <ele>1595.69</ele>
  <time>2026-08-28T19:10:36Z</time>
  <course>8.48</course>
  <speed>0.71386273190299</speed>
  <fix>3d</fix>
</trkpt>
<trkpt lat="40.0728407" lon="-105.2306547">
  <ele>1595.59</ele>
  <time>2026-08-28T19:10:36Z</time>
  <course>194.09</course>
  <speed>0.58</speed>
  <fix>3d</fix>
</trkpt>
<trkpt lat="40.0728385" lon="-105.2306552">
  <ele>1595.69</ele>
  <time>2026-08-28T19:10:36Z</time>
  <course>8.47</course>
  <speed>0.8174350127074322</speed>
  <fix>3d</fix>
</trkpt>
<trkpt lat="40.0728396" lon="-105.230655">
  <ele>1595.59</ele>
  <time>2026-08-28T19:10:36Z</time>
  <course>189.53</course>
  <speed>0.73</speed>
  <fix>3d</fix>
</trkpt>
<trkpt lat="40.072837" lon="-105.2306554">
  <ele>1595.69</ele>
  <time>2026-08-28T19:10:36Z</time>
  <course>8.47</course>
  <speed>0.8421401308570919</speed>
  <fix>3d</fix>
</trkpt>
<trkpt lat="40.0728382" lon="-105.2306553">
  <ele>1595.59</ele>
  <time>2026-08-28T19:10:36Z</time>
  <course>186.04</course>
  <speed>0.82</speed>
  <fix>3d</fix>
</trkpt>
<trkpt lat="40.0728356" lon="-105.2306555">
  <ele>1595.69</ele>
  <time>2026-08-28T19:10:36Z</time>
  <course>8.5</course>
  <speed>0.8</speed>
  <fix>3d</fix>
</trkpt>
<trkpt lat="40.0728367" lon="-105.2306554">
  <ele>1595.59</ele>
  <time>2026-08-28T19:10:36Z</time>
  <course>182.79</course>
  <speed>0.83</speed>
  <fix>3d</fix>
</trkpt>
<trkpt lat="40.0728343" lon="-105.2306554">
  <ele>1595.68</ele>
  <time>2026-08-28T19:10:36Z</time>
  <course>8.55</course>
  <speed>0.6818357573492314</speed>
  <fix>3d</fix>
</trkpt>
<trkpt lat="40.0728352" lon="-105.2306555">
  <ele>1595.59</ele>
  <time>2026-08-28T19:10:36Z</time>
  <course>179.24</course>
  <speed>0.77</speed>
  <fix>3d</fix>
</trkpt>
<trkpt lat="40.0728332" lon="-105.2306553">
  <ele>1595.69</ele>
  <time>2026-08-28T19:10:36Z</time>
  <course>8.57</course>
  <speed>0.5099019513592785</speed>
  <fix>3d</fix>
</trkpt>
<trkpt lat="40.072834" lon="-105.2306554">
  <ele>1595.59</ele>
  <time>2026-08-28T19:10:36Z</time>
  <course>174.56</course>
  <speed>0.64</speed>
  <fix>3d</fix>
</trkpt>
<trkpt lat="40.0728325" lon="-105.230655">
  <ele>1595.69</ele>
  <time>2026-08-28T19:10:36Z</time>
  <course>8.57</course>
  <speed>0.30886890422961</speed>
  <fix>3d</fix>
</trkpt>
<trkpt lat="40.072833" lon="-105.2306553">
  <ele>1595.59</ele>
  <time>2026-08-28T19:10:36Z</time>
  <course>166.74</course>
  <speed>0.46</speed>
  <fix>3d</fix>
</trkpt>
<trkpt lat="40.0728323" lon="-105.2306546">
  <ele>1595.69</ele>
  <time>2026-08-28T19:10:36Z</time>
  <course>8.56</course>
  <speed>0.18110770276274835</speed>
  <fix>3d</fix>
</trkpt>
<trkpt lat="40.0728323" lon="-105.230655">
  <ele>1595.6</ele>
  <time>2026-08-28T19:10:36Z</time>
  <course>146.77</course>
  <speed>0.25</speed>
  <fix>3d</fix>
</trkpt>
<trkpt lat="40.0728324" lon="-105.2306543">
  <ele>1595.69</ele>
  <time>2026-08-28T19:10:36Z</time>
  <course>8.53</course>
  <speed>0.29832867780352595</speed>
  <fix>3d</fix>
</trkpt>
<trkpt lat="40.0728322" lon="-105.2306547">
  <ele>1595.59</ele>
  <time>2026-08-28T19:10:36Z</time>
  <course>73.16</course>
  <speed>0.16</speed>
  <fix>3d</fix>
</trkpt>
<trkpt lat="40.0728329" lon="-105.2306539">
  <ele>1595.69</ele>
  <time>2026-08-28T19:10:36Z</time>
  <course>8.5</course>
  <speed>0.5032891812864648</speed>
  <fix>3d</fix>
</trkpt>
<trkpt lat="40.0728326" lon="-105.2306543">
  <ele>1595.59</ele>
  <time>2026-08-28T19:10:36Z</time>
  <course>26.98</course>
  <speed>0.33</speed>
  <fix>3d</fix>
</trkpt>
<trkpt lat="40.072834" lon="-105.2306535">
  <ele>1595.69</ele>
  <time>2026-08-28T19:10:36Z</time>
  <course>8.45</course>
  <speed>0.6768308503607087</speed>
  <fix>3d</fix>
</trkpt>
<trkpt lat="40.0728333" lon="-105.2306539">
  <ele>1595.59</ele>
  <time>2026-08-28T19:10:36Z</time>
  <course>14.18</course>
  <speed>0.54</speed>
  <fix>3d</fix>
</trkpt>
<trkpt lat="40.0728352" lon="-105.2306533">
  <ele>1595.68</ele>
  <time>2026-08-28T19:10:36Z</time>
  <course>8.39</course>
  <speed>0.7863841300535</speed>
  <fix>3d</fix>
</trkpt>
<trkpt lat="40.0728343" lon="-105.2306537">
  <ele>1595.58</ele>
  <time>2026-08-28T19:10:36Z</time>
  <course>7.82</course>
  <speed>0.71</speed>
  <fix>3d</fix>
</trkpt>
<trkpt lat="40.0728367" lon="-105.2306532">
  <ele>1595.68</ele>
  <time>2026-08-28T19:10:36Z</time>
  <course>8.37</course>
  <speed>0.8309632964216891</speed>
  <fix>3d</fix>
</trkpt>
<trkpt lat="40.0728357" lon="-105.2306535">
  <ele>1595.58</ele>
  <time>2026-08-28T19:10:36Z</time>
  <course>3.31</course>
  <speed>0.81</speed>
  <fix>3d</fix>
</trkpt>
<trkpt lat="40.0728382" lon="-105.2306532">
  <ele>1595.68</ele>
  <time>2026-08-28T19:10:36Z</time>
  <course>8.42</course>
  <speed>0.8000624975587844</speed>
  <fix>3d</fix>
</trkpt>
<trkpt lat="40.0728372" lon="-105.2306534">
  <ele>1595.58</ele>
  <time>2026-08-28T19:10:36Z</time>
  <course>359.24</course>
  <speed>0.84</speed>
  <fix>3d</fix>
</trkpt>
<trkpt lat="40.0728395" lon="-105.2306534">
  <ele>1595.68</ele>
  <time>2026-08-28T19:10:36Z</time>
  <course>8.48</course>
  <speed>0.6946221994724903</speed>
  <fix>3d</fix>
</trkpt>
<trkpt lat="40.0728387" lon="-105.2306535">
  <ele>1595.58</ele>
  <time>2026-08-28T19:10:36Z</time>
  <course>354.84</course>
  <speed>0.8</speed>
  <fix>3d</fix>
</trkpt>
<trkpt lat="40.0728406" lon="-105.2306537">
  <ele>1595.68</ele>
  <time>2026-08-28T19:10:36Z</time>
  <course>8.53</course>
  <speed>0.5263078946776306</speed>
  <fix>3d</fix>
</trkpt>
<trkpt lat="40.0728401" lon="-105.2306538">
  <ele>1595.58</ele>
  <time>2026-08-28T19:10:36Z</time>
  <course>349.12</course>
  <speed>0.68</speed>
  <fix>3d</fix>
</trkpt>
<trkpt lat="40.0728414" lon="-105.2306541">
  <ele>1595.69</ele>
  <time>2026-08-28T19:10:36Z</time>
  <course>8.58</course>
  <speed>0.3328663395418648</speed>
  <fix>3d</fix>
</trkpt>
<trkpt lat="40.0728411" lon="-105.2306541">
  <ele>1595.59</ele>
  <time>2026-08-28T19:10:36Z</time>
  <course>339.84</course>
  <speed>0.51</speed>
  <fix>3d</fix>
</trkpt>
<trkpt lat="40.0728417" lon="-105.2306547">
  <ele>1595.69</ele>
  <time>2026-08-28T19:10:36Z</time>
  <course>8.59</course>
  <speed>0.2109502310972899</speed>
  <fix>3d</fix>
</trkpt>
<trkpt lat="40.0728418" lon="-105.2306545">
  <ele>1595.59</ele>
  <time>2026-08-28T19:10:36Z</time>
  <course>319.6</course>
  <speed>0.32</speed>
  <fix>3d</fix>
</trkpt>
<trkpt lat="40.0728416" lon="-105.2306552">
  <ele>1595.69</ele>
  <time>2026-08-28T19:10:36Z</time>
  <course>8.58</course>
  <speed>0.31827660925679097</speed>
  <fix>3d</fix>
</trkpt>
<trkpt lat="40.072842" lon="-105.230655">
  <ele>1595.6</ele>
  <time>2026-08-28T19:10:36Z</time>
  <course>267.75</course>
  <speed>0.22</speed>
  <fix>3d</fix>
</trkpt>
<trkpt lat="40.0728411" lon="-105.2306558">
  <ele>1595.7</ele>
  <time>2026-08-28T19:10:36Z</time>
  <course>8.55</course>
  <speed>0.5056678751908212</speed>
  <fix>3d</fix>
</trkpt>
<trkpt lat="40.0728417" lon="-105.2306556">
  <ele>1595.6</ele>
  <time>2026-08-28T19:10:36Z</time>
  <course>220.48</course>
  <speed>0.34</speed>
  <fix>3d</fix>
</trkpt>
<trkpt lat="40.0728402" lon="-105.2306563">
  <ele>1595.7</ele>
  <time>2026-08-28T19:10:36Z</time>
  <course>8.52</course>
  <speed>0.6841052550594828</speed>
  <fix>3d</fix>
</trkpt>
<trkpt lat="40.0728411" lon="-105.2306561">
  <ele>1595.59</ele>
  <time>2026-08-28T19:10:36Z</time>
  <course>202.5</course>
  <speed>0.53</speed>
  <fix>3d</fix>
</trkpt>
<trkpt lat="40.0728389" lon="-105.2306566">
  <ele>1595.69</ele>
  <time>2026-08-28T19:10:36Z</time>
  <course>8.51</course>
  <speed>0.8006247560499239</speed>
  <fix>3d</fix>
</trkpt>
<trkpt lat="40.0728401" lon="-105.2306566">
  <ele>1595.59</ele>
  <time>2026-08-28T19:10:36Z</time>
  <course>193.82</course>
  <speed>0.69</speed>
  <fix>3d</fix>
</trkpt>
<trkpt lat="40.0728375" lon="-105.2306569">
  <ele>1595.69</ele>
  <time>2026-08-28T19:10:36Z</time>
  <course>8.49</course>
  <speed>0.8429116205154606</speed>
  <fix>3d</fix>
</trkpt>
<trkpt lat="40.0728388" lon="-105.2306568">
  <ele>1595.59</ele>
  <time>2026-08-28T19:10:36Z</time>
  <course>188.15</course>
  <speed>0.79</speed>
  <fix>3d</fix>
</trkpt>
<trkpt lat="40.0728361" lon="-105.230657">
  <ele>1595.69</ele>
  <time>2026-08-28T19:10:36Z</time>
  <course>8.49</course>
  <speed>0.81</speed>
  <fix>3d</fix>
</trkpt>
<trkpt lat="40.0728373" lon="-105.2306571">
  <ele>1595.58</ele>
  <time>2026-08-28T19:10:36Z</time>
  <course>183.51</course>
  <speed>0.82</speed>
  <fix>3d</fix>
</trkpt>
<trkpt lat="40.0728348" lon="-105.230657">
  <ele>1595.68</ele>
  <time>2026-08-28T19:10:36Z</time>
  <course>8.53</course>
  <speed>0.7025667228100119</speed>
  <fix>3d</fix>
</trkpt>
<trkpt lat="40.0728359" lon="-105.2306571">
  <ele>1595.58</ele>
  <time>2026-08-28T19:10:36Z</time>
  <course>178.88</course>
  <speed>0.77</speed>
  <fix>3d</fix>
</trkpt>
<trkpt lat="40.0728337" lon="-105.2306568">
  <ele>1595.68</ele>
  <time>2026-08-28T19:10:36Z</time>
  <course>8.56</course>
  <speed>0.5360037313302959</speed>
  <fix>3d</fix>
</trkpt>
<trkpt lat="40.0728346" lon="-105.230657">
  <ele>1595.59</ele>
  <time>2026-08-28T19:10:36Z</time>
  <course>173.21</course>
  <speed>0.65</speed>
  <fix>3d</fix>
</trkpt>
<trkpt lat="40.072833" lon="-105.2306564">
  <ele>1595.68</ele>
  <time>2026-08-28T19:10:36Z</time>
  <course>8.56</course>
  <speed>0.34132096331752027</speed>
  <fix>3d</fix>
</trkpt>
<trkpt lat="40.0728335" lon="-105.2306567">
  <ele>1595.59</ele>
  <time>2026-08-28T19:10:36Z</time>
  <course>164.24</course>
  <speed>0.47</speed>
  <fix>3d</fix>
</trkpt>
<trkpt lat="40.0728327" lon="-105.230656">
  <ele>1595.68</ele>
  <time>2026-08-28T19:10:36Z</time>
  <course>8.54</course>
  <speed>0.21213203435596426</speed>
  <fix>3d</fix>
</trkpt>
<trkpt lat="40.072833" lon="-105.2306565">
  <ele>1595.59</ele>
  <time>2026-08-28T19:10:36Z</time>
  <course>143.16</course>
  <speed>0.27</speed>
  <fix>3d</fix>
</trkpt>
<trkpt lat="40.0728329" lon="-105.2306556">
  <ele>1595.68</ele>
  <time>2026-08-28T19:10:36Z</time>
  <course>8.52</course>
  <speed>0.3111269837220809</speed>
  <fix>3d</fix>
</trkpt>
<trkpt lat="40.0728328" lon="-105.2306561">
  <ele>1595.59</ele>
  <time>2026-08-28T19:10:36Z</time>
  <course>78.62</course>
  <speed>0.18</speed>
  <fix>3d</fix>
</trkpt>
<trkpt lat="40.0728334" lon="-105.2306551">
  <ele>1595.68</ele>
  <time>2026-08-28T19:10:36Z</time>
  <course>8.45</course>
  <speed>0.5015974481593781</speed>
  <fix>3d</fix>
</trkpt>
<trkpt lat="40.0728331" lon="-105.2306557">
  <ele>1595.59</ele>
  <time>2026-08-28T19:10:36Z</time>
  <course>31.71</course>
  <speed>0.34</speed>
  <fix>3d</fix>
</trkpt>
<trkpt lat="40.0728344" lon="-105.2306547">
  <ele>1595.68</ele>
  <time>2026-08-28T19:10:36Z</time>
  <course>8.4</course>
  <speed>0.671863081289633</speed>
  <fix>3d</fix>
</trkpt>
<trkpt lat="40.0728338" lon="-105.2306553">
  <ele>1595.59</ele>
  <time>2026-08-28T19:10:36Z</time>
  <course>16.84</course>
  <speed>0.54</speed>
  <fix>3d</fix>
</trkpt>
<trkpt lat="40.0728357" lon="-105.2306545">
  <ele>1595.68</ele>
  <time>2026-08-28T19:10:36Z</time>
  <course>8.38</course>
  <speed>0.7891767862779544</speed>
  <fix>3d</fix>
</trkpt>
<trkpt lat="40.0728348" lon="-105.2306549">
  <ele>1595.59</ele>
  <time>2026-08-28T19:10:36Z</time>
  <course>9.44</course>
  <speed>0.71</speed>
  <fix>3d</fix>
</trkpt>
<trkpt lat="40.0728372" lon="-105.2306544">
  <ele>1595.68</ele>
  <time>2026-08-28T19:10:36Z</time>
  <course>8.39</course>
  <speed>0.8315046602394962</speed>
  <fix>3d</fix>
</trkpt>
<trkpt lat="40.0728362" lon="-105.2306547">
  <ele>1595.59</ele>
  <time>2026-08-28T19:10:36Z</time>
  <course>4.33</course>
  <speed>0.81</speed>
  <fix>3d</fix>
</trkpt>
<trkpt lat="40.0728387" lon="-105.2306544">
  <ele>1595.68</ele>
  <time>2026-08-28T19:10:36Z</time>
  <course>8.44</course>
  <speed>0.8000624975587844</speed>
  <fix>3d</fix>
</trkpt>
<trkpt lat="40.0728378" lon="-105.2306547">
  <ele>1595.59</ele>
  <time>2026-08-28T19:10:36Z</time>
  <course>359.89</course>
  <speed>0.85</speed>
  <fix>3d</fix>
</trkpt>
<trkpt lat="40.07284" lon="-105.2306546">
  <ele>1595.68</ele>
  <time>2026-08-28T19:10:36Z</time>
  <course>8.5</course>
  <speed>0.6946221994724903</speed>
  <fix>3d</fix>
</trkpt>
<trkpt lat="40.0728393" lon="-105.2306547">
  <ele>1595.59</ele>
  <time>2026-08-28T19:10:36Z</time>
  <course>355.24</course>
  <speed>0.8</speed>
  <fix>3d</fix>
</trkpt>
<trkpt lat="40.0728412" lon="-105.2306548">
  <ele>1595.68</ele>
  <time>2026-08-28T19:10:36Z</time>
  <course>8.55</course>
  <speed>0.5288667128870941</speed>
  <fix>3d</fix>
</trkpt>
<trkpt lat="40.0728406" lon="-105.2306549">
  <ele>1595.59</ele>
  <time>2026-08-28T19:10:36Z</time>
  <course>349.33</course>
  <speed>0.69</speed>
  <fix>3d</fix>
</trkpt>
<trkpt lat="40.0728419" lon="-105.2306553">
  <ele>1595.68</ele>
  <time>2026-08-28T19:10:36Z</time>
  <course>8.57</course>
  <speed>0.33837848631377265</speed>
  <fix>3d</fix>
</trkpt>
<trkpt lat="40.0728416" lon="-105.2306553">
  <ele>1595.6</ele>
  <time>2026-08-28T19:10:36Z</time>
  <course>339.92</course>
  <speed>0.52</speed>
  <fix>3d</fix>
</trkpt>
<trkpt lat="40.0728423" lon="-105.2306558">
  <ele>1595.68</ele>
  <time>2026-08-28T19:10:36Z</time>
  <course>8.59</course>
  <speed>0.2220360331117452</speed>
  <fix>3d</fix>
</trkpt>
<trkpt lat="40.0728423" lon="-105.2306557">
  <ele>1595.6</ele>
  <time>2026-08-28T19:10:36Z</time>
  <course>319.7</course>
  <speed>0.33</speed>
  <fix>3d</fix>
</trkpt>
<trkpt lat="40.0728422" lon="-105.2306564">
  <ele>1595.67</ele>
  <time>2026-08-28T19:10:36Z</time>
  <course>8.59</course>
  <speed>0.31827660925679097</speed>
  <fix>3d</fix>
</trkpt>
<trkpt lat="40.0728426" lon="-105.2306562">
  <ele>1595.6</ele>
  <time>2026-08-28T19:10:36Z</time>
  <course>268.63</course>
  <speed>0.23</speed>
  <fix>3d</fix>
</trkpt>
<trkpt lat="40.0728416" lon="-105.230657">
  <ele>1595.67</ele>
  <time>2026-08-28T19:10:36Z</time>
  <course>8.52</course>
  <speed>0.5099019513592785</speed>
  <fix>3d</fix>
</trkpt>
<trkpt lat="40.0728423" lon="-105.2306567">
  <ele>1595.6</ele>
  <time>2026-08-28T19:10:36Z</time>
  <course>221.33</course>
  <speed>0.35</speed>
  <fix>3d</fix>
</trkpt>
<trkpt lat="40.0728408" lon="-105.2306575">
  <ele>1595.67</ele>
  <time>2026-08-28T19:10:36Z</time>
  <course>8.48</course>
  <speed>0.6841052550594828</speed>
  <fix>3d</fix>
</trkpt>
<trkpt lat="40.0728417" lon="-105.2306573">
  <ele>1595.6</ele>
  <time>2026-08-28T19:10:36Z</time>
  <course>203.05</course>
  <speed>0.53</speed>
  <fix>3d</fix>
</trkpt>
<trkpt lat="40.0728395" lon="-105.2306579">
  <ele>1595.66</ele>
  <time>2026-08-28T19:10:36Z</time>
  <course>8.42</course>
  <speed>0.8006247560499239</speed>
  <fix>3d</fix>
</trkpt>
<trkpt lat="40.0728407" lon="-105.2306577">
  <ele>1595.6</ele>
  <time>2026-08-28T19:10:36Z</time>
  <course>194.16</course>
  <speed>0.69</speed>
  <fix>3d</fix>
</trkpt>
<trkpt lat="40.0728381" lon="-105.2306581">
  <ele>1595.66</ele>
  <time>2026-08-28T19:10:36Z</time>
  <course>8.39</course>
  <speed>0.8429116205154606</speed>
  <fix>3d</fix>
</trkpt>
<trkpt lat="40.0728393" lon="-105.2306581">
  <ele>1595.61</ele>
  <time>2026-08-28T19:10:36Z</time>
  <course>188.37</course>
  <speed>0.79</speed>
  <fix>3d</fix>
</trkpt>
<trkpt lat="40.0728367" lon="-105.2306582">
  <ele>1595.67</ele>
  <time>2026-08-28T19:10:36Z</time>
  <course>8.43</course>
  <speed>0.81</speed>
  <fix>3d</fix>
</trkpt>
<trkpt lat="40.0728378" lon="-105.2306582">
  <ele>1595.61</ele>
  <time>2026-08-28T19:10:36Z</time>
  <course>183.66</course>
  <speed>0.82</speed>
  <fix>3d</fix>
</trkpt>
<trkpt lat="40.0728354" lon="-105.2306581">
  <ele>1595.67</ele>
  <time>2026-08-28T19:10:36Z</time>
  <course>8.46</course>
  <speed>0.7025667228100119</speed>
  <fix>3d</fix>
</trkpt>
<trkpt lat="40.0728364" lon="-105.2306583">
  <ele>1595.61</ele>
  <time>2026-08-28T19:10:36Z</time>
  <course>178.96</course>
  <speed>0.77</speed>
  <fix>3d</fix>
</trkpt>
<trkpt lat="40.0728343" lon="-105.230658">
  <ele>1595.68</ele>
  <time>2026-08-28T19:10:36Z</time>
  <course>8.5</course>
  <speed>0.5336665625650534</speed>
  <fix>3d</fix>
</trkpt>
<trkpt lat="40.0728351" lon="-105.2306581">
  <ele>1595.62</ele>
  <time>2026-08-28T19:10:36Z</time>
  <course>173.25</course>
  <speed>0.65</speed>
  <fix>3d</fix>
</trkpt>
<trkpt lat="40.0728336" lon="-105.2306577">
  <ele>1595.68</ele>
  <time>2026-08-28T19:10:36Z</time>
  <course>8.55</course>
  <speed>0.34985711369071804</speed>
  <fix>3d</fix>
</trkpt>
<trkpt lat="40.0728341" lon="-105.230658">
  <ele>1595.63</ele>
  <time>2026-08-28T19:10:36Z</time>
  <course>164.31</course>
  <speed>0.48</speed>
  <fix>3d</fix>
</trkpt>
<trkpt lat="40.0728333" lon="-105.2306572">
  <ele>1595.69</ele>
  <time>2026-08-28T19:10:36Z</time>
  <course>8.56</course>
  <speed>0.21377558326431947</speed>
  <fix>3d</fix>
</trkpt>
<trkpt lat="40.0728335" lon="-105.2306577">
  <ele>1595.64</ele>
  <time>2026-08-28T19:10:36Z</time>
  <course>143.66</course>
  <speed>0.28</speed>
  <fix>3d</fix>
</trkpt>
<trkpt lat="40.0728334" lon="-105.2306568">
  <ele>1595.7</ele>
  <time>2026-08-28T19:10:36Z</time>
  <course>8.55</course>
  <speed>0.304138126514911</speed>
  <fix>3d</fix>
</trkpt>
<trkpt lat="40.0728333" lon="-105.2306572">
  <ele>1595.64</ele>
  <time>2026-08-28T19:10:36Z</time>
  <course>81.03</course>
  <speed>0.18</speed>
  <fix>3d</fix>
</trkpt>
<trkpt lat="40.072834" lon="-105.2306563">
  <ele>1595.69</ele>
  <time>2026-08-28T19:10:36Z</time>
  <course>8.51</course>
  <speed>0.4965883607174055</speed>
  <fix>3d</fix>
</trkpt>
<trkpt lat="40.0728336" lon="-105.2306569">
  <ele>1595.64</ele>
  <time>2026-08-28T19:10:36Z</time>
  <course>32.92</course>
  <speed>0.34</speed>
  <fix>3d</fix>
</trkpt>
<trkpt lat="40.0728349" lon="-105.2306559">
  <ele>1595.69</ele>
  <time>2026-08-28T19:10:36Z</time>
  <course>8.44</course>
  <speed>0.6621933252457322</speed>
  <fix>3d</fix>
</trkpt>
<trkpt lat="40.0728342" lon="-105.2306565">
  <ele>1595.64</ele>
  <time>2026-08-28T19:10:36Z</time>
  <course>17.48</course>
  <speed>0.54</speed>
  <fix>3d</fix>
</trkpt>
<trkpt lat="40.0728362" lon="-105.2306556">
  <ele>1595.69</ele>
  <time>2026-08-28T19:10:36Z</time>
  <course>8.41</course>
  <speed>0.7792945527847606</speed>
  <fix>3d</fix>
</trkpt>
<trkpt lat="40.0728353" lon="-105.2306561">
  <ele>1595.63</ele>
  <time>2026-08-28T19:10:36Z</time>
  <course>9.88</course>
  <speed>0.7</speed>
  <fix>3d</fix>
</trkpt>
<trkpt lat="40.0728376" lon="-105.2306555">
  <ele>1595.69</ele>
  <time>2026-08-28T19:10:36Z</time>
  <course>8.41</course>
  <speed>0.8321658488546619</speed>
  <fix>3d</fix>
</trkpt>
<trkpt lat="40.0728366" lon="-105.2306558">
  <ele>1595.63</ele>
  <time>2026-08-28T19:10:36Z</time>
  <course>4.64</course>
  <speed>0.81</speed>
  <fix>3d</fix>
</trkpt>
<trkpt lat="40.0728391" lon="-105.2306555">
  <ele>1595.69</ele>
  <time>2026-08-28T19:10:36Z</time>
  <course>8.43</course>
  <speed>0.8</speed>
  <fix>3d</fix>
</trkpt>
<trkpt lat="40.0728381" lon="-105.2306557">
  <ele>1595.63</ele>
  <time>2026-08-28T19:10:36Z</time>
  <course>0.14</course>
  <speed>0.84</speed>
  <fix>3d</fix>
</trkpt>
<trkpt lat="40.0728404" lon="-105.2306557">
  <ele>1595.7</ele>
  <time>2026-08-28T19:10:36Z</time>
  <course>8.52</course>
  <speed>0.6935416353759881</speed>
  <fix>3d</fix>
</trkpt>
<trkpt lat="40.0728396" lon="-105.2306558">
  <ele>1595.63</ele>
  <time>2026-08-28T19:10:36Z</time>
  <course>355.45</course>
  <speed>0.8</speed>
  <fix>3d</fix>
</trkpt>
<trkpt lat="40.0728416" lon="-105.2306559">
  <ele>1595.7</ele>
  <time>2026-08-28T19:10:36Z</time>
  <course>8.58</course>
  <speed>0.5288667128870941</speed>
  <fix>3d</fix>
</trkpt>
<trkpt lat="40.072841" lon="-105.2306561">
  <ele>1595.63</ele>
  <time>2026-08-28T19:10:36Z</time>
  <course>349.53</course>
  <speed>0.68</speed>
  <fix>3d</fix>
</trkpt>
<trkpt lat="40.0728423" lon="-105.2306564">
  <ele>1595.7</ele>
  <time>2026-08-28T19:10:36Z</time>
  <course>8.64</course>
  <speed>0.3328663395418648</speed>
  <fix>3d</fix>
</trkpt>
<trkpt lat="40.0728421" lon="-105.2306564">
  <ele>1595.64</ele>
  <time>2026-08-28T19:10:36Z</time>
  <course>340.15</course>
  <speed>0.51</speed>
  <fix>3d</fix>
</trkpt>
<trkpt lat="40.0728427" lon="-105.2306569">
  <ele>1595.7</ele>
  <time>2026-08-28T19:10:36Z</time>
  <course>8.66</course>
  <speed>0.21213203435596426</speed>
  <fix>3d</fix>
</trkpt>
<trkpt lat="40.0728427" lon="-105.2306568">
  <ele>1595.64</ele>
  <time>2026-08-28T19:10:36Z</time>
  <course>320.02</course>
  <speed>0.33</speed>
  <fix>3d</fix>
</trkpt>
<trkpt lat="40.0728426" lon="-105.2306575">
  <ele>1595.7</ele>
  <time>2026-08-28T19:10:36Z</time>
  <course>8.64</course>
  <speed>0.3111269837220809</speed>
  <fix>3d</fix>
</trkpt>
<trkpt lat="40.072843" lon="-105.2306573">
  <ele>1595.64</ele>
  <time>2026-08-28T19:10:36Z</time>
  <course>268.92</course>
  <speed>0.23</speed>
  <fix>3d</fix>
</trkpt>
<trkpt lat="40.072842" lon="-105.230658">
  <ele>1595.7</ele>
  <time>2026-08-28T19:10:36Z</time>
  <course>8.63</course>
  <speed>0.5056678751908212</speed>
  <fix>3d</fix>
</trkpt>
<trkpt lat="40.0728427" lon="-105.2306579">
  <ele>1595.63</ele>
  <time>2026-08-28T19:10:36Z</time>
  <course>221.33</course>
  <speed>0.34</speed>
  <fix>3d</fix>
</trkpt>
<trkpt lat="40.0728412" lon="-105.2306585">
  <ele>1595.7</ele>
  <time>2026-08-28T19:10:36Z</time>
  <course>8.55</course>
  <speed>0.6744627491566899</speed>
  <fix>3d</fix>
</trkpt>
<trkpt lat="40.0728421" lon="-105.2306584">
  <ele>1595.63</ele>
  <time>2026-08-28T19:10:36Z</time>
  <course>202.91</course>
  <speed>0.53</speed>
  <fix>3d</fix>
</trkpt>
<trkpt lat="40.07284" lon="-105.2306589">
  <ele>1595.7</ele>
  <time>2026-08-28T19:10:36Z</time>
  <course>8.52</course>
  <speed>0.7907591289387687</speed>
  <fix>3d</fix>
</trkpt>
<trkpt lat="40.0728411" lon="-105.2306589">
  <ele>1595.62</ele>
  <time>2026-08-28T19:10:36Z</time>
  <course>194.02</course>
  <speed>0.69</speed>
  <fix>3d</fix>
</trkpt>
<trkpt lat="40.0728386" lon="-105.2306592">
  <ele>1595.7</ele>
  <time>2026-08-28T19:10:36Z</time>
  <course>8.51</course>
  <speed>0.8329465769183519</speed>
  <fix>3d</fix>
</trkpt>
<trkpt lat="40.0728397" lon="-105.2306591">
  <ele>1595.62</ele>
  <time>2026-08-28T19:10:36Z</time>
  <course>188.25</course>
  <speed>0.79</speed>
  <fix>3d</fix>
</trkpt>
<trkpt lat="40.0728371" lon="-105.2306593">
  <ele>1595.69</ele>
  <time>2026-08-28T19:10:36Z</time>
  <course>8.52</course>
  <speed>0.8</speed>
  <fix>3d</fix>
</trkpt>
<trkpt lat="40.0728383" lon="-105.2306594">
  <ele>1595.61</ele>
  <time>2026-08-28T19:10:36Z</time>
  <course>183.55</course>
  <speed>0.82</speed>
  <fix>3d</fix>
</trkpt>
<trkpt lat="40.0728358" lon="-105.2306592">
  <ele>1595.69</ele>
  <time>2026-08-28T19:10:36Z</time>
  <course>8.57</course>
  <speed>0.7025667228100119</speed>
  <fix>3d</fix>
</trkpt>
<trkpt lat="40.0728369" lon="-105.2306594">
  <ele>1595.61</ele>
  <time>2026-08-28T19:10:36Z</time>
  <course>178.89</course>
  <speed>0.77</speed>
  <fix>3d</fix>
</trkpt>
<trkpt lat="40.0728348" lon="-105.2306591">
  <ele>1595.68</ele>
  <time>2026-08-28T19:10:36Z</time>
  <course>8.58</course>
  <speed>0.5336665625650534</speed>
  <fix>3d</fix>
</trkpt>
<trkpt lat="40.0728356" lon="-105.2306592">
  <ele>1595.61</ele>
  <time>2026-08-28T19:10:36Z</time>
  <course>173.19</course>
  <speed>0.65</speed>
  <fix>3d</fix>
</trkpt>
<trkpt lat="40.072834" lon="-105.2306588">
  <ele>1595.68</ele>
  <time>2026-08-28T19:10:36Z</time>
  <course>8.58</course>
  <speed>0.3361547262794322</speed>
  <fix>3d</fix>
</trkpt>
<trkpt lat="40.0728345" lon="-105.2306591">
  <ele>1595.61</ele>
  <time>2026-08-28T19:10:36Z</time>
  <course>164.18</course>
  <speed>0.48</speed>
  <fix>3d</fix>
</trkpt>
<trkpt lat="40.0728338" lon="-105.2306583">
  <ele>1595.68</ele>
  <time>2026-08-28T19:10:36Z</time>
  <course>8.56</course>
  <speed>0.21377558326431947</speed>
  <fix>3d</fix>
</trkpt>
<trkpt lat="40.072834" lon="-105.2306587">
  <ele>1595.61</ele>
  <time>2026-08-28T19:10:36Z</time>
  <course>143.35</course>
  <speed>0.28</speed>
  <fix>3d</fix>
</trkpt>
<trkpt lat="40.0728339" lon="-105.2306579">
  <ele>1595.68</ele>
  <time>2026-08-28T19:10:36Z</time>
  <course>8.52</course>
  <speed>0.304138126514911</speed>
  <fix>3d</fix>
</trkpt>
<trkpt lat="40.0728338" lon="-105.2306584">
  <ele>1595.61</ele>
  <time>2026-08-28T19:10:36Z</time>
  <course>80.4</course>
  <speed>0.19</speed>
  <fix>3d</fix>
</trkpt>
<trkpt lat="40.0728345" lon="-105.2306574">
  <ele>1595.67</ele>
  <time>2026-08-28T19:10:37Z</time>
  <course>8.44</course>
  <speed>0.49244289008980524</speed>
  <fix>3d</fix>
</trkpt>
<trkpt lat="40.072834" lon="-105.2306579">
  <ele>1595.61</ele>
  <time>2026-08-28T19:10:37Z</time>
  <course>32.76</course>
  <speed>0.34</speed>
  <fix>3d</fix>
</trkpt>
<trkpt lat="40.0728354" lon="-105.230657">
  <ele>1595.67</ele>
  <time>2026-08-28T19:10:37Z</time>
  <course>8.38</course>
  <speed>0.671863081289633</speed>
  <fix>3d</fix>
</trkpt>
<trkpt lat="40.0728347" lon="-105.2306575">
  <ele>1595.61</ele>
  <time>2026-08-28T19:10:37Z</time>
  <course>17.43</course>
  <speed>0.54</speed>
  <fix>3d</fix>
</trkpt>
<trkpt lat="40.0728367" lon="-105.2306567">
  <ele>1595.67</ele>
  <time>2026-08-28T19:10:37Z</time>
  <course>8.38</course>
  <speed>0.7891767862779544</speed>
  <fix>3d</fix>
</trkpt>
<trkpt lat="40.0728358" lon="-105.2306572">
  <ele>1595.61</ele>
  <time>2026-08-28T19:10:37Z</time>
  <course>9.84</course>
  <speed>0.7</speed>
  <fix>3d</fix>
</trkpt>
<trkpt lat="40.0728381" lon="-105.2306566">
  <ele>1595.68</ele>
  <time>2026-08-28T19:10:37Z</time>
  <course>8.38</course>
  <speed>0.8315046602394962</speed>
  <fix>3d</fix>
</trkpt>
<trkpt lat="40.0728371" lon="-105.230657">
  <ele>1595.61</ele>
  <time>2026-08-28T19:10:37Z</time>
  <course>4.62</course>
  <speed>0.81</speed>
  <fix>3d</fix>
</trkpt>
<trkpt lat="40.0728396" lon="-105.2306566">
  <ele>1595.69</ele>
  <time>2026-08-28T19:10:37Z</time>
  <course>8.41</course>
  <speed>0.8000624975587844</speed>
  <fix>3d</fix>
</trkpt>
<trkpt lat="40.0728387" lon="-105.2306569">
  <ele>1595.61</ele>
  <time>2026-08-28T19:10:37Z</time>
  <course>0.12</course>
  <speed>0.84</speed>
  <fix>3d</fix>
</trkpt>
<trkpt lat="40.072841" lon="-105.2306568">
  <ele>1595.69</ele>
  <time>2026-08-28T19:10:37Z</time>
  <course>8.52</course>
  <speed>0.6946221994724903</speed>
  <fix>3d</fix>
</trkpt>
<trkpt lat="40.0728402" lon="-105.230657">
  <ele>1595.62</ele>
  <time>2026-08-28T19:10:37Z</time>
  <course>355.42</course>
  <speed>0.8</speed>
  <fix>3d</fix>
</trkpt>
<trkpt lat="40.0728421" lon="-105.2306571">
  <ele>1595.7</ele>
  <time>2026-08-28T19:10:37Z</time>
  <course>8.6</course>
  <speed>0.5288667128870941</speed>
  <fix>3d</fix>
</trkpt>
<trkpt lat="40.0728414" lon="-105.2306572">
  <ele>1595.62</ele>
  <time>2026-08-28T19:10:37Z</time>
  <course>349.49</course>
  <speed>0.68</speed>
  <fix>3d</fix>
</trkpt>
<trkpt lat="40.0728429" lon="-105.2306575">
  <ele>1595.7</ele>
  <time>2026-08-28T19:10:37Z</time>
  <course>8.68</course>
  <speed>0.33837848631377265</speed>
  <fix>3d</fix>
</trkpt>
<trkpt lat="40.0728425" lon="-105.2306574">
  <ele>1595.62</ele>
  <time>2026-08-28T19:10:37Z</time>
  <course>340.08</course>
  <speed>0.51</speed>
  <fix>3d</fix>
</trkpt>
<trkpt lat="40.0728432" lon="-105.2306581">
  <ele>1595.7</ele>
  <time>2026-08-28T19:10:37Z</time>
  <course>8.72</course>
  <speed>0.2220360331117452</speed>
  <fix>3d</fix>
</trkpt>
<trkpt lat="40.0728432" lon="-105.2306579">
  <ele>1595.62</ele>
  <time>2026-08-28T19:10:37Z</time>
  <course>319.89</course>
  <speed>0.33</speed>
  <fix>3d</fix>
</trkpt>
<trkpt lat="40.0728431" lon="-105.2306586">
  <ele>1595.7</ele>
  <time>2026-08-28T19:10:37Z</time>
  <course>8.66</course>
  <speed>0.31827660925679097</speed>
  <fix>3d</fix>
</trkpt>
<trkpt lat="40.0728435" lon="-105.2306584">
  <ele>1595.62</ele>
  <time>2026-08-28T19:10:37Z</time>
  <course>268.57</course>
  <speed>0.23</speed>
  <fix>3d</fix>
</trkpt>
<trkpt lat="40.0728425" lon="-105.2306592">
  <ele>1595.69</ele>
  <time>2026-08-28T19:10:37Z</time>
  <course>8.59</course>
  <speed>0.5056678751908212</speed>
  <fix>3d</fix>
</trkpt>
<trkpt lat="40.0728432" lon="-105.230659">
  <ele>1595.62</ele>
  <time>2026-08-28T19:10:37Z</time>
  <course>220.99</course>
  <speed>0.34</speed>
  <fix>3d</fix>
</trkpt>
<trkpt lat="40.0728417" lon="-105.2306597">
  <ele>1595.68</ele>
  <time>2026-08-28T19:10:37Z</time>
  <course>8.52</course>
  <speed>0.6744627491566899</speed>
  <fix>3d</fix>
</trkpt>
<trkpt lat="40.0728426" lon="-105.2306595">
  <ele>1595.61</ele>
  <time>2026-08-28T19:10:37Z</time>
  <course>202.7</course>
  <speed>0.53</speed>
  <fix>3d</fix>
</trkpt>
<trkpt lat="40.0728405" lon="-105.23066">
  <ele>1595.68</ele>
  <time>2026-08-28T19:10:37Z</time>
  <course>8.5</course>
  <speed>0.7907591289387687</speed>
  <fix>3d</fix>
</trkpt>
<trkpt lat="40.0728415" lon="-105.2306598">
  <ele>1595.61</ele>
  <time>2026-08-28T19:10:37Z</time>
  <course>193.85</course>
  <speed>0.69</speed>
  <fix>3d</fix>
</trkpt>
<trkpt lat="40.0728391" lon="-105.2306603">
  <ele>1595.68</ele>
  <time>2026-08-28T19:10:37Z</time>
  <course>8.49</course>
  <speed>0.8329465769183519</speed>
  <fix>3d</fix>
</trkpt>
<trkpt lat="40.0728402" lon="-105.2306602">
  <ele>1595.61</ele>
  <time>2026-08-28T19:10:37Z</time>
  <course>188.09</course>
  <speed>0.79</speed>
  <fix>3d</fix>
</trkpt>
<trkpt lat="40.0728377" lon="-105.2306604">
  <ele>1595.69</ele>
  <time>2026-08-28T19:10:37Z</time>
  <course>8.49</course>
  <speed>0.81</speed>
  <fix>3d</fix>
</trkpt>
<trkpt lat="40.0728387" lon="-105.2306604">
  <ele>1595.61</ele>
  <time>2026-08-28T19:10:37Z</time>
  <course>183.39</course>
  <speed>0.82</speed>
  <fix>3d</fix>
</trkpt>
<trkpt lat="40.0728363" lon="-105.2306603">
  <ele>1595.69</ele>
  <time>2026-08-28T19:10:37Z</time>
  <course>8.52</course>
  <speed>0.7025667228100119</speed>
  <fix>3d</fix>
</trkpt>
<trkpt lat="40.0728372" lon="-105.2306605">
  <ele>1595.61</ele>
  <time>2026-08-28T19:10:37Z</time>
  <course>178.74</course>
  <speed>0.77</speed>
  <fix>3d</fix>
</trkpt>
<trkpt lat="40.0728352" lon="-105.2306602">
  <ele>1595.69</ele>
  <time>2026-08-28T19:10:37Z</time>
  <course>8.57</course>
  <speed>0.5360037313302959</speed>
  <fix>3d</fix>
</trkpt>
<trkpt lat="40.0728359" lon="-105.2306604">
  <ele>1595.61</ele>
  <time>2026-08-28T19:10:37Z</time>
  <course>173.08</course>
  <speed>0.65</speed>
  <fix>3d</fix>
</trkpt>
<trkpt lat="40.0728345" lon="-105.2306598">
  <ele>1595.69</ele>
  <time>2026-08-28T19:10:37Z</time>
  <course>8.59</course>
  <speed>0.34132096331752027</speed>
  <fix>3d</fix>
</trkpt>
<trkpt lat="40.072835" lon="-105.2306601">
  <ele>1595.61</ele>
  <time>2026-08-28T19:10:37Z</time>
  <course>164.19</course>
  <speed>0.48</speed>
  <fix>3d</fix>
</trkpt>
<trkpt lat="40.0728342" lon="-105.2306594">
  <ele>1595.69</ele>
  <time>2026-08-28T19:10:37Z</time>
  <course>8.57</course>
  <speed>0.21377558326431947</speed>
  <fix>3d</fix>
</trkpt>
<trkpt lat="40.0728344" lon="-105.2306598">
  <ele>1595.62</ele>
  <time>2026-08-28T19:10:37Z</time>
  <course>143.71</course>
  <speed>0.28</speed>
  <fix>3d</fix>
</trkpt>
<trkpt lat="40.0728343" lon="-105.2306589">
  <ele>1595.68</ele>
  <time>2026-08-28T19:10:37Z</time>
  <course>8.48</course>
  <speed>0.2842534080710379</speed>
  <fix>3d</fix>
</trkpt>
<trkpt lat="40.0728341" lon="-105.2306594">
  <ele>1595.61</ele>
  <time>2026-08-28T19:10:37Z</time>
  <course>83.42</course>
  <speed>0.19</speed>
  <fix>3d</fix>
</trkpt>
<trkpt lat="40.0728347" lon="-105.2306585">
  <ele>1595.68</ele>
  <time>2026-08-28T19:10:37Z</time>
  <course>8.42</course>
  <speed>0.34132096331752027</speed>
  <fix>3d</fix>
</trkpt>
<trkpt lat="40.0728344" lon="-105.230659">
  <ele>1595.61</ele>
  <time>2026-08-28T19:10:37Z</time>
  <course>39.15</course>
  <speed>0.28</speed>
  <fix>3d</fix>
</trkpt>
<trkpt lat="40.0728352" lon="-105.2306582">
  <ele>1595.69</ele>
  <time>2026-08-28T19:10:37Z</time>
  <course>8.5</course>
  <speed>0.35114099732158877</speed>
  <fix>3d</fix>
</trkpt>
<trkpt lat="40.0728349" lon="-105.2306586">
  <ele>1595.61</ele>
  <time>2026-08-28T19:10:37Z</time>
  <course>22.75</course>
  <speed>0.35</speed>
  <fix>3d</fix>
</trkpt>
<trkpt lat="40.0728358" lon="-105.230658">
  <ele>1595.69</ele>
  <time>2026-08-28T19:10:37Z</time>
  <course>8.56</course>
  <speed>0.34713109915419565</speed>
  <fix>3d</fix>
</trkpt>
<trkpt lat="40.0728354" lon="-105.2306584">
  <ele>1595.61</ele>
  <time>2026-08-28T19:10:37Z</time>
  <course>12.67</course>
  <speed>0.36</speed>
  <fix>3d</fix>
</trkpt>
<trkpt lat="40.0728364" lon="-105.230658">
  <ele>1595.69</ele>
  <time>2026-08-28T19:10:37Z</time>
  <course>8.59</course>
  <speed>0.32249030993194194</speed>
  <fix>3d</fix>
</trkpt>
<trkpt lat="40.0728361" lon="-105.2306582">
  <ele>1595.61</ele>
  <time>2026-08-28T19:10:37Z</time>
  <course>5.88</course>
  <speed>0.36</speed>
  <fix>3d</fix>
</trkpt>
<trkpt lat="40.072837" lon="-105.230658">
  <ele>1595.7</ele>
  <time>2026-08-28T19:10:37Z</time>
  <course>8.6</course>
  <speed>0.30066592756745814</speed>
  <fix>3d</fix>
</trkpt>
<trkpt lat="40.0728367" lon="-105.2306581">
  <ele>1595.61</ele>
  <time>2026-08-28T19:10:37Z</time>
  <course>1.25</course>
  <speed>0.34</speed>
  <fix>3d</fix>
</trkpt>
<trkpt lat="40.0728376" lon="-105.230658">
  <ele>1595.7</ele>
  <time>2026-08-28T19:10:37Z</time>
  <course>8.62</course>
  <speed>0.28</speed>
  <fix>3d</fix>
</trkpt>
<trkpt lat="40.0728373" lon="-105.2306581">
  <ele>1595.61</ele>
  <time>2026-08-28T19:10:37Z</time>
  <course>358.27</course>
  <speed>0.32</speed>
  <fix>3d</fix>
</trkpt>
<trkpt lat="40.0728381" lon="-105.230658">
  <ele>1595.7</ele>
  <time>2026-08-28T19:10:37Z</time>
  <course>8.62</course>
  <speed>0.26</speed>
  <fix>3d</fix>
</trkpt>
<trkpt lat="40.0728378" lon="-105.2306582">
  <ele>1595.61</ele>
  <time>2026-08-28T19:10:37Z</time>
  <course>356.61</course>
  <speed>0.3</speed>
  <fix>3d</fix>
</trkpt>
<trkpt lat="40.0728386" lon="-105.230658">
  <ele>1595.7</ele>
  <time>2026-08-28T19:10:37Z</time>
  <course>8.64</course>
  <speed>0.24</speed>
  <fix>3d</fix>
</trkpt>
<trkpt lat="40.0728384" lon="-105.2306583">
  <ele>1595.6</ele>
  <time>2026-08-28T19:10:37Z</time>
  <course>355.87</course>
  <speed>0.28</speed>
  <fix>3d</fix>
</trkpt>
<trkpt lat="40.072839" lon="-105.230658">
  <ele>1595.69</ele>
  <time>2026-08-28T19:10:37Z</time>
  <course>8.61</course>
  <speed>0.22</speed>
  <fix>3d</fix>
</trkpt>
<trkpt lat="40.0728389" lon="-105.2306583">
  <ele>1595.6</ele>
  <time>2026-08-28T19:10:37Z</time>
  <course>355.64</course>
  <speed>0.26</speed>
  <fix>3d</fix>
</trkpt>
<trkpt lat="40.0728395" lon="-105.2306581">
  <ele>1595.68</ele>
  <time>2026-08-28T19:10:37Z</time>
  <course>8.59</course>
  <speed>0.21</speed>
  <fix>3d</fix>
</trkpt>
<trkpt lat="40.0728393" lon="-105.2306583">
  <ele>1595.6</ele>
  <time>2026-08-28T19:10:37Z</time>
  <course>355.68</course>
  <speed>0.25</speed>
  <fix>3d</fix>
</trkpt>
<trkpt lat="40.0728399" lon="-105.2306581">
  <ele>1595.68</ele>
  <time>2026-08-28T19:10:37Z</time>
  <course>8.59</course>
  <speed>0.2</speed>
  <fix>3d</fix>
</trkpt>
<trkpt lat="40.0728397" lon="-105.2306583">
  <ele>1595.6</ele>
  <time>2026-08-28T19:10:37Z</time>
  <course>355.86</course>
  <speed>0.23</speed>
  <fix>3d</fix>
</trkpt>
<trkpt lat="40.0728403" lon="-105.2306582">
  <ele>1595.68</ele>
  <time>2026-08-28T19:10:37Z</time>
  <course>8.59</course>
  <speed>0.19</speed>
  <fix>3d</fix>
</trkpt>
<trkpt lat="40.0728402" lon="-105.2306583">
  <ele>1595.6</ele>
  <time>2026-08-28T19:10:37Z</time>
  <course>356.04</course>
  <speed>0.22</speed>
  <fix>3d</fix>
</trkpt>
<trkpt lat="40.0728406" lon="-105.2306582">
  <ele>1595.68</ele>
  <time>2026-08-28T19:10:37Z</time>
  <course>8.58</course>
  <speed>0.18</speed>
  <fix>3d</fix>
</trkpt>
<trkpt lat="40.0728406" lon="-105.2306584">
  <ele>1595.6</ele>
  <time>2026-08-28T19:10:37Z</time>
  <course>356.18</course>
  <speed>0.21</speed>
  <fix>3d</fix>
</trkpt>
<trkpt lat="40.072841" lon="-105.2306582">
  <ele>1595.68</ele>
  <time>2026-08-28T19:10:37Z</time>
  <course>8.57</course>
  <speed>0.17</speed>
  <fix>3d</fix>
</trkpt>
<trkpt lat="40.0728409" lon="-105.2306584">
  <ele>1595.6</ele>
  <time>2026-08-28T19:10:37Z</time>
  <course>356.36</course>
  <speed>0.2</speed>
  <fix>3d</fix>
</trkpt>
<trkpt lat="40.0728413" lon="-105.2306582">
  <ele>1595.68</ele>
  <time>2026-08-28T19:10:37Z</time>
  <course>8.57</course>
  <speed>0.16</speed>
  <fix>3d</fix>
</trkpt>
<trkpt lat="40.0728413" lon="-105.2306584">
  <ele>1595.6</ele>
  <time>2026-08-28T19:10:37Z</time>
  <course>356.57</course>
  <speed>0.19</speed>
  <fix>3d</fix>
</trkpt>
<trkpt lat="40.0728417" lon="-105.2306583">
  <ele>1595.68</ele>
  <time>2026-08-28T19:10:37Z</time>
  <course>8.57</course>
  <speed>0.15</speed>
  <fix>3d</fix>
</trkpt>
<trkpt lat="40.0728417" lon="-105.2306584">
  <ele>1595.6</ele>
  <time>2026-08-28T19:10:37Z</time>
  <course>356.85</course>
  <speed>0.18</speed>
  <fix>3d</fix>
</trkpt>
<trkpt lat="40.072842" lon="-105.2306583">
  <ele>1595.68</ele>
  <time>2026-08-28T19:10:37Z</time>
  <course>8.58</course>
  <speed>0.15</speed>
  <fix>3d</fix>
</trkpt>
<trkpt lat="40.072842" lon="-105.2306584">
  <ele>1595.6</ele>
  <time>2026-08-28T19:10:37Z</time>
  <course>357.13</course>
  <speed>0.18</speed>
  <fix>3d</fix>
</trkpt>
<trkpt lat="40.0728423" lon="-105.2306583">
  <ele>1595.68</ele>
  <time>2026-08-28T19:10:37Z</time>
  <course>8.57</course>
  <speed>0.17029386365926402</speed>
  <fix>3d</fix>
</trkpt>
<trkpt lat="40.0728423" lon="-105.2306584">
  <ele>1595.6</ele>
  <time>2026-08-28T19:10:37Z</time>
  <course>358.04</course>
  <speed>0.18</speed>
  <fix>3d</fix>
</trkpt>
<trkpt lat="40.0728427" lon="-105.2306583">
  <ele>1595.68</ele>
  <time>2026-08-28T19:10:37Z</time>
  <course>8.56</course>
  <speed>0.2220360331117452</speed>
  <fix>3d</fix>
</trkpt>
<trkpt lat="40.0728426" lon="-105.2306584">
  <ele>1595.6</ele>
  <time>2026-08-28T19:10:37Z</time>
  <course>1.08</course>
  <speed>0.21</speed>
  <fix>3d</fix>
</trkpt>
<trkpt lat="40.0728432" lon="-105.2306583">
  <ele>1595.68</ele>
  <time>2026-08-28T19:10:37Z</time>
  <course>8.56</course>
  <speed>0.31575306807693887</speed>
  <fix>3d</fix>
</trkpt>
<trkpt lat="40.0728431" lon="-105.2306584">
  <ele>1595.6</ele>
  <time>2026-08-28T19:10:37Z</time>
  <course>5.04</course>
  <speed>0.27</speed>
  <fix>3d</fix>
</trkpt>
<trkpt lat="40.0728439" lon="-105.2306581">
  <ele>1595.68</ele>
  <time>2026-08-28T19:10:37Z</time>
  <course>8.52</course>
  <speed>0.4197618372363071</speed>
  <fix>3d</fix>
</trkpt>
<trkpt lat="40.0728436" lon="-105.2306584">
  <ele>1595.6</ele>
  <time>2026-08-28T19:10:37Z</time>
  <course>7.72</course>
  <speed>0.36</speed>
  <fix>3d</fix>
</trkpt>
<trkpt lat="40.0728448" lon="-105.2306579">
  <ele>1595.67</ele>
  <time>2026-08-28T19:10:37Z</time>
  <course>8.5</course>
  <speed>0.5315072906367324</speed>
  <fix>3d</fix>
</trkpt>
<trkpt lat="40.0728444" lon="-105.2306583">
  <ele>1595.6</ele>
  <time>2026-08-28T19:10:37Z</time>
  <course>8.8</course>
  <speed>0.47</speed>
  <fix>3d</fix>
</trkpt>
<trkpt lat="40.0728458" lon="-105.2306577">
  <ele>1595.67</ele>
  <time>2026-08-28T19:10:37Z</time>
  <course>8.47</course>
  <speed>0.6315061361538777</speed>
  <fix>3d</fix>
</trkpt>
<trkpt lat="40.0728454" lon="-105.2306581">
  <ele>1595.61</ele>
  <time>2026-08-28T19:10:37Z</time>
  <course>8.7</course>
  <speed>0.58</speed>
  <fix>3d</fix>
</trkpt>
<trkpt lat="40.0728471" lon="-105.2306575">
  <ele>1595.68</ele>
  <time>2026-08-28T19:10:37Z</time>
  <course>8.45</course>
  <speed>0.6987131027825368</speed>
  <fix>3d</fix>
</trkpt>
<trkpt lat="40.0728465" lon="-105.2306579">
  <ele>1595.61</ele>
  <time>2026-08-28T19:10:37Z</time>
  <course>7.84</course>
  <speed>0.67</speed>
  <fix>3d</fix>
</trkpt>
<trkpt lat="40.0728484" lon="-105.2306573">
  <ele>1595.68</ele>
  <time>2026-08-28T19:10:37Z</time>
  <course>8.44</course>
  <speed>0.7156814934033155</speed>
  <fix>3d</fix>
</trkpt>
<trkpt lat="40.0728477" lon="-105.2306577">
  <ele>1595.61</ele>
  <time>2026-08-28T19:10:37Z</time>
  <course>6.45</course>
  <speed>0.72</speed>
  <fix>3d</fix>
</trkpt>
<trkpt lat="40.0728496" lon="-105.2306572">
  <ele>1595.68</ele>
  <time>2026-08-28T19:10:37Z</time>
  <course>8.5</course>
  <speed>0.671863081289633</speed>
  <fix>3d</fix>
</trkpt>
<trkpt lat="40.072849" lon="-105.2306576">
  <ele>1595.61</ele>
  <time>2026-08-28T19:10:37Z</time>
  <course>4.54</course>
  <speed>0.73</speed>
  <fix>3d</fix>
</trkpt>
<trkpt lat="40.0728508" lon="-105.2306572">
  <ele>1595.69</ele>
  <time>2026-08-28T19:10:37Z</time>
  <course>8.53</course>
  <speed>0.58</speed>
  <fix>3d</fix>
</trkpt>
<trkpt lat="40.0728503" lon="-105.2306574">
  <ele>1595.61</ele>
  <time>2026-08-28T19:10:37Z</time>
  <course>1.95</course>
  <speed>0.68</speed>
  <fix>3d</fix>
</trkpt>
<trkpt lat="40.0728518" lon="-105.2306573">
  <ele>1595.7</ele>
  <time>2026-08-28T19:10:37Z</time>
  <course>8.58</course>
  <speed>0.4310452412450461</speed>
  <fix>3d</fix>
</trkpt>
<trkpt lat="40.0728515" lon="-105.2306574">
  <ele>1595.62</ele>
  <time>2026-08-28T19:10:37Z</time>
  <course>358.17</course>
  <speed>0.57</speed>
  <fix>3d</fix>
</trkpt>
<trkpt lat="40.0728524" lon="-105.2306574">
  <ele>1595.7</ele>
  <time>2026-08-28T19:10:37Z</time>
  <course>8.62</course>
  <speed>0.24351591323771843</speed>
  <fix>3d</fix>
</trkpt>
<trkpt lat="40.0728523" lon="-105.2306574">
  <ele>1595.62</ele>
  <time>2026-08-28T19:10:37Z</time>
  <course>351.45</course>
  <speed>0.41</speed>
  <fix>3d</fix>
</trkpt>
<trkpt lat="40.0728527" lon="-105.2306577">
  <ele>1595.7</ele>
  <time>2026-08-28T19:10:37Z</time>
  <course>8.63</course>
  <speed>0.12</speed>
  <fix>3d</fix>
</trkpt>
<trkpt lat="40.0728529" lon="-105.2306576">
  <ele>1595.62</ele>
  <time>2026-08-28T19:10:37Z</time>
  <course>333.6</course>
  <speed>0.22</speed>
  <fix>3d</fix>
</trkpt>
<trkpt lat="40.0728526" lon="-105.230658">
  <ele>1595.69</ele>
  <time>2026-08-28T19:10:37Z</time>
  <course>8.59</course>
  <speed>0.266270539113887</speed>
  <fix>3d</fix>
</trkpt>
<trkpt lat="40.072853" lon="-105.2306579">
  <ele>1595.62</ele>
  <time>2026-08-28T19:10:37Z</time>
  <course>257.34</course>
  <speed>0.13</speed>
  <fix>3d</fix>
</trkpt>
<trkpt lat="40.0728521" lon="-105.2306584">
  <ele>1595.68</ele>
  <time>2026-08-28T19:10:37Z</time>
  <course>8.54</course>
  <speed>0.4775981574503821</speed>
  <fix>3d</fix>
</trkpt>
<trkpt lat="40.0728527" lon="-105.2306582">
  <ele>1595.62</ele>
  <time>2026-08-28T19:10:37Z</time>
  <course>209.02</course>
  <speed>0.3</speed>
  <fix>3d</fix>
</trkpt>
<trkpt lat="40.0728512" lon="-105.2306587">
  <ele>1595.68</ele>
  <time>2026-08-28T19:10:37Z</time>
  <course>8.46</course>
  <speed>0.6476109943476871</speed>
  <fix>3d</fix>
</trkpt>
<trkpt lat="40.0728522" lon="-105.2306586">
  <ele>1595.61</ele>
  <time>2026-08-28T19:10:37Z</time>
  <course>197.03</course>
  <speed>0.5</speed>
  <fix>3d</fix>
</trkpt>
<trkpt lat="40.07285" lon="-105.2306591">
  <ele>1595.68</ele>
  <time>2026-08-28T19:10:37Z</time>
  <course>8.43</course>
  <speed>0.7792945527847606</speed>
  <fix>3d</fix>
</trkpt>
<trkpt lat="40.0728511" lon="-105.2306589">
  <ele>1595.61</ele>
  <time>2026-08-28T19:10:37Z</time>
  <course>191.34</course>
  <speed>0.67</speed>
  <fix>3d</fix>
</trkpt>
<trkpt lat="40.0728486" lon="-105.2306593">
  <ele>1595.68</ele>
  <time>2026-08-28T19:10:37Z</time>
  <course>8.43</course>
  <speed>0.8338465086573187</speed>
  <fix>3d</fix>
</trkpt>
<trkpt lat="40.0728498" lon="-105.2306591">
  <ele>1595.61</ele>
  <time>2026-08-28T19:10:37Z</time>
  <course>187.48</course>
  <speed>0.78</speed>
  <fix>3d</fix>
</trkpt>
<trkpt lat="40.0728472" lon="-105.2306594">
  <ele>1595.68</ele>
  <time>2026-08-28T19:10:37Z</time>
  <course>8.44</course>
  <speed>0.8205485969764374</speed>
  <fix>3d</fix>
</trkpt>
<trkpt lat="40.0728484" lon="-105.2306594">
  <ele>1595.61</ele>
  <time>2026-08-28T19:10:37Z</time>
  <course>184.15</course>
  <speed>0.83</speed>
  <fix>3d</fix>
</trkpt>
<trkpt lat="40.0728458" lon="-105.2306594">
  <ele>1595.68</ele>
  <time>2026-08-28T19:10:37Z</time>
  <course>8.48</course>
  <speed>0.7402702209328699</speed>
  <fix>3d</fix>
</trkpt>
<trkpt lat="40.0728469" lon="-105.2306595">
  <ele>1595.61</ele>
  <time>2026-08-28T19:10:37Z</time>
  <course>180.73</course>
  <speed>0.8</speed>
  <fix>3d</fix>
</trkpt>
<trkpt lat="40.0728446" lon="-105.2306594">
  <ele>1595.68</ele>
  <time>2026-08-28T19:10:37Z</time>
  <course>8.54</course>
  <speed>0.5854912467321779</speed>
  <fix>3d</fix>
</trkpt>
<trkpt lat="40.0728455" lon="-105.2306595">
  <ele>1595.62</ele>
  <time>2026-08-28T19:10:37Z</time>
  <course>176.6</course>
  <speed>0.7</speed>
  <fix>3d</fix>
</trkpt>
<trkpt lat="40.0728438" lon="-105.2306591">
  <ele>1595.68</ele>
  <time>2026-08-28T19:10:37Z</time>
  <course>8.56</course>
  <speed>0.3921734310225516</speed>
  <fix>3d</fix>
</trkpt>
<trkpt lat="40.0728444" lon="-105.2306594">
  <ele>1595.62</ele>
  <time>2026-08-28T19:10:37Z</time>
  <course>170.41</course>
  <speed>0.53</speed>
  <fix>3d</fix>
</trkpt>
<trkpt lat="40.0728434" lon="-105.2306588">
  <ele>1595.68</ele>
  <time>2026-08-28T19:10:37Z</time>
  <course>8.55</course>
  <speed>0.20808652046684814</speed>
  <fix>3d</fix>
</trkpt>
<trkpt lat="40.0728436" lon="-105.2306591">
  <ele>1595.63</ele>
  <time>2026-08-28T19:10:37Z</time>
  <course>157.53</course>
  <speed>0.33</speed>
  <fix>3d</fix>
</trkpt>
<trkpt lat="40.0728434" lon="-105.2306584">
  <ele>1595.68</ele>
  <time>2026-08-28T19:10:37Z</time>
  <course>8.52</course>
  <speed>0.23021728866442676</speed>
  <fix>3d</fix>
</trkpt>
<trkpt lat="40.0728433" lon="-105.2306587">
  <ele>1595.63</ele>
  <time>2026-08-28T19:10:37Z</time>
  <course>110.7</course>
  <speed>0.16</speed>
  <fix>3d</fix>
</trkpt>
<trkpt lat="40.0728437" lon="-105.230658">
  <ele>1595.68</ele>
  <time>2026-08-28T19:10:37Z</time>
  <course>8.48</course>
  <speed>0.4114608122288197</speed>
  <fix>3d</fix>
</trkpt>
<trkpt lat="40.0728435" lon="-105.2306584">
  <ele>1595.63</ele>
  <time>2026-08-28T19:10:37Z</time>
  <course>38.02</course>
  <speed>0.25</speed>
  <fix>3d</fix>
</trkpt>
<trkpt lat="40.0728446" lon="-105.2306576">
  <ele>1595.68</ele>
  <time>2026-08-28T19:10:37Z</time>
  <course>8.41</course>
  <speed>0.6016643582596529</speed>
  <fix>3d</fix>
</trkpt>
<trkpt lat="40.072844" lon="-105.2306581">
  <ele>1595.63</ele>
  <time>2026-08-28T19:10:37Z</time>
  <course>18.1</course>
  <speed>0.46</speed>
  <fix>3d</fix>
</trkpt>
<trkpt lat="40.0728458" lon="-105.2306573">
  <ele>1595.68</ele>
  <time>2026-08-28T19:10:37Z</time>
  <course>8.38</course>
  <speed>0.7496665925596525</speed>
  <fix>3d</fix>
</trkpt>
<trkpt lat="40.0728449" lon="-105.2306577">
  <ele>1595.63</ele>
  <time>2026-08-28T19:10:37Z</time>
  <course>10.03</course>
  <speed>0.64</speed>
  <fix>3d</fix>
</trkpt>
<trkpt lat="40.0728472" lon="-105.2306572">
  <ele>1595.68</ele>
  <time>2026-08-28T19:10:37Z</time>
  <course>8.38</course>
  <speed>0.8229823813423954</speed>
  <fix>3d</fix>
</trkpt>
<trkpt lat="40.0728462" lon="-105.2306576">
  <ele>1595.63</ele>
  <time>2026-08-28T19:10:37Z</time>
  <course>4.93</course>
  <speed>0.77</speed>
  <fix>3d</fix>
</trkpt>
<trkpt lat="40.0728486" lon="-105.2306572">
  <ele>1595.69</ele>
  <time>2026-08-28T19:10:37Z</time>
  <course>8.38</course>
  <speed>0.81</speed>
  <fix>3d</fix>
</trkpt>
<trkpt lat="40.0728477" lon="-105.2306574">
  <ele>1595.63</ele>
  <time>2026-08-28T19:10:37Z</time>
  <course>0.73</course>
  <speed>0.83</speed>
  <fix>3d</fix>
</trkpt>
<trkpt lat="40.07285" lon="-105.2306573">
  <ele>1595.69</ele>
  <time>2026-08-28T19:10:37Z</time>
  <course>8.46</course>
  <speed>0.7317103251970687</speed>
  <fix>3d</fix>
</trkpt>
<trkpt lat="40.0728492" lon="-105.2306575">
  <ele>1595.63</ele>
  <time>2026-08-28T19:10:37Z</time>
  <course>356.5</course>
  <speed>0.82</speed>
  <fix>3d</fix>
</trkpt>
<trkpt lat="40.0728513" lon="-105.2306575">
  <ele>1595.69</ele>
  <time>2026-08-28T19:10:37Z</time>
  <course>8.55</course>
  <speed>0.5903388857258176</speed>
  <fix>3d</fix>
</trkpt>
<trkpt lat="40.0728506" lon="-105.2306577">
  <ele>1595.63</ele>
  <time>2026-08-28T19:10:37Z</time>
  <course>351.4</course>
  <speed>0.73</speed>
  <fix>3d</fix>
</trkpt>
<trkpt lat="40.0728521" lon="-105.2306579">
  <ele>1595.69</ele>
  <time>2026-08-28T19:10:37Z</time>
  <course>8.6</course>
  <speed>0.40718546143004664</speed>
  <fix>3d</fix>
</trkpt>
<trkpt lat="40.0728517" lon="-105.2306579">
  <ele>1595.63</ele>
  <time>2026-08-28T19:10:37Z</time>
  <course>343.88</course>
  <speed>0.57</speed>
  <fix>3d</fix>
</trkpt>
<trkpt lat="40.0728526" lon="-105.2306584">
  <ele>1595.69</ele>
  <time>2026-08-28T19:10:37Z</time>
  <course>8.6</course>
  <speed>0.23323807579381203</speed>
  <fix>3d</fix>
</trkpt>
<trkpt lat="40.0728526" lon="-105.2306583">
  <ele>1595.64</ele>
  <time>2026-08-28T19:10:37Z</time>
  <course>329.35</course>
  <speed>0.39</speed>
  <fix>3d</fix>
</trkpt>
<trkpt lat="40.0728527" lon="-105.230659">
  <ele>1595.69</ele>
  <time>2026-08-28T19:10:37Z</time>
  <course>8.59</course>
  <speed>0.25553864678361277</speed>
  <fix>3d</fix>
</trkpt>
<trkpt lat="40.0728529" lon="-105.2306588">
  <ele>1595.64</ele>
  <time>2026-08-28T19:10:37Z</time>
  <course>291.23</course>
  <speed>0.23</speed>
  <fix>3d</fix>
</trkpt>
<trkpt lat="40.0728524" lon="-105.2306595">
  <ele>1595.69</ele>
  <time>2026-08-28T19:10:37Z</time>
  <course>8.55</course>
  <speed>0.4341658669218482</speed>
  <fix>3d</fix>
</trkpt>
<trkpt lat="40.0728528" lon="-105.2306593">
  <ele>1595.64</ele>
  <time>2026-08-28T19:10:37Z</time>
  <course>233.07</course>
  <speed>0.28</speed>
  <fix>3d</fix>
</trkpt>
<trkpt lat="40.0728516" lon="-105.23066">
  <ele>1595.69</ele>
  <time>2026-08-28T19:10:37Z</time>
  <course>8.51</course>
  <speed>0.6198386886924694</speed>
  <fix>3d</fix>
</trkpt>
<trkpt lat="40.0728524" lon="-105.2306599">
  <ele>1595.64</ele>
  <time>2026-08-28T19:10:37Z</time>
  <course>207.44</course>
  <speed>0.46</speed>
  <fix>3d</fix>
</trkpt>
<trkpt lat="40.0728505" lon="-105.2306605">
  <ele>1595.69</ele>
  <time>2026-08-28T19:10:37Z</time>
  <course>8.47</course>
  <speed>0.7550496672405067</speed>
  <fix>3d</fix>
</trkpt>
<trkpt lat="40.0728515" lon="-105.2306603">
  <ele>1595.63</ele>
  <time>2026-08-28T19:10:37Z</time>
  <course>196.52</course>
  <speed>0.63</speed>
  <fix>3d</fix>
</trkpt>
<trkpt lat="40.0728491" lon="-105.2306608">
  <ele>1595.69</ele>
  <time>2026-08-28T19:10:37Z</time>
  <course>8.48</course>
  <speed>0.8249242389456137</speed>
  <fix>3d</fix>
</trkpt>
<trkpt lat="40.0728503" lon="-105.2306607">
  <ele>1595.63</ele>
  <time>2026-08-28T19:10:37Z</time>
  <course>190.09</course>
  <speed>0.76</speed>
  <fix>3d</fix>
</trkpt>
<trkpt lat="40.0728477" lon="-105.2306609">
  <ele>1595.69</ele>
  <time>2026-08-28T19:10:37Z</time>
  <course>8.48</course>
  <speed>0.8202438661763951</speed>
  <fix>3d</fix>
</trkpt>
<trkpt lat="40.0728488" lon="-105.230661">
  <ele>1595.63</ele>
  <time>2026-08-28T19:10:37Z</time>
  <course>185.24</course>
  <speed>0.82</speed>
  <fix>3d</fix>
</trkpt>
<trkpt lat="40.0728463" lon="-105.2306609">
  <ele>1595.69</ele>
  <time>2026-08-28T19:10:37Z</time>
  <course>8.5</course>
  <speed>0.7410802925459562</speed>
  <fix>3d</fix>
</trkpt>
<trkpt lat="40.0728474" lon="-105.230661">
  <ele>1595.63</ele>
  <time>2026-08-28T19:10:37Z</time>
  <course>180.74</course>
  <speed>0.8</speed>
  <fix>3d</fix>
</trkpt>
<trkpt lat="40.0728451" lon="-105.2306608">
  <ele>1595.69</ele>
  <time>2026-08-28T19:10:37Z</time>
  <course>8.55</course>
  <speed>0.5984145720150873</speed>
  <fix>3d</fix>
</trkpt>
<trkpt lat="40.072846" lon="-105.230661">
  <ele>1595.63</ele>
  <time>2026-08-28T19:10:37Z</time>
  <course>175.7</course>
  <speed>0.7</speed>
  <fix>3d</fix>
</trkpt>
<trkpt lat="40.0728442" lon="-105.2306605">
  <ele>1595.69</ele>
  <time>2026-08-28T19:10:37Z</time>
  <course>8.58</course>
  <speed>0.41231056256176607</speed>
  <fix>3d</fix>
</trkpt>
<trkpt lat="40.0728449" lon="-105.2306609">
  <ele>1595.63</ele>
  <time>2026-08-28T19:10:37Z</time>
  <course>168.61</course>
  <speed>0.55</speed>
  <fix>3d</fix>
</trkpt>
<trkpt lat="40.0728438" lon="-105.2306602">
  <ele>1595.7</ele>
  <time>2026-08-28T19:10:37Z</time>
  <course>8.57</course>
  <speed>0.23600847442411893</speed>
  <fix>3d</fix>
</trkpt>
<trkpt lat="40.0728441" lon="-105.2306606">
  <ele>1595.64</ele>
  <time>2026-08-28T19:10:37Z</time>
  <course>154.74</course>
  <speed>0.35</speed>
  <fix>3d</fix>
</trkpt>
<trkpt lat="40.0728438" lon="-105.2306597">
  <ele>1595.7</ele>
  <time>2026-08-28T19:10:37Z</time>
  <course>8.56</course>
  <speed>0.23706539182259395</speed>
  <fix>3d</fix>
</trkpt>
<trkpt lat="40.0728437" lon="-105.2306603">
  <ele>1595.64</ele>
  <time>2026-08-28T19:10:37Z</time>
  <course>111.84</course>
  <speed>0.19</speed>
  <fix>3d</fix>
</trkpt>
<trkpt lat="40.0728441" lon="-105.2306593">
  <ele>1595.69</ele>
  <time>2026-08-28T19:10:37Z</time>
  <course>8.54</course>
  <speed>0.4167733196834941</speed>
  <fix>3d</fix>
</trkpt>
<trkpt lat="40.0728438" lon="-105.2306598">
  <ele>1595.63</ele>
  <time>2026-08-28T19:10:37Z</time>
  <course>44.32</course>
  <speed>0.26</speed>
  <fix>3d</fix>
</trkpt>
<trkpt lat="40.0728449" lon="-105.2306589">
  <ele>1595.69</ele>
  <time>2026-08-28T19:10:37Z</time>
  <course>8.51</course>
  <speed>0.5977457653551382</speed>
  <fix>3d</fix>
</trkpt>
<trkpt lat="40.0728443" lon="-105.2306593">
  <ele>1595.63</ele>
  <time>2026-08-28T19:10:37Z</time>
  <course>21.39</course>
  <speed>0.46</speed>
  <fix>3d</fix>
</trkpt>
<trkpt lat="40.0728461" lon="-105.2306586">
  <ele>1595.7</ele>
  <time>2026-08-28T19:10:37Z</time>
  <course>8.43</course>
  <speed>0.7433034373659253</speed>
  <fix>3d</fix>
</trkpt>
<trkpt lat="40.0728453" lon="-105.230659">
  <ele>1595.62</ele>
  <time>2026-08-28T19:10:37Z</time>
  <course>12.01</course>
  <speed>0.64</speed>
  <fix>3d</fix>
</trkpt>
<trkpt lat="40.0728475" lon="-105.2306584">
  <ele>1595.7</ele>
  <time>2026-08-28T19:10:37Z</time>
  <course>8.42</course>
  <speed>0.8139410298049853</speed>
  <fix>3d</fix>
</trkpt>
<trkpt lat="40.0728466" lon="-105.2306587">
  <ele>1595.62</ele>
  <time>2026-08-28T19:10:37Z</time>
  <course>6.23</course>
  <speed>0.77</speed>
  <fix>3d</fix>
</trkpt>
<trkpt lat="40.0728489" lon="-105.2306583">
  <ele>1595.7</ele>
  <time>2026-08-28T19:10:37Z</time>
  <course>8.47</course>
  <speed>0.8100617260431454</speed>
  <fix>3d</fix>
</trkpt>
<trkpt lat="40.072848" lon="-105.2306586">
  <ele>1595.62</ele>
  <time>2026-08-28T19:10:37Z</time>
  <course>1.61</course>
  <speed>0.83</speed>
  <fix>3d</fix>
</trkpt>
<trkpt lat="40.0728504" lon="-105.2306585">
  <ele>1595.7</ele>
  <time>2026-08-28T19:10:37Z</time>
  <course>8.52</course>
  <speed>0.7317103251970687</speed>
  <fix>3d</fix>
</trkpt>
<trkpt lat="40.0728495" lon="-105.2306587">
  <ele>1595.62</ele>
  <time>2026-08-28T19:10:37Z</time>
  <course>357.13</course>
  <speed>0.82</speed>
  <fix>3d</fix>
</trkpt>
<trkpt lat="40.0728516" lon="-105.2306586">
  <ele>1595.7</ele>
  <time>2026-08-28T19:10:37Z</time>
  <course>8.59</course>
  <speed>0.5903388857258176</speed>
  <fix>3d</fix>
</trkpt>
<trkpt lat="40.0728509" lon="-105.2306588">
  <ele>1595.62</ele>
  <time>2026-08-28T19:10:37Z</time>
  <course>351.84</course>
  <speed>0.73</speed>
  <fix>3d</fix>
</trkpt>
<trkpt lat="40.0728525" lon="-105.2306591">
  <ele>1595.7</ele>
  <time>2026-08-28T19:10:37Z</time>
  <course>8.66</course>
  <speed>0.40718546143004664</speed>
  <fix>3d</fix>
</trkpt>
<trkpt lat="40.0728521" lon="-105.2306591">
  <ele>1595.62</ele>
  <time>2026-08-28T19:10:37Z</time>
  <course>344.17</course>
  <speed>0.58</speed>
  <fix>3d</fix>
</trkpt>
<trkpt lat="40.072853" lon="-105.2306596">
  <ele>1595.69</ele>
  <time>2026-08-28T19:10:37Z</time>
  <course>8.65</course>
  <speed>0.23853720883753127</speed>
  <fix>3d</fix>
</trkpt>
<trkpt lat="40.0728529" lon="-105.2306595">
  <ele>1595.61</ele>
  <time>2026-08-28T19:10:37Z</time>
  <course>329.64</course>
  <speed>0.39</speed>
  <fix>3d</fix>
</trkpt>
<trkpt lat="40.0728531" lon="-105.2306601">
  <ele>1595.69</ele>
  <time>2026-08-28T19:10:37Z</time>
  <course>8.62</course>
  <speed>0.25059928172283336</speed>
  <fix>3d</fix>
</trkpt>
<trkpt lat="40.0728533" lon="-105.23066">
  <ele>1595.61</ele>
  <time>2026-08-28T19:10:37Z</time>
  <course>292.14</course>
  <speed>0.24</speed>
  <fix>3d</fix>
</trkpt>
<trkpt lat="40.0728527" lon="-105.2306607">
  <ele>1595.69</ele>
  <time>2026-08-28T19:10:37Z</time>
  <course>8.6</course>
  <speed>0.4304648650006177</speed>
  <fix>3d</fix>
</trkpt>
<trkpt lat="40.0728532" lon="-105.2306605">
  <ele>1595.61</ele>
  <time>2026-08-28T19:10:37Z</time>
  <course>234.14</course>
  <speed>0.28</speed>
  <fix>3d</fix>
</trkpt>
<trkpt lat="40.072852" lon="-105.2306612">
  <ele>1595.69</ele>
  <time>2026-08-28T19:10:37Z</time>
  <course>8.52</course>
  <speed>0.6135144660071187</speed>
  <fix>3d</fix>
</trkpt>
<trkpt lat="40.0728527" lon="-105.230661">
  <ele>1595.6</ele>
  <time>2026-08-28T19:10:37Z</time>
  <course>207.93</course>
  <speed>0.46</speed>
  <fix>3d</fix>
</trkpt>
<trkpt lat="40.0728509" lon="-105.2306616">
  <ele>1595.69</ele>
  <time>2026-08-28T19:10:37Z</time>
  <course>8.49</course>
  <speed>0.7550496672405067</speed>
  <fix>3d</fix>
</trkpt>
<trkpt lat="40.0728518" lon="-105.2306615">
  <ele>1595.6</ele>
  <time>2026-08-28T19:10:37Z</time>
  <course>196.79</course>
  <speed>0.63</speed>
  <fix>3d</fix>
</trkpt>
<trkpt lat="40.0728495" lon="-105.230662">
  <ele>1595.69</ele>
  <time>2026-08-28T19:10:37Z</time>
  <course>8.48</course>
  <speed>0.8249242389456137</speed>
  <fix>3d</fix>
</trkpt>
<trkpt lat="40.0728506" lon="-105.2306619">
  <ele>1595.6</ele>
  <time>2026-08-28T19:10:37Z</time>
  <course>190.25</course>
  <speed>0.76</speed>
  <fix>3d</fix>
</trkpt>
<trkpt lat="40.0728481" lon="-105.2306621">
  <ele>1595.69</ele>
  <time>2026-08-28T19:10:37Z</time>
  <course>8.48</course>
  <speed>0.8205485969764374</speed>
  <fix>3d</fix>
</trkpt>
<trkpt lat="40.0728492" lon="-105.2306621">
  <ele>1595.6</ele>
  <time>2026-08-28T19:10:37Z</time>
  <course>185.32</course>
  <speed>0.81</speed>
  <fix>3d</fix>
</trkpt>
<trkpt lat="40.0728467" lon="-105.2306621">
  <ele>1595.69</ele>
  <time>2026-08-28T19:10:37Z</time>
  <course>8.5</course>
  <speed>0.740607858451421</speed>
  <fix>3d</fix>
</trkpt>
<trkpt lat="40.0728477" lon="-105.2306622">
  <ele>1595.6</ele>
  <time>2026-08-28T19:10:37Z</time>
  <course>180.75</course>
  <speed>0.8</speed>
  <fix>3d</fix>
</trkpt>
<trkpt lat="40.0728455" lon="-105.230662">
  <ele>1595.7</ele>
  <time>2026-08-28T19:10:37Z</time>
  <course>8.55</course>
  <speed>0.5984145720150873</speed>
  <fix>3d</fix>
</trkpt>
<trkpt lat="40.0728463" lon="-105.2306622">
  <ele>1595.6</ele>
  <time>2026-08-28T19:10:37Z</time>
  <course>175.62</course>
  <speed>0.7</speed>
  <fix>3d</fix>
</trkpt>
<trkpt lat="40.0728446" lon="-105.2306617">
  <ele>1595.7</ele>
  <time>2026-08-28T19:10:37Z</time>
  <course>8.59</course>
  <speed>0.41231056256176607</speed>
  <fix>3d</fix>
</trkpt>
<trkpt lat="40.0728453" lon="-105.2306621">
  <ele>1595.6</ele>
  <time>2026-08-28T19:10:37Z</time>
  <course>168.41</course>
  <speed>0.55</speed>
  <fix>3d</fix>
</trkpt>
<trkpt lat="40.0728442" lon="-105.2306613">
  <ele>1595.7</ele>
  <time>2026-08-28T19:10:37Z</time>
  <course>8.6</course>
  <speed>0.23600847442411893</speed>
  <fix>3d</fix>
</trkpt>
<trkpt lat="40.0728445" lon="-105.2306617">
  <ele>1595.6</ele>
  <time>2026-08-28T19:10:37Z</time>
  <course>154.39</course>
  <speed>0.35</speed>
  <fix>3d</fix>
</trkpt>
<trkpt lat="40.0728441" lon="-105.2306609">
  <ele>1595.7</ele>
  <time>2026-08-28T19:10:37Z</time>
  <course>8.56</course>
  <speed>0.23706539182259395</speed>
  <fix>3d</fix>
</trkpt>
<trkpt lat="40.0728441" lon="-105.2306614">
  <ele>1595.6</ele>
  <time>2026-08-28T19:10:37Z</time>
  <course>111.73</course>
  <speed>0.19</speed>
  <fix>3d</fix>
</trkpt>
<trkpt lat="40.0728446" lon="-105.2306604">
  <ele>1595.7</ele>
  <time>2026-08-28T19:10:37Z</time>
  <course>8.53</course>
  <speed>0.4167733196834941</speed>
  <fix>3d</fix>
</trkpt>
<trkpt lat="40.0728442" lon="-105.230661">
  <ele>1595.59</ele>
  <time>2026-08-28T19:10:37Z</time>
  <course>45.16</course>
  <speed>0.26</speed>
  <fix>3d</fix>
</trkpt>
<trkpt lat="40.0728453" lon="-105.23066">
  <ele>1595.69</ele>
  <time>2026-08-28T19:10:37Z</time>
  <course>8.5</course>
  <speed>0.6008327554319921</speed>
  <fix>3d</fix>
</trkpt>
<trkpt lat="40.0728447" lon="-105.2306605">
  <ele>1595.58</ele>
  <time>2026-08-28T19:10:37Z</time>
  <course>21.99</course>
  <speed>0.46</speed>
  <fix>3d</fix>
</trkpt>
<trkpt lat="40.0728465" lon="-105.2306597">
  <ele>1595.68</ele>
  <time>2026-08-28T19:10:37Z</time>
  <course>8.44</course>
  <speed>0.73348483283569</speed>
  <fix>3d</fix>
</trkpt>
<trkpt lat="40.0728456" lon="-105.2306601">
  <ele>1595.58</ele>
  <time>2026-08-28T19:10:37Z</time>
  <course>12.47</course>
  <speed>0.64</speed>
  <fix>3d</fix>
</trkpt>
<trkpt lat="40.0728478" lon="-105.2306595">
  <ele>1595.67</ele>
  <time>2026-08-28T19:10:37Z</time>
  <course>8.4</course>
  <speed>0.8139410298049853</speed>
  <fix>3d</fix>
</trkpt>
<trkpt lat="40.0728469" lon="-105.2306599">
  <ele>1595.57</ele>
  <time>2026-08-28T19:10:37Z</time>
  <course>6.63</course>
  <speed>0.77</speed>
  <fix>3d</fix>
</trkpt>
<trkpt lat="40.0728493" lon="-105.2306595">
  <ele>1595.67</ele>
  <time>2026-08-28T19:10:37Z</time>
  <course>8.39</course>
  <speed>0.8100617260431454</speed>
  <fix>3d</fix>
</trkpt>
<trkpt lat="40.0728483" lon="-105.2306598">
  <ele>1595.57</ele>
  <time>2026-08-28T19:10:37Z</time>
  <course>1.97</course>
  <speed>0.83</speed>
  <fix>3d</fix>
</trkpt>
<trkpt lat="40.0728507" lon="-105.2306596">
  <ele>1595.67</ele>
  <time>2026-08-28T19:10:37Z</time>
  <course>8.46</course>
  <speed>0.7317103251970687</speed>
  <fix>3d</fix>
</trkpt>
<trkpt lat="40.0728498" lon="-105.2306598">
  <ele>1595.57</ele>
  <time>2026-08-28T19:10:37Z</time>
  <course>357.42</course>
  <speed>0.82</speed>
  <fix>3d</fix>
</trkpt>
<trkpt lat="40.0728519" lon="-105.2306598">
  <ele>1595.67</ele>
  <time>2026-08-28T19:10:37Z</time>
  <course>8.51</course>
  <speed>0.5903388857258176</speed>
  <fix>3d</fix>
</trkpt>
<trkpt lat="40.0728512" lon="-105.2306599">
  <ele>1595.57</ele>
  <time>2026-08-28T19:10:37Z</time>
  <course>352.07</course>
  <speed>0.73</speed>
  <fix>3d</fix>
</trkpt>
<trkpt lat="40.0728528" lon="-105.2306602">
  <ele>1595.68</ele>
  <time>2026-08-28T19:10:37Z</time>
  <course>8.55</course>
  <speed>0.40718546143004664</speed>
  <fix>3d</fix>
</trkpt>
<trkpt lat="40.0728524" lon="-105.2306601">
  <ele>1595.58</ele>
  <time>2026-08-28T19:10:37Z</time>
  <course>344.35</course>
  <speed>0.58</speed>
  <fix>3d</fix>
</trkpt>
<trkpt lat="40.0728533" lon="-105.2306607">
  <ele>1595.68</ele>
  <time>2026-08-28T19:10:37Z</time>
  <course>8.58</course>
  <speed>0.24186773244895649</speed>
  <fix>3d</fix>
</trkpt>
<trkpt lat="40.0728532" lon="-105.2306605">
  <ele>1595.58</ele>
  <time>2026-08-28T19:10:37Z</time>
  <course>329.76</course>
  <speed>0.39</speed>
  <fix>3d</fix>
</trkpt>
<trkpt lat="40.0728534" lon="-105.2306612">
  <ele>1595.68</ele>
  <time>2026-08-28T19:10:37Z</time>
  <course>8.58</course>
  <speed>0.25553864678361277</speed>
  <fix>3d</fix>
</trkpt>
<trkpt lat="40.0728536" lon="-105.230661">
  <ele>1595.59</ele>
  <time>2026-08-28T19:10:37Z</time>
  <course>292.48</course>
  <speed>0.24</speed>
  <fix>3d</fix>
</trkpt>
<trkpt lat="40.072853" lon="-105.2306618">
  <ele>1595.68</ele>
  <time>2026-08-28T19:10:37Z</time>
  <course>8.52</course>
  <speed>0.4304648650006177</speed>
  <fix>3d</fix>
</trkpt>
<trkpt lat="40.0728535" lon="-105.2306616">
  <ele>1595.59</ele>
  <time>2026-08-28T19:10:37Z</time>
  <course>234.6</course>
  <speed>0.28</speed>
  <fix>3d</fix>
</trkpt>
<trkpt lat="40.0728523" lon="-105.2306623">
  <ele>1595.67</ele>
  <time>2026-08-28T19:10:37Z</time>
  <course>8.5</course>
  <speed>0.6135144660071187</speed>
  <fix>3d</fix>
</trkpt>
<trkpt lat="40.0728531" lon="-105.2306621">
  <ele>1595.59</ele>
  <time>2026-08-28T19:10:37Z</time>
  <course>208.24</course>
  <speed>0.46</speed>
  <fix>3d</fix>
</trkpt>
<trkpt lat="40.0728512" lon="-105.2306627">
  <ele>1595.67</ele>
  <time>2026-08-28T19:10:37Z</time>
  <course>8.45</course>
  <speed>0.7550496672405067</speed>
  <fix>3d</fix>
</trkpt>
<trkpt lat="40.0728522" lon="-105.2306626">
  <ele>1595.59</ele>
  <time>2026-08-28T19:10:37Z</time>
  <course>196.98</course>
  <speed>0.63</speed>
  <fix>3d</fix>
</trkpt>
<trkpt lat="40.0728498" lon="-105.2306631">
  <ele>1595.67</ele>
  <time>2026-08-28T19:10:37Z</time>
  <course>8.41</course>
  <speed>0.8260750571225353</speed>
  <fix>3d</fix>
</trkpt>
<trkpt lat="40.072851" lon="-105.230663">
  <ele>1595.59</ele>
  <time>2026-08-28T19:10:37Z</time>
  <course>190.34</course>
  <speed>0.75</speed>
  <fix>3d</fix>
</trkpt>
<trkpt lat="40.0728484" lon="-105.2306632">
  <ele>1595.68</ele>
  <time>2026-08-28T19:10:37Z</time>
  <course>8.44</course>
  <speed>0.8205485969764374</speed>
  <fix>3d</fix>
</trkpt>
<trkpt lat="40.0728496" lon="-105.2306633">
  <ele>1595.59</ele>
  <time>2026-08-28T19:10:37Z</time>
  <course>185.36</course>
  <speed>0.81</speed>
  <fix>3d</fix>
</trkpt>
<trkpt lat="40.0728471" lon="-105.2306632">
  <ele>1595.68</ele>
  <time>2026-08-28T19:10:37Z</time>
  <course>8.47</course>
  <speed>0.740607858451421</speed>
  <fix>3d</fix>
</trkpt>
<trkpt lat="40.0728481" lon="-105.2306634">
  <ele>1595.59</ele>
  <time>2026-08-28T19:10:37Z</time>
  <course>180.77</course>
  <speed>0.79</speed>
  <fix>3d</fix>
</trkpt>
<trkpt lat="40.0728459" lon="-105.2306632">
  <ele>1595.68</ele>
  <time>2026-08-28T19:10:37Z</time>
  <course>8.54</course>
  <speed>0.5984145720150873</speed>
  <fix>3d</fix>
</trkpt>
<trkpt lat="40.0728468" lon="-105.2306634">
  <ele>1595.6</ele>
  <time>2026-08-28T19:10:37Z</time>
  <course>175.62</course>
  <speed>0.7</speed>
  <fix>3d</fix>
</trkpt>
<trkpt lat="40.072845" lon="-105.2306629">
  <ele>1595.69</ele>
  <time>2026-08-28T19:10:38Z</time>
  <course>8.57</course>
  <speed>0.4085339643163099</speed>
  <fix>3d</fix>
</trkpt>
<trkpt lat="40.0728457" lon="-105.2306632">
  <ele>1595.6</ele>
  <time>2026-08-28T19:10:38Z</time>
  <course>168.34</course>
  <speed>0.54</speed>
  <fix>3d</fix>
</trkpt>
<trkpt lat="40.0728446" lon="-105.2306625">
  <ele>1595.69</ele>
  <time>2026-08-28T19:10:38Z</time>
  <course>8.57</course>
  <speed>0.23600847442411893</speed>
  <fix>3d</fix>
</trkpt>
<trkpt lat="40.0728448" lon="-105.2306629">
  <ele>1595.6</ele>
  <time>2026-08-28T19:10:38Z</time>
  <course>154.07</course>
  <speed>0.35</speed>
  <fix>3d</fix>
</trkpt>
<trkpt lat="40.0728446" lon="-105.230662">
  <ele>1595.69</ele>
  <time>2026-08-28T19:10:38Z</time>
  <course>8.55</course>
  <speed>0.23706539182259395</speed>
  <fix>3d</fix>
</trkpt>
<trkpt lat="40.0728445" lon="-105.2306624">
  <ele>1595.61</ele>
  <time>2026-08-28T19:10:38Z</time>
  <course>110.91</course>
  <speed>0.19</speed>
  <fix>3d</fix>
</trkpt>
<trkpt lat="40.072845" lon="-105.2306616">
  <ele>1595.69</ele>
  <time>2026-08-28T19:10:38Z</time>
  <course>8.54</course>
  <speed>0.4167733196834941</speed>
  <fix>3d</fix>
</trkpt>
<trkpt lat="40.0728446" lon="-105.230662">
  <ele>1595.6</ele>
  <time>2026-08-28T19:10:38Z</time>
  <course>44.93</course>
  <speed>0.26</speed>
  <fix>3d</fix>
</trkpt>
<trkpt lat="40.0728457" lon="-105.2306611">
  <ele>1595.69</ele>
  <time>2026-08-28T19:10:38Z</time>
  <course>8.5</course>
  <speed>0.6008327554319921</speed>
  <fix>3d</fix>
</trkpt>
<trkpt lat="40.0728451" lon="-105.2306616">
  <ele>1595.6</ele>
  <time>2026-08-28T19:10:38Z</time>
  <course>22.0</course>
  <speed>0.46</speed>
  <fix>3d</fix>
</trkpt>
<trkpt lat="40.0728469" lon="-105.2306608">
  <ele>1595.69</ele>
  <time>2026-08-28T19:10:38Z</time>
  <course>8.42</course>
  <speed>0.73348483283569</speed>
  <fix>3d</fix>
</trkpt>
<trkpt lat="40.072846" lon="-105.2306612">
  <ele>1595.6</ele>
  <time>2026-08-28T19:10:38Z</time>
  <course>12.5</course>
  <speed>0.64</speed>
  <fix>3d</fix>
</trkpt>
<trkpt lat="40.0728482" lon="-105.2306606">
  <ele>1595.68</ele>
  <time>2026-08-28T19:10:38Z</time>
  <course>8.4</course>
  <speed>0.8139410298049853</speed>
  <fix>3d</fix>
</trkpt>
<trkpt lat="40.0728473" lon="-105.230661">
  <ele>1595.59</ele>
  <time>2026-08-28T19:10:38Z</time>
  <course>6.65</course>
  <speed>0.77</speed>
  <fix>3d</fix>
</trkpt>
<trkpt lat="40.0728497" lon="-105.2306606">
  <ele>1595.68</ele>
  <time>2026-08-28T19:10:38Z</time>
  <course>8.44</course>
  <speed>0.8100617260431454</speed>
  <fix>3d</fix>
</trkpt>
<trkpt lat="40.0728488" lon="-105.2306608">
  <ele>1595.59</ele>
  <time>2026-08-28T19:10:38Z</time>
  <course>2.0</course>
  <speed>0.83</speed>
  <fix>3d</fix>
</trkpt>
<trkpt lat="40.0728511" lon="-105.2306607">
  <ele>1595.69</ele>
  <time>2026-08-28T19:10:38Z</time>
  <course>8.5</course>
  <speed>0.7317103251970687</speed>
  <fix>3d</fix>
</trkpt>
<trkpt lat="40.0728503" lon="-105.2306608">
  <ele>1595.59</ele>
  <time>2026-08-28T19:10:38Z</time>
  <course>357.49</course>
  <speed>0.82</speed>
  <fix>3d</fix>
</trkpt>
<trkpt lat="40.0728523" lon="-105.2306608">
  <ele>1595.69</ele>
  <time>2026-08-28T19:10:38Z</time>
  <course>8.55</course>
  <speed>0.5903388857258176</speed>
  <fix>3d</fix>
</trkpt>
<trkpt lat="40.0728517" lon="-105.2306609">
  <ele>1595.6</ele>
  <time>2026-08-28T19:10:38Z</time>
  <course>352.21</course>
  <speed>0.73</speed>
  <fix>3d</fix>
</trkpt>
<trkpt lat="40.0728532" lon="-105.2306612">
  <ele>1595.7</ele>
  <time>2026-08-28T19:10:38Z</time>
  <course>8.61</course>
  <speed>0.40311288741492746</speed>
  <fix>3d</fix>
</trkpt>
<trkpt lat="40.0728529" lon="-105.2306611">
  <ele>1595.6</ele>
  <time>2026-08-28T19:10:38Z</time>
  <course>344.61</course>
  <speed>0.58</speed>
  <fix>3d</fix>
</trkpt>
<trkpt lat="40.0728537" lon="-105.2306617">
  <ele>1595.7</ele>
  <time>2026-08-28T19:10:38Z</time>
  <course>8.64</course>
  <speed>0.23323807579381203</speed>
  <fix>3d</fix>
</trkpt>
<trkpt lat="40.0728536" lon="-105.2306616">
  <ele>1595.6</ele>
  <time>2026-08-28T19:10:38Z</time>
  <course>330.23</course>
  <speed>0.39</speed>
  <fix>3d</fix>
</trkpt>
<trkpt lat="40.0728538" lon="-105.2306623">
  <ele>1595.69</ele>
  <time>2026-08-28T19:10:38Z</time>
  <course>8.63</course>
  <speed>0.25059928172283336</speed>
  <fix>3d</fix>
</trkpt>
<trkpt lat="40.0728541" lon="-105.2306621">
  <ele>1595.6</ele>
  <time>2026-08-28T19:10:38Z</time>
  <course>293.04</course>
  <speed>0.24</speed>
  <fix>3d</fix>
</trkpt>
<trkpt lat="40.0728534" lon="-105.2306628">
  <ele>1595.68</ele>
  <time>2026-08-28T19:10:38Z</time>
  <course>8.57</course>
  <speed>0.4304648650006177</speed>
  <fix>3d</fix>
</trkpt>
<trkpt lat="40.072854" lon="-105.2306626">
  <ele>1595.6</ele>
  <time>2026-08-28T19:10:38Z</time>
  <course>234.47</course>
  <speed>0.28</speed>
  <fix>3d</fix>
</trkpt>
<trkpt lat="40.0728527" lon="-105.2306634">
  <ele>1595.68</ele>
  <time>2026-08-28T19:10:38Z</time>
  <course>8.51</course>
  <speed>0.6103277807866851</speed>
  <fix>3d</fix>
</trkpt>
<trkpt lat="40.0728535" lon="-105.2306632">
  <ele>1595.6</ele>
  <time>2026-08-28T19:10:38Z</time>
  <course>207.95</course>
  <speed>0.45</speed>
  <fix>3d</fix>
</trkpt>
<trkpt lat="40.0728516" lon="-105.2306638">
  <ele>1595.67</ele>
  <time>2026-08-28T19:10:38Z</time>
  <course>8.5</course>
  <speed>0.7550496672405067</speed>
  <fix>3d</fix>
</trkpt>
<trkpt lat="40.0728526" lon="-105.2306636">
  <ele>1595.59</ele>
  <time>2026-08-28T19:10:38Z</time>
  <course>196.77</course>
  <speed>0.63</speed>
  <fix>3d</fix>
</trkpt>
<trkpt lat="40.0728502" lon="-105.2306641">
  <ele>1595.67</ele>
  <time>2026-08-28T19:10:38Z</time>
  <course>8.48</course>
  <speed>0.8249242389456137</speed>
  <fix>3d</fix>
</trkpt>
<trkpt lat="40.0728514" lon="-105.230664">
  <ele>1595.59</ele>
  <time>2026-08-28T19:10:38Z</time>
  <course>190.2</course>
  <speed>0.75</speed>
  <fix>3d</fix>
</trkpt>
<trkpt lat="40.0728488" lon="-105.2306642">
  <ele>1595.67</ele>
  <time>2026-08-28T19:10:38Z</time>
  <course>8.46</course>
  <speed>0.8205485969764374</speed>
  <fix>3d</fix>
</trkpt>
<trkpt lat="40.07285" lon="-105.2306643">
  <ele>1595.59</ele>
  <time>2026-08-28T19:10:38Z</time>
  <course>185.25</course>
  <speed>0.81</speed>
  <fix>3d</fix>
</trkpt>
<trkpt lat="40.0728474" lon="-105.2306642">
  <ele>1595.68</ele>
  <time>2026-08-28T19:10:38Z</time>
  <course>8.48</course>
  <speed>0.7505997601918082</speed>
  <fix>3d</fix>
</trkpt>
<trkpt lat="40.0728486" lon="-105.2306644">
  <ele>1595.6</ele>
  <time>2026-08-28T19:10:38Z</time>
  <course>180.7</course>
  <speed>0.79</speed>
  <fix>3d</fix>
</trkpt>
<trkpt lat="40.0728463" lon="-105.2306642">
  <ele>1595.68</ele>
  <time>2026-08-28T19:10:38Z</time>
  <course>8.51</course>
  <speed>0.5984145720150873</speed>
  <fix>3d</fix>
</trkpt>
<trkpt lat="40.0728472" lon="-105.2306644">
  <ele>1595.6</ele>
  <time>2026-08-28T19:10:38Z</time>
  <course>175.58</course>
  <speed>0.7</speed>
  <fix>3d</fix>
</trkpt>
<trkpt lat="40.0728454" lon="-105.2306639">
  <ele>1595.68</ele>
  <time>2026-08-28T19:10:38Z</time>
  <course>8.55</course>
  <speed>0.41231056256176607</speed>
  <fix>3d</fix>
</trkpt>
<trkpt lat="40.0728461" lon="-105.2306642">
  <ele>1595.61</ele>
  <time>2026-08-28T19:10:38Z</time>
  <course>168.31</course>
  <speed>0.54</speed>
  <fix>3d</fix>
</trkpt>
<trkpt lat="40.072845" lon="-105.2306635">
  <ele>1595.68</ele>
  <time>2026-08-28T19:10:38Z</time>
  <course>8.55</course>
  <speed>0.24413111231467405</speed>
  <fix>3d</fix>
</trkpt>
<trkpt lat="40.0728453" lon="-105.2306639">
  <ele>1595.61</ele>
  <time>2026-08-28T19:10:38Z</time>
  <course>154.05</course>
  <speed>0.35</speed>
  <fix>3d</fix>
</trkpt>
<trkpt lat="40.0728449" lon="-105.230663">
  <ele>1595.68</ele>
  <time>2026-08-28T19:10:38Z</time>
  <course>8.51</course>
  <speed>0.24596747752497689</speed>
  <fix>3d</fix>
</trkpt>
<trkpt lat="40.072845" lon="-105.2306634">
  <ele>1595.61</ele>
  <time>2026-08-28T19:10:38Z</time>
  <course>110.44</course>
  <speed>0.19</speed>
  <fix>3d</fix>
</trkpt>
<trkpt lat="40.0728453" lon="-105.2306626">
  <ele>1595.69</ele>
  <time>2026-08-28T19:10:38Z</time>
  <course>8.42</course>
  <speed>0.3280243893371345</speed>
  <fix>3d</fix>
</trkpt>
<trkpt lat="40.072845" lon="-105.230663">
  <ele>1595.61</ele>
  <time>2026-08-28T19:10:38Z</time>
  <course>49.55</course>
  <speed>0.24</speed>
  <fix>3d</fix>
</trkpt>
<trkpt lat="40.0728457" lon="-105.2306622">
  <ele>1595.69</ele>
  <time>2026-08-28T19:10:38Z</time>
  <course>8.47</course>
  <speed>0.34928498393145957</speed>
  <fix>3d</fix>
</trkpt>
<trkpt lat="40.0728454" lon="-105.2306627">
  <ele>1595.61</ele>
  <time>2026-08-28T19:10:38Z</time>
  <course>27.44</course>
  <speed>0.33</speed>
  <fix>3d</fix>
</trkpt>
<trkpt lat="40.0728463" lon="-105.230662">
  <ele>1595.69</ele>
  <time>2026-08-28T19:10:38Z</time>
  <course>8.54</course>
  <speed>0.35171010790137947</speed>
  <fix>3d</fix>
</trkpt>
<trkpt lat="40.072846" lon="-105.2306624">
  <ele>1595.61</ele>
  <time>2026-08-28T19:10:38Z</time>
  <course>15.63</course>
  <speed>0.36</speed>
  <fix>3d</fix>
</trkpt>
<trkpt lat="40.0728469" lon="-105.2306619">
  <ele>1595.69</ele>
  <time>2026-08-28T19:10:38Z</time>
  <course>8.58</course>
  <speed>0.33376638536557274</speed>
  <fix>3d</fix>
</trkpt>
<trkpt lat="40.0728466" lon="-105.2306622">
  <ele>1595.61</ele>
  <time>2026-08-28T19:10:38Z</time>
  <course>7.96</course>
  <speed>0.36</speed>
  <fix>3d</fix>
</trkpt>
<trkpt lat="40.0728475" lon="-105.2306619">
  <ele>1595.69</ele>
  <time>2026-08-28T19:10:38Z</time>
  <course>8.6</course>
  <speed>0.31064449134018135</speed>
  <fix>3d</fix>
</trkpt>
<trkpt lat="40.0728472" lon="-105.2306621">
  <ele>1595.61</ele>
  <time>2026-08-28T19:10:38Z</time>
  <course>2.62</course>
  <speed>0.35</speed>
  <fix>3d</fix>
</trkpt>
<trkpt lat="40.0728481" lon="-105.2306619">
  <ele>1595.69</ele>
  <time>2026-08-28T19:10:38Z</time>
  <course>8.6</course>
  <speed>0.29017236257093815</speed>
  <fix>3d</fix>
</trkpt>
<trkpt lat="40.0728479" lon="-105.230662">
  <ele>1595.61</ele>
  <time>2026-08-28T19:10:38Z</time>
  <course>359.12</course>
  <speed>0.33</speed>
  <fix>3d</fix>
</trkpt>
<trkpt lat="40.0728486" lon="-105.2306619">
  <ele>1595.69</ele>
  <time>2026-08-28T19:10:38Z</time>
  <course>8.6</course>
  <speed>0.27</speed>
  <fix>3d</fix>
</trkpt>
<trkpt lat="40.0728484" lon="-105.230662">
  <ele>1595.61</ele>
  <time>2026-08-28T19:10:38Z</time>
  <course>357.05</course>
  <speed>0.31</speed>
  <fix>3d</fix>
</trkpt>
<trkpt lat="40.0728491" lon="-105.2306619">
  <ele>1595.69</ele>
  <time>2026-08-28T19:10:38Z</time>
  <course>8.6</course>
  <speed>0.25</speed>
  <fix>3d</fix>
</trkpt>
<trkpt lat="40.072849" lon="-105.230662">
  <ele>1595.61</ele>
  <time>2026-08-28T19:10:38Z</time>
  <course>356.01</course>
  <speed>0.29</speed>
  <fix>3d</fix>
</trkpt>
<trkpt lat="40.0728496" lon="-105.2306619">
  <ele>1595.69</ele>
  <time>2026-08-28T19:10:38Z</time>
  <course>8.61</course>
  <speed>0.23</speed>
  <fix>3d</fix>
</trkpt>
<trkpt lat="40.0728495" lon="-105.2306621">
  <ele>1595.61</ele>
  <time>2026-08-28T19:10:38Z</time>
  <course>355.66</course>
  <speed>0.27</speed>
  <fix>3d</fix>
</trkpt>
<trkpt lat="40.0728501" lon="-105.2306619">
  <ele>1595.69</ele>
  <time>2026-08-28T19:10:38Z</time>
  <course>8.61</course>
  <speed>0.22</speed>
  <fix>3d</fix>
</trkpt>
<trkpt lat="40.07285" lon="-105.2306622">
  <ele>1595.61</ele>
  <time>2026-08-28T19:10:38Z</time>
  <course>355.64</course>
  <speed>0.25</speed>
  <fix>3d</fix>
</trkpt>
<trkpt lat="40.0728505" lon="-105.230662">
  <ele>1595.69</ele>
  <time>2026-08-28T19:10:38Z</time>
  <course>8.6</course>
  <speed>0.21</speed>
  <fix>3d</fix>
</trkpt>
<trkpt lat="40.0728505" lon="-105.2306622">
  <ele>1595.61</ele>
  <time>2026-08-28T19:10:38Z</time>
  <course>355.79</course>
  <speed>0.24</speed>
  <fix>3d</fix>
</trkpt>
<trkpt lat="40.0728509" lon="-105.230662">
  <ele>1595.69</ele>
  <time>2026-08-28T19:10:38Z</time>
  <course>8.58</course>
  <speed>0.2</speed>
  <fix>3d</fix>
</trkpt>
<trkpt lat="40.0728509" lon="-105.2306622">
  <ele>1595.61</ele>
  <time>2026-08-28T19:10:38Z</time>
  <course>356.01</course>
  <speed>0.23</speed>
  <fix>3d</fix>
</trkpt>
<trkpt lat="40.0728513" lon="-105.2306621">
  <ele>1595.68</ele>
  <time>2026-08-28T19:10:38Z</time>
  <course>8.58</course>
  <speed>0.19</speed>
  <fix>3d</fix>
</trkpt>
<trkpt lat="40.0728512" lon="-105.2306622">
  <ele>1595.61</ele>
  <time>2026-08-28T19:10:38Z</time>
  <course>356.13</course>
  <speed>0.22</speed>
  <fix>3d</fix>
</trkpt>
<trkpt lat="40.0728517" lon="-105.2306621">
  <ele>1595.68</ele>
  <time>2026-08-28T19:10:38Z</time>
  <course>8.58</course>
  <speed>0.18</speed>
  <fix>3d</fix>
</trkpt>
<trkpt lat="40.0728517" lon="-105.2306623">
  <ele>1595.61</ele>
  <time>2026-08-28T19:10:38Z</time>
  <course>356.17</course>
  <speed>0.21</speed>
  <fix>3d</fix>
</trkpt>
<trkpt lat="40.0728521" lon="-105.2306621">
  <ele>1595.68</ele>
  <time>2026-08-28T19:10:38Z</time>
  <course>8.58</course>
  <speed>0.17</speed>
  <fix>3d</fix>
</trkpt>
<trkpt lat="40.0728521" lon="-105.2306624">
  <ele>1595.61</ele>
  <time>2026-08-28T19:10:38Z</time>
  <course>356.17</course>
  <speed>0.2</speed>
  <fix>3d</fix>
</trkpt>
<trkpt lat="40.0728524" lon="-105.2306621">
  <ele>1595.68</ele>
  <time>2026-08-28T19:10:38Z</time>
  <course>8.58</course>
  <speed>0.16</speed>
  <fix>3d</fix>
</trkpt>
<trkpt lat="40.0728524" lon="-105.2306624">
  <ele>1595.61</ele>
  <time>2026-08-28T19:10:38Z</time>
  <course>356.23</course>
  <speed>0.19</speed>
  <fix>3d</fix>
</trkpt>
<trkpt lat="40.0728528" lon="-105.2306622">
  <ele>1595.67</ele>
  <time>2026-08-28T19:10:38Z</time>
  <course>8.55</course>
  <speed>0.16</speed>
  <fix>3d</fix>
</trkpt>
<trkpt lat="40.0728527" lon="-105.2306624">
  <ele>1595.61</ele>
  <time>2026-08-28T19:10:38Z</time>
  <course>356.41</course>
  <speed>0.18</speed>
  <fix>3d</fix>
</trkpt>
<trkpt lat="40.0728531" lon="-105.2306622">
  <ele>1595.67</ele>
  <time>2026-08-28T19:10:38Z</time>
  <course>8.56</course>
  <speed>0.17029386365926402</speed>
  <fix>3d</fix>
</trkpt>
<trkpt lat="40.0728531" lon="-105.2306624">
  <ele>1595.61</ele>
  <time>2026-08-28T19:10:38Z</time>
  <course>356.9</course>
  <speed>0.18</speed>
  <fix>3d</fix>
</trkpt>
<trkpt lat="40.0728535" lon="-105.2306622">
  <ele>1595.67</ele>
  <time>2026-08-28T19:10:38Z</time>
  <course>8.57</course>
  <speed>0.2109502310972899</speed>
  <fix>3d</fix>
</trkpt>
<trkpt lat="40.0728534" lon="-105.2306624">
  <ele>1595.61</ele>
  <time>2026-08-28T19:10:38Z</time>
  <course>359.18</course>
  <speed>0.2</speed>
  <fix>3d</fix>
</trkpt>
<trkpt lat="40.072854" lon="-105.2306622">
  <ele>1595.67</ele>
  <time>2026-08-28T19:10:38Z</time>
  <course>8.54</course>
  <speed>0.28442925306655786</speed>
  <fix>3d</fix>
</trkpt>
<trkpt lat="40.0728538" lon="-105.2306624">
  <ele>1595.61</ele>
  <time>2026-08-28T19:10:38Z</time>
  <course>3.21</course>
  <speed>0.25</speed>
  <fix>3d</fix>
</trkpt>
<trkpt lat="40.0728546" lon="-105.2306621">
  <ele>1595.68</ele>
  <time>2026-08-28T19:10:38Z</time>
  <course>8.53</course>
  <speed>0.388329756778952</speed>
  <fix>3d</fix>
</trkpt>
<trkpt lat="40.0728544" lon="-105.2306624">
  <ele>1595.62</ele>
  <time>2026-08-28T19:10:38Z</time>
  <course>6.54</course>
  <speed>0.33</speed>
  <fix>3d</fix>
</trkpt>
<trkpt lat="40.0728554" lon="-105.230662">
  <ele>1595.68</ele>
  <time>2026-08-28T19:10:38Z</time>
  <course>8.53</course>
  <speed>0.5000999900019995</speed>
  <fix>3d</fix>
</trkpt>
<trkpt lat="40.0728551" lon="-105.2306623">
  <ele>1595.62</ele>
  <time>2026-08-28T19:10:38Z</time>
  <course>8.21</course>
  <speed>0.43</speed>
  <fix>3d</fix>
</trkpt>
<trkpt lat="40.0728564" lon="-105.2306618">
  <ele>1595.67</ele>
  <time>2026-08-28T19:10:38Z</time>
  <course>8.53</course>
  <speed>0.61</speed>
  <fix>3d</fix>
</trkpt>
<trkpt lat="40.0728559" lon="-105.2306621">
  <ele>1595.62</ele>
  <time>2026-08-28T19:10:38Z</time>
  <course>8.56</course>
  <speed>0.54</speed>
  <fix>3d</fix>
</trkpt>
<trkpt lat="40.0728576" lon="-105.2306616">
  <ele>1595.67</ele>
  <time>2026-08-28T19:10:38Z</time>
  <course>8.52</course>
  <speed>0.6789698078707183</speed>
  <fix>3d</fix>
</trkpt>
<trkpt lat="40.072857" lon="-105.230662">
  <ele>1595.62</ele>
  <time>2026-08-28T19:10:38Z</time>
  <course>8.01</course>
  <speed>0.64</speed>
  <fix>3d</fix>
</trkpt>
<trkpt lat="40.0728589" lon="-105.2306614">
  <ele>1595.67</ele>
  <time>2026-08-28T19:10:38Z</time>
  <course>8.51</course>
  <speed>0.7156814934033155</speed>
  <fix>3d</fix>
</trkpt>
<trkpt lat="40.0728582" lon="-105.2306618">
  <ele>1595.62</ele>
  <time>2026-08-28T19:10:38Z</time>
  <course>6.85</course>
  <speed>0.71</speed>
  <fix>3d</fix>
</trkpt>
<trkpt lat="40.0728602" lon="-105.2306612">
  <ele>1595.68</ele>
  <time>2026-08-28T19:10:38Z</time>
  <course>8.52</course>
  <speed>0.6926037828369117</speed>
  <fix>3d</fix>
</trkpt>
<trkpt lat="40.0728595" lon="-105.2306616">
  <ele>1595.63</ele>
  <time>2026-08-28T19:10:38Z</time>
  <course>5.19</course>
  <speed>0.73</speed>
  <fix>3d</fix>
</trkpt>
<trkpt lat="40.0728614" lon="-105.2306612">
  <ele>1595.68</ele>
  <time>2026-08-28T19:10:38Z</time>
  <course>8.52</course>
  <speed>0.6103277807866851</speed>
  <fix>3d</fix>
</trkpt>
<trkpt lat="40.0728608" lon="-105.2306615">
  <ele>1595.63</ele>
  <time>2026-08-28T19:10:38Z</time>
  <course>2.89</course>
  <speed>0.69</speed>
  <fix>3d</fix>
</trkpt>
<trkpt lat="40.0728624" lon="-105.2306613">
  <ele>1595.69</ele>
  <time>2026-08-28T19:10:38Z</time>
  <course>8.55</course>
  <speed>0.470425339453563</speed>
  <fix>3d</fix>
</trkpt>
<trkpt lat="40.0728619" lon="-105.2306615">
  <ele>1595.64</ele>
  <time>2026-08-28T19:10:38Z</time>
  <course>359.57</course>
  <speed>0.6</speed>
  <fix>3d</fix>
</trkpt>
<trkpt lat="40.0728632" lon="-105.2306613">
  <ele>1595.7</ele>
  <time>2026-08-28T19:10:38Z</time>
  <course>8.58</course>
  <speed>0.29832867780352595</speed>
  <fix>3d</fix>
</trkpt>
<trkpt lat="40.0728629" lon="-105.2306615">
  <ele>1595.64</ele>
  <time>2026-08-28T19:10:38Z</time>
  <course>354.03</course>
  <speed>0.45</speed>
  <fix>3d</fix>
</trkpt>
<trkpt lat="40.0728635" lon="-105.2306616">
  <ele>1595.71</ele>
  <time>2026-08-28T19:10:38Z</time>
  <course>8.59</course>
  <speed>0.130384048104053</speed>
  <fix>3d</fix>
</trkpt>
<trkpt lat="40.0728636" lon="-105.2306615">
  <ele>1595.64</ele>
  <time>2026-08-28T19:10:38Z</time>
  <course>341.24</course>
  <speed>0.27</speed>
  <fix>3d</fix>
</trkpt>
<trkpt lat="40.0728635" lon="-105.2306619">
  <ele>1595.71</ele>
  <time>2026-08-28T19:10:38Z</time>
  <course>8.6</course>
  <speed>0.212602916254693</speed>
  <fix>3d</fix>
</trkpt>
<trkpt lat="40.0728638" lon="-105.2306618">
  <ele>1595.64</ele>
  <time>2026-08-28T19:10:38Z</time>
  <course>285.53</course>
  <speed>0.12</speed>
  <fix>3d</fix>
</trkpt>
<trkpt lat="40.0728632" lon="-105.2306623">
  <ele>1595.71</ele>
  <time>2026-08-28T19:10:38Z</time>
  <course>8.59</course>
  <speed>0.4215447781671598</speed>
  <fix>3d</fix>
</trkpt>
<trkpt lat="40.0728637" lon="-105.2306621">
  <ele>1595.64</ele>
  <time>2026-08-28T19:10:38Z</time>
  <course>215.1</course>
  <speed>0.24</speed>
  <fix>3d</fix>
</trkpt>
<trkpt lat="40.0728624" lon="-105.2306626">
  <ele>1595.7</ele>
  <time>2026-08-28T19:10:38Z</time>
  <course>8.57</course>
  <speed>0.608769250208977</speed>
  <fix>3d</fix>
</trkpt>
<trkpt lat="40.0728632" lon="-105.2306624">
  <ele>1595.64</ele>
  <time>2026-08-28T19:10:38Z</time>
  <course>199.15</course>
  <speed>0.45</speed>
  <fix>3d</fix>
</trkpt>
<trkpt lat="40.0728612" lon="-105.230663">
  <ele>1595.7</ele>
  <time>2026-08-28T19:10:38Z</time>
  <course>8.49</course>
  <speed>0.7513321502504735</speed>
  <fix>3d</fix>
</trkpt>
<trkpt lat="40.0728623" lon="-105.2306628">
  <ele>1595.63</ele>
  <time>2026-08-28T19:10:38Z</time>
  <course>192.57</course>
  <speed>0.63</speed>
  <fix>3d</fix>
</trkpt>
<trkpt lat="40.0728599" lon="-105.2306632">
  <ele>1595.69</ele>
  <time>2026-08-28T19:10:38Z</time>
  <course>8.46</course>
  <speed>0.8249242389456137</speed>
  <fix>3d</fix>
</trkpt>
<trkpt lat="40.072861" lon="-105.2306631">
  <ele>1595.62</ele>
  <time>2026-08-28T19:10:38Z</time>
  <course>188.41</course>
  <speed>0.76</speed>
  <fix>3d</fix>
</trkpt>
<trkpt lat="40.0728584" lon="-105.2306634">
  <ele>1595.69</ele>
  <time>2026-08-28T19:10:38Z</time>
  <course>8.45</course>
  <speed>0.8309632964216891</speed>
  <fix>3d</fix>
</trkpt>
<trkpt lat="40.0728596" lon="-105.2306633">
  <ele>1595.62</ele>
  <time>2026-08-28T19:10:38Z</time>
  <course>185.02</course>
  <speed>0.82</speed>
  <fix>3d</fix>
</trkpt>
<trkpt lat="40.072857" lon="-105.2306634">
  <ele>1595.69</ele>
  <time>2026-08-28T19:10:38Z</time>
  <course>8.48</course>
  <speed>0.7700649323271382</speed>
  <fix>3d</fix>
</trkpt>
<trkpt lat="40.0728581" lon="-105.2306634">
  <ele>1595.62</ele>
  <time>2026-08-28T19:10:38Z</time>
  <course>181.71</course>
  <speed>0.82</speed>
  <fix>3d</fix>
</trkpt>
<trkpt lat="40.0728558" lon="-105.2306633">
  <ele>1595.69</ele>
  <time>2026-08-28T19:10:38Z</time>
  <course>8.53</course>
  <speed>0.6328506932918696</speed>
  <fix>3d</fix>
</trkpt>
<trkpt lat="40.0728567" lon="-105.2306634">
  <ele>1595.62</ele>
  <time>2026-08-28T19:10:38Z</time>
  <course>177.89</course>
  <speed>0.73</speed>
  <fix>3d</fix>
</trkpt>
<trkpt lat="40.0728549" lon="-105.2306632">
  <ele>1595.69</ele>
  <time>2026-08-28T19:10:38Z</time>
  <course>8.56</course>
  <speed>0.4464302857109943</speed>
  <fix>3d</fix>
</trkpt>
<trkpt lat="40.0728555" lon="-105.2306633">
  <ele>1595.62</ele>
  <time>2026-08-28T19:10:38Z</time>
  <course>172.56</course>
  <speed>0.59</speed>
  <fix>3d</fix>
</trkpt>
<trkpt lat="40.0728543" lon="-105.2306628">
  <ele>1595.69</ele>
  <time>2026-08-28T19:10:38Z</time>
  <course>8.56</course>
  <speed>0.24839484696748443</speed>
  <fix>3d</fix>
</trkpt>
<trkpt lat="40.0728546" lon="-105.2306632">
  <ele>1595.62</ele>
  <time>2026-08-28T19:10:38Z</time>
  <course>162.73</course>
  <speed>0.39</speed>
  <fix>3d</fix>
</trkpt>
<trkpt lat="40.0728542" lon="-105.2306624">
  <ele>1595.69</ele>
  <time>2026-08-28T19:10:38Z</time>
  <course>8.54</course>
  <speed>0.18681541692269404</speed>
  <fix>3d</fix>
</trkpt>
<trkpt lat="40.0728541" lon="-105.2306629">
  <ele>1595.63</ele>
  <time>2026-08-28T19:10:38Z</time>
  <course>132.68</course>
  <speed>0.19</speed>
  <fix>3d</fix>
</trkpt>
<trkpt lat="40.0728544" lon="-105.230662">
  <ele>1595.69</ele>
  <time>2026-08-28T19:10:38Z</time>
  <course>8.5</course>
  <speed>0.35510561809129404</speed>
  <fix>3d</fix>
</trkpt>
<trkpt lat="40.0728541" lon="-105.2306624">
  <ele>1595.62</ele>
  <time>2026-08-28T19:10:38Z</time>
  <course>51.74</course>
  <speed>0.19</speed>
  <fix>3d</fix>
</trkpt>
<trkpt lat="40.0728551" lon="-105.2306617">
  <ele>1595.69</ele>
  <time>2026-08-28T19:10:38Z</time>
  <course>8.44</course>
  <speed>0.5470831746635972</speed>
  <fix>3d</fix>
</trkpt>
<trkpt lat="40.0728545" lon="-105.2306621">
  <ele>1595.62</ele>
  <time>2026-08-28T19:10:38Z</time>
  <course>21.97</course>
  <speed>0.39</speed>
  <fix>3d</fix>
</trkpt>
<trkpt lat="40.0728562" lon="-105.2306614">
  <ele>1595.68</ele>
  <time>2026-08-28T19:10:38Z</time>
  <course>8.4</course>
  <speed>0.7040596565632774</speed>
  <fix>3d</fix>
</trkpt>
<trkpt lat="40.0728553" lon="-105.2306618">
  <ele>1595.62</ele>
  <time>2026-08-28T19:10:38Z</time>
  <course>12.0</course>
  <speed>0.59</speed>
  <fix>3d</fix>
</trkpt>
<trkpt lat="40.0728575" lon="-105.2306612">
  <ele>1595.68</ele>
  <time>2026-08-28T19:10:38Z</time>
  <course>8.38</course>
  <speed>0.7951100552753688</speed>
  <fix>3d</fix>
</trkpt>
<trkpt lat="40.0728565" lon="-105.2306615">
  <ele>1595.62</ele>
  <time>2026-08-28T19:10:38Z</time>
  <course>6.37</course>
  <speed>0.74</speed>
  <fix>3d</fix>
</trkpt>
<trkpt lat="40.0728589" lon="-105.2306611">
  <ele>1595.68</ele>
  <time>2026-08-28T19:10:38Z</time>
  <course>8.38</course>
  <speed>0.8202438661763951</speed>
  <fix>3d</fix>
</trkpt>
<trkpt lat="40.0728579" lon="-105.2306614">
  <ele>1595.61</ele>
  <time>2026-08-28T19:10:38Z</time>
  <course>2.04</course>
  <speed>0.82</speed>
  <fix>3d</fix>
</trkpt>
<trkpt lat="40.0728604" lon="-105.2306612">
  <ele>1595.69</ele>
  <time>2026-08-28T19:10:38Z</time>
  <course>8.42</course>
  <speed>0.7605918747922567</speed>
  <fix>3d</fix>
</trkpt>
<trkpt lat="40.0728594" lon="-105.2306613">
  <ele>1595.61</ele>
  <time>2026-08-28T19:10:38Z</time>
  <course>357.89</course>
  <speed>0.82</speed>
  <fix>3d</fix>
</trkpt>
<trkpt lat="40.0728616" lon="-105.2306614">
  <ele>1595.69</ele>
  <time>2026-08-28T19:10:38Z</time>
  <course>8.53</course>
  <speed>0.6264982043070834</speed>
  <fix>3d</fix>
</trkpt>
<trkpt lat="40.0728608" lon="-105.2306615">
  <ele>1595.62</ele>
  <time>2026-08-28T19:10:38Z</time>
  <course>353.13</course>
  <speed>0.75</speed>
  <fix>3d</fix>
</trkpt>
<trkpt lat="40.0728626" lon="-105.2306617">
  <ele>1595.7</ele>
  <time>2026-08-28T19:10:38Z</time>
  <course>8.6</course>
  <speed>0.455411901469428</speed>
  <fix>3d</fix>
</trkpt>
<trkpt lat="40.0728621" lon="-105.2306617">
  <ele>1595.62</ele>
  <time>2026-08-28T19:10:38Z</time>
  <course>346.53</course>
  <speed>0.62</speed>
  <fix>3d</fix>
</trkpt>
<trkpt lat="40.0728632" lon="-105.2306622">
  <ele>1595.7</ele>
  <time>2026-08-28T19:10:38Z</time>
  <course>8.65</course>
  <speed>0.26870057685088805</speed>
  <fix>3d</fix>
</trkpt>
<trkpt lat="40.072863" lon="-105.2306622">
  <ele>1595.62</ele>
  <time>2026-08-28T19:10:38Z</time>
  <course>334.84</course>
  <speed>0.44</speed>
  <fix>3d</fix>
</trkpt>
<trkpt lat="40.0728634" lon="-105.2306627">
  <ele>1595.69</ele>
  <time>2026-08-28T19:10:38Z</time>
  <course>8.63</course>
  <speed>0.21840329667841554</speed>
  <fix>3d</fix>
</trkpt>
<trkpt lat="40.0728635" lon="-105.2306626">
  <ele>1595.62</ele>
  <time>2026-08-28T19:10:38Z</time>
  <course>306.18</course>
  <speed>0.26</speed>
  <fix>3d</fix>
</trkpt>
<trkpt lat="40.0728632" lon="-105.2306633">
  <ele>1595.68</ele>
  <time>2026-08-28T19:10:38Z</time>
  <course>8.59</course>
  <speed>0.38013155617496425</speed>
  <fix>3d</fix>
</trkpt>
<trkpt lat="40.0728636" lon="-105.2306632">
  <ele>1595.62</ele>
  <time>2026-08-28T19:10:38Z</time>
  <course>246.51</course>
  <speed>0.24</speed>
  <fix>3d</fix>
</trkpt>
<trkpt lat="40.0728625" lon="-105.2306638">
  <ele>1595.68</ele>
  <time>2026-08-28T19:10:38Z</time>
  <course>8.51</course>
  <speed>0.5664803615307419</speed>
  <fix>3d</fix>
</trkpt>
<trkpt lat="40.0728632" lon="-105.2306637">
  <ele>1595.62</ele>
  <time>2026-08-28T19:10:38Z</time>
  <course>212.32</course>
  <speed>0.41</speed>
  <fix>3d</fix>
</trkpt>
<trkpt lat="40.0728615" lon="-105.2306643">
  <ele>1595.68</ele>
  <time>2026-08-28T19:10:38Z</time>
  <course>8.47</course>
  <speed>0.7180529228406496</speed>
  <fix>3d</fix>
</trkpt>
<trkpt lat="40.0728625" lon="-105.2306641">
  <ele>1595.61</ele>
  <time>2026-08-28T19:10:38Z</time>
  <course>198.92</course>
  <speed>0.59</speed>
  <fix>3d</fix>
</trkpt>
<trkpt lat="40.0728602" lon="-105.2306646">
  <ele>1595.68</ele>
  <time>2026-08-28T19:10:38Z</time>
  <course>8.44</course>
  <speed>0.8174350127074322</speed>
  <fix>3d</fix>
</trkpt>
<trkpt lat="40.0728613" lon="-105.2306646">
  <ele>1595.61</ele>
  <time>2026-08-28T19:10:38Z</time>
  <course>191.68</course>
  <speed>0.73</speed>
  <fix>3d</fix>
</trkpt>
<trkpt lat="40.0728588" lon="-105.2306648">
  <ele>1595.68</ele>
  <time>2026-08-28T19:10:38Z</time>
  <course>8.45</course>
  <speed>0.8309632964216891</speed>
  <fix>3d</fix>
</trkpt>
<trkpt lat="40.0728599" lon="-105.2306648">
  <ele>1595.61</ele>
  <time>2026-08-28T19:10:38Z</time>
  <course>186.56</course>
  <speed>0.81</speed>
  <fix>3d</fix>
</trkpt>
<trkpt lat="40.0728574" lon="-105.2306649">
  <ele>1595.69</ele>
  <time>2026-08-28T19:10:38Z</time>
  <course>8.47</course>
  <speed>0.7800640999302557</speed>
  <fix>3d</fix>
</trkpt>
<trkpt lat="40.0728584" lon="-105.230665">
  <ele>1595.61</ele>
  <time>2026-08-28T19:10:38Z</time>
  <course>182.08</course>
  <speed>0.81</speed>
  <fix>3d</fix>
</trkpt>
<trkpt lat="40.0728561" lon="-105.2306648">
  <ele>1595.69</ele>
  <time>2026-08-28T19:10:38Z</time>
  <course>8.54</course>
  <speed>0.6449806198638839</speed>
  <fix>3d</fix>
</trkpt>
<trkpt lat="40.0728571" lon="-105.230665">
  <ele>1595.62</ele>
  <time>2026-08-28T19:10:38Z</time>
  <course>177.35</course>
  <speed>0.74</speed>
  <fix>3d</fix>
</trkpt>
<trkpt lat="40.0728552" lon="-105.2306646">
  <ele>1595.69</ele>
  <time>2026-08-28T19:10:38Z</time>
  <course>8.57</course>
  <speed>0.4712748667179272</speed>
  <fix>3d</fix>
</trkpt>
<trkpt lat="40.0728558" lon="-105.2306649">
  <ele>1595.62</ele>
  <time>2026-08-28T19:10:38Z</time>
  <course>171.15</course>
  <speed>0.6</speed>
  <fix>3d</fix>
</trkpt>
<trkpt lat="40.0728546" lon="-105.2306643">
  <ele>1595.69</ele>
  <time>2026-08-28T19:10:38Z</time>
  <course>8.56</course>
  <speed>0.2765863337187866</speed>
  <fix>3d</fix>
</trkpt>
<trkpt lat="40.0728549" lon="-105.2306646">
  <ele>1595.62</ele>
  <time>2026-08-28T19:10:38Z</time>
  <course>160.27</course>
  <speed>0.41</speed>
  <fix>3d</fix>
</trkpt>
<trkpt lat="40.0728544" lon="-105.2306638">
  <ele>1595.69</ele>
  <time>2026-08-28T19:10:38Z</time>
  <course>8.55</course>
  <speed>0.21377558326431947</speed>
  <fix>3d</fix>
</trkpt>
<trkpt lat="40.0728545" lon="-105.2306643">
  <ele>1595.62</ele>
  <time>2026-08-28T19:10:38Z</time>
  <course>130.55</course>
  <speed>0.22</speed>
  <fix>3d</fix>
</trkpt>
<trkpt lat="40.0728546" lon="-105.2306634">
  <ele>1595.69</ele>
  <time>2026-08-28T19:10:38Z</time>
  <course>8.54</course>
  <speed>0.35805027579936316</speed>
  <fix>3d</fix>
</trkpt>
<trkpt lat="40.0728544" lon="-105.2306639">
  <ele>1595.62</ele>
  <time>2026-08-28T19:10:38Z</time>
  <course>58.37</course>
  <speed>0.21</speed>
  <fix>3d</fix>
</trkpt>
<trkpt lat="40.0728553" lon="-105.2306629">
  <ele>1595.68</ele>
  <time>2026-08-28T19:10:38Z</time>
  <course>8.45</course>
  <speed>0.5442425929675111</speed>
  <fix>3d</fix>
</trkpt>
<trkpt lat="40.0728548" lon="-105.2306634">
  <ele>1595.62</ele>
  <time>2026-08-28T19:10:38Z</time>
  <course>25.71</course>
  <speed>0.4</speed>
  <fix>3d</fix>
</trkpt>
<trkpt lat="40.0728564" lon="-105.2306626">
  <ele>1595.68</ele>
  <time>2026-08-28T19:10:38Z</time>
  <course>8.4</course>
  <speed>0.6963476143421474</speed>
  <fix>3d</fix>
</trkpt>
<trkpt lat="40.0728556" lon="-105.230663">
  <ele>1595.61</ele>
  <time>2026-08-28T19:10:38Z</time>
  <course>14.15</course>
  <speed>0.59</speed>
  <fix>3d</fix>
</trkpt>
<trkpt lat="40.0728577" lon="-105.2306624">
  <ele>1595.68</ele>
  <time>2026-08-28T19:10:38Z</time>
  <course>8.38</course>
  <speed>0.7963039620647382</speed>
  <fix>3d</fix>
</trkpt>
<trkpt lat="40.0728568" lon="-105.2306628">
  <ele>1595.61</ele>
  <time>2026-08-28T19:10:38Z</time>
  <course>7.69</course>
  <speed>0.74</speed>
  <fix>3d</fix>
</trkpt>
<trkpt lat="40.0728592" lon="-105.2306623">
  <ele>1595.68</ele>
  <time>2026-08-28T19:10:38Z</time>
  <course>8.39</course>
  <speed>0.8105553651663777</speed>
  <fix>3d</fix>
</trkpt>
<trkpt lat="40.0728582" lon="-105.2306626">
  <ele>1595.61</ele>
  <time>2026-08-28T19:10:38Z</time>
  <course>2.87</course>
  <speed>0.82</speed>
  <fix>3d</fix>
</trkpt>
<trkpt lat="40.0728606" lon="-105.2306624">
  <ele>1595.69</ele>
  <time>2026-08-28T19:10:38Z</time>
  <course>8.43</course>
  <speed>0.7605918747922567</speed>
  <fix>3d</fix>
</trkpt>
<trkpt lat="40.0728597" lon="-105.2306626">
  <ele>1595.61</ele>
  <time>2026-08-28T19:10:38Z</time>
  <course>358.42</course>
  <speed>0.83</speed>
  <fix>3d</fix>
</trkpt>
<trkpt lat="40.0728618" lon="-105.2306625">
  <ele>1595.7</ele>
  <time>2026-08-28T19:10:38Z</time>
  <course>8.52</course>
  <speed>0.6378871373526824</speed>
  <fix>3d</fix>
</trkpt>
<trkpt lat="40.0728612" lon="-105.2306627">
  <ele>1595.61</ele>
  <time>2026-08-28T19:10:38Z</time>
  <course>353.45</course>
  <speed>0.76</speed>
  <fix>3d</fix>
</trkpt>
<trkpt lat="40.0728628" lon="-105.2306629">
  <ele>1595.7</ele>
  <time>2026-08-28T19:10:38Z</time>
  <course>8.61</course>
  <speed>0.455411901469428</speed>
  <fix>3d</fix>
</trkpt>
<trkpt lat="40.0728624" lon="-105.2306629">
  <ele>1595.62</ele>
  <time>2026-08-28T19:10:38Z</time>
  <course>346.71</course>
  <speed>0.62</speed>
  <fix>3d</fix>
</trkpt>
<trkpt lat="40.0728635" lon="-105.2306634">
  <ele>1595.7</ele>
  <time>2026-08-28T19:10:38Z</time>
  <course>8.67</course>
  <speed>0.282842712474619</speed>
  <fix>3d</fix>
</trkpt>
<trkpt lat="40.0728633" lon="-105.2306633">
  <ele>1595.62</ele>
  <time>2026-08-28T19:10:38Z</time>
  <course>335.05</course>
  <speed>0.45</speed>
  <fix>3d</fix>
</trkpt>
<trkpt lat="40.0728637" lon="-105.2306639">
  <ele>1595.7</ele>
  <time>2026-08-28T19:10:38Z</time>
  <course>8.66</course>
  <speed>0.22561028345356957</speed>
  <fix>3d</fix>
</trkpt>
<trkpt lat="40.0728638" lon="-105.2306638">
  <ele>1595.62</ele>
  <time>2026-08-28T19:10:38Z</time>
  <course>307.25</course>
  <speed>0.27</speed>
  <fix>3d</fix>
</trkpt>
<trkpt lat="40.0728635" lon="-105.2306645">
  <ele>1595.69</ele>
  <time>2026-08-28T19:10:38Z</time>
  <course>8.61</course>
  <speed>0.3720215047547655</speed>
  <fix>3d</fix>
</trkpt>
<trkpt lat="40.0728639" lon="-105.2306643">
  <ele>1595.62</ele>
  <time>2026-08-28T19:10:38Z</time>
  <course>248.57</course>
  <speed>0.24</speed>
  <fix>3d</fix>
</trkpt>
<trkpt lat="40.0728628" lon="-105.230665">
  <ele>1595.68</ele>
  <time>2026-08-28T19:10:38Z</time>
  <course>8.52</course>
  <speed>0.5664803615307419</speed>
  <fix>3d</fix>
</trkpt>
<trkpt lat="40.0728636" lon="-105.2306648">
  <ele>1595.61</ele>
  <time>2026-08-28T19:10:38Z</time>
  <course>213.16</course>
  <speed>0.4</speed>
  <fix>3d</fix>
</trkpt>
<trkpt lat="40.0728618" lon="-105.2306655">
  <ele>1595.67</ele>
  <time>2026-08-28T19:10:38Z</time>
  <course>8.47</course>
  <speed>0.7203471385380802</speed>
  <fix>3d</fix>
</trkpt>
<trkpt lat="40.0728627" lon="-105.2306653">
  <ele>1595.61</ele>
  <time>2026-08-28T19:10:38Z</time>
  <course>199.28</course>
  <speed>0.58</speed>
  <fix>3d</fix>
</trkpt>
<trkpt lat="40.0728605" lon="-105.2306658">
  <ele>1595.67</ele>
  <time>2026-08-28T19:10:38Z</time>
  <course>8.44</course>
  <speed>0.8174350127074322</speed>
  <fix>3d</fix>
</trkpt>
<trkpt lat="40.0728616" lon="-105.2306658">
  <ele>1595.61</ele>
  <time>2026-08-28T19:10:38Z</time>
  <course>191.83</course>
  <speed>0.72</speed>
  <fix>3d</fix>
</trkpt>
<trkpt lat="40.0728591" lon="-105.230666">
  <ele>1595.67</ele>
  <time>2026-08-28T19:10:38Z</time>
  <course>8.43</course>
  <speed>0.8315046602394962</speed>
  <fix>3d</fix>
</trkpt>
<trkpt lat="40.0728603" lon="-105.2306661">
  <ele>1595.61</ele>
  <time>2026-08-28T19:10:38Z</time>
  <course>186.57</course>
  <speed>0.8</speed>
  <fix>3d</fix>
</trkpt>
<trkpt lat="40.0728577" lon="-105.2306661">
  <ele>1595.67</ele>
  <time>2026-08-28T19:10:38Z</time>
  <course>8.44</course>
  <speed>0.7700649323271382</speed>
  <fix>3d</fix>
</trkpt>
<trkpt lat="40.0728588" lon="-105.2306662">
  <ele>1595.61</ele>
  <time>2026-08-28T19:10:38Z</time>
  <course>182.0</course>
  <speed>0.81</speed>
  <fix>3d</fix>
</trkpt>
<trkpt lat="40.0728565" lon="-105.2306661">
  <ele>1595.68</ele>
  <time>2026-08-28T19:10:38Z</time>
  <course>8.5</course>
  <speed>0.6449806198638839</speed>
  <fix>3d</fix>
</trkpt>
<trkpt lat="40.0728574" lon="-105.2306662">
  <ele>1595.61</ele>
  <time>2026-08-28T19:10:38Z</time>
  <course>177.16</course>
  <speed>0.73</speed>
  <fix>3d</fix>
</trkpt>
<trkpt lat="40.0728555" lon="-105.2306658">
  <ele>1595.68</ele>
  <time>2026-08-28T19:10:38Z</time>
  <course>8.54</course>
  <speed>0.4712748667179272</speed>
  <fix>3d</fix>
</trkpt>
<trkpt lat="40.0728562" lon="-105.2306661">
  <ele>1595.61</ele>
  <time>2026-08-28T19:10:38Z</time>
  <course>170.8</course>
  <speed>0.6</speed>
  <fix>3d</fix>
</trkpt>
<trkpt lat="40.0728549" lon="-105.2306654">
  <ele>1595.69</ele>
  <time>2026-08-28T19:10:38Z</time>
  <course>8.55</course>
  <speed>0.2765863337187866</speed>
  <fix>3d</fix>
</trkpt>
<trkpt lat="40.0728553" lon="-105.2306658">
  <ele>1595.62</ele>
  <time>2026-08-28T19:10:38Z</time>
  <course>159.68</course>
  <speed>0.41</speed>
  <fix>3d</fix>
</trkpt>
<trkpt lat="40.0728547" lon="-105.230665">
  <ele>1595.69</ele>
  <time>2026-08-28T19:10:38Z</time>
  <course>8.55</course>
  <speed>0.21213203435596426</speed>
  <fix>3d</fix>
</trkpt>
<trkpt lat="40.0728548" lon="-105.2306654">
  <ele>1595.62</ele>
  <time>2026-08-28T19:10:38Z</time>
  <course>129.77</course>
  <speed>0.22</speed>
  <fix>3d</fix>
</trkpt>
<trkpt lat="40.072855" lon="-105.2306645">
  <ele>1595.69</ele>
  <time>2026-08-28T19:10:38Z</time>
  <course>8.53</course>
  <speed>0.35805027579936316</speed>
  <fix>3d</fix>
</trkpt>
<trkpt lat="40.0728547" lon="-105.230665">
  <ele>1595.62</ele>
  <time>2026-08-28T19:10:38Z</time>
  <course>58.96</course>
  <speed>0.21</speed>
  <fix>3d</fix>
</trkpt>
<trkpt lat="40.0728557" lon="-105.2306641">
  <ele>1595.68</ele>
  <time>2026-08-28T19:10:38Z</time>
  <course>8.48</course>
  <speed>0.5442425929675111</speed>
  <fix>3d</fix>
</trkpt>
<trkpt lat="40.0728551" lon="-105.2306646">
  <ele>1595.62</ele>
  <time>2026-08-28T19:10:38Z</time>
  <course>26.25</course>
  <speed>0.4</speed>
  <fix>3d</fix>
</trkpt>
<trkpt lat="40.0728567" lon="-105.2306638">
  <ele>1595.68</ele>
  <time>2026-08-28T19:10:38Z</time>
  <course>8.42</course>
  <speed>0.6963476143421474</speed>
  <fix>3d</fix>
</trkpt>
<trkpt lat="40.072856" lon="-105.2306642">
  <ele>1595.62</ele>
  <time>2026-08-28T19:10:38Z</time>
  <course>14.53</course>
  <speed>0.59</speed>
  <fix>3d</fix>
</trkpt>
<trkpt lat="40.072858" lon="-105.2306635">
  <ele>1595.68</ele>
  <time>2026-08-28T19:10:38Z</time>
  <course>8.39</course>
  <speed>0.7963039620647382</speed>
  <fix>3d</fix>
</trkpt>
<trkpt lat="40.0728572" lon="-105.2306639">
  <ele>1595.61</ele>
  <time>2026-08-28T19:10:38Z</time>
  <course>7.99</course>
  <speed>0.74</speed>
  <fix>3d</fix>
</trkpt>
<trkpt lat="40.0728595" lon="-105.2306634">
  <ele>1595.68</ele>
  <time>2026-08-28T19:10:38Z</time>
  <course>8.39</course>
  <speed>0.8105553651663777</speed>
  <fix>3d</fix>
</trkpt>
<trkpt lat="40.0728586" lon="-105.2306637">
  <ele>1595.61</ele>
  <time>2026-08-28T19:10:38Z</time>
  <course>3.12</course>
  <speed>0.82</speed>
  <fix>3d</fix>
</trkpt>
<trkpt lat="40.0728609" lon="-105.2306635">
  <ele>1595.69</ele>
  <time>2026-08-28T19:10:38Z</time>
  <course>8.43</course>
  <speed>0.7605918747922567</speed>
  <fix>3d</fix>
</trkpt>
<trkpt lat="40.0728601" lon="-105.2306636">
  <ele>1595.61</ele>
  <time>2026-08-28T19:10:38Z</time>
  <course>358.65</course>
  <speed>0.83</speed>
  <fix>3d</fix>
</trkpt>
<trkpt lat="40.0728622" lon="-105.2306636">
  <ele>1595.7</ele>
  <time>2026-08-28T19:10:38Z</time>
  <course>8.54</course>
  <speed>0.6363961030678928</speed>
  <fix>3d</fix>
</trkpt>
<trkpt lat="40.0728615" lon="-105.2306638">
  <ele>1595.62</ele>
  <time>2026-08-28T19:10:38Z</time>
  <course>353.67</course>
  <speed>0.76</speed>
  <fix>3d</fix>
</trkpt>
<trkpt lat="40.0728632" lon="-105.230664">
  <ele>1595.7</ele>
  <time>2026-08-28T19:10:38Z</time>
  <course>8.61</course>
  <speed>0.455411901469428</speed>
  <fix>3d</fix>
</trkpt>
<trkpt lat="40.0728627" lon="-105.230664">
  <ele>1595.62</ele>
  <time>2026-08-28T19:10:38Z</time>
  <course>346.96</course>
  <speed>0.63</speed>
  <fix>3d</fix>
</trkpt>
<trkpt lat="40.0728638" lon="-105.2306645">
  <ele>1595.7</ele>
  <time>2026-08-28T19:10:38Z</time>
  <course>8.69</course>
  <speed>0.27586228448267447</speed>
  <fix>3d</fix>
</trkpt>
<trkpt lat="40.0728637" lon="-105.2306644">
  <ele>1595.62</ele>
  <time>2026-08-28T19:10:38Z</time>
  <course>335.36</course>
  <speed>0.45</speed>
  <fix>3d</fix>
</trkpt>
<trkpt lat="40.072864" lon="-105.230665">
  <ele>1595.7</ele>
  <time>2026-08-28T19:10:38Z</time>
  <course>8.71</course>
  <speed>0.22561028345356957</speed>
  <fix>3d</fix>
</trkpt>
<trkpt lat="40.0728642" lon="-105.2306648">
  <ele>1595.62</ele>
  <time>2026-08-28T19:10:38Z</time>
  <course>307.64</course>
  <speed>0.27</speed>
  <fix>3d</fix>
</trkpt>
<trkpt lat="40.0728638" lon="-105.2306656">
  <ele>1595.69</ele>
  <time>2026-08-28T19:10:38Z</time>
  <course>8.62</course>
  <speed>0.3720215047547655</speed>
  <fix>3d</fix>
</trkpt>
<trkpt lat="40.0728643" lon="-105.2306654">
  <ele>1595.62</ele>
  <time>2026-08-28T19:10:38Z</time>
  <course>248.85</course>
  <speed>0.24</speed>
  <fix>3d</fix>
</trkpt>
<trkpt lat="40.0728632" lon="-105.2306661">
  <ele>1595.68</ele>
  <time>2026-08-28T19:10:38Z</time>
  <course>8.53</course>
  <speed>0.5664803615307419</speed>
  <fix>3d</fix>
</trkpt>
<trkpt lat="40.0728639" lon="-105.2306659">
  <ele>1595.61</ele>
  <time>2026-08-28T19:10:38Z</time>
  <course>213.22</course>
  <speed>0.4</speed>
  <fix>3d</fix>
</trkpt>
<trkpt lat="40.0728621" lon="-105.2306666">
  <ele>1595.68</ele>
  <time>2026-08-28T19:10:38Z</time>
  <course>8.49</course>
  <speed>0.7203471385380802</speed>
  <fix>3d</fix>
</trkpt>
<trkpt lat="40.0728632" lon="-105.2306664">
  <ele>1595.61</ele>
  <time>2026-08-28T19:10:38Z</time>
  <course>199.29</course>
  <speed>0.58</speed>
  <fix>3d</fix>
</trkpt>
<trkpt lat="40.0728608" lon="-105.2306669">
  <ele>1595.68</ele>
  <time>2026-08-28T19:10:38Z</time>
  <course>8.49</course>
  <speed>0.8174350127074322</speed>
  <fix>3d</fix>
</trkpt>
<trkpt lat="40.072862" lon="-105.2306668">
  <ele>1595.61</ele>
  <time>2026-08-28T19:10:38Z</time>
  <course>191.84</course>
  <speed>0.72</speed>
  <fix>3d</fix>
</trkpt>
<trkpt lat="40.0728594" lon="-105.2306671">
  <ele>1595.68</ele>
  <time>2026-08-28T19:10:38Z</time>
  <course>8.46</course>
  <speed>0.8315046602394962</speed>
  <fix>3d</fix>
</trkpt>
<trkpt lat="40.0728607" lon="-105.2306671">
  <ele>1595.61</ele>
  <time>2026-08-28T19:10:38Z</time>
  <course>186.59</course>
  <speed>0.8</speed>
  <fix>3d</fix>
</trkpt>
<trkpt lat="40.072858" lon="-105.2306671">
  <ele>1595.68</ele>
  <time>2026-08-28T19:10:39Z</time>
  <course>8.47</course>
  <speed>0.7700649323271382</speed>
  <fix>3d</fix>
</trkpt>
<trkpt lat="40.0728592" lon="-105.2306672">
  <ele>1595.61</ele>
  <time>2026-08-28T19:10:39Z</time>
  <course>182.0</course>
  <speed>0.8</speed>
  <fix>3d</fix>
</trkpt>
<trkpt lat="40.0728568" lon="-105.2306671">
  <ele>1595.69</ele>
  <time>2026-08-28T19:10:39Z</time>
  <course>8.49</course>
  <speed>0.6449806198638839</speed>
  <fix>3d</fix>
</trkpt>
<trkpt lat="40.0728578" lon="-105.2306672">
  <ele>1595.61</ele>
  <time>2026-08-28T19:10:39Z</time>
  <course>177.16</course>
  <speed>0.73</speed>
  <fix>3d</fix>
</trkpt>
<trkpt lat="40.0728559" lon="-105.2306669">
  <ele>1595.7</ele>
  <time>2026-08-28T19:10:39Z</time>
  <course>8.56</course>
  <speed>0.4712748667179272</speed>
  <fix>3d</fix>
</trkpt>
<trkpt lat="40.0728566" lon="-105.2306672">
  <ele>1595.61</ele>
  <time>2026-08-28T19:10:39Z</time>
  <course>170.8</course>
  <speed>0.59</speed>
  <fix>3d</fix>
</trkpt>
<trkpt lat="40.0728553" lon="-105.2306665">
  <ele>1595.7</ele>
  <time>2026-08-28T19:10:39Z</time>
  <course>8.56</course>
  <speed>0.2765863337187866</speed>
  <fix>3d</fix>
</trkpt>
<trkpt lat="40.0728557" lon="-105.2306669">
  <ele>1595.62</ele>
  <time>2026-08-28T19:10:39Z</time>
  <course>159.67</course>
  <speed>0.41</speed>
  <fix>3d</fix>
</trkpt>
<trkpt lat="40.0728551" lon="-105.230666">
  <ele>1595.69</ele>
  <time>2026-08-28T19:10:39Z</time>
  <course>8.58</course>
  <speed>0.21377558326431947</speed>
  <fix>3d</fix>
</trkpt>
<trkpt lat="40.0728553" lon="-105.2306665">
  <ele>1595.62</ele>
  <time>2026-08-28T19:10:39Z</time>
  <course>129.51</course>
  <speed>0.22</speed>
  <fix>3d</fix>
</trkpt>
<trkpt lat="40.0728554" lon="-105.2306656">
  <ele>1595.68</ele>
  <time>2026-08-28T19:10:39Z</time>
  <course>8.55</course>
  <speed>0.35805027579936316</speed>
  <fix>3d</fix>
</trkpt>
<trkpt lat="40.0728552" lon="-105.2306661">
  <ele>1595.61</ele>
  <time>2026-08-28T19:10:39Z</time>
  <course>58.44</course>
  <speed>0.21</speed>
  <fix>3d</fix>
</trkpt>
<trkpt lat="40.0728561" lon="-105.2306652">
  <ele>1595.68</ele>
  <time>2026-08-28T19:10:39Z</time>
  <course>8.51</course>
  <speed>0.5536244214266564</speed>
  <fix>3d</fix>
</trkpt>
<trkpt lat="40.0728555" lon="-105.2306657">
  <ele>1595.61</ele>
  <time>2026-08-28T19:10:39Z</time>
  <course>25.99</course>
  <speed>0.4</speed>
  <fix>3d</fix>
</trkpt>
<trkpt lat="40.0728572" lon="-105.2306648">
  <ele>1595.67</ele>
  <time>2026-08-28T19:10:39Z</time>
  <course>8.41</course>
  <speed>0.7061161377563892</speed>
  <fix>3d</fix>
</trkpt>
<trkpt lat="40.0728564" lon="-105.2306653">
  <ele>1595.6</ele>
  <time>2026-08-28T19:10:39Z</time>
  <course>14.39</course>
  <speed>0.59</speed>
  <fix>3d</fix>
</trkpt>
<trkpt lat="40.0728585" lon="-105.2306646">
  <ele>1595.68</ele>
  <time>2026-08-28T19:10:39Z</time>
  <course>8.38</course>
  <speed>0.7963039620647382</speed>
  <fix>3d</fix>
</trkpt>
<trkpt lat="40.0728576" lon="-105.2306649">
  <ele>1595.6</ele>
  <time>2026-08-28T19:10:39Z</time>
  <course>7.91</course>
  <speed>0.74</speed>
  <fix>3d</fix>
</trkpt>
<trkpt lat="40.0728599" lon="-105.2306645">
  <ele>1595.68</ele>
  <time>2026-08-28T19:10:39Z</time>
  <course>8.39</course>
  <speed>0.8205485969764374</speed>
  <fix>3d</fix>
</trkpt>
<trkpt lat="40.072859" lon="-105.2306648">
  <ele>1595.6</ele>
  <time>2026-08-28T19:10:39Z</time>
  <course>3.05</course>
  <speed>0.82</speed>
  <fix>3d</fix>
</trkpt>
<trkpt lat="40.0728614" lon="-105.2306646">
  <ele>1595.69</ele>
  <time>2026-08-28T19:10:39Z</time>
  <course>8.44</course>
  <speed>0.7605918747922567</speed>
  <fix>3d</fix>
</trkpt>
<trkpt lat="40.0728605" lon="-105.2306648">
  <ele>1595.6</ele>
  <time>2026-08-28T19:10:39Z</time>
  <course>358.57</course>
  <speed>0.83</speed>
  <fix>3d</fix>
</trkpt>
<trkpt lat="40.0728626" lon="-105.2306647">
  <ele>1595.7</ele>
  <time>2026-08-28T19:10:39Z</time>
  <course>8.54</course>
  <speed>0.6363961030678928</speed>
  <fix>3d</fix>
</trkpt>
<trkpt lat="40.072862" lon="-105.2306648">
  <ele>1595.6</ele>
  <time>2026-08-28T19:10:39Z</time>
  <course>353.59</course>
  <speed>0.76</speed>
  <fix>3d</fix>
</trkpt>
<trkpt lat="40.0728636" lon="-105.2306651">
  <ele>1595.69</ele>
  <time>2026-08-28T19:10:39Z</time>
  <course>8.63</course>
  <speed>0.46486557196677836</speed>
  <fix>3d</fix>
</trkpt>
<trkpt lat="40.0728632" lon="-105.2306651">
  <ele>1595.61</ele>
  <time>2026-08-28T19:10:39Z</time>
  <course>346.86</course>
  <speed>0.63</speed>
  <fix>3d</fix>
</trkpt>
<trkpt lat="40.0728643" lon="-105.2306655">
  <ele>1595.69</ele>
  <time>2026-08-28T19:10:39Z</time>
  <course>8.66</course>
  <speed>0.27586228448267447</speed>
  <fix>3d</fix>
</trkpt>
<trkpt lat="40.0728641" lon="-105.2306654">
  <ele>1595.61</ele>
  <time>2026-08-28T19:10:39Z</time>
  <course>335.21</course>
  <speed>0.45</speed>
  <fix>3d</fix>
</trkpt>
<trkpt lat="40.0728645" lon="-105.2306661">
  <ele>1595.69</ele>
  <time>2026-08-28T19:10:39Z</time>
  <course>8.62</course>
  <speed>0.22561028345356957</speed>
  <fix>3d</fix>
</trkpt>
<trkpt lat="40.0728646" lon="-105.2306659">
  <ele>1595.61</ele>
  <time>2026-08-28T19:10:39Z</time>
  <course>307.25</course>
  <speed>0.27</speed>
  <fix>3d</fix>
</trkpt>
<trkpt lat="40.0728642" lon="-105.2306666">
  <ele>1595.69</ele>
  <time>2026-08-28T19:10:39Z</time>
  <course>8.63</course>
  <speed>0.3720215047547655</speed>
  <fix>3d</fix>
</trkpt>
<trkpt lat="40.0728648" lon="-105.2306665">
  <ele>1595.61</ele>
  <time>2026-08-28T19:10:39Z</time>
  <course>248.35</course>
  <speed>0.24</speed>
  <fix>3d</fix>
</trkpt>
<trkpt lat="40.0728636" lon="-105.2306672">
  <ele>1595.69</ele>
  <time>2026-08-28T19:10:39Z</time>
  <course>8.56</course>
  <speed>0.5664803615307419</speed>
  <fix>3d</fix>
</trkpt>
<trkpt lat="40.0728644" lon="-105.230667">
  <ele>1595.6</ele>
  <time>2026-08-28T19:10:39Z</time>
  <course>213.17</course>
  <speed>0.4</speed>
  <fix>3d</fix>
</trkpt>
<trkpt lat="40.0728626" lon="-105.2306676">
  <ele>1595.69</ele>
  <time>2026-08-28T19:10:39Z</time>
  <course>8.5</course>
  <speed>0.7203471385380802</speed>
  <fix>3d</fix>
</trkpt>
<trkpt lat="40.0728636" lon="-105.2306675">
  <ele>1595.6</ele>
  <time>2026-08-28T19:10:39Z</time>
  <course>199.32</course>
  <speed>0.58</speed>
  <fix>3d</fix>
</trkpt>
<trkpt lat="40.0728613" lon="-105.230668">
  <ele>1595.68</ele>
  <time>2026-08-28T19:10:39Z</time>
  <course>8.48</course>
  <speed>0.8075270893288967</speed>
  <fix>3d</fix>
</trkpt>
<trkpt lat="40.0728624" lon="-105.2306679">
  <ele>1595.6</ele>
  <time>2026-08-28T19:10:39Z</time>
  <course>191.88</course>
  <speed>0.73</speed>
  <fix>3d</fix>
</trkpt>
<trkpt lat="40.0728599" lon="-105.2306682">
  <ele>1595.68</ele>
  <time>2026-08-28T19:10:39Z</time>
  <course>8.47</course>
  <speed>0.8315046602394962</speed>
  <fix>3d</fix>
</trkpt>
<trkpt lat="40.0728611" lon="-105.2306682">
  <ele>1595.6</ele>
  <time>2026-08-28T19:10:39Z</time>
  <course>186.64</course>
  <speed>0.8</speed>
  <fix>3d</fix>
</trkpt>
<trkpt lat="40.0728585" lon="-105.2306682">
  <ele>1595.69</ele>
  <time>2026-08-28T19:10:39Z</time>
  <course>8.47</course>
  <speed>0.7700649323271382</speed>
  <fix>3d</fix>
</trkpt>
<trkpt lat="40.0728596" lon="-105.2306684">
  <ele>1595.6</ele>
  <time>2026-08-28T19:10:39Z</time>
  <course>182.07</course>
  <speed>0.81</speed>
  <fix>3d</fix>
</trkpt>
<trkpt lat="40.0728572" lon="-105.2306682">
  <ele>1595.69</ele>
  <time>2026-08-28T19:10:39Z</time>
  <course>8.53</course>
  <speed>0.6449806198638839</speed>
  <fix>3d</fix>
</trkpt>
<trkpt lat="40.0728582" lon="-105.2306684">
  <ele>1595.6</ele>
  <time>2026-08-28T19:10:39Z</time>
  <course>177.24</course>
  <speed>0.73</speed>
  <fix>3d</fix>
</trkpt>
<trkpt lat="40.0728563" lon="-105.230668">
  <ele>1595.68</ele>
  <time>2026-08-28T19:10:39Z</time>
  <course>8.56</course>
  <speed>0.4712748667179272</speed>
  <fix>3d</fix>
</trkpt>
<trkpt lat="40.072857" lon="-105.2306682">
  <ele>1595.6</ele>
  <time>2026-08-28T19:10:39Z</time>
  <course>170.93</course>
  <speed>0.6</speed>
  <fix>3d</fix>
</trkpt>
<trkpt lat="40.0728557" lon="-105.2306676">
  <ele>1595.68</ele>
  <time>2026-08-28T19:10:39Z</time>
  <course>8.56</course>
  <speed>0.2765863337187866</speed>
  <fix>3d</fix>
</trkpt>
<trkpt lat="40.0728561" lon="-105.230668">
  <ele>1595.6</ele>
  <time>2026-08-28T19:10:39Z</time>
  <course>159.86</course>
  <speed>0.41</speed>
  <fix>3d</fix>
</trkpt>
<trkpt lat="40.0728555" lon="-105.2306672">
  <ele>1595.68</ele>
  <time>2026-08-28T19:10:39Z</time>
  <course>8.54</course>
  <speed>0.21213203435596426</speed>
  <fix>3d</fix>
</trkpt>
<trkpt lat="40.0728556" lon="-105.2306677">
  <ele>1595.6</ele>
  <time>2026-08-28T19:10:39Z</time>
  <course>129.95</course>
  <speed>0.22</speed>
  <fix>3d</fix>
</trkpt>
<trkpt lat="40.0728558" lon="-105.2306667">
  <ele>1595.68</ele>
  <time>2026-08-28T19:10:39Z</time>
  <course>8.43</course>
  <speed>0.31144823004794875</speed>
  <fix>3d</fix>
</trkpt>
<trkpt lat="40.0728555" lon="-105.2306672">
  <ele>1595.6</ele>
  <time>2026-08-28T19:10:39Z</time>
  <course>63.03</course>
  <speed>0.21</speed>
  <fix>3d</fix>
</trkpt>
<trkpt lat="40.0728562" lon="-105.2306663">
  <ele>1595.68</ele>
  <time>2026-08-28T19:10:39Z</time>
  <course>8.43</course>
  <speed>0.34438350715445126</speed>
  <fix>3d</fix>
</trkpt>
<trkpt lat="40.0728558" lon="-105.2306668">
  <ele>1595.6</ele>
  <time>2026-08-28T19:10:39Z</time>
  <course>32.27</course>
  <speed>0.3</speed>
  <fix>3d</fix>
</trkpt>
<trkpt lat="40.0728568" lon="-105.2306661">
  <ele>1595.68</ele>
  <time>2026-08-28T19:10:39Z</time>
  <course>8.52</course>
  <speed>0.34481879299133333</speed>
  <fix>3d</fix>
</trkpt>
<trkpt lat="40.0728563" lon="-105.2306664">
  <ele>1595.6</ele>
  <time>2026-08-28T19:10:39Z</time>
  <course>18.62</course>
  <speed>0.35</speed>
  <fix>3d</fix>
</trkpt>
<trkpt lat="40.0728574" lon="-105.230666">
  <ele>1595.68</ele>
  <time>2026-08-28T19:10:39Z</time>
  <course>8.57</course>
  <speed>0.33541019662496846</speed>
  <fix>3d</fix>
</trkpt>
<trkpt lat="40.072857" lon="-105.2306663">
  <ele>1595.6</ele>
  <time>2026-08-28T19:10:39Z</time>
  <course>9.88</course>
  <speed>0.36</speed>
  <fix>3d</fix>
</trkpt>
<trkpt lat="40.0728579" lon="-105.2306659">
  <ele>1595.68</ele>
  <time>2026-08-28T19:10:39Z</time>
  <course>8.59</course>
  <speed>0.31144823004794875</speed>
  <fix>3d</fix>
</trkpt>
<trkpt lat="40.0728577" lon="-105.2306662">
  <ele>1595.6</ele>
  <time>2026-08-28T19:10:39Z</time>
  <course>3.85</course>
  <speed>0.35</speed>
  <fix>3d</fix>
</trkpt>
<trkpt lat="40.0728585" lon="-105.2306659">
  <ele>1595.68</ele>
  <time>2026-08-28T19:10:39Z</time>
  <course>8.59</course>
  <speed>0.29017236257093815</speed>
  <fix>3d</fix>
</trkpt>
<trkpt lat="40.0728582" lon="-105.2306662">
  <ele>1595.6</ele>
  <time>2026-08-28T19:10:39Z</time>
  <course>359.87</course>
  <speed>0.33</speed>
  <fix>3d</fix>
</trkpt>
<trkpt lat="40.072859" lon="-105.230666">
  <ele>1595.67</ele>
  <time>2026-08-28T19:10:39Z</time>
  <course>8.59</course>
  <speed>0.27</speed>
  <fix>3d</fix>
</trkpt>
<trkpt lat="40.0728589" lon="-105.2306662">
  <ele>1595.6</ele>
  <time>2026-08-28T19:10:39Z</time>
  <course>357.41</course>
  <speed>0.3</speed>
  <fix>3d</fix>
</trkpt>
<trkpt lat="40.0728595" lon="-105.230666">
  <ele>1595.67</ele>
  <time>2026-08-28T19:10:39Z</time>
  <course>8.59</course>
  <speed>0.25</speed>
  <fix>3d</fix>
</trkpt>
<trkpt lat="40.0728594" lon="-105.2306662">
  <ele>1595.61</ele>
  <time>2026-08-28T19:10:39Z</time>
  <course>356.06</course>
  <speed>0.28</speed>
  <fix>3d</fix>
</trkpt>
<trkpt lat="40.07286" lon="-105.230666">
  <ele>1595.67</ele>
  <time>2026-08-28T19:10:39Z</time>
  <course>8.57</course>
  <speed>0.23</speed>
  <fix>3d</fix>
</trkpt>
<trkpt lat="40.0728599" lon="-105.2306662">
  <ele>1595.61</ele>
  <time>2026-08-28T19:10:39Z</time>
  <course>355.41</course>
  <speed>0.26</speed>
  <fix>3d</fix>
</trkpt>
<trkpt lat="40.0728605" lon="-105.230666">
  <ele>1595.67</ele>
  <time>2026-08-28T19:10:39Z</time>
  <course>8.56</course>
  <speed>0.21</speed>
  <fix>3d</fix>
</trkpt>
<trkpt lat="40.0728603" lon="-105.2306662">
  <ele>1595.61</ele>
  <time>2026-08-28T19:10:39Z</time>
  <course>355.17</course>
  <speed>0.25</speed>
  <fix>3d</fix>
</trkpt>
<trkpt lat="40.0728609" lon="-105.2306661">
  <ele>1595.67</ele>
  <time>2026-08-28T19:10:39Z</time>
  <course>8.57</course>
  <speed>0.2</speed>
  <fix>3d</fix>
</trkpt>
<trkpt lat="40.0728608" lon="-105.2306663">
  <ele>1595.61</ele>
  <time>2026-08-28T19:10:39Z</time>
  <course>355.15</course>
  <speed>0.23</speed>
  <fix>3d</fix>
</trkpt>
<trkpt lat="40.0728613" lon="-105.2306661">
  <ele>1595.67</ele>
  <time>2026-08-28T19:10:39Z</time>
  <course>8.55</course>
  <speed>0.19</speed>
  <fix>3d</fix>
</trkpt>
<trkpt lat="40.0728612" lon="-105.2306663">
  <ele>1595.62</ele>
  <time>2026-08-28T19:10:39Z</time>
  <course>355.27</course>
  <speed>0.22</speed>
  <fix>3d</fix>
</trkpt>
<trkpt lat="40.0728617" lon="-105.2306662">
  <ele>1595.67</ele>
  <time>2026-08-28T19:10:39Z</time>
  <course>8.55</course>
  <speed>0.18</speed>
  <fix>3d</fix>
</trkpt>
<trkpt lat="40.0728615" lon="-105.2306663">
  <ele>1595.62</ele>
  <time>2026-08-28T19:10:39Z</time>
  <course>355.49</course>
  <speed>0.21</speed>
  <fix>3d</fix>
</trkpt>
<trkpt lat="40.072862" lon="-105.2306662">
  <ele>1595.67</ele>
  <time>2026-08-28T19:10:39Z</time>
  <course>8.57</course>
  <speed>0.17</speed>
  <fix>3d</fix>
</trkpt>
<trkpt lat="40.072862" lon="-105.2306663">
  <ele>1595.62</ele>
  <time>2026-08-28T19:10:39Z</time>
  <course>355.57</course>
  <speed>0.2</speed>
  <fix>3d</fix>
</trkpt>
<trkpt lat="40.0728624" lon="-105.2306662">
  <ele>1595.68</ele>
  <time>2026-08-28T19:10:39Z</time>
  <course>8.56</course>
  <speed>0.17</speed>
  <fix>3d</fix>
</trkpt>
<trkpt lat="40.0728624" lon="-105.2306664">
  <ele>1595.63</ele>
  <time>2026-08-28T19:10:39Z</time>
  <course>355.5</course>
  <speed>0.19</speed>
  <fix>3d</fix>
</trkpt>
<trkpt lat="40.0728627" lon="-105.2306663">
  <ele>1595.68</ele>
  <time>2026-08-28T19:10:39Z</time>
  <course>8.57</course>
  <speed>0.16</speed>
  <fix>3d</fix>
</trkpt>
<trkpt lat="40.0728627" lon="-105.2306665">
  <ele>1595.63</ele>
  <time>2026-08-28T19:10:39Z</time>
  <course>355.54</course>
  <speed>0.18</speed>
  <fix>3d</fix>
</trkpt>
<trkpt lat="40.072863" lon="-105.2306663">
  <ele>1595.69</ele>
  <time>2026-08-28T19:10:39Z</time>
  <course>8.57</course>
  <speed>0.15</speed>
  <fix>3d</fix>
</trkpt>
<trkpt lat="40.072863" lon="-105.2306665">
  <ele>1595.63</ele>
  <time>2026-08-28T19:10:39Z</time>
  <course>355.66</course>
  <speed>0.18</speed>
  <fix>3d</fix>
</trkpt>
<trkpt lat="40.0728634" lon="-105.2306663">
  <ele>1595.69</ele>
  <time>2026-08-28T19:10:39Z</time>
  <course>8.59</course>
  <speed>0.16</speed>
  <fix>3d</fix>
</trkpt>
<trkpt lat="40.0728633" lon="-105.2306665">
  <ele>1595.64</ele>
  <time>2026-08-28T19:10:39Z</time>
  <course>355.83</course>
  <speed>0.17</speed>
  <fix>3d</fix>
</trkpt>
<trkpt lat="40.0728637" lon="-105.2306663">
  <ele>1595.69</ele>
  <time>2026-08-28T19:10:39Z</time>
  <course>8.6</course>
  <speed>0.19026297590440447</speed>
  <fix>3d</fix>
</trkpt>
<trkpt lat="40.0728637" lon="-105.2306665">
  <ele>1595.64</ele>
  <time>2026-08-28T19:10:39Z</time>
  <course>357.48</course>
  <speed>0.18</speed>
  <fix>3d</fix>
</trkpt>
<trkpt lat="40.0728641" lon="-105.2306663">
  <ele>1595.7</ele>
  <time>2026-08-28T19:10:39Z</time>
  <course>8.59</course>
  <speed>0.25317977802344327</speed>
  <fix>3d</fix>
</trkpt>
<trkpt lat="40.0728641" lon="-105.2306665">
  <ele>1595.64</ele>
  <time>2026-08-28T19:10:39Z</time>
  <course>1.49</course>
  <speed>0.22</speed>
  <fix>3d</fix>
</trkpt>
<trkpt lat="40.0728647" lon="-105.2306663">
  <ele>1595.7</ele>
  <time>2026-08-28T19:10:39Z</time>
  <course>8.58</course>
  <speed>0.356931365951495</speed>
  <fix>3d</fix>
</trkpt>
<trkpt lat="40.0728645" lon="-105.2306665">
  <ele>1595.64</ele>
  <time>2026-08-28T19:10:39Z</time>
  <course>5.48</course>
  <speed>0.3</speed>
  <fix>3d</fix>
</trkpt>
<trkpt lat="40.0728655" lon="-105.2306662">
  <ele>1595.7</ele>
  <time>2026-08-28T19:10:39Z</time>
  <course>8.56</course>
  <speed>0.4687216658103186</speed>
  <fix>3d</fix>
</trkpt>
<trkpt lat="40.0728651" lon="-105.2306665">
  <ele>1595.63</ele>
  <time>2026-08-28T19:10:39Z</time>
  <course>7.79</course>
  <speed>0.4</speed>
  <fix>3d</fix>
</trkpt>
<trkpt lat="40.0728664" lon="-105.230666">
  <ele>1595.7</ele>
  <time>2026-08-28T19:10:39Z</time>
  <course>8.54</course>
  <speed>0.570701322935211</speed>
  <fix>3d</fix>
</trkpt>
<trkpt lat="40.0728659" lon="-105.2306663">
  <ele>1595.63</ele>
  <time>2026-08-28T19:10:39Z</time>
  <course>8.56</course>
  <speed>0.51</speed>
  <fix>3d</fix>
</trkpt>
<trkpt lat="40.0728675" lon="-105.2306657">
  <ele>1595.69</ele>
  <time>2026-08-28T19:10:39Z</time>
  <course>8.52</course>
  <speed>0.6592419889539803</speed>
  <fix>3d</fix>
</trkpt>
<trkpt lat="40.0728669" lon="-105.2306662">
  <ele>1595.63</ele>
  <time>2026-08-28T19:10:39Z</time>
  <course>8.28</course>
  <speed>0.61</speed>
  <fix>3d</fix>
</trkpt>
<trkpt lat="40.0728688" lon="-105.2306655">
  <ele>1595.69</ele>
  <time>2026-08-28T19:10:39Z</time>
  <course>8.51</course>
  <speed>0.7071067811865476</speed>
  <fix>3d</fix>
</trkpt>
<trkpt lat="40.0728681" lon="-105.2306659">
  <ele>1595.63</ele>
  <time>2026-08-28T19:10:39Z</time>
  <course>7.3</course>
  <speed>0.69</speed>
  <fix>3d</fix>
</trkpt>
<trkpt lat="40.0728701" lon="-105.2306654">
  <ele>1595.69</ele>
  <time>2026-08-28T19:10:39Z</time>
  <course>8.51</course>
  <speed>0.7034912934784623</speed>
  <fix>3d</fix>
</trkpt>
<trkpt lat="40.0728694" lon="-105.2306658">
  <ele>1595.62</ele>
  <time>2026-08-28T19:10:39Z</time>
  <course>5.76</course>
  <speed>0.72</speed>
  <fix>3d</fix>
</trkpt>
<trkpt lat="40.0728713" lon="-105.2306653">
  <ele>1595.69</ele>
  <time>2026-08-28T19:10:39Z</time>
  <course>8.53</course>
  <speed>0.6307138812488592</speed>
  <fix>3d</fix>
</trkpt>
<trkpt lat="40.0728707" lon="-105.2306656">
  <ele>1595.62</ele>
  <time>2026-08-28T19:10:39Z</time>
  <course>3.63</course>
  <speed>0.71</speed>
  <fix>3d</fix>
</trkpt>
<trkpt lat="40.0728724" lon="-105.2306654">
  <ele>1595.69</ele>
  <time>2026-08-28T19:10:39Z</time>
  <course>8.57</course>
  <speed>0.51</speed>
  <fix>3d</fix>
</trkpt>
<trkpt lat="40.0728719" lon="-105.2306656">
  <ele>1595.62</ele>
  <time>2026-08-28T19:10:39Z</time>
  <course>0.67</course>
  <speed>0.63</speed>
  <fix>3d</fix>
</trkpt>
<trkpt lat="40.0728732" lon="-105.2306654">
  <ele>1595.69</ele>
  <time>2026-08-28T19:10:39Z</time>
  <course>8.61</course>
  <speed>0.34365680554879163</speed>
  <fix>3d</fix>
</trkpt>
<trkpt lat="40.0728729" lon="-105.2306656">
  <ele>1595.62</ele>
  <time>2026-08-28T19:10:39Z</time>
  <course>356.04</course>
  <speed>0.5</speed>
  <fix>3d</fix>
</trkpt>
<trkpt lat="40.0728737" lon="-105.2306656">
  <ele>1595.69</ele>
  <time>2026-08-28T19:10:39Z</time>
  <course>8.62</course>
  <speed>0.16401219466856726</speed>
  <fix>3d</fix>
</trkpt>
<trkpt lat="40.0728737" lon="-105.2306657">
  <ele>1595.62</ele>
  <time>2026-08-28T19:10:39Z</time>
  <course>346.58</course>
  <speed>0.32</speed>
  <fix>3d</fix>
</trkpt>
<trkpt lat="40.0728738" lon="-105.2306659">
  <ele>1595.68</ele>
  <time>2026-08-28T19:10:39Z</time>
  <course>8.59</course>
  <speed>0.15811388300841897</speed>
  <fix>3d</fix>
</trkpt>
<trkpt lat="40.0728741" lon="-105.2306658">
  <ele>1595.62</ele>
  <time>2026-08-28T19:10:39Z</time>
  <course>311.88</course>
  <speed>0.14</speed>
  <fix>3d</fix>
</trkpt>
<trkpt lat="40.0728736" lon="-105.2306663">
  <ele>1595.68</ele>
  <time>2026-08-28T19:10:39Z</time>
  <course>8.57</course>
  <speed>0.3624913792078372</speed>
  <fix>3d</fix>
</trkpt>
<trkpt lat="40.0728741" lon="-105.2306661">
  <ele>1595.62</ele>
  <time>2026-08-28T19:10:39Z</time>
  <course>225.19</course>
  <speed>0.19</speed>
  <fix>3d</fix>
</trkpt>
<trkpt lat="40.0728729" lon="-105.2306666">
  <ele>1595.68</ele>
  <time>2026-08-28T19:10:39Z</time>
  <course>8.49</course>
  <speed>0.5604462507680822</speed>
  <fix>3d</fix>
</trkpt>
<trkpt lat="40.0728737" lon="-105.2306665">
  <ele>1595.62</ele>
  <time>2026-08-28T19:10:39Z</time>
  <course>201.91</course>
  <speed>0.39</speed>
  <fix>3d</fix>
</trkpt>
<trkpt lat="40.0728718" lon="-105.230667">
  <ele>1595.68</ele>
  <time>2026-08-28T19:10:39Z</time>
  <course>8.46</course>
  <speed>0.71386273190299</speed>
  <fix>3d</fix>
</trkpt>
<trkpt lat="40.0728728" lon="-105.2306668">
  <ele>1595.62</ele>
  <time>2026-08-28T19:10:39Z</time>
  <course>193.98</course>
  <speed>0.58</speed>
  <fix>3d</fix>
</trkpt>
<trkpt lat="40.0728705" lon="-105.2306673">
  <ele>1595.69</ele>
  <time>2026-08-28T19:10:39Z</time>
  <course>8.46</course>
  <speed>0.8174350127074322</speed>
  <fix>3d</fix>
</trkpt>
<trkpt lat="40.0728716" lon="-105.2306671">
  <ele>1595.61</ele>
  <time>2026-08-28T19:10:39Z</time>
  <course>189.43</course>
  <speed>0.73</speed>
  <fix>3d</fix>
</trkpt>
<trkpt lat="40.0728691" lon="-105.2306675">
  <ele>1595.69</ele>
  <time>2026-08-28T19:10:39Z</time>
  <course>8.45</course>
  <speed>0.8421401308570919</speed>
  <fix>3d</fix>
</trkpt>
<trkpt lat="40.0728703" lon="-105.2306673">
  <ele>1595.61</ele>
  <time>2026-08-28T19:10:39Z</time>
  <course>185.98</course>
  <speed>0.81</speed>
  <fix>3d</fix>
</trkpt>
<trkpt lat="40.0728677" lon="-105.2306675">
  <ele>1595.69</ele>
  <time>2026-08-28T19:10:39Z</time>
  <course>8.46</course>
  <speed>0.79</speed>
  <fix>3d</fix>
</trkpt>
<trkpt lat="40.0728688" lon="-105.2306675">
  <ele>1595.62</ele>
  <time>2026-08-28T19:10:39Z</time>
  <course>182.75</course>
  <speed>0.82</speed>
  <fix>3d</fix>
</trkpt>
<trkpt lat="40.0728664" lon="-105.2306675">
  <ele>1595.7</ele>
  <time>2026-08-28T19:10:39Z</time>
  <course>8.52</course>
  <speed>0.671863081289633</speed>
  <fix>3d</fix>
</trkpt>
<trkpt lat="40.0728674" lon="-105.2306675">
  <ele>1595.62</ele>
  <time>2026-08-28T19:10:39Z</time>
  <course>179.18</course>
  <speed>0.76</speed>
  <fix>3d</fix>
</trkpt>
<trkpt lat="40.0728653" lon="-105.2306674">
  <ele>1595.7</ele>
  <time>2026-08-28T19:10:39Z</time>
  <course>8.56</course>
  <speed>0.5000999900019995</speed>
  <fix>3d</fix>
</trkpt>
<trkpt lat="40.0728661" lon="-105.2306675">
  <ele>1595.62</ele>
  <time>2026-08-28T19:10:39Z</time>
  <course>174.48</course>
  <speed>0.63</speed>
  <fix>3d</fix>
</trkpt>
<trkpt lat="40.0728647" lon="-105.2306671">
  <ele>1595.7</ele>
  <time>2026-08-28T19:10:39Z</time>
  <course>8.56</course>
  <speed>0.30886890422961</speed>
  <fix>3d</fix>
</trkpt>
<trkpt lat="40.0728651" lon="-105.2306673">
  <ele>1595.62</ele>
  <time>2026-08-28T19:10:39Z</time>
  <course>166.56</course>
  <speed>0.45</speed>
  <fix>3d</fix>
</trkpt>
<trkpt lat="40.0728644" lon="-105.2306667">
  <ele>1595.71</ele>
  <time>2026-08-28T19:10:39Z</time>
  <course>8.56</course>
  <speed>0.17029386365926402</speed>
  <fix>3d</fix>
</trkpt>
<trkpt lat="40.0728645" lon="-105.230667">
  <ele>1595.62</ele>
  <time>2026-08-28T19:10:39Z</time>
  <course>146.25</course>
  <speed>0.24</speed>
  <fix>3d</fix>
</trkpt>
<trkpt lat="40.0728645" lon="-105.2306663">
  <ele>1595.7</ele>
  <time>2026-08-28T19:10:39Z</time>
  <course>8.55</course>
  <speed>0.29832867780352595</speed>
  <fix>3d</fix>
</trkpt>
<trkpt lat="40.0728644" lon="-105.2306667">
  <ele>1595.61</ele>
  <time>2026-08-28T19:10:39Z</time>
  <course>72.22</course>
  <speed>0.16</speed>
  <fix>3d</fix>
</trkpt>
<trkpt lat="40.0728651" lon="-105.2306659">
  <ele>1595.69</ele>
  <time>2026-08-28T19:10:39Z</time>
  <course>8.52</course>
  <speed>0.4939635614091387</speed>
  <fix>3d</fix>
</trkpt>
<trkpt lat="40.0728646" lon="-105.2306663">
  <ele>1595.61</ele>
  <time>2026-08-28T19:10:39Z</time>
  <course>26.85</course>
  <speed>0.33</speed>
  <fix>3d</fix>
</trkpt>
<trkpt lat="40.0728661" lon="-105.2306656">
  <ele>1595.68</ele>
  <time>2026-08-28T19:10:39Z</time>
  <course>8.48</course>
  <speed>0.6670832032063168</speed>
  <fix>3d</fix>
</trkpt>
<trkpt lat="40.0728653" lon="-105.230666">
  <ele>1595.6</ele>
  <time>2026-08-28T19:10:39Z</time>
  <course>14.16</course>
  <speed>0.53</speed>
  <fix>3d</fix>
</trkpt>
<trkpt lat="40.0728674" lon="-105.2306654">
  <ele>1595.68</ele>
  <time>2026-08-28T19:10:39Z</time>
  <course>8.4</course>
  <speed>0.7764663547121665</speed>
  <fix>3d</fix>
</trkpt>
<trkpt lat="40.0728664" lon="-105.2306658">
  <ele>1595.59</ele>
  <time>2026-08-28T19:10:39Z</time>
  <course>7.77</course>
  <speed>0.7</speed>
  <fix>3d</fix>
</trkpt>
<trkpt lat="40.0728688" lon="-105.2306653">
  <ele>1595.69</ele>
  <time>2026-08-28T19:10:39Z</time>
  <course>8.38</course>
  <speed>0.8109870529176159</speed>
  <fix>3d</fix>
</trkpt>
<trkpt lat="40.0728678" lon="-105.2306656">
  <ele>1595.59</ele>
  <time>2026-08-28T19:10:39Z</time>
  <course>3.2</course>
  <speed>0.8</speed>
  <fix>3d</fix>
</trkpt>
<trkpt lat="40.0728702" lon="-105.2306653">
  <ele>1595.69</ele>
  <time>2026-08-28T19:10:39Z</time>
  <course>8.41</course>
  <speed>0.7800640999302557</speed>
  <fix>3d</fix>
</trkpt>
<trkpt lat="40.0728693" lon="-105.2306656">
  <ele>1595.59</ele>
  <time>2026-08-28T19:10:39Z</time>
  <course>359.08</course>
  <speed>0.83</speed>
  <fix>3d</fix>
</trkpt>
<trkpt lat="40.0728715" lon="-105.2306654">
  <ele>1595.7</ele>
  <time>2026-08-28T19:10:39Z</time>
  <course>8.52</course>
  <speed>0.6747592163134936</speed>
  <fix>3d</fix>
</trkpt>
<trkpt lat="40.0728707" lon="-105.2306656">
  <ele>1595.59</ele>
  <time>2026-08-28T19:10:39Z</time>
  <course>354.6</course>
  <speed>0.78</speed>
  <fix>3d</fix>
</trkpt>
<trkpt lat="40.0728726" lon="-105.2306658">
  <ele>1595.69</ele>
  <time>2026-08-28T19:10:39Z</time>
  <course>8.61</course>
  <speed>0.5096076922496363</speed>
  <fix>3d</fix>
</trkpt>
<trkpt lat="40.0728721" lon="-105.2306658">
  <ele>1595.59</ele>
  <time>2026-08-28T19:10:39Z</time>
  <course>348.74</course>
  <speed>0.66</speed>
  <fix>3d</fix>
</trkpt>
<trkpt lat="40.0728733" lon="-105.2306662">
  <ele>1595.69</ele>
  <time>2026-08-28T19:10:39Z</time>
  <course>8.65</course>
  <speed>0.31622776601683794</speed>
  <fix>3d</fix>
</trkpt>
<trkpt lat="40.072873" lon="-105.2306662">
  <ele>1595.59</ele>
  <time>2026-08-28T19:10:39Z</time>
  <course>339.15</course>
  <speed>0.49</speed>
  <fix>3d</fix>
</trkpt>
<trkpt lat="40.0728736" lon="-105.2306667">
  <ele>1595.68</ele>
  <time>2026-08-28T19:10:39Z</time>
  <course>8.61</course>
  <speed>0.2102379604162864</speed>
  <fix>3d</fix>
</trkpt>
<trkpt lat="40.0728737" lon="-105.2306666">
  <ele>1595.59</ele>
  <time>2026-08-28T19:10:39Z</time>
  <course>317.7</course>
  <speed>0.31</speed>
  <fix>3d</fix>
</trkpt>
<trkpt lat="40.0728736" lon="-105.2306673">
  <ele>1595.67</ele>
  <time>2026-08-28T19:10:39Z</time>
  <course>8.6</course>
  <speed>0.3255764119219941</speed>
  <fix>3d</fix>
</trkpt>
<trkpt lat="40.0728739" lon="-105.2306671">
  <ele>1595.59</ele>
  <time>2026-08-28T19:10:39Z</time>
  <course>263.44</course>
  <speed>0.22</speed>
  <fix>3d</fix>
</trkpt>
<trkpt lat="40.072873" lon="-105.2306678">
  <ele>1595.67</ele>
  <time>2026-08-28T19:10:39Z</time>
  <course>8.52</course>
  <speed>0.5107837115648853</speed>
  <fix>3d</fix>
</trkpt>
<trkpt lat="40.0728737" lon="-105.2306676">
  <ele>1595.59</ele>
  <time>2026-08-28T19:10:39Z</time>
  <course>218.47</course>
  <speed>0.35</speed>
  <fix>3d</fix>
</trkpt>
<trkpt lat="40.0728721" lon="-105.2306683">
  <ele>1595.67</ele>
  <time>2026-08-28T19:10:39Z</time>
  <course>8.42</course>
  <speed>0.6815423684555495</speed>
  <fix>3d</fix>
</trkpt>
<trkpt lat="40.072873" lon="-105.2306681">
  <ele>1595.59</ele>
  <time>2026-08-28T19:10:39Z</time>
  <course>201.57</course>
  <speed>0.54</speed>
  <fix>3d</fix>
</trkpt>
<trkpt lat="40.0728708" lon="-105.2306687">
  <ele>1595.67</ele>
  <time>2026-08-28T19:10:39Z</time>
  <course>8.36</course>
  <speed>0.7990619500389191</speed>
  <fix>3d</fix>
</trkpt>
<trkpt lat="40.0728719" lon="-105.2306686">
  <ele>1595.59</ele>
  <time>2026-08-28T19:10:39Z</time>
  <course>193.26</course>
  <speed>0.69</speed>
  <fix>3d</fix>
</trkpt>
<trkpt lat="40.0728694" lon="-105.2306689">
  <ele>1595.67</ele>
  <time>2026-08-28T19:10:39Z</time>
  <course>8.36</course>
  <speed>0.8321658488546619</speed>
  <fix>3d</fix>
</trkpt>
<trkpt lat="40.0728706" lon="-105.2306688">
  <ele>1595.59</ele>
  <time>2026-08-28T19:10:39Z</time>
  <course>187.77</course>
  <speed>0.79</speed>
  <fix>3d</fix>
</trkpt>
<trkpt lat="40.072868" lon="-105.230669">
  <ele>1595.67</ele>
  <time>2026-08-28T19:10:39Z</time>
  <course>8.42</course>
  <speed>0.8</speed>
  <fix>3d</fix>
</trkpt>
<trkpt lat="40.0728691" lon="-105.2306691">
  <ele>1595.59</ele>
  <time>2026-08-28T19:10:39Z</time>
  <course>183.24</course>
  <speed>0.82</speed>
  <fix>3d</fix>
</trkpt>
<trkpt lat="40.0728667" lon="-105.2306689">
  <ele>1595.67</ele>
  <time>2026-08-28T19:10:39Z</time>
  <course>8.45</course>
  <speed>0.6926037828369117</speed>
  <fix>3d</fix>
</trkpt>
<trkpt lat="40.0728676" lon="-105.2306691">
  <ele>1595.6</ele>
  <time>2026-08-28T19:10:39Z</time>
  <course>178.68</course>
  <speed>0.76</speed>
  <fix>3d</fix>
</trkpt>
<trkpt lat="40.0728656" lon="-105.2306688">
  <ele>1595.67</ele>
  <time>2026-08-28T19:10:39Z</time>
  <course>8.51</course>
  <speed>0.5239274758971895</speed>
  <fix>3d</fix>
</trkpt>
<trkpt lat="40.0728664" lon="-105.230669">
  <ele>1595.6</ele>
  <time>2026-08-28T19:10:39Z</time>
  <course>173.06</course>
  <speed>0.64</speed>
  <fix>3d</fix>
</trkpt>
<trkpt lat="40.0728649" lon="-105.2306685">
  <ele>1595.67</ele>
  <time>2026-08-28T19:10:39Z</time>
  <course>8.54</course>
  <speed>0.327566787083184</speed>
  <fix>3d</fix>
</trkpt>
<trkpt lat="40.0728654" lon="-105.2306687">
  <ele>1595.61</ele>
  <time>2026-08-28T19:10:39Z</time>
  <course>164.11</course>
  <speed>0.46</speed>
  <fix>3d</fix>
</trkpt>
<trkpt lat="40.0728646" lon="-105.230668">
  <ele>1595.67</ele>
  <time>2026-08-28T19:10:39Z</time>
  <course>8.53</course>
  <speed>0.20223748416156684</speed>
  <fix>3d</fix>
</trkpt>
<trkpt lat="40.0728648" lon="-105.2306684">
  <ele>1595.61</ele>
  <time>2026-08-28T19:10:39Z</time>
  <course>142.89</course>
  <speed>0.27</speed>
  <fix>3d</fix>
</trkpt>
<trkpt lat="40.0728647" lon="-105.2306676">
  <ele>1595.67</ele>
  <time>2026-08-28T19:10:39Z</time>
  <course>8.52</course>
  <speed>0.29698484809834996</speed>
  <fix>3d</fix>
</trkpt>
<trkpt lat="40.0728646" lon="-105.2306681">
  <ele>1595.62</ele>
  <time>2026-08-28T19:10:39Z</time>
  <course>77.62</course>
  <speed>0.18</speed>
  <fix>3d</fix>
</trkpt>
<trkpt lat="40.0728653" lon="-105.2306671">
  <ele>1595.67</ele>
  <time>2026-08-28T19:10:39Z</time>
  <course>8.46</course>
  <speed>0.49244289008980524</speed>
  <fix>3d</fix>
</trkpt>
<trkpt lat="40.0728649" lon="-105.2306677">
  <ele>1595.62</ele>
  <time>2026-08-28T19:10:39Z</time>
  <course>31.18</course>
  <speed>0.34</speed>
  <fix>3d</fix>
</trkpt>
<trkpt lat="40.0728663" lon="-105.2306668">
  <ele>1595.68</ele>
  <time>2026-08-28T19:10:39Z</time>
  <course>8.4</course>
  <speed>0.6596969000988256</speed>
  <fix>3d</fix>
</trkpt>
<trkpt lat="40.0728656" lon="-105.2306672">
  <ele>1595.62</ele>
  <time>2026-08-28T19:10:39Z</time>
  <course>16.52</course>
  <speed>0.54</speed>
  <fix>3d</fix>
</trkpt>
<trkpt lat="40.0728675" lon="-105.2306665">
  <ele>1595.68</ele>
  <time>2026-08-28T19:10:39Z</time>
  <course>8.39</course>
  <speed>0.7679192665899195</speed>
  <fix>3d</fix>
</trkpt>
<trkpt lat="40.0728667" lon="-105.2306669">
  <ele>1595.62</ele>
  <time>2026-08-28T19:10:39Z</time>
  <course>9.17</course>
  <speed>0.7</speed>
  <fix>3d</fix>
</trkpt>
<trkpt lat="40.0728689" lon="-105.2306664">
  <ele>1595.69</ele>
  <time>2026-08-28T19:10:39Z</time>
  <course>8.4</course>
  <speed>0.8115417426109393</speed>
  <fix>3d</fix>
</trkpt>
<trkpt lat="40.072868" lon="-105.2306668">
  <ele>1595.62</ele>
  <time>2026-08-28T19:10:39Z</time>
  <course>4.08</course>
  <speed>0.8</speed>
  <fix>3d</fix>
</trkpt>
<trkpt lat="40.0728704" lon="-105.2306664">
  <ele>1595.69</ele>
  <time>2026-08-28T19:10:39Z</time>
  <course>8.48</course>
  <speed>0.7800640999302557</speed>
  <fix>3d</fix>
</trkpt>
<trkpt lat="40.0728695" lon="-105.2306667">
  <ele>1595.62</ele>
  <time>2026-08-28T19:10:39Z</time>
  <course>359.63</course>
  <speed>0.83</speed>
  <fix>3d</fix>
</trkpt>
<trkpt lat="40.0728717" lon="-105.2306665">
  <ele>1595.7</ele>
  <time>2026-08-28T19:10:39Z</time>
  <course>8.52</course>
  <speed>0.6747592163134936</speed>
  <fix>3d</fix>
</trkpt>
<trkpt lat="40.072871" lon="-105.2306667">
  <ele>1595.62</ele>
  <time>2026-08-28T19:10:39Z</time>
  <course>354.95</course>
  <speed>0.78</speed>
  <fix>3d</fix>
</trkpt>
<trkpt lat="40.0728728" lon="-105.2306669">
  <ele>1595.7</ele>
  <time>2026-08-28T19:10:39Z</time>
  <course>8.57</course>
  <speed>0.5096076922496363</speed>
  <fix>3d</fix>
</trkpt>
<trkpt lat="40.0728723" lon="-105.2306669">
  <ele>1595.63</ele>
  <time>2026-08-28T19:10:39Z</time>
  <course>348.96</course>
  <speed>0.67</speed>
  <fix>3d</fix>
</trkpt>
<trkpt lat="40.0728736" lon="-105.2306673">
  <ele>1595.69</ele>
  <time>2026-08-28T19:10:39Z</time>
  <course>8.64</course>
  <speed>0.32449961479175904</speed>
  <fix>3d</fix>
</trkpt>
<trkpt lat="40.0728733" lon="-105.2306672">
  <ele>1595.63</ele>
  <time>2026-08-28T19:10:39Z</time>
  <course>339.31</course>
  <speed>0.5</speed>
  <fix>3d</fix>
</trkpt>
<trkpt lat="40.0728739" lon="-105.2306678">
  <ele>1595.69</ele>
  <time>2026-08-28T19:10:39Z</time>
  <course>8.65</course>
  <speed>0.2102379604162864</speed>
  <fix>3d</fix>
</trkpt>
<trkpt lat="40.072874" lon="-105.2306677">
  <ele>1595.63</ele>
  <time>2026-08-28T19:10:39Z</time>
  <course>318.33</course>
  <speed>0.32</speed>
  <fix>3d</fix>
</trkpt>
<trkpt lat="40.0728739" lon="-105.2306684">
  <ele>1595.68</ele>
  <time>2026-08-28T19:10:39Z</time>
  <course>8.6</course>
  <speed>0.31827660925679097</speed>
  <fix>3d</fix>
</trkpt>
<trkpt lat="40.0728742" lon="-105.2306682">
  <ele>1595.63</ele>
  <time>2026-08-28T19:10:39Z</time>
  <course>265.89</course>
  <speed>0.23</speed>
  <fix>3d</fix>
</trkpt>
<trkpt lat="40.0728733" lon="-105.2306689">
  <ele>1595.68</ele>
  <time>2026-08-28T19:10:39Z</time>
  <course>8.52</course>
  <speed>0.51478150704935</speed>
  <fix>3d</fix>
</trkpt>
<trkpt lat="40.072874" lon="-105.2306688">
  <ele>1595.62</ele>
  <time>2026-08-28T19:10:39Z</time>
  <course>220.03</course>
  <speed>0.35</speed>
  <fix>3d</fix>
</trkpt>
<trkpt lat="40.0728724" lon="-105.2306694">
  <ele>1595.68</ele>
  <time>2026-08-28T19:10:39Z</time>
  <course>8.48</course>
  <speed>0.6841052550594828</speed>
  <fix>3d</fix>
</trkpt>
<trkpt lat="40.0728733" lon="-105.2306693">
  <ele>1595.62</ele>
  <time>2026-08-28T19:10:39Z</time>
  <course>202.41</course>
  <speed>0.53</speed>
  <fix>3d</fix>
</trkpt>
<trkpt lat="40.0728711" lon="-105.2306698">
  <ele>1595.67</ele>
  <time>2026-08-28T19:10:39Z</time>
  <course>8.46</course>
  <speed>0.7907591289387687</speed>
  <fix>3d</fix>
</trkpt>
<trkpt lat="40.0728723" lon="-105.2306697">
  <ele>1595.62</ele>
  <time>2026-08-28T19:10:39Z</time>
  <course>193.78</course>
  <speed>0.69</speed>
  <fix>3d</fix>
</trkpt>
<trkpt lat="40.0728698" lon="-105.2306701">
  <ele>1595.67</ele>
  <time>2026-08-28T19:10:39Z</time>
  <course>8.45</course>
  <speed>0.8329465769183519</speed>
  <fix>3d</fix>
</trkpt>
<trkpt lat="40.072871" lon="-105.2306701">
  <ele>1595.62</ele>
  <time>2026-08-28T19:10:39Z</time>
  <course>188.08</course>
  <speed>0.78</speed>
  <fix>3d</fix>
</trkpt>
<trkpt lat="40.0728683" lon="-105.2306702">
  <ele>1595.67</ele>
  <time>2026-08-28T19:10:39Z</time>
  <course>8.44</course>
  <speed>0.8</speed>
  <fix>3d</fix>
</trkpt>
<trkpt lat="40.0728695" lon="-105.2306702">
  <ele>1595.62</ele>
  <time>2026-08-28T19:10:39Z</time>
  <course>183.39</course>
  <speed>0.81</speed>
  <fix>3d</fix>
</trkpt>
<trkpt lat="40.0728671" lon="-105.2306701">
  <ele>1595.68</ele>
  <time>2026-08-28T19:10:39Z</time>
  <course>8.46</course>
  <speed>0.6926037828369117</speed>
  <fix>3d</fix>
</trkpt>
<trkpt lat="40.072868" lon="-105.2306703">
  <ele>1595.63</ele>
  <time>2026-08-28T19:10:39Z</time>
  <course>178.71</course>
  <speed>0.76</speed>
  <fix>3d</fix>
</trkpt>
<trkpt lat="40.072866" lon="-105.23067">
  <ele>1595.69</ele>
  <time>2026-08-28T19:10:39Z</time>
  <course>8.51</course>
  <speed>0.5239274758971895</speed>
  <fix>3d</fix>
</trkpt>
<trkpt lat="40.0728668" lon="-105.2306701">
  <ele>1595.63</ele>
  <time>2026-08-28T19:10:39Z</time>
  <course>172.99</course>
  <speed>0.64</speed>
  <fix>3d</fix>
</trkpt>
<trkpt lat="40.0728653" lon="-105.2306696">
  <ele>1595.7</ele>
  <time>2026-08-28T19:10:40Z</time>
  <course>8.56</course>
  <speed>0.327566787083184</speed>
  <fix>3d</fix>
</trkpt>
<trkpt lat="40.0728658" lon="-105.23067">
  <ele>1595.64</ele>
  <time>2026-08-28T19:10:40Z</time>
  <course>163.91</course>
  <speed>0.46</speed>
  <fix>3d</fix>
</trkpt>
<trkpt lat="40.072865" lon="-105.2306692">
  <ele>1595.7</ele>
  <time>2026-08-28T19:10:40Z</time>
  <course>8.58</course>
  <speed>0.20223748416156684</speed>
  <fix>3d</fix>
</trkpt>
<trkpt lat="40.0728653" lon="-105.2306696">
  <ele>1595.64</ele>
  <time>2026-08-28T19:10:40Z</time>
  <course>142.56</course>
  <speed>0.27</speed>
  <fix>3d</fix>
</trkpt>
<trkpt lat="40.0728652" lon="-105.2306687">
  <ele>1595.7</ele>
  <time>2026-08-28T19:10:40Z</time>
  <course>8.56</course>
  <speed>0.304138126514911</speed>
  <fix>3d</fix>
</trkpt>
<trkpt lat="40.0728651" lon="-105.2306692">
  <ele>1595.64</ele>
  <time>2026-08-28T19:10:40Z</time>
  <course>78.23</course>
  <speed>0.18</speed>
  <fix>3d</fix>
</trkpt>
<trkpt lat="40.0728657" lon="-105.2306683">
  <ele>1595.7</ele>
  <time>2026-08-28T19:10:40Z</time>
  <course>8.52</course>
  <speed>0.49244289008980524</speed>
  <fix>3d</fix>
</trkpt>
<trkpt lat="40.0728653" lon="-105.2306689">
  <ele>1595.64</ele>
  <time>2026-08-28T19:10:40Z</time>
  <course>31.87</course>
  <speed>0.34</speed>
  <fix>3d</fix>
</trkpt>
<trkpt lat="40.0728667" lon="-105.2306679">
  <ele>1595.7</ele>
  <time>2026-08-28T19:10:40Z</time>
  <course>8.47</course>
  <speed>0.6621933252457322</speed>
  <fix>3d</fix>
</trkpt>
<trkpt lat="40.072866" lon="-105.2306684">
  <ele>1595.63</ele>
  <time>2026-08-28T19:10:40Z</time>
  <course>17.0</course>
  <speed>0.53</speed>
  <fix>3d</fix>
</trkpt>
<trkpt lat="40.072868" lon="-105.2306677">
  <ele>1595.7</ele>
  <time>2026-08-28T19:10:40Z</time>
  <course>8.42</course>
  <speed>0.7694153624668537</speed>
  <fix>3d</fix>
</trkpt>
<trkpt lat="40.072867" lon="-105.2306681">
  <ele>1595.63</ele>
  <time>2026-08-28T19:10:40Z</time>
  <course>9.59</course>
  <speed>0.7</speed>
  <fix>3d</fix>
</trkpt>
<trkpt lat="40.0728694" lon="-105.2306675">
  <ele>1595.71</ele>
  <time>2026-08-28T19:10:40Z</time>
  <course>8.43</course>
  <speed>0.8115417426109393</speed>
  <fix>3d</fix>
</trkpt>
<trkpt lat="40.0728684" lon="-105.2306679">
  <ele>1595.62</ele>
  <time>2026-08-28T19:10:40Z</time>
  <course>4.43</course>
  <speed>0.8</speed>
  <fix>3d</fix>
</trkpt>
<trkpt lat="40.0728708" lon="-105.2306676">
  <ele>1595.71</ele>
  <time>2026-08-28T19:10:40Z</time>
  <course>8.52</course>
  <speed>0.7800640999302557</speed>
  <fix>3d</fix>
</trkpt>
<trkpt lat="40.0728699" lon="-105.2306679">
  <ele>1595.62</ele>
  <time>2026-08-28T19:10:40Z</time>
  <course>359.93</course>
  <speed>0.82</speed>
  <fix>3d</fix>
</trkpt>
<trkpt lat="40.0728721" lon="-105.2306677">
  <ele>1595.71</ele>
  <time>2026-08-28T19:10:40Z</time>
  <course>8.6</course>
  <speed>0.6747592163134936</speed>
  <fix>3d</fix>
</trkpt>
<trkpt lat="40.0728713" lon="-105.2306679">
  <ele>1595.62</ele>
  <time>2026-08-28T19:10:40Z</time>
  <course>355.2</course>
  <speed>0.78</speed>
  <fix>3d</fix>
</trkpt>
<trkpt lat="40.0728732" lon="-105.230668">
  <ele>1595.7</ele>
  <time>2026-08-28T19:10:40Z</time>
  <course>8.66</course>
  <speed>0.5096076922496363</speed>
  <fix>3d</fix>
</trkpt>
<trkpt lat="40.0728727" lon="-105.2306681">
  <ele>1595.62</ele>
  <time>2026-08-28T19:10:40Z</time>
  <course>349.15</course>
  <speed>0.66</speed>
  <fix>3d</fix>
</trkpt>
<trkpt lat="40.0728739" lon="-105.2306684">
  <ele>1595.7</ele>
  <time>2026-08-28T19:10:40Z</time>
  <course>8.7</course>
  <speed>0.31622776601683794</speed>
  <fix>3d</fix>
</trkpt>
<trkpt lat="40.0728737" lon="-105.2306684">
  <ele>1595.61</ele>
  <time>2026-08-28T19:10:40Z</time>
  <course>339.37</course>
  <speed>0.49</speed>
  <fix>3d</fix>
</trkpt>
<trkpt lat="40.0728742" lon="-105.230669">
  <ele>1595.69</ele>
  <time>2026-08-28T19:10:40Z</time>
  <course>8.65</course>
  <speed>0.2102379604162864</speed>
  <fix>3d</fix>
</trkpt>
<trkpt lat="40.0728742" lon="-105.2306688">
  <ele>1595.61</ele>
  <time>2026-08-28T19:10:40Z</time>
  <course>317.73</course>
  <speed>0.31</speed>
  <fix>3d</fix>
</trkpt>
<trkpt lat="40.0728741" lon="-105.2306695">
  <ele>1595.68</ele>
  <time>2026-08-28T19:10:40Z</time>
  <course>8.6</course>
  <speed>0.3255764119219941</speed>
  <fix>3d</fix>
</trkpt>
<trkpt lat="40.0728745" lon="-105.2306694">
  <ele>1595.61</ele>
  <time>2026-08-28T19:10:40Z</time>
  <course>263.59</course>
  <speed>0.22</speed>
  <fix>3d</fix>
</trkpt>
<trkpt lat="40.0728736" lon="-105.2306701">
  <ele>1595.67</ele>
  <time>2026-08-28T19:10:40Z</time>
  <course>8.52</course>
  <speed>0.51478150704935</speed>
  <fix>3d</fix>
</trkpt>
<trkpt lat="40.0728742" lon="-105.2306699">
  <ele>1595.6</ele>
  <time>2026-08-28T19:10:40Z</time>
  <course>218.79</course>
  <speed>0.35</speed>
  <fix>3d</fix>
</trkpt>
<trkpt lat="40.0728727" lon="-105.2306706">
  <ele>1595.67</ele>
  <time>2026-08-28T19:10:40Z</time>
  <course>8.46</course>
  <speed>0.6841052550594828</speed>
  <fix>3d</fix>
</trkpt>
<trkpt lat="40.0728736" lon="-105.2306704">
  <ele>1595.6</ele>
  <time>2026-08-28T19:10:40Z</time>
  <course>201.82</course>
  <speed>0.54</speed>
  <fix>3d</fix>
</trkpt>
<trkpt lat="40.0728714" lon="-105.2306709">
  <ele>1595.68</ele>
  <time>2026-08-28T19:10:40Z</time>
  <course>8.41</course>
  <speed>0.7907591289387687</speed>
  <fix>3d</fix>
</trkpt>
<trkpt lat="40.0728725" lon="-105.2306708">
  <ele>1595.6</ele>
  <time>2026-08-28T19:10:40Z</time>
  <course>193.43</course>
  <speed>0.7</speed>
  <fix>3d</fix>
</trkpt>
<trkpt lat="40.07287" lon="-105.2306712">
  <ele>1595.68</ele>
  <time>2026-08-28T19:10:40Z</time>
  <course>8.4</course>
  <speed>0.8329465769183519</speed>
  <fix>3d</fix>
</trkpt>
<trkpt lat="40.0728711" lon="-105.2306711">
  <ele>1595.6</ele>
  <time>2026-08-28T19:10:40Z</time>
  <course>187.88</course>
  <speed>0.79</speed>
  <fix>3d</fix>
</trkpt>
<trkpt lat="40.0728686" lon="-105.2306713">
  <ele>1595.68</ele>
  <time>2026-08-28T19:10:40Z</time>
  <course>8.47</course>
  <speed>0.8</speed>
  <fix>3d</fix>
</trkpt>
<trkpt lat="40.0728697" lon="-105.2306713">
  <ele>1595.6</ele>
  <time>2026-08-28T19:10:40Z</time>
  <course>183.29</course>
  <speed>0.82</speed>
  <fix>3d</fix>
</trkpt>
<trkpt lat="40.0728673" lon="-105.2306712">
  <ele>1595.69</ele>
  <time>2026-08-28T19:10:40Z</time>
  <course>8.53</course>
  <speed>0.6926037828369117</speed>
  <fix>3d</fix>
</trkpt>
<trkpt lat="40.0728682" lon="-105.2306713">
  <ele>1595.6</ele>
  <time>2026-08-28T19:10:40Z</time>
  <course>178.67</course>
  <speed>0.76</speed>
  <fix>3d</fix>
</trkpt>
<trkpt lat="40.0728662" lon="-105.2306711">
  <ele>1595.69</ele>
  <time>2026-08-28T19:10:40Z</time>
  <course>8.57</course>
  <speed>0.5239274758971895</speed>
  <fix>3d</fix>
</trkpt>
<trkpt lat="40.072867" lon="-105.2306712">
  <ele>1595.6</ele>
  <time>2026-08-28T19:10:40Z</time>
  <course>172.99</course>
  <speed>0.64</speed>
  <fix>3d</fix>
</trkpt>
<trkpt lat="40.0728655" lon="-105.2306707">
  <ele>1595.69</ele>
  <time>2026-08-28T19:10:40Z</time>
  <course>8.57</course>
  <speed>0.327566787083184</speed>
  <fix>3d</fix>
</trkpt>
<trkpt lat="40.072866" lon="-105.2306711">
  <ele>1595.61</ele>
  <time>2026-08-28T19:10:40Z</time>
  <course>163.94</course>
  <speed>0.47</speed>
  <fix>3d</fix>
</trkpt>
<trkpt lat="40.0728652" lon="-105.2306703">
  <ele>1595.69</ele>
  <time>2026-08-28T19:10:40Z</time>
  <course>8.57</course>
  <speed>0.20223748416156684</speed>
  <fix>3d</fix>
</trkpt>
<trkpt lat="40.0728654" lon="-105.2306708">
  <ele>1595.61</ele>
  <time>2026-08-28T19:10:40Z</time>
  <course>142.76</course>
  <speed>0.27</speed>
  <fix>3d</fix>
</trkpt>
<trkpt lat="40.0728654" lon="-105.2306698">
  <ele>1595.68</ele>
  <time>2026-08-28T19:10:40Z</time>
  <course>8.56</course>
  <speed>0.304138126514911</speed>
  <fix>3d</fix>
</trkpt>
<trkpt lat="40.0728652" lon="-105.2306703">
  <ele>1595.61</ele>
  <time>2026-08-28T19:10:40Z</time>
  <course>78.83</course>
  <speed>0.18</speed>
  <fix>3d</fix>
</trkpt>
<trkpt lat="40.0728659" lon="-105.2306694">
  <ele>1595.68</ele>
  <time>2026-08-28T19:10:40Z</time>
  <course>8.48</course>
  <speed>0.49244289008980524</speed>
  <fix>3d</fix>
</trkpt>
<trkpt lat="40.0728655" lon="-105.2306699">
  <ele>1595.6</ele>
  <time>2026-08-28T19:10:40Z</time>
  <course>32.05</course>
  <speed>0.34</speed>
  <fix>3d</fix>
</trkpt>
<trkpt lat="40.0728669" lon="-105.230669">
  <ele>1595.68</ele>
  <time>2026-08-28T19:10:40Z</time>
  <course>8.42</course>
  <speed>0.6621933252457322</speed>
  <fix>3d</fix>
</trkpt>
<trkpt lat="40.0728662" lon="-105.2306694">
  <ele>1595.6</ele>
  <time>2026-08-28T19:10:40Z</time>
  <course>17.04</course>
  <speed>0.53</speed>
  <fix>3d</fix>
</trkpt>
<trkpt lat="40.0728681" lon="-105.2306687">
  <ele>1595.69</ele>
  <time>2026-08-28T19:10:40Z</time>
  <course>8.4</course>
  <speed>0.7679192665899195</speed>
  <fix>3d</fix>
</trkpt>
<trkpt lat="40.0728673" lon="-105.2306692">
  <ele>1595.6</ele>
  <time>2026-08-28T19:10:40Z</time>
  <course>9.54</course>
  <speed>0.7</speed>
  <fix>3d</fix>
</trkpt>
<trkpt lat="40.0728696" lon="-105.2306686">
  <ele>1595.69</ele>
  <time>2026-08-28T19:10:40Z</time>
  <course>8.43</course>
  <speed>0.8115417426109393</speed>
  <fix>3d</fix>
</trkpt>
<trkpt lat="40.0728686" lon="-105.230669">
  <ele>1595.6</ele>
  <time>2026-08-28T19:10:40Z</time>
  <course>4.36</course>
  <speed>0.8</speed>
  <fix>3d</fix>
</trkpt>
<trkpt lat="40.072871" lon="-105.2306686">
  <ele>1595.69</ele>
  <time>2026-08-28T19:10:40Z</time>
  <course>8.5</course>
  <speed>0.7800640999302557</speed>
  <fix>3d</fix>
</trkpt>
<trkpt lat="40.0728701" lon="-105.2306689">
  <ele>1595.6</ele>
  <time>2026-08-28T19:10:40Z</time>
  <course>359.83</course>
  <speed>0.83</speed>
  <fix>3d</fix>
</trkpt>
<trkpt lat="40.0728723" lon="-105.2306687">
  <ele>1595.69</ele>
  <time>2026-08-28T19:10:40Z</time>
  <course>8.56</course>
  <speed>0.6747592163134936</speed>
  <fix>3d</fix>
</trkpt>
<trkpt lat="40.0728716" lon="-105.230669">
  <ele>1595.6</ele>
  <time>2026-08-28T19:10:40Z</time>
  <course>355.09</course>
  <speed>0.78</speed>
  <fix>3d</fix>
</trkpt>
<trkpt lat="40.0728734" lon="-105.2306691">
  <ele>1595.69</ele>
  <time>2026-08-28T19:10:40Z</time>
  <course>8.61</course>
  <speed>0.5096076922496363</speed>
  <fix>3d</fix>
</trkpt>
<trkpt lat="40.0728729" lon="-105.2306692">
  <ele>1595.6</ele>
  <time>2026-08-28T19:10:40Z</time>
  <course>349.03</course>
  <speed>0.66</speed>
  <fix>3d</fix>
</trkpt>
<trkpt lat="40.0728742" lon="-105.2306695">
  <ele>1595.69</ele>
  <time>2026-08-28T19:10:40Z</time>
  <course>8.65</course>
  <speed>0.32202484376209234</speed>
  <fix>3d</fix>
</trkpt>
<trkpt lat="40.0728739" lon="-105.2306694">
  <ele>1595.6</ele>
  <time>2026-08-28T19:10:40Z</time>
  <course>339.23</course>
  <speed>0.49</speed>
  <fix>3d</fix>
</trkpt>
<trkpt lat="40.0728745" lon="-105.2306701">
  <ele>1595.69</ele>
  <time>2026-08-28T19:10:40Z</time>
  <course>8.63</course>
  <speed>0.2102379604162864</speed>
  <fix>3d</fix>
</trkpt>
<trkpt lat="40.0728745" lon="-105.2306699">
  <ele>1595.6</ele>
  <time>2026-08-28T19:10:40Z</time>
  <course>317.66</course>
  <speed>0.31</speed>
  <fix>3d</fix>
</trkpt>
<trkpt lat="40.0728743" lon="-105.2306706">
  <ele>1595.68</ele>
  <time>2026-08-28T19:10:40Z</time>
  <course>8.61</course>
  <speed>0.3255764119219941</speed>
  <fix>3d</fix>
</trkpt>
<trkpt lat="40.0728747" lon="-105.2306705">
  <ele>1595.6</ele>
  <time>2026-08-28T19:10:40Z</time>
  <course>264.06</course>
  <speed>0.22</speed>
  <fix>3d</fix>
</trkpt>
<trkpt lat="40.0728738" lon="-105.2306712">
  <ele>1595.68</ele>
  <time>2026-08-28T19:10:40Z</time>
  <course>8.54</course>
  <speed>0.51478150704935</speed>
  <fix>3d</fix>
</trkpt>
<trkpt lat="40.0728745" lon="-105.230671">
  <ele>1595.6</ele>
  <time>2026-08-28T19:10:40Z</time>
  <course>219.17</course>
  <speed>0.35</speed>
  <fix>3d</fix>
</trkpt>
<trkpt lat="40.0728729" lon="-105.2306717">
  <ele>1595.68</ele>
  <time>2026-08-28T19:10:40Z</time>
  <course>8.5</course>
  <speed>0.6841052550594828</speed>
  <fix>3d</fix>
</trkpt>
<trkpt lat="40.0728738" lon="-105.2306715">
  <ele>1595.59</ele>
  <time>2026-08-28T19:10:40Z</time>
  <course>202.03</course>
  <speed>0.54</speed>
  <fix>3d</fix>
</trkpt>
<trkpt lat="40.0728716" lon="-105.2306721">
  <ele>1595.68</ele>
  <time>2026-08-28T19:10:40Z</time>
  <course>8.48</course>
  <speed>0.7907591289387687</speed>
  <fix>3d</fix>
</trkpt>
<trkpt lat="40.0728728" lon="-105.230672">
  <ele>1595.59</ele>
  <time>2026-08-28T19:10:40Z</time>
  <course>193.56</course>
  <speed>0.69</speed>
  <fix>3d</fix>
</trkpt>
<trkpt lat="40.0728702" lon="-105.2306723">
  <ele>1595.67</ele>
  <time>2026-08-28T19:10:40Z</time>
  <course>8.46</course>
  <speed>0.8329465769183519</speed>
  <fix>3d</fix>
</trkpt>
<trkpt lat="40.0728714" lon="-105.2306723">
  <ele>1595.59</ele>
  <time>2026-08-28T19:10:40Z</time>
  <course>187.93</course>
  <speed>0.79</speed>
  <fix>3d</fix>
</trkpt>
<trkpt lat="40.0728688" lon="-105.2306724">
  <ele>1595.67</ele>
  <time>2026-08-28T19:10:40Z</time>
  <course>8.46</course>
  <speed>0.8</speed>
  <fix>3d</fix>
</trkpt>
<trkpt lat="40.0728699" lon="-105.2306724">
  <ele>1595.59</ele>
  <time>2026-08-28T19:10:40Z</time>
  <course>183.26</course>
  <speed>0.81</speed>
  <fix>3d</fix>
</trkpt>
<trkpt lat="40.0728675" lon="-105.2306723">
  <ele>1595.67</ele>
  <time>2026-08-28T19:10:40Z</time>
  <course>8.47</course>
  <speed>0.6926037828369117</speed>
  <fix>3d</fix>
</trkpt>
<trkpt lat="40.0728686" lon="-105.2306725">
  <ele>1595.59</ele>
  <time>2026-08-28T19:10:40Z</time>
  <course>178.56</course>
  <speed>0.76</speed>
  <fix>3d</fix>
</trkpt>
<trkpt lat="40.0728665" lon="-105.2306722">
  <ele>1595.68</ele>
  <time>2026-08-28T19:10:40Z</time>
  <course>8.53</course>
  <speed>0.5263078946776306</speed>
  <fix>3d</fix>
</trkpt>
<trkpt lat="40.0728673" lon="-105.2306724">
  <ele>1595.6</ele>
  <time>2026-08-28T19:10:40Z</time>
  <course>172.78</course>
  <speed>0.64</speed>
  <fix>3d</fix>
</trkpt>
<trkpt lat="40.0728658" lon="-105.2306718">
  <ele>1595.68</ele>
  <time>2026-08-28T19:10:40Z</time>
  <course>8.55</course>
  <speed>0.327566787083184</speed>
  <fix>3d</fix>
</trkpt>
<trkpt lat="40.0728663" lon="-105.2306721">
  <ele>1595.6</ele>
  <time>2026-08-28T19:10:40Z</time>
  <course>163.58</course>
  <speed>0.46</speed>
  <fix>3d</fix>
</trkpt>
<trkpt lat="40.0728655" lon="-105.2306714">
  <ele>1595.68</ele>
  <time>2026-08-28T19:10:40Z</time>
  <course>8.55</course>
  <speed>0.20223748416156684</speed>
  <fix>3d</fix>
</trkpt>
<trkpt lat="40.0728656" lon="-105.2306719">
  <ele>1595.61</ele>
  <time>2026-08-28T19:10:40Z</time>
  <course>141.85</course>
  <speed>0.27</speed>
  <fix>3d</fix>
</trkpt>
<trkpt lat="40.0728656" lon="-105.2306709">
  <ele>1595.69</ele>
  <time>2026-08-28T19:10:40Z</time>
  <course>8.5</course>
  <speed>0.2842534080710379</speed>
  <fix>3d</fix>
</trkpt>
<trkpt lat="40.0728655" lon="-105.2306714">
  <ele>1595.61</ele>
  <time>2026-08-28T19:10:40Z</time>
  <course>79.71</course>
  <speed>0.19</speed>
  <fix>3d</fix>
</trkpt>
<trkpt lat="40.072866" lon="-105.2306705">
  <ele>1595.69</ele>
  <time>2026-08-28T19:10:40Z</time>
  <course>8.43</course>
  <speed>0.3361547262794322</speed>
  <fix>3d</fix>
</trkpt>
<trkpt lat="40.0728657" lon="-105.230671">
  <ele>1595.61</ele>
  <time>2026-08-28T19:10:40Z</time>
  <course>37.88</course>
  <speed>0.28</speed>
  <fix>3d</fix>
</trkpt>
<trkpt lat="40.0728665" lon="-105.2306703">
  <ele>1595.69</ele>
  <time>2026-08-28T19:10:40Z</time>
  <course>8.52</course>
  <speed>0.3478505426185217</speed>
  <fix>3d</fix>
</trkpt>
<trkpt lat="40.0728661" lon="-105.2306706">
  <ele>1595.61</ele>
  <time>2026-08-28T19:10:40Z</time>
  <course>22.04</course>
  <speed>0.34</speed>
  <fix>3d</fix>
</trkpt>
<trkpt lat="40.0728671" lon="-105.2306701">
  <ele>1595.69</ele>
  <time>2026-08-28T19:10:40Z</time>
  <course>8.57</course>
  <speed>0.33734255586865997</speed>
  <fix>3d</fix>
</trkpt>
<trkpt lat="40.0728668" lon="-105.2306704">
  <ele>1595.61</ele>
  <time>2026-08-28T19:10:40Z</time>
  <course>12.17</course>
  <speed>0.36</speed>
  <fix>3d</fix>
</trkpt>
<trkpt lat="40.0728677" lon="-105.23067">
  <ele>1595.68</ele>
  <time>2026-08-28T19:10:40Z</time>
  <course>8.59</course>
  <speed>0.31144823004794875</speed>
  <fix>3d</fix>
</trkpt>
<trkpt lat="40.0728674" lon="-105.2306702">
  <ele>1595.61</ele>
  <time>2026-08-28T19:10:40Z</time>
  <course>5.48</course>
  <speed>0.35</speed>
  <fix>3d</fix>
</trkpt>
<trkpt lat="40.0728683" lon="-105.23067">
  <ele>1595.69</ele>
  <time>2026-08-28T19:10:40Z</time>
  <course>8.6</course>
  <speed>0.29017236257093815</speed>
  <fix>3d</fix>
</trkpt>
<trkpt lat="40.072868" lon="-105.2306701">
  <ele>1595.61</ele>
  <time>2026-08-28T19:10:40Z</time>
  <course>0.96</course>
  <speed>0.33</speed>
  <fix>3d</fix>
</trkpt>
<trkpt lat="40.0728688" lon="-105.23067">
  <ele>1595.69</ele>
  <time>2026-08-28T19:10:40Z</time>
  <course>8.6</course>
  <speed>0.27</speed>
  <fix>3d</fix>
</trkpt>
<trkpt lat="40.0728686" lon="-105.2306702">
  <ele>1595.61</ele>
  <time>2026-08-28T19:10:40Z</time>
  <course>358.08</course>
  <speed>0.31</speed>
  <fix>3d</fix>
</trkpt>
<trkpt lat="40.0728693" lon="-105.23067">
  <ele>1595.69</ele>
  <time>2026-08-28T19:10:40Z</time>
  <course>8.62</course>
  <speed>0.25</speed>
  <fix>3d</fix>
</trkpt>
<trkpt lat="40.0728692" lon="-105.2306703">
  <ele>1595.61</ele>
  <time>2026-08-28T19:10:40Z</time>
  <course>356.48</course>
  <speed>0.29</speed>
  <fix>3d</fix>
</trkpt>
<trkpt lat="40.0728698" lon="-105.23067">
  <ele>1595.69</ele>
  <time>2026-08-28T19:10:40Z</time>
  <course>8.62</course>
  <speed>0.23</speed>
  <fix>3d</fix>
</trkpt>
<trkpt lat="40.0728697" lon="-105.2306703">
  <ele>1595.61</ele>
  <time>2026-08-28T19:10:40Z</time>
  <course>355.75</course>
  <speed>0.27</speed>
  <fix>3d</fix>
</trkpt>
<trkpt lat="40.0728703" lon="-105.2306701">
  <ele>1595.69</ele>
  <time>2026-08-28T19:10:40Z</time>
  <course>8.61</course>
  <speed>0.22</speed>
  <fix>3d</fix>
</trkpt>
<trkpt lat="40.0728701" lon="-105.2306703">
  <ele>1595.61</ele>
  <time>2026-08-28T19:10:40Z</time>
  <course>355.56</course>
  <speed>0.25</speed>
  <fix>3d</fix>
</trkpt>
<trkpt lat="40.0728707" lon="-105.2306701">
  <ele>1595.7</ele>
  <time>2026-08-28T19:10:40Z</time>
  <course>8.62</course>
  <speed>0.2</speed>
  <fix>3d</fix>
</trkpt>
<trkpt lat="40.0728706" lon="-105.2306703">
  <ele>1595.61</ele>
  <time>2026-08-28T19:10:40Z</time>
  <course>355.57</course>
  <speed>0.24</speed>
  <fix>3d</fix>
</trkpt>
<trkpt lat="40.0728711" lon="-105.2306702">
  <ele>1595.7</ele>
  <time>2026-08-28T19:10:40Z</time>
  <course>8.6</course>
  <speed>0.19</speed>
  <fix>3d</fix>
</trkpt>
<trkpt lat="40.0728711" lon="-105.2306703">
  <ele>1595.6</ele>
  <time>2026-08-28T19:10:40Z</time>
  <course>355.64</course>
  <speed>0.22</speed>
  <fix>3d</fix>
</trkpt>
<trkpt lat="40.0728715" lon="-105.2306702">
  <ele>1595.69</ele>
  <time>2026-08-28T19:10:40Z</time>
  <course>8.6</course>
  <speed>0.18</speed>
  <fix>3d</fix>
</trkpt>
<trkpt lat="40.0728714" lon="-105.2306703">
  <ele>1595.6</ele>
  <time>2026-08-28T19:10:40Z</time>
  <course>355.82</course>
  <speed>0.21</speed>
  <fix>3d</fix>
</trkpt>
<trkpt lat="40.0728718" lon="-105.2306702">
  <ele>1595.69</ele>
  <time>2026-08-28T19:10:40Z</time>
  <course>8.59</course>
  <speed>0.17</speed>
  <fix>3d</fix>
</trkpt>
<trkpt lat="40.0728718" lon="-105.2306703">
  <ele>1595.6</ele>
  <time>2026-08-28T19:10:40Z</time>
  <course>355.93</course>
  <speed>0.2</speed>
  <fix>3d</fix>
</trkpt>
<trkpt lat="40.0728722" lon="-105.2306702">
  <ele>1595.69</ele>
  <time>2026-08-28T19:10:40Z</time>
  <course>8.59</course>
  <speed>0.16</speed>
  <fix>3d</fix>
</trkpt>
<trkpt lat="40.0728722" lon="-105.2306704">
  <ele>1595.6</ele>
  <time>2026-08-28T19:10:40Z</time>
  <course>355.98</course>
  <speed>0.19</speed>
  <fix>3d</fix>
</trkpt>
<trkpt lat="40.0728725" lon="-105.2306703">
  <ele>1595.69</ele>
  <time>2026-08-28T19:10:40Z</time>
  <course>8.57</course>
  <speed>0.16</speed>
  <fix>3d</fix>
</trkpt>
<trkpt lat="40.0728725" lon="-105.2306705">
  <ele>1595.6</ele>
  <time>2026-08-28T19:10:40Z</time>
  <course>356.03</course>
  <speed>0.18</speed>
  <fix>3d</fix>
</trkpt>
<trkpt lat="40.0728728" lon="-105.2306703">
  <ele>1595.68</ele>
  <time>2026-08-28T19:10:40Z</time>
  <course>8.57</course>
  <speed>0.15</speed>
  <fix>3d</fix>
</trkpt>
<trkpt lat="40.0728728" lon="-105.2306705">
  <ele>1595.6</ele>
  <time>2026-08-28T19:10:40Z</time>
  <course>356.07</course>
  <speed>0.18</speed>
  <fix>3d</fix>
</trkpt>
<trkpt lat="40.0728732" lon="-105.2306703">
  <ele>1595.68</ele>
  <time>2026-08-28T19:10:40Z</time>
  <course>8.59</course>
  <speed>0.15</speed>
  <fix>3d</fix>
</trkpt>
<trkpt lat="40.0728732" lon="-105.2306705">
  <ele>1595.59</ele>
  <time>2026-08-28T19:10:40Z</time>
  <course>356.09</course>
  <speed>0.17</speed>
  <fix>3d</fix>
</trkpt>
<trkpt lat="40.0728735" lon="-105.2306703">
  <ele>1595.68</ele>
  <time>2026-08-28T19:10:40Z</time>
  <course>8.58</course>
  <speed>0.17029386365926402</speed>
  <fix>3d</fix>
</trkpt>
<trkpt lat="40.0728735" lon="-105.2306706">
  <ele>1595.59</ele>
  <time>2026-08-28T19:10:40Z</time>
  <course>357.0</course>
  <speed>0.18</speed>
  <fix>3d</fix>
</trkpt>
<trkpt lat="40.0728739" lon="-105.2306703">
  <ele>1595.68</ele>
  <time>2026-08-28T19:10:40Z</time>
  <course>8.58</course>
  <speed>0.23194827009486402</speed>
  <fix>3d</fix>
</trkpt>
<trkpt lat="40.0728738" lon="-105.2306706">
  <ele>1595.59</ele>
  <time>2026-08-28T19:10:40Z</time>
  <course>0.37</course>
  <speed>0.21</speed>
  <fix>3d</fix>
</trkpt>
<trkpt lat="40.0728744" lon="-105.2306703">
  <ele>1595.68</ele>
  <time>2026-08-28T19:10:40Z</time>
  <course>8.55</course>
  <speed>0.31575306807693887</speed>
  <fix>3d</fix>
</trkpt>
<trkpt lat="40.0728742" lon="-105.2306706">
  <ele>1595.59</ele>
  <time>2026-08-28T19:10:40Z</time>
  <course>4.67</course>
  <speed>0.27</speed>
  <fix>3d</fix>
</trkpt>
<trkpt lat="40.0728751" lon="-105.2306702">
  <ele>1595.68</ele>
  <time>2026-08-28T19:10:40Z</time>
  <course>8.53</course>
  <speed>0.4295346318982906</speed>
  <fix>3d</fix>
</trkpt>
<trkpt lat="40.0728748" lon="-105.2306705">
  <ele>1595.59</ele>
  <time>2026-08-28T19:10:40Z</time>
  <course>7.52</course>
  <speed>0.36</speed>
  <fix>3d</fix>
</trkpt>
<trkpt lat="40.072876" lon="-105.23067">
  <ele>1595.68</ele>
  <time>2026-08-28T19:10:40Z</time>
  <course>8.52</course>
  <speed>0.5412947441089743</speed>
  <fix>3d</fix>
</trkpt>
<trkpt lat="40.0728756" lon="-105.2306704">
  <ele>1595.59</ele>
  <time>2026-08-28T19:10:40Z</time>
  <course>8.63</course>
  <speed>0.47</speed>
  <fix>3d</fix>
</trkpt>
<trkpt lat="40.0728771" lon="-105.2306698">
  <ele>1595.68</ele>
  <time>2026-08-28T19:10:40Z</time>
  <course>8.49</course>
  <speed>0.6395310782127792</speed>
  <fix>3d</fix>
</trkpt>
<trkpt lat="40.0728765" lon="-105.2306702">
  <ele>1595.59</ele>
  <time>2026-08-28T19:10:40Z</time>
  <course>8.56</course>
  <speed>0.58</speed>
  <fix>3d</fix>
</trkpt>
<trkpt lat="40.0728783" lon="-105.2306696">
  <ele>1595.69</ele>
  <time>2026-08-28T19:10:40Z</time>
  <course>8.49</course>
  <speed>0.6987131027825368</speed>
  <fix>3d</fix>
</trkpt>
<trkpt lat="40.0728777" lon="-105.23067">
  <ele>1595.59</ele>
  <time>2026-08-28T19:10:40Z</time>
  <course>7.72</course>
  <speed>0.67</speed>
  <fix>3d</fix>
</trkpt>
<trkpt lat="40.0728796" lon="-105.2306695">
  <ele>1595.69</ele>
  <time>2026-08-28T19:10:40Z</time>
  <course>8.51</course>
  <speed>0.7045565981523414</speed>
  <fix>3d</fix>
</trkpt>
<trkpt lat="40.0728789" lon="-105.2306697">
  <ele>1595.59</ele>
  <time>2026-08-28T19:10:40Z</time>
  <course>6.29</course>
  <speed>0.72</speed>
  <fix>3d</fix>
</trkpt>
<trkpt lat="40.0728808" lon="-105.2306693">
  <ele>1595.69</ele>
  <time>2026-08-28T19:10:40Z</time>
  <course>8.53</course>
  <speed>0.6618912297349165</speed>
  <fix>3d</fix>
</trkpt>
<trkpt lat="40.0728802" lon="-105.2306696">
  <ele>1595.59</ele>
  <time>2026-08-28T19:10:40Z</time>
  <course>4.34</course>
  <speed>0.72</speed>
  <fix>3d</fix>
</trkpt>
<trkpt lat="40.072882" lon="-105.2306693">
  <ele>1595.69</ele>
  <time>2026-08-28T19:10:40Z</time>
  <course>8.56</course>
  <speed>0.56</speed>
  <fix>3d</fix>
</trkpt>
<trkpt lat="40.0728815" lon="-105.2306696">
  <ele>1595.59</ele>
  <time>2026-08-28T19:10:40Z</time>
  <course>1.67</course>
  <speed>0.66</speed>
  <fix>3d</fix>
</trkpt>
<trkpt lat="40.0728829" lon="-105.2306694">
  <ele>1595.69</ele>
  <time>2026-08-28T19:10:40Z</time>
  <course>8.61</course>
  <speed>0.4019950248448356</speed>
  <fix>3d</fix>
</trkpt>
<trkpt lat="40.0728826" lon="-105.2306696">
  <ele>1595.59</ele>
  <time>2026-08-28T19:10:40Z</time>
  <course>357.73</course>
  <speed>0.55</speed>
  <fix>3d</fix>
</trkpt>
<trkpt lat="40.0728835" lon="-105.2306695">
  <ele>1595.7</ele>
  <time>2026-08-28T19:10:40Z</time>
  <course>8.64</course>
  <speed>0.21540659228538014</speed>
  <fix>3d</fix>
</trkpt>
<trkpt lat="40.0728834" lon="-105.2306696">
  <ele>1595.59</ele>
  <time>2026-08-28T19:10:40Z</time>
  <course>350.51</course>
  <speed>0.38</speed>
  <fix>3d</fix>
</trkpt>
<trkpt lat="40.0728837" lon="-105.2306698">
  <ele>1595.7</ele>
  <time>2026-08-28T19:10:40Z</time>
  <course>8.62</course>
  <speed>0.12165525060596438</speed>
  <fix>3d</fix>
</trkpt>
<trkpt lat="40.0728839" lon="-105.2306697">
  <ele>1595.59</ele>
  <time>2026-08-28T19:10:40Z</time>
  <course>329.56</course>
  <speed>0.2</speed>
  <fix>3d</fix>
</trkpt>
<trkpt lat="40.0728837" lon="-105.2306702">
  <ele>1595.69</ele>
  <time>2026-08-28T19:10:40Z</time>
  <course>8.6</course>
  <speed>0.291547594742265</speed>
  <fix>3d</fix>
</trkpt>
<trkpt lat="40.072884" lon="-105.23067">
  <ele>1595.59</ele>
  <time>2026-08-28T19:10:40Z</time>
  <course>245.55</course>
  <speed>0.14</speed>
  <fix>3d</fix>
</trkpt>
<trkpt lat="40.0728831" lon="-105.2306705">
  <ele>1595.68</ele>
  <time>2026-08-28T19:10:40Z</time>
  <course>8.53</course>
  <speed>0.4933558553417604</speed>
  <fix>3d</fix>
</trkpt>
<trkpt lat="40.0728837" lon="-105.2306703">
  <ele>1595.58</ele>
  <time>2026-08-28T19:10:40Z</time>
  <course>206.35</course>
  <speed>0.32</speed>
  <fix>3d</fix>
</trkpt>
<trkpt lat="40.0728821" lon="-105.2306709">
  <ele>1595.67</ele>
  <time>2026-08-28T19:10:40Z</time>
  <course>8.47</course>
  <speed>0.6649060083951716</speed>
  <fix>3d</fix>
</trkpt>
<trkpt lat="40.0728831" lon="-105.2306707">
  <ele>1595.58</ele>
  <time>2026-08-28T19:10:40Z</time>
  <course>195.91</course>
  <speed>0.52</speed>
  <fix>3d</fix>
</trkpt>
<trkpt lat="40.0728809" lon="-105.2306712">
  <ele>1595.67</ele>
  <time>2026-08-28T19:10:40Z</time>
  <course>8.44</course>
  <speed>0.7877182237323191</speed>
  <fix>3d</fix>
</trkpt>
<trkpt lat="40.072882" lon="-105.230671">
  <ele>1595.58</ele>
  <time>2026-08-28T19:10:40Z</time>
  <course>190.63</course>
  <speed>0.68</speed>
  <fix>3d</fix>
</trkpt>
<trkpt lat="40.0728795" lon="-105.2306714">
  <ele>1595.67</ele>
  <time>2026-08-28T19:10:40Z</time>
  <course>8.43</course>
  <speed>0.8329465769183519</speed>
  <fix>3d</fix>
</trkpt>
<trkpt lat="40.0728807" lon="-105.2306712">
  <ele>1595.58</ele>
  <time>2026-08-28T19:10:40Z</time>
  <course>186.89</course>
  <speed>0.79</speed>
  <fix>3d</fix>
</trkpt>
<trkpt lat="40.0728781" lon="-105.2306715">
  <ele>1595.67</ele>
  <time>2026-08-28T19:10:40Z</time>
  <course>8.42</course>
  <speed>0.8102468759581859</speed>
  <fix>3d</fix>
</trkpt>
<trkpt lat="40.0728792" lon="-105.2306715">
  <ele>1595.58</ele>
  <time>2026-08-28T19:10:40Z</time>
  <course>183.61</course>
  <speed>0.82</speed>
  <fix>3d</fix>
</trkpt>
<trkpt lat="40.0728767" lon="-105.2306714">
  <ele>1595.68</ele>
  <time>2026-08-28T19:10:40Z</time>
  <course>8.46</course>
  <speed>0.7206247289678588</speed>
  <fix>3d</fix>
</trkpt>
<trkpt lat="40.0728778" lon="-105.2306715">
  <ele>1595.58</ele>
  <time>2026-08-28T19:10:40Z</time>
  <course>180.18</course>
  <speed>0.79</speed>
  <fix>3d</fix>
</trkpt>
<trkpt lat="40.0728756" lon="-105.2306714">
  <ele>1595.68</ele>
  <time>2026-08-28T19:10:40Z</time>
  <course>8.52</course>
  <speed>0.5573149917237109</speed>
  <fix>3d</fix>
</trkpt>
<trkpt lat="40.0728764" lon="-105.2306715">
  <ele>1595.58</ele>
  <time>2026-08-28T19:10:40Z</time>
  <course>175.96</course>
  <speed>0.68</speed>
  <fix>3d</fix>
</trkpt>
<trkpt lat="40.0728748" lon="-105.2306711">
  <ele>1595.69</ele>
  <time>2026-08-28T19:10:40Z</time>
  <course>8.55</course>
  <speed>0.3640054944640259</speed>
  <fix>3d</fix>
</trkpt>
<trkpt lat="40.0728753" lon="-105.2306713">
  <ele>1595.59</ele>
  <time>2026-08-28T19:10:40Z</time>
  <course>169.46</course>
  <speed>0.51</speed>
  <fix>3d</fix>
</trkpt>
<trkpt lat="40.0728744" lon="-105.2306708">
  <ele>1595.69</ele>
  <time>2026-08-28T19:10:40Z</time>
  <course>8.55</course>
  <speed>0.19235384061671343</speed>
  <fix>3d</fix>
</trkpt>
<trkpt lat="40.0728746" lon="-105.2306711">
  <ele>1595.6</ele>
  <time>2026-08-28T19:10:40Z</time>
  <course>155.18</course>
  <speed>0.3</speed>
  <fix>3d</fix>
</trkpt>
<trkpt lat="40.0728743" lon="-105.2306704">
  <ele>1595.69</ele>
  <time>2026-08-28T19:10:40Z</time>
  <course>8.54</course>
  <speed>0.23430749027719963</speed>
  <fix>3d</fix>
</trkpt>
<trkpt lat="40.0728743" lon="-105.2306708">
  <ele>1595.6</ele>
  <time>2026-08-28T19:10:40Z</time>
  <course>100.9</course>
  <speed>0.15</speed>
  <fix>3d</fix>
</trkpt>
<trkpt lat="40.0728748" lon="-105.23067">
  <ele>1595.69</ele>
  <time>2026-08-28T19:10:40Z</time>
  <course>8.51</course>
  <speed>0.4295346318982906</speed>
  <fix>3d</fix>
</trkpt>
<trkpt lat="40.0728746" lon="-105.2306705">
  <ele>1595.6</ele>
  <time>2026-08-28T19:10:40Z</time>
  <course>34.31</course>
  <speed>0.27</speed>
  <fix>3d</fix>
</trkpt>
<trkpt lat="40.0728757" lon="-105.2306697">
  <ele>1595.69</ele>
  <time>2026-08-28T19:10:40Z</time>
  <course>8.45</course>
  <speed>0.611310068623117</speed>
  <fix>3d</fix>
</trkpt>
<trkpt lat="40.0728752" lon="-105.2306701">
  <ele>1595.59</ele>
  <time>2026-08-28T19:10:40Z</time>
  <course>16.82</course>
  <speed>0.47</speed>
  <fix>3d</fix>
</trkpt>
<trkpt lat="40.0728769" lon="-105.2306694">
  <ele>1595.68</ele>
  <time>2026-08-28T19:10:40Z</time>
  <course>8.41</course>
  <speed>0.7382411530116699</speed>
  <fix>3d</fix>
</trkpt>
<trkpt lat="40.0728761" lon="-105.2306698">
  <ele>1595.59</ele>
  <time>2026-08-28T19:10:40Z</time>
  <course>9.28</course>
  <speed>0.65</speed>
  <fix>3d</fix>
</trkpt>
<trkpt lat="40.0728783" lon="-105.2306693">
  <ele>1595.68</ele>
  <time>2026-08-28T19:10:40Z</time>
  <course>8.38</course>
  <speed>0.8022468448052632</speed>
  <fix>3d</fix>
</trkpt>
<trkpt lat="40.0728773" lon="-105.2306696">
  <ele>1595.58</ele>
  <time>2026-08-28T19:10:40Z</time>
  <course>4.37</course>
  <speed>0.77</speed>
  <fix>3d</fix>
</trkpt>
<trkpt lat="40.0728797" lon="-105.2306693">
  <ele>1595.69</ele>
  <time>2026-08-28T19:10:40Z</time>
  <course>8.44</course>
  <speed>0.79</speed>
  <fix>3d</fix>
</trkpt>
<trkpt lat="40.0728788" lon="-105.2306696">
  <ele>1595.58</ele>
  <time>2026-08-28T19:10:40Z</time>
  <course>0.21</course>
  <speed>0.82</speed>
  <fix>3d</fix>
</trkpt>
<trkpt lat="40.0728811" lon="-105.2306694">
  <ele>1595.69</ele>
  <time>2026-08-28T19:10:40Z</time>
  <course>8.51</course>
  <speed>0.7025667228100119</speed>
  <fix>3d</fix>
</trkpt>
<trkpt lat="40.0728802" lon="-105.2306696">
  <ele>1595.58</ele>
  <time>2026-08-28T19:10:40Z</time>
  <course>355.92</course>
  <speed>0.8</speed>
  <fix>3d</fix>
</trkpt>
<trkpt lat="40.0728822" lon="-105.2306697">
  <ele>1595.7</ele>
  <time>2026-08-28T19:10:40Z</time>
  <course>8.57</course>
  <speed>0.5531726674375732</speed>
  <fix>3d</fix>
</trkpt>
<trkpt lat="40.0728816" lon="-105.2306698">
  <ele>1595.59</ele>
  <time>2026-08-28T19:10:40Z</time>
  <course>350.64</course>
  <speed>0.7</speed>
  <fix>3d</fix>
</trkpt>
<trkpt lat="40.0728831" lon="-105.2306701">
  <ele>1595.7</ele>
  <time>2026-08-28T19:10:40Z</time>
  <course>8.64</course>
  <speed>0.3712142238654117</speed>
  <fix>3d</fix>
</trkpt>
<trkpt lat="40.0728828" lon="-105.2306701">
  <ele>1595.59</ele>
  <time>2026-08-28T19:10:40Z</time>
  <course>342.59</course>
  <speed>0.55</speed>
  <fix>3d</fix>
</trkpt>
<trkpt lat="40.0728835" lon="-105.2306706">
  <ele>1595.7</ele>
  <time>2026-08-28T19:10:40Z</time>
  <course>8.68</course>
  <speed>0.21540659228538014</speed>
  <fix>3d</fix>
</trkpt>
<trkpt lat="40.0728835" lon="-105.2306705">
  <ele>1595.59</ele>
  <time>2026-08-28T19:10:40Z</time>
  <course>326.42</course>
  <speed>0.36</speed>
  <fix>3d</fix>
</trkpt>
<trkpt lat="40.0728836" lon="-105.2306711">
  <ele>1595.69</ele>
  <time>2026-08-28T19:10:40Z</time>
  <course>8.63</course>
  <speed>0.2720294101747089</speed>
  <fix>3d</fix>
</trkpt>
<trkpt lat="40.0728838" lon="-105.230671">
  <ele>1595.59</ele>
  <time>2026-08-28T19:10:40Z</time>
  <course>283.61</course>
  <speed>0.22</speed>
  <fix>3d</fix>
</trkpt>
<trkpt lat="40.0728832" lon="-105.2306717">
  <ele>1595.69</ele>
  <time>2026-08-28T19:10:40Z</time>
  <course>8.57</course>
  <speed>0.45177427992306074</speed>
  <fix>3d</fix>
</trkpt>
<trkpt lat="40.0728837" lon="-105.2306715">
  <ele>1595.58</ele>
  <time>2026-08-28T19:10:40Z</time>
  <course>228.13</course>
  <speed>0.3</speed>
  <fix>3d</fix>
</trkpt>
<trkpt lat="40.0728823" lon="-105.2306722">
  <ele>1595.69</ele>
  <time>2026-08-28T19:10:40Z</time>
  <course>8.5</course>
  <speed>0.6360031446463138</speed>
  <fix>3d</fix>
</trkpt>
<trkpt lat="40.0728831" lon="-105.230672">
  <ele>1595.58</ele>
  <time>2026-08-28T19:10:40Z</time>
  <course>205.48</course>
  <speed>0.48</speed>
  <fix>3d</fix>
</trkpt>
<trkpt lat="40.0728812" lon="-105.2306726">
  <ele>1595.68</ele>
  <time>2026-08-28T19:10:40Z</time>
  <course>8.45</course>
  <speed>0.762954782408499</speed>
  <fix>3d</fix>
</trkpt>
<trkpt lat="40.0728822" lon="-105.2306725">
  <ele>1595.57</ele>
  <time>2026-08-28T19:10:40Z</time>
  <course>195.44</course>
  <speed>0.65</speed>
  <fix>3d</fix>
</trkpt>
<trkpt lat="40.0728798" lon="-105.2306729">
  <ele>1595.68</ele>
  <time>2026-08-28T19:10:40Z</time>
  <course>8.45</course>
  <speed>0.8238931969618392</speed>
  <fix>3d</fix>
</trkpt>
<trkpt lat="40.0728809" lon="-105.2306728">
  <ele>1595.57</ele>
  <time>2026-08-28T19:10:40Z</time>
  <course>189.32</course>
  <speed>0.76</speed>
  <fix>3d</fix>
</trkpt>
<trkpt lat="40.0728784" lon="-105.230673">
  <ele>1595.68</ele>
  <time>2026-08-28T19:10:40Z</time>
  <course>8.45</course>
  <speed>0.8100617260431454</speed>
  <fix>3d</fix>
</trkpt>
<trkpt lat="40.0728796" lon="-105.230673">
  <ele>1595.57</ele>
  <time>2026-08-28T19:10:40Z</time>
  <course>184.58</course>
  <speed>0.81</speed>
  <fix>3d</fix>
</trkpt>
<trkpt lat="40.0728771" lon="-105.230673">
  <ele>1595.68</ele>
  <time>2026-08-28T19:10:40Z</time>
  <course>8.46</course>
  <speed>0.7211102550927978</speed>
  <fix>3d</fix>
</trkpt>
<trkpt lat="40.0728782" lon="-105.230673">
  <ele>1595.57</ele>
  <time>2026-08-28T19:10:40Z</time>
  <course>180.06</course>
  <speed>0.78</speed>
  <fix>3d</fix>
</trkpt>
<trkpt lat="40.0728759" lon="-105.2306729">
  <ele>1595.69</ele>
  <time>2026-08-28T19:10:40Z</time>
  <course>8.52</course>
  <speed>0.570701322935211</speed>
  <fix>3d</fix>
</trkpt>
<trkpt lat="40.0728768" lon="-105.230673">
  <ele>1595.57</ele>
  <time>2026-08-28T19:10:40Z</time>
  <course>174.83</course>
  <speed>0.68</speed>
  <fix>3d</fix>
</trkpt>
<trkpt lat="40.0728751" lon="-105.2306726">
  <ele>1595.69</ele>
  <time>2026-08-28T19:10:40Z</time>
  <course>8.54</course>
  <speed>0.38483762809787714</speed>
  <fix>3d</fix>
</trkpt>
<trkpt lat="40.0728757" lon="-105.2306729">
  <ele>1595.58</ele>
  <time>2026-08-28T19:10:40Z</time>
  <course>167.2</course>
  <speed>0.52</speed>
  <fix>3d</fix>
</trkpt>
<trkpt lat="40.0728747" lon="-105.2306722">
  <ele>1595.7</ele>
  <time>2026-08-28T19:10:40Z</time>
  <course>8.57</course>
  <speed>0.223606797749979</speed>
  <fix>3d</fix>
</trkpt>
<trkpt lat="40.072875" lon="-105.2306725">
  <ele>1595.58</ele>
  <time>2026-08-28T19:10:40Z</time>
  <course>151.52</course>
  <speed>0.32</speed>
  <fix>3d</fix>
</trkpt>
<trkpt lat="40.0728748" lon="-105.2306717">
  <ele>1595.7</ele>
  <time>2026-08-28T19:10:40Z</time>
  <course>8.55</course>
  <speed>0.25238858928247926</speed>
  <fix>3d</fix>
</trkpt>
<trkpt lat="40.0728747" lon="-105.2306721">
  <ele>1595.58</ele>
  <time>2026-08-28T19:10:40Z</time>
  <course>101.98</course>
  <speed>0.18</speed>
  <fix>3d</fix>
</trkpt>
<trkpt lat="40.0728751" lon="-105.2306712">
  <ele>1595.69</ele>
  <time>2026-08-28T19:10:40Z</time>
  <course>8.52</course>
  <speed>0.4341658669218482</speed>
  <fix>3d</fix>
</trkpt>
<trkpt lat="40.0728749" lon="-105.2306718">
  <ele>1595.57</ele>
  <time>2026-08-28T19:10:40Z</time>
  <course>39.9</course>
  <speed>0.28</speed>
  <fix>3d</fix>
</trkpt>
<trkpt lat="40.072876" lon="-105.2306708">
  <ele>1595.68</ele>
  <time>2026-08-28T19:10:40Z</time>
  <course>8.47</course>
  <speed>0.6168468205316454</speed>
  <fix>3d</fix>
</trkpt>
<trkpt lat="40.0728754" lon="-105.2306713">
  <ele>1595.57</ele>
  <time>2026-08-28T19:10:40Z</time>
  <course>19.92</course>
  <speed>0.48</speed>
  <fix>3d</fix>
</trkpt>
<trkpt lat="40.0728772" lon="-105.2306705">
  <ele>1595.68</ele>
  <time>2026-08-28T19:10:40Z</time>
  <course>8.4</course>
  <speed>0.7414849964766651</speed>
  <fix>3d</fix>
</trkpt>
<trkpt lat="40.0728764" lon="-105.230671">
  <ele>1595.56</ele>
  <time>2026-08-28T19:10:40Z</time>
  <course>11.18</course>
  <speed>0.65</speed>
  <fix>3d</fix>
</trkpt>
<trkpt lat="40.0728786" lon="-105.2306704">
  <ele>1595.67</ele>
  <time>2026-08-28T19:10:41Z</time>
  <course>8.38</course>
  <speed>0.8030566605165541</speed>
  <fix>3d</fix>
</trkpt>
<trkpt lat="40.0728777" lon="-105.2306707">
  <ele>1595.56</ele>
  <time>2026-08-28T19:10:41Z</time>
  <course>5.58</course>
  <speed>0.77</speed>
  <fix>3d</fix>
</trkpt>
<trkpt lat="40.0728801" lon="-105.2306704">
  <ele>1595.67</ele>
  <time>2026-08-28T19:10:41Z</time>
  <course>8.39</course>
  <speed>0.8</speed>
  <fix>3d</fix>
</trkpt>
<trkpt lat="40.0728791" lon="-105.2306706">
  <ele>1595.56</ele>
  <time>2026-08-28T19:10:41Z</time>
  <course>0.97</course>
  <speed>0.82</speed>
  <fix>3d</fix>
</trkpt>
<trkpt lat="40.0728814" lon="-105.2306705">
  <ele>1595.67</ele>
  <time>2026-08-28T19:10:41Z</time>
  <course>8.43</course>
  <speed>0.7125307010929425</speed>
  <fix>3d</fix>
</trkpt>
<trkpt lat="40.0728806" lon="-105.2306707">
  <ele>1595.56</ele>
  <time>2026-08-28T19:10:41Z</time>
  <course>356.34</course>
  <speed>0.8</speed>
  <fix>3d</fix>
</trkpt>
<trkpt lat="40.0728826" lon="-105.2306707">
  <ele>1595.67</ele>
  <time>2026-08-28T19:10:41Z</time>
  <course>8.51</course>
  <speed>0.5629387178015027</speed>
  <fix>3d</fix>
</trkpt>
<trkpt lat="40.0728819" lon="-105.2306709">
  <ele>1595.56</ele>
  <time>2026-08-28T19:10:41Z</time>
  <course>350.69</course>
  <speed>0.7</speed>
  <fix>3d</fix>
</trkpt>
<trkpt lat="40.0728834" lon="-105.2306712">
  <ele>1595.67</ele>
  <time>2026-08-28T19:10:41Z</time>
  <course>8.56</course>
  <speed>0.37589892258425</speed>
  <fix>3d</fix>
</trkpt>
<trkpt lat="40.0728831" lon="-105.2306712">
  <ele>1595.57</ele>
  <time>2026-08-28T19:10:41Z</time>
  <course>342.21</course>
  <speed>0.55</speed>
  <fix>3d</fix>
</trkpt>
<trkpt lat="40.0728839" lon="-105.2306717">
  <ele>1595.68</ele>
  <time>2026-08-28T19:10:41Z</time>
  <course>8.59</course>
  <speed>0.22847319317591727</speed>
  <fix>3d</fix>
</trkpt>
<trkpt lat="40.0728838" lon="-105.2306716">
  <ele>1595.58</ele>
  <time>2026-08-28T19:10:41Z</time>
  <course>325.44</course>
  <speed>0.36</speed>
  <fix>3d</fix>
</trkpt>
<trkpt lat="40.0728839" lon="-105.2306723">
  <ele>1595.68</ele>
  <time>2026-08-28T19:10:41Z</time>
  <course>8.57</course>
  <speed>0.280178514522438</speed>
  <fix>3d</fix>
</trkpt>
<trkpt lat="40.0728841" lon="-105.2306721">
  <ele>1595.58</ele>
  <time>2026-08-28T19:10:41Z</time>
  <course>282.54</course>
  <speed>0.23</speed>
  <fix>3d</fix>
</trkpt>
<trkpt lat="40.0728835" lon="-105.2306728">
  <ele>1595.67</ele>
  <time>2026-08-28T19:10:41Z</time>
  <course>8.51</course>
  <speed>0.45650848842053304</speed>
  <fix>3d</fix>
</trkpt>
<trkpt lat="40.072884" lon="-105.2306726">
  <ele>1595.59</ele>
  <time>2026-08-28T19:10:41Z</time>
  <course>228.8</course>
  <speed>0.31</speed>
  <fix>3d</fix>
</trkpt>
<trkpt lat="40.0728827" lon="-105.2306733">
  <ele>1595.67</ele>
  <time>2026-08-28T19:10:41Z</time>
  <course>8.49</course>
  <speed>0.6389053137985315</speed>
  <fix>3d</fix>
</trkpt>
<trkpt lat="40.0728833" lon="-105.2306732">
  <ele>1595.59</ele>
  <time>2026-08-28T19:10:41Z</time>
  <course>206.27</course>
  <speed>0.49</speed>
  <fix>3d</fix>
</trkpt>
<trkpt lat="40.0728815" lon="-105.2306738">
  <ele>1595.67</ele>
  <time>2026-08-28T19:10:41Z</time>
  <course>8.41</course>
  <speed>0.7648529270389177</speed>
  <fix>3d</fix>
</trkpt>
<trkpt lat="40.0728825" lon="-105.2306737">
  <ele>1595.59</ele>
  <time>2026-08-28T19:10:41Z</time>
  <course>196.07</course>
  <speed>0.65</speed>
  <fix>3d</fix>
</trkpt>
<trkpt lat="40.0728802" lon="-105.2306741">
  <ele>1595.68</ele>
  <time>2026-08-28T19:10:41Z</time>
  <course>8.35</course>
  <speed>0.8249242389456137</speed>
  <fix>3d</fix>
</trkpt>
<trkpt lat="40.0728813" lon="-105.230674">
  <ele>1595.59</ele>
  <time>2026-08-28T19:10:41Z</time>
  <course>189.78</course>
  <speed>0.77</speed>
  <fix>3d</fix>
</trkpt>
<trkpt lat="40.0728787" lon="-105.2306742">
  <ele>1595.68</ele>
  <time>2026-08-28T19:10:41Z</time>
  <course>8.38</course>
  <speed>0.8102468759581859</speed>
  <fix>3d</fix>
</trkpt>
<trkpt lat="40.0728798" lon="-105.2306743">
  <ele>1595.59</ele>
  <time>2026-08-28T19:10:41Z</time>
  <course>184.92</course>
  <speed>0.81</speed>
  <fix>3d</fix>
</trkpt>
<trkpt lat="40.0728774" lon="-105.2306742">
  <ele>1595.68</ele>
  <time>2026-08-28T19:10:41Z</time>
  <course>8.48</course>
  <speed>0.7211102550927978</speed>
  <fix>3d</fix>
</trkpt>
<trkpt lat="40.0728784" lon="-105.2306744">
  <ele>1595.59</ele>
  <time>2026-08-28T19:10:41Z</time>
  <course>180.35</course>
  <speed>0.79</speed>
  <fix>3d</fix>
</trkpt>
<trkpt lat="40.0728762" lon="-105.2306741">
  <ele>1595.69</ele>
  <time>2026-08-28T19:10:41Z</time>
  <course>8.54</course>
  <speed>0.5805170109479997</speed>
  <fix>3d</fix>
</trkpt>
<trkpt lat="40.0728771" lon="-105.2306743">
  <ele>1595.6</ele>
  <time>2026-08-28T19:10:41Z</time>
  <course>175.06</course>
  <speed>0.68</speed>
  <fix>3d</fix>
</trkpt>
<trkpt lat="40.0728754" lon="-105.2306738">
  <ele>1595.69</ele>
  <time>2026-08-28T19:10:41Z</time>
  <course>8.56</course>
  <speed>0.38483762809787714</speed>
  <fix>3d</fix>
</trkpt>
<trkpt lat="40.0728759" lon="-105.2306742">
  <ele>1595.6</ele>
  <time>2026-08-28T19:10:41Z</time>
  <course>167.37</course>
  <speed>0.52</speed>
  <fix>3d</fix>
</trkpt>
<trkpt lat="40.072875" lon="-105.2306734">
  <ele>1595.69</ele>
  <time>2026-08-28T19:10:41Z</time>
  <course>8.57</course>
  <speed>0.22825424421026652</speed>
  <fix>3d</fix>
</trkpt>
<trkpt lat="40.0728752" lon="-105.2306739">
  <ele>1595.61</ele>
  <time>2026-08-28T19:10:41Z</time>
  <course>151.7</course>
  <speed>0.33</speed>
  <fix>3d</fix>
</trkpt>
<trkpt lat="40.072875" lon="-105.230673">
  <ele>1595.69</ele>
  <time>2026-08-28T19:10:41Z</time>
  <course>8.56</course>
  <speed>0.25238858928247926</speed>
  <fix>3d</fix>
</trkpt>
<trkpt lat="40.0728749" lon="-105.2306735">
  <ele>1595.61</ele>
  <time>2026-08-28T19:10:41Z</time>
  <course>102.82</course>
  <speed>0.18</speed>
  <fix>3d</fix>
</trkpt>
<trkpt lat="40.0728754" lon="-105.2306725">
  <ele>1595.69</ele>
  <time>2026-08-28T19:10:41Z</time>
  <course>8.5</course>
  <speed>0.4341658669218482</speed>
  <fix>3d</fix>
</trkpt>
<trkpt lat="40.0728751" lon="-105.230673">
  <ele>1595.61</ele>
  <time>2026-08-28T19:10:41Z</time>
  <course>40.77</course>
  <speed>0.28</speed>
  <fix>3d</fix>
</trkpt>
<trkpt lat="40.0728763" lon="-105.2306721">
  <ele>1595.69</ele>
  <time>2026-08-28T19:10:41Z</time>
  <course>8.44</course>
  <speed>0.6168468205316454</speed>
  <fix>3d</fix>
</trkpt>
<trkpt lat="40.0728757" lon="-105.2306725">
  <ele>1595.6</ele>
  <time>2026-08-28T19:10:41Z</time>
  <course>20.46</course>
  <speed>0.48</speed>
  <fix>3d</fix>
</trkpt>
<trkpt lat="40.0728774" lon="-105.2306718">
  <ele>1595.69</ele>
  <time>2026-08-28T19:10:41Z</time>
  <course>8.41</course>
  <speed>0.7414849964766651</speed>
  <fix>3d</fix>
</trkpt>
<trkpt lat="40.0728766" lon="-105.2306722">
  <ele>1595.6</ele>
  <time>2026-08-28T19:10:41Z</time>
  <course>11.58</course>
  <speed>0.65</speed>
  <fix>3d</fix>
</trkpt>
<trkpt lat="40.0728788" lon="-105.2306716">
  <ele>1595.69</ele>
  <time>2026-08-28T19:10:41Z</time>
  <course>8.42</course>
  <speed>0.8030566605165541</speed>
  <fix>3d</fix>
</trkpt>
<trkpt lat="40.0728778" lon="-105.230672">
  <ele>1595.6</ele>
  <time>2026-08-28T19:10:41Z</time>
  <course>5.93</course>
  <speed>0.77</speed>
  <fix>3d</fix>
</trkpt>
<trkpt lat="40.0728803" lon="-105.2306716">
  <ele>1595.69</ele>
  <time>2026-08-28T19:10:41Z</time>
  <course>8.44</course>
  <speed>0.79</speed>
  <fix>3d</fix>
</trkpt>
<trkpt lat="40.0728793" lon="-105.2306718">
  <ele>1595.6</ele>
  <time>2026-08-28T19:10:41Z</time>
  <course>1.31</course>
  <speed>0.82</speed>
  <fix>3d</fix>
</trkpt>
<trkpt lat="40.0728816" lon="-105.2306717">
  <ele>1595.68</ele>
  <time>2026-08-28T19:10:41Z</time>
  <course>8.51</course>
  <speed>0.70178344238091</speed>
  <fix>3d</fix>
</trkpt>
<trkpt lat="40.0728808" lon="-105.2306719">
  <ele>1595.6</ele>
  <time>2026-08-28T19:10:41Z</time>
  <course>356.72</course>
  <speed>0.8</speed>
  <fix>3d</fix>
</trkpt>
<trkpt lat="40.0728828" lon="-105.2306719">
  <ele>1595.68</ele>
  <time>2026-08-28T19:10:41Z</time>
  <course>8.57</course>
  <speed>0.5531726674375732</speed>
  <fix>3d</fix>
</trkpt>
<trkpt lat="40.0728821" lon="-105.2306721">
  <ele>1595.6</ele>
  <time>2026-08-28T19:10:41Z</time>
  <course>351.18</course>
  <speed>0.7</speed>
  <fix>3d</fix>
</trkpt>
<trkpt lat="40.0728836" lon="-105.2306724">
  <ele>1595.68</ele>
  <time>2026-08-28T19:10:41Z</time>
  <course>8.6</course>
  <speed>0.3712142238654117</speed>
  <fix>3d</fix>
</trkpt>
<trkpt lat="40.0728832" lon="-105.2306724">
  <ele>1595.6</ele>
  <time>2026-08-28T19:10:41Z</time>
  <course>342.88</course>
  <speed>0.54</speed>
  <fix>3d</fix>
</trkpt>
<trkpt lat="40.072884" lon="-105.2306729">
  <ele>1595.68</ele>
  <time>2026-08-28T19:10:41Z</time>
  <course>8.61</course>
  <speed>0.22472205054244232</speed>
  <fix>3d</fix>
</trkpt>
<trkpt lat="40.072884" lon="-105.2306727">
  <ele>1595.61</ele>
  <time>2026-08-28T19:10:41Z</time>
  <course>326.34</course>
  <speed>0.36</speed>
  <fix>3d</fix>
</trkpt>
<trkpt lat="40.072884" lon="-105.2306734">
  <ele>1595.68</ele>
  <time>2026-08-28T19:10:41Z</time>
  <course>8.6</course>
  <speed>0.2720294101747089</speed>
  <fix>3d</fix>
</trkpt>
<trkpt lat="40.0728843" lon="-105.2306732">
  <ele>1595.61</ele>
  <time>2026-08-28T19:10:41Z</time>
  <course>283.14</course>
  <speed>0.23</speed>
  <fix>3d</fix>
</trkpt>
<trkpt lat="40.0728837" lon="-105.230674">
  <ele>1595.68</ele>
  <time>2026-08-28T19:10:41Z</time>
  <course>8.54</course>
  <speed>0.46529560496527367</speed>
  <fix>3d</fix>
</trkpt>
<trkpt lat="40.0728842" lon="-105.2306738">
  <ele>1595.61</ele>
  <time>2026-08-28T19:10:41Z</time>
  <course>228.36</course>
  <speed>0.3</speed>
  <fix>3d</fix>
</trkpt>
<trkpt lat="40.0728828" lon="-105.2306745">
  <ele>1595.67</ele>
  <time>2026-08-28T19:10:41Z</time>
  <course>8.49</course>
  <speed>0.6389053137985315</speed>
  <fix>3d</fix>
</trkpt>
<trkpt lat="40.0728836" lon="-105.2306743">
  <ele>1595.61</ele>
  <time>2026-08-28T19:10:41Z</time>
  <course>205.86</course>
  <speed>0.48</speed>
  <fix>3d</fix>
</trkpt>
<trkpt lat="40.0728816" lon="-105.2306749">
  <ele>1595.67</ele>
  <time>2026-08-28T19:10:41Z</time>
  <course>8.44</course>
  <speed>0.7648529270389177</speed>
  <fix>3d</fix>
</trkpt>
<trkpt lat="40.0728826" lon="-105.2306748">
  <ele>1595.61</ele>
  <time>2026-08-28T19:10:41Z</time>
  <course>195.78</course>
  <speed>0.65</speed>
  <fix>3d</fix>
</trkpt>
<trkpt lat="40.0728803" lon="-105.2306752">
  <ele>1595.68</ele>
  <time>2026-08-28T19:10:41Z</time>
  <course>8.4</course>
  <speed>0.8348652585896721</speed>
  <fix>3d</fix>
</trkpt>
<trkpt lat="40.0728814" lon="-105.2306751">
  <ele>1595.61</ele>
  <time>2026-08-28T19:10:41Z</time>
  <course>189.57</course>
  <speed>0.76</speed>
  <fix>3d</fix>
</trkpt>
<trkpt lat="40.0728788" lon="-105.2306753">
  <ele>1595.68</ele>
  <time>2026-08-28T19:10:41Z</time>
  <course>8.44</course>
  <speed>0.8202438661763951</speed>
  <fix>3d</fix>
</trkpt>
<trkpt lat="40.07288" lon="-105.2306754">
  <ele>1595.61</ele>
  <time>2026-08-28T19:10:41Z</time>
  <course>184.76</course>
  <speed>0.81</speed>
  <fix>3d</fix>
</trkpt>
<trkpt lat="40.0728775" lon="-105.2306753">
  <ele>1595.69</ele>
  <time>2026-08-28T19:10:41Z</time>
  <course>8.49</course>
  <speed>0.7310950690573697</speed>
  <fix>3d</fix>
</trkpt>
<trkpt lat="40.0728785" lon="-105.2306754">
  <ele>1595.61</ele>
  <time>2026-08-28T19:10:41Z</time>
  <course>180.2</course>
  <speed>0.78</speed>
  <fix>3d</fix>
</trkpt>
<trkpt lat="40.0728763" lon="-105.2306752">
  <ele>1595.69</ele>
  <time>2026-08-28T19:10:41Z</time>
  <course>8.55</course>
  <speed>0.5805170109479997</speed>
  <fix>3d</fix>
</trkpt>
<trkpt lat="40.0728773" lon="-105.2306754">
  <ele>1595.62</ele>
  <time>2026-08-28T19:10:41Z</time>
  <course>174.91</course>
  <speed>0.68</speed>
  <fix>3d</fix>
</trkpt>
<trkpt lat="40.0728755" lon="-105.2306749">
  <ele>1595.7</ele>
  <time>2026-08-28T19:10:41Z</time>
  <course>8.59</course>
  <speed>0.38483762809787714</speed>
  <fix>3d</fix>
</trkpt>
<trkpt lat="40.0728762" lon="-105.2306752">
  <ele>1595.62</ele>
  <time>2026-08-28T19:10:41Z</time>
  <course>167.18</course>
  <speed>0.52</speed>
  <fix>3d</fix>
</trkpt>
<trkpt lat="40.0728751" lon="-105.2306745">
  <ele>1595.7</ele>
  <time>2026-08-28T19:10:41Z</time>
  <course>8.58</course>
  <speed>0.223606797749979</speed>
  <fix>3d</fix>
</trkpt>
<trkpt lat="40.0728754" lon="-105.2306749">
  <ele>1595.63</ele>
  <time>2026-08-28T19:10:41Z</time>
  <course>151.14</course>
  <speed>0.32</speed>
  <fix>3d</fix>
</trkpt>
<trkpt lat="40.0728752" lon="-105.2306741">
  <ele>1595.69</ele>
  <time>2026-08-28T19:10:41Z</time>
  <course>8.57</course>
  <speed>0.25238858928247926</speed>
  <fix>3d</fix>
</trkpt>
<trkpt lat="40.0728752" lon="-105.2306745">
  <ele>1595.62</ele>
  <time>2026-08-28T19:10:41Z</time>
  <course>100.49</course>
  <speed>0.18</speed>
  <fix>3d</fix>
</trkpt>
<trkpt lat="40.0728756" lon="-105.2306736">
  <ele>1595.69</ele>
  <time>2026-08-28T19:10:41Z</time>
  <course>8.54</course>
  <speed>0.442944691807002</speed>
  <fix>3d</fix>
</trkpt>
<trkpt lat="40.0728754" lon="-105.2306741">
  <ele>1595.62</ele>
  <time>2026-08-28T19:10:41Z</time>
  <course>39.57</course>
  <speed>0.28</speed>
  <fix>3d</fix>
</trkpt>
<trkpt lat="40.0728765" lon="-105.2306732">
  <ele>1595.68</ele>
  <time>2026-08-28T19:10:41Z</time>
  <course>8.46</course>
  <speed>0.6168468205316454</speed>
  <fix>3d</fix>
</trkpt>
<trkpt lat="40.0728759" lon="-105.2306737">
  <ele>1595.62</ele>
  <time>2026-08-28T19:10:41Z</time>
  <course>19.97</course>
  <speed>0.48</speed>
  <fix>3d</fix>
</trkpt>
<trkpt lat="40.0728777" lon="-105.2306729">
  <ele>1595.68</ele>
  <time>2026-08-28T19:10:41Z</time>
  <course>8.42</course>
  <speed>0.7513321502504735</speed>
  <fix>3d</fix>
</trkpt>
<trkpt lat="40.0728769" lon="-105.2306733">
  <ele>1595.61</ele>
  <time>2026-08-28T19:10:41Z</time>
  <course>11.31</course>
  <speed>0.66</speed>
  <fix>3d</fix>
</trkpt>
<trkpt lat="40.0728791" lon="-105.2306727">
  <ele>1595.68</ele>
  <time>2026-08-28T19:10:41Z</time>
  <course>8.4</course>
  <speed>0.8130190649671138</speed>
  <fix>3d</fix>
</trkpt>
<trkpt lat="40.0728782" lon="-105.230673">
  <ele>1595.61</ele>
  <time>2026-08-28T19:10:41Z</time>
  <course>5.72</course>
  <speed>0.78</speed>
  <fix>3d</fix>
</trkpt>
<trkpt lat="40.0728805" lon="-105.2306727">
  <ele>1595.68</ele>
  <time>2026-08-28T19:10:41Z</time>
  <course>8.4</course>
  <speed>0.8</speed>
  <fix>3d</fix>
</trkpt>
<trkpt lat="40.0728796" lon="-105.230673">
  <ele>1595.61</ele>
  <time>2026-08-28T19:10:41Z</time>
  <course>1.16</course>
  <speed>0.83</speed>
  <fix>3d</fix>
</trkpt>
<trkpt lat="40.0728819" lon="-105.2306728">
  <ele>1595.68</ele>
  <time>2026-08-28T19:10:41Z</time>
  <course>8.46</course>
  <speed>0.7125307010929425</speed>
  <fix>3d</fix>
</trkpt>
<trkpt lat="40.0728811" lon="-105.230673">
  <ele>1595.61</ele>
  <time>2026-08-28T19:10:41Z</time>
  <course>356.59</course>
  <speed>0.81</speed>
  <fix>3d</fix>
</trkpt>
<trkpt lat="40.0728831" lon="-105.230673">
  <ele>1595.69</ele>
  <time>2026-08-28T19:10:41Z</time>
  <course>8.56</course>
  <speed>0.5629387178015027</speed>
  <fix>3d</fix>
</trkpt>
<trkpt lat="40.0728825" lon="-105.2306732">
  <ele>1595.62</ele>
  <time>2026-08-28T19:10:41Z</time>
  <course>351.07</course>
  <speed>0.71</speed>
  <fix>3d</fix>
</trkpt>
<trkpt lat="40.0728839" lon="-105.2306735">
  <ele>1595.69</ele>
  <time>2026-08-28T19:10:41Z</time>
  <course>8.61</course>
  <speed>0.38013155617496425</speed>
  <fix>3d</fix>
</trkpt>
<trkpt lat="40.0728836" lon="-105.2306735">
  <ele>1595.62</ele>
  <time>2026-08-28T19:10:41Z</time>
  <course>342.86</course>
  <speed>0.55</speed>
  <fix>3d</fix>
</trkpt>
<trkpt lat="40.0728844" lon="-105.230674">
  <ele>1595.68</ele>
  <time>2026-08-28T19:10:41Z</time>
  <course>8.61</course>
  <speed>0.22847319317591727</speed>
  <fix>3d</fix>
</trkpt>
<trkpt lat="40.0728843" lon="-105.2306739">
  <ele>1595.63</ele>
  <time>2026-08-28T19:10:41Z</time>
  <course>326.63</course>
  <speed>0.37</speed>
  <fix>3d</fix>
</trkpt>
<trkpt lat="40.0728844" lon="-105.2306746">
  <ele>1595.68</ele>
  <time>2026-08-28T19:10:41Z</time>
  <course>8.59</course>
  <speed>0.2720294101747089</speed>
  <fix>3d</fix>
</trkpt>
<trkpt lat="40.0728847" lon="-105.2306744">
  <ele>1595.63</ele>
  <time>2026-08-28T19:10:41Z</time>
  <course>284.27</course>
  <speed>0.23</speed>
  <fix>3d</fix>
</trkpt>
<trkpt lat="40.072884" lon="-105.2306751">
  <ele>1595.68</ele>
  <time>2026-08-28T19:10:41Z</time>
  <course>8.53</course>
  <speed>0.45650848842053304</speed>
  <fix>3d</fix>
</trkpt>
<trkpt lat="40.0728845" lon="-105.2306749">
  <ele>1595.63</ele>
  <time>2026-08-28T19:10:41Z</time>
  <course>229.1</course>
  <speed>0.3</speed>
  <fix>3d</fix>
</trkpt>
<trkpt lat="40.0728832" lon="-105.2306756">
  <ele>1595.68</ele>
  <time>2026-08-28T19:10:41Z</time>
  <course>8.51</course>
  <speed>0.6389053137985315</speed>
  <fix>3d</fix>
</trkpt>
<trkpt lat="40.072884" lon="-105.2306754">
  <ele>1595.63</ele>
  <time>2026-08-28T19:10:41Z</time>
  <course>206.09</course>
  <speed>0.48</speed>
  <fix>3d</fix>
</trkpt>
<trkpt lat="40.072882" lon="-105.230676">
  <ele>1595.68</ele>
  <time>2026-08-28T19:10:41Z</time>
  <course>8.46</course>
  <speed>0.7648529270389177</speed>
  <fix>3d</fix>
</trkpt>
<trkpt lat="40.0728831" lon="-105.2306759">
  <ele>1595.63</ele>
  <time>2026-08-28T19:10:41Z</time>
  <course>195.82</course>
  <speed>0.65</speed>
  <fix>3d</fix>
</trkpt>
<trkpt lat="40.0728807" lon="-105.2306763">
  <ele>1595.68</ele>
  <time>2026-08-28T19:10:41Z</time>
  <course>8.44</course>
  <speed>0.8249242389456137</speed>
  <fix>3d</fix>
</trkpt>
<trkpt lat="40.0728819" lon="-105.2306762">
  <ele>1595.63</ele>
  <time>2026-08-28T19:10:41Z</time>
  <course>189.53</course>
  <speed>0.76</speed>
  <fix>3d</fix>
</trkpt>
<trkpt lat="40.0728793" lon="-105.2306765">
  <ele>1595.68</ele>
  <time>2026-08-28T19:10:41Z</time>
  <course>8.46</course>
  <speed>0.8102468759581859</speed>
  <fix>3d</fix>
</trkpt>
<trkpt lat="40.0728804" lon="-105.2306764">
  <ele>1595.63</ele>
  <time>2026-08-28T19:10:41Z</time>
  <course>184.66</course>
  <speed>0.81</speed>
  <fix>3d</fix>
</trkpt>
<trkpt lat="40.0728779" lon="-105.2306764">
  <ele>1595.69</ele>
  <time>2026-08-28T19:10:41Z</time>
  <course>8.5</course>
  <speed>0.7211102550927978</speed>
  <fix>3d</fix>
</trkpt>
<trkpt lat="40.072879" lon="-105.2306766">
  <ele>1595.63</ele>
  <time>2026-08-28T19:10:41Z</time>
  <course>180.06</course>
  <speed>0.78</speed>
  <fix>3d</fix>
</trkpt>
<trkpt lat="40.0728768" lon="-105.2306763">
  <ele>1595.7</ele>
  <time>2026-08-28T19:10:41Z</time>
  <course>8.56</course>
  <speed>0.570701322935211</speed>
  <fix>3d</fix>
</trkpt>
<trkpt lat="40.0728777" lon="-105.2306765">
  <ele>1595.63</ele>
  <time>2026-08-28T19:10:41Z</time>
  <course>174.76</course>
  <speed>0.68</speed>
  <fix>3d</fix>
</trkpt>
<trkpt lat="40.072876" lon="-105.230676">
  <ele>1595.7</ele>
  <time>2026-08-28T19:10:41Z</time>
  <course>8.6</course>
  <speed>0.38483762809787714</speed>
  <fix>3d</fix>
</trkpt>
<trkpt lat="40.0728766" lon="-105.2306763">
  <ele>1595.64</ele>
  <time>2026-08-28T19:10:41Z</time>
  <course>167.02</course>
  <speed>0.52</speed>
  <fix>3d</fix>
</trkpt>
<trkpt lat="40.0728756" lon="-105.2306756">
  <ele>1595.7</ele>
  <time>2026-08-28T19:10:41Z</time>
  <course>8.61</course>
  <speed>0.223606797749979</speed>
  <fix>3d</fix>
</trkpt>
<trkpt lat="40.0728759" lon="-105.2306761">
  <ele>1595.64</ele>
  <time>2026-08-28T19:10:41Z</time>
  <course>151.04</course>
  <speed>0.32</speed>
  <fix>3d</fix>
</trkpt>
<trkpt lat="40.0728756" lon="-105.2306752">
  <ele>1595.7</ele>
  <time>2026-08-28T19:10:41Z</time>
  <course>8.54</course>
  <speed>0.24698178070456936</speed>
  <fix>3d</fix>
</trkpt>
<trkpt lat="40.0728756" lon="-105.2306756">
  <ele>1595.64</ele>
  <time>2026-08-28T19:10:41Z</time>
  <course>101.58</course>
  <speed>0.18</speed>
  <fix>3d</fix>
</trkpt>
<trkpt lat="40.0728759" lon="-105.2306747">
  <ele>1595.69</ele>
  <time>2026-08-28T19:10:41Z</time>
  <course>8.46</course>
  <speed>0.3301514803843835</speed>
  <fix>3d</fix>
</trkpt>
<trkpt lat="40.0728758" lon="-105.2306752">
  <ele>1595.63</ele>
  <time>2026-08-28T19:10:41Z</time>
  <course>45.91</course>
  <speed>0.25</speed>
  <fix>3d</fix>
</trkpt>
<trkpt lat="40.0728764" lon="-105.2306744">
  <ele>1595.69</ele>
  <time>2026-08-28T19:10:41Z</time>
  <course>8.51</course>
  <speed>0.3453983207834109</speed>
  <fix>3d</fix>
</trkpt>
<trkpt lat="40.0728762" lon="-105.2306748">
  <ele>1595.63</ele>
  <time>2026-08-28T19:10:41Z</time>
  <course>26.07</course>
  <speed>0.33</speed>
  <fix>3d</fix>
</trkpt>
<trkpt lat="40.072877" lon="-105.2306742">
  <ele>1595.69</ele>
  <time>2026-08-28T19:10:41Z</time>
  <course>8.55</course>
  <speed>0.33955853692699295</speed>
  <fix>3d</fix>
</trkpt>
<trkpt lat="40.0728767" lon="-105.2306745">
  <ele>1595.63</ele>
  <time>2026-08-28T19:10:41Z</time>
  <course>14.79</course>
  <speed>0.35</speed>
  <fix>3d</fix>
</trkpt>
<trkpt lat="40.0728776" lon="-105.2306741">
  <ele>1595.69</ele>
  <time>2026-08-28T19:10:41Z</time>
  <course>8.59</course>
  <speed>0.32249030993194194</speed>
  <fix>3d</fix>
</trkpt>
<trkpt lat="40.0728773" lon="-105.2306744">
  <ele>1595.63</ele>
  <time>2026-08-28T19:10:41Z</time>
  <course>7.4</course>
  <speed>0.35</speed>
  <fix>3d</fix>
</trkpt>
<trkpt lat="40.0728782" lon="-105.2306741">
  <ele>1595.69</ele>
  <time>2026-08-28T19:10:41Z</time>
  <course>8.61</course>
  <speed>0.30066592756745814</speed>
  <fix>3d</fix>
</trkpt>
<trkpt lat="40.072878" lon="-105.2306743">
  <ele>1595.63</ele>
  <time>2026-08-28T19:10:41Z</time>
  <course>2.31</course>
  <speed>0.33</speed>
  <fix>3d</fix>
</trkpt>
<trkpt lat="40.0728788" lon="-105.2306741">
  <ele>1595.69</ele>
  <time>2026-08-28T19:10:41Z</time>
  <course>8.61</course>
  <speed>0.27018512172212594</speed>
  <fix>3d</fix>
</trkpt>
<trkpt lat="40.0728785" lon="-105.2306743">
  <ele>1595.63</ele>
  <time>2026-08-28T19:10:41Z</time>
  <course>359.02</course>
  <speed>0.31</speed>
  <fix>3d</fix>
</trkpt>
<trkpt lat="40.0728793" lon="-105.2306741">
  <ele>1595.69</ele>
  <time>2026-08-28T19:10:41Z</time>
  <course>8.63</course>
  <speed>0.25</speed>
  <fix>3d</fix>
</trkpt>
<trkpt lat="40.0728791" lon="-105.2306744">
  <ele>1595.63</ele>
  <time>2026-08-28T19:10:41Z</time>
  <course>357.1</course>
  <speed>0.29</speed>
  <fix>3d</fix>
</trkpt>
<trkpt lat="40.0728798" lon="-105.2306741">
  <ele>1595.7</ele>
  <time>2026-08-28T19:10:41Z</time>
  <course>8.61</course>
  <speed>0.24</speed>
  <fix>3d</fix>
</trkpt>
<trkpt lat="40.0728796" lon="-105.2306744">
  <ele>1595.62</ele>
  <time>2026-08-28T19:10:41Z</time>
  <course>356.17</course>
  <speed>0.27</speed>
  <fix>3d</fix>
</trkpt>
<trkpt lat="40.0728802" lon="-105.2306742">
  <ele>1595.69</ele>
  <time>2026-08-28T19:10:41Z</time>
  <course>8.63</course>
  <speed>0.22</speed>
  <fix>3d</fix>
</trkpt>
<trkpt lat="40.0728801" lon="-105.2306744">
  <ele>1595.62</ele>
  <time>2026-08-28T19:10:41Z</time>
  <course>355.86</course>
  <speed>0.25</speed>
  <fix>3d</fix>
</trkpt>
<trkpt lat="40.0728806" lon="-105.2306742">
  <ele>1595.69</ele>
  <time>2026-08-28T19:10:41Z</time>
  <course>8.62</course>
  <speed>0.21</speed>
  <fix>3d</fix>
</trkpt>
<trkpt lat="40.0728805" lon="-105.2306744">
  <ele>1595.62</ele>
  <time>2026-08-28T19:10:41Z</time>
  <course>355.88</course>
  <speed>0.24</speed>
  <fix>3d</fix>
</trkpt>
<trkpt lat="40.072881" lon="-105.2306742">
  <ele>1595.69</ele>
  <time>2026-08-28T19:10:41Z</time>
  <course>8.59</course>
  <speed>0.19</speed>
  <fix>3d</fix>
</trkpt>
<trkpt lat="40.0728809" lon="-105.2306744">
  <ele>1595.62</ele>
  <time>2026-08-28T19:10:41Z</time>
  <course>356.1</course>
  <speed>0.22</speed>
  <fix>3d</fix>
</trkpt>
<trkpt lat="40.0728814" lon="-105.2306743">
  <ele>1595.69</ele>
  <time>2026-08-28T19:10:41Z</time>
  <course>8.61</course>
  <speed>0.18</speed>
  <fix>3d</fix>
</trkpt>
<trkpt lat="40.0728814" lon="-105.2306744">
  <ele>1595.62</ele>
  <time>2026-08-28T19:10:41Z</time>
  <course>356.28</course>
  <speed>0.21</speed>
  <fix>3d</fix>
</trkpt>
<trkpt lat="40.0728818" lon="-105.2306743">
  <ele>1595.69</ele>
  <time>2026-08-28T19:10:41Z</time>
  <course>8.6</course>
  <speed>0.17</speed>
  <fix>3d</fix>
</trkpt>
<trkpt lat="40.0728817" lon="-105.2306744">
  <ele>1595.61</ele>
  <time>2026-08-28T19:10:41Z</time>
  <course>356.47</course>
  <speed>0.2</speed>
  <fix>3d</fix>
</trkpt>
<trkpt lat="40.0728821" lon="-105.2306743">
  <ele>1595.68</ele>
  <time>2026-08-28T19:10:41Z</time>
  <course>8.58</course>
  <speed>0.16</speed>
  <fix>3d</fix>
</trkpt>
<trkpt lat="40.0728821" lon="-105.2306744">
  <ele>1595.61</ele>
  <time>2026-08-28T19:10:41Z</time>
  <course>356.67</course>
  <speed>0.19</speed>
  <fix>3d</fix>
</trkpt>
<trkpt lat="40.0728824" lon="-105.2306743">
  <ele>1595.68</ele>
  <time>2026-08-28T19:10:41Z</time>
  <course>8.58</course>
  <speed>0.16</speed>
  <fix>3d</fix>
</trkpt>
<trkpt lat="40.0728824" lon="-105.2306745">
  <ele>1595.61</ele>
  <time>2026-08-28T19:10:41Z</time>
  <course>356.77</course>
  <speed>0.18</speed>
  <fix>3d</fix>
</trkpt>
<trkpt lat="40.0728828" lon="-105.2306744">
  <ele>1595.68</ele>
  <time>2026-08-28T19:10:41Z</time>
  <course>8.57</course>
  <speed>0.15</speed>
  <fix>3d</fix>
</trkpt>
<trkpt lat="40.0728827" lon="-105.2306746">
  <ele>1595.61</ele>
  <time>2026-08-28T19:10:41Z</time>
  <course>356.82</course>
  <speed>0.17</speed>
  <fix>3d</fix>
</trkpt>
<trkpt lat="40.0728831" lon="-105.2306744">
  <ele>1595.69</ele>
  <time>2026-08-28T19:10:41Z</time>
  <course>8.59</course>
  <speed>0.14</speed>
  <fix>3d</fix>
</trkpt>
<trkpt lat="40.072883" lon="-105.2306746">
  <ele>1595.61</ele>
  <time>2026-08-28T19:10:41Z</time>
  <course>356.8</course>
  <speed>0.16</speed>
  <fix>3d</fix>
</trkpt>
<trkpt lat="40.0728834" lon="-105.2306744">
  <ele>1595.7</ele>
  <time>2026-08-28T19:10:41Z</time>
  <course>8.59</course>
  <speed>0.15</speed>
  <fix>3d</fix>
</trkpt>
<trkpt lat="40.0728833" lon="-105.2306746">
  <ele>1595.61</ele>
  <time>2026-08-28T19:10:41Z</time>
  <course>357.33</course>
  <speed>0.16</speed>
  <fix>3d</fix>
</trkpt>
<trkpt lat="40.0728837" lon="-105.2306744">
  <ele>1595.7</ele>
  <time>2026-08-28T19:10:41Z</time>
  <course>8.6</course>
  <speed>0.2009975124224178</speed>
  <fix>3d</fix>
</trkpt>
<trkpt lat="40.0728836" lon="-105.2306746">
  <ele>1595.61</ele>
  <time>2026-08-28T19:10:41Z</time>
  <course>0.29</course>
  <speed>0.18</speed>
  <fix>3d</fix>
</trkpt>
<trkpt lat="40.0728842" lon="-105.2306743">
  <ele>1595.69</ele>
  <time>2026-08-28T19:10:41Z</time>
  <course>8.59</course>
  <speed>0.28442925306655786</speed>
  <fix>3d</fix>
</trkpt>
<trkpt lat="40.072884" lon="-105.2306746">
  <ele>1595.61</ele>
  <time>2026-08-28T19:10:41Z</time>
  <course>4.81</course>
  <speed>0.23</speed>
  <fix>3d</fix>
</trkpt>
<trkpt lat="40.0728848" lon="-105.2306743">
  <ele>1595.69</ele>
  <time>2026-08-28T19:10:41Z</time>
  <course>8.57</course>
  <speed>0.388329756778952</speed>
  <fix>3d</fix>
</trkpt>
<trkpt lat="40.0728845" lon="-105.2306746">
  <ele>1595.6</ele>
  <time>2026-08-28T19:10:41Z</time>
  <course>8.1</course>
  <speed>0.32</speed>
  <fix>3d</fix>
</trkpt>
<trkpt lat="40.0728856" lon="-105.2306741">
  <ele>1595.69</ele>
  <time>2026-08-28T19:10:41Z</time>
  <course>8.55</course>
  <speed>0.5099019513592785</speed>
  <fix>3d</fix>
</trkpt>
<trkpt lat="40.0728852" lon="-105.2306744">
  <ele>1595.6</ele>
  <time>2026-08-28T19:10:41Z</time>
  <course>9.52</course>
  <speed>0.43</speed>
  <fix>3d</fix>
</trkpt>
<trkpt lat="40.0728866" lon="-105.2306739">
  <ele>1595.68</ele>
  <time>2026-08-28T19:10:41Z</time>
  <course>8.51</course>
  <speed>0.6118823416311342</speed>
  <fix>3d</fix>
</trkpt>
<trkpt lat="40.0728861" lon="-105.2306743">
  <ele>1595.6</ele>
  <time>2026-08-28T19:10:41Z</time>
  <course>9.61</course>
  <speed>0.54</speed>
  <fix>3d</fix>
</trkpt>
<trkpt lat="40.0728878" lon="-105.2306737">
  <ele>1595.68</ele>
  <time>2026-08-28T19:10:41Z</time>
  <course>8.52</course>
  <speed>0.6789698078707183</speed>
  <fix>3d</fix>
</trkpt>
<trkpt lat="40.0728871" lon="-105.230674">
  <ele>1595.6</ele>
  <time>2026-08-28T19:10:41Z</time>
  <course>8.85</course>
  <speed>0.64</speed>
  <fix>3d</fix>
</trkpt>
<trkpt lat="40.072889" lon="-105.2306735">
  <ele>1595.67</ele>
  <time>2026-08-28T19:10:41Z</time>
  <course>8.5</course>
  <speed>0.7057619995437555</speed>
  <fix>3d</fix>
</trkpt>
<trkpt lat="40.0728883" lon="-105.2306738">
  <ele>1595.59</ele>
  <time>2026-08-28T19:10:41Z</time>
  <course>7.52</course>
  <speed>0.7</speed>
  <fix>3d</fix>
</trkpt>
<trkpt lat="40.0728903" lon="-105.2306733">
  <ele>1595.67</ele>
  <time>2026-08-28T19:10:41Z</time>
  <course>8.52</course>
  <speed>0.6726812023536856</speed>
  <fix>3d</fix>
</trkpt>
<trkpt lat="40.0728896" lon="-105.2306736">
  <ele>1595.59</ele>
  <time>2026-08-28T19:10:41Z</time>
  <course>5.7</course>
  <speed>0.71</speed>
  <fix>3d</fix>
</trkpt>
<trkpt lat="40.0728914" lon="-105.2306733">
  <ele>1595.66</ele>
  <time>2026-08-28T19:10:41Z</time>
  <course>8.52</course>
  <speed>0.5903388857258176</speed>
  <fix>3d</fix>
</trkpt>
<trkpt lat="40.0728909" lon="-105.2306735">
  <ele>1595.6</ele>
  <time>2026-08-28T19:10:41Z</time>
  <course>3.27</course>
  <speed>0.67</speed>
  <fix>3d</fix>
</trkpt>
<trkpt lat="40.0728924" lon="-105.2306733">
  <ele>1595.67</ele>
  <time>2026-08-28T19:10:41Z</time>
  <course>8.54</course>
  <speed>0.44045431091090476</speed>
  <fix>3d</fix>
</trkpt>
<trkpt lat="40.072892" lon="-105.2306735">
  <ele>1595.6</ele>
  <time>2026-08-28T19:10:41Z</time>
  <course>359.77</course>
  <speed>0.57</speed>
  <fix>3d</fix>
</trkpt>
<trkpt lat="40.0728931" lon="-105.2306735">
  <ele>1595.67</ele>
  <time>2026-08-28T19:10:41Z</time>
  <course>8.55</course>
  <speed>0.2596150997149434</speed>
  <fix>3d</fix>
</trkpt>
<trkpt lat="40.0728929" lon="-105.2306735">
  <ele>1595.6</ele>
  <time>2026-08-28T19:10:41Z</time>
  <course>353.75</course>
  <speed>0.41</speed>
  <fix>3d</fix>
</trkpt>
<trkpt lat="40.0728934" lon="-105.2306736">
  <ele>1595.68</ele>
  <time>2026-08-28T19:10:41Z</time>
  <course>8.55</course>
  <speed>0.11401754250991379</speed>
  <fix>3d</fix>
</trkpt>
<trkpt lat="40.0728935" lon="-105.2306735">
  <ele>1595.61</ele>
  <time>2026-08-28T19:10:41Z</time>
  <course>338.37</course>
  <speed>0.23</speed>
  <fix>3d</fix>
</trkpt>
<trkpt lat="40.0728934" lon="-105.230674">
  <ele>1595.68</ele>
  <time>2026-08-28T19:10:41Z</time>
  <course>8.56</course>
  <speed>0.24413111231467405</speed>
  <fix>3d</fix>
</trkpt>
<trkpt lat="40.0728937" lon="-105.2306738">
  <ele>1595.62</ele>
  <time>2026-08-28T19:10:41Z</time>
  <course>263.93</course>
  <speed>0.11</speed>
  <fix>3d</fix>
</trkpt>
<trkpt lat="40.0728929" lon="-105.2306743">
  <ele>1595.69</ele>
  <time>2026-08-28T19:10:41Z</time>
  <course>8.52</course>
  <speed>0.44944410108488464</speed>
  <fix>3d</fix>
</trkpt>
<trkpt lat="40.0728934" lon="-105.2306741">
  <ele>1595.62</ele>
  <time>2026-08-28T19:10:41Z</time>
  <course>208.86</course>
  <speed>0.28</speed>
  <fix>3d</fix>
</trkpt>
<trkpt lat="40.072892" lon="-105.2306747">
  <ele>1595.69</ele>
  <time>2026-08-28T19:10:41Z</time>
  <course>8.48</course>
  <speed>0.6281719509815764</speed>
  <fix>3d</fix>
</trkpt>
<trkpt lat="40.0728928" lon="-105.2306744">
  <ele>1595.62</ele>
  <time>2026-08-28T19:10:41Z</time>
  <course>196.69</course>
  <speed>0.48</speed>
  <fix>3d</fix>
</trkpt>
<trkpt lat="40.0728908" lon="-105.230675">
  <ele>1595.69</ele>
  <time>2026-08-28T19:10:41Z</time>
  <course>8.46</course>
  <speed>0.7611832893594026</speed>
  <fix>3d</fix>
</trkpt>
<trkpt lat="40.0728918" lon="-105.2306747">
  <ele>1595.62</ele>
  <time>2026-08-28T19:10:41Z</time>
  <course>191.08</course>
  <speed>0.66</speed>
  <fix>3d</fix>
</trkpt>
<trkpt lat="40.0728895" lon="-105.2306752">
  <ele>1595.7</ele>
  <time>2026-08-28T19:10:41Z</time>
  <course>8.45</course>
  <speed>0.8249242389456137</speed>
  <fix>3d</fix>
</trkpt>
<trkpt lat="40.0728905" lon="-105.230675">
  <ele>1595.62</ele>
  <time>2026-08-28T19:10:41Z</time>
  <course>187.23</course>
  <speed>0.78</speed>
  <fix>3d</fix>
</trkpt>
<trkpt lat="40.072888" lon="-105.2306753">
  <ele>1595.7</ele>
  <time>2026-08-28T19:10:41Z</time>
  <course>8.47</course>
  <speed>0.8205485969764374</speed>
  <fix>3d</fix>
</trkpt>
<trkpt lat="40.0728891" lon="-105.2306752">
  <ele>1595.62</ele>
  <time>2026-08-28T19:10:41Z</time>
  <course>183.93</course>
  <speed>0.83</speed>
  <fix>3d</fix>
</trkpt>
<trkpt lat="40.0728866" lon="-105.2306753">
  <ele>1595.7</ele>
  <time>2026-08-28T19:10:41Z</time>
  <course>8.51</course>
  <speed>0.750066663703967</speed>
  <fix>3d</fix>
</trkpt>
<trkpt lat="40.0728876" lon="-105.2306753">
  <ele>1595.62</ele>
  <time>2026-08-28T19:10:41Z</time>
  <course>180.57</course>
  <speed>0.81</speed>
  <fix>3d</fix>
</trkpt>
<trkpt lat="40.0728854" lon="-105.2306752">
  <ele>1595.69</ele>
  <time>2026-08-28T19:10:41Z</time>
  <course>8.55</course>
  <speed>0.6040695324215583</speed>
  <fix>3d</fix>
</trkpt>
<trkpt lat="40.0728862" lon="-105.2306753">
  <ele>1595.62</ele>
  <time>2026-08-28T19:10:41Z</time>
  <course>176.52</course>
  <speed>0.72</speed>
  <fix>3d</fix>
</trkpt>
<trkpt lat="40.0728845" lon="-105.230675">
  <ele>1595.69</ele>
  <time>2026-08-28T19:10:41Z</time>
  <course>8.58</course>
  <speed>0.417612260356422</speed>
  <fix>3d</fix>
</trkpt>
<trkpt lat="40.072885" lon="-105.2306752">
  <ele>1595.62</ele>
  <time>2026-08-28T19:10:41Z</time>
  <course>170.63</course>
  <speed>0.57</speed>
  <fix>3d</fix>
</trkpt>
<trkpt lat="40.072884" lon="-105.2306747">
  <ele>1595.69</ele>
  <time>2026-08-28T19:10:41Z</time>
  <course>8.57</course>
  <speed>0.2193171219946131</speed>
  <fix>3d</fix>
</trkpt>
<trkpt lat="40.0728842" lon="-105.2306749">
  <ele>1595.61</ele>
  <time>2026-08-28T19:10:41Z</time>
  <course>159.3</course>
  <speed>0.37</speed>
  <fix>3d</fix>
</trkpt>
<trkpt lat="40.0728838" lon="-105.2306742">
  <ele>1595.69</ele>
  <time>2026-08-28T19:10:41Z</time>
  <course>8.55</course>
  <speed>0.20124611797498107</speed>
  <fix>3d</fix>
</trkpt>
<trkpt lat="40.0728838" lon="-105.2306745">
  <ele>1595.61</ele>
  <time>2026-08-28T19:10:41Z</time>
  <course>123.96</course>
  <speed>0.19</speed>
  <fix>3d</fix>
</trkpt>
<trkpt lat="40.0728841" lon="-105.2306738">
  <ele>1595.69</ele>
  <time>2026-08-28T19:10:41Z</time>
  <course>8.51</course>
  <speed>0.38948684188300897</speed>
  <fix>3d</fix>
</trkpt>
<trkpt lat="40.0728838" lon="-105.2306742">
  <ele>1595.61</ele>
  <time>2026-08-28T19:10:41Z</time>
  <course>49.0</course>
  <speed>0.22</speed>
  <fix>3d</fix>
</trkpt>
<trkpt lat="40.0728849" lon="-105.2306734">
  <ele>1595.69</ele>
  <time>2026-08-28T19:10:41Z</time>
  <course>8.45</course>
  <speed>0.5756735185849702</speed>
  <fix>3d</fix>
</trkpt>
<trkpt lat="40.0728843" lon="-105.2306737">
  <ele>1595.61</ele>
  <time>2026-08-28T19:10:41Z</time>
  <course>22.48</course>
  <speed>0.41</speed>
  <fix>3d</fix>
</trkpt>
<trkpt lat="40.072886" lon="-105.2306731">
  <ele>1595.68</ele>
  <time>2026-08-28T19:10:41Z</time>
  <course>8.41</course>
  <speed>0.7119691004531025</speed>
  <fix>3d</fix>
</trkpt>
<trkpt lat="40.0728851" lon="-105.2306734">
  <ele>1595.6</ele>
  <time>2026-08-28T19:10:41Z</time>
  <course>12.72</course>
  <speed>0.6</speed>
  <fix>3d</fix>
</trkpt>
<trkpt lat="40.0728873" lon="-105.2306729">
  <ele>1595.69</ele>
  <time>2026-08-28T19:10:41Z</time>
  <course>8.41</course>
  <speed>0.7940403012442127</speed>
  <fix>3d</fix>
</trkpt>
<trkpt lat="40.0728863" lon="-105.2306731">
  <ele>1595.6</ele>
  <time>2026-08-28T19:10:41Z</time>
  <course>7.02</course>
  <speed>0.73</speed>
  <fix>3d</fix>
</trkpt>
<trkpt lat="40.0728887" lon="-105.2306728">
  <ele>1595.69</ele>
  <time>2026-08-28T19:10:41Z</time>
  <course>8.43</course>
  <speed>0.8002499609497022</speed>
  <fix>3d</fix>
</trkpt>
<trkpt lat="40.0728877" lon="-105.230673">
  <ele>1595.6</ele>
  <time>2026-08-28T19:10:41Z</time>
  <course>2.58</course>
  <speed>0.8</speed>
  <fix>3d</fix>
</trkpt>
<trkpt lat="40.0728901" lon="-105.2306729">
  <ele>1595.7</ele>
  <time>2026-08-28T19:10:41Z</time>
  <course>8.51</course>
  <speed>0.7310950690573697</speed>
  <fix>3d</fix>
</trkpt>
<trkpt lat="40.0728892" lon="-105.230673">
  <ele>1595.6</ele>
  <time>2026-08-28T19:10:41Z</time>
  <course>358.31</course>
  <speed>0.79</speed>
  <fix>3d</fix>
</trkpt>
<trkpt lat="40.0728913" lon="-105.230673">
  <ele>1595.7</ele>
  <time>2026-08-28T19:10:41Z</time>
  <course>8.56</course>
  <speed>0.5984145720150873</speed>
  <fix>3d</fix>
</trkpt>
<trkpt lat="40.0728905" lon="-105.230673">
  <ele>1595.6</ele>
  <time>2026-08-28T19:10:41Z</time>
  <course>353.33</course>
  <speed>0.71</speed>
  <fix>3d</fix>
</trkpt>
<trkpt lat="40.0728922" lon="-105.2306734">
  <ele>1595.7</ele>
  <time>2026-08-28T19:10:41Z</time>
  <course>8.63</course>
  <speed>0.4085339643163099</speed>
  <fix>3d</fix>
</trkpt>
<trkpt lat="40.0728917" lon="-105.2306732">
  <ele>1595.6</ele>
  <time>2026-08-28T19:10:41Z</time>
  <course>346.15</course>
  <speed>0.56</speed>
  <fix>3d</fix>
</trkpt>
<trkpt lat="40.0728927" lon="-105.2306738">
  <ele>1595.69</ele>
  <time>2026-08-28T19:10:41Z</time>
  <course>8.69</course>
  <speed>0.23600847442411893</speed>
  <fix>3d</fix>
</trkpt>
<trkpt lat="40.0728924" lon="-105.2306737">
  <ele>1595.6</ele>
  <time>2026-08-28T19:10:41Z</time>
  <course>332.41</course>
  <speed>0.38</speed>
  <fix>3d</fix>
</trkpt>
<trkpt lat="40.0728928" lon="-105.2306743">
  <ele>1595.69</ele>
  <time>2026-08-28T19:10:41Z</time>
  <course>8.65</course>
  <speed>0.23706539182259395</speed>
  <fix>3d</fix>
</trkpt>
<trkpt lat="40.0728928" lon="-105.2306741">
  <ele>1595.6</ele>
  <time>2026-08-28T19:10:41Z</time>
  <course>294.71</course>
  <speed>0.22</speed>
  <fix>3d</fix>
</trkpt>
<trkpt lat="40.0728924" lon="-105.2306748">
  <ele>1595.68</ele>
  <time>2026-08-28T19:10:41Z</time>
  <course>8.55</course>
  <speed>0.4167733196834941</speed>
  <fix>3d</fix>
</trkpt>
<trkpt lat="40.0728927" lon="-105.2306746">
  <ele>1595.59</ele>
  <time>2026-08-28T19:10:41Z</time>
  <course>232.1</course>
  <speed>0.26</speed>
  <fix>3d</fix>
</trkpt>
<trkpt lat="40.0728916" lon="-105.2306753">
  <ele>1595.68</ele>
  <time>2026-08-28T19:10:41Z</time>
  <course>8.5</course>
  <speed>0.6008327554319921</speed>
  <fix>3d</fix>
</trkpt>
<trkpt lat="40.0728922" lon="-105.2306751">
  <ele>1595.59</ele>
  <time>2026-08-28T19:10:41Z</time>
  <course>206.15</course>
  <speed>0.45</speed>
  <fix>3d</fix>
</trkpt>
<trkpt lat="40.0728905" lon="-105.2306757">
  <ele>1595.68</ele>
  <time>2026-08-28T19:10:41Z</time>
  <course>8.44</course>
  <speed>0.7452516353554683</speed>
  <fix>3d</fix>
</trkpt>
<trkpt lat="40.0728914" lon="-105.2306754">
  <ele>1595.59</ele>
  <time>2026-08-28T19:10:41Z</time>
  <course>195.59</course>
  <speed>0.63</speed>
  <fix>3d</fix>
</trkpt>
<trkpt lat="40.0728891" lon="-105.230676">
  <ele>1595.69</ele>
  <time>2026-08-28T19:10:41Z</time>
  <course>8.42</course>
  <speed>0.8260750571225353</speed>
  <fix>3d</fix>
</trkpt>
<trkpt lat="40.0728901" lon="-105.2306758">
  <ele>1595.59</ele>
  <time>2026-08-28T19:10:41Z</time>
  <course>189.38</course>
  <speed>0.76</speed>
  <fix>3d</fix>
</trkpt>
<trkpt lat="40.0728877" lon="-105.2306762">
  <ele>1595.69</ele>
  <time>2026-08-28T19:10:42Z</time>
  <course>8.44</course>
  <speed>0.8305419917138447</speed>
  <fix>3d</fix>
</trkpt>
<trkpt lat="40.0728887" lon="-105.230676">
  <ele>1595.59</ele>
  <time>2026-08-28T19:10:42Z</time>
  <course>184.67</course>
  <speed>0.83</speed>
  <fix>3d</fix>
</trkpt>
<trkpt lat="40.0728863" lon="-105.2306761">
  <ele>1595.69</ele>
  <time>2026-08-28T19:10:42Z</time>
  <course>8.45</course>
  <speed>0.7605918747922567</speed>
  <fix>3d</fix>
</trkpt>
<trkpt lat="40.0728872" lon="-105.2306761">
  <ele>1595.59</ele>
  <time>2026-08-28T19:10:42Z</time>
  <course>180.29</course>
  <speed>0.82</speed>
  <fix>3d</fix>
</trkpt>
<trkpt lat="40.072885" lon="-105.230676">
  <ele>1595.69</ele>
  <time>2026-08-28T19:10:42Z</time>
  <course>8.53</course>
  <speed>0.6264982043070834</speed>
  <fix>3d</fix>
</trkpt>
<trkpt lat="40.0728858" lon="-105.2306761">
  <ele>1595.59</ele>
  <time>2026-08-28T19:10:42Z</time>
  <course>175.42</course>
  <speed>0.74</speed>
  <fix>3d</fix>
</trkpt>
<trkpt lat="40.0728841" lon="-105.2306757">
  <ele>1595.69</ele>
  <time>2026-08-28T19:10:42Z</time>
  <course>8.55</course>
  <speed>0.4459820624195552</speed>
  <fix>3d</fix>
</trkpt>
<trkpt lat="40.0728846" lon="-105.230676">
  <ele>1595.59</ele>
  <time>2026-08-28T19:10:42Z</time>
  <course>168.72</course>
  <speed>0.59</speed>
  <fix>3d</fix>
</trkpt>
<trkpt lat="40.0728835" lon="-105.2306753">
  <ele>1595.69</ele>
  <time>2026-08-28T19:10:42Z</time>
  <course>8.57</course>
  <speed>0.261725046566048</speed>
  <fix>3d</fix>
</trkpt>
<trkpt lat="40.0728838" lon="-105.2306756">
  <ele>1595.59</ele>
  <time>2026-08-28T19:10:42Z</time>
  <course>156.55</course>
  <speed>0.4</speed>
  <fix>3d</fix>
</trkpt>
<trkpt lat="40.0728833" lon="-105.2306749">
  <ele>1595.69</ele>
  <time>2026-08-28T19:10:42Z</time>
  <course>8.56</course>
  <speed>0.22135943621178655</speed>
  <fix>3d</fix>
</trkpt>
<trkpt lat="40.0728833" lon="-105.2306753">
  <ele>1595.58</ele>
  <time>2026-08-28T19:10:42Z</time>
  <course>123.92</course>
  <speed>0.23</speed>
  <fix>3d</fix>
</trkpt>
<trkpt lat="40.0728836" lon="-105.2306744">
  <ele>1595.68</ele>
  <time>2026-08-28T19:10:42Z</time>
  <course>8.51</course>
  <speed>0.3827531841800928</speed>
  <fix>3d</fix>
</trkpt>
<trkpt lat="40.0728833" lon="-105.2306748">
  <ele>1595.58</ele>
  <time>2026-08-28T19:10:42Z</time>
  <course>57.34</course>
  <speed>0.23</speed>
  <fix>3d</fix>
</trkpt>
<trkpt lat="40.0728843" lon="-105.2306739">
  <ele>1595.68</ele>
  <time>2026-08-28T19:10:42Z</time>
  <course>8.45</course>
  <speed>0.5630275304103699</speed>
  <fix>3d</fix>
</trkpt>
<trkpt lat="40.0728837" lon="-105.2306743">
  <ele>1595.58</ele>
  <time>2026-08-28T19:10:42Z</time>
  <course>27.01</course>
  <speed>0.41</speed>
  <fix>3d</fix>
</trkpt>
<trkpt lat="40.0728854" lon="-105.2306736">
  <ele>1595.67</ele>
  <time>2026-08-28T19:10:42Z</time>
  <course>8.41</course>
  <speed>0.7061161377563892</speed>
  <fix>3d</fix>
</trkpt>
<trkpt lat="40.0728845" lon="-105.2306739">
  <ele>1595.57</ele>
  <time>2026-08-28T19:10:42Z</time>
  <course>15.37</course>
  <speed>0.59</speed>
  <fix>3d</fix>
</trkpt>
<trkpt lat="40.0728867" lon="-105.2306733">
  <ele>1595.67</ele>
  <time>2026-08-28T19:10:42Z</time>
  <course>8.39</course>
  <speed>0.785175139698144</speed>
  <fix>3d</fix>
</trkpt>
<trkpt lat="40.0728857" lon="-105.2306736">
  <ele>1595.57</ele>
  <time>2026-08-28T19:10:42Z</time>
  <course>8.72</course>
  <speed>0.73</speed>
  <fix>3d</fix>
</trkpt>
<trkpt lat="40.0728881" lon="-105.2306732">
  <ele>1595.67</ele>
  <time>2026-08-28T19:10:42Z</time>
  <course>8.4</course>
  <speed>0.8002499609497022</speed>
  <fix>3d</fix>
</trkpt>
<trkpt lat="40.0728871" lon="-105.2306734">
  <ele>1595.57</ele>
  <time>2026-08-28T19:10:42Z</time>
  <course>3.73</course>
  <speed>0.79</speed>
  <fix>3d</fix>
</trkpt>
<trkpt lat="40.0728895" lon="-105.2306733">
  <ele>1595.67</ele>
  <time>2026-08-28T19:10:42Z</time>
  <course>8.45</course>
  <speed>0.7310950690573697</speed>
  <fix>3d</fix>
</trkpt>
<trkpt lat="40.0728885" lon="-105.2306734">
  <ele>1595.58</ele>
  <time>2026-08-28T19:10:42Z</time>
  <course>359.12</course>
  <speed>0.78</speed>
  <fix>3d</fix>
</trkpt>
<trkpt lat="40.0728906" lon="-105.2306734">
  <ele>1595.68</ele>
  <time>2026-08-28T19:10:42Z</time>
  <course>8.52</course>
  <speed>0.5885575587824864</speed>
  <fix>3d</fix>
</trkpt>
<trkpt lat="40.0728899" lon="-105.2306734">
  <ele>1595.58</ele>
  <time>2026-08-28T19:10:42Z</time>
  <course>353.9</course>
  <speed>0.7</speed>
  <fix>3d</fix>
</trkpt>
<trkpt lat="40.0728915" lon="-105.2306738">
  <ele>1595.69</ele>
  <time>2026-08-28T19:10:42Z</time>
  <course>8.58</course>
  <speed>0.41231056256176607</speed>
  <fix>3d</fix>
</trkpt>
<trkpt lat="40.072891" lon="-105.2306736">
  <ele>1595.59</ele>
  <time>2026-08-28T19:10:42Z</time>
  <course>346.52</course>
  <speed>0.56</speed>
  <fix>3d</fix>
</trkpt>
<trkpt lat="40.072892" lon="-105.2306742">
  <ele>1595.69</ele>
  <time>2026-08-28T19:10:42Z</time>
  <course>8.59</course>
  <speed>0.24413111231467405</speed>
  <fix>3d</fix>
</trkpt>
<trkpt lat="40.0728917" lon="-105.2306739">
  <ele>1595.59</ele>
  <time>2026-08-28T19:10:42Z</time>
  <course>332.61</course>
  <speed>0.38</speed>
  <fix>3d</fix>
</trkpt>
<trkpt lat="40.0728921" lon="-105.2306747">
  <ele>1595.7</ele>
  <time>2026-08-28T19:10:42Z</time>
  <course>8.61</course>
  <speed>0.24166091947189144</speed>
  <fix>3d</fix>
</trkpt>
<trkpt lat="40.0728922" lon="-105.2306744">
  <ele>1595.6</ele>
  <time>2026-08-28T19:10:42Z</time>
  <course>294.84</course>
  <speed>0.22</speed>
  <fix>3d</fix>
</trkpt>
<trkpt lat="40.0728918" lon="-105.2306752">
  <ele>1595.7</ele>
  <time>2026-08-28T19:10:42Z</time>
  <course>8.61</course>
  <speed>0.41340053217188777</speed>
  <fix>3d</fix>
</trkpt>
<trkpt lat="40.0728921" lon="-105.2306749">
  <ele>1595.6</ele>
  <time>2026-08-28T19:10:42Z</time>
  <course>232.56</course>
  <speed>0.26</speed>
  <fix>3d</fix>
</trkpt>
<trkpt lat="40.072891" lon="-105.2306757">
  <ele>1595.69</ele>
  <time>2026-08-28T19:10:42Z</time>
  <course>8.53</course>
  <speed>0.6008327554319921</speed>
  <fix>3d</fix>
</trkpt>
<trkpt lat="40.0728917" lon="-105.2306754">
  <ele>1595.59</ele>
  <time>2026-08-28T19:10:42Z</time>
  <course>206.3</course>
  <speed>0.45</speed>
  <fix>3d</fix>
</trkpt>
<trkpt lat="40.0728899" lon="-105.2306761">
  <ele>1595.69</ele>
  <time>2026-08-28T19:10:42Z</time>
  <course>8.49</course>
  <speed>0.7452516353554683</speed>
  <fix>3d</fix>
</trkpt>
<trkpt lat="40.0728908" lon="-105.2306759">
  <ele>1595.59</ele>
  <time>2026-08-28T19:10:42Z</time>
  <course>195.53</course>
  <speed>0.63</speed>
  <fix>3d</fix>
</trkpt>
<trkpt lat="40.0728885" lon="-105.2306764">
  <ele>1595.69</ele>
  <time>2026-08-28T19:10:42Z</time>
  <course>8.47</course>
  <speed>0.8260750571225353</speed>
  <fix>3d</fix>
</trkpt>
<trkpt lat="40.0728895" lon="-105.2306762">
  <ele>1595.58</ele>
  <time>2026-08-28T19:10:42Z</time>
  <course>189.23</course>
  <speed>0.76</speed>
  <fix>3d</fix>
</trkpt>
<trkpt lat="40.072887" lon="-105.2306765">
  <ele>1595.69</ele>
  <time>2026-08-28T19:10:42Z</time>
  <course>8.47</course>
  <speed>0.8305419917138447</speed>
  <fix>3d</fix>
</trkpt>
<trkpt lat="40.0728881" lon="-105.2306763">
  <ele>1595.58</ele>
  <time>2026-08-28T19:10:42Z</time>
  <course>184.44</course>
  <speed>0.83</speed>
  <fix>3d</fix>
</trkpt>
<trkpt lat="40.0728856" lon="-105.2306765">
  <ele>1595.68</ele>
  <time>2026-08-28T19:10:42Z</time>
  <course>8.46</course>
  <speed>0.7605918747922567</speed>
  <fix>3d</fix>
</trkpt>
<trkpt lat="40.0728866" lon="-105.2306765">
  <ele>1595.58</ele>
  <time>2026-08-28T19:10:42Z</time>
  <course>179.98</course>
  <speed>0.82</speed>
  <fix>3d</fix>
</trkpt>
<trkpt lat="40.0728844" lon="-105.2306764">
  <ele>1595.67</ele>
  <time>2026-08-28T19:10:42Z</time>
  <course>8.47</course>
  <speed>0.6264982043070834</speed>
  <fix>3d</fix>
</trkpt>
<trkpt lat="40.0728852" lon="-105.2306764">
  <ele>1595.58</ele>
  <time>2026-08-28T19:10:42Z</time>
  <course>174.96</course>
  <speed>0.74</speed>
  <fix>3d</fix>
</trkpt>
<trkpt lat="40.0728834" lon="-105.2306761">
  <ele>1595.67</ele>
  <time>2026-08-28T19:10:42Z</time>
  <course>8.52</course>
  <speed>0.4459820624195552</speed>
  <fix>3d</fix>
</trkpt>
<trkpt lat="40.072884" lon="-105.2306763">
  <ele>1595.58</ele>
  <time>2026-08-28T19:10:42Z</time>
  <course>168.05</course>
  <speed>0.59</speed>
  <fix>3d</fix>
</trkpt>
<trkpt lat="40.0728829" lon="-105.2306756">
  <ele>1595.68</ele>
  <time>2026-08-28T19:10:42Z</time>
  <course>8.54</course>
  <speed>0.261725046566048</speed>
  <fix>3d</fix>
</trkpt>
<trkpt lat="40.0728831" lon="-105.2306759">
  <ele>1595.58</ele>
  <time>2026-08-28T19:10:42Z</time>
  <course>155.58</course>
  <speed>0.41</speed>
  <fix>3d</fix>
</trkpt>
<trkpt lat="40.0728827" lon="-105.2306751">
  <ele>1595.68</ele>
  <time>2026-08-28T19:10:42Z</time>
  <course>8.55</course>
  <speed>0.22135943621178655</speed>
  <fix>3d</fix>
</trkpt>
<trkpt lat="40.0728826" lon="-105.2306754">
  <ele>1595.59</ele>
  <time>2026-08-28T19:10:42Z</time>
  <course>123.05</course>
  <speed>0.23</speed>
  <fix>3d</fix>
</trkpt>
<trkpt lat="40.0728829" lon="-105.2306746">
  <ele>1595.68</ele>
  <time>2026-08-28T19:10:42Z</time>
  <course>8.49</course>
  <speed>0.3827531841800928</speed>
  <fix>3d</fix>
</trkpt>
<trkpt lat="40.0728826" lon="-105.230675">
  <ele>1595.59</ele>
  <time>2026-08-28T19:10:42Z</time>
  <course>58.94</course>
  <speed>0.24</speed>
  <fix>3d</fix>
</trkpt>
<trkpt lat="40.0728837" lon="-105.2306742">
  <ele>1595.68</ele>
  <time>2026-08-28T19:10:42Z</time>
  <course>8.44</course>
  <speed>0.5630275304103699</speed>
  <fix>3d</fix>
</trkpt>
<trkpt lat="40.0728831" lon="-105.2306745">
  <ele>1595.59</ele>
  <time>2026-08-28T19:10:42Z</time>
  <course>28.23</course>
  <speed>0.41</speed>
  <fix>3d</fix>
</trkpt>
<trkpt lat="40.0728847" lon="-105.2306738">
  <ele>1595.67</ele>
  <time>2026-08-28T19:10:42Z</time>
  <course>8.42</course>
  <speed>0.7061161377563892</speed>
  <fix>3d</fix>
</trkpt>
<trkpt lat="40.0728838" lon="-105.230674">
  <ele>1595.59</ele>
  <time>2026-08-28T19:10:42Z</time>
  <course>16.2</course>
  <speed>0.59</speed>
  <fix>3d</fix>
</trkpt>
<trkpt lat="40.072886" lon="-105.2306735">
  <ele>1595.67</ele>
  <time>2026-08-28T19:10:42Z</time>
  <course>8.41</course>
  <speed>0.785175139698144</speed>
  <fix>3d</fix>
</trkpt>
<trkpt lat="40.072885" lon="-105.2306737">
  <ele>1595.59</ele>
  <time>2026-08-28T19:10:42Z</time>
  <course>9.38</course>
  <speed>0.72</speed>
  <fix>3d</fix>
</trkpt>
<trkpt lat="40.0728874" lon="-105.2306734">
  <ele>1595.67</ele>
  <time>2026-08-28T19:10:42Z</time>
  <course>8.4</course>
  <speed>0.7902531240052139</speed>
  <fix>3d</fix>
</trkpt>
<trkpt lat="40.0728864" lon="-105.2306735">
  <ele>1595.59</ele>
  <time>2026-08-28T19:10:42Z</time>
  <course>4.31</course>
  <speed>0.79</speed>
  <fix>3d</fix>
</trkpt>
<trkpt lat="40.0728888" lon="-105.2306734">
  <ele>1595.67</ele>
  <time>2026-08-28T19:10:42Z</time>
  <course>8.42</course>
  <speed>0.7211102550927978</speed>
  <fix>3d</fix>
</trkpt>
<trkpt lat="40.0728879" lon="-105.2306735">
  <ele>1595.59</ele>
  <time>2026-08-28T19:10:42Z</time>
  <course>359.64</course>
  <speed>0.78</speed>
  <fix>3d</fix>
</trkpt>
<trkpt lat="40.0728899" lon="-105.2306735">
  <ele>1595.68</ele>
  <time>2026-08-28T19:10:42Z</time>
  <course>8.53</course>
  <speed>0.5885575587824864</speed>
  <fix>3d</fix>
</trkpt>
<trkpt lat="40.0728892" lon="-105.2306735">
  <ele>1595.59</ele>
  <time>2026-08-28T19:10:42Z</time>
  <course>354.36</course>
  <speed>0.7</speed>
  <fix>3d</fix>
</trkpt>
<trkpt lat="40.0728908" lon="-105.2306739">
  <ele>1595.69</ele>
  <time>2026-08-28T19:10:42Z</time>
  <course>8.58</course>
  <speed>0.41231056256176607</speed>
  <fix>3d</fix>
</trkpt>
<trkpt lat="40.0728904" lon="-105.2306737">
  <ele>1595.6</ele>
  <time>2026-08-28T19:10:42Z</time>
  <course>346.97</course>
  <speed>0.55</speed>
  <fix>3d</fix>
</trkpt>
<trkpt lat="40.0728913" lon="-105.2306743">
  <ele>1595.7</ele>
  <time>2026-08-28T19:10:42Z</time>
  <course>8.62</course>
  <speed>0.24413111231467405</speed>
  <fix>3d</fix>
</trkpt>
<trkpt lat="40.0728912" lon="-105.230674">
  <ele>1595.61</ele>
  <time>2026-08-28T19:10:42Z</time>
  <course>332.99</course>
  <speed>0.37</speed>
  <fix>3d</fix>
</trkpt>
<trkpt lat="40.0728914" lon="-105.2306748">
  <ele>1595.7</ele>
  <time>2026-08-28T19:10:42Z</time>
  <course>8.63</course>
  <speed>0.24166091947189144</speed>
  <fix>3d</fix>
</trkpt>
<trkpt lat="40.0728915" lon="-105.2306744">
  <ele>1595.61</ele>
  <time>2026-08-28T19:10:42Z</time>
  <course>294.39</course>
  <speed>0.21</speed>
  <fix>3d</fix>
</trkpt>
<trkpt lat="40.0728911" lon="-105.2306753">
  <ele>1595.69</ele>
  <time>2026-08-28T19:10:42Z</time>
  <course>8.6</course>
  <speed>0.408166632639171</speed>
  <fix>3d</fix>
</trkpt>
<trkpt lat="40.0728914" lon="-105.2306749">
  <ele>1595.61</ele>
  <time>2026-08-28T19:10:42Z</time>
  <course>231.47</course>
  <speed>0.26</speed>
  <fix>3d</fix>
</trkpt>
<trkpt lat="40.0728903" lon="-105.2306757">
  <ele>1595.68</ele>
  <time>2026-08-28T19:10:42Z</time>
  <course>8.52</course>
  <speed>0.6008327554319921</speed>
  <fix>3d</fix>
</trkpt>
<trkpt lat="40.072891" lon="-105.2306754">
  <ele>1595.6</ele>
  <time>2026-08-28T19:10:42Z</time>
  <course>205.73</course>
  <speed>0.45</speed>
  <fix>3d</fix>
</trkpt>
<trkpt lat="40.0728892" lon="-105.2306761">
  <ele>1595.68</ele>
  <time>2026-08-28T19:10:42Z</time>
  <course>8.5</course>
  <speed>0.7452516353554683</speed>
  <fix>3d</fix>
</trkpt>
<trkpt lat="40.0728901" lon="-105.2306759">
  <ele>1595.6</ele>
  <time>2026-08-28T19:10:42Z</time>
  <course>195.21</course>
  <speed>0.63</speed>
  <fix>3d</fix>
</trkpt>
<trkpt lat="40.0728878" lon="-105.2306764">
  <ele>1595.68</ele>
  <time>2026-08-28T19:10:42Z</time>
  <course>8.48</course>
  <speed>0.8260750571225353</speed>
  <fix>3d</fix>
</trkpt>
<trkpt lat="40.0728888" lon="-105.2306762">
  <ele>1595.6</ele>
  <time>2026-08-28T19:10:42Z</time>
  <course>189.02</course>
  <speed>0.77</speed>
  <fix>3d</fix>
</trkpt>
<trkpt lat="40.0728863" lon="-105.2306765">
  <ele>1595.67</ele>
  <time>2026-08-28T19:10:42Z</time>
  <course>8.44</course>
  <speed>0.8305419917138447</speed>
  <fix>3d</fix>
</trkpt>
<trkpt lat="40.0728874" lon="-105.2306764">
  <ele>1595.6</ele>
  <time>2026-08-28T19:10:42Z</time>
  <course>184.29</course>
  <speed>0.83</speed>
  <fix>3d</fix>
</trkpt>
<trkpt lat="40.0728849" lon="-105.2306765">
  <ele>1595.67</ele>
  <time>2026-08-28T19:10:42Z</time>
  <course>8.44</course>
  <speed>0.7605918747922567</speed>
  <fix>3d</fix>
</trkpt>
<trkpt lat="40.0728859" lon="-105.2306765">
  <ele>1595.6</ele>
  <time>2026-08-28T19:10:42Z</time>
  <course>179.86</course>
  <speed>0.83</speed>
  <fix>3d</fix>
</trkpt>
<trkpt lat="40.0728837" lon="-105.2306764">
  <ele>1595.68</ele>
  <time>2026-08-28T19:10:42Z</time>
  <course>8.48</course>
  <speed>0.6264982043070834</speed>
  <fix>3d</fix>
</trkpt>
<trkpt lat="40.0728845" lon="-105.2306765">
  <ele>1595.6</ele>
  <time>2026-08-28T19:10:42Z</time>
  <course>174.9</course>
  <speed>0.74</speed>
  <fix>3d</fix>
</trkpt>
<trkpt lat="40.0728827" lon="-105.2306761">
  <ele>1595.68</ele>
  <time>2026-08-28T19:10:42Z</time>
  <course>8.54</course>
  <speed>0.4459820624195552</speed>
  <fix>3d</fix>
</trkpt>
<trkpt lat="40.0728833" lon="-105.2306763">
  <ele>1595.61</ele>
  <time>2026-08-28T19:10:42Z</time>
  <course>168.09</course>
  <speed>0.6</speed>
  <fix>3d</fix>
</trkpt>
<trkpt lat="40.0728821" lon="-105.2306757">
  <ele>1595.68</ele>
  <time>2026-08-28T19:10:42Z</time>
  <course>8.56</course>
  <speed>0.261725046566048</speed>
  <fix>3d</fix>
</trkpt>
<trkpt lat="40.0728824" lon="-105.2306759">
  <ele>1595.61</ele>
  <time>2026-08-28T19:10:42Z</time>
  <course>155.89</course>
  <speed>0.41</speed>
  <fix>3d</fix>
</trkpt>
<trkpt lat="40.072882" lon="-105.2306752">
  <ele>1595.68</ele>
  <time>2026-08-28T19:10:42Z</time>
  <course>8.56</course>
  <speed>0.22135943621178655</speed>
  <fix>3d</fix>
</trkpt>
<trkpt lat="40.0728819" lon="-105.2306755">
  <ele>1595.61</ele>
  <time>2026-08-28T19:10:42Z</time>
  <course>124.46</course>
  <speed>0.24</speed>
  <fix>3d</fix>
</trkpt>
<trkpt lat="40.0728822" lon="-105.2306747">
  <ele>1595.68</ele>
  <time>2026-08-28T19:10:42Z</time>
  <course>8.51</course>
  <speed>0.3827531841800928</speed>
  <fix>3d</fix>
</trkpt>
<trkpt lat="40.0728819" lon="-105.230675">
  <ele>1595.62</ele>
  <time>2026-08-28T19:10:42Z</time>
  <course>60.75</course>
  <speed>0.24</speed>
  <fix>3d</fix>
</trkpt>
<trkpt lat="40.0728829" lon="-105.2306742">
  <ele>1595.67</ele>
  <time>2026-08-28T19:10:42Z</time>
  <course>8.45</course>
  <speed>0.5630275304103699</speed>
  <fix>3d</fix>
</trkpt>
<trkpt lat="40.0728823" lon="-105.2306745">
  <ele>1595.62</ele>
  <time>2026-08-28T19:10:42Z</time>
  <course>29.07</course>
  <speed>0.41</speed>
  <fix>3d</fix>
</trkpt>
<trkpt lat="40.072884" lon="-105.2306738">
  <ele>1595.68</ele>
  <time>2026-08-28T19:10:42Z</time>
  <course>8.42</course>
  <speed>0.7061161377563892</speed>
  <fix>3d</fix>
</trkpt>
<trkpt lat="40.0728831" lon="-105.230674">
  <ele>1595.62</ele>
  <time>2026-08-28T19:10:42Z</time>
  <course>16.73</course>
  <speed>0.58</speed>
  <fix>3d</fix>
</trkpt>
<trkpt lat="40.0728853" lon="-105.2306735">
  <ele>1595.68</ele>
  <time>2026-08-28T19:10:42Z</time>
  <course>8.42</course>
  <speed>0.785175139698144</speed>
  <fix>3d</fix>
</trkpt>
<trkpt lat="40.0728842" lon="-105.2306737">
  <ele>1595.62</ele>
  <time>2026-08-28T19:10:42Z</time>
  <course>9.8</course>
  <speed>0.72</speed>
  <fix>3d</fix>
</trkpt>
<trkpt lat="40.0728867" lon="-105.2306734">
  <ele>1595.68</ele>
  <time>2026-08-28T19:10:42Z</time>
  <course>8.43</course>
  <speed>0.7902531240052139</speed>
  <fix>3d</fix>
</trkpt>
<trkpt lat="40.0728856" lon="-105.2306735">
  <ele>1595.62</ele>
  <time>2026-08-28T19:10:42Z</time>
  <course>4.69</course>
  <speed>0.78</speed>
  <fix>3d</fix>
</trkpt>
<trkpt lat="40.072888" lon="-105.2306734">
  <ele>1595.68</ele>
  <time>2026-08-28T19:10:42Z</time>
  <course>8.48</course>
  <speed>0.7206247289678588</speed>
  <fix>3d</fix>
</trkpt>
<trkpt lat="40.0728869" lon="-105.2306735">
  <ele>1595.62</ele>
  <time>2026-08-28T19:10:42Z</time>
  <course>0.01</course>
  <speed>0.77</speed>
  <fix>3d</fix>
</trkpt>
<trkpt lat="40.0728891" lon="-105.2306735">
  <ele>1595.68</ele>
  <time>2026-08-28T19:10:42Z</time>
  <course>8.56</course>
  <speed>0.5885575587824864</speed>
  <fix>3d</fix>
</trkpt>
<trkpt lat="40.0728883" lon="-105.2306735">
  <ele>1595.62</ele>
  <time>2026-08-28T19:10:42Z</time>
  <course>354.75</course>
  <speed>0.69</speed>
  <fix>3d</fix>
</trkpt>
<trkpt lat="40.07289" lon="-105.2306738">
  <ele>1595.69</ele>
  <time>2026-08-28T19:10:42Z</time>
  <course>8.6</course>
  <speed>0.4085339643163099</speed>
  <fix>3d</fix>
</trkpt>
<trkpt lat="40.0728895" lon="-105.2306736">
  <ele>1595.63</ele>
  <time>2026-08-28T19:10:42Z</time>
  <course>347.35</course>
  <speed>0.54</speed>
  <fix>3d</fix>
</trkpt>
<trkpt lat="40.0728905" lon="-105.2306742">
  <ele>1595.7</ele>
  <time>2026-08-28T19:10:42Z</time>
  <course>8.62</course>
  <speed>0.23600847442411893</speed>
  <fix>3d</fix>
</trkpt>
<trkpt lat="40.0728902" lon="-105.2306739">
  <ele>1595.63</ele>
  <time>2026-08-28T19:10:42Z</time>
  <course>333.15</course>
  <speed>0.36</speed>
  <fix>3d</fix>
</trkpt>
<trkpt lat="40.0728905" lon="-105.2306747">
  <ele>1595.7</ele>
  <time>2026-08-28T19:10:42Z</time>
  <course>8.62</course>
  <speed>0.23259406699226015</speed>
  <fix>3d</fix>
</trkpt>
<trkpt lat="40.0728905" lon="-105.2306744">
  <ele>1595.64</ele>
  <time>2026-08-28T19:10:42Z</time>
  <course>292.85</course>
  <speed>0.21</speed>
  <fix>3d</fix>
</trkpt>
<trkpt lat="40.0728902" lon="-105.2306752">
  <ele>1595.7</ele>
  <time>2026-08-28T19:10:42Z</time>
  <course>8.62</course>
  <speed>0.408166632639171</speed>
  <fix>3d</fix>
</trkpt>
<trkpt lat="40.0728905" lon="-105.2306749">
  <ele>1595.64</ele>
  <time>2026-08-28T19:10:42Z</time>
  <course>229.56</course>
  <speed>0.26</speed>
  <fix>3d</fix>
</trkpt>
<trkpt lat="40.0728894" lon="-105.2306757">
  <ele>1595.71</ele>
  <time>2026-08-28T19:10:42Z</time>
  <course>8.57</course>
  <speed>0.6008327554319921</speed>
  <fix>3d</fix>
</trkpt>
<trkpt lat="40.07289" lon="-105.2306753">
  <ele>1595.63</ele>
  <time>2026-08-28T19:10:42Z</time>
  <course>205.0</course>
  <speed>0.45</speed>
  <fix>3d</fix>
</trkpt>
<trkpt lat="40.0728882" lon="-105.2306761">
  <ele>1595.71</ele>
  <time>2026-08-28T19:10:42Z</time>
  <course>8.52</course>
  <speed>0.7452516353554683</speed>
  <fix>3d</fix>
</trkpt>
<trkpt lat="40.0728891" lon="-105.2306758">
  <ele>1595.63</ele>
  <time>2026-08-28T19:10:42Z</time>
  <course>194.85</course>
  <speed>0.63</speed>
  <fix>3d</fix>
</trkpt>
<trkpt lat="40.0728869" lon="-105.2306763">
  <ele>1595.71</ele>
  <time>2026-08-28T19:10:42Z</time>
  <course>8.5</course>
  <speed>0.8260750571225353</speed>
  <fix>3d</fix>
</trkpt>
<trkpt lat="40.0728879" lon="-105.2306761">
  <ele>1595.62</ele>
  <time>2026-08-28T19:10:42Z</time>
  <course>188.84</course>
  <speed>0.77</speed>
  <fix>3d</fix>
</trkpt>
<trkpt lat="40.0728854" lon="-105.2306765">
  <ele>1595.7</ele>
  <time>2026-08-28T19:10:42Z</time>
  <course>8.5</course>
  <speed>0.8305419917138447</speed>
  <fix>3d</fix>
</trkpt>
<trkpt lat="40.0728864" lon="-105.2306763">
  <ele>1595.62</ele>
  <time>2026-08-28T19:10:42Z</time>
  <course>184.19</course>
  <speed>0.84</speed>
  <fix>3d</fix>
</trkpt>
<trkpt lat="40.072884" lon="-105.2306764">
  <ele>1595.7</ele>
  <time>2026-08-28T19:10:42Z</time>
  <course>8.55</course>
  <speed>0.7605918747922567</speed>
  <fix>3d</fix>
</trkpt>
<trkpt lat="40.0728849" lon="-105.2306763">
  <ele>1595.61</ele>
  <time>2026-08-28T19:10:42Z</time>
  <course>179.82</course>
  <speed>0.83</speed>
  <fix>3d</fix>
</trkpt>
<trkpt lat="40.0728827" lon="-105.2306763">
  <ele>1595.7</ele>
  <time>2026-08-28T19:10:42Z</time>
  <course>8.57</course>
  <speed>0.6264982043070834</speed>
  <fix>3d</fix>
</trkpt>
<trkpt lat="40.0728834" lon="-105.2306763">
  <ele>1595.61</ele>
  <time>2026-08-28T19:10:42Z</time>
  <course>174.87</course>
  <speed>0.75</speed>
  <fix>3d</fix>
</trkpt>
<trkpt lat="40.0728817" lon="-105.230676">
  <ele>1595.7</ele>
  <time>2026-08-28T19:10:42Z</time>
  <course>8.59</course>
  <speed>0.4459820624195552</speed>
  <fix>3d</fix>
</trkpt>
<trkpt lat="40.0728822" lon="-105.2306762">
  <ele>1595.61</ele>
  <time>2026-08-28T19:10:42Z</time>
  <course>168.05</course>
  <speed>0.6</speed>
  <fix>3d</fix>
</trkpt>
<trkpt lat="40.0728812" lon="-105.2306756">
  <ele>1595.7</ele>
  <time>2026-08-28T19:10:42Z</time>
  <course>8.6</course>
  <speed>0.261725046566048</speed>
  <fix>3d</fix>
</trkpt>
<trkpt lat="40.0728814" lon="-105.2306758">
  <ele>1595.61</ele>
  <time>2026-08-28T19:10:42Z</time>
  <course>155.87</course>
  <speed>0.42</speed>
  <fix>3d</fix>
</trkpt>
<trkpt lat="40.072881" lon="-105.2306751">
  <ele>1595.7</ele>
  <time>2026-08-28T19:10:42Z</time>
  <course>8.58</course>
  <speed>0.22135943621178655</speed>
  <fix>3d</fix>
</trkpt>
<trkpt lat="40.0728809" lon="-105.2306754">
  <ele>1595.61</ele>
  <time>2026-08-28T19:10:42Z</time>
  <course>124.78</course>
  <speed>0.24</speed>
  <fix>3d</fix>
</trkpt>
<trkpt lat="40.0728812" lon="-105.2306746">
  <ele>1595.69</ele>
  <time>2026-08-28T19:10:42Z</time>
  <course>8.52</course>
  <speed>0.3661966684720111</speed>
  <fix>3d</fix>
</trkpt>
<trkpt lat="40.0728809" lon="-105.2306749">
  <ele>1595.6</ele>
  <time>2026-08-28T19:10:42Z</time>
  <course>62.74</course>
  <speed>0.24</speed>
  <fix>3d</fix>
</trkpt>
<trkpt lat="40.0728818" lon="-105.2306741">
  <ele>1595.68</ele>
  <time>2026-08-28T19:10:42Z</time>
  <course>8.76</course>
  <speed>0.4753945729601885</speed>
  <fix>3d</fix>
</trkpt>
<trkpt lat="40.0728812" lon="-105.2306744">
  <ele>1595.59</ele>
  <time>2026-08-28T19:10:42Z</time>
  <course>32.48</course>
  <speed>0.37</speed>
  <fix>3d</fix>
</trkpt>
<trkpt lat="40.0728826" lon="-105.2306737">
  <ele>1595.63</ele>
  <time>2026-08-28T19:10:42Z</time>
  <course>9.68</course>
  <speed>0.5069516742254631</speed>
  <fix>3d</fix>
</trkpt>
<trkpt lat="40.0728819" lon="-105.2306739">
  <ele>1595.57</ele>
  <time>2026-08-28T19:10:42Z</time>
  <course>20.54</course>
  <speed>0.47</speed>
  <fix>3d</fix>
</trkpt>
<trkpt lat="40.0728835" lon="-105.2306735">
  <ele>1595.5</ele>
  <time>2026-08-28T19:10:42Z</time>
  <course>10.99</course>
  <speed>0.5080354318352215</speed>
  <fix>3d</fix>
</trkpt>
<trkpt lat="40.0728827" lon="-105.2306736">
  <ele>1595.5</ele>
  <time>2026-08-28T19:10:42Z</time>
  <course>13.86</course>
  <speed>0.5</speed>
  <fix>3d</fix>
</trkpt>
<trkpt lat="40.0728843" lon="-105.2306733">
  <ele>1595.27</ele>
  <time>2026-08-28T19:10:42Z</time>
  <course>12.14</course>
  <speed>0.4949747468305833</speed>
  <fix>3d</fix>
</trkpt>
<trkpt lat="40.0728836" lon="-105.2306734">
  <ele>1595.35</ele>
  <time>2026-08-28T19:10:42Z</time>
  <course>10.12</course>
  <speed>0.5</speed>
  <fix>3d</fix>
</trkpt>
<trkpt lat="40.0728852" lon="-105.2306731">
  <ele>1594.95</ele>
  <time>2026-08-28T19:10:42Z</time>
  <course>12.81</course>
  <speed>0.4751841748206689</speed>
  <fix>3d</fix>
</trkpt>
<trkpt lat="40.0728845" lon="-105.2306731">
  <ele>1595.1</ele>
  <time>2026-08-28T19:10:42Z</time>
  <course>8.59</course>
  <speed>0.49</speed>
  <fix>3d</fix>
</trkpt>
<trkpt lat="40.072886" lon="-105.2306729">
  <ele>1594.55</ele>
  <time>2026-08-28T19:10:42Z</time>
  <course>13.07</course>
  <speed>0.4570557952810576</speed>
  <fix>3d</fix>
</trkpt>
<trkpt lat="40.0728854" lon="-105.230673">
  <ele>1594.76</ele>
  <time>2026-08-28T19:10:42Z</time>
  <course>8.87</course>
  <speed>0.47</speed>
  <fix>3d</fix>
</trkpt>
<trkpt lat="40.0728868" lon="-105.2306727">
  <ele>1594.09</ele>
  <time>2026-08-28T19:10:42Z</time>
  <course>13.09</course>
  <speed>0.4393176527297759</speed>
  <fix>3d</fix>
</trkpt>
<trkpt lat="40.0728862" lon="-105.2306728">
  <ele>1594.35</ele>
  <time>2026-08-28T19:10:42Z</time>
  <course>10.65</course>
  <speed>0.45</speed>
  <fix>3d</fix>
</trkpt>
<trkpt lat="40.0728875" lon="-105.2306725">
  <ele>1593.6</ele>
  <time>2026-08-28T19:10:42Z</time>
  <course>13.0</course>
  <speed>0.41484937025383084</speed>
  <fix>3d</fix>
</trkpt>
<trkpt lat="40.0728869" lon="-105.2306726">
  <ele>1593.88</ele>
  <time>2026-08-28T19:10:42Z</time>
  <course>13.63</course>
  <speed>0.43</speed>
  <fix>3d</fix>
</trkpt>
<trkpt lat="40.0728882" lon="-105.2306722">
  <ele>1593.08</ele>
  <time>2026-08-28T19:10:42Z</time>
  <course>12.87</course>
  <speed>0.4049691346263317</speed>
  <fix>3d</fix>
</trkpt>
<trkpt lat="40.0728877" lon="-105.2306723">
  <ele>1593.38</ele>
  <time>2026-08-28T19:10:42Z</time>
  <course>17.44</course>
  <speed>0.42</speed>
  <fix>3d</fix>
</trkpt>
<trkpt lat="40.0728889" lon="-105.2306718">
  <ele>1592.55</ele>
  <time>2026-08-28T19:10:42Z</time>
  <course>12.67</course>
  <speed>0.40311288741492746</speed>
  <fix>3d</fix>
</trkpt>
<trkpt lat="40.0728884" lon="-105.230672">
  <ele>1592.87</ele>
  <time>2026-08-28T19:10:42Z</time>
  <course>21.66</course>
  <speed>0.41</speed>
  <fix>3d</fix>
</trkpt>
<trkpt lat="40.0728895" lon="-105.2306714">
  <ele>1592.02</ele>
  <time>2026-08-28T19:10:42Z</time>
  <course>12.47</course>
  <speed>0.3935733730830886</speed>
  <fix>3d</fix>
</trkpt>
<trkpt lat="40.0728891" lon="-105.2306716">
  <ele>1592.35</ele>
  <time>2026-08-28T19:10:42Z</time>
  <course>25.9</course>
  <speed>0.4</speed>
  <fix>3d</fix>
</trkpt>
<trkpt lat="40.0728901" lon="-105.2306709">
  <ele>1591.5</ele>
  <time>2026-08-28T19:10:42Z</time>
  <course>12.32</course>
  <speed>0.3996248240537617</speed>
  <fix>3d</fix>
</trkpt>
<trkpt lat="40.0728898" lon="-105.2306711">
  <ele>1591.83</ele>
  <time>2026-08-28T19:10:42Z</time>
  <course>29.89</course>
  <speed>0.4</speed>
  <fix>3d</fix>
</trkpt>
<trkpt lat="40.0728907" lon="-105.2306704">
  <ele>1590.98</ele>
  <time>2026-08-28T19:10:42Z</time>
  <course>12.15</course>
  <speed>0.3966106403010388</speed>
  <fix>3d</fix>
</trkpt>
<trkpt lat="40.0728903" lon="-105.2306706">
  <ele>1591.31</ele>
  <time>2026-08-28T19:10:42Z</time>
  <course>33.54</course>
  <speed>0.4</speed>
  <fix>3d</fix>
</trkpt>
<trkpt lat="40.0728913" lon="-105.2306698">
  <ele>1590.47</ele>
  <time>2026-08-28T19:10:42Z</time>
  <course>12.03</course>
  <speed>0.4</speed>
  <fix>3d</fix>
</trkpt>
<trkpt lat="40.072891" lon="-105.2306701">
  <ele>1590.8</ele>
  <time>2026-08-28T19:10:42Z</time>
  <course>36.81</course>
  <speed>0.4</speed>
  <fix>3d</fix>
</trkpt>
<trkpt lat="40.0728919" lon="-105.2306692">
  <ele>1589.96</ele>
  <time>2026-08-28T19:10:42Z</time>
  <course>11.93</course>
  <speed>0.4045985664828782</speed>
  <fix>3d</fix>
</trkpt>
<trkpt lat="40.0728915" lon="-105.2306695">
  <ele>1590.29</ele>
  <time>2026-08-28T19:10:42Z</time>
  <course>39.73</course>
  <speed>0.4</speed>
  <fix>3d</fix>
</trkpt>
<trkpt lat="40.0728924" lon="-105.2306686">
  <ele>1589.45</ele>
  <time>2026-08-28T19:10:42Z</time>
  <course>11.84</course>
  <speed>0.40360872141221127</speed>
  <fix>3d</fix>
</trkpt>
<trkpt lat="40.0728921" lon="-105.2306689">
  <ele>1589.79</ele>
  <time>2026-08-28T19:10:42Z</time>
  <course>42.29</course>
  <speed>0.41</speed>
  <fix>3d</fix>
</trkpt>
<trkpt lat="40.072893" lon="-105.2306679">
  <ele>1588.95</ele>
  <time>2026-08-28T19:10:42Z</time>
  <course>11.76</course>
  <speed>0.40311288741492746</speed>
  <fix>3d</fix>
</trkpt>
<trkpt lat="40.0728926" lon="-105.2306682">
  <ele>1589.29</ele>
  <time>2026-08-28T19:10:42Z</time>
  <course>44.55</course>
  <speed>0.41</speed>
  <fix>3d</fix>
</trkpt>
<trkpt lat="40.0728935" lon="-105.2306672">
  <ele>1588.46</ele>
  <time>2026-08-28T19:10:42Z</time>
  <course>11.67</course>
  <speed>0.40311288741492746</speed>
  <fix>3d</fix>
</trkpt>
<trkpt lat="40.0728931" lon="-105.2306675">
  <ele>1588.79</ele>
  <time>2026-08-28T19:10:42Z</time>
  <course>46.61</course>
  <speed>0.41</speed>
  <fix>3d</fix>
</trkpt>
<trkpt lat="40.072894" lon="-105.2306665">
  <ele>1587.96</ele>
  <time>2026-08-28T19:10:42Z</time>
  <course>11.61</course>
  <speed>0.40360872141221127</speed>
  <fix>3d</fix>
</trkpt>
<trkpt lat="40.0728937" lon="-105.2306668">
  <ele>1588.29</ele>
  <time>2026-08-28T19:10:42Z</time>
  <course>48.47</course>
  <speed>0.41</speed>
  <fix>3d</fix>
</trkpt>
<trkpt lat="40.0728944" lon="-105.2306657">
  <ele>1587.46</ele>
  <time>2026-08-28T19:10:42Z</time>
  <course>11.55</course>
  <speed>0.41109609582188933</speed>
  <fix>3d</fix>
</trkpt>
<trkpt lat="40.0728941" lon="-105.230666">
  <ele>1587.8</ele>
  <time>2026-08-28T19:10:42Z</time>
  <course>50.16</course>
  <speed>0.41</speed>
  <fix>3d</fix>
</trkpt>
<trkpt lat="40.0728949" lon="-105.2306649">
  <ele>1586.96</ele>
  <time>2026-08-28T19:10:42Z</time>
  <course>11.47</course>
  <speed>0.4045985664828782</speed>
  <fix>3d</fix>
</trkpt>
<trkpt lat="40.0728946" lon="-105.2306653">
  <ele>1587.3</ele>
  <time>2026-08-28T19:10:42Z</time>
  <course>51.72</course>
  <speed>0.42</speed>
  <fix>3d</fix>
</trkpt>
<trkpt lat="40.0728954" lon="-105.2306641">
  <ele>1586.47</ele>
  <time>2026-08-28T19:10:42Z</time>
  <course>11.39</course>
  <speed>0.40607881008493907</speed>
  <fix>3d</fix>
</trkpt>
<trkpt lat="40.0728951" lon="-105.2306644">
  <ele>1586.81</ele>
  <time>2026-08-28T19:10:42Z</time>
  <course>53.19</course>
  <speed>0.42</speed>
  <fix>3d</fix>
</trkpt>
<trkpt lat="40.0728958" lon="-105.2306633">
  <ele>1585.97</ele>
  <time>2026-08-28T19:10:42Z</time>
  <course>11.34</course>
  <speed>0.41400483088968904</speed>
  <fix>3d</fix>
</trkpt>
<trkpt lat="40.0728955" lon="-105.2306636">
  <ele>1586.31</ele>
  <time>2026-08-28T19:10:42Z</time>
  <course>54.54</course>
  <speed>0.42</speed>
  <fix>3d</fix>
</trkpt>
<trkpt lat="40.072896" lon="-105.2306631">
  <ele>1585.79</ele>
  <time>2026-08-28T19:10:42Z</time>
  <course>11.34</course>
  <speed>0.1118033988749895</speed>
  <fix>3d</fix>
</trkpt>
<trkpt lat="40.0728959" lon="-105.230663">
  <ele>1585.89</ele>
  <time>2026-08-28T19:10:42Z</time>
  <course>53.29</course>
  <speed>0.2</speed>
  <fix>3d</fix>
</trkpt>
<trkpt lat="40.072896" lon="-105.2306632">
  <ele>1585.92</ele>
  <time>2026-08-28T19:10:42Z</time>
  <course>11.36</course>
  <speed>0.07</speed>
  <fix>3d</fix>
</trkpt>
<trkpt lat="40.072896" lon="-105.2306629">
  <ele>1585.78</ele>
  <time>2026-08-28T19:10:42Z</time>
  <course>243.56</course>
  <speed>0.05</speed>
  <fix>3d</fix>
</trkpt>
<trkpt lat="40.072896" lon="-105.2306632">
  <ele>1585.92</ele>
  <time>2026-08-28T19:10:42Z</time>
  <course>11.37</course>
  <speed>0.03</speed>
  <fix>3d</fix>
</trkpt>
<trkpt lat="40.072896" lon="-105.2306629">
  <ele>1585.86</ele>
  <time>2026-08-28T19:10:42Z</time>
  <course>235.44</course>
  <speed>0.04</speed>
  <fix>3d</fix>
</trkpt>
<trkpt lat="40.072896" lon="-105.2306631">
  <ele>1585.9</ele>
  <time>2026-08-28T19:10:42Z</time>
  <course>11.38</course>
  <speed>0.022360679774997897</speed>
  <fix>3d</fix>
</trkpt>
<trkpt lat="40.072896" lon="-105.2306629">
  <ele>1585.87</ele>
  <time>2026-08-28T19:10:42Z</time>
  <course>61.2</course>
  <speed>0.01</speed>
  <fix>3d</fix>
</trkpt>
<trkpt lat="40.072896" lon="-105.2306631">
  <ele>1585.91</ele>
  <time>2026-08-28T19:10:42Z</time>
  <course>11.41</course>
  <speed>0.022360679774997897</speed>
  <fix>3d</fix>
</trkpt>
<trkpt lat="40.072896" lon="-105.2306629">
  <ele>1585.86</ele>
  <time>2026-08-28T19:10:42Z</time>
  <course>63.83</course>
  <speed>0.0</speed>
  <fix>3d</fix>
</trkpt>
<trkpt lat="40.072896" lon="-105.2306631">
  <ele>1585.91</ele>
  <time>2026-08-28T19:10:42Z</time>
  <course>11.44</course>
  <speed>0.022360679774997897</speed>
  <fix>3d</fix>
</trkpt>
<trkpt lat="40.072896" lon="-105.2306629">
  <ele>1585.86</ele>
  <time>2026-08-28T19:10:42Z</time>
  <course>174.4</course>
  <speed>0.0</speed>
  <fix>3d</fix>
</trkpt>
<trkpt lat="40.072896" lon="-105.2306631">
  <ele>1585.91</ele>
  <time>2026-08-28T19:10:42Z</time>
  <course>11.48</course>
  <speed>0.022360679774997897</speed>
  <fix>3d</fix>
</trkpt>
<trkpt lat="40.072896" lon="-105.2306629">
  <ele>1585.86</ele>
  <time>2026-08-28T19:10:42Z</time>
  <course>98.22</course>
  <speed>0.0</speed>
  <fix>3d</fix>
</trkpt>
<trkpt lat="40.072896" lon="-105.2306631">
  <ele>1585.91</ele>
  <time>2026-08-28T19:10:42Z</time>
  <course>11.51</course>
  <speed>0.022360679774997897</speed>
  <fix>3d</fix>
</trkpt>
<trkpt lat="40.072896" lon="-105.2306629">
  <ele>1585.86</ele>
  <time>2026-08-28T19:10:42Z</time>
  <course>86.37</course>
  <speed>0.0</speed>
  <fix>3d</fix>
</trkpt>
<trkpt lat="40.072896" lon="-105.2306631">
  <ele>1585.91</ele>
  <time>2026-08-28T19:10:42Z</time>
  <course>11.53</course>
  <speed>0.02</speed>
  <fix>3d</fix>
</trkpt>
<trkpt lat="40.072896" lon="-105.2306629">
  <ele>1585.86</ele>
  <time>2026-08-28T19:10:42Z</time>
  <course>89.39</course>
  <speed>0.0</speed>
  <fix>3d</fix>
</trkpt>
<trkpt lat="40.072896" lon="-105.2306631">
  <ele>1585.91</ele>
  <time>2026-08-28T19:10:42Z</time>
  <course>11.56</course>
  <speed>0.02</speed>
  <fix>3d</fix>
</trkpt>
<trkpt lat="40.072896" lon="-105.2306629">
  <ele>1585.86</ele>
  <time>2026-08-28T19:10:42Z</time>
  <course>88.99</course>
  <speed>0.0</speed>
  <fix>3d</fix>
</trkpt>
<trkpt lat="40.072896" lon="-105.2306631">
  <ele>1585.91</ele>
  <time>2026-08-28T19:10:42Z</time>
  <course>11.58</course>
  <speed>0.02</speed>
  <fix>3d</fix>
</trkpt>
<trkpt lat="40.072896" lon="-105.2306629">
  <ele>1585.86</ele>
  <time>2026-08-28T19:10:42Z</time>
  <course>85.21</course>
  <speed>0.0</speed>
  <fix>3d</fix>
</trkpt>
<trkpt lat="40.0728961" lon="-105.2306631">
  <ele>1585.91</ele>
  <time>2026-08-28T19:10:42Z</time>
  <course>11.59</course>
  <speed>0.01</speed>
  <fix>3d</fix>
</trkpt>
<trkpt lat="40.072896" lon="-105.2306629">
  <ele>1585.86</ele>
  <time>2026-08-28T19:10:42Z</time>
  <course>94.37</course>
  <speed>0.0</speed>
  <fix>3d</fix>
</trkpt>
<trkpt lat="40.0728961" lon="-105.2306631">
  <ele>1585.91</ele>
  <time>2026-08-28T19:10:42Z</time>
  <course>11.59</course>
  <speed>0.01</speed>
  <fix>3d</fix>
</trkpt>
<trkpt lat="40.072896" lon="-105.2306629">
  <ele>1585.86</ele>
  <time>2026-08-28T19:10:42Z</time>
  <course>117.65</course>
  <speed>0.0</speed>
  <fix>3d</fix>
</trkpt>
<trkpt lat="40.0728961" lon="-105.2306631">
  <ele>1585.91</ele>
  <time>2026-08-28T19:10:42Z</time>
  <course>11.58</course>
  <speed>0.01</speed>
  <fix>3d</fix>
</trkpt>
<trkpt lat="40.072896" lon="-105.2306629">
  <ele>1585.86</ele>
  <time>2026-08-28T19:10:42Z</time>
  <course>159.57</course>
  <speed>0.0</speed>
  <fix>3d</fix>
</trkpt>
<trkpt lat="40.0728961" lon="-105.2306631">
  <ele>1585.91</ele>
  <time>2026-08-28T19:10:42Z</time>
  <course>11.57</course>
  <speed>0.01</speed>
  <fix>3d</fix>
</trkpt>
<trkpt lat="40.072896" lon="-105.2306629">
  <ele>1585.86</ele>
  <time>2026-08-28T19:10:42Z</time>
  <course>234.3</course>
  <speed>0.0</speed>
  <fix>3d</fix>
</trkpt>
<trkpt lat="40.0728961" lon="-105.230663">
  <ele>1585.91</ele>
  <time>2026-08-28T19:10:42Z</time>
  <course>11.56</course>
  <speed>0.01</speed>
  <fix>3d</fix>
</trkpt>
<trkpt lat="40.072896" lon="-105.2306629">
  <ele>1585.86</ele>
  <time>2026-08-28T19:10:42Z</time>
  <course>249.35</course>
  <speed>0.0</speed>
  <fix>3d</fix>
</trkpt>
<trkpt lat="40.0728961" lon="-105.230663">
  <ele>1585.92</ele>
  <time>2026-08-28T19:10:42Z</time>
  <course>11.55</course>
  <speed>0.01</speed>
  <fix>3d</fix>
</trkpt>
<trkpt lat="40.072896" lon="-105.2306629">
  <ele>1585.86</ele>
  <time>2026-08-28T19:10:42Z</time>
  <course>238.65</course>
  <speed>0.0</speed>
  <fix>3d</fix>
</trkpt>
<trkpt lat="40.0728961" lon="-105.230663">
  <ele>1585.92</ele>
  <time>2026-08-28T19:10:42Z</time>
  <course>11.55</course>
  <speed>0.01</speed>
  <fix>3d</fix>
</trkpt>
<trkpt lat="40.072896" lon="-105.2306629">
  <ele>1585.86</ele>
  <time>2026-08-28T19:10:42Z</time>
  <course>239.7</course>
  <speed>0.0</speed>
  <fix>3d</fix>
</trkpt>
<trkpt lat="40.0728961" lon="-105.230663">
  <ele>1585.91</ele>
  <time>2026-08-28T19:10:42Z</time>
  <course>11.54</course>
  <speed>0.01</speed>
  <fix>3d</fix>
</trkpt>
<trkpt lat="40.072896" lon="-105.2306629">
  <ele>1585.86</ele>
  <time>2026-08-28T19:10:42Z</time>
  <course>246.72</course>
  <speed>0.0</speed>
  <fix>3d</fix>
</trkpt>
<trkpt lat="40.0728961" lon="-105.230663">
  <ele>1585.91</ele>
  <time>2026-08-28T19:10:42Z</time>
  <course>11.53</course>
  <speed>0.01</speed>
  <fix>3d</fix>
</trkpt>
<trkpt lat="40.072896" lon="-105.2306629">
  <ele>1585.86</ele>
  <time>2026-08-28T19:10:42Z</time>
  <course>279.17</course>
  <speed>0.0</speed>
  <fix>3d</fix>
</trkpt>
<trkpt lat="40.0728961" lon="-105.230663">
  <ele>1585.91</ele>
  <time>2026-08-28T19:10:42Z</time>
  <course>11.52</course>
  <speed>0.01</speed>
  <fix>3d</fix>
</trkpt>
<trkpt lat="40.072896" lon="-105.2306629">
  <ele>1585.86</ele>
  <time>2026-08-28T19:10:42Z</time>
  <course>244.92</course>
  <speed>0.0</speed>
  <fix>3d</fix>
</trkpt>
<trkpt lat="40.0728961" lon="-105.230663">
  <ele>1585.91</ele>
  <time>2026-08-28T19:10:42Z</time>
  <course>11.51</course>
  <speed>0.01</speed>
  <fix>3d</fix>
</trkpt>
<trkpt lat="40.072896" lon="-105.2306629">
  <ele>1585.86</ele>
  <time>2026-08-28T19:10:42Z</time>
  <course>239.51</course>
  <speed>0.0</speed>
  <fix>3d</fix>
</trkpt>
<trkpt lat="40.0728961" lon="-105.230663">
  <ele>1585.91</ele>
  <time>2026-08-28T19:10:42Z</time>
  <course>11.51</course>
  <speed>0.01</speed>
  <fix>3d</fix>
</trkpt>
<trkpt lat="40.072896" lon="-105.2306629">
  <ele>1585.86</ele>
  <time>2026-08-28T19:10:42Z</time>
  <course>292.73</course>
  <speed>0.0</speed>
  <fix>3d</fix>
</trkpt>
<trkpt lat="40.0728961" lon="-105.230663">
  <ele>1585.91</ele>
  <time>2026-08-28T19:10:42Z</time>
  <course>11.5</course>
  <speed>0.01</speed>
  <fix>3d</fix>
</trkpt>
<trkpt lat="40.072896" lon="-105.2306629">
  <ele>1585.86</ele>
  <time>2026-08-28T19:10:42Z</time>
  <course>285.18</course>
  <speed>0.0</speed>
  <fix>3d</fix>
</trkpt>
<trkpt lat="40.0728961" lon="-105.230663">
  <ele>1585.91</ele>
  <time>2026-08-28T19:10:42Z</time>
  <course>11.5</course>
  <speed>0.01</speed>
  <fix>3d</fix>
</trkpt>
<trkpt lat="40.072896" lon="-105.2306629">
  <ele>1585.86</ele>
  <time>2026-08-28T19:10:42Z</time>
  <course>274.78</course>
  <speed>0.0</speed>
  <fix>3d</fix>
</trkpt>
<trkpt lat="40.0728961" lon="-105.230663">
  <ele>1585.91</ele>
  <time>2026-08-28T19:10:42Z</time>
  <course>11.49</course>
  <speed>0.01</speed>
  <fix>3d</fix>
</trkpt>
<trkpt lat="40.072896" lon="-105.2306629">
  <ele>1585.86</ele>
  <time>2026-08-28T19:10:42Z</time>
  <course>276.63</course>
  <speed>0.0</speed>
  <fix>3d</fix>
</trkpt>
<trkpt lat="40.0728961" lon="-105.230663">
  <ele>1585.91</ele>
  <time>2026-08-28T19:10:42Z</time>
  <course>11.48</course>
  <speed>0.01</speed>
  <fix>3d</fix>
</trkpt>
<trkpt lat="40.072896" lon="-105.2306629">
  <ele>1585.86</ele>
  <time>2026-08-28T19:10:42Z</time>
  <course>277.71</course>
  <speed>0.0</speed>
  <fix>3d</fix>
</trkpt>
<trkpt lat="40.0728961" lon="-105.230663">
  <ele>1585.91</ele>
  <time>2026-08-28T19:10:42Z</time>
  <course>11.48</course>
  <speed>0.01</speed>
  <fix>3d</fix>
</trkpt>
<trkpt lat="40.072896" lon="-105.2306629">
  <ele>1585.86</ele>
  <time>2026-08-28T19:10:42Z</time>
  <course>278.06</course>
  <speed>0.0</speed>
  <fix>3d</fix>
</trkpt>
<trkpt lat="40.0728961" lon="-105.230663">
  <ele>1585.91</ele>
  <time>2026-08-28T19:10:42Z</time>
  <course>11.47</course>
  <speed>0.01</speed>
  <fix>3d</fix>
</trkpt>
<trkpt lat="40.072896" lon="-105.2306629">
  <ele>1585.86</ele>
  <time>2026-08-28T19:10:42Z</time>
  <course>278.17</course>
  <speed>0.0</speed>
  <fix>3d</fix>
</trkpt>
<trkpt lat="40.0728961" lon="-105.230663">
  <ele>1585.91</ele>
  <time>2026-08-28T19:10:42Z</time>
  <course>11.47</course>
  <speed>0.01</speed>
  <fix>3d</fix>
</trkpt>
<trkpt lat="40.072896" lon="-105.2306629">
  <ele>1585.86</ele>
  <time>2026-08-28T19:10:42Z</time>
  <course>276.46</course>
  <speed>0.0</speed>
  <fix>3d</fix>
</trkpt>
<trkpt lat="40.0728961" lon="-105.230663">
  <ele>1585.92</ele>
  <time>2026-08-28T19:10:42Z</time>
  <course>11.46</course>
  <speed>0.01</speed>
  <fix>3d</fix>
</trkpt>
<trkpt lat="40.072896" lon="-105.2306629">
  <ele>1585.86</ele>
  <time>2026-08-28T19:10:42Z</time>
  <course>273.94</course>
  <speed>0.0</speed>
  <fix>3d</fix>
</trkpt>
<trkpt lat="40.0728961" lon="-105.230663">
  <ele>1585.91</ele>
  <time>2026-08-28T19:10:42Z</time>
  <course>11.46</course>
  <speed>0.01</speed>
  <fix>3d</fix>
</trkpt>
<trkpt lat="40.072896" lon="-105.2306629">
  <ele>1585.86</ele>
  <time>2026-08-28T19:10:42Z</time>
  <course>274.57</course>
  <speed>0.0</speed>
  <fix>3d</fix>
</trkpt>
<trkpt lat="40.0728961" lon="-105.230663">
  <ele>1585.91</ele>
  <time>2026-08-28T19:10:42Z</time>
  <course>11.45</course>
  <speed>0.01</speed>
  <fix>3d</fix>
</trkpt>
<trkpt lat="40.072896" lon="-105.2306629">
  <ele>1585.86</ele>
  <time>2026-08-28T19:10:42Z</time>
  <course>274.24</course>
  <speed>0.0</speed>
  <fix>3d</fix>
</trkpt>
<trkpt lat="40.0728961" lon="-105.230663">
  <ele>1585.92</ele>
  <time>2026-08-28T19:10:43Z</time>
  <course>11.45</course>
  <speed>0.01</speed>
  <fix>3d</fix>
</trkpt>
<trkpt lat="40.072896" lon="-105.2306629">
  <ele>1585.86</ele>
  <time>2026-08-28T19:10:43Z</time>
  <course>273.4</course>
  <speed>0.0</speed>
  <fix>3d</fix>
</trkpt>
<trkpt lat="40.0728961" lon="-105.230663">
  <ele>1585.91</ele>
  <time>2026-08-28T19:10:43Z</time>
  <course>11.44</course>
  <speed>0.01</speed>
  <fix>3d</fix>
</trkpt>
<trkpt lat="40.072896" lon="-105.2306629">
  <ele>1585.86</ele>
  <time>2026-08-28T19:10:43Z</time>
  <course>272.71</course>
  <speed>0.0</speed>
  <fix>3d</fix>
</trkpt>
<trkpt lat="40.0728961" lon="-105.230663">
  <ele>1585.92</ele>
  <time>2026-08-28T19:10:43Z</time>
  <course>11.44</course>
  <speed>0.01</speed>
  <fix>3d</fix>
</trkpt>
<trkpt lat="40.072896" lon="-105.2306629">
  <ele>1585.86</ele>
  <time>2026-08-28T19:10:43Z</time>
  <course>272.03</course>
  <speed>0.0</speed>
  <fix>3d</fix>
</trkpt>
<trkpt lat="40.0728961" lon="-105.230663">
  <ele>1585.92</ele>
  <time>2026-08-28T19:10:43Z</time>
  <course>11.43</course>
  <speed>0.01</speed>
  <fix>3d</fix>
</trkpt>
<trkpt lat="40.072896" lon="-105.2306629">
  <ele>1585.86</ele>
  <time>2026-08-28T19:10:43Z</time>
  <course>271.23</course>
  <speed>0.0</speed>
  <fix>3d</fix>
</trkpt>
<trkpt lat="40.0728961" lon="-105.230663">
  <ele>1585.92</ele>
  <time>2026-08-28T19:10:43Z</time>
  <course>11.43</course>
  <speed>0.01</speed>
  <fix>3d</fix>
</trkpt>
<trkpt lat="40.072896" lon="-105.2306629">
  <ele>1585.86</ele>
  <time>2026-08-28T19:10:43Z</time>
  <course>270.37</course>
  <speed>0.0</speed>
  <fix>3d</fix>
</trkpt>
<trkpt lat="40.0728961" lon="-105.230663">
  <ele>1585.92</ele>
  <time>2026-08-28T19:10:43Z</time>
  <course>11.42</course>
  <speed>0.01</speed>
  <fix>3d</fix>
</trkpt>
<trkpt lat="40.072896" lon="-105.2306629">
  <ele>1585.86</ele>
  <time>2026-08-28T19:10:43Z</time>
  <course>269.45</course>
  <speed>0.0</speed>
  <fix>3d</fix>
</trkpt>
<trkpt lat="40.0728961" lon="-105.230663">
  <ele>1585.92</ele>
  <time>2026-08-28T19:10:43Z</time>
  <course>11.42</course>
  <speed>0.01</speed>
  <fix>3d</fix>
</trkpt>
<trkpt lat="40.072896" lon="-105.2306629">
  <ele>1585.86</ele>
  <time>2026-08-28T19:10:43Z</time>
  <course>268.45</course>
  <speed>0.0</speed>
  <fix>3d</fix>
</trkpt>
<trkpt lat="40.0728961" lon="-105.230663">
  <ele>1585.92</ele>
  <time>2026-08-28T19:10:43Z</time>
  <course>11.41</course>
  <speed>0.01</speed>
  <fix>3d</fix>
</trkpt>
<trkpt lat="40.072896" lon="-105.2306629">
  <ele>1585.86</ele>
  <time>2026-08-28T19:10:43Z</time>
  <course>267.37</course>
  <speed>0.0</speed>
  <fix>3d</fix>
</trkpt>
<trkpt lat="40.0728961" lon="-105.230663">
  <ele>1585.92</ele>
  <time>2026-08-28T19:10:43Z</time>
  <course>11.41</course>
  <speed>0.01</speed>
  <fix>3d</fix>
</trkpt>
<trkpt lat="40.072896" lon="-105.2306629">
  <ele>1585.86</ele>
  <time>2026-08-28T19:10:43Z</time>
  <course>266.21</course>
  <speed>0.0</speed>
  <fix>3d</fix>
</trkpt>
<trkpt lat="40.0728961" lon="-105.230663">
  <ele>1585.93</ele>
  <time>2026-08-28T19:10:43Z</time>
  <course>11.4</course>
  <speed>0.01</speed>
  <fix>3d</fix>
</trkpt>
<trkpt lat="40.072896" lon="-105.2306629">
  <ele>1585.86</ele>
  <time>2026-08-28T19:10:43Z</time>
  <course>264.94</course>
  <speed>0.0</speed>
  <fix>3d</fix>
</trkpt>
<trkpt lat="40.0728961" lon="-105.230663">
  <ele>1585.93</ele>
  <time>2026-08-28T19:10:43Z</time>
  <course>11.4</course>
  <speed>0.01</speed>
  <fix>3d</fix>
</trkpt>
<trkpt lat="40.072896" lon="-105.2306629">
  <ele>1585.86</ele>
  <time>2026-08-28T19:10:43Z</time>
  <course>263.57</course>
  <speed>0.0</speed>
  <fix>3d</fix>
</trkpt>
<trkpt lat="40.0728961" lon="-105.230663">
  <ele>1585.93</ele>
  <time>2026-08-28T19:10:43Z</time>
  <course>11.4</course>
  <speed>0.01414213562373095</speed>
  <fix>3d</fix>
</trkpt>
<trkpt lat="40.072896" lon="-105.2306629">
  <ele>1585.86</ele>
  <time>2026-08-28T19:10:43Z</time>
  <course>262.11</course>
  <speed>0.0</speed>
  <fix>3d</fix>
</trkpt>
<trkpt lat="40.0728961" lon="-105.230663">
  <ele>1585.93</ele>
  <time>2026-08-28T19:10:43Z</time>
  <course>11.39</course>
  <speed>0.01414213562373095</speed>
  <fix>3d</fix>
</trkpt>
<trkpt lat="40.072896" lon="-105.2306629">
  <ele>1585.86</ele>
  <time>2026-08-28T19:10:43Z</time>
  <course>260.52</course>
  <speed>0.0</speed>
  <fix>3d</fix>
</trkpt>
<trkpt lat="40.0728961" lon="-105.230663">
  <ele>1585.93</ele>
  <time>2026-08-28T19:10:43Z</time>
  <course>11.39</course>
  <speed>0.01414213562373095</speed>
  <fix>3d</fix>
</trkpt>
<trkpt lat="40.072896" lon="-105.2306629">
  <ele>1585.86</ele>
  <time>2026-08-28T19:10:43Z</time>
  <course>258.82</course>
  <speed>0.0</speed>
  <fix>3d</fix>
</trkpt>
<trkpt lat="40.0728961" lon="-105.230663">
  <ele>1585.94</ele>
  <time>2026-08-28T19:10:43Z</time>
  <course>11.38</course>
  <speed>0.01414213562373095</speed>
  <fix>3d</fix>
</trkpt>
<trkpt lat="40.072896" lon="-105.2306629">
  <ele>1585.86</ele>
  <time>2026-08-28T19:10:43Z</time>
  <course>256.97</course>
  <speed>0.0</speed>
  <fix>3d</fix>
</trkpt>
<trkpt lat="40.0728961" lon="-105.230663">
  <ele>1585.94</ele>
  <time>2026-08-28T19:10:43Z</time>
  <course>11.38</course>
  <speed>0.01414213562373095</speed>
  <fix>3d</fix>
</trkpt>
<trkpt lat="40.072896" lon="-105.2306629">
  <ele>1585.86</ele>
  <time>2026-08-28T19:10:43Z</time>
  <course>258.21</course>
  <speed>0.0</speed>
  <fix>3d</fix>
</trkpt>
<trkpt lat="40.0728961" lon="-105.230663">
  <ele>1585.94</ele>
  <time>2026-08-28T19:10:43Z</time>
  <course>11.37</course>
  <speed>0.01414213562373095</speed>
  <fix>3d</fix>
</trkpt>
<trkpt lat="40.072896" lon="-105.2306629">
  <ele>1585.86</ele>
  <time>2026-08-28T19:10:43Z</time>
  <course>265.11</course>
  <speed>0.0</speed>
  <fix>3d</fix>
</trkpt>
<trkpt lat="40.0728961" lon="-105.230663">
  <ele>1585.94</ele>
  <time>2026-08-28T19:10:43Z</time>
  <course>11.37</course>
  <speed>0.01414213562373095</speed>
  <fix>3d</fix>
</trkpt>
<trkpt lat="40.072896" lon="-105.2306629">
  <ele>1585.86</ele>
  <time>2026-08-28T19:10:43Z</time>
  <course>268.0</course>
  <speed>0.0</speed>
  <fix>3d</fix>
</trkpt>
<trkpt lat="40.0728961" lon="-105.230663">
  <ele>1585.94</ele>
  <time>2026-08-28T19:10:43Z</time>
  <course>11.37</course>
  <speed>0.01414213562373095</speed>
  <fix>3d</fix>
</trkpt>
<trkpt lat="40.072896" lon="-105.2306629">
  <ele>1585.86</ele>
  <time>2026-08-28T19:10:43Z</time>
  <course>267.36</course>
  <speed>0.0</speed>
  <fix>3d</fix>
</trkpt>
<trkpt lat="40.0728961" lon="-105.230663">
  <ele>1585.94</ele>
  <time>2026-08-28T19:10:43Z</time>
  <course>11.4</course>
  <speed>0.01414213562373095</speed>
  <fix>3d</fix>
</trkpt>
<trkpt lat="40.072896" lon="-105.2306629">
  <ele>1585.86</ele>
  <time>2026-08-28T19:10:43Z</time>
  <course>279.2</course>
  <speed>0.0</speed>
  <fix>3d</fix>
</trkpt>
<trkpt lat="40.0728961" lon="-105.230663">
  <ele>1585.95</ele>
  <time>2026-08-28T19:10:43Z</time>
  <course>11.44</course>
  <speed>0.01414213562373095</speed>
  <fix>3d</fix>
</trkpt>
<trkpt lat="40.072896" lon="-105.2306629">
  <ele>1585.86</ele>
  <time>2026-08-28T19:10:43Z</time>
  <course>279.02</course>
  <speed>0.0</speed>
  <fix>3d</fix>
</trkpt>
<trkpt lat="40.0728961" lon="-105.230663">
  <ele>1585.95</ele>
  <time>2026-08-28T19:10:43Z</time>
  <course>11.48</course>
  <speed>0.01414213562373095</speed>
  <fix>3d</fix>
</trkpt>
<trkpt lat="40.072896" lon="-105.2306629">
  <ele>1585.86</ele>
  <time>2026-08-28T19:10:43Z</time>
  <course>104.98</course>
  <speed>0.0</speed>
  <fix>3d</fix>
</trkpt>
<trkpt lat="40.0728961" lon="-105.230663">
  <ele>1585.95</ele>
  <time>2026-08-28T19:10:43Z</time>
  <course>11.52</course>
  <speed>0.01</speed>
  <fix>3d</fix>
</trkpt>
<trkpt lat="40.072896" lon="-105.2306629">
  <ele>1585.86</ele>
  <time>2026-08-28T19:10:43Z</time>
  <course>110.4</course>
  <speed>0.0</speed>
  <fix>3d</fix>
</trkpt>
<trkpt lat="40.0728961" lon="-105.230663">
  <ele>1585.95</ele>
  <time>2026-08-28T19:10:43Z</time>
  <course>11.55</course>
  <speed>0.01</speed>
  <fix>3d</fix>
</trkpt>
<trkpt lat="40.072896" lon="-105.2306629">
  <ele>1585.86</ele>
  <time>2026-08-28T19:10:43Z</time>
  <course>245.31</course>
  <speed>0.0</speed>
  <fix>3d</fix>
</trkpt>
<trkpt lat="40.0728961" lon="-105.230663">
  <ele>1585.94</ele>
  <time>2026-08-28T19:10:43Z</time>
  <course>11.59</course>
  <speed>0.01</speed>
  <fix>3d</fix>
</trkpt>
<trkpt lat="40.072896" lon="-105.2306629">
  <ele>1585.86</ele>
  <time>2026-08-28T19:10:43Z</time>
  <course>174.42</course>
  <speed>0.0</speed>
  <fix>3d</fix>
</trkpt>
<trkpt lat="40.0728961" lon="-105.230663">
  <ele>1585.95</ele>
  <time>2026-08-28T19:10:43Z</time>
  <course>11.63</course>
  <speed>0.01</speed>
  <fix>3d</fix>
</trkpt>
<trkpt lat="40.072896" lon="-105.2306629">
  <ele>1585.86</ele>
  <time>2026-08-28T19:10:43Z</time>
  <course>144.61</course>
  <speed>0.0</speed>
  <fix>3d</fix>
</trkpt>
<trkpt lat="40.0728961" lon="-105.230663">
  <ele>1585.94</ele>
  <time>2026-08-28T19:10:43Z</time>
  <course>11.67</course>
  <speed>0.01</speed>
  <fix>3d</fix>
</trkpt>
<trkpt lat="40.072896" lon="-105.2306629">
  <ele>1585.86</ele>
  <time>2026-08-28T19:10:43Z</time>
  <course>155.08</course>
  <speed>0.0</speed>
  <fix>3d</fix>
</trkpt>
<trkpt lat="40.0728961" lon="-105.230663">
  <ele>1585.94</ele>
  <time>2026-08-28T19:10:43Z</time>
  <course>11.7</course>
  <speed>0.01</speed>
  <fix>3d</fix>
</trkpt>
<trkpt lat="40.072896" lon="-105.2306629">
  <ele>1585.86</ele>
  <time>2026-08-28T19:10:43Z</time>
  <course>157.5</course>
  <speed>0.0</speed>
  <fix>3d</fix>
</trkpt>
<trkpt lat="40.0728961" lon="-105.230663">
  <ele>1585.94</ele>
  <time>2026-08-28T19:10:43Z</time>
  <course>11.74</course>
  <speed>0.01</speed>
  <fix>3d</fix>
</trkpt>
<trkpt lat="40.072896" lon="-105.2306629">
  <ele>1585.86</ele>
  <time>2026-08-28T19:10:43Z</time>
  <course>155.52</course>
  <speed>0.0</speed>
  <fix>3d</fix>
</trkpt>
<trkpt lat="40.0728961" lon="-105.230663">
  <ele>1585.93</ele>
  <time>2026-08-28T19:10:43Z</time>
  <course>11.78</course>
  <speed>0.01</speed>
  <fix>3d</fix>
</trkpt>
<trkpt lat="40.072896" lon="-105.2306629">
  <ele>1585.86</ele>
  <time>2026-08-28T19:10:43Z</time>
  <course>155.43</course>
  <speed>0.0</speed>
  <fix>3d</fix>
</trkpt>
<trkpt lat="40.0728961" lon="-105.230663">
  <ele>1585.93</ele>
  <time>2026-08-28T19:10:43Z</time>
  <course>11.81</course>
  <speed>0.01</speed>
  <fix>3d</fix>
</trkpt>
<trkpt lat="40.072896" lon="-105.2306629">
  <ele>1585.86</ele>
  <time>2026-08-28T19:10:43Z</time>
  <course>155.7</course>
  <speed>0.0</speed>
  <fix>3d</fix>
</trkpt>
<trkpt lat="40.0728961" lon="-105.230663">
  <ele>1585.93</ele>
  <time>2026-08-28T19:10:43Z</time>
  <course>11.85</course>
  <speed>0.0</speed>
  <fix>3d</fix>
</trkpt>
<trkpt lat="40.072896" lon="-105.2306629">
  <ele>1585.86</ele>
  <time>2026-08-28T19:10:43Z</time>
  <course>155.68</course>
  <speed>0.0</speed>
  <fix>3d</fix>
</trkpt>
<trkpt lat="40.0728961" lon="-105.230663">
  <ele>1585.93</ele>
  <time>2026-08-28T19:10:43Z</time>
  <course>11.89</course>
  <speed>0.0</speed>
  <fix>3d</fix>
</trkpt>
<trkpt lat="40.072896" lon="-105.2306629">
  <ele>1585.86</ele>
  <time>2026-08-28T19:10:43Z</time>
  <course>155.64</course>
  <speed>0.0</speed>
  <fix>3d</fix>
</trkpt>
<trkpt lat="40.0728961" lon="-105.230663">
  <ele>1585.93</ele>
  <time>2026-08-28T19:10:43Z</time>
  <course>11.92</course>
  <speed>0.0</speed>
  <fix>3d</fix>
</trkpt>
<trkpt lat="40.072896" lon="-105.2306629">
  <ele>1585.86</ele>
  <time>2026-08-28T19:10:43Z</time>
  <course>155.65</course>
  <speed>0.0</speed>
  <fix>3d</fix>
</trkpt>
<trkpt lat="40.0728961" lon="-105.230663">
  <ele>1585.92</ele>
  <time>2026-08-28T19:10:43Z</time>
  <course>11.96</course>
  <speed>0.0</speed>
  <fix>3d</fix>
</trkpt>
<trkpt lat="40.072896" lon="-105.2306629">
  <ele>1585.86</ele>
  <time>2026-08-28T19:10:43Z</time>
  <course>155.65</course>
  <speed>0.0</speed>
  <fix>3d</fix>
</trkpt>
<trkpt lat="40.0728961" lon="-105.230663">
  <ele>1585.92</ele>
  <time>2026-08-28T19:10:43Z</time>
  <course>11.99</course>
  <speed>0.0</speed>
  <fix>3d</fix>
</trkpt>
<trkpt lat="40.072896" lon="-105.2306629">
  <ele>1585.86</ele>
  <time>2026-08-28T19:10:43Z</time>
  <course>155.65</course>
  <speed>0.0</speed>
  <fix>3d</fix>
</trkpt>
<trkpt lat="40.0728961" lon="-105.230663">
  <ele>1585.93</ele>
  <time>2026-08-28T19:10:43Z</time>
  <course>12.03</course>
  <speed>0.0</speed>
  <fix>3d</fix>
</trkpt>
<trkpt lat="40.072896" lon="-105.2306629">
  <ele>1585.86</ele>
  <time>2026-08-28T19:10:43Z</time>
  <course>155.65</course>
  <speed>0.0</speed>
  <fix>3d</fix>
</trkpt>
<trkpt lat="40.0728961" lon="-105.230663">
  <ele>1585.93</ele>
  <time>2026-08-28T19:10:43Z</time>
  <course>12.07</course>
  <speed>0.0</speed>
  <fix>3d</fix>
</trkpt>
<trkpt lat="40.072896" lon="-105.2306629">
  <ele>1585.86</ele>
  <time>2026-08-28T19:10:43Z</time>
  <course>155.65</course>
  <speed>0.0</speed>
  <fix>3d</fix>
</trkpt>
<trkpt lat="40.0728961" lon="-105.230663">
  <ele>1585.92</ele>
  <time>2026-08-28T19:10:43Z</time>
  <course>12.1</course>
  <speed>0.0</speed>
  <fix>3d</fix>
</trkpt>
<trkpt lat="40.072896" lon="-105.2306629">
  <ele>1585.86</ele>
  <time>2026-08-28T19:10:43Z</time>
  <course>155.65</course>
  <speed>0.0</speed>
  <fix>3d</fix>
</trkpt>
<trkpt lat="40.0728961" lon="-105.230663">
  <ele>1585.91</ele>
  <time>2026-08-28T19:10:43Z</time>
  <course>12.14</course>
  <speed>0.0</speed>
  <fix>3d</fix>
</trkpt>
<trkpt lat="40.072896" lon="-105.2306629">
  <ele>1585.86</ele>
  <time>2026-08-28T19:10:43Z</time>
  <course>155.65</course>
  <speed>0.0</speed>
  <fix>3d</fix>
</trkpt>
<trkpt lat="40.0728961" lon="-105.230663">
  <ele>1585.91</ele>
  <time>2026-08-28T19:10:43Z</time>
  <course>12.17</course>
  <speed>0.0</speed>
  <fix>3d</fix>
</trkpt>
<trkpt lat="40.072896" lon="-105.2306629">
  <ele>1585.86</ele>
  <time>2026-08-28T19:10:43Z</time>
  <course>155.65</course>
  <speed>0.0</speed>
  <fix>3d</fix>
</trkpt>
<trkpt lat="40.0728961" lon="-105.230663">
  <ele>1585.91</ele>
  <time>2026-08-28T19:10:43Z</time>
  <course>12.21</course>
  <speed>0.0</speed>
  <fix>3d</fix>
</trkpt>
<trkpt lat="40.072896" lon="-105.2306629">
  <ele>1585.86</ele>
  <time>2026-08-28T19:10:43Z</time>
  <course>155.65</course>
  <speed>0.0</speed>
  <fix>3d</fix>
</trkpt>
<trkpt lat="40.0728961" lon="-105.230663">
  <ele>1585.91</ele>
  <time>2026-08-28T19:10:43Z</time>
  <course>12.25</course>
  <speed>0.0</speed>
  <fix>3d</fix>
</trkpt>
<trkpt lat="40.072896" lon="-105.2306629">
  <ele>1585.86</ele>
  <time>2026-08-28T19:10:43Z</time>
  <course>90.73</course>
  <speed>0.0</speed>
  <fix>3d</fix>
</trkpt>
<trkpt lat="40.0728961" lon="-105.230663">
  <ele>1585.91</ele>
  <time>2026-08-28T19:10:43Z</time>
  <course>12.28</course>
  <speed>0.01</speed>
  <fix>3d</fix>
</trkpt>
<trkpt lat="40.072896" lon="-105.2306629">
  <ele>1585.86</ele>
  <time>2026-08-28T19:10:43Z</time>
  <course>140.3</course>
  <speed>0.0</speed>
  <fix>3d</fix>
</trkpt>
<trkpt lat="40.0728961" lon="-105.230663">
  <ele>1585.91</ele>
  <time>2026-08-28T19:10:43Z</time>
  <course>12.32</course>
  <speed>0.01</speed>
  <fix>3d</fix>
</trkpt>
<trkpt lat="40.072896" lon="-105.2306629">
  <ele>1585.86</ele>
  <time>2026-08-28T19:10:43Z</time>
  <course>155.36</course>
  <speed>0.0</speed>
  <fix>3d</fix>
</trkpt>
<trkpt lat="40.0728961" lon="-105.230663">
  <ele>1585.91</ele>
  <time>2026-08-28T19:10:43Z</time>
  <course>12.36</course>
  <speed>0.01</speed>
  <fix>3d</fix>
</trkpt>
<trkpt lat="40.072896" lon="-105.2306629">
  <ele>1585.86</ele>
  <time>2026-08-28T19:10:43Z</time>
  <course>151.53</course>
  <speed>0.0</speed>
  <fix>3d</fix>
</trkpt>
<trkpt lat="40.0728961" lon="-105.230663">
  <ele>1585.91</ele>
  <time>2026-08-28T19:10:43Z</time>
  <course>12.39</course>
  <speed>0.01</speed>
  <fix>3d</fix>
</trkpt>
<trkpt lat="40.072896" lon="-105.2306629">
  <ele>1585.86</ele>
  <time>2026-08-28T19:10:43Z</time>
  <course>156.49</course>
  <speed>0.0</speed>
  <fix>3d</fix>
</trkpt>
<trkpt lat="40.0728961" lon="-105.230663">
  <ele>1585.92</ele>
  <time>2026-08-28T19:10:43Z</time>
  <course>12.43</course>
  <speed>0.01</speed>
  <fix>3d</fix>
</trkpt>
<trkpt lat="40.072896" lon="-105.2306629">
  <ele>1585.86</ele>
  <time>2026-08-28T19:10:43Z</time>
  <course>156.1</course>
  <speed>0.0</speed>
  <fix>3d</fix>
</trkpt>
<trkpt lat="40.0728961" lon="-105.230663">
  <ele>1585.92</ele>
  <time>2026-08-28T19:10:43Z</time>
  <course>12.46</course>
  <speed>0.01</speed>
  <fix>3d</fix>
</trkpt>
<trkpt lat="40.072896" lon="-105.2306629">
  <ele>1585.86</ele>
  <time>2026-08-28T19:10:43Z</time>
  <course>155.49</course>
  <speed>0.0</speed>
  <fix>3d</fix>
</trkpt>
<trkpt lat="40.0728961" lon="-105.230663">
  <ele>1585.92</ele>
  <time>2026-08-28T19:10:43Z</time>
  <course>12.5</course>
  <speed>0.01</speed>
  <fix>3d</fix>
</trkpt>
<trkpt lat="40.072896" lon="-105.2306629">
  <ele>1585.86</ele>
  <time>2026-08-28T19:10:43Z</time>
  <course>155.61</course>
  <speed>0.0</speed>
  <fix>3d</fix>
</trkpt>
<trkpt lat="40.0728961" lon="-105.230663">
  <ele>1585.92</ele>
  <time>2026-08-28T19:10:43Z</time>
  <course>12.53</course>
  <speed>0.01</speed>
  <fix>3d</fix>
</trkpt>
<trkpt lat="40.072896" lon="-105.2306629">
  <ele>1585.86</ele>
  <time>2026-08-28T19:10:43Z</time>
  <course>155.68</course>
  <speed>0.0</speed>
  <fix>3d</fix>
</trkpt>
<trkpt lat="40.0728961" lon="-105.230663">
  <ele>1585.92</ele>
  <time>2026-08-28T19:10:43Z</time>
  <course>12.57</course>
  <speed>0.01</speed>
  <fix>3d</fix>
</trkpt>
<trkpt lat="40.072896" lon="-105.2306629">
  <ele>1585.86</ele>
  <time>2026-08-28T19:10:43Z</time>
  <course>155.65</course>
  <speed>0.0</speed>
  <fix>3d</fix>
</trkpt>
<trkpt lat="40.0728961" lon="-105.230663">
  <ele>1585.92</ele>
  <time>2026-08-28T19:10:43Z</time>
  <course>12.61</course>
  <speed>0.01</speed>
  <fix>3d</fix>
</trkpt>
<trkpt lat="40.072896" lon="-105.2306629">
  <ele>1585.86</ele>
  <time>2026-08-28T19:10:43Z</time>
  <course>63.16</course>
  <speed>0.0</speed>
  <fix>3d</fix>
</trkpt>
<trkpt lat="40.0728961" lon="-105.230663">
  <ele>1585.92</ele>
  <time>2026-08-28T19:10:43Z</time>
  <course>12.64</course>
  <speed>0.01</speed>
  <fix>3d</fix>
</trkpt>
<trkpt lat="40.072896" lon="-105.2306629">
  <ele>1585.86</ele>
  <time>2026-08-28T19:10:43Z</time>
  <course>38.09</course>
  <speed>0.0</speed>
  <fix>3d</fix>
</trkpt>
<trkpt lat="40.0728961" lon="-105.230663">
  <ele>1585.92</ele>
  <time>2026-08-28T19:10:43Z</time>
  <course>12.68</course>
  <speed>0.01</speed>
  <fix>3d</fix>
</trkpt>
<trkpt lat="40.072896" lon="-105.2306629">
  <ele>1585.86</ele>
  <time>2026-08-28T19:10:43Z</time>
  <course>3.61</course>
  <speed>0.0</speed>
  <fix>3d</fix>
</trkpt>
<trkpt lat="40.0728961" lon="-105.230663">
  <ele>1585.91</ele>
  <time>2026-08-28T19:10:43Z</time>
  <course>12.71</course>
  <speed>0.01</speed>
  <fix>3d</fix>
</trkpt>
<trkpt lat="40.072896" lon="-105.2306629">
  <ele>1585.86</ele>
  <time>2026-08-28T19:10:43Z</time>
  <course>206.99</course>
  <speed>0.0</speed>
  <fix>3d</fix>
</trkpt>
<trkpt lat="40.0728961" lon="-105.230663">
  <ele>1585.91</ele>
  <time>2026-08-28T19:10:43Z</time>
  <course>12.75</course>
  <speed>0.01</speed>
  <fix>3d</fix>
</trkpt>
<trkpt lat="40.072896" lon="-105.2306629">
  <ele>1585.86</ele>
  <time>2026-08-28T19:10:43Z</time>
  <course>130.41</course>
  <speed>0.0</speed>
  <fix>3d</fix>
</trkpt>
<trkpt lat="40.0728961" lon="-105.230663">
  <ele>1585.91</ele>
  <time>2026-08-28T19:10:43Z</time>
  <course>12.78</course>
  <speed>0.01</speed>
  <fix>3d</fix>
</trkpt>
<trkpt lat="40.072896" lon="-105.2306629">
  <ele>1585.86</ele>
  <time>2026-08-28T19:10:43Z</time>
  <course>61.56</course>
  <speed>0.0</speed>
  <fix>3d</fix>
</trkpt>
<trkpt lat="40.0728961" lon="-105.230663">
  <ele>1585.91</ele>
  <time>2026-08-28T19:10:43Z</time>
  <course>12.81</course>
  <speed>0.01</speed>
  <fix>3d</fix>
</trkpt>
<trkpt lat="40.072896" lon="-105.2306629">
  <ele>1585.86</ele>
  <time>2026-08-28T19:10:43Z</time>
  <course>95.66</course>
  <speed>0.0</speed>
  <fix>3d</fix>
</trkpt>
<trkpt lat="40.0728961" lon="-105.230663">
  <ele>1585.92</ele>
  <time>2026-08-28T19:10:43Z</time>
  <course>12.83</course>
  <speed>0.01</speed>
  <fix>3d</fix>
</trkpt>
<trkpt lat="40.072896" lon="-105.2306629">
  <ele>1585.86</ele>
  <time>2026-08-28T19:10:43Z</time>
  <course>102.88</course>
  <speed>0.0</speed>
  <fix>3d</fix>
</trkpt>
<trkpt lat="40.0728961" lon="-105.230663">
  <ele>1585.92</ele>
  <time>2026-08-28T19:10:43Z</time>
  <course>12.86</course>
  <speed>0.01</speed>
  <fix>3d</fix>
</trkpt>
<trkpt lat="40.072896" lon="-105.2306629">
  <ele>1585.86</ele>
  <time>2026-08-28T19:10:43Z</time>
  <course>97.48</course>
  <speed>0.0</speed>
  <fix>3d</fix>
</trkpt>
<trkpt lat="40.0728961" lon="-105.230663">
  <ele>1585.92</ele>
  <time>2026-08-28T19:10:43Z</time>
  <course>12.89</course>
  <speed>0.01</speed>
  <fix>3d</fix>
</trkpt>
<trkpt lat="40.072896" lon="-105.2306629">
  <ele>1585.86</ele>
  <time>2026-08-28T19:10:43Z</time>
  <course>97.93</course>
  <speed>0.0</speed>
  <fix>3d</fix>
</trkpt>
<trkpt lat="40.0728961" lon="-105.230663">
  <ele>1585.92</ele>
  <time>2026-08-28T19:10:43Z</time>
  <course>12.91</course>
  <speed>0.01</speed>
  <fix>3d</fix>
</trkpt>
<trkpt lat="40.072896" lon="-105.2306629">
  <ele>1585.86</ele>
  <time>2026-08-28T19:10:43Z</time>
  <course>98.76</course>
  <speed>0.0</speed>
  <fix>3d</fix>
</trkpt>
<trkpt lat="40.0728961" lon="-105.230663">
  <ele>1585.92</ele>
  <time>2026-08-28T19:10:43Z</time>
  <course>12.93</course>
  <speed>0.01</speed>
  <fix>3d</fix>
</trkpt>
<trkpt lat="40.072896" lon="-105.2306629">
  <ele>1585.86</ele>
  <time>2026-08-28T19:10:43Z</time>
  <course>115.59</course>
  <speed>0.0</speed>
  <fix>3d</fix>
</trkpt>
<trkpt lat="40.0728961" lon="-105.230663">
  <ele>1585.93</ele>
  <time>2026-08-28T19:10:43Z</time>
  <course>12.95</course>
  <speed>0.01414213562373095</speed>
  <fix>3d</fix>
</trkpt>
<trkpt lat="40.072896" lon="-105.2306629">
  <ele>1585.86</ele>
  <time>2026-08-28T19:10:43Z</time>
  <course>101.33</course>
  <speed>0.0</speed>
  <fix>3d</fix>
</trkpt>
<trkpt lat="40.0728961" lon="-105.230663">
  <ele>1585.93</ele>
  <time>2026-08-28T19:10:43Z</time>
  <course>12.97</course>
  <speed>0.01414213562373095</speed>
  <fix>3d</fix>
</trkpt>
<trkpt lat="40.072896" lon="-105.2306629">
  <ele>1585.86</ele>
  <time>2026-08-28T19:10:43Z</time>
  <course>76.31</course>
  <speed>0.0</speed>
  <fix>3d</fix>
</trkpt>
<trkpt lat="40.0728961" lon="-105.230663">
  <ele>1585.93</ele>
  <time>2026-08-28T19:10:43Z</time>
  <course>12.98</course>
  <speed>0.01414213562373095</speed>
  <fix>3d</fix>
</trkpt>
<trkpt lat="40.072896" lon="-105.2306629">
  <ele>1585.86</ele>
  <time>2026-08-28T19:10:43Z</time>
  <course>105.13</course>
  <speed>0.0</speed>
  <fix>3d</fix>
</trkpt>
<trkpt lat="40.0728961" lon="-105.230663">
  <ele>1585.94</ele>
  <time>2026-08-28T19:10:43Z</time>
  <course>13.0</course>
  <speed>0.01414213562373095</speed>
  <fix>3d</fix>
</trkpt>
<trkpt lat="40.072896" lon="-105.2306629">
  <ele>1585.86</ele>
  <time>2026-08-28T19:10:43Z</time>
  <course>103.75</course>
  <speed>0.0</speed>
  <fix>3d</fix>
</trkpt>
<trkpt lat="40.0728961" lon="-105.230663">
  <ele>1585.94</ele>
  <time>2026-08-28T19:10:43Z</time>
  <course>13.01</course>
  <speed>0.01414213562373095</speed>
  <fix>3d</fix>
</trkpt>
<trkpt lat="40.072896" lon="-105.2306629">
  <ele>1585.86</ele>
  <time>2026-08-28T19:10:43Z</time>
  <course>98.62</course>
  <speed>0.0</speed>
  <fix>3d</fix>
</trkpt>
<trkpt lat="40.0728961" lon="-105.230663">
  <ele>1585.94</ele>
  <time>2026-08-28T19:10:43Z</time>
  <course>13.02</course>
  <speed>0.01414213562373095</speed>
  <fix>3d</fix>
</trkpt>
<trkpt lat="40.072896" lon="-105.2306629">
  <ele>1585.86</ele>
  <time>2026-08-28T19:10:43Z</time>
  <course>145.84</course>
  <speed>0.0</speed>
  <fix>3d</fix>
</trkpt>
<trkpt lat="40.0728961" lon="-105.230663">
  <ele>1585.94</ele>
  <time>2026-08-28T19:10:43Z</time>
  <course>13.03</course>
  <speed>0.01414213562373095</speed>
  <fix>3d</fix>
</trkpt>
<trkpt lat="40.072896" lon="-105.2306629">
  <ele>1585.86</ele>
  <time>2026-08-28T19:10:43Z</time>
  <course>139.96</course>
  <speed>0.0</speed>
  <fix>3d</fix>
</trkpt>
<trkpt lat="40.0728961" lon="-105.230663">
  <ele>1585.94</ele>
  <time>2026-08-28T19:10:43Z</time>
  <course>13.04</course>
  <speed>0.01414213562373095</speed>
  <fix>3d</fix>
</trkpt>
<trkpt lat="40.072896" lon="-105.2306629">
  <ele>1585.86</ele>
  <time>2026-08-28T19:10:43Z</time>
  <course>86.11</course>
  <speed>0.0</speed>
  <fix>3d</fix>
</trkpt>
<trkpt lat="40.0728961" lon="-105.230663">
  <ele>1585.95</ele>
  <time>2026-08-28T19:10:43Z</time>
  <course>13.05</course>
  <speed>0.01414213562373095</speed>
  <fix>3d</fix>
</trkpt>
<trkpt lat="40.072896" lon="-105.2306629">
  <ele>1585.86</ele>
  <time>2026-08-28T19:10:43Z</time>
  <course>86.05</course>
  <speed>0.0</speed>
  <fix>3d</fix>
</trkpt>
<trkpt lat="40.0728961" lon="-105.230663">
  <ele>1585.95</ele>
  <time>2026-08-28T19:10:43Z</time>
  <course>13.05</course>
  <speed>0.01414213562373095</speed>
  <fix>3d</fix>
</trkpt>
<trkpt lat="40.072896" lon="-105.2306629">
  <ele>1585.86</ele>
  <time>2026-08-28T19:10:43Z</time>
  <course>106.03</course>
  <speed>0.0</speed>
  <fix>3d</fix>
</trkpt>
<trkpt lat="40.0728961" lon="-105.230663">
  <ele>1585.95</ele>
  <time>2026-08-28T19:10:43Z</time>
  <course>13.05</course>
  <speed>0.01414213562373095</speed>
  <fix>3d</fix>
</trkpt>
<trkpt lat="40.072896" lon="-105.2306629">
  <ele>1585.86</ele>
  <time>2026-08-28T19:10:43Z</time>
  <course>103.22</course>
  <speed>0.0</speed>
  <fix>3d</fix>
</trkpt>
<trkpt lat="40.0728961" lon="-105.230663">
  <ele>1585.94</ele>
  <time>2026-08-28T19:10:43Z</time>
  <course>13.06</course>
  <speed>0.01414213562373095</speed>
  <fix>3d</fix>
</trkpt>
<trkpt lat="40.072896" lon="-105.2306629">
  <ele>1585.86</ele>
  <time>2026-08-28T19:10:43Z</time>
  <course>101.29</course>
  <speed>0.0</speed>
  <fix>3d</fix>
</trkpt>
<trkpt lat="40.0728961" lon="-105.230663">
  <ele>1585.94</ele>
  <time>2026-08-28T19:10:43Z</time>
  <course>13.05</course>
  <speed>0.01414213562373095</speed>
  <fix>3d</fix>
</trkpt>
<trkpt lat="40.072896" lon="-105.2306629">
  <ele>1585.86</ele>
  <time>2026-08-28T19:10:43Z</time>
  <course>101.82</course>
  <speed>0.0</speed>
  <fix>3d</fix>
</trkpt>
<trkpt lat="40.0728961" lon="-105.230663">
  <ele>1585.94</ele>
  <time>2026-08-28T19:10:43Z</time>
  <course>13.05</course>
  <speed>0.01414213562373095</speed>
  <fix>3d</fix>
</trkpt>
<trkpt lat="40.072896" lon="-105.2306629">
  <ele>1585.86</ele>
  <time>2026-08-28T19:10:43Z</time>
  <course>101.92</course>
  <speed>0.0</speed>
  <fix>3d</fix>
</trkpt>
<trkpt lat="40.0728961" lon="-105.230663">
  <ele>1585.94</ele>
  <time>2026-08-28T19:10:43Z</time>
  <course>13.05</course>
  <speed>0.022360679774997897</speed>
  <fix>3d</fix>
</trkpt>
<trkpt lat="40.072896" lon="-105.2306629">
  <ele>1585.86</ele>
  <time>2026-08-28T19:10:43Z</time>
  <course>101.73</course>
  <speed>0.0</speed>
  <fix>3d</fix>
</trkpt>
<trkpt lat="40.0728961" lon="-105.230663">
  <ele>1585.95</ele>
  <time>2026-08-28T19:10:43Z</time>
  <course>13.04</course>
  <speed>0.022360679774997897</speed>
  <fix>3d</fix>
</trkpt>
<trkpt lat="40.072896" lon="-105.2306629">
  <ele>1585.86</ele>
  <time>2026-08-28T19:10:43Z</time>
  <course>101.63</course>
  <speed>0.0</speed>
  <fix>3d</fix>
</trkpt>
<trkpt lat="40.0728961" lon="-105.230663">
  <ele>1585.95</ele>
  <time>2026-08-28T19:10:43Z</time>
  <course>13.04</course>
  <speed>0.022360679774997897</speed>
  <fix>3d</fix>
</trkpt>
<trkpt lat="40.072896" lon="-105.2306629">
  <ele>1585.86</ele>
  <time>2026-08-28T19:10:43Z</time>
  <course>101.55</course>
  <speed>0.0</speed>
  <fix>3d</fix>
</trkpt>
<trkpt lat="40.0728961" lon="-105.230663">
  <ele>1585.95</ele>
  <time>2026-08-28T19:10:43Z</time>
  <course>13.03</course>
  <speed>0.022360679774997897</speed>
  <fix>3d</fix>
</trkpt>
<trkpt lat="40.072896" lon="-105.2306629">
  <ele>1585.86</ele>
  <time>2026-08-28T19:10:43Z</time>
  <course>101.44</course>
  <speed>0.0</speed>
  <fix>3d</fix>
</trkpt>
<trkpt lat="40.0728961" lon="-105.230663">
  <ele>1585.95</ele>
  <time>2026-08-28T19:10:43Z</time>
  <course>13.02</course>
  <speed>0.022360679774997897</speed>
  <fix>3d</fix>
</trkpt>
<trkpt lat="40.072896" lon="-105.2306629">
  <ele>1585.86</ele>
  <time>2026-08-28T19:10:43Z</time>
  <course>101.33</course>
  <speed>0.0</speed>
  <fix>3d</fix>
</trkpt>
<trkpt lat="40.0728961" lon="-105.230663">
  <ele>1585.95</ele>
  <time>2026-08-28T19:10:43Z</time>
  <course>13.0</course>
  <speed>0.022360679774997897</speed>
  <fix>3d</fix>
</trkpt>
<trkpt lat="40.072896" lon="-105.2306629">
  <ele>1585.86</ele>
  <time>2026-08-28T19:10:43Z</time>
  <course>101.21</course>
  <speed>0.0</speed>
  <fix>3d</fix>
</trkpt>
<trkpt lat="40.0728961" lon="-105.230663">
  <ele>1585.95</ele>
  <time>2026-08-28T19:10:43Z</time>
  <course>12.99</course>
  <speed>0.022360679774997897</speed>
  <fix>3d</fix>
</trkpt>
<trkpt lat="40.072896" lon="-105.2306629">
  <ele>1585.86</ele>
  <time>2026-08-28T19:10:43Z</time>
  <course>101.09</course>
  <speed>0.0</speed>
  <fix>3d</fix>
</trkpt>
<trkpt lat="40.0728961" lon="-105.230663">
  <ele>1585.95</ele>
  <time>2026-08-28T19:10:43Z</time>
  <course>12.98</course>
  <speed>0.022360679774997897</speed>
  <fix>3d</fix>
</trkpt>
<trkpt lat="40.072896" lon="-105.2306629">
  <ele>1585.86</ele>
  <time>2026-08-28T19:10:43Z</time>
  <course>100.97</course>
  <speed>0.0</speed>
  <fix>3d</fix>
</trkpt>
<trkpt lat="40.0728961" lon="-105.230663">
  <ele>1585.95</ele>
  <time>2026-08-28T19:10:43Z</time>
  <course>12.96</course>
  <speed>0.022360679774997897</speed>
  <fix>3d</fix>
</trkpt>
<trkpt lat="40.072896" lon="-105.2306629">
  <ele>1585.86</ele>
  <time>2026-08-28T19:10:43Z</time>
  <course>100.84</course>
  <speed>0.0</speed>
  <fix>3d</fix>
</trkpt>
<trkpt lat="40.0728961" lon="-105.230663">
  <ele>1585.95</ele>
  <time>2026-08-28T19:10:43Z</time>
  <course>12.94</course>
  <speed>0.022360679774997897</speed>
  <fix>3d</fix>
</trkpt>
<trkpt lat="40.072896" lon="-105.2306629">
  <ele>1585.86</ele>
  <time>2026-08-28T19:10:43Z</time>
  <course>100.7</course>
  <speed>0.0</speed>
  <fix>3d</fix>
</trkpt>
<trkpt lat="40.0728961" lon="-105.230663">
  <ele>1585.95</ele>
  <time>2026-08-28T19:10:43Z</time>
  <course>12.92</course>
  <speed>0.022360679774997897</speed>
  <fix>3d</fix>
</trkpt>
<trkpt lat="40.072896" lon="-105.2306629">
  <ele>1585.86</ele>
  <time>2026-08-28T19:10:43Z</time>
  <course>278.94</course>
  <speed>0.0</speed>
  <fix>3d</fix>
</trkpt>
<trkpt lat="40.0728961" lon="-105.230663">
  <ele>1585.95</ele>
  <time>2026-08-28T19:10:43Z</time>
  <course>12.9</course>
  <speed>0.022360679774997897</speed>
  <fix>3d</fix>
</trkpt>
<trkpt lat="40.072896" lon="-105.2306629">
  <ele>1585.86</ele>
  <time>2026-08-28T19:10:43Z</time>
  <course>278.96</course>
  <speed>0.0</speed>
  <fix>3d</fix>
</trkpt>
<trkpt lat="40.0728961" lon="-105.230663">
  <ele>1585.95</ele>
  <time>2026-08-28T19:10:43Z</time>
  <course>12.88</course>
  <speed>0.022360679774997897</speed>
  <fix>3d</fix>
</trkpt>
<trkpt lat="40.072896" lon="-105.2306629">
  <ele>1585.86</ele>
  <time>2026-08-28T19:10:43Z</time>
  <course>101.34</course>
  <speed>0.0</speed>
  <fix>3d</fix>
</trkpt>
<trkpt lat="40.0728961" lon="-105.230663">
  <ele>1585.95</ele>
  <time>2026-08-28T19:10:43Z</time>
  <course>12.85</course>
  <speed>0.022360679774997897</speed>
  <fix>3d</fix>
</trkpt>
<trkpt lat="40.072896" lon="-105.2306629">
  <ele>1585.86</ele>
  <time>2026-08-28T19:10:43Z</time>
  <course>100.54</course>
  <speed>0.0</speed>
  <fix>3d</fix>
</trkpt>
<trkpt lat="40.0728961" lon="-105.230663">
  <ele>1585.95</ele>
  <time>2026-08-28T19:10:43Z</time>
  <course>12.82</course>
  <speed>0.022360679774997897</speed>
  <fix>3d</fix>
</trkpt>
<trkpt lat="40.072896" lon="-105.2306629">
  <ele>1585.86</ele>
  <time>2026-08-28T19:10:43Z</time>
  <course>102.12</course>
  <speed>0.0</speed>
  <fix>3d</fix>
</trkpt>
<trkpt lat="40.0728961" lon="-105.230663">
  <ele>1585.95</ele>
  <time>2026-08-28T19:10:43Z</time>
  <course>12.8</course>
  <speed>0.022360679774997897</speed>
  <fix>3d</fix>
</trkpt>
<trkpt lat="40.072896" lon="-105.2306629">
  <ele>1585.86</ele>
  <time>2026-08-28T19:10:43Z</time>
  <course>101.78</course>
  <speed>0.0</speed>
  <fix>3d</fix>
</trkpt>
<trkpt lat="40.0728961" lon="-105.230663">
  <ele>1585.95</ele>
  <time>2026-08-28T19:10:43Z</time>
  <course>12.77</course>
  <speed>0.022360679774997897</speed>
  <fix>3d</fix>
</trkpt>
<trkpt lat="40.072896" lon="-105.2306629">
  <ele>1585.86</ele>
  <time>2026-08-28T19:10:43Z</time>
  <course>278.64</course>
  <speed>0.0</speed>
  <fix>3d</fix>
</trkpt>
<trkpt lat="40.0728961" lon="-105.230663">
  <ele>1585.96</ele>
  <time>2026-08-28T19:10:43Z</time>
  <course>12.74</course>
  <speed>0.022360679774997897</speed>
  <fix>3d</fix>
</trkpt>
<trkpt lat="40.072896" lon="-105.2306629">
  <ele>1585.86</ele>
  <time>2026-08-28T19:10:43Z</time>
  <course>278.64</course>
  <speed>0.0</speed>
  <fix>3d</fix>
</trkpt>
<trkpt lat="40.0728961" lon="-105.230663">
  <ele>1585.95</ele>
  <time>2026-08-28T19:10:43Z</time>
  <course>12.71</course>
  <speed>0.022360679774997897</speed>
  <fix>3d</fix>
</trkpt>
<trkpt lat="40.072896" lon="-105.2306629">
  <ele>1585.86</ele>
  <time>2026-08-28T19:10:43Z</time>
  <course>114.89</course>
  <speed>0.0</speed>
  <fix>3d</fix>
</trkpt>
<trkpt lat="40.0728961" lon="-105.230663">
  <ele>1585.95</ele>
  <time>2026-08-28T19:10:43Z</time>
  <course>12.68</course>
  <speed>0.022360679774997897</speed>
  <fix>3d</fix>
</trkpt>
<trkpt lat="40.072896" lon="-105.2306629">
  <ele>1585.86</ele>
  <time>2026-08-28T19:10:43Z</time>
  <course>101.0</course>
  <speed>0.0</speed>
  <fix>3d</fix>
</trkpt>
<trkpt lat="40.0728961" lon="-105.230663">
  <ele>1585.95</ele>
  <time>2026-08-28T19:10:43Z</time>
  <course>12.65</course>
  <speed>0.022360679774997897</speed>
  <fix>3d</fix>
</trkpt>
<trkpt lat="40.072896" lon="-105.2306629">
  <ele>1585.86</ele>
  <time>2026-08-28T19:10:43Z</time>
  <course>125.91</course>
  <speed>0.0</speed>
  <fix>3d</fix>
</trkpt>
<trkpt lat="40.0728961" lon="-105.230663">
  <ele>1585.95</ele>
  <time>2026-08-28T19:10:43Z</time>
  <course>12.62</course>
  <speed>0.022360679774997897</speed>
  <fix>3d</fix>
</trkpt>
<trkpt lat="40.072896" lon="-105.2306629">
  <ele>1585.86</ele>
  <time>2026-08-28T19:10:43Z</time>
  <course>128.18</course>
  <speed>0.0</speed>
  <fix>3d</fix>
</trkpt>
<trkpt lat="40.0728961" lon="-105.230663">
  <ele>1585.95</ele>
  <time>2026-08-28T19:10:43Z</time>
  <course>12.59</course>
  <speed>0.022360679774997897</speed>
  <fix>3d</fix>
</trkpt>
<trkpt lat="40.072896" lon="-105.2306629">
  <ele>1585.86</ele>
  <time>2026-08-28T19:10:43Z</time>
  <course>109.43</course>
  <speed>0.0</speed>
  <fix>3d</fix>
</trkpt>
<trkpt lat="40.0728961" lon="-105.230663">
  <ele>1585.95</ele>
  <time>2026-08-28T19:10:43Z</time>
  <course>12.56</course>
  <speed>0.022360679774997897</speed>
  <fix>3d</fix>
</trkpt>
<trkpt lat="40.072896" lon="-105.2306629">
  <ele>1585.86</ele>
  <time>2026-08-28T19:10:43Z</time>
  <course>110.19</course>
  <speed>0.0</speed>
  <fix>3d</fix>
</trkpt>
<trkpt lat="40.0728961" lon="-105.230663">
  <ele>1585.95</ele>
  <time>2026-08-28T19:10:43Z</time>
  <course>12.53</course>
  <speed>0.022360679774997897</speed>
  <fix>3d</fix>
</trkpt>
<trkpt lat="40.072896" lon="-105.2306629">
  <ele>1585.86</ele>
  <time>2026-08-28T19:10:43Z</time>
  <course>111.17</course>
  <speed>0.0</speed>
  <fix>3d</fix>
</trkpt>
<trkpt lat="40.0728961" lon="-105.230663">
  <ele>1585.94</ele>
  <time>2026-08-28T19:10:43Z</time>
  <course>12.5</course>
  <speed>0.022360679774997897</speed>
  <fix>3d</fix>
</trkpt>
<trkpt lat="40.072896" lon="-105.2306629">
  <ele>1585.86</ele>
  <time>2026-08-28T19:10:43Z</time>
  <course>110.84</course>
  <speed>0.0</speed>
  <fix>3d</fix>
</trkpt>
<trkpt lat="40.0728961" lon="-105.230663">
  <ele>1585.94</ele>
  <time>2026-08-28T19:10:43Z</time>
  <course>12.47</course>
  <speed>0.022360679774997897</speed>
  <fix>3d</fix>
</trkpt>
<trkpt lat="40.072896" lon="-105.2306629">
  <ele>1585.86</ele>
  <time>2026-08-28T19:10:43Z</time>
  <course>110.66</course>
  <speed>0.0</speed>
  <fix>3d</fix>
</trkpt>
<trkpt lat="40.0728961" lon="-105.230663">
  <ele>1585.94</ele>
  <time>2026-08-28T19:10:43Z</time>
  <course>12.44</course>
  <speed>0.022360679774997897</speed>
  <fix>3d</fix>
</trkpt>
<trkpt lat="40.072896" lon="-105.2306629">
  <ele>1585.86</ele>
  <time>2026-08-28T19:10:43Z</time>
  <course>277.83</course>
  <speed>0.0</speed>
  <fix>3d</fix>
</trkpt>
<trkpt lat="40.0728961" lon="-105.230663">
  <ele>1585.94</ele>
  <time>2026-08-28T19:10:43Z</time>
  <course>12.42</course>
  <speed>0.022360679774997897</speed>
  <fix>3d</fix>
</trkpt>
<trkpt lat="40.072896" lon="-105.2306629">
  <ele>1585.86</ele>
  <time>2026-08-28T19:10:43Z</time>
  <course>277.9</course>
  <speed>0.0</speed>
  <fix>3d</fix>
</trkpt>
<trkpt lat="40.0728961" lon="-105.230663">
  <ele>1585.93</ele>
  <time>2026-08-28T19:10:43Z</time>
  <course>12.39</course>
  <speed>0.022360679774997897</speed>
  <fix>3d</fix>
</trkpt>
<trkpt lat="40.072896" lon="-105.2306629">
  <ele>1585.86</ele>
  <time>2026-08-28T19:10:43Z</time>
  <course>275.4</course>
  <speed>0.0</speed>
  <fix>3d</fix>
</trkpt>
<trkpt lat="40.0728961" lon="-105.230663">
  <ele>1585.94</ele>
  <time>2026-08-28T19:10:43Z</time>
  <course>12.36</course>
  <speed>0.022360679774997897</speed>
  <fix>3d</fix>
</trkpt>
<trkpt lat="40.072896" lon="-105.2306629">
  <ele>1585.86</ele>
  <time>2026-08-28T19:10:43Z</time>
  <course>100.85</course>
  <speed>0.0</speed>
  <fix>3d</fix>
</trkpt>
<trkpt lat="40.0728961" lon="-105.230663">
  <ele>1585.94</ele>
  <time>2026-08-28T19:10:43Z</time>
  <course>12.33</course>
  <speed>0.022360679774997897</speed>
  <fix>3d</fix>
</trkpt>
<trkpt lat="40.072896" lon="-105.2306629">
  <ele>1585.86</ele>
  <time>2026-08-28T19:10:43Z</time>
  <course>212.51</course>
  <speed>0.0</speed>
  <fix>3d</fix>
</trkpt>
<trkpt lat="40.0728961" lon="-105.230663">
  <ele>1585.93</ele>
  <time>2026-08-28T19:10:43Z</time>
  <course>12.3</course>
  <speed>0.022360679774997897</speed>
  <fix>3d</fix>
</trkpt>
<trkpt lat="40.072896" lon="-105.2306629">
  <ele>1585.86</ele>
  <time>2026-08-28T19:10:43Z</time>
  <course>276.76</course>
  <speed>0.0</speed>
  <fix>3d</fix>
</trkpt>
<trkpt lat="40.0728961" lon="-105.230663">
  <ele>1585.93</ele>
  <time>2026-08-28T19:10:43Z</time>
  <course>12.28</course>
  <speed>0.022360679774997897</speed>
  <fix>3d</fix>
</trkpt>
<trkpt lat="40.072896" lon="-105.2306629">
  <ele>1585.86</ele>
  <time>2026-08-28T19:10:43Z</time>
  <course>277.4</course>
  <speed>0.0</speed>
  <fix>3d</fix>
</trkpt>
<trkpt lat="40.0728961" lon="-105.230663">
  <ele>1585.93</ele>
  <time>2026-08-28T19:10:43Z</time>
  <course>12.25</course>
  <speed>0.022360679774997897</speed>
  <fix>3d</fix>
</trkpt>
<trkpt lat="40.072896" lon="-105.2306629">
  <ele>1585.86</ele>
  <time>2026-08-28T19:10:43Z</time>
  <course>276.84</course>
  <speed>0.0</speed>
  <fix>3d</fix>
</trkpt>
<trkpt lat="40.0728961" lon="-105.230663">
  <ele>1585.93</ele>
  <time>2026-08-28T19:10:43Z</time>
  <course>12.22</course>
  <speed>0.022360679774997897</speed>
  <fix>3d</fix>
</trkpt>
<trkpt lat="40.072896" lon="-105.2306629">
  <ele>1585.86</ele>
  <time>2026-08-28T19:10:43Z</time>
  <course>101.57</course>
  <speed>0.0</speed>
  <fix>3d</fix>
</trkpt>
<trkpt lat="40.0728961" lon="-105.230663">
  <ele>1585.93</ele>
  <time>2026-08-28T19:10:43Z</time>
  <course>12.19</course>
  <speed>0.022360679774997897</speed>
  <fix>3d</fix>
</trkpt>
<trkpt lat="40.072896" lon="-105.2306629">
  <ele>1585.86</ele>
  <time>2026-08-28T19:10:43Z</time>
  <course>140.05</course>
  <speed>0.0</speed>
  <fix>3d</fix>
</trkpt>
<trkpt lat="40.0728961" lon="-105.230663">
  <ele>1585.93</ele>
  <time>2026-08-28T19:10:43Z</time>
  <course>12.17</course>
  <speed>0.022360679774997897</speed>
  <fix>3d</fix>
</trkpt>
<trkpt lat="40.072896" lon="-105.2306629">
  <ele>1585.86</ele>
  <time>2026-08-28T19:10:43Z</time>
  <course>269.01</course>
  <speed>0.0</speed>
  <fix>3d</fix>
</trkpt>
<trkpt lat="40.0728961" lon="-105.230663">
  <ele>1585.93</ele>
  <time>2026-08-28T19:10:44Z</time>
  <course>12.14</course>
  <speed>0.022360679774997897</speed>
  <fix>3d</fix>
</trkpt>
<trkpt lat="40.072896" lon="-105.2306629">
  <ele>1585.86</ele>
  <time>2026-08-28T19:10:44Z</time>
  <course>276.99</course>
  <speed>0.0</speed>
  <fix>3d</fix>
</trkpt>
<trkpt lat="40.0728961" lon="-105.230663">
  <ele>1585.93</ele>
  <time>2026-08-28T19:10:44Z</time>
  <course>12.11</course>
  <speed>0.022360679774997897</speed>
  <fix>3d</fix>
</trkpt>
<trkpt lat="40.072896" lon="-105.2306629">
  <ele>1585.86</ele>
  <time>2026-08-28T19:10:44Z</time>
  <course>277.0</course>
  <speed>0.0</speed>
  <fix>3d</fix>
</trkpt>
<trkpt lat="40.0728961" lon="-105.230663">
  <ele>1585.93</ele>
  <time>2026-08-28T19:10:44Z</time>
  <course>12.09</course>
  <speed>0.022360679774997897</speed>
  <fix>3d</fix>
</trkpt>
<trkpt lat="40.072896" lon="-105.2306629">
  <ele>1585.86</ele>
  <time>2026-08-28T19:10:44Z</time>
  <course>262.85</course>
  <speed>0.0</speed>
  <fix>3d</fix>
</trkpt>
<trkpt lat="40.0728961" lon="-105.230663">
  <ele>1585.93</ele>
  <time>2026-08-28T19:10:44Z</time>
  <course>12.06</course>
  <speed>0.022360679774997897</speed>
  <fix>3d</fix>
</trkpt>
<trkpt lat="40.072896" lon="-105.2306629">
  <ele>1585.86</ele>
  <time>2026-08-28T19:10:44Z</time>
  <course>105.85</course>
  <speed>0.0</speed>
  <fix>3d</fix>
</trkpt>
<trkpt lat="40.0728961" lon="-105.230663">
  <ele>1585.93</ele>
  <time>2026-08-28T19:10:44Z</time>
  <course>12.03</course>
  <speed>0.022360679774997897</speed>
  <fix>3d</fix>
</trkpt>
<trkpt lat="40.072896" lon="-105.2306629">
  <ele>1585.86</ele>
  <time>2026-08-28T19:10:44Z</time>
  <course>269.3</course>
  <speed>0.0</speed>
  <fix>3d</fix>
</trkpt>
<trkpt lat="40.0728961" lon="-105.230663">
  <ele>1585.93</ele>
  <time>2026-08-28T19:10:44Z</time>
  <course>12.01</course>
  <speed>0.022360679774997897</speed>
  <fix>3d</fix>
</trkpt>
<trkpt lat="40.072896" lon="-105.2306629">
  <ele>1585.86</ele>
  <time>2026-08-28T19:10:44Z</time>
  <course>333.81</course>
  <speed>0.0</speed>
  <fix>3d</fix>
</trkpt>
<trkpt lat="40.0728961" lon="-105.230663">
  <ele>1585.93</ele>
  <time>2026-08-28T19:10:44Z</time>
  <course>11.98</course>
  <speed>0.022360679774997897</speed>
  <fix>3d</fix>
</trkpt>
<trkpt lat="40.072896" lon="-105.2306629">
  <ele>1585.86</ele>
  <time>2026-08-28T19:10:44Z</time>
  <course>294.84</course>
  <speed>0.0</speed>
  <fix>3d</fix>
</trkpt>
<trkpt lat="40.0728961" lon="-105.230663">
  <ele>1585.94</ele>
  <time>2026-08-28T19:10:44Z</time>
  <course>11.96</course>
  <speed>0.022360679774997897</speed>
  <fix>3d</fix>
</trkpt>
<trkpt lat="40.072896" lon="-105.2306629">
  <ele>1585.86</ele>
  <time>2026-08-28T19:10:44Z</time>
  <course>276.28</course>
  <speed>0.0</speed>
  <fix>3d</fix>
</trkpt>
<trkpt lat="40.0728961" lon="-105.230663">
  <ele>1585.94</ele>
  <time>2026-08-28T19:10:44Z</time>
  <course>11.93</course>
  <speed>0.022360679774997897</speed>
  <fix>3d</fix>
</trkpt>
<trkpt lat="40.072896" lon="-105.2306629">
  <ele>1585.86</ele>
  <time>2026-08-28T19:10:44Z</time>
  <course>126.06</course>
  <speed>0.0</speed>
  <fix>3d</fix>
</trkpt>
<trkpt lat="40.0728961" lon="-105.230663">
  <ele>1585.94</ele>
  <time>2026-08-28T19:10:44Z</time>
  <course>11.91</course>
  <speed>0.022360679774997897</speed>
  <fix>3d</fix>
</trkpt>
<trkpt lat="40.072896" lon="-105.2306629">
  <ele>1585.86</ele>
  <time>2026-08-28T19:10:44Z</time>
  <course>289.04</course>
  <speed>0.0</speed>
  <fix>3d</fix>
</trkpt>
<trkpt lat="40.0728961" lon="-105.230663">
  <ele>1585.95</ele>
  <time>2026-08-28T19:10:44Z</time>
  <course>11.88</course>
  <speed>0.022360679774997897</speed>
  <fix>3d</fix>
</trkpt>
<trkpt lat="40.072896" lon="-105.2306629">
  <ele>1585.86</ele>
  <time>2026-08-28T19:10:44Z</time>
  <course>277.63</course>
  <speed>0.0</speed>
  <fix>3d</fix>
</trkpt>
<trkpt lat="40.0728961" lon="-105.230663">
  <ele>1585.95</ele>
  <time>2026-08-28T19:10:44Z</time>
  <course>11.85</course>
  <speed>0.022360679774997897</speed>
  <fix>3d</fix>
</trkpt>
<trkpt lat="40.072896" lon="-105.2306629">
  <ele>1585.86</ele>
  <time>2026-08-28T19:10:44Z</time>
  <course>273.46</course>
  <speed>0.0</speed>
  <fix>3d</fix>
</trkpt>
<trkpt lat="40.0728961" lon="-105.230663">
  <ele>1585.95</ele>
  <time>2026-08-28T19:10:44Z</time>
  <course>11.83</course>
  <speed>0.022360679774997897</speed>
  <fix>3d</fix>
</trkpt>
<trkpt lat="40.072896" lon="-105.2306629">
  <ele>1585.86</ele>
  <time>2026-08-28T19:10:44Z</time>
  <course>276.52</course>
  <speed>0.0</speed>
  <fix>3d</fix>
</trkpt>
<trkpt lat="40.0728961" lon="-105.230663">
  <ele>1585.94</ele>
  <time>2026-08-28T19:10:44Z</time>
  <course>11.8</course>
  <speed>0.022360679774997897</speed>
  <fix>3d</fix>
</trkpt>
<trkpt lat="40.072896" lon="-105.2306629">
  <ele>1585.86</ele>
  <time>2026-08-28T19:10:44Z</time>
  <course>276.6</course>
  <speed>0.0</speed>
  <fix>3d</fix>
</trkpt>
<trkpt lat="40.0728961" lon="-105.230663">
  <ele>1585.94</ele>
  <time>2026-08-28T19:10:44Z</time>
  <course>11.78</course>
  <speed>0.01414213562373095</speed>
  <fix>3d</fix>
</trkpt>
<trkpt lat="40.072896" lon="-105.2306629">
  <ele>1585.86</ele>
  <time>2026-08-28T19:10:44Z</time>
  <course>275.51</course>
  <speed>0.0</speed>
  <fix>3d</fix>
</trkpt>
<trkpt lat="40.0728961" lon="-105.230663">
  <ele>1585.94</ele>
  <time>2026-08-28T19:10:44Z</time>
  <course>11.75</course>
  <speed>0.01414213562373095</speed>
  <fix>3d</fix>
</trkpt>
<trkpt lat="40.072896" lon="-105.2306629">
  <ele>1585.86</ele>
  <time>2026-08-28T19:10:44Z</time>
  <course>104.23</course>
  <speed>0.0</speed>
  <fix>3d</fix>
</trkpt>
<trkpt lat="40.0728961" lon="-105.230663">
  <ele>1585.94</ele>
  <time>2026-08-28T19:10:44Z</time>
  <course>11.73</course>
  <speed>0.01414213562373095</speed>
  <fix>3d</fix>
</trkpt>
<trkpt lat="40.072896" lon="-105.2306629">
  <ele>1585.86</ele>
  <time>2026-08-28T19:10:44Z</time>
  <course>273.8</course>
  <speed>0.0</speed>
  <fix>3d</fix>
</trkpt>
<trkpt lat="40.0728961" lon="-105.230663">
  <ele>1585.94</ele>
  <time>2026-08-28T19:10:44Z</time>
  <course>11.71</course>
  <speed>0.01414213562373095</speed>
  <fix>3d</fix>
</trkpt>
<trkpt lat="40.072896" lon="-105.2306629">
  <ele>1585.86</ele>
  <time>2026-08-28T19:10:44Z</time>
  <course>274.23</course>
  <speed>0.0</speed>
  <fix>3d</fix>
</trkpt>
<trkpt lat="40.0728961" lon="-105.230663">
  <ele>1585.94</ele>
  <time>2026-08-28T19:10:44Z</time>
  <course>11.68</course>
  <speed>0.01414213562373095</speed>
  <fix>3d</fix>
</trkpt>
<trkpt lat="40.072896" lon="-105.2306629">
  <ele>1585.86</ele>
  <time>2026-08-28T19:10:44Z</time>
  <course>276.07</course>
  <speed>0.0</speed>
  <fix>3d</fix>
</trkpt>
<trkpt lat="40.0728961" lon="-105.230663">
  <ele>1585.94</ele>
  <time>2026-08-28T19:10:44Z</time>
  <course>11.66</course>
  <speed>0.01414213562373095</speed>
  <fix>3d</fix>
</trkpt>
<trkpt lat="40.072896" lon="-105.2306629">
  <ele>1585.86</ele>
  <time>2026-08-28T19:10:44Z</time>
  <course>276.17</course>
  <speed>0.0</speed>
  <fix>3d</fix>
</trkpt>
<trkpt lat="40.0728961" lon="-105.230663">
  <ele>1585.94</ele>
  <time>2026-08-28T19:10:44Z</time>
  <course>11.63</course>
  <speed>0.01414213562373095</speed>
  <fix>3d</fix>
</trkpt>
<trkpt lat="40.072896" lon="-105.2306629">
  <ele>1585.86</ele>
  <time>2026-08-28T19:10:44Z</time>
  <course>275.39</course>
  <speed>0.0</speed>
  <fix>3d</fix>
</trkpt>
<trkpt lat="40.0728961" lon="-105.230663">
  <ele>1585.94</ele>
  <time>2026-08-28T19:10:44Z</time>
  <course>11.61</course>
  <speed>0.01414213562373095</speed>
  <fix>3d</fix>
</trkpt>
<trkpt lat="40.072896" lon="-105.2306629">
  <ele>1585.86</ele>
  <time>2026-08-28T19:10:44Z</time>
  <course>110.52</course>
  <speed>0.0</speed>
  <fix>3d</fix>
</trkpt>
<trkpt lat="40.0728961" lon="-105.230663">
  <ele>1585.94</ele>
  <time>2026-08-28T19:10:44Z</time>
  <course>11.59</course>
  <speed>0.01414213562373095</speed>
  <fix>3d</fix>
</trkpt>
<trkpt lat="40.072896" lon="-105.2306629">
  <ele>1585.86</ele>
  <time>2026-08-28T19:10:44Z</time>
  <course>273.09</course>
  <speed>0.0</speed>
  <fix>3d</fix>
</trkpt>
<trkpt lat="40.0728961" lon="-105.230663">
  <ele>1585.94</ele>
  <time>2026-08-28T19:10:44Z</time>
  <course>11.56</course>
  <speed>0.01414213562373095</speed>
  <fix>3d</fix>
</trkpt>
<trkpt lat="40.072896" lon="-105.2306629">
  <ele>1585.86</ele>
  <time>2026-08-28T19:10:44Z</time>
  <course>273.81</course>
  <speed>0.0</speed>
  <fix>3d</fix>
</trkpt>
<trkpt lat="40.0728961" lon="-105.230663">
  <ele>1585.94</ele>
  <time>2026-08-28T19:10:44Z</time>
  <course>11.54</course>
  <speed>0.01414213562373095</speed>
  <fix>3d</fix>
</trkpt>
<trkpt lat="40.072896" lon="-105.2306629">
  <ele>1585.86</ele>
  <time>2026-08-28T19:10:44Z</time>
  <course>273.26</course>
  <speed>0.0</speed>
  <fix>3d</fix>
</trkpt>
<trkpt lat="40.0728961" lon="-105.230663">
  <ele>1585.94</ele>
  <time>2026-08-28T19:10:44Z</time>
  <course>11.52</course>
  <speed>0.01414213562373095</speed>
  <fix>3d</fix>
</trkpt>
<trkpt lat="40.072896" lon="-105.2306629">
  <ele>1585.86</ele>
  <time>2026-08-28T19:10:44Z</time>
  <course>279.42</course>
  <speed>0.0</speed>
  <fix>3d</fix>
</trkpt>
<trkpt lat="40.0728961" lon="-105.230663">
  <ele>1585.94</ele>
  <time>2026-08-28T19:10:44Z</time>
  <course>11.49</course>
  <speed>0.01414213562373095</speed>
  <fix>3d</fix>
</trkpt>
<trkpt lat="40.072896" lon="-105.2306629">
  <ele>1585.86</ele>
  <time>2026-08-28T19:10:44Z</time>
  <course>275.48</course>
  <speed>0.0</speed>
  <fix>3d</fix>
</trkpt>
<trkpt lat="40.0728961" lon="-105.230663">
  <ele>1585.94</ele>
  <time>2026-08-28T19:10:44Z</time>
  <course>11.47</course>
  <speed>0.01414213562373095</speed>
  <fix>3d</fix>
</trkpt>
<trkpt lat="40.072896" lon="-105.2306629">
  <ele>1585.86</ele>
  <time>2026-08-28T19:10:44Z</time>
  <course>249.24</course>
  <speed>0.0</speed>
  <fix>3d</fix>
</trkpt>
<trkpt lat="40.0728961" lon="-105.230663">
  <ele>1585.94</ele>
  <time>2026-08-28T19:10:44Z</time>
  <course>11.45</course>
  <speed>0.01414213562373095</speed>
  <fix>3d</fix>
</trkpt>
<trkpt lat="40.072896" lon="-105.2306629">
  <ele>1585.86</ele>
  <time>2026-08-28T19:10:44Z</time>
  <course>255.31</course>
  <speed>0.0</speed>
  <fix>3d</fix>
</trkpt>
<trkpt lat="40.0728961" lon="-105.230663">
  <ele>1585.94</ele>
  <time>2026-08-28T19:10:44Z</time>
  <course>11.42</course>
  <speed>0.01414213562373095</speed>
  <fix>3d</fix>
</trkpt>
<trkpt lat="40.072896" lon="-105.2306629">
  <ele>1585.86</ele>
  <time>2026-08-28T19:10:44Z</time>
  <course>276.45</course>
  <speed>0.0</speed>
  <fix>3d</fix>
</trkpt>
<trkpt lat="40.0728961" lon="-105.230663">
  <ele>1585.94</ele>
  <time>2026-08-28T19:10:44Z</time>
  <course>11.4</course>
  <speed>0.01414213562373095</speed>
  <fix>3d</fix>
</trkpt>
<trkpt lat="40.072896" lon="-105.2306629">
  <ele>1585.86</ele>
  <time>2026-08-28T19:10:44Z</time>
  <course>272.72</course>
  <speed>0.0</speed>
  <fix>3d</fix>
</trkpt>
<trkpt lat="40.0728961" lon="-105.230663">
  <ele>1585.94</ele>
  <time>2026-08-28T19:10:44Z</time>
  <course>11.38</course>
  <speed>0.01414213562373095</speed>
  <fix>3d</fix>
</trkpt>
<trkpt lat="40.072896" lon="-105.2306629">
  <ele>1585.86</ele>
  <time>2026-08-28T19:10:44Z</time>
  <course>275.12</course>
  <speed>0.0</speed>
  <fix>3d</fix>
</trkpt>
<trkpt lat="40.0728961" lon="-105.230663">
  <ele>1585.94</ele>
  <time>2026-08-28T19:10:44Z</time>
  <course>11.35</course>
  <speed>0.01414213562373095</speed>
  <fix>3d</fix>
</trkpt>
<trkpt lat="40.072896" lon="-105.2306629">
  <ele>1585.86</ele>
  <time>2026-08-28T19:10:44Z</time>
  <course>275.29</course>
  <speed>0.0</speed>
  <fix>3d</fix>
</trkpt>
<trkpt lat="40.0728961" lon="-105.230663">
  <ele>1585.94</ele>
  <time>2026-08-28T19:10:44Z</time>
  <course>11.33</course>
  <speed>0.01414213562373095</speed>
  <fix>3d</fix>
</trkpt>
<trkpt lat="40.072896" lon="-105.2306629">
  <ele>1585.86</ele>
  <time>2026-08-28T19:10:44Z</time>
  <course>273.72</course>
  <speed>0.0</speed>
  <fix>3d</fix>
</trkpt>
<trkpt lat="40.0728961" lon="-105.230663">
  <ele>1585.93</ele>
  <time>2026-08-28T19:10:44Z</time>
  <course>11.31</course>
  <speed>0.01414213562373095</speed>
  <fix>3d</fix>
</trkpt>
<trkpt lat="40.072896" lon="-105.2306629">
  <ele>1585.86</ele>
  <time>2026-08-28T19:10:44Z</time>
  <course>261.83</course>
  <speed>0.0</speed>
  <fix>3d</fix>
</trkpt>
<trkpt lat="40.0728961" lon="-105.230663">
  <ele>1585.93</ele>
  <time>2026-08-28T19:10:44Z</time>
  <course>11.29</course>
  <speed>0.01414213562373095</speed>
  <fix>3d</fix>
</trkpt>
<trkpt lat="40.072896" lon="-105.2306629">
  <ele>1585.86</ele>
  <time>2026-08-28T19:10:44Z</time>
  <course>272.54</course>
  <speed>0.0</speed>
  <fix>3d</fix>
</trkpt>
<trkpt lat="40.0728961" lon="-105.230663">
  <ele>1585.93</ele>
  <time>2026-08-28T19:10:44Z</time>
  <course>11.26</course>
  <speed>0.01414213562373095</speed>
  <fix>3d</fix>
</trkpt>
<trkpt lat="40.072896" lon="-105.2306629">
  <ele>1585.86</ele>
  <time>2026-08-28T19:10:44Z</time>
  <course>272.74</course>
  <speed>0.0</speed>
  <fix>3d</fix>
</trkpt>
<trkpt lat="40.0728961" lon="-105.230663">
  <ele>1585.93</ele>
  <time>2026-08-28T19:10:44Z</time>
  <course>11.24</course>
  <speed>0.01414213562373095</speed>
  <fix>3d</fix>
</trkpt>
<trkpt lat="40.072896" lon="-105.2306629">
  <ele>1585.86</ele>
  <time>2026-08-28T19:10:44Z</time>
  <course>272.33</course>
  <speed>0.0</speed>
  <fix>3d</fix>
</trkpt>
<trkpt lat="40.0728961" lon="-105.230663">
  <ele>1585.93</ele>
  <time>2026-08-28T19:10:44Z</time>
  <course>11.22</course>
  <speed>0.01414213562373095</speed>
  <fix>3d</fix>
</trkpt>
<trkpt lat="40.072896" lon="-105.2306629">
  <ele>1585.86</ele>
  <time>2026-08-28T19:10:44Z</time>
  <course>274.62</course>
  <speed>0.0</speed>
  <fix>3d</fix>
</trkpt>
<trkpt lat="40.0728961" lon="-105.230663">
  <ele>1585.93</ele>
  <time>2026-08-28T19:10:44Z</time>
  <course>11.2</course>
  <speed>0.01414213562373095</speed>
  <fix>3d</fix>
</trkpt>
<trkpt lat="40.072896" lon="-105.2306629">
  <ele>1585.86</ele>
  <time>2026-08-28T19:10:44Z</time>
  <course>274.84</course>
  <speed>0.0</speed>
  <fix>3d</fix>
</trkpt>
<trkpt lat="40.0728961" lon="-105.230663">
  <ele>1585.93</ele>
  <time>2026-08-28T19:10:44Z</time>
  <course>11.17</course>
  <speed>0.01414213562373095</speed>
  <fix>3d</fix>
</trkpt>
<trkpt lat="40.072896" lon="-105.2306629">
  <ele>1585.86</ele>
  <time>2026-08-28T19:10:44Z</time>
  <course>273.98</course>
  <speed>0.0</speed>
  <fix>3d</fix>
</trkpt>
<trkpt lat="40.0728961" lon="-105.230663">
  <ele>1585.93</ele>
  <time>2026-08-28T19:10:44Z</time>
  <course>11.15</course>
  <speed>0.022360679774997897</speed>
  <fix>3d</fix>
</trkpt>
<trkpt lat="40.072896" lon="-105.2306629">
  <ele>1585.86</ele>
  <time>2026-08-28T19:10:44Z</time>
  <course>262.58</course>
  <speed>0.0</speed>
  <fix>3d</fix>
</trkpt>
<trkpt lat="40.0728961" lon="-105.230663">
  <ele>1585.94</ele>
  <time>2026-08-28T19:10:44Z</time>
  <course>11.13</course>
  <speed>0.022360679774997897</speed>
  <fix>3d</fix>
</trkpt>
<trkpt lat="40.072896" lon="-105.2306629">
  <ele>1585.86</ele>
  <time>2026-08-28T19:10:44Z</time>
  <course>271.89</course>
  <speed>0.0</speed>
  <fix>3d</fix>
</trkpt>
<trkpt lat="40.0728961" lon="-105.230663">
  <ele>1585.94</ele>
  <time>2026-08-28T19:10:44Z</time>
  <course>11.11</course>
  <speed>0.01414213562373095</speed>
  <fix>3d</fix>
</trkpt>
<trkpt lat="40.072896" lon="-105.2306629">
  <ele>1585.86</ele>
  <time>2026-08-28T19:10:44Z</time>
  <course>247.0</course>
  <speed>0.0</speed>
  <fix>3d</fix>
</trkpt>
<trkpt lat="40.0728961" lon="-105.230663">
  <ele>1585.94</ele>
  <time>2026-08-28T19:10:44Z</time>
  <course>11.09</course>
  <speed>0.022360679774997897</speed>
  <fix>3d</fix>
</trkpt>
<trkpt lat="40.072896" lon="-105.2306629">
  <ele>1585.86</ele>
  <time>2026-08-28T19:10:44Z</time>
  <course>258.31</course>
  <speed>0.0</speed>
  <fix>3d</fix>
</trkpt>
<trkpt lat="40.0728961" lon="-105.230663">
  <ele>1585.94</ele>
  <time>2026-08-28T19:10:44Z</time>
  <course>11.08</course>
  <speed>0.022360679774997897</speed>
  <fix>3d</fix>
</trkpt>
<trkpt lat="40.072896" lon="-105.2306629">
  <ele>1585.86</ele>
  <time>2026-08-28T19:10:44Z</time>
  <course>268.32</course>
  <speed>0.0</speed>
  <fix>3d</fix>
</trkpt>
<trkpt lat="40.0728961" lon="-105.230663">
  <ele>1585.94</ele>
  <time>2026-08-28T19:10:44Z</time>
  <course>11.06</course>
  <speed>0.01414213562373095</speed>
  <fix>3d</fix>
</trkpt>
<trkpt lat="40.072896" lon="-105.2306629">
  <ele>1585.86</ele>
  <time>2026-08-28T19:10:44Z</time>
  <course>273.9</course>
  <speed>0.0</speed>
  <fix>3d</fix>
</trkpt>
<trkpt lat="40.0728961" lon="-105.230663">
  <ele>1585.94</ele>
  <time>2026-08-28T19:10:44Z</time>
  <course>11.06</course>
  <speed>0.01414213562373095</speed>
  <fix>3d</fix>
</trkpt>
<trkpt lat="40.0728961" lon="-105.230663">
  <ele>1585.94</ele>
  <time>2026-08-28T19:10:44Z</time>
  <course>11.04</course>
  <speed>0.01414213562373095</speed>
  <fix>3d</fix>
</trkpt>
<trkpt lat="40.072896" lon="-105.2306629">
  <ele>1585.86</ele>
  <time>2026-08-28T19:10:44Z</time>
  <course>271.64</course>
  <speed>0.0</speed>
  <fix>3d</fix>
</trkpt>
<trkpt lat="40.0728961" lon="-105.230663">
  <ele>1585.94</ele>
  <time>2026-08-28T19:10:44Z</time>
  <course>11.04</course>
  <speed>0.01414213562373095</speed>
  <fix>3d</fix>
</trkpt>
<trkpt lat="40.0728961" lon="-105.230663">
  <ele>1585.93</ele>
  <time>2026-08-28T19:10:44Z</time>
  <course>11.0</course>
  <speed>0.01414213562373095</speed>
  <fix>3d</fix>
</trkpt>
<trkpt lat="40.072896" lon="-105.2306629">
  <ele>1585.86</ele>
  <time>2026-08-28T19:10:44Z</time>
  <course>271.94</course>
  <speed>0.0</speed>
  <fix>3d</fix>
</trkpt>
<trkpt lat="40.0728961" lon="-105.230663">
  <ele>1585.93</ele>
  <time>2026-08-28T19:10:44Z</time>
  <course>11.0</course>
  <speed>0.01414213562373095</speed>
  <fix>3d</fix>
</trkpt>
<trkpt lat="40.0728961" lon="-105.230663">
  <ele>1585.95</ele>
  <time>2026-08-28T19:10:44Z</time>
  <course>10.94</course>
  <speed>0.022360679774997897</speed>
  <fix>3d</fix>
</trkpt>
<trkpt lat="40.072896" lon="-105.2306629">
  <ele>1585.86</ele>
  <time>2026-08-28T19:10:44Z</time>
  <course>271.35</course>
  <speed>0.0</speed>
  <fix>3d</fix>
</trkpt>
<trkpt lat="40.0728961" lon="-105.230663">
  <ele>1585.96</ele>
  <time>2026-08-28T19:10:44Z</time>
  <course>10.93</course>
  <speed>0.022360679774997897</speed>
  <fix>3d</fix>
</trkpt>
<trkpt lat="40.0728961" lon="-105.230663">
  <ele>1586.01</ele>
  <time>2026-08-28T19:10:44Z</time>
  <course>10.86</course>
  <speed>0.022360679774997897</speed>
  <fix>3d</fix>
</trkpt>
<trkpt lat="40.072896" lon="-105.2306629">
  <ele>1585.89</ele>
  <time>2026-08-28T19:10:44Z</time>
  <course>273.44</course>
  <speed>0.0</speed>
  <fix>3d</fix>
</trkpt>
<trkpt lat="40.0728961" lon="-105.230663">
  <ele>1586.01</ele>
  <time>2026-08-28T19:10:44Z</time>
  <course>10.85</course>
  <speed>0.01414213562373095</speed>
  <fix>3d</fix>
</trkpt>
<trkpt lat="40.0728961" lon="-105.230663">
  <ele>1586.05</ele>
  <time>2026-08-28T19:10:44Z</time>
  <course>10.77</course>
  <speed>0.022360679774997897</speed>
  <fix>3d</fix>
</trkpt>
<trkpt lat="40.072896" lon="-105.2306629">
  <ele>1585.94</ele>
  <time>2026-08-28T19:10:44Z</time>
  <course>24.43</course>
  <speed>0.0</speed>
  <fix>3d</fix>
</trkpt>
<trkpt lat="40.0728961" lon="-105.230663">
  <ele>1586.06</ele>
  <time>2026-08-28T19:10:44Z</time>
  <course>10.46</course>
  <speed>0.022360679774997897</speed>
  <fix>3d</fix>
</trkpt>
<trkpt lat="40.0728961" lon="-105.230663">
  <ele>1586.19</ele>
  <time>2026-08-28T19:10:44Z</time>
  <course>1.8</course>
  <speed>0.1019803902718557</speed>
  <fix>3d</fix>
</trkpt>
<trkpt lat="40.072896" lon="-105.2306629">
  <ele>1586.02</ele>
  <time>2026-08-28T19:10:44Z</time>
  <course>267.88</course>
  <speed>0.02</speed>
  <fix>3d</fix>
</trkpt>
<trkpt lat="40.0728961" lon="-105.2306631">
  <ele>1586.22</ele>
  <time>2026-08-28T19:10:44Z</time>
  <course>0.92</course>
  <speed>0.12165525060596438</speed>
  <fix>3d</fix>
</trkpt>
<trkpt lat="40.0728961" lon="-105.2306634">
  <ele>1586.43</ele>
  <time>2026-08-28T19:10:44Z</time>
  <course>359.39</course>
  <speed>0.2</speed>
  <fix>3d</fix>
</trkpt>
<trkpt lat="40.072896" lon="-105.230663">
  <ele>1586.19</ele>
  <time>2026-08-28T19:10:44Z</time>
  <course>262.99</course>
  <speed>0.1</speed>
  <fix>3d</fix>
</trkpt>
<trkpt lat="40.0728961" lon="-105.2306635">
  <ele>1586.45</ele>
  <time>2026-08-28T19:10:44Z</time>
  <course>359.39</course>
  <speed>0.2</speed>
  <fix>3d</fix>
</trkpt>
<trkpt lat="40.0728961" lon="-105.2306639">
  <ele>1586.57</ele>
  <time>2026-08-28T19:10:44Z</time>
  <course>358.89</course>
  <speed>0.23021728866442676</speed>
  <fix>3d</fix>
</trkpt>
<trkpt lat="40.072896" lon="-105.2306634">
  <ele>1586.39</ele>
  <time>2026-08-28T19:10:44Z</time>
  <course>258.91</course>
  <speed>0.19</speed>
  <fix>3d</fix>
</trkpt>
<trkpt lat="40.0728961" lon="-105.2306639">
  <ele>1586.57</ele>
  <time>2026-08-28T19:10:44Z</time>
  <course>358.88</course>
  <speed>0.23021728866442676</speed>
  <fix>3d</fix>
</trkpt>
<trkpt lat="40.072896" lon="-105.2306644">
  <ele>1586.67</ele>
  <time>2026-08-28T19:10:44Z</time>
  <course>357.94</course>
  <speed>0.24515301344262524</speed>
  <fix>3d</fix>
</trkpt>
<trkpt lat="40.0728959" lon="-105.2306639">
  <ele>1586.52</ele>
  <time>2026-08-28T19:10:44Z</time>
  <course>253.0</course>
  <speed>0.22</speed>
  <fix>3d</fix>
</trkpt>
<trkpt lat="40.072896" lon="-105.2306644">
  <ele>1586.69</ele>
  <time>2026-08-28T19:10:44Z</time>
  <course>357.86</course>
  <speed>0.24515301344262524</speed>
  <fix>3d</fix>
</trkpt>
<trkpt lat="40.0728959" lon="-105.2306649">
  <ele>1586.78</ele>
  <time>2026-08-28T19:10:44Z</time>
  <course>357.61</course>
  <speed>0.2529822128134704</speed>
  <fix>3d</fix>
</trkpt>
<trkpt lat="40.0728958" lon="-105.2306644">
  <ele>1586.63</ele>
  <time>2026-08-28T19:10:44Z</time>
  <course>246.21</course>
  <speed>0.25</speed>
  <fix>3d</fix>
</trkpt>
<trkpt lat="40.0728958" lon="-105.230665">
  <ele>1586.79</ele>
  <time>2026-08-28T19:10:44Z</time>
  <course>357.6</course>
  <speed>0.25632011235952595</speed>
  <fix>3d</fix>
</trkpt>
<trkpt lat="40.0728956" lon="-105.2306654">
  <ele>1586.88</ele>
  <time>2026-08-28T19:10:44Z</time>
  <course>357.65</course>
  <speed>0.25942243542145693</speed>
  <fix>3d</fix>
</trkpt>
<trkpt lat="40.0728955" lon="-105.2306649">
  <ele>1586.72</ele>
  <time>2026-08-28T19:10:44Z</time>
  <course>239.27</course>
  <speed>0.26</speed>
  <fix>3d</fix>
</trkpt>
<trkpt lat="40.0728956" lon="-105.2306655">
  <ele>1586.89</ele>
  <time>2026-08-28T19:10:44Z</time>
  <course>357.66</course>
  <speed>0.25942243542145693</speed>
  <fix>3d</fix>
</trkpt>
<trkpt lat="40.0728953" lon="-105.2306659">
  <ele>1586.98</ele>
  <time>2026-08-28T19:10:44Z</time>
  <course>357.75</course>
  <speed>0.266270539113887</speed>
  <fix>3d</fix>
</trkpt>
<trkpt lat="40.0728952" lon="-105.2306655">
  <ele>1586.81</ele>
  <time>2026-08-28T19:10:44Z</time>
  <course>232.42</course>
  <speed>0.26</speed>
  <fix>3d</fix>
</trkpt>
<trkpt lat="40.0728953" lon="-105.2306659">
  <ele>1586.98</ele>
  <time>2026-08-28T19:10:44Z</time>
  <course>357.75</course>
  <speed>0.266270539113887</speed>
  <fix>3d</fix>
</trkpt>
<trkpt lat="40.0728949" lon="-105.2306664">
  <ele>1587.08</ele>
  <time>2026-08-28T19:10:44Z</time>
  <course>357.95</course>
  <speed>0.2765863337187866</speed>
  <fix>3d</fix>
</trkpt>
<trkpt lat="40.0728949" lon="-105.230666">
  <ele>1586.9</ele>
  <time>2026-08-28T19:10:44Z</time>
  <course>226.06</course>
  <speed>0.27</speed>
  <fix>3d</fix>
</trkpt>
<trkpt lat="40.0728949" lon="-105.2306664">
  <ele>1587.09</ele>
  <time>2026-08-28T19:10:44Z</time>
  <course>357.99</course>
  <speed>0.2765863337187866</speed>
  <fix>3d</fix>
</trkpt>
<trkpt lat="40.0728945" lon="-105.2306668">
  <ele>1587.18</ele>
  <time>2026-08-28T19:10:44Z</time>
  <course>358.24</course>
  <speed>0.282842712474619</speed>
  <fix>3d</fix>
</trkpt>
<trkpt lat="40.0728946" lon="-105.2306664">
  <ele>1587.01</ele>
  <time>2026-08-28T19:10:44Z</time>
  <course>220.46</course>
  <speed>0.28</speed>
  <fix>3d</fix>
</trkpt>
<trkpt lat="40.0728945" lon="-105.2306668">
  <ele>1587.18</ele>
  <time>2026-08-28T19:10:44Z</time>
  <course>358.24</course>
  <speed>0.282842712474619</speed>
  <fix>3d</fix>
</trkpt>
<trkpt lat="40.0728941" lon="-105.2306672">
  <ele>1587.29</ele>
  <time>2026-08-28T19:10:44Z</time>
  <course>358.57</course>
  <speed>0.29832867780352595</speed>
  <fix>3d</fix>
</trkpt>
<trkpt lat="40.0728941" lon="-105.2306668">
  <ele>1587.11</ele>
  <time>2026-08-28T19:10:44Z</time>
  <course>215.62</course>
  <speed>0.29</speed>
  <fix>3d</fix>
</trkpt>
<trkpt lat="40.072894" lon="-105.2306673">
  <ele>1587.31</ele>
  <time>2026-08-28T19:10:44Z</time>
  <course>358.62</course>
  <speed>0.29832867780352595</speed>
  <fix>3d</fix>
</trkpt>
<trkpt lat="40.0728936" lon="-105.2306676">
  <ele>1587.41</ele>
  <time>2026-08-28T19:10:44Z</time>
  <course>358.91</course>
  <speed>0.3080584360149873</speed>
  <fix>3d</fix>
</trkpt>
<trkpt lat="40.0728937" lon="-105.2306672">
  <ele>1587.21</ele>
  <time>2026-08-28T19:10:44Z</time>
  <course>211.53</course>
  <speed>0.3</speed>
  <fix>3d</fix>
</trkpt>
<trkpt lat="40.0728935" lon="-105.2306677">
  <ele>1587.42</ele>
  <time>2026-08-28T19:10:44Z</time>
  <course>358.96</course>
  <speed>0.31622776601683794</speed>
  <fix>3d</fix>
</trkpt>
<trkpt lat="40.0728931" lon="-105.230668">
  <ele>1587.52</ele>
  <time>2026-08-28T19:10:44Z</time>
  <course>359.3</course>
  <speed>0.327566787083184</speed>
  <fix>3d</fix>
</trkpt>
<trkpt lat="40.0728932" lon="-105.2306676">
  <ele>1587.33</ele>
  <time>2026-08-28T19:10:44Z</time>
  <course>208.05</course>
  <speed>0.32</speed>
  <fix>3d</fix>
</trkpt>
<trkpt lat="40.0728931" lon="-105.230668">
  <ele>1587.53</ele>
  <time>2026-08-28T19:10:44Z</time>
  <course>359.31</course>
  <speed>0.327566787083184</speed>
  <fix>3d</fix>
</trkpt>
<trkpt lat="40.0728925" lon="-105.2306683">
  <ele>1587.64</ele>
  <time>2026-08-28T19:10:44Z</time>
  <course>359.7</course>
  <speed>0.34</speed>
  <fix>3d</fix>
</trkpt>
<trkpt lat="40.0728927" lon="-105.2306679">
  <ele>1587.44</ele>
  <time>2026-08-28T19:10:44Z</time>
  <course>205.11</course>
  <speed>0.33</speed>
  <fix>3d</fix>
</trkpt>
<trkpt lat="40.0728924" lon="-105.2306684">
  <ele>1587.66</ele>
  <time>2026-08-28T19:10:44Z</time>
  <course>359.75</course>
  <speed>0.34</speed>
  <fix>3d</fix>
</trkpt>
<trkpt lat="40.0728919" lon="-105.2306686">
  <ele>1587.76</ele>
  <time>2026-08-28T19:10:44Z</time>
  <course>0.09</course>
  <speed>0.35777087639996635</speed>
  <fix>3d</fix>
</trkpt>
<trkpt lat="40.0728921" lon="-105.2306682">
  <ele>1587.56</ele>
  <time>2026-08-28T19:10:44Z</time>
  <course>202.71</course>
  <speed>0.35</speed>
  <fix>3d</fix>
</trkpt>
<trkpt lat="40.0728918" lon="-105.2306687">
  <ele>1587.78</ele>
  <time>2026-08-28T19:10:44Z</time>
  <course>0.15</course>
  <speed>0.35777087639996635</speed>
  <fix>3d</fix>
</trkpt>
<trkpt lat="40.0728913" lon="-105.2306689">
  <ele>1587.88</ele>
  <time>2026-08-28T19:10:44Z</time>
  <course>0.52</course>
  <speed>0.3716180835212409</speed>
  <fix>3d</fix>
</trkpt>
<trkpt lat="40.0728915" lon="-105.2306686">
  <ele>1587.67</ele>
  <time>2026-08-28T19:10:44Z</time>
  <course>200.76</course>
  <speed>0.36</speed>
  <fix>3d</fix>
</trkpt>
<trkpt lat="40.0728913" lon="-105.230669">
  <ele>1587.89</ele>
  <time>2026-08-28T19:10:44Z</time>
  <course>0.53</course>
  <speed>0.3716180835212409</speed>
  <fix>3d</fix>
</trkpt>
<trkpt lat="40.0728906" lon="-105.2306692">
  <ele>1588.01</ele>
  <time>2026-08-28T19:10:44Z</time>
  <course>0.95</course>
  <speed>0.39</speed>
  <fix>3d</fix>
</trkpt>
<trkpt lat="40.0728909" lon="-105.2306689">
  <ele>1587.8</ele>
  <time>2026-08-28T19:10:44Z</time>
  <course>199.1</course>
  <speed>0.38</speed>
  <fix>3d</fix>
</trkpt>
<trkpt lat="40.0728905" lon="-105.2306693">
  <ele>1588.02</ele>
  <time>2026-08-28T19:10:44Z</time>
  <course>1.0</course>
  <speed>0.38626415831655936</speed>
  <fix>3d</fix>
</trkpt>
<trkpt lat="40.0728899" lon="-105.2306695">
  <ele>1588.13</ele>
  <time>2026-08-28T19:10:44Z</time>
  <course>1.34</course>
  <speed>0.3956008088970496</speed>
  <fix>3d</fix>
</trkpt>
<trkpt lat="40.0728902" lon="-105.2306692">
  <ele>1587.92</ele>
  <time>2026-08-28T19:10:44Z</time>
  <course>197.74</course>
  <speed>0.39</speed>
  <fix>3d</fix>
</trkpt>
<trkpt lat="40.0728899" lon="-105.2306695">
  <ele>1588.13</ele>
  <time>2026-08-28T19:10:44Z</time>
  <course>1.35</course>
  <speed>0.3956008088970496</speed>
  <fix>3d</fix>
</trkpt>
<trkpt lat="40.0728892" lon="-105.2306698">
  <ele>1588.25</ele>
  <time>2026-08-28T19:10:44Z</time>
  <course>1.73</course>
  <speed>0.4143669871020132</speed>
  <fix>3d</fix>
</trkpt>
<trkpt lat="40.0728895" lon="-105.2306694">
  <ele>1588.05</ele>
  <time>2026-08-28T19:10:44Z</time>
  <course>196.66</course>
  <speed>0.41</speed>
  <fix>3d</fix>
</trkpt>
<trkpt lat="40.0728891" lon="-105.2306698">
  <ele>1588.27</ele>
  <time>2026-08-28T19:10:44Z</time>
  <course>1.79</course>
  <speed>0.4143669871020132</speed>
  <fix>3d</fix>
</trkpt>
<trkpt lat="40.0728885" lon="-105.2306701">
  <ele>1588.38</ele>
  <time>2026-08-28T19:10:44Z</time>
  <course>2.11</course>
  <speed>0.4205948168962618</speed>
  <fix>3d</fix>
</trkpt>
<trkpt lat="40.0728888" lon="-105.2306697">
  <ele>1588.17</ele>
  <time>2026-08-28T19:10:44Z</time>
  <course>195.75</course>
  <speed>0.42</speed>
  <fix>3d</fix>
</trkpt>
<trkpt lat="40.0728883" lon="-105.2306701">
  <ele>1588.39</ele>
  <time>2026-08-28T19:10:44Z</time>
  <course>2.16</course>
  <speed>0.4205948168962618</speed>
  <fix>3d</fix>
</trkpt>
<trkpt lat="40.0728877" lon="-105.2306703">
  <ele>1588.5</ele>
  <time>2026-08-28T19:10:44Z</time>
  <course>2.48</course>
  <speed>0.4301162633521314</speed>
  <fix>3d</fix>
</trkpt>
<trkpt lat="40.0728881" lon="-105.23067">
  <ele>1588.3</ele>
  <time>2026-08-28T19:10:44Z</time>
  <course>194.96</course>
  <speed>0.43</speed>
  <fix>3d</fix>
</trkpt>
<trkpt lat="40.0728876" lon="-105.2306704">
  <ele>1588.52</ele>
  <time>2026-08-28T19:10:44Z</time>
  <course>2.53</course>
  <speed>0.43965895873961214</speed>
  <fix>3d</fix>
</trkpt>
<trkpt lat="40.0728869" lon="-105.2306706">
  <ele>1588.62</ele>
  <time>2026-08-28T19:10:44Z</time>
  <course>4.62</course>
  <speed>0.44922154890432403</speed>
  <fix>3d</fix>
</trkpt>
<trkpt lat="40.0728873" lon="-105.2306702">
  <ele>1588.42</ele>
  <time>2026-08-28T19:10:44Z</time>
  <course>194.32</course>
  <speed>0.44</speed>
  <fix>3d</fix>
</trkpt>
<trkpt lat="40.0728868" lon="-105.2306706">
  <ele>1588.64</ele>
  <time>2026-08-28T19:10:44Z</time>
  <course>4.12</course>
  <speed>0.44922154890432403</speed>
  <fix>3d</fix>
</trkpt>
<trkpt lat="40.0728861" lon="-105.2306709">
  <ele>1588.75</ele>
  <time>2026-08-28T19:10:44Z</time>
  <course>2.05</course>
  <speed>0.46840153714521476</speed>
  <fix>3d</fix>
</trkpt>
<trkpt lat="40.0728864" lon="-105.2306705">
  <ele>1588.55</ele>
  <time>2026-08-28T19:10:44Z</time>
  <course>194.05</course>
  <speed>0.46</speed>
  <fix>3d</fix>
</trkpt>
<trkpt lat="40.0728861" lon="-105.2306709">
  <ele>1588.75</ele>
  <time>2026-08-28T19:10:44Z</time>
  <course>2.05</course>
  <speed>0.46840153714521476</speed>
  <fix>3d</fix>
</trkpt>
<trkpt lat="40.0728853" lon="-105.2306711">
  <ele>1588.88</ele>
  <time>2026-08-28T19:10:44Z</time>
  <course>3.36</course>
  <speed>0.49040799340956914</speed>
  <fix>3d</fix>
</trkpt>
<trkpt lat="40.0728857" lon="-105.2306707">
  <ele>1588.67</ele>
  <time>2026-08-28T19:10:44Z</time>
  <course>194.12</course>
  <speed>0.47</speed>
  <fix>3d</fix>
</trkpt>
<trkpt lat="40.0728851" lon="-105.2306712">
  <ele>1588.89</ele>
  <time>2026-08-28T19:10:44Z</time>
  <course>3.63</course>
  <speed>0.49040799340956914</speed>
  <fix>3d</fix>
</trkpt>
<trkpt lat="40.0728844" lon="-105.2306714">
  <ele>1589.0</ele>
  <time>2026-08-28T19:10:44Z</time>
  <course>5.07</course>
  <speed>0.49729267036625424</speed>
  <fix>3d</fix>
</trkpt>
<trkpt lat="40.0728849" lon="-105.230671">
  <ele>1588.8</ele>
  <time>2026-08-28T19:10:44Z</time>
  <course>193.98</course>
  <speed>0.47</speed>
  <fix>3d</fix>
</trkpt>
<trkpt lat="40.0728843" lon="-105.2306714">
  <ele>1589.02</ele>
  <time>2026-08-28T19:10:44Z</time>
  <course>5.26</course>
  <speed>0.49729267036625424</speed>
  <fix>3d</fix>
</trkpt>
<trkpt lat="40.0728835" lon="-105.2306717">
  <ele>1589.12</ele>
  <time>2026-08-28T19:10:44Z</time>
  <course>6.11</course>
  <speed>0.5069516742254631</speed>
  <fix>3d</fix>
</trkpt>
<trkpt lat="40.072884" lon="-105.2306713">
  <ele>1588.92</ele>
  <time>2026-08-28T19:10:44Z</time>
  <course>193.67</course>
  <speed>0.48</speed>
  <fix>3d</fix>
</trkpt>
<trkpt lat="40.0728834" lon="-105.2306717">
  <ele>1589.14</ele>
  <time>2026-08-28T19:10:44Z</time>
  <course>6.24</course>
  <speed>0.5069516742254631</speed>
  <fix>3d</fix>
</trkpt>
<trkpt lat="40.0728827" lon="-105.2306719">
  <ele>1589.24</ele>
  <time>2026-08-28T19:10:44Z</time>
  <course>6.77</course>
  <speed>0.5069516742254631</speed>
  <fix>3d</fix>
</trkpt>
<trkpt lat="40.0728831" lon="-105.2306715">
  <ele>1589.05</ele>
  <time>2026-08-28T19:10:44Z</time>
  <course>193.52</course>
  <speed>0.48</speed>
  <fix>3d</fix>
</trkpt>
<trkpt lat="40.0728825" lon="-105.2306719">
  <ele>1589.26</ele>
  <time>2026-08-28T19:10:44Z</time>
  <course>6.84</course>
  <speed>0.5069516742254631</speed>
  <fix>3d</fix>
</trkpt>
<trkpt lat="40.0728818" lon="-105.2306722">
  <ele>1589.37</ele>
  <time>2026-08-28T19:10:44Z</time>
  <course>7.18</course>
  <speed>0.5069516742254631</speed>
  <fix>3d</fix>
</trkpt>
<trkpt lat="40.0728823" lon="-105.2306718">
  <ele>1589.18</ele>
  <time>2026-08-28T19:10:44Z</time>
  <course>193.54</course>
  <speed>0.48</speed>
  <fix>3d</fix>
</trkpt>
<trkpt lat="40.0728818" lon="-105.2306722">
  <ele>1589.37</ele>
  <time>2026-08-28T19:10:44Z</time>
  <course>7.19</course>
  <speed>0.5069516742254631</speed>
  <fix>3d</fix>
</trkpt>
<trkpt lat="40.0728809" lon="-105.2306724">
  <ele>1589.5</ele>
  <time>2026-08-28T19:10:44Z</time>
  <course>7.47</course>
  <speed>0.5069516742254631</speed>
  <fix>3d</fix>
</trkpt>
<trkpt lat="40.0728814" lon="-105.2306721">
  <ele>1589.31</ele>
  <time>2026-08-28T19:10:44Z</time>
  <course>193.65</course>
  <speed>0.48</speed>
  <fix>3d</fix>
</trkpt>
<trkpt lat="40.0728808" lon="-105.2306725">
  <ele>1589.52</ele>
  <time>2026-08-28T19:10:44Z</time>
  <course>7.51</course>
  <speed>0.5069516742254631</speed>
  <fix>3d</fix>
</trkpt>
<trkpt lat="40.0728801" lon="-105.2306727">
  <ele>1589.63</ele>
  <time>2026-08-28T19:10:44Z</time>
  <course>7.77</course>
  <speed>0.49729267036625424</speed>
  <fix>3d</fix>
</trkpt>
<trkpt lat="40.0728806" lon="-105.2306724">
  <ele>1589.44</ele>
  <time>2026-08-28T19:10:44Z</time>
  <course>193.88</course>
  <speed>0.48</speed>
  <fix>3d</fix>
</trkpt>
<trkpt lat="40.07288" lon="-105.2306727">
  <ele>1589.65</ele>
  <time>2026-08-28T19:10:44Z</time>
  <course>7.81</course>
  <speed>0.49729267036625424</speed>
  <fix>3d</fix>
</trkpt>
<trkpt lat="40.0728792" lon="-105.230673">
  <ele>1589.76</ele>
  <time>2026-08-28T19:10:44Z</time>
  <course>8.06</course>
  <speed>0.49729267036625424</speed>
  <fix>3d</fix>
</trkpt>
<trkpt lat="40.0728797" lon="-105.2306726">
  <ele>1589.57</ele>
  <time>2026-08-28T19:10:44Z</time>
  <course>194.13</course>
  <speed>0.48</speed>
  <fix>3d</fix>
</trkpt>
<trkpt lat="40.0728791" lon="-105.230673">
  <ele>1589.78</ele>
  <time>2026-08-28T19:10:44Z</time>
  <course>8.1</course>
  <speed>0.49729267036625424</speed>
  <fix>3d</fix>
</trkpt>
<trkpt lat="40.0728784" lon="-105.2306732">
  <ele>1589.89</ele>
  <time>2026-08-28T19:10:44Z</time>
  <course>8.28</course>
  <speed>0.49729267036625424</speed>
  <fix>3d</fix>
</trkpt>
<trkpt lat="40.0728789" lon="-105.2306729">
  <ele>1589.7</ele>
  <time>2026-08-28T19:10:44Z</time>
  <course>194.35</course>
  <speed>0.49</speed>
  <fix>3d</fix>
</trkpt>
<trkpt lat="40.0728783" lon="-105.2306733">
  <ele>1589.9</ele>
  <time>2026-08-28T19:10:44Z</time>
  <course>8.32</course>
  <speed>0.49729267036625424</speed>
  <fix>3d</fix>
</trkpt>
<trkpt lat="40.0728775" lon="-105.2306735">
  <ele>1590.01</ele>
  <time>2026-08-28T19:10:44Z</time>
  <course>8.5</course>
  <speed>0.49729267036625424</speed>
  <fix>3d</fix>
</trkpt>
<trkpt lat="40.072878" lon="-105.2306732">
  <ele>1589.82</ele>
  <time>2026-08-28T19:10:44Z</time>
  <course>194.58</course>
  <speed>0.49</speed>
  <fix>3d</fix>
</trkpt>
<trkpt lat="40.0728774" lon="-105.2306735">
  <ele>1590.03</ele>
  <time>2026-08-28T19:10:44Z</time>
  <course>8.54</course>
  <speed>0.49729267036625424</speed>
  <fix>3d</fix>
</trkpt>
<trkpt lat="40.0728767" lon="-105.2306738">
  <ele>1590.13</ele>
  <time>2026-08-28T19:10:44Z</time>
  <course>8.67</course>
  <speed>0.49729267036625424</speed>
  <fix>3d</fix>
</trkpt>
<trkpt lat="40.0728772" lon="-105.2306735">
  <ele>1589.95</ele>
  <time>2026-08-28T19:10:44Z</time>
  <course>194.79</course>
  <speed>0.49</speed>
  <fix>3d</fix>
</trkpt>
<trkpt lat="40.0728767" lon="-105.2306738">
  <ele>1590.13</ele>
  <time>2026-08-28T19:10:44Z</time>
  <course>8.67</course>
  <speed>0.49729267036625424</speed>
  <fix>3d</fix>
</trkpt>
<trkpt lat="40.0728758" lon="-105.2306741">
  <ele>1590.26</ele>
  <time>2026-08-28T19:10:44Z</time>
  <course>8.83</course>
  <speed>0.49729267036625424</speed>
  <fix>3d</fix>
</trkpt>
<trkpt lat="40.0728764" lon="-105.2306738">
  <ele>1590.08</ele>
  <time>2026-08-28T19:10:44Z</time>
  <course>195.03</course>
  <speed>0.49</speed>
  <fix>3d</fix>
</trkpt>
<trkpt lat="40.0728757" lon="-105.2306741">
  <ele>1590.27</ele>
  <time>2026-08-28T19:10:44Z</time>
  <course>8.86</course>
  <speed>0.49729267036625424</speed>
  <fix>3d</fix>
</trkpt>
<trkpt lat="40.072875" lon="-105.2306744">
  <ele>1590.38</ele>
  <time>2026-08-28T19:10:44Z</time>
  <course>8.99</course>
  <speed>0.49729267036625424</speed>
  <fix>3d</fix>
</trkpt>
<trkpt lat="40.0728755" lon="-105.2306741">
  <ele>1590.2</ele>
  <time>2026-08-28T19:10:44Z</time>
  <course>195.26</course>
  <speed>0.49</speed>
  <fix>3d</fix>
</trkpt>
<trkpt lat="40.0728748" lon="-105.2306744">
  <ele>1590.4</ele>
  <time>2026-08-28T19:10:44Z</time>
  <course>9.01</course>
  <speed>0.49729267036625424</speed>
  <fix>3d</fix>
</trkpt>
<trkpt lat="40.0728741" lon="-105.2306747">
  <ele>1590.51</ele>
  <time>2026-08-28T19:10:44Z</time>
  <course>9.14</course>
  <speed>0.49729267036625424</speed>
  <fix>3d</fix>
</trkpt>
<trkpt lat="40.0728746" lon="-105.2306744">
  <ele>1590.33</ele>
  <time>2026-08-28T19:10:44Z</time>
  <course>195.45</course>
  <speed>0.49</speed>
  <fix>3d</fix>
</trkpt>
<trkpt lat="40.072874" lon="-105.2306747">
  <ele>1590.52</ele>
  <time>2026-08-28T19:10:44Z</time>
  <course>9.16</course>
  <speed>0.49729267036625424</speed>
  <fix>3d</fix>
</trkpt>
<trkpt lat="40.0728732" lon="-105.230675">
  <ele>1590.64</ele>
  <time>2026-08-28T19:10:44Z</time>
  <course>9.29</course>
  <speed>0.49729267036625424</speed>
  <fix>3d</fix>
</trkpt>
<trkpt lat="40.0728737" lon="-105.2306747">
  <ele>1590.46</ele>
  <time>2026-08-28T19:10:44Z</time>
  <course>195.67</course>
  <speed>0.5</speed>
  <fix>3d</fix>
</trkpt>
<trkpt lat="40.0728732" lon="-105.230675">
  <ele>1590.64</ele>
  <time>2026-08-28T19:10:44Z</time>
  <course>9.29</course>
  <speed>0.49729267036625424</speed>
  <fix>3d</fix>
</trkpt>
<trkpt lat="40.0728724" lon="-105.2306753">
  <ele>1590.77</ele>
  <time>2026-08-28T19:10:44Z</time>
  <course>9.47</course>
  <speed>0.5</speed>
  <fix>3d</fix>
</trkpt>
<trkpt lat="40.0728729" lon="-105.2306751">
  <ele>1590.59</ele>
  <time>2026-08-28T19:10:44Z</time>
  <course>195.88</course>
  <speed>0.5</speed>
  <fix>3d</fix>
</trkpt>
<trkpt lat="40.0728722" lon="-105.2306753">
  <ele>1590.79</ele>
  <time>2026-08-28T19:10:44Z</time>
  <course>9.49</course>
  <speed>0.5</speed>
  <fix>3d</fix>
</trkpt>
<trkpt lat="40.0728715" lon="-105.2306756">
  <ele>1590.9</ele>
  <time>2026-08-28T19:10:44Z</time>
  <course>9.62</course>
  <speed>0.5</speed>
  <fix>3d</fix>
</trkpt>
<trkpt lat="40.072872" lon="-105.2306754">
  <ele>1590.71</ele>
  <time>2026-08-28T19:10:44Z</time>
  <course>196.11</course>
  <speed>0.5</speed>
  <fix>3d</fix>
</trkpt>
<trkpt lat="40.0728715" lon="-105.2306756">
  <ele>1590.9</ele>
  <time>2026-08-28T19:10:44Z</time>
  <course>9.62</course>
  <speed>0.5</speed>
  <fix>3d</fix>
</trkpt>
<trkpt lat="40.0728706" lon="-105.2306759">
  <ele>1591.03</ele>
  <time>2026-08-28T19:10:44Z</time>
  <course>9.76</course>
  <speed>0.5</speed>
  <fix>3d</fix>
</trkpt>
<trkpt lat="40.0728711" lon="-105.2306757">
  <ele>1590.84</ele>
  <time>2026-08-28T19:10:44Z</time>
  <course>196.31</course>
  <speed>0.5</speed>
  <fix>3d</fix>
</trkpt>
<trkpt lat="40.0728705" lon="-105.230676">
  <ele>1591.05</ele>
  <time>2026-08-28T19:10:44Z</time>
  <course>9.79</course>
  <speed>0.5</speed>
  <fix>3d</fix>
</trkpt>
<trkpt lat="40.0728698" lon="-105.2306763">
  <ele>1591.16</ele>
  <time>2026-08-28T19:10:44Z</time>
  <course>9.9</course>
  <speed>0.5</speed>
  <fix>3d</fix>
</trkpt>
<trkpt lat="40.0728703" lon="-105.2306761">
  <ele>1590.97</ele>
  <time>2026-08-28T19:10:44Z</time>
  <course>196.49</course>
  <speed>0.5</speed>
  <fix>3d</fix>
</trkpt>
<trkpt lat="40.0728696" lon="-105.2306763">
  <ele>1591.18</ele>
  <time>2026-08-28T19:10:44Z</time>
  <course>9.92</course>
  <speed>0.5</speed>
  <fix>3d</fix>
</trkpt>
<trkpt lat="40.0728689" lon="-105.2306766">
  <ele>1591.29</ele>
  <time>2026-08-28T19:10:44Z</time>
  <course>10.02</course>
  <speed>0.5</speed>
  <fix>3d</fix>
</trkpt>
<trkpt lat="40.0728694" lon="-105.2306764">
  <ele>1591.09</ele>
  <time>2026-08-28T19:10:44Z</time>
  <course>196.66</course>
  <speed>0.5</speed>
  <fix>3d</fix>
</trkpt>
<trkpt lat="40.0728688" lon="-105.2306766">
  <ele>1591.31</ele>
  <time>2026-08-28T19:10:44Z</time>
  <course>10.04</course>
  <speed>0.5</speed>
  <fix>3d</fix>
</trkpt>
<trkpt lat="40.072868" lon="-105.2306769">
  <ele>1591.42</ele>
  <time>2026-08-28T19:10:44Z</time>
  <course>10.16</course>
  <speed>0.49040799340956914</speed>
  <fix>3d</fix>
</trkpt>
<trkpt lat="40.0728685" lon="-105.2306768">
  <ele>1591.22</ele>
  <time>2026-08-28T19:10:44Z</time>
  <course>196.83</course>
  <speed>0.5</speed>
  <fix>3d</fix>
</trkpt>
<trkpt lat="40.072868" lon="-105.2306769">
  <ele>1591.42</ele>
  <time>2026-08-28T19:10:44Z</time>
  <course>10.16</course>
  <speed>0.49040799340956914</speed>
  <fix>3d</fix>
</trkpt>
<trkpt lat="40.0728672" lon="-105.2306773">
  <ele>1591.55</ele>
  <time>2026-08-28T19:10:44Z</time>
  <course>10.29</course>
  <speed>0.4933558553417604</speed>
  <fix>3d</fix>
</trkpt>
<trkpt lat="40.0728677" lon="-105.2306771">
  <ele>1591.34</ele>
  <time>2026-08-28T19:10:44Z</time>
  <course>196.93</course>
  <speed>0.5</speed>
  <fix>3d</fix>
</trkpt>
<trkpt lat="40.072867" lon="-105.2306773">
  <ele>1591.57</ele>
  <time>2026-08-28T19:10:44Z</time>
  <course>10.3</course>
  <speed>0.4933558553417604</speed>
  <fix>3d</fix>
</trkpt>
<trkpt lat="40.0728663" lon="-105.2306776">
  <ele>1591.67</ele>
  <time>2026-08-28T19:10:44Z</time>
  <course>10.41</course>
  <speed>0.4933558553417604</speed>
  <fix>3d</fix>
</trkpt>
<trkpt lat="40.0728668" lon="-105.2306775">
  <ele>1591.46</ele>
  <time>2026-08-28T19:10:44Z</time>
  <course>197.0</course>
  <speed>0.5</speed>
  <fix>3d</fix>
</trkpt>
<trkpt lat="40.0728663" lon="-105.2306776">
  <ele>1591.67</ele>
  <time>2026-08-28T19:10:44Z</time>
  <course>10.42</course>
  <speed>0.4933558553417604</speed>
  <fix>3d</fix>
</trkpt>
<trkpt lat="40.0728654" lon="-105.230678">
  <ele>1591.79</ele>
  <time>2026-08-28T19:10:44Z</time>
  <course>10.51</course>
  <speed>0.4933558553417604</speed>
  <fix>3d</fix>
</trkpt>
<trkpt lat="40.0728659" lon="-105.2306778">
  <ele>1591.58</ele>
  <time>2026-08-28T19:10:44Z</time>
  <course>197.07</course>
  <speed>0.5</speed>
  <fix>3d</fix>
</trkpt>
<trkpt lat="40.0728653" lon="-105.2306781">
  <ele>1591.8</ele>
  <time>2026-08-28T19:10:44Z</time>
  <course>10.53</course>
  <speed>0.4933558553417604</speed>
  <fix>3d</fix>
</trkpt>
<trkpt lat="40.0728646" lon="-105.2306784">
  <ele>1591.91</ele>
  <time>2026-08-28T19:10:44Z</time>
  <course>10.61</course>
  <speed>0.4933558553417604</speed>
  <fix>3d</fix>
</trkpt>
<trkpt lat="40.0728651" lon="-105.2306782">
  <ele>1591.7</ele>
  <time>2026-08-28T19:10:44Z</time>
  <course>197.11</course>
  <speed>0.5</speed>
  <fix>3d</fix>
</trkpt>
<trkpt lat="40.0728645" lon="-105.2306784">
  <ele>1591.91</ele>
  <time>2026-08-28T19:10:44Z</time>
  <course>10.62</course>
  <speed>0.4933558553417604</speed>
  <fix>3d</fix>
</trkpt>
<trkpt lat="40.0728637" lon="-105.2306787">
  <ele>1592.03</ele>
  <time>2026-08-28T19:10:44Z</time>
  <course>10.72</course>
  <speed>0.4933558553417604</speed>
  <fix>3d</fix>
</trkpt>
<trkpt lat="40.0728642" lon="-105.2306785">
  <ele>1591.82</ele>
  <time>2026-08-28T19:10:44Z</time>
  <course>197.15</course>
  <speed>0.5</speed>
  <fix>3d</fix>
</trkpt>
<trkpt lat="40.0728636" lon="-105.2306788">
  <ele>1592.04</ele>
  <time>2026-08-28T19:10:44Z</time>
  <course>10.74</course>
  <speed>0.4933558553417604</speed>
  <fix>3d</fix>
</trkpt>
<trkpt lat="40.0728628" lon="-105.2306791">
  <ele>1592.15</ele>
  <time>2026-08-28T19:10:44Z</time>
  <course>10.8</course>
  <speed>0.4933558553417604</speed>
  <fix>3d</fix>
</trkpt>
<trkpt lat="40.0728633" lon="-105.2306788">
  <ele>1591.95</ele>
  <time>2026-08-28T19:10:44Z</time>
  <course>197.18</course>
  <speed>0.5</speed>
  <fix>3d</fix>
</trkpt>
<trkpt lat="40.0728627" lon="-105.2306791">
  <ele>1592.17</ele>
  <time>2026-08-28T19:10:44Z</time>
  <course>10.81</course>
  <speed>0.4933558553417604</speed>
  <fix>3d</fix>
</trkpt>
<trkpt lat="40.072862" lon="-105.2306794">
  <ele>1592.27</ele>
  <time>2026-08-28T19:10:44Z</time>
  <course>10.92</course>
  <speed>0.4933558553417604</speed>
  <fix>3d</fix>
</trkpt>
<trkpt lat="40.0728625" lon="-105.2306792">
  <ele>1592.07</ele>
  <time>2026-08-28T19:10:44Z</time>
  <course>197.24</course>
  <speed>0.5</speed>
  <fix>3d</fix>
</trkpt>
<trkpt lat="40.0728619" lon="-105.2306795">
  <ele>1592.29</ele>
  <time>2026-08-28T19:10:44Z</time>
  <course>10.93</course>
  <speed>0.4933558553417604</speed>
  <fix>3d</fix>
</trkpt>
<trkpt lat="40.0728611" lon="-105.2306798">
  <ele>1592.39</ele>
  <time>2026-08-28T19:10:44Z</time>
  <course>11.0</course>
  <speed>0.4838388161361178</speed>
  <fix>3d</fix>
</trkpt>
<trkpt lat="40.0728616" lon="-105.2306796">
  <ele>1592.19</ele>
  <time>2026-08-28T19:10:44Z</time>
  <course>197.32</course>
  <speed>0.5</speed>
  <fix>3d</fix>
</trkpt>
<trkpt lat="40.072861" lon="-105.2306798">
  <ele>1592.41</ele>
  <time>2026-08-28T19:10:44Z</time>
  <course>11.02</course>
  <speed>0.4838388161361178</speed>
  <fix>3d</fix>
</trkpt>
<trkpt lat="40.0728603" lon="-105.2306801">
  <ele>1592.52</ele>
  <time>2026-08-28T19:10:44Z</time>
  <course>11.12</course>
  <speed>0.4838388161361178</speed>
  <fix>3d</fix>
</trkpt>
<trkpt lat="40.0728607" lon="-105.2306799">
  <ele>1592.32</ele>
  <time>2026-08-28T19:10:44Z</time>
  <course>197.36</course>
  <speed>0.5</speed>
  <fix>3d</fix>
</trkpt>
<trkpt lat="40.0728601" lon="-105.2306802">
  <ele>1592.54</ele>
  <time>2026-08-28T19:10:44Z</time>
  <course>11.15</course>
  <speed>0.4838388161361178</speed>
  <fix>3d</fix>
</trkpt>
<trkpt lat="40.0728594" lon="-105.2306805">
  <ele>1592.64</ele>
  <time>2026-08-28T19:10:44Z</time>
  <course>11.19</course>
  <speed>0.4838388161361178</speed>
  <fix>3d</fix>
</trkpt>
<trkpt lat="40.0728598" lon="-105.2306802">
  <ele>1592.44</ele>
  <time>2026-08-28T19:10:44Z</time>
  <course>197.38</course>
  <speed>0.5</speed>
  <fix>3d</fix>
</trkpt>
<trkpt lat="40.0728594" lon="-105.2306805">
  <ele>1592.64</ele>
  <time>2026-08-28T19:10:44Z</time>
  <course>11.19</course>
  <speed>0.4838388161361178</speed>
  <fix>3d</fix>
</trkpt>
<trkpt lat="40.0728585" lon="-105.2306808">
  <ele>1592.77</ele>
  <time>2026-08-28T19:10:44Z</time>
  <course>11.29</course>
  <speed>0.4838388161361178</speed>
  <fix>3d</fix>
</trkpt>
<trkpt lat="40.0728589" lon="-105.2306806">
  <ele>1592.57</ele>
  <time>2026-08-28T19:10:44Z</time>
  <course>197.41</course>
  <speed>0.5</speed>
  <fix>3d</fix>
</trkpt>
<trkpt lat="40.0728584" lon="-105.2306809">
  <ele>1592.79</ele>
  <time>2026-08-28T19:10:44Z</time>
  <course>11.3</course>
  <speed>0.4838388161361178</speed>
  <fix>3d</fix>
</trkpt>
<trkpt lat="40.0728577" lon="-105.2306812">
  <ele>1592.9</ele>
  <time>2026-08-28T19:10:44Z</time>
  <course>11.41</course>
  <speed>0.4838388161361178</speed>
  <fix>3d</fix>
</trkpt>
<trkpt lat="40.0728581" lon="-105.230681">
  <ele>1592.7</ele>
  <time>2026-08-28T19:10:44Z</time>
  <course>197.48</course>
  <speed>0.5</speed>
  <fix>3d</fix>
</trkpt>
<trkpt lat="40.0728575" lon="-105.2306813">
  <ele>1592.93</ele>
  <time>2026-08-28T19:10:44Z</time>
  <course>11.42</course>
  <speed>0.4838388161361178</speed>
  <fix>3d</fix>
</trkpt>
<trkpt lat="40.0728568" lon="-105.2306816">
  <ele>1593.03</ele>
  <time>2026-08-28T19:10:44Z</time>
  <course>11.5</course>
  <speed>0.4838388161361178</speed>
  <fix>3d</fix>
</trkpt>
<trkpt lat="40.0728572" lon="-105.2306813">
  <ele>1592.82</ele>
  <time>2026-08-28T19:10:44Z</time>
  <course>197.54</course>
  <speed>0.5</speed>
  <fix>3d</fix>
</trkpt>
<trkpt lat="40.0728566" lon="-105.2306816">
  <ele>1593.06</ele>
  <time>2026-08-28T19:10:44Z</time>
  <course>11.53</course>
  <speed>0.4838388161361178</speed>
  <fix>3d</fix>
</trkpt>
<trkpt lat="40.072856" lon="-105.2306819">
  <ele>1593.16</ele>
  <time>2026-08-28T19:10:44Z</time>
  <course>11.6</course>
  <speed>0.4775981574503821</speed>
  <fix>3d</fix>
</trkpt>
<trkpt lat="40.0728564" lon="-105.2306816">
  <ele>1592.95</ele>
  <time>2026-08-28T19:10:44Z</time>
  <course>197.58</course>
  <speed>0.5</speed>
  <fix>3d</fix>
</trkpt>
<trkpt lat="40.072856" lon="-105.2306819">
  <ele>1593.16</ele>
  <time>2026-08-28T19:10:44Z</time>
  <course>11.6</course>
  <speed>0.4775981574503821</speed>
  <fix>3d</fix>
</trkpt>
<trkpt lat="40.0728551" lon="-105.2306823">
  <ele>1593.28</ele>
  <time>2026-08-28T19:10:44Z</time>
  <course>11.69</course>
  <speed>0.4775981574503821</speed>
  <fix>3d</fix>
</trkpt>
<trkpt lat="40.0728555" lon="-105.2306821">
  <ele>1593.08</ele>
  <time>2026-08-28T19:10:44Z</time>
  <course>197.61</course>
  <speed>0.5</speed>
  <fix>3d</fix>
</trkpt>
<trkpt lat="40.072855" lon="-105.2306823">
  <ele>1593.3</ele>
  <time>2026-08-28T19:10:44Z</time>
  <course>11.71</course>
  <speed>0.4775981574503821</speed>
  <fix>3d</fix>
</trkpt>
<trkpt lat="40.0728542" lon="-105.2306826">
  <ele>1593.41</ele>
  <time>2026-08-28T19:10:44Z</time>
  <course>11.76</course>
  <speed>0.4775981574503821</speed>
  <fix>3d</fix>
</trkpt>
<trkpt lat="40.0728546" lon="-105.2306824">
  <ele>1593.2</ele>
  <time>2026-08-28T19:10:44Z</time>
  <course>197.61</course>
  <speed>0.5</speed>
  <fix>3d</fix>
</trkpt>
<trkpt lat="40.0728541" lon="-105.2306827">
  <ele>1593.43</ele>
  <time>2026-08-28T19:10:44Z</time>
  <course>11.77</course>
  <speed>0.4775981574503821</speed>
  <fix>3d</fix>
</trkpt>
<trkpt lat="40.0728534" lon="-105.230683">
  <ele>1593.53</ele>
  <time>2026-08-28T19:10:44Z</time>
  <course>11.86</course>
  <speed>0.4775981574503821</speed>
  <fix>3d</fix>
</trkpt>
<trkpt lat="40.0728538" lon="-105.2306828">
  <ele>1593.33</ele>
  <time>2026-08-28T19:10:44Z</time>
  <course>197.65</course>
  <speed>0.5</speed>
  <fix>3d</fix>
</trkpt>
<trkpt lat="40.0728533" lon="-105.2306831">
  <ele>1593.55</ele>
  <time>2026-08-28T19:10:44Z</time>
  <course>11.87</course>
  <speed>0.4775981574503821</speed>
  <fix>3d</fix>
</trkpt>
<trkpt lat="40.0728525" lon="-105.2306834">
  <ele>1593.66</ele>
  <time>2026-08-28T19:10:44Z</time>
  <course>11.93</course>
  <speed>0.4775981574503821</speed>
  <fix>3d</fix>
</trkpt>
<trkpt lat="40.0728529" lon="-105.2306831">
  <ele>1593.45</ele>
  <time>2026-08-28T19:10:44Z</time>
  <course>197.73</course>
  <speed>0.5</speed>
  <fix>3d</fix>
</trkpt>
<trkpt lat="40.0728524" lon="-105.2306834">
  <ele>1593.68</ele>
  <time>2026-08-28T19:10:44Z</time>
  <course>11.95</course>
  <speed>0.4775981574503821</speed>
  <fix>3d</fix>
</trkpt>
<trkpt lat="40.0728517" lon="-105.2306837">
  <ele>1593.79</ele>
  <time>2026-08-28T19:10:44Z</time>
  <course>12.01</course>
  <speed>0.4775981574503821</speed>
  <fix>3d</fix>
</trkpt>
<trkpt lat="40.0728521" lon="-105.2306835">
  <ele>1593.58</ele>
  <time>2026-08-28T19:10:44Z</time>
  <course>197.79</course>
  <speed>0.49</speed>
  <fix>3d</fix>
</trkpt>
<trkpt lat="40.0728515" lon="-105.2306838">
  <ele>1593.81</ele>
  <time>2026-08-28T19:10:44Z</time>
  <course>12.04</course>
  <speed>0.4775981574503821</speed>
  <fix>3d</fix>
</trkpt>
<trkpt lat="40.0728508" lon="-105.2306841">
  <ele>1593.92</ele>
  <time>2026-08-28T19:10:44Z</time>
  <course>12.1</course>
  <speed>0.468187996428785</speed>
  <fix>3d</fix>
</trkpt>
<trkpt lat="40.0728512" lon="-105.2306838">
  <ele>1593.7</ele>
  <time>2026-08-28T19:10:44Z</time>
  <course>197.83</course>
  <speed>0.49</speed>
  <fix>3d</fix>
</trkpt>
<trkpt lat="40.0728508" lon="-105.2306841">
  <ele>1593.92</ele>
  <time>2026-08-28T19:10:44Z</time>
  <course>12.1</course>
  <speed>0.468187996428785</speed>
  <fix>3d</fix>
</trkpt>
<trkpt lat="40.07285" lon="-105.2306844">
  <ele>1594.04</ele>
  <time>2026-08-28T19:10:44Z</time>
  <course>12.17</course>
  <speed>0.468187996428785</speed>
  <fix>3d</fix>
</trkpt>
<trkpt lat="40.0728503" lon="-105.2306842">
  <ele>1593.83</ele>
  <time>2026-08-28T19:10:44Z</time>
  <course>197.83</course>
  <speed>0.49</speed>
  <fix>3d</fix>
</trkpt>
<trkpt lat="40.0728498" lon="-105.2306845">
  <ele>1594.06</ele>
  <time>2026-08-28T19:10:44Z</time>
  <course>12.19</course>
  <speed>0.468187996428785</speed>
  <fix>3d</fix>
</trkpt>
<trkpt lat="40.0728492" lon="-105.2306848">
  <ele>1594.17</ele>
  <time>2026-08-28T19:10:45Z</time>
  <course>12.25</course>
  <speed>0.468187996428785</speed>
  <fix>3d</fix>
</trkpt>
<trkpt lat="40.0728496" lon="-105.2306845">
  <ele>1593.95</ele>
  <time>2026-08-28T19:10:45Z</time>
  <course>197.85</course>
  <speed>0.49</speed>
  <fix>3d</fix>
</trkpt>
<trkpt lat="40.072849" lon="-105.2306849">
  <ele>1594.19</ele>
  <time>2026-08-28T19:10:45Z</time>
  <course>12.26</course>
  <speed>0.468187996428785</speed>
  <fix>3d</fix>
</trkpt>
<trkpt lat="40.0728483" lon="-105.2306852">
  <ele>1594.29</ele>
  <time>2026-08-28T19:10:45Z</time>
  <course>12.32</course>
  <speed>0.468187996428785</speed>
  <fix>3d</fix>
</trkpt>
<trkpt lat="40.0728487" lon="-105.2306849">
  <ele>1594.07</ele>
  <time>2026-08-28T19:10:45Z</time>
  <course>197.87</course>
  <speed>0.49</speed>
  <fix>3d</fix>
</trkpt>
<trkpt lat="40.0728482" lon="-105.2306852">
  <ele>1594.31</ele>
  <time>2026-08-28T19:10:45Z</time>
  <course>12.33</course>
  <speed>0.45880278987817846</speed>
  <fix>3d</fix>
</trkpt>
<trkpt lat="40.0728475" lon="-105.2306855">
  <ele>1594.41</ele>
  <time>2026-08-28T19:10:45Z</time>
  <course>12.39</course>
  <speed>0.45880278987817846</speed>
  <fix>3d</fix>
</trkpt>
<trkpt lat="40.0728479" lon="-105.2306853">
  <ele>1594.2</ele>
  <time>2026-08-28T19:10:45Z</time>
  <course>197.94</course>
  <speed>0.48</speed>
  <fix>3d</fix>
</trkpt>
<trkpt lat="40.0728475" lon="-105.2306855">
  <ele>1594.41</ele>
  <time>2026-08-28T19:10:45Z</time>
  <course>12.39</course>
  <speed>0.45880278987817846</speed>
  <fix>3d</fix>
</trkpt>
<trkpt lat="40.0728467" lon="-105.2306859">
  <ele>1594.53</ele>
  <time>2026-08-28T19:10:45Z</time>
  <course>12.44</course>
  <speed>0.45880278987817846</speed>
  <fix>3d</fix>
</trkpt>
<trkpt lat="40.072847" lon="-105.2306856">
  <ele>1594.32</ele>
  <time>2026-08-28T19:10:45Z</time>
  <course>198.04</course>
  <speed>0.48</speed>
  <fix>3d</fix>
</trkpt>
<trkpt lat="40.0728466" lon="-105.2306859">
  <ele>1594.54</ele>
  <time>2026-08-28T19:10:45Z</time>
  <course>12.45</course>
  <speed>0.45880278987817846</speed>
  <fix>3d</fix>
</trkpt>
<trkpt lat="40.0728459" lon="-105.2306862">
  <ele>1594.65</ele>
  <time>2026-08-28T19:10:45Z</time>
  <course>12.49</course>
  <speed>0.45880278987817846</speed>
  <fix>3d</fix>
</trkpt>
<trkpt lat="40.0728462" lon="-105.2306859">
  <ele>1594.45</ele>
  <time>2026-08-28T19:10:45Z</time>
  <course>198.09</course>
  <speed>0.48</speed>
  <fix>3d</fix>
</trkpt>
<trkpt lat="40.0728458" lon="-105.2306862">
  <ele>1594.66</ele>
  <time>2026-08-28T19:10:45Z</time>
  <course>12.49</course>
  <speed>0.45880278987817846</speed>
  <fix>3d</fix>
</trkpt>
<trkpt lat="40.072845" lon="-105.2306866">
  <ele>1594.78</ele>
  <time>2026-08-28T19:10:45Z</time>
  <course>12.55</course>
  <speed>0.45880278987817846</speed>
  <fix>3d</fix>
</trkpt>
<trkpt lat="40.0728454" lon="-105.2306863">
  <ele>1594.57</ele>
  <time>2026-08-28T19:10:45Z</time>
  <course>198.14</course>
  <speed>0.48</speed>
  <fix>3d</fix>
</trkpt>
<trkpt lat="40.0728449" lon="-105.2306866">
  <ele>1594.8</ele>
  <time>2026-08-28T19:10:45Z</time>
  <course>12.56</course>
  <speed>0.45880278987817846</speed>
  <fix>3d</fix>
</trkpt>
<trkpt lat="40.0728442" lon="-105.2306869">
  <ele>1594.9</ele>
  <time>2026-08-28T19:10:45Z</time>
  <course>12.63</course>
  <speed>0.44944410108488464</speed>
  <fix>3d</fix>
</trkpt>
<trkpt lat="40.0728445" lon="-105.2306866">
  <ele>1594.7</ele>
  <time>2026-08-28T19:10:45Z</time>
  <course>198.23</course>
  <speed>0.48</speed>
  <fix>3d</fix>
</trkpt>
<trkpt lat="40.0728441" lon="-105.230687">
  <ele>1594.92</ele>
  <time>2026-08-28T19:10:45Z</time>
  <course>12.64</course>
  <speed>0.44944410108488464</speed>
  <fix>3d</fix>
</trkpt>
<trkpt lat="40.0728434" lon="-105.2306873">
  <ele>1595.03</ele>
  <time>2026-08-28T19:10:45Z</time>
  <course>12.72</course>
  <speed>0.44944410108488464</speed>
  <fix>3d</fix>
</trkpt>
<trkpt lat="40.0728437" lon="-105.230687">
  <ele>1594.83</ele>
  <time>2026-08-28T19:10:45Z</time>
  <course>198.32</course>
  <speed>0.48</speed>
  <fix>3d</fix>
</trkpt>
<trkpt lat="40.0728426" lon="-105.2306876">
  <ele>1595.15</ele>
  <time>2026-08-28T19:10:45Z</time>
  <course>13.06</course>
  <speed>0.44944410108488464</speed>
  <fix>3d</fix>
</trkpt>
<trkpt lat="40.0728429" lon="-105.2306873">
  <ele>1594.95</ele>
  <time>2026-08-28T19:10:45Z</time>
  <course>198.55</course>
  <speed>0.47</speed>
  <fix>3d</fix>
</trkpt>
<trkpt lat="40.0728418" lon="-105.230688">
  <ele>1595.24</ele>
  <time>2026-08-28T19:10:45Z</time>
  <course>13.7</course>
  <speed>0.44944410108488464</speed>
  <fix>3d</fix>
</trkpt>
<trkpt lat="40.0728421" lon="-105.2306878">
  <ele>1595.06</ele>
  <time>2026-08-28T19:10:45Z</time>
  <course>198.82</course>
  <speed>0.47</speed>
  <fix>3d</fix>
</trkpt>
<trkpt lat="40.072841" lon="-105.2306883">
  <ele>1595.3</ele>
  <time>2026-08-28T19:10:45Z</time>
  <course>14.03</course>
  <speed>0.43657759905886145</speed>
  <fix>3d</fix>
</trkpt>
<trkpt lat="40.0728412" lon="-105.2306881">
  <ele>1595.14</ele>
  <time>2026-08-28T19:10:45Z</time>
  <course>198.77</course>
  <speed>0.47</speed>
  <fix>3d</fix>
</trkpt>
<trkpt lat="40.0728402" lon="-105.2306887">
  <ele>1595.34</ele>
  <time>2026-08-28T19:10:45Z</time>
  <course>13.58</course>
  <speed>0.43657759905886145</speed>
  <fix>3d</fix>
</trkpt>
<trkpt lat="40.0728405" lon="-105.2306885">
  <ele>1595.2</ele>
  <time>2026-08-28T19:10:45Z</time>
  <course>198.23</course>
  <speed>0.46</speed>
  <fix>3d</fix>
</trkpt>
<trkpt lat="40.0728394" lon="-105.230689">
  <ele>1595.37</ele>
  <time>2026-08-28T19:10:45Z</time>
  <course>13.09</course>
  <speed>0.4332435804486894</speed>
  <fix>3d</fix>
</trkpt>
<trkpt lat="40.0728397" lon="-105.2306888">
  <ele>1595.24</ele>
  <time>2026-08-28T19:10:45Z</time>
  <course>197.61</course>
  <speed>0.46</speed>
  <fix>3d</fix>
</trkpt>
<trkpt lat="40.0728386" lon="-105.2306893">
  <ele>1595.39</ele>
  <time>2026-08-28T19:10:45Z</time>
  <course>12.9</course>
  <speed>0.4205948168962618</speed>
  <fix>3d</fix>
</trkpt>
<trkpt lat="40.0728388" lon="-105.2306891">
  <ele>1595.27</ele>
  <time>2026-08-28T19:10:45Z</time>
  <course>197.11</course>
  <speed>0.45</speed>
  <fix>3d</fix>
</trkpt>
<trkpt lat="40.0728378" lon="-105.2306896">
  <ele>1595.4</ele>
  <time>2026-08-28T19:10:45Z</time>
  <course>12.86</course>
  <speed>0.4205948168962618</speed>
  <fix>3d</fix>
</trkpt>
<trkpt lat="40.0728381" lon="-105.2306894">
  <ele>1595.28</ele>
  <time>2026-08-28T19:10:45Z</time>
  <course>196.53</course>
  <speed>0.45</speed>
  <fix>3d</fix>
</trkpt>
<trkpt lat="40.0728371" lon="-105.2306899">
  <ele>1595.41</ele>
  <time>2026-08-28T19:10:45Z</time>
  <course>12.85</course>
  <speed>0.417612260356422</speed>
  <fix>3d</fix>
</trkpt>
<trkpt lat="40.0728374" lon="-105.2306897">
  <ele>1595.29</ele>
  <time>2026-08-28T19:10:45Z</time>
  <course>195.92</course>
  <speed>0.44</speed>
  <fix>3d</fix>
</trkpt>
<trkpt lat="40.0728363" lon="-105.2306902">
  <ele>1595.41</ele>
  <time>2026-08-28T19:10:45Z</time>
  <course>12.86</course>
  <speed>0.4080441152620633</speed>
  <fix>3d</fix>
</trkpt>
<trkpt lat="40.0728366" lon="-105.23069">
  <ele>1595.3</ele>
  <time>2026-08-28T19:10:45Z</time>
  <course>195.26</course>
  <speed>0.43</speed>
  <fix>3d</fix>
</trkpt>
<trkpt lat="40.0728356" lon="-105.2306904">
  <ele>1595.41</ele>
  <time>2026-08-28T19:10:45Z</time>
  <course>12.86</course>
  <speed>0.4052159917870962</speed>
  <fix>3d</fix>
</trkpt>
<trkpt lat="40.0728358" lon="-105.2306902">
  <ele>1595.31</ele>
  <time>2026-08-28T19:10:45Z</time>
  <course>194.55</course>
  <speed>0.43</speed>
  <fix>3d</fix>
</trkpt>
<trkpt lat="40.0728348" lon="-105.2306907">
  <ele>1595.41</ele>
  <time>2026-08-28T19:10:45Z</time>
  <course>12.87</course>
  <speed>0.39293765408777</speed>
  <fix>3d</fix>
</trkpt>
<trkpt lat="40.0728351" lon="-105.2306905">
  <ele>1595.31</ele>
  <time>2026-08-28T19:10:45Z</time>
  <course>193.82</course>
  <speed>0.42</speed>
  <fix>3d</fix>
</trkpt>
<trkpt lat="40.0728341" lon="-105.2306909">
  <ele>1595.42</ele>
  <time>2026-08-28T19:10:45Z</time>
  <course>12.91</course>
  <speed>0.39293765408777</speed>
  <fix>3d</fix>
</trkpt>
<trkpt lat="40.0728343" lon="-105.2306907">
  <ele>1595.31</ele>
  <time>2026-08-28T19:10:45Z</time>
  <course>193.18</course>
  <speed>0.42</speed>
  <fix>3d</fix>
</trkpt>
<trkpt lat="40.0728334" lon="-105.2306911">
  <ele>1595.42</ele>
  <time>2026-08-28T19:10:45Z</time>
  <course>12.94</course>
  <speed>0.3905124837953327</speed>
  <fix>3d</fix>
</trkpt>
<trkpt lat="40.0728336" lon="-105.230691">
  <ele>1595.32</ele>
  <time>2026-08-28T19:10:45Z</time>
  <course>192.57</course>
  <speed>0.41</speed>
  <fix>3d</fix>
</trkpt>
<trkpt lat="40.0728326" lon="-105.2306913">
  <ele>1595.42</ele>
  <time>2026-08-28T19:10:45Z</time>
  <course>12.96</course>
  <speed>0.38078865529319544</speed>
  <fix>3d</fix>
</trkpt>
<trkpt lat="40.0728328" lon="-105.2306912">
  <ele>1595.32</ele>
  <time>2026-08-28T19:10:45Z</time>
  <course>191.9</course>
  <speed>0.41</speed>
  <fix>3d</fix>
</trkpt>
<trkpt lat="40.0728319" lon="-105.2306915">
  <ele>1595.42</ele>
  <time>2026-08-28T19:10:45Z</time>
  <course>12.98</course>
  <speed>0.378549864614954</speed>
  <fix>3d</fix>
</trkpt>
<trkpt lat="40.0728321" lon="-105.2306913">
  <ele>1595.33</ele>
  <time>2026-08-28T19:10:45Z</time>
  <course>191.33</course>
  <speed>0.4</speed>
  <fix>3d</fix>
</trkpt>
<trkpt lat="40.0728312" lon="-105.2306917">
  <ele>1595.42</ele>
  <time>2026-08-28T19:10:45Z</time>
  <course>13.0</course>
  <speed>0.378549864614954</speed>
  <fix>3d</fix>
</trkpt>
<trkpt lat="40.0728314" lon="-105.2306916">
  <ele>1595.33</ele>
  <time>2026-08-28T19:10:45Z</time>
  <course>190.8</course>
  <speed>0.4</speed>
  <fix>3d</fix>
</trkpt>
<trkpt lat="40.0728305" lon="-105.2306919">
  <ele>1595.43</ele>
  <time>2026-08-28T19:10:45Z</time>
  <course>13.02</course>
  <speed>0.3687817782917155</speed>
  <fix>3d</fix>
</trkpt>
<trkpt lat="40.0728307" lon="-105.2306917">
  <ele>1595.33</ele>
  <time>2026-08-28T19:10:45Z</time>
  <course>190.31</course>
  <speed>0.4</speed>
  <fix>3d</fix>
</trkpt>
<trkpt lat="40.0728298" lon="-105.230692">
  <ele>1595.44</ele>
  <time>2026-08-28T19:10:45Z</time>
  <course>13.04</course>
  <speed>0.366742416417845</speed>
  <fix>3d</fix>
</trkpt>
<trkpt lat="40.07283" lon="-105.2306918">
  <ele>1595.33</ele>
  <time>2026-08-28T19:10:45Z</time>
  <course>189.89</course>
  <speed>0.39</speed>
  <fix>3d</fix>
</trkpt>
<trkpt lat="40.0728291" lon="-105.2306922">
  <ele>1595.44</ele>
  <time>2026-08-28T19:10:45Z</time>
  <course>13.07</course>
  <speed>0.366742416417845</speed>
  <fix>3d</fix>
</trkpt>
<trkpt lat="40.0728293" lon="-105.230692">
  <ele>1595.33</ele>
  <time>2026-08-28T19:10:45Z</time>
  <course>189.5</course>
  <speed>0.39</speed>
  <fix>3d</fix>
</trkpt>
<trkpt lat="40.0728284" lon="-105.2306923">
  <ele>1595.43</ele>
  <time>2026-08-28T19:10:45Z</time>
  <course>13.08</course>
  <speed>0.3255764119219941</speed>
  <fix>3d</fix>
</trkpt>
<trkpt lat="40.0728286" lon="-105.2306921">
  <ele>1595.33</ele>
  <time>2026-08-28T19:10:45Z</time>
  <course>189.15</course>
  <speed>0.38</speed>
  <fix>3d</fix>
</trkpt>
<trkpt lat="40.0728279" lon="-105.2306923">
  <ele>1595.43</ele>
  <time>2026-08-28T19:10:45Z</time>
  <course>13.1</course>
  <speed>0.2</speed>
  <fix>3d</fix>
</trkpt>
<trkpt lat="40.072828" lon="-105.2306923">
  <ele>1595.33</ele>
  <time>2026-08-28T19:10:45Z</time>
  <course>186.83</course>
  <speed>0.31</speed>
  <fix>3d</fix>
</trkpt>
<trkpt lat="40.0728275" lon="-105.2306923">
  <ele>1595.43</ele>
  <time>2026-08-28T19:10:45Z</time>
  <course>13.12</course>
  <speed>0.16</speed>
  <fix>3d</fix>
</trkpt>
<trkpt lat="40.0728275" lon="-105.2306924">
  <ele>1595.33</ele>
  <time>2026-08-28T19:10:45Z</time>
  <course>180.25</course>
  <speed>0.21</speed>
  <fix>3d</fix>
</trkpt>
<trkpt lat="40.0728272" lon="-105.2306923">
  <ele>1595.43</ele>
  <time>2026-08-28T19:10:45Z</time>
  <course>13.11</course>
  <speed>0.15297058540778355</speed>
  <fix>3d</fix>
</trkpt>
<trkpt lat="40.0728272" lon="-105.2306924">
  <ele>1595.33</ele>
  <time>2026-08-28T19:10:45Z</time>
  <course>183.3</course>
  <speed>0.18</speed>
  <fix>3d</fix>
</trkpt>
<trkpt lat="40.0728269" lon="-105.2306924">
  <ele>1595.43</ele>
  <time>2026-08-28T19:10:45Z</time>
  <course>13.16</course>
  <speed>0.06</speed>
  <fix>3d</fix>
</trkpt>
<trkpt lat="40.0728268" lon="-105.2306924">
  <ele>1595.33</ele>
  <time>2026-08-28T19:10:45Z</time>
  <course>189.52</course>
  <speed>0.14</speed>
  <fix>3d</fix>
</trkpt>
<trkpt lat="40.0728268" lon="-105.2306924">
  <ele>1595.43</ele>
  <time>2026-08-28T19:10:45Z</time>
  <course>13.15</course>
  <speed>0.06</speed>
  <fix>3d</fix>
</trkpt>
<trkpt lat="40.0728267" lon="-105.2306924">
  <ele>1595.33</ele>
  <time>2026-08-28T19:10:45Z</time>
  <course>182.39</course>
  <speed>0.08</speed>
  <fix>3d</fix>
</trkpt>
<trkpt lat="40.0728266" lon="-105.2306924">
  <ele>1595.44</ele>
  <time>2026-08-28T19:10:45Z</time>
  <course>13.12</course>
  <speed>0.08062257748298549</speed>
  <fix>3d</fix>
</trkpt>
<trkpt lat="40.0728265" lon="-105.2306924">
  <ele>1595.33</ele>
  <time>2026-08-28T19:10:45Z</time>
  <course>191.73</course>
  <speed>0.09</speed>
  <fix>3d</fix>
</trkpt>
<trkpt lat="40.0728265" lon="-105.2306925">
  <ele>1595.44</ele>
  <time>2026-08-28T19:10:45Z</time>
  <course>13.22</course>
  <speed>0.01414213562373095</speed>
  <fix>3d</fix>
</trkpt>
<trkpt lat="40.0728263" lon="-105.2306925">
  <ele>1595.33</ele>
  <time>2026-08-28T19:10:45Z</time>
  <course>199.11</course>
  <speed>0.07</speed>
  <fix>3d</fix>
</trkpt>
<trkpt lat="40.0728264" lon="-105.2306925">
  <ele>1595.44</ele>
  <time>2026-08-28T19:10:45Z</time>
  <course>13.22</course>
  <speed>0.05099019513592785</speed>
  <fix>3d</fix>
</trkpt>
<trkpt lat="40.0728262" lon="-105.2306926">
  <ele>1595.33</ele>
  <time>2026-08-28T19:10:45Z</time>
  <course>184.72</course>
  <speed>0.04</speed>
  <fix>3d</fix>
</trkpt>
<trkpt lat="40.0728263" lon="-105.2306925">
  <ele>1595.44</ele>
  <time>2026-08-28T19:10:45Z</time>
  <course>13.16</course>
  <speed>0.03605551275463989</speed>
  <fix>3d</fix>
</trkpt>
<trkpt lat="40.0728261" lon="-105.2306926">
  <ele>1595.33</ele>
  <time>2026-08-28T19:10:45Z</time>
  <course>194.51</course>
  <speed>0.06</speed>
  <fix>3d</fix>
</trkpt>
<trkpt lat="40.0728262" lon="-105.2306925">
  <ele>1595.44</ele>
  <time>2026-08-28T19:10:45Z</time>
  <course>13.29</course>
  <speed>0.01</speed>
  <fix>3d</fix>
</trkpt>
<trkpt lat="40.072826" lon="-105.2306926">
  <ele>1595.33</ele>
  <time>2026-08-28T19:10:45Z</time>
  <course>190.68</course>
  <speed>0.04</speed>
  <fix>3d</fix>
</trkpt>
<trkpt lat="40.0728261" lon="-105.2306925">
  <ele>1595.44</ele>
  <time>2026-08-28T19:10:45Z</time>
  <course>13.26</course>
  <speed>0.053851648071345036</speed>
  <fix>3d</fix>
</trkpt>
<trkpt lat="40.072826" lon="-105.2306926">
  <ele>1595.32</ele>
  <time>2026-08-28T19:10:45Z</time>
  <course>172.63</course>
  <speed>0.04</speed>
  <fix>3d</fix>
</trkpt>
<trkpt lat="40.072826" lon="-105.2306926">
  <ele>1595.44</ele>
  <time>2026-08-28T19:10:45Z</time>
  <course>13.24</course>
  <speed>0.0</speed>
  <fix>3d</fix>
</trkpt>
<trkpt lat="40.0728259" lon="-105.2306926">
  <ele>1595.32</ele>
  <time>2026-08-28T19:10:45Z</time>
  <course>186.93</course>
  <speed>0.05</speed>
  <fix>3d</fix>
</trkpt>
<trkpt lat="40.072826" lon="-105.2306925">
  <ele>1595.43</ele>
  <time>2026-08-28T19:10:45Z</time>
  <course>13.31</course>
  <speed>0.02</speed>
  <fix>3d</fix>
</trkpt>
<trkpt lat="40.0728258" lon="-105.2306926">
  <ele>1595.32</ele>
  <time>2026-08-28T19:10:45Z</time>
  <course>164.42</course>
  <speed>0.03</speed>
  <fix>3d</fix>
</trkpt>
<trkpt lat="40.0728258" lon="-105.2306926">
  <ele>1595.43</ele>
  <time>2026-08-28T19:10:45Z</time>
  <course>13.26</course>
  <speed>0.03605551275463989</speed>
  <fix>3d</fix>
</trkpt>
<trkpt lat="40.0728257" lon="-105.2306926">
  <ele>1595.32</ele>
  <time>2026-08-28T19:10:45Z</time>
  <course>169.28</course>
  <speed>0.04</speed>
  <fix>3d</fix>
</trkpt>
<trkpt lat="40.0728258" lon="-105.2306925">
  <ele>1595.43</ele>
  <time>2026-08-28T19:10:45Z</time>
  <course>13.34</course>
  <speed>0.02</speed>
  <fix>3d</fix>
</trkpt>
<trkpt lat="40.0728256" lon="-105.2306926">
  <ele>1595.32</ele>
  <time>2026-08-28T19:10:45Z</time>
  <course>169.63</course>
  <speed>0.04</speed>
  <fix>3d</fix>
</trkpt>
<trkpt lat="40.0728257" lon="-105.2306925">
  <ele>1595.43</ele>
  <time>2026-08-28T19:10:45Z</time>
  <course>13.28</course>
  <speed>0.0412310562561766</speed>
  <fix>3d</fix>
</trkpt>
<trkpt lat="40.0728256" lon="-105.2306926">
  <ele>1595.32</ele>
  <time>2026-08-28T19:10:45Z</time>
  <course>152.94</course>
  <speed>0.04</speed>
  <fix>3d</fix>
</trkpt>
<trkpt lat="40.0728256" lon="-105.2306925">
  <ele>1595.43</ele>
  <time>2026-08-28T19:10:45Z</time>
  <course>13.28</course>
  <speed>0.0</speed>
  <fix>3d</fix>
</trkpt>
<trkpt lat="40.0728255" lon="-105.2306926">
  <ele>1595.32</ele>
  <time>2026-08-28T19:10:45Z</time>
  <course>167.27</course>
  <speed>0.04</speed>
  <fix>3d</fix>
</trkpt>
<trkpt lat="40.0728256" lon="-105.2306925">
  <ele>1595.42</ele>
  <time>2026-08-28T19:10:45Z</time>
  <course>13.31</course>
  <speed>0.03</speed>
  <fix>3d</fix>
</trkpt>
<trkpt lat="40.0728254" lon="-105.2306925">
  <ele>1595.32</ele>
  <time>2026-08-28T19:10:45Z</time>
  <course>149.94</course>
  <speed>0.04</speed>
  <fix>3d</fix>
</trkpt>
<trkpt lat="40.0728255" lon="-105.2306925">
  <ele>1595.42</ele>
  <time>2026-08-28T19:10:45Z</time>
  <course>13.25</course>
  <speed>0.01</speed>
  <fix>3d</fix>
</trkpt>
<trkpt lat="40.0728253" lon="-105.2306924">
  <ele>1595.32</ele>
  <time>2026-08-28T19:10:45Z</time>
  <course>159.28</course>
  <speed>0.04</speed>
  <fix>3d</fix>
</trkpt>
<trkpt lat="40.0728254" lon="-105.2306925">
  <ele>1595.41</ele>
  <time>2026-08-28T19:10:45Z</time>
  <course>13.35</course>
  <speed>0.01414213562373095</speed>
  <fix>3d</fix>
</trkpt>
<trkpt lat="40.0728253" lon="-105.2306924">
  <ele>1595.32</ele>
  <time>2026-08-28T19:10:45Z</time>
  <course>152.18</course>
  <speed>0.04</speed>
  <fix>3d</fix>
</trkpt>
<trkpt lat="40.0728253" lon="-105.2306925">
  <ele>1595.41</ele>
  <time>2026-08-28T19:10:45Z</time>
  <course>13.27</course>
  <speed>0.022360679774997897</speed>
  <fix>3d</fix>
</trkpt>
<trkpt lat="40.0728252" lon="-105.2306924">
  <ele>1595.32</ele>
  <time>2026-08-28T19:10:45Z</time>
  <course>152.37</course>
  <speed>0.04</speed>
  <fix>3d</fix>
</trkpt>
<trkpt lat="40.0728253" lon="-105.2306924">
  <ele>1595.41</ele>
  <time>2026-08-28T19:10:45Z</time>
  <course>13.36</course>
  <speed>0.02</speed>
  <fix>3d</fix>
</trkpt>
<trkpt lat="40.0728251" lon="-105.2306924">
  <ele>1595.32</ele>
  <time>2026-08-28T19:10:45Z</time>
  <course>153.27</course>
  <speed>0.04</speed>
  <fix>3d</fix>
</trkpt>
<trkpt lat="40.0728252" lon="-105.2306924">
  <ele>1595.42</ele>
  <time>2026-08-28T19:10:45Z</time>
  <course>13.29</course>
  <speed>0.022360679774997897</speed>
  <fix>3d</fix>
</trkpt>
<trkpt lat="40.072825" lon="-105.2306923">
  <ele>1595.32</ele>
  <time>2026-08-28T19:10:45Z</time>
  <course>149.26</course>
  <speed>0.04</speed>
  <fix>3d</fix>
</trkpt>
<trkpt lat="40.0728251" lon="-105.2306924">
  <ele>1595.42</ele>
  <time>2026-08-28T19:10:45Z</time>
  <course>13.39</course>
  <speed>0.02</speed>
  <fix>3d</fix>
</trkpt>
<trkpt lat="40.072825" lon="-105.2306923">
  <ele>1595.33</ele>
  <time>2026-08-28T19:10:45Z</time>
  <course>152.66</course>
  <speed>0.04</speed>
  <fix>3d</fix>
</trkpt>
<trkpt lat="40.072825" lon="-105.2306923">
  <ele>1595.42</ele>
  <time>2026-08-28T19:10:45Z</time>
  <course>13.34</course>
  <speed>0.0316227766016838</speed>
  <fix>3d</fix>
</trkpt>
<trkpt lat="40.0728249" lon="-105.2306922">
  <ele>1595.33</ele>
  <time>2026-08-28T19:10:45Z</time>
  <course>149.0</course>
  <speed>0.04</speed>
  <fix>3d</fix>
</trkpt>
<trkpt lat="40.072825" lon="-105.2306923">
  <ele>1595.42</ele>
  <time>2026-08-28T19:10:45Z</time>
  <course>13.43</course>
  <speed>0.01</speed>
  <fix>3d</fix>
</trkpt>
<trkpt lat="40.0728248" lon="-105.2306921">
  <ele>1595.33</ele>
  <time>2026-08-28T19:10:45Z</time>
  <course>151.56</course>
  <speed>0.04</speed>
  <fix>3d</fix>
</trkpt>
<trkpt lat="40.0728249" lon="-105.2306922">
  <ele>1595.42</ele>
  <time>2026-08-28T19:10:45Z</time>
  <course>13.38</course>
  <speed>0.0316227766016838</speed>
  <fix>3d</fix>
</trkpt>
<trkpt lat="40.0728247" lon="-105.2306921">
  <ele>1595.34</ele>
  <time>2026-08-28T19:10:45Z</time>
  <course>150.11</course>
  <speed>0.04</speed>
  <fix>3d</fix>
</trkpt>
<trkpt lat="40.0728248" lon="-105.2306922">
  <ele>1595.42</ele>
  <time>2026-08-28T19:10:45Z</time>
  <course>13.48</course>
  <speed>0.01</speed>
  <fix>3d</fix>
</trkpt>
<trkpt lat="40.0728247" lon="-105.230692">
  <ele>1595.34</ele>
  <time>2026-08-28T19:10:45Z</time>
  <course>150.59</course>
  <speed>0.04</speed>
  <fix>3d</fix>
</trkpt>
<trkpt lat="40.0728247" lon="-105.2306921">
  <ele>1595.42</ele>
  <time>2026-08-28T19:10:45Z</time>
  <course>13.4</course>
  <speed>0.022360679774997897</speed>
  <fix>3d</fix>
</trkpt>
<trkpt lat="40.0728246" lon="-105.2306919">
  <ele>1595.34</ele>
  <time>2026-08-28T19:10:45Z</time>
  <course>151.13</course>
  <speed>0.04</speed>
  <fix>3d</fix>
</trkpt>
<trkpt lat="40.0728247" lon="-105.2306921">
  <ele>1595.42</ele>
  <time>2026-08-28T19:10:45Z</time>
  <course>13.52</course>
  <speed>0.022360679774997897</speed>
  <fix>3d</fix>
</trkpt>
<trkpt lat="40.0728245" lon="-105.2306919">
  <ele>1595.35</ele>
  <time>2026-08-28T19:10:45Z</time>
  <course>149.48</course>
  <speed>0.05</speed>
  <fix>3d</fix>
</trkpt>
<trkpt lat="40.0728246" lon="-105.230692">
  <ele>1595.43</ele>
  <time>2026-08-28T19:10:45Z</time>
  <course>13.43</course>
  <speed>0.022360679774997897</speed>
  <fix>3d</fix>
</trkpt>
<trkpt lat="40.0728244" lon="-105.2306918">
  <ele>1595.35</ele>
  <time>2026-08-28T19:10:45Z</time>
  <course>151.56</course>
  <speed>0.04</speed>
  <fix>3d</fix>
</trkpt>
<trkpt lat="40.0728245" lon="-105.230692">
  <ele>1595.42</ele>
  <time>2026-08-28T19:10:45Z</time>
  <course>13.58</course>
  <speed>0.01414213562373095</speed>
  <fix>3d</fix>
</trkpt>
<trkpt lat="40.0728243" lon="-105.2306917">
  <ele>1595.35</ele>
  <time>2026-08-28T19:10:45Z</time>
  <course>149.82</course>
  <speed>0.05</speed>
  <fix>3d</fix>
</trkpt>
<trkpt lat="40.0728244" lon="-105.2306919">
  <ele>1595.42</ele>
  <time>2026-08-28T19:10:45Z</time>
  <course>13.43</course>
  <speed>0.01414213562373095</speed>
  <fix>3d</fix>
</trkpt>
<trkpt lat="40.0728243" lon="-105.2306917">
  <ele>1595.35</ele>
  <time>2026-08-28T19:10:45Z</time>
  <course>151.41</course>
  <speed>0.04</speed>
  <fix>3d</fix>
</trkpt>
<trkpt lat="40.0728244" lon="-105.2306918">
  <ele>1595.42</ele>
  <time>2026-08-28T19:10:45Z</time>
  <course>13.59</course>
  <speed>0.022360679774997897</speed>
  <fix>3d</fix>
</trkpt>
<trkpt lat="40.0728242" lon="-105.2306917">
  <ele>1595.36</ele>
  <time>2026-08-28T19:10:45Z</time>
  <course>151.82</course>
  <speed>0.05</speed>
  <fix>3d</fix>
</trkpt>
<trkpt lat="40.0728243" lon="-105.2306918">
  <ele>1595.43</ele>
  <time>2026-08-28T19:10:45Z</time>
  <course>13.47</course>
  <speed>0.0</speed>
  <fix>3d</fix>
</trkpt>
<trkpt lat="40.0728241" lon="-105.2306916">
  <ele>1595.36</ele>
  <time>2026-08-28T19:10:45Z</time>
  <course>149.85</course>
  <speed>0.04</speed>
  <fix>3d</fix>
</trkpt>
<trkpt lat="40.0728242" lon="-105.2306917">
  <ele>1595.43</ele>
  <time>2026-08-28T19:10:45Z</time>
  <course>13.6</course>
  <speed>0.02</speed>
  <fix>3d</fix>
</trkpt>
<trkpt lat="40.072824" lon="-105.2306916">
  <ele>1595.36</ele>
  <time>2026-08-28T19:10:45Z</time>
  <course>155.95</course>
  <speed>0.04</speed>
  <fix>3d</fix>
</trkpt>
<trkpt lat="40.0728241" lon="-105.2306917">
  <ele>1595.44</ele>
  <time>2026-08-28T19:10:45Z</time>
  <course>13.63</course>
  <speed>0.01</speed>
  <fix>3d</fix>
</trkpt>
<trkpt lat="40.072824" lon="-105.2306915">
  <ele>1595.36</ele>
  <time>2026-08-28T19:10:45Z</time>
  <course>148.36</course>
  <speed>0.04</speed>
  <fix>3d</fix>
</trkpt>
<trkpt lat="40.0728241" lon="-105.2306916">
  <ele>1595.44</ele>
  <time>2026-08-28T19:10:45Z</time>
  <course>13.59</course>
  <speed>0.01414213562373095</speed>
  <fix>3d</fix>
</trkpt>
<trkpt lat="40.0728239" lon="-105.2306914">
  <ele>1595.36</ele>
  <time>2026-08-28T19:10:45Z</time>
  <course>158.4</course>
  <speed>0.04</speed>
  <fix>3d</fix>
</trkpt>
<trkpt lat="40.072824" lon="-105.2306916">
  <ele>1595.44</ele>
  <time>2026-08-28T19:10:45Z</time>
  <course>13.76</course>
  <speed>0.022360679774997897</speed>
  <fix>3d</fix>
</trkpt>
<trkpt lat="40.0728238" lon="-105.2306914">
  <ele>1595.36</ele>
  <time>2026-08-28T19:10:45Z</time>
  <course>150.7</course>
  <speed>0.04</speed>
  <fix>3d</fix>
</trkpt>
<trkpt lat="40.0728239" lon="-105.2306915">
  <ele>1595.44</ele>
  <time>2026-08-28T19:10:45Z</time>
  <course>13.59</course>
  <speed>0.0</speed>
  <fix>3d</fix>
</trkpt>
<trkpt lat="40.0728237" lon="-105.2306914">
  <ele>1595.36</ele>
  <time>2026-08-28T19:10:45Z</time>
  <course>153.53</course>
  <speed>0.04</speed>
  <fix>3d</fix>
</trkpt>
<trkpt lat="40.0728238" lon="-105.2306915">
  <ele>1595.44</ele>
  <time>2026-08-28T19:10:45Z</time>
  <course>13.72</course>
  <speed>0.02</speed>
  <fix>3d</fix>
</trkpt>
<trkpt lat="40.0728237" lon="-105.2306913">
  <ele>1595.36</ele>
  <time>2026-08-28T19:10:45Z</time>
  <course>158.45</course>
  <speed>0.04</speed>
  <fix>3d</fix>
</trkpt>
<trkpt lat="40.0728238" lon="-105.2306914">
  <ele>1595.43</ele>
  <time>2026-08-28T19:10:45Z</time>
  <course>13.79</course>
  <speed>0.01414213562373095</speed>
  <fix>3d</fix>
</trkpt>
<trkpt lat="40.0728236" lon="-105.2306912">
  <ele>1595.36</ele>
  <time>2026-08-28T19:10:45Z</time>
  <course>148.64</course>
  <speed>0.04</speed>
  <fix>3d</fix>
</trkpt>
<trkpt lat="40.0728237" lon="-105.2306914">
  <ele>1595.43</ele>
  <time>2026-08-28T19:10:45Z</time>
  <course>13.6</course>
  <speed>0.01</speed>
  <fix>3d</fix>
</trkpt>
<trkpt lat="40.0728235" lon="-105.2306912">
  <ele>1595.36</ele>
  <time>2026-08-28T19:10:45Z</time>
  <course>159.63</course>
  <speed>0.04</speed>
  <fix>3d</fix>
</trkpt>
<trkpt lat="40.0728236" lon="-105.2306913">
  <ele>1595.43</ele>
  <time>2026-08-28T19:10:45Z</time>
  <course>13.75</course>
  <speed>0.02</speed>
  <fix>3d</fix>
</trkpt>
<trkpt lat="40.0728235" lon="-105.2306912">
  <ele>1595.36</ele>
  <time>2026-08-28T19:10:45Z</time>
  <course>156.84</course>
  <speed>0.04</speed>
  <fix>3d</fix>
</trkpt>
<trkpt lat="40.0728236" lon="-105.2306913">
  <ele>1595.43</ele>
  <time>2026-08-28T19:10:45Z</time>
  <course>13.76</course>
  <speed>0.01414213562373095</speed>
  <fix>3d</fix>
</trkpt>
<trkpt lat="40.0728234" lon="-105.2306912">
  <ele>1595.36</ele>
  <time>2026-08-28T19:10:45Z</time>
  <course>150.17</course>
  <speed>0.04</speed>
  <fix>3d</fix>
</trkpt>
<trkpt lat="40.0728235" lon="-105.2306912">
  <ele>1595.42</ele>
  <time>2026-08-28T19:10:45Z</time>
  <course>13.59</course>
  <speed>0.01</speed>
  <fix>3d</fix>
</trkpt>
<trkpt lat="40.0728233" lon="-105.2306911">
  <ele>1595.36</ele>
  <time>2026-08-28T19:10:45Z</time>
  <course>162.25</course>
  <speed>0.04</speed>
  <fix>3d</fix>
</trkpt>
<trkpt lat="40.0728234" lon="-105.2306912">
  <ele>1595.42</ele>
  <time>2026-08-28T19:10:45Z</time>
  <course>13.71</course>
  <speed>0.01</speed>
  <fix>3d</fix>
</trkpt>
<trkpt lat="40.0728232" lon="-105.2306911">
  <ele>1595.36</ele>
  <time>2026-08-28T19:10:45Z</time>
  <course>158.67</course>
  <speed>0.04</speed>
  <fix>3d</fix>
</trkpt>
<trkpt lat="40.0728233" lon="-105.2306912">
  <ele>1595.41</ele>
  <time>2026-08-28T19:10:45Z</time>
  <course>13.73</course>
  <speed>0.01414213562373095</speed>
  <fix>3d</fix>
</trkpt>
<trkpt lat="40.0728231" lon="-105.230691">
  <ele>1595.36</ele>
  <time>2026-08-28T19:10:45Z</time>
  <course>151.76</course>
  <speed>0.04</speed>
  <fix>3d</fix>
</trkpt>
<trkpt lat="40.0728233" lon="-105.2306911">
  <ele>1595.41</ele>
  <time>2026-08-28T19:10:45Z</time>
  <course>13.58</course>
  <speed>0.01</speed>
  <fix>3d</fix>
</trkpt>
<trkpt lat="40.0728231" lon="-105.2306909">
  <ele>1595.36</ele>
  <time>2026-08-28T19:10:45Z</time>
  <course>161.22</course>
  <speed>0.03</speed>
  <fix>3d</fix>
</trkpt>
<trkpt lat="40.0728232" lon="-105.2306911">
  <ele>1595.42</ele>
  <time>2026-08-28T19:10:45Z</time>
  <course>13.59</course>
  <speed>0.01</speed>
  <fix>3d</fix>
</trkpt>
<trkpt lat="40.072823" lon="-105.2306909">
  <ele>1595.37</ele>
  <time>2026-08-28T19:10:45Z</time>
  <course>164.15</course>
  <speed>0.04</speed>
  <fix>3d</fix>
</trkpt>
<trkpt lat="40.0728231" lon="-105.2306911">
  <ele>1595.42</ele>
  <time>2026-08-28T19:10:45Z</time>
  <course>13.68</course>
  <speed>0.01</speed>
  <fix>3d</fix>
</trkpt>
<trkpt lat="40.072823" lon="-105.2306909">
  <ele>1595.37</ele>
  <time>2026-08-28T19:10:45Z</time>
  <course>155.81</course>
  <speed>0.04</speed>
  <fix>3d</fix>
</trkpt>
<trkpt lat="40.0728231" lon="-105.230691">
  <ele>1595.43</ele>
  <time>2026-08-28T19:10:45Z</time>
  <course>13.69</course>
  <speed>0.01</speed>
  <fix>3d</fix>
</trkpt>
<trkpt lat="40.0728229" lon="-105.2306909">
  <ele>1595.37</ele>
  <time>2026-08-28T19:10:45Z</time>
  <course>156.48</course>
  <speed>0.04</speed>
  <fix>3d</fix>
</trkpt>
<trkpt lat="40.072823" lon="-105.230691">
  <ele>1595.44</ele>
  <time>2026-08-28T19:10:45Z</time>
  <course>13.62</course>
  <speed>0.01</speed>
  <fix>3d</fix>
</trkpt>
<trkpt lat="40.0728228" lon="-105.2306909">
  <ele>1595.38</ele>
  <time>2026-08-28T19:10:45Z</time>
  <course>164.96</course>
  <speed>0.03</speed>
  <fix>3d</fix>
</trkpt>
<trkpt lat="40.0728229" lon="-105.230691">
  <ele>1595.44</ele>
  <time>2026-08-28T19:10:45Z</time>
  <course>13.62</course>
  <speed>0.01</speed>
  <fix>3d</fix>
</trkpt>
<trkpt lat="40.0728227" lon="-105.2306908">
  <ele>1595.38</ele>
  <time>2026-08-28T19:10:45Z</time>
  <course>165.86</course>
  <speed>0.03</speed>
  <fix>3d</fix>
</trkpt>
<trkpt lat="40.0728228" lon="-105.2306909">
  <ele>1595.44</ele>
  <time>2026-08-28T19:10:45Z</time>
  <course>13.69</course>
  <speed>0.01</speed>
  <fix>3d</fix>
</trkpt>
<trkpt lat="40.0728226" lon="-105.2306907">
  <ele>1595.38</ele>
  <time>2026-08-28T19:10:45Z</time>
  <course>159.44</course>
  <speed>0.03</speed>
  <fix>3d</fix>
</trkpt>
<trkpt lat="40.0728228" lon="-105.2306909">
  <ele>1595.44</ele>
  <time>2026-08-28T19:10:45Z</time>
  <course>13.72</course>
  <speed>0.01</speed>
  <fix>3d</fix>
</trkpt>
<trkpt lat="40.0728226" lon="-105.2306907">
  <ele>1595.38</ele>
  <time>2026-08-28T19:10:45Z</time>
  <course>156.6</course>
  <speed>0.04</speed>
  <fix>3d</fix>
</trkpt>
<trkpt lat="40.0728227" lon="-105.2306909">
  <ele>1595.45</ele>
  <time>2026-08-28T19:10:45Z</time>
  <course>13.71</course>
  <speed>0.01</speed>
  <fix>3d</fix>
</trkpt>
<trkpt lat="40.0728225" lon="-105.2306907">
  <ele>1595.38</ele>
  <time>2026-08-28T19:10:45Z</time>
  <course>159.84</course>
  <speed>0.03</speed>
  <fix>3d</fix>
</trkpt>
<trkpt lat="40.0728226" lon="-105.2306908">
  <ele>1595.45</ele>
  <time>2026-08-28T19:10:45Z</time>
  <course>13.68</course>
  <speed>0.01</speed>
  <fix>3d</fix>
</trkpt>
<trkpt lat="40.0728225" lon="-105.2306907">
  <ele>1595.38</ele>
  <time>2026-08-28T19:10:45Z</time>
  <course>164.47</course>
  <speed>0.03</speed>
  <fix>3d</fix>
</trkpt>
<trkpt lat="40.0728226" lon="-105.2306908">
  <ele>1595.45</ele>
  <time>2026-08-28T19:10:45Z</time>
  <course>13.65</course>
  <speed>0.01</speed>
  <fix>3d</fix>
</trkpt>
<trkpt lat="40.0728224" lon="-105.2306907">
  <ele>1595.38</ele>
  <time>2026-08-28T19:10:45Z</time>
  <course>165.69</course>
  <speed>0.03</speed>
  <fix>3d</fix>
</trkpt>
<trkpt lat="40.0728225" lon="-105.2306908">
  <ele>1595.44</ele>
  <time>2026-08-28T19:10:45Z</time>
  <course>13.65</course>
  <speed>0.01</speed>
  <fix>3d</fix>
</trkpt>
<trkpt lat="40.0728223" lon="-105.2306907">
  <ele>1595.37</ele>
  <time>2026-08-28T19:10:45Z</time>
  <course>163.39</course>
  <speed>0.03</speed>
  <fix>3d</fix>
</trkpt>
<trkpt lat="40.0728224" lon="-105.2306907">
  <ele>1595.44</ele>
  <time>2026-08-28T19:10:45Z</time>
  <course>13.64</course>
  <speed>0.01</speed>
  <fix>3d</fix>
</trkpt>
<trkpt lat="40.0728223" lon="-105.2306906">
  <ele>1595.37</ele>
  <time>2026-08-28T19:10:45Z</time>
  <course>160.0</course>
  <speed>0.03</speed>
  <fix>3d</fix>
</trkpt>
<trkpt lat="40.0728224" lon="-105.2306907">
  <ele>1595.43</ele>
  <time>2026-08-28T19:10:45Z</time>
  <course>13.66</course>
  <speed>0.01</speed>
  <fix>3d</fix>
</trkpt>
<trkpt lat="40.0728222" lon="-105.2306905">
  <ele>1595.37</ele>
  <time>2026-08-28T19:10:45Z</time>
  <course>157.76</course>
  <speed>0.03</speed>
  <fix>3d</fix>
</trkpt>
<trkpt lat="40.0728223" lon="-105.2306907">
  <ele>1595.43</ele>
  <time>2026-08-28T19:10:45Z</time>
  <course>13.65</course>
  <speed>0.01</speed>
  <fix>3d</fix>
</trkpt>
<trkpt lat="40.0728222" lon="-105.2306905">
  <ele>1595.37</ele>
  <time>2026-08-28T19:10:45Z</time>
  <course>157.14</course>
  <speed>0.03</speed>
  <fix>3d</fix>
</trkpt>
<trkpt lat="40.0728223" lon="-105.2306906">
  <ele>1595.43</ele>
  <time>2026-08-28T19:10:45Z</time>
  <course>13.66</course>
  <speed>0.01</speed>
  <fix>3d</fix>
</trkpt>
<trkpt lat="40.0728221" lon="-105.2306905">
  <ele>1595.36</ele>
  <time>2026-08-28T19:10:45Z</time>
  <course>157.65</course>
  <speed>0.03</speed>
  <fix>3d</fix>
</trkpt>
<trkpt lat="40.0728222" lon="-105.2306906">
  <ele>1595.43</ele>
  <time>2026-08-28T19:10:45Z</time>
  <course>13.67</course>
  <speed>0.01</speed>
  <fix>3d</fix>
</trkpt>
<trkpt lat="40.072822" lon="-105.2306905">
  <ele>1595.36</ele>
  <time>2026-08-28T19:10:45Z</time>
  <course>158.75</course>
  <speed>0.03</speed>
  <fix>3d</fix>
</trkpt>
<trkpt lat="40.0728221" lon="-105.2306906">
  <ele>1595.43</ele>
  <time>2026-08-28T19:10:45Z</time>
  <course>13.69</course>
  <speed>0.01</speed>
  <fix>3d</fix>
</trkpt>
<trkpt lat="40.0728219" lon="-105.2306905">
  <ele>1595.36</ele>
  <time>2026-08-28T19:10:45Z</time>
  <course>159.92</course>
  <speed>0.03</speed>
  <fix>3d</fix>
</trkpt>
<trkpt lat="40.0728221" lon="-105.2306905">
  <ele>1595.43</ele>
  <time>2026-08-28T19:10:45Z</time>
  <course>13.68</course>
  <speed>0.01</speed>
  <fix>3d</fix>
</trkpt>
<trkpt lat="40.0728219" lon="-105.2306905">
  <ele>1595.36</ele>
  <time>2026-08-28T19:10:45Z</time>
  <course>160.81</course>
  <speed>0.03</speed>
  <fix>3d</fix>
</trkpt>
<trkpt lat="40.072822" lon="-105.2306905">
  <ele>1595.43</ele>
  <time>2026-08-28T19:10:45Z</time>
  <course>13.67</course>
  <speed>0.01</speed>
  <fix>3d</fix>
</trkpt>
<trkpt lat="40.0728218" lon="-105.2306904">
  <ele>1595.36</ele>
  <time>2026-08-28T19:10:45Z</time>
  <course>161.23</course>
  <speed>0.03</speed>
  <fix>3d</fix>
</trkpt>
<trkpt lat="40.0728219" lon="-105.2306905">
  <ele>1595.43</ele>
  <time>2026-08-28T19:10:45Z</time>
  <course>13.66</course>
  <speed>0.01</speed>
  <fix>3d</fix>
</trkpt>
<trkpt lat="40.0728218" lon="-105.2306904">
  <ele>1595.36</ele>
  <time>2026-08-28T19:10:45Z</time>
  <course>161.34</course>
  <speed>0.03</speed>
  <fix>3d</fix>
</trkpt>
<trkpt lat="40.0728219" lon="-105.2306905">
  <ele>1595.43</ele>
  <time>2026-08-28T19:10:45Z</time>
  <course>13.66</course>
  <speed>0.01</speed>
  <fix>3d</fix>
</trkpt>
<trkpt lat="40.0728217" lon="-105.2306904">
  <ele>1595.36</ele>
  <time>2026-08-28T19:10:45Z</time>
  <course>161.34</course>
  <speed>0.03</speed>
  <fix>3d</fix>
</trkpt>
<trkpt lat="40.0728218" lon="-105.2306904">
  <ele>1595.43</ele>
  <time>2026-08-28T19:10:45Z</time>
  <course>13.65</course>
  <speed>0.01</speed>
  <fix>3d</fix>
</trkpt>
<trkpt lat="40.0728216" lon="-105.2306904">
  <ele>1595.36</ele>
  <time>2026-08-28T19:10:45Z</time>
  <course>161.19</course>
  <speed>0.03</speed>
  <fix>3d</fix>
</trkpt>
<trkpt lat="40.0728217" lon="-105.2306904">
  <ele>1595.43</ele>
  <time>2026-08-28T19:10:45Z</time>
  <course>13.65</course>
  <speed>0.01</speed>
  <fix>3d</fix>
</trkpt>
<trkpt lat="40.0728216" lon="-105.2306903">
  <ele>1595.36</ele>
  <time>2026-08-28T19:10:45Z</time>
  <course>161.1</course>
  <speed>0.03</speed>
  <fix>3d</fix>
</trkpt>
<trkpt lat="40.0728217" lon="-105.2306904">
  <ele>1595.43</ele>
  <time>2026-08-28T19:10:45Z</time>
  <course>13.64</course>
  <speed>0.01</speed>
  <fix>3d</fix>
</trkpt>
<trkpt lat="40.0728215" lon="-105.2306902">
  <ele>1595.36</ele>
  <time>2026-08-28T19:10:45Z</time>
  <course>161.37</course>
  <speed>0.03</speed>
  <fix>3d</fix>
</trkpt>
<trkpt lat="40.0728216" lon="-105.2306904">
  <ele>1595.43</ele>
  <time>2026-08-28T19:10:45Z</time>
  <course>13.64</course>
  <speed>0.01</speed>
  <fix>3d</fix>
</trkpt>
<trkpt lat="40.0728214" lon="-105.2306902">
  <ele>1595.36</ele>
  <time>2026-08-28T19:10:45Z</time>
  <course>162.29</course>
  <speed>0.03</speed>
  <fix>3d</fix>
</trkpt>
<trkpt lat="40.0728215" lon="-105.2306903">
  <ele>1595.43</ele>
  <time>2026-08-28T19:10:45Z</time>
  <course>13.64</course>
  <speed>0.01</speed>
  <fix>3d</fix>
</trkpt>
<trkpt lat="40.0728213" lon="-105.2306902">
  <ele>1595.36</ele>
  <time>2026-08-28T19:10:45Z</time>
  <course>164.01</course>
  <speed>0.03</speed>
  <fix>3d</fix>
</trkpt>
<trkpt lat="40.0728215" lon="-105.2306903">
  <ele>1595.43</ele>
  <time>2026-08-28T19:10:45Z</time>
  <course>13.66</course>
  <speed>0.01</speed>
  <fix>3d</fix>
</trkpt>
<trkpt lat="40.0728213" lon="-105.2306902">
  <ele>1595.36</ele>
  <time>2026-08-28T19:10:45Z</time>
  <course>165.77</course>
  <speed>0.03</speed>
  <fix>3d</fix>
</trkpt>
<trkpt lat="40.0728214" lon="-105.2306903">
  <ele>1595.43</ele>
  <time>2026-08-28T19:10:45Z</time>
  <course>13.67</course>
  <speed>0.01</speed>
  <fix>3d</fix>
</trkpt>
<trkpt lat="40.0728213" lon="-105.2306902">
  <ele>1595.36</ele>
  <time>2026-08-28T19:10:45Z</time>
  <course>166.42</course>
  <speed>0.03</speed>
  <fix>3d</fix>
</trkpt>
<trkpt lat="40.0728213" lon="-105.2306903">
  <ele>1595.43</ele>
  <time>2026-08-28T19:10:45Z</time>
  <course>13.68</course>
  <speed>0.01</speed>
  <fix>3d</fix>
</trkpt>
<trkpt lat="40.0728212" lon="-105.2306902">
  <ele>1595.36</ele>
  <time>2026-08-28T19:10:45Z</time>
  <course>165.25</course>
  <speed>0.03</speed>
  <fix>3d</fix>
</trkpt>
<trkpt lat="40.0728213" lon="-105.2306902">
  <ele>1595.43</ele>
  <time>2026-08-28T19:10:45Z</time>
  <course>13.68</course>
  <speed>0.01</speed>
  <fix>3d</fix>
</trkpt>
<trkpt lat="40.0728211" lon="-105.2306902">
  <ele>1595.36</ele>
  <time>2026-08-28T19:10:45Z</time>
  <course>163.37</course>
  <speed>0.03</speed>
  <fix>3d</fix>
</trkpt>
<trkpt lat="40.0728212" lon="-105.2306902">
  <ele>1595.43</ele>
  <time>2026-08-28T19:10:45Z</time>
  <course>13.69</course>
  <speed>0.01</speed>
  <fix>3d</fix>
</trkpt>
<trkpt lat="40.0728211" lon="-105.2306901">
  <ele>1595.36</ele>
  <time>2026-08-28T19:10:45Z</time>
  <course>163.16</course>
  <speed>0.03</speed>
  <fix>3d</fix>
</trkpt>
<trkpt lat="40.0728212" lon="-105.2306902">
  <ele>1595.42</ele>
  <time>2026-08-28T19:10:45Z</time>
  <course>13.7</course>
  <speed>0.01</speed>
  <fix>3d</fix>
</trkpt>
<trkpt lat="40.072821" lon="-105.23069">
  <ele>1595.36</ele>
  <time>2026-08-28T19:10:45Z</time>
  <course>164.46</course>
  <speed>0.03</speed>
  <fix>3d</fix>
</trkpt>
<trkpt lat="40.0728211" lon="-105.2306902">
  <ele>1595.42</ele>
  <time>2026-08-28T19:10:46Z</time>
  <course>13.67</course>
  <speed>0.01</speed>
  <fix>3d</fix>
</trkpt>
<trkpt lat="40.0728209" lon="-105.23069">
  <ele>1595.36</ele>
  <time>2026-08-28T19:10:46Z</time>
  <course>164.26</course>
  <speed>0.03</speed>
  <fix>3d</fix>
</trkpt>
<trkpt lat="40.072821" lon="-105.2306901">
  <ele>1595.43</ele>
  <time>2026-08-28T19:10:46Z</time>
  <course>13.64</course>
  <speed>0.01</speed>
  <fix>3d</fix>
</trkpt>
<trkpt lat="40.0728208" lon="-105.23069">
  <ele>1595.36</ele>
  <time>2026-08-28T19:10:46Z</time>
  <course>162.54</course>
  <speed>0.03</speed>
  <fix>3d</fix>
</trkpt>
<trkpt lat="40.072821" lon="-105.2306901">
  <ele>1595.43</ele>
  <time>2026-08-28T19:10:46Z</time>
  <course>13.67</course>
  <speed>0.01</speed>
  <fix>3d</fix>
</trkpt>
<trkpt lat="40.0728208" lon="-105.23069">
  <ele>1595.36</ele>
  <time>2026-08-28T19:10:46Z</time>
  <course>163.21</course>
  <speed>0.03</speed>
  <fix>3d</fix>
</trkpt>
<trkpt lat="40.0728209" lon="-105.2306901">
  <ele>1595.43</ele>
  <time>2026-08-28T19:10:46Z</time>
  <course>13.68</course>
  <speed>0.01</speed>
  <fix>3d</fix>
</trkpt>
<trkpt lat="40.0728207" lon="-105.23069">
  <ele>1595.37</ele>
  <time>2026-08-28T19:10:46Z</time>
  <course>164.32</course>
  <speed>0.03</speed>
  <fix>3d</fix>
</trkpt>
<trkpt lat="40.0728208" lon="-105.2306901">
  <ele>1595.44</ele>
  <time>2026-08-28T19:10:46Z</time>
  <course>13.69</course>
  <speed>0.01</speed>
  <fix>3d</fix>
</trkpt>
<trkpt lat="40.0728207" lon="-105.23069">
  <ele>1595.37</ele>
  <time>2026-08-28T19:10:46Z</time>
  <course>163.11</course>
  <speed>0.03</speed>
  <fix>3d</fix>
</trkpt>
<trkpt lat="40.0728208" lon="-105.2306901">
  <ele>1595.44</ele>
  <time>2026-08-28T19:10:46Z</time>
  <course>13.72</course>
  <speed>0.01</speed>
  <fix>3d</fix>
</trkpt>
<trkpt lat="40.0728206" lon="-105.23069">
  <ele>1595.37</ele>
  <time>2026-08-28T19:10:46Z</time>
  <course>163.62</course>
  <speed>0.03</speed>
  <fix>3d</fix>
</trkpt>
<trkpt lat="40.0728207" lon="-105.23069">
  <ele>1595.45</ele>
  <time>2026-08-28T19:10:46Z</time>
  <course>13.73</course>
  <speed>0.01</speed>
  <fix>3d</fix>
</trkpt>
<trkpt lat="40.0728206" lon="-105.23069">
  <ele>1595.37</ele>
  <time>2026-08-28T19:10:46Z</time>
  <course>163.8</course>
  <speed>0.03</speed>
  <fix>3d</fix>
</trkpt>
<trkpt lat="40.0728207" lon="-105.23069">
  <ele>1595.45</ele>
  <time>2026-08-28T19:10:46Z</time>
  <course>13.75</course>
  <speed>0.01</speed>
  <fix>3d</fix>
</trkpt>
<trkpt lat="40.0728205" lon="-105.2306899">
  <ele>1595.36</ele>
  <time>2026-08-28T19:10:46Z</time>
  <course>163.08</course>
  <speed>0.03</speed>
  <fix>3d</fix>
</trkpt>
<trkpt lat="40.0728206" lon="-105.23069">
  <ele>1595.44</ele>
  <time>2026-08-28T19:10:46Z</time>
  <course>13.75</course>
  <speed>0.01</speed>
  <fix>3d</fix>
</trkpt>
<trkpt lat="40.0728204" lon="-105.2306899">
  <ele>1595.36</ele>
  <time>2026-08-28T19:10:46Z</time>
  <course>162.91</course>
  <speed>0.03</speed>
  <fix>3d</fix>
</trkpt>
<trkpt lat="40.0728205" lon="-105.23069">
  <ele>1595.44</ele>
  <time>2026-08-28T19:10:46Z</time>
  <course>13.74</course>
  <speed>0.01</speed>
  <fix>3d</fix>
</trkpt>
<trkpt lat="40.0728204" lon="-105.2306899">
  <ele>1595.36</ele>
  <time>2026-08-28T19:10:46Z</time>
  <course>161.89</course>
  <speed>0.03</speed>
  <fix>3d</fix>
</trkpt>
<trkpt lat="40.0728205" lon="-105.23069">
  <ele>1595.44</ele>
  <time>2026-08-28T19:10:46Z</time>
  <course>13.74</course>
  <speed>0.01</speed>
  <fix>3d</fix>
</trkpt>
<trkpt lat="40.0728203" lon="-105.2306899">
  <ele>1595.35</ele>
  <time>2026-08-28T19:10:46Z</time>
  <course>161.15</course>
  <speed>0.03</speed>
  <fix>3d</fix>
</trkpt>
<trkpt lat="40.0728204" lon="-105.2306899">
  <ele>1595.43</ele>
  <time>2026-08-28T19:10:46Z</time>
  <course>13.74</course>
  <speed>0.01</speed>
  <fix>3d</fix>
</trkpt>
<trkpt lat="40.0728202" lon="-105.2306898">
  <ele>1595.35</ele>
  <time>2026-08-28T19:10:46Z</time>
  <course>160.7</course>
  <speed>0.03</speed>
  <fix>3d</fix>
</trkpt>
<trkpt lat="40.0728204" lon="-105.2306899">
  <ele>1595.43</ele>
  <time>2026-08-28T19:10:46Z</time>
  <course>13.72</course>
  <speed>0.01</speed>
  <fix>3d</fix>
</trkpt>
<trkpt lat="40.0728202" lon="-105.2306897">
  <ele>1595.34</ele>
  <time>2026-08-28T19:10:46Z</time>
  <course>159.87</course>
  <speed>0.03</speed>
  <fix>3d</fix>
</trkpt>
<trkpt lat="40.0728203" lon="-105.2306899">
  <ele>1595.43</ele>
  <time>2026-08-28T19:10:46Z</time>
  <course>13.72</course>
  <speed>0.01</speed>
  <fix>3d</fix>
</trkpt>
<trkpt lat="40.0728201" lon="-105.2306897">
  <ele>1595.34</ele>
  <time>2026-08-28T19:10:46Z</time>
  <course>159.87</course>
  <speed>0.03</speed>
  <fix>3d</fix>
</trkpt>
<trkpt lat="40.0728202" lon="-105.2306898">
  <ele>1595.43</ele>
  <time>2026-08-28T19:10:46Z</time>
  <course>13.7</course>
  <speed>0.01</speed>
  <fix>3d</fix>
</trkpt>
<trkpt lat="40.0728201" lon="-105.2306897">
  <ele>1595.34</ele>
  <time>2026-08-28T19:10:46Z</time>
  <course>159.65</course>
  <speed>0.03</speed>
  <fix>3d</fix>
</trkpt>
<trkpt lat="40.0728202" lon="-105.2306898">
  <ele>1595.43</ele>
  <time>2026-08-28T19:10:46Z</time>
  <course>13.71</course>
  <speed>0.01</speed>
  <fix>3d</fix>
</trkpt>
<trkpt lat="40.07282" lon="-105.2306897">
  <ele>1595.34</ele>
  <time>2026-08-28T19:10:46Z</time>
  <course>159.28</course>
  <speed>0.03</speed>
  <fix>3d</fix>
</trkpt>
<trkpt lat="40.0728201" lon="-105.2306898">
  <ele>1595.43</ele>
  <time>2026-08-28T19:10:46Z</time>
  <course>13.71</course>
  <speed>0.01</speed>
  <fix>3d</fix>
</trkpt>
<trkpt lat="40.07282" lon="-105.2306897">
  <ele>1595.34</ele>
  <time>2026-08-28T19:10:46Z</time>
  <course>160.45</course>
  <speed>0.03</speed>
  <fix>3d</fix>
</trkpt>
<trkpt lat="40.0728201" lon="-105.2306898">
  <ele>1595.42</ele>
  <time>2026-08-28T19:10:46Z</time>
  <course>13.71</course>
  <speed>0.01</speed>
  <fix>3d</fix>
</trkpt>
<trkpt lat="40.0728199" lon="-105.2306897">
  <ele>1595.34</ele>
  <time>2026-08-28T19:10:46Z</time>
  <course>160.3</course>
  <speed>0.03</speed>
  <fix>3d</fix>
</trkpt>
<trkpt lat="40.07282" lon="-105.2306897">
  <ele>1595.42</ele>
  <time>2026-08-28T19:10:46Z</time>
  <course>13.7</course>
  <speed>0.01</speed>
  <fix>3d</fix>
</trkpt>
<trkpt lat="40.0728198" lon="-105.2306896">
  <ele>1595.34</ele>
  <time>2026-08-28T19:10:46Z</time>
  <course>159.96</course>
  <speed>0.03</speed>
  <fix>3d</fix>
</trkpt>
<trkpt lat="40.0728199" lon="-105.2306897">
  <ele>1595.42</ele>
  <time>2026-08-28T19:10:46Z</time>
  <course>13.71</course>
  <speed>0.01</speed>
  <fix>3d</fix>
</trkpt>
<trkpt lat="40.0728198" lon="-105.2306895">
  <ele>1595.34</ele>
  <time>2026-08-28T19:10:46Z</time>
  <course>160.93</course>
  <speed>0.03</speed>
  <fix>3d</fix>
</trkpt>
<trkpt lat="40.0728199" lon="-105.2306897">
  <ele>1595.42</ele>
  <time>2026-08-28T19:10:46Z</time>
  <course>13.71</course>
  <speed>0.01</speed>
  <fix>3d</fix>
</trkpt>
<trkpt lat="40.0728197" lon="-105.2306895">
  <ele>1595.34</ele>
  <time>2026-08-28T19:10:46Z</time>
  <course>161.65</course>
  <speed>0.03</speed>
  <fix>3d</fix>
</trkpt>
<trkpt lat="40.0728198" lon="-105.2306897">
  <ele>1595.41</ele>
  <time>2026-08-28T19:10:46Z</time>
  <course>13.71</course>
  <speed>0.01</speed>
  <fix>3d</fix>
</trkpt>
<trkpt lat="40.0728196" lon="-105.2306895">
  <ele>1595.34</ele>
  <time>2026-08-28T19:10:46Z</time>
  <course>161.36</course>
  <speed>0.03</speed>
  <fix>3d</fix>
</trkpt>
<trkpt lat="40.0728198" lon="-105.2306896">
  <ele>1595.42</ele>
  <time>2026-08-28T19:10:46Z</time>
  <course>13.7</course>
  <speed>0.01</speed>
  <fix>3d</fix>
</trkpt>
<trkpt lat="40.0728196" lon="-105.2306895">
  <ele>1595.34</ele>
  <time>2026-08-28T19:10:46Z</time>
  <course>160.87</course>
  <speed>0.03</speed>
  <fix>3d</fix>
</trkpt>
<trkpt lat="40.0728197" lon="-105.2306896">
  <ele>1595.42</ele>
  <time>2026-08-28T19:10:46Z</time>
  <course>13.7</course>
  <speed>0.01</speed>
  <fix>3d</fix>
</trkpt>
<trkpt lat="40.0728195" lon="-105.2306895">
  <ele>1595.35</ele>
  <time>2026-08-28T19:10:46Z</time>
  <course>160.91</course>
  <speed>0.03</speed>
  <fix>3d</fix>
</trkpt>
<trkpt lat="40.0728196" lon="-105.2306896">
  <ele>1595.43</ele>
  <time>2026-08-28T19:10:46Z</time>
  <course>13.71</course>
  <speed>0.01</speed>
  <fix>3d</fix>
</trkpt>
<trkpt lat="40.0728195" lon="-105.2306895">
  <ele>1595.35</ele>
  <time>2026-08-28T19:10:46Z</time>
  <course>161.19</course>
  <speed>0.03</speed>
  <fix>3d</fix>
</trkpt>
<trkpt lat="40.0728196" lon="-105.2306895">
  <ele>1595.44</ele>
  <time>2026-08-28T19:10:46Z</time>
  <course>13.73</course>
  <speed>0.01</speed>
  <fix>3d</fix>
</trkpt>
<trkpt lat="40.0728194" lon="-105.2306894">
  <ele>1595.35</ele>
  <time>2026-08-28T19:10:46Z</time>
  <course>161.51</course>
  <speed>0.03</speed>
  <fix>3d</fix>
</trkpt>
<trkpt lat="40.0728195" lon="-105.2306895">
  <ele>1595.44</ele>
  <time>2026-08-28T19:10:46Z</time>
  <course>13.76</course>
  <speed>0.01</speed>
  <fix>3d</fix>
</trkpt>
<trkpt lat="40.0728194" lon="-105.2306893">
  <ele>1595.35</ele>
  <time>2026-08-28T19:10:46Z</time>
  <course>161.65</course>
  <speed>0.03</speed>
  <fix>3d</fix>
</trkpt>
<trkpt lat="40.0728195" lon="-105.2306895">
  <ele>1595.44</ele>
  <time>2026-08-28T19:10:46Z</time>
  <course>13.77</course>
  <speed>0.01</speed>
  <fix>3d</fix>
</trkpt>
<trkpt lat="40.0728193" lon="-105.2306893">
  <ele>1595.35</ele>
  <time>2026-08-28T19:10:46Z</time>
  <course>161.5</course>
  <speed>0.03</speed>
  <fix>3d</fix>
</trkpt>
<trkpt lat="40.0728194" lon="-105.2306895">
  <ele>1595.44</ele>
  <time>2026-08-28T19:10:46Z</time>
  <course>13.79</course>
  <speed>0.01</speed>
  <fix>3d</fix>
</trkpt>
<trkpt lat="40.0728193" lon="-105.2306893">
  <ele>1595.35</ele>
  <time>2026-08-28T19:10:46Z</time>
  <course>161.39</course>
  <speed>0.03</speed>
  <fix>3d</fix>
</trkpt>
<trkpt lat="40.0728194" lon="-105.2306894">
  <ele>1595.44</ele>
  <time>2026-08-28T19:10:46Z</time>
  <course>13.79</course>
  <speed>0.01</speed>
  <fix>3d</fix>
</trkpt>
<trkpt lat="40.0728192" lon="-105.2306893">
  <ele>1595.35</ele>
  <time>2026-08-28T19:10:46Z</time>
  <course>161.12</course>
  <speed>0.03</speed>
  <fix>3d</fix>
</trkpt>
<trkpt lat="40.0728193" lon="-105.2306894">
  <ele>1595.44</ele>
  <time>2026-08-28T19:10:46Z</time>
  <course>13.77</course>
  <speed>0.01</speed>
  <fix>3d</fix>
</trkpt>
<trkpt lat="40.0728191" lon="-105.2306893">
  <ele>1595.35</ele>
  <time>2026-08-28T19:10:46Z</time>
  <course>160.82</course>
  <speed>0.03</speed>
  <fix>3d</fix>
</trkpt>
<trkpt lat="40.0728192" lon="-105.2306894">
  <ele>1595.44</ele>
  <time>2026-08-28T19:10:46Z</time>
  <course>13.76</course>
  <speed>0.01</speed>
  <fix>3d</fix>
</trkpt>
<trkpt lat="40.072819" lon="-105.2306893">
  <ele>1595.34</ele>
  <time>2026-08-28T19:10:46Z</time>
  <course>160.74</course>
  <speed>0.03</speed>
  <fix>3d</fix>
</trkpt>
<trkpt lat="40.0728192" lon="-105.2306894">
  <ele>1595.44</ele>
  <time>2026-08-28T19:10:46Z</time>
  <course>13.76</course>
  <speed>0.01</speed>
  <fix>3d</fix>
</trkpt>
<trkpt lat="40.072819" lon="-105.2306893">
  <ele>1595.34</ele>
  <time>2026-08-28T19:10:46Z</time>
  <course>160.96</course>
  <speed>0.03</speed>
  <fix>3d</fix>
</trkpt>
<trkpt lat="40.0728191" lon="-105.2306893">
  <ele>1595.44</ele>
  <time>2026-08-28T19:10:46Z</time>
  <course>13.76</course>
  <speed>0.01</speed>
  <fix>3d</fix>
</trkpt>
<trkpt lat="40.0728189" lon="-105.2306892">
  <ele>1595.34</ele>
  <time>2026-08-28T19:10:46Z</time>
  <course>161.47</course>
  <speed>0.03</speed>
  <fix>3d</fix>
</trkpt>
<trkpt lat="40.072819" lon="-105.2306893">
  <ele>1595.43</ele>
  <time>2026-08-28T19:10:46Z</time>
  <course>13.75</course>
  <speed>0.01</speed>
  <fix>3d</fix>
</trkpt>
<trkpt lat="40.0728189" lon="-105.2306892">
  <ele>1595.33</ele>
  <time>2026-08-28T19:10:46Z</time>
  <course>162.07</course>
  <speed>0.03</speed>
  <fix>3d</fix>
</trkpt>
<trkpt lat="40.072819" lon="-105.2306893">
  <ele>1595.43</ele>
  <time>2026-08-28T19:10:46Z</time>
  <course>13.74</course>
  <speed>0.02</speed>
  <fix>3d</fix>
</trkpt>
<trkpt lat="40.0728188" lon="-105.2306892">
  <ele>1595.33</ele>
  <time>2026-08-28T19:10:46Z</time>
  <course>162.68</course>
  <speed>0.04</speed>
  <fix>3d</fix>
</trkpt>
<trkpt lat="40.0728189" lon="-105.2306893">
  <ele>1595.42</ele>
  <time>2026-08-28T19:10:46Z</time>
  <course>13.74</course>
  <speed>0.02</speed>
  <fix>3d</fix>
</trkpt>
<trkpt lat="40.0728187" lon="-105.2306891">
  <ele>1595.33</ele>
  <time>2026-08-28T19:10:46Z</time>
  <course>163.77</course>
  <speed>0.04</speed>
  <fix>3d</fix>
</trkpt>
<trkpt lat="40.0728188" lon="-105.2306892">
  <ele>1595.42</ele>
  <time>2026-08-28T19:10:46Z</time>
  <course>13.73</course>
  <speed>0.02</speed>
  <fix>3d</fix>
</trkpt>
<trkpt lat="40.0728187" lon="-105.230689">
  <ele>1595.33</ele>
  <time>2026-08-28T19:10:46Z</time>
  <course>165.18</course>
  <speed>0.04</speed>
  <fix>3d</fix>
</trkpt>
<trkpt lat="40.0728187" lon="-105.2306892">
  <ele>1595.41</ele>
  <time>2026-08-28T19:10:46Z</time>
  <course>13.73</course>
  <speed>0.02</speed>
  <fix>3d</fix>
</trkpt>
<trkpt lat="40.0728186" lon="-105.230689">
  <ele>1595.33</ele>
  <time>2026-08-28T19:10:46Z</time>
  <course>166.23</course>
  <speed>0.04</speed>
  <fix>3d</fix>
</trkpt>
<trkpt lat="40.0728186" lon="-105.2306892">
  <ele>1595.41</ele>
  <time>2026-08-28T19:10:46Z</time>
  <course>13.7</course>
  <speed>0.03</speed>
  <fix>3d</fix>
</trkpt>
<trkpt lat="40.0728185" lon="-105.230689">
  <ele>1595.33</ele>
  <time>2026-08-28T19:10:46Z</time>
  <course>166.71</course>
  <speed>0.05</speed>
  <fix>3d</fix>
</trkpt>
<trkpt lat="40.0728185" lon="-105.2306891">
  <ele>1595.41</ele>
  <time>2026-08-28T19:10:46Z</time>
  <course>13.7</course>
  <speed>0.03</speed>
  <fix>3d</fix>
</trkpt>
<trkpt lat="40.0728184" lon="-105.230689">
  <ele>1595.33</ele>
  <time>2026-08-28T19:10:46Z</time>
  <course>167.03</course>
  <speed>0.05</speed>
  <fix>3d</fix>
</trkpt>
<trkpt lat="40.0728184" lon="-105.2306891">
  <ele>1595.41</ele>
  <time>2026-08-28T19:10:46Z</time>
  <course>13.73</course>
  <speed>0.03</speed>
  <fix>3d</fix>
</trkpt>
<trkpt lat="40.0728183" lon="-105.230689">
  <ele>1595.33</ele>
  <time>2026-08-28T19:10:46Z</time>
  <course>167.81</course>
  <speed>0.05</speed>
  <fix>3d</fix>
</trkpt>
<trkpt lat="40.0728183" lon="-105.2306891">
  <ele>1595.41</ele>
  <time>2026-08-28T19:10:46Z</time>
  <course>13.72</course>
  <speed>0.03</speed>
  <fix>3d</fix>
</trkpt>
<trkpt lat="40.0728182" lon="-105.230689">
  <ele>1595.34</ele>
  <time>2026-08-28T19:10:46Z</time>
  <course>168.37</course>
  <speed>0.05</speed>
  <fix>3d</fix>
</trkpt>
<trkpt lat="40.0728182" lon="-105.2306891">
  <ele>1595.42</ele>
  <time>2026-08-28T19:10:46Z</time>
  <course>13.72</course>
  <speed>0.03</speed>
  <fix>3d</fix>
</trkpt>
<trkpt lat="40.0728181" lon="-105.230689">
  <ele>1595.34</ele>
  <time>2026-08-28T19:10:46Z</time>
  <course>168.74</course>
  <speed>0.05</speed>
  <fix>3d</fix>
</trkpt>
<trkpt lat="40.0728181" lon="-105.230689">
  <ele>1595.42</ele>
  <time>2026-08-28T19:10:46Z</time>
  <course>13.73</course>
  <speed>0.03</speed>
  <fix>3d</fix>
</trkpt>
<trkpt lat="40.072818" lon="-105.2306889">
  <ele>1595.34</ele>
  <time>2026-08-28T19:10:46Z</time>
  <course>169.32</course>
  <speed>0.05</speed>
  <fix>3d</fix>
</trkpt>
<trkpt lat="40.072818" lon="-105.230689">
  <ele>1595.42</ele>
  <time>2026-08-28T19:10:46Z</time>
  <course>13.74</course>
  <speed>0.04</speed>
  <fix>3d</fix>
</trkpt>
<trkpt lat="40.0728179" lon="-105.2306888">
  <ele>1595.35</ele>
  <time>2026-08-28T19:10:46Z</time>
  <course>169.94</course>
  <speed>0.06</speed>
  <fix>3d</fix>
</trkpt>
<trkpt lat="40.0728179" lon="-105.230689">
  <ele>1595.43</ele>
  <time>2026-08-28T19:10:46Z</time>
  <course>13.74</course>
  <speed>0.04</speed>
  <fix>3d</fix>
</trkpt>
<trkpt lat="40.0728178" lon="-105.2306888">
  <ele>1595.35</ele>
  <time>2026-08-28T19:10:46Z</time>
  <course>170.34</course>
  <speed>0.06</speed>
  <fix>3d</fix>
</trkpt>
<trkpt lat="40.0728178" lon="-105.230689">
  <ele>1595.43</ele>
  <time>2026-08-28T19:10:46Z</time>
  <course>13.74</course>
  <speed>0.04</speed>
  <fix>3d</fix>
</trkpt>
<trkpt lat="40.0728177" lon="-105.2306888">
  <ele>1595.35</ele>
  <time>2026-08-28T19:10:46Z</time>
  <course>170.39</course>
  <speed>0.06</speed>
  <fix>3d</fix>
</trkpt>
<trkpt lat="40.0728177" lon="-105.2306889">
  <ele>1595.43</ele>
  <time>2026-08-28T19:10:46Z</time>
  <course>13.74</course>
  <speed>0.02</speed>
  <fix>3d</fix>
</trkpt>
<trkpt lat="40.0728176" lon="-105.2306888">
  <ele>1595.36</ele>
  <time>2026-08-28T19:10:46Z</time>
  <course>169.61</course>
  <speed>0.05</speed>
  <fix>3d</fix>
</trkpt>
<trkpt lat="40.0728177" lon="-105.2306889">
  <ele>1595.44</ele>
  <time>2026-08-28T19:10:46Z</time>
  <course>13.88</course>
  <speed>0.02</speed>
  <fix>3d</fix>
</trkpt>
<trkpt lat="40.0728175" lon="-105.2306888">
  <ele>1595.36</ele>
  <time>2026-08-28T19:10:46Z</time>
  <course>151.69</course>
  <speed>0.04</speed>
  <fix>3d</fix>
</trkpt>
<trkpt lat="40.0728176" lon="-105.2306888">
  <ele>1595.44</ele>
  <time>2026-08-28T19:10:46Z</time>
  <course>13.84</course>
  <speed>0.0</speed>
  <fix>3d</fix>
</trkpt>
<trkpt lat="40.0728175" lon="-105.2306887">
  <ele>1595.36</ele>
  <time>2026-08-28T19:10:46Z</time>
  <course>136.16</course>
  <speed>0.03</speed>
  <fix>3d</fix>
</trkpt>
<trkpt lat="40.0728176" lon="-105.2306888">
  <ele>1595.44</ele>
  <time>2026-08-28T19:10:46Z</time>
  <course>13.99</course>
  <speed>0.0</speed>
  <fix>3d</fix>
</trkpt>
<trkpt lat="40.0728174" lon="-105.2306887">
  <ele>1595.36</ele>
  <time>2026-08-28T19:10:46Z</time>
  <course>142.95</course>
  <speed>0.02</speed>
  <fix>3d</fix>
</trkpt>
<trkpt lat="40.0728176" lon="-105.2306888">
  <ele>1595.44</ele>
  <time>2026-08-28T19:10:46Z</time>
  <course>14.06</course>
  <speed>0.01</speed>
  <fix>3d</fix>
</trkpt>
<trkpt lat="40.0728174" lon="-105.2306887">
  <ele>1595.36</ele>
  <time>2026-08-28T19:10:46Z</time>
  <course>134.18</course>
  <speed>0.02</speed>
  <fix>3d</fix>
</trkpt>
<trkpt lat="40.0728175" lon="-105.2306887">
  <ele>1595.44</ele>
  <time>2026-08-28T19:10:46Z</time>
  <course>13.89</course>
  <speed>0.0</speed>
  <fix>3d</fix>
</trkpt>
<trkpt lat="40.0728174" lon="-105.2306886">
  <ele>1595.35</ele>
  <time>2026-08-28T19:10:46Z</time>
  <course>156.23</course>
  <speed>0.02</speed>
  <fix>3d</fix>
</trkpt>
<trkpt lat="40.0728175" lon="-105.2306887">
  <ele>1595.43</ele>
  <time>2026-08-28T19:10:46Z</time>
  <course>14.01</course>
  <speed>0.01</speed>
  <fix>3d</fix>
</trkpt>
<trkpt lat="40.0728173" lon="-105.2306885">
  <ele>1595.35</ele>
  <time>2026-08-28T19:10:46Z</time>
  <course>159.38</course>
  <speed>0.02</speed>
  <fix>3d</fix>
</trkpt>
<trkpt lat="40.0728174" lon="-105.2306887">
  <ele>1595.43</ele>
  <time>2026-08-28T19:10:46Z</time>
  <course>14.05</course>
  <speed>0.01</speed>
  <fix>3d</fix>
</trkpt>
<trkpt lat="40.0728172" lon="-105.2306885">
  <ele>1595.35</ele>
  <time>2026-08-28T19:10:46Z</time>
  <course>146.34</course>
  <speed>0.03</speed>
  <fix>3d</fix>
</trkpt>
<trkpt lat="40.0728174" lon="-105.2306886">
  <ele>1595.43</ele>
  <time>2026-08-28T19:10:46Z</time>
  <course>13.87</course>
  <speed>0.0</speed>
  <fix>3d</fix>
</trkpt>
<trkpt lat="40.0728172" lon="-105.2306885">
  <ele>1595.35</ele>
  <time>2026-08-28T19:10:46Z</time>
  <course>162.58</course>
  <speed>0.02</speed>
  <fix>3d</fix>
</trkpt>
<trkpt lat="40.0728173" lon="-105.2306886">
  <ele>1595.44</ele>
  <time>2026-08-28T19:10:46Z</time>
  <course>14.01</course>
  <speed>0.01</speed>
  <fix>3d</fix>
</trkpt>
<trkpt lat="40.0728171" lon="-105.2306885">
  <ele>1595.35</ele>
  <time>2026-08-28T19:10:46Z</time>
  <course>157.75</course>
  <speed>0.03</speed>
  <fix>3d</fix>
</trkpt>
<trkpt lat="40.0728173" lon="-105.2306886">
  <ele>1595.44</ele>
  <time>2026-08-28T19:10:46Z</time>
  <course>14.03</course>
  <speed>0.01</speed>
  <fix>3d</fix>
</trkpt>
<trkpt lat="40.0728171" lon="-105.2306885">
  <ele>1595.35</ele>
  <time>2026-08-28T19:10:46Z</time>
  <course>147.56</course>
  <speed>0.03</speed>
  <fix>3d</fix>
</trkpt>
<trkpt lat="40.0728172" lon="-105.2306885">
  <ele>1595.44</ele>
  <time>2026-08-28T19:10:46Z</time>
  <course>13.89</course>
  <speed>0.0</speed>
  <fix>3d</fix>
</trkpt>
<trkpt lat="40.072817" lon="-105.2306884">
  <ele>1595.35</ele>
  <time>2026-08-28T19:10:46Z</time>
  <course>163.39</course>
  <speed>0.02</speed>
  <fix>3d</fix>
</trkpt>
<trkpt lat="40.0728172" lon="-105.2306885">
  <ele>1595.44</ele>
  <time>2026-08-28T19:10:46Z</time>
  <course>14.03</course>
  <speed>0.01</speed>
  <fix>3d</fix>
</trkpt>
<trkpt lat="40.072817" lon="-105.2306883">
  <ele>1595.34</ele>
  <time>2026-08-28T19:10:46Z</time>
  <course>155.94</course>
  <speed>0.03</speed>
  <fix>3d</fix>
</trkpt>
<trkpt lat="40.0728171" lon="-105.2306885">
  <ele>1595.44</ele>
  <time>2026-08-28T19:10:46Z</time>
  <course>14.03</course>
  <speed>0.01</speed>
  <fix>3d</fix>
</trkpt>
<trkpt lat="40.0728169" lon="-105.2306883">
  <ele>1595.34</ele>
  <time>2026-08-28T19:10:46Z</time>
  <course>148.11</course>
  <speed>0.03</speed>
  <fix>3d</fix>
</trkpt>
<trkpt lat="40.072817" lon="-105.2306884">
  <ele>1595.44</ele>
  <time>2026-08-28T19:10:46Z</time>
  <course>13.91</course>
  <speed>0.0</speed>
  <fix>3d</fix>
</trkpt>
<trkpt lat="40.0728169" lon="-105.2306883">
  <ele>1595.34</ele>
  <time>2026-08-28T19:10:46Z</time>
  <course>164.25</course>
  <speed>0.03</speed>
  <fix>3d</fix>
</trkpt>
<trkpt lat="40.072817" lon="-105.2306884">
  <ele>1595.44</ele>
  <time>2026-08-28T19:10:46Z</time>
  <course>14.06</course>
  <speed>0.01</speed>
  <fix>3d</fix>
</trkpt>
<trkpt lat="40.0728168" lon="-105.2306883">
  <ele>1595.34</ele>
  <time>2026-08-28T19:10:46Z</time>
  <course>154.41</course>
  <speed>0.03</speed>
  <fix>3d</fix>
</trkpt>
<trkpt lat="40.0728169" lon="-105.2306884">
  <ele>1595.44</ele>
  <time>2026-08-28T19:10:46Z</time>
  <course>14.02</course>
  <speed>0.01</speed>
  <fix>3d</fix>
</trkpt>
<trkpt lat="40.0728168" lon="-105.2306883">
  <ele>1595.33</ele>
  <time>2026-08-28T19:10:46Z</time>
  <course>149.01</course>
  <speed>0.03</speed>
  <fix>3d</fix>
</trkpt>
<trkpt lat="40.0728169" lon="-105.2306884">
  <ele>1595.43</ele>
  <time>2026-08-28T19:10:46Z</time>
  <course>13.92</course>
  <speed>0.0</speed>
  <fix>3d</fix>
</trkpt>
<trkpt lat="40.0728167" lon="-105.2306883">
  <ele>1595.33</ele>
  <time>2026-08-28T19:10:46Z</time>
  <course>164.23</course>
  <speed>0.03</speed>
  <fix>3d</fix>
</trkpt>
<trkpt lat="40.0728168" lon="-105.2306883">
  <ele>1595.42</ele>
  <time>2026-08-28T19:10:46Z</time>
  <course>14.03</course>
  <speed>0.01</speed>
  <fix>3d</fix>
</trkpt>
<trkpt lat="40.0728167" lon="-105.2306882">
  <ele>1595.33</ele>
  <time>2026-08-28T19:10:46Z</time>
  <course>152.34</course>
  <speed>0.03</speed>
  <fix>3d</fix>
</trkpt>
<trkpt lat="40.0728168" lon="-105.2306883">
  <ele>1595.42</ele>
  <time>2026-08-28T19:10:46Z</time>
  <course>13.95</course>
  <speed>0.0</speed>
  <fix>3d</fix>
</trkpt>
<trkpt lat="40.0728166" lon="-105.2306881">
  <ele>1595.32</ele>
  <time>2026-08-28T19:10:46Z</time>
  <course>149.64</course>
  <speed>0.03</speed>
  <fix>3d</fix>
</trkpt>
<trkpt lat="40.0728167" lon="-105.2306883">
  <ele>1595.41</ele>
  <time>2026-08-28T19:10:46Z</time>
  <course>13.89</course>
  <speed>0.01</speed>
  <fix>3d</fix>
</trkpt>
<trkpt lat="40.0728165" lon="-105.2306881">
  <ele>1595.32</ele>
  <time>2026-08-28T19:10:46Z</time>
  <course>163.84</course>
  <speed>0.03</speed>
  <fix>3d</fix>
</trkpt>
<trkpt lat="40.0728167" lon="-105.2306882">
  <ele>1595.41</ele>
  <time>2026-08-28T19:10:46Z</time>
  <course>13.97</course>
  <speed>0.02</speed>
  <fix>3d</fix>
</trkpt>
<trkpt lat="40.0728165" lon="-105.2306881">
  <ele>1595.32</ele>
  <time>2026-08-28T19:10:46Z</time>
  <course>150.96</course>
  <speed>0.03</speed>
  <fix>3d</fix>
</trkpt>
<trkpt lat="40.0728166" lon="-105.2306882">
  <ele>1595.41</ele>
  <time>2026-08-28T19:10:46Z</time>
  <course>13.77</course>
  <speed>0.0316227766016838</speed>
  <fix>3d</fix>
</trkpt>
<trkpt lat="40.0728164" lon="-105.2306881">
  <ele>1595.32</ele>
  <time>2026-08-28T19:10:46Z</time>
  <course>166.48</course>
  <speed>0.04</speed>
  <fix>3d</fix>
</trkpt>
<trkpt lat="40.0728165" lon="-105.2306882">
  <ele>1595.42</ele>
  <time>2026-08-28T19:10:46Z</time>
  <course>13.76</course>
  <speed>0.03</speed>
  <fix>3d</fix>
</trkpt>
<trkpt lat="40.0728163" lon="-105.2306881">
  <ele>1595.33</ele>
  <time>2026-08-28T19:10:46Z</time>
  <course>177.98</course>
  <speed>0.05</speed>
  <fix>3d</fix>
</trkpt>
<trkpt lat="40.0728164" lon="-105.2306882">
  <ele>1595.42</ele>
  <time>2026-08-28T19:10:46Z</time>
  <course>13.73</course>
  <speed>0.02</speed>
  <fix>3d</fix>
</trkpt>
<trkpt lat="40.0728162" lon="-105.2306881">
  <ele>1595.33</ele>
  <time>2026-08-28T19:10:46Z</time>
  <course>169.23</course>
  <speed>0.05</speed>
  <fix>3d</fix>
</trkpt>
<trkpt lat="40.0728163" lon="-105.2306882">
  <ele>1595.43</ele>
  <time>2026-08-28T19:10:46Z</time>
  <course>13.73</course>
  <speed>0.02</speed>
  <fix>3d</fix>
</trkpt>
<trkpt lat="40.0728161" lon="-105.230688">
  <ele>1595.33</ele>
  <time>2026-08-28T19:10:46Z</time>
  <course>164.67</course>
  <speed>0.05</speed>
  <fix>3d</fix>
</trkpt>
<trkpt lat="40.0728162" lon="-105.2306881">
  <ele>1595.43</ele>
  <time>2026-08-28T19:10:46Z</time>
  <course>13.74</course>
  <speed>0.01</speed>
  <fix>3d</fix>
</trkpt>
<trkpt lat="40.0728161" lon="-105.230688">
  <ele>1595.34</ele>
  <time>2026-08-28T19:10:46Z</time>
  <course>159.43</course>
  <speed>0.04</speed>
  <fix>3d</fix>
</trkpt>
<trkpt lat="40.0728161" lon="-105.2306881">
  <ele>1595.43</ele>
  <time>2026-08-28T19:10:46Z</time>
  <course>13.75</course>
  <speed>0.01</speed>
  <fix>3d</fix>
</trkpt>
<trkpt lat="40.072816" lon="-105.230688">
  <ele>1595.34</ele>
  <time>2026-08-28T19:10:46Z</time>
  <course>155.2</course>
  <speed>0.03</speed>
  <fix>3d</fix>
</trkpt>
<trkpt lat="40.0728161" lon="-105.230688">
  <ele>1595.43</ele>
  <time>2026-08-28T19:10:46Z</time>
  <course>13.75</course>
  <speed>0.0</speed>
  <fix>3d</fix>
</trkpt>
<trkpt lat="40.0728159" lon="-105.2306879">
  <ele>1595.34</ele>
  <time>2026-08-28T19:10:46Z</time>
  <course>151.48</course>
  <speed>0.03</speed>
  <fix>3d</fix>
</trkpt>
<trkpt lat="40.072816" lon="-105.230688">
  <ele>1595.43</ele>
  <time>2026-08-28T19:10:46Z</time>
  <course>13.75</course>
  <speed>0.0</speed>
  <fix>3d</fix>
</trkpt>
<trkpt lat="40.0728158" lon="-105.2306878">
  <ele>1595.34</ele>
  <time>2026-08-28T19:10:46Z</time>
  <course>148.05</course>
  <speed>0.03</speed>
  <fix>3d</fix>
</trkpt>
<trkpt lat="40.072816" lon="-105.230688">
  <ele>1595.43</ele>
  <time>2026-08-28T19:10:46Z</time>
  <course>13.75</course>
  <speed>0.0</speed>
  <fix>3d</fix>
</trkpt>
<trkpt lat="40.0728158" lon="-105.2306878">
  <ele>1595.34</ele>
  <time>2026-08-28T19:10:46Z</time>
  <course>144.49</course>
  <speed>0.02</speed>
  <fix>3d</fix>
</trkpt>
<trkpt lat="40.072816" lon="-105.2306879">
  <ele>1595.43</ele>
  <time>2026-08-28T19:10:46Z</time>
  <course>13.76</course>
  <speed>0.0</speed>
  <fix>3d</fix>
</trkpt>
<trkpt lat="40.0728158" lon="-105.2306878">
  <ele>1595.34</ele>
  <time>2026-08-28T19:10:46Z</time>
  <course>140.18</course>
  <speed>0.02</speed>
  <fix>3d</fix>
</trkpt>
<trkpt lat="40.0728159" lon="-105.2306879">
  <ele>1595.43</ele>
  <time>2026-08-28T19:10:46Z</time>
  <course>13.77</course>
  <speed>0.0</speed>
  <fix>3d</fix>
</trkpt>
<trkpt lat="40.0728158" lon="-105.2306878">
  <ele>1595.34</ele>
  <time>2026-08-28T19:10:46Z</time>
  <course>135.66</course>
  <speed>0.02</speed>
  <fix>3d</fix>
</trkpt>
<trkpt lat="40.0728159" lon="-105.2306878">
  <ele>1595.43</ele>
  <time>2026-08-28T19:10:46Z</time>
  <course>13.77</course>
  <speed>0.0</speed>
  <fix>3d</fix>
</trkpt>
<trkpt lat="40.0728158" lon="-105.2306877">
  <ele>1595.34</ele>
  <time>2026-08-28T19:10:46Z</time>
  <course>131.7</course>
  <speed>0.02</speed>
  <fix>3d</fix>
</trkpt>
<trkpt lat="40.0728159" lon="-105.2306878">
  <ele>1595.44</ele>
  <time>2026-08-28T19:10:46Z</time>
  <course>13.78</course>
  <speed>0.0</speed>
  <fix>3d</fix>
</trkpt>
<trkpt lat="40.0728157" lon="-105.2306876">
  <ele>1595.34</ele>
  <time>2026-08-28T19:10:46Z</time>
  <course>128.84</course>
  <speed>0.02</speed>
  <fix>3d</fix>
</trkpt>
<trkpt lat="40.0728159" lon="-105.2306878">
  <ele>1595.44</ele>
  <time>2026-08-28T19:10:46Z</time>
  <course>13.78</course>
  <speed>0.0</speed>
  <fix>3d</fix>
</trkpt>
<trkpt lat="40.0728157" lon="-105.2306876">
  <ele>1595.34</ele>
  <time>2026-08-28T19:10:46Z</time>
  <course>127.8</course>
  <speed>0.02</speed>
  <fix>3d</fix>
</trkpt>
<trkpt lat="40.0728158" lon="-105.2306877">
  <ele>1595.44</ele>
  <time>2026-08-28T19:10:46Z</time>
  <course>13.77</course>
  <speed>0.0</speed>
  <fix>3d</fix>
</trkpt>
<trkpt lat="40.0728157" lon="-105.2306876">
  <ele>1595.34</ele>
  <time>2026-08-28T19:10:46Z</time>
  <course>127.33</course>
  <speed>0.02</speed>
  <fix>3d</fix>
</trkpt>
<trkpt lat="40.0728158" lon="-105.2306877">
  <ele>1595.44</ele>
  <time>2026-08-28T19:10:46Z</time>
  <course>13.79</course>
  <speed>0.0</speed>
  <fix>3d</fix>
</trkpt>
<trkpt lat="40.0728157" lon="-105.2306876">
  <ele>1595.34</ele>
  <time>2026-08-28T19:10:46Z</time>
  <course>127.33</course>
  <speed>0.02</speed>
  <fix>3d</fix>
</trkpt>
<trkpt lat="40.0728158" lon="-105.2306876">
  <ele>1595.44</ele>
  <time>2026-08-28T19:10:46Z</time>
  <course>13.75</course>
  <speed>0.0316227766016838</speed>
  <fix>3d</fix>
</trkpt>
<trkpt lat="40.0728156" lon="-105.2306875">
  <ele>1595.34</ele>
  <time>2026-08-28T19:10:46Z</time>
  <course>100.31</course>
  <speed>0.02</speed>
  <fix>3d</fix>
</trkpt>
<trkpt lat="40.0728158" lon="-105.2306875">
  <ele>1595.43</ele>
  <time>2026-08-28T19:10:46Z</time>
  <course>13.89</course>
  <speed>0.03605551275463989</speed>
  <fix>3d</fix>
</trkpt>
<trkpt lat="40.0728156" lon="-105.2306874">
  <ele>1595.33</ele>
  <time>2026-08-28T19:10:46Z</time>
  <course>68.41</course>
  <speed>0.03</speed>
  <fix>3d</fix>
</trkpt>
<trkpt lat="40.0728158" lon="-105.2306875">
  <ele>1595.42</ele>
  <time>2026-08-28T19:10:46Z</time>
  <course>13.9</course>
  <speed>0.0412310562561766</speed>
  <fix>3d</fix>
</trkpt>
<trkpt lat="40.0728157" lon="-105.2306873">
  <ele>1595.33</ele>
  <time>2026-08-28T19:10:46Z</time>
  <course>53.52</course>
  <speed>0.03</speed>
  <fix>3d</fix>
</trkpt>
<trkpt lat="40.0728158" lon="-105.2306874">
  <ele>1595.42</ele>
  <time>2026-08-28T19:10:46Z</time>
  <course>13.93</course>
  <speed>0.02</speed>
  <fix>3d</fix>
</trkpt>
<trkpt lat="40.0728157" lon="-105.2306873">
  <ele>1595.33</ele>
  <time>2026-08-28T19:10:46Z</time>
  <course>52.95</course>
  <speed>0.02</speed>
  <fix>3d</fix>
</trkpt>
<trkpt lat="40.0728158" lon="-105.2306874">
  <ele>1595.42</ele>
  <time>2026-08-28T19:10:46Z</time>
  <course>14.01</course>
  <speed>0.0282842712474619</speed>
  <fix>3d</fix>
</trkpt>
<trkpt lat="40.0728157" lon="-105.2306873">
  <ele>1595.33</ele>
  <time>2026-08-28T19:10:46Z</time>
  <course>70.75</course>
  <speed>0.02</speed>
  <fix>3d</fix>
</trkpt>
<trkpt lat="40.0728158" lon="-105.2306873">
  <ele>1595.43</ele>
  <time>2026-08-28T19:10:46Z</time>
  <course>13.83</course>
  <speed>0.02</speed>
  <fix>3d</fix>
</trkpt>
<trkpt lat="40.0728157" lon="-105.2306872">
  <ele>1595.33</ele>
  <time>2026-08-28T19:10:46Z</time>
  <course>80.43</course>
  <speed>0.01</speed>
  <fix>3d</fix>
</trkpt>
<trkpt lat="40.0728158" lon="-105.2306873">
  <ele>1595.43</ele>
  <time>2026-08-28T19:10:46Z</time>
  <course>14.01</course>
  <speed>0.0</speed>
  <fix>3d</fix>
</trkpt>
<trkpt lat="40.0728157" lon="-105.2306871">
  <ele>1595.33</ele>
  <time>2026-08-28T19:10:46Z</time>
  <course>117.24</course>
  <speed>0.02</speed>
  <fix>3d</fix>
</trkpt>
<trkpt lat="40.0728158" lon="-105.2306873">
  <ele>1595.43</ele>
  <time>2026-08-28T19:10:46Z</time>
  <course>13.97</course>
  <speed>0.01414213562373095</speed>
  <fix>3d</fix>
</trkpt>
<trkpt lat="40.0728157" lon="-105.2306871">
  <ele>1595.33</ele>
  <time>2026-08-28T19:10:46Z</time>
  <course>112.08</course>
  <speed>0.02</speed>
  <fix>3d</fix>
</trkpt>
<trkpt lat="40.0728158" lon="-105.2306872">
  <ele>1595.44</ele>
  <time>2026-08-28T19:10:46Z</time>
  <course>13.96</course>
  <speed>0.0</speed>
  <fix>3d</fix>
</trkpt>
<trkpt lat="40.0728157" lon="-105.2306871">
  <ele>1595.33</ele>
  <time>2026-08-28T19:10:46Z</time>
  <course>137.05</course>
  <speed>0.02</speed>
  <fix>3d</fix>
</trkpt>
<trkpt lat="40.0728158" lon="-105.2306872">
  <ele>1595.44</ele>
  <time>2026-08-28T19:10:46Z</time>
  <course>14.09</course>
  <speed>0.02</speed>
  <fix>3d</fix>
</trkpt>
<trkpt lat="40.0728157" lon="-105.230687">
  <ele>1595.33</ele>
  <time>2026-08-28T19:10:46Z</time>
  <course>125.15</course>
  <speed>0.02</speed>
  <fix>3d</fix>
</trkpt>
<trkpt lat="40.0728158" lon="-105.2306871">
  <ele>1595.43</ele>
  <time>2026-08-28T19:10:46Z</time>
  <course>13.9</course>
  <speed>0.0</speed>
  <fix>3d</fix>
</trkpt>
<trkpt lat="40.0728156" lon="-105.2306869">
  <ele>1595.33</ele>
  <time>2026-08-28T19:10:46Z</time>
  <course>130.62</course>
  <speed>0.02</speed>
  <fix>3d</fix>
</trkpt>
<trkpt lat="40.0728158" lon="-105.2306871">
  <ele>1595.43</ele>
  <time>2026-08-28T19:10:46Z</time>
  <course>14.03</course>
  <speed>0.0</speed>
  <fix>3d</fix>
</trkpt>
<trkpt lat="40.0728156" lon="-105.2306869">
  <ele>1595.33</ele>
  <time>2026-08-28T19:10:46Z</time>
  <course>138.47</course>
  <speed>0.02</speed>
  <fix>3d</fix>
</trkpt>
<trkpt lat="40.0728157" lon="-105.230687">
  <ele>1595.43</ele>
  <time>2026-08-28T19:10:46Z</time>
  <course>13.99</course>
  <speed>0.01</speed>
  <fix>3d</fix>
</trkpt>
<trkpt lat="40.0728156" lon="-105.2306869">
  <ele>1595.33</ele>
  <time>2026-08-28T19:10:46Z</time>
  <course>126.53</course>
  <speed>0.02</speed>
  <fix>3d</fix>
</trkpt>
<trkpt lat="40.0728157" lon="-105.230687">
  <ele>1595.43</ele>
  <time>2026-08-28T19:10:46Z</time>
  <course>13.93</course>
  <speed>0.0</speed>
  <fix>3d</fix>
</trkpt>
<trkpt lat="40.0728155" lon="-105.2306869">
  <ele>1595.33</ele>
  <time>2026-08-28T19:10:46Z</time>
  <course>145.68</course>
  <speed>0.02</speed>
  <fix>3d</fix>
</trkpt>
<trkpt lat="40.0728157" lon="-105.2306869">
  <ele>1595.43</ele>
  <time>2026-08-28T19:10:46Z</time>
  <course>14.06</course>
  <speed>0.01</speed>
  <fix>3d</fix>
</trkpt>
<trkpt lat="40.0728155" lon="-105.2306868">
  <ele>1595.33</ele>
  <time>2026-08-28T19:10:46Z</time>
  <course>133.78</course>
  <speed>0.03</speed>
  <fix>3d</fix>
</trkpt>
<trkpt lat="40.0728156" lon="-105.2306869">
  <ele>1595.43</ele>
  <time>2026-08-28T19:10:46Z</time>
  <course>13.87</course>
  <speed>0.0</speed>
  <fix>3d</fix>
</trkpt>
<trkpt lat="40.0728155" lon="-105.2306868">
  <ele>1595.33</ele>
  <time>2026-08-28T19:10:46Z</time>
  <course>137.52</course>
  <speed>0.02</speed>
  <fix>3d</fix>
</trkpt>
<trkpt lat="40.0728156" lon="-105.2306868">
  <ele>1595.42</ele>
  <time>2026-08-28T19:10:46Z</time>
  <course>14.0</course>
  <speed>0.0</speed>
  <fix>3d</fix>
</trkpt>
<trkpt lat="40.0728154" lon="-105.2306867">
  <ele>1595.33</ele>
  <time>2026-08-28T19:10:46Z</time>
  <course>145.68</course>
  <speed>0.02</speed>
  <fix>3d</fix>
</trkpt>
<trkpt lat="40.0728156" lon="-105.2306868">
  <ele>1595.42</ele>
  <time>2026-08-28T19:10:46Z</time>
  <course>13.98</course>
  <speed>0.01</speed>
  <fix>3d</fix>
</trkpt>
<trkpt lat="40.0728153" lon="-105.2306866">
  <ele>1595.33</ele>
  <time>2026-08-28T19:10:46Z</time>
  <course>131.49</course>
  <speed>0.02</speed>
  <fix>3d</fix>
</trkpt>
<trkpt lat="40.0728155" lon="-105.2306868">
  <ele>1595.42</ele>
  <time>2026-08-28T19:10:46Z</time>
  <course>13.89</course>
  <speed>0.0</speed>
  <fix>3d</fix>
</trkpt>
<trkpt lat="40.0728153" lon="-105.2306866">
  <ele>1595.33</ele>
  <time>2026-08-28T19:10:46Z</time>
  <course>149.42</course>
  <speed>0.02</speed>
  <fix>3d</fix>
</trkpt>
<trkpt lat="40.0728155" lon="-105.2306867">
  <ele>1595.42</ele>
  <time>2026-08-28T19:10:46Z</time>
  <course>14.01</course>
  <speed>0.01</speed>
  <fix>3d</fix>
</trkpt>
<trkpt lat="40.0728153" lon="-105.2306866">
  <ele>1595.33</ele>
  <time>2026-08-28T19:10:46Z</time>
  <course>137.73</course>
  <speed>0.03</speed>
  <fix>3d</fix>
</trkpt>
<trkpt lat="40.0728154" lon="-105.2306867">
  <ele>1595.42</ele>
  <time>2026-08-28T19:10:46Z</time>
  <course>13.84</course>
  <speed>0.0</speed>
  <fix>3d</fix>
</trkpt>
<trkpt lat="40.0728152" lon="-105.2306866">
  <ele>1595.33</ele>
  <time>2026-08-28T19:10:46Z</time>
  <course>137.88</course>
  <speed>0.02</speed>
  <fix>3d</fix>
</trkpt>
<trkpt lat="40.0728154" lon="-105.2306866">
  <ele>1595.43</ele>
  <time>2026-08-28T19:10:46Z</time>
  <course>13.97</course>
  <speed>0.0</speed>
  <fix>3d</fix>
</trkpt>
<trkpt lat="40.0728152" lon="-105.2306865">
  <ele>1595.33</ele>
  <time>2026-08-28T19:10:46Z</time>
  <course>148.39</course>
  <speed>0.02</speed>
  <fix>3d</fix>
</trkpt>
<trkpt lat="40.0728154" lon="-105.2306866">
  <ele>1595.43</ele>
  <time>2026-08-28T19:10:46Z</time>
  <course>14.01</course>
  <speed>0.01</speed>
  <fix>3d</fix>
</trkpt>
<trkpt lat="40.0728152" lon="-105.2306864">
  <ele>1595.33</ele>
  <time>2026-08-28T19:10:46Z</time>
  <course>132.36</course>
  <speed>0.02</speed>
  <fix>3d</fix>
</trkpt>
<trkpt lat="40.0728153" lon="-105.2306866">
  <ele>1595.44</ele>
  <time>2026-08-28T19:10:46Z</time>
  <course>13.85</course>
  <speed>0.01414213562373095</speed>
  <fix>3d</fix>
</trkpt>
<trkpt lat="40.0728152" lon="-105.2306864">
  <ele>1595.34</ele>
  <time>2026-08-28T19:10:46Z</time>
  <course>153.19</course>
  <speed>0.02</speed>
  <fix>3d</fix>
</trkpt>
<trkpt lat="40.0728152" lon="-105.2306866">
  <ele>1595.44</ele>
  <time>2026-08-28T19:10:46Z</time>
  <course>13.83</course>
  <speed>0.01</speed>
  <fix>3d</fix>
</trkpt>
<trkpt lat="40.0728151" lon="-105.2306864">
  <ele>1595.34</ele>
  <time>2026-08-28T19:10:46Z</time>
  <course>164.08</course>
  <speed>0.03</speed>
  <fix>3d</fix>
</trkpt>
<trkpt lat="40.0728152" lon="-105.2306865">
  <ele>1595.44</ele>
  <time>2026-08-28T19:10:46Z</time>
  <course>13.77</course>
  <speed>0.01</speed>
  <fix>3d</fix>
</trkpt>
<trkpt lat="40.072815" lon="-105.2306864">
  <ele>1595.34</ele>
  <time>2026-08-28T19:10:46Z</time>
  <course>159.79</course>
  <speed>0.03</speed>
  <fix>3d</fix>
</trkpt>
<trkpt lat="40.0728151" lon="-105.2306865">
  <ele>1595.44</ele>
  <time>2026-08-28T19:10:46Z</time>
  <course>13.77</course>
  <speed>0.0</speed>
  <fix>3d</fix>
</trkpt>
<trkpt lat="40.072815" lon="-105.2306864">
  <ele>1595.33</ele>
  <time>2026-08-28T19:10:46Z</time>
  <course>150.44</course>
  <speed>0.03</speed>
  <fix>3d</fix>
</trkpt>
<trkpt lat="40.0728151" lon="-105.2306864">
  <ele>1595.43</ele>
  <time>2026-08-28T19:10:46Z</time>
  <course>13.77</course>
  <speed>0.0</speed>
  <fix>3d</fix>
</trkpt>
<trkpt lat="40.0728149" lon="-105.2306863">
  <ele>1595.33</ele>
  <time>2026-08-28T19:10:46Z</time>
  <course>136.39</course>
  <speed>0.03</speed>
  <fix>3d</fix>
</trkpt>
<trkpt lat="40.0728151" lon="-105.2306864">
  <ele>1595.43</ele>
  <time>2026-08-28T19:10:46Z</time>
  <course>13.76</course>
  <speed>0.01</speed>
  <fix>3d</fix>
</trkpt>
<trkpt lat="40.0728149" lon="-105.2306863">
  <ele>1595.33</ele>
  <time>2026-08-28T19:10:46Z</time>
  <course>123.9</course>
  <speed>0.02</speed>
  <fix>3d</fix>
</trkpt>
<trkpt lat="40.0728151" lon="-105.2306863">
  <ele>1595.43</ele>
  <time>2026-08-28T19:10:46Z</time>
  <course>13.76</course>
  <speed>0.01414213562373095</speed>
  <fix>3d</fix>
</trkpt>
<trkpt lat="40.0728149" lon="-105.2306862">
  <ele>1595.33</ele>
  <time>2026-08-28T19:10:46Z</time>
  <course>111.34</course>
  <speed>0.02</speed>
  <fix>3d</fix>
</trkpt>
<trkpt lat="40.0728151" lon="-105.2306863">
  <ele>1595.43</ele>
  <time>2026-08-28T19:10:46Z</time>
  <course>13.76</course>
  <speed>0.01414213562373095</speed>
  <fix>3d</fix>
</trkpt>
<trkpt lat="40.0728149" lon="-105.2306861">
  <ele>1595.33</ele>
  <time>2026-08-28T19:10:46Z</time>
  <course>99.91</course>
  <speed>0.02</speed>
  <fix>3d</fix>
</trkpt>
<trkpt lat="40.0728151" lon="-105.2306862">
  <ele>1595.43</ele>
  <time>2026-08-28T19:10:47Z</time>
  <course>13.76</course>
  <speed>0.022360679774997897</speed>
  <fix>3d</fix>
</trkpt>
<trkpt lat="40.0728149" lon="-105.2306861">
  <ele>1595.33</ele>
  <time>2026-08-28T19:10:47Z</time>
  <course>89.62</course>
  <speed>0.02</speed>
  <fix>3d</fix>
</trkpt>
<trkpt lat="40.0728151" lon="-105.2306862">
  <ele>1595.43</ele>
  <time>2026-08-28T19:10:47Z</time>
  <course>13.78</course>
  <speed>0.022360679774997897</speed>
  <fix>3d</fix>
</trkpt>
<trkpt lat="40.0728149" lon="-105.230686">
  <ele>1595.33</ele>
  <time>2026-08-28T19:10:47Z</time>
  <course>80.32</course>
  <speed>0.02</speed>
  <fix>3d</fix>
</trkpt>
<trkpt lat="40.0728151" lon="-105.2306861">
  <ele>1595.43</ele>
  <time>2026-08-28T19:10:47Z</time>
  <course>13.78</course>
  <speed>0.022360679774997897</speed>
  <fix>3d</fix>
</trkpt>
<trkpt lat="40.0728149" lon="-105.2306859">
  <ele>1595.33</ele>
  <time>2026-08-28T19:10:47Z</time>
  <course>73.15</course>
  <speed>0.02</speed>
  <fix>3d</fix>
</trkpt>
<trkpt lat="40.0728151" lon="-105.230686">
  <ele>1595.43</ele>
  <time>2026-08-28T19:10:47Z</time>
  <course>13.78</course>
  <speed>0.0316227766016838</speed>
  <fix>3d</fix>
</trkpt>
<trkpt lat="40.0728149" lon="-105.2306859">
  <ele>1595.33</ele>
  <time>2026-08-28T19:10:47Z</time>
  <course>68.15</course>
  <speed>0.02</speed>
  <fix>3d</fix>
</trkpt>
<trkpt lat="40.0728151" lon="-105.230686">
  <ele>1595.43</ele>
  <time>2026-08-28T19:10:47Z</time>
  <course>13.77</course>
  <speed>0.0316227766016838</speed>
  <fix>3d</fix>
</trkpt>
<trkpt lat="40.0728149" lon="-105.2306858">
  <ele>1595.32</ele>
  <time>2026-08-28T19:10:47Z</time>
  <course>64.82</course>
  <speed>0.02</speed>
  <fix>3d</fix>
</trkpt>
<trkpt lat="40.0728151" lon="-105.2306859">
  <ele>1595.43</ele>
  <time>2026-08-28T19:10:47Z</time>
  <course>13.77</course>
  <speed>0.0316227766016838</speed>
  <fix>3d</fix>
</trkpt>
<trkpt lat="40.0728149" lon="-105.2306857">
  <ele>1595.32</ele>
  <time>2026-08-28T19:10:47Z</time>
  <course>63.4</course>
  <speed>0.02</speed>
  <fix>3d</fix>
</trkpt>
<trkpt lat="40.0728151" lon="-105.2306858">
  <ele>1595.43</ele>
  <time>2026-08-28T19:10:47Z</time>
  <course>13.78</course>
  <speed>0.0316227766016838</speed>
  <fix>3d</fix>
</trkpt>
<trkpt lat="40.0728149" lon="-105.2306857">
  <ele>1595.32</ele>
  <time>2026-08-28T19:10:47Z</time>
  <course>63.1</course>
  <speed>0.02</speed>
  <fix>3d</fix>
</trkpt>
<trkpt lat="40.0728151" lon="-105.2306858">
  <ele>1595.43</ele>
  <time>2026-08-28T19:10:47Z</time>
  <course>13.78</course>
  <speed>0.0316227766016838</speed>
  <fix>3d</fix>
</trkpt>
<trkpt lat="40.0728149" lon="-105.2306857">
  <ele>1595.32</ele>
  <time>2026-08-28T19:10:47Z</time>
  <course>62.79</course>
  <speed>0.02</speed>
  <fix>3d</fix>
</trkpt>
<trkpt lat="40.0728151" lon="-105.2306857">
  <ele>1595.43</ele>
  <time>2026-08-28T19:10:47Z</time>
  <course>13.72</course>
  <speed>0.0412310562561766</speed>
  <fix>3d</fix>
</trkpt>
<trkpt lat="40.0728149" lon="-105.2306856">
  <ele>1595.32</ele>
  <time>2026-08-28T19:10:47Z</time>
  <course>54.98</course>
  <speed>0.03</speed>
  <fix>3d</fix>
</trkpt>
<trkpt lat="40.0728152" lon="-105.2306856">
  <ele>1595.43</ele>
  <time>2026-08-28T19:10:47Z</time>
  <course>13.82</course>
  <speed>0.044721359549995794</speed>
  <fix>3d</fix>
</trkpt>
<trkpt lat="40.0728149" lon="-105.2306855">
  <ele>1595.33</ele>
  <time>2026-08-28T19:10:47Z</time>
  <course>49.64</course>
  <speed>0.04</speed>
  <fix>3d</fix>
</trkpt>
<trkpt lat="40.0728152" lon="-105.2306856">
  <ele>1595.43</ele>
  <time>2026-08-28T19:10:47Z</time>
  <course>13.84</course>
  <speed>0.0412310562561766</speed>
  <fix>3d</fix>
</trkpt>
<trkpt lat="40.072815" lon="-105.2306854">
  <ele>1595.33</ele>
  <time>2026-08-28T19:10:47Z</time>
  <course>48.81</course>
  <speed>0.04</speed>
  <fix>3d</fix>
</trkpt>
<trkpt lat="40.0728152" lon="-105.2306855">
  <ele>1595.43</ele>
  <time>2026-08-28T19:10:47Z</time>
  <course>13.83</course>
  <speed>0.0316227766016838</speed>
  <fix>3d</fix>
</trkpt>
<trkpt lat="40.072815" lon="-105.2306854">
  <ele>1595.33</ele>
  <time>2026-08-28T19:10:47Z</time>
  <course>49.69</course>
  <speed>0.03</speed>
  <fix>3d</fix>
</trkpt>
<trkpt lat="40.0728152" lon="-105.2306855">
  <ele>1595.43</ele>
  <time>2026-08-28T19:10:47Z</time>
  <course>13.83</course>
  <speed>0.022360679774997897</speed>
  <fix>3d</fix>
</trkpt>
<trkpt lat="40.0728151" lon="-105.2306854">
  <ele>1595.33</ele>
  <time>2026-08-28T19:10:47Z</time>
  <course>59.02</course>
  <speed>0.02</speed>
  <fix>3d</fix>
</trkpt>
<trkpt lat="40.0728152" lon="-105.2306854">
  <ele>1595.43</ele>
  <time>2026-08-28T19:10:47Z</time>
  <course>13.83</course>
  <speed>0.01414213562373095</speed>
  <fix>3d</fix>
</trkpt>
<trkpt lat="40.0728151" lon="-105.2306853">
  <ele>1595.33</ele>
  <time>2026-08-28T19:10:47Z</time>
  <course>76.05</course>
  <speed>0.02</speed>
  <fix>3d</fix>
</trkpt>
<trkpt lat="40.0728152" lon="-105.2306854">
  <ele>1595.43</ele>
  <time>2026-08-28T19:10:47Z</time>
  <course>13.81</course>
  <speed>0.01</speed>
  <fix>3d</fix>
</trkpt>
<trkpt lat="40.0728151" lon="-105.2306852">
  <ele>1595.33</ele>
  <time>2026-08-28T19:10:47Z</time>
  <course>95.42</course>
  <speed>0.01</speed>
  <fix>3d</fix>
</trkpt>
<trkpt lat="40.0728152" lon="-105.2306853">
  <ele>1595.43</ele>
  <time>2026-08-28T19:10:47Z</time>
  <course>13.8</course>
  <speed>0.0</speed>
  <fix>3d</fix>
</trkpt>
<trkpt lat="40.0728151" lon="-105.2306852">
  <ele>1595.33</ele>
  <time>2026-08-28T19:10:47Z</time>
  <course>108.87</course>
  <speed>0.01</speed>
  <fix>3d</fix>
</trkpt>
<trkpt lat="40.0728152" lon="-105.2306853">
  <ele>1595.43</ele>
  <time>2026-08-28T19:10:47Z</time>
  <course>13.79</course>
  <speed>0.0</speed>
  <fix>3d</fix>
</trkpt>
<trkpt lat="40.0728151" lon="-105.2306852">
  <ele>1595.33</ele>
  <time>2026-08-28T19:10:47Z</time>
  <course>115.64</course>
  <speed>0.01</speed>
  <fix>3d</fix>
</trkpt>
<trkpt lat="40.0728152" lon="-105.2306852">
  <ele>1595.43</ele>
  <time>2026-08-28T19:10:47Z</time>
  <course>13.77</course>
  <speed>0.0</speed>
  <fix>3d</fix>
</trkpt>
<trkpt lat="40.0728151" lon="-105.2306851">
  <ele>1595.33</ele>
  <time>2026-08-28T19:10:47Z</time>
  <course>118.41</course>
  <speed>0.02</speed>
  <fix>3d</fix>
</trkpt>
<trkpt lat="40.0728152" lon="-105.2306852">
  <ele>1595.43</ele>
  <time>2026-08-28T19:10:47Z</time>
  <course>13.76</course>
  <speed>0.0</speed>
  <fix>3d</fix>
</trkpt>
<trkpt lat="40.0728151" lon="-105.2306851">
  <ele>1595.33</ele>
  <time>2026-08-28T19:10:47Z</time>
  <course>119.62</course>
  <speed>0.02</speed>
  <fix>3d</fix>
</trkpt>
<trkpt lat="40.0728152" lon="-105.2306852">
  <ele>1595.43</ele>
  <time>2026-08-28T19:10:47Z</time>
  <course>13.77</course>
  <speed>0.0</speed>
  <fix>3d</fix>
</trkpt>
<trkpt lat="40.0728151" lon="-105.230685">
  <ele>1595.33</ele>
  <time>2026-08-28T19:10:47Z</time>
  <course>120.18</course>
  <speed>0.02</speed>
  <fix>3d</fix>
</trkpt>
<trkpt lat="40.0728152" lon="-105.2306851">
  <ele>1595.43</ele>
  <time>2026-08-28T19:10:47Z</time>
  <course>13.79</course>
  <speed>0.0</speed>
  <fix>3d</fix>
</trkpt>
<trkpt lat="40.0728151" lon="-105.2306849">
  <ele>1595.33</ele>
  <time>2026-08-28T19:10:47Z</time>
  <course>120.77</course>
  <speed>0.02</speed>
  <fix>3d</fix>
</trkpt>
<trkpt lat="40.0728152" lon="-105.2306851">
  <ele>1595.43</ele>
  <time>2026-08-28T19:10:47Z</time>
  <course>13.81</course>
  <speed>0.0</speed>
  <fix>3d</fix>
</trkpt>
<trkpt lat="40.0728151" lon="-105.2306849">
  <ele>1595.33</ele>
  <time>2026-08-28T19:10:47Z</time>
  <course>122.11</course>
  <speed>0.02</speed>
  <fix>3d</fix>
</trkpt>
<trkpt lat="40.0728152" lon="-105.230685">
  <ele>1595.43</ele>
  <time>2026-08-28T19:10:47Z</time>
  <course>13.83</course>
  <speed>0.0</speed>
  <fix>3d</fix>
</trkpt>
<trkpt lat="40.0728151" lon="-105.2306849">
  <ele>1595.33</ele>
  <time>2026-08-28T19:10:47Z</time>
  <course>124.32</course>
  <speed>0.02</speed>
  <fix>3d</fix>
</trkpt>
<trkpt lat="40.0728152" lon="-105.230685">
  <ele>1595.43</ele>
  <time>2026-08-28T19:10:47Z</time>
  <course>13.84</course>
  <speed>0.0</speed>
  <fix>3d</fix>
</trkpt>
<trkpt lat="40.072815" lon="-105.2306849">
  <ele>1595.33</ele>
  <time>2026-08-28T19:10:47Z</time>
  <course>128.34</course>
  <speed>0.02</speed>
  <fix>3d</fix>
</trkpt>
<trkpt lat="40.0728151" lon="-105.2306849">
  <ele>1595.43</ele>
  <time>2026-08-28T19:10:47Z</time>
  <course>13.78</course>
  <speed>0.0</speed>
  <fix>3d</fix>
</trkpt>
<trkpt lat="40.072815" lon="-105.2306848">
  <ele>1595.32</ele>
  <time>2026-08-28T19:10:47Z</time>
  <course>141.69</course>
  <speed>0.02</speed>
  <fix>3d</fix>
</trkpt>
<trkpt lat="40.0728151" lon="-105.2306849">
  <ele>1595.43</ele>
  <time>2026-08-28T19:10:47Z</time>
  <course>13.78</course>
  <speed>0.0</speed>
  <fix>3d</fix>
</trkpt>
<trkpt lat="40.0728149" lon="-105.2306847">
  <ele>1595.32</ele>
  <time>2026-08-28T19:10:47Z</time>
  <course>145.22</course>
  <speed>0.02</speed>
  <fix>3d</fix>
</trkpt>
<trkpt lat="40.0728151" lon="-105.2306848">
  <ele>1595.42</ele>
  <time>2026-08-28T19:10:47Z</time>
  <course>13.76</course>
  <speed>0.0</speed>
  <fix>3d</fix>
</trkpt>
<trkpt lat="40.0728149" lon="-105.2306847">
  <ele>1595.32</ele>
  <time>2026-08-28T19:10:47Z</time>
  <course>135.76</course>
  <speed>0.02</speed>
  <fix>3d</fix>
</trkpt>
<trkpt lat="40.072815" lon="-105.2306848">
  <ele>1595.42</ele>
  <time>2026-08-28T19:10:47Z</time>
  <course>13.76</course>
  <speed>0.0</speed>
  <fix>3d</fix>
</trkpt>
<trkpt lat="40.0728149" lon="-105.2306847">
  <ele>1595.32</ele>
  <time>2026-08-28T19:10:47Z</time>
  <course>129.87</course>
  <speed>0.02</speed>
  <fix>3d</fix>
</trkpt>
<trkpt lat="40.072815" lon="-105.2306847">
  <ele>1595.42</ele>
  <time>2026-08-28T19:10:47Z</time>
  <course>13.76</course>
  <speed>0.01</speed>
  <fix>3d</fix>
</trkpt>
<trkpt lat="40.0728148" lon="-105.2306846">
  <ele>1595.32</ele>
  <time>2026-08-28T19:10:47Z</time>
  <course>124.04</course>
  <speed>0.02</speed>
  <fix>3d</fix>
</trkpt>
<trkpt lat="40.072815" lon="-105.2306847">
  <ele>1595.42</ele>
  <time>2026-08-28T19:10:47Z</time>
  <course>13.77</course>
  <speed>0.01</speed>
  <fix>3d</fix>
</trkpt>
<trkpt lat="40.0728147" lon="-105.2306845">
  <ele>1595.33</ele>
  <time>2026-08-28T19:10:47Z</time>
  <course>119.06</course>
  <speed>0.02</speed>
  <fix>3d</fix>
</trkpt>
<trkpt lat="40.072815" lon="-105.2306846">
  <ele>1595.42</ele>
  <time>2026-08-28T19:10:47Z</time>
  <course>13.76</course>
  <speed>0.01414213562373095</speed>
  <fix>3d</fix>
</trkpt>
<trkpt lat="40.0728147" lon="-105.2306845">
  <ele>1595.33</ele>
  <time>2026-08-28T19:10:47Z</time>
  <course>115.36</course>
  <speed>0.02</speed>
  <fix>3d</fix>
</trkpt>
<trkpt lat="40.0728149" lon="-105.2306846">
  <ele>1595.42</ele>
  <time>2026-08-28T19:10:47Z</time>
  <course>13.76</course>
  <speed>0.01414213562373095</speed>
  <fix>3d</fix>
</trkpt>
<trkpt lat="40.0728147" lon="-105.2306845">
  <ele>1595.33</ele>
  <time>2026-08-28T19:10:47Z</time>
  <course>113.68</course>
  <speed>0.02</speed>
  <fix>3d</fix>
</trkpt>
<trkpt lat="40.0728149" lon="-105.2306845">
  <ele>1595.42</ele>
  <time>2026-08-28T19:10:47Z</time>
  <course>13.77</course>
  <speed>0.01414213562373095</speed>
  <fix>3d</fix>
</trkpt>
<trkpt lat="40.0728147" lon="-105.2306844">
  <ele>1595.33</ele>
  <time>2026-08-28T19:10:47Z</time>
  <course>113.02</course>
  <speed>0.02</speed>
  <fix>3d</fix>
</trkpt>
<trkpt lat="40.0728149" lon="-105.2306845">
  <ele>1595.42</ele>
  <time>2026-08-28T19:10:47Z</time>
  <course>13.78</course>
  <speed>0.01414213562373095</speed>
  <fix>3d</fix>
</trkpt>
<trkpt lat="40.0728147" lon="-105.2306844">
  <ele>1595.33</ele>
  <time>2026-08-28T19:10:47Z</time>
  <course>112.3</course>
  <speed>0.02</speed>
  <fix>3d</fix>
</trkpt>
<trkpt lat="40.0728148" lon="-105.2306844">
  <ele>1595.43</ele>
  <time>2026-08-28T19:10:47Z</time>
  <course>13.76</course>
  <speed>0.01414213562373095</speed>
  <fix>3d</fix>
</trkpt>
<trkpt lat="40.0728146" lon="-105.2306843">
  <ele>1595.33</ele>
  <time>2026-08-28T19:10:47Z</time>
  <course>111.96</course>
  <speed>0.02</speed>
  <fix>3d</fix>
</trkpt>
<trkpt lat="40.0728148" lon="-105.2306844">
  <ele>1595.43</ele>
  <time>2026-08-28T19:10:47Z</time>
  <course>13.78</course>
  <speed>0.01</speed>
  <fix>3d</fix>
</trkpt>
<trkpt lat="40.0728146" lon="-105.2306842">
  <ele>1595.34</ele>
  <time>2026-08-28T19:10:47Z</time>
  <course>112.68</course>
  <speed>0.02</speed>
  <fix>3d</fix>
</trkpt>
<trkpt lat="40.0728148" lon="-105.2306843">
  <ele>1595.44</ele>
  <time>2026-08-28T19:10:47Z</time>
  <course>13.78</course>
  <speed>0.0</speed>
  <fix>3d</fix>
</trkpt>
<trkpt lat="40.0728146" lon="-105.2306842">
  <ele>1595.34</ele>
  <time>2026-08-28T19:10:47Z</time>
  <course>114.28</course>
  <speed>0.02</speed>
  <fix>3d</fix>
</trkpt>
<trkpt lat="40.0728148" lon="-105.2306843">
  <ele>1595.44</ele>
  <time>2026-08-28T19:10:47Z</time>
  <course>13.78</course>
  <speed>0.0</speed>
  <fix>3d</fix>
</trkpt>
<trkpt lat="40.0728146" lon="-105.2306841">
  <ele>1595.34</ele>
  <time>2026-08-28T19:10:47Z</time>
  <course>115.8</course>
  <speed>0.02</speed>
  <fix>3d</fix>
</trkpt>
<trkpt lat="40.0728148" lon="-105.2306842">
  <ele>1595.44</ele>
  <time>2026-08-28T19:10:47Z</time>
  <course>13.81</course>
  <speed>0.0</speed>
  <fix>3d</fix>
</trkpt>
<trkpt lat="40.0728146" lon="-105.230684">
  <ele>1595.34</ele>
  <time>2026-08-28T19:10:47Z</time>
  <course>117.47</course>
  <speed>0.02</speed>
  <fix>3d</fix>
</trkpt>
<trkpt lat="40.0728148" lon="-105.2306842">
  <ele>1595.44</ele>
  <time>2026-08-28T19:10:47Z</time>
  <course>13.81</course>
  <speed>0.0</speed>
  <fix>3d</fix>
</trkpt>
<trkpt lat="40.0728146" lon="-105.230684">
  <ele>1595.34</ele>
  <time>2026-08-28T19:10:47Z</time>
  <course>119.75</course>
  <speed>0.02</speed>
  <fix>3d</fix>
</trkpt>
<trkpt lat="40.0728147" lon="-105.2306841">
  <ele>1595.43</ele>
  <time>2026-08-28T19:10:47Z</time>
  <course>13.78</course>
  <speed>0.022360679774997897</speed>
  <fix>3d</fix>
</trkpt>
<trkpt lat="40.0728146" lon="-105.230684">
  <ele>1595.34</ele>
  <time>2026-08-28T19:10:47Z</time>
  <course>109.76</course>
  <speed>0.02</speed>
  <fix>3d</fix>
</trkpt>
<trkpt lat="40.0728147" lon="-105.230684">
  <ele>1595.43</ele>
  <time>2026-08-28T19:10:47Z</time>
  <course>13.87</course>
  <speed>0.022360679774997897</speed>
  <fix>3d</fix>
</trkpt>
<trkpt lat="40.0728146" lon="-105.2306839">
  <ele>1595.34</ele>
  <time>2026-08-28T19:10:47Z</time>
  <course>85.54</course>
  <speed>0.03</speed>
  <fix>3d</fix>
</trkpt>
<trkpt lat="40.0728147" lon="-105.230684">
  <ele>1595.42</ele>
  <time>2026-08-28T19:10:47Z</time>
  <course>13.89</course>
  <speed>0.022360679774997897</speed>
  <fix>3d</fix>
</trkpt>
<trkpt lat="40.0728146" lon="-105.2306838">
  <ele>1595.33</ele>
  <time>2026-08-28T19:10:47Z</time>
  <course>76.17</course>
  <speed>0.03</speed>
  <fix>3d</fix>
</trkpt>
<trkpt lat="40.0728147" lon="-105.2306839">
  <ele>1595.42</ele>
  <time>2026-08-28T19:10:47Z</time>
  <course>13.86</course>
  <speed>0.022360679774997897</speed>
  <fix>3d</fix>
</trkpt>
<trkpt lat="40.0728146" lon="-105.2306838">
  <ele>1595.33</ele>
  <time>2026-08-28T19:10:47Z</time>
  <course>77.0</course>
  <speed>0.02</speed>
  <fix>3d</fix>
</trkpt>
<trkpt lat="40.0728147" lon="-105.2306838">
  <ele>1595.42</ele>
  <time>2026-08-28T19:10:47Z</time>
  <course>13.81</course>
  <speed>0.01</speed>
  <fix>3d</fix>
</trkpt>
<trkpt lat="40.0728146" lon="-105.2306837">
  <ele>1595.33</ele>
  <time>2026-08-28T19:10:47Z</time>
  <course>89.12</course>
  <speed>0.01</speed>
  <fix>3d</fix>
</trkpt>
<trkpt lat="40.0728147" lon="-105.2306838">
  <ele>1595.42</ele>
  <time>2026-08-28T19:10:47Z</time>
  <course>13.78</course>
  <speed>0.0</speed>
  <fix>3d</fix>
</trkpt>
<trkpt lat="40.0728146" lon="-105.2306837">
  <ele>1595.34</ele>
  <time>2026-08-28T19:10:47Z</time>
  <course>109.56</course>
  <speed>0.01</speed>
  <fix>3d</fix>
</trkpt>
<trkpt lat="40.0728147" lon="-105.2306838">
  <ele>1595.42</ele>
  <time>2026-08-28T19:10:47Z</time>
  <course>13.76</course>
  <speed>0.0</speed>
  <fix>3d</fix>
</trkpt>
<trkpt lat="40.0728146" lon="-105.2306836">
  <ele>1595.34</ele>
  <time>2026-08-28T19:10:47Z</time>
  <course>124.88</course>
  <speed>0.01</speed>
  <fix>3d</fix>
</trkpt>
<trkpt lat="40.0728147" lon="-105.2306837">
  <ele>1595.43</ele>
  <time>2026-08-28T19:10:47Z</time>
  <course>13.78</course>
  <speed>0.0</speed>
  <fix>3d</fix>
</trkpt>
<trkpt lat="40.0728146" lon="-105.2306835">
  <ele>1595.34</ele>
  <time>2026-08-28T19:10:47Z</time>
  <course>130.23</course>
  <speed>0.02</speed>
  <fix>3d</fix>
</trkpt>
<trkpt lat="40.0728147" lon="-105.2306837">
  <ele>1595.43</ele>
  <time>2026-08-28T19:10:47Z</time>
  <course>13.82</course>
  <speed>0.0</speed>
  <fix>3d</fix>
</trkpt>
<trkpt lat="40.0728146" lon="-105.2306835">
  <ele>1595.34</ele>
  <time>2026-08-28T19:10:47Z</time>
  <course>132.46</course>
  <speed>0.02</speed>
  <fix>3d</fix>
</trkpt>
<trkpt lat="40.0728147" lon="-105.2306836">
  <ele>1595.42</ele>
  <time>2026-08-28T19:10:47Z</time>
  <course>13.86</course>
  <speed>0.0</speed>
  <fix>3d</fix>
</trkpt>
<trkpt lat="40.0728145" lon="-105.2306835">
  <ele>1595.34</ele>
  <time>2026-08-28T19:10:47Z</time>
  <course>135.23</course>
  <speed>0.02</speed>
  <fix>3d</fix>
</trkpt>
<trkpt lat="40.0728146" lon="-105.2306836">
  <ele>1595.42</ele>
  <time>2026-08-28T19:10:47Z</time>
  <course>13.86</course>
  <speed>0.0</speed>
  <fix>3d</fix>
</trkpt>
<trkpt lat="40.0728145" lon="-105.2306835">
  <ele>1595.35</ele>
  <time>2026-08-28T19:10:47Z</time>
  <course>139.47</course>
  <speed>0.02</speed>
  <fix>3d</fix>
</trkpt>
<trkpt lat="40.0728146" lon="-105.2306836">
  <ele>1595.43</ele>
  <time>2026-08-28T19:10:47Z</time>
  <course>13.83</course>
  <speed>0.0</speed>
  <fix>3d</fix>
</trkpt>
<trkpt lat="40.0728144" lon="-105.2306834">
  <ele>1595.35</ele>
  <time>2026-08-28T19:10:47Z</time>
  <course>144.62</course>
  <speed>0.02</speed>
  <fix>3d</fix>
</trkpt>
<trkpt lat="40.0728146" lon="-105.2306835">
  <ele>1595.43</ele>
  <time>2026-08-28T19:10:47Z</time>
  <course>13.8</course>
  <speed>0.0</speed>
  <fix>3d</fix>
</trkpt>
<trkpt lat="40.0728144" lon="-105.2306833">
  <ele>1595.35</ele>
  <time>2026-08-28T19:10:47Z</time>
  <course>148.61</course>
  <speed>0.02</speed>
  <fix>3d</fix>
</trkpt>
<trkpt lat="40.0728145" lon="-105.2306835">
  <ele>1595.44</ele>
  <time>2026-08-28T19:10:47Z</time>
  <course>13.79</course>
  <speed>0.0</speed>
  <fix>3d</fix>
</trkpt>
<trkpt lat="40.0728144" lon="-105.2306833">
  <ele>1595.35</ele>
  <time>2026-08-28T19:10:47Z</time>
  <course>149.43</course>
  <speed>0.02</speed>
  <fix>3d</fix>
</trkpt>
<trkpt lat="40.0728145" lon="-105.2306834">
  <ele>1595.44</ele>
  <time>2026-08-28T19:10:47Z</time>
  <course>13.81</course>
  <speed>0.0</speed>
  <fix>3d</fix>
</trkpt>
<trkpt lat="40.0728143" lon="-105.2306833">
  <ele>1595.35</ele>
  <time>2026-08-28T19:10:47Z</time>
  <course>147.23</course>
  <speed>0.02</speed>
  <fix>3d</fix>
</trkpt>
<trkpt lat="40.0728144" lon="-105.2306834">
  <ele>1595.44</ele>
  <time>2026-08-28T19:10:47Z</time>
  <course>13.84</course>
  <speed>0.0</speed>
  <fix>3d</fix>
</trkpt>
<trkpt lat="40.0728143" lon="-105.2306833">
  <ele>1595.35</ele>
  <time>2026-08-28T19:10:47Z</time>
  <course>144.08</course>
  <speed>0.02</speed>
  <fix>3d</fix>
</trkpt>
<trkpt lat="40.0728144" lon="-105.2306834">
  <ele>1595.44</ele>
  <time>2026-08-28T19:10:47Z</time>
  <course>13.87</course>
  <speed>0.01</speed>
  <fix>3d</fix>
</trkpt>
<trkpt lat="40.0728142" lon="-105.2306832">
  <ele>1595.35</ele>
  <time>2026-08-28T19:10:47Z</time>
  <course>144.94</course>
  <speed>0.03</speed>
  <fix>3d</fix>
</trkpt>
<trkpt lat="40.0728143" lon="-105.2306834">
  <ele>1595.44</ele>
  <time>2026-08-28T19:10:47Z</time>
  <course>13.81</course>
  <speed>0.01</speed>
  <fix>3d</fix>
</trkpt>
<trkpt lat="40.0728141" lon="-105.2306832">
  <ele>1595.35</ele>
  <time>2026-08-28T19:10:47Z</time>
  <course>157.46</course>
  <speed>0.03</speed>
  <fix>3d</fix>
</trkpt>
<trkpt lat="40.0728143" lon="-105.2306833">
  <ele>1595.43</ele>
  <time>2026-08-28T19:10:47Z</time>
  <course>13.79</course>
  <speed>0.01</speed>
  <fix>3d</fix>
</trkpt>
<trkpt lat="40.0728141" lon="-105.2306832">
  <ele>1595.35</ele>
  <time>2026-08-28T19:10:47Z</time>
  <course>162.06</course>
  <speed>0.03</speed>
  <fix>3d</fix>
</trkpt>
<trkpt lat="40.0728142" lon="-105.2306833">
  <ele>1595.43</ele>
  <time>2026-08-28T19:10:47Z</time>
  <course>13.79</course>
  <speed>0.0</speed>
  <fix>3d</fix>
</trkpt>
<trkpt lat="40.072814" lon="-105.2306832">
  <ele>1595.35</ele>
  <time>2026-08-28T19:10:47Z</time>
  <course>154.7</course>
  <speed>0.03</speed>
  <fix>3d</fix>
</trkpt>
<trkpt lat="40.0728142" lon="-105.2306832">
  <ele>1595.43</ele>
  <time>2026-08-28T19:10:47Z</time>
  <course>13.79</course>
  <speed>0.0</speed>
  <fix>3d</fix>
</trkpt>
<trkpt lat="40.072814" lon="-105.2306831">
  <ele>1595.35</ele>
  <time>2026-08-28T19:10:47Z</time>
  <course>150.27</course>
  <speed>0.03</speed>
  <fix>3d</fix>
</trkpt>
<trkpt lat="40.0728141" lon="-105.2306832">
  <ele>1595.43</ele>
  <time>2026-08-28T19:10:47Z</time>
  <course>13.79</course>
  <speed>0.0</speed>
  <fix>3d</fix>
</trkpt>
<trkpt lat="40.0728139" lon="-105.230683">
  <ele>1595.35</ele>
  <time>2026-08-28T19:10:47Z</time>
  <course>146.38</course>
  <speed>0.03</speed>
  <fix>3d</fix>
</trkpt>
<trkpt lat="40.0728141" lon="-105.2306832">
  <ele>1595.43</ele>
  <time>2026-08-28T19:10:47Z</time>
  <course>13.8</course>
  <speed>0.0</speed>
  <fix>3d</fix>
</trkpt>
<trkpt lat="40.0728139" lon="-105.230683">
  <ele>1595.35</ele>
  <time>2026-08-28T19:10:47Z</time>
  <course>142.87</course>
  <speed>0.03</speed>
  <fix>3d</fix>
</trkpt>
<trkpt lat="40.072814" lon="-105.2306831">
  <ele>1595.43</ele>
  <time>2026-08-28T19:10:47Z</time>
  <course>13.79</course>
  <speed>0.0</speed>
  <fix>3d</fix>
</trkpt>
<trkpt lat="40.0728138" lon="-105.230683">
  <ele>1595.34</ele>
  <time>2026-08-28T19:10:47Z</time>
  <course>140.17</course>
  <speed>0.03</speed>
  <fix>3d</fix>
</trkpt>
<trkpt lat="40.072814" lon="-105.2306831">
  <ele>1595.43</ele>
  <time>2026-08-28T19:10:47Z</time>
  <course>13.79</course>
  <speed>0.0</speed>
  <fix>3d</fix>
</trkpt>
<trkpt lat="40.0728138" lon="-105.2306829">
  <ele>1595.34</ele>
  <time>2026-08-28T19:10:47Z</time>
  <course>138.03</course>
  <speed>0.02</speed>
  <fix>3d</fix>
</trkpt>
<trkpt lat="40.0728139" lon="-105.230683">
  <ele>1595.43</ele>
  <time>2026-08-28T19:10:47Z</time>
  <course>13.79</course>
  <speed>0.0</speed>
  <fix>3d</fix>
</trkpt>
<trkpt lat="40.0728138" lon="-105.2306828">
  <ele>1595.34</ele>
  <time>2026-08-28T19:10:47Z</time>
  <course>135.85</course>
  <speed>0.02</speed>
  <fix>3d</fix>
</trkpt>
<trkpt lat="40.0728139" lon="-105.230683">
  <ele>1595.43</ele>
  <time>2026-08-28T19:10:47Z</time>
  <course>13.8</course>
  <speed>0.0</speed>
  <fix>3d</fix>
</trkpt>
<trkpt lat="40.0728137" lon="-105.2306828">
  <ele>1595.34</ele>
  <time>2026-08-28T19:10:47Z</time>
  <course>133.71</course>
  <speed>0.02</speed>
  <fix>3d</fix>
</trkpt>
<trkpt lat="40.0728139" lon="-105.2306829">
  <ele>1595.43</ele>
  <time>2026-08-28T19:10:47Z</time>
  <course>13.79</course>
  <speed>0.0</speed>
  <fix>3d</fix>
</trkpt>
<trkpt lat="40.0728137" lon="-105.2306828">
  <ele>1595.34</ele>
  <time>2026-08-28T19:10:47Z</time>
  <course>132.22</course>
  <speed>0.02</speed>
  <fix>3d</fix>
</trkpt>
<trkpt lat="40.0728138" lon="-105.2306829">
  <ele>1595.43</ele>
  <time>2026-08-28T19:10:47Z</time>
  <course>13.79</course>
  <speed>0.0</speed>
  <fix>3d</fix>
</trkpt>
<trkpt lat="40.0728137" lon="-105.2306827">
  <ele>1595.34</ele>
  <time>2026-08-28T19:10:47Z</time>
  <course>131.81</course>
  <speed>0.02</speed>
  <fix>3d</fix>
</trkpt>
<trkpt lat="40.0728138" lon="-105.2306828">
  <ele>1595.43</ele>
  <time>2026-08-28T19:10:47Z</time>
  <course>13.79</course>
  <speed>0.0</speed>
  <fix>3d</fix>
</trkpt>
<trkpt lat="40.0728136" lon="-105.2306826">
  <ele>1595.34</ele>
  <time>2026-08-28T19:10:47Z</time>
  <course>131.79</course>
  <speed>0.02</speed>
  <fix>3d</fix>
</trkpt>
<trkpt lat="40.0728138" lon="-105.2306828">
  <ele>1595.43</ele>
  <time>2026-08-28T19:10:47Z</time>
  <course>13.8</course>
  <speed>0.0</speed>
  <fix>3d</fix>
</trkpt>
<trkpt lat="40.0728135" lon="-105.2306826">
  <ele>1595.34</ele>
  <time>2026-08-28T19:10:47Z</time>
  <course>132.23</course>
  <speed>0.02</speed>
  <fix>3d</fix>
</trkpt>
<trkpt lat="40.0728137" lon="-105.2306827">
  <ele>1595.43</ele>
  <time>2026-08-28T19:10:47Z</time>
  <course>13.8</course>
  <speed>0.0</speed>
  <fix>3d</fix>
</trkpt>
<trkpt lat="40.0728135" lon="-105.2306826">
  <ele>1595.34</ele>
  <time>2026-08-28T19:10:47Z</time>
  <course>133.85</course>
  <speed>0.02</speed>
  <fix>3d</fix>
</trkpt>
<trkpt lat="40.0728137" lon="-105.2306827">
  <ele>1595.42</ele>
  <time>2026-08-28T19:10:47Z</time>
  <course>13.8</course>
  <speed>0.0</speed>
  <fix>3d</fix>
</trkpt>
<trkpt lat="40.0728135" lon="-105.2306826">
  <ele>1595.34</ele>
  <time>2026-08-28T19:10:47Z</time>
  <course>135.32</course>
  <speed>0.02</speed>
  <fix>3d</fix>
</trkpt>
<trkpt lat="40.0728137" lon="-105.2306826">
  <ele>1595.42</ele>
  <time>2026-08-28T19:10:47Z</time>
  <course>13.74</course>
  <speed>0.022360679774997897</speed>
  <fix>3d</fix>
</trkpt>
<trkpt lat="40.0728134" lon="-105.2306825">
  <ele>1595.34</ele>
  <time>2026-08-28T19:10:47Z</time>
  <course>117.91</course>
  <speed>0.02</speed>
  <fix>3d</fix>
</trkpt>
<trkpt lat="40.0728137" lon="-105.2306825">
  <ele>1595.42</ele>
  <time>2026-08-28T19:10:47Z</time>
  <course>13.89</course>
  <speed>0.022360679774997897</speed>
  <fix>3d</fix>
</trkpt>
<trkpt lat="40.0728134" lon="-105.2306824">
  <ele>1595.34</ele>
  <time>2026-08-28T19:10:47Z</time>
  <course>85.85</course>
  <speed>0.03</speed>
  <fix>3d</fix>
</trkpt>
<trkpt lat="40.0728136" lon="-105.2306825">
  <ele>1595.42</ele>
  <time>2026-08-28T19:10:47Z</time>
  <course>13.96</course>
  <speed>0.0282842712474619</speed>
  <fix>3d</fix>
</trkpt>
<trkpt lat="40.0728134" lon="-105.2306823">
  <ele>1595.34</ele>
  <time>2026-08-28T19:10:47Z</time>
  <course>71.45</course>
  <speed>0.03</speed>
  <fix>3d</fix>
</trkpt>
<trkpt lat="40.0728136" lon="-105.2306824">
  <ele>1595.42</ele>
  <time>2026-08-28T19:10:47Z</time>
  <course>13.85</course>
  <speed>0.02</speed>
  <fix>3d</fix>
</trkpt>
<trkpt lat="40.0728134" lon="-105.2306823">
  <ele>1595.34</ele>
  <time>2026-08-28T19:10:47Z</time>
  <course>64.15</course>
  <speed>0.02</speed>
  <fix>3d</fix>
</trkpt>
<trkpt lat="40.0728136" lon="-105.2306824">
  <ele>1595.42</ele>
  <time>2026-08-28T19:10:47Z</time>
  <course>13.98</course>
  <speed>0.0</speed>
  <fix>3d</fix>
</trkpt>
<trkpt lat="40.0728134" lon="-105.2306823">
  <ele>1595.35</ele>
  <time>2026-08-28T19:10:47Z</time>
  <course>94.16</course>
  <speed>0.01</speed>
  <fix>3d</fix>
</trkpt>
<trkpt lat="40.0728136" lon="-105.2306824">
  <ele>1595.42</ele>
  <time>2026-08-28T19:10:47Z</time>
  <course>14.01</course>
  <speed>0.01</speed>
  <fix>3d</fix>
</trkpt>
<trkpt lat="40.0728134" lon="-105.2306822">
  <ele>1595.35</ele>
  <time>2026-08-28T19:10:47Z</time>
  <course>104.49</course>
  <speed>0.02</speed>
  <fix>3d</fix>
</trkpt>
<trkpt lat="40.0728136" lon="-105.2306823">
  <ele>1595.42</ele>
  <time>2026-08-28T19:10:47Z</time>
  <course>13.87</course>
  <speed>0.0</speed>
  <fix>3d</fix>
</trkpt>
<trkpt lat="40.0728134" lon="-105.2306821">
  <ele>1595.35</ele>
  <time>2026-08-28T19:10:47Z</time>
  <course>125.87</course>
  <speed>0.01</speed>
  <fix>3d</fix>
</trkpt>
<trkpt lat="40.0728136" lon="-105.2306823">
  <ele>1595.42</ele>
  <time>2026-08-28T19:10:47Z</time>
  <course>13.95</course>
  <speed>0.0</speed>
  <fix>3d</fix>
</trkpt>
<trkpt lat="40.0728134" lon="-105.2306821">
  <ele>1595.35</ele>
  <time>2026-08-28T19:10:47Z</time>
  <course>137.38</course>
  <speed>0.02</speed>
  <fix>3d</fix>
</trkpt>
<trkpt lat="40.0728135" lon="-105.2306822">
  <ele>1595.41</ele>
  <time>2026-08-28T19:10:47Z</time>
  <course>14.01</course>
  <speed>0.01</speed>
  <fix>3d</fix>
</trkpt>
<trkpt lat="40.0728134" lon="-105.2306821">
  <ele>1595.36</ele>
  <time>2026-08-28T19:10:47Z</time>
  <course>128.63</course>
  <speed>0.03</speed>
  <fix>3d</fix>
</trkpt>
<trkpt lat="40.0728135" lon="-105.2306822">
  <ele>1595.42</ele>
  <time>2026-08-28T19:10:47Z</time>
  <course>13.86</course>
  <speed>0.0</speed>
  <fix>3d</fix>
</trkpt>
<trkpt lat="40.0728134" lon="-105.2306821">
  <ele>1595.36</ele>
  <time>2026-08-28T19:10:47Z</time>
  <course>136.9</course>
  <speed>0.02</speed>
  <fix>3d</fix>
</trkpt>
<trkpt lat="40.0728135" lon="-105.2306821">
  <ele>1595.42</ele>
  <time>2026-08-28T19:10:47Z</time>
  <course>13.91</course>
  <speed>0.0</speed>
  <fix>3d</fix>
</trkpt>
<trkpt lat="40.0728134" lon="-105.230682">
  <ele>1595.37</ele>
  <time>2026-08-28T19:10:47Z</time>
  <course>145.87</course>
  <speed>0.02</speed>
  <fix>3d</fix>
</trkpt>
<trkpt lat="40.0728134" lon="-105.2306821">
  <ele>1595.43</ele>
  <time>2026-08-28T19:10:47Z</time>
  <course>14.02</course>
  <speed>0.01</speed>
  <fix>3d</fix>
</trkpt>
<trkpt lat="40.0728134" lon="-105.230682">
  <ele>1595.37</ele>
  <time>2026-08-28T19:10:47Z</time>
  <course>134.77</course>
  <speed>0.03</speed>
  <fix>3d</fix>
</trkpt>
<trkpt lat="40.0728134" lon="-105.2306821">
  <ele>1595.43</ele>
  <time>2026-08-28T19:10:47Z</time>
  <course>13.95</course>
  <speed>0.0</speed>
  <fix>3d</fix>
</trkpt>
<trkpt lat="40.0728133" lon="-105.2306819">
  <ele>1595.37</ele>
  <time>2026-08-28T19:10:47Z</time>
  <course>138.15</course>
  <speed>0.02</speed>
  <fix>3d</fix>
</trkpt>
<trkpt lat="40.0728134" lon="-105.230682">
  <ele>1595.43</ele>
  <time>2026-08-28T19:10:47Z</time>
  <course>13.92</course>
  <speed>0.0</speed>
  <fix>3d</fix>
</trkpt>
<trkpt lat="40.0728133" lon="-105.2306818">
  <ele>1595.38</ele>
  <time>2026-08-28T19:10:47Z</time>
  <course>151.63</course>
  <speed>0.02</speed>
  <fix>3d</fix>
</trkpt>
<trkpt lat="40.0728134" lon="-105.230682">
  <ele>1595.43</ele>
  <time>2026-08-28T19:10:47Z</time>
  <course>14.05</course>
  <speed>0.0</speed>
  <fix>3d</fix>
</trkpt>
<trkpt lat="40.0728132" lon="-105.2306818">
  <ele>1595.38</ele>
  <time>2026-08-28T19:10:47Z</time>
  <course>140.81</course>
  <speed>0.03</speed>
  <fix>3d</fix>
</trkpt>
<trkpt lat="40.0728133" lon="-105.230682">
  <ele>1595.43</ele>
  <time>2026-08-28T19:10:47Z</time>
  <course>14.0</course>
  <speed>0.0</speed>
  <fix>3d</fix>
</trkpt>
<trkpt lat="40.0728132" lon="-105.2306818">
  <ele>1595.38</ele>
  <time>2026-08-28T19:10:47Z</time>
  <course>139.01</course>
  <speed>0.02</speed>
  <fix>3d</fix>
</trkpt>
<trkpt lat="40.0728133" lon="-105.2306819">
  <ele>1595.43</ele>
  <time>2026-08-28T19:10:47Z</time>
  <course>13.9</course>
  <speed>0.0</speed>
  <fix>3d</fix>
</trkpt>
<trkpt lat="40.0728131" lon="-105.2306818">
  <ele>1595.38</ele>
  <time>2026-08-28T19:10:47Z</time>
  <course>153.01</course>
  <speed>0.02</speed>
  <fix>3d</fix>
</trkpt>
<trkpt lat="40.0728132" lon="-105.2306819">
  <ele>1595.44</ele>
  <time>2026-08-28T19:10:47Z</time>
  <course>14.03</course>
  <speed>0.0</speed>
  <fix>3d</fix>
</trkpt>
<trkpt lat="40.0728131" lon="-105.2306817">
  <ele>1595.38</ele>
  <time>2026-08-28T19:10:47Z</time>
  <course>144.53</course>
  <speed>0.03</speed>
  <fix>3d</fix>
</trkpt>
<trkpt lat="40.0728132" lon="-105.2306818">
  <ele>1595.44</ele>
  <time>2026-08-28T19:10:47Z</time>
  <course>14.04</course>
  <speed>0.01</speed>
  <fix>3d</fix>
</trkpt>
<trkpt lat="40.0728131" lon="-105.2306816">
  <ele>1595.38</ele>
  <time>2026-08-28T19:10:47Z</time>
  <course>138.15</course>
  <speed>0.03</speed>
  <fix>3d</fix>
</trkpt>
<trkpt lat="40.0728132" lon="-105.2306818">
  <ele>1595.44</ele>
  <time>2026-08-28T19:10:47Z</time>
  <course>13.9</course>
  <speed>0.0</speed>
  <fix>3d</fix>
</trkpt>
<trkpt lat="40.072813" lon="-105.2306816">
  <ele>1595.38</ele>
  <time>2026-08-28T19:10:47Z</time>
  <course>151.42</course>
  <speed>0.02</speed>
  <fix>3d</fix>
</trkpt>
<trkpt lat="40.0728131" lon="-105.2306817">
  <ele>1595.44</ele>
  <time>2026-08-28T19:10:47Z</time>
  <course>13.99</course>
  <speed>0.02</speed>
  <fix>3d</fix>
</trkpt>
<trkpt lat="40.0728129" lon="-105.2306816">
  <ele>1595.38</ele>
  <time>2026-08-28T19:10:47Z</time>
  <course>151.56</course>
  <speed>0.03</speed>
  <fix>3d</fix>
</trkpt>
<trkpt lat="40.072813" lon="-105.2306817">
  <ele>1595.44</ele>
  <time>2026-08-28T19:10:47Z</time>
  <course>13.85</course>
  <speed>0.02</speed>
  <fix>3d</fix>
</trkpt>
<trkpt lat="40.0728129" lon="-105.2306816">
  <ele>1595.38</ele>
  <time>2026-08-28T19:10:47Z</time>
  <course>163.04</course>
  <speed>0.04</speed>
  <fix>3d</fix>
</trkpt>
<trkpt lat="40.0728129" lon="-105.2306817">
  <ele>1595.43</ele>
  <time>2026-08-28T19:10:47Z</time>
  <course>13.79</course>
  <speed>0.02</speed>
  <fix>3d</fix>
</trkpt>
<trkpt lat="40.0728128" lon="-105.2306816">
  <ele>1595.37</ele>
  <time>2026-08-28T19:10:47Z</time>
  <course>171.93</course>
  <speed>0.05</speed>
  <fix>3d</fix>
</trkpt>
<trkpt lat="40.0728129" lon="-105.2306817">
  <ele>1595.43</ele>
  <time>2026-08-28T19:10:47Z</time>
  <course>13.78</course>
  <speed>0.02</speed>
  <fix>3d</fix>
</trkpt>
<trkpt lat="40.0728127" lon="-105.2306815">
  <ele>1595.37</ele>
  <time>2026-08-28T19:10:47Z</time>
  <course>162.24</course>
  <speed>0.04</speed>
  <fix>3d</fix>
</trkpt>
<trkpt lat="40.0728128" lon="-105.2306816">
  <ele>1595.43</ele>
  <time>2026-08-28T19:10:47Z</time>
  <course>13.77</course>
  <speed>0.01</speed>
  <fix>3d</fix>
</trkpt>
<trkpt lat="40.0728126" lon="-105.2306814">
  <ele>1595.37</ele>
  <time>2026-08-28T19:10:47Z</time>
  <course>154.86</course>
  <speed>0.04</speed>
  <fix>3d</fix>
</trkpt>
<trkpt lat="40.0728127" lon="-105.2306816">
  <ele>1595.43</ele>
  <time>2026-08-28T19:10:47Z</time>
  <course>13.78</course>
  <speed>0.0</speed>
  <fix>3d</fix>
</trkpt>
<trkpt lat="40.0728126" lon="-105.2306814">
  <ele>1595.37</ele>
  <time>2026-08-28T19:10:47Z</time>
  <course>148.24</course>
  <speed>0.03</speed>
  <fix>3d</fix>
</trkpt>
<trkpt lat="40.0728127" lon="-105.2306815">
  <ele>1595.43</ele>
  <time>2026-08-28T19:10:47Z</time>
  <course>13.78</course>
  <speed>0.0</speed>
  <fix>3d</fix>
</trkpt>
<trkpt lat="40.0728125" lon="-105.2306814">
  <ele>1595.37</ele>
  <time>2026-08-28T19:10:47Z</time>
  <course>141.48</course>
  <speed>0.03</speed>
  <fix>3d</fix>
</trkpt>
<trkpt lat="40.0728126" lon="-105.2306815">
  <ele>1595.43</ele>
  <time>2026-08-28T19:10:47Z</time>
  <course>13.79</course>
  <speed>0.01</speed>
  <fix>3d</fix>
</trkpt>
<trkpt lat="40.0728125" lon="-105.2306813">
  <ele>1595.37</ele>
  <time>2026-08-28T19:10:47Z</time>
  <course>134.99</course>
  <speed>0.03</speed>
  <fix>3d</fix>
</trkpt>
<trkpt lat="40.0728126" lon="-105.2306814">
  <ele>1595.43</ele>
  <time>2026-08-28T19:10:47Z</time>
  <course>13.78</course>
  <speed>0.01</speed>
  <fix>3d</fix>
</trkpt>
<trkpt lat="40.0728124" lon="-105.2306813">
  <ele>1595.37</ele>
  <time>2026-08-28T19:10:47Z</time>
  <course>128.7</course>
  <speed>0.03</speed>
  <fix>3d</fix>
</trkpt>
<trkpt lat="40.0728126" lon="-105.2306814">
  <ele>1595.43</ele>
  <time>2026-08-28T19:10:47Z</time>
  <course>13.79</course>
  <speed>0.01</speed>
  <fix>3d</fix>
</trkpt>
<trkpt lat="40.0728123" lon="-105.2306812">
  <ele>1595.37</ele>
  <time>2026-08-28T19:10:47Z</time>
  <course>122.37</course>
  <speed>0.02</speed>
  <fix>3d</fix>
</trkpt>
<trkpt lat="40.0728126" lon="-105.2306813">
  <ele>1595.43</ele>
  <time>2026-08-28T19:10:47Z</time>
  <course>13.79</course>
  <speed>0.01</speed>
  <fix>3d</fix>
</trkpt>
<trkpt lat="40.0728123" lon="-105.2306811">
  <ele>1595.37</ele>
  <time>2026-08-28T19:10:47Z</time>
  <course>116.13</course>
  <speed>0.02</speed>
  <fix>3d</fix>
</trkpt>
<trkpt lat="40.0728125" lon="-105.2306812">
  <ele>1595.43</ele>
  <time>2026-08-28T19:10:47Z</time>
  <course>13.78</course>
  <speed>0.01414213562373095</speed>
  <fix>3d</fix>
</trkpt>
<trkpt lat="40.0728123" lon="-105.2306811">
  <ele>1595.37</ele>
  <time>2026-08-28T19:10:47Z</time>
  <course>110.42</course>
  <speed>0.02</speed>
  <fix>3d</fix>
</trkpt>
<trkpt lat="40.0728125" lon="-105.2306812">
  <ele>1595.43</ele>
  <time>2026-08-28T19:10:47Z</time>
  <course>13.79</course>
  <speed>0.01414213562373095</speed>
  <fix>3d</fix>
</trkpt>
<trkpt lat="40.0728123" lon="-105.230681">
  <ele>1595.37</ele>
  <time>2026-08-28T19:10:47Z</time>
  <course>105.59</course>
  <speed>0.02</speed>
  <fix>3d</fix>
</trkpt>
<trkpt lat="40.0728125" lon="-105.2306811">
  <ele>1595.43</ele>
  <time>2026-08-28T19:10:47Z</time>
  <course>13.79</course>
  <speed>0.01414213562373095</speed>
  <fix>3d</fix>
</trkpt>
<trkpt lat="40.0728123" lon="-105.2306809">
  <ele>1595.37</ele>
  <time>2026-08-28T19:10:47Z</time>
  <course>101.77</course>
  <speed>0.02</speed>
  <fix>3d</fix>
</trkpt>
<trkpt lat="40.0728125" lon="-105.230681">
  <ele>1595.43</ele>
  <time>2026-08-28T19:10:47Z</time>
  <course>13.79</course>
  <speed>0.01414213562373095</speed>
  <fix>3d</fix>
</trkpt>
<trkpt lat="40.0728123" lon="-105.2306809">
  <ele>1595.37</ele>
  <time>2026-08-28T19:10:47Z</time>
  <course>98.22</course>
  <speed>0.02</speed>
  <fix>3d</fix>
</trkpt>
<trkpt lat="40.0728125" lon="-105.230681">
  <ele>1595.43</ele>
  <time>2026-08-28T19:10:47Z</time>
  <course>13.79</course>
  <speed>0.01414213562373095</speed>
  <fix>3d</fix>
</trkpt>
<trkpt lat="40.0728123" lon="-105.2306809">
  <ele>1595.37</ele>
  <time>2026-08-28T19:10:47Z</time>
  <course>95.29</course>
  <speed>0.02</speed>
  <fix>3d</fix>
</trkpt>
<trkpt lat="40.0728125" lon="-105.2306809">
  <ele>1595.44</ele>
  <time>2026-08-28T19:10:47Z</time>
  <course>13.81</course>
  <speed>0.01414213562373095</speed>
  <fix>3d</fix>
</trkpt>
<trkpt lat="40.0728122" lon="-105.2306808">
  <ele>1595.37</ele>
  <time>2026-08-28T19:10:47Z</time>
  <course>93.37</course>
  <speed>0.02</speed>
  <fix>3d</fix>
</trkpt>
<trkpt lat="40.0728125" lon="-105.2306809">
  <ele>1595.44</ele>
  <time>2026-08-28T19:10:47Z</time>
  <course>13.79</course>
  <speed>0.044721359549995794</speed>
  <fix>3d</fix>
</trkpt>
<trkpt lat="40.0728123" lon="-105.2306807">
  <ele>1595.37</ele>
  <time>2026-08-28T19:10:47Z</time>
  <course>69.71</course>
  <speed>0.03</speed>
  <fix>3d</fix>
</trkpt>
<trkpt lat="40.0728125" lon="-105.2306807">
  <ele>1595.44</ele>
  <time>2026-08-28T19:10:47Z</time>
  <course>13.92</course>
  <speed>0.0412310562561766</speed>
  <fix>3d</fix>
</trkpt>
<trkpt lat="40.0728123" lon="-105.2306806">
  <ele>1595.37</ele>
  <time>2026-08-28T19:10:47Z</time>
  <course>58.33</course>
  <speed>0.04</speed>
  <fix>3d</fix>
</trkpt>
<trkpt lat="40.0728125" lon="-105.2306807">
  <ele>1595.43</ele>
  <time>2026-08-28T19:10:47Z</time>
  <course>14.05</course>
  <speed>0.03605551275463989</speed>
  <fix>3d</fix>
</trkpt>
<trkpt lat="40.0728123" lon="-105.2306806">
  <ele>1595.37</ele>
  <time>2026-08-28T19:10:47Z</time>
  <course>54.85</course>
  <speed>0.04</speed>
  <fix>3d</fix>
</trkpt>
<trkpt lat="40.0728125" lon="-105.2306806">
  <ele>1595.43</ele>
  <time>2026-08-28T19:10:47Z</time>
  <course>13.91</course>
  <speed>0.03</speed>
  <fix>3d</fix>
</trkpt>
<trkpt lat="40.0728123" lon="-105.2306805">
  <ele>1595.37</ele>
  <time>2026-08-28T19:10:47Z</time>
  <course>44.99</course>
  <speed>0.03</speed>
  <fix>3d</fix>
</trkpt>
<trkpt lat="40.0728125" lon="-105.2306806">
  <ele>1595.43</ele>
  <time>2026-08-28T19:10:47Z</time>
  <course>14.02</course>
  <speed>0.01</speed>
  <fix>3d</fix>
</trkpt>
<trkpt lat="40.0728123" lon="-105.2306804">
  <ele>1595.37</ele>
  <time>2026-08-28T19:10:47Z</time>
  <course>69.42</course>
  <speed>0.02</speed>
  <fix>3d</fix>
</trkpt>
<trkpt lat="40.0728125" lon="-105.2306805">
  <ele>1595.43</ele>
  <time>2026-08-28T19:10:47Z</time>
  <course>14.06</course>
  <speed>0.01414213562373095</speed>
  <fix>3d</fix>
</trkpt>
<trkpt lat="40.0728123" lon="-105.2306804">
  <ele>1595.37</ele>
  <time>2026-08-28T19:10:47Z</time>
  <course>86.76</course>
  <speed>0.02</speed>
  <fix>3d</fix>
</trkpt>
<trkpt lat="40.0728125" lon="-105.2306805">
  <ele>1595.43</ele>
  <time>2026-08-28T19:10:47Z</time>
  <course>13.89</course>
  <speed>0.01</speed>
  <fix>3d</fix>
</trkpt>
<trkpt lat="40.0728123" lon="-105.2306803">
  <ele>1595.37</ele>
  <time>2026-08-28T19:10:47Z</time>
  <course>104.66</course>
  <speed>0.01</speed>
  <fix>3d</fix>
</trkpt>
<trkpt lat="40.0728125" lon="-105.2306804">
  <ele>1595.43</ele>
  <time>2026-08-28T19:10:48Z</time>
  <course>14.02</course>
  <speed>0.0</speed>
  <fix>3d</fix>
</trkpt>
<trkpt lat="40.0728123" lon="-105.2306802">
  <ele>1595.37</ele>
  <time>2026-08-28T19:10:48Z</time>
  <course>124.57</course>
  <speed>0.02</speed>
  <fix>3d</fix>
</trkpt>
<trkpt lat="40.0728125" lon="-105.2306804">
  <ele>1595.43</ele>
  <time>2026-08-28T19:10:48Z</time>
  <course>14.06</course>
  <speed>0.01</speed>
  <fix>3d</fix>
</trkpt>
<trkpt lat="40.0728123" lon="-105.2306802">
  <ele>1595.37</ele>
  <time>2026-08-28T19:10:48Z</time>
  <course>117.94</course>
  <speed>0.02</speed>
  <fix>3d</fix>
</trkpt>
<trkpt lat="40.0728125" lon="-105.2306803">
  <ele>1595.43</ele>
  <time>2026-08-28T19:10:48Z</time>
  <course>13.89</course>
  <speed>0.0</speed>
  <fix>3d</fix>
</trkpt>
<trkpt lat="40.0728123" lon="-105.2306802">
  <ele>1595.37</ele>
  <time>2026-08-28T19:10:48Z</time>
  <course>130.61</course>
  <speed>0.02</speed>
  <fix>3d</fix>
</trkpt>
<trkpt lat="40.0728124" lon="-105.2306803">
  <ele>1595.43</ele>
  <time>2026-08-28T19:10:48Z</time>
  <course>14.01</course>
  <speed>0.0</speed>
  <fix>3d</fix>
</trkpt>
<trkpt lat="40.0728123" lon="-105.2306801">
  <ele>1595.37</ele>
  <time>2026-08-28T19:10:48Z</time>
  <course>133.79</course>
  <speed>0.02</speed>
  <fix>3d</fix>
</trkpt>
<trkpt lat="40.0728124" lon="-105.2306802">
  <ele>1595.43</ele>
  <time>2026-08-28T19:10:48Z</time>
  <course>14.03</course>
  <speed>0.01</speed>
  <fix>3d</fix>
</trkpt>
<trkpt lat="40.0728123" lon="-105.2306801">
  <ele>1595.37</ele>
  <time>2026-08-28T19:10:48Z</time>
  <course>124.03</course>
  <speed>0.03</speed>
  <fix>3d</fix>
</trkpt>
<trkpt lat="40.0728124" lon="-105.2306802">
  <ele>1595.43</ele>
  <time>2026-08-28T19:10:48Z</time>
  <course>13.88</course>
  <speed>0.0</speed>
  <fix>3d</fix>
</trkpt>
<trkpt lat="40.0728123" lon="-105.2306801">
  <ele>1595.37</ele>
  <time>2026-08-28T19:10:48Z</time>
  <course>136.99</course>
  <speed>0.02</speed>
  <fix>3d</fix>
</trkpt>
<trkpt lat="40.0728124" lon="-105.2306801">
  <ele>1595.43</ele>
  <time>2026-08-28T19:10:48Z</time>
  <course>14.02</course>
  <speed>0.0</speed>
  <fix>3d</fix>
</trkpt>
<trkpt lat="40.0728122" lon="-105.23068">
  <ele>1595.37</ele>
  <time>2026-08-28T19:10:48Z</time>
  <course>137.78</course>
  <speed>0.02</speed>
  <fix>3d</fix>
</trkpt>
<trkpt lat="40.0728123" lon="-105.2306801">
  <ele>1595.43</ele>
  <time>2026-08-28T19:10:48Z</time>
  <course>14.06</course>
  <speed>0.01</speed>
  <fix>3d</fix>
</trkpt>
<trkpt lat="40.0728122" lon="-105.2306799">
  <ele>1595.37</ele>
  <time>2026-08-28T19:10:48Z</time>
  <course>127.5</course>
  <speed>0.03</speed>
  <fix>3d</fix>
</trkpt>
<trkpt lat="40.0728123" lon="-105.2306801">
  <ele>1595.43</ele>
  <time>2026-08-28T19:10:48Z</time>
  <course>13.89</course>
  <speed>0.0</speed>
  <fix>3d</fix>
</trkpt>
<trkpt lat="40.0728122" lon="-105.2306799">
  <ele>1595.37</ele>
  <time>2026-08-28T19:10:48Z</time>
  <course>141.01</course>
  <speed>0.02</speed>
  <fix>3d</fix>
</trkpt>
<trkpt lat="40.0728123" lon="-105.23068">
  <ele>1595.43</ele>
  <time>2026-08-28T19:10:48Z</time>
  <course>14.03</course>
  <speed>0.0</speed>
  <fix>3d</fix>
</trkpt>
<trkpt lat="40.0728122" lon="-105.2306799">
  <ele>1595.37</ele>
  <time>2026-08-28T19:10:48Z</time>
  <course>140.2</course>
  <speed>0.03</speed>
  <fix>3d</fix>
</trkpt>
<trkpt lat="40.0728122" lon="-105.23068">
  <ele>1595.43</ele>
  <time>2026-08-28T19:10:48Z</time>
  <course>14.06</course>
  <speed>0.01</speed>
  <fix>3d</fix>
</trkpt>
<trkpt lat="40.0728121" lon="-105.2306798">
  <ele>1595.36</ele>
  <time>2026-08-28T19:10:48Z</time>
  <course>130.29</course>
  <speed>0.03</speed>
  <fix>3d</fix>
</trkpt>
<trkpt lat="40.0728122" lon="-105.2306799">
  <ele>1595.43</ele>
  <time>2026-08-28T19:10:48Z</time>
  <course>13.9</course>
  <speed>0.0</speed>
  <fix>3d</fix>
</trkpt>
<trkpt lat="40.0728121" lon="-105.2306797">
  <ele>1595.36</ele>
  <time>2026-08-28T19:10:48Z</time>
  <course>144.45</course>
  <speed>0.02</speed>
  <fix>3d</fix>
</trkpt>
<trkpt lat="40.0728122" lon="-105.2306799">
  <ele>1595.43</ele>
  <time>2026-08-28T19:10:48Z</time>
  <course>14.04</course>
  <speed>0.0</speed>
  <fix>3d</fix>
</trkpt>
<trkpt lat="40.0728121" lon="-105.2306797">
  <ele>1595.36</ele>
  <time>2026-08-28T19:10:48Z</time>
  <course>142.14</course>
  <speed>0.03</speed>
  <fix>3d</fix>
</trkpt>
<trkpt lat="40.0728121" lon="-105.2306798">
  <ele>1595.44</ele>
  <time>2026-08-28T19:10:48Z</time>
  <course>14.05</course>
  <speed>0.01</speed>
  <fix>3d</fix>
</trkpt>
<trkpt lat="40.072812" lon="-105.2306797">
  <ele>1595.36</ele>
  <time>2026-08-28T19:10:48Z</time>
  <course>132.58</course>
  <speed>0.03</speed>
  <fix>3d</fix>
</trkpt>
<trkpt lat="40.0728121" lon="-105.2306798">
  <ele>1595.44</ele>
  <time>2026-08-28T19:10:48Z</time>
  <course>13.87</course>
  <speed>0.022360679774997897</speed>
  <fix>3d</fix>
</trkpt>
<trkpt lat="40.072812" lon="-105.2306796">
  <ele>1595.36</ele>
  <time>2026-08-28T19:10:48Z</time>
  <course>158.88</course>
  <speed>0.03</speed>
  <fix>3d</fix>
</trkpt>
<trkpt lat="40.072812" lon="-105.2306798">
  <ele>1595.45</ele>
  <time>2026-08-28T19:10:48Z</time>
  <course>13.85</course>
  <speed>0.02</speed>
  <fix>3d</fix>
</trkpt>
<trkpt lat="40.0728119" lon="-105.2306796">
  <ele>1595.36</ele>
  <time>2026-08-28T19:10:48Z</time>
  <course>168.45</course>
  <speed>0.04</speed>
  <fix>3d</fix>
</trkpt>
<trkpt lat="40.0728119" lon="-105.2306798">
  <ele>1595.45</ele>
  <time>2026-08-28T19:10:48Z</time>
  <course>13.8</course>
  <speed>0.01</speed>
  <fix>3d</fix>
</trkpt>
<trkpt lat="40.0728118" lon="-105.2306796">
  <ele>1595.36</ele>
  <time>2026-08-28T19:10:48Z</time>
  <course>163.04</course>
  <speed>0.04</speed>
  <fix>3d</fix>
</trkpt>
<trkpt lat="40.0728119" lon="-105.2306797">
  <ele>1595.44</ele>
  <time>2026-08-28T19:10:48Z</time>
  <course>13.8</course>
  <speed>0.01</speed>
  <fix>3d</fix>
</trkpt>
<trkpt lat="40.0728117" lon="-105.2306796">
  <ele>1595.35</ele>
  <time>2026-08-28T19:10:48Z</time>
  <course>155.72</course>
  <speed>0.04</speed>
  <fix>3d</fix>
</trkpt>
<trkpt lat="40.0728118" lon="-105.2306797">
  <ele>1595.44</ele>
  <time>2026-08-28T19:10:48Z</time>
  <course>13.78</course>
  <speed>0.0</speed>
  <fix>3d</fix>
</trkpt>
<trkpt lat="40.0728116" lon="-105.2306795">
  <ele>1595.35</ele>
  <time>2026-08-28T19:10:48Z</time>
  <course>145.53</course>
  <speed>0.03</speed>
  <fix>3d</fix>
</trkpt>
<trkpt lat="40.0728118" lon="-105.2306796">
  <ele>1595.44</ele>
  <time>2026-08-28T19:10:48Z</time>
  <course>13.78</course>
  <speed>0.01</speed>
  <fix>3d</fix>
</trkpt>
<trkpt lat="40.0728116" lon="-105.2306794">
  <ele>1595.34</ele>
  <time>2026-08-28T19:10:48Z</time>
  <course>136.68</course>
  <speed>0.03</speed>
  <fix>3d</fix>
</trkpt>
<trkpt lat="40.0728117" lon="-105.2306795">
  <ele>1595.44</ele>
  <time>2026-08-28T19:10:48Z</time>
  <course>13.79</course>
  <speed>0.01</speed>
  <fix>3d</fix>
</trkpt>
<trkpt lat="40.0728116" lon="-105.2306794">
  <ele>1595.34</ele>
  <time>2026-08-28T19:10:48Z</time>
  <course>128.67</course>
  <speed>0.03</speed>
  <fix>3d</fix>
</trkpt>
<trkpt lat="40.0728117" lon="-105.2306795">
  <ele>1595.43</ele>
  <time>2026-08-28T19:10:48Z</time>
  <course>13.8</course>
  <speed>0.01</speed>
  <fix>3d</fix>
</trkpt>
<trkpt lat="40.0728116" lon="-105.2306793">
  <ele>1595.34</ele>
  <time>2026-08-28T19:10:48Z</time>
  <course>122.36</course>
  <speed>0.03</speed>
  <fix>3d</fix>
</trkpt>
<trkpt lat="40.0728117" lon="-105.2306794">
  <ele>1595.42</ele>
  <time>2026-08-28T19:10:48Z</time>
  <course>13.8</course>
  <speed>0.01414213562373095</speed>
  <fix>3d</fix>
</trkpt>
<trkpt lat="40.0728115" lon="-105.2306792">
  <ele>1595.34</ele>
  <time>2026-08-28T19:10:48Z</time>
  <course>116.23</course>
  <speed>0.03</speed>
  <fix>3d</fix>
</trkpt>
<trkpt lat="40.0728117" lon="-105.2306793">
  <ele>1595.42</ele>
  <time>2026-08-28T19:10:48Z</time>
  <course>13.79</course>
  <speed>0.01414213562373095</speed>
  <fix>3d</fix>
</trkpt>
<trkpt lat="40.0728115" lon="-105.2306792">
  <ele>1595.33</ele>
  <time>2026-08-28T19:10:48Z</time>
  <course>110.13</course>
  <speed>0.02</speed>
  <fix>3d</fix>
</trkpt>
<trkpt lat="40.0728117" lon="-105.2306793">
  <ele>1595.42</ele>
  <time>2026-08-28T19:10:48Z</time>
  <course>13.76</course>
  <speed>0.01414213562373095</speed>
  <fix>3d</fix>
</trkpt>
<trkpt lat="40.0728115" lon="-105.2306791">
  <ele>1595.33</ele>
  <time>2026-08-28T19:10:48Z</time>
  <course>105.25</course>
  <speed>0.02</speed>
  <fix>3d</fix>
</trkpt>
<trkpt lat="40.0728117" lon="-105.2306792">
  <ele>1595.42</ele>
  <time>2026-08-28T19:10:48Z</time>
  <course>13.77</course>
  <speed>0.01414213562373095</speed>
  <fix>3d</fix>
</trkpt>
<trkpt lat="40.0728115" lon="-105.230679">
  <ele>1595.33</ele>
  <time>2026-08-28T19:10:48Z</time>
  <course>101.77</course>
  <speed>0.02</speed>
  <fix>3d</fix>
</trkpt>
<trkpt lat="40.0728117" lon="-105.2306791">
  <ele>1595.41</ele>
  <time>2026-08-28T19:10:48Z</time>
  <course>13.77</course>
  <speed>0.01414213562373095</speed>
  <fix>3d</fix>
</trkpt>
<trkpt lat="40.0728115" lon="-105.230679">
  <ele>1595.33</ele>
  <time>2026-08-28T19:10:48Z</time>
  <course>99.47</course>
  <speed>0.02</speed>
  <fix>3d</fix>
</trkpt>
<trkpt lat="40.0728117" lon="-105.2306791">
  <ele>1595.42</ele>
  <time>2026-08-28T19:10:48Z</time>
  <course>13.75</course>
  <speed>0.01414213562373095</speed>
  <fix>3d</fix>
</trkpt>
<trkpt lat="40.0728115" lon="-105.2306789">
  <ele>1595.34</ele>
  <time>2026-08-28T19:10:48Z</time>
  <course>97.9</course>
  <speed>0.02</speed>
  <fix>3d</fix>
</trkpt>
<trkpt lat="40.0728116" lon="-105.230679">
  <ele>1595.42</ele>
  <time>2026-08-28T19:10:48Z</time>
  <course>13.77</course>
  <speed>0.01414213562373095</speed>
  <fix>3d</fix>
</trkpt>
<trkpt lat="40.0728115" lon="-105.2306789">
  <ele>1595.34</ele>
  <time>2026-08-28T19:10:48Z</time>
  <course>97.24</course>
  <speed>0.02</speed>
  <fix>3d</fix>
</trkpt>
<trkpt lat="40.0728116" lon="-105.2306789">
  <ele>1595.43</ele>
  <time>2026-08-28T19:10:48Z</time>
  <course>13.77</course>
  <speed>0.01414213562373095</speed>
  <fix>3d</fix>
</trkpt>
<trkpt lat="40.0728115" lon="-105.2306788">
  <ele>1595.34</ele>
  <time>2026-08-28T19:10:48Z</time>
  <course>96.73</course>
  <speed>0.02</speed>
  <fix>3d</fix>
</trkpt>
<trkpt lat="40.0728116" lon="-105.2306789">
  <ele>1595.44</ele>
  <time>2026-08-28T19:10:48Z</time>
  <course>13.78</course>
  <speed>0.022360679774997897</speed>
  <fix>3d</fix>
</trkpt>
<trkpt lat="40.0728115" lon="-105.2306787">
  <ele>1595.34</ele>
  <time>2026-08-28T19:10:48Z</time>
  <course>94.32</course>
  <speed>0.02</speed>
  <fix>3d</fix>
</trkpt>
<trkpt lat="40.0728116" lon="-105.2306788">
  <ele>1595.44</ele>
  <time>2026-08-28T19:10:48Z</time>
  <course>13.88</course>
  <speed>0.05</speed>
  <fix>3d</fix>
</trkpt>
<trkpt lat="40.0728115" lon="-105.2306786">
  <ele>1595.34</ele>
  <time>2026-08-28T19:10:48Z</time>
  <course>68.93</course>
  <speed>0.03</speed>
  <fix>3d</fix>
</trkpt>
<trkpt lat="40.0728116" lon="-105.2306787">
  <ele>1595.44</ele>
  <time>2026-08-28T19:10:48Z</time>
  <course>13.86</course>
  <speed>0.05099019513592785</speed>
  <fix>3d</fix>
</trkpt>
<trkpt lat="40.0728115" lon="-105.2306785">
  <ele>1595.35</ele>
  <time>2026-08-28T19:10:48Z</time>
  <course>52.53</course>
  <speed>0.04</speed>
  <fix>3d</fix>
</trkpt>
<trkpt lat="40.0728117" lon="-105.2306786">
  <ele>1595.44</ele>
  <time>2026-08-28T19:10:48Z</time>
  <course>14.03</course>
  <speed>0.0316227766016838</speed>
  <fix>3d</fix>
</trkpt>
<trkpt lat="40.0728115" lon="-105.2306785">
  <ele>1595.34</ele>
  <time>2026-08-28T19:10:48Z</time>
  <course>56.46</course>
  <speed>0.03</speed>
  <fix>3d</fix>
</trkpt>
<trkpt lat="40.0728117" lon="-105.2306786">
  <ele>1595.44</ele>
  <time>2026-08-28T19:10:48Z</time>
  <course>14.07</course>
  <speed>0.0316227766016838</speed>
  <fix>3d</fix>
</trkpt>
<trkpt lat="40.0728115" lon="-105.2306784">
  <ele>1595.34</ele>
  <time>2026-08-28T19:10:48Z</time>
  <course>59.99</course>
  <speed>0.03</speed>
  <fix>3d</fix>
</trkpt>
<trkpt lat="40.0728117" lon="-105.2306785">
  <ele>1595.44</ele>
  <time>2026-08-28T19:10:48Z</time>
  <course>13.92</course>
  <speed>0.02</speed>
  <fix>3d</fix>
</trkpt>
<trkpt lat="40.0728115" lon="-105.2306784">
  <ele>1595.34</ele>
  <time>2026-08-28T19:10:48Z</time>
  <course>60.39</course>
  <speed>0.02</speed>
  <fix>3d</fix>
</trkpt>
<trkpt lat="40.0728117" lon="-105.2306785">
  <ele>1595.44</ele>
  <time>2026-08-28T19:10:48Z</time>
  <course>14.02</course>
  <speed>0.01</speed>
  <fix>3d</fix>
</trkpt>
<trkpt lat="40.0728115" lon="-105.2306783">
  <ele>1595.34</ele>
  <time>2026-08-28T19:10:48Z</time>
  <course>95.28</course>
  <speed>0.02</speed>
  <fix>3d</fix>
</trkpt>
<trkpt lat="40.0728117" lon="-105.2306784">
  <ele>1595.44</ele>
  <time>2026-08-28T19:10:48Z</time>
  <course>14.06</course>
  <speed>0.01</speed>
  <fix>3d</fix>
</trkpt>
<trkpt lat="40.0728115" lon="-105.2306782">
  <ele>1595.33</ele>
  <time>2026-08-28T19:10:48Z</time>
  <course>102.41</course>
  <speed>0.02</speed>
  <fix>3d</fix>
</trkpt>
<trkpt lat="40.0728116" lon="-105.2306783">
  <ele>1595.43</ele>
  <time>2026-08-28T19:10:48Z</time>
  <course>13.91</course>
  <speed>0.01</speed>
  <fix>3d</fix>
</trkpt>
<trkpt lat="40.0728115" lon="-105.2306782">
  <ele>1595.33</ele>
  <time>2026-08-28T19:10:48Z</time>
  <course>110.04</course>
  <speed>0.02</speed>
  <fix>3d</fix>
</trkpt>
<trkpt lat="40.0728116" lon="-105.2306783">
  <ele>1595.43</ele>
  <time>2026-08-28T19:10:48Z</time>
  <course>13.98</course>
  <speed>0.0</speed>
  <fix>3d</fix>
</trkpt>
<trkpt lat="40.0728115" lon="-105.2306782">
  <ele>1595.33</ele>
  <time>2026-08-28T19:10:48Z</time>
  <course>123.11</course>
  <speed>0.02</speed>
  <fix>3d</fix>
</trkpt>
<trkpt lat="40.0728116" lon="-105.2306783">
  <ele>1595.42</ele>
  <time>2026-08-28T19:10:48Z</time>
  <course>14.04</course>
  <speed>0.01</speed>
  <fix>3d</fix>
</trkpt>
<trkpt lat="40.0728115" lon="-105.2306781">
  <ele>1595.33</ele>
  <time>2026-08-28T19:10:48Z</time>
  <course>116.44</course>
  <speed>0.03</speed>
  <fix>3d</fix>
</trkpt>
<trkpt lat="40.0728116" lon="-105.2306782">
  <ele>1595.42</ele>
  <time>2026-08-28T19:10:48Z</time>
  <course>13.9</course>
  <speed>0.0</speed>
  <fix>3d</fix>
</trkpt>
<trkpt lat="40.0728115" lon="-105.230678">
  <ele>1595.33</ele>
  <time>2026-08-28T19:10:48Z</time>
  <course>117.31</course>
  <speed>0.02</speed>
  <fix>3d</fix>
</trkpt>
<trkpt lat="40.0728116" lon="-105.2306781">
  <ele>1595.42</ele>
  <time>2026-08-28T19:10:48Z</time>
  <course>13.91</course>
  <speed>0.0</speed>
  <fix>3d</fix>
</trkpt>
<trkpt lat="40.0728115" lon="-105.230678">
  <ele>1595.33</ele>
  <time>2026-08-28T19:10:48Z</time>
  <course>129.5</course>
  <speed>0.02</speed>
  <fix>3d</fix>
</trkpt>
<trkpt lat="40.0728116" lon="-105.2306781">
  <ele>1595.43</ele>
  <time>2026-08-28T19:10:48Z</time>
  <course>14.01</course>
  <speed>0.01</speed>
  <fix>3d</fix>
</trkpt>
<trkpt lat="40.0728115" lon="-105.230678">
  <ele>1595.33</ele>
  <time>2026-08-28T19:10:48Z</time>
  <course>122.19</course>
  <speed>0.03</speed>
  <fix>3d</fix>
</trkpt>
<trkpt lat="40.0728116" lon="-105.2306781">
  <ele>1595.42</ele>
  <time>2026-08-28T19:10:48Z</time>
  <course>13.96</course>
  <speed>0.0</speed>
  <fix>3d</fix>
</trkpt>
<trkpt lat="40.0728114" lon="-105.2306779">
  <ele>1595.33</ele>
  <time>2026-08-28T19:10:48Z</time>
  <course>120.03</course>
  <speed>0.02</speed>
  <fix>3d</fix>
</trkpt>
<trkpt lat="40.0728116" lon="-105.230678">
  <ele>1595.42</ele>
  <time>2026-08-28T19:10:48Z</time>
  <course>13.89</course>
  <speed>0.0</speed>
  <fix>3d</fix>
</trkpt>
<trkpt lat="40.0728114" lon="-105.2306778">
  <ele>1595.33</ele>
  <time>2026-08-28T19:10:48Z</time>
  <course>133.72</course>
  <speed>0.02</speed>
  <fix>3d</fix>
</trkpt>
<trkpt lat="40.0728115" lon="-105.230678">
  <ele>1595.41</ele>
  <time>2026-08-28T19:10:48Z</time>
  <course>14.0</course>
  <speed>0.0</speed>
  <fix>3d</fix>
</trkpt>
<trkpt lat="40.0728114" lon="-105.2306778">
  <ele>1595.33</ele>
  <time>2026-08-28T19:10:48Z</time>
  <course>127.04</course>
  <speed>0.02</speed>
  <fix>3d</fix>
</trkpt>
<trkpt lat="40.0728115" lon="-105.2306779">
  <ele>1595.41</ele>
  <time>2026-08-28T19:10:48Z</time>
  <course>13.97</course>
  <speed>0.01</speed>
  <fix>3d</fix>
</trkpt>
<trkpt lat="40.0728114" lon="-105.2306778">
  <ele>1595.33</ele>
  <time>2026-08-28T19:10:48Z</time>
  <course>121.2</course>
  <speed>0.02</speed>
  <fix>3d</fix>
</trkpt>
<trkpt lat="40.0728115" lon="-105.2306779">
  <ele>1595.41</ele>
  <time>2026-08-28T19:10:48Z</time>
  <course>13.83</course>
  <speed>0.0</speed>
  <fix>3d</fix>
</trkpt>
<trkpt lat="40.0728113" lon="-105.2306777">
  <ele>1595.33</ele>
  <time>2026-08-28T19:10:48Z</time>
  <course>133.86</course>
  <speed>0.02</speed>
  <fix>3d</fix>
</trkpt>
<trkpt lat="40.0728115" lon="-105.2306778">
  <ele>1595.42</ele>
  <time>2026-08-28T19:10:48Z</time>
  <course>13.95</course>
  <speed>0.0</speed>
  <fix>3d</fix>
</trkpt>
<trkpt lat="40.0728113" lon="-105.2306777">
  <ele>1595.33</ele>
  <time>2026-08-28T19:10:48Z</time>
  <course>131.26</course>
  <speed>0.02</speed>
  <fix>3d</fix>
</trkpt>
<trkpt lat="40.0728114" lon="-105.2306778">
  <ele>1595.42</ele>
  <time>2026-08-28T19:10:48Z</time>
  <course>13.99</course>
  <speed>0.01</speed>
  <fix>3d</fix>
</trkpt>
<trkpt lat="40.0728113" lon="-105.2306776">
  <ele>1595.34</ele>
  <time>2026-08-28T19:10:48Z</time>
  <course>122.96</course>
  <speed>0.02</speed>
  <fix>3d</fix>
</trkpt>
<trkpt lat="40.0728114" lon="-105.2306778">
  <ele>1595.43</ele>
  <time>2026-08-28T19:10:48Z</time>
  <course>13.82</course>
  <speed>0.022360679774997897</speed>
  <fix>3d</fix>
</trkpt>
<trkpt lat="40.0728112" lon="-105.2306775">
  <ele>1595.34</ele>
  <time>2026-08-28T19:10:48Z</time>
  <course>154.92</course>
  <speed>0.02</speed>
  <fix>3d</fix>
</trkpt>
<trkpt lat="40.0728113" lon="-105.2306777">
  <ele>1595.43</ele>
  <time>2026-08-28T19:10:48Z</time>
  <course>13.82</course>
  <speed>0.01</speed>
  <fix>3d</fix>
</trkpt>
<trkpt lat="40.0728111" lon="-105.2306775">
  <ele>1595.34</ele>
  <time>2026-08-28T19:10:48Z</time>
  <course>167.37</course>
  <speed>0.04</speed>
  <fix>3d</fix>
</trkpt>
<trkpt lat="40.0728112" lon="-105.2306777">
  <ele>1595.43</ele>
  <time>2026-08-28T19:10:48Z</time>
  <course>13.78</course>
  <speed>0.01</speed>
  <fix>3d</fix>
</trkpt>
<trkpt lat="40.0728111" lon="-105.2306775">
  <ele>1595.34</ele>
  <time>2026-08-28T19:10:48Z</time>
  <course>159.38</course>
  <speed>0.04</speed>
  <fix>3d</fix>
</trkpt>
<trkpt lat="40.0728112" lon="-105.2306776">
  <ele>1595.43</ele>
  <time>2026-08-28T19:10:48Z</time>
  <course>13.78</course>
  <speed>0.0</speed>
  <fix>3d</fix>
</trkpt>
<trkpt lat="40.072811" lon="-105.2306775">
  <ele>1595.35</ele>
  <time>2026-08-28T19:10:48Z</time>
  <course>150.4</course>
  <speed>0.03</speed>
  <fix>3d</fix>
</trkpt>
<trkpt lat="40.0728111" lon="-105.2306776">
  <ele>1595.43</ele>
  <time>2026-08-28T19:10:48Z</time>
  <course>13.79</course>
  <speed>0.0</speed>
  <fix>3d</fix>
</trkpt>
<trkpt lat="40.072811" lon="-105.2306774">
  <ele>1595.35</ele>
  <time>2026-08-28T19:10:48Z</time>
  <course>137.43</course>
  <speed>0.03</speed>
  <fix>3d</fix>
</trkpt>
<trkpt lat="40.0728111" lon="-105.2306775">
  <ele>1595.44</ele>
  <time>2026-08-28T19:10:48Z</time>
  <course>13.78</course>
  <speed>0.0</speed>
  <fix>3d</fix>
</trkpt>
<trkpt lat="40.072811" lon="-105.2306773">
  <ele>1595.35</ele>
  <time>2026-08-28T19:10:48Z</time>
  <course>125.42</course>
  <speed>0.02</speed>
  <fix>3d</fix>
</trkpt>
<trkpt lat="40.0728111" lon="-105.2306775">
  <ele>1595.44</ele>
  <time>2026-08-28T19:10:48Z</time>
  <course>13.79</course>
  <speed>0.01414213562373095</speed>
  <fix>3d</fix>
</trkpt>
<trkpt lat="40.0728109" lon="-105.2306773">
  <ele>1595.34</ele>
  <time>2026-08-28T19:10:48Z</time>
  <course>113.1</course>
  <speed>0.02</speed>
  <fix>3d</fix>
</trkpt>
<trkpt lat="40.0728111" lon="-105.2306774">
  <ele>1595.43</ele>
  <time>2026-08-28T19:10:48Z</time>
  <course>13.79</course>
  <speed>0.01414213562373095</speed>
  <fix>3d</fix>
</trkpt>
<trkpt lat="40.0728109" lon="-105.2306773">
  <ele>1595.34</ele>
  <time>2026-08-28T19:10:48Z</time>
  <course>102.49</course>
  <speed>0.02</speed>
  <fix>3d</fix>
</trkpt>
<trkpt lat="40.0728111" lon="-105.2306773">
  <ele>1595.43</ele>
  <time>2026-08-28T19:10:48Z</time>
  <course>13.8</course>
  <speed>0.022360679774997897</speed>
  <fix>3d</fix>
</trkpt>
<trkpt lat="40.0728109" lon="-105.2306772">
  <ele>1595.34</ele>
  <time>2026-08-28T19:10:48Z</time>
  <course>93.48</course>
  <speed>0.02</speed>
  <fix>3d</fix>
</trkpt>
<trkpt lat="40.0728111" lon="-105.2306773">
  <ele>1595.43</ele>
  <time>2026-08-28T19:10:48Z</time>
  <course>13.79</course>
  <speed>0.022360679774997897</speed>
  <fix>3d</fix>
</trkpt>
<trkpt lat="40.0728109" lon="-105.2306771">
  <ele>1595.34</ele>
  <time>2026-08-28T19:10:48Z</time>
  <course>86.03</course>
  <speed>0.02</speed>
  <fix>3d</fix>
</trkpt>
<trkpt lat="40.0728111" lon="-105.2306772">
  <ele>1595.44</ele>
  <time>2026-08-28T19:10:48Z</time>
  <course>13.79</course>
  <speed>0.022360679774997897</speed>
  <fix>3d</fix>
</trkpt>
<trkpt lat="40.0728109" lon="-105.2306771">
  <ele>1595.34</ele>
  <time>2026-08-28T19:10:48Z</time>
  <course>80.07</course>
  <speed>0.02</speed>
  <fix>3d</fix>
</trkpt>
<trkpt lat="40.0728111" lon="-105.2306772">
  <ele>1595.44</ele>
  <time>2026-08-28T19:10:48Z</time>
  <course>13.79</course>
  <speed>0.022360679774997897</speed>
  <fix>3d</fix>
</trkpt>
<trkpt lat="40.0728109" lon="-105.230677">
  <ele>1595.34</ele>
  <time>2026-08-28T19:10:48Z</time>
  <course>75.33</course>
  <speed>0.02</speed>
  <fix>3d</fix>
</trkpt>
<trkpt lat="40.0728111" lon="-105.2306771">
  <ele>1595.44</ele>
  <time>2026-08-28T19:10:48Z</time>
  <course>13.81</course>
  <speed>0.022360679774997897</speed>
  <fix>3d</fix>
</trkpt>
<trkpt lat="40.0728109" lon="-105.2306769">
  <ele>1595.34</ele>
  <time>2026-08-28T19:10:48Z</time>
  <course>72.21</course>
  <speed>0.02</speed>
  <fix>3d</fix>
</trkpt>
<trkpt lat="40.0728111" lon="-105.230677">
  <ele>1595.43</ele>
  <time>2026-08-28T19:10:48Z</time>
  <course>13.8</course>
  <speed>0.022360679774997897</speed>
  <fix>3d</fix>
</trkpt>
<trkpt lat="40.0728109" lon="-105.2306768">
  <ele>1595.34</ele>
  <time>2026-08-28T19:10:48Z</time>
  <course>70.94</course>
  <speed>0.02</speed>
  <fix>3d</fix>
</trkpt>
<trkpt lat="40.0728111" lon="-105.230677">
  <ele>1595.44</ele>
  <time>2026-08-28T19:10:48Z</time>
  <course>13.79</course>
  <speed>0.022360679774997897</speed>
  <fix>3d</fix>
</trkpt>
<trkpt lat="40.0728109" lon="-105.2306768">
  <ele>1595.34</ele>
  <time>2026-08-28T19:10:48Z</time>
  <course>71.16</course>
  <speed>0.02</speed>
  <fix>3d</fix>
</trkpt>
<trkpt lat="40.0728111" lon="-105.2306769">
  <ele>1595.44</ele>
  <time>2026-08-28T19:10:48Z</time>
  <course>13.8</course>
  <speed>0.022360679774997897</speed>
  <fix>3d</fix>
</trkpt>
<trkpt lat="40.0728109" lon="-105.2306767">
  <ele>1595.34</ele>
  <time>2026-08-28T19:10:48Z</time>
  <course>71.46</course>
  <speed>0.03</speed>
  <fix>3d</fix>
</trkpt>
<trkpt lat="40.0728111" lon="-105.2306768">
  <ele>1595.44</ele>
  <time>2026-08-28T19:10:48Z</time>
  <course>13.78</course>
  <speed>0.0412310562561766</speed>
  <fix>3d</fix>
</trkpt>
<trkpt lat="40.0728109" lon="-105.2306766">
  <ele>1595.33</ele>
  <time>2026-08-28T19:10:48Z</time>
  <course>63.89</course>
  <speed>0.03</speed>
  <fix>3d</fix>
</trkpt>
<trkpt lat="40.0728111" lon="-105.2306767">
  <ele>1595.44</ele>
  <time>2026-08-28T19:10:48Z</time>
  <course>13.93</course>
  <speed>0.05</speed>
  <fix>3d</fix>
</trkpt>
<trkpt lat="40.0728109" lon="-105.2306766">
  <ele>1595.33</ele>
  <time>2026-08-28T19:10:48Z</time>
  <course>55.27</course>
  <speed>0.04</speed>
  <fix>3d</fix>
</trkpt>
<trkpt lat="40.0728112" lon="-105.2306766">
  <ele>1595.44</ele>
  <time>2026-08-28T19:10:48Z</time>
  <course>13.95</course>
  <speed>0.053851648071345036</speed>
  <fix>3d</fix>
</trkpt>
<trkpt lat="40.072811" lon="-105.2306765">
  <ele>1595.33</ele>
  <time>2026-08-28T19:10:48Z</time>
  <course>46.19</course>
  <speed>0.05</speed>
  <fix>3d</fix>
</trkpt>
<trkpt lat="40.0728112" lon="-105.2306766">
  <ele>1595.43</ele>
  <time>2026-08-28T19:10:48Z</time>
  <course>13.91</course>
  <speed>0.04</speed>
  <fix>3d</fix>
</trkpt>
<trkpt lat="40.072811" lon="-105.2306764">
  <ele>1595.33</ele>
  <time>2026-08-28T19:10:48Z</time>
  <course>40.17</course>
  <speed>0.03</speed>
  <fix>3d</fix>
</trkpt>
<trkpt lat="40.0728112" lon="-105.2306765">
  <ele>1595.43</ele>
  <time>2026-08-28T19:10:48Z</time>
  <course>14.01</course>
  <speed>0.022360679774997897</speed>
  <fix>3d</fix>
</trkpt>
<trkpt lat="40.0728111" lon="-105.2306763">
  <ele>1595.32</ele>
  <time>2026-08-28T19:10:48Z</time>
  <course>57.26</course>
  <speed>0.03</speed>
  <fix>3d</fix>
</trkpt>
<trkpt lat="40.0728113" lon="-105.2306765">
  <ele>1595.42</ele>
  <time>2026-08-28T19:10:48Z</time>
  <course>14.0</course>
  <speed>0.01414213562373095</speed>
  <fix>3d</fix>
</trkpt>
<trkpt lat="40.0728111" lon="-105.2306763">
  <ele>1595.32</ele>
  <time>2026-08-28T19:10:48Z</time>
  <course>67.85</course>
  <speed>0.02</speed>
  <fix>3d</fix>
</trkpt>
<trkpt lat="40.0728112" lon="-105.2306764">
  <ele>1595.42</ele>
  <time>2026-08-28T19:10:48Z</time>
  <course>13.85</course>
  <speed>0.01</speed>
  <fix>3d</fix>
</trkpt>
<trkpt lat="40.0728111" lon="-105.2306763">
  <ele>1595.32</ele>
  <time>2026-08-28T19:10:48Z</time>
  <course>75.79</course>
  <speed>0.01</speed>
  <fix>3d</fix>
</trkpt>
<trkpt lat="40.0728112" lon="-105.2306763">
  <ele>1595.42</ele>
  <time>2026-08-28T19:10:48Z</time>
  <course>13.93</course>
  <speed>0.01</speed>
  <fix>3d</fix>
</trkpt>
<trkpt lat="40.0728111" lon="-105.2306762">
  <ele>1595.32</ele>
  <time>2026-08-28T19:10:48Z</time>
  <course>100.95</course>
  <speed>0.02</speed>
  <fix>3d</fix>
</trkpt>
<trkpt lat="40.0728112" lon="-105.2306763">
  <ele>1595.42</ele>
  <time>2026-08-28T19:10:48Z</time>
  <course>14.0</course>
  <speed>0.01</speed>
  <fix>3d</fix>
</trkpt>
<trkpt lat="40.0728111" lon="-105.2306761">
  <ele>1595.32</ele>
  <time>2026-08-28T19:10:48Z</time>
  <course>105.48</course>
  <speed>0.02</speed>
  <fix>3d</fix>
</trkpt>
<trkpt lat="40.0728112" lon="-105.2306762">
  <ele>1595.42</ele>
  <time>2026-08-28T19:10:48Z</time>
  <course>13.92</course>
  <speed>0.01</speed>
  <fix>3d</fix>
</trkpt>
<trkpt lat="40.0728111" lon="-105.2306761">
  <ele>1595.32</ele>
  <time>2026-08-28T19:10:48Z</time>
  <course>107.67</course>
  <speed>0.02</speed>
  <fix>3d</fix>
</trkpt>
<trkpt lat="40.0728112" lon="-105.2306762">
  <ele>1595.42</ele>
  <time>2026-08-28T19:10:48Z</time>
  <course>13.87</course>
  <speed>0.0</speed>
  <fix>3d</fix>
</trkpt>
<trkpt lat="40.0728111" lon="-105.230676">
  <ele>1595.33</ele>
  <time>2026-08-28T19:10:48Z</time>
  <course>118.52</course>
  <speed>0.02</speed>
  <fix>3d</fix>
</trkpt>
<trkpt lat="40.0728112" lon="-105.2306761">
  <ele>1595.42</ele>
  <time>2026-08-28T19:10:48Z</time>
  <course>13.98</course>
  <speed>0.0</speed>
  <fix>3d</fix>
</trkpt>
<trkpt lat="40.0728111" lon="-105.2306759">
  <ele>1595.33</ele>
  <time>2026-08-28T19:10:48Z</time>
  <course>117.29</course>
  <speed>0.02</speed>
  <fix>3d</fix>
</trkpt>
<trkpt lat="40.0728112" lon="-105.2306761">
  <ele>1595.42</ele>
  <time>2026-08-28T19:10:48Z</time>
  <course>13.99</course>
  <speed>0.01</speed>
  <fix>3d</fix>
</trkpt>
<trkpt lat="40.0728111" lon="-105.2306759">
  <ele>1595.33</ele>
  <time>2026-08-28T19:10:48Z</time>
  <course>114.03</course>
  <speed>0.02</speed>
  <fix>3d</fix>
</trkpt>
<trkpt lat="40.0728112" lon="-105.230676">
  <ele>1595.42</ele>
  <time>2026-08-28T19:10:48Z</time>
  <course>13.83</course>
  <speed>0.0</speed>
  <fix>3d</fix>
</trkpt>
<trkpt lat="40.0728111" lon="-105.2306759">
  <ele>1595.33</ele>
  <time>2026-08-28T19:10:48Z</time>
  <course>121.91</course>
  <speed>0.02</speed>
  <fix>3d</fix>
</trkpt>
<trkpt lat="40.0728112" lon="-105.230676">
  <ele>1595.42</ele>
  <time>2026-08-28T19:10:48Z</time>
  <course>13.91</course>
  <speed>0.0</speed>
  <fix>3d</fix>
</trkpt>
<trkpt lat="40.0728111" lon="-105.2306758">
  <ele>1595.33</ele>
  <time>2026-08-28T19:10:48Z</time>
  <course>126.07</course>
  <speed>0.02</speed>
  <fix>3d</fix>
</trkpt>
<trkpt lat="40.0728112" lon="-105.2306759">
  <ele>1595.42</ele>
  <time>2026-08-28T19:10:48Z</time>
  <course>13.99</course>
  <speed>0.01</speed>
  <fix>3d</fix>
</trkpt>
<trkpt lat="40.072811" lon="-105.2306758">
  <ele>1595.33</ele>
  <time>2026-08-28T19:10:48Z</time>
  <course>119.59</course>
  <speed>0.03</speed>
  <fix>3d</fix>
</trkpt>
<trkpt lat="40.0728112" lon="-105.2306759">
  <ele>1595.42</ele>
  <time>2026-08-28T19:10:48Z</time>
  <course>13.89</course>
  <speed>0.0</speed>
  <fix>3d</fix>
</trkpt>
<trkpt lat="40.072811" lon="-105.2306757">
  <ele>1595.33</ele>
  <time>2026-08-28T19:10:48Z</time>
  <course>121.35</course>
  <speed>0.02</speed>
  <fix>3d</fix>
</trkpt>
<trkpt lat="40.0728111" lon="-105.2306758">
  <ele>1595.42</ele>
  <time>2026-08-28T19:10:48Z</time>
  <course>13.86</course>
  <speed>0.0</speed>
  <fix>3d</fix>
</trkpt>
<trkpt lat="40.072811" lon="-105.2306756">
  <ele>1595.34</ele>
  <time>2026-08-28T19:10:48Z</time>
  <course>131.64</course>
  <speed>0.02</speed>
  <fix>3d</fix>
</trkpt>
<trkpt lat="40.0728111" lon="-105.2306758">
  <ele>1595.42</ele>
  <time>2026-08-28T19:10:48Z</time>
  <course>13.97</course>
  <speed>0.0</speed>
  <fix>3d</fix>
</trkpt>
<trkpt lat="40.072811" lon="-105.2306756">
  <ele>1595.34</ele>
  <time>2026-08-28T19:10:48Z</time>
  <course>126.18</course>
  <speed>0.02</speed>
  <fix>3d</fix>
</trkpt>
<trkpt lat="40.0728111" lon="-105.2306757">
  <ele>1595.43</ele>
  <time>2026-08-28T19:10:48Z</time>
  <course>13.98</course>
  <speed>0.01</speed>
  <fix>3d</fix>
</trkpt>
<trkpt lat="40.072811" lon="-105.2306756">
  <ele>1595.34</ele>
  <time>2026-08-28T19:10:48Z</time>
  <course>122.87</course>
  <speed>0.02</speed>
  <fix>3d</fix>
</trkpt>
<trkpt lat="40.072811" lon="-105.2306757">
  <ele>1595.43</ele>
  <time>2026-08-28T19:10:48Z</time>
  <course>13.82</course>
  <speed>0.01414213562373095</speed>
  <fix>3d</fix>
</trkpt>
<trkpt lat="40.072811" lon="-105.2306755">
  <ele>1595.34</ele>
  <time>2026-08-28T19:10:48Z</time>
  <course>154.1</course>
  <speed>0.02</speed>
  <fix>3d</fix>
</trkpt>
<trkpt lat="40.072811" lon="-105.2306757">
  <ele>1595.43</ele>
  <time>2026-08-28T19:10:48Z</time>
  <course>13.82</course>
  <speed>0.01</speed>
  <fix>3d</fix>
</trkpt>
<trkpt lat="40.0728109" lon="-105.2306754">
  <ele>1595.35</ele>
  <time>2026-08-28T19:10:48Z</time>
  <course>165.26</course>
  <speed>0.04</speed>
  <fix>3d</fix>
</trkpt>
<trkpt lat="40.0728109" lon="-105.2306756">
  <ele>1595.44</ele>
  <time>2026-08-28T19:10:48Z</time>
  <course>13.78</course>
  <speed>0.01</speed>
  <fix>3d</fix>
</trkpt>
<trkpt lat="40.0728108" lon="-105.2306754">
  <ele>1595.35</ele>
  <time>2026-08-28T19:10:48Z</time>
  <course>158.23</course>
  <speed>0.04</speed>
  <fix>3d</fix>
</trkpt>
<trkpt lat="40.0728109" lon="-105.2306756">
  <ele>1595.44</ele>
  <time>2026-08-28T19:10:48Z</time>
  <course>13.78</course>
  <speed>0.0</speed>
  <fix>3d</fix>
</trkpt>
<trkpt lat="40.0728108" lon="-105.2306754">
  <ele>1595.35</ele>
  <time>2026-08-28T19:10:48Z</time>
  <course>149.39</course>
  <speed>0.03</speed>
  <fix>3d</fix>
</trkpt>
<trkpt lat="40.0728109" lon="-105.2306755">
  <ele>1595.45</ele>
  <time>2026-08-28T19:10:48Z</time>
  <course>13.8</course>
  <speed>0.0</speed>
  <fix>3d</fix>
</trkpt>
<trkpt lat="40.0728107" lon="-105.2306754">
  <ele>1595.35</ele>
  <time>2026-08-28T19:10:48Z</time>
  <course>137.43</course>
  <speed>0.03</speed>
  <fix>3d</fix>
</trkpt>
<trkpt lat="40.0728108" lon="-105.2306755">
  <ele>1595.45</ele>
  <time>2026-08-28T19:10:48Z</time>
  <course>13.81</course>
  <speed>0.01</speed>
  <fix>3d</fix>
</trkpt>
<trkpt lat="40.0728107" lon="-105.2306753">
  <ele>1595.35</ele>
  <time>2026-08-28T19:10:48Z</time>
  <course>127.16</course>
  <speed>0.02</speed>
  <fix>3d</fix>
</trkpt>
<trkpt lat="40.0728108" lon="-105.2306754">
  <ele>1595.45</ele>
  <time>2026-08-28T19:10:48Z</time>
  <course>13.82</course>
  <speed>0.01414213562373095</speed>
  <fix>3d</fix>
</trkpt>
<trkpt lat="40.0728107" lon="-105.2306753">
  <ele>1595.34</ele>
  <time>2026-08-28T19:10:48Z</time>
  <course>117.57</course>
  <speed>0.02</speed>
  <fix>3d</fix>
</trkpt>
<trkpt lat="40.0728108" lon="-105.2306754">
  <ele>1595.44</ele>
  <time>2026-08-28T19:10:48Z</time>
  <course>13.83</course>
  <speed>0.01414213562373095</speed>
  <fix>3d</fix>
</trkpt>
<trkpt lat="40.0728106" lon="-105.2306752">
  <ele>1595.34</ele>
  <time>2026-08-28T19:10:48Z</time>
  <course>109.22</course>
  <speed>0.02</speed>
  <fix>3d</fix>
</trkpt>
<trkpt lat="40.0728108" lon="-105.2306753">
  <ele>1595.44</ele>
  <time>2026-08-28T19:10:48Z</time>
  <course>13.82</course>
  <speed>0.01414213562373095</speed>
  <fix>3d</fix>
</trkpt>
<trkpt lat="40.0728105" lon="-105.2306751">
  <ele>1595.34</ele>
  <time>2026-08-28T19:10:48Z</time>
  <course>102.53</course>
  <speed>0.02</speed>
  <fix>3d</fix>
</trkpt>
<trkpt lat="40.0728108" lon="-105.2306752">
  <ele>1595.43</ele>
  <time>2026-08-28T19:10:48Z</time>
  <course>13.8</course>
  <speed>0.01414213562373095</speed>
  <fix>3d</fix>
</trkpt>
<trkpt lat="40.0728105" lon="-105.2306751">
  <ele>1595.33</ele>
  <time>2026-08-28T19:10:48Z</time>
  <course>97.24</course>
  <speed>0.02</speed>
  <fix>3d</fix>
</trkpt>
<trkpt lat="40.0728108" lon="-105.2306752">
  <ele>1595.43</ele>
  <time>2026-08-28T19:10:48Z</time>
  <course>13.79</course>
  <speed>0.022360679774997897</speed>
  <fix>3d</fix>
</trkpt>
<trkpt lat="40.0728105" lon="-105.230675">
  <ele>1595.33</ele>
  <time>2026-08-28T19:10:48Z</time>
  <course>93.05</course>
  <speed>0.02</speed>
  <fix>3d</fix>
</trkpt>
<trkpt lat="40.0728108" lon="-105.2306751">
  <ele>1595.43</ele>
  <time>2026-08-28T19:10:48Z</time>
  <course>13.79</course>
  <speed>0.022360679774997897</speed>
  <fix>3d</fix>
</trkpt>
<trkpt lat="40.0728105" lon="-105.2306749">
  <ele>1595.33</ele>
  <time>2026-08-28T19:10:48Z</time>
  <course>90.0</course>
  <speed>0.02</speed>
  <fix>3d</fix>
</trkpt>
<trkpt lat="40.0728107" lon="-105.230675">
  <ele>1595.43</ele>
  <time>2026-08-28T19:10:48Z</time>
  <course>13.79</course>
  <speed>0.022360679774997897</speed>
  <fix>3d</fix>
</trkpt>
<trkpt lat="40.0728105" lon="-105.2306749">
  <ele>1595.33</ele>
  <time>2026-08-28T19:10:48Z</time>
  <course>87.38</course>
  <speed>0.02</speed>
  <fix>3d</fix>
</trkpt>
<trkpt lat="40.0728107" lon="-105.230675">
  <ele>1595.43</ele>
  <time>2026-08-28T19:10:48Z</time>
  <course>13.79</course>
  <speed>0.022360679774997897</speed>
  <fix>3d</fix>
</trkpt>
<trkpt lat="40.0728105" lon="-105.2306748">
  <ele>1595.33</ele>
  <time>2026-08-28T19:10:48Z</time>
  <course>84.9</course>
  <speed>0.03</speed>
  <fix>3d</fix>
</trkpt>
<trkpt lat="40.0728107" lon="-105.2306749">
  <ele>1595.43</ele>
  <time>2026-08-28T19:10:48Z</time>
  <course>13.79</course>
  <speed>0.022360679774997897</speed>
  <fix>3d</fix>
</trkpt>
<trkpt lat="40.0728105" lon="-105.2306747">
  <ele>1595.33</ele>
  <time>2026-08-28T19:10:48Z</time>
  <course>83.13</course>
  <speed>0.03</speed>
  <fix>3d</fix>
</trkpt>
<trkpt lat="40.0728107" lon="-105.2306748">
  <ele>1595.43</ele>
  <time>2026-08-28T19:10:48Z</time>
  <course>13.79</course>
  <speed>0.022360679774997897</speed>
  <fix>3d</fix>
</trkpt>
<trkpt lat="40.0728105" lon="-105.2306747">
  <ele>1595.33</ele>
  <time>2026-08-28T19:10:48Z</time>
  <course>82.29</course>
  <speed>0.03</speed>
  <fix>3d</fix>
</trkpt>
<trkpt lat="40.0728107" lon="-105.2306747">
  <ele>1595.43</ele>
  <time>2026-08-28T19:10:48Z</time>
  <course>13.81</course>
  <speed>0.0316227766016838</speed>
  <fix>3d</fix>
</trkpt>
<trkpt lat="40.0728105" lon="-105.2306746">
  <ele>1595.33</ele>
  <time>2026-08-28T19:10:48Z</time>
  <course>78.35</course>
  <speed>0.03</speed>
  <fix>3d</fix>
</trkpt>
<trkpt lat="40.0728107" lon="-105.2306747">
  <ele>1595.42</ele>
  <time>2026-08-28T19:10:48Z</time>
  <course>13.89</course>
  <speed>0.05</speed>
  <fix>3d</fix>
</trkpt>
<trkpt lat="40.0728105" lon="-105.2306745">
  <ele>1595.33</ele>
  <time>2026-08-28T19:10:48Z</time>
  <course>60.71</course>
  <speed>0.04</speed>
  <fix>3d</fix>
</trkpt>
<trkpt lat="40.0728107" lon="-105.2306746">
  <ele>1595.42</ele>
  <time>2026-08-28T19:10:48Z</time>
  <course>13.83</course>
  <speed>0.05099019513592785</speed>
  <fix>3d</fix>
</trkpt>
<trkpt lat="40.0728105" lon="-105.2306744">
  <ele>1595.33</ele>
  <time>2026-08-28T19:10:48Z</time>
  <course>47.24</course>
  <speed>0.04</speed>
  <fix>3d</fix>
</trkpt>
<trkpt lat="40.0728108" lon="-105.2306745">
  <ele>1595.42</ele>
  <time>2026-08-28T19:10:48Z</time>
  <course>13.94</course>
  <speed>0.03</speed>
  <fix>3d</fix>
</trkpt>
<trkpt lat="40.0728106" lon="-105.2306743">
  <ele>1595.33</ele>
  <time>2026-08-28T19:10:48Z</time>
  <course>48.82</course>
  <speed>0.04</speed>
  <fix>3d</fix>
</trkpt>
<trkpt lat="40.0728108" lon="-105.2306744">
  <ele>1595.42</ele>
  <time>2026-08-28T19:10:48Z</time>
  <course>14.02</course>
  <speed>0.022360679774997897</speed>
  <fix>3d</fix>
</trkpt>
<trkpt lat="40.0728107" lon="-105.2306742">
  <ele>1595.33</ele>
  <time>2026-08-28T19:10:48Z</time>
  <course>58.21</course>
  <speed>0.03</speed>
  <fix>3d</fix>
</trkpt>
<trkpt lat="40.0728108" lon="-105.2306744">
  <ele>1595.42</ele>
  <time>2026-08-28T19:10:48Z</time>
  <course>13.89</course>
  <speed>0.02</speed>
  <fix>3d</fix>
</trkpt>
<trkpt lat="40.0728107" lon="-105.2306742">
  <ele>1595.33</ele>
  <time>2026-08-28T19:10:48Z</time>
  <course>56.52</course>
  <speed>0.02</speed>
  <fix>3d</fix>
</trkpt>
<trkpt lat="40.0728108" lon="-105.2306743">
  <ele>1595.42</ele>
  <time>2026-08-28T19:10:48Z</time>
  <course>13.94</course>
  <speed>0.01</speed>
  <fix>3d</fix>
</trkpt>
<trkpt lat="40.0728108" lon="-105.2306742">
  <ele>1595.33</ele>
  <time>2026-08-28T19:10:48Z</time>
  <course>83.72</course>
  <speed>0.01</speed>
  <fix>3d</fix>
</trkpt>
<trkpt lat="40.0728108" lon="-105.2306743">
  <ele>1595.42</ele>
  <time>2026-08-28T19:10:48Z</time>
  <course>14.02</course>
  <speed>0.01</speed>
  <fix>3d</fix>
</trkpt>
<trkpt lat="40.0728108" lon="-105.2306741">
  <ele>1595.33</ele>
  <time>2026-08-28T19:10:48Z</time>
  <course>100.0</course>
  <speed>0.02</speed>
  <fix>3d</fix>
</trkpt>
<trkpt lat="40.0728108" lon="-105.2306742">
  <ele>1595.42</ele>
  <time>2026-08-28T19:10:48Z</time>
  <course>13.92</course>
  <speed>0.01</speed>
  <fix>3d</fix>
</trkpt>
<trkpt lat="40.0728108" lon="-105.2306741">
  <ele>1595.34</ele>
  <time>2026-08-28T19:10:48Z</time>
  <course>102.63</course>
  <speed>0.02</speed>
  <fix>3d</fix>
</trkpt>
<trkpt lat="40.0728108" lon="-105.2306742">
  <ele>1595.43</ele>
  <time>2026-08-28T19:10:48Z</time>
  <course>13.89</course>
  <speed>0.0</speed>
  <fix>3d</fix>
</trkpt>
<trkpt lat="40.0728108" lon="-105.230674">
  <ele>1595.34</ele>
  <time>2026-08-28T19:10:48Z</time>
  <course>118.62</course>
  <speed>0.01</speed>
  <fix>3d</fix>
</trkpt>
<trkpt lat="40.0728108" lon="-105.2306741">
  <ele>1595.44</ele>
  <time>2026-08-28T19:10:48Z</time>
  <course>14.01</course>
  <speed>0.01</speed>
  <fix>3d</fix>
</trkpt>
<trkpt lat="40.0728108" lon="-105.2306739">
  <ele>1595.34</ele>
  <time>2026-08-28T19:10:48Z</time>
  <course>117.64</course>
  <speed>0.02</speed>
  <fix>3d</fix>
</trkpt>
<trkpt lat="40.0728108" lon="-105.2306741">
  <ele>1595.44</ele>
  <time>2026-08-28T19:10:48Z</time>
  <course>14.02</course>
  <speed>0.01</speed>
  <fix>3d</fix>
</trkpt>
<trkpt lat="40.0728108" lon="-105.2306739">
  <ele>1595.34</ele>
  <time>2026-08-28T19:10:48Z</time>
  <course>114.41</course>
  <speed>0.02</speed>
  <fix>3d</fix>
</trkpt>
<trkpt lat="40.0728108" lon="-105.230674">
  <ele>1595.44</ele>
  <time>2026-08-28T19:10:48Z</time>
  <course>13.92</course>
  <speed>0.0</speed>
  <fix>3d</fix>
</trkpt>
<trkpt lat="40.0728108" lon="-105.2306739">
  <ele>1595.34</ele>
  <time>2026-08-28T19:10:48Z</time>
  <course>127.08</course>
  <speed>0.02</speed>
  <fix>3d</fix>
</trkpt>
<trkpt lat="40.0728108" lon="-105.230674">
  <ele>1595.43</ele>
  <time>2026-08-28T19:10:48Z</time>
  <course>14.03</course>
  <speed>0.0</speed>
  <fix>3d</fix>
</trkpt>
<trkpt lat="40.0728107" lon="-105.2306738">
  <ele>1595.34</ele>
  <time>2026-08-28T19:10:48Z</time>
  <course>126.45</course>
  <speed>0.02</speed>
  <fix>3d</fix>
</trkpt>
<trkpt lat="40.0728108" lon="-105.2306739">
  <ele>1595.42</ele>
  <time>2026-08-28T19:10:48Z</time>
  <course>14.04</course>
  <speed>0.01</speed>
  <fix>3d</fix>
</trkpt>
<trkpt lat="40.0728107" lon="-105.2306737">
  <ele>1595.34</ele>
  <time>2026-08-28T19:10:48Z</time>
  <course>119.53</course>
  <speed>0.03</speed>
  <fix>3d</fix>
</trkpt>
<trkpt lat="40.0728108" lon="-105.2306739">
  <ele>1595.42</ele>
  <time>2026-08-28T19:10:48Z</time>
  <course>13.87</course>
  <speed>0.0</speed>
  <fix>3d</fix>
</trkpt>
<trkpt lat="40.0728107" lon="-105.2306737">
  <ele>1595.34</ele>
  <time>2026-08-28T19:10:48Z</time>
  <course>128.59</course>
  <speed>0.02</speed>
  <fix>3d</fix>
</trkpt>
<trkpt lat="40.0728108" lon="-105.2306738">
  <ele>1595.42</ele>
  <time>2026-08-28T19:10:49Z</time>
  <course>13.94</course>
  <speed>0.0</speed>
  <fix>3d</fix>
</trkpt>
<trkpt lat="40.0728106" lon="-105.2306737">
  <ele>1595.34</ele>
  <time>2026-08-28T19:10:49Z</time>
  <course>132.68</course>
  <speed>0.02</speed>
  <fix>3d</fix>
</trkpt>
<trkpt lat="40.0728108" lon="-105.2306738">
  <ele>1595.42</ele>
  <time>2026-08-28T19:10:49Z</time>
  <course>14.01</course>
  <speed>0.01</speed>
  <fix>3d</fix>
</trkpt>
<trkpt lat="40.0728105" lon="-105.2306736">
  <ele>1595.34</ele>
  <time>2026-08-28T19:10:49Z</time>
  <course>123.73</course>
  <speed>0.03</speed>
  <fix>3d</fix>
</trkpt>
<trkpt lat="40.0728107" lon="-105.2306737">
  <ele>1595.42</ele>
  <time>2026-08-28T19:10:49Z</time>
  <course>13.89</course>
  <speed>0.0</speed>
  <fix>3d</fix>
</trkpt>
<trkpt lat="40.0728105" lon="-105.2306735">
  <ele>1595.34</ele>
  <time>2026-08-28T19:10:49Z</time>
  <course>128.73</course>
  <speed>0.02</speed>
  <fix>3d</fix>
</trkpt>
<trkpt lat="40.0728107" lon="-105.2306737">
  <ele>1595.43</ele>
  <time>2026-08-28T19:10:49Z</time>
  <course>13.92</course>
  <speed>0.0</speed>
  <fix>3d</fix>
</trkpt>
<trkpt lat="40.0728105" lon="-105.2306735">
  <ele>1595.34</ele>
  <time>2026-08-28T19:10:49Z</time>
  <course>138.41</course>
  <speed>0.02</speed>
  <fix>3d</fix>
</trkpt>
<trkpt lat="40.0728106" lon="-105.2306736">
  <ele>1595.43</ele>
  <time>2026-08-28T19:10:49Z</time>
  <course>14.0</course>
  <speed>0.01</speed>
  <fix>3d</fix>
</trkpt>
<trkpt lat="40.0728104" lon="-105.2306735">
  <ele>1595.35</ele>
  <time>2026-08-28T19:10:49Z</time>
  <course>129.06</course>
  <speed>0.03</speed>
  <fix>3d</fix>
</trkpt>
<trkpt lat="40.0728106" lon="-105.2306736">
  <ele>1595.43</ele>
  <time>2026-08-28T19:10:49Z</time>
  <course>13.82</course>
  <speed>0.022360679774997897</speed>
  <fix>3d</fix>
</trkpt>
<trkpt lat="40.0728104" lon="-105.2306734">
  <ele>1595.35</ele>
  <time>2026-08-28T19:10:49Z</time>
  <course>154.65</course>
  <speed>0.03</speed>
  <fix>3d</fix>
</trkpt>
<trkpt lat="40.0728105" lon="-105.2306736">
  <ele>1595.43</ele>
  <time>2026-08-28T19:10:49Z</time>
  <course>13.81</course>
  <speed>0.02</speed>
  <fix>3d</fix>
</trkpt>
<trkpt lat="40.0728104" lon="-105.2306734">
  <ele>1595.35</ele>
  <time>2026-08-28T19:10:49Z</time>
  <course>169.3</course>
  <speed>0.04</speed>
  <fix>3d</fix>
</trkpt>
<trkpt lat="40.0728104" lon="-105.2306735">
  <ele>1595.42</ele>
  <time>2026-08-28T19:10:49Z</time>
  <course>13.78</course>
  <speed>0.01</speed>
  <fix>3d</fix>
</trkpt>
<trkpt lat="40.0728103" lon="-105.2306734">
  <ele>1595.35</ele>
  <time>2026-08-28T19:10:49Z</time>
  <course>157.1</course>
  <speed>0.04</speed>
  <fix>3d</fix>
</trkpt>
<trkpt lat="40.0728104" lon="-105.2306735">
  <ele>1595.42</ele>
  <time>2026-08-28T19:10:49Z</time>
  <course>13.77</course>
  <speed>0.0</speed>
  <fix>3d</fix>
</trkpt>
<trkpt lat="40.0728102" lon="-105.2306733">
  <ele>1595.35</ele>
  <time>2026-08-28T19:10:49Z</time>
  <course>148.25</course>
  <speed>0.03</speed>
  <fix>3d</fix>
</trkpt>
<trkpt lat="40.0728103" lon="-105.2306734">
  <ele>1595.43</ele>
  <time>2026-08-28T19:10:49Z</time>
  <course>13.76</course>
  <speed>0.0</speed>
  <fix>3d</fix>
</trkpt>
<trkpt lat="40.0728102" lon="-105.2306732">
  <ele>1595.35</ele>
  <time>2026-08-28T19:10:49Z</time>
  <course>136.84</course>
  <speed>0.03</speed>
  <fix>3d</fix>
</trkpt>
<trkpt lat="40.0728103" lon="-105.2306734">
  <ele>1595.43</ele>
  <time>2026-08-28T19:10:49Z</time>
  <course>13.77</course>
  <speed>0.01</speed>
  <fix>3d</fix>
</trkpt>
<trkpt lat="40.0728102" lon="-105.2306732">
  <ele>1595.35</ele>
  <time>2026-08-28T19:10:49Z</time>
  <course>125.9</course>
  <speed>0.03</speed>
  <fix>3d</fix>
</trkpt>
<trkpt lat="40.0728103" lon="-105.2306733">
  <ele>1595.43</ele>
  <time>2026-08-28T19:10:49Z</time>
  <course>13.79</course>
  <speed>0.01414213562373095</speed>
  <fix>3d</fix>
</trkpt>
<trkpt lat="40.0728101" lon="-105.2306732">
  <ele>1595.35</ele>
  <time>2026-08-28T19:10:49Z</time>
  <course>115.43</course>
  <speed>0.02</speed>
  <fix>3d</fix>
</trkpt>
<trkpt lat="40.0728103" lon="-105.2306732">
  <ele>1595.43</ele>
  <time>2026-08-28T19:10:49Z</time>
  <course>13.8</course>
  <speed>0.01414213562373095</speed>
  <fix>3d</fix>
</trkpt>
<trkpt lat="40.0728101" lon="-105.2306731">
  <ele>1595.36</ele>
  <time>2026-08-28T19:10:49Z</time>
  <course>105.79</course>
  <speed>0.02</speed>
  <fix>3d</fix>
</trkpt>
<trkpt lat="40.0728103" lon="-105.2306732">
  <ele>1595.43</ele>
  <time>2026-08-28T19:10:49Z</time>
  <course>13.8</course>
  <speed>0.01414213562373095</speed>
  <fix>3d</fix>
</trkpt>
<trkpt lat="40.0728101" lon="-105.230673">
  <ele>1595.36</ele>
  <time>2026-08-28T19:10:49Z</time>
  <course>97.76</course>
  <speed>0.02</speed>
  <fix>3d</fix>
</trkpt>
<trkpt lat="40.0728103" lon="-105.2306731">
  <ele>1595.43</ele>
  <time>2026-08-28T19:10:49Z</time>
  <course>13.8</course>
  <speed>0.022360679774997897</speed>
  <fix>3d</fix>
</trkpt>
<trkpt lat="40.0728101" lon="-105.230673">
  <ele>1595.36</ele>
  <time>2026-08-28T19:10:49Z</time>
  <course>91.02</course>
  <speed>0.02</speed>
  <fix>3d</fix>
</trkpt>
<trkpt lat="40.0728103" lon="-105.2306731">
  <ele>1595.43</ele>
  <time>2026-08-28T19:10:49Z</time>
  <course>13.8</course>
  <speed>0.022360679774997897</speed>
  <fix>3d</fix>
</trkpt>
<trkpt lat="40.0728101" lon="-105.2306729">
  <ele>1595.36</ele>
  <time>2026-08-28T19:10:49Z</time>
  <course>84.58</course>
  <speed>0.02</speed>
  <fix>3d</fix>
</trkpt>
<trkpt lat="40.0728103" lon="-105.230673">
  <ele>1595.44</ele>
  <time>2026-08-28T19:10:49Z</time>
  <course>13.8</course>
  <speed>0.022360679774997897</speed>
  <fix>3d</fix>
</trkpt>
<trkpt lat="40.0728101" lon="-105.2306728">
  <ele>1595.36</ele>
  <time>2026-08-28T19:10:49Z</time>
  <course>79.4</course>
  <speed>0.02</speed>
  <fix>3d</fix>
</trkpt>
<trkpt lat="40.0728103" lon="-105.2306729">
  <ele>1595.44</ele>
  <time>2026-08-28T19:10:49Z</time>
  <course>13.81</course>
  <speed>0.022360679774997897</speed>
  <fix>3d</fix>
</trkpt>
<trkpt lat="40.0728101" lon="-105.2306727">
  <ele>1595.36</ele>
  <time>2026-08-28T19:10:49Z</time>
  <course>75.91</course>
  <speed>0.02</speed>
  <fix>3d</fix>
</trkpt>
<trkpt lat="40.0728103" lon="-105.2306729">
  <ele>1595.44</ele>
  <time>2026-08-28T19:10:49Z</time>
  <course>13.82</course>
  <speed>0.022360679774997897</speed>
  <fix>3d</fix>
</trkpt>
<trkpt lat="40.0728101" lon="-105.2306727">
  <ele>1595.35</ele>
  <time>2026-08-28T19:10:49Z</time>
  <course>73.97</course>
  <speed>0.02</speed>
  <fix>3d</fix>
</trkpt>
<trkpt lat="40.0728103" lon="-105.2306728">
  <ele>1595.44</ele>
  <time>2026-08-28T19:10:49Z</time>
  <course>13.8</course>
  <speed>0.022360679774997897</speed>
  <fix>3d</fix>
</trkpt>
<trkpt lat="40.0728101" lon="-105.2306727">
  <ele>1595.35</ele>
  <time>2026-08-28T19:10:49Z</time>
  <course>74.36</course>
  <speed>0.02</speed>
  <fix>3d</fix>
</trkpt>
<trkpt lat="40.0728103" lon="-105.2306727">
  <ele>1595.43</ele>
  <time>2026-08-28T19:10:49Z</time>
  <course>13.81</course>
  <speed>0.022360679774997897</speed>
  <fix>3d</fix>
</trkpt>
<trkpt lat="40.0728101" lon="-105.2306726">
  <ele>1595.35</ele>
  <time>2026-08-28T19:10:49Z</time>
  <course>75.59</course>
  <speed>0.02</speed>
  <fix>3d</fix>
</trkpt>
<trkpt lat="40.0728103" lon="-105.2306727">
  <ele>1595.43</ele>
  <time>2026-08-28T19:10:49Z</time>
  <course>13.77</course>
  <speed>0.053851648071345036</speed>
  <fix>3d</fix>
</trkpt>
<trkpt lat="40.0728101" lon="-105.2306725">
  <ele>1595.35</ele>
  <time>2026-08-28T19:10:49Z</time>
  <course>60.25</course>
  <speed>0.03</speed>
  <fix>3d</fix>
</trkpt>
<trkpt lat="40.0728103" lon="-105.2306726">
  <ele>1595.42</ele>
  <time>2026-08-28T19:10:49Z</time>
  <course>13.89</course>
  <speed>0.0412310562561766</speed>
  <fix>3d</fix>
</trkpt>
<trkpt lat="40.0728101" lon="-105.2306724">
  <ele>1595.35</ele>
  <time>2026-08-28T19:10:49Z</time>
  <course>53.32</course>
  <speed>0.04</speed>
  <fix>3d</fix>
</trkpt>
<trkpt lat="40.0728104" lon="-105.2306725">
  <ele>1595.42</ele>
  <time>2026-08-28T19:10:49Z</time>
  <course>13.99</course>
  <speed>0.044721359549995794</speed>
  <fix>3d</fix>
</trkpt>
<trkpt lat="40.0728102" lon="-105.2306723">
  <ele>1595.35</ele>
  <time>2026-08-28T19:10:49Z</time>
  <course>52.64</course>
  <speed>0.05</speed>
  <fix>3d</fix>
</trkpt>
<trkpt lat="40.0728104" lon="-105.2306724">
  <ele>1595.42</ele>
  <time>2026-08-28T19:10:49Z</time>
  <course>13.88</course>
  <speed>0.03</speed>
  <fix>3d</fix>
</trkpt>
<trkpt lat="40.0728102" lon="-105.2306723">
  <ele>1595.35</ele>
  <time>2026-08-28T19:10:49Z</time>
  <course>44.53</course>
  <speed>0.03</speed>
  <fix>3d</fix>
</trkpt>
<trkpt lat="40.0728104" lon="-105.2306724">
  <ele>1595.43</ele>
  <time>2026-08-28T19:10:49Z</time>
  <course>13.9</course>
  <speed>0.02</speed>
  <fix>3d</fix>
</trkpt>
<trkpt lat="40.0728103" lon="-105.2306722">
  <ele>1595.35</ele>
  <time>2026-08-28T19:10:49Z</time>
  <course>53.25</course>
  <speed>0.02</speed>
  <fix>3d</fix>
</trkpt>
<trkpt lat="40.0728104" lon="-105.2306723">
  <ele>1595.43</ele>
  <time>2026-08-28T19:10:49Z</time>
  <course>14.01</course>
  <speed>0.01414213562373095</speed>
  <fix>3d</fix>
</trkpt>
<trkpt lat="40.0728103" lon="-105.2306722">
  <ele>1595.35</ele>
  <time>2026-08-28T19:10:49Z</time>
  <course>80.76</course>
  <speed>0.02</speed>
  <fix>3d</fix>
</trkpt>
<trkpt lat="40.0728104" lon="-105.2306723">
  <ele>1595.42</ele>
  <time>2026-08-28T19:10:49Z</time>
  <course>13.98</course>
  <speed>0.01414213562373095</speed>
  <fix>3d</fix>
</trkpt>
<trkpt lat="40.0728103" lon="-105.2306721">
  <ele>1595.35</ele>
  <time>2026-08-28T19:10:49Z</time>
  <course>89.86</course>
  <speed>0.02</speed>
  <fix>3d</fix>
</trkpt>
<trkpt lat="40.0728104" lon="-105.2306722">
  <ele>1595.42</ele>
  <time>2026-08-28T19:10:49Z</time>
  <course>13.86</course>
  <speed>0.01</speed>
  <fix>3d</fix>
</trkpt>
<trkpt lat="40.0728103" lon="-105.230672">
  <ele>1595.35</ele>
  <time>2026-08-28T19:10:49Z</time>
  <course>103.19</course>
  <speed>0.01</speed>
  <fix>3d</fix>
</trkpt>
<trkpt lat="40.0728104" lon="-105.2306722">
  <ele>1595.42</ele>
  <time>2026-08-28T19:10:49Z</time>
  <course>13.95</course>
  <speed>0.0</speed>
  <fix>3d</fix>
</trkpt>
<trkpt lat="40.0728103" lon="-105.230672">
  <ele>1595.35</ele>
  <time>2026-08-28T19:10:49Z</time>
  <course>113.8</course>
  <speed>0.02</speed>
  <fix>3d</fix>
</trkpt>
<trkpt lat="40.0728104" lon="-105.2306721">
  <ele>1595.42</ele>
  <time>2026-08-28T19:10:49Z</time>
  <course>13.99</course>
  <speed>0.01</speed>
  <fix>3d</fix>
</trkpt>
<trkpt lat="40.0728103" lon="-105.230672">
  <ele>1595.36</ele>
  <time>2026-08-28T19:10:49Z</time>
  <course>112.19</course>
  <speed>0.03</speed>
  <fix>3d</fix>
</trkpt>
<trkpt lat="40.0728104" lon="-105.2306721">
  <ele>1595.42</ele>
  <time>2026-08-28T19:10:49Z</time>
  <course>13.88</course>
  <speed>0.0</speed>
  <fix>3d</fix>
</trkpt>
<trkpt lat="40.0728103" lon="-105.2306719">
  <ele>1595.36</ele>
  <time>2026-08-28T19:10:49Z</time>
  <course>116.05</course>
  <speed>0.02</speed>
  <fix>3d</fix>
</trkpt>
<trkpt lat="40.0728104" lon="-105.230672">
  <ele>1595.43</ele>
  <time>2026-08-28T19:10:49Z</time>
  <course>13.88</course>
  <speed>0.0</speed>
  <fix>3d</fix>
</trkpt>
<trkpt lat="40.0728103" lon="-105.2306718">
  <ele>1595.36</ele>
  <time>2026-08-28T19:10:49Z</time>
  <course>126.05</course>
  <speed>0.02</speed>
  <fix>3d</fix>
</trkpt>
<trkpt lat="40.0728104" lon="-105.230672">
  <ele>1595.43</ele>
  <time>2026-08-28T19:10:49Z</time>
  <course>13.99</course>
  <speed>0.0</speed>
  <fix>3d</fix>
</trkpt>
<trkpt lat="40.0728103" lon="-105.2306718">
  <ele>1595.36</ele>
  <time>2026-08-28T19:10:49Z</time>
  <course>122.17</course>
  <speed>0.03</speed>
  <fix>3d</fix>
</trkpt>
<trkpt lat="40.0728104" lon="-105.2306719">
  <ele>1595.43</ele>
  <time>2026-08-28T19:10:49Z</time>
  <course>14.0</course>
  <speed>0.01</speed>
  <fix>3d</fix>
</trkpt>
<trkpt lat="40.0728103" lon="-105.2306717">
  <ele>1595.36</ele>
  <time>2026-08-28T19:10:49Z</time>
  <course>120.19</course>
  <speed>0.02</speed>
  <fix>3d</fix>
</trkpt>
<trkpt lat="40.0728104" lon="-105.2306719">
  <ele>1595.43</ele>
  <time>2026-08-28T19:10:49Z</time>
  <course>13.87</course>
  <speed>0.0</speed>
  <fix>3d</fix>
</trkpt>
<trkpt lat="40.0728102" lon="-105.2306717">
  <ele>1595.37</ele>
  <time>2026-08-28T19:10:49Z</time>
  <course>130.06</course>
  <speed>0.02</speed>
  <fix>3d</fix>
</trkpt>
<trkpt lat="40.0728103" lon="-105.2306718">
  <ele>1595.42</ele>
  <time>2026-08-28T19:10:49Z</time>
  <course>13.95</course>
  <speed>0.0</speed>
  <fix>3d</fix>
</trkpt>
<trkpt lat="40.0728102" lon="-105.2306716">
  <ele>1595.37</ele>
  <time>2026-08-28T19:10:49Z</time>
  <course>130.92</course>
  <speed>0.02</speed>
  <fix>3d</fix>
</trkpt>
<trkpt lat="40.0728103" lon="-105.2306718">
  <ele>1595.42</ele>
  <time>2026-08-28T19:10:49Z</time>
  <course>14.01</course>
  <speed>0.01</speed>
  <fix>3d</fix>
</trkpt>
<trkpt lat="40.0728102" lon="-105.2306715">
  <ele>1595.37</ele>
  <time>2026-08-28T19:10:49Z</time>
  <course>123.81</course>
  <speed>0.03</speed>
  <fix>3d</fix>
</trkpt>
<trkpt lat="40.0728103" lon="-105.2306717">
  <ele>1595.42</ele>
  <time>2026-08-28T19:10:49Z</time>
  <course>13.9</course>
  <speed>0.0</speed>
  <fix>3d</fix>
</trkpt>
<trkpt lat="40.0728101" lon="-105.2306715">
  <ele>1595.37</ele>
  <time>2026-08-28T19:10:49Z</time>
  <course>127.01</course>
  <speed>0.02</speed>
  <fix>3d</fix>
</trkpt>
<trkpt lat="40.0728103" lon="-105.2306716">
  <ele>1595.42</ele>
  <time>2026-08-28T19:10:49Z</time>
  <course>13.86</course>
  <speed>0.0</speed>
  <fix>3d</fix>
</trkpt>
<trkpt lat="40.0728101" lon="-105.2306715">
  <ele>1595.37</ele>
  <time>2026-08-28T19:10:49Z</time>
  <course>136.39</course>
  <speed>0.02</speed>
  <fix>3d</fix>
</trkpt>
<trkpt lat="40.0728102" lon="-105.2306716">
  <ele>1595.42</ele>
  <time>2026-08-28T19:10:49Z</time>
  <course>13.94</course>
  <speed>0.01</speed>
  <fix>3d</fix>
</trkpt>
<trkpt lat="40.0728101" lon="-105.2306714">
  <ele>1595.37</ele>
  <time>2026-08-28T19:10:49Z</time>
  <course>132.42</course>
  <speed>0.03</speed>
  <fix>3d</fix>
</trkpt>
<trkpt lat="40.0728102" lon="-105.2306716">
  <ele>1595.42</ele>
  <time>2026-08-28T19:10:49Z</time>
  <course>13.8</course>
  <speed>0.02</speed>
  <fix>3d</fix>
</trkpt>
<trkpt lat="40.07281" lon="-105.2306713">
  <ele>1595.37</ele>
  <time>2026-08-28T19:10:49Z</time>
  <course>154.28</course>
  <speed>0.03</speed>
  <fix>3d</fix>
</trkpt>
<trkpt lat="40.0728101" lon="-105.2306715">
  <ele>1595.43</ele>
  <time>2026-08-28T19:10:49Z</time>
  <course>13.79</course>
  <speed>0.01</speed>
  <fix>3d</fix>
</trkpt>
<trkpt lat="40.0728099" lon="-105.2306713">
  <ele>1595.38</ele>
  <time>2026-08-28T19:10:49Z</time>
  <course>167.28</course>
  <speed>0.04</speed>
  <fix>3d</fix>
</trkpt>
<trkpt lat="40.07281" lon="-105.2306715">
  <ele>1595.43</ele>
  <time>2026-08-28T19:10:49Z</time>
  <course>13.78</course>
  <speed>0.01</speed>
  <fix>3d</fix>
</trkpt>
<trkpt lat="40.0728098" lon="-105.2306713">
  <ele>1595.38</ele>
  <time>2026-08-28T19:10:49Z</time>
  <course>154.98</course>
  <speed>0.04</speed>
  <fix>3d</fix>
</trkpt>
<trkpt lat="40.07281" lon="-105.2306714">
  <ele>1595.43</ele>
  <time>2026-08-28T19:10:49Z</time>
  <course>13.78</course>
  <speed>0.0</speed>
  <fix>3d</fix>
</trkpt>
<trkpt lat="40.0728098" lon="-105.2306713">
  <ele>1595.38</ele>
  <time>2026-08-28T19:10:49Z</time>
  <course>145.55</course>
  <speed>0.03</speed>
  <fix>3d</fix>
</trkpt>
<trkpt lat="40.0728099" lon="-105.2306714">
  <ele>1595.43</ele>
  <time>2026-08-28T19:10:49Z</time>
  <course>13.78</course>
  <speed>0.0</speed>
  <fix>3d</fix>
</trkpt>
<trkpt lat="40.0728098" lon="-105.2306712">
  <ele>1595.38</ele>
  <time>2026-08-28T19:10:49Z</time>
  <course>135.18</course>
  <speed>0.03</speed>
  <fix>3d</fix>
</trkpt>
<trkpt lat="40.0728099" lon="-105.2306713">
  <ele>1595.43</ele>
  <time>2026-08-28T19:10:49Z</time>
  <course>13.79</course>
  <speed>0.0</speed>
  <fix>3d</fix>
</trkpt>
<trkpt lat="40.0728097" lon="-105.2306711">
  <ele>1595.38</ele>
  <time>2026-08-28T19:10:49Z</time>
  <course>124.65</course>
  <speed>0.02</speed>
  <fix>3d</fix>
</trkpt>
<trkpt lat="40.0728099" lon="-105.2306713">
  <ele>1595.43</ele>
  <time>2026-08-28T19:10:49Z</time>
  <course>13.79</course>
  <speed>0.01414213562373095</speed>
  <fix>3d</fix>
</trkpt>
<trkpt lat="40.0728097" lon="-105.2306711">
  <ele>1595.38</ele>
  <time>2026-08-28T19:10:49Z</time>
  <course>114.99</course>
  <speed>0.02</speed>
  <fix>3d</fix>
</trkpt>
<trkpt lat="40.0728099" lon="-105.2306712">
  <ele>1595.43</ele>
  <time>2026-08-28T19:10:49Z</time>
  <course>13.79</course>
  <speed>0.01414213562373095</speed>
  <fix>3d</fix>
</trkpt>
<trkpt lat="40.0728097" lon="-105.2306711">
  <ele>1595.39</ele>
  <time>2026-08-28T19:10:49Z</time>
  <course>106.34</course>
  <speed>0.02</speed>
  <fix>3d</fix>
</trkpt>
<trkpt lat="40.0728099" lon="-105.2306711">
  <ele>1595.44</ele>
  <time>2026-08-28T19:10:49Z</time>
  <course>13.8</course>
  <speed>0.01414213562373095</speed>
  <fix>3d</fix>
</trkpt>
<trkpt lat="40.0728097" lon="-105.230671">
  <ele>1595.39</ele>
  <time>2026-08-28T19:10:49Z</time>
  <course>98.18</course>
  <speed>0.02</speed>
  <fix>3d</fix>
</trkpt>
<trkpt lat="40.0728099" lon="-105.2306711">
  <ele>1595.44</ele>
  <time>2026-08-28T19:10:49Z</time>
  <course>13.8</course>
  <speed>0.02</speed>
  <fix>3d</fix>
</trkpt>
<trkpt lat="40.0728097" lon="-105.230671">
  <ele>1595.39</ele>
  <time>2026-08-28T19:10:49Z</time>
  <course>91.38</course>
  <speed>0.02</speed>
  <fix>3d</fix>
</trkpt>
<trkpt lat="40.0728098" lon="-105.230671">
  <ele>1595.44</ele>
  <time>2026-08-28T19:10:49Z</time>
  <course>13.81</course>
  <speed>0.022360679774997897</speed>
  <fix>3d</fix>
</trkpt>
<trkpt lat="40.0728097" lon="-105.2306709">
  <ele>1595.38</ele>
  <time>2026-08-28T19:10:49Z</time>
  <course>86.54</course>
  <speed>0.02</speed>
  <fix>3d</fix>
</trkpt>
<trkpt lat="40.0728098" lon="-105.230671">
  <ele>1595.44</ele>
  <time>2026-08-28T19:10:49Z</time>
  <course>13.83</course>
  <speed>0.022360679774997897</speed>
  <fix>3d</fix>
</trkpt>
<trkpt lat="40.0728097" lon="-105.2306708">
  <ele>1595.38</ele>
  <time>2026-08-28T19:10:49Z</time>
  <course>83.57</course>
  <speed>0.02</speed>
  <fix>3d</fix>
</trkpt>
<trkpt lat="40.0728098" lon="-105.2306709">
  <ele>1595.44</ele>
  <time>2026-08-28T19:10:49Z</time>
  <course>13.82</course>
  <speed>0.022360679774997897</speed>
  <fix>3d</fix>
</trkpt>
<trkpt lat="40.0728097" lon="-105.2306708">
  <ele>1595.38</ele>
  <time>2026-08-28T19:10:49Z</time>
  <course>82.79</course>
  <speed>0.02</speed>
  <fix>3d</fix>
</trkpt>
<trkpt lat="40.0728098" lon="-105.2306709">
  <ele>1595.44</ele>
  <time>2026-08-28T19:10:49Z</time>
  <course>13.82</course>
  <speed>0.022360679774997897</speed>
  <fix>3d</fix>
</trkpt>
<trkpt lat="40.0728097" lon="-105.2306707">
  <ele>1595.38</ele>
  <time>2026-08-28T19:10:49Z</time>
  <course>82.87</course>
  <speed>0.02</speed>
  <fix>3d</fix>
</trkpt>
<trkpt lat="40.0728098" lon="-105.2306708">
  <ele>1595.44</ele>
  <time>2026-08-28T19:10:49Z</time>
  <course>13.82</course>
  <speed>0.022360679774997897</speed>
  <fix>3d</fix>
</trkpt>
<trkpt lat="40.0728097" lon="-105.2306706">
  <ele>1595.38</ele>
  <time>2026-08-28T19:10:49Z</time>
  <course>83.06</course>
  <speed>0.02</speed>
  <fix>3d</fix>
</trkpt>
<trkpt lat="40.0728098" lon="-105.2306707">
  <ele>1595.44</ele>
  <time>2026-08-28T19:10:49Z</time>
  <course>13.83</course>
  <speed>0.022360679774997897</speed>
  <fix>3d</fix>
</trkpt>
<trkpt lat="40.0728097" lon="-105.2306706">
  <ele>1595.37</ele>
  <time>2026-08-28T19:10:49Z</time>
  <course>83.9</course>
  <speed>0.02</speed>
  <fix>3d</fix>
</trkpt>
<trkpt lat="40.0728098" lon="-105.2306707">
  <ele>1595.44</ele>
  <time>2026-08-28T19:10:49Z</time>
  <course>13.81</course>
  <speed>0.0412310562561766</speed>
  <fix>3d</fix>
</trkpt>
<trkpt lat="40.0728097" lon="-105.2306705">
  <ele>1595.37</ele>
  <time>2026-08-28T19:10:49Z</time>
  <course>71.62</course>
  <speed>0.03</speed>
  <fix>3d</fix>
</trkpt>
<trkpt lat="40.0728099" lon="-105.2306706">
  <ele>1595.43</ele>
  <time>2026-08-28T19:10:49Z</time>
  <course>13.92</course>
  <speed>0.044721359549995794</speed>
  <fix>3d</fix>
</trkpt>
<trkpt lat="40.0728097" lon="-105.2306704">
  <ele>1595.37</ele>
  <time>2026-08-28T19:10:49Z</time>
  <course>60.79</course>
  <speed>0.04</speed>
  <fix>3d</fix>
</trkpt>
<trkpt lat="40.0728099" lon="-105.2306705">
  <ele>1595.43</ele>
  <time>2026-08-28T19:10:49Z</time>
  <course>13.97</course>
  <speed>0.044721359549995794</speed>
  <fix>3d</fix>
</trkpt>
<trkpt lat="40.0728097" lon="-105.2306703">
  <ele>1595.36</ele>
  <time>2026-08-28T19:10:49Z</time>
  <course>52.82</course>
  <speed>0.04</speed>
  <fix>3d</fix>
</trkpt>
<trkpt lat="40.0728099" lon="-105.2306704">
  <ele>1595.42</ele>
  <time>2026-08-28T19:10:49Z</time>
  <course>13.89</course>
  <speed>0.03</speed>
  <fix>3d</fix>
</trkpt>
<trkpt lat="40.0728098" lon="-105.2306703">
  <ele>1595.36</ele>
  <time>2026-08-28T19:10:49Z</time>
  <course>44.88</course>
  <speed>0.03</speed>
  <fix>3d</fix>
</trkpt>
<trkpt lat="40.07281" lon="-105.2306704">
  <ele>1595.42</ele>
  <time>2026-08-28T19:10:49Z</time>
  <course>13.99</course>
  <speed>0.02</speed>
  <fix>3d</fix>
</trkpt>
<trkpt lat="40.0728098" lon="-105.2306702">
  <ele>1595.36</ele>
  <time>2026-08-28T19:10:49Z</time>
  <course>64.11</course>
  <speed>0.02</speed>
  <fix>3d</fix>
</trkpt>
<trkpt lat="40.07281" lon="-105.2306703">
  <ele>1595.41</ele>
  <time>2026-08-28T19:10:49Z</time>
  <course>14.01</course>
  <speed>0.01414213562373095</speed>
  <fix>3d</fix>
</trkpt>
<trkpt lat="40.0728098" lon="-105.2306701">
  <ele>1595.36</ele>
  <time>2026-08-28T19:10:49Z</time>
  <course>77.63</course>
  <speed>0.02</speed>
  <fix>3d</fix>
</trkpt>
<trkpt lat="40.0728099" lon="-105.2306703">
  <ele>1595.42</ele>
  <time>2026-08-28T19:10:49Z</time>
  <course>13.85</course>
  <speed>0.01</speed>
  <fix>3d</fix>
</trkpt>
<trkpt lat="40.0728098" lon="-105.2306701">
  <ele>1595.36</ele>
  <time>2026-08-28T19:10:49Z</time>
  <course>87.95</course>
  <speed>0.01</speed>
  <fix>3d</fix>
</trkpt>
<trkpt lat="40.0728099" lon="-105.2306702">
  <ele>1595.43</ele>
  <time>2026-08-28T19:10:49Z</time>
  <course>13.94</course>
  <speed>0.0</speed>
  <fix>3d</fix>
</trkpt>
<trkpt lat="40.0728098" lon="-105.23067">
  <ele>1595.37</ele>
  <time>2026-08-28T19:10:49Z</time>
  <course>111.6</course>
  <speed>0.02</speed>
  <fix>3d</fix>
</trkpt>
<trkpt lat="40.0728099" lon="-105.2306702">
  <ele>1595.43</ele>
  <time>2026-08-28T19:10:49Z</time>
  <course>14.03</course>
  <speed>0.01</speed>
  <fix>3d</fix>
</trkpt>
<trkpt lat="40.0728098" lon="-105.2306699">
  <ele>1595.37</ele>
  <time>2026-08-28T19:10:49Z</time>
  <course>111.57</course>
  <speed>0.03</speed>
  <fix>3d</fix>
</trkpt>
<trkpt lat="40.0728099" lon="-105.2306701">
  <ele>1595.43</ele>
  <time>2026-08-28T19:10:49Z</time>
  <course>13.94</course>
  <speed>0.0</speed>
  <fix>3d</fix>
</trkpt>
<trkpt lat="40.0728098" lon="-105.2306699">
  <ele>1595.37</ele>
  <time>2026-08-28T19:10:49Z</time>
  <course>114.39</course>
  <speed>0.02</speed>
  <fix>3d</fix>
</trkpt>
<trkpt lat="40.0728099" lon="-105.23067">
  <ele>1595.43</ele>
  <time>2026-08-28T19:10:49Z</time>
  <course>13.93</course>
  <speed>0.0</speed>
  <fix>3d</fix>
</trkpt>
<trkpt lat="40.0728098" lon="-105.2306699">
  <ele>1595.37</ele>
  <time>2026-08-28T19:10:49Z</time>
  <course>126.25</course>
  <speed>0.02</speed>
  <fix>3d</fix>
</trkpt>
<trkpt lat="40.0728099" lon="-105.23067">
  <ele>1595.43</ele>
  <time>2026-08-28T19:10:49Z</time>
  <course>14.04</course>
  <speed>0.01</speed>
  <fix>3d</fix>
</trkpt>
<trkpt lat="40.0728098" lon="-105.2306698">
  <ele>1595.37</ele>
  <time>2026-08-28T19:10:49Z</time>
  <course>120.83</course>
  <speed>0.03</speed>
  <fix>3d</fix>
</trkpt>
<trkpt lat="40.0728099" lon="-105.2306699">
  <ele>1595.43</ele>
  <time>2026-08-28T19:10:49Z</time>
  <course>14.0</course>
  <speed>0.01</speed>
  <fix>3d</fix>
</trkpt>
<trkpt lat="40.0728098" lon="-105.2306698">
  <ele>1595.37</ele>
  <time>2026-08-28T19:10:49Z</time>
  <course>118.52</course>
  <speed>0.02</speed>
  <fix>3d</fix>
</trkpt>
<trkpt lat="40.0728099" lon="-105.2306699">
  <ele>1595.43</ele>
  <time>2026-08-28T19:10:49Z</time>
  <course>13.9</course>
  <speed>0.0</speed>
  <fix>3d</fix>
</trkpt>
<trkpt lat="40.0728098" lon="-105.2306697">
  <ele>1595.37</ele>
  <time>2026-08-28T19:10:49Z</time>
  <course>130.76</course>
  <speed>0.02</speed>
  <fix>3d</fix>
</trkpt>
<trkpt lat="40.0728099" lon="-105.2306698">
  <ele>1595.43</ele>
  <time>2026-08-28T19:10:49Z</time>
  <course>14.0</course>
  <speed>0.0</speed>
  <fix>3d</fix>
</trkpt>
<trkpt lat="40.0728097" lon="-105.2306696">
  <ele>1595.37</ele>
  <time>2026-08-28T19:10:49Z</time>
  <course>127.62</course>
  <speed>0.02</speed>
  <fix>3d</fix>
</trkpt>
<trkpt lat="40.0728098" lon="-105.2306698">
  <ele>1595.43</ele>
  <time>2026-08-28T19:10:49Z</time>
  <course>14.03</course>
  <speed>0.01</speed>
  <fix>3d</fix>
</trkpt>
<trkpt lat="40.0728097" lon="-105.2306696">
  <ele>1595.37</ele>
  <time>2026-08-28T19:10:49Z</time>
  <course>121.06</course>
  <speed>0.03</speed>
  <fix>3d</fix>
</trkpt>
<trkpt lat="40.0728098" lon="-105.2306697">
  <ele>1595.43</ele>
  <time>2026-08-28T19:10:49Z</time>
  <course>13.88</course>
  <speed>0.0</speed>
  <fix>3d</fix>
</trkpt>
<trkpt lat="40.0728097" lon="-105.2306696">
  <ele>1595.37</ele>
  <time>2026-08-28T19:10:49Z</time>
  <course>129.85</course>
  <speed>0.02</speed>
  <fix>3d</fix>
</trkpt>
<trkpt lat="40.0728098" lon="-105.2306697">
  <ele>1595.43</ele>
  <time>2026-08-28T19:10:49Z</time>
  <course>13.96</course>
  <speed>0.0</speed>
  <fix>3d</fix>
</trkpt>
<trkpt lat="40.0728097" lon="-105.2306695">
  <ele>1595.37</ele>
  <time>2026-08-28T19:10:49Z</time>
  <course>133.19</course>
  <speed>0.02</speed>
  <fix>3d</fix>
</trkpt>
<trkpt lat="40.0728098" lon="-105.2306696">
  <ele>1595.43</ele>
  <time>2026-08-28T19:10:49Z</time>
  <course>14.04</course>
  <speed>0.01</speed>
  <fix>3d</fix>
</trkpt>
<trkpt lat="40.0728096" lon="-105.2306694">
  <ele>1595.37</ele>
  <time>2026-08-28T19:10:49Z</time>
  <course>124.04</course>
  <speed>0.03</speed>
  <fix>3d</fix>
</trkpt>
<trkpt lat="40.0728097" lon="-105.2306696">
  <ele>1595.44</ele>
  <time>2026-08-28T19:10:49Z</time>
  <course>13.93</course>
  <speed>0.0</speed>
  <fix>3d</fix>
</trkpt>
<trkpt lat="40.0728096" lon="-105.2306694">
  <ele>1595.37</ele>
  <time>2026-08-28T19:10:49Z</time>
  <course>127.44</course>
  <speed>0.02</speed>
  <fix>3d</fix>
</trkpt>
<trkpt lat="40.0728097" lon="-105.2306695">
  <ele>1595.44</ele>
  <time>2026-08-28T19:10:49Z</time>
  <course>13.93</course>
  <speed>0.022360679774997897</speed>
  <fix>3d</fix>
</trkpt>
<trkpt lat="40.0728096" lon="-105.2306694">
  <ele>1595.37</ele>
  <time>2026-08-28T19:10:49Z</time>
  <course>148.69</course>
  <speed>0.02</speed>
  <fix>3d</fix>
</trkpt>
<trkpt lat="40.0728096" lon="-105.2306695">
  <ele>1595.44</ele>
  <time>2026-08-28T19:10:49Z</time>
  <course>13.86</course>
  <speed>0.02</speed>
  <fix>3d</fix>
</trkpt>
<trkpt lat="40.0728095" lon="-105.2306693">
  <ele>1595.37</ele>
  <time>2026-08-28T19:10:49Z</time>
  <course>159.92</course>
  <speed>0.04</speed>
  <fix>3d</fix>
</trkpt>
<trkpt lat="40.0728096" lon="-105.2306695">
  <ele>1595.44</ele>
  <time>2026-08-28T19:10:49Z</time>
  <course>13.8</course>
  <speed>0.01</speed>
  <fix>3d</fix>
</trkpt>
<trkpt lat="40.0728094" lon="-105.2306692">
  <ele>1595.37</ele>
  <time>2026-08-28T19:10:49Z</time>
  <course>162.85</course>
  <speed>0.04</speed>
  <fix>3d</fix>
</trkpt>
<trkpt lat="40.0728095" lon="-105.2306694">
  <ele>1595.44</ele>
  <time>2026-08-28T19:10:49Z</time>
  <course>13.8</course>
  <speed>0.01</speed>
  <fix>3d</fix>
</trkpt>
<trkpt lat="40.0728093" lon="-105.2306692">
  <ele>1595.37</ele>
  <time>2026-08-28T19:10:49Z</time>
  <course>152.88</course>
  <speed>0.04</speed>
  <fix>3d</fix>
</trkpt>
<trkpt lat="40.0728094" lon="-105.2306694">
  <ele>1595.44</ele>
  <time>2026-08-28T19:10:49Z</time>
  <course>13.8</course>
  <speed>0.0</speed>
  <fix>3d</fix>
</trkpt>
<trkpt lat="40.0728092" lon="-105.2306692">
  <ele>1595.36</ele>
  <time>2026-08-28T19:10:49Z</time>
  <course>141.97</course>
  <speed>0.03</speed>
  <fix>3d</fix>
</trkpt>
<trkpt lat="40.0728094" lon="-105.2306693">
  <ele>1595.43</ele>
  <time>2026-08-28T19:10:49Z</time>
  <course>13.79</course>
  <speed>0.01</speed>
  <fix>3d</fix>
</trkpt>
<trkpt lat="40.0728092" lon="-105.2306691">
  <ele>1595.36</ele>
  <time>2026-08-28T19:10:49Z</time>
  <course>132.5</course>
  <speed>0.03</speed>
  <fix>3d</fix>
</trkpt>
<trkpt lat="40.0728094" lon="-105.2306692">
  <ele>1595.43</ele>
  <time>2026-08-28T19:10:49Z</time>
  <course>13.8</course>
  <speed>0.01</speed>
  <fix>3d</fix>
</trkpt>
<trkpt lat="40.0728091" lon="-105.2306691">
  <ele>1595.36</ele>
  <time>2026-08-28T19:10:49Z</time>
  <course>123.18</course>
  <speed>0.03</speed>
  <fix>3d</fix>
</trkpt>
<trkpt lat="40.0728093" lon="-105.2306692">
  <ele>1595.43</ele>
  <time>2026-08-28T19:10:49Z</time>
  <course>13.79</course>
  <speed>0.01</speed>
  <fix>3d</fix>
</trkpt>
<trkpt lat="40.0728091" lon="-105.230669">
  <ele>1595.36</ele>
  <time>2026-08-28T19:10:49Z</time>
  <course>115.16</course>
  <speed>0.02</speed>
  <fix>3d</fix>
</trkpt>
<trkpt lat="40.0728093" lon="-105.2306691">
  <ele>1595.43</ele>
  <time>2026-08-28T19:10:49Z</time>
  <course>13.79</course>
  <speed>0.01414213562373095</speed>
  <fix>3d</fix>
</trkpt>
<trkpt lat="40.0728091" lon="-105.2306689">
  <ele>1595.36</ele>
  <time>2026-08-28T19:10:49Z</time>
  <course>107.87</course>
  <speed>0.02</speed>
  <fix>3d</fix>
</trkpt>
<trkpt lat="40.0728093" lon="-105.230669">
  <ele>1595.43</ele>
  <time>2026-08-28T19:10:49Z</time>
  <course>13.79</course>
  <speed>0.01414213562373095</speed>
  <fix>3d</fix>
</trkpt>
<trkpt lat="40.0728091" lon="-105.2306689">
  <ele>1595.36</ele>
  <time>2026-08-28T19:10:49Z</time>
  <course>100.56</course>
  <speed>0.02</speed>
  <fix>3d</fix>
</trkpt>
<trkpt lat="40.0728093" lon="-105.230669">
  <ele>1595.44</ele>
  <time>2026-08-28T19:10:49Z</time>
  <course>13.79</course>
  <speed>0.01414213562373095</speed>
  <fix>3d</fix>
</trkpt>
<trkpt lat="40.0728091" lon="-105.2306688">
  <ele>1595.36</ele>
  <time>2026-08-28T19:10:49Z</time>
  <course>94.14</course>
  <speed>0.02</speed>
  <fix>3d</fix>
</trkpt>
<trkpt lat="40.0728093" lon="-105.2306689">
  <ele>1595.44</ele>
  <time>2026-08-28T19:10:49Z</time>
  <course>13.82</course>
  <speed>0.022360679774997897</speed>
  <fix>3d</fix>
</trkpt>
<trkpt lat="40.0728091" lon="-105.2306687">
  <ele>1595.35</ele>
  <time>2026-08-28T19:10:49Z</time>
  <course>89.28</course>
  <speed>0.02</speed>
  <fix>3d</fix>
</trkpt>
<trkpt lat="40.0728093" lon="-105.2306688">
  <ele>1595.44</ele>
  <time>2026-08-28T19:10:49Z</time>
  <course>13.81</course>
  <speed>0.022360679774997897</speed>
  <fix>3d</fix>
</trkpt>
<trkpt lat="40.0728091" lon="-105.2306687">
  <ele>1595.35</ele>
  <time>2026-08-28T19:10:49Z</time>
  <course>86.48</course>
  <speed>0.02</speed>
  <fix>3d</fix>
</trkpt>
<trkpt lat="40.0728093" lon="-105.2306688">
  <ele>1595.44</ele>
  <time>2026-08-28T19:10:49Z</time>
  <course>13.83</course>
  <speed>0.022360679774997897</speed>
  <fix>3d</fix>
</trkpt>
<trkpt lat="40.0728091" lon="-105.2306686">
  <ele>1595.35</ele>
  <time>2026-08-28T19:10:49Z</time>
  <course>85.47</course>
  <speed>0.02</speed>
  <fix>3d</fix>
</trkpt>
<trkpt lat="40.0728093" lon="-105.2306687">
  <ele>1595.44</ele>
  <time>2026-08-28T19:10:49Z</time>
  <course>13.82</course>
  <speed>0.022360679774997897</speed>
  <fix>3d</fix>
</trkpt>
<trkpt lat="40.0728091" lon="-105.2306686">
  <ele>1595.35</ele>
  <time>2026-08-28T19:10:49Z</time>
  <course>85.27</course>
  <speed>0.02</speed>
  <fix>3d</fix>
</trkpt>
<trkpt lat="40.0728093" lon="-105.2306686">
  <ele>1595.44</ele>
  <time>2026-08-28T19:10:49Z</time>
  <course>13.81</course>
  <speed>0.022360679774997897</speed>
  <fix>3d</fix>
</trkpt>
<trkpt lat="40.0728091" lon="-105.2306685">
  <ele>1595.34</ele>
  <time>2026-08-28T19:10:49Z</time>
  <course>85.52</course>
  <speed>0.02</speed>
  <fix>3d</fix>
</trkpt>
<trkpt lat="40.0728093" lon="-105.2306686">
  <ele>1595.43</ele>
  <time>2026-08-28T19:10:49Z</time>
  <course>13.82</course>
  <speed>0.022360679774997897</speed>
  <fix>3d</fix>
</trkpt>
<trkpt lat="40.0728091" lon="-105.2306684">
  <ele>1595.34</ele>
  <time>2026-08-28T19:10:49Z</time>
  <course>84.93</course>
  <speed>0.03</speed>
  <fix>3d</fix>
</trkpt>
<trkpt lat="40.0728093" lon="-105.2306685">
  <ele>1595.44</ele>
  <time>2026-08-28T19:10:49Z</time>
  <course>13.86</course>
  <speed>0.05</speed>
  <fix>3d</fix>
</trkpt>
<trkpt lat="40.0728091" lon="-105.2306683">
  <ele>1595.34</ele>
  <time>2026-08-28T19:10:49Z</time>
  <course>65.15</course>
  <speed>0.03</speed>
  <fix>3d</fix>
</trkpt>
<trkpt lat="40.0728093" lon="-105.2306684">
  <ele>1595.44</ele>
  <time>2026-08-28T19:10:49Z</time>
  <course>13.85</course>
  <speed>0.05099019513592785</speed>
  <fix>3d</fix>
</trkpt>
<trkpt lat="40.0728091" lon="-105.2306682">
  <ele>1595.34</ele>
  <time>2026-08-28T19:10:49Z</time>
  <course>51.22</course>
  <speed>0.04</speed>
  <fix>3d</fix>
</trkpt>
<trkpt lat="40.0728093" lon="-105.2306683">
  <ele>1595.43</ele>
  <time>2026-08-28T19:10:49Z</time>
  <course>13.99</course>
  <speed>0.0316227766016838</speed>
  <fix>3d</fix>
</trkpt>
<trkpt lat="40.0728091" lon="-105.2306682">
  <ele>1595.33</ele>
  <time>2026-08-28T19:10:49Z</time>
  <course>54.45</course>
  <speed>0.04</speed>
  <fix>3d</fix>
</trkpt>
<trkpt lat="40.0728094" lon="-105.2306683">
  <ele>1595.43</ele>
  <time>2026-08-28T19:10:49Z</time>
  <course>14.04</course>
  <speed>0.022360679774997897</speed>
  <fix>3d</fix>
</trkpt>
<trkpt lat="40.0728091" lon="-105.2306681">
  <ele>1595.33</ele>
  <time>2026-08-28T19:10:49Z</time>
  <course>59.97</course>
  <speed>0.03</speed>
  <fix>3d</fix>
</trkpt>
<trkpt lat="40.0728094" lon="-105.2306682">
  <ele>1595.43</ele>
  <time>2026-08-28T19:10:49Z</time>
  <course>13.92</course>
  <speed>0.02</speed>
  <fix>3d</fix>
</trkpt>
<trkpt lat="40.0728092" lon="-105.230668">
  <ele>1595.33</ele>
  <time>2026-08-28T19:10:49Z</time>
  <course>59.65</course>
  <speed>0.02</speed>
  <fix>3d</fix>
</trkpt>
<trkpt lat="40.0728093" lon="-105.2306681">
  <ele>1595.43</ele>
  <time>2026-08-28T19:10:49Z</time>
  <course>13.93</course>
  <speed>0.01</speed>
  <fix>3d</fix>
</trkpt>
<trkpt lat="40.0728092" lon="-105.230668">
  <ele>1595.33</ele>
  <time>2026-08-28T19:10:49Z</time>
  <course>81.58</course>
  <speed>0.02</speed>
  <fix>3d</fix>
</trkpt>
<trkpt lat="40.0728093" lon="-105.2306681">
  <ele>1595.43</ele>
  <time>2026-08-28T19:10:49Z</time>
  <course>14.01</course>
  <speed>0.01</speed>
  <fix>3d</fix>
</trkpt>
<trkpt lat="40.0728092" lon="-105.2306679">
  <ele>1595.33</ele>
  <time>2026-08-28T19:10:49Z</time>
  <course>98.9</course>
  <speed>0.02</speed>
  <fix>3d</fix>
</trkpt>
<trkpt lat="40.0728093" lon="-105.230668">
  <ele>1595.43</ele>
  <time>2026-08-28T19:10:49Z</time>
  <course>13.99</course>
  <speed>0.01</speed>
  <fix>3d</fix>
</trkpt>
<trkpt lat="40.0728092" lon="-105.2306679">
  <ele>1595.33</ele>
  <time>2026-08-28T19:10:49Z</time>
  <course>101.79</course>
  <speed>0.02</speed>
  <fix>3d</fix>
</trkpt>
<trkpt lat="40.0728093" lon="-105.230668">
  <ele>1595.43</ele>
  <time>2026-08-28T19:10:49Z</time>
  <course>13.87</course>
  <speed>0.01</speed>
  <fix>3d</fix>
</trkpt>
<trkpt lat="40.0728092" lon="-105.2306678">
  <ele>1595.33</ele>
  <time>2026-08-28T19:10:49Z</time>
  <course>110.33</course>
  <speed>0.02</speed>
  <fix>3d</fix>
</trkpt>
<trkpt lat="40.0728093" lon="-105.2306679">
  <ele>1595.43</ele>
  <time>2026-08-28T19:10:49Z</time>
  <course>13.95</course>
  <speed>0.0</speed>
  <fix>3d</fix>
</trkpt>
<trkpt lat="40.0728092" lon="-105.2306677">
  <ele>1595.32</ele>
  <time>2026-08-28T19:10:49Z</time>
  <course>116.35</course>
  <speed>0.02</speed>
  <fix>3d</fix>
</trkpt>
<trkpt lat="40.0728093" lon="-105.2306679">
  <ele>1595.42</ele>
  <time>2026-08-28T19:10:49Z</time>
  <course>14.01</course>
  <speed>0.01</speed>
  <fix>3d</fix>
</trkpt>
<trkpt lat="40.0728092" lon="-105.2306677">
  <ele>1595.32</ele>
  <time>2026-08-28T19:10:49Z</time>
  <course>113.75</course>
  <speed>0.03</speed>
  <fix>3d</fix>
</trkpt>
<trkpt lat="40.0728093" lon="-105.2306678">
  <ele>1595.42</ele>
  <time>2026-08-28T19:10:49Z</time>
  <course>13.92</course>
  <speed>0.0</speed>
  <fix>3d</fix>
</trkpt>
<trkpt lat="40.0728092" lon="-105.2306676">
  <ele>1595.32</ele>
  <time>2026-08-28T19:10:49Z</time>
  <course>116.23</course>
  <speed>0.02</speed>
  <fix>3d</fix>
</trkpt>
<trkpt lat="40.0728093" lon="-105.2306677">
  <ele>1595.42</ele>
  <time>2026-08-28T19:10:49Z</time>
  <course>13.87</course>
  <speed>0.0</speed>
  <fix>3d</fix>
</trkpt>
<trkpt lat="40.0728092" lon="-105.2306675">
  <ele>1595.32</ele>
  <time>2026-08-28T19:10:49Z</time>
  <course>125.54</course>
  <speed>0.02</speed>
  <fix>3d</fix>
</trkpt>
<trkpt lat="40.0728093" lon="-105.2306677">
  <ele>1595.41</ele>
  <time>2026-08-28T19:10:49Z</time>
  <course>13.96</course>
  <speed>0.0</speed>
  <fix>3d</fix>
</trkpt>
<trkpt lat="40.0728091" lon="-105.2306675">
  <ele>1595.32</ele>
  <time>2026-08-28T19:10:49Z</time>
  <course>122.62</course>
  <speed>0.03</speed>
  <fix>3d</fix>
</trkpt>
<trkpt lat="40.0728093" lon="-105.2306676">
  <ele>1595.41</ele>
  <time>2026-08-28T19:10:49Z</time>
  <course>13.97</course>
  <speed>0.01</speed>
  <fix>3d</fix>
</trkpt>
<trkpt lat="40.0728091" lon="-105.2306675">
  <ele>1595.32</ele>
  <time>2026-08-28T19:10:49Z</time>
  <course>119.36</course>
  <speed>0.03</speed>
  <fix>3d</fix>
</trkpt>
<trkpt lat="40.0728092" lon="-105.2306676">
  <ele>1595.41</ele>
  <time>2026-08-28T19:10:49Z</time>
  <course>13.83</course>
  <speed>0.0</speed>
  <fix>3d</fix>
</trkpt>
<trkpt lat="40.0728091" lon="-105.2306674">
  <ele>1595.33</ele>
  <time>2026-08-28T19:10:49Z</time>
  <course>126.69</course>
  <speed>0.02</speed>
  <fix>3d</fix>
</trkpt>
<trkpt lat="40.0728092" lon="-105.2306675">
  <ele>1595.41</ele>
  <time>2026-08-28T19:10:49Z</time>
  <course>13.88</course>
  <speed>0.0</speed>
  <fix>3d</fix>
</trkpt>
<trkpt lat="40.0728091" lon="-105.2306674">
  <ele>1595.33</ele>
  <time>2026-08-28T19:10:49Z</time>
  <course>131.65</course>
  <speed>0.02</speed>
  <fix>3d</fix>
</trkpt>
<trkpt lat="40.0728092" lon="-105.2306675">
  <ele>1595.42</ele>
  <time>2026-08-28T19:10:49Z</time>
  <course>13.96</course>
  <speed>0.0</speed>
  <fix>3d</fix>
</trkpt>
<trkpt lat="40.0728091" lon="-105.2306673">
  <ele>1595.33</ele>
  <time>2026-08-28T19:10:49Z</time>
  <course>125.05</course>
  <speed>0.03</speed>
  <fix>3d</fix>
</trkpt>
<trkpt lat="40.0728092" lon="-105.2306674">
  <ele>1595.42</ele>
  <time>2026-08-28T19:10:49Z</time>
  <course>13.93</course>
  <speed>0.0</speed>
  <fix>3d</fix>
</trkpt>
<trkpt lat="40.0728091" lon="-105.2306672">
  <ele>1595.34</ele>
  <time>2026-08-28T19:10:49Z</time>
  <course>125.54</course>
  <speed>0.02</speed>
  <fix>3d</fix>
</trkpt>
<trkpt lat="40.0728091" lon="-105.2306674">
  <ele>1595.42</ele>
  <time>2026-08-28T19:10:49Z</time>
  <course>13.84</course>
  <speed>0.022360679774997897</speed>
  <fix>3d</fix>
</trkpt>
<trkpt lat="40.072809" lon="-105.2306672">
  <ele>1595.34</ele>
  <time>2026-08-28T19:10:49Z</time>
  <course>153.82</course>
  <speed>0.02</speed>
  <fix>3d</fix>
</trkpt>
<trkpt lat="40.0728091" lon="-105.2306674">
  <ele>1595.43</ele>
  <time>2026-08-28T19:10:49Z</time>
  <course>13.83</course>
  <speed>0.01</speed>
  <fix>3d</fix>
</trkpt>
<trkpt lat="40.072809" lon="-105.2306672">
  <ele>1595.34</ele>
  <time>2026-08-28T19:10:49Z</time>
  <course>163.8</course>
  <speed>0.04</speed>
  <fix>3d</fix>
</trkpt>
<trkpt lat="40.072809" lon="-105.2306673">
  <ele>1595.42</ele>
  <time>2026-08-28T19:10:49Z</time>
  <course>13.78</course>
  <speed>0.01</speed>
  <fix>3d</fix>
</trkpt>
<trkpt lat="40.0728089" lon="-105.2306672">
  <ele>1595.34</ele>
  <time>2026-08-28T19:10:49Z</time>
  <course>159.95</course>
  <speed>0.04</speed>
  <fix>3d</fix>
</trkpt>
<trkpt lat="40.0728089" lon="-105.2306673">
  <ele>1595.42</ele>
  <time>2026-08-28T19:10:49Z</time>
  <course>13.77</course>
  <speed>0.0</speed>
  <fix>3d</fix>
</trkpt>
<trkpt lat="40.0728088" lon="-105.2306671">
  <ele>1595.35</ele>
  <time>2026-08-28T19:10:49Z</time>
  <course>150.91</course>
  <speed>0.03</speed>
  <fix>3d</fix>
</trkpt>
<trkpt lat="40.0728089" lon="-105.2306672">
  <ele>1595.42</ele>
  <time>2026-08-28T19:10:49Z</time>
  <course>13.76</course>
  <speed>0.0</speed>
  <fix>3d</fix>
</trkpt>
<trkpt lat="40.0728088" lon="-105.230667">
  <ele>1595.35</ele>
  <time>2026-08-28T19:10:49Z</time>
  <course>139.28</course>
  <speed>0.03</speed>
  <fix>3d</fix>
</trkpt>
<trkpt lat="40.0728089" lon="-105.2306672">
  <ele>1595.42</ele>
  <time>2026-08-28T19:10:49Z</time>
  <course>13.77</course>
  <speed>0.0</speed>
  <fix>3d</fix>
</trkpt>
<trkpt lat="40.0728087" lon="-105.230667">
  <ele>1595.35</ele>
  <time>2026-08-28T19:10:49Z</time>
  <course>129.44</course>
  <speed>0.03</speed>
  <fix>3d</fix>
</trkpt>
<trkpt lat="40.0728089" lon="-105.2306671">
  <ele>1595.43</ele>
  <time>2026-08-28T19:10:49Z</time>
  <course>13.78</course>
  <speed>0.01414213562373095</speed>
  <fix>3d</fix>
</trkpt>
<trkpt lat="40.0728086" lon="-105.230667">
  <ele>1595.35</ele>
  <time>2026-08-28T19:10:49Z</time>
  <course>119.19</course>
  <speed>0.02</speed>
  <fix>3d</fix>
</trkpt>
<trkpt lat="40.0728088" lon="-105.2306671">
  <ele>1595.44</ele>
  <time>2026-08-28T19:10:49Z</time>
  <course>13.79</course>
  <speed>0.01414213562373095</speed>
  <fix>3d</fix>
</trkpt>
<trkpt lat="40.0728086" lon="-105.2306669">
  <ele>1595.35</ele>
  <time>2026-08-28T19:10:50Z</time>
  <course>109.21</course>
  <speed>0.02</speed>
  <fix>3d</fix>
</trkpt>
<trkpt lat="40.0728088" lon="-105.230667">
  <ele>1595.44</ele>
  <time>2026-08-28T19:10:50Z</time>
  <course>13.8</course>
  <speed>0.01414213562373095</speed>
  <fix>3d</fix>
</trkpt>
<trkpt lat="40.0728086" lon="-105.2306668">
  <ele>1595.35</ele>
  <time>2026-08-28T19:10:50Z</time>
  <course>100.3</course>
  <speed>0.02</speed>
  <fix>3d</fix>
</trkpt>
<trkpt lat="40.0728088" lon="-105.2306669">
  <ele>1595.45</ele>
  <time>2026-08-28T19:10:50Z</time>
  <course>13.83</course>
  <speed>0.022360679774997897</speed>
  <fix>3d</fix>
</trkpt>
<trkpt lat="40.0728086" lon="-105.2306668">
  <ele>1595.35</ele>
  <time>2026-08-28T19:10:50Z</time>
  <course>93.49</course>
  <speed>0.02</speed>
  <fix>3d</fix>
</trkpt>
<trkpt lat="40.0728088" lon="-105.2306669">
  <ele>1595.45</ele>
  <time>2026-08-28T19:10:50Z</time>
  <course>13.83</course>
  <speed>0.022360679774997897</speed>
  <fix>3d</fix>
</trkpt>
<trkpt lat="40.0728086" lon="-105.2306667">
  <ele>1595.35</ele>
  <time>2026-08-28T19:10:50Z</time>
  <course>89.65</course>
  <speed>0.02</speed>
  <fix>3d</fix>
</trkpt>
<trkpt lat="40.0728088" lon="-105.2306668">
  <ele>1595.45</ele>
  <time>2026-08-28T19:10:50Z</time>
  <course>13.83</course>
  <speed>0.022360679774997897</speed>
  <fix>3d</fix>
</trkpt>
<trkpt lat="40.0728086" lon="-105.2306666">
  <ele>1595.35</ele>
  <time>2026-08-28T19:10:50Z</time>
  <course>87.8</course>
  <speed>0.02</speed>
  <fix>3d</fix>
</trkpt>
<trkpt lat="40.0728088" lon="-105.2306667">
  <ele>1595.44</ele>
  <time>2026-08-28T19:10:50Z</time>
  <course>13.82</course>
  <speed>0.022360679774997897</speed>
  <fix>3d</fix>
</trkpt>
<trkpt lat="40.0728086" lon="-105.2306665">
  <ele>1595.35</ele>
  <time>2026-08-28T19:10:50Z</time>
  <course>86.63</course>
  <speed>0.02</speed>
  <fix>3d</fix>
</trkpt>
<trkpt lat="40.0728088" lon="-105.2306667">
  <ele>1595.44</ele>
  <time>2026-08-28T19:10:50Z</time>
  <course>13.83</course>
  <speed>0.022360679774997897</speed>
  <fix>3d</fix>
</trkpt>
<trkpt lat="40.0728086" lon="-105.2306665">
  <ele>1595.34</ele>
  <time>2026-08-28T19:10:50Z</time>
  <course>86.33</course>
  <speed>0.02</speed>
  <fix>3d</fix>
</trkpt>
<trkpt lat="40.0728088" lon="-105.2306666">
  <ele>1595.44</ele>
  <time>2026-08-28T19:10:50Z</time>
  <course>13.82</course>
  <speed>0.022360679774997897</speed>
  <fix>3d</fix>
</trkpt>
<trkpt lat="40.0728086" lon="-105.2306664">
  <ele>1595.34</ele>
  <time>2026-08-28T19:10:50Z</time>
  <course>86.46</course>
  <speed>0.02</speed>
  <fix>3d</fix>
</trkpt>
<trkpt lat="40.0728088" lon="-105.2306665">
  <ele>1595.44</ele>
  <time>2026-08-28T19:10:50Z</time>
  <course>13.8</course>
  <speed>0.022360679774997897</speed>
  <fix>3d</fix>
</trkpt>
<trkpt lat="40.0728086" lon="-105.2306663">
  <ele>1595.34</ele>
  <time>2026-08-28T19:10:50Z</time>
  <course>86.83</course>
  <speed>0.02</speed>
  <fix>3d</fix>
</trkpt>
<trkpt lat="40.0728088" lon="-105.2306665">
  <ele>1595.44</ele>
  <time>2026-08-28T19:10:50Z</time>
  <course>13.83</course>
  <speed>0.0316227766016838</speed>
  <fix>3d</fix>
</trkpt>
<trkpt lat="40.0728086" lon="-105.2306663">
  <ele>1595.33</ele>
  <time>2026-08-28T19:10:50Z</time>
  <course>84.29</course>
  <speed>0.03</speed>
  <fix>3d</fix>
</trkpt>
<trkpt lat="40.0728088" lon="-105.2306664">
  <ele>1595.43</ele>
  <time>2026-08-28T19:10:50Z</time>
  <course>13.91</course>
  <speed>0.05</speed>
  <fix>3d</fix>
</trkpt>
<trkpt lat="40.0728086" lon="-105.2306662">
  <ele>1595.33</ele>
  <time>2026-08-28T19:10:50Z</time>
  <course>65.17</course>
  <speed>0.04</speed>
  <fix>3d</fix>
</trkpt>
<trkpt lat="40.0728088" lon="-105.2306663">
  <ele>1595.43</ele>
  <time>2026-08-28T19:10:50Z</time>
  <course>13.85</course>
  <speed>0.05099019513592785</speed>
  <fix>3d</fix>
</trkpt>
<trkpt lat="40.0728086" lon="-105.2306661">
  <ele>1595.33</ele>
  <time>2026-08-28T19:10:50Z</time>
  <course>50.69</course>
  <speed>0.04</speed>
  <fix>3d</fix>
</trkpt>
<trkpt lat="40.0728088" lon="-105.2306662">
  <ele>1595.42</ele>
  <time>2026-08-28T19:10:50Z</time>
  <course>13.95</course>
  <speed>0.03</speed>
  <fix>3d</fix>
</trkpt>
<trkpt lat="40.0728086" lon="-105.230666">
  <ele>1595.32</ele>
  <time>2026-08-28T19:10:50Z</time>
  <course>52.58</course>
  <speed>0.04</speed>
  <fix>3d</fix>
</trkpt>
<trkpt lat="40.0728089" lon="-105.2306661">
  <ele>1595.43</ele>
  <time>2026-08-28T19:10:50Z</time>
  <course>14.02</course>
  <speed>0.022360679774997897</speed>
  <fix>3d</fix>
</trkpt>
<trkpt lat="40.0728087" lon="-105.230666">
  <ele>1595.32</ele>
  <time>2026-08-28T19:10:50Z</time>
  <course>62.59</course>
  <speed>0.03</speed>
  <fix>3d</fix>
</trkpt>
<trkpt lat="40.0728089" lon="-105.2306661">
  <ele>1595.42</ele>
  <time>2026-08-28T19:10:50Z</time>
  <course>13.93</course>
  <speed>0.02</speed>
  <fix>3d</fix>
</trkpt>
<trkpt lat="40.0728088" lon="-105.2306659">
  <ele>1595.32</ele>
  <time>2026-08-28T19:10:50Z</time>
  <course>62.93</course>
  <speed>0.02</speed>
  <fix>3d</fix>
</trkpt>
<trkpt lat="40.0728089" lon="-105.230666">
  <ele>1595.43</ele>
  <time>2026-08-28T19:10:50Z</time>
  <course>13.91</course>
  <speed>0.01</speed>
  <fix>3d</fix>
</trkpt>
<trkpt lat="40.0728088" lon="-105.2306658">
  <ele>1595.32</ele>
  <time>2026-08-28T19:10:50Z</time>
  <course>85.71</course>
  <speed>0.01</speed>
  <fix>3d</fix>
</trkpt>
<trkpt lat="40.0728088" lon="-105.230666">
  <ele>1595.43</ele>
  <time>2026-08-28T19:10:50Z</time>
  <course>14.01</course>
  <speed>0.01</speed>
  <fix>3d</fix>
</trkpt>
<trkpt lat="40.0728088" lon="-105.2306658">
  <ele>1595.33</ele>
  <time>2026-08-28T19:10:50Z</time>
  <course>102.66</course>
  <speed>0.02</speed>
  <fix>3d</fix>
</trkpt>
<trkpt lat="40.0728088" lon="-105.2306659">
  <ele>1595.43</ele>
  <time>2026-08-28T19:10:50Z</time>
  <course>14.0</course>
  <speed>0.01</speed>
  <fix>3d</fix>
</trkpt>
<trkpt lat="40.0728088" lon="-105.2306658">
  <ele>1595.33</ele>
  <time>2026-08-28T19:10:50Z</time>
  <course>104.43</course>
  <speed>0.02</speed>
  <fix>3d</fix>
</trkpt>
<trkpt lat="40.0728088" lon="-105.2306659">
  <ele>1595.43</ele>
  <time>2026-08-28T19:10:50Z</time>
  <course>13.89</course>
  <speed>0.01</speed>
  <fix>3d</fix>
</trkpt>
<trkpt lat="40.0728088" lon="-105.2306657">
  <ele>1595.33</ele>
  <time>2026-08-28T19:10:50Z</time>
  <course>115.94</course>
  <speed>0.02</speed>
  <fix>3d</fix>
</trkpt>
<trkpt lat="40.0728088" lon="-105.2306658">
  <ele>1595.43</ele>
  <time>2026-08-28T19:10:50Z</time>
  <course>14.0</course>
  <speed>0.0</speed>
  <fix>3d</fix>
</trkpt>
<trkpt lat="40.0728088" lon="-105.2306656">
  <ele>1595.33</ele>
  <time>2026-08-28T19:10:50Z</time>
  <course>119.41</course>
  <speed>0.02</speed>
  <fix>3d</fix>
</trkpt>
<trkpt lat="40.0728088" lon="-105.2306658">
  <ele>1595.43</ele>
  <time>2026-08-28T19:10:50Z</time>
  <course>14.04</course>
  <speed>0.01</speed>
  <fix>3d</fix>
</trkpt>
<trkpt lat="40.0728088" lon="-105.2306656">
  <ele>1595.33</ele>
  <time>2026-08-28T19:10:50Z</time>
  <course>114.73</course>
  <speed>0.03</speed>
  <fix>3d</fix>
</trkpt>
<trkpt lat="40.0728088" lon="-105.2306657">
  <ele>1595.43</ele>
  <time>2026-08-28T19:10:50Z</time>
  <course>13.9</course>
  <speed>0.0</speed>
  <fix>3d</fix>
</trkpt>
<trkpt lat="40.0728088" lon="-105.2306655">
  <ele>1595.32</ele>
  <time>2026-08-28T19:10:50Z</time>
  <course>120.28</course>
  <speed>0.02</speed>
  <fix>3d</fix>
</trkpt>
<trkpt lat="40.0728088" lon="-105.2306656">
  <ele>1595.43</ele>
  <time>2026-08-28T19:10:50Z</time>
  <course>13.94</course>
  <speed>0.0</speed>
  <fix>3d</fix>
</trkpt>
<trkpt lat="40.0728088" lon="-105.2306655">
  <ele>1595.32</ele>
  <time>2026-08-28T19:10:50Z</time>
  <course>127.53</course>
  <speed>0.02</speed>
  <fix>3d</fix>
</trkpt>
<trkpt lat="40.0728088" lon="-105.2306656">
  <ele>1595.43</ele>
  <time>2026-08-28T19:10:50Z</time>
  <course>14.02</course>
  <speed>0.01</speed>
  <fix>3d</fix>
</trkpt>
<trkpt lat="40.0728087" lon="-105.2306654">
  <ele>1595.32</ele>
  <time>2026-08-28T19:10:50Z</time>
  <course>120.72</course>
  <speed>0.03</speed>
  <fix>3d</fix>
</trkpt>
<trkpt lat="40.0728088" lon="-105.2306655">
  <ele>1595.43</ele>
  <time>2026-08-28T19:10:50Z</time>
  <course>13.95</course>
  <speed>0.0</speed>
  <fix>3d</fix>
</trkpt>
<trkpt lat="40.0728086" lon="-105.2306653">
  <ele>1595.32</ele>
  <time>2026-08-28T19:10:50Z</time>
  <course>121.54</course>
  <speed>0.02</speed>
  <fix>3d</fix>
</trkpt>
<trkpt lat="40.0728088" lon="-105.2306655">
  <ele>1595.43</ele>
  <time>2026-08-28T19:10:50Z</time>
  <course>13.89</course>
  <speed>0.0</speed>
  <fix>3d</fix>
</trkpt>
<trkpt lat="40.0728086" lon="-105.2306653">
  <ele>1595.32</ele>
  <time>2026-08-28T19:10:50Z</time>
  <course>133.7</course>
  <speed>0.02</speed>
  <fix>3d</fix>
</trkpt>
<trkpt lat="40.0728087" lon="-105.2306654">
  <ele>1595.43</ele>
  <time>2026-08-28T19:10:50Z</time>
  <course>14.01</course>
  <speed>0.0</speed>
  <fix>3d</fix>
</trkpt>
<trkpt lat="40.0728086" lon="-105.2306653">
  <ele>1595.32</ele>
  <time>2026-08-28T19:10:50Z</time>
  <course>128.78</course>
  <speed>0.03</speed>
  <fix>3d</fix>
</trkpt>
<trkpt lat="40.0728087" lon="-105.2306654">
  <ele>1595.43</ele>
  <time>2026-08-28T19:10:50Z</time>
  <course>14.04</course>
  <speed>0.01</speed>
  <fix>3d</fix>
</trkpt>
<trkpt lat="40.0728085" lon="-105.2306652">
  <ele>1595.32</ele>
  <time>2026-08-28T19:10:50Z</time>
  <course>124.51</course>
  <speed>0.03</speed>
  <fix>3d</fix>
</trkpt>
<trkpt lat="40.0728087" lon="-105.2306653">
  <ele>1595.43</ele>
  <time>2026-08-28T19:10:50Z</time>
  <course>13.9</course>
  <speed>0.0</speed>
  <fix>3d</fix>
</trkpt>
<trkpt lat="40.0728085" lon="-105.2306651">
  <ele>1595.32</ele>
  <time>2026-08-28T19:10:50Z</time>
  <course>135.08</course>
  <speed>0.02</speed>
  <fix>3d</fix>
</trkpt>
<trkpt lat="40.0728086" lon="-105.2306653">
  <ele>1595.43</ele>
  <time>2026-08-28T19:10:50Z</time>
  <course>13.96</course>
  <speed>0.02</speed>
  <fix>3d</fix>
</trkpt>
<trkpt lat="40.0728085" lon="-105.2306651">
  <ele>1595.32</ele>
  <time>2026-08-28T19:10:50Z</time>
  <course>142.82</course>
  <speed>0.03</speed>
  <fix>3d</fix>
</trkpt>
<trkpt lat="40.0728086" lon="-105.2306653">
  <ele>1595.43</ele>
  <time>2026-08-28T19:10:50Z</time>
  <course>13.85</course>
  <speed>0.02</speed>
  <fix>3d</fix>
</trkpt>
<trkpt lat="40.0728085" lon="-105.2306651">
  <ele>1595.32</ele>
  <time>2026-08-28T19:10:50Z</time>
  <course>157.45</course>
  <speed>0.04</speed>
  <fix>3d</fix>
</trkpt>
<trkpt lat="40.0728085" lon="-105.2306652">
  <ele>1595.43</ele>
  <time>2026-08-28T19:10:50Z</time>
  <course>13.78</course>
  <speed>0.02</speed>
  <fix>3d</fix>
</trkpt>
<trkpt lat="40.0728084" lon="-105.2306651">
  <ele>1595.32</ele>
  <time>2026-08-28T19:10:50Z</time>
  <course>165.96</course>
  <speed>0.04</speed>
  <fix>3d</fix>
</trkpt>
<trkpt lat="40.0728084" lon="-105.2306652">
  <ele>1595.42</ele>
  <time>2026-08-28T19:10:50Z</time>
  <course>13.78</course>
  <speed>0.01</speed>
  <fix>3d</fix>
</trkpt>
<trkpt lat="40.0728083" lon="-105.230665">
  <ele>1595.32</ele>
  <time>2026-08-28T19:10:50Z</time>
  <course>154.71</course>
  <speed>0.04</speed>
  <fix>3d</fix>
</trkpt>
<trkpt lat="40.0728084" lon="-105.2306651">
  <ele>1595.42</ele>
  <time>2026-08-28T19:10:50Z</time>
  <course>13.77</course>
  <speed>0.0</speed>
  <fix>3d</fix>
</trkpt>
<trkpt lat="40.0728082" lon="-105.230665">
  <ele>1595.32</ele>
  <time>2026-08-28T19:10:50Z</time>
  <course>144.53</course>
  <speed>0.03</speed>
  <fix>3d</fix>
</trkpt>
<trkpt lat="40.0728084" lon="-105.2306651">
  <ele>1595.42</ele>
  <time>2026-08-28T19:10:50Z</time>
  <course>13.76</course>
  <speed>0.0</speed>
  <fix>3d</fix>
</trkpt>
<trkpt lat="40.0728082" lon="-105.2306649">
  <ele>1595.32</ele>
  <time>2026-08-28T19:10:50Z</time>
  <course>134.86</course>
  <speed>0.03</speed>
  <fix>3d</fix>
</trkpt>
<trkpt lat="40.0728083" lon="-105.230665">
  <ele>1595.42</ele>
  <time>2026-08-28T19:10:50Z</time>
  <course>13.76</course>
  <speed>0.01</speed>
  <fix>3d</fix>
</trkpt>
<trkpt lat="40.0728082" lon="-105.2306648">
  <ele>1595.32</ele>
  <time>2026-08-28T19:10:50Z</time>
  <course>124.21</course>
  <speed>0.03</speed>
  <fix>3d</fix>
</trkpt>
<trkpt lat="40.0728083" lon="-105.230665">
  <ele>1595.42</ele>
  <time>2026-08-28T19:10:50Z</time>
  <course>13.77</course>
  <speed>0.01414213562373095</speed>
  <fix>3d</fix>
</trkpt>
<trkpt lat="40.0728081" lon="-105.2306648">
  <ele>1595.32</ele>
  <time>2026-08-28T19:10:50Z</time>
  <course>114.12</course>
  <speed>0.02</speed>
  <fix>3d</fix>
</trkpt>
<trkpt lat="40.0728083" lon="-105.2306649">
  <ele>1595.42</ele>
  <time>2026-08-28T19:10:50Z</time>
  <course>13.78</course>
  <speed>0.01414213562373095</speed>
  <fix>3d</fix>
</trkpt>
<trkpt lat="40.072808" lon="-105.2306647">
  <ele>1595.32</ele>
  <time>2026-08-28T19:10:50Z</time>
  <course>104.84</course>
  <speed>0.02</speed>
  <fix>3d</fix>
</trkpt>
<trkpt lat="40.0728083" lon="-105.2306648">
  <ele>1595.43</ele>
  <time>2026-08-28T19:10:50Z</time>
  <course>13.79</course>
  <speed>0.01414213562373095</speed>
  <fix>3d</fix>
</trkpt>
<trkpt lat="40.072808" lon="-105.2306646">
  <ele>1595.32</ele>
  <time>2026-08-28T19:10:50Z</time>
  <course>96.95</course>
  <speed>0.02</speed>
  <fix>3d</fix>
</trkpt>
<trkpt lat="40.0728083" lon="-105.2306648">
  <ele>1595.43</ele>
  <time>2026-08-28T19:10:50Z</time>
  <course>13.79</course>
  <speed>0.022360679774997897</speed>
  <fix>3d</fix>
</trkpt>
<trkpt lat="40.072808" lon="-105.2306646">
  <ele>1595.32</ele>
  <time>2026-08-28T19:10:50Z</time>
  <course>90.8</course>
  <speed>0.02</speed>
  <fix>3d</fix>
</trkpt>
<trkpt lat="40.0728083" lon="-105.2306647">
  <ele>1595.43</ele>
  <time>2026-08-28T19:10:50Z</time>
  <course>13.79</course>
  <speed>0.022360679774997897</speed>
  <fix>3d</fix>
</trkpt>
<trkpt lat="40.072808" lon="-105.2306645">
  <ele>1595.33</ele>
  <time>2026-08-28T19:10:50Z</time>
  <course>85.68</course>
  <speed>0.02</speed>
  <fix>3d</fix>
</trkpt>
<trkpt lat="40.0728083" lon="-105.2306646">
  <ele>1595.43</ele>
  <time>2026-08-28T19:10:50Z</time>
  <course>13.8</course>
  <speed>0.022360679774997897</speed>
  <fix>3d</fix>
</trkpt>
<trkpt lat="40.072808" lon="-105.2306644">
  <ele>1595.33</ele>
  <time>2026-08-28T19:10:50Z</time>
  <course>81.34</course>
  <speed>0.03</speed>
  <fix>3d</fix>
</trkpt>
<trkpt lat="40.0728082" lon="-105.2306645">
  <ele>1595.43</ele>
  <time>2026-08-28T19:10:50Z</time>
  <course>13.79</course>
  <speed>0.022360679774997897</speed>
  <fix>3d</fix>
</trkpt>
<trkpt lat="40.072808" lon="-105.2306644">
  <ele>1595.33</ele>
  <time>2026-08-28T19:10:50Z</time>
  <course>78.39</course>
  <speed>0.03</speed>
  <fix>3d</fix>
</trkpt>
<trkpt lat="40.0728082" lon="-105.2306645">
  <ele>1595.43</ele>
  <time>2026-08-28T19:10:50Z</time>
  <course>13.79</course>
  <speed>0.022360679774997897</speed>
  <fix>3d</fix>
</trkpt>
<trkpt lat="40.072808" lon="-105.2306643">
  <ele>1595.33</ele>
  <time>2026-08-28T19:10:50Z</time>
  <course>76.59</course>
  <speed>0.03</speed>
  <fix>3d</fix>
</trkpt>
<trkpt lat="40.0728082" lon="-105.2306644">
  <ele>1595.43</ele>
  <time>2026-08-28T19:10:50Z</time>
  <course>13.79</course>
  <speed>0.022360679774997897</speed>
  <fix>3d</fix>
</trkpt>
<trkpt lat="40.072808" lon="-105.2306642">
  <ele>1595.33</ele>
  <time>2026-08-28T19:10:50Z</time>
  <course>75.56</course>
  <speed>0.03</speed>
  <fix>3d</fix>
</trkpt>
<trkpt lat="40.0728082" lon="-105.2306643">
  <ele>1595.43</ele>
  <time>2026-08-28T19:10:50Z</time>
  <course>13.79</course>
  <speed>0.022360679774997897</speed>
  <fix>3d</fix>
</trkpt>
<trkpt lat="40.072808" lon="-105.2306641">
  <ele>1595.33</ele>
  <time>2026-08-28T19:10:50Z</time>
  <course>74.91</course>
  <speed>0.03</speed>
  <fix>3d</fix>
</trkpt>
<trkpt lat="40.0728082" lon="-105.2306642">
  <ele>1595.43</ele>
  <time>2026-08-28T19:10:50Z</time>
  <course>13.78</course>
  <speed>0.053851648071345036</speed>
  <fix>3d</fix>
</trkpt>
<trkpt lat="40.072808" lon="-105.2306641">
  <ele>1595.33</ele>
  <time>2026-08-28T19:10:50Z</time>
  <course>58.26</course>
  <speed>0.03</speed>
  <fix>3d</fix>
</trkpt>
<trkpt lat="40.0728083" lon="-105.2306641">
  <ele>1595.44</ele>
  <time>2026-08-28T19:10:50Z</time>
  <course>13.87</course>
  <speed>0.0412310562561766</speed>
  <fix>3d</fix>
</trkpt>
<trkpt lat="40.0728081" lon="-105.230664">
  <ele>1595.33</ele>
  <time>2026-08-28T19:10:50Z</time>
  <course>49.81</course>
  <speed>0.04</speed>
  <fix>3d</fix>
</trkpt>
<trkpt lat="40.0728083" lon="-105.2306641">
  <ele>1595.44</ele>
  <time>2026-08-28T19:10:50Z</time>
  <course>14.02</course>
  <speed>0.0316227766016838</speed>
  <fix>3d</fix>
</trkpt>
<trkpt lat="40.0728082" lon="-105.2306639">
  <ele>1595.33</ele>
  <time>2026-08-28T19:10:50Z</time>
  <course>52.92</course>
  <speed>0.04</speed>
  <fix>3d</fix>
</trkpt>
<trkpt lat="40.0728083" lon="-105.230664">
  <ele>1595.44</ele>
  <time>2026-08-28T19:10:50Z</time>
  <course>14.02</course>
  <speed>0.0316227766016838</speed>
  <fix>3d</fix>
</trkpt>
<trkpt lat="40.0728082" lon="-105.2306638">
  <ele>1595.33</ele>
  <time>2026-08-28T19:10:50Z</time>
  <course>49.59</course>
  <speed>0.03</speed>
  <fix>3d</fix>
</trkpt>
<trkpt lat="40.0728083" lon="-105.2306639">
  <ele>1595.44</ele>
  <time>2026-08-28T19:10:50Z</time>
  <course>13.92</course>
  <speed>0.02</speed>
  <fix>3d</fix>
</trkpt>
<trkpt lat="40.0728083" lon="-105.2306638">
  <ele>1595.32</ele>
  <time>2026-08-28T19:10:50Z</time>
  <course>50.45</course>
  <speed>0.02</speed>
  <fix>3d</fix>
</trkpt>
<trkpt lat="40.0728084" lon="-105.2306639">
  <ele>1595.44</ele>
  <time>2026-08-28T19:10:50Z</time>
  <course>14.0</course>
  <speed>0.01</speed>
  <fix>3d</fix>
</trkpt>
<trkpt lat="40.0728083" lon="-105.2306637">
  <ele>1595.32</ele>
  <time>2026-08-28T19:10:50Z</time>
  <course>81.66</course>
  <speed>0.02</speed>
  <fix>3d</fix>
</trkpt>
<trkpt lat="40.0728084" lon="-105.2306638">
  <ele>1595.44</ele>
  <time>2026-08-28T19:10:50Z</time>
  <course>14.04</course>
  <speed>0.01</speed>
  <fix>3d</fix>
</trkpt>
<trkpt lat="40.0728083" lon="-105.2306636">
  <ele>1595.32</ele>
  <time>2026-08-28T19:10:50Z</time>
  <course>96.81</course>
  <speed>0.02</speed>
  <fix>3d</fix>
</trkpt>
<trkpt lat="40.0728084" lon="-105.2306638">
  <ele>1595.43</ele>
  <time>2026-08-28T19:10:50Z</time>
  <course>13.94</course>
  <speed>0.0</speed>
  <fix>3d</fix>
</trkpt>
<trkpt lat="40.0728083" lon="-105.2306636">
  <ele>1595.31</ele>
  <time>2026-08-28T19:10:50Z</time>
  <course>104.72</course>
  <speed>0.02</speed>
  <fix>3d</fix>
</trkpt>
<trkpt lat="40.0728084" lon="-105.2306637">
  <ele>1595.43</ele>
  <time>2026-08-28T19:10:50Z</time>
  <course>13.88</course>
  <speed>0.0</speed>
  <fix>3d</fix>
</trkpt>
<trkpt lat="40.0728083" lon="-105.2306636">
  <ele>1595.31</ele>
  <time>2026-08-28T19:10:50Z</time>
  <course>118.37</course>
  <speed>0.02</speed>
  <fix>3d</fix>
</trkpt>
<trkpt lat="40.0728084" lon="-105.2306637">
  <ele>1595.42</ele>
  <time>2026-08-28T19:10:50Z</time>
  <course>13.97</course>
  <speed>0.0</speed>
  <fix>3d</fix>
</trkpt>
<trkpt lat="40.0728083" lon="-105.2306635">
  <ele>1595.31</ele>
  <time>2026-08-28T19:10:50Z</time>
  <course>119.18</course>
  <speed>0.03</speed>
  <fix>3d</fix>
</trkpt>
<trkpt lat="40.0728084" lon="-105.2306636">
  <ele>1595.42</ele>
  <time>2026-08-28T19:10:50Z</time>
  <course>13.99</course>
  <speed>0.01</speed>
  <fix>3d</fix>
</trkpt>
<trkpt lat="40.0728083" lon="-105.2306634">
  <ele>1595.31</ele>
  <time>2026-08-28T19:10:50Z</time>
  <course>118.04</course>
  <speed>0.03</speed>
  <fix>3d</fix>
</trkpt>
<trkpt lat="40.0728084" lon="-105.2306636">
  <ele>1595.41</ele>
  <time>2026-08-28T19:10:50Z</time>
  <course>13.86</course>
  <speed>0.0</speed>
  <fix>3d</fix>
</trkpt>
<trkpt lat="40.0728083" lon="-105.2306634">
  <ele>1595.31</ele>
  <time>2026-08-28T19:10:50Z</time>
  <course>125.74</course>
  <speed>0.02</speed>
  <fix>3d</fix>
</trkpt>
<trkpt lat="40.0728084" lon="-105.2306635">
  <ele>1595.41</ele>
  <time>2026-08-28T19:10:50Z</time>
  <course>13.87</course>
  <speed>0.0</speed>
  <fix>3d</fix>
</trkpt>
<trkpt lat="40.0728083" lon="-105.2306634">
  <ele>1595.31</ele>
  <time>2026-08-28T19:10:50Z</time>
  <course>131.56</course>
  <speed>0.02</speed>
  <fix>3d</fix>
</trkpt>
<trkpt lat="40.0728083" lon="-105.2306635">
  <ele>1595.41</ele>
  <time>2026-08-28T19:10:50Z</time>
  <course>13.94</course>
  <speed>0.0</speed>
  <fix>3d</fix>
</trkpt>
<trkpt lat="40.0728082" lon="-105.2306633">
  <ele>1595.31</ele>
  <time>2026-08-28T19:10:50Z</time>
  <course>126.05</course>
  <speed>0.03</speed>
  <fix>3d</fix>
</trkpt>
<trkpt lat="40.0728083" lon="-105.2306634">
  <ele>1595.41</ele>
  <time>2026-08-28T19:10:50Z</time>
  <course>13.93</course>
  <speed>0.01</speed>
  <fix>3d</fix>
</trkpt>
<trkpt lat="40.0728082" lon="-105.2306632">
  <ele>1595.32</ele>
  <time>2026-08-28T19:10:50Z</time>
  <course>126.47</course>
  <speed>0.02</speed>
  <fix>3d</fix>
</trkpt>
<trkpt lat="40.0728083" lon="-105.2306634">
  <ele>1595.42</ele>
  <time>2026-08-28T19:10:50Z</time>
  <course>13.82</course>
  <speed>0.0</speed>
  <fix>3d</fix>
</trkpt>
<trkpt lat="40.0728082" lon="-105.2306632">
  <ele>1595.32</ele>
  <time>2026-08-28T19:10:50Z</time>
  <course>137.62</course>
  <speed>0.02</speed>
  <fix>3d</fix>
</trkpt>
<trkpt lat="40.0728083" lon="-105.2306633">
  <ele>1595.42</ele>
  <time>2026-08-28T19:10:50Z</time>
  <course>13.91</course>
  <speed>0.0</speed>
  <fix>3d</fix>
</trkpt>
<trkpt lat="40.0728081" lon="-105.2306632">
  <ele>1595.33</ele>
  <time>2026-08-28T19:10:50Z</time>
  <course>137.29</course>
  <speed>0.02</speed>
  <fix>3d</fix>
</trkpt>
<trkpt lat="40.0728082" lon="-105.2306633">
  <ele>1595.42</ele>
  <time>2026-08-28T19:10:50Z</time>
  <course>13.99</course>
  <speed>0.01</speed>
  <fix>3d</fix>
</trkpt>
<trkpt lat="40.072808" lon="-105.2306631">
  <ele>1595.33</ele>
  <time>2026-08-28T19:10:50Z</time>
  <course>130.46</course>
  <speed>0.03</speed>
  <fix>3d</fix>
</trkpt>
<trkpt lat="40.0728082" lon="-105.2306632">
  <ele>1595.43</ele>
  <time>2026-08-28T19:10:50Z</time>
  <course>13.93</course>
  <speed>0.0</speed>
  <fix>3d</fix>
</trkpt>
<trkpt lat="40.072808" lon="-105.2306631">
  <ele>1595.33</ele>
  <time>2026-08-28T19:10:50Z</time>
  <course>134.18</course>
  <speed>0.02</speed>
  <fix>3d</fix>
</trkpt>
<trkpt lat="40.0728081" lon="-105.2306632">
  <ele>1595.43</ele>
  <time>2026-08-28T19:10:50Z</time>
  <course>13.84</course>
  <speed>0.022360679774997897</speed>
  <fix>3d</fix>
</trkpt>
<trkpt lat="40.072808" lon="-105.230663">
  <ele>1595.34</ele>
  <time>2026-08-28T19:10:50Z</time>
  <course>157.04</course>
  <speed>0.03</speed>
  <fix>3d</fix>
</trkpt>
<trkpt lat="40.072808" lon="-105.2306632">
  <ele>1595.44</ele>
  <time>2026-08-28T19:10:50Z</time>
  <course>13.83</course>
  <speed>0.02</speed>
  <fix>3d</fix>
</trkpt>
<trkpt lat="40.0728079" lon="-105.2306629">
  <ele>1595.34</ele>
  <time>2026-08-28T19:10:50Z</time>
  <course>165.24</course>
  <speed>0.04</speed>
  <fix>3d</fix>
</trkpt>
<trkpt lat="40.072808" lon="-105.2306632">
  <ele>1595.44</ele>
  <time>2026-08-28T19:10:50Z</time>
  <course>13.78</course>
  <speed>0.02</speed>
  <fix>3d</fix>
</trkpt>
<trkpt lat="40.0728078" lon="-105.2306629">
  <ele>1595.34</ele>
  <time>2026-08-28T19:10:50Z</time>
  <course>163.68</course>
  <speed>0.04</speed>
  <fix>3d</fix>
</trkpt>
<trkpt lat="40.0728079" lon="-105.2306631">
  <ele>1595.43</ele>
  <time>2026-08-28T19:10:50Z</time>
  <course>13.79</course>
  <speed>0.01</speed>
  <fix>3d</fix>
</trkpt>
<trkpt lat="40.0728078" lon="-105.2306629">
  <ele>1595.34</ele>
  <time>2026-08-28T19:10:50Z</time>
  <course>156.1</course>
  <speed>0.04</speed>
  <fix>3d</fix>
</trkpt>
<trkpt lat="40.0728078" lon="-105.230663">
  <ele>1595.43</ele>
  <time>2026-08-28T19:10:50Z</time>
  <course>13.78</course>
  <speed>0.0</speed>
  <fix>3d</fix>
</trkpt>
<trkpt lat="40.0728077" lon="-105.2306629">
  <ele>1595.34</ele>
  <time>2026-08-28T19:10:50Z</time>
  <course>147.13</course>
  <speed>0.04</speed>
  <fix>3d</fix>
</trkpt>
<trkpt lat="40.0728078" lon="-105.230663">
  <ele>1595.42</ele>
  <time>2026-08-28T19:10:50Z</time>
  <course>13.78</course>
  <speed>0.0</speed>
  <fix>3d</fix>
</trkpt>
<trkpt lat="40.0728077" lon="-105.2306628">
  <ele>1595.34</ele>
  <time>2026-08-28T19:10:50Z</time>
  <course>139.76</course>
  <speed>0.03</speed>
  <fix>3d</fix>
</trkpt>
<trkpt lat="40.0728078" lon="-105.2306629">
  <ele>1595.42</ele>
  <time>2026-08-28T19:10:50Z</time>
  <course>13.79</course>
  <speed>0.01</speed>
  <fix>3d</fix>
</trkpt>
<trkpt lat="40.0728076" lon="-105.2306627">
  <ele>1595.34</ele>
  <time>2026-08-28T19:10:50Z</time>
  <course>132.01</course>
  <speed>0.03</speed>
  <fix>3d</fix>
</trkpt>
<trkpt lat="40.0728077" lon="-105.2306629">
  <ele>1595.42</ele>
  <time>2026-08-28T19:10:50Z</time>
  <course>13.79</course>
  <speed>0.01</speed>
  <fix>3d</fix>
</trkpt>
<trkpt lat="40.0728076" lon="-105.2306627">
  <ele>1595.34</ele>
  <time>2026-08-28T19:10:50Z</time>
  <course>125.0</course>
  <speed>0.03</speed>
  <fix>3d</fix>
</trkpt>
<trkpt lat="40.0728077" lon="-105.2306628">
  <ele>1595.42</ele>
  <time>2026-08-28T19:10:50Z</time>
  <course>13.78</course>
  <speed>0.01</speed>
  <fix>3d</fix>
</trkpt>
<trkpt lat="40.0728076" lon="-105.2306626">
  <ele>1595.34</ele>
  <time>2026-08-28T19:10:50Z</time>
  <course>119.33</course>
  <speed>0.02</speed>
  <fix>3d</fix>
</trkpt>
<trkpt lat="40.0728077" lon="-105.2306627">
  <ele>1595.42</ele>
  <time>2026-08-28T19:10:50Z</time>
  <course>13.78</course>
  <speed>0.01414213562373095</speed>
  <fix>3d</fix>
</trkpt>
<trkpt lat="40.0728075" lon="-105.2306626">
  <ele>1595.34</ele>
  <time>2026-08-28T19:10:50Z</time>
  <course>114.98</course>
  <speed>0.02</speed>
  <fix>3d</fix>
</trkpt>
<trkpt lat="40.0728077" lon="-105.2306627">
  <ele>1595.42</ele>
  <time>2026-08-28T19:10:50Z</time>
  <course>13.77</course>
  <speed>0.01414213562373095</speed>
  <fix>3d</fix>
</trkpt>
<trkpt lat="40.0728074" lon="-105.2306625">
  <ele>1595.34</ele>
  <time>2026-08-28T19:10:50Z</time>
  <course>111.47</course>
  <speed>0.02</speed>
  <fix>3d</fix>
</trkpt>
<trkpt lat="40.0728077" lon="-105.2306626">
  <ele>1595.42</ele>
  <time>2026-08-28T19:10:50Z</time>
  <course>13.79</course>
  <speed>0.01414213562373095</speed>
  <fix>3d</fix>
</trkpt>
<trkpt lat="40.0728074" lon="-105.2306624">
  <ele>1595.34</ele>
  <time>2026-08-28T19:10:50Z</time>
  <course>108.3</course>
  <speed>0.02</speed>
  <fix>3d</fix>
</trkpt>
<trkpt lat="40.0728076" lon="-105.2306625">
  <ele>1595.42</ele>
  <time>2026-08-28T19:10:50Z</time>
  <course>13.79</course>
  <speed>0.01414213562373095</speed>
  <fix>3d</fix>
</trkpt>
<trkpt lat="40.0728074" lon="-105.2306624">
  <ele>1595.35</ele>
  <time>2026-08-28T19:10:50Z</time>
  <course>106.02</course>
  <speed>0.02</speed>
  <fix>3d</fix>
</trkpt>
<trkpt lat="40.0728076" lon="-105.2306625">
  <ele>1595.42</ele>
  <time>2026-08-28T19:10:50Z</time>
  <course>13.78</course>
  <speed>0.01414213562373095</speed>
  <fix>3d</fix>
</trkpt>
<trkpt lat="40.0728074" lon="-105.2306623">
  <ele>1595.35</ele>
  <time>2026-08-28T19:10:50Z</time>
  <course>105.29</course>
  <speed>0.02</speed>
  <fix>3d</fix>
</trkpt>
<trkpt lat="40.0728076" lon="-105.2306624">
  <ele>1595.43</ele>
  <time>2026-08-28T19:10:50Z</time>
  <course>13.8</course>
  <speed>0.01414213562373095</speed>
  <fix>3d</fix>
</trkpt>
<trkpt lat="40.0728074" lon="-105.2306622">
  <ele>1595.35</ele>
  <time>2026-08-28T19:10:50Z</time>
  <course>104.61</course>
  <speed>0.02</speed>
  <fix>3d</fix>
</trkpt>
<trkpt lat="40.0728076" lon="-105.2306624">
  <ele>1595.42</ele>
  <time>2026-08-28T19:10:50Z</time>
  <course>13.8</course>
  <speed>0.01414213562373095</speed>
  <fix>3d</fix>
</trkpt>
<trkpt lat="40.0728074" lon="-105.2306622">
  <ele>1595.36</ele>
  <time>2026-08-28T19:10:50Z</time>
  <course>103.72</course>
  <speed>0.02</speed>
  <fix>3d</fix>
</trkpt>
<trkpt lat="40.0728076" lon="-105.2306623">
  <ele>1595.42</ele>
  <time>2026-08-28T19:10:50Z</time>
  <course>13.81</course>
  <speed>0.01414213562373095</speed>
  <fix>3d</fix>
</trkpt>
<trkpt lat="40.0728073" lon="-105.2306621">
  <ele>1595.36</ele>
  <time>2026-08-28T19:10:50Z</time>
  <course>102.3</course>
  <speed>0.02</speed>
  <fix>3d</fix>
</trkpt>
<trkpt lat="40.0728076" lon="-105.2306622">
  <ele>1595.42</ele>
  <time>2026-08-28T19:10:50Z</time>
  <course>13.85</course>
  <speed>0.04242640687119285</speed>
  <fix>3d</fix>
</trkpt>
<trkpt lat="40.0728073" lon="-105.230662">
  <ele>1595.36</ele>
  <time>2026-08-28T19:10:50Z</time>
  <course>75.73</course>
  <speed>0.03</speed>
  <fix>3d</fix>
</trkpt>
<trkpt lat="40.0728076" lon="-105.2306621">
  <ele>1595.42</ele>
  <time>2026-08-28T19:10:50Z</time>
  <course>13.81</course>
  <speed>0.0412310562561766</speed>
  <fix>3d</fix>
</trkpt>
<trkpt lat="40.0728074" lon="-105.230662">
  <ele>1595.36</ele>
  <time>2026-08-28T19:10:50Z</time>
  <course>56.6</course>
  <speed>0.04</speed>
  <fix>3d</fix>
</trkpt>
<trkpt lat="40.0728076" lon="-105.230662">
  <ele>1595.42</ele>
  <time>2026-08-28T19:10:50Z</time>
  <course>13.95</course>
  <speed>0.03</speed>
  <fix>3d</fix>
</trkpt>
<trkpt lat="40.0728074" lon="-105.2306619">
  <ele>1595.36</ele>
  <time>2026-08-28T19:10:50Z</time>
  <course>59.52</course>
  <speed>0.03</speed>
  <fix>3d</fix>
</trkpt>
<trkpt lat="40.0728076" lon="-105.230662">
  <ele>1595.42</ele>
  <time>2026-08-28T19:10:50Z</time>
  <course>14.02</course>
  <speed>0.022360679774997897</speed>
  <fix>3d</fix>
</trkpt>
<trkpt lat="40.0728074" lon="-105.2306618">
  <ele>1595.37</ele>
  <time>2026-08-28T19:10:50Z</time>
  <course>64.47</course>
  <speed>0.03</speed>
  <fix>3d</fix>
</trkpt>
<trkpt lat="40.0728076" lon="-105.2306619">
  <ele>1595.42</ele>
  <time>2026-08-28T19:10:50Z</time>
  <course>13.88</course>
  <speed>0.02</speed>
  <fix>3d</fix>
</trkpt>
<trkpt lat="40.0728074" lon="-105.2306617">
  <ele>1595.37</ele>
  <time>2026-08-28T19:10:50Z</time>
  <course>63.09</course>
  <speed>0.02</speed>
  <fix>3d</fix>
</trkpt>
<trkpt lat="40.0728076" lon="-105.2306619">
  <ele>1595.43</ele>
  <time>2026-08-28T19:10:50Z</time>
  <course>13.92</course>
  <speed>0.01</speed>
  <fix>3d</fix>
</trkpt>
<trkpt lat="40.0728074" lon="-105.2306617">
  <ele>1595.37</ele>
  <time>2026-08-28T19:10:50Z</time>
  <course>90.42</course>
  <speed>0.01</speed>
  <fix>3d</fix>
</trkpt>
<trkpt lat="40.0728076" lon="-105.2306618">
  <ele>1595.43</ele>
  <time>2026-08-28T19:10:50Z</time>
  <course>14.02</course>
  <speed>0.01</speed>
  <fix>3d</fix>
</trkpt>
<trkpt lat="40.0728074" lon="-105.2306617">
  <ele>1595.37</ele>
  <time>2026-08-28T19:10:50Z</time>
  <course>104.21</course>
  <speed>0.02</speed>
  <fix>3d</fix>
</trkpt>
<trkpt lat="40.0728076" lon="-105.2306618">
  <ele>1595.43</ele>
  <time>2026-08-28T19:10:50Z</time>
  <course>13.99</course>
  <speed>0.01</speed>
  <fix>3d</fix>
</trkpt>
<trkpt lat="40.0728074" lon="-105.2306616">
  <ele>1595.38</ele>
  <time>2026-08-28T19:10:50Z</time>
  <course>106.95</course>
  <speed>0.02</speed>
  <fix>3d</fix>
</trkpt>
<trkpt lat="40.0728076" lon="-105.2306617">
  <ele>1595.44</ele>
  <time>2026-08-28T19:10:50Z</time>
  <course>13.9</course>
  <speed>0.0</speed>
  <fix>3d</fix>
</trkpt>
<trkpt lat="40.0728074" lon="-105.2306615">
  <ele>1595.38</ele>
  <time>2026-08-28T19:10:50Z</time>
  <course>119.85</course>
  <speed>0.01</speed>
  <fix>3d</fix>
</trkpt>
<trkpt lat="40.0728076" lon="-105.2306617">
  <ele>1595.43</ele>
  <time>2026-08-28T19:10:50Z</time>
  <course>14.01</course>
  <speed>0.0</speed>
  <fix>3d</fix>
</trkpt>
<trkpt lat="40.0728074" lon="-105.2306615">
  <ele>1595.38</ele>
  <time>2026-08-28T19:10:50Z</time>
  <course>120.23</course>
  <speed>0.02</speed>
  <fix>3d</fix>
</trkpt>
<trkpt lat="40.0728075" lon="-105.2306616">
  <ele>1595.43</ele>
  <time>2026-08-28T19:10:50Z</time>
  <course>14.05</course>
  <speed>0.01</speed>
  <fix>3d</fix>
</trkpt>
<trkpt lat="40.0728074" lon="-105.2306615">
  <ele>1595.38</ele>
  <time>2026-08-28T19:10:50Z</time>
  <course>115.24</course>
  <speed>0.03</speed>
  <fix>3d</fix>
</trkpt>
<trkpt lat="40.0728075" lon="-105.2306616">
  <ele>1595.43</ele>
  <time>2026-08-28T19:10:50Z</time>
  <course>13.9</course>
  <speed>0.0</speed>
  <fix>3d</fix>
</trkpt>
<trkpt lat="40.0728074" lon="-105.2306614">
  <ele>1595.38</ele>
  <time>2026-08-28T19:10:50Z</time>
  <course>121.18</course>
  <speed>0.02</speed>
  <fix>3d</fix>
</trkpt>
<trkpt lat="40.0728075" lon="-105.2306615">
  <ele>1595.43</ele>
  <time>2026-08-28T19:10:50Z</time>
  <course>13.94</course>
  <speed>0.0</speed>
  <fix>3d</fix>
</trkpt>
<trkpt lat="40.0728074" lon="-105.2306613">
  <ele>1595.38</ele>
  <time>2026-08-28T19:10:50Z</time>
  <course>127.98</course>
  <speed>0.02</speed>
  <fix>3d</fix>
</trkpt>
<trkpt lat="40.0728075" lon="-105.2306615">
  <ele>1595.43</ele>
  <time>2026-08-28T19:10:50Z</time>
  <course>14.02</course>
  <speed>0.01</speed>
  <fix>3d</fix>
</trkpt>
<trkpt lat="40.0728073" lon="-105.2306613">
  <ele>1595.38</ele>
  <time>2026-08-28T19:10:50Z</time>
  <course>120.72</course>
  <speed>0.03</speed>
  <fix>3d</fix>
</trkpt>
<trkpt lat="40.0728075" lon="-105.2306614">
  <ele>1595.42</ele>
  <time>2026-08-28T19:10:50Z</time>
  <course>13.96</course>
  <speed>0.0</speed>
  <fix>3d</fix>
</trkpt>
<trkpt lat="40.0728073" lon="-105.2306613">
  <ele>1595.38</ele>
  <time>2026-08-28T19:10:50Z</time>
  <course>120.37</course>
  <speed>0.02</speed>
  <fix>3d</fix>
</trkpt>
<trkpt lat="40.0728074" lon="-105.2306614">
  <ele>1595.42</ele>
  <time>2026-08-28T19:10:50Z</time>
  <course>13.87</course>
  <speed>0.0</speed>
  <fix>3d</fix>
</trkpt>
<trkpt lat="40.0728073" lon="-105.2306612">
  <ele>1595.38</ele>
  <time>2026-08-28T19:10:50Z</time>
  <course>131.69</course>
  <speed>0.02</speed>
  <fix>3d</fix>
</trkpt>
<trkpt lat="40.0728074" lon="-105.2306613">
  <ele>1595.42</ele>
  <time>2026-08-28T19:10:50Z</time>
  <course>13.96</course>
  <speed>0.0</speed>
  <fix>3d</fix>
</trkpt>
<trkpt lat="40.0728073" lon="-105.2306612">
  <ele>1595.39</ele>
  <time>2026-08-28T19:10:50Z</time>
  <course>127.2</course>
  <speed>0.02</speed>
  <fix>3d</fix>
</trkpt>
<trkpt lat="40.0728074" lon="-105.2306613">
  <ele>1595.43</ele>
  <time>2026-08-28T19:10:50Z</time>
  <course>14.0</course>
  <speed>0.01</speed>
  <fix>3d</fix>
</trkpt>
<trkpt lat="40.0728073" lon="-105.2306611">
  <ele>1595.39</ele>
  <time>2026-08-28T19:10:50Z</time>
  <course>121.49</course>
  <speed>0.03</speed>
  <fix>3d</fix>
</trkpt>
<trkpt lat="40.0728074" lon="-105.2306612">
  <ele>1595.43</ele>
  <time>2026-08-28T19:10:50Z</time>
  <course>13.88</course>
  <speed>0.0</speed>
  <fix>3d</fix>
</trkpt>
<trkpt lat="40.0728073" lon="-105.230661">
  <ele>1595.39</ele>
  <time>2026-08-28T19:10:50Z</time>
  <course>129.44</course>
  <speed>0.02</speed>
  <fix>3d</fix>
</trkpt>
<trkpt lat="40.0728073" lon="-105.2306612">
  <ele>1595.44</ele>
  <time>2026-08-28T19:10:50Z</time>
  <course>13.91</course>
  <speed>0.01</speed>
  <fix>3d</fix>
</trkpt>
<trkpt lat="40.0728072" lon="-105.230661">
  <ele>1595.39</ele>
  <time>2026-08-28T19:10:50Z</time>
  <course>143.77</course>
  <speed>0.02</speed>
  <fix>3d</fix>
</trkpt>
<trkpt lat="40.0728073" lon="-105.2306612">
  <ele>1595.44</ele>
  <time>2026-08-28T19:10:50Z</time>
  <course>13.85</course>
  <speed>0.02</speed>
  <fix>3d</fix>
</trkpt>
<trkpt lat="40.0728072" lon="-105.230661">
  <ele>1595.4</ele>
  <time>2026-08-28T19:10:50Z</time>
  <course>158.04</course>
  <speed>0.04</speed>
  <fix>3d</fix>
</trkpt>
<trkpt lat="40.0728072" lon="-105.2306611">
  <ele>1595.45</ele>
  <time>2026-08-28T19:10:50Z</time>
  <course>13.79</course>
  <speed>0.01</speed>
  <fix>3d</fix>
</trkpt>
<trkpt lat="40.0728071" lon="-105.230661">
  <ele>1595.4</ele>
  <time>2026-08-28T19:10:50Z</time>
  <course>164.46</course>
  <speed>0.04</speed>
  <fix>3d</fix>
</trkpt>
<trkpt lat="40.0728072" lon="-105.2306611">
  <ele>1595.45</ele>
  <time>2026-08-28T19:10:50Z</time>
  <course>13.81</course>
  <speed>0.0</speed>
  <fix>3d</fix>
</trkpt>
<trkpt lat="40.072807" lon="-105.2306609">
  <ele>1595.4</ele>
  <time>2026-08-28T19:10:50Z</time>
  <course>153.35</course>
  <speed>0.04</speed>
  <fix>3d</fix>
</trkpt>
<trkpt lat="40.0728071" lon="-105.230661">
  <ele>1595.45</ele>
  <time>2026-08-28T19:10:50Z</time>
  <course>13.81</course>
  <speed>0.0</speed>
  <fix>3d</fix>
</trkpt>
<trkpt lat="40.072807" lon="-105.2306608">
  <ele>1595.4</ele>
  <time>2026-08-28T19:10:50Z</time>
  <course>142.73</course>
  <speed>0.03</speed>
  <fix>3d</fix>
</trkpt>
<trkpt lat="40.0728071" lon="-105.230661">
  <ele>1595.45</ele>
  <time>2026-08-28T19:10:50Z</time>
  <course>13.81</course>
  <speed>0.0</speed>
  <fix>3d</fix>
</trkpt>
<trkpt lat="40.0728069" lon="-105.2306608">
  <ele>1595.39</ele>
  <time>2026-08-28T19:10:50Z</time>
  <course>132.67</course>
  <speed>0.03</speed>
  <fix>3d</fix>
</trkpt>
<trkpt lat="40.0728071" lon="-105.2306609">
  <ele>1595.45</ele>
  <time>2026-08-28T19:10:50Z</time>
  <course>13.82</course>
  <speed>0.01</speed>
  <fix>3d</fix>
</trkpt>
<trkpt lat="40.0728068" lon="-105.2306607">
  <ele>1595.39</ele>
  <time>2026-08-28T19:10:50Z</time>
  <course>122.13</course>
  <speed>0.03</speed>
  <fix>3d</fix>
</trkpt>
<trkpt lat="40.072807" lon="-105.2306609">
  <ele>1595.45</ele>
  <time>2026-08-28T19:10:50Z</time>
  <course>13.85</course>
  <speed>0.01414213562373095</speed>
  <fix>3d</fix>
</trkpt>
<trkpt lat="40.0728068" lon="-105.2306607">
  <ele>1595.38</ele>
  <time>2026-08-28T19:10:50Z</time>
  <course>113.25</course>
  <speed>0.02</speed>
  <fix>3d</fix>
</trkpt>
<trkpt lat="40.072807" lon="-105.2306608">
  <ele>1595.45</ele>
  <time>2026-08-28T19:10:50Z</time>
  <course>13.85</course>
  <speed>0.01414213562373095</speed>
  <fix>3d</fix>
</trkpt>
<trkpt lat="40.0728068" lon="-105.2306606">
  <ele>1595.38</ele>
  <time>2026-08-28T19:10:50Z</time>
  <course>106.06</course>
  <speed>0.02</speed>
  <fix>3d</fix>
</trkpt>
<trkpt lat="40.072807" lon="-105.2306607">
  <ele>1595.45</ele>
  <time>2026-08-28T19:10:50Z</time>
  <course>13.82</course>
  <speed>0.01414213562373095</speed>
  <fix>3d</fix>
</trkpt>
<trkpt lat="40.0728067" lon="-105.2306605">
  <ele>1595.37</ele>
  <time>2026-08-28T19:10:50Z</time>
  <course>100.34</course>
  <speed>0.02</speed>
  <fix>3d</fix>
</trkpt>
<trkpt lat="40.072807" lon="-105.2306606">
  <ele>1595.45</ele>
  <time>2026-08-28T19:10:50Z</time>
  <course>13.82</course>
  <speed>0.01414213562373095</speed>
  <fix>3d</fix>
</trkpt>
<trkpt lat="40.0728067" lon="-105.2306605">
  <ele>1595.37</ele>
  <time>2026-08-28T19:10:50Z</time>
  <course>96.05</course>
  <speed>0.03</speed>
  <fix>3d</fix>
</trkpt>
<trkpt lat="40.072807" lon="-105.2306606">
  <ele>1595.44</ele>
  <time>2026-08-28T19:10:50Z</time>
  <course>13.83</course>
  <speed>0.01414213562373095</speed>
  <fix>3d</fix>
</trkpt>
<trkpt lat="40.0728067" lon="-105.2306604">
  <ele>1595.37</ele>
  <time>2026-08-28T19:10:50Z</time>
  <course>92.87</course>
  <speed>0.03</speed>
  <fix>3d</fix>
</trkpt>
<trkpt lat="40.072807" lon="-105.2306605">
  <ele>1595.44</ele>
  <time>2026-08-28T19:10:50Z</time>
  <course>13.81</course>
  <speed>0.01414213562373095</speed>
  <fix>3d</fix>
</trkpt>
<trkpt lat="40.0728067" lon="-105.2306603">
  <ele>1595.36</ele>
  <time>2026-08-28T19:10:50Z</time>
  <course>90.65</course>
  <speed>0.03</speed>
  <fix>3d</fix>
</trkpt>
<trkpt lat="40.072807" lon="-105.2306604">
  <ele>1595.43</ele>
  <time>2026-08-28T19:10:50Z</time>
  <course>13.81</course>
  <speed>0.01414213562373095</speed>
  <fix>3d</fix>
</trkpt>
<trkpt lat="40.0728067" lon="-105.2306602">
  <ele>1595.36</ele>
  <time>2026-08-28T19:10:50Z</time>
  <course>89.1</course>
  <speed>0.03</speed>
  <fix>3d</fix>
</trkpt>
<trkpt lat="40.0728069" lon="-105.2306603">
  <ele>1595.43</ele>
  <time>2026-08-28T19:10:50Z</time>
  <course>13.8</course>
  <speed>0.01414213562373095</speed>
  <fix>3d</fix>
</trkpt>
<trkpt lat="40.0728067" lon="-105.2306601">
  <ele>1595.36</ele>
  <time>2026-08-28T19:10:50Z</time>
  <course>88.26</course>
  <speed>0.03</speed>
  <fix>3d</fix>
</trkpt>
<trkpt lat="40.0728069" lon="-105.2306603">
  <ele>1595.43</ele>
  <time>2026-08-28T19:10:50Z</time>
  <course>13.8</course>
  <speed>0.01414213562373095</speed>
  <fix>3d</fix>
</trkpt>
<trkpt lat="40.0728067" lon="-105.2306601">
  <ele>1595.36</ele>
  <time>2026-08-28T19:10:50Z</time>
  <course>88.08</course>
  <speed>0.03</speed>
  <fix>3d</fix>
</trkpt>
<trkpt lat="40.0728069" lon="-105.2306602">
  <ele>1595.42</ele>
  <time>2026-08-28T19:10:50Z</time>
  <course>13.79</course>
  <speed>0.022360679774997897</speed>
  <fix>3d</fix>
</trkpt>
<trkpt lat="40.0728067" lon="-105.23066">
  <ele>1595.35</ele>
  <time>2026-08-28T19:10:50Z</time>
  <course>87.51</course>
  <speed>0.03</speed>
  <fix>3d</fix>
</trkpt>
<trkpt lat="40.0728069" lon="-105.2306601">
  <ele>1595.42</ele>
  <time>2026-08-28T19:10:50Z</time>
  <course>13.84</course>
  <speed>0.05</speed>
  <fix>3d</fix>
</trkpt>
<trkpt lat="40.0728067" lon="-105.2306599">
  <ele>1595.35</ele>
  <time>2026-08-28T19:10:50Z</time>
  <course>68.24</course>
  <speed>0.03</speed>
  <fix>3d</fix>
</trkpt>
<trkpt lat="40.0728069" lon="-105.23066">
  <ele>1595.42</ele>
  <time>2026-08-28T19:10:51Z</time>
  <course>13.82</course>
  <speed>0.0412310562561766</speed>
  <fix>3d</fix>
</trkpt>
<trkpt lat="40.0728067" lon="-105.2306598">
  <ele>1595.35</ele>
  <time>2026-08-28T19:10:51Z</time>
  <course>53.19</course>
  <speed>0.04</speed>
  <fix>3d</fix>
</trkpt>
<trkpt lat="40.0728069" lon="-105.2306599">
  <ele>1595.42</ele>
  <time>2026-08-28T19:10:51Z</time>
  <course>13.93</course>
  <speed>0.0316227766016838</speed>
  <fix>3d</fix>
</trkpt>
<trkpt lat="40.0728068" lon="-105.2306598">
  <ele>1595.35</ele>
  <time>2026-08-28T19:10:51Z</time>
  <course>55.34</course>
  <speed>0.04</speed>
  <fix>3d</fix>
</trkpt>
<trkpt lat="40.072807" lon="-105.2306599">
  <ele>1595.42</ele>
  <time>2026-08-28T19:10:51Z</time>
  <course>14.0</course>
  <speed>0.022360679774997897</speed>
  <fix>3d</fix>
</trkpt>
<trkpt lat="40.0728068" lon="-105.2306597">
  <ele>1595.36</ele>
  <time>2026-08-28T19:10:51Z</time>
  <course>60.71</course>
  <speed>0.03</speed>
  <fix>3d</fix>
</trkpt>
<trkpt lat="40.072807" lon="-105.2306598">
  <ele>1595.42</ele>
  <time>2026-08-28T19:10:51Z</time>
  <course>13.91</course>
  <speed>0.02</speed>
  <fix>3d</fix>
</trkpt>
<trkpt lat="40.0728068" lon="-105.2306596">
  <ele>1595.36</ele>
  <time>2026-08-28T19:10:51Z</time>
  <course>59.87</course>
  <speed>0.02</speed>
  <fix>3d</fix>
</trkpt>
<trkpt lat="40.072807" lon="-105.2306597">
  <ele>1595.42</ele>
  <time>2026-08-28T19:10:51Z</time>
  <course>13.87</course>
  <speed>0.01</speed>
  <fix>3d</fix>
</trkpt>
<trkpt lat="40.0728068" lon="-105.2306596">
  <ele>1595.36</ele>
  <time>2026-08-28T19:10:51Z</time>
  <course>76.6</course>
  <speed>0.01</speed>
  <fix>3d</fix>
</trkpt>
<trkpt lat="40.072807" lon="-105.2306597">
  <ele>1595.42</ele>
  <time>2026-08-28T19:10:51Z</time>
  <course>13.96</course>
  <speed>0.0</speed>
  <fix>3d</fix>
</trkpt>
<trkpt lat="40.0728068" lon="-105.2306595">
  <ele>1595.36</ele>
  <time>2026-08-28T19:10:51Z</time>
  <course>98.4</course>
  <speed>0.02</speed>
  <fix>3d</fix>
</trkpt>
<trkpt lat="40.072807" lon="-105.2306596">
  <ele>1595.43</ele>
  <time>2026-08-28T19:10:51Z</time>
  <course>14.0</course>
  <speed>0.01</speed>
  <fix>3d</fix>
</trkpt>
<trkpt lat="40.0728068" lon="-105.2306595">
  <ele>1595.36</ele>
  <time>2026-08-28T19:10:51Z</time>
  <course>103.16</course>
  <speed>0.02</speed>
  <fix>3d</fix>
</trkpt>
<trkpt lat="40.072807" lon="-105.2306596">
  <ele>1595.44</ele>
  <time>2026-08-28T19:10:51Z</time>
  <course>13.9</course>
  <speed>0.0</speed>
  <fix>3d</fix>
</trkpt>
<trkpt lat="40.0728068" lon="-105.2306594">
  <ele>1595.37</ele>
  <time>2026-08-28T19:10:51Z</time>
  <course>109.29</course>
  <speed>0.02</speed>
  <fix>3d</fix>
</trkpt>
<trkpt lat="40.072807" lon="-105.2306595">
  <ele>1595.44</ele>
  <time>2026-08-28T19:10:51Z</time>
  <course>13.93</course>
  <speed>0.0</speed>
  <fix>3d</fix>
</trkpt>
<trkpt lat="40.0728068" lon="-105.2306593">
  <ele>1595.37</ele>
  <time>2026-08-28T19:10:51Z</time>
  <course>117.41</course>
  <speed>0.02</speed>
  <fix>3d</fix>
</trkpt>
<trkpt lat="40.072807" lon="-105.2306595">
  <ele>1595.43</ele>
  <time>2026-08-28T19:10:51Z</time>
  <course>14.02</course>
  <speed>0.0</speed>
  <fix>3d</fix>
</trkpt>
<trkpt lat="40.0728068" lon="-105.2306593">
  <ele>1595.37</ele>
  <time>2026-08-28T19:10:51Z</time>
  <course>115.01</course>
  <speed>0.03</speed>
  <fix>3d</fix>
</trkpt>
<trkpt lat="40.0728069" lon="-105.2306594">
  <ele>1595.43</ele>
  <time>2026-08-28T19:10:51Z</time>
  <course>14.01</course>
  <speed>0.01</speed>
  <fix>3d</fix>
</trkpt>
<trkpt lat="40.0728068" lon="-105.2306593">
  <ele>1595.37</ele>
  <time>2026-08-28T19:10:51Z</time>
  <course>113.47</course>
  <speed>0.02</speed>
  <fix>3d</fix>
</trkpt>
<trkpt lat="40.0728069" lon="-105.2306594">
  <ele>1595.43</ele>
  <time>2026-08-28T19:10:51Z</time>
  <course>13.88</course>
  <speed>0.0</speed>
  <fix>3d</fix>
</trkpt>
<trkpt lat="40.0728068" lon="-105.2306592">
  <ele>1595.37</ele>
  <time>2026-08-28T19:10:51Z</time>
  <course>119.02</course>
  <speed>0.02</speed>
  <fix>3d</fix>
</trkpt>
<trkpt lat="40.0728069" lon="-105.2306593">
  <ele>1595.43</ele>
  <time>2026-08-28T19:10:51Z</time>
  <course>13.92</course>
  <speed>0.0</speed>
  <fix>3d</fix>
</trkpt>
<trkpt lat="40.0728068" lon="-105.2306591">
  <ele>1595.37</ele>
  <time>2026-08-28T19:10:51Z</time>
  <course>121.62</course>
  <speed>0.02</speed>
  <fix>3d</fix>
</trkpt>
<trkpt lat="40.0728069" lon="-105.2306593">
  <ele>1595.43</ele>
  <time>2026-08-28T19:10:51Z</time>
  <course>14.0</course>
  <speed>0.01</speed>
  <fix>3d</fix>
</trkpt>
<trkpt lat="40.0728068" lon="-105.2306591">
  <ele>1595.37</ele>
  <time>2026-08-28T19:10:51Z</time>
  <course>116.9</course>
  <speed>0.03</speed>
  <fix>3d</fix>
</trkpt>
<trkpt lat="40.0728069" lon="-105.2306592">
  <ele>1595.43</ele>
  <time>2026-08-28T19:10:51Z</time>
  <course>13.99</course>
  <speed>0.01</speed>
  <fix>3d</fix>
</trkpt>
<trkpt lat="40.0728068" lon="-105.230659">
  <ele>1595.37</ele>
  <time>2026-08-28T19:10:51Z</time>
  <course>116.66</course>
  <speed>0.02</speed>
  <fix>3d</fix>
</trkpt>
<trkpt lat="40.0728069" lon="-105.2306592">
  <ele>1595.43</ele>
  <time>2026-08-28T19:10:51Z</time>
  <course>13.88</course>
  <speed>0.0</speed>
  <fix>3d</fix>
</trkpt>
<trkpt lat="40.0728067" lon="-105.2306589">
  <ele>1595.37</ele>
  <time>2026-08-28T19:10:51Z</time>
  <course>124.58</course>
  <speed>0.02</speed>
  <fix>3d</fix>
</trkpt>
<trkpt lat="40.0728068" lon="-105.2306591">
  <ele>1595.42</ele>
  <time>2026-08-28T19:10:51Z</time>
  <course>13.94</course>
  <speed>0.0</speed>
  <fix>3d</fix>
</trkpt>
<trkpt lat="40.0728067" lon="-105.2306589">
  <ele>1595.36</ele>
  <time>2026-08-28T19:10:51Z</time>
  <course>124.8</course>
  <speed>0.02</speed>
  <fix>3d</fix>
</trkpt>
<trkpt lat="40.0728068" lon="-105.2306591">
  <ele>1595.42</ele>
  <time>2026-08-28T19:10:51Z</time>
  <course>13.99</course>
  <speed>0.01</speed>
  <fix>3d</fix>
</trkpt>
<trkpt lat="40.0728067" lon="-105.2306589">
  <ele>1595.36</ele>
  <time>2026-08-28T19:10:51Z</time>
  <course>120.61</course>
  <speed>0.03</speed>
  <fix>3d</fix>
</trkpt>
<trkpt lat="40.0728068" lon="-105.230659">
  <ele>1595.42</ele>
  <time>2026-08-28T19:10:51Z</time>
  <course>13.81</course>
  <speed>0.01414213562373095</speed>
  <fix>3d</fix>
</trkpt>
<trkpt lat="40.0728067" lon="-105.2306588">
  <ele>1595.36</ele>
  <time>2026-08-28T19:10:51Z</time>
  <course>150.26</course>
  <speed>0.03</speed>
  <fix>3d</fix>
</trkpt>
<trkpt lat="40.0728067" lon="-105.230659">
  <ele>1595.43</ele>
  <time>2026-08-28T19:10:51Z</time>
  <course>13.79</course>
  <speed>0.01</speed>
  <fix>3d</fix>
</trkpt>
<trkpt lat="40.0728066" lon="-105.2306588">
  <ele>1595.37</ele>
  <time>2026-08-28T19:10:51Z</time>
  <course>164.92</course>
  <speed>0.04</speed>
  <fix>3d</fix>
</trkpt>
<trkpt lat="40.0728066" lon="-105.2306589">
  <ele>1595.43</ele>
  <time>2026-08-28T19:10:51Z</time>
  <course>13.78</course>
  <speed>0.0</speed>
  <fix>3d</fix>
</trkpt>
<trkpt lat="40.0728066" lon="-105.2306588">
  <ele>1595.37</ele>
  <time>2026-08-28T19:10:51Z</time>
  <course>152.95</course>
  <speed>0.04</speed>
  <fix>3d</fix>
</trkpt>
<trkpt lat="40.0728066" lon="-105.2306589">
  <ele>1595.43</ele>
  <time>2026-08-28T19:10:51Z</time>
  <course>13.78</course>
  <speed>0.0</speed>
  <fix>3d</fix>
</trkpt>
<trkpt lat="40.0728065" lon="-105.2306587">
  <ele>1595.37</ele>
  <time>2026-08-28T19:10:51Z</time>
  <course>144.01</course>
  <speed>0.03</speed>
  <fix>3d</fix>
</trkpt>
<trkpt lat="40.0728066" lon="-105.2306588">
  <ele>1595.43</ele>
  <time>2026-08-28T19:10:51Z</time>
  <course>13.79</course>
  <speed>0.01</speed>
  <fix>3d</fix>
</trkpt>
<trkpt lat="40.0728065" lon="-105.2306586">
  <ele>1595.37</ele>
  <time>2026-08-28T19:10:51Z</time>
  <course>132.52</course>
  <speed>0.03</speed>
  <fix>3d</fix>
</trkpt>
<trkpt lat="40.0728066" lon="-105.2306588">
  <ele>1595.43</ele>
  <time>2026-08-28T19:10:51Z</time>
  <course>13.78</course>
  <speed>0.01414213562373095</speed>
  <fix>3d</fix>
</trkpt>
<trkpt lat="40.0728064" lon="-105.2306586">
  <ele>1595.37</ele>
  <time>2026-08-28T19:10:51Z</time>
  <course>121.99</course>
  <speed>0.03</speed>
  <fix>3d</fix>
</trkpt>
<trkpt lat="40.0728066" lon="-105.2306587">
  <ele>1595.43</ele>
  <time>2026-08-28T19:10:51Z</time>
  <course>13.79</course>
  <speed>0.01414213562373095</speed>
  <fix>3d</fix>
</trkpt>
<trkpt lat="40.0728064" lon="-105.2306585">
  <ele>1595.37</ele>
  <time>2026-08-28T19:10:51Z</time>
  <course>112.2</course>
  <speed>0.02</speed>
  <fix>3d</fix>
</trkpt>
<trkpt lat="40.0728066" lon="-105.2306586">
  <ele>1595.42</ele>
  <time>2026-08-28T19:10:51Z</time>
  <course>13.79</course>
  <speed>0.01414213562373095</speed>
  <fix>3d</fix>
</trkpt>
<trkpt lat="40.0728064" lon="-105.2306584">
  <ele>1595.37</ele>
  <time>2026-08-28T19:10:51Z</time>
  <course>103.16</course>
  <speed>0.02</speed>
  <fix>3d</fix>
</trkpt>
<trkpt lat="40.0728066" lon="-105.2306586">
  <ele>1595.42</ele>
  <time>2026-08-28T19:10:51Z</time>
  <course>13.79</course>
  <speed>0.022360679774997897</speed>
  <fix>3d</fix>
</trkpt>
<trkpt lat="40.0728064" lon="-105.2306584">
  <ele>1595.37</ele>
  <time>2026-08-28T19:10:51Z</time>
  <course>95.03</course>
  <speed>0.02</speed>
  <fix>3d</fix>
</trkpt>
<trkpt lat="40.0728066" lon="-105.2306585">
  <ele>1595.42</ele>
  <time>2026-08-28T19:10:51Z</time>
  <course>13.79</course>
  <speed>0.022360679774997897</speed>
  <fix>3d</fix>
</trkpt>
<trkpt lat="40.0728064" lon="-105.2306583">
  <ele>1595.37</ele>
  <time>2026-08-28T19:10:51Z</time>
  <course>88.41</course>
  <speed>0.02</speed>
  <fix>3d</fix>
</trkpt>
<trkpt lat="40.0728065" lon="-105.2306584">
  <ele>1595.43</ele>
  <time>2026-08-28T19:10:51Z</time>
  <course>13.79</course>
  <speed>0.022360679774997897</speed>
  <fix>3d</fix>
</trkpt>
<trkpt lat="40.0728064" lon="-105.2306583">
  <ele>1595.37</ele>
  <time>2026-08-28T19:10:51Z</time>
  <course>83.94</course>
  <speed>0.02</speed>
  <fix>3d</fix>
</trkpt>
<trkpt lat="40.0728065" lon="-105.2306584">
  <ele>1595.43</ele>
  <time>2026-08-28T19:10:51Z</time>
  <course>13.79</course>
  <speed>0.022360679774997897</speed>
  <fix>3d</fix>
</trkpt>
<trkpt lat="40.0728064" lon="-105.2306582">
  <ele>1595.37</ele>
  <time>2026-08-28T19:10:51Z</time>
  <course>81.04</course>
  <speed>0.02</speed>
  <fix>3d</fix>
</trkpt>
<trkpt lat="40.0728065" lon="-105.2306583">
  <ele>1595.43</ele>
  <time>2026-08-28T19:10:51Z</time>
  <course>13.79</course>
  <speed>0.022360679774997897</speed>
  <fix>3d</fix>
</trkpt>
<trkpt lat="40.0728064" lon="-105.2306581">
  <ele>1595.37</ele>
  <time>2026-08-28T19:10:51Z</time>
  <course>79.19</course>
  <speed>0.03</speed>
  <fix>3d</fix>
</trkpt>
<trkpt lat="40.0728065" lon="-105.2306582">
  <ele>1595.43</ele>
  <time>2026-08-28T19:10:51Z</time>
  <course>13.8</course>
  <speed>0.022360679774997897</speed>
  <fix>3d</fix>
</trkpt>
<trkpt lat="40.0728064" lon="-105.2306581">
  <ele>1595.38</ele>
  <time>2026-08-28T19:10:51Z</time>
  <course>77.9</course>
  <speed>0.03</speed>
  <fix>3d</fix>
</trkpt>
<trkpt lat="40.0728065" lon="-105.2306582">
  <ele>1595.43</ele>
  <time>2026-08-28T19:10:51Z</time>
  <course>13.8</course>
  <speed>0.022360679774997897</speed>
  <fix>3d</fix>
</trkpt>
<trkpt lat="40.0728064" lon="-105.230658">
  <ele>1595.38</ele>
  <time>2026-08-28T19:10:51Z</time>
  <course>77.37</course>
  <speed>0.03</speed>
  <fix>3d</fix>
</trkpt>
<trkpt lat="40.0728065" lon="-105.2306581">
  <ele>1595.43</ele>
  <time>2026-08-28T19:10:51Z</time>
  <course>13.8</course>
  <speed>0.022360679774997897</speed>
  <fix>3d</fix>
</trkpt>
<trkpt lat="40.0728064" lon="-105.2306579">
  <ele>1595.38</ele>
  <time>2026-08-28T19:10:51Z</time>
  <course>77.66</course>
  <speed>0.03</speed>
  <fix>3d</fix>
</trkpt>
<trkpt lat="40.0728066" lon="-105.230658">
  <ele>1595.43</ele>
  <time>2026-08-28T19:10:51Z</time>
  <course>13.79</course>
  <speed>0.0412310562561766</speed>
  <fix>3d</fix>
</trkpt>
<trkpt lat="40.0728064" lon="-105.2306578">
  <ele>1595.38</ele>
  <time>2026-08-28T19:10:51Z</time>
  <course>69.15</course>
  <speed>0.03</speed>
  <fix>3d</fix>
</trkpt>
<trkpt lat="40.0728066" lon="-105.2306579">
  <ele>1595.43</ele>
  <time>2026-08-28T19:10:51Z</time>
  <course>13.9</course>
  <speed>0.044721359549995794</speed>
  <fix>3d</fix>
</trkpt>
<trkpt lat="40.0728064" lon="-105.2306577">
  <ele>1595.38</ele>
  <time>2026-08-28T19:10:51Z</time>
  <course>59.74</course>
  <speed>0.04</speed>
  <fix>3d</fix>
</trkpt>
<trkpt lat="40.0728066" lon="-105.2306578">
  <ele>1595.42</ele>
  <time>2026-08-28T19:10:51Z</time>
  <course>13.95</course>
  <speed>0.044721359549995794</speed>
  <fix>3d</fix>
</trkpt>
<trkpt lat="40.0728064" lon="-105.2306577">
  <ele>1595.38</ele>
  <time>2026-08-28T19:10:51Z</time>
  <course>51.37</course>
  <speed>0.05</speed>
  <fix>3d</fix>
</trkpt>
<trkpt lat="40.0728067" lon="-105.2306577">
  <ele>1595.43</ele>
  <time>2026-08-28T19:10:51Z</time>
  <course>13.87</course>
  <speed>0.04</speed>
  <fix>3d</fix>
</trkpt>
<trkpt lat="40.0728065" lon="-105.2306576">
  <ele>1595.38</ele>
  <time>2026-08-28T19:10:51Z</time>
  <course>43.76</course>
  <speed>0.03</speed>
  <fix>3d</fix>
</trkpt>
<trkpt lat="40.0728067" lon="-105.2306577">
  <ele>1595.43</ele>
  <time>2026-08-28T19:10:51Z</time>
  <course>13.98</course>
  <speed>0.02</speed>
  <fix>3d</fix>
</trkpt>
<trkpt lat="40.0728065" lon="-105.2306575">
  <ele>1595.38</ele>
  <time>2026-08-28T19:10:51Z</time>
  <course>62.06</course>
  <speed>0.02</speed>
  <fix>3d</fix>
</trkpt>
<trkpt lat="40.0728067" lon="-105.2306576">
  <ele>1595.43</ele>
  <time>2026-08-28T19:10:51Z</time>
  <course>14.05</course>
  <speed>0.01414213562373095</speed>
  <fix>3d</fix>
</trkpt>
<trkpt lat="40.0728066" lon="-105.2306574">
  <ele>1595.38</ele>
  <time>2026-08-28T19:10:51Z</time>
  <course>78.42</course>
  <speed>0.02</speed>
  <fix>3d</fix>
</trkpt>
<trkpt lat="40.0728067" lon="-105.2306576">
  <ele>1595.43</ele>
  <time>2026-08-28T19:10:51Z</time>
  <course>13.93</course>
  <speed>0.01</speed>
  <fix>3d</fix>
</trkpt>
<trkpt lat="40.0728066" lon="-105.2306574">
  <ele>1595.38</ele>
  <time>2026-08-28T19:10:51Z</time>
  <course>88.01</course>
  <speed>0.01</speed>
  <fix>3d</fix>
</trkpt>
<trkpt lat="40.0728067" lon="-105.2306575">
  <ele>1595.43</ele>
  <time>2026-08-28T19:10:51Z</time>
  <course>13.93</course>
  <speed>0.0</speed>
  <fix>3d</fix>
</trkpt>
<trkpt lat="40.0728066" lon="-105.2306574">
  <ele>1595.38</ele>
  <time>2026-08-28T19:10:51Z</time>
  <course>111.02</course>
  <speed>0.02</speed>
  <fix>3d</fix>
</trkpt>
<trkpt lat="40.0728066" lon="-105.2306575">
  <ele>1595.44</ele>
  <time>2026-08-28T19:10:51Z</time>
  <course>14.03</course>
  <speed>0.01</speed>
  <fix>3d</fix>
</trkpt>
<trkpt lat="40.0728066" lon="-105.2306573">
  <ele>1595.38</ele>
  <time>2026-08-28T19:10:51Z</time>
  <course>114.23</course>
  <speed>0.03</speed>
  <fix>3d</fix>
</trkpt>
<trkpt lat="40.0728066" lon="-105.2306574">
  <ele>1595.44</ele>
  <time>2026-08-28T19:10:51Z</time>
  <course>14.02</course>
  <speed>0.01</speed>
  <fix>3d</fix>
</trkpt>
<trkpt lat="40.0728066" lon="-105.2306572">
  <ele>1595.38</ele>
  <time>2026-08-28T19:10:51Z</time>
  <course>115.11</course>
  <speed>0.02</speed>
  <fix>3d</fix>
</trkpt>
<trkpt lat="40.0728066" lon="-105.2306574">
  <ele>1595.44</ele>
  <time>2026-08-28T19:10:51Z</time>
  <course>13.9</course>
  <speed>0.0</speed>
  <fix>3d</fix>
</trkpt>
<trkpt lat="40.0728066" lon="-105.2306572">
  <ele>1595.38</ele>
  <time>2026-08-28T19:10:51Z</time>
  <course>126.09</course>
  <speed>0.02</speed>
  <fix>3d</fix>
</trkpt>
<trkpt lat="40.0728066" lon="-105.2306573">
  <ele>1595.44</ele>
  <time>2026-08-28T19:10:51Z</time>
  <course>14.0</course>
  <speed>0.0</speed>
  <fix>3d</fix>
</trkpt>
<trkpt lat="40.0728066" lon="-105.2306572">
  <ele>1595.38</ele>
  <time>2026-08-28T19:10:51Z</time>
  <course>126.54</course>
  <speed>0.02</speed>
  <fix>3d</fix>
</trkpt>
<trkpt lat="40.0728066" lon="-105.2306573">
  <ele>1595.44</ele>
  <time>2026-08-28T19:10:51Z</time>
  <course>14.06</course>
  <speed>0.01</speed>
  <fix>3d</fix>
</trkpt>
<trkpt lat="40.0728065" lon="-105.2306571">
  <ele>1595.38</ele>
  <time>2026-08-28T19:10:51Z</time>
  <course>120.89</course>
  <speed>0.03</speed>
  <fix>3d</fix>
</trkpt>
<trkpt lat="40.0728066" lon="-105.2306572">
  <ele>1595.44</ele>
  <time>2026-08-28T19:10:51Z</time>
  <course>13.96</course>
  <speed>0.0</speed>
  <fix>3d</fix>
</trkpt>
<trkpt lat="40.0728065" lon="-105.230657">
  <ele>1595.38</ele>
  <time>2026-08-28T19:10:51Z</time>
  <course>125.61</course>
  <speed>0.02</speed>
  <fix>3d</fix>
</trkpt>
<trkpt lat="40.0728066" lon="-105.2306572">
  <ele>1595.44</ele>
  <time>2026-08-28T19:10:51Z</time>
  <course>13.94</course>
  <speed>0.0</speed>
  <fix>3d</fix>
</trkpt>
<trkpt lat="40.0728065" lon="-105.2306569">
  <ele>1595.37</ele>
  <time>2026-08-28T19:10:51Z</time>
  <course>134.41</course>
  <speed>0.02</speed>
  <fix>3d</fix>
</trkpt>
<trkpt lat="40.0728066" lon="-105.2306571">
  <ele>1595.45</ele>
  <time>2026-08-28T19:10:51Z</time>
  <course>14.04</course>
  <speed>0.0</speed>
  <fix>3d</fix>
</trkpt>
<trkpt lat="40.0728064" lon="-105.2306569">
  <ele>1595.37</ele>
  <time>2026-08-28T19:10:51Z</time>
  <course>127.38</course>
  <speed>0.03</speed>
  <fix>3d</fix>
</trkpt>
<trkpt lat="40.0728066" lon="-105.2306571">
  <ele>1595.44</ele>
  <time>2026-08-28T19:10:51Z</time>
  <course>14.05</course>
  <speed>0.01</speed>
  <fix>3d</fix>
</trkpt>
<trkpt lat="40.0728064" lon="-105.2306569">
  <ele>1595.37</ele>
  <time>2026-08-28T19:10:51Z</time>
  <course>125.07</course>
  <speed>0.03</speed>
  <fix>3d</fix>
</trkpt>
<trkpt lat="40.0728065" lon="-105.230657">
  <ele>1595.44</ele>
  <time>2026-08-28T19:10:51Z</time>
  <course>13.92</course>
  <speed>0.0</speed>
  <fix>3d</fix>
</trkpt>
<trkpt lat="40.0728064" lon="-105.2306568">
  <ele>1595.36</ele>
  <time>2026-08-28T19:10:51Z</time>
  <course>135.28</course>
  <speed>0.02</speed>
  <fix>3d</fix>
</trkpt>
<trkpt lat="40.0728065" lon="-105.2306569">
  <ele>1595.43</ele>
  <time>2026-08-28T19:10:51Z</time>
  <course>13.97</course>
  <speed>0.0</speed>
  <fix>3d</fix>
</trkpt>
<trkpt lat="40.0728063" lon="-105.2306567">
  <ele>1595.36</ele>
  <time>2026-08-28T19:10:51Z</time>
  <course>134.11</course>
  <speed>0.02</speed>
  <fix>3d</fix>
</trkpt>
<trkpt lat="40.0728065" lon="-105.2306569">
  <ele>1595.43</ele>
  <time>2026-08-28T19:10:51Z</time>
  <course>14.04</course>
  <speed>0.01</speed>
  <fix>3d</fix>
</trkpt>
<trkpt lat="40.0728062" lon="-105.2306567">
  <ele>1595.36</ele>
  <time>2026-08-28T19:10:51Z</time>
  <course>126.69</course>
  <speed>0.03</speed>
  <fix>3d</fix>
</trkpt>
<trkpt lat="40.0728064" lon="-105.2306569">
  <ele>1595.43</ele>
  <time>2026-08-28T19:10:51Z</time>
  <course>13.82</course>
  <speed>0.022360679774997897</speed>
  <fix>3d</fix>
</trkpt>
<trkpt lat="40.0728062" lon="-105.2306567">
  <ele>1595.36</ele>
  <time>2026-08-28T19:10:51Z</time>
  <course>154.74</course>
  <speed>0.03</speed>
  <fix>3d</fix>
</trkpt>
<trkpt lat="40.0728063" lon="-105.2306568">
  <ele>1595.42</ele>
  <time>2026-08-28T19:10:51Z</time>
  <course>13.8</course>
  <speed>0.02</speed>
  <fix>3d</fix>
</trkpt>
<trkpt lat="40.0728061" lon="-105.2306567">
  <ele>1595.36</ele>
  <time>2026-08-28T19:10:51Z</time>
  <course>167.7</course>
  <speed>0.04</speed>
  <fix>3d</fix>
</trkpt>
<trkpt lat="40.0728062" lon="-105.2306568">
  <ele>1595.42</ele>
  <time>2026-08-28T19:10:51Z</time>
  <course>13.77</course>
  <speed>0.01</speed>
  <fix>3d</fix>
</trkpt>
<trkpt lat="40.0728061" lon="-105.2306566">
  <ele>1595.36</ele>
  <time>2026-08-28T19:10:51Z</time>
  <course>157.51</course>
  <speed>0.04</speed>
  <fix>3d</fix>
</trkpt>
<trkpt lat="40.0728061" lon="-105.2306567">
  <ele>1595.42</ele>
  <time>2026-08-28T19:10:51Z</time>
  <course>13.77</course>
  <speed>0.01</speed>
  <fix>3d</fix>
</trkpt>
<trkpt lat="40.072806" lon="-105.2306565">
  <ele>1595.36</ele>
  <time>2026-08-28T19:10:51Z</time>
  <course>150.26</course>
  <speed>0.04</speed>
  <fix>3d</fix>
</trkpt>
<trkpt lat="40.0728061" lon="-105.2306567">
  <ele>1595.43</ele>
  <time>2026-08-28T19:10:51Z</time>
  <course>13.76</course>
  <speed>0.0</speed>
  <fix>3d</fix>
</trkpt>
<trkpt lat="40.072806" lon="-105.2306565">
  <ele>1595.36</ele>
  <time>2026-08-28T19:10:51Z</time>
  <course>140.86</course>
  <speed>0.03</speed>
  <fix>3d</fix>
</trkpt>
<trkpt lat="40.0728061" lon="-105.2306566">
  <ele>1595.43</ele>
  <time>2026-08-28T19:10:51Z</time>
  <course>13.77</course>
  <speed>0.01</speed>
  <fix>3d</fix>
</trkpt>
<trkpt lat="40.0728059" lon="-105.2306565">
  <ele>1595.36</ele>
  <time>2026-08-28T19:10:51Z</time>
  <course>132.43</course>
  <speed>0.03</speed>
  <fix>3d</fix>
</trkpt>
<trkpt lat="40.072806" lon="-105.2306566">
  <ele>1595.42</ele>
  <time>2026-08-28T19:10:51Z</time>
  <course>13.78</course>
  <speed>0.01</speed>
  <fix>3d</fix>
</trkpt>
<trkpt lat="40.0728059" lon="-105.2306564">
  <ele>1595.36</ele>
  <time>2026-08-28T19:10:51Z</time>
  <course>123.97</course>
  <speed>0.03</speed>
  <fix>3d</fix>
</trkpt>
<trkpt lat="40.072806" lon="-105.2306565">
  <ele>1595.43</ele>
  <time>2026-08-28T19:10:51Z</time>
  <course>13.78</course>
  <speed>0.01414213562373095</speed>
  <fix>3d</fix>
</trkpt>
<trkpt lat="40.0728059" lon="-105.2306563">
  <ele>1595.36</ele>
  <time>2026-08-28T19:10:51Z</time>
  <course>115.37</course>
  <speed>0.02</speed>
  <fix>3d</fix>
</trkpt>
<trkpt lat="40.072806" lon="-105.2306564">
  <ele>1595.43</ele>
  <time>2026-08-28T19:10:51Z</time>
  <course>13.78</course>
  <speed>0.01414213562373095</speed>
  <fix>3d</fix>
</trkpt>
<trkpt lat="40.0728058" lon="-105.2306562">
  <ele>1595.36</ele>
  <time>2026-08-28T19:10:51Z</time>
  <course>107.37</course>
  <speed>0.02</speed>
  <fix>3d</fix>
</trkpt>
<trkpt lat="40.072806" lon="-105.2306564">
  <ele>1595.44</ele>
  <time>2026-08-28T19:10:51Z</time>
  <course>13.8</course>
  <speed>0.01414213562373095</speed>
  <fix>3d</fix>
</trkpt>
<trkpt lat="40.0728058" lon="-105.2306562">
  <ele>1595.36</ele>
  <time>2026-08-28T19:10:51Z</time>
  <course>100.24</course>
  <speed>0.02</speed>
  <fix>3d</fix>
</trkpt>
<trkpt lat="40.072806" lon="-105.2306563">
  <ele>1595.44</ele>
  <time>2026-08-28T19:10:51Z</time>
  <course>13.8</course>
  <speed>0.01414213562373095</speed>
  <fix>3d</fix>
</trkpt>
<trkpt lat="40.0728058" lon="-105.2306561">
  <ele>1595.36</ele>
  <time>2026-08-28T19:10:51Z</time>
  <course>94.95</course>
  <speed>0.02</speed>
  <fix>3d</fix>
</trkpt>
<trkpt lat="40.072806" lon="-105.2306562">
  <ele>1595.44</ele>
  <time>2026-08-28T19:10:51Z</time>
  <course>13.79</course>
  <speed>0.01414213562373095</speed>
  <fix>3d</fix>
</trkpt>
<trkpt lat="40.0728058" lon="-105.230656">
  <ele>1595.36</ele>
  <time>2026-08-28T19:10:51Z</time>
  <course>91.97</course>
  <speed>0.02</speed>
  <fix>3d</fix>
</trkpt>
<trkpt lat="40.072806" lon="-105.2306562">
  <ele>1595.44</ele>
  <time>2026-08-28T19:10:51Z</time>
  <course>13.81</course>
  <speed>0.01414213562373095</speed>
  <fix>3d</fix>
</trkpt>
<trkpt lat="40.0728058" lon="-105.230656">
  <ele>1595.36</ele>
  <time>2026-08-28T19:10:51Z</time>
  <course>90.62</course>
  <speed>0.02</speed>
  <fix>3d</fix>
</trkpt>
<trkpt lat="40.072806" lon="-105.2306561">
  <ele>1595.44</ele>
  <time>2026-08-28T19:10:51Z</time>
  <course>13.81</course>
  <speed>0.01414213562373095</speed>
  <fix>3d</fix>
</trkpt>
<trkpt lat="40.0728058" lon="-105.2306559">
  <ele>1595.36</ele>
  <time>2026-08-28T19:10:51Z</time>
  <course>90.59</course>
  <speed>0.02</speed>
  <fix>3d</fix>
</trkpt>
<trkpt lat="40.072806" lon="-105.230656">
  <ele>1595.44</ele>
  <time>2026-08-28T19:10:51Z</time>
  <course>13.82</course>
  <speed>0.01414213562373095</speed>
  <fix>3d</fix>
</trkpt>
<trkpt lat="40.0728058" lon="-105.2306559">
  <ele>1595.36</ele>
  <time>2026-08-28T19:10:51Z</time>
  <course>90.76</course>
  <speed>0.02</speed>
  <fix>3d</fix>
</trkpt>
<trkpt lat="40.072806" lon="-105.2306559">
  <ele>1595.44</ele>
  <time>2026-08-28T19:10:51Z</time>
  <course>13.81</course>
  <speed>0.01414213562373095</speed>
  <fix>3d</fix>
</trkpt>
<trkpt lat="40.0728058" lon="-105.2306558">
  <ele>1595.35</ele>
  <time>2026-08-28T19:10:51Z</time>
  <course>90.47</course>
  <speed>0.02</speed>
  <fix>3d</fix>
</trkpt>
<trkpt lat="40.072806" lon="-105.2306559">
  <ele>1595.44</ele>
  <time>2026-08-28T19:10:51Z</time>
  <course>13.81</course>
  <speed>0.0412310562561766</speed>
  <fix>3d</fix>
</trkpt>
<trkpt lat="40.0728058" lon="-105.2306557">
  <ele>1595.35</ele>
  <time>2026-08-28T19:10:51Z</time>
  <course>78.3</course>
  <speed>0.03</speed>
  <fix>3d</fix>
</trkpt>
<trkpt lat="40.072806" lon="-105.2306558">
  <ele>1595.43</ele>
  <time>2026-08-28T19:10:51Z</time>
  <course>13.91</course>
  <speed>0.044721359549995794</speed>
  <fix>3d</fix>
</trkpt>
<trkpt lat="40.0728058" lon="-105.2306556">
  <ele>1595.35</ele>
  <time>2026-08-28T19:10:51Z</time>
  <course>65.82</course>
  <speed>0.04</speed>
  <fix>3d</fix>
</trkpt>
<trkpt lat="40.072806" lon="-105.2306557">
  <ele>1595.43</ele>
  <time>2026-08-28T19:10:51Z</time>
  <course>13.99</course>
  <speed>0.044721359549995794</speed>
  <fix>3d</fix>
</trkpt>
<trkpt lat="40.0728058" lon="-105.2306555">
  <ele>1595.35</ele>
  <time>2026-08-28T19:10:51Z</time>
  <course>58.72</course>
  <speed>0.04</speed>
  <fix>3d</fix>
</trkpt>
<trkpt lat="40.072806" lon="-105.2306556">
  <ele>1595.42</ele>
  <time>2026-08-28T19:10:51Z</time>
  <course>13.89</course>
  <speed>0.03</speed>
  <fix>3d</fix>
</trkpt>
<trkpt lat="40.0728058" lon="-105.2306555">
  <ele>1595.35</ele>
  <time>2026-08-28T19:10:51Z</time>
  <course>49.47</course>
  <speed>0.03</speed>
  <fix>3d</fix>
</trkpt>
<trkpt lat="40.072806" lon="-105.2306556">
  <ele>1595.42</ele>
  <time>2026-08-28T19:10:51Z</time>
  <course>13.91</course>
  <speed>0.02</speed>
  <fix>3d</fix>
</trkpt>
<trkpt lat="40.0728059" lon="-105.2306554">
  <ele>1595.34</ele>
  <time>2026-08-28T19:10:51Z</time>
  <course>60.75</course>
  <speed>0.02</speed>
  <fix>3d</fix>
</trkpt>
<trkpt lat="40.072806" lon="-105.2306555">
  <ele>1595.41</ele>
  <time>2026-08-28T19:10:51Z</time>
  <course>13.98</course>
  <speed>0.01414213562373095</speed>
  <fix>3d</fix>
</trkpt>
<trkpt lat="40.0728059" lon="-105.2306553">
  <ele>1595.34</ele>
  <time>2026-08-28T19:10:51Z</time>
  <course>84.05</course>
  <speed>0.02</speed>
  <fix>3d</fix>
</trkpt>
<trkpt lat="40.072806" lon="-105.2306555">
  <ele>1595.41</ele>
  <time>2026-08-28T19:10:51Z</time>
  <course>13.96</course>
  <speed>0.01414213562373095</speed>
  <fix>3d</fix>
</trkpt>
<trkpt lat="40.0728059" lon="-105.2306553">
  <ele>1595.34</ele>
  <time>2026-08-28T19:10:51Z</time>
  <course>94.31</course>
  <speed>0.02</speed>
  <fix>3d</fix>
</trkpt>
<trkpt lat="40.072806" lon="-105.2306554">
  <ele>1595.41</ele>
  <time>2026-08-28T19:10:51Z</time>
  <course>13.83</course>
  <speed>0.01</speed>
  <fix>3d</fix>
</trkpt>
<trkpt lat="40.0728059" lon="-105.2306552">
  <ele>1595.35</ele>
  <time>2026-08-28T19:10:51Z</time>
  <course>106.77</course>
  <speed>0.01</speed>
  <fix>3d</fix>
</trkpt>
<trkpt lat="40.072806" lon="-105.2306554">
  <ele>1595.42</ele>
  <time>2026-08-28T19:10:51Z</time>
  <course>13.87</course>
  <speed>0.0</speed>
  <fix>3d</fix>
</trkpt>
<trkpt lat="40.0728059" lon="-105.2306552">
  <ele>1595.35</ele>
  <time>2026-08-28T19:10:51Z</time>
  <course>117.03</course>
  <speed>0.02</speed>
  <fix>3d</fix>
</trkpt>
<trkpt lat="40.072806" lon="-105.2306553">
  <ele>1595.43</ele>
  <time>2026-08-28T19:10:51Z</time>
  <course>13.96</course>
  <speed>0.01</speed>
  <fix>3d</fix>
</trkpt>
<trkpt lat="40.0728059" lon="-105.2306551">
  <ele>1595.35</ele>
  <time>2026-08-28T19:10:51Z</time>
  <course>116.48</course>
  <speed>0.03</speed>
  <fix>3d</fix>
</trkpt>
<trkpt lat="40.072806" lon="-105.2306553">
  <ele>1595.44</ele>
  <time>2026-08-28T19:10:51Z</time>
  <course>13.97</course>
  <speed>0.01</speed>
  <fix>3d</fix>
</trkpt>
<trkpt lat="40.0728059" lon="-105.230655">
  <ele>1595.36</ele>
  <time>2026-08-28T19:10:51Z</time>
  <course>118.62</course>
  <speed>0.02</speed>
  <fix>3d</fix>
</trkpt>
<trkpt lat="40.072806" lon="-105.2306552">
  <ele>1595.44</ele>
  <time>2026-08-28T19:10:51Z</time>
  <course>13.88</course>
  <speed>0.0</speed>
  <fix>3d</fix>
</trkpt>
<trkpt lat="40.0728059" lon="-105.230655">
  <ele>1595.36</ele>
  <time>2026-08-28T19:10:51Z</time>
  <course>127.7</course>
  <speed>0.02</speed>
  <fix>3d</fix>
</trkpt>
<trkpt lat="40.072806" lon="-105.2306551">
  <ele>1595.44</ele>
  <time>2026-08-28T19:10:51Z</time>
  <course>13.96</course>
  <speed>0.0</speed>
  <fix>3d</fix>
</trkpt>
<trkpt lat="40.0728059" lon="-105.230655">
  <ele>1595.36</ele>
  <time>2026-08-28T19:10:51Z</time>
  <course>127.25</course>
  <speed>0.02</speed>
  <fix>3d</fix>
</trkpt>
<trkpt lat="40.072806" lon="-105.2306551">
  <ele>1595.44</ele>
  <time>2026-08-28T19:10:51Z</time>
  <course>14.02</course>
  <speed>0.01</speed>
  <fix>3d</fix>
</trkpt>
<trkpt lat="40.0728058" lon="-105.2306549">
  <ele>1595.36</ele>
  <time>2026-08-28T19:10:51Z</time>
  <course>121.84</course>
  <speed>0.03</speed>
  <fix>3d</fix>
</trkpt>
<trkpt lat="40.0728059" lon="-105.230655">
  <ele>1595.44</ele>
  <time>2026-08-28T19:10:51Z</time>
  <course>13.99</course>
  <speed>0.01</speed>
  <fix>3d</fix>
</trkpt>
<trkpt lat="40.0728058" lon="-105.2306548">
  <ele>1595.36</ele>
  <time>2026-08-28T19:10:51Z</time>
  <course>123.34</course>
  <speed>0.02</speed>
  <fix>3d</fix>
</trkpt>
<trkpt lat="40.0728059" lon="-105.230655">
  <ele>1595.44</ele>
  <time>2026-08-28T19:10:51Z</time>
  <course>13.89</course>
  <speed>0.0</speed>
  <fix>3d</fix>
</trkpt>
<trkpt lat="40.0728058" lon="-105.2306548">
  <ele>1595.36</ele>
  <time>2026-08-28T19:10:51Z</time>
  <course>131.71</course>
  <speed>0.02</speed>
  <fix>3d</fix>
</trkpt>
<trkpt lat="40.0728059" lon="-105.2306549">
  <ele>1595.44</ele>
  <time>2026-08-28T19:10:51Z</time>
  <course>13.96</course>
  <speed>0.0</speed>
  <fix>3d</fix>
</trkpt>
<trkpt lat="40.0728057" lon="-105.2306548">
  <ele>1595.35</ele>
  <time>2026-08-28T19:10:51Z</time>
  <course>129.01</course>
  <speed>0.02</speed>
  <fix>3d</fix>
</trkpt>
<trkpt lat="40.0728059" lon="-105.2306549">
  <ele>1595.44</ele>
  <time>2026-08-28T19:10:51Z</time>
  <course>14.01</course>
  <speed>0.01</speed>
  <fix>3d</fix>
</trkpt>
<trkpt lat="40.0728056" lon="-105.2306547">
  <ele>1595.35</ele>
  <time>2026-08-28T19:10:51Z</time>
  <course>123.39</course>
  <speed>0.03</speed>
  <fix>3d</fix>
</trkpt>
<trkpt lat="40.0728058" lon="-105.2306548">
  <ele>1595.44</ele>
  <time>2026-08-28T19:10:51Z</time>
  <course>13.97</course>
  <speed>0.0</speed>
  <fix>3d</fix>
</trkpt>
<trkpt lat="40.0728056" lon="-105.2306547">
  <ele>1595.35</ele>
  <time>2026-08-28T19:10:51Z</time>
  <course>126.01</course>
  <speed>0.02</speed>
  <fix>3d</fix>
</trkpt>
<trkpt lat="40.0728058" lon="-105.2306548">
  <ele>1595.43</ele>
  <time>2026-08-28T19:10:51Z</time>
  <course>13.87</course>
  <speed>0.022360679774997897</speed>
  <fix>3d</fix>
</trkpt>
<trkpt lat="40.0728056" lon="-105.2306546">
  <ele>1595.35</ele>
  <time>2026-08-28T19:10:51Z</time>
  <course>151.83</course>
  <speed>0.03</speed>
  <fix>3d</fix>
</trkpt>
<trkpt lat="40.0728057" lon="-105.2306548">
  <ele>1595.43</ele>
  <time>2026-08-28T19:10:51Z</time>
  <course>13.84</course>
  <speed>0.02</speed>
  <fix>3d</fix>
</trkpt>
<trkpt lat="40.0728055" lon="-105.2306546">
  <ele>1595.35</ele>
  <time>2026-08-28T19:10:51Z</time>
  <course>161.68</course>
  <speed>0.04</speed>
  <fix>3d</fix>
</trkpt>
<trkpt lat="40.0728056" lon="-105.2306547">
  <ele>1595.43</ele>
  <time>2026-08-28T19:10:51Z</time>
  <course>13.78</course>
  <speed>0.01</speed>
  <fix>3d</fix>
</trkpt>
<trkpt lat="40.0728055" lon="-105.2306546">
  <ele>1595.35</ele>
  <time>2026-08-28T19:10:51Z</time>
  <course>158.78</course>
  <speed>0.04</speed>
  <fix>3d</fix>
</trkpt>
<trkpt lat="40.0728056" lon="-105.2306547">
  <ele>1595.43</ele>
  <time>2026-08-28T19:10:51Z</time>
  <course>13.78</course>
  <speed>0.01</speed>
  <fix>3d</fix>
</trkpt>
<trkpt lat="40.0728054" lon="-105.2306545">
  <ele>1595.35</ele>
  <time>2026-08-28T19:10:51Z</time>
  <course>150.0</course>
  <speed>0.04</speed>
  <fix>3d</fix>
</trkpt>
<trkpt lat="40.0728055" lon="-105.2306546">
  <ele>1595.43</ele>
  <time>2026-08-28T19:10:51Z</time>
  <course>13.78</course>
  <speed>0.0</speed>
  <fix>3d</fix>
</trkpt>
<trkpt lat="40.0728054" lon="-105.2306544">
  <ele>1595.34</ele>
  <time>2026-08-28T19:10:51Z</time>
  <course>139.21</course>
  <speed>0.03</speed>
  <fix>3d</fix>
</trkpt>
<trkpt lat="40.0728055" lon="-105.2306546">
  <ele>1595.43</ele>
  <time>2026-08-28T19:10:51Z</time>
  <course>13.78</course>
  <speed>0.0</speed>
  <fix>3d</fix>
</trkpt>
<trkpt lat="40.0728053" lon="-105.2306543">
  <ele>1595.34</ele>
  <time>2026-08-28T19:10:51Z</time>
  <course>130.16</course>
  <speed>0.03</speed>
  <fix>3d</fix>
</trkpt>
<trkpt lat="40.0728054" lon="-105.2306545">
  <ele>1595.43</ele>
  <time>2026-08-28T19:10:51Z</time>
  <course>13.79</course>
  <speed>0.01</speed>
  <fix>3d</fix>
</trkpt>
<trkpt lat="40.0728053" lon="-105.2306543">
  <ele>1595.34</ele>
  <time>2026-08-28T19:10:51Z</time>
  <course>121.19</course>
  <speed>0.03</speed>
  <fix>3d</fix>
</trkpt>
<trkpt lat="40.0728054" lon="-105.2306544">
  <ele>1595.43</ele>
  <time>2026-08-28T19:10:51Z</time>
  <course>13.79</course>
  <speed>0.01</speed>
  <fix>3d</fix>
</trkpt>
<trkpt lat="40.0728053" lon="-105.2306543">
  <ele>1595.34</ele>
  <time>2026-08-28T19:10:51Z</time>
  <course>113.36</course>
  <speed>0.02</speed>
  <fix>3d</fix>
</trkpt>
<trkpt lat="40.0728054" lon="-105.2306544">
  <ele>1595.43</ele>
  <time>2026-08-28T19:10:51Z</time>
  <course>13.8</course>
  <speed>0.01414213562373095</speed>
  <fix>3d</fix>
</trkpt>
<trkpt lat="40.0728053" lon="-105.2306542">
  <ele>1595.34</ele>
  <time>2026-08-28T19:10:51Z</time>
  <course>105.89</course>
  <speed>0.02</speed>
  <fix>3d</fix>
</trkpt>
<trkpt lat="40.0728054" lon="-105.2306543">
  <ele>1595.43</ele>
  <time>2026-08-28T19:10:51Z</time>
  <course>13.79</course>
  <speed>0.01414213562373095</speed>
  <fix>3d</fix>
</trkpt>
<trkpt lat="40.0728053" lon="-105.2306541">
  <ele>1595.34</ele>
  <time>2026-08-28T19:10:51Z</time>
  <course>98.81</course>
  <speed>0.02</speed>
  <fix>3d</fix>
</trkpt>
<trkpt lat="40.0728054" lon="-105.2306543">
  <ele>1595.43</ele>
  <time>2026-08-28T19:10:51Z</time>
  <course>13.79</course>
  <speed>0.022360679774997897</speed>
  <fix>3d</fix>
</trkpt>
<trkpt lat="40.0728053" lon="-105.2306541">
  <ele>1595.34</ele>
  <time>2026-08-28T19:10:51Z</time>
  <course>93.04</course>
  <speed>0.02</speed>
  <fix>3d</fix>
</trkpt>
<trkpt lat="40.0728054" lon="-105.2306542">
  <ele>1595.43</ele>
  <time>2026-08-28T19:10:51Z</time>
  <course>13.79</course>
  <speed>0.022360679774997897</speed>
  <fix>3d</fix>
</trkpt>
<trkpt lat="40.0728053" lon="-105.230654">
  <ele>1595.34</ele>
  <time>2026-08-28T19:10:51Z</time>
  <course>88.6</course>
  <speed>0.02</speed>
  <fix>3d</fix>
</trkpt>
<trkpt lat="40.0728054" lon="-105.2306541">
  <ele>1595.42</ele>
  <time>2026-08-28T19:10:51Z</time>
  <course>13.79</course>
  <speed>0.022360679774997897</speed>
  <fix>3d</fix>
</trkpt>
<trkpt lat="40.0728053" lon="-105.230654">
  <ele>1595.34</ele>
  <time>2026-08-28T19:10:51Z</time>
  <course>85.15</course>
  <speed>0.02</speed>
  <fix>3d</fix>
</trkpt>
<trkpt lat="40.0728054" lon="-105.2306541">
  <ele>1595.42</ele>
  <time>2026-08-28T19:10:51Z</time>
  <course>13.78</course>
  <speed>0.022360679774997897</speed>
  <fix>3d</fix>
</trkpt>
<trkpt lat="40.0728053" lon="-105.2306539">
  <ele>1595.34</ele>
  <time>2026-08-28T19:10:51Z</time>
  <course>82.37</course>
  <speed>0.02</speed>
  <fix>3d</fix>
</trkpt>
<trkpt lat="40.0728054" lon="-105.230654">
  <ele>1595.42</ele>
  <time>2026-08-28T19:10:51Z</time>
  <course>13.78</course>
  <speed>0.022360679774997897</speed>
  <fix>3d</fix>
</trkpt>
<trkpt lat="40.0728053" lon="-105.2306538">
  <ele>1595.34</ele>
  <time>2026-08-28T19:10:51Z</time>
  <course>80.92</course>
  <speed>0.02</speed>
  <fix>3d</fix>
</trkpt>
<trkpt lat="40.0728054" lon="-105.2306539">
  <ele>1595.42</ele>
  <time>2026-08-28T19:10:51Z</time>
  <course>13.79</course>
  <speed>0.022360679774997897</speed>
  <fix>3d</fix>
</trkpt>
<trkpt lat="40.0728053" lon="-105.2306538">
  <ele>1595.34</ele>
  <time>2026-08-28T19:10:51Z</time>
  <course>81.02</course>
  <speed>0.02</speed>
  <fix>3d</fix>
</trkpt>
<trkpt lat="40.0728054" lon="-105.2306539">
  <ele>1595.42</ele>
  <time>2026-08-28T19:10:51Z</time>
  <course>13.79</course>
  <speed>0.0316227766016838</speed>
  <fix>3d</fix>
</trkpt>
<trkpt lat="40.0728053" lon="-105.2306537">
  <ele>1595.34</ele>
  <time>2026-08-28T19:10:51Z</time>
  <course>79.18</course>
  <speed>0.02</speed>
  <fix>3d</fix>
</trkpt>
<trkpt lat="40.0728054" lon="-105.2306538">
  <ele>1595.43</ele>
  <time>2026-08-28T19:10:51Z</time>
  <course>13.88</course>
  <speed>0.05</speed>
  <fix>3d</fix>
</trkpt>
<trkpt lat="40.0728053" lon="-105.2306536">
  <ele>1595.34</ele>
  <time>2026-08-28T19:10:51Z</time>
  <course>63.34</course>
  <speed>0.04</speed>
  <fix>3d</fix>
</trkpt>
<trkpt lat="40.0728055" lon="-105.2306537">
  <ele>1595.43</ele>
  <time>2026-08-28T19:10:51Z</time>
  <course>13.85</course>
  <speed>0.0412310562561766</speed>
  <fix>3d</fix>
</trkpt>
<trkpt lat="40.0728053" lon="-105.2306535">
  <ele>1595.34</ele>
  <time>2026-08-28T19:10:51Z</time>
  <course>49.38</course>
  <speed>0.04</speed>
  <fix>3d</fix>
</trkpt>
<trkpt lat="40.0728055" lon="-105.2306536">
  <ele>1595.43</ele>
  <time>2026-08-28T19:10:51Z</time>
  <course>13.92</course>
  <speed>0.03</speed>
  <fix>3d</fix>
</trkpt>
<trkpt lat="40.0728053" lon="-105.2306534">
  <ele>1595.35</ele>
  <time>2026-08-28T19:10:51Z</time>
  <course>49.49</course>
  <speed>0.03</speed>
  <fix>3d</fix>
</trkpt>
<trkpt lat="40.0728055" lon="-105.2306536">
  <ele>1595.43</ele>
  <time>2026-08-28T19:10:51Z</time>
  <course>14.01</course>
  <speed>0.022360679774997897</speed>
  <fix>3d</fix>
</trkpt>
<trkpt lat="40.0728053" lon="-105.2306534">
  <ele>1595.35</ele>
  <time>2026-08-28T19:10:51Z</time>
  <course>65.06</course>
  <speed>0.03</speed>
  <fix>3d</fix>
</trkpt>
<trkpt lat="40.0728055" lon="-105.2306535">
  <ele>1595.42</ele>
  <time>2026-08-28T19:10:51Z</time>
  <course>13.99</course>
  <speed>0.01414213562373095</speed>
  <fix>3d</fix>
</trkpt>
<trkpt lat="40.0728054" lon="-105.2306534">
  <ele>1595.35</ele>
  <time>2026-08-28T19:10:51Z</time>
  <course>71.95</course>
  <speed>0.02</speed>
  <fix>3d</fix>
</trkpt>
<trkpt lat="40.0728055" lon="-105.2306535">
  <ele>1595.42</ele>
  <time>2026-08-28T19:10:51Z</time>
  <course>13.88</course>
  <speed>0.01</speed>
  <fix>3d</fix>
</trkpt>
<trkpt lat="40.0728054" lon="-105.2306533">
  <ele>1595.35</ele>
  <time>2026-08-28T19:10:51Z</time>
  <course>90.21</course>
  <speed>0.01</speed>
  <fix>3d</fix>
</trkpt>
<trkpt lat="40.0728055" lon="-105.2306534">
  <ele>1595.42</ele>
  <time>2026-08-28T19:10:51Z</time>
  <course>13.97</course>
  <speed>0.0</speed>
  <fix>3d</fix>
</trkpt>
<trkpt lat="40.0728054" lon="-105.2306532">
  <ele>1595.35</ele>
  <time>2026-08-28T19:10:51Z</time>
  <course>111.16</course>
  <speed>0.02</speed>
  <fix>3d</fix>
</trkpt>
<trkpt lat="40.0728055" lon="-105.2306534">
  <ele>1595.42</ele>
  <time>2026-08-28T19:10:51Z</time>
  <course>14.02</course>
  <speed>0.01</speed>
  <fix>3d</fix>
</trkpt>
<trkpt lat="40.0728054" lon="-105.2306531">
  <ele>1595.35</ele>
  <time>2026-08-28T19:10:51Z</time>
  <course>112.69</course>
  <speed>0.03</speed>
  <fix>3d</fix>
</trkpt>
<trkpt lat="40.0728055" lon="-105.2306533">
  <ele>1595.42</ele>
  <time>2026-08-28T19:10:51Z</time>
  <course>13.9</course>
  <speed>0.0</speed>
  <fix>3d</fix>
</trkpt>
<trkpt lat="40.0728054" lon="-105.2306531">
  <ele>1595.35</ele>
  <time>2026-08-28T19:10:51Z</time>
  <course>118.9</course>
  <speed>0.02</speed>
  <fix>3d</fix>
</trkpt>
<trkpt lat="40.0728055" lon="-105.2306532">
  <ele>1595.42</ele>
  <time>2026-08-28T19:10:51Z</time>
  <course>13.88</course>
  <speed>0.0</speed>
  <fix>3d</fix>
</trkpt>
<trkpt lat="40.0728054" lon="-105.2306531">
  <ele>1595.36</ele>
  <time>2026-08-28T19:10:51Z</time>
  <course>128.49</course>
  <speed>0.02</speed>
  <fix>3d</fix>
</trkpt>
<trkpt lat="40.0728055" lon="-105.2306532">
  <ele>1595.43</ele>
  <time>2026-08-28T19:10:51Z</time>
  <course>13.98</course>
  <speed>0.0</speed>
  <fix>3d</fix>
</trkpt>
<trkpt lat="40.0728053" lon="-105.230653">
  <ele>1595.36</ele>
  <time>2026-08-28T19:10:51Z</time>
  <course>123.47</course>
  <speed>0.03</speed>
  <fix>3d</fix>
</trkpt>
<trkpt lat="40.0728055" lon="-105.2306531">
  <ele>1595.44</ele>
  <time>2026-08-28T19:10:51Z</time>
  <course>14.01</course>
  <speed>0.01</speed>
  <fix>3d</fix>
</trkpt>
<trkpt lat="40.0728053" lon="-105.2306529">
  <ele>1595.36</ele>
  <time>2026-08-28T19:10:51Z</time>
  <course>121.39</course>
  <speed>0.03</speed>
  <fix>3d</fix>
</trkpt>
<trkpt lat="40.0728054" lon="-105.2306531">
  <ele>1595.44</ele>
  <time>2026-08-28T19:10:51Z</time>
  <course>13.9</course>
  <speed>0.0</speed>
  <fix>3d</fix>
</trkpt>
<trkpt lat="40.0728053" lon="-105.2306529">
  <ele>1595.36</ele>
  <time>2026-08-28T19:10:51Z</time>
  <course>130.88</course>
  <speed>0.02</speed>
  <fix>3d</fix>
</trkpt>
<trkpt lat="40.0728054" lon="-105.230653">
  <ele>1595.44</ele>
  <time>2026-08-28T19:10:51Z</time>
  <course>13.99</course>
  <speed>0.0</speed>
  <fix>3d</fix>
</trkpt>
<trkpt lat="40.0728053" lon="-105.2306529">
  <ele>1595.36</ele>
  <time>2026-08-28T19:10:51Z</time>
  <course>132.31</course>
  <speed>0.02</speed>
  <fix>3d</fix>
</trkpt>
<trkpt lat="40.0728054" lon="-105.230653">
  <ele>1595.44</ele>
  <time>2026-08-28T19:10:51Z</time>
  <course>14.05</course>
  <speed>0.01</speed>
  <fix>3d</fix>
</trkpt>
<trkpt lat="40.0728052" lon="-105.2306528">
  <ele>1595.36</ele>
  <time>2026-08-28T19:10:51Z</time>
  <course>124.67</course>
  <speed>0.03</speed>
  <fix>3d</fix>
</trkpt>
<trkpt lat="40.0728054" lon="-105.2306529">
  <ele>1595.43</ele>
  <time>2026-08-28T19:10:51Z</time>
  <course>14.0</course>
  <speed>0.0</speed>
  <fix>3d</fix>
</trkpt>
<trkpt lat="40.0728052" lon="-105.2306528">
  <ele>1595.36</ele>
  <time>2026-08-28T19:10:51Z</time>
  <course>126.18</course>
  <speed>0.02</speed>
  <fix>3d</fix>
</trkpt>
<trkpt lat="40.0728053" lon="-105.2306529">
  <ele>1595.43</ele>
  <time>2026-08-28T19:10:52Z</time>
  <course>13.9</course>
  <speed>0.0</speed>
  <fix>3d</fix>
</trkpt>
<trkpt lat="40.0728052" lon="-105.2306527">
  <ele>1595.36</ele>
  <time>2026-08-28T19:10:52Z</time>
  <course>136.0</course>
  <speed>0.02</speed>
  <fix>3d</fix>
</trkpt>
<trkpt lat="40.0728053" lon="-105.2306528">
  <ele>1595.44</ele>
  <time>2026-08-28T19:10:52Z</time>
  <course>13.99</course>
  <speed>0.0</speed>
  <fix>3d</fix>
</trkpt>
<trkpt lat="40.0728051" lon="-105.2306526">
  <ele>1595.36</ele>
  <time>2026-08-28T19:10:52Z</time>
  <course>130.42</course>
  <speed>0.03</speed>
  <fix>3d</fix>
</trkpt>
<trkpt lat="40.0728053" lon="-105.2306528">
  <ele>1595.44</ele>
  <time>2026-08-28T19:10:52Z</time>
  <course>14.05</course>
  <speed>0.01</speed>
  <fix>3d</fix>
</trkpt>
<trkpt lat="40.072805" lon="-105.2306526">
  <ele>1595.36</ele>
  <time>2026-08-28T19:10:52Z</time>
  <course>125.42</course>
  <speed>0.03</speed>
  <fix>3d</fix>
</trkpt>
<trkpt lat="40.0728052" lon="-105.2306527">
  <ele>1595.44</ele>
  <time>2026-08-28T19:10:52Z</time>
  <course>13.85</course>
  <speed>0.022360679774997897</speed>
  <fix>3d</fix>
</trkpt>
<trkpt lat="40.072805" lon="-105.2306526">
  <ele>1595.36</ele>
  <time>2026-08-28T19:10:52Z</time>
  <course>156.42</course>
  <speed>0.03</speed>
  <fix>3d</fix>
</trkpt>
<trkpt lat="40.0728051" lon="-105.2306527">
  <ele>1595.44</ele>
  <time>2026-08-28T19:10:52Z</time>
  <course>13.84</course>
  <speed>0.02</speed>
  <fix>3d</fix>
</trkpt>
<trkpt lat="40.0728049" lon="-105.2306525">
  <ele>1595.35</ele>
  <time>2026-08-28T19:10:52Z</time>
  <course>168.32</course>
  <speed>0.04</speed>
  <fix>3d</fix>
</trkpt>
<trkpt lat="40.072805" lon="-105.2306527">
  <ele>1595.44</ele>
  <time>2026-08-28T19:10:52Z</time>
  <course>13.8</course>
  <speed>0.02</speed>
  <fix>3d</fix>
</trkpt>
<trkpt lat="40.0728049" lon="-105.2306524">
  <ele>1595.35</ele>
  <time>2026-08-28T19:10:52Z</time>
  <course>159.84</course>
  <speed>0.04</speed>
  <fix>3d</fix>
</trkpt>
<trkpt lat="40.0728049" lon="-105.2306526">
  <ele>1595.44</ele>
  <time>2026-08-28T19:10:52Z</time>
  <course>13.79</course>
  <speed>0.01</speed>
  <fix>3d</fix>
</trkpt>
<trkpt lat="40.0728048" lon="-105.2306524">
  <ele>1595.35</ele>
  <time>2026-08-28T19:10:52Z</time>
  <course>152.57</course>
  <speed>0.04</speed>
  <fix>3d</fix>
</trkpt>
<trkpt lat="40.0728049" lon="-105.2306526">
  <ele>1595.44</ele>
  <time>2026-08-28T19:10:52Z</time>
  <course>13.79</course>
  <speed>0.0</speed>
  <fix>3d</fix>
</trkpt>
<trkpt lat="40.0728047" lon="-105.2306524">
  <ele>1595.34</ele>
  <time>2026-08-28T19:10:52Z</time>
  <course>142.91</course>
  <speed>0.03</speed>
  <fix>3d</fix>
</trkpt>
<trkpt lat="40.0728048" lon="-105.2306525">
  <ele>1595.44</ele>
  <time>2026-08-28T19:10:52Z</time>
  <course>13.78</course>
  <speed>0.01</speed>
  <fix>3d</fix>
</trkpt>
<trkpt lat="40.0728047" lon="-105.2306523">
  <ele>1595.34</ele>
  <time>2026-08-28T19:10:52Z</time>
  <course>134.67</course>
  <speed>0.03</speed>
  <fix>3d</fix>
</trkpt>
<trkpt lat="40.0728048" lon="-105.2306524">
  <ele>1595.44</ele>
  <time>2026-08-28T19:10:52Z</time>
  <course>13.8</course>
  <speed>0.01</speed>
  <fix>3d</fix>
</trkpt>
<trkpt lat="40.0728047" lon="-105.2306522">
  <ele>1595.34</ele>
  <time>2026-08-28T19:10:52Z</time>
  <course>127.21</course>
  <speed>0.03</speed>
  <fix>3d</fix>
</trkpt>
<trkpt lat="40.0728048" lon="-105.2306524">
  <ele>1595.43</ele>
  <time>2026-08-28T19:10:52Z</time>
  <course>13.8</course>
  <speed>0.01</speed>
  <fix>3d</fix>
</trkpt>
<trkpt lat="40.0728046" lon="-105.2306522">
  <ele>1595.34</ele>
  <time>2026-08-28T19:10:52Z</time>
  <course>120.93</course>
  <speed>0.03</speed>
  <fix>3d</fix>
</trkpt>
<trkpt lat="40.0728048" lon="-105.2306523">
  <ele>1595.43</ele>
  <time>2026-08-28T19:10:52Z</time>
  <course>13.8</course>
  <speed>0.01</speed>
  <fix>3d</fix>
</trkpt>
<trkpt lat="40.0728046" lon="-105.2306522">
  <ele>1595.34</ele>
  <time>2026-08-28T19:10:52Z</time>
  <course>115.26</course>
  <speed>0.02</speed>
  <fix>3d</fix>
</trkpt>
<trkpt lat="40.0728047" lon="-105.2306522">
  <ele>1595.43</ele>
  <time>2026-08-28T19:10:52Z</time>
  <course>13.79</course>
  <speed>0.01414213562373095</speed>
  <fix>3d</fix>
</trkpt>
<trkpt lat="40.0728046" lon="-105.2306521">
  <ele>1595.33</ele>
  <time>2026-08-28T19:10:52Z</time>
  <course>110.54</course>
  <speed>0.02</speed>
  <fix>3d</fix>
</trkpt>
<trkpt lat="40.0728047" lon="-105.2306522">
  <ele>1595.43</ele>
  <time>2026-08-28T19:10:52Z</time>
  <course>13.8</course>
  <speed>0.01414213562373095</speed>
  <fix>3d</fix>
</trkpt>
<trkpt lat="40.0728046" lon="-105.230652">
  <ele>1595.33</ele>
  <time>2026-08-28T19:10:52Z</time>
  <course>106.99</course>
  <speed>0.02</speed>
  <fix>3d</fix>
</trkpt>
<trkpt lat="40.0728047" lon="-105.2306521">
  <ele>1595.43</ele>
  <time>2026-08-28T19:10:52Z</time>
  <course>13.8</course>
  <speed>0.01414213562373095</speed>
  <fix>3d</fix>
</trkpt>
<trkpt lat="40.0728046" lon="-105.2306519">
  <ele>1595.33</ele>
  <time>2026-08-28T19:10:52Z</time>
  <course>104.53</course>
  <speed>0.02</speed>
  <fix>3d</fix>
</trkpt>
<trkpt lat="40.0728047" lon="-105.230652">
  <ele>1595.43</ele>
  <time>2026-08-28T19:10:52Z</time>
  <course>13.8</course>
  <speed>0.01414213562373095</speed>
  <fix>3d</fix>
</trkpt>
<trkpt lat="40.0728046" lon="-105.2306519">
  <ele>1595.33</ele>
  <time>2026-08-28T19:10:52Z</time>
  <course>102.74</course>
  <speed>0.02</speed>
  <fix>3d</fix>
</trkpt>
<trkpt lat="40.0728047" lon="-105.230652">
  <ele>1595.43</ele>
  <time>2026-08-28T19:10:52Z</time>
  <course>13.79</course>
  <speed>0.01414213562373095</speed>
  <fix>3d</fix>
</trkpt>
<trkpt lat="40.0728045" lon="-105.2306518">
  <ele>1595.33</ele>
  <time>2026-08-28T19:10:52Z</time>
  <course>100.89</course>
  <speed>0.03</speed>
  <fix>3d</fix>
</trkpt>
<trkpt lat="40.0728047" lon="-105.2306519">
  <ele>1595.42</ele>
  <time>2026-08-28T19:10:52Z</time>
  <course>13.79</course>
  <speed>0.01414213562373095</speed>
  <fix>3d</fix>
</trkpt>
<trkpt lat="40.0728044" lon="-105.2306517">
  <ele>1595.33</ele>
  <time>2026-08-28T19:10:52Z</time>
  <course>99.19</course>
  <speed>0.03</speed>
  <fix>3d</fix>
</trkpt>
<trkpt lat="40.0728047" lon="-105.2306518">
  <ele>1595.42</ele>
  <time>2026-08-28T19:10:52Z</time>
  <course>13.79</course>
  <speed>0.01414213562373095</speed>
  <fix>3d</fix>
</trkpt>
<trkpt lat="40.0728044" lon="-105.2306517">
  <ele>1595.33</ele>
  <time>2026-08-28T19:10:52Z</time>
  <course>97.57</course>
  <speed>0.03</speed>
  <fix>3d</fix>
</trkpt>
<trkpt lat="40.0728047" lon="-105.2306518">
  <ele>1595.42</ele>
  <time>2026-08-28T19:10:52Z</time>
  <course>13.78</course>
  <speed>0.0316227766016838</speed>
  <fix>3d</fix>
</trkpt>
<trkpt lat="40.0728044" lon="-105.2306516">
  <ele>1595.33</ele>
  <time>2026-08-28T19:10:52Z</time>
  <course>91.33</course>
  <speed>0.03</speed>
  <fix>3d</fix>
</trkpt>
<trkpt lat="40.0728047" lon="-105.2306517">
  <ele>1595.42</ele>
  <time>2026-08-28T19:10:52Z</time>
  <course>13.89</course>
  <speed>0.04242640687119285</speed>
  <fix>3d</fix>
</trkpt>
<trkpt lat="40.0728044" lon="-105.2306515">
  <ele>1595.33</ele>
  <time>2026-08-28T19:10:52Z</time>
  <course>72.66</course>
  <speed>0.04</speed>
  <fix>3d</fix>
</trkpt>
<trkpt lat="40.0728047" lon="-105.2306516">
  <ele>1595.42</ele>
  <time>2026-08-28T19:10:52Z</time>
  <course>13.88</course>
  <speed>0.044721359549995794</speed>
  <fix>3d</fix>
</trkpt>
<trkpt lat="40.0728044" lon="-105.2306514">
  <ele>1595.33</ele>
  <time>2026-08-28T19:10:52Z</time>
  <course>56.99</course>
  <speed>0.04</speed>
  <fix>3d</fix>
</trkpt>
<trkpt lat="40.0728047" lon="-105.2306515">
  <ele>1595.43</ele>
  <time>2026-08-28T19:10:52Z</time>
  <course>13.86</course>
  <speed>0.03</speed>
  <fix>3d</fix>
</trkpt>
<trkpt lat="40.0728044" lon="-105.2306513">
  <ele>1595.33</ele>
  <time>2026-08-28T19:10:52Z</time>
  <course>49.73</course>
  <speed>0.03</speed>
  <fix>3d</fix>
</trkpt>
<trkpt lat="40.0728047" lon="-105.2306514">
  <ele>1595.43</ele>
  <time>2026-08-28T19:10:52Z</time>
  <course>13.96</course>
  <speed>0.02</speed>
  <fix>3d</fix>
</trkpt>
<trkpt lat="40.0728045" lon="-105.2306512">
  <ele>1595.33</ele>
  <time>2026-08-28T19:10:52Z</time>
  <course>63.6</course>
  <speed>0.03</speed>
  <fix>3d</fix>
</trkpt>
<trkpt lat="40.0728047" lon="-105.2306514">
  <ele>1595.43</ele>
  <time>2026-08-28T19:10:52Z</time>
  <course>14.02</course>
  <speed>0.01414213562373095</speed>
  <fix>3d</fix>
</trkpt>
<trkpt lat="40.0728046" lon="-105.2306512">
  <ele>1595.33</ele>
  <time>2026-08-28T19:10:52Z</time>
  <course>76.81</course>
  <speed>0.02</speed>
  <fix>3d</fix>
</trkpt>
<trkpt lat="40.0728047" lon="-105.2306513">
  <ele>1595.43</ele>
  <time>2026-08-28T19:10:52Z</time>
  <course>13.94</course>
  <speed>0.01</speed>
  <fix>3d</fix>
</trkpt>
<trkpt lat="40.0728046" lon="-105.2306512">
  <ele>1595.33</ele>
  <time>2026-08-28T19:10:52Z</time>
  <course>84.92</course>
  <speed>0.01</speed>
  <fix>3d</fix>
</trkpt>
<trkpt lat="40.0728047" lon="-105.2306513">
  <ele>1595.43</ele>
  <time>2026-08-28T19:10:52Z</time>
  <course>13.89</course>
  <speed>0.01</speed>
  <fix>3d</fix>
</trkpt>
<trkpt lat="40.0728046" lon="-105.2306511">
  <ele>1595.34</ele>
  <time>2026-08-28T19:10:52Z</time>
  <course>102.76</course>
  <speed>0.01</speed>
  <fix>3d</fix>
</trkpt>
<trkpt lat="40.0728047" lon="-105.2306512">
  <ele>1595.43</ele>
  <time>2026-08-28T19:10:52Z</time>
  <course>13.97</course>
  <speed>0.0</speed>
  <fix>3d</fix>
</trkpt>
<trkpt lat="40.0728046" lon="-105.230651">
  <ele>1595.34</ele>
  <time>2026-08-28T19:10:52Z</time>
  <course>110.68</course>
  <speed>0.02</speed>
  <fix>3d</fix>
</trkpt>
<trkpt lat="40.0728047" lon="-105.2306512">
  <ele>1595.43</ele>
  <time>2026-08-28T19:10:52Z</time>
  <course>14.02</course>
  <speed>0.01</speed>
  <fix>3d</fix>
</trkpt>
<trkpt lat="40.0728046" lon="-105.230651">
  <ele>1595.33</ele>
  <time>2026-08-28T19:10:52Z</time>
  <course>111.41</course>
  <speed>0.02</speed>
  <fix>3d</fix>
</trkpt>
<trkpt lat="40.0728047" lon="-105.2306511">
  <ele>1595.43</ele>
  <time>2026-08-28T19:10:52Z</time>
  <course>13.94</course>
  <speed>0.0</speed>
  <fix>3d</fix>
</trkpt>
<trkpt lat="40.0728046" lon="-105.230651">
  <ele>1595.33</ele>
  <time>2026-08-28T19:10:52Z</time>
  <course>116.26</course>
  <speed>0.02</speed>
  <fix>3d</fix>
</trkpt>
<trkpt lat="40.0728047" lon="-105.2306511">
  <ele>1595.43</ele>
  <time>2026-08-28T19:10:52Z</time>
  <course>13.89</course>
  <speed>0.0</speed>
  <fix>3d</fix>
</trkpt>
<trkpt lat="40.0728046" lon="-105.2306509">
  <ele>1595.33</ele>
  <time>2026-08-28T19:10:52Z</time>
  <course>123.97</course>
  <speed>0.02</speed>
  <fix>3d</fix>
</trkpt>
<trkpt lat="40.0728047" lon="-105.230651">
  <ele>1595.43</ele>
  <time>2026-08-28T19:10:52Z</time>
  <course>13.97</course>
  <speed>0.0</speed>
  <fix>3d</fix>
</trkpt>
<trkpt lat="40.0728046" lon="-105.2306509">
  <ele>1595.33</ele>
  <time>2026-08-28T19:10:52Z</time>
  <course>121.06</course>
  <speed>0.02</speed>
  <fix>3d</fix>
</trkpt>
<trkpt lat="40.0728047" lon="-105.230651">
  <ele>1595.43</ele>
  <time>2026-08-28T19:10:52Z</time>
  <course>14.01</course>
  <speed>0.01</speed>
  <fix>3d</fix>
</trkpt>
<trkpt lat="40.0728045" lon="-105.2306508">
  <ele>1595.33</ele>
  <time>2026-08-28T19:10:52Z</time>
  <course>118.81</course>
  <speed>0.03</speed>
  <fix>3d</fix>
</trkpt>
<trkpt lat="40.0728046" lon="-105.2306509">
  <ele>1595.43</ele>
  <time>2026-08-28T19:10:52Z</time>
  <course>13.93</course>
  <speed>0.0</speed>
  <fix>3d</fix>
</trkpt>
<trkpt lat="40.0728044" lon="-105.2306507">
  <ele>1595.33</ele>
  <time>2026-08-28T19:10:52Z</time>
  <course>124.42</course>
  <speed>0.02</speed>
  <fix>3d</fix>
</trkpt>
<trkpt lat="40.0728046" lon="-105.2306509">
  <ele>1595.43</ele>
  <time>2026-08-28T19:10:52Z</time>
  <course>13.88</course>
  <speed>0.0</speed>
  <fix>3d</fix>
</trkpt>
<trkpt lat="40.0728044" lon="-105.2306507">
  <ele>1595.33</ele>
  <time>2026-08-28T19:10:52Z</time>
  <course>131.27</course>
  <speed>0.02</speed>
  <fix>3d</fix>
</trkpt>
<trkpt lat="40.0728046" lon="-105.2306508">
  <ele>1595.44</ele>
  <time>2026-08-28T19:10:52Z</time>
  <course>13.97</course>
  <speed>0.0</speed>
  <fix>3d</fix>
</trkpt>
<trkpt lat="40.0728044" lon="-105.2306507">
  <ele>1595.33</ele>
  <time>2026-08-28T19:10:52Z</time>
  <course>126.2</course>
  <speed>0.02</speed>
  <fix>3d</fix>
</trkpt>
<trkpt lat="40.0728046" lon="-105.2306508">
  <ele>1595.44</ele>
  <time>2026-08-28T19:10:52Z</time>
  <course>14.02</course>
  <speed>0.01</speed>
  <fix>3d</fix>
</trkpt>
<trkpt lat="40.0728044" lon="-105.2306506">
  <ele>1595.33</ele>
  <time>2026-08-28T19:10:52Z</time>
  <course>123.46</course>
  <speed>0.03</speed>
  <fix>3d</fix>
</trkpt>
<trkpt lat="40.0728045" lon="-105.2306507">
  <ele>1595.44</ele>
  <time>2026-08-28T19:10:52Z</time>
  <course>13.95</course>
  <speed>0.0</speed>
  <fix>3d</fix>
</trkpt>
<trkpt lat="40.0728043" lon="-105.2306505">
  <ele>1595.33</ele>
  <time>2026-08-28T19:10:52Z</time>
  <course>129.4</course>
  <speed>0.02</speed>
  <fix>3d</fix>
</trkpt>
<trkpt lat="40.0728045" lon="-105.2306507">
  <ele>1595.44</ele>
  <time>2026-08-28T19:10:52Z</time>
  <course>13.9</course>
  <speed>0.022360679774997897</speed>
  <fix>3d</fix>
</trkpt>
<trkpt lat="40.0728043" lon="-105.2306505">
  <ele>1595.33</ele>
  <time>2026-08-28T19:10:52Z</time>
  <course>150.58</course>
  <speed>0.03</speed>
  <fix>3d</fix>
</trkpt>
<trkpt lat="40.0728044" lon="-105.2306507">
  <ele>1595.45</ele>
  <time>2026-08-28T19:10:52Z</time>
  <course>13.85</course>
  <speed>0.02</speed>
  <fix>3d</fix>
</trkpt>
<trkpt lat="40.0728043" lon="-105.2306505">
  <ele>1595.33</ele>
  <time>2026-08-28T19:10:52Z</time>
  <course>160.9</course>
  <speed>0.04</speed>
  <fix>3d</fix>
</trkpt>
<trkpt lat="40.0728043" lon="-105.2306506">
  <ele>1595.44</ele>
  <time>2026-08-28T19:10:52Z</time>
  <course>13.8</course>
  <speed>0.01</speed>
  <fix>3d</fix>
</trkpt>
<trkpt lat="40.0728042" lon="-105.2306504">
  <ele>1595.32</ele>
  <time>2026-08-28T19:10:52Z</time>
  <course>161.06</course>
  <speed>0.04</speed>
  <fix>3d</fix>
</trkpt>
<trkpt lat="40.0728043" lon="-105.2306506">
  <ele>1595.44</ele>
  <time>2026-08-28T19:10:52Z</time>
  <course>13.8</course>
  <speed>0.01</speed>
  <fix>3d</fix>
</trkpt>
<trkpt lat="40.0728041" lon="-105.2306504">
  <ele>1595.32</ele>
  <time>2026-08-28T19:10:52Z</time>
  <course>152.01</course>
  <speed>0.04</speed>
  <fix>3d</fix>
</trkpt>
<trkpt lat="40.0728042" lon="-105.2306505">
  <ele>1595.43</ele>
  <time>2026-08-28T19:10:52Z</time>
  <course>13.79</course>
  <speed>0.0</speed>
  <fix>3d</fix>
</trkpt>
<trkpt lat="40.0728041" lon="-105.2306503">
  <ele>1595.31</ele>
  <time>2026-08-28T19:10:52Z</time>
  <course>141.43</course>
  <speed>0.03</speed>
  <fix>3d</fix>
</trkpt>
<trkpt lat="40.0728042" lon="-105.2306505">
  <ele>1595.42</ele>
  <time>2026-08-28T19:10:52Z</time>
  <course>13.78</course>
  <speed>0.0</speed>
  <fix>3d</fix>
</trkpt>
<trkpt lat="40.072804" lon="-105.2306502">
  <ele>1595.31</ele>
  <time>2026-08-28T19:10:52Z</time>
  <course>132.32</course>
  <speed>0.03</speed>
  <fix>3d</fix>
</trkpt>
<trkpt lat="40.0728042" lon="-105.2306504">
  <ele>1595.41</ele>
  <time>2026-08-28T19:10:52Z</time>
  <course>13.76</course>
  <speed>0.01</speed>
  <fix>3d</fix>
</trkpt>
<trkpt lat="40.072804" lon="-105.2306502">
  <ele>1595.31</ele>
  <time>2026-08-28T19:10:52Z</time>
  <course>123.08</course>
  <speed>0.03</speed>
  <fix>3d</fix>
</trkpt>
<trkpt lat="40.0728041" lon="-105.2306503">
  <ele>1595.41</ele>
  <time>2026-08-28T19:10:52Z</time>
  <course>13.77</course>
  <speed>0.01414213562373095</speed>
  <fix>3d</fix>
</trkpt>
<trkpt lat="40.072804" lon="-105.2306502">
  <ele>1595.31</ele>
  <time>2026-08-28T19:10:52Z</time>
  <course>115.38</course>
  <speed>0.03</speed>
  <fix>3d</fix>
</trkpt>
<trkpt lat="40.0728041" lon="-105.2306503">
  <ele>1595.42</ele>
  <time>2026-08-28T19:10:52Z</time>
  <course>13.75</course>
  <speed>0.01414213562373095</speed>
  <fix>3d</fix>
</trkpt>
<trkpt lat="40.072804" lon="-105.2306501">
  <ele>1595.31</ele>
  <time>2026-08-28T19:10:52Z</time>
  <course>109.38</course>
  <speed>0.02</speed>
  <fix>3d</fix>
</trkpt>
<trkpt lat="40.0728041" lon="-105.2306502">
  <ele>1595.43</ele>
  <time>2026-08-28T19:10:52Z</time>
  <course>13.76</course>
  <speed>0.01414213562373095</speed>
  <fix>3d</fix>
</trkpt>
<trkpt lat="40.072804" lon="-105.23065">
  <ele>1595.31</ele>
  <time>2026-08-28T19:10:52Z</time>
  <course>104.77</course>
  <speed>0.02</speed>
  <fix>3d</fix>
</trkpt>
<trkpt lat="40.0728041" lon="-105.2306501">
  <ele>1595.43</ele>
  <time>2026-08-28T19:10:52Z</time>
  <course>13.78</course>
  <speed>0.01414213562373095</speed>
  <fix>3d</fix>
</trkpt>
<trkpt lat="40.0728039" lon="-105.23065">
  <ele>1595.31</ele>
  <time>2026-08-28T19:10:52Z</time>
  <course>100.59</course>
  <speed>0.02</speed>
  <fix>3d</fix>
</trkpt>
<trkpt lat="40.0728041" lon="-105.2306501">
  <ele>1595.43</ele>
  <time>2026-08-28T19:10:52Z</time>
  <course>13.79</course>
  <speed>0.01414213562373095</speed>
  <fix>3d</fix>
</trkpt>
<trkpt lat="40.0728038" lon="-105.2306499">
  <ele>1595.32</ele>
  <time>2026-08-28T19:10:52Z</time>
  <course>96.31</course>
  <speed>0.02</speed>
  <fix>3d</fix>
</trkpt>
<trkpt lat="40.0728041" lon="-105.23065">
  <ele>1595.43</ele>
  <time>2026-08-28T19:10:52Z</time>
  <course>13.8</course>
  <speed>0.01414213562373095</speed>
  <fix>3d</fix>
</trkpt>
<trkpt lat="40.0728038" lon="-105.2306498">
  <ele>1595.32</ele>
  <time>2026-08-28T19:10:52Z</time>
  <course>93.35</course>
  <speed>0.02</speed>
  <fix>3d</fix>
</trkpt>
<trkpt lat="40.0728041" lon="-105.2306499">
  <ele>1595.43</ele>
  <time>2026-08-28T19:10:52Z</time>
  <course>13.8</course>
  <speed>0.01414213562373095</speed>
  <fix>3d</fix>
</trkpt>
<trkpt lat="40.0728038" lon="-105.2306498">
  <ele>1595.32</ele>
  <time>2026-08-28T19:10:52Z</time>
  <course>91.93</course>
  <speed>0.02</speed>
  <fix>3d</fix>
</trkpt>
<trkpt lat="40.0728041" lon="-105.2306499">
  <ele>1595.43</ele>
  <time>2026-08-28T19:10:52Z</time>
  <course>13.8</course>
  <speed>0.01414213562373095</speed>
  <fix>3d</fix>
</trkpt>
<trkpt lat="40.0728038" lon="-105.2306497">
  <ele>1595.32</ele>
  <time>2026-08-28T19:10:52Z</time>
  <course>91.25</course>
  <speed>0.02</speed>
  <fix>3d</fix>
</trkpt>
<trkpt lat="40.072804" lon="-105.2306498">
  <ele>1595.43</ele>
  <time>2026-08-28T19:10:52Z</time>
  <course>13.81</course>
  <speed>0.01414213562373095</speed>
  <fix>3d</fix>
</trkpt>
<trkpt lat="40.0728038" lon="-105.2306496">
  <ele>1595.32</ele>
  <time>2026-08-28T19:10:52Z</time>
  <course>91.4</course>
  <speed>0.02</speed>
  <fix>3d</fix>
</trkpt>
<trkpt lat="40.072804" lon="-105.2306497">
  <ele>1595.42</ele>
  <time>2026-08-28T19:10:52Z</time>
  <course>13.8</course>
  <speed>0.022360679774997897</speed>
  <fix>3d</fix>
</trkpt>
<trkpt lat="40.0728038" lon="-105.2306495">
  <ele>1595.32</ele>
  <time>2026-08-28T19:10:52Z</time>
  <course>91.73</course>
  <speed>0.02</speed>
  <fix>3d</fix>
</trkpt>
<trkpt lat="40.072804" lon="-105.2306496">
  <ele>1595.41</ele>
  <time>2026-08-28T19:10:52Z</time>
  <course>13.84</course>
  <speed>0.05</speed>
  <fix>3d</fix>
</trkpt>
<trkpt lat="40.0728038" lon="-105.2306495">
  <ele>1595.32</ele>
  <time>2026-08-28T19:10:52Z</time>
  <course>71.04</course>
  <speed>0.03</speed>
  <fix>3d</fix>
</trkpt>
<trkpt lat="40.072804" lon="-105.2306495">
  <ele>1595.41</ele>
  <time>2026-08-28T19:10:52Z</time>
  <course>13.79</course>
  <speed>0.0412310562561766</speed>
  <fix>3d</fix>
</trkpt>
<trkpt lat="40.0728038" lon="-105.2306494">
  <ele>1595.32</ele>
  <time>2026-08-28T19:10:52Z</time>
  <course>55.23</course>
  <speed>0.04</speed>
  <fix>3d</fix>
</trkpt>
<trkpt lat="40.072804" lon="-105.2306495">
  <ele>1595.41</ele>
  <time>2026-08-28T19:10:52Z</time>
  <course>13.9</course>
  <speed>0.0316227766016838</speed>
  <fix>3d</fix>
</trkpt>
<trkpt lat="40.0728038" lon="-105.2306493">
  <ele>1595.32</ele>
  <time>2026-08-28T19:10:52Z</time>
  <course>58.11</course>
  <speed>0.04</speed>
  <fix>3d</fix>
</trkpt>
<trkpt lat="40.0728041" lon="-105.2306494">
  <ele>1595.41</ele>
  <time>2026-08-28T19:10:52Z</time>
  <course>13.96</course>
  <speed>0.022360679774997897</speed>
  <fix>3d</fix>
</trkpt>
<trkpt lat="40.0728039" lon="-105.2306492">
  <ele>1595.32</ele>
  <time>2026-08-28T19:10:52Z</time>
  <course>62.75</course>
  <speed>0.03</speed>
  <fix>3d</fix>
</trkpt>
<trkpt lat="40.0728041" lon="-105.2306494">
  <ele>1595.41</ele>
  <time>2026-08-28T19:10:52Z</time>
  <course>13.87</course>
  <speed>0.02</speed>
  <fix>3d</fix>
</trkpt>
<trkpt lat="40.072804" lon="-105.2306492">
  <ele>1595.32</ele>
  <time>2026-08-28T19:10:52Z</time>
  <course>61.18</course>
  <speed>0.02</speed>
  <fix>3d</fix>
</trkpt>
<trkpt lat="40.0728041" lon="-105.2306493">
  <ele>1595.41</ele>
  <time>2026-08-28T19:10:52Z</time>
  <course>13.87</course>
  <speed>0.01</speed>
  <fix>3d</fix>
</trkpt>
<trkpt lat="40.072804" lon="-105.2306491">
  <ele>1595.33</ele>
  <time>2026-08-28T19:10:52Z</time>
  <course>84.34</course>
  <speed>0.01</speed>
  <fix>3d</fix>
</trkpt>
<trkpt lat="40.072804" lon="-105.2306493">
  <ele>1595.41</ele>
  <time>2026-08-28T19:10:52Z</time>
  <course>13.97</course>
  <speed>0.0</speed>
  <fix>3d</fix>
</trkpt>
<trkpt lat="40.072804" lon="-105.230649">
  <ele>1595.33</ele>
  <time>2026-08-28T19:10:52Z</time>
  <course>103.81</course>
  <speed>0.02</speed>
  <fix>3d</fix>
</trkpt>
<trkpt lat="40.072804" lon="-105.2306492">
  <ele>1595.41</ele>
  <time>2026-08-28T19:10:52Z</time>
  <course>13.99</course>
  <speed>0.01</speed>
  <fix>3d</fix>
</trkpt>
<trkpt lat="40.072804" lon="-105.230649">
  <ele>1595.34</ele>
  <time>2026-08-28T19:10:52Z</time>
  <course>107.71</course>
  <speed>0.02</speed>
  <fix>3d</fix>
</trkpt>
<trkpt lat="40.072804" lon="-105.2306491">
  <ele>1595.42</ele>
  <time>2026-08-28T19:10:52Z</time>
  <course>13.85</course>
  <speed>0.0</speed>
  <fix>3d</fix>
</trkpt>
<trkpt lat="40.072804" lon="-105.230649">
  <ele>1595.34</ele>
  <time>2026-08-28T19:10:52Z</time>
  <course>118.53</course>
  <speed>0.01</speed>
  <fix>3d</fix>
</trkpt>
<trkpt lat="40.072804" lon="-105.2306491">
  <ele>1595.42</ele>
  <time>2026-08-28T19:10:52Z</time>
  <course>13.92</course>
  <speed>0.0</speed>
  <fix>3d</fix>
</trkpt>
<trkpt lat="40.072804" lon="-105.2306489">
  <ele>1595.35</ele>
  <time>2026-08-28T19:10:52Z</time>
  <course>123.87</course>
  <speed>0.02</speed>
  <fix>3d</fix>
</trkpt>
<trkpt lat="40.072804" lon="-105.2306491">
  <ele>1595.42</ele>
  <time>2026-08-28T19:10:52Z</time>
  <course>14.0</course>
  <speed>0.01</speed>
  <fix>3d</fix>
</trkpt>
<trkpt lat="40.072804" lon="-105.2306488">
  <ele>1595.35</ele>
  <time>2026-08-28T19:10:52Z</time>
  <course>118.74</course>
  <speed>0.03</speed>
  <fix>3d</fix>
</trkpt>
<trkpt lat="40.072804" lon="-105.230649">
  <ele>1595.43</ele>
  <time>2026-08-28T19:10:52Z</time>
  <course>13.98</course>
  <speed>0.0</speed>
  <fix>3d</fix>
</trkpt>
<trkpt lat="40.072804" lon="-105.2306488">
  <ele>1595.36</ele>
  <time>2026-08-28T19:10:52Z</time>
  <course>120.42</course>
  <speed>0.02</speed>
  <fix>3d</fix>
</trkpt>
<trkpt lat="40.072804" lon="-105.2306489">
  <ele>1595.43</ele>
  <time>2026-08-28T19:10:52Z</time>
  <course>13.88</course>
  <speed>0.0</speed>
  <fix>3d</fix>
</trkpt>
<trkpt lat="40.072804" lon="-105.2306488">
  <ele>1595.36</ele>
  <time>2026-08-28T19:10:52Z</time>
  <course>131.69</course>
  <speed>0.02</speed>
  <fix>3d</fix>
</trkpt>
<trkpt lat="40.072804" lon="-105.2306489">
  <ele>1595.44</ele>
  <time>2026-08-28T19:10:52Z</time>
  <course>13.98</course>
  <speed>0.0</speed>
  <fix>3d</fix>
</trkpt>
<trkpt lat="40.0728039" lon="-105.2306487">
  <ele>1595.36</ele>
  <time>2026-08-28T19:10:52Z</time>
  <course>128.16</course>
  <speed>0.02</speed>
  <fix>3d</fix>
</trkpt>
<trkpt lat="40.072804" lon="-105.2306489">
  <ele>1595.44</ele>
  <time>2026-08-28T19:10:52Z</time>
  <course>14.05</course>
  <speed>0.01</speed>
  <fix>3d</fix>
</trkpt>
<trkpt lat="40.0728038" lon="-105.2306486">
  <ele>1595.36</ele>
  <time>2026-08-28T19:10:52Z</time>
  <course>123.06</course>
  <speed>0.03</speed>
  <fix>3d</fix>
</trkpt>
<trkpt lat="40.072804" lon="-105.2306488">
  <ele>1595.44</ele>
  <time>2026-08-28T19:10:52Z</time>
  <course>13.96</course>
  <speed>0.0</speed>
  <fix>3d</fix>
</trkpt>
<trkpt lat="40.0728038" lon="-105.2306486">
  <ele>1595.36</ele>
  <time>2026-08-28T19:10:52Z</time>
  <course>129.68</course>
  <speed>0.02</speed>
  <fix>3d</fix>
</trkpt>
<trkpt lat="40.072804" lon="-105.2306487">
  <ele>1595.43</ele>
  <time>2026-08-28T19:10:52Z</time>
  <course>13.93</course>
  <speed>0.0</speed>
  <fix>3d</fix>
</trkpt>
<trkpt lat="40.0728038" lon="-105.2306486">
  <ele>1595.36</ele>
  <time>2026-08-28T19:10:52Z</time>
  <course>137.26</course>
  <speed>0.02</speed>
  <fix>3d</fix>
</trkpt>
<trkpt lat="40.0728039" lon="-105.2306487">
  <ele>1595.43</ele>
  <time>2026-08-28T19:10:52Z</time>
  <course>14.02</course>
  <speed>0.0</speed>
  <fix>3d</fix>
</trkpt>
<trkpt lat="40.0728037" lon="-105.2306485">
  <ele>1595.36</ele>
  <time>2026-08-28T19:10:52Z</time>
  <course>128.51</course>
  <speed>0.03</speed>
  <fix>3d</fix>
</trkpt>
<trkpt lat="40.0728039" lon="-105.2306487">
  <ele>1595.43</ele>
  <time>2026-08-28T19:10:52Z</time>
  <course>14.04</course>
  <speed>0.01</speed>
  <fix>3d</fix>
</trkpt>
<trkpt lat="40.0728037" lon="-105.2306485">
  <ele>1595.36</ele>
  <time>2026-08-28T19:10:52Z</time>
  <course>125.32</course>
  <speed>0.03</speed>
  <fix>3d</fix>
</trkpt>
<trkpt lat="40.0728038" lon="-105.2306486">
  <ele>1595.44</ele>
  <time>2026-08-28T19:10:52Z</time>
  <course>13.85</course>
  <speed>0.022360679774997897</speed>
  <fix>3d</fix>
</trkpt>
<trkpt lat="40.0728037" lon="-105.2306484">
  <ele>1595.36</ele>
  <time>2026-08-28T19:10:52Z</time>
  <course>156.66</course>
  <speed>0.03</speed>
  <fix>3d</fix>
</trkpt>
<trkpt lat="40.0728037" lon="-105.2306486">
  <ele>1595.44</ele>
  <time>2026-08-28T19:10:52Z</time>
  <course>13.84</course>
  <speed>0.02</speed>
  <fix>3d</fix>
</trkpt>
<trkpt lat="40.0728036" lon="-105.2306483">
  <ele>1595.36</ele>
  <time>2026-08-28T19:10:52Z</time>
  <course>167.5</course>
  <speed>0.04</speed>
  <fix>3d</fix>
</trkpt>
<trkpt lat="40.0728037" lon="-105.2306485">
  <ele>1595.44</ele>
  <time>2026-08-28T19:10:52Z</time>
  <course>13.79</course>
  <speed>0.01</speed>
  <fix>3d</fix>
</trkpt>
<trkpt lat="40.0728035" lon="-105.2306483">
  <ele>1595.36</ele>
  <time>2026-08-28T19:10:52Z</time>
  <course>160.89</course>
  <speed>0.04</speed>
  <fix>3d</fix>
</trkpt>
<trkpt lat="40.0728036" lon="-105.2306485">
  <ele>1595.44</ele>
  <time>2026-08-28T19:10:52Z</time>
  <course>13.79</course>
  <speed>0.01</speed>
  <fix>3d</fix>
</trkpt>
<trkpt lat="40.0728035" lon="-105.2306483">
  <ele>1595.36</ele>
  <time>2026-08-28T19:10:52Z</time>
  <course>153.33</course>
  <speed>0.04</speed>
  <fix>3d</fix>
</trkpt>
<trkpt lat="40.0728036" lon="-105.2306484">
  <ele>1595.44</ele>
  <time>2026-08-28T19:10:52Z</time>
  <course>13.8</course>
  <speed>0.0</speed>
  <fix>3d</fix>
</trkpt>
<trkpt lat="40.0728034" lon="-105.2306483">
  <ele>1595.36</ele>
  <time>2026-08-28T19:10:52Z</time>
  <course>143.15</course>
  <speed>0.03</speed>
  <fix>3d</fix>
</trkpt>
<trkpt lat="40.0728035" lon="-105.2306484">
  <ele>1595.43</ele>
  <time>2026-08-28T19:10:52Z</time>
  <course>13.79</course>
  <speed>0.0</speed>
  <fix>3d</fix>
</trkpt>
<trkpt lat="40.0728034" lon="-105.2306482">
  <ele>1595.36</ele>
  <time>2026-08-28T19:10:52Z</time>
  <course>134.66</course>
  <speed>0.03</speed>
  <fix>3d</fix>
</trkpt>
<trkpt lat="40.0728035" lon="-105.2306483">
  <ele>1595.43</ele>
  <time>2026-08-28T19:10:52Z</time>
  <course>13.8</course>
  <speed>0.0</speed>
  <fix>3d</fix>
</trkpt>
<trkpt lat="40.0728034" lon="-105.2306481">
  <ele>1595.36</ele>
  <time>2026-08-28T19:10:52Z</time>
  <course>126.2</course>
  <speed>0.03</speed>
  <fix>3d</fix>
</trkpt>
<trkpt lat="40.0728035" lon="-105.2306483">
  <ele>1595.43</ele>
  <time>2026-08-28T19:10:52Z</time>
  <course>13.79</course>
  <speed>0.01</speed>
  <fix>3d</fix>
</trkpt>
<trkpt lat="40.0728033" lon="-105.2306481">
  <ele>1595.36</ele>
  <time>2026-08-28T19:10:52Z</time>
  <course>118.12</course>
  <speed>0.02</speed>
  <fix>3d</fix>
</trkpt>
<trkpt lat="40.0728035" lon="-105.2306482">
  <ele>1595.43</ele>
  <time>2026-08-28T19:10:52Z</time>
  <course>13.79</course>
  <speed>0.01414213562373095</speed>
  <fix>3d</fix>
</trkpt>
<trkpt lat="40.0728032" lon="-105.230648">
  <ele>1595.36</ele>
  <time>2026-08-28T19:10:52Z</time>
  <course>110.16</course>
  <speed>0.02</speed>
  <fix>3d</fix>
</trkpt>
<trkpt lat="40.0728034" lon="-105.2306481">
  <ele>1595.43</ele>
  <time>2026-08-28T19:10:52Z</time>
  <course>13.78</course>
  <speed>0.01414213562373095</speed>
  <fix>3d</fix>
</trkpt>
<trkpt lat="40.0728032" lon="-105.230648">
  <ele>1595.36</ele>
  <time>2026-08-28T19:10:52Z</time>
  <course>102.22</course>
  <speed>0.02</speed>
  <fix>3d</fix>
</trkpt>
<trkpt lat="40.0728034" lon="-105.2306481">
  <ele>1595.43</ele>
  <time>2026-08-28T19:10:52Z</time>
  <course>13.79</course>
  <speed>0.01414213562373095</speed>
  <fix>3d</fix>
</trkpt>
<trkpt lat="40.0728032" lon="-105.2306479">
  <ele>1595.36</ele>
  <time>2026-08-28T19:10:52Z</time>
  <course>96.2</course>
  <speed>0.02</speed>
  <fix>3d</fix>
</trkpt>
<trkpt lat="40.0728034" lon="-105.230648">
  <ele>1595.42</ele>
  <time>2026-08-28T19:10:52Z</time>
  <course>13.8</course>
  <speed>0.022360679774997897</speed>
  <fix>3d</fix>
</trkpt>
<trkpt lat="40.0728032" lon="-105.2306478">
  <ele>1595.36</ele>
  <time>2026-08-28T19:10:52Z</time>
  <course>91.74</course>
  <speed>0.02</speed>
  <fix>3d</fix>
</trkpt>
<trkpt lat="40.0728034" lon="-105.230648">
  <ele>1595.43</ele>
  <time>2026-08-28T19:10:52Z</time>
  <course>13.8</course>
  <speed>0.022360679774997897</speed>
  <fix>3d</fix>
</trkpt>
<trkpt lat="40.0728032" lon="-105.2306478">
  <ele>1595.36</ele>
  <time>2026-08-28T19:10:52Z</time>
  <course>87.83</course>
  <speed>0.02</speed>
  <fix>3d</fix>
</trkpt>
<trkpt lat="40.0728034" lon="-105.2306479">
  <ele>1595.43</ele>
  <time>2026-08-28T19:10:52Z</time>
  <course>13.8</course>
  <speed>0.022360679774997897</speed>
  <fix>3d</fix>
</trkpt>
<trkpt lat="40.0728032" lon="-105.2306477">
  <ele>1595.36</ele>
  <time>2026-08-28T19:10:52Z</time>
  <course>85.33</course>
  <speed>0.02</speed>
  <fix>3d</fix>
</trkpt>
<trkpt lat="40.0728034" lon="-105.2306478">
  <ele>1595.43</ele>
  <time>2026-08-28T19:10:52Z</time>
  <course>13.8</course>
  <speed>0.022360679774997897</speed>
  <fix>3d</fix>
</trkpt>
<trkpt lat="40.0728032" lon="-105.2306476">
  <ele>1595.36</ele>
  <time>2026-08-28T19:10:52Z</time>
  <course>83.76</course>
  <speed>0.02</speed>
  <fix>3d</fix>
</trkpt>
<trkpt lat="40.0728034" lon="-105.2306478">
  <ele>1595.43</ele>
  <time>2026-08-28T19:10:52Z</time>
  <course>13.8</course>
  <speed>0.022360679774997897</speed>
  <fix>3d</fix>
</trkpt>
<trkpt lat="40.0728032" lon="-105.2306476">
  <ele>1595.36</ele>
  <time>2026-08-28T19:10:52Z</time>
  <course>82.27</course>
  <speed>0.02</speed>
  <fix>3d</fix>
</trkpt>
<trkpt lat="40.0728034" lon="-105.2306477">
  <ele>1595.43</ele>
  <time>2026-08-28T19:10:52Z</time>
  <course>13.78</course>
  <speed>0.0412310562561766</speed>
  <fix>3d</fix>
</trkpt>
<trkpt lat="40.0728032" lon="-105.2306476">
  <ele>1595.36</ele>
  <time>2026-08-28T19:10:52Z</time>
  <course>73.63</course>
  <speed>0.02</speed>
  <fix>3d</fix>
</trkpt>
<trkpt lat="40.0728034" lon="-105.2306476">
  <ele>1595.43</ele>
  <time>2026-08-28T19:10:52Z</time>
  <course>13.9</course>
  <speed>0.044721359549995794</speed>
  <fix>3d</fix>
</trkpt>
<trkpt lat="40.0728032" lon="-105.2306475">
  <ele>1595.36</ele>
  <time>2026-08-28T19:10:52Z</time>
  <course>61.59</course>
  <speed>0.04</speed>
  <fix>3d</fix>
</trkpt>
<trkpt lat="40.0728034" lon="-105.2306475">
  <ele>1595.43</ele>
  <time>2026-08-28T19:10:52Z</time>
  <course>13.97</course>
  <speed>0.044721359549995794</speed>
  <fix>3d</fix>
</trkpt>
<trkpt lat="40.0728032" lon="-105.2306474">
  <ele>1595.36</ele>
  <time>2026-08-28T19:10:52Z</time>
  <course>51.7</course>
  <speed>0.04</speed>
  <fix>3d</fix>
</trkpt>
<trkpt lat="40.0728035" lon="-105.2306475">
  <ele>1595.43</ele>
  <time>2026-08-28T19:10:52Z</time>
  <course>13.9</course>
  <speed>0.03</speed>
  <fix>3d</fix>
</trkpt>
<trkpt lat="40.0728033" lon="-105.2306473">
  <ele>1595.36</ele>
  <time>2026-08-28T19:10:52Z</time>
  <course>43.65</course>
  <speed>0.03</speed>
  <fix>3d</fix>
</trkpt>
<trkpt lat="40.0728035" lon="-105.2306474">
  <ele>1595.44</ele>
  <time>2026-08-28T19:10:52Z</time>
  <course>13.95</course>
  <speed>0.02</speed>
  <fix>3d</fix>
</trkpt>
<trkpt lat="40.0728034" lon="-105.2306472">
  <ele>1595.36</ele>
  <time>2026-08-28T19:10:52Z</time>
  <course>58.89</course>
  <speed>0.02</speed>
  <fix>3d</fix>
</trkpt>
<trkpt lat="40.0728035" lon="-105.2306474">
  <ele>1595.43</ele>
  <time>2026-08-28T19:10:52Z</time>
  <course>14.02</course>
  <speed>0.01414213562373095</speed>
  <fix>3d</fix>
</trkpt>
<trkpt lat="40.0728034" lon="-105.2306471">
  <ele>1595.35</ele>
  <time>2026-08-28T19:10:52Z</time>
  <course>78.93</course>
  <speed>0.02</speed>
  <fix>3d</fix>
</trkpt>
<trkpt lat="40.0728035" lon="-105.2306473">
  <ele>1595.43</ele>
  <time>2026-08-28T19:10:52Z</time>
  <course>14.0</course>
  <speed>0.01414213562373095</speed>
  <fix>3d</fix>
</trkpt>
<trkpt lat="40.0728034" lon="-105.2306471">
  <ele>1595.35</ele>
  <time>2026-08-28T19:10:52Z</time>
  <course>88.5</course>
  <speed>0.02</speed>
  <fix>3d</fix>
</trkpt>
<trkpt lat="40.0728035" lon="-105.2306472">
  <ele>1595.43</ele>
  <time>2026-08-28T19:10:52Z</time>
  <course>13.88</course>
  <speed>0.01</speed>
  <fix>3d</fix>
</trkpt>
<trkpt lat="40.0728034" lon="-105.2306471">
  <ele>1595.35</ele>
  <time>2026-08-28T19:10:52Z</time>
  <course>101.11</course>
  <speed>0.01</speed>
  <fix>3d</fix>
</trkpt>
<trkpt lat="40.0728035" lon="-105.2306472">
  <ele>1595.43</ele>
  <time>2026-08-28T19:10:52Z</time>
  <course>13.93</course>
  <speed>0.0</speed>
  <fix>3d</fix>
</trkpt>
<trkpt lat="40.0728034" lon="-105.230647">
  <ele>1595.35</ele>
  <time>2026-08-28T19:10:52Z</time>
  <course>110.7</course>
  <speed>0.02</speed>
  <fix>3d</fix>
</trkpt>
<trkpt lat="40.0728035" lon="-105.2306471">
  <ele>1595.43</ele>
  <time>2026-08-28T19:10:52Z</time>
  <course>13.99</course>
  <speed>0.01</speed>
  <fix>3d</fix>
</trkpt>
<trkpt lat="40.0728034" lon="-105.2306469">
  <ele>1595.35</ele>
  <time>2026-08-28T19:10:52Z</time>
  <course>111.83</course>
  <speed>0.03</speed>
  <fix>3d</fix>
</trkpt>
<trkpt lat="40.0728035" lon="-105.2306471">
  <ele>1595.43</ele>
  <time>2026-08-28T19:10:52Z</time>
  <course>13.99</course>
  <speed>0.01</speed>
  <fix>3d</fix>
</trkpt>
<trkpt lat="40.0728034" lon="-105.2306469">
  <ele>1595.35</ele>
  <time>2026-08-28T19:10:52Z</time>
  <course>114.67</course>
  <speed>0.02</speed>
  <fix>3d</fix>
</trkpt>
<trkpt lat="40.0728035" lon="-105.230647">
  <ele>1595.42</ele>
  <time>2026-08-28T19:10:52Z</time>
  <course>13.87</course>
  <speed>0.0</speed>
  <fix>3d</fix>
</trkpt>
<trkpt lat="40.0728034" lon="-105.2306468">
  <ele>1595.35</ele>
  <time>2026-08-28T19:10:52Z</time>
  <course>122.61</course>
  <speed>0.02</speed>
  <fix>3d</fix>
</trkpt>
<trkpt lat="40.0728035" lon="-105.2306469">
  <ele>1595.42</ele>
  <time>2026-08-28T19:10:52Z</time>
  <course>13.91</course>
  <speed>0.0</speed>
  <fix>3d</fix>
</trkpt>
<trkpt lat="40.0728034" lon="-105.2306467">
  <ele>1595.35</ele>
  <time>2026-08-28T19:10:52Z</time>
  <course>123.57</course>
  <speed>0.02</speed>
  <fix>3d</fix>
</trkpt>
<trkpt lat="40.0728035" lon="-105.2306469">
  <ele>1595.42</ele>
  <time>2026-08-28T19:10:52Z</time>
  <course>13.98</course>
  <speed>0.01</speed>
  <fix>3d</fix>
</trkpt>
<trkpt lat="40.0728034" lon="-105.2306467">
  <ele>1595.35</ele>
  <time>2026-08-28T19:10:52Z</time>
  <course>120.2</course>
  <speed>0.03</speed>
  <fix>3d</fix>
</trkpt>
<trkpt lat="40.0728034" lon="-105.2306468">
  <ele>1595.43</ele>
  <time>2026-08-28T19:10:52Z</time>
  <course>13.97</course>
  <speed>0.01</speed>
  <fix>3d</fix>
</trkpt>
<trkpt lat="40.0728033" lon="-105.2306467">
  <ele>1595.36</ele>
  <time>2026-08-28T19:10:52Z</time>
  <course>122.6</course>
  <speed>0.02</speed>
  <fix>3d</fix>
</trkpt>
<trkpt lat="40.0728034" lon="-105.2306468">
  <ele>1595.43</ele>
  <time>2026-08-28T19:10:52Z</time>
  <course>13.87</course>
  <speed>0.0</speed>
  <fix>3d</fix>
</trkpt>
<trkpt lat="40.0728032" lon="-105.2306466">
  <ele>1595.36</ele>
  <time>2026-08-28T19:10:52Z</time>
  <course>132.11</course>
  <speed>0.02</speed>
  <fix>3d</fix>
</trkpt>
<trkpt lat="40.0728034" lon="-105.2306467">
  <ele>1595.43</ele>
  <time>2026-08-28T19:10:52Z</time>
  <course>13.91</course>
  <speed>0.0</speed>
  <fix>3d</fix>
</trkpt>
<trkpt lat="40.0728032" lon="-105.2306466">
  <ele>1595.36</ele>
  <time>2026-08-28T19:10:52Z</time>
  <course>131.7</course>
  <speed>0.02</speed>
  <fix>3d</fix>
</trkpt>
<trkpt lat="40.0728034" lon="-105.2306467">
  <ele>1595.42</ele>
  <time>2026-08-28T19:10:52Z</time>
  <course>13.99</course>
  <speed>0.0</speed>
  <fix>3d</fix>
</trkpt>
<trkpt lat="40.0728032" lon="-105.2306465">
  <ele>1595.36</ele>
  <time>2026-08-28T19:10:52Z</time>
  <course>125.79</course>
  <speed>0.03</speed>
  <fix>3d</fix>
</trkpt>
<trkpt lat="40.0728033" lon="-105.2306466">
  <ele>1595.43</ele>
  <time>2026-08-28T19:10:52Z</time>
  <course>13.99</course>
  <speed>0.01</speed>
  <fix>3d</fix>
</trkpt>
<trkpt lat="40.0728031" lon="-105.2306464">
  <ele>1595.36</ele>
  <time>2026-08-28T19:10:52Z</time>
  <course>126.59</course>
  <speed>0.03</speed>
  <fix>3d</fix>
</trkpt>
<trkpt lat="40.0728033" lon="-105.2306466">
  <ele>1595.42</ele>
  <time>2026-08-28T19:10:52Z</time>
  <course>13.82</course>
  <speed>0.022360679774997897</speed>
  <fix>3d</fix>
</trkpt>
<trkpt lat="40.0728031" lon="-105.2306464">
  <ele>1595.36</ele>
  <time>2026-08-28T19:10:52Z</time>
  <course>155.36</course>
  <speed>0.03</speed>
  <fix>3d</fix>
</trkpt>
<trkpt lat="40.0728032" lon="-105.2306466">
  <ele>1595.42</ele>
  <time>2026-08-28T19:10:52Z</time>
  <course>13.81</course>
  <speed>0.02</speed>
  <fix>3d</fix>
</trkpt>
<trkpt lat="40.0728031" lon="-105.2306464">
  <ele>1595.36</ele>
  <time>2026-08-28T19:10:52Z</time>
  <course>164.91</course>
  <speed>0.04</speed>
  <fix>3d</fix>
</trkpt>
<trkpt lat="40.0728031" lon="-105.2306465">
  <ele>1595.42</ele>
  <time>2026-08-28T19:10:52Z</time>
  <course>13.77</course>
  <speed>0.01</speed>
  <fix>3d</fix>
</trkpt>
<trkpt lat="40.072803" lon="-105.2306464">
  <ele>1595.37</ele>
  <time>2026-08-28T19:10:52Z</time>
  <course>158.85</course>
  <speed>0.04</speed>
  <fix>3d</fix>
</trkpt>
<trkpt lat="40.0728031" lon="-105.2306465">
  <ele>1595.41</ele>
  <time>2026-08-28T19:10:52Z</time>
  <course>13.77</course>
  <speed>0.01</speed>
  <fix>3d</fix>
</trkpt>
<trkpt lat="40.0728029" lon="-105.2306463">
  <ele>1595.37</ele>
  <time>2026-08-28T19:10:52Z</time>
  <course>151.18</course>
  <speed>0.04</speed>
  <fix>3d</fix>
</trkpt>
<trkpt lat="40.072803" lon="-105.2306464">
  <ele>1595.42</ele>
  <time>2026-08-28T19:10:52Z</time>
  <course>13.75</course>
  <speed>0.0</speed>
  <fix>3d</fix>
</trkpt>
<trkpt lat="40.0728029" lon="-105.2306462">
  <ele>1595.37</ele>
  <time>2026-08-28T19:10:52Z</time>
  <course>140.69</course>
  <speed>0.03</speed>
  <fix>3d</fix>
</trkpt>
<trkpt lat="40.072803" lon="-105.2306464">
  <ele>1595.42</ele>
  <time>2026-08-28T19:10:52Z</time>
  <course>13.77</course>
  <speed>0.0</speed>
  <fix>3d</fix>
</trkpt>
<trkpt lat="40.0728028" lon="-105.2306462">
  <ele>1595.37</ele>
  <time>2026-08-28T19:10:52Z</time>
  <course>132.02</course>
  <speed>0.03</speed>
  <fix>3d</fix>
</trkpt>
<trkpt lat="40.0728029" lon="-105.2306463">
  <ele>1595.43</ele>
  <time>2026-08-28T19:10:52Z</time>
  <course>13.78</course>
  <speed>0.01</speed>
  <fix>3d</fix>
</trkpt>
<trkpt lat="40.0728028" lon="-105.2306461">
  <ele>1595.38</ele>
  <time>2026-08-28T19:10:52Z</time>
  <course>124.04</course>
  <speed>0.03</speed>
  <fix>3d</fix>
</trkpt>
<trkpt lat="40.0728029" lon="-105.2306462">
  <ele>1595.43</ele>
  <time>2026-08-28T19:10:52Z</time>
  <course>13.79</course>
  <speed>0.01414213562373095</speed>
  <fix>3d</fix>
</trkpt>
<trkpt lat="40.0728028" lon="-105.2306461">
  <ele>1595.38</ele>
  <time>2026-08-28T19:10:52Z</time>
  <course>116.73</course>
  <speed>0.02</speed>
  <fix>3d</fix>
</trkpt>
<trkpt lat="40.0728029" lon="-105.2306462">
  <ele>1595.44</ele>
  <time>2026-08-28T19:10:52Z</time>
  <course>13.8</course>
  <speed>0.01414213562373095</speed>
  <fix>3d</fix>
</trkpt>
<trkpt lat="40.0728028" lon="-105.230646">
  <ele>1595.38</ele>
  <time>2026-08-28T19:10:52Z</time>
  <course>109.59</course>
  <speed>0.02</speed>
  <fix>3d</fix>
</trkpt>
<trkpt lat="40.0728029" lon="-105.2306461">
  <ele>1595.44</ele>
  <time>2026-08-28T19:10:52Z</time>
  <course>13.8</course>
  <speed>0.01</speed>
  <fix>3d</fix>
</trkpt>
<trkpt lat="40.0728027" lon="-105.2306459">
  <ele>1595.38</ele>
  <time>2026-08-28T19:10:52Z</time>
  <course>103.54</course>
  <speed>0.02</speed>
  <fix>3d</fix>
</trkpt>
<trkpt lat="40.0728029" lon="-105.2306461">
  <ele>1595.44</ele>
  <time>2026-08-28T19:10:52Z</time>
  <course>13.81</course>
  <speed>0.01414213562373095</speed>
  <fix>3d</fix>
</trkpt>
<trkpt lat="40.0728026" lon="-105.2306459">
  <ele>1595.38</ele>
  <time>2026-08-28T19:10:52Z</time>
  <course>98.59</course>
  <speed>0.02</speed>
  <fix>3d</fix>
</trkpt>
<trkpt lat="40.0728029" lon="-105.230646">
  <ele>1595.44</ele>
  <time>2026-08-28T19:10:52Z</time>
  <course>13.8</course>
  <speed>0.01414213562373095</speed>
  <fix>3d</fix>
</trkpt>
<trkpt lat="40.0728026" lon="-105.2306458">
  <ele>1595.38</ele>
  <time>2026-08-28T19:10:52Z</time>
  <course>94.84</course>
  <speed>0.02</speed>
  <fix>3d</fix>
</trkpt>
<trkpt lat="40.0728029" lon="-105.2306459">
  <ele>1595.44</ele>
  <time>2026-08-28T19:10:52Z</time>
  <course>13.8</course>
  <speed>0.01414213562373095</speed>
  <fix>3d</fix>
</trkpt>
<trkpt lat="40.0728026" lon="-105.2306457">
  <ele>1595.38</ele>
  <time>2026-08-28T19:10:52Z</time>
  <course>92.68</course>
  <speed>0.02</speed>
  <fix>3d</fix>
</trkpt>
<trkpt lat="40.0728029" lon="-105.2306459">
  <ele>1595.44</ele>
  <time>2026-08-28T19:10:52Z</time>
  <course>13.8</course>
  <speed>0.01414213562373095</speed>
  <fix>3d</fix>
</trkpt>
<trkpt lat="40.0728026" lon="-105.2306457">
  <ele>1595.38</ele>
  <time>2026-08-28T19:10:52Z</time>
  <course>91.82</course>
  <speed>0.02</speed>
  <fix>3d</fix>
</trkpt>
<trkpt lat="40.0728029" lon="-105.2306458">
  <ele>1595.45</ele>
  <time>2026-08-28T19:10:52Z</time>
  <course>13.82</course>
  <speed>0.01414213562373095</speed>
  <fix>3d</fix>
</trkpt>
<trkpt lat="40.0728026" lon="-105.2306456">
  <ele>1595.38</ele>
  <time>2026-08-28T19:10:52Z</time>
  <course>91.77</course>
  <speed>0.02</speed>
  <fix>3d</fix>
</trkpt>
<trkpt lat="40.0728028" lon="-105.2306457">
  <ele>1595.45</ele>
  <time>2026-08-28T19:10:52Z</time>
  <course>13.81</course>
  <speed>0.01414213562373095</speed>
  <fix>3d</fix>
</trkpt>
<trkpt lat="40.0728026" lon="-105.2306455">
  <ele>1595.38</ele>
  <time>2026-08-28T19:10:52Z</time>
  <course>91.9</course>
  <speed>0.02</speed>
  <fix>3d</fix>
</trkpt>
<trkpt lat="40.0728028" lon="-105.2306457">
  <ele>1595.44</ele>
  <time>2026-08-28T19:10:53Z</time>
  <course>13.85</course>
  <speed>0.0316227766016838</speed>
  <fix>3d</fix>
</trkpt>
<trkpt lat="40.0728026" lon="-105.2306455">
  <ele>1595.38</ele>
  <time>2026-08-28T19:10:53Z</time>
  <course>87.33</course>
  <speed>0.02</speed>
  <fix>3d</fix>
</trkpt>
<trkpt lat="40.0728029" lon="-105.2306456">
  <ele>1595.43</ele>
  <time>2026-08-28T19:10:53Z</time>
  <course>13.93</course>
  <speed>0.04242640687119285</speed>
  <fix>3d</fix>
</trkpt>
<trkpt lat="40.0728026" lon="-105.2306454">
  <ele>1595.37</ele>
  <time>2026-08-28T19:10:53Z</time>
  <course>69.48</course>
  <speed>0.03</speed>
  <fix>3d</fix>
</trkpt>
<trkpt lat="40.0728029" lon="-105.2306455">
  <ele>1595.43</ele>
  <time>2026-08-28T19:10:53Z</time>
  <course>13.93</course>
  <speed>0.044721359549995794</speed>
  <fix>3d</fix>
</trkpt>
<trkpt lat="40.0728026" lon="-105.2306454">
  <ele>1595.37</ele>
  <time>2026-08-28T19:10:53Z</time>
  <course>54.68</course>
  <speed>0.04</speed>
  <fix>3d</fix>
</trkpt>
<trkpt lat="40.0728029" lon="-105.2306454">
  <ele>1595.42</ele>
  <time>2026-08-28T19:10:53Z</time>
  <course>13.87</course>
  <speed>0.03</speed>
  <fix>3d</fix>
</trkpt>
<trkpt lat="40.0728026" lon="-105.2306453">
  <ele>1595.37</ele>
  <time>2026-08-28T19:10:53Z</time>
  <course>48.93</course>
  <speed>0.03</speed>
  <fix>3d</fix>
</trkpt>
<trkpt lat="40.0728029" lon="-105.2306454">
  <ele>1595.42</ele>
  <time>2026-08-28T19:10:53Z</time>
  <course>13.95</course>
  <speed>0.02</speed>
  <fix>3d</fix>
</trkpt>
<trkpt lat="40.0728027" lon="-105.2306452">
  <ele>1595.37</ele>
  <time>2026-08-28T19:10:53Z</time>
  <course>64.23</course>
  <speed>0.03</speed>
  <fix>3d</fix>
</trkpt>
<trkpt lat="40.0728029" lon="-105.2306453">
  <ele>1595.42</ele>
  <time>2026-08-28T19:10:53Z</time>
  <course>13.99</course>
  <speed>0.01414213562373095</speed>
  <fix>3d</fix>
</trkpt>
<trkpt lat="40.0728028" lon="-105.2306452">
  <ele>1595.37</ele>
  <time>2026-08-28T19:10:53Z</time>
  <course>77.88</course>
  <speed>0.02</speed>
  <fix>3d</fix>
</trkpt>
<trkpt lat="40.0728029" lon="-105.2306453">
  <ele>1595.43</ele>
  <time>2026-08-28T19:10:53Z</time>
  <course>13.91</course>
  <speed>0.01</speed>
  <fix>3d</fix>
</trkpt>
<trkpt lat="40.0728028" lon="-105.2306451">
  <ele>1595.37</ele>
  <time>2026-08-28T19:10:53Z</time>
  <course>86.37</course>
  <speed>0.02</speed>
  <fix>3d</fix>
</trkpt>
<trkpt lat="40.0728029" lon="-105.2306452">
  <ele>1595.43</ele>
  <time>2026-08-28T19:10:53Z</time>
  <course>13.86</course>
  <speed>0.01</speed>
  <fix>3d</fix>
</trkpt>
<trkpt lat="40.0728028" lon="-105.230645">
  <ele>1595.37</ele>
  <time>2026-08-28T19:10:53Z</time>
  <course>103.17</course>
  <speed>0.01</speed>
  <fix>3d</fix>
</trkpt>
<trkpt lat="40.0728029" lon="-105.2306452">
  <ele>1595.44</ele>
  <time>2026-08-28T19:10:53Z</time>
  <course>13.96</course>
  <speed>0.0</speed>
  <fix>3d</fix>
</trkpt>
<trkpt lat="40.0728028" lon="-105.230645">
  <ele>1595.37</ele>
  <time>2026-08-28T19:10:53Z</time>
  <course>111.41</course>
  <speed>0.02</speed>
  <fix>3d</fix>
</trkpt>
<trkpt lat="40.0728029" lon="-105.2306451">
  <ele>1595.45</ele>
  <time>2026-08-28T19:10:53Z</time>
  <course>14.03</course>
  <speed>0.01</speed>
  <fix>3d</fix>
</trkpt>
<trkpt lat="40.0728028" lon="-105.230645">
  <ele>1595.37</ele>
  <time>2026-08-28T19:10:53Z</time>
  <course>112.66</course>
  <speed>0.03</speed>
  <fix>3d</fix>
</trkpt>
<trkpt lat="40.0728029" lon="-105.2306451">
  <ele>1595.44</ele>
  <time>2026-08-28T19:10:53Z</time>
  <course>13.99</course>
  <speed>0.0</speed>
  <fix>3d</fix>
</trkpt>
<trkpt lat="40.0728028" lon="-105.2306449">
  <ele>1595.37</ele>
  <time>2026-08-28T19:10:53Z</time>
  <course>117.52</course>
  <speed>0.02</speed>
  <fix>3d</fix>
</trkpt>
<trkpt lat="40.0728029" lon="-105.230645">
  <ele>1595.44</ele>
  <time>2026-08-28T19:10:53Z</time>
  <course>13.92</course>
  <speed>0.0</speed>
  <fix>3d</fix>
</trkpt>
<trkpt lat="40.0728028" lon="-105.2306448">
  <ele>1595.37</ele>
  <time>2026-08-28T19:10:53Z</time>
  <course>124.82</course>
  <speed>0.02</speed>
  <fix>3d</fix>
</trkpt>
<trkpt lat="40.0728029" lon="-105.230645">
  <ele>1595.44</ele>
  <time>2026-08-28T19:10:53Z</time>
  <course>13.99</course>
  <speed>0.0</speed>
  <fix>3d</fix>
</trkpt>
<trkpt lat="40.0728028" lon="-105.2306447">
  <ele>1595.37</ele>
  <time>2026-08-28T19:10:53Z</time>
  <course>122.21</course>
  <speed>0.02</speed>
  <fix>3d</fix>
</trkpt>
<trkpt lat="40.0728028" lon="-105.2306449">
  <ele>1595.44</ele>
  <time>2026-08-28T19:10:53Z</time>
  <course>14.03</course>
  <speed>0.01</speed>
  <fix>3d</fix>
</trkpt>
<trkpt lat="40.0728027" lon="-105.2306447">
  <ele>1595.36</ele>
  <time>2026-08-28T19:10:53Z</time>
  <course>119.59</course>
  <speed>0.03</speed>
  <fix>3d</fix>
</trkpt>
<trkpt lat="40.0728028" lon="-105.2306448">
  <ele>1595.43</ele>
  <time>2026-08-28T19:10:53Z</time>
  <course>13.97</course>
  <speed>0.0</speed>
  <fix>3d</fix>
</trkpt>
<trkpt lat="40.0728026" lon="-105.2306447">
  <ele>1595.36</ele>
  <time>2026-08-28T19:10:53Z</time>
  <course>123.43</course>
  <speed>0.02</speed>
  <fix>3d</fix>
</trkpt>
<trkpt lat="40.0728028" lon="-105.2306448">
  <ele>1595.43</ele>
  <time>2026-08-28T19:10:53Z</time>
  <course>13.88</course>
  <speed>0.0</speed>
  <fix>3d</fix>
</trkpt>
<trkpt lat="40.0728026" lon="-105.2306446">
  <ele>1595.36</ele>
  <time>2026-08-28T19:10:53Z</time>
  <course>130.26</course>
  <speed>0.02</speed>
  <fix>3d</fix>
</trkpt>
<trkpt lat="40.0728028" lon="-105.2306447">
  <ele>1595.43</ele>
  <time>2026-08-28T19:10:53Z</time>
  <course>13.95</course>
  <speed>0.0</speed>
  <fix>3d</fix>
</trkpt>
<trkpt lat="40.0728026" lon="-105.2306445">
  <ele>1595.36</ele>
  <time>2026-08-28T19:10:53Z</time>
  <course>126.71</course>
  <speed>0.02</speed>
  <fix>3d</fix>
</trkpt>
<trkpt lat="40.0728027" lon="-105.2306447">
  <ele>1595.43</ele>
  <time>2026-08-28T19:10:53Z</time>
  <course>14.0</course>
  <speed>0.01</speed>
  <fix>3d</fix>
</trkpt>
<trkpt lat="40.0728025" lon="-105.2306445">
  <ele>1595.36</ele>
  <time>2026-08-28T19:10:53Z</time>
  <course>123.26</course>
  <speed>0.03</speed>
  <fix>3d</fix>
</trkpt>
<trkpt lat="40.0728027" lon="-105.2306446">
  <ele>1595.43</ele>
  <time>2026-08-28T19:10:53Z</time>
  <course>13.95</course>
  <speed>0.0</speed>
  <fix>3d</fix>
</trkpt>
<trkpt lat="40.0728025" lon="-105.2306445">
  <ele>1595.36</ele>
  <time>2026-08-28T19:10:53Z</time>
  <course>127.54</course>
  <speed>0.02</speed>
  <fix>3d</fix>
</trkpt>
<trkpt lat="40.0728026" lon="-105.2306446">
  <ele>1595.43</ele>
  <time>2026-08-28T19:10:53Z</time>
  <course>13.85</course>
  <speed>0.022360679774997897</speed>
  <fix>3d</fix>
</trkpt>
<trkpt lat="40.0728025" lon="-105.2306444">
  <ele>1595.36</ele>
  <time>2026-08-28T19:10:53Z</time>
  <course>152.88</course>
  <speed>0.03</speed>
  <fix>3d</fix>
</trkpt>
<trkpt lat="40.0728026" lon="-105.2306446">
  <ele>1595.44</ele>
  <time>2026-08-28T19:10:53Z</time>
  <course>13.83</course>
  <speed>0.02</speed>
  <fix>3d</fix>
</trkpt>
<trkpt lat="40.0728025" lon="-105.2306443">
  <ele>1595.36</ele>
  <time>2026-08-28T19:10:53Z</time>
  <course>162.57</course>
  <speed>0.04</speed>
  <fix>3d</fix>
</trkpt>
<trkpt lat="40.0728025" lon="-105.2306445">
  <ele>1595.44</ele>
  <time>2026-08-28T19:10:53Z</time>
  <course>13.79</course>
  <speed>0.01</speed>
  <fix>3d</fix>
</trkpt>
<trkpt lat="40.0728024" lon="-105.2306443">
  <ele>1595.35</ele>
  <time>2026-08-28T19:10:53Z</time>
  <course>160.04</course>
  <speed>0.04</speed>
  <fix>3d</fix>
</trkpt>
<trkpt lat="40.0728024" lon="-105.2306445">
  <ele>1595.45</ele>
  <time>2026-08-28T19:10:53Z</time>
  <course>13.79</course>
  <speed>0.01</speed>
  <fix>3d</fix>
</trkpt>
<trkpt lat="40.0728023" lon="-105.2306443">
  <ele>1595.35</ele>
  <time>2026-08-28T19:10:53Z</time>
  <course>151.94</course>
  <speed>0.04</speed>
  <fix>3d</fix>
</trkpt>
<trkpt lat="40.0728024" lon="-105.2306444">
  <ele>1595.45</ele>
  <time>2026-08-28T19:10:53Z</time>
  <course>13.81</course>
  <speed>0.0</speed>
  <fix>3d</fix>
</trkpt>
<trkpt lat="40.0728023" lon="-105.2306442">
  <ele>1595.35</ele>
  <time>2026-08-28T19:10:53Z</time>
  <course>142.04</course>
  <speed>0.03</speed>
  <fix>3d</fix>
</trkpt>
<trkpt lat="40.0728024" lon="-105.2306443">
  <ele>1595.45</ele>
  <time>2026-08-28T19:10:53Z</time>
  <course>13.81</course>
  <speed>0.01</speed>
  <fix>3d</fix>
</trkpt>
<trkpt lat="40.0728022" lon="-105.2306442">
  <ele>1595.35</ele>
  <time>2026-08-28T19:10:53Z</time>
  <course>133.86</course>
  <speed>0.03</speed>
  <fix>3d</fix>
</trkpt>
<trkpt lat="40.0728023" lon="-105.2306443">
  <ele>1595.44</ele>
  <time>2026-08-28T19:10:53Z</time>
  <course>13.82</course>
  <speed>0.01</speed>
  <fix>3d</fix>
</trkpt>
<trkpt lat="40.0728022" lon="-105.2306441">
  <ele>1595.34</ele>
  <time>2026-08-28T19:10:53Z</time>
  <course>125.48</course>
  <speed>0.03</speed>
  <fix>3d</fix>
</trkpt>
<trkpt lat="40.0728023" lon="-105.2306442">
  <ele>1595.44</ele>
  <time>2026-08-28T19:10:53Z</time>
  <course>13.8</course>
  <speed>0.01</speed>
  <fix>3d</fix>
</trkpt>
<trkpt lat="40.0728022" lon="-105.230644">
  <ele>1595.34</ele>
  <time>2026-08-28T19:10:53Z</time>
  <course>118.38</course>
  <speed>0.03</speed>
  <fix>3d</fix>
</trkpt>
<trkpt lat="40.0728023" lon="-105.2306442">
  <ele>1595.44</ele>
  <time>2026-08-28T19:10:53Z</time>
  <course>13.8</course>
  <speed>0.01414213562373095</speed>
  <fix>3d</fix>
</trkpt>
<trkpt lat="40.0728021" lon="-105.230644">
  <ele>1595.34</ele>
  <time>2026-08-28T19:10:53Z</time>
  <course>112.96</course>
  <speed>0.03</speed>
  <fix>3d</fix>
</trkpt>
<trkpt lat="40.0728022" lon="-105.2306441">
  <ele>1595.43</ele>
  <time>2026-08-28T19:10:53Z</time>
  <course>13.8</course>
  <speed>0.01414213562373095</speed>
  <fix>3d</fix>
</trkpt>
<trkpt lat="40.072802" lon="-105.2306439">
  <ele>1595.33</ele>
  <time>2026-08-28T19:10:53Z</time>
  <course>108.86</course>
  <speed>0.02</speed>
  <fix>3d</fix>
</trkpt>
<trkpt lat="40.0728022" lon="-105.230644">
  <ele>1595.42</ele>
  <time>2026-08-28T19:10:53Z</time>
  <course>13.79</course>
  <speed>0.01414213562373095</speed>
  <fix>3d</fix>
</trkpt>
<trkpt lat="40.072802" lon="-105.2306438">
  <ele>1595.33</ele>
  <time>2026-08-28T19:10:53Z</time>
  <course>105.13</course>
  <speed>0.02</speed>
  <fix>3d</fix>
</trkpt>
<trkpt lat="40.0728022" lon="-105.2306439">
  <ele>1595.42</ele>
  <time>2026-08-28T19:10:53Z</time>
  <course>13.79</course>
  <speed>0.01414213562373095</speed>
  <fix>3d</fix>
</trkpt>
<trkpt lat="40.072802" lon="-105.2306438">
  <ele>1595.33</ele>
  <time>2026-08-28T19:10:53Z</time>
  <course>101.28</course>
  <speed>0.02</speed>
  <fix>3d</fix>
</trkpt>
<trkpt lat="40.0728022" lon="-105.2306439">
  <ele>1595.42</ele>
  <time>2026-08-28T19:10:53Z</time>
  <course>13.79</course>
  <speed>0.01414213562373095</speed>
  <fix>3d</fix>
</trkpt>
<trkpt lat="40.072802" lon="-105.2306437">
  <ele>1595.33</ele>
  <time>2026-08-28T19:10:53Z</time>
  <course>97.61</course>
  <speed>0.03</speed>
  <fix>3d</fix>
</trkpt>
<trkpt lat="40.0728022" lon="-105.2306438">
  <ele>1595.42</ele>
  <time>2026-08-28T19:10:53Z</time>
  <course>13.78</course>
  <speed>0.01414213562373095</speed>
  <fix>3d</fix>
</trkpt>
<trkpt lat="40.072802" lon="-105.2306436">
  <ele>1595.33</ele>
  <time>2026-08-28T19:10:53Z</time>
  <course>94.15</course>
  <speed>0.03</speed>
  <fix>3d</fix>
</trkpt>
<trkpt lat="40.0728022" lon="-105.2306437">
  <ele>1595.42</ele>
  <time>2026-08-28T19:10:53Z</time>
  <course>13.78</course>
  <speed>0.01414213562373095</speed>
  <fix>3d</fix>
</trkpt>
<trkpt lat="40.072802" lon="-105.2306435">
  <ele>1595.33</ele>
  <time>2026-08-28T19:10:53Z</time>
  <course>91.61</course>
  <speed>0.03</speed>
  <fix>3d</fix>
</trkpt>
<trkpt lat="40.0728022" lon="-105.2306436">
  <ele>1595.42</ele>
  <time>2026-08-28T19:10:53Z</time>
  <course>13.78</course>
  <speed>0.01414213562373095</speed>
  <fix>3d</fix>
</trkpt>
<trkpt lat="40.072802" lon="-105.2306435">
  <ele>1595.33</ele>
  <time>2026-08-28T19:10:53Z</time>
  <course>90.67</course>
  <speed>0.03</speed>
  <fix>3d</fix>
</trkpt>
<trkpt lat="40.0728022" lon="-105.2306436">
  <ele>1595.42</ele>
  <time>2026-08-28T19:10:53Z</time>
  <course>13.79</course>
  <speed>0.022360679774997897</speed>
  <fix>3d</fix>
</trkpt>
<trkpt lat="40.072802" lon="-105.2306434">
  <ele>1595.33</ele>
  <time>2026-08-28T19:10:53Z</time>
  <course>89.91</course>
  <speed>0.03</speed>
  <fix>3d</fix>
</trkpt>
<trkpt lat="40.0728022" lon="-105.2306435">
  <ele>1595.42</ele>
  <time>2026-08-28T19:10:53Z</time>
  <course>13.85</course>
  <speed>0.05</speed>
  <fix>3d</fix>
</trkpt>
<trkpt lat="40.072802" lon="-105.2306433">
  <ele>1595.33</ele>
  <time>2026-08-28T19:10:53Z</time>
  <course>70.07</course>
  <speed>0.03</speed>
  <fix>3d</fix>
</trkpt>
<trkpt lat="40.0728022" lon="-105.2306434">
  <ele>1595.42</ele>
  <time>2026-08-28T19:10:53Z</time>
  <course>13.82</course>
  <speed>0.0412310562561766</speed>
  <fix>3d</fix>
</trkpt>
<trkpt lat="40.072802" lon="-105.2306433">
  <ele>1595.33</ele>
  <time>2026-08-28T19:10:53Z</time>
  <course>53.24</course>
  <speed>0.04</speed>
  <fix>3d</fix>
</trkpt>
<trkpt lat="40.0728022" lon="-105.2306433">
  <ele>1595.43</ele>
  <time>2026-08-28T19:10:53Z</time>
  <course>13.93</course>
  <speed>0.03</speed>
  <fix>3d</fix>
</trkpt>
<trkpt lat="40.072802" lon="-105.2306432">
  <ele>1595.33</ele>
  <time>2026-08-28T19:10:53Z</time>
  <course>54.76</course>
  <speed>0.03</speed>
  <fix>3d</fix>
</trkpt>
<trkpt lat="40.0728022" lon="-105.2306433">
  <ele>1595.43</ele>
  <time>2026-08-28T19:10:53Z</time>
  <course>14.03</course>
  <speed>0.022360679774997897</speed>
  <fix>3d</fix>
</trkpt>
<trkpt lat="40.072802" lon="-105.2306431">
  <ele>1595.34</ele>
  <time>2026-08-28T19:10:53Z</time>
  <course>65.65</course>
  <speed>0.03</speed>
  <fix>3d</fix>
</trkpt>
<trkpt lat="40.0728022" lon="-105.2306432">
  <ele>1595.43</ele>
  <time>2026-08-28T19:10:53Z</time>
  <course>13.98</course>
  <speed>0.01</speed>
  <fix>3d</fix>
</trkpt>
<trkpt lat="40.072802" lon="-105.2306431">
  <ele>1595.34</ele>
  <time>2026-08-28T19:10:53Z</time>
  <course>68.82</course>
  <speed>0.02</speed>
  <fix>3d</fix>
</trkpt>
<trkpt lat="40.0728022" lon="-105.2306432">
  <ele>1595.43</ele>
  <time>2026-08-28T19:10:53Z</time>
  <course>13.91</course>
  <speed>0.01</speed>
  <fix>3d</fix>
</trkpt>
<trkpt lat="40.072802" lon="-105.230643">
  <ele>1595.34</ele>
  <time>2026-08-28T19:10:53Z</time>
  <course>89.21</course>
  <speed>0.01</speed>
  <fix>3d</fix>
</trkpt>
<trkpt lat="40.0728022" lon="-105.2306431">
  <ele>1595.42</ele>
  <time>2026-08-28T19:10:53Z</time>
  <course>13.99</course>
  <speed>0.0</speed>
  <fix>3d</fix>
</trkpt>
<trkpt lat="40.072802" lon="-105.230643">
  <ele>1595.34</ele>
  <time>2026-08-28T19:10:53Z</time>
  <course>109.01</course>
  <speed>0.02</speed>
  <fix>3d</fix>
</trkpt>
<trkpt lat="40.0728022" lon="-105.2306431">
  <ele>1595.42</ele>
  <time>2026-08-28T19:10:53Z</time>
  <course>14.03</course>
  <speed>0.01</speed>
  <fix>3d</fix>
</trkpt>
<trkpt lat="40.072802" lon="-105.2306429">
  <ele>1595.34</ele>
  <time>2026-08-28T19:10:53Z</time>
  <course>111.12</course>
  <speed>0.02</speed>
  <fix>3d</fix>
</trkpt>
<trkpt lat="40.0728022" lon="-105.230643">
  <ele>1595.43</ele>
  <time>2026-08-28T19:10:53Z</time>
  <course>13.9</course>
  <speed>0.0</speed>
  <fix>3d</fix>
</trkpt>
<trkpt lat="40.072802" lon="-105.2306428">
  <ele>1595.34</ele>
  <time>2026-08-28T19:10:53Z</time>
  <course>118.18</course>
  <speed>0.02</speed>
  <fix>3d</fix>
</trkpt>
<trkpt lat="40.0728022" lon="-105.230643">
  <ele>1595.43</ele>
  <time>2026-08-28T19:10:53Z</time>
  <course>13.91</course>
  <speed>0.0</speed>
  <fix>3d</fix>
</trkpt>
<trkpt lat="40.072802" lon="-105.2306428">
  <ele>1595.34</ele>
  <time>2026-08-28T19:10:53Z</time>
  <course>125.79</course>
  <speed>0.02</speed>
  <fix>3d</fix>
</trkpt>
<trkpt lat="40.0728021" lon="-105.2306429">
  <ele>1595.43</ele>
  <time>2026-08-28T19:10:53Z</time>
  <course>14.0</course>
  <speed>0.0</speed>
  <fix>3d</fix>
</trkpt>
<trkpt lat="40.072802" lon="-105.2306428">
  <ele>1595.34</ele>
  <time>2026-08-28T19:10:53Z</time>
  <course>120.37</course>
  <speed>0.03</speed>
  <fix>3d</fix>
</trkpt>
<trkpt lat="40.0728021" lon="-105.2306429">
  <ele>1595.42</ele>
  <time>2026-08-28T19:10:53Z</time>
  <course>14.01</course>
  <speed>0.01</speed>
  <fix>3d</fix>
</trkpt>
<trkpt lat="40.072802" lon="-105.2306427">
  <ele>1595.34</ele>
  <time>2026-08-28T19:10:53Z</time>
  <course>118.59</course>
  <speed>0.02</speed>
  <fix>3d</fix>
</trkpt>
<trkpt lat="40.0728021" lon="-105.2306428">
  <ele>1595.41</ele>
  <time>2026-08-28T19:10:53Z</time>
  <course>13.86</course>
  <speed>0.0</speed>
  <fix>3d</fix>
</trkpt>
<trkpt lat="40.072802" lon="-105.2306426">
  <ele>1595.34</ele>
  <time>2026-08-28T19:10:53Z</time>
  <course>127.58</course>
  <speed>0.02</speed>
  <fix>3d</fix>
</trkpt>
<trkpt lat="40.0728021" lon="-105.2306428">
  <ele>1595.41</ele>
  <time>2026-08-28T19:10:53Z</time>
  <course>13.92</course>
  <speed>0.0</speed>
  <fix>3d</fix>
</trkpt>
<trkpt lat="40.072802" lon="-105.2306426">
  <ele>1595.34</ele>
  <time>2026-08-28T19:10:53Z</time>
  <course>128.65</course>
  <speed>0.02</speed>
  <fix>3d</fix>
</trkpt>
<trkpt lat="40.0728021" lon="-105.2306427">
  <ele>1595.42</ele>
  <time>2026-08-28T19:10:53Z</time>
  <course>13.98</course>
  <speed>0.01</speed>
  <fix>3d</fix>
</trkpt>
<trkpt lat="40.0728019" lon="-105.2306425">
  <ele>1595.34</ele>
  <time>2026-08-28T19:10:53Z</time>
  <course>122.14</course>
  <speed>0.03</speed>
  <fix>3d</fix>
</trkpt>
<trkpt lat="40.072802" lon="-105.2306427">
  <ele>1595.42</ele>
  <time>2026-08-28T19:10:53Z</time>
  <course>13.94</course>
  <speed>0.0</speed>
  <fix>3d</fix>
</trkpt>
<trkpt lat="40.0728019" lon="-105.2306425">
  <ele>1595.34</ele>
  <time>2026-08-28T19:10:53Z</time>
  <course>124.33</course>
  <speed>0.02</speed>
  <fix>3d</fix>
</trkpt>
<trkpt lat="40.072802" lon="-105.2306426">
  <ele>1595.42</ele>
  <time>2026-08-28T19:10:53Z</time>
  <course>13.86</course>
  <speed>0.0</speed>
  <fix>3d</fix>
</trkpt>
<trkpt lat="40.0728019" lon="-105.2306424">
  <ele>1595.35</ele>
  <time>2026-08-28T19:10:53Z</time>
  <course>135.02</course>
  <speed>0.02</speed>
  <fix>3d</fix>
</trkpt>
<trkpt lat="40.072802" lon="-105.2306426">
  <ele>1595.42</ele>
  <time>2026-08-28T19:10:53Z</time>
  <course>13.95</course>
  <speed>0.0</speed>
  <fix>3d</fix>
</trkpt>
<trkpt lat="40.0728019" lon="-105.2306423">
  <ele>1595.35</ele>
  <time>2026-08-28T19:10:53Z</time>
  <course>130.19</course>
  <speed>0.02</speed>
  <fix>3d</fix>
</trkpt>
<trkpt lat="40.072802" lon="-105.2306425">
  <ele>1595.42</ele>
  <time>2026-08-28T19:10:53Z</time>
  <course>14.0</course>
  <speed>0.01</speed>
  <fix>3d</fix>
</trkpt>
<trkpt lat="40.0728018" lon="-105.2306423">
  <ele>1595.35</ele>
  <time>2026-08-28T19:10:53Z</time>
  <course>125.29</course>
  <speed>0.03</speed>
  <fix>3d</fix>
</trkpt>
<trkpt lat="40.0728019" lon="-105.2306425">
  <ele>1595.43</ele>
  <time>2026-08-28T19:10:53Z</time>
  <course>13.82</course>
  <speed>0.022360679774997897</speed>
  <fix>3d</fix>
</trkpt>
<trkpt lat="40.0728018" lon="-105.2306423">
  <ele>1595.36</ele>
  <time>2026-08-28T19:10:53Z</time>
  <course>156.64</course>
  <speed>0.03</speed>
  <fix>3d</fix>
</trkpt>
<trkpt lat="40.0728018" lon="-105.2306425">
  <ele>1595.43</ele>
  <time>2026-08-28T19:10:53Z</time>
  <course>13.82</course>
  <speed>0.02</speed>
  <fix>3d</fix>
</trkpt>
<trkpt lat="40.0728017" lon="-105.2306423">
  <ele>1595.36</ele>
  <time>2026-08-28T19:10:53Z</time>
  <course>168.85</course>
  <speed>0.04</speed>
  <fix>3d</fix>
</trkpt>
<trkpt lat="40.0728018" lon="-105.2306424">
  <ele>1595.43</ele>
  <time>2026-08-28T19:10:53Z</time>
  <course>13.79</course>
  <speed>0.01</speed>
  <fix>3d</fix>
</trkpt>
<trkpt lat="40.0728017" lon="-105.2306422">
  <ele>1595.36</ele>
  <time>2026-08-28T19:10:53Z</time>
  <course>159.94</course>
  <speed>0.04</speed>
  <fix>3d</fix>
</trkpt>
<trkpt lat="40.0728017" lon="-105.2306424">
  <ele>1595.43</ele>
  <time>2026-08-28T19:10:53Z</time>
  <course>13.78</course>
  <speed>0.01</speed>
  <fix>3d</fix>
</trkpt>
<trkpt lat="40.0728016" lon="-105.2306421">
  <ele>1595.36</ele>
  <time>2026-08-28T19:10:53Z</time>
  <course>152.6</course>
  <speed>0.04</speed>
  <fix>3d</fix>
</trkpt>
<trkpt lat="40.0728017" lon="-105.2306423">
  <ele>1595.43</ele>
  <time>2026-08-28T19:10:53Z</time>
  <course>13.8</course>
  <speed>0.0</speed>
  <fix>3d</fix>
</trkpt>
<trkpt lat="40.0728016" lon="-105.2306421">
  <ele>1595.36</ele>
  <time>2026-08-28T19:10:53Z</time>
  <course>142.6</course>
  <speed>0.03</speed>
  <fix>3d</fix>
</trkpt>
<trkpt lat="40.0728016" lon="-105.2306423">
  <ele>1595.44</ele>
  <time>2026-08-28T19:10:53Z</time>
  <course>13.79</course>
  <speed>0.0</speed>
  <fix>3d</fix>
</trkpt>
<trkpt lat="40.0728015" lon="-105.2306421">
  <ele>1595.36</ele>
  <time>2026-08-28T19:10:53Z</time>
  <course>134.01</course>
  <speed>0.03</speed>
  <fix>3d</fix>
</trkpt>
<trkpt lat="40.0728016" lon="-105.2306422">
  <ele>1595.43</ele>
  <time>2026-08-28T19:10:53Z</time>
  <course>13.8</course>
  <speed>0.0</speed>
  <fix>3d</fix>
</trkpt>
<trkpt lat="40.0728015" lon="-105.230642">
  <ele>1595.36</ele>
  <time>2026-08-28T19:10:53Z</time>
  <course>125.64</course>
  <speed>0.02</speed>
  <fix>3d</fix>
</trkpt>
<trkpt lat="40.0728016" lon="-105.2306421">
  <ele>1595.43</ele>
  <time>2026-08-28T19:10:53Z</time>
  <course>13.79</course>
  <speed>0.01</speed>
  <fix>3d</fix>
</trkpt>
<trkpt lat="40.0728015" lon="-105.2306419">
  <ele>1595.36</ele>
  <time>2026-08-28T19:10:53Z</time>
  <course>117.74</course>
  <speed>0.02</speed>
  <fix>3d</fix>
</trkpt>
<trkpt lat="40.0728016" lon="-105.2306421">
  <ele>1595.43</ele>
  <time>2026-08-28T19:10:53Z</time>
  <course>13.8</course>
  <speed>0.01</speed>
  <fix>3d</fix>
</trkpt>
<trkpt lat="40.0728014" lon="-105.2306419">
  <ele>1595.36</ele>
  <time>2026-08-28T19:10:53Z</time>
  <course>110.2</course>
  <speed>0.02</speed>
  <fix>3d</fix>
</trkpt>
<trkpt lat="40.0728016" lon="-105.230642">
  <ele>1595.43</ele>
  <time>2026-08-28T19:10:53Z</time>
  <course>13.8</course>
  <speed>0.01</speed>
  <fix>3d</fix>
</trkpt>
<trkpt lat="40.0728013" lon="-105.2306419">
  <ele>1595.36</ele>
  <time>2026-08-28T19:10:53Z</time>
  <course>103.59</course>
  <speed>0.02</speed>
  <fix>3d</fix>
</trkpt>
<trkpt lat="40.0728016" lon="-105.230642">
  <ele>1595.43</ele>
  <time>2026-08-28T19:10:53Z</time>
  <course>13.8</course>
  <speed>0.01</speed>
  <fix>3d</fix>
</trkpt>
<trkpt lat="40.0728013" lon="-105.2306418">
  <ele>1595.36</ele>
  <time>2026-08-28T19:10:53Z</time>
  <course>98.28</course>
  <speed>0.02</speed>
  <fix>3d</fix>
</trkpt>
<trkpt lat="40.0728016" lon="-105.2306419">
  <ele>1595.43</ele>
  <time>2026-08-28T19:10:53Z</time>
  <course>13.79</course>
  <speed>0.02</speed>
  <fix>3d</fix>
</trkpt>
<trkpt lat="40.0728013" lon="-105.2306418">
  <ele>1595.36</ele>
  <time>2026-08-28T19:10:53Z</time>
  <course>93.27</course>
  <speed>0.02</speed>
  <fix>3d</fix>
</trkpt>
<trkpt lat="40.0728016" lon="-105.2306419">
  <ele>1595.43</ele>
  <time>2026-08-28T19:10:53Z</time>
  <course>13.79</course>
  <speed>0.02</speed>
  <fix>3d</fix>
</trkpt>
<trkpt lat="40.0728013" lon="-105.2306417">
  <ele>1595.36</ele>
  <time>2026-08-28T19:10:53Z</time>
  <course>89.6</course>
  <speed>0.02</speed>
  <fix>3d</fix>
</trkpt>
<trkpt lat="40.0728016" lon="-105.2306418">
  <ele>1595.43</ele>
  <time>2026-08-28T19:10:53Z</time>
  <course>13.79</course>
  <speed>0.022360679774997897</speed>
  <fix>3d</fix>
</trkpt>
<trkpt lat="40.0728013" lon="-105.2306416">
  <ele>1595.36</ele>
  <time>2026-08-28T19:10:53Z</time>
  <course>87.18</course>
  <speed>0.02</speed>
  <fix>3d</fix>
</trkpt>
<trkpt lat="40.0728015" lon="-105.2306417">
  <ele>1595.43</ele>
  <time>2026-08-28T19:10:53Z</time>
  <course>13.79</course>
  <speed>0.022360679774997897</speed>
  <fix>3d</fix>
</trkpt>
<trkpt lat="40.0728013" lon="-105.2306416">
  <ele>1595.36</ele>
  <time>2026-08-28T19:10:53Z</time>
  <course>85.04</course>
  <speed>0.02</speed>
  <fix>3d</fix>
</trkpt>
<trkpt lat="40.0728015" lon="-105.2306417">
  <ele>1595.44</ele>
  <time>2026-08-28T19:10:53Z</time>
  <course>13.8</course>
  <speed>0.022360679774997897</speed>
  <fix>3d</fix>
</trkpt>
<trkpt lat="40.0728013" lon="-105.2306415">
  <ele>1595.37</ele>
  <time>2026-08-28T19:10:53Z</time>
  <course>83.34</course>
  <speed>0.02</speed>
  <fix>3d</fix>
</trkpt>
<trkpt lat="40.0728015" lon="-105.2306416">
  <ele>1595.43</ele>
  <time>2026-08-28T19:10:53Z</time>
  <course>13.8</course>
  <speed>0.0316227766016838</speed>
  <fix>3d</fix>
</trkpt>
<trkpt lat="40.0728013" lon="-105.2306414">
  <ele>1595.36</ele>
  <time>2026-08-28T19:10:53Z</time>
  <course>77.12</course>
  <speed>0.02</speed>
  <fix>3d</fix>
</trkpt>
<trkpt lat="40.0728015" lon="-105.2306415">
  <ele>1595.43</ele>
  <time>2026-08-28T19:10:53Z</time>
  <course>13.92</course>
  <speed>0.05</speed>
  <fix>3d</fix>
</trkpt>
<trkpt lat="40.0728013" lon="-105.2306414">
  <ele>1595.36</ele>
  <time>2026-08-28T19:10:53Z</time>
  <course>62.67</course>
  <speed>0.04</speed>
  <fix>3d</fix>
</trkpt>
<trkpt lat="40.0728015" lon="-105.2306414">
  <ele>1595.44</ele>
  <time>2026-08-28T19:10:53Z</time>
  <course>13.92</course>
  <speed>0.0412310562561766</speed>
  <fix>3d</fix>
</trkpt>
<trkpt lat="40.0728013" lon="-105.2306413">
  <ele>1595.36</ele>
  <time>2026-08-28T19:10:53Z</time>
  <course>49.7</course>
  <speed>0.04</speed>
  <fix>3d</fix>
</trkpt>
<trkpt lat="40.0728016" lon="-105.2306414">
  <ele>1595.44</ele>
  <time>2026-08-28T19:10:53Z</time>
  <course>13.93</course>
  <speed>0.03</speed>
  <fix>3d</fix>
</trkpt>
<trkpt lat="40.0728014" lon="-105.2306412">
  <ele>1595.36</ele>
  <time>2026-08-28T19:10:53Z</time>
  <course>44.9</course>
  <speed>0.03</speed>
  <fix>3d</fix>
</trkpt>
<trkpt lat="40.0728016" lon="-105.2306413">
  <ele>1595.45</ele>
  <time>2026-08-28T19:10:53Z</time>
  <course>14.04</course>
  <speed>0.02</speed>
  <fix>3d</fix>
</trkpt>
<trkpt lat="40.0728015" lon="-105.2306411">
  <ele>1595.36</ele>
  <time>2026-08-28T19:10:53Z</time>
  <course>63.49</course>
  <speed>0.03</speed>
  <fix>3d</fix>
</trkpt>
<trkpt lat="40.0728016" lon="-105.2306413">
  <ele>1595.45</ele>
  <time>2026-08-28T19:10:53Z</time>
  <course>14.08</course>
  <speed>0.01414213562373095</speed>
  <fix>3d</fix>
</trkpt>
<trkpt lat="40.0728015" lon="-105.2306411">
  <ele>1595.36</ele>
  <time>2026-08-28T19:10:53Z</time>
  <course>75.6</course>
  <speed>0.02</speed>
  <fix>3d</fix>
</trkpt>
<trkpt lat="40.0728016" lon="-105.2306412">
  <ele>1595.45</ele>
  <time>2026-08-28T19:10:53Z</time>
  <course>13.95</course>
  <speed>0.01</speed>
  <fix>3d</fix>
</trkpt>
<trkpt lat="40.0728015" lon="-105.2306411">
  <ele>1595.36</ele>
  <time>2026-08-28T19:10:53Z</time>
  <course>86.57</course>
  <speed>0.01</speed>
  <fix>3d</fix>
</trkpt>
<trkpt lat="40.0728016" lon="-105.2306412">
  <ele>1595.45</ele>
  <time>2026-08-28T19:10:53Z</time>
  <course>13.98</course>
  <speed>0.0</speed>
  <fix>3d</fix>
</trkpt>
<trkpt lat="40.0728015" lon="-105.230641">
  <ele>1595.35</ele>
  <time>2026-08-28T19:10:53Z</time>
  <course>109.88</course>
  <speed>0.02</speed>
  <fix>3d</fix>
</trkpt>
<trkpt lat="40.0728016" lon="-105.2306411">
  <ele>1595.45</ele>
  <time>2026-08-28T19:10:53Z</time>
  <course>14.07</course>
  <speed>0.01</speed>
  <fix>3d</fix>
</trkpt>
<trkpt lat="40.0728015" lon="-105.2306409">
  <ele>1595.35</ele>
  <time>2026-08-28T19:10:53Z</time>
  <course>113.23</course>
  <speed>0.03</speed>
  <fix>3d</fix>
</trkpt>
<trkpt lat="40.0728016" lon="-105.2306411">
  <ele>1595.44</ele>
  <time>2026-08-28T19:10:53Z</time>
  <course>14.06</course>
  <speed>0.01</speed>
  <fix>3d</fix>
</trkpt>
<trkpt lat="40.0728015" lon="-105.2306409">
  <ele>1595.34</ele>
  <time>2026-08-28T19:10:53Z</time>
  <course>115.15</course>
  <speed>0.02</speed>
  <fix>3d</fix>
</trkpt>
<trkpt lat="40.0728016" lon="-105.230641">
  <ele>1595.43</ele>
  <time>2026-08-28T19:10:53Z</time>
  <course>13.92</course>
  <speed>0.0</speed>
  <fix>3d</fix>
</trkpt>
<trkpt lat="40.0728015" lon="-105.2306408">
  <ele>1595.34</ele>
  <time>2026-08-28T19:10:53Z</time>
  <course>125.43</course>
  <speed>0.02</speed>
  <fix>3d</fix>
</trkpt>
<trkpt lat="40.0728016" lon="-105.2306409">
  <ele>1595.43</ele>
  <time>2026-08-28T19:10:53Z</time>
  <course>13.97</course>
  <speed>0.0</speed>
  <fix>3d</fix>
</trkpt>
<trkpt lat="40.0728015" lon="-105.2306407">
  <ele>1595.34</ele>
  <time>2026-08-28T19:10:53Z</time>
  <course>126.41</course>
  <speed>0.02</speed>
  <fix>3d</fix>
</trkpt>
<trkpt lat="40.0728016" lon="-105.2306409">
  <ele>1595.43</ele>
  <time>2026-08-28T19:10:53Z</time>
  <course>14.04</course>
  <speed>0.01</speed>
  <fix>3d</fix>
</trkpt>
<trkpt lat="40.0728015" lon="-105.2306407">
  <ele>1595.34</ele>
  <time>2026-08-28T19:10:53Z</time>
  <course>121.65</course>
  <speed>0.03</speed>
  <fix>3d</fix>
</trkpt>
<trkpt lat="40.0728015" lon="-105.2306408">
  <ele>1595.42</ele>
  <time>2026-08-28T19:10:53Z</time>
  <course>13.96</course>
  <speed>0.0</speed>
  <fix>3d</fix>
</trkpt>
<trkpt lat="40.0728014" lon="-105.2306407">
  <ele>1595.33</ele>
  <time>2026-08-28T19:10:53Z</time>
  <course>125.27</course>
  <speed>0.02</speed>
  <fix>3d</fix>
</trkpt>
<trkpt lat="40.0728015" lon="-105.2306408">
  <ele>1595.42</ele>
  <time>2026-08-28T19:10:53Z</time>
  <course>13.88</course>
  <speed>0.0</speed>
  <fix>3d</fix>
</trkpt>
<trkpt lat="40.0728013" lon="-105.2306406">
  <ele>1595.33</ele>
  <time>2026-08-28T19:10:53Z</time>
  <course>134.89</course>
  <speed>0.02</speed>
  <fix>3d</fix>
</trkpt>
<trkpt lat="40.0728015" lon="-105.2306407">
  <ele>1595.42</ele>
  <time>2026-08-28T19:10:53Z</time>
  <course>13.97</course>
  <speed>0.0</speed>
  <fix>3d</fix>
</trkpt>
<trkpt lat="40.0728013" lon="-105.2306406">
  <ele>1595.33</ele>
  <time>2026-08-28T19:10:53Z</time>
  <course>129.73</course>
  <speed>0.03</speed>
  <fix>3d</fix>
</trkpt>
<trkpt lat="40.0728014" lon="-105.2306407">
  <ele>1595.43</ele>
  <time>2026-08-28T19:10:53Z</time>
  <course>14.02</course>
  <speed>0.01</speed>
  <fix>3d</fix>
</trkpt>
<trkpt lat="40.0728013" lon="-105.2306405">
  <ele>1595.34</ele>
  <time>2026-08-28T19:10:53Z</time>
  <course>125.78</course>
  <speed>0.03</speed>
  <fix>3d</fix>
</trkpt>
<trkpt lat="40.0728014" lon="-105.2306406">
  <ele>1595.43</ele>
  <time>2026-08-28T19:10:53Z</time>
  <course>13.93</course>
  <speed>0.0</speed>
  <fix>3d</fix>
</trkpt>
<trkpt lat="40.0728012" lon="-105.2306404">
  <ele>1595.34</ele>
  <time>2026-08-28T19:10:53Z</time>
  <course>133.98</course>
  <speed>0.02</speed>
  <fix>3d</fix>
</trkpt>
<trkpt lat="40.0728014" lon="-105.2306406">
  <ele>1595.43</ele>
  <time>2026-08-28T19:10:53Z</time>
  <course>13.92</course>
  <speed>0.0</speed>
  <fix>3d</fix>
</trkpt>
<trkpt lat="40.0728012" lon="-105.2306404">
  <ele>1595.34</ele>
  <time>2026-08-28T19:10:53Z</time>
  <course>140.15</course>
  <speed>0.02</speed>
  <fix>3d</fix>
</trkpt>
<trkpt lat="40.0728013" lon="-105.2306405">
  <ele>1595.44</ele>
  <time>2026-08-28T19:10:53Z</time>
  <course>14.03</course>
  <speed>0.01</speed>
  <fix>3d</fix>
</trkpt>
<trkpt lat="40.0728012" lon="-105.2306404">
  <ele>1595.34</ele>
  <time>2026-08-28T19:10:53Z</time>
  <course>134.28</course>
  <speed>0.03</speed>
  <fix>3d</fix>
</trkpt>
<trkpt lat="40.0728013" lon="-105.2306405">
  <ele>1595.44</ele>
  <time>2026-08-28T19:10:53Z</time>
  <course>13.84</course>
  <speed>0.022360679774997897</speed>
  <fix>3d</fix>
</trkpt>
<trkpt lat="40.0728012" lon="-105.2306403">
  <ele>1595.34</ele>
  <time>2026-08-28T19:10:53Z</time>
  <course>157.96</course>
  <speed>0.04</speed>
  <fix>3d</fix>
</trkpt>
<trkpt lat="40.0728012" lon="-105.2306405">
  <ele>1595.44</ele>
  <time>2026-08-28T19:10:53Z</time>
  <course>13.81</course>
  <speed>0.02</speed>
  <fix>3d</fix>
</trkpt>
<trkpt lat="40.0728011" lon="-105.2306402">
  <ele>1595.34</ele>
  <time>2026-08-28T19:10:53Z</time>
  <course>170.02</course>
  <speed>0.05</speed>
  <fix>3d</fix>
</trkpt>
<trkpt lat="40.0728011" lon="-105.2306404">
  <ele>1595.43</ele>
  <time>2026-08-28T19:10:53Z</time>
  <course>13.79</course>
  <speed>0.01</speed>
  <fix>3d</fix>
</trkpt>
<trkpt lat="40.072801" lon="-105.2306402">
  <ele>1595.33</ele>
  <time>2026-08-28T19:10:53Z</time>
  <course>158.8</course>
  <speed>0.04</speed>
  <fix>3d</fix>
</trkpt>
<trkpt lat="40.072801" lon="-105.2306404">
  <ele>1595.43</ele>
  <time>2026-08-28T19:10:53Z</time>
  <course>13.78</course>
  <speed>0.01</speed>
  <fix>3d</fix>
</trkpt>
<trkpt lat="40.0728009" lon="-105.2306402">
  <ele>1595.33</ele>
  <time>2026-08-28T19:10:53Z</time>
  <course>151.36</course>
  <speed>0.04</speed>
  <fix>3d</fix>
</trkpt>
<trkpt lat="40.072801" lon="-105.2306403">
  <ele>1595.42</ele>
  <time>2026-08-28T19:10:53Z</time>
  <course>13.79</course>
  <speed>0.0</speed>
  <fix>3d</fix>
</trkpt>
<trkpt lat="40.0728009" lon="-105.2306402">
  <ele>1595.33</ele>
  <time>2026-08-28T19:10:53Z</time>
  <course>143.33</course>
  <speed>0.03</speed>
  <fix>3d</fix>
</trkpt>
<trkpt lat="40.072801" lon="-105.2306403">
  <ele>1595.42</ele>
  <time>2026-08-28T19:10:53Z</time>
  <course>13.78</course>
  <speed>0.01</speed>
  <fix>3d</fix>
</trkpt>
<trkpt lat="40.0728008" lon="-105.2306401">
  <ele>1595.33</ele>
  <time>2026-08-28T19:10:53Z</time>
  <course>135.38</course>
  <speed>0.03</speed>
  <fix>3d</fix>
</trkpt>
<trkpt lat="40.0728009" lon="-105.2306402">
  <ele>1595.42</ele>
  <time>2026-08-28T19:10:53Z</time>
  <course>13.76</course>
  <speed>0.01</speed>
  <fix>3d</fix>
</trkpt>
<trkpt lat="40.0728007" lon="-105.23064">
  <ele>1595.33</ele>
  <time>2026-08-28T19:10:53Z</time>
  <course>127.78</course>
  <speed>0.03</speed>
  <fix>3d</fix>
</trkpt>
<trkpt lat="40.0728009" lon="-105.2306401">
  <ele>1595.42</ele>
  <time>2026-08-28T19:10:53Z</time>
  <course>13.76</course>
  <speed>0.01</speed>
  <fix>3d</fix>
</trkpt>
<trkpt lat="40.0728007" lon="-105.2306399">
  <ele>1595.33</ele>
  <time>2026-08-28T19:10:53Z</time>
  <course>120.64</course>
  <speed>0.03</speed>
  <fix>3d</fix>
</trkpt>
<trkpt lat="40.0728009" lon="-105.2306401">
  <ele>1595.42</ele>
  <time>2026-08-28T19:10:53Z</time>
  <course>13.77</course>
  <speed>0.01414213562373095</speed>
  <fix>3d</fix>
</trkpt>
<trkpt lat="40.0728007" lon="-105.2306399">
  <ele>1595.33</ele>
  <time>2026-08-28T19:10:53Z</time>
  <course>114.99</course>
  <speed>0.03</speed>
  <fix>3d</fix>
</trkpt>
<trkpt lat="40.0728009" lon="-105.23064">
  <ele>1595.41</ele>
  <time>2026-08-28T19:10:53Z</time>
  <course>13.78</course>
  <speed>0.01414213562373095</speed>
  <fix>3d</fix>
</trkpt>
<trkpt lat="40.0728006" lon="-105.2306398">
  <ele>1595.33</ele>
  <time>2026-08-28T19:10:53Z</time>
  <course>111.17</course>
  <speed>0.02</speed>
  <fix>3d</fix>
</trkpt>
<trkpt lat="40.0728008" lon="-105.2306399">
  <ele>1595.41</ele>
  <time>2026-08-28T19:10:53Z</time>
  <course>13.76</course>
  <speed>0.01414213562373095</speed>
  <fix>3d</fix>
</trkpt>
<trkpt lat="40.0728006" lon="-105.2306397">
  <ele>1595.33</ele>
  <time>2026-08-28T19:10:53Z</time>
  <course>107.98</course>
  <speed>0.02</speed>
  <fix>3d</fix>
</trkpt>
<trkpt lat="40.0728008" lon="-105.2306399">
  <ele>1595.42</ele>
  <time>2026-08-28T19:10:53Z</time>
  <course>13.76</course>
  <speed>0.01414213562373095</speed>
  <fix>3d</fix>
</trkpt>
<trkpt lat="40.0728006" lon="-105.2306397">
  <ele>1595.34</ele>
  <time>2026-08-28T19:10:53Z</time>
  <course>105.24</course>
  <speed>0.02</speed>
  <fix>3d</fix>
</trkpt>
<trkpt lat="40.0728008" lon="-105.2306398">
  <ele>1595.42</ele>
  <time>2026-08-28T19:10:53Z</time>
  <course>13.78</course>
  <speed>0.01414213562373095</speed>
  <fix>3d</fix>
</trkpt>
<trkpt lat="40.0728006" lon="-105.2306396">
  <ele>1595.34</ele>
  <time>2026-08-28T19:10:53Z</time>
  <course>103.25</course>
  <speed>0.02</speed>
  <fix>3d</fix>
</trkpt>
<trkpt lat="40.0728008" lon="-105.2306397">
  <ele>1595.42</ele>
  <time>2026-08-28T19:10:53Z</time>
  <course>13.79</course>
  <speed>0.01414213562373095</speed>
  <fix>3d</fix>
</trkpt>
<trkpt lat="40.0728006" lon="-105.2306395">
  <ele>1595.34</ele>
  <time>2026-08-28T19:10:53Z</time>
  <course>102.28</course>
  <speed>0.02</speed>
  <fix>3d</fix>
</trkpt>
<trkpt lat="40.0728008" lon="-105.2306397">
  <ele>1595.42</ele>
  <time>2026-08-28T19:10:53Z</time>
  <course>13.78</course>
  <speed>0.01414213562373095</speed>
  <fix>3d</fix>
</trkpt>
<trkpt lat="40.0728006" lon="-105.2306395">
  <ele>1595.35</ele>
  <time>2026-08-28T19:10:53Z</time>
  <course>102.3</course>
  <speed>0.02</speed>
  <fix>3d</fix>
</trkpt>
<trkpt lat="40.0728008" lon="-105.2306396">
  <ele>1595.43</ele>
  <time>2026-08-28T19:10:53Z</time>
  <course>13.78</course>
  <speed>0.01414213562373095</speed>
  <fix>3d</fix>
</trkpt>
<trkpt lat="40.0728006" lon="-105.2306395">
  <ele>1595.35</ele>
  <time>2026-08-28T19:10:53Z</time>
  <course>101.68</course>
  <speed>0.02</speed>
  <fix>3d</fix>
</trkpt>
<trkpt lat="40.0728008" lon="-105.2306395">
  <ele>1595.43</ele>
  <time>2026-08-28T19:10:53Z</time>
  <course>13.75</course>
  <speed>0.0316227766016838</speed>
  <fix>3d</fix>
</trkpt>
<trkpt lat="40.0728006" lon="-105.2306394">
  <ele>1595.35</ele>
  <time>2026-08-28T19:10:53Z</time>
  <course>83.98</course>
  <speed>0.02</speed>
  <fix>3d</fix>
</trkpt>
<trkpt lat="40.0728008" lon="-105.2306394">
  <ele>1595.42</ele>
  <time>2026-08-28T19:10:53Z</time>
  <course>13.88</course>
  <speed>0.0412310562561766</speed>
  <fix>3d</fix>
</trkpt>
<trkpt lat="40.0728006" lon="-105.2306393">
  <ele>1595.35</ele>
  <time>2026-08-28T19:10:53Z</time>
  <course>67.44</course>
  <speed>0.03</speed>
  <fix>3d</fix>
</trkpt>
<trkpt lat="40.0728008" lon="-105.2306394">
  <ele>1595.42</ele>
  <time>2026-08-28T19:10:53Z</time>
  <course>13.98</course>
  <speed>0.03605551275463989</speed>
  <fix>3d</fix>
</trkpt>
<trkpt lat="40.0728006" lon="-105.2306392">
  <ele>1595.35</ele>
  <time>2026-08-28T19:10:53Z</time>
  <course>62.77</course>
  <speed>0.04</speed>
  <fix>3d</fix>
</trkpt>
<trkpt lat="40.0728008" lon="-105.2306393">
  <ele>1595.42</ele>
  <time>2026-08-28T19:10:53Z</time>
  <course>13.92</course>
  <speed>0.0316227766016838</speed>
  <fix>3d</fix>
</trkpt>
<trkpt lat="40.0728006" lon="-105.2306392">
  <ele>1595.36</ele>
  <time>2026-08-28T19:10:53Z</time>
  <course>53.98</course>
  <speed>0.03</speed>
  <fix>3d</fix>
</trkpt>
<trkpt lat="40.0728008" lon="-105.2306393">
  <ele>1595.43</ele>
  <time>2026-08-28T19:10:53Z</time>
  <course>13.87</course>
  <speed>0.02</speed>
  <fix>3d</fix>
</trkpt>
<trkpt lat="40.0728006" lon="-105.2306391">
  <ele>1595.36</ele>
  <time>2026-08-28T19:10:53Z</time>
  <course>57.93</course>
  <speed>0.02</speed>
  <fix>3d</fix>
</trkpt>
<trkpt lat="40.0728008" lon="-105.2306392">
  <ele>1595.43</ele>
  <time>2026-08-28T19:10:53Z</time>
  <course>13.96</course>
  <speed>0.01</speed>
  <fix>3d</fix>
</trkpt>
<trkpt lat="40.0728006" lon="-105.230639">
  <ele>1595.36</ele>
  <time>2026-08-28T19:10:53Z</time>
  <course>86.53</course>
  <speed>0.02</speed>
  <fix>3d</fix>
</trkpt>
<trkpt lat="40.0728008" lon="-105.2306392">
  <ele>1595.43</ele>
  <time>2026-08-28T19:10:53Z</time>
  <course>14.03</course>
  <speed>0.01</speed>
  <fix>3d</fix>
</trkpt>
<trkpt lat="40.0728006" lon="-105.230639">
  <ele>1595.36</ele>
  <time>2026-08-28T19:10:53Z</time>
  <course>100.32</course>
  <speed>0.02</speed>
  <fix>3d</fix>
</trkpt>
<trkpt lat="40.0728008" lon="-105.2306391">
  <ele>1595.43</ele>
  <time>2026-08-28T19:10:53Z</time>
  <course>13.96</course>
  <speed>0.0</speed>
  <fix>3d</fix>
</trkpt>
<trkpt lat="40.0728006" lon="-105.230639">
  <ele>1595.36</ele>
  <time>2026-08-28T19:10:53Z</time>
  <course>109.61</course>
  <speed>0.02</speed>
  <fix>3d</fix>
</trkpt>
<trkpt lat="40.0728008" lon="-105.2306391">
  <ele>1595.44</ele>
  <time>2026-08-28T19:10:53Z</time>
  <course>13.88</course>
  <speed>0.0</speed>
  <fix>3d</fix>
</trkpt>
<trkpt lat="40.0728006" lon="-105.2306389">
  <ele>1595.36</ele>
  <time>2026-08-28T19:10:53Z</time>
  <course>120.51</course>
  <speed>0.01</speed>
  <fix>3d</fix>
</trkpt>
<trkpt lat="40.0728008" lon="-105.230639">
  <ele>1595.44</ele>
  <time>2026-08-28T19:10:53Z</time>
  <course>13.97</course>
  <speed>0.0</speed>
  <fix>3d</fix>
</trkpt>
<trkpt lat="40.0728006" lon="-105.2306388">
  <ele>1595.36</ele>
  <time>2026-08-28T19:10:53Z</time>
  <course>119.39</course>
  <speed>0.02</speed>
  <fix>3d</fix>
</trkpt>
<trkpt lat="40.0728008" lon="-105.230639">
  <ele>1595.44</ele>
  <time>2026-08-28T19:10:53Z</time>
  <course>14.03</course>
  <speed>0.01</speed>
  <fix>3d</fix>
</trkpt>
<trkpt lat="40.0728006" lon="-105.2306388">
  <ele>1595.36</ele>
  <time>2026-08-28T19:10:53Z</time>
  <course>116.75</course>
  <speed>0.03</speed>
  <fix>3d</fix>
</trkpt>
<trkpt lat="40.0728007" lon="-105.2306389">
  <ele>1595.43</ele>
  <time>2026-08-28T19:10:53Z</time>
  <course>13.98</course>
  <speed>0.01</speed>
  <fix>3d</fix>
</trkpt>
<trkpt lat="40.0728006" lon="-105.2306387">
  <ele>1595.36</ele>
  <time>2026-08-28T19:10:53Z</time>
  <course>119.63</course>
  <speed>0.02</speed>
  <fix>3d</fix>
</trkpt>
<trkpt lat="40.0728007" lon="-105.2306389">
  <ele>1595.43</ele>
  <time>2026-08-28T19:10:53Z</time>
  <course>13.87</course>
  <speed>0.0</speed>
  <fix>3d</fix>
</trkpt>
<trkpt lat="40.0728006" lon="-105.2306387">
  <ele>1595.36</ele>
  <time>2026-08-28T19:10:53Z</time>
  <course>126.55</course>
  <speed>0.02</speed>
  <fix>3d</fix>
</trkpt>
<trkpt lat="40.0728007" lon="-105.2306388">
  <ele>1595.43</ele>
  <time>2026-08-28T19:10:53Z</time>
  <course>13.94</course>
  <speed>0.0</speed>
  <fix>3d</fix>
</trkpt>
<trkpt lat="40.0728006" lon="-105.2306386">
  <ele>1595.36</ele>
  <time>2026-08-28T19:10:53Z</time>
  <course>124.0</course>
  <speed>0.02</speed>
  <fix>3d</fix>
</trkpt>
<trkpt lat="40.0728007" lon="-105.2306388">
  <ele>1595.43</ele>
  <time>2026-08-28T19:10:53Z</time>
  <course>14.0</course>
  <speed>0.01</speed>
  <fix>3d</fix>
</trkpt>
<trkpt lat="40.0728006" lon="-105.2306385">
  <ele>1595.36</ele>
  <time>2026-08-28T19:10:53Z</time>
  <course>120.14</course>
  <speed>0.03</speed>
  <fix>3d</fix>
</trkpt>
<trkpt lat="40.0728007" lon="-105.2306387">
  <ele>1595.43</ele>
  <time>2026-08-28T19:10:53Z</time>
  <course>13.98</course>
  <speed>0.01</speed>
  <fix>3d</fix>
</trkpt>
<trkpt lat="40.0728005" lon="-105.2306385">
  <ele>1595.36</ele>
  <time>2026-08-28T19:10:53Z</time>
  <course>122.84</course>
  <speed>0.02</speed>
  <fix>3d</fix>
</trkpt>
<trkpt lat="40.0728006" lon="-105.2306386">
  <ele>1595.43</ele>
  <time>2026-08-28T19:10:54Z</time>
  <course>13.87</course>
  <speed>0.0</speed>
  <fix>3d</fix>
</trkpt>
<trkpt lat="40.0728005" lon="-105.2306385">
  <ele>1595.36</ele>
  <time>2026-08-28T19:10:54Z</time>
  <course>130.99</course>
  <speed>0.02</speed>
  <fix>3d</fix>
</trkpt>
<trkpt lat="40.0728006" lon="-105.2306386">
  <ele>1595.44</ele>
  <time>2026-08-28T19:10:54Z</time>
  <course>13.93</course>
  <speed>0.0</speed>
  <fix>3d</fix>
</trkpt>
<trkpt lat="40.0728005" lon="-105.2306384">
  <ele>1595.36</ele>
  <time>2026-08-28T19:10:54Z</time>
  <course>128.78</course>
  <speed>0.02</speed>
  <fix>3d</fix>
</trkpt>
<trkpt lat="40.0728006" lon="-105.2306386">
  <ele>1595.43</ele>
  <time>2026-08-28T19:10:54Z</time>
  <course>14.02</course>
  <speed>0.0</speed>
  <fix>3d</fix>
</trkpt>
<trkpt lat="40.0728005" lon="-105.2306383">
  <ele>1595.36</ele>
  <time>2026-08-28T19:10:54Z</time>
  <course>125.52</course>
  <speed>0.03</speed>
  <fix>3d</fix>
</trkpt>
<trkpt lat="40.0728005" lon="-105.2306385">
  <ele>1595.43</ele>
  <time>2026-08-28T19:10:54Z</time>
  <course>13.83</course>
  <speed>0.022360679774997897</speed>
  <fix>3d</fix>
</trkpt>
<trkpt lat="40.0728004" lon="-105.2306383">
  <ele>1595.36</ele>
  <time>2026-08-28T19:10:54Z</time>
  <course>154.72</course>
  <speed>0.03</speed>
  <fix>3d</fix>
</trkpt>
<trkpt lat="40.0728005" lon="-105.2306385">
  <ele>1595.44</ele>
  <time>2026-08-28T19:10:54Z</time>
  <course>13.8</course>
  <speed>0.02</speed>
  <fix>3d</fix>
</trkpt>
<trkpt lat="40.0728003" lon="-105.2306383">
  <ele>1595.36</ele>
  <time>2026-08-28T19:10:54Z</time>
  <course>167.32</course>
  <speed>0.04</speed>
  <fix>3d</fix>
</trkpt>
<trkpt lat="40.0728004" lon="-105.2306384">
  <ele>1595.44</ele>
  <time>2026-08-28T19:10:54Z</time>
  <course>13.78</course>
  <speed>0.01</speed>
  <fix>3d</fix>
</trkpt>
<trkpt lat="40.0728002" lon="-105.2306383">
  <ele>1595.36</ele>
  <time>2026-08-28T19:10:54Z</time>
  <course>155.23</course>
  <speed>0.04</speed>
  <fix>3d</fix>
</trkpt>
<trkpt lat="40.0728003" lon="-105.2306384">
  <ele>1595.44</ele>
  <time>2026-08-28T19:10:54Z</time>
  <course>13.78</course>
  <speed>0.0</speed>
  <fix>3d</fix>
</trkpt>
<trkpt lat="40.0728001" lon="-105.2306382">
  <ele>1595.35</ele>
  <time>2026-08-28T19:10:54Z</time>
  <course>146.79</course>
  <speed>0.03</speed>
  <fix>3d</fix>
</trkpt>
<trkpt lat="40.0728003" lon="-105.2306383">
  <ele>1595.44</ele>
  <time>2026-08-28T19:10:54Z</time>
  <course>13.8</course>
  <speed>0.01</speed>
  <fix>3d</fix>
</trkpt>
<trkpt lat="40.0728001" lon="-105.2306382">
  <ele>1595.35</ele>
  <time>2026-08-28T19:10:54Z</time>
  <course>136.88</course>
  <speed>0.03</speed>
  <fix>3d</fix>
</trkpt>
<trkpt lat="40.0728002" lon="-105.2306383">
  <ele>1595.44</ele>
  <time>2026-08-28T19:10:54Z</time>
  <course>13.81</course>
  <speed>0.01</speed>
  <fix>3d</fix>
</trkpt>
<trkpt lat="40.0728" lon="-105.2306381">
  <ele>1595.35</ele>
  <time>2026-08-28T19:10:54Z</time>
  <course>128.39</course>
  <speed>0.03</speed>
  <fix>3d</fix>
</trkpt>
<trkpt lat="40.0728002" lon="-105.2306382">
  <ele>1595.44</ele>
  <time>2026-08-28T19:10:54Z</time>
  <course>13.81</course>
  <speed>0.01</speed>
  <fix>3d</fix>
</trkpt>
<trkpt lat="40.0728" lon="-105.230638">
  <ele>1595.35</ele>
  <time>2026-08-28T19:10:54Z</time>
  <course>121.17</course>
  <speed>0.03</speed>
  <fix>3d</fix>
</trkpt>
<trkpt lat="40.0728002" lon="-105.2306381">
  <ele>1595.43</ele>
  <time>2026-08-28T19:10:54Z</time>
  <course>13.79</course>
  <speed>0.01414213562373095</speed>
  <fix>3d</fix>
</trkpt>
<trkpt lat="40.0728" lon="-105.230638">
  <ele>1595.35</ele>
  <time>2026-08-28T19:10:54Z</time>
  <course>113.89</course>
  <speed>0.03</speed>
  <fix>3d</fix>
</trkpt>
<trkpt lat="40.0728001" lon="-105.2306381">
  <ele>1595.43</ele>
  <time>2026-08-28T19:10:54Z</time>
  <course>13.79</course>
  <speed>0.01414213562373095</speed>
  <fix>3d</fix>
</trkpt>
<trkpt lat="40.0728" lon="-105.2306379">
  <ele>1595.34</ele>
  <time>2026-08-28T19:10:54Z</time>
  <course>107.2</course>
  <speed>0.02</speed>
  <fix>3d</fix>
</trkpt>
<trkpt lat="40.0728001" lon="-105.230638">
  <ele>1595.43</ele>
  <time>2026-08-28T19:10:54Z</time>
  <course>13.79</course>
  <speed>0.01414213562373095</speed>
  <fix>3d</fix>
</trkpt>
<trkpt lat="40.0728" lon="-105.2306378">
  <ele>1595.34</ele>
  <time>2026-08-28T19:10:54Z</time>
  <course>102.06</course>
  <speed>0.02</speed>
  <fix>3d</fix>
</trkpt>
<trkpt lat="40.0728001" lon="-105.2306379">
  <ele>1595.43</ele>
  <time>2026-08-28T19:10:54Z</time>
  <course>13.79</course>
  <speed>0.01414213562373095</speed>
  <fix>3d</fix>
</trkpt>
<trkpt lat="40.0728" lon="-105.2306378">
  <ele>1595.34</ele>
  <time>2026-08-28T19:10:54Z</time>
  <course>97.65</course>
  <speed>0.02</speed>
  <fix>3d</fix>
</trkpt>
<trkpt lat="40.0728001" lon="-105.2306379">
  <ele>1595.43</ele>
  <time>2026-08-28T19:10:54Z</time>
  <course>13.79</course>
  <speed>0.01414213562373095</speed>
  <fix>3d</fix>
</trkpt>
<trkpt lat="40.0728" lon="-105.2306377">
  <ele>1595.34</ele>
  <time>2026-08-28T19:10:54Z</time>
  <course>93.26</course>
  <speed>0.02</speed>
  <fix>3d</fix>
</trkpt>
<trkpt lat="40.0728001" lon="-105.2306378">
  <ele>1595.43</ele>
  <time>2026-08-28T19:10:54Z</time>
  <course>13.8</course>
  <speed>0.022360679774997897</speed>
  <fix>3d</fix>
</trkpt>
<trkpt lat="40.0728" lon="-105.2306376">
  <ele>1595.34</ele>
  <time>2026-08-28T19:10:54Z</time>
  <course>89.31</course>
  <speed>0.02</speed>
  <fix>3d</fix>
</trkpt>
<trkpt lat="40.0728001" lon="-105.2306377">
  <ele>1595.43</ele>
  <time>2026-08-28T19:10:54Z</time>
  <course>13.8</course>
  <speed>0.022360679774997897</speed>
  <fix>3d</fix>
</trkpt>
<trkpt lat="40.0728" lon="-105.2306376">
  <ele>1595.34</ele>
  <time>2026-08-28T19:10:54Z</time>
  <course>86.7</course>
  <speed>0.02</speed>
  <fix>3d</fix>
</trkpt>
<trkpt lat="40.0728001" lon="-105.2306377">
  <ele>1595.42</ele>
  <time>2026-08-28T19:10:54Z</time>
  <course>13.8</course>
  <speed>0.022360679774997897</speed>
  <fix>3d</fix>
</trkpt>
<trkpt lat="40.0728" lon="-105.2306375">
  <ele>1595.34</ele>
  <time>2026-08-28T19:10:54Z</time>
  <course>85.04</course>
  <speed>0.02</speed>
  <fix>3d</fix>
</trkpt>
<trkpt lat="40.0728001" lon="-105.2306376">
  <ele>1595.42</ele>
  <time>2026-08-28T19:10:54Z</time>
  <course>13.8</course>
  <speed>0.022360679774997897</speed>
  <fix>3d</fix>
</trkpt>
<trkpt lat="40.0728" lon="-105.2306374">
  <ele>1595.34</ele>
  <time>2026-08-28T19:10:54Z</time>
  <course>83.41</course>
  <speed>0.02</speed>
  <fix>3d</fix>
</trkpt>
<trkpt lat="40.0728001" lon="-105.2306375">
  <ele>1595.42</ele>
  <time>2026-08-28T19:10:54Z</time>
  <course>13.74</course>
  <speed>0.0412310562561766</speed>
  <fix>3d</fix>
</trkpt>
<trkpt lat="40.0728" lon="-105.2306373">
  <ele>1595.34</ele>
  <time>2026-08-28T19:10:54Z</time>
  <course>68.25</course>
  <speed>0.03</speed>
  <fix>3d</fix>
</trkpt>
<trkpt lat="40.0728002" lon="-105.2306374">
  <ele>1595.42</ele>
  <time>2026-08-28T19:10:54Z</time>
  <course>13.88</course>
  <speed>0.044721359549995794</speed>
  <fix>3d</fix>
</trkpt>
<trkpt lat="40.0728" lon="-105.2306373">
  <ele>1595.34</ele>
  <time>2026-08-28T19:10:54Z</time>
  <course>58.31</course>
  <speed>0.04</speed>
  <fix>3d</fix>
</trkpt>
<trkpt lat="40.0728002" lon="-105.2306374">
  <ele>1595.43</ele>
  <time>2026-08-28T19:10:54Z</time>
  <course>14.0</course>
  <speed>0.044721359549995794</speed>
  <fix>3d</fix>
</trkpt>
<trkpt lat="40.0728" lon="-105.2306372">
  <ele>1595.34</ele>
  <time>2026-08-28T19:10:54Z</time>
  <course>53.45</course>
  <speed>0.04</speed>
  <fix>3d</fix>
</trkpt>
<trkpt lat="40.0728002" lon="-105.2306373">
  <ele>1595.43</ele>
  <time>2026-08-28T19:10:54Z</time>
  <course>13.9</course>
  <speed>0.03</speed>
  <fix>3d</fix>
</trkpt>
<trkpt lat="40.0728" lon="-105.2306371">
  <ele>1595.34</ele>
  <time>2026-08-28T19:10:54Z</time>
  <course>42.54</course>
  <speed>0.03</speed>
  <fix>3d</fix>
</trkpt>
<trkpt lat="40.0728002" lon="-105.2306372">
  <ele>1595.43</ele>
  <time>2026-08-28T19:10:54Z</time>
  <course>13.94</course>
  <speed>0.02</speed>
  <fix>3d</fix>
</trkpt>
<trkpt lat="40.0728" lon="-105.2306371">
  <ele>1595.34</ele>
  <time>2026-08-28T19:10:54Z</time>
  <course>53.31</course>
  <speed>0.02</speed>
  <fix>3d</fix>
</trkpt>
<trkpt lat="40.0728002" lon="-105.2306372">
  <ele>1595.43</ele>
  <time>2026-08-28T19:10:54Z</time>
  <course>14.04</course>
  <speed>0.01414213562373095</speed>
  <fix>3d</fix>
</trkpt>
<trkpt lat="40.0728" lon="-105.230637">
  <ele>1595.34</ele>
  <time>2026-08-28T19:10:54Z</time>
  <course>80.12</course>
  <speed>0.02</speed>
  <fix>3d</fix>
</trkpt>
<trkpt lat="40.0728002" lon="-105.2306371">
  <ele>1595.43</ele>
  <time>2026-08-28T19:10:54Z</time>
  <course>14.05</course>
  <speed>0.01414213562373095</speed>
  <fix>3d</fix>
</trkpt>
<trkpt lat="40.0728" lon="-105.230637">
  <ele>1595.35</ele>
  <time>2026-08-28T19:10:54Z</time>
  <course>88.16</course>
  <speed>0.02</speed>
  <fix>3d</fix>
</trkpt>
<trkpt lat="40.0728002" lon="-105.2306371">
  <ele>1595.43</ele>
  <time>2026-08-28T19:10:54Z</time>
  <course>13.91</course>
  <speed>0.01</speed>
  <fix>3d</fix>
</trkpt>
<trkpt lat="40.0728" lon="-105.2306369">
  <ele>1595.35</ele>
  <time>2026-08-28T19:10:54Z</time>
  <course>99.17</course>
  <speed>0.01</speed>
  <fix>3d</fix>
</trkpt>
<trkpt lat="40.0728002" lon="-105.230637">
  <ele>1595.43</ele>
  <time>2026-08-28T19:10:54Z</time>
  <course>13.98</course>
  <speed>0.0</speed>
  <fix>3d</fix>
</trkpt>
<trkpt lat="40.0728" lon="-105.2306368">
  <ele>1595.34</ele>
  <time>2026-08-28T19:10:54Z</time>
  <course>110.73</course>
  <speed>0.02</speed>
  <fix>3d</fix>
</trkpt>
<trkpt lat="40.0728002" lon="-105.230637">
  <ele>1595.43</ele>
  <time>2026-08-28T19:10:54Z</time>
  <course>14.06</course>
  <speed>0.01</speed>
  <fix>3d</fix>
</trkpt>
<trkpt lat="40.0728" lon="-105.2306368">
  <ele>1595.34</ele>
  <time>2026-08-28T19:10:54Z</time>
  <course>109.03</course>
  <speed>0.03</speed>
  <fix>3d</fix>
</trkpt>
<trkpt lat="40.0728002" lon="-105.2306369">
  <ele>1595.43</ele>
  <time>2026-08-28T19:10:54Z</time>
  <course>14.02</course>
  <speed>0.01</speed>
  <fix>3d</fix>
</trkpt>
<trkpt lat="40.0728" lon="-105.2306368">
  <ele>1595.34</ele>
  <time>2026-08-28T19:10:54Z</time>
  <course>108.72</course>
  <speed>0.02</speed>
  <fix>3d</fix>
</trkpt>
<trkpt lat="40.0728002" lon="-105.2306369">
  <ele>1595.43</ele>
  <time>2026-08-28T19:10:54Z</time>
  <course>13.91</course>
  <speed>0.0</speed>
  <fix>3d</fix>
</trkpt>
<trkpt lat="40.0728" lon="-105.2306367">
  <ele>1595.34</ele>
  <time>2026-08-28T19:10:54Z</time>
  <course>116.53</course>
  <speed>0.01</speed>
  <fix>3d</fix>
</trkpt>
<trkpt lat="40.0728002" lon="-105.2306368">
  <ele>1595.43</ele>
  <time>2026-08-28T19:10:54Z</time>
  <course>14.0</course>
  <speed>0.0</speed>
  <fix>3d</fix>
</trkpt>
<trkpt lat="40.0728" lon="-105.2306366">
  <ele>1595.34</ele>
  <time>2026-08-28T19:10:54Z</time>
  <course>115.86</course>
  <speed>0.02</speed>
  <fix>3d</fix>
</trkpt>
<trkpt lat="40.0728001" lon="-105.2306368">
  <ele>1595.43</ele>
  <time>2026-08-28T19:10:54Z</time>
  <course>14.06</course>
  <speed>0.01</speed>
  <fix>3d</fix>
</trkpt>
<trkpt lat="40.0728" lon="-105.2306366">
  <ele>1595.34</ele>
  <time>2026-08-28T19:10:54Z</time>
  <course>110.72</course>
  <speed>0.02</speed>
  <fix>3d</fix>
</trkpt>
<trkpt lat="40.0728001" lon="-105.2306367">
  <ele>1595.42</ele>
  <time>2026-08-28T19:10:54Z</time>
  <course>13.96</course>
  <speed>0.0</speed>
  <fix>3d</fix>
</trkpt>
<trkpt lat="40.0728" lon="-105.2306366">
  <ele>1595.34</ele>
  <time>2026-08-28T19:10:54Z</time>
  <course>111.36</course>
  <speed>0.01</speed>
  <fix>3d</fix>
</trkpt>
<trkpt lat="40.0728001" lon="-105.2306367">
  <ele>1595.42</ele>
  <time>2026-08-28T19:10:54Z</time>
  <course>13.9</course>
  <speed>0.0</speed>
  <fix>3d</fix>
</trkpt>
<trkpt lat="40.0728" lon="-105.2306365">
  <ele>1595.34</ele>
  <time>2026-08-28T19:10:54Z</time>
  <course>120.03</course>
  <speed>0.01</speed>
  <fix>3d</fix>
</trkpt>
<trkpt lat="40.0728001" lon="-105.2306366">
  <ele>1595.41</ele>
  <time>2026-08-28T19:10:54Z</time>
  <course>13.98</course>
  <speed>0.0</speed>
  <fix>3d</fix>
</trkpt>
<trkpt lat="40.0728" lon="-105.2306364">
  <ele>1595.34</ele>
  <time>2026-08-28T19:10:54Z</time>
  <course>115.32</course>
  <speed>0.02</speed>
  <fix>3d</fix>
</trkpt>
<trkpt lat="40.0728001" lon="-105.2306366">
  <ele>1595.42</ele>
  <time>2026-08-28T19:10:54Z</time>
  <course>14.01</course>
  <speed>0.01</speed>
  <fix>3d</fix>
</trkpt>
<trkpt lat="40.0728" lon="-105.2306364">
  <ele>1595.34</ele>
  <time>2026-08-28T19:10:54Z</time>
  <course>110.43</course>
  <speed>0.02</speed>
  <fix>3d</fix>
</trkpt>
<trkpt lat="40.0728001" lon="-105.2306365">
  <ele>1595.42</ele>
  <time>2026-08-28T19:10:54Z</time>
  <course>13.89</course>
  <speed>0.0</speed>
  <fix>3d</fix>
</trkpt>
<trkpt lat="40.0728" lon="-105.2306364">
  <ele>1595.35</ele>
  <time>2026-08-28T19:10:54Z</time>
  <course>114.62</course>
  <speed>0.01</speed>
  <fix>3d</fix>
</trkpt>
<trkpt lat="40.0728" lon="-105.2306365">
  <ele>1595.42</ele>
  <time>2026-08-28T19:10:54Z</time>
  <course>13.9</course>
  <speed>0.022360679774997897</speed>
  <fix>3d</fix>
</trkpt>
<trkpt lat="40.0728" lon="-105.2306364">
  <ele>1595.35</ele>
  <time>2026-08-28T19:10:54Z</time>
  <course>145.46</course>
  <speed>0.02</speed>
  <fix>3d</fix>
</trkpt>
<trkpt lat="40.0728" lon="-105.2306365">
  <ele>1595.42</ele>
  <time>2026-08-28T19:10:54Z</time>
  <course>13.83</course>
  <speed>0.02</speed>
  <fix>3d</fix>
</trkpt>
<trkpt lat="40.0728" lon="-105.2306364">
  <ele>1595.35</ele>
  <time>2026-08-28T19:10:54Z</time>
  <course>163.82</course>
  <speed>0.03</speed>
  <fix>3d</fix>
</trkpt>
<trkpt lat="40.0727999" lon="-105.2306365">
  <ele>1595.42</ele>
  <time>2026-08-28T19:10:54Z</time>
  <course>13.76</course>
  <speed>0.01</speed>
  <fix>3d</fix>
</trkpt>
<trkpt lat="40.0727999" lon="-105.2306363">
  <ele>1595.36</ele>
  <time>2026-08-28T19:10:54Z</time>
  <course>168.99</course>
  <speed>0.03</speed>
  <fix>3d</fix>
</trkpt>
<trkpt lat="40.0727999" lon="-105.2306365">
  <ele>1595.43</ele>
  <time>2026-08-28T19:10:54Z</time>
  <course>13.77</course>
  <speed>0.0</speed>
  <fix>3d</fix>
</trkpt>
<trkpt lat="40.0727998" lon="-105.2306363">
  <ele>1595.36</ele>
  <time>2026-08-28T19:10:54Z</time>
  <course>154.7</course>
  <speed>0.03</speed>
  <fix>3d</fix>
</trkpt>
<trkpt lat="40.0727999" lon="-105.2306364">
  <ele>1595.43</ele>
  <time>2026-08-28T19:10:54Z</time>
  <course>13.78</course>
  <speed>0.0</speed>
  <fix>3d</fix>
</trkpt>
<trkpt lat="40.0727998" lon="-105.2306363">
  <ele>1595.36</ele>
  <time>2026-08-28T19:10:54Z</time>
  <course>137.67</course>
  <speed>0.02</speed>
  <fix>3d</fix>
</trkpt>
<trkpt lat="40.0727999" lon="-105.2306364">
  <ele>1595.43</ele>
  <time>2026-08-28T19:10:54Z</time>
  <course>13.78</course>
  <speed>0.0</speed>
  <fix>3d</fix>
</trkpt>
<trkpt lat="40.0727998" lon="-105.2306362">
  <ele>1595.36</ele>
  <time>2026-08-28T19:10:54Z</time>
  <course>119.79</course>
  <speed>0.02</speed>
  <fix>3d</fix>
</trkpt>
<trkpt lat="40.0727999" lon="-105.2306363">
  <ele>1595.43</ele>
  <time>2026-08-28T19:10:54Z</time>
  <course>13.8</course>
  <speed>0.01</speed>
  <fix>3d</fix>
</trkpt>
<trkpt lat="40.0727998" lon="-105.2306361">
  <ele>1595.36</ele>
  <time>2026-08-28T19:10:54Z</time>
  <course>99.07</course>
  <speed>0.01</speed>
  <fix>3d</fix>
</trkpt>
<trkpt lat="40.0727999" lon="-105.2306363">
  <ele>1595.43</ele>
  <time>2026-08-28T19:10:54Z</time>
  <course>13.79</course>
  <speed>0.02</speed>
  <fix>3d</fix>
</trkpt>
<trkpt lat="40.0727998" lon="-105.2306361">
  <ele>1595.36</ele>
  <time>2026-08-28T19:10:54Z</time>
  <course>79.15</course>
  <speed>0.01</speed>
  <fix>3d</fix>
</trkpt>
<trkpt lat="40.0727999" lon="-105.2306362">
  <ele>1595.43</ele>
  <time>2026-08-28T19:10:54Z</time>
  <course>13.79</course>
  <speed>0.02</speed>
  <fix>3d</fix>
</trkpt>
<trkpt lat="40.0727998" lon="-105.2306361">
  <ele>1595.36</ele>
  <time>2026-08-28T19:10:54Z</time>
  <course>63.96</course>
  <speed>0.02</speed>
  <fix>3d</fix>
</trkpt>
<trkpt lat="40.0727999" lon="-105.2306362">
  <ele>1595.43</ele>
  <time>2026-08-28T19:10:54Z</time>
  <course>13.79</course>
  <speed>0.02</speed>
  <fix>3d</fix>
</trkpt>
<trkpt lat="40.0727998" lon="-105.230636">
  <ele>1595.36</ele>
  <time>2026-08-28T19:10:54Z</time>
  <course>53.38</course>
  <speed>0.02</speed>
  <fix>3d</fix>
</trkpt>
<trkpt lat="40.0727999" lon="-105.2306361">
  <ele>1595.42</ele>
  <time>2026-08-28T19:10:54Z</time>
  <course>13.78</course>
  <speed>0.0316227766016838</speed>
  <fix>3d</fix>
</trkpt>
<trkpt lat="40.0727998" lon="-105.2306359">
  <ele>1595.37</ele>
  <time>2026-08-28T19:10:54Z</time>
  <course>45.89</course>
  <speed>0.02</speed>
  <fix>3d</fix>
</trkpt>
<trkpt lat="40.0727999" lon="-105.2306361">
  <ele>1595.42</ele>
  <time>2026-08-28T19:10:54Z</time>
  <course>13.78</course>
  <speed>0.0316227766016838</speed>
  <fix>3d</fix>
</trkpt>
<trkpt lat="40.0727998" lon="-105.2306359">
  <ele>1595.37</ele>
  <time>2026-08-28T19:10:54Z</time>
  <course>41.35</course>
  <speed>0.02</speed>
  <fix>3d</fix>
</trkpt>
<trkpt lat="40.0728" lon="-105.230636">
  <ele>1595.43</ele>
  <time>2026-08-28T19:10:54Z</time>
  <course>13.79</course>
  <speed>0.0316227766016838</speed>
  <fix>3d</fix>
</trkpt>
<trkpt lat="40.0727998" lon="-105.2306359">
  <ele>1595.37</ele>
  <time>2026-08-28T19:10:54Z</time>
  <course>38.72</course>
  <speed>0.03</speed>
  <fix>3d</fix>
</trkpt>
<trkpt lat="40.0728" lon="-105.230636">
  <ele>1595.43</ele>
  <time>2026-08-28T19:10:54Z</time>
  <course>13.79</course>
  <speed>0.0316227766016838</speed>
  <fix>3d</fix>
</trkpt>
<trkpt lat="40.0727999" lon="-105.2306359">
  <ele>1595.37</ele>
  <time>2026-08-28T19:10:54Z</time>
  <course>36.43</course>
  <speed>0.03</speed>
  <fix>3d</fix>
</trkpt>
<trkpt lat="40.0728" lon="-105.2306359">
  <ele>1595.43</ele>
  <time>2026-08-28T19:10:54Z</time>
  <course>13.8</course>
  <speed>0.0316227766016838</speed>
  <fix>3d</fix>
</trkpt>
<trkpt lat="40.0727999" lon="-105.2306358">
  <ele>1595.37</ele>
  <time>2026-08-28T19:10:54Z</time>
  <course>34.24</course>
  <speed>0.03</speed>
  <fix>3d</fix>
</trkpt>
<trkpt lat="40.0728001" lon="-105.2306359">
  <ele>1595.43</ele>
  <time>2026-08-28T19:10:54Z</time>
  <course>13.8</course>
  <speed>0.0316227766016838</speed>
  <fix>3d</fix>
</trkpt>
<trkpt lat="40.0728" lon="-105.2306358">
  <ele>1595.37</ele>
  <time>2026-08-28T19:10:54Z</time>
  <course>32.42</course>
  <speed>0.03</speed>
  <fix>3d</fix>
</trkpt>
<trkpt lat="40.0728001" lon="-105.2306358">
  <ele>1595.43</ele>
  <time>2026-08-28T19:10:54Z</time>
  <course>13.81</course>
  <speed>0.0412310562561766</speed>
  <fix>3d</fix>
</trkpt>
<trkpt lat="40.0728" lon="-105.2306357">
  <ele>1595.37</ele>
  <time>2026-08-28T19:10:54Z</time>
  <course>30.76</course>
  <speed>0.03</speed>
  <fix>3d</fix>
</trkpt>
<trkpt lat="40.0728002" lon="-105.2306358">
  <ele>1595.44</ele>
  <time>2026-08-28T19:10:54Z</time>
  <course>13.84</course>
  <speed>0.0632455532033676</speed>
  <fix>3d</fix>
</trkpt>
<trkpt lat="40.0728" lon="-105.2306356">
  <ele>1595.37</ele>
  <time>2026-08-28T19:10:54Z</time>
  <course>26.17</course>
  <speed>0.05</speed>
  <fix>3d</fix>
</trkpt>
<trkpt lat="40.0728003" lon="-105.2306357">
  <ele>1595.44</ele>
  <time>2026-08-28T19:10:54Z</time>
  <course>13.86</course>
  <speed>0.06</speed>
  <fix>3d</fix>
</trkpt>
<trkpt lat="40.0728001" lon="-105.2306356">
  <ele>1595.37</ele>
  <time>2026-08-28T19:10:54Z</time>
  <course>23.24</course>
  <speed>0.06</speed>
  <fix>3d</fix>
</trkpt>
<trkpt lat="40.0728004" lon="-105.2306356">
  <ele>1595.44</ele>
  <time>2026-08-28T19:10:54Z</time>
  <course>14.03</course>
  <speed>0.0412310562561766</speed>
  <fix>3d</fix>
</trkpt>
<trkpt lat="40.0728003" lon="-105.2306356">
  <ele>1595.37</ele>
  <time>2026-08-28T19:10:54Z</time>
  <course>26.53</course>
  <speed>0.05</speed>
  <fix>3d</fix>
</trkpt>
<trkpt lat="40.0728004" lon="-105.2306356">
  <ele>1595.44</ele>
  <time>2026-08-28T19:10:54Z</time>
  <course>14.08</course>
  <speed>0.0412310562561766</speed>
  <fix>3d</fix>
</trkpt>
<trkpt lat="40.0728004" lon="-105.2306355">
  <ele>1595.37</ele>
  <time>2026-08-28T19:10:54Z</time>
  <course>23.63</course>
  <speed>0.05</speed>
  <fix>3d</fix>
</trkpt>
<trkpt lat="40.0728005" lon="-105.2306356">
  <ele>1595.44</ele>
  <time>2026-08-28T19:10:54Z</time>
  <course>13.95</course>
  <speed>0.03</speed>
  <fix>3d</fix>
</trkpt>
<trkpt lat="40.0728004" lon="-105.2306354">
  <ele>1595.37</ele>
  <time>2026-08-28T19:10:54Z</time>
  <course>11.91</course>
  <speed>0.03</speed>
  <fix>3d</fix>
</trkpt>
<trkpt lat="40.0728005" lon="-105.2306355">
  <ele>1595.44</ele>
  <time>2026-08-28T19:10:54Z</time>
  <course>14.04</course>
  <speed>0.02</speed>
  <fix>3d</fix>
</trkpt>
<trkpt lat="40.0728005" lon="-105.2306354">
  <ele>1595.37</ele>
  <time>2026-08-28T19:10:54Z</time>
  <course>27.25</course>
  <speed>0.02</speed>
  <fix>3d</fix>
</trkpt>
<trkpt lat="40.0728006" lon="-105.2306355">
  <ele>1595.43</ele>
  <time>2026-08-28T19:10:54Z</time>
  <course>14.1</course>
  <speed>0.01414213562373095</speed>
  <fix>3d</fix>
</trkpt>
<trkpt lat="40.0728005" lon="-105.2306354">
  <ele>1595.36</ele>
  <time>2026-08-28T19:10:54Z</time>
  <course>47.36</course>
  <speed>0.02</speed>
  <fix>3d</fix>
</trkpt>
<trkpt lat="40.0728006" lon="-105.2306355">
  <ele>1595.43</ele>
  <time>2026-08-28T19:10:54Z</time>
  <course>13.96</course>
  <speed>0.01</speed>
  <fix>3d</fix>
</trkpt>
<trkpt lat="40.0728006" lon="-105.2306354">
  <ele>1595.36</ele>
  <time>2026-08-28T19:10:54Z</time>
  <course>34.17</course>
  <speed>0.02</speed>
  <fix>3d</fix>
</trkpt>
<trkpt lat="40.0728006" lon="-105.2306354">
  <ele>1595.43</ele>
  <time>2026-08-28T19:10:54Z</time>
  <course>13.94</course>
  <speed>0.01</speed>
  <fix>3d</fix>
</trkpt>
<trkpt lat="40.0728006" lon="-105.2306353">
  <ele>1595.36</ele>
  <time>2026-08-28T19:10:54Z</time>
  <course>39.6</course>
  <speed>0.01</speed>
  <fix>3d</fix>
</trkpt>
<trkpt lat="40.0728006" lon="-105.2306354">
  <ele>1595.43</ele>
  <time>2026-08-28T19:10:54Z</time>
  <course>14.05</course>
  <speed>0.01</speed>
  <fix>3d</fix>
</trkpt>
<trkpt lat="40.0728006" lon="-105.2306352">
  <ele>1595.36</ele>
  <time>2026-08-28T19:10:54Z</time>
  <course>69.28</course>
  <speed>0.02</speed>
  <fix>3d</fix>
</trkpt>
<trkpt lat="40.0728006" lon="-105.2306354">
  <ele>1595.43</ele>
  <time>2026-08-28T19:10:54Z</time>
  <course>14.04</course>
  <speed>0.01414213562373095</speed>
  <fix>3d</fix>
</trkpt>
<trkpt lat="40.0728006" lon="-105.2306352">
  <ele>1595.36</ele>
  <time>2026-08-28T19:10:54Z</time>
  <course>58.5</course>
  <speed>0.01</speed>
  <fix>3d</fix>
</trkpt>
<trkpt lat="40.0728006" lon="-105.2306353">
  <ele>1595.43</ele>
  <time>2026-08-28T19:10:54Z</time>
  <course>13.91</course>
  <speed>0.01</speed>
  <fix>3d</fix>
</trkpt>
<trkpt lat="40.0728006" lon="-105.2306352">
  <ele>1595.36</ele>
  <time>2026-08-28T19:10:54Z</time>
  <course>35.8</course>
  <speed>0.01</speed>
  <fix>3d</fix>
</trkpt>
<trkpt lat="40.0728006" lon="-105.2306353">
  <ele>1595.43</ele>
  <time>2026-08-28T19:10:54Z</time>
  <course>14.01</course>
  <speed>0.0</speed>
  <fix>3d</fix>
</trkpt>
<trkpt lat="40.0728006" lon="-105.2306352">
  <ele>1595.36</ele>
  <time>2026-08-28T19:10:54Z</time>
  <course>68.53</course>
  <speed>0.01</speed>
  <fix>3d</fix>
</trkpt>
<trkpt lat="40.0728006" lon="-105.2306353">
  <ele>1595.43</ele>
  <time>2026-08-28T19:10:54Z</time>
  <course>14.08</course>
  <speed>0.01</speed>
  <fix>3d</fix>
</trkpt>
<trkpt lat="40.0728006" lon="-105.2306352">
  <ele>1595.36</ele>
  <time>2026-08-28T19:10:54Z</time>
  <course>69.62</course>
  <speed>0.01</speed>
  <fix>3d</fix>
</trkpt>
<trkpt lat="40.0728006" lon="-105.2306352">
  <ele>1595.43</ele>
  <time>2026-08-28T19:10:54Z</time>
  <course>13.94</course>
  <speed>0.01</speed>
  <fix>3d</fix>
</trkpt>
<trkpt lat="40.0728006" lon="-105.2306352">
  <ele>1595.36</ele>
  <time>2026-08-28T19:10:54Z</time>
  <course>36.88</course>
  <speed>0.01</speed>
  <fix>3d</fix>
</trkpt>
<trkpt lat="40.0728006" lon="-105.2306352">
  <ele>1595.43</ele>
  <time>2026-08-28T19:10:54Z</time>
  <course>13.96</course>
  <speed>0.0</speed>
  <fix>3d</fix>
</trkpt>
<trkpt lat="40.0728006" lon="-105.2306351">
  <ele>1595.36</ele>
  <time>2026-08-28T19:10:54Z</time>
  <course>42.61</course>
  <speed>0.0</speed>
  <fix>3d</fix>
</trkpt>
<trkpt lat="40.0728007" lon="-105.2306352">
  <ele>1595.43</ele>
  <time>2026-08-28T19:10:54Z</time>
  <course>14.08</course>
  <speed>0.01</speed>
  <fix>3d</fix>
</trkpt>
<trkpt lat="40.0728006" lon="-105.2306351">
  <ele>1595.36</ele>
  <time>2026-08-28T19:10:54Z</time>
  <course>72.46</course>
  <speed>0.01</speed>
  <fix>3d</fix>
</trkpt>
<trkpt lat="40.0728007" lon="-105.2306352">
  <ele>1595.43</ele>
  <time>2026-08-28T19:10:54Z</time>
  <course>14.04</course>
  <speed>0.0</speed>
  <fix>3d</fix>
</trkpt>
<trkpt lat="40.0728006" lon="-105.2306351">
  <ele>1595.36</ele>
  <time>2026-08-28T19:10:54Z</time>
  <course>49.37</course>
  <speed>0.01</speed>
  <fix>3d</fix>
</trkpt>
<trkpt lat="40.0728007" lon="-105.2306352">
  <ele>1595.43</ele>
  <time>2026-08-28T19:10:54Z</time>
  <course>13.92</course>
  <speed>0.01</speed>
  <fix>3d</fix>
</trkpt>
<trkpt lat="40.0728007" lon="-105.2306351">
  <ele>1595.36</ele>
  <time>2026-08-28T19:10:54Z</time>
  <course>13.6</course>
  <speed>0.0</speed>
  <fix>3d</fix>
</trkpt>
<trkpt lat="40.0728007" lon="-105.2306351">
  <ele>1595.44</ele>
  <time>2026-08-28T19:10:54Z</time>
  <course>14.03</course>
  <speed>0.01</speed>
  <fix>3d</fix>
</trkpt>
<trkpt lat="40.0728007" lon="-105.2306351">
  <ele>1595.36</ele>
  <time>2026-08-28T19:10:54Z</time>
  <course>76.11</course>
  <speed>0.01</speed>
  <fix>3d</fix>
</trkpt>
<trkpt lat="40.0728006" lon="-105.2306352">
  <ele>1595.44</ele>
  <time>2026-08-28T19:10:54Z</time>
  <course>13.85</course>
  <speed>0.022360679774997897</speed>
  <fix>3d</fix>
</trkpt>
<trkpt lat="40.0728007" lon="-105.2306351">
  <ele>1595.36</ele>
  <time>2026-08-28T19:10:54Z</time>
  <course>166.2</course>
  <speed>0.01</speed>
  <fix>3d</fix>
</trkpt>
<trkpt lat="40.0728006" lon="-105.2306352">
  <ele>1595.44</ele>
  <time>2026-08-28T19:10:54Z</time>
  <course>13.8</course>
  <speed>0.01</speed>
  <fix>3d</fix>
</trkpt>
<trkpt lat="40.0728006" lon="-105.2306351">
  <ele>1595.36</ele>
  <time>2026-08-28T19:10:54Z</time>
  <course>194.38</course>
  <speed>0.02</speed>
  <fix>3d</fix>
</trkpt>
<trkpt lat="40.0728006" lon="-105.2306352">
  <ele>1595.44</ele>
  <time>2026-08-28T19:10:54Z</time>
  <course>13.81</course>
  <speed>0.0</speed>
  <fix>3d</fix>
</trkpt>
<trkpt lat="40.0728006" lon="-105.2306351">
  <ele>1595.36</ele>
  <time>2026-08-28T19:10:54Z</time>
  <course>162.89</course>
  <speed>0.01</speed>
  <fix>3d</fix>
</trkpt>
<trkpt lat="40.0728006" lon="-105.2306351">
  <ele>1595.44</ele>
  <time>2026-08-28T19:10:54Z</time>
  <course>13.79</course>
  <speed>0.0</speed>
  <fix>3d</fix>
</trkpt>
<trkpt lat="40.0728006" lon="-105.2306351">
  <ele>1595.35</ele>
  <time>2026-08-28T19:10:54Z</time>
  <course>112.51</course>
  <speed>0.0</speed>
  <fix>3d</fix>
</trkpt>
<trkpt lat="40.0728006" lon="-105.2306351">
  <ele>1595.44</ele>
  <time>2026-08-28T19:10:54Z</time>
  <course>13.79</course>
  <speed>0.01</speed>
  <fix>3d</fix>
</trkpt>
<trkpt lat="40.0728006" lon="-105.230635">
  <ele>1595.35</ele>
  <time>2026-08-28T19:10:54Z</time>
  <course>55.13</course>
  <speed>0.01</speed>
  <fix>3d</fix>
</trkpt>
<trkpt lat="40.0728006" lon="-105.2306351">
  <ele>1595.43</ele>
  <time>2026-08-28T19:10:54Z</time>
  <course>13.8</course>
  <speed>0.01</speed>
  <fix>3d</fix>
</trkpt>
<trkpt lat="40.0728006" lon="-105.2306349">
  <ele>1595.35</ele>
  <time>2026-08-28T19:10:54Z</time>
  <course>34.62</course>
  <speed>0.01</speed>
  <fix>3d</fix>
</trkpt>
<trkpt lat="40.0728006" lon="-105.2306351">
  <ele>1595.43</ele>
  <time>2026-08-28T19:10:54Z</time>
  <course>13.79</course>
  <speed>0.02</speed>
  <fix>3d</fix>
</trkpt>
<trkpt lat="40.0728007" lon="-105.2306349">
  <ele>1595.34</ele>
  <time>2026-08-28T19:10:54Z</time>
  <course>24.69</course>
  <speed>0.02</speed>
  <fix>3d</fix>
</trkpt>
<trkpt lat="40.0728007" lon="-105.230635">
  <ele>1595.43</ele>
  <time>2026-08-28T19:10:54Z</time>
  <course>13.78</course>
  <speed>0.03</speed>
  <fix>3d</fix>
</trkpt>
<trkpt lat="40.0728007" lon="-105.2306349">
  <ele>1595.34</ele>
  <time>2026-08-28T19:10:54Z</time>
  <course>19.46</course>
  <speed>0.03</speed>
  <fix>3d</fix>
</trkpt>
<trkpt lat="40.0728008" lon="-105.230635">
  <ele>1595.42</ele>
  <time>2026-08-28T19:10:54Z</time>
  <course>13.78</course>
  <speed>0.03</speed>
  <fix>3d</fix>
</trkpt>
<trkpt lat="40.0728008" lon="-105.2306349">
  <ele>1595.34</ele>
  <time>2026-08-28T19:10:54Z</time>
  <course>16.44</course>
  <speed>0.03</speed>
  <fix>3d</fix>
</trkpt>
<trkpt lat="40.0728008" lon="-105.230635">
  <ele>1595.42</ele>
  <time>2026-08-28T19:10:54Z</time>
  <course>13.78</course>
  <speed>0.0412310562561766</speed>
  <fix>3d</fix>
</trkpt>
<trkpt lat="40.0728009" lon="-105.2306349">
  <ele>1595.34</ele>
  <time>2026-08-28T19:10:54Z</time>
  <course>14.52</course>
  <speed>0.04</speed>
  <fix>3d</fix>
</trkpt>
<trkpt lat="40.0728009" lon="-105.2306349">
  <ele>1595.42</ele>
  <time>2026-08-28T19:10:54Z</time>
  <course>13.78</course>
  <speed>0.0412310562561766</speed>
  <fix>3d</fix>
</trkpt>
<trkpt lat="40.0728009" lon="-105.2306349">
  <ele>1595.34</ele>
  <time>2026-08-28T19:10:54Z</time>
  <course>13.51</course>
  <speed>0.04</speed>
  <fix>3d</fix>
</trkpt>
<trkpt lat="40.072801" lon="-105.2306349">
  <ele>1595.42</ele>
  <time>2026-08-28T19:10:54Z</time>
  <course>13.77</course>
  <speed>0.0412310562561766</speed>
  <fix>3d</fix>
</trkpt>
<trkpt lat="40.072801" lon="-105.2306349">
  <ele>1595.34</ele>
  <time>2026-08-28T19:10:54Z</time>
  <course>13.01</course>
  <speed>0.05</speed>
  <fix>3d</fix>
</trkpt>
<trkpt lat="40.0728011" lon="-105.2306349">
  <ele>1595.43</ele>
  <time>2026-08-28T19:10:54Z</time>
  <course>13.77</course>
  <speed>0.05099019513592785</speed>
  <fix>3d</fix>
</trkpt>
<trkpt lat="40.0728011" lon="-105.2306348">
  <ele>1595.34</ele>
  <time>2026-08-28T19:10:54Z</time>
  <course>12.29</course>
  <speed>0.05</speed>
  <fix>3d</fix>
</trkpt>
<trkpt lat="40.0728012" lon="-105.2306349">
  <ele>1595.43</ele>
  <time>2026-08-28T19:10:54Z</time>
  <course>13.78</course>
  <speed>0.05099019513592785</speed>
  <fix>3d</fix>
</trkpt>
<trkpt lat="40.0728012" lon="-105.2306347">
  <ele>1595.34</ele>
  <time>2026-08-28T19:10:54Z</time>
  <course>11.24</course>
  <speed>0.05</speed>
  <fix>3d</fix>
</trkpt>
<trkpt lat="40.0728013" lon="-105.2306348">
  <ele>1595.43</ele>
  <time>2026-08-28T19:10:54Z</time>
  <course>13.79</course>
  <speed>0.05099019513592785</speed>
  <fix>3d</fix>
</trkpt>
<trkpt lat="40.0728013" lon="-105.2306347">
  <ele>1595.34</ele>
  <time>2026-08-28T19:10:54Z</time>
  <course>10.33</course>
  <speed>0.05</speed>
  <fix>3d</fix>
</trkpt>
<trkpt lat="40.0728014" lon="-105.2306348">
  <ele>1595.43</ele>
  <time>2026-08-28T19:10:54Z</time>
  <course>13.8</course>
  <speed>0.05099019513592785</speed>
  <fix>3d</fix>
</trkpt>
<trkpt lat="40.0728014" lon="-105.2306347">
  <ele>1595.34</ele>
  <time>2026-08-28T19:10:54Z</time>
  <course>9.3</course>
  <speed>0.06</speed>
  <fix>3d</fix>
</trkpt>
<trkpt lat="40.0728015" lon="-105.2306348">
  <ele>1595.44</ele>
  <time>2026-08-28T19:10:54Z</time>
  <course>13.79</course>
  <speed>0.0824621125123532</speed>
  <fix>3d</fix>
</trkpt>
<trkpt lat="40.0728015" lon="-105.2306347">
  <ele>1595.34</ele>
  <time>2026-08-28T19:10:54Z</time>
  <course>8.81</course>
  <speed>0.07</speed>
  <fix>3d</fix>
</trkpt>
<trkpt lat="40.0728017" lon="-105.2306347">
  <ele>1595.44</ele>
  <time>2026-08-28T19:10:54Z</time>
  <course>13.89</course>
  <speed>0.07071067811865475</speed>
  <fix>3d</fix>
</trkpt>
<trkpt lat="40.0728017" lon="-105.2306347">
  <ele>1595.34</ele>
  <time>2026-08-28T19:10:54Z</time>
  <course>11.69</course>
  <speed>0.08</speed>
  <fix>3d</fix>
</trkpt>
<trkpt lat="40.0728018" lon="-105.2306347">
  <ele>1595.43</ele>
  <time>2026-08-28T19:10:54Z</time>
  <course>14.04</course>
  <speed>0.06082762530298219</speed>
  <fix>3d</fix>
</trkpt>
<trkpt lat="40.0728018" lon="-105.2306347">
  <ele>1595.34</ele>
  <time>2026-08-28T19:10:54Z</time>
  <course>14.34</course>
  <speed>0.07</speed>
  <fix>3d</fix>
</trkpt>
<trkpt lat="40.0728019" lon="-105.2306347">
  <ele>1595.44</ele>
  <time>2026-08-28T19:10:54Z</time>
  <course>14.02</course>
  <speed>0.05099019513592785</speed>
  <fix>3d</fix>
</trkpt>
<trkpt lat="40.0728019" lon="-105.2306346">
  <ele>1595.34</ele>
  <time>2026-08-28T19:10:54Z</time>
  <course>7.12</course>
  <speed>0.06</speed>
  <fix>3d</fix>
</trkpt>
<trkpt lat="40.072802" lon="-105.2306346">
  <ele>1595.44</ele>
  <time>2026-08-28T19:10:54Z</time>
  <course>13.92</course>
  <speed>0.04</speed>
  <fix>3d</fix>
</trkpt>
<trkpt lat="40.072802" lon="-105.2306346">
  <ele>1595.34</ele>
  <time>2026-08-28T19:10:54Z</time>
  <course>358.99</course>
  <speed>0.05</speed>
  <fix>3d</fix>
</trkpt>
<trkpt lat="40.0728021" lon="-105.2306346">
  <ele>1595.44</ele>
  <time>2026-08-28T19:10:54Z</time>
  <course>14.04</course>
  <speed>0.02</speed>
  <fix>3d</fix>
</trkpt>
<trkpt lat="40.0728021" lon="-105.2306346">
  <ele>1595.33</ele>
  <time>2026-08-28T19:10:54Z</time>
  <course>9.28</course>
  <speed>0.04</speed>
  <fix>3d</fix>
</trkpt>
<trkpt lat="40.0728021" lon="-105.2306346">
  <ele>1595.44</ele>
  <time>2026-08-28T19:10:54Z</time>
  <course>14.1</course>
  <speed>0.022360679774997897</speed>
  <fix>3d</fix>
</trkpt>
<trkpt lat="40.0728022" lon="-105.2306346">
  <ele>1595.33</ele>
  <time>2026-08-28T19:10:54Z</time>
  <course>19.21</course>
  <speed>0.03</speed>
  <fix>3d</fix>
</trkpt>
<trkpt lat="40.0728022" lon="-105.2306346">
  <ele>1595.43</ele>
  <time>2026-08-28T19:10:54Z</time>
  <course>13.97</course>
  <speed>0.02</speed>
  <fix>3d</fix>
</trkpt>
<trkpt lat="40.0728023" lon="-105.2306346">
  <ele>1595.33</ele>
  <time>2026-08-28T19:10:54Z</time>
  <course>6.24</course>
  <speed>0.03</speed>
  <fix>3d</fix>
</trkpt>
<trkpt lat="40.0728022" lon="-105.2306346">
  <ele>1595.43</ele>
  <time>2026-08-28T19:10:54Z</time>
  <course>13.94</course>
  <speed>0.02</speed>
  <fix>3d</fix>
</trkpt>
<trkpt lat="40.0728023" lon="-105.2306346">
  <ele>1595.33</ele>
  <time>2026-08-28T19:10:54Z</time>
  <course>4.45</course>
  <speed>0.02</speed>
  <fix>3d</fix>
</trkpt>
<trkpt lat="40.0728023" lon="-105.2306346">
  <ele>1595.42</ele>
  <time>2026-08-28T19:10:54Z</time>
  <course>14.03</course>
  <speed>0.01</speed>
  <fix>3d</fix>
</trkpt>
<trkpt lat="40.0728024" lon="-105.2306345">
  <ele>1595.33</ele>
  <time>2026-08-28T19:10:54Z</time>
  <course>30.8</course>
  <speed>0.02</speed>
  <fix>3d</fix>
</trkpt>
<trkpt lat="40.0728023" lon="-105.2306346">
  <ele>1595.42</ele>
  <time>2026-08-28T19:10:54Z</time>
  <course>14.05</course>
  <speed>0.01414213562373095</speed>
  <fix>3d</fix>
</trkpt>
<trkpt lat="40.0728024" lon="-105.2306344">
  <ele>1595.33</ele>
  <time>2026-08-28T19:10:54Z</time>
  <course>28.64</course>
  <speed>0.02</speed>
  <fix>3d</fix>
</trkpt>
<trkpt lat="40.0728024" lon="-105.2306346">
  <ele>1595.42</ele>
  <time>2026-08-28T19:10:54Z</time>
  <course>13.9</course>
  <speed>0.01</speed>
  <fix>3d</fix>
</trkpt>
<trkpt lat="40.0728025" lon="-105.2306344">
  <ele>1595.33</ele>
  <time>2026-08-28T19:10:54Z</time>
  <course>2.16</course>
  <speed>0.02</speed>
  <fix>3d</fix>
</trkpt>
<trkpt lat="40.0728024" lon="-105.2306345">
  <ele>1595.42</ele>
  <time>2026-08-28T19:10:54Z</time>
  <course>13.93</course>
  <speed>0.01</speed>
  <fix>3d</fix>
</trkpt>
<trkpt lat="40.0728025" lon="-105.2306344">
  <ele>1595.33</ele>
  <time>2026-08-28T19:10:54Z</time>
  <course>7.82</course>
  <speed>0.01</speed>
  <fix>3d</fix>
</trkpt>
<trkpt lat="40.0728024" lon="-105.2306345">
  <ele>1595.42</ele>
  <time>2026-08-28T19:10:54Z</time>
  <course>14.03</course>
  <speed>0.01</speed>
  <fix>3d</fix>
</trkpt>
<trkpt lat="40.0728025" lon="-105.2306344">
  <ele>1595.33</ele>
  <time>2026-08-28T19:10:54Z</time>
  <course>34.42</course>
  <speed>0.01</speed>
  <fix>3d</fix>
</trkpt>
<trkpt lat="40.0728025" lon="-105.2306345">
  <ele>1595.42</ele>
  <time>2026-08-28T19:10:54Z</time>
  <course>14.02</course>
  <speed>0.01414213562373095</speed>
  <fix>3d</fix>
</trkpt>
<trkpt lat="40.0728025" lon="-105.2306344">
  <ele>1595.33</ele>
  <time>2026-08-28T19:10:54Z</time>
  <course>16.14</course>
  <speed>0.01</speed>
  <fix>3d</fix>
</trkpt>
<trkpt lat="40.0728025" lon="-105.2306345">
  <ele>1595.42</ele>
  <time>2026-08-28T19:10:54Z</time>
  <course>13.89</course>
  <speed>0.01</speed>
  <fix>3d</fix>
</trkpt>
<trkpt lat="40.0728025" lon="-105.2306344">
  <ele>1595.33</ele>
  <time>2026-08-28T19:10:54Z</time>
  <course>349.02</course>
  <speed>0.01</speed>
  <fix>3d</fix>
</trkpt>
<trkpt lat="40.0728025" lon="-105.2306345">
  <ele>1595.43</ele>
  <time>2026-08-28T19:10:54Z</time>
  <course>13.99</course>
  <speed>0.01</speed>
  <fix>3d</fix>
</trkpt>
<trkpt lat="40.0728025" lon="-105.2306344">
  <ele>1595.34</ele>
  <time>2026-08-28T19:10:54Z</time>
  <course>7.49</course>
  <speed>0.01</speed>
  <fix>3d</fix>
</trkpt>
<trkpt lat="40.0728025" lon="-105.2306345">
  <ele>1595.43</ele>
  <time>2026-08-28T19:10:54Z</time>
  <course>14.07</course>
  <speed>0.01</speed>
  <fix>3d</fix>
</trkpt>
<trkpt lat="40.0728026" lon="-105.2306344">
  <ele>1595.34</ele>
  <time>2026-08-28T19:10:54Z</time>
  <course>26.66</course>
  <speed>0.01</speed>
  <fix>3d</fix>
</trkpt>
<trkpt lat="40.0728026" lon="-105.2306345">
  <ele>1595.43</ele>
  <time>2026-08-28T19:10:54Z</time>
  <course>14.0</course>
  <speed>0.01</speed>
  <fix>3d</fix>
</trkpt>
<trkpt lat="40.0728026" lon="-105.2306344">
  <ele>1595.34</ele>
  <time>2026-08-28T19:10:54Z</time>
  <course>357.52</course>
  <speed>0.01</speed>
  <fix>3d</fix>
</trkpt>
<trkpt lat="40.0728026" lon="-105.2306345">
  <ele>1595.43</ele>
  <time>2026-08-28T19:10:54Z</time>
  <course>13.92</course>
  <speed>0.01414213562373095</speed>
  <fix>3d</fix>
</trkpt>
<trkpt lat="40.0728026" lon="-105.2306344">
  <ele>1595.34</ele>
  <time>2026-08-28T19:10:54Z</time>
  <course>310.4</course>
  <speed>0.0</speed>
  <fix>3d</fix>
</trkpt>
<trkpt lat="40.0728025" lon="-105.2306345">
  <ele>1595.44</ele>
  <time>2026-08-28T19:10:54Z</time>
  <course>13.86</course>
  <speed>0.01</speed>
  <fix>3d</fix>
</trkpt>
<trkpt lat="40.0728026" lon="-105.2306344">
  <ele>1595.34</ele>
  <time>2026-08-28T19:10:54Z</time>
  <course>226.34</course>
  <speed>0.01</speed>
  <fix>3d</fix>
</trkpt>
<trkpt lat="40.0728025" lon="-105.2306345">
  <ele>1595.43</ele>
  <time>2026-08-28T19:10:54Z</time>
  <course>13.79</course>
  <speed>0.0</speed>
  <fix>3d</fix>
</trkpt>
<trkpt lat="40.0728026" lon="-105.2306344">
  <ele>1595.34</ele>
  <time>2026-08-28T19:10:54Z</time>
  <course>227.69</course>
  <speed>0.01</speed>
  <fix>3d</fix>
</trkpt>
<trkpt lat="40.0728025" lon="-105.2306345">
  <ele>1595.43</ele>
  <time>2026-08-28T19:10:54Z</time>
  <course>13.78</course>
  <speed>0.0</speed>
  <fix>3d</fix>
</trkpt>
<trkpt lat="40.0728026" lon="-105.2306344">
  <ele>1595.34</ele>
  <time>2026-08-28T19:10:54Z</time>
  <course>267.87</course>
  <speed>0.0</speed>
  <fix>3d</fix>
</trkpt>
<trkpt lat="40.0728025" lon="-105.2306345">
  <ele>1595.43</ele>
  <time>2026-08-28T19:10:54Z</time>
  <course>13.78</course>
  <speed>0.01</speed>
  <fix>3d</fix>
</trkpt>
<trkpt lat="40.0728026" lon="-105.2306344">
  <ele>1595.34</ele>
  <time>2026-08-28T19:10:54Z</time>
  <course>3.53</course>
  <speed>0.01</speed>
  <fix>3d</fix>
</trkpt>
<trkpt lat="40.0728026" lon="-105.2306345">
  <ele>1595.43</ele>
  <time>2026-08-28T19:10:54Z</time>
  <course>13.77</course>
  <speed>0.01</speed>
  <fix>3d</fix>
</trkpt>
<trkpt lat="40.0728026" lon="-105.2306344">
  <ele>1595.34</ele>
  <time>2026-08-28T19:10:54Z</time>
  <course>4.72</course>
  <speed>0.02</speed>
  <fix>3d</fix>
</trkpt>
<trkpt lat="40.0728026" lon="-105.2306345">
  <ele>1595.42</ele>
  <time>2026-08-28T19:10:54Z</time>
  <course>13.77</course>
  <speed>0.02</speed>
  <fix>3d</fix>
</trkpt>
<trkpt lat="40.0728027" lon="-105.2306344">
  <ele>1595.33</ele>
  <time>2026-08-28T19:10:54Z</time>
  <course>4.67</course>
  <speed>0.03</speed>
  <fix>3d</fix>
</trkpt>
<trkpt lat="40.0728027" lon="-105.2306345">
  <ele>1595.42</ele>
  <time>2026-08-28T19:10:54Z</time>
  <course>13.76</course>
  <speed>0.03</speed>
  <fix>3d</fix>
</trkpt>
<trkpt lat="40.0728028" lon="-105.2306344">
  <ele>1595.33</ele>
  <time>2026-08-28T19:10:54Z</time>
  <course>4.18</course>
  <speed>0.03</speed>
  <fix>3d</fix>
</trkpt>
<trkpt lat="40.0728028" lon="-105.2306344">
  <ele>1595.42</ele>
  <time>2026-08-28T19:10:54Z</time>
  <course>13.77</course>
  <speed>0.04</speed>
  <fix>3d</fix>
</trkpt>
<trkpt lat="40.0728029" lon="-105.2306344">
  <ele>1595.33</ele>
  <time>2026-08-28T19:10:54Z</time>
  <course>3.88</course>
  <speed>0.04</speed>
  <fix>3d</fix>
</trkpt>
<trkpt lat="40.0728029" lon="-105.2306344">
  <ele>1595.42</ele>
  <time>2026-08-28T19:10:54Z</time>
  <course>13.77</course>
  <speed>0.04</speed>
  <fix>3d</fix>
</trkpt>
<trkpt lat="40.072803" lon="-105.2306344">
  <ele>1595.33</ele>
  <time>2026-08-28T19:10:54Z</time>
  <course>3.41</course>
  <speed>0.05</speed>
  <fix>3d</fix>
</trkpt>
<trkpt lat="40.072803" lon="-105.2306344">
  <ele>1595.42</ele>
  <time>2026-08-28T19:10:54Z</time>
  <course>13.77</course>
  <speed>0.05</speed>
  <fix>3d</fix>
</trkpt>
<trkpt lat="40.072803" lon="-105.2306344">
  <ele>1595.34</ele>
  <time>2026-08-28T19:10:54Z</time>
  <course>3.15</course>
  <speed>0.05</speed>
  <fix>3d</fix>
</trkpt>
<trkpt lat="40.0728031" lon="-105.2306344">
  <ele>1595.42</ele>
  <time>2026-08-28T19:10:54Z</time>
  <course>13.77</course>
  <speed>0.05</speed>
  <fix>3d</fix>
</trkpt>
<trkpt lat="40.0728031" lon="-105.2306344">
  <ele>1595.34</ele>
  <time>2026-08-28T19:10:54Z</time>
  <course>3.0</course>
  <speed>0.06</speed>
  <fix>3d</fix>
</trkpt>
<trkpt lat="40.0728032" lon="-105.2306344">
  <ele>1595.42</ele>
  <time>2026-08-28T19:10:55Z</time>
  <course>13.76</course>
  <speed>0.05</speed>
  <fix>3d</fix>
</trkpt>
<trkpt lat="40.0728033" lon="-105.2306344">
  <ele>1595.34</ele>
  <time>2026-08-28T19:10:55Z</time>
  <course>2.72</course>
  <speed>0.06</speed>
  <fix>3d</fix>
</trkpt>
<trkpt lat="40.0728033" lon="-105.2306344">
  <ele>1595.42</ele>
  <time>2026-08-28T19:10:55Z</time>
  <course>13.77</course>
  <speed>0.06</speed>
  <fix>3d</fix>
</trkpt>
<trkpt lat="40.0728034" lon="-105.2306344">
  <ele>1595.34</ele>
  <time>2026-08-28T19:10:55Z</time>
  <course>2.54</course>
  <speed>0.06</speed>
  <fix>3d</fix>
</trkpt>
<trkpt lat="40.0728035" lon="-105.2306344">
  <ele>1595.42</ele>
  <time>2026-08-28T19:10:55Z</time>
  <course>13.79</course>
  <speed>0.06</speed>
  <fix>3d</fix>
</trkpt>
<trkpt lat="40.0728035" lon="-105.2306344">
  <ele>1595.34</ele>
  <time>2026-08-28T19:10:55Z</time>
  <course>2.37</course>
  <speed>0.07</speed>
  <fix>3d</fix>
</trkpt>
<trkpt lat="40.0728036" lon="-105.2306344">
  <ele>1595.42</ele>
  <time>2026-08-28T19:10:55Z</time>
  <course>13.77</course>
  <speed>0.06</speed>
  <fix>3d</fix>
</trkpt>
<trkpt lat="40.0728036" lon="-105.2306344">
  <ele>1595.34</ele>
  <time>2026-08-28T19:10:55Z</time>
  <course>2.16</course>
  <speed>0.07</speed>
  <fix>3d</fix>
</trkpt>
<trkpt lat="40.0728037" lon="-105.2306344">
  <ele>1595.42</ele>
  <time>2026-08-28T19:10:55Z</time>
  <course>13.79</course>
  <speed>0.07</speed>
  <fix>3d</fix>
</trkpt>
<trkpt lat="40.0728038" lon="-105.2306344">
  <ele>1595.35</ele>
  <time>2026-08-28T19:10:55Z</time>
  <course>1.8</course>
  <speed>0.07</speed>
  <fix>3d</fix>
</trkpt>
<trkpt lat="40.0728039" lon="-105.2306344">
  <ele>1595.42</ele>
  <time>2026-08-28T19:10:55Z</time>
  <course>13.87</course>
  <speed>0.0824621125123532</speed>
  <fix>3d</fix>
</trkpt>
<trkpt lat="40.072804" lon="-105.2306344">
  <ele>1595.35</ele>
  <time>2026-08-28T19:10:55Z</time>
  <course>5.54</course>
  <speed>0.08</speed>
  <fix>3d</fix>
</trkpt>
<trkpt lat="40.0728041" lon="-105.2306343">
  <ele>1595.43</ele>
  <time>2026-08-28T19:10:55Z</time>
  <course>13.83</course>
  <speed>0.08</speed>
  <fix>3d</fix>
</trkpt>
<trkpt lat="40.0728041" lon="-105.2306344">
  <ele>1595.35</ele>
  <time>2026-08-28T19:10:55Z</time>
  <course>4.14</course>
  <speed>0.09</speed>
  <fix>3d</fix>
</trkpt>
<trkpt lat="40.0728042" lon="-105.2306343">
  <ele>1595.44</ele>
  <time>2026-08-28T19:10:55Z</time>
  <course>13.91</course>
  <speed>0.06</speed>
  <fix>3d</fix>
</trkpt>
<trkpt lat="40.0728043" lon="-105.2306344">
  <ele>1595.35</ele>
  <time>2026-08-28T19:10:55Z</time>
  <course>0.95</course>
  <speed>0.08</speed>
  <fix>3d</fix>
</trkpt>
<trkpt lat="40.0728044" lon="-105.2306344">
  <ele>1595.44</ele>
  <time>2026-08-28T19:10:55Z</time>
  <course>14.04</course>
  <speed>0.05</speed>
  <fix>3d</fix>
</trkpt>
<trkpt lat="40.0728044" lon="-105.2306344">
  <ele>1595.36</ele>
  <time>2026-08-28T19:10:55Z</time>
  <course>4.21</course>
  <speed>0.07</speed>
  <fix>3d</fix>
</trkpt>
<trkpt lat="40.0728045" lon="-105.2306344">
  <ele>1595.45</ele>
  <time>2026-08-28T19:10:55Z</time>
  <course>14.07</course>
  <speed>0.03</speed>
  <fix>3d</fix>
</trkpt>
<trkpt lat="40.0728045" lon="-105.2306344">
  <ele>1595.36</ele>
  <time>2026-08-28T19:10:55Z</time>
  <course>1.47</course>
  <speed>0.06</speed>
  <fix>3d</fix>
</trkpt>
<trkpt lat="40.0728045" lon="-105.2306344">
  <ele>1595.45</ele>
  <time>2026-08-28T19:10:55Z</time>
  <course>13.95</course>
  <speed>0.03</speed>
  <fix>3d</fix>
</trkpt>
<trkpt lat="40.0728046" lon="-105.2306344">
  <ele>1595.36</ele>
  <time>2026-08-28T19:10:55Z</time>
  <course>353.3</course>
  <speed>0.05</speed>
  <fix>3d</fix>
</trkpt>
<trkpt lat="40.0728046" lon="-105.2306344">
  <ele>1595.44</ele>
  <time>2026-08-28T19:10:55Z</time>
  <course>13.98</course>
  <speed>0.02</speed>
  <fix>3d</fix>
</trkpt>
<trkpt lat="40.0728047" lon="-105.2306344">
  <ele>1595.35</ele>
  <time>2026-08-28T19:10:55Z</time>
  <course>356.23</course>
  <speed>0.04</speed>
  <fix>3d</fix>
</trkpt>
<trkpt lat="40.0728047" lon="-105.2306344">
  <ele>1595.44</ele>
  <time>2026-08-28T19:10:55Z</time>
  <course>14.05</course>
  <speed>0.02</speed>
  <fix>3d</fix>
</trkpt>
<trkpt lat="40.0728048" lon="-105.2306344">
  <ele>1595.35</ele>
  <time>2026-08-28T19:10:55Z</time>
  <course>11.41</course>
  <speed>0.03</speed>
  <fix>3d</fix>
</trkpt>
<trkpt lat="40.0728047" lon="-105.2306344">
  <ele>1595.44</ele>
  <time>2026-08-28T19:10:55Z</time>
  <course>14.07</course>
  <speed>0.01414213562373095</speed>
  <fix>3d</fix>
</trkpt>
<trkpt lat="40.0728049" lon="-105.2306344">
  <ele>1595.35</ele>
  <time>2026-08-28T19:10:55Z</time>
  <course>11.87</course>
  <speed>0.03</speed>
  <fix>3d</fix>
</trkpt>
<trkpt lat="40.0728048" lon="-105.2306344">
  <ele>1595.44</ele>
  <time>2026-08-28T19:10:55Z</time>
  <course>13.95</course>
  <speed>0.02</speed>
  <fix>3d</fix>
</trkpt>
<trkpt lat="40.0728049" lon="-105.2306344">
  <ele>1595.34</ele>
  <time>2026-08-28T19:10:55Z</time>
  <course>357.79</course>
  <speed>0.03</speed>
  <fix>3d</fix>
</trkpt>
<trkpt lat="40.0728049" lon="-105.2306344">
  <ele>1595.44</ele>
  <time>2026-08-28T19:10:55Z</time>
  <course>13.94</course>
  <speed>0.02</speed>
  <fix>3d</fix>
</trkpt>
<trkpt lat="40.0728049" lon="-105.2306344">
  <ele>1595.34</ele>
  <time>2026-08-28T19:10:55Z</time>
  <course>358.29</course>
  <speed>0.02</speed>
  <fix>3d</fix>
</trkpt>
<trkpt lat="40.0728049" lon="-105.2306344">
  <ele>1595.44</ele>
  <time>2026-08-28T19:10:55Z</time>
  <course>14.02</course>
  <speed>0.01</speed>
  <fix>3d</fix>
</trkpt>
<trkpt lat="40.072805" lon="-105.2306344">
  <ele>1595.34</ele>
  <time>2026-08-28T19:10:55Z</time>
  <course>15.35</course>
  <speed>0.02</speed>
  <fix>3d</fix>
</trkpt>
<trkpt lat="40.072805" lon="-105.2306344">
  <ele>1595.43</ele>
  <time>2026-08-28T19:10:55Z</time>
  <course>14.05</course>
  <speed>0.01414213562373095</speed>
  <fix>3d</fix>
</trkpt>
<trkpt lat="40.072805" lon="-105.2306344">
  <ele>1595.33</ele>
  <time>2026-08-28T19:10:55Z</time>
  <course>14.43</course>
  <speed>0.02</speed>
  <fix>3d</fix>
</trkpt>
<trkpt lat="40.072805" lon="-105.2306344">
  <ele>1595.43</ele>
  <time>2026-08-28T19:10:55Z</time>
  <course>13.93</course>
  <speed>0.01</speed>
  <fix>3d</fix>
</trkpt>
<trkpt lat="40.0728051" lon="-105.2306344">
  <ele>1595.33</ele>
  <time>2026-08-28T19:10:55Z</time>
  <course>355.17</course>
  <speed>0.02</speed>
  <fix>3d</fix>
</trkpt>
<trkpt lat="40.072805" lon="-105.2306344">
  <ele>1595.43</ele>
  <time>2026-08-28T19:10:55Z</time>
  <course>13.9</course>
  <speed>0.01</speed>
  <fix>3d</fix>
</trkpt>
<trkpt lat="40.0728052" lon="-105.2306343">
  <ele>1595.33</ele>
  <time>2026-08-28T19:10:55Z</time>
  <course>351.61</course>
  <speed>0.02</speed>
  <fix>3d</fix>
</trkpt>
<trkpt lat="40.0728051" lon="-105.2306344">
  <ele>1595.43</ele>
  <time>2026-08-28T19:10:55Z</time>
  <course>13.99</course>
  <speed>0.01</speed>
  <fix>3d</fix>
</trkpt>
<trkpt lat="40.0728052" lon="-105.2306343">
  <ele>1595.33</ele>
  <time>2026-08-28T19:10:55Z</time>
  <course>9.45</course>
  <speed>0.02</speed>
  <fix>3d</fix>
</trkpt>
<trkpt lat="40.0728051" lon="-105.2306344">
  <ele>1595.43</ele>
  <time>2026-08-28T19:10:55Z</time>
  <course>14.04</course>
  <speed>0.01414213562373095</speed>
  <fix>3d</fix>
</trkpt>
<trkpt lat="40.0728053" lon="-105.2306344">
  <ele>1595.33</ele>
  <time>2026-08-28T19:10:55Z</time>
  <course>11.79</course>
  <speed>0.02</speed>
  <fix>3d</fix>
</trkpt>
<trkpt lat="40.0728052" lon="-105.2306344">
  <ele>1595.43</ele>
  <time>2026-08-28T19:10:55Z</time>
  <course>13.95</course>
  <speed>0.01</speed>
  <fix>3d</fix>
</trkpt>
<trkpt lat="40.0728053" lon="-105.2306344">
  <ele>1595.33</ele>
  <time>2026-08-28T19:10:55Z</time>
  <course>352.12</course>
  <speed>0.02</speed>
  <fix>3d</fix>
</trkpt>
<trkpt lat="40.0728052" lon="-105.2306344">
  <ele>1595.43</ele>
  <time>2026-08-28T19:10:55Z</time>
  <course>13.9</course>
  <speed>0.01</speed>
  <fix>3d</fix>
</trkpt>
<trkpt lat="40.0728054" lon="-105.2306344">
  <ele>1595.33</ele>
  <time>2026-08-28T19:10:55Z</time>
  <course>335.34</course>
  <speed>0.01</speed>
  <fix>3d</fix>
</trkpt>
<trkpt lat="40.0728052" lon="-105.2306344">
  <ele>1595.42</ele>
  <time>2026-08-28T19:10:55Z</time>
  <course>14.14</course>
  <speed>0.0</speed>
  <fix>3d</fix>
</trkpt>
<trkpt lat="40.0728054" lon="-105.2306344">
  <ele>1595.32</ele>
  <time>2026-08-28T19:10:55Z</time>
  <course>320.96</course>
  <speed>0.01</speed>
  <fix>3d</fix>
</trkpt>
<trkpt lat="40.0728053" lon="-105.2306344">
  <ele>1595.37</ele>
  <time>2026-08-28T19:10:55Z</time>
  <course>14.94</course>
  <speed>0.01</speed>
  <fix>3d</fix>
</trkpt>
<trkpt lat="40.0728054" lon="-105.2306344">
  <ele>1595.3</ele>
  <time>2026-08-28T19:10:55Z</time>
  <course>335.47</course>
  <speed>0.02</speed>
  <fix>3d</fix>
</trkpt>
<trkpt lat="40.0728053" lon="-105.2306344">
  <ele>1595.24</ele>
  <time>2026-08-28T19:10:55Z</time>
  <course>16.29</course>
  <speed>0.0316227766016838</speed>
  <fix>3d</fix>
</trkpt>
<trkpt lat="40.0728054" lon="-105.2306344">
  <ele>1595.24</ele>
  <time>2026-08-28T19:10:55Z</time>
  <course>347.92</course>
  <speed>0.03</speed>
  <fix>3d</fix>
</trkpt>
<trkpt lat="40.0728054" lon="-105.2306345">
  <ele>1594.8</ele>
  <time>2026-08-28T19:10:55Z</time>
  <course>17.8</course>
  <speed>0.09433981132056603</speed>
  <fix>3d</fix>
</trkpt>
<trkpt lat="40.0728055" lon="-105.2306344">
  <ele>1595.02</ele>
  <time>2026-08-28T19:10:55Z</time>
  <course>318.27</course>
  <speed>0.06</speed>
  <fix>3d</fix>
</trkpt>
<trkpt lat="40.0728056" lon="-105.2306347">
  <ele>1594.09</ele>
  <time>2026-08-28T19:10:55Z</time>
  <course>19.31</course>
  <speed>0.13892443989449804</speed>
  <fix>3d</fix>
</trkpt>
<trkpt lat="40.0728056" lon="-105.2306345">
  <ele>1594.52</ele>
  <time>2026-08-28T19:10:55Z</time>
  <course>302.78</course>
  <speed>0.11</speed>
  <fix>3d</fix>
</trkpt>
<trkpt lat="40.0728057" lon="-105.230635">
  <ele>1593.19</ele>
  <time>2026-08-28T19:10:55Z</time>
  <course>21.31</course>
  <speed>0.15264337522473748</speed>
  <fix>3d</fix>
</trkpt>
<trkpt lat="40.0728057" lon="-105.2306348">
  <ele>1593.76</ele>
  <time>2026-08-28T19:10:55Z</time>
  <course>301.71</course>
  <speed>0.15</speed>
  <fix>3d</fix>
</trkpt>
<trkpt lat="40.0728059" lon="-105.2306353">
  <ele>1592.17</ele>
  <time>2026-08-28T19:10:55Z</time>
  <course>23.97</course>
  <speed>0.15</speed>
  <fix>3d</fix>
</trkpt>
<trkpt lat="40.0728059" lon="-105.2306351">
  <ele>1592.83</ele>
  <time>2026-08-28T19:10:55Z</time>
  <course>304.38</course>
  <speed>0.16</speed>
  <fix>3d</fix>
</trkpt>
<trkpt lat="40.0728061" lon="-105.2306356">
  <ele>1591.06</ele>
  <time>2026-08-28T19:10:55Z</time>
  <course>26.47</course>
  <speed>0.14866068747318506</speed>
  <fix>3d</fix>
</trkpt>
<trkpt lat="40.072806" lon="-105.2306354">
  <ele>1591.79</ele>
  <time>2026-08-28T19:10:55Z</time>
  <course>308.95</course>
  <speed>0.17</speed>
  <fix>3d</fix>
</trkpt>
<trkpt lat="40.0728063" lon="-105.2306359">
  <ele>1589.91</ele>
  <time>2026-08-28T19:10:55Z</time>
  <course>28.53</course>
  <speed>0.14866068747318506</speed>
  <fix>3d</fix>
</trkpt>
<trkpt lat="40.0728062" lon="-105.2306357">
  <ele>1590.68</ele>
  <time>2026-08-28T19:10:55Z</time>
  <course>314.16</course>
  <speed>0.16</speed>
  <fix>3d</fix>
</trkpt>
<trkpt lat="40.0728065" lon="-105.2306361">
  <ele>1588.72</ele>
  <time>2026-08-28T19:10:55Z</time>
  <course>30.3</course>
  <speed>0.15</speed>
  <fix>3d</fix>
</trkpt>
<trkpt lat="40.0728065" lon="-105.230636">
  <ele>1589.54</ele>
  <time>2026-08-28T19:10:55Z</time>
  <course>318.81</course>
  <speed>0.16</speed>
  <fix>3d</fix>
</trkpt>
<trkpt lat="40.0728068" lon="-105.2306364">
  <ele>1587.51</ele>
  <time>2026-08-28T19:10:55Z</time>
  <course>31.87</course>
  <speed>0.15811388300841897</speed>
  <fix>3d</fix>
</trkpt>
<trkpt lat="40.0728067" lon="-105.2306362">
  <ele>1588.37</ele>
  <time>2026-08-28T19:10:55Z</time>
  <course>322.42</course>
  <speed>0.17</speed>
  <fix>3d</fix>
</trkpt>
<trkpt lat="40.072807" lon="-105.2306366">
  <ele>1586.29</ele>
  <time>2026-08-28T19:10:55Z</time>
  <course>33.32</course>
  <speed>0.15811388300841897</speed>
  <fix>3d</fix>
</trkpt>
<trkpt lat="40.072807" lon="-105.2306365">
  <ele>1587.17</ele>
  <time>2026-08-28T19:10:55Z</time>
  <course>324.78</course>
  <speed>0.17</speed>
  <fix>3d</fix>
</trkpt>
<trkpt lat="40.0728071" lon="-105.2306367">
  <ele>1585.89</ele>
  <time>2026-08-28T19:10:55Z</time>
  <course>33.43</course>
  <speed>0.0412310562561766</speed>
  <fix>3d</fix>
</trkpt>
<trkpt lat="40.0728072" lon="-105.2306366">
  <ele>1586.2</ele>
  <time>2026-08-28T19:10:55Z</time>
  <course>322.92</course>
  <speed>0.09</speed>
  <fix>3d</fix>
</trkpt>
<trkpt lat="40.0728071" lon="-105.2306366">
  <ele>1586.18</ele>
  <time>2026-08-28T19:10:55Z</time>
  <course>33.44</course>
  <speed>0.044721359549995794</speed>
  <fix>3d</fix>
</trkpt>
<trkpt lat="40.0728073" lon="-105.2306368">
  <ele>1585.97</ele>
  <time>2026-08-28T19:10:55Z</time>
  <course>164.09</course>
  <speed>0.01</speed>
  <fix>3d</fix>
</trkpt>
<trkpt lat="40.0728071" lon="-105.2306366">
  <ele>1586.16</ele>
  <time>2026-08-28T19:10:55Z</time>
  <course>33.45</course>
  <speed>0.0</speed>
  <fix>3d</fix>
</trkpt>
<trkpt lat="40.0728073" lon="-105.2306368">
  <ele>1586.15</ele>
  <time>2026-08-28T19:10:55Z</time>
  <course>142.33</course>
  <speed>0.01</speed>
  <fix>3d</fix>
</trkpt>
<trkpt lat="40.0728071" lon="-105.2306366">
  <ele>1586.11</ele>
  <time>2026-08-28T19:10:55Z</time>
  <course>33.45</course>
  <speed>0.01</speed>
  <fix>3d</fix>
</trkpt>
<trkpt lat="40.0728073" lon="-105.2306368">
  <ele>1586.17</ele>
  <time>2026-08-28T19:10:55Z</time>
  <course>4.35</course>
  <speed>0.0</speed>
  <fix>3d</fix>
</trkpt>
<trkpt lat="40.0728071" lon="-105.2306367">
  <ele>1586.12</ele>
  <time>2026-08-28T19:10:55Z</time>
  <course>33.45</course>
  <speed>0.01</speed>
  <fix>3d</fix>
</trkpt>
<trkpt lat="40.0728073" lon="-105.2306368">
  <ele>1586.15</ele>
  <time>2026-08-28T19:10:55Z</time>
  <course>6.92</course>
  <speed>0.0</speed>
  <fix>3d</fix>
</trkpt>
<trkpt lat="40.0728071" lon="-105.2306367">
  <ele>1586.12</ele>
  <time>2026-08-28T19:10:55Z</time>
  <course>33.44</course>
  <speed>0.01</speed>
  <fix>3d</fix>
</trkpt>
<trkpt lat="40.0728073" lon="-105.2306368">
  <ele>1586.15</ele>
  <time>2026-08-28T19:10:55Z</time>
  <course>133.69</course>
  <speed>0.0</speed>
  <fix>3d</fix>
</trkpt>
<trkpt lat="40.0728071" lon="-105.2306367">
  <ele>1586.12</ele>
  <time>2026-08-28T19:10:55Z</time>
  <course>33.43</course>
  <speed>0.0</speed>
  <fix>3d</fix>
</trkpt>
<trkpt lat="40.0728073" lon="-105.2306368">
  <ele>1586.15</ele>
  <time>2026-08-28T19:10:55Z</time>
  <course>126.35</course>
  <speed>0.0</speed>
  <fix>3d</fix>
</trkpt>
<trkpt lat="40.0728071" lon="-105.2306367">
  <ele>1586.13</ele>
  <time>2026-08-28T19:10:55Z</time>
  <course>33.42</course>
  <speed>0.0</speed>
  <fix>3d</fix>
</trkpt>
<trkpt lat="40.0728073" lon="-105.2306368">
  <ele>1586.15</ele>
  <time>2026-08-28T19:10:55Z</time>
  <course>119.2</course>
  <speed>0.0</speed>
  <fix>3d</fix>
</trkpt>
<trkpt lat="40.0728071" lon="-105.2306367">
  <ele>1586.13</ele>
  <time>2026-08-28T19:10:55Z</time>
  <course>33.41</course>
  <speed>0.0</speed>
  <fix>3d</fix>
</trkpt>
<trkpt lat="40.0728073" lon="-105.2306368">
  <ele>1586.15</ele>
  <time>2026-08-28T19:10:55Z</time>
  <course>123.69</course>
  <speed>0.0</speed>
  <fix>3d</fix>
</trkpt>
<trkpt lat="40.0728072" lon="-105.2306367">
  <ele>1586.13</ele>
  <time>2026-08-28T19:10:55Z</time>
  <course>33.39</course>
  <speed>0.0</speed>
  <fix>3d</fix>
</trkpt>
<trkpt lat="40.0728073" lon="-105.2306368">
  <ele>1586.15</ele>
  <time>2026-08-28T19:10:55Z</time>
  <course>131.19</course>
  <speed>0.0</speed>
  <fix>3d</fix>
</trkpt>
<trkpt lat="40.0728072" lon="-105.2306367">
  <ele>1586.13</ele>
  <time>2026-08-28T19:10:55Z</time>
  <course>33.38</course>
  <speed>0.0</speed>
  <fix>3d</fix>
</trkpt>
<trkpt lat="40.0728073" lon="-105.2306367">
  <ele>1586.15</ele>
  <time>2026-08-28T19:10:55Z</time>
  <course>130.3</course>
  <speed>0.0</speed>
  <fix>3d</fix>
</trkpt>
<trkpt lat="40.0728072" lon="-105.2306367">
  <ele>1586.14</ele>
  <time>2026-08-28T19:10:55Z</time>
  <course>33.34</course>
  <speed>0.01</speed>
  <fix>3d</fix>
</trkpt>
<trkpt lat="40.0728073" lon="-105.2306366">
  <ele>1586.15</ele>
  <time>2026-08-28T19:10:55Z</time>
  <course>102.39</course>
  <speed>0.0</speed>
  <fix>3d</fix>
</trkpt>
<trkpt lat="40.0728072" lon="-105.2306367">
  <ele>1586.14</ele>
  <time>2026-08-28T19:10:55Z</time>
  <course>33.29</course>
  <speed>0.0</speed>
  <fix>3d</fix>
</trkpt>
<trkpt lat="40.0728073" lon="-105.2306366">
  <ele>1586.15</ele>
  <time>2026-08-28T19:10:55Z</time>
  <course>100.45</course>
  <speed>0.0</speed>
  <fix>3d</fix>
</trkpt>
<trkpt lat="40.0728072" lon="-105.2306367">
  <ele>1586.14</ele>
  <time>2026-08-28T19:10:55Z</time>
  <course>33.23</course>
  <speed>0.0</speed>
  <fix>3d</fix>
</trkpt>
<trkpt lat="40.0728073" lon="-105.2306366">
  <ele>1586.15</ele>
  <time>2026-08-28T19:10:55Z</time>
  <course>266.36</course>
  <speed>0.0</speed>
  <fix>3d</fix>
</trkpt>
<trkpt lat="40.0728072" lon="-105.2306367">
  <ele>1586.14</ele>
  <time>2026-08-28T19:10:55Z</time>
  <course>33.18</course>
  <speed>0.0</speed>
  <fix>3d</fix>
</trkpt>
<trkpt lat="40.0728073" lon="-105.2306366">
  <ele>1586.15</ele>
  <time>2026-08-28T19:10:55Z</time>
  <course>262.91</course>
  <speed>0.0</speed>
  <fix>3d</fix>
</trkpt>
<trkpt lat="40.0728072" lon="-105.2306367">
  <ele>1586.15</ele>
  <time>2026-08-28T19:10:55Z</time>
  <course>33.13</course>
  <speed>0.0</speed>
  <fix>3d</fix>
</trkpt>
<trkpt lat="40.0728073" lon="-105.2306366">
  <ele>1586.15</ele>
  <time>2026-08-28T19:10:55Z</time>
  <course>255.53</course>
  <speed>0.0</speed>
  <fix>3d</fix>
</trkpt>
<trkpt lat="40.0728072" lon="-105.2306367">
  <ele>1586.15</ele>
  <time>2026-08-28T19:10:55Z</time>
  <course>33.08</course>
  <speed>0.0</speed>
  <fix>3d</fix>
</trkpt>
<trkpt lat="40.0728073" lon="-105.2306366">
  <ele>1586.15</ele>
  <time>2026-08-28T19:10:55Z</time>
  <course>257.52</course>
  <speed>0.0</speed>
  <fix>3d</fix>
</trkpt>
<trkpt lat="40.0728072" lon="-105.2306367">
  <ele>1586.15</ele>
  <time>2026-08-28T19:10:55Z</time>
  <course>33.03</course>
  <speed>0.0</speed>
  <fix>3d</fix>
</trkpt>
<trkpt lat="40.0728073" lon="-105.2306366">
  <ele>1586.15</ele>
  <time>2026-08-28T19:10:55Z</time>
  <course>260.53</course>
  <speed>0.0</speed>
  <fix>3d</fix>
</trkpt>
<trkpt lat="40.0728072" lon="-105.2306367">
  <ele>1586.15</ele>
  <time>2026-08-28T19:10:55Z</time>
  <course>32.98</course>
  <speed>0.0</speed>
  <fix>3d</fix>
</trkpt>
<trkpt lat="40.0728073" lon="-105.2306366">
  <ele>1586.15</ele>
  <time>2026-08-28T19:10:55Z</time>
  <course>280.13</course>
  <speed>0.0</speed>
  <fix>3d</fix>
</trkpt>
<trkpt lat="40.0728072" lon="-105.2306367">
  <ele>1586.15</ele>
  <time>2026-08-28T19:10:55Z</time>
  <course>32.94</course>
  <speed>0.0</speed>
  <fix>3d</fix>
</trkpt>
<trkpt lat="40.0728073" lon="-105.2306366">
  <ele>1586.15</ele>
  <time>2026-08-28T19:10:55Z</time>
  <course>281.51</course>
  <speed>0.0</speed>
  <fix>3d</fix>
</trkpt>
<trkpt lat="40.0728072" lon="-105.2306367">
  <ele>1586.15</ele>
  <time>2026-08-28T19:10:55Z</time>
  <course>32.9</course>
  <speed>0.0</speed>
  <fix>3d</fix>
</trkpt>
<trkpt lat="40.0728073" lon="-105.2306366">
  <ele>1586.15</ele>
  <time>2026-08-28T19:10:55Z</time>
  <course>268.59</course>
  <speed>0.0</speed>
  <fix>3d</fix>
</trkpt>
<trkpt lat="40.0728072" lon="-105.2306367">
  <ele>1586.15</ele>
  <time>2026-08-28T19:10:55Z</time>
  <course>32.86</course>
  <speed>0.0</speed>
  <fix>3d</fix>
</trkpt>
<trkpt lat="40.0728073" lon="-105.2306366">
  <ele>1586.15</ele>
  <time>2026-08-28T19:10:55Z</time>
  <course>306.66</course>
  <speed>0.0</speed>
  <fix>3d</fix>
</trkpt>
<trkpt lat="40.0728072" lon="-105.2306367">
  <ele>1586.16</ele>
  <time>2026-08-28T19:10:55Z</time>
  <course>32.82</course>
  <speed>0.01</speed>
  <fix>3d</fix>
</trkpt>
<trkpt lat="40.0728073" lon="-105.2306366">
  <ele>1586.15</ele>
  <time>2026-08-28T19:10:55Z</time>
  <course>304.23</course>
  <speed>0.0</speed>
  <fix>3d</fix>
</trkpt>
<trkpt lat="40.0728072" lon="-105.2306367">
  <ele>1586.16</ele>
  <time>2026-08-28T19:10:55Z</time>
  <course>32.79</course>
  <speed>0.01</speed>
  <fix>3d</fix>
</trkpt>
<trkpt lat="40.0728073" lon="-105.2306366">
  <ele>1586.15</ele>
  <time>2026-08-28T19:10:55Z</time>
  <course>299.37</course>
  <speed>0.0</speed>
  <fix>3d</fix>
</trkpt>
<trkpt lat="40.0728072" lon="-105.2306366">
  <ele>1586.16</ele>
  <time>2026-08-28T19:10:55Z</time>
  <course>32.75</course>
  <speed>0.01</speed>
  <fix>3d</fix>
</trkpt>
<trkpt lat="40.0728073" lon="-105.2306366">
  <ele>1586.15</ele>
  <time>2026-08-28T19:10:55Z</time>
  <course>300.24</course>
  <speed>0.0</speed>
  <fix>3d</fix>
</trkpt>
<trkpt lat="40.0728072" lon="-105.2306366">
  <ele>1586.16</ele>
  <time>2026-08-28T19:10:55Z</time>
  <course>32.72</course>
  <speed>0.01</speed>
  <fix>3d</fix>
</trkpt>
<trkpt lat="40.0728073" lon="-105.2306366">
  <ele>1586.15</ele>
  <time>2026-08-28T19:10:55Z</time>
  <course>300.77</course>
  <speed>0.0</speed>
  <fix>3d</fix>
</trkpt>
<trkpt lat="40.0728072" lon="-105.2306366">
  <ele>1586.16</ele>
  <time>2026-08-28T19:10:55Z</time>
  <course>32.69</course>
  <speed>0.01</speed>
  <fix>3d</fix>
</trkpt>
<trkpt lat="40.0728073" lon="-105.2306366">
  <ele>1586.15</ele>
  <time>2026-08-28T19:10:55Z</time>
  <course>300.35</course>
  <speed>0.0</speed>
  <fix>3d</fix>
</trkpt>
<trkpt lat="40.0728072" lon="-105.2306366">
  <ele>1586.17</ele>
  <time>2026-08-28T19:10:55Z</time>
  <course>32.66</course>
  <speed>0.01</speed>
  <fix>3d</fix>
</trkpt>
<trkpt lat="40.0728073" lon="-105.2306366">
  <ele>1586.15</ele>
  <time>2026-08-28T19:10:55Z</time>
  <course>327.43</course>
  <speed>0.0</speed>
  <fix>3d</fix>
</trkpt>
<trkpt lat="40.0728072" lon="-105.2306366">
  <ele>1586.17</ele>
  <time>2026-08-28T19:10:55Z</time>
  <course>32.63</course>
  <speed>0.01</speed>
  <fix>3d</fix>
</trkpt>
<trkpt lat="40.0728073" lon="-105.2306366">
  <ele>1586.15</ele>
  <time>2026-08-28T19:10:55Z</time>
  <course>325.85</course>
  <speed>0.0</speed>
  <fix>3d</fix>
</trkpt>
<trkpt lat="40.0728072" lon="-105.2306366">
  <ele>1586.17</ele>
  <time>2026-08-28T19:10:55Z</time>
  <course>32.6</course>
  <speed>0.01</speed>
  <fix>3d</fix>
</trkpt>
<trkpt lat="40.0728073" lon="-105.2306366">
  <ele>1586.15</ele>
  <time>2026-08-28T19:10:55Z</time>
  <course>293.84</course>
  <speed>0.0</speed>
  <fix>3d</fix>
</trkpt>
<trkpt lat="40.0728072" lon="-105.2306366">
  <ele>1586.17</ele>
  <time>2026-08-28T19:10:55Z</time>
  <course>32.57</course>
  <speed>0.01</speed>
  <fix>3d</fix>
</trkpt>
<trkpt lat="40.0728073" lon="-105.2306366">
  <ele>1586.15</ele>
  <time>2026-08-28T19:10:55Z</time>
  <course>295.27</course>
  <speed>0.0</speed>
  <fix>3d</fix>
</trkpt>
<trkpt lat="40.0728072" lon="-105.2306366">
  <ele>1586.18</ele>
  <time>2026-08-28T19:10:55Z</time>
  <course>32.54</course>
  <speed>0.01</speed>
  <fix>3d</fix>
</trkpt>
<trkpt lat="40.0728073" lon="-105.2306366">
  <ele>1586.15</ele>
  <time>2026-08-28T19:10:55Z</time>
  <course>303.1</course>
  <speed>0.0</speed>
  <fix>3d</fix>
</trkpt>
<trkpt lat="40.0728072" lon="-105.2306366">
  <ele>1586.18</ele>
  <time>2026-08-28T19:10:55Z</time>
  <course>32.52</course>
  <speed>0.01</speed>
  <fix>3d</fix>
</trkpt>
<trkpt lat="40.0728073" lon="-105.2306366">
  <ele>1586.15</ele>
  <time>2026-08-28T19:10:55Z</time>
  <course>301.78</course>
  <speed>0.0</speed>
  <fix>3d</fix>
</trkpt>
<trkpt lat="40.0728072" lon="-105.2306366">
  <ele>1586.18</ele>
  <time>2026-08-28T19:10:55Z</time>
  <course>32.49</course>
  <speed>0.01</speed>
  <fix>3d</fix>
</trkpt>
<trkpt lat="40.0728073" lon="-105.2306366">
  <ele>1586.15</ele>
  <time>2026-08-28T19:10:55Z</time>
  <course>300.78</course>
  <speed>0.0</speed>
  <fix>3d</fix>
</trkpt>
<trkpt lat="40.0728072" lon="-105.2306366">
  <ele>1586.18</ele>
  <time>2026-08-28T19:10:55Z</time>
  <course>32.47</course>
  <speed>0.01</speed>
  <fix>3d</fix>
</trkpt>
<trkpt lat="40.0728073" lon="-105.2306366">
  <ele>1586.15</ele>
  <time>2026-08-28T19:10:55Z</time>
  <course>301.09</course>
  <speed>0.0</speed>
  <fix>3d</fix>
</trkpt>
<trkpt lat="40.0728072" lon="-105.2306366">
  <ele>1586.19</ele>
  <time>2026-08-28T19:10:55Z</time>
  <course>32.45</course>
  <speed>0.01</speed>
  <fix>3d</fix>
</trkpt>
<trkpt lat="40.0728073" lon="-105.2306366">
  <ele>1586.15</ele>
  <time>2026-08-28T19:10:55Z</time>
  <course>301.19</course>
  <speed>0.0</speed>
  <fix>3d</fix>
</trkpt>
<trkpt lat="40.0728072" lon="-105.2306366">
  <ele>1586.19</ele>
  <time>2026-08-28T19:10:55Z</time>
  <course>32.42</course>
  <speed>0.01</speed>
  <fix>3d</fix>
</trkpt>
<trkpt lat="40.0728073" lon="-105.2306366">
  <ele>1586.15</ele>
  <time>2026-08-28T19:10:55Z</time>
  <course>301.09</course>
  <speed>0.0</speed>
  <fix>3d</fix>
</trkpt>
<trkpt lat="40.0728072" lon="-105.2306366">
  <ele>1586.19</ele>
  <time>2026-08-28T19:10:55Z</time>
  <course>32.4</course>
  <speed>0.01</speed>
  <fix>3d</fix>
</trkpt>
<trkpt lat="40.0728073" lon="-105.2306366">
  <ele>1586.15</ele>
  <time>2026-08-28T19:10:55Z</time>
  <course>301.06</course>
  <speed>0.0</speed>
  <fix>3d</fix>
</trkpt>
<trkpt lat="40.0728072" lon="-105.2306366">
  <ele>1586.19</ele>
  <time>2026-08-28T19:10:55Z</time>
  <course>32.38</course>
  <speed>0.01</speed>
  <fix>3d</fix>
</trkpt>
<trkpt lat="40.0728073" lon="-105.2306366">
  <ele>1586.15</ele>
  <time>2026-08-28T19:10:55Z</time>
  <course>301.06</course>
  <speed>0.0</speed>
  <fix>3d</fix>
</trkpt>
<trkpt lat="40.0728072" lon="-105.2306366">
  <ele>1586.19</ele>
  <time>2026-08-28T19:10:55Z</time>
  <course>32.36</course>
  <speed>0.01</speed>
  <fix>3d</fix>
</trkpt>
<trkpt lat="40.0728073" lon="-105.2306366">
  <ele>1586.15</ele>
  <time>2026-08-28T19:10:55Z</time>
  <course>301.03</course>
  <speed>0.0</speed>
  <fix>3d</fix>
</trkpt>
<trkpt lat="40.0728072" lon="-105.2306366">
  <ele>1586.19</ele>
  <time>2026-08-28T19:10:55Z</time>
  <course>32.38</course>
  <speed>0.01</speed>
  <fix>3d</fix>
</trkpt>
<trkpt lat="40.0728073" lon="-105.2306366">
  <ele>1586.15</ele>
  <time>2026-08-28T19:10:55Z</time>
  <course>300.99</course>
  <speed>0.0</speed>
  <fix>3d</fix>
</trkpt>
<trkpt lat="40.0728072" lon="-105.2306366">
  <ele>1586.19</ele>
  <time>2026-08-28T19:10:55Z</time>
  <course>32.59</course>
  <speed>0.01</speed>
  <fix>3d</fix>
</trkpt>
<trkpt lat="40.0728073" lon="-105.2306366">
  <ele>1586.15</ele>
  <time>2026-08-28T19:10:55Z</time>
  <course>301.02</course>
  <speed>0.0</speed>
  <fix>3d</fix>
</trkpt>
<trkpt lat="40.0728072" lon="-105.2306366">
  <ele>1586.19</ele>
  <time>2026-08-28T19:10:55Z</time>
  <course>32.83</course>
  <speed>0.01</speed>
  <fix>3d</fix>
</trkpt>
<trkpt lat="40.0728073" lon="-105.2306366">
  <ele>1586.15</ele>
  <time>2026-08-28T19:10:55Z</time>
  <course>301.01</course>
  <speed>0.0</speed>
  <fix>3d</fix>
</trkpt>
<trkpt lat="40.0728072" lon="-105.2306366">
  <ele>1586.18</ele>
  <time>2026-08-28T19:10:55Z</time>
  <course>33.05</course>
  <speed>0.01</speed>
  <fix>3d</fix>
</trkpt>
<trkpt lat="40.0728073" lon="-105.2306366">
  <ele>1586.15</ele>
  <time>2026-08-28T19:10:55Z</time>
  <course>121.09</course>
  <speed>0.0</speed>
  <fix>3d</fix>
</trkpt>
<trkpt lat="40.0728072" lon="-105.2306366">
  <ele>1586.18</ele>
  <time>2026-08-28T19:10:55Z</time>
  <course>33.25</course>
  <speed>0.01</speed>
  <fix>3d</fix>
</trkpt>
<trkpt lat="40.0728073" lon="-105.2306366">
  <ele>1586.15</ele>
  <time>2026-08-28T19:10:55Z</time>
  <course>121.16</course>
  <speed>0.0</speed>
  <fix>3d</fix>
</trkpt>
<trkpt lat="40.0728072" lon="-105.2306366">
  <ele>1586.18</ele>
  <time>2026-08-28T19:10:55Z</time>
  <course>33.44</course>
  <speed>0.01</speed>
  <fix>3d</fix>
</trkpt>
<trkpt lat="40.0728073" lon="-105.2306366">
  <ele>1586.15</ele>
  <time>2026-08-28T19:10:55Z</time>
  <course>300.74</course>
  <speed>0.0</speed>
  <fix>3d</fix>
</trkpt>
<trkpt lat="40.0728072" lon="-105.2306366">
  <ele>1586.17</ele>
  <time>2026-08-28T19:10:55Z</time>
  <course>33.61</course>
  <speed>0.01</speed>
  <fix>3d</fix>
</trkpt>
<trkpt lat="40.0728073" lon="-105.2306366">
  <ele>1586.15</ele>
  <time>2026-08-28T19:10:55Z</time>
  <course>218.44</course>
  <speed>0.0</speed>
  <fix>3d</fix>
</trkpt>
<trkpt lat="40.0728072" lon="-105.2306366">
  <ele>1586.17</ele>
  <time>2026-08-28T19:10:55Z</time>
  <course>33.79</course>
  <speed>0.01</speed>
  <fix>3d</fix>
</trkpt>
<trkpt lat="40.0728073" lon="-105.2306366">
  <ele>1586.15</ele>
  <time>2026-08-28T19:10:55Z</time>
  <course>179.4</course>
  <speed>0.0</speed>
  <fix>3d</fix>
</trkpt>
<trkpt lat="40.0728072" lon="-105.2306366">
  <ele>1586.17</ele>
  <time>2026-08-28T19:10:55Z</time>
  <course>33.95</course>
  <speed>0.01</speed>
  <fix>3d</fix>
</trkpt>
<trkpt lat="40.0728073" lon="-105.2306366">
  <ele>1586.15</ele>
  <time>2026-08-28T19:10:55Z</time>
  <course>151.4</course>
  <speed>0.0</speed>
  <fix>3d</fix>
</trkpt>
<trkpt lat="40.0728072" lon="-105.2306366">
  <ele>1586.18</ele>
  <time>2026-08-28T19:10:55Z</time>
  <course>34.1</course>
  <speed>0.01</speed>
  <fix>3d</fix>
</trkpt>
<trkpt lat="40.0728073" lon="-105.2306366">
  <ele>1586.15</ele>
  <time>2026-08-28T19:10:55Z</time>
  <course>353.17</course>
  <speed>0.0</speed>
  <fix>3d</fix>
</trkpt>
<trkpt lat="40.0728072" lon="-105.2306366">
  <ele>1586.19</ele>
  <time>2026-08-28T19:10:55Z</time>
  <course>34.25</course>
  <speed>0.01</speed>
  <fix>3d</fix>
</trkpt>
<trkpt lat="40.0728073" lon="-105.2306366">
  <ele>1586.15</ele>
  <time>2026-08-28T19:10:55Z</time>
  <course>279.19</course>
  <speed>0.0</speed>
  <fix>3d</fix>
</trkpt>
<trkpt lat="40.0728072" lon="-105.2306366">
  <ele>1586.19</ele>
  <time>2026-08-28T19:10:55Z</time>
  <course>34.39</course>
  <speed>0.01</speed>
  <fix>3d</fix>
</trkpt>
<trkpt lat="40.0728073" lon="-105.2306366">
  <ele>1586.15</ele>
  <time>2026-08-28T19:10:55Z</time>
  <course>199.54</course>
  <speed>0.0</speed>
  <fix>3d</fix>
</trkpt>
<trkpt lat="40.0728072" lon="-105.2306366">
  <ele>1586.2</ele>
  <time>2026-08-28T19:10:55Z</time>
  <course>34.52</course>
  <speed>0.01</speed>
  <fix>3d</fix>
</trkpt>
<trkpt lat="40.0728073" lon="-105.2306366">
  <ele>1586.15</ele>
  <time>2026-08-28T19:10:55Z</time>
  <course>227.4</course>
  <speed>0.0</speed>
  <fix>3d</fix>
</trkpt>
<trkpt lat="40.0728072" lon="-105.2306366">
  <ele>1586.2</ele>
  <time>2026-08-28T19:10:55Z</time>
  <course>34.65</course>
  <speed>0.01</speed>
  <fix>3d</fix>
</trkpt>
<trkpt lat="40.0728073" lon="-105.2306366">
  <ele>1586.15</ele>
  <time>2026-08-28T19:10:55Z</time>
  <course>241.41</course>
  <speed>0.0</speed>
  <fix>3d</fix>
</trkpt>
<trkpt lat="40.0728072" lon="-105.2306366">
  <ele>1586.2</ele>
  <time>2026-08-28T19:10:55Z</time>
  <course>34.77</course>
  <speed>0.01</speed>
  <fix>3d</fix>
</trkpt>
<trkpt lat="40.0728073" lon="-105.2306366">
  <ele>1586.15</ele>
  <time>2026-08-28T19:10:55Z</time>
  <course>231.99</course>
  <speed>0.0</speed>
  <fix>3d</fix>
</trkpt>
<trkpt lat="40.0728072" lon="-105.2306366">
  <ele>1586.2</ele>
  <time>2026-08-28T19:10:55Z</time>
  <course>34.89</course>
  <speed>0.01</speed>
  <fix>3d</fix>
</trkpt>
<trkpt lat="40.0728073" lon="-105.2306366">
  <ele>1586.15</ele>
  <time>2026-08-28T19:10:55Z</time>
  <course>231.32</course>
  <speed>0.0</speed>
  <fix>3d</fix>
</trkpt>
<trkpt lat="40.0728072" lon="-105.2306366">
  <ele>1586.2</ele>
  <time>2026-08-28T19:10:55Z</time>
  <course>35.0</course>
  <speed>0.01</speed>
  <fix>3d</fix>
</trkpt>
<trkpt lat="40.0728073" lon="-105.2306366">
  <ele>1586.15</ele>
  <time>2026-08-28T19:10:55Z</time>
  <course>232.59</course>
  <speed>0.0</speed>
  <fix>3d</fix>
</trkpt>
<trkpt lat="40.0728072" lon="-105.2306366">
  <ele>1586.2</ele>
  <time>2026-08-28T19:10:55Z</time>
  <course>35.1</course>
  <speed>0.01</speed>
  <fix>3d</fix>
</trkpt>
<trkpt lat="40.0728073" lon="-105.2306366">
  <ele>1586.15</ele>
  <time>2026-08-28T19:10:55Z</time>
  <course>232.52</course>
  <speed>0.0</speed>
  <fix>3d</fix>
</trkpt>
<trkpt lat="40.0728072" lon="-105.2306366">
  <ele>1586.2</ele>
  <time>2026-08-28T19:10:55Z</time>
  <course>35.2</course>
  <speed>0.01</speed>
  <fix>3d</fix>
</trkpt>
<trkpt lat="40.0728073" lon="-105.2306366">
  <ele>1586.15</ele>
  <time>2026-08-28T19:10:55Z</time>
  <course>232.36</course>
  <speed>0.0</speed>
  <fix>3d</fix>
</trkpt>
<trkpt lat="40.0728072" lon="-105.2306366">
  <ele>1586.2</ele>
  <time>2026-08-28T19:10:55Z</time>
  <course>35.3</course>
  <speed>0.01</speed>
  <fix>3d</fix>
</trkpt>
<trkpt lat="40.0728073" lon="-105.2306366">
  <ele>1586.15</ele>
  <time>2026-08-28T19:10:55Z</time>
  <course>232.39</course>
  <speed>0.0</speed>
  <fix>3d</fix>
</trkpt>
<trkpt lat="40.0728072" lon="-105.2306366">
  <ele>1586.2</ele>
  <time>2026-08-28T19:10:55Z</time>
  <course>35.4</course>
  <speed>0.01</speed>
  <fix>3d</fix>
</trkpt>
<trkpt lat="40.0728073" lon="-105.2306366">
  <ele>1586.15</ele>
  <time>2026-08-28T19:10:55Z</time>
  <course>232.41</course>
  <speed>0.0</speed>
  <fix>3d</fix>
</trkpt>
<trkpt lat="40.0728072" lon="-105.2306366">
  <ele>1586.2</ele>
  <time>2026-08-28T19:10:55Z</time>
  <course>35.49</course>
  <speed>0.01</speed>
  <fix>3d</fix>
</trkpt>
<trkpt lat="40.0728073" lon="-105.2306366">
  <ele>1586.15</ele>
  <time>2026-08-28T19:10:55Z</time>
  <course>232.4</course>
  <speed>0.0</speed>
  <fix>3d</fix>
</trkpt>
<trkpt lat="40.0728072" lon="-105.2306366">
  <ele>1586.2</ele>
  <time>2026-08-28T19:10:55Z</time>
  <course>35.57</course>
  <speed>0.01</speed>
  <fix>3d</fix>
</trkpt>
<trkpt lat="40.0728073" lon="-105.2306366">
  <ele>1586.15</ele>
  <time>2026-08-28T19:10:55Z</time>
  <course>11.98</course>
  <speed>0.0</speed>
  <fix>3d</fix>
</trkpt>
<trkpt lat="40.0728072" lon="-105.2306366">
  <ele>1586.2</ele>
  <time>2026-08-28T19:10:55Z</time>
  <course>35.66</course>
  <speed>0.01</speed>
  <fix>3d</fix>
</trkpt>
<trkpt lat="40.0728073" lon="-105.2306366">
  <ele>1586.15</ele>
  <time>2026-08-28T19:10:55Z</time>
  <course>358.42</course>
  <speed>0.0</speed>
  <fix>3d</fix>
</trkpt>
<trkpt lat="40.0728072" lon="-105.2306366">
  <ele>1586.2</ele>
  <time>2026-08-28T19:10:55Z</time>
  <course>35.74</course>
  <speed>0.01</speed>
  <fix>3d</fix>
</trkpt>
<trkpt lat="40.0728073" lon="-105.2306366">
  <ele>1586.15</ele>
  <time>2026-08-28T19:10:55Z</time>
  <course>302.77</course>
  <speed>0.0</speed>
  <fix>3d</fix>
</trkpt>
<trkpt lat="40.0728072" lon="-105.2306366">
  <ele>1586.2</ele>
  <time>2026-08-28T19:10:55Z</time>
  <course>35.82</course>
  <speed>0.01</speed>
  <fix>3d</fix>
</trkpt>
<trkpt lat="40.0728073" lon="-105.2306366">
  <ele>1586.15</ele>
  <time>2026-08-28T19:10:55Z</time>
  <course>179.95</course>
  <speed>0.0</speed>
  <fix>3d</fix>
</trkpt>
<trkpt lat="40.0728072" lon="-105.2306366">
  <ele>1586.21</ele>
  <time>2026-08-28T19:10:55Z</time>
  <course>35.9</course>
  <speed>0.01</speed>
  <fix>3d</fix>
</trkpt>
<trkpt lat="40.0728073" lon="-105.2306366">
  <ele>1586.15</ele>
  <time>2026-08-28T19:10:55Z</time>
  <course>89.74</course>
  <speed>0.0</speed>
  <fix>3d</fix>
</trkpt>
<trkpt lat="40.0728072" lon="-105.2306366">
  <ele>1586.21</ele>
  <time>2026-08-28T19:10:55Z</time>
  <course>35.97</course>
  <speed>0.01</speed>
  <fix>3d</fix>
</trkpt>
<trkpt lat="40.0728073" lon="-105.2306366">
  <ele>1586.15</ele>
  <time>2026-08-28T19:10:55Z</time>
  <course>318.89</course>
  <speed>0.0</speed>
  <fix>3d</fix>
</trkpt>
<trkpt lat="40.0728072" lon="-105.2306366">
  <ele>1586.21</ele>
  <time>2026-08-28T19:10:55Z</time>
  <course>36.04</course>
  <speed>0.01</speed>
  <fix>3d</fix>
</trkpt>
<trkpt lat="40.0728073" lon="-105.2306366">
  <ele>1586.15</ele>
  <time>2026-08-28T19:10:55Z</time>
  <course>291.17</course>
  <speed>0.0</speed>
  <fix>3d</fix>
</trkpt>
<trkpt lat="40.0728072" lon="-105.2306366">
  <ele>1586.21</ele>
  <time>2026-08-28T19:10:55Z</time>
  <course>36.11</course>
  <speed>0.01</speed>
  <fix>3d</fix>
</trkpt>
<trkpt lat="40.0728073" lon="-105.2306366">
  <ele>1586.15</ele>
  <time>2026-08-28T19:10:55Z</time>
  <course>287.63</course>
  <speed>0.0</speed>
  <fix>3d</fix>
</trkpt>
<trkpt lat="40.0728072" lon="-105.2306366">
  <ele>1586.22</ele>
  <time>2026-08-28T19:10:55Z</time>
  <course>36.17</course>
  <speed>0.01</speed>
  <fix>3d</fix>
</trkpt>
<trkpt lat="40.0728073" lon="-105.2306366">
  <ele>1586.15</ele>
  <time>2026-08-28T19:10:55Z</time>
  <course>299.81</course>
  <speed>0.0</speed>
  <fix>3d</fix>
</trkpt>
<trkpt lat="40.0728072" lon="-105.2306366">
  <ele>1586.22</ele>
  <time>2026-08-28T19:10:55Z</time>
  <course>36.24</course>
  <speed>0.01</speed>
  <fix>3d</fix>
</trkpt>
<trkpt lat="40.0728073" lon="-105.2306366">
  <ele>1586.15</ele>
  <time>2026-08-28T19:10:55Z</time>
  <course>297.9</course>
  <speed>0.0</speed>
  <fix>3d</fix>
</trkpt>
<trkpt lat="40.0728072" lon="-105.2306366">
  <ele>1586.22</ele>
  <time>2026-08-28T19:10:55Z</time>
  <course>36.3</course>
  <speed>0.01</speed>
  <fix>3d</fix>
</trkpt>
<trkpt lat="40.0728073" lon="-105.2306366">
  <ele>1586.15</ele>
  <time>2026-08-28T19:10:55Z</time>
  <course>296.63</course>
  <speed>0.0</speed>
  <fix>3d</fix>
</trkpt>
<trkpt lat="40.0728072" lon="-105.2306366">
  <ele>1586.22</ele>
  <time>2026-08-28T19:10:55Z</time>
  <course>36.36</course>
  <speed>0.01</speed>
  <fix>3d</fix>
</trkpt>
<trkpt lat="40.0728073" lon="-105.2306366">
  <ele>1586.15</ele>
  <time>2026-08-28T19:10:55Z</time>
  <course>297.01</course>
  <speed>0.0</speed>
  <fix>3d</fix>
</trkpt>
<trkpt lat="40.0728072" lon="-105.2306366">
  <ele>1586.22</ele>
  <time>2026-08-28T19:10:55Z</time>
  <course>36.42</course>
  <speed>0.01</speed>
  <fix>3d</fix>
</trkpt>
<trkpt lat="40.0728073" lon="-105.2306366">
  <ele>1586.15</ele>
  <time>2026-08-28T19:10:55Z</time>
  <course>297.13</course>
  <speed>0.0</speed>
  <fix>3d</fix>
</trkpt>
<trkpt lat="40.0728072" lon="-105.2306366">
  <ele>1586.22</ele>
  <time>2026-08-28T19:10:55Z</time>
  <course>36.48</course>
  <speed>0.01</speed>
  <fix>3d</fix>
</trkpt>
<trkpt lat="40.0728073" lon="-105.2306366">
  <ele>1586.15</ele>
  <time>2026-08-28T19:10:55Z</time>
  <course>297.07</course>
  <speed>0.0</speed>
  <fix>3d</fix>
</trkpt>
<trkpt lat="40.0728072" lon="-105.2306366">
  <ele>1586.23</ele>
  <time>2026-08-28T19:10:55Z</time>
  <course>36.54</course>
  <speed>0.01</speed>
  <fix>3d</fix>
</trkpt>
<trkpt lat="40.0728073" lon="-105.2306366">
  <ele>1586.15</ele>
  <time>2026-08-28T19:10:55Z</time>
  <course>297.06</course>
  <speed>0.0</speed>
  <fix>3d</fix>
</trkpt>
<trkpt lat="40.0728072" lon="-105.2306366">
  <ele>1586.23</ele>
  <time>2026-08-28T19:10:55Z</time>
  <course>36.59</course>
  <speed>0.01</speed>
  <fix>3d</fix>
</trkpt>
<trkpt lat="40.0728073" lon="-105.2306366">
  <ele>1586.15</ele>
  <time>2026-08-28T19:10:55Z</time>
  <course>297.07</course>
  <speed>0.0</speed>
  <fix>3d</fix>
</trkpt>
<trkpt lat="40.0728072" lon="-105.2306366">
  <ele>1586.23</ele>
  <time>2026-08-28T19:10:55Z</time>
  <course>36.64</course>
  <speed>0.01</speed>
  <fix>3d</fix>
</trkpt>
<trkpt lat="40.0728073" lon="-105.2306366">
  <ele>1586.15</ele>
  <time>2026-08-28T19:10:55Z</time>
  <course>297.07</course>
  <speed>0.0</speed>
  <fix>3d</fix>
</trkpt>
<trkpt lat="40.0728072" lon="-105.2306366">
  <ele>1586.23</ele>
  <time>2026-08-28T19:10:55Z</time>
  <course>36.7</course>
  <speed>0.01</speed>
  <fix>3d</fix>
</trkpt>
<trkpt lat="40.0728073" lon="-105.2306366">
  <ele>1586.15</ele>
  <time>2026-08-28T19:10:55Z</time>
  <course>296.72</course>
  <speed>0.0</speed>
  <fix>3d</fix>
</trkpt>
<trkpt lat="40.0728072" lon="-105.2306366">
  <ele>1586.23</ele>
  <time>2026-08-28T19:10:55Z</time>
  <course>36.74</course>
  <speed>0.01</speed>
  <fix>3d</fix>
</trkpt>
<trkpt lat="40.0728073" lon="-105.2306366">
  <ele>1586.15</ele>
  <time>2026-08-28T19:10:55Z</time>
  <course>296.16</course>
  <speed>0.0</speed>
  <fix>3d</fix>
</trkpt>
<trkpt lat="40.0728072" lon="-105.2306366">
  <ele>1586.23</ele>
  <time>2026-08-28T19:10:55Z</time>
  <course>36.79</course>
  <speed>0.01</speed>
  <fix>3d</fix>
</trkpt>
<trkpt lat="40.0728073" lon="-105.2306366">
  <ele>1586.15</ele>
  <time>2026-08-28T19:10:55Z</time>
  <course>295.6</course>
  <speed>0.0</speed>
  <fix>3d</fix>
</trkpt>
<trkpt lat="40.0728072" lon="-105.2306366">
  <ele>1586.23</ele>
  <time>2026-08-28T19:10:55Z</time>
  <course>36.83</course>
  <speed>0.01</speed>
  <fix>3d</fix>
</trkpt>
<trkpt lat="40.0728073" lon="-105.2306366">
  <ele>1586.15</ele>
  <time>2026-08-28T19:10:55Z</time>
  <course>287.17</course>
  <speed>0.0</speed>
  <fix>3d</fix>
</trkpt>
<trkpt lat="40.0728072" lon="-105.2306366">
  <ele>1586.23</ele>
  <time>2026-08-28T19:10:55Z</time>
  <course>36.87</course>
  <speed>0.01</speed>
  <fix>3d</fix>
</trkpt>
<trkpt lat="40.0728073" lon="-105.2306366">
  <ele>1586.15</ele>
  <time>2026-08-28T19:10:55Z</time>
  <course>126.99</course>
  <speed>0.0</speed>
  <fix>3d</fix>
</trkpt>
<trkpt lat="40.0728072" lon="-105.2306366">
  <ele>1586.23</ele>
  <time>2026-08-28T19:10:55Z</time>
  <course>36.91</course>
  <speed>0.01</speed>
  <fix>3d</fix>
</trkpt>
<trkpt lat="40.0728073" lon="-105.2306366">
  <ele>1586.15</ele>
  <time>2026-08-28T19:10:55Z</time>
  <course>124.03</course>
  <speed>0.0</speed>
  <fix>3d</fix>
</trkpt>
<trkpt lat="40.0728072" lon="-105.2306366">
  <ele>1586.23</ele>
  <time>2026-08-28T19:10:55Z</time>
  <course>36.94</course>
  <speed>0.01</speed>
  <fix>3d</fix>
</trkpt>
<trkpt lat="40.0728073" lon="-105.2306366">
  <ele>1586.15</ele>
  <time>2026-08-28T19:10:55Z</time>
  <course>123.06</course>
  <speed>0.0</speed>
  <fix>3d</fix>
</trkpt>
<trkpt lat="40.0728072" lon="-105.2306366">
  <ele>1586.23</ele>
  <time>2026-08-28T19:10:56Z</time>
  <course>36.98</course>
  <speed>0.01</speed>
  <fix>3d</fix>
</trkpt>
<trkpt lat="40.0728073" lon="-105.2306366">
  <ele>1586.15</ele>
  <time>2026-08-28T19:10:56Z</time>
  <course>122.3</course>
  <speed>0.0</speed>
  <fix>3d</fix>
</trkpt>
<trkpt lat="40.0728072" lon="-105.2306366">
  <ele>1586.23</ele>
  <time>2026-08-28T19:10:56Z</time>
  <course>37.01</course>
  <speed>0.01</speed>
  <fix>3d</fix>
</trkpt>
<trkpt lat="40.0728073" lon="-105.2306366">
  <ele>1586.15</ele>
  <time>2026-08-28T19:10:56Z</time>
  <course>314.75</course>
  <speed>0.0</speed>
  <fix>3d</fix>
</trkpt>
<trkpt lat="40.0728072" lon="-105.2306366">
  <ele>1586.23</ele>
  <time>2026-08-28T19:10:56Z</time>
  <course>37.03</course>
  <speed>0.01</speed>
  <fix>3d</fix>
</trkpt>
<trkpt lat="40.0728073" lon="-105.2306366">
  <ele>1586.15</ele>
  <time>2026-08-28T19:10:56Z</time>
  <course>298.79</course>
  <speed>0.0</speed>
  <fix>3d</fix>
</trkpt>
<trkpt lat="40.0728072" lon="-105.2306366">
  <ele>1586.23</ele>
  <time>2026-08-28T19:10:56Z</time>
  <course>37.06</course>
  <speed>0.01</speed>
  <fix>3d</fix>
</trkpt>
<trkpt lat="40.0728073" lon="-105.2306366">
  <ele>1586.15</ele>
  <time>2026-08-28T19:10:56Z</time>
  <course>155.45</course>
  <speed>0.0</speed>
  <fix>3d</fix>
</trkpt>
<trkpt lat="40.0728072" lon="-105.2306366">
  <ele>1586.23</ele>
  <time>2026-08-28T19:10:56Z</time>
  <course>37.08</course>
  <speed>0.01</speed>
  <fix>3d</fix>
</trkpt>
<trkpt lat="40.0728073" lon="-105.2306366">
  <ele>1586.15</ele>
  <time>2026-08-28T19:10:56Z</time>
  <course>117.59</course>
  <speed>0.0</speed>
  <fix>3d</fix>
</trkpt>
<trkpt lat="40.0728072" lon="-105.2306366">
  <ele>1586.23</ele>
  <time>2026-08-28T19:10:56Z</time>
  <course>37.1</course>
  <speed>0.01</speed>
  <fix>3d</fix>
</trkpt>
<trkpt lat="40.0728073" lon="-105.2306366">
  <ele>1586.15</ele>
  <time>2026-08-28T19:10:56Z</time>
  <course>118.8</course>
  <speed>0.0</speed>
  <fix>3d</fix>
</trkpt>
<trkpt lat="40.0728072" lon="-105.2306366">
  <ele>1586.24</ele>
  <time>2026-08-28T19:10:56Z</time>
  <course>37.11</course>
  <speed>0.01</speed>
  <fix>3d</fix>
</trkpt>
<trkpt lat="40.0728073" lon="-105.2306366">
  <ele>1586.15</ele>
  <time>2026-08-28T19:10:56Z</time>
  <course>122.36</course>
  <speed>0.0</speed>
  <fix>3d</fix>
</trkpt>
<trkpt lat="40.0728072" lon="-105.2306366">
  <ele>1586.24</ele>
  <time>2026-08-28T19:10:56Z</time>
  <course>37.13</course>
  <speed>0.02</speed>
  <fix>3d</fix>
</trkpt>
<trkpt lat="40.0728073" lon="-105.2306366">
  <ele>1586.15</ele>
  <time>2026-08-28T19:10:56Z</time>
  <course>121.54</course>
  <speed>0.0</speed>
  <fix>3d</fix>
</trkpt>
<trkpt lat="40.0728072" lon="-105.2306366">
  <ele>1586.24</ele>
  <time>2026-08-28T19:10:56Z</time>
  <course>37.14</course>
  <speed>0.02</speed>
  <fix>3d</fix>
</trkpt>
<trkpt lat="40.0728073" lon="-105.2306366">
  <ele>1586.15</ele>
  <time>2026-08-28T19:10:56Z</time>
  <course>120.96</course>
  <speed>0.0</speed>
  <fix>3d</fix>
</trkpt>
<trkpt lat="40.0728072" lon="-105.2306366">
  <ele>1586.24</ele>
  <time>2026-08-28T19:10:56Z</time>
  <course>37.15</course>
  <speed>0.02</speed>
  <fix>3d</fix>
</trkpt>
<trkpt lat="40.0728073" lon="-105.2306366">
  <ele>1586.15</ele>
  <time>2026-08-28T19:10:56Z</time>
  <course>120.95</course>
  <speed>0.0</speed>
  <fix>3d</fix>
</trkpt>
<trkpt lat="40.0728072" lon="-105.2306366">
  <ele>1586.24</ele>
  <time>2026-08-28T19:10:56Z</time>
  <course>37.16</course>
  <speed>0.02</speed>
  <fix>3d</fix>
</trkpt>
<trkpt lat="40.0728073" lon="-105.2306366">
  <ele>1586.15</ele>
  <time>2026-08-28T19:10:56Z</time>
  <course>121.01</course>
  <speed>0.0</speed>
  <fix>3d</fix>
</trkpt>
<trkpt lat="40.0728072" lon="-105.2306366">
  <ele>1586.24</ele>
  <time>2026-08-28T19:10:56Z</time>
  <course>37.16</course>
  <speed>0.02</speed>
  <fix>3d</fix>
</trkpt>
<trkpt lat="40.0728073" lon="-105.2306366">
  <ele>1586.15</ele>
  <time>2026-08-28T19:10:56Z</time>
  <course>120.92</course>
  <speed>0.0</speed>
  <fix>3d</fix>
</trkpt>
<trkpt lat="40.0728072" lon="-105.2306366">
  <ele>1586.24</ele>
  <time>2026-08-28T19:10:56Z</time>
  <course>37.16</course>
  <speed>0.02</speed>
  <fix>3d</fix>
</trkpt>
<trkpt lat="40.0728073" lon="-105.2306366">
  <ele>1586.15</ele>
  <time>2026-08-28T19:10:56Z</time>
  <course>120.84</course>
  <speed>0.0</speed>
  <fix>3d</fix>
</trkpt>
<trkpt lat="40.0728072" lon="-105.2306366">
  <ele>1586.24</ele>
  <time>2026-08-28T19:10:56Z</time>
  <course>37.16</course>
  <speed>0.02</speed>
  <fix>3d</fix>
</trkpt>
<trkpt lat="40.0728073" lon="-105.2306366">
  <ele>1586.15</ele>
  <time>2026-08-28T19:10:56Z</time>
  <course>120.77</course>
  <speed>0.0</speed>
  <fix>3d</fix>
</trkpt>
<trkpt lat="40.0728072" lon="-105.2306366">
  <ele>1586.24</ele>
  <time>2026-08-28T19:10:56Z</time>
  <course>37.16</course>
  <speed>0.02</speed>
  <fix>3d</fix>
</trkpt>
<trkpt lat="40.0728073" lon="-105.2306366">
  <ele>1586.15</ele>
  <time>2026-08-28T19:10:56Z</time>
  <course>120.69</course>
  <speed>0.0</speed>
  <fix>3d</fix>
</trkpt>
<trkpt lat="40.0728072" lon="-105.2306366">
  <ele>1586.24</ele>
  <time>2026-08-28T19:10:56Z</time>
  <course>37.15</course>
  <speed>0.02</speed>
  <fix>3d</fix>
</trkpt>
<trkpt lat="40.0728073" lon="-105.2306366">
  <ele>1586.15</ele>
  <time>2026-08-28T19:10:56Z</time>
  <course>120.61</course>
  <speed>0.0</speed>
  <fix>3d</fix>
</trkpt>
<trkpt lat="40.0728072" lon="-105.2306366">
  <ele>1586.24</ele>
  <time>2026-08-28T19:10:56Z</time>
  <course>37.14</course>
  <speed>0.02</speed>
  <fix>3d</fix>
</trkpt>
<trkpt lat="40.0728073" lon="-105.2306366">
  <ele>1586.15</ele>
  <time>2026-08-28T19:10:56Z</time>
  <course>120.52</course>
  <speed>0.0</speed>
  <fix>3d</fix>
</trkpt>
<trkpt lat="40.0728072" lon="-105.2306366">
  <ele>1586.24</ele>
  <time>2026-08-28T19:10:56Z</time>
  <course>37.14</course>
  <speed>0.02</speed>
  <fix>3d</fix>
</trkpt>
<trkpt lat="40.0728073" lon="-105.2306366">
  <ele>1586.15</ele>
  <time>2026-08-28T19:10:56Z</time>
  <course>120.43</course>
  <speed>0.0</speed>
  <fix>3d</fix>
</trkpt>
<trkpt lat="40.0728072" lon="-105.2306366">
  <ele>1586.24</ele>
  <time>2026-08-28T19:10:56Z</time>
  <course>37.12</course>
  <speed>0.02</speed>
  <fix>3d</fix>
</trkpt>
<trkpt lat="40.0728073" lon="-105.2306366">
  <ele>1586.15</ele>
  <time>2026-08-28T19:10:56Z</time>
  <course>300.56</course>
  <speed>0.0</speed>
  <fix>3d</fix>
</trkpt>
<trkpt lat="40.0728072" lon="-105.2306366">
  <ele>1586.24</ele>
  <time>2026-08-28T19:10:56Z</time>
  <course>37.11</course>
  <speed>0.02</speed>
  <fix>3d</fix>
</trkpt>
<trkpt lat="40.0728073" lon="-105.2306366">
  <ele>1586.15</ele>
  <time>2026-08-28T19:10:56Z</time>
  <course>300.53</course>
  <speed>0.0</speed>
  <fix>3d</fix>
</trkpt>
<trkpt lat="40.0728072" lon="-105.2306366">
  <ele>1586.25</ele>
  <time>2026-08-28T19:10:56Z</time>
  <course>37.1</course>
  <speed>0.02</speed>
  <fix>3d</fix>
</trkpt>
<trkpt lat="40.0728073" lon="-105.2306366">
  <ele>1586.15</ele>
  <time>2026-08-28T19:10:56Z</time>
  <course>120.38</course>
  <speed>0.0</speed>
  <fix>3d</fix>
</trkpt>
<trkpt lat="40.0728072" lon="-105.2306366">
  <ele>1586.25</ele>
  <time>2026-08-28T19:10:56Z</time>
  <course>37.08</course>
  <speed>0.02</speed>
  <fix>3d</fix>
</trkpt>
<trkpt lat="40.0728073" lon="-105.2306366">
  <ele>1586.15</ele>
  <time>2026-08-28T19:10:56Z</time>
  <course>120.26</course>
  <speed>0.0</speed>
  <fix>3d</fix>
</trkpt>
<trkpt lat="40.0728072" lon="-105.2306366">
  <ele>1586.25</ele>
  <time>2026-08-28T19:10:56Z</time>
  <course>37.06</course>
  <speed>0.02</speed>
  <fix>3d</fix>
</trkpt>
<trkpt lat="40.0728073" lon="-105.2306366">
  <ele>1586.15</ele>
  <time>2026-08-28T19:10:56Z</time>
  <course>120.07</course>
  <speed>0.0</speed>
  <fix>3d</fix>
</trkpt>
<trkpt lat="40.0728072" lon="-105.2306366">
  <ele>1586.25</ele>
  <time>2026-08-28T19:10:56Z</time>
  <course>37.04</course>
  <speed>0.02</speed>
  <fix>3d</fix>
</trkpt>
<trkpt lat="40.0728073" lon="-105.2306366">
  <ele>1586.15</ele>
  <time>2026-08-28T19:10:56Z</time>
  <course>119.99</course>
  <speed>0.0</speed>
  <fix>3d</fix>
</trkpt>
<trkpt lat="40.0728072" lon="-105.2306366">
  <ele>1586.25</ele>
  <time>2026-08-28T19:10:56Z</time>
  <course>37.01</course>
  <speed>0.02</speed>
  <fix>3d</fix>
</trkpt>
<trkpt lat="40.0728073" lon="-105.2306366">
  <ele>1586.15</ele>
  <time>2026-08-28T19:10:56Z</time>
  <course>119.89</course>
  <speed>0.0</speed>
  <fix>3d</fix>
</trkpt>
<trkpt lat="40.0728072" lon="-105.2306366">
  <ele>1586.26</ele>
  <time>2026-08-28T19:10:56Z</time>
  <course>36.99</course>
  <speed>0.02</speed>
  <fix>3d</fix>
</trkpt>
<trkpt lat="40.0728073" lon="-105.2306366">
  <ele>1586.15</ele>
  <time>2026-08-28T19:10:56Z</time>
  <course>118.82</course>
  <speed>0.0</speed>
  <fix>3d</fix>
</trkpt>
<trkpt lat="40.0728072" lon="-105.2306366">
  <ele>1586.25</ele>
  <time>2026-08-28T19:10:56Z</time>
  <course>36.96</course>
  <speed>0.02</speed>
  <fix>3d</fix>
</trkpt>
<trkpt lat="40.0728073" lon="-105.2306366">
  <ele>1586.15</ele>
  <time>2026-08-28T19:10:56Z</time>
  <course>300.18</course>
  <speed>0.0</speed>
  <fix>3d</fix>
</trkpt>
<trkpt lat="40.0728072" lon="-105.2306366">
  <ele>1586.25</ele>
  <time>2026-08-28T19:10:56Z</time>
  <course>36.93</course>
  <speed>0.02</speed>
  <fix>3d</fix>
</trkpt>
<trkpt lat="40.0728073" lon="-105.2306366">
  <ele>1586.15</ele>
  <time>2026-08-28T19:10:56Z</time>
  <course>300.14</course>
  <speed>0.0</speed>
  <fix>3d</fix>
</trkpt>
<trkpt lat="40.0728072" lon="-105.2306366">
  <ele>1586.25</ele>
  <time>2026-08-28T19:10:56Z</time>
  <course>36.9</course>
  <speed>0.02</speed>
  <fix>3d</fix>
</trkpt>
<trkpt lat="40.0728073" lon="-105.2306366">
  <ele>1586.15</ele>
  <time>2026-08-28T19:10:56Z</time>
  <course>119.98</course>
  <speed>0.0</speed>
  <fix>3d</fix>
</trkpt>
<trkpt lat="40.0728072" lon="-105.2306366">
  <ele>1586.25</ele>
  <time>2026-08-28T19:10:56Z</time>
  <course>36.87</course>
  <speed>0.02</speed>
  <fix>3d</fix>
</trkpt>
<trkpt lat="40.0728073" lon="-105.2306366">
  <ele>1586.15</ele>
  <time>2026-08-28T19:10:56Z</time>
  <course>119.79</course>
  <speed>0.0</speed>
  <fix>3d</fix>
</trkpt>
<trkpt lat="40.0728072" lon="-105.2306366">
  <ele>1586.25</ele>
  <time>2026-08-28T19:10:56Z</time>
  <course>36.83</course>
  <speed>0.02</speed>
  <fix>3d</fix>
</trkpt>
<trkpt lat="40.0728073" lon="-105.2306366">
  <ele>1586.15</ele>
  <time>2026-08-28T19:10:56Z</time>
  <course>299.88</course>
  <speed>0.0</speed>
  <fix>3d</fix>
</trkpt>
<trkpt lat="40.0728072" lon="-105.2306366">
  <ele>1586.25</ele>
  <time>2026-08-28T19:10:56Z</time>
  <course>36.79</course>
  <speed>0.02</speed>
  <fix>3d</fix>
</trkpt>
<trkpt lat="40.0728073" lon="-105.2306366">
  <ele>1586.15</ele>
  <time>2026-08-28T19:10:56Z</time>
  <course>299.79</course>
  <speed>0.0</speed>
  <fix>3d</fix>
</trkpt>
<trkpt lat="40.0728072" lon="-105.2306366">
  <ele>1586.25</ele>
  <time>2026-08-28T19:10:56Z</time>
  <course>36.76</course>
  <speed>0.02</speed>
  <fix>3d</fix>
</trkpt>
<trkpt lat="40.0728073" lon="-105.2306366">
  <ele>1586.15</ele>
  <time>2026-08-28T19:10:56Z</time>
  <course>299.61</course>
  <speed>0.0</speed>
  <fix>3d</fix>
</trkpt>
<trkpt lat="40.0728072" lon="-105.2306366">
  <ele>1586.25</ele>
  <time>2026-08-28T19:10:56Z</time>
  <course>36.72</course>
  <speed>0.02</speed>
  <fix>3d</fix>
</trkpt>
<trkpt lat="40.0728073" lon="-105.2306366">
  <ele>1586.15</ele>
  <time>2026-08-28T19:10:56Z</time>
  <course>120.02</course>
  <speed>0.0</speed>
  <fix>3d</fix>
</trkpt>
<trkpt lat="40.0728072" lon="-105.2306366">
  <ele>1586.25</ele>
  <time>2026-08-28T19:10:56Z</time>
  <course>36.68</course>
  <speed>0.02</speed>
  <fix>3d</fix>
</trkpt>
<trkpt lat="40.0728073" lon="-105.2306366">
  <ele>1586.15</ele>
  <time>2026-08-28T19:10:56Z</time>
  <course>299.44</course>
  <speed>0.0</speed>
  <fix>3d</fix>
</trkpt>
<trkpt lat="40.0728072" lon="-105.2306366">
  <ele>1586.25</ele>
  <time>2026-08-28T19:10:56Z</time>
  <course>36.64</course>
  <speed>0.02</speed>
  <fix>3d</fix>
</trkpt>
<trkpt lat="40.0728073" lon="-105.2306366">
  <ele>1586.15</ele>
  <time>2026-08-28T19:10:56Z</time>
  <course>299.46</course>
  <speed>0.0</speed>
  <fix>3d</fix>
</trkpt>
<trkpt lat="40.0728072" lon="-105.2306366">
  <ele>1586.24</ele>
  <time>2026-08-28T19:10:56Z</time>
  <course>36.6</course>
  <speed>0.02</speed>
  <fix>3d</fix>
</trkpt>
<trkpt lat="40.0728073" lon="-105.2306366">
  <ele>1586.15</ele>
  <time>2026-08-28T19:10:56Z</time>
  <course>299.06</course>
  <speed>0.0</speed>
  <fix>3d</fix>
</trkpt>
<trkpt lat="40.0728072" lon="-105.2306366">
  <ele>1586.24</ele>
  <time>2026-08-28T19:10:56Z</time>
  <course>36.56</course>
  <speed>0.02</speed>
  <fix>3d</fix>
</trkpt>
<trkpt lat="40.0728073" lon="-105.2306366">
  <ele>1586.15</ele>
  <time>2026-08-28T19:10:56Z</time>
  <course>120.52</course>
  <speed>0.0</speed>
  <fix>3d</fix>
</trkpt>
<trkpt lat="40.0728072" lon="-105.2306366">
  <ele>1586.24</ele>
  <time>2026-08-28T19:10:56Z</time>
  <course>36.52</course>
  <speed>0.02</speed>
  <fix>3d</fix>
</trkpt>
<trkpt lat="40.0728073" lon="-105.2306366">
  <ele>1586.15</ele>
  <time>2026-08-28T19:10:56Z</time>
  <course>187.79</course>
  <speed>0.0</speed>
  <fix>3d</fix>
</trkpt>
<trkpt lat="40.0728072" lon="-105.2306366">
  <ele>1586.24</ele>
  <time>2026-08-28T19:10:56Z</time>
  <course>36.48</course>
  <speed>0.02</speed>
  <fix>3d</fix>
</trkpt>
<trkpt lat="40.0728073" lon="-105.2306366">
  <ele>1586.15</ele>
  <time>2026-08-28T19:10:56Z</time>
  <course>296.18</course>
  <speed>0.0</speed>
  <fix>3d</fix>
</trkpt>
<trkpt lat="40.0728072" lon="-105.2306366">
  <ele>1586.24</ele>
  <time>2026-08-28T19:10:56Z</time>
  <course>36.44</course>
  <speed>0.02</speed>
  <fix>3d</fix>
</trkpt>
<trkpt lat="40.0728073" lon="-105.2306366">
  <ele>1586.15</ele>
  <time>2026-08-28T19:10:56Z</time>
  <course>291.17</course>
  <speed>0.0</speed>
  <fix>3d</fix>
</trkpt>
<trkpt lat="40.0728072" lon="-105.2306366">
  <ele>1586.25</ele>
  <time>2026-08-28T19:10:56Z</time>
  <course>36.4</course>
  <speed>0.02</speed>
  <fix>3d</fix>
</trkpt>
<trkpt lat="40.0728073" lon="-105.2306366">
  <ele>1586.15</ele>
  <time>2026-08-28T19:10:56Z</time>
  <course>289.49</course>
  <speed>0.0</speed>
  <fix>3d</fix>
</trkpt>
<trkpt lat="40.0728072" lon="-105.2306366">
  <ele>1586.25</ele>
  <time>2026-08-28T19:10:56Z</time>
  <course>36.36</course>
  <speed>0.02</speed>
  <fix>3d</fix>
</trkpt>
<trkpt lat="40.0728073" lon="-105.2306366">
  <ele>1586.15</ele>
  <time>2026-08-28T19:10:56Z</time>
  <course>291.48</course>
  <speed>0.0</speed>
  <fix>3d</fix>
</trkpt>
<trkpt lat="40.0728072" lon="-105.2306366">
  <ele>1586.25</ele>
  <time>2026-08-28T19:10:56Z</time>
  <course>36.32</course>
  <speed>0.02</speed>
  <fix>3d</fix>
</trkpt>
<trkpt lat="40.0728073" lon="-105.2306366">
  <ele>1586.15</ele>
  <time>2026-08-28T19:10:56Z</time>
  <course>298.78</course>
  <speed>0.0</speed>
  <fix>3d</fix>
</trkpt>
<trkpt lat="40.0728072" lon="-105.2306366">
  <ele>1586.25</ele>
  <time>2026-08-28T19:10:56Z</time>
  <course>36.28</course>
  <speed>0.02</speed>
  <fix>3d</fix>
</trkpt>
<trkpt lat="40.0728073" lon="-105.2306366">
  <ele>1586.15</ele>
  <time>2026-08-28T19:10:56Z</time>
  <course>298.7</course>
  <speed>0.0</speed>
  <fix>3d</fix>
</trkpt>
<trkpt lat="40.0728072" lon="-105.2306366">
  <ele>1586.25</ele>
  <time>2026-08-28T19:10:56Z</time>
  <course>36.24</course>
  <speed>0.02</speed>
  <fix>3d</fix>
</trkpt>
<trkpt lat="40.0728073" lon="-105.2306366">
  <ele>1586.15</ele>
  <time>2026-08-28T19:10:56Z</time>
  <course>122.26</course>
  <speed>0.0</speed>
  <fix>3d</fix>
</trkpt>
<trkpt lat="40.0728072" lon="-105.2306366">
  <ele>1586.25</ele>
  <time>2026-08-28T19:10:56Z</time>
  <course>36.2</course>
  <speed>0.02</speed>
  <fix>3d</fix>
</trkpt>
<trkpt lat="40.0728073" lon="-105.2306366">
  <ele>1586.15</ele>
  <time>2026-08-28T19:10:56Z</time>
  <course>298.13</course>
  <speed>0.0</speed>
  <fix>3d</fix>
</trkpt>
<trkpt lat="40.0728072" lon="-105.2306366">
  <ele>1586.25</ele>
  <time>2026-08-28T19:10:56Z</time>
  <course>36.16</course>
  <speed>0.02</speed>
  <fix>3d</fix>
</trkpt>
<trkpt lat="40.0728073" lon="-105.2306366">
  <ele>1586.15</ele>
  <time>2026-08-28T19:10:56Z</time>
  <course>298.5</course>
  <speed>0.0</speed>
  <fix>3d</fix>
</trkpt>
<trkpt lat="40.0728072" lon="-105.2306366">
  <ele>1586.25</ele>
  <time>2026-08-28T19:10:56Z</time>
  <course>36.12</course>
  <speed>0.02</speed>
  <fix>3d</fix>
</trkpt>
<trkpt lat="40.0728073" lon="-105.2306366">
  <ele>1586.15</ele>
  <time>2026-08-28T19:10:56Z</time>
  <course>298.05</course>
  <speed>0.0</speed>
  <fix>3d</fix>
</trkpt>
<trkpt lat="40.0728072" lon="-105.2306366">
  <ele>1586.25</ele>
  <time>2026-08-28T19:10:56Z</time>
  <course>36.08</course>
  <speed>0.02</speed>
  <fix>3d</fix>
</trkpt>
<trkpt lat="40.0728073" lon="-105.2306366">
  <ele>1586.15</ele>
  <time>2026-08-28T19:10:56Z</time>
  <course>122.09</course>
  <speed>0.0</speed>
  <fix>3d</fix>
</trkpt>
<trkpt lat="40.0728072" lon="-105.2306366">
  <ele>1586.25</ele>
  <time>2026-08-28T19:10:56Z</time>
  <course>36.05</course>
  <speed>0.02</speed>
  <fix>3d</fix>
</trkpt>
<trkpt lat="40.0728073" lon="-105.2306366">
  <ele>1586.15</ele>
  <time>2026-08-28T19:10:56Z</time>
  <course>297.98</course>
  <speed>0.0</speed>
  <fix>3d</fix>
</trkpt>
<trkpt lat="40.0728072" lon="-105.2306366">
  <ele>1586.25</ele>
  <time>2026-08-28T19:10:56Z</time>
  <course>36.01</course>
  <speed>0.02</speed>
  <fix>3d</fix>
</trkpt>
<trkpt lat="40.0728073" lon="-105.2306366">
  <ele>1586.15</ele>
  <time>2026-08-28T19:10:56Z</time>
  <course>298.2</course>
  <speed>0.0</speed>
  <fix>3d</fix>
</trkpt>
<trkpt lat="40.0728072" lon="-105.2306366">
  <ele>1586.25</ele>
  <time>2026-08-28T19:10:56Z</time>
  <course>35.97</course>
  <speed>0.02</speed>
  <fix>3d</fix>
</trkpt>
<trkpt lat="40.0728073" lon="-105.2306366">
  <ele>1586.15</ele>
  <time>2026-08-28T19:10:56Z</time>
  <course>297.46</course>
  <speed>0.0</speed>
  <fix>3d</fix>
</trkpt>
<trkpt lat="40.0728072" lon="-105.2306366">
  <ele>1586.25</ele>
  <time>2026-08-28T19:10:56Z</time>
  <course>35.93</course>
  <speed>0.02</speed>
  <fix>3d</fix>
</trkpt>
<trkpt lat="40.0728073" lon="-105.2306366">
  <ele>1586.15</ele>
  <time>2026-08-28T19:10:56Z</time>
  <course>124.13</course>
  <speed>0.0</speed>
  <fix>3d</fix>
</trkpt>
<trkpt lat="40.0728072" lon="-105.2306366">
  <ele>1586.25</ele>
  <time>2026-08-28T19:10:56Z</time>
  <course>35.89</course>
  <speed>0.02</speed>
  <fix>3d</fix>
</trkpt>
<trkpt lat="40.0728073" lon="-105.2306366">
  <ele>1586.15</ele>
  <time>2026-08-28T19:10:56Z</time>
  <course>297.75</course>
  <speed>0.0</speed>
  <fix>3d</fix>
</trkpt>
<trkpt lat="40.0728072" lon="-105.2306366">
  <ele>1586.25</ele>
  <time>2026-08-28T19:10:56Z</time>
  <course>35.85</course>
  <speed>0.02</speed>
  <fix>3d</fix>
</trkpt>
<trkpt lat="40.0728073" lon="-105.2306366">
  <ele>1586.15</ele>
  <time>2026-08-28T19:10:56Z</time>
  <course>297.9</course>
  <speed>0.0</speed>
  <fix>3d</fix>
</trkpt>
<trkpt lat="40.0728072" lon="-105.2306366">
  <ele>1586.25</ele>
  <time>2026-08-28T19:10:56Z</time>
  <course>35.81</course>
  <speed>0.02</speed>
  <fix>3d</fix>
</trkpt>
<trkpt lat="40.0728073" lon="-105.2306366">
  <ele>1586.15</ele>
  <time>2026-08-28T19:10:56Z</time>
  <course>296.76</course>
  <speed>0.0</speed>
  <fix>3d</fix>
</trkpt>
<trkpt lat="40.0728072" lon="-105.2306366">
  <ele>1586.25</ele>
  <time>2026-08-28T19:10:56Z</time>
  <course>35.78</course>
  <speed>0.02</speed>
  <fix>3d</fix>
</trkpt>
<trkpt lat="40.0728073" lon="-105.2306366">
  <ele>1586.15</ele>
  <time>2026-08-28T19:10:56Z</time>
  <course>129.21</course>
  <speed>0.0</speed>
  <fix>3d</fix>
</trkpt>
<trkpt lat="40.0728072" lon="-105.2306366">
  <ele>1586.24</ele>
  <time>2026-08-28T19:10:56Z</time>
  <course>35.74</course>
  <speed>0.02</speed>
  <fix>3d</fix>
</trkpt>
<trkpt lat="40.0728073" lon="-105.2306366">
  <ele>1586.15</ele>
  <time>2026-08-28T19:10:56Z</time>
  <course>295.57</course>
  <speed>0.0</speed>
  <fix>3d</fix>
</trkpt>
<trkpt lat="40.0728072" lon="-105.2306366">
  <ele>1586.24</ele>
  <time>2026-08-28T19:10:56Z</time>
  <course>35.7</course>
  <speed>0.02</speed>
  <fix>3d</fix>
</trkpt>
<trkpt lat="40.0728073" lon="-105.2306366">
  <ele>1586.15</ele>
  <time>2026-08-28T19:10:56Z</time>
  <course>297.43</course>
  <speed>0.0</speed>
  <fix>3d</fix>
</trkpt>
<trkpt lat="40.0728072" lon="-105.2306366">
  <ele>1586.24</ele>
  <time>2026-08-28T19:10:56Z</time>
  <course>35.66</course>
  <speed>0.02</speed>
  <fix>3d</fix>
</trkpt>
<trkpt lat="40.0728073" lon="-105.2306366">
  <ele>1586.15</ele>
  <time>2026-08-28T19:10:56Z</time>
  <course>297.17</course>
  <speed>0.0</speed>
  <fix>3d</fix>
</trkpt>
<trkpt lat="40.0728072" lon="-105.2306366">
  <ele>1586.24</ele>
  <time>2026-08-28T19:10:56Z</time>
  <course>35.63</course>
  <speed>0.02</speed>
  <fix>3d</fix>
</trkpt>
<trkpt lat="40.0728073" lon="-105.2306366">
  <ele>1586.15</ele>
  <time>2026-08-28T19:10:56Z</time>
  <course>155.38</course>
  <speed>0.0</speed>
  <fix>3d</fix>
</trkpt>
<trkpt lat="40.0728072" lon="-105.2306366">
  <ele>1586.24</ele>
  <time>2026-08-28T19:10:56Z</time>
  <course>35.59</course>
  <speed>0.02</speed>
  <fix>3d</fix>
</trkpt>
<trkpt lat="40.0728073" lon="-105.2306366">
  <ele>1586.15</ele>
  <time>2026-08-28T19:10:56Z</time>
  <course>293.79</course>
  <speed>0.0</speed>
  <fix>3d</fix>
</trkpt>
<trkpt lat="40.0728072" lon="-105.2306366">
  <ele>1586.24</ele>
  <time>2026-08-28T19:10:56Z</time>
  <course>35.55</course>
  <speed>0.02</speed>
  <fix>3d</fix>
</trkpt>
<trkpt lat="40.0728073" lon="-105.2306366">
  <ele>1586.15</ele>
  <time>2026-08-28T19:10:56Z</time>
  <course>297.11</course>
  <speed>0.0</speed>
  <fix>3d</fix>
</trkpt>
<trkpt lat="40.0728072" lon="-105.2306366">
  <ele>1586.25</ele>
  <time>2026-08-28T19:10:56Z</time>
  <course>35.51</course>
  <speed>0.02</speed>
  <fix>3d</fix>
</trkpt>
<trkpt lat="40.0728073" lon="-105.2306366">
  <ele>1586.15</ele>
  <time>2026-08-28T19:10:56Z</time>
  <course>296.89</course>
  <speed>0.0</speed>
  <fix>3d</fix>
</trkpt>
<trkpt lat="40.0728072" lon="-105.2306366">
  <ele>1586.25</ele>
  <time>2026-08-28T19:10:56Z</time>
  <course>35.48</course>
  <speed>0.02</speed>
  <fix>3d</fix>
</trkpt>
<trkpt lat="40.0728073" lon="-105.2306366">
  <ele>1586.15</ele>
  <time>2026-08-28T19:10:56Z</time>
  <course>252.89</course>
  <speed>0.0</speed>
  <fix>3d</fix>
</trkpt>
<trkpt lat="40.0728072" lon="-105.2306366">
  <ele>1586.25</ele>
  <time>2026-08-28T19:10:56Z</time>
  <course>35.44</course>
  <speed>0.02</speed>
  <fix>3d</fix>
</trkpt>
<trkpt lat="40.0728073" lon="-105.2306366">
  <ele>1586.15</ele>
  <time>2026-08-28T19:10:56Z</time>
  <course>291.98</course>
  <speed>0.0</speed>
  <fix>3d</fix>
</trkpt>
<trkpt lat="40.0728072" lon="-105.2306366">
  <ele>1586.25</ele>
  <time>2026-08-28T19:10:56Z</time>
  <course>35.41</course>
  <speed>0.02</speed>
  <fix>3d</fix>
</trkpt>
<trkpt lat="40.0728073" lon="-105.2306366">
  <ele>1586.15</ele>
  <time>2026-08-28T19:10:56Z</time>
  <course>296.81</course>
  <speed>0.0</speed>
  <fix>3d</fix>
</trkpt>
<trkpt lat="40.0728072" lon="-105.2306366">
  <ele>1586.25</ele>
  <time>2026-08-28T19:10:56Z</time>
  <course>35.37</course>
  <speed>0.02</speed>
  <fix>3d</fix>
</trkpt>
<trkpt lat="40.0728073" lon="-105.2306366">
  <ele>1586.15</ele>
  <time>2026-08-28T19:10:56Z</time>
  <course>296.66</course>
  <speed>0.0</speed>
  <fix>3d</fix>
</trkpt>
<trkpt lat="40.0728072" lon="-105.2306366">
  <ele>1586.25</ele>
  <time>2026-08-28T19:10:56Z</time>
  <course>35.33</course>
  <speed>0.02</speed>
  <fix>3d</fix>
</trkpt>
<trkpt lat="40.0728073" lon="-105.2306366">
  <ele>1586.15</ele>
  <time>2026-08-28T19:10:56Z</time>
  <course>281.77</course>
  <speed>0.0</speed>
  <fix>3d</fix>
</trkpt>
<trkpt lat="40.0728072" lon="-105.2306366">
  <ele>1586.25</ele>
  <time>2026-08-28T19:10:56Z</time>
  <course>35.3</course>
  <speed>0.02</speed>
  <fix>3d</fix>
</trkpt>
<trkpt lat="40.0728073" lon="-105.2306366">
  <ele>1586.15</ele>
  <time>2026-08-28T19:10:56Z</time>
  <course>291.87</course>
  <speed>0.0</speed>
  <fix>3d</fix>
</trkpt>
<trkpt lat="40.0728072" lon="-105.2306366">
  <ele>1586.25</ele>
  <time>2026-08-28T19:10:56Z</time>
  <course>35.26</course>
  <speed>0.02</speed>
  <fix>3d</fix>
</trkpt>
<trkpt lat="40.0728073" lon="-105.2306366">
  <ele>1586.15</ele>
  <time>2026-08-28T19:10:56Z</time>
  <course>296.63</course>
  <speed>0.0</speed>
  <fix>3d</fix>
</trkpt>
<trkpt lat="40.0728072" lon="-105.2306366">
  <ele>1586.25</ele>
  <time>2026-08-28T19:10:56Z</time>
  <course>35.23</course>
  <speed>0.02</speed>
  <fix>3d</fix>
</trkpt>
<trkpt lat="40.0728073" lon="-105.2306366">
  <ele>1586.15</ele>
  <time>2026-08-28T19:10:56Z</time>
  <course>296.6</course>
  <speed>0.0</speed>
  <fix>3d</fix>
</trkpt>
<trkpt lat="40.0728072" lon="-105.2306366">
  <ele>1586.25</ele>
  <time>2026-08-28T19:10:56Z</time>
  <course>35.19</course>
  <speed>0.02</speed>
  <fix>3d</fix>
</trkpt>
<trkpt lat="40.0728073" lon="-105.2306366">
  <ele>1586.15</ele>
  <time>2026-08-28T19:10:56Z</time>
  <course>291.66</course>
  <speed>0.0</speed>
  <fix>3d</fix>
</trkpt>
<trkpt lat="40.0728072" lon="-105.2306366">
  <ele>1586.25</ele>
  <time>2026-08-28T19:10:56Z</time>
  <course>35.16</course>
  <speed>0.02</speed>
  <fix>3d</fix>
</trkpt>
<trkpt lat="40.0728073" lon="-105.2306366">
  <ele>1586.15</ele>
  <time>2026-08-28T19:10:56Z</time>
  <course>290.3</course>
  <speed>0.0</speed>
  <fix>3d</fix>
</trkpt>
<trkpt lat="40.0728072" lon="-105.2306366">
  <ele>1586.25</ele>
  <time>2026-08-28T19:10:56Z</time>
  <course>35.12</course>
  <speed>0.02</speed>
  <fix>3d</fix>
</trkpt>
<trkpt lat="40.0728073" lon="-105.2306366">
  <ele>1586.15</ele>
  <time>2026-08-28T19:10:56Z</time>
  <course>295.43</course>
  <speed>0.0</speed>
  <fix>3d</fix>
</trkpt>
<trkpt lat="40.0728072" lon="-105.2306366">
  <ele>1586.25</ele>
  <time>2026-08-28T19:10:56Z</time>
  <course>35.09</course>
  <speed>0.02</speed>
  <fix>3d</fix>
</trkpt>
<trkpt lat="40.0728073" lon="-105.2306366">
  <ele>1586.15</ele>
  <time>2026-08-28T19:10:56Z</time>
  <course>296.3</course>
  <speed>0.0</speed>
  <fix>3d</fix>
</trkpt>
<trkpt lat="40.0728072" lon="-105.2306366">
  <ele>1586.25</ele>
  <time>2026-08-28T19:10:56Z</time>
  <course>35.05</course>
  <speed>0.02</speed>
  <fix>3d</fix>
</trkpt>
<trkpt lat="40.0728073" lon="-105.2306366">
  <ele>1586.15</ele>
  <time>2026-08-28T19:10:56Z</time>
  <course>295.86</course>
  <speed>0.0</speed>
  <fix>3d</fix>
</trkpt>
<trkpt lat="40.0728072" lon="-105.2306366">
  <ele>1586.24</ele>
  <time>2026-08-28T19:10:56Z</time>
  <course>35.02</course>
  <speed>0.02</speed>
  <fix>3d</fix>
</trkpt>
<trkpt lat="40.0728073" lon="-105.2306366">
  <ele>1586.15</ele>
  <time>2026-08-28T19:10:56Z</time>
  <course>286.6</course>
  <speed>0.0</speed>
  <fix>3d</fix>
</trkpt>
<trkpt lat="40.0728072" lon="-105.2306366">
  <ele>1586.24</ele>
  <time>2026-08-28T19:10:56Z</time>
  <course>34.98</course>
  <speed>0.02</speed>
  <fix>3d</fix>
</trkpt>
<trkpt lat="40.0728073" lon="-105.2306366">
  <ele>1586.15</ele>
  <time>2026-08-28T19:10:56Z</time>
  <course>292.68</course>
  <speed>0.0</speed>
  <fix>3d</fix>
</trkpt>
<trkpt lat="40.0728072" lon="-105.2306366">
  <ele>1586.24</ele>
  <time>2026-08-28T19:10:56Z</time>
  <course>34.95</course>
  <speed>0.02</speed>
  <fix>3d</fix>
</trkpt>
<trkpt lat="40.0728073" lon="-105.2306366">
  <ele>1586.15</ele>
  <time>2026-08-28T19:10:56Z</time>
  <course>296.07</course>
  <speed>0.0</speed>
  <fix>3d</fix>
</trkpt>
<trkpt lat="40.0728072" lon="-105.2306366">
  <ele>1586.24</ele>
  <time>2026-08-28T19:10:56Z</time>
  <course>34.92</course>
  <speed>0.02</speed>
  <fix>3d</fix>
</trkpt>
<trkpt lat="40.0728073" lon="-105.2306366">
  <ele>1586.15</ele>
  <time>2026-08-28T19:10:56Z</time>
  <course>296.05</course>
  <speed>0.0</speed>
  <fix>3d</fix>
</trkpt>
<trkpt lat="40.0728072" lon="-105.2306366">
  <ele>1586.24</ele>
  <time>2026-08-28T19:10:56Z</time>
  <course>34.88</course>
  <speed>0.02</speed>
  <fix>3d</fix>
</trkpt>
<trkpt lat="40.0728073" lon="-105.2306366">
  <ele>1586.15</ele>
  <time>2026-08-28T19:10:56Z</time>
  <course>292.39</course>
  <speed>0.0</speed>
  <fix>3d</fix>
</trkpt>
<trkpt lat="40.0728072" lon="-105.2306366">
  <ele>1586.24</ele>
  <time>2026-08-28T19:10:56Z</time>
  <course>34.85</course>
  <speed>0.02</speed>
  <fix>3d</fix>
</trkpt>
<trkpt lat="40.0728073" lon="-105.2306366">
  <ele>1586.15</ele>
  <time>2026-08-28T19:10:56Z</time>
  <course>290.92</course>
  <speed>0.0</speed>
  <fix>3d</fix>
</trkpt>
<trkpt lat="40.0728072" lon="-105.2306366">
  <ele>1586.24</ele>
  <time>2026-08-28T19:10:56Z</time>
  <course>34.81</course>
  <speed>0.02</speed>
  <fix>3d</fix>
</trkpt>
<trkpt lat="40.0728073" lon="-105.2306366">
  <ele>1586.15</ele>
  <time>2026-08-28T19:10:56Z</time>
  <course>288.08</course>
  <speed>0.0</speed>
  <fix>3d</fix>
</trkpt>
<trkpt lat="40.0728072" lon="-105.2306366">
  <ele>1586.24</ele>
  <time>2026-08-28T19:10:56Z</time>
  <course>34.78</course>
  <speed>0.02</speed>
  <fix>3d</fix>
</trkpt>
<trkpt lat="40.0728073" lon="-105.2306366">
  <ele>1586.15</ele>
  <time>2026-08-28T19:10:56Z</time>
  <course>295.04</course>
  <speed>0.0</speed>
  <fix>3d</fix>
</trkpt>
<trkpt lat="40.0728072" lon="-105.2306366">
  <ele>1586.24</ele>
  <time>2026-08-28T19:10:56Z</time>
  <course>34.75</course>
  <speed>0.02</speed>
  <fix>3d</fix>
</trkpt>
<trkpt lat="40.0728073" lon="-105.2306366">
  <ele>1586.15</ele>
  <time>2026-08-28T19:10:56Z</time>
  <course>302.52</course>
  <speed>0.0</speed>
  <fix>3d</fix>
</trkpt>
<trkpt lat="40.0728072" lon="-105.2306366">
  <ele>1586.24</ele>
  <time>2026-08-28T19:10:56Z</time>
  <course>34.72</course>
  <speed>0.02</speed>
  <fix>3d</fix>
</trkpt>
<trkpt lat="40.0728073" lon="-105.2306366">
  <ele>1586.15</ele>
  <time>2026-08-28T19:10:56Z</time>
  <course>289.67</course>
  <speed>0.0</speed>
  <fix>3d</fix>
</trkpt>
<trkpt lat="40.0728072" lon="-105.2306366">
  <ele>1586.24</ele>
  <time>2026-08-28T19:10:56Z</time>
  <course>34.68</course>
  <speed>0.02</speed>
  <fix>3d</fix>
</trkpt>
<trkpt lat="40.0728073" lon="-105.2306366">
  <ele>1586.15</ele>
  <time>2026-08-28T19:10:56Z</time>
  <course>291.21</course>
  <speed>0.0</speed>
  <fix>3d</fix>
</trkpt>
<trkpt lat="40.0728072" lon="-105.2306366">
  <ele>1586.23</ele>
  <time>2026-08-28T19:10:56Z</time>
  <course>34.65</course>
  <speed>0.02</speed>
  <fix>3d</fix>
</trkpt>
<trkpt lat="40.0728073" lon="-105.2306366">
  <ele>1586.15</ele>
  <time>2026-08-28T19:10:56Z</time>
  <course>295.67</course>
  <speed>0.0</speed>
  <fix>3d</fix>
</trkpt>
<trkpt lat="40.0728072" lon="-105.2306366">
  <ele>1586.23</ele>
  <time>2026-08-28T19:10:56Z</time>
  <course>34.62</course>
  <speed>0.02</speed>
  <fix>3d</fix>
</trkpt>
<trkpt lat="40.0728073" lon="-105.2306366">
  <ele>1586.15</ele>
  <time>2026-08-28T19:10:56Z</time>
  <course>295.64</course>
  <speed>0.0</speed>
  <fix>3d</fix>
</trkpt>
<trkpt lat="40.0728072" lon="-105.2306366">
  <ele>1586.23</ele>
  <time>2026-08-28T19:10:56Z</time>
  <course>34.59</course>
  <speed>0.02</speed>
  <fix>3d</fix>
</trkpt>
<trkpt lat="40.0728073" lon="-105.2306366">
  <ele>1586.15</ele>
  <time>2026-08-28T19:10:56Z</time>
  <course>292.78</course>
  <speed>0.0</speed>
  <fix>3d</fix>
</trkpt>
<trkpt lat="40.0728072" lon="-105.2306366">
  <ele>1586.23</ele>
  <time>2026-08-28T19:10:56Z</time>
  <course>34.55</course>
  <speed>0.02</speed>
  <fix>3d</fix>
</trkpt>
<trkpt lat="40.0728073" lon="-105.2306366">
  <ele>1586.15</ele>
  <time>2026-08-28T19:10:56Z</time>
  <course>291.18</course>
  <speed>0.0</speed>
  <fix>3d</fix>
</trkpt>
<trkpt lat="40.0728072" lon="-105.2306366">
  <ele>1586.23</ele>
  <time>2026-08-28T19:10:56Z</time>
  <course>34.52</course>
  <speed>0.02</speed>
  <fix>3d</fix>
</trkpt>
<trkpt lat="40.0728073" lon="-105.2306366">
  <ele>1586.15</ele>
  <time>2026-08-28T19:10:56Z</time>
  <course>293.32</course>
  <speed>0.0</speed>
  <fix>3d</fix>
</trkpt>
<trkpt lat="40.0728072" lon="-105.2306366">
  <ele>1586.23</ele>
  <time>2026-08-28T19:10:56Z</time>
  <course>34.49</course>
  <speed>0.02</speed>
  <fix>3d</fix>
</trkpt>
<trkpt lat="40.0728073" lon="-105.2306366">
  <ele>1586.15</ele>
  <time>2026-08-28T19:10:56Z</time>
  <course>295.29</course>
  <speed>0.0</speed>
  <fix>3d</fix>
</trkpt>
<trkpt lat="40.0728072" lon="-105.2306366">
  <ele>1586.23</ele>
  <time>2026-08-28T19:10:56Z</time>
  <course>34.46</course>
  <speed>0.02</speed>
  <fix>3d</fix>
</trkpt>
<trkpt lat="40.0728073" lon="-105.2306366">
  <ele>1586.15</ele>
  <time>2026-08-28T19:10:56Z</time>
  <course>295.38</course>
  <speed>0.0</speed>
  <fix>3d</fix>
</trkpt>
<trkpt lat="40.0728072" lon="-105.2306366">
  <ele>1586.23</ele>
  <time>2026-08-28T19:10:56Z</time>
  <course>34.43</course>
  <speed>0.02</speed>
  <fix>3d</fix>
</trkpt>
<trkpt lat="40.0728073" lon="-105.2306366">
  <ele>1586.15</ele>
  <time>2026-08-28T19:10:56Z</time>
  <course>293.6</course>
  <speed>0.0</speed>
  <fix>3d</fix>
</trkpt>
<trkpt lat="40.0728072" lon="-105.2306366">
  <ele>1586.23</ele>
  <time>2026-08-28T19:10:56Z</time>
  <course>34.4</course>
  <speed>0.02</speed>
  <fix>3d</fix>
</trkpt>
<trkpt lat="40.0728073" lon="-105.2306366">
  <ele>1586.15</ele>
  <time>2026-08-28T19:10:56Z</time>
  <course>292.69</course>
  <speed>0.0</speed>
  <fix>3d</fix>
</trkpt>
<trkpt lat="40.0728072" lon="-105.2306366">
  <ele>1586.23</ele>
  <time>2026-08-28T19:10:56Z</time>
  <course>34.37</course>
  <speed>0.02</speed>
  <fix>3d</fix>
</trkpt>
<trkpt lat="40.0728073" lon="-105.2306366">
  <ele>1586.15</ele>
  <time>2026-08-28T19:10:56Z</time>
  <course>291.83</course>
  <speed>0.0</speed>
  <fix>3d</fix>
</trkpt>
<trkpt lat="40.0728072" lon="-105.2306366">
  <ele>1586.23</ele>
  <time>2026-08-28T19:10:56Z</time>
  <course>34.35</course>
  <speed>0.02</speed>
  <fix>3d</fix>
</trkpt>
<trkpt lat="40.0728073" lon="-105.2306367">
  <ele>1586.15</ele>
  <time>2026-08-28T19:10:56Z</time>
  <course>291.94</course>
  <speed>0.0</speed>
  <fix>3d</fix>
</trkpt>
<trkpt lat="40.0728072" lon="-105.2306366">
  <ele>1586.23</ele>
  <time>2026-08-28T19:10:56Z</time>
  <course>34.33</course>
  <speed>0.02</speed>
  <fix>3d</fix>
</trkpt>
<trkpt lat="40.0728073" lon="-105.2306368">
  <ele>1586.15</ele>
  <time>2026-08-28T19:10:56Z</time>
  <course>295.65</course>
  <speed>0.0</speed>
  <fix>3d</fix>
</trkpt>
<trkpt lat="40.0728072" lon="-105.2306366">
  <ele>1586.23</ele>
  <time>2026-08-28T19:10:56Z</time>
  <course>34.32</course>
  <speed>0.02</speed>
  <fix>3d</fix>
</trkpt>
<trkpt lat="40.0728072" lon="-105.2306366">
  <ele>1586.23</ele>
  <time>2026-08-28T19:10:56Z</time>
  <course>34.29</course>
  <speed>0.02</speed>
  <fix>3d</fix>
</trkpt>
<trkpt lat="40.0728073" lon="-105.2306368">
  <ele>1586.15</ele>
  <time>2026-08-28T19:10:56Z</time>
  <course>295.36</course>
  <speed>0.0</speed>
  <fix>3d</fix>
</trkpt>
<trkpt lat="40.0728072" lon="-105.2306366">
  <ele>1586.23</ele>
  <time>2026-08-28T19:10:56Z</time>
  <course>34.29</course>
  <speed>0.02</speed>
  <fix>3d</fix>
</trkpt>
<trkpt lat="40.0728072" lon="-105.2306366">
  <ele>1586.23</ele>
  <time>2026-08-28T19:10:56Z</time>
  <course>34.25</course>
  <speed>0.02</speed>
  <fix>3d</fix>
</trkpt>
<trkpt lat="40.0728073" lon="-105.2306368">
  <ele>1586.15</ele>
  <time>2026-08-28T19:10:56Z</time>
  <course>294.04</course>
  <speed>0.0</speed>
  <fix>3d</fix>
</trkpt>
<trkpt lat="40.0728072" lon="-105.2306366">
  <ele>1586.23</ele>
  <time>2026-08-28T19:10:56Z</time>
  <course>34.24</course>
  <speed>0.02</speed>
  <fix>3d</fix>
</trkpt>
<trkpt lat="40.0728072" lon="-105.2306366">
  <ele>1586.25</ele>
  <time>2026-08-28T19:10:56Z</time>
  <course>34.18</course>
  <speed>0.02</speed>
  <fix>3d</fix>
</trkpt>
<trkpt lat="40.0728073" lon="-105.2306368">
  <ele>1586.15</ele>
  <time>2026-08-28T19:10:56Z</time>
  <course>294.01</course>
  <speed>0.0</speed>
  <fix>3d</fix>
</trkpt>
<trkpt lat="40.0728072" lon="-105.2306366">
  <ele>1586.26</ele>
  <time>2026-08-28T19:10:56Z</time>
  <course>34.17</course>
  <speed>0.02</speed>
  <fix>3d</fix>
</trkpt>
<trkpt lat="40.0728072" lon="-105.2306366">
  <ele>1586.3</ele>
  <time>2026-08-28T19:10:56Z</time>
  <course>34.09</course>
  <speed>0.02</speed>
  <fix>3d</fix>
</trkpt>
<trkpt lat="40.0728073" lon="-105.2306368">
  <ele>1586.18</ele>
  <time>2026-08-28T19:10:56Z</time>
  <course>294.91</course>
  <speed>0.0</speed>
  <fix>3d</fix>
</trkpt>
<trkpt lat="40.0728072" lon="-105.2306366">
  <ele>1586.31</ele>
  <time>2026-08-28T19:10:56Z</time>
  <course>34.08</course>
  <speed>0.02</speed>
  <fix>3d</fix>
</trkpt>
<trkpt lat="40.0728072" lon="-105.2306366">
  <ele>1586.35</ele>
  <time>2026-08-28T19:10:56Z</time>
  <course>34.0</course>
  <speed>0.02</speed>
  <fix>3d</fix>
</trkpt>
<trkpt lat="40.0728073" lon="-105.2306368">
  <ele>1586.23</ele>
  <time>2026-08-28T19:10:56Z</time>
  <course>348.58</course>
  <speed>0.0</speed>
  <fix>3d</fix>
</trkpt>
<trkpt lat="40.0728072" lon="-105.2306366">
  <ele>1586.36</ele>
  <time>2026-08-28T19:10:56Z</time>
  <course>33.5</course>
  <speed>0.02</speed>
  <fix>3d</fix>
</trkpt>
<trkpt lat="40.0728072" lon="-105.2306367">
  <ele>1586.49</ele>
  <time>2026-08-28T19:10:56Z</time>
  <course>25.44</course>
  <speed>0.08062257748298549</speed>
  <fix>3d</fix>
</trkpt>
<trkpt lat="40.0728073" lon="-105.2306368">
  <ele>1586.31</ele>
  <time>2026-08-28T19:10:56Z</time>
  <course>291.83</course>
  <speed>0.02</speed>
  <fix>3d</fix>
</trkpt>
<trkpt lat="40.0728072" lon="-105.2306367">
  <ele>1586.53</ele>
  <time>2026-08-28T19:10:56Z</time>
  <course>24.5</course>
  <speed>0.1019803902718557</speed>
  <fix>3d</fix>
</trkpt>
<trkpt lat="40.0728072" lon="-105.230637">
  <ele>1586.73</ele>
  <time>2026-08-28T19:10:56Z</time>
  <course>23.32</course>
  <speed>0.18681541692269404</speed>
  <fix>3d</fix>
</trkpt>
<trkpt lat="40.0728073" lon="-105.2306369">
  <ele>1586.47</ele>
  <time>2026-08-28T19:10:56Z</time>
  <course>287.41</course>
  <speed>0.11</speed>
  <fix>3d</fix>
</trkpt>
<trkpt lat="40.0728072" lon="-105.2306371">
  <ele>1586.76</ele>
  <time>2026-08-28T19:10:56Z</time>
  <course>23.33</course>
  <speed>0.18681541692269404</speed>
  <fix>3d</fix>
</trkpt>
<trkpt lat="40.0728073" lon="-105.2306375">
  <ele>1586.87</ele>
  <time>2026-08-28T19:10:56Z</time>
  <course>22.9</course>
  <speed>0.22561028345356957</speed>
  <fix>3d</fix>
</trkpt>
<trkpt lat="40.0728073" lon="-105.2306373">
  <ele>1586.67</ele>
  <time>2026-08-28T19:10:56Z</time>
  <course>284.4</course>
  <speed>0.2</speed>
  <fix>3d</fix>
</trkpt>
<trkpt lat="40.0728073" lon="-105.2306375">
  <ele>1586.87</ele>
  <time>2026-08-28T19:10:56Z</time>
  <course>22.89</course>
  <speed>0.22561028345356957</speed>
  <fix>3d</fix>
</trkpt>
<trkpt lat="40.0728074" lon="-105.2306381">
  <ele>1586.99</ele>
  <time>2026-08-28T19:10:56Z</time>
  <course>22.01</course>
  <speed>0.25317977802344327</speed>
  <fix>3d</fix>
</trkpt>
<trkpt lat="40.0728074" lon="-105.2306378">
  <ele>1586.81</ele>
  <time>2026-08-28T19:10:57Z</time>
  <course>280.47</course>
  <speed>0.24</speed>
  <fix>3d</fix>
</trkpt>
<trkpt lat="40.0728074" lon="-105.2306383">
  <ele>1587.02</ele>
  <time>2026-08-28T19:10:57Z</time>
  <course>21.87</course>
  <speed>0.25179356624028343</speed>
  <fix>3d</fix>
</trkpt>
<trkpt lat="40.0728075" lon="-105.2306387">
  <ele>1587.09</ele>
  <time>2026-08-28T19:10:57Z</time>
  <course>21.73</course>
  <speed>0.2601922366251538</speed>
  <fix>3d</fix>
</trkpt>
<trkpt lat="40.0728075" lon="-105.2306384">
  <ele>1586.91</ele>
  <time>2026-08-28T19:10:57Z</time>
  <course>275.85</course>
  <speed>0.26</speed>
  <fix>3d</fix>
</trkpt>
<trkpt lat="40.0728075" lon="-105.2306389">
  <ele>1587.11</ele>
  <time>2026-08-28T19:10:57Z</time>
  <course>21.74</course>
  <speed>0.27018512172212594</speed>
  <fix>3d</fix>
</trkpt>
<trkpt lat="40.0728075" lon="-105.2306394">
  <ele>1587.18</ele>
  <time>2026-08-28T19:10:57Z</time>
  <course>21.77</course>
  <speed>0.27</speed>
  <fix>3d</fix>
</trkpt>
<trkpt lat="40.0728076" lon="-105.230639">
  <ele>1587.0</ele>
  <time>2026-08-28T19:10:57Z</time>
  <course>271.04</course>
  <speed>0.27</speed>
  <fix>3d</fix>
</trkpt>
<trkpt lat="40.0728075" lon="-105.2306395">
  <ele>1587.2</ele>
  <time>2026-08-28T19:10:57Z</time>
  <course>21.8</course>
  <speed>0.27018512172212594</speed>
  <fix>3d</fix>
</trkpt>
<trkpt lat="40.0728074" lon="-105.23064">
  <ele>1587.28</ele>
  <time>2026-08-28T19:10:57Z</time>
  <course>21.89</course>
  <speed>0.27166155414412246</speed>
  <fix>3d</fix>
</trkpt>
<trkpt lat="40.0728076" lon="-105.2306397">
  <ele>1587.09</ele>
  <time>2026-08-28T19:10:57Z</time>
  <course>266.22</course>
  <speed>0.28</speed>
  <fix>3d</fix>
</trkpt>
<trkpt lat="40.0728074" lon="-105.2306402">
  <ele>1587.3</ele>
  <time>2026-08-28T19:10:57Z</time>
  <course>21.93</course>
  <speed>0.27294688127912364</speed>
  <fix>3d</fix>
</trkpt>
<trkpt lat="40.0728074" lon="-105.2306407">
  <ele>1587.37</ele>
  <time>2026-08-28T19:10:57Z</time>
  <course>22.07</course>
  <speed>0.2863564212655271</speed>
  <fix>3d</fix>
</trkpt>
<trkpt lat="40.0728076" lon="-105.2306403">
  <ele>1587.19</ele>
  <time>2026-08-28T19:10:57Z</time>
  <course>261.66</course>
  <speed>0.28</speed>
  <fix>3d</fix>
</trkpt>
<trkpt lat="40.0728074" lon="-105.2306408">
  <ele>1587.39</ele>
  <time>2026-08-28T19:10:57Z</time>
  <course>22.14</course>
  <speed>0.2863564212655271</speed>
  <fix>3d</fix>
</trkpt>
<trkpt lat="40.0728073" lon="-105.2306413">
  <ele>1587.47</ele>
  <time>2026-08-28T19:10:57Z</time>
  <course>22.33</course>
  <speed>0.29120439557122074</speed>
  <fix>3d</fix>
</trkpt>
<trkpt lat="40.0728075" lon="-105.2306409">
  <ele>1587.28</ele>
  <time>2026-08-28T19:10:57Z</time>
  <course>257.48</course>
  <speed>0.28</speed>
  <fix>3d</fix>
</trkpt>
<trkpt lat="40.0728073" lon="-105.2306414">
  <ele>1587.47</ele>
  <time>2026-08-28T19:10:57Z</time>
  <course>22.34</course>
  <speed>0.29120439557122074</speed>
  <fix>3d</fix>
</trkpt>
<trkpt lat="40.0728072" lon="-105.230642">
  <ele>1587.57</ele>
  <time>2026-08-28T19:10:57Z</time>
  <course>22.64</course>
  <speed>0.2973213749463701</speed>
  <fix>3d</fix>
</trkpt>
<trkpt lat="40.0728074" lon="-105.2306416">
  <ele>1587.38</ele>
  <time>2026-08-28T19:10:57Z</time>
  <course>253.67</course>
  <speed>0.28</speed>
  <fix>3d</fix>
</trkpt>
<trkpt lat="40.0728071" lon="-105.2306422">
  <ele>1587.6</ele>
  <time>2026-08-28T19:10:57Z</time>
  <course>22.73</course>
  <speed>0.30083217912982646</speed>
  <fix>3d</fix>
</trkpt>
<trkpt lat="40.072807" lon="-105.2306427">
  <ele>1587.68</ele>
  <time>2026-08-28T19:10:57Z</time>
  <course>22.98</course>
  <speed>0.30463092423455634</speed>
  <fix>3d</fix>
</trkpt>
<trkpt lat="40.0728072" lon="-105.2306423">
  <ele>1587.49</ele>
  <time>2026-08-28T19:10:57Z</time>
  <course>250.24</course>
  <speed>0.29</speed>
  <fix>3d</fix>
</trkpt>
<trkpt lat="40.072807" lon="-105.2306428">
  <ele>1587.71</ele>
  <time>2026-08-28T19:10:57Z</time>
  <course>23.06</course>
  <speed>0.30463092423455634</speed>
  <fix>3d</fix>
</trkpt>
<trkpt lat="40.0728068" lon="-105.2306433">
  <ele>1587.8</ele>
  <time>2026-08-28T19:10:57Z</time>
  <course>23.32</course>
  <speed>0.31304951684997057</speed>
  <fix>3d</fix>
</trkpt>
<trkpt lat="40.072807" lon="-105.2306429">
  <ele>1587.61</ele>
  <time>2026-08-28T19:10:57Z</time>
  <course>247.19</course>
  <speed>0.3</speed>
  <fix>3d</fix>
</trkpt>
<trkpt lat="40.0728068" lon="-105.2306434">
  <ele>1587.81</ele>
  <time>2026-08-28T19:10:57Z</time>
  <course>23.36</course>
  <speed>0.31304951684997057</speed>
  <fix>3d</fix>
</trkpt>
<trkpt lat="40.0728065" lon="-105.230644">
  <ele>1587.92</ele>
  <time>2026-08-28T19:10:57Z</time>
  <course>23.73</course>
  <speed>0.3312099032335839</speed>
  <fix>3d</fix>
</trkpt>
<trkpt lat="40.0728067" lon="-105.2306436">
  <ele>1587.73</ele>
  <time>2026-08-28T19:10:57Z</time>
  <course>244.55</course>
  <speed>0.31</speed>
  <fix>3d</fix>
</trkpt>
<trkpt lat="40.0728065" lon="-105.2306442">
  <ele>1587.95</ele>
  <time>2026-08-28T19:10:57Z</time>
  <course>23.83</course>
  <speed>0.3312099032335839</speed>
  <fix>3d</fix>
</trkpt>
<trkpt lat="40.0728063" lon="-105.2306447">
  <ele>1588.05</ele>
  <time>2026-08-28T19:10:57Z</time>
  <course>24.14</course>
  <speed>0.3361547262794322</speed>
  <fix>3d</fix>
</trkpt>
<trkpt lat="40.0728065" lon="-105.2306443">
  <ele>1587.85</ele>
  <time>2026-08-28T19:10:57Z</time>
  <course>242.22</course>
  <speed>0.31</speed>
  <fix>3d</fix>
</trkpt>
<trkpt lat="40.0728062" lon="-105.2306448">
  <ele>1588.08</ele>
  <time>2026-08-28T19:10:57Z</time>
  <course>24.26</course>
  <speed>0.34132096331752027</speed>
  <fix>3d</fix>
</trkpt>
<trkpt lat="40.072806" lon="-105.2306453">
  <ele>1588.18</ele>
  <time>2026-08-28T19:10:57Z</time>
  <course>24.57</course>
  <speed>0.3466987164671943</speed>
  <fix>3d</fix>
</trkpt>
<trkpt lat="40.0728062" lon="-105.2306449">
  <ele>1587.97</ele>
  <time>2026-08-28T19:10:57Z</time>
  <course>240.17</course>
  <speed>0.32</speed>
  <fix>3d</fix>
</trkpt>
<trkpt lat="40.0728059" lon="-105.2306454">
  <ele>1588.2</ele>
  <time>2026-08-28T19:10:57Z</time>
  <course>24.63</course>
  <speed>0.3466987164671943</speed>
  <fix>3d</fix>
</trkpt>
<trkpt lat="40.0728056" lon="-105.230646">
  <ele>1588.31</ele>
  <time>2026-08-28T19:10:57Z</time>
  <course>25.02</course>
  <speed>0.3522782990761707</speed>
  <fix>3d</fix>
</trkpt>
<trkpt lat="40.0728059" lon="-105.2306456">
  <ele>1588.1</ele>
  <time>2026-08-28T19:10:57Z</time>
  <course>238.43</course>
  <speed>0.33</speed>
  <fix>3d</fix>
</trkpt>
<trkpt lat="40.0728055" lon="-105.2306462">
  <ele>1588.34</ele>
  <time>2026-08-28T19:10:57Z</time>
  <course>25.12</course>
  <speed>0.3522782990761707</speed>
  <fix>3d</fix>
</trkpt>
<trkpt lat="40.0728053" lon="-105.2306467">
  <ele>1588.44</ele>
  <time>2026-08-28T19:10:57Z</time>
  <course>25.44</course>
  <speed>0.35805027579936316</speed>
  <fix>3d</fix>
</trkpt>
<trkpt lat="40.0728056" lon="-105.2306462">
  <ele>1588.22</ele>
  <time>2026-08-28T19:10:57Z</time>
  <course>236.92</course>
  <speed>0.34</speed>
  <fix>3d</fix>
</trkpt>
<trkpt lat="40.0728053" lon="-105.2306467">
  <ele>1588.45</ele>
  <time>2026-08-28T19:10:57Z</time>
  <course>25.46</course>
  <speed>0.35805027579936316</speed>
  <fix>3d</fix>
</trkpt>
<trkpt lat="40.0728049" lon="-105.2306474">
  <ele>1588.57</ele>
  <time>2026-08-28T19:10:57Z</time>
  <course>25.86</course>
  <speed>0.3640054944640259</speed>
  <fix>3d</fix>
</trkpt>
<trkpt lat="40.0728053" lon="-105.2306469">
  <ele>1588.35</ele>
  <time>2026-08-28T19:10:57Z</time>
  <course>235.61</course>
  <speed>0.35</speed>
  <fix>3d</fix>
</trkpt>
<trkpt lat="40.0728048" lon="-105.2306475">
  <ele>1588.59</ele>
  <time>2026-08-28T19:10:57Z</time>
  <course>25.95</course>
  <speed>0.37013511046643494</speed>
  <fix>3d</fix>
</trkpt>
<trkpt lat="40.0728045" lon="-105.2306481">
  <ele>1588.7</ele>
  <time>2026-08-28T19:10:57Z</time>
  <course>26.3</course>
  <speed>0.37013511046643494</speed>
  <fix>3d</fix>
</trkpt>
<trkpt lat="40.0728048" lon="-105.2306476">
  <ele>1588.47</ele>
  <time>2026-08-28T19:10:57Z</time>
  <course>234.51</course>
  <speed>0.35</speed>
  <fix>3d</fix>
</trkpt>
<trkpt lat="40.0728045" lon="-105.2306482">
  <ele>1588.72</ele>
  <time>2026-08-28T19:10:57Z</time>
  <course>26.36</course>
  <speed>0.3764306044943742</speed>
  <fix>3d</fix>
</trkpt>
<trkpt lat="40.0728041" lon="-105.2306487">
  <ele>1588.82</ele>
  <time>2026-08-28T19:10:57Z</time>
  <course>27.19</course>
  <speed>0.3764306044943742</speed>
  <fix>3d</fix>
</trkpt>
<trkpt lat="40.0728045" lon="-105.2306483">
  <ele>1588.6</ele>
  <time>2026-08-28T19:10:57Z</time>
  <course>233.51</course>
  <speed>0.36</speed>
  <fix>3d</fix>
</trkpt>
<trkpt lat="40.072804" lon="-105.2306489">
  <ele>1588.85</ele>
  <time>2026-08-28T19:10:57Z</time>
  <course>27.28</course>
  <speed>0.3828837943815329</speed>
  <fix>3d</fix>
</trkpt>
<trkpt lat="40.0728037" lon="-105.2306494">
  <ele>1588.95</ele>
  <time>2026-08-28T19:10:57Z</time>
  <course>24.96</course>
  <speed>0.3905124837953327</speed>
  <fix>3d</fix>
</trkpt>
<trkpt lat="40.0728041" lon="-105.230649">
  <ele>1588.72</ele>
  <time>2026-08-28T19:10:57Z</time>
  <course>232.63</course>
  <speed>0.37</speed>
  <fix>3d</fix>
</trkpt>
<trkpt lat="40.0728036" lon="-105.2306496">
  <ele>1588.98</ele>
  <time>2026-08-28T19:10:57Z</time>
  <course>24.58</course>
  <speed>0.39698866482558415</speed>
  <fix>3d</fix>
</trkpt>
<trkpt lat="40.0728033" lon="-105.2306501">
  <ele>1589.07</ele>
  <time>2026-08-28T19:10:57Z</time>
  <course>24.87</course>
  <speed>0.39698866482558415</speed>
  <fix>3d</fix>
</trkpt>
<trkpt lat="40.0728036" lon="-105.2306497">
  <ele>1588.84</ele>
  <time>2026-08-28T19:10:57Z</time>
  <course>232.3</course>
  <speed>0.37</speed>
  <fix>3d</fix>
</trkpt>
<trkpt lat="40.0728033" lon="-105.2306502">
  <ele>1589.07</ele>
  <time>2026-08-28T19:10:57Z</time>
  <course>24.93</course>
  <speed>0.40360872141221127</speed>
  <fix>3d</fix>
</trkpt>
<trkpt lat="40.0728028" lon="-105.2306509">
  <ele>1589.19</ele>
  <time>2026-08-28T19:10:57Z</time>
  <course>26.64</course>
  <speed>0.40360872141221127</speed>
  <fix>3d</fix>
</trkpt>
<trkpt lat="40.0728033" lon="-105.2306504">
  <ele>1588.96</ele>
  <time>2026-08-28T19:10:57Z</time>
  <course>232.05</course>
  <speed>0.38</speed>
  <fix>3d</fix>
</trkpt>
<trkpt lat="40.0728027" lon="-105.230651">
  <ele>1589.22</ele>
  <time>2026-08-28T19:10:57Z</time>
  <course>27.04</course>
  <speed>0.40360872141221127</speed>
  <fix>3d</fix>
</trkpt>
<trkpt lat="40.0728024" lon="-105.2306516">
  <ele>1589.31</ele>
  <time>2026-08-28T19:10:57Z</time>
  <course>27.81</course>
  <speed>0.40360872141221127</speed>
  <fix>3d</fix>
</trkpt>
<trkpt lat="40.0728029" lon="-105.2306511">
  <ele>1589.08</ele>
  <time>2026-08-28T19:10:57Z</time>
  <course>231.46</course>
  <speed>0.39</speed>
  <fix>3d</fix>
</trkpt>
<trkpt lat="40.0728023" lon="-105.2306517">
  <ele>1589.33</ele>
  <time>2026-08-28T19:10:57Z</time>
  <course>27.97</course>
  <speed>0.40360872141221127</speed>
  <fix>3d</fix>
</trkpt>
<trkpt lat="40.072802" lon="-105.2306523">
  <ele>1589.43</ele>
  <time>2026-08-28T19:10:57Z</time>
  <course>28.44</course>
  <speed>0.40360872141221127</speed>
  <fix>3d</fix>
</trkpt>
<trkpt lat="40.0728024" lon="-105.2306518">
  <ele>1589.2</ele>
  <time>2026-08-28T19:10:57Z</time>
  <course>230.98</course>
  <speed>0.39</speed>
  <fix>3d</fix>
</trkpt>
<trkpt lat="40.0728019" lon="-105.2306524">
  <ele>1589.46</ele>
  <time>2026-08-28T19:10:57Z</time>
  <course>28.54</course>
  <speed>0.40360872141221127</speed>
  <fix>3d</fix>
</trkpt>
<trkpt lat="40.0728015" lon="-105.230653">
  <ele>1589.55</ele>
  <time>2026-08-28T19:10:57Z</time>
  <course>28.83</course>
  <speed>0.40360872141221127</speed>
  <fix>3d</fix>
</trkpt>
<trkpt lat="40.0728019" lon="-105.2306525">
  <ele>1589.32</ele>
  <time>2026-08-28T19:10:57Z</time>
  <course>230.67</course>
  <speed>0.39</speed>
  <fix>3d</fix>
</trkpt>
<trkpt lat="40.0728014" lon="-105.2306531">
  <ele>1589.58</ele>
  <time>2026-08-28T19:10:57Z</time>
  <course>28.92</course>
  <speed>0.40360872141221127</speed>
  <fix>3d</fix>
</trkpt>
<trkpt lat="40.0728011" lon="-105.2306537">
  <ele>1589.68</ele>
  <time>2026-08-28T19:10:57Z</time>
  <course>29.11</course>
  <speed>0.40360872141221127</speed>
  <fix>3d</fix>
</trkpt>
<trkpt lat="40.0728015" lon="-105.2306533">
  <ele>1589.45</ele>
  <time>2026-08-28T19:10:57Z</time>
  <course>230.34</course>
  <speed>0.4</speed>
  <fix>3d</fix>
</trkpt>
<trkpt lat="40.0728011" lon="-105.2306537">
  <ele>1589.68</ele>
  <time>2026-08-28T19:10:57Z</time>
  <course>29.12</course>
  <speed>0.40360872141221127</speed>
  <fix>3d</fix>
</trkpt>
<trkpt lat="40.0728006" lon="-105.2306544">
  <ele>1589.8</ele>
  <time>2026-08-28T19:10:57Z</time>
  <course>29.31</course>
  <speed>0.40360872141221127</speed>
  <fix>3d</fix>
</trkpt>
<trkpt lat="40.072801" lon="-105.230654">
  <ele>1589.57</ele>
  <time>2026-08-28T19:10:57Z</time>
  <course>229.99</course>
  <speed>0.4</speed>
  <fix>3d</fix>
</trkpt>
<trkpt lat="40.0728006" lon="-105.2306545">
  <ele>1589.82</ele>
  <time>2026-08-28T19:10:57Z</time>
  <course>29.35</course>
  <speed>0.40360872141221127</speed>
  <fix>3d</fix>
</trkpt>
<trkpt lat="40.0728002" lon="-105.2306551">
  <ele>1589.92</ele>
  <time>2026-08-28T19:10:57Z</time>
  <course>29.5</course>
  <speed>0.40360872141221127</speed>
  <fix>3d</fix>
</trkpt>
<trkpt lat="40.0728005" lon="-105.2306548">
  <ele>1589.7</ele>
  <time>2026-08-28T19:10:57Z</time>
  <course>229.7</course>
  <speed>0.41</speed>
  <fix>3d</fix>
</trkpt>
<trkpt lat="40.0728001" lon="-105.2306552">
  <ele>1589.95</ele>
  <time>2026-08-28T19:10:57Z</time>
  <course>29.54</course>
  <speed>0.40360872141221127</speed>
  <fix>3d</fix>
</trkpt>
<trkpt lat="40.0727997" lon="-105.2306558">
  <ele>1590.05</ele>
  <time>2026-08-28T19:10:57Z</time>
  <course>29.69</course>
  <speed>0.40360872141221127</speed>
  <fix>3d</fix>
</trkpt>
<trkpt lat="40.0728" lon="-105.2306555">
  <ele>1589.82</ele>
  <time>2026-08-28T19:10:57Z</time>
  <course>229.41</course>
  <speed>0.42</speed>
  <fix>3d</fix>
</trkpt>
<trkpt lat="40.0727996" lon="-105.230656">
  <ele>1590.07</ele>
  <time>2026-08-28T19:10:57Z</time>
  <course>29.72</course>
  <speed>0.41036569057366384</speed>
  <fix>3d</fix>
</trkpt>
<trkpt lat="40.0727992" lon="-105.2306566">
  <ele>1590.17</ele>
  <time>2026-08-28T19:10:57Z</time>
  <course>29.89</course>
  <speed>0.41036569057366384</speed>
  <fix>3d</fix>
</trkpt>
<trkpt lat="40.0727995" lon="-105.2306562">
  <ele>1589.95</ele>
  <time>2026-08-28T19:10:57Z</time>
  <course>229.14</course>
  <speed>0.42</speed>
  <fix>3d</fix>
</trkpt>
<trkpt lat="40.0727991" lon="-105.2306567">
  <ele>1590.19</ele>
  <time>2026-08-28T19:10:57Z</time>
  <course>29.92</course>
  <speed>0.41036569057366384</speed>
  <fix>3d</fix>
</trkpt>
<trkpt lat="40.0727987" lon="-105.2306573">
  <ele>1590.29</ele>
  <time>2026-08-28T19:10:57Z</time>
  <course>30.08</course>
  <speed>0.41773197148410846</speed>
  <fix>3d</fix>
</trkpt>
<trkpt lat="40.072799" lon="-105.230657">
  <ele>1590.08</ele>
  <time>2026-08-28T19:10:57Z</time>
  <course>228.95</course>
  <speed>0.43</speed>
  <fix>3d</fix>
</trkpt>
<trkpt lat="40.0727986" lon="-105.2306575">
  <ele>1590.31</ele>
  <time>2026-08-28T19:10:57Z</time>
  <course>30.11</course>
  <speed>0.41773197148410846</speed>
  <fix>3d</fix>
</trkpt>
<trkpt lat="40.0727982" lon="-105.2306581">
  <ele>1590.42</ele>
  <time>2026-08-28T19:10:57Z</time>
  <course>30.24</course>
  <speed>0.41773197148410846</speed>
  <fix>3d</fix>
</trkpt>
<trkpt lat="40.0727985" lon="-105.2306577">
  <ele>1590.2</ele>
  <time>2026-08-28T19:10:57Z</time>
  <course>228.75</course>
  <speed>0.43</speed>
  <fix>3d</fix>
</trkpt>
<trkpt lat="40.0727982" lon="-105.2306581">
  <ele>1590.42</ele>
  <time>2026-08-28T19:10:57Z</time>
  <course>30.24</course>
  <speed>0.41773197148410846</speed>
  <fix>3d</fix>
</trkpt>
<trkpt lat="40.0727977" lon="-105.2306589">
  <ele>1590.54</ele>
  <time>2026-08-28T19:10:57Z</time>
  <course>30.45</course>
  <speed>0.42449970553582245</speed>
  <fix>3d</fix>
</trkpt>
<trkpt lat="40.072798" lon="-105.2306586">
  <ele>1590.33</ele>
  <time>2026-08-28T19:10:57Z</time>
  <course>228.61</course>
  <speed>0.43</speed>
  <fix>3d</fix>
</trkpt>
<trkpt lat="40.0727976" lon="-105.230659">
  <ele>1590.57</ele>
  <time>2026-08-28T19:10:57Z</time>
  <course>30.48</course>
  <speed>0.42449970553582245</speed>
  <fix>3d</fix>
</trkpt>
<trkpt lat="40.0727972" lon="-105.2306596">
  <ele>1590.67</ele>
  <time>2026-08-28T19:10:57Z</time>
  <course>30.61</course>
  <speed>0.42449970553582245</speed>
  <fix>3d</fix>
</trkpt>
<trkpt lat="40.0727975" lon="-105.2306593">
  <ele>1590.46</ele>
  <time>2026-08-28T19:10:57Z</time>
  <course>228.53</course>
  <speed>0.44</speed>
  <fix>3d</fix>
</trkpt>
<trkpt lat="40.0727971" lon="-105.2306598">
  <ele>1590.69</ele>
  <time>2026-08-28T19:10:57Z</time>
  <course>30.64</course>
  <speed>0.42449970553582245</speed>
  <fix>3d</fix>
</trkpt>
<trkpt lat="40.0727966" lon="-105.2306604">
  <ele>1590.79</ele>
  <time>2026-08-28T19:10:57Z</time>
  <course>30.76</course>
  <speed>0.42449970553582245</speed>
  <fix>3d</fix>
</trkpt>
<trkpt lat="40.0727969" lon="-105.2306601">
  <ele>1590.59</ele>
  <time>2026-08-28T19:10:57Z</time>
  <course>228.43</course>
  <speed>0.44</speed>
  <fix>3d</fix>
</trkpt>
<trkpt lat="40.0727966" lon="-105.2306605">
  <ele>1590.81</ele>
  <time>2026-08-28T19:10:57Z</time>
  <course>30.77</course>
  <speed>0.42449970553582245</speed>
  <fix>3d</fix>
</trkpt>
<trkpt lat="40.0727961" lon="-105.2306612">
  <ele>1590.92</ele>
  <time>2026-08-28T19:10:57Z</time>
  <course>30.9</course>
  <speed>0.43185645763378366</speed>
  <fix>3d</fix>
</trkpt>
<trkpt lat="40.0727964" lon="-105.2306609">
  <ele>1590.72</ele>
  <time>2026-08-28T19:10:57Z</time>
  <course>228.41</course>
  <speed>0.44</speed>
  <fix>3d</fix>
</trkpt>
<trkpt lat="40.0727961" lon="-105.2306612">
  <ele>1590.92</ele>
  <time>2026-08-28T19:10:57Z</time>
  <course>30.9</course>
  <speed>0.43185645763378366</speed>
  <fix>3d</fix>
</trkpt>
<trkpt lat="40.0727956" lon="-105.230662">
  <ele>1591.04</ele>
  <time>2026-08-28T19:10:57Z</time>
  <course>31.06</course>
  <speed>0.43185645763378366</speed>
  <fix>3d</fix>
</trkpt>
<trkpt lat="40.0727959" lon="-105.2306616">
  <ele>1590.85</ele>
  <time>2026-08-28T19:10:57Z</time>
  <course>228.47</course>
  <speed>0.44</speed>
  <fix>3d</fix>
</trkpt>
<trkpt lat="40.0727955" lon="-105.2306621">
  <ele>1591.06</ele>
  <time>2026-08-28T19:10:57Z</time>
  <course>31.09</course>
  <speed>0.43185645763378366</speed>
  <fix>3d</fix>
</trkpt>
<trkpt lat="40.072795" lon="-105.2306628">
  <ele>1591.17</ele>
  <time>2026-08-28T19:10:57Z</time>
  <course>31.21</course>
  <speed>0.4386342439892262</speed>
  <fix>3d</fix>
</trkpt>
<trkpt lat="40.0727954" lon="-105.2306624">
  <ele>1590.98</ele>
  <time>2026-08-28T19:10:57Z</time>
  <course>228.53</course>
  <speed>0.45</speed>
  <fix>3d</fix>
</trkpt>
<trkpt lat="40.072795" lon="-105.2306628">
  <ele>1591.17</ele>
  <time>2026-08-28T19:10:57Z</time>
  <course>31.21</course>
  <speed>0.4386342439892262</speed>
  <fix>3d</fix>
</trkpt>
<trkpt lat="40.0727945" lon="-105.2306636">
  <ele>1591.3</ele>
  <time>2026-08-28T19:10:57Z</time>
  <course>31.37</course>
  <speed>0.4386342439892262</speed>
  <fix>3d</fix>
</trkpt>
<trkpt lat="40.0727948" lon="-105.2306633">
  <ele>1591.11</ele>
  <time>2026-08-28T19:10:57Z</time>
  <course>228.62</course>
  <speed>0.45</speed>
  <fix>3d</fix>
</trkpt>
<trkpt lat="40.0727944" lon="-105.2306637">
  <ele>1591.31</ele>
  <time>2026-08-28T19:10:57Z</time>
  <course>31.4</course>
  <speed>0.4386342439892262</speed>
  <fix>3d</fix>
</trkpt>
<trkpt lat="40.072794" lon="-105.2306644">
  <ele>1591.43</ele>
  <time>2026-08-28T19:10:57Z</time>
  <course>31.56</course>
  <speed>0.4386342439892262</speed>
  <fix>3d</fix>
</trkpt>
<trkpt lat="40.0727943" lon="-105.230664">
  <ele>1591.24</ele>
  <time>2026-08-28T19:10:57Z</time>
  <course>228.73</course>
  <speed>0.45</speed>
  <fix>3d</fix>
</trkpt>
<trkpt lat="40.0727939" lon="-105.2306645">
  <ele>1591.44</ele>
  <time>2026-08-28T19:10:57Z</time>
  <course>31.58</course>
  <speed>0.4386342439892262</speed>
  <fix>3d</fix>
</trkpt>
<trkpt lat="40.0727934" lon="-105.2306652">
  <ele>1591.56</ele>
  <time>2026-08-28T19:10:57Z</time>
  <course>31.67</course>
  <speed>0.4386342439892262</speed>
  <fix>3d</fix>
</trkpt>
<trkpt lat="40.0727938" lon="-105.2306648">
  <ele>1591.37</ele>
  <time>2026-08-28T19:10:57Z</time>
  <course>228.82</course>
  <speed>0.45</speed>
  <fix>3d</fix>
</trkpt>
<trkpt lat="40.0727934" lon="-105.2306652">
  <ele>1591.56</ele>
  <time>2026-08-28T19:10:57Z</time>
  <course>31.67</course>
  <speed>0.4386342439892262</speed>
  <fix>3d</fix>
</trkpt>
<trkpt lat="40.0727929" lon="-105.230666">
  <ele>1591.69</ele>
  <time>2026-08-28T19:10:57Z</time>
  <course>31.81</course>
  <speed>0.4386342439892262</speed>
  <fix>3d</fix>
</trkpt>
<trkpt lat="40.0727932" lon="-105.2306657">
  <ele>1591.5</ele>
  <time>2026-08-28T19:10:57Z</time>
  <course>228.97</course>
  <speed>0.45</speed>
  <fix>3d</fix>
</trkpt>
<trkpt lat="40.0727928" lon="-105.2306661">
  <ele>1591.71</ele>
  <time>2026-08-28T19:10:57Z</time>
  <course>31.83</course>
  <speed>0.4386342439892262</speed>
  <fix>3d</fix>
</trkpt>
<trkpt lat="40.0727924" lon="-105.2306668">
  <ele>1591.82</ele>
  <time>2026-08-28T19:10:57Z</time>
  <course>31.96</course>
  <speed>0.4386342439892262</speed>
  <fix>3d</fix>
</trkpt>
<trkpt lat="40.0727927" lon="-105.2306664">
  <ele>1591.63</ele>
  <time>2026-08-28T19:10:57Z</time>
  <course>229.17</course>
  <speed>0.45</speed>
  <fix>3d</fix>
</trkpt>
<trkpt lat="40.0727923" lon="-105.2306669">
  <ele>1591.83</ele>
  <time>2026-08-28T19:10:57Z</time>
  <course>31.97</course>
  <speed>0.4386342439892262</speed>
  <fix>3d</fix>
</trkpt>
<trkpt lat="40.0727918" lon="-105.2306676">
  <ele>1591.95</ele>
  <time>2026-08-28T19:10:57Z</time>
  <course>32.09</course>
  <speed>0.4386342439892262</speed>
  <fix>3d</fix>
</trkpt>
<trkpt lat="40.0727921" lon="-105.2306672">
  <ele>1591.76</ele>
  <time>2026-08-28T19:10:57Z</time>
  <course>229.36</course>
  <speed>0.45</speed>
  <fix>3d</fix>
</trkpt>
<trkpt lat="40.0727918" lon="-105.2306676">
  <ele>1591.95</ele>
  <time>2026-08-28T19:10:57Z</time>
  <course>32.09</course>
  <speed>0.4386342439892262</speed>
  <fix>3d</fix>
</trkpt>
<trkpt lat="40.0727913" lon="-105.2306684">
  <ele>1592.08</ele>
  <time>2026-08-28T19:10:57Z</time>
  <course>32.21</course>
  <speed>0.43185645763378366</speed>
  <fix>3d</fix>
</trkpt>
<trkpt lat="40.0727916" lon="-105.2306681">
  <ele>1591.88</ele>
  <time>2026-08-28T19:10:57Z</time>
  <course>229.54</course>
  <speed>0.45</speed>
  <fix>3d</fix>
</trkpt>
<trkpt lat="40.0727912" lon="-105.2306685">
  <ele>1592.09</ele>
  <time>2026-08-28T19:10:57Z</time>
  <course>32.22</course>
  <speed>0.43185645763378366</speed>
  <fix>3d</fix>
</trkpt>
<trkpt lat="40.0727908" lon="-105.2306692">
  <ele>1592.2</ele>
  <time>2026-08-28T19:10:57Z</time>
  <course>32.32</course>
  <speed>0.43185645763378366</speed>
  <fix>3d</fix>
</trkpt>
<trkpt lat="40.0727911" lon="-105.2306688">
  <ele>1592.01</ele>
  <time>2026-08-28T19:10:57Z</time>
  <course>229.72</course>
  <speed>0.44</speed>
  <fix>3d</fix>
</trkpt>
<trkpt lat="40.0727908" lon="-105.2306692">
  <ele>1592.21</ele>
  <time>2026-08-28T19:10:57Z</time>
  <course>32.32</course>
  <speed>0.43185645763378366</speed>
  <fix>3d</fix>
</trkpt>
<trkpt lat="40.0727903" lon="-105.23067">
  <ele>1592.33</ele>
  <time>2026-08-28T19:10:57Z</time>
  <course>32.43</course>
  <speed>0.43185645763378366</speed>
  <fix>3d</fix>
</trkpt>
<trkpt lat="40.0727906" lon="-105.2306696">
  <ele>1592.13</ele>
  <time>2026-08-28T19:10:57Z</time>
  <course>229.9</course>
  <speed>0.44</speed>
  <fix>3d</fix>
</trkpt>
<trkpt lat="40.0727902" lon="-105.2306701">
  <ele>1592.34</ele>
  <time>2026-08-28T19:10:57Z</time>
  <course>32.44</course>
  <speed>0.43185645763378366</speed>
  <fix>3d</fix>
</trkpt>
<trkpt lat="40.0727897" lon="-105.2306708">
  <ele>1592.45</ele>
  <time>2026-08-28T19:10:57Z</time>
  <course>32.53</course>
  <speed>0.43185645763378366</speed>
  <fix>3d</fix>
</trkpt>
<trkpt lat="40.0727901" lon="-105.2306705">
  <ele>1592.26</ele>
  <time>2026-08-28T19:10:57Z</time>
  <course>230.08</course>
  <speed>0.44</speed>
  <fix>3d</fix>
</trkpt>
<trkpt lat="40.0727897" lon="-105.2306708">
  <ele>1592.45</ele>
  <time>2026-08-28T19:10:57Z</time>
  <course>32.53</course>
  <speed>0.43185645763378366</speed>
  <fix>3d</fix>
</trkpt>
<trkpt lat="40.0727892" lon="-105.2306716">
  <ele>1592.57</ele>
  <time>2026-08-28T19:10:57Z</time>
  <course>32.63</course>
  <speed>0.43185645763378366</speed>
  <fix>3d</fix>
</trkpt>
<trkpt lat="40.0727896" lon="-105.2306713">
  <ele>1592.38</ele>
  <time>2026-08-28T19:10:57Z</time>
  <course>230.27</course>
  <speed>0.44</speed>
  <fix>3d</fix>
</trkpt>
<trkpt lat="40.0727892" lon="-105.2306717">
  <ele>1592.59</ele>
  <time>2026-08-28T19:10:57Z</time>
  <course>32.64</course>
  <speed>0.43185645763378366</speed>
  <fix>3d</fix>
</trkpt>
<trkpt lat="40.0727887" lon="-105.2306724">
  <ele>1592.69</ele>
  <time>2026-08-28T19:10:57Z</time>
  <course>32.69</course>
  <speed>0.43185645763378366</speed>
  <fix>3d</fix>
</trkpt>
<trkpt lat="40.072789" lon="-105.230672">
  <ele>1592.51</ele>
  <time>2026-08-28T19:10:57Z</time>
  <course>230.52</course>
  <speed>0.44</speed>
  <fix>3d</fix>
</trkpt>
<trkpt lat="40.0727887" lon="-105.2306725">
  <ele>1592.71</ele>
  <time>2026-08-28T19:10:57Z</time>
  <course>32.71</course>
  <speed>0.43185645763378366</speed>
  <fix>3d</fix>
</trkpt>
<trkpt lat="40.0727882" lon="-105.2306732">
  <ele>1592.82</ele>
  <time>2026-08-28T19:10:57Z</time>
  <course>32.81</course>
  <speed>0.43185645763378366</speed>
  <fix>3d</fix>
</trkpt>
<trkpt lat="40.0727885" lon="-105.2306729">
  <ele>1592.63</ele>
  <time>2026-08-28T19:10:57Z</time>
  <course>230.81</course>
  <speed>0.44</speed>
  <fix>3d</fix>
</trkpt>
<trkpt lat="40.0727882" lon="-105.2306732">
  <ele>1592.83</ele>
  <time>2026-08-28T19:10:57Z</time>
  <course>32.82</course>
  <speed>0.43185645763378366</speed>
  <fix>3d</fix>
</trkpt>
<trkpt lat="40.0727877" lon="-105.230674">
  <ele>1592.95</ele>
  <time>2026-08-28T19:10:57Z</time>
  <course>32.91</course>
  <speed>0.425205832509386</speed>
  <fix>3d</fix>
</trkpt>
<trkpt lat="40.072788" lon="-105.2306737">
  <ele>1592.76</ele>
  <time>2026-08-28T19:10:57Z</time>
  <course>231.11</course>
  <speed>0.43</speed>
  <fix>3d</fix>
</trkpt>
<trkpt lat="40.0727876" lon="-105.2306741">
  <ele>1592.97</ele>
  <time>2026-08-28T19:10:57Z</time>
  <course>32.93</course>
  <speed>0.425205832509386</speed>
  <fix>3d</fix>
</trkpt>
<trkpt lat="40.0727872" lon="-105.2306748">
  <ele>1593.08</ele>
  <time>2026-08-28T19:10:57Z</time>
  <course>33.02</course>
  <speed>0.425205832509386</speed>
  <fix>3d</fix>
</trkpt>
<trkpt lat="40.0727876" lon="-105.2306744">
  <ele>1592.88</ele>
  <time>2026-08-28T19:10:57Z</time>
  <course>231.39</course>
  <speed>0.43</speed>
  <fix>3d</fix>
</trkpt>
<trkpt lat="40.0727871" lon="-105.2306749">
  <ele>1593.09</ele>
  <time>2026-08-28T19:10:57Z</time>
  <course>33.03</course>
  <speed>0.425205832509386</speed>
  <fix>3d</fix>
</trkpt>
<trkpt lat="40.0727867" lon="-105.2306756">
  <ele>1593.21</ele>
  <time>2026-08-28T19:10:57Z</time>
  <course>33.1</course>
  <speed>0.425205832509386</speed>
  <fix>3d</fix>
</trkpt>
<trkpt lat="40.0727871" lon="-105.2306753">
  <ele>1593.01</ele>
  <time>2026-08-28T19:10:57Z</time>
  <course>231.63</course>
  <speed>0.43</speed>
  <fix>3d</fix>
</trkpt>
<trkpt lat="40.0727866" lon="-105.2306757">
  <ele>1593.23</ele>
  <time>2026-08-28T19:10:57Z</time>
  <course>33.12</course>
  <speed>0.425205832509386</speed>
  <fix>3d</fix>
</trkpt>
<trkpt lat="40.0727862" lon="-105.2306764">
  <ele>1593.33</ele>
  <time>2026-08-28T19:10:57Z</time>
  <course>33.2</course>
  <speed>0.425205832509386</speed>
  <fix>3d</fix>
</trkpt>
<trkpt lat="40.0727866" lon="-105.2306761">
  <ele>1593.13</ele>
  <time>2026-08-28T19:10:57Z</time>
  <course>231.89</course>
  <speed>0.43</speed>
  <fix>3d</fix>
</trkpt>
<trkpt lat="40.0727862" lon="-105.2306765">
  <ele>1593.35</ele>
  <time>2026-08-28T19:10:57Z</time>
  <course>33.21</course>
  <speed>0.425205832509386</speed>
  <fix>3d</fix>
</trkpt>
<trkpt lat="40.0727858" lon="-105.2306772">
  <ele>1593.45</ele>
  <time>2026-08-28T19:10:57Z</time>
  <course>33.29</course>
  <speed>0.425205832509386</speed>
  <fix>3d</fix>
</trkpt>
<trkpt lat="40.0727861" lon="-105.2306768">
  <ele>1593.26</ele>
  <time>2026-08-28T19:10:57Z</time>
  <course>232.15</course>
  <speed>0.42</speed>
  <fix>3d</fix>
</trkpt>
<trkpt lat="40.0727857" lon="-105.2306773">
  <ele>1593.47</ele>
  <time>2026-08-28T19:10:57Z</time>
  <course>33.3</course>
  <speed>0.4186884283091664</speed>
  <fix>3d</fix>
</trkpt>
<trkpt lat="40.0727853" lon="-105.230678">
  <ele>1593.58</ele>
  <time>2026-08-28T19:10:57Z</time>
  <course>33.37</course>
  <speed>0.4186884283091664</speed>
  <fix>3d</fix>
</trkpt>
<trkpt lat="40.0727857" lon="-105.2306777">
  <ele>1593.38</ele>
  <time>2026-08-28T19:10:57Z</time>
  <course>232.42</course>
  <speed>0.42</speed>
  <fix>3d</fix>
</trkpt>
<trkpt lat="40.0727853" lon="-105.230678">
  <ele>1593.58</ele>
  <time>2026-08-28T19:10:57Z</time>
  <course>33.37</course>
  <speed>0.4186884283091664</speed>
  <fix>3d</fix>
</trkpt>
<trkpt lat="40.0727848" lon="-105.2306788">
  <ele>1593.7</ele>
  <time>2026-08-28T19:10:57Z</time>
  <course>33.46</course>
  <speed>0.4186884283091664</speed>
  <fix>3d</fix>
</trkpt>
<trkpt lat="40.0727852" lon="-105.2306785">
  <ele>1593.51</ele>
  <time>2026-08-28T19:10:57Z</time>
  <course>232.77</course>
  <speed>0.42</speed>
  <fix>3d</fix>
</trkpt>
<trkpt lat="40.0727848" lon="-105.2306789">
  <ele>1593.73</ele>
  <time>2026-08-28T19:10:57Z</time>
  <course>33.46</course>
  <speed>0.4186884283091664</speed>
  <fix>3d</fix>
</trkpt>
<trkpt lat="40.0727844" lon="-105.2306796">
  <ele>1593.83</ele>
  <time>2026-08-28T19:10:57Z</time>
  <course>33.54</course>
  <speed>0.4186884283091664</speed>
  <fix>3d</fix>
</trkpt>
<trkpt lat="40.0727847" lon="-105.2306792">
  <ele>1593.63</ele>
  <time>2026-08-28T19:10:57Z</time>
  <course>233.16</course>
  <speed>0.41</speed>
  <fix>3d</fix>
</trkpt>
<trkpt lat="40.0727843" lon="-105.2306797">
  <ele>1593.85</ele>
  <time>2026-08-28T19:10:57Z</time>
  <course>33.55</course>
  <speed>0.4186884283091664</speed>
  <fix>3d</fix>
</trkpt>
<trkpt lat="40.0727839" lon="-105.2306803">
  <ele>1593.95</ele>
  <time>2026-08-28T19:10:57Z</time>
  <course>33.62</course>
  <speed>0.41231056256176607</speed>
  <fix>3d</fix>
</trkpt>
<trkpt lat="40.0727842" lon="-105.2306801">
  <ele>1593.76</ele>
  <time>2026-08-28T19:10:57Z</time>
  <course>233.52</course>
  <speed>0.41</speed>
  <fix>3d</fix>
</trkpt>
<trkpt lat="40.0727838" lon="-105.2306805">
  <ele>1593.97</ele>
  <time>2026-08-28T19:10:57Z</time>
  <course>33.64</course>
  <speed>0.41231056256176607</speed>
  <fix>3d</fix>
</trkpt>
<trkpt lat="40.0727835" lon="-105.2306811">
  <ele>1594.08</ele>
  <time>2026-08-28T19:10:57Z</time>
  <course>33.67</course>
  <speed>0.4045985664828782</speed>
  <fix>3d</fix>
</trkpt>
<trkpt lat="40.0727839" lon="-105.2306809">
  <ele>1593.88</ele>
  <time>2026-08-28T19:10:57Z</time>
  <course>233.9</course>
  <speed>0.41</speed>
  <fix>3d</fix>
</trkpt>
<trkpt lat="40.0727834" lon="-105.2306813">
  <ele>1594.11</ele>
  <time>2026-08-28T19:10:57Z</time>
  <course>33.7</course>
  <speed>0.4045985664828782</speed>
  <fix>3d</fix>
</trkpt>
<trkpt lat="40.072783" lon="-105.2306819">
  <ele>1594.2</ele>
  <time>2026-08-28T19:10:57Z</time>
  <course>33.75</course>
  <speed>0.4045985664828782</speed>
  <fix>3d</fix>
</trkpt>
<trkpt lat="40.0727834" lon="-105.2306816">
  <ele>1594.01</ele>
  <time>2026-08-28T19:10:57Z</time>
  <course>234.26</course>
  <speed>0.41</speed>
  <fix>3d</fix>
</trkpt>
<trkpt lat="40.072783" lon="-105.230682">
  <ele>1594.21</ele>
  <time>2026-08-28T19:10:57Z</time>
  <course>33.76</course>
  <speed>0.4045985664828782</speed>
  <fix>3d</fix>
</trkpt>
<trkpt lat="40.0727826" lon="-105.2306827">
  <ele>1594.33</ele>
  <time>2026-08-28T19:10:57Z</time>
  <course>33.83</course>
  <speed>0.39824615503479754</speed>
  <fix>3d</fix>
</trkpt>
<trkpt lat="40.072783" lon="-105.2306824">
  <ele>1594.13</ele>
  <time>2026-08-28T19:10:57Z</time>
  <course>234.65</course>
  <speed>0.4</speed>
  <fix>3d</fix>
</trkpt>
<trkpt lat="40.0727826" lon="-105.2306828">
  <ele>1594.34</ele>
  <time>2026-08-28T19:10:57Z</time>
  <course>33.84</course>
  <speed>0.39824615503479754</speed>
  <fix>3d</fix>
</trkpt>
<trkpt lat="40.0727822" lon="-105.2306835">
  <ele>1594.45</ele>
  <time>2026-08-28T19:10:57Z</time>
  <course>33.92</course>
  <speed>0.39824615503479754</speed>
  <fix>3d</fix>
</trkpt>
<trkpt lat="40.0727825" lon="-105.2306831">
  <ele>1594.26</ele>
  <time>2026-08-28T19:10:57Z</time>
  <course>235.09</course>
  <speed>0.4</speed>
  <fix>3d</fix>
</trkpt>
<trkpt lat="40.0727822" lon="-105.2306835">
  <ele>1594.46</ele>
  <time>2026-08-28T19:10:57Z</time>
  <course>33.92</course>
  <speed>0.39824615503479754</speed>
  <fix>3d</fix>
</trkpt>
<trkpt lat="40.0727818" lon="-105.2306843">
  <ele>1594.57</ele>
  <time>2026-08-28T19:10:57Z</time>
  <course>33.98</course>
  <speed>0.3920459156782532</speed>
  <fix>3d</fix>
</trkpt>
<trkpt lat="40.0727822" lon="-105.230684">
  <ele>1594.38</ele>
  <time>2026-08-28T19:10:57Z</time>
  <course>235.49</course>
  <speed>0.4</speed>
  <fix>3d</fix>
</trkpt>
<trkpt lat="40.0727817" lon="-105.2306844">
  <ele>1594.6</ele>
  <time>2026-08-28T19:10:57Z</time>
  <course>34.0</course>
  <speed>0.3920459156782532</speed>
  <fix>3d</fix>
</trkpt>
<trkpt lat="40.0727814" lon="-105.230685">
  <ele>1594.7</ele>
  <time>2026-08-28T19:10:57Z</time>
  <course>34.04</course>
  <speed>0.3920459156782532</speed>
  <fix>3d</fix>
</trkpt>
<trkpt lat="40.0727818" lon="-105.2306847">
  <ele>1594.51</ele>
  <time>2026-08-28T19:10:57Z</time>
  <course>235.86</course>
  <speed>0.39</speed>
  <fix>3d</fix>
</trkpt>
<trkpt lat="40.0727814" lon="-105.2306851">
  <ele>1594.71</ele>
  <time>2026-08-28T19:10:57Z</time>
  <course>34.04</course>
  <speed>0.3920459156782532</speed>
  <fix>3d</fix>
</trkpt>
<trkpt lat="40.072781" lon="-105.2306858">
  <ele>1594.83</ele>
  <time>2026-08-28T19:10:57Z</time>
  <course>34.11</course>
  <speed>0.3920459156782532</speed>
  <fix>3d</fix>
</trkpt>
<trkpt lat="40.0727813" lon="-105.2306854">
  <ele>1594.64</ele>
  <time>2026-08-28T19:10:57Z</time>
  <course>236.29</course>
  <speed>0.39</speed>
  <fix>3d</fix>
</trkpt>
<trkpt lat="40.0727809" lon="-105.230686">
  <ele>1594.85</ele>
  <time>2026-08-28T19:10:57Z</time>
  <course>34.14</course>
  <speed>0.38600518131237566</speed>
  <fix>3d</fix>
</trkpt>
<trkpt lat="40.0727806" lon="-105.2306865">
  <ele>1594.95</ele>
  <time>2026-08-28T19:10:57Z</time>
  <course>34.18</course>
  <speed>0.38600518131237566</speed>
  <fix>3d</fix>
</trkpt>
<trkpt lat="40.072781" lon="-105.2306863">
  <ele>1594.77</ele>
  <time>2026-08-28T19:10:57Z</time>
  <course>236.71</course>
  <speed>0.38</speed>
  <fix>3d</fix>
</trkpt>
<trkpt lat="40.0727806" lon="-105.2306866">
  <ele>1594.96</ele>
  <time>2026-08-28T19:10:57Z</time>
  <course>34.18</course>
  <speed>0.38600518131237566</speed>
  <fix>3d</fix>
</trkpt>
<trkpt lat="40.0727802" lon="-105.2306873">
  <ele>1595.08</ele>
  <time>2026-08-28T19:10:57Z</time>
  <course>34.26</course>
  <speed>0.378021163428716</speed>
  <fix>3d</fix>
</trkpt>
<trkpt lat="40.0727806" lon="-105.230687">
  <ele>1594.89</ele>
  <time>2026-08-28T19:10:57Z</time>
  <course>237.16</course>
  <speed>0.38</speed>
  <fix>3d</fix>
</trkpt>
<trkpt lat="40.0727802" lon="-105.2306875">
  <ele>1595.11</ele>
  <time>2026-08-28T19:10:57Z</time>
  <course>34.28</course>
  <speed>0.378021163428716</speed>
  <fix>3d</fix>
</trkpt>
<trkpt lat="40.0727799" lon="-105.2306881">
  <ele>1595.2</ele>
  <time>2026-08-28T19:10:57Z</time>
  <course>34.32</course>
  <speed>0.3720215047547655</speed>
  <fix>3d</fix>
</trkpt>
<trkpt lat="40.0727802" lon="-105.2306878">
  <ele>1595.02</ele>
  <time>2026-08-28T19:10:57Z</time>
  <course>237.64</course>
  <speed>0.38</speed>
  <fix>3d</fix>
</trkpt>
<trkpt lat="40.0727798" lon="-105.2306882">
  <ele>1595.23</ele>
  <time>2026-08-28T19:10:57Z</time>
  <course>34.34</course>
  <speed>0.3720215047547655</speed>
  <fix>3d</fix>
</trkpt>
<trkpt lat="40.0727795" lon="-105.2306888">
  <ele>1595.33</ele>
  <time>2026-08-28T19:10:57Z</time>
  <course>34.38</course>
  <speed>0.3720215047547655</speed>
  <fix>3d</fix>
</trkpt>
<trkpt lat="40.0727799" lon="-105.2306885">
  <ele>1595.15</ele>
  <time>2026-08-28T19:10:57Z</time>
  <course>238.04</course>
  <speed>0.37</speed>
  <fix>3d</fix>
</trkpt>
<trkpt lat="40.0727792" lon="-105.2306896">
  <ele>1595.45</ele>
  <time>2026-08-28T19:10:57Z</time>
  <course>34.7</course>
  <speed>0.3661966684720111</speed>
  <fix>3d</fix>
</trkpt>
<trkpt lat="40.0727795" lon="-105.2306893">
  <ele>1595.28</ele>
  <time>2026-08-28T19:10:57Z</time>
  <course>238.57</course>
  <speed>0.37</speed>
  <fix>3d</fix>
</trkpt>
<trkpt lat="40.0727788" lon="-105.2306903">
  <ele>1595.55</ele>
  <time>2026-08-28T19:10:57Z</time>
  <course>35.34</course>
  <speed>0.3661966684720111</speed>
  <fix>3d</fix>
</trkpt>
<trkpt lat="40.0727792" lon="-105.2306901">
  <ele>1595.39</ele>
  <time>2026-08-28T19:10:57Z</time>
  <course>239.21</course>
  <speed>0.37</speed>
  <fix>3d</fix>
</trkpt>
<trkpt lat="40.0727785" lon="-105.2306911">
  <ele>1595.62</ele>
  <time>2026-08-28T19:10:57Z</time>
  <course>35.65</course>
  <speed>0.3522782990761707</speed>
  <fix>3d</fix>
</trkpt>
<trkpt lat="40.0727788" lon="-105.2306908">
  <ele>1595.48</ele>
  <time>2026-08-28T19:10:57Z</time>
  <course>239.52</course>
  <speed>0.36</speed>
  <fix>3d</fix>
</trkpt>
<trkpt lat="40.0727782" lon="-105.2306918">
  <ele>1595.66</ele>
  <time>2026-08-28T19:10:57Z</time>
  <course>35.15</course>
  <speed>0.3522782990761707</speed>
  <fix>3d</fix>
</trkpt>
<trkpt lat="40.0727785" lon="-105.2306915">
  <ele>1595.54</ele>
  <time>2026-08-28T19:10:57Z</time>
  <course>239.3</course>
  <speed>0.35</speed>
  <fix>3d</fix>
</trkpt>
<trkpt lat="40.0727778" lon="-105.2306925">
  <ele>1595.69</ele>
  <time>2026-08-28T19:10:57Z</time>
  <course>34.7</course>
  <speed>0.34409301068170506</speed>
  <fix>3d</fix>
</trkpt>
<trkpt lat="40.0727781" lon="-105.2306922">
  <ele>1595.57</ele>
  <time>2026-08-28T19:10:57Z</time>
  <course>239.01</course>
  <speed>0.35</speed>
  <fix>3d</fix>
</trkpt>
<trkpt lat="40.0727775" lon="-105.2306932">
  <ele>1595.71</ele>
  <time>2026-08-28T19:10:57Z</time>
  <course>34.5</course>
  <speed>0.33600595232822883</speed>
  <fix>3d</fix>
</trkpt>
<trkpt lat="40.0727778" lon="-105.2306929">
  <ele>1595.6</ele>
  <time>2026-08-28T19:10:57Z</time>
  <course>238.81</course>
  <speed>0.34</speed>
  <fix>3d</fix>
</trkpt>
<trkpt lat="40.0727772" lon="-105.2306939">
  <ele>1595.72</ele>
  <time>2026-08-28T19:10:57Z</time>
  <course>34.46</course>
  <speed>0.3280243893371345</speed>
  <fix>3d</fix>
</trkpt>
<trkpt lat="40.0727775" lon="-105.2306936">
  <ele>1595.61</ele>
  <time>2026-08-28T19:10:57Z</time>
  <course>238.5</course>
  <speed>0.33</speed>
  <fix>3d</fix>
</trkpt>
<trkpt lat="40.0727769" lon="-105.2306945">
  <ele>1595.73</ele>
  <time>2026-08-28T19:10:57Z</time>
  <course>34.45</course>
  <speed>0.32202484376209234</speed>
  <fix>3d</fix>
</trkpt>
<trkpt lat="40.0727772" lon="-105.2306943">
  <ele>1595.62</ele>
  <time>2026-08-28T19:10:57Z</time>
  <course>238.12</course>
  <speed>0.32</speed>
  <fix>3d</fix>
</trkpt>
<trkpt lat="40.0727766" lon="-105.2306951">
  <ele>1595.74</ele>
  <time>2026-08-28T19:10:57Z</time>
  <course>34.46</course>
  <speed>0.31400636936215165</speed>
  <fix>3d</fix>
</trkpt>
<trkpt lat="40.0727769" lon="-105.230695">
  <ele>1595.63</ele>
  <time>2026-08-28T19:10:57Z</time>
  <course>237.7</course>
  <speed>0.31</speed>
  <fix>3d</fix>
</trkpt>
<trkpt lat="40.0727763" lon="-105.2306957">
  <ele>1595.74</ele>
  <time>2026-08-28T19:10:57Z</time>
  <course>34.48</course>
  <speed>0.30610455730027936</speed>
  <fix>3d</fix>
</trkpt>
<trkpt lat="40.0727766" lon="-105.2306955">
  <ele>1595.64</ele>
  <time>2026-08-28T19:10:57Z</time>
  <course>237.31</course>
  <speed>0.3</speed>
  <fix>3d</fix>
</trkpt>
<trkpt lat="40.072776" lon="-105.2306963">
  <ele>1595.74</ele>
  <time>2026-08-28T19:10:57Z</time>
  <course>34.49</course>
  <speed>0.29832867780352595</speed>
  <fix>3d</fix>
</trkpt>
<trkpt lat="40.0727763" lon="-105.2306962">
  <ele>1595.64</ele>
  <time>2026-08-28T19:10:57Z</time>
  <course>236.86</course>
  <speed>0.3</speed>
  <fix>3d</fix>
</trkpt>
<trkpt lat="40.0727757" lon="-105.2306969">
  <ele>1595.74</ele>
  <time>2026-08-28T19:10:57Z</time>
  <course>34.51</course>
  <speed>0.2842534080710379</speed>
  <fix>3d</fix>
</trkpt>
<trkpt lat="40.072776" lon="-105.2306968">
  <ele>1595.64</ele>
  <time>2026-08-28T19:10:57Z</time>
  <course>236.44</course>
  <speed>0.29</speed>
  <fix>3d</fix>
</trkpt>
<trkpt lat="40.0727754" lon="-105.2306975">
  <ele>1595.74</ele>
  <time>2026-08-28T19:10:57Z</time>
  <course>34.53</course>
  <speed>0.2842534080710379</speed>
  <fix>3d</fix>
</trkpt>
<trkpt lat="40.0727757" lon="-105.2306973">
  <ele>1595.64</ele>
  <time>2026-08-28T19:10:57Z</time>
  <course>236.11</course>
  <speed>0.28</speed>
  <fix>3d</fix>
</trkpt>
<trkpt lat="40.0727751" lon="-105.230698">
  <ele>1595.74</ele>
  <time>2026-08-28T19:10:57Z</time>
  <course>34.55</course>
  <speed>0.2765863337187866</speed>
  <fix>3d</fix>
</trkpt>
<trkpt lat="40.0727754" lon="-105.2306979">
  <ele>1595.64</ele>
  <time>2026-08-28T19:10:57Z</time>
  <course>235.73</course>
  <speed>0.27</speed>
  <fix>3d</fix>
</trkpt>
<trkpt lat="40.0727748" lon="-105.2306985">
  <ele>1595.74</ele>
  <time>2026-08-28T19:10:57Z</time>
  <course>34.57</course>
  <speed>0.26248809496813374</speed>
  <fix>3d</fix>
</trkpt>
<trkpt lat="40.0727751" lon="-105.2306984">
  <ele>1595.64</ele>
  <time>2026-08-28T19:10:57Z</time>
  <course>235.4</course>
  <speed>0.26</speed>
  <fix>3d</fix>
</trkpt>
<trkpt lat="40.0727746" lon="-105.2306991">
  <ele>1595.74</ele>
  <time>2026-08-28T19:10:57Z</time>
  <course>34.58</course>
  <speed>0.26248809496813374</speed>
  <fix>3d</fix>
</trkpt>
<trkpt lat="40.0727749" lon="-105.2306989">
  <ele>1595.63</ele>
  <time>2026-08-28T19:10:57Z</time>
  <course>235.1</course>
  <speed>0.26</speed>
  <fix>3d</fix>
</trkpt>
<trkpt lat="40.0727743" lon="-105.2306995">
  <ele>1595.74</ele>
  <time>2026-08-28T19:10:57Z</time>
  <course>34.61</course>
  <speed>0.25495097567963926</speed>
  <fix>3d</fix>
</trkpt>
<trkpt lat="40.0727746" lon="-105.2306994">
  <ele>1595.63</ele>
  <time>2026-08-28T19:10:57Z</time>
  <course>234.79</course>
  <speed>0.25</speed>
  <fix>3d</fix>
</trkpt>
<trkpt lat="40.072774" lon="-105.2307">
  <ele>1595.74</ele>
  <time>2026-08-28T19:10:57Z</time>
  <course>34.63</course>
  <speed>0.25495097567963926</speed>
  <fix>3d</fix>
</trkpt>
<trkpt lat="40.0727744" lon="-105.2306998">
  <ele>1595.63</ele>
  <time>2026-08-28T19:10:57Z</time>
  <course>234.59</course>
  <speed>0.24</speed>
  <fix>3d</fix>
</trkpt>
<trkpt lat="40.0727738" lon="-105.2307005">
  <ele>1595.74</ele>
  <time>2026-08-28T19:10:57Z</time>
  <course>34.64</course>
  <speed>0.24083189157584592</speed>
  <fix>3d</fix>
</trkpt>
<trkpt lat="40.0727741" lon="-105.2307003">
  <ele>1595.63</ele>
  <time>2026-08-28T19:10:57Z</time>
  <course>234.41</course>
  <speed>0.24</speed>
  <fix>3d</fix>
</trkpt>
<trkpt lat="40.0727736" lon="-105.2307009">
  <ele>1595.74</ele>
  <time>2026-08-28T19:10:57Z</time>
  <course>34.65</course>
  <speed>0.23021728866442676</speed>
  <fix>3d</fix>
</trkpt>
<trkpt lat="40.0727739" lon="-105.2307008">
  <ele>1595.63</ele>
  <time>2026-08-28T19:10:57Z</time>
  <course>235.76</course>
  <speed>0.23</speed>
  <fix>3d</fix>
</trkpt>
<trkpt lat="40.0727734" lon="-105.2307015">
  <ele>1595.74</ele>
  <time>2026-08-28T19:10:57Z</time>
  <course>34.68</course>
  <speed>0.21840329667841554</speed>
  <fix>3d</fix>
</trkpt>
<trkpt lat="40.0727737" lon="-105.2307013">
  <ele>1595.63</ele>
  <time>2026-08-28T19:10:57Z</time>
  <course>247.23</course>
  <speed>0.23</speed>
  <fix>3d</fix>
</trkpt>
<trkpt lat="40.0727734" lon="-105.2307019">
  <ele>1595.73</ele>
  <time>2026-08-28T19:10:57Z</time>
  <course>34.8</course>
  <speed>0.17</speed>
  <fix>3d</fix>
</trkpt>
<trkpt lat="40.0727735" lon="-105.2307018">
  <ele>1595.63</ele>
  <time>2026-08-28T19:10:57Z</time>
  <course>256.78</course>
  <speed>0.21</speed>
  <fix>3d</fix>
</trkpt>
<trkpt lat="40.0727732" lon="-105.2307022">
  <ele>1595.73</ele>
  <time>2026-08-28T19:10:57Z</time>
  <course>34.65</course>
  <speed>0.12806248474865697</speed>
  <fix>3d</fix>
</trkpt>
<trkpt lat="40.0727734" lon="-105.2307022">
  <ele>1595.63</ele>
  <time>2026-08-28T19:10:57Z</time>
  <course>249.72</course>
  <speed>0.16</speed>
  <fix>3d</fix>
</trkpt>
<trkpt lat="40.0727732" lon="-105.2307025">
  <ele>1595.73</ele>
  <time>2026-08-28T19:10:57Z</time>
  <course>34.66</course>
  <speed>0.1004987562112089</speed>
  <fix>3d</fix>
</trkpt>
<trkpt lat="40.0727733" lon="-105.2307026">
  <ele>1595.63</ele>
  <time>2026-08-28T19:10:57Z</time>
  <course>253.61</course>
  <speed>0.12</speed>
  <fix>3d</fix>
</trkpt>
<trkpt lat="40.0727732" lon="-105.2307028">
  <ele>1595.73</ele>
  <time>2026-08-28T19:10:57Z</time>
  <course>34.77</course>
  <speed>0.06403124237432849</speed>
  <fix>3d</fix>
</trkpt>
<trkpt lat="40.0727733" lon="-105.2307028">
  <ele>1595.63</ele>
  <time>2026-08-28T19:10:57Z</time>
  <course>269.94</course>
  <speed>0.1</speed>
  <fix>3d</fix>
</trkpt>
<trkpt lat="40.0727731" lon="-105.2307029">
  <ele>1595.73</ele>
  <time>2026-08-28T19:10:57Z</time>
  <course>34.65</course>
  <speed>0.04242640687119285</speed>
  <fix>3d</fix>
</trkpt>
<trkpt lat="40.0727733" lon="-105.230703">
  <ele>1595.63</ele>
  <time>2026-08-28T19:10:57Z</time>
  <course>264.3</course>
  <speed>0.06</speed>
  <fix>3d</fix>
</trkpt>
<trkpt lat="40.0727732" lon="-105.230703">
  <ele>1595.73</ele>
  <time>2026-08-28T19:10:57Z</time>
  <course>34.66</course>
  <speed>0.05099019513592785</speed>
  <fix>3d</fix>
</trkpt>
<trkpt lat="40.0727733" lon="-105.2307031">
  <ele>1595.63</ele>
  <time>2026-08-28T19:10:57Z</time>
  <course>283.26</course>
  <speed>0.05</speed>
  <fix>3d</fix>
</trkpt>
<trkpt lat="40.0727732" lon="-105.2307031">
  <ele>1595.72</ele>
  <time>2026-08-28T19:10:57Z</time>
  <course>34.77</course>
  <speed>0.022360679774997897</speed>
  <fix>3d</fix>
</trkpt>
<trkpt lat="40.0727733" lon="-105.2307033">
  <ele>1595.64</ele>
  <time>2026-08-28T19:10:57Z</time>
  <course>302.31</course>
  <speed>0.06</speed>
  <fix>3d</fix>
</trkpt>
<trkpt lat="40.0727732" lon="-105.2307032">
  <ele>1595.72</ele>
  <time>2026-08-28T19:10:57Z</time>
  <course>34.67</course>
  <speed>0.02</speed>
  <fix>3d</fix>
</trkpt>
<trkpt lat="40.0727733" lon="-105.2307034">
  <ele>1595.64</ele>
  <time>2026-08-28T19:10:57Z</time>
  <course>301.2</course>
  <speed>0.03</speed>
  <fix>3d</fix>
</trkpt>
<trkpt lat="40.0727733" lon="-105.2307033">
  <ele>1595.72</ele>
  <time>2026-08-28T19:10:57Z</time>
  <course>34.76</course>
  <speed>0.022360679774997897</speed>
  <fix>3d</fix>
</trkpt>
<trkpt lat="40.0727733" lon="-105.2307035">
  <ele>1595.64</ele>
  <time>2026-08-28T19:10:57Z</time>
  <course>312.82</course>
  <speed>0.05</speed>
  <fix>3d</fix>
</trkpt>
<trkpt lat="40.0727733" lon="-105.2307034">
  <ele>1595.73</ele>
  <time>2026-08-28T19:10:57Z</time>
  <course>34.78</course>
  <speed>0.02</speed>
  <fix>3d</fix>
</trkpt>
<trkpt lat="40.0727734" lon="-105.2307036">
  <ele>1595.64</ele>
  <time>2026-08-28T19:10:57Z</time>
  <course>319.62</course>
  <speed>0.04</speed>
  <fix>3d</fix>
</trkpt>
<trkpt lat="40.0727733" lon="-105.2307035">
  <ele>1595.73</ele>
  <time>2026-08-28T19:10:57Z</time>
  <course>34.74</course>
  <speed>0.03605551275463989</speed>
  <fix>3d</fix>
</trkpt>
<trkpt lat="40.0727734" lon="-105.2307036">
  <ele>1595.65</ele>
  <time>2026-08-28T19:10:57Z</time>
  <course>318.34</course>
  <speed>0.03</speed>
  <fix>3d</fix>
</trkpt>
<trkpt lat="40.0727734" lon="-105.2307036">
  <ele>1595.74</ele>
  <time>2026-08-28T19:10:57Z</time>
  <course>34.89</course>
  <speed>0.0</speed>
  <fix>3d</fix>
</trkpt>
<trkpt lat="40.0727735" lon="-105.2307037">
  <ele>1595.65</ele>
  <time>2026-08-28T19:10:57Z</time>
  <course>323.13</course>
  <speed>0.04</speed>
  <fix>3d</fix>
</trkpt>
<trkpt lat="40.0727734" lon="-105.2307036">
  <ele>1595.74</ele>
  <time>2026-08-28T19:10:57Z</time>
  <course>34.82</course>
  <speed>0.01</speed>
  <fix>3d</fix>
</trkpt>
<trkpt lat="40.0727736" lon="-105.2307038">
  <ele>1595.65</ele>
  <time>2026-08-28T19:10:57Z</time>
  <course>327.48</course>
  <speed>0.03</speed>
  <fix>3d</fix>
</trkpt>
<trkpt lat="40.0727735" lon="-105.2307037">
  <ele>1595.75</ele>
  <time>2026-08-28T19:10:57Z</time>
  <course>34.92</course>
  <speed>0.01414213562373095</speed>
  <fix>3d</fix>
</trkpt>
<trkpt lat="40.0727736" lon="-105.2307038">
  <ele>1595.66</ele>
  <time>2026-08-28T19:10:57Z</time>
  <course>325.07</course>
  <speed>0.04</speed>
  <fix>3d</fix>
</trkpt>
<trkpt lat="40.0727735" lon="-105.2307037">
  <ele>1595.75</ele>
  <time>2026-08-28T19:10:57Z</time>
  <course>34.93</course>
  <speed>0.01</speed>
  <fix>3d</fix>
</trkpt>
<trkpt lat="40.0727737" lon="-105.2307038">
  <ele>1595.66</ele>
  <time>2026-08-28T19:10:57Z</time>
  <course>330.82</course>
  <speed>0.03</speed>
  <fix>3d</fix>
</trkpt>
<trkpt lat="40.0727736" lon="-105.2307038">
  <ele>1595.74</ele>
  <time>2026-08-28T19:10:57Z</time>
  <course>34.92</course>
  <speed>0.0282842712474619</speed>
  <fix>3d</fix>
</trkpt>
<trkpt lat="40.0727738" lon="-105.2307039">
  <ele>1595.66</ele>
  <time>2026-08-28T19:10:57Z</time>
  <course>329.49</course>
  <speed>0.03</speed>
  <fix>3d</fix>
</trkpt>
<trkpt lat="40.0727736" lon="-105.2307038">
  <ele>1595.74</ele>
  <time>2026-08-28T19:10:57Z</time>
  <course>35.01</course>
  <speed>0.01</speed>
  <fix>3d</fix>
</trkpt>
<trkpt lat="40.0727738" lon="-105.2307039">
  <ele>1595.66</ele>
  <time>2026-08-28T19:10:57Z</time>
  <course>331.27</course>
  <speed>0.03</speed>
  <fix>3d</fix>
</trkpt>
<trkpt lat="40.0727737" lon="-105.2307038">
  <ele>1595.74</ele>
  <time>2026-08-28T19:10:57Z</time>
  <course>34.91</course>
  <speed>0.022360679774997897</speed>
  <fix>3d</fix>
</trkpt>
<trkpt lat="40.0727739" lon="-105.2307039">
  <ele>1595.66</ele>
  <time>2026-08-28T19:10:57Z</time>
  <course>334.68</course>
  <speed>0.02</speed>
  <fix>3d</fix>
</trkpt>
<trkpt lat="40.0727737" lon="-105.2307039">
  <ele>1595.74</ele>
  <time>2026-08-28T19:10:57Z</time>
  <course>35.05</course>
  <speed>0.0</speed>
  <fix>3d</fix>
</trkpt>
<trkpt lat="40.0727739" lon="-105.2307039">
  <ele>1595.66</ele>
  <time>2026-08-28T19:10:57Z</time>
  <course>331.77</course>
  <speed>0.03</speed>
  <fix>3d</fix>
</trkpt>
<trkpt lat="40.0727738" lon="-105.2307039">
  <ele>1595.74</ele>
  <time>2026-08-28T19:10:57Z</time>
  <course>34.95</course>
  <speed>0.01</speed>
  <fix>3d</fix>
</trkpt>
<trkpt lat="40.0727739" lon="-105.2307039">
  <ele>1595.66</ele>
  <time>2026-08-28T19:10:57Z</time>
  <course>336.11</course>
  <speed>0.02</speed>
  <fix>3d</fix>
</trkpt>
<trkpt lat="40.0727738" lon="-105.2307039">
  <ele>1595.74</ele>
  <time>2026-08-28T19:10:57Z</time>
  <course>35.08</course>
  <speed>0.0</speed>
  <fix>3d</fix>
</trkpt>
<trkpt lat="40.072774" lon="-105.230704">
  <ele>1595.66</ele>
  <time>2026-08-28T19:10:57Z</time>
  <course>331.68</course>
  <speed>0.03</speed>
  <fix>3d</fix>
</trkpt>
<trkpt lat="40.0727739" lon="-105.2307039">
  <ele>1595.74</ele>
  <time>2026-08-28T19:10:57Z</time>
  <course>34.98</course>
  <speed>0.0</speed>
  <fix>3d</fix>
</trkpt>
<trkpt lat="40.072774" lon="-105.2307041">
  <ele>1595.66</ele>
  <time>2026-08-28T19:10:57Z</time>
  <course>334.59</course>
  <speed>0.02</speed>
  <fix>3d</fix>
</trkpt>
<trkpt lat="40.0727739" lon="-105.230704">
  <ele>1595.74</ele>
  <time>2026-08-28T19:10:57Z</time>
  <course>35.07</course>
  <speed>0.01</speed>
  <fix>3d</fix>
</trkpt>
<trkpt lat="40.072774" lon="-105.2307041">
  <ele>1595.66</ele>
  <time>2026-08-28T19:10:57Z</time>
  <course>331.41</course>
  <speed>0.02</speed>
  <fix>3d</fix>
</trkpt>
<trkpt lat="40.0727739" lon="-105.230704">
  <ele>1595.74</ele>
  <time>2026-08-28T19:10:57Z</time>
  <course>35.01</course>
  <speed>0.0</speed>
  <fix>3d</fix>
</trkpt>
<trkpt lat="40.0727741" lon="-105.2307041">
  <ele>1595.66</ele>
  <time>2026-08-28T19:10:57Z</time>
  <course>332.45</course>
  <speed>0.02</speed>
  <fix>3d</fix>
</trkpt>
<trkpt lat="40.072774" lon="-105.2307041">
  <ele>1595.73</ele>
  <time>2026-08-28T19:10:57Z</time>
  <course>35.08</course>
  <speed>0.01</speed>
  <fix>3d</fix>
</trkpt>
<trkpt lat="40.0727742" lon="-105.2307041">
  <ele>1595.66</ele>
  <time>2026-08-28T19:10:57Z</time>
  <course>330.52</course>
  <speed>0.02</speed>
  <fix>3d</fix>
</trkpt>
<trkpt lat="40.072774" lon="-105.2307041">
  <ele>1595.73</ele>
  <time>2026-08-28T19:10:57Z</time>
  <course>35.04</course>
  <speed>0.0</speed>
  <fix>3d</fix>
</trkpt>
<trkpt lat="40.0727742" lon="-105.2307041">
  <ele>1595.66</ele>
  <time>2026-08-28T19:10:58Z</time>
  <course>330.07</course>
  <speed>0.02</speed>
  <fix>3d</fix>
</trkpt>
<trkpt lat="40.0727741" lon="-105.2307041">
  <ele>1595.73</ele>
  <time>2026-08-28T19:10:58Z</time>
  <course>35.09</course>
  <speed>0.01</speed>
  <fix>3d</fix>
</trkpt>
<trkpt lat="40.0727743" lon="-105.2307042">
  <ele>1595.66</ele>
  <time>2026-08-28T19:10:58Z</time>
  <course>329.52</course>
  <speed>0.02</speed>
  <fix>3d</fix>
</trkpt>
<trkpt lat="40.0727741" lon="-105.2307041">
  <ele>1595.73</ele>
  <time>2026-08-28T19:10:58Z</time>
  <course>35.05</course>
  <speed>0.0</speed>
  <fix>3d</fix>
</trkpt>
<trkpt lat="40.0727743" lon="-105.2307043">
  <ele>1595.66</ele>
  <time>2026-08-28T19:10:58Z</time>
  <course>327.6</course>
  <speed>0.02</speed>
  <fix>3d</fix>
</trkpt>
<trkpt lat="40.0727742" lon="-105.2307042">
  <ele>1595.74</ele>
  <time>2026-08-28T19:10:58Z</time>
  <course>35.13</course>
  <speed>0.0</speed>
  <fix>3d</fix>
</trkpt>
<trkpt lat="40.0727744" lon="-105.2307043">
  <ele>1595.66</ele>
  <time>2026-08-28T19:10:58Z</time>
  <course>328.3</course>
  <speed>0.02</speed>
  <fix>3d</fix>
</trkpt>
<trkpt lat="40.0727742" lon="-105.2307042">
  <ele>1595.74</ele>
  <time>2026-08-28T19:10:58Z</time>
  <course>35.07</course>
  <speed>0.01</speed>
  <fix>3d</fix>
</trkpt>
<trkpt lat="40.0727744" lon="-105.2307043">
  <ele>1595.67</ele>
  <time>2026-08-28T19:10:58Z</time>
  <course>324.68</course>
  <speed>0.02</speed>
  <fix>3d</fix>
</trkpt>
<trkpt lat="40.0727743" lon="-105.2307042">
  <ele>1595.74</ele>
  <time>2026-08-28T19:10:58Z</time>
  <course>35.19</course>
  <speed>0.0</speed>
  <fix>3d</fix>
</trkpt>
<trkpt lat="40.0727744" lon="-105.2307043">
  <ele>1595.67</ele>
  <time>2026-08-28T19:10:58Z</time>
  <course>327.08</course>
  <speed>0.02</speed>
  <fix>3d</fix>
</trkpt>
<trkpt lat="40.0727743" lon="-105.2307043">
  <ele>1595.74</ele>
  <time>2026-08-28T19:10:58Z</time>
  <course>35.07</course>
  <speed>0.022360679774997897</speed>
  <fix>3d</fix>
</trkpt>
<trkpt lat="40.0727745" lon="-105.2307043">
  <ele>1595.67</ele>
  <time>2026-08-28T19:10:58Z</time>
  <course>322.64</course>
  <speed>0.03</speed>
  <fix>3d</fix>
</trkpt>
<trkpt lat="40.0727743" lon="-105.2307043">
  <ele>1595.75</ele>
  <time>2026-08-28T19:10:58Z</time>
  <course>35.22</course>
  <speed>0.0</speed>
  <fix>3d</fix>
</trkpt>
<trkpt lat="40.0727745" lon="-105.2307044">
  <ele>1595.67</ele>
  <time>2026-08-28T19:10:58Z</time>
  <course>325.46</course>
  <speed>0.02</speed>
  <fix>3d</fix>
</trkpt>
<trkpt lat="40.0727744" lon="-105.2307043">
  <ele>1595.75</ele>
  <time>2026-08-28T19:10:58Z</time>
  <course>35.12</course>
  <speed>0.022360679774997897</speed>
  <fix>3d</fix>
</trkpt>
<trkpt lat="40.0727745" lon="-105.2307045">
  <ele>1595.67</ele>
  <time>2026-08-28T19:10:58Z</time>
  <course>322.42</course>
  <speed>0.03</speed>
  <fix>3d</fix>
</trkpt>
<trkpt lat="40.0727744" lon="-105.2307044">
  <ele>1595.75</ele>
  <time>2026-08-28T19:10:58Z</time>
  <course>35.21</course>
  <speed>0.0</speed>
  <fix>3d</fix>
</trkpt>
<trkpt lat="40.0727745" lon="-105.2307045">
  <ele>1595.67</ele>
  <time>2026-08-28T19:10:58Z</time>
  <course>321.61</course>
  <speed>0.02</speed>
  <fix>3d</fix>
</trkpt>
<trkpt lat="40.0727745" lon="-105.2307044">
  <ele>1595.75</ele>
  <time>2026-08-28T19:10:58Z</time>
  <course>35.2</course>
  <speed>0.0</speed>
  <fix>3d</fix>
</trkpt>
<trkpt lat="40.0727746" lon="-105.2307046">
  <ele>1595.67</ele>
  <time>2026-08-28T19:10:58Z</time>
  <course>324.66</course>
  <speed>0.02</speed>
  <fix>3d</fix>
</trkpt>
<trkpt lat="40.0727745" lon="-105.2307044">
  <ele>1595.75</ele>
  <time>2026-08-28T19:10:58Z</time>
  <course>35.15</course>
  <speed>0.01</speed>
  <fix>3d</fix>
</trkpt>
<trkpt lat="40.0727746" lon="-105.2307046">
  <ele>1595.67</ele>
  <time>2026-08-28T19:10:58Z</time>
  <course>318.39</course>
  <speed>0.03</speed>
  <fix>3d</fix>
</trkpt>
<trkpt lat="40.0727745" lon="-105.2307045">
  <ele>1595.74</ele>
  <time>2026-08-28T19:10:58Z</time>
  <course>35.28</course>
  <speed>0.0</speed>
  <fix>3d</fix>
</trkpt>
<trkpt lat="40.0727747" lon="-105.2307046">
  <ele>1595.67</ele>
  <time>2026-08-28T19:10:58Z</time>
  <course>325.92</course>
  <speed>0.02</speed>
  <fix>3d</fix>
</trkpt>
<trkpt lat="40.0727746" lon="-105.2307045">
  <ele>1595.74</ele>
  <time>2026-08-28T19:10:58Z</time>
  <course>35.16</course>
  <speed>0.01414213562373095</speed>
  <fix>3d</fix>
</trkpt>
<trkpt lat="40.0727748" lon="-105.2307046">
  <ele>1595.67</ele>
  <time>2026-08-28T19:10:58Z</time>
  <course>319.83</course>
  <speed>0.03</speed>
  <fix>3d</fix>
</trkpt>
<trkpt lat="40.0727746" lon="-105.2307046">
  <ele>1595.73</ele>
  <time>2026-08-28T19:10:58Z</time>
  <course>35.23</course>
  <speed>0.0</speed>
  <fix>3d</fix>
</trkpt>
<trkpt lat="40.0727748" lon="-105.2307047">
  <ele>1595.67</ele>
  <time>2026-08-28T19:10:58Z</time>
  <course>319.42</course>
  <speed>0.02</speed>
  <fix>3d</fix>
</trkpt>
<trkpt lat="40.0727746" lon="-105.2307046">
  <ele>1595.73</ele>
  <time>2026-08-28T19:10:58Z</time>
  <course>35.26</course>
  <speed>0.0</speed>
  <fix>3d</fix>
</trkpt>
<trkpt lat="40.0727748" lon="-105.2307048">
  <ele>1595.67</ele>
  <time>2026-08-28T19:10:58Z</time>
  <course>326.72</course>
  <speed>0.02</speed>
  <fix>3d</fix>
</trkpt>
<trkpt lat="40.0727747" lon="-105.2307047">
  <ele>1595.73</ele>
  <time>2026-08-28T19:10:58Z</time>
  <course>35.16</course>
  <speed>0.022360679774997897</speed>
  <fix>3d</fix>
</trkpt>
<trkpt lat="40.0727749" lon="-105.2307048">
  <ele>1595.67</ele>
  <time>2026-08-28T19:10:58Z</time>
  <course>317.69</course>
  <speed>0.03</speed>
  <fix>3d</fix>
</trkpt>
<trkpt lat="40.0727747" lon="-105.2307047">
  <ele>1595.73</ele>
  <time>2026-08-28T19:10:58Z</time>
  <course>35.25</course>
  <speed>0.0</speed>
  <fix>3d</fix>
</trkpt>
<trkpt lat="40.0727749" lon="-105.2307048">
  <ele>1595.67</ele>
  <time>2026-08-28T19:10:58Z</time>
  <course>321.29</course>
  <speed>0.02</speed>
  <fix>3d</fix>
</trkpt>
<trkpt lat="40.0727748" lon="-105.2307047">
  <ele>1595.73</ele>
  <time>2026-08-28T19:10:58Z</time>
  <course>35.26</course>
  <speed>0.0</speed>
  <fix>3d</fix>
</trkpt>
<trkpt lat="40.072775" lon="-105.2307048">
  <ele>1595.67</ele>
  <time>2026-08-28T19:10:58Z</time>
  <course>326.22</course>
  <speed>0.02</speed>
  <fix>3d</fix>
</trkpt>
<trkpt lat="40.0727748" lon="-105.2307048">
  <ele>1595.73</ele>
  <time>2026-08-28T19:10:58Z</time>
  <course>35.17</course>
  <speed>0.01414213562373095</speed>
  <fix>3d</fix>
</trkpt>
<trkpt lat="40.072775" lon="-105.2307049">
  <ele>1595.67</ele>
  <time>2026-08-28T19:10:58Z</time>
  <course>317.16</course>
  <speed>0.03</speed>
  <fix>3d</fix>
</trkpt>
<trkpt lat="40.0727749" lon="-105.2307048">
  <ele>1595.73</ele>
  <time>2026-08-28T19:10:58Z</time>
  <course>35.25</course>
  <speed>0.01</speed>
  <fix>3d</fix>
</trkpt>
<trkpt lat="40.072775" lon="-105.230705">
  <ele>1595.67</ele>
  <time>2026-08-28T19:10:58Z</time>
  <course>319.98</course>
  <speed>0.02</speed>
  <fix>3d</fix>
</trkpt>
<trkpt lat="40.0727749" lon="-105.2307049">
  <ele>1595.73</ele>
  <time>2026-08-28T19:10:58Z</time>
  <course>35.29</course>
  <speed>0.0</speed>
  <fix>3d</fix>
</trkpt>
<trkpt lat="40.0727751" lon="-105.230705">
  <ele>1595.68</ele>
  <time>2026-08-28T19:10:58Z</time>
  <course>327.84</course>
  <speed>0.02</speed>
  <fix>3d</fix>
</trkpt>
<trkpt lat="40.0727749" lon="-105.2307049">
  <ele>1595.74</ele>
  <time>2026-08-28T19:10:58Z</time>
  <course>35.22</course>
  <speed>0.01</speed>
  <fix>3d</fix>
</trkpt>
<trkpt lat="40.0727751" lon="-105.2307051">
  <ele>1595.68</ele>
  <time>2026-08-28T19:10:58Z</time>
  <course>318.88</course>
  <speed>0.03</speed>
  <fix>3d</fix>
</trkpt>
<trkpt lat="40.072775" lon="-105.230705">
  <ele>1595.74</ele>
  <time>2026-08-28T19:10:58Z</time>
  <course>35.23</course>
  <speed>0.01</speed>
  <fix>3d</fix>
</trkpt>
<trkpt lat="40.0727751" lon="-105.2307051">
  <ele>1595.68</ele>
  <time>2026-08-28T19:10:58Z</time>
  <course>316.49</course>
  <speed>0.03</speed>
  <fix>3d</fix>
</trkpt>
<trkpt lat="40.072775" lon="-105.230705">
  <ele>1595.75</ele>
  <time>2026-08-28T19:10:58Z</time>
  <course>35.28</course>
  <speed>0.0</speed>
  <fix>3d</fix>
</trkpt>
<trkpt lat="40.0727751" lon="-105.2307051">
  <ele>1595.68</ele>
  <time>2026-08-28T19:10:58Z</time>
  <course>323.34</course>
  <speed>0.02</speed>
  <fix>3d</fix>
</trkpt>
<trkpt lat="40.0727751" lon="-105.2307051">
  <ele>1595.76</ele>
  <time>2026-08-28T19:10:58Z</time>
  <course>35.31</course>
  <speed>0.0</speed>
  <fix>3d</fix>
</trkpt>
<trkpt lat="40.0727752" lon="-105.2307052">
  <ele>1595.69</ele>
  <time>2026-08-28T19:10:58Z</time>
  <course>324.52</course>
  <speed>0.02</speed>
  <fix>3d</fix>
</trkpt>
<trkpt lat="40.0727751" lon="-105.2307051">
  <ele>1595.77</ele>
  <time>2026-08-28T19:10:58Z</time>
  <course>35.26</course>
  <speed>0.0</speed>
  <fix>3d</fix>
</trkpt>
<trkpt lat="40.0727752" lon="-105.2307053">
  <ele>1595.68</ele>
  <time>2026-08-28T19:10:58Z</time>
  <course>318.31</course>
  <speed>0.03</speed>
  <fix>3d</fix>
</trkpt>
<trkpt lat="40.0727751" lon="-105.2307052">
  <ele>1595.77</ele>
  <time>2026-08-28T19:10:58Z</time>
  <course>35.27</course>
  <speed>0.01</speed>
  <fix>3d</fix>
</trkpt>
<trkpt lat="40.0727753" lon="-105.2307053">
  <ele>1595.68</ele>
  <time>2026-08-28T19:10:58Z</time>
  <course>317.37</course>
  <speed>0.03</speed>
  <fix>3d</fix>
</trkpt>
<trkpt lat="40.0727752" lon="-105.2307052">
  <ele>1595.77</ele>
  <time>2026-08-28T19:10:58Z</time>
  <course>35.36</course>
  <speed>0.01</speed>
  <fix>3d</fix>
</trkpt>
<trkpt lat="40.0727754" lon="-105.2307053">
  <ele>1595.68</ele>
  <time>2026-08-28T19:10:58Z</time>
  <course>321.69</course>
  <speed>0.03</speed>
  <fix>3d</fix>
</trkpt>
<trkpt lat="40.0727752" lon="-105.2307052">
  <ele>1595.77</ele>
  <time>2026-08-28T19:10:58Z</time>
  <course>35.38</course>
  <speed>0.0</speed>
  <fix>3d</fix>
</trkpt>
<trkpt lat="40.0727754" lon="-105.2307053">
  <ele>1595.67</ele>
  <time>2026-08-28T19:10:58Z</time>
  <course>326.92</course>
  <speed>0.02</speed>
  <fix>3d</fix>
</trkpt>
<trkpt lat="40.0727753" lon="-105.2307053">
  <ele>1595.76</ele>
  <time>2026-08-28T19:10:58Z</time>
  <course>35.38</course>
  <speed>0.0</speed>
  <fix>3d</fix>
</trkpt>
<trkpt lat="40.0727755" lon="-105.2307054">
  <ele>1595.66</ele>
  <time>2026-08-28T19:10:58Z</time>
  <course>326.11</course>
  <speed>0.02</speed>
  <fix>3d</fix>
</trkpt>
<trkpt lat="40.0727753" lon="-105.2307053">
  <ele>1595.75</ele>
  <time>2026-08-28T19:10:58Z</time>
  <course>35.35</course>
  <speed>0.0</speed>
  <fix>3d</fix>
</trkpt>
<trkpt lat="40.0727755" lon="-105.2307055">
  <ele>1595.66</ele>
  <time>2026-08-28T19:10:58Z</time>
  <course>322.69</course>
  <speed>0.03</speed>
  <fix>3d</fix>
</trkpt>
<trkpt lat="40.0727754" lon="-105.2307054">
  <ele>1595.75</ele>
  <time>2026-08-28T19:10:58Z</time>
  <course>35.29</course>
  <speed>0.0</speed>
  <fix>3d</fix>
</trkpt>
<trkpt lat="40.0727756" lon="-105.2307055">
  <ele>1595.65</ele>
  <time>2026-08-28T19:10:58Z</time>
  <course>321.39</course>
  <speed>0.03</speed>
  <fix>3d</fix>
</trkpt>
<trkpt lat="40.0727754" lon="-105.2307054">
  <ele>1595.74</ele>
  <time>2026-08-28T19:10:58Z</time>
  <course>35.25</course>
  <speed>0.0</speed>
  <fix>3d</fix>
</trkpt>
<trkpt lat="40.0727756" lon="-105.2307055">
  <ele>1595.65</ele>
  <time>2026-08-28T19:10:58Z</time>
  <course>321.97</course>
  <speed>0.03</speed>
  <fix>3d</fix>
</trkpt>
<trkpt lat="40.0727755" lon="-105.2307054">
  <ele>1595.74</ele>
  <time>2026-08-28T19:10:58Z</time>
  <course>35.24</course>
  <speed>0.01</speed>
  <fix>3d</fix>
</trkpt>
<trkpt lat="40.0727757" lon="-105.2307056">
  <ele>1595.65</ele>
  <time>2026-08-28T19:10:58Z</time>
  <course>323.33</course>
  <speed>0.03</speed>
  <fix>3d</fix>
</trkpt>
<trkpt lat="40.0727755" lon="-105.2307055">
  <ele>1595.74</ele>
  <time>2026-08-28T19:10:58Z</time>
  <course>35.24</course>
  <speed>0.01</speed>
  <fix>3d</fix>
</trkpt>
<trkpt lat="40.0727757" lon="-105.2307057">
  <ele>1595.64</ele>
  <time>2026-08-28T19:10:58Z</time>
  <course>324.65</course>
  <speed>0.03</speed>
  <fix>3d</fix>
</trkpt>
<trkpt lat="40.0727756" lon="-105.2307055">
  <ele>1595.74</ele>
  <time>2026-08-28T19:10:58Z</time>
  <course>35.25</course>
  <speed>0.01</speed>
  <fix>3d</fix>
</trkpt>
<trkpt lat="40.0727757" lon="-105.2307057">
  <ele>1595.64</ele>
  <time>2026-08-28T19:10:58Z</time>
  <course>325.46</course>
  <speed>0.03</speed>
  <fix>3d</fix>
</trkpt>
<trkpt lat="40.0727756" lon="-105.2307056">
  <ele>1595.74</ele>
  <time>2026-08-28T19:10:58Z</time>
  <course>35.26</course>
  <speed>0.01</speed>
  <fix>3d</fix>
</trkpt>
<trkpt lat="40.0727757" lon="-105.2307058">
  <ele>1595.64</ele>
  <time>2026-08-28T19:10:58Z</time>
  <course>325.76</course>
  <speed>0.02</speed>
  <fix>3d</fix>
</trkpt>
<trkpt lat="40.0727757" lon="-105.2307056">
  <ele>1595.73</ele>
  <time>2026-08-28T19:10:58Z</time>
  <course>35.26</course>
  <speed>0.0</speed>
  <fix>3d</fix>
</trkpt>
<trkpt lat="40.0727758" lon="-105.2307058">
  <ele>1595.64</ele>
  <time>2026-08-28T19:10:58Z</time>
  <course>325.78</course>
  <speed>0.02</speed>
  <fix>3d</fix>
</trkpt>
<trkpt lat="40.0727757" lon="-105.2307057">
  <ele>1595.73</ele>
  <time>2026-08-28T19:10:58Z</time>
  <course>35.26</course>
  <speed>0.0</speed>
  <fix>3d</fix>
</trkpt>
<trkpt lat="40.0727758" lon="-105.2307058">
  <ele>1595.64</ele>
  <time>2026-08-28T19:10:58Z</time>
  <course>325.73</course>
  <speed>0.02</speed>
  <fix>3d</fix>
</trkpt>
<trkpt lat="40.0727757" lon="-105.2307057">
  <ele>1595.72</ele>
  <time>2026-08-28T19:10:58Z</time>
  <course>35.25</course>
  <speed>0.0</speed>
  <fix>3d</fix>
</trkpt>
<trkpt lat="40.0727759" lon="-105.2307058">
  <ele>1595.64</ele>
  <time>2026-08-28T19:10:58Z</time>
  <course>325.56</course>
  <speed>0.02</speed>
  <fix>3d</fix>
</trkpt>
<trkpt lat="40.0727758" lon="-105.2307058">
  <ele>1595.72</ele>
  <time>2026-08-28T19:10:58Z</time>
  <course>35.23</course>
  <speed>0.0</speed>
  <fix>3d</fix>
</trkpt>
<trkpt lat="40.072776" lon="-105.2307059">
  <ele>1595.64</ele>
  <time>2026-08-28T19:10:58Z</time>
  <course>325.29</course>
  <speed>0.02</speed>
  <fix>3d</fix>
</trkpt>
<trkpt lat="40.0727758" lon="-105.2307058">
  <ele>1595.72</ele>
  <time>2026-08-28T19:10:58Z</time>
  <course>35.25</course>
  <speed>0.0</speed>
  <fix>3d</fix>
</trkpt>
<trkpt lat="40.072776" lon="-105.230706">
  <ele>1595.64</ele>
  <time>2026-08-28T19:10:58Z</time>
  <course>324.93</course>
  <speed>0.03</speed>
  <fix>3d</fix>
</trkpt>
<trkpt lat="40.0727759" lon="-105.2307058">
  <ele>1595.72</ele>
  <time>2026-08-28T19:10:58Z</time>
  <course>35.24</course>
  <speed>0.0</speed>
  <fix>3d</fix>
</trkpt>
<trkpt lat="40.0727761" lon="-105.230706">
  <ele>1595.64</ele>
  <time>2026-08-28T19:10:58Z</time>
  <course>324.46</course>
  <speed>0.03</speed>
  <fix>3d</fix>
</trkpt>
<trkpt lat="40.0727759" lon="-105.2307059">
  <ele>1595.73</ele>
  <time>2026-08-28T19:10:58Z</time>
  <course>35.25</course>
  <speed>0.0</speed>
  <fix>3d</fix>
</trkpt>
<trkpt lat="40.0727761" lon="-105.230706">
  <ele>1595.65</ele>
  <time>2026-08-28T19:10:58Z</time>
  <course>323.85</course>
  <speed>0.03</speed>
  <fix>3d</fix>
</trkpt>
<trkpt lat="40.072776" lon="-105.2307059">
  <ele>1595.73</ele>
  <time>2026-08-28T19:10:58Z</time>
  <course>35.26</course>
  <speed>0.0</speed>
  <fix>3d</fix>
</trkpt>
<trkpt lat="40.0727762" lon="-105.2307061">
  <ele>1595.65</ele>
  <time>2026-08-28T19:10:58Z</time>
  <course>323.2</course>
  <speed>0.03</speed>
  <fix>3d</fix>
</trkpt>
<trkpt lat="40.072776" lon="-105.230706">
  <ele>1595.74</ele>
  <time>2026-08-28T19:10:58Z</time>
  <course>35.26</course>
  <speed>0.0</speed>
  <fix>3d</fix>
</trkpt>
<trkpt lat="40.0727762" lon="-105.2307062">
  <ele>1595.65</ele>
  <time>2026-08-28T19:10:58Z</time>
  <course>322.6</course>
  <speed>0.03</speed>
  <fix>3d</fix>
</trkpt>
<trkpt lat="40.0727761" lon="-105.230706">
  <ele>1595.74</ele>
  <time>2026-08-28T19:10:58Z</time>
  <course>35.26</course>
  <speed>0.0</speed>
  <fix>3d</fix>
</trkpt>
<trkpt lat="40.0727763" lon="-105.2307062">
  <ele>1595.66</ele>
  <time>2026-08-28T19:10:58Z</time>
  <course>322.02</course>
  <speed>0.03</speed>
  <fix>3d</fix>
</trkpt>
<trkpt lat="40.0727761" lon="-105.2307061">
  <ele>1595.74</ele>
  <time>2026-08-28T19:10:58Z</time>
  <course>35.27</course>
  <speed>0.0</speed>
  <fix>3d</fix>
</trkpt>
<trkpt lat="40.0727763" lon="-105.2307063">
  <ele>1595.66</ele>
  <time>2026-08-28T19:10:58Z</time>
  <course>321.74</course>
  <speed>0.03</speed>
  <fix>3d</fix>
</trkpt>
<trkpt lat="40.0727762" lon="-105.2307061">
  <ele>1595.74</ele>
  <time>2026-08-28T19:10:58Z</time>
  <course>35.28</course>
  <speed>0.0</speed>
  <fix>3d</fix>
</trkpt>
<trkpt lat="40.0727763" lon="-105.2307063">
  <ele>1595.66</ele>
  <time>2026-08-28T19:10:58Z</time>
  <course>321.86</course>
  <speed>0.03</speed>
  <fix>3d</fix>
</trkpt>
<trkpt lat="40.0727762" lon="-105.2307062">
  <ele>1595.74</ele>
  <time>2026-08-28T19:10:58Z</time>
  <course>35.28</course>
  <speed>0.01</speed>
  <fix>3d</fix>
</trkpt>
<trkpt lat="40.0727764" lon="-105.2307063">
  <ele>1595.66</ele>
  <time>2026-08-28T19:10:58Z</time>
  <course>322.23</course>
  <speed>0.03</speed>
  <fix>3d</fix>
</trkpt>
<trkpt lat="40.0727763" lon="-105.2307062">
  <ele>1595.74</ele>
  <time>2026-08-28T19:10:58Z</time>
  <course>35.28</course>
  <speed>0.01</speed>
  <fix>3d</fix>
</trkpt>
<trkpt lat="40.0727764" lon="-105.2307064">
  <ele>1595.66</ele>
  <time>2026-08-28T19:10:58Z</time>
  <course>322.59</course>
  <speed>0.03</speed>
  <fix>3d</fix>
</trkpt>
<trkpt lat="40.0727763" lon="-105.2307063">
  <ele>1595.74</ele>
  <time>2026-08-28T19:10:58Z</time>
  <course>35.27</course>
  <speed>0.0</speed>
  <fix>3d</fix>
</trkpt>
<trkpt lat="40.0727765" lon="-105.2307065">
  <ele>1595.66</ele>
  <time>2026-08-28T19:10:58Z</time>
  <course>322.72</course>
  <speed>0.03</speed>
  <fix>3d</fix>
</trkpt>
<trkpt lat="40.0727764" lon="-105.2307063">
  <ele>1595.74</ele>
  <time>2026-08-28T19:10:58Z</time>
  <course>35.28</course>
  <speed>0.0</speed>
  <fix>3d</fix>
</trkpt>
<trkpt lat="40.0727766" lon="-105.2307065">
  <ele>1595.66</ele>
  <time>2026-08-28T19:10:58Z</time>
  <course>322.87</course>
  <speed>0.03</speed>
  <fix>3d</fix>
</trkpt>
<trkpt lat="40.0727764" lon="-105.2307064">
  <ele>1595.74</ele>
  <time>2026-08-28T19:10:58Z</time>
  <course>35.29</course>
  <speed>0.0</speed>
  <fix>3d</fix>
</trkpt>
<trkpt lat="40.0727766" lon="-105.2307065">
  <ele>1595.66</ele>
  <time>2026-08-28T19:10:58Z</time>
  <course>323.37</course>
  <speed>0.03</speed>
  <fix>3d</fix>
</trkpt>
<trkpt lat="40.0727765" lon="-105.2307064">
  <ele>1595.73</ele>
  <time>2026-08-28T19:10:58Z</time>
  <course>35.29</course>
  <speed>0.01</speed>
  <fix>3d</fix>
</trkpt>
<trkpt lat="40.0727767" lon="-105.2307066">
  <ele>1595.66</ele>
  <time>2026-08-28T19:10:58Z</time>
  <course>323.73</course>
  <speed>0.03</speed>
  <fix>3d</fix>
</trkpt>
<trkpt lat="40.0727765" lon="-105.2307065">
  <ele>1595.73</ele>
  <time>2026-08-28T19:10:58Z</time>
  <course>35.28</course>
  <speed>0.0</speed>
  <fix>3d</fix>
</trkpt>
<trkpt lat="40.0727767" lon="-105.2307067">
  <ele>1595.67</ele>
  <time>2026-08-28T19:10:58Z</time>
  <course>323.58</course>
  <speed>0.03</speed>
  <fix>3d</fix>
</trkpt>
<trkpt lat="40.0727766" lon="-105.2307065">
  <ele>1595.73</ele>
  <time>2026-08-28T19:10:58Z</time>
  <course>35.28</course>
  <speed>0.0</speed>
  <fix>3d</fix>
</trkpt>
<trkpt lat="40.0727768" lon="-105.2307067">
  <ele>1595.67</ele>
  <time>2026-08-28T19:10:58Z</time>
  <course>323.93</course>
  <speed>0.03</speed>
  <fix>3d</fix>
</trkpt>
<trkpt lat="40.0727766" lon="-105.2307066">
  <ele>1595.73</ele>
  <time>2026-08-28T19:10:58Z</time>
  <course>35.29</course>
  <speed>0.0</speed>
  <fix>3d</fix>
</trkpt>
<trkpt lat="40.0727768" lon="-105.2307067">
  <ele>1595.67</ele>
  <time>2026-08-28T19:10:58Z</time>
  <course>324.58</course>
  <speed>0.03</speed>
  <fix>3d</fix>
</trkpt>
<trkpt lat="40.0727767" lon="-105.2307066">
  <ele>1595.73</ele>
  <time>2026-08-28T19:10:58Z</time>
  <course>35.28</course>
  <speed>0.0</speed>
  <fix>3d</fix>
</trkpt>
<trkpt lat="40.0727769" lon="-105.2307068">
  <ele>1595.67</ele>
  <time>2026-08-28T19:10:58Z</time>
  <course>324.65</course>
  <speed>0.03</speed>
  <fix>3d</fix>
</trkpt>
<trkpt lat="40.0727767" lon="-105.2307067">
  <ele>1595.73</ele>
  <time>2026-08-28T19:10:58Z</time>
  <course>35.28</course>
  <speed>0.0</speed>
  <fix>3d</fix>
</trkpt>
<trkpt lat="40.0727769" lon="-105.2307069">
  <ele>1595.67</ele>
  <time>2026-08-28T19:10:58Z</time>
  <course>325.01</course>
  <speed>0.03</speed>
  <fix>3d</fix>
</trkpt>
<trkpt lat="40.0727768" lon="-105.2307067">
  <ele>1595.73</ele>
  <time>2026-08-28T19:10:58Z</time>
  <course>35.29</course>
  <speed>0.0</speed>
  <fix>3d</fix>
</trkpt>
<trkpt lat="40.072777" lon="-105.2307069">
  <ele>1595.68</ele>
  <time>2026-08-28T19:10:58Z</time>
  <course>325.17</course>
  <speed>0.03</speed>
  <fix>3d</fix>
</trkpt>
<trkpt lat="40.0727768" lon="-105.2307068">
  <ele>1595.73</ele>
  <time>2026-08-28T19:10:58Z</time>
  <course>35.29</course>
  <speed>0.0</speed>
  <fix>3d</fix>
</trkpt>
<trkpt lat="40.072777" lon="-105.230707">
  <ele>1595.68</ele>
  <time>2026-08-28T19:10:58Z</time>
  <course>325.22</course>
  <speed>0.03</speed>
  <fix>3d</fix>
</trkpt>
<trkpt lat="40.0727769" lon="-105.2307068">
  <ele>1595.73</ele>
  <time>2026-08-28T19:10:58Z</time>
  <course>35.28</course>
  <speed>0.0</speed>
  <fix>3d</fix>
</trkpt>
<trkpt lat="40.0727771" lon="-105.230707">
  <ele>1595.68</ele>
  <time>2026-08-28T19:10:58Z</time>
  <course>325.32</course>
  <speed>0.03</speed>
  <fix>3d</fix>
</trkpt>
<trkpt lat="40.0727769" lon="-105.2307069">
  <ele>1595.73</ele>
  <time>2026-08-28T19:10:58Z</time>
  <course>35.29</course>
  <speed>0.0</speed>
  <fix>3d</fix>
</trkpt>
<trkpt lat="40.0727772" lon="-105.230707">
  <ele>1595.69</ele>
  <time>2026-08-28T19:10:58Z</time>
  <course>325.18</course>
  <speed>0.03</speed>
  <fix>3d</fix>
</trkpt>
<trkpt lat="40.072777" lon="-105.2307069">
  <ele>1595.74</ele>
  <time>2026-08-28T19:10:58Z</time>
  <course>35.3</course>
  <speed>0.0</speed>
  <fix>3d</fix>
</trkpt>
<trkpt lat="40.0727772" lon="-105.2307071">
  <ele>1595.69</ele>
  <time>2026-08-28T19:10:58Z</time>
  <course>324.83</course>
  <speed>0.03</speed>
  <fix>3d</fix>
</trkpt>
<trkpt lat="40.0727771" lon="-105.230707">
  <ele>1595.74</ele>
  <time>2026-08-28T19:10:58Z</time>
  <course>35.31</course>
  <speed>0.0</speed>
  <fix>3d</fix>
</trkpt>
<trkpt lat="40.0727773" lon="-105.2307072">
  <ele>1595.69</ele>
  <time>2026-08-28T19:10:58Z</time>
  <course>324.61</course>
  <speed>0.03</speed>
  <fix>3d</fix>
</trkpt>
<trkpt lat="40.0727771" lon="-105.230707">
  <ele>1595.74</ele>
  <time>2026-08-28T19:10:58Z</time>
  <course>35.32</course>
  <speed>0.0</speed>
  <fix>3d</fix>
</trkpt>
<trkpt lat="40.0727773" lon="-105.2307072">
  <ele>1595.7</ele>
  <time>2026-08-28T19:10:58Z</time>
  <course>324.27</course>
  <speed>0.03</speed>
  <fix>3d</fix>
</trkpt>
<trkpt lat="40.0727772" lon="-105.2307071">
  <ele>1595.74</ele>
  <time>2026-08-28T19:10:58Z</time>
  <course>35.32</course>
  <speed>0.01</speed>
  <fix>3d</fix>
</trkpt>
<trkpt lat="40.0727774" lon="-105.2307072">
  <ele>1595.7</ele>
  <time>2026-08-28T19:10:58Z</time>
  <course>323.94</course>
  <speed>0.03</speed>
  <fix>3d</fix>
</trkpt>
<trkpt lat="40.0727772" lon="-105.2307071">
  <ele>1595.74</ele>
  <time>2026-08-28T19:10:58Z</time>
  <course>35.32</course>
  <speed>0.0</speed>
  <fix>3d</fix>
</trkpt>
<trkpt lat="40.0727774" lon="-105.2307073">
  <ele>1595.7</ele>
  <time>2026-08-28T19:10:58Z</time>
  <course>323.78</course>
  <speed>0.03</speed>
  <fix>3d</fix>
</trkpt>
<trkpt lat="40.0727773" lon="-105.2307072">
  <ele>1595.75</ele>
  <time>2026-08-28T19:10:58Z</time>
  <course>35.33</course>
  <speed>0.0</speed>
  <fix>3d</fix>
</trkpt>
<trkpt lat="40.0727775" lon="-105.2307074">
  <ele>1595.7</ele>
  <time>2026-08-28T19:10:58Z</time>
  <course>323.17</course>
  <speed>0.03</speed>
  <fix>3d</fix>
</trkpt>
<trkpt lat="40.0727773" lon="-105.2307072">
  <ele>1595.75</ele>
  <time>2026-08-28T19:10:58Z</time>
  <course>35.34</course>
  <speed>0.01</speed>
  <fix>3d</fix>
</trkpt>
<trkpt lat="40.0727775" lon="-105.2307074">
  <ele>1595.7</ele>
  <time>2026-08-28T19:10:58Z</time>
  <course>323.56</course>
  <speed>0.03</speed>
  <fix>3d</fix>
</trkpt>
<trkpt lat="40.0727774" lon="-105.2307073">
  <ele>1595.75</ele>
  <time>2026-08-28T19:10:58Z</time>
  <course>35.33</course>
  <speed>0.0</speed>
  <fix>3d</fix>
</trkpt>
<trkpt lat="40.0727775" lon="-105.2307075">
  <ele>1595.7</ele>
  <time>2026-08-28T19:10:58Z</time>
  <course>323.74</course>
  <speed>0.03</speed>
  <fix>3d</fix>
</trkpt>
<trkpt lat="40.0727774" lon="-105.2307073">
  <ele>1595.74</ele>
  <time>2026-08-28T19:10:58Z</time>
  <course>35.33</course>
  <speed>0.0</speed>
  <fix>3d</fix>
</trkpt>
<trkpt lat="40.0727776" lon="-105.2307075">
  <ele>1595.7</ele>
  <time>2026-08-28T19:10:58Z</time>
  <course>323.15</course>
  <speed>0.03</speed>
  <fix>3d</fix>
</trkpt>
<trkpt lat="40.0727775" lon="-105.2307074">
  <ele>1595.74</ele>
  <time>2026-08-28T19:10:58Z</time>
  <course>35.33</course>
  <speed>0.01</speed>
  <fix>3d</fix>
</trkpt>
<trkpt lat="40.0727776" lon="-105.2307075">
  <ele>1595.7</ele>
  <time>2026-08-28T19:10:58Z</time>
  <course>323.44</course>
  <speed>0.03</speed>
  <fix>3d</fix>
</trkpt>
<trkpt lat="40.0727775" lon="-105.2307074">
  <ele>1595.74</ele>
  <time>2026-08-28T19:10:58Z</time>
  <course>35.33</course>
  <speed>0.0</speed>
  <fix>3d</fix>
</trkpt>
<trkpt lat="40.0727777" lon="-105.2307075">
  <ele>1595.7</ele>
  <time>2026-08-28T19:10:58Z</time>
  <course>324.57</course>
  <speed>0.03</speed>
  <fix>3d</fix>
</trkpt>
<trkpt lat="40.0727776" lon="-105.2307075">
  <ele>1595.74</ele>
  <time>2026-08-28T19:10:58Z</time>
  <course>35.33</course>
  <speed>0.0</speed>
  <fix>3d</fix>
</trkpt>
<trkpt lat="40.0727778" lon="-105.2307076">
  <ele>1595.7</ele>
  <time>2026-08-28T19:10:58Z</time>
  <course>325.09</course>
  <speed>0.03</speed>
  <fix>3d</fix>
</trkpt>
<trkpt lat="40.0727776" lon="-105.2307075">
  <ele>1595.74</ele>
  <time>2026-08-28T19:10:58Z</time>
  <course>35.32</course>
  <speed>0.0</speed>
  <fix>3d</fix>
</trkpt>
<trkpt lat="40.0727778" lon="-105.2307077">
  <ele>1595.7</ele>
  <time>2026-08-28T19:10:58Z</time>
  <course>324.83</course>
  <speed>0.03</speed>
  <fix>3d</fix>
</trkpt>
<trkpt lat="40.0727777" lon="-105.2307076">
  <ele>1595.74</ele>
  <time>2026-08-28T19:10:58Z</time>
  <course>35.33</course>
  <speed>0.0</speed>
  <fix>3d</fix>
</trkpt>
<trkpt lat="40.0727779" lon="-105.2307077">
  <ele>1595.71</ele>
  <time>2026-08-28T19:10:58Z</time>
  <course>324.43</course>
  <speed>0.03</speed>
  <fix>3d</fix>
</trkpt>
<trkpt lat="40.0727777" lon="-105.2307076">
  <ele>1595.74</ele>
  <time>2026-08-28T19:10:58Z</time>
  <course>35.33</course>
  <speed>0.0</speed>
  <fix>3d</fix>
</trkpt>
<trkpt lat="40.0727779" lon="-105.2307077">
  <ele>1595.71</ele>
  <time>2026-08-28T19:10:58Z</time>
  <course>324.3</course>
  <speed>0.03</speed>
  <fix>3d</fix>
</trkpt>
<trkpt lat="40.0727778" lon="-105.2307076">
  <ele>1595.74</ele>
  <time>2026-08-28T19:10:58Z</time>
  <course>35.34</course>
  <speed>0.0</speed>
  <fix>3d</fix>
</trkpt>
<trkpt lat="40.072778" lon="-105.2307078">
  <ele>1595.71</ele>
  <time>2026-08-28T19:10:58Z</time>
  <course>324.37</course>
  <speed>0.03</speed>
  <fix>3d</fix>
</trkpt>
<trkpt lat="40.0727778" lon="-105.2307077">
  <ele>1595.74</ele>
  <time>2026-08-28T19:10:58Z</time>
  <course>35.34</course>
  <speed>0.0</speed>
  <fix>3d</fix>
</trkpt>
<trkpt lat="40.072778" lon="-105.2307079">
  <ele>1595.71</ele>
  <time>2026-08-28T19:10:58Z</time>
  <course>324.44</course>
  <speed>0.03</speed>
  <fix>3d</fix>
</trkpt>
<trkpt lat="40.0727779" lon="-105.2307077">
  <ele>1595.74</ele>
  <time>2026-08-28T19:10:58Z</time>
  <course>35.34</course>
  <speed>0.0</speed>
  <fix>3d</fix>
</trkpt>
<trkpt lat="40.0727781" lon="-105.2307079">
  <ele>1595.71</ele>
  <time>2026-08-28T19:10:58Z</time>
  <course>324.5</course>
  <speed>0.03</speed>
  <fix>3d</fix>
</trkpt>
<trkpt lat="40.0727779" lon="-105.2307078">
  <ele>1595.74</ele>
  <time>2026-08-28T19:10:58Z</time>
  <course>35.34</course>
  <speed>0.0</speed>
  <fix>3d</fix>
</trkpt>
<trkpt lat="40.0727781" lon="-105.2307079">
  <ele>1595.71</ele>
  <time>2026-08-28T19:10:58Z</time>
  <course>324.44</course>
  <speed>0.03</speed>
  <fix>3d</fix>
</trkpt>
<trkpt lat="40.072778" lon="-105.2307078">
  <ele>1595.75</ele>
  <time>2026-08-28T19:10:58Z</time>
  <course>35.35</course>
  <speed>0.0</speed>
  <fix>3d</fix>
</trkpt>
<trkpt lat="40.0727781" lon="-105.2307079">
  <ele>1595.71</ele>
  <time>2026-08-28T19:10:58Z</time>
  <course>324.3</course>
  <speed>0.03</speed>
  <fix>3d</fix>
</trkpt>
<trkpt lat="40.072778" lon="-105.2307079">
  <ele>1595.75</ele>
  <time>2026-08-28T19:10:58Z</time>
  <course>35.35</course>
  <speed>0.0</speed>
  <fix>3d</fix>
</trkpt>
<trkpt lat="40.0727781" lon="-105.230708">
  <ele>1595.71</ele>
  <time>2026-08-28T19:10:58Z</time>
  <course>324.34</course>
  <speed>0.03</speed>
  <fix>3d</fix>
</trkpt>
<trkpt lat="40.072778" lon="-105.2307079">
  <ele>1595.75</ele>
  <time>2026-08-28T19:10:58Z</time>
  <course>35.35</course>
  <speed>0.0</speed>
  <fix>3d</fix>
</trkpt>
<trkpt lat="40.0727782" lon="-105.2307081">
  <ele>1595.71</ele>
  <time>2026-08-28T19:10:58Z</time>
  <course>324.74</course>
  <speed>0.03</speed>
  <fix>3d</fix>
</trkpt>
<trkpt lat="40.0727781" lon="-105.2307079">
  <ele>1595.75</ele>
  <time>2026-08-28T19:10:58Z</time>
  <course>35.35</course>
  <speed>0.0</speed>
  <fix>3d</fix>
</trkpt>
<trkpt lat="40.0727782" lon="-105.2307081">
  <ele>1595.71</ele>
  <time>2026-08-28T19:10:58Z</time>
  <course>324.88</course>
  <speed>0.03</speed>
  <fix>3d</fix>
</trkpt>
<trkpt lat="40.0727781" lon="-105.230708">
  <ele>1595.74</ele>
  <time>2026-08-28T19:10:58Z</time>
  <course>35.34</course>
  <speed>0.0</speed>
  <fix>3d</fix>
</trkpt>
<trkpt lat="40.0727783" lon="-105.2307082">
  <ele>1595.71</ele>
  <time>2026-08-28T19:10:58Z</time>
  <course>324.12</course>
  <speed>0.03</speed>
  <fix>3d</fix>
</trkpt>
<trkpt lat="40.0727782" lon="-105.2307081">
  <ele>1595.74</ele>
  <time>2026-08-28T19:10:58Z</time>
  <course>35.34</course>
  <speed>0.01</speed>
  <fix>3d</fix>
</trkpt>
<trkpt lat="40.0727784" lon="-105.2307082">
  <ele>1595.71</ele>
  <time>2026-08-28T19:10:58Z</time>
  <course>323.08</course>
  <speed>0.03</speed>
  <fix>3d</fix>
</trkpt>
<trkpt lat="40.0727782" lon="-105.2307081">
  <ele>1595.74</ele>
  <time>2026-08-28T19:10:58Z</time>
  <course>35.34</course>
  <speed>0.01</speed>
  <fix>3d</fix>
</trkpt>
<trkpt lat="40.0727785" lon="-105.2307083">
  <ele>1595.71</ele>
  <time>2026-08-28T19:10:58Z</time>
  <course>322.23</course>
  <speed>0.03</speed>
  <fix>3d</fix>
</trkpt>
<trkpt lat="40.0727783" lon="-105.2307082">
  <ele>1595.74</ele>
  <time>2026-08-28T19:10:58Z</time>
  <course>35.35</course>
  <speed>0.01</speed>
  <fix>3d</fix>
</trkpt>
<trkpt lat="40.0727785" lon="-105.2307084">
  <ele>1595.71</ele>
  <time>2026-08-28T19:10:58Z</time>
  <course>321.51</course>
  <speed>0.04</speed>
  <fix>3d</fix>
</trkpt>
<trkpt lat="40.0727784" lon="-105.2307082">
  <ele>1595.74</ele>
  <time>2026-08-28T19:10:58Z</time>
  <course>35.35</course>
  <speed>0.01</speed>
  <fix>3d</fix>
</trkpt>
<trkpt lat="40.0727786" lon="-105.2307084">
  <ele>1595.71</ele>
  <time>2026-08-28T19:10:58Z</time>
  <course>320.52</course>
  <speed>0.04</speed>
  <fix>3d</fix>
</trkpt>
<trkpt lat="40.0727784" lon="-105.2307083">
  <ele>1595.74</ele>
  <time>2026-08-28T19:10:58Z</time>
  <course>35.34</course>
  <speed>0.01</speed>
  <fix>3d</fix>
</trkpt>
<trkpt lat="40.0727786" lon="-105.2307084">
  <ele>1595.71</ele>
  <time>2026-08-28T19:10:58Z</time>
  <course>319.33</course>
  <speed>0.04</speed>
  <fix>3d</fix>
</trkpt>
<trkpt lat="40.0727785" lon="-105.2307084">
  <ele>1595.75</ele>
  <time>2026-08-28T19:10:58Z</time>
  <course>35.35</course>
  <speed>0.01414213562373095</speed>
  <fix>3d</fix>
</trkpt>
<trkpt lat="40.0727787" lon="-105.2307085">
  <ele>1595.71</ele>
  <time>2026-08-28T19:10:58Z</time>
  <course>318.43</course>
  <speed>0.04</speed>
  <fix>3d</fix>
</trkpt>
<trkpt lat="40.0727786" lon="-105.2307085">
  <ele>1595.75</ele>
  <time>2026-08-28T19:10:58Z</time>
  <course>35.36</course>
  <speed>0.01414213562373095</speed>
  <fix>3d</fix>
</trkpt>
<trkpt lat="40.0727787" lon="-105.2307086">
  <ele>1595.71</ele>
  <time>2026-08-28T19:10:58Z</time>
  <course>317.88</course>
  <speed>0.04</speed>
  <fix>3d</fix>
</trkpt>
<trkpt lat="40.0727786" lon="-105.2307085">
  <ele>1595.75</ele>
  <time>2026-08-28T19:10:58Z</time>
  <course>35.36</course>
  <speed>0.022360679774997897</speed>
  <fix>3d</fix>
</trkpt>
<trkpt lat="40.0727788" lon="-105.2307087">
  <ele>1595.71</ele>
  <time>2026-08-28T19:10:58Z</time>
  <course>317.38</course>
  <speed>0.04</speed>
  <fix>3d</fix>
</trkpt>
<trkpt lat="40.0727787" lon="-105.2307086">
  <ele>1595.75</ele>
  <time>2026-08-28T19:10:58Z</time>
  <course>35.36</course>
  <speed>0.022360679774997897</speed>
  <fix>3d</fix>
</trkpt>
<trkpt lat="40.0727788" lon="-105.2307088">
  <ele>1595.71</ele>
  <time>2026-08-28T19:10:58Z</time>
  <course>317.04</course>
  <speed>0.04</speed>
  <fix>3d</fix>
</trkpt>
<trkpt lat="40.0727787" lon="-105.2307087">
  <ele>1595.75</ele>
  <time>2026-08-28T19:10:58Z</time>
  <course>35.36</course>
  <speed>0.022360679774997897</speed>
  <fix>3d</fix>
</trkpt>
<trkpt lat="40.0727789" lon="-105.2307088">
  <ele>1595.7</ele>
  <time>2026-08-28T19:10:58Z</time>
  <course>316.8</course>
  <speed>0.04</speed>
  <fix>3d</fix>
</trkpt>
<trkpt lat="40.0727788" lon="-105.2307088">
  <ele>1595.75</ele>
  <time>2026-08-28T19:10:58Z</time>
  <course>35.36</course>
  <speed>0.022360679774997897</speed>
  <fix>3d</fix>
</trkpt>
<trkpt lat="40.072779" lon="-105.2307089">
  <ele>1595.7</ele>
  <time>2026-08-28T19:10:58Z</time>
  <course>316.37</course>
  <speed>0.04</speed>
  <fix>3d</fix>
</trkpt>
<trkpt lat="40.0727789" lon="-105.2307088">
  <ele>1595.74</ele>
  <time>2026-08-28T19:10:58Z</time>
  <course>35.35</course>
  <speed>0.022360679774997897</speed>
  <fix>3d</fix>
</trkpt>
<trkpt lat="40.0727791" lon="-105.230709">
  <ele>1595.7</ele>
  <time>2026-08-28T19:10:58Z</time>
  <course>316.33</course>
  <speed>0.04</speed>
  <fix>3d</fix>
</trkpt>
<trkpt lat="40.0727789" lon="-105.2307089">
  <ele>1595.74</ele>
  <time>2026-08-28T19:10:58Z</time>
  <course>35.35</course>
  <speed>0.022360679774997897</speed>
  <fix>3d</fix>
</trkpt>
<trkpt lat="40.0727791" lon="-105.2307091">
  <ele>1595.7</ele>
  <time>2026-08-28T19:10:58Z</time>
  <course>316.67</course>
  <speed>0.04</speed>
  <fix>3d</fix>
</trkpt>
<trkpt lat="40.072779" lon="-105.230709">
  <ele>1595.74</ele>
  <time>2026-08-28T19:10:58Z</time>
  <course>35.35</course>
  <speed>0.022360679774997897</speed>
  <fix>3d</fix>
</trkpt>
<trkpt lat="40.0727792" lon="-105.2307091">
  <ele>1595.7</ele>
  <time>2026-08-28T19:10:58Z</time>
  <course>317.03</course>
  <speed>0.05</speed>
  <fix>3d</fix>
</trkpt>
<trkpt lat="40.0727791" lon="-105.2307091">
  <ele>1595.74</ele>
  <time>2026-08-28T19:10:58Z</time>
  <course>35.34</course>
  <speed>0.03605551275463989</speed>
  <fix>3d</fix>
</trkpt>
<trkpt lat="40.0727793" lon="-105.2307092">
  <ele>1595.7</ele>
  <time>2026-08-28T19:10:58Z</time>
  <course>316.38</course>
  <speed>0.05</speed>
  <fix>3d</fix>
</trkpt>
<trkpt lat="40.0727792" lon="-105.2307092">
  <ele>1595.74</ele>
  <time>2026-08-28T19:10:58Z</time>
  <course>35.37</course>
  <speed>0.03605551275463989</speed>
  <fix>3d</fix>
</trkpt>
<trkpt lat="40.0727793" lon="-105.2307093">
  <ele>1595.7</ele>
  <time>2026-08-28T19:10:58Z</time>
  <course>316.03</course>
  <speed>0.06</speed>
  <fix>3d</fix>
</trkpt>
<trkpt lat="40.0727792" lon="-105.2307093">
  <ele>1595.74</ele>
  <time>2026-08-28T19:10:58Z</time>
  <course>35.35</course>
  <speed>0.0316227766016838</speed>
  <fix>3d</fix>
</trkpt>
<trkpt lat="40.0727794" lon="-105.2307094">
  <ele>1595.7</ele>
  <time>2026-08-28T19:10:58Z</time>
  <course>315.0</course>
  <speed>0.06</speed>
  <fix>3d</fix>
</trkpt>
<trkpt lat="40.0727793" lon="-105.2307094">
  <ele>1595.74</ele>
  <time>2026-08-28T19:10:58Z</time>
  <course>35.35</course>
  <speed>0.022360679774997897</speed>
  <fix>3d</fix>
</trkpt>
<trkpt lat="40.0727795" lon="-105.2307095">
  <ele>1595.7</ele>
  <time>2026-08-28T19:10:58Z</time>
  <course>313.4</course>
  <speed>0.06</speed>
  <fix>3d</fix>
</trkpt>
<trkpt lat="40.0727794" lon="-105.2307095">
  <ele>1595.73</ele>
  <time>2026-08-28T19:10:58Z</time>
  <course>35.35</course>
  <speed>0.02</speed>
  <fix>3d</fix>
</trkpt>
<trkpt lat="40.0727795" lon="-105.2307096">
  <ele>1595.7</ele>
  <time>2026-08-28T19:10:58Z</time>
  <course>313.88</course>
  <speed>0.05</speed>
  <fix>3d</fix>
</trkpt>
<trkpt lat="40.0727794" lon="-105.2307096">
  <ele>1595.73</ele>
  <time>2026-08-28T19:10:58Z</time>
  <course>35.35</course>
  <speed>0.01</speed>
  <fix>3d</fix>
</trkpt>
<trkpt lat="40.0727796" lon="-105.2307097">
  <ele>1595.7</ele>
  <time>2026-08-28T19:10:58Z</time>
  <course>316.12</course>
  <speed>0.04</speed>
  <fix>3d</fix>
</trkpt>
<trkpt lat="40.0727795" lon="-105.2307096">
  <ele>1595.73</ele>
  <time>2026-08-28T19:10:58Z</time>
  <course>35.35</course>
  <speed>0.01</speed>
  <fix>3d</fix>
</trkpt>
<trkpt lat="40.0727797" lon="-105.2307098">
  <ele>1595.7</ele>
  <time>2026-08-28T19:10:58Z</time>
  <course>319.35</course>
  <speed>0.04</speed>
  <fix>3d</fix>
</trkpt>
<trkpt lat="40.0727796" lon="-105.2307097">
  <ele>1595.73</ele>
  <time>2026-08-28T19:10:58Z</time>
  <course>35.35</course>
  <speed>0.01</speed>
  <fix>3d</fix>
</trkpt>
<trkpt lat="40.0727797" lon="-105.2307098">
  <ele>1595.7</ele>
  <time>2026-08-28T19:10:58Z</time>
  <course>322.82</course>
  <speed>0.03</speed>
  <fix>3d</fix>
</trkpt>
<trkpt lat="40.0727796" lon="-105.2307098">
  <ele>1595.73</ele>
  <time>2026-08-28T19:10:58Z</time>
  <course>35.35</course>
  <speed>0.01</speed>
  <fix>3d</fix>
</trkpt>
<trkpt lat="40.0727798" lon="-105.2307099">
  <ele>1595.71</ele>
  <time>2026-08-28T19:10:58Z</time>
  <course>325.86</course>
  <speed>0.03</speed>
  <fix>3d</fix>
</trkpt>
<trkpt lat="40.0727797" lon="-105.2307098">
  <ele>1595.73</ele>
  <time>2026-08-28T19:10:58Z</time>
  <course>35.35</course>
  <speed>0.01</speed>
  <fix>3d</fix>
</trkpt>
<trkpt lat="40.0727799" lon="-105.23071">
  <ele>1595.71</ele>
  <time>2026-08-28T19:10:58Z</time>
  <course>328.0</course>
  <speed>0.03</speed>
  <fix>3d</fix>
</trkpt>
<trkpt lat="40.0727797" lon="-105.2307098">
  <ele>1595.73</ele>
  <time>2026-08-28T19:10:58Z</time>
  <course>35.35</course>
  <speed>0.01</speed>
  <fix>3d</fix>
</trkpt>
<trkpt lat="40.0727799" lon="-105.23071">
  <ele>1595.71</ele>
  <time>2026-08-28T19:10:58Z</time>
  <course>329.07</course>
  <speed>0.03</speed>
  <fix>3d</fix>
</trkpt>
<trkpt lat="40.0727798" lon="-105.2307099">
  <ele>1595.73</ele>
  <time>2026-08-28T19:10:58Z</time>
  <course>35.34</course>
  <speed>0.01</speed>
  <fix>3d</fix>
</trkpt>
<trkpt lat="40.07278" lon="-105.2307101">
  <ele>1595.71</ele>
  <time>2026-08-28T19:10:58Z</time>
  <course>329.26</course>
  <speed>0.03</speed>
  <fix>3d</fix>
</trkpt>
<trkpt lat="40.0727798" lon="-105.2307099">
  <ele>1595.73</ele>
  <time>2026-08-28T19:10:58Z</time>
  <course>35.34</course>
  <speed>0.01</speed>
  <fix>3d</fix>
</trkpt>
<trkpt lat="40.07278" lon="-105.2307101">
  <ele>1595.71</ele>
  <time>2026-08-28T19:10:58Z</time>
  <course>328.81</course>
  <speed>0.03</speed>
  <fix>3d</fix>
</trkpt>
<trkpt lat="40.0727799" lon="-105.23071">
  <ele>1595.74</ele>
  <time>2026-08-28T19:10:58Z</time>
  <course>35.36</course>
  <speed>0.0</speed>
  <fix>3d</fix>
</trkpt>
<trkpt lat="40.07278" lon="-105.2307101">
  <ele>1595.71</ele>
  <time>2026-08-28T19:10:58Z</time>
  <course>332.26</course>
  <speed>0.02</speed>
  <fix>3d</fix>
</trkpt>
<trkpt lat="40.0727799" lon="-105.23071">
  <ele>1595.74</ele>
  <time>2026-08-28T19:10:59Z</time>
  <course>35.35</course>
  <speed>0.0</speed>
  <fix>3d</fix>
</trkpt>
<trkpt lat="40.0727801" lon="-105.2307101">
  <ele>1595.72</ele>
  <time>2026-08-28T19:10:59Z</time>
  <course>337.81</course>
  <speed>0.02</speed>
  <fix>3d</fix>
</trkpt>
<trkpt lat="40.0727799" lon="-105.23071">
  <ele>1595.75</ele>
  <time>2026-08-28T19:10:59Z</time>
  <course>35.36</course>
  <speed>0.0</speed>
  <fix>3d</fix>
</trkpt>
<trkpt lat="40.0727801" lon="-105.2307101">
  <ele>1595.72</ele>
  <time>2026-08-28T19:10:59Z</time>
  <course>339.04</course>
  <speed>0.02</speed>
  <fix>3d</fix>
</trkpt>
<trkpt lat="40.07278" lon="-105.23071">
  <ele>1595.75</ele>
  <time>2026-08-28T19:10:59Z</time>
  <course>35.36</course>
  <speed>0.0</speed>
  <fix>3d</fix>
</trkpt>
<trkpt lat="40.0727801" lon="-105.2307101">
  <ele>1595.72</ele>
  <time>2026-08-28T19:10:59Z</time>
  <course>337.36</course>
  <speed>0.02</speed>
  <fix>3d</fix>
</trkpt>
<trkpt lat="40.07278" lon="-105.2307101">
  <ele>1595.75</ele>
  <time>2026-08-28T19:10:59Z</time>
  <course>35.37</course>
  <speed>0.0</speed>
  <fix>3d</fix>
</trkpt>
<trkpt lat="40.0727802" lon="-105.2307102">
  <ele>1595.72</ele>
  <time>2026-08-28T19:10:59Z</time>
  <course>332.29</course>
  <speed>0.03</speed>
  <fix>3d</fix>
</trkpt>
<trkpt lat="40.0727801" lon="-105.2307101">
  <ele>1595.76</ele>
  <time>2026-08-28T19:10:59Z</time>
  <course>35.37</course>
  <speed>0.01</speed>
  <fix>3d</fix>
</trkpt>
<trkpt lat="40.0727803" lon="-105.2307103">
  <ele>1595.72</ele>
  <time>2026-08-28T19:10:59Z</time>
  <course>327.56</course>
  <speed>0.03</speed>
  <fix>3d</fix>
</trkpt>
<trkpt lat="40.0727801" lon="-105.2307102">
  <ele>1595.76</ele>
  <time>2026-08-28T19:10:59Z</time>
  <course>35.39</course>
  <speed>0.01414213562373095</speed>
  <fix>3d</fix>
</trkpt>
<trkpt lat="40.0727804" lon="-105.2307103">
  <ele>1595.72</ele>
  <time>2026-08-28T19:10:59Z</time>
  <course>324.07</course>
  <speed>0.04</speed>
  <fix>3d</fix>
</trkpt>
<trkpt lat="40.0727802" lon="-105.2307102">
  <ele>1595.76</ele>
  <time>2026-08-28T19:10:59Z</time>
  <course>35.41</course>
  <speed>0.01414213562373095</speed>
  <fix>3d</fix>
</trkpt>
<trkpt lat="40.0727804" lon="-105.2307103">
  <ele>1595.72</ele>
  <time>2026-08-28T19:10:59Z</time>
  <course>321.6</course>
  <speed>0.04</speed>
  <fix>3d</fix>
</trkpt>
<trkpt lat="40.0727803" lon="-105.2307103">
  <ele>1595.76</ele>
  <time>2026-08-28T19:10:59Z</time>
  <course>35.41</course>
  <speed>0.022360679774997897</speed>
  <fix>3d</fix>
</trkpt>
<trkpt lat="40.0727805" lon="-105.2307104">
  <ele>1595.71</ele>
  <time>2026-08-28T19:10:59Z</time>
  <course>319.83</course>
  <speed>0.04</speed>
  <fix>3d</fix>
</trkpt>
<trkpt lat="40.0727804" lon="-105.2307104">
  <ele>1595.76</ele>
  <time>2026-08-28T19:10:59Z</time>
  <course>35.37</course>
  <speed>0.022360679774997897</speed>
  <fix>3d</fix>
</trkpt>
<trkpt lat="40.0727805" lon="-105.2307105">
  <ele>1595.71</ele>
  <time>2026-08-28T19:10:59Z</time>
  <course>318.72</course>
  <speed>0.04</speed>
  <fix>3d</fix>
</trkpt>
<trkpt lat="40.0727804" lon="-105.2307104">
  <ele>1595.76</ele>
  <time>2026-08-28T19:10:59Z</time>
  <course>35.41</course>
  <speed>0.022360679774997897</speed>
  <fix>3d</fix>
</trkpt>
<trkpt lat="40.0727806" lon="-105.2307106">
  <ele>1595.71</ele>
  <time>2026-08-28T19:10:59Z</time>
  <course>317.61</course>
  <speed>0.05</speed>
  <fix>3d</fix>
</trkpt>
<trkpt lat="40.0727805" lon="-105.2307105">
  <ele>1595.76</ele>
  <time>2026-08-28T19:10:59Z</time>
  <course>35.41</course>
  <speed>0.022360679774997897</speed>
  <fix>3d</fix>
</trkpt>
<trkpt lat="40.0727806" lon="-105.2307107">
  <ele>1595.7</ele>
  <time>2026-08-28T19:10:59Z</time>
  <course>316.64</course>
  <speed>0.05</speed>
  <fix>3d</fix>
</trkpt>
<trkpt lat="40.0727806" lon="-105.2307106">
  <ele>1595.76</ele>
  <time>2026-08-28T19:10:59Z</time>
  <course>35.43</course>
  <speed>0.022360679774997897</speed>
  <fix>3d</fix>
</trkpt>
<trkpt lat="40.0727807" lon="-105.2307108">
  <ele>1595.7</ele>
  <time>2026-08-28T19:10:59Z</time>
  <course>315.99</course>
  <speed>0.05</speed>
  <fix>3d</fix>
</trkpt>
<trkpt lat="40.0727806" lon="-105.2307107">
  <ele>1595.76</ele>
  <time>2026-08-28T19:10:59Z</time>
  <course>35.4</course>
  <speed>0.022360679774997897</speed>
  <fix>3d</fix>
</trkpt>
<trkpt lat="40.0727808" lon="-105.2307108">
  <ele>1595.69</ele>
  <time>2026-08-28T19:10:59Z</time>
  <course>315.58</course>
  <speed>0.05</speed>
  <fix>3d</fix>
</trkpt>
<trkpt lat="40.0727807" lon="-105.2307108">
  <ele>1595.75</ele>
  <time>2026-08-28T19:10:59Z</time>
  <course>35.37</course>
  <speed>0.022360679774997897</speed>
  <fix>3d</fix>
</trkpt>
<trkpt lat="40.0727809" lon="-105.2307109">
  <ele>1595.69</ele>
  <time>2026-08-28T19:10:59Z</time>
  <course>315.33</course>
  <speed>0.05</speed>
  <fix>3d</fix>
</trkpt>
<trkpt lat="40.0727808" lon="-105.2307109">
  <ele>1595.75</ele>
  <time>2026-08-28T19:10:59Z</time>
  <course>35.4</course>
  <speed>0.022360679774997897</speed>
  <fix>3d</fix>
</trkpt>
<trkpt lat="40.072781" lon="-105.230711">
  <ele>1595.68</ele>
  <time>2026-08-28T19:10:59Z</time>
  <course>314.98</course>
  <speed>0.05</speed>
  <fix>3d</fix>
</trkpt>
<trkpt lat="40.0727809" lon="-105.230711">
  <ele>1595.75</ele>
  <time>2026-08-28T19:10:59Z</time>
  <course>35.37</course>
  <speed>0.03605551275463989</speed>
  <fix>3d</fix>
</trkpt>
<trkpt lat="40.072781" lon="-105.2307111">
  <ele>1595.68</ele>
  <time>2026-08-28T19:10:59Z</time>
  <course>314.51</course>
  <speed>0.05</speed>
  <fix>3d</fix>
</trkpt>
<trkpt lat="40.0727809" lon="-105.2307111">
  <ele>1595.75</ele>
  <time>2026-08-28T19:10:59Z</time>
  <course>35.41</course>
  <speed>0.044721359549995794</speed>
  <fix>3d</fix>
</trkpt>
<trkpt lat="40.0727811" lon="-105.2307112">
  <ele>1595.67</ele>
  <time>2026-08-28T19:10:59Z</time>
  <course>314.42</course>
  <speed>0.06</speed>
  <fix>3d</fix>
</trkpt>
<trkpt lat="40.072781" lon="-105.2307112">
  <ele>1595.74</ele>
  <time>2026-08-28T19:10:59Z</time>
  <course>35.39</course>
  <speed>0.044721359549995794</speed>
  <fix>3d</fix>
</trkpt>
<trkpt lat="40.0727812" lon="-105.2307113">
  <ele>1595.67</ele>
  <time>2026-08-28T19:10:59Z</time>
  <course>313.24</course>
  <speed>0.06</speed>
  <fix>3d</fix>
</trkpt>
<trkpt lat="40.0727811" lon="-105.2307113">
  <ele>1595.74</ele>
  <time>2026-08-28T19:10:59Z</time>
  <course>35.38</course>
  <speed>0.0316227766016838</speed>
  <fix>3d</fix>
</trkpt>
<trkpt lat="40.0727813" lon="-105.2307115">
  <ele>1595.67</ele>
  <time>2026-08-28T19:10:59Z</time>
  <course>311.69</course>
  <speed>0.06</speed>
  <fix>3d</fix>
</trkpt>
<trkpt lat="40.0727812" lon="-105.2307114">
  <ele>1595.74</ele>
  <time>2026-08-28T19:10:59Z</time>
  <course>35.37</course>
  <speed>0.022360679774997897</speed>
  <fix>3d</fix>
</trkpt>
<trkpt lat="40.0727813" lon="-105.2307116">
  <ele>1595.66</ele>
  <time>2026-08-28T19:10:59Z</time>
  <course>312.05</course>
  <speed>0.05</speed>
  <fix>3d</fix>
</trkpt>
<trkpt lat="40.0727812" lon="-105.2307115">
  <ele>1595.74</ele>
  <time>2026-08-28T19:10:59Z</time>
  <course>35.36</course>
  <speed>0.022360679774997897</speed>
  <fix>3d</fix>
</trkpt>
<trkpt lat="40.0727814" lon="-105.2307117">
  <ele>1595.66</ele>
  <time>2026-08-28T19:10:59Z</time>
  <course>314.02</course>
  <speed>0.05</speed>
  <fix>3d</fix>
</trkpt>
<trkpt lat="40.0727813" lon="-105.2307116">
  <ele>1595.74</ele>
  <time>2026-08-28T19:10:59Z</time>
  <course>35.37</course>
  <speed>0.01414213562373095</speed>
  <fix>3d</fix>
</trkpt>
<trkpt lat="40.0727815" lon="-105.2307118">
  <ele>1595.66</ele>
  <time>2026-08-28T19:10:59Z</time>
  <course>317.07</course>
  <speed>0.04</speed>
  <fix>3d</fix>
</trkpt>
<trkpt lat="40.0727813" lon="-105.2307117">
  <ele>1595.75</ele>
  <time>2026-08-28T19:10:59Z</time>
  <course>35.37</course>
  <speed>0.01414213562373095</speed>
  <fix>3d</fix>
</trkpt>
<trkpt lat="40.0727816" lon="-105.2307118">
  <ele>1595.66</ele>
  <time>2026-08-28T19:10:59Z</time>
  <course>320.32</course>
  <speed>0.04</speed>
  <fix>3d</fix>
</trkpt>
<trkpt lat="40.0727814" lon="-105.2307117">
  <ele>1595.75</ele>
  <time>2026-08-28T19:10:59Z</time>
  <course>35.37</course>
  <speed>0.01414213562373095</speed>
  <fix>3d</fix>
</trkpt>
<trkpt lat="40.0727816" lon="-105.2307119">
  <ele>1595.66</ele>
  <time>2026-08-28T19:10:59Z</time>
  <course>322.87</course>
  <speed>0.04</speed>
  <fix>3d</fix>
</trkpt>
<trkpt lat="40.0727815" lon="-105.2307118">
  <ele>1595.75</ele>
  <time>2026-08-28T19:10:59Z</time>
  <course>35.37</course>
  <speed>0.01414213562373095</speed>
  <fix>3d</fix>
</trkpt>
<trkpt lat="40.0727817" lon="-105.230712">
  <ele>1595.66</ele>
  <time>2026-08-28T19:10:59Z</time>
  <course>324.48</course>
  <speed>0.04</speed>
  <fix>3d</fix>
</trkpt>
<trkpt lat="40.0727815" lon="-105.2307119">
  <ele>1595.75</ele>
  <time>2026-08-28T19:10:59Z</time>
  <course>35.38</course>
  <speed>0.01414213562373095</speed>
  <fix>3d</fix>
</trkpt>
<trkpt lat="40.0727818" lon="-105.230712">
  <ele>1595.66</ele>
  <time>2026-08-28T19:10:59Z</time>
  <course>325.24</course>
  <speed>0.04</speed>
  <fix>3d</fix>
</trkpt>
<trkpt lat="40.0727816" lon="-105.2307119">
  <ele>1595.75</ele>
  <time>2026-08-28T19:10:59Z</time>
  <course>35.37</course>
  <speed>0.01414213562373095</speed>
  <fix>3d</fix>
</trkpt>
<trkpt lat="40.0727818" lon="-105.2307121">
  <ele>1595.65</ele>
  <time>2026-08-28T19:10:59Z</time>
  <course>325.49</course>
  <speed>0.04</speed>
  <fix>3d</fix>
</trkpt>
<trkpt lat="40.0727817" lon="-105.230712">
  <ele>1595.74</ele>
  <time>2026-08-28T19:10:59Z</time>
  <course>35.36</course>
  <speed>0.01414213562373095</speed>
  <fix>3d</fix>
</trkpt>
<trkpt lat="40.0727818" lon="-105.2307122">
  <ele>1595.65</ele>
  <time>2026-08-28T19:10:59Z</time>
  <course>325.59</course>
  <speed>0.04</speed>
  <fix>3d</fix>
</trkpt>
<trkpt lat="40.0727817" lon="-105.230712">
  <ele>1595.74</ele>
  <time>2026-08-28T19:10:59Z</time>
  <course>35.36</course>
  <speed>0.01414213562373095</speed>
  <fix>3d</fix>
</trkpt>
<trkpt lat="40.0727819" lon="-105.2307122">
  <ele>1595.65</ele>
  <time>2026-08-28T19:10:59Z</time>
  <course>325.49</course>
  <speed>0.04</speed>
  <fix>3d</fix>
</trkpt>
<trkpt lat="40.0727818" lon="-105.2307121">
  <ele>1595.73</ele>
  <time>2026-08-28T19:10:59Z</time>
  <course>35.36</course>
  <speed>0.0</speed>
  <fix>3d</fix>
</trkpt>
<trkpt lat="40.072782" lon="-105.2307122">
  <ele>1595.65</ele>
  <time>2026-08-28T19:10:59Z</time>
  <course>328.82</course>
  <speed>0.03</speed>
  <fix>3d</fix>
</trkpt>
<trkpt lat="40.0727818" lon="-105.2307121">
  <ele>1595.73</ele>
  <time>2026-08-28T19:10:59Z</time>
  <course>35.35</course>
  <speed>0.0</speed>
  <fix>3d</fix>
</trkpt>
<trkpt lat="40.0727821" lon="-105.2307123">
  <ele>1595.65</ele>
  <time>2026-08-28T19:10:59Z</time>
  <course>333.85</course>
  <speed>0.02</speed>
  <fix>3d</fix>
</trkpt>
<trkpt lat="40.0727819" lon="-105.2307122">
  <ele>1595.73</ele>
  <time>2026-08-28T19:10:59Z</time>
  <course>35.34</course>
  <speed>0.0</speed>
  <fix>3d</fix>
</trkpt>
<trkpt lat="40.0727821" lon="-105.2307124">
  <ele>1595.65</ele>
  <time>2026-08-28T19:10:59Z</time>
  <course>334.22</course>
  <speed>0.02</speed>
  <fix>3d</fix>
</trkpt>
<trkpt lat="40.0727819" lon="-105.2307122">
  <ele>1595.73</ele>
  <time>2026-08-28T19:10:59Z</time>
  <course>35.33</course>
  <speed>0.01</speed>
  <fix>3d</fix>
</trkpt>
<trkpt lat="40.0727822" lon="-105.2307124">
  <ele>1595.65</ele>
  <time>2026-08-28T19:10:59Z</time>
  <course>332.94</course>
  <speed>0.03</speed>
  <fix>3d</fix>
</trkpt>
<trkpt lat="40.072782" lon="-105.2307123">
  <ele>1595.73</ele>
  <time>2026-08-28T19:10:59Z</time>
  <course>35.33</course>
  <speed>0.01414213562373095</speed>
  <fix>3d</fix>
</trkpt>
<trkpt lat="40.0727822" lon="-105.2307124">
  <ele>1595.65</ele>
  <time>2026-08-28T19:10:59Z</time>
  <course>329.26</course>
  <speed>0.03</speed>
  <fix>3d</fix>
</trkpt>
<trkpt lat="40.0727821" lon="-105.2307123">
  <ele>1595.73</ele>
  <time>2026-08-28T19:10:59Z</time>
  <course>35.35</course>
  <speed>0.01414213562373095</speed>
  <fix>3d</fix>
</trkpt>
<trkpt lat="40.0727823" lon="-105.2307125">
  <ele>1595.65</ele>
  <time>2026-08-28T19:10:59Z</time>
  <course>325.5</course>
  <speed>0.04</speed>
  <fix>3d</fix>
</trkpt>
<trkpt lat="40.0727822" lon="-105.2307124">
  <ele>1595.74</ele>
  <time>2026-08-28T19:10:59Z</time>
  <course>35.35</course>
  <speed>0.022360679774997897</speed>
  <fix>3d</fix>
</trkpt>
<trkpt lat="40.0727823" lon="-105.2307125">
  <ele>1595.65</ele>
  <time>2026-08-28T19:10:59Z</time>
  <course>322.43</course>
  <speed>0.04</speed>
  <fix>3d</fix>
</trkpt>
<trkpt lat="40.0727822" lon="-105.2307125">
  <ele>1595.74</ele>
  <time>2026-08-28T19:10:59Z</time>
  <course>35.36</course>
  <speed>0.0282842712474619</speed>
  <fix>3d</fix>
</trkpt>
<trkpt lat="40.0727824" lon="-105.2307126">
  <ele>1595.65</ele>
  <time>2026-08-28T19:10:59Z</time>
  <course>320.02</course>
  <speed>0.05</speed>
  <fix>3d</fix>
</trkpt>
<trkpt lat="40.0727823" lon="-105.2307126">
  <ele>1595.74</ele>
  <time>2026-08-28T19:10:59Z</time>
  <course>35.36</course>
  <speed>0.03605551275463989</speed>
  <fix>3d</fix>
</trkpt>
<trkpt lat="40.0727825" lon="-105.2307127">
  <ele>1595.65</ele>
  <time>2026-08-28T19:10:59Z</time>
  <course>318.32</course>
  <speed>0.05</speed>
  <fix>3d</fix>
</trkpt>
<trkpt lat="40.0727824" lon="-105.2307127">
  <ele>1595.74</ele>
  <time>2026-08-28T19:10:59Z</time>
  <course>35.36</course>
  <speed>0.03605551275463989</speed>
  <fix>3d</fix>
</trkpt>
<trkpt lat="40.0727825" lon="-105.2307128">
  <ele>1595.65</ele>
  <time>2026-08-28T19:10:59Z</time>
  <course>317.23</course>
  <speed>0.06</speed>
  <fix>3d</fix>
</trkpt>
<trkpt lat="40.0727825" lon="-105.2307128">
  <ele>1595.74</ele>
  <time>2026-08-28T19:10:59Z</time>
  <course>35.36</course>
  <speed>0.03605551275463989</speed>
  <fix>3d</fix>
</trkpt>
<trkpt lat="40.0727826" lon="-105.2307129">
  <ele>1595.65</ele>
  <time>2026-08-28T19:10:59Z</time>
  <course>316.54</course>
  <speed>0.06</speed>
  <fix>3d</fix>
</trkpt>
<trkpt lat="40.0727826" lon="-105.2307129">
  <ele>1595.74</ele>
  <time>2026-08-28T19:10:59Z</time>
  <course>35.37</course>
  <speed>0.03605551275463989</speed>
  <fix>3d</fix>
</trkpt>
<trkpt lat="40.0727827" lon="-105.230713">
  <ele>1595.65</ele>
  <time>2026-08-28T19:10:59Z</time>
  <course>316.15</course>
  <speed>0.06</speed>
  <fix>3d</fix>
</trkpt>
<trkpt lat="40.0727826" lon="-105.230713">
  <ele>1595.74</ele>
  <time>2026-08-28T19:10:59Z</time>
  <course>35.37</course>
  <speed>0.03605551275463989</speed>
  <fix>3d</fix>
</trkpt>
<trkpt lat="40.0727828" lon="-105.2307131">
  <ele>1595.65</ele>
  <time>2026-08-28T19:10:59Z</time>
  <course>315.68</course>
  <speed>0.06</speed>
  <fix>3d</fix>
</trkpt>
<trkpt lat="40.0727827" lon="-105.2307131">
  <ele>1595.75</ele>
  <time>2026-08-28T19:10:59Z</time>
  <course>35.38</course>
  <speed>0.03605551275463989</speed>
  <fix>3d</fix>
</trkpt>
<trkpt lat="40.0727829" lon="-105.2307132">
  <ele>1595.65</ele>
  <time>2026-08-28T19:10:59Z</time>
  <course>315.09</course>
  <speed>0.06</speed>
  <fix>3d</fix>
</trkpt>
<trkpt lat="40.0727828" lon="-105.2307132">
  <ele>1595.75</ele>
  <time>2026-08-28T19:10:59Z</time>
  <course>35.37</course>
  <speed>0.03605551275463989</speed>
  <fix>3d</fix>
</trkpt>
<trkpt lat="40.072783" lon="-105.2307133">
  <ele>1595.65</ele>
  <time>2026-08-28T19:10:59Z</time>
  <course>314.78</course>
  <speed>0.06</speed>
  <fix>3d</fix>
</trkpt>
<trkpt lat="40.0727829" lon="-105.2307133">
  <ele>1595.74</ele>
  <time>2026-08-28T19:10:59Z</time>
  <course>35.37</course>
  <speed>0.03605551275463989</speed>
  <fix>3d</fix>
</trkpt>
<trkpt lat="40.072783" lon="-105.2307134">
  <ele>1595.65</ele>
  <time>2026-08-28T19:10:59Z</time>
  <course>314.37</course>
  <speed>0.06</speed>
  <fix>3d</fix>
</trkpt>
<trkpt lat="40.072783" lon="-105.2307134">
  <ele>1595.74</ele>
  <time>2026-08-28T19:10:59Z</time>
  <course>35.37</course>
  <speed>0.05</speed>
  <fix>3d</fix>
</trkpt>
<trkpt lat="40.0727831" lon="-105.2307135">
  <ele>1595.65</ele>
  <time>2026-08-28T19:10:59Z</time>
  <course>313.86</course>
  <speed>0.06</speed>
  <fix>3d</fix>
</trkpt>
<trkpt lat="40.0727831" lon="-105.2307136">
  <ele>1595.74</ele>
  <time>2026-08-28T19:10:59Z</time>
  <course>35.41</course>
  <speed>0.05</speed>
  <fix>3d</fix>
</trkpt>
<trkpt lat="40.0727832" lon="-105.2307137">
  <ele>1595.65</ele>
  <time>2026-08-28T19:10:59Z</time>
  <course>314.04</course>
  <speed>0.07</speed>
  <fix>3d</fix>
</trkpt>
<trkpt lat="40.0727832" lon="-105.2307137">
  <ele>1595.74</ele>
  <time>2026-08-28T19:10:59Z</time>
  <course>35.4</course>
  <speed>0.044721359549995794</speed>
  <fix>3d</fix>
</trkpt>
<trkpt lat="40.0727833" lon="-105.2307138">
  <ele>1595.65</ele>
  <time>2026-08-28T19:10:59Z</time>
  <course>313.06</course>
  <speed>0.07</speed>
  <fix>3d</fix>
</trkpt>
<trkpt lat="40.0727832" lon="-105.2307138">
  <ele>1595.73</ele>
  <time>2026-08-28T19:10:59Z</time>
  <course>35.39</course>
  <speed>0.0316227766016838</speed>
  <fix>3d</fix>
</trkpt>
<trkpt lat="40.0727834" lon="-105.2307139">
  <ele>1595.65</ele>
  <time>2026-08-28T19:10:59Z</time>
  <course>311.61</course>
  <speed>0.06</speed>
  <fix>3d</fix>
</trkpt>
<trkpt lat="40.0727833" lon="-105.2307139">
  <ele>1595.73</ele>
  <time>2026-08-28T19:10:59Z</time>
  <course>35.39</course>
  <speed>0.022360679774997897</speed>
  <fix>3d</fix>
</trkpt>
<trkpt lat="40.0727835" lon="-105.230714">
  <ele>1595.65</ele>
  <time>2026-08-28T19:10:59Z</time>
  <course>312.42</course>
  <speed>0.05</speed>
  <fix>3d</fix>
</trkpt>
<trkpt lat="40.0727834" lon="-105.230714">
  <ele>1595.73</ele>
  <time>2026-08-28T19:10:59Z</time>
  <course>35.39</course>
  <speed>0.02</speed>
  <fix>3d</fix>
</trkpt>
<trkpt lat="40.0727836" lon="-105.2307141">
  <ele>1595.65</ele>
  <time>2026-08-28T19:10:59Z</time>
  <course>315.13</course>
  <speed>0.05</speed>
  <fix>3d</fix>
</trkpt>
<trkpt lat="40.0727834" lon="-105.2307141">
  <ele>1595.74</ele>
  <time>2026-08-28T19:10:59Z</time>
  <course>35.39</course>
  <speed>0.01</speed>
  <fix>3d</fix>
</trkpt>
<trkpt lat="40.0727836" lon="-105.2307142">
  <ele>1595.65</ele>
  <time>2026-08-28T19:10:59Z</time>
  <course>318.89</course>
  <speed>0.04</speed>
  <fix>3d</fix>
</trkpt>
<trkpt lat="40.0727835" lon="-105.2307141">
  <ele>1595.74</ele>
  <time>2026-08-28T19:10:59Z</time>
  <course>35.39</course>
  <speed>0.01</speed>
  <fix>3d</fix>
</trkpt>
<trkpt lat="40.0727837" lon="-105.2307143">
  <ele>1595.65</ele>
  <time>2026-08-28T19:10:59Z</time>
  <course>322.53</course>
  <speed>0.04</speed>
  <fix>3d</fix>
</trkpt>
<trkpt lat="40.0727835" lon="-105.2307142">
  <ele>1595.74</ele>
  <time>2026-08-28T19:10:59Z</time>
  <course>35.38</course>
  <speed>0.01</speed>
  <fix>3d</fix>
</trkpt>
<trkpt lat="40.0727838" lon="-105.2307144">
  <ele>1595.65</ele>
  <time>2026-08-28T19:10:59Z</time>
  <course>325.24</course>
  <speed>0.04</speed>
  <fix>3d</fix>
</trkpt>
<trkpt lat="40.0727836" lon="-105.2307142">
  <ele>1595.74</ele>
  <time>2026-08-28T19:10:59Z</time>
  <course>35.38</course>
  <speed>0.0</speed>
  <fix>3d</fix>
</trkpt>
<trkpt lat="40.0727839" lon="-105.2307144">
  <ele>1595.65</ele>
  <time>2026-08-28T19:10:59Z</time>
  <course>326.85</course>
  <speed>0.04</speed>
  <fix>3d</fix>
</trkpt>
<trkpt lat="40.0727837" lon="-105.2307143">
  <ele>1595.74</ele>
  <time>2026-08-28T19:10:59Z</time>
  <course>35.38</course>
  <speed>0.0</speed>
  <fix>3d</fix>
</trkpt>
<trkpt lat="40.0727839" lon="-105.2307145">
  <ele>1595.65</ele>
  <time>2026-08-28T19:10:59Z</time>
  <course>327.54</course>
  <speed>0.04</speed>
  <fix>3d</fix>
</trkpt>
<trkpt lat="40.0727837" lon="-105.2307143">
  <ele>1595.74</ele>
  <time>2026-08-28T19:10:59Z</time>
  <course>35.38</course>
  <speed>0.0</speed>
  <fix>3d</fix>
</trkpt>
<trkpt lat="40.072784" lon="-105.2307146">
  <ele>1595.65</ele>
  <time>2026-08-28T19:10:59Z</time>
  <course>327.52</course>
  <speed>0.04</speed>
  <fix>3d</fix>
</trkpt>
<trkpt lat="40.0727838" lon="-105.2307144">
  <ele>1595.75</ele>
  <time>2026-08-28T19:10:59Z</time>
  <course>35.39</course>
  <speed>0.0</speed>
  <fix>3d</fix>
</trkpt>
<trkpt lat="40.0727841" lon="-105.2307146">
  <ele>1595.65</ele>
  <time>2026-08-28T19:10:59Z</time>
  <course>327.09</course>
  <speed>0.04</speed>
  <fix>3d</fix>
</trkpt>
<trkpt lat="40.0727839" lon="-105.2307145">
  <ele>1595.75</ele>
  <time>2026-08-28T19:10:59Z</time>
  <course>35.38</course>
  <speed>0.0</speed>
  <fix>3d</fix>
</trkpt>
<trkpt lat="40.0727841" lon="-105.2307146">
  <ele>1595.65</ele>
  <time>2026-08-28T19:10:59Z</time>
  <course>326.87</course>
  <speed>0.04</speed>
  <fix>3d</fix>
</trkpt>
<trkpt lat="40.0727839" lon="-105.2307145">
  <ele>1595.74</ele>
  <time>2026-08-28T19:10:59Z</time>
  <course>35.39</course>
  <speed>0.0</speed>
  <fix>3d</fix>
</trkpt>
<trkpt lat="40.0727842" lon="-105.2307147">
  <ele>1595.65</ele>
  <time>2026-08-28T19:10:59Z</time>
  <course>326.69</course>
  <speed>0.04</speed>
  <fix>3d</fix>
</trkpt>
<trkpt lat="40.072784" lon="-105.2307146">
  <ele>1595.74</ele>
  <time>2026-08-28T19:10:59Z</time>
  <course>35.36</course>
  <speed>0.0</speed>
  <fix>3d</fix>
</trkpt>
<trkpt lat="40.0727842" lon="-105.2307148">
  <ele>1595.65</ele>
  <time>2026-08-28T19:10:59Z</time>
  <course>329.48</course>
  <speed>0.03</speed>
  <fix>3d</fix>
</trkpt>
<trkpt lat="40.072784" lon="-105.2307146">
  <ele>1595.74</ele>
  <time>2026-08-28T19:10:59Z</time>
  <course>35.36</course>
  <speed>0.0</speed>
  <fix>3d</fix>
</trkpt>
<trkpt lat="40.0727842" lon="-105.2307148">
  <ele>1595.65</ele>
  <time>2026-08-28T19:10:59Z</time>
  <course>336.24</course>
  <speed>0.02</speed>
  <fix>3d</fix>
</trkpt>
<trkpt lat="40.0727841" lon="-105.2307146">
  <ele>1595.74</ele>
  <time>2026-08-28T19:10:59Z</time>
  <course>35.35</course>
  <speed>0.0</speed>
  <fix>3d</fix>
</trkpt>
<trkpt lat="40.0727843" lon="-105.2307148">
  <ele>1595.64</ele>
  <time>2026-08-28T19:10:59Z</time>
  <course>336.34</course>
  <speed>0.03</speed>
  <fix>3d</fix>
</trkpt>
<trkpt lat="40.0727842" lon="-105.2307147">
  <ele>1595.74</ele>
  <time>2026-08-28T19:10:59Z</time>
  <course>35.35</course>
  <speed>0.01414213562373095</speed>
  <fix>3d</fix>
</trkpt>
<trkpt lat="40.0727844" lon="-105.2307149">
  <ele>1595.64</ele>
  <time>2026-08-28T19:10:59Z</time>
  <course>332.64</course>
  <speed>0.03</speed>
  <fix>3d</fix>
</trkpt>
<trkpt lat="40.0727842" lon="-105.2307147">
  <ele>1595.73</ele>
  <time>2026-08-28T19:10:59Z</time>
  <course>35.35</course>
  <speed>0.01414213562373095</speed>
  <fix>3d</fix>
</trkpt>
<trkpt lat="40.0727845" lon="-105.2307149">
  <ele>1595.64</ele>
  <time>2026-08-28T19:10:59Z</time>
  <course>328.84</course>
  <speed>0.04</speed>
  <fix>3d</fix>
</trkpt>
<trkpt lat="40.0727843" lon="-105.2307148">
  <ele>1595.73</ele>
  <time>2026-08-28T19:10:59Z</time>
  <course>35.35</course>
  <speed>0.022360679774997897</speed>
  <fix>3d</fix>
</trkpt>
<trkpt lat="40.0727845" lon="-105.2307149">
  <ele>1595.65</ele>
  <time>2026-08-28T19:10:59Z</time>
  <course>325.45</course>
  <speed>0.04</speed>
  <fix>3d</fix>
</trkpt>
<trkpt lat="40.0727844" lon="-105.2307149">
  <ele>1595.74</ele>
  <time>2026-08-28T19:10:59Z</time>
  <course>35.35</course>
  <speed>0.0282842712474619</speed>
  <fix>3d</fix>
</trkpt>
<trkpt lat="40.0727846" lon="-105.230715">
  <ele>1595.65</ele>
  <time>2026-08-28T19:10:59Z</time>
  <course>322.75</course>
  <speed>0.05</speed>
  <fix>3d</fix>
</trkpt>
<trkpt lat="40.0727845" lon="-105.230715">
  <ele>1595.74</ele>
  <time>2026-08-28T19:10:59Z</time>
  <course>35.37</course>
  <speed>0.0282842712474619</speed>
  <fix>3d</fix>
</trkpt>
<trkpt lat="40.0727847" lon="-105.2307151">
  <ele>1595.65</ele>
  <time>2026-08-28T19:10:59Z</time>
  <course>320.43</course>
  <speed>0.05</speed>
  <fix>3d</fix>
</trkpt>
<trkpt lat="40.0727846" lon="-105.2307151">
  <ele>1595.74</ele>
  <time>2026-08-28T19:10:59Z</time>
  <course>35.37</course>
  <speed>0.03605551275463989</speed>
  <fix>3d</fix>
</trkpt>
<trkpt lat="40.0727848" lon="-105.2307152">
  <ele>1595.65</ele>
  <time>2026-08-28T19:10:59Z</time>
  <course>318.61</course>
  <speed>0.06</speed>
  <fix>3d</fix>
</trkpt>
<trkpt lat="40.0727847" lon="-105.2307152">
  <ele>1595.74</ele>
  <time>2026-08-28T19:10:59Z</time>
  <course>35.37</course>
  <speed>0.03605551275463989</speed>
  <fix>3d</fix>
</trkpt>
<trkpt lat="40.0727848" lon="-105.2307153">
  <ele>1595.65</ele>
  <time>2026-08-28T19:10:59Z</time>
  <course>317.38</course>
  <speed>0.06</speed>
  <fix>3d</fix>
</trkpt>
<trkpt lat="40.0727848" lon="-105.2307153">
  <ele>1595.74</ele>
  <time>2026-08-28T19:10:59Z</time>
  <course>35.38</course>
  <speed>0.03605551275463989</speed>
  <fix>3d</fix>
</trkpt>
<trkpt lat="40.0727849" lon="-105.2307154">
  <ele>1595.65</ele>
  <time>2026-08-28T19:10:59Z</time>
  <course>316.55</course>
  <speed>0.06</speed>
  <fix>3d</fix>
</trkpt>
<trkpt lat="40.0727848" lon="-105.2307154">
  <ele>1595.74</ele>
  <time>2026-08-28T19:10:59Z</time>
  <course>35.37</course>
  <speed>0.03605551275463989</speed>
  <fix>3d</fix>
</trkpt>
<trkpt lat="40.072785" lon="-105.2307155">
  <ele>1595.65</ele>
  <time>2026-08-28T19:10:59Z</time>
  <course>315.87</course>
  <speed>0.06</speed>
  <fix>3d</fix>
</trkpt>
<trkpt lat="40.0727849" lon="-105.2307155">
  <ele>1595.74</ele>
  <time>2026-08-28T19:10:59Z</time>
  <course>35.37</course>
  <speed>0.03605551275463989</speed>
  <fix>3d</fix>
</trkpt>
<trkpt lat="40.0727851" lon="-105.2307156">
  <ele>1595.65</ele>
  <time>2026-08-28T19:10:59Z</time>
  <course>315.2</course>
  <speed>0.06</speed>
  <fix>3d</fix>
</trkpt>
<trkpt lat="40.072785" lon="-105.2307156">
  <ele>1595.74</ele>
  <time>2026-08-28T19:10:59Z</time>
  <course>35.37</course>
  <speed>0.03605551275463989</speed>
  <fix>3d</fix>
</trkpt>
<trkpt lat="40.0727852" lon="-105.2307157">
  <ele>1595.65</ele>
  <time>2026-08-28T19:10:59Z</time>
  <course>314.86</course>
  <speed>0.06</speed>
  <fix>3d</fix>
</trkpt>
<trkpt lat="40.0727851" lon="-105.2307157">
  <ele>1595.74</ele>
  <time>2026-08-28T19:10:59Z</time>
  <course>35.37</course>
  <speed>0.03605551275463989</speed>
  <fix>3d</fix>
</trkpt>
<trkpt lat="40.0727853" lon="-105.2307158">
  <ele>1595.65</ele>
  <time>2026-08-28T19:10:59Z</time>
  <course>314.44</course>
  <speed>0.06</speed>
  <fix>3d</fix>
</trkpt>
<trkpt lat="40.0727852" lon="-105.2307158">
  <ele>1595.74</ele>
  <time>2026-08-28T19:10:59Z</time>
  <course>35.37</course>
  <speed>0.03605551275463989</speed>
  <fix>3d</fix>
</trkpt>
<trkpt lat="40.0727853" lon="-105.2307159">
  <ele>1595.65</ele>
  <time>2026-08-28T19:10:59Z</time>
  <course>313.93</course>
  <speed>0.06</speed>
  <fix>3d</fix>
</trkpt>
<trkpt lat="40.0727853" lon="-105.230716">
  <ele>1595.74</ele>
  <time>2026-08-28T19:10:59Z</time>
  <course>35.38</course>
  <speed>0.05830951894845301</speed>
  <fix>3d</fix>
</trkpt>
<trkpt lat="40.0727854" lon="-105.2307161">
  <ele>1595.65</ele>
  <time>2026-08-28T19:10:59Z</time>
  <course>313.26</course>
  <speed>0.07</speed>
  <fix>3d</fix>
</trkpt>
<trkpt lat="40.0727854" lon="-105.2307161">
  <ele>1595.74</ele>
  <time>2026-08-28T19:10:59Z</time>
  <course>35.38</course>
  <speed>0.05830951894845301</speed>
  <fix>3d</fix>
</trkpt>
<trkpt lat="40.0727855" lon="-105.2307162">
  <ele>1595.65</ele>
  <time>2026-08-28T19:10:59Z</time>
  <course>312.82</course>
  <speed>0.08</speed>
  <fix>3d</fix>
</trkpt>
<trkpt lat="40.0727855" lon="-105.2307163">
  <ele>1595.73</ele>
  <time>2026-08-28T19:10:59Z</time>
  <course>35.37</course>
  <speed>0.044721359549995794</speed>
  <fix>3d</fix>
</trkpt>
<trkpt lat="40.0727856" lon="-105.2307163">
  <ele>1595.65</ele>
  <time>2026-08-28T19:10:59Z</time>
  <course>312.09</course>
  <speed>0.07</speed>
  <fix>3d</fix>
</trkpt>
<trkpt lat="40.0727856" lon="-105.2307164">
  <ele>1595.73</ele>
  <time>2026-08-28T19:10:59Z</time>
  <course>35.36</course>
  <speed>0.044721359549995794</speed>
  <fix>3d</fix>
</trkpt>
<trkpt lat="40.0727857" lon="-105.2307165">
  <ele>1595.65</ele>
  <time>2026-08-28T19:10:59Z</time>
  <course>311.45</course>
  <speed>0.06</speed>
  <fix>3d</fix>
</trkpt>
<trkpt lat="40.0727856" lon="-105.2307165">
  <ele>1595.73</ele>
  <time>2026-08-28T19:10:59Z</time>
  <course>35.37</course>
  <speed>0.0316227766016838</speed>
  <fix>3d</fix>
</trkpt>
<trkpt lat="40.0727858" lon="-105.2307166">
  <ele>1595.65</ele>
  <time>2026-08-28T19:10:59Z</time>
  <course>312.86</course>
  <speed>0.05</speed>
  <fix>3d</fix>
</trkpt>
<trkpt lat="40.0727857" lon="-105.2307166">
  <ele>1595.73</ele>
  <time>2026-08-28T19:10:59Z</time>
  <course>35.38</course>
  <speed>0.022360679774997897</speed>
  <fix>3d</fix>
</trkpt>
<trkpt lat="40.0727859" lon="-105.2307167">
  <ele>1595.65</ele>
  <time>2026-08-28T19:10:59Z</time>
  <course>316.44</course>
  <speed>0.04</speed>
  <fix>3d</fix>
</trkpt>
<trkpt lat="40.0727857" lon="-105.2307166">
  <ele>1595.73</ele>
  <time>2026-08-28T19:10:59Z</time>
  <course>35.39</course>
  <speed>0.01414213562373095</speed>
  <fix>3d</fix>
</trkpt>
<trkpt lat="40.0727859" lon="-105.2307167">
  <ele>1595.65</ele>
  <time>2026-08-28T19:10:59Z</time>
  <course>320.96</course>
  <speed>0.04</speed>
  <fix>3d</fix>
</trkpt>
<trkpt lat="40.0727858" lon="-105.2307167">
  <ele>1595.73</ele>
  <time>2026-08-28T19:10:59Z</time>
  <course>35.39</course>
  <speed>0.01</speed>
  <fix>3d</fix>
</trkpt>
<trkpt lat="40.072786" lon="-105.2307168">
  <ele>1595.65</ele>
  <time>2026-08-28T19:10:59Z</time>
  <course>324.93</course>
  <speed>0.03</speed>
  <fix>3d</fix>
</trkpt>
<trkpt lat="40.0727859" lon="-105.2307167">
  <ele>1595.73</ele>
  <time>2026-08-28T19:10:59Z</time>
  <course>35.39</course>
  <speed>0.01</speed>
  <fix>3d</fix>
</trkpt>
<trkpt lat="40.072786" lon="-105.2307168">
  <ele>1595.65</ele>
  <time>2026-08-28T19:10:59Z</time>
  <course>327.33</course>
  <speed>0.03</speed>
  <fix>3d</fix>
</trkpt>
<trkpt lat="40.0727859" lon="-105.2307168">
  <ele>1595.73</ele>
  <time>2026-08-28T19:10:59Z</time>
  <course>35.38</course>
  <speed>0.0</speed>
  <fix>3d</fix>
</trkpt>
<trkpt lat="40.0727861" lon="-105.2307169">
  <ele>1595.65</ele>
  <time>2026-08-28T19:10:59Z</time>
  <course>328.04</course>
  <speed>0.03</speed>
  <fix>3d</fix>
</trkpt>
<trkpt lat="40.072786" lon="-105.2307168">
  <ele>1595.74</ele>
  <time>2026-08-28T19:10:59Z</time>
  <course>35.38</course>
  <speed>0.0</speed>
  <fix>3d</fix>
</trkpt>
<trkpt lat="40.0727861" lon="-105.230717">
  <ele>1595.66</ele>
  <time>2026-08-28T19:10:59Z</time>
  <course>327.44</course>
  <speed>0.03</speed>
  <fix>3d</fix>
</trkpt>
<trkpt lat="40.072786" lon="-105.2307169">
  <ele>1595.75</ele>
  <time>2026-08-28T19:10:59Z</time>
  <course>35.38</course>
  <speed>0.0</speed>
  <fix>3d</fix>
</trkpt>
<trkpt lat="40.0727862" lon="-105.230717">
  <ele>1595.66</ele>
  <time>2026-08-28T19:10:59Z</time>
  <course>326.41</course>
  <speed>0.04</speed>
  <fix>3d</fix>
</trkpt>
<trkpt lat="40.0727861" lon="-105.2307169">
  <ele>1595.75</ele>
  <time>2026-08-28T19:10:59Z</time>
  <course>35.38</course>
  <speed>0.01</speed>
  <fix>3d</fix>
</trkpt>
<trkpt lat="40.0727863" lon="-105.230717">
  <ele>1595.66</ele>
  <time>2026-08-28T19:10:59Z</time>
  <course>325.62</course>
  <speed>0.04</speed>
  <fix>3d</fix>
</trkpt>
<trkpt lat="40.0727861" lon="-105.230717">
  <ele>1595.75</ele>
  <time>2026-08-28T19:10:59Z</time>
  <course>35.37</course>
  <speed>0.01</speed>
  <fix>3d</fix>
</trkpt>
<trkpt lat="40.0727863" lon="-105.2307171">
  <ele>1595.66</ele>
  <time>2026-08-28T19:10:59Z</time>
  <course>325.31</course>
  <speed>0.04</speed>
  <fix>3d</fix>
</trkpt>
<trkpt lat="40.0727862" lon="-105.230717">
  <ele>1595.74</ele>
  <time>2026-08-28T19:10:59Z</time>
  <course>35.38</course>
  <speed>0.01414213562373095</speed>
  <fix>3d</fix>
</trkpt>
<trkpt lat="40.0727864" lon="-105.2307172">
  <ele>1595.66</ele>
  <time>2026-08-28T19:10:59Z</time>
  <course>325.38</course>
  <speed>0.04</speed>
  <fix>3d</fix>
</trkpt>
<trkpt lat="40.0727863" lon="-105.2307171">
  <ele>1595.74</ele>
  <time>2026-08-28T19:10:59Z</time>
  <course>35.39</course>
  <speed>0.0</speed>
  <fix>3d</fix>
</trkpt>
<trkpt lat="40.0727865" lon="-105.2307172">
  <ele>1595.66</ele>
  <time>2026-08-28T19:10:59Z</time>
  <course>329.58</course>
  <speed>0.03</speed>
  <fix>3d</fix>
</trkpt>
<trkpt lat="40.0727863" lon="-105.2307171">
  <ele>1595.73</ele>
  <time>2026-08-28T19:10:59Z</time>
  <course>35.37</course>
  <speed>0.0</speed>
  <fix>3d</fix>
</trkpt>
<trkpt lat="40.0727865" lon="-105.2307173">
  <ele>1595.66</ele>
  <time>2026-08-28T19:10:59Z</time>
  <course>336.18</course>
  <speed>0.02</speed>
  <fix>3d</fix>
</trkpt>
<trkpt lat="40.0727864" lon="-105.2307171">
  <ele>1595.73</ele>
  <time>2026-08-28T19:10:59Z</time>
  <course>35.35</course>
  <speed>0.0</speed>
  <fix>3d</fix>
</trkpt>
<trkpt lat="40.0727866" lon="-105.2307173">
  <ele>1595.66</ele>
  <time>2026-08-28T19:10:59Z</time>
  <course>335.49</course>
  <speed>0.02</speed>
  <fix>3d</fix>
</trkpt>
<trkpt lat="40.0727864" lon="-105.2307172">
  <ele>1595.73</ele>
  <time>2026-08-28T19:10:59Z</time>
  <course>35.36</course>
  <speed>0.01414213562373095</speed>
  <fix>3d</fix>
</trkpt>
<trkpt lat="40.0727866" lon="-105.2307173">
  <ele>1595.66</ele>
  <time>2026-08-28T19:10:59Z</time>
  <course>332.91</course>
  <speed>0.03</speed>
  <fix>3d</fix>
</trkpt>
<trkpt lat="40.0727865" lon="-105.2307172">
  <ele>1595.73</ele>
  <time>2026-08-28T19:10:59Z</time>
  <course>35.36</course>
  <speed>0.01414213562373095</speed>
  <fix>3d</fix>
</trkpt>
<trkpt lat="40.0727866" lon="-105.2307173">
  <ele>1595.66</ele>
  <time>2026-08-28T19:10:59Z</time>
  <course>328.67</course>
  <speed>0.03</speed>
  <fix>3d</fix>
</trkpt>
<trkpt lat="40.0727865" lon="-105.2307173">
  <ele>1595.74</ele>
  <time>2026-08-28T19:10:59Z</time>
  <course>35.36</course>
  <speed>0.022360679774997897</speed>
  <fix>3d</fix>
</trkpt>
<trkpt lat="40.0727867" lon="-105.2307174">
  <ele>1595.66</ele>
  <time>2026-08-28T19:10:59Z</time>
  <course>324.65</course>
  <speed>0.04</speed>
  <fix>3d</fix>
</trkpt>
<trkpt lat="40.0727866" lon="-105.2307174">
  <ele>1595.74</ele>
  <time>2026-08-28T19:10:59Z</time>
  <course>35.36</course>
  <speed>0.022360679774997897</speed>
  <fix>3d</fix>
</trkpt>
<trkpt lat="40.0727868" lon="-105.2307175">
  <ele>1595.67</ele>
  <time>2026-08-28T19:10:59Z</time>
  <course>321.38</course>
  <speed>0.04</speed>
  <fix>3d</fix>
</trkpt>
<trkpt lat="40.0727867" lon="-105.2307175">
  <ele>1595.74</ele>
  <time>2026-08-28T19:10:59Z</time>
  <course>35.36</course>
  <speed>0.0282842712474619</speed>
  <fix>3d</fix>
</trkpt>
<trkpt lat="40.0727868" lon="-105.2307175">
  <ele>1595.67</ele>
  <time>2026-08-28T19:10:59Z</time>
  <course>318.82</course>
  <speed>0.05</speed>
  <fix>3d</fix>
</trkpt>
<trkpt lat="40.0727868" lon="-105.2307175">
  <ele>1595.75</ele>
  <time>2026-08-28T19:10:59Z</time>
  <course>35.37</course>
  <speed>0.03605551275463989</speed>
  <fix>3d</fix>
</trkpt>
<trkpt lat="40.0727869" lon="-105.2307176">
  <ele>1595.67</ele>
  <time>2026-08-28T19:10:59Z</time>
  <course>316.84</course>
  <speed>0.05</speed>
  <fix>3d</fix>
</trkpt>
<trkpt lat="40.0727868" lon="-105.2307176">
  <ele>1595.75</ele>
  <time>2026-08-28T19:10:59Z</time>
  <course>35.37</course>
  <speed>0.03605551275463989</speed>
  <fix>3d</fix>
</trkpt>
<trkpt lat="40.072787" lon="-105.2307177">
  <ele>1595.67</ele>
  <time>2026-08-28T19:10:59Z</time>
  <course>315.5</course>
  <speed>0.06</speed>
  <fix>3d</fix>
</trkpt>
<trkpt lat="40.0727869" lon="-105.2307177">
  <ele>1595.75</ele>
  <time>2026-08-28T19:10:59Z</time>
  <course>35.38</course>
  <speed>0.03605551275463989</speed>
  <fix>3d</fix>
</trkpt>
<trkpt lat="40.0727871" lon="-105.2307178">
  <ele>1595.67</ele>
  <time>2026-08-28T19:10:59Z</time>
  <course>314.79</course>
  <speed>0.06</speed>
  <fix>3d</fix>
</trkpt>
<trkpt lat="40.072787" lon="-105.2307178">
  <ele>1595.76</ele>
  <time>2026-08-28T19:10:59Z</time>
  <course>35.41</course>
  <speed>0.03605551275463989</speed>
  <fix>3d</fix>
</trkpt>
<trkpt lat="40.0727872" lon="-105.2307179">
  <ele>1595.67</ele>
  <time>2026-08-28T19:10:59Z</time>
  <course>314.31</course>
  <speed>0.06</speed>
  <fix>3d</fix>
</trkpt>
<trkpt lat="40.0727871" lon="-105.2307179">
  <ele>1595.75</ele>
  <time>2026-08-28T19:10:59Z</time>
  <course>35.4</course>
  <speed>0.03605551275463989</speed>
  <fix>3d</fix>
</trkpt>
<trkpt lat="40.0727872" lon="-105.230718">
  <ele>1595.67</ele>
  <time>2026-08-28T19:10:59Z</time>
  <course>313.88</course>
  <speed>0.06</speed>
  <fix>3d</fix>
</trkpt>
<trkpt lat="40.0727872" lon="-105.2307181">
  <ele>1595.75</ele>
  <time>2026-08-28T19:10:59Z</time>
  <course>35.4</course>
  <speed>0.03605551275463989</speed>
  <fix>3d</fix>
</trkpt>
<trkpt lat="40.0727873" lon="-105.2307181">
  <ele>1595.66</ele>
  <time>2026-08-28T19:10:59Z</time>
  <course>313.56</course>
  <speed>0.06</speed>
  <fix>3d</fix>
</trkpt>
<trkpt lat="40.0727873" lon="-105.2307182">
  <ele>1595.74</ele>
  <time>2026-08-28T19:10:59Z</time>
  <course>35.38</course>
  <speed>0.03605551275463989</speed>
  <fix>3d</fix>
</trkpt>
<trkpt lat="40.0727874" lon="-105.2307183">
  <ele>1595.66</ele>
  <time>2026-08-28T19:10:59Z</time>
  <course>313.35</course>
  <speed>0.06</speed>
  <fix>3d</fix>
</trkpt>
<trkpt lat="40.0727873" lon="-105.2307183">
  <ele>1595.74</ele>
  <time>2026-08-28T19:10:59Z</time>
  <course>35.37</course>
  <speed>0.03605551275463989</speed>
  <fix>3d</fix>
</trkpt>
<trkpt lat="40.0727875" lon="-105.2307184">
  <ele>1595.66</ele>
  <time>2026-08-28T19:10:59Z</time>
  <course>313.18</course>
  <speed>0.06</speed>
  <fix>3d</fix>
</trkpt>
<trkpt lat="40.0727874" lon="-105.2307184">
  <ele>1595.74</ele>
  <time>2026-08-28T19:10:59Z</time>
  <course>35.36</course>
  <speed>0.05830951894845301</speed>
  <fix>3d</fix>
</trkpt>
<trkpt lat="40.0727876" lon="-105.2307185">
  <ele>1595.66</ele>
  <time>2026-08-28T19:10:59Z</time>
  <course>312.7</course>
  <speed>0.06</speed>
  <fix>3d</fix>
</trkpt>
<trkpt lat="40.0727875" lon="-105.2307186">
  <ele>1595.74</ele>
  <time>2026-08-28T19:10:59Z</time>
  <course>35.43</course>
  <speed>0.05</speed>
  <fix>3d</fix>
</trkpt>
<trkpt lat="40.0727877" lon="-105.2307186">
  <ele>1595.66</ele>
  <time>2026-08-28T19:10:59Z</time>
  <course>313.1</course>
  <speed>0.07</speed>
  <fix>3d</fix>
</trkpt>
<trkpt lat="40.0727876" lon="-105.2307187">
  <ele>1595.74</ele>
  <time>2026-08-28T19:10:59Z</time>
  <course>35.42</course>
  <speed>0.044721359549995794</speed>
  <fix>3d</fix>
</trkpt>
<trkpt lat="40.0727878" lon="-105.2307188">
  <ele>1595.66</ele>
  <time>2026-08-28T19:10:59Z</time>
  <course>312.26</course>
  <speed>0.07</speed>
  <fix>3d</fix>
</trkpt>
<trkpt lat="40.0727877" lon="-105.2307188">
  <ele>1595.75</ele>
  <time>2026-08-28T19:10:59Z</time>
  <course>35.4</course>
  <speed>0.0316227766016838</speed>
  <fix>3d</fix>
</trkpt>
<trkpt lat="40.0727879" lon="-105.2307189">
  <ele>1595.66</ele>
  <time>2026-08-28T19:10:59Z</time>
  <course>310.32</course>
  <speed>0.07</speed>
  <fix>3d</fix>
</trkpt>
<trkpt lat="40.0727878" lon="-105.2307189">
  <ele>1595.75</ele>
  <time>2026-08-28T19:10:59Z</time>
  <course>35.39</course>
  <speed>0.0316227766016838</speed>
  <fix>3d</fix>
</trkpt>
<trkpt lat="40.0727879" lon="-105.230719">
  <ele>1595.66</ele>
  <time>2026-08-28T19:10:59Z</time>
  <course>310.63</course>
  <speed>0.06</speed>
  <fix>3d</fix>
</trkpt>
<trkpt lat="40.0727878" lon="-105.230719">
  <ele>1595.75</ele>
  <time>2026-08-28T19:10:59Z</time>
  <course>35.38</course>
  <speed>0.022360679774997897</speed>
  <fix>3d</fix>
</trkpt>
<trkpt lat="40.072788" lon="-105.2307191">
  <ele>1595.66</ele>
  <time>2026-08-28T19:10:59Z</time>
  <course>313.02</course>
  <speed>0.06</speed>
  <fix>3d</fix>
</trkpt>
<trkpt lat="40.0727879" lon="-105.2307191">
  <ele>1595.75</ele>
  <time>2026-08-28T19:10:59Z</time>
  <course>35.38</course>
  <speed>0.022360679774997897</speed>
  <fix>3d</fix>
</trkpt>
<trkpt lat="40.0727881" lon="-105.2307192">
  <ele>1595.66</ele>
  <time>2026-08-28T19:10:59Z</time>
  <course>317.0</course>
  <speed>0.05</speed>
  <fix>3d</fix>
</trkpt>
<trkpt lat="40.072788" lon="-105.2307192">
  <ele>1595.75</ele>
  <time>2026-08-28T19:10:59Z</time>
  <course>35.41</course>
  <speed>0.022360679774997897</speed>
  <fix>3d</fix>
</trkpt>
<trkpt lat="40.0727882" lon="-105.2307193">
  <ele>1595.66</ele>
  <time>2026-08-28T19:10:59Z</time>
  <course>321.92</course>
  <speed>0.04</speed>
  <fix>3d</fix>
</trkpt>
<trkpt lat="40.072788" lon="-105.2307192">
  <ele>1595.74</ele>
  <time>2026-08-28T19:10:59Z</time>
  <course>35.41</course>
  <speed>0.01414213562373095</speed>
  <fix>3d</fix>
</trkpt>
<trkpt lat="40.0727882" lon="-105.2307194">
  <ele>1595.65</ele>
  <time>2026-08-28T19:10:59Z</time>
  <course>326.82</course>
  <speed>0.04</speed>
  <fix>3d</fix>
</trkpt>
<trkpt lat="40.0727881" lon="-105.2307193">
  <ele>1595.74</ele>
  <time>2026-08-28T19:10:59Z</time>
  <course>35.41</course>
  <speed>0.01414213562373095</speed>
  <fix>3d</fix>
</trkpt>
<trkpt lat="40.0727883" lon="-105.2307194">
  <ele>1595.65</ele>
  <time>2026-08-28T19:10:59Z</time>
  <course>330.14</course>
  <speed>0.03</speed>
  <fix>3d</fix>
</trkpt>
<trkpt lat="40.0727882" lon="-105.2307193">
  <ele>1595.73</ele>
  <time>2026-08-28T19:11:00Z</time>
  <course>35.42</course>
  <speed>0.0</speed>
  <fix>3d</fix>
</trkpt>
<trkpt lat="40.0727883" lon="-105.2307194">
  <ele>1595.65</ele>
  <time>2026-08-28T19:11:00Z</time>
  <course>330.58</course>
  <speed>0.03</speed>
  <fix>3d</fix>
</trkpt>
<trkpt lat="40.0727882" lon="-105.2307194">
  <ele>1595.73</ele>
  <time>2026-08-28T19:11:00Z</time>
  <course>35.4</course>
  <speed>0.0</speed>
  <fix>3d</fix>
</trkpt>
<trkpt lat="40.0727884" lon="-105.2307195">
  <ele>1595.65</ele>
  <time>2026-08-28T19:11:00Z</time>
  <course>328.97</course>
  <speed>0.03</speed>
  <fix>3d</fix>
</trkpt>
<trkpt lat="40.0727883" lon="-105.2307194">
  <ele>1595.73</ele>
  <time>2026-08-28T19:11:00Z</time>
  <course>35.38</course>
  <speed>0.0</speed>
  <fix>3d</fix>
</trkpt>
<trkpt lat="40.0727885" lon="-105.2307196">
  <ele>1595.65</ele>
  <time>2026-08-28T19:11:00Z</time>
  <course>327.23</course>
  <speed>0.04</speed>
  <fix>3d</fix>
</trkpt>
<trkpt lat="40.0727883" lon="-105.2307195">
  <ele>1595.73</ele>
  <time>2026-08-28T19:11:00Z</time>
  <course>35.35</course>
  <speed>0.01</speed>
  <fix>3d</fix>
</trkpt>
<trkpt lat="40.0727885" lon="-105.2307196">
  <ele>1595.65</ele>
  <time>2026-08-28T19:11:00Z</time>
  <course>326.43</course>
  <speed>0.04</speed>
  <fix>3d</fix>
</trkpt>
<trkpt lat="40.0727884" lon="-105.2307195">
  <ele>1595.74</ele>
  <time>2026-08-28T19:11:00Z</time>
  <course>35.36</course>
  <speed>0.01414213562373095</speed>
  <fix>3d</fix>
</trkpt>
<trkpt lat="40.0727885" lon="-105.2307197">
  <ele>1595.65</ele>
  <time>2026-08-28T19:11:00Z</time>
  <course>326.81</course>
  <speed>0.04</speed>
  <fix>3d</fix>
</trkpt>
<trkpt lat="40.0727884" lon="-105.2307196">
  <ele>1595.75</ele>
  <time>2026-08-28T19:11:00Z</time>
  <course>35.38</course>
  <speed>0.01414213562373095</speed>
  <fix>3d</fix>
</trkpt>
<trkpt lat="40.0727886" lon="-105.2307197">
  <ele>1595.66</ele>
  <time>2026-08-28T19:11:00Z</time>
  <course>328.14</course>
  <speed>0.04</speed>
  <fix>3d</fix>
</trkpt>
<trkpt lat="40.0727885" lon="-105.2307196">
  <ele>1595.76</ele>
  <time>2026-08-28T19:11:00Z</time>
  <course>35.41</course>
  <speed>0.0</speed>
  <fix>3d</fix>
</trkpt>
<trkpt lat="40.0727887" lon="-105.2307197">
  <ele>1595.66</ele>
  <time>2026-08-28T19:11:00Z</time>
  <course>332.48</course>
  <speed>0.03</speed>
  <fix>3d</fix>
</trkpt>
<trkpt lat="40.0727885" lon="-105.2307197">
  <ele>1595.76</ele>
  <time>2026-08-28T19:11:00Z</time>
  <course>35.4</course>
  <speed>0.0</speed>
  <fix>3d</fix>
</trkpt>
<trkpt lat="40.0727888" lon="-105.2307197">
  <ele>1595.66</ele>
  <time>2026-08-28T19:11:00Z</time>
  <course>335.57</course>
  <speed>0.02</speed>
  <fix>3d</fix>
</trkpt>
<trkpt lat="40.0727886" lon="-105.2307197">
  <ele>1595.76</ele>
  <time>2026-08-28T19:11:00Z</time>
  <course>35.41</course>
  <speed>0.0</speed>
  <fix>3d</fix>
</trkpt>
<trkpt lat="40.0727888" lon="-105.2307197">
  <ele>1595.65</ele>
  <time>2026-08-28T19:11:00Z</time>
  <course>335.19</course>
  <speed>0.02</speed>
  <fix>3d</fix>
</trkpt>
<trkpt lat="40.0727887" lon="-105.2307197">
  <ele>1595.76</ele>
  <time>2026-08-28T19:11:00Z</time>
  <course>35.39</course>
  <speed>0.01</speed>
  <fix>3d</fix>
</trkpt>
<trkpt lat="40.0727888" lon="-105.2307198">
  <ele>1595.65</ele>
  <time>2026-08-28T19:11:00Z</time>
  <course>334.77</course>
  <speed>0.03</speed>
  <fix>3d</fix>
</trkpt>
<trkpt lat="40.0727887" lon="-105.2307197">
  <ele>1595.76</ele>
  <time>2026-08-28T19:11:00Z</time>
  <course>35.42</course>
  <speed>0.01414213562373095</speed>
  <fix>3d</fix>
</trkpt>
<trkpt lat="40.0727889" lon="-105.2307199">
  <ele>1595.65</ele>
  <time>2026-08-28T19:11:00Z</time>
  <course>331.11</course>
  <speed>0.03</speed>
  <fix>3d</fix>
</trkpt>
<trkpt lat="40.0727888" lon="-105.2307198">
  <ele>1595.76</ele>
  <time>2026-08-28T19:11:00Z</time>
  <course>35.42</course>
  <speed>0.01414213562373095</speed>
  <fix>3d</fix>
</trkpt>
<trkpt lat="40.072789" lon="-105.2307199">
  <ele>1595.64</ele>
  <time>2026-08-28T19:11:00Z</time>
  <course>327.61</course>
  <speed>0.04</speed>
  <fix>3d</fix>
</trkpt>
<trkpt lat="40.0727889" lon="-105.2307199">
  <ele>1595.75</ele>
  <time>2026-08-28T19:11:00Z</time>
  <course>35.39</course>
  <speed>0.022360679774997897</speed>
  <fix>3d</fix>
</trkpt>
<trkpt lat="40.072789" lon="-105.2307199">
  <ele>1595.64</ele>
  <time>2026-08-28T19:11:00Z</time>
  <course>324.96</course>
  <speed>0.04</speed>
  <fix>3d</fix>
</trkpt>
<trkpt lat="40.0727889" lon="-105.2307199">
  <ele>1595.74</ele>
  <time>2026-08-28T19:11:00Z</time>
  <course>35.39</course>
  <speed>0.0282842712474619</speed>
  <fix>3d</fix>
</trkpt>
<trkpt lat="40.0727891" lon="-105.23072">
  <ele>1595.63</ele>
  <time>2026-08-28T19:11:00Z</time>
  <course>322.7</course>
  <speed>0.05</speed>
  <fix>3d</fix>
</trkpt>
<trkpt lat="40.072789" lon="-105.23072">
  <ele>1595.73</ele>
  <time>2026-08-28T19:11:00Z</time>
  <course>35.37</course>
  <speed>0.0282842712474619</speed>
  <fix>3d</fix>
</trkpt>
<trkpt lat="40.0727891" lon="-105.2307201">
  <ele>1595.63</ele>
  <time>2026-08-28T19:11:00Z</time>
  <course>320.89</course>
  <speed>0.05</speed>
  <fix>3d</fix>
</trkpt>
<trkpt lat="40.0727891" lon="-105.2307201">
  <ele>1595.73</ele>
  <time>2026-08-28T19:11:00Z</time>
  <course>35.37</course>
  <speed>0.0282842712474619</speed>
  <fix>3d</fix>
</trkpt>
<trkpt lat="40.0727892" lon="-105.2307202">
  <ele>1595.63</ele>
  <time>2026-08-28T19:11:00Z</time>
  <course>319.43</course>
  <speed>0.05</speed>
  <fix>3d</fix>
</trkpt>
<trkpt lat="40.0727892" lon="-105.2307202">
  <ele>1595.73</ele>
  <time>2026-08-28T19:11:00Z</time>
  <course>35.33</course>
  <speed>0.03605551275463989</speed>
  <fix>3d</fix>
</trkpt>
<trkpt lat="40.0727893" lon="-105.2307203">
  <ele>1595.63</ele>
  <time>2026-08-28T19:11:00Z</time>
  <course>318.18</course>
  <speed>0.05</speed>
  <fix>3d</fix>
</trkpt>
<trkpt lat="40.0727892" lon="-105.2307203">
  <ele>1595.73</ele>
  <time>2026-08-28T19:11:00Z</time>
  <course>35.33</course>
  <speed>0.03605551275463989</speed>
  <fix>3d</fix>
</trkpt>
<trkpt lat="40.0727894" lon="-105.2307204">
  <ele>1595.63</ele>
  <time>2026-08-28T19:11:00Z</time>
  <course>317.18</course>
  <speed>0.05</speed>
  <fix>3d</fix>
</trkpt>
<trkpt lat="40.0727893" lon="-105.2307204">
  <ele>1595.73</ele>
  <time>2026-08-28T19:11:00Z</time>
  <course>35.35</course>
  <speed>0.03605551275463989</speed>
  <fix>3d</fix>
</trkpt>
<trkpt lat="40.0727895" lon="-105.2307205">
  <ele>1595.63</ele>
  <time>2026-08-28T19:11:00Z</time>
  <course>316.23</course>
  <speed>0.06</speed>
  <fix>3d</fix>
</trkpt>
<trkpt lat="40.0727894" lon="-105.2307205">
  <ele>1595.73</ele>
  <time>2026-08-28T19:11:00Z</time>
  <course>35.35</course>
  <speed>0.03605551275463989</speed>
  <fix>3d</fix>
</trkpt>
<trkpt lat="40.0727896" lon="-105.2307206">
  <ele>1595.63</ele>
  <time>2026-08-28T19:11:00Z</time>
  <course>315.5</course>
  <speed>0.06</speed>
  <fix>3d</fix>
</trkpt>
<trkpt lat="40.0727895" lon="-105.2307206">
  <ele>1595.73</ele>
  <time>2026-08-28T19:11:00Z</time>
  <course>35.36</course>
  <speed>0.03605551275463989</speed>
  <fix>3d</fix>
</trkpt>
<trkpt lat="40.0727896" lon="-105.2307207">
  <ele>1595.63</ele>
  <time>2026-08-28T19:11:00Z</time>
  <course>315.04</course>
  <speed>0.06</speed>
  <fix>3d</fix>
</trkpt>
<trkpt lat="40.0727896" lon="-105.2307207">
  <ele>1595.73</ele>
  <time>2026-08-28T19:11:00Z</time>
  <course>35.36</course>
  <speed>0.03605551275463989</speed>
  <fix>3d</fix>
</trkpt>
<trkpt lat="40.0727897" lon="-105.2307208">
  <ele>1595.64</ele>
  <time>2026-08-28T19:11:00Z</time>
  <course>314.67</course>
  <speed>0.06</speed>
  <fix>3d</fix>
</trkpt>
<trkpt lat="40.0727896" lon="-105.2307208">
  <ele>1595.74</ele>
  <time>2026-08-28T19:11:00Z</time>
  <course>35.35</course>
  <speed>0.044721359549995794</speed>
  <fix>3d</fix>
</trkpt>
<trkpt lat="40.0727898" lon="-105.2307209">
  <ele>1595.64</ele>
  <time>2026-08-28T19:11:00Z</time>
  <course>314.08</course>
  <speed>0.06</speed>
  <fix>3d</fix>
</trkpt>
<trkpt lat="40.0727897" lon="-105.2307209">
  <ele>1595.74</ele>
  <time>2026-08-28T19:11:00Z</time>
  <course>35.37</course>
  <speed>0.044721359549995794</speed>
  <fix>3d</fix>
</trkpt>
<trkpt lat="40.0727899" lon="-105.230721">
  <ele>1595.64</ele>
  <time>2026-08-28T19:11:00Z</time>
  <course>313.76</course>
  <speed>0.07</speed>
  <fix>3d</fix>
</trkpt>
<trkpt lat="40.0727898" lon="-105.2307211">
  <ele>1595.74</ele>
  <time>2026-08-28T19:11:00Z</time>
  <course>35.37</course>
  <speed>0.044721359549995794</speed>
  <fix>3d</fix>
</trkpt>
<trkpt lat="40.07279" lon="-105.2307211">
  <ele>1595.64</ele>
  <time>2026-08-28T19:11:00Z</time>
  <course>313.33</course>
  <speed>0.07</speed>
  <fix>3d</fix>
</trkpt>
<trkpt lat="40.0727899" lon="-105.2307212">
  <ele>1595.74</ele>
  <time>2026-08-28T19:11:00Z</time>
  <course>35.38</course>
  <speed>0.0316227766016838</speed>
  <fix>3d</fix>
</trkpt>
<trkpt lat="40.0727901" lon="-105.2307213">
  <ele>1595.64</ele>
  <time>2026-08-28T19:11:00Z</time>
  <course>312.78</course>
  <speed>0.06</speed>
  <fix>3d</fix>
</trkpt>
<trkpt lat="40.07279" lon="-105.2307213">
  <ele>1595.74</ele>
  <time>2026-08-28T19:11:00Z</time>
  <course>35.38</course>
  <speed>0.022360679774997897</speed>
  <fix>3d</fix>
</trkpt>
<trkpt lat="40.0727901" lon="-105.2307213">
  <ele>1595.64</ele>
  <time>2026-08-28T19:11:00Z</time>
  <course>313.65</course>
  <speed>0.05</speed>
  <fix>3d</fix>
</trkpt>
<trkpt lat="40.07279" lon="-105.2307213">
  <ele>1595.73</ele>
  <time>2026-08-28T19:11:00Z</time>
  <course>35.35</course>
  <speed>0.022360679774997897</speed>
  <fix>3d</fix>
</trkpt>
<trkpt lat="40.0727902" lon="-105.2307214">
  <ele>1595.64</ele>
  <time>2026-08-28T19:11:00Z</time>
  <course>316.54</course>
  <speed>0.05</speed>
  <fix>3d</fix>
</trkpt>
<trkpt lat="40.0727901" lon="-105.2307214">
  <ele>1595.73</ele>
  <time>2026-08-28T19:11:00Z</time>
  <course>35.36</course>
  <speed>0.01414213562373095</speed>
  <fix>3d</fix>
</trkpt>
<trkpt lat="40.0727903" lon="-105.2307215">
  <ele>1595.64</ele>
  <time>2026-08-28T19:11:00Z</time>
  <course>319.89</course>
  <speed>0.04</speed>
  <fix>3d</fix>
</trkpt>
<trkpt lat="40.0727902" lon="-105.2307215">
  <ele>1595.73</ele>
  <time>2026-08-28T19:11:00Z</time>
  <course>35.36</course>
  <speed>0.01414213562373095</speed>
  <fix>3d</fix>
</trkpt>
<trkpt lat="40.0727903" lon="-105.2307216">
  <ele>1595.64</ele>
  <time>2026-08-28T19:11:00Z</time>
  <course>322.21</course>
  <speed>0.04</speed>
  <fix>3d</fix>
</trkpt>
<trkpt lat="40.0727902" lon="-105.2307215">
  <ele>1595.73</ele>
  <time>2026-08-28T19:11:00Z</time>
  <course>35.34</course>
  <speed>0.01</speed>
  <fix>3d</fix>
</trkpt>
<trkpt lat="40.0727904" lon="-105.2307216">
  <ele>1595.65</ele>
  <time>2026-08-28T19:11:00Z</time>
  <course>324.29</course>
  <speed>0.04</speed>
  <fix>3d</fix>
</trkpt>
<trkpt lat="40.0727903" lon="-105.2307216">
  <ele>1595.72</ele>
  <time>2026-08-28T19:11:00Z</time>
  <course>35.33</course>
  <speed>0.01414213562373095</speed>
  <fix>3d</fix>
</trkpt>
<trkpt lat="40.0727904" lon="-105.2307217">
  <ele>1595.65</ele>
  <time>2026-08-28T19:11:00Z</time>
  <course>325.0</course>
  <speed>0.04</speed>
  <fix>3d</fix>
</trkpt>
<trkpt lat="40.0727903" lon="-105.2307216">
  <ele>1595.73</ele>
  <time>2026-08-28T19:11:00Z</time>
  <course>35.34</course>
  <speed>0.022360679774997897</speed>
  <fix>3d</fix>
</trkpt>
<trkpt lat="40.0727905" lon="-105.2307218">
  <ele>1595.65</ele>
  <time>2026-08-28T19:11:00Z</time>
  <course>324.08</course>
  <speed>0.04</speed>
  <fix>3d</fix>
</trkpt>
<trkpt lat="40.0727904" lon="-105.2307217">
  <ele>1595.73</ele>
  <time>2026-08-28T19:11:00Z</time>
  <course>35.35</course>
  <speed>0.022360679774997897</speed>
  <fix>3d</fix>
</trkpt>
<trkpt lat="40.0727906" lon="-105.2307218">
  <ele>1595.65</ele>
  <time>2026-08-28T19:11:00Z</time>
  <course>322.39</course>
  <speed>0.05</speed>
  <fix>3d</fix>
</trkpt>
<trkpt lat="40.0727905" lon="-105.2307218">
  <ele>1595.73</ele>
  <time>2026-08-28T19:11:00Z</time>
  <course>35.36</course>
  <speed>0.0282842712474619</speed>
  <fix>3d</fix>
</trkpt>
<trkpt lat="40.0727907" lon="-105.2307219">
  <ele>1595.66</ele>
  <time>2026-08-28T19:11:00Z</time>
  <course>320.37</course>
  <speed>0.05</speed>
  <fix>3d</fix>
</trkpt>
<trkpt lat="40.0727906" lon="-105.2307219">
  <ele>1595.73</ele>
  <time>2026-08-28T19:11:00Z</time>
  <course>35.37</course>
  <speed>0.03605551275463989</speed>
  <fix>3d</fix>
</trkpt>
<trkpt lat="40.0727907" lon="-105.230722">
  <ele>1595.66</ele>
  <time>2026-08-28T19:11:00Z</time>
  <course>318.86</course>
  <speed>0.05</speed>
  <fix>3d</fix>
</trkpt>
<trkpt lat="40.0727907" lon="-105.230722">
  <ele>1595.74</ele>
  <time>2026-08-28T19:11:00Z</time>
  <course>35.35</course>
  <speed>0.03605551275463989</speed>
  <fix>3d</fix>
</trkpt>
<trkpt lat="40.0727908" lon="-105.2307221">
  <ele>1595.67</ele>
  <time>2026-08-28T19:11:00Z</time>
  <course>317.54</course>
  <speed>0.06</speed>
  <fix>3d</fix>
</trkpt>
<trkpt lat="40.0727907" lon="-105.2307221">
  <ele>1595.74</ele>
  <time>2026-08-28T19:11:00Z</time>
  <course>35.36</course>
  <speed>0.03605551275463989</speed>
  <fix>3d</fix>
</trkpt>
<trkpt lat="40.0727909" lon="-105.2307222">
  <ele>1595.67</ele>
  <time>2026-08-28T19:11:00Z</time>
  <course>316.33</course>
  <speed>0.06</speed>
  <fix>3d</fix>
</trkpt>
<trkpt lat="40.0727908" lon="-105.2307222">
  <ele>1595.74</ele>
  <time>2026-08-28T19:11:00Z</time>
  <course>35.37</course>
  <speed>0.03605551275463989</speed>
  <fix>3d</fix>
</trkpt>
<trkpt lat="40.072791" lon="-105.2307223">
  <ele>1595.67</ele>
  <time>2026-08-28T19:11:00Z</time>
  <course>315.37</course>
  <speed>0.06</speed>
  <fix>3d</fix>
</trkpt>
<trkpt lat="40.0727909" lon="-105.2307223">
  <ele>1595.74</ele>
  <time>2026-08-28T19:11:00Z</time>
  <course>35.37</course>
  <speed>0.044721359549995794</speed>
  <fix>3d</fix>
</trkpt>
<trkpt lat="40.0727911" lon="-105.2307224">
  <ele>1595.67</ele>
  <time>2026-08-28T19:11:00Z</time>
  <course>314.54</course>
  <speed>0.06</speed>
  <fix>3d</fix>
</trkpt>
<trkpt lat="40.072791" lon="-105.2307224">
  <ele>1595.75</ele>
  <time>2026-08-28T19:11:00Z</time>
  <course>35.37</course>
  <speed>0.044721359549995794</speed>
  <fix>3d</fix>
</trkpt>
<trkpt lat="40.0727912" lon="-105.2307225">
  <ele>1595.68</ele>
  <time>2026-08-28T19:11:00Z</time>
  <course>313.8</course>
  <speed>0.06</speed>
  <fix>3d</fix>
</trkpt>
<trkpt lat="40.0727911" lon="-105.2307226">
  <ele>1595.75</ele>
  <time>2026-08-28T19:11:00Z</time>
  <course>35.37</course>
  <speed>0.044721359549995794</speed>
  <fix>3d</fix>
</trkpt>
<trkpt lat="40.0727912" lon="-105.2307227">
  <ele>1595.68</ele>
  <time>2026-08-28T19:11:00Z</time>
  <course>313.3</course>
  <speed>0.07</speed>
  <fix>3d</fix>
</trkpt>
<trkpt lat="40.0727912" lon="-105.2307227">
  <ele>1595.75</ele>
  <time>2026-08-28T19:11:00Z</time>
  <course>35.39</course>
  <speed>0.044721359549995794</speed>
  <fix>3d</fix>
</trkpt>
<trkpt lat="40.0727913" lon="-105.2307228">
  <ele>1595.68</ele>
  <time>2026-08-28T19:11:00Z</time>
  <course>313.11</course>
  <speed>0.07</speed>
  <fix>3d</fix>
</trkpt>
<trkpt lat="40.0727913" lon="-105.2307228">
  <ele>1595.75</ele>
  <time>2026-08-28T19:11:00Z</time>
  <course>35.4</course>
  <speed>0.044721359549995794</speed>
  <fix>3d</fix>
</trkpt>
<trkpt lat="40.0727914" lon="-105.2307229">
  <ele>1595.68</ele>
  <time>2026-08-28T19:11:00Z</time>
  <course>313.23</course>
  <speed>0.07</speed>
  <fix>3d</fix>
</trkpt>
<trkpt lat="40.0727913" lon="-105.2307229">
  <ele>1595.75</ele>
  <time>2026-08-28T19:11:00Z</time>
  <course>35.38</course>
  <speed>0.044721359549995794</speed>
  <fix>3d</fix>
</trkpt>
<trkpt lat="40.0727915" lon="-105.230723">
  <ele>1595.68</ele>
  <time>2026-08-28T19:11:00Z</time>
  <course>313.39</course>
  <speed>0.07</speed>
  <fix>3d</fix>
</trkpt>
<trkpt lat="40.0727914" lon="-105.2307231">
  <ele>1595.75</ele>
  <time>2026-08-28T19:11:00Z</time>
  <course>35.41</course>
  <speed>0.044721359549995794</speed>
  <fix>3d</fix>
</trkpt>
<trkpt lat="40.0727916" lon="-105.2307231">
  <ele>1595.68</ele>
  <time>2026-08-28T19:11:00Z</time>
  <course>313.45</course>
  <speed>0.07</speed>
  <fix>3d</fix>
</trkpt>
<trkpt lat="40.0727915" lon="-105.2307232">
  <ele>1595.75</ele>
  <time>2026-08-28T19:11:00Z</time>
  <course>35.41</course>
  <speed>0.044721359549995794</speed>
  <fix>3d</fix>
</trkpt>
<trkpt lat="40.0727917" lon="-105.2307232">
  <ele>1595.67</ele>
  <time>2026-08-28T19:11:00Z</time>
  <course>313.54</course>
  <speed>0.07</speed>
  <fix>3d</fix>
</trkpt>
<trkpt lat="40.0727916" lon="-105.2307233">
  <ele>1595.74</ele>
  <time>2026-08-28T19:11:00Z</time>
  <course>35.38</course>
  <speed>0.05</speed>
  <fix>3d</fix>
</trkpt>
<trkpt lat="40.0727918" lon="-105.2307234">
  <ele>1595.67</ele>
  <time>2026-08-28T19:11:00Z</time>
  <course>313.65</course>
  <speed>0.07</speed>
  <fix>3d</fix>
</trkpt>
<trkpt lat="40.0727917" lon="-105.2307234">
  <ele>1595.74</ele>
  <time>2026-08-28T19:11:00Z</time>
  <course>35.38</course>
  <speed>0.044721359549995794</speed>
  <fix>3d</fix>
</trkpt>
<trkpt lat="40.0727919" lon="-105.2307235">
  <ele>1595.67</ele>
  <time>2026-08-28T19:11:00Z</time>
  <course>313.78</course>
  <speed>0.07</speed>
  <fix>3d</fix>
</trkpt>
<trkpt lat="40.0727918" lon="-105.2307236">
  <ele>1595.74</ele>
  <time>2026-08-28T19:11:00Z</time>
  <course>35.37</course>
  <speed>0.03605551275463989</speed>
  <fix>3d</fix>
</trkpt>
<trkpt lat="40.072792" lon="-105.2307236">
  <ele>1595.67</ele>
  <time>2026-08-28T19:11:00Z</time>
  <course>313.78</course>
  <speed>0.07</speed>
  <fix>3d</fix>
</trkpt>
<trkpt lat="40.0727919" lon="-105.2307237">
  <ele>1595.74</ele>
  <time>2026-08-28T19:11:00Z</time>
  <course>35.35</course>
  <speed>0.0316227766016838</speed>
  <fix>3d</fix>
</trkpt>
<trkpt lat="40.072792" lon="-105.2307237">
  <ele>1595.67</ele>
  <time>2026-08-28T19:11:00Z</time>
  <course>314.38</course>
  <speed>0.06</speed>
  <fix>3d</fix>
</trkpt>
<trkpt lat="40.0727919" lon="-105.2307237">
  <ele>1595.74</ele>
  <time>2026-08-28T19:11:00Z</time>
  <course>35.37</course>
  <speed>0.022360679774997897</speed>
  <fix>3d</fix>
</trkpt>
<trkpt lat="40.0727921" lon="-105.2307238">
  <ele>1595.67</ele>
  <time>2026-08-28T19:11:00Z</time>
  <course>316.18</course>
  <speed>0.05</speed>
  <fix>3d</fix>
</trkpt>
<trkpt lat="40.072792" lon="-105.2307238">
  <ele>1595.74</ele>
  <time>2026-08-28T19:11:00Z</time>
  <course>35.36</course>
  <speed>0.022360679774997897</speed>
  <fix>3d</fix>
</trkpt>
<trkpt lat="40.0727922" lon="-105.2307239">
  <ele>1595.67</ele>
  <time>2026-08-28T19:11:00Z</time>
  <course>319.6</course>
  <speed>0.04</speed>
  <fix>3d</fix>
</trkpt>
<trkpt lat="40.0727921" lon="-105.2307239">
  <ele>1595.74</ele>
  <time>2026-08-28T19:11:00Z</time>
  <course>35.36</course>
  <speed>0.01414213562373095</speed>
  <fix>3d</fix>
</trkpt>
<trkpt lat="40.0727922" lon="-105.230724">
  <ele>1595.67</ele>
  <time>2026-08-28T19:11:00Z</time>
  <course>323.77</course>
  <speed>0.04</speed>
  <fix>3d</fix>
</trkpt>
<trkpt lat="40.0727921" lon="-105.2307239">
  <ele>1595.74</ele>
  <time>2026-08-28T19:11:00Z</time>
  <course>35.37</course>
  <speed>0.01414213562373095</speed>
  <fix>3d</fix>
</trkpt>
<trkpt lat="40.0727923" lon="-105.230724">
  <ele>1595.67</ele>
  <time>2026-08-28T19:11:00Z</time>
  <course>326.37</course>
  <speed>0.04</speed>
  <fix>3d</fix>
</trkpt>
<trkpt lat="40.0727922" lon="-105.230724">
  <ele>1595.74</ele>
  <time>2026-08-28T19:11:00Z</time>
  <course>35.36</course>
  <speed>0.01</speed>
  <fix>3d</fix>
</trkpt>
<trkpt lat="40.0727924" lon="-105.2307241">
  <ele>1595.67</ele>
  <time>2026-08-28T19:11:00Z</time>
  <course>328.39</course>
  <speed>0.03</speed>
  <fix>3d</fix>
</trkpt>
<trkpt lat="40.0727922" lon="-105.230724">
  <ele>1595.74</ele>
  <time>2026-08-28T19:11:00Z</time>
  <course>35.36</course>
  <speed>0.01414213562373095</speed>
  <fix>3d</fix>
</trkpt>
<trkpt lat="40.0727924" lon="-105.2307242">
  <ele>1595.68</ele>
  <time>2026-08-28T19:11:00Z</time>
  <course>329.09</course>
  <speed>0.04</speed>
  <fix>3d</fix>
</trkpt>
<trkpt lat="40.0727923" lon="-105.2307241">
  <ele>1595.74</ele>
  <time>2026-08-28T19:11:00Z</time>
  <course>35.36</course>
  <speed>0.01414213562373095</speed>
  <fix>3d</fix>
</trkpt>
<trkpt lat="40.0727925" lon="-105.2307242">
  <ele>1595.68</ele>
  <time>2026-08-28T19:11:00Z</time>
  <course>328.14</course>
  <speed>0.04</speed>
  <fix>3d</fix>
</trkpt>
<trkpt lat="40.0727924" lon="-105.2307241">
  <ele>1595.74</ele>
  <time>2026-08-28T19:11:00Z</time>
  <course>35.36</course>
  <speed>0.022360679774997897</speed>
  <fix>3d</fix>
</trkpt>
<trkpt lat="40.0727926" lon="-105.2307242">
  <ele>1595.68</ele>
  <time>2026-08-28T19:11:00Z</time>
  <course>326.4</course>
  <speed>0.04</speed>
  <fix>3d</fix>
</trkpt>
<trkpt lat="40.0727925" lon="-105.2307242">
  <ele>1595.74</ele>
  <time>2026-08-28T19:11:00Z</time>
  <course>35.36</course>
  <speed>0.0282842712474619</speed>
  <fix>3d</fix>
</trkpt>
<trkpt lat="40.0727926" lon="-105.2307243">
  <ele>1595.68</ele>
  <time>2026-08-28T19:11:00Z</time>
  <course>324.28</course>
  <speed>0.05</speed>
  <fix>3d</fix>
</trkpt>
<trkpt lat="40.0727925" lon="-105.2307243">
  <ele>1595.74</ele>
  <time>2026-08-28T19:11:00Z</time>
  <course>35.36</course>
  <speed>0.0282842712474619</speed>
  <fix>3d</fix>
</trkpt>
<trkpt lat="40.0727927" lon="-105.2307244">
  <ele>1595.68</ele>
  <time>2026-08-28T19:11:00Z</time>
  <course>322.67</course>
  <speed>0.05</speed>
  <fix>3d</fix>
</trkpt>
<trkpt lat="40.0727926" lon="-105.2307244">
  <ele>1595.74</ele>
  <time>2026-08-28T19:11:00Z</time>
  <course>35.37</course>
  <speed>0.03605551275463989</speed>
  <fix>3d</fix>
</trkpt>
<trkpt lat="40.0727928" lon="-105.2307245">
  <ele>1595.68</ele>
  <time>2026-08-28T19:11:00Z</time>
  <course>321.36</course>
  <speed>0.05</speed>
  <fix>3d</fix>
</trkpt>
<trkpt lat="40.0727927" lon="-105.2307245">
  <ele>1595.74</ele>
  <time>2026-08-28T19:11:00Z</time>
  <course>35.37</course>
  <speed>0.03605551275463989</speed>
  <fix>3d</fix>
</trkpt>
<trkpt lat="40.0727929" lon="-105.2307246">
  <ele>1595.68</ele>
  <time>2026-08-28T19:11:00Z</time>
  <course>320.3</course>
  <speed>0.06</speed>
  <fix>3d</fix>
</trkpt>
<trkpt lat="40.0727928" lon="-105.2307246">
  <ele>1595.75</ele>
  <time>2026-08-28T19:11:00Z</time>
  <course>35.37</course>
  <speed>0.03605551275463989</speed>
  <fix>3d</fix>
</trkpt>
<trkpt lat="40.072793" lon="-105.2307247">
  <ele>1595.68</ele>
  <time>2026-08-28T19:11:00Z</time>
  <course>319.64</course>
  <speed>0.06</speed>
  <fix>3d</fix>
</trkpt>
<trkpt lat="40.0727929" lon="-105.2307247">
  <ele>1595.75</ele>
  <time>2026-08-28T19:11:00Z</time>
  <course>35.38</course>
  <speed>0.03605551275463989</speed>
  <fix>3d</fix>
</trkpt>
<trkpt lat="40.0727931" lon="-105.2307248">
  <ele>1595.68</ele>
  <time>2026-08-28T19:11:00Z</time>
  <course>319.33</course>
  <speed>0.06</speed>
  <fix>3d</fix>
</trkpt>
<trkpt lat="40.072793" lon="-105.2307248">
  <ele>1595.75</ele>
  <time>2026-08-28T19:11:00Z</time>
  <course>35.38</course>
  <speed>0.04242640687119285</speed>
  <fix>3d</fix>
</trkpt>
<trkpt lat="40.0727931" lon="-105.2307249">
  <ele>1595.68</ele>
  <time>2026-08-28T19:11:00Z</time>
  <course>319.05</course>
  <speed>0.06</speed>
  <fix>3d</fix>
</trkpt>
<trkpt lat="40.0727931" lon="-105.2307249">
  <ele>1595.74</ele>
  <time>2026-08-28T19:11:00Z</time>
  <course>35.38</course>
  <speed>0.03605551275463989</speed>
  <fix>3d</fix>
</trkpt>
<trkpt lat="40.0727932" lon="-105.230725">
  <ele>1595.68</ele>
  <time>2026-08-28T19:11:00Z</time>
  <course>318.86</course>
  <speed>0.06</speed>
  <fix>3d</fix>
</trkpt>
<trkpt lat="40.0727932" lon="-105.230725">
  <ele>1595.74</ele>
  <time>2026-08-28T19:11:00Z</time>
  <course>35.38</course>
  <speed>0.03605551275463989</speed>
  <fix>3d</fix>
</trkpt>
<trkpt lat="40.0727933" lon="-105.2307251">
  <ele>1595.68</ele>
  <time>2026-08-28T19:11:00Z</time>
  <course>318.79</course>
  <speed>0.06</speed>
  <fix>3d</fix>
</trkpt>
<trkpt lat="40.0727933" lon="-105.2307251">
  <ele>1595.74</ele>
  <time>2026-08-28T19:11:00Z</time>
  <course>35.38</course>
  <speed>0.03605551275463989</speed>
  <fix>3d</fix>
</trkpt>
<trkpt lat="40.0727934" lon="-105.2307252">
  <ele>1595.68</ele>
  <time>2026-08-28T19:11:00Z</time>
  <course>318.45</course>
  <speed>0.06</speed>
  <fix>3d</fix>
</trkpt>
<trkpt lat="40.0727934" lon="-105.2307252">
  <ele>1595.74</ele>
  <time>2026-08-28T19:11:00Z</time>
  <course>35.38</course>
  <speed>0.03605551275463989</speed>
  <fix>3d</fix>
</trkpt>
<trkpt lat="40.0727935" lon="-105.2307253">
  <ele>1595.68</ele>
  <time>2026-08-28T19:11:00Z</time>
  <course>317.89</course>
  <speed>0.06</speed>
  <fix>3d</fix>
</trkpt>
<trkpt lat="40.0727934" lon="-105.2307253">
  <ele>1595.74</ele>
  <time>2026-08-28T19:11:00Z</time>
  <course>35.38</course>
  <speed>0.03605551275463989</speed>
  <fix>3d</fix>
</trkpt>
<trkpt lat="40.0727936" lon="-105.2307254">
  <ele>1595.68</ele>
  <time>2026-08-28T19:11:00Z</time>
  <course>317.36</course>
  <speed>0.06</speed>
  <fix>3d</fix>
</trkpt>
<trkpt lat="40.0727935" lon="-105.2307254">
  <ele>1595.74</ele>
  <time>2026-08-28T19:11:00Z</time>
  <course>35.38</course>
  <speed>0.03605551275463989</speed>
  <fix>3d</fix>
</trkpt>
<trkpt lat="40.0727937" lon="-105.2307255">
  <ele>1595.68</ele>
  <time>2026-08-28T19:11:00Z</time>
  <course>316.85</course>
  <speed>0.06</speed>
  <fix>3d</fix>
</trkpt>
<trkpt lat="40.0727936" lon="-105.2307256">
  <ele>1595.75</ele>
  <time>2026-08-28T19:11:00Z</time>
  <course>35.38</course>
  <speed>0.05</speed>
  <fix>3d</fix>
</trkpt>
<trkpt lat="40.0727938" lon="-105.2307256">
  <ele>1595.68</ele>
  <time>2026-08-28T19:11:00Z</time>
  <course>316.24</course>
  <speed>0.07</speed>
  <fix>3d</fix>
</trkpt>
<trkpt lat="40.0727937" lon="-105.2307257">
  <ele>1595.75</ele>
  <time>2026-08-28T19:11:00Z</time>
  <course>35.4</course>
  <speed>0.044721359549995794</speed>
  <fix>3d</fix>
</trkpt>
<trkpt lat="40.0727939" lon="-105.2307257">
  <ele>1595.68</ele>
  <time>2026-08-28T19:11:00Z</time>
  <course>315.71</course>
  <speed>0.07</speed>
  <fix>3d</fix>
</trkpt>
<trkpt lat="40.0727938" lon="-105.2307258">
  <ele>1595.75</ele>
  <time>2026-08-28T19:11:00Z</time>
  <course>35.38</course>
  <speed>0.03605551275463989</speed>
  <fix>3d</fix>
</trkpt>
<trkpt lat="40.072794" lon="-105.2307259">
  <ele>1595.68</ele>
  <time>2026-08-28T19:11:00Z</time>
  <course>315.28</course>
  <speed>0.06</speed>
  <fix>3d</fix>
</trkpt>
<trkpt lat="40.0727939" lon="-105.2307259">
  <ele>1595.76</ele>
  <time>2026-08-28T19:11:00Z</time>
  <course>35.39</course>
  <speed>0.022360679774997897</speed>
  <fix>3d</fix>
</trkpt>
<trkpt lat="40.072794" lon="-105.230726">
  <ele>1595.68</ele>
  <time>2026-08-28T19:11:00Z</time>
  <course>315.42</course>
  <speed>0.06</speed>
  <fix>3d</fix>
</trkpt>
<trkpt lat="40.072794" lon="-105.230726">
  <ele>1595.76</ele>
  <time>2026-08-28T19:11:00Z</time>
  <course>35.4</course>
  <speed>0.022360679774997897</speed>
  <fix>3d</fix>
</trkpt>
<trkpt lat="40.0727941" lon="-105.2307261">
  <ele>1595.68</ele>
  <time>2026-08-28T19:11:00Z</time>
  <course>317.02</course>
  <speed>0.05</speed>
  <fix>3d</fix>
</trkpt>
<trkpt lat="40.072794" lon="-105.230726">
  <ele>1595.75</ele>
  <time>2026-08-28T19:11:00Z</time>
  <course>35.38</course>
  <speed>0.01</speed>
  <fix>3d</fix>
</trkpt>
<trkpt lat="40.0727942" lon="-105.2307261">
  <ele>1595.67</ele>
  <time>2026-08-28T19:11:00Z</time>
  <course>320.66</course>
  <speed>0.04</speed>
  <fix>3d</fix>
</trkpt>
<trkpt lat="40.0727941" lon="-105.2307261">
  <ele>1595.75</ele>
  <time>2026-08-28T19:11:00Z</time>
  <course>35.39</course>
  <speed>0.01</speed>
  <fix>3d</fix>
</trkpt>
<trkpt lat="40.0727943" lon="-105.2307262">
  <ele>1595.67</ele>
  <time>2026-08-28T19:11:00Z</time>
  <course>324.59</course>
  <speed>0.04</speed>
  <fix>3d</fix>
</trkpt>
<trkpt lat="40.0727941" lon="-105.2307261">
  <ele>1595.75</ele>
  <time>2026-08-28T19:11:00Z</time>
  <course>35.38</course>
  <speed>0.01</speed>
  <fix>3d</fix>
</trkpt>
<trkpt lat="40.0727943" lon="-105.2307263">
  <ele>1595.67</ele>
  <time>2026-08-28T19:11:00Z</time>
  <course>328.12</course>
  <speed>0.03</speed>
  <fix>3d</fix>
</trkpt>
<trkpt lat="40.0727942" lon="-105.2307262">
  <ele>1595.75</ele>
  <time>2026-08-28T19:11:00Z</time>
  <course>35.38</course>
  <speed>0.0</speed>
  <fix>3d</fix>
</trkpt>
<trkpt lat="40.0727944" lon="-105.2307263">
  <ele>1595.67</ele>
  <time>2026-08-28T19:11:00Z</time>
  <course>330.72</course>
  <speed>0.03</speed>
  <fix>3d</fix>
</trkpt>
<trkpt lat="40.0727942" lon="-105.2307262">
  <ele>1595.75</ele>
  <time>2026-08-28T19:11:00Z</time>
  <course>35.38</course>
  <speed>0.01</speed>
  <fix>3d</fix>
</trkpt>
<trkpt lat="40.0727945" lon="-105.2307264">
  <ele>1595.66</ele>
  <time>2026-08-28T19:11:00Z</time>
  <course>331.72</course>
  <speed>0.03</speed>
  <fix>3d</fix>
</trkpt>
<trkpt lat="40.0727943" lon="-105.2307263">
  <ele>1595.75</ele>
  <time>2026-08-28T19:11:00Z</time>
  <course>35.38</course>
  <speed>0.01414213562373095</speed>
  <fix>3d</fix>
</trkpt>
<trkpt lat="40.0727945" lon="-105.2307264">
  <ele>1595.66</ele>
  <time>2026-08-28T19:11:00Z</time>
  <course>331.69</course>
  <speed>0.03</speed>
  <fix>3d</fix>
</trkpt>
<trkpt lat="40.0727944" lon="-105.2307263">
  <ele>1595.75</ele>
  <time>2026-08-28T19:11:00Z</time>
  <course>35.38</course>
  <speed>0.01414213562373095</speed>
  <fix>3d</fix>
</trkpt>
<trkpt lat="40.0727946" lon="-105.2307264">
  <ele>1595.66</ele>
  <time>2026-08-28T19:11:00Z</time>
  <course>329.85</course>
  <speed>0.04</speed>
  <fix>3d</fix>
</trkpt>
<trkpt lat="40.0727945" lon="-105.2307264">
  <ele>1595.75</ele>
  <time>2026-08-28T19:11:00Z</time>
  <course>35.38</course>
  <speed>0.01414213562373095</speed>
  <fix>3d</fix>
</trkpt>
<trkpt lat="40.0727946" lon="-105.2307264">
  <ele>1595.66</ele>
  <time>2026-08-28T19:11:00Z</time>
  <course>327.19</course>
  <speed>0.04</speed>
  <fix>3d</fix>
</trkpt>
<trkpt lat="40.0727945" lon="-105.2307264">
  <ele>1595.75</ele>
  <time>2026-08-28T19:11:00Z</time>
  <course>35.39</course>
  <speed>0.022360679774997897</speed>
  <fix>3d</fix>
</trkpt>
<trkpt lat="40.0727947" lon="-105.2307265">
  <ele>1595.66</ele>
  <time>2026-08-28T19:11:00Z</time>
  <course>324.92</course>
  <speed>0.04</speed>
  <fix>3d</fix>
</trkpt>
<trkpt lat="40.0727946" lon="-105.2307265">
  <ele>1595.75</ele>
  <time>2026-08-28T19:11:00Z</time>
  <course>35.39</course>
  <speed>0.022360679774997897</speed>
  <fix>3d</fix>
</trkpt>
<trkpt lat="40.0727947" lon="-105.2307266">
  <ele>1595.65</ele>
  <time>2026-08-28T19:11:00Z</time>
  <course>323.18</course>
  <speed>0.04</speed>
  <fix>3d</fix>
</trkpt>
<trkpt lat="40.0727947" lon="-105.2307266">
  <ele>1595.75</ele>
  <time>2026-08-28T19:11:00Z</time>
  <course>35.38</course>
  <speed>0.022360679774997897</speed>
  <fix>3d</fix>
</trkpt>
<trkpt lat="40.0727948" lon="-105.2307266">
  <ele>1595.65</ele>
  <time>2026-08-28T19:11:00Z</time>
  <course>321.84</course>
  <speed>0.05</speed>
  <fix>3d</fix>
</trkpt>
<trkpt lat="40.0727947" lon="-105.2307267">
  <ele>1595.75</ele>
  <time>2026-08-28T19:11:00Z</time>
  <course>35.4</course>
  <speed>0.022360679774997897</speed>
  <fix>3d</fix>
</trkpt>
<trkpt lat="40.0727949" lon="-105.2307267">
  <ele>1595.65</ele>
  <time>2026-08-28T19:11:00Z</time>
  <course>320.74</course>
  <speed>0.05</speed>
  <fix>3d</fix>
</trkpt>
<trkpt lat="40.0727948" lon="-105.2307267">
  <ele>1595.75</ele>
  <time>2026-08-28T19:11:00Z</time>
  <course>35.38</course>
  <speed>0.0282842712474619</speed>
  <fix>3d</fix>
</trkpt>
<trkpt lat="40.072795" lon="-105.2307268">
  <ele>1595.65</ele>
  <time>2026-08-28T19:11:00Z</time>
  <course>319.81</course>
  <speed>0.05</speed>
  <fix>3d</fix>
</trkpt>
<trkpt lat="40.0727949" lon="-105.2307268">
  <ele>1595.75</ele>
  <time>2026-08-28T19:11:00Z</time>
  <course>35.39</course>
  <speed>0.0282842712474619</speed>
  <fix>3d</fix>
</trkpt>
<trkpt lat="40.0727951" lon="-105.2307269">
  <ele>1595.64</ele>
  <time>2026-08-28T19:11:00Z</time>
  <course>319.17</course>
  <speed>0.05</speed>
  <fix>3d</fix>
</trkpt>
<trkpt lat="40.072795" lon="-105.2307269">
  <ele>1595.74</ele>
  <time>2026-08-28T19:11:00Z</time>
  <course>35.39</course>
  <speed>0.0282842712474619</speed>
  <fix>3d</fix>
</trkpt>
<trkpt lat="40.0727951" lon="-105.230727">
  <ele>1595.64</ele>
  <time>2026-08-28T19:11:00Z</time>
  <course>318.63</course>
  <speed>0.05</speed>
  <fix>3d</fix>
</trkpt>
<trkpt lat="40.072795" lon="-105.230727">
  <ele>1595.74</ele>
  <time>2026-08-28T19:11:00Z</time>
  <course>35.38</course>
  <speed>0.0282842712474619</speed>
  <fix>3d</fix>
</trkpt>
<trkpt lat="40.0727952" lon="-105.2307271">
  <ele>1595.64</ele>
  <time>2026-08-28T19:11:00Z</time>
  <course>318.09</course>
  <speed>0.05</speed>
  <fix>3d</fix>
</trkpt>
<trkpt lat="40.0727951" lon="-105.2307271">
  <ele>1595.74</ele>
  <time>2026-08-28T19:11:00Z</time>
  <course>35.37</course>
  <speed>0.03605551275463989</speed>
  <fix>3d</fix>
</trkpt>
<trkpt lat="40.0727953" lon="-105.2307272">
  <ele>1595.63</ele>
  <time>2026-08-28T19:11:00Z</time>
  <course>317.87</course>
  <speed>0.05</speed>
  <fix>3d</fix>
</trkpt>
<trkpt lat="40.0727952" lon="-105.2307272">
  <ele>1595.73</ele>
  <time>2026-08-28T19:11:00Z</time>
  <course>35.37</course>
  <speed>0.03605551275463989</speed>
  <fix>3d</fix>
</trkpt>
<trkpt lat="40.0727953" lon="-105.2307273">
  <ele>1595.63</ele>
  <time>2026-08-28T19:11:00Z</time>
  <course>318.0</course>
  <speed>0.05</speed>
  <fix>3d</fix>
</trkpt>
<trkpt lat="40.0727953" lon="-105.2307273">
  <ele>1595.73</ele>
  <time>2026-08-28T19:11:00Z</time>
  <course>35.37</course>
  <speed>0.03605551275463989</speed>
  <fix>3d</fix>
</trkpt>
<trkpt lat="40.0727954" lon="-105.2307273">
  <ele>1595.63</ele>
  <time>2026-08-28T19:11:00Z</time>
  <course>318.17</course>
  <speed>0.05</speed>
  <fix>3d</fix>
</trkpt>
<trkpt lat="40.0727954" lon="-105.2307274">
  <ele>1595.73</ele>
  <time>2026-08-28T19:11:00Z</time>
  <course>35.37</course>
  <speed>0.03605551275463989</speed>
  <fix>3d</fix>
</trkpt>
<trkpt lat="40.0727955" lon="-105.2307274">
  <ele>1595.63</ele>
  <time>2026-08-28T19:11:00Z</time>
  <course>318.35</course>
  <speed>0.05</speed>
  <fix>3d</fix>
</trkpt>
<trkpt lat="40.0727954" lon="-105.2307274">
  <ele>1595.73</ele>
  <time>2026-08-28T19:11:00Z</time>
  <course>35.36</course>
  <speed>0.03605551275463989</speed>
  <fix>3d</fix>
</trkpt>
<trkpt lat="40.0727956" lon="-105.2307275">
  <ele>1595.63</ele>
  <time>2026-08-28T19:11:00Z</time>
  <course>318.22</course>
  <speed>0.06</speed>
  <fix>3d</fix>
</trkpt>
<trkpt lat="40.0727955" lon="-105.2307275">
  <ele>1595.73</ele>
  <time>2026-08-28T19:11:00Z</time>
  <course>35.37</course>
  <speed>0.03605551275463989</speed>
  <fix>3d</fix>
</trkpt>
<trkpt lat="40.0727957" lon="-105.2307276">
  <ele>1595.63</ele>
  <time>2026-08-28T19:11:00Z</time>
  <course>318.26</course>
  <speed>0.06</speed>
  <fix>3d</fix>
</trkpt>
<trkpt lat="40.0727956" lon="-105.2307277">
  <ele>1595.74</ele>
  <time>2026-08-28T19:11:00Z</time>
  <course>35.37</course>
  <speed>0.03605551275463989</speed>
  <fix>3d</fix>
</trkpt>
<trkpt lat="40.0727958" lon="-105.2307277">
  <ele>1595.64</ele>
  <time>2026-08-28T19:11:00Z</time>
  <course>317.23</course>
  <speed>0.06</speed>
  <fix>3d</fix>
</trkpt>
<trkpt lat="40.0727957" lon="-105.2307277">
  <ele>1595.74</ele>
  <time>2026-08-28T19:11:00Z</time>
  <course>35.36</course>
  <speed>0.022360679774997897</speed>
  <fix>3d</fix>
</trkpt>
<trkpt lat="40.0727958" lon="-105.2307278">
  <ele>1595.64</ele>
  <time>2026-08-28T19:11:00Z</time>
  <course>315.98</course>
  <speed>0.06</speed>
  <fix>3d</fix>
</trkpt>
<trkpt lat="40.0727958" lon="-105.2307278">
  <ele>1595.74</ele>
  <time>2026-08-28T19:11:00Z</time>
  <course>35.37</course>
  <speed>0.022360679774997897</speed>
  <fix>3d</fix>
</trkpt>
<trkpt lat="40.0727959" lon="-105.2307279">
  <ele>1595.64</ele>
  <time>2026-08-28T19:11:00Z</time>
  <course>316.46</course>
  <speed>0.05</speed>
  <fix>3d</fix>
</trkpt>
<trkpt lat="40.0727958" lon="-105.2307279">
  <ele>1595.75</ele>
  <time>2026-08-28T19:11:00Z</time>
  <course>35.38</course>
  <speed>0.022360679774997897</speed>
  <fix>3d</fix>
</trkpt>
<trkpt lat="40.072796" lon="-105.230728">
  <ele>1595.64</ele>
  <time>2026-08-28T19:11:00Z</time>
  <course>318.23</course>
  <speed>0.04</speed>
  <fix>3d</fix>
</trkpt>
<trkpt lat="40.0727959" lon="-105.230728">
  <ele>1595.75</ele>
  <time>2026-08-28T19:11:00Z</time>
  <course>35.39</course>
  <speed>0.01</speed>
  <fix>3d</fix>
</trkpt>
<trkpt lat="40.0727961" lon="-105.2307281">
  <ele>1595.64</ele>
  <time>2026-08-28T19:11:00Z</time>
  <course>321.08</course>
  <speed>0.04</speed>
  <fix>3d</fix>
</trkpt>
<trkpt lat="40.0727959" lon="-105.230728">
  <ele>1595.75</ele>
  <time>2026-08-28T19:11:00Z</time>
  <course>35.39</course>
  <speed>0.01</speed>
  <fix>3d</fix>
</trkpt>
<trkpt lat="40.0727961" lon="-105.2307282">
  <ele>1595.64</ele>
  <time>2026-08-28T19:11:00Z</time>
  <course>323.64</course>
  <speed>0.04</speed>
  <fix>3d</fix>
</trkpt>
<trkpt lat="40.072796" lon="-105.2307281">
  <ele>1595.75</ele>
  <time>2026-08-28T19:11:00Z</time>
  <course>35.37</course>
  <speed>0.01</speed>
  <fix>3d</fix>
</trkpt>
<trkpt lat="40.0727962" lon="-105.2307282">
  <ele>1595.63</ele>
  <time>2026-08-28T19:11:00Z</time>
  <course>326.19</course>
  <speed>0.03</speed>
  <fix>3d</fix>
</trkpt>
<trkpt lat="40.072796" lon="-105.2307281">
  <ele>1595.75</ele>
  <time>2026-08-28T19:11:00Z</time>
  <course>35.39</course>
  <speed>0.0</speed>
  <fix>3d</fix>
</trkpt>
<trkpt lat="40.0727962" lon="-105.2307283">
  <ele>1595.63</ele>
  <time>2026-08-28T19:11:00Z</time>
  <course>328.11</course>
  <speed>0.03</speed>
  <fix>3d</fix>
</trkpt>
<trkpt lat="40.0727961" lon="-105.2307282">
  <ele>1595.75</ele>
  <time>2026-08-28T19:11:00Z</time>
  <course>35.38</course>
  <speed>0.01</speed>
  <fix>3d</fix>
</trkpt>
<trkpt lat="40.0727963" lon="-105.2307283">
  <ele>1595.63</ele>
  <time>2026-08-28T19:11:00Z</time>
  <course>328.69</course>
  <speed>0.03</speed>
  <fix>3d</fix>
</trkpt>
<trkpt lat="40.0727962" lon="-105.2307282">
  <ele>1595.74</ele>
  <time>2026-08-28T19:11:00Z</time>
  <course>35.38</course>
  <speed>0.01414213562373095</speed>
  <fix>3d</fix>
</trkpt>
<trkpt lat="40.0727963" lon="-105.2307283">
  <ele>1595.62</ele>
  <time>2026-08-28T19:11:00Z</time>
  <course>328.22</course>
  <speed>0.03</speed>
  <fix>3d</fix>
</trkpt>
<trkpt lat="40.0727962" lon="-105.2307283">
  <ele>1595.73</ele>
  <time>2026-08-28T19:11:00Z</time>
  <course>35.37</course>
  <speed>0.01414213562373095</speed>
  <fix>3d</fix>
</trkpt>
<trkpt lat="40.0727964" lon="-105.2307283">
  <ele>1595.62</ele>
  <time>2026-08-28T19:11:00Z</time>
  <course>326.98</course>
  <speed>0.04</speed>
  <fix>3d</fix>
</trkpt>
<trkpt lat="40.0727963" lon="-105.2307283">
  <ele>1595.72</ele>
  <time>2026-08-28T19:11:00Z</time>
  <course>35.36</course>
  <speed>0.01414213562373095</speed>
  <fix>3d</fix>
</trkpt>
<trkpt lat="40.0727964" lon="-105.2307284">
  <ele>1595.62</ele>
  <time>2026-08-28T19:11:00Z</time>
  <course>325.31</course>
  <speed>0.04</speed>
  <fix>3d</fix>
</trkpt>
<trkpt lat="40.0727964" lon="-105.2307284">
  <ele>1595.72</ele>
  <time>2026-08-28T19:11:00Z</time>
  <course>35.35</course>
  <speed>0.022360679774997897</speed>
  <fix>3d</fix>
</trkpt>
<trkpt lat="40.0727965" lon="-105.2307285">
  <ele>1595.62</ele>
  <time>2026-08-28T19:11:00Z</time>
  <course>323.72</course>
  <speed>0.04</speed>
  <fix>3d</fix>
</trkpt>
<trkpt lat="40.0727964" lon="-105.2307285">
  <ele>1595.72</ele>
  <time>2026-08-28T19:11:00Z</time>
  <course>35.34</course>
  <speed>0.022360679774997897</speed>
  <fix>3d</fix>
</trkpt>
<trkpt lat="40.0727966" lon="-105.2307285">
  <ele>1595.62</ele>
  <time>2026-08-28T19:11:00Z</time>
  <course>321.84</course>
  <speed>0.05</speed>
  <fix>3d</fix>
</trkpt>
<trkpt lat="40.0727965" lon="-105.2307285">
  <ele>1595.72</ele>
  <time>2026-08-28T19:11:00Z</time>
  <course>35.33</course>
  <speed>0.022360679774997897</speed>
  <fix>3d</fix>
</trkpt>
<trkpt lat="40.0727967" lon="-105.2307286">
  <ele>1595.62</ele>
  <time>2026-08-28T19:11:00Z</time>
  <course>320.08</course>
  <speed>0.05</speed>
  <fix>3d</fix>
</trkpt>
<trkpt lat="40.0727966" lon="-105.2307286">
  <ele>1595.73</ele>
  <time>2026-08-28T19:11:00Z</time>
  <course>35.35</course>
  <speed>0.0282842712474619</speed>
  <fix>3d</fix>
</trkpt>
<trkpt lat="40.0727967" lon="-105.2307287">
  <ele>1595.63</ele>
  <time>2026-08-28T19:11:00Z</time>
  <course>318.69</course>
  <speed>0.05</speed>
  <fix>3d</fix>
</trkpt>
<trkpt lat="40.0727966" lon="-105.2307287">
  <ele>1595.73</ele>
  <time>2026-08-28T19:11:00Z</time>
  <course>35.36</course>
  <speed>0.03605551275463989</speed>
  <fix>3d</fix>
</trkpt>
<trkpt lat="40.0727968" lon="-105.2307288">
  <ele>1595.63</ele>
  <time>2026-08-28T19:11:00Z</time>
  <course>317.65</course>
  <speed>0.05</speed>
  <fix>3d</fix>
</trkpt>
<trkpt lat="40.0727967" lon="-105.2307288">
  <ele>1595.73</ele>
  <time>2026-08-28T19:11:00Z</time>
  <course>35.37</course>
  <speed>0.03605551275463989</speed>
  <fix>3d</fix>
</trkpt>
<trkpt lat="40.0727969" lon="-105.2307289">
  <ele>1595.63</ele>
  <time>2026-08-28T19:11:00Z</time>
  <course>316.84</course>
  <speed>0.05</speed>
  <fix>3d</fix>
</trkpt>
<trkpt lat="40.0727968" lon="-105.2307289">
  <ele>1595.73</ele>
  <time>2026-08-28T19:11:00Z</time>
  <course>35.37</course>
  <speed>0.03605551275463989</speed>
  <fix>3d</fix>
</trkpt>
<trkpt lat="40.072797" lon="-105.230729">
  <ele>1595.64</ele>
  <time>2026-08-28T19:11:00Z</time>
  <course>316.07</course>
  <speed>0.05</speed>
  <fix>3d</fix>
</trkpt>
<trkpt lat="40.0727969" lon="-105.230729">
  <ele>1595.73</ele>
  <time>2026-08-28T19:11:00Z</time>
  <course>35.37</course>
  <speed>0.03605551275463989</speed>
  <fix>3d</fix>
</trkpt>
<trkpt lat="40.072797" lon="-105.2307291">
  <ele>1595.64</ele>
  <time>2026-08-28T19:11:00Z</time>
  <course>315.39</course>
  <speed>0.06</speed>
  <fix>3d</fix>
</trkpt>
<trkpt lat="40.072797" lon="-105.2307291">
  <ele>1595.73</ele>
  <time>2026-08-28T19:11:00Z</time>
  <course>35.37</course>
  <speed>0.03605551275463989</speed>
  <fix>3d</fix>
</trkpt>
<trkpt lat="40.0727971" lon="-105.2307292">
  <ele>1595.64</ele>
  <time>2026-08-28T19:11:00Z</time>
  <course>315.02</course>
  <speed>0.06</speed>
  <fix>3d</fix>
</trkpt>
<trkpt lat="40.072797" lon="-105.2307292">
  <ele>1595.73</ele>
  <time>2026-08-28T19:11:00Z</time>
  <course>35.37</course>
  <speed>0.03605551275463989</speed>
  <fix>3d</fix>
</trkpt>
<trkpt lat="40.0727972" lon="-105.2307293">
  <ele>1595.64</ele>
  <time>2026-08-28T19:11:00Z</time>
  <course>314.71</course>
  <speed>0.06</speed>
  <fix>3d</fix>
</trkpt>
<trkpt lat="40.0727971" lon="-105.2307293">
  <ele>1595.73</ele>
  <time>2026-08-28T19:11:00Z</time>
  <course>35.38</course>
  <speed>0.03605551275463989</speed>
  <fix>3d</fix>
</trkpt>
<trkpt lat="40.0727973" lon="-105.2307294">
  <ele>1595.64</ele>
  <time>2026-08-28T19:11:00Z</time>
  <course>314.27</course>
  <speed>0.06</speed>
  <fix>3d</fix>
</trkpt>
<trkpt lat="40.0727972" lon="-105.2307294">
  <ele>1595.73</ele>
  <time>2026-08-28T19:11:01Z</time>
  <course>35.36</course>
  <speed>0.03605551275463989</speed>
  <fix>3d</fix>
</trkpt>
<trkpt lat="40.0727974" lon="-105.2307295">
  <ele>1595.65</ele>
  <time>2026-08-28T19:11:01Z</time>
  <course>313.9</course>
  <speed>0.06</speed>
  <fix>3d</fix>
</trkpt>
<trkpt lat="40.0727973" lon="-105.2307295">
  <ele>1595.73</ele>
  <time>2026-08-28T19:11:01Z</time>
  <course>35.33</course>
  <speed>0.05</speed>
  <fix>3d</fix>
</trkpt>
<trkpt lat="40.0727974" lon="-105.2307296">
  <ele>1595.65</ele>
  <time>2026-08-28T19:11:01Z</time>
  <course>313.56</course>
  <speed>0.07</speed>
  <fix>3d</fix>
</trkpt>
<trkpt lat="40.0727974" lon="-105.2307297">
  <ele>1595.73</ele>
  <time>2026-08-28T19:11:01Z</time>
  <course>35.37</course>
  <speed>0.05</speed>
  <fix>3d</fix>
</trkpt>
<trkpt lat="40.0727975" lon="-105.2307298">
  <ele>1595.65</ele>
  <time>2026-08-28T19:11:01Z</time>
  <course>313.46</course>
  <speed>0.08</speed>
  <fix>3d</fix>
</trkpt>
<trkpt lat="40.0727975" lon="-105.2307298">
  <ele>1595.73</ele>
  <time>2026-08-28T19:11:01Z</time>
  <course>35.37</course>
  <speed>0.044721359549995794</speed>
  <fix>3d</fix>
</trkpt>
<trkpt lat="40.0727976" lon="-105.2307299">
  <ele>1595.65</ele>
  <time>2026-08-28T19:11:01Z</time>
  <course>312.86</course>
  <speed>0.07</speed>
  <fix>3d</fix>
</trkpt>
<trkpt lat="40.0727976" lon="-105.2307299">
  <ele>1595.74</ele>
  <time>2026-08-28T19:11:01Z</time>
  <course>35.36</course>
  <speed>0.0316227766016838</speed>
  <fix>3d</fix>
</trkpt>
<trkpt lat="40.0727977" lon="-105.23073">
  <ele>1595.66</ele>
  <time>2026-08-28T19:11:01Z</time>
  <course>312.28</course>
  <speed>0.06</speed>
  <fix>3d</fix>
</trkpt>
<trkpt lat="40.0727976" lon="-105.23073">
  <ele>1595.74</ele>
  <time>2026-08-28T19:11:01Z</time>
  <course>35.37</course>
  <speed>0.022360679774997897</speed>
  <fix>3d</fix>
</trkpt>
<trkpt lat="40.0727978" lon="-105.2307301">
  <ele>1595.66</ele>
  <time>2026-08-28T19:11:01Z</time>
  <course>313.52</course>
  <speed>0.05</speed>
  <fix>3d</fix>
</trkpt>
<trkpt lat="40.0727977" lon="-105.2307301">
  <ele>1595.75</ele>
  <time>2026-08-28T19:11:01Z</time>
  <course>35.37</course>
  <speed>0.022360679774997897</speed>
  <fix>3d</fix>
</trkpt>
<trkpt lat="40.0727979" lon="-105.2307302">
  <ele>1595.66</ele>
  <time>2026-08-28T19:11:01Z</time>
  <course>316.42</course>
  <speed>0.05</speed>
  <fix>3d</fix>
</trkpt>
<trkpt lat="40.0727978" lon="-105.2307302">
  <ele>1595.75</ele>
  <time>2026-08-28T19:11:01Z</time>
  <course>35.38</course>
  <speed>0.01414213562373095</speed>
  <fix>3d</fix>
</trkpt>
<trkpt lat="40.0727979" lon="-105.2307302">
  <ele>1595.67</ele>
  <time>2026-08-28T19:11:01Z</time>
  <course>319.95</course>
  <speed>0.04</speed>
  <fix>3d</fix>
</trkpt>
<trkpt lat="40.0727978" lon="-105.2307302">
  <ele>1595.75</ele>
  <time>2026-08-28T19:11:01Z</time>
  <course>35.39</course>
  <speed>0.01</speed>
  <fix>3d</fix>
</trkpt>
<trkpt lat="40.072798" lon="-105.2307303">
  <ele>1595.67</ele>
  <time>2026-08-28T19:11:01Z</time>
  <course>323.13</course>
  <speed>0.04</speed>
  <fix>3d</fix>
</trkpt>
<trkpt lat="40.0727979" lon="-105.2307303">
  <ele>1595.74</ele>
  <time>2026-08-28T19:11:01Z</time>
  <course>35.39</course>
  <speed>0.01</speed>
  <fix>3d</fix>
</trkpt>
<trkpt lat="40.072798" lon="-105.2307304">
  <ele>1595.67</ele>
  <time>2026-08-28T19:11:01Z</time>
  <course>325.54</course>
  <speed>0.04</speed>
  <fix>3d</fix>
</trkpt>
<trkpt lat="40.0727979" lon="-105.2307303">
  <ele>1595.74</ele>
  <time>2026-08-28T19:11:01Z</time>
  <course>35.38</course>
  <speed>0.01</speed>
  <fix>3d</fix>
</trkpt>
<trkpt lat="40.0727981" lon="-105.2307304">
  <ele>1595.66</ele>
  <time>2026-08-28T19:11:01Z</time>
  <course>327.45</course>
  <speed>0.03</speed>
  <fix>3d</fix>
</trkpt>
<trkpt lat="40.072798" lon="-105.2307304">
  <ele>1595.74</ele>
  <time>2026-08-28T19:11:01Z</time>
  <course>35.38</course>
  <speed>0.01</speed>
  <fix>3d</fix>
</trkpt>
<trkpt lat="40.0727982" lon="-105.2307304">
  <ele>1595.66</ele>
  <time>2026-08-28T19:11:01Z</time>
  <course>329.01</course>
  <speed>0.03</speed>
  <fix>3d</fix>
</trkpt>
<trkpt lat="40.0727981" lon="-105.2307304">
  <ele>1595.74</ele>
  <time>2026-08-28T19:11:01Z</time>
  <course>35.38</course>
  <speed>0.0</speed>
  <fix>3d</fix>
</trkpt>
<trkpt lat="40.0727982" lon="-105.2307305">
  <ele>1595.66</ele>
  <time>2026-08-28T19:11:01Z</time>
  <course>330.13</course>
  <speed>0.03</speed>
  <fix>3d</fix>
</trkpt>
<trkpt lat="40.0727981" lon="-105.2307305">
  <ele>1595.74</ele>
  <time>2026-08-28T19:11:01Z</time>
  <course>35.38</course>
  <speed>0.0</speed>
  <fix>3d</fix>
</trkpt>
<trkpt lat="40.0727982" lon="-105.2307306">
  <ele>1595.66</ele>
  <time>2026-08-28T19:11:01Z</time>
  <course>330.74</course>
  <speed>0.03</speed>
  <fix>3d</fix>
</trkpt>
<trkpt lat="40.0727982" lon="-105.2307305">
  <ele>1595.74</ele>
  <time>2026-08-28T19:11:01Z</time>
  <course>35.38</course>
  <speed>0.0</speed>
  <fix>3d</fix>
</trkpt>
<trkpt lat="40.0727983" lon="-105.2307306">
  <ele>1595.66</ele>
  <time>2026-08-28T19:11:01Z</time>
  <course>330.83</course>
  <speed>0.03</speed>
  <fix>3d</fix>
</trkpt>
<trkpt lat="40.0727982" lon="-105.2307305">
  <ele>1595.74</ele>
  <time>2026-08-28T19:11:01Z</time>
  <course>35.38</course>
  <speed>0.0</speed>
  <fix>3d</fix>
</trkpt>
<trkpt lat="40.0727983" lon="-105.2307306">
  <ele>1595.66</ele>
  <time>2026-08-28T19:11:01Z</time>
  <course>336.11</course>
  <speed>0.02</speed>
  <fix>3d</fix>
</trkpt>
<trkpt lat="40.0727982" lon="-105.2307305">
  <ele>1595.74</ele>
  <time>2026-08-28T19:11:01Z</time>
  <course>35.38</course>
  <speed>0.0</speed>
  <fix>3d</fix>
</trkpt>
<trkpt lat="40.0727983" lon="-105.2307307">
  <ele>1595.66</ele>
  <time>2026-08-28T19:11:01Z</time>
  <course>347.76</course>
  <speed>0.01</speed>
  <fix>3d</fix>
</trkpt>
<trkpt lat="40.0727983" lon="-105.2307306">
  <ele>1595.74</ele>
  <time>2026-08-28T19:11:01Z</time>
  <course>35.38</course>
  <speed>0.0</speed>
  <fix>3d</fix>
</trkpt>
<trkpt lat="40.0727984" lon="-105.2307307">
  <ele>1595.66</ele>
  <time>2026-08-28T19:11:01Z</time>
  <course>346.52</course>
  <speed>0.02</speed>
  <fix>3d</fix>
</trkpt>
<trkpt lat="40.0727983" lon="-105.2307306">
  <ele>1595.74</ele>
  <time>2026-08-28T19:11:01Z</time>
  <course>35.37</course>
  <speed>0.0</speed>
  <fix>3d</fix>
</trkpt>
<trkpt lat="40.0727985" lon="-105.2307307">
  <ele>1595.66</ele>
  <time>2026-08-28T19:11:01Z</time>
  <course>340.87</course>
  <speed>0.02</speed>
  <fix>3d</fix>
</trkpt>
<trkpt lat="40.0727984" lon="-105.2307306">
  <ele>1595.74</ele>
  <time>2026-08-28T19:11:01Z</time>
  <course>35.37</course>
  <speed>0.01414213562373095</speed>
  <fix>3d</fix>
</trkpt>
<trkpt lat="40.0727985" lon="-105.2307307">
  <ele>1595.66</ele>
  <time>2026-08-28T19:11:01Z</time>
  <course>335.06</course>
  <speed>0.03</speed>
  <fix>3d</fix>
</trkpt>
<trkpt lat="40.0727984" lon="-105.2307307">
  <ele>1595.74</ele>
  <time>2026-08-28T19:11:01Z</time>
  <course>35.37</course>
  <speed>0.01414213562373095</speed>
  <fix>3d</fix>
</trkpt>
<trkpt lat="40.0727986" lon="-105.2307307">
  <ele>1595.66</ele>
  <time>2026-08-28T19:11:01Z</time>
  <course>330.69</course>
  <speed>0.03</speed>
  <fix>3d</fix>
</trkpt>
<trkpt lat="40.0727985" lon="-105.2307307">
  <ele>1595.74</ele>
  <time>2026-08-28T19:11:01Z</time>
  <course>35.37</course>
  <speed>0.022360679774997897</speed>
  <fix>3d</fix>
</trkpt>
<trkpt lat="40.0727986" lon="-105.2307307">
  <ele>1595.66</ele>
  <time>2026-08-28T19:11:01Z</time>
  <course>327.66</course>
  <speed>0.04</speed>
  <fix>3d</fix>
</trkpt>
<trkpt lat="40.0727986" lon="-105.2307308">
  <ele>1595.74</ele>
  <time>2026-08-28T19:11:01Z</time>
  <course>35.38</course>
  <speed>0.0282842712474619</speed>
  <fix>3d</fix>
</trkpt>
<trkpt lat="40.0727987" lon="-105.2307308">
  <ele>1595.66</ele>
  <time>2026-08-28T19:11:01Z</time>
  <course>325.5</course>
  <speed>0.04</speed>
  <fix>3d</fix>
</trkpt>
<trkpt lat="40.0727986" lon="-105.2307308">
  <ele>1595.74</ele>
  <time>2026-08-28T19:11:01Z</time>
  <course>35.38</course>
  <speed>0.0282842712474619</speed>
  <fix>3d</fix>
</trkpt>
<trkpt lat="40.0727988" lon="-105.2307309">
  <ele>1595.66</ele>
  <time>2026-08-28T19:11:01Z</time>
  <course>324.16</course>
  <speed>0.05</speed>
  <fix>3d</fix>
</trkpt>
<trkpt lat="40.0727987" lon="-105.2307309">
  <ele>1595.75</ele>
  <time>2026-08-28T19:11:01Z</time>
  <course>35.38</course>
  <speed>0.0282842712474619</speed>
  <fix>3d</fix>
</trkpt>
<trkpt lat="40.0727988" lon="-105.2307309">
  <ele>1595.66</ele>
  <time>2026-08-28T19:11:01Z</time>
  <course>322.94</course>
  <speed>0.05</speed>
  <fix>3d</fix>
</trkpt>
<trkpt lat="40.0727988" lon="-105.230731">
  <ele>1595.75</ele>
  <time>2026-08-28T19:11:01Z</time>
  <course>35.38</course>
  <speed>0.0282842712474619</speed>
  <fix>3d</fix>
</trkpt>
<trkpt lat="40.0727989" lon="-105.230731">
  <ele>1595.66</ele>
  <time>2026-08-28T19:11:01Z</time>
  <course>321.83</course>
  <speed>0.05</speed>
  <fix>3d</fix>
</trkpt>
<trkpt lat="40.0727989" lon="-105.2307311">
  <ele>1595.75</ele>
  <time>2026-08-28T19:11:01Z</time>
  <course>35.4</course>
  <speed>0.03605551275463989</speed>
  <fix>3d</fix>
</trkpt>
<trkpt lat="40.072799" lon="-105.2307311">
  <ele>1595.66</ele>
  <time>2026-08-28T19:11:01Z</time>
  <course>320.96</course>
  <speed>0.06</speed>
  <fix>3d</fix>
</trkpt>
<trkpt lat="40.072799" lon="-105.2307312">
  <ele>1595.76</ele>
  <time>2026-08-28T19:11:01Z</time>
  <course>35.42</course>
  <speed>0.03605551275463989</speed>
  <fix>3d</fix>
</trkpt>
<trkpt lat="40.0727991" lon="-105.2307312">
  <ele>1595.66</ele>
  <time>2026-08-28T19:11:01Z</time>
  <course>319.88</course>
  <speed>0.06</speed>
  <fix>3d</fix>
</trkpt>
<trkpt lat="40.072799" lon="-105.2307312">
  <ele>1595.76</ele>
  <time>2026-08-28T19:11:01Z</time>
  <course>35.41</course>
  <speed>0.03605551275463989</speed>
  <fix>3d</fix>
</trkpt>
<trkpt lat="40.0727992" lon="-105.2307313">
  <ele>1595.66</ele>
  <time>2026-08-28T19:11:01Z</time>
  <course>319.04</course>
  <speed>0.06</speed>
  <fix>3d</fix>
</trkpt>
<trkpt lat="40.0727991" lon="-105.2307313">
  <ele>1595.75</ele>
  <time>2026-08-28T19:11:01Z</time>
  <course>35.39</course>
  <speed>0.03605551275463989</speed>
  <fix>3d</fix>
</trkpt>
<trkpt lat="40.0727993" lon="-105.2307314">
  <ele>1595.65</ele>
  <time>2026-08-28T19:11:01Z</time>
  <course>318.48</course>
  <speed>0.06</speed>
  <fix>3d</fix>
</trkpt>
<trkpt lat="40.0727992" lon="-105.2307314">
  <ele>1595.75</ele>
  <time>2026-08-28T19:11:01Z</time>
  <course>35.4</course>
  <speed>0.03605551275463989</speed>
  <fix>3d</fix>
</trkpt>
<trkpt lat="40.0727994" lon="-105.2307315">
  <ele>1595.65</ele>
  <time>2026-08-28T19:11:01Z</time>
  <course>317.96</course>
  <speed>0.06</speed>
  <fix>3d</fix>
</trkpt>
<trkpt lat="40.0727993" lon="-105.2307315">
  <ele>1595.74</ele>
  <time>2026-08-28T19:11:01Z</time>
  <course>35.39</course>
  <speed>0.05</speed>
  <fix>3d</fix>
</trkpt>
<trkpt lat="40.0727994" lon="-105.2307316">
  <ele>1595.65</ele>
  <time>2026-08-28T19:11:01Z</time>
  <course>316.83</course>
  <speed>0.06</speed>
  <fix>3d</fix>
</trkpt>
<trkpt lat="40.0727994" lon="-105.2307317">
  <ele>1595.74</ele>
  <time>2026-08-28T19:11:01Z</time>
  <course>35.38</course>
  <speed>0.05</speed>
  <fix>3d</fix>
</trkpt>
<trkpt lat="40.0727995" lon="-105.2307317">
  <ele>1595.64</ele>
  <time>2026-08-28T19:11:01Z</time>
  <course>315.91</course>
  <speed>0.07</speed>
  <fix>3d</fix>
</trkpt>
<trkpt lat="40.0727995" lon="-105.2307318">
  <ele>1595.74</ele>
  <time>2026-08-28T19:11:01Z</time>
  <course>35.37</course>
  <speed>0.044721359549995794</speed>
  <fix>3d</fix>
</trkpt>
<trkpt lat="40.0727996" lon="-105.2307319">
  <ele>1595.64</ele>
  <time>2026-08-28T19:11:01Z</time>
  <course>314.63</course>
  <speed>0.07</speed>
  <fix>3d</fix>
</trkpt>
<trkpt lat="40.0727996" lon="-105.2307319">
  <ele>1595.74</ele>
  <time>2026-08-28T19:11:01Z</time>
  <course>35.37</course>
  <speed>0.0316227766016838</speed>
  <fix>3d</fix>
</trkpt>
<trkpt lat="40.0727997" lon="-105.230732">
  <ele>1595.64</ele>
  <time>2026-08-28T19:11:01Z</time>
  <course>313.31</course>
  <speed>0.06</speed>
  <fix>3d</fix>
</trkpt>
<trkpt lat="40.0727996" lon="-105.230732">
  <ele>1595.74</ele>
  <time>2026-08-28T19:11:01Z</time>
  <course>35.37</course>
  <speed>0.022360679774997897</speed>
  <fix>3d</fix>
</trkpt>
<trkpt lat="40.0727998" lon="-105.2307321">
  <ele>1595.64</ele>
  <time>2026-08-28T19:11:01Z</time>
  <course>313.93</course>
  <speed>0.05</speed>
  <fix>3d</fix>
</trkpt>
<trkpt lat="40.0727997" lon="-105.2307321">
  <ele>1595.73</ele>
  <time>2026-08-28T19:11:01Z</time>
  <course>35.37</course>
  <speed>0.02</speed>
  <fix>3d</fix>
</trkpt>
<trkpt lat="40.0727999" lon="-105.2307321">
  <ele>1595.64</ele>
  <time>2026-08-28T19:11:01Z</time>
  <course>316.24</course>
  <speed>0.05</speed>
  <fix>3d</fix>
</trkpt>
<trkpt lat="40.0727998" lon="-105.2307321">
  <ele>1595.73</ele>
  <time>2026-08-28T19:11:01Z</time>
  <course>35.36</course>
  <speed>0.01</speed>
  <fix>3d</fix>
</trkpt>
<trkpt lat="40.0727999" lon="-105.2307322">
  <ele>1595.64</ele>
  <time>2026-08-28T19:11:01Z</time>
  <course>319.53</course>
  <speed>0.04</speed>
  <fix>3d</fix>
</trkpt>
<trkpt lat="40.0727998" lon="-105.2307322">
  <ele>1595.73</ele>
  <time>2026-08-28T19:11:01Z</time>
  <course>35.35</course>
  <speed>0.01</speed>
  <fix>3d</fix>
</trkpt>
<trkpt lat="40.0728" lon="-105.2307323">
  <ele>1595.64</ele>
  <time>2026-08-28T19:11:01Z</time>
  <course>322.98</course>
  <speed>0.04</speed>
  <fix>3d</fix>
</trkpt>
<trkpt lat="40.0727999" lon="-105.2307323">
  <ele>1595.73</ele>
  <time>2026-08-28T19:11:01Z</time>
  <course>35.37</course>
  <speed>0.01</speed>
  <fix>3d</fix>
</trkpt>
<trkpt lat="40.0728" lon="-105.2307323">
  <ele>1595.64</ele>
  <time>2026-08-28T19:11:01Z</time>
  <course>325.6</course>
  <speed>0.03</speed>
  <fix>3d</fix>
</trkpt>
<trkpt lat="40.0727999" lon="-105.2307323">
  <ele>1595.73</ele>
  <time>2026-08-28T19:11:01Z</time>
  <course>35.36</course>
  <speed>0.01</speed>
  <fix>3d</fix>
</trkpt>
<trkpt lat="40.0728001" lon="-105.2307323">
  <ele>1595.65</ele>
  <time>2026-08-28T19:11:01Z</time>
  <course>327.19</course>
  <speed>0.03</speed>
  <fix>3d</fix>
</trkpt>
<trkpt lat="40.0728" lon="-105.2307323">
  <ele>1595.73</ele>
  <time>2026-08-28T19:11:01Z</time>
  <course>35.36</course>
  <speed>0.0</speed>
  <fix>3d</fix>
</trkpt>
<trkpt lat="40.0728001" lon="-105.2307324">
  <ele>1595.65</ele>
  <time>2026-08-28T19:11:01Z</time>
  <course>327.98</course>
  <speed>0.03</speed>
  <fix>3d</fix>
</trkpt>
<trkpt lat="40.0728" lon="-105.2307324">
  <ele>1595.74</ele>
  <time>2026-08-28T19:11:01Z</time>
  <course>35.37</course>
  <speed>0.0</speed>
  <fix>3d</fix>
</trkpt>
<trkpt lat="40.0728002" lon="-105.2307325">
  <ele>1595.65</ele>
  <time>2026-08-28T19:11:01Z</time>
  <course>328.1</course>
  <speed>0.03</speed>
  <fix>3d</fix>
</trkpt>
<trkpt lat="40.0728001" lon="-105.2307324">
  <ele>1595.74</ele>
  <time>2026-08-28T19:11:01Z</time>
  <course>35.38</course>
  <speed>0.0</speed>
  <fix>3d</fix>
</trkpt>
<trkpt lat="40.0728003" lon="-105.2307325">
  <ele>1595.65</ele>
  <time>2026-08-28T19:11:01Z</time>
  <course>328.0</course>
  <speed>0.03</speed>
  <fix>3d</fix>
</trkpt>
<trkpt lat="40.0728001" lon="-105.2307324">
  <ele>1595.75</ele>
  <time>2026-08-28T19:11:01Z</time>
  <course>35.4</course>
  <speed>0.0</speed>
  <fix>3d</fix>
</trkpt>
<trkpt lat="40.0728003" lon="-105.2307326">
  <ele>1595.66</ele>
  <time>2026-08-28T19:11:01Z</time>
  <course>328.36</course>
  <speed>0.03</speed>
  <fix>3d</fix>
</trkpt>
<trkpt lat="40.0728002" lon="-105.2307325">
  <ele>1595.75</ele>
  <time>2026-08-28T19:11:01Z</time>
  <course>35.38</course>
  <speed>0.0</speed>
  <fix>3d</fix>
</trkpt>
<trkpt lat="40.0728004" lon="-105.2307326">
  <ele>1595.66</ele>
  <time>2026-08-28T19:11:01Z</time>
  <course>331.07</course>
  <speed>0.02</speed>
  <fix>3d</fix>
</trkpt>
<trkpt lat="40.0728002" lon="-105.2307325">
  <ele>1595.75</ele>
  <time>2026-08-28T19:11:01Z</time>
  <course>35.38</course>
  <speed>0.0</speed>
  <fix>3d</fix>
</trkpt>
<trkpt lat="40.0728004" lon="-105.2307326">
  <ele>1595.66</ele>
  <time>2026-08-28T19:11:01Z</time>
  <course>337.63</course>
  <speed>0.02</speed>
  <fix>3d</fix>
</trkpt>
<trkpt lat="40.0728002" lon="-105.2307325">
  <ele>1595.75</ele>
  <time>2026-08-28T19:11:01Z</time>
  <course>35.38</course>
  <speed>0.0</speed>
  <fix>3d</fix>
</trkpt>
<trkpt lat="40.0728004" lon="-105.2307326">
  <ele>1595.66</ele>
  <time>2026-08-28T19:11:01Z</time>
  <course>338.05</course>
  <speed>0.02</speed>
  <fix>3d</fix>
</trkpt>
<trkpt lat="40.0728003" lon="-105.2307325">
  <ele>1595.74</ele>
  <time>2026-08-28T19:11:01Z</time>
  <course>35.37</course>
  <speed>0.0</speed>
  <fix>3d</fix>
</trkpt>
<trkpt lat="40.0728005" lon="-105.2307326">
  <ele>1595.66</ele>
  <time>2026-08-28T19:11:01Z</time>
  <course>333.54</course>
  <speed>0.03</speed>
  <fix>3d</fix>
</trkpt>
<trkpt lat="40.0728004" lon="-105.2307326">
  <ele>1595.74</ele>
  <time>2026-08-28T19:11:01Z</time>
  <course>35.37</course>
  <speed>0.01414213562373095</speed>
  <fix>3d</fix>
</trkpt>
<trkpt lat="40.0728005" lon="-105.2307327">
  <ele>1595.66</ele>
  <time>2026-08-28T19:11:01Z</time>
  <course>329.38</course>
  <speed>0.03</speed>
  <fix>3d</fix>
</trkpt>
<trkpt lat="40.0728004" lon="-105.2307326">
  <ele>1595.74</ele>
  <time>2026-08-28T19:11:01Z</time>
  <course>35.37</course>
  <speed>0.01414213562373095</speed>
  <fix>3d</fix>
</trkpt>
<trkpt lat="40.0728006" lon="-105.2307328">
  <ele>1595.66</ele>
  <time>2026-08-28T19:11:01Z</time>
  <course>326.29</course>
  <speed>0.04</speed>
  <fix>3d</fix>
</trkpt>
<trkpt lat="40.0728005" lon="-105.2307327">
  <ele>1595.74</ele>
  <time>2026-08-28T19:11:01Z</time>
  <course>35.37</course>
  <speed>0.022360679774997897</speed>
  <fix>3d</fix>
</trkpt>
<trkpt lat="40.0728006" lon="-105.2307328">
  <ele>1595.66</ele>
  <time>2026-08-28T19:11:01Z</time>
  <course>324.05</course>
  <speed>0.04</speed>
  <fix>3d</fix>
</trkpt>
<trkpt lat="40.0728006" lon="-105.2307328">
  <ele>1595.73</ele>
  <time>2026-08-28T19:11:01Z</time>
  <course>35.37</course>
  <speed>0.0282842712474619</speed>
  <fix>3d</fix>
</trkpt>
<trkpt lat="40.0728007" lon="-105.2307329">
  <ele>1595.66</ele>
  <time>2026-08-28T19:11:01Z</time>
  <course>322.65</course>
  <speed>0.05</speed>
  <fix>3d</fix>
</trkpt>
<trkpt lat="40.0728006" lon="-105.2307329">
  <ele>1595.74</ele>
  <time>2026-08-28T19:11:01Z</time>
  <course>35.36</course>
  <speed>0.0282842712474619</speed>
  <fix>3d</fix>
</trkpt>
<trkpt lat="40.0728008" lon="-105.230733">
  <ele>1595.66</ele>
  <time>2026-08-28T19:11:01Z</time>
  <course>321.78</course>
  <speed>0.05</speed>
  <fix>3d</fix>
</trkpt>
<trkpt lat="40.0728007" lon="-105.2307329">
  <ele>1595.74</ele>
  <time>2026-08-28T19:11:01Z</time>
  <course>35.37</course>
  <speed>0.0282842712474619</speed>
  <fix>3d</fix>
</trkpt>
<trkpt lat="40.0728009" lon="-105.230733">
  <ele>1595.66</ele>
  <time>2026-08-28T19:11:01Z</time>
  <course>320.8</course>
  <speed>0.05</speed>
  <fix>3d</fix>
</trkpt>
<trkpt lat="40.0728008" lon="-105.230733">
  <ele>1595.74</ele>
  <time>2026-08-28T19:11:01Z</time>
  <course>35.37</course>
  <speed>0.03605551275463989</speed>
  <fix>3d</fix>
</trkpt>
<trkpt lat="40.0728009" lon="-105.2307331">
  <ele>1595.66</ele>
  <time>2026-08-28T19:11:01Z</time>
  <course>319.75</course>
  <speed>0.05</speed>
  <fix>3d</fix>
</trkpt>
<trkpt lat="40.0728009" lon="-105.2307331">
  <ele>1595.74</ele>
  <time>2026-08-28T19:11:01Z</time>
  <course>35.37</course>
  <speed>0.03605551275463989</speed>
  <fix>3d</fix>
</trkpt>
<trkpt lat="40.072801" lon="-105.2307332">
  <ele>1595.66</ele>
  <time>2026-08-28T19:11:01Z</time>
  <course>318.85</course>
  <speed>0.06</speed>
  <fix>3d</fix>
</trkpt>
<trkpt lat="40.072801" lon="-105.2307332">
  <ele>1595.74</ele>
  <time>2026-08-28T19:11:01Z</time>
  <course>35.37</course>
  <speed>0.03605551275463989</speed>
  <fix>3d</fix>
</trkpt>
<trkpt lat="40.0728011" lon="-105.2307333">
  <ele>1595.66</ele>
  <time>2026-08-28T19:11:01Z</time>
  <course>318.22</course>
  <speed>0.06</speed>
  <fix>3d</fix>
</trkpt>
<trkpt lat="40.072801" lon="-105.2307333">
  <ele>1595.74</ele>
  <time>2026-08-28T19:11:01Z</time>
  <course>35.37</course>
  <speed>0.03605551275463989</speed>
  <fix>3d</fix>
</trkpt>
<trkpt lat="40.0728012" lon="-105.2307334">
  <ele>1595.66</ele>
  <time>2026-08-28T19:11:01Z</time>
  <course>317.91</course>
  <speed>0.06</speed>
  <fix>3d</fix>
</trkpt>
<trkpt lat="40.0728011" lon="-105.2307334">
  <ele>1595.74</ele>
  <time>2026-08-28T19:11:01Z</time>
  <course>35.37</course>
  <speed>0.03605551275463989</speed>
  <fix>3d</fix>
</trkpt>
<trkpt lat="40.0728013" lon="-105.2307335">
  <ele>1595.66</ele>
  <time>2026-08-28T19:11:01Z</time>
  <course>317.73</course>
  <speed>0.06</speed>
  <fix>3d</fix>
</trkpt>
<trkpt lat="40.0728012" lon="-105.2307335">
  <ele>1595.74</ele>
  <time>2026-08-28T19:11:01Z</time>
  <course>35.37</course>
  <speed>0.03605551275463989</speed>
  <fix>3d</fix>
</trkpt>
<trkpt lat="40.0728014" lon="-105.2307336">
  <ele>1595.66</ele>
  <time>2026-08-28T19:11:01Z</time>
  <course>317.58</course>
  <speed>0.06</speed>
  <fix>3d</fix>
</trkpt>
<trkpt lat="40.0728013" lon="-105.2307336">
  <ele>1595.74</ele>
  <time>2026-08-28T19:11:01Z</time>
  <course>35.4</course>
  <speed>0.05</speed>
  <fix>3d</fix>
</trkpt>
<trkpt lat="40.0728015" lon="-105.2307337">
  <ele>1595.66</ele>
  <time>2026-08-28T19:11:01Z</time>
  <course>317.2</course>
  <speed>0.07</speed>
  <fix>3d</fix>
</trkpt>
<trkpt lat="40.0728014" lon="-105.2307338">
  <ele>1595.74</ele>
  <time>2026-08-28T19:11:01Z</time>
  <course>35.39</course>
  <speed>0.044721359549995794</speed>
  <fix>3d</fix>
</trkpt>
<trkpt lat="40.0728016" lon="-105.2307338">
  <ele>1595.67</ele>
  <time>2026-08-28T19:11:01Z</time>
  <course>315.84</course>
  <speed>0.08</speed>
  <fix>3d</fix>
</trkpt>
<trkpt lat="40.0728015" lon="-105.2307339">
  <ele>1595.74</ele>
  <time>2026-08-28T19:11:01Z</time>
  <course>35.39</course>
  <speed>0.03605551275463989</speed>
  <fix>3d</fix>
</trkpt>
<trkpt lat="40.0728017" lon="-105.230734">
  <ele>1595.67</ele>
  <time>2026-08-28T19:11:01Z</time>
  <course>314.03</course>
  <speed>0.07</speed>
  <fix>3d</fix>
</trkpt>
<trkpt lat="40.0728016" lon="-105.230734">
  <ele>1595.74</ele>
  <time>2026-08-28T19:11:01Z</time>
  <course>35.39</course>
  <speed>0.022360679774997897</speed>
  <fix>3d</fix>
</trkpt>
<trkpt lat="40.0728017" lon="-105.2307341">
  <ele>1595.67</ele>
  <time>2026-08-28T19:11:01Z</time>
  <course>313.42</course>
  <speed>0.06</speed>
  <fix>3d</fix>
</trkpt>
<trkpt lat="40.0728016" lon="-105.2307341">
  <ele>1595.75</ele>
  <time>2026-08-28T19:11:01Z</time>
  <course>35.39</course>
  <speed>0.022360679774997897</speed>
  <fix>3d</fix>
</trkpt>
<trkpt lat="40.0728018" lon="-105.2307342">
  <ele>1595.67</ele>
  <time>2026-08-28T19:11:01Z</time>
  <course>314.67</course>
  <speed>0.05</speed>
  <fix>3d</fix>
</trkpt>
<trkpt lat="40.0728017" lon="-105.2307342">
  <ele>1595.75</ele>
  <time>2026-08-28T19:11:01Z</time>
  <course>35.4</course>
  <speed>0.01</speed>
  <fix>3d</fix>
</trkpt>
<trkpt lat="40.0728019" lon="-105.2307343">
  <ele>1595.67</ele>
  <time>2026-08-28T19:11:01Z</time>
  <course>317.58</course>
  <speed>0.04</speed>
  <fix>3d</fix>
</trkpt>
<trkpt lat="40.0728018" lon="-105.2307342">
  <ele>1595.75</ele>
  <time>2026-08-28T19:11:01Z</time>
  <course>35.41</course>
  <speed>0.01</speed>
  <fix>3d</fix>
</trkpt>
<trkpt lat="40.0728019" lon="-105.2307343">
  <ele>1595.67</ele>
  <time>2026-08-28T19:11:01Z</time>
  <course>321.16</course>
  <speed>0.04</speed>
  <fix>3d</fix>
</trkpt>
<trkpt lat="40.0728018" lon="-105.2307343">
  <ele>1595.75</ele>
  <time>2026-08-28T19:11:01Z</time>
  <course>35.41</course>
  <speed>0.01</speed>
  <fix>3d</fix>
</trkpt>
<trkpt lat="40.072802" lon="-105.2307344">
  <ele>1595.67</ele>
  <time>2026-08-28T19:11:01Z</time>
  <course>324.4</course>
  <speed>0.03</speed>
  <fix>3d</fix>
</trkpt>
<trkpt lat="40.0728019" lon="-105.2307343">
  <ele>1595.76</ele>
  <time>2026-08-28T19:11:01Z</time>
  <course>35.41</course>
  <speed>0.01</speed>
  <fix>3d</fix>
</trkpt>
<trkpt lat="40.072802" lon="-105.2307345">
  <ele>1595.66</ele>
  <time>2026-08-28T19:11:01Z</time>
  <course>326.83</course>
  <speed>0.03</speed>
  <fix>3d</fix>
</trkpt>
<trkpt lat="40.0728019" lon="-105.2307344">
  <ele>1595.76</ele>
  <time>2026-08-28T19:11:01Z</time>
  <course>35.41</course>
  <speed>0.01</speed>
  <fix>3d</fix>
</trkpt>
<trkpt lat="40.0728021" lon="-105.2307345">
  <ele>1595.66</ele>
  <time>2026-08-28T19:11:01Z</time>
  <course>328.5</course>
  <speed>0.03</speed>
  <fix>3d</fix>
</trkpt>
<trkpt lat="40.072802" lon="-105.2307344">
  <ele>1595.75</ele>
  <time>2026-08-28T19:11:01Z</time>
  <course>35.41</course>
  <speed>0.01</speed>
  <fix>3d</fix>
</trkpt>
<trkpt lat="40.0728022" lon="-105.2307345">
  <ele>1595.66</ele>
  <time>2026-08-28T19:11:01Z</time>
  <course>329.57</course>
  <speed>0.03</speed>
  <fix>3d</fix>
</trkpt>
<trkpt lat="40.072802" lon="-105.2307344">
  <ele>1595.75</ele>
  <time>2026-08-28T19:11:01Z</time>
  <course>35.41</course>
  <speed>0.01</speed>
  <fix>3d</fix>
</trkpt>
<trkpt lat="40.0728023" lon="-105.2307346">
  <ele>1595.66</ele>
  <time>2026-08-28T19:11:01Z</time>
  <course>330.13</course>
  <speed>0.03</speed>
  <fix>3d</fix>
</trkpt>
<trkpt lat="40.0728021" lon="-105.2307345">
  <ele>1595.75</ele>
  <time>2026-08-28T19:11:01Z</time>
  <course>35.4</course>
  <speed>0.01</speed>
  <fix>3d</fix>
</trkpt>
<trkpt lat="40.0728023" lon="-105.2307347">
  <ele>1595.65</ele>
  <time>2026-08-28T19:11:01Z</time>
  <course>330.52</course>
  <speed>0.03</speed>
  <fix>3d</fix>
</trkpt>
<trkpt lat="40.0728021" lon="-105.2307345">
  <ele>1595.75</ele>
  <time>2026-08-28T19:11:01Z</time>
  <course>35.41</course>
  <speed>0.0</speed>
  <fix>3d</fix>
</trkpt>
<trkpt lat="40.0728024" lon="-105.2307347">
  <ele>1595.65</ele>
  <time>2026-08-28T19:11:01Z</time>
  <course>333.1</course>
  <speed>0.03</speed>
  <fix>3d</fix>
</trkpt>
<trkpt lat="40.0728022" lon="-105.2307345">
  <ele>1595.74</ele>
  <time>2026-08-28T19:11:01Z</time>
  <course>35.38</course>
  <speed>0.0</speed>
  <fix>3d</fix>
</trkpt>
<trkpt lat="40.0728024" lon="-105.2307347">
  <ele>1595.65</ele>
  <time>2026-08-28T19:11:01Z</time>
  <course>336.67</course>
  <speed>0.02</speed>
  <fix>3d</fix>
</trkpt>
<trkpt lat="40.0728022" lon="-105.2307346">
  <ele>1595.74</ele>
  <time>2026-08-28T19:11:01Z</time>
  <course>35.38</course>
  <speed>0.0</speed>
  <fix>3d</fix>
</trkpt>
<trkpt lat="40.0728025" lon="-105.2307347">
  <ele>1595.64</ele>
  <time>2026-08-28T19:11:01Z</time>
  <course>339.64</course>
  <speed>0.02</speed>
  <fix>3d</fix>
</trkpt>
<trkpt lat="40.0728023" lon="-105.2307346">
  <ele>1595.74</ele>
  <time>2026-08-28T19:11:01Z</time>
  <course>35.37</course>
  <speed>0.0</speed>
  <fix>3d</fix>
</trkpt>
<trkpt lat="40.0728025" lon="-105.2307347">
  <ele>1595.64</ele>
  <time>2026-08-28T19:11:01Z</time>
  <course>339.17</course>
  <speed>0.02</speed>
  <fix>3d</fix>
</trkpt>
<trkpt lat="40.0728023" lon="-105.2307346">
  <ele>1595.73</ele>
  <time>2026-08-28T19:11:01Z</time>
  <course>35.36</course>
  <speed>0.01</speed>
  <fix>3d</fix>
</trkpt>
<trkpt lat="40.0728025" lon="-105.2307348">
  <ele>1595.64</ele>
  <time>2026-08-28T19:11:01Z</time>
  <course>334.93</course>
  <speed>0.03</speed>
  <fix>3d</fix>
</trkpt>
<trkpt lat="40.0728024" lon="-105.2307347">
  <ele>1595.73</ele>
  <time>2026-08-28T19:11:01Z</time>
  <course>35.37</course>
  <speed>0.01414213562373095</speed>
  <fix>3d</fix>
</trkpt>
<trkpt lat="40.0728026" lon="-105.2307349">
  <ele>1595.64</ele>
  <time>2026-08-28T19:11:01Z</time>
  <course>331.45</course>
  <speed>0.03</speed>
  <fix>3d</fix>
</trkpt>
<trkpt lat="40.0728025" lon="-105.2307347">
  <ele>1595.73</ele>
  <time>2026-08-28T19:11:01Z</time>
  <course>35.36</course>
  <speed>0.01414213562373095</speed>
  <fix>3d</fix>
</trkpt>
<trkpt lat="40.0728026" lon="-105.2307349">
  <ele>1595.64</ele>
  <time>2026-08-28T19:11:01Z</time>
  <course>328.79</course>
  <speed>0.04</speed>
  <fix>3d</fix>
</trkpt>
<trkpt lat="40.0728025" lon="-105.2307348">
  <ele>1595.73</ele>
  <time>2026-08-28T19:11:01Z</time>
  <course>35.37</course>
  <speed>0.022360679774997897</speed>
  <fix>3d</fix>
</trkpt>
<trkpt lat="40.0728027" lon="-105.230735">
  <ele>1595.64</ele>
  <time>2026-08-28T19:11:01Z</time>
  <course>326.34</course>
  <speed>0.04</speed>
  <fix>3d</fix>
</trkpt>
<trkpt lat="40.0728026" lon="-105.2307349">
  <ele>1595.73</ele>
  <time>2026-08-28T19:11:01Z</time>
  <course>35.37</course>
  <speed>0.0282842712474619</speed>
  <fix>3d</fix>
</trkpt>
<trkpt lat="40.0728028" lon="-105.230735">
  <ele>1595.64</ele>
  <time>2026-08-28T19:11:01Z</time>
  <course>324.15</course>
  <speed>0.05</speed>
  <fix>3d</fix>
</trkpt>
<trkpt lat="40.0728027" lon="-105.230735">
  <ele>1595.73</ele>
  <time>2026-08-28T19:11:01Z</time>
  <course>35.36</course>
  <speed>0.0282842712474619</speed>
  <fix>3d</fix>
</trkpt>
<trkpt lat="40.0728029" lon="-105.2307351">
  <ele>1595.64</ele>
  <time>2026-08-28T19:11:01Z</time>
  <course>322.32</course>
  <speed>0.05</speed>
  <fix>3d</fix>
</trkpt>
<trkpt lat="40.0728028" lon="-105.2307351">
  <ele>1595.73</ele>
  <time>2026-08-28T19:11:01Z</time>
  <course>35.34</course>
  <speed>0.0282842712474619</speed>
  <fix>3d</fix>
</trkpt>
<trkpt lat="40.072803" lon="-105.2307352">
  <ele>1595.64</ele>
  <time>2026-08-28T19:11:01Z</time>
  <course>320.64</course>
  <speed>0.05</speed>
  <fix>3d</fix>
</trkpt>
<trkpt lat="40.0728029" lon="-105.2307352">
  <ele>1595.73</ele>
  <time>2026-08-28T19:11:01Z</time>
  <course>35.36</course>
  <speed>0.03605551275463989</speed>
  <fix>3d</fix>
</trkpt>
<trkpt lat="40.072803" lon="-105.2307352">
  <ele>1595.65</ele>
  <time>2026-08-28T19:11:01Z</time>
  <course>319.34</course>
  <speed>0.05</speed>
  <fix>3d</fix>
</trkpt>
<trkpt lat="40.0728029" lon="-105.2307352">
  <ele>1595.73</ele>
  <time>2026-08-28T19:11:01Z</time>
  <course>35.37</course>
  <speed>0.03605551275463989</speed>
  <fix>3d</fix>
</trkpt>
<trkpt lat="40.0728031" lon="-105.2307353">
  <ele>1595.65</ele>
  <time>2026-08-28T19:11:01Z</time>
  <course>318.73</course>
  <speed>0.05</speed>
  <fix>3d</fix>
</trkpt>
<trkpt lat="40.072803" lon="-105.2307353">
  <ele>1595.73</ele>
  <time>2026-08-28T19:11:01Z</time>
  <course>35.37</course>
  <speed>0.03605551275463989</speed>
  <fix>3d</fix>
</trkpt>
<trkpt lat="40.0728032" lon="-105.2307354">
  <ele>1595.65</ele>
  <time>2026-08-28T19:11:01Z</time>
  <course>318.51</course>
  <speed>0.06</speed>
  <fix>3d</fix>
</trkpt>
<trkpt lat="40.0728031" lon="-105.2307354">
  <ele>1595.73</ele>
  <time>2026-08-28T19:11:01Z</time>
  <course>35.37</course>
  <speed>0.03605551275463989</speed>
  <fix>3d</fix>
</trkpt>
<trkpt lat="40.0728033" lon="-105.2307355">
  <ele>1595.65</ele>
  <time>2026-08-28T19:11:01Z</time>
  <course>318.08</course>
  <speed>0.06</speed>
  <fix>3d</fix>
</trkpt>
<trkpt lat="40.0728032" lon="-105.2307355">
  <ele>1595.74</ele>
  <time>2026-08-28T19:11:01Z</time>
  <course>35.38</course>
  <speed>0.03605551275463989</speed>
  <fix>3d</fix>
</trkpt>
<trkpt lat="40.0728034" lon="-105.2307356">
  <ele>1595.66</ele>
  <time>2026-08-28T19:11:01Z</time>
  <course>317.29</course>
  <speed>0.06</speed>
  <fix>3d</fix>
</trkpt>
<trkpt lat="40.0728033" lon="-105.2307356">
  <ele>1595.74</ele>
  <time>2026-08-28T19:11:01Z</time>
  <course>35.37</course>
  <speed>0.03605551275463989</speed>
  <fix>3d</fix>
</trkpt>
<trkpt lat="40.0728034" lon="-105.2307357">
  <ele>1595.66</ele>
  <time>2026-08-28T19:11:01Z</time>
  <course>316.47</course>
  <speed>0.06</speed>
  <fix>3d</fix>
</trkpt>
<trkpt lat="40.0728034" lon="-105.2307357">
  <ele>1595.74</ele>
  <time>2026-08-28T19:11:01Z</time>
  <course>35.4</course>
  <speed>0.05</speed>
  <fix>3d</fix>
</trkpt>
<trkpt lat="40.0728035" lon="-105.2307358">
  <ele>1595.66</ele>
  <time>2026-08-28T19:11:01Z</time>
  <course>315.77</course>
  <speed>0.06</speed>
  <fix>3d</fix>
</trkpt>
<trkpt lat="40.0728035" lon="-105.2307359">
  <ele>1595.74</ele>
  <time>2026-08-28T19:11:01Z</time>
  <course>35.39</course>
  <speed>0.044721359549995794</speed>
  <fix>3d</fix>
</trkpt>
<trkpt lat="40.0728036" lon="-105.230736">
  <ele>1595.66</ele>
  <time>2026-08-28T19:11:01Z</time>
  <course>314.51</course>
  <speed>0.07</speed>
  <fix>3d</fix>
</trkpt>
<trkpt lat="40.0728035" lon="-105.230736">
  <ele>1595.73</ele>
  <time>2026-08-28T19:11:01Z</time>
  <course>35.39</course>
  <speed>0.03605551275463989</speed>
  <fix>3d</fix>
</trkpt>
<trkpt lat="40.0728037" lon="-105.2307361">
  <ele>1595.66</ele>
  <time>2026-08-28T19:11:01Z</time>
  <course>312.98</course>
  <speed>0.06</speed>
  <fix>3d</fix>
</trkpt>
<trkpt lat="40.0728036" lon="-105.2307361">
  <ele>1595.73</ele>
  <time>2026-08-28T19:11:01Z</time>
  <course>35.38</course>
  <speed>0.0316227766016838</speed>
  <fix>3d</fix>
</trkpt>
<trkpt lat="40.0728038" lon="-105.2307362">
  <ele>1595.66</ele>
  <time>2026-08-28T19:11:01Z</time>
  <course>312.85</course>
  <speed>0.05</speed>
  <fix>3d</fix>
</trkpt>
<trkpt lat="40.0728037" lon="-105.2307362">
  <ele>1595.73</ele>
  <time>2026-08-28T19:11:01Z</time>
  <course>35.38</course>
  <speed>0.022360679774997897</speed>
  <fix>3d</fix>
</trkpt>
<trkpt lat="40.0728038" lon="-105.2307363">
  <ele>1595.66</ele>
  <time>2026-08-28T19:11:01Z</time>
  <course>314.78</course>
  <speed>0.05</speed>
  <fix>3d</fix>
</trkpt>
<trkpt lat="40.0728037" lon="-105.2307362">
  <ele>1595.74</ele>
  <time>2026-08-28T19:11:01Z</time>
  <course>35.37</course>
  <speed>0.01414213562373095</speed>
  <fix>3d</fix>
</trkpt>
<trkpt lat="40.0728039" lon="-105.2307364">
  <ele>1595.67</ele>
  <time>2026-08-28T19:11:01Z</time>
  <course>318.31</course>
  <speed>0.04</speed>
  <fix>3d</fix>
</trkpt>
<trkpt lat="40.0728038" lon="-105.2307363">
  <ele>1595.74</ele>
  <time>2026-08-28T19:11:01Z</time>
  <course>35.38</course>
  <speed>0.01414213562373095</speed>
  <fix>3d</fix>
</trkpt>
<trkpt lat="40.072804" lon="-105.2307364">
  <ele>1595.67</ele>
  <time>2026-08-28T19:11:01Z</time>
  <course>322.11</course>
  <speed>0.03</speed>
  <fix>3d</fix>
</trkpt>
<trkpt lat="40.0728038" lon="-105.2307364">
  <ele>1595.74</ele>
  <time>2026-08-28T19:11:01Z</time>
  <course>35.38</course>
  <speed>0.01414213562373095</speed>
  <fix>3d</fix>
</trkpt>
<trkpt lat="40.0728041" lon="-105.2307365">
  <ele>1595.67</ele>
  <time>2026-08-28T19:11:01Z</time>
  <course>325.35</course>
  <speed>0.03</speed>
  <fix>3d</fix>
</trkpt>
<trkpt lat="40.0728039" lon="-105.2307364">
  <ele>1595.75</ele>
  <time>2026-08-28T19:11:01Z</time>
  <course>35.39</course>
  <speed>0.01414213562373095</speed>
  <fix>3d</fix>
</trkpt>
<trkpt lat="40.0728041" lon="-105.2307366">
  <ele>1595.67</ele>
  <time>2026-08-28T19:11:01Z</time>
  <course>327.52</course>
  <speed>0.03</speed>
  <fix>3d</fix>
</trkpt>
<trkpt lat="40.072804" lon="-105.2307365">
  <ele>1595.75</ele>
  <time>2026-08-28T19:11:01Z</time>
  <course>35.39</course>
  <speed>0.01414213562373095</speed>
  <fix>3d</fix>
</trkpt>
<trkpt lat="40.0728042" lon="-105.2307366">
  <ele>1595.67</ele>
  <time>2026-08-28T19:11:01Z</time>
  <course>328.43</course>
  <speed>0.03</speed>
  <fix>3d</fix>
</trkpt>
<trkpt lat="40.072804" lon="-105.2307365">
  <ele>1595.74</ele>
  <time>2026-08-28T19:11:01Z</time>
  <course>35.38</course>
  <speed>0.01414213562373095</speed>
  <fix>3d</fix>
</trkpt>
<trkpt lat="40.0728042" lon="-105.2307367">
  <ele>1595.67</ele>
  <time>2026-08-28T19:11:01Z</time>
  <course>328.69</course>
  <speed>0.03</speed>
  <fix>3d</fix>
</trkpt>
<trkpt lat="40.0728041" lon="-105.2307366">
  <ele>1595.74</ele>
  <time>2026-08-28T19:11:01Z</time>
  <course>35.38</course>
  <speed>0.01414213562373095</speed>
  <fix>3d</fix>
</trkpt>
<trkpt lat="40.0728043" lon="-105.2307367">
  <ele>1595.67</ele>
  <time>2026-08-28T19:11:01Z</time>
  <course>328.81</course>
  <speed>0.03</speed>
  <fix>3d</fix>
</trkpt>
<trkpt lat="40.0728042" lon="-105.2307366">
  <ele>1595.74</ele>
  <time>2026-08-28T19:11:01Z</time>
  <course>35.38</course>
  <speed>0.01</speed>
  <fix>3d</fix>
</trkpt>
<trkpt lat="40.0728043" lon="-105.2307367">
  <ele>1595.67</ele>
  <time>2026-08-28T19:11:01Z</time>
  <course>328.68</course>
  <speed>0.03</speed>
  <fix>3d</fix>
</trkpt>
<trkpt lat="40.0728042" lon="-105.2307367">
  <ele>1595.75</ele>
  <time>2026-08-28T19:11:01Z</time>
  <course>35.39</course>
  <speed>0.0</speed>
  <fix>3d</fix>
</trkpt>
<trkpt lat="40.0728044" lon="-105.2307367">
  <ele>1595.67</ele>
  <time>2026-08-28T19:11:01Z</time>
  <course>332.46</course>
  <speed>0.03</speed>
  <fix>3d</fix>
</trkpt>
<trkpt lat="40.0728042" lon="-105.2307367">
  <ele>1595.75</ele>
  <time>2026-08-28T19:11:01Z</time>
  <course>35.38</course>
  <speed>0.0</speed>
  <fix>3d</fix>
</trkpt>
<trkpt lat="40.0728044" lon="-105.2307368">
  <ele>1595.67</ele>
  <time>2026-08-28T19:11:01Z</time>
  <course>339.47</course>
  <speed>0.02</speed>
  <fix>3d</fix>
</trkpt>
<trkpt lat="40.0728043" lon="-105.2307367">
  <ele>1595.75</ele>
  <time>2026-08-28T19:11:01Z</time>
  <course>35.38</course>
  <speed>0.0</speed>
  <fix>3d</fix>
</trkpt>
<trkpt lat="40.0728045" lon="-105.2307369">
  <ele>1595.67</ele>
  <time>2026-08-28T19:11:01Z</time>
  <course>340.09</course>
  <speed>0.02</speed>
  <fix>3d</fix>
</trkpt>
<trkpt lat="40.0728043" lon="-105.2307367">
  <ele>1595.76</ele>
  <time>2026-08-28T19:11:01Z</time>
  <course>35.39</course>
  <speed>0.0</speed>
  <fix>3d</fix>
</trkpt>
<trkpt lat="40.0728046" lon="-105.2307369">
  <ele>1595.67</ele>
  <time>2026-08-28T19:11:01Z</time>
  <course>338.19</course>
  <speed>0.03</speed>
  <fix>3d</fix>
</trkpt>
<trkpt lat="40.0728044" lon="-105.2307368">
  <ele>1595.76</ele>
  <time>2026-08-28T19:11:01Z</time>
  <course>35.4</course>
  <speed>0.01414213562373095</speed>
  <fix>3d</fix>
</trkpt>
<trkpt lat="40.0728046" lon="-105.2307369">
  <ele>1595.67</ele>
  <time>2026-08-28T19:11:01Z</time>
  <course>333.59</course>
  <speed>0.03</speed>
  <fix>3d</fix>
</trkpt>
<trkpt lat="40.0728045" lon="-105.2307368">
  <ele>1595.76</ele>
  <time>2026-08-28T19:11:01Z</time>
  <course>35.41</course>
  <speed>0.01414213562373095</speed>
  <fix>3d</fix>
</trkpt>
<trkpt lat="40.0728047" lon="-105.2307369">
  <ele>1595.66</ele>
  <time>2026-08-28T19:11:01Z</time>
  <course>329.32</course>
  <speed>0.03</speed>
  <fix>3d</fix>
</trkpt>
<trkpt lat="40.0728045" lon="-105.2307369">
  <ele>1595.76</ele>
  <time>2026-08-28T19:11:01Z</time>
  <course>35.41</course>
  <speed>0.01414213562373095</speed>
  <fix>3d</fix>
</trkpt>
<trkpt lat="40.0728047" lon="-105.2307369">
  <ele>1595.66</ele>
  <time>2026-08-28T19:11:01Z</time>
  <course>326.58</course>
  <speed>0.04</speed>
  <fix>3d</fix>
</trkpt>
<trkpt lat="40.0728046" lon="-105.2307369">
  <ele>1595.75</ele>
  <time>2026-08-28T19:11:01Z</time>
  <course>35.41</course>
  <speed>0.022360679774997897</speed>
  <fix>3d</fix>
</trkpt>
<trkpt lat="40.0728048" lon="-105.230737">
  <ele>1595.66</ele>
  <time>2026-08-28T19:11:01Z</time>
  <course>324.63</course>
  <speed>0.04</speed>
  <fix>3d</fix>
</trkpt>
<trkpt lat="40.0728047" lon="-105.230737">
  <ele>1595.74</ele>
  <time>2026-08-28T19:11:01Z</time>
  <course>35.38</course>
  <speed>0.022360679774997897</speed>
  <fix>3d</fix>
</trkpt>
<trkpt lat="40.0728049" lon="-105.2307371">
  <ele>1595.65</ele>
  <time>2026-08-28T19:11:01Z</time>
  <course>323.07</course>
  <speed>0.04</speed>
  <fix>3d</fix>
</trkpt>
<trkpt lat="40.0728048" lon="-105.2307371">
  <ele>1595.74</ele>
  <time>2026-08-28T19:11:01Z</time>
  <course>35.37</course>
  <speed>0.0282842712474619</speed>
  <fix>3d</fix>
</trkpt>
<trkpt lat="40.0728049" lon="-105.2307372">
  <ele>1595.65</ele>
  <time>2026-08-28T19:11:01Z</time>
  <course>321.77</course>
  <speed>0.05</speed>
  <fix>3d</fix>
</trkpt>
<trkpt lat="40.0728048" lon="-105.2307372">
  <ele>1595.73</ele>
  <time>2026-08-28T19:11:01Z</time>
  <course>35.37</course>
  <speed>0.0282842712474619</speed>
  <fix>3d</fix>
</trkpt>
<trkpt lat="40.072805" lon="-105.2307373">
  <ele>1595.65</ele>
  <time>2026-08-28T19:11:01Z</time>
  <course>320.64</course>
  <speed>0.05</speed>
  <fix>3d</fix>
</trkpt>
<trkpt lat="40.0728049" lon="-105.2307372">
  <ele>1595.73</ele>
  <time>2026-08-28T19:11:01Z</time>
  <course>35.37</course>
  <speed>0.0282842712474619</speed>
  <fix>3d</fix>
</trkpt>
<trkpt lat="40.072805" lon="-105.2307373">
  <ele>1595.65</ele>
  <time>2026-08-28T19:11:01Z</time>
  <course>319.63</course>
  <speed>0.05</speed>
  <fix>3d</fix>
</trkpt>
<trkpt lat="40.072805" lon="-105.2307373">
  <ele>1595.72</ele>
  <time>2026-08-28T19:11:01Z</time>
  <course>35.36</course>
  <speed>0.03605551275463989</speed>
  <fix>3d</fix>
</trkpt>
<trkpt lat="40.0728051" lon="-105.2307374">
  <ele>1595.65</ele>
  <time>2026-08-28T19:11:01Z</time>
  <course>318.75</course>
  <speed>0.05</speed>
  <fix>3d</fix>
</trkpt>
<trkpt lat="40.0728051" lon="-105.2307374">
  <ele>1595.73</ele>
  <time>2026-08-28T19:11:01Z</time>
  <course>35.36</course>
  <speed>0.03605551275463989</speed>
  <fix>3d</fix>
</trkpt>
<trkpt lat="40.0728052" lon="-105.2307375">
  <ele>1595.65</ele>
  <time>2026-08-28T19:11:01Z</time>
  <course>318.0</course>
  <speed>0.05</speed>
  <fix>3d</fix>
</trkpt>
<trkpt lat="40.0728051" lon="-105.2307375">
  <ele>1595.73</ele>
  <time>2026-08-28T19:11:01Z</time>
  <course>35.34</course>
  <speed>0.03605551275463989</speed>
  <fix>3d</fix>
</trkpt>
<trkpt lat="40.0728053" lon="-105.2307376">
  <ele>1595.65</ele>
  <time>2026-08-28T19:11:01Z</time>
  <course>317.47</course>
  <speed>0.05</speed>
  <fix>3d</fix>
</trkpt>
<trkpt lat="40.0728052" lon="-105.2307376">
  <ele>1595.74</ele>
  <time>2026-08-28T19:11:01Z</time>
  <course>35.36</course>
  <speed>0.03605551275463989</speed>
  <fix>3d</fix>
</trkpt>
<trkpt lat="40.0728054" lon="-105.2307377">
  <ele>1595.65</ele>
  <time>2026-08-28T19:11:01Z</time>
  <course>316.78</course>
  <speed>0.05</speed>
  <fix>3d</fix>
</trkpt>
<trkpt lat="40.0728053" lon="-105.2307377">
  <ele>1595.75</ele>
  <time>2026-08-28T19:11:01Z</time>
  <course>35.36</course>
  <speed>0.05</speed>
  <fix>3d</fix>
</trkpt>
<trkpt lat="40.0728055" lon="-105.2307378">
  <ele>1595.66</ele>
  <time>2026-08-28T19:11:01Z</time>
  <course>315.85</course>
  <speed>0.06</speed>
  <fix>3d</fix>
</trkpt>
<trkpt lat="40.0728054" lon="-105.2307378">
  <ele>1595.75</ele>
  <time>2026-08-28T19:11:01Z</time>
  <course>35.4</course>
  <speed>0.05</speed>
  <fix>3d</fix>
</trkpt>
<trkpt lat="40.0728055" lon="-105.2307379">
  <ele>1595.66</ele>
  <time>2026-08-28T19:11:01Z</time>
  <course>315.83</course>
  <speed>0.07</speed>
  <fix>3d</fix>
</trkpt>
<trkpt lat="40.0728055" lon="-105.230738">
  <ele>1595.75</ele>
  <time>2026-08-28T19:11:01Z</time>
  <course>35.4</course>
  <speed>0.044721359549995794</speed>
  <fix>3d</fix>
</trkpt>
<trkpt lat="40.0728056" lon="-105.230738">
  <ele>1595.66</ele>
  <time>2026-08-28T19:11:01Z</time>
  <course>315.02</course>
  <speed>0.07</speed>
  <fix>3d</fix>
</trkpt>
<trkpt lat="40.0728056" lon="-105.2307381">
  <ele>1595.74</ele>
  <time>2026-08-28T19:11:01Z</time>
  <course>35.38</course>
  <speed>0.03605551275463989</speed>
  <fix>3d</fix>
</trkpt>
<trkpt lat="40.0728057" lon="-105.2307381">
  <ele>1595.66</ele>
  <time>2026-08-28T19:11:01Z</time>
  <course>313.72</course>
  <speed>0.06</speed>
  <fix>3d</fix>
</trkpt>
<trkpt lat="40.0728056" lon="-105.2307382">
  <ele>1595.74</ele>
  <time>2026-08-28T19:11:02Z</time>
  <course>35.37</course>
  <speed>0.0316227766016838</speed>
  <fix>3d</fix>
</trkpt>
<trkpt lat="40.0728058" lon="-105.2307382">
  <ele>1595.66</ele>
  <time>2026-08-28T19:11:02Z</time>
  <course>314.43</course>
  <speed>0.05</speed>
  <fix>3d</fix>
</trkpt>
<trkpt lat="40.0728057" lon="-105.2307383">
  <ele>1595.74</ele>
  <time>2026-08-28T19:11:02Z</time>
  <course>35.36</course>
  <speed>0.022360679774997897</speed>
  <fix>3d</fix>
</trkpt>
<trkpt lat="40.0728059" lon="-105.2307383">
  <ele>1595.66</ele>
  <time>2026-08-28T19:11:02Z</time>
  <course>316.75</course>
  <speed>0.05</speed>
  <fix>3d</fix>
</trkpt>
<trkpt lat="40.0728058" lon="-105.2307383">
  <ele>1595.74</ele>
  <time>2026-08-28T19:11:02Z</time>
  <course>35.36</course>
  <speed>0.01414213562373095</speed>
  <fix>3d</fix>
</trkpt>
<trkpt lat="40.0728059" lon="-105.2307384">
  <ele>1595.66</ele>
  <time>2026-08-28T19:11:02Z</time>
  <course>319.82</course>
  <speed>0.04</speed>
  <fix>3d</fix>
</trkpt>
<trkpt lat="40.0728058" lon="-105.2307384">
  <ele>1595.74</ele>
  <time>2026-08-28T19:11:02Z</time>
  <course>35.36</course>
  <speed>0.01414213562373095</speed>
  <fix>3d</fix>
</trkpt>
<trkpt lat="40.072806" lon="-105.2307385">
  <ele>1595.66</ele>
  <time>2026-08-28T19:11:02Z</time>
  <course>322.87</course>
  <speed>0.04</speed>
  <fix>3d</fix>
</trkpt>
<trkpt lat="40.0728059" lon="-105.2307384">
  <ele>1595.75</ele>
  <time>2026-08-28T19:11:02Z</time>
  <course>35.37</course>
  <speed>0.01414213562373095</speed>
  <fix>3d</fix>
</trkpt>
<trkpt lat="40.0728061" lon="-105.2307386">
  <ele>1595.66</ele>
  <time>2026-08-28T19:11:02Z</time>
  <course>325.21</course>
  <speed>0.04</speed>
  <fix>3d</fix>
</trkpt>
<trkpt lat="40.072806" lon="-105.2307385">
  <ele>1595.75</ele>
  <time>2026-08-28T19:11:02Z</time>
  <course>35.38</course>
  <speed>0.01414213562373095</speed>
  <fix>3d</fix>
</trkpt>
<trkpt lat="40.0728061" lon="-105.2307386">
  <ele>1595.66</ele>
  <time>2026-08-28T19:11:02Z</time>
  <course>326.52</course>
  <speed>0.04</speed>
  <fix>3d</fix>
</trkpt>
<trkpt lat="40.072806" lon="-105.2307386">
  <ele>1595.75</ele>
  <time>2026-08-28T19:11:02Z</time>
  <course>35.39</course>
  <speed>0.01</speed>
  <fix>3d</fix>
</trkpt>
<trkpt lat="40.0728061" lon="-105.2307386">
  <ele>1595.66</ele>
  <time>2026-08-28T19:11:02Z</time>
  <course>327.01</course>
  <speed>0.04</speed>
  <fix>3d</fix>
</trkpt>
<trkpt lat="40.0728061" lon="-105.2307386">
  <ele>1595.76</ele>
  <time>2026-08-28T19:11:02Z</time>
  <course>35.39</course>
  <speed>0.01</speed>
  <fix>3d</fix>
</trkpt>
<trkpt lat="40.0728062" lon="-105.2307386">
  <ele>1595.65</ele>
  <time>2026-08-28T19:11:02Z</time>
  <course>327.3</course>
  <speed>0.03</speed>
  <fix>3d</fix>
</trkpt>
<trkpt lat="40.0728061" lon="-105.2307386">
  <ele>1595.75</ele>
  <time>2026-08-28T19:11:02Z</time>
  <course>35.41</course>
  <speed>0.01</speed>
  <fix>3d</fix>
</trkpt>
<trkpt lat="40.0728063" lon="-105.2307387">
  <ele>1595.65</ele>
  <time>2026-08-28T19:11:02Z</time>
  <course>327.75</course>
  <speed>0.03</speed>
  <fix>3d</fix>
</trkpt>
<trkpt lat="40.0728062" lon="-105.2307387">
  <ele>1595.74</ele>
  <time>2026-08-28T19:11:02Z</time>
  <course>35.39</course>
  <speed>0.0</speed>
  <fix>3d</fix>
</trkpt>
<trkpt lat="40.0728064" lon="-105.2307388">
  <ele>1595.65</ele>
  <time>2026-08-28T19:11:02Z</time>
  <course>328.47</course>
  <speed>0.03</speed>
  <fix>3d</fix>
</trkpt>
<trkpt lat="40.0728062" lon="-105.2307387">
  <ele>1595.73</ele>
  <time>2026-08-28T19:11:02Z</time>
  <course>35.36</course>
  <speed>0.0</speed>
  <fix>3d</fix>
</trkpt>
<trkpt lat="40.0728064" lon="-105.2307388">
  <ele>1595.65</ele>
  <time>2026-08-28T19:11:02Z</time>
  <course>333.29</course>
  <speed>0.02</speed>
  <fix>3d</fix>
</trkpt>
<trkpt lat="40.0728063" lon="-105.2307387">
  <ele>1595.73</ele>
  <time>2026-08-28T19:11:02Z</time>
  <course>35.36</course>
  <speed>0.0</speed>
  <fix>3d</fix>
</trkpt>
<trkpt lat="40.0728064" lon="-105.2307388">
  <ele>1595.64</ele>
  <time>2026-08-28T19:11:02Z</time>
  <course>343.86</course>
  <speed>0.01</speed>
  <fix>3d</fix>
</trkpt>
<trkpt lat="40.0728063" lon="-105.2307387">
  <ele>1595.73</ele>
  <time>2026-08-28T19:11:02Z</time>
  <course>35.36</course>
  <speed>0.0</speed>
  <fix>3d</fix>
</trkpt>
<trkpt lat="40.0728065" lon="-105.2307388">
  <ele>1595.64</ele>
  <time>2026-08-28T19:11:02Z</time>
  <course>342.95</course>
  <speed>0.02</speed>
  <fix>3d</fix>
</trkpt>
<trkpt lat="40.0728064" lon="-105.2307388">
  <ele>1595.73</ele>
  <time>2026-08-28T19:11:02Z</time>
  <course>35.35</course>
  <speed>0.01</speed>
  <fix>3d</fix>
</trkpt>
<trkpt lat="40.0728065" lon="-105.2307388">
  <ele>1595.64</ele>
  <time>2026-08-28T19:11:02Z</time>
  <course>337.74</course>
  <speed>0.02</speed>
  <fix>3d</fix>
</trkpt>
<trkpt lat="40.0728064" lon="-105.2307388">
  <ele>1595.73</ele>
  <time>2026-08-28T19:11:02Z</time>
  <course>35.35</course>
  <speed>0.01414213562373095</speed>
  <fix>3d</fix>
</trkpt>
<trkpt lat="40.0728066" lon="-105.2307388">
  <ele>1595.65</ele>
  <time>2026-08-28T19:11:02Z</time>
  <course>333.41</course>
  <speed>0.03</speed>
  <fix>3d</fix>
</trkpt>
<trkpt lat="40.0728065" lon="-105.2307388">
  <ele>1595.73</ele>
  <time>2026-08-28T19:11:02Z</time>
  <course>35.35</course>
  <speed>0.01414213562373095</speed>
  <fix>3d</fix>
</trkpt>
<trkpt lat="40.0728066" lon="-105.2307389">
  <ele>1595.65</ele>
  <time>2026-08-28T19:11:02Z</time>
  <course>329.67</course>
  <speed>0.03</speed>
  <fix>3d</fix>
</trkpt>
<trkpt lat="40.0728065" lon="-105.2307389">
  <ele>1595.73</ele>
  <time>2026-08-28T19:11:02Z</time>
  <course>35.35</course>
  <speed>0.01414213562373095</speed>
  <fix>3d</fix>
</trkpt>
<trkpt lat="40.0728067" lon="-105.230739">
  <ele>1595.65</ele>
  <time>2026-08-28T19:11:02Z</time>
  <course>326.48</course>
  <speed>0.04</speed>
  <fix>3d</fix>
</trkpt>
<trkpt lat="40.0728066" lon="-105.2307389">
  <ele>1595.74</ele>
  <time>2026-08-28T19:11:02Z</time>
  <course>35.36</course>
  <speed>0.022360679774997897</speed>
  <fix>3d</fix>
</trkpt>
<trkpt lat="40.0728067" lon="-105.230739">
  <ele>1595.65</ele>
  <time>2026-08-28T19:11:02Z</time>
  <course>324.17</course>
  <speed>0.04</speed>
  <fix>3d</fix>
</trkpt>
<trkpt lat="40.0728067" lon="-105.230739">
  <ele>1595.74</ele>
  <time>2026-08-28T19:11:02Z</time>
  <course>35.37</course>
  <speed>0.022360679774997897</speed>
  <fix>3d</fix>
</trkpt>
<trkpt lat="40.0728068" lon="-105.2307391">
  <ele>1595.65</ele>
  <time>2026-08-28T19:11:02Z</time>
  <course>322.49</course>
  <speed>0.04</speed>
  <fix>3d</fix>
</trkpt>
<trkpt lat="40.0728067" lon="-105.2307391">
  <ele>1595.75</ele>
  <time>2026-08-28T19:11:02Z</time>
  <course>35.37</course>
  <speed>0.0282842712474619</speed>
  <fix>3d</fix>
</trkpt>
<trkpt lat="40.0728069" lon="-105.2307392">
  <ele>1595.66</ele>
  <time>2026-08-28T19:11:02Z</time>
  <course>321.03</course>
  <speed>0.05</speed>
  <fix>3d</fix>
</trkpt>
<trkpt lat="40.0728068" lon="-105.2307392">
  <ele>1595.75</ele>
  <time>2026-08-28T19:11:02Z</time>
  <course>35.4</course>
  <speed>0.0282842712474619</speed>
  <fix>3d</fix>
</trkpt>
<trkpt lat="40.072807" lon="-105.2307393">
  <ele>1595.66</ele>
  <time>2026-08-28T19:11:02Z</time>
  <course>319.84</course>
  <speed>0.05</speed>
  <fix>3d</fix>
</trkpt>
<trkpt lat="40.0728069" lon="-105.2307393">
  <ele>1595.75</ele>
  <time>2026-08-28T19:11:02Z</time>
  <course>35.39</course>
  <speed>0.03605551275463989</speed>
  <fix>3d</fix>
</trkpt>
<trkpt lat="40.072807" lon="-105.2307393">
  <ele>1595.66</ele>
  <time>2026-08-28T19:11:02Z</time>
  <course>318.97</course>
  <speed>0.05</speed>
  <fix>3d</fix>
</trkpt>
<trkpt lat="40.072807" lon="-105.2307393">
  <ele>1595.75</ele>
  <time>2026-08-28T19:11:02Z</time>
  <course>35.39</course>
  <speed>0.03605551275463989</speed>
  <fix>3d</fix>
</trkpt>
<trkpt lat="40.0728071" lon="-105.2307394">
  <ele>1595.66</ele>
  <time>2026-08-28T19:11:02Z</time>
  <course>318.38</course>
  <speed>0.05</speed>
  <fix>3d</fix>
</trkpt>
<trkpt lat="40.072807" lon="-105.2307394">
  <ele>1595.74</ele>
  <time>2026-08-28T19:11:02Z</time>
  <course>35.4</course>
  <speed>0.03605551275463989</speed>
  <fix>3d</fix>
</trkpt>
<trkpt lat="40.0728072" lon="-105.2307395">
  <ele>1595.66</ele>
  <time>2026-08-28T19:11:02Z</time>
  <course>317.89</course>
  <speed>0.05</speed>
  <fix>3d</fix>
</trkpt>
<trkpt lat="40.0728071" lon="-105.2307395">
  <ele>1595.73</ele>
  <time>2026-08-28T19:11:02Z</time>
  <course>35.38</course>
  <speed>0.03605551275463989</speed>
  <fix>3d</fix>
</trkpt>
<trkpt lat="40.0728073" lon="-105.2307396">
  <ele>1595.65</ele>
  <time>2026-08-28T19:11:02Z</time>
  <course>317.47</course>
  <speed>0.05</speed>
  <fix>3d</fix>
</trkpt>
<trkpt lat="40.0728072" lon="-105.2307396">
  <ele>1595.73</ele>
  <time>2026-08-28T19:11:02Z</time>
  <course>35.38</course>
  <speed>0.03605551275463989</speed>
  <fix>3d</fix>
</trkpt>
<trkpt lat="40.0728073" lon="-105.2307397">
  <ele>1595.65</ele>
  <time>2026-08-28T19:11:02Z</time>
  <course>317.1</course>
  <speed>0.06</speed>
  <fix>3d</fix>
</trkpt>
<trkpt lat="40.0728073" lon="-105.2307397">
  <ele>1595.72</ele>
  <time>2026-08-28T19:11:02Z</time>
  <course>35.35</course>
  <speed>0.05</speed>
  <fix>3d</fix>
</trkpt>
<trkpt lat="40.0728074" lon="-105.2307398">
  <ele>1595.65</ele>
  <time>2026-08-28T19:11:02Z</time>
  <course>316.33</course>
  <speed>0.06</speed>
  <fix>3d</fix>
</trkpt>
<trkpt lat="40.0728074" lon="-105.2307399">
  <ele>1595.73</ele>
  <time>2026-08-28T19:11:02Z</time>
  <course>35.35</course>
  <speed>0.05</speed>
  <fix>3d</fix>
</trkpt>
<trkpt lat="40.0728075" lon="-105.2307399">
  <ele>1595.65</ele>
  <time>2026-08-28T19:11:02Z</time>
  <course>315.66</course>
  <speed>0.07</speed>
  <fix>3d</fix>
</trkpt>
<trkpt lat="40.0728075" lon="-105.23074">
  <ele>1595.73</ele>
  <time>2026-08-28T19:11:02Z</time>
  <course>35.35</course>
  <speed>0.044721359549995794</speed>
  <fix>3d</fix>
</trkpt>
<trkpt lat="40.0728076" lon="-105.23074">
  <ele>1595.66</ele>
  <time>2026-08-28T19:11:02Z</time>
  <course>314.58</course>
  <speed>0.07</speed>
  <fix>3d</fix>
</trkpt>
<trkpt lat="40.0728075" lon="-105.2307401">
  <ele>1595.73</ele>
  <time>2026-08-28T19:11:02Z</time>
  <course>35.35</course>
  <speed>0.0316227766016838</speed>
  <fix>3d</fix>
</trkpt>
<trkpt lat="40.0728077" lon="-105.2307402">
  <ele>1595.66</ele>
  <time>2026-08-28T19:11:02Z</time>
  <course>313.62</course>
  <speed>0.06</speed>
  <fix>3d</fix>
</trkpt>
<trkpt lat="40.0728076" lon="-105.2307402">
  <ele>1595.73</ele>
  <time>2026-08-28T19:11:02Z</time>
  <course>35.36</course>
  <speed>0.022360679774997897</speed>
  <fix>3d</fix>
</trkpt>
<trkpt lat="40.0728078" lon="-105.2307403">
  <ele>1595.66</ele>
  <time>2026-08-28T19:11:02Z</time>
  <course>314.48</course>
  <speed>0.05</speed>
  <fix>3d</fix>
</trkpt>
<trkpt lat="40.0728077" lon="-105.2307403">
  <ele>1595.74</ele>
  <time>2026-08-28T19:11:02Z</time>
  <course>35.37</course>
  <speed>0.022360679774997897</speed>
  <fix>3d</fix>
</trkpt>
<trkpt lat="40.0728079" lon="-105.2307404">
  <ele>1595.67</ele>
  <time>2026-08-28T19:11:02Z</time>
  <course>316.88</course>
  <speed>0.05</speed>
  <fix>3d</fix>
</trkpt>
<trkpt lat="40.0728078" lon="-105.2307403">
  <ele>1595.74</ele>
  <time>2026-08-28T19:11:02Z</time>
  <course>35.38</course>
  <speed>0.01</speed>
  <fix>3d</fix>
</trkpt>
<trkpt lat="40.0728079" lon="-105.2307404">
  <ele>1595.67</ele>
  <time>2026-08-28T19:11:02Z</time>
  <course>320.02</course>
  <speed>0.04</speed>
  <fix>3d</fix>
</trkpt>
<trkpt lat="40.0728078" lon="-105.2307404">
  <ele>1595.75</ele>
  <time>2026-08-28T19:11:02Z</time>
  <course>35.39</course>
  <speed>0.01</speed>
  <fix>3d</fix>
</trkpt>
<trkpt lat="40.0728079" lon="-105.2307405">
  <ele>1595.67</ele>
  <time>2026-08-28T19:11:02Z</time>
  <course>323.22</course>
  <speed>0.04</speed>
  <fix>3d</fix>
</trkpt>
<trkpt lat="40.0728079" lon="-105.2307404">
  <ele>1595.75</ele>
  <time>2026-08-28T19:11:02Z</time>
  <course>35.4</course>
  <speed>0.01</speed>
  <fix>3d</fix>
</trkpt>
<trkpt lat="40.072808" lon="-105.2307405">
  <ele>1595.67</ele>
  <time>2026-08-28T19:11:02Z</time>
  <course>325.92</course>
  <speed>0.03</speed>
  <fix>3d</fix>
</trkpt>
<trkpt lat="40.0728079" lon="-105.2307405">
  <ele>1595.75</ele>
  <time>2026-08-28T19:11:02Z</time>
  <course>35.41</course>
  <speed>0.01</speed>
  <fix>3d</fix>
</trkpt>
<trkpt lat="40.0728081" lon="-105.2307406">
  <ele>1595.68</ele>
  <time>2026-08-28T19:11:02Z</time>
  <course>327.8</course>
  <speed>0.03</speed>
  <fix>3d</fix>
</trkpt>
<trkpt lat="40.072808" lon="-105.2307405">
  <ele>1595.75</ele>
  <time>2026-08-28T19:11:02Z</time>
  <course>35.4</course>
  <speed>0.01414213562373095</speed>
  <fix>3d</fix>
</trkpt>
<trkpt lat="40.0728082" lon="-105.2307407">
  <ele>1595.67</ele>
  <time>2026-08-28T19:11:02Z</time>
  <course>329.02</course>
  <speed>0.03</speed>
  <fix>3d</fix>
</trkpt>
<trkpt lat="40.072808" lon="-105.2307406">
  <ele>1595.75</ele>
  <time>2026-08-28T19:11:02Z</time>
  <course>35.39</course>
  <speed>0.01414213562373095</speed>
  <fix>3d</fix>
</trkpt>
<trkpt lat="40.0728082" lon="-105.2307407">
  <ele>1595.67</ele>
  <time>2026-08-28T19:11:02Z</time>
  <course>329.74</course>
  <speed>0.03</speed>
  <fix>3d</fix>
</trkpt>
<trkpt lat="40.0728081" lon="-105.2307406">
  <ele>1595.75</ele>
  <time>2026-08-28T19:11:02Z</time>
  <course>35.39</course>
  <speed>0.01414213562373095</speed>
  <fix>3d</fix>
</trkpt>
<trkpt lat="40.0728083" lon="-105.2307407">
  <ele>1595.67</ele>
  <time>2026-08-28T19:11:02Z</time>
  <course>329.87</course>
  <speed>0.03</speed>
  <fix>3d</fix>
</trkpt>
<trkpt lat="40.0728081" lon="-105.2307406">
  <ele>1595.76</ele>
  <time>2026-08-28T19:11:02Z</time>
  <course>35.42</course>
  <speed>0.0</speed>
  <fix>3d</fix>
</trkpt>
<trkpt lat="40.0728083" lon="-105.2307407">
  <ele>1595.67</ele>
  <time>2026-08-28T19:11:02Z</time>
  <course>332.45</course>
  <speed>0.03</speed>
  <fix>3d</fix>
</trkpt>
<trkpt lat="40.0728082" lon="-105.2307407">
  <ele>1595.76</ele>
  <time>2026-08-28T19:11:02Z</time>
  <course>35.4</course>
  <speed>0.0</speed>
  <fix>3d</fix>
</trkpt>
<trkpt lat="40.0728084" lon="-105.2307408">
  <ele>1595.67</ele>
  <time>2026-08-28T19:11:02Z</time>
  <course>335.83</course>
  <speed>0.02</speed>
  <fix>3d</fix>
</trkpt>
<trkpt lat="40.0728082" lon="-105.2307407">
  <ele>1595.76</ele>
  <time>2026-08-28T19:11:02Z</time>
  <course>35.38</course>
  <speed>0.0</speed>
  <fix>3d</fix>
</trkpt>
<trkpt lat="40.0728084" lon="-105.2307409">
  <ele>1595.66</ele>
  <time>2026-08-28T19:11:02Z</time>
  <course>337.47</course>
  <speed>0.02</speed>
  <fix>3d</fix>
</trkpt>
<trkpt lat="40.0728083" lon="-105.2307407">
  <ele>1595.76</ele>
  <time>2026-08-28T19:11:02Z</time>
  <course>35.41</course>
  <speed>0.0</speed>
  <fix>3d</fix>
</trkpt>
<trkpt lat="40.0728085" lon="-105.2307409">
  <ele>1595.66</ele>
  <time>2026-08-28T19:11:02Z</time>
  <course>336.75</course>
  <speed>0.02</speed>
  <fix>3d</fix>
</trkpt>
<trkpt lat="40.0728083" lon="-105.2307408">
  <ele>1595.76</ele>
  <time>2026-08-28T19:11:02Z</time>
  <course>35.41</course>
  <speed>0.01414213562373095</speed>
  <fix>3d</fix>
</trkpt>
<trkpt lat="40.0728085" lon="-105.2307409">
  <ele>1595.65</ele>
  <time>2026-08-28T19:11:02Z</time>
  <course>332.85</course>
  <speed>0.03</speed>
  <fix>3d</fix>
</trkpt>
<trkpt lat="40.0728084" lon="-105.2307408">
  <ele>1595.75</ele>
  <time>2026-08-28T19:11:02Z</time>
  <course>35.41</course>
  <speed>0.01414213562373095</speed>
  <fix>3d</fix>
</trkpt>
<trkpt lat="40.0728085" lon="-105.230741">
  <ele>1595.65</ele>
  <time>2026-08-28T19:11:02Z</time>
  <course>329.56</course>
  <speed>0.04</speed>
  <fix>3d</fix>
</trkpt>
<trkpt lat="40.0728085" lon="-105.2307409">
  <ele>1595.75</ele>
  <time>2026-08-28T19:11:02Z</time>
  <course>35.38</course>
  <speed>0.01414213562373095</speed>
  <fix>3d</fix>
</trkpt>
<trkpt lat="40.0728086" lon="-105.230741">
  <ele>1595.64</ele>
  <time>2026-08-28T19:11:02Z</time>
  <course>326.97</course>
  <speed>0.04</speed>
  <fix>3d</fix>
</trkpt>
<trkpt lat="40.0728085" lon="-105.2307409">
  <ele>1595.74</ele>
  <time>2026-08-28T19:11:02Z</time>
  <course>35.37</course>
  <speed>0.022360679774997897</speed>
  <fix>3d</fix>
</trkpt>
<trkpt lat="40.0728087" lon="-105.230741">
  <ele>1595.64</ele>
  <time>2026-08-28T19:11:02Z</time>
  <course>324.9</course>
  <speed>0.04</speed>
  <fix>3d</fix>
</trkpt>
<trkpt lat="40.0728086" lon="-105.230741">
  <ele>1595.74</ele>
  <time>2026-08-28T19:11:02Z</time>
  <course>35.36</course>
  <speed>0.022360679774997897</speed>
  <fix>3d</fix>
</trkpt>
<trkpt lat="40.0728088" lon="-105.2307411">
  <ele>1595.64</ele>
  <time>2026-08-28T19:11:02Z</time>
  <course>323.49</course>
  <speed>0.05</speed>
  <fix>3d</fix>
</trkpt>
<trkpt lat="40.0728087" lon="-105.2307411">
  <ele>1595.74</ele>
  <time>2026-08-28T19:11:02Z</time>
  <course>35.36</course>
  <speed>0.0282842712474619</speed>
  <fix>3d</fix>
</trkpt>
<trkpt lat="40.0728089" lon="-105.2307412">
  <ele>1595.64</ele>
  <time>2026-08-28T19:11:02Z</time>
  <course>322.53</course>
  <speed>0.05</speed>
  <fix>3d</fix>
</trkpt>
<trkpt lat="40.0728088" lon="-105.2307412">
  <ele>1595.74</ele>
  <time>2026-08-28T19:11:02Z</time>
  <course>35.37</course>
  <speed>0.0282842712474619</speed>
  <fix>3d</fix>
</trkpt>
<trkpt lat="40.0728089" lon="-105.2307413">
  <ele>1595.64</ele>
  <time>2026-08-28T19:11:02Z</time>
  <course>321.63</course>
  <speed>0.05</speed>
  <fix>3d</fix>
</trkpt>
<trkpt lat="40.0728088" lon="-105.2307413">
  <ele>1595.74</ele>
  <time>2026-08-28T19:11:02Z</time>
  <course>35.37</course>
  <speed>0.0282842712474619</speed>
  <fix>3d</fix>
</trkpt>
<trkpt lat="40.072809" lon="-105.2307414">
  <ele>1595.63</ele>
  <time>2026-08-28T19:11:02Z</time>
  <course>320.58</course>
  <speed>0.05</speed>
  <fix>3d</fix>
</trkpt>
<trkpt lat="40.0728089" lon="-105.2307414">
  <ele>1595.74</ele>
  <time>2026-08-28T19:11:02Z</time>
  <course>35.38</course>
  <speed>0.03605551275463989</speed>
  <fix>3d</fix>
</trkpt>
<trkpt lat="40.0728091" lon="-105.2307414">
  <ele>1595.63</ele>
  <time>2026-08-28T19:11:02Z</time>
  <course>319.65</course>
  <speed>0.05</speed>
  <fix>3d</fix>
</trkpt>
<trkpt lat="40.072809" lon="-105.2307414">
  <ele>1595.73</ele>
  <time>2026-08-28T19:11:02Z</time>
  <course>35.38</course>
  <speed>0.03605551275463989</speed>
  <fix>3d</fix>
</trkpt>
<trkpt lat="40.0728092" lon="-105.2307415">
  <ele>1595.63</ele>
  <time>2026-08-28T19:11:02Z</time>
  <course>319.29</course>
  <speed>0.06</speed>
  <fix>3d</fix>
</trkpt>
<trkpt lat="40.0728091" lon="-105.2307415">
  <ele>1595.73</ele>
  <time>2026-08-28T19:11:02Z</time>
  <course>35.37</course>
  <speed>0.03605551275463989</speed>
  <fix>3d</fix>
</trkpt>
<trkpt lat="40.0728092" lon="-105.2307416">
  <ele>1595.63</ele>
  <time>2026-08-28T19:11:02Z</time>
  <course>318.94</course>
  <speed>0.06</speed>
  <fix>3d</fix>
</trkpt>
<trkpt lat="40.0728092" lon="-105.2307416">
  <ele>1595.73</ele>
  <time>2026-08-28T19:11:02Z</time>
  <course>35.37</course>
  <speed>0.03605551275463989</speed>
  <fix>3d</fix>
</trkpt>
<trkpt lat="40.0728093" lon="-105.2307417">
  <ele>1595.63</ele>
  <time>2026-08-28T19:11:02Z</time>
  <course>318.28</course>
  <speed>0.06</speed>
  <fix>3d</fix>
</trkpt>
<trkpt lat="40.0728093" lon="-105.2307417">
  <ele>1595.73</ele>
  <time>2026-08-28T19:11:02Z</time>
  <course>35.36</course>
  <speed>0.044721359549995794</speed>
  <fix>3d</fix>
</trkpt>
<trkpt lat="40.0728094" lon="-105.2307418">
  <ele>1595.63</ele>
  <time>2026-08-28T19:11:02Z</time>
  <course>317.61</course>
  <speed>0.06</speed>
  <fix>3d</fix>
</trkpt>
<trkpt lat="40.0728094" lon="-105.2307419">
  <ele>1595.73</ele>
  <time>2026-08-28T19:11:02Z</time>
  <course>35.38</course>
  <speed>0.05</speed>
  <fix>3d</fix>
</trkpt>
<trkpt lat="40.0728095" lon="-105.2307419">
  <ele>1595.63</ele>
  <time>2026-08-28T19:11:02Z</time>
  <course>317.05</course>
  <speed>0.07</speed>
  <fix>3d</fix>
</trkpt>
<trkpt lat="40.0728094" lon="-105.230742">
  <ele>1595.73</ele>
  <time>2026-08-28T19:11:02Z</time>
  <course>35.37</course>
  <speed>0.044721359549995794</speed>
  <fix>3d</fix>
</trkpt>
<trkpt lat="40.0728096" lon="-105.230742">
  <ele>1595.63</ele>
  <time>2026-08-28T19:11:02Z</time>
  <course>315.57</course>
  <speed>0.07</speed>
  <fix>3d</fix>
</trkpt>
<trkpt lat="40.0728095" lon="-105.2307421">
  <ele>1595.73</ele>
  <time>2026-08-28T19:11:02Z</time>
  <course>35.37</course>
  <speed>0.03605551275463989</speed>
  <fix>3d</fix>
</trkpt>
<trkpt lat="40.0728097" lon="-105.2307422">
  <ele>1595.64</ele>
  <time>2026-08-28T19:11:02Z</time>
  <course>313.77</course>
  <speed>0.06</speed>
  <fix>3d</fix>
</trkpt>
<trkpt lat="40.0728096" lon="-105.2307422">
  <ele>1595.73</ele>
  <time>2026-08-28T19:11:02Z</time>
  <course>35.37</course>
  <speed>0.0316227766016838</speed>
  <fix>3d</fix>
</trkpt>
<trkpt lat="40.0728098" lon="-105.2307423">
  <ele>1595.64</ele>
  <time>2026-08-28T19:11:02Z</time>
  <course>313.6</course>
  <speed>0.05</speed>
  <fix>3d</fix>
</trkpt>
<trkpt lat="40.0728097" lon="-105.2307423">
  <ele>1595.73</ele>
  <time>2026-08-28T19:11:02Z</time>
  <course>35.37</course>
  <speed>0.022360679774997897</speed>
  <fix>3d</fix>
</trkpt>
<trkpt lat="40.0728098" lon="-105.2307424">
  <ele>1595.64</ele>
  <time>2026-08-28T19:11:02Z</time>
  <course>315.37</course>
  <speed>0.05</speed>
  <fix>3d</fix>
</trkpt>
<trkpt lat="40.0728097" lon="-105.2307423">
  <ele>1595.74</ele>
  <time>2026-08-28T19:11:02Z</time>
  <course>35.37</course>
  <speed>0.022360679774997897</speed>
  <fix>3d</fix>
</trkpt>
<trkpt lat="40.0728099" lon="-105.2307425">
  <ele>1595.64</ele>
  <time>2026-08-28T19:11:02Z</time>
  <course>318.49</course>
  <speed>0.04</speed>
  <fix>3d</fix>
</trkpt>
<trkpt lat="40.0728098" lon="-105.2307424">
  <ele>1595.74</ele>
  <time>2026-08-28T19:11:02Z</time>
  <course>35.38</course>
  <speed>0.01414213562373095</speed>
  <fix>3d</fix>
</trkpt>
<trkpt lat="40.07281" lon="-105.2307426">
  <ele>1595.65</ele>
  <time>2026-08-28T19:11:02Z</time>
  <course>321.82</course>
  <speed>0.04</speed>
  <fix>3d</fix>
</trkpt>
<trkpt lat="40.0728098" lon="-105.2307425">
  <ele>1595.74</ele>
  <time>2026-08-28T19:11:02Z</time>
  <course>35.38</course>
  <speed>0.01414213562373095</speed>
  <fix>3d</fix>
</trkpt>
<trkpt lat="40.0728101" lon="-105.2307426">
  <ele>1595.65</ele>
  <time>2026-08-28T19:11:02Z</time>
  <course>324.58</course>
  <speed>0.04</speed>
  <fix>3d</fix>
</trkpt>
<trkpt lat="40.0728099" lon="-105.2307425">
  <ele>1595.75</ele>
  <time>2026-08-28T19:11:02Z</time>
  <course>35.37</course>
  <speed>0.01414213562373095</speed>
  <fix>3d</fix>
</trkpt>
<trkpt lat="40.0728101" lon="-105.2307426">
  <ele>1595.65</ele>
  <time>2026-08-28T19:11:02Z</time>
  <course>326.33</course>
  <speed>0.04</speed>
  <fix>3d</fix>
</trkpt>
<trkpt lat="40.07281" lon="-105.2307426">
  <ele>1595.75</ele>
  <time>2026-08-28T19:11:02Z</time>
  <course>35.37</course>
  <speed>0.01414213562373095</speed>
  <fix>3d</fix>
</trkpt>
<trkpt lat="40.0728102" lon="-105.2307427">
  <ele>1595.65</ele>
  <time>2026-08-28T19:11:02Z</time>
  <course>327.18</course>
  <speed>0.04</speed>
  <fix>3d</fix>
</trkpt>
<trkpt lat="40.07281" lon="-105.2307426">
  <ele>1595.75</ele>
  <time>2026-08-28T19:11:02Z</time>
  <course>35.37</course>
  <speed>0.01414213562373095</speed>
  <fix>3d</fix>
</trkpt>
<trkpt lat="40.0728103" lon="-105.2307428">
  <ele>1595.65</ele>
  <time>2026-08-28T19:11:02Z</time>
  <course>327.5</course>
  <speed>0.04</speed>
  <fix>3d</fix>
</trkpt>
<trkpt lat="40.0728101" lon="-105.2307427">
  <ele>1595.75</ele>
  <time>2026-08-28T19:11:02Z</time>
  <course>35.38</course>
  <speed>0.01414213562373095</speed>
  <fix>3d</fix>
</trkpt>
<trkpt lat="40.0728103" lon="-105.2307428">
  <ele>1595.65</ele>
  <time>2026-08-28T19:11:02Z</time>
  <course>327.53</course>
  <speed>0.04</speed>
  <fix>3d</fix>
</trkpt>
<trkpt lat="40.0728102" lon="-105.2307427">
  <ele>1595.75</ele>
  <time>2026-08-28T19:11:02Z</time>
  <course>35.39</course>
  <speed>0.01414213562373095</speed>
  <fix>3d</fix>
</trkpt>
<trkpt lat="40.0728104" lon="-105.2307429">
  <ele>1595.65</ele>
  <time>2026-08-28T19:11:02Z</time>
  <course>327.41</course>
  <speed>0.04</speed>
  <fix>3d</fix>
</trkpt>
<trkpt lat="40.0728102" lon="-105.2307428">
  <ele>1595.75</ele>
  <time>2026-08-28T19:11:02Z</time>
  <course>35.39</course>
  <speed>0.0</speed>
  <fix>3d</fix>
</trkpt>
<trkpt lat="40.0728104" lon="-105.2307429">
  <ele>1595.65</ele>
  <time>2026-08-28T19:11:02Z</time>
  <course>330.69</course>
  <speed>0.03</speed>
  <fix>3d</fix>
</trkpt>
<trkpt lat="40.0728103" lon="-105.2307428">
  <ele>1595.76</ele>
  <time>2026-08-28T19:11:02Z</time>
  <course>35.38</course>
  <speed>0.0</speed>
  <fix>3d</fix>
</trkpt>
<trkpt lat="40.0728104" lon="-105.2307429">
  <ele>1595.64</ele>
  <time>2026-08-28T19:11:02Z</time>
  <course>337.22</course>
  <speed>0.02</speed>
  <fix>3d</fix>
</trkpt>
<trkpt lat="40.0728103" lon="-105.2307428">
  <ele>1595.76</ele>
  <time>2026-08-28T19:11:02Z</time>
  <course>35.4</course>
  <speed>0.0</speed>
  <fix>3d</fix>
</trkpt>
<trkpt lat="40.0728105" lon="-105.2307429">
  <ele>1595.64</ele>
  <time>2026-08-28T19:11:02Z</time>
  <course>337.15</course>
  <speed>0.02</speed>
  <fix>3d</fix>
</trkpt>
<trkpt lat="40.0728104" lon="-105.2307429">
  <ele>1595.76</ele>
  <time>2026-08-28T19:11:02Z</time>
  <course>35.4</course>
  <speed>0.01414213562373095</speed>
  <fix>3d</fix>
</trkpt>
<trkpt lat="40.0728105" lon="-105.230743">
  <ele>1595.64</ele>
  <time>2026-08-28T19:11:02Z</time>
  <course>334.44</course>
  <speed>0.03</speed>
  <fix>3d</fix>
</trkpt>
<trkpt lat="40.0728104" lon="-105.2307429">
  <ele>1595.75</ele>
  <time>2026-08-28T19:11:02Z</time>
  <course>35.42</course>
  <speed>0.01414213562373095</speed>
  <fix>3d</fix>
</trkpt>
<trkpt lat="40.0728106" lon="-105.2307431">
  <ele>1595.63</ele>
  <time>2026-08-28T19:11:02Z</time>
  <course>330.7</course>
  <speed>0.03</speed>
  <fix>3d</fix>
</trkpt>
<trkpt lat="40.0728105" lon="-105.230743">
  <ele>1595.75</ele>
  <time>2026-08-28T19:11:02Z</time>
  <course>35.4</course>
  <speed>0.01414213562373095</speed>
  <fix>3d</fix>
</trkpt>
<trkpt lat="40.0728107" lon="-105.2307431">
  <ele>1595.63</ele>
  <time>2026-08-28T19:11:02Z</time>
  <course>327.15</course>
  <speed>0.04</speed>
  <fix>3d</fix>
</trkpt>
<trkpt lat="40.0728106" lon="-105.230743">
  <ele>1595.75</ele>
  <time>2026-08-28T19:11:02Z</time>
  <course>35.38</course>
  <speed>0.022360679774997897</speed>
  <fix>3d</fix>
</trkpt>
<trkpt lat="40.0728107" lon="-105.2307431">
  <ele>1595.62</ele>
  <time>2026-08-28T19:11:02Z</time>
  <course>324.89</course>
  <speed>0.04</speed>
  <fix>3d</fix>
</trkpt>
<trkpt lat="40.0728106" lon="-105.2307431">
  <ele>1595.74</ele>
  <time>2026-08-28T19:11:02Z</time>
  <course>35.37</course>
  <speed>0.022360679774997897</speed>
  <fix>3d</fix>
</trkpt>
<trkpt lat="40.0728108" lon="-105.2307432">
  <ele>1595.62</ele>
  <time>2026-08-28T19:11:02Z</time>
  <course>323.23</course>
  <speed>0.04</speed>
  <fix>3d</fix>
</trkpt>
<trkpt lat="40.0728107" lon="-105.2307432">
  <ele>1595.74</ele>
  <time>2026-08-28T19:11:02Z</time>
  <course>35.36</course>
  <speed>0.022360679774997897</speed>
  <fix>3d</fix>
</trkpt>
<trkpt lat="40.0728109" lon="-105.2307433">
  <ele>1595.62</ele>
  <time>2026-08-28T19:11:02Z</time>
  <course>321.75</course>
  <speed>0.05</speed>
  <fix>3d</fix>
</trkpt>
<trkpt lat="40.0728108" lon="-105.2307433">
  <ele>1595.74</ele>
  <time>2026-08-28T19:11:02Z</time>
  <course>35.37</course>
  <speed>0.0282842712474619</speed>
  <fix>3d</fix>
</trkpt>
<trkpt lat="40.072811" lon="-105.2307434">
  <ele>1595.62</ele>
  <time>2026-08-28T19:11:02Z</time>
  <course>320.97</course>
  <speed>0.05</speed>
  <fix>3d</fix>
</trkpt>
<trkpt lat="40.0728109" lon="-105.2307434">
  <ele>1595.73</ele>
  <time>2026-08-28T19:11:02Z</time>
  <course>35.36</course>
  <speed>0.0282842712474619</speed>
  <fix>3d</fix>
</trkpt>
<trkpt lat="40.072811" lon="-105.2307434">
  <ele>1595.62</ele>
  <time>2026-08-28T19:11:02Z</time>
  <course>320.03</course>
  <speed>0.05</speed>
  <fix>3d</fix>
</trkpt>
<trkpt lat="40.0728109" lon="-105.2307434">
  <ele>1595.72</ele>
  <time>2026-08-28T19:11:02Z</time>
  <course>35.36</course>
  <speed>0.03605551275463989</speed>
  <fix>3d</fix>
</trkpt>
<trkpt lat="40.0728111" lon="-105.2307435">
  <ele>1595.62</ele>
  <time>2026-08-28T19:11:02Z</time>
  <course>318.87</course>
  <speed>0.05</speed>
  <fix>3d</fix>
</trkpt>
<trkpt lat="40.072811" lon="-105.2307435">
  <ele>1595.72</ele>
  <time>2026-08-28T19:11:02Z</time>
  <course>35.35</course>
  <speed>0.03605551275463989</speed>
  <fix>3d</fix>
</trkpt>
<trkpt lat="40.0728112" lon="-105.2307436">
  <ele>1595.62</ele>
  <time>2026-08-28T19:11:02Z</time>
  <course>317.91</course>
  <speed>0.05</speed>
  <fix>3d</fix>
</trkpt>
<trkpt lat="40.0728111" lon="-105.2307436">
  <ele>1595.72</ele>
  <time>2026-08-28T19:11:02Z</time>
  <course>35.35</course>
  <speed>0.03605551275463989</speed>
  <fix>3d</fix>
</trkpt>
<trkpt lat="40.0728113" lon="-105.2307437">
  <ele>1595.62</ele>
  <time>2026-08-28T19:11:02Z</time>
  <course>317.43</course>
  <speed>0.06</speed>
  <fix>3d</fix>
</trkpt>
<trkpt lat="40.0728112" lon="-105.2307437">
  <ele>1595.73</ele>
  <time>2026-08-28T19:11:02Z</time>
  <course>35.34</course>
  <speed>0.03605551275463989</speed>
  <fix>3d</fix>
</trkpt>
<trkpt lat="40.0728113" lon="-105.2307438">
  <ele>1595.62</ele>
  <time>2026-08-28T19:11:02Z</time>
  <course>317.18</course>
  <speed>0.06</speed>
  <fix>3d</fix>
</trkpt>
<trkpt lat="40.0728113" lon="-105.2307438">
  <ele>1595.73</ele>
  <time>2026-08-28T19:11:02Z</time>
  <course>35.35</course>
  <speed>0.03605551275463989</speed>
  <fix>3d</fix>
</trkpt>
<trkpt lat="40.0728114" lon="-105.2307439">
  <ele>1595.63</ele>
  <time>2026-08-28T19:11:02Z</time>
  <course>316.76</course>
  <speed>0.06</speed>
  <fix>3d</fix>
</trkpt>
<trkpt lat="40.0728114" lon="-105.2307439">
  <ele>1595.73</ele>
  <time>2026-08-28T19:11:02Z</time>
  <course>35.34</course>
  <speed>0.05</speed>
  <fix>3d</fix>
</trkpt>
<trkpt lat="40.0728115" lon="-105.230744">
  <ele>1595.63</ele>
  <time>2026-08-28T19:11:02Z</time>
  <course>316.07</course>
  <speed>0.07</speed>
  <fix>3d</fix>
</trkpt>
<trkpt lat="40.0728115" lon="-105.2307441">
  <ele>1595.73</ele>
  <time>2026-08-28T19:11:02Z</time>
  <course>35.36</course>
  <speed>0.05</speed>
  <fix>3d</fix>
</trkpt>
<trkpt lat="40.0728116" lon="-105.2307441">
  <ele>1595.63</ele>
  <time>2026-08-28T19:11:02Z</time>
  <course>315.7</course>
  <speed>0.07</speed>
  <fix>3d</fix>
</trkpt>
<trkpt lat="40.0728115" lon="-105.2307442">
  <ele>1595.73</ele>
  <time>2026-08-28T19:11:02Z</time>
  <course>35.36</course>
  <speed>0.044721359549995794</speed>
  <fix>3d</fix>
</trkpt>
<trkpt lat="40.0728117" lon="-105.2307442">
  <ele>1595.64</ele>
  <time>2026-08-28T19:11:02Z</time>
  <course>314.83</course>
  <speed>0.07</speed>
  <fix>3d</fix>
</trkpt>
<trkpt lat="40.0728116" lon="-105.2307443">
  <ele>1595.73</ele>
  <time>2026-08-28T19:11:02Z</time>
  <course>35.36</course>
  <speed>0.0316227766016838</speed>
  <fix>3d</fix>
</trkpt>
<trkpt lat="40.0728118" lon="-105.2307443">
  <ele>1595.64</ele>
  <time>2026-08-28T19:11:02Z</time>
  <course>313.8</course>
  <speed>0.06</speed>
  <fix>3d</fix>
</trkpt>
<trkpt lat="40.0728117" lon="-105.2307444">
  <ele>1595.73</ele>
  <time>2026-08-28T19:11:02Z</time>
  <course>35.36</course>
  <speed>0.022360679774997897</speed>
  <fix>3d</fix>
</trkpt>
<trkpt lat="40.0728119" lon="-105.2307445">
  <ele>1595.64</ele>
  <time>2026-08-28T19:11:02Z</time>
  <course>314.61</course>
  <speed>0.05</speed>
  <fix>3d</fix>
</trkpt>
<trkpt lat="40.0728118" lon="-105.2307445">
  <ele>1595.73</ele>
  <time>2026-08-28T19:11:02Z</time>
  <course>35.36</course>
  <speed>0.022360679774997897</speed>
  <fix>3d</fix>
</trkpt>
<trkpt lat="40.0728119" lon="-105.2307446">
  <ele>1595.64</ele>
  <time>2026-08-28T19:11:02Z</time>
  <course>317.12</course>
  <speed>0.05</speed>
  <fix>3d</fix>
</trkpt>
<trkpt lat="40.0728118" lon="-105.2307445">
  <ele>1595.73</ele>
  <time>2026-08-28T19:11:02Z</time>
  <course>35.37</course>
  <speed>0.01414213562373095</speed>
  <fix>3d</fix>
</trkpt>
<trkpt lat="40.072812" lon="-105.2307446">
  <ele>1595.65</ele>
  <time>2026-08-28T19:11:02Z</time>
  <course>320.37</course>
  <speed>0.04</speed>
  <fix>3d</fix>
</trkpt>
<trkpt lat="40.0728119" lon="-105.2307446">
  <ele>1595.73</ele>
  <time>2026-08-28T19:11:02Z</time>
  <course>35.36</course>
  <speed>0.01414213562373095</speed>
  <fix>3d</fix>
</trkpt>
<trkpt lat="40.0728121" lon="-105.2307447">
  <ele>1595.65</ele>
  <time>2026-08-28T19:11:02Z</time>
  <course>323.6</course>
  <speed>0.03</speed>
  <fix>3d</fix>
</trkpt>
<trkpt lat="40.0728119" lon="-105.2307446">
  <ele>1595.73</ele>
  <time>2026-08-28T19:11:02Z</time>
  <course>35.36</course>
  <speed>0.01414213562373095</speed>
  <fix>3d</fix>
</trkpt>
<trkpt lat="40.0728121" lon="-105.2307448">
  <ele>1595.65</ele>
  <time>2026-08-28T19:11:02Z</time>
  <course>326.19</course>
  <speed>0.03</speed>
  <fix>3d</fix>
</trkpt>
<trkpt lat="40.072812" lon="-105.2307447">
  <ele>1595.74</ele>
  <time>2026-08-28T19:11:02Z</time>
  <course>35.37</course>
  <speed>0.01414213562373095</speed>
  <fix>3d</fix>
</trkpt>
<trkpt lat="40.0728122" lon="-105.2307448">
  <ele>1595.65</ele>
  <time>2026-08-28T19:11:02Z</time>
  <course>327.73</course>
  <speed>0.03</speed>
  <fix>3d</fix>
</trkpt>
<trkpt lat="40.0728121" lon="-105.2307447">
  <ele>1595.74</ele>
  <time>2026-08-28T19:11:02Z</time>
  <course>35.37</course>
  <speed>0.01414213562373095</speed>
  <fix>3d</fix>
</trkpt>
<trkpt lat="40.0728122" lon="-105.2307448">
  <ele>1595.66</ele>
  <time>2026-08-28T19:11:02Z</time>
  <course>328.35</course>
  <speed>0.03</speed>
  <fix>3d</fix>
</trkpt>
<trkpt lat="40.0728121" lon="-105.2307448">
  <ele>1595.74</ele>
  <time>2026-08-28T19:11:02Z</time>
  <course>35.38</course>
  <speed>0.01414213562373095</speed>
  <fix>3d</fix>
</trkpt>
<trkpt lat="40.0728122" lon="-105.2307448">
  <ele>1595.66</ele>
  <time>2026-08-28T19:11:02Z</time>
  <course>328.5</course>
  <speed>0.03</speed>
  <fix>3d</fix>
</trkpt>
<trkpt lat="40.0728121" lon="-105.2307448">
  <ele>1595.74</ele>
  <time>2026-08-28T19:11:02Z</time>
  <course>35.38</course>
  <speed>0.01</speed>
  <fix>3d</fix>
</trkpt>
<trkpt lat="40.0728123" lon="-105.2307449">
  <ele>1595.66</ele>
  <time>2026-08-28T19:11:02Z</time>
  <course>328.46</course>
  <speed>0.03</speed>
  <fix>3d</fix>
</trkpt>
<trkpt lat="40.0728122" lon="-105.2307448">
  <ele>1595.74</ele>
  <time>2026-08-28T19:11:02Z</time>
  <course>35.39</course>
  <speed>0.0</speed>
  <fix>3d</fix>
</trkpt>
<trkpt lat="40.0728123" lon="-105.230745">
  <ele>1595.66</ele>
  <time>2026-08-28T19:11:02Z</time>
  <course>331.69</course>
  <speed>0.03</speed>
  <fix>3d</fix>
</trkpt>
<trkpt lat="40.0728122" lon="-105.2307449">
  <ele>1595.74</ele>
  <time>2026-08-28T19:11:02Z</time>
  <course>35.37</course>
  <speed>0.0</speed>
  <fix>3d</fix>
</trkpt>
<trkpt lat="40.0728124" lon="-105.230745">
  <ele>1595.66</ele>
  <time>2026-08-28T19:11:02Z</time>
  <course>336.61</course>
  <speed>0.02</speed>
  <fix>3d</fix>
</trkpt>
<trkpt lat="40.0728123" lon="-105.2307449">
  <ele>1595.75</ele>
  <time>2026-08-28T19:11:02Z</time>
  <course>35.37</course>
  <speed>0.0</speed>
  <fix>3d</fix>
</trkpt>
<trkpt lat="40.0728125" lon="-105.230745">
  <ele>1595.66</ele>
  <time>2026-08-28T19:11:02Z</time>
  <course>338.24</course>
  <speed>0.02</speed>
  <fix>3d</fix>
</trkpt>
<trkpt lat="40.0728123" lon="-105.2307449">
  <ele>1595.75</ele>
  <time>2026-08-28T19:11:02Z</time>
  <course>35.37</course>
  <speed>0.0</speed>
  <fix>3d</fix>
</trkpt>
<trkpt lat="40.0728125" lon="-105.230745">
  <ele>1595.66</ele>
  <time>2026-08-28T19:11:02Z</time>
  <course>337.37</course>
  <speed>0.02</speed>
  <fix>3d</fix>
</trkpt>
<trkpt lat="40.0728124" lon="-105.2307449">
  <ele>1595.75</ele>
  <time>2026-08-28T19:11:02Z</time>
  <course>35.38</course>
  <speed>0.01414213562373095</speed>
  <fix>3d</fix>
</trkpt>
<trkpt lat="40.0728126" lon="-105.230745">
  <ele>1595.66</ele>
  <time>2026-08-28T19:11:02Z</time>
  <course>333.33</course>
  <speed>0.03</speed>
  <fix>3d</fix>
</trkpt>
<trkpt lat="40.0728124" lon="-105.230745">
  <ele>1595.75</ele>
  <time>2026-08-28T19:11:02Z</time>
  <course>35.38</course>
  <speed>0.01414213562373095</speed>
  <fix>3d</fix>
</trkpt>
<trkpt lat="40.0728126" lon="-105.2307451">
  <ele>1595.66</ele>
  <time>2026-08-28T19:11:02Z</time>
  <course>329.58</course>
  <speed>0.04</speed>
  <fix>3d</fix>
</trkpt>
<trkpt lat="40.0728125" lon="-105.230745">
  <ele>1595.74</ele>
  <time>2026-08-28T19:11:02Z</time>
  <course>35.37</course>
  <speed>0.01414213562373095</speed>
  <fix>3d</fix>
</trkpt>
<trkpt lat="40.0728127" lon="-105.2307452">
  <ele>1595.66</ele>
  <time>2026-08-28T19:11:02Z</time>
  <course>326.84</course>
  <speed>0.04</speed>
  <fix>3d</fix>
</trkpt>
<trkpt lat="40.0728126" lon="-105.2307451">
  <ele>1595.75</ele>
  <time>2026-08-28T19:11:02Z</time>
  <course>35.37</course>
  <speed>0.022360679774997897</speed>
  <fix>3d</fix>
</trkpt>
<trkpt lat="40.0728128" lon="-105.2307452">
  <ele>1595.66</ele>
  <time>2026-08-28T19:11:02Z</time>
  <course>325.1</course>
  <speed>0.04</speed>
  <fix>3d</fix>
</trkpt>
<trkpt lat="40.0728127" lon="-105.2307452">
  <ele>1595.75</ele>
  <time>2026-08-28T19:11:02Z</time>
  <course>35.38</course>
  <speed>0.022360679774997897</speed>
  <fix>3d</fix>
</trkpt>
<trkpt lat="40.0728128" lon="-105.2307453">
  <ele>1595.66</ele>
  <time>2026-08-28T19:11:02Z</time>
  <course>323.65</course>
  <speed>0.05</speed>
  <fix>3d</fix>
</trkpt>
<trkpt lat="40.0728127" lon="-105.2307453">
  <ele>1595.75</ele>
  <time>2026-08-28T19:11:02Z</time>
  <course>35.38</course>
  <speed>0.0282842712474619</speed>
  <fix>3d</fix>
</trkpt>
<trkpt lat="40.0728129" lon="-105.2307454">
  <ele>1595.66</ele>
  <time>2026-08-28T19:11:02Z</time>
  <course>322.27</course>
  <speed>0.05</speed>
  <fix>3d</fix>
</trkpt>
<trkpt lat="40.0728128" lon="-105.2307453">
  <ele>1595.75</ele>
  <time>2026-08-28T19:11:02Z</time>
  <course>35.38</course>
  <speed>0.0282842712474619</speed>
  <fix>3d</fix>
</trkpt>
<trkpt lat="40.072813" lon="-105.2307455">
  <ele>1595.66</ele>
  <time>2026-08-28T19:11:02Z</time>
  <course>321.44</course>
  <speed>0.05</speed>
  <fix>3d</fix>
</trkpt>
<trkpt lat="40.0728129" lon="-105.2307454">
  <ele>1595.75</ele>
  <time>2026-08-28T19:11:02Z</time>
  <course>35.4</course>
  <speed>0.0282842712474619</speed>
  <fix>3d</fix>
</trkpt>
<trkpt lat="40.0728131" lon="-105.2307455">
  <ele>1595.66</ele>
  <time>2026-08-28T19:11:02Z</time>
  <course>320.7</course>
  <speed>0.05</speed>
  <fix>3d</fix>
</trkpt>
<trkpt lat="40.072813" lon="-105.2307455">
  <ele>1595.75</ele>
  <time>2026-08-28T19:11:02Z</time>
  <course>35.39</course>
  <speed>0.0282842712474619</speed>
  <fix>3d</fix>
</trkpt>
<trkpt lat="40.0728131" lon="-105.2307456">
  <ele>1595.66</ele>
  <time>2026-08-28T19:11:02Z</time>
  <course>320.1</course>
  <speed>0.05</speed>
  <fix>3d</fix>
</trkpt>
<trkpt lat="40.0728131" lon="-105.2307456">
  <ele>1595.74</ele>
  <time>2026-08-28T19:11:02Z</time>
  <course>35.37</course>
  <speed>0.03605551275463989</speed>
  <fix>3d</fix>
</trkpt>
<trkpt lat="40.0728132" lon="-105.2307457">
  <ele>1595.66</ele>
  <time>2026-08-28T19:11:02Z</time>
  <course>319.72</course>
  <speed>0.05</speed>
  <fix>3d</fix>
</trkpt>
<trkpt lat="40.0728131" lon="-105.2307457">
  <ele>1595.73</ele>
  <time>2026-08-28T19:11:02Z</time>
  <course>35.37</course>
  <speed>0.03605551275463989</speed>
  <fix>3d</fix>
</trkpt>
<trkpt lat="40.0728133" lon="-105.2307458">
  <ele>1595.66</ele>
  <time>2026-08-28T19:11:02Z</time>
  <course>319.25</course>
  <speed>0.06</speed>
  <fix>3d</fix>
</trkpt>
<trkpt lat="40.0728132" lon="-105.2307458">
  <ele>1595.73</ele>
  <time>2026-08-28T19:11:02Z</time>
  <course>35.36</course>
  <speed>0.03605551275463989</speed>
  <fix>3d</fix>
</trkpt>
<trkpt lat="40.0728134" lon="-105.2307459">
  <ele>1595.65</ele>
  <time>2026-08-28T19:11:02Z</time>
  <course>318.86</course>
  <speed>0.06</speed>
  <fix>3d</fix>
</trkpt>
<trkpt lat="40.0728133" lon="-105.2307459">
  <ele>1595.73</ele>
  <time>2026-08-28T19:11:02Z</time>
  <course>35.35</course>
  <speed>0.05</speed>
  <fix>3d</fix>
</trkpt>
<trkpt lat="40.0728135" lon="-105.230746">
  <ele>1595.65</ele>
  <time>2026-08-28T19:11:02Z</time>
  <course>318.32</course>
  <speed>0.06</speed>
  <fix>3d</fix>
</trkpt>
<trkpt lat="40.0728134" lon="-105.230746">
  <ele>1595.73</ele>
  <time>2026-08-28T19:11:02Z</time>
  <course>35.37</course>
  <speed>0.05</speed>
  <fix>3d</fix>
</trkpt>
<trkpt lat="40.0728136" lon="-105.2307461">
  <ele>1595.66</ele>
  <time>2026-08-28T19:11:02Z</time>
  <course>318.02</course>
  <speed>0.06</speed>
  <fix>3d</fix>
</trkpt>
<trkpt lat="40.0728135" lon="-105.2307461">
  <ele>1595.73</ele>
  <time>2026-08-28T19:11:02Z</time>
  <course>35.37</course>
  <speed>0.044721359549995794</speed>
  <fix>3d</fix>
</trkpt>
<trkpt lat="40.0728137" lon="-105.2307462">
  <ele>1595.66</ele>
  <time>2026-08-28T19:11:02Z</time>
  <course>316.81</course>
  <speed>0.07</speed>
  <fix>3d</fix>
</trkpt>
<trkpt lat="40.0728136" lon="-105.2307462">
  <ele>1595.74</ele>
  <time>2026-08-28T19:11:02Z</time>
  <course>35.37</course>
  <speed>0.03605551275463989</speed>
  <fix>3d</fix>
</trkpt>
<trkpt lat="40.0728138" lon="-105.2307463">
  <ele>1595.66</ele>
  <time>2026-08-28T19:11:02Z</time>
  <course>315.06</course>
  <speed>0.06</speed>
  <fix>3d</fix>
</trkpt>
<trkpt lat="40.0728137" lon="-105.2307463">
  <ele>1595.74</ele>
  <time>2026-08-28T19:11:02Z</time>
  <course>35.38</course>
  <speed>0.0316227766016838</speed>
  <fix>3d</fix>
</trkpt>
<trkpt lat="40.0728138" lon="-105.2307465">
  <ele>1595.66</ele>
  <time>2026-08-28T19:11:02Z</time>
  <course>314.9</course>
  <speed>0.05</speed>
  <fix>3d</fix>
</trkpt>
<trkpt lat="40.0728137" lon="-105.2307464">
  <ele>1595.74</ele>
  <time>2026-08-28T19:11:02Z</time>
  <course>35.39</course>
  <speed>0.022360679774997897</speed>
  <fix>3d</fix>
</trkpt>
<trkpt lat="40.0728139" lon="-105.2307465">
  <ele>1595.67</ele>
  <time>2026-08-28T19:11:02Z</time>
  <course>316.45</course>
  <speed>0.05</speed>
  <fix>3d</fix>
</trkpt>
<trkpt lat="40.0728138" lon="-105.2307465">
  <ele>1595.74</ele>
  <time>2026-08-28T19:11:02Z</time>
  <course>35.39</course>
  <speed>0.022360679774997897</speed>
  <fix>3d</fix>
</trkpt>
<trkpt lat="40.072814" lon="-105.2307466">
  <ele>1595.67</ele>
  <time>2026-08-28T19:11:02Z</time>
  <course>319.38</course>
  <speed>0.04</speed>
  <fix>3d</fix>
</trkpt>
<trkpt lat="40.0728139" lon="-105.2307465">
  <ele>1595.74</ele>
  <time>2026-08-28T19:11:02Z</time>
  <course>35.38</course>
  <speed>0.01414213562373095</speed>
  <fix>3d</fix>
</trkpt>
<trkpt lat="40.072814" lon="-105.2307467">
  <ele>1595.67</ele>
  <time>2026-08-28T19:11:02Z</time>
  <course>322.6</course>
  <speed>0.04</speed>
  <fix>3d</fix>
</trkpt>
<trkpt lat="40.0728139" lon="-105.2307466">
  <ele>1595.74</ele>
  <time>2026-08-28T19:11:02Z</time>
  <course>35.37</course>
  <speed>0.01414213562373095</speed>
  <fix>3d</fix>
</trkpt>
<trkpt lat="40.0728141" lon="-105.2307467">
  <ele>1595.67</ele>
  <time>2026-08-28T19:11:02Z</time>
  <course>325.12</course>
  <speed>0.04</speed>
  <fix>3d</fix>
</trkpt>
<trkpt lat="40.072814" lon="-105.2307467">
  <ele>1595.74</ele>
  <time>2026-08-28T19:11:03Z</time>
  <course>35.36</course>
  <speed>0.01414213562373095</speed>
  <fix>3d</fix>
</trkpt>
<trkpt lat="40.0728141" lon="-105.2307468">
  <ele>1595.67</ele>
  <time>2026-08-28T19:11:03Z</time>
  <course>326.63</course>
  <speed>0.04</speed>
  <fix>3d</fix>
</trkpt>
<trkpt lat="40.072814" lon="-105.2307467">
  <ele>1595.74</ele>
  <time>2026-08-28T19:11:03Z</time>
  <course>35.36</course>
  <speed>0.01414213562373095</speed>
  <fix>3d</fix>
</trkpt>
<trkpt lat="40.0728142" lon="-105.2307469">
  <ele>1595.67</ele>
  <time>2026-08-28T19:11:03Z</time>
  <course>327.3</course>
  <speed>0.04</speed>
  <fix>3d</fix>
</trkpt>
<trkpt lat="40.0728141" lon="-105.2307468">
  <ele>1595.74</ele>
  <time>2026-08-28T19:11:03Z</time>
  <course>35.36</course>
  <speed>0.01</speed>
  <fix>3d</fix>
</trkpt>
<trkpt lat="40.0728143" lon="-105.2307469">
  <ele>1595.67</ele>
  <time>2026-08-28T19:11:03Z</time>
  <course>327.45</course>
  <speed>0.04</speed>
  <fix>3d</fix>
</trkpt>
<trkpt lat="40.0728142" lon="-105.2307468">
  <ele>1595.74</ele>
  <time>2026-08-28T19:11:03Z</time>
  <course>35.36</course>
  <speed>0.01</speed>
  <fix>3d</fix>
</trkpt>
<trkpt lat="40.0728144" lon="-105.2307469">
  <ele>1595.67</ele>
  <time>2026-08-28T19:11:03Z</time>
  <course>327.35</course>
  <speed>0.04</speed>
  <fix>3d</fix>
</trkpt>
<trkpt lat="40.0728142" lon="-105.2307469">
  <ele>1595.75</ele>
  <time>2026-08-28T19:11:03Z</time>
  <course>35.37</course>
  <speed>0.01</speed>
  <fix>3d</fix>
</trkpt>
<trkpt lat="40.0728144" lon="-105.230747">
  <ele>1595.67</ele>
  <time>2026-08-28T19:11:03Z</time>
  <course>327.28</course>
  <speed>0.04</speed>
  <fix>3d</fix>
</trkpt>
<trkpt lat="40.0728143" lon="-105.2307469">
  <ele>1595.75</ele>
  <time>2026-08-28T19:11:03Z</time>
  <course>35.38</course>
  <speed>0.0</speed>
  <fix>3d</fix>
</trkpt>
<trkpt lat="40.0728145" lon="-105.2307471">
  <ele>1595.67</ele>
  <time>2026-08-28T19:11:03Z</time>
  <course>330.65</course>
  <speed>0.03</speed>
  <fix>3d</fix>
</trkpt>
<trkpt lat="40.0728143" lon="-105.2307469">
  <ele>1595.75</ele>
  <time>2026-08-28T19:11:03Z</time>
  <course>35.37</course>
  <speed>0.0</speed>
  <fix>3d</fix>
</trkpt>
<trkpt lat="40.0728145" lon="-105.2307471">
  <ele>1595.67</ele>
  <time>2026-08-28T19:11:03Z</time>
  <course>338.19</course>
  <speed>0.02</speed>
  <fix>3d</fix>
</trkpt>
<trkpt lat="40.0728144" lon="-105.230747">
  <ele>1595.75</ele>
  <time>2026-08-28T19:11:03Z</time>
  <course>35.38</course>
  <speed>0.0</speed>
  <fix>3d</fix>
</trkpt>
<trkpt lat="40.0728146" lon="-105.2307471">
  <ele>1595.67</ele>
  <time>2026-08-28T19:11:03Z</time>
  <course>339.0</course>
  <speed>0.02</speed>
  <fix>3d</fix>
</trkpt>
<trkpt lat="40.0728144" lon="-105.230747">
  <ele>1595.74</ele>
  <time>2026-08-28T19:11:03Z</time>
  <course>35.38</course>
  <speed>0.01</speed>
  <fix>3d</fix>
</trkpt>
<trkpt lat="40.0728146" lon="-105.2307471">
  <ele>1595.67</ele>
  <time>2026-08-28T19:11:03Z</time>
  <course>336.57</course>
  <speed>0.03</speed>
  <fix>3d</fix>
</trkpt>
<trkpt lat="40.0728145" lon="-105.2307471">
  <ele>1595.75</ele>
  <time>2026-08-28T19:11:03Z</time>
  <course>35.37</course>
  <speed>0.01414213562373095</speed>
  <fix>3d</fix>
</trkpt>
<trkpt lat="40.0728146" lon="-105.2307472">
  <ele>1595.67</ele>
  <time>2026-08-28T19:11:03Z</time>
  <course>332.59</course>
  <speed>0.03</speed>
  <fix>3d</fix>
</trkpt>
<trkpt lat="40.0728145" lon="-105.2307471">
  <ele>1595.74</ele>
  <time>2026-08-28T19:11:03Z</time>
  <course>35.39</course>
  <speed>0.01414213562373095</speed>
  <fix>3d</fix>
</trkpt>
<trkpt lat="40.0728147" lon="-105.2307472">
  <ele>1595.67</ele>
  <time>2026-08-28T19:11:03Z</time>
  <course>329.03</course>
  <speed>0.04</speed>
  <fix>3d</fix>
</trkpt>
<trkpt lat="40.0728146" lon="-105.2307472">
  <ele>1595.74</ele>
  <time>2026-08-28T19:11:03Z</time>
  <course>35.37</course>
  <speed>0.022360679774997897</speed>
  <fix>3d</fix>
</trkpt>
<trkpt lat="40.0728147" lon="-105.2307472">
  <ele>1595.67</ele>
  <time>2026-08-28T19:11:03Z</time>
  <course>326.62</course>
  <speed>0.04</speed>
  <fix>3d</fix>
</trkpt>
<trkpt lat="40.0728147" lon="-105.2307472">
  <ele>1595.73</ele>
  <time>2026-08-28T19:11:03Z</time>
  <course>35.37</course>
  <speed>0.022360679774997897</speed>
  <fix>3d</fix>
</trkpt>
<trkpt lat="40.0728148" lon="-105.2307473">
  <ele>1595.67</ele>
  <time>2026-08-28T19:11:03Z</time>
  <course>324.67</course>
  <speed>0.04</speed>
  <fix>3d</fix>
</trkpt>
<trkpt lat="40.0728147" lon="-105.2307473">
  <ele>1595.73</ele>
  <time>2026-08-28T19:11:03Z</time>
  <course>35.37</course>
  <speed>0.0282842712474619</speed>
  <fix>3d</fix>
</trkpt>
<trkpt lat="40.0728149" lon="-105.2307474">
  <ele>1595.67</ele>
  <time>2026-08-28T19:11:03Z</time>
  <course>322.98</course>
  <speed>0.05</speed>
  <fix>3d</fix>
</trkpt>
<trkpt lat="40.0728148" lon="-105.2307474">
  <ele>1595.73</ele>
  <time>2026-08-28T19:11:03Z</time>
  <course>35.36</course>
  <speed>0.0282842712474619</speed>
  <fix>3d</fix>
</trkpt>
<trkpt lat="40.072815" lon="-105.2307474">
  <ele>1595.67</ele>
  <time>2026-08-28T19:11:03Z</time>
  <course>321.45</course>
  <speed>0.05</speed>
  <fix>3d</fix>
</trkpt>
<trkpt lat="40.0728149" lon="-105.2307475">
  <ele>1595.73</ele>
  <time>2026-08-28T19:11:03Z</time>
  <course>35.37</course>
  <speed>0.03605551275463989</speed>
  <fix>3d</fix>
</trkpt>
<trkpt lat="40.0728151" lon="-105.2307475">
  <ele>1595.67</ele>
  <time>2026-08-28T19:11:03Z</time>
  <course>320.19</course>
  <speed>0.05</speed>
  <fix>3d</fix>
</trkpt>
<trkpt lat="40.072815" lon="-105.2307475">
  <ele>1595.74</ele>
  <time>2026-08-28T19:11:03Z</time>
  <course>35.36</course>
  <speed>0.03605551275463989</speed>
  <fix>3d</fix>
</trkpt>
<trkpt lat="40.0728151" lon="-105.2307476">
  <ele>1595.67</ele>
  <time>2026-08-28T19:11:03Z</time>
  <course>319.41</course>
  <speed>0.05</speed>
  <fix>3d</fix>
</trkpt>
<trkpt lat="40.0728151" lon="-105.2307476">
  <ele>1595.75</ele>
  <time>2026-08-28T19:11:03Z</time>
  <course>35.37</course>
  <speed>0.03605551275463989</speed>
  <fix>3d</fix>
</trkpt>
<trkpt lat="40.0728152" lon="-105.2307477">
  <ele>1595.67</ele>
  <time>2026-08-28T19:11:03Z</time>
  <course>318.97</course>
  <speed>0.05</speed>
  <fix>3d</fix>
</trkpt>
<trkpt lat="40.0728151" lon="-105.2307477">
  <ele>1595.75</ele>
  <time>2026-08-28T19:11:03Z</time>
  <course>35.37</course>
  <speed>0.03605551275463989</speed>
  <fix>3d</fix>
</trkpt>
<trkpt lat="40.0728153" lon="-105.2307478">
  <ele>1595.68</ele>
  <time>2026-08-28T19:11:03Z</time>
  <course>318.73</course>
  <speed>0.06</speed>
  <fix>3d</fix>
</trkpt>
<trkpt lat="40.0728152" lon="-105.2307478">
  <ele>1595.76</ele>
  <time>2026-08-28T19:11:03Z</time>
  <course>35.39</course>
  <speed>0.03605551275463989</speed>
  <fix>3d</fix>
</trkpt>
<trkpt lat="40.0728154" lon="-105.2307479">
  <ele>1595.68</ele>
  <time>2026-08-28T19:11:03Z</time>
  <course>318.48</course>
  <speed>0.06</speed>
  <fix>3d</fix>
</trkpt>
<trkpt lat="40.0728153" lon="-105.2307479">
  <ele>1595.76</ele>
  <time>2026-08-28T19:11:03Z</time>
  <course>35.41</course>
  <speed>0.03605551275463989</speed>
  <fix>3d</fix>
</trkpt>
<trkpt lat="40.0728155" lon="-105.230748">
  <ele>1595.68</ele>
  <time>2026-08-28T19:11:03Z</time>
  <course>318.23</course>
  <speed>0.06</speed>
  <fix>3d</fix>
</trkpt>
<trkpt lat="40.0728154" lon="-105.230748">
  <ele>1595.77</ele>
  <time>2026-08-28T19:11:03Z</time>
  <course>35.42</course>
  <speed>0.05</speed>
  <fix>3d</fix>
</trkpt>
<trkpt lat="40.0728155" lon="-105.2307481">
  <ele>1595.68</ele>
  <time>2026-08-28T19:11:03Z</time>
  <course>317.7</course>
  <speed>0.06</speed>
  <fix>3d</fix>
</trkpt>
<trkpt lat="40.0728155" lon="-105.2307482">
  <ele>1595.77</ele>
  <time>2026-08-28T19:11:03Z</time>
  <course>35.43</course>
  <speed>0.05</speed>
  <fix>3d</fix>
</trkpt>
<trkpt lat="40.0728156" lon="-105.2307482">
  <ele>1595.67</ele>
  <time>2026-08-28T19:11:03Z</time>
  <course>317.42</course>
  <speed>0.07</speed>
  <fix>3d</fix>
</trkpt>
<trkpt lat="40.0728156" lon="-105.2307483">
  <ele>1595.77</ele>
  <time>2026-08-28T19:11:03Z</time>
  <course>35.43</course>
  <speed>0.044721359549995794</speed>
  <fix>3d</fix>
</trkpt>
<trkpt lat="40.0728157" lon="-105.2307483">
  <ele>1595.67</ele>
  <time>2026-08-28T19:11:03Z</time>
  <course>316.54</course>
  <speed>0.07</speed>
  <fix>3d</fix>
</trkpt>
<trkpt lat="40.0728157" lon="-105.2307484">
  <ele>1595.76</ele>
  <time>2026-08-28T19:11:03Z</time>
  <course>35.42</course>
  <speed>0.03605551275463989</speed>
  <fix>3d</fix>
</trkpt>
<trkpt lat="40.0728158" lon="-105.2307484">
  <ele>1595.66</ele>
  <time>2026-08-28T19:11:03Z</time>
  <course>315.49</course>
  <speed>0.06</speed>
  <fix>3d</fix>
</trkpt>
<trkpt lat="40.0728157" lon="-105.2307485">
  <ele>1595.76</ele>
  <time>2026-08-28T19:11:03Z</time>
  <course>35.4</course>
  <speed>0.022360679774997897</speed>
  <fix>3d</fix>
</trkpt>
<trkpt lat="40.0728159" lon="-105.2307485">
  <ele>1595.66</ele>
  <time>2026-08-28T19:11:03Z</time>
  <course>316.39</course>
  <speed>0.05</speed>
  <fix>3d</fix>
</trkpt>
<trkpt lat="40.0728158" lon="-105.2307485">
  <ele>1595.75</ele>
  <time>2026-08-28T19:11:03Z</time>
  <course>35.38</course>
  <speed>0.022360679774997897</speed>
  <fix>3d</fix>
</trkpt>
<trkpt lat="40.0728159" lon="-105.2307486">
  <ele>1595.65</ele>
  <time>2026-08-28T19:11:03Z</time>
  <course>318.86</course>
  <speed>0.05</speed>
  <fix>3d</fix>
</trkpt>
<trkpt lat="40.0728159" lon="-105.2307486">
  <ele>1595.74</ele>
  <time>2026-08-28T19:11:03Z</time>
  <course>35.37</course>
  <speed>0.01414213562373095</speed>
  <fix>3d</fix>
</trkpt>
<trkpt lat="40.072816" lon="-105.2307487">
  <ele>1595.65</ele>
  <time>2026-08-28T19:11:03Z</time>
  <course>321.91</course>
  <speed>0.04</speed>
  <fix>3d</fix>
</trkpt>
<trkpt lat="40.0728159" lon="-105.2307487">
  <ele>1595.73</ele>
  <time>2026-08-28T19:11:03Z</time>
  <course>35.36</course>
  <speed>0.01</speed>
  <fix>3d</fix>
</trkpt>
<trkpt lat="40.0728161" lon="-105.2307488">
  <ele>1595.64</ele>
  <time>2026-08-28T19:11:03Z</time>
  <course>324.93</course>
  <speed>0.04</speed>
  <fix>3d</fix>
</trkpt>
<trkpt lat="40.072816" lon="-105.2307487">
  <ele>1595.73</ele>
  <time>2026-08-28T19:11:03Z</time>
  <course>35.35</course>
  <speed>0.01</speed>
  <fix>3d</fix>
</trkpt>
<trkpt lat="40.0728162" lon="-105.2307488">
  <ele>1595.64</ele>
  <time>2026-08-28T19:11:03Z</time>
  <course>327.4</course>
  <speed>0.03</speed>
  <fix>3d</fix>
</trkpt>
<trkpt lat="40.0728161" lon="-105.2307488">
  <ele>1595.73</ele>
  <time>2026-08-28T19:11:03Z</time>
  <course>35.34</course>
  <speed>0.01</speed>
  <fix>3d</fix>
</trkpt>
<trkpt lat="40.0728162" lon="-105.2307489">
  <ele>1595.64</ele>
  <time>2026-08-28T19:11:03Z</time>
  <course>329.01</course>
  <speed>0.03</speed>
  <fix>3d</fix>
</trkpt>
<trkpt lat="40.0728161" lon="-105.2307488">
  <ele>1595.74</ele>
  <time>2026-08-28T19:11:03Z</time>
  <course>35.36</course>
  <speed>0.01</speed>
  <fix>3d</fix>
</trkpt>
<trkpt lat="40.0728163" lon="-105.2307489">
  <ele>1595.64</ele>
  <time>2026-08-28T19:11:03Z</time>
  <course>329.57</course>
  <speed>0.03</speed>
  <fix>3d</fix>
</trkpt>
<trkpt lat="40.0728162" lon="-105.2307489">
  <ele>1595.74</ele>
  <time>2026-08-28T19:11:03Z</time>
  <course>35.37</course>
  <speed>0.0</speed>
  <fix>3d</fix>
</trkpt>
<trkpt lat="40.0728163" lon="-105.2307489">
  <ele>1595.64</ele>
  <time>2026-08-28T19:11:03Z</time>
  <course>329.6</course>
  <speed>0.03</speed>
  <fix>3d</fix>
</trkpt>
<trkpt lat="40.0728162" lon="-105.2307489">
  <ele>1595.74</ele>
  <time>2026-08-28T19:11:03Z</time>
  <course>35.38</course>
  <speed>0.0</speed>
  <fix>3d</fix>
</trkpt>
<trkpt lat="40.0728164" lon="-105.2307489">
  <ele>1595.64</ele>
  <time>2026-08-28T19:11:03Z</time>
  <course>329.76</course>
  <speed>0.03</speed>
  <fix>3d</fix>
</trkpt>
<trkpt lat="40.0728163" lon="-105.2307489">
  <ele>1595.74</ele>
  <time>2026-08-28T19:11:03Z</time>
  <course>35.38</course>
  <speed>0.0</speed>
  <fix>3d</fix>
</trkpt>
<trkpt lat="40.0728164" lon="-105.230749">
  <ele>1595.64</ele>
  <time>2026-08-28T19:11:03Z</time>
  <course>330.09</course>
  <speed>0.03</speed>
  <fix>3d</fix>
</trkpt>
<trkpt lat="40.0728163" lon="-105.2307489">
  <ele>1595.75</ele>
  <time>2026-08-28T19:11:03Z</time>
  <course>35.37</course>
  <speed>0.0</speed>
  <fix>3d</fix>
</trkpt>
<trkpt lat="40.0728164" lon="-105.2307491">
  <ele>1595.64</ele>
  <time>2026-08-28T19:11:03Z</time>
  <course>334.63</course>
  <speed>0.02</speed>
  <fix>3d</fix>
</trkpt>
<trkpt lat="40.0728163" lon="-105.230749">
  <ele>1595.75</ele>
  <time>2026-08-28T19:11:03Z</time>
  <course>35.38</course>
  <speed>0.0</speed>
  <fix>3d</fix>
</trkpt>
<trkpt lat="40.0728165" lon="-105.2307491">
  <ele>1595.64</ele>
  <time>2026-08-28T19:11:03Z</time>
  <course>345.82</course>
  <speed>0.01</speed>
  <fix>3d</fix>
</trkpt>
<trkpt lat="40.0728164" lon="-105.230749">
  <ele>1595.75</ele>
  <time>2026-08-28T19:11:03Z</time>
  <course>35.38</course>
  <speed>0.0</speed>
  <fix>3d</fix>
</trkpt>
<trkpt lat="40.0728165" lon="-105.2307491">
  <ele>1595.64</ele>
  <time>2026-08-28T19:11:03Z</time>
  <course>345.75</course>
  <speed>0.02</speed>
  <fix>3d</fix>
</trkpt>
<trkpt lat="40.0728164" lon="-105.230749">
  <ele>1595.74</ele>
  <time>2026-08-28T19:11:03Z</time>
  <course>35.37</course>
  <speed>0.0</speed>
  <fix>3d</fix>
</trkpt>
<trkpt lat="40.0728165" lon="-105.2307491">
  <ele>1595.64</ele>
  <time>2026-08-28T19:11:03Z</time>
  <course>340.78</course>
  <speed>0.02</speed>
  <fix>3d</fix>
</trkpt>
<trkpt lat="40.0728165" lon="-105.230749">
  <ele>1595.74</ele>
  <time>2026-08-28T19:11:03Z</time>
  <course>35.37</course>
  <speed>0.01414213562373095</speed>
  <fix>3d</fix>
</trkpt>
<trkpt lat="40.0728166" lon="-105.2307491">
  <ele>1595.64</ele>
  <time>2026-08-28T19:11:03Z</time>
  <course>335.39</course>
  <speed>0.03</speed>
  <fix>3d</fix>
</trkpt>
<trkpt lat="40.0728165" lon="-105.2307491">
  <ele>1595.74</ele>
  <time>2026-08-28T19:11:03Z</time>
  <course>35.37</course>
  <speed>0.01414213562373095</speed>
  <fix>3d</fix>
</trkpt>
<trkpt lat="40.0728167" lon="-105.2307491">
  <ele>1595.64</ele>
  <time>2026-08-28T19:11:03Z</time>
  <course>331.04</course>
  <speed>0.03</speed>
  <fix>3d</fix>
</trkpt>
<trkpt lat="40.0728166" lon="-105.2307491">
  <ele>1595.74</ele>
  <time>2026-08-28T19:11:03Z</time>
  <course>35.37</course>
  <speed>0.01414213562373095</speed>
  <fix>3d</fix>
</trkpt>
<trkpt lat="40.0728168" lon="-105.2307491">
  <ele>1595.64</ele>
  <time>2026-08-28T19:11:03Z</time>
  <course>328.46</course>
  <speed>0.04</speed>
  <fix>3d</fix>
</trkpt>
<trkpt lat="40.0728167" lon="-105.2307492">
  <ele>1595.73</ele>
  <time>2026-08-28T19:11:03Z</time>
  <course>35.37</course>
  <speed>0.022360679774997897</speed>
  <fix>3d</fix>
</trkpt>
<trkpt lat="40.0728168" lon="-105.2307492">
  <ele>1595.64</ele>
  <time>2026-08-28T19:11:03Z</time>
  <course>326.82</course>
  <speed>0.04</speed>
  <fix>3d</fix>
</trkpt>
<trkpt lat="40.0728167" lon="-105.2307492">
  <ele>1595.72</ele>
  <time>2026-08-28T19:11:03Z</time>
  <course>35.36</course>
  <speed>0.0282842712474619</speed>
  <fix>3d</fix>
</trkpt>
<trkpt lat="40.0728169" lon="-105.2307493">
  <ele>1595.64</ele>
  <time>2026-08-28T19:11:03Z</time>
  <course>325.55</course>
  <speed>0.04</speed>
  <fix>3d</fix>
</trkpt>
<trkpt lat="40.0728168" lon="-105.2307493">
  <ele>1595.72</ele>
  <time>2026-08-28T19:11:03Z</time>
  <course>35.34</course>
  <speed>0.0282842712474619</speed>
  <fix>3d</fix>
</trkpt>
<trkpt lat="40.072817" lon="-105.2307493">
  <ele>1595.64</ele>
  <time>2026-08-28T19:11:03Z</time>
  <course>324.34</course>
  <speed>0.05</speed>
  <fix>3d</fix>
</trkpt>
<trkpt lat="40.0728169" lon="-105.2307494">
  <ele>1595.73</ele>
  <time>2026-08-28T19:11:03Z</time>
  <course>35.35</course>
  <speed>0.0282842712474619</speed>
  <fix>3d</fix>
</trkpt>
<trkpt lat="40.072817" lon="-105.2307494">
  <ele>1595.64</ele>
  <time>2026-08-28T19:11:03Z</time>
  <course>323.1</course>
  <speed>0.05</speed>
  <fix>3d</fix>
</trkpt>
<trkpt lat="40.072817" lon="-105.2307494">
  <ele>1595.73</ele>
  <time>2026-08-28T19:11:03Z</time>
  <course>35.33</course>
  <speed>0.0282842712474619</speed>
  <fix>3d</fix>
</trkpt>
<trkpt lat="40.0728171" lon="-105.2307495">
  <ele>1595.64</ele>
  <time>2026-08-28T19:11:03Z</time>
  <course>322.09</course>
  <speed>0.05</speed>
  <fix>3d</fix>
</trkpt>
<trkpt lat="40.072817" lon="-105.2307495">
  <ele>1595.73</ele>
  <time>2026-08-28T19:11:03Z</time>
  <course>35.36</course>
  <speed>0.0282842712474619</speed>
  <fix>3d</fix>
</trkpt>
<trkpt lat="40.0728172" lon="-105.2307496">
  <ele>1595.65</ele>
  <time>2026-08-28T19:11:03Z</time>
  <course>321.29</course>
  <speed>0.05</speed>
  <fix>3d</fix>
</trkpt>
<trkpt lat="40.0728171" lon="-105.2307496">
  <ele>1595.73</ele>
  <time>2026-08-28T19:11:03Z</time>
  <course>35.37</course>
  <speed>0.0282842712474619</speed>
  <fix>3d</fix>
</trkpt>
<trkpt lat="40.0728173" lon="-105.2307497">
  <ele>1595.65</ele>
  <time>2026-08-28T19:11:03Z</time>
  <course>320.49</course>
  <speed>0.05</speed>
  <fix>3d</fix>
</trkpt>
<trkpt lat="40.0728172" lon="-105.2307497">
  <ele>1595.73</ele>
  <time>2026-08-28T19:11:03Z</time>
  <course>35.37</course>
  <speed>0.03605551275463989</speed>
  <fix>3d</fix>
</trkpt>
<trkpt lat="40.0728174" lon="-105.2307498">
  <ele>1595.65</ele>
  <time>2026-08-28T19:11:03Z</time>
  <course>319.71</course>
  <speed>0.05</speed>
  <fix>3d</fix>
</trkpt>
<trkpt lat="40.0728173" lon="-105.2307498">
  <ele>1595.73</ele>
  <time>2026-08-28T19:11:03Z</time>
  <course>35.33</course>
  <speed>0.03605551275463989</speed>
  <fix>3d</fix>
</trkpt>
<trkpt lat="40.0728174" lon="-105.2307498">
  <ele>1595.66</ele>
  <time>2026-08-28T19:11:03Z</time>
  <course>319.24</course>
  <speed>0.05</speed>
  <fix>3d</fix>
</trkpt>
<trkpt lat="40.0728174" lon="-105.2307499">
  <ele>1595.73</ele>
  <time>2026-08-28T19:11:03Z</time>
  <course>35.33</course>
  <speed>0.05</speed>
  <fix>3d</fix>
</trkpt>
<trkpt lat="40.0728175" lon="-105.2307499">
  <ele>1595.66</ele>
  <time>2026-08-28T19:11:03Z</time>
  <course>318.5</course>
  <speed>0.06</speed>
  <fix>3d</fix>
</trkpt>
<trkpt lat="40.0728175" lon="-105.23075">
  <ele>1595.74</ele>
  <time>2026-08-28T19:11:03Z</time>
  <course>35.35</course>
  <speed>0.05</speed>
  <fix>3d</fix>
</trkpt>
<trkpt lat="40.0728176" lon="-105.2307501">
  <ele>1595.66</ele>
  <time>2026-08-28T19:11:03Z</time>
  <course>317.77</course>
  <speed>0.07</speed>
  <fix>3d</fix>
</trkpt>
<trkpt lat="40.0728176" lon="-105.2307501">
  <ele>1595.74</ele>
  <time>2026-08-28T19:11:03Z</time>
  <course>35.37</course>
  <speed>0.03605551275463989</speed>
  <fix>3d</fix>
</trkpt>
<trkpt lat="40.0728177" lon="-105.2307502">
  <ele>1595.66</ele>
  <time>2026-08-28T19:11:03Z</time>
  <course>316.5</course>
  <speed>0.07</speed>
  <fix>3d</fix>
</trkpt>
<trkpt lat="40.0728176" lon="-105.2307502">
  <ele>1595.75</ele>
  <time>2026-08-28T19:11:03Z</time>
  <course>35.37</course>
  <speed>0.0316227766016838</speed>
  <fix>3d</fix>
</trkpt>
<trkpt lat="40.0728178" lon="-105.2307503">
  <ele>1595.67</ele>
  <time>2026-08-28T19:11:03Z</time>
  <course>315.16</course>
  <speed>0.06</speed>
  <fix>3d</fix>
</trkpt>
<trkpt lat="40.0728177" lon="-105.2307503">
  <ele>1595.75</ele>
  <time>2026-08-28T19:11:03Z</time>
  <course>35.38</course>
  <speed>0.022360679774997897</speed>
  <fix>3d</fix>
</trkpt>
<trkpt lat="40.0728178" lon="-105.2307504">
  <ele>1595.67</ele>
  <time>2026-08-28T19:11:03Z</time>
  <course>315.51</course>
  <speed>0.05</speed>
  <fix>3d</fix>
</trkpt>
<trkpt lat="40.0728178" lon="-105.2307504">
  <ele>1595.75</ele>
  <time>2026-08-28T19:11:03Z</time>
  <course>35.38</course>
  <speed>0.022360679774997897</speed>
  <fix>3d</fix>
</trkpt>
<trkpt lat="40.0728179" lon="-105.2307505">
  <ele>1595.67</ele>
  <time>2026-08-28T19:11:03Z</time>
  <course>317.4</course>
  <speed>0.05</speed>
  <fix>3d</fix>
</trkpt>
<trkpt lat="40.0728178" lon="-105.2307505">
  <ele>1595.75</ele>
  <time>2026-08-28T19:11:03Z</time>
  <course>35.39</course>
  <speed>0.01</speed>
  <fix>3d</fix>
</trkpt>
<trkpt lat="40.072818" lon="-105.2307505">
  <ele>1595.67</ele>
  <time>2026-08-28T19:11:03Z</time>
  <course>320.33</course>
  <speed>0.04</speed>
  <fix>3d</fix>
</trkpt>
<trkpt lat="40.0728179" lon="-105.2307505">
  <ele>1595.75</ele>
  <time>2026-08-28T19:11:03Z</time>
  <course>35.39</course>
  <speed>0.01</speed>
  <fix>3d</fix>
</trkpt>
<trkpt lat="40.0728181" lon="-105.2307506">
  <ele>1595.67</ele>
  <time>2026-08-28T19:11:03Z</time>
  <course>323.61</course>
  <speed>0.04</speed>
  <fix>3d</fix>
</trkpt>
<trkpt lat="40.072818" lon="-105.2307506">
  <ele>1595.75</ele>
  <time>2026-08-28T19:11:03Z</time>
  <course>35.39</course>
  <speed>0.01</speed>
  <fix>3d</fix>
</trkpt>
<trkpt lat="40.0728181" lon="-105.2307507">
  <ele>1595.67</ele>
  <time>2026-08-28T19:11:03Z</time>
  <course>326.44</course>
  <speed>0.03</speed>
  <fix>3d</fix>
</trkpt>
<trkpt lat="40.072818" lon="-105.2307506">
  <ele>1595.75</ele>
  <time>2026-08-28T19:11:03Z</time>
  <course>35.38</course>
  <speed>0.0</speed>
  <fix>3d</fix>
</trkpt>
<trkpt lat="40.0728182" lon="-105.2307507">
  <ele>1595.67</ele>
  <time>2026-08-28T19:11:03Z</time>
  <course>328.61</course>
  <speed>0.03</speed>
  <fix>3d</fix>
</trkpt>
<trkpt lat="40.0728181" lon="-105.2307506">
  <ele>1595.75</ele>
  <time>2026-08-28T19:11:03Z</time>
  <course>35.39</course>
  <speed>0.0</speed>
  <fix>3d</fix>
</trkpt>
<trkpt lat="40.0728182" lon="-105.2307508">
  <ele>1595.66</ele>
  <time>2026-08-28T19:11:03Z</time>
  <course>330.22</course>
  <speed>0.03</speed>
  <fix>3d</fix>
</trkpt>
<trkpt lat="40.0728181" lon="-105.2307507">
  <ele>1595.75</ele>
  <time>2026-08-28T19:11:03Z</time>
  <course>35.39</course>
  <speed>0.0</speed>
  <fix>3d</fix>
</trkpt>
<trkpt lat="40.0728183" lon="-105.2307508">
  <ele>1595.66</ele>
  <time>2026-08-28T19:11:03Z</time>
  <course>331.27</course>
  <speed>0.03</speed>
  <fix>3d</fix>
</trkpt>
<trkpt lat="40.0728182" lon="-105.2307507">
  <ele>1595.76</ele>
  <time>2026-08-28T19:11:03Z</time>
  <course>35.4</course>
  <speed>0.0</speed>
  <fix>3d</fix>
</trkpt>
<trkpt lat="40.0728183" lon="-105.2307508">
  <ele>1595.66</ele>
  <time>2026-08-28T19:11:03Z</time>
  <course>331.82</course>
  <speed>0.03</speed>
  <fix>3d</fix>
</trkpt>
<trkpt lat="40.0728182" lon="-105.2307507">
  <ele>1595.76</ele>
  <time>2026-08-28T19:11:03Z</time>
  <course>35.41</course>
  <speed>0.0</speed>
  <fix>3d</fix>
</trkpt>
<trkpt lat="40.0728184" lon="-105.2307508">
  <ele>1595.66</ele>
  <time>2026-08-28T19:11:03Z</time>
  <course>333.69</course>
  <speed>0.02</speed>
  <fix>3d</fix>
</trkpt>
<trkpt lat="40.0728182" lon="-105.2307507">
  <ele>1595.76</ele>
  <time>2026-08-28T19:11:03Z</time>
  <course>35.39</course>
  <speed>0.0</speed>
  <fix>3d</fix>
</trkpt>
<trkpt lat="40.0728184" lon="-105.2307508">
  <ele>1595.66</ele>
  <time>2026-08-28T19:11:03Z</time>
  <course>336.76</course>
  <speed>0.02</speed>
  <fix>3d</fix>
</trkpt>
<trkpt lat="40.0728183" lon="-105.2307508">
  <ele>1595.76</ele>
  <time>2026-08-28T19:11:03Z</time>
  <course>35.39</course>
  <speed>0.0</speed>
  <fix>3d</fix>
</trkpt>
<trkpt lat="40.0728184" lon="-105.2307509">
  <ele>1595.65</ele>
  <time>2026-08-28T19:11:03Z</time>
  <course>341.23</course>
  <speed>0.02</speed>
  <fix>3d</fix>
</trkpt>
<trkpt lat="40.0728183" lon="-105.2307508">
  <ele>1595.76</ele>
  <time>2026-08-28T19:11:03Z</time>
  <course>35.38</course>
  <speed>0.0</speed>
  <fix>3d</fix>
</trkpt>
<trkpt lat="40.0728185" lon="-105.230751">
  <ele>1595.65</ele>
  <time>2026-08-28T19:11:03Z</time>
  <course>341.47</course>
  <speed>0.02</speed>
  <fix>3d</fix>
</trkpt>
<trkpt lat="40.0728184" lon="-105.2307508">
  <ele>1595.75</ele>
  <time>2026-08-28T19:11:03Z</time>
  <course>35.41</course>
  <speed>0.0</speed>
  <fix>3d</fix>
</trkpt>
<trkpt lat="40.0728186" lon="-105.230751">
  <ele>1595.64</ele>
  <time>2026-08-28T19:11:03Z</time>
  <course>336.39</course>
  <speed>0.03</speed>
  <fix>3d</fix>
</trkpt>
<trkpt lat="40.0728184" lon="-105.2307509">
  <ele>1595.74</ele>
  <time>2026-08-28T19:11:03Z</time>
  <course>35.38</course>
  <speed>0.01414213562373095</speed>
  <fix>3d</fix>
</trkpt>
<trkpt lat="40.0728186" lon="-105.230751">
  <ele>1595.64</ele>
  <time>2026-08-28T19:11:03Z</time>
  <course>331.95</course>
  <speed>0.03</speed>
  <fix>3d</fix>
</trkpt>
<trkpt lat="40.0728185" lon="-105.2307509">
  <ele>1595.74</ele>
  <time>2026-08-28T19:11:03Z</time>
  <course>35.37</course>
  <speed>0.01414213562373095</speed>
  <fix>3d</fix>
</trkpt>
<trkpt lat="40.0728187" lon="-105.230751">
  <ele>1595.64</ele>
  <time>2026-08-28T19:11:03Z</time>
  <course>328.77</course>
  <speed>0.04</speed>
  <fix>3d</fix>
</trkpt>
<trkpt lat="40.0728185" lon="-105.230751">
  <ele>1595.73</ele>
  <time>2026-08-28T19:11:03Z</time>
  <course>35.36</course>
  <speed>0.01414213562373095</speed>
  <fix>3d</fix>
</trkpt>
<trkpt lat="40.0728187" lon="-105.230751">
  <ele>1595.64</ele>
  <time>2026-08-28T19:11:03Z</time>
  <course>326.44</course>
  <speed>0.04</speed>
  <fix>3d</fix>
</trkpt>
<trkpt lat="40.0728186" lon="-105.230751">
  <ele>1595.73</ele>
  <time>2026-08-28T19:11:03Z</time>
  <course>35.36</course>
  <speed>0.022360679774997897</speed>
  <fix>3d</fix>
</trkpt>
<trkpt lat="40.0728188" lon="-105.2307511">
  <ele>1595.63</ele>
  <time>2026-08-28T19:11:03Z</time>
  <course>324.66</course>
  <speed>0.04</speed>
  <fix>3d</fix>
</trkpt>
<trkpt lat="40.0728187" lon="-105.2307511">
  <ele>1595.73</ele>
  <time>2026-08-28T19:11:03Z</time>
  <course>35.34</course>
  <speed>0.022360679774997897</speed>
  <fix>3d</fix>
</trkpt>
<trkpt lat="40.0728189" lon="-105.2307512">
  <ele>1595.63</ele>
  <time>2026-08-28T19:11:03Z</time>
  <course>323.31</course>
  <speed>0.04</speed>
  <fix>3d</fix>
</trkpt>
<trkpt lat="40.0728188" lon="-105.2307512">
  <ele>1595.73</ele>
  <time>2026-08-28T19:11:03Z</time>
  <course>35.35</course>
  <speed>0.022360679774997897</speed>
  <fix>3d</fix>
</trkpt>
<trkpt lat="40.0728189" lon="-105.2307513">
  <ele>1595.63</ele>
  <time>2026-08-28T19:11:03Z</time>
  <course>322.4</course>
  <speed>0.05</speed>
  <fix>3d</fix>
</trkpt>
<trkpt lat="40.0728188" lon="-105.2307512">
  <ele>1595.73</ele>
  <time>2026-08-28T19:11:03Z</time>
  <course>35.35</course>
  <speed>0.022360679774997897</speed>
  <fix>3d</fix>
</trkpt>
<trkpt lat="40.072819" lon="-105.2307513">
  <ele>1595.64</ele>
  <time>2026-08-28T19:11:03Z</time>
  <course>321.52</course>
  <speed>0.05</speed>
  <fix>3d</fix>
</trkpt>
<trkpt lat="40.0728189" lon="-105.2307513">
  <ele>1595.73</ele>
  <time>2026-08-28T19:11:03Z</time>
  <course>35.35</course>
  <speed>0.022360679774997897</speed>
  <fix>3d</fix>
</trkpt>
<trkpt lat="40.0728191" lon="-105.2307514">
  <ele>1595.64</ele>
  <time>2026-08-28T19:11:03Z</time>
  <course>320.78</course>
  <speed>0.05</speed>
  <fix>3d</fix>
</trkpt>
<trkpt lat="40.072819" lon="-105.2307514">
  <ele>1595.73</ele>
  <time>2026-08-28T19:11:03Z</time>
  <course>35.36</course>
  <speed>0.0282842712474619</speed>
  <fix>3d</fix>
</trkpt>
<trkpt lat="40.0728192" lon="-105.2307515">
  <ele>1595.64</ele>
  <time>2026-08-28T19:11:03Z</time>
  <course>320.29</course>
  <speed>0.05</speed>
  <fix>3d</fix>
</trkpt>
<trkpt lat="40.0728191" lon="-105.2307515">
  <ele>1595.73</ele>
  <time>2026-08-28T19:11:03Z</time>
  <course>35.37</course>
  <speed>0.0282842712474619</speed>
  <fix>3d</fix>
</trkpt>
<trkpt lat="40.0728192" lon="-105.2307516">
  <ele>1595.64</ele>
  <time>2026-08-28T19:11:03Z</time>
  <course>319.91</course>
  <speed>0.05</speed>
  <fix>3d</fix>
</trkpt>
<trkpt lat="40.0728192" lon="-105.2307516">
  <ele>1595.73</ele>
  <time>2026-08-28T19:11:03Z</time>
  <course>35.36</course>
  <speed>0.03605551275463989</speed>
  <fix>3d</fix>
</trkpt>
<trkpt lat="40.0728193" lon="-105.2307517">
  <ele>1595.65</ele>
  <time>2026-08-28T19:11:03Z</time>
  <course>319.58</course>
  <speed>0.05</speed>
  <fix>3d</fix>
</trkpt>
<trkpt lat="40.0728192" lon="-105.2307517">
  <ele>1595.73</ele>
  <time>2026-08-28T19:11:03Z</time>
  <course>35.35</course>
  <speed>0.03605551275463989</speed>
  <fix>3d</fix>
</trkpt>
<trkpt lat="40.0728194" lon="-105.2307518">
  <ele>1595.65</ele>
  <time>2026-08-28T19:11:03Z</time>
  <course>319.26</course>
  <speed>0.05</speed>
  <fix>3d</fix>
</trkpt>
<trkpt lat="40.0728193" lon="-105.2307518">
  <ele>1595.73</ele>
  <time>2026-08-28T19:11:03Z</time>
  <course>35.36</course>
  <speed>0.04242640687119285</speed>
  <fix>3d</fix>
</trkpt>
<trkpt lat="40.0728195" lon="-105.2307519">
  <ele>1595.65</ele>
  <time>2026-08-28T19:11:03Z</time>
  <course>319.19</course>
  <speed>0.06</speed>
  <fix>3d</fix>
</trkpt>
<trkpt lat="40.0728194" lon="-105.2307519">
  <ele>1595.73</ele>
  <time>2026-08-28T19:11:03Z</time>
  <course>35.37</course>
  <speed>0.03605551275463989</speed>
  <fix>3d</fix>
</trkpt>
<trkpt lat="40.0728196" lon="-105.230752">
  <ele>1595.65</ele>
  <time>2026-08-28T19:11:03Z</time>
  <course>318.21</course>
  <speed>0.07</speed>
  <fix>3d</fix>
</trkpt>
<trkpt lat="40.0728195" lon="-105.230752">
  <ele>1595.73</ele>
  <time>2026-08-28T19:11:03Z</time>
  <course>35.38</course>
  <speed>0.03605551275463989</speed>
  <fix>3d</fix>
</trkpt>
<trkpt lat="40.0728197" lon="-105.2307521">
  <ele>1595.65</ele>
  <time>2026-08-28T19:11:03Z</time>
  <course>316.51</course>
  <speed>0.06</speed>
  <fix>3d</fix>
</trkpt>
<trkpt lat="40.0728196" lon="-105.2307521">
  <ele>1595.73</ele>
  <time>2026-08-28T19:11:03Z</time>
  <course>35.38</course>
  <speed>0.022360679774997897</speed>
  <fix>3d</fix>
</trkpt>
<trkpt lat="40.0728198" lon="-105.2307522">
  <ele>1595.66</ele>
  <time>2026-08-28T19:11:03Z</time>
  <course>316.0</course>
  <speed>0.05</speed>
  <fix>3d</fix>
</trkpt>
<trkpt lat="40.0728197" lon="-105.2307522">
  <ele>1595.73</ele>
  <time>2026-08-28T19:11:03Z</time>
  <course>35.37</course>
  <speed>0.022360679774997897</speed>
  <fix>3d</fix>
</trkpt>
<trkpt lat="40.0728199" lon="-105.2307523">
  <ele>1595.66</ele>
  <time>2026-08-28T19:11:03Z</time>
  <course>317.34</course>
  <speed>0.05</speed>
  <fix>3d</fix>
</trkpt>
<trkpt lat="40.0728197" lon="-105.2307522">
  <ele>1595.73</ele>
  <time>2026-08-28T19:11:03Z</time>
  <course>35.36</course>
  <speed>0.022360679774997897</speed>
  <fix>3d</fix>
</trkpt>
<trkpt lat="40.0728199" lon="-105.2307524">
  <ele>1595.66</ele>
  <time>2026-08-28T19:11:03Z</time>
  <course>320.06</course>
  <speed>0.04</speed>
  <fix>3d</fix>
</trkpt>
<trkpt lat="40.0728198" lon="-105.2307523">
  <ele>1595.74</ele>
  <time>2026-08-28T19:11:03Z</time>
  <course>35.35</course>
  <speed>0.01414213562373095</speed>
  <fix>3d</fix>
</trkpt>
<trkpt lat="40.07282" lon="-105.2307525">
  <ele>1595.66</ele>
  <time>2026-08-28T19:11:03Z</time>
  <course>322.84</course>
  <speed>0.04</speed>
  <fix>3d</fix>
</trkpt>
<trkpt lat="40.0728199" lon="-105.2307524">
  <ele>1595.74</ele>
  <time>2026-08-28T19:11:03Z</time>
  <course>35.35</course>
  <speed>0.01414213562373095</speed>
  <fix>3d</fix>
</trkpt>
<trkpt lat="40.07282" lon="-105.2307525">
  <ele>1595.67</ele>
  <time>2026-08-28T19:11:03Z</time>
  <course>324.94</course>
  <speed>0.04</speed>
  <fix>3d</fix>
</trkpt>
<trkpt lat="40.0728199" lon="-105.2307524">
  <ele>1595.74</ele>
  <time>2026-08-28T19:11:03Z</time>
  <course>35.36</course>
  <speed>0.01414213562373095</speed>
  <fix>3d</fix>
</trkpt>
<trkpt lat="40.0728201" lon="-105.2307525">
  <ele>1595.67</ele>
  <time>2026-08-28T19:11:03Z</time>
  <course>326.27</course>
  <speed>0.04</speed>
  <fix>3d</fix>
</trkpt>
<trkpt lat="40.07282" lon="-105.2307525">
  <ele>1595.74</ele>
  <time>2026-08-28T19:11:03Z</time>
  <course>35.36</course>
  <speed>0.01414213562373095</speed>
  <fix>3d</fix>
</trkpt>
<trkpt lat="40.0728201" lon="-105.2307526">
  <ele>1595.67</ele>
  <time>2026-08-28T19:11:03Z</time>
  <course>327.02</course>
  <speed>0.04</speed>
  <fix>3d</fix>
</trkpt>
<trkpt lat="40.07282" lon="-105.2307525">
  <ele>1595.75</ele>
  <time>2026-08-28T19:11:03Z</time>
  <course>35.37</course>
  <speed>0.01</speed>
  <fix>3d</fix>
</trkpt>
<trkpt lat="40.0728202" lon="-105.2307527">
  <ele>1595.67</ele>
  <time>2026-08-28T19:11:03Z</time>
  <course>327.57</course>
  <speed>0.04</speed>
  <fix>3d</fix>
</trkpt>
<trkpt lat="40.0728201" lon="-105.2307526">
  <ele>1595.75</ele>
  <time>2026-08-28T19:11:03Z</time>
  <course>35.37</course>
  <speed>0.01</speed>
  <fix>3d</fix>
</trkpt>
<trkpt lat="40.0728202" lon="-105.2307527">
  <ele>1595.67</ele>
  <time>2026-08-28T19:11:03Z</time>
  <course>328.04</course>
  <speed>0.03</speed>
  <fix>3d</fix>
</trkpt>
<trkpt lat="40.0728202" lon="-105.2307526">
  <ele>1595.75</ele>
  <time>2026-08-28T19:11:03Z</time>
  <course>35.38</course>
  <speed>0.0</speed>
  <fix>3d</fix>
</trkpt>
<trkpt lat="40.0728203" lon="-105.2307527">
  <ele>1595.67</ele>
  <time>2026-08-28T19:11:03Z</time>
  <course>328.56</course>
  <speed>0.03</speed>
  <fix>3d</fix>
</trkpt>
<trkpt lat="40.0728202" lon="-105.2307527">
  <ele>1595.75</ele>
  <time>2026-08-28T19:11:03Z</time>
  <course>35.36</course>
  <speed>0.0</speed>
  <fix>3d</fix>
</trkpt>
<trkpt lat="40.0728204" lon="-105.2307527">
  <ele>1595.67</ele>
  <time>2026-08-28T19:11:03Z</time>
  <course>331.64</course>
  <speed>0.02</speed>
  <fix>3d</fix>
</trkpt>
<trkpt lat="40.0728202" lon="-105.2307527">
  <ele>1595.74</ele>
  <time>2026-08-28T19:11:03Z</time>
  <course>35.37</course>
  <speed>0.0</speed>
  <fix>3d</fix>
</trkpt>
<trkpt lat="40.0728204" lon="-105.2307528">
  <ele>1595.67</ele>
  <time>2026-08-28T19:11:03Z</time>
  <course>339.41</course>
  <speed>0.02</speed>
  <fix>3d</fix>
</trkpt>
<trkpt lat="40.0728203" lon="-105.2307527">
  <ele>1595.73</ele>
  <time>2026-08-28T19:11:03Z</time>
  <course>35.36</course>
  <speed>0.0</speed>
  <fix>3d</fix>
</trkpt>
<trkpt lat="40.0728205" lon="-105.2307529">
  <ele>1595.67</ele>
  <time>2026-08-28T19:11:03Z</time>
  <course>340.89</course>
  <speed>0.02</speed>
  <fix>3d</fix>
</trkpt>
<trkpt lat="40.0728203" lon="-105.2307527">
  <ele>1595.73</ele>
  <time>2026-08-28T19:11:03Z</time>
  <course>35.35</course>
  <speed>0.01</speed>
  <fix>3d</fix>
</trkpt>
<trkpt lat="40.0728205" lon="-105.2307529">
  <ele>1595.67</ele>
  <time>2026-08-28T19:11:03Z</time>
  <course>337.63</course>
  <speed>0.03</speed>
  <fix>3d</fix>
</trkpt>
<trkpt lat="40.0728204" lon="-105.2307528">
  <ele>1595.73</ele>
  <time>2026-08-28T19:11:03Z</time>
  <course>35.36</course>
  <speed>0.01414213562373095</speed>
  <fix>3d</fix>
</trkpt>
<trkpt lat="40.0728206" lon="-105.2307529">
  <ele>1595.67</ele>
  <time>2026-08-28T19:11:03Z</time>
  <course>333.97</course>
  <speed>0.03</speed>
  <fix>3d</fix>
</trkpt>
<trkpt lat="40.0728205" lon="-105.2307528">
  <ele>1595.74</ele>
  <time>2026-08-28T19:11:03Z</time>
  <course>35.35</course>
  <speed>0.01414213562373095</speed>
  <fix>3d</fix>
</trkpt>
<trkpt lat="40.0728206" lon="-105.2307529">
  <ele>1595.67</ele>
  <time>2026-08-28T19:11:03Z</time>
  <course>330.66</course>
  <speed>0.04</speed>
  <fix>3d</fix>
</trkpt>
<trkpt lat="40.0728205" lon="-105.2307529">
  <ele>1595.74</ele>
  <time>2026-08-28T19:11:03Z</time>
  <course>35.35</course>
  <speed>0.01414213562373095</speed>
  <fix>3d</fix>
</trkpt>
<trkpt lat="40.0728207" lon="-105.2307529">
  <ele>1595.67</ele>
  <time>2026-08-28T19:11:03Z</time>
  <course>327.92</course>
  <speed>0.04</speed>
  <fix>3d</fix>
</trkpt>
<trkpt lat="40.0728206" lon="-105.2307529">
  <ele>1595.75</ele>
  <time>2026-08-28T19:11:03Z</time>
  <course>35.36</course>
  <speed>0.022360679774997897</speed>
  <fix>3d</fix>
</trkpt>
<trkpt lat="40.0728207" lon="-105.230753">
  <ele>1595.68</ele>
  <time>2026-08-28T19:11:03Z</time>
  <course>326.26</course>
  <speed>0.04</speed>
  <fix>3d</fix>
</trkpt>
<trkpt lat="40.0728207" lon="-105.230753">
  <ele>1595.75</ele>
  <time>2026-08-28T19:11:03Z</time>
  <course>35.36</course>
  <speed>0.0282842712474619</speed>
  <fix>3d</fix>
</trkpt>
<trkpt lat="40.0728208" lon="-105.2307531">
  <ele>1595.68</ele>
  <time>2026-08-28T19:11:03Z</time>
  <course>325.38</course>
  <speed>0.04</speed>
  <fix>3d</fix>
</trkpt>
<trkpt lat="40.0728207" lon="-105.2307531">
  <ele>1595.74</ele>
  <time>2026-08-28T19:11:03Z</time>
  <course>35.37</course>
  <speed>0.0282842712474619</speed>
  <fix>3d</fix>
</trkpt>
<trkpt lat="40.0728209" lon="-105.2307532">
  <ele>1595.68</ele>
  <time>2026-08-28T19:11:03Z</time>
  <course>324.34</course>
  <speed>0.05</speed>
  <fix>3d</fix>
</trkpt>
<trkpt lat="40.0728208" lon="-105.2307532">
  <ele>1595.75</ele>
  <time>2026-08-28T19:11:03Z</time>
  <course>35.37</course>
  <speed>0.0282842712474619</speed>
  <fix>3d</fix>
</trkpt>
<trkpt lat="40.072821" lon="-105.2307532">
  <ele>1595.68</ele>
  <time>2026-08-28T19:11:03Z</time>
  <course>323.18</course>
  <speed>0.05</speed>
  <fix>3d</fix>
</trkpt>
<trkpt lat="40.0728209" lon="-105.2307532">
  <ele>1595.75</ele>
  <time>2026-08-28T19:11:03Z</time>
  <course>35.37</course>
  <speed>0.0282842712474619</speed>
  <fix>3d</fix>
</trkpt>
<trkpt lat="40.0728211" lon="-105.2307533">
  <ele>1595.68</ele>
  <time>2026-08-28T19:11:03Z</time>
  <course>322.36</course>
  <speed>0.05</speed>
  <fix>3d</fix>
</trkpt>
<trkpt lat="40.072821" lon="-105.2307533">
  <ele>1595.75</ele>
  <time>2026-08-28T19:11:03Z</time>
  <course>35.38</course>
  <speed>0.0282842712474619</speed>
  <fix>3d</fix>
</trkpt>
<trkpt lat="40.0728211" lon="-105.2307534">
  <ele>1595.68</ele>
  <time>2026-08-28T19:11:03Z</time>
  <course>322.04</course>
  <speed>0.05</speed>
  <fix>3d</fix>
</trkpt>
<trkpt lat="40.0728211" lon="-105.2307534">
  <ele>1595.75</ele>
  <time>2026-08-28T19:11:03Z</time>
  <course>35.4</course>
  <speed>0.0282842712474619</speed>
  <fix>3d</fix>
</trkpt>
<trkpt lat="40.0728212" lon="-105.2307535">
  <ele>1595.68</ele>
  <time>2026-08-28T19:11:03Z</time>
  <course>321.79</course>
  <speed>0.05</speed>
  <fix>3d</fix>
</trkpt>
<trkpt lat="40.0728211" lon="-105.2307535">
  <ele>1595.75</ele>
  <time>2026-08-28T19:11:03Z</time>
  <course>35.39</course>
  <speed>0.03605551275463989</speed>
  <fix>3d</fix>
</trkpt>
<trkpt lat="40.0728213" lon="-105.2307536">
  <ele>1595.68</ele>
  <time>2026-08-28T19:11:03Z</time>
  <course>321.44</course>
  <speed>0.05</speed>
  <fix>3d</fix>
</trkpt>
<trkpt lat="40.0728212" lon="-105.2307536">
  <ele>1595.74</ele>
  <time>2026-08-28T19:11:03Z</time>
  <course>35.38</course>
  <speed>0.03605551275463989</speed>
  <fix>3d</fix>
</trkpt>
<trkpt lat="40.0728214" lon="-105.2307536">
  <ele>1595.68</ele>
  <time>2026-08-28T19:11:03Z</time>
  <course>321.35</course>
  <speed>0.05</speed>
  <fix>3d</fix>
</trkpt>
<trkpt lat="40.0728213" lon="-105.2307537">
  <ele>1595.74</ele>
  <time>2026-08-28T19:11:03Z</time>
  <course>35.38</course>
  <speed>0.04242640687119285</speed>
  <fix>3d</fix>
</trkpt>
<trkpt lat="40.0728215" lon="-105.2307537">
  <ele>1595.67</ele>
  <time>2026-08-28T19:11:03Z</time>
  <course>320.79</course>
  <speed>0.06</speed>
  <fix>3d</fix>
</trkpt>
<trkpt lat="40.0728214" lon="-105.2307538">
  <ele>1595.74</ele>
  <time>2026-08-28T19:11:03Z</time>
  <course>35.38</course>
  <speed>0.03605551275463989</speed>
  <fix>3d</fix>
</trkpt>
<trkpt lat="40.0728216" lon="-105.2307539">
  <ele>1595.67</ele>
  <time>2026-08-28T19:11:03Z</time>
  <course>319.7</course>
  <speed>0.07</speed>
  <fix>3d</fix>
</trkpt>
<trkpt lat="40.0728215" lon="-105.2307539">
  <ele>1595.73</ele>
  <time>2026-08-28T19:11:03Z</time>
  <course>35.37</course>
  <speed>0.03605551275463989</speed>
  <fix>3d</fix>
</trkpt>
<trkpt lat="40.0728217" lon="-105.230754">
  <ele>1595.67</ele>
  <time>2026-08-28T19:11:03Z</time>
  <course>318.21</course>
  <speed>0.06</speed>
  <fix>3d</fix>
</trkpt>
<trkpt lat="40.0728216" lon="-105.230754">
  <ele>1595.73</ele>
  <time>2026-08-28T19:11:03Z</time>
  <course>35.36</course>
  <speed>0.022360679774997897</speed>
  <fix>3d</fix>
</trkpt>
<trkpt lat="40.0728218" lon="-105.2307541">
  <ele>1595.67</ele>
  <time>2026-08-28T19:11:03Z</time>
  <course>317.13</course>
  <speed>0.06</speed>
  <fix>3d</fix>
</trkpt>
<trkpt lat="40.0728217" lon="-105.2307541">
  <ele>1595.73</ele>
  <time>2026-08-28T19:11:03Z</time>
  <course>35.36</course>
  <speed>0.022360679774997897</speed>
  <fix>3d</fix>
</trkpt>
<trkpt lat="40.0728218" lon="-105.2307541">
  <ele>1595.67</ele>
  <time>2026-08-28T19:11:03Z</time>
  <course>317.8</course>
  <speed>0.05</speed>
  <fix>3d</fix>
</trkpt>
<trkpt lat="40.0728217" lon="-105.2307541">
  <ele>1595.73</ele>
  <time>2026-08-28T19:11:03Z</time>
  <course>35.36</course>
  <speed>0.01414213562373095</speed>
  <fix>3d</fix>
</trkpt>
<trkpt lat="40.0728219" lon="-105.2307542">
  <ele>1595.67</ele>
  <time>2026-08-28T19:11:03Z</time>
  <course>320.19</course>
  <speed>0.04</speed>
  <fix>3d</fix>
</trkpt>
<trkpt lat="40.0728218" lon="-105.2307542">
  <ele>1595.73</ele>
  <time>2026-08-28T19:11:03Z</time>
  <course>35.35</course>
  <speed>0.01414213562373095</speed>
  <fix>3d</fix>
</trkpt>
<trkpt lat="40.0728219" lon="-105.2307543">
  <ele>1595.68</ele>
  <time>2026-08-28T19:11:03Z</time>
  <course>323.18</course>
  <speed>0.04</speed>
  <fix>3d</fix>
</trkpt>
<trkpt lat="40.0728218" lon="-105.2307542">
  <ele>1595.74</ele>
  <time>2026-08-28T19:11:03Z</time>
  <course>35.37</course>
  <speed>0.01414213562373095</speed>
  <fix>3d</fix>
</trkpt>
<trkpt lat="40.072822" lon="-105.2307544">
  <ele>1595.68</ele>
  <time>2026-08-28T19:11:03Z</time>
  <course>325.55</course>
  <speed>0.03</speed>
  <fix>3d</fix>
</trkpt>
<trkpt lat="40.0728219" lon="-105.2307543">
  <ele>1595.74</ele>
  <time>2026-08-28T19:11:03Z</time>
  <course>35.37</course>
  <speed>0.01414213562373095</speed>
  <fix>3d</fix>
</trkpt>
<trkpt lat="40.0728221" lon="-105.2307544">
  <ele>1595.68</ele>
  <time>2026-08-28T19:11:03Z</time>
  <course>327.02</course>
  <speed>0.03</speed>
  <fix>3d</fix>
</trkpt>
<trkpt lat="40.0728219" lon="-105.2307543">
  <ele>1595.74</ele>
  <time>2026-08-28T19:11:03Z</time>
  <course>35.36</course>
  <speed>0.01414213562373095</speed>
  <fix>3d</fix>
</trkpt>
<trkpt lat="40.0728222" lon="-105.2307544">
  <ele>1595.69</ele>
  <time>2026-08-28T19:11:03Z</time>
  <course>327.88</course>
  <speed>0.03</speed>
  <fix>3d</fix>
</trkpt>
<trkpt lat="40.072822" lon="-105.2307544">
  <ele>1595.74</ele>
  <time>2026-08-28T19:11:03Z</time>
  <course>35.36</course>
  <speed>0.01414213562373095</speed>
  <fix>3d</fix>
</trkpt>
<trkpt lat="40.0728222" lon="-105.2307545">
  <ele>1595.69</ele>
  <time>2026-08-28T19:11:03Z</time>
  <course>328.24</course>
  <speed>0.03</speed>
  <fix>3d</fix>
</trkpt>
<trkpt lat="40.0728221" lon="-105.2307544">
  <ele>1595.74</ele>
  <time>2026-08-28T19:11:03Z</time>
  <course>35.36</course>
  <speed>0.01</speed>
  <fix>3d</fix>
</trkpt>
<trkpt lat="40.0728223" lon="-105.2307546">
  <ele>1595.69</ele>
  <time>2026-08-28T19:11:04Z</time>
  <course>328.23</course>
  <speed>0.04</speed>
  <fix>3d</fix>
</trkpt>
<trkpt lat="40.0728221" lon="-105.2307545">
  <ele>1595.74</ele>
  <time>2026-08-28T19:11:04Z</time>
  <course>35.36</course>
  <speed>0.01</speed>
  <fix>3d</fix>
</trkpt>
<trkpt lat="40.0728223" lon="-105.2307546">
  <ele>1595.69</ele>
  <time>2026-08-28T19:11:04Z</time>
  <course>328.05</course>
  <speed>0.04</speed>
  <fix>3d</fix>
</trkpt>
<trkpt lat="40.0728222" lon="-105.2307545">
  <ele>1595.75</ele>
  <time>2026-08-28T19:11:04Z</time>
  <course>35.37</course>
  <speed>0.0</speed>
  <fix>3d</fix>
</trkpt>
<trkpt lat="40.0728224" lon="-105.2307546">
  <ele>1595.69</ele>
  <time>2026-08-28T19:11:04Z</time>
  <course>330.66</course>
  <speed>0.03</speed>
  <fix>3d</fix>
</trkpt>
<trkpt lat="40.0728222" lon="-105.2307545">
  <ele>1595.74</ele>
  <time>2026-08-28T19:11:04Z</time>
  <course>35.38</course>
  <speed>0.0</speed>
  <fix>3d</fix>
</trkpt>
<trkpt lat="40.0728224" lon="-105.2307546">
  <ele>1595.69</ele>
  <time>2026-08-28T19:11:04Z</time>
  <course>337.16</course>
  <speed>0.02</speed>
  <fix>3d</fix>
</trkpt>
<trkpt lat="40.0728223" lon="-105.2307546">
  <ele>1595.75</ele>
  <time>2026-08-28T19:11:04Z</time>
  <course>35.38</course>
  <speed>0.0</speed>
  <fix>3d</fix>
</trkpt>
<trkpt lat="40.0728225" lon="-105.2307546">
  <ele>1595.7</ele>
  <time>2026-08-28T19:11:04Z</time>
  <course>338.68</course>
  <speed>0.02</speed>
  <fix>3d</fix>
</trkpt>
<trkpt lat="40.0728223" lon="-105.2307546">
  <ele>1595.75</ele>
  <time>2026-08-28T19:11:04Z</time>
  <course>35.36</course>
  <speed>0.01</speed>
  <fix>3d</fix>
</trkpt>
<trkpt lat="40.0728225" lon="-105.2307547">
  <ele>1595.69</ele>
  <time>2026-08-28T19:11:04Z</time>
  <course>336.97</course>
  <speed>0.03</speed>
  <fix>3d</fix>
</trkpt>
<trkpt lat="40.0728224" lon="-105.2307546">
  <ele>1595.75</ele>
  <time>2026-08-28T19:11:04Z</time>
  <course>35.36</course>
  <speed>0.01414213562373095</speed>
  <fix>3d</fix>
</trkpt>
<trkpt lat="40.0728225" lon="-105.2307548">
  <ele>1595.69</ele>
  <time>2026-08-28T19:11:04Z</time>
  <course>333.94</course>
  <speed>0.03</speed>
  <fix>3d</fix>
</trkpt>
<trkpt lat="40.0728225" lon="-105.2307547">
  <ele>1595.75</ele>
  <time>2026-08-28T19:11:04Z</time>
  <course>35.37</course>
  <speed>0.01414213562373095</speed>
  <fix>3d</fix>
</trkpt>
<trkpt lat="40.0728226" lon="-105.2307548">
  <ele>1595.69</ele>
  <time>2026-08-28T19:11:04Z</time>
  <course>331.17</course>
  <speed>0.04</speed>
  <fix>3d</fix>
</trkpt>
<trkpt lat="40.0728225" lon="-105.2307547">
  <ele>1595.74</ele>
  <time>2026-08-28T19:11:04Z</time>
  <course>35.37</course>
  <speed>0.01414213562373095</speed>
  <fix>3d</fix>
</trkpt>
<trkpt lat="40.0728227" lon="-105.2307548">
  <ele>1595.69</ele>
  <time>2026-08-28T19:11:04Z</time>
  <course>328.77</course>
  <speed>0.04</speed>
  <fix>3d</fix>
</trkpt>
<trkpt lat="40.0728226" lon="-105.2307548">
  <ele>1595.74</ele>
  <time>2026-08-28T19:11:04Z</time>
  <course>35.37</course>
  <speed>0.0282842712474619</speed>
  <fix>3d</fix>
</trkpt>
<trkpt lat="40.0728228" lon="-105.2307549">
  <ele>1595.69</ele>
  <time>2026-08-28T19:11:04Z</time>
  <course>327.15</course>
  <speed>0.04</speed>
  <fix>3d</fix>
</trkpt>
<trkpt lat="40.0728227" lon="-105.2307549">
  <ele>1595.75</ele>
  <time>2026-08-28T19:11:04Z</time>
  <course>35.37</course>
  <speed>0.0282842712474619</speed>
  <fix>3d</fix>
</trkpt>
<trkpt lat="40.0728228" lon="-105.230755">
  <ele>1595.69</ele>
  <time>2026-08-28T19:11:04Z</time>
  <course>326.22</course>
  <speed>0.05</speed>
  <fix>3d</fix>
</trkpt>
<trkpt lat="40.0728228" lon="-105.2307549">
  <ele>1595.75</ele>
  <time>2026-08-28T19:11:04Z</time>
  <course>35.38</course>
  <speed>0.0282842712474619</speed>
  <fix>3d</fix>
</trkpt>
<trkpt lat="40.0728229" lon="-105.230755">
  <ele>1595.69</ele>
  <time>2026-08-28T19:11:04Z</time>
  <course>325.46</course>
  <speed>0.05</speed>
  <fix>3d</fix>
</trkpt>
<trkpt lat="40.0728228" lon="-105.230755">
  <ele>1595.76</ele>
  <time>2026-08-28T19:11:04Z</time>
  <course>35.39</course>
  <speed>0.0282842712474619</speed>
  <fix>3d</fix>
</trkpt>
<trkpt lat="40.072823" lon="-105.2307551">
  <ele>1595.69</ele>
  <time>2026-08-28T19:11:04Z</time>
  <course>324.67</course>
  <speed>0.05</speed>
  <fix>3d</fix>
</trkpt>
<trkpt lat="40.0728229" lon="-105.2307551">
  <ele>1595.76</ele>
  <time>2026-08-28T19:11:04Z</time>
  <course>35.38</course>
  <speed>0.0282842712474619</speed>
  <fix>3d</fix>
</trkpt>
<trkpt lat="40.0728231" lon="-105.2307552">
  <ele>1595.69</ele>
  <time>2026-08-28T19:11:04Z</time>
  <course>324.03</course>
  <speed>0.05</speed>
  <fix>3d</fix>
</trkpt>
<trkpt lat="40.072823" lon="-105.2307552">
  <ele>1595.76</ele>
  <time>2026-08-28T19:11:04Z</time>
  <course>35.41</course>
  <speed>0.0282842712474619</speed>
  <fix>3d</fix>
</trkpt>
<trkpt lat="40.0728232" lon="-105.2307553">
  <ele>1595.69</ele>
  <time>2026-08-28T19:11:04Z</time>
  <course>323.67</course>
  <speed>0.05</speed>
  <fix>3d</fix>
</trkpt>
<trkpt lat="40.0728231" lon="-105.2307553">
  <ele>1595.76</ele>
  <time>2026-08-28T19:11:04Z</time>
  <course>35.39</course>
  <speed>0.0282842712474619</speed>
  <fix>3d</fix>
</trkpt>
<trkpt lat="40.0728232" lon="-105.2307553">
  <ele>1595.69</ele>
  <time>2026-08-28T19:11:04Z</time>
  <course>323.39</course>
  <speed>0.05</speed>
  <fix>3d</fix>
</trkpt>
<trkpt lat="40.0728232" lon="-105.2307553">
  <ele>1595.76</ele>
  <time>2026-08-28T19:11:04Z</time>
  <course>35.39</course>
  <speed>0.0282842712474619</speed>
  <fix>3d</fix>
</trkpt>
<trkpt lat="40.0728233" lon="-105.2307554">
  <ele>1595.68</ele>
  <time>2026-08-28T19:11:04Z</time>
  <course>323.1</course>
  <speed>0.05</speed>
  <fix>3d</fix>
</trkpt>
<trkpt lat="40.0728233" lon="-105.2307554">
  <ele>1595.76</ele>
  <time>2026-08-28T19:11:04Z</time>
  <course>35.41</course>
  <speed>0.0282842712474619</speed>
  <fix>3d</fix>
</trkpt>
<trkpt lat="40.0728234" lon="-105.2307555">
  <ele>1595.68</ele>
  <time>2026-08-28T19:11:04Z</time>
  <course>322.93</course>
  <speed>0.05</speed>
  <fix>3d</fix>
</trkpt>
<trkpt lat="40.0728233" lon="-105.2307555">
  <ele>1595.76</ele>
  <time>2026-08-28T19:11:04Z</time>
  <course>35.39</course>
  <speed>0.05</speed>
  <fix>3d</fix>
</trkpt>
<trkpt lat="40.0728235" lon="-105.2307556">
  <ele>1595.68</ele>
  <time>2026-08-28T19:11:04Z</time>
  <course>322.23</course>
  <speed>0.06</speed>
  <fix>3d</fix>
</trkpt>
<trkpt lat="40.0728235" lon="-105.2307556">
  <ele>1595.76</ele>
  <time>2026-08-28T19:11:04Z</time>
  <course>35.41</course>
  <speed>0.05</speed>
  <fix>3d</fix>
</trkpt>
<trkpt lat="40.0728236" lon="-105.2307557">
  <ele>1595.67</ele>
  <time>2026-08-28T19:11:04Z</time>
  <course>321.81</course>
  <speed>0.07</speed>
  <fix>3d</fix>
</trkpt>
<trkpt lat="40.0728235" lon="-105.2307557">
  <ele>1595.75</ele>
  <time>2026-08-28T19:11:04Z</time>
  <course>35.39</course>
  <speed>0.03605551275463989</speed>
  <fix>3d</fix>
</trkpt>
<trkpt lat="40.0728237" lon="-105.2307558">
  <ele>1595.67</ele>
  <time>2026-08-28T19:11:04Z</time>
  <course>320.64</course>
  <speed>0.07</speed>
  <fix>3d</fix>
</trkpt>
<trkpt lat="40.0728236" lon="-105.2307558">
  <ele>1595.74</ele>
  <time>2026-08-28T19:11:04Z</time>
  <course>35.37</course>
  <speed>0.03605551275463989</speed>
  <fix>3d</fix>
</trkpt>
<trkpt lat="40.0728238" lon="-105.2307559">
  <ele>1595.66</ele>
  <time>2026-08-28T19:11:04Z</time>
  <course>318.73</course>
  <speed>0.06</speed>
  <fix>3d</fix>
</trkpt>
<trkpt lat="40.0728237" lon="-105.2307559">
  <ele>1595.74</ele>
  <time>2026-08-28T19:11:04Z</time>
  <course>35.37</course>
  <speed>0.022360679774997897</speed>
  <fix>3d</fix>
</trkpt>
<trkpt lat="40.0728239" lon="-105.230756">
  <ele>1595.66</ele>
  <time>2026-08-28T19:11:04Z</time>
  <course>318.63</course>
  <speed>0.05</speed>
  <fix>3d</fix>
</trkpt>
<trkpt lat="40.0728238" lon="-105.230756">
  <ele>1595.74</ele>
  <time>2026-08-28T19:11:04Z</time>
  <course>35.36</course>
  <speed>0.01414213562373095</speed>
  <fix>3d</fix>
</trkpt>
<trkpt lat="40.072824" lon="-105.2307561">
  <ele>1595.66</ele>
  <time>2026-08-28T19:11:04Z</time>
  <course>320.15</course>
  <speed>0.05</speed>
  <fix>3d</fix>
</trkpt>
<trkpt lat="40.0728239" lon="-105.2307561">
  <ele>1595.74</ele>
  <time>2026-08-28T19:11:04Z</time>
  <course>35.36</course>
  <speed>0.01414213562373095</speed>
  <fix>3d</fix>
</trkpt>
<trkpt lat="40.072824" lon="-105.2307562">
  <ele>1595.66</ele>
  <time>2026-08-28T19:11:04Z</time>
  <course>322.68</course>
  <speed>0.04</speed>
  <fix>3d</fix>
</trkpt>
<trkpt lat="40.0728239" lon="-105.2307561">
  <ele>1595.75</ele>
  <time>2026-08-28T19:11:04Z</time>
  <course>35.37</course>
  <speed>0.01414213562373095</speed>
  <fix>3d</fix>
</trkpt>
<trkpt lat="40.0728241" lon="-105.2307562">
  <ele>1595.66</ele>
  <time>2026-08-28T19:11:04Z</time>
  <course>325.43</course>
  <speed>0.04</speed>
  <fix>3d</fix>
</trkpt>
<trkpt lat="40.072824" lon="-105.2307562">
  <ele>1595.75</ele>
  <time>2026-08-28T19:11:04Z</time>
  <course>35.38</course>
  <speed>0.01</speed>
  <fix>3d</fix>
</trkpt>
<trkpt lat="40.0728241" lon="-105.2307563">
  <ele>1595.66</ele>
  <time>2026-08-28T19:11:04Z</time>
  <course>327.59</course>
  <speed>0.03</speed>
  <fix>3d</fix>
</trkpt>
<trkpt lat="40.072824" lon="-105.2307562">
  <ele>1595.75</ele>
  <time>2026-08-28T19:11:04Z</time>
  <course>35.37</course>
  <speed>0.0</speed>
  <fix>3d</fix>
</trkpt>
<trkpt lat="40.0728242" lon="-105.2307563">
  <ele>1595.65</ele>
  <time>2026-08-28T19:11:04Z</time>
  <course>329.02</course>
  <speed>0.03</speed>
  <fix>3d</fix>
</trkpt>
<trkpt lat="40.0728241" lon="-105.2307563">
  <ele>1595.76</ele>
  <time>2026-08-28T19:11:04Z</time>
  <course>35.39</course>
  <speed>0.0</speed>
  <fix>3d</fix>
</trkpt>
<trkpt lat="40.0728243" lon="-105.2307563">
  <ele>1595.65</ele>
  <time>2026-08-28T19:11:04Z</time>
  <course>329.91</course>
  <speed>0.03</speed>
  <fix>3d</fix>
</trkpt>
<trkpt lat="40.0728241" lon="-105.2307563">
  <ele>1595.76</ele>
  <time>2026-08-28T19:11:04Z</time>
  <course>35.4</course>
  <speed>0.0</speed>
  <fix>3d</fix>
</trkpt>
<trkpt lat="40.0728243" lon="-105.2307563">
  <ele>1595.65</ele>
  <time>2026-08-28T19:11:04Z</time>
  <course>330.43</course>
  <speed>0.03</speed>
  <fix>3d</fix>
</trkpt>
<trkpt lat="40.0728242" lon="-105.2307563">
  <ele>1595.76</ele>
  <time>2026-08-28T19:11:04Z</time>
  <course>35.4</course>
  <speed>0.0</speed>
  <fix>3d</fix>
</trkpt>
<trkpt lat="40.0728243" lon="-105.2307564">
  <ele>1595.64</ele>
  <time>2026-08-28T19:11:04Z</time>
  <course>330.98</course>
  <speed>0.03</speed>
  <fix>3d</fix>
</trkpt>
<trkpt lat="40.0728242" lon="-105.2307564">
  <ele>1595.75</ele>
  <time>2026-08-28T19:11:04Z</time>
  <course>35.4</course>
  <speed>0.0</speed>
  <fix>3d</fix>
</trkpt>
<trkpt lat="40.0728244" lon="-105.2307565">
  <ele>1595.64</ele>
  <time>2026-08-28T19:11:04Z</time>
  <course>331.89</course>
  <speed>0.02</speed>
  <fix>3d</fix>
</trkpt>
<trkpt lat="40.0728243" lon="-105.2307564">
  <ele>1595.74</ele>
  <time>2026-08-28T19:11:04Z</time>
  <course>35.37</course>
  <speed>0.0</speed>
  <fix>3d</fix>
</trkpt>
<trkpt lat="40.0728244" lon="-105.2307565">
  <ele>1595.64</ele>
  <time>2026-08-28T19:11:04Z</time>
  <course>335.35</course>
  <speed>0.02</speed>
  <fix>3d</fix>
</trkpt>
<trkpt lat="40.0728243" lon="-105.2307564">
  <ele>1595.74</ele>
  <time>2026-08-28T19:11:04Z</time>
  <course>35.37</course>
  <speed>0.0</speed>
  <fix>3d</fix>
</trkpt>
<trkpt lat="40.0728244" lon="-105.2307565">
  <ele>1595.63</ele>
  <time>2026-08-28T19:11:04Z</time>
  <course>344.64</course>
  <speed>0.01</speed>
  <fix>3d</fix>
</trkpt>
<trkpt lat="40.0728243" lon="-105.2307564">
  <ele>1595.74</ele>
  <time>2026-08-28T19:11:04Z</time>
  <course>35.37</course>
  <speed>0.0</speed>
  <fix>3d</fix>
</trkpt>
<trkpt lat="40.0728245" lon="-105.2307565">
  <ele>1595.63</ele>
  <time>2026-08-28T19:11:04Z</time>
  <course>345.7</course>
  <speed>0.02</speed>
  <fix>3d</fix>
</trkpt>
<trkpt lat="40.0728244" lon="-105.2307564">
  <ele>1595.74</ele>
  <time>2026-08-28T19:11:04Z</time>
  <course>35.36</course>
  <speed>0.0</speed>
  <fix>3d</fix>
</trkpt>
<trkpt lat="40.0728245" lon="-105.2307565">
  <ele>1595.63</ele>
  <time>2026-08-28T19:11:04Z</time>
  <course>340.52</course>
  <speed>0.02</speed>
  <fix>3d</fix>
</trkpt>
<trkpt lat="40.0728244" lon="-105.2307564">
  <ele>1595.74</ele>
  <time>2026-08-28T19:11:04Z</time>
  <course>35.35</course>
  <speed>0.01</speed>
  <fix>3d</fix>
</trkpt>
<trkpt lat="40.0728246" lon="-105.2307565">
  <ele>1595.63</ele>
  <time>2026-08-28T19:11:04Z</time>
  <course>336.35</course>
  <speed>0.03</speed>
  <fix>3d</fix>
</trkpt>
<trkpt lat="40.0728245" lon="-105.2307565">
  <ele>1595.73</ele>
  <time>2026-08-28T19:11:04Z</time>
  <course>35.35</course>
  <speed>0.01414213562373095</speed>
  <fix>3d</fix>
</trkpt>
<trkpt lat="40.0728247" lon="-105.2307565">
  <ele>1595.63</ele>
  <time>2026-08-28T19:11:04Z</time>
  <course>333.51</course>
  <speed>0.03</speed>
  <fix>3d</fix>
</trkpt>
<trkpt lat="40.0728245" lon="-105.2307565">
  <ele>1595.73</ele>
  <time>2026-08-28T19:11:04Z</time>
  <course>35.35</course>
  <speed>0.01414213562373095</speed>
  <fix>3d</fix>
</trkpt>
<trkpt lat="40.0728247" lon="-105.2307566">
  <ele>1595.63</ele>
  <time>2026-08-28T19:11:04Z</time>
  <course>331.51</course>
  <speed>0.04</speed>
  <fix>3d</fix>
</trkpt>
<trkpt lat="40.0728246" lon="-105.2307566">
  <ele>1595.73</ele>
  <time>2026-08-28T19:11:04Z</time>
  <course>35.35</course>
  <speed>0.022360679774997897</speed>
  <fix>3d</fix>
</trkpt>
<trkpt lat="40.0728248" lon="-105.2307567">
  <ele>1595.63</ele>
  <time>2026-08-28T19:11:04Z</time>
  <course>330.09</course>
  <speed>0.04</speed>
  <fix>3d</fix>
</trkpt>
<trkpt lat="40.0728247" lon="-105.2307566">
  <ele>1595.73</ele>
  <time>2026-08-28T19:11:04Z</time>
  <course>35.36</course>
  <speed>0.0282842712474619</speed>
  <fix>3d</fix>
</trkpt>
<trkpt lat="40.0728249" lon="-105.2307567">
  <ele>1595.63</ele>
  <time>2026-08-28T19:11:04Z</time>
  <course>328.94</course>
  <speed>0.05</speed>
  <fix>3d</fix>
</trkpt>
<trkpt lat="40.0728248" lon="-105.2307567">
  <ele>1595.74</ele>
  <time>2026-08-28T19:11:04Z</time>
  <course>35.35</course>
  <speed>0.0282842712474619</speed>
  <fix>3d</fix>
</trkpt>
<trkpt lat="40.0728249" lon="-105.2307568">
  <ele>1595.63</ele>
  <time>2026-08-28T19:11:04Z</time>
  <course>327.98</course>
  <speed>0.05</speed>
  <fix>3d</fix>
</trkpt>
<trkpt lat="40.0728249" lon="-105.2307568">
  <ele>1595.74</ele>
  <time>2026-08-28T19:11:04Z</time>
  <course>35.35</course>
  <speed>0.0282842712474619</speed>
  <fix>3d</fix>
</trkpt>
<trkpt lat="40.072825" lon="-105.2307568">
  <ele>1595.63</ele>
  <time>2026-08-28T19:11:04Z</time>
  <course>327.29</course>
  <speed>0.05</speed>
  <fix>3d</fix>
</trkpt>
<trkpt lat="40.072825" lon="-105.2307568">
  <ele>1595.74</ele>
  <time>2026-08-28T19:11:04Z</time>
  <course>35.36</course>
  <speed>0.0282842712474619</speed>
  <fix>3d</fix>
</trkpt>
<trkpt lat="40.0728251" lon="-105.2307569">
  <ele>1595.63</ele>
  <time>2026-08-28T19:11:04Z</time>
  <course>326.83</course>
  <speed>0.05</speed>
  <fix>3d</fix>
</trkpt>
<trkpt lat="40.072825" lon="-105.2307569">
  <ele>1595.74</ele>
  <time>2026-08-28T19:11:04Z</time>
  <course>35.38</course>
  <speed>0.0282842712474619</speed>
  <fix>3d</fix>
</trkpt>
<trkpt lat="40.0728252" lon="-105.230757">
  <ele>1595.63</ele>
  <time>2026-08-28T19:11:04Z</time>
  <course>326.37</course>
  <speed>0.05</speed>
  <fix>3d</fix>
</trkpt>
<trkpt lat="40.0728251" lon="-105.230757">
  <ele>1595.74</ele>
  <time>2026-08-28T19:11:04Z</time>
  <course>35.37</course>
  <speed>0.0282842712474619</speed>
  <fix>3d</fix>
</trkpt>
<trkpt lat="40.0728253" lon="-105.2307571">
  <ele>1595.63</ele>
  <time>2026-08-28T19:11:04Z</time>
  <course>325.91</course>
  <speed>0.05</speed>
  <fix>3d</fix>
</trkpt>
<trkpt lat="40.0728252" lon="-105.2307571">
  <ele>1595.74</ele>
  <time>2026-08-28T19:11:04Z</time>
  <course>35.36</course>
  <speed>0.0282842712474619</speed>
  <fix>3d</fix>
</trkpt>
<trkpt lat="40.0728254" lon="-105.2307572">
  <ele>1595.63</ele>
  <time>2026-08-28T19:11:04Z</time>
  <course>325.49</course>
  <speed>0.05</speed>
  <fix>3d</fix>
</trkpt>
<trkpt lat="40.0728253" lon="-105.2307572">
  <ele>1595.73</ele>
  <time>2026-08-28T19:11:04Z</time>
  <course>35.36</course>
  <speed>0.0282842712474619</speed>
  <fix>3d</fix>
</trkpt>
<trkpt lat="40.0728255" lon="-105.2307572">
  <ele>1595.63</ele>
  <time>2026-08-28T19:11:04Z</time>
  <course>325.22</course>
  <speed>0.05</speed>
  <fix>3d</fix>
</trkpt>
<trkpt lat="40.0728254" lon="-105.2307572">
  <ele>1595.73</ele>
  <time>2026-08-28T19:11:04Z</time>
  <course>35.37</course>
  <speed>0.04242640687119285</speed>
  <fix>3d</fix>
</trkpt>
<trkpt lat="40.0728256" lon="-105.2307573">
  <ele>1595.63</ele>
  <time>2026-08-28T19:11:04Z</time>
  <course>324.32</course>
  <speed>0.06</speed>
  <fix>3d</fix>
</trkpt>
<trkpt lat="40.0728255" lon="-105.2307573">
  <ele>1595.73</ele>
  <time>2026-08-28T19:11:04Z</time>
  <course>35.37</course>
  <speed>0.03605551275463989</speed>
  <fix>3d</fix>
</trkpt>
<trkpt lat="40.0728256" lon="-105.2307574">
  <ele>1595.63</ele>
  <time>2026-08-28T19:11:04Z</time>
  <course>322.58</course>
  <speed>0.07</speed>
  <fix>3d</fix>
</trkpt>
<trkpt lat="40.0728256" lon="-105.2307574">
  <ele>1595.72</ele>
  <time>2026-08-28T19:11:04Z</time>
  <course>35.37</course>
  <speed>0.03605551275463989</speed>
  <fix>3d</fix>
</trkpt>
<trkpt lat="40.0728258" lon="-105.2307575">
  <ele>1595.63</ele>
  <time>2026-08-28T19:11:04Z</time>
  <course>320.47</course>
  <speed>0.06</speed>
  <fix>3d</fix>
</trkpt>
<trkpt lat="40.0728257" lon="-105.2307575">
  <ele>1595.73</ele>
  <time>2026-08-28T19:11:04Z</time>
  <course>35.35</course>
  <speed>0.022360679774997897</speed>
  <fix>3d</fix>
</trkpt>
<trkpt lat="40.0728259" lon="-105.2307576">
  <ele>1595.63</ele>
  <time>2026-08-28T19:11:04Z</time>
  <course>319.0</course>
  <speed>0.06</speed>
  <fix>3d</fix>
</trkpt>
<trkpt lat="40.0728258" lon="-105.2307576">
  <ele>1595.73</ele>
  <time>2026-08-28T19:11:04Z</time>
  <course>35.36</course>
  <speed>0.01414213562373095</speed>
  <fix>3d</fix>
</trkpt>
<trkpt lat="40.0728259" lon="-105.2307577">
  <ele>1595.63</ele>
  <time>2026-08-28T19:11:04Z</time>
  <course>319.26</course>
  <speed>0.05</speed>
  <fix>3d</fix>
</trkpt>
<trkpt lat="40.0728258" lon="-105.2307577">
  <ele>1595.73</ele>
  <time>2026-08-28T19:11:04Z</time>
  <course>35.37</course>
  <speed>0.01414213562373095</speed>
  <fix>3d</fix>
</trkpt>
<trkpt lat="40.072826" lon="-105.2307578">
  <ele>1595.63</ele>
  <time>2026-08-28T19:11:04Z</time>
  <course>321.15</course>
  <speed>0.04</speed>
  <fix>3d</fix>
</trkpt>
<trkpt lat="40.0728259" lon="-105.2307577">
  <ele>1595.72</ele>
  <time>2026-08-28T19:11:04Z</time>
  <course>35.36</course>
  <speed>0.01</speed>
  <fix>3d</fix>
</trkpt>
<trkpt lat="40.0728261" lon="-105.2307579">
  <ele>1595.64</ele>
  <time>2026-08-28T19:11:04Z</time>
  <course>323.67</course>
  <speed>0.03</speed>
  <fix>3d</fix>
</trkpt>
<trkpt lat="40.0728259" lon="-105.2307578">
  <ele>1595.72</ele>
  <time>2026-08-28T19:11:04Z</time>
  <course>35.35</course>
  <speed>0.01</speed>
  <fix>3d</fix>
</trkpt>
<trkpt lat="40.0728261" lon="-105.2307579">
  <ele>1595.64</ele>
  <time>2026-08-28T19:11:04Z</time>
  <course>326.11</course>
  <speed>0.03</speed>
  <fix>3d</fix>
</trkpt>
<trkpt lat="40.072826" lon="-105.2307578">
  <ele>1595.73</ele>
  <time>2026-08-28T19:11:04Z</time>
  <course>35.36</course>
  <speed>0.01</speed>
  <fix>3d</fix>
</trkpt>
<trkpt lat="40.0728262" lon="-105.230758">
  <ele>1595.64</ele>
  <time>2026-08-28T19:11:04Z</time>
  <course>327.8</course>
  <speed>0.03</speed>
  <fix>3d</fix>
</trkpt>
<trkpt lat="40.072826" lon="-105.2307579">
  <ele>1595.73</ele>
  <time>2026-08-28T19:11:04Z</time>
  <course>35.36</course>
  <speed>0.01</speed>
  <fix>3d</fix>
</trkpt>
<trkpt lat="40.0728262" lon="-105.230758">
  <ele>1595.65</ele>
  <time>2026-08-28T19:11:04Z</time>
  <course>328.65</course>
  <speed>0.03</speed>
  <fix>3d</fix>
</trkpt>
<trkpt lat="40.0728261" lon="-105.2307579">
  <ele>1595.74</ele>
  <time>2026-08-28T19:11:04Z</time>
  <course>35.36</course>
  <speed>0.01</speed>
  <fix>3d</fix>
</trkpt>
<trkpt lat="40.0728263" lon="-105.230758">
  <ele>1595.65</ele>
  <time>2026-08-28T19:11:04Z</time>
  <course>328.99</course>
  <speed>0.03</speed>
  <fix>3d</fix>
</trkpt>
<trkpt lat="40.0728261" lon="-105.2307579">
  <ele>1595.74</ele>
  <time>2026-08-28T19:11:04Z</time>
  <course>35.36</course>
  <speed>0.01</speed>
  <fix>3d</fix>
</trkpt>
<trkpt lat="40.0728263" lon="-105.2307581">
  <ele>1595.65</ele>
  <time>2026-08-28T19:11:04Z</time>
  <course>329.07</course>
  <speed>0.03</speed>
  <fix>3d</fix>
</trkpt>
<trkpt lat="40.0728262" lon="-105.230758">
  <ele>1595.74</ele>
  <time>2026-08-28T19:11:04Z</time>
  <course>35.36</course>
  <speed>0.01</speed>
  <fix>3d</fix>
</trkpt>
<trkpt lat="40.0728264" lon="-105.2307582">
  <ele>1595.66</ele>
  <time>2026-08-28T19:11:04Z</time>
  <course>329.22</course>
  <speed>0.03</speed>
  <fix>3d</fix>
</trkpt>
<trkpt lat="40.0728262" lon="-105.230758">
  <ele>1595.74</ele>
  <time>2026-08-28T19:11:04Z</time>
  <course>35.38</course>
  <speed>0.0</speed>
  <fix>3d</fix>
</trkpt>
<trkpt lat="40.0728265" lon="-105.2307582">
  <ele>1595.66</ele>
  <time>2026-08-28T19:11:04Z</time>
  <course>332.82</course>
  <speed>0.02</speed>
  <fix>3d</fix>
</trkpt>
<trkpt lat="40.0728263" lon="-105.230758">
  <ele>1595.75</ele>
  <time>2026-08-28T19:11:04Z</time>
  <course>35.36</course>
  <speed>0.0</speed>
  <fix>3d</fix>
</trkpt>
<trkpt lat="40.0728265" lon="-105.2307582">
  <ele>1595.66</ele>
  <time>2026-08-28T19:11:04Z</time>
  <course>338.63</course>
  <speed>0.02</speed>
  <fix>3d</fix>
</trkpt>
<trkpt lat="40.0728263" lon="-105.2307581">
  <ele>1595.75</ele>
  <time>2026-08-28T19:11:04Z</time>
  <course>35.36</course>
  <speed>0.0</speed>
  <fix>3d</fix>
</trkpt>
<trkpt lat="40.0728265" lon="-105.2307582">
  <ele>1595.66</ele>
  <time>2026-08-28T19:11:04Z</time>
  <course>341.55</course>
  <speed>0.02</speed>
  <fix>3d</fix>
</trkpt>
<trkpt lat="40.0728264" lon="-105.2307581">
  <ele>1595.75</ele>
  <time>2026-08-28T19:11:04Z</time>
  <course>35.37</course>
  <speed>0.0</speed>
  <fix>3d</fix>
</trkpt>
<trkpt lat="40.0728266" lon="-105.2307582">
  <ele>1595.66</ele>
  <time>2026-08-28T19:11:04Z</time>
  <course>341.81</course>
  <speed>0.02</speed>
  <fix>3d</fix>
</trkpt>
<trkpt lat="40.0728264" lon="-105.2307581">
  <ele>1595.74</ele>
  <time>2026-08-28T19:11:04Z</time>
  <course>35.37</course>
  <speed>0.01</speed>
  <fix>3d</fix>
</trkpt>
<trkpt lat="40.0728266" lon="-105.2307582">
  <ele>1595.66</ele>
  <time>2026-08-28T19:11:04Z</time>
  <course>337.68</course>
  <speed>0.03</speed>
  <fix>3d</fix>
</trkpt>
<trkpt lat="40.0728265" lon="-105.2307582">
  <ele>1595.74</ele>
  <time>2026-08-28T19:11:04Z</time>
  <course>35.36</course>
  <speed>0.01414213562373095</speed>
  <fix>3d</fix>
</trkpt>
<trkpt lat="40.0728267" lon="-105.2307583">
  <ele>1595.66</ele>
  <time>2026-08-28T19:11:04Z</time>
  <course>334.1</course>
  <speed>0.03</speed>
  <fix>3d</fix>
</trkpt>
<trkpt lat="40.0728266" lon="-105.2307582">
  <ele>1595.75</ele>
  <time>2026-08-28T19:11:04Z</time>
  <course>35.36</course>
  <speed>0.01414213562373095</speed>
  <fix>3d</fix>
</trkpt>
<trkpt lat="40.0728267" lon="-105.2307584">
  <ele>1595.66</ele>
  <time>2026-08-28T19:11:04Z</time>
  <course>331.93</course>
  <speed>0.04</speed>
  <fix>3d</fix>
</trkpt>
<trkpt lat="40.0728266" lon="-105.2307583">
  <ele>1595.75</ele>
  <time>2026-08-28T19:11:04Z</time>
  <course>35.38</course>
  <speed>0.01414213562373095</speed>
  <fix>3d</fix>
</trkpt>
<trkpt lat="40.0728268" lon="-105.2307584">
  <ele>1595.66</ele>
  <time>2026-08-28T19:11:04Z</time>
  <course>330.2</course>
  <speed>0.04</speed>
  <fix>3d</fix>
</trkpt>
<trkpt lat="40.0728267" lon="-105.2307583">
  <ele>1595.75</ele>
  <time>2026-08-28T19:11:04Z</time>
  <course>35.39</course>
  <speed>0.022360679774997897</speed>
  <fix>3d</fix>
</trkpt>
<trkpt lat="40.0728269" lon="-105.2307584">
  <ele>1595.65</ele>
  <time>2026-08-28T19:11:04Z</time>
  <course>328.58</course>
  <speed>0.04</speed>
  <fix>3d</fix>
</trkpt>
<trkpt lat="40.0728268" lon="-105.2307584">
  <ele>1595.75</ele>
  <time>2026-08-28T19:11:04Z</time>
  <course>35.39</course>
  <speed>0.0282842712474619</speed>
  <fix>3d</fix>
</trkpt>
<trkpt lat="40.0728269" lon="-105.2307585">
  <ele>1595.65</ele>
  <time>2026-08-28T19:11:04Z</time>
  <course>327.43</course>
  <speed>0.05</speed>
  <fix>3d</fix>
</trkpt>
<trkpt lat="40.0728269" lon="-105.2307585">
  <ele>1595.75</ele>
  <time>2026-08-28T19:11:04Z</time>
  <course>35.37</course>
  <speed>0.0282842712474619</speed>
  <fix>3d</fix>
</trkpt>
<trkpt lat="40.072827" lon="-105.2307586">
  <ele>1595.65</ele>
  <time>2026-08-28T19:11:04Z</time>
  <course>326.82</course>
  <speed>0.05</speed>
  <fix>3d</fix>
</trkpt>
<trkpt lat="40.0728269" lon="-105.2307585">
  <ele>1595.75</ele>
  <time>2026-08-28T19:11:04Z</time>
  <course>35.4</course>
  <speed>0.0282842712474619</speed>
  <fix>3d</fix>
</trkpt>
<trkpt lat="40.0728271" lon="-105.2307587">
  <ele>1595.65</ele>
  <time>2026-08-28T19:11:04Z</time>
  <course>326.28</course>
  <speed>0.05</speed>
  <fix>3d</fix>
</trkpt>
<trkpt lat="40.072827" lon="-105.2307586">
  <ele>1595.76</ele>
  <time>2026-08-28T19:11:04Z</time>
  <course>35.41</course>
  <speed>0.0282842712474619</speed>
  <fix>3d</fix>
</trkpt>
<trkpt lat="40.0728272" lon="-105.2307587">
  <ele>1595.64</ele>
  <time>2026-08-28T19:11:04Z</time>
  <course>325.82</course>
  <speed>0.05</speed>
  <fix>3d</fix>
</trkpt>
<trkpt lat="40.0728271" lon="-105.2307587">
  <ele>1595.75</ele>
  <time>2026-08-28T19:11:04Z</time>
  <course>35.39</course>
  <speed>0.0282842712474619</speed>
  <fix>3d</fix>
</trkpt>
<trkpt lat="40.0728273" lon="-105.2307588">
  <ele>1595.64</ele>
  <time>2026-08-28T19:11:04Z</time>
  <course>325.62</course>
  <speed>0.05</speed>
  <fix>3d</fix>
</trkpt>
<trkpt lat="40.0728272" lon="-105.2307588">
  <ele>1595.74</ele>
  <time>2026-08-28T19:11:04Z</time>
  <course>35.37</course>
  <speed>0.0282842712474619</speed>
  <fix>3d</fix>
</trkpt>
<trkpt lat="40.0728274" lon="-105.2307589">
  <ele>1595.64</ele>
  <time>2026-08-28T19:11:04Z</time>
  <course>325.56</course>
  <speed>0.05</speed>
  <fix>3d</fix>
</trkpt>
<trkpt lat="40.0728273" lon="-105.2307589">
  <ele>1595.74</ele>
  <time>2026-08-28T19:11:04Z</time>
  <course>35.37</course>
  <speed>0.0282842712474619</speed>
  <fix>3d</fix>
</trkpt>
<trkpt lat="40.0728274" lon="-105.2307589">
  <ele>1595.64</ele>
  <time>2026-08-28T19:11:04Z</time>
  <course>325.53</course>
  <speed>0.05</speed>
  <fix>3d</fix>
</trkpt>
<trkpt lat="40.0728274" lon="-105.2307589">
  <ele>1595.74</ele>
  <time>2026-08-28T19:11:04Z</time>
  <course>35.35</course>
  <speed>0.04242640687119285</speed>
  <fix>3d</fix>
</trkpt>
<trkpt lat="40.0728275" lon="-105.230759">
  <ele>1595.63</ele>
  <time>2026-08-28T19:11:04Z</time>
  <course>325.21</course>
  <speed>0.05</speed>
  <fix>3d</fix>
</trkpt>
<trkpt lat="40.0728275" lon="-105.230759">
  <ele>1595.73</ele>
  <time>2026-08-28T19:11:04Z</time>
  <course>35.39</course>
  <speed>0.04242640687119285</speed>
  <fix>3d</fix>
</trkpt>
<trkpt lat="40.0728276" lon="-105.2307591">
  <ele>1595.63</ele>
  <time>2026-08-28T19:11:04Z</time>
  <course>324.9</course>
  <speed>0.06</speed>
  <fix>3d</fix>
</trkpt>
<trkpt lat="40.0728276" lon="-105.2307591">
  <ele>1595.73</ele>
  <time>2026-08-28T19:11:04Z</time>
  <course>35.37</course>
  <speed>0.04242640687119285</speed>
  <fix>3d</fix>
</trkpt>
<trkpt lat="40.0728277" lon="-105.2307592">
  <ele>1595.63</ele>
  <time>2026-08-28T19:11:04Z</time>
  <course>323.19</course>
  <speed>0.06</speed>
  <fix>3d</fix>
</trkpt>
<trkpt lat="40.0728276" lon="-105.2307592">
  <ele>1595.72</ele>
  <time>2026-08-28T19:11:04Z</time>
  <course>35.36</course>
  <speed>0.03605551275463989</speed>
  <fix>3d</fix>
</trkpt>
<trkpt lat="40.0728278" lon="-105.2307593">
  <ele>1595.63</ele>
  <time>2026-08-28T19:11:04Z</time>
  <course>320.81</course>
  <speed>0.06</speed>
  <fix>3d</fix>
</trkpt>
<trkpt lat="40.0728277" lon="-105.2307593">
  <ele>1595.73</ele>
  <time>2026-08-28T19:11:04Z</time>
  <course>35.33</course>
  <speed>0.022360679774997897</speed>
  <fix>3d</fix>
</trkpt>
<trkpt lat="40.0728279" lon="-105.2307594">
  <ele>1595.63</ele>
  <time>2026-08-28T19:11:04Z</time>
  <course>320.38</course>
  <speed>0.05</speed>
  <fix>3d</fix>
</trkpt>
<trkpt lat="40.0728278" lon="-105.2307594">
  <ele>1595.73</ele>
  <time>2026-08-28T19:11:04Z</time>
  <course>35.34</course>
  <speed>0.022360679774997897</speed>
  <fix>3d</fix>
</trkpt>
<trkpt lat="40.072828" lon="-105.2307595">
  <ele>1595.64</ele>
  <time>2026-08-28T19:11:04Z</time>
  <course>321.66</course>
  <speed>0.05</speed>
  <fix>3d</fix>
</trkpt>
<trkpt lat="40.0728279" lon="-105.2307594">
  <ele>1595.73</ele>
  <time>2026-08-28T19:11:04Z</time>
  <course>35.34</course>
  <speed>0.01414213562373095</speed>
  <fix>3d</fix>
</trkpt>
<trkpt lat="40.072828" lon="-105.2307596">
  <ele>1595.64</ele>
  <time>2026-08-28T19:11:04Z</time>
  <course>323.9</course>
  <speed>0.04</speed>
  <fix>3d</fix>
</trkpt>
<trkpt lat="40.0728279" lon="-105.2307595">
  <ele>1595.74</ele>
  <time>2026-08-28T19:11:04Z</time>
  <course>35.34</course>
  <speed>0.01414213562373095</speed>
  <fix>3d</fix>
</trkpt>
<trkpt lat="40.0728281" lon="-105.2307596">
  <ele>1595.64</ele>
  <time>2026-08-28T19:11:04Z</time>
  <course>326.1</course>
  <speed>0.04</speed>
  <fix>3d</fix>
</trkpt>
<trkpt lat="40.072828" lon="-105.2307596">
  <ele>1595.74</ele>
  <time>2026-08-28T19:11:04Z</time>
  <course>35.35</course>
  <speed>0.01</speed>
  <fix>3d</fix>
</trkpt>
<trkpt lat="40.0728282" lon="-105.2307596">
  <ele>1595.64</ele>
  <time>2026-08-28T19:11:04Z</time>
  <course>327.8</course>
  <speed>0.04</speed>
  <fix>3d</fix>
</trkpt>
<trkpt lat="40.0728281" lon="-105.2307596">
  <ele>1595.75</ele>
  <time>2026-08-28T19:11:04Z</time>
  <course>35.36</course>
  <speed>0.0</speed>
  <fix>3d</fix>
</trkpt>
<trkpt lat="40.0728283" lon="-105.2307597">
  <ele>1595.65</ele>
  <time>2026-08-28T19:11:04Z</time>
  <course>329.2</course>
  <speed>0.04</speed>
  <fix>3d</fix>
</trkpt>
<trkpt lat="40.0728281" lon="-105.2307596">
  <ele>1595.75</ele>
  <time>2026-08-28T19:11:04Z</time>
  <course>35.38</course>
  <speed>0.0</speed>
  <fix>3d</fix>
</trkpt>
<trkpt lat="40.0728283" lon="-105.2307598">
  <ele>1595.65</ele>
  <time>2026-08-28T19:11:04Z</time>
  <course>330.4</course>
  <speed>0.03</speed>
  <fix>3d</fix>
</trkpt>
<trkpt lat="40.0728282" lon="-105.2307597">
  <ele>1595.75</ele>
  <time>2026-08-28T19:11:04Z</time>
  <course>35.39</course>
  <speed>0.0</speed>
  <fix>3d</fix>
</trkpt>
<trkpt lat="40.0728284" lon="-105.2307598">
  <ele>1595.65</ele>
  <time>2026-08-28T19:11:04Z</time>
  <course>331.32</course>
  <speed>0.03</speed>
  <fix>3d</fix>
</trkpt>
<trkpt lat="40.0728282" lon="-105.2307597">
  <ele>1595.75</ele>
  <time>2026-08-28T19:11:04Z</time>
  <course>35.39</course>
  <speed>0.0</speed>
  <fix>3d</fix>
</trkpt>
<trkpt lat="40.0728284" lon="-105.2307599">
  <ele>1595.65</ele>
  <time>2026-08-28T19:11:04Z</time>
  <course>332.15</course>
  <speed>0.03</speed>
  <fix>3d</fix>
</trkpt>
<trkpt lat="40.0728283" lon="-105.2307598">
  <ele>1595.75</ele>
  <time>2026-08-28T19:11:04Z</time>
  <course>35.41</course>
  <speed>0.0</speed>
  <fix>3d</fix>
</trkpt>
<trkpt lat="40.0728285" lon="-105.2307599">
  <ele>1595.65</ele>
  <time>2026-08-28T19:11:04Z</time>
  <course>333.99</course>
  <speed>0.03</speed>
  <fix>3d</fix>
</trkpt>
<trkpt lat="40.0728283" lon="-105.2307598">
  <ele>1595.75</ele>
  <time>2026-08-28T19:11:04Z</time>
  <course>35.36</course>
  <speed>0.0</speed>
  <fix>3d</fix>
</trkpt>
<trkpt lat="40.0728286" lon="-105.2307599">
  <ele>1595.64</ele>
  <time>2026-08-28T19:11:04Z</time>
  <course>337.54</course>
  <speed>0.02</speed>
  <fix>3d</fix>
</trkpt>
<trkpt lat="40.0728284" lon="-105.2307598">
  <ele>1595.75</ele>
  <time>2026-08-28T19:11:04Z</time>
  <course>35.37</course>
  <speed>0.0</speed>
  <fix>3d</fix>
</trkpt>
<trkpt lat="40.0728286" lon="-105.2307599">
  <ele>1595.64</ele>
  <time>2026-08-28T19:11:04Z</time>
  <course>344.29</course>
  <speed>0.02</speed>
  <fix>3d</fix>
</trkpt>
<trkpt lat="40.0728284" lon="-105.2307598">
  <ele>1595.75</ele>
  <time>2026-08-28T19:11:04Z</time>
  <course>35.37</course>
  <speed>0.0</speed>
  <fix>3d</fix>
</trkpt>
<trkpt lat="40.0728286" lon="-105.2307599">
  <ele>1595.64</ele>
  <time>2026-08-28T19:11:04Z</time>
  <course>345.72</course>
  <speed>0.02</speed>
  <fix>3d</fix>
</trkpt>
<trkpt lat="40.0728285" lon="-105.2307598">
  <ele>1595.75</ele>
  <time>2026-08-28T19:11:04Z</time>
  <course>35.36</course>
  <speed>0.01</speed>
  <fix>3d</fix>
</trkpt>
<trkpt lat="40.0728286" lon="-105.2307599">
  <ele>1595.64</ele>
  <time>2026-08-28T19:11:04Z</time>
  <course>341.38</course>
  <speed>0.03</speed>
  <fix>3d</fix>
</trkpt>
<trkpt lat="40.0728285" lon="-105.2307599">
  <ele>1595.75</ele>
  <time>2026-08-28T19:11:04Z</time>
  <course>35.37</course>
  <speed>0.01</speed>
  <fix>3d</fix>
</trkpt>
<trkpt lat="40.0728287" lon="-105.2307599">
  <ele>1595.63</ele>
  <time>2026-08-28T19:11:04Z</time>
  <course>337.03</course>
  <speed>0.03</speed>
  <fix>3d</fix>
</trkpt>
<trkpt lat="40.0728286" lon="-105.2307599">
  <ele>1595.75</ele>
  <time>2026-08-28T19:11:04Z</time>
  <course>35.38</course>
  <speed>0.01414213562373095</speed>
  <fix>3d</fix>
</trkpt>
<trkpt lat="40.0728287" lon="-105.23076">
  <ele>1595.63</ele>
  <time>2026-08-28T19:11:04Z</time>
  <course>333.6</course>
  <speed>0.04</speed>
  <fix>3d</fix>
</trkpt>
<trkpt lat="40.0728287" lon="-105.2307599">
  <ele>1595.74</ele>
  <time>2026-08-28T19:11:04Z</time>
  <course>35.37</course>
  <speed>0.01414213562373095</speed>
  <fix>3d</fix>
</trkpt>
<trkpt lat="40.0728288" lon="-105.2307601">
  <ele>1595.63</ele>
  <time>2026-08-28T19:11:04Z</time>
  <course>331.43</course>
  <speed>0.04</speed>
  <fix>3d</fix>
</trkpt>
<trkpt lat="40.0728287" lon="-105.23076">
  <ele>1595.74</ele>
  <time>2026-08-28T19:11:04Z</time>
  <course>35.37</course>
  <speed>0.01414213562373095</speed>
  <fix>3d</fix>
</trkpt>
<trkpt lat="40.0728289" lon="-105.2307601">
  <ele>1595.63</ele>
  <time>2026-08-28T19:11:04Z</time>
  <course>329.72</course>
  <speed>0.04</speed>
  <fix>3d</fix>
</trkpt>
<trkpt lat="40.0728288" lon="-105.2307601">
  <ele>1595.74</ele>
  <time>2026-08-28T19:11:04Z</time>
  <course>35.36</course>
  <speed>0.01414213562373095</speed>
  <fix>3d</fix>
</trkpt>
<trkpt lat="40.072829" lon="-105.2307602">
  <ele>1595.63</ele>
  <time>2026-08-28T19:11:04Z</time>
  <course>328.45</course>
  <speed>0.04</speed>
  <fix>3d</fix>
</trkpt>
<trkpt lat="40.0728289" lon="-105.2307601">
  <ele>1595.74</ele>
  <time>2026-08-28T19:11:04Z</time>
  <course>35.36</course>
  <speed>0.0282842712474619</speed>
  <fix>3d</fix>
</trkpt>
<trkpt lat="40.0728291" lon="-105.2307603">
  <ele>1595.63</ele>
  <time>2026-08-28T19:11:04Z</time>
  <course>327.83</course>
  <speed>0.05</speed>
  <fix>3d</fix>
</trkpt>
<trkpt lat="40.072829" lon="-105.2307602">
  <ele>1595.74</ele>
  <time>2026-08-28T19:11:04Z</time>
  <course>35.36</course>
  <speed>0.0282842712474619</speed>
  <fix>3d</fix>
</trkpt>
<trkpt lat="40.0728291" lon="-105.2307603">
  <ele>1595.63</ele>
  <time>2026-08-28T19:11:04Z</time>
  <course>327.27</course>
  <speed>0.05</speed>
  <fix>3d</fix>
</trkpt>
<trkpt lat="40.072829" lon="-105.2307603">
  <ele>1595.74</ele>
  <time>2026-08-28T19:11:04Z</time>
  <course>35.36</course>
  <speed>0.0282842712474619</speed>
  <fix>3d</fix>
</trkpt>
<trkpt lat="40.0728292" lon="-105.2307604">
  <ele>1595.63</ele>
  <time>2026-08-28T19:11:04Z</time>
  <course>326.84</course>
  <speed>0.05</speed>
  <fix>3d</fix>
</trkpt>
<trkpt lat="40.0728291" lon="-105.2307604">
  <ele>1595.74</ele>
  <time>2026-08-28T19:11:04Z</time>
  <course>35.36</course>
  <speed>0.0282842712474619</speed>
  <fix>3d</fix>
</trkpt>
<trkpt lat="40.0728293" lon="-105.2307604">
  <ele>1595.63</ele>
  <time>2026-08-28T19:11:04Z</time>
  <course>326.49</course>
  <speed>0.05</speed>
  <fix>3d</fix>
</trkpt>
<trkpt lat="40.0728292" lon="-105.2307604">
  <ele>1595.74</ele>
  <time>2026-08-28T19:11:04Z</time>
  <course>35.36</course>
  <speed>0.0282842712474619</speed>
  <fix>3d</fix>
</trkpt>
<trkpt lat="40.0728294" lon="-105.2307605">
  <ele>1595.63</ele>
  <time>2026-08-28T19:11:04Z</time>
  <course>326.22</course>
  <speed>0.05</speed>
  <fix>3d</fix>
</trkpt>
<trkpt lat="40.0728293" lon="-105.2307605">
  <ele>1595.74</ele>
  <time>2026-08-28T19:11:04Z</time>
  <course>35.36</course>
  <speed>0.0282842712474619</speed>
  <fix>3d</fix>
</trkpt>
<trkpt lat="40.0728295" lon="-105.2307606">
  <ele>1595.63</ele>
  <time>2026-08-28T19:11:04Z</time>
  <course>326.02</course>
  <speed>0.05</speed>
  <fix>3d</fix>
</trkpt>
<trkpt lat="40.0728294" lon="-105.2307606">
  <ele>1595.73</ele>
  <time>2026-08-28T19:11:04Z</time>
  <course>35.36</course>
  <speed>0.04242640687119285</speed>
  <fix>3d</fix>
</trkpt>
<trkpt lat="40.0728296" lon="-105.2307607">
  <ele>1595.63</ele>
  <time>2026-08-28T19:11:04Z</time>
  <course>325.88</course>
  <speed>0.06</speed>
  <fix>3d</fix>
</trkpt>
<trkpt lat="40.0728295" lon="-105.2307607">
  <ele>1595.73</ele>
  <time>2026-08-28T19:11:04Z</time>
  <course>35.38</course>
  <speed>0.04242640687119285</speed>
  <fix>3d</fix>
</trkpt>
<trkpt lat="40.0728297" lon="-105.2307608">
  <ele>1595.63</ele>
  <time>2026-08-28T19:11:04Z</time>
  <course>325.36</course>
  <speed>0.06</speed>
  <fix>3d</fix>
</trkpt>
<trkpt lat="40.0728296" lon="-105.2307608">
  <ele>1595.72</ele>
  <time>2026-08-28T19:11:04Z</time>
  <course>35.36</course>
  <speed>0.04242640687119285</speed>
  <fix>3d</fix>
</trkpt>
<trkpt lat="40.0728298" lon="-105.2307609">
  <ele>1595.63</ele>
  <time>2026-08-28T19:11:04Z</time>
  <course>323.62</course>
  <speed>0.07</speed>
  <fix>3d</fix>
</trkpt>
<trkpt lat="40.0728297" lon="-105.2307609">
  <ele>1595.72</ele>
  <time>2026-08-28T19:11:04Z</time>
  <course>35.35</course>
  <speed>0.03605551275463989</speed>
  <fix>3d</fix>
</trkpt>
<trkpt lat="40.0728299" lon="-105.230761">
  <ele>1595.63</ele>
  <time>2026-08-28T19:11:04Z</time>
  <course>321.41</course>
  <speed>0.06</speed>
  <fix>3d</fix>
</trkpt>
<trkpt lat="40.0728298" lon="-105.230761">
  <ele>1595.72</ele>
  <time>2026-08-28T19:11:04Z</time>
  <course>35.33</course>
  <speed>0.022360679774997897</speed>
  <fix>3d</fix>
</trkpt>
<trkpt lat="40.07283" lon="-105.2307611">
  <ele>1595.64</ele>
  <time>2026-08-28T19:11:04Z</time>
  <course>320.39</course>
  <speed>0.05</speed>
  <fix>3d</fix>
</trkpt>
<trkpt lat="40.0728299" lon="-105.2307611">
  <ele>1595.73</ele>
  <time>2026-08-28T19:11:04Z</time>
  <course>35.33</course>
  <speed>0.022360679774997897</speed>
  <fix>3d</fix>
</trkpt>
<trkpt lat="40.0728301" lon="-105.2307611">
  <ele>1595.64</ele>
  <time>2026-08-28T19:11:04Z</time>
  <course>320.95</course>
  <speed>0.05</speed>
  <fix>3d</fix>
</trkpt>
<trkpt lat="40.0728299" lon="-105.2307611">
  <ele>1595.73</ele>
  <time>2026-08-28T19:11:04Z</time>
  <course>35.36</course>
  <speed>0.01414213562373095</speed>
  <fix>3d</fix>
</trkpt>
<trkpt lat="40.0728301" lon="-105.2307612">
  <ele>1595.64</ele>
  <time>2026-08-28T19:11:04Z</time>
  <course>323.13</course>
  <speed>0.04</speed>
  <fix>3d</fix>
</trkpt>
<trkpt lat="40.07283" lon="-105.2307612">
  <ele>1595.73</ele>
  <time>2026-08-28T19:11:04Z</time>
  <course>35.36</course>
  <speed>0.01414213562373095</speed>
  <fix>3d</fix>
</trkpt>
<trkpt lat="40.0728302" lon="-105.2307613">
  <ele>1595.65</ele>
  <time>2026-08-28T19:11:04Z</time>
  <course>325.8</course>
  <speed>0.04</speed>
  <fix>3d</fix>
</trkpt>
<trkpt lat="40.0728301" lon="-105.2307612">
  <ele>1595.74</ele>
  <time>2026-08-28T19:11:04Z</time>
  <course>35.35</course>
  <speed>0.01414213562373095</speed>
  <fix>3d</fix>
</trkpt>
<trkpt lat="40.0728303" lon="-105.2307613">
  <ele>1595.65</ele>
  <time>2026-08-28T19:11:04Z</time>
  <course>327.85</course>
  <speed>0.03</speed>
  <fix>3d</fix>
</trkpt>
<trkpt lat="40.0728301" lon="-105.2307613">
  <ele>1595.74</ele>
  <time>2026-08-28T19:11:04Z</time>
  <course>35.35</course>
  <speed>0.01414213562373095</speed>
  <fix>3d</fix>
</trkpt>
<trkpt lat="40.0728303" lon="-105.2307614">
  <ele>1595.66</ele>
  <time>2026-08-28T19:11:04Z</time>
  <course>329.07</course>
  <speed>0.03</speed>
  <fix>3d</fix>
</trkpt>
<trkpt lat="40.0728302" lon="-105.2307613">
  <ele>1595.75</ele>
  <time>2026-08-28T19:11:04Z</time>
  <course>35.36</course>
  <speed>0.01414213562373095</speed>
  <fix>3d</fix>
</trkpt>
<trkpt lat="40.0728304" lon="-105.2307615">
  <ele>1595.66</ele>
  <time>2026-08-28T19:11:04Z</time>
  <course>329.65</course>
  <speed>0.03</speed>
  <fix>3d</fix>
</trkpt>
<trkpt lat="40.0728302" lon="-105.2307614">
  <ele>1595.75</ele>
  <time>2026-08-28T19:11:04Z</time>
  <course>35.36</course>
  <speed>0.01414213562373095</speed>
  <fix>3d</fix>
</trkpt>
<trkpt lat="40.0728304" lon="-105.2307615">
  <ele>1595.66</ele>
  <time>2026-08-28T19:11:04Z</time>
  <course>330.01</course>
  <speed>0.04</speed>
  <fix>3d</fix>
</trkpt>
<trkpt lat="40.0728303" lon="-105.2307614">
  <ele>1595.74</ele>
  <time>2026-08-28T19:11:04Z</time>
  <course>35.37</course>
  <speed>0.01414213562373095</speed>
  <fix>3d</fix>
</trkpt>
<trkpt lat="40.0728305" lon="-105.2307615">
  <ele>1595.66</ele>
  <time>2026-08-28T19:11:04Z</time>
  <course>330.34</course>
  <speed>0.04</speed>
  <fix>3d</fix>
</trkpt>
<trkpt lat="40.0728304" lon="-105.2307615">
  <ele>1595.74</ele>
  <time>2026-08-28T19:11:04Z</time>
  <course>35.36</course>
  <speed>0.01414213562373095</speed>
  <fix>3d</fix>
</trkpt>
<trkpt lat="40.0728305" lon="-105.2307616">
  <ele>1595.66</ele>
  <time>2026-08-28T19:11:04Z</time>
  <course>330.54</course>
  <speed>0.04</speed>
  <fix>3d</fix>
</trkpt>
<trkpt lat="40.0728304" lon="-105.2307615">
  <ele>1595.74</ele>
  <time>2026-08-28T19:11:04Z</time>
  <course>35.37</course>
  <speed>0.0</speed>
  <fix>3d</fix>
</trkpt>
<trkpt lat="40.0728306" lon="-105.2307617">
  <ele>1595.66</ele>
  <time>2026-08-28T19:11:04Z</time>
  <course>334.16</course>
  <speed>0.03</speed>
  <fix>3d</fix>
</trkpt>
<trkpt lat="40.0728305" lon="-105.2307615">
  <ele>1595.74</ele>
  <time>2026-08-28T19:11:05Z</time>
  <course>35.36</course>
  <speed>0.0</speed>
  <fix>3d</fix>
</trkpt>
<trkpt lat="40.0728307" lon="-105.2307617">
  <ele>1595.66</ele>
  <time>2026-08-28T19:11:05Z</time>
  <course>342.12</course>
  <speed>0.02</speed>
  <fix>3d</fix>
</trkpt>
<trkpt lat="40.0728305" lon="-105.2307615">
  <ele>1595.74</ele>
  <time>2026-08-28T19:11:05Z</time>
  <course>35.36</course>
  <speed>0.0</speed>
  <fix>3d</fix>
</trkpt>
<trkpt lat="40.0728307" lon="-105.2307617">
  <ele>1595.66</ele>
  <time>2026-08-28T19:11:05Z</time>
  <course>343.71</course>
  <speed>0.02</speed>
  <fix>3d</fix>
</trkpt>
<trkpt lat="40.0728306" lon="-105.2307616">
  <ele>1595.75</ele>
  <time>2026-08-28T19:11:05Z</time>
  <course>35.37</course>
  <speed>0.01</speed>
  <fix>3d</fix>
</trkpt>
<trkpt lat="40.0728308" lon="-105.2307617">
  <ele>1595.66</ele>
  <time>2026-08-28T19:11:05Z</time>
  <course>342.35</course>
  <speed>0.03</speed>
  <fix>3d</fix>
</trkpt>
<trkpt lat="40.0728306" lon="-105.2307616">
  <ele>1595.74</ele>
  <time>2026-08-28T19:11:05Z</time>
  <course>35.36</course>
  <speed>0.01414213562373095</speed>
  <fix>3d</fix>
</trkpt>
<trkpt lat="40.0728308" lon="-105.2307617">
  <ele>1595.66</ele>
  <time>2026-08-28T19:11:05Z</time>
  <course>339.26</course>
  <speed>0.03</speed>
  <fix>3d</fix>
</trkpt>
<trkpt lat="40.0728307" lon="-105.2307617">
  <ele>1595.74</ele>
  <time>2026-08-28T19:11:05Z</time>
  <course>35.36</course>
  <speed>0.022360679774997897</speed>
  <fix>3d</fix>
</trkpt>
<trkpt lat="40.0728309" lon="-105.2307618">
  <ele>1595.66</ele>
  <time>2026-08-28T19:11:05Z</time>
  <course>336.49</course>
  <speed>0.04</speed>
  <fix>3d</fix>
</trkpt>
<trkpt lat="40.0728308" lon="-105.2307617">
  <ele>1595.74</ele>
  <time>2026-08-28T19:11:05Z</time>
  <course>35.35</course>
  <speed>0.022360679774997897</speed>
  <fix>3d</fix>
</trkpt>
<trkpt lat="40.072831" lon="-105.2307618">
  <ele>1595.66</ele>
  <time>2026-08-28T19:11:05Z</time>
  <course>334.21</course>
  <speed>0.04</speed>
  <fix>3d</fix>
</trkpt>
<trkpt lat="40.0728309" lon="-105.2307618">
  <ele>1595.74</ele>
  <time>2026-08-28T19:11:05Z</time>
  <course>35.37</course>
  <speed>0.0282842712474619</speed>
  <fix>3d</fix>
</trkpt>
<trkpt lat="40.072831" lon="-105.2307618">
  <ele>1595.67</ele>
  <time>2026-08-28T19:11:05Z</time>
  <course>332.05</course>
  <speed>0.05</speed>
  <fix>3d</fix>
</trkpt>
<trkpt lat="40.072831" lon="-105.2307618">
  <ele>1595.74</ele>
  <time>2026-08-28T19:11:05Z</time>
  <course>35.37</course>
  <speed>0.0282842712474619</speed>
  <fix>3d</fix>
</trkpt>
<trkpt lat="40.0728311" lon="-105.2307619">
  <ele>1595.67</ele>
  <time>2026-08-28T19:11:05Z</time>
  <course>330.49</course>
  <speed>0.05</speed>
  <fix>3d</fix>
</trkpt>
<trkpt lat="40.0728311" lon="-105.2307619">
  <ele>1595.74</ele>
  <time>2026-08-28T19:11:05Z</time>
  <course>35.36</course>
  <speed>0.0282842712474619</speed>
  <fix>3d</fix>
</trkpt>
<trkpt lat="40.0728312" lon="-105.230762">
  <ele>1595.67</ele>
  <time>2026-08-28T19:11:05Z</time>
  <course>329.39</course>
  <speed>0.05</speed>
  <fix>3d</fix>
</trkpt>
<trkpt lat="40.0728311" lon="-105.230762">
  <ele>1595.73</ele>
  <time>2026-08-28T19:11:05Z</time>
  <course>35.36</course>
  <speed>0.0282842712474619</speed>
  <fix>3d</fix>
</trkpt>
<trkpt lat="40.0728313" lon="-105.230762">
  <ele>1595.67</ele>
  <time>2026-08-28T19:11:05Z</time>
  <course>328.38</course>
  <speed>0.06</speed>
  <fix>3d</fix>
</trkpt>
<trkpt lat="40.0728312" lon="-105.2307621">
  <ele>1595.73</ele>
  <time>2026-08-28T19:11:05Z</time>
  <course>35.35</course>
  <speed>0.0282842712474619</speed>
  <fix>3d</fix>
</trkpt>
<trkpt lat="40.0728314" lon="-105.2307621">
  <ele>1595.67</ele>
  <time>2026-08-28T19:11:05Z</time>
  <course>327.34</course>
  <speed>0.06</speed>
  <fix>3d</fix>
</trkpt>
<trkpt lat="40.0728313" lon="-105.2307621">
  <ele>1595.73</ele>
  <time>2026-08-28T19:11:05Z</time>
  <course>35.37</course>
  <speed>0.0282842712474619</speed>
  <fix>3d</fix>
</trkpt>
<trkpt lat="40.0728315" lon="-105.2307622">
  <ele>1595.67</ele>
  <time>2026-08-28T19:11:05Z</time>
  <course>326.45</course>
  <speed>0.06</speed>
  <fix>3d</fix>
</trkpt>
<trkpt lat="40.0728314" lon="-105.2307622">
  <ele>1595.74</ele>
  <time>2026-08-28T19:11:05Z</time>
  <course>35.36</course>
  <speed>0.0282842712474619</speed>
  <fix>3d</fix>
</trkpt>
<trkpt lat="40.0728316" lon="-105.2307623">
  <ele>1595.67</ele>
  <time>2026-08-28T19:11:05Z</time>
  <course>325.91</course>
  <speed>0.06</speed>
  <fix>3d</fix>
</trkpt>
<trkpt lat="40.0728315" lon="-105.2307623">
  <ele>1595.74</ele>
  <time>2026-08-28T19:11:05Z</time>
  <course>35.36</course>
  <speed>0.03605551275463989</speed>
  <fix>3d</fix>
</trkpt>
<trkpt lat="40.0728317" lon="-105.2307624">
  <ele>1595.67</ele>
  <time>2026-08-28T19:11:05Z</time>
  <course>325.81</course>
  <speed>0.06</speed>
  <fix>3d</fix>
</trkpt>
<trkpt lat="40.0728316" lon="-105.2307624">
  <ele>1595.75</ele>
  <time>2026-08-28T19:11:05Z</time>
  <course>35.36</course>
  <speed>0.03605551275463989</speed>
  <fix>3d</fix>
</trkpt>
<trkpt lat="40.0728318" lon="-105.2307625">
  <ele>1595.68</ele>
  <time>2026-08-28T19:11:05Z</time>
  <course>326.05</course>
  <speed>0.06</speed>
  <fix>3d</fix>
</trkpt>
<trkpt lat="40.0728317" lon="-105.2307625">
  <ele>1595.75</ele>
  <time>2026-08-28T19:11:05Z</time>
  <course>35.35</course>
  <speed>0.0565685424949238</speed>
  <fix>3d</fix>
</trkpt>
<trkpt lat="40.0728319" lon="-105.2307625">
  <ele>1595.68</ele>
  <time>2026-08-28T19:11:05Z</time>
  <course>325.46</course>
  <speed>0.07</speed>
  <fix>3d</fix>
</trkpt>
<trkpt lat="40.0728318" lon="-105.2307626">
  <ele>1595.75</ele>
  <time>2026-08-28T19:11:05Z</time>
  <course>35.39</course>
  <speed>0.04242640687119285</speed>
  <fix>3d</fix>
</trkpt>
<trkpt lat="40.072832" lon="-105.2307626">
  <ele>1595.68</ele>
  <time>2026-08-28T19:11:05Z</time>
  <course>324.69</course>
  <speed>0.07</speed>
  <fix>3d</fix>
</trkpt>
<trkpt lat="40.072832" lon="-105.2307627">
  <ele>1595.75</ele>
  <time>2026-08-28T19:11:05Z</time>
  <course>35.39</course>
  <speed>0.03605551275463989</speed>
  <fix>3d</fix>
</trkpt>
<trkpt lat="40.0728321" lon="-105.2307627">
  <ele>1595.68</ele>
  <time>2026-08-28T19:11:05Z</time>
  <course>323.36</course>
  <speed>0.07</speed>
  <fix>3d</fix>
</trkpt>
<trkpt lat="40.072832" lon="-105.2307628">
  <ele>1595.74</ele>
  <time>2026-08-28T19:11:05Z</time>
  <course>35.37</course>
  <speed>0.0282842712474619</speed>
  <fix>3d</fix>
</trkpt>
<trkpt lat="40.0728322" lon="-105.2307628">
  <ele>1595.68</ele>
  <time>2026-08-28T19:11:05Z</time>
  <course>321.79</course>
  <speed>0.06</speed>
  <fix>3d</fix>
</trkpt>
<trkpt lat="40.0728321" lon="-105.2307629">
  <ele>1595.74</ele>
  <time>2026-08-28T19:11:05Z</time>
  <course>35.37</course>
  <speed>0.022360679774997897</speed>
  <fix>3d</fix>
</trkpt>
<trkpt lat="40.0728323" lon="-105.2307629">
  <ele>1595.68</ele>
  <time>2026-08-28T19:11:05Z</time>
  <course>322.0</course>
  <speed>0.05</speed>
  <fix>3d</fix>
</trkpt>
<trkpt lat="40.0728322" lon="-105.2307629">
  <ele>1595.73</ele>
  <time>2026-08-28T19:11:05Z</time>
  <course>35.36</course>
  <speed>0.01414213562373095</speed>
  <fix>3d</fix>
</trkpt>
<trkpt lat="40.0728323" lon="-105.230763">
  <ele>1595.68</ele>
  <time>2026-08-28T19:11:05Z</time>
  <course>323.75</course>
  <speed>0.04</speed>
  <fix>3d</fix>
</trkpt>
<trkpt lat="40.0728323" lon="-105.230763">
  <ele>1595.74</ele>
  <time>2026-08-28T19:11:05Z</time>
  <course>35.36</course>
  <speed>0.01414213562373095</speed>
  <fix>3d</fix>
</trkpt>
<trkpt lat="40.0728324" lon="-105.230763">
  <ele>1595.68</ele>
  <time>2026-08-28T19:11:05Z</time>
  <course>326.31</course>
  <speed>0.04</speed>
  <fix>3d</fix>
</trkpt>
<trkpt lat="40.0728323" lon="-105.230763">
  <ele>1595.74</ele>
  <time>2026-08-28T19:11:05Z</time>
  <course>35.36</course>
  <speed>0.01</speed>
  <fix>3d</fix>
</trkpt>
<trkpt lat="40.0728325" lon="-105.2307631">
  <ele>1595.68</ele>
  <time>2026-08-28T19:11:05Z</time>
  <course>329.15</course>
  <speed>0.03</speed>
  <fix>3d</fix>
</trkpt>
<trkpt lat="40.0728324" lon="-105.230763">
  <ele>1595.74</ele>
  <time>2026-08-28T19:11:05Z</time>
  <course>35.37</course>
  <speed>0.01</speed>
  <fix>3d</fix>
</trkpt>
<trkpt lat="40.0728326" lon="-105.2307632">
  <ele>1595.68</ele>
  <time>2026-08-28T19:11:05Z</time>
  <course>331.64</course>
  <speed>0.03</speed>
  <fix>3d</fix>
</trkpt>
<trkpt lat="40.0728324" lon="-105.2307631">
  <ele>1595.75</ele>
  <time>2026-08-28T19:11:05Z</time>
  <course>35.37</course>
  <speed>0.01</speed>
  <fix>3d</fix>
</trkpt>
<trkpt lat="40.0728326" lon="-105.2307632">
  <ele>1595.68</ele>
  <time>2026-08-28T19:11:05Z</time>
  <course>333.45</course>
  <speed>0.03</speed>
  <fix>3d</fix>
</trkpt>
<trkpt lat="40.0728325" lon="-105.2307631">
  <ele>1595.76</ele>
  <time>2026-08-28T19:11:05Z</time>
  <course>35.38</course>
  <speed>0.01</speed>
  <fix>3d</fix>
</trkpt>
<trkpt lat="40.0728327" lon="-105.2307632">
  <ele>1595.68</ele>
  <time>2026-08-28T19:11:05Z</time>
  <course>334.49</course>
  <speed>0.03</speed>
  <fix>3d</fix>
</trkpt>
<trkpt lat="40.0728325" lon="-105.2307631">
  <ele>1595.75</ele>
  <time>2026-08-28T19:11:05Z</time>
  <course>35.39</course>
  <speed>0.01</speed>
  <fix>3d</fix>
</trkpt>
<trkpt lat="40.0728327" lon="-105.2307632">
  <ele>1595.68</ele>
  <time>2026-08-28T19:11:05Z</time>
  <course>334.61</course>
  <speed>0.03</speed>
  <fix>3d</fix>
</trkpt>
<trkpt lat="40.0728326" lon="-105.2307632">
  <ele>1595.75</ele>
  <time>2026-08-28T19:11:05Z</time>
  <course>35.37</course>
  <speed>0.01</speed>
  <fix>3d</fix>
</trkpt>
<trkpt lat="40.0728328" lon="-105.2307633">
  <ele>1595.68</ele>
  <time>2026-08-28T19:11:05Z</time>
  <course>334.13</course>
  <speed>0.03</speed>
  <fix>3d</fix>
</trkpt>
<trkpt lat="40.0728326" lon="-105.2307632">
  <ele>1595.75</ele>
  <time>2026-08-28T19:11:05Z</time>
  <course>35.39</course>
  <speed>0.0</speed>
  <fix>3d</fix>
</trkpt>
<trkpt lat="40.0728328" lon="-105.2307634">
  <ele>1595.68</ele>
  <time>2026-08-28T19:11:05Z</time>
  <course>337.95</course>
  <speed>0.02</speed>
  <fix>3d</fix>
</trkpt>
<trkpt lat="40.0728327" lon="-105.2307632">
  <ele>1595.75</ele>
  <time>2026-08-28T19:11:05Z</time>
  <course>35.36</course>
  <speed>0.0</speed>
  <fix>3d</fix>
</trkpt>
<trkpt lat="40.0728329" lon="-105.2307634">
  <ele>1595.67</ele>
  <time>2026-08-28T19:11:05Z</time>
  <course>346.01</course>
  <speed>0.02</speed>
  <fix>3d</fix>
</trkpt>
<trkpt lat="40.0728327" lon="-105.2307632">
  <ele>1595.75</ele>
  <time>2026-08-28T19:11:05Z</time>
  <course>35.37</course>
  <speed>0.0</speed>
  <fix>3d</fix>
</trkpt>
<trkpt lat="40.0728329" lon="-105.2307634">
  <ele>1595.67</ele>
  <time>2026-08-28T19:11:05Z</time>
  <course>349.4</course>
  <speed>0.02</speed>
  <fix>3d</fix>
</trkpt>
<trkpt lat="40.0728328" lon="-105.2307632">
  <ele>1595.75</ele>
  <time>2026-08-28T19:11:05Z</time>
  <course>35.38</course>
  <speed>0.0</speed>
  <fix>3d</fix>
</trkpt>
<trkpt lat="40.0728329" lon="-105.2307634">
  <ele>1595.67</ele>
  <time>2026-08-28T19:11:05Z</time>
  <course>349.17</course>
  <speed>0.02</speed>
  <fix>3d</fix>
</trkpt>
<trkpt lat="40.0728328" lon="-105.2307633">
  <ele>1595.75</ele>
  <time>2026-08-28T19:11:05Z</time>
  <course>35.38</course>
  <speed>0.01</speed>
  <fix>3d</fix>
</trkpt>
<trkpt lat="40.072833" lon="-105.2307634">
  <ele>1595.67</ele>
  <time>2026-08-28T19:11:05Z</time>
  <course>344.6</course>
  <speed>0.03</speed>
  <fix>3d</fix>
</trkpt>
<trkpt lat="40.0728329" lon="-105.2307633">
  <ele>1595.75</ele>
  <time>2026-08-28T19:11:05Z</time>
  <course>35.37</course>
  <speed>0.01</speed>
  <fix>3d</fix>
</trkpt>
<trkpt lat="40.072833" lon="-105.2307635">
  <ele>1595.67</ele>
  <time>2026-08-28T19:11:05Z</time>
  <course>340.31</course>
  <speed>0.03</speed>
  <fix>3d</fix>
</trkpt>
<trkpt lat="40.0728329" lon="-105.2307633">
  <ele>1595.75</ele>
  <time>2026-08-28T19:11:05Z</time>
  <course>35.38</course>
  <speed>0.01414213562373095</speed>
  <fix>3d</fix>
</trkpt>
<trkpt lat="40.0728331" lon="-105.2307635">
  <ele>1595.66</ele>
  <time>2026-08-28T19:11:05Z</time>
  <course>337.51</course>
  <speed>0.03</speed>
  <fix>3d</fix>
</trkpt>
<trkpt lat="40.072833" lon="-105.2307634">
  <ele>1595.75</ele>
  <time>2026-08-28T19:11:05Z</time>
  <course>35.38</course>
  <speed>0.01414213562373095</speed>
  <fix>3d</fix>
</trkpt>
<trkpt lat="40.0728332" lon="-105.2307635">
  <ele>1595.66</ele>
  <time>2026-08-28T19:11:05Z</time>
  <course>335.51</course>
  <speed>0.04</speed>
  <fix>3d</fix>
</trkpt>
<trkpt lat="40.0728331" lon="-105.2307634">
  <ele>1595.75</ele>
  <time>2026-08-28T19:11:05Z</time>
  <course>35.39</course>
  <speed>0.01414213562373095</speed>
  <fix>3d</fix>
</trkpt>
<trkpt lat="40.0728333" lon="-105.2307635">
  <ele>1595.66</ele>
  <time>2026-08-28T19:11:05Z</time>
  <course>334.16</course>
  <speed>0.04</speed>
  <fix>3d</fix>
</trkpt>
<trkpt lat="40.0728332" lon="-105.2307635">
  <ele>1595.75</ele>
  <time>2026-08-28T19:11:05Z</time>
  <course>35.38</course>
  <speed>0.022360679774997897</speed>
  <fix>3d</fix>
</trkpt>
<trkpt lat="40.0728333" lon="-105.2307636">
  <ele>1595.66</ele>
  <time>2026-08-28T19:11:05Z</time>
  <course>333.2</course>
  <speed>0.04</speed>
  <fix>3d</fix>
</trkpt>
<trkpt lat="40.0728332" lon="-105.2307636">
  <ele>1595.75</ele>
  <time>2026-08-28T19:11:05Z</time>
  <course>35.37</course>
  <speed>0.022360679774997897</speed>
  <fix>3d</fix>
</trkpt>
<trkpt lat="40.0728334" lon="-105.2307637">
  <ele>1595.65</ele>
  <time>2026-08-28T19:11:05Z</time>
  <course>332.58</course>
  <speed>0.05</speed>
  <fix>3d</fix>
</trkpt>
<trkpt lat="40.0728333" lon="-105.2307636">
  <ele>1595.75</ele>
  <time>2026-08-28T19:11:05Z</time>
  <course>35.37</course>
  <speed>0.022360679774997897</speed>
  <fix>3d</fix>
</trkpt>
<trkpt lat="40.0728335" lon="-105.2307637">
  <ele>1595.65</ele>
  <time>2026-08-28T19:11:05Z</time>
  <course>332.37</course>
  <speed>0.05</speed>
  <fix>3d</fix>
</trkpt>
<trkpt lat="40.0728334" lon="-105.2307637">
  <ele>1595.75</ele>
  <time>2026-08-28T19:11:05Z</time>
  <course>35.37</course>
  <speed>0.0282842712474619</speed>
  <fix>3d</fix>
</trkpt>
<trkpt lat="40.0728336" lon="-105.2307637">
  <ele>1595.65</ele>
  <time>2026-08-28T19:11:05Z</time>
  <course>332.08</course>
  <speed>0.05</speed>
  <fix>3d</fix>
</trkpt>
<trkpt lat="40.0728335" lon="-105.2307637">
  <ele>1595.75</ele>
  <time>2026-08-28T19:11:05Z</time>
  <course>35.37</course>
  <speed>0.0282842712474619</speed>
  <fix>3d</fix>
</trkpt>
<trkpt lat="40.0728337" lon="-105.2307638">
  <ele>1595.65</ele>
  <time>2026-08-28T19:11:05Z</time>
  <course>331.96</course>
  <speed>0.05</speed>
  <fix>3d</fix>
</trkpt>
<trkpt lat="40.0728336" lon="-105.2307638">
  <ele>1595.74</ele>
  <time>2026-08-28T19:11:05Z</time>
  <course>35.36</course>
  <speed>0.0282842712474619</speed>
  <fix>3d</fix>
</trkpt>
<trkpt lat="40.0728338" lon="-105.2307639">
  <ele>1595.65</ele>
  <time>2026-08-28T19:11:05Z</time>
  <course>332.06</course>
  <speed>0.05</speed>
  <fix>3d</fix>
</trkpt>
<trkpt lat="40.0728337" lon="-105.2307639">
  <ele>1595.74</ele>
  <time>2026-08-28T19:11:05Z</time>
  <course>35.37</course>
  <speed>0.0282842712474619</speed>
  <fix>3d</fix>
</trkpt>
<trkpt lat="40.0728338" lon="-105.2307639">
  <ele>1595.64</ele>
  <time>2026-08-28T19:11:05Z</time>
  <course>332.22</course>
  <speed>0.05</speed>
  <fix>3d</fix>
</trkpt>
<trkpt lat="40.0728338" lon="-105.2307639">
  <ele>1595.74</ele>
  <time>2026-08-28T19:11:05Z</time>
  <course>35.37</course>
  <speed>0.04242640687119285</speed>
  <fix>3d</fix>
</trkpt>
<trkpt lat="40.0728339" lon="-105.230764">
  <ele>1595.64</ele>
  <time>2026-08-28T19:11:05Z</time>
  <course>331.19</course>
  <speed>0.06</speed>
  <fix>3d</fix>
</trkpt>
<trkpt lat="40.0728339" lon="-105.230764">
  <ele>1595.74</ele>
  <time>2026-08-28T19:11:05Z</time>
  <course>35.39</course>
  <speed>0.04242640687119285</speed>
  <fix>3d</fix>
</trkpt>
<trkpt lat="40.072834" lon="-105.2307641">
  <ele>1595.64</ele>
  <time>2026-08-28T19:11:05Z</time>
  <course>329.88</course>
  <speed>0.06</speed>
  <fix>3d</fix>
</trkpt>
<trkpt lat="40.072834" lon="-105.2307641">
  <ele>1595.74</ele>
  <time>2026-08-28T19:11:05Z</time>
  <course>35.37</course>
  <speed>0.04242640687119285</speed>
  <fix>3d</fix>
</trkpt>
<trkpt lat="40.0728341" lon="-105.2307642">
  <ele>1595.64</ele>
  <time>2026-08-28T19:11:05Z</time>
  <course>327.83</course>
  <speed>0.07</speed>
  <fix>3d</fix>
</trkpt>
<trkpt lat="40.0728341" lon="-105.2307642">
  <ele>1595.74</ele>
  <time>2026-08-28T19:11:05Z</time>
  <course>35.36</course>
  <speed>0.0282842712474619</speed>
  <fix>3d</fix>
</trkpt>
<trkpt lat="40.0728342" lon="-105.2307642">
  <ele>1595.64</ele>
  <time>2026-08-28T19:11:05Z</time>
  <course>325.41</course>
  <speed>0.06</speed>
  <fix>3d</fix>
</trkpt>
<trkpt lat="40.0728342" lon="-105.2307643">
  <ele>1595.74</ele>
  <time>2026-08-28T19:11:05Z</time>
  <course>35.35</course>
  <speed>0.022360679774997897</speed>
  <fix>3d</fix>
</trkpt>
<trkpt lat="40.0728343" lon="-105.2307643">
  <ele>1595.64</ele>
  <time>2026-08-28T19:11:05Z</time>
  <course>325.16</course>
  <speed>0.05</speed>
  <fix>3d</fix>
</trkpt>
<trkpt lat="40.0728342" lon="-105.2307643">
  <ele>1595.74</ele>
  <time>2026-08-28T19:11:05Z</time>
  <course>35.35</course>
  <speed>0.01414213562373095</speed>
  <fix>3d</fix>
</trkpt>
<trkpt lat="40.0728344" lon="-105.2307644">
  <ele>1595.64</ele>
  <time>2026-08-28T19:11:05Z</time>
  <course>326.38</course>
  <speed>0.05</speed>
  <fix>3d</fix>
</trkpt>
<trkpt lat="40.0728343" lon="-105.2307644">
  <ele>1595.73</ele>
  <time>2026-08-28T19:11:05Z</time>
  <course>35.35</course>
  <speed>0.01414213562373095</speed>
  <fix>3d</fix>
</trkpt>
<trkpt lat="40.0728345" lon="-105.2307644">
  <ele>1595.64</ele>
  <time>2026-08-28T19:11:05Z</time>
  <course>328.32</course>
  <speed>0.04</speed>
  <fix>3d</fix>
</trkpt>
<trkpt lat="40.0728344" lon="-105.2307644">
  <ele>1595.73</ele>
  <time>2026-08-28T19:11:05Z</time>
  <course>35.34</course>
  <speed>0.01414213562373095</speed>
  <fix>3d</fix>
</trkpt>
<trkpt lat="40.0728346" lon="-105.2307645">
  <ele>1595.64</ele>
  <time>2026-08-28T19:11:05Z</time>
  <course>330.46</course>
  <speed>0.04</speed>
  <fix>3d</fix>
</trkpt>
<trkpt lat="40.0728344" lon="-105.2307645">
  <ele>1595.73</ele>
  <time>2026-08-28T19:11:05Z</time>
  <course>35.35</course>
  <speed>0.01</speed>
  <fix>3d</fix>
</trkpt>
<trkpt lat="40.0728346" lon="-105.2307646">
  <ele>1595.64</ele>
  <time>2026-08-28T19:11:05Z</time>
  <course>332.16</course>
  <speed>0.04</speed>
  <fix>3d</fix>
</trkpt>
<trkpt lat="40.0728345" lon="-105.2307645">
  <ele>1595.74</ele>
  <time>2026-08-28T19:11:05Z</time>
  <course>35.36</course>
  <speed>0.01</speed>
  <fix>3d</fix>
</trkpt>
<trkpt lat="40.0728347" lon="-105.2307646">
  <ele>1595.64</ele>
  <time>2026-08-28T19:11:05Z</time>
  <course>333.13</course>
  <speed>0.04</speed>
  <fix>3d</fix>
</trkpt>
<trkpt lat="40.0728346" lon="-105.2307646">
  <ele>1595.73</ele>
  <time>2026-08-28T19:11:05Z</time>
  <course>35.37</course>
  <speed>0.0</speed>
  <fix>3d</fix>
</trkpt>
<trkpt lat="40.0728347" lon="-105.2307647">
  <ele>1595.64</ele>
  <time>2026-08-28T19:11:05Z</time>
  <course>333.64</course>
  <speed>0.03</speed>
  <fix>3d</fix>
</trkpt>
<trkpt lat="40.0728346" lon="-105.2307646">
  <ele>1595.73</ele>
  <time>2026-08-28T19:11:05Z</time>
  <course>35.37</course>
  <speed>0.0</speed>
  <fix>3d</fix>
</trkpt>
<trkpt lat="40.0728348" lon="-105.2307647">
  <ele>1595.64</ele>
  <time>2026-08-28T19:11:05Z</time>
  <course>334.07</course>
  <speed>0.03</speed>
  <fix>3d</fix>
</trkpt>
<trkpt lat="40.0728347" lon="-105.2307646">
  <ele>1595.73</ele>
  <time>2026-08-28T19:11:05Z</time>
  <course>35.37</course>
  <speed>0.0</speed>
  <fix>3d</fix>
</trkpt>
<trkpt lat="40.0728348" lon="-105.2307647">
  <ele>1595.65</ele>
  <time>2026-08-28T19:11:05Z</time>
  <course>334.5</course>
  <speed>0.03</speed>
  <fix>3d</fix>
</trkpt>
<trkpt lat="40.0728347" lon="-105.2307647">
  <ele>1595.73</ele>
  <time>2026-08-28T19:11:05Z</time>
  <course>35.38</course>
  <speed>0.0</speed>
  <fix>3d</fix>
</trkpt>
<trkpt lat="40.0728349" lon="-105.2307647">
  <ele>1595.65</ele>
  <time>2026-08-28T19:11:05Z</time>
  <course>335.12</course>
  <speed>0.03</speed>
  <fix>3d</fix>
</trkpt>
<trkpt lat="40.0728348" lon="-105.2307647">
  <ele>1595.73</ele>
  <time>2026-08-28T19:11:05Z</time>
  <course>35.34</course>
  <speed>0.0</speed>
  <fix>3d</fix>
</trkpt>
<trkpt lat="40.072835" lon="-105.2307647">
  <ele>1595.65</ele>
  <time>2026-08-28T19:11:05Z</time>
  <course>338.29</course>
  <speed>0.02</speed>
  <fix>3d</fix>
</trkpt>
<trkpt lat="40.0728348" lon="-105.2307647">
  <ele>1595.73</ele>
  <time>2026-08-28T19:11:05Z</time>
  <course>35.35</course>
  <speed>0.0</speed>
  <fix>3d</fix>
</trkpt>
<trkpt lat="40.072835" lon="-105.2307647">
  <ele>1595.65</ele>
  <time>2026-08-28T19:11:05Z</time>
  <course>347.68</course>
  <speed>0.02</speed>
  <fix>3d</fix>
</trkpt>
<trkpt lat="40.0728349" lon="-105.2307647">
  <ele>1595.73</ele>
  <time>2026-08-28T19:11:05Z</time>
  <course>35.35</course>
  <speed>0.0</speed>
  <fix>3d</fix>
</trkpt>
<trkpt lat="40.0728351" lon="-105.2307648">
  <ele>1595.65</ele>
  <time>2026-08-28T19:11:05Z</time>
  <course>349.41</course>
  <speed>0.02</speed>
  <fix>3d</fix>
</trkpt>
<trkpt lat="40.0728349" lon="-105.2307647">
  <ele>1595.73</ele>
  <time>2026-08-28T19:11:05Z</time>
  <course>35.34</course>
  <speed>0.01</speed>
  <fix>3d</fix>
</trkpt>
<trkpt lat="40.0728351" lon="-105.2307649">
  <ele>1595.65</ele>
  <time>2026-08-28T19:11:05Z</time>
  <course>345.02</course>
  <speed>0.03</speed>
  <fix>3d</fix>
</trkpt>
<trkpt lat="40.072835" lon="-105.2307647">
  <ele>1595.74</ele>
  <time>2026-08-28T19:11:05Z</time>
  <course>35.35</course>
  <speed>0.01</speed>
  <fix>3d</fix>
</trkpt>
<trkpt lat="40.0728352" lon="-105.2307649">
  <ele>1595.65</ele>
  <time>2026-08-28T19:11:05Z</time>
  <course>340.8</course>
  <speed>0.03</speed>
  <fix>3d</fix>
</trkpt>
<trkpt lat="40.0728351" lon="-105.2307648">
  <ele>1595.74</ele>
  <time>2026-08-28T19:11:05Z</time>
  <course>35.36</course>
  <speed>0.01414213562373095</speed>
  <fix>3d</fix>
</trkpt>
<trkpt lat="40.0728352" lon="-105.2307649">
  <ele>1595.66</ele>
  <time>2026-08-28T19:11:05Z</time>
  <course>337.21</course>
  <speed>0.04</speed>
  <fix>3d</fix>
</trkpt>
<trkpt lat="40.0728351" lon="-105.2307648">
  <ele>1595.74</ele>
  <time>2026-08-28T19:11:05Z</time>
  <course>35.36</course>
  <speed>0.022360679774997897</speed>
  <fix>3d</fix>
</trkpt>
<trkpt lat="40.0728353" lon="-105.2307649">
  <ele>1595.66</ele>
  <time>2026-08-28T19:11:05Z</time>
  <course>334.73</course>
  <speed>0.04</speed>
  <fix>3d</fix>
</trkpt>
<trkpt lat="40.0728352" lon="-105.2307649">
  <ele>1595.74</ele>
  <time>2026-08-28T19:11:05Z</time>
  <course>35.37</course>
  <speed>0.022360679774997897</speed>
  <fix>3d</fix>
</trkpt>
<trkpt lat="40.0728354" lon="-105.2307649">
  <ele>1595.66</ele>
  <time>2026-08-28T19:11:05Z</time>
  <course>333.25</course>
  <speed>0.05</speed>
  <fix>3d</fix>
</trkpt>
<trkpt lat="40.0728353" lon="-105.2307649">
  <ele>1595.74</ele>
  <time>2026-08-28T19:11:05Z</time>
  <course>35.36</course>
  <speed>0.0282842712474619</speed>
  <fix>3d</fix>
</trkpt>
<trkpt lat="40.0728355" lon="-105.230765">
  <ele>1595.66</ele>
  <time>2026-08-28T19:11:05Z</time>
  <course>332.62</course>
  <speed>0.05</speed>
  <fix>3d</fix>
</trkpt>
<trkpt lat="40.0728354" lon="-105.230765">
  <ele>1595.73</ele>
  <time>2026-08-28T19:11:05Z</time>
  <course>35.36</course>
  <speed>0.0282842712474619</speed>
  <fix>3d</fix>
</trkpt>
<trkpt lat="40.0728356" lon="-105.2307651">
  <ele>1595.66</ele>
  <time>2026-08-28T19:11:05Z</time>
  <course>332.46</course>
  <speed>0.05</speed>
  <fix>3d</fix>
</trkpt>
<trkpt lat="40.0728355" lon="-105.2307651">
  <ele>1595.73</ele>
  <time>2026-08-28T19:11:05Z</time>
  <course>35.36</course>
  <speed>0.0282842712474619</speed>
  <fix>3d</fix>
</trkpt>
<trkpt lat="40.0728356" lon="-105.2307651">
  <ele>1595.66</ele>
  <time>2026-08-28T19:11:05Z</time>
  <course>332.39</course>
  <speed>0.05</speed>
  <fix>3d</fix>
</trkpt>
<trkpt lat="40.0728356" lon="-105.2307651">
  <ele>1595.72</ele>
  <time>2026-08-28T19:11:05Z</time>
  <course>35.34</course>
  <speed>0.03605551275463989</speed>
  <fix>3d</fix>
</trkpt>
<trkpt lat="40.0728357" lon="-105.2307652">
  <ele>1595.66</ele>
  <time>2026-08-28T19:11:05Z</time>
  <course>332.4</course>
  <speed>0.06</speed>
  <fix>3d</fix>
</trkpt>
<trkpt lat="40.0728357" lon="-105.2307652">
  <ele>1595.72</ele>
  <time>2026-08-28T19:11:05Z</time>
  <course>35.32</course>
  <speed>0.03605551275463989</speed>
  <fix>3d</fix>
</trkpt>
<trkpt lat="40.0728358" lon="-105.2307653">
  <ele>1595.66</ele>
  <time>2026-08-28T19:11:05Z</time>
  <course>332.28</course>
  <speed>0.06</speed>
  <fix>3d</fix>
</trkpt>
<trkpt lat="40.0728358" lon="-105.2307653">
  <ele>1595.72</ele>
  <time>2026-08-28T19:11:05Z</time>
  <course>35.29</course>
  <speed>0.03605551275463989</speed>
  <fix>3d</fix>
</trkpt>
<trkpt lat="40.0728359" lon="-105.2307654">
  <ele>1595.66</ele>
  <time>2026-08-28T19:11:05Z</time>
  <course>332.07</course>
  <speed>0.06</speed>
  <fix>3d</fix>
</trkpt>
<trkpt lat="40.0728359" lon="-105.2307653">
  <ele>1595.73</ele>
  <time>2026-08-28T19:11:05Z</time>
  <course>35.3</course>
  <speed>0.03605551275463989</speed>
  <fix>3d</fix>
</trkpt>
<trkpt lat="40.072836" lon="-105.2307654">
  <ele>1595.67</ele>
  <time>2026-08-28T19:11:05Z</time>
  <course>331.92</course>
  <speed>0.06</speed>
  <fix>3d</fix>
</trkpt>
<trkpt lat="40.072836" lon="-105.2307654">
  <ele>1595.73</ele>
  <time>2026-08-28T19:11:05Z</time>
  <course>35.34</course>
  <speed>0.03605551275463989</speed>
  <fix>3d</fix>
</trkpt>
<trkpt lat="40.0728361" lon="-105.2307655">
  <ele>1595.67</ele>
  <time>2026-08-28T19:11:05Z</time>
  <course>331.79</course>
  <speed>0.06</speed>
  <fix>3d</fix>
</trkpt>
<trkpt lat="40.0728361" lon="-105.2307655">
  <ele>1595.74</ele>
  <time>2026-08-28T19:11:05Z</time>
  <course>35.35</course>
  <speed>0.04242640687119285</speed>
  <fix>3d</fix>
</trkpt>
<trkpt lat="40.0728362" lon="-105.2307656">
  <ele>1595.68</ele>
  <time>2026-08-28T19:11:05Z</time>
  <course>330.58</course>
  <speed>0.07</speed>
  <fix>3d</fix>
</trkpt>
<trkpt lat="40.0728362" lon="-105.2307656">
  <ele>1595.75</ele>
  <time>2026-08-28T19:11:05Z</time>
  <course>35.37</course>
  <speed>0.04242640687119285</speed>
  <fix>3d</fix>
</trkpt>
<trkpt lat="40.0728364" lon="-105.2307656">
  <ele>1595.68</ele>
  <time>2026-08-28T19:11:05Z</time>
  <course>328.64</course>
  <speed>0.07</speed>
  <fix>3d</fix>
</trkpt>
<trkpt lat="40.0728363" lon="-105.2307657">
  <ele>1595.75</ele>
  <time>2026-08-28T19:11:05Z</time>
  <course>35.39</course>
  <speed>0.0282842712474619</speed>
  <fix>3d</fix>
</trkpt>
<trkpt lat="40.0728365" lon="-105.2307657">
  <ele>1595.69</ele>
  <time>2026-08-28T19:11:05Z</time>
  <course>326.59</course>
  <speed>0.07</speed>
  <fix>3d</fix>
</trkpt>
<trkpt lat="40.0728364" lon="-105.2307658">
  <ele>1595.74</ele>
  <time>2026-08-28T19:11:05Z</time>
  <course>35.39</course>
  <speed>0.0282842712474619</speed>
  <fix>3d</fix>
</trkpt>
<trkpt lat="40.0728366" lon="-105.2307658">
  <ele>1595.69</ele>
  <time>2026-08-28T19:11:05Z</time>
  <course>325.32</course>
  <speed>0.06</speed>
  <fix>3d</fix>
</trkpt>
<trkpt lat="40.0728365" lon="-105.2307658">
  <ele>1595.74</ele>
  <time>2026-08-28T19:11:05Z</time>
  <course>35.38</course>
  <speed>0.01414213562373095</speed>
  <fix>3d</fix>
</trkpt>
<trkpt lat="40.0728366" lon="-105.2307659">
  <ele>1595.69</ele>
  <time>2026-08-28T19:11:05Z</time>
  <course>325.79</course>
  <speed>0.05</speed>
  <fix>3d</fix>
</trkpt>
<trkpt lat="40.0728365" lon="-105.2307659">
  <ele>1595.74</ele>
  <time>2026-08-28T19:11:05Z</time>
  <course>35.38</course>
  <speed>0.01414213562373095</speed>
  <fix>3d</fix>
</trkpt>
<trkpt lat="40.0728367" lon="-105.230766">
  <ele>1595.69</ele>
  <time>2026-08-28T19:11:05Z</time>
  <course>327.69</course>
  <speed>0.04</speed>
  <fix>3d</fix>
</trkpt>
<trkpt lat="40.0728366" lon="-105.2307659">
  <ele>1595.74</ele>
  <time>2026-08-28T19:11:05Z</time>
  <course>35.37</course>
  <speed>0.01414213562373095</speed>
  <fix>3d</fix>
</trkpt>
<trkpt lat="40.0728368" lon="-105.2307661">
  <ele>1595.69</ele>
  <time>2026-08-28T19:11:05Z</time>
  <course>330.16</course>
  <speed>0.04</speed>
  <fix>3d</fix>
</trkpt>
<trkpt lat="40.0728367" lon="-105.230766">
  <ele>1595.74</ele>
  <time>2026-08-28T19:11:05Z</time>
  <course>35.37</course>
  <speed>0.01414213562373095</speed>
  <fix>3d</fix>
</trkpt>
<trkpt lat="40.0728369" lon="-105.2307661">
  <ele>1595.69</ele>
  <time>2026-08-28T19:11:05Z</time>
  <course>332.21</course>
  <speed>0.04</speed>
  <fix>3d</fix>
</trkpt>
<trkpt lat="40.0728367" lon="-105.230766">
  <ele>1595.74</ele>
  <time>2026-08-28T19:11:05Z</time>
  <course>35.36</course>
  <speed>0.01</speed>
  <fix>3d</fix>
</trkpt>
<trkpt lat="40.072837" lon="-105.2307661">
  <ele>1595.69</ele>
  <time>2026-08-28T19:11:05Z</time>
  <course>333.42</course>
  <speed>0.04</speed>
  <fix>3d</fix>
</trkpt>
<trkpt lat="40.0728368" lon="-105.230766">
  <ele>1595.74</ele>
  <time>2026-08-28T19:11:05Z</time>
  <course>35.35</course>
  <speed>0.01</speed>
  <fix>3d</fix>
</trkpt>
<trkpt lat="40.072837" lon="-105.2307661">
  <ele>1595.69</ele>
  <time>2026-08-28T19:11:05Z</time>
  <course>334.02</course>
  <speed>0.04</speed>
  <fix>3d</fix>
</trkpt>
<trkpt lat="40.0728369" lon="-105.2307661">
  <ele>1595.74</ele>
  <time>2026-08-28T19:11:05Z</time>
  <course>35.35</course>
  <speed>0.01</speed>
  <fix>3d</fix>
</trkpt>
<trkpt lat="40.0728371" lon="-105.2307662">
  <ele>1595.69</ele>
  <time>2026-08-28T19:11:05Z</time>
  <course>334.09</course>
  <speed>0.04</speed>
  <fix>3d</fix>
</trkpt>
<trkpt lat="40.0728369" lon="-105.2307661">
  <ele>1595.75</ele>
  <time>2026-08-28T19:11:05Z</time>
  <course>35.35</course>
  <speed>0.01</speed>
  <fix>3d</fix>
</trkpt>
<trkpt lat="40.0728371" lon="-105.2307663">
  <ele>1595.69</ele>
  <time>2026-08-28T19:11:05Z</time>
  <course>333.8</course>
  <speed>0.04</speed>
  <fix>3d</fix>
</trkpt>
<trkpt lat="40.072837" lon="-105.2307662">
  <ele>1595.75</ele>
  <time>2026-08-28T19:11:05Z</time>
  <course>35.36</course>
  <speed>0.0</speed>
  <fix>3d</fix>
</trkpt>
<trkpt lat="40.0728372" lon="-105.2307663">
  <ele>1595.69</ele>
  <time>2026-08-28T19:11:05Z</time>
  <course>333.57</course>
  <speed>0.03</speed>
  <fix>3d</fix>
</trkpt>
<trkpt lat="40.0728371" lon="-105.2307662">
  <ele>1595.75</ele>
  <time>2026-08-28T19:11:05Z</time>
  <course>35.37</course>
  <speed>0.0</speed>
  <fix>3d</fix>
</trkpt>
<trkpt lat="40.0728372" lon="-105.2307663">
  <ele>1595.7</ele>
  <time>2026-08-28T19:11:05Z</time>
  <course>337.13</course>
  <speed>0.02</speed>
  <fix>3d</fix>
</trkpt>
<trkpt lat="40.0728371" lon="-105.2307662">
  <ele>1595.75</ele>
  <time>2026-08-28T19:11:05Z</time>
  <course>35.38</course>
  <speed>0.0</speed>
  <fix>3d</fix>
</trkpt>
<trkpt lat="40.0728373" lon="-105.2307663">
  <ele>1595.69</ele>
  <time>2026-08-28T19:11:05Z</time>
  <course>347.26</course>
  <speed>0.02</speed>
  <fix>3d</fix>
</trkpt>
<trkpt lat="40.0728371" lon="-105.2307662">
  <ele>1595.75</ele>
  <time>2026-08-28T19:11:05Z</time>
  <course>35.38</course>
  <speed>0.0</speed>
  <fix>3d</fix>
</trkpt>
<trkpt lat="40.0728374" lon="-105.2307663">
  <ele>1595.69</ele>
  <time>2026-08-28T19:11:05Z</time>
  <course>349.26</course>
  <speed>0.02</speed>
  <fix>3d</fix>
</trkpt>
<trkpt lat="40.0728372" lon="-105.2307662">
  <ele>1595.75</ele>
  <time>2026-08-28T19:11:05Z</time>
  <course>35.37</course>
  <speed>0.01</speed>
  <fix>3d</fix>
</trkpt>
<trkpt lat="40.0728374" lon="-105.2307663">
  <ele>1595.69</ele>
  <time>2026-08-28T19:11:05Z</time>
  <course>346.55</course>
  <speed>0.03</speed>
  <fix>3d</fix>
</trkpt>
<trkpt lat="40.0728373" lon="-105.2307663">
  <ele>1595.74</ele>
  <time>2026-08-28T19:11:05Z</time>
  <course>35.36</course>
  <speed>0.01</speed>
  <fix>3d</fix>
</trkpt>
<trkpt lat="40.0728374" lon="-105.2307663">
  <ele>1595.69</ele>
  <time>2026-08-28T19:11:05Z</time>
  <course>343.16</course>
  <speed>0.03</speed>
  <fix>3d</fix>
</trkpt>
<trkpt lat="40.0728373" lon="-105.2307663">
  <ele>1595.74</ele>
  <time>2026-08-28T19:11:05Z</time>
  <course>35.36</course>
  <speed>0.01414213562373095</speed>
  <fix>3d</fix>
</trkpt>
<trkpt lat="40.0728375" lon="-105.2307664">
  <ele>1595.69</ele>
  <time>2026-08-28T19:11:05Z</time>
  <course>340.43</course>
  <speed>0.04</speed>
  <fix>3d</fix>
</trkpt>
<trkpt lat="40.0728374" lon="-105.2307663">
  <ele>1595.74</ele>
  <time>2026-08-28T19:11:05Z</time>
  <course>35.37</course>
  <speed>0.022360679774997897</speed>
  <fix>3d</fix>
</trkpt>
<trkpt lat="40.0728376" lon="-105.2307665">
  <ele>1595.69</ele>
  <time>2026-08-28T19:11:05Z</time>
  <course>338.47</course>
  <speed>0.04</speed>
  <fix>3d</fix>
</trkpt>
<trkpt lat="40.0728375" lon="-105.2307664">
  <ele>1595.74</ele>
  <time>2026-08-28T19:11:05Z</time>
  <course>35.37</course>
  <speed>0.022360679774997897</speed>
  <fix>3d</fix>
</trkpt>
<trkpt lat="40.0728377" lon="-105.2307665">
  <ele>1595.69</ele>
  <time>2026-08-28T19:11:05Z</time>
  <course>336.69</course>
  <speed>0.05</speed>
  <fix>3d</fix>
</trkpt>
<trkpt lat="40.0728376" lon="-105.2307664">
  <ele>1595.74</ele>
  <time>2026-08-28T19:11:05Z</time>
  <course>35.37</course>
  <speed>0.022360679774997897</speed>
  <fix>3d</fix>
</trkpt>
<trkpt lat="40.0728377" lon="-105.2307666">
  <ele>1595.69</ele>
  <time>2026-08-28T19:11:05Z</time>
  <course>335.46</course>
  <speed>0.05</speed>
  <fix>3d</fix>
</trkpt>
<trkpt lat="40.0728377" lon="-105.2307665">
  <ele>1595.74</ele>
  <time>2026-08-28T19:11:05Z</time>
  <course>35.36</course>
  <speed>0.0282842712474619</speed>
  <fix>3d</fix>
</trkpt>
<trkpt lat="40.0728378" lon="-105.2307666">
  <ele>1595.69</ele>
  <time>2026-08-28T19:11:05Z</time>
  <course>334.83</course>
  <speed>0.05</speed>
  <fix>3d</fix>
</trkpt>
<trkpt lat="40.0728378" lon="-105.2307666">
  <ele>1595.74</ele>
  <time>2026-08-28T19:11:05Z</time>
  <course>35.36</course>
  <speed>0.03605551275463989</speed>
  <fix>3d</fix>
</trkpt>
<trkpt lat="40.0728379" lon="-105.2307666">
  <ele>1595.69</ele>
  <time>2026-08-28T19:11:05Z</time>
  <course>334.33</course>
  <speed>0.06</speed>
  <fix>3d</fix>
</trkpt>
<trkpt lat="40.0728379" lon="-105.2307666">
  <ele>1595.74</ele>
  <time>2026-08-28T19:11:05Z</time>
  <course>35.36</course>
  <speed>0.03605551275463989</speed>
  <fix>3d</fix>
</trkpt>
<trkpt lat="40.072838" lon="-105.2307667">
  <ele>1595.69</ele>
  <time>2026-08-28T19:11:05Z</time>
  <course>333.96</course>
  <speed>0.06</speed>
  <fix>3d</fix>
</trkpt>
<trkpt lat="40.072838" lon="-105.2307667">
  <ele>1595.74</ele>
  <time>2026-08-28T19:11:05Z</time>
  <course>35.36</course>
  <speed>0.03605551275463989</speed>
  <fix>3d</fix>
</trkpt>
<trkpt lat="40.0728381" lon="-105.2307668">
  <ele>1595.69</ele>
  <time>2026-08-28T19:11:05Z</time>
  <course>333.76</course>
  <speed>0.06</speed>
  <fix>3d</fix>
</trkpt>
<trkpt lat="40.0728381" lon="-105.2307668">
  <ele>1595.75</ele>
  <time>2026-08-28T19:11:05Z</time>
  <course>35.36</course>
  <speed>0.03605551275463989</speed>
  <fix>3d</fix>
</trkpt>
<trkpt lat="40.0728382" lon="-105.2307668">
  <ele>1595.69</ele>
  <time>2026-08-28T19:11:05Z</time>
  <course>333.79</course>
  <speed>0.06</speed>
  <fix>3d</fix>
</trkpt>
<trkpt lat="40.0728382" lon="-105.2307668">
  <ele>1595.75</ele>
  <time>2026-08-28T19:11:05Z</time>
  <course>35.38</course>
  <speed>0.03605551275463989</speed>
  <fix>3d</fix>
</trkpt>
<trkpt lat="40.0728383" lon="-105.2307669">
  <ele>1595.69</ele>
  <time>2026-08-28T19:11:05Z</time>
  <course>334.09</course>
  <speed>0.06</speed>
  <fix>3d</fix>
</trkpt>
<trkpt lat="40.0728383" lon="-105.2307669">
  <ele>1595.75</ele>
  <time>2026-08-28T19:11:05Z</time>
  <course>35.37</course>
  <speed>0.03605551275463989</speed>
  <fix>3d</fix>
</trkpt>
<trkpt lat="40.0728384" lon="-105.230767">
  <ele>1595.69</ele>
  <time>2026-08-28T19:11:05Z</time>
  <course>334.37</course>
  <speed>0.06</speed>
  <fix>3d</fix>
</trkpt>
<trkpt lat="40.0728384" lon="-105.230767">
  <ele>1595.75</ele>
  <time>2026-08-28T19:11:05Z</time>
  <course>35.38</course>
  <speed>0.05</speed>
  <fix>3d</fix>
</trkpt>
<trkpt lat="40.0728386" lon="-105.2307671">
  <ele>1595.69</ele>
  <time>2026-08-28T19:11:05Z</time>
  <course>333.15</course>
  <speed>0.07</speed>
  <fix>3d</fix>
</trkpt>
<trkpt lat="40.0728385" lon="-105.2307671">
  <ele>1595.75</ele>
  <time>2026-08-28T19:11:05Z</time>
  <course>35.4</course>
  <speed>0.04242640687119285</speed>
  <fix>3d</fix>
</trkpt>
<trkpt lat="40.0728387" lon="-105.2307671">
  <ele>1595.69</ele>
  <time>2026-08-28T19:11:05Z</time>
  <course>331.6</course>
  <speed>0.07</speed>
  <fix>3d</fix>
</trkpt>
<trkpt lat="40.0728386" lon="-105.2307672">
  <ele>1595.75</ele>
  <time>2026-08-28T19:11:05Z</time>
  <course>35.38</course>
  <speed>0.0282842712474619</speed>
  <fix>3d</fix>
</trkpt>
<trkpt lat="40.0728388" lon="-105.2307672">
  <ele>1595.69</ele>
  <time>2026-08-28T19:11:05Z</time>
  <course>330.07</course>
  <speed>0.07</speed>
  <fix>3d</fix>
</trkpt>
<trkpt lat="40.0728387" lon="-105.2307672">
  <ele>1595.75</ele>
  <time>2026-08-28T19:11:05Z</time>
  <course>35.39</course>
  <speed>0.0282842712474619</speed>
  <fix>3d</fix>
</trkpt>
<trkpt lat="40.0728389" lon="-105.2307673">
  <ele>1595.68</ele>
  <time>2026-08-28T19:11:05Z</time>
  <course>328.51</course>
  <speed>0.06</speed>
  <fix>3d</fix>
</trkpt>
<trkpt lat="40.0728388" lon="-105.2307673">
  <ele>1595.74</ele>
  <time>2026-08-28T19:11:05Z</time>
  <course>35.38</course>
  <speed>0.01414213562373095</speed>
  <fix>3d</fix>
</trkpt>
<trkpt lat="40.072839" lon="-105.2307674">
  <ele>1595.68</ele>
  <time>2026-08-28T19:11:05Z</time>
  <course>328.49</course>
  <speed>0.05</speed>
  <fix>3d</fix>
</trkpt>
<trkpt lat="40.0728389" lon="-105.2307673">
  <ele>1595.74</ele>
  <time>2026-08-28T19:11:05Z</time>
  <course>35.38</course>
  <speed>0.01414213562373095</speed>
  <fix>3d</fix>
</trkpt>
<trkpt lat="40.072839" lon="-105.2307675">
  <ele>1595.68</ele>
  <time>2026-08-28T19:11:05Z</time>
  <course>330.0</course>
  <speed>0.04</speed>
  <fix>3d</fix>
</trkpt>
<trkpt lat="40.0728389" lon="-105.2307674">
  <ele>1595.74</ele>
  <time>2026-08-28T19:11:05Z</time>
  <course>35.37</course>
  <speed>0.01414213562373095</speed>
  <fix>3d</fix>
</trkpt>
<trkpt lat="40.0728391" lon="-105.2307675">
  <ele>1595.68</ele>
  <time>2026-08-28T19:11:05Z</time>
  <course>332.25</course>
  <speed>0.04</speed>
  <fix>3d</fix>
</trkpt>
<trkpt lat="40.072839" lon="-105.2307674">
  <ele>1595.75</ele>
  <time>2026-08-28T19:11:05Z</time>
  <course>35.37</course>
  <speed>0.01</speed>
  <fix>3d</fix>
</trkpt>
<trkpt lat="40.0728392" lon="-105.2307675">
  <ele>1595.68</ele>
  <time>2026-08-28T19:11:05Z</time>
  <course>334.3</course>
  <speed>0.03</speed>
  <fix>3d</fix>
</trkpt>
<trkpt lat="40.0728391" lon="-105.2307675">
  <ele>1595.75</ele>
  <time>2026-08-28T19:11:05Z</time>
  <course>35.36</course>
  <speed>0.01</speed>
  <fix>3d</fix>
</trkpt>
<trkpt lat="40.0728393" lon="-105.2307675">
  <ele>1595.68</ele>
  <time>2026-08-28T19:11:05Z</time>
  <course>335.59</course>
  <speed>0.03</speed>
  <fix>3d</fix>
</trkpt>
<trkpt lat="40.0728391" lon="-105.2307675">
  <ele>1595.75</ele>
  <time>2026-08-28T19:11:05Z</time>
  <course>35.37</course>
  <speed>0.01</speed>
  <fix>3d</fix>
</trkpt>
<trkpt lat="40.0728393" lon="-105.2307676">
  <ele>1595.68</ele>
  <time>2026-08-28T19:11:05Z</time>
  <course>336.28</course>
  <speed>0.03</speed>
  <fix>3d</fix>
</trkpt>
<trkpt lat="40.0728392" lon="-105.2307675">
  <ele>1595.76</ele>
  <time>2026-08-28T19:11:05Z</time>
  <course>35.37</course>
  <speed>0.0</speed>
  <fix>3d</fix>
</trkpt>
<trkpt lat="40.0728394" lon="-105.2307677">
  <ele>1595.68</ele>
  <time>2026-08-28T19:11:05Z</time>
  <course>336.6</course>
  <speed>0.03</speed>
  <fix>3d</fix>
</trkpt>
<trkpt lat="40.0728393" lon="-105.2307676">
  <ele>1595.76</ele>
  <time>2026-08-28T19:11:05Z</time>
  <course>35.38</course>
  <speed>0.0</speed>
  <fix>3d</fix>
</trkpt>
<trkpt lat="40.0728395" lon="-105.2307677">
  <ele>1595.67</ele>
  <time>2026-08-28T19:11:05Z</time>
  <course>336.77</course>
  <speed>0.03</speed>
  <fix>3d</fix>
</trkpt>
<trkpt lat="40.0728393" lon="-105.2307676">
  <ele>1595.76</ele>
  <time>2026-08-28T19:11:05Z</time>
  <course>35.4</course>
  <speed>0.0</speed>
  <fix>3d</fix>
</trkpt>
<trkpt lat="40.0728395" lon="-105.2307677">
  <ele>1595.67</ele>
  <time>2026-08-28T19:11:05Z</time>
  <course>336.87</course>
  <speed>0.03</speed>
  <fix>3d</fix>
</trkpt>
<trkpt lat="40.0728394" lon="-105.2307676">
  <ele>1595.76</ele>
  <time>2026-08-28T19:11:05Z</time>
  <course>35.39</course>
  <speed>0.0</speed>
  <fix>3d</fix>
</trkpt>
<trkpt lat="40.0728395" lon="-105.2307678">
  <ele>1595.67</ele>
  <time>2026-08-28T19:11:05Z</time>
  <course>341.0</course>
  <speed>0.02</speed>
  <fix>3d</fix>
</trkpt>
<trkpt lat="40.0728394" lon="-105.2307676">
  <ele>1595.76</ele>
  <time>2026-08-28T19:11:05Z</time>
  <course>35.4</course>
  <speed>0.0</speed>
  <fix>3d</fix>
</trkpt>
<trkpt lat="40.0728396" lon="-105.2307678">
  <ele>1595.66</ele>
  <time>2026-08-28T19:11:05Z</time>
  <course>353.35</course>
  <speed>0.01</speed>
  <fix>3d</fix>
</trkpt>
<trkpt lat="40.0728394" lon="-105.2307676">
  <ele>1595.76</ele>
  <time>2026-08-28T19:11:05Z</time>
  <course>35.38</course>
  <speed>0.0</speed>
  <fix>3d</fix>
</trkpt>
<trkpt lat="40.0728396" lon="-105.2307678">
  <ele>1595.66</ele>
  <time>2026-08-28T19:11:05Z</time>
  <course>355.9</course>
  <speed>0.02</speed>
  <fix>3d</fix>
</trkpt>
<trkpt lat="40.0728395" lon="-105.2307677">
  <ele>1595.76</ele>
  <time>2026-08-28T19:11:05Z</time>
  <course>35.39</course>
  <speed>0.01</speed>
  <fix>3d</fix>
</trkpt>
<trkpt lat="40.0728397" lon="-105.2307678">
  <ele>1595.65</ele>
  <time>2026-08-28T19:11:05Z</time>
  <course>352.02</course>
  <speed>0.02</speed>
  <fix>3d</fix>
</trkpt>
<trkpt lat="40.0728396" lon="-105.2307677">
  <ele>1595.75</ele>
  <time>2026-08-28T19:11:05Z</time>
  <course>35.38</course>
  <speed>0.01</speed>
  <fix>3d</fix>
</trkpt>
<trkpt lat="40.0728397" lon="-105.2307678">
  <ele>1595.65</ele>
  <time>2026-08-28T19:11:05Z</time>
  <course>348.02</course>
  <speed>0.03</speed>
  <fix>3d</fix>
</trkpt>
<trkpt lat="40.0728396" lon="-105.2307677">
  <ele>1595.75</ele>
  <time>2026-08-28T19:11:05Z</time>
  <course>35.37</course>
  <speed>0.01</speed>
  <fix>3d</fix>
</trkpt>
<trkpt lat="40.0728398" lon="-105.2307678">
  <ele>1595.64</ele>
  <time>2026-08-28T19:11:05Z</time>
  <course>345.0</course>
  <speed>0.03</speed>
  <fix>3d</fix>
</trkpt>
<trkpt lat="40.0728397" lon="-105.2307677">
  <ele>1595.75</ele>
  <time>2026-08-28T19:11:05Z</time>
  <course>35.38</course>
  <speed>0.01</speed>
  <fix>3d</fix>
</trkpt>
<trkpt lat="40.0728399" lon="-105.2307678">
  <ele>1595.64</ele>
  <time>2026-08-28T19:11:05Z</time>
  <course>342.98</course>
  <speed>0.04</speed>
  <fix>3d</fix>
</trkpt>
<trkpt lat="40.0728398" lon="-105.2307678">
  <ele>1595.74</ele>
  <time>2026-08-28T19:11:05Z</time>
  <course>35.37</course>
  <speed>0.022360679774997897</speed>
  <fix>3d</fix>
</trkpt>
<trkpt lat="40.07284" lon="-105.2307678">
  <ele>1595.63</ele>
  <time>2026-08-28T19:11:05Z</time>
  <course>341.26</course>
  <speed>0.04</speed>
  <fix>3d</fix>
</trkpt>
<trkpt lat="40.0728399" lon="-105.2307678">
  <ele>1595.74</ele>
  <time>2026-08-28T19:11:06Z</time>
  <course>35.37</course>
  <speed>0.022360679774997897</speed>
  <fix>3d</fix>
</trkpt>
<trkpt lat="40.07284" lon="-105.2307678">
  <ele>1595.63</ele>
  <time>2026-08-28T19:11:06Z</time>
  <course>340.23</course>
  <speed>0.04</speed>
  <fix>3d</fix>
</trkpt>
<trkpt lat="40.0728399" lon="-105.2307678">
  <ele>1595.74</ele>
  <time>2026-08-28T19:11:06Z</time>
  <course>35.36</course>
  <speed>0.022360679774997897</speed>
  <fix>3d</fix>
</trkpt>
<trkpt lat="40.0728401" lon="-105.2307679">
  <ele>1595.63</ele>
  <time>2026-08-28T19:11:06Z</time>
  <course>339.54</course>
  <speed>0.05</speed>
  <fix>3d</fix>
</trkpt>
<trkpt lat="40.07284" lon="-105.2307679">
  <ele>1595.74</ele>
  <time>2026-08-28T19:11:06Z</time>
  <course>35.36</course>
  <speed>0.022360679774997897</speed>
  <fix>3d</fix>
</trkpt>
<trkpt lat="40.0728402" lon="-105.230768">
  <ele>1595.63</ele>
  <time>2026-08-28T19:11:06Z</time>
  <course>338.84</course>
  <speed>0.05</speed>
  <fix>3d</fix>
</trkpt>
<trkpt lat="40.0728401" lon="-105.2307679">
  <ele>1595.73</ele>
  <time>2026-08-28T19:11:06Z</time>
  <course>35.35</course>
  <speed>0.022360679774997897</speed>
  <fix>3d</fix>
</trkpt>
<trkpt lat="40.0728403" lon="-105.230768">
  <ele>1595.63</ele>
  <time>2026-08-28T19:11:06Z</time>
  <course>338.51</course>
  <speed>0.05</speed>
  <fix>3d</fix>
</trkpt>
<trkpt lat="40.0728402" lon="-105.230768">
  <ele>1595.73</ele>
  <time>2026-08-28T19:11:06Z</time>
  <course>35.35</course>
  <speed>0.022360679774997897</speed>
  <fix>3d</fix>
</trkpt>
<trkpt lat="40.0728404" lon="-105.230768">
  <ele>1595.63</ele>
  <time>2026-08-28T19:11:06Z</time>
  <course>338.28</course>
  <speed>0.05</speed>
  <fix>3d</fix>
</trkpt>
<trkpt lat="40.0728403" lon="-105.230768">
  <ele>1595.73</ele>
  <time>2026-08-28T19:11:06Z</time>
  <course>35.35</course>
  <speed>0.022360679774997897</speed>
  <fix>3d</fix>
</trkpt>
<trkpt lat="40.0728405" lon="-105.2307681">
  <ele>1595.63</ele>
  <time>2026-08-28T19:11:06Z</time>
  <course>338.12</course>
  <speed>0.05</speed>
  <fix>3d</fix>
</trkpt>
<trkpt lat="40.0728404" lon="-105.2307681">
  <ele>1595.73</ele>
  <time>2026-08-28T19:11:06Z</time>
  <course>35.35</course>
  <speed>0.022360679774997897</speed>
  <fix>3d</fix>
</trkpt>
<trkpt lat="40.0728406" lon="-105.2307682">
  <ele>1595.63</ele>
  <time>2026-08-28T19:11:06Z</time>
  <course>338.03</course>
  <speed>0.05</speed>
  <fix>3d</fix>
</trkpt>
<trkpt lat="40.0728405" lon="-105.2307681">
  <ele>1595.73</ele>
  <time>2026-08-28T19:11:06Z</time>
  <course>35.33</course>
  <speed>0.0316227766016838</speed>
  <fix>3d</fix>
</trkpt>
<trkpt lat="40.0728407" lon="-105.2307682">
  <ele>1595.63</ele>
  <time>2026-08-28T19:11:06Z</time>
  <course>338.04</course>
  <speed>0.05</speed>
  <fix>3d</fix>
</trkpt>
<trkpt lat="40.0728406" lon="-105.2307682">
  <ele>1595.73</ele>
  <time>2026-08-28T19:11:06Z</time>
  <course>35.33</course>
  <speed>0.044721359549995794</speed>
  <fix>3d</fix>
</trkpt>
<trkpt lat="40.0728408" lon="-105.2307683">
  <ele>1595.63</ele>
  <time>2026-08-28T19:11:06Z</time>
  <course>335.97</course>
  <speed>0.06</speed>
  <fix>3d</fix>
</trkpt>
<trkpt lat="40.0728407" lon="-105.2307683">
  <ele>1595.74</ele>
  <time>2026-08-28T19:11:06Z</time>
  <course>35.36</course>
  <speed>0.03605551275463989</speed>
  <fix>3d</fix>
</trkpt>
<trkpt lat="40.0728409" lon="-105.2307683">
  <ele>1595.63</ele>
  <time>2026-08-28T19:11:06Z</time>
  <course>333.51</course>
  <speed>0.07</speed>
  <fix>3d</fix>
</trkpt>
<trkpt lat="40.0728408" lon="-105.2307683">
  <ele>1595.74</ele>
  <time>2026-08-28T19:11:06Z</time>
  <course>35.37</course>
  <speed>0.0282842712474619</speed>
  <fix>3d</fix>
</trkpt>
<trkpt lat="40.072841" lon="-105.2307684">
  <ele>1595.63</ele>
  <time>2026-08-28T19:11:06Z</time>
  <course>331.5</course>
  <speed>0.07</speed>
  <fix>3d</fix>
</trkpt>
<trkpt lat="40.0728409" lon="-105.2307684">
  <ele>1595.74</ele>
  <time>2026-08-28T19:11:06Z</time>
  <course>35.38</course>
  <speed>0.0282842712474619</speed>
  <fix>3d</fix>
</trkpt>
<trkpt lat="40.0728411" lon="-105.2307685">
  <ele>1595.64</ele>
  <time>2026-08-28T19:11:06Z</time>
  <course>329.75</course>
  <speed>0.06</speed>
  <fix>3d</fix>
</trkpt>
<trkpt lat="40.072841" lon="-105.2307685">
  <ele>1595.74</ele>
  <time>2026-08-28T19:11:06Z</time>
  <course>35.39</course>
  <speed>0.01414213562373095</speed>
  <fix>3d</fix>
</trkpt>
<trkpt lat="40.0728412" lon="-105.2307685">
  <ele>1595.64</ele>
  <time>2026-08-28T19:11:06Z</time>
  <course>329.8</course>
  <speed>0.05</speed>
  <fix>3d</fix>
</trkpt>
<trkpt lat="40.0728411" lon="-105.2307685">
  <ele>1595.74</ele>
  <time>2026-08-28T19:11:06Z</time>
  <course>35.38</course>
  <speed>0.01414213562373095</speed>
  <fix>3d</fix>
</trkpt>
<trkpt lat="40.0728413" lon="-105.2307686">
  <ele>1595.64</ele>
  <time>2026-08-28T19:11:06Z</time>
  <course>331.65</course>
  <speed>0.04</speed>
  <fix>3d</fix>
</trkpt>
<trkpt lat="40.0728412" lon="-105.2307686">
  <ele>1595.73</ele>
  <time>2026-08-28T19:11:06Z</time>
  <course>35.37</course>
  <speed>0.01</speed>
  <fix>3d</fix>
</trkpt>
<trkpt lat="40.0728413" lon="-105.2307687">
  <ele>1595.64</ele>
  <time>2026-08-28T19:11:06Z</time>
  <course>334.38</course>
  <speed>0.04</speed>
  <fix>3d</fix>
</trkpt>
<trkpt lat="40.0728412" lon="-105.2307686">
  <ele>1595.73</ele>
  <time>2026-08-28T19:11:06Z</time>
  <course>35.36</course>
  <speed>0.01</speed>
  <fix>3d</fix>
</trkpt>
<trkpt lat="40.0728414" lon="-105.2307687">
  <ele>1595.63</ele>
  <time>2026-08-28T19:11:06Z</time>
  <course>336.95</course>
  <speed>0.03</speed>
  <fix>3d</fix>
</trkpt>
<trkpt lat="40.0728413" lon="-105.2307686">
  <ele>1595.73</ele>
  <time>2026-08-28T19:11:06Z</time>
  <course>35.35</course>
  <speed>0.01</speed>
  <fix>3d</fix>
</trkpt>
<trkpt lat="40.0728415" lon="-105.2307687">
  <ele>1595.63</ele>
  <time>2026-08-28T19:11:06Z</time>
  <course>338.5</course>
  <speed>0.03</speed>
  <fix>3d</fix>
</trkpt>
<trkpt lat="40.0728414" lon="-105.2307686">
  <ele>1595.73</ele>
  <time>2026-08-28T19:11:06Z</time>
  <course>35.34</course>
  <speed>0.01</speed>
  <fix>3d</fix>
</trkpt>
<trkpt lat="40.0728415" lon="-105.2307687">
  <ele>1595.64</ele>
  <time>2026-08-28T19:11:06Z</time>
  <course>338.71</course>
  <speed>0.03</speed>
  <fix>3d</fix>
</trkpt>
<trkpt lat="40.0728414" lon="-105.2307687">
  <ele>1595.73</ele>
  <time>2026-08-28T19:11:06Z</time>
  <course>35.34</course>
  <speed>0.01</speed>
  <fix>3d</fix>
</trkpt>
<trkpt lat="40.0728416" lon="-105.2307688">
  <ele>1595.64</ele>
  <time>2026-08-28T19:11:06Z</time>
  <course>337.92</course>
  <speed>0.03</speed>
  <fix>3d</fix>
</trkpt>
<trkpt lat="40.0728415" lon="-105.2307687">
  <ele>1595.73</ele>
  <time>2026-08-28T19:11:06Z</time>
  <course>35.34</course>
  <speed>0.01</speed>
  <fix>3d</fix>
</trkpt>
<trkpt lat="40.0728417" lon="-105.2307689">
  <ele>1595.64</ele>
  <time>2026-08-28T19:11:06Z</time>
  <course>336.98</course>
  <speed>0.04</speed>
  <fix>3d</fix>
</trkpt>
<trkpt lat="40.0728415" lon="-105.2307687">
  <ele>1595.73</ele>
  <time>2026-08-28T19:11:06Z</time>
  <course>35.35</course>
  <speed>0.0</speed>
  <fix>3d</fix>
</trkpt>
<trkpt lat="40.0728417" lon="-105.2307689">
  <ele>1595.64</ele>
  <time>2026-08-28T19:11:06Z</time>
  <course>336.19</course>
  <speed>0.04</speed>
  <fix>3d</fix>
</trkpt>
<trkpt lat="40.0728416" lon="-105.2307688">
  <ele>1595.73</ele>
  <time>2026-08-28T19:11:06Z</time>
  <course>35.36</course>
  <speed>0.0</speed>
  <fix>3d</fix>
</trkpt>
<trkpt lat="40.0728418" lon="-105.2307689">
  <ele>1595.64</ele>
  <time>2026-08-28T19:11:06Z</time>
  <course>339.94</course>
  <speed>0.03</speed>
  <fix>3d</fix>
</trkpt>
<trkpt lat="40.0728416" lon="-105.2307688">
  <ele>1595.73</ele>
  <time>2026-08-28T19:11:06Z</time>
  <course>35.35</course>
  <speed>0.0</speed>
  <fix>3d</fix>
</trkpt>
<trkpt lat="40.0728419" lon="-105.230769">
  <ele>1595.64</ele>
  <time>2026-08-28T19:11:06Z</time>
  <course>349.97</course>
  <speed>0.02</speed>
  <fix>3d</fix>
</trkpt>
<trkpt lat="40.0728417" lon="-105.2307688">
  <ele>1595.73</ele>
  <time>2026-08-28T19:11:06Z</time>
  <course>35.33</course>
  <speed>0.0</speed>
  <fix>3d</fix>
</trkpt>
<trkpt lat="40.0728419" lon="-105.230769">
  <ele>1595.65</ele>
  <time>2026-08-28T19:11:06Z</time>
  <course>352.07</course>
  <speed>0.02</speed>
  <fix>3d</fix>
</trkpt>
<trkpt lat="40.0728418" lon="-105.2307688">
  <ele>1595.73</ele>
  <time>2026-08-28T19:11:06Z</time>
  <course>35.34</course>
  <speed>0.01</speed>
  <fix>3d</fix>
</trkpt>
<trkpt lat="40.0728419" lon="-105.230769">
  <ele>1595.65</ele>
  <time>2026-08-28T19:11:06Z</time>
  <course>350.17</course>
  <speed>0.03</speed>
  <fix>3d</fix>
</trkpt>
<trkpt lat="40.0728418" lon="-105.2307689">
  <ele>1595.72</ele>
  <time>2026-08-28T19:11:06Z</time>
  <course>35.35</course>
  <speed>0.01</speed>
  <fix>3d</fix>
</trkpt>
<trkpt lat="40.072842" lon="-105.230769">
  <ele>1595.65</ele>
  <time>2026-08-28T19:11:06Z</time>
  <course>346.3</course>
  <speed>0.03</speed>
  <fix>3d</fix>
</trkpt>
<trkpt lat="40.0728419" lon="-105.2307689">
  <ele>1595.72</ele>
  <time>2026-08-28T19:11:06Z</time>
  <course>35.33</course>
  <speed>0.022360679774997897</speed>
  <fix>3d</fix>
</trkpt>
<trkpt lat="40.072842" lon="-105.230769">
  <ele>1595.65</ele>
  <time>2026-08-28T19:11:06Z</time>
  <course>342.75</course>
  <speed>0.04</speed>
  <fix>3d</fix>
</trkpt>
<trkpt lat="40.072842" lon="-105.2307689">
  <ele>1595.72</ele>
  <time>2026-08-28T19:11:06Z</time>
  <course>35.34</course>
  <speed>0.022360679774997897</speed>
  <fix>3d</fix>
</trkpt>
<trkpt lat="40.0728421" lon="-105.230769">
  <ele>1595.65</ele>
  <time>2026-08-28T19:11:06Z</time>
  <course>340.61</course>
  <speed>0.04</speed>
  <fix>3d</fix>
</trkpt>
<trkpt lat="40.0728421" lon="-105.230769">
  <ele>1595.73</ele>
  <time>2026-08-28T19:11:06Z</time>
  <course>35.35</course>
  <speed>0.022360679774997897</speed>
  <fix>3d</fix>
</trkpt>
<trkpt lat="40.0728422" lon="-105.230769">
  <ele>1595.66</ele>
  <time>2026-08-28T19:11:06Z</time>
  <course>339.34</course>
  <speed>0.05</speed>
  <fix>3d</fix>
</trkpt>
<trkpt lat="40.0728421" lon="-105.230769">
  <ele>1595.73</ele>
  <time>2026-08-28T19:11:06Z</time>
  <course>35.32</course>
  <speed>0.022360679774997897</speed>
  <fix>3d</fix>
</trkpt>
<trkpt lat="40.0728423" lon="-105.2307691">
  <ele>1595.66</ele>
  <time>2026-08-28T19:11:06Z</time>
  <course>338.38</course>
  <speed>0.05</speed>
  <fix>3d</fix>
</trkpt>
<trkpt lat="40.0728422" lon="-105.2307691">
  <ele>1595.73</ele>
  <time>2026-08-28T19:11:06Z</time>
  <course>35.35</course>
  <speed>0.022360679774997897</speed>
  <fix>3d</fix>
</trkpt>
<trkpt lat="40.0728424" lon="-105.2307692">
  <ele>1595.67</ele>
  <time>2026-08-28T19:11:06Z</time>
  <course>337.8</course>
  <speed>0.05</speed>
  <fix>3d</fix>
</trkpt>
<trkpt lat="40.0728423" lon="-105.2307691">
  <ele>1595.74</ele>
  <time>2026-08-28T19:11:06Z</time>
  <course>35.36</course>
  <speed>0.0316227766016838</speed>
  <fix>3d</fix>
</trkpt>
<trkpt lat="40.0728425" lon="-105.2307692">
  <ele>1595.67</ele>
  <time>2026-08-28T19:11:06Z</time>
  <course>337.35</course>
  <speed>0.06</speed>
  <fix>3d</fix>
</trkpt>
<trkpt lat="40.0728424" lon="-105.2307692">
  <ele>1595.74</ele>
  <time>2026-08-28T19:11:06Z</time>
  <course>35.36</course>
  <speed>0.03605551275463989</speed>
  <fix>3d</fix>
</trkpt>
<trkpt lat="40.0728426" lon="-105.2307692">
  <ele>1595.68</ele>
  <time>2026-08-28T19:11:06Z</time>
  <course>336.97</course>
  <speed>0.06</speed>
  <fix>3d</fix>
</trkpt>
<trkpt lat="40.0728425" lon="-105.2307693">
  <ele>1595.74</ele>
  <time>2026-08-28T19:11:06Z</time>
  <course>35.37</course>
  <speed>0.03605551275463989</speed>
  <fix>3d</fix>
</trkpt>
<trkpt lat="40.0728427" lon="-105.2307693">
  <ele>1595.68</ele>
  <time>2026-08-28T19:11:06Z</time>
  <course>336.77</course>
  <speed>0.06</speed>
  <fix>3d</fix>
</trkpt>
<trkpt lat="40.0728426" lon="-105.2307693">
  <ele>1595.73</ele>
  <time>2026-08-28T19:11:06Z</time>
  <course>35.36</course>
  <speed>0.03605551275463989</speed>
  <fix>3d</fix>
</trkpt>
<trkpt lat="40.0728428" lon="-105.2307694">
  <ele>1595.68</ele>
  <time>2026-08-28T19:11:06Z</time>
  <course>336.65</course>
  <speed>0.06</speed>
  <fix>3d</fix>
</trkpt>
<trkpt lat="40.0728427" lon="-105.2307694">
  <ele>1595.73</ele>
  <time>2026-08-28T19:11:06Z</time>
  <course>35.34</course>
  <speed>0.03605551275463989</speed>
  <fix>3d</fix>
</trkpt>
<trkpt lat="40.0728429" lon="-105.2307694">
  <ele>1595.68</ele>
  <time>2026-08-28T19:11:06Z</time>
  <course>336.7</course>
  <speed>0.06</speed>
  <fix>3d</fix>
</trkpt>
<trkpt lat="40.0728429" lon="-105.2307694">
  <ele>1595.74</ele>
  <time>2026-08-28T19:11:06Z</time>
  <course>35.35</course>
  <speed>0.03605551275463989</speed>
  <fix>3d</fix>
</trkpt>
<trkpt lat="40.072843" lon="-105.2307695">
  <ele>1595.68</ele>
  <time>2026-08-28T19:11:06Z</time>
  <course>337.15</course>
  <speed>0.06</speed>
  <fix>3d</fix>
</trkpt>
<trkpt lat="40.072843" lon="-105.2307695">
  <ele>1595.74</ele>
  <time>2026-08-28T19:11:06Z</time>
  <course>35.34</course>
  <speed>0.05</speed>
  <fix>3d</fix>
</trkpt>
<trkpt lat="40.0728431" lon="-105.2307696">
  <ele>1595.69</ele>
  <time>2026-08-28T19:11:06Z</time>
  <course>335.9</course>
  <speed>0.07</speed>
  <fix>3d</fix>
</trkpt>
<trkpt lat="40.0728431" lon="-105.2307696">
  <ele>1595.74</ele>
  <time>2026-08-28T19:11:06Z</time>
  <course>35.36</course>
  <speed>0.05</speed>
  <fix>3d</fix>
</trkpt>
<trkpt lat="40.0728433" lon="-105.2307696">
  <ele>1595.69</ele>
  <time>2026-08-28T19:11:06Z</time>
  <course>334.1</course>
  <speed>0.08</speed>
  <fix>3d</fix>
</trkpt>
<trkpt lat="40.0728432" lon="-105.2307697">
  <ele>1595.74</ele>
  <time>2026-08-28T19:11:06Z</time>
  <course>35.36</course>
  <speed>0.03605551275463989</speed>
  <fix>3d</fix>
</trkpt>
<trkpt lat="40.0728434" lon="-105.2307697">
  <ele>1595.69</ele>
  <time>2026-08-28T19:11:06Z</time>
  <course>332.26</course>
  <speed>0.08</speed>
  <fix>3d</fix>
</trkpt>
<trkpt lat="40.0728433" lon="-105.2307698">
  <ele>1595.75</ele>
  <time>2026-08-28T19:11:06Z</time>
  <course>35.36</course>
  <speed>0.0282842712474619</speed>
  <fix>3d</fix>
</trkpt>
<trkpt lat="40.0728435" lon="-105.2307698">
  <ele>1595.69</ele>
  <time>2026-08-28T19:11:06Z</time>
  <course>330.36</course>
  <speed>0.07</speed>
  <fix>3d</fix>
</trkpt>
<trkpt lat="40.0728434" lon="-105.2307698">
  <ele>1595.75</ele>
  <time>2026-08-28T19:11:06Z</time>
  <course>35.36</course>
  <speed>0.022360679774997897</speed>
  <fix>3d</fix>
</trkpt>
<trkpt lat="40.0728436" lon="-105.2307699">
  <ele>1595.69</ele>
  <time>2026-08-28T19:11:06Z</time>
  <course>330.37</course>
  <speed>0.06</speed>
  <fix>3d</fix>
</trkpt>
<trkpt lat="40.0728435" lon="-105.2307699">
  <ele>1595.75</ele>
  <time>2026-08-28T19:11:06Z</time>
  <course>35.37</course>
  <speed>0.01414213562373095</speed>
  <fix>3d</fix>
</trkpt>
<trkpt lat="40.0728437" lon="-105.2307699">
  <ele>1595.69</ele>
  <time>2026-08-28T19:11:06Z</time>
  <course>331.83</course>
  <speed>0.05</speed>
  <fix>3d</fix>
</trkpt>
<trkpt lat="40.0728436" lon="-105.2307699">
  <ele>1595.75</ele>
  <time>2026-08-28T19:11:06Z</time>
  <course>35.38</course>
  <speed>0.01</speed>
  <fix>3d</fix>
</trkpt>
<trkpt lat="40.0728438" lon="-105.23077">
  <ele>1595.69</ele>
  <time>2026-08-28T19:11:06Z</time>
  <course>333.99</course>
  <speed>0.04</speed>
  <fix>3d</fix>
</trkpt>
<trkpt lat="40.0728437" lon="-105.23077">
  <ele>1595.75</ele>
  <time>2026-08-28T19:11:06Z</time>
  <course>35.38</course>
  <speed>0.01</speed>
  <fix>3d</fix>
</trkpt>
<trkpt lat="40.0728438" lon="-105.2307701">
  <ele>1595.69</ele>
  <time>2026-08-28T19:11:06Z</time>
  <course>336.31</course>
  <speed>0.04</speed>
  <fix>3d</fix>
</trkpt>
<trkpt lat="40.0728437" lon="-105.23077">
  <ele>1595.75</ele>
  <time>2026-08-28T19:11:06Z</time>
  <course>35.38</course>
  <speed>0.01</speed>
  <fix>3d</fix>
</trkpt>
<trkpt lat="40.0728439" lon="-105.2307701">
  <ele>1595.69</ele>
  <time>2026-08-28T19:11:06Z</time>
  <course>338.26</course>
  <speed>0.03</speed>
  <fix>3d</fix>
</trkpt>
<trkpt lat="40.0728438" lon="-105.23077">
  <ele>1595.75</ele>
  <time>2026-08-28T19:11:06Z</time>
  <course>35.38</course>
  <speed>0.01</speed>
  <fix>3d</fix>
</trkpt>
<trkpt lat="40.072844" lon="-105.2307701">
  <ele>1595.69</ele>
  <time>2026-08-28T19:11:06Z</time>
  <course>339.85</course>
  <speed>0.03</speed>
  <fix>3d</fix>
</trkpt>
<trkpt lat="40.0728439" lon="-105.23077">
  <ele>1595.75</ele>
  <time>2026-08-28T19:11:06Z</time>
  <course>35.39</course>
  <speed>0.01</speed>
  <fix>3d</fix>
</trkpt>
<trkpt lat="40.0728441" lon="-105.2307702">
  <ele>1595.69</ele>
  <time>2026-08-28T19:11:06Z</time>
  <course>340.97</course>
  <speed>0.03</speed>
  <fix>3d</fix>
</trkpt>
<trkpt lat="40.0728439" lon="-105.2307701">
  <ele>1595.75</ele>
  <time>2026-08-28T19:11:06Z</time>
  <course>35.39</course>
  <speed>0.01</speed>
  <fix>3d</fix>
</trkpt>
<trkpt lat="40.0728441" lon="-105.2307702">
  <ele>1595.69</ele>
  <time>2026-08-28T19:11:06Z</time>
  <course>341.53</course>
  <speed>0.03</speed>
  <fix>3d</fix>
</trkpt>
<trkpt lat="40.072844" lon="-105.2307701">
  <ele>1595.75</ele>
  <time>2026-08-28T19:11:06Z</time>
  <course>35.39</course>
  <speed>0.01</speed>
  <fix>3d</fix>
</trkpt>
<trkpt lat="40.0728442" lon="-105.2307702">
  <ele>1595.68</ele>
  <time>2026-08-28T19:11:06Z</time>
  <course>341.8</course>
  <speed>0.03</speed>
  <fix>3d</fix>
</trkpt>
<trkpt lat="40.072844" lon="-105.2307701">
  <ele>1595.75</ele>
  <time>2026-08-28T19:11:06Z</time>
  <course>35.41</course>
  <speed>0.0</speed>
  <fix>3d</fix>
</trkpt>
<trkpt lat="40.0728443" lon="-105.2307702">
  <ele>1595.68</ele>
  <time>2026-08-28T19:11:06Z</time>
  <course>344.86</course>
  <speed>0.03</speed>
  <fix>3d</fix>
</trkpt>
<trkpt lat="40.0728441" lon="-105.2307701">
  <ele>1595.76</ele>
  <time>2026-08-28T19:11:06Z</time>
  <course>35.37</course>
  <speed>0.0</speed>
  <fix>3d</fix>
</trkpt>
<trkpt lat="40.0728443" lon="-105.2307702">
  <ele>1595.68</ele>
  <time>2026-08-28T19:11:06Z</time>
  <course>350.95</course>
  <speed>0.02</speed>
  <fix>3d</fix>
</trkpt>
<trkpt lat="40.0728441" lon="-105.2307701">
  <ele>1595.75</ele>
  <time>2026-08-28T19:11:06Z</time>
  <course>35.37</course>
  <speed>0.0</speed>
  <fix>3d</fix>
</trkpt>
<trkpt lat="40.0728444" lon="-105.2307702">
  <ele>1595.68</ele>
  <time>2026-08-28T19:11:06Z</time>
  <course>358.4</course>
  <speed>0.02</speed>
  <fix>3d</fix>
</trkpt>
<trkpt lat="40.0728442" lon="-105.2307701">
  <ele>1595.75</ele>
  <time>2026-08-28T19:11:06Z</time>
  <course>35.37</course>
  <speed>0.0</speed>
  <fix>3d</fix>
</trkpt>
<trkpt lat="40.0728444" lon="-105.2307702">
  <ele>1595.68</ele>
  <time>2026-08-28T19:11:06Z</time>
  <course>359.17</course>
  <speed>0.02</speed>
  <fix>3d</fix>
</trkpt>
<trkpt lat="40.0728442" lon="-105.2307701">
  <ele>1595.75</ele>
  <time>2026-08-28T19:11:06Z</time>
  <course>35.37</course>
  <speed>0.01</speed>
  <fix>3d</fix>
</trkpt>
<trkpt lat="40.0728444" lon="-105.2307702">
  <ele>1595.67</ele>
  <time>2026-08-28T19:11:06Z</time>
  <course>353.77</course>
  <speed>0.03</speed>
  <fix>3d</fix>
</trkpt>
<trkpt lat="40.0728443" lon="-105.2307701">
  <ele>1595.75</ele>
  <time>2026-08-28T19:11:06Z</time>
  <course>35.37</course>
  <speed>0.01</speed>
  <fix>3d</fix>
</trkpt>
<trkpt lat="40.0728445" lon="-105.2307702">
  <ele>1595.67</ele>
  <time>2026-08-28T19:11:06Z</time>
  <course>349.43</course>
  <speed>0.03</speed>
  <fix>3d</fix>
</trkpt>
<trkpt lat="40.0728444" lon="-105.2307701">
  <ele>1595.75</ele>
  <time>2026-08-28T19:11:06Z</time>
  <course>35.39</course>
  <speed>0.02</speed>
  <fix>3d</fix>
</trkpt>
<trkpt lat="40.0728446" lon="-105.2307702">
  <ele>1595.67</ele>
  <time>2026-08-28T19:11:06Z</time>
  <course>346.35</course>
  <speed>0.04</speed>
  <fix>3d</fix>
</trkpt>
<trkpt lat="40.0728445" lon="-105.2307702">
  <ele>1595.75</ele>
  <time>2026-08-28T19:11:06Z</time>
  <course>35.38</course>
  <speed>0.02</speed>
  <fix>3d</fix>
</trkpt>
<trkpt lat="40.0728447" lon="-105.2307703">
  <ele>1595.67</ele>
  <time>2026-08-28T19:11:06Z</time>
  <course>344.45</course>
  <speed>0.04</speed>
  <fix>3d</fix>
</trkpt>
<trkpt lat="40.0728446" lon="-105.2307702">
  <ele>1595.75</ele>
  <time>2026-08-28T19:11:06Z</time>
  <course>35.38</course>
  <speed>0.02</speed>
  <fix>3d</fix>
</trkpt>
<trkpt lat="40.0728447" lon="-105.2307704">
  <ele>1595.66</ele>
  <time>2026-08-28T19:11:06Z</time>
  <course>343.59</course>
  <speed>0.05</speed>
  <fix>3d</fix>
</trkpt>
<trkpt lat="40.0728447" lon="-105.2307702">
  <ele>1595.74</ele>
  <time>2026-08-28T19:11:06Z</time>
  <course>35.37</course>
  <speed>0.022360679774997897</speed>
  <fix>3d</fix>
</trkpt>
<trkpt lat="40.0728448" lon="-105.2307704">
  <ele>1595.66</ele>
  <time>2026-08-28T19:11:06Z</time>
  <course>342.98</course>
  <speed>0.05</speed>
  <fix>3d</fix>
</trkpt>
<trkpt lat="40.0728448" lon="-105.2307703">
  <ele>1595.75</ele>
  <time>2026-08-28T19:11:06Z</time>
  <course>35.37</course>
  <speed>0.022360679774997897</speed>
  <fix>3d</fix>
</trkpt>
<trkpt lat="40.0728449" lon="-105.2307704">
  <ele>1595.66</ele>
  <time>2026-08-28T19:11:06Z</time>
  <course>342.91</course>
  <speed>0.05</speed>
  <fix>3d</fix>
</trkpt>
<trkpt lat="40.0728448" lon="-105.2307703">
  <ele>1595.75</ele>
  <time>2026-08-28T19:11:06Z</time>
  <course>35.37</course>
  <speed>0.0316227766016838</speed>
  <fix>3d</fix>
</trkpt>
<trkpt lat="40.072845" lon="-105.2307704">
  <ele>1595.66</ele>
  <time>2026-08-28T19:11:06Z</time>
  <course>342.95</course>
  <speed>0.05</speed>
  <fix>3d</fix>
</trkpt>
<trkpt lat="40.072845" lon="-105.2307704">
  <ele>1595.75</ele>
  <time>2026-08-28T19:11:06Z</time>
  <course>35.37</course>
  <speed>0.0316227766016838</speed>
  <fix>3d</fix>
</trkpt>
<trkpt lat="40.0728451" lon="-105.2307705">
  <ele>1595.66</ele>
  <time>2026-08-28T19:11:06Z</time>
  <course>343.12</course>
  <speed>0.06</speed>
  <fix>3d</fix>
</trkpt>
<trkpt lat="40.0728451" lon="-105.2307704">
  <ele>1595.75</ele>
  <time>2026-08-28T19:11:06Z</time>
  <course>35.36</course>
  <speed>0.0316227766016838</speed>
  <fix>3d</fix>
</trkpt>
<trkpt lat="40.0728452" lon="-105.2307706">
  <ele>1595.66</ele>
  <time>2026-08-28T19:11:06Z</time>
  <course>343.43</course>
  <speed>0.06</speed>
  <fix>3d</fix>
</trkpt>
<trkpt lat="40.0728452" lon="-105.2307705">
  <ele>1595.75</ele>
  <time>2026-08-28T19:11:06Z</time>
  <course>35.37</course>
  <speed>0.0316227766016838</speed>
  <fix>3d</fix>
</trkpt>
<trkpt lat="40.0728454" lon="-105.2307706">
  <ele>1595.65</ele>
  <time>2026-08-28T19:11:06Z</time>
  <course>343.72</course>
  <speed>0.06</speed>
  <fix>3d</fix>
</trkpt>
<trkpt lat="40.0728453" lon="-105.2307705">
  <ele>1595.74</ele>
  <time>2026-08-28T19:11:06Z</time>
  <course>35.37</course>
  <speed>0.0316227766016838</speed>
  <fix>3d</fix>
</trkpt>
<trkpt lat="40.0728455" lon="-105.2307706">
  <ele>1595.65</ele>
  <time>2026-08-28T19:11:06Z</time>
  <course>344.16</course>
  <speed>0.06</speed>
  <fix>3d</fix>
</trkpt>
<trkpt lat="40.0728454" lon="-105.2307706">
  <ele>1595.73</ele>
  <time>2026-08-28T19:11:06Z</time>
  <course>35.36</course>
  <speed>0.0412310562561766</speed>
  <fix>3d</fix>
</trkpt>
<trkpt lat="40.0728456" lon="-105.2307706">
  <ele>1595.65</ele>
  <time>2026-08-28T19:11:06Z</time>
  <course>344.43</course>
  <speed>0.06</speed>
  <fix>3d</fix>
</trkpt>
<trkpt lat="40.0728455" lon="-105.2307706">
  <ele>1595.73</ele>
  <time>2026-08-28T19:11:06Z</time>
  <course>35.38</course>
  <speed>0.044721359549995794</speed>
  <fix>3d</fix>
</trkpt>
<trkpt lat="40.0728457" lon="-105.2307707">
  <ele>1595.65</ele>
  <time>2026-08-28T19:11:06Z</time>
  <course>342.84</course>
  <speed>0.07</speed>
  <fix>3d</fix>
</trkpt>
<trkpt lat="40.0728457" lon="-105.2307707">
  <ele>1595.73</ele>
  <time>2026-08-28T19:11:06Z</time>
  <course>35.36</course>
  <speed>0.03605551275463989</speed>
  <fix>3d</fix>
</trkpt>
<trkpt lat="40.0728458" lon="-105.2307708">
  <ele>1595.65</ele>
  <time>2026-08-28T19:11:06Z</time>
  <course>339.51</course>
  <speed>0.07</speed>
  <fix>3d</fix>
</trkpt>
<trkpt lat="40.0728458" lon="-105.2307707">
  <ele>1595.73</ele>
  <time>2026-08-28T19:11:06Z</time>
  <course>35.36</course>
  <speed>0.03605551275463989</speed>
  <fix>3d</fix>
</trkpt>
<trkpt lat="40.072846" lon="-105.2307709">
  <ele>1595.65</ele>
  <time>2026-08-28T19:11:06Z</time>
  <course>336.53</course>
  <speed>0.06</speed>
  <fix>3d</fix>
</trkpt>
<trkpt lat="40.0728459" lon="-105.2307708">
  <ele>1595.73</ele>
  <time>2026-08-28T19:11:06Z</time>
  <course>35.35</course>
  <speed>0.022360679774997897</speed>
  <fix>3d</fix>
</trkpt>
<trkpt lat="40.0728461" lon="-105.2307709">
  <ele>1595.65</ele>
  <time>2026-08-28T19:11:06Z</time>
  <course>335.06</course>
  <speed>0.06</speed>
  <fix>3d</fix>
</trkpt>
<trkpt lat="40.0728459" lon="-105.2307709">
  <ele>1595.73</ele>
  <time>2026-08-28T19:11:06Z</time>
  <course>35.35</course>
  <speed>0.022360679774997897</speed>
  <fix>3d</fix>
</trkpt>
<trkpt lat="40.0728462" lon="-105.230771">
  <ele>1595.65</ele>
  <time>2026-08-28T19:11:06Z</time>
  <course>335.18</course>
  <speed>0.05</speed>
  <fix>3d</fix>
</trkpt>
<trkpt lat="40.072846" lon="-105.2307709">
  <ele>1595.73</ele>
  <time>2026-08-28T19:11:06Z</time>
  <course>35.35</course>
  <speed>0.022360679774997897</speed>
  <fix>3d</fix>
</trkpt>
<trkpt lat="40.0728462" lon="-105.2307711">
  <ele>1595.66</ele>
  <time>2026-08-28T19:11:06Z</time>
  <course>336.34</course>
  <speed>0.05</speed>
  <fix>3d</fix>
</trkpt>
<trkpt lat="40.0728461" lon="-105.2307709">
  <ele>1595.73</ele>
  <time>2026-08-28T19:11:06Z</time>
  <course>35.35</course>
  <speed>0.01</speed>
  <fix>3d</fix>
</trkpt>
<trkpt lat="40.0728463" lon="-105.2307711">
  <ele>1595.66</ele>
  <time>2026-08-28T19:11:06Z</time>
  <course>337.46</course>
  <speed>0.04</speed>
  <fix>3d</fix>
</trkpt>
<trkpt lat="40.0728462" lon="-105.230771">
  <ele>1595.73</ele>
  <time>2026-08-28T19:11:06Z</time>
  <course>35.34</course>
  <speed>0.01</speed>
  <fix>3d</fix>
</trkpt>
<trkpt lat="40.0728464" lon="-105.2307711">
  <ele>1595.66</ele>
  <time>2026-08-28T19:11:06Z</time>
  <course>338.09</course>
  <speed>0.04</speed>
  <fix>3d</fix>
</trkpt>
<trkpt lat="40.0728463" lon="-105.230771">
  <ele>1595.74</ele>
  <time>2026-08-28T19:11:06Z</time>
  <course>35.33</course>
  <speed>0.01</speed>
  <fix>3d</fix>
</trkpt>
<trkpt lat="40.0728465" lon="-105.2307711">
  <ele>1595.66</ele>
  <time>2026-08-28T19:11:06Z</time>
  <course>338.25</course>
  <speed>0.04</speed>
  <fix>3d</fix>
</trkpt>
<trkpt lat="40.0728463" lon="-105.2307711">
  <ele>1595.74</ele>
  <time>2026-08-28T19:11:06Z</time>
  <course>35.34</course>
  <speed>0.01</speed>
  <fix>3d</fix>
</trkpt>
<trkpt lat="40.0728466" lon="-105.2307712">
  <ele>1595.67</ele>
  <time>2026-08-28T19:11:06Z</time>
  <course>338.15</course>
  <speed>0.04</speed>
  <fix>3d</fix>
</trkpt>
<trkpt lat="40.0728464" lon="-105.2307711">
  <ele>1595.74</ele>
  <time>2026-08-28T19:11:06Z</time>
  <course>35.35</course>
  <speed>0.01</speed>
  <fix>3d</fix>
</trkpt>
<trkpt lat="40.0728466" lon="-105.2307713">
  <ele>1595.67</ele>
  <time>2026-08-28T19:11:06Z</time>
  <course>338.13</course>
  <speed>0.04</speed>
  <fix>3d</fix>
</trkpt>
<trkpt lat="40.0728465" lon="-105.2307712">
  <ele>1595.75</ele>
  <time>2026-08-28T19:11:06Z</time>
  <course>35.36</course>
  <speed>0.01</speed>
  <fix>3d</fix>
</trkpt>
<trkpt lat="40.0728467" lon="-105.2307713">
  <ele>1595.67</ele>
  <time>2026-08-28T19:11:06Z</time>
  <course>338.34</course>
  <speed>0.04</speed>
  <fix>3d</fix>
</trkpt>
<trkpt lat="40.0728466" lon="-105.2307712">
  <ele>1595.75</ele>
  <time>2026-08-28T19:11:06Z</time>
  <course>35.38</course>
  <speed>0.0</speed>
  <fix>3d</fix>
</trkpt>
<trkpt lat="40.0728468" lon="-105.2307713">
  <ele>1595.67</ele>
  <time>2026-08-28T19:11:06Z</time>
  <course>338.84</course>
  <speed>0.04</speed>
  <fix>3d</fix>
</trkpt>
<trkpt lat="40.0728466" lon="-105.2307712">
  <ele>1595.75</ele>
  <time>2026-08-28T19:11:06Z</time>
  <course>35.38</course>
  <speed>0.0</speed>
  <fix>3d</fix>
</trkpt>
<trkpt lat="40.0728468" lon="-105.2307714">
  <ele>1595.67</ele>
  <time>2026-08-28T19:11:06Z</time>
  <course>344.05</course>
  <speed>0.03</speed>
  <fix>3d</fix>
</trkpt>
<trkpt lat="40.0728467" lon="-105.2307712">
  <ele>1595.75</ele>
  <time>2026-08-28T19:11:06Z</time>
  <course>35.38</course>
  <speed>0.0</speed>
  <fix>3d</fix>
</trkpt>
<trkpt lat="40.0728468" lon="-105.2307714">
  <ele>1595.67</ele>
  <time>2026-08-28T19:11:06Z</time>
  <course>357.72</course>
  <speed>0.02</speed>
  <fix>3d</fix>
</trkpt>
<trkpt lat="40.0728467" lon="-105.2307712">
  <ele>1595.75</ele>
  <time>2026-08-28T19:11:06Z</time>
  <course>35.36</course>
  <speed>0.01</speed>
  <fix>3d</fix>
</trkpt>
<trkpt lat="40.0728469" lon="-105.2307714">
  <ele>1595.67</ele>
  <time>2026-08-28T19:11:06Z</time>
  <course>0.3</course>
  <speed>0.02</speed>
  <fix>3d</fix>
</trkpt>
<trkpt lat="40.0728468" lon="-105.2307712">
  <ele>1595.74</ele>
  <time>2026-08-28T19:11:06Z</time>
  <course>35.36</course>
  <speed>0.01</speed>
  <fix>3d</fix>
</trkpt>
<trkpt lat="40.072847" lon="-105.2307714">
  <ele>1595.66</ele>
  <time>2026-08-28T19:11:06Z</time>
  <course>356.59</course>
  <speed>0.03</speed>
  <fix>3d</fix>
</trkpt>
<trkpt lat="40.0728469" lon="-105.2307713">
  <ele>1595.74</ele>
  <time>2026-08-28T19:11:06Z</time>
  <course>35.36</course>
  <speed>0.02</speed>
  <fix>3d</fix>
</trkpt>
<trkpt lat="40.0728471" lon="-105.2307714">
  <ele>1595.66</ele>
  <time>2026-08-28T19:11:06Z</time>
  <course>352.16</course>
  <speed>0.03</speed>
  <fix>3d</fix>
</trkpt>
<trkpt lat="40.0728469" lon="-105.2307713">
  <ele>1595.74</ele>
  <time>2026-08-28T19:11:06Z</time>
  <course>35.36</course>
  <speed>0.02</speed>
  <fix>3d</fix>
</trkpt>
<trkpt lat="40.0728471" lon="-105.2307714">
  <ele>1595.66</ele>
  <time>2026-08-28T19:11:06Z</time>
  <course>348.68</course>
  <speed>0.04</speed>
  <fix>3d</fix>
</trkpt>
<trkpt lat="40.072847" lon="-105.2307713">
  <ele>1595.73</ele>
  <time>2026-08-28T19:11:06Z</time>
  <course>35.36</course>
  <speed>0.022360679774997897</speed>
  <fix>3d</fix>
</trkpt>
<trkpt lat="40.0728472" lon="-105.2307714">
  <ele>1595.66</ele>
  <time>2026-08-28T19:11:06Z</time>
  <course>346.44</course>
  <speed>0.04</speed>
  <fix>3d</fix>
</trkpt>
<trkpt lat="40.0728471" lon="-105.2307714">
  <ele>1595.73</ele>
  <time>2026-08-28T19:11:06Z</time>
  <course>35.36</course>
  <speed>0.0316227766016838</speed>
  <fix>3d</fix>
</trkpt>
<trkpt lat="40.0728473" lon="-105.2307714">
  <ele>1595.66</ele>
  <time>2026-08-28T19:11:06Z</time>
  <course>344.8</course>
  <speed>0.05</speed>
  <fix>3d</fix>
</trkpt>
<trkpt lat="40.0728472" lon="-105.2307714">
  <ele>1595.73</ele>
  <time>2026-08-28T19:11:06Z</time>
  <course>35.34</course>
  <speed>0.0316227766016838</speed>
  <fix>3d</fix>
</trkpt>
<trkpt lat="40.0728474" lon="-105.2307714">
  <ele>1595.66</ele>
  <time>2026-08-28T19:11:06Z</time>
  <course>343.48</course>
  <speed>0.05</speed>
  <fix>3d</fix>
</trkpt>
<trkpt lat="40.0728473" lon="-105.2307714">
  <ele>1595.74</ele>
  <time>2026-08-28T19:11:06Z</time>
  <course>35.35</course>
  <speed>0.0316227766016838</speed>
  <fix>3d</fix>
</trkpt>
<trkpt lat="40.0728475" lon="-105.2307715">
  <ele>1595.66</ele>
  <time>2026-08-28T19:11:06Z</time>
  <course>342.58</course>
  <speed>0.05</speed>
  <fix>3d</fix>
</trkpt>
<trkpt lat="40.0728474" lon="-105.2307715">
  <ele>1595.74</ele>
  <time>2026-08-28T19:11:06Z</time>
  <course>35.36</course>
  <speed>0.0316227766016838</speed>
  <fix>3d</fix>
</trkpt>
<trkpt lat="40.0728476" lon="-105.2307716">
  <ele>1595.66</ele>
  <time>2026-08-28T19:11:06Z</time>
  <course>342.13</course>
  <speed>0.05</speed>
  <fix>3d</fix>
</trkpt>
<trkpt lat="40.0728475" lon="-105.2307715">
  <ele>1595.74</ele>
  <time>2026-08-28T19:11:06Z</time>
  <course>35.36</course>
  <speed>0.0316227766016838</speed>
  <fix>3d</fix>
</trkpt>
<trkpt lat="40.0728477" lon="-105.2307716">
  <ele>1595.66</ele>
  <time>2026-08-28T19:11:06Z</time>
  <course>341.82</course>
  <speed>0.06</speed>
  <fix>3d</fix>
</trkpt>
<trkpt lat="40.0728476" lon="-105.2307716">
  <ele>1595.74</ele>
  <time>2026-08-28T19:11:06Z</time>
  <course>35.36</course>
  <speed>0.0316227766016838</speed>
  <fix>3d</fix>
</trkpt>
<trkpt lat="40.0728478" lon="-105.2307716">
  <ele>1595.66</ele>
  <time>2026-08-28T19:11:06Z</time>
  <course>341.87</course>
  <speed>0.06</speed>
  <fix>3d</fix>
</trkpt>
<trkpt lat="40.0728478" lon="-105.2307716">
  <ele>1595.74</ele>
  <time>2026-08-28T19:11:06Z</time>
  <course>35.36</course>
  <speed>0.0412310562561766</speed>
  <fix>3d</fix>
</trkpt>
<trkpt lat="40.0728479" lon="-105.2307716">
  <ele>1595.67</ele>
  <time>2026-08-28T19:11:06Z</time>
  <course>342.37</course>
  <speed>0.06</speed>
  <fix>3d</fix>
</trkpt>
<trkpt lat="40.0728479" lon="-105.2307717">
  <ele>1595.74</ele>
  <time>2026-08-28T19:11:06Z</time>
  <course>35.37</course>
  <speed>0.0412310562561766</speed>
  <fix>3d</fix>
</trkpt>
<trkpt lat="40.072848" lon="-105.2307717">
  <ele>1595.67</ele>
  <time>2026-08-28T19:11:06Z</time>
  <course>342.97</course>
  <speed>0.06</speed>
  <fix>3d</fix>
</trkpt>
<trkpt lat="40.072848" lon="-105.2307717">
  <ele>1595.74</ele>
  <time>2026-08-28T19:11:06Z</time>
  <course>35.37</course>
  <speed>0.0412310562561766</speed>
  <fix>3d</fix>
</trkpt>
<trkpt lat="40.0728481" lon="-105.2307718">
  <ele>1595.67</ele>
  <time>2026-08-28T19:11:06Z</time>
  <course>343.28</course>
  <speed>0.06</speed>
  <fix>3d</fix>
</trkpt>
<trkpt lat="40.0728481" lon="-105.2307718">
  <ele>1595.74</ele>
  <time>2026-08-28T19:11:06Z</time>
  <course>35.37</course>
  <speed>0.044721359549995794</speed>
  <fix>3d</fix>
</trkpt>
<trkpt lat="40.0728482" lon="-105.2307718">
  <ele>1595.67</ele>
  <time>2026-08-28T19:11:06Z</time>
  <course>341.25</course>
  <speed>0.07</speed>
  <fix>3d</fix>
</trkpt>
<trkpt lat="40.0728482" lon="-105.2307718">
  <ele>1595.74</ele>
  <time>2026-08-28T19:11:06Z</time>
  <course>35.37</course>
  <speed>0.044721359549995794</speed>
  <fix>3d</fix>
</trkpt>
<trkpt lat="40.0728484" lon="-105.2307718">
  <ele>1595.67</ele>
  <time>2026-08-28T19:11:06Z</time>
  <course>338.31</course>
  <speed>0.07</speed>
  <fix>3d</fix>
</trkpt>
<trkpt lat="40.0728483" lon="-105.2307719">
  <ele>1595.75</ele>
  <time>2026-08-28T19:11:06Z</time>
  <course>35.38</course>
  <speed>0.03605551275463989</speed>
  <fix>3d</fix>
</trkpt>
<trkpt lat="40.0728485" lon="-105.2307719">
  <ele>1595.67</ele>
  <time>2026-08-28T19:11:06Z</time>
  <course>335.7</course>
  <speed>0.06</speed>
  <fix>3d</fix>
</trkpt>
<trkpt lat="40.0728484" lon="-105.2307719">
  <ele>1595.75</ele>
  <time>2026-08-28T19:11:06Z</time>
  <course>35.38</course>
  <speed>0.022360679774997897</speed>
  <fix>3d</fix>
</trkpt>
<trkpt lat="40.0728486" lon="-105.230772">
  <ele>1595.67</ele>
  <time>2026-08-28T19:11:06Z</time>
  <course>333.6</course>
  <speed>0.05</speed>
  <fix>3d</fix>
</trkpt>
<trkpt lat="40.0728485" lon="-105.230772">
  <ele>1595.75</ele>
  <time>2026-08-28T19:11:06Z</time>
  <course>35.38</course>
  <speed>0.022360679774997897</speed>
  <fix>3d</fix>
</trkpt>
<trkpt lat="40.0728487" lon="-105.2307721">
  <ele>1595.67</ele>
  <time>2026-08-28T19:11:06Z</time>
  <course>333.0</course>
  <speed>0.04</speed>
  <fix>3d</fix>
</trkpt>
<trkpt lat="40.0728486" lon="-105.230772">
  <ele>1595.75</ele>
  <time>2026-08-28T19:11:06Z</time>
  <course>35.38</course>
  <speed>0.022360679774997897</speed>
  <fix>3d</fix>
</trkpt>
<trkpt lat="40.0728487" lon="-105.2307721">
  <ele>1595.66</ele>
  <time>2026-08-28T19:11:06Z</time>
  <course>333.8</course>
  <speed>0.04</speed>
  <fix>3d</fix>
</trkpt>
<trkpt lat="40.0728486" lon="-105.230772">
  <ele>1595.75</ele>
  <time>2026-08-28T19:11:06Z</time>
  <course>35.38</course>
  <speed>0.01</speed>
  <fix>3d</fix>
</trkpt>
<trkpt lat="40.0728488" lon="-105.2307721">
  <ele>1595.66</ele>
  <time>2026-08-28T19:11:06Z</time>
  <course>335.08</course>
  <speed>0.03</speed>
  <fix>3d</fix>
</trkpt>
<trkpt lat="40.0728487" lon="-105.2307721">
  <ele>1595.75</ele>
  <time>2026-08-28T19:11:06Z</time>
  <course>35.37</course>
  <speed>0.01</speed>
  <fix>3d</fix>
</trkpt>
<trkpt lat="40.0728489" lon="-105.2307721">
  <ele>1595.66</ele>
  <time>2026-08-28T19:11:06Z</time>
  <course>335.99</course>
  <speed>0.03</speed>
  <fix>3d</fix>
</trkpt>
<trkpt lat="40.0728488" lon="-105.2307721">
  <ele>1595.74</ele>
  <time>2026-08-28T19:11:06Z</time>
  <course>35.35</course>
  <speed>0.01</speed>
  <fix>3d</fix>
</trkpt>
<trkpt lat="40.072849" lon="-105.2307722">
  <ele>1595.66</ele>
  <time>2026-08-28T19:11:06Z</time>
  <course>336.19</course>
  <speed>0.03</speed>
  <fix>3d</fix>
</trkpt>
<trkpt lat="40.0728488" lon="-105.2307721">
  <ele>1595.74</ele>
  <time>2026-08-28T19:11:06Z</time>
  <course>35.35</course>
  <speed>0.01</speed>
  <fix>3d</fix>
</trkpt>
<trkpt lat="40.072849" lon="-105.2307723">
  <ele>1595.66</ele>
  <time>2026-08-28T19:11:06Z</time>
  <course>336.06</course>
  <speed>0.03</speed>
  <fix>3d</fix>
</trkpt>
<trkpt lat="40.0728489" lon="-105.2307722">
  <ele>1595.74</ele>
  <time>2026-08-28T19:11:06Z</time>
  <course>35.35</course>
  <speed>0.01</speed>
  <fix>3d</fix>
</trkpt>
<trkpt lat="40.0728491" lon="-105.2307723">
  <ele>1595.66</ele>
  <time>2026-08-28T19:11:06Z</time>
  <course>336.01</course>
  <speed>0.03</speed>
  <fix>3d</fix>
</trkpt>
<trkpt lat="40.072849" lon="-105.2307722">
  <ele>1595.74</ele>
  <time>2026-08-28T19:11:06Z</time>
  <course>35.35</course>
  <speed>0.01</speed>
  <fix>3d</fix>
</trkpt>
<trkpt lat="40.0728491" lon="-105.2307723">
  <ele>1595.65</ele>
  <time>2026-08-28T19:11:06Z</time>
  <course>335.96</course>
  <speed>0.03</speed>
  <fix>3d</fix>
</trkpt>
<trkpt lat="40.072849" lon="-105.2307722">
  <ele>1595.74</ele>
  <time>2026-08-28T19:11:06Z</time>
  <course>35.37</course>
  <speed>0.0</speed>
  <fix>3d</fix>
</trkpt>
<trkpt lat="40.0728492" lon="-105.2307723">
  <ele>1595.65</ele>
  <time>2026-08-28T19:11:06Z</time>
  <course>335.68</course>
  <speed>0.02</speed>
  <fix>3d</fix>
</trkpt>
<trkpt lat="40.072849" lon="-105.2307722">
  <ele>1595.74</ele>
  <time>2026-08-28T19:11:06Z</time>
  <course>35.35</course>
  <speed>0.0</speed>
  <fix>3d</fix>
</trkpt>
<trkpt lat="40.0728492" lon="-105.2307723">
  <ele>1595.65</ele>
  <time>2026-08-28T19:11:06Z</time>
  <course>339.34</course>
  <speed>0.01</speed>
  <fix>3d</fix>
</trkpt>
<trkpt lat="40.0728491" lon="-105.2307722">
  <ele>1595.73</ele>
  <time>2026-08-28T19:11:06Z</time>
  <course>35.35</course>
  <speed>0.0</speed>
  <fix>3d</fix>
</trkpt>
<trkpt lat="40.0728492" lon="-105.2307723">
  <ele>1595.65</ele>
  <time>2026-08-28T19:11:06Z</time>
  <course>0.49</course>
  <speed>0.01</speed>
  <fix>3d</fix>
</trkpt>
<trkpt lat="40.0728491" lon="-105.2307722">
  <ele>1595.73</ele>
  <time>2026-08-28T19:11:06Z</time>
  <course>35.34</course>
  <speed>0.0</speed>
  <fix>3d</fix>
</trkpt>
<trkpt lat="40.0728493" lon="-105.2307723">
  <ele>1595.65</ele>
  <time>2026-08-28T19:11:06Z</time>
  <course>3.76</course>
  <speed>0.01</speed>
  <fix>3d</fix>
</trkpt>
<trkpt lat="40.0728491" lon="-105.2307722">
  <ele>1595.73</ele>
  <time>2026-08-28T19:11:06Z</time>
  <course>35.34</course>
  <speed>0.01</speed>
  <fix>3d</fix>
</trkpt>
<trkpt lat="40.0728493" lon="-105.2307723">
  <ele>1595.65</ele>
  <time>2026-08-28T19:11:06Z</time>
  <course>356.04</course>
  <speed>0.02</speed>
  <fix>3d</fix>
</trkpt>
<trkpt lat="40.0728492" lon="-105.2307722">
  <ele>1595.72</ele>
  <time>2026-08-28T19:11:06Z</time>
  <course>35.34</course>
  <speed>0.01</speed>
  <fix>3d</fix>
</trkpt>
<trkpt lat="40.0728493" lon="-105.2307723">
  <ele>1595.66</ele>
  <time>2026-08-28T19:11:06Z</time>
  <course>350.11</course>
  <speed>0.02</speed>
  <fix>3d</fix>
</trkpt>
<trkpt lat="40.0728493" lon="-105.2307723">
  <ele>1595.72</ele>
  <time>2026-08-28T19:11:06Z</time>
  <course>35.32</course>
  <speed>0.02</speed>
  <fix>3d</fix>
</trkpt>
<trkpt lat="40.0728493" lon="-105.2307723">
  <ele>1595.66</ele>
  <time>2026-08-28T19:11:06Z</time>
  <course>345.85</course>
  <speed>0.03</speed>
  <fix>3d</fix>
</trkpt>
<trkpt lat="40.0728493" lon="-105.2307723">
  <ele>1595.72</ele>
  <time>2026-08-28T19:11:06Z</time>
  <course>35.32</course>
  <speed>0.022360679774997897</speed>
  <fix>3d</fix>
</trkpt>
<trkpt lat="40.0728494" lon="-105.2307724">
  <ele>1595.66</ele>
  <time>2026-08-28T19:11:06Z</time>
  <course>342.52</course>
  <speed>0.03</speed>
  <fix>3d</fix>
</trkpt>
<trkpt lat="40.0728494" lon="-105.2307723">
  <ele>1595.72</ele>
  <time>2026-08-28T19:11:06Z</time>
  <course>35.35</course>
  <speed>0.022360679774997897</speed>
  <fix>3d</fix>
</trkpt>
<trkpt lat="40.0728494" lon="-105.2307725">
  <ele>1595.66</ele>
  <time>2026-08-28T19:11:06Z</time>
  <course>340.34</course>
  <speed>0.03</speed>
  <fix>3d</fix>
</trkpt>
<trkpt lat="40.0728494" lon="-105.2307724">
  <ele>1595.72</ele>
  <time>2026-08-28T19:11:06Z</time>
  <course>35.31</course>
  <speed>0.022360679774997897</speed>
  <fix>3d</fix>
</trkpt>
<trkpt lat="40.0728495" lon="-105.2307725">
  <ele>1595.67</ele>
  <time>2026-08-28T19:11:06Z</time>
  <course>339.02</course>
  <speed>0.03</speed>
  <fix>3d</fix>
</trkpt>
<trkpt lat="40.0728495" lon="-105.2307724">
  <ele>1595.73</ele>
  <time>2026-08-28T19:11:06Z</time>
  <course>35.33</course>
  <speed>0.022360679774997897</speed>
  <fix>3d</fix>
</trkpt>
<trkpt lat="40.0728496" lon="-105.2307725">
  <ele>1595.67</ele>
  <time>2026-08-28T19:11:06Z</time>
  <course>337.82</course>
  <speed>0.04</speed>
  <fix>3d</fix>
</trkpt>
<trkpt lat="40.0728496" lon="-105.2307725">
  <ele>1595.73</ele>
  <time>2026-08-28T19:11:06Z</time>
  <course>35.35</course>
  <speed>0.022360679774997897</speed>
  <fix>3d</fix>
</trkpt>
<trkpt lat="40.0728497" lon="-105.2307726">
  <ele>1595.68</ele>
  <time>2026-08-28T19:11:06Z</time>
  <course>337.03</course>
  <speed>0.04</speed>
  <fix>3d</fix>
</trkpt>
<trkpt lat="40.0728496" lon="-105.2307725">
  <ele>1595.74</ele>
  <time>2026-08-28T19:11:07Z</time>
  <course>35.35</course>
  <speed>0.022360679774997897</speed>
  <fix>3d</fix>
</trkpt>
<trkpt lat="40.0728497" lon="-105.2307726">
  <ele>1595.68</ele>
  <time>2026-08-28T19:11:07Z</time>
  <course>336.51</course>
  <speed>0.04</speed>
  <fix>3d</fix>
</trkpt>
<trkpt lat="40.0728497" lon="-105.2307726">
  <ele>1595.74</ele>
  <time>2026-08-28T19:11:07Z</time>
  <course>35.36</course>
  <speed>0.022360679774997897</speed>
  <fix>3d</fix>
</trkpt>
<trkpt lat="40.0728498" lon="-105.2307726">
  <ele>1595.68</ele>
  <time>2026-08-28T19:11:07Z</time>
  <course>336.03</course>
  <speed>0.04</speed>
  <fix>3d</fix>
</trkpt>
<trkpt lat="40.0728498" lon="-105.2307726">
  <ele>1595.75</ele>
  <time>2026-08-28T19:11:07Z</time>
  <course>35.36</course>
  <speed>0.0316227766016838</speed>
  <fix>3d</fix>
</trkpt>
<trkpt lat="40.0728499" lon="-105.2307726">
  <ele>1595.69</ele>
  <time>2026-08-28T19:11:07Z</time>
  <course>335.74</course>
  <speed>0.04</speed>
  <fix>3d</fix>
</trkpt>
<trkpt lat="40.0728499" lon="-105.2307727">
  <ele>1595.75</ele>
  <time>2026-08-28T19:11:07Z</time>
  <course>35.37</course>
  <speed>0.0316227766016838</speed>
  <fix>3d</fix>
</trkpt>
<trkpt lat="40.0728499" lon="-105.2307727">
  <ele>1595.69</ele>
  <time>2026-08-28T19:11:07Z</time>
  <course>335.62</course>
  <speed>0.04</speed>
  <fix>3d</fix>
</trkpt>
<trkpt lat="40.0728499" lon="-105.2307727">
  <ele>1595.75</ele>
  <time>2026-08-28T19:11:07Z</time>
  <course>35.39</course>
  <speed>0.0316227766016838</speed>
  <fix>3d</fix>
</trkpt>
<trkpt lat="40.07285" lon="-105.2307728">
  <ele>1595.69</ele>
  <time>2026-08-28T19:11:07Z</time>
  <course>335.71</course>
  <speed>0.04</speed>
  <fix>3d</fix>
</trkpt>
<trkpt lat="40.07285" lon="-105.2307728">
  <ele>1595.75</ele>
  <time>2026-08-28T19:11:07Z</time>
  <course>35.39</course>
  <speed>0.03605551275463989</speed>
  <fix>3d</fix>
</trkpt>
<trkpt lat="40.0728501" lon="-105.2307728">
  <ele>1595.69</ele>
  <time>2026-08-28T19:11:07Z</time>
  <course>334.25</course>
  <speed>0.05</speed>
  <fix>3d</fix>
</trkpt>
<trkpt lat="40.0728501" lon="-105.2307728">
  <ele>1595.74</ele>
  <time>2026-08-28T19:11:07Z</time>
  <course>35.38</course>
  <speed>0.03605551275463989</speed>
  <fix>3d</fix>
</trkpt>
<trkpt lat="40.0728502" lon="-105.2307728">
  <ele>1595.69</ele>
  <time>2026-08-28T19:11:07Z</time>
  <course>331.63</course>
  <speed>0.06</speed>
  <fix>3d</fix>
</trkpt>
<trkpt lat="40.0728502" lon="-105.2307729">
  <ele>1595.74</ele>
  <time>2026-08-28T19:11:07Z</time>
  <course>35.38</course>
  <speed>0.0282842712474619</speed>
  <fix>3d</fix>
</trkpt>
<trkpt lat="40.0728503" lon="-105.2307729">
  <ele>1595.69</ele>
  <time>2026-08-28T19:11:07Z</time>
  <course>328.46</course>
  <speed>0.05</speed>
  <fix>3d</fix>
</trkpt>
<trkpt lat="40.0728502" lon="-105.2307729">
  <ele>1595.74</ele>
  <time>2026-08-28T19:11:07Z</time>
  <course>35.38</course>
  <speed>0.022360679774997897</speed>
  <fix>3d</fix>
</trkpt>
<trkpt lat="40.0728504" lon="-105.230773">
  <ele>1595.69</ele>
  <time>2026-08-28T19:11:07Z</time>
  <course>325.62</course>
  <speed>0.04</speed>
  <fix>3d</fix>
</trkpt>
<trkpt lat="40.0728503" lon="-105.230773">
  <ele>1595.74</ele>
  <time>2026-08-28T19:11:07Z</time>
  <course>35.38</course>
  <speed>0.01414213562373095</speed>
  <fix>3d</fix>
</trkpt>
<trkpt lat="40.0728504" lon="-105.230773">
  <ele>1595.69</ele>
  <time>2026-08-28T19:11:07Z</time>
  <course>324.33</course>
  <speed>0.03</speed>
  <fix>3d</fix>
</trkpt>
<trkpt lat="40.0728503" lon="-105.230773">
  <ele>1595.74</ele>
  <time>2026-08-28T19:11:07Z</time>
  <course>35.38</course>
  <speed>0.01414213562373095</speed>
  <fix>3d</fix>
</trkpt>
<trkpt lat="40.0728505" lon="-105.2307731">
  <ele>1595.69</ele>
  <time>2026-08-28T19:11:07Z</time>
  <course>324.66</course>
  <speed>0.02</speed>
  <fix>3d</fix>
</trkpt>
<trkpt lat="40.0728504" lon="-105.230773">
  <ele>1595.74</ele>
  <time>2026-08-28T19:11:07Z</time>
  <course>35.38</course>
  <speed>0.01</speed>
  <fix>3d</fix>
</trkpt>
<trkpt lat="40.0728505" lon="-105.2307732">
  <ele>1595.69</ele>
  <time>2026-08-28T19:11:07Z</time>
  <course>326.17</course>
  <speed>0.02</speed>
  <fix>3d</fix>
</trkpt>
<trkpt lat="40.0728504" lon="-105.2307731">
  <ele>1595.74</ele>
  <time>2026-08-28T19:11:07Z</time>
  <course>35.37</course>
  <speed>0.01</speed>
  <fix>3d</fix>
</trkpt>
<trkpt lat="40.0728505" lon="-105.2307732">
  <ele>1595.69</ele>
  <time>2026-08-28T19:11:07Z</time>
  <course>328.08</course>
  <speed>0.01</speed>
  <fix>3d</fix>
</trkpt>
<trkpt lat="40.0728505" lon="-105.2307731">
  <ele>1595.75</ele>
  <time>2026-08-28T19:11:07Z</time>
  <course>35.37</course>
  <speed>0.01</speed>
  <fix>3d</fix>
</trkpt>
<trkpt lat="40.0728506" lon="-105.2307732">
  <ele>1595.69</ele>
  <time>2026-08-28T19:11:07Z</time>
  <course>329.05</course>
  <speed>0.01</speed>
  <fix>3d</fix>
</trkpt>
<trkpt lat="40.0728505" lon="-105.2307731">
  <ele>1595.75</ele>
  <time>2026-08-28T19:11:07Z</time>
  <course>35.36</course>
  <speed>0.01</speed>
  <fix>3d</fix>
</trkpt>
<trkpt lat="40.0728506" lon="-105.2307732">
  <ele>1595.69</ele>
  <time>2026-08-28T19:11:07Z</time>
  <course>328.89</course>
  <speed>0.01</speed>
  <fix>3d</fix>
</trkpt>
<trkpt lat="40.0728505" lon="-105.2307731">
  <ele>1595.75</ele>
  <time>2026-08-28T19:11:07Z</time>
  <course>35.36</course>
  <speed>0.01</speed>
  <fix>3d</fix>
</trkpt>
<trkpt lat="40.0728506" lon="-105.2307733">
  <ele>1595.69</ele>
  <time>2026-08-28T19:11:07Z</time>
  <course>328.07</course>
  <speed>0.01</speed>
  <fix>3d</fix>
</trkpt>
<trkpt lat="40.0728505" lon="-105.2307732">
  <ele>1595.75</ele>
  <time>2026-08-28T19:11:07Z</time>
  <course>35.37</course>
  <speed>0.0</speed>
  <fix>3d</fix>
</trkpt>
<trkpt lat="40.0728506" lon="-105.2307733">
  <ele>1595.69</ele>
  <time>2026-08-28T19:11:07Z</time>
  <course>326.99</course>
  <speed>0.01</speed>
  <fix>3d</fix>
</trkpt>
<trkpt lat="40.0728506" lon="-105.2307732">
  <ele>1595.75</ele>
  <time>2026-08-28T19:11:07Z</time>
  <course>35.38</course>
  <speed>0.0</speed>
  <fix>3d</fix>
</trkpt>
<trkpt lat="40.0728507" lon="-105.2307733">
  <ele>1595.68</ele>
  <time>2026-08-28T19:11:07Z</time>
  <course>325.8</course>
  <speed>0.01</speed>
  <fix>3d</fix>
</trkpt>
<trkpt lat="40.0728506" lon="-105.2307732">
  <ele>1595.76</ele>
  <time>2026-08-28T19:11:07Z</time>
  <course>35.39</course>
  <speed>0.0</speed>
  <fix>3d</fix>
</trkpt>
<trkpt lat="40.0728508" lon="-105.2307733">
  <ele>1595.68</ele>
  <time>2026-08-28T19:11:07Z</time>
  <course>323.63</course>
  <speed>0.0</speed>
  <fix>3d</fix>
</trkpt>
<trkpt lat="40.0728506" lon="-105.2307732">
  <ele>1595.76</ele>
  <time>2026-08-28T19:11:07Z</time>
  <course>35.37</course>
  <speed>0.0</speed>
  <fix>3d</fix>
</trkpt>
<trkpt lat="40.0728508" lon="-105.2307733">
  <ele>1595.68</ele>
  <time>2026-08-28T19:11:07Z</time>
  <course>138.96</course>
  <speed>0.0</speed>
  <fix>3d</fix>
</trkpt>
<trkpt lat="40.0728506" lon="-105.2307732">
  <ele>1595.75</ele>
  <time>2026-08-28T19:11:07Z</time>
  <course>35.36</course>
  <speed>0.0</speed>
  <fix>3d</fix>
</trkpt>
<trkpt lat="40.0728508" lon="-105.2307733">
  <ele>1595.68</ele>
  <time>2026-08-28T19:11:07Z</time>
  <course>105.79</course>
  <speed>0.0</speed>
  <fix>3d</fix>
</trkpt>
<trkpt lat="40.0728506" lon="-105.2307732">
  <ele>1595.75</ele>
  <time>2026-08-28T19:11:07Z</time>
  <course>35.37</course>
  <speed>0.0</speed>
  <fix>3d</fix>
</trkpt>
<trkpt lat="40.0728508" lon="-105.2307733">
  <ele>1595.67</ele>
  <time>2026-08-28T19:11:07Z</time>
  <course>28.47</course>
  <speed>0.0</speed>
  <fix>3d</fix>
</trkpt>
<trkpt lat="40.0728507" lon="-105.2307732">
  <ele>1595.75</ele>
  <time>2026-08-28T19:11:07Z</time>
  <course>35.37</course>
  <speed>0.01</speed>
  <fix>3d</fix>
</trkpt>
<trkpt lat="40.0728508" lon="-105.2307733">
  <ele>1595.67</ele>
  <time>2026-08-28T19:11:07Z</time>
  <course>350.22</course>
  <speed>0.0</speed>
  <fix>3d</fix>
</trkpt>
<trkpt lat="40.0728507" lon="-105.2307732">
  <ele>1595.75</ele>
  <time>2026-08-28T19:11:07Z</time>
  <course>35.38</course>
  <speed>0.01</speed>
  <fix>3d</fix>
</trkpt>
<trkpt lat="40.0728508" lon="-105.2307733">
  <ele>1595.67</ele>
  <time>2026-08-28T19:11:07Z</time>
  <course>337.47</course>
  <speed>0.01</speed>
  <fix>3d</fix>
</trkpt>
<trkpt lat="40.0728507" lon="-105.2307733">
  <ele>1595.75</ele>
  <time>2026-08-28T19:11:07Z</time>
  <course>35.38</course>
  <speed>0.01414213562373095</speed>
  <fix>3d</fix>
</trkpt>
<trkpt lat="40.0728508" lon="-105.2307733">
  <ele>1595.66</ele>
  <time>2026-08-28T19:11:07Z</time>
  <course>332.47</course>
  <speed>0.01</speed>
  <fix>3d</fix>
</trkpt>
<trkpt lat="40.0728508" lon="-105.2307733">
  <ele>1595.75</ele>
  <time>2026-08-28T19:11:07Z</time>
  <course>35.38</course>
  <speed>0.01414213562373095</speed>
  <fix>3d</fix>
</trkpt>
<trkpt lat="40.0728508" lon="-105.2307733">
  <ele>1595.66</ele>
  <time>2026-08-28T19:11:07Z</time>
  <course>329.49</course>
  <speed>0.01</speed>
  <fix>3d</fix>
</trkpt>
<trkpt lat="40.0728508" lon="-105.2307733">
  <ele>1595.74</ele>
  <time>2026-08-28T19:11:07Z</time>
  <course>35.37</course>
  <speed>0.01414213562373095</speed>
  <fix>3d</fix>
</trkpt>
<trkpt lat="40.0728509" lon="-105.2307733">
  <ele>1595.66</ele>
  <time>2026-08-28T19:11:07Z</time>
  <course>327.92</course>
  <speed>0.02</speed>
  <fix>3d</fix>
</trkpt>
<trkpt lat="40.0728508" lon="-105.2307734">
  <ele>1595.74</ele>
  <time>2026-08-28T19:11:07Z</time>
  <course>35.36</course>
  <speed>0.01414213562373095</speed>
  <fix>3d</fix>
</trkpt>
<trkpt lat="40.0728509" lon="-105.2307733">
  <ele>1595.66</ele>
  <time>2026-08-28T19:11:07Z</time>
  <course>327.15</course>
  <speed>0.02</speed>
  <fix>3d</fix>
</trkpt>
<trkpt lat="40.0728509" lon="-105.2307734">
  <ele>1595.73</ele>
  <time>2026-08-28T19:11:07Z</time>
  <course>35.35</course>
  <speed>0.022360679774997897</speed>
  <fix>3d</fix>
</trkpt>
<trkpt lat="40.0728509" lon="-105.2307734">
  <ele>1595.66</ele>
  <time>2026-08-28T19:11:07Z</time>
  <course>326.3</course>
  <speed>0.02</speed>
  <fix>3d</fix>
</trkpt>
<trkpt lat="40.0728509" lon="-105.2307734">
  <ele>1595.73</ele>
  <time>2026-08-28T19:11:07Z</time>
  <course>35.35</course>
  <speed>0.022360679774997897</speed>
  <fix>3d</fix>
</trkpt>
<trkpt lat="40.072851" lon="-105.2307735">
  <ele>1595.66</ele>
  <time>2026-08-28T19:11:07Z</time>
  <course>325.27</course>
  <speed>0.02</speed>
  <fix>3d</fix>
</trkpt>
<trkpt lat="40.072851" lon="-105.2307735">
  <ele>1595.73</ele>
  <time>2026-08-28T19:11:07Z</time>
  <course>35.35</course>
  <speed>0.022360679774997897</speed>
  <fix>3d</fix>
</trkpt>
<trkpt lat="40.072851" lon="-105.2307735">
  <ele>1595.66</ele>
  <time>2026-08-28T19:11:07Z</time>
  <course>324.34</course>
  <speed>0.02</speed>
  <fix>3d</fix>
</trkpt>
<trkpt lat="40.072851" lon="-105.2307735">
  <ele>1595.74</ele>
  <time>2026-08-28T19:11:07Z</time>
  <course>35.35</course>
  <speed>0.022360679774997897</speed>
  <fix>3d</fix>
</trkpt>
<trkpt lat="40.072851" lon="-105.2307735">
  <ele>1595.66</ele>
  <time>2026-08-28T19:11:07Z</time>
  <course>323.41</course>
  <speed>0.02</speed>
  <fix>3d</fix>
</trkpt>
<trkpt lat="40.072851" lon="-105.2307735">
  <ele>1595.74</ele>
  <time>2026-08-28T19:11:07Z</time>
  <course>35.36</course>
  <speed>0.022360679774997897</speed>
  <fix>3d</fix>
</trkpt>
<trkpt lat="40.0728511" lon="-105.2307735">
  <ele>1595.66</ele>
  <time>2026-08-28T19:11:07Z</time>
  <course>323.4</course>
  <speed>0.02</speed>
  <fix>3d</fix>
</trkpt>
<trkpt lat="40.0728511" lon="-105.2307736">
  <ele>1595.75</ele>
  <time>2026-08-28T19:11:07Z</time>
  <course>35.36</course>
  <speed>0.022360679774997897</speed>
  <fix>3d</fix>
</trkpt>
<trkpt lat="40.0728511" lon="-105.2307736">
  <ele>1595.66</ele>
  <time>2026-08-28T19:11:07Z</time>
  <course>324.17</course>
  <speed>0.02</speed>
  <fix>3d</fix>
</trkpt>
<trkpt lat="40.0728511" lon="-105.2307736">
  <ele>1595.75</ele>
  <time>2026-08-28T19:11:07Z</time>
  <course>35.37</course>
  <speed>0.03605551275463989</speed>
  <fix>3d</fix>
</trkpt>
<trkpt lat="40.0728511" lon="-105.2307737">
  <ele>1595.66</ele>
  <time>2026-08-28T19:11:07Z</time>
  <course>324.74</course>
  <speed>0.03</speed>
  <fix>3d</fix>
</trkpt>
<trkpt lat="40.0728512" lon="-105.2307737">
  <ele>1595.75</ele>
  <time>2026-08-28T19:11:07Z</time>
  <course>35.38</course>
  <speed>0.03605551275463989</speed>
  <fix>3d</fix>
</trkpt>
<trkpt lat="40.0728512" lon="-105.2307737">
  <ele>1595.66</ele>
  <time>2026-08-28T19:11:07Z</time>
  <course>324.23</course>
  <speed>0.04</speed>
  <fix>3d</fix>
</trkpt>
<trkpt lat="40.0728512" lon="-105.2307738">
  <ele>1595.74</ele>
  <time>2026-08-28T19:11:07Z</time>
  <course>35.38</course>
  <speed>0.0282842712474619</speed>
  <fix>3d</fix>
</trkpt>
<trkpt lat="40.0728512" lon="-105.2307738">
  <ele>1595.66</ele>
  <time>2026-08-28T19:11:07Z</time>
  <course>321.01</course>
  <speed>0.04</speed>
  <fix>3d</fix>
</trkpt>
<trkpt lat="40.0728513" lon="-105.2307738">
  <ele>1595.74</ele>
  <time>2026-08-28T19:11:07Z</time>
  <course>35.38</course>
  <speed>0.022360679774997897</speed>
  <fix>3d</fix>
</trkpt>
<trkpt lat="40.0728513" lon="-105.2307738">
  <ele>1595.66</ele>
  <time>2026-08-28T19:11:07Z</time>
  <course>315.51</course>
  <speed>0.03</speed>
  <fix>3d</fix>
</trkpt>
<trkpt lat="40.0728513" lon="-105.2307739">
  <ele>1595.74</ele>
  <time>2026-08-28T19:11:07Z</time>
  <course>35.37</course>
  <speed>0.01414213562373095</speed>
  <fix>3d</fix>
</trkpt>
<trkpt lat="40.0728514" lon="-105.2307738">
  <ele>1595.65</ele>
  <time>2026-08-28T19:11:07Z</time>
  <course>310.03</course>
  <speed>0.02</speed>
  <fix>3d</fix>
</trkpt>
<trkpt lat="40.0728513" lon="-105.2307739">
  <ele>1595.74</ele>
  <time>2026-08-28T19:11:07Z</time>
  <course>35.36</course>
  <speed>0.01414213562373095</speed>
  <fix>3d</fix>
</trkpt>
<trkpt lat="40.0728514" lon="-105.2307739">
  <ele>1595.65</ele>
  <time>2026-08-28T19:11:07Z</time>
  <course>304.53</course>
  <speed>0.01</speed>
  <fix>3d</fix>
</trkpt>
<trkpt lat="40.0728513" lon="-105.2307739">
  <ele>1595.74</ele>
  <time>2026-08-28T19:11:07Z</time>
  <course>35.37</course>
  <speed>0.01414213562373095</speed>
  <fix>3d</fix>
</trkpt>
<trkpt lat="40.0728514" lon="-105.230774">
  <ele>1595.65</ele>
  <time>2026-08-28T19:11:07Z</time>
  <course>299.25</course>
  <speed>0.01</speed>
  <fix>3d</fix>
</trkpt>
<trkpt lat="40.0728514" lon="-105.2307739">
  <ele>1595.74</ele>
  <time>2026-08-28T19:11:07Z</time>
  <course>35.37</course>
  <speed>0.01</speed>
  <fix>3d</fix>
</trkpt>
<trkpt lat="40.0728515" lon="-105.230774">
  <ele>1595.65</ele>
  <time>2026-08-28T19:11:07Z</time>
  <course>297.35</course>
  <speed>0.0</speed>
  <fix>3d</fix>
</trkpt>
<trkpt lat="40.0728514" lon="-105.2307739">
  <ele>1595.74</ele>
  <time>2026-08-28T19:11:07Z</time>
  <course>35.36</course>
  <speed>0.01</speed>
  <fix>3d</fix>
</trkpt>
<trkpt lat="40.0728515" lon="-105.230774">
  <ele>1595.65</ele>
  <time>2026-08-28T19:11:07Z</time>
  <course>300.67</course>
  <speed>0.0</speed>
  <fix>3d</fix>
</trkpt>
<trkpt lat="40.0728514" lon="-105.230774">
  <ele>1595.74</ele>
  <time>2026-08-28T19:11:07Z</time>
  <course>35.35</course>
  <speed>0.0</speed>
  <fix>3d</fix>
</trkpt>
<trkpt lat="40.0728515" lon="-105.230774">
  <ele>1595.65</ele>
  <time>2026-08-28T19:11:07Z</time>
  <course>305.87</course>
  <speed>0.0</speed>
  <fix>3d</fix>
</trkpt>
<trkpt lat="40.0728514" lon="-105.230774">
  <ele>1595.74</ele>
  <time>2026-08-28T19:11:07Z</time>
  <course>35.35</course>
  <speed>0.0</speed>
  <fix>3d</fix>
</trkpt>
<trkpt lat="40.0728515" lon="-105.230774">
  <ele>1595.65</ele>
  <time>2026-08-28T19:11:07Z</time>
  <course>309.53</course>
  <speed>0.01</speed>
  <fix>3d</fix>
</trkpt>
<trkpt lat="40.0728514" lon="-105.230774">
  <ele>1595.74</ele>
  <time>2026-08-28T19:11:07Z</time>
  <course>35.35</course>
  <speed>0.0</speed>
  <fix>3d</fix>
</trkpt>
<trkpt lat="40.0728515" lon="-105.230774">
  <ele>1595.65</ele>
  <time>2026-08-28T19:11:07Z</time>
  <course>310.3</course>
  <speed>0.01</speed>
  <fix>3d</fix>
</trkpt>
<trkpt lat="40.0728514" lon="-105.230774">
  <ele>1595.74</ele>
  <time>2026-08-28T19:11:07Z</time>
  <course>35.36</course>
  <speed>0.0</speed>
  <fix>3d</fix>
</trkpt>
<trkpt lat="40.0728515" lon="-105.230774">
  <ele>1595.65</ele>
  <time>2026-08-28T19:11:07Z</time>
  <course>307.91</course>
  <speed>0.01</speed>
  <fix>3d</fix>
</trkpt>
<trkpt lat="40.0728514" lon="-105.230774">
  <ele>1595.74</ele>
  <time>2026-08-28T19:11:07Z</time>
  <course>35.36</course>
  <speed>0.0</speed>
  <fix>3d</fix>
</trkpt>
<trkpt lat="40.0728515" lon="-105.230774">
  <ele>1595.65</ele>
  <time>2026-08-28T19:11:07Z</time>
  <course>212.76</course>
  <speed>0.0</speed>
  <fix>3d</fix>
</trkpt>
<trkpt lat="40.0728514" lon="-105.230774">
  <ele>1595.74</ele>
  <time>2026-08-28T19:11:07Z</time>
  <course>35.36</course>
  <speed>0.0</speed>
  <fix>3d</fix>
</trkpt>
<trkpt lat="40.0728515" lon="-105.230774">
  <ele>1595.65</ele>
  <time>2026-08-28T19:11:07Z</time>
  <course>159.69</course>
  <speed>0.01</speed>
  <fix>3d</fix>
</trkpt>
<trkpt lat="40.0728514" lon="-105.230774">
  <ele>1595.74</ele>
  <time>2026-08-28T19:11:07Z</time>
  <course>35.36</course>
  <speed>0.0</speed>
  <fix>3d</fix>
</trkpt>
<trkpt lat="40.0728515" lon="-105.230774">
  <ele>1595.65</ele>
  <time>2026-08-28T19:11:07Z</time>
  <course>152.27</course>
  <speed>0.01</speed>
  <fix>3d</fix>
</trkpt>
<trkpt lat="40.0728514" lon="-105.230774">
  <ele>1595.74</ele>
  <time>2026-08-28T19:11:07Z</time>
  <course>35.35</course>
  <speed>0.0</speed>
  <fix>3d</fix>
</trkpt>
<trkpt lat="40.0728515" lon="-105.230774">
  <ele>1595.65</ele>
  <time>2026-08-28T19:11:07Z</time>
  <course>149.36</course>
  <speed>0.0</speed>
  <fix>3d</fix>
</trkpt>
<trkpt lat="40.0728514" lon="-105.230774">
  <ele>1595.74</ele>
  <time>2026-08-28T19:11:07Z</time>
  <course>35.36</course>
  <speed>0.01</speed>
  <fix>3d</fix>
</trkpt>
<trkpt lat="40.0728515" lon="-105.230774">
  <ele>1595.65</ele>
  <time>2026-08-28T19:11:07Z</time>
  <course>308.57</course>
  <speed>0.0</speed>
  <fix>3d</fix>
</trkpt>
<trkpt lat="40.0728514" lon="-105.230774">
  <ele>1595.74</ele>
  <time>2026-08-28T19:11:07Z</time>
  <course>35.37</course>
  <speed>0.01414213562373095</speed>
  <fix>3d</fix>
</trkpt>
<trkpt lat="40.0728515" lon="-105.230774">
  <ele>1595.65</ele>
  <time>2026-08-28T19:11:07Z</time>
  <course>315.96</course>
  <speed>0.0</speed>
  <fix>3d</fix>
</trkpt>
<trkpt lat="40.0728515" lon="-105.230774">
  <ele>1595.74</ele>
  <time>2026-08-28T19:11:07Z</time>
  <course>35.36</course>
  <speed>0.01414213562373095</speed>
  <fix>3d</fix>
</trkpt>
<trkpt lat="40.0728515" lon="-105.230774">
  <ele>1595.65</ele>
  <time>2026-08-28T19:11:07Z</time>
  <course>317.09</course>
  <speed>0.01</speed>
  <fix>3d</fix>
</trkpt>
<trkpt lat="40.0728515" lon="-105.230774">
  <ele>1595.74</ele>
  <time>2026-08-28T19:11:07Z</time>
  <course>35.37</course>
  <speed>0.01414213562373095</speed>
  <fix>3d</fix>
</trkpt>
<trkpt lat="40.0728515" lon="-105.230774">
  <ele>1595.65</ele>
  <time>2026-08-28T19:11:07Z</time>
  <course>318.43</course>
  <speed>0.01</speed>
  <fix>3d</fix>
</trkpt>
<trkpt lat="40.0728515" lon="-105.2307741">
  <ele>1595.75</ele>
  <time>2026-08-28T19:11:07Z</time>
  <course>35.37</course>
  <speed>0.01414213562373095</speed>
  <fix>3d</fix>
</trkpt>
<trkpt lat="40.0728515" lon="-105.2307741">
  <ele>1595.65</ele>
  <time>2026-08-28T19:11:07Z</time>
  <course>319.67</course>
  <speed>0.01</speed>
  <fix>3d</fix>
</trkpt>
<trkpt lat="40.0728515" lon="-105.2307741">
  <ele>1595.74</ele>
  <time>2026-08-28T19:11:07Z</time>
  <course>35.37</course>
  <speed>0.022360679774997897</speed>
  <fix>3d</fix>
</trkpt>
<trkpt lat="40.0728515" lon="-105.2307742">
  <ele>1595.65</ele>
  <time>2026-08-28T19:11:07Z</time>
  <course>319.84</course>
  <speed>0.02</speed>
  <fix>3d</fix>
</trkpt>
<trkpt lat="40.0728516" lon="-105.2307741">
  <ele>1595.74</ele>
  <time>2026-08-28T19:11:07Z</time>
  <course>35.36</course>
  <speed>0.022360679774997897</speed>
  <fix>3d</fix>
</trkpt>
<trkpt lat="40.0728516" lon="-105.2307742">
  <ele>1595.65</ele>
  <time>2026-08-28T19:11:07Z</time>
  <course>319.67</course>
  <speed>0.02</speed>
  <fix>3d</fix>
</trkpt>
<trkpt lat="40.0728516" lon="-105.2307742">
  <ele>1595.75</ele>
  <time>2026-08-28T19:11:07Z</time>
  <course>35.37</course>
  <speed>0.022360679774997897</speed>
  <fix>3d</fix>
</trkpt>
<trkpt lat="40.0728516" lon="-105.2307742">
  <ele>1595.65</ele>
  <time>2026-08-28T19:11:07Z</time>
  <course>319.66</course>
  <speed>0.02</speed>
  <fix>3d</fix>
</trkpt>
<trkpt lat="40.0728516" lon="-105.2307742">
  <ele>1595.75</ele>
  <time>2026-08-28T19:11:07Z</time>
  <course>35.37</course>
  <speed>0.022360679774997897</speed>
  <fix>3d</fix>
</trkpt>
<trkpt lat="40.0728516" lon="-105.2307742">
  <ele>1595.65</ele>
  <time>2026-08-28T19:11:07Z</time>
  <course>318.78</course>
  <speed>0.02</speed>
  <fix>3d</fix>
</trkpt>
<trkpt lat="40.0728517" lon="-105.2307743">
  <ele>1595.75</ele>
  <time>2026-08-28T19:11:07Z</time>
  <course>35.36</course>
  <speed>0.022360679774997897</speed>
  <fix>3d</fix>
</trkpt>
<trkpt lat="40.0728517" lon="-105.2307743">
  <ele>1595.65</ele>
  <time>2026-08-28T19:11:07Z</time>
  <course>317.86</course>
  <speed>0.02</speed>
  <fix>3d</fix>
</trkpt>
<trkpt lat="40.0728517" lon="-105.2307743">
  <ele>1595.75</ele>
  <time>2026-08-28T19:11:07Z</time>
  <course>35.37</course>
  <speed>0.022360679774997897</speed>
  <fix>3d</fix>
</trkpt>
<trkpt lat="40.0728517" lon="-105.2307744">
  <ele>1595.65</ele>
  <time>2026-08-28T19:11:07Z</time>
  <course>317.23</course>
  <speed>0.02</speed>
  <fix>3d</fix>
</trkpt>
<trkpt lat="40.0728517" lon="-105.2307743">
  <ele>1595.75</ele>
  <time>2026-08-28T19:11:07Z</time>
  <course>35.37</course>
  <speed>0.01414213562373095</speed>
  <fix>3d</fix>
</trkpt>
<trkpt lat="40.0728517" lon="-105.2307744">
  <ele>1595.65</ele>
  <time>2026-08-28T19:11:07Z</time>
  <course>316.55</course>
  <speed>0.02</speed>
  <fix>3d</fix>
</trkpt>
<trkpt lat="40.0728517" lon="-105.2307744">
  <ele>1595.75</ele>
  <time>2026-08-28T19:11:07Z</time>
  <course>35.38</course>
  <speed>0.0282842712474619</speed>
  <fix>3d</fix>
</trkpt>
<trkpt lat="40.0728517" lon="-105.2307744">
  <ele>1595.64</ele>
  <time>2026-08-28T19:11:07Z</time>
  <course>318.85</course>
  <speed>0.03</speed>
  <fix>3d</fix>
</trkpt>
<trkpt lat="40.0728518" lon="-105.2307745">
  <ele>1595.74</ele>
  <time>2026-08-28T19:11:07Z</time>
  <course>35.38</course>
  <speed>0.0282842712474619</speed>
  <fix>3d</fix>
</trkpt>
<trkpt lat="40.0728517" lon="-105.2307745">
  <ele>1595.64</ele>
  <time>2026-08-28T19:11:07Z</time>
  <course>319.08</course>
  <speed>0.04</speed>
  <fix>3d</fix>
</trkpt>
<trkpt lat="40.0728518" lon="-105.2307745">
  <ele>1595.74</ele>
  <time>2026-08-28T19:11:07Z</time>
  <course>35.38</course>
  <speed>0.022360679774997897</speed>
  <fix>3d</fix>
</trkpt>
<trkpt lat="40.0728518" lon="-105.2307745">
  <ele>1595.64</ele>
  <time>2026-08-28T19:11:07Z</time>
  <course>314.64</course>
  <speed>0.03</speed>
  <fix>3d</fix>
</trkpt>
<trkpt lat="40.0728518" lon="-105.2307746">
  <ele>1595.74</ele>
  <time>2026-08-28T19:11:07Z</time>
  <course>35.38</course>
  <speed>0.01414213562373095</speed>
  <fix>3d</fix>
</trkpt>
<trkpt lat="40.0728518" lon="-105.2307745">
  <ele>1595.64</ele>
  <time>2026-08-28T19:11:07Z</time>
  <course>307.25</course>
  <speed>0.02</speed>
  <fix>3d</fix>
</trkpt>
<trkpt lat="40.0728519" lon="-105.2307746">
  <ele>1595.74</ele>
  <time>2026-08-28T19:11:07Z</time>
  <course>35.38</course>
  <speed>0.01</speed>
  <fix>3d</fix>
</trkpt>
<trkpt lat="40.0728518" lon="-105.2307746">
  <ele>1595.64</ele>
  <time>2026-08-28T19:11:07Z</time>
  <course>298.36</course>
  <speed>0.02</speed>
  <fix>3d</fix>
</trkpt>
<trkpt lat="40.0728519" lon="-105.2307746">
  <ele>1595.73</ele>
  <time>2026-08-28T19:11:07Z</time>
  <course>35.38</course>
  <speed>0.01</speed>
  <fix>3d</fix>
</trkpt>
<trkpt lat="40.0728518" lon="-105.2307747">
  <ele>1595.64</ele>
  <time>2026-08-28T19:11:07Z</time>
  <course>286.29</course>
  <speed>0.01</speed>
  <fix>3d</fix>
</trkpt>
<trkpt lat="40.0728519" lon="-105.2307747">
  <ele>1595.72</ele>
  <time>2026-08-28T19:11:07Z</time>
  <course>35.37</course>
  <speed>0.0</speed>
  <fix>3d</fix>
</trkpt>
<trkpt lat="40.0728518" lon="-105.2307747">
  <ele>1595.64</ele>
  <time>2026-08-28T19:11:07Z</time>
  <course>267.65</course>
  <speed>0.0</speed>
  <fix>3d</fix>
</trkpt>
<trkpt lat="40.0728518" lon="-105.2307747">
  <ele>1595.72</ele>
  <time>2026-08-28T19:11:07Z</time>
  <course>35.35</course>
  <speed>0.0</speed>
  <fix>3d</fix>
</trkpt>
<trkpt lat="40.0728518" lon="-105.2307747">
  <ele>1595.64</ele>
  <time>2026-08-28T19:11:07Z</time>
  <course>243.87</course>
  <speed>0.0</speed>
  <fix>3d</fix>
</trkpt>
<trkpt lat="40.0728518" lon="-105.2307747">
  <ele>1595.72</ele>
  <time>2026-08-28T19:11:07Z</time>
  <course>35.31</course>
  <speed>0.0</speed>
  <fix>3d</fix>
</trkpt>
<trkpt lat="40.0728518" lon="-105.2307747">
  <ele>1595.64</ele>
  <time>2026-08-28T19:11:07Z</time>
  <course>228.2</course>
  <speed>0.0</speed>
  <fix>3d</fix>
</trkpt>
<trkpt lat="40.0728518" lon="-105.2307747">
  <ele>1595.72</ele>
  <time>2026-08-28T19:11:07Z</time>
  <course>35.29</course>
  <speed>0.0</speed>
  <fix>3d</fix>
</trkpt>
<trkpt lat="40.0728518" lon="-105.2307747">
  <ele>1595.64</ele>
  <time>2026-08-28T19:11:07Z</time>
  <course>227.39</course>
  <speed>0.0</speed>
  <fix>3d</fix>
</trkpt>
<trkpt lat="40.0728518" lon="-105.2307747">
  <ele>1595.73</ele>
  <time>2026-08-28T19:11:07Z</time>
  <course>35.3</course>
  <speed>0.0</speed>
  <fix>3d</fix>
</trkpt>
<trkpt lat="40.0728518" lon="-105.2307747">
  <ele>1595.65</ele>
  <time>2026-08-28T19:11:07Z</time>
  <course>238.04</course>
  <speed>0.0</speed>
  <fix>3d</fix>
</trkpt>
<trkpt lat="40.0728518" lon="-105.2307747">
  <ele>1595.74</ele>
  <time>2026-08-28T19:11:07Z</time>
  <course>35.34</course>
  <speed>0.0</speed>
  <fix>3d</fix>
</trkpt>
<trkpt lat="40.0728518" lon="-105.2307747">
  <ele>1595.65</ele>
  <time>2026-08-28T19:11:07Z</time>
  <course>255.87</course>
  <speed>0.0</speed>
  <fix>3d</fix>
</trkpt>
<trkpt lat="40.0728518" lon="-105.2307747">
  <ele>1595.74</ele>
  <time>2026-08-28T19:11:07Z</time>
  <course>35.35</course>
  <speed>0.0</speed>
  <fix>3d</fix>
</trkpt>
<trkpt lat="40.0728518" lon="-105.2307747">
  <ele>1595.66</ele>
  <time>2026-08-28T19:11:07Z</time>
  <course>271.35</course>
  <speed>0.0</speed>
  <fix>3d</fix>
</trkpt>
<trkpt lat="40.0728518" lon="-105.2307747">
  <ele>1595.74</ele>
  <time>2026-08-28T19:11:07Z</time>
  <course>35.38</course>
  <speed>0.01</speed>
  <fix>3d</fix>
</trkpt>
<trkpt lat="40.0728518" lon="-105.2307747">
  <ele>1595.66</ele>
  <time>2026-08-28T19:11:07Z</time>
  <course>185.73</course>
  <speed>0.0</speed>
  <fix>3d</fix>
</trkpt>
<trkpt lat="40.0728518" lon="-105.2307747">
  <ele>1595.74</ele>
  <time>2026-08-28T19:11:07Z</time>
  <course>35.37</course>
  <speed>0.01</speed>
  <fix>3d</fix>
</trkpt>
<trkpt lat="40.0728518" lon="-105.2307747">
  <ele>1595.66</ele>
  <time>2026-08-28T19:11:07Z</time>
  <course>161.78</course>
  <speed>0.01</speed>
  <fix>3d</fix>
</trkpt>
<trkpt lat="40.0728518" lon="-105.2307747">
  <ele>1595.75</ele>
  <time>2026-08-28T19:11:07Z</time>
  <course>35.37</course>
  <speed>0.0</speed>
  <fix>3d</fix>
</trkpt>
<trkpt lat="40.0728518" lon="-105.2307747">
  <ele>1595.66</ele>
  <time>2026-08-28T19:11:07Z</time>
  <course>157.36</course>
  <speed>0.01</speed>
  <fix>3d</fix>
</trkpt>
<trkpt lat="40.0728518" lon="-105.2307747">
  <ele>1595.75</ele>
  <time>2026-08-28T19:11:07Z</time>
  <course>35.37</course>
  <speed>0.0</speed>
  <fix>3d</fix>
</trkpt>
<trkpt lat="40.0728518" lon="-105.2307747">
  <ele>1595.66</ele>
  <time>2026-08-28T19:11:07Z</time>
  <course>153.03</course>
  <speed>0.01</speed>
  <fix>3d</fix>
</trkpt>
<trkpt lat="40.0728518" lon="-105.2307747">
  <ele>1595.75</ele>
  <time>2026-08-28T19:11:07Z</time>
  <course>35.38</course>
  <speed>0.0</speed>
  <fix>3d</fix>
</trkpt>
<trkpt lat="40.0728518" lon="-105.2307747">
  <ele>1595.66</ele>
  <time>2026-08-28T19:11:07Z</time>
  <course>157.81</course>
  <speed>0.0</speed>
  <fix>3d</fix>
</trkpt>
<trkpt lat="40.0728518" lon="-105.2307747">
  <ele>1595.75</ele>
  <time>2026-08-28T19:11:07Z</time>
  <course>35.38</course>
  <speed>0.0</speed>
  <fix>3d</fix>
</trkpt>
<trkpt lat="40.0728518" lon="-105.2307747">
  <ele>1595.66</ele>
  <time>2026-08-28T19:11:07Z</time>
  <course>227.32</course>
  <speed>0.0</speed>
  <fix>3d</fix>
</trkpt>
<trkpt lat="40.0728518" lon="-105.2307747">
  <ele>1595.74</ele>
  <time>2026-08-28T19:11:07Z</time>
  <course>35.37</course>
  <speed>0.01414213562373095</speed>
  <fix>3d</fix>
</trkpt>
<trkpt lat="40.0728518" lon="-105.2307747">
  <ele>1595.66</ele>
  <time>2026-08-28T19:11:07Z</time>
  <course>292.05</course>
  <speed>0.0</speed>
  <fix>3d</fix>
</trkpt>
<trkpt lat="40.0728518" lon="-105.2307747">
  <ele>1595.74</ele>
  <time>2026-08-28T19:11:07Z</time>
  <course>35.36</course>
  <speed>0.01414213562373095</speed>
  <fix>3d</fix>
</trkpt>
<trkpt lat="40.0728518" lon="-105.2307747">
  <ele>1595.66</ele>
  <time>2026-08-28T19:11:07Z</time>
  <course>302.78</course>
  <speed>0.0</speed>
  <fix>3d</fix>
</trkpt>
<trkpt lat="40.0728518" lon="-105.2307747">
  <ele>1595.74</ele>
  <time>2026-08-28T19:11:07Z</time>
  <course>35.36</course>
  <speed>0.01414213562373095</speed>
  <fix>3d</fix>
</trkpt>
<trkpt lat="40.0728518" lon="-105.2307747">
  <ele>1595.66</ele>
  <time>2026-08-28T19:11:07Z</time>
  <course>307.51</course>
  <speed>0.01</speed>
  <fix>3d</fix>
</trkpt>
<trkpt lat="40.0728518" lon="-105.2307747">
  <ele>1595.75</ele>
  <time>2026-08-28T19:11:07Z</time>
  <course>35.37</course>
  <speed>0.01414213562373095</speed>
  <fix>3d</fix>
</trkpt>
<trkpt lat="40.0728518" lon="-105.2307748">
  <ele>1595.66</ele>
  <time>2026-08-28T19:11:07Z</time>
  <course>310.49</course>
  <speed>0.01</speed>
  <fix>3d</fix>
</trkpt>
<trkpt lat="40.0728518" lon="-105.2307748">
  <ele>1595.75</ele>
  <time>2026-08-28T19:11:07Z</time>
  <course>35.38</course>
  <speed>0.01414213562373095</speed>
  <fix>3d</fix>
</trkpt>
<trkpt lat="40.0728518" lon="-105.2307749">
  <ele>1595.66</ele>
  <time>2026-08-28T19:11:07Z</time>
  <course>311.85</course>
  <speed>0.01</speed>
  <fix>3d</fix>
</trkpt>
<trkpt lat="40.0728518" lon="-105.2307748">
  <ele>1595.75</ele>
  <time>2026-08-28T19:11:07Z</time>
  <course>35.38</course>
  <speed>0.01414213562373095</speed>
  <fix>3d</fix>
</trkpt>
<trkpt lat="40.0728518" lon="-105.2307749">
  <ele>1595.66</ele>
  <time>2026-08-28T19:11:07Z</time>
  <course>311.14</course>
  <speed>0.01</speed>
  <fix>3d</fix>
</trkpt>
<trkpt lat="40.0728518" lon="-105.2307749">
  <ele>1595.74</ele>
  <time>2026-08-28T19:11:07Z</time>
  <course>35.37</course>
  <speed>0.01414213562373095</speed>
  <fix>3d</fix>
</trkpt>
<trkpt lat="40.0728518" lon="-105.2307749">
  <ele>1595.66</ele>
  <time>2026-08-28T19:11:07Z</time>
  <course>310.75</course>
  <speed>0.01</speed>
  <fix>3d</fix>
</trkpt>
<trkpt lat="40.0728518" lon="-105.2307749">
  <ele>1595.74</ele>
  <time>2026-08-28T19:11:07Z</time>
  <course>35.37</course>
  <speed>0.01414213562373095</speed>
  <fix>3d</fix>
</trkpt>
<trkpt lat="40.0728518" lon="-105.230775">
  <ele>1595.66</ele>
  <time>2026-08-28T19:11:07Z</time>
  <course>311.05</course>
  <speed>0.01</speed>
  <fix>3d</fix>
</trkpt>
<trkpt lat="40.0728519" lon="-105.2307749">
  <ele>1595.74</ele>
  <time>2026-08-28T19:11:07Z</time>
  <course>35.36</course>
  <speed>0.01414213562373095</speed>
  <fix>3d</fix>
</trkpt>
<trkpt lat="40.0728519" lon="-105.230775">
  <ele>1595.66</ele>
  <time>2026-08-28T19:11:07Z</time>
  <course>310.34</course>
  <speed>0.01</speed>
  <fix>3d</fix>
</trkpt>
<trkpt lat="40.0728519" lon="-105.230775">
  <ele>1595.74</ele>
  <time>2026-08-28T19:11:07Z</time>
  <course>35.36</course>
  <speed>0.01414213562373095</speed>
  <fix>3d</fix>
</trkpt>
<trkpt lat="40.072852" lon="-105.230775">
  <ele>1595.65</ele>
  <time>2026-08-28T19:11:07Z</time>
  <course>309.48</course>
  <speed>0.01</speed>
  <fix>3d</fix>
</trkpt>
<trkpt lat="40.0728519" lon="-105.230775">
  <ele>1595.74</ele>
  <time>2026-08-28T19:11:07Z</time>
  <course>35.35</course>
  <speed>0.04242640687119285</speed>
  <fix>3d</fix>
</trkpt>
<trkpt lat="40.072852" lon="-105.230775">
  <ele>1595.65</ele>
  <time>2026-08-28T19:11:07Z</time>
  <course>312.41</course>
  <speed>0.02</speed>
  <fix>3d</fix>
</trkpt>
<trkpt lat="40.072852" lon="-105.2307751">
  <ele>1595.74</ele>
  <time>2026-08-28T19:11:07Z</time>
  <course>35.39</course>
  <speed>0.04242640687119285</speed>
  <fix>3d</fix>
</trkpt>
<trkpt lat="40.072852" lon="-105.230775">
  <ele>1595.65</ele>
  <time>2026-08-28T19:11:07Z</time>
  <course>316.09</course>
  <speed>0.02</speed>
  <fix>3d</fix>
</trkpt>
<trkpt lat="40.072852" lon="-105.2307751">
  <ele>1595.74</ele>
  <time>2026-08-28T19:11:07Z</time>
  <course>35.37</course>
  <speed>0.0282842712474619</speed>
  <fix>3d</fix>
</trkpt>
<trkpt lat="40.072852" lon="-105.2307751">
  <ele>1595.65</ele>
  <time>2026-08-28T19:11:07Z</time>
  <course>313.62</course>
  <speed>0.02</speed>
  <fix>3d</fix>
</trkpt>
<trkpt lat="40.072852" lon="-105.2307752">
  <ele>1595.74</ele>
  <time>2026-08-28T19:11:07Z</time>
  <course>35.36</course>
  <speed>0.022360679774997897</speed>
  <fix>3d</fix>
</trkpt>
<trkpt lat="40.0728521" lon="-105.2307752">
  <ele>1595.65</ele>
  <time>2026-08-28T19:11:07Z</time>
  <course>305.86</course>
  <speed>0.02</speed>
  <fix>3d</fix>
</trkpt>
<trkpt lat="40.0728521" lon="-105.2307752">
  <ele>1595.74</ele>
  <time>2026-08-28T19:11:07Z</time>
  <course>35.36</course>
  <speed>0.01414213562373095</speed>
  <fix>3d</fix>
</trkpt>
<trkpt lat="40.0728521" lon="-105.2307752">
  <ele>1595.65</ele>
  <time>2026-08-28T19:11:07Z</time>
  <course>298.17</course>
  <speed>0.02</speed>
  <fix>3d</fix>
</trkpt>
<trkpt lat="40.0728521" lon="-105.2307753">
  <ele>1595.74</ele>
  <time>2026-08-28T19:11:07Z</time>
  <course>35.36</course>
  <speed>0.01414213562373095</speed>
  <fix>3d</fix>
</trkpt>
<trkpt lat="40.0728521" lon="-105.2307752">
  <ele>1595.65</ele>
  <time>2026-08-28T19:11:07Z</time>
  <course>290.47</course>
  <speed>0.01</speed>
  <fix>3d</fix>
</trkpt>
<trkpt lat="40.0728521" lon="-105.2307753">
  <ele>1595.74</ele>
  <time>2026-08-28T19:11:07Z</time>
  <course>35.36</course>
  <speed>0.01</speed>
  <fix>3d</fix>
</trkpt>
<trkpt lat="40.0728521" lon="-105.2307752">
  <ele>1595.65</ele>
  <time>2026-08-28T19:11:07Z</time>
  <course>281.84</course>
  <speed>0.01</speed>
  <fix>3d</fix>
</trkpt>
<trkpt lat="40.0728521" lon="-105.2307753">
  <ele>1595.74</ele>
  <time>2026-08-28T19:11:07Z</time>
  <course>35.36</course>
  <speed>0.0</speed>
  <fix>3d</fix>
</trkpt>
<trkpt lat="40.0728521" lon="-105.2307752">
  <ele>1595.66</ele>
  <time>2026-08-28T19:11:07Z</time>
  <course>271.14</course>
  <speed>0.0</speed>
  <fix>3d</fix>
</trkpt>
<trkpt lat="40.0728521" lon="-105.2307753">
  <ele>1595.74</ele>
  <time>2026-08-28T19:11:07Z</time>
  <course>35.37</course>
  <speed>0.0</speed>
  <fix>3d</fix>
</trkpt>
<trkpt lat="40.0728521" lon="-105.2307753">
  <ele>1595.66</ele>
  <time>2026-08-28T19:11:07Z</time>
  <course>257.4</course>
  <speed>0.0</speed>
  <fix>3d</fix>
</trkpt>
<trkpt lat="40.0728521" lon="-105.2307753">
  <ele>1595.75</ele>
  <time>2026-08-28T19:11:07Z</time>
  <course>35.38</course>
  <speed>0.0</speed>
  <fix>3d</fix>
</trkpt>
<trkpt lat="40.0728521" lon="-105.2307754">
  <ele>1595.66</ele>
  <time>2026-08-28T19:11:07Z</time>
  <course>239.82</course>
  <speed>0.0</speed>
  <fix>3d</fix>
</trkpt>
<trkpt lat="40.0728521" lon="-105.2307753">
  <ele>1595.75</ele>
  <time>2026-08-28T19:11:07Z</time>
  <course>35.39</course>
  <speed>0.0</speed>
  <fix>3d</fix>
</trkpt>
<trkpt lat="40.0728521" lon="-105.2307754">
  <ele>1595.65</ele>
  <time>2026-08-28T19:11:07Z</time>
  <course>221.26</course>
  <speed>0.0</speed>
  <fix>3d</fix>
</trkpt>
<trkpt lat="40.0728521" lon="-105.2307753">
  <ele>1595.75</ele>
  <time>2026-08-28T19:11:07Z</time>
  <course>35.4</course>
  <speed>0.0</speed>
  <fix>3d</fix>
</trkpt>
<trkpt lat="40.0728521" lon="-105.2307754">
  <ele>1595.65</ele>
  <time>2026-08-28T19:11:07Z</time>
  <course>206.4</course>
  <speed>0.0</speed>
  <fix>3d</fix>
</trkpt>
<trkpt lat="40.0728521" lon="-105.2307754">
  <ele>1595.74</ele>
  <time>2026-08-28T19:11:07Z</time>
  <course>35.39</course>
  <speed>0.0</speed>
  <fix>3d</fix>
</trkpt>
<trkpt lat="40.0728521" lon="-105.2307754">
  <ele>1595.65</ele>
  <time>2026-08-28T19:11:07Z</time>
  <course>195.26</course>
  <speed>0.01</speed>
  <fix>3d</fix>
</trkpt>
<trkpt lat="40.0728521" lon="-105.2307754">
  <ele>1595.74</ele>
  <time>2026-08-28T19:11:07Z</time>
  <course>35.39</course>
  <speed>0.0</speed>
  <fix>3d</fix>
</trkpt>
<trkpt lat="40.0728521" lon="-105.2307754">
  <ele>1595.65</ele>
  <time>2026-08-28T19:11:07Z</time>
  <course>186.27</course>
  <speed>0.01</speed>
  <fix>3d</fix>
</trkpt>
<trkpt lat="40.0728521" lon="-105.2307753">
  <ele>1595.74</ele>
  <time>2026-08-28T19:11:07Z</time>
  <course>35.35</course>
  <speed>0.01</speed>
  <fix>3d</fix>
</trkpt>
<trkpt lat="40.0728521" lon="-105.2307754">
  <ele>1595.65</ele>
  <time>2026-08-28T19:11:07Z</time>
  <course>170.07</course>
  <speed>0.02</speed>
  <fix>3d</fix>
</trkpt>
<trkpt lat="40.0728521" lon="-105.2307753">
  <ele>1595.73</ele>
  <time>2026-08-28T19:11:07Z</time>
  <course>35.35</course>
  <speed>0.0</speed>
  <fix>3d</fix>
</trkpt>
<trkpt lat="40.072852" lon="-105.2307754">
  <ele>1595.65</ele>
  <time>2026-08-28T19:11:07Z</time>
  <course>160.24</course>
  <speed>0.02</speed>
  <fix>3d</fix>
</trkpt>
<trkpt lat="40.072852" lon="-105.2307753">
  <ele>1595.73</ele>
  <time>2026-08-28T19:11:07Z</time>
  <course>35.35</course>
  <speed>0.0</speed>
  <fix>3d</fix>
</trkpt>
<trkpt lat="40.072852" lon="-105.2307754">
  <ele>1595.65</ele>
  <time>2026-08-28T19:11:07Z</time>
  <course>155.14</course>
  <speed>0.02</speed>
  <fix>3d</fix>
</trkpt>
<trkpt lat="40.072852" lon="-105.2307753">
  <ele>1595.73</ele>
  <time>2026-08-28T19:11:07Z</time>
  <course>35.36</course>
  <speed>0.0</speed>
  <fix>3d</fix>
</trkpt>
<trkpt lat="40.072852" lon="-105.2307754">
  <ele>1595.65</ele>
  <time>2026-08-28T19:11:07Z</time>
  <course>155.78</course>
  <speed>0.01</speed>
  <fix>3d</fix>
</trkpt>
<trkpt lat="40.072852" lon="-105.2307753">
  <ele>1595.73</ele>
  <time>2026-08-28T19:11:07Z</time>
  <course>35.36</course>
  <speed>0.0</speed>
  <fix>3d</fix>
</trkpt>
<trkpt lat="40.0728519" lon="-105.2307754">
  <ele>1595.65</ele>
  <time>2026-08-28T19:11:07Z</time>
  <course>163.6</course>
  <speed>0.01</speed>
  <fix>3d</fix>
</trkpt>
<trkpt lat="40.072852" lon="-105.2307753">
  <ele>1595.73</ele>
  <time>2026-08-28T19:11:07Z</time>
  <course>35.34</course>
  <speed>0.01</speed>
  <fix>3d</fix>
</trkpt>
<trkpt lat="40.0728518" lon="-105.2307754">
  <ele>1595.65</ele>
  <time>2026-08-28T19:11:07Z</time>
  <course>184.74</course>
  <speed>0.0</speed>
  <fix>3d</fix>
</trkpt>
<trkpt lat="40.072852" lon="-105.2307753">
  <ele>1595.73</ele>
  <time>2026-08-28T19:11:07Z</time>
  <course>35.34</course>
  <speed>0.01</speed>
  <fix>3d</fix>
</trkpt>
<trkpt lat="40.0728518" lon="-105.2307754">
  <ele>1595.65</ele>
  <time>2026-08-28T19:11:07Z</time>
  <course>222.2</course>
  <speed>0.0</speed>
  <fix>3d</fix>
</trkpt>
<trkpt lat="40.072852" lon="-105.2307754">
  <ele>1595.72</ele>
  <time>2026-08-28T19:11:07Z</time>
  <course>35.34</course>
  <speed>0.01414213562373095</speed>
  <fix>3d</fix>
</trkpt>
<trkpt lat="40.0728518" lon="-105.2307754">
  <ele>1595.66</ele>
  <time>2026-08-28T19:11:07Z</time>
  <course>253.17</course>
  <speed>0.0</speed>
  <fix>3d</fix>
</trkpt>
<trkpt lat="40.072852" lon="-105.2307754">
  <ele>1595.72</ele>
  <time>2026-08-28T19:11:07Z</time>
  <course>35.36</course>
  <speed>0.01414213562373095</speed>
  <fix>3d</fix>
</trkpt>
<trkpt lat="40.0728518" lon="-105.2307754">
  <ele>1595.66</ele>
  <time>2026-08-28T19:11:07Z</time>
  <course>271.02</course>
  <speed>0.0</speed>
  <fix>3d</fix>
</trkpt>
<trkpt lat="40.072852" lon="-105.2307754">
  <ele>1595.73</ele>
  <time>2026-08-28T19:11:07Z</time>
  <course>35.32</course>
  <speed>0.01414213562373095</speed>
  <fix>3d</fix>
</trkpt>
<trkpt lat="40.0728518" lon="-105.2307754">
  <ele>1595.66</ele>
  <time>2026-08-28T19:11:07Z</time>
  <course>280.9</course>
  <speed>0.0</speed>
  <fix>3d</fix>
</trkpt>
<trkpt lat="40.072852" lon="-105.2307755">
  <ele>1595.73</ele>
  <time>2026-08-28T19:11:07Z</time>
  <course>35.33</course>
  <speed>0.022360679774997897</speed>
  <fix>3d</fix>
</trkpt>
<trkpt lat="40.0728518" lon="-105.2307754">
  <ele>1595.67</ele>
  <time>2026-08-28T19:11:07Z</time>
  <course>286.86</course>
  <speed>0.01</speed>
  <fix>3d</fix>
</trkpt>
<trkpt lat="40.072852" lon="-105.2307755">
  <ele>1595.73</ele>
  <time>2026-08-28T19:11:07Z</time>
  <course>35.36</course>
  <speed>0.022360679774997897</speed>
  <fix>3d</fix>
</trkpt>
<trkpt lat="40.0728518" lon="-105.2307754">
  <ele>1595.67</ele>
  <time>2026-08-28T19:11:07Z</time>
  <course>291.43</course>
  <speed>0.01</speed>
  <fix>3d</fix>
</trkpt>
<trkpt lat="40.0728519" lon="-105.2307755">
  <ele>1595.74</ele>
  <time>2026-08-28T19:11:07Z</time>
  <course>35.37</course>
  <speed>0.022360679774997897</speed>
  <fix>3d</fix>
</trkpt>
<trkpt lat="40.0728518" lon="-105.2307754">
  <ele>1595.67</ele>
  <time>2026-08-28T19:11:07Z</time>
  <course>294.62</course>
  <speed>0.01</speed>
  <fix>3d</fix>
</trkpt>
<trkpt lat="40.0728519" lon="-105.2307755">
  <ele>1595.74</ele>
  <time>2026-08-28T19:11:07Z</time>
  <course>35.37</course>
  <speed>0.01414213562373095</speed>
  <fix>3d</fix>
</trkpt>
<trkpt lat="40.0728518" lon="-105.2307754">
  <ele>1595.68</ele>
  <time>2026-08-28T19:11:07Z</time>
  <course>297.92</course>
  <speed>0.01</speed>
  <fix>3d</fix>
</trkpt>
<trkpt lat="40.0728519" lon="-105.2307756">
  <ele>1595.75</ele>
  <time>2026-08-28T19:11:08Z</time>
  <course>35.37</course>
  <speed>0.01414213562373095</speed>
  <fix>3d</fix>
</trkpt>
<trkpt lat="40.0728518" lon="-105.2307754">
  <ele>1595.68</ele>
  <time>2026-08-28T19:11:08Z</time>
  <course>302.01</course>
  <speed>0.01</speed>
  <fix>3d</fix>
</trkpt>
<trkpt lat="40.0728519" lon="-105.2307756">
  <ele>1595.75</ele>
  <time>2026-08-28T19:11:08Z</time>
  <course>35.37</course>
  <speed>0.01414213562373095</speed>
  <fix>3d</fix>
</trkpt>
<trkpt lat="40.0728518" lon="-105.2307754">
  <ele>1595.68</ele>
  <time>2026-08-28T19:11:08Z</time>
  <course>306.01</course>
  <speed>0.01</speed>
  <fix>3d</fix>
</trkpt>
<trkpt lat="40.0728519" lon="-105.2307756">
  <ele>1595.75</ele>
  <time>2026-08-28T19:11:08Z</time>
  <course>35.39</course>
  <speed>0.0282842712474619</speed>
  <fix>3d</fix>
</trkpt>
<trkpt lat="40.0728518" lon="-105.2307755">
  <ele>1595.68</ele>
  <time>2026-08-28T19:11:08Z</time>
  <course>316.79</course>
  <speed>0.02</speed>
  <fix>3d</fix>
</trkpt>
<trkpt lat="40.0728519" lon="-105.2307756">
  <ele>1595.75</ele>
  <time>2026-08-28T19:11:08Z</time>
  <course>35.4</course>
  <speed>0.0282842712474619</speed>
  <fix>3d</fix>
</trkpt>
<trkpt lat="40.0728519" lon="-105.2307756">
  <ele>1595.68</ele>
  <time>2026-08-28T19:11:08Z</time>
  <course>318.47</course>
  <speed>0.03</speed>
  <fix>3d</fix>
</trkpt>
<trkpt lat="40.0728519" lon="-105.2307757">
  <ele>1595.75</ele>
  <time>2026-08-28T19:11:08Z</time>
  <course>35.41</course>
  <speed>0.022360679774997897</speed>
  <fix>3d</fix>
</trkpt>
<trkpt lat="40.072852" lon="-105.2307756">
  <ele>1595.68</ele>
  <time>2026-08-28T19:11:08Z</time>
  <course>312.13</course>
  <speed>0.02</speed>
  <fix>3d</fix>
</trkpt>
<trkpt lat="40.072852" lon="-105.2307757">
  <ele>1595.75</ele>
  <time>2026-08-28T19:11:08Z</time>
  <course>35.4</course>
  <speed>0.01414213562373095</speed>
  <fix>3d</fix>
</trkpt>
<trkpt lat="40.072852" lon="-105.2307757">
  <ele>1595.68</ele>
  <time>2026-08-28T19:11:08Z</time>
  <course>301.79</course>
  <speed>0.02</speed>
  <fix>3d</fix>
</trkpt>
<trkpt lat="40.072852" lon="-105.2307757">
  <ele>1595.75</ele>
  <time>2026-08-28T19:11:08Z</time>
  <course>35.4</course>
  <speed>0.01414213562373095</speed>
  <fix>3d</fix>
</trkpt>
<trkpt lat="40.072852" lon="-105.2307757">
  <ele>1595.68</ele>
  <time>2026-08-28T19:11:08Z</time>
  <course>287.14</course>
  <speed>0.01</speed>
  <fix>3d</fix>
</trkpt>
<trkpt lat="40.072852" lon="-105.2307757">
  <ele>1595.75</ele>
  <time>2026-08-28T19:11:08Z</time>
  <course>35.41</course>
  <speed>0.01</speed>
  <fix>3d</fix>
</trkpt>
<trkpt lat="40.072852" lon="-105.2307757">
  <ele>1595.68</ele>
  <time>2026-08-28T19:11:08Z</time>
  <course>265.14</course>
  <speed>0.0</speed>
  <fix>3d</fix>
</trkpt>
<trkpt lat="40.072852" lon="-105.2307757">
  <ele>1595.75</ele>
  <time>2026-08-28T19:11:08Z</time>
  <course>35.4</course>
  <speed>0.01</speed>
  <fix>3d</fix>
</trkpt>
<trkpt lat="40.072852" lon="-105.2307757">
  <ele>1595.67</ele>
  <time>2026-08-28T19:11:08Z</time>
  <course>238.67</course>
  <speed>0.0</speed>
  <fix>3d</fix>
</trkpt>
<trkpt lat="40.072852" lon="-105.2307757">
  <ele>1595.75</ele>
  <time>2026-08-28T19:11:08Z</time>
  <course>35.39</course>
  <speed>0.01</speed>
  <fix>3d</fix>
</trkpt>
<trkpt lat="40.072852" lon="-105.2307757">
  <ele>1595.67</ele>
  <time>2026-08-28T19:11:08Z</time>
  <course>220.21</course>
  <speed>0.0</speed>
  <fix>3d</fix>
</trkpt>
<trkpt lat="40.072852" lon="-105.2307757">
  <ele>1595.75</ele>
  <time>2026-08-28T19:11:08Z</time>
  <course>35.39</course>
  <speed>0.0</speed>
  <fix>3d</fix>
</trkpt>
<trkpt lat="40.072852" lon="-105.2307757">
  <ele>1595.67</ele>
  <time>2026-08-28T19:11:08Z</time>
  <course>215.98</course>
  <speed>0.0</speed>
  <fix>3d</fix>
</trkpt>
<trkpt lat="40.072852" lon="-105.2307757">
  <ele>1595.76</ele>
  <time>2026-08-28T19:11:08Z</time>
  <course>35.39</course>
  <speed>0.0</speed>
  <fix>3d</fix>
</trkpt>
<trkpt lat="40.072852" lon="-105.2307757">
  <ele>1595.67</ele>
  <time>2026-08-28T19:11:08Z</time>
  <course>224.57</course>
  <speed>0.0</speed>
  <fix>3d</fix>
</trkpt>
<trkpt lat="40.072852" lon="-105.2307757">
  <ele>1595.75</ele>
  <time>2026-08-28T19:11:08Z</time>
  <course>35.39</course>
  <speed>0.0</speed>
  <fix>3d</fix>
</trkpt>
<trkpt lat="40.072852" lon="-105.2307757">
  <ele>1595.67</ele>
  <time>2026-08-28T19:11:08Z</time>
  <course>239.88</course>
  <speed>0.0</speed>
  <fix>3d</fix>
</trkpt>
<trkpt lat="40.072852" lon="-105.2307757">
  <ele>1595.75</ele>
  <time>2026-08-28T19:11:08Z</time>
  <course>35.38</course>
  <speed>0.0</speed>
  <fix>3d</fix>
</trkpt>
<trkpt lat="40.072852" lon="-105.2307757">
  <ele>1595.66</ele>
  <time>2026-08-28T19:11:08Z</time>
  <course>250.24</course>
  <speed>0.0</speed>
  <fix>3d</fix>
</trkpt>
<trkpt lat="40.072852" lon="-105.2307757">
  <ele>1595.75</ele>
  <time>2026-08-28T19:11:08Z</time>
  <course>35.38</course>
  <speed>0.0</speed>
  <fix>3d</fix>
</trkpt>
<trkpt lat="40.072852" lon="-105.2307757">
  <ele>1595.66</ele>
  <time>2026-08-28T19:11:08Z</time>
  <course>252.23</course>
  <speed>0.0</speed>
  <fix>3d</fix>
</trkpt>
<trkpt lat="40.072852" lon="-105.2307757">
  <ele>1595.74</ele>
  <time>2026-08-28T19:11:08Z</time>
  <course>35.38</course>
  <speed>0.0</speed>
  <fix>3d</fix>
</trkpt>
<trkpt lat="40.072852" lon="-105.2307757">
  <ele>1595.66</ele>
  <time>2026-08-28T19:11:08Z</time>
  <course>174.7</course>
  <speed>0.01</speed>
  <fix>3d</fix>
</trkpt>
<trkpt lat="40.072852" lon="-105.2307757">
  <ele>1595.74</ele>
  <time>2026-08-28T19:11:08Z</time>
  <course>35.37</course>
  <speed>0.01</speed>
  <fix>3d</fix>
</trkpt>
<trkpt lat="40.072852" lon="-105.2307757">
  <ele>1595.66</ele>
  <time>2026-08-28T19:11:08Z</time>
  <course>159.48</course>
  <speed>0.02</speed>
  <fix>3d</fix>
</trkpt>
<trkpt lat="40.072852" lon="-105.2307757">
  <ele>1595.74</ele>
  <time>2026-08-28T19:11:08Z</time>
  <course>35.36</course>
  <speed>0.0</speed>
  <fix>3d</fix>
</trkpt>
<trkpt lat="40.072852" lon="-105.2307757">
  <ele>1595.65</ele>
  <time>2026-08-28T19:11:08Z</time>
  <course>154.71</course>
  <speed>0.02</speed>
  <fix>3d</fix>
</trkpt>
<trkpt lat="40.072852" lon="-105.2307757">
  <ele>1595.74</ele>
  <time>2026-08-28T19:11:08Z</time>
  <course>35.35</course>
  <speed>0.0</speed>
  <fix>3d</fix>
</trkpt>
<trkpt lat="40.0728519" lon="-105.2307757">
  <ele>1595.65</ele>
  <time>2026-08-28T19:11:08Z</time>
  <course>151.32</course>
  <speed>0.01</speed>
  <fix>3d</fix>
</trkpt>
<trkpt lat="40.072852" lon="-105.2307757">
  <ele>1595.73</ele>
  <time>2026-08-28T19:11:08Z</time>
  <course>35.37</course>
  <speed>0.0</speed>
  <fix>3d</fix>
</trkpt>
<trkpt lat="40.0728518" lon="-105.2307757">
  <ele>1595.65</ele>
  <time>2026-08-28T19:11:08Z</time>
  <course>152.8</course>
  <speed>0.01</speed>
  <fix>3d</fix>
</trkpt>
<trkpt lat="40.072852" lon="-105.2307757">
  <ele>1595.73</ele>
  <time>2026-08-28T19:11:08Z</time>
  <course>35.37</course>
  <speed>0.01</speed>
  <fix>3d</fix>
</trkpt>
<trkpt lat="40.0728518" lon="-105.2307757">
  <ele>1595.65</ele>
  <time>2026-08-28T19:11:08Z</time>
  <course>168.69</course>
  <speed>0.0</speed>
  <fix>3d</fix>
</trkpt>
<trkpt lat="40.072852" lon="-105.2307757">
  <ele>1595.73</ele>
  <time>2026-08-28T19:11:08Z</time>
  <course>35.35</course>
  <speed>0.01414213562373095</speed>
  <fix>3d</fix>
</trkpt>
<trkpt lat="40.0728518" lon="-105.2307757">
  <ele>1595.65</ele>
  <time>2026-08-28T19:11:08Z</time>
  <course>252.13</course>
  <speed>0.0</speed>
  <fix>3d</fix>
</trkpt>
<trkpt lat="40.072852" lon="-105.2307757">
  <ele>1595.74</ele>
  <time>2026-08-28T19:11:08Z</time>
  <course>35.36</course>
  <speed>0.01414213562373095</speed>
  <fix>3d</fix>
</trkpt>
<trkpt lat="40.0728518" lon="-105.2307757">
  <ele>1595.66</ele>
  <time>2026-08-28T19:11:08Z</time>
  <course>287.68</course>
  <speed>0.0</speed>
  <fix>3d</fix>
</trkpt>
<trkpt lat="40.0728519" lon="-105.2307757">
  <ele>1595.74</ele>
  <time>2026-08-28T19:11:08Z</time>
  <course>35.37</course>
  <speed>0.01414213562373095</speed>
  <fix>3d</fix>
</trkpt>
<trkpt lat="40.0728518" lon="-105.2307757">
  <ele>1595.66</ele>
  <time>2026-08-28T19:11:08Z</time>
  <course>297.16</course>
  <speed>0.0</speed>
  <fix>3d</fix>
</trkpt>
<trkpt lat="40.0728519" lon="-105.2307757">
  <ele>1595.74</ele>
  <time>2026-08-28T19:11:08Z</time>
  <course>35.37</course>
  <speed>0.01414213562373095</speed>
  <fix>3d</fix>
</trkpt>
<trkpt lat="40.0728518" lon="-105.2307757">
  <ele>1595.66</ele>
  <time>2026-08-28T19:11:08Z</time>
  <course>301.28</course>
  <speed>0.01</speed>
  <fix>3d</fix>
</trkpt>
<trkpt lat="40.0728519" lon="-105.2307758">
  <ele>1595.74</ele>
  <time>2026-08-28T19:11:08Z</time>
  <course>35.37</course>
  <speed>0.022360679774997897</speed>
  <fix>3d</fix>
</trkpt>
<trkpt lat="40.0728518" lon="-105.2307758">
  <ele>1595.66</ele>
  <time>2026-08-28T19:11:08Z</time>
  <course>303.23</course>
  <speed>0.01</speed>
  <fix>3d</fix>
</trkpt>
<trkpt lat="40.0728519" lon="-105.2307758">
  <ele>1595.74</ele>
  <time>2026-08-28T19:11:08Z</time>
  <course>35.36</course>
  <speed>0.022360679774997897</speed>
  <fix>3d</fix>
</trkpt>
<trkpt lat="40.0728518" lon="-105.2307759">
  <ele>1595.66</ele>
  <time>2026-08-28T19:11:08Z</time>
  <course>303.75</course>
  <speed>0.01</speed>
  <fix>3d</fix>
</trkpt>
<trkpt lat="40.0728519" lon="-105.2307759">
  <ele>1595.74</ele>
  <time>2026-08-28T19:11:08Z</time>
  <course>35.36</course>
  <speed>0.022360679774997897</speed>
  <fix>3d</fix>
</trkpt>
<trkpt lat="40.0728518" lon="-105.2307759">
  <ele>1595.66</ele>
  <time>2026-08-28T19:11:08Z</time>
  <course>305.02</course>
  <speed>0.01</speed>
  <fix>3d</fix>
</trkpt>
<trkpt lat="40.0728519" lon="-105.2307759">
  <ele>1595.74</ele>
  <time>2026-08-28T19:11:08Z</time>
  <course>35.37</course>
  <speed>0.0282842712474619</speed>
  <fix>3d</fix>
</trkpt>
<trkpt lat="40.0728518" lon="-105.2307759">
  <ele>1595.66</ele>
  <time>2026-08-28T19:11:08Z</time>
  <course>307.37</course>
  <speed>0.01</speed>
  <fix>3d</fix>
</trkpt>
<trkpt lat="40.0728519" lon="-105.2307759">
  <ele>1595.74</ele>
  <time>2026-08-28T19:11:08Z</time>
  <course>35.37</course>
  <speed>0.0282842712474619</speed>
  <fix>3d</fix>
</trkpt>
<trkpt lat="40.0728518" lon="-105.2307759">
  <ele>1595.67</ele>
  <time>2026-08-28T19:11:08Z</time>
  <course>309.82</course>
  <speed>0.01</speed>
  <fix>3d</fix>
</trkpt>
<trkpt lat="40.0728519" lon="-105.230776">
  <ele>1595.75</ele>
  <time>2026-08-28T19:11:08Z</time>
  <course>35.37</course>
  <speed>0.022360679774997897</speed>
  <fix>3d</fix>
</trkpt>
<trkpt lat="40.0728519" lon="-105.2307759">
  <ele>1595.67</ele>
  <time>2026-08-28T19:11:08Z</time>
  <course>312.7</course>
  <speed>0.01</speed>
  <fix>3d</fix>
</trkpt>
<trkpt lat="40.0728519" lon="-105.230776">
  <ele>1595.74</ele>
  <time>2026-08-28T19:11:08Z</time>
  <course>35.36</course>
  <speed>0.03605551275463989</speed>
  <fix>3d</fix>
</trkpt>
<trkpt lat="40.072852" lon="-105.2307759">
  <ele>1595.67</ele>
  <time>2026-08-28T19:11:08Z</time>
  <course>319.39</course>
  <speed>0.02</speed>
  <fix>3d</fix>
</trkpt>
<trkpt lat="40.072852" lon="-105.2307761">
  <ele>1595.75</ele>
  <time>2026-08-28T19:11:08Z</time>
  <course>35.37</course>
  <speed>0.03605551275463989</speed>
  <fix>3d</fix>
</trkpt>
<trkpt lat="40.072852" lon="-105.230776">
  <ele>1595.66</ele>
  <time>2026-08-28T19:11:08Z</time>
  <course>323.13</course>
  <speed>0.03</speed>
  <fix>3d</fix>
</trkpt>
<trkpt lat="40.072852" lon="-105.2307761">
  <ele>1595.74</ele>
  <time>2026-08-28T19:11:08Z</time>
  <course>35.37</course>
  <speed>0.0282842712474619</speed>
  <fix>3d</fix>
</trkpt>
<trkpt lat="40.072852" lon="-105.2307761">
  <ele>1595.66</ele>
  <time>2026-08-28T19:11:08Z</time>
  <course>320.76</course>
  <speed>0.03</speed>
  <fix>3d</fix>
</trkpt>
<trkpt lat="40.0728521" lon="-105.2307761">
  <ele>1595.74</ele>
  <time>2026-08-28T19:11:08Z</time>
  <course>35.38</course>
  <speed>0.01414213562373095</speed>
  <fix>3d</fix>
</trkpt>
<trkpt lat="40.0728521" lon="-105.2307761">
  <ele>1595.66</ele>
  <time>2026-08-28T19:11:08Z</time>
  <course>313.22</course>
  <speed>0.02</speed>
  <fix>3d</fix>
</trkpt>
<trkpt lat="40.0728521" lon="-105.2307762">
  <ele>1595.74</ele>
  <time>2026-08-28T19:11:08Z</time>
  <course>35.38</course>
  <speed>0.01414213562373095</speed>
  <fix>3d</fix>
</trkpt>
<trkpt lat="40.0728521" lon="-105.2307761">
  <ele>1595.66</ele>
  <time>2026-08-28T19:11:08Z</time>
  <course>302.13</course>
  <speed>0.01</speed>
  <fix>3d</fix>
</trkpt>
<trkpt lat="40.0728521" lon="-105.2307762">
  <ele>1595.74</ele>
  <time>2026-08-28T19:11:08Z</time>
  <course>35.38</course>
  <speed>0.01</speed>
  <fix>3d</fix>
</trkpt>
<trkpt lat="40.0728521" lon="-105.2307761">
  <ele>1595.66</ele>
  <time>2026-08-28T19:11:08Z</time>
  <course>276.98</course>
  <speed>0.0</speed>
  <fix>3d</fix>
</trkpt>
<trkpt lat="40.0728521" lon="-105.2307762">
  <ele>1595.74</ele>
  <time>2026-08-28T19:11:08Z</time>
  <course>35.39</course>
  <speed>0.01</speed>
  <fix>3d</fix>
</trkpt>
<trkpt lat="40.0728521" lon="-105.2307761">
  <ele>1595.66</ele>
  <time>2026-08-28T19:11:08Z</time>
  <course>217.12</course>
  <speed>0.0</speed>
  <fix>3d</fix>
</trkpt>
<trkpt lat="40.0728521" lon="-105.2307762">
  <ele>1595.74</ele>
  <time>2026-08-28T19:11:08Z</time>
  <course>35.39</course>
  <speed>0.01</speed>
  <fix>3d</fix>
</trkpt>
<trkpt lat="40.0728521" lon="-105.2307761">
  <ele>1595.66</ele>
  <time>2026-08-28T19:11:08Z</time>
  <course>182.13</course>
  <speed>0.0</speed>
  <fix>3d</fix>
</trkpt>
<trkpt lat="40.0728521" lon="-105.2307761">
  <ele>1595.74</ele>
  <time>2026-08-28T19:11:08Z</time>
  <course>35.38</course>
  <speed>0.01</speed>
  <fix>3d</fix>
</trkpt>
<trkpt lat="40.0728521" lon="-105.2307761">
  <ele>1595.66</ele>
  <time>2026-08-28T19:11:08Z</time>
  <course>172.21</course>
  <speed>0.0</speed>
  <fix>3d</fix>
</trkpt>
<trkpt lat="40.0728521" lon="-105.2307761">
  <ele>1595.74</ele>
  <time>2026-08-28T19:11:08Z</time>
  <course>35.37</course>
  <speed>0.01</speed>
  <fix>3d</fix>
</trkpt>
<trkpt lat="40.0728521" lon="-105.2307761">
  <ele>1595.66</ele>
  <time>2026-08-28T19:11:08Z</time>
  <course>170.79</course>
  <speed>0.0</speed>
  <fix>3d</fix>
</trkpt>
<trkpt lat="40.0728521" lon="-105.2307761">
  <ele>1595.74</ele>
  <time>2026-08-28T19:11:08Z</time>
  <course>35.37</course>
  <speed>0.0</speed>
  <fix>3d</fix>
</trkpt>
<trkpt lat="40.0728521" lon="-105.2307761">
  <ele>1595.66</ele>
  <time>2026-08-28T19:11:08Z</time>
  <course>174.05</course>
  <speed>0.0</speed>
  <fix>3d</fix>
</trkpt>
<trkpt lat="40.0728521" lon="-105.2307761">
  <ele>1595.75</ele>
  <time>2026-08-28T19:11:08Z</time>
  <course>35.38</course>
  <speed>0.0</speed>
  <fix>3d</fix>
</trkpt>
<trkpt lat="40.0728521" lon="-105.2307761">
  <ele>1595.66</ele>
  <time>2026-08-28T19:11:08Z</time>
  <course>180.28</course>
  <speed>0.0</speed>
  <fix>3d</fix>
</trkpt>
<trkpt lat="40.0728521" lon="-105.2307761">
  <ele>1595.75</ele>
  <time>2026-08-28T19:11:08Z</time>
  <course>35.37</course>
  <speed>0.0</speed>
  <fix>3d</fix>
</trkpt>
<trkpt lat="40.0728521" lon="-105.2307761">
  <ele>1595.66</ele>
  <time>2026-08-28T19:11:08Z</time>
  <course>184.71</course>
  <speed>0.0</speed>
  <fix>3d</fix>
</trkpt>
<trkpt lat="40.0728521" lon="-105.2307761">
  <ele>1595.75</ele>
  <time>2026-08-28T19:11:08Z</time>
  <course>35.38</course>
  <speed>0.01</speed>
  <fix>3d</fix>
</trkpt>
<trkpt lat="40.0728521" lon="-105.2307761">
  <ele>1595.66</ele>
  <time>2026-08-28T19:11:08Z</time>
  <course>160.48</course>
  <speed>0.01</speed>
  <fix>3d</fix>
</trkpt>
<trkpt lat="40.0728521" lon="-105.2307761">
  <ele>1595.74</ele>
  <time>2026-08-28T19:11:08Z</time>
  <course>35.37</course>
  <speed>0.01</speed>
  <fix>3d</fix>
</trkpt>
<trkpt lat="40.072852" lon="-105.2307761">
  <ele>1595.66</ele>
  <time>2026-08-28T19:11:08Z</time>
  <course>153.66</course>
  <speed>0.02</speed>
  <fix>3d</fix>
</trkpt>
<trkpt lat="40.0728521" lon="-105.2307761">
  <ele>1595.74</ele>
  <time>2026-08-28T19:11:08Z</time>
  <course>35.37</course>
  <speed>0.01</speed>
  <fix>3d</fix>
</trkpt>
<trkpt lat="40.072852" lon="-105.2307761">
  <ele>1595.66</ele>
  <time>2026-08-28T19:11:08Z</time>
  <course>148.59</course>
  <speed>0.02</speed>
  <fix>3d</fix>
</trkpt>
<trkpt lat="40.072852" lon="-105.2307761">
  <ele>1595.73</ele>
  <time>2026-08-28T19:11:08Z</time>
  <course>35.36</course>
  <speed>0.0</speed>
  <fix>3d</fix>
</trkpt>
<trkpt lat="40.072852" lon="-105.2307761">
  <ele>1595.66</ele>
  <time>2026-08-28T19:11:08Z</time>
  <course>143.09</course>
  <speed>0.02</speed>
  <fix>3d</fix>
</trkpt>
<trkpt lat="40.072852" lon="-105.2307761">
  <ele>1595.73</ele>
  <time>2026-08-28T19:11:08Z</time>
  <course>35.36</course>
  <speed>0.0</speed>
  <fix>3d</fix>
</trkpt>
<trkpt lat="40.0728519" lon="-105.2307761">
  <ele>1595.66</ele>
  <time>2026-08-28T19:11:08Z</time>
  <course>138.61</course>
  <speed>0.01</speed>
  <fix>3d</fix>
</trkpt>
<trkpt lat="40.072852" lon="-105.2307761">
  <ele>1595.73</ele>
  <time>2026-08-28T19:11:08Z</time>
  <course>35.36</course>
  <speed>0.01</speed>
  <fix>3d</fix>
</trkpt>
<trkpt lat="40.0728518" lon="-105.2307761">
  <ele>1595.66</ele>
  <time>2026-08-28T19:11:08Z</time>
  <course>134.37</course>
  <speed>0.01</speed>
  <fix>3d</fix>
</trkpt>
<trkpt lat="40.072852" lon="-105.2307761">
  <ele>1595.73</ele>
  <time>2026-08-28T19:11:08Z</time>
  <course>35.35</course>
  <speed>0.01</speed>
  <fix>3d</fix>
</trkpt>
<trkpt lat="40.0728518" lon="-105.2307761">
  <ele>1595.66</ele>
  <time>2026-08-28T19:11:08Z</time>
  <course>127.09</course>
  <speed>0.0</speed>
  <fix>3d</fix>
</trkpt>
<trkpt lat="40.072852" lon="-105.2307761">
  <ele>1595.73</ele>
  <time>2026-08-28T19:11:08Z</time>
  <course>35.34</course>
  <speed>0.01</speed>
  <fix>3d</fix>
</trkpt>
<trkpt lat="40.0728518" lon="-105.2307761">
  <ele>1595.66</ele>
  <time>2026-08-28T19:11:08Z</time>
  <course>105.04</course>
  <speed>0.0</speed>
  <fix>3d</fix>
</trkpt>
<trkpt lat="40.072852" lon="-105.2307761">
  <ele>1595.73</ele>
  <time>2026-08-28T19:11:08Z</time>
  <course>35.34</course>
  <speed>0.01414213562373095</speed>
  <fix>3d</fix>
</trkpt>
<trkpt lat="40.0728518" lon="-105.2307761">
  <ele>1595.67</ele>
  <time>2026-08-28T19:11:08Z</time>
  <course>45.5</course>
  <speed>0.0</speed>
  <fix>3d</fix>
</trkpt>
<trkpt lat="40.072852" lon="-105.2307761">
  <ele>1595.74</ele>
  <time>2026-08-28T19:11:08Z</time>
  <course>35.36</course>
  <speed>0.01414213562373095</speed>
  <fix>3d</fix>
</trkpt>
<trkpt lat="40.0728518" lon="-105.2307761">
  <ele>1595.67</ele>
  <time>2026-08-28T19:11:08Z</time>
  <course>14.81</course>
  <speed>0.0</speed>
  <fix>3d</fix>
</trkpt>
<trkpt lat="40.072852" lon="-105.2307761">
  <ele>1595.74</ele>
  <time>2026-08-28T19:11:08Z</time>
  <course>35.37</course>
  <speed>0.01414213562373095</speed>
  <fix>3d</fix>
</trkpt>
<trkpt lat="40.0728518" lon="-105.2307761">
  <ele>1595.67</ele>
  <time>2026-08-28T19:11:08Z</time>
  <course>1.97</course>
  <speed>0.0</speed>
  <fix>3d</fix>
</trkpt>
<trkpt lat="40.072852" lon="-105.2307761">
  <ele>1595.75</ele>
  <time>2026-08-28T19:11:08Z</time>
  <course>35.37</course>
  <speed>0.01414213562373095</speed>
  <fix>3d</fix>
</trkpt>
<trkpt lat="40.0728518" lon="-105.2307761">
  <ele>1595.67</ele>
  <time>2026-08-28T19:11:08Z</time>
  <course>354.61</course>
  <speed>0.0</speed>
  <fix>3d</fix>
</trkpt>
<trkpt lat="40.072852" lon="-105.2307761">
  <ele>1595.75</ele>
  <time>2026-08-28T19:11:08Z</time>
  <course>35.38</course>
  <speed>0.022360679774997897</speed>
  <fix>3d</fix>
</trkpt>
<trkpt lat="40.0728518" lon="-105.2307761">
  <ele>1595.67</ele>
  <time>2026-08-28T19:11:08Z</time>
  <course>351.3</course>
  <speed>0.01</speed>
  <fix>3d</fix>
</trkpt>
<trkpt lat="40.072852" lon="-105.2307761">
  <ele>1595.75</ele>
  <time>2026-08-28T19:11:08Z</time>
  <course>35.39</course>
  <speed>0.022360679774997897</speed>
  <fix>3d</fix>
</trkpt>
<trkpt lat="40.0728518" lon="-105.2307761">
  <ele>1595.68</ele>
  <time>2026-08-28T19:11:08Z</time>
  <course>351.73</course>
  <speed>0.01</speed>
  <fix>3d</fix>
</trkpt>
<trkpt lat="40.072852" lon="-105.2307761">
  <ele>1595.75</ele>
  <time>2026-08-28T19:11:08Z</time>
  <course>35.39</course>
  <speed>0.022360679774997897</speed>
  <fix>3d</fix>
</trkpt>
<trkpt lat="40.0728518" lon="-105.2307761">
  <ele>1595.68</ele>
  <time>2026-08-28T19:11:08Z</time>
  <course>354.85</course>
  <speed>0.01</speed>
  <fix>3d</fix>
</trkpt>
<trkpt lat="40.072852" lon="-105.2307761">
  <ele>1595.75</ele>
  <time>2026-08-28T19:11:08Z</time>
  <course>35.4</course>
  <speed>0.022360679774997897</speed>
  <fix>3d</fix>
</trkpt>
<trkpt lat="40.0728518" lon="-105.2307761">
  <ele>1595.67</ele>
  <time>2026-08-28T19:11:08Z</time>
  <course>358.51</course>
  <speed>0.01</speed>
  <fix>3d</fix>
</trkpt>
<trkpt lat="40.072852" lon="-105.2307761">
  <ele>1595.74</ele>
  <time>2026-08-28T19:11:08Z</time>
  <course>35.39</course>
  <speed>0.0316227766016838</speed>
  <fix>3d</fix>
</trkpt>
<trkpt lat="40.0728519" lon="-105.2307761">
  <ele>1595.67</ele>
  <time>2026-08-28T19:11:08Z</time>
  <course>347.96</course>
  <speed>0.02</speed>
  <fix>3d</fix>
</trkpt>
<trkpt lat="40.072852" lon="-105.2307762">
  <ele>1595.74</ele>
  <time>2026-08-28T19:11:08Z</time>
  <course>35.38</course>
  <speed>0.0282842712474619</speed>
  <fix>3d</fix>
</trkpt>
<trkpt lat="40.072852" lon="-105.2307761">
  <ele>1595.67</ele>
  <time>2026-08-28T19:11:08Z</time>
  <course>341.34</course>
  <speed>0.03</speed>
  <fix>3d</fix>
</trkpt>
<trkpt lat="40.072852" lon="-105.2307762">
  <ele>1595.73</ele>
  <time>2026-08-28T19:11:08Z</time>
  <course>35.36</course>
  <speed>0.022360679774997897</speed>
  <fix>3d</fix>
</trkpt>
<trkpt lat="40.072852" lon="-105.2307761">
  <ele>1595.67</ele>
  <time>2026-08-28T19:11:08Z</time>
  <course>337.49</course>
  <speed>0.02</speed>
  <fix>3d</fix>
</trkpt>
<trkpt lat="40.0728521" lon="-105.2307762">
  <ele>1595.73</ele>
  <time>2026-08-28T19:11:08Z</time>
  <course>35.37</course>
  <speed>0.01414213562373095</speed>
  <fix>3d</fix>
</trkpt>
<trkpt lat="40.0728521" lon="-105.2307761">
  <ele>1595.67</ele>
  <time>2026-08-28T19:11:08Z</time>
  <course>332.46</course>
  <speed>0.02</speed>
  <fix>3d</fix>
</trkpt>
<trkpt lat="40.0728521" lon="-105.2307762">
  <ele>1595.74</ele>
  <time>2026-08-28T19:11:08Z</time>
  <course>35.37</course>
  <speed>0.01</speed>
  <fix>3d</fix>
</trkpt>
<trkpt lat="40.0728521" lon="-105.2307761">
  <ele>1595.67</ele>
  <time>2026-08-28T19:11:08Z</time>
  <course>328.73</course>
  <speed>0.01</speed>
  <fix>3d</fix>
</trkpt>
<trkpt lat="40.0728521" lon="-105.2307762">
  <ele>1595.74</ele>
  <time>2026-08-28T19:11:08Z</time>
  <course>35.37</course>
  <speed>0.01</speed>
  <fix>3d</fix>
</trkpt>
<trkpt lat="40.0728521" lon="-105.2307761">
  <ele>1595.67</ele>
  <time>2026-08-28T19:11:08Z</time>
  <course>328.88</course>
  <speed>0.0</speed>
  <fix>3d</fix>
</trkpt>
<trkpt lat="40.0728521" lon="-105.2307762">
  <ele>1595.74</ele>
  <time>2026-08-28T19:11:08Z</time>
  <course>35.39</course>
  <speed>0.01</speed>
  <fix>3d</fix>
</trkpt>
<trkpt lat="40.0728521" lon="-105.2307761">
  <ele>1595.67</ele>
  <time>2026-08-28T19:11:08Z</time>
  <course>129.03</course>
  <speed>0.0</speed>
  <fix>3d</fix>
</trkpt>
<trkpt lat="40.0728521" lon="-105.2307762">
  <ele>1595.75</ele>
  <time>2026-08-28T19:11:08Z</time>
  <course>35.39</course>
  <speed>0.01</speed>
  <fix>3d</fix>
</trkpt>
<trkpt lat="40.0728521" lon="-105.2307761">
  <ele>1595.68</ele>
  <time>2026-08-28T19:11:08Z</time>
  <course>137.26</course>
  <speed>0.0</speed>
  <fix>3d</fix>
</trkpt>
<trkpt lat="40.0728521" lon="-105.2307762">
  <ele>1595.74</ele>
  <time>2026-08-28T19:11:08Z</time>
  <course>35.39</course>
  <speed>0.01</speed>
  <fix>3d</fix>
</trkpt>
<trkpt lat="40.0728521" lon="-105.2307761">
  <ele>1595.68</ele>
  <time>2026-08-28T19:11:08Z</time>
  <course>138.7</course>
  <speed>0.0</speed>
  <fix>3d</fix>
</trkpt>
<trkpt lat="40.0728521" lon="-105.2307762">
  <ele>1595.75</ele>
  <time>2026-08-28T19:11:08Z</time>
  <course>35.38</course>
  <speed>0.01</speed>
  <fix>3d</fix>
</trkpt>
<trkpt lat="40.0728521" lon="-105.2307761">
  <ele>1595.68</ele>
  <time>2026-08-28T19:11:08Z</time>
  <course>139.66</course>
  <speed>0.0</speed>
  <fix>3d</fix>
</trkpt>
<trkpt lat="40.0728521" lon="-105.2307762">
  <ele>1595.75</ele>
  <time>2026-08-28T19:11:08Z</time>
  <course>35.38</course>
  <speed>0.01</speed>
  <fix>3d</fix>
</trkpt>
<trkpt lat="40.0728521" lon="-105.2307761">
  <ele>1595.67</ele>
  <time>2026-08-28T19:11:08Z</time>
  <course>139.78</course>
  <speed>0.0</speed>
  <fix>3d</fix>
</trkpt>
<trkpt lat="40.0728521" lon="-105.2307762">
  <ele>1595.75</ele>
  <time>2026-08-28T19:11:08Z</time>
  <course>35.38</course>
  <speed>0.01</speed>
  <fix>3d</fix>
</trkpt>
<trkpt lat="40.0728521" lon="-105.2307761">
  <ele>1595.67</ele>
  <time>2026-08-28T19:11:08Z</time>
  <course>138.55</course>
  <speed>0.0</speed>
  <fix>3d</fix>
</trkpt>
<trkpt lat="40.0728521" lon="-105.2307762">
  <ele>1595.74</ele>
  <time>2026-08-28T19:11:08Z</time>
  <course>35.37</course>
  <speed>0.0</speed>
  <fix>3d</fix>
</trkpt>
<trkpt lat="40.0728521" lon="-105.2307761">
  <ele>1595.67</ele>
  <time>2026-08-28T19:11:08Z</time>
  <course>138.28</course>
  <speed>0.0</speed>
  <fix>3d</fix>
</trkpt>
<trkpt lat="40.0728521" lon="-105.2307762">
  <ele>1595.74</ele>
  <time>2026-08-28T19:11:08Z</time>
  <course>35.38</course>
  <speed>0.01</speed>
  <fix>3d</fix>
</trkpt>
<trkpt lat="40.0728521" lon="-105.2307761">
  <ele>1595.67</ele>
  <time>2026-08-28T19:11:08Z</time>
  <course>149.85</course>
  <speed>0.01</speed>
  <fix>3d</fix>
</trkpt>
<trkpt lat="40.0728521" lon="-105.2307761">
  <ele>1595.73</ele>
  <time>2026-08-28T19:11:08Z</time>
  <course>35.37</course>
  <speed>0.01</speed>
  <fix>3d</fix>
</trkpt>
<trkpt lat="40.0728521" lon="-105.2307761">
  <ele>1595.67</ele>
  <time>2026-08-28T19:11:08Z</time>
  <course>148.09</course>
  <speed>0.02</speed>
  <fix>3d</fix>
</trkpt>
<trkpt lat="40.0728521" lon="-105.2307761">
  <ele>1595.73</ele>
  <time>2026-08-28T19:11:08Z</time>
  <course>35.34</course>
  <speed>0.01</speed>
  <fix>3d</fix>
</trkpt>
<trkpt lat="40.0728521" lon="-105.2307761">
  <ele>1595.67</ele>
  <time>2026-08-28T19:11:08Z</time>
  <course>141.57</course>
  <speed>0.02</speed>
  <fix>3d</fix>
</trkpt>
<trkpt lat="40.0728521" lon="-105.2307761">
  <ele>1595.73</ele>
  <time>2026-08-28T19:11:08Z</time>
  <course>35.36</course>
  <speed>0.0</speed>
  <fix>3d</fix>
</trkpt>
<trkpt lat="40.0728521" lon="-105.2307761">
  <ele>1595.67</ele>
  <time>2026-08-28T19:11:08Z</time>
  <course>131.03</course>
  <speed>0.01</speed>
  <fix>3d</fix>
</trkpt>
<trkpt lat="40.0728521" lon="-105.2307761">
  <ele>1595.73</ele>
  <time>2026-08-28T19:11:08Z</time>
  <course>35.35</course>
  <speed>0.01</speed>
  <fix>3d</fix>
</trkpt>
<trkpt lat="40.0728521" lon="-105.2307761">
  <ele>1595.67</ele>
  <time>2026-08-28T19:11:08Z</time>
  <course>117.78</course>
  <speed>0.01</speed>
  <fix>3d</fix>
</trkpt>
<trkpt lat="40.0728521" lon="-105.2307761">
  <ele>1595.74</ele>
  <time>2026-08-28T19:11:08Z</time>
  <course>35.35</course>
  <speed>0.01</speed>
  <fix>3d</fix>
</trkpt>
<trkpt lat="40.0728521" lon="-105.230776">
  <ele>1595.68</ele>
  <time>2026-08-28T19:11:08Z</time>
  <course>97.04</course>
  <speed>0.0</speed>
  <fix>3d</fix>
</trkpt>
<trkpt lat="40.0728521" lon="-105.2307761">
  <ele>1595.75</ele>
  <time>2026-08-28T19:11:08Z</time>
  <course>35.36</course>
  <speed>0.02</speed>
  <fix>3d</fix>
</trkpt>
<trkpt lat="40.0728521" lon="-105.2307759">
  <ele>1595.68</ele>
  <time>2026-08-28T19:11:08Z</time>
  <course>59.09</course>
  <speed>0.0</speed>
  <fix>3d</fix>
</trkpt>
<trkpt lat="40.0728521" lon="-105.2307761">
  <ele>1595.75</ele>
  <time>2026-08-28T19:11:08Z</time>
  <course>35.38</course>
  <speed>0.02</speed>
  <fix>3d</fix>
</trkpt>
<trkpt lat="40.0728521" lon="-105.2307759">
  <ele>1595.68</ele>
  <time>2026-08-28T19:11:08Z</time>
  <course>23.69</course>
  <speed>0.0</speed>
  <fix>3d</fix>
</trkpt>
<trkpt lat="40.0728521" lon="-105.2307761">
  <ele>1595.75</ele>
  <time>2026-08-28T19:11:08Z</time>
  <course>35.39</course>
  <speed>0.02</speed>
  <fix>3d</fix>
</trkpt>
<trkpt lat="40.0728521" lon="-105.2307759">
  <ele>1595.68</ele>
  <time>2026-08-28T19:11:08Z</time>
  <course>9.32</course>
  <speed>0.01</speed>
  <fix>3d</fix>
</trkpt>
<trkpt lat="40.0728521" lon="-105.2307761">
  <ele>1595.75</ele>
  <time>2026-08-28T19:11:08Z</time>
  <course>35.38</course>
  <speed>0.02</speed>
  <fix>3d</fix>
</trkpt>
<trkpt lat="40.0728521" lon="-105.2307759">
  <ele>1595.68</ele>
  <time>2026-08-28T19:11:08Z</time>
  <course>5.2</course>
  <speed>0.01</speed>
  <fix>3d</fix>
</trkpt>
<trkpt lat="40.0728521" lon="-105.2307761">
  <ele>1595.75</ele>
  <time>2026-08-28T19:11:08Z</time>
  <course>35.39</course>
  <speed>0.02</speed>
  <fix>3d</fix>
</trkpt>
<trkpt lat="40.0728521" lon="-105.2307759">
  <ele>1595.68</ele>
  <time>2026-08-28T19:11:08Z</time>
  <course>4.3</course>
  <speed>0.01</speed>
  <fix>3d</fix>
</trkpt>
<trkpt lat="40.0728522" lon="-105.230776">
  <ele>1595.75</ele>
  <time>2026-08-28T19:11:08Z</time>
  <course>35.4</course>
  <speed>0.02</speed>
  <fix>3d</fix>
</trkpt>
<trkpt lat="40.0728521" lon="-105.2307759">
  <ele>1595.68</ele>
  <time>2026-08-28T19:11:08Z</time>
  <course>4.05</course>
  <speed>0.01</speed>
  <fix>3d</fix>
</trkpt>
<trkpt lat="40.0728522" lon="-105.230776">
  <ele>1595.75</ele>
  <time>2026-08-28T19:11:08Z</time>
  <course>35.39</course>
  <speed>0.03</speed>
  <fix>3d</fix>
</trkpt>
<trkpt lat="40.0728521" lon="-105.2307759">
  <ele>1595.68</ele>
  <time>2026-08-28T19:11:08Z</time>
  <course>4.35</course>
  <speed>0.01</speed>
  <fix>3d</fix>
</trkpt>
<trkpt lat="40.0728522" lon="-105.230776">
  <ele>1595.75</ele>
  <time>2026-08-28T19:11:08Z</time>
  <course>35.38</course>
  <speed>0.03</speed>
  <fix>3d</fix>
</trkpt>
<trkpt lat="40.0728521" lon="-105.2307759">
  <ele>1595.68</ele>
  <time>2026-08-28T19:11:08Z</time>
  <course>6.39</course>
  <speed>0.01</speed>
  <fix>3d</fix>
</trkpt>
<trkpt lat="40.0728523" lon="-105.230776">
  <ele>1595.76</ele>
  <time>2026-08-28T19:11:08Z</time>
  <course>35.39</course>
  <speed>0.03</speed>
  <fix>3d</fix>
</trkpt>
<trkpt lat="40.0728521" lon="-105.2307759">
  <ele>1595.67</ele>
  <time>2026-08-28T19:11:08Z</time>
  <course>8.66</course>
  <speed>0.01</speed>
  <fix>3d</fix>
</trkpt>
<trkpt lat="40.0728523" lon="-105.230776">
  <ele>1595.76</ele>
  <time>2026-08-28T19:11:08Z</time>
  <course>35.41</course>
  <speed>0.03</speed>
  <fix>3d</fix>
</trkpt>
<trkpt lat="40.0728522" lon="-105.2307759">
  <ele>1595.67</ele>
  <time>2026-08-28T19:11:08Z</time>
  <course>10.64</course>
  <speed>0.01</speed>
  <fix>3d</fix>
</trkpt>
<trkpt lat="40.0728523" lon="-105.230776">
  <ele>1595.75</ele>
  <time>2026-08-28T19:11:08Z</time>
  <course>35.37</course>
  <speed>0.0412310562561766</speed>
  <fix>3d</fix>
</trkpt>
<trkpt lat="40.0728522" lon="-105.2307759">
  <ele>1595.67</ele>
  <time>2026-08-28T19:11:08Z</time>
  <course>3.3</course>
  <speed>0.02</speed>
  <fix>3d</fix>
</trkpt>
<trkpt lat="40.0728524" lon="-105.230776">
  <ele>1595.74</ele>
  <time>2026-08-28T19:11:08Z</time>
  <course>35.4</course>
  <speed>0.0412310562561766</speed>
  <fix>3d</fix>
</trkpt>
<trkpt lat="40.0728522" lon="-105.2307759">
  <ele>1595.66</ele>
  <time>2026-08-28T19:11:08Z</time>
  <course>355.08</course>
  <speed>0.03</speed>
  <fix>3d</fix>
</trkpt>
<trkpt lat="40.0728524" lon="-105.230776">
  <ele>1595.74</ele>
  <time>2026-08-28T19:11:08Z</time>
  <course>35.38</course>
  <speed>0.0316227766016838</speed>
  <fix>3d</fix>
</trkpt>
<trkpt lat="40.0728523" lon="-105.2307759">
  <ele>1595.66</ele>
  <time>2026-08-28T19:11:08Z</time>
  <course>348.4</course>
  <speed>0.03</speed>
  <fix>3d</fix>
</trkpt>
<trkpt lat="40.0728524" lon="-105.230776">
  <ele>1595.73</ele>
  <time>2026-08-28T19:11:08Z</time>
  <course>35.36</course>
  <speed>0.022360679774997897</speed>
  <fix>3d</fix>
</trkpt>
<trkpt lat="40.0728523" lon="-105.2307759">
  <ele>1595.66</ele>
  <time>2026-08-28T19:11:08Z</time>
  <course>340.77</course>
  <speed>0.02</speed>
  <fix>3d</fix>
</trkpt>
<trkpt lat="40.0728524" lon="-105.230776">
  <ele>1595.74</ele>
  <time>2026-08-28T19:11:08Z</time>
  <course>35.36</course>
  <speed>0.01</speed>
  <fix>3d</fix>
</trkpt>
<trkpt lat="40.0728523" lon="-105.2307759">
  <ele>1595.66</ele>
  <time>2026-08-28T19:11:08Z</time>
  <course>336.48</course>
  <speed>0.01</speed>
  <fix>3d</fix>
</trkpt>
<trkpt lat="40.0728524" lon="-105.230776">
  <ele>1595.74</ele>
  <time>2026-08-28T19:11:08Z</time>
  <course>35.37</course>
  <speed>0.01</speed>
  <fix>3d</fix>
</trkpt>
<trkpt lat="40.0728523" lon="-105.2307759">
  <ele>1595.66</ele>
  <time>2026-08-28T19:11:08Z</time>
  <course>335.56</course>
  <speed>0.01</speed>
  <fix>3d</fix>
</trkpt>
<trkpt lat="40.0728524" lon="-105.230776">
  <ele>1595.74</ele>
  <time>2026-08-28T19:11:08Z</time>
  <course>35.38</course>
  <speed>0.01</speed>
  <fix>3d</fix>
</trkpt>
<trkpt lat="40.0728523" lon="-105.2307759">
  <ele>1595.66</ele>
  <time>2026-08-28T19:11:08Z</time>
  <course>342.3</course>
  <speed>0.0</speed>
  <fix>3d</fix>
</trkpt>
<trkpt lat="40.0728524" lon="-105.230776">
  <ele>1595.74</ele>
  <time>2026-08-28T19:11:08Z</time>
  <course>35.38</course>
  <speed>0.01</speed>
  <fix>3d</fix>
</trkpt>
<trkpt lat="40.0728523" lon="-105.2307759">
  <ele>1595.66</ele>
  <time>2026-08-28T19:11:08Z</time>
  <course>119.55</course>
  <speed>0.0</speed>
  <fix>3d</fix>
</trkpt>
<trkpt lat="40.0728524" lon="-105.230776">
  <ele>1595.74</ele>
  <time>2026-08-28T19:11:08Z</time>
  <course>35.39</course>
  <speed>0.01</speed>
  <fix>3d</fix>
</trkpt>
<trkpt lat="40.0728523" lon="-105.2307759">
  <ele>1595.66</ele>
  <time>2026-08-28T19:11:08Z</time>
  <course>135.06</course>
  <speed>0.0</speed>
  <fix>3d</fix>
</trkpt>
<trkpt lat="40.0728524" lon="-105.230776">
  <ele>1595.74</ele>
  <time>2026-08-28T19:11:08Z</time>
  <course>35.38</course>
  <speed>0.01</speed>
  <fix>3d</fix>
</trkpt>
<trkpt lat="40.0728523" lon="-105.2307759">
  <ele>1595.66</ele>
  <time>2026-08-28T19:11:08Z</time>
  <course>131.88</course>
  <speed>0.0</speed>
  <fix>3d</fix>
</trkpt>
<trkpt lat="40.0728524" lon="-105.230776">
  <ele>1595.74</ele>
  <time>2026-08-28T19:11:08Z</time>
  <course>35.37</course>
  <speed>0.01</speed>
  <fix>3d</fix>
</trkpt>
<trkpt lat="40.0728523" lon="-105.2307759">
  <ele>1595.66</ele>
  <time>2026-08-28T19:11:08Z</time>
  <course>116.76</course>
  <speed>0.0</speed>
  <fix>3d</fix>
</trkpt>
<trkpt lat="40.0728524" lon="-105.230776">
  <ele>1595.74</ele>
  <time>2026-08-28T19:11:08Z</time>
  <course>35.37</course>
  <speed>0.01</speed>
  <fix>3d</fix>
</trkpt>
<trkpt lat="40.0728523" lon="-105.2307759">
  <ele>1595.66</ele>
  <time>2026-08-28T19:11:08Z</time>
  <course>59.97</course>
  <speed>0.0</speed>
  <fix>3d</fix>
</trkpt>
<trkpt lat="40.0728524" lon="-105.230776">
  <ele>1595.74</ele>
  <time>2026-08-28T19:11:08Z</time>
  <course>35.37</course>
  <speed>0.0</speed>
  <fix>3d</fix>
</trkpt>
<trkpt lat="40.0728523" lon="-105.2307759">
  <ele>1595.66</ele>
  <time>2026-08-28T19:11:08Z</time>
  <course>16.73</course>
  <speed>0.0</speed>
  <fix>3d</fix>
</trkpt>
<trkpt lat="40.0728524" lon="-105.230776">
  <ele>1595.74</ele>
  <time>2026-08-28T19:11:08Z</time>
  <course>35.4</course>
  <speed>0.01</speed>
  <fix>3d</fix>
</trkpt>
<trkpt lat="40.0728523" lon="-105.2307759">
  <ele>1595.66</ele>
  <time>2026-08-28T19:11:08Z</time>
  <course>142.62</course>
  <speed>0.01</speed>
  <fix>3d</fix>
</trkpt>
<trkpt lat="40.0728524" lon="-105.2307759">
  <ele>1595.73</ele>
  <time>2026-08-28T19:11:08Z</time>
  <course>35.72</course>
  <speed>0.01</speed>
  <fix>3d</fix>
</trkpt>
<trkpt lat="40.0728523" lon="-105.2307759">
  <ele>1595.66</ele>
  <time>2026-08-28T19:11:08Z</time>
  <course>145.32</course>
  <speed>0.02</speed>
  <fix>3d</fix>
</trkpt>
<trkpt lat="40.0728524" lon="-105.2307759">
  <ele>1595.68</ele>
  <time>2026-08-28T19:11:08Z</time>
  <course>36.66</course>
  <speed>0.01</speed>
  <fix>3d</fix>
</trkpt>
<trkpt lat="40.0728523" lon="-105.2307759">
  <ele>1595.64</ele>
  <time>2026-08-28T19:11:08Z</time>
  <course>138.28</course>
  <speed>0.02</speed>
  <fix>3d</fix>
</trkpt>
<trkpt lat="40.0728524" lon="-105.2307759">
  <ele>1595.53</ele>
  <time>2026-08-28T19:11:08Z</time>
  <course>38.01</course>
  <speed>0.02</speed>
  <fix>3d</fix>
</trkpt>
<trkpt lat="40.0728523" lon="-105.2307759">
  <ele>1595.56</ele>
  <time>2026-08-28T19:11:08Z</time>
  <course>122.37</course>
  <speed>0.01</speed>
  <fix>3d</fix>
</trkpt>
<trkpt lat="40.0728524" lon="-105.2307759">
  <ele>1595.1</ele>
  <time>2026-08-28T19:11:08Z</time>
  <course>39.38</course>
  <speed>0.07810249675906654</speed>
  <fix>3d</fix>
</trkpt>
<trkpt lat="40.0728523" lon="-105.2307759">
  <ele>1595.33</ele>
  <time>2026-08-28T19:11:08Z</time>
  <course>345.22</course>
  <speed>0.02</speed>
  <fix>3d</fix>
</trkpt>
<trkpt lat="40.0728524" lon="-105.230776">
  <ele>1594.39</ele>
  <time>2026-08-28T19:11:08Z</time>
  <course>40.77</course>
  <speed>0.12041594578792296</speed>
  <fix>3d</fix>
</trkpt>
<trkpt lat="40.0728524" lon="-105.2307759">
  <ele>1594.83</ele>
  <time>2026-08-28T19:11:08Z</time>
  <course>330.33</course>
  <speed>0.08</speed>
  <fix>3d</fix>
</trkpt>
<trkpt lat="40.0728526" lon="-105.2307762">
  <ele>1593.49</ele>
  <time>2026-08-28T19:11:08Z</time>
  <course>42.67</course>
  <speed>0.14212670403551894</speed>
  <fix>3d</fix>
</trkpt>
<trkpt lat="40.0728526" lon="-105.230776">
  <ele>1594.06</ele>
  <time>2026-08-28T19:11:08Z</time>
  <course>330.24</course>
  <speed>0.12</speed>
  <fix>3d</fix>
</trkpt>
<trkpt lat="40.0728528" lon="-105.2307764">
  <ele>1592.47</ele>
  <time>2026-08-28T19:11:08Z</time>
  <course>45.23</course>
  <speed>0.13601470508735444</speed>
  <fix>3d</fix>
</trkpt>
<trkpt lat="40.0728528" lon="-105.2307761">
  <ele>1593.13</ele>
  <time>2026-08-28T19:11:08Z</time>
  <course>332.26</course>
  <speed>0.13</speed>
  <fix>3d</fix>
</trkpt>
<trkpt lat="40.072853" lon="-105.2307765">
  <ele>1591.37</ele>
  <time>2026-08-28T19:11:08Z</time>
  <course>47.66</course>
  <speed>0.12083045973594572</speed>
  <fix>3d</fix>
</trkpt>
<trkpt lat="40.0728529" lon="-105.2307762">
  <ele>1592.09</ele>
  <time>2026-08-28T19:11:08Z</time>
  <course>336.26</course>
  <speed>0.12</speed>
  <fix>3d</fix>
</trkpt>
<trkpt lat="40.0728532" lon="-105.2307765">
  <ele>1590.22</ele>
  <time>2026-08-28T19:11:08Z</time>
  <course>49.64</course>
  <speed>0.1044030650891055</speed>
  <fix>3d</fix>
</trkpt>
<trkpt lat="40.0728532" lon="-105.2307763">
  <ele>1590.98</ele>
  <time>2026-08-28T19:11:08Z</time>
  <course>342.88</course>
  <speed>0.11</speed>
  <fix>3d</fix>
</trkpt>
<trkpt lat="40.0728534" lon="-105.2307765">
  <ele>1589.04</ele>
  <time>2026-08-28T19:11:08Z</time>
  <course>51.35</course>
  <speed>0.1</speed>
  <fix>3d</fix>
</trkpt>
<trkpt lat="40.0728534" lon="-105.2307764">
  <ele>1589.83</ele>
  <time>2026-08-28T19:11:08Z</time>
  <course>352.54</course>
  <speed>0.09</speed>
  <fix>3d</fix>
</trkpt>
<trkpt lat="40.0728536" lon="-105.2307765">
  <ele>1587.84</ele>
  <time>2026-08-28T19:11:08Z</time>
  <course>52.89</course>
  <speed>0.09055385138137417</speed>
  <fix>3d</fix>
</trkpt>
<trkpt lat="40.0728535" lon="-105.2307764">
  <ele>1588.65</ele>
  <time>2026-08-28T19:11:08Z</time>
  <course>5.57</course>
  <speed>0.08</speed>
  <fix>3d</fix>
</trkpt>
<trkpt lat="40.0728537" lon="-105.2307765">
  <ele>1586.62</ele>
  <time>2026-08-28T19:11:08Z</time>
  <course>54.31</course>
  <speed>0.09848857801796104</speed>
  <fix>3d</fix>
</trkpt>
<trkpt lat="40.0728536" lon="-105.2307764">
  <ele>1587.46</ele>
  <time>2026-08-28T19:11:08Z</time>
  <course>21.33</course>
  <speed>0.08</speed>
  <fix>3d</fix>
</trkpt>
<trkpt lat="40.0728538" lon="-105.2307764">
  <ele>1585.67</ele>
  <time>2026-08-28T19:11:08Z</time>
  <course>55.06</course>
  <speed>0.03</speed>
  <fix>3d</fix>
</trkpt>
<trkpt lat="40.0728538" lon="-105.2307763">
  <ele>1586.28</ele>
  <time>2026-08-28T19:11:08Z</time>
  <course>30.59</course>
  <speed>0.07</speed>
  <fix>3d</fix>
</trkpt>
<trkpt lat="40.0728538" lon="-105.2307764">
  <ele>1585.91</ele>
  <time>2026-08-28T19:11:08Z</time>
  <course>55.16</course>
  <speed>0.01</speed>
  <fix>3d</fix>
</trkpt>
<trkpt lat="40.0728539" lon="-105.2307763">
  <ele>1585.71</ele>
  <time>2026-08-28T19:11:08Z</time>
  <course>15.34</course>
  <speed>0.02</speed>
  <fix>3d</fix>
</trkpt>
<trkpt lat="40.0728538" lon="-105.2307764">
  <ele>1585.99</ele>
  <time>2026-08-28T19:11:08Z</time>
  <course>55.27</course>
  <speed>0.01</speed>
  <fix>3d</fix>
</trkpt>
<trkpt lat="40.0728539" lon="-105.2307763">
  <ele>1585.83</ele>
  <time>2026-08-28T19:11:08Z</time>
  <course>228.41</course>
  <speed>0.01</speed>
  <fix>3d</fix>
</trkpt>
<trkpt lat="40.0728538" lon="-105.2307764">
  <ele>1585.91</ele>
  <time>2026-08-28T19:11:08Z</time>
  <course>55.36</course>
  <speed>0.01</speed>
  <fix>3d</fix>
</trkpt>
<trkpt lat="40.0728539" lon="-105.2307764">
  <ele>1585.93</ele>
  <time>2026-08-28T19:11:08Z</time>
  <course>158.59</course>
  <speed>0.0</speed>
  <fix>3d</fix>
</trkpt>
<trkpt lat="40.0728538" lon="-105.2307764">
  <ele>1585.9</ele>
  <time>2026-08-28T19:11:08Z</time>
  <course>55.45</course>
  <speed>0.0</speed>
  <fix>3d</fix>
</trkpt>
<trkpt lat="40.0728539" lon="-105.2307763">
  <ele>1585.9</ele>
  <time>2026-08-28T19:11:08Z</time>
  <course>97.32</course>
  <speed>0.0</speed>
  <fix>3d</fix>
</trkpt>
<trkpt lat="40.0728538" lon="-105.2307764">
  <ele>1585.9</ele>
  <time>2026-08-28T19:11:08Z</time>
  <course>55.53</course>
  <speed>0.0</speed>
  <fix>3d</fix>
</trkpt>
<trkpt lat="40.0728539" lon="-105.2307763">
  <ele>1585.89</ele>
  <time>2026-08-28T19:11:08Z</time>
  <course>166.95</course>
  <speed>0.0</speed>
  <fix>3d</fix>
</trkpt>
<trkpt lat="40.0728538" lon="-105.2307763">
  <ele>1585.9</ele>
  <time>2026-08-28T19:11:08Z</time>
  <course>55.61</course>
  <speed>0.0</speed>
  <fix>3d</fix>
</trkpt>
<trkpt lat="40.0728539" lon="-105.2307763">
  <ele>1585.9</ele>
  <time>2026-08-28T19:11:08Z</time>
  <course>170.01</course>
  <speed>0.0</speed>
  <fix>3d</fix>
</trkpt>
<trkpt lat="40.0728538" lon="-105.2307763">
  <ele>1585.9</ele>
  <time>2026-08-28T19:11:08Z</time>
  <course>55.69</course>
  <speed>0.0</speed>
  <fix>3d</fix>
</trkpt>
<trkpt lat="40.0728539" lon="-105.2307763">
  <ele>1585.9</ele>
  <time>2026-08-28T19:11:08Z</time>
  <course>157.35</course>
  <speed>0.0</speed>
  <fix>3d</fix>
</trkpt>
<trkpt lat="40.0728538" lon="-105.2307763">
  <ele>1585.9</ele>
  <time>2026-08-28T19:11:08Z</time>
  <course>55.76</course>
  <speed>0.01</speed>
  <fix>3d</fix>
</trkpt>
<trkpt lat="40.0728539" lon="-105.2307763">
  <ele>1585.9</ele>
  <time>2026-08-28T19:11:08Z</time>
  <course>157.63</course>
  <speed>0.0</speed>
  <fix>3d</fix>
</trkpt>
<trkpt lat="40.0728538" lon="-105.2307763">
  <ele>1585.9</ele>
  <time>2026-08-28T19:11:08Z</time>
  <course>55.83</course>
  <speed>0.01</speed>
  <fix>3d</fix>
</trkpt>
<trkpt lat="40.0728539" lon="-105.2307763">
  <ele>1585.9</ele>
  <time>2026-08-28T19:11:08Z</time>
  <course>158.18</course>
  <speed>0.0</speed>
  <fix>3d</fix>
</trkpt>
<trkpt lat="40.0728538" lon="-105.2307763">
  <ele>1585.9</ele>
  <time>2026-08-28T19:11:08Z</time>
  <course>55.89</course>
  <speed>0.01</speed>
  <fix>3d</fix>
</trkpt>
<trkpt lat="40.0728539" lon="-105.2307763">
  <ele>1585.9</ele>
  <time>2026-08-28T19:11:08Z</time>
  <course>158.93</course>
  <speed>0.0</speed>
  <fix>3d</fix>
</trkpt>
<trkpt lat="40.0728538" lon="-105.2307763">
  <ele>1585.9</ele>
  <time>2026-08-28T19:11:09Z</time>
  <course>55.95</course>
  <speed>0.022360679774997897</speed>
  <fix>3d</fix>
</trkpt>
<trkpt lat="40.0728539" lon="-105.2307763">
  <ele>1585.9</ele>
  <time>2026-08-28T19:11:09Z</time>
  <course>154.99</course>
  <speed>0.0</speed>
  <fix>3d</fix>
</trkpt>
<trkpt lat="40.0728538" lon="-105.2307763">
  <ele>1585.9</ele>
  <time>2026-08-28T19:11:09Z</time>
  <course>55.98</course>
  <speed>0.01</speed>
  <fix>3d</fix>
</trkpt>
<trkpt lat="40.0728539" lon="-105.2307763">
  <ele>1585.9</ele>
  <time>2026-08-28T19:11:09Z</time>
  <course>146.17</course>
  <speed>0.0</speed>
  <fix>3d</fix>
</trkpt>
<trkpt lat="40.0728538" lon="-105.2307763">
  <ele>1585.9</ele>
  <time>2026-08-28T19:11:09Z</time>
  <course>56.01</course>
  <speed>0.01</speed>
  <fix>3d</fix>
</trkpt>
<trkpt lat="40.0728539" lon="-105.2307763">
  <ele>1585.9</ele>
  <time>2026-08-28T19:11:09Z</time>
  <course>141.38</course>
  <speed>0.0</speed>
  <fix>3d</fix>
</trkpt>
<trkpt lat="40.0728538" lon="-105.2307763">
  <ele>1585.9</ele>
  <time>2026-08-28T19:11:09Z</time>
  <course>56.03</course>
  <speed>0.01</speed>
  <fix>3d</fix>
</trkpt>
<trkpt lat="40.0728539" lon="-105.2307763">
  <ele>1585.9</ele>
  <time>2026-08-28T19:11:09Z</time>
  <course>303.84</course>
  <speed>0.0</speed>
  <fix>3d</fix>
</trkpt>
<trkpt lat="40.0728538" lon="-105.2307763">
  <ele>1585.9</ele>
  <time>2026-08-28T19:11:09Z</time>
  <course>56.05</course>
  <speed>0.01</speed>
  <fix>3d</fix>
</trkpt>
<trkpt lat="40.0728539" lon="-105.2307763">
  <ele>1585.9</ele>
  <time>2026-08-28T19:11:09Z</time>
  <course>297.96</course>
  <speed>0.0</speed>
  <fix>3d</fix>
</trkpt>
<trkpt lat="40.0728538" lon="-105.2307763">
  <ele>1585.9</ele>
  <time>2026-08-28T19:11:09Z</time>
  <course>56.08</course>
  <speed>0.01</speed>
  <fix>3d</fix>
</trkpt>
<trkpt lat="40.0728539" lon="-105.2307763">
  <ele>1585.9</ele>
  <time>2026-08-28T19:11:09Z</time>
  <course>292.93</course>
  <speed>0.0</speed>
  <fix>3d</fix>
</trkpt>
<trkpt lat="40.0728538" lon="-105.2307763">
  <ele>1585.91</ele>
  <time>2026-08-28T19:11:09Z</time>
  <course>56.1</course>
  <speed>0.01</speed>
  <fix>3d</fix>
</trkpt>
<trkpt lat="40.0728539" lon="-105.2307763">
  <ele>1585.9</ele>
  <time>2026-08-28T19:11:09Z</time>
  <course>294.1</course>
  <speed>0.0</speed>
  <fix>3d</fix>
</trkpt>
<trkpt lat="40.0728538" lon="-105.2307763">
  <ele>1585.91</ele>
  <time>2026-08-28T19:11:09Z</time>
  <course>56.13</course>
  <speed>0.01</speed>
  <fix>3d</fix>
</trkpt>
<trkpt lat="40.0728539" lon="-105.2307763">
  <ele>1585.9</ele>
  <time>2026-08-28T19:11:09Z</time>
  <course>303.0</course>
  <speed>0.0</speed>
  <fix>3d</fix>
</trkpt>
<trkpt lat="40.0728538" lon="-105.2307763">
  <ele>1585.91</ele>
  <time>2026-08-28T19:11:09Z</time>
  <course>56.15</course>
  <speed>0.01</speed>
  <fix>3d</fix>
</trkpt>
<trkpt lat="40.0728539" lon="-105.2307763">
  <ele>1585.9</ele>
  <time>2026-08-28T19:11:09Z</time>
  <course>331.36</course>
  <speed>0.0</speed>
  <fix>3d</fix>
</trkpt>
<trkpt lat="40.0728538" lon="-105.2307763">
  <ele>1585.91</ele>
  <time>2026-08-28T19:11:09Z</time>
  <course>56.18</course>
  <speed>0.01</speed>
  <fix>3d</fix>
</trkpt>
<trkpt lat="40.0728539" lon="-105.2307763">
  <ele>1585.9</ele>
  <time>2026-08-28T19:11:09Z</time>
  <course>338.21</course>
  <speed>0.0</speed>
  <fix>3d</fix>
</trkpt>
<trkpt lat="40.0728538" lon="-105.2307763">
  <ele>1585.92</ele>
  <time>2026-08-28T19:11:09Z</time>
  <course>56.21</course>
  <speed>0.01</speed>
  <fix>3d</fix>
</trkpt>
<trkpt lat="40.0728539" lon="-105.2307763">
  <ele>1585.9</ele>
  <time>2026-08-28T19:11:09Z</time>
  <course>337.52</course>
  <speed>0.0</speed>
  <fix>3d</fix>
</trkpt>
<trkpt lat="40.0728538" lon="-105.2307763">
  <ele>1585.92</ele>
  <time>2026-08-28T19:11:09Z</time>
  <course>56.24</course>
  <speed>0.01</speed>
  <fix>3d</fix>
</trkpt>
<trkpt lat="40.0728539" lon="-105.2307763">
  <ele>1585.9</ele>
  <time>2026-08-28T19:11:09Z</time>
  <course>328.64</course>
  <speed>0.0</speed>
  <fix>3d</fix>
</trkpt>
<trkpt lat="40.0728538" lon="-105.2307763">
  <ele>1585.92</ele>
  <time>2026-08-28T19:11:09Z</time>
  <course>56.27</course>
  <speed>0.0</speed>
  <fix>3d</fix>
</trkpt>
<trkpt lat="40.0728539" lon="-105.2307763">
  <ele>1585.9</ele>
  <time>2026-08-28T19:11:09Z</time>
  <course>330.91</course>
  <speed>0.0</speed>
  <fix>3d</fix>
</trkpt>
<trkpt lat="40.0728538" lon="-105.2307763">
  <ele>1585.92</ele>
  <time>2026-08-28T19:11:09Z</time>
  <course>56.3</course>
  <speed>0.0</speed>
  <fix>3d</fix>
</trkpt>
<trkpt lat="40.0728539" lon="-105.2307763">
  <ele>1585.9</ele>
  <time>2026-08-28T19:11:09Z</time>
  <course>324.26</course>
  <speed>0.0</speed>
  <fix>3d</fix>
</trkpt>
<trkpt lat="40.0728538" lon="-105.2307763">
  <ele>1585.92</ele>
  <time>2026-08-28T19:11:09Z</time>
  <course>56.33</course>
  <speed>0.0</speed>
  <fix>3d</fix>
</trkpt>
<trkpt lat="40.0728539" lon="-105.2307763">
  <ele>1585.9</ele>
  <time>2026-08-28T19:11:09Z</time>
  <course>319.01</course>
  <speed>0.0</speed>
  <fix>3d</fix>
</trkpt>
<trkpt lat="40.0728538" lon="-105.2307763">
  <ele>1585.91</ele>
  <time>2026-08-28T19:11:09Z</time>
  <course>56.36</course>
  <speed>0.0</speed>
  <fix>3d</fix>
</trkpt>
<trkpt lat="40.0728539" lon="-105.2307763">
  <ele>1585.9</ele>
  <time>2026-08-28T19:11:09Z</time>
  <course>339.09</course>
  <speed>0.0</speed>
  <fix>3d</fix>
</trkpt>
<trkpt lat="40.0728538" lon="-105.2307763">
  <ele>1585.91</ele>
  <time>2026-08-28T19:11:09Z</time>
  <course>56.39</course>
  <speed>0.0</speed>
  <fix>3d</fix>
</trkpt>
<trkpt lat="40.0728539" lon="-105.2307763">
  <ele>1585.9</ele>
  <time>2026-08-28T19:11:09Z</time>
  <course>3.96</course>
  <speed>0.0</speed>
  <fix>3d</fix>
</trkpt>
<trkpt lat="40.0728538" lon="-105.2307763">
  <ele>1585.91</ele>
  <time>2026-08-28T19:11:09Z</time>
  <course>56.42</course>
  <speed>0.0</speed>
  <fix>3d</fix>
</trkpt>
<trkpt lat="40.0728539" lon="-105.2307763">
  <ele>1585.9</ele>
  <time>2026-08-28T19:11:09Z</time>
  <course>359.17</course>
  <speed>0.0</speed>
  <fix>3d</fix>
</trkpt>
<trkpt lat="40.0728538" lon="-105.2307763">
  <ele>1585.91</ele>
  <time>2026-08-28T19:11:09Z</time>
  <course>56.45</course>
  <speed>0.0</speed>
  <fix>3d</fix>
</trkpt>
<trkpt lat="40.0728539" lon="-105.2307763">
  <ele>1585.9</ele>
  <time>2026-08-28T19:11:09Z</time>
  <course>323.63</course>
  <speed>0.0</speed>
  <fix>3d</fix>
</trkpt>
<trkpt lat="40.0728538" lon="-105.2307763">
  <ele>1585.91</ele>
  <time>2026-08-28T19:11:09Z</time>
  <course>56.48</course>
  <speed>0.0</speed>
  <fix>3d</fix>
</trkpt>
<trkpt lat="40.0728539" lon="-105.2307763">
  <ele>1585.9</ele>
  <time>2026-08-28T19:11:09Z</time>
  <course>315.43</course>
  <speed>0.0</speed>
  <fix>3d</fix>
</trkpt>
<trkpt lat="40.0728538" lon="-105.2307763">
  <ele>1585.92</ele>
  <time>2026-08-28T19:11:09Z</time>
  <course>56.51</course>
  <speed>0.0</speed>
  <fix>3d</fix>
</trkpt>
<trkpt lat="40.0728539" lon="-105.2307763">
  <ele>1585.9</ele>
  <time>2026-08-28T19:11:09Z</time>
  <course>327.29</course>
  <speed>0.0</speed>
  <fix>3d</fix>
</trkpt>
<trkpt lat="40.0728538" lon="-105.2307763">
  <ele>1585.92</ele>
  <time>2026-08-28T19:11:09Z</time>
  <course>56.54</course>
  <speed>0.0</speed>
  <fix>3d</fix>
</trkpt>
<trkpt lat="40.0728539" lon="-105.2307763">
  <ele>1585.9</ele>
  <time>2026-08-28T19:11:09Z</time>
  <course>341.55</course>
  <speed>0.0</speed>
  <fix>3d</fix>
</trkpt>
<trkpt lat="40.0728538" lon="-105.2307763">
  <ele>1585.92</ele>
  <time>2026-08-28T19:11:09Z</time>
  <course>56.58</course>
  <speed>0.0</speed>
  <fix>3d</fix>
</trkpt>
<trkpt lat="40.0728539" lon="-105.2307763">
  <ele>1585.9</ele>
  <time>2026-08-28T19:11:09Z</time>
  <course>335.49</course>
  <speed>0.0</speed>
  <fix>3d</fix>
</trkpt>
<trkpt lat="40.0728538" lon="-105.2307763">
  <ele>1585.92</ele>
  <time>2026-08-28T19:11:09Z</time>
  <course>56.61</course>
  <speed>0.0</speed>
  <fix>3d</fix>
</trkpt>
<trkpt lat="40.0728539" lon="-105.2307763">
  <ele>1585.9</ele>
  <time>2026-08-28T19:11:09Z</time>
  <course>4.52</course>
  <speed>0.0</speed>
  <fix>3d</fix>
</trkpt>
<trkpt lat="40.0728538" lon="-105.2307763">
  <ele>1585.92</ele>
  <time>2026-08-28T19:11:09Z</time>
  <course>56.64</course>
  <speed>0.0</speed>
  <fix>3d</fix>
</trkpt>
<trkpt lat="40.0728539" lon="-105.2307763">
  <ele>1585.9</ele>
  <time>2026-08-28T19:11:09Z</time>
  <course>5.01</course>
  <speed>0.0</speed>
  <fix>3d</fix>
</trkpt>
<trkpt lat="40.0728538" lon="-105.2307763">
  <ele>1585.92</ele>
  <time>2026-08-28T19:11:09Z</time>
  <course>56.68</course>
  <speed>0.0</speed>
  <fix>3d</fix>
</trkpt>
<trkpt lat="40.0728539" lon="-105.2307763">
  <ele>1585.9</ele>
  <time>2026-08-28T19:11:09Z</time>
  <course>301.54</course>
  <speed>0.0</speed>
  <fix>3d</fix>
</trkpt>
<trkpt lat="40.0728538" lon="-105.2307763">
  <ele>1585.92</ele>
  <time>2026-08-28T19:11:09Z</time>
  <course>56.71</course>
  <speed>0.0</speed>
  <fix>3d</fix>
</trkpt>
<trkpt lat="40.0728539" lon="-105.2307763">
  <ele>1585.9</ele>
  <time>2026-08-28T19:11:09Z</time>
  <course>249.81</course>
  <speed>0.0</speed>
  <fix>3d</fix>
</trkpt>
<trkpt lat="40.0728538" lon="-105.2307763">
  <ele>1585.92</ele>
  <time>2026-08-28T19:11:09Z</time>
  <course>56.74</course>
  <speed>0.0</speed>
  <fix>3d</fix>
</trkpt>
<trkpt lat="40.0728539" lon="-105.2307763">
  <ele>1585.9</ele>
  <time>2026-08-28T19:11:09Z</time>
  <course>332.17</course>
  <speed>0.0</speed>
  <fix>3d</fix>
</trkpt>
<trkpt lat="40.0728538" lon="-105.2307763">
  <ele>1585.92</ele>
  <time>2026-08-28T19:11:09Z</time>
  <course>56.77</course>
  <speed>0.0</speed>
  <fix>3d</fix>
</trkpt>
<trkpt lat="40.0728539" lon="-105.2307763">
  <ele>1585.9</ele>
  <time>2026-08-28T19:11:09Z</time>
  <course>354.42</course>
  <speed>0.0</speed>
  <fix>3d</fix>
</trkpt>
<trkpt lat="40.0728538" lon="-105.2307763">
  <ele>1585.92</ele>
  <time>2026-08-28T19:11:09Z</time>
  <course>56.82</course>
  <speed>0.0</speed>
  <fix>3d</fix>
</trkpt>
<trkpt lat="40.0728539" lon="-105.2307763">
  <ele>1585.9</ele>
  <time>2026-08-28T19:11:09Z</time>
  <course>341.54</course>
  <speed>0.0</speed>
  <fix>3d</fix>
</trkpt>
<trkpt lat="40.0728538" lon="-105.2307763">
  <ele>1585.94</ele>
  <time>2026-08-28T19:11:09Z</time>
  <course>56.96</course>
  <speed>0.0</speed>
  <fix>3d</fix>
</trkpt>
<trkpt lat="40.0728539" lon="-105.2307763">
  <ele>1585.9</ele>
  <time>2026-08-28T19:11:09Z</time>
  <course>339.67</course>
  <speed>0.0</speed>
  <fix>3d</fix>
</trkpt>
<trkpt lat="40.0728538" lon="-105.2307763">
  <ele>1585.94</ele>
  <time>2026-08-28T19:11:09Z</time>
  <course>57.12</course>
  <speed>0.0</speed>
  <fix>3d</fix>
</trkpt>
<trkpt lat="40.0728539" lon="-105.2307763">
  <ele>1585.9</ele>
  <time>2026-08-28T19:11:09Z</time>
  <course>339.89</course>
  <speed>0.0</speed>
  <fix>3d</fix>
</trkpt>
<trkpt lat="40.0728538" lon="-105.2307763">
  <ele>1585.94</ele>
  <time>2026-08-28T19:11:09Z</time>
  <course>57.28</course>
  <speed>0.0</speed>
  <fix>3d</fix>
</trkpt>
<trkpt lat="40.0728539" lon="-105.2307763">
  <ele>1585.9</ele>
  <time>2026-08-28T19:11:09Z</time>
  <course>158.93</course>
  <speed>0.0</speed>
  <fix>3d</fix>
</trkpt>
<trkpt lat="40.0728538" lon="-105.2307763">
  <ele>1585.95</ele>
  <time>2026-08-28T19:11:09Z</time>
  <course>57.43</course>
  <speed>0.0</speed>
  <fix>3d</fix>
</trkpt>
<trkpt lat="40.0728539" lon="-105.2307763">
  <ele>1585.9</ele>
  <time>2026-08-28T19:11:09Z</time>
  <course>158.16</course>
  <speed>0.0</speed>
  <fix>3d</fix>
</trkpt>
<trkpt lat="40.0728538" lon="-105.2307763">
  <ele>1585.95</ele>
  <time>2026-08-28T19:11:09Z</time>
  <course>57.58</course>
  <speed>0.0</speed>
  <fix>3d</fix>
</trkpt>
<trkpt lat="40.0728539" lon="-105.2307763">
  <ele>1585.9</ele>
  <time>2026-08-28T19:11:09Z</time>
  <course>343.12</course>
  <speed>0.0</speed>
  <fix>3d</fix>
</trkpt>
<trkpt lat="40.0728538" lon="-105.2307763">
  <ele>1585.95</ele>
  <time>2026-08-28T19:11:09Z</time>
  <course>57.73</course>
  <speed>0.0</speed>
  <fix>3d</fix>
</trkpt>
<trkpt lat="40.0728539" lon="-105.2307763">
  <ele>1585.9</ele>
  <time>2026-08-28T19:11:09Z</time>
  <course>354.84</course>
  <speed>0.0</speed>
  <fix>3d</fix>
</trkpt>
<trkpt lat="40.0728538" lon="-105.2307763">
  <ele>1585.96</ele>
  <time>2026-08-28T19:11:09Z</time>
  <course>57.87</course>
  <speed>0.0</speed>
  <fix>3d</fix>
</trkpt>
<trkpt lat="40.0728539" lon="-105.2307763">
  <ele>1585.9</ele>
  <time>2026-08-28T19:11:09Z</time>
  <course>130.42</course>
  <speed>0.0</speed>
  <fix>3d</fix>
</trkpt>
<trkpt lat="40.0728538" lon="-105.2307763">
  <ele>1585.97</ele>
  <time>2026-08-28T19:11:09Z</time>
  <course>58.02</course>
  <speed>0.0</speed>
  <fix>3d</fix>
</trkpt>
<trkpt lat="40.0728539" lon="-105.2307763">
  <ele>1585.9</ele>
  <time>2026-08-28T19:11:09Z</time>
  <course>39.28</course>
  <speed>0.0</speed>
  <fix>3d</fix>
</trkpt>
<trkpt lat="40.0728539" lon="-105.2307763">
  <ele>1585.97</ele>
  <time>2026-08-28T19:11:09Z</time>
  <course>58.16</course>
  <speed>0.0</speed>
  <fix>3d</fix>
</trkpt>
<trkpt lat="40.0728539" lon="-105.2307763">
  <ele>1585.9</ele>
  <time>2026-08-28T19:11:09Z</time>
  <course>23.69</course>
  <speed>0.0</speed>
  <fix>3d</fix>
</trkpt>
<trkpt lat="40.0728539" lon="-105.2307763">
  <ele>1585.97</ele>
  <time>2026-08-28T19:11:09Z</time>
  <course>58.3</course>
  <speed>0.01</speed>
  <fix>3d</fix>
</trkpt>
<trkpt lat="40.0728539" lon="-105.2307763">
  <ele>1585.9</ele>
  <time>2026-08-28T19:11:09Z</time>
  <course>36.14</course>
  <speed>0.0</speed>
  <fix>3d</fix>
</trkpt>
<trkpt lat="40.0728539" lon="-105.2307763">
  <ele>1585.96</ele>
  <time>2026-08-28T19:11:09Z</time>
  <course>58.45</course>
  <speed>0.01</speed>
  <fix>3d</fix>
</trkpt>
<trkpt lat="40.0728539" lon="-105.2307763">
  <ele>1585.9</ele>
  <time>2026-08-28T19:11:09Z</time>
  <course>36.78</course>
  <speed>0.0</speed>
  <fix>3d</fix>
</trkpt>
<trkpt lat="40.0728539" lon="-105.2307763">
  <ele>1585.96</ele>
  <time>2026-08-28T19:11:09Z</time>
  <course>58.58</course>
  <speed>0.01</speed>
  <fix>3d</fix>
</trkpt>
<trkpt lat="40.0728539" lon="-105.2307763">
  <ele>1585.9</ele>
  <time>2026-08-28T19:11:09Z</time>
  <course>34.73</course>
  <speed>0.0</speed>
  <fix>3d</fix>
</trkpt>
<trkpt lat="40.0728539" lon="-105.2307763">
  <ele>1585.96</ele>
  <time>2026-08-28T19:11:09Z</time>
  <course>58.72</course>
  <speed>0.01</speed>
  <fix>3d</fix>
</trkpt>
<trkpt lat="40.0728539" lon="-105.2307763">
  <ele>1585.9</ele>
  <time>2026-08-28T19:11:09Z</time>
  <course>34.88</course>
  <speed>0.0</speed>
  <fix>3d</fix>
</trkpt>
<trkpt lat="40.0728539" lon="-105.2307763">
  <ele>1585.96</ele>
  <time>2026-08-28T19:11:09Z</time>
  <course>58.86</course>
  <speed>0.01</speed>
  <fix>3d</fix>
</trkpt>
<trkpt lat="40.0728539" lon="-105.2307763">
  <ele>1585.9</ele>
  <time>2026-08-28T19:11:09Z</time>
  <course>35.14</course>
  <speed>0.0</speed>
  <fix>3d</fix>
</trkpt>
<trkpt lat="40.0728539" lon="-105.2307763">
  <ele>1585.96</ele>
  <time>2026-08-28T19:11:09Z</time>
  <course>58.99</course>
  <speed>0.01</speed>
  <fix>3d</fix>
</trkpt>
<trkpt lat="40.0728539" lon="-105.2307763">
  <ele>1585.9</ele>
  <time>2026-08-28T19:11:09Z</time>
  <course>35.08</course>
  <speed>0.0</speed>
  <fix>3d</fix>
</trkpt>
<trkpt lat="40.0728539" lon="-105.2307763">
  <ele>1585.95</ele>
  <time>2026-08-28T19:11:09Z</time>
  <course>59.12</course>
  <speed>0.01</speed>
  <fix>3d</fix>
</trkpt>
<trkpt lat="40.0728539" lon="-105.2307763">
  <ele>1585.9</ele>
  <time>2026-08-28T19:11:09Z</time>
  <course>35.06</course>
  <speed>0.0</speed>
  <fix>3d</fix>
</trkpt>
<trkpt lat="40.0728539" lon="-105.2307763">
  <ele>1585.95</ele>
  <time>2026-08-28T19:11:09Z</time>
  <course>59.25</course>
  <speed>0.01</speed>
  <fix>3d</fix>
</trkpt>
<trkpt lat="40.0728539" lon="-105.2307763">
  <ele>1585.9</ele>
  <time>2026-08-28T19:11:09Z</time>
  <course>35.07</course>
  <speed>0.0</speed>
  <fix>3d</fix>
</trkpt>
<trkpt lat="40.0728539" lon="-105.2307763">
  <ele>1585.95</ele>
  <time>2026-08-28T19:11:09Z</time>
  <course>59.38</course>
  <speed>0.01</speed>
  <fix>3d</fix>
</trkpt>
<trkpt lat="40.0728539" lon="-105.2307763">
  <ele>1585.9</ele>
  <time>2026-08-28T19:11:09Z</time>
  <course>35.07</course>
  <speed>0.0</speed>
  <fix>3d</fix>
</trkpt>
<trkpt lat="40.0728539" lon="-105.2307763">
  <ele>1585.96</ele>
  <time>2026-08-28T19:11:09Z</time>
  <course>59.51</course>
  <speed>0.01</speed>
  <fix>3d</fix>
</trkpt>
<trkpt lat="40.0728539" lon="-105.2307763">
  <ele>1585.9</ele>
  <time>2026-08-28T19:11:09Z</time>
  <course>35.07</course>
  <speed>0.0</speed>
  <fix>3d</fix>
</trkpt>
<trkpt lat="40.0728539" lon="-105.2307763">
  <ele>1585.96</ele>
  <time>2026-08-28T19:11:09Z</time>
  <course>59.64</course>
  <speed>0.01</speed>
  <fix>3d</fix>
</trkpt>
<trkpt lat="40.0728539" lon="-105.2307763">
  <ele>1585.9</ele>
  <time>2026-08-28T19:11:09Z</time>
  <course>35.07</course>
  <speed>0.0</speed>
  <fix>3d</fix>
</trkpt>
<trkpt lat="40.0728539" lon="-105.2307763">
  <ele>1585.96</ele>
  <time>2026-08-28T19:11:09Z</time>
  <course>59.76</course>
  <speed>0.01</speed>
  <fix>3d</fix>
</trkpt>
<trkpt lat="40.0728539" lon="-105.2307763">
  <ele>1585.9</ele>
  <time>2026-08-28T19:11:09Z</time>
  <course>35.07</course>
  <speed>0.0</speed>
  <fix>3d</fix>
</trkpt>
<trkpt lat="40.0728539" lon="-105.2307763">
  <ele>1585.95</ele>
  <time>2026-08-28T19:11:09Z</time>
  <course>59.89</course>
  <speed>0.01</speed>
  <fix>3d</fix>
</trkpt>
<trkpt lat="40.0728539" lon="-105.2307763">
  <ele>1585.9</ele>
  <time>2026-08-28T19:11:09Z</time>
  <course>35.07</course>
  <speed>0.0</speed>
  <fix>3d</fix>
</trkpt>
<trkpt lat="40.0728539" lon="-105.2307763">
  <ele>1585.95</ele>
  <time>2026-08-28T19:11:09Z</time>
  <course>60.01</course>
  <speed>0.01</speed>
  <fix>3d</fix>
</trkpt>
<trkpt lat="40.0728539" lon="-105.2307763">
  <ele>1585.9</ele>
  <time>2026-08-28T19:11:09Z</time>
  <course>35.07</course>
  <speed>0.0</speed>
  <fix>3d</fix>
</trkpt>
<trkpt lat="40.0728539" lon="-105.2307763">
  <ele>1585.95</ele>
  <time>2026-08-28T19:11:09Z</time>
  <course>60.13</course>
  <speed>0.01</speed>
  <fix>3d</fix>
</trkpt>
<trkpt lat="40.0728539" lon="-105.2307763">
  <ele>1585.9</ele>
  <time>2026-08-28T19:11:09Z</time>
  <course>35.07</course>
  <speed>0.0</speed>
  <fix>3d</fix>
</trkpt>
<trkpt lat="40.072854" lon="-105.2307763">
  <ele>1585.96</ele>
  <time>2026-08-28T19:11:09Z</time>
  <course>60.26</course>
  <speed>0.01</speed>
  <fix>3d</fix>
</trkpt>
<trkpt lat="40.0728539" lon="-105.2307763">
  <ele>1585.9</ele>
  <time>2026-08-28T19:11:09Z</time>
  <course>35.07</course>
  <speed>0.0</speed>
  <fix>3d</fix>
</trkpt>
<trkpt lat="40.072854" lon="-105.2307763">
  <ele>1585.96</ele>
  <time>2026-08-28T19:11:09Z</time>
  <course>60.38</course>
  <speed>0.01</speed>
  <fix>3d</fix>
</trkpt>
<trkpt lat="40.0728539" lon="-105.2307763">
  <ele>1585.9</ele>
  <time>2026-08-28T19:11:09Z</time>
  <course>35.07</course>
  <speed>0.0</speed>
  <fix>3d</fix>
</trkpt>
<trkpt lat="40.072854" lon="-105.2307763">
  <ele>1585.96</ele>
  <time>2026-08-28T19:11:09Z</time>
  <course>60.5</course>
  <speed>0.01</speed>
  <fix>3d</fix>
</trkpt>
<trkpt lat="40.0728539" lon="-105.2307763">
  <ele>1585.9</ele>
  <time>2026-08-28T19:11:09Z</time>
  <course>326.91</course>
  <speed>0.0</speed>
  <fix>3d</fix>
</trkpt>
<trkpt lat="40.072854" lon="-105.2307763">
  <ele>1585.97</ele>
  <time>2026-08-28T19:11:09Z</time>
  <course>60.62</course>
  <speed>0.01</speed>
  <fix>3d</fix>
</trkpt>
<trkpt lat="40.0728539" lon="-105.2307763">
  <ele>1585.9</ele>
  <time>2026-08-28T19:11:09Z</time>
  <course>16.58</course>
  <speed>0.0</speed>
  <fix>3d</fix>
</trkpt>
<trkpt lat="40.072854" lon="-105.2307763">
  <ele>1585.97</ele>
  <time>2026-08-28T19:11:09Z</time>
  <course>60.73</course>
  <speed>0.01</speed>
  <fix>3d</fix>
</trkpt>
<trkpt lat="40.0728539" lon="-105.2307763">
  <ele>1585.9</ele>
  <time>2026-08-28T19:11:09Z</time>
  <course>35.23</course>
  <speed>0.0</speed>
  <fix>3d</fix>
</trkpt>
<trkpt lat="40.072854" lon="-105.2307763">
  <ele>1585.97</ele>
  <time>2026-08-28T19:11:09Z</time>
  <course>60.85</course>
  <speed>0.02</speed>
  <fix>3d</fix>
</trkpt>
<trkpt lat="40.0728539" lon="-105.2307763">
  <ele>1585.9</ele>
  <time>2026-08-28T19:11:09Z</time>
  <course>30.8</course>
  <speed>0.0</speed>
  <fix>3d</fix>
</trkpt>
<trkpt lat="40.072854" lon="-105.2307763">
  <ele>1585.97</ele>
  <time>2026-08-28T19:11:09Z</time>
  <course>60.96</course>
  <speed>0.02</speed>
  <fix>3d</fix>
</trkpt>
<trkpt lat="40.0728539" lon="-105.2307763">
  <ele>1585.9</ele>
  <time>2026-08-28T19:11:09Z</time>
  <course>35.86</course>
  <speed>0.0</speed>
  <fix>3d</fix>
</trkpt>
<trkpt lat="40.072854" lon="-105.2307763">
  <ele>1585.97</ele>
  <time>2026-08-28T19:11:09Z</time>
  <course>61.08</course>
  <speed>0.02</speed>
  <fix>3d</fix>
</trkpt>
<trkpt lat="40.0728539" lon="-105.2307763">
  <ele>1585.9</ele>
  <time>2026-08-28T19:11:09Z</time>
  <course>35.54</course>
  <speed>0.0</speed>
  <fix>3d</fix>
</trkpt>
<trkpt lat="40.072854" lon="-105.2307763">
  <ele>1585.97</ele>
  <time>2026-08-28T19:11:09Z</time>
  <course>61.19</course>
  <speed>0.01</speed>
  <fix>3d</fix>
</trkpt>
<trkpt lat="40.0728539" lon="-105.2307763">
  <ele>1585.9</ele>
  <time>2026-08-28T19:11:09Z</time>
  <course>174.34</course>
  <speed>0.0</speed>
  <fix>3d</fix>
</trkpt>
<trkpt lat="40.072854" lon="-105.2307763">
  <ele>1585.97</ele>
  <time>2026-08-28T19:11:09Z</time>
  <course>61.3</course>
  <speed>0.01</speed>
  <fix>3d</fix>
</trkpt>
<trkpt lat="40.0728539" lon="-105.2307763">
  <ele>1585.9</ele>
  <time>2026-08-28T19:11:09Z</time>
  <course>156.11</course>
  <speed>0.0</speed>
  <fix>3d</fix>
</trkpt>
<trkpt lat="40.072854" lon="-105.2307763">
  <ele>1585.97</ele>
  <time>2026-08-28T19:11:09Z</time>
  <course>61.41</course>
  <speed>0.01</speed>
  <fix>3d</fix>
</trkpt>
<trkpt lat="40.0728539" lon="-105.2307763">
  <ele>1585.9</ele>
  <time>2026-08-28T19:11:09Z</time>
  <course>125.43</course>
  <speed>0.0</speed>
  <fix>3d</fix>
</trkpt>
<trkpt lat="40.072854" lon="-105.2307763">
  <ele>1585.97</ele>
  <time>2026-08-28T19:11:09Z</time>
  <course>61.52</course>
  <speed>0.01</speed>
  <fix>3d</fix>
</trkpt>
<trkpt lat="40.0728539" lon="-105.2307763">
  <ele>1585.9</ele>
  <time>2026-08-28T19:11:09Z</time>
  <course>349.06</course>
  <speed>0.0</speed>
  <fix>3d</fix>
</trkpt>
<trkpt lat="40.072854" lon="-105.2307763">
  <ele>1585.97</ele>
  <time>2026-08-28T19:11:09Z</time>
  <course>61.63</course>
  <speed>0.01</speed>
  <fix>3d</fix>
</trkpt>
<trkpt lat="40.0728539" lon="-105.2307763">
  <ele>1585.9</ele>
  <time>2026-08-28T19:11:09Z</time>
  <course>323.33</course>
  <speed>0.0</speed>
  <fix>3d</fix>
</trkpt>
<trkpt lat="40.072854" lon="-105.2307763">
  <ele>1585.97</ele>
  <time>2026-08-28T19:11:09Z</time>
  <course>61.73</course>
  <speed>0.01</speed>
  <fix>3d</fix>
</trkpt>
<trkpt lat="40.0728539" lon="-105.2307763">
  <ele>1585.9</ele>
  <time>2026-08-28T19:11:09Z</time>
  <course>121.6</course>
  <speed>0.0</speed>
  <fix>3d</fix>
</trkpt>
<trkpt lat="40.072854" lon="-105.2307763">
  <ele>1585.97</ele>
  <time>2026-08-28T19:11:09Z</time>
  <course>61.84</course>
  <speed>0.01</speed>
  <fix>3d</fix>
</trkpt>
<trkpt lat="40.0728539" lon="-105.2307763">
  <ele>1585.9</ele>
  <time>2026-08-28T19:11:09Z</time>
  <course>89.63</course>
  <speed>0.0</speed>
  <fix>3d</fix>
</trkpt>
<trkpt lat="40.072854" lon="-105.2307763">
  <ele>1585.97</ele>
  <time>2026-08-28T19:11:09Z</time>
  <course>61.95</course>
  <speed>0.01</speed>
  <fix>3d</fix>
</trkpt>
<trkpt lat="40.0728539" lon="-105.2307763">
  <ele>1585.9</ele>
  <time>2026-08-28T19:11:09Z</time>
  <course>90.14</course>
  <speed>0.0</speed>
  <fix>3d</fix>
</trkpt>
<trkpt lat="40.072854" lon="-105.2307763">
  <ele>1585.97</ele>
  <time>2026-08-28T19:11:09Z</time>
  <course>62.05</course>
  <speed>0.01</speed>
  <fix>3d</fix>
</trkpt>
<trkpt lat="40.0728539" lon="-105.2307763">
  <ele>1585.9</ele>
  <time>2026-08-28T19:11:09Z</time>
  <course>101.95</course>
  <speed>0.0</speed>
  <fix>3d</fix>
</trkpt>
<trkpt lat="40.072854" lon="-105.2307763">
  <ele>1585.97</ele>
  <time>2026-08-28T19:11:09Z</time>
  <course>62.15</course>
  <speed>0.01</speed>
  <fix>3d</fix>
</trkpt>
<trkpt lat="40.0728539" lon="-105.2307763">
  <ele>1585.9</ele>
  <time>2026-08-28T19:11:09Z</time>
  <course>115.7</course>
  <speed>0.0</speed>
  <fix>3d</fix>
</trkpt>
<trkpt lat="40.072854" lon="-105.2307763">
  <ele>1585.97</ele>
  <time>2026-08-28T19:11:09Z</time>
  <course>62.25</course>
  <speed>0.01</speed>
  <fix>3d</fix>
</trkpt>
<trkpt lat="40.0728539" lon="-105.2307763">
  <ele>1585.9</ele>
  <time>2026-08-28T19:11:09Z</time>
  <course>134.42</course>
  <speed>0.0</speed>
  <fix>3d</fix>
</trkpt>
<trkpt lat="40.072854" lon="-105.2307763">
  <ele>1585.97</ele>
  <time>2026-08-28T19:11:09Z</time>
  <course>62.34</course>
  <speed>0.01</speed>
  <fix>3d</fix>
</trkpt>
<trkpt lat="40.0728539" lon="-105.2307763">
  <ele>1585.9</ele>
  <time>2026-08-28T19:11:09Z</time>
  <course>143.8</course>
  <speed>0.0</speed>
  <fix>3d</fix>
</trkpt>
<trkpt lat="40.072854" lon="-105.2307763">
  <ele>1585.97</ele>
  <time>2026-08-28T19:11:09Z</time>
  <course>62.43</course>
  <speed>0.01</speed>
  <fix>3d</fix>
</trkpt>
<trkpt lat="40.0728539" lon="-105.2307763">
  <ele>1585.9</ele>
  <time>2026-08-28T19:11:09Z</time>
  <course>150.96</course>
  <speed>0.0</speed>
  <fix>3d</fix>
</trkpt>
<trkpt lat="40.072854" lon="-105.2307763">
  <ele>1585.97</ele>
  <time>2026-08-28T19:11:09Z</time>
  <course>62.52</course>
  <speed>0.01</speed>
  <fix>3d</fix>
</trkpt>
<trkpt lat="40.0728539" lon="-105.2307763">
  <ele>1585.9</ele>
  <time>2026-08-28T19:11:09Z</time>
  <course>153.78</course>
  <speed>0.0</speed>
  <fix>3d</fix>
</trkpt>
<trkpt lat="40.072854" lon="-105.2307763">
  <ele>1585.97</ele>
  <time>2026-08-28T19:11:09Z</time>
  <course>62.61</course>
  <speed>0.01</speed>
  <fix>3d</fix>
</trkpt>
<trkpt lat="40.0728539" lon="-105.2307763">
  <ele>1585.9</ele>
  <time>2026-08-28T19:11:09Z</time>
  <course>155.82</course>
  <speed>0.0</speed>
  <fix>3d</fix>
</trkpt>
<trkpt lat="40.072854" lon="-105.2307763">
  <ele>1585.97</ele>
  <time>2026-08-28T19:11:09Z</time>
  <course>62.7</course>
  <speed>0.01</speed>
  <fix>3d</fix>
</trkpt>
<trkpt lat="40.0728539" lon="-105.2307763">
  <ele>1585.9</ele>
  <time>2026-08-28T19:11:09Z</time>
  <course>157.15</course>
  <speed>0.0</speed>
  <fix>3d</fix>
</trkpt>
<trkpt lat="40.072854" lon="-105.2307763">
  <ele>1585.97</ele>
  <time>2026-08-28T19:11:09Z</time>
  <course>62.78</course>
  <speed>0.01</speed>
  <fix>3d</fix>
</trkpt>
<trkpt lat="40.0728539" lon="-105.2307763">
  <ele>1585.9</ele>
  <time>2026-08-28T19:11:09Z</time>
  <course>157.71</course>
  <speed>0.0</speed>
  <fix>3d</fix>
</trkpt>
<trkpt lat="40.072854" lon="-105.2307763">
  <ele>1585.96</ele>
  <time>2026-08-28T19:11:09Z</time>
  <course>62.86</course>
  <speed>0.01</speed>
  <fix>3d</fix>
</trkpt>
<trkpt lat="40.0728539" lon="-105.2307763">
  <ele>1585.9</ele>
  <time>2026-08-28T19:11:09Z</time>
  <course>158.2</course>
  <speed>0.0</speed>
  <fix>3d</fix>
</trkpt>
<trkpt lat="40.072854" lon="-105.2307763">
  <ele>1585.96</ele>
  <time>2026-08-28T19:11:09Z</time>
  <course>62.94</course>
  <speed>0.01</speed>
  <fix>3d</fix>
</trkpt>
<trkpt lat="40.0728539" lon="-105.2307763">
  <ele>1585.9</ele>
  <time>2026-08-28T19:11:09Z</time>
  <course>158.38</course>
  <speed>0.0</speed>
  <fix>3d</fix>
</trkpt>
<trkpt lat="40.072854" lon="-105.2307763">
  <ele>1585.96</ele>
  <time>2026-08-28T19:11:09Z</time>
  <course>63.01</course>
  <speed>0.01</speed>
  <fix>3d</fix>
</trkpt>
<trkpt lat="40.0728539" lon="-105.2307763">
  <ele>1585.9</ele>
  <time>2026-08-28T19:11:09Z</time>
  <course>158.47</course>
  <speed>0.0</speed>
  <fix>3d</fix>
</trkpt>
<trkpt lat="40.072854" lon="-105.2307763">
  <ele>1585.96</ele>
  <time>2026-08-28T19:11:09Z</time>
  <course>63.08</course>
  <speed>0.01</speed>
  <fix>3d</fix>
</trkpt>
<trkpt lat="40.0728539" lon="-105.2307763">
  <ele>1585.9</ele>
  <time>2026-08-28T19:11:09Z</time>
  <course>158.62</course>
  <speed>0.0</speed>
  <fix>3d</fix>
</trkpt>
<trkpt lat="40.072854" lon="-105.2307763">
  <ele>1585.97</ele>
  <time>2026-08-28T19:11:09Z</time>
  <course>63.15</course>
  <speed>0.01</speed>
  <fix>3d</fix>
</trkpt>
<trkpt lat="40.0728539" lon="-105.2307763">
  <ele>1585.9</ele>
  <time>2026-08-28T19:11:09Z</time>
  <course>158.61</course>
  <speed>0.0</speed>
  <fix>3d</fix>
</trkpt>
<trkpt lat="40.072854" lon="-105.2307763">
  <ele>1585.97</ele>
  <time>2026-08-28T19:11:09Z</time>
  <course>63.22</course>
  <speed>0.01</speed>
  <fix>3d</fix>
</trkpt>
<trkpt lat="40.0728539" lon="-105.2307763">
  <ele>1585.9</ele>
  <time>2026-08-28T19:11:09Z</time>
  <course>158.47</course>
  <speed>0.0</speed>
  <fix>3d</fix>
</trkpt>
<trkpt lat="40.072854" lon="-105.2307763">
  <ele>1585.97</ele>
  <time>2026-08-28T19:11:09Z</time>
  <course>63.28</course>
  <speed>0.02</speed>
  <fix>3d</fix>
</trkpt>
<trkpt lat="40.0728539" lon="-105.2307763">
  <ele>1585.9</ele>
  <time>2026-08-28T19:11:09Z</time>
  <course>139.4</course>
  <speed>0.0</speed>
  <fix>3d</fix>
</trkpt>
<trkpt lat="40.072854" lon="-105.2307763">
  <ele>1585.97</ele>
  <time>2026-08-28T19:11:09Z</time>
  <course>63.34</course>
  <speed>0.02</speed>
  <fix>3d</fix>
</trkpt>
<trkpt lat="40.0728539" lon="-105.2307763">
  <ele>1585.9</ele>
  <time>2026-08-28T19:11:09Z</time>
  <course>142.19</course>
  <speed>0.0</speed>
  <fix>3d</fix>
</trkpt>
<trkpt lat="40.072854" lon="-105.2307763">
  <ele>1585.97</ele>
  <time>2026-08-28T19:11:09Z</time>
  <course>63.4</course>
  <speed>0.02</speed>
  <fix>3d</fix>
</trkpt>
<trkpt lat="40.0728539" lon="-105.2307763">
  <ele>1585.9</ele>
  <time>2026-08-28T19:11:09Z</time>
  <course>161.1</course>
  <speed>0.0</speed>
  <fix>3d</fix>
</trkpt>
<trkpt lat="40.072854" lon="-105.2307763">
  <ele>1585.97</ele>
  <time>2026-08-28T19:11:09Z</time>
  <course>63.45</course>
  <speed>0.02</speed>
  <fix>3d</fix>
</trkpt>
<trkpt lat="40.0728539" lon="-105.2307763">
  <ele>1585.9</ele>
  <time>2026-08-28T19:11:09Z</time>
  <course>159.9</course>
  <speed>0.0</speed>
  <fix>3d</fix>
</trkpt>
<trkpt lat="40.072854" lon="-105.2307763">
  <ele>1585.97</ele>
  <time>2026-08-28T19:11:09Z</time>
  <course>63.51</course>
  <speed>0.02</speed>
  <fix>3d</fix>
</trkpt>
<trkpt lat="40.0728539" lon="-105.2307763">
  <ele>1585.9</ele>
  <time>2026-08-28T19:11:09Z</time>
  <course>157.45</course>
  <speed>0.0</speed>
  <fix>3d</fix>
</trkpt>
<trkpt lat="40.072854" lon="-105.2307763">
  <ele>1585.97</ele>
  <time>2026-08-28T19:11:09Z</time>
  <course>63.56</course>
  <speed>0.02</speed>
  <fix>3d</fix>
</trkpt>
<trkpt lat="40.0728539" lon="-105.2307763">
  <ele>1585.9</ele>
  <time>2026-08-28T19:11:09Z</time>
  <course>157.68</course>
  <speed>0.0</speed>
  <fix>3d</fix>
</trkpt>
<trkpt lat="40.072854" lon="-105.2307763">
  <ele>1585.97</ele>
  <time>2026-08-28T19:11:09Z</time>
  <course>63.6</course>
  <speed>0.02</speed>
  <fix>3d</fix>
</trkpt>
<trkpt lat="40.0728539" lon="-105.2307763">
  <ele>1585.9</ele>
  <time>2026-08-28T19:11:09Z</time>
  <course>157.3</course>
  <speed>0.0</speed>
  <fix>3d</fix>
</trkpt>
<trkpt lat="40.072854" lon="-105.2307763">
  <ele>1585.97</ele>
  <time>2026-08-28T19:11:09Z</time>
  <course>63.64</course>
  <speed>0.02</speed>
  <fix>3d</fix>
</trkpt>
<trkpt lat="40.0728539" lon="-105.2307763">
  <ele>1585.9</ele>
  <time>2026-08-28T19:11:09Z</time>
  <course>157.93</course>
  <speed>0.0</speed>
  <fix>3d</fix>
</trkpt>
<trkpt lat="40.072854" lon="-105.2307763">
  <ele>1585.97</ele>
  <time>2026-08-28T19:11:09Z</time>
  <course>63.68</course>
  <speed>0.02</speed>
  <fix>3d</fix>
</trkpt>
<trkpt lat="40.0728539" lon="-105.2307763">
  <ele>1585.9</ele>
  <time>2026-08-28T19:11:09Z</time>
  <course>157.99</course>
  <speed>0.0</speed>
  <fix>3d</fix>
</trkpt>
<trkpt lat="40.072854" lon="-105.2307763">
  <ele>1585.97</ele>
  <time>2026-08-28T19:11:09Z</time>
  <course>63.72</course>
  <speed>0.02</speed>
  <fix>3d</fix>
</trkpt>
<trkpt lat="40.0728539" lon="-105.2307763">
  <ele>1585.9</ele>
  <time>2026-08-28T19:11:09Z</time>
  <course>157.18</course>
  <speed>0.0</speed>
  <fix>3d</fix>
</trkpt>
<trkpt lat="40.072854" lon="-105.2307763">
  <ele>1585.97</ele>
  <time>2026-08-28T19:11:09Z</time>
  <course>63.75</course>
  <speed>0.02</speed>
  <fix>3d</fix>
</trkpt>
<trkpt lat="40.0728539" lon="-105.2307763">
  <ele>1585.9</ele>
  <time>2026-08-28T19:11:09Z</time>
  <course>156.72</course>
  <speed>0.0</speed>
  <fix>3d</fix>
</trkpt>
<trkpt lat="40.072854" lon="-105.2307763">
  <ele>1585.97</ele>
  <time>2026-08-28T19:11:09Z</time>
  <course>63.79</course>
  <speed>0.02</speed>
  <fix>3d</fix>
</trkpt>
<trkpt lat="40.0728539" lon="-105.2307763">
  <ele>1585.9</ele>
  <time>2026-08-28T19:11:09Z</time>
  <course>157.69</course>
  <speed>0.0</speed>
  <fix>3d</fix>
</trkpt>
<trkpt lat="40.072854" lon="-105.2307763">
  <ele>1585.97</ele>
  <time>2026-08-28T19:11:09Z</time>
  <course>63.82</course>
  <speed>0.02</speed>
  <fix>3d</fix>
</trkpt>
<trkpt lat="40.0728539" lon="-105.2307763">
  <ele>1585.9</ele>
  <time>2026-08-28T19:11:09Z</time>
  <course>157.75</course>
  <speed>0.0</speed>
  <fix>3d</fix>
</trkpt>
<trkpt lat="40.072854" lon="-105.2307763">
  <ele>1585.97</ele>
  <time>2026-08-28T19:11:09Z</time>
  <course>63.84</course>
  <speed>0.02</speed>
  <fix>3d</fix>
</trkpt>
<trkpt lat="40.0728539" lon="-105.2307763">
  <ele>1585.9</ele>
  <time>2026-08-28T19:11:09Z</time>
  <course>156.81</course>
  <speed>0.0</speed>
  <fix>3d</fix>
</trkpt>
<trkpt lat="40.072854" lon="-105.2307763">
  <ele>1585.97</ele>
  <time>2026-08-28T19:11:09Z</time>
  <course>63.87</course>
  <speed>0.02</speed>
  <fix>3d</fix>
</trkpt>
<trkpt lat="40.0728539" lon="-105.2307763">
  <ele>1585.9</ele>
  <time>2026-08-28T19:11:09Z</time>
  <course>156.24</course>
  <speed>0.0</speed>
  <fix>3d</fix>
</trkpt>
<trkpt lat="40.072854" lon="-105.2307763">
  <ele>1585.97</ele>
  <time>2026-08-28T19:11:09Z</time>
  <course>63.89</course>
  <speed>0.02</speed>
  <fix>3d</fix>
</trkpt>
<trkpt lat="40.0728539" lon="-105.2307763">
  <ele>1585.9</ele>
  <time>2026-08-28T19:11:09Z</time>
  <course>156.43</course>
  <speed>0.0</speed>
  <fix>3d</fix>
</trkpt>
<trkpt lat="40.072854" lon="-105.2307763">
  <ele>1585.97</ele>
  <time>2026-08-28T19:11:09Z</time>
  <course>63.91</course>
  <speed>0.02</speed>
  <fix>3d</fix>
</trkpt>
<trkpt lat="40.0728539" lon="-105.2307763">
  <ele>1585.9</ele>
  <time>2026-08-28T19:11:09Z</time>
  <course>156.32</course>
  <speed>0.0</speed>
  <fix>3d</fix>
</trkpt>
<trkpt lat="40.072854" lon="-105.2307763">
  <ele>1585.97</ele>
  <time>2026-08-28T19:11:09Z</time>
  <course>63.92</course>
  <speed>0.02</speed>
  <fix>3d</fix>
</trkpt>
<trkpt lat="40.0728539" lon="-105.2307763">
  <ele>1585.9</ele>
  <time>2026-08-28T19:11:09Z</time>
  <course>156.15</course>
  <speed>0.0</speed>
  <fix>3d</fix>
</trkpt>
<trkpt lat="40.072854" lon="-105.2307763">
  <ele>1585.97</ele>
  <time>2026-08-28T19:11:09Z</time>
  <course>63.94</course>
  <speed>0.02</speed>
  <fix>3d</fix>
</trkpt>
<trkpt lat="40.0728539" lon="-105.2307763">
  <ele>1585.9</ele>
  <time>2026-08-28T19:11:09Z</time>
  <course>157.13</course>
  <speed>0.0</speed>
  <fix>3d</fix>
</trkpt>
<trkpt lat="40.072854" lon="-105.2307763">
  <ele>1585.97</ele>
  <time>2026-08-28T19:11:09Z</time>
  <course>63.95</course>
  <speed>0.02</speed>
  <fix>3d</fix>
</trkpt>
<trkpt lat="40.0728539" lon="-105.2307763">
  <ele>1585.9</ele>
  <time>2026-08-28T19:11:09Z</time>
  <course>157.13</course>
  <speed>0.0</speed>
  <fix>3d</fix>
</trkpt>
<trkpt lat="40.072854" lon="-105.2307763">
  <ele>1585.97</ele>
  <time>2026-08-28T19:11:09Z</time>
  <course>63.95</course>
  <speed>0.02</speed>
  <fix>3d</fix>
</trkpt>
<trkpt lat="40.0728539" lon="-105.2307763">
  <ele>1585.9</ele>
  <time>2026-08-28T19:11:09Z</time>
  <course>155.8</course>
  <speed>0.0</speed>
  <fix>3d</fix>
</trkpt>
<trkpt lat="40.072854" lon="-105.2307763">
  <ele>1585.97</ele>
  <time>2026-08-28T19:11:09Z</time>
  <course>63.96</course>
  <speed>0.02</speed>
  <fix>3d</fix>
</trkpt>
<trkpt lat="40.0728539" lon="-105.2307763">
  <ele>1585.9</ele>
  <time>2026-08-28T19:11:09Z</time>
  <course>155.3</course>
  <speed>0.0</speed>
  <fix>3d</fix>
</trkpt>
<trkpt lat="40.072854" lon="-105.2307763">
  <ele>1585.98</ele>
  <time>2026-08-28T19:11:09Z</time>
  <course>63.96</course>
  <speed>0.02</speed>
  <fix>3d</fix>
</trkpt>
<trkpt lat="40.0728539" lon="-105.2307763">
  <ele>1585.9</ele>
  <time>2026-08-28T19:11:09Z</time>
  <course>155.55</course>
  <speed>0.0</speed>
  <fix>3d</fix>
</trkpt>
<trkpt lat="40.072854" lon="-105.2307763">
  <ele>1585.98</ele>
  <time>2026-08-28T19:11:09Z</time>
  <course>63.96</course>
  <speed>0.02</speed>
  <fix>3d</fix>
</trkpt>
<trkpt lat="40.0728539" lon="-105.2307763">
  <ele>1585.9</ele>
  <time>2026-08-28T19:11:09Z</time>
  <course>155.43</course>
  <speed>0.0</speed>
  <fix>3d</fix>
</trkpt>
<trkpt lat="40.072854" lon="-105.2307763">
  <ele>1585.98</ele>
  <time>2026-08-28T19:11:09Z</time>
  <course>63.96</course>
  <speed>0.02</speed>
  <fix>3d</fix>
</trkpt>
<trkpt lat="40.0728539" lon="-105.2307763">
  <ele>1585.9</ele>
  <time>2026-08-28T19:11:09Z</time>
  <course>155.05</course>
  <speed>0.0</speed>
  <fix>3d</fix>
</trkpt>
<trkpt lat="40.072854" lon="-105.2307763">
  <ele>1585.98</ele>
  <time>2026-08-28T19:11:09Z</time>
  <course>63.96</course>
  <speed>0.02</speed>
  <fix>3d</fix>
</trkpt>
<trkpt lat="40.0728539" lon="-105.2307763">
  <ele>1585.9</ele>
  <time>2026-08-28T19:11:10Z</time>
  <course>153.91</course>
  <speed>0.0</speed>
  <fix>3d</fix>
</trkpt>
<trkpt lat="40.072854" lon="-105.2307763">
  <ele>1585.99</ele>
  <time>2026-08-28T19:11:10Z</time>
  <course>63.96</course>
  <speed>0.02</speed>
  <fix>3d</fix>
</trkpt>
<trkpt lat="40.0728539" lon="-105.2307763">
  <ele>1585.9</ele>
  <time>2026-08-28T19:11:10Z</time>
  <course>152.08</course>
  <speed>0.0</speed>
  <fix>3d</fix>
</trkpt>
<trkpt lat="40.072854" lon="-105.2307763">
  <ele>1585.99</ele>
  <time>2026-08-28T19:11:10Z</time>
  <course>63.95</course>
  <speed>0.02</speed>
  <fix>3d</fix>
</trkpt>
<trkpt lat="40.0728539" lon="-105.2307763">
  <ele>1585.9</ele>
  <time>2026-08-28T19:11:10Z</time>
  <course>151.62</course>
  <speed>0.0</speed>
  <fix>3d</fix>
</trkpt>
<trkpt lat="40.072854" lon="-105.2307763">
  <ele>1585.99</ele>
  <time>2026-08-28T19:11:10Z</time>
  <course>63.95</course>
  <speed>0.02</speed>
  <fix>3d</fix>
</trkpt>
<trkpt lat="40.0728539" lon="-105.2307763">
  <ele>1585.9</ele>
  <time>2026-08-28T19:11:10Z</time>
  <course>151.69</course>
  <speed>0.0</speed>
  <fix>3d</fix>
</trkpt>
<trkpt lat="40.072854" lon="-105.2307763">
  <ele>1585.99</ele>
  <time>2026-08-28T19:11:10Z</time>
  <course>63.94</course>
  <speed>0.02</speed>
  <fix>3d</fix>
</trkpt>
<trkpt lat="40.0728539" lon="-105.2307763">
  <ele>1585.9</ele>
  <time>2026-08-28T19:11:10Z</time>
  <course>151.41</course>
  <speed>0.0</speed>
  <fix>3d</fix>
</trkpt>
<trkpt lat="40.072854" lon="-105.2307763">
  <ele>1585.99</ele>
  <time>2026-08-28T19:11:10Z</time>
  <course>63.94</course>
  <speed>0.02</speed>
  <fix>3d</fix>
</trkpt>
<trkpt lat="40.0728539" lon="-105.2307763">
  <ele>1585.9</ele>
  <time>2026-08-28T19:11:10Z</time>
  <course>151.13</course>
  <speed>0.0</speed>
  <fix>3d</fix>
</trkpt>
<trkpt lat="40.072854" lon="-105.2307763">
  <ele>1585.99</ele>
  <time>2026-08-28T19:11:10Z</time>
  <course>63.93</course>
  <speed>0.02</speed>
  <fix>3d</fix>
</trkpt>
<trkpt lat="40.0728539" lon="-105.2307763">
  <ele>1585.9</ele>
  <time>2026-08-28T19:11:10Z</time>
  <course>150.92</course>
  <speed>0.0</speed>
  <fix>3d</fix>
</trkpt>
<trkpt lat="40.072854" lon="-105.2307763">
  <ele>1585.99</ele>
  <time>2026-08-28T19:11:10Z</time>
  <course>63.93</course>
  <speed>0.02</speed>
  <fix>3d</fix>
</trkpt>
<trkpt lat="40.0728539" lon="-105.2307763">
  <ele>1585.9</ele>
  <time>2026-08-28T19:11:10Z</time>
  <course>150.72</course>
  <speed>0.0</speed>
  <fix>3d</fix>
</trkpt>
<trkpt lat="40.072854" lon="-105.2307763">
  <ele>1585.99</ele>
  <time>2026-08-28T19:11:10Z</time>
  <course>63.92</course>
  <speed>0.02</speed>
  <fix>3d</fix>
</trkpt>
<trkpt lat="40.0728539" lon="-105.2307763">
  <ele>1585.9</ele>
  <time>2026-08-28T19:11:10Z</time>
  <course>150.51</course>
  <speed>0.0</speed>
  <fix>3d</fix>
</trkpt>
<trkpt lat="40.072854" lon="-105.2307763">
  <ele>1585.99</ele>
  <time>2026-08-28T19:11:10Z</time>
  <course>63.91</course>
  <speed>0.02</speed>
  <fix>3d</fix>
</trkpt>
<trkpt lat="40.0728539" lon="-105.2307763">
  <ele>1585.9</ele>
  <time>2026-08-28T19:11:10Z</time>
  <course>155.71</course>
  <speed>0.0</speed>
  <fix>3d</fix>
</trkpt>
<trkpt lat="40.072854" lon="-105.2307763">
  <ele>1585.99</ele>
  <time>2026-08-28T19:11:10Z</time>
  <course>63.9</course>
  <speed>0.02</speed>
  <fix>3d</fix>
</trkpt>
<trkpt lat="40.0728539" lon="-105.2307763">
  <ele>1585.9</ele>
  <time>2026-08-28T19:11:10Z</time>
  <course>194.89</course>
  <speed>0.0</speed>
  <fix>3d</fix>
</trkpt>
<trkpt lat="40.072854" lon="-105.2307763">
  <ele>1585.99</ele>
  <time>2026-08-28T19:11:10Z</time>
  <course>63.9</course>
  <speed>0.02</speed>
  <fix>3d</fix>
</trkpt>
<trkpt lat="40.0728539" lon="-105.2307763">
  <ele>1585.9</ele>
  <time>2026-08-28T19:11:10Z</time>
  <course>314.18</course>
  <speed>0.0</speed>
  <fix>3d</fix>
</trkpt>
<trkpt lat="40.072854" lon="-105.2307763">
  <ele>1585.99</ele>
  <time>2026-08-28T19:11:10Z</time>
  <course>63.89</course>
  <speed>0.02</speed>
  <fix>3d</fix>
</trkpt>
<trkpt lat="40.0728539" lon="-105.2307763">
  <ele>1585.9</ele>
  <time>2026-08-28T19:11:10Z</time>
  <course>352.31</course>
  <speed>0.0</speed>
  <fix>3d</fix>
</trkpt>
<trkpt lat="40.072854" lon="-105.2307763">
  <ele>1585.98</ele>
  <time>2026-08-28T19:11:10Z</time>
  <course>63.88</course>
  <speed>0.02</speed>
  <fix>3d</fix>
</trkpt>
<trkpt lat="40.0728539" lon="-105.2307763">
  <ele>1585.9</ele>
  <time>2026-08-28T19:11:10Z</time>
  <course>149.8</course>
  <speed>0.0</speed>
  <fix>3d</fix>
</trkpt>
<trkpt lat="40.072854" lon="-105.2307763">
  <ele>1585.98</ele>
  <time>2026-08-28T19:11:10Z</time>
  <course>63.88</course>
  <speed>0.02</speed>
  <fix>3d</fix>
</trkpt>
<trkpt lat="40.0728539" lon="-105.2307763">
  <ele>1585.9</ele>
  <time>2026-08-28T19:11:10Z</time>
  <course>153.04</course>
  <speed>0.0</speed>
  <fix>3d</fix>
</trkpt>
<trkpt lat="40.072854" lon="-105.2307763">
  <ele>1585.98</ele>
  <time>2026-08-28T19:11:10Z</time>
  <course>63.87</course>
  <speed>0.02</speed>
  <fix>3d</fix>
</trkpt>
<trkpt lat="40.0728539" lon="-105.2307763">
  <ele>1585.9</ele>
  <time>2026-08-28T19:11:10Z</time>
  <course>150.59</course>
  <speed>0.0</speed>
  <fix>3d</fix>
</trkpt>
<trkpt lat="40.072854" lon="-105.2307763">
  <ele>1585.98</ele>
  <time>2026-08-28T19:11:10Z</time>
  <course>63.86</course>
  <speed>0.02</speed>
  <fix>3d</fix>
</trkpt>
<trkpt lat="40.0728539" lon="-105.2307763">
  <ele>1585.9</ele>
  <time>2026-08-28T19:11:10Z</time>
  <course>150.28</course>
  <speed>0.0</speed>
  <fix>3d</fix>
</trkpt>
<trkpt lat="40.072854" lon="-105.2307763">
  <ele>1585.98</ele>
  <time>2026-08-28T19:11:10Z</time>
  <course>63.85</course>
  <speed>0.02</speed>
  <fix>3d</fix>
</trkpt>
<trkpt lat="40.0728539" lon="-105.2307763">
  <ele>1585.9</ele>
  <time>2026-08-28T19:11:10Z</time>
  <course>150.6</course>
  <speed>0.0</speed>
  <fix>3d</fix>
</trkpt>
<trkpt lat="40.072854" lon="-105.2307763">
  <ele>1585.98</ele>
  <time>2026-08-28T19:11:10Z</time>
  <course>63.84</course>
  <speed>0.02</speed>
  <fix>3d</fix>
</trkpt>
<trkpt lat="40.0728539" lon="-105.2307763">
  <ele>1585.9</ele>
  <time>2026-08-28T19:11:10Z</time>
  <course>150.48</course>
  <speed>0.0</speed>
  <fix>3d</fix>
</trkpt>
<trkpt lat="40.072854" lon="-105.2307763">
  <ele>1585.99</ele>
  <time>2026-08-28T19:11:10Z</time>
  <course>63.83</course>
  <speed>0.02</speed>
  <fix>3d</fix>
</trkpt>
<trkpt lat="40.0728539" lon="-105.2307763">
  <ele>1585.9</ele>
  <time>2026-08-28T19:11:10Z</time>
  <course>150.32</course>
  <speed>0.0</speed>
  <fix>3d</fix>
</trkpt>
<trkpt lat="40.072854" lon="-105.2307763">
  <ele>1585.99</ele>
  <time>2026-08-28T19:11:10Z</time>
  <course>63.82</course>
  <speed>0.02</speed>
  <fix>3d</fix>
</trkpt>
<trkpt lat="40.0728539" lon="-105.2307763">
  <ele>1585.9</ele>
  <time>2026-08-28T19:11:10Z</time>
  <course>150.23</course>
  <speed>0.0</speed>
  <fix>3d</fix>
</trkpt>
<trkpt lat="40.072854" lon="-105.2307763">
  <ele>1585.99</ele>
  <time>2026-08-28T19:11:10Z</time>
  <course>63.81</course>
  <speed>0.02</speed>
  <fix>3d</fix>
</trkpt>
<trkpt lat="40.0728539" lon="-105.2307763">
  <ele>1585.9</ele>
  <time>2026-08-28T19:11:10Z</time>
  <course>150.16</course>
  <speed>0.0</speed>
  <fix>3d</fix>
</trkpt>
<trkpt lat="40.072854" lon="-105.2307763">
  <ele>1585.99</ele>
  <time>2026-08-28T19:11:10Z</time>
  <course>63.8</course>
  <speed>0.02</speed>
  <fix>3d</fix>
</trkpt>
<trkpt lat="40.0728539" lon="-105.2307763">
  <ele>1585.9</ele>
  <time>2026-08-28T19:11:10Z</time>
  <course>150.07</course>
  <speed>0.0</speed>
  <fix>3d</fix>
</trkpt>
<trkpt lat="40.072854" lon="-105.2307763">
  <ele>1585.98</ele>
  <time>2026-08-28T19:11:10Z</time>
  <course>63.79</course>
  <speed>0.02</speed>
  <fix>3d</fix>
</trkpt>
<trkpt lat="40.0728539" lon="-105.2307763">
  <ele>1585.9</ele>
  <time>2026-08-28T19:11:10Z</time>
  <course>149.98</course>
  <speed>0.0</speed>
  <fix>3d</fix>
</trkpt>
<trkpt lat="40.072854" lon="-105.2307763">
  <ele>1585.98</ele>
  <time>2026-08-28T19:11:10Z</time>
  <course>63.78</course>
  <speed>0.02</speed>
  <fix>3d</fix>
</trkpt>
<trkpt lat="40.0728539" lon="-105.2307763">
  <ele>1585.9</ele>
  <time>2026-08-28T19:11:10Z</time>
  <course>149.89</course>
  <speed>0.0</speed>
  <fix>3d</fix>
</trkpt>
<trkpt lat="40.072854" lon="-105.2307763">
  <ele>1585.98</ele>
  <time>2026-08-28T19:11:10Z</time>
  <course>63.77</course>
  <speed>0.02</speed>
  <fix>3d</fix>
</trkpt>
<trkpt lat="40.0728539" lon="-105.2307763">
  <ele>1585.9</ele>
  <time>2026-08-28T19:11:10Z</time>
  <course>149.82</course>
  <speed>0.0</speed>
  <fix>3d</fix>
</trkpt>
<trkpt lat="40.072854" lon="-105.2307763">
  <ele>1585.98</ele>
  <time>2026-08-28T19:11:10Z</time>
  <course>63.75</course>
  <speed>0.02</speed>
  <fix>3d</fix>
</trkpt>
<trkpt lat="40.0728539" lon="-105.2307763">
  <ele>1585.9</ele>
  <time>2026-08-28T19:11:10Z</time>
  <course>149.73</course>
  <speed>0.0</speed>
  <fix>3d</fix>
</trkpt>
<trkpt lat="40.072854" lon="-105.2307763">
  <ele>1585.98</ele>
  <time>2026-08-28T19:11:10Z</time>
  <course>63.74</course>
  <speed>0.02</speed>
  <fix>3d</fix>
</trkpt>
<trkpt lat="40.0728539" lon="-105.2307763">
  <ele>1585.9</ele>
  <time>2026-08-28T19:11:10Z</time>
  <course>341.1</course>
  <speed>0.0</speed>
  <fix>3d</fix>
</trkpt>
<trkpt lat="40.072854" lon="-105.2307763">
  <ele>1585.98</ele>
  <time>2026-08-28T19:11:10Z</time>
  <course>63.73</course>
  <speed>0.02</speed>
  <fix>3d</fix>
</trkpt>
<trkpt lat="40.0728539" lon="-105.2307763">
  <ele>1585.9</ele>
  <time>2026-08-28T19:11:10Z</time>
  <course>338.87</course>
  <speed>0.0</speed>
  <fix>3d</fix>
</trkpt>
<trkpt lat="40.072854" lon="-105.2307763">
  <ele>1585.97</ele>
  <time>2026-08-28T19:11:10Z</time>
  <course>63.72</course>
  <speed>0.02</speed>
  <fix>3d</fix>
</trkpt>
<trkpt lat="40.0728539" lon="-105.2307763">
  <ele>1585.9</ele>
  <time>2026-08-28T19:11:10Z</time>
  <course>145.16</course>
  <speed>0.0</speed>
  <fix>3d</fix>
</trkpt>
<trkpt lat="40.072854" lon="-105.2307763">
  <ele>1585.97</ele>
  <time>2026-08-28T19:11:10Z</time>
  <course>63.71</course>
  <speed>0.02</speed>
  <fix>3d</fix>
</trkpt>
<trkpt lat="40.0728539" lon="-105.2307763">
  <ele>1585.9</ele>
  <time>2026-08-28T19:11:10Z</time>
  <course>151.38</course>
  <speed>0.0</speed>
  <fix>3d</fix>
</trkpt>
<trkpt lat="40.072854" lon="-105.2307763">
  <ele>1585.97</ele>
  <time>2026-08-28T19:11:10Z</time>
  <course>63.69</course>
  <speed>0.02</speed>
  <fix>3d</fix>
</trkpt>
<trkpt lat="40.0728539" lon="-105.2307763">
  <ele>1585.9</ele>
  <time>2026-08-28T19:11:10Z</time>
  <course>149.26</course>
  <speed>0.0</speed>
  <fix>3d</fix>
</trkpt>
<trkpt lat="40.072854" lon="-105.2307763">
  <ele>1585.97</ele>
  <time>2026-08-28T19:11:10Z</time>
  <course>63.68</course>
  <speed>0.02</speed>
  <fix>3d</fix>
</trkpt>
<trkpt lat="40.0728539" lon="-105.2307763">
  <ele>1585.9</ele>
  <time>2026-08-28T19:11:10Z</time>
  <course>148.75</course>
  <speed>0.0</speed>
  <fix>3d</fix>
</trkpt>
<trkpt lat="40.072854" lon="-105.2307763">
  <ele>1585.97</ele>
  <time>2026-08-28T19:11:10Z</time>
  <course>63.67</course>
  <speed>0.02</speed>
  <fix>3d</fix>
</trkpt>
<trkpt lat="40.0728539" lon="-105.2307763">
  <ele>1585.9</ele>
  <time>2026-08-28T19:11:10Z</time>
  <course>149.14</course>
  <speed>0.0</speed>
  <fix>3d</fix>
</trkpt>
<trkpt lat="40.072854" lon="-105.2307763">
  <ele>1585.97</ele>
  <time>2026-08-28T19:11:10Z</time>
  <course>63.65</course>
  <speed>0.02</speed>
  <fix>3d</fix>
</trkpt>
<trkpt lat="40.0728539" lon="-105.2307763">
  <ele>1585.9</ele>
  <time>2026-08-28T19:11:10Z</time>
  <course>149.06</course>
  <speed>0.0</speed>
  <fix>3d</fix>
</trkpt>
<trkpt lat="40.072854" lon="-105.2307763">
  <ele>1585.97</ele>
  <time>2026-08-28T19:11:10Z</time>
  <course>63.64</course>
  <speed>0.02</speed>
  <fix>3d</fix>
</trkpt>
<trkpt lat="40.0728539" lon="-105.2307763">
  <ele>1585.9</ele>
  <time>2026-08-28T19:11:10Z</time>
  <course>148.92</course>
  <speed>0.0</speed>
  <fix>3d</fix>
</trkpt>
<trkpt lat="40.072854" lon="-105.2307763">
  <ele>1585.96</ele>
  <time>2026-08-28T19:11:10Z</time>
  <course>63.63</course>
  <speed>0.02</speed>
  <fix>3d</fix>
</trkpt>
<trkpt lat="40.0728539" lon="-105.2307763">
  <ele>1585.9</ele>
  <time>2026-08-28T19:11:10Z</time>
  <course>148.85</course>
  <speed>0.0</speed>
  <fix>3d</fix>
</trkpt>
<trkpt lat="40.072854" lon="-105.2307763">
  <ele>1585.96</ele>
  <time>2026-08-28T19:11:10Z</time>
  <course>63.61</course>
  <speed>0.02</speed>
  <fix>3d</fix>
</trkpt>
<trkpt lat="40.0728539" lon="-105.2307763">
  <ele>1585.9</ele>
  <time>2026-08-28T19:11:10Z</time>
  <course>148.78</course>
  <speed>0.0</speed>
  <fix>3d</fix>
</trkpt>
<trkpt lat="40.072854" lon="-105.2307763">
  <ele>1585.96</ele>
  <time>2026-08-28T19:11:10Z</time>
  <course>63.6</course>
  <speed>0.02</speed>
  <fix>3d</fix>
</trkpt>
<trkpt lat="40.0728539" lon="-105.2307763">
  <ele>1585.9</ele>
  <time>2026-08-28T19:11:10Z</time>
  <course>148.69</course>
  <speed>0.0</speed>
  <fix>3d</fix>
</trkpt>
<trkpt lat="40.072854" lon="-105.2307763">
  <ele>1585.96</ele>
  <time>2026-08-28T19:11:10Z</time>
  <course>63.58</course>
  <speed>0.02</speed>
  <fix>3d</fix>
</trkpt>
<trkpt lat="40.0728539" lon="-105.2307763">
  <ele>1585.9</ele>
  <time>2026-08-28T19:11:10Z</time>
  <course>340.17</course>
  <speed>0.0</speed>
  <fix>3d</fix>
</trkpt>
<trkpt lat="40.072854" lon="-105.2307763">
  <ele>1585.96</ele>
  <time>2026-08-28T19:11:10Z</time>
  <course>63.56</course>
  <speed>0.02</speed>
  <fix>3d</fix>
</trkpt>
<trkpt lat="40.0728539" lon="-105.2307763">
  <ele>1585.9</ele>
  <time>2026-08-28T19:11:10Z</time>
  <course>340.47</course>
  <speed>0.0</speed>
  <fix>3d</fix>
</trkpt>
<trkpt lat="40.072854" lon="-105.2307763">
  <ele>1585.96</ele>
  <time>2026-08-28T19:11:10Z</time>
  <course>63.55</course>
  <speed>0.02</speed>
  <fix>3d</fix>
</trkpt>
<trkpt lat="40.0728539" lon="-105.2307763">
  <ele>1585.9</ele>
  <time>2026-08-28T19:11:10Z</time>
  <course>150.39</course>
  <speed>0.0</speed>
  <fix>3d</fix>
</trkpt>
<trkpt lat="40.072854" lon="-105.2307763">
  <ele>1585.96</ele>
  <time>2026-08-28T19:11:10Z</time>
  <course>63.54</course>
  <speed>0.02</speed>
  <fix>3d</fix>
</trkpt>
<trkpt lat="40.0728539" lon="-105.2307763">
  <ele>1585.9</ele>
  <time>2026-08-28T19:11:10Z</time>
  <course>149.57</course>
  <speed>0.0</speed>
  <fix>3d</fix>
</trkpt>
<trkpt lat="40.072854" lon="-105.2307763">
  <ele>1585.97</ele>
  <time>2026-08-28T19:11:10Z</time>
  <course>63.52</course>
  <speed>0.02</speed>
  <fix>3d</fix>
</trkpt>
<trkpt lat="40.0728539" lon="-105.2307763">
  <ele>1585.9</ele>
  <time>2026-08-28T19:11:10Z</time>
  <course>147.65</course>
  <speed>0.0</speed>
  <fix>3d</fix>
</trkpt>
<trkpt lat="40.072854" lon="-105.2307763">
  <ele>1585.97</ele>
  <time>2026-08-28T19:11:10Z</time>
  <course>63.51</course>
  <speed>0.02</speed>
  <fix>3d</fix>
</trkpt>
<trkpt lat="40.0728539" lon="-105.2307763">
  <ele>1585.9</ele>
  <time>2026-08-28T19:11:10Z</time>
  <course>148.05</course>
  <speed>0.0</speed>
  <fix>3d</fix>
</trkpt>
<trkpt lat="40.072854" lon="-105.2307763">
  <ele>1585.97</ele>
  <time>2026-08-28T19:11:10Z</time>
  <course>63.49</course>
  <speed>0.02</speed>
  <fix>3d</fix>
</trkpt>
<trkpt lat="40.0728539" lon="-105.2307763">
  <ele>1585.9</ele>
  <time>2026-08-28T19:11:10Z</time>
  <course>148.21</course>
  <speed>0.0</speed>
  <fix>3d</fix>
</trkpt>
<trkpt lat="40.072854" lon="-105.2307763">
  <ele>1585.97</ele>
  <time>2026-08-28T19:11:10Z</time>
  <course>63.47</course>
  <speed>0.02</speed>
  <fix>3d</fix>
</trkpt>
<trkpt lat="40.0728539" lon="-105.2307763">
  <ele>1585.9</ele>
  <time>2026-08-28T19:11:10Z</time>
  <course>148.04</course>
  <speed>0.0</speed>
  <fix>3d</fix>
</trkpt>
<trkpt lat="40.072854" lon="-105.2307763">
  <ele>1585.96</ele>
  <time>2026-08-28T19:11:10Z</time>
  <course>63.46</course>
  <speed>0.02</speed>
  <fix>3d</fix>
</trkpt>
<trkpt lat="40.0728539" lon="-105.2307763">
  <ele>1585.9</ele>
  <time>2026-08-28T19:11:10Z</time>
  <course>147.94</course>
  <speed>0.0</speed>
  <fix>3d</fix>
</trkpt>
<trkpt lat="40.072854" lon="-105.2307763">
  <ele>1585.96</ele>
  <time>2026-08-28T19:11:10Z</time>
  <course>63.44</course>
  <speed>0.02</speed>
  <fix>3d</fix>
</trkpt>
<trkpt lat="40.0728539" lon="-105.2307763">
  <ele>1585.9</ele>
  <time>2026-08-28T19:11:10Z</time>
  <course>147.88</course>
  <speed>0.0</speed>
  <fix>3d</fix>
</trkpt>
<trkpt lat="40.072854" lon="-105.2307763">
  <ele>1585.96</ele>
  <time>2026-08-28T19:11:10Z</time>
  <course>63.43</course>
  <speed>0.02</speed>
  <fix>3d</fix>
</trkpt>
<trkpt lat="40.0728539" lon="-105.2307763">
  <ele>1585.9</ele>
  <time>2026-08-28T19:11:10Z</time>
  <course>145.65</course>
  <speed>0.0</speed>
  <fix>3d</fix>
</trkpt>
<trkpt lat="40.072854" lon="-105.2307763">
  <ele>1585.96</ele>
  <time>2026-08-28T19:11:10Z</time>
  <course>63.41</course>
  <speed>0.02</speed>
  <fix>3d</fix>
</trkpt>
<trkpt lat="40.0728539" lon="-105.2307763">
  <ele>1585.9</ele>
  <time>2026-08-28T19:11:10Z</time>
  <course>338.71</course>
  <speed>0.0</speed>
  <fix>3d</fix>
</trkpt>
<trkpt lat="40.072854" lon="-105.2307763">
  <ele>1585.96</ele>
  <time>2026-08-28T19:11:10Z</time>
  <course>63.39</course>
  <speed>0.02</speed>
  <fix>3d</fix>
</trkpt>
<trkpt lat="40.0728539" lon="-105.2307763">
  <ele>1585.9</ele>
  <time>2026-08-28T19:11:10Z</time>
  <course>341.32</course>
  <speed>0.0</speed>
  <fix>3d</fix>
</trkpt>
<trkpt lat="40.072854" lon="-105.2307763">
  <ele>1585.97</ele>
  <time>2026-08-28T19:11:10Z</time>
  <course>63.38</course>
  <speed>0.02</speed>
  <fix>3d</fix>
</trkpt>
<trkpt lat="40.0728539" lon="-105.2307763">
  <ele>1585.9</ele>
  <time>2026-08-28T19:11:10Z</time>
  <course>149.81</course>
  <speed>0.0</speed>
  <fix>3d</fix>
</trkpt>
<trkpt lat="40.072854" lon="-105.2307763">
  <ele>1585.97</ele>
  <time>2026-08-28T19:11:10Z</time>
  <course>63.36</course>
  <speed>0.02</speed>
  <fix>3d</fix>
</trkpt>
<trkpt lat="40.0728539" lon="-105.2307763">
  <ele>1585.9</ele>
  <time>2026-08-28T19:11:10Z</time>
  <course>148.43</course>
  <speed>0.0</speed>
  <fix>3d</fix>
</trkpt>
<trkpt lat="40.072854" lon="-105.2307763">
  <ele>1585.97</ele>
  <time>2026-08-28T19:11:10Z</time>
  <course>63.34</course>
  <speed>0.02</speed>
  <fix>3d</fix>
</trkpt>
<trkpt lat="40.0728539" lon="-105.2307763">
  <ele>1585.9</ele>
  <time>2026-08-28T19:11:10Z</time>
  <course>146.65</course>
  <speed>0.0</speed>
  <fix>3d</fix>
</trkpt>
<trkpt lat="40.072854" lon="-105.2307763">
  <ele>1585.97</ele>
  <time>2026-08-28T19:11:10Z</time>
  <course>63.33</course>
  <speed>0.02</speed>
  <fix>3d</fix>
</trkpt>
<trkpt lat="40.0728539" lon="-105.2307763">
  <ele>1585.9</ele>
  <time>2026-08-28T19:11:10Z</time>
  <course>147.2</course>
  <speed>0.0</speed>
  <fix>3d</fix>
</trkpt>
<trkpt lat="40.072854" lon="-105.2307763">
  <ele>1585.97</ele>
  <time>2026-08-28T19:11:10Z</time>
  <course>63.31</course>
  <speed>0.02</speed>
  <fix>3d</fix>
</trkpt>
<trkpt lat="40.0728539" lon="-105.2307763">
  <ele>1585.9</ele>
  <time>2026-08-28T19:11:10Z</time>
  <course>147.31</course>
  <speed>0.0</speed>
  <fix>3d</fix>
</trkpt>
<trkpt lat="40.072854" lon="-105.2307763">
  <ele>1585.98</ele>
  <time>2026-08-28T19:11:10Z</time>
  <course>63.29</course>
  <speed>0.02</speed>
  <fix>3d</fix>
</trkpt>
<trkpt lat="40.0728539" lon="-105.2307763">
  <ele>1585.9</ele>
  <time>2026-08-28T19:11:10Z</time>
  <course>147.13</course>
  <speed>0.0</speed>
  <fix>3d</fix>
</trkpt>
<trkpt lat="40.072854" lon="-105.2307763">
  <ele>1585.98</ele>
  <time>2026-08-28T19:11:10Z</time>
  <course>63.27</course>
  <speed>0.02</speed>
  <fix>3d</fix>
</trkpt>
<trkpt lat="40.0728539" lon="-105.2307763">
  <ele>1585.9</ele>
  <time>2026-08-28T19:11:10Z</time>
  <course>146.75</course>
  <speed>0.0</speed>
  <fix>3d</fix>
</trkpt>
<trkpt lat="40.072854" lon="-105.2307763">
  <ele>1585.98</ele>
  <time>2026-08-28T19:11:10Z</time>
  <course>63.26</course>
  <speed>0.02</speed>
  <fix>3d</fix>
</trkpt>
<trkpt lat="40.0728539" lon="-105.2307763">
  <ele>1585.9</ele>
  <time>2026-08-28T19:11:10Z</time>
  <course>337.78</course>
  <speed>0.0</speed>
  <fix>3d</fix>
</trkpt>
<trkpt lat="40.072854" lon="-105.2307763">
  <ele>1585.98</ele>
  <time>2026-08-28T19:11:10Z</time>
  <course>63.24</course>
  <speed>0.02</speed>
  <fix>3d</fix>
</trkpt>
<trkpt lat="40.0728539" lon="-105.2307763">
  <ele>1585.9</ele>
  <time>2026-08-28T19:11:10Z</time>
  <course>338.61</course>
  <speed>0.0</speed>
  <fix>3d</fix>
</trkpt>
<trkpt lat="40.072854" lon="-105.2307763">
  <ele>1585.97</ele>
  <time>2026-08-28T19:11:10Z</time>
  <course>63.22</course>
  <speed>0.02</speed>
  <fix>3d</fix>
</trkpt>
<trkpt lat="40.0728539" lon="-105.2307763">
  <ele>1585.9</ele>
  <time>2026-08-28T19:11:10Z</time>
  <course>149.14</course>
  <speed>0.0</speed>
  <fix>3d</fix>
</trkpt>
<trkpt lat="40.072854" lon="-105.2307763">
  <ele>1585.97</ele>
  <time>2026-08-28T19:11:10Z</time>
  <course>63.2</course>
  <speed>0.02</speed>
  <fix>3d</fix>
</trkpt>
<trkpt lat="40.0728539" lon="-105.2307763">
  <ele>1585.9</ele>
  <time>2026-08-28T19:11:10Z</time>
  <course>147.86</course>
  <speed>0.0</speed>
  <fix>3d</fix>
</trkpt>
<trkpt lat="40.072854" lon="-105.2307763">
  <ele>1585.98</ele>
  <time>2026-08-28T19:11:10Z</time>
  <course>63.18</course>
  <speed>0.02</speed>
  <fix>3d</fix>
</trkpt>
<trkpt lat="40.0728539" lon="-105.2307763">
  <ele>1585.9</ele>
  <time>2026-08-28T19:11:10Z</time>
  <course>139.7</course>
  <speed>0.0</speed>
  <fix>3d</fix>
</trkpt>
<trkpt lat="40.072854" lon="-105.2307763">
  <ele>1585.98</ele>
  <time>2026-08-28T19:11:10Z</time>
  <course>63.17</course>
  <speed>0.02</speed>
  <fix>3d</fix>
</trkpt>
<trkpt lat="40.0728539" lon="-105.2307763">
  <ele>1585.9</ele>
  <time>2026-08-28T19:11:10Z</time>
  <course>129.68</course>
  <speed>0.0</speed>
  <fix>3d</fix>
</trkpt>
<trkpt lat="40.072854" lon="-105.2307763">
  <ele>1585.98</ele>
  <time>2026-08-28T19:11:10Z</time>
  <course>63.16</course>
  <speed>0.02</speed>
  <fix>3d</fix>
</trkpt>
<trkpt lat="40.0728539" lon="-105.2307763">
  <ele>1585.9</ele>
  <time>2026-08-28T19:11:10Z</time>
  <course>128.93</course>
  <speed>0.0</speed>
  <fix>3d</fix>
</trkpt>
<trkpt lat="40.072854" lon="-105.2307763">
  <ele>1585.98</ele>
  <time>2026-08-28T19:11:10Z</time>
  <course>63.15</course>
  <speed>0.02</speed>
  <fix>3d</fix>
</trkpt>
<trkpt lat="40.0728539" lon="-105.2307763">
  <ele>1585.9</ele>
  <time>2026-08-28T19:11:10Z</time>
  <course>147.13</course>
  <speed>0.0</speed>
  <fix>3d</fix>
</trkpt>
<trkpt lat="40.072854" lon="-105.2307763">
  <ele>1585.98</ele>
  <time>2026-08-28T19:11:10Z</time>
  <course>63.15</course>
  <speed>0.02</speed>
  <fix>3d</fix>
</trkpt>
<trkpt lat="40.072854" lon="-105.2307763">
  <ele>1585.98</ele>
  <time>2026-08-28T19:11:10Z</time>
  <course>63.12</course>
  <speed>0.02</speed>
  <fix>3d</fix>
</trkpt>
<trkpt lat="40.0728539" lon="-105.2307763">
  <ele>1585.9</ele>
  <time>2026-08-28T19:11:10Z</time>
  <course>149.8</course>
  <speed>0.0</speed>
  <fix>3d</fix>
</trkpt>
<trkpt lat="40.072854" lon="-105.2307763">
  <ele>1585.98</ele>
  <time>2026-08-28T19:11:10Z</time>
  <course>63.12</course>
  <speed>0.02</speed>
  <fix>3d</fix>
</trkpt>
<trkpt lat="40.072854" lon="-105.2307763">
  <ele>1585.98</ele>
  <time>2026-08-28T19:11:10Z</time>
  <course>63.08</course>
  <speed>0.02</speed>
  <fix>3d</fix>
</trkpt>
<trkpt lat="40.0728539" lon="-105.2307763">
  <ele>1585.9</ele>
  <time>2026-08-28T19:11:10Z</time>
  <course>123.36</course>
  <speed>0.0</speed>
  <fix>3d</fix>
</trkpt>
<trkpt lat="40.072854" lon="-105.2307763">
  <ele>1585.98</ele>
  <time>2026-08-28T19:11:10Z</time>
  <course>63.08</course>
  <speed>0.02</speed>
  <fix>3d</fix>
</trkpt>
<trkpt lat="40.072854" lon="-105.2307763">
  <ele>1586.0</ele>
  <time>2026-08-28T19:11:10Z</time>
  <course>63.02</course>
  <speed>0.02</speed>
  <fix>3d</fix>
</trkpt>
<trkpt lat="40.0728539" lon="-105.2307763">
  <ele>1585.9</ele>
  <time>2026-08-28T19:11:10Z</time>
  <course>339.8</course>
  <speed>0.0</speed>
  <fix>3d</fix>
</trkpt>
<trkpt lat="40.072854" lon="-105.2307763">
  <ele>1586.0</ele>
  <time>2026-08-28T19:11:10Z</time>
  <course>63.02</course>
  <speed>0.02</speed>
  <fix>3d</fix>
</trkpt>
<trkpt lat="40.072854" lon="-105.2307763">
  <ele>1586.05</ele>
  <time>2026-08-28T19:11:10Z</time>
  <course>62.94</course>
  <speed>0.02</speed>
  <fix>3d</fix>
</trkpt>
<trkpt lat="40.0728539" lon="-105.2307763">
  <ele>1585.93</ele>
  <time>2026-08-28T19:11:10Z</time>
  <course>113.82</course>
  <speed>0.0</speed>
  <fix>3d</fix>
</trkpt>
<trkpt lat="40.072854" lon="-105.2307763">
  <ele>1586.06</ele>
  <time>2026-08-28T19:11:10Z</time>
  <course>62.93</course>
  <speed>0.02</speed>
  <fix>3d</fix>
</trkpt>
<trkpt lat="40.072854" lon="-105.2307763">
  <ele>1586.1</ele>
  <time>2026-08-28T19:11:10Z</time>
  <course>62.85</course>
  <speed>0.02</speed>
  <fix>3d</fix>
</trkpt>
<trkpt lat="40.0728539" lon="-105.2307763">
  <ele>1585.98</ele>
  <time>2026-08-28T19:11:10Z</time>
  <course>123.98</course>
  <speed>0.0</speed>
  <fix>3d</fix>
</trkpt>
<trkpt lat="40.072854" lon="-105.2307763">
  <ele>1586.11</ele>
  <time>2026-08-28T19:11:10Z</time>
  <course>62.38</course>
  <speed>0.02</speed>
  <fix>3d</fix>
</trkpt>
<trkpt lat="40.0728541" lon="-105.2307763">
  <ele>1586.24</ele>
  <time>2026-08-28T19:11:10Z</time>
  <course>51.75</course>
  <speed>0.09848857801796104</speed>
  <fix>3d</fix>
</trkpt>
<trkpt lat="40.0728539" lon="-105.2307763">
  <ele>1586.06</ele>
  <time>2026-08-28T19:11:10Z</time>
  <course>328.31</course>
  <speed>0.01</speed>
  <fix>3d</fix>
</trkpt>
<trkpt lat="40.0728541" lon="-105.2307763">
  <ele>1586.27</ele>
  <time>2026-08-28T19:11:10Z</time>
  <course>50.55</course>
  <speed>0.11661903789690602</speed>
  <fix>3d</fix>
</trkpt>
<trkpt lat="40.0728543" lon="-105.2307765">
  <ele>1586.48</ele>
  <time>2026-08-28T19:11:10Z</time>
  <course>48.19</course>
  <speed>0.194164878389476</speed>
  <fix>3d</fix>
</trkpt>
<trkpt lat="40.0728539" lon="-105.2307763">
  <ele>1586.23</ele>
  <time>2026-08-28T19:11:10Z</time>
  <course>321.41</course>
  <speed>0.1</speed>
  <fix>3d</fix>
</trkpt>
<trkpt lat="40.0728543" lon="-105.2307765">
  <ele>1586.5</ele>
  <time>2026-08-28T19:11:10Z</time>
  <course>48.12</course>
  <speed>0.2</speed>
  <fix>3d</fix>
</trkpt>
<trkpt lat="40.0728545" lon="-105.2307768">
  <ele>1586.61</ele>
  <time>2026-08-28T19:11:10Z</time>
  <course>47.26</course>
  <speed>0.22671568097509268</speed>
  <fix>3d</fix>
</trkpt>
<trkpt lat="40.0728541" lon="-105.2307765">
  <ele>1586.42</ele>
  <time>2026-08-28T19:11:10Z</time>
  <course>317.54</course>
  <speed>0.19</speed>
  <fix>3d</fix>
</trkpt>
<trkpt lat="40.0728545" lon="-105.2307768">
  <ele>1586.62</ele>
  <time>2026-08-28T19:11:10Z</time>
  <course>47.24</course>
  <speed>0.22671568097509268</speed>
  <fix>3d</fix>
</trkpt>
<trkpt lat="40.0728548" lon="-105.2307771">
  <ele>1586.72</ele>
  <time>2026-08-28T19:11:10Z</time>
  <course>46.07</course>
  <speed>0.24758836806279894</speed>
  <fix>3d</fix>
</trkpt>
<trkpt lat="40.0728544" lon="-105.2307769">
  <ele>1586.56</ele>
  <time>2026-08-28T19:11:10Z</time>
  <course>312.78</course>
  <speed>0.22</speed>
  <fix>3d</fix>
</trkpt>
<trkpt lat="40.0728548" lon="-105.2307772">
  <ele>1586.73</ele>
  <time>2026-08-28T19:11:10Z</time>
  <course>45.95</course>
  <speed>0.24758836806279894</speed>
  <fix>3d</fix>
</trkpt>
<trkpt lat="40.072855" lon="-105.2307776">
  <ele>1586.82</ele>
  <time>2026-08-28T19:11:10Z</time>
  <course>45.55</course>
  <speed>0.25</speed>
  <fix>3d</fix>
</trkpt>
<trkpt lat="40.0728546" lon="-105.2307773">
  <ele>1586.66</ele>
  <time>2026-08-28T19:11:10Z</time>
  <course>307.14</course>
  <speed>0.23</speed>
  <fix>3d</fix>
</trkpt>
<trkpt lat="40.072855" lon="-105.2307777">
  <ele>1586.83</ele>
  <time>2026-08-28T19:11:10Z</time>
  <course>45.53</course>
  <speed>0.25</speed>
  <fix>3d</fix>
</trkpt>
<trkpt lat="40.0728552" lon="-105.2307781">
  <ele>1586.92</ele>
  <time>2026-08-28T19:11:10Z</time>
  <course>45.5</course>
  <speed>0.24698178070456936</speed>
  <fix>3d</fix>
</trkpt>
<trkpt lat="40.0728549" lon="-105.2307777">
  <ele>1586.76</ele>
  <time>2026-08-28T19:11:10Z</time>
  <course>301.06</course>
  <speed>0.24</speed>
  <fix>3d</fix>
</trkpt>
<trkpt lat="40.0728552" lon="-105.2307781">
  <ele>1586.93</ele>
  <time>2026-08-28T19:11:10Z</time>
  <course>45.5</course>
  <speed>0.24698178070456936</speed>
  <fix>3d</fix>
</trkpt>
<trkpt lat="40.0728554" lon="-105.2307786">
  <ele>1587.01</ele>
  <time>2026-08-28T19:11:10Z</time>
  <course>45.56</course>
  <speed>0.24596747752497689</speed>
  <fix>3d</fix>
</trkpt>
<trkpt lat="40.0728552" lon="-105.2307783">
  <ele>1586.85</ele>
  <time>2026-08-28T19:11:10Z</time>
  <course>294.79</course>
  <speed>0.24</speed>
  <fix>3d</fix>
</trkpt>
<trkpt lat="40.0728554" lon="-105.2307786">
  <ele>1587.02</ele>
  <time>2026-08-28T19:11:10Z</time>
  <course>45.56</course>
  <speed>0.24596747752497689</speed>
  <fix>3d</fix>
</trkpt>
<trkpt lat="40.0728555" lon="-105.2307791">
  <ele>1587.11</ele>
  <time>2026-08-28T19:11:10Z</time>
  <course>45.74</course>
  <speed>0.2529822128134704</speed>
  <fix>3d</fix>
</trkpt>
<trkpt lat="40.0728553" lon="-105.2307788">
  <ele>1586.95</ele>
  <time>2026-08-28T19:11:10Z</time>
  <course>288.6</course>
  <speed>0.24</speed>
  <fix>3d</fix>
</trkpt>
<trkpt lat="40.0728555" lon="-105.2307792">
  <ele>1587.13</ele>
  <time>2026-08-28T19:11:10Z</time>
  <course>45.77</course>
  <speed>0.2529822128134704</speed>
  <fix>3d</fix>
</trkpt>
<trkpt lat="40.0728556" lon="-105.2307797">
  <ele>1587.22</ele>
  <time>2026-08-28T19:11:10Z</time>
  <course>46.0</course>
  <speed>0.2570992026436488</speed>
  <fix>3d</fix>
</trkpt>
<trkpt lat="40.0728554" lon="-105.2307793">
  <ele>1587.05</ele>
  <time>2026-08-28T19:11:10Z</time>
  <course>282.79</course>
  <speed>0.25</speed>
  <fix>3d</fix>
</trkpt>
<trkpt lat="40.0728556" lon="-105.2307797">
  <ele>1587.22</ele>
  <time>2026-08-28T19:11:10Z</time>
  <course>46.01</course>
  <speed>0.2570992026436488</speed>
  <fix>3d</fix>
</trkpt>
<trkpt lat="40.0728557" lon="-105.2307803">
  <ele>1587.33</ele>
  <time>2026-08-28T19:11:10Z</time>
  <course>46.36</course>
  <speed>0.26305892875931813</speed>
  <fix>3d</fix>
</trkpt>
<trkpt lat="40.0728555" lon="-105.23078">
  <ele>1587.15</ele>
  <time>2026-08-28T19:11:10Z</time>
  <course>277.51</course>
  <speed>0.25</speed>
  <fix>3d</fix>
</trkpt>
<trkpt lat="40.0728557" lon="-105.2307804">
  <ele>1587.35</ele>
  <time>2026-08-28T19:11:10Z</time>
  <course>46.41</course>
  <speed>0.26305892875931813</speed>
  <fix>3d</fix>
</trkpt>
<trkpt lat="40.0728557" lon="-105.2307809">
  <ele>1587.44</ele>
  <time>2026-08-28T19:11:10Z</time>
  <course>46.74</course>
  <speed>0.2707397274136177</speed>
  <fix>3d</fix>
</trkpt>
<trkpt lat="40.0728555" lon="-105.2307806">
  <ele>1587.26</ele>
  <time>2026-08-28T19:11:10Z</time>
  <course>272.84</course>
  <speed>0.26</speed>
  <fix>3d</fix>
</trkpt>
<trkpt lat="40.0728557" lon="-105.230781">
  <ele>1587.46</ele>
  <time>2026-08-28T19:11:10Z</time>
  <course>46.79</course>
  <speed>0.2707397274136177</speed>
  <fix>3d</fix>
</trkpt>
<trkpt lat="40.0728557" lon="-105.2307816">
  <ele>1587.56</ele>
  <time>2026-08-28T19:11:10Z</time>
  <course>47.14</course>
  <speed>0.28</speed>
  <fix>3d</fix>
</trkpt>
<trkpt lat="40.0728555" lon="-105.2307812">
  <ele>1587.37</ele>
  <time>2026-08-28T19:11:10Z</time>
  <course>268.72</course>
  <speed>0.27</speed>
  <fix>3d</fix>
</trkpt>
<trkpt lat="40.0728557" lon="-105.2307816">
  <ele>1587.56</ele>
  <time>2026-08-28T19:11:10Z</time>
  <course>47.15</course>
  <speed>0.28</speed>
  <fix>3d</fix>
</trkpt>
<trkpt lat="40.0728556" lon="-105.2307823">
  <ele>1587.68</ele>
  <time>2026-08-28T19:11:10Z</time>
  <course>47.61</course>
  <speed>0.29</speed>
  <fix>3d</fix>
</trkpt>
<trkpt lat="40.0728555" lon="-105.2307819">
  <ele>1587.49</ele>
  <time>2026-08-28T19:11:10Z</time>
  <course>265.2</course>
  <speed>0.28</speed>
  <fix>3d</fix>
</trkpt>
<trkpt lat="40.0728556" lon="-105.2307824">
  <ele>1587.69</ele>
  <time>2026-08-28T19:11:10Z</time>
  <course>47.68</course>
  <speed>0.29</speed>
  <fix>3d</fix>
</trkpt>
<trkpt lat="40.0728556" lon="-105.230783">
  <ele>1587.8</ele>
  <time>2026-08-28T19:11:10Z</time>
  <course>48.06</course>
  <speed>0.30066592756745814</speed>
  <fix>3d</fix>
</trkpt>
<trkpt lat="40.0728555" lon="-105.2307826">
  <ele>1587.61</ele>
  <time>2026-08-28T19:11:10Z</time>
  <course>262.22</course>
  <speed>0.29</speed>
  <fix>3d</fix>
</trkpt>
<trkpt lat="40.0728556" lon="-105.2307831">
  <ele>1587.82</ele>
  <time>2026-08-28T19:11:10Z</time>
  <course>48.13</course>
  <speed>0.30066592756745814</speed>
  <fix>3d</fix>
</trkpt>
<trkpt lat="40.0728555" lon="-105.2307837">
  <ele>1587.93</ele>
  <time>2026-08-28T19:11:10Z</time>
  <course>48.53</course>
  <speed>0.31144823004794875</speed>
  <fix>3d</fix>
</trkpt>
<trkpt lat="40.0728555" lon="-105.2307832">
  <ele>1587.73</ele>
  <time>2026-08-28T19:11:10Z</time>
  <course>259.7</course>
  <speed>0.31</speed>
  <fix>3d</fix>
</trkpt>
<trkpt lat="40.0728555" lon="-105.2307837">
  <ele>1587.93</ele>
  <time>2026-08-28T19:11:10Z</time>
  <course>48.54</course>
  <speed>0.31144823004794875</speed>
  <fix>3d</fix>
</trkpt>
<trkpt lat="40.0728554" lon="-105.2307844">
  <ele>1588.06</ele>
  <time>2026-08-28T19:11:10Z</time>
  <course>49.03</course>
  <speed>0.32249030993194194</speed>
  <fix>3d</fix>
</trkpt>
<trkpt lat="40.0728553" lon="-105.230784">
  <ele>1587.86</ele>
  <time>2026-08-28T19:11:10Z</time>
  <course>257.64</course>
  <speed>0.32</speed>
  <fix>3d</fix>
</trkpt>
<trkpt lat="40.0728554" lon="-105.2307846">
  <ele>1588.08</ele>
  <time>2026-08-28T19:11:10Z</time>
  <course>49.11</course>
  <speed>0.32249030993194194</speed>
  <fix>3d</fix>
</trkpt>
<trkpt lat="40.0728553" lon="-105.2307852">
  <ele>1588.19</ele>
  <time>2026-08-28T19:11:10Z</time>
  <course>49.5</course>
  <speed>0.33376638536557274</speed>
  <fix>3d</fix>
</trkpt>
<trkpt lat="40.0728552" lon="-105.2307848">
  <ele>1587.98</ele>
  <time>2026-08-28T19:11:10Z</time>
  <course>255.9</course>
  <speed>0.33</speed>
  <fix>3d</fix>
</trkpt>
<trkpt lat="40.0728553" lon="-105.2307852">
  <ele>1588.19</ele>
  <time>2026-08-28T19:11:10Z</time>
  <course>49.5</course>
  <speed>0.33376638536557274</speed>
  <fix>3d</fix>
</trkpt>
<trkpt lat="40.0728551" lon="-105.230786">
  <ele>1588.31</ele>
  <time>2026-08-28T19:11:10Z</time>
  <course>49.94</course>
  <speed>0.33541019662496846</speed>
  <fix>3d</fix>
</trkpt>
<trkpt lat="40.0728551" lon="-105.2307855">
  <ele>1588.1</ele>
  <time>2026-08-28T19:11:10Z</time>
  <course>254.39</course>
  <speed>0.34</speed>
  <fix>3d</fix>
</trkpt>
<trkpt lat="40.0728551" lon="-105.2307861">
  <ele>1588.33</ele>
  <time>2026-08-28T19:11:10Z</time>
  <course>50.0</course>
  <speed>0.33541019662496846</speed>
  <fix>3d</fix>
</trkpt>
<trkpt lat="40.072855" lon="-105.2307868">
  <ele>1588.44</ele>
  <time>2026-08-28T19:11:10Z</time>
  <course>50.38</course>
  <speed>0.34713109915419565</speed>
  <fix>3d</fix>
</trkpt>
<trkpt lat="40.0728548" lon="-105.2307863">
  <ele>1588.23</ele>
  <time>2026-08-28T19:11:10Z</time>
  <course>253.11</course>
  <speed>0.35</speed>
  <fix>3d</fix>
</trkpt>
<trkpt lat="40.0728549" lon="-105.2307869">
  <ele>1588.46</ele>
  <time>2026-08-28T19:11:10Z</time>
  <course>50.46</course>
  <speed>0.34713109915419565</speed>
  <fix>3d</fix>
</trkpt>
<trkpt lat="40.0728548" lon="-105.2307876">
  <ele>1588.56</ele>
  <time>2026-08-28T19:11:10Z</time>
  <course>55.63</course>
  <speed>0.3590264614203248</speed>
  <fix>3d</fix>
</trkpt>
<trkpt lat="40.0728546" lon="-105.2307871">
  <ele>1588.35</ele>
  <time>2026-08-28T19:11:10Z</time>
  <course>252.01</course>
  <speed>0.36</speed>
  <fix>3d</fix>
</trkpt>
<trkpt lat="40.0728547" lon="-105.2307877">
  <ele>1588.58</ele>
  <time>2026-08-28T19:11:10Z</time>
  <course>55.68</course>
  <speed>0.3590264614203248</speed>
  <fix>3d</fix>
</trkpt>
<trkpt lat="40.0728545" lon="-105.2307884">
  <ele>1588.69</ele>
  <time>2026-08-28T19:11:10Z</time>
  <course>49.56</course>
  <speed>0.37107950630558945</speed>
  <fix>3d</fix>
</trkpt>
<trkpt lat="40.0728545" lon="-105.2307879">
  <ele>1588.47</ele>
  <time>2026-08-28T19:11:10Z</time>
  <course>251.09</course>
  <speed>0.37</speed>
  <fix>3d</fix>
</trkpt>
<trkpt lat="40.0728545" lon="-105.2307886">
  <ele>1588.71</ele>
  <time>2026-08-28T19:11:10Z</time>
  <course>48.56</course>
  <speed>0.38078865529319544</speed>
  <fix>3d</fix>
</trkpt>
<trkpt lat="40.0728543" lon="-105.2307894">
  <ele>1588.81</ele>
  <time>2026-08-28T19:11:10Z</time>
  <course>48.44</course>
  <speed>0.4026164427839479</speed>
  <fix>3d</fix>
</trkpt>
<trkpt lat="40.0728542" lon="-105.2307888">
  <ele>1588.6</ele>
  <time>2026-08-28T19:11:10Z</time>
  <course>251.18</course>
  <speed>0.38</speed>
  <fix>3d</fix>
</trkpt>
<trkpt lat="40.0728543" lon="-105.2307895">
  <ele>1588.83</ele>
  <time>2026-08-28T19:11:10Z</time>
  <course>48.9</course>
  <speed>0.41231056256176607</speed>
  <fix>3d</fix>
</trkpt>
<trkpt lat="40.0728541" lon="-105.2307903">
  <ele>1588.93</ele>
  <time>2026-08-28T19:11:10Z</time>
  <course>51.86</course>
  <speed>0.42449970553582245</speed>
  <fix>3d</fix>
</trkpt>
<trkpt lat="40.0728541" lon="-105.2307896">
  <ele>1588.72</ele>
  <time>2026-08-28T19:11:10Z</time>
  <course>251.45</course>
  <speed>0.39</speed>
  <fix>3d</fix>
</trkpt>
<trkpt lat="40.0728541" lon="-105.2307903">
  <ele>1588.93</ele>
  <time>2026-08-28T19:11:10Z</time>
  <course>51.89</course>
  <speed>0.42449970553582245</speed>
  <fix>3d</fix>
</trkpt>
<trkpt lat="40.0728538" lon="-105.2307912">
  <ele>1589.05</ele>
  <time>2026-08-28T19:11:10Z</time>
  <course>54.39</course>
  <speed>0.42720018726587655</speed>
  <fix>3d</fix>
</trkpt>
<trkpt lat="40.0728538" lon="-105.2307905">
  <ele>1588.84</ele>
  <time>2026-08-28T19:11:10Z</time>
  <course>250.87</course>
  <speed>0.39</speed>
  <fix>3d</fix>
</trkpt>
<trkpt lat="40.0728538" lon="-105.2307914">
  <ele>1589.07</ele>
  <time>2026-08-28T19:11:10Z</time>
  <course>54.67</course>
  <speed>0.42720018726587655</speed>
  <fix>3d</fix>
</trkpt>
<trkpt lat="40.0728536" lon="-105.2307921">
  <ele>1589.17</ele>
  <time>2026-08-28T19:11:10Z</time>
  <course>55.92</course>
  <speed>0.42720018726587655</speed>
  <fix>3d</fix>
</trkpt>
<trkpt lat="40.0728536" lon="-105.2307913">
  <ele>1588.96</ele>
  <time>2026-08-28T19:11:10Z</time>
  <course>250.34</course>
  <speed>0.39</speed>
  <fix>3d</fix>
</trkpt>
<trkpt lat="40.0728535" lon="-105.2307923">
  <ele>1589.19</ele>
  <time>2026-08-28T19:11:10Z</time>
  <course>56.12</course>
  <speed>0.42720018726587655</speed>
  <fix>3d</fix>
</trkpt>
<trkpt lat="40.0728533" lon="-105.230793">
  <ele>1589.3</ele>
  <time>2026-08-28T19:11:10Z</time>
  <course>56.94</course>
  <speed>0.42720018726587655</speed>
  <fix>3d</fix>
</trkpt>
<trkpt lat="40.0728534" lon="-105.2307922">
  <ele>1589.09</ele>
  <time>2026-08-28T19:11:10Z</time>
  <course>250.19</course>
  <speed>0.38</speed>
  <fix>3d</fix>
</trkpt>
<trkpt lat="40.0728533" lon="-105.2307931">
  <ele>1589.31</ele>
  <time>2026-08-28T19:11:10Z</time>
  <course>57.06</course>
  <speed>0.42720018726587655</speed>
  <fix>3d</fix>
</trkpt>
<trkpt lat="40.0728531" lon="-105.2307939">
  <ele>1589.42</ele>
  <time>2026-08-28T19:11:10Z</time>
  <course>57.65</course>
  <speed>0.41484937025383084</speed>
  <fix>3d</fix>
</trkpt>
<trkpt lat="40.0728531" lon="-105.2307931">
  <ele>1589.21</ele>
  <time>2026-08-28T19:11:10Z</time>
  <course>250.33</course>
  <speed>0.38</speed>
  <fix>3d</fix>
</trkpt>
<trkpt lat="40.0728531" lon="-105.2307939">
  <ele>1589.42</ele>
  <time>2026-08-28T19:11:10Z</time>
  <course>57.67</course>
  <speed>0.41484937025383084</speed>
  <fix>3d</fix>
</trkpt>
<trkpt lat="40.0728529" lon="-105.2307947">
  <ele>1589.55</ele>
  <time>2026-08-28T19:11:10Z</time>
  <course>58.14</course>
  <speed>0.41484937025383084</speed>
  <fix>3d</fix>
</trkpt>
<trkpt lat="40.0728529" lon="-105.230794">
  <ele>1589.34</ele>
  <time>2026-08-28T19:11:10Z</time>
  <course>250.6</course>
  <speed>0.38</speed>
  <fix>3d</fix>
</trkpt>
<trkpt lat="40.0728529" lon="-105.2307948">
  <ele>1589.57</ele>
  <time>2026-08-28T19:11:10Z</time>
  <course>58.21</course>
  <speed>0.41484937025383084</speed>
  <fix>3d</fix>
</trkpt>
<trkpt lat="40.0728527" lon="-105.2307955">
  <ele>1589.68</ele>
  <time>2026-08-28T19:11:10Z</time>
  <course>58.48</course>
  <speed>0.4052159917870962</speed>
  <fix>3d</fix>
</trkpt>
<trkpt lat="40.0728527" lon="-105.2307947">
  <ele>1589.47</ele>
  <time>2026-08-28T19:11:10Z</time>
  <course>250.93</course>
  <speed>0.38</speed>
  <fix>3d</fix>
</trkpt>
<trkpt lat="40.0728527" lon="-105.2307956">
  <ele>1589.69</ele>
  <time>2026-08-28T19:11:10Z</time>
  <course>58.53</course>
  <speed>0.4026164427839479</speed>
  <fix>3d</fix>
</trkpt>
<trkpt lat="40.0728525" lon="-105.2307963">
  <ele>1589.8</ele>
  <time>2026-08-28T19:11:10Z</time>
  <course>58.75</course>
  <speed>0.4026164427839479</speed>
  <fix>3d</fix>
</trkpt>
<trkpt lat="40.0728524" lon="-105.2307956">
  <ele>1589.59</ele>
  <time>2026-08-28T19:11:10Z</time>
  <course>251.32</course>
  <speed>0.37</speed>
  <fix>3d</fix>
</trkpt>
<trkpt lat="40.0728525" lon="-105.2307964">
  <ele>1589.8</ele>
  <time>2026-08-28T19:11:10Z</time>
  <course>58.75</course>
  <speed>0.4026164427839479</speed>
  <fix>3d</fix>
</trkpt>
<trkpt lat="40.0728523" lon="-105.2307972">
  <ele>1589.92</ele>
  <time>2026-08-28T19:11:10Z</time>
  <course>58.98</course>
  <speed>0.39293765408777</speed>
  <fix>3d</fix>
</trkpt>
<trkpt lat="40.0728522" lon="-105.2307965">
  <ele>1589.72</ele>
  <time>2026-08-28T19:11:10Z</time>
  <course>251.79</course>
  <speed>0.37</speed>
  <fix>3d</fix>
</trkpt>
<trkpt lat="40.0728522" lon="-105.2307973">
  <ele>1589.94</ele>
  <time>2026-08-28T19:11:10Z</time>
  <course>59.01</course>
  <speed>0.39293765408777</speed>
  <fix>3d</fix>
</trkpt>
<trkpt lat="40.0728521" lon="-105.230798">
  <ele>1590.05</ele>
  <time>2026-08-28T19:11:10Z</time>
  <course>59.17</course>
  <speed>0.39293765408777</speed>
  <fix>3d</fix>
</trkpt>
<trkpt lat="40.072852" lon="-105.2307973">
  <ele>1589.84</ele>
  <time>2026-08-28T19:11:10Z</time>
  <course>252.28</course>
  <speed>0.37</speed>
  <fix>3d</fix>
</trkpt>
<trkpt lat="40.072852" lon="-105.2307981">
  <ele>1590.06</ele>
  <time>2026-08-28T19:11:10Z</time>
  <course>59.2</course>
  <speed>0.39293765408777</speed>
  <fix>3d</fix>
</trkpt>
<trkpt lat="40.0728519" lon="-105.2307988">
  <ele>1590.17</ele>
  <time>2026-08-28T19:11:10Z</time>
  <course>59.37</course>
  <speed>0.39293765408777</speed>
  <fix>3d</fix>
</trkpt>
<trkpt lat="40.0728517" lon="-105.2307982">
  <ele>1589.97</ele>
  <time>2026-08-28T19:11:10Z</time>
  <course>252.73</course>
  <speed>0.37</speed>
  <fix>3d</fix>
</trkpt>
<trkpt lat="40.0728518" lon="-105.2307988">
  <ele>1590.17</ele>
  <time>2026-08-28T19:11:10Z</time>
  <course>59.37</course>
  <speed>0.39293765408777</speed>
  <fix>3d</fix>
</trkpt>
<trkpt lat="40.0728516" lon="-105.2307996">
  <ele>1590.3</ele>
  <time>2026-08-28T19:11:10Z</time>
  <course>59.55</course>
  <speed>0.38078865529319544</speed>
  <fix>3d</fix>
</trkpt>
<trkpt lat="40.0728516" lon="-105.230799">
  <ele>1590.1</ele>
  <time>2026-08-28T19:11:10Z</time>
  <course>253.18</course>
  <speed>0.37</speed>
  <fix>3d</fix>
</trkpt>
<trkpt lat="40.0728516" lon="-105.2307998">
  <ele>1590.32</ele>
  <time>2026-08-28T19:11:10Z</time>
  <course>59.57</course>
  <speed>0.38078865529319544</speed>
  <fix>3d</fix>
</trkpt>
<trkpt lat="40.0728514" lon="-105.2308005">
  <ele>1590.43</ele>
  <time>2026-08-28T19:11:10Z</time>
  <course>59.71</course>
  <speed>0.38078865529319544</speed>
  <fix>3d</fix>
</trkpt>
<trkpt lat="40.0728514" lon="-105.2307998">
  <ele>1590.23</ele>
  <time>2026-08-28T19:11:10Z</time>
  <course>253.66</course>
  <speed>0.37</speed>
  <fix>3d</fix>
</trkpt>
<trkpt lat="40.0728514" lon="-105.2308006">
  <ele>1590.44</ele>
  <time>2026-08-28T19:11:10Z</time>
  <course>59.73</course>
  <speed>0.38078865529319544</speed>
  <fix>3d</fix>
</trkpt>
<trkpt lat="40.0728512" lon="-105.2308013">
  <ele>1590.55</ele>
  <time>2026-08-28T19:11:10Z</time>
  <course>59.89</course>
  <speed>0.38078865529319544</speed>
  <fix>3d</fix>
</trkpt>
<trkpt lat="40.0728512" lon="-105.2308007">
  <ele>1590.36</ele>
  <time>2026-08-28T19:11:10Z</time>
  <course>254.16</course>
  <speed>0.37</speed>
  <fix>3d</fix>
</trkpt>
<trkpt lat="40.0728512" lon="-105.2308014">
  <ele>1590.57</ele>
  <time>2026-08-28T19:11:10Z</time>
  <course>59.93</course>
  <speed>0.38078865529319544</speed>
  <fix>3d</fix>
</trkpt>
<trkpt lat="40.0728511" lon="-105.2308021">
  <ele>1590.68</ele>
  <time>2026-08-28T19:11:10Z</time>
  <course>60.05</course>
  <speed>0.38078865529319544</speed>
  <fix>3d</fix>
</trkpt>
<trkpt lat="40.072851" lon="-105.2308016">
  <ele>1590.48</ele>
  <time>2026-08-28T19:11:10Z</time>
  <course>254.6</course>
  <speed>0.37</speed>
  <fix>3d</fix>
</trkpt>
<trkpt lat="40.0728511" lon="-105.2308022">
  <ele>1590.68</ele>
  <time>2026-08-28T19:11:10Z</time>
  <course>60.05</course>
  <speed>0.38078865529319544</speed>
  <fix>3d</fix>
</trkpt>
<trkpt lat="40.0728509" lon="-105.230803">
  <ele>1590.81</ele>
  <time>2026-08-28T19:11:10Z</time>
  <course>60.22</course>
  <speed>0.378549864614954</speed>
  <fix>3d</fix>
</trkpt>
<trkpt lat="40.0728509" lon="-105.2308024">
  <ele>1590.61</ele>
  <time>2026-08-28T19:11:10Z</time>
  <course>255.02</course>
  <speed>0.37</speed>
  <fix>3d</fix>
</trkpt>
<trkpt lat="40.0728508" lon="-105.2308031">
  <ele>1590.83</ele>
  <time>2026-08-28T19:11:10Z</time>
  <course>60.24</course>
  <speed>0.378549864614954</speed>
  <fix>3d</fix>
</trkpt>
<trkpt lat="40.0728507" lon="-105.2308038">
  <ele>1590.94</ele>
  <time>2026-08-28T19:11:10Z</time>
  <course>60.38</course>
  <speed>0.378549864614954</speed>
  <fix>3d</fix>
</trkpt>
<trkpt lat="40.0728506" lon="-105.2308032">
  <ele>1590.74</ele>
  <time>2026-08-28T19:11:10Z</time>
  <course>255.44</course>
  <speed>0.37</speed>
  <fix>3d</fix>
</trkpt>
<trkpt lat="40.0728507" lon="-105.2308038">
  <ele>1590.94</ele>
  <time>2026-08-28T19:11:10Z</time>
  <course>60.38</course>
  <speed>0.378549864614954</speed>
  <fix>3d</fix>
</trkpt>
<trkpt lat="40.0728505" lon="-105.2308047">
  <ele>1591.07</ele>
  <time>2026-08-28T19:11:10Z</time>
  <course>60.53</course>
  <speed>0.3687817782917155</speed>
  <fix>3d</fix>
</trkpt>
<trkpt lat="40.0728505" lon="-105.2308041">
  <ele>1590.87</ele>
  <time>2026-08-28T19:11:10Z</time>
  <course>255.83</course>
  <speed>0.37</speed>
  <fix>3d</fix>
</trkpt>
<trkpt lat="40.0728505" lon="-105.2308048">
  <ele>1591.09</ele>
  <time>2026-08-28T19:11:10Z</time>
  <course>60.54</course>
  <speed>0.3687817782917155</speed>
  <fix>3d</fix>
</trkpt>
<trkpt lat="40.0728504" lon="-105.2308055">
  <ele>1591.2</ele>
  <time>2026-08-28T19:11:10Z</time>
  <course>60.67</course>
  <speed>0.3687817782917155</speed>
  <fix>3d</fix>
</trkpt>
<trkpt lat="40.0728504" lon="-105.230805">
  <ele>1590.99</ele>
  <time>2026-08-28T19:11:10Z</time>
  <course>256.23</course>
  <speed>0.37</speed>
  <fix>3d</fix>
</trkpt>
<trkpt lat="40.0728503" lon="-105.2308056">
  <ele>1591.21</ele>
  <time>2026-08-28T19:11:10Z</time>
  <course>60.68</course>
  <speed>0.3687817782917155</speed>
  <fix>3d</fix>
</trkpt>
<trkpt lat="40.0728502" lon="-105.2308064">
  <ele>1591.32</ele>
  <time>2026-08-28T19:11:10Z</time>
  <course>60.8</course>
  <speed>0.366742416417845</speed>
  <fix>3d</fix>
</trkpt>
<trkpt lat="40.0728502" lon="-105.2308058">
  <ele>1591.12</ele>
  <time>2026-08-28T19:11:10Z</time>
  <course>256.63</course>
  <speed>0.37</speed>
  <fix>3d</fix>
</trkpt>
<trkpt lat="40.0728502" lon="-105.2308064">
  <ele>1591.32</ele>
  <time>2026-08-28T19:11:10Z</time>
  <course>60.8</course>
  <speed>0.366742416417845</speed>
  <fix>3d</fix>
</trkpt>
<trkpt lat="40.07285" lon="-105.2308072">
  <ele>1591.44</ele>
  <time>2026-08-28T19:11:10Z</time>
  <course>60.93</course>
  <speed>0.366742416417845</speed>
  <fix>3d</fix>
</trkpt>
<trkpt lat="40.07285" lon="-105.2308066">
  <ele>1591.24</ele>
  <time>2026-08-28T19:11:10Z</time>
  <course>256.98</course>
  <speed>0.37</speed>
  <fix>3d</fix>
</trkpt>
<trkpt lat="40.07285" lon="-105.2308073">
  <ele>1591.46</ele>
  <time>2026-08-28T19:11:10Z</time>
  <course>60.94</course>
  <speed>0.366742416417845</speed>
  <fix>3d</fix>
</trkpt>
<trkpt lat="40.0728499" lon="-105.2308081">
  <ele>1591.57</ele>
  <time>2026-08-28T19:11:10Z</time>
  <course>61.05</course>
  <speed>0.366742416417845</speed>
  <fix>3d</fix>
</trkpt>
<trkpt lat="40.0728499" lon="-105.2308075">
  <ele>1591.37</ele>
  <time>2026-08-28T19:11:10Z</time>
  <course>257.26</course>
  <speed>0.37</speed>
  <fix>3d</fix>
</trkpt>
<trkpt lat="40.0728499" lon="-105.2308082">
  <ele>1591.59</ele>
  <time>2026-08-28T19:11:10Z</time>
  <course>61.07</course>
  <speed>0.366742416417845</speed>
  <fix>3d</fix>
</trkpt>
<trkpt lat="40.0728498" lon="-105.2308089">
  <ele>1591.69</ele>
  <time>2026-08-28T19:11:10Z</time>
  <course>61.16</course>
  <speed>0.366742416417845</speed>
  <fix>3d</fix>
</trkpt>
<trkpt lat="40.0728498" lon="-105.2308084">
  <ele>1591.49</ele>
  <time>2026-08-28T19:11:10Z</time>
  <course>257.51</course>
  <speed>0.37</speed>
  <fix>3d</fix>
</trkpt>
<trkpt lat="40.0728498" lon="-105.2308089">
  <ele>1591.7</ele>
  <time>2026-08-28T19:11:10Z</time>
  <course>61.16</course>
  <speed>0.366742416417845</speed>
  <fix>3d</fix>
</trkpt>
<trkpt lat="40.0728496" lon="-105.2308098">
  <ele>1591.82</ele>
  <time>2026-08-28T19:11:10Z</time>
  <course>61.29</course>
  <speed>0.366742416417845</speed>
  <fix>3d</fix>
</trkpt>
<trkpt lat="40.0728496" lon="-105.2308093">
  <ele>1591.62</ele>
  <time>2026-08-28T19:11:10Z</time>
  <course>257.72</course>
  <speed>0.37</speed>
  <fix>3d</fix>
</trkpt>
<trkpt lat="40.0728496" lon="-105.2308099">
  <ele>1591.84</ele>
  <time>2026-08-28T19:11:10Z</time>
  <course>61.3</course>
  <speed>0.3649657518178932</speed>
  <fix>3d</fix>
</trkpt>
<trkpt lat="40.0728495" lon="-105.2308106">
  <ele>1591.95</ele>
  <time>2026-08-28T19:11:10Z</time>
  <course>61.41</course>
  <speed>0.35510561809129404</speed>
  <fix>3d</fix>
</trkpt>
<trkpt lat="40.0728494" lon="-105.2308101">
  <ele>1591.74</ele>
  <time>2026-08-28T19:11:10Z</time>
  <course>257.94</course>
  <speed>0.37</speed>
  <fix>3d</fix>
</trkpt>
<trkpt lat="40.0728495" lon="-105.2308106">
  <ele>1591.95</ele>
  <time>2026-08-28T19:11:11Z</time>
  <course>61.41</course>
  <speed>0.35510561809129404</speed>
  <fix>3d</fix>
</trkpt>
<trkpt lat="40.0728493" lon="-105.2308115">
  <ele>1592.08</ele>
  <time>2026-08-28T19:11:11Z</time>
  <course>61.52</course>
  <speed>0.35510561809129404</speed>
  <fix>3d</fix>
</trkpt>
<trkpt lat="40.0728493" lon="-105.2308109">
  <ele>1591.87</ele>
  <time>2026-08-28T19:11:11Z</time>
  <course>258.17</course>
  <speed>0.37</speed>
  <fix>3d</fix>
</trkpt>
<trkpt lat="40.0728493" lon="-105.2308116">
  <ele>1592.1</ele>
  <time>2026-08-28T19:11:11Z</time>
  <course>61.54</course>
  <speed>0.35510561809129404</speed>
  <fix>3d</fix>
</trkpt>
<trkpt lat="40.0728492" lon="-105.2308123">
  <ele>1592.21</ele>
  <time>2026-08-28T19:11:11Z</time>
  <course>61.64</course>
  <speed>0.35510561809129404</speed>
  <fix>3d</fix>
</trkpt>
<trkpt lat="40.0728492" lon="-105.2308118">
  <ele>1591.99</ele>
  <time>2026-08-28T19:11:11Z</time>
  <course>258.36</course>
  <speed>0.37</speed>
  <fix>3d</fix>
</trkpt>
<trkpt lat="40.0728492" lon="-105.2308124">
  <ele>1592.22</ele>
  <time>2026-08-28T19:11:11Z</time>
  <course>61.66</course>
  <speed>0.35510561809129404</speed>
  <fix>3d</fix>
</trkpt>
<trkpt lat="40.0728491" lon="-105.2308131">
  <ele>1592.33</ele>
  <time>2026-08-28T19:11:11Z</time>
  <course>61.75</course>
  <speed>0.35510561809129404</speed>
  <fix>3d</fix>
</trkpt>
<trkpt lat="40.0728491" lon="-105.2308127">
  <ele>1592.11</ele>
  <time>2026-08-28T19:11:11Z</time>
  <course>258.53</course>
  <speed>0.37</speed>
  <fix>3d</fix>
</trkpt>
<trkpt lat="40.0728491" lon="-105.2308133">
  <ele>1592.35</ele>
  <time>2026-08-28T19:11:11Z</time>
  <course>61.77</course>
  <speed>0.3535533905932738</speed>
  <fix>3d</fix>
</trkpt>
<trkpt lat="40.072849" lon="-105.230814">
  <ele>1592.46</ele>
  <time>2026-08-28T19:11:11Z</time>
  <course>61.85</course>
  <speed>0.3535533905932738</speed>
  <fix>3d</fix>
</trkpt>
<trkpt lat="40.0728489" lon="-105.2308135">
  <ele>1592.24</ele>
  <time>2026-08-28T19:11:11Z</time>
  <course>258.69</course>
  <speed>0.36</speed>
  <fix>3d</fix>
</trkpt>
<trkpt lat="40.0728489" lon="-105.2308141">
  <ele>1592.47</ele>
  <time>2026-08-28T19:11:11Z</time>
  <course>61.87</course>
  <speed>0.3535533905932738</speed>
  <fix>3d</fix>
</trkpt>
<trkpt lat="40.0728488" lon="-105.2308148">
  <ele>1592.58</ele>
  <time>2026-08-28T19:11:11Z</time>
  <course>61.96</course>
  <speed>0.34365680554879163</speed>
  <fix>3d</fix>
</trkpt>
<trkpt lat="40.0728488" lon="-105.2308143">
  <ele>1592.36</ele>
  <time>2026-08-28T19:11:11Z</time>
  <course>258.86</course>
  <speed>0.36</speed>
  <fix>3d</fix>
</trkpt>
<trkpt lat="40.0728488" lon="-105.2308148">
  <ele>1592.58</ele>
  <time>2026-08-28T19:11:11Z</time>
  <course>61.96</course>
  <speed>0.34365680554879163</speed>
  <fix>3d</fix>
</trkpt>
<trkpt lat="40.0728487" lon="-105.2308157">
  <ele>1592.7</ele>
  <time>2026-08-28T19:11:11Z</time>
  <course>62.06</course>
  <speed>0.34365680554879163</speed>
  <fix>3d</fix>
</trkpt>
<trkpt lat="40.0728486" lon="-105.2308152">
  <ele>1592.49</ele>
  <time>2026-08-28T19:11:11Z</time>
  <course>259.03</course>
  <speed>0.36</speed>
  <fix>3d</fix>
</trkpt>
<trkpt lat="40.0728487" lon="-105.2308158">
  <ele>1592.72</ele>
  <time>2026-08-28T19:11:11Z</time>
  <course>62.08</course>
  <speed>0.34365680554879163</speed>
  <fix>3d</fix>
</trkpt>
<trkpt lat="40.0728486" lon="-105.2308165">
  <ele>1592.83</ele>
  <time>2026-08-28T19:11:11Z</time>
  <course>62.16</course>
  <speed>0.34365680554879163</speed>
  <fix>3d</fix>
</trkpt>
<trkpt lat="40.0728485" lon="-105.2308161">
  <ele>1592.61</ele>
  <time>2026-08-28T19:11:11Z</time>
  <course>259.2</course>
  <speed>0.36</speed>
  <fix>3d</fix>
</trkpt>
<trkpt lat="40.0728486" lon="-105.2308166">
  <ele>1592.84</ele>
  <time>2026-08-28T19:11:11Z</time>
  <course>62.17</course>
  <speed>0.34365680554879163</speed>
  <fix>3d</fix>
</trkpt>
<trkpt lat="40.0728485" lon="-105.2308173">
  <ele>1592.95</ele>
  <time>2026-08-28T19:11:11Z</time>
  <course>62.26</course>
  <speed>0.3423448553724738</speed>
  <fix>3d</fix>
</trkpt>
<trkpt lat="40.0728484" lon="-105.2308169">
  <ele>1592.73</ele>
  <time>2026-08-28T19:11:11Z</time>
  <course>259.37</course>
  <speed>0.36</speed>
  <fix>3d</fix>
</trkpt>
<trkpt lat="40.0728485" lon="-105.2308174">
  <ele>1592.96</ele>
  <time>2026-08-28T19:11:11Z</time>
  <course>62.27</course>
  <speed>0.3423448553724738</speed>
  <fix>3d</fix>
</trkpt>
<trkpt lat="40.0728484" lon="-105.2308181">
  <ele>1593.07</ele>
  <time>2026-08-28T19:11:11Z</time>
  <course>62.35</course>
  <speed>0.33241540277189324</speed>
  <fix>3d</fix>
</trkpt>
<trkpt lat="40.0728483" lon="-105.2308178">
  <ele>1592.86</ele>
  <time>2026-08-28T19:11:11Z</time>
  <course>259.53</course>
  <speed>0.35</speed>
  <fix>3d</fix>
</trkpt>
<trkpt lat="40.0728483" lon="-105.2308182">
  <ele>1593.09</ele>
  <time>2026-08-28T19:11:11Z</time>
  <course>62.36</course>
  <speed>0.33241540277189324</speed>
  <fix>3d</fix>
</trkpt>
<trkpt lat="40.0728483" lon="-105.2308189">
  <ele>1593.2</ele>
  <time>2026-08-28T19:11:11Z</time>
  <course>62.44</course>
  <speed>0.33241540277189324</speed>
  <fix>3d</fix>
</trkpt>
<trkpt lat="40.0728482" lon="-105.2308185">
  <ele>1592.98</ele>
  <time>2026-08-28T19:11:11Z</time>
  <course>259.67</course>
  <speed>0.35</speed>
  <fix>3d</fix>
</trkpt>
<trkpt lat="40.0728483" lon="-105.230819">
  <ele>1593.2</ele>
  <time>2026-08-28T19:11:11Z</time>
  <course>62.44</course>
  <speed>0.33241540277189324</speed>
  <fix>3d</fix>
</trkpt>
<trkpt lat="40.0728481" lon="-105.2308198">
  <ele>1593.32</ele>
  <time>2026-08-28T19:11:11Z</time>
  <course>62.53</course>
  <speed>0.33241540277189324</speed>
  <fix>3d</fix>
</trkpt>
<trkpt lat="40.0728481" lon="-105.2308194">
  <ele>1593.11</ele>
  <time>2026-08-28T19:11:11Z</time>
  <course>259.77</course>
  <speed>0.35</speed>
  <fix>3d</fix>
</trkpt>
<trkpt lat="40.0728481" lon="-105.2308199">
  <ele>1593.34</ele>
  <time>2026-08-28T19:11:11Z</time>
  <course>62.54</course>
  <speed>0.33241540277189324</speed>
  <fix>3d</fix>
</trkpt>
<trkpt lat="40.072848" lon="-105.2308206">
  <ele>1593.45</ele>
  <time>2026-08-28T19:11:11Z</time>
  <course>62.62</course>
  <speed>0.33241540277189324</speed>
  <fix>3d</fix>
</trkpt>
<trkpt lat="40.072848" lon="-105.2308202">
  <ele>1593.23</ele>
  <time>2026-08-28T19:11:11Z</time>
  <course>259.84</course>
  <speed>0.35</speed>
  <fix>3d</fix>
</trkpt>
<trkpt lat="40.072848" lon="-105.2308207">
  <ele>1593.47</ele>
  <time>2026-08-28T19:11:11Z</time>
  <course>62.64</course>
  <speed>0.33241540277189324</speed>
  <fix>3d</fix>
</trkpt>
<trkpt lat="40.0728479" lon="-105.2308214">
  <ele>1593.57</ele>
  <time>2026-08-28T19:11:11Z</time>
  <course>62.7</course>
  <speed>0.3313608305156178</speed>
  <fix>3d</fix>
</trkpt>
<trkpt lat="40.0728478" lon="-105.230821">
  <ele>1593.36</ele>
  <time>2026-08-28T19:11:11Z</time>
  <course>259.89</course>
  <speed>0.35</speed>
  <fix>3d</fix>
</trkpt>
<trkpt lat="40.0728479" lon="-105.2308215">
  <ele>1593.59</ele>
  <time>2026-08-28T19:11:11Z</time>
  <course>62.71</course>
  <speed>0.3313608305156178</speed>
  <fix>3d</fix>
</trkpt>
<trkpt lat="40.0728478" lon="-105.2308222">
  <ele>1593.7</ele>
  <time>2026-08-28T19:11:11Z</time>
  <course>62.8</course>
  <speed>0.3313608305156178</speed>
  <fix>3d</fix>
</trkpt>
<trkpt lat="40.0728477" lon="-105.2308219">
  <ele>1593.48</ele>
  <time>2026-08-28T19:11:11Z</time>
  <course>259.95</course>
  <speed>0.35</speed>
  <fix>3d</fix>
</trkpt>
<trkpt lat="40.0728478" lon="-105.2308223">
  <ele>1593.72</ele>
  <time>2026-08-28T19:11:11Z</time>
  <course>62.81</course>
  <speed>0.3313608305156178</speed>
  <fix>3d</fix>
</trkpt>
<trkpt lat="40.0728477" lon="-105.230823">
  <ele>1593.82</ele>
  <time>2026-08-28T19:11:11Z</time>
  <course>62.87</course>
  <speed>0.32140317359976395</speed>
  <fix>3d</fix>
</trkpt>
<trkpt lat="40.0728476" lon="-105.2308227">
  <ele>1593.61</ele>
  <time>2026-08-28T19:11:11Z</time>
  <course>260.04</course>
  <speed>0.35</speed>
  <fix>3d</fix>
</trkpt>
<trkpt lat="40.0728477" lon="-105.2308231">
  <ele>1593.84</ele>
  <time>2026-08-28T19:11:11Z</time>
  <course>62.89</course>
  <speed>0.32140317359976395</speed>
  <fix>3d</fix>
</trkpt>
<trkpt lat="40.0728476" lon="-105.2308238">
  <ele>1593.95</ele>
  <time>2026-08-28T19:11:11Z</time>
  <course>62.94</course>
  <speed>0.32140317359976395</speed>
  <fix>3d</fix>
</trkpt>
<trkpt lat="40.0728475" lon="-105.2308234">
  <ele>1593.73</ele>
  <time>2026-08-28T19:11:11Z</time>
  <course>260.08</course>
  <speed>0.35</speed>
  <fix>3d</fix>
</trkpt>
<trkpt lat="40.0728476" lon="-105.2308238">
  <ele>1593.95</ele>
  <time>2026-08-28T19:11:11Z</time>
  <course>62.94</course>
  <speed>0.32140317359976395</speed>
  <fix>3d</fix>
</trkpt>
<trkpt lat="40.0728475" lon="-105.2308246">
  <ele>1594.07</ele>
  <time>2026-08-28T19:11:11Z</time>
  <course>63.03</course>
  <speed>0.32140317359976395</speed>
  <fix>3d</fix>
</trkpt>
<trkpt lat="40.0728474" lon="-105.2308243">
  <ele>1593.86</ele>
  <time>2026-08-28T19:11:11Z</time>
  <course>260.18</course>
  <speed>0.34</speed>
  <fix>3d</fix>
</trkpt>
<trkpt lat="40.0728475" lon="-105.2308247">
  <ele>1594.08</ele>
  <time>2026-08-28T19:11:11Z</time>
  <course>63.03</course>
  <speed>0.32140317359976395</speed>
  <fix>3d</fix>
</trkpt>
<trkpt lat="40.0728474" lon="-105.2308254">
  <ele>1594.19</ele>
  <time>2026-08-28T19:11:11Z</time>
  <course>63.1</course>
  <speed>0.32140317359976395</speed>
  <fix>3d</fix>
</trkpt>
<trkpt lat="40.0728473" lon="-105.2308251">
  <ele>1593.99</ele>
  <time>2026-08-28T19:11:11Z</time>
  <course>260.33</course>
  <speed>0.34</speed>
  <fix>3d</fix>
</trkpt>
<trkpt lat="40.0728474" lon="-105.2308255">
  <ele>1594.21</ele>
  <time>2026-08-28T19:11:11Z</time>
  <course>63.11</course>
  <speed>0.32140317359976395</speed>
  <fix>3d</fix>
</trkpt>
<trkpt lat="40.0728473" lon="-105.2308262">
  <ele>1594.32</ele>
  <time>2026-08-28T19:11:11Z</time>
  <course>63.13</course>
  <speed>0.32140317359976395</speed>
  <fix>3d</fix>
</trkpt>
<trkpt lat="40.0728472" lon="-105.2308258">
  <ele>1594.11</ele>
  <time>2026-08-28T19:11:11Z</time>
  <course>260.42</course>
  <speed>0.34</speed>
  <fix>3d</fix>
</trkpt>
<trkpt lat="40.0728473" lon="-105.2308263">
  <ele>1594.34</ele>
  <time>2026-08-28T19:11:11Z</time>
  <course>63.14</course>
  <speed>0.32140317359976395</speed>
  <fix>3d</fix>
</trkpt>
<trkpt lat="40.0728472" lon="-105.230827">
  <ele>1594.45</ele>
  <time>2026-08-28T19:11:11Z</time>
  <course>63.23</course>
  <speed>0.32062439083762795</speed>
  <fix>3d</fix>
</trkpt>
<trkpt lat="40.0728471" lon="-105.2308267">
  <ele>1594.24</ele>
  <time>2026-08-28T19:11:11Z</time>
  <course>260.51</course>
  <speed>0.34</speed>
  <fix>3d</fix>
</trkpt>
<trkpt lat="40.0728472" lon="-105.230827">
  <ele>1594.45</ele>
  <time>2026-08-28T19:11:11Z</time>
  <course>63.23</course>
  <speed>0.31064449134018135</speed>
  <fix>3d</fix>
</trkpt>
<trkpt lat="40.0728471" lon="-105.2308278">
  <ele>1594.58</ele>
  <time>2026-08-28T19:11:11Z</time>
  <course>63.33</course>
  <speed>0.31064449134018135</speed>
  <fix>3d</fix>
</trkpt>
<trkpt lat="40.072847" lon="-105.2308275">
  <ele>1594.37</ele>
  <time>2026-08-28T19:11:11Z</time>
  <course>260.67</course>
  <speed>0.34</speed>
  <fix>3d</fix>
</trkpt>
<trkpt lat="40.0728471" lon="-105.2308279">
  <ele>1594.6</ele>
  <time>2026-08-28T19:11:11Z</time>
  <course>63.33</course>
  <speed>0.31064449134018135</speed>
  <fix>3d</fix>
</trkpt>
<trkpt lat="40.0728471" lon="-105.2308286">
  <ele>1594.71</ele>
  <time>2026-08-28T19:11:11Z</time>
  <course>63.41</course>
  <speed>0.31064449134018135</speed>
  <fix>3d</fix>
</trkpt>
<trkpt lat="40.0728469" lon="-105.2308282">
  <ele>1594.5</ele>
  <time>2026-08-28T19:11:11Z</time>
  <course>260.82</course>
  <speed>0.34</speed>
  <fix>3d</fix>
</trkpt>
<trkpt lat="40.072847" lon="-105.2308286">
  <ele>1594.71</ele>
  <time>2026-08-28T19:11:11Z</time>
  <course>63.41</course>
  <speed>0.31064449134018135</speed>
  <fix>3d</fix>
</trkpt>
<trkpt lat="40.072847" lon="-105.2308293">
  <ele>1594.83</ele>
  <time>2026-08-28T19:11:11Z</time>
  <course>63.49</course>
  <speed>0.31064449134018135</speed>
  <fix>3d</fix>
</trkpt>
<trkpt lat="40.0728468" lon="-105.230829">
  <ele>1594.62</ele>
  <time>2026-08-28T19:11:11Z</time>
  <course>260.98</course>
  <speed>0.33</speed>
  <fix>3d</fix>
</trkpt>
<trkpt lat="40.0728469" lon="-105.2308295">
  <ele>1594.85</ele>
  <time>2026-08-28T19:11:11Z</time>
  <course>63.5</course>
  <speed>0.31064449134018135</speed>
  <fix>3d</fix>
</trkpt>
<trkpt lat="40.0728469" lon="-105.2308301">
  <ele>1594.96</ele>
  <time>2026-08-28T19:11:11Z</time>
  <course>63.52</course>
  <speed>0.31064449134018135</speed>
  <fix>3d</fix>
</trkpt>
<trkpt lat="40.0728467" lon="-105.2308299">
  <ele>1594.75</ele>
  <time>2026-08-28T19:11:11Z</time>
  <course>261.07</course>
  <speed>0.33</speed>
  <fix>3d</fix>
</trkpt>
<trkpt lat="40.0728469" lon="-105.2308302">
  <ele>1594.97</ele>
  <time>2026-08-28T19:11:11Z</time>
  <course>63.54</course>
  <speed>0.31064449134018135</speed>
  <fix>3d</fix>
</trkpt>
<trkpt lat="40.0728468" lon="-105.2308309">
  <ele>1595.08</ele>
  <time>2026-08-28T19:11:11Z</time>
  <course>63.61</course>
  <speed>0.30066592756745814</speed>
  <fix>3d</fix>
</trkpt>
<trkpt lat="40.0728466" lon="-105.2308306">
  <ele>1594.87</ele>
  <time>2026-08-28T19:11:11Z</time>
  <course>261.17</course>
  <speed>0.33</speed>
  <fix>3d</fix>
</trkpt>
<trkpt lat="40.0728467" lon="-105.2308317">
  <ele>1595.2</ele>
  <time>2026-08-28T19:11:11Z</time>
  <course>63.96</course>
  <speed>0.30016662039607267</speed>
  <fix>3d</fix>
</trkpt>
<trkpt lat="40.0728465" lon="-105.2308314">
  <ele>1595.0</ele>
  <time>2026-08-28T19:11:11Z</time>
  <course>261.52</course>
  <speed>0.33</speed>
  <fix>3d</fix>
</trkpt>
<trkpt lat="40.0728466" lon="-105.2308324">
  <ele>1595.28</ele>
  <time>2026-08-28T19:11:11Z</time>
  <course>64.61</course>
  <speed>0.30016662039607267</speed>
  <fix>3d</fix>
</trkpt>
<trkpt lat="40.0728464" lon="-105.2308322">
  <ele>1595.11</ele>
  <time>2026-08-28T19:11:11Z</time>
  <course>261.91</course>
  <speed>0.32</speed>
  <fix>3d</fix>
</trkpt>
<trkpt lat="40.0728465" lon="-105.2308332">
  <ele>1595.34</ele>
  <time>2026-08-28T19:11:11Z</time>
  <course>64.93</course>
  <speed>0.2906888370749727</speed>
  <fix>3d</fix>
</trkpt>
<trkpt lat="40.0728463" lon="-105.2308329">
  <ele>1595.19</ele>
  <time>2026-08-28T19:11:11Z</time>
  <course>261.8</course>
  <speed>0.32</speed>
  <fix>3d</fix>
</trkpt>
<trkpt lat="40.0728464" lon="-105.2308339">
  <ele>1595.37</ele>
  <time>2026-08-28T19:11:11Z</time>
  <course>64.41</course>
  <speed>0.280713376952364</speed>
  <fix>3d</fix>
</trkpt>
<trkpt lat="40.0728463" lon="-105.2308337">
  <ele>1595.25</ele>
  <time>2026-08-28T19:11:11Z</time>
  <course>260.98</course>
  <speed>0.31</speed>
  <fix>3d</fix>
</trkpt>
<trkpt lat="40.0728463" lon="-105.2308346">
  <ele>1595.4</ele>
  <time>2026-08-28T19:11:11Z</time>
  <course>63.89</course>
  <speed>0.280713376952364</speed>
  <fix>3d</fix>
</trkpt>
<trkpt lat="40.0728462" lon="-105.2308344">
  <ele>1595.28</ele>
  <time>2026-08-28T19:11:11Z</time>
  <course>260.1</course>
  <speed>0.31</speed>
  <fix>3d</fix>
</trkpt>
<trkpt lat="40.0728462" lon="-105.2308353">
  <ele>1595.42</ele>
  <time>2026-08-28T19:11:11Z</time>
  <course>63.65</course>
  <speed>0.2707397274136177</speed>
  <fix>3d</fix>
</trkpt>
<trkpt lat="40.0728461" lon="-105.2308351">
  <ele>1595.31</ele>
  <time>2026-08-28T19:11:11Z</time>
  <course>259.48</course>
  <speed>0.3</speed>
  <fix>3d</fix>
</trkpt>
<trkpt lat="40.0728461" lon="-105.230836">
  <ele>1595.43</ele>
  <time>2026-08-28T19:11:11Z</time>
  <course>63.62</course>
  <speed>0.261725046566048</speed>
  <fix>3d</fix>
</trkpt>
<trkpt lat="40.072846" lon="-105.2308358">
  <ele>1595.33</ele>
  <time>2026-08-28T19:11:11Z</time>
  <course>258.72</course>
  <speed>0.29</speed>
  <fix>3d</fix>
</trkpt>
<trkpt lat="40.072846" lon="-105.2308367">
  <ele>1595.44</ele>
  <time>2026-08-28T19:11:11Z</time>
  <course>63.62</course>
  <speed>0.261725046566048</speed>
  <fix>3d</fix>
</trkpt>
<trkpt lat="40.0728459" lon="-105.2308365">
  <ele>1595.34</ele>
  <time>2026-08-28T19:11:11Z</time>
  <course>257.78</course>
  <speed>0.29</speed>
  <fix>3d</fix>
</trkpt>
<trkpt lat="40.0728459" lon="-105.2308373">
  <ele>1595.45</ele>
  <time>2026-08-28T19:11:11Z</time>
  <course>63.66</course>
  <speed>0.25179356624028343</speed>
  <fix>3d</fix>
</trkpt>
<trkpt lat="40.0728457" lon="-105.2308372">
  <ele>1595.35</ele>
  <time>2026-08-28T19:11:11Z</time>
  <course>256.83</course>
  <speed>0.28</speed>
  <fix>3d</fix>
</trkpt>
<trkpt lat="40.0728458" lon="-105.230838">
  <ele>1595.45</ele>
  <time>2026-08-28T19:11:11Z</time>
  <course>63.68</course>
  <speed>0.24331050121192876</speed>
  <fix>3d</fix>
</trkpt>
<trkpt lat="40.0728456" lon="-105.2308377">
  <ele>1595.36</ele>
  <time>2026-08-28T19:11:11Z</time>
  <course>255.85</course>
  <speed>0.27</speed>
  <fix>3d</fix>
</trkpt>
<trkpt lat="40.0728457" lon="-105.2308386">
  <ele>1595.46</ele>
  <time>2026-08-28T19:11:11Z</time>
  <course>63.7</course>
  <speed>0.24331050121192876</speed>
  <fix>3d</fix>
</trkpt>
<trkpt lat="40.0728455" lon="-105.2308384">
  <ele>1595.37</ele>
  <time>2026-08-28T19:11:11Z</time>
  <course>254.82</course>
  <speed>0.27</speed>
  <fix>3d</fix>
</trkpt>
<trkpt lat="40.0728455" lon="-105.2308392">
  <ele>1595.46</ele>
  <time>2026-08-28T19:11:11Z</time>
  <course>63.73</course>
  <speed>0.23345235059857505</speed>
  <fix>3d</fix>
</trkpt>
<trkpt lat="40.0728454" lon="-105.2308391">
  <ele>1595.37</ele>
  <time>2026-08-28T19:11:11Z</time>
  <course>253.84</course>
  <speed>0.26</speed>
  <fix>3d</fix>
</trkpt>
<trkpt lat="40.0728454" lon="-105.2308398">
  <ele>1595.47</ele>
  <time>2026-08-28T19:11:11Z</time>
  <course>63.75</course>
  <speed>0.223606797749979</speed>
  <fix>3d</fix>
</trkpt>
<trkpt lat="40.0728453" lon="-105.2308396">
  <ele>1595.38</ele>
  <time>2026-08-28T19:11:11Z</time>
  <course>252.89</course>
  <speed>0.26</speed>
  <fix>3d</fix>
</trkpt>
<trkpt lat="40.0728453" lon="-105.2308403">
  <ele>1595.47</ele>
  <time>2026-08-28T19:11:11Z</time>
  <course>63.78</course>
  <speed>0.22561028345356957</speed>
  <fix>3d</fix>
</trkpt>
<trkpt lat="40.0728451" lon="-105.2308402">
  <ele>1595.38</ele>
  <time>2026-08-28T19:11:11Z</time>
  <course>251.92</course>
  <speed>0.25</speed>
  <fix>3d</fix>
</trkpt>
<trkpt lat="40.0728451" lon="-105.2308409">
  <ele>1595.47</ele>
  <time>2026-08-28T19:11:11Z</time>
  <course>63.8</course>
  <speed>0.215870331449229</speed>
  <fix>3d</fix>
</trkpt>
<trkpt lat="40.072845" lon="-105.2308408">
  <ele>1595.38</ele>
  <time>2026-08-28T19:11:11Z</time>
  <course>250.98</course>
  <speed>0.25</speed>
  <fix>3d</fix>
</trkpt>
<trkpt lat="40.072845" lon="-105.2308414">
  <ele>1595.47</ele>
  <time>2026-08-28T19:11:11Z</time>
  <course>63.82</course>
  <speed>0.215870331449229</speed>
  <fix>3d</fix>
</trkpt>
<trkpt lat="40.0728448" lon="-105.2308413">
  <ele>1595.39</ele>
  <time>2026-08-28T19:11:11Z</time>
  <course>250.07</course>
  <speed>0.24</speed>
  <fix>3d</fix>
</trkpt>
<trkpt lat="40.0728448" lon="-105.230842">
  <ele>1595.47</ele>
  <time>2026-08-28T19:11:11Z</time>
  <course>63.83</course>
  <speed>0.20615528128088303</speed>
  <fix>3d</fix>
</trkpt>
<trkpt lat="40.0728447" lon="-105.2308419">
  <ele>1595.39</ele>
  <time>2026-08-28T19:11:11Z</time>
  <course>249.19</course>
  <speed>0.24</speed>
  <fix>3d</fix>
</trkpt>
<trkpt lat="40.0728447" lon="-105.2308425">
  <ele>1595.47</ele>
  <time>2026-08-28T19:11:11Z</time>
  <course>63.86</course>
  <speed>0.208806130178211</speed>
  <fix>3d</fix>
</trkpt>
<trkpt lat="40.0728445" lon="-105.2308424">
  <ele>1595.39</ele>
  <time>2026-08-28T19:11:11Z</time>
  <course>248.36</course>
  <speed>0.23</speed>
  <fix>3d</fix>
</trkpt>
<trkpt lat="40.0728445" lon="-105.230843">
  <ele>1595.47</ele>
  <time>2026-08-28T19:11:11Z</time>
  <course>63.88</course>
  <speed>0.19924858845171275</speed>
  <fix>3d</fix>
</trkpt>
<trkpt lat="40.0728443" lon="-105.2308429">
  <ele>1595.39</ele>
  <time>2026-08-28T19:11:11Z</time>
  <course>247.58</course>
  <speed>0.23</speed>
  <fix>3d</fix>
</trkpt>
<trkpt lat="40.0728443" lon="-105.2308435">
  <ele>1595.47</ele>
  <time>2026-08-28T19:11:11Z</time>
  <course>63.89</course>
  <speed>0.194164878389476</speed>
  <fix>3d</fix>
</trkpt>
<trkpt lat="40.0728442" lon="-105.2308434">
  <ele>1595.39</ele>
  <time>2026-08-28T19:11:11Z</time>
  <course>247.84</course>
  <speed>0.22</speed>
  <fix>3d</fix>
</trkpt>
<trkpt lat="40.0728443" lon="-105.230844">
  <ele>1595.47</ele>
  <time>2026-08-28T19:11:11Z</time>
  <course>63.9</course>
  <speed>0.196468827043885</speed>
  <fix>3d</fix>
</trkpt>
<trkpt lat="40.072844" lon="-105.2308439">
  <ele>1595.39</ele>
  <time>2026-08-28T19:11:11Z</time>
  <course>257.99</course>
  <speed>0.21</speed>
  <fix>3d</fix>
</trkpt>
<trkpt lat="40.0728443" lon="-105.2308445">
  <ele>1595.47</ele>
  <time>2026-08-28T19:11:11Z</time>
  <course>63.92</course>
  <speed>0.2420743687382041</speed>
  <fix>3d</fix>
</trkpt>
<trkpt lat="40.072844" lon="-105.2308444">
  <ele>1595.39</ele>
  <time>2026-08-28T19:11:11Z</time>
  <course>283.81</course>
  <speed>0.21</speed>
  <fix>3d</fix>
</trkpt>
<trkpt lat="40.0728446" lon="-105.230845">
  <ele>1595.48</ele>
  <time>2026-08-28T19:11:11Z</time>
  <course>63.97</course>
  <speed>0.24083189157584592</speed>
  <fix>3d</fix>
</trkpt>
<trkpt lat="40.0728442" lon="-105.2308449">
  <ele>1595.38</ele>
  <time>2026-08-28T19:11:11Z</time>
  <course>302.57</course>
  <speed>0.24</speed>
  <fix>3d</fix>
</trkpt>
<trkpt lat="40.0728447" lon="-105.2308454">
  <ele>1595.48</ele>
  <time>2026-08-28T19:11:11Z</time>
  <course>64.06</course>
  <speed>0.13601470508735444</speed>
  <fix>3d</fix>
</trkpt>
<trkpt lat="40.0728443" lon="-105.2308453">
  <ele>1595.38</ele>
  <time>2026-08-28T19:11:11Z</time>
  <course>300.06</course>
  <speed>0.21</speed>
  <fix>3d</fix>
</trkpt>
<trkpt lat="40.0728446" lon="-105.2308457">
  <ele>1595.48</ele>
  <time>2026-08-28T19:11:11Z</time>
  <course>63.96</course>
  <speed>0.11401754250991379</speed>
  <fix>3d</fix>
</trkpt>
<trkpt lat="40.0728444" lon="-105.2308457">
  <ele>1595.38</ele>
  <time>2026-08-28T19:11:11Z</time>
  <course>264.81</course>
  <speed>0.13</speed>
  <fix>3d</fix>
</trkpt>
<trkpt lat="40.0728443" lon="-105.2308458">
  <ele>1595.48</ele>
  <time>2026-08-28T19:11:11Z</time>
  <course>63.91</course>
  <speed>0.11045361017187261</speed>
  <fix>3d</fix>
</trkpt>
<trkpt lat="40.0728443" lon="-105.2308459">
  <ele>1595.38</ele>
  <time>2026-08-28T19:11:11Z</time>
  <course>213.51</course>
  <speed>0.14</speed>
  <fix>3d</fix>
</trkpt>
<trkpt lat="40.0728443" lon="-105.2308459">
  <ele>1595.47</ele>
  <time>2026-08-28T19:11:11Z</time>
  <course>64.04</course>
  <speed>0.0</speed>
  <fix>3d</fix>
</trkpt>
<trkpt lat="40.0728442" lon="-105.2308461">
  <ele>1595.38</ele>
  <time>2026-08-28T19:11:11Z</time>
  <course>195.99</course>
  <speed>0.11</speed>
  <fix>3d</fix>
</trkpt>
<trkpt lat="40.0728443" lon="-105.2308459">
  <ele>1595.47</ele>
  <time>2026-08-28T19:11:11Z</time>
  <course>64.1</course>
  <speed>0.09055385138137417</speed>
  <fix>3d</fix>
</trkpt>
<trkpt lat="40.0728441" lon="-105.2308462">
  <ele>1595.38</ele>
  <time>2026-08-28T19:11:11Z</time>
  <course>245.49</course>
  <speed>0.01</speed>
  <fix>3d</fix>
</trkpt>
<trkpt lat="40.0728444" lon="-105.230846">
  <ele>1595.46</ele>
  <time>2026-08-28T19:11:11Z</time>
  <course>64.19</course>
  <speed>0.07071067811865475</speed>
  <fix>3d</fix>
</trkpt>
<trkpt lat="40.0728442" lon="-105.2308462">
  <ele>1595.38</ele>
  <time>2026-08-28T19:11:11Z</time>
  <course>338.96</course>
  <speed>0.06</speed>
  <fix>3d</fix>
</trkpt>
<trkpt lat="40.0728443" lon="-105.2308461">
  <ele>1595.46</ele>
  <time>2026-08-28T19:11:11Z</time>
  <course>64.17</course>
  <speed>0.04</speed>
  <fix>3d</fix>
</trkpt>
<trkpt lat="40.0728443" lon="-105.2308463">
  <ele>1595.38</ele>
  <time>2026-08-28T19:11:11Z</time>
  <course>304.97</course>
  <speed>0.03</speed>
  <fix>3d</fix>
</trkpt>
<trkpt lat="40.0728442" lon="-105.2308461">
  <ele>1595.46</ele>
  <time>2026-08-28T19:11:11Z</time>
  <course>64.03</course>
  <speed>0.09055385138137417</speed>
  <fix>3d</fix>
</trkpt>
<trkpt lat="40.0728442" lon="-105.2308463">
  <ele>1595.38</ele>
  <time>2026-08-28T19:11:11Z</time>
  <course>189.03</course>
  <speed>0.07</speed>
  <fix>3d</fix>
</trkpt>
<trkpt lat="40.0728441" lon="-105.2308461">
  <ele>1595.47</ele>
  <time>2026-08-28T19:11:11Z</time>
  <course>64.07</course>
  <speed>0.01414213562373095</speed>
  <fix>3d</fix>
</trkpt>
<trkpt lat="40.0728441" lon="-105.2308463">
  <ele>1595.38</ele>
  <time>2026-08-28T19:11:11Z</time>
  <course>177.62</course>
  <speed>0.09</speed>
  <fix>3d</fix>
</trkpt>
<trkpt lat="40.0728441" lon="-105.2308461">
  <ele>1595.47</ele>
  <time>2026-08-28T19:11:11Z</time>
  <course>64.12</course>
  <speed>0.08</speed>
  <fix>3d</fix>
</trkpt>
<trkpt lat="40.0728439" lon="-105.2308463">
  <ele>1595.38</ele>
  <time>2026-08-28T19:11:11Z</time>
  <course>170.54</course>
  <speed>0.01</speed>
  <fix>3d</fix>
</trkpt>
<trkpt lat="40.0728442" lon="-105.2308461">
  <ele>1595.47</ele>
  <time>2026-08-28T19:11:11Z</time>
  <course>64.22</course>
  <speed>0.05</speed>
  <fix>3d</fix>
</trkpt>
<trkpt lat="40.0728439" lon="-105.2308463">
  <ele>1595.38</ele>
  <time>2026-08-28T19:11:11Z</time>
  <course>346.12</course>
  <speed>0.04</speed>
  <fix>3d</fix>
</trkpt>
<trkpt lat="40.0728442" lon="-105.2308462">
  <ele>1595.47</ele>
  <time>2026-08-28T19:11:11Z</time>
  <course>64.2</course>
  <speed>0.05</speed>
  <fix>3d</fix>
</trkpt>
<trkpt lat="40.0728439" lon="-105.2308463">
  <ele>1595.38</ele>
  <time>2026-08-28T19:11:11Z</time>
  <course>277.44</course>
  <speed>0.01</speed>
  <fix>3d</fix>
</trkpt>
<trkpt lat="40.072844" lon="-105.2308462">
  <ele>1595.47</ele>
  <time>2026-08-28T19:11:11Z</time>
  <course>64.08</course>
  <speed>0.07071067811865475</speed>
  <fix>3d</fix>
</trkpt>
<trkpt lat="40.0728439" lon="-105.2308463">
  <ele>1595.38</ele>
  <time>2026-08-28T19:11:11Z</time>
  <course>186.32</course>
  <speed>0.07</speed>
  <fix>3d</fix>
</trkpt>
<trkpt lat="40.0728439" lon="-105.2308462">
  <ele>1595.47</ele>
  <time>2026-08-28T19:11:11Z</time>
  <course>64.15</course>
  <speed>0.01414213562373095</speed>
  <fix>3d</fix>
</trkpt>
<trkpt lat="40.0728438" lon="-105.2308463">
  <ele>1595.38</ele>
  <time>2026-08-28T19:11:11Z</time>
  <course>180.69</course>
  <speed>0.07</speed>
  <fix>3d</fix>
</trkpt>
<trkpt lat="40.0728439" lon="-105.2308462">
  <ele>1595.47</ele>
  <time>2026-08-28T19:11:11Z</time>
  <course>64.17</course>
  <speed>0.07</speed>
  <fix>3d</fix>
</trkpt>
<trkpt lat="40.0728437" lon="-105.2308463">
  <ele>1595.38</ele>
  <time>2026-08-28T19:11:11Z</time>
  <course>305.01</course>
  <speed>0.0</speed>
  <fix>3d</fix>
</trkpt>
<trkpt lat="40.0728439" lon="-105.2308462">
  <ele>1595.46</ele>
  <time>2026-08-28T19:11:11Z</time>
  <course>64.26</course>
  <speed>0.0</speed>
  <fix>3d</fix>
</trkpt>
<trkpt lat="40.0728438" lon="-105.2308464">
  <ele>1595.38</ele>
  <time>2026-08-28T19:11:11Z</time>
  <course>326.11</course>
  <speed>0.02</speed>
  <fix>3d</fix>
</trkpt>
<trkpt lat="40.0728438" lon="-105.2308462">
  <ele>1595.47</ele>
  <time>2026-08-28T19:11:11Z</time>
  <course>64.13</course>
  <speed>0.07</speed>
  <fix>3d</fix>
</trkpt>
<trkpt lat="40.0728437" lon="-105.2308465">
  <ele>1595.38</ele>
  <time>2026-08-28T19:11:11Z</time>
  <course>194.53</course>
  <speed>0.04</speed>
  <fix>3d</fix>
</trkpt>
<trkpt lat="40.0728437" lon="-105.2308463">
  <ele>1595.47</ele>
  <time>2026-08-28T19:11:11Z</time>
  <course>64.17</course>
  <speed>0.0</speed>
  <fix>3d</fix>
</trkpt>
<trkpt lat="40.0728436" lon="-105.2308465">
  <ele>1595.38</ele>
  <time>2026-08-28T19:11:11Z</time>
  <course>183.99</course>
  <speed>0.07</speed>
  <fix>3d</fix>
</trkpt>
<trkpt lat="40.0728438" lon="-105.2308463">
  <ele>1595.47</ele>
  <time>2026-08-28T19:11:11Z</time>
  <course>64.19</course>
  <speed>0.06</speed>
  <fix>3d</fix>
</trkpt>
<trkpt lat="40.0728435" lon="-105.2308465">
  <ele>1595.38</ele>
  <time>2026-08-28T19:11:11Z</time>
  <course>204.73</course>
  <speed>0.01</speed>
  <fix>3d</fix>
</trkpt>
<trkpt lat="40.0728437" lon="-105.2308463">
  <ele>1595.47</ele>
  <time>2026-08-28T19:11:11Z</time>
  <course>64.3</course>
  <speed>0.0</speed>
  <fix>3d</fix>
</trkpt>
<trkpt lat="40.0728435" lon="-105.2308465">
  <ele>1595.38</ele>
  <time>2026-08-28T19:11:11Z</time>
  <course>321.2</course>
  <speed>0.02</speed>
  <fix>3d</fix>
</trkpt>
<trkpt lat="40.0728437" lon="-105.2308463">
  <ele>1595.47</ele>
  <time>2026-08-28T19:11:11Z</time>
  <course>64.18</course>
  <speed>0.06</speed>
  <fix>3d</fix>
</trkpt>
<trkpt lat="40.0728435" lon="-105.2308465">
  <ele>1595.38</ele>
  <time>2026-08-28T19:11:11Z</time>
  <course>196.54</course>
  <speed>0.04</speed>
  <fix>3d</fix>
</trkpt>
<trkpt lat="40.0728435" lon="-105.2308464">
  <ele>1595.47</ele>
  <time>2026-08-28T19:11:11Z</time>
  <course>64.2</course>
  <speed>0.0</speed>
  <fix>3d</fix>
</trkpt>
<trkpt lat="40.0728434" lon="-105.2308465">
  <ele>1595.38</ele>
  <time>2026-08-28T19:11:11Z</time>
  <course>186.83</course>
  <speed>0.06</speed>
  <fix>3d</fix>
</trkpt>
<trkpt lat="40.0728436" lon="-105.2308464">
  <ele>1595.47</ele>
  <time>2026-08-28T19:11:11Z</time>
  <course>64.26</course>
  <speed>0.05</speed>
  <fix>3d</fix>
</trkpt>
<trkpt lat="40.0728433" lon="-105.2308465">
  <ele>1595.37</ele>
  <time>2026-08-28T19:11:11Z</time>
  <course>223.92</course>
  <speed>0.01</speed>
  <fix>3d</fix>
</trkpt>
<trkpt lat="40.0728436" lon="-105.2308464">
  <ele>1595.46</ele>
  <time>2026-08-28T19:11:11Z</time>
  <course>64.3</course>
  <speed>0.02</speed>
  <fix>3d</fix>
</trkpt>
<trkpt lat="40.0728433" lon="-105.2308466">
  <ele>1595.37</ele>
  <time>2026-08-28T19:11:11Z</time>
  <course>287.65</course>
  <speed>0.01</speed>
  <fix>3d</fix>
</trkpt>
<trkpt lat="40.0728434" lon="-105.2308464">
  <ele>1595.46</ele>
  <time>2026-08-28T19:11:11Z</time>
  <course>64.16</course>
  <speed>0.04</speed>
  <fix>3d</fix>
</trkpt>
<trkpt lat="40.0728433" lon="-105.2308467">
  <ele>1595.37</ele>
  <time>2026-08-28T19:11:11Z</time>
  <course>190.81</course>
  <speed>0.05</speed>
  <fix>3d</fix>
</trkpt>
<trkpt lat="40.0728434" lon="-105.2308464">
  <ele>1595.46</ele>
  <time>2026-08-28T19:11:11Z</time>
  <course>64.22</course>
  <speed>0.03</speed>
  <fix>3d</fix>
</trkpt>
<trkpt lat="40.0728432" lon="-105.2308467">
  <ele>1595.37</ele>
  <time>2026-08-28T19:11:11Z</time>
  <course>191.42</course>
  <speed>0.04</speed>
  <fix>3d</fix>
</trkpt>
<trkpt lat="40.0728434" lon="-105.2308465">
  <ele>1595.45</ele>
  <time>2026-08-28T19:11:11Z</time>
  <course>64.3</course>
  <speed>0.02</speed>
  <fix>3d</fix>
</trkpt>
<trkpt lat="40.0728432" lon="-105.2308467">
  <ele>1595.37</ele>
  <time>2026-08-28T19:11:11Z</time>
  <course>277.64</course>
  <speed>0.01</speed>
  <fix>3d</fix>
</trkpt>
<trkpt lat="40.0728433" lon="-105.2308465">
  <ele>1595.45</ele>
  <time>2026-08-28T19:11:11Z</time>
  <course>64.23</course>
  <speed>0.04</speed>
  <fix>3d</fix>
</trkpt>
<trkpt lat="40.0728432" lon="-105.2308467">
  <ele>1595.38</ele>
  <time>2026-08-28T19:11:11Z</time>
  <course>204.87</course>
  <speed>0.02</speed>
  <fix>3d</fix>
</trkpt>
<trkpt lat="40.0728432" lon="-105.2308465">
  <ele>1595.45</ele>
  <time>2026-08-28T19:11:11Z</time>
  <course>64.19</course>
  <speed>0.0</speed>
  <fix>3d</fix>
</trkpt>
<trkpt lat="40.0728431" lon="-105.2308468">
  <ele>1595.38</ele>
  <time>2026-08-28T19:11:11Z</time>
  <course>190.54</course>
  <speed>0.05</speed>
  <fix>3d</fix>
</trkpt>
<trkpt lat="40.0728432" lon="-105.2308466">
  <ele>1595.46</ele>
  <time>2026-08-28T19:11:11Z</time>
  <course>64.29</course>
  <speed>0.03</speed>
  <fix>3d</fix>
</trkpt>
<trkpt lat="40.0728431" lon="-105.2308468">
  <ele>1595.38</ele>
  <time>2026-08-28T19:11:11Z</time>
  <course>222.73</course>
  <speed>0.01</speed>
  <fix>3d</fix>
</trkpt>
<trkpt lat="40.0728432" lon="-105.2308466">
  <ele>1595.46</ele>
  <time>2026-08-28T19:11:11Z</time>
  <course>64.32</course>
  <speed>0.03</speed>
  <fix>3d</fix>
</trkpt>
<trkpt lat="40.072843" lon="-105.2308468">
  <ele>1595.38</ele>
  <time>2026-08-28T19:11:11Z</time>
  <course>225.2</course>
  <speed>0.01</speed>
  <fix>3d</fix>
</trkpt>
<trkpt lat="40.0728431" lon="-105.2308466">
  <ele>1595.47</ele>
  <time>2026-08-28T19:11:11Z</time>
  <course>64.28</course>
  <speed>0.0</speed>
  <fix>3d</fix>
</trkpt>
<trkpt lat="40.0728429" lon="-105.2308468">
  <ele>1595.39</ele>
  <time>2026-08-28T19:11:11Z</time>
  <course>191.95</course>
  <speed>0.04</speed>
  <fix>3d</fix>
</trkpt>
<trkpt lat="40.0728431" lon="-105.2308466">
  <ele>1595.47</ele>
  <time>2026-08-28T19:11:11Z</time>
  <course>64.35</course>
  <speed>0.03</speed>
  <fix>3d</fix>
</trkpt>
<trkpt lat="40.0728429" lon="-105.2308468">
  <ele>1595.39</ele>
  <time>2026-08-28T19:11:11Z</time>
  <course>212.03</course>
  <speed>0.02</speed>
  <fix>3d</fix>
</trkpt>
<trkpt lat="40.0728431" lon="-105.2308467">
  <ele>1595.47</ele>
  <time>2026-08-28T19:11:11Z</time>
  <course>64.41</course>
  <speed>0.02</speed>
  <fix>3d</fix>
</trkpt>
<trkpt lat="40.0728429" lon="-105.2308468">
  <ele>1595.39</ele>
  <time>2026-08-28T19:11:11Z</time>
  <course>225.78</course>
  <speed>0.01</speed>
  <fix>3d</fix>
</trkpt>
<trkpt lat="40.072843" lon="-105.2308467">
  <ele>1595.48</ele>
  <time>2026-08-28T19:11:11Z</time>
  <course>64.3</course>
  <speed>0.0</speed>
  <fix>3d</fix>
</trkpt>
<trkpt lat="40.0728428" lon="-105.2308468">
  <ele>1595.4</ele>
  <time>2026-08-28T19:11:11Z</time>
  <course>192.17</course>
  <speed>0.04</speed>
  <fix>3d</fix>
</trkpt>
<trkpt lat="40.072843" lon="-105.2308467">
  <ele>1595.47</ele>
  <time>2026-08-28T19:11:11Z</time>
  <course>64.42</course>
  <speed>0.03</speed>
  <fix>3d</fix>
</trkpt>
<trkpt lat="40.0728427" lon="-105.2308469">
  <ele>1595.4</ele>
  <time>2026-08-28T19:11:11Z</time>
  <course>212.05</course>
  <speed>0.02</speed>
  <fix>3d</fix>
</trkpt>
<trkpt lat="40.0728429" lon="-105.2308467">
  <ele>1595.47</ele>
  <time>2026-08-28T19:11:11Z</time>
  <course>64.42</course>
  <speed>0.03</speed>
  <fix>3d</fix>
</trkpt>
<trkpt lat="40.0728427" lon="-105.230847">
  <ele>1595.39</ele>
  <time>2026-08-28T19:11:11Z</time>
  <course>211.53</course>
  <speed>0.01</speed>
  <fix>3d</fix>
</trkpt>
<trkpt lat="40.0728429" lon="-105.2308467">
  <ele>1595.47</ele>
  <time>2026-08-28T19:11:11Z</time>
  <course>64.33</course>
  <speed>0.0</speed>
  <fix>3d</fix>
</trkpt>
<trkpt lat="40.0728427" lon="-105.230847">
  <ele>1595.39</ele>
  <time>2026-08-28T19:11:11Z</time>
  <course>193.48</course>
  <speed>0.03</speed>
  <fix>3d</fix>
</trkpt>
<trkpt lat="40.0728429" lon="-105.2308468">
  <ele>1595.47</ele>
  <time>2026-08-28T19:11:11Z</time>
  <course>64.44</course>
  <speed>0.01</speed>
  <fix>3d</fix>
</trkpt>
<trkpt lat="40.0728426" lon="-105.230847">
  <ele>1595.39</ele>
  <time>2026-08-28T19:11:11Z</time>
  <course>218.0</course>
  <speed>0.01</speed>
  <fix>3d</fix>
</trkpt>
<trkpt lat="40.0728428" lon="-105.2308468">
  <ele>1595.47</ele>
  <time>2026-08-28T19:11:11Z</time>
  <course>64.38</course>
  <speed>0.03</speed>
  <fix>3d</fix>
</trkpt>
<trkpt lat="40.0728426" lon="-105.230847">
  <ele>1595.39</ele>
  <time>2026-08-28T19:11:11Z</time>
  <course>198.5</course>
  <speed>0.02</speed>
  <fix>3d</fix>
</trkpt>
<trkpt lat="40.0728427" lon="-105.2308468">
  <ele>1595.47</ele>
  <time>2026-08-28T19:11:11Z</time>
  <course>64.38</course>
  <speed>0.02</speed>
  <fix>3d</fix>
</trkpt>
<trkpt lat="40.0728426" lon="-105.230847">
  <ele>1595.39</ele>
  <time>2026-08-28T19:11:11Z</time>
  <course>198.52</course>
  <speed>0.03</speed>
  <fix>3d</fix>
</trkpt>
<trkpt lat="40.0728427" lon="-105.2308468">
  <ele>1595.46</ele>
  <time>2026-08-28T19:11:11Z</time>
  <course>64.5</course>
  <speed>0.01414213562373095</speed>
  <fix>3d</fix>
</trkpt>
<trkpt lat="40.0728426" lon="-105.230847">
  <ele>1595.39</ele>
  <time>2026-08-28T19:11:11Z</time>
  <course>216.52</course>
  <speed>0.01</speed>
  <fix>3d</fix>
</trkpt>
<trkpt lat="40.0728426" lon="-105.2308469">
  <ele>1595.46</ele>
  <time>2026-08-28T19:11:11Z</time>
  <course>64.37</course>
  <speed>0.0</speed>
  <fix>3d</fix>
</trkpt>
<trkpt lat="40.0728425" lon="-105.230847">
  <ele>1595.39</ele>
  <time>2026-08-28T19:11:11Z</time>
  <course>194.69</course>
  <speed>0.03</speed>
  <fix>3d</fix>
</trkpt>
<trkpt lat="40.0728426" lon="-105.2308469">
  <ele>1595.45</ele>
  <time>2026-08-28T19:11:11Z</time>
  <course>64.44</course>
  <speed>0.01</speed>
  <fix>3d</fix>
</trkpt>
<trkpt lat="40.0728425" lon="-105.230847">
  <ele>1595.39</ele>
  <time>2026-08-28T19:11:11Z</time>
  <course>208.83</course>
  <speed>0.02</speed>
  <fix>3d</fix>
</trkpt>
<trkpt lat="40.0728426" lon="-105.2308469">
  <ele>1595.45</ele>
  <time>2026-08-28T19:11:11Z</time>
  <course>64.42</course>
  <speed>0.02</speed>
  <fix>3d</fix>
</trkpt>
<trkpt lat="40.0728424" lon="-105.230847">
  <ele>1595.39</ele>
  <time>2026-08-28T19:11:11Z</time>
  <course>200.14</course>
  <speed>0.02</speed>
  <fix>3d</fix>
</trkpt>
<trkpt lat="40.0728425" lon="-105.2308469">
  <ele>1595.45</ele>
  <time>2026-08-28T19:11:11Z</time>
  <course>64.41</course>
  <speed>0.02</speed>
  <fix>3d</fix>
</trkpt>
<trkpt lat="40.0728424" lon="-105.2308471">
  <ele>1595.4</ele>
  <time>2026-08-28T19:11:11Z</time>
  <course>201.51</course>
  <speed>0.02</speed>
  <fix>3d</fix>
</trkpt>
<trkpt lat="40.0728425" lon="-105.2308469">
  <ele>1595.46</ele>
  <time>2026-08-28T19:11:11Z</time>
  <course>64.48</course>
  <speed>0.022360679774997897</speed>
  <fix>3d</fix>
</trkpt>
<trkpt lat="40.0728424" lon="-105.2308472">
  <ele>1595.4</ele>
  <time>2026-08-28T19:11:11Z</time>
  <course>208.6</course>
  <speed>0.02</speed>
  <fix>3d</fix>
</trkpt>
<trkpt lat="40.0728425" lon="-105.230847">
  <ele>1595.46</ele>
  <time>2026-08-28T19:11:11Z</time>
  <course>64.42</course>
  <speed>0.01</speed>
  <fix>3d</fix>
</trkpt>
<trkpt lat="40.0728423" lon="-105.2308472">
  <ele>1595.4</ele>
  <time>2026-08-28T19:11:11Z</time>
  <course>200.0</course>
  <speed>0.02</speed>
  <fix>3d</fix>
</trkpt>
<trkpt lat="40.0728425" lon="-105.230847">
  <ele>1595.46</ele>
  <time>2026-08-28T19:11:11Z</time>
  <course>64.54</course>
  <speed>0.01</speed>
  <fix>3d</fix>
</trkpt>
<trkpt lat="40.0728423" lon="-105.2308472">
  <ele>1595.41</ele>
  <time>2026-08-28T19:11:11Z</time>
  <course>209.96</course>
  <speed>0.02</speed>
  <fix>3d</fix>
</trkpt>
<trkpt lat="40.0728424" lon="-105.230847">
  <ele>1595.47</ele>
  <time>2026-08-28T19:11:11Z</time>
  <course>64.42</course>
  <speed>0.0</speed>
  <fix>3d</fix>
</trkpt>
<trkpt lat="40.0728422" lon="-105.2308472">
  <ele>1595.41</ele>
  <time>2026-08-28T19:11:11Z</time>
  <course>200.9</course>
  <speed>0.02</speed>
  <fix>3d</fix>
</trkpt>
<trkpt lat="40.0728424" lon="-105.230847">
  <ele>1595.48</ele>
  <time>2026-08-28T19:11:11Z</time>
  <course>64.55</course>
  <speed>0.01</speed>
  <fix>3d</fix>
</trkpt>
<trkpt lat="40.0728421" lon="-105.2308472">
  <ele>1595.41</ele>
  <time>2026-08-28T19:11:11Z</time>
  <course>207.61</course>
  <speed>0.02</speed>
  <fix>3d</fix>
</trkpt>
<trkpt lat="40.0728423" lon="-105.230847">
  <ele>1595.48</ele>
  <time>2026-08-28T19:11:11Z</time>
  <course>64.47</course>
  <speed>0.0</speed>
  <fix>3d</fix>
</trkpt>
<trkpt lat="40.0728421" lon="-105.2308472">
  <ele>1595.41</ele>
  <time>2026-08-28T19:11:11Z</time>
  <course>203.09</course>
  <speed>0.02</speed>
  <fix>3d</fix>
</trkpt>
<trkpt lat="40.0728423" lon="-105.2308471">
  <ele>1595.48</ele>
  <time>2026-08-28T19:11:11Z</time>
  <course>64.6</course>
  <speed>0.01</speed>
  <fix>3d</fix>
</trkpt>
<trkpt lat="40.072842" lon="-105.2308472">
  <ele>1595.42</ele>
  <time>2026-08-28T19:11:11Z</time>
  <course>205.02</course>
  <speed>0.02</speed>
  <fix>3d</fix>
</trkpt>
<trkpt lat="40.0728422" lon="-105.2308471">
  <ele>1595.48</ele>
  <time>2026-08-28T19:11:11Z</time>
  <course>64.5</course>
  <speed>0.0</speed>
  <fix>3d</fix>
</trkpt>
<trkpt lat="40.072842" lon="-105.2308473">
  <ele>1595.41</ele>
  <time>2026-08-28T19:11:11Z</time>
  <course>202.95</course>
  <speed>0.02</speed>
  <fix>3d</fix>
</trkpt>
<trkpt lat="40.0728422" lon="-105.2308471">
  <ele>1595.47</ele>
  <time>2026-08-28T19:11:11Z</time>
  <course>64.6</course>
  <speed>0.01</speed>
  <fix>3d</fix>
</trkpt>
<trkpt lat="40.072842" lon="-105.2308474">
  <ele>1595.41</ele>
  <time>2026-08-28T19:11:11Z</time>
  <course>201.14</course>
  <speed>0.02</speed>
  <fix>3d</fix>
</trkpt>
<trkpt lat="40.0728421" lon="-105.2308471">
  <ele>1595.47</ele>
  <time>2026-08-28T19:11:11Z</time>
  <course>64.49</course>
  <speed>0.0</speed>
  <fix>3d</fix>
</trkpt>
<trkpt lat="40.072842" lon="-105.2308474">
  <ele>1595.41</ele>
  <time>2026-08-28T19:11:11Z</time>
  <course>202.87</course>
  <speed>0.02</speed>
  <fix>3d</fix>
</trkpt>
<trkpt lat="40.0728421" lon="-105.2308472">
  <ele>1595.47</ele>
  <time>2026-08-28T19:11:11Z</time>
  <course>64.6</course>
  <speed>0.01</speed>
  <fix>3d</fix>
</trkpt>
<trkpt lat="40.072842" lon="-105.2308474">
  <ele>1595.41</ele>
  <time>2026-08-28T19:11:11Z</time>
  <course>198.48</course>
  <speed>0.02</speed>
  <fix>3d</fix>
</trkpt>
<trkpt lat="40.0728421" lon="-105.2308472">
  <ele>1595.47</ele>
  <time>2026-08-28T19:11:11Z</time>
  <course>64.5</course>
  <speed>0.01</speed>
  <fix>3d</fix>
</trkpt>
<trkpt lat="40.0728419" lon="-105.2308474">
  <ele>1595.41</ele>
  <time>2026-08-28T19:11:11Z</time>
  <course>204.6</course>
  <speed>0.02</speed>
  <fix>3d</fix>
</trkpt>
<trkpt lat="40.072842" lon="-105.2308472">
  <ele>1595.47</ele>
  <time>2026-08-28T19:11:11Z</time>
  <course>64.62</course>
  <speed>0.01414213562373095</speed>
  <fix>3d</fix>
</trkpt>
<trkpt lat="40.0728419" lon="-105.2308474">
  <ele>1595.41</ele>
  <time>2026-08-28T19:11:11Z</time>
  <course>196.3</course>
  <speed>0.02</speed>
  <fix>3d</fix>
</trkpt>
<trkpt lat="40.072842" lon="-105.2308472">
  <ele>1595.47</ele>
  <time>2026-08-28T19:11:11Z</time>
  <course>64.51</course>
  <speed>0.01</speed>
  <fix>3d</fix>
</trkpt>
<trkpt lat="40.0728418" lon="-105.2308475">
  <ele>1595.41</ele>
  <time>2026-08-28T19:11:11Z</time>
  <course>205.56</course>
  <speed>0.02</speed>
  <fix>3d</fix>
</trkpt>
<trkpt lat="40.072842" lon="-105.2308472">
  <ele>1595.47</ele>
  <time>2026-08-28T19:11:11Z</time>
  <course>64.62</course>
  <speed>0.01414213562373095</speed>
  <fix>3d</fix>
</trkpt>
<trkpt lat="40.0728418" lon="-105.2308475">
  <ele>1595.41</ele>
  <time>2026-08-28T19:11:11Z</time>
  <course>197.07</course>
  <speed>0.02</speed>
  <fix>3d</fix>
</trkpt>
<trkpt lat="40.0728419" lon="-105.2308473">
  <ele>1595.46</ele>
  <time>2026-08-28T19:11:11Z</time>
  <course>64.57</course>
  <speed>0.01</speed>
  <fix>3d</fix>
</trkpt>
<trkpt lat="40.0728417" lon="-105.2308475">
  <ele>1595.41</ele>
  <time>2026-08-28T19:11:11Z</time>
  <course>200.72</course>
  <speed>0.02</speed>
  <fix>3d</fix>
</trkpt>
<trkpt lat="40.0728419" lon="-105.2308473">
  <ele>1595.46</ele>
  <time>2026-08-28T19:11:11Z</time>
  <course>64.57</course>
  <speed>0.0</speed>
  <fix>3d</fix>
</trkpt>
<trkpt lat="40.0728417" lon="-105.2308475">
  <ele>1595.41</ele>
  <time>2026-08-28T19:11:11Z</time>
  <course>203.82</course>
  <speed>0.02</speed>
  <fix>3d</fix>
</trkpt>
<trkpt lat="40.0728418" lon="-105.2308473">
  <ele>1595.45</ele>
  <time>2026-08-28T19:11:11Z</time>
  <course>64.64</course>
  <speed>0.01414213562373095</speed>
  <fix>3d</fix>
</trkpt>
<trkpt lat="40.0728417" lon="-105.2308475">
  <ele>1595.41</ele>
  <time>2026-08-28T19:11:11Z</time>
  <course>191.32</course>
  <speed>0.02</speed>
  <fix>3d</fix>
</trkpt>
<trkpt lat="40.0728418" lon="-105.2308473">
  <ele>1595.45</ele>
  <time>2026-08-28T19:11:11Z</time>
  <course>64.51</course>
  <speed>0.01</speed>
  <fix>3d</fix>
</trkpt>
<trkpt lat="40.0728416" lon="-105.2308475">
  <ele>1595.41</ele>
  <time>2026-08-28T19:11:11Z</time>
  <course>211.77</course>
  <speed>0.01</speed>
  <fix>3d</fix>
</trkpt>
<trkpt lat="40.0728418" lon="-105.2308473">
  <ele>1595.45</ele>
  <time>2026-08-28T19:11:11Z</time>
  <course>64.63</course>
  <speed>0.01</speed>
  <fix>3d</fix>
</trkpt>
<trkpt lat="40.0728415" lon="-105.2308475">
  <ele>1595.42</ele>
  <time>2026-08-28T19:11:11Z</time>
  <course>193.72</course>
  <speed>0.02</speed>
  <fix>3d</fix>
</trkpt>
<trkpt lat="40.0728417" lon="-105.2308474">
  <ele>1595.45</ele>
  <time>2026-08-28T19:11:11Z</time>
  <course>64.6</course>
  <speed>0.01</speed>
  <fix>3d</fix>
</trkpt>
<trkpt lat="40.0728415" lon="-105.2308475">
  <ele>1595.42</ele>
  <time>2026-08-28T19:11:11Z</time>
  <course>194.84</course>
  <speed>0.02</speed>
  <fix>3d</fix>
</trkpt>
<trkpt lat="40.0728417" lon="-105.2308474">
  <ele>1595.46</ele>
  <time>2026-08-28T19:11:11Z</time>
  <course>64.56</course>
  <speed>0.01</speed>
  <fix>3d</fix>
</trkpt>
<trkpt lat="40.0728415" lon="-105.2308475">
  <ele>1595.42</ele>
  <time>2026-08-28T19:11:11Z</time>
  <course>215.52</course>
  <speed>0.01</speed>
  <fix>3d</fix>
</trkpt>
<trkpt lat="40.0728416" lon="-105.2308474">
  <ele>1595.46</ele>
  <time>2026-08-28T19:11:11Z</time>
  <course>64.67</course>
  <speed>0.01414213562373095</speed>
  <fix>3d</fix>
</trkpt>
<trkpt lat="40.0728414" lon="-105.2308475">
  <ele>1595.43</ele>
  <time>2026-08-28T19:11:11Z</time>
  <course>190.08</course>
  <speed>0.02</speed>
  <fix>3d</fix>
</trkpt>
<trkpt lat="40.0728416" lon="-105.2308474">
  <ele>1595.47</ele>
  <time>2026-08-28T19:11:11Z</time>
  <course>64.65</course>
  <speed>0.01</speed>
  <fix>3d</fix>
</trkpt>
<trkpt lat="40.0728414" lon="-105.2308476">
  <ele>1595.43</ele>
  <time>2026-08-28T19:11:11Z</time>
  <course>197.3</course>
  <speed>0.02</speed>
  <fix>3d</fix>
</trkpt>
<trkpt lat="40.0728416" lon="-105.2308474">
  <ele>1595.47</ele>
  <time>2026-08-28T19:11:11Z</time>
  <course>64.6</course>
  <speed>0.01</speed>
  <fix>3d</fix>
</trkpt>
<trkpt lat="40.0728414" lon="-105.2308477">
  <ele>1595.44</ele>
  <time>2026-08-28T19:11:11Z</time>
  <course>222.61</course>
  <speed>0.01</speed>
  <fix>3d</fix>
</trkpt>
<trkpt lat="40.0728415" lon="-105.2308474">
  <ele>1595.48</ele>
  <time>2026-08-28T19:11:11Z</time>
  <course>64.7</course>
  <speed>0.0</speed>
  <fix>3d</fix>
</trkpt>
<trkpt lat="40.0728414" lon="-105.2308477">
  <ele>1595.44</ele>
  <time>2026-08-28T19:11:11Z</time>
  <course>192.59</course>
  <speed>0.02</speed>
  <fix>3d</fix>
</trkpt>
<trkpt lat="40.0728415" lon="-105.2308475">
  <ele>1595.48</ele>
  <time>2026-08-28T19:11:11Z</time>
  <course>64.74</course>
  <speed>0.01414213562373095</speed>
  <fix>3d</fix>
</trkpt>
<trkpt lat="40.0728413" lon="-105.2308477">
  <ele>1595.44</ele>
  <time>2026-08-28T19:11:11Z</time>
  <course>188.89</course>
  <speed>0.02</speed>
  <fix>3d</fix>
</trkpt>
<trkpt lat="40.0728415" lon="-105.2308475">
  <ele>1595.48</ele>
  <time>2026-08-28T19:11:11Z</time>
  <course>64.64</course>
  <speed>0.0</speed>
  <fix>3d</fix>
</trkpt>
<trkpt lat="40.0728413" lon="-105.2308477">
  <ele>1595.44</ele>
  <time>2026-08-28T19:11:11Z</time>
  <course>219.81</course>
  <speed>0.01</speed>
  <fix>3d</fix>
</trkpt>
<trkpt lat="40.0728414" lon="-105.2308475">
  <ele>1595.48</ele>
  <time>2026-08-28T19:11:11Z</time>
  <course>64.67</course>
  <speed>0.01</speed>
  <fix>3d</fix>
</trkpt>
<trkpt lat="40.0728413" lon="-105.2308477">
  <ele>1595.44</ele>
  <time>2026-08-28T19:11:11Z</time>
  <course>212.8</course>
  <speed>0.01</speed>
  <fix>3d</fix>
</trkpt>
<trkpt lat="40.0728414" lon="-105.2308475">
  <ele>1595.48</ele>
  <time>2026-08-28T19:11:12Z</time>
  <course>64.73</course>
  <speed>0.0</speed>
  <fix>3d</fix>
</trkpt>
<trkpt lat="40.0728412" lon="-105.2308477">
  <ele>1595.44</ele>
  <time>2026-08-28T19:11:12Z</time>
  <course>188.08</course>
  <speed>0.02</speed>
  <fix>3d</fix>
</trkpt>
<trkpt lat="40.0728414" lon="-105.2308475">
  <ele>1595.48</ele>
  <time>2026-08-28T19:11:12Z</time>
  <course>64.75</course>
  <speed>0.01</speed>
  <fix>3d</fix>
</trkpt>
<trkpt lat="40.0728412" lon="-105.2308477">
  <ele>1595.44</ele>
  <time>2026-08-28T19:11:12Z</time>
  <course>188.45</course>
  <speed>0.02</speed>
  <fix>3d</fix>
</trkpt>
<trkpt lat="40.0728413" lon="-105.2308475">
  <ele>1595.48</ele>
  <time>2026-08-28T19:11:12Z</time>
  <course>64.65</course>
  <speed>0.0</speed>
  <fix>3d</fix>
</trkpt>
<trkpt lat="40.0728411" lon="-105.2308477">
  <ele>1595.44</ele>
  <time>2026-08-28T19:11:12Z</time>
  <course>207.8</course>
  <speed>0.01</speed>
  <fix>3d</fix>
</trkpt>
<trkpt lat="40.0728413" lon="-105.2308475">
  <ele>1595.48</ele>
  <time>2026-08-28T19:11:12Z</time>
  <course>64.64</course>
  <speed>0.0</speed>
  <fix>3d</fix>
</trkpt>
<trkpt lat="40.0728411" lon="-105.2308477">
  <ele>1595.43</ele>
  <time>2026-08-28T19:11:12Z</time>
  <course>218.75</course>
  <speed>0.01</speed>
  <fix>3d</fix>
</trkpt>
<trkpt lat="40.0728412" lon="-105.2308476">
  <ele>1595.48</ele>
  <time>2026-08-28T19:11:12Z</time>
  <course>64.68</course>
  <speed>0.0</speed>
  <fix>3d</fix>
</trkpt>
<trkpt lat="40.0728411" lon="-105.2308477">
  <ele>1595.43</ele>
  <time>2026-08-28T19:11:12Z</time>
  <course>202.31</course>
  <speed>0.02</speed>
  <fix>3d</fix>
</trkpt>
<trkpt lat="40.0728412" lon="-105.2308476">
  <ele>1595.48</ele>
  <time>2026-08-28T19:11:12Z</time>
  <course>64.68</course>
  <speed>0.0</speed>
  <fix>3d</fix>
</trkpt>
<trkpt lat="40.072841" lon="-105.2308477">
  <ele>1595.43</ele>
  <time>2026-08-28T19:11:12Z</time>
  <course>189.39</course>
  <speed>0.02</speed>
  <fix>3d</fix>
</trkpt>
<trkpt lat="40.0728412" lon="-105.2308476">
  <ele>1595.48</ele>
  <time>2026-08-28T19:11:12Z</time>
  <course>64.69</course>
  <speed>0.0</speed>
  <fix>3d</fix>
</trkpt>
<trkpt lat="40.0728409" lon="-105.2308478">
  <ele>1595.43</ele>
  <time>2026-08-28T19:11:12Z</time>
  <course>186.81</course>
  <speed>0.02</speed>
  <fix>3d</fix>
</trkpt>
<trkpt lat="40.0728411" lon="-105.2308476">
  <ele>1595.48</ele>
  <time>2026-08-28T19:11:12Z</time>
  <course>64.68</course>
  <speed>0.01</speed>
  <fix>3d</fix>
</trkpt>
<trkpt lat="40.0728409" lon="-105.2308479">
  <ele>1595.42</ele>
  <time>2026-08-28T19:11:12Z</time>
  <course>189.89</course>
  <speed>0.02</speed>
  <fix>3d</fix>
</trkpt>
<trkpt lat="40.0728411" lon="-105.2308476">
  <ele>1595.48</ele>
  <time>2026-08-28T19:11:12Z</time>
  <course>64.66</course>
  <speed>0.01</speed>
  <fix>3d</fix>
</trkpt>
<trkpt lat="40.0728408" lon="-105.2308479">
  <ele>1595.42</ele>
  <time>2026-08-28T19:11:12Z</time>
  <course>195.38</course>
  <speed>0.02</speed>
  <fix>3d</fix>
</trkpt>
<trkpt lat="40.072841" lon="-105.2308476">
  <ele>1595.47</ele>
  <time>2026-08-28T19:11:12Z</time>
  <course>64.64</course>
  <speed>0.01</speed>
  <fix>3d</fix>
</trkpt>
<trkpt lat="40.0728408" lon="-105.2308479">
  <ele>1595.42</ele>
  <time>2026-08-28T19:11:12Z</time>
  <course>200.65</course>
  <speed>0.02</speed>
  <fix>3d</fix>
</trkpt>
<trkpt lat="40.072841" lon="-105.2308476">
  <ele>1595.47</ele>
  <time>2026-08-28T19:11:12Z</time>
  <course>64.62</course>
  <speed>0.0</speed>
  <fix>3d</fix>
</trkpt>
<trkpt lat="40.0728408" lon="-105.2308479">
  <ele>1595.41</ele>
  <time>2026-08-28T19:11:12Z</time>
  <course>204.19</course>
  <speed>0.02</speed>
  <fix>3d</fix>
</trkpt>
<trkpt lat="40.0728409" lon="-105.2308477">
  <ele>1595.48</ele>
  <time>2026-08-28T19:11:12Z</time>
  <course>64.61</course>
  <speed>0.0</speed>
  <fix>3d</fix>
</trkpt>
<trkpt lat="40.0728408" lon="-105.2308479">
  <ele>1595.41</ele>
  <time>2026-08-28T19:11:12Z</time>
  <course>206.07</course>
  <speed>0.01</speed>
  <fix>3d</fix>
</trkpt>
<trkpt lat="40.0728409" lon="-105.2308477">
  <ele>1595.48</ele>
  <time>2026-08-28T19:11:12Z</time>
  <course>64.62</course>
  <speed>0.0</speed>
  <fix>3d</fix>
</trkpt>
<trkpt lat="40.0728407" lon="-105.2308479">
  <ele>1595.41</ele>
  <time>2026-08-28T19:11:12Z</time>
  <course>206.73</course>
  <speed>0.01</speed>
  <fix>3d</fix>
</trkpt>
<trkpt lat="40.0728408" lon="-105.2308477">
  <ele>1595.48</ele>
  <time>2026-08-28T19:11:12Z</time>
  <course>64.63</course>
  <speed>0.0</speed>
  <fix>3d</fix>
</trkpt>
<trkpt lat="40.0728407" lon="-105.230848">
  <ele>1595.41</ele>
  <time>2026-08-28T19:11:12Z</time>
  <course>206.97</course>
  <speed>0.01</speed>
  <fix>3d</fix>
</trkpt>
<trkpt lat="40.0728408" lon="-105.2308477">
  <ele>1595.47</ele>
  <time>2026-08-28T19:11:12Z</time>
  <course>64.64</course>
  <speed>0.0</speed>
  <fix>3d</fix>
</trkpt>
<trkpt lat="40.0728407" lon="-105.230848">
  <ele>1595.41</ele>
  <time>2026-08-28T19:11:12Z</time>
  <course>206.75</course>
  <speed>0.01</speed>
  <fix>3d</fix>
</trkpt>
<trkpt lat="40.0728408" lon="-105.2308478">
  <ele>1595.47</ele>
  <time>2026-08-28T19:11:12Z</time>
  <course>64.62</course>
  <speed>0.0</speed>
  <fix>3d</fix>
</trkpt>
<trkpt lat="40.0728406" lon="-105.230848">
  <ele>1595.4</ele>
  <time>2026-08-28T19:11:12Z</time>
  <course>204.71</course>
  <speed>0.01</speed>
  <fix>3d</fix>
</trkpt>
<trkpt lat="40.0728408" lon="-105.2308478">
  <ele>1595.46</ele>
  <time>2026-08-28T19:11:12Z</time>
  <course>64.62</course>
  <speed>0.0</speed>
  <fix>3d</fix>
</trkpt>
<trkpt lat="40.0728406" lon="-105.230848">
  <ele>1595.4</ele>
  <time>2026-08-28T19:11:12Z</time>
  <course>201.14</course>
  <speed>0.02</speed>
  <fix>3d</fix>
</trkpt>
<trkpt lat="40.0728407" lon="-105.2308478">
  <ele>1595.46</ele>
  <time>2026-08-28T19:11:12Z</time>
  <course>64.62</course>
  <speed>0.0</speed>
  <fix>3d</fix>
</trkpt>
<trkpt lat="40.0728406" lon="-105.230848">
  <ele>1595.4</ele>
  <time>2026-08-28T19:11:12Z</time>
  <course>197.29</course>
  <speed>0.02</speed>
  <fix>3d</fix>
</trkpt>
<trkpt lat="40.0728407" lon="-105.2308478">
  <ele>1595.46</ele>
  <time>2026-08-28T19:11:12Z</time>
  <course>64.62</course>
  <speed>0.0</speed>
  <fix>3d</fix>
</trkpt>
<trkpt lat="40.0728405" lon="-105.230848">
  <ele>1595.4</ele>
  <time>2026-08-28T19:11:12Z</time>
  <course>194.27</course>
  <speed>0.02</speed>
  <fix>3d</fix>
</trkpt>
<trkpt lat="40.0728406" lon="-105.2308478">
  <ele>1595.46</ele>
  <time>2026-08-28T19:11:12Z</time>
  <course>64.62</course>
  <speed>0.0</speed>
  <fix>3d</fix>
</trkpt>
<trkpt lat="40.0728405" lon="-105.230848">
  <ele>1595.4</ele>
  <time>2026-08-28T19:11:12Z</time>
  <course>193.44</course>
  <speed>0.02</speed>
  <fix>3d</fix>
</trkpt>
<trkpt lat="40.0728406" lon="-105.2308479">
  <ele>1595.46</ele>
  <time>2026-08-28T19:11:12Z</time>
  <course>64.62</course>
  <speed>0.0</speed>
  <fix>3d</fix>
</trkpt>
<trkpt lat="40.0728404" lon="-105.230848">
  <ele>1595.4</ele>
  <time>2026-08-28T19:11:12Z</time>
  <course>195.23</course>
  <speed>0.02</speed>
  <fix>3d</fix>
</trkpt>
<trkpt lat="40.0728406" lon="-105.2308479">
  <ele>1595.46</ele>
  <time>2026-08-28T19:11:12Z</time>
  <course>64.62</course>
  <speed>0.0</speed>
  <fix>3d</fix>
</trkpt>
<trkpt lat="40.0728403" lon="-105.230848">
  <ele>1595.4</ele>
  <time>2026-08-28T19:11:12Z</time>
  <course>199.06</course>
  <speed>0.02</speed>
  <fix>3d</fix>
</trkpt>
<trkpt lat="40.0728405" lon="-105.2308479">
  <ele>1595.46</ele>
  <time>2026-08-28T19:11:12Z</time>
  <course>64.62</course>
  <speed>0.0</speed>
  <fix>3d</fix>
</trkpt>
<trkpt lat="40.0728403" lon="-105.230848">
  <ele>1595.4</ele>
  <time>2026-08-28T19:11:12Z</time>
  <course>201.24</course>
  <speed>0.02</speed>
  <fix>3d</fix>
</trkpt>
<trkpt lat="40.0728405" lon="-105.2308479">
  <ele>1595.46</ele>
  <time>2026-08-28T19:11:12Z</time>
  <course>64.64</course>
  <speed>0.0</speed>
  <fix>3d</fix>
</trkpt>
<trkpt lat="40.0728403" lon="-105.230848">
  <ele>1595.41</ele>
  <time>2026-08-28T19:11:12Z</time>
  <course>198.59</course>
  <speed>0.02</speed>
  <fix>3d</fix>
</trkpt>
<trkpt lat="40.0728404" lon="-105.2308479">
  <ele>1595.47</ele>
  <time>2026-08-28T19:11:12Z</time>
  <course>64.63</course>
  <speed>0.0</speed>
  <fix>3d</fix>
</trkpt>
<trkpt lat="40.0728402" lon="-105.230848">
  <ele>1595.41</ele>
  <time>2026-08-28T19:11:12Z</time>
  <course>196.35</course>
  <speed>0.02</speed>
  <fix>3d</fix>
</trkpt>
<trkpt lat="40.0728404" lon="-105.2308479">
  <ele>1595.47</ele>
  <time>2026-08-28T19:11:12Z</time>
  <course>64.62</course>
  <speed>0.0</speed>
  <fix>3d</fix>
</trkpt>
<trkpt lat="40.0728402" lon="-105.2308481">
  <ele>1595.41</ele>
  <time>2026-08-28T19:11:12Z</time>
  <course>198.32</course>
  <speed>0.02</speed>
  <fix>3d</fix>
</trkpt>
<trkpt lat="40.0728404" lon="-105.2308479">
  <ele>1595.47</ele>
  <time>2026-08-28T19:11:12Z</time>
  <course>64.63</course>
  <speed>0.0</speed>
  <fix>3d</fix>
</trkpt>
<trkpt lat="40.0728402" lon="-105.2308482">
  <ele>1595.41</ele>
  <time>2026-08-28T19:11:12Z</time>
  <course>200.09</course>
  <speed>0.02</speed>
  <fix>3d</fix>
</trkpt>
<trkpt lat="40.0728403" lon="-105.2308479">
  <ele>1595.47</ele>
  <time>2026-08-28T19:11:12Z</time>
  <course>64.63</course>
  <speed>0.0</speed>
  <fix>3d</fix>
</trkpt>
<trkpt lat="40.0728402" lon="-105.2308482">
  <ele>1595.41</ele>
  <time>2026-08-28T19:11:12Z</time>
  <course>197.98</course>
  <speed>0.02</speed>
  <fix>3d</fix>
</trkpt>
<trkpt lat="40.0728403" lon="-105.2308479">
  <ele>1595.47</ele>
  <time>2026-08-28T19:11:12Z</time>
  <course>64.63</course>
  <speed>0.0</speed>
  <fix>3d</fix>
</trkpt>
<trkpt lat="40.0728401" lon="-105.2308482">
  <ele>1595.41</ele>
  <time>2026-08-28T19:11:12Z</time>
  <course>198.27</course>
  <speed>0.02</speed>
  <fix>3d</fix>
</trkpt>
<trkpt lat="40.0728402" lon="-105.230848">
  <ele>1595.47</ele>
  <time>2026-08-28T19:11:12Z</time>
  <course>64.64</course>
  <speed>0.0</speed>
  <fix>3d</fix>
</trkpt>
<trkpt lat="40.0728401" lon="-105.2308482">
  <ele>1595.41</ele>
  <time>2026-08-28T19:11:12Z</time>
  <course>199.23</course>
  <speed>0.02</speed>
  <fix>3d</fix>
</trkpt>
<trkpt lat="40.0728402" lon="-105.230848">
  <ele>1595.47</ele>
  <time>2026-08-28T19:11:12Z</time>
  <course>64.64</course>
  <speed>0.0</speed>
  <fix>3d</fix>
</trkpt>
<trkpt lat="40.0728401" lon="-105.2308482">
  <ele>1595.41</ele>
  <time>2026-08-28T19:11:12Z</time>
  <course>198.45</course>
  <speed>0.02</speed>
  <fix>3d</fix>
</trkpt>
<trkpt lat="40.0728402" lon="-105.230848">
  <ele>1595.47</ele>
  <time>2026-08-28T19:11:12Z</time>
  <course>64.64</course>
  <speed>0.0</speed>
  <fix>3d</fix>
</trkpt>
<trkpt lat="40.07284" lon="-105.2308482">
  <ele>1595.41</ele>
  <time>2026-08-28T19:11:12Z</time>
  <course>198.78</course>
  <speed>0.02</speed>
  <fix>3d</fix>
</trkpt>
<trkpt lat="40.0728402" lon="-105.230848">
  <ele>1595.48</ele>
  <time>2026-08-28T19:11:12Z</time>
  <course>64.65</course>
  <speed>0.0</speed>
  <fix>3d</fix>
</trkpt>
<trkpt lat="40.07284" lon="-105.2308482">
  <ele>1595.41</ele>
  <time>2026-08-28T19:11:12Z</time>
  <course>198.78</course>
  <speed>0.02</speed>
  <fix>3d</fix>
</trkpt>
<trkpt lat="40.0728401" lon="-105.230848">
  <ele>1595.48</ele>
  <time>2026-08-28T19:11:12Z</time>
  <course>64.65</course>
  <speed>0.0</speed>
  <fix>3d</fix>
</trkpt>
<trkpt lat="40.07284" lon="-105.2308482">
  <ele>1595.41</ele>
  <time>2026-08-28T19:11:12Z</time>
  <course>198.01</course>
  <speed>0.02</speed>
  <fix>3d</fix>
</trkpt>
<trkpt lat="40.0728401" lon="-105.2308481">
  <ele>1595.48</ele>
  <time>2026-08-28T19:11:12Z</time>
  <course>64.66</course>
  <speed>0.0</speed>
  <fix>3d</fix>
</trkpt>
<trkpt lat="40.0728399" lon="-105.2308482">
  <ele>1595.41</ele>
  <time>2026-08-28T19:11:12Z</time>
  <course>196.88</course>
  <speed>0.02</speed>
  <fix>3d</fix>
</trkpt>
<trkpt lat="40.0728401" lon="-105.2308481">
  <ele>1595.48</ele>
  <time>2026-08-28T19:11:12Z</time>
  <course>64.67</course>
  <speed>0.0</speed>
  <fix>3d</fix>
</trkpt>
<trkpt lat="40.0728399" lon="-105.2308482">
  <ele>1595.4</ele>
  <time>2026-08-28T19:11:12Z</time>
  <course>197.03</course>
  <speed>0.02</speed>
  <fix>3d</fix>
</trkpt>
<trkpt lat="40.07284" lon="-105.2308481">
  <ele>1595.47</ele>
  <time>2026-08-28T19:11:12Z</time>
  <course>64.65</course>
  <speed>0.0</speed>
  <fix>3d</fix>
</trkpt>
<trkpt lat="40.0728399" lon="-105.2308482">
  <ele>1595.4</ele>
  <time>2026-08-28T19:11:12Z</time>
  <course>197.77</course>
  <speed>0.01</speed>
  <fix>3d</fix>
</trkpt>
<trkpt lat="40.07284" lon="-105.2308481">
  <ele>1595.47</ele>
  <time>2026-08-28T19:11:12Z</time>
  <course>64.63</course>
  <speed>0.01</speed>
  <fix>3d</fix>
</trkpt>
<trkpt lat="40.0728398" lon="-105.2308482">
  <ele>1595.4</ele>
  <time>2026-08-28T19:11:12Z</time>
  <course>195.87</course>
  <speed>0.01</speed>
  <fix>3d</fix>
</trkpt>
<trkpt lat="40.07284" lon="-105.2308481">
  <ele>1595.47</ele>
  <time>2026-08-28T19:11:12Z</time>
  <course>64.62</course>
  <speed>0.01</speed>
  <fix>3d</fix>
</trkpt>
<trkpt lat="40.0728397" lon="-105.2308483">
  <ele>1595.4</ele>
  <time>2026-08-28T19:11:12Z</time>
  <course>192.22</course>
  <speed>0.01</speed>
  <fix>3d</fix>
</trkpt>
<trkpt lat="40.0728399" lon="-105.2308481">
  <ele>1595.47</ele>
  <time>2026-08-28T19:11:12Z</time>
  <course>64.62</course>
  <speed>0.01</speed>
  <fix>3d</fix>
</trkpt>
<trkpt lat="40.0728397" lon="-105.2308484">
  <ele>1595.4</ele>
  <time>2026-08-28T19:11:12Z</time>
  <course>188.42</course>
  <speed>0.01</speed>
  <fix>3d</fix>
</trkpt>
<trkpt lat="40.0728399" lon="-105.2308481">
  <ele>1595.47</ele>
  <time>2026-08-28T19:11:12Z</time>
  <course>64.63</course>
  <speed>0.01</speed>
  <fix>3d</fix>
</trkpt>
<trkpt lat="40.0728397" lon="-105.2308484">
  <ele>1595.4</ele>
  <time>2026-08-28T19:11:12Z</time>
  <course>184.85</course>
  <speed>0.01</speed>
  <fix>3d</fix>
</trkpt>
<trkpt lat="40.0728399" lon="-105.2308481">
  <ele>1595.47</ele>
  <time>2026-08-28T19:11:12Z</time>
  <course>64.64</course>
  <speed>0.01</speed>
  <fix>3d</fix>
</trkpt>
<trkpt lat="40.0728396" lon="-105.2308484">
  <ele>1595.4</ele>
  <time>2026-08-28T19:11:12Z</time>
  <course>181.13</course>
  <speed>0.01</speed>
  <fix>3d</fix>
</trkpt>
<trkpt lat="40.0728398" lon="-105.2308481">
  <ele>1595.47</ele>
  <time>2026-08-28T19:11:12Z</time>
  <course>64.64</course>
  <speed>0.01</speed>
  <fix>3d</fix>
</trkpt>
<trkpt lat="40.0728396" lon="-105.2308484">
  <ele>1595.39</ele>
  <time>2026-08-28T19:11:12Z</time>
  <course>176.97</course>
  <speed>0.01</speed>
  <fix>3d</fix>
</trkpt>
<trkpt lat="40.0728398" lon="-105.2308481">
  <ele>1595.46</ele>
  <time>2026-08-28T19:11:12Z</time>
  <course>64.64</course>
  <speed>0.01</speed>
  <fix>3d</fix>
</trkpt>
<trkpt lat="40.0728396" lon="-105.2308484">
  <ele>1595.39</ele>
  <time>2026-08-28T19:11:12Z</time>
  <course>173.42</course>
  <speed>0.01</speed>
  <fix>3d</fix>
</trkpt>
<trkpt lat="40.0728397" lon="-105.2308482">
  <ele>1595.45</ele>
  <time>2026-08-28T19:11:12Z</time>
  <course>64.63</course>
  <speed>0.01</speed>
  <fix>3d</fix>
</trkpt>
<trkpt lat="40.0728395" lon="-105.2308484">
  <ele>1595.39</ele>
  <time>2026-08-28T19:11:12Z</time>
  <course>171.08</course>
  <speed>0.01</speed>
  <fix>3d</fix>
</trkpt>
<trkpt lat="40.0728397" lon="-105.2308482">
  <ele>1595.45</ele>
  <time>2026-08-28T19:11:12Z</time>
  <course>64.61</course>
  <speed>0.01</speed>
  <fix>3d</fix>
</trkpt>
<trkpt lat="40.0728395" lon="-105.2308484">
  <ele>1595.39</ele>
  <time>2026-08-28T19:11:12Z</time>
  <course>168.58</course>
  <speed>0.01</speed>
  <fix>3d</fix>
</trkpt>
<trkpt lat="40.0728397" lon="-105.2308482">
  <ele>1595.45</ele>
  <time>2026-08-28T19:11:12Z</time>
  <course>64.62</course>
  <speed>0.01</speed>
  <fix>3d</fix>
</trkpt>
<trkpt lat="40.0728395" lon="-105.2308484">
  <ele>1595.39</ele>
  <time>2026-08-28T19:11:12Z</time>
  <course>164.9</course>
  <speed>0.01</speed>
  <fix>3d</fix>
</trkpt>
<trkpt lat="40.0728396" lon="-105.2308482">
  <ele>1595.45</ele>
  <time>2026-08-28T19:11:12Z</time>
  <course>64.61</course>
  <speed>0.01</speed>
  <fix>3d</fix>
</trkpt>
<trkpt lat="40.0728395" lon="-105.2308484">
  <ele>1595.39</ele>
  <time>2026-08-28T19:11:12Z</time>
  <course>160.81</course>
  <speed>0.01</speed>
  <fix>3d</fix>
</trkpt>
<trkpt lat="40.0728396" lon="-105.2308482">
  <ele>1595.45</ele>
  <time>2026-08-28T19:11:12Z</time>
  <course>64.6</course>
  <speed>0.01</speed>
  <fix>3d</fix>
</trkpt>
<trkpt lat="40.0728395" lon="-105.2308484">
  <ele>1595.4</ele>
  <time>2026-08-28T19:11:12Z</time>
  <course>157.32</course>
  <speed>0.01</speed>
  <fix>3d</fix>
</trkpt>
<trkpt lat="40.0728396" lon="-105.2308482">
  <ele>1595.46</ele>
  <time>2026-08-28T19:11:12Z</time>
  <course>64.6</course>
  <speed>0.02</speed>
  <fix>3d</fix>
</trkpt>
<trkpt lat="40.0728395" lon="-105.2308484">
  <ele>1595.4</ele>
  <time>2026-08-28T19:11:12Z</time>
  <course>154.06</course>
  <speed>0.01</speed>
  <fix>3d</fix>
</trkpt>
<trkpt lat="40.0728396" lon="-105.2308482">
  <ele>1595.46</ele>
  <time>2026-08-28T19:11:12Z</time>
  <course>64.62</course>
  <speed>0.02</speed>
  <fix>3d</fix>
</trkpt>
<trkpt lat="40.0728394" lon="-105.2308484">
  <ele>1595.4</ele>
  <time>2026-08-28T19:11:12Z</time>
  <course>150.6</course>
  <speed>0.01</speed>
  <fix>3d</fix>
</trkpt>
<trkpt lat="40.0728396" lon="-105.2308482">
  <ele>1595.46</ele>
  <time>2026-08-28T19:11:12Z</time>
  <course>64.61</course>
  <speed>0.0316227766016838</speed>
  <fix>3d</fix>
</trkpt>
<trkpt lat="40.0728394" lon="-105.2308483">
  <ele>1595.41</ele>
  <time>2026-08-28T19:11:12Z</time>
  <course>127.35</course>
  <speed>0.0</speed>
  <fix>3d</fix>
</trkpt>
<trkpt lat="40.0728396" lon="-105.2308482">
  <ele>1595.46</ele>
  <time>2026-08-28T19:11:12Z</time>
  <course>64.7</course>
  <speed>0.03</speed>
  <fix>3d</fix>
</trkpt>
<trkpt lat="40.0728394" lon="-105.2308482">
  <ele>1595.41</ele>
  <time>2026-08-28T19:11:12Z</time>
  <course>58.51</course>
  <speed>0.0</speed>
  <fix>3d</fix>
</trkpt>
<trkpt lat="40.0728396" lon="-105.2308482">
  <ele>1595.47</ele>
  <time>2026-08-28T19:11:12Z</time>
  <course>64.76</course>
  <speed>0.01414213562373095</speed>
  <fix>3d</fix>
</trkpt>
<trkpt lat="40.0728394" lon="-105.2308482">
  <ele>1595.41</ele>
  <time>2026-08-28T19:11:12Z</time>
  <course>6.23</course>
  <speed>0.0</speed>
  <fix>3d</fix>
</trkpt>
<trkpt lat="40.0728396" lon="-105.2308482">
  <ele>1595.47</ele>
  <time>2026-08-28T19:11:12Z</time>
  <course>64.67</course>
  <speed>0.02</speed>
  <fix>3d</fix>
</trkpt>
<trkpt lat="40.0728394" lon="-105.2308483">
  <ele>1595.41</ele>
  <time>2026-08-28T19:11:12Z</time>
  <course>317.6</course>
  <speed>0.01</speed>
  <fix>3d</fix>
</trkpt>
<trkpt lat="40.0728396" lon="-105.2308482">
  <ele>1595.47</ele>
  <time>2026-08-28T19:11:12Z</time>
  <course>64.68</course>
  <speed>0.02</speed>
  <fix>3d</fix>
</trkpt>
<trkpt lat="40.0728394" lon="-105.2308484">
  <ele>1595.42</ele>
  <time>2026-08-28T19:11:12Z</time>
  <course>287.15</course>
  <speed>0.01</speed>
  <fix>3d</fix>
</trkpt>
<trkpt lat="40.0728396" lon="-105.2308482">
  <ele>1595.47</ele>
  <time>2026-08-28T19:11:12Z</time>
  <course>64.76</course>
  <speed>0.0</speed>
  <fix>3d</fix>
</trkpt>
<trkpt lat="40.0728394" lon="-105.2308484">
  <ele>1595.42</ele>
  <time>2026-08-28T19:11:12Z</time>
  <course>194.85</course>
  <speed>0.01</speed>
  <fix>3d</fix>
</trkpt>
<trkpt lat="40.0728396" lon="-105.2308482">
  <ele>1595.48</ele>
  <time>2026-08-28T19:11:12Z</time>
  <course>64.79</course>
  <speed>0.01</speed>
  <fix>3d</fix>
</trkpt>
<trkpt lat="40.0728394" lon="-105.2308484">
  <ele>1595.42</ele>
  <time>2026-08-28T19:11:12Z</time>
  <course>185.52</course>
  <speed>0.01</speed>
  <fix>3d</fix>
</trkpt>
<trkpt lat="40.0728395" lon="-105.2308482">
  <ele>1595.48</ele>
  <time>2026-08-28T19:11:12Z</time>
  <course>64.71</course>
  <speed>0.0</speed>
  <fix>3d</fix>
</trkpt>
<trkpt lat="40.0728394" lon="-105.2308484">
  <ele>1595.42</ele>
  <time>2026-08-28T19:11:12Z</time>
  <course>219.3</course>
  <speed>0.01</speed>
  <fix>3d</fix>
</trkpt>
<trkpt lat="40.0728395" lon="-105.2308482">
  <ele>1595.48</ele>
  <time>2026-08-28T19:11:12Z</time>
  <course>64.72</course>
  <speed>0.01</speed>
  <fix>3d</fix>
</trkpt>
<trkpt lat="40.0728393" lon="-105.2308484">
  <ele>1595.41</ele>
  <time>2026-08-28T19:11:12Z</time>
  <course>210.17</course>
  <speed>0.01</speed>
  <fix>3d</fix>
</trkpt>
<trkpt lat="40.0728395" lon="-105.2308482">
  <ele>1595.49</ele>
  <time>2026-08-28T19:11:12Z</time>
  <course>64.8</course>
  <speed>0.01</speed>
  <fix>3d</fix>
</trkpt>
<trkpt lat="40.0728393" lon="-105.2308484">
  <ele>1595.41</ele>
  <time>2026-08-28T19:11:12Z</time>
  <course>177.79</course>
  <speed>0.02</speed>
  <fix>3d</fix>
</trkpt>
<trkpt lat="40.0728395" lon="-105.2308482">
  <ele>1595.49</ele>
  <time>2026-08-28T19:11:12Z</time>
  <course>64.85</course>
  <speed>0.01</speed>
  <fix>3d</fix>
</trkpt>
<trkpt lat="40.0728393" lon="-105.2308484">
  <ele>1595.41</ele>
  <time>2026-08-28T19:11:12Z</time>
  <course>176.58</course>
  <speed>0.02</speed>
  <fix>3d</fix>
</trkpt>
<trkpt lat="40.0728394" lon="-105.2308482">
  <ele>1595.49</ele>
  <time>2026-08-28T19:11:12Z</time>
  <course>64.79</course>
  <speed>0.0</speed>
  <fix>3d</fix>
</trkpt>
<trkpt lat="40.0728393" lon="-105.2308484">
  <ele>1595.4</ele>
  <time>2026-08-28T19:11:12Z</time>
  <course>202.08</course>
  <speed>0.01</speed>
  <fix>3d</fix>
</trkpt>
<trkpt lat="40.0728394" lon="-105.2308482">
  <ele>1595.49</ele>
  <time>2026-08-28T19:11:12Z</time>
  <course>64.8</course>
  <speed>0.01</speed>
  <fix>3d</fix>
</trkpt>
<trkpt lat="40.0728392" lon="-105.2308484">
  <ele>1595.4</ele>
  <time>2026-08-28T19:11:12Z</time>
  <course>200.04</course>
  <speed>0.01</speed>
  <fix>3d</fix>
</trkpt>
<trkpt lat="40.0728394" lon="-105.2308482">
  <ele>1595.48</ele>
  <time>2026-08-28T19:11:12Z</time>
  <course>64.85</course>
  <speed>0.01</speed>
  <fix>3d</fix>
</trkpt>
<trkpt lat="40.0728392" lon="-105.2308484">
  <ele>1595.39</ele>
  <time>2026-08-28T19:11:12Z</time>
  <course>176.89</course>
  <speed>0.02</speed>
  <fix>3d</fix>
</trkpt>
<trkpt lat="40.0728393" lon="-105.2308482">
  <ele>1595.48</ele>
  <time>2026-08-28T19:11:12Z</time>
  <course>64.85</course>
  <speed>0.01</speed>
  <fix>3d</fix>
</trkpt>
<trkpt lat="40.0728392" lon="-105.2308484">
  <ele>1595.39</ele>
  <time>2026-08-28T19:11:12Z</time>
  <course>176.48</course>
  <speed>0.02</speed>
  <fix>3d</fix>
</trkpt>
<trkpt lat="40.0728393" lon="-105.2308482">
  <ele>1595.48</ele>
  <time>2026-08-28T19:11:12Z</time>
  <course>64.72</course>
  <speed>0.0</speed>
  <fix>3d</fix>
</trkpt>
<trkpt lat="40.0728391" lon="-105.2308484">
  <ele>1595.38</ele>
  <time>2026-08-28T19:11:12Z</time>
  <course>199.92</course>
  <speed>0.01</speed>
  <fix>3d</fix>
</trkpt>
<trkpt lat="40.0728393" lon="-105.2308482">
  <ele>1595.47</ele>
  <time>2026-08-28T19:11:12Z</time>
  <course>64.73</course>
  <speed>0.01</speed>
  <fix>3d</fix>
</trkpt>
<trkpt lat="40.072839" lon="-105.2308484">
  <ele>1595.38</ele>
  <time>2026-08-28T19:11:12Z</time>
  <course>199.18</course>
  <speed>0.01</speed>
  <fix>3d</fix>
</trkpt>
<trkpt lat="40.0728392" lon="-105.2308482">
  <ele>1595.46</ele>
  <time>2026-08-28T19:11:12Z</time>
  <course>64.77</course>
  <speed>0.01</speed>
  <fix>3d</fix>
</trkpt>
<trkpt lat="40.072839" lon="-105.2308484">
  <ele>1595.38</ele>
  <time>2026-08-28T19:11:12Z</time>
  <course>178.17</course>
  <speed>0.02</speed>
  <fix>3d</fix>
</trkpt>
<trkpt lat="40.0728392" lon="-105.2308482">
  <ele>1595.46</ele>
  <time>2026-08-28T19:11:12Z</time>
  <course>64.77</course>
  <speed>0.01414213562373095</speed>
  <fix>3d</fix>
</trkpt>
<trkpt lat="40.0728389" lon="-105.2308484">
  <ele>1595.37</ele>
  <time>2026-08-28T19:11:12Z</time>
  <course>178.51</course>
  <speed>0.02</speed>
  <fix>3d</fix>
</trkpt>
<trkpt lat="40.0728391" lon="-105.2308483">
  <ele>1595.46</ele>
  <time>2026-08-28T19:11:12Z</time>
  <course>64.67</course>
  <speed>0.04</speed>
  <fix>3d</fix>
</trkpt>
<trkpt lat="40.0728389" lon="-105.2308484">
  <ele>1595.37</ele>
  <time>2026-08-28T19:11:12Z</time>
  <course>228.65</course>
  <speed>0.01</speed>
  <fix>3d</fix>
</trkpt>
<trkpt lat="40.0728391" lon="-105.2308483">
  <ele>1595.46</ele>
  <time>2026-08-28T19:11:12Z</time>
  <course>64.65</course>
  <speed>0.09055385138137417</speed>
  <fix>3d</fix>
</trkpt>
<trkpt lat="40.0728389" lon="-105.2308484">
  <ele>1595.37</ele>
  <time>2026-08-28T19:11:12Z</time>
  <course>330.22</course>
  <speed>0.03</speed>
  <fix>3d</fix>
</trkpt>
<trkpt lat="40.0728393" lon="-105.2308484">
  <ele>1595.46</ele>
  <time>2026-08-28T19:11:12Z</time>
  <course>64.64</course>
  <speed>0.11401754250991379</speed>
  <fix>3d</fix>
</trkpt>
<trkpt lat="40.072839" lon="-105.2308484">
  <ele>1595.37</ele>
  <time>2026-08-28T19:11:12Z</time>
  <course>336.78</course>
  <speed>0.08</speed>
  <fix>3d</fix>
</trkpt>
<trkpt lat="40.0728394" lon="-105.2308485">
  <ele>1595.46</ele>
  <time>2026-08-28T19:11:12Z</time>
  <course>64.62</course>
  <speed>0.11401754250991379</speed>
  <fix>3d</fix>
</trkpt>
<trkpt lat="40.0728391" lon="-105.2308485">
  <ele>1595.37</ele>
  <time>2026-08-28T19:11:12Z</time>
  <course>333.33</course>
  <speed>0.1</speed>
  <fix>3d</fix>
</trkpt>
<trkpt lat="40.0728396" lon="-105.2308486">
  <ele>1595.46</ele>
  <time>2026-08-28T19:11:12Z</time>
  <course>64.6</course>
  <speed>0.11704699910719625</speed>
  <fix>3d</fix>
</trkpt>
<trkpt lat="40.0728393" lon="-105.2308486">
  <ele>1595.38</ele>
  <time>2026-08-28T19:11:12Z</time>
  <course>330.2</course>
  <speed>0.11</speed>
  <fix>3d</fix>
</trkpt>
<trkpt lat="40.0728397" lon="-105.2308487">
  <ele>1595.46</ele>
  <time>2026-08-28T19:11:12Z</time>
  <course>64.6</course>
  <speed>0.1044030650891055</speed>
  <fix>3d</fix>
</trkpt>
<trkpt lat="40.0728395" lon="-105.2308487">
  <ele>1595.38</ele>
  <time>2026-08-28T19:11:12Z</time>
  <course>328.3</course>
  <speed>0.1</speed>
  <fix>3d</fix>
</trkpt>
<trkpt lat="40.0728399" lon="-105.2308488">
  <ele>1595.46</ele>
  <time>2026-08-28T19:11:12Z</time>
  <course>64.62</course>
  <speed>0.09486832980505139</speed>
  <fix>3d</fix>
</trkpt>
<trkpt lat="40.0728396" lon="-105.2308489">
  <ele>1595.38</ele>
  <time>2026-08-28T19:11:12Z</time>
  <course>327.61</course>
  <speed>0.09</speed>
  <fix>3d</fix>
</trkpt>
<trkpt lat="40.07284" lon="-105.2308489">
  <ele>1595.46</ele>
  <time>2026-08-28T19:11:12Z</time>
  <course>64.63</course>
  <speed>0.0824621125123532</speed>
  <fix>3d</fix>
</trkpt>
<trkpt lat="40.0728397" lon="-105.230849">
  <ele>1595.38</ele>
  <time>2026-08-28T19:11:12Z</time>
  <course>327.65</course>
  <speed>0.09</speed>
  <fix>3d</fix>
</trkpt>
<trkpt lat="40.0728401" lon="-105.230849">
  <ele>1595.46</ele>
  <time>2026-08-28T19:11:12Z</time>
  <course>64.63</course>
  <speed>0.0824621125123532</speed>
  <fix>3d</fix>
</trkpt>
<trkpt lat="40.0728399" lon="-105.2308491">
  <ele>1595.39</ele>
  <time>2026-08-28T19:11:12Z</time>
  <course>327.9</course>
  <speed>0.08</speed>
  <fix>3d</fix>
</trkpt>
<trkpt lat="40.0728402" lon="-105.2308491">
  <ele>1595.46</ele>
  <time>2026-08-28T19:11:12Z</time>
  <course>64.64</course>
  <speed>0.07280109889280519</speed>
  <fix>3d</fix>
</trkpt>
<trkpt lat="40.07284" lon="-105.2308492">
  <ele>1595.39</ele>
  <time>2026-08-28T19:11:12Z</time>
  <course>328.25</course>
  <speed>0.07</speed>
  <fix>3d</fix>
</trkpt>
<trkpt lat="40.0728403" lon="-105.2308492">
  <ele>1595.46</ele>
  <time>2026-08-28T19:11:12Z</time>
  <course>64.62</course>
  <speed>0.07071067811865475</speed>
  <fix>3d</fix>
</trkpt>
<trkpt lat="40.0728401" lon="-105.2308493">
  <ele>1595.39</ele>
  <time>2026-08-28T19:11:12Z</time>
  <course>328.74</course>
  <speed>0.06</speed>
  <fix>3d</fix>
</trkpt>
<trkpt lat="40.0728404" lon="-105.2308492">
  <ele>1595.46</ele>
  <time>2026-08-28T19:11:12Z</time>
  <course>64.63</course>
  <speed>0.06082762530298219</speed>
  <fix>3d</fix>
</trkpt>
<trkpt lat="40.0728402" lon="-105.2308494">
  <ele>1595.39</ele>
  <time>2026-08-28T19:11:12Z</time>
  <course>329.55</course>
  <speed>0.06</speed>
  <fix>3d</fix>
</trkpt>
<trkpt lat="40.0728405" lon="-105.2308493">
  <ele>1595.47</ele>
  <time>2026-08-28T19:11:12Z</time>
  <course>64.64</course>
  <speed>0.06082762530298219</speed>
  <fix>3d</fix>
</trkpt>
<trkpt lat="40.0728403" lon="-105.2308494">
  <ele>1595.39</ele>
  <time>2026-08-28T19:11:12Z</time>
  <course>330.64</course>
  <speed>0.05</speed>
  <fix>3d</fix>
</trkpt>
<trkpt lat="40.0728405" lon="-105.2308494">
  <ele>1595.47</ele>
  <time>2026-08-28T19:11:12Z</time>
  <course>64.65</course>
  <speed>0.05</speed>
  <fix>3d</fix>
</trkpt>
<trkpt lat="40.0728404" lon="-105.2308495">
  <ele>1595.39</ele>
  <time>2026-08-28T19:11:12Z</time>
  <course>331.9</course>
  <speed>0.05</speed>
  <fix>3d</fix>
</trkpt>
<trkpt lat="40.0728406" lon="-105.2308494">
  <ele>1595.47</ele>
  <time>2026-08-28T19:11:12Z</time>
  <course>64.65</course>
  <speed>0.05</speed>
  <fix>3d</fix>
</trkpt>
<trkpt lat="40.0728405" lon="-105.2308496">
  <ele>1595.4</ele>
  <time>2026-08-28T19:11:12Z</time>
  <course>333.44</course>
  <speed>0.04</speed>
  <fix>3d</fix>
</trkpt>
<trkpt lat="40.0728407" lon="-105.2308494">
  <ele>1595.48</ele>
  <time>2026-08-28T19:11:12Z</time>
  <course>64.69</course>
  <speed>0.05</speed>
  <fix>3d</fix>
</trkpt>
<trkpt lat="40.0728406" lon="-105.2308496">
  <ele>1595.4</ele>
  <time>2026-08-28T19:11:12Z</time>
  <course>335.27</course>
  <speed>0.04</speed>
  <fix>3d</fix>
</trkpt>
<trkpt lat="40.0728407" lon="-105.2308495">
  <ele>1595.48</ele>
  <time>2026-08-28T19:11:12Z</time>
  <course>64.68</course>
  <speed>0.05</speed>
  <fix>3d</fix>
</trkpt>
<trkpt lat="40.0728406" lon="-105.2308496">
  <ele>1595.4</ele>
  <time>2026-08-28T19:11:12Z</time>
  <course>337.64</course>
  <speed>0.03</speed>
  <fix>3d</fix>
</trkpt>
<trkpt lat="40.0728408" lon="-105.2308495">
  <ele>1595.48</ele>
  <time>2026-08-28T19:11:12Z</time>
  <course>64.74</course>
  <speed>0.06</speed>
  <fix>3d</fix>
</trkpt>
<trkpt lat="40.0728407" lon="-105.2308497">
  <ele>1595.4</ele>
  <time>2026-08-28T19:11:12Z</time>
  <course>341.86</course>
  <speed>0.04</speed>
  <fix>3d</fix>
</trkpt>
<trkpt lat="40.0728409" lon="-105.2308495">
  <ele>1595.48</ele>
  <time>2026-08-28T19:11:12Z</time>
  <course>64.71</course>
  <speed>0.07071067811865475</speed>
  <fix>3d</fix>
</trkpt>
<trkpt lat="40.0728408" lon="-105.2308498">
  <ele>1595.39</ele>
  <time>2026-08-28T19:11:12Z</time>
  <course>339.52</course>
  <speed>0.05</speed>
  <fix>3d</fix>
</trkpt>
<trkpt lat="40.072841" lon="-105.2308496">
  <ele>1595.48</ele>
  <time>2026-08-28T19:11:12Z</time>
  <course>64.81</course>
  <speed>0.04</speed>
  <fix>3d</fix>
</trkpt>
<trkpt lat="40.0728408" lon="-105.2308498">
  <ele>1595.39</ele>
  <time>2026-08-28T19:11:12Z</time>
  <course>330.34</course>
  <speed>0.03</speed>
  <fix>3d</fix>
</trkpt>
<trkpt lat="40.072841" lon="-105.2308496">
  <ele>1595.48</ele>
  <time>2026-08-28T19:11:12Z</time>
  <course>64.88</course>
  <speed>0.01</speed>
  <fix>3d</fix>
</trkpt>
<trkpt lat="40.0728409" lon="-105.2308498">
  <ele>1595.39</ele>
  <time>2026-08-28T19:11:12Z</time>
  <course>310.4</course>
  <speed>0.01</speed>
  <fix>3d</fix>
</trkpt>
<trkpt lat="40.072841" lon="-105.2308497">
  <ele>1595.48</ele>
  <time>2026-08-28T19:11:12Z</time>
  <course>64.78</course>
  <speed>0.01</speed>
  <fix>3d</fix>
</trkpt>
<trkpt lat="40.0728409" lon="-105.2308499">
  <ele>1595.39</ele>
  <time>2026-08-28T19:11:12Z</time>
  <course>308.55</course>
  <speed>0.01</speed>
  <fix>3d</fix>
</trkpt>
<trkpt lat="40.072841" lon="-105.2308497">
  <ele>1595.47</ele>
  <time>2026-08-28T19:11:12Z</time>
  <course>64.74</course>
  <speed>0.02</speed>
  <fix>3d</fix>
</trkpt>
<trkpt lat="40.0728409" lon="-105.2308499">
  <ele>1595.38</ele>
  <time>2026-08-28T19:11:12Z</time>
  <course>300.81</course>
  <speed>0.01</speed>
  <fix>3d</fix>
</trkpt>
<trkpt lat="40.072841" lon="-105.2308497">
  <ele>1595.47</ele>
  <time>2026-08-28T19:11:12Z</time>
  <course>64.83</course>
  <speed>0.01</speed>
  <fix>3d</fix>
</trkpt>
<trkpt lat="40.0728409" lon="-105.2308499">
  <ele>1595.38</ele>
  <time>2026-08-28T19:11:12Z</time>
  <course>196.98</course>
  <speed>0.01</speed>
  <fix>3d</fix>
</trkpt>
<trkpt lat="40.072841" lon="-105.2308497">
  <ele>1595.47</ele>
  <time>2026-08-28T19:11:12Z</time>
  <course>64.85</course>
  <speed>0.01</speed>
  <fix>3d</fix>
</trkpt>
<trkpt lat="40.0728409" lon="-105.2308499">
  <ele>1595.38</ele>
  <time>2026-08-28T19:11:12Z</time>
  <course>173.35</course>
  <speed>0.01</speed>
  <fix>3d</fix>
</trkpt>
<trkpt lat="40.072841" lon="-105.2308497">
  <ele>1595.47</ele>
  <time>2026-08-28T19:11:12Z</time>
  <course>64.77</course>
  <speed>0.01</speed>
  <fix>3d</fix>
</trkpt>
<trkpt lat="40.0728409" lon="-105.2308499">
  <ele>1595.38</ele>
  <time>2026-08-28T19:11:12Z</time>
  <course>201.46</course>
  <speed>0.0</speed>
  <fix>3d</fix>
</trkpt>
<trkpt lat="40.072841" lon="-105.2308497">
  <ele>1595.47</ele>
  <time>2026-08-28T19:11:12Z</time>
  <course>64.72</course>
  <speed>0.02</speed>
  <fix>3d</fix>
</trkpt>
<trkpt lat="40.0728409" lon="-105.2308499">
  <ele>1595.38</ele>
  <time>2026-08-28T19:11:12Z</time>
  <course>230.38</course>
  <speed>0.0</speed>
  <fix>3d</fix>
</trkpt>
<trkpt lat="40.072841" lon="-105.2308497">
  <ele>1595.47</ele>
  <time>2026-08-28T19:11:12Z</time>
  <course>64.8</course>
  <speed>0.0</speed>
  <fix>3d</fix>
</trkpt>
<trkpt lat="40.0728409" lon="-105.2308499">
  <ele>1595.38</ele>
  <time>2026-08-28T19:11:12Z</time>
  <course>177.0</course>
  <speed>0.02</speed>
  <fix>3d</fix>
</trkpt>
<trkpt lat="40.072841" lon="-105.2308497">
  <ele>1595.47</ele>
  <time>2026-08-28T19:11:12Z</time>
  <course>64.86</course>
  <speed>0.01</speed>
  <fix>3d</fix>
</trkpt>
<trkpt lat="40.0728409" lon="-105.2308499">
  <ele>1595.38</ele>
  <time>2026-08-28T19:11:12Z</time>
  <course>171.2</course>
  <speed>0.02</speed>
  <fix>3d</fix>
</trkpt>
<trkpt lat="40.072841" lon="-105.2308497">
  <ele>1595.46</ele>
  <time>2026-08-28T19:11:12Z</time>
  <course>64.78</course>
  <speed>0.01</speed>
  <fix>3d</fix>
</trkpt>
<trkpt lat="40.0728408" lon="-105.2308499">
  <ele>1595.38</ele>
  <time>2026-08-28T19:11:12Z</time>
  <course>193.52</course>
  <speed>0.01</speed>
  <fix>3d</fix>
</trkpt>
<trkpt lat="40.0728409" lon="-105.2308497">
  <ele>1595.46</ele>
  <time>2026-08-28T19:11:12Z</time>
  <course>64.73</course>
  <speed>0.01</speed>
  <fix>3d</fix>
</trkpt>
<trkpt lat="40.0728408" lon="-105.2308499">
  <ele>1595.38</ele>
  <time>2026-08-28T19:11:12Z</time>
  <course>213.16</course>
  <speed>0.01</speed>
  <fix>3d</fix>
</trkpt>
<trkpt lat="40.0728409" lon="-105.2308497">
  <ele>1595.46</ele>
  <time>2026-08-28T19:11:12Z</time>
  <course>64.8</course>
  <speed>0.0</speed>
  <fix>3d</fix>
</trkpt>
<trkpt lat="40.0728408" lon="-105.2308499">
  <ele>1595.38</ele>
  <time>2026-08-28T19:11:12Z</time>
  <course>178.09</course>
  <speed>0.02</speed>
  <fix>3d</fix>
</trkpt>
<trkpt lat="40.0728409" lon="-105.2308498">
  <ele>1595.46</ele>
  <time>2026-08-28T19:11:12Z</time>
  <course>64.85</course>
  <speed>0.01414213562373095</speed>
  <fix>3d</fix>
</trkpt>
<trkpt lat="40.0728408" lon="-105.2308499">
  <ele>1595.38</ele>
  <time>2026-08-28T19:11:12Z</time>
  <course>173.03</course>
  <speed>0.02</speed>
  <fix>3d</fix>
</trkpt>
<trkpt lat="40.0728409" lon="-105.2308498">
  <ele>1595.46</ele>
  <time>2026-08-28T19:11:12Z</time>
  <course>64.75</course>
  <speed>0.01</speed>
  <fix>3d</fix>
</trkpt>
<trkpt lat="40.0728408" lon="-105.2308499">
  <ele>1595.38</ele>
  <time>2026-08-28T19:11:12Z</time>
  <course>194.23</course>
  <speed>0.01</speed>
  <fix>3d</fix>
</trkpt>
<trkpt lat="40.0728408" lon="-105.2308497">
  <ele>1595.46</ele>
  <time>2026-08-28T19:11:12Z</time>
  <course>64.72</course>
  <speed>0.01</speed>
  <fix>3d</fix>
</trkpt>
<trkpt lat="40.0728407" lon="-105.2308499">
  <ele>1595.38</ele>
  <time>2026-08-28T19:11:12Z</time>
  <course>212.49</course>
  <speed>0.01</speed>
  <fix>3d</fix>
</trkpt>
<trkpt lat="40.0728408" lon="-105.2308498">
  <ele>1595.46</ele>
  <time>2026-08-28T19:11:12Z</time>
  <course>64.8</course>
  <speed>0.0</speed>
  <fix>3d</fix>
</trkpt>
<trkpt lat="40.0728407" lon="-105.2308499">
  <ele>1595.38</ele>
  <time>2026-08-28T19:11:12Z</time>
  <course>180.72</course>
  <speed>0.02</speed>
  <fix>3d</fix>
</trkpt>
<trkpt lat="40.0728409" lon="-105.2308498">
  <ele>1595.46</ele>
  <time>2026-08-28T19:11:12Z</time>
  <course>64.7</course>
  <speed>0.06</speed>
  <fix>3d</fix>
</trkpt>
<trkpt lat="40.0728407" lon="-105.2308499">
  <ele>1595.38</ele>
  <time>2026-08-28T19:11:12Z</time>
  <course>244.69</course>
  <speed>0.0</speed>
  <fix>3d</fix>
</trkpt>
<trkpt lat="40.0728409" lon="-105.2308498">
  <ele>1595.47</ele>
  <time>2026-08-28T19:11:12Z</time>
  <course>64.66</course>
  <speed>0.1019803902718557</speed>
  <fix>3d</fix>
</trkpt>
<trkpt lat="40.0728407" lon="-105.2308499">
  <ele>1595.38</ele>
  <time>2026-08-28T19:11:12Z</time>
  <course>335.69</course>
  <speed>0.05</speed>
  <fix>3d</fix>
</trkpt>
<trkpt lat="40.072841" lon="-105.2308499">
  <ele>1595.47</ele>
  <time>2026-08-28T19:11:12Z</time>
  <course>64.65</course>
  <speed>0.12369316876852982</speed>
  <fix>3d</fix>
</trkpt>
<trkpt lat="40.0728407" lon="-105.23085">
  <ele>1595.39</ele>
  <time>2026-08-28T19:11:12Z</time>
  <course>335.76</course>
  <speed>0.09</speed>
  <fix>3d</fix>
</trkpt>
<trkpt lat="40.0728412" lon="-105.23085">
  <ele>1595.48</ele>
  <time>2026-08-28T19:11:12Z</time>
  <course>64.65</course>
  <speed>0.11704699910719625</speed>
  <fix>3d</fix>
</trkpt>
<trkpt lat="40.0728409" lon="-105.2308501">
  <ele>1595.39</ele>
  <time>2026-08-28T19:11:12Z</time>
  <course>332.49</course>
  <speed>0.1</speed>
  <fix>3d</fix>
</trkpt>
<trkpt lat="40.0728414" lon="-105.2308502">
  <ele>1595.48</ele>
  <time>2026-08-28T19:11:12Z</time>
  <course>64.64</course>
  <speed>0.11704699910719625</speed>
  <fix>3d</fix>
</trkpt>
<trkpt lat="40.0728411" lon="-105.2308503">
  <ele>1595.39</ele>
  <time>2026-08-28T19:11:12Z</time>
  <course>329.88</course>
  <speed>0.1</speed>
  <fix>3d</fix>
</trkpt>
<trkpt lat="40.0728415" lon="-105.2308503">
  <ele>1595.47</ele>
  <time>2026-08-28T19:11:12Z</time>
  <course>64.66</course>
  <speed>0.1044030650891055</speed>
  <fix>3d</fix>
</trkpt>
<trkpt lat="40.0728412" lon="-105.2308504">
  <ele>1595.39</ele>
  <time>2026-08-28T19:11:12Z</time>
  <course>328.59</course>
  <speed>0.1</speed>
  <fix>3d</fix>
</trkpt>
<trkpt lat="40.0728416" lon="-105.2308504">
  <ele>1595.47</ele>
  <time>2026-08-28T19:11:12Z</time>
  <course>64.65</course>
  <speed>0.09486832980505139</speed>
  <fix>3d</fix>
</trkpt>
<trkpt lat="40.0728414" lon="-105.2308505">
  <ele>1595.39</ele>
  <time>2026-08-28T19:11:12Z</time>
  <course>328.33</course>
  <speed>0.09</speed>
  <fix>3d</fix>
</trkpt>
<trkpt lat="40.0728418" lon="-105.2308505">
  <ele>1595.47</ele>
  <time>2026-08-28T19:11:12Z</time>
  <course>64.65</course>
  <speed>0.0824621125123532</speed>
  <fix>3d</fix>
</trkpt>
<trkpt lat="40.0728415" lon="-105.2308506">
  <ele>1595.38</ele>
  <time>2026-08-28T19:11:12Z</time>
  <course>328.8</course>
  <speed>0.08</speed>
  <fix>3d</fix>
</trkpt>
<trkpt lat="40.0728419" lon="-105.2308506">
  <ele>1595.47</ele>
  <time>2026-08-28T19:11:12Z</time>
  <course>64.65</course>
  <speed>0.0824621125123532</speed>
  <fix>3d</fix>
</trkpt>
<trkpt lat="40.0728416" lon="-105.2308507">
  <ele>1595.38</ele>
  <time>2026-08-28T19:11:12Z</time>
  <course>329.72</course>
  <speed>0.07</speed>
  <fix>3d</fix>
</trkpt>
<trkpt lat="40.072842" lon="-105.2308507">
  <ele>1595.48</ele>
  <time>2026-08-28T19:11:12Z</time>
  <course>64.67</course>
  <speed>0.07071067811865475</speed>
  <fix>3d</fix>
</trkpt>
<trkpt lat="40.0728417" lon="-105.2308508">
  <ele>1595.38</ele>
  <time>2026-08-28T19:11:12Z</time>
  <course>330.82</course>
  <speed>0.07</speed>
  <fix>3d</fix>
</trkpt>
<trkpt lat="40.072842" lon="-105.2308507">
  <ele>1595.48</ele>
  <time>2026-08-28T19:11:12Z</time>
  <course>64.68</course>
  <speed>0.07071067811865475</speed>
  <fix>3d</fix>
</trkpt>
<trkpt lat="40.0728418" lon="-105.2308509">
  <ele>1595.38</ele>
  <time>2026-08-28T19:11:12Z</time>
  <course>332.09</course>
  <speed>0.06</speed>
  <fix>3d</fix>
</trkpt>
<trkpt lat="40.0728421" lon="-105.2308508">
  <ele>1595.47</ele>
  <time>2026-08-28T19:11:12Z</time>
  <course>64.68</course>
  <speed>0.06082762530298219</speed>
  <fix>3d</fix>
</trkpt>
<trkpt lat="40.0728419" lon="-105.230851">
  <ele>1595.38</ele>
  <time>2026-08-28T19:11:12Z</time>
  <course>333.65</course>
  <speed>0.05</speed>
  <fix>3d</fix>
</trkpt>
<trkpt lat="40.0728422" lon="-105.2308508">
  <ele>1595.47</ele>
  <time>2026-08-28T19:11:12Z</time>
  <course>64.68</course>
  <speed>0.06</speed>
  <fix>3d</fix>
</trkpt>
<trkpt lat="40.072842" lon="-105.230851">
  <ele>1595.38</ele>
  <time>2026-08-28T19:11:12Z</time>
  <course>335.52</course>
  <speed>0.05</speed>
  <fix>3d</fix>
</trkpt>
<trkpt lat="40.0728423" lon="-105.2308509">
  <ele>1595.47</ele>
  <time>2026-08-28T19:11:12Z</time>
  <course>64.66</course>
  <speed>0.05</speed>
  <fix>3d</fix>
</trkpt>
<trkpt lat="40.0728421" lon="-105.2308511">
  <ele>1595.38</ele>
  <time>2026-08-28T19:11:12Z</time>
  <course>337.75</course>
  <speed>0.04</speed>
  <fix>3d</fix>
</trkpt>
<trkpt lat="40.0728423" lon="-105.2308509">
  <ele>1595.46</ele>
  <time>2026-08-28T19:11:12Z</time>
  <course>64.66</course>
  <speed>0.05</speed>
  <fix>3d</fix>
</trkpt>
<trkpt lat="40.0728422" lon="-105.2308511">
  <ele>1595.38</ele>
  <time>2026-08-28T19:11:12Z</time>
  <course>340.43</course>
  <speed>0.04</speed>
  <fix>3d</fix>
</trkpt>
<trkpt lat="40.0728424" lon="-105.230851">
  <ele>1595.46</ele>
  <time>2026-08-28T19:11:12Z</time>
  <course>64.66</course>
  <speed>0.05</speed>
  <fix>3d</fix>
</trkpt>
<trkpt lat="40.0728423" lon="-105.2308511">
  <ele>1595.38</ele>
  <time>2026-08-28T19:11:12Z</time>
  <course>343.67</course>
  <speed>0.03</speed>
  <fix>3d</fix>
</trkpt>
<trkpt lat="40.0728425" lon="-105.230851">
  <ele>1595.46</ele>
  <time>2026-08-28T19:11:12Z</time>
  <course>64.66</course>
  <speed>0.08</speed>
  <fix>3d</fix>
</trkpt>
<trkpt lat="40.0728423" lon="-105.2308511">
  <ele>1595.38</ele>
  <time>2026-08-28T19:11:12Z</time>
  <course>346.2</course>
  <speed>0.04</speed>
  <fix>3d</fix>
</trkpt>
<trkpt lat="40.0728426" lon="-105.230851">
  <ele>1595.45</ele>
  <time>2026-08-28T19:11:13Z</time>
  <course>64.78</course>
  <speed>0.05</speed>
  <fix>3d</fix>
</trkpt>
<trkpt lat="40.0728424" lon="-105.2308511">
  <ele>1595.38</ele>
  <time>2026-08-28T19:11:13Z</time>
  <course>349.0</course>
  <speed>0.04</speed>
  <fix>3d</fix>
</trkpt>
<trkpt lat="40.0728426" lon="-105.230851">
  <ele>1595.45</ele>
  <time>2026-08-28T19:11:13Z</time>
  <course>64.81</course>
  <speed>0.03</speed>
  <fix>3d</fix>
</trkpt>
<trkpt lat="40.0728425" lon="-105.2308512">
  <ele>1595.38</ele>
  <time>2026-08-28T19:11:13Z</time>
  <course>343.89</course>
  <speed>0.04</speed>
  <fix>3d</fix>
</trkpt>
<trkpt lat="40.0728426" lon="-105.2308511">
  <ele>1595.45</ele>
  <time>2026-08-28T19:11:13Z</time>
  <course>64.71</course>
  <speed>0.04</speed>
  <fix>3d</fix>
</trkpt>
<trkpt lat="40.0728426" lon="-105.2308513">
  <ele>1595.38</ele>
  <time>2026-08-28T19:11:13Z</time>
  <course>333.35</course>
  <speed>0.04</speed>
  <fix>3d</fix>
</trkpt>
<trkpt lat="40.0728427" lon="-105.2308511">
  <ele>1595.45</ele>
  <time>2026-08-28T19:11:13Z</time>
  <course>64.79</course>
  <speed>0.03</speed>
  <fix>3d</fix>
</trkpt>
<trkpt lat="40.0728426" lon="-105.2308513">
  <ele>1595.38</ele>
  <time>2026-08-28T19:11:13Z</time>
  <course>319.19</course>
  <speed>0.01</speed>
  <fix>3d</fix>
</trkpt>
<trkpt lat="40.0728427" lon="-105.2308511">
  <ele>1595.45</ele>
  <time>2026-08-28T19:11:13Z</time>
  <course>64.87</course>
  <speed>0.01</speed>
  <fix>3d</fix>
</trkpt>
<trkpt lat="40.0728426" lon="-105.2308513">
  <ele>1595.38</ele>
  <time>2026-08-28T19:11:13Z</time>
  <course>189.15</course>
  <speed>0.0</speed>
  <fix>3d</fix>
</trkpt>
<trkpt lat="40.0728427" lon="-105.2308511">
  <ele>1595.46</ele>
  <time>2026-08-28T19:11:13Z</time>
  <course>64.84</course>
  <speed>0.01</speed>
  <fix>3d</fix>
</trkpt>
<trkpt lat="40.0728426" lon="-105.2308513">
  <ele>1595.39</ele>
  <time>2026-08-28T19:11:13Z</time>
  <course>208.75</course>
  <speed>0.0</speed>
  <fix>3d</fix>
</trkpt>
<trkpt lat="40.0728427" lon="-105.2308511">
  <ele>1595.47</ele>
  <time>2026-08-28T19:11:13Z</time>
  <course>64.75</course>
  <speed>0.02</speed>
  <fix>3d</fix>
</trkpt>
<trkpt lat="40.0728426" lon="-105.2308513">
  <ele>1595.39</ele>
  <time>2026-08-28T19:11:13Z</time>
  <course>304.87</course>
  <speed>0.0</speed>
  <fix>3d</fix>
</trkpt>
<trkpt lat="40.0728427" lon="-105.2308511">
  <ele>1595.47</ele>
  <time>2026-08-28T19:11:13Z</time>
  <course>64.85</course>
  <speed>0.01</speed>
  <fix>3d</fix>
</trkpt>
<trkpt lat="40.0728426" lon="-105.2308513">
  <ele>1595.4</ele>
  <time>2026-08-28T19:11:13Z</time>
  <course>185.96</course>
  <speed>0.0</speed>
  <fix>3d</fix>
</trkpt>
<trkpt lat="40.0728427" lon="-105.2308511">
  <ele>1595.47</ele>
  <time>2026-08-28T19:11:13Z</time>
  <course>64.93</course>
  <speed>0.01</speed>
  <fix>3d</fix>
</trkpt>
<trkpt lat="40.0728426" lon="-105.2308513">
  <ele>1595.4</ele>
  <time>2026-08-28T19:11:13Z</time>
  <course>163.83</course>
  <speed>0.02</speed>
  <fix>3d</fix>
</trkpt>
<trkpt lat="40.0728427" lon="-105.2308511">
  <ele>1595.47</ele>
  <time>2026-08-28T19:11:13Z</time>
  <course>64.88</course>
  <speed>0.01</speed>
  <fix>3d</fix>
</trkpt>
<trkpt lat="40.0728426" lon="-105.2308513">
  <ele>1595.4</ele>
  <time>2026-08-28T19:11:13Z</time>
  <course>170.03</course>
  <speed>0.01</speed>
  <fix>3d</fix>
</trkpt>
<trkpt lat="40.0728427" lon="-105.2308511">
  <ele>1595.48</ele>
  <time>2026-08-28T19:11:13Z</time>
  <course>64.78</course>
  <speed>0.01</speed>
  <fix>3d</fix>
</trkpt>
<trkpt lat="40.0728426" lon="-105.2308513">
  <ele>1595.4</ele>
  <time>2026-08-28T19:11:13Z</time>
  <course>235.09</course>
  <speed>0.0</speed>
  <fix>3d</fix>
</trkpt>
<trkpt lat="40.0728427" lon="-105.2308511">
  <ele>1595.48</ele>
  <time>2026-08-28T19:11:13Z</time>
  <course>64.86</course>
  <speed>0.01</speed>
  <fix>3d</fix>
</trkpt>
<trkpt lat="40.0728426" lon="-105.2308513">
  <ele>1595.4</ele>
  <time>2026-08-28T19:11:13Z</time>
  <course>178.57</course>
  <speed>0.01</speed>
  <fix>3d</fix>
</trkpt>
<trkpt lat="40.0728427" lon="-105.2308511">
  <ele>1595.48</ele>
  <time>2026-08-28T19:11:13Z</time>
  <course>64.92</course>
  <speed>0.01</speed>
  <fix>3d</fix>
</trkpt>
<trkpt lat="40.0728426" lon="-105.2308513">
  <ele>1595.4</ele>
  <time>2026-08-28T19:11:13Z</time>
  <course>165.64</course>
  <speed>0.02</speed>
  <fix>3d</fix>
</trkpt>
<trkpt lat="40.0728426" lon="-105.2308511">
  <ele>1595.48</ele>
  <time>2026-08-28T19:11:13Z</time>
  <course>64.9</course>
  <speed>0.01</speed>
  <fix>3d</fix>
</trkpt>
<trkpt lat="40.0728425" lon="-105.2308513">
  <ele>1595.39</ele>
  <time>2026-08-28T19:11:13Z</time>
  <course>172.35</course>
  <speed>0.01</speed>
  <fix>3d</fix>
</trkpt>
<trkpt lat="40.0728426" lon="-105.2308511">
  <ele>1595.48</ele>
  <time>2026-08-28T19:11:13Z</time>
  <course>64.8</course>
  <speed>0.01</speed>
  <fix>3d</fix>
</trkpt>
<trkpt lat="40.0728425" lon="-105.2308513">
  <ele>1595.39</ele>
  <time>2026-08-28T19:11:13Z</time>
  <course>214.12</course>
  <speed>0.0</speed>
  <fix>3d</fix>
</trkpt>
<trkpt lat="40.0728426" lon="-105.2308511">
  <ele>1595.47</ele>
  <time>2026-08-28T19:11:13Z</time>
  <course>64.86</course>
  <speed>0.01</speed>
  <fix>3d</fix>
</trkpt>
<trkpt lat="40.0728425" lon="-105.2308513">
  <ele>1595.39</ele>
  <time>2026-08-28T19:11:13Z</time>
  <course>178.89</course>
  <speed>0.01</speed>
  <fix>3d</fix>
</trkpt>
<trkpt lat="40.0728426" lon="-105.2308511">
  <ele>1595.47</ele>
  <time>2026-08-28T19:11:13Z</time>
  <course>64.91</course>
  <speed>0.01414213562373095</speed>
  <fix>3d</fix>
</trkpt>
<trkpt lat="40.0728424" lon="-105.2308513">
  <ele>1595.39</ele>
  <time>2026-08-28T19:11:13Z</time>
  <course>167.16</course>
  <speed>0.03</speed>
  <fix>3d</fix>
</trkpt>
<trkpt lat="40.0728425" lon="-105.2308511">
  <ele>1595.47</ele>
  <time>2026-08-28T19:11:13Z</time>
  <course>64.86</course>
  <speed>0.01</speed>
  <fix>3d</fix>
</trkpt>
<trkpt lat="40.0728424" lon="-105.2308513">
  <ele>1595.39</ele>
  <time>2026-08-28T19:11:13Z</time>
  <course>173.76</course>
  <speed>0.02</speed>
  <fix>3d</fix>
</trkpt>
<trkpt lat="40.0728425" lon="-105.2308511">
  <ele>1595.47</ele>
  <time>2026-08-28T19:11:13Z</time>
  <course>64.76</course>
  <speed>0.03</speed>
  <fix>3d</fix>
</trkpt>
<trkpt lat="40.0728423" lon="-105.2308513">
  <ele>1595.38</ele>
  <time>2026-08-28T19:11:13Z</time>
  <course>210.09</course>
  <speed>0.0</speed>
  <fix>3d</fix>
</trkpt>
<trkpt lat="40.0728425" lon="-105.2308512">
  <ele>1595.47</ele>
  <time>2026-08-28T19:11:13Z</time>
  <course>64.7</course>
  <speed>0.08062257748298549</speed>
  <fix>3d</fix>
</trkpt>
<trkpt lat="40.0728423" lon="-105.2308513">
  <ele>1595.38</ele>
  <time>2026-08-28T19:11:13Z</time>
  <course>334.9</course>
  <speed>0.02</speed>
  <fix>3d</fix>
</trkpt>
<trkpt lat="40.0728426" lon="-105.2308512">
  <ele>1595.46</ele>
  <time>2026-08-28T19:11:13Z</time>
  <course>64.68</course>
  <speed>0.1118033988749895</speed>
  <fix>3d</fix>
</trkpt>
<trkpt lat="40.0728424" lon="-105.2308513">
  <ele>1595.38</ele>
  <time>2026-08-28T19:11:13Z</time>
  <course>340.88</course>
  <speed>0.07</speed>
  <fix>3d</fix>
</trkpt>
<trkpt lat="40.0728428" lon="-105.2308513">
  <ele>1595.46</ele>
  <time>2026-08-28T19:11:13Z</time>
  <course>64.67</course>
  <speed>0.12369316876852982</speed>
  <fix>3d</fix>
</trkpt>
<trkpt lat="40.0728425" lon="-105.2308514">
  <ele>1595.38</ele>
  <time>2026-08-28T19:11:13Z</time>
  <course>336.6</course>
  <speed>0.1</speed>
  <fix>3d</fix>
</trkpt>
<trkpt lat="40.072843" lon="-105.2308514">
  <ele>1595.45</ele>
  <time>2026-08-28T19:11:13Z</time>
  <course>64.64</course>
  <speed>0.11401754250991379</speed>
  <fix>3d</fix>
</trkpt>
<trkpt lat="40.0728426" lon="-105.2308515">
  <ele>1595.38</ele>
  <time>2026-08-28T19:11:13Z</time>
  <course>333.27</course>
  <speed>0.1</speed>
  <fix>3d</fix>
</trkpt>
<trkpt lat="40.0728431" lon="-105.2308516">
  <ele>1595.46</ele>
  <time>2026-08-28T19:11:13Z</time>
  <course>64.63</course>
  <speed>0.1044030650891055</speed>
  <fix>3d</fix>
</trkpt>
<trkpt lat="40.0728428" lon="-105.2308516">
  <ele>1595.39</ele>
  <time>2026-08-28T19:11:13Z</time>
  <course>331.35</course>
  <speed>0.1</speed>
  <fix>3d</fix>
</trkpt>
<trkpt lat="40.0728432" lon="-105.2308517">
  <ele>1595.45</ele>
  <time>2026-08-28T19:11:13Z</time>
  <course>64.64</course>
  <speed>0.09486832980505139</speed>
  <fix>3d</fix>
</trkpt>
<trkpt lat="40.072843" lon="-105.2308517">
  <ele>1595.39</ele>
  <time>2026-08-28T19:11:13Z</time>
  <course>330.76</course>
  <speed>0.09</speed>
  <fix>3d</fix>
</trkpt>
<trkpt lat="40.0728434" lon="-105.2308517">
  <ele>1595.45</ele>
  <time>2026-08-28T19:11:13Z</time>
  <course>64.64</course>
  <speed>0.09219544457292887</speed>
  <fix>3d</fix>
</trkpt>
<trkpt lat="40.0728431" lon="-105.2308518">
  <ele>1595.39</ele>
  <time>2026-08-28T19:11:13Z</time>
  <course>331.18</course>
  <speed>0.08</speed>
  <fix>3d</fix>
</trkpt>
<trkpt lat="40.0728435" lon="-105.2308518">
  <ele>1595.46</ele>
  <time>2026-08-28T19:11:13Z</time>
  <course>64.62</course>
  <speed>0.0824621125123532</speed>
  <fix>3d</fix>
</trkpt>
<trkpt lat="40.0728432" lon="-105.2308519">
  <ele>1595.39</ele>
  <time>2026-08-28T19:11:13Z</time>
  <course>332.15</course>
  <speed>0.08</speed>
  <fix>3d</fix>
</trkpt>
<trkpt lat="40.0728436" lon="-105.2308519">
  <ele>1595.46</ele>
  <time>2026-08-28T19:11:13Z</time>
  <course>64.65</course>
  <speed>0.08062257748298549</speed>
  <fix>3d</fix>
</trkpt>
<trkpt lat="40.0728433" lon="-105.230852">
  <ele>1595.4</ele>
  <time>2026-08-28T19:11:13Z</time>
  <course>333.32</course>
  <speed>0.07</speed>
  <fix>3d</fix>
</trkpt>
<trkpt lat="40.0728437" lon="-105.230852">
  <ele>1595.47</ele>
  <time>2026-08-28T19:11:13Z</time>
  <course>64.66</course>
  <speed>0.07071067811865475</speed>
  <fix>3d</fix>
</trkpt>
<trkpt lat="40.0728435" lon="-105.2308521">
  <ele>1595.4</ele>
  <time>2026-08-28T19:11:13Z</time>
  <course>334.7</course>
  <speed>0.06</speed>
  <fix>3d</fix>
</trkpt>
<trkpt lat="40.0728438" lon="-105.230852">
  <ele>1595.47</ele>
  <time>2026-08-28T19:11:13Z</time>
  <course>64.67</course>
  <speed>0.07071067811865475</speed>
  <fix>3d</fix>
</trkpt>
<trkpt lat="40.0728436" lon="-105.2308522">
  <ele>1595.4</ele>
  <time>2026-08-28T19:11:13Z</time>
  <course>336.38</course>
  <speed>0.06</speed>
  <fix>3d</fix>
</trkpt>
<trkpt lat="40.0728438" lon="-105.2308521">
  <ele>1595.47</ele>
  <time>2026-08-28T19:11:13Z</time>
  <course>64.67</course>
  <speed>0.06</speed>
  <fix>3d</fix>
</trkpt>
<trkpt lat="40.0728437" lon="-105.2308522">
  <ele>1595.41</ele>
  <time>2026-08-28T19:11:13Z</time>
  <course>338.4</course>
  <speed>0.05</speed>
  <fix>3d</fix>
</trkpt>
<trkpt lat="40.0728439" lon="-105.2308521">
  <ele>1595.48</ele>
  <time>2026-08-28T19:11:13Z</time>
  <course>64.69</course>
  <speed>0.06</speed>
  <fix>3d</fix>
</trkpt>
<trkpt lat="40.0728438" lon="-105.2308523">
  <ele>1595.41</ele>
  <time>2026-08-28T19:11:13Z</time>
  <course>340.8</course>
  <speed>0.04</speed>
  <fix>3d</fix>
</trkpt>
<trkpt lat="40.072844" lon="-105.2308521">
  <ele>1595.47</ele>
  <time>2026-08-28T19:11:13Z</time>
  <course>64.68</course>
  <speed>0.05</speed>
  <fix>3d</fix>
</trkpt>
<trkpt lat="40.0728438" lon="-105.2308523">
  <ele>1595.41</ele>
  <time>2026-08-28T19:11:13Z</time>
  <course>343.65</course>
  <speed>0.04</speed>
  <fix>3d</fix>
</trkpt>
<trkpt lat="40.0728441" lon="-105.2308522">
  <ele>1595.47</ele>
  <time>2026-08-28T19:11:13Z</time>
  <course>64.69</course>
  <speed>0.05</speed>
  <fix>3d</fix>
</trkpt>
<trkpt lat="40.0728439" lon="-105.2308523">
  <ele>1595.41</ele>
  <time>2026-08-28T19:11:13Z</time>
  <course>347.09</course>
  <speed>0.03</speed>
  <fix>3d</fix>
</trkpt>
<trkpt lat="40.0728441" lon="-105.2308522">
  <ele>1595.47</ele>
  <time>2026-08-28T19:11:13Z</time>
  <course>64.69</course>
  <speed>0.05</speed>
  <fix>3d</fix>
</trkpt>
<trkpt lat="40.072844" lon="-105.2308523">
  <ele>1595.41</ele>
  <time>2026-08-28T19:11:13Z</time>
  <course>351.03</course>
  <speed>0.03</speed>
  <fix>3d</fix>
</trkpt>
<trkpt lat="40.0728442" lon="-105.2308522">
  <ele>1595.47</ele>
  <time>2026-08-28T19:11:13Z</time>
  <course>64.69</course>
  <speed>0.0670820393249937</speed>
  <fix>3d</fix>
</trkpt>
<trkpt lat="40.0728441" lon="-105.2308523">
  <ele>1595.41</ele>
  <time>2026-08-28T19:11:13Z</time>
  <course>6.81</course>
  <speed>0.03</speed>
  <fix>3d</fix>
</trkpt>
<trkpt lat="40.0728443" lon="-105.2308521">
  <ele>1595.47</ele>
  <time>2026-08-28T19:11:13Z</time>
  <course>64.65</course>
  <speed>0.16124515496597097</speed>
  <fix>3d</fix>
</trkpt>
<trkpt lat="40.0728441" lon="-105.2308523">
  <ele>1595.41</ele>
  <time>2026-08-28T19:11:13Z</time>
  <course>51.26</course>
  <speed>0.07</speed>
  <fix>3d</fix>
</trkpt>
<trkpt lat="40.0728444" lon="-105.2308516">
  <ele>1595.47</ele>
  <time>2026-08-28T19:11:13Z</time>
  <course>64.66</course>
  <speed>0.2692582403567252</speed>
  <fix>3d</fix>
</trkpt>
<trkpt lat="40.0728442" lon="-105.2308521">
  <ele>1595.41</ele>
  <time>2026-08-28T19:11:13Z</time>
  <course>66.85</course>
  <speed>0.17</speed>
  <fix>3d</fix>
</trkpt>
<trkpt lat="40.0728446" lon="-105.230851">
  <ele>1595.47</ele>
  <time>2026-08-28T19:11:13Z</time>
  <course>64.64</course>
  <speed>0.2640075756488817</speed>
  <fix>3d</fix>
</trkpt>
<trkpt lat="40.0728443" lon="-105.2308516">
  <ele>1595.41</ele>
  <time>2026-08-28T19:11:13Z</time>
  <course>68.66</course>
  <speed>0.25</speed>
  <fix>3d</fix>
</trkpt>
<trkpt lat="40.0728447" lon="-105.2308507">
  <ele>1595.47</ele>
  <time>2026-08-28T19:11:13Z</time>
  <course>64.7</course>
  <speed>0.12727922061357855</speed>
  <fix>3d</fix>
</trkpt>
<trkpt lat="40.0728445" lon="-105.2308511">
  <ele>1595.41</ele>
  <time>2026-08-28T19:11:13Z</time>
  <course>64.28</course>
  <speed>0.21</speed>
  <fix>3d</fix>
</trkpt>
<trkpt lat="40.0728448" lon="-105.2308507">
  <ele>1595.47</ele>
  <time>2026-08-28T19:11:13Z</time>
  <course>64.7</course>
  <speed>0.0670820393249937</speed>
  <fix>3d</fix>
</trkpt>
<trkpt lat="40.0728447" lon="-105.2308508">
  <ele>1595.41</ele>
  <time>2026-08-28T19:11:13Z</time>
  <course>38.98</course>
  <speed>0.07</speed>
  <fix>3d</fix>
</trkpt>
<trkpt lat="40.0728448" lon="-105.2308509">
  <ele>1595.47</ele>
  <time>2026-08-28T19:11:13Z</time>
  <course>64.62</course>
  <speed>0.08</speed>
  <fix>3d</fix>
</trkpt>
<trkpt lat="40.0728448" lon="-105.2308509">
  <ele>1595.41</ele>
  <time>2026-08-28T19:11:13Z</time>
  <course>277.87</course>
  <speed>0.07</speed>
  <fix>3d</fix>
</trkpt>
<trkpt lat="40.0728448" lon="-105.230851">
  <ele>1595.47</ele>
  <time>2026-08-28T19:11:13Z</time>
  <course>64.58</course>
  <speed>0.03</speed>
  <fix>3d</fix>
</trkpt>
<trkpt lat="40.0728447" lon="-105.230851">
  <ele>1595.41</ele>
  <time>2026-08-28T19:11:13Z</time>
  <course>249.76</course>
  <speed>0.06</speed>
  <fix>3d</fix>
</trkpt>
<trkpt lat="40.0728448" lon="-105.2308508">
  <ele>1595.47</ele>
  <time>2026-08-28T19:11:13Z</time>
  <course>64.61</course>
  <speed>0.130384048104053</speed>
  <fix>3d</fix>
</trkpt>
<trkpt lat="40.0728447" lon="-105.230851">
  <ele>1595.41</ele>
  <time>2026-08-28T19:11:13Z</time>
  <course>113.04</course>
  <speed>0.05</speed>
  <fix>3d</fix>
</trkpt>
<trkpt lat="40.0728448" lon="-105.2308505">
  <ele>1595.47</ele>
  <time>2026-08-28T19:11:13Z</time>
  <course>64.64</course>
  <speed>0.09055385138137417</speed>
  <fix>3d</fix>
</trkpt>
<trkpt lat="40.0728447" lon="-105.2308508">
  <ele>1595.41</ele>
  <time>2026-08-28T19:11:13Z</time>
  <course>93.64</course>
  <speed>0.11</speed>
  <fix>3d</fix>
</trkpt>
<trkpt lat="40.0728448" lon="-105.2308505">
  <ele>1595.47</ele>
  <time>2026-08-28T19:11:13Z</time>
  <course>64.67</course>
  <speed>0.04</speed>
  <fix>3d</fix>
</trkpt>
<trkpt lat="40.0728447" lon="-105.2308506">
  <ele>1595.41</ele>
  <time>2026-08-28T19:11:13Z</time>
  <course>97.33</course>
  <speed>0.05</speed>
  <fix>3d</fix>
</trkpt>
<trkpt lat="40.0728448" lon="-105.2308507">
  <ele>1595.46</ele>
  <time>2026-08-28T19:11:13Z</time>
  <course>64.64</course>
  <speed>0.09055385138137417</speed>
  <fix>3d</fix>
</trkpt>
<trkpt lat="40.0728447" lon="-105.2308506">
  <ele>1595.41</ele>
  <time>2026-08-28T19:11:13Z</time>
  <course>247.48</course>
  <speed>0.06</speed>
  <fix>3d</fix>
</trkpt>
<trkpt lat="40.0728447" lon="-105.2308508">
  <ele>1595.46</ele>
  <time>2026-08-28T19:11:13Z</time>
  <course>64.56</course>
  <speed>0.01</speed>
  <fix>3d</fix>
</trkpt>
<trkpt lat="40.0728447" lon="-105.2308507">
  <ele>1595.41</ele>
  <time>2026-08-28T19:11:13Z</time>
  <course>242.67</course>
  <speed>0.08</speed>
  <fix>3d</fix>
</trkpt>
<trkpt lat="40.0728447" lon="-105.2308507">
  <ele>1595.46</ele>
  <time>2026-08-28T19:11:13Z</time>
  <course>64.59</course>
  <speed>0.1</speed>
  <fix>3d</fix>
</trkpt>
<trkpt lat="40.0728446" lon="-105.2308508">
  <ele>1595.41</ele>
  <time>2026-08-28T19:11:13Z</time>
  <course>149.1</course>
  <speed>0.03</speed>
  <fix>3d</fix>
</trkpt>
<trkpt lat="40.0728447" lon="-105.2308505">
  <ele>1595.46</ele>
  <time>2026-08-28T19:11:13Z</time>
  <course>64.6</course>
  <speed>0.06082762530298219</speed>
  <fix>3d</fix>
</trkpt>
<trkpt lat="40.0728445" lon="-105.2308507">
  <ele>1595.41</ele>
  <time>2026-08-28T19:11:13Z</time>
  <course>101.21</course>
  <speed>0.08</speed>
  <fix>3d</fix>
</trkpt>
<trkpt lat="40.0728447" lon="-105.2308505">
  <ele>1595.47</ele>
  <time>2026-08-28T19:11:13Z</time>
  <course>64.67</course>
  <speed>0.05</speed>
  <fix>3d</fix>
</trkpt>
<trkpt lat="40.0728445" lon="-105.2308506">
  <ele>1595.41</ele>
  <time>2026-08-28T19:11:13Z</time>
  <course>116.46</course>
  <speed>0.03</speed>
  <fix>3d</fix>
</trkpt>
<trkpt lat="40.0728446" lon="-105.2308507">
  <ele>1595.48</ele>
  <time>2026-08-28T19:11:13Z</time>
  <course>64.63</course>
  <speed>0.07</speed>
  <fix>3d</fix>
</trkpt>
<trkpt lat="40.0728445" lon="-105.2308506">
  <ele>1595.41</ele>
  <time>2026-08-28T19:11:13Z</time>
  <course>248.09</course>
  <speed>0.06</speed>
  <fix>3d</fix>
</trkpt>
<trkpt lat="40.0728446" lon="-105.2308508">
  <ele>1595.48</ele>
  <time>2026-08-28T19:11:13Z</time>
  <course>64.63</course>
  <speed>0.04</speed>
  <fix>3d</fix>
</trkpt>
<trkpt lat="40.0728444" lon="-105.2308507">
  <ele>1595.41</ele>
  <time>2026-08-28T19:11:13Z</time>
  <course>236.47</course>
  <speed>0.05</speed>
  <fix>3d</fix>
</trkpt>
<trkpt lat="40.0728445" lon="-105.2308506">
  <ele>1595.49</ele>
  <time>2026-08-28T19:11:13Z</time>
  <course>64.67</course>
  <speed>0.09</speed>
  <fix>3d</fix>
</trkpt>
<trkpt lat="40.0728444" lon="-105.2308508">
  <ele>1595.41</ele>
  <time>2026-08-28T19:11:13Z</time>
  <course>118.71</course>
  <speed>0.04</speed>
  <fix>3d</fix>
</trkpt>
<trkpt lat="40.0728445" lon="-105.2308505">
  <ele>1595.49</ele>
  <time>2026-08-28T19:11:13Z</time>
  <course>64.7</course>
  <speed>0.0</speed>
  <fix>3d</fix>
</trkpt>
<trkpt lat="40.0728444" lon="-105.2308506">
  <ele>1595.41</ele>
  <time>2026-08-28T19:11:13Z</time>
  <course>107.18</course>
  <speed>0.05</speed>
  <fix>3d</fix>
</trkpt>
<trkpt lat="40.0728445" lon="-105.2308506">
  <ele>1595.48</ele>
  <time>2026-08-28T19:11:13Z</time>
  <course>64.71</course>
  <speed>0.07</speed>
  <fix>3d</fix>
</trkpt>
<trkpt lat="40.0728444" lon="-105.2308506">
  <ele>1595.41</ele>
  <time>2026-08-28T19:11:13Z</time>
  <course>231.01</course>
  <speed>0.03</speed>
  <fix>3d</fix>
</trkpt>
<trkpt lat="40.0728444" lon="-105.2308507">
  <ele>1595.48</ele>
  <time>2026-08-28T19:11:13Z</time>
  <course>64.65</course>
  <speed>0.01</speed>
  <fix>3d</fix>
</trkpt>
<trkpt lat="40.0728443" lon="-105.2308507">
  <ele>1595.4</ele>
  <time>2026-08-28T19:11:13Z</time>
  <course>242.5</course>
  <speed>0.05</speed>
  <fix>3d</fix>
</trkpt>
<trkpt lat="40.0728444" lon="-105.2308506">
  <ele>1595.47</ele>
  <time>2026-08-28T19:11:13Z</time>
  <course>64.68</course>
  <speed>0.08</speed>
  <fix>3d</fix>
</trkpt>
<trkpt lat="40.0728443" lon="-105.2308508">
  <ele>1595.4</ele>
  <time>2026-08-28T19:11:13Z</time>
  <course>141.12</course>
  <speed>0.03</speed>
  <fix>3d</fix>
</trkpt>
<trkpt lat="40.0728444" lon="-105.2308505">
  <ele>1595.47</ele>
  <time>2026-08-28T19:11:13Z</time>
  <course>64.66</course>
  <speed>0.0</speed>
  <fix>3d</fix>
</trkpt>
<trkpt lat="40.0728442" lon="-105.2308506">
  <ele>1595.4</ele>
  <time>2026-08-28T19:11:13Z</time>
  <course>112.35</course>
  <speed>0.05</speed>
  <fix>3d</fix>
</trkpt>
<trkpt lat="40.0728443" lon="-105.2308506">
  <ele>1595.46</ele>
  <time>2026-08-28T19:11:13Z</time>
  <course>64.68</course>
  <speed>0.05</speed>
  <fix>3d</fix>
</trkpt>
<trkpt lat="40.0728442" lon="-105.2308506">
  <ele>1595.4</ele>
  <time>2026-08-28T19:11:13Z</time>
  <course>217.24</course>
  <speed>0.02</speed>
  <fix>3d</fix>
</trkpt>
<trkpt lat="40.0728443" lon="-105.2308507">
  <ele>1595.46</ele>
  <time>2026-08-28T19:11:13Z</time>
  <course>64.62</course>
  <speed>0.02</speed>
  <fix>3d</fix>
</trkpt>
<trkpt lat="40.0728441" lon="-105.2308507">
  <ele>1595.39</ele>
  <time>2026-08-28T19:11:13Z</time>
  <course>238.68</course>
  <speed>0.04</speed>
  <fix>3d</fix>
</trkpt>
<trkpt lat="40.0728443" lon="-105.2308506">
  <ele>1595.46</ele>
  <time>2026-08-28T19:11:13Z</time>
  <course>64.65</course>
  <speed>0.06</speed>
  <fix>3d</fix>
</trkpt>
<trkpt lat="40.0728441" lon="-105.2308507">
  <ele>1595.39</ele>
  <time>2026-08-28T19:11:13Z</time>
  <course>136.36</course>
  <speed>0.03</speed>
  <fix>3d</fix>
</trkpt>
<trkpt lat="40.0728442" lon="-105.2308505">
  <ele>1595.46</ele>
  <time>2026-08-28T19:11:13Z</time>
  <course>64.63</course>
  <speed>0.01</speed>
  <fix>3d</fix>
</trkpt>
<trkpt lat="40.0728441" lon="-105.2308506">
  <ele>1595.4</ele>
  <time>2026-08-28T19:11:13Z</time>
  <course>124.4</course>
  <speed>0.03</speed>
  <fix>3d</fix>
</trkpt>
<trkpt lat="40.0728442" lon="-105.2308506">
  <ele>1595.47</ele>
  <time>2026-08-28T19:11:13Z</time>
  <course>64.61</course>
  <speed>0.03</speed>
  <fix>3d</fix>
</trkpt>
<trkpt lat="40.072844" lon="-105.2308506">
  <ele>1595.4</ele>
  <time>2026-08-28T19:11:13Z</time>
  <course>229.89</course>
  <speed>0.03</speed>
  <fix>3d</fix>
</trkpt>
<trkpt lat="40.0728442" lon="-105.2308506">
  <ele>1595.47</ele>
  <time>2026-08-28T19:11:13Z</time>
  <course>64.66</course>
  <speed>0.05</speed>
  <fix>3d</fix>
</trkpt>
<trkpt lat="40.0728439" lon="-105.2308506">
  <ele>1595.4</ele>
  <time>2026-08-28T19:11:13Z</time>
  <course>220.59</course>
  <speed>0.02</speed>
  <fix>3d</fix>
</trkpt>
<trkpt lat="40.0728441" lon="-105.2308505">
  <ele>1595.47</ele>
  <time>2026-08-28T19:11:13Z</time>
  <course>64.66</course>
  <speed>0.03</speed>
  <fix>3d</fix>
</trkpt>
<trkpt lat="40.0728439" lon="-105.2308506">
  <ele>1595.4</ele>
  <time>2026-08-28T19:11:13Z</time>
  <course>125.0</course>
  <speed>0.03</speed>
  <fix>3d</fix>
</trkpt>
<trkpt lat="40.0728441" lon="-105.2308506">
  <ele>1595.48</ele>
  <time>2026-08-28T19:11:13Z</time>
  <course>64.69</course>
  <speed>0.04</speed>
  <fix>3d</fix>
</trkpt>
<trkpt lat="40.0728438" lon="-105.2308506">
  <ele>1595.4</ele>
  <time>2026-08-28T19:11:13Z</time>
  <course>176.27</course>
  <speed>0.02</speed>
  <fix>3d</fix>
</trkpt>
<trkpt lat="40.072844" lon="-105.2308506">
  <ele>1595.48</ele>
  <time>2026-08-28T19:11:13Z</time>
  <course>64.67</course>
  <speed>0.01</speed>
  <fix>3d</fix>
</trkpt>
<trkpt lat="40.0728438" lon="-105.2308506">
  <ele>1595.4</ele>
  <time>2026-08-28T19:11:13Z</time>
  <course>232.94</course>
  <speed>0.03</speed>
  <fix>3d</fix>
</trkpt>
<trkpt lat="40.072844" lon="-105.2308506">
  <ele>1595.48</ele>
  <time>2026-08-28T19:11:13Z</time>
  <course>64.7</course>
  <speed>0.05</speed>
  <fix>3d</fix>
</trkpt>
<trkpt lat="40.0728438" lon="-105.2308506">
  <ele>1595.4</ele>
  <time>2026-08-28T19:11:13Z</time>
  <course>144.64</course>
  <speed>0.02</speed>
  <fix>3d</fix>
</trkpt>
<trkpt lat="40.0728439" lon="-105.2308506">
  <ele>1595.48</ele>
  <time>2026-08-28T19:11:13Z</time>
  <course>64.68</course>
  <speed>0.02</speed>
  <fix>3d</fix>
</trkpt>
<trkpt lat="40.0728438" lon="-105.2308506">
  <ele>1595.39</ele>
  <time>2026-08-28T19:11:13Z</time>
  <course>148.61</course>
  <speed>0.02</speed>
  <fix>3d</fix>
</trkpt>
<trkpt lat="40.0728439" lon="-105.2308506">
  <ele>1595.47</ele>
  <time>2026-08-28T19:11:13Z</time>
  <course>64.66</course>
  <speed>0.0</speed>
  <fix>3d</fix>
</trkpt>
<trkpt lat="40.0728437" lon="-105.2308506">
  <ele>1595.39</ele>
  <time>2026-08-28T19:11:13Z</time>
  <course>227.92</course>
  <speed>0.03</speed>
  <fix>3d</fix>
</trkpt>
<trkpt lat="40.0728439" lon="-105.2308506">
  <ele>1595.47</ele>
  <time>2026-08-28T19:11:13Z</time>
  <course>64.7</course>
  <speed>0.05</speed>
  <fix>3d</fix>
</trkpt>
<trkpt lat="40.0728437" lon="-105.2308506">
  <ele>1595.39</ele>
  <time>2026-08-28T19:11:13Z</time>
  <course>162.09</course>
  <speed>0.02</speed>
  <fix>3d</fix>
</trkpt>
<trkpt lat="40.0728438" lon="-105.2308505">
  <ele>1595.47</ele>
  <time>2026-08-28T19:11:13Z</time>
  <course>64.67</course>
  <speed>0.02</speed>
  <fix>3d</fix>
</trkpt>
<trkpt lat="40.0728436" lon="-105.2308506">
  <ele>1595.39</ele>
  <time>2026-08-28T19:11:13Z</time>
  <course>147.59</course>
  <speed>0.02</speed>
  <fix>3d</fix>
</trkpt>
<trkpt lat="40.0728438" lon="-105.2308506">
  <ele>1595.47</ele>
  <time>2026-08-28T19:11:13Z</time>
  <course>64.64</course>
  <speed>0.0</speed>
  <fix>3d</fix>
</trkpt>
<trkpt lat="40.0728436" lon="-105.2308506">
  <ele>1595.39</ele>
  <time>2026-08-28T19:11:13Z</time>
  <course>221.87</course>
  <speed>0.02</speed>
  <fix>3d</fix>
</trkpt>
<trkpt lat="40.0728437" lon="-105.2308505">
  <ele>1595.47</ele>
  <time>2026-08-28T19:11:13Z</time>
  <course>64.69</course>
  <speed>0.04</speed>
  <fix>3d</fix>
</trkpt>
<trkpt lat="40.0728436" lon="-105.2308506">
  <ele>1595.39</ele>
  <time>2026-08-28T19:11:13Z</time>
  <course>161.9</course>
  <speed>0.02</speed>
  <fix>3d</fix>
</trkpt>
<trkpt lat="40.0728437" lon="-105.2308506">
  <ele>1595.47</ele>
  <time>2026-08-28T19:11:13Z</time>
  <course>64.68</course>
  <speed>0.02</speed>
  <fix>3d</fix>
</trkpt>
<trkpt lat="40.0728435" lon="-105.2308506">
  <ele>1595.39</ele>
  <time>2026-08-28T19:11:13Z</time>
  <course>158.35</course>
  <speed>0.02</speed>
  <fix>3d</fix>
</trkpt>
<trkpt lat="40.0728437" lon="-105.2308506">
  <ele>1595.47</ele>
  <time>2026-08-28T19:11:13Z</time>
  <course>64.67</course>
  <speed>0.02</speed>
  <fix>3d</fix>
</trkpt>
<trkpt lat="40.0728435" lon="-105.2308506">
  <ele>1595.38</ele>
  <time>2026-08-28T19:11:13Z</time>
  <course>217.5</course>
  <speed>0.02</speed>
  <fix>3d</fix>
</trkpt>
<trkpt lat="40.0728436" lon="-105.2308505">
  <ele>1595.46</ele>
  <time>2026-08-28T19:11:13Z</time>
  <course>64.71</course>
  <speed>0.02</speed>
  <fix>3d</fix>
</trkpt>
<trkpt lat="40.0728435" lon="-105.2308506">
  <ele>1595.38</ele>
  <time>2026-08-28T19:11:13Z</time>
  <course>152.73</course>
  <speed>0.02</speed>
  <fix>3d</fix>
</trkpt>
<trkpt lat="40.0728436" lon="-105.2308506">
  <ele>1595.46</ele>
  <time>2026-08-28T19:11:13Z</time>
  <course>64.67</course>
  <speed>0.02</speed>
  <fix>3d</fix>
</trkpt>
<trkpt lat="40.0728434" lon="-105.2308506">
  <ele>1595.38</ele>
  <time>2026-08-28T19:11:13Z</time>
  <course>179.29</course>
  <speed>0.02</speed>
  <fix>3d</fix>
</trkpt>
<trkpt lat="40.0728436" lon="-105.2308506">
  <ele>1595.46</ele>
  <time>2026-08-28T19:11:13Z</time>
  <course>64.7</course>
  <speed>0.03</speed>
  <fix>3d</fix>
</trkpt>
<trkpt lat="40.0728433" lon="-105.2308506">
  <ele>1595.38</ele>
  <time>2026-08-28T19:11:13Z</time>
  <course>201.99</course>
  <speed>0.02</speed>
  <fix>3d</fix>
</trkpt>
<trkpt lat="40.0728435" lon="-105.2308505">
  <ele>1595.47</ele>
  <time>2026-08-28T19:11:13Z</time>
  <course>64.67</course>
  <speed>0.0</speed>
  <fix>3d</fix>
</trkpt>
<trkpt lat="40.0728433" lon="-105.2308506">
  <ele>1595.38</ele>
  <time>2026-08-28T19:11:13Z</time>
  <course>154.53</course>
  <speed>0.02</speed>
  <fix>3d</fix>
</trkpt>
<trkpt lat="40.0728435" lon="-105.2308506">
  <ele>1595.47</ele>
  <time>2026-08-28T19:11:13Z</time>
  <course>64.65</course>
  <speed>0.0</speed>
  <fix>3d</fix>
</trkpt>
<trkpt lat="40.0728432" lon="-105.2308506">
  <ele>1595.38</ele>
  <time>2026-08-28T19:11:13Z</time>
  <course>199.9</course>
  <speed>0.02</speed>
  <fix>3d</fix>
</trkpt>
<trkpt lat="40.0728434" lon="-105.2308505">
  <ele>1595.48</ele>
  <time>2026-08-28T19:11:13Z</time>
  <course>64.75</course>
  <speed>0.02</speed>
  <fix>3d</fix>
</trkpt>
<trkpt lat="40.0728432" lon="-105.2308506">
  <ele>1595.38</ele>
  <time>2026-08-28T19:11:13Z</time>
  <course>169.86</course>
  <speed>0.02</speed>
  <fix>3d</fix>
</trkpt>
<trkpt lat="40.0728434" lon="-105.2308506">
  <ele>1595.48</ele>
  <time>2026-08-28T19:11:13Z</time>
  <course>64.71</course>
  <speed>0.01</speed>
  <fix>3d</fix>
</trkpt>
<trkpt lat="40.0728432" lon="-105.2308506">
  <ele>1595.38</ele>
  <time>2026-08-28T19:11:13Z</time>
  <course>176.3</course>
  <speed>0.02</speed>
  <fix>3d</fix>
</trkpt>
<trkpt lat="40.0728433" lon="-105.2308506">
  <ele>1595.47</ele>
  <time>2026-08-28T19:11:13Z</time>
  <course>64.78</course>
  <speed>0.03</speed>
  <fix>3d</fix>
</trkpt>
<trkpt lat="40.0728432" lon="-105.2308506">
  <ele>1595.38</ele>
  <time>2026-08-28T19:11:13Z</time>
  <course>190.06</course>
  <speed>0.01</speed>
  <fix>3d</fix>
</trkpt>
<trkpt lat="40.0728433" lon="-105.2308506">
  <ele>1595.47</ele>
  <time>2026-08-28T19:11:13Z</time>
  <course>64.74</course>
  <speed>0.01</speed>
  <fix>3d</fix>
</trkpt>
<trkpt lat="40.0728431" lon="-105.2308506">
  <ele>1595.38</ele>
  <time>2026-08-28T19:11:13Z</time>
  <course>165.04</course>
  <speed>0.02</speed>
  <fix>3d</fix>
</trkpt>
<trkpt lat="40.0728433" lon="-105.2308506">
  <ele>1595.47</ele>
  <time>2026-08-28T19:11:13Z</time>
  <course>64.72</course>
  <speed>0.02</speed>
  <fix>3d</fix>
</trkpt>
<trkpt lat="40.0728431" lon="-105.2308506">
  <ele>1595.38</ele>
  <time>2026-08-28T19:11:13Z</time>
  <course>189.4</course>
  <speed>0.01</speed>
  <fix>3d</fix>
</trkpt>
<trkpt lat="40.0728432" lon="-105.2308505">
  <ele>1595.47</ele>
  <time>2026-08-28T19:11:13Z</time>
  <course>64.73</course>
  <speed>0.0</speed>
  <fix>3d</fix>
</trkpt>
<trkpt lat="40.0728431" lon="-105.2308506">
  <ele>1595.38</ele>
  <time>2026-08-28T19:11:13Z</time>
  <course>165.36</course>
  <speed>0.02</speed>
  <fix>3d</fix>
</trkpt>
<trkpt lat="40.0728432" lon="-105.2308506">
  <ele>1595.47</ele>
  <time>2026-08-28T19:11:13Z</time>
  <course>64.67</course>
  <speed>0.01</speed>
  <fix>3d</fix>
</trkpt>
<trkpt lat="40.072843" lon="-105.2308506">
  <ele>1595.37</ele>
  <time>2026-08-28T19:11:13Z</time>
  <course>181.16</course>
  <speed>0.01</speed>
  <fix>3d</fix>
</trkpt>
<trkpt lat="40.0728432" lon="-105.2308505">
  <ele>1595.47</ele>
  <time>2026-08-28T19:11:13Z</time>
  <course>64.76</course>
  <speed>0.0</speed>
  <fix>3d</fix>
</trkpt>
<trkpt lat="40.072843" lon="-105.2308506">
  <ele>1595.37</ele>
  <time>2026-08-28T19:11:13Z</time>
  <course>170.32</course>
  <speed>0.01</speed>
  <fix>3d</fix>
</trkpt>
<trkpt lat="40.0728431" lon="-105.2308506">
  <ele>1595.47</ele>
  <time>2026-08-28T19:11:13Z</time>
  <course>64.69</course>
  <speed>0.0</speed>
  <fix>3d</fix>
</trkpt>
<trkpt lat="40.072843" lon="-105.2308506">
  <ele>1595.37</ele>
  <time>2026-08-28T19:11:13Z</time>
  <course>175.7</course>
  <speed>0.01</speed>
  <fix>3d</fix>
</trkpt>
<trkpt lat="40.0728431" lon="-105.2308505">
  <ele>1595.47</ele>
  <time>2026-08-28T19:11:13Z</time>
  <course>64.8</course>
  <speed>0.01</speed>
  <fix>3d</fix>
</trkpt>
<trkpt lat="40.0728429" lon="-105.2308506">
  <ele>1595.37</ele>
  <time>2026-08-28T19:11:13Z</time>
  <course>173.42</course>
  <speed>0.01</speed>
  <fix>3d</fix>
</trkpt>
<trkpt lat="40.0728431" lon="-105.2308506">
  <ele>1595.47</ele>
  <time>2026-08-28T19:11:13Z</time>
  <course>64.68</course>
  <speed>0.01</speed>
  <fix>3d</fix>
</trkpt>
<trkpt lat="40.0728429" lon="-105.2308506">
  <ele>1595.37</ele>
  <time>2026-08-28T19:11:13Z</time>
  <course>172.83</course>
  <speed>0.01</speed>
  <fix>3d</fix>
</trkpt>
<trkpt lat="40.072843" lon="-105.2308505">
  <ele>1595.46</ele>
  <time>2026-08-28T19:11:13Z</time>
  <course>64.79</course>
  <speed>0.01</speed>
  <fix>3d</fix>
</trkpt>
<trkpt lat="40.0728429" lon="-105.2308506">
  <ele>1595.37</ele>
  <time>2026-08-28T19:11:13Z</time>
  <course>175.06</course>
  <speed>0.02</speed>
  <fix>3d</fix>
</trkpt>
<trkpt lat="40.072843" lon="-105.2308506">
  <ele>1595.46</ele>
  <time>2026-08-28T19:11:13Z</time>
  <course>64.66</course>
  <speed>0.0</speed>
  <fix>3d</fix>
</trkpt>
<trkpt lat="40.0728428" lon="-105.2308506">
  <ele>1595.37</ele>
  <time>2026-08-28T19:11:13Z</time>
  <course>171.03</course>
  <speed>0.02</speed>
  <fix>3d</fix>
</trkpt>
<trkpt lat="40.072843" lon="-105.2308505">
  <ele>1595.45</ele>
  <time>2026-08-28T19:11:13Z</time>
  <course>64.77</course>
  <speed>0.0</speed>
  <fix>3d</fix>
</trkpt>
<trkpt lat="40.0728427" lon="-105.2308506">
  <ele>1595.37</ele>
  <time>2026-08-28T19:11:13Z</time>
  <course>176.78</course>
  <speed>0.02</speed>
  <fix>3d</fix>
</trkpt>
<trkpt lat="40.0728429" lon="-105.2308506">
  <ele>1595.45</ele>
  <time>2026-08-28T19:11:13Z</time>
  <course>64.68</course>
  <speed>0.01</speed>
  <fix>3d</fix>
</trkpt>
<trkpt lat="40.0728427" lon="-105.2308506">
  <ele>1595.37</ele>
  <time>2026-08-28T19:11:13Z</time>
  <course>168.28</course>
  <speed>0.02</speed>
  <fix>3d</fix>
</trkpt>
<trkpt lat="40.0728429" lon="-105.2308505">
  <ele>1595.45</ele>
  <time>2026-08-28T19:11:13Z</time>
  <course>64.74</course>
  <speed>0.0</speed>
  <fix>3d</fix>
</trkpt>
<trkpt lat="40.0728427" lon="-105.2308506">
  <ele>1595.37</ele>
  <time>2026-08-28T19:11:13Z</time>
  <course>179.11</course>
  <speed>0.02</speed>
  <fix>3d</fix>
</trkpt>
<trkpt lat="40.0728428" lon="-105.2308505">
  <ele>1595.45</ele>
  <time>2026-08-28T19:11:13Z</time>
  <course>64.73</course>
  <speed>0.02</speed>
  <fix>3d</fix>
</trkpt>
<trkpt lat="40.0728426" lon="-105.2308506">
  <ele>1595.37</ele>
  <time>2026-08-28T19:11:13Z</time>
  <course>166.31</course>
  <speed>0.02</speed>
  <fix>3d</fix>
</trkpt>
<trkpt lat="40.0728428" lon="-105.2308505">
  <ele>1595.45</ele>
  <time>2026-08-28T19:11:13Z</time>
  <course>64.74</course>
  <speed>0.0</speed>
  <fix>3d</fix>
</trkpt>
<trkpt lat="40.0728426" lon="-105.2308506">
  <ele>1595.38</ele>
  <time>2026-08-28T19:11:13Z</time>
  <course>180.81</course>
  <speed>0.01</speed>
  <fix>3d</fix>
</trkpt>
<trkpt lat="40.0728428" lon="-105.2308505">
  <ele>1595.46</ele>
  <time>2026-08-28T19:11:13Z</time>
  <course>64.84</course>
  <speed>0.01</speed>
  <fix>3d</fix>
</trkpt>
<trkpt lat="40.0728426" lon="-105.2308506">
  <ele>1595.38</ele>
  <time>2026-08-28T19:11:13Z</time>
  <course>168.84</course>
  <speed>0.02</speed>
  <fix>3d</fix>
</trkpt>
<trkpt lat="40.0728427" lon="-105.2308505">
  <ele>1595.46</ele>
  <time>2026-08-28T19:11:13Z</time>
  <course>64.71</course>
  <speed>0.01</speed>
  <fix>3d</fix>
</trkpt>
<trkpt lat="40.0728426" lon="-105.2308506">
  <ele>1595.38</ele>
  <time>2026-08-28T19:11:13Z</time>
  <course>173.24</course>
  <speed>0.01</speed>
  <fix>3d</fix>
</trkpt>
<trkpt lat="40.0728427" lon="-105.2308505">
  <ele>1595.46</ele>
  <time>2026-08-28T19:11:13Z</time>
  <course>64.85</course>
  <speed>0.0</speed>
  <fix>3d</fix>
</trkpt>
<trkpt lat="40.0728425" lon="-105.2308506">
  <ele>1595.39</ele>
  <time>2026-08-28T19:11:13Z</time>
  <course>177.33</course>
  <speed>0.02</speed>
  <fix>3d</fix>
</trkpt>
<trkpt lat="40.0728427" lon="-105.2308506">
  <ele>1595.46</ele>
  <time>2026-08-28T19:11:13Z</time>
  <course>64.81</course>
  <speed>0.01</speed>
  <fix>3d</fix>
</trkpt>
<trkpt lat="40.0728425" lon="-105.2308506">
  <ele>1595.39</ele>
  <time>2026-08-28T19:11:13Z</time>
  <course>161.79</course>
  <speed>0.02</speed>
  <fix>3d</fix>
</trkpt>
<trkpt lat="40.0728426" lon="-105.2308505">
  <ele>1595.46</ele>
  <time>2026-08-28T19:11:13Z</time>
  <course>64.81</course>
  <speed>0.0</speed>
  <fix>3d</fix>
</trkpt>
<trkpt lat="40.0728425" lon="-105.2308506">
  <ele>1595.39</ele>
  <time>2026-08-28T19:11:13Z</time>
  <course>181.78</course>
  <speed>0.01</speed>
  <fix>3d</fix>
</trkpt>
<trkpt lat="40.0728426" lon="-105.2308505">
  <ele>1595.47</ele>
  <time>2026-08-28T19:11:13Z</time>
  <course>64.92</course>
  <speed>0.01</speed>
  <fix>3d</fix>
</trkpt>
<trkpt lat="40.0728424" lon="-105.2308506">
  <ele>1595.39</ele>
  <time>2026-08-28T19:11:13Z</time>
  <course>167.06</course>
  <speed>0.02</speed>
  <fix>3d</fix>
</trkpt>
<trkpt lat="40.0728426" lon="-105.2308505">
  <ele>1595.47</ele>
  <time>2026-08-28T19:11:13Z</time>
  <course>64.8</course>
  <speed>0.01</speed>
  <fix>3d</fix>
</trkpt>
<trkpt lat="40.0728424" lon="-105.2308506">
  <ele>1595.4</ele>
  <time>2026-08-28T19:11:13Z</time>
  <course>161.5</course>
  <speed>0.01</speed>
  <fix>3d</fix>
</trkpt>
<trkpt lat="40.0728425" lon="-105.2308505">
  <ele>1595.47</ele>
  <time>2026-08-28T19:11:13Z</time>
  <course>64.87</course>
  <speed>0.0</speed>
  <fix>3d</fix>
</trkpt>
<trkpt lat="40.0728424" lon="-105.2308506">
  <ele>1595.4</ele>
  <time>2026-08-28T19:11:13Z</time>
  <course>179.0</course>
  <speed>0.01</speed>
  <fix>3d</fix>
</trkpt>
<trkpt lat="40.0728425" lon="-105.2308505">
  <ele>1595.47</ele>
  <time>2026-08-28T19:11:13Z</time>
  <course>64.98</course>
  <speed>0.01</speed>
  <fix>3d</fix>
</trkpt>
<trkpt lat="40.0728423" lon="-105.2308506">
  <ele>1595.4</ele>
  <time>2026-08-28T19:11:13Z</time>
  <course>164.24</course>
  <speed>0.02</speed>
  <fix>3d</fix>
</trkpt>
<trkpt lat="40.0728425" lon="-105.2308505">
  <ele>1595.48</ele>
  <time>2026-08-28T19:11:13Z</time>
  <course>64.87</course>
  <speed>0.01</speed>
  <fix>3d</fix>
</trkpt>
<trkpt lat="40.0728423" lon="-105.2308506">
  <ele>1595.4</ele>
  <time>2026-08-28T19:11:13Z</time>
  <course>161.21</course>
  <speed>0.01</speed>
  <fix>3d</fix>
</trkpt>
<trkpt lat="40.0728424" lon="-105.2308505">
  <ele>1595.47</ele>
  <time>2026-08-28T19:11:13Z</time>
  <course>64.89</course>
  <speed>0.01</speed>
  <fix>3d</fix>
</trkpt>
<trkpt lat="40.0728423" lon="-105.2308505">
  <ele>1595.4</ele>
  <time>2026-08-28T19:11:13Z</time>
  <course>175.84</course>
  <speed>0.01</speed>
  <fix>3d</fix>
</trkpt>
<trkpt lat="40.0728424" lon="-105.2308505">
  <ele>1595.47</ele>
  <time>2026-08-28T19:11:13Z</time>
  <course>64.98</course>
  <speed>0.01</speed>
  <fix>3d</fix>
</trkpt>
<trkpt lat="40.0728422" lon="-105.2308504">
  <ele>1595.4</ele>
  <time>2026-08-28T19:11:13Z</time>
  <course>165.94</course>
  <speed>0.02</speed>
  <fix>3d</fix>
</trkpt>
<trkpt lat="40.0728424" lon="-105.2308505">
  <ele>1595.47</ele>
  <time>2026-08-28T19:11:13Z</time>
  <course>64.98</course>
  <speed>0.01</speed>
  <fix>3d</fix>
</trkpt>
<trkpt lat="40.0728421" lon="-105.2308504">
  <ele>1595.4</ele>
  <time>2026-08-28T19:11:13Z</time>
  <course>160.57</course>
  <speed>0.02</speed>
  <fix>3d</fix>
</trkpt>
<trkpt lat="40.0728423" lon="-105.2308505">
  <ele>1595.47</ele>
  <time>2026-08-28T19:11:13Z</time>
  <course>64.82</course>
  <speed>0.01</speed>
  <fix>3d</fix>
</trkpt>
<trkpt lat="40.0728421" lon="-105.2308504">
  <ele>1595.4</ele>
  <time>2026-08-28T19:11:13Z</time>
  <course>166.17</course>
  <speed>0.01</speed>
  <fix>3d</fix>
</trkpt>
<trkpt lat="40.0728423" lon="-105.2308504">
  <ele>1595.47</ele>
  <time>2026-08-28T19:11:13Z</time>
  <course>64.86</course>
  <speed>0.0</speed>
  <fix>3d</fix>
</trkpt>
<trkpt lat="40.0728421" lon="-105.2308504">
  <ele>1595.4</ele>
  <time>2026-08-28T19:11:13Z</time>
  <course>167.55</course>
  <speed>0.01</speed>
  <fix>3d</fix>
</trkpt>
<trkpt lat="40.0728422" lon="-105.2308504">
  <ele>1595.47</ele>
  <time>2026-08-28T19:11:13Z</time>
  <course>64.92</course>
  <speed>0.01</speed>
  <fix>3d</fix>
</trkpt>
<trkpt lat="40.072842" lon="-105.2308504">
  <ele>1595.4</ele>
  <time>2026-08-28T19:11:13Z</time>
  <course>162.85</course>
  <speed>0.02</speed>
  <fix>3d</fix>
</trkpt>
<trkpt lat="40.0728422" lon="-105.2308504">
  <ele>1595.47</ele>
  <time>2026-08-28T19:11:13Z</time>
  <course>64.93</course>
  <speed>0.01</speed>
  <fix>3d</fix>
</trkpt>
<trkpt lat="40.072842" lon="-105.2308504">
  <ele>1595.4</ele>
  <time>2026-08-28T19:11:13Z</time>
  <course>163.67</course>
  <speed>0.02</speed>
  <fix>3d</fix>
</trkpt>
<trkpt lat="40.0728422" lon="-105.2308504">
  <ele>1595.47</ele>
  <time>2026-08-28T19:11:13Z</time>
  <course>64.86</course>
  <speed>0.01</speed>
  <fix>3d</fix>
</trkpt>
<trkpt lat="40.072842" lon="-105.2308504">
  <ele>1595.4</ele>
  <time>2026-08-28T19:11:13Z</time>
  <course>169.54</course>
  <speed>0.01</speed>
  <fix>3d</fix>
</trkpt>
<trkpt lat="40.0728421" lon="-105.2308504">
  <ele>1595.48</ele>
  <time>2026-08-28T19:11:13Z</time>
  <course>64.78</course>
  <speed>0.0</speed>
  <fix>3d</fix>
</trkpt>
<trkpt lat="40.072842" lon="-105.2308504">
  <ele>1595.4</ele>
  <time>2026-08-28T19:11:13Z</time>
  <course>173.95</course>
  <speed>0.01</speed>
  <fix>3d</fix>
</trkpt>
<trkpt lat="40.0728421" lon="-105.2308504">
  <ele>1595.48</ele>
  <time>2026-08-28T19:11:13Z</time>
  <course>64.79</course>
  <speed>0.0</speed>
  <fix>3d</fix>
</trkpt>
<trkpt lat="40.0728419" lon="-105.2308504">
  <ele>1595.4</ele>
  <time>2026-08-28T19:11:13Z</time>
  <course>169.7</course>
  <speed>0.01</speed>
  <fix>3d</fix>
</trkpt>
<trkpt lat="40.0728421" lon="-105.2308504">
  <ele>1595.48</ele>
  <time>2026-08-28T19:11:13Z</time>
  <course>64.82</course>
  <speed>0.0</speed>
  <fix>3d</fix>
</trkpt>
<trkpt lat="40.0728419" lon="-105.2308504">
  <ele>1595.4</ele>
  <time>2026-08-28T19:11:13Z</time>
  <course>165.81</course>
  <speed>0.02</speed>
  <fix>3d</fix>
</trkpt>
<trkpt lat="40.072842" lon="-105.2308504">
  <ele>1595.47</ele>
  <time>2026-08-28T19:11:13Z</time>
  <course>64.83</course>
  <speed>0.01</speed>
  <fix>3d</fix>
</trkpt>
<trkpt lat="40.0728419" lon="-105.2308504">
  <ele>1595.4</ele>
  <time>2026-08-28T19:11:13Z</time>
  <course>165.85</course>
  <speed>0.02</speed>
  <fix>3d</fix>
</trkpt>
<trkpt lat="40.072842" lon="-105.2308504">
  <ele>1595.47</ele>
  <time>2026-08-28T19:11:13Z</time>
  <course>64.82</course>
  <speed>0.01</speed>
  <fix>3d</fix>
</trkpt>
<trkpt lat="40.0728418" lon="-105.2308504">
  <ele>1595.4</ele>
  <time>2026-08-28T19:11:13Z</time>
  <course>168.27</course>
  <speed>0.02</speed>
  <fix>3d</fix>
</trkpt>
<trkpt lat="40.072842" lon="-105.2308503">
  <ele>1595.47</ele>
  <time>2026-08-28T19:11:14Z</time>
  <course>64.8</course>
  <speed>0.01</speed>
  <fix>3d</fix>
</trkpt>
<trkpt lat="40.0728418" lon="-105.2308504">
  <ele>1595.39</ele>
  <time>2026-08-28T19:11:14Z</time>
  <course>171.26</course>
  <speed>0.02</speed>
  <fix>3d</fix>
</trkpt>
<trkpt lat="40.0728419" lon="-105.2308503">
  <ele>1595.47</ele>
  <time>2026-08-28T19:11:14Z</time>
  <course>64.79</course>
  <speed>0.01</speed>
  <fix>3d</fix>
</trkpt>
<trkpt lat="40.0728418" lon="-105.2308504">
  <ele>1595.39</ele>
  <time>2026-08-28T19:11:14Z</time>
  <course>173.9</course>
  <speed>0.02</speed>
  <fix>3d</fix>
</trkpt>
<trkpt lat="40.0728419" lon="-105.2308503">
  <ele>1595.47</ele>
  <time>2026-08-28T19:11:14Z</time>
  <course>64.77</course>
  <speed>0.01</speed>
  <fix>3d</fix>
</trkpt>
<trkpt lat="40.0728417" lon="-105.2308504">
  <ele>1595.39</ele>
  <time>2026-08-28T19:11:14Z</time>
  <course>175.98</course>
  <speed>0.02</speed>
  <fix>3d</fix>
</trkpt>
<trkpt lat="40.0728418" lon="-105.2308503">
  <ele>1595.47</ele>
  <time>2026-08-28T19:11:14Z</time>
  <course>64.75</course>
  <speed>0.01</speed>
  <fix>3d</fix>
</trkpt>
<trkpt lat="40.0728417" lon="-105.2308504">
  <ele>1595.39</ele>
  <time>2026-08-28T19:11:14Z</time>
  <course>177.18</course>
  <speed>0.02</speed>
  <fix>3d</fix>
</trkpt>
<trkpt lat="40.0728418" lon="-105.2308503">
  <ele>1595.47</ele>
  <time>2026-08-28T19:11:14Z</time>
  <course>64.75</course>
  <speed>0.01</speed>
  <fix>3d</fix>
</trkpt>
<trkpt lat="40.0728416" lon="-105.2308504">
  <ele>1595.39</ele>
  <time>2026-08-28T19:11:14Z</time>
  <course>177.75</course>
  <speed>0.02</speed>
  <fix>3d</fix>
</trkpt>
<trkpt lat="40.0728418" lon="-105.2308503">
  <ele>1595.47</ele>
  <time>2026-08-28T19:11:14Z</time>
  <course>64.75</course>
  <speed>0.01</speed>
  <fix>3d</fix>
</trkpt>
<trkpt lat="40.0728415" lon="-105.2308504">
  <ele>1595.39</ele>
  <time>2026-08-28T19:11:14Z</time>
  <course>177.53</course>
  <speed>0.02</speed>
  <fix>3d</fix>
</trkpt>
<trkpt lat="40.0728417" lon="-105.2308503">
  <ele>1595.47</ele>
  <time>2026-08-28T19:11:14Z</time>
  <course>64.74</course>
  <speed>0.01</speed>
  <fix>3d</fix>
</trkpt>
<trkpt lat="40.0728415" lon="-105.2308504">
  <ele>1595.39</ele>
  <time>2026-08-28T19:11:14Z</time>
  <course>176.05</course>
  <speed>0.02</speed>
  <fix>3d</fix>
</trkpt>
<trkpt lat="40.0728417" lon="-105.2308503">
  <ele>1595.47</ele>
  <time>2026-08-28T19:11:14Z</time>
  <course>64.73</course>
  <speed>0.01</speed>
  <fix>3d</fix>
</trkpt>
<trkpt lat="40.0728415" lon="-105.2308504">
  <ele>1595.39</ele>
  <time>2026-08-28T19:11:14Z</time>
  <course>173.53</course>
  <speed>0.02</speed>
  <fix>3d</fix>
</trkpt>
<trkpt lat="40.0728416" lon="-105.2308503">
  <ele>1595.47</ele>
  <time>2026-08-28T19:11:14Z</time>
  <course>64.71</course>
  <speed>0.01</speed>
  <fix>3d</fix>
</trkpt>
<trkpt lat="40.0728414" lon="-105.2308504">
  <ele>1595.39</ele>
  <time>2026-08-28T19:11:14Z</time>
  <course>170.27</course>
  <speed>0.02</speed>
  <fix>3d</fix>
</trkpt>
<trkpt lat="40.0728416" lon="-105.2308503">
  <ele>1595.47</ele>
  <time>2026-08-28T19:11:14Z</time>
  <course>64.7</course>
  <speed>0.0</speed>
  <fix>3d</fix>
</trkpt>
<trkpt lat="40.0728414" lon="-105.2308503">
  <ele>1595.39</ele>
  <time>2026-08-28T19:11:14Z</time>
  <course>166.92</course>
  <speed>0.02</speed>
  <fix>3d</fix>
</trkpt>
<trkpt lat="40.0728415" lon="-105.2308503">
  <ele>1595.48</ele>
  <time>2026-08-28T19:11:14Z</time>
  <course>64.7</course>
  <speed>0.0</speed>
  <fix>3d</fix>
</trkpt>
<trkpt lat="40.0728414" lon="-105.2308503">
  <ele>1595.39</ele>
  <time>2026-08-28T19:11:14Z</time>
  <course>165.29</course>
  <speed>0.02</speed>
  <fix>3d</fix>
</trkpt>
<trkpt lat="40.0728415" lon="-105.2308503">
  <ele>1595.47</ele>
  <time>2026-08-28T19:11:14Z</time>
  <course>64.72</course>
  <speed>0.0</speed>
  <fix>3d</fix>
</trkpt>
<trkpt lat="40.0728414" lon="-105.2308503">
  <ele>1595.39</ele>
  <time>2026-08-28T19:11:14Z</time>
  <course>167.44</course>
  <speed>0.01</speed>
  <fix>3d</fix>
</trkpt>
<trkpt lat="40.0728415" lon="-105.2308503">
  <ele>1595.47</ele>
  <time>2026-08-28T19:11:14Z</time>
  <course>64.74</course>
  <speed>0.01</speed>
  <fix>3d</fix>
</trkpt>
<trkpt lat="40.0728413" lon="-105.2308503">
  <ele>1595.39</ele>
  <time>2026-08-28T19:11:14Z</time>
  <course>171.9</course>
  <speed>0.01</speed>
  <fix>3d</fix>
</trkpt>
<trkpt lat="40.0728415" lon="-105.2308503">
  <ele>1595.47</ele>
  <time>2026-08-28T19:11:14Z</time>
  <course>64.73</course>
  <speed>0.01</speed>
  <fix>3d</fix>
</trkpt>
<trkpt lat="40.0728413" lon="-105.2308503">
  <ele>1595.39</ele>
  <time>2026-08-28T19:11:14Z</time>
  <course>172.91</course>
  <speed>0.01</speed>
  <fix>3d</fix>
</trkpt>
<trkpt lat="40.0728414" lon="-105.2308503">
  <ele>1595.47</ele>
  <time>2026-08-28T19:11:14Z</time>
  <course>64.71</course>
  <speed>0.01</speed>
  <fix>3d</fix>
</trkpt>
<trkpt lat="40.0728413" lon="-105.2308503">
  <ele>1595.39</ele>
  <time>2026-08-28T19:11:14Z</time>
  <course>168.6</course>
  <speed>0.01</speed>
  <fix>3d</fix>
</trkpt>
<trkpt lat="40.0728414" lon="-105.2308503">
  <ele>1595.47</ele>
  <time>2026-08-28T19:11:14Z</time>
  <course>64.68</course>
  <speed>0.0</speed>
  <fix>3d</fix>
</trkpt>
<trkpt lat="40.0728412" lon="-105.2308503">
  <ele>1595.39</ele>
  <time>2026-08-28T19:11:14Z</time>
  <course>166.15</course>
  <speed>0.01</speed>
  <fix>3d</fix>
</trkpt>
<trkpt lat="40.0728414" lon="-105.2308503">
  <ele>1595.47</ele>
  <time>2026-08-28T19:11:14Z</time>
  <course>64.7</course>
  <speed>0.01</speed>
  <fix>3d</fix>
</trkpt>
<trkpt lat="40.0728412" lon="-105.2308503">
  <ele>1595.39</ele>
  <time>2026-08-28T19:11:14Z</time>
  <course>170.4</course>
  <speed>0.01</speed>
  <fix>3d</fix>
</trkpt>
<trkpt lat="40.0728413" lon="-105.2308503">
  <ele>1595.48</ele>
  <time>2026-08-28T19:11:14Z</time>
  <course>64.71</course>
  <speed>0.01</speed>
  <fix>3d</fix>
</trkpt>
<trkpt lat="40.0728412" lon="-105.2308503">
  <ele>1595.39</ele>
  <time>2026-08-28T19:11:14Z</time>
  <course>172.16</course>
  <speed>0.01</speed>
  <fix>3d</fix>
</trkpt>
<trkpt lat="40.0728413" lon="-105.2308503">
  <ele>1595.48</ele>
  <time>2026-08-28T19:11:14Z</time>
  <course>64.7</course>
  <speed>0.0</speed>
  <fix>3d</fix>
</trkpt>
<trkpt lat="40.0728411" lon="-105.2308503">
  <ele>1595.39</ele>
  <time>2026-08-28T19:11:14Z</time>
  <course>168.88</course>
  <speed>0.01</speed>
  <fix>3d</fix>
</trkpt>
<trkpt lat="40.0728413" lon="-105.2308503">
  <ele>1595.48</ele>
  <time>2026-08-28T19:11:14Z</time>
  <course>64.74</course>
  <speed>0.0</speed>
  <fix>3d</fix>
</trkpt>
<trkpt lat="40.0728411" lon="-105.2308503">
  <ele>1595.38</ele>
  <time>2026-08-28T19:11:14Z</time>
  <course>170.44</course>
  <speed>0.01</speed>
  <fix>3d</fix>
</trkpt>
<trkpt lat="40.0728412" lon="-105.2308503">
  <ele>1595.48</ele>
  <time>2026-08-28T19:11:14Z</time>
  <course>64.74</course>
  <speed>0.0</speed>
  <fix>3d</fix>
</trkpt>
<trkpt lat="40.0728411" lon="-105.2308503">
  <ele>1595.38</ele>
  <time>2026-08-28T19:11:14Z</time>
  <course>171.37</course>
  <speed>0.01</speed>
  <fix>3d</fix>
</trkpt>
<trkpt lat="40.0728412" lon="-105.2308502">
  <ele>1595.48</ele>
  <time>2026-08-28T19:11:14Z</time>
  <course>64.73</course>
  <speed>0.0</speed>
  <fix>3d</fix>
</trkpt>
<trkpt lat="40.072841" lon="-105.2308503">
  <ele>1595.38</ele>
  <time>2026-08-28T19:11:14Z</time>
  <course>169.95</course>
  <speed>0.02</speed>
  <fix>3d</fix>
</trkpt>
<trkpt lat="40.0728412" lon="-105.2308502">
  <ele>1595.47</ele>
  <time>2026-08-28T19:11:14Z</time>
  <course>64.73</course>
  <speed>0.0</speed>
  <fix>3d</fix>
</trkpt>
<trkpt lat="40.0728409" lon="-105.2308502">
  <ele>1595.38</ele>
  <time>2026-08-28T19:11:14Z</time>
  <course>170.52</course>
  <speed>0.02</speed>
  <fix>3d</fix>
</trkpt>
<trkpt lat="40.0728411" lon="-105.2308502">
  <ele>1595.48</ele>
  <time>2026-08-28T19:11:14Z</time>
  <course>64.73</course>
  <speed>0.0</speed>
  <fix>3d</fix>
</trkpt>
<trkpt lat="40.0728409" lon="-105.2308501">
  <ele>1595.37</ele>
  <time>2026-08-28T19:11:14Z</time>
  <course>170.36</course>
  <speed>0.02</speed>
  <fix>3d</fix>
</trkpt>
<trkpt lat="40.0728411" lon="-105.2308502">
  <ele>1595.48</ele>
  <time>2026-08-28T19:11:14Z</time>
  <course>64.73</course>
  <speed>0.0</speed>
  <fix>3d</fix>
</trkpt>
<trkpt lat="40.0728409" lon="-105.2308501">
  <ele>1595.37</ele>
  <time>2026-08-28T19:11:14Z</time>
  <course>170.27</course>
  <speed>0.02</speed>
  <fix>3d</fix>
</trkpt>
<trkpt lat="40.072841" lon="-105.2308502">
  <ele>1595.48</ele>
  <time>2026-08-28T19:11:14Z</time>
  <course>64.71</course>
  <speed>0.01</speed>
  <fix>3d</fix>
</trkpt>
<trkpt lat="40.0728408" lon="-105.2308501">
  <ele>1595.37</ele>
  <time>2026-08-28T19:11:14Z</time>
  <course>169.72</course>
  <speed>0.02</speed>
  <fix>3d</fix>
</trkpt>
<trkpt lat="40.072841" lon="-105.2308502">
  <ele>1595.47</ele>
  <time>2026-08-28T19:11:14Z</time>
  <course>64.7</course>
  <speed>0.01</speed>
  <fix>3d</fix>
</trkpt>
<trkpt lat="40.0728408" lon="-105.2308501">
  <ele>1595.37</ele>
  <time>2026-08-28T19:11:14Z</time>
  <course>165.21</course>
  <speed>0.02</speed>
  <fix>3d</fix>
</trkpt>
<trkpt lat="40.072841" lon="-105.2308501">
  <ele>1595.47</ele>
  <time>2026-08-28T19:11:14Z</time>
  <course>64.69</course>
  <speed>0.01</speed>
  <fix>3d</fix>
</trkpt>
<trkpt lat="40.0728408" lon="-105.2308501">
  <ele>1595.36</ele>
  <time>2026-08-28T19:11:14Z</time>
  <course>157.14</course>
  <speed>0.02</speed>
  <fix>3d</fix>
</trkpt>
<trkpt lat="40.0728409" lon="-105.2308501">
  <ele>1595.46</ele>
  <time>2026-08-28T19:11:14Z</time>
  <course>64.68</course>
  <speed>0.02</speed>
  <fix>3d</fix>
</trkpt>
<trkpt lat="40.0728408" lon="-105.2308501">
  <ele>1595.36</ele>
  <time>2026-08-28T19:11:14Z</time>
  <course>149.83</course>
  <speed>0.02</speed>
  <fix>3d</fix>
</trkpt>
<trkpt lat="40.0728409" lon="-105.2308501">
  <ele>1595.46</ele>
  <time>2026-08-28T19:11:14Z</time>
  <course>64.67</course>
  <speed>0.02</speed>
  <fix>3d</fix>
</trkpt>
<trkpt lat="40.0728408" lon="-105.2308501">
  <ele>1595.36</ele>
  <time>2026-08-28T19:11:14Z</time>
  <course>143.72</course>
  <speed>0.02</speed>
  <fix>3d</fix>
</trkpt>
<trkpt lat="40.0728409" lon="-105.23085">
  <ele>1595.45</ele>
  <time>2026-08-28T19:11:14Z</time>
  <course>64.68</course>
  <speed>0.02</speed>
  <fix>3d</fix>
</trkpt>
<trkpt lat="40.0728407" lon="-105.2308501">
  <ele>1595.36</ele>
  <time>2026-08-28T19:11:14Z</time>
  <course>138.48</course>
  <speed>0.02</speed>
  <fix>3d</fix>
</trkpt>
<trkpt lat="40.0728409" lon="-105.23085">
  <ele>1595.45</ele>
  <time>2026-08-28T19:11:14Z</time>
  <course>64.65</course>
  <speed>0.02</speed>
  <fix>3d</fix>
</trkpt>
<trkpt lat="40.0728407" lon="-105.2308501">
  <ele>1595.36</ele>
  <time>2026-08-28T19:11:14Z</time>
  <course>135.04</course>
  <speed>0.02</speed>
  <fix>3d</fix>
</trkpt>
<trkpt lat="40.0728408" lon="-105.23085">
  <ele>1595.45</ele>
  <time>2026-08-28T19:11:14Z</time>
  <course>64.66</course>
  <speed>0.02</speed>
  <fix>3d</fix>
</trkpt>
<trkpt lat="40.0728407" lon="-105.23085">
  <ele>1595.36</ele>
  <time>2026-08-28T19:11:14Z</time>
  <course>132.76</course>
  <speed>0.02</speed>
  <fix>3d</fix>
</trkpt>
<trkpt lat="40.0728408" lon="-105.2308499">
  <ele>1595.46</ele>
  <time>2026-08-28T19:11:14Z</time>
  <course>64.66</course>
  <speed>0.02</speed>
  <fix>3d</fix>
</trkpt>
<trkpt lat="40.0728406" lon="-105.2308499">
  <ele>1595.36</ele>
  <time>2026-08-28T19:11:14Z</time>
  <course>130.33</course>
  <speed>0.02</speed>
  <fix>3d</fix>
</trkpt>
<trkpt lat="40.0728408" lon="-105.2308499">
  <ele>1595.46</ele>
  <time>2026-08-28T19:11:14Z</time>
  <course>64.68</course>
  <speed>0.02</speed>
  <fix>3d</fix>
</trkpt>
<trkpt lat="40.0728406" lon="-105.2308499">
  <ele>1595.37</ele>
  <time>2026-08-28T19:11:14Z</time>
  <course>127.68</course>
  <speed>0.02</speed>
  <fix>3d</fix>
</trkpt>
<trkpt lat="40.0728408" lon="-105.2308498">
  <ele>1595.47</ele>
  <time>2026-08-28T19:11:14Z</time>
  <course>64.68</course>
  <speed>0.02</speed>
  <fix>3d</fix>
</trkpt>
<trkpt lat="40.0728406" lon="-105.2308499">
  <ele>1595.37</ele>
  <time>2026-08-28T19:11:14Z</time>
  <course>125.1</course>
  <speed>0.02</speed>
  <fix>3d</fix>
</trkpt>
<trkpt lat="40.0728407" lon="-105.2308498">
  <ele>1595.47</ele>
  <time>2026-08-28T19:11:14Z</time>
  <course>64.69</course>
  <speed>0.02</speed>
  <fix>3d</fix>
</trkpt>
<trkpt lat="40.0728406" lon="-105.2308498">
  <ele>1595.37</ele>
  <time>2026-08-28T19:11:14Z</time>
  <course>122.73</course>
  <speed>0.02</speed>
  <fix>3d</fix>
</trkpt>
<trkpt lat="40.0728407" lon="-105.2308497">
  <ele>1595.47</ele>
  <time>2026-08-28T19:11:14Z</time>
  <course>64.69</course>
  <speed>0.022360679774997897</speed>
  <fix>3d</fix>
</trkpt>
<trkpt lat="40.0728405" lon="-105.2308498">
  <ele>1595.37</ele>
  <time>2026-08-28T19:11:14Z</time>
  <course>120.52</course>
  <speed>0.02</speed>
  <fix>3d</fix>
</trkpt>
<trkpt lat="40.0728407" lon="-105.2308497">
  <ele>1595.46</ele>
  <time>2026-08-28T19:11:14Z</time>
  <course>64.68</course>
  <speed>0.022360679774997897</speed>
  <fix>3d</fix>
</trkpt>
<trkpt lat="40.0728405" lon="-105.2308497">
  <ele>1595.37</ele>
  <time>2026-08-28T19:11:14Z</time>
  <course>119.17</course>
  <speed>0.02</speed>
  <fix>3d</fix>
</trkpt>
<trkpt lat="40.0728407" lon="-105.2308496">
  <ele>1595.46</ele>
  <time>2026-08-28T19:11:14Z</time>
  <course>64.68</course>
  <speed>0.022360679774997897</speed>
  <fix>3d</fix>
</trkpt>
<trkpt lat="40.0728405" lon="-105.2308496">
  <ele>1595.37</ele>
  <time>2026-08-28T19:11:14Z</time>
  <course>118.41</course>
  <speed>0.02</speed>
  <fix>3d</fix>
</trkpt>
<trkpt lat="40.0728407" lon="-105.2308496">
  <ele>1595.46</ele>
  <time>2026-08-28T19:11:14Z</time>
  <course>64.68</course>
  <speed>0.0316227766016838</speed>
  <fix>3d</fix>
</trkpt>
<trkpt lat="40.0728405" lon="-105.2308496">
  <ele>1595.37</ele>
  <time>2026-08-28T19:11:14Z</time>
  <course>117.58</course>
  <speed>0.02</speed>
  <fix>3d</fix>
</trkpt>
<trkpt lat="40.0728406" lon="-105.2308495">
  <ele>1595.46</ele>
  <time>2026-08-28T19:11:14Z</time>
  <course>64.67</course>
  <speed>0.0316227766016838</speed>
  <fix>3d</fix>
</trkpt>
<trkpt lat="40.0728404" lon="-105.2308496">
  <ele>1595.37</ele>
  <time>2026-08-28T19:11:14Z</time>
  <course>116.21</course>
  <speed>0.02</speed>
  <fix>3d</fix>
</trkpt>
<trkpt lat="40.0728406" lon="-105.2308494">
  <ele>1595.46</ele>
  <time>2026-08-28T19:11:14Z</time>
  <course>64.61</course>
  <speed>0.07280109889280519</speed>
  <fix>3d</fix>
</trkpt>
<trkpt lat="40.0728403" lon="-105.2308495">
  <ele>1595.37</ele>
  <time>2026-08-28T19:11:14Z</time>
  <course>97.77</course>
  <speed>0.03</speed>
  <fix>3d</fix>
</trkpt>
<trkpt lat="40.0728406" lon="-105.2308492">
  <ele>1595.46</ele>
  <time>2026-08-28T19:11:14Z</time>
  <course>64.73</course>
  <speed>0.06082762530298219</speed>
  <fix>3d</fix>
</trkpt>
<trkpt lat="40.0728403" lon="-105.2308493">
  <ele>1595.38</ele>
  <time>2026-08-28T19:11:14Z</time>
  <course>93.07</course>
  <speed>0.06</speed>
  <fix>3d</fix>
</trkpt>
<trkpt lat="40.0728406" lon="-105.2308491">
  <ele>1595.46</ele>
  <time>2026-08-28T19:11:14Z</time>
  <course>64.72</course>
  <speed>0.0632455532033676</speed>
  <fix>3d</fix>
</trkpt>
<trkpt lat="40.0728403" lon="-105.2308492">
  <ele>1595.38</ele>
  <time>2026-08-28T19:11:14Z</time>
  <course>87.11</course>
  <speed>0.06</speed>
  <fix>3d</fix>
</trkpt>
<trkpt lat="40.0728406" lon="-105.230849">
  <ele>1595.46</ele>
  <time>2026-08-28T19:11:14Z</time>
  <course>64.75</course>
  <speed>0.0282842712474619</speed>
  <fix>3d</fix>
</trkpt>
<trkpt lat="40.0728403" lon="-105.2308491">
  <ele>1595.38</ele>
  <time>2026-08-28T19:11:14Z</time>
  <course>84.43</course>
  <speed>0.04</speed>
  <fix>3d</fix>
</trkpt>
<trkpt lat="40.0728406" lon="-105.2308489">
  <ele>1595.47</ele>
  <time>2026-08-28T19:11:14Z</time>
  <course>64.78</course>
  <speed>0.0412310562561766</speed>
  <fix>3d</fix>
</trkpt>
<trkpt lat="40.0728403" lon="-105.230849">
  <ele>1595.38</ele>
  <time>2026-08-28T19:11:14Z</time>
  <course>91.54</course>
  <speed>0.03</speed>
  <fix>3d</fix>
</trkpt>
<trkpt lat="40.0728406" lon="-105.2308489">
  <ele>1595.47</ele>
  <time>2026-08-28T19:11:14Z</time>
  <course>64.73</course>
  <speed>0.01414213562373095</speed>
  <fix>3d</fix>
</trkpt>
<trkpt lat="40.0728403" lon="-105.2308489">
  <ele>1595.38</ele>
  <time>2026-08-28T19:11:14Z</time>
  <course>99.02</course>
  <speed>0.02</speed>
  <fix>3d</fix>
</trkpt>
<trkpt lat="40.0728405" lon="-105.2308488">
  <ele>1595.48</ele>
  <time>2026-08-28T19:11:14Z</time>
  <course>64.83</course>
  <speed>0.03</speed>
  <fix>3d</fix>
</trkpt>
<trkpt lat="40.0728403" lon="-105.2308489">
  <ele>1595.39</ele>
  <time>2026-08-28T19:11:14Z</time>
  <course>118.91</course>
  <speed>0.02</speed>
  <fix>3d</fix>
</trkpt>
<trkpt lat="40.0728405" lon="-105.2308488">
  <ele>1595.48</ele>
  <time>2026-08-28T19:11:14Z</time>
  <course>64.72</course>
  <speed>0.01</speed>
  <fix>3d</fix>
</trkpt>
<trkpt lat="40.0728403" lon="-105.2308488">
  <ele>1595.39</ele>
  <time>2026-08-28T19:11:14Z</time>
  <course>131.75</course>
  <speed>0.01</speed>
  <fix>3d</fix>
</trkpt>
<trkpt lat="40.0728405" lon="-105.2308488">
  <ele>1595.48</ele>
  <time>2026-08-28T19:11:14Z</time>
  <course>64.86</course>
  <speed>0.02</speed>
  <fix>3d</fix>
</trkpt>
<trkpt lat="40.0728403" lon="-105.2308487">
  <ele>1595.39</ele>
  <time>2026-08-28T19:11:14Z</time>
  <course>144.65</course>
  <speed>0.02</speed>
  <fix>3d</fix>
</trkpt>
<trkpt lat="40.0728404" lon="-105.2308488">
  <ele>1595.49</ele>
  <time>2026-08-28T19:11:14Z</time>
  <course>64.73</course>
  <speed>0.01414213562373095</speed>
  <fix>3d</fix>
</trkpt>
<trkpt lat="40.0728403" lon="-105.2308487">
  <ele>1595.39</ele>
  <time>2026-08-28T19:11:14Z</time>
  <course>147.06</course>
  <speed>0.01</speed>
  <fix>3d</fix>
</trkpt>
<trkpt lat="40.0728404" lon="-105.2308487">
  <ele>1595.48</ele>
  <time>2026-08-28T19:11:14Z</time>
  <course>64.85</course>
  <speed>0.01</speed>
  <fix>3d</fix>
</trkpt>
<trkpt lat="40.0728402" lon="-105.2308487">
  <ele>1595.38</ele>
  <time>2026-08-28T19:11:14Z</time>
  <course>156.26</course>
  <speed>0.02</speed>
  <fix>3d</fix>
</trkpt>
<trkpt lat="40.0728404" lon="-105.2308487">
  <ele>1595.48</ele>
  <time>2026-08-28T19:11:14Z</time>
  <course>64.74</course>
  <speed>0.01</speed>
  <fix>3d</fix>
</trkpt>
<trkpt lat="40.0728402" lon="-105.2308487">
  <ele>1595.38</ele>
  <time>2026-08-28T19:11:14Z</time>
  <course>151.27</course>
  <speed>0.02</speed>
  <fix>3d</fix>
</trkpt>
<trkpt lat="40.0728403" lon="-105.2308487">
  <ele>1595.47</ele>
  <time>2026-08-28T19:11:14Z</time>
  <course>64.8</course>
  <speed>0.0</speed>
  <fix>3d</fix>
</trkpt>
<trkpt lat="40.0728402" lon="-105.2308487">
  <ele>1595.38</ele>
  <time>2026-08-28T19:11:14Z</time>
  <course>162.07</course>
  <speed>0.02</speed>
  <fix>3d</fix>
</trkpt>
<trkpt lat="40.0728403" lon="-105.2308487">
  <ele>1595.46</ele>
  <time>2026-08-28T19:11:14Z</time>
  <course>64.73</course>
  <speed>0.02</speed>
  <fix>3d</fix>
</trkpt>
<trkpt lat="40.0728402" lon="-105.2308487">
  <ele>1595.37</ele>
  <time>2026-08-28T19:11:14Z</time>
  <course>154.33</course>
  <speed>0.02</speed>
  <fix>3d</fix>
</trkpt>
<trkpt lat="40.0728403" lon="-105.2308486">
  <ele>1595.46</ele>
  <time>2026-08-28T19:11:14Z</time>
  <course>64.75</course>
  <speed>0.0</speed>
  <fix>3d</fix>
</trkpt>
<trkpt lat="40.0728402" lon="-105.2308487">
  <ele>1595.37</ele>
  <time>2026-08-28T19:11:14Z</time>
  <course>166.7</course>
  <speed>0.01</speed>
  <fix>3d</fix>
</trkpt>
<trkpt lat="40.0728403" lon="-105.2308486">
  <ele>1595.45</ele>
  <time>2026-08-28T19:11:14Z</time>
  <course>64.76</course>
  <speed>0.02</speed>
  <fix>3d</fix>
</trkpt>
<trkpt lat="40.0728401" lon="-105.2308487">
  <ele>1595.37</ele>
  <time>2026-08-28T19:11:14Z</time>
  <course>158.5</course>
  <speed>0.02</speed>
  <fix>3d</fix>
</trkpt>
<trkpt lat="40.0728402" lon="-105.2308486">
  <ele>1595.46</ele>
  <time>2026-08-28T19:11:14Z</time>
  <course>64.7</course>
  <speed>0.0</speed>
  <fix>3d</fix>
</trkpt>
<trkpt lat="40.0728401" lon="-105.2308487">
  <ele>1595.37</ele>
  <time>2026-08-28T19:11:14Z</time>
  <course>168.51</course>
  <speed>0.01</speed>
  <fix>3d</fix>
</trkpt>
<trkpt lat="40.0728402" lon="-105.2308486">
  <ele>1595.46</ele>
  <time>2026-08-28T19:11:14Z</time>
  <course>64.78</course>
  <speed>0.02</speed>
  <fix>3d</fix>
</trkpt>
<trkpt lat="40.0728401" lon="-105.2308487">
  <ele>1595.37</ele>
  <time>2026-08-28T19:11:14Z</time>
  <course>162.41</course>
  <speed>0.02</speed>
  <fix>3d</fix>
</trkpt>
<trkpt lat="40.0728402" lon="-105.2308486">
  <ele>1595.47</ele>
  <time>2026-08-28T19:11:14Z</time>
  <course>64.69</course>
  <speed>0.01</speed>
  <fix>3d</fix>
</trkpt>
<trkpt lat="40.07284" lon="-105.2308486">
  <ele>1595.38</ele>
  <time>2026-08-28T19:11:14Z</time>
  <course>167.93</course>
  <speed>0.01</speed>
  <fix>3d</fix>
</trkpt>
<trkpt lat="40.0728401" lon="-105.2308486">
  <ele>1595.47</ele>
  <time>2026-08-28T19:11:14Z</time>
  <course>64.83</course>
  <speed>0.01</speed>
  <fix>3d</fix>
</trkpt>
<trkpt lat="40.07284" lon="-105.2308486">
  <ele>1595.38</ele>
  <time>2026-08-28T19:11:14Z</time>
  <course>166.63</course>
  <speed>0.02</speed>
  <fix>3d</fix>
</trkpt>
<trkpt lat="40.0728401" lon="-105.2308486">
  <ele>1595.48</ele>
  <time>2026-08-28T19:11:14Z</time>
  <course>64.7</course>
  <speed>0.01</speed>
  <fix>3d</fix>
</trkpt>
<trkpt lat="40.0728399" lon="-105.2308486">
  <ele>1595.38</ele>
  <time>2026-08-28T19:11:14Z</time>
  <course>165.82</course>
  <speed>0.02</speed>
  <fix>3d</fix>
</trkpt>
<trkpt lat="40.0728401" lon="-105.2308486">
  <ele>1595.48</ele>
  <time>2026-08-28T19:11:14Z</time>
  <course>64.83</course>
  <speed>0.01</speed>
  <fix>3d</fix>
</trkpt>
<trkpt lat="40.0728399" lon="-105.2308486">
  <ele>1595.38</ele>
  <time>2026-08-28T19:11:14Z</time>
  <course>169.65</course>
  <speed>0.02</speed>
  <fix>3d</fix>
</trkpt>
<trkpt lat="40.07284" lon="-105.2308486">
  <ele>1595.48</ele>
  <time>2026-08-28T19:11:14Z</time>
  <course>64.72</course>
  <speed>0.01414213562373095</speed>
  <fix>3d</fix>
</trkpt>
<trkpt lat="40.0728399" lon="-105.2308486">
  <ele>1595.38</ele>
  <time>2026-08-28T19:11:14Z</time>
  <course>162.81</course>
  <speed>0.02</speed>
  <fix>3d</fix>
</trkpt>
<trkpt lat="40.07284" lon="-105.2308486">
  <ele>1595.48</ele>
  <time>2026-08-28T19:11:14Z</time>
  <course>64.81</course>
  <speed>0.0</speed>
  <fix>3d</fix>
</trkpt>
<trkpt lat="40.0728398" lon="-105.2308486">
  <ele>1595.38</ele>
  <time>2026-08-28T19:11:14Z</time>
  <course>171.27</course>
  <speed>0.02</speed>
  <fix>3d</fix>
</trkpt>
<trkpt lat="40.07284" lon="-105.2308486">
  <ele>1595.48</ele>
  <time>2026-08-28T19:11:14Z</time>
  <course>64.77</course>
  <speed>0.02</speed>
  <fix>3d</fix>
</trkpt>
<trkpt lat="40.0728397" lon="-105.2308486">
  <ele>1595.37</ele>
  <time>2026-08-28T19:11:14Z</time>
  <course>161.35</course>
  <speed>0.02</speed>
  <fix>3d</fix>
</trkpt>
<trkpt lat="40.0728399" lon="-105.2308486">
  <ele>1595.48</ele>
  <time>2026-08-28T19:11:14Z</time>
  <course>64.8</course>
  <speed>0.0</speed>
  <fix>3d</fix>
</trkpt>
<trkpt lat="40.0728397" lon="-105.2308485">
  <ele>1595.37</ele>
  <time>2026-08-28T19:11:14Z</time>
  <course>171.49</course>
  <speed>0.02</speed>
  <fix>3d</fix>
</trkpt>
<trkpt lat="40.0728399" lon="-105.2308485">
  <ele>1595.48</ele>
  <time>2026-08-28T19:11:14Z</time>
  <course>64.76</course>
  <speed>0.0412310562561766</speed>
  <fix>3d</fix>
</trkpt>
<trkpt lat="40.0728396" lon="-105.2308484">
  <ele>1595.37</ele>
  <time>2026-08-28T19:11:14Z</time>
  <course>150.99</course>
  <speed>0.02</speed>
  <fix>3d</fix>
</trkpt>
<trkpt lat="40.0728399" lon="-105.2308483">
  <ele>1595.48</ele>
  <time>2026-08-28T19:11:14Z</time>
  <course>64.68</course>
  <speed>0.11401754250991379</speed>
  <fix>3d</fix>
</trkpt>
<trkpt lat="40.0728396" lon="-105.2308484">
  <ele>1595.36</ele>
  <time>2026-08-28T19:11:14Z</time>
  <course>94.91</course>
  <speed>0.05</speed>
  <fix>3d</fix>
</trkpt>
<trkpt lat="40.0728399" lon="-105.230848">
  <ele>1595.48</ele>
  <time>2026-08-28T19:11:14Z</time>
  <course>64.69</course>
  <speed>0.13601470508735444</speed>
  <fix>3d</fix>
</trkpt>
<trkpt lat="40.0728396" lon="-105.2308482">
  <ele>1595.36</ele>
  <time>2026-08-28T19:11:14Z</time>
  <course>83.97</course>
  <speed>0.11</speed>
  <fix>3d</fix>
</trkpt>
<trkpt lat="40.0728399" lon="-105.2308477">
  <ele>1595.47</ele>
  <time>2026-08-28T19:11:14Z</time>
  <course>64.7</course>
  <speed>0.15231546211727817</speed>
  <fix>3d</fix>
</trkpt>
<trkpt lat="40.0728396" lon="-105.2308479">
  <ele>1595.36</ele>
  <time>2026-08-28T19:11:14Z</time>
  <course>77.78</course>
  <speed>0.13</speed>
  <fix>3d</fix>
</trkpt>
<trkpt lat="40.0728399" lon="-105.2308474">
  <ele>1595.47</ele>
  <time>2026-08-28T19:11:14Z</time>
  <course>64.71</course>
  <speed>0.15231546211727817</speed>
  <fix>3d</fix>
</trkpt>
<trkpt lat="40.0728397" lon="-105.2308476">
  <ele>1595.36</ele>
  <time>2026-08-28T19:11:14Z</time>
  <course>73.99</course>
  <speed>0.14</speed>
  <fix>3d</fix>
</trkpt>
<trkpt lat="40.07284" lon="-105.2308471">
  <ele>1595.46</ele>
  <time>2026-08-28T19:11:14Z</time>
  <course>64.7</course>
  <speed>0.15231546211727817</speed>
  <fix>3d</fix>
</trkpt>
<trkpt lat="40.0728397" lon="-105.2308473">
  <ele>1595.35</ele>
  <time>2026-08-28T19:11:14Z</time>
  <course>72.14</course>
  <speed>0.14</speed>
  <fix>3d</fix>
</trkpt>
<trkpt lat="40.0728401" lon="-105.2308468">
  <ele>1595.46</ele>
  <time>2026-08-28T19:11:14Z</time>
  <course>64.7</course>
  <speed>0.15231546211727817</speed>
  <fix>3d</fix>
</trkpt>
<trkpt lat="40.0728398" lon="-105.230847">
  <ele>1595.35</ele>
  <time>2026-08-28T19:11:14Z</time>
  <course>71.57</course>
  <speed>0.14</speed>
  <fix>3d</fix>
</trkpt>
<trkpt lat="40.0728401" lon="-105.2308464">
  <ele>1595.46</ele>
  <time>2026-08-28T19:11:14Z</time>
  <course>64.69</course>
  <speed>0.14317821063276354</speed>
  <fix>3d</fix>
</trkpt>
<trkpt lat="40.0728399" lon="-105.2308466">
  <ele>1595.35</ele>
  <time>2026-08-28T19:11:14Z</time>
  <course>71.52</course>
  <speed>0.14</speed>
  <fix>3d</fix>
</trkpt>
<trkpt lat="40.0728402" lon="-105.2308461">
  <ele>1595.46</ele>
  <time>2026-08-28T19:11:14Z</time>
  <course>64.7</course>
  <speed>0.14317821063276354</speed>
  <fix>3d</fix>
</trkpt>
<trkpt lat="40.07284" lon="-105.2308463">
  <ele>1595.35</ele>
  <time>2026-08-28T19:11:14Z</time>
  <course>71.54</course>
  <speed>0.14</speed>
  <fix>3d</fix>
</trkpt>
<trkpt lat="40.0728403" lon="-105.2308458">
  <ele>1595.46</ele>
  <time>2026-08-28T19:11:14Z</time>
  <course>64.68</course>
  <speed>0.14317821063276354</speed>
  <fix>3d</fix>
</trkpt>
<trkpt lat="40.0728401" lon="-105.230846">
  <ele>1595.35</ele>
  <time>2026-08-28T19:11:14Z</time>
  <course>71.73</course>
  <speed>0.13</speed>
  <fix>3d</fix>
</trkpt>
<trkpt lat="40.0728403" lon="-105.2308455">
  <ele>1595.47</ele>
  <time>2026-08-28T19:11:14Z</time>
  <course>64.69</course>
  <speed>0.1392838827718412</speed>
  <fix>3d</fix>
</trkpt>
<trkpt lat="40.0728402" lon="-105.2308457">
  <ele>1595.35</ele>
  <time>2026-08-28T19:11:14Z</time>
  <course>72.09</course>
  <speed>0.13</speed>
  <fix>3d</fix>
</trkpt>
<trkpt lat="40.0728404" lon="-105.2308452">
  <ele>1595.47</ele>
  <time>2026-08-28T19:11:14Z</time>
  <course>64.68</course>
  <speed>0.1392838827718412</speed>
  <fix>3d</fix>
</trkpt>
<trkpt lat="40.0728402" lon="-105.2308454">
  <ele>1595.36</ele>
  <time>2026-08-28T19:11:14Z</time>
  <course>72.47</course>
  <speed>0.13</speed>
  <fix>3d</fix>
</trkpt>
<trkpt lat="40.0728405" lon="-105.2308449">
  <ele>1595.46</ele>
  <time>2026-08-28T19:11:14Z</time>
  <course>64.68</course>
  <speed>0.1392838827718412</speed>
  <fix>3d</fix>
</trkpt>
<trkpt lat="40.0728403" lon="-105.2308451">
  <ele>1595.36</ele>
  <time>2026-08-28T19:11:14Z</time>
  <course>72.82</course>
  <speed>0.13</speed>
  <fix>3d</fix>
</trkpt>
<trkpt lat="40.0728405" lon="-105.2308446">
  <ele>1595.46</ele>
  <time>2026-08-28T19:11:14Z</time>
  <course>64.68</course>
  <speed>0.1392838827718412</speed>
  <fix>3d</fix>
</trkpt>
<trkpt lat="40.0728403" lon="-105.2308448">
  <ele>1595.36</ele>
  <time>2026-08-28T19:11:14Z</time>
  <course>73.15</course>
  <speed>0.13</speed>
  <fix>3d</fix>
</trkpt>
<trkpt lat="40.0728406" lon="-105.2308443">
  <ele>1595.46</ele>
  <time>2026-08-28T19:11:14Z</time>
  <course>64.68</course>
  <speed>0.1392838827718412</speed>
  <fix>3d</fix>
</trkpt>
<trkpt lat="40.0728404" lon="-105.2308445">
  <ele>1595.36</ele>
  <time>2026-08-28T19:11:14Z</time>
  <course>73.47</course>
  <speed>0.13</speed>
  <fix>3d</fix>
</trkpt>
<trkpt lat="40.0728406" lon="-105.230844">
  <ele>1595.46</ele>
  <time>2026-08-28T19:11:14Z</time>
  <course>64.67</course>
  <speed>0.1392838827718412</speed>
  <fix>3d</fix>
</trkpt>
<trkpt lat="40.0728405" lon="-105.2308442">
  <ele>1595.36</ele>
  <time>2026-08-28T19:11:14Z</time>
  <course>73.72</course>
  <speed>0.13</speed>
  <fix>3d</fix>
</trkpt>
<trkpt lat="40.0728407" lon="-105.2308437">
  <ele>1595.46</ele>
  <time>2026-08-28T19:11:14Z</time>
  <course>64.68</course>
  <speed>0.1392838827718412</speed>
  <fix>3d</fix>
</trkpt>
<trkpt lat="40.0728406" lon="-105.2308439">
  <ele>1595.36</ele>
  <time>2026-08-28T19:11:14Z</time>
  <course>73.88</course>
  <speed>0.13</speed>
  <fix>3d</fix>
</trkpt>
<trkpt lat="40.0728408" lon="-105.2308434">
  <ele>1595.47</ele>
  <time>2026-08-28T19:11:14Z</time>
  <course>64.69</course>
  <speed>0.18027756377319945</speed>
  <fix>3d</fix>
</trkpt>
<trkpt lat="40.0728406" lon="-105.2308436">
  <ele>1595.36</ele>
  <time>2026-08-28T19:11:14Z</time>
  <course>73.48</course>
  <speed>0.14</speed>
  <fix>3d</fix>
</trkpt>
<trkpt lat="40.0728408" lon="-105.230843">
  <ele>1595.47</ele>
  <time>2026-08-28T19:11:14Z</time>
  <course>64.76</course>
  <speed>0.12529964086141668</speed>
  <fix>3d</fix>
</trkpt>
<trkpt lat="40.0728407" lon="-105.2308433">
  <ele>1595.36</ele>
  <time>2026-08-28T19:11:14Z</time>
  <course>73.89</course>
  <speed>0.14</speed>
  <fix>3d</fix>
</trkpt>
<trkpt lat="40.0728409" lon="-105.2308428">
  <ele>1595.47</ele>
  <time>2026-08-28T19:11:14Z</time>
  <course>64.87</course>
  <speed>0.11704699910719625</speed>
  <fix>3d</fix>
</trkpt>
<trkpt lat="40.0728408" lon="-105.2308429">
  <ele>1595.36</ele>
  <time>2026-08-28T19:11:14Z</time>
  <course>73.12</course>
  <speed>0.12</speed>
  <fix>3d</fix>
</trkpt>
<trkpt lat="40.072841" lon="-105.2308426">
  <ele>1595.47</ele>
  <time>2026-08-28T19:11:14Z</time>
  <course>64.74</course>
  <speed>0.06403124237432849</speed>
  <fix>3d</fix>
</trkpt>
<trkpt lat="40.0728408" lon="-105.2308426">
  <ele>1595.36</ele>
  <time>2026-08-28T19:11:14Z</time>
  <course>70.69</course>
  <speed>0.09</speed>
  <fix>3d</fix>
</trkpt>
<trkpt lat="40.072841" lon="-105.2308424">
  <ele>1595.46</ele>
  <time>2026-08-28T19:11:14Z</time>
  <course>64.88</course>
  <speed>0.06082762530298219</speed>
  <fix>3d</fix>
</trkpt>
<trkpt lat="40.0728409" lon="-105.2308425">
  <ele>1595.36</ele>
  <time>2026-08-28T19:11:14Z</time>
  <course>77.67</course>
  <speed>0.06</speed>
  <fix>3d</fix>
</trkpt>
<trkpt lat="40.072841" lon="-105.2308424">
  <ele>1595.46</ele>
  <time>2026-08-28T19:11:14Z</time>
  <course>64.68</course>
  <speed>0.03605551275463989</speed>
  <fix>3d</fix>
</trkpt>
<trkpt lat="40.0728409" lon="-105.2308424">
  <ele>1595.36</ele>
  <time>2026-08-28T19:11:14Z</time>
  <course>82.93</course>
  <speed>0.04</speed>
  <fix>3d</fix>
</trkpt>
<trkpt lat="40.072841" lon="-105.2308422">
  <ele>1595.46</ele>
  <time>2026-08-28T19:11:14Z</time>
  <course>64.85</course>
  <speed>0.04</speed>
  <fix>3d</fix>
</trkpt>
<trkpt lat="40.0728409" lon="-105.2308423">
  <ele>1595.37</ele>
  <time>2026-08-28T19:11:14Z</time>
  <course>99.32</course>
  <speed>0.03</speed>
  <fix>3d</fix>
</trkpt>
<trkpt lat="40.072841" lon="-105.2308422">
  <ele>1595.46</ele>
  <time>2026-08-28T19:11:14Z</time>
  <course>64.65</course>
  <speed>0.022360679774997897</speed>
  <fix>3d</fix>
</trkpt>
<trkpt lat="40.0728409" lon="-105.2308422">
  <ele>1595.37</ele>
  <time>2026-08-28T19:11:14Z</time>
  <course>108.13</course>
  <speed>0.03</speed>
  <fix>3d</fix>
</trkpt>
<trkpt lat="40.072841" lon="-105.2308421">
  <ele>1595.46</ele>
  <time>2026-08-28T19:11:14Z</time>
  <course>64.8</course>
  <speed>0.02</speed>
  <fix>3d</fix>
</trkpt>
<trkpt lat="40.0728409" lon="-105.2308421">
  <ele>1595.37</ele>
  <time>2026-08-28T19:11:14Z</time>
  <course>125.29</course>
  <speed>0.02</speed>
  <fix>3d</fix>
</trkpt>
<trkpt lat="40.072841" lon="-105.2308421">
  <ele>1595.46</ele>
  <time>2026-08-28T19:11:14Z</time>
  <course>64.67</course>
  <speed>0.03</speed>
  <fix>3d</fix>
</trkpt>
<trkpt lat="40.0728409" lon="-105.230842">
  <ele>1595.37</ele>
  <time>2026-08-28T19:11:14Z</time>
  <course>129.05</course>
  <speed>0.02</speed>
  <fix>3d</fix>
</trkpt>
<trkpt lat="40.072841" lon="-105.230842">
  <ele>1595.46</ele>
  <time>2026-08-28T19:11:14Z</time>
  <course>64.76</course>
  <speed>0.0</speed>
  <fix>3d</fix>
</trkpt>
<trkpt lat="40.0728409" lon="-105.230842">
  <ele>1595.37</ele>
  <time>2026-08-28T19:11:14Z</time>
  <course>145.57</course>
  <speed>0.02</speed>
  <fix>3d</fix>
</trkpt>
<trkpt lat="40.072841" lon="-105.230842">
  <ele>1595.46</ele>
  <time>2026-08-28T19:11:14Z</time>
  <course>64.75</course>
  <speed>0.03</speed>
  <fix>3d</fix>
</trkpt>
<trkpt lat="40.0728408" lon="-105.230842">
  <ele>1595.37</ele>
  <time>2026-08-28T19:11:14Z</time>
  <course>144.23</course>
  <speed>0.02</speed>
  <fix>3d</fix>
</trkpt>
<trkpt lat="40.0728409" lon="-105.230842">
  <ele>1595.45</ele>
  <time>2026-08-28T19:11:14Z</time>
  <course>64.74</course>
  <speed>0.0</speed>
  <fix>3d</fix>
</trkpt>
<trkpt lat="40.0728408" lon="-105.230842">
  <ele>1595.38</ele>
  <time>2026-08-28T19:11:14Z</time>
  <course>159.42</course>
  <speed>0.01</speed>
  <fix>3d</fix>
</trkpt>
<trkpt lat="40.0728409" lon="-105.230842">
  <ele>1595.45</ele>
  <time>2026-08-28T19:11:14Z</time>
  <course>64.81</course>
  <speed>0.03</speed>
  <fix>3d</fix>
</trkpt>
<trkpt lat="40.0728408" lon="-105.230842">
  <ele>1595.38</ele>
  <time>2026-08-28T19:11:14Z</time>
  <course>155.31</course>
  <speed>0.02</speed>
  <fix>3d</fix>
</trkpt>
<trkpt lat="40.0728409" lon="-105.230842">
  <ele>1595.45</ele>
  <time>2026-08-28T19:11:14Z</time>
  <course>64.7</course>
  <speed>0.01</speed>
  <fix>3d</fix>
</trkpt>
<trkpt lat="40.0728408" lon="-105.230842">
  <ele>1595.38</ele>
  <time>2026-08-28T19:11:14Z</time>
  <course>166.41</course>
  <speed>0.01</speed>
  <fix>3d</fix>
</trkpt>
<trkpt lat="40.0728409" lon="-105.2308419">
  <ele>1595.45</ele>
  <time>2026-08-28T19:11:14Z</time>
  <course>64.84</course>
  <speed>0.02</speed>
  <fix>3d</fix>
</trkpt>
<trkpt lat="40.0728408" lon="-105.230842">
  <ele>1595.39</ele>
  <time>2026-08-28T19:11:14Z</time>
  <course>164.73</course>
  <speed>0.02</speed>
  <fix>3d</fix>
</trkpt>
<trkpt lat="40.0728408" lon="-105.2308419">
  <ele>1595.45</ele>
  <time>2026-08-28T19:11:14Z</time>
  <course>64.67</course>
  <speed>0.01</speed>
  <fix>3d</fix>
</trkpt>
<trkpt lat="40.0728407" lon="-105.230842">
  <ele>1595.39</ele>
  <time>2026-08-28T19:11:14Z</time>
  <course>168.99</course>
  <speed>0.02</speed>
  <fix>3d</fix>
</trkpt>
<trkpt lat="40.0728408" lon="-105.2308419">
  <ele>1595.46</ele>
  <time>2026-08-28T19:11:14Z</time>
  <course>64.83</course>
  <speed>0.01</speed>
  <fix>3d</fix>
</trkpt>
<trkpt lat="40.0728407" lon="-105.230842">
  <ele>1595.39</ele>
  <time>2026-08-28T19:11:14Z</time>
  <course>170.97</course>
  <speed>0.02</speed>
  <fix>3d</fix>
</trkpt>
<trkpt lat="40.0728408" lon="-105.230842">
  <ele>1595.46</ele>
  <time>2026-08-28T19:11:14Z</time>
  <course>64.65</course>
  <speed>0.01</speed>
  <fix>3d</fix>
</trkpt>
<trkpt lat="40.0728406" lon="-105.230842">
  <ele>1595.4</ele>
  <time>2026-08-28T19:11:14Z</time>
  <course>167.36</course>
  <speed>0.02</speed>
  <fix>3d</fix>
</trkpt>
<trkpt lat="40.0728407" lon="-105.2308419">
  <ele>1595.47</ele>
  <time>2026-08-28T19:11:14Z</time>
  <course>64.82</course>
  <speed>0.0</speed>
  <fix>3d</fix>
</trkpt>
<trkpt lat="40.0728406" lon="-105.2308419">
  <ele>1595.4</ele>
  <time>2026-08-28T19:11:14Z</time>
  <course>175.17</course>
  <speed>0.02</speed>
  <fix>3d</fix>
</trkpt>
<trkpt lat="40.0728407" lon="-105.2308419">
  <ele>1595.48</ele>
  <time>2026-08-28T19:11:14Z</time>
  <course>64.72</course>
  <speed>0.01</speed>
  <fix>3d</fix>
</trkpt>
<trkpt lat="40.0728406" lon="-105.2308419">
  <ele>1595.4</ele>
  <time>2026-08-28T19:11:14Z</time>
  <course>165.13</course>
  <speed>0.02</speed>
  <fix>3d</fix>
</trkpt>
<trkpt lat="40.0728407" lon="-105.2308419">
  <ele>1595.48</ele>
  <time>2026-08-28T19:11:14Z</time>
  <course>64.83</course>
  <speed>0.0</speed>
  <fix>3d</fix>
</trkpt>
<trkpt lat="40.0728405" lon="-105.2308419">
  <ele>1595.41</ele>
  <time>2026-08-28T19:11:14Z</time>
  <course>175.57</course>
  <speed>0.02</speed>
  <fix>3d</fix>
</trkpt>
<trkpt lat="40.0728407" lon="-105.2308419">
  <ele>1595.48</ele>
  <time>2026-08-28T19:11:14Z</time>
  <course>64.82</course>
  <speed>0.02</speed>
  <fix>3d</fix>
</trkpt>
<trkpt lat="40.0728405" lon="-105.2308419">
  <ele>1595.41</ele>
  <time>2026-08-28T19:11:14Z</time>
  <course>162.87</course>
  <speed>0.02</speed>
  <fix>3d</fix>
</trkpt>
<trkpt lat="40.0728406" lon="-105.2308419">
  <ele>1595.47</ele>
  <time>2026-08-28T19:11:14Z</time>
  <course>64.81</course>
  <speed>0.0</speed>
  <fix>3d</fix>
</trkpt>
<trkpt lat="40.0728404" lon="-105.2308419">
  <ele>1595.41</ele>
  <time>2026-08-28T19:11:14Z</time>
  <course>173.32</course>
  <speed>0.02</speed>
  <fix>3d</fix>
</trkpt>
<trkpt lat="40.0728406" lon="-105.2308419">
  <ele>1595.47</ele>
  <time>2026-08-28T19:11:14Z</time>
  <course>64.87</course>
  <speed>0.02</speed>
  <fix>3d</fix>
</trkpt>
<trkpt lat="40.0728403" lon="-105.2308419">
  <ele>1595.41</ele>
  <time>2026-08-28T19:11:14Z</time>
  <course>162.2</course>
  <speed>0.02</speed>
  <fix>3d</fix>
</trkpt>
<trkpt lat="40.0728405" lon="-105.2308419">
  <ele>1595.47</ele>
  <time>2026-08-28T19:11:14Z</time>
  <course>64.76</course>
  <speed>0.0</speed>
  <fix>3d</fix>
</trkpt>
<trkpt lat="40.0728403" lon="-105.2308419">
  <ele>1595.41</ele>
  <time>2026-08-28T19:11:14Z</time>
  <course>168.88</course>
  <speed>0.02</speed>
  <fix>3d</fix>
</trkpt>
<trkpt lat="40.0728405" lon="-105.2308418">
  <ele>1595.47</ele>
  <time>2026-08-28T19:11:14Z</time>
  <course>64.77</course>
  <speed>0.06082762530298219</speed>
  <fix>3d</fix>
</trkpt>
<trkpt lat="40.0728402" lon="-105.2308419">
  <ele>1595.41</ele>
  <time>2026-08-28T19:11:14Z</time>
  <course>139.78</course>
  <speed>0.02</speed>
  <fix>3d</fix>
</trkpt>
<trkpt lat="40.0728405" lon="-105.2308416">
  <ele>1595.47</ele>
  <time>2026-08-28T19:11:14Z</time>
  <course>64.69</course>
  <speed>0.11401754250991379</speed>
  <fix>3d</fix>
</trkpt>
<trkpt lat="40.0728402" lon="-105.2308418">
  <ele>1595.41</ele>
  <time>2026-08-28T19:11:14Z</time>
  <course>92.83</course>
  <speed>0.07</speed>
  <fix>3d</fix>
</trkpt>
<trkpt lat="40.0728405" lon="-105.2308413">
  <ele>1595.47</ele>
  <time>2026-08-28T19:11:14Z</time>
  <course>64.69</course>
  <speed>0.14866068747318506</speed>
  <fix>3d</fix>
</trkpt>
<trkpt lat="40.0728402" lon="-105.2308415">
  <ele>1595.41</ele>
  <time>2026-08-28T19:11:14Z</time>
  <course>82.35</course>
  <speed>0.12</speed>
  <fix>3d</fix>
</trkpt>
<trkpt lat="40.0728405" lon="-105.230841">
  <ele>1595.47</ele>
  <time>2026-08-28T19:11:14Z</time>
  <course>64.7</course>
  <speed>0.15231546211727817</speed>
  <fix>3d</fix>
</trkpt>
<trkpt lat="40.0728403" lon="-105.2308412">
  <ele>1595.41</ele>
  <time>2026-08-28T19:11:14Z</time>
  <course>76.83</course>
  <speed>0.14</speed>
  <fix>3d</fix>
</trkpt>
<trkpt lat="40.0728405" lon="-105.2308407">
  <ele>1595.47</ele>
  <time>2026-08-28T19:11:14Z</time>
  <course>64.72</course>
  <speed>0.15231546211727817</speed>
  <fix>3d</fix>
</trkpt>
<trkpt lat="40.0728403" lon="-105.2308409">
  <ele>1595.41</ele>
  <time>2026-08-28T19:11:14Z</time>
  <course>73.54</course>
  <speed>0.14</speed>
  <fix>3d</fix>
</trkpt>
<trkpt lat="40.0728406" lon="-105.2308404">
  <ele>1595.47</ele>
  <time>2026-08-28T19:11:14Z</time>
  <course>64.72</course>
  <speed>0.15231546211727817</speed>
  <fix>3d</fix>
</trkpt>
<trkpt lat="40.0728404" lon="-105.2308405">
  <ele>1595.41</ele>
  <time>2026-08-28T19:11:14Z</time>
  <course>72.08</course>
  <speed>0.14</speed>
  <fix>3d</fix>
</trkpt>
<trkpt lat="40.0728407" lon="-105.23084">
  <ele>1595.47</ele>
  <time>2026-08-28T19:11:14Z</time>
  <course>64.72</course>
  <speed>0.15231546211727817</speed>
  <fix>3d</fix>
</trkpt>
<trkpt lat="40.0728405" lon="-105.2308402">
  <ele>1595.41</ele>
  <time>2026-08-28T19:11:14Z</time>
  <course>71.69</course>
  <speed>0.14</speed>
  <fix>3d</fix>
</trkpt>
<trkpt lat="40.0728408" lon="-105.2308397">
  <ele>1595.47</ele>
  <time>2026-08-28T19:11:14Z</time>
  <course>64.72</course>
  <speed>0.14317821063276354</speed>
  <fix>3d</fix>
</trkpt>
<trkpt lat="40.0728405" lon="-105.2308399">
  <ele>1595.41</ele>
  <time>2026-08-28T19:11:14Z</time>
  <course>71.69</course>
  <speed>0.14</speed>
  <fix>3d</fix>
</trkpt>
<trkpt lat="40.0728408" lon="-105.2308394">
  <ele>1595.46</ele>
  <time>2026-08-28T19:11:15Z</time>
  <course>64.71</course>
  <speed>0.14317821063276354</speed>
  <fix>3d</fix>
</trkpt>
<trkpt lat="40.0728406" lon="-105.2308396">
  <ele>1595.41</ele>
  <time>2026-08-28T19:11:15Z</time>
  <course>71.81</course>
  <speed>0.14</speed>
  <fix>3d</fix>
</trkpt>
<trkpt lat="40.0728409" lon="-105.2308391">
  <ele>1595.46</ele>
  <time>2026-08-28T19:11:15Z</time>
  <course>64.7</course>
  <speed>0.14317821063276354</speed>
  <fix>3d</fix>
</trkpt>
<trkpt lat="40.0728407" lon="-105.2308392">
  <ele>1595.41</ele>
  <time>2026-08-28T19:11:15Z</time>
  <course>72.01</course>
  <speed>0.14</speed>
  <fix>3d</fix>
</trkpt>
<trkpt lat="40.072841" lon="-105.2308388">
  <ele>1595.46</ele>
  <time>2026-08-28T19:11:15Z</time>
  <course>64.68</course>
  <speed>0.14317821063276354</speed>
  <fix>3d</fix>
</trkpt>
<trkpt lat="40.0728408" lon="-105.2308389">
  <ele>1595.41</ele>
  <time>2026-08-28T19:11:15Z</time>
  <course>72.27</course>
  <speed>0.13</speed>
  <fix>3d</fix>
</trkpt>
<trkpt lat="40.072841" lon="-105.2308385">
  <ele>1595.46</ele>
  <time>2026-08-28T19:11:15Z</time>
  <course>64.66</course>
  <speed>0.1392838827718412</speed>
  <fix>3d</fix>
</trkpt>
<trkpt lat="40.0728408" lon="-105.2308386">
  <ele>1595.41</ele>
  <time>2026-08-28T19:11:15Z</time>
  <course>72.62</course>
  <speed>0.13</speed>
  <fix>3d</fix>
</trkpt>
<trkpt lat="40.0728411" lon="-105.2308382">
  <ele>1595.46</ele>
  <time>2026-08-28T19:11:15Z</time>
  <course>64.68</course>
  <speed>0.1392838827718412</speed>
  <fix>3d</fix>
</trkpt>
<trkpt lat="40.0728409" lon="-105.2308383">
  <ele>1595.42</ele>
  <time>2026-08-28T19:11:15Z</time>
  <course>72.9</course>
  <speed>0.13</speed>
  <fix>3d</fix>
</trkpt>
<trkpt lat="40.0728412" lon="-105.2308378">
  <ele>1595.47</ele>
  <time>2026-08-28T19:11:15Z</time>
  <course>64.69</course>
  <speed>0.1392838827718412</speed>
  <fix>3d</fix>
</trkpt>
<trkpt lat="40.072841" lon="-105.230838">
  <ele>1595.42</ele>
  <time>2026-08-28T19:11:15Z</time>
  <course>72.92</course>
  <speed>0.13</speed>
  <fix>3d</fix>
</trkpt>
<trkpt lat="40.0728412" lon="-105.2308375">
  <ele>1595.48</ele>
  <time>2026-08-28T19:11:15Z</time>
  <course>64.7</course>
  <speed>0.1392838827718412</speed>
  <fix>3d</fix>
</trkpt>
<trkpt lat="40.0728411" lon="-105.2308377">
  <ele>1595.42</ele>
  <time>2026-08-28T19:11:15Z</time>
  <course>72.95</course>
  <speed>0.13</speed>
  <fix>3d</fix>
</trkpt>
<trkpt lat="40.0728413" lon="-105.2308373">
  <ele>1595.48</ele>
  <time>2026-08-28T19:11:15Z</time>
  <course>64.7</course>
  <speed>0.13</speed>
  <fix>3d</fix>
</trkpt>
<trkpt lat="40.0728411" lon="-105.2308374">
  <ele>1595.42</ele>
  <time>2026-08-28T19:11:15Z</time>
  <course>73.07</course>
  <speed>0.13</speed>
  <fix>3d</fix>
</trkpt>
<trkpt lat="40.0728414" lon="-105.230837">
  <ele>1595.48</ele>
  <time>2026-08-28T19:11:15Z</time>
  <course>64.69</course>
  <speed>0.15231546211727817</speed>
  <fix>3d</fix>
</trkpt>
<trkpt lat="40.0728412" lon="-105.2308371">
  <ele>1595.42</ele>
  <time>2026-08-28T19:11:15Z</time>
  <course>72.87</course>
  <speed>0.13</speed>
  <fix>3d</fix>
</trkpt>
<trkpt lat="40.0728414" lon="-105.2308366">
  <ele>1595.48</ele>
  <time>2026-08-28T19:11:15Z</time>
  <course>64.87</course>
  <speed>0.1676305461424021</speed>
  <fix>3d</fix>
</trkpt>
<trkpt lat="40.0728413" lon="-105.2308368">
  <ele>1595.42</ele>
  <time>2026-08-28T19:11:15Z</time>
  <course>74.27</course>
  <speed>0.15</speed>
  <fix>3d</fix>
</trkpt>
<trkpt lat="40.0728415" lon="-105.2308363">
  <ele>1595.48</ele>
  <time>2026-08-28T19:11:15Z</time>
  <course>64.78</course>
  <speed>0.12206555615733702</speed>
  <fix>3d</fix>
</trkpt>
<trkpt lat="40.0728414" lon="-105.2308365">
  <ele>1595.42</ele>
  <time>2026-08-28T19:11:15Z</time>
  <course>72.05</course>
  <speed>0.14</speed>
  <fix>3d</fix>
</trkpt>
<trkpt lat="40.0728416" lon="-105.230836">
  <ele>1595.49</ele>
  <time>2026-08-28T19:11:15Z</time>
  <course>64.99</course>
  <speed>0.09486832980505139</speed>
  <fix>3d</fix>
</trkpt>
<trkpt lat="40.0728414" lon="-105.2308362">
  <ele>1595.42</ele>
  <time>2026-08-28T19:11:15Z</time>
  <course>72.46</course>
  <speed>0.11</speed>
  <fix>3d</fix>
</trkpt>
<trkpt lat="40.0728416" lon="-105.2308359">
  <ele>1595.49</ele>
  <time>2026-08-28T19:11:15Z</time>
  <course>64.75</course>
  <speed>0.07211102550927978</speed>
  <fix>3d</fix>
</trkpt>
<trkpt lat="40.0728414" lon="-105.2308359">
  <ele>1595.42</ele>
  <time>2026-08-28T19:11:15Z</time>
  <course>72.11</course>
  <speed>0.08</speed>
  <fix>3d</fix>
</trkpt>
<trkpt lat="40.0728416" lon="-105.2308357">
  <ele>1595.49</ele>
  <time>2026-08-28T19:11:15Z</time>
  <course>64.95</course>
  <speed>0.05099019513592785</speed>
  <fix>3d</fix>
</trkpt>
<trkpt lat="40.0728415" lon="-105.2308358">
  <ele>1595.42</ele>
  <time>2026-08-28T19:11:15Z</time>
  <course>79.86</course>
  <speed>0.05</speed>
  <fix>3d</fix>
</trkpt>
<trkpt lat="40.0728416" lon="-105.2308357">
  <ele>1595.49</ele>
  <time>2026-08-28T19:11:15Z</time>
  <course>64.75</course>
  <speed>0.044721359549995794</speed>
  <fix>3d</fix>
</trkpt>
<trkpt lat="40.0728415" lon="-105.2308357">
  <ele>1595.41</ele>
  <time>2026-08-28T19:11:15Z</time>
  <course>88.95</course>
  <speed>0.04</speed>
  <fix>3d</fix>
</trkpt>
<trkpt lat="40.0728416" lon="-105.2308355">
  <ele>1595.48</ele>
  <time>2026-08-28T19:11:15Z</time>
  <course>64.9</course>
  <speed>0.02</speed>
  <fix>3d</fix>
</trkpt>
<trkpt lat="40.0728415" lon="-105.2308356">
  <ele>1595.41</ele>
  <time>2026-08-28T19:11:15Z</time>
  <course>102.5</course>
  <speed>0.03</speed>
  <fix>3d</fix>
</trkpt>
<trkpt lat="40.0728416" lon="-105.2308355">
  <ele>1595.47</ele>
  <time>2026-08-28T19:11:15Z</time>
  <course>64.82</course>
  <speed>0.04</speed>
  <fix>3d</fix>
</trkpt>
<trkpt lat="40.0728414" lon="-105.2308355">
  <ele>1595.41</ele>
  <time>2026-08-28T19:11:15Z</time>
  <course>111.83</course>
  <speed>0.03</speed>
  <fix>3d</fix>
</trkpt>
<trkpt lat="40.0728416" lon="-105.2308354">
  <ele>1595.47</ele>
  <time>2026-08-28T19:11:15Z</time>
  <course>64.83</course>
  <speed>0.0</speed>
  <fix>3d</fix>
</trkpt>
<trkpt lat="40.0728414" lon="-105.2308354">
  <ele>1595.4</ele>
  <time>2026-08-28T19:11:15Z</time>
  <course>124.14</course>
  <speed>0.02</speed>
  <fix>3d</fix>
</trkpt>
<trkpt lat="40.0728416" lon="-105.2308354">
  <ele>1595.46</ele>
  <time>2026-08-28T19:11:15Z</time>
  <course>64.88</course>
  <speed>0.04</speed>
  <fix>3d</fix>
</trkpt>
<trkpt lat="40.0728414" lon="-105.2308353">
  <ele>1595.4</ele>
  <time>2026-08-28T19:11:15Z</time>
  <course>129.11</course>
  <speed>0.02</speed>
  <fix>3d</fix>
</trkpt>
<trkpt lat="40.0728415" lon="-105.2308353">
  <ele>1595.46</ele>
  <time>2026-08-28T19:11:15Z</time>
  <course>64.76</course>
  <speed>0.01</speed>
  <fix>3d</fix>
</trkpt>
<trkpt lat="40.0728414" lon="-105.2308353">
  <ele>1595.4</ele>
  <time>2026-08-28T19:11:15Z</time>
  <course>139.15</course>
  <speed>0.02</speed>
  <fix>3d</fix>
</trkpt>
<trkpt lat="40.0728415" lon="-105.2308353">
  <ele>1595.47</ele>
  <time>2026-08-28T19:11:15Z</time>
  <course>64.92</course>
  <speed>0.03</speed>
  <fix>3d</fix>
</trkpt>
<trkpt lat="40.0728414" lon="-105.2308353">
  <ele>1595.4</ele>
  <time>2026-08-28T19:11:15Z</time>
  <course>143.45</course>
  <speed>0.02</speed>
  <fix>3d</fix>
</trkpt>
<trkpt lat="40.0728415" lon="-105.2308353">
  <ele>1595.48</ele>
  <time>2026-08-28T19:11:15Z</time>
  <course>64.72</course>
  <speed>0.01</speed>
  <fix>3d</fix>
</trkpt>
<trkpt lat="40.0728414" lon="-105.2308353">
  <ele>1595.4</ele>
  <time>2026-08-28T19:11:15Z</time>
  <course>149.77</course>
  <speed>0.01</speed>
  <fix>3d</fix>
</trkpt>
<trkpt lat="40.0728415" lon="-105.2308352">
  <ele>1595.48</ele>
  <time>2026-08-28T19:11:15Z</time>
  <course>64.94</course>
  <speed>0.022360679774997897</speed>
  <fix>3d</fix>
</trkpt>
<trkpt lat="40.0728414" lon="-105.2308353">
  <ele>1595.4</ele>
  <time>2026-08-28T19:11:15Z</time>
  <course>155.5</course>
  <speed>0.02</speed>
  <fix>3d</fix>
</trkpt>
<trkpt lat="40.0728414" lon="-105.2308352">
  <ele>1595.48</ele>
  <time>2026-08-28T19:11:15Z</time>
  <course>64.73</course>
  <speed>0.01</speed>
  <fix>3d</fix>
</trkpt>
<trkpt lat="40.0728414" lon="-105.2308353">
  <ele>1595.4</ele>
  <time>2026-08-28T19:11:15Z</time>
  <course>153.43</course>
  <speed>0.02</speed>
  <fix>3d</fix>
</trkpt>
<trkpt lat="40.0728414" lon="-105.2308352">
  <ele>1595.48</ele>
  <time>2026-08-28T19:11:15Z</time>
  <course>64.94</course>
  <speed>0.01</speed>
  <fix>3d</fix>
</trkpt>
<trkpt lat="40.0728414" lon="-105.2308352">
  <ele>1595.4</ele>
  <time>2026-08-28T19:11:15Z</time>
  <course>162.97</course>
  <speed>0.02</speed>
  <fix>3d</fix>
</trkpt>
<trkpt lat="40.0728414" lon="-105.2308352">
  <ele>1595.48</ele>
  <time>2026-08-28T19:11:15Z</time>
  <course>64.75</course>
  <speed>0.01414213562373095</speed>
  <fix>3d</fix>
</trkpt>
<trkpt lat="40.0728413" lon="-105.2308352">
  <ele>1595.4</ele>
  <time>2026-08-28T19:11:15Z</time>
  <course>154.64</course>
  <speed>0.02</speed>
  <fix>3d</fix>
</trkpt>
<trkpt lat="40.0728414" lon="-105.2308352">
  <ele>1595.48</ele>
  <time>2026-08-28T19:11:15Z</time>
  <course>64.9</course>
  <speed>0.0</speed>
  <fix>3d</fix>
</trkpt>
<trkpt lat="40.0728413" lon="-105.2308352">
  <ele>1595.4</ele>
  <time>2026-08-28T19:11:15Z</time>
  <course>168.48</course>
  <speed>0.02</speed>
  <fix>3d</fix>
</trkpt>
<trkpt lat="40.0728413" lon="-105.2308352">
  <ele>1595.47</ele>
  <time>2026-08-28T19:11:15Z</time>
  <course>64.8</course>
  <speed>0.02</speed>
  <fix>3d</fix>
</trkpt>
<trkpt lat="40.0728412" lon="-105.2308352">
  <ele>1595.39</ele>
  <time>2026-08-28T19:11:15Z</time>
  <course>156.4</course>
  <speed>0.02</speed>
  <fix>3d</fix>
</trkpt>
<trkpt lat="40.0728413" lon="-105.2308352">
  <ele>1595.47</ele>
  <time>2026-08-28T19:11:15Z</time>
  <course>64.84</course>
  <speed>0.0</speed>
  <fix>3d</fix>
</trkpt>
<trkpt lat="40.0728412" lon="-105.2308352">
  <ele>1595.39</ele>
  <time>2026-08-28T19:11:15Z</time>
  <course>170.94</course>
  <speed>0.02</speed>
  <fix>3d</fix>
</trkpt>
<trkpt lat="40.0728413" lon="-105.2308352">
  <ele>1595.46</ele>
  <time>2026-08-28T19:11:15Z</time>
  <course>64.88</course>
  <speed>0.03</speed>
  <fix>3d</fix>
</trkpt>
<trkpt lat="40.0728412" lon="-105.2308352">
  <ele>1595.39</ele>
  <time>2026-08-28T19:11:15Z</time>
  <course>159.36</course>
  <speed>0.02</speed>
  <fix>3d</fix>
</trkpt>
<trkpt lat="40.0728413" lon="-105.2308351">
  <ele>1595.45</ele>
  <time>2026-08-28T19:11:15Z</time>
  <course>64.78</course>
  <speed>0.01414213562373095</speed>
  <fix>3d</fix>
</trkpt>
<trkpt lat="40.0728411" lon="-105.2308351">
  <ele>1595.39</ele>
  <time>2026-08-28T19:11:15Z</time>
  <course>170.27</course>
  <speed>0.02</speed>
  <fix>3d</fix>
</trkpt>
<trkpt lat="40.0728412" lon="-105.2308351">
  <ele>1595.45</ele>
  <time>2026-08-28T19:11:15Z</time>
  <course>64.91</course>
  <speed>0.02</speed>
  <fix>3d</fix>
</trkpt>
<trkpt lat="40.0728411" lon="-105.230835">
  <ele>1595.39</ele>
  <time>2026-08-28T19:11:15Z</time>
  <course>162.3</course>
  <speed>0.02</speed>
  <fix>3d</fix>
</trkpt>
<trkpt lat="40.0728412" lon="-105.2308351">
  <ele>1595.45</ele>
  <time>2026-08-28T19:11:15Z</time>
  <course>64.7</course>
  <speed>0.01</speed>
  <fix>3d</fix>
</trkpt>
<trkpt lat="40.072841" lon="-105.230835">
  <ele>1595.39</ele>
  <time>2026-08-28T19:11:15Z</time>
  <course>167.42</course>
  <speed>0.02</speed>
  <fix>3d</fix>
</trkpt>
<trkpt lat="40.0728412" lon="-105.2308351">
  <ele>1595.45</ele>
  <time>2026-08-28T19:11:15Z</time>
  <course>64.89</course>
  <speed>0.022360679774997897</speed>
  <fix>3d</fix>
</trkpt>
<trkpt lat="40.0728409" lon="-105.230835">
  <ele>1595.39</ele>
  <time>2026-08-28T19:11:15Z</time>
  <course>166.52</course>
  <speed>0.02</speed>
  <fix>3d</fix>
</trkpt>
<trkpt lat="40.0728411" lon="-105.2308351">
  <ele>1595.46</ele>
  <time>2026-08-28T19:11:15Z</time>
  <course>64.69</course>
  <speed>0.01</speed>
  <fix>3d</fix>
</trkpt>
<trkpt lat="40.0728409" lon="-105.230835">
  <ele>1595.39</ele>
  <time>2026-08-28T19:11:15Z</time>
  <course>166.35</course>
  <speed>0.02</speed>
  <fix>3d</fix>
</trkpt>
<trkpt lat="40.0728411" lon="-105.230835">
  <ele>1595.46</ele>
  <time>2026-08-28T19:11:15Z</time>
  <course>64.71</course>
  <speed>0.0824621125123532</speed>
  <fix>3d</fix>
</trkpt>
<trkpt lat="40.0728408" lon="-105.230835">
  <ele>1595.4</ele>
  <time>2026-08-28T19:11:15Z</time>
  <course>118.21</course>
  <speed>0.02</speed>
  <fix>3d</fix>
</trkpt>
<trkpt lat="40.0728411" lon="-105.2308347">
  <ele>1595.45</ele>
  <time>2026-08-28T19:11:15Z</time>
  <course>65.03</course>
  <speed>0.1264911064067352</speed>
  <fix>3d</fix>
</trkpt>
<trkpt lat="40.0728408" lon="-105.2308349">
  <ele>1595.4</ele>
  <time>2026-08-28T19:11:15Z</time>
  <course>88.68</course>
  <speed>0.08</speed>
  <fix>3d</fix>
</trkpt>
<trkpt lat="40.0728411" lon="-105.2308344">
  <ele>1595.4</ele>
  <time>2026-08-28T19:11:15Z</time>
  <course>65.99</course>
  <speed>0.14317821063276354</speed>
  <fix>3d</fix>
</trkpt>
<trkpt lat="40.0728408" lon="-105.2308347">
  <ele>1595.38</ele>
  <time>2026-08-28T19:11:15Z</time>
  <course>78.3</course>
  <speed>0.12</speed>
  <fix>3d</fix>
</trkpt>
<trkpt lat="40.0728411" lon="-105.2308341">
  <ele>1595.26</ele>
  <time>2026-08-28T19:11:15Z</time>
  <course>67.36</course>
  <speed>0.15264337522473748</speed>
  <fix>3d</fix>
</trkpt>
<trkpt lat="40.0728408" lon="-105.2308343">
  <ele>1595.3</ele>
  <time>2026-08-28T19:11:15Z</time>
  <course>72.81</course>
  <speed>0.13</speed>
  <fix>3d</fix>
</trkpt>
<trkpt lat="40.0728413" lon="-105.2308339">
  <ele>1594.82</ele>
  <time>2026-08-28T19:11:15Z</time>
  <course>68.74</course>
  <speed>0.17204650534085253</speed>
  <fix>3d</fix>
</trkpt>
<trkpt lat="40.0728409" lon="-105.2308341">
  <ele>1595.08</ele>
  <time>2026-08-28T19:11:15Z</time>
  <course>55.99</course>
  <speed>0.14</speed>
  <fix>3d</fix>
</trkpt>
<trkpt lat="40.0728415" lon="-105.2308337">
  <ele>1594.11</ele>
  <time>2026-08-28T19:11:15Z</time>
  <course>70.14</course>
  <speed>0.20124611797498107</speed>
  <fix>3d</fix>
</trkpt>
<trkpt lat="40.0728412" lon="-105.2308338">
  <ele>1594.58</ele>
  <time>2026-08-28T19:11:15Z</time>
  <course>34.97</course>
  <speed>0.16</speed>
  <fix>3d</fix>
</trkpt>
<trkpt lat="40.0728418" lon="-105.2308335">
  <ele>1593.22</ele>
  <time>2026-08-28T19:11:15Z</time>
  <course>72.03</course>
  <speed>0.20124611797498107</speed>
  <fix>3d</fix>
</trkpt>
<trkpt lat="40.0728414" lon="-105.2308335">
  <ele>1593.81</ele>
  <time>2026-08-28T19:11:15Z</time>
  <course>26.96</course>
  <speed>0.18</speed>
  <fix>3d</fix>
</trkpt>
<trkpt lat="40.0728421" lon="-105.2308332">
  <ele>1592.2</ele>
  <time>2026-08-28T19:11:15Z</time>
  <course>74.6</course>
  <speed>0.1835755975068582</speed>
  <fix>3d</fix>
</trkpt>
<trkpt lat="40.0728417" lon="-105.2308334">
  <ele>1592.88</ele>
  <time>2026-08-28T19:11:15Z</time>
  <course>26.59</course>
  <speed>0.18</speed>
  <fix>3d</fix>
</trkpt>
<trkpt lat="40.0728423" lon="-105.230833">
  <ele>1591.11</ele>
  <time>2026-08-28T19:11:15Z</time>
  <course>77.03</course>
  <speed>0.16401219466856726</speed>
  <fix>3d</fix>
</trkpt>
<trkpt lat="40.072842" lon="-105.2308332">
  <ele>1591.84</ele>
  <time>2026-08-28T19:11:15Z</time>
  <course>31.92</course>
  <speed>0.16</speed>
  <fix>3d</fix>
</trkpt>
<trkpt lat="40.0728425" lon="-105.2308328">
  <ele>1589.97</ele>
  <time>2026-08-28T19:11:15Z</time>
  <course>79.0</course>
  <speed>0.14212670403551894</speed>
  <fix>3d</fix>
</trkpt>
<trkpt lat="40.0728423" lon="-105.2308329">
  <ele>1590.73</ele>
  <time>2026-08-28T19:11:15Z</time>
  <course>42.13</course>
  <speed>0.14</speed>
  <fix>3d</fix>
</trkpt>
<trkpt lat="40.0728426" lon="-105.2308325">
  <ele>1588.8</ele>
  <time>2026-08-28T19:11:15Z</time>
  <course>80.72</course>
  <speed>0.1392838827718412</speed>
  <fix>3d</fix>
</trkpt>
<trkpt lat="40.0728424" lon="-105.2308327">
  <ele>1589.59</ele>
  <time>2026-08-28T19:11:15Z</time>
  <course>56.74</course>
  <speed>0.13</speed>
  <fix>3d</fix>
</trkpt>
<trkpt lat="40.0728426" lon="-105.2308322">
  <ele>1587.6</ele>
  <time>2026-08-28T19:11:15Z</time>
  <course>82.29</course>
  <speed>0.130384048104053</speed>
  <fix>3d</fix>
</trkpt>
<trkpt lat="40.0728425" lon="-105.2308324">
  <ele>1588.41</ele>
  <time>2026-08-28T19:11:15Z</time>
  <course>75.38</course>
  <speed>0.12</speed>
  <fix>3d</fix>
</trkpt>
<trkpt lat="40.0728426" lon="-105.2308319">
  <ele>1586.39</ele>
  <time>2026-08-28T19:11:15Z</time>
  <course>83.7</course>
  <speed>0.14317821063276354</speed>
  <fix>3d</fix>
</trkpt>
<trkpt lat="40.0728426" lon="-105.2308322">
  <ele>1587.22</ele>
  <time>2026-08-28T19:11:15Z</time>
  <course>95.37</course>
  <speed>0.13</speed>
  <fix>3d</fix>
</trkpt>
<trkpt lat="40.0728426" lon="-105.2308317">
  <ele>1585.67</ele>
  <time>2026-08-28T19:11:15Z</time>
  <course>84.16</course>
  <speed>0.0412310562561766</speed>
  <fix>3d</fix>
</trkpt>
<trkpt lat="40.0728425" lon="-105.2308319">
  <ele>1586.11</ele>
  <time>2026-08-28T19:11:15Z</time>
  <course>101.44</course>
  <speed>0.08</speed>
  <fix>3d</fix>
</trkpt>
<trkpt lat="40.0728426" lon="-105.2308319">
  <ele>1586.02</ele>
  <time>2026-08-28T19:11:15Z</time>
  <course>83.9</course>
  <speed>0.05</speed>
  <fix>3d</fix>
</trkpt>
<trkpt lat="40.0728425" lon="-105.2308317">
  <ele>1585.69</ele>
  <time>2026-08-28T19:11:15Z</time>
  <course>355.56</course>
  <speed>0.01</speed>
  <fix>3d</fix>
</trkpt>
<trkpt lat="40.0728427" lon="-105.2308319">
  <ele>1586.07</ele>
  <time>2026-08-28T19:11:15Z</time>
  <course>83.73</course>
  <speed>0.01</speed>
  <fix>3d</fix>
</trkpt>
<trkpt lat="40.0728425" lon="-105.2308318">
  <ele>1585.86</ele>
  <time>2026-08-28T19:11:15Z</time>
  <course>293.94</course>
  <speed>0.02</speed>
  <fix>3d</fix>
</trkpt>
<trkpt lat="40.0728427" lon="-105.2308319">
  <ele>1586.02</ele>
  <time>2026-08-28T19:11:15Z</time>
  <course>83.75</course>
  <speed>0.02</speed>
  <fix>3d</fix>
</trkpt>
<trkpt lat="40.0728425" lon="-105.2308318">
  <ele>1585.92</ele>
  <time>2026-08-28T19:11:15Z</time>
  <course>152.57</course>
  <speed>0.0</speed>
  <fix>3d</fix>
</trkpt>
<trkpt lat="40.0728427" lon="-105.2308319">
  <ele>1586.01</ele>
  <time>2026-08-28T19:11:15Z</time>
  <course>83.78</course>
  <speed>0.02</speed>
  <fix>3d</fix>
</trkpt>
<trkpt lat="40.0728425" lon="-105.2308317">
  <ele>1585.89</ele>
  <time>2026-08-28T19:11:15Z</time>
  <course>136.18</course>
  <speed>0.0</speed>
  <fix>3d</fix>
</trkpt>
<trkpt lat="40.0728426" lon="-105.2308318">
  <ele>1586.02</ele>
  <time>2026-08-28T19:11:15Z</time>
  <course>83.79</course>
  <speed>0.02</speed>
  <fix>3d</fix>
</trkpt>
<trkpt lat="40.0728425" lon="-105.2308317">
  <ele>1585.89</ele>
  <time>2026-08-28T19:11:15Z</time>
  <course>210.39</course>
  <speed>0.0</speed>
  <fix>3d</fix>
</trkpt>
<trkpt lat="40.0728426" lon="-105.2308318">
  <ele>1586.02</ele>
  <time>2026-08-28T19:11:15Z</time>
  <course>83.8</course>
  <speed>0.01</speed>
  <fix>3d</fix>
</trkpt>
<trkpt lat="40.0728425" lon="-105.2308317">
  <ele>1585.89</ele>
  <time>2026-08-28T19:11:15Z</time>
  <course>182.51</course>
  <speed>0.0</speed>
  <fix>3d</fix>
</trkpt>
<trkpt lat="40.0728426" lon="-105.2308318">
  <ele>1586.02</ele>
  <time>2026-08-28T19:11:15Z</time>
  <course>83.81</course>
  <speed>0.01</speed>
  <fix>3d</fix>
</trkpt>
<trkpt lat="40.0728425" lon="-105.2308317">
  <ele>1585.89</ele>
  <time>2026-08-28T19:11:15Z</time>
  <course>166.17</course>
  <speed>0.0</speed>
  <fix>3d</fix>
</trkpt>
<trkpt lat="40.0728426" lon="-105.2308318">
  <ele>1586.02</ele>
  <time>2026-08-28T19:11:15Z</time>
  <course>83.82</course>
  <speed>0.01</speed>
  <fix>3d</fix>
</trkpt>
<trkpt lat="40.0728425" lon="-105.2308317">
  <ele>1585.89</ele>
  <time>2026-08-28T19:11:15Z</time>
  <course>172.35</course>
  <speed>0.0</speed>
  <fix>3d</fix>
</trkpt>
<trkpt lat="40.0728426" lon="-105.2308318">
  <ele>1586.02</ele>
  <time>2026-08-28T19:11:15Z</time>
  <course>83.82</course>
  <speed>0.01</speed>
  <fix>3d</fix>
</trkpt>
<trkpt lat="40.0728425" lon="-105.2308317">
  <ele>1585.89</ele>
  <time>2026-08-28T19:11:15Z</time>
  <course>174.77</course>
  <speed>0.0</speed>
  <fix>3d</fix>
</trkpt>
<trkpt lat="40.0728426" lon="-105.2308318">
  <ele>1586.02</ele>
  <time>2026-08-28T19:11:15Z</time>
  <course>83.83</course>
  <speed>0.01</speed>
  <fix>3d</fix>
</trkpt>
<trkpt lat="40.0728425" lon="-105.2308317">
  <ele>1585.89</ele>
  <time>2026-08-28T19:11:15Z</time>
  <course>172.16</course>
  <speed>0.0</speed>
  <fix>3d</fix>
</trkpt>
<trkpt lat="40.0728426" lon="-105.2308318">
  <ele>1586.02</ele>
  <time>2026-08-28T19:11:15Z</time>
  <course>83.83</course>
  <speed>0.01</speed>
  <fix>3d</fix>
</trkpt>
<trkpt lat="40.0728425" lon="-105.2308317">
  <ele>1585.89</ele>
  <time>2026-08-28T19:11:15Z</time>
  <course>170.74</course>
  <speed>0.0</speed>
  <fix>3d</fix>
</trkpt>
<trkpt lat="40.0728426" lon="-105.2308318">
  <ele>1586.02</ele>
  <time>2026-08-28T19:11:15Z</time>
  <course>83.83</course>
  <speed>0.01</speed>
  <fix>3d</fix>
</trkpt>
<trkpt lat="40.0728425" lon="-105.2308317">
  <ele>1585.89</ele>
  <time>2026-08-28T19:11:15Z</time>
  <course>171.76</course>
  <speed>0.0</speed>
  <fix>3d</fix>
</trkpt>
<trkpt lat="40.0728426" lon="-105.2308318">
  <ele>1586.02</ele>
  <time>2026-08-28T19:11:15Z</time>
  <course>83.83</course>
  <speed>0.01</speed>
  <fix>3d</fix>
</trkpt>
<trkpt lat="40.0728425" lon="-105.2308317">
  <ele>1585.89</ele>
  <time>2026-08-28T19:11:15Z</time>
  <course>172.55</course>
  <speed>0.0</speed>
  <fix>3d</fix>
</trkpt>
<trkpt lat="40.0728426" lon="-105.2308317">
  <ele>1586.02</ele>
  <time>2026-08-28T19:11:15Z</time>
  <course>83.84</course>
  <speed>0.01</speed>
  <fix>3d</fix>
</trkpt>
<trkpt lat="40.0728425" lon="-105.2308317">
  <ele>1585.89</ele>
  <time>2026-08-28T19:11:15Z</time>
  <course>164.78</course>
  <speed>0.0</speed>
  <fix>3d</fix>
</trkpt>
<trkpt lat="40.0728426" lon="-105.2308317">
  <ele>1586.02</ele>
  <time>2026-08-28T19:11:15Z</time>
  <course>83.83</course>
  <speed>0.01</speed>
  <fix>3d</fix>
</trkpt>
<trkpt lat="40.0728425" lon="-105.2308317">
  <ele>1585.89</ele>
  <time>2026-08-28T19:11:15Z</time>
  <course>162.18</course>
  <speed>0.0</speed>
  <fix>3d</fix>
</trkpt>
<trkpt lat="40.0728426" lon="-105.2308317">
  <ele>1586.02</ele>
  <time>2026-08-28T19:11:15Z</time>
  <course>83.83</course>
  <speed>0.01414213562373095</speed>
  <fix>3d</fix>
</trkpt>
<trkpt lat="40.0728425" lon="-105.2308317">
  <ele>1585.89</ele>
  <time>2026-08-28T19:11:15Z</time>
  <course>175.38</course>
  <speed>0.0</speed>
  <fix>3d</fix>
</trkpt>
<trkpt lat="40.0728426" lon="-105.2308317">
  <ele>1586.02</ele>
  <time>2026-08-28T19:11:15Z</time>
  <course>83.82</course>
  <speed>0.01414213562373095</speed>
  <fix>3d</fix>
</trkpt>
<trkpt lat="40.0728425" lon="-105.2308317">
  <ele>1585.89</ele>
  <time>2026-08-28T19:11:15Z</time>
  <course>175.2</course>
  <speed>0.0</speed>
  <fix>3d</fix>
</trkpt>
<trkpt lat="40.0728426" lon="-105.2308317">
  <ele>1586.02</ele>
  <time>2026-08-28T19:11:15Z</time>
  <course>83.8</course>
  <speed>0.01414213562373095</speed>
  <fix>3d</fix>
</trkpt>
<trkpt lat="40.0728425" lon="-105.2308317">
  <ele>1585.89</ele>
  <time>2026-08-28T19:11:15Z</time>
  <course>171.41</course>
  <speed>0.0</speed>
  <fix>3d</fix>
</trkpt>
<trkpt lat="40.0728426" lon="-105.2308317">
  <ele>1586.02</ele>
  <time>2026-08-28T19:11:15Z</time>
  <course>83.79</course>
  <speed>0.01414213562373095</speed>
  <fix>3d</fix>
</trkpt>
<trkpt lat="40.0728425" lon="-105.2308317">
  <ele>1585.89</ele>
  <time>2026-08-28T19:11:15Z</time>
  <course>354.29</course>
  <speed>0.0</speed>
  <fix>3d</fix>
</trkpt>
<trkpt lat="40.0728426" lon="-105.2308317">
  <ele>1586.01</ele>
  <time>2026-08-28T19:11:15Z</time>
  <course>83.77</course>
  <speed>0.01414213562373095</speed>
  <fix>3d</fix>
</trkpt>
<trkpt lat="40.0728425" lon="-105.2308317">
  <ele>1585.89</ele>
  <time>2026-08-28T19:11:15Z</time>
  <course>164.1</course>
  <speed>0.0</speed>
  <fix>3d</fix>
</trkpt>
<trkpt lat="40.0728426" lon="-105.2308317">
  <ele>1586.01</ele>
  <time>2026-08-28T19:11:15Z</time>
  <course>83.76</course>
  <speed>0.01414213562373095</speed>
  <fix>3d</fix>
</trkpt>
<trkpt lat="40.0728425" lon="-105.2308317">
  <ele>1585.89</ele>
  <time>2026-08-28T19:11:15Z</time>
  <course>148.71</course>
  <speed>0.0</speed>
  <fix>3d</fix>
</trkpt>
<trkpt lat="40.0728426" lon="-105.2308317">
  <ele>1586.0</ele>
  <time>2026-08-28T19:11:15Z</time>
  <course>83.75</course>
  <speed>0.01414213562373095</speed>
  <fix>3d</fix>
</trkpt>
<trkpt lat="40.0728425" lon="-105.2308317">
  <ele>1585.89</ele>
  <time>2026-08-28T19:11:15Z</time>
  <course>114.83</course>
  <speed>0.0</speed>
  <fix>3d</fix>
</trkpt>
<trkpt lat="40.0728426" lon="-105.2308317">
  <ele>1585.99</ele>
  <time>2026-08-28T19:11:15Z</time>
  <course>83.73</course>
  <speed>0.01414213562373095</speed>
  <fix>3d</fix>
</trkpt>
<trkpt lat="40.0728425" lon="-105.2308317">
  <ele>1585.89</ele>
  <time>2026-08-28T19:11:15Z</time>
  <course>110.83</course>
  <speed>0.0</speed>
  <fix>3d</fix>
</trkpt>
<trkpt lat="40.0728426" lon="-105.2308317">
  <ele>1585.99</ele>
  <time>2026-08-28T19:11:15Z</time>
  <course>83.72</course>
  <speed>0.01414213562373095</speed>
  <fix>3d</fix>
</trkpt>
<trkpt lat="40.0728425" lon="-105.2308317">
  <ele>1585.89</ele>
  <time>2026-08-28T19:11:15Z</time>
  <course>157.77</course>
  <speed>0.0</speed>
  <fix>3d</fix>
</trkpt>
<trkpt lat="40.0728426" lon="-105.2308317">
  <ele>1585.98</ele>
  <time>2026-08-28T19:11:15Z</time>
  <course>83.71</course>
  <speed>0.01414213562373095</speed>
  <fix>3d</fix>
</trkpt>
<trkpt lat="40.0728425" lon="-105.2308317">
  <ele>1585.89</ele>
  <time>2026-08-28T19:11:15Z</time>
  <course>175.71</course>
  <speed>0.0</speed>
  <fix>3d</fix>
</trkpt>
<trkpt lat="40.0728426" lon="-105.2308317">
  <ele>1585.98</ele>
  <time>2026-08-28T19:11:15Z</time>
  <course>83.7</course>
  <speed>0.01414213562373095</speed>
  <fix>3d</fix>
</trkpt>
<trkpt lat="40.0728425" lon="-105.2308317">
  <ele>1585.89</ele>
  <time>2026-08-28T19:11:15Z</time>
  <course>135.14</course>
  <speed>0.0</speed>
  <fix>3d</fix>
</trkpt>
<trkpt lat="40.0728426" lon="-105.2308317">
  <ele>1585.99</ele>
  <time>2026-08-28T19:11:15Z</time>
  <course>83.69</course>
  <speed>0.01414213562373095</speed>
  <fix>3d</fix>
</trkpt>
<trkpt lat="40.0728425" lon="-105.2308317">
  <ele>1585.89</ele>
  <time>2026-08-28T19:11:15Z</time>
  <course>227.25</course>
  <speed>0.0</speed>
  <fix>3d</fix>
</trkpt>
<trkpt lat="40.0728426" lon="-105.2308317">
  <ele>1585.99</ele>
  <time>2026-08-28T19:11:15Z</time>
  <course>83.67</course>
  <speed>0.01414213562373095</speed>
  <fix>3d</fix>
</trkpt>
<trkpt lat="40.0728425" lon="-105.2308317">
  <ele>1585.89</ele>
  <time>2026-08-28T19:11:15Z</time>
  <course>213.67</course>
  <speed>0.0</speed>
  <fix>3d</fix>
</trkpt>
<trkpt lat="40.0728426" lon="-105.2308316">
  <ele>1585.99</ele>
  <time>2026-08-28T19:11:15Z</time>
  <course>83.66</course>
  <speed>0.01414213562373095</speed>
  <fix>3d</fix>
</trkpt>
<trkpt lat="40.0728425" lon="-105.2308317">
  <ele>1585.89</ele>
  <time>2026-08-28T19:11:15Z</time>
  <course>170.01</course>
  <speed>0.0</speed>
  <fix>3d</fix>
</trkpt>
<trkpt lat="40.0728426" lon="-105.2308316">
  <ele>1585.99</ele>
  <time>2026-08-28T19:11:15Z</time>
  <course>83.65</course>
  <speed>0.01414213562373095</speed>
  <fix>3d</fix>
</trkpt>
<trkpt lat="40.0728425" lon="-105.2308317">
  <ele>1585.89</ele>
  <time>2026-08-28T19:11:15Z</time>
  <course>162.98</course>
  <speed>0.0</speed>
  <fix>3d</fix>
</trkpt>
<trkpt lat="40.0728426" lon="-105.2308316">
  <ele>1585.99</ele>
  <time>2026-08-28T19:11:15Z</time>
  <course>83.64</course>
  <speed>0.01414213562373095</speed>
  <fix>3d</fix>
</trkpt>
<trkpt lat="40.0728425" lon="-105.2308317">
  <ele>1585.89</ele>
  <time>2026-08-28T19:11:15Z</time>
  <course>119.95</course>
  <speed>0.0</speed>
  <fix>3d</fix>
</trkpt>
<trkpt lat="40.0728426" lon="-105.2308316">
  <ele>1585.99</ele>
  <time>2026-08-28T19:11:15Z</time>
  <course>83.63</course>
  <speed>0.01414213562373095</speed>
  <fix>3d</fix>
</trkpt>
<trkpt lat="40.0728425" lon="-105.2308317">
  <ele>1585.89</ele>
  <time>2026-08-28T19:11:15Z</time>
  <course>108.87</course>
  <speed>0.0</speed>
  <fix>3d</fix>
</trkpt>
<trkpt lat="40.0728426" lon="-105.2308316">
  <ele>1585.99</ele>
  <time>2026-08-28T19:11:15Z</time>
  <course>83.62</course>
  <speed>0.01414213562373095</speed>
  <fix>3d</fix>
</trkpt>
<trkpt lat="40.0728425" lon="-105.2308317">
  <ele>1585.89</ele>
  <time>2026-08-28T19:11:15Z</time>
  <course>148.74</course>
  <speed>0.0</speed>
  <fix>3d</fix>
</trkpt>
<trkpt lat="40.0728426" lon="-105.2308316">
  <ele>1585.99</ele>
  <time>2026-08-28T19:11:15Z</time>
  <course>83.61</course>
  <speed>0.01414213562373095</speed>
  <fix>3d</fix>
</trkpt>
<trkpt lat="40.0728425" lon="-105.2308317">
  <ele>1585.89</ele>
  <time>2026-08-28T19:11:15Z</time>
  <course>177.14</course>
  <speed>0.0</speed>
  <fix>3d</fix>
</trkpt>
<trkpt lat="40.0728426" lon="-105.2308316">
  <ele>1585.98</ele>
  <time>2026-08-28T19:11:15Z</time>
  <course>83.6</course>
  <speed>0.01414213562373095</speed>
  <fix>3d</fix>
</trkpt>
<trkpt lat="40.0728425" lon="-105.2308317">
  <ele>1585.89</ele>
  <time>2026-08-28T19:11:15Z</time>
  <course>164.59</course>
  <speed>0.0</speed>
  <fix>3d</fix>
</trkpt>
<trkpt lat="40.0728426" lon="-105.2308316">
  <ele>1585.98</ele>
  <time>2026-08-28T19:11:15Z</time>
  <course>83.59</course>
  <speed>0.01414213562373095</speed>
  <fix>3d</fix>
</trkpt>
<trkpt lat="40.0728425" lon="-105.2308317">
  <ele>1585.89</ele>
  <time>2026-08-28T19:11:15Z</time>
  <course>134.11</course>
  <speed>0.0</speed>
  <fix>3d</fix>
</trkpt>
<trkpt lat="40.0728426" lon="-105.2308316">
  <ele>1585.98</ele>
  <time>2026-08-28T19:11:15Z</time>
  <course>83.58</course>
  <speed>0.01414213562373095</speed>
  <fix>3d</fix>
</trkpt>
<trkpt lat="40.0728425" lon="-105.2308317">
  <ele>1585.89</ele>
  <time>2026-08-28T19:11:15Z</time>
  <course>146.71</course>
  <speed>0.0</speed>
  <fix>3d</fix>
</trkpt>
<trkpt lat="40.0728426" lon="-105.2308316">
  <ele>1585.98</ele>
  <time>2026-08-28T19:11:15Z</time>
  <course>83.58</course>
  <speed>0.01414213562373095</speed>
  <fix>3d</fix>
</trkpt>
<trkpt lat="40.0728425" lon="-105.2308317">
  <ele>1585.89</ele>
  <time>2026-08-28T19:11:15Z</time>
  <course>218.12</course>
  <speed>0.0</speed>
  <fix>3d</fix>
</trkpt>
<trkpt lat="40.0728426" lon="-105.2308316">
  <ele>1585.98</ele>
  <time>2026-08-28T19:11:15Z</time>
  <course>83.57</course>
  <speed>0.022360679774997897</speed>
  <fix>3d</fix>
</trkpt>
<trkpt lat="40.0728425" lon="-105.2308317">
  <ele>1585.89</ele>
  <time>2026-08-28T19:11:15Z</time>
  <course>192.14</course>
  <speed>0.0</speed>
  <fix>3d</fix>
</trkpt>
<trkpt lat="40.0728426" lon="-105.2308316">
  <ele>1585.98</ele>
  <time>2026-08-28T19:11:15Z</time>
  <course>83.56</course>
  <speed>0.022360679774997897</speed>
  <fix>3d</fix>
</trkpt>
<trkpt lat="40.0728425" lon="-105.2308317">
  <ele>1585.89</ele>
  <time>2026-08-28T19:11:15Z</time>
  <course>145.08</course>
  <speed>0.0</speed>
  <fix>3d</fix>
</trkpt>
<trkpt lat="40.0728426" lon="-105.2308316">
  <ele>1585.98</ele>
  <time>2026-08-28T19:11:15Z</time>
  <course>83.55</course>
  <speed>0.022360679774997897</speed>
  <fix>3d</fix>
</trkpt>
<trkpt lat="40.0728425" lon="-105.2308317">
  <ele>1585.89</ele>
  <time>2026-08-28T19:11:15Z</time>
  <course>100.69</course>
  <speed>0.0</speed>
  <fix>3d</fix>
</trkpt>
<trkpt lat="40.0728426" lon="-105.2308316">
  <ele>1585.97</ele>
  <time>2026-08-28T19:11:15Z</time>
  <course>83.54</course>
  <speed>0.022360679774997897</speed>
  <fix>3d</fix>
</trkpt>
<trkpt lat="40.0728425" lon="-105.2308317">
  <ele>1585.89</ele>
  <time>2026-08-28T19:11:15Z</time>
  <course>184.51</course>
  <speed>0.0</speed>
  <fix>3d</fix>
</trkpt>
<trkpt lat="40.0728426" lon="-105.2308316">
  <ele>1585.97</ele>
  <time>2026-08-28T19:11:15Z</time>
  <course>83.54</course>
  <speed>0.022360679774997897</speed>
  <fix>3d</fix>
</trkpt>
<trkpt lat="40.0728425" lon="-105.2308317">
  <ele>1585.89</ele>
  <time>2026-08-28T19:11:15Z</time>
  <course>163.61</course>
  <speed>0.0</speed>
  <fix>3d</fix>
</trkpt>
<trkpt lat="40.0728426" lon="-105.2308316">
  <ele>1585.97</ele>
  <time>2026-08-28T19:11:15Z</time>
  <course>83.53</course>
  <speed>0.022360679774997897</speed>
  <fix>3d</fix>
</trkpt>
<trkpt lat="40.0728425" lon="-105.2308317">
  <ele>1585.89</ele>
  <time>2026-08-28T19:11:15Z</time>
  <course>162.99</course>
  <speed>0.0</speed>
  <fix>3d</fix>
</trkpt>
<trkpt lat="40.0728426" lon="-105.2308316">
  <ele>1585.97</ele>
  <time>2026-08-28T19:11:15Z</time>
  <course>83.52</course>
  <speed>0.022360679774997897</speed>
  <fix>3d</fix>
</trkpt>
<trkpt lat="40.0728425" lon="-105.2308317">
  <ele>1585.89</ele>
  <time>2026-08-28T19:11:15Z</time>
  <course>159.33</course>
  <speed>0.0</speed>
  <fix>3d</fix>
</trkpt>
<trkpt lat="40.0728426" lon="-105.2308316">
  <ele>1585.98</ele>
  <time>2026-08-28T19:11:15Z</time>
  <course>83.51</course>
  <speed>0.022360679774997897</speed>
  <fix>3d</fix>
</trkpt>
<trkpt lat="40.0728425" lon="-105.2308317">
  <ele>1585.89</ele>
  <time>2026-08-28T19:11:15Z</time>
  <course>137.89</course>
  <speed>0.0</speed>
  <fix>3d</fix>
</trkpt>
<trkpt lat="40.0728426" lon="-105.2308316">
  <ele>1585.97</ele>
  <time>2026-08-28T19:11:15Z</time>
  <course>83.5</course>
  <speed>0.022360679774997897</speed>
  <fix>3d</fix>
</trkpt>
<trkpt lat="40.0728425" lon="-105.2308317">
  <ele>1585.89</ele>
  <time>2026-08-28T19:11:15Z</time>
  <course>154.19</course>
  <speed>0.0</speed>
  <fix>3d</fix>
</trkpt>
<trkpt lat="40.0728426" lon="-105.2308316">
  <ele>1585.98</ele>
  <time>2026-08-28T19:11:15Z</time>
  <course>83.5</course>
  <speed>0.022360679774997897</speed>
  <fix>3d</fix>
</trkpt>
<trkpt lat="40.0728425" lon="-105.2308317">
  <ele>1585.89</ele>
  <time>2026-08-28T19:11:15Z</time>
  <course>135.77</course>
  <speed>0.0</speed>
  <fix>3d</fix>
</trkpt>
<trkpt lat="40.0728426" lon="-105.2308316">
  <ele>1585.98</ele>
  <time>2026-08-28T19:11:15Z</time>
  <course>83.49</course>
  <speed>0.022360679774997897</speed>
  <fix>3d</fix>
</trkpt>
<trkpt lat="40.0728425" lon="-105.2308317">
  <ele>1585.89</ele>
  <time>2026-08-28T19:11:15Z</time>
  <course>150.62</course>
  <speed>0.0</speed>
  <fix>3d</fix>
</trkpt>
<trkpt lat="40.0728426" lon="-105.2308316">
  <ele>1585.97</ele>
  <time>2026-08-28T19:11:15Z</time>
  <course>83.48</course>
  <speed>0.022360679774997897</speed>
  <fix>3d</fix>
</trkpt>
<trkpt lat="40.0728425" lon="-105.2308317">
  <ele>1585.89</ele>
  <time>2026-08-28T19:11:15Z</time>
  <course>184.65</course>
  <speed>0.0</speed>
  <fix>3d</fix>
</trkpt>
<trkpt lat="40.0728426" lon="-105.2308316">
  <ele>1585.97</ele>
  <time>2026-08-28T19:11:15Z</time>
  <course>83.48</course>
  <speed>0.022360679774997897</speed>
  <fix>3d</fix>
</trkpt>
<trkpt lat="40.0728425" lon="-105.2308317">
  <ele>1585.89</ele>
  <time>2026-08-28T19:11:15Z</time>
  <course>183.79</course>
  <speed>0.0</speed>
  <fix>3d</fix>
</trkpt>
<trkpt lat="40.0728426" lon="-105.2308316">
  <ele>1585.98</ele>
  <time>2026-08-28T19:11:15Z</time>
  <course>83.47</course>
  <speed>0.022360679774997897</speed>
  <fix>3d</fix>
</trkpt>
<trkpt lat="40.0728425" lon="-105.2308317">
  <ele>1585.89</ele>
  <time>2026-08-28T19:11:15Z</time>
  <course>134.53</course>
  <speed>0.0</speed>
  <fix>3d</fix>
</trkpt>
<trkpt lat="40.0728426" lon="-105.2308316">
  <ele>1585.98</ele>
  <time>2026-08-28T19:11:15Z</time>
  <course>83.46</course>
  <speed>0.022360679774997897</speed>
  <fix>3d</fix>
</trkpt>
<trkpt lat="40.0728425" lon="-105.2308317">
  <ele>1585.89</ele>
  <time>2026-08-28T19:11:15Z</time>
  <course>164.9</course>
  <speed>0.0</speed>
  <fix>3d</fix>
</trkpt>
<trkpt lat="40.0728426" lon="-105.2308316">
  <ele>1585.98</ele>
  <time>2026-08-28T19:11:15Z</time>
  <course>83.45</course>
  <speed>0.022360679774997897</speed>
  <fix>3d</fix>
</trkpt>
<trkpt lat="40.0728425" lon="-105.2308317">
  <ele>1585.89</ele>
  <time>2026-08-28T19:11:15Z</time>
  <course>164.49</course>
  <speed>0.0</speed>
  <fix>3d</fix>
</trkpt>
<trkpt lat="40.0728426" lon="-105.2308316">
  <ele>1585.98</ele>
  <time>2026-08-28T19:11:15Z</time>
  <course>83.45</course>
  <speed>0.022360679774997897</speed>
  <fix>3d</fix>
</trkpt>
<trkpt lat="40.0728425" lon="-105.2308317">
  <ele>1585.89</ele>
  <time>2026-08-28T19:11:15Z</time>
  <course>153.91</course>
  <speed>0.0</speed>
  <fix>3d</fix>
</trkpt>
<trkpt lat="40.0728426" lon="-105.2308316">
  <ele>1585.99</ele>
  <time>2026-08-28T19:11:15Z</time>
  <course>83.44</course>
  <speed>0.022360679774997897</speed>
  <fix>3d</fix>
</trkpt>
<trkpt lat="40.0728425" lon="-105.2308317">
  <ele>1585.89</ele>
  <time>2026-08-28T19:11:15Z</time>
  <course>144.86</course>
  <speed>0.0</speed>
  <fix>3d</fix>
</trkpt>
<trkpt lat="40.0728426" lon="-105.2308316">
  <ele>1585.99</ele>
  <time>2026-08-28T19:11:15Z</time>
  <course>83.43</course>
  <speed>0.022360679774997897</speed>
  <fix>3d</fix>
</trkpt>
<trkpt lat="40.0728425" lon="-105.2308317">
  <ele>1585.89</ele>
  <time>2026-08-28T19:11:15Z</time>
  <course>124.85</course>
  <speed>0.0</speed>
  <fix>3d</fix>
</trkpt>
<trkpt lat="40.0728426" lon="-105.2308316">
  <ele>1585.99</ele>
  <time>2026-08-28T19:11:15Z</time>
  <course>83.43</course>
  <speed>0.022360679774997897</speed>
  <fix>3d</fix>
</trkpt>
<trkpt lat="40.0728425" lon="-105.2308317">
  <ele>1585.89</ele>
  <time>2026-08-28T19:11:15Z</time>
  <course>137.5</course>
  <speed>0.0</speed>
  <fix>3d</fix>
</trkpt>
<trkpt lat="40.0728426" lon="-105.2308316">
  <ele>1585.99</ele>
  <time>2026-08-28T19:11:15Z</time>
  <course>83.42</course>
  <speed>0.022360679774997897</speed>
  <fix>3d</fix>
</trkpt>
<trkpt lat="40.0728425" lon="-105.2308317">
  <ele>1585.89</ele>
  <time>2026-08-28T19:11:15Z</time>
  <course>169.0</course>
  <speed>0.0</speed>
  <fix>3d</fix>
</trkpt>
<trkpt lat="40.0728426" lon="-105.2308316">
  <ele>1585.98</ele>
  <time>2026-08-28T19:11:15Z</time>
  <course>83.41</course>
  <speed>0.022360679774997897</speed>
  <fix>3d</fix>
</trkpt>
<trkpt lat="40.0728425" lon="-105.2308317">
  <ele>1585.89</ele>
  <time>2026-08-28T19:11:15Z</time>
  <course>162.11</course>
  <speed>0.0</speed>
  <fix>3d</fix>
</trkpt>
<trkpt lat="40.0728426" lon="-105.2308316">
  <ele>1585.98</ele>
  <time>2026-08-28T19:11:15Z</time>
  <course>83.41</course>
  <speed>0.022360679774997897</speed>
  <fix>3d</fix>
</trkpt>
<trkpt lat="40.0728425" lon="-105.2308317">
  <ele>1585.89</ele>
  <time>2026-08-28T19:11:15Z</time>
  <course>199.35</course>
  <speed>0.0</speed>
  <fix>3d</fix>
</trkpt>
<trkpt lat="40.0728426" lon="-105.2308316">
  <ele>1585.98</ele>
  <time>2026-08-28T19:11:15Z</time>
  <course>83.4</course>
  <speed>0.022360679774997897</speed>
  <fix>3d</fix>
</trkpt>
<trkpt lat="40.0728425" lon="-105.2308317">
  <ele>1585.89</ele>
  <time>2026-08-28T19:11:15Z</time>
  <course>186.52</course>
  <speed>0.0</speed>
  <fix>3d</fix>
</trkpt>
<trkpt lat="40.0728426" lon="-105.2308316">
  <ele>1585.97</ele>
  <time>2026-08-28T19:11:15Z</time>
  <course>83.39</course>
  <speed>0.022360679774997897</speed>
  <fix>3d</fix>
</trkpt>
<trkpt lat="40.0728425" lon="-105.2308317">
  <ele>1585.89</ele>
  <time>2026-08-28T19:11:15Z</time>
  <course>166.42</course>
  <speed>0.0</speed>
  <fix>3d</fix>
</trkpt>
<trkpt lat="40.0728426" lon="-105.2308316">
  <ele>1585.97</ele>
  <time>2026-08-28T19:11:15Z</time>
  <course>83.39</course>
  <speed>0.022360679774997897</speed>
  <fix>3d</fix>
</trkpt>
<trkpt lat="40.0728425" lon="-105.2308317">
  <ele>1585.89</ele>
  <time>2026-08-28T19:11:15Z</time>
  <course>166.92</course>
  <speed>0.0</speed>
  <fix>3d</fix>
</trkpt>
<trkpt lat="40.0728426" lon="-105.2308316">
  <ele>1585.97</ele>
  <time>2026-08-28T19:11:15Z</time>
  <course>83.38</course>
  <speed>0.022360679774997897</speed>
  <fix>3d</fix>
</trkpt>
<trkpt lat="40.0728425" lon="-105.2308317">
  <ele>1585.89</ele>
  <time>2026-08-28T19:11:15Z</time>
  <course>146.84</course>
  <speed>0.0</speed>
  <fix>3d</fix>
</trkpt>
<trkpt lat="40.0728426" lon="-105.2308316">
  <ele>1585.97</ele>
  <time>2026-08-28T19:11:15Z</time>
  <course>83.37</course>
  <speed>0.022360679774997897</speed>
  <fix>3d</fix>
</trkpt>
<trkpt lat="40.0728425" lon="-105.2308317">
  <ele>1585.89</ele>
  <time>2026-08-28T19:11:15Z</time>
  <course>125.63</course>
  <speed>0.0</speed>
  <fix>3d</fix>
</trkpt>
<trkpt lat="40.0728426" lon="-105.2308316">
  <ele>1585.97</ele>
  <time>2026-08-28T19:11:15Z</time>
  <course>83.37</course>
  <speed>0.022360679774997897</speed>
  <fix>3d</fix>
</trkpt>
<trkpt lat="40.0728425" lon="-105.2308317">
  <ele>1585.89</ele>
  <time>2026-08-28T19:11:15Z</time>
  <course>129.69</course>
  <speed>0.0</speed>
  <fix>3d</fix>
</trkpt>
<trkpt lat="40.0728426" lon="-105.2308316">
  <ele>1585.97</ele>
  <time>2026-08-28T19:11:15Z</time>
  <course>83.36</course>
  <speed>0.022360679774997897</speed>
  <fix>3d</fix>
</trkpt>
<trkpt lat="40.0728425" lon="-105.2308317">
  <ele>1585.89</ele>
  <time>2026-08-28T19:11:15Z</time>
  <course>181.16</course>
  <speed>0.0</speed>
  <fix>3d</fix>
</trkpt>
<trkpt lat="40.0728426" lon="-105.2308316">
  <ele>1585.97</ele>
  <time>2026-08-28T19:11:15Z</time>
  <course>83.4</course>
  <speed>0.01414213562373095</speed>
  <fix>3d</fix>
</trkpt>
<trkpt lat="40.0728425" lon="-105.2308317">
  <ele>1585.89</ele>
  <time>2026-08-28T19:11:15Z</time>
  <course>168.87</course>
  <speed>0.0</speed>
  <fix>3d</fix>
</trkpt>
<trkpt lat="40.0728426" lon="-105.2308316">
  <ele>1585.97</ele>
  <time>2026-08-28T19:11:16Z</time>
  <course>83.48</course>
  <speed>0.022360679774997897</speed>
  <fix>3d</fix>
</trkpt>
<trkpt lat="40.0728425" lon="-105.2308317">
  <ele>1585.89</ele>
  <time>2026-08-28T19:11:16Z</time>
  <course>120.36</course>
  <speed>0.0</speed>
  <fix>3d</fix>
</trkpt>
<trkpt lat="40.0728426" lon="-105.2308316">
  <ele>1585.97</ele>
  <time>2026-08-28T19:11:16Z</time>
  <course>83.56</course>
  <speed>0.022360679774997897</speed>
  <fix>3d</fix>
</trkpt>
<trkpt lat="40.0728425" lon="-105.2308317">
  <ele>1585.89</ele>
  <time>2026-08-28T19:11:16Z</time>
  <course>52.3</course>
  <speed>0.0</speed>
  <fix>3d</fix>
</trkpt>
<trkpt lat="40.0728426" lon="-105.2308316">
  <ele>1585.97</ele>
  <time>2026-08-28T19:11:16Z</time>
  <course>83.63</course>
  <speed>0.022360679774997897</speed>
  <fix>3d</fix>
</trkpt>
<trkpt lat="40.0728425" lon="-105.2308317">
  <ele>1585.89</ele>
  <time>2026-08-28T19:11:16Z</time>
  <course>320.14</course>
  <speed>0.0</speed>
  <fix>3d</fix>
</trkpt>
<trkpt lat="40.0728426" lon="-105.2308316">
  <ele>1585.96</ele>
  <time>2026-08-28T19:11:16Z</time>
  <course>83.69</course>
  <speed>0.022360679774997897</speed>
  <fix>3d</fix>
</trkpt>
<trkpt lat="40.0728425" lon="-105.2308317">
  <ele>1585.89</ele>
  <time>2026-08-28T19:11:16Z</time>
  <course>310.33</course>
  <speed>0.0</speed>
  <fix>3d</fix>
</trkpt>
<trkpt lat="40.0728426" lon="-105.2308316">
  <ele>1585.96</ele>
  <time>2026-08-28T19:11:16Z</time>
  <course>83.75</course>
  <speed>0.022360679774997897</speed>
  <fix>3d</fix>
</trkpt>
<trkpt lat="40.0728425" lon="-105.2308317">
  <ele>1585.89</ele>
  <time>2026-08-28T19:11:16Z</time>
  <course>317.95</course>
  <speed>0.0</speed>
  <fix>3d</fix>
</trkpt>
<trkpt lat="40.0728426" lon="-105.2308316">
  <ele>1585.96</ele>
  <time>2026-08-28T19:11:16Z</time>
  <course>83.81</course>
  <speed>0.022360679774997897</speed>
  <fix>3d</fix>
</trkpt>
<trkpt lat="40.0728425" lon="-105.2308317">
  <ele>1585.89</ele>
  <time>2026-08-28T19:11:16Z</time>
  <course>315.6</course>
  <speed>0.0</speed>
  <fix>3d</fix>
</trkpt>
<trkpt lat="40.0728426" lon="-105.2308316">
  <ele>1585.96</ele>
  <time>2026-08-28T19:11:16Z</time>
  <course>83.87</course>
  <speed>0.01414213562373095</speed>
  <fix>3d</fix>
</trkpt>
<trkpt lat="40.0728425" lon="-105.2308317">
  <ele>1585.89</ele>
  <time>2026-08-28T19:11:16Z</time>
  <course>308.65</course>
  <speed>0.0</speed>
  <fix>3d</fix>
</trkpt>
<trkpt lat="40.0728426" lon="-105.2308316">
  <ele>1585.96</ele>
  <time>2026-08-28T19:11:16Z</time>
  <course>83.92</course>
  <speed>0.01414213562373095</speed>
  <fix>3d</fix>
</trkpt>
<trkpt lat="40.0728425" lon="-105.2308317">
  <ele>1585.89</ele>
  <time>2026-08-28T19:11:16Z</time>
  <course>308.58</course>
  <speed>0.0</speed>
  <fix>3d</fix>
</trkpt>
<trkpt lat="40.0728426" lon="-105.2308316">
  <ele>1585.95</ele>
  <time>2026-08-28T19:11:16Z</time>
  <course>83.97</course>
  <speed>0.01414213562373095</speed>
  <fix>3d</fix>
</trkpt>
<trkpt lat="40.0728425" lon="-105.2308317">
  <ele>1585.89</ele>
  <time>2026-08-28T19:11:16Z</time>
  <course>309.09</course>
  <speed>0.0</speed>
  <fix>3d</fix>
</trkpt>
<trkpt lat="40.0728426" lon="-105.2308316">
  <ele>1585.95</ele>
  <time>2026-08-28T19:11:16Z</time>
  <course>84.02</course>
  <speed>0.01414213562373095</speed>
  <fix>3d</fix>
</trkpt>
<trkpt lat="40.0728425" lon="-105.2308317">
  <ele>1585.89</ele>
  <time>2026-08-28T19:11:16Z</time>
  <course>279.5</course>
  <speed>0.0</speed>
  <fix>3d</fix>
</trkpt>
<trkpt lat="40.0728426" lon="-105.2308316">
  <ele>1585.95</ele>
  <time>2026-08-28T19:11:16Z</time>
  <course>84.07</course>
  <speed>0.01414213562373095</speed>
  <fix>3d</fix>
</trkpt>
<trkpt lat="40.0728425" lon="-105.2308317">
  <ele>1585.89</ele>
  <time>2026-08-28T19:11:16Z</time>
  <course>185.7</course>
  <speed>0.0</speed>
  <fix>3d</fix>
</trkpt>
<trkpt lat="40.0728426" lon="-105.2308316">
  <ele>1585.95</ele>
  <time>2026-08-28T19:11:16Z</time>
  <course>84.11</course>
  <speed>0.01414213562373095</speed>
  <fix>3d</fix>
</trkpt>
<trkpt lat="40.0728425" lon="-105.2308317">
  <ele>1585.89</ele>
  <time>2026-08-28T19:11:16Z</time>
  <course>90.29</course>
  <speed>0.0</speed>
  <fix>3d</fix>
</trkpt>
<trkpt lat="40.0728426" lon="-105.2308316">
  <ele>1585.95</ele>
  <time>2026-08-28T19:11:16Z</time>
  <course>84.15</course>
  <speed>0.01414213562373095</speed>
  <fix>3d</fix>
</trkpt>
<trkpt lat="40.0728425" lon="-105.2308317">
  <ele>1585.89</ele>
  <time>2026-08-28T19:11:16Z</time>
  <course>46.13</course>
  <speed>0.0</speed>
  <fix>3d</fix>
</trkpt>
<trkpt lat="40.0728426" lon="-105.2308316">
  <ele>1585.95</ele>
  <time>2026-08-28T19:11:16Z</time>
  <course>84.19</course>
  <speed>0.01414213562373095</speed>
  <fix>3d</fix>
</trkpt>
<trkpt lat="40.0728425" lon="-105.2308317">
  <ele>1585.89</ele>
  <time>2026-08-28T19:11:16Z</time>
  <course>139.55</course>
  <speed>0.0</speed>
  <fix>3d</fix>
</trkpt>
<trkpt lat="40.0728426" lon="-105.2308316">
  <ele>1585.95</ele>
  <time>2026-08-28T19:11:16Z</time>
  <course>84.23</course>
  <speed>0.01414213562373095</speed>
  <fix>3d</fix>
</trkpt>
<trkpt lat="40.0728425" lon="-105.2308317">
  <ele>1585.89</ele>
  <time>2026-08-28T19:11:16Z</time>
  <course>108.42</course>
  <speed>0.0</speed>
  <fix>3d</fix>
</trkpt>
<trkpt lat="40.0728426" lon="-105.2308316">
  <ele>1585.95</ele>
  <time>2026-08-28T19:11:16Z</time>
  <course>84.27</course>
  <speed>0.01414213562373095</speed>
  <fix>3d</fix>
</trkpt>
<trkpt lat="40.0728425" lon="-105.2308317">
  <ele>1585.89</ele>
  <time>2026-08-28T19:11:16Z</time>
  <course>103.12</course>
  <speed>0.0</speed>
  <fix>3d</fix>
</trkpt>
<trkpt lat="40.0728426" lon="-105.2308316">
  <ele>1585.95</ele>
  <time>2026-08-28T19:11:16Z</time>
  <course>84.3</course>
  <speed>0.01414213562373095</speed>
  <fix>3d</fix>
</trkpt>
<trkpt lat="40.0728425" lon="-105.2308317">
  <ele>1585.89</ele>
  <time>2026-08-28T19:11:16Z</time>
  <course>105.48</course>
  <speed>0.0</speed>
  <fix>3d</fix>
</trkpt>
<trkpt lat="40.0728426" lon="-105.2308316">
  <ele>1585.95</ele>
  <time>2026-08-28T19:11:16Z</time>
  <course>84.34</course>
  <speed>0.01414213562373095</speed>
  <fix>3d</fix>
</trkpt>
<trkpt lat="40.0728425" lon="-105.2308317">
  <ele>1585.89</ele>
  <time>2026-08-28T19:11:16Z</time>
  <course>105.98</course>
  <speed>0.0</speed>
  <fix>3d</fix>
</trkpt>
<trkpt lat="40.0728426" lon="-105.2308316">
  <ele>1585.95</ele>
  <time>2026-08-28T19:11:16Z</time>
  <course>84.37</course>
  <speed>0.01414213562373095</speed>
  <fix>3d</fix>
</trkpt>
<trkpt lat="40.0728425" lon="-105.2308317">
  <ele>1585.89</ele>
  <time>2026-08-28T19:11:16Z</time>
  <course>105.58</course>
  <speed>0.0</speed>
  <fix>3d</fix>
</trkpt>
<trkpt lat="40.0728426" lon="-105.2308316">
  <ele>1585.95</ele>
  <time>2026-08-28T19:11:16Z</time>
  <course>84.41</course>
  <speed>0.01414213562373095</speed>
  <fix>3d</fix>
</trkpt>
<trkpt lat="40.0728425" lon="-105.2308317">
  <ele>1585.89</ele>
  <time>2026-08-28T19:11:16Z</time>
  <course>105.56</course>
  <speed>0.0</speed>
  <fix>3d</fix>
</trkpt>
<trkpt lat="40.0728426" lon="-105.2308316">
  <ele>1585.96</ele>
  <time>2026-08-28T19:11:16Z</time>
  <course>84.44</course>
  <speed>0.01414213562373095</speed>
  <fix>3d</fix>
</trkpt>
<trkpt lat="40.0728425" lon="-105.2308317">
  <ele>1585.89</ele>
  <time>2026-08-28T19:11:16Z</time>
  <course>105.62</course>
  <speed>0.0</speed>
  <fix>3d</fix>
</trkpt>
<trkpt lat="40.0728426" lon="-105.2308316">
  <ele>1585.96</ele>
  <time>2026-08-28T19:11:16Z</time>
  <course>84.47</course>
  <speed>0.01414213562373095</speed>
  <fix>3d</fix>
</trkpt>
<trkpt lat="40.0728425" lon="-105.2308317">
  <ele>1585.89</ele>
  <time>2026-08-28T19:11:16Z</time>
  <course>105.61</course>
  <speed>0.0</speed>
  <fix>3d</fix>
</trkpt>
<trkpt lat="40.0728426" lon="-105.2308316">
  <ele>1585.96</ele>
  <time>2026-08-28T19:11:16Z</time>
  <course>84.5</course>
  <speed>0.01414213562373095</speed>
  <fix>3d</fix>
</trkpt>
<trkpt lat="40.0728425" lon="-105.2308317">
  <ele>1585.89</ele>
  <time>2026-08-28T19:11:16Z</time>
  <course>105.61</course>
  <speed>0.0</speed>
  <fix>3d</fix>
</trkpt>
<trkpt lat="40.0728426" lon="-105.2308316">
  <ele>1585.95</ele>
  <time>2026-08-28T19:11:16Z</time>
  <course>84.52</course>
  <speed>0.01414213562373095</speed>
  <fix>3d</fix>
</trkpt>
<trkpt lat="40.0728425" lon="-105.2308317">
  <ele>1585.89</ele>
  <time>2026-08-28T19:11:16Z</time>
  <course>105.61</course>
  <speed>0.0</speed>
  <fix>3d</fix>
</trkpt>
<trkpt lat="40.0728426" lon="-105.2308316">
  <ele>1585.96</ele>
  <time>2026-08-28T19:11:16Z</time>
  <course>84.55</course>
  <speed>0.01414213562373095</speed>
  <fix>3d</fix>
</trkpt>
<trkpt lat="40.0728425" lon="-105.2308317">
  <ele>1585.89</ele>
  <time>2026-08-28T19:11:16Z</time>
  <course>105.61</course>
  <speed>0.0</speed>
  <fix>3d</fix>
</trkpt>
<trkpt lat="40.0728426" lon="-105.2308316">
  <ele>1585.96</ele>
  <time>2026-08-28T19:11:16Z</time>
  <course>84.58</course>
  <speed>0.01414213562373095</speed>
  <fix>3d</fix>
</trkpt>
<trkpt lat="40.0728425" lon="-105.2308317">
  <ele>1585.89</ele>
  <time>2026-08-28T19:11:16Z</time>
  <course>105.61</course>
  <speed>0.0</speed>
  <fix>3d</fix>
</trkpt>
<trkpt lat="40.0728426" lon="-105.2308316">
  <ele>1585.96</ele>
  <time>2026-08-28T19:11:16Z</time>
  <course>84.6</course>
  <speed>0.01414213562373095</speed>
  <fix>3d</fix>
</trkpt>
<trkpt lat="40.0728425" lon="-105.2308317">
  <ele>1585.89</ele>
  <time>2026-08-28T19:11:16Z</time>
  <course>39.27</course>
  <speed>0.0</speed>
  <fix>3d</fix>
</trkpt>
<trkpt lat="40.0728426" lon="-105.2308316">
  <ele>1585.96</ele>
  <time>2026-08-28T19:11:16Z</time>
  <course>84.63</course>
  <speed>0.01414213562373095</speed>
  <fix>3d</fix>
</trkpt>
<trkpt lat="40.0728425" lon="-105.2308317">
  <ele>1585.89</ele>
  <time>2026-08-28T19:11:16Z</time>
  <course>88.0</course>
  <speed>0.0</speed>
  <fix>3d</fix>
</trkpt>
<trkpt lat="40.0728426" lon="-105.2308316">
  <ele>1585.96</ele>
  <time>2026-08-28T19:11:16Z</time>
  <course>84.65</course>
  <speed>0.01414213562373095</speed>
  <fix>3d</fix>
</trkpt>
<trkpt lat="40.0728425" lon="-105.2308317">
  <ele>1585.89</ele>
  <time>2026-08-28T19:11:16Z</time>
  <course>105.73</course>
  <speed>0.0</speed>
  <fix>3d</fix>
</trkpt>
<trkpt lat="40.0728426" lon="-105.2308316">
  <ele>1585.96</ele>
  <time>2026-08-28T19:11:16Z</time>
  <course>84.67</course>
  <speed>0.01414213562373095</speed>
  <fix>3d</fix>
</trkpt>
<trkpt lat="40.0728425" lon="-105.2308317">
  <ele>1585.89</ele>
  <time>2026-08-28T19:11:16Z</time>
  <course>101.38</course>
  <speed>0.0</speed>
  <fix>3d</fix>
</trkpt>
<trkpt lat="40.0728426" lon="-105.2308316">
  <ele>1585.95</ele>
  <time>2026-08-28T19:11:16Z</time>
  <course>84.69</course>
  <speed>0.01414213562373095</speed>
  <fix>3d</fix>
</trkpt>
<trkpt lat="40.0728425" lon="-105.2308317">
  <ele>1585.89</ele>
  <time>2026-08-28T19:11:16Z</time>
  <course>106.41</course>
  <speed>0.0</speed>
  <fix>3d</fix>
</trkpt>
<trkpt lat="40.0728426" lon="-105.2308316">
  <ele>1585.95</ele>
  <time>2026-08-28T19:11:16Z</time>
  <course>84.72</course>
  <speed>0.01414213562373095</speed>
  <fix>3d</fix>
</trkpt>
<trkpt lat="40.0728425" lon="-105.2308317">
  <ele>1585.89</ele>
  <time>2026-08-28T19:11:16Z</time>
  <course>106.08</course>
  <speed>0.0</speed>
  <fix>3d</fix>
</trkpt>
<trkpt lat="40.0728426" lon="-105.2308316">
  <ele>1585.95</ele>
  <time>2026-08-28T19:11:16Z</time>
  <course>84.74</course>
  <speed>0.01414213562373095</speed>
  <fix>3d</fix>
</trkpt>
<trkpt lat="40.0728425" lon="-105.2308317">
  <ele>1585.89</ele>
  <time>2026-08-28T19:11:16Z</time>
  <course>105.45</course>
  <speed>0.0</speed>
  <fix>3d</fix>
</trkpt>
<trkpt lat="40.0728426" lon="-105.2308316">
  <ele>1585.96</ele>
  <time>2026-08-28T19:11:16Z</time>
  <course>84.76</course>
  <speed>0.01414213562373095</speed>
  <fix>3d</fix>
</trkpt>
<trkpt lat="40.0728425" lon="-105.2308317">
  <ele>1585.89</ele>
  <time>2026-08-28T19:11:16Z</time>
  <course>105.56</course>
  <speed>0.0</speed>
  <fix>3d</fix>
</trkpt>
<trkpt lat="40.0728426" lon="-105.2308316">
  <ele>1585.96</ele>
  <time>2026-08-28T19:11:16Z</time>
  <course>84.78</course>
  <speed>0.01414213562373095</speed>
  <fix>3d</fix>
</trkpt>
<trkpt lat="40.0728425" lon="-105.2308317">
  <ele>1585.89</ele>
  <time>2026-08-28T19:11:16Z</time>
  <course>105.63</course>
  <speed>0.0</speed>
  <fix>3d</fix>
</trkpt>
<trkpt lat="40.0728426" lon="-105.2308316">
  <ele>1585.96</ele>
  <time>2026-08-28T19:11:16Z</time>
  <course>84.79</course>
  <speed>0.01414213562373095</speed>
  <fix>3d</fix>
</trkpt>
<trkpt lat="40.0728425" lon="-105.2308317">
  <ele>1585.89</ele>
  <time>2026-08-28T19:11:16Z</time>
  <course>105.61</course>
  <speed>0.0</speed>
  <fix>3d</fix>
</trkpt>
<trkpt lat="40.0728426" lon="-105.2308316">
  <ele>1585.96</ele>
  <time>2026-08-28T19:11:16Z</time>
  <course>84.81</course>
  <speed>0.01414213562373095</speed>
  <fix>3d</fix>
</trkpt>
<trkpt lat="40.0728425" lon="-105.2308317">
  <ele>1585.89</ele>
  <time>2026-08-28T19:11:16Z</time>
  <course>105.6</course>
  <speed>0.0</speed>
  <fix>3d</fix>
</trkpt>
<trkpt lat="40.0728426" lon="-105.2308316">
  <ele>1585.96</ele>
  <time>2026-08-28T19:11:16Z</time>
  <course>84.83</course>
  <speed>0.01414213562373095</speed>
  <fix>3d</fix>
</trkpt>
<trkpt lat="40.0728425" lon="-105.2308317">
  <ele>1585.89</ele>
  <time>2026-08-28T19:11:16Z</time>
  <course>105.61</course>
  <speed>0.0</speed>
  <fix>3d</fix>
</trkpt>
<trkpt lat="40.0728426" lon="-105.2308316">
  <ele>1585.96</ele>
  <time>2026-08-28T19:11:16Z</time>
  <course>84.85</course>
  <speed>0.01414213562373095</speed>
  <fix>3d</fix>
</trkpt>
<trkpt lat="40.0728425" lon="-105.2308317">
  <ele>1585.89</ele>
  <time>2026-08-28T19:11:16Z</time>
  <course>105.61</course>
  <speed>0.0</speed>
  <fix>3d</fix>
</trkpt>
<trkpt lat="40.0728426" lon="-105.2308316">
  <ele>1585.96</ele>
  <time>2026-08-28T19:11:16Z</time>
  <course>84.86</course>
  <speed>0.01414213562373095</speed>
  <fix>3d</fix>
</trkpt>
<trkpt lat="40.0728425" lon="-105.2308317">
  <ele>1585.89</ele>
  <time>2026-08-28T19:11:16Z</time>
  <course>105.56</course>
  <speed>0.0</speed>
  <fix>3d</fix>
</trkpt>
<trkpt lat="40.0728426" lon="-105.2308316">
  <ele>1585.96</ele>
  <time>2026-08-28T19:11:16Z</time>
  <course>84.87</course>
  <speed>0.01414213562373095</speed>
  <fix>3d</fix>
</trkpt>
<trkpt lat="40.0728425" lon="-105.2308317">
  <ele>1585.89</ele>
  <time>2026-08-28T19:11:16Z</time>
  <course>105.45</course>
  <speed>0.0</speed>
  <fix>3d</fix>
</trkpt>
<trkpt lat="40.0728426" lon="-105.2308316">
  <ele>1585.96</ele>
  <time>2026-08-28T19:11:16Z</time>
  <course>84.89</course>
  <speed>0.01414213562373095</speed>
  <fix>3d</fix>
</trkpt>
<trkpt lat="40.0728425" lon="-105.2308317">
  <ele>1585.89</ele>
  <time>2026-08-28T19:11:16Z</time>
  <course>105.34</course>
  <speed>0.0</speed>
  <fix>3d</fix>
</trkpt>
<trkpt lat="40.0728426" lon="-105.2308316">
  <ele>1585.96</ele>
  <time>2026-08-28T19:11:16Z</time>
  <course>84.89</course>
  <speed>0.01414213562373095</speed>
  <fix>3d</fix>
</trkpt>
<trkpt lat="40.0728425" lon="-105.2308317">
  <ele>1585.89</ele>
  <time>2026-08-28T19:11:16Z</time>
  <course>105.23</course>
  <speed>0.0</speed>
  <fix>3d</fix>
</trkpt>
<trkpt lat="40.0728426" lon="-105.2308316">
  <ele>1585.96</ele>
  <time>2026-08-28T19:11:16Z</time>
  <course>84.9</course>
  <speed>0.01414213562373095</speed>
  <fix>3d</fix>
</trkpt>
<trkpt lat="40.0728425" lon="-105.2308317">
  <ele>1585.89</ele>
  <time>2026-08-28T19:11:16Z</time>
  <course>105.12</course>
  <speed>0.0</speed>
  <fix>3d</fix>
</trkpt>
<trkpt lat="40.0728426" lon="-105.2308316">
  <ele>1585.96</ele>
  <time>2026-08-28T19:11:16Z</time>
  <course>84.9</course>
  <speed>0.01414213562373095</speed>
  <fix>3d</fix>
</trkpt>
<trkpt lat="40.0728425" lon="-105.2308317">
  <ele>1585.89</ele>
  <time>2026-08-28T19:11:16Z</time>
  <course>105.02</course>
  <speed>0.0</speed>
  <fix>3d</fix>
</trkpt>
<trkpt lat="40.0728426" lon="-105.2308316">
  <ele>1585.96</ele>
  <time>2026-08-28T19:11:16Z</time>
  <course>84.91</course>
  <speed>0.01414213562373095</speed>
  <fix>3d</fix>
</trkpt>
<trkpt lat="40.0728425" lon="-105.2308317">
  <ele>1585.89</ele>
  <time>2026-08-28T19:11:16Z</time>
  <course>104.91</course>
  <speed>0.0</speed>
  <fix>3d</fix>
</trkpt>
<trkpt lat="40.0728426" lon="-105.2308316">
  <ele>1585.96</ele>
  <time>2026-08-28T19:11:16Z</time>
  <course>84.91</course>
  <speed>0.01414213562373095</speed>
  <fix>3d</fix>
</trkpt>
<trkpt lat="40.0728425" lon="-105.2308317">
  <ele>1585.89</ele>
  <time>2026-08-28T19:11:16Z</time>
  <course>104.79</course>
  <speed>0.0</speed>
  <fix>3d</fix>
</trkpt>
<trkpt lat="40.0728426" lon="-105.2308316">
  <ele>1585.96</ele>
  <time>2026-08-28T19:11:16Z</time>
  <course>84.91</course>
  <speed>0.01414213562373095</speed>
  <fix>3d</fix>
</trkpt>
<trkpt lat="40.0728425" lon="-105.2308317">
  <ele>1585.89</ele>
  <time>2026-08-28T19:11:16Z</time>
  <course>104.68</course>
  <speed>0.0</speed>
  <fix>3d</fix>
</trkpt>
<trkpt lat="40.0728426" lon="-105.2308316">
  <ele>1585.96</ele>
  <time>2026-08-28T19:11:16Z</time>
  <course>84.91</course>
  <speed>0.01414213562373095</speed>
  <fix>3d</fix>
</trkpt>
<trkpt lat="40.0728425" lon="-105.2308317">
  <ele>1585.89</ele>
  <time>2026-08-28T19:11:16Z</time>
  <course>104.57</course>
  <speed>0.0</speed>
  <fix>3d</fix>
</trkpt>
<trkpt lat="40.0728426" lon="-105.2308316">
  <ele>1585.96</ele>
  <time>2026-08-28T19:11:16Z</time>
  <course>84.9</course>
  <speed>0.01414213562373095</speed>
  <fix>3d</fix>
</trkpt>
<trkpt lat="40.0728425" lon="-105.2308317">
  <ele>1585.89</ele>
  <time>2026-08-28T19:11:16Z</time>
  <course>127.56</course>
  <speed>0.0</speed>
  <fix>3d</fix>
</trkpt>
<trkpt lat="40.0728426" lon="-105.2308316">
  <ele>1585.96</ele>
  <time>2026-08-28T19:11:16Z</time>
  <course>84.89</course>
  <speed>0.01414213562373095</speed>
  <fix>3d</fix>
</trkpt>
<trkpt lat="40.0728425" lon="-105.2308317">
  <ele>1585.89</ele>
  <time>2026-08-28T19:11:16Z</time>
  <course>83.72</course>
  <speed>0.0</speed>
  <fix>3d</fix>
</trkpt>
<trkpt lat="40.0728426" lon="-105.2308316">
  <ele>1585.96</ele>
  <time>2026-08-28T19:11:16Z</time>
  <course>84.89</course>
  <speed>0.01414213562373095</speed>
  <fix>3d</fix>
</trkpt>
<trkpt lat="40.0728425" lon="-105.2308317">
  <ele>1585.89</ele>
  <time>2026-08-28T19:11:16Z</time>
  <course>135.71</course>
  <speed>0.0</speed>
  <fix>3d</fix>
</trkpt>
<trkpt lat="40.0728426" lon="-105.2308316">
  <ele>1585.96</ele>
  <time>2026-08-28T19:11:16Z</time>
  <course>84.87</course>
  <speed>0.01414213562373095</speed>
  <fix>3d</fix>
</trkpt>
<trkpt lat="40.0728425" lon="-105.2308317">
  <ele>1585.89</ele>
  <time>2026-08-28T19:11:16Z</time>
  <course>117.8</course>
  <speed>0.0</speed>
  <fix>3d</fix>
</trkpt>
<trkpt lat="40.0728426" lon="-105.2308316">
  <ele>1585.96</ele>
  <time>2026-08-28T19:11:16Z</time>
  <course>84.86</course>
  <speed>0.01414213562373095</speed>
  <fix>3d</fix>
</trkpt>
<trkpt lat="40.0728425" lon="-105.2308317">
  <ele>1585.89</ele>
  <time>2026-08-28T19:11:16Z</time>
  <course>72.66</course>
  <speed>0.0</speed>
  <fix>3d</fix>
</trkpt>
<trkpt lat="40.0728426" lon="-105.2308316">
  <ele>1585.97</ele>
  <time>2026-08-28T19:11:16Z</time>
  <course>84.85</course>
  <speed>0.01414213562373095</speed>
  <fix>3d</fix>
</trkpt>
<trkpt lat="40.0728425" lon="-105.2308317">
  <ele>1585.89</ele>
  <time>2026-08-28T19:11:16Z</time>
  <course>286.58</course>
  <speed>0.0</speed>
  <fix>3d</fix>
</trkpt>
<trkpt lat="40.0728426" lon="-105.2308316">
  <ele>1585.97</ele>
  <time>2026-08-28T19:11:16Z</time>
  <course>84.83</course>
  <speed>0.01414213562373095</speed>
  <fix>3d</fix>
</trkpt>
<trkpt lat="40.0728425" lon="-105.2308317">
  <ele>1585.89</ele>
  <time>2026-08-28T19:11:16Z</time>
  <course>130.95</course>
  <speed>0.0</speed>
  <fix>3d</fix>
</trkpt>
<trkpt lat="40.0728426" lon="-105.2308316">
  <ele>1585.96</ele>
  <time>2026-08-28T19:11:16Z</time>
  <course>84.81</course>
  <speed>0.01414213562373095</speed>
  <fix>3d</fix>
</trkpt>
<trkpt lat="40.0728425" lon="-105.2308317">
  <ele>1585.89</ele>
  <time>2026-08-28T19:11:16Z</time>
  <course>102.26</course>
  <speed>0.0</speed>
  <fix>3d</fix>
</trkpt>
<trkpt lat="40.0728426" lon="-105.2308316">
  <ele>1585.96</ele>
  <time>2026-08-28T19:11:16Z</time>
  <course>84.79</course>
  <speed>0.01414213562373095</speed>
  <fix>3d</fix>
</trkpt>
<trkpt lat="40.0728425" lon="-105.2308317">
  <ele>1585.89</ele>
  <time>2026-08-28T19:11:16Z</time>
  <course>100.47</course>
  <speed>0.0</speed>
  <fix>3d</fix>
</trkpt>
<trkpt lat="40.0728426" lon="-105.2308316">
  <ele>1585.96</ele>
  <time>2026-08-28T19:11:16Z</time>
  <course>84.77</course>
  <speed>0.01414213562373095</speed>
  <fix>3d</fix>
</trkpt>
<trkpt lat="40.0728425" lon="-105.2308317">
  <ele>1585.89</ele>
  <time>2026-08-28T19:11:16Z</time>
  <course>104.03</course>
  <speed>0.0</speed>
  <fix>3d</fix>
</trkpt>
<trkpt lat="40.0728426" lon="-105.2308316">
  <ele>1585.96</ele>
  <time>2026-08-28T19:11:16Z</time>
  <course>84.75</course>
  <speed>0.01414213562373095</speed>
  <fix>3d</fix>
</trkpt>
<trkpt lat="40.0728425" lon="-105.2308317">
  <ele>1585.89</ele>
  <time>2026-08-28T19:11:16Z</time>
  <course>103.59</course>
  <speed>0.0</speed>
  <fix>3d</fix>
</trkpt>
<trkpt lat="40.0728426" lon="-105.2308316">
  <ele>1585.96</ele>
  <time>2026-08-28T19:11:16Z</time>
  <course>84.72</course>
  <speed>0.01414213562373095</speed>
  <fix>3d</fix>
</trkpt>
<trkpt lat="40.0728425" lon="-105.2308317">
  <ele>1585.89</ele>
  <time>2026-08-28T19:11:16Z</time>
  <course>171.75</course>
  <speed>0.0</speed>
  <fix>3d</fix>
</trkpt>
<trkpt lat="40.0728426" lon="-105.2308316">
  <ele>1585.96</ele>
  <time>2026-08-28T19:11:16Z</time>
  <course>84.7</course>
  <speed>0.022360679774997897</speed>
  <fix>3d</fix>
</trkpt>
<trkpt lat="40.0728425" lon="-105.2308317">
  <ele>1585.89</ele>
  <time>2026-08-28T19:11:16Z</time>
  <course>163.27</course>
  <speed>0.0</speed>
  <fix>3d</fix>
</trkpt>
<trkpt lat="40.0728426" lon="-105.2308316">
  <ele>1585.96</ele>
  <time>2026-08-28T19:11:16Z</time>
  <course>84.67</course>
  <speed>0.022360679774997897</speed>
  <fix>3d</fix>
</trkpt>
<trkpt lat="40.0728425" lon="-105.2308317">
  <ele>1585.89</ele>
  <time>2026-08-28T19:11:16Z</time>
  <course>151.71</course>
  <speed>0.0</speed>
  <fix>3d</fix>
</trkpt>
<trkpt lat="40.0728426" lon="-105.2308316">
  <ele>1585.96</ele>
  <time>2026-08-28T19:11:16Z</time>
  <course>84.64</course>
  <speed>0.022360679774997897</speed>
  <fix>3d</fix>
</trkpt>
<trkpt lat="40.0728425" lon="-105.2308317">
  <ele>1585.89</ele>
  <time>2026-08-28T19:11:16Z</time>
  <course>357.6</course>
  <speed>0.0</speed>
  <fix>3d</fix>
</trkpt>
<trkpt lat="40.0728426" lon="-105.2308316">
  <ele>1585.96</ele>
  <time>2026-08-28T19:11:16Z</time>
  <course>84.61</course>
  <speed>0.022360679774997897</speed>
  <fix>3d</fix>
</trkpt>
<trkpt lat="40.0728425" lon="-105.2308317">
  <ele>1585.89</ele>
  <time>2026-08-28T19:11:16Z</time>
  <course>354.32</course>
  <speed>0.0</speed>
  <fix>3d</fix>
</trkpt>
<trkpt lat="40.0728426" lon="-105.2308316">
  <ele>1585.96</ele>
  <time>2026-08-28T19:11:16Z</time>
  <course>84.57</course>
  <speed>0.022360679774997897</speed>
  <fix>3d</fix>
</trkpt>
<trkpt lat="40.0728425" lon="-105.2308317">
  <ele>1585.89</ele>
  <time>2026-08-28T19:11:16Z</time>
  <course>118.47</course>
  <speed>0.0</speed>
  <fix>3d</fix>
</trkpt>
<trkpt lat="40.0728426" lon="-105.2308316">
  <ele>1585.95</ele>
  <time>2026-08-28T19:11:16Z</time>
  <course>84.54</course>
  <speed>0.022360679774997897</speed>
  <fix>3d</fix>
</trkpt>
<trkpt lat="40.0728425" lon="-105.2308317">
  <ele>1585.89</ele>
  <time>2026-08-28T19:11:16Z</time>
  <course>105.12</course>
  <speed>0.0</speed>
  <fix>3d</fix>
</trkpt>
<trkpt lat="40.0728426" lon="-105.2308316">
  <ele>1585.95</ele>
  <time>2026-08-28T19:11:16Z</time>
  <course>84.5</course>
  <speed>0.022360679774997897</speed>
  <fix>3d</fix>
</trkpt>
<trkpt lat="40.0728425" lon="-105.2308317">
  <ele>1585.89</ele>
  <time>2026-08-28T19:11:16Z</time>
  <course>355.46</course>
  <speed>0.0</speed>
  <fix>3d</fix>
</trkpt>
<trkpt lat="40.0728426" lon="-105.2308316">
  <ele>1585.95</ele>
  <time>2026-08-28T19:11:16Z</time>
  <course>84.46</course>
  <speed>0.022360679774997897</speed>
  <fix>3d</fix>
</trkpt>
<trkpt lat="40.0728425" lon="-105.2308317">
  <ele>1585.89</ele>
  <time>2026-08-28T19:11:16Z</time>
  <course>354.81</course>
  <speed>0.0</speed>
  <fix>3d</fix>
</trkpt>
<trkpt lat="40.0728426" lon="-105.2308316">
  <ele>1585.96</ele>
  <time>2026-08-28T19:11:16Z</time>
  <course>84.42</course>
  <speed>0.022360679774997897</speed>
  <fix>3d</fix>
</trkpt>
<trkpt lat="40.0728425" lon="-105.2308317">
  <ele>1585.89</ele>
  <time>2026-08-28T19:11:16Z</time>
  <course>357.52</course>
  <speed>0.0</speed>
  <fix>3d</fix>
</trkpt>
<trkpt lat="40.0728426" lon="-105.2308316">
  <ele>1585.96</ele>
  <time>2026-08-28T19:11:16Z</time>
  <course>84.38</course>
  <speed>0.022360679774997897</speed>
  <fix>3d</fix>
</trkpt>
<trkpt lat="40.0728425" lon="-105.2308317">
  <ele>1585.89</ele>
  <time>2026-08-28T19:11:16Z</time>
  <course>86.25</course>
  <speed>0.0</speed>
  <fix>3d</fix>
</trkpt>
<trkpt lat="40.0728426" lon="-105.2308316">
  <ele>1585.96</ele>
  <time>2026-08-28T19:11:16Z</time>
  <course>84.34</course>
  <speed>0.022360679774997897</speed>
  <fix>3d</fix>
</trkpt>
<trkpt lat="40.0728425" lon="-105.2308317">
  <ele>1585.89</ele>
  <time>2026-08-28T19:11:16Z</time>
  <course>354.64</course>
  <speed>0.0</speed>
  <fix>3d</fix>
</trkpt>
<trkpt lat="40.0728426" lon="-105.2308316">
  <ele>1585.96</ele>
  <time>2026-08-28T19:11:16Z</time>
  <course>84.3</course>
  <speed>0.022360679774997897</speed>
  <fix>3d</fix>
</trkpt>
<trkpt lat="40.0728425" lon="-105.2308317">
  <ele>1585.89</ele>
  <time>2026-08-28T19:11:16Z</time>
  <course>354.33</course>
  <speed>0.0</speed>
  <fix>3d</fix>
</trkpt>
<trkpt lat="40.0728426" lon="-105.2308316">
  <ele>1585.96</ele>
  <time>2026-08-28T19:11:16Z</time>
  <course>84.25</course>
  <speed>0.022360679774997897</speed>
  <fix>3d</fix>
</trkpt>
<trkpt lat="40.0728425" lon="-105.2308317">
  <ele>1585.89</ele>
  <time>2026-08-28T19:11:16Z</time>
  <course>357.3</course>
  <speed>0.0</speed>
  <fix>3d</fix>
</trkpt>
<trkpt lat="40.0728426" lon="-105.2308316">
  <ele>1585.96</ele>
  <time>2026-08-28T19:11:16Z</time>
  <course>84.21</course>
  <speed>0.022360679774997897</speed>
  <fix>3d</fix>
</trkpt>
<trkpt lat="40.0728425" lon="-105.2308317">
  <ele>1585.89</ele>
  <time>2026-08-28T19:11:16Z</time>
  <course>354.93</course>
  <speed>0.0</speed>
  <fix>3d</fix>
</trkpt>
<trkpt lat="40.0728426" lon="-105.2308316">
  <ele>1585.96</ele>
  <time>2026-08-28T19:11:16Z</time>
  <course>84.16</course>
  <speed>0.022360679774997897</speed>
  <fix>3d</fix>
</trkpt>
<trkpt lat="40.0728425" lon="-105.2308317">
  <ele>1585.89</ele>
  <time>2026-08-28T19:11:16Z</time>
  <course>353.99</course>
  <speed>0.0</speed>
  <fix>3d</fix>
</trkpt>
<trkpt lat="40.0728426" lon="-105.2308316">
  <ele>1585.96</ele>
  <time>2026-08-28T19:11:16Z</time>
  <course>84.11</course>
  <speed>0.022360679774997897</speed>
  <fix>3d</fix>
</trkpt>
<trkpt lat="40.0728425" lon="-105.2308317">
  <ele>1585.89</ele>
  <time>2026-08-28T19:11:16Z</time>
  <course>354.59</course>
  <speed>0.0</speed>
  <fix>3d</fix>
</trkpt>
<trkpt lat="40.0728426" lon="-105.2308316">
  <ele>1585.96</ele>
  <time>2026-08-28T19:11:16Z</time>
  <course>84.06</course>
  <speed>0.022360679774997897</speed>
  <fix>3d</fix>
</trkpt>
<trkpt lat="40.0728425" lon="-105.2308317">
  <ele>1585.89</ele>
  <time>2026-08-28T19:11:16Z</time>
  <course>0.69</course>
  <speed>0.0</speed>
  <fix>3d</fix>
</trkpt>
<trkpt lat="40.0728426" lon="-105.2308316">
  <ele>1585.96</ele>
  <time>2026-08-28T19:11:16Z</time>
  <course>84.01</course>
  <speed>0.022360679774997897</speed>
  <fix>3d</fix>
</trkpt>
<trkpt lat="40.0728425" lon="-105.2308317">
  <ele>1585.89</ele>
  <time>2026-08-28T19:11:16Z</time>
  <course>353.74</course>
  <speed>0.0</speed>
  <fix>3d</fix>
</trkpt>
<trkpt lat="40.0728426" lon="-105.2308316">
  <ele>1585.96</ele>
  <time>2026-08-28T19:11:16Z</time>
  <course>83.96</course>
  <speed>0.022360679774997897</speed>
  <fix>3d</fix>
</trkpt>
<trkpt lat="40.0728425" lon="-105.2308317">
  <ele>1585.89</ele>
  <time>2026-08-28T19:11:16Z</time>
  <course>353.63</course>
  <speed>0.0</speed>
  <fix>3d</fix>
</trkpt>
<trkpt lat="40.0728426" lon="-105.2308316">
  <ele>1585.96</ele>
  <time>2026-08-28T19:11:16Z</time>
  <course>83.9</course>
  <speed>0.022360679774997897</speed>
  <fix>3d</fix>
</trkpt>
<trkpt lat="40.0728425" lon="-105.2308317">
  <ele>1585.89</ele>
  <time>2026-08-28T19:11:16Z</time>
  <course>358.1</course>
  <speed>0.0</speed>
  <fix>3d</fix>
</trkpt>
<trkpt lat="40.0728426" lon="-105.2308316">
  <ele>1585.96</ele>
  <time>2026-08-28T19:11:16Z</time>
  <course>83.85</course>
  <speed>0.022360679774997897</speed>
  <fix>3d</fix>
</trkpt>
<trkpt lat="40.0728425" lon="-105.2308317">
  <ele>1585.89</ele>
  <time>2026-08-28T19:11:16Z</time>
  <course>353.59</course>
  <speed>0.0</speed>
  <fix>3d</fix>
</trkpt>
<trkpt lat="40.0728426" lon="-105.2308316">
  <ele>1585.96</ele>
  <time>2026-08-28T19:11:16Z</time>
  <course>83.8</course>
  <speed>0.022360679774997897</speed>
  <fix>3d</fix>
</trkpt>
<trkpt lat="40.0728425" lon="-105.2308317">
  <ele>1585.89</ele>
  <time>2026-08-28T19:11:16Z</time>
  <course>353.48</course>
  <speed>0.0</speed>
  <fix>3d</fix>
</trkpt>
<trkpt lat="40.0728426" lon="-105.2308316">
  <ele>1585.96</ele>
  <time>2026-08-28T19:11:16Z</time>
  <course>83.75</course>
  <speed>0.022360679774997897</speed>
  <fix>3d</fix>
</trkpt>
<trkpt lat="40.0728425" lon="-105.2308317">
  <ele>1585.89</ele>
  <time>2026-08-28T19:11:16Z</time>
  <course>2.66</course>
  <speed>0.0</speed>
  <fix>3d</fix>
</trkpt>
<trkpt lat="40.0728426" lon="-105.2308316">
  <ele>1585.96</ele>
  <time>2026-08-28T19:11:16Z</time>
  <course>83.7</course>
  <speed>0.022360679774997897</speed>
  <fix>3d</fix>
</trkpt>
<trkpt lat="40.0728425" lon="-105.2308317">
  <ele>1585.89</ele>
  <time>2026-08-28T19:11:16Z</time>
  <course>353.31</course>
  <speed>0.0</speed>
  <fix>3d</fix>
</trkpt>
<trkpt lat="40.0728426" lon="-105.2308316">
  <ele>1585.97</ele>
  <time>2026-08-28T19:11:16Z</time>
  <course>83.65</course>
  <speed>0.022360679774997897</speed>
  <fix>3d</fix>
</trkpt>
<trkpt lat="40.0728425" lon="-105.2308317">
  <ele>1585.89</ele>
  <time>2026-08-28T19:11:16Z</time>
  <course>353.22</course>
  <speed>0.0</speed>
  <fix>3d</fix>
</trkpt>
<trkpt lat="40.0728426" lon="-105.2308316">
  <ele>1585.96</ele>
  <time>2026-08-28T19:11:16Z</time>
  <course>83.6</course>
  <speed>0.022360679774997897</speed>
  <fix>3d</fix>
</trkpt>
<trkpt lat="40.0728425" lon="-105.2308317">
  <ele>1585.89</ele>
  <time>2026-08-28T19:11:16Z</time>
  <course>6.56</course>
  <speed>0.0</speed>
  <fix>3d</fix>
</trkpt>
<trkpt lat="40.0728426" lon="-105.2308316">
  <ele>1585.96</ele>
  <time>2026-08-28T19:11:16Z</time>
  <course>83.55</course>
  <speed>0.022360679774997897</speed>
  <fix>3d</fix>
</trkpt>
<trkpt lat="40.0728425" lon="-105.2308317">
  <ele>1585.89</ele>
  <time>2026-08-28T19:11:16Z</time>
  <course>353.08</course>
  <speed>0.0</speed>
  <fix>3d</fix>
</trkpt>
<trkpt lat="40.0728426" lon="-105.2308316">
  <ele>1585.96</ele>
  <time>2026-08-28T19:11:16Z</time>
  <course>83.51</course>
  <speed>0.022360679774997897</speed>
  <fix>3d</fix>
</trkpt>
<trkpt lat="40.0728425" lon="-105.2308317">
  <ele>1585.89</ele>
  <time>2026-08-28T19:11:16Z</time>
  <course>348.76</course>
  <speed>0.0</speed>
  <fix>3d</fix>
</trkpt>
<trkpt lat="40.0728426" lon="-105.2308316">
  <ele>1585.96</ele>
  <time>2026-08-28T19:11:16Z</time>
  <course>83.46</course>
  <speed>0.022360679774997897</speed>
  <fix>3d</fix>
</trkpt>
<trkpt lat="40.0728425" lon="-105.2308317">
  <ele>1585.89</ele>
  <time>2026-08-28T19:11:16Z</time>
  <course>24.26</course>
  <speed>0.0</speed>
  <fix>3d</fix>
</trkpt>
<trkpt lat="40.0728426" lon="-105.2308316">
  <ele>1585.97</ele>
  <time>2026-08-28T19:11:16Z</time>
  <course>83.41</course>
  <speed>0.022360679774997897</speed>
  <fix>3d</fix>
</trkpt>
<trkpt lat="40.0728425" lon="-105.2308317">
  <ele>1585.89</ele>
  <time>2026-08-28T19:11:16Z</time>
  <course>353.09</course>
  <speed>0.0</speed>
  <fix>3d</fix>
</trkpt>
<trkpt lat="40.0728426" lon="-105.2308316">
  <ele>1585.97</ele>
  <time>2026-08-28T19:11:16Z</time>
  <course>83.36</course>
  <speed>0.022360679774997897</speed>
  <fix>3d</fix>
</trkpt>
<trkpt lat="40.0728425" lon="-105.2308317">
  <ele>1585.89</ele>
  <time>2026-08-28T19:11:16Z</time>
  <course>352.47</course>
  <speed>0.0</speed>
  <fix>3d</fix>
</trkpt>
<trkpt lat="40.0728426" lon="-105.2308316">
  <ele>1585.97</ele>
  <time>2026-08-28T19:11:16Z</time>
  <course>83.31</course>
  <speed>0.022360679774997897</speed>
  <fix>3d</fix>
</trkpt>
<trkpt lat="40.0728425" lon="-105.2308317">
  <ele>1585.89</ele>
  <time>2026-08-28T19:11:16Z</time>
  <course>353.46</course>
  <speed>0.0</speed>
  <fix>3d</fix>
</trkpt>
<trkpt lat="40.0728426" lon="-105.2308316">
  <ele>1585.97</ele>
  <time>2026-08-28T19:11:16Z</time>
  <course>83.27</course>
  <speed>0.022360679774997897</speed>
  <fix>3d</fix>
</trkpt>
<trkpt lat="40.0728425" lon="-105.2308317">
  <ele>1585.89</ele>
  <time>2026-08-28T19:11:16Z</time>
  <course>352.42</course>
  <speed>0.0</speed>
  <fix>3d</fix>
</trkpt>
<trkpt lat="40.0728426" lon="-105.2308316">
  <ele>1585.97</ele>
  <time>2026-08-28T19:11:16Z</time>
  <course>83.22</course>
  <speed>0.022360679774997897</speed>
  <fix>3d</fix>
</trkpt>
<trkpt lat="40.0728425" lon="-105.2308317">
  <ele>1585.89</ele>
  <time>2026-08-28T19:11:16Z</time>
  <course>352.32</course>
  <speed>0.0</speed>
  <fix>3d</fix>
</trkpt>
<trkpt lat="40.0728426" lon="-105.2308316">
  <ele>1585.97</ele>
  <time>2026-08-28T19:11:16Z</time>
  <course>83.17</course>
  <speed>0.022360679774997897</speed>
  <fix>3d</fix>
</trkpt>
<trkpt lat="40.0728425" lon="-105.2308317">
  <ele>1585.89</ele>
  <time>2026-08-28T19:11:16Z</time>
  <course>352.73</course>
  <speed>0.0</speed>
  <fix>3d</fix>
</trkpt>
<trkpt lat="40.0728426" lon="-105.2308316">
  <ele>1585.97</ele>
  <time>2026-08-28T19:11:16Z</time>
  <course>83.13</course>
  <speed>0.022360679774997897</speed>
  <fix>3d</fix>
</trkpt>
<trkpt lat="40.0728425" lon="-105.2308317">
  <ele>1585.89</ele>
  <time>2026-08-28T19:11:16Z</time>
  <course>348.42</course>
  <speed>0.0</speed>
  <fix>3d</fix>
</trkpt>
<trkpt lat="40.0728426" lon="-105.2308316">
  <ele>1585.97</ele>
  <time>2026-08-28T19:11:16Z</time>
  <course>83.08</course>
  <speed>0.022360679774997897</speed>
  <fix>3d</fix>
</trkpt>
<trkpt lat="40.0728425" lon="-105.2308317">
  <ele>1585.89</ele>
  <time>2026-08-28T19:11:16Z</time>
  <course>343.54</course>
  <speed>0.0</speed>
  <fix>3d</fix>
</trkpt>
<trkpt lat="40.0728426" lon="-105.2308316">
  <ele>1585.97</ele>
  <time>2026-08-28T19:11:16Z</time>
  <course>83.03</course>
  <speed>0.022360679774997897</speed>
  <fix>3d</fix>
</trkpt>
<trkpt lat="40.0728425" lon="-105.2308317">
  <ele>1585.89</ele>
  <time>2026-08-28T19:11:16Z</time>
  <course>331.42</course>
  <speed>0.0</speed>
  <fix>3d</fix>
</trkpt>
<trkpt lat="40.0728426" lon="-105.2308316">
  <ele>1585.97</ele>
  <time>2026-08-28T19:11:16Z</time>
  <course>82.99</course>
  <speed>0.022360679774997897</speed>
  <fix>3d</fix>
</trkpt>
<trkpt lat="40.0728425" lon="-105.2308317">
  <ele>1585.89</ele>
  <time>2026-08-28T19:11:16Z</time>
  <course>4.52</course>
  <speed>0.0</speed>
  <fix>3d</fix>
</trkpt>
<trkpt lat="40.0728426" lon="-105.2308316">
  <ele>1585.97</ele>
  <time>2026-08-28T19:11:16Z</time>
  <course>82.95</course>
  <speed>0.022360679774997897</speed>
  <fix>3d</fix>
</trkpt>
<trkpt lat="40.0728425" lon="-105.2308317">
  <ele>1585.89</ele>
  <time>2026-08-28T19:11:16Z</time>
  <course>7.99</course>
  <speed>0.0</speed>
  <fix>3d</fix>
</trkpt>
<trkpt lat="40.0728426" lon="-105.2308316">
  <ele>1585.97</ele>
  <time>2026-08-28T19:11:16Z</time>
  <course>82.9</course>
  <speed>0.022360679774997897</speed>
  <fix>3d</fix>
</trkpt>
<trkpt lat="40.0728425" lon="-105.2308317">
  <ele>1585.89</ele>
  <time>2026-08-28T19:11:16Z</time>
  <course>355.56</course>
  <speed>0.0</speed>
  <fix>3d</fix>
</trkpt>
<trkpt lat="40.0728426" lon="-105.2308316">
  <ele>1585.97</ele>
  <time>2026-08-28T19:11:16Z</time>
  <course>82.86</course>
  <speed>0.022360679774997897</speed>
  <fix>3d</fix>
</trkpt>
<trkpt lat="40.0728425" lon="-105.2308317">
  <ele>1585.89</ele>
  <time>2026-08-28T19:11:16Z</time>
  <course>303.45</course>
  <speed>0.0</speed>
  <fix>3d</fix>
</trkpt>
<trkpt lat="40.0728426" lon="-105.2308316">
  <ele>1585.97</ele>
  <time>2026-08-28T19:11:16Z</time>
  <course>82.81</course>
  <speed>0.022360679774997897</speed>
  <fix>3d</fix>
</trkpt>
<trkpt lat="40.0728425" lon="-105.2308317">
  <ele>1585.89</ele>
  <time>2026-08-28T19:11:16Z</time>
  <course>342.1</course>
  <speed>0.0</speed>
  <fix>3d</fix>
</trkpt>
<trkpt lat="40.0728426" lon="-105.2308316">
  <ele>1585.97</ele>
  <time>2026-08-28T19:11:16Z</time>
  <course>82.77</course>
  <speed>0.022360679774997897</speed>
  <fix>3d</fix>
</trkpt>
<trkpt lat="40.0728425" lon="-105.2308317">
  <ele>1585.89</ele>
  <time>2026-08-28T19:11:16Z</time>
  <course>354.32</course>
  <speed>0.0</speed>
  <fix>3d</fix>
</trkpt>
<trkpt lat="40.0728426" lon="-105.2308316">
  <ele>1585.97</ele>
  <time>2026-08-28T19:11:16Z</time>
  <course>82.73</course>
  <speed>0.022360679774997897</speed>
  <fix>3d</fix>
</trkpt>
<trkpt lat="40.0728425" lon="-105.2308317">
  <ele>1585.89</ele>
  <time>2026-08-28T19:11:16Z</time>
  <course>351.91</course>
  <speed>0.0</speed>
  <fix>3d</fix>
</trkpt>
<trkpt lat="40.0728426" lon="-105.2308316">
  <ele>1585.97</ele>
  <time>2026-08-28T19:11:16Z</time>
  <course>82.68</course>
  <speed>0.022360679774997897</speed>
  <fix>3d</fix>
</trkpt>
<trkpt lat="40.0728425" lon="-105.2308317">
  <ele>1585.89</ele>
  <time>2026-08-28T19:11:16Z</time>
  <course>344.92</course>
  <speed>0.0</speed>
  <fix>3d</fix>
</trkpt>
<trkpt lat="40.0728426" lon="-105.2308316">
  <ele>1585.97</ele>
  <time>2026-08-28T19:11:16Z</time>
  <course>82.64</course>
  <speed>0.022360679774997897</speed>
  <fix>3d</fix>
</trkpt>
<trkpt lat="40.0728425" lon="-105.2308317">
  <ele>1585.89</ele>
  <time>2026-08-28T19:11:16Z</time>
  <course>351.0</course>
  <speed>0.0</speed>
  <fix>3d</fix>
</trkpt>
<trkpt lat="40.0728426" lon="-105.2308316">
  <ele>1585.97</ele>
  <time>2026-08-28T19:11:16Z</time>
  <course>82.6</course>
  <speed>0.022360679774997897</speed>
  <fix>3d</fix>
</trkpt>
<trkpt lat="40.0728425" lon="-105.2308317">
  <ele>1585.89</ele>
  <time>2026-08-28T19:11:16Z</time>
  <course>351.05</course>
  <speed>0.0</speed>
  <fix>3d</fix>
</trkpt>
<trkpt lat="40.0728426" lon="-105.2308316">
  <ele>1585.98</ele>
  <time>2026-08-28T19:11:16Z</time>
  <course>82.56</course>
  <speed>0.022360679774997897</speed>
  <fix>3d</fix>
</trkpt>
<trkpt lat="40.0728425" lon="-105.2308317">
  <ele>1585.89</ele>
  <time>2026-08-28T19:11:16Z</time>
  <course>348.95</course>
  <speed>0.0</speed>
  <fix>3d</fix>
</trkpt>
<trkpt lat="40.0728426" lon="-105.2308316">
  <ele>1585.98</ele>
  <time>2026-08-28T19:11:16Z</time>
  <course>82.51</course>
  <speed>0.022360679774997897</speed>
  <fix>3d</fix>
</trkpt>
<trkpt lat="40.0728425" lon="-105.2308317">
  <ele>1585.89</ele>
  <time>2026-08-28T19:11:16Z</time>
  <course>350.77</course>
  <speed>0.0</speed>
  <fix>3d</fix>
</trkpt>
<trkpt lat="40.0728426" lon="-105.2308316">
  <ele>1585.98</ele>
  <time>2026-08-28T19:11:16Z</time>
  <course>82.47</course>
  <speed>0.022360679774997897</speed>
  <fix>3d</fix>
</trkpt>
<trkpt lat="40.0728425" lon="-105.2308317">
  <ele>1585.89</ele>
  <time>2026-08-28T19:11:16Z</time>
  <course>350.93</course>
  <speed>0.0</speed>
  <fix>3d</fix>
</trkpt>
<trkpt lat="40.0728426" lon="-105.2308316">
  <ele>1585.97</ele>
  <time>2026-08-28T19:11:16Z</time>
  <course>82.43</course>
  <speed>0.022360679774997897</speed>
  <fix>3d</fix>
</trkpt>
<trkpt lat="40.0728425" lon="-105.2308317">
  <ele>1585.89</ele>
  <time>2026-08-28T19:11:16Z</time>
  <course>350.28</course>
  <speed>0.0</speed>
  <fix>3d</fix>
</trkpt>
<trkpt lat="40.0728426" lon="-105.2308316">
  <ele>1585.97</ele>
  <time>2026-08-28T19:11:16Z</time>
  <course>82.39</course>
  <speed>0.022360679774997897</speed>
  <fix>3d</fix>
</trkpt>
<trkpt lat="40.0728425" lon="-105.2308317">
  <ele>1585.89</ele>
  <time>2026-08-28T19:11:16Z</time>
  <course>348.49</course>
  <speed>0.0</speed>
  <fix>3d</fix>
</trkpt>
<trkpt lat="40.0728426" lon="-105.2308316">
  <ele>1585.97</ele>
  <time>2026-08-28T19:11:16Z</time>
  <course>82.35</course>
  <speed>0.022360679774997897</speed>
  <fix>3d</fix>
</trkpt>
<trkpt lat="40.0728425" lon="-105.2308317">
  <ele>1585.89</ele>
  <time>2026-08-28T19:11:16Z</time>
  <course>350.67</course>
  <speed>0.0</speed>
  <fix>3d</fix>
</trkpt>
<trkpt lat="40.0728426" lon="-105.2308316">
  <ele>1585.97</ele>
  <time>2026-08-28T19:11:16Z</time>
  <course>82.31</course>
  <speed>0.022360679774997897</speed>
  <fix>3d</fix>
</trkpt>
<trkpt lat="40.0728425" lon="-105.2308317">
  <ele>1585.89</ele>
  <time>2026-08-28T19:11:16Z</time>
  <course>350.67</course>
  <speed>0.0</speed>
  <fix>3d</fix>
</trkpt>
<trkpt lat="40.0728426" lon="-105.2308316">
  <ele>1585.97</ele>
  <time>2026-08-28T19:11:17Z</time>
  <course>82.27</course>
  <speed>0.022360679774997897</speed>
  <fix>3d</fix>
</trkpt>
<trkpt lat="40.0728425" lon="-105.2308317">
  <ele>1585.89</ele>
  <time>2026-08-28T19:11:17Z</time>
  <course>349.24</course>
  <speed>0.0</speed>
  <fix>3d</fix>
</trkpt>
<trkpt lat="40.0728426" lon="-105.2308316">
  <ele>1585.97</ele>
  <time>2026-08-28T19:11:17Z</time>
  <course>82.23</course>
  <speed>0.022360679774997897</speed>
  <fix>3d</fix>
</trkpt>
<trkpt lat="40.0728425" lon="-105.2308317">
  <ele>1585.89</ele>
  <time>2026-08-28T19:11:17Z</time>
  <course>348.99</course>
  <speed>0.0</speed>
  <fix>3d</fix>
</trkpt>
<trkpt lat="40.0728426" lon="-105.2308316">
  <ele>1585.97</ele>
  <time>2026-08-28T19:11:17Z</time>
  <course>82.19</course>
  <speed>0.022360679774997897</speed>
  <fix>3d</fix>
</trkpt>
<trkpt lat="40.0728425" lon="-105.2308317">
  <ele>1585.89</ele>
  <time>2026-08-28T19:11:17Z</time>
  <course>350.5</course>
  <speed>0.0</speed>
  <fix>3d</fix>
</trkpt>
<trkpt lat="40.0728426" lon="-105.2308316">
  <ele>1585.97</ele>
  <time>2026-08-28T19:11:17Z</time>
  <course>82.15</course>
  <speed>0.022360679774997897</speed>
  <fix>3d</fix>
</trkpt>
<trkpt lat="40.0728425" lon="-105.2308317">
  <ele>1585.89</ele>
  <time>2026-08-28T19:11:17Z</time>
  <course>350.51</course>
  <speed>0.0</speed>
  <fix>3d</fix>
</trkpt>
<trkpt lat="40.0728426" lon="-105.2308316">
  <ele>1585.97</ele>
  <time>2026-08-28T19:11:17Z</time>
  <course>82.11</course>
  <speed>0.022360679774997897</speed>
  <fix>3d</fix>
</trkpt>
<trkpt lat="40.0728425" lon="-105.2308317">
  <ele>1585.89</ele>
  <time>2026-08-28T19:11:17Z</time>
  <course>349.4</course>
  <speed>0.0</speed>
  <fix>3d</fix>
</trkpt>
<trkpt lat="40.0728426" lon="-105.2308316">
  <ele>1585.97</ele>
  <time>2026-08-28T19:11:17Z</time>
  <course>82.07</course>
  <speed>0.022360679774997897</speed>
  <fix>3d</fix>
</trkpt>
<trkpt lat="40.0728425" lon="-105.2308317">
  <ele>1585.89</ele>
  <time>2026-08-28T19:11:17Z</time>
  <course>348.76</course>
  <speed>0.0</speed>
  <fix>3d</fix>
</trkpt>
<trkpt lat="40.0728426" lon="-105.2308316">
  <ele>1585.97</ele>
  <time>2026-08-28T19:11:17Z</time>
  <course>82.04</course>
  <speed>0.022360679774997897</speed>
  <fix>3d</fix>
</trkpt>
<trkpt lat="40.0728425" lon="-105.2308317">
  <ele>1585.89</ele>
  <time>2026-08-28T19:11:17Z</time>
  <course>350.3</course>
  <speed>0.0</speed>
  <fix>3d</fix>
</trkpt>
<trkpt lat="40.0728426" lon="-105.2308316">
  <ele>1585.97</ele>
  <time>2026-08-28T19:11:17Z</time>
  <course>82.0</course>
  <speed>0.022360679774997897</speed>
  <fix>3d</fix>
</trkpt>
<trkpt lat="40.0728425" lon="-105.2308317">
  <ele>1585.89</ele>
  <time>2026-08-28T19:11:17Z</time>
  <course>350.28</course>
  <speed>0.0</speed>
  <fix>3d</fix>
</trkpt>
<trkpt lat="40.0728426" lon="-105.2308316">
  <ele>1585.97</ele>
  <time>2026-08-28T19:11:17Z</time>
  <course>81.96</course>
  <speed>0.022360679774997897</speed>
  <fix>3d</fix>
</trkpt>
<trkpt lat="40.0728425" lon="-105.2308317">
  <ele>1585.89</ele>
  <time>2026-08-28T19:11:17Z</time>
  <course>348.91</course>
  <speed>0.0</speed>
  <fix>3d</fix>
</trkpt>
<trkpt lat="40.0728426" lon="-105.2308316">
  <ele>1585.97</ele>
  <time>2026-08-28T19:11:17Z</time>
  <course>81.92</course>
  <speed>0.022360679774997897</speed>
  <fix>3d</fix>
</trkpt>
<trkpt lat="40.0728425" lon="-105.2308317">
  <ele>1585.89</ele>
  <time>2026-08-28T19:11:17Z</time>
  <course>348.68</course>
  <speed>0.0</speed>
  <fix>3d</fix>
</trkpt>
<trkpt lat="40.0728426" lon="-105.2308316">
  <ele>1585.97</ele>
  <time>2026-08-28T19:11:17Z</time>
  <course>81.88</course>
  <speed>0.022360679774997897</speed>
  <fix>3d</fix>
</trkpt>
<trkpt lat="40.0728425" lon="-105.2308317">
  <ele>1585.89</ele>
  <time>2026-08-28T19:11:17Z</time>
  <course>350.09</course>
  <speed>0.0</speed>
  <fix>3d</fix>
</trkpt>
<trkpt lat="40.0728426" lon="-105.2308316">
  <ele>1585.97</ele>
  <time>2026-08-28T19:11:17Z</time>
  <course>81.85</course>
  <speed>0.022360679774997897</speed>
  <fix>3d</fix>
</trkpt>
<trkpt lat="40.0728425" lon="-105.2308317">
  <ele>1585.89</ele>
  <time>2026-08-28T19:11:17Z</time>
  <course>350.07</course>
  <speed>0.0</speed>
  <fix>3d</fix>
</trkpt>
<trkpt lat="40.0728426" lon="-105.2308316">
  <ele>1585.97</ele>
  <time>2026-08-28T19:11:17Z</time>
  <course>81.81</course>
  <speed>0.022360679774997897</speed>
  <fix>3d</fix>
</trkpt>
<trkpt lat="40.0728425" lon="-105.2308317">
  <ele>1585.89</ele>
  <time>2026-08-28T19:11:17Z</time>
  <course>348.7</course>
  <speed>0.0</speed>
  <fix>3d</fix>
</trkpt>
<trkpt lat="40.0728426" lon="-105.2308316">
  <ele>1585.97</ele>
  <time>2026-08-28T19:11:17Z</time>
  <course>81.77</course>
  <speed>0.022360679774997897</speed>
  <fix>3d</fix>
</trkpt>
<trkpt lat="40.0728425" lon="-105.2308317">
  <ele>1585.89</ele>
  <time>2026-08-28T19:11:17Z</time>
  <course>348.67</course>
  <speed>0.0</speed>
  <fix>3d</fix>
</trkpt>
<trkpt lat="40.0728426" lon="-105.2308316">
  <ele>1585.97</ele>
  <time>2026-08-28T19:11:17Z</time>
  <course>81.74</course>
  <speed>0.022360679774997897</speed>
  <fix>3d</fix>
</trkpt>
<trkpt lat="40.0728425" lon="-105.2308317">
  <ele>1585.89</ele>
  <time>2026-08-28T19:11:17Z</time>
  <course>349.94</course>
  <speed>0.0</speed>
  <fix>3d</fix>
</trkpt>
<trkpt lat="40.0728426" lon="-105.2308316">
  <ele>1585.97</ele>
  <time>2026-08-28T19:11:17Z</time>
  <course>81.7</course>
  <speed>0.022360679774997897</speed>
  <fix>3d</fix>
</trkpt>
<trkpt lat="40.0728425" lon="-105.2308317">
  <ele>1585.89</ele>
  <time>2026-08-28T19:11:17Z</time>
  <course>349.93</course>
  <speed>0.0</speed>
  <fix>3d</fix>
</trkpt>
<trkpt lat="40.0728426" lon="-105.2308316">
  <ele>1585.97</ele>
  <time>2026-08-28T19:11:17Z</time>
  <course>81.67</course>
  <speed>0.022360679774997897</speed>
  <fix>3d</fix>
</trkpt>
<trkpt lat="40.0728425" lon="-105.2308317">
  <ele>1585.89</ele>
  <time>2026-08-28T19:11:17Z</time>
  <course>348.74</course>
  <speed>0.0</speed>
  <fix>3d</fix>
</trkpt>
<trkpt lat="40.0728426" lon="-105.2308316">
  <ele>1585.97</ele>
  <time>2026-08-28T19:11:17Z</time>
  <course>81.63</course>
  <speed>0.022360679774997897</speed>
  <fix>3d</fix>
</trkpt>
<trkpt lat="40.0728425" lon="-105.2308317">
  <ele>1585.89</ele>
  <time>2026-08-28T19:11:17Z</time>
  <course>348.54</course>
  <speed>0.0</speed>
  <fix>3d</fix>
</trkpt>
<trkpt lat="40.0728426" lon="-105.2308316">
  <ele>1585.97</ele>
  <time>2026-08-28T19:11:17Z</time>
  <course>81.6</course>
  <speed>0.022360679774997897</speed>
  <fix>3d</fix>
</trkpt>
<trkpt lat="40.0728425" lon="-105.2308317">
  <ele>1585.89</ele>
  <time>2026-08-28T19:11:17Z</time>
  <course>349.46</course>
  <speed>0.0</speed>
  <fix>3d</fix>
</trkpt>
<trkpt lat="40.0728426" lon="-105.2308316">
  <ele>1585.97</ele>
  <time>2026-08-28T19:11:17Z</time>
  <course>81.56</course>
  <speed>0.022360679774997897</speed>
  <fix>3d</fix>
</trkpt>
<trkpt lat="40.0728425" lon="-105.2308317">
  <ele>1585.89</ele>
  <time>2026-08-28T19:11:17Z</time>
  <course>349.75</course>
  <speed>0.0</speed>
  <fix>3d</fix>
</trkpt>
<trkpt lat="40.0728426" lon="-105.2308316">
  <ele>1585.97</ele>
  <time>2026-08-28T19:11:17Z</time>
  <course>81.53</course>
  <speed>0.01414213562373095</speed>
  <fix>3d</fix>
</trkpt>
<trkpt lat="40.0728425" lon="-105.2308317">
  <ele>1585.89</ele>
  <time>2026-08-28T19:11:17Z</time>
  <course>349.48</course>
  <speed>0.0</speed>
  <fix>3d</fix>
</trkpt>
<trkpt lat="40.0728426" lon="-105.2308316">
  <ele>1585.97</ele>
  <time>2026-08-28T19:11:17Z</time>
  <course>81.49</course>
  <speed>0.01414213562373095</speed>
  <fix>3d</fix>
</trkpt>
<trkpt lat="40.0728425" lon="-105.2308317">
  <ele>1585.89</ele>
  <time>2026-08-28T19:11:17Z</time>
  <course>348.12</course>
  <speed>0.0</speed>
  <fix>3d</fix>
</trkpt>
<trkpt lat="40.0728426" lon="-105.2308316">
  <ele>1585.97</ele>
  <time>2026-08-28T19:11:17Z</time>
  <course>81.46</course>
  <speed>0.01414213562373095</speed>
  <fix>3d</fix>
</trkpt>
<trkpt lat="40.0728425" lon="-105.2308317">
  <ele>1585.89</ele>
  <time>2026-08-28T19:11:17Z</time>
  <course>348.64</course>
  <speed>0.0</speed>
  <fix>3d</fix>
</trkpt>
<trkpt lat="40.0728426" lon="-105.2308316">
  <ele>1585.97</ele>
  <time>2026-08-28T19:11:17Z</time>
  <course>81.42</course>
  <speed>0.022360679774997897</speed>
  <fix>3d</fix>
</trkpt>
<trkpt lat="40.0728425" lon="-105.2308317">
  <ele>1585.89</ele>
  <time>2026-08-28T19:11:17Z</time>
  <course>349.56</course>
  <speed>0.0</speed>
  <fix>3d</fix>
</trkpt>
<trkpt lat="40.0728426" lon="-105.2308316">
  <ele>1585.98</ele>
  <time>2026-08-28T19:11:17Z</time>
  <course>81.39</course>
  <speed>0.01414213562373095</speed>
  <fix>3d</fix>
</trkpt>
<trkpt lat="40.0728425" lon="-105.2308317">
  <ele>1585.89</ele>
  <time>2026-08-28T19:11:17Z</time>
  <course>349.53</course>
  <speed>0.0</speed>
  <fix>3d</fix>
</trkpt>
<trkpt lat="40.0728426" lon="-105.2308316">
  <ele>1585.98</ele>
  <time>2026-08-28T19:11:17Z</time>
  <course>81.36</course>
  <speed>0.01414213562373095</speed>
  <fix>3d</fix>
</trkpt>
<trkpt lat="40.0728425" lon="-105.2308317">
  <ele>1585.89</ele>
  <time>2026-08-28T19:11:17Z</time>
  <course>348.35</course>
  <speed>0.0</speed>
  <fix>3d</fix>
</trkpt>
<trkpt lat="40.0728426" lon="-105.2308316">
  <ele>1585.97</ele>
  <time>2026-08-28T19:11:17Z</time>
  <course>81.32</course>
  <speed>0.022360679774997897</speed>
  <fix>3d</fix>
</trkpt>
<trkpt lat="40.0728425" lon="-105.2308317">
  <ele>1585.89</ele>
  <time>2026-08-28T19:11:17Z</time>
  <course>348.29</course>
  <speed>0.0</speed>
  <fix>3d</fix>
</trkpt>
<trkpt lat="40.0728426" lon="-105.2308316">
  <ele>1585.97</ele>
  <time>2026-08-28T19:11:17Z</time>
  <course>81.29</course>
  <speed>0.022360679774997897</speed>
  <fix>3d</fix>
</trkpt>
<trkpt lat="40.0728425" lon="-105.2308317">
  <ele>1585.89</ele>
  <time>2026-08-28T19:11:17Z</time>
  <course>349.05</course>
  <speed>0.0</speed>
  <fix>3d</fix>
</trkpt>
<trkpt lat="40.0728426" lon="-105.2308316">
  <ele>1585.97</ele>
  <time>2026-08-28T19:11:17Z</time>
  <course>81.26</course>
  <speed>0.022360679774997897</speed>
  <fix>3d</fix>
</trkpt>
<trkpt lat="40.0728425" lon="-105.2308317">
  <ele>1585.89</ele>
  <time>2026-08-28T19:11:17Z</time>
  <course>351.81</course>
  <speed>0.0</speed>
  <fix>3d</fix>
</trkpt>
<trkpt lat="40.0728426" lon="-105.2308316">
  <ele>1585.97</ele>
  <time>2026-08-28T19:11:17Z</time>
  <course>81.24</course>
  <speed>0.022360679774997897</speed>
  <fix>3d</fix>
</trkpt>
<trkpt lat="40.0728425" lon="-105.2308317">
  <ele>1585.89</ele>
  <time>2026-08-28T19:11:17Z</time>
  <course>353.82</course>
  <speed>0.0</speed>
  <fix>3d</fix>
</trkpt>
<trkpt lat="40.0728426" lon="-105.2308316">
  <ele>1585.97</ele>
  <time>2026-08-28T19:11:17Z</time>
  <course>81.22</course>
  <speed>0.022360679774997897</speed>
  <fix>3d</fix>
</trkpt>
<trkpt lat="40.0728425" lon="-105.2308317">
  <ele>1585.89</ele>
  <time>2026-08-28T19:11:17Z</time>
  <course>351.78</course>
  <speed>0.0</speed>
  <fix>3d</fix>
</trkpt>
<trkpt lat="40.0728426" lon="-105.2308316">
  <ele>1585.97</ele>
  <time>2026-08-28T19:11:17Z</time>
  <course>81.21</course>
  <speed>0.022360679774997897</speed>
  <fix>3d</fix>
</trkpt>
<trkpt lat="40.0728426" lon="-105.2308316">
  <ele>1585.97</ele>
  <time>2026-08-28T19:11:17Z</time>
  <course>81.18</course>
  <speed>0.022360679774997897</speed>
  <fix>3d</fix>
</trkpt>
<trkpt lat="40.0728425" lon="-105.2308317">
  <ele>1585.89</ele>
  <time>2026-08-28T19:11:17Z</time>
  <course>351.25</course>
  <speed>0.0</speed>
  <fix>3d</fix>
</trkpt>
<trkpt lat="40.0728426" lon="-105.2308316">
  <ele>1585.97</ele>
  <time>2026-08-28T19:11:17Z</time>
  <course>81.17</course>
  <speed>0.022360679774997897</speed>
  <fix>3d</fix>
</trkpt>
<trkpt lat="40.0728426" lon="-105.2308316">
  <ele>1585.97</ele>
  <time>2026-08-28T19:11:17Z</time>
  <course>81.13</course>
  <speed>0.022360679774997897</speed>
  <fix>3d</fix>
</trkpt>
<trkpt lat="40.0728425" lon="-105.2308317">
  <ele>1585.89</ele>
  <time>2026-08-28T19:11:17Z</time>
  <course>350.92</course>
  <speed>0.0</speed>
  <fix>3d</fix>
</trkpt>
<trkpt lat="40.0728426" lon="-105.2308316">
  <ele>1585.97</ele>
  <time>2026-08-28T19:11:17Z</time>
  <course>81.13</course>
  <speed>0.022360679774997897</speed>
  <fix>3d</fix>
</trkpt>
<trkpt lat="40.0728426" lon="-105.2308316">
  <ele>1585.99</ele>
  <time>2026-08-28T19:11:17Z</time>
  <course>81.07</course>
  <speed>0.022360679774997897</speed>
  <fix>3d</fix>
</trkpt>
<trkpt lat="40.0728425" lon="-105.2308317">
  <ele>1585.89</ele>
  <time>2026-08-28T19:11:17Z</time>
  <course>350.54</course>
  <speed>0.0</speed>
  <fix>3d</fix>
</trkpt>
<trkpt lat="40.0728426" lon="-105.2308316">
  <ele>1586.0</ele>
  <time>2026-08-28T19:11:17Z</time>
  <course>81.05</course>
  <speed>0.022360679774997897</speed>
  <fix>3d</fix>
</trkpt>
<trkpt lat="40.0728426" lon="-105.2308316">
  <ele>1586.04</ele>
  <time>2026-08-28T19:11:17Z</time>
  <course>80.98</course>
  <speed>0.022360679774997897</speed>
  <fix>3d</fix>
</trkpt>
<trkpt lat="40.0728425" lon="-105.2308317">
  <ele>1585.92</ele>
  <time>2026-08-28T19:11:17Z</time>
  <course>352.28</course>
  <speed>0.0</speed>
  <fix>3d</fix>
</trkpt>
<trkpt lat="40.0728426" lon="-105.2308316">
  <ele>1586.05</ele>
  <time>2026-08-28T19:11:17Z</time>
  <course>80.96</course>
  <speed>0.01414213562373095</speed>
  <fix>3d</fix>
</trkpt>
<trkpt lat="40.0728426" lon="-105.2308316">
  <ele>1586.08</ele>
  <time>2026-08-28T19:11:17Z</time>
  <course>80.89</course>
  <speed>0.01414213562373095</speed>
  <fix>3d</fix>
</trkpt>
<trkpt lat="40.0728425" lon="-105.2308317">
  <ele>1585.97</ele>
  <time>2026-08-28T19:11:17Z</time>
  <course>48.58</course>
  <speed>0.0</speed>
  <fix>3d</fix>
</trkpt>
<trkpt lat="40.0728426" lon="-105.2308316">
  <ele>1586.1</ele>
  <time>2026-08-28T19:11:17Z</time>
  <course>80.64</course>
  <speed>0.022360679774997897</speed>
  <fix>3d</fix>
</trkpt>
<trkpt lat="40.0728426" lon="-105.2308316">
  <ele>1586.21</ele>
  <time>2026-08-28T19:11:17Z</time>
  <course>74.02</course>
  <speed>0.08</speed>
  <fix>3d</fix>
</trkpt>
<trkpt lat="40.0728425" lon="-105.2308317">
  <ele>1586.04</ele>
  <time>2026-08-28T19:11:17Z</time>
  <course>346.91</course>
  <speed>0.01</speed>
  <fix>3d</fix>
</trkpt>
<trkpt lat="40.0728427" lon="-105.2308316">
  <ele>1586.27</ele>
  <time>2026-08-28T19:11:17Z</time>
  <course>72.59</course>
  <speed>0.12041594578792296</speed>
  <fix>3d</fix>
</trkpt>
<trkpt lat="40.0728429" lon="-105.2308316">
  <ele>1586.45</ele>
  <time>2026-08-28T19:11:17Z</time>
  <course>71.63</course>
  <speed>0.194164878389476</speed>
  <fix>3d</fix>
</trkpt>
<trkpt lat="40.0728426" lon="-105.2308317">
  <ele>1586.19</ele>
  <time>2026-08-28T19:11:17Z</time>
  <course>341.8</course>
  <speed>0.09</speed>
  <fix>3d</fix>
</trkpt>
<trkpt lat="40.0728429" lon="-105.2308316">
  <ele>1586.47</ele>
  <time>2026-08-28T19:11:17Z</time>
  <course>71.66</course>
  <speed>0.194164878389476</speed>
  <fix>3d</fix>
</trkpt>
<trkpt lat="40.0728432" lon="-105.2308318">
  <ele>1586.6</ele>
  <time>2026-08-28T19:11:17Z</time>
  <course>71.56</course>
  <speed>0.21840329667841554</speed>
  <fix>3d</fix>
</trkpt>
<trkpt lat="40.0728428" lon="-105.2308319">
  <ele>1586.4</ele>
  <time>2026-08-28T19:11:17Z</time>
  <course>338.88</course>
  <speed>0.18</speed>
  <fix>3d</fix>
</trkpt>
<trkpt lat="40.0728433" lon="-105.2308318">
  <ele>1586.63</ele>
  <time>2026-08-28T19:11:17Z</time>
  <course>71.38</course>
  <speed>0.2308679276123039</speed>
  <fix>3d</fix>
</trkpt>
<trkpt lat="40.0728435" lon="-105.230832">
  <ele>1586.71</ele>
  <time>2026-08-28T19:11:17Z</time>
  <course>70.78</course>
  <speed>0.23769728648009425</speed>
  <fix>3d</fix>
</trkpt>
<trkpt lat="40.0728431" lon="-105.230832">
  <ele>1586.54</ele>
  <time>2026-08-28T19:11:17Z</time>
  <course>334.6</course>
  <speed>0.21</speed>
  <fix>3d</fix>
</trkpt>
<trkpt lat="40.0728436" lon="-105.2308321">
  <ele>1586.73</ele>
  <time>2026-08-28T19:11:17Z</time>
  <course>70.68</course>
  <speed>0.24166091947189144</speed>
  <fix>3d</fix>
</trkpt>
<trkpt lat="40.0728439" lon="-105.2308323">
  <ele>1586.8</ele>
  <time>2026-08-28T19:11:17Z</time>
  <course>70.5</course>
  <speed>0.24186773244895649</speed>
  <fix>3d</fix>
</trkpt>
<trkpt lat="40.0728436" lon="-105.2308323">
  <ele>1586.64</ele>
  <time>2026-08-28T19:11:17Z</time>
  <course>329.32</course>
  <speed>0.23</speed>
  <fix>3d</fix>
</trkpt>
<trkpt lat="40.072844" lon="-105.2308324">
  <ele>1586.83</ele>
  <time>2026-08-28T19:11:17Z</time>
  <course>70.5</course>
  <speed>0.24186773244895649</speed>
  <fix>3d</fix>
</trkpt>
<trkpt lat="40.0728442" lon="-105.2308326">
  <ele>1586.9</ele>
  <time>2026-08-28T19:11:17Z</time>
  <course>70.58</course>
  <speed>0.24413111231467405</speed>
  <fix>3d</fix>
</trkpt>
<trkpt lat="40.0728439" lon="-105.2308326">
  <ele>1586.74</ele>
  <time>2026-08-28T19:11:17Z</time>
  <course>323.69</course>
  <speed>0.24</speed>
  <fix>3d</fix>
</trkpt>
<trkpt lat="40.0728443" lon="-105.2308327">
  <ele>1586.92</ele>
  <time>2026-08-28T19:11:17Z</time>
  <course>70.6</course>
  <speed>0.24413111231467405</speed>
  <fix>3d</fix>
</trkpt>
<trkpt lat="40.0728445" lon="-105.230833">
  <ele>1586.99</ele>
  <time>2026-08-28T19:11:17Z</time>
  <course>70.68</course>
  <speed>0.24083189157584592</speed>
  <fix>3d</fix>
</trkpt>
<trkpt lat="40.0728442" lon="-105.2308329">
  <ele>1586.83</ele>
  <time>2026-08-28T19:11:17Z</time>
  <course>317.84</course>
  <speed>0.24</speed>
  <fix>3d</fix>
</trkpt>
<trkpt lat="40.0728445" lon="-105.230833">
  <ele>1586.99</ele>
  <time>2026-08-28T19:11:17Z</time>
  <course>70.68</course>
  <speed>0.24083189157584592</speed>
  <fix>3d</fix>
</trkpt>
<trkpt lat="40.0728448" lon="-105.2308335">
  <ele>1587.1</ele>
  <time>2026-08-28T19:11:17Z</time>
  <course>70.85</course>
  <speed>0.24041630560342614</speed>
  <fix>3d</fix>
</trkpt>
<trkpt lat="40.0728445" lon="-105.2308334">
  <ele>1586.92</ele>
  <time>2026-08-28T19:11:17Z</time>
  <course>312.01</course>
  <speed>0.24</speed>
  <fix>3d</fix>
</trkpt>
<trkpt lat="40.0728449" lon="-105.2308335">
  <ele>1587.11</ele>
  <time>2026-08-28T19:11:17Z</time>
  <course>70.88</course>
  <speed>0.24758836806279894</speed>
  <fix>3d</fix>
</trkpt>
<trkpt lat="40.0728451" lon="-105.2308339">
  <ele>1587.2</ele>
  <time>2026-08-28T19:11:17Z</time>
  <course>71.1</course>
  <speed>0.2420743687382041</speed>
  <fix>3d</fix>
</trkpt>
<trkpt lat="40.0728448" lon="-105.2308338">
  <ele>1587.03</ele>
  <time>2026-08-28T19:11:17Z</time>
  <course>306.49</course>
  <speed>0.24</speed>
  <fix>3d</fix>
</trkpt>
<trkpt lat="40.0728451" lon="-105.2308339">
  <ele>1587.2</ele>
  <time>2026-08-28T19:11:17Z</time>
  <course>71.1</course>
  <speed>0.2420743687382041</speed>
  <fix>3d</fix>
</trkpt>
<trkpt lat="40.0728453" lon="-105.2308344">
  <ele>1587.31</ele>
  <time>2026-08-28T19:11:17Z</time>
  <course>71.43</course>
  <speed>0.25238858928247926</speed>
  <fix>3d</fix>
</trkpt>
<trkpt lat="40.072845" lon="-105.2308343">
  <ele>1587.13</ele>
  <time>2026-08-28T19:11:17Z</time>
  <course>301.45</course>
  <speed>0.24</speed>
  <fix>3d</fix>
</trkpt>
<trkpt lat="40.0728453" lon="-105.2308345">
  <ele>1587.32</ele>
  <time>2026-08-28T19:11:17Z</time>
  <course>71.48</course>
  <speed>0.25238858928247926</speed>
  <fix>3d</fix>
</trkpt>
<trkpt lat="40.0728455" lon="-105.230835">
  <ele>1587.42</ele>
  <time>2026-08-28T19:11:17Z</time>
  <course>71.78</course>
  <speed>0.25553864678361277</speed>
  <fix>3d</fix>
</trkpt>
<trkpt lat="40.0728453" lon="-105.2308348">
  <ele>1587.24</ele>
  <time>2026-08-28T19:11:17Z</time>
  <course>296.97</course>
  <speed>0.25</speed>
  <fix>3d</fix>
</trkpt>
<trkpt lat="40.0728455" lon="-105.2308351">
  <ele>1587.43</ele>
  <time>2026-08-28T19:11:17Z</time>
  <course>71.83</course>
  <speed>0.25059928172283336</speed>
  <fix>3d</fix>
</trkpt>
<trkpt lat="40.0728457" lon="-105.2308356">
  <ele>1587.54</ele>
  <time>2026-08-28T19:11:17Z</time>
  <course>72.13</course>
  <speed>0.2640075756488817</speed>
  <fix>3d</fix>
</trkpt>
<trkpt lat="40.0728455" lon="-105.2308353">
  <ele>1587.36</ele>
  <time>2026-08-28T19:11:17Z</time>
  <course>293.08</course>
  <speed>0.26</speed>
  <fix>3d</fix>
</trkpt>
<trkpt lat="40.0728457" lon="-105.2308356">
  <ele>1587.54</ele>
  <time>2026-08-28T19:11:17Z</time>
  <course>72.14</course>
  <speed>0.2640075756488817</speed>
  <fix>3d</fix>
</trkpt>
<trkpt lat="40.0728459" lon="-105.2308362">
  <ele>1587.66</ele>
  <time>2026-08-28T19:11:17Z</time>
  <course>72.51</course>
  <speed>0.2692582403567252</speed>
  <fix>3d</fix>
</trkpt>
<trkpt lat="40.0728457" lon="-105.230836">
  <ele>1587.48</ele>
  <time>2026-08-28T19:11:17Z</time>
  <course>289.73</course>
  <speed>0.27</speed>
  <fix>3d</fix>
</trkpt>
<trkpt lat="40.0728459" lon="-105.2308363">
  <ele>1587.68</ele>
  <time>2026-08-28T19:11:17Z</time>
  <course>72.57</course>
  <speed>0.2692582403567252</speed>
  <fix>3d</fix>
</trkpt>
<trkpt lat="40.072846" lon="-105.2308368">
  <ele>1587.79</ele>
  <time>2026-08-28T19:11:17Z</time>
  <course>72.91</course>
  <speed>0.2785677655436824</speed>
  <fix>3d</fix>
</trkpt>
<trkpt lat="40.0728458" lon="-105.2308366">
  <ele>1587.6</ele>
  <time>2026-08-28T19:11:17Z</time>
  <course>286.84</course>
  <speed>0.28</speed>
  <fix>3d</fix>
</trkpt>
<trkpt lat="40.072846" lon="-105.2308369">
  <ele>1587.81</ele>
  <time>2026-08-28T19:11:17Z</time>
  <course>72.97</course>
  <speed>0.2751363298439521</speed>
  <fix>3d</fix>
</trkpt>
<trkpt lat="40.0728461" lon="-105.2308375">
  <ele>1587.92</ele>
  <time>2026-08-28T19:11:17Z</time>
  <course>73.32</course>
  <speed>0.28460498941515416</speed>
  <fix>3d</fix>
</trkpt>
<trkpt lat="40.072846" lon="-105.2308372">
  <ele>1587.72</ele>
  <time>2026-08-28T19:11:17Z</time>
  <course>284.4</course>
  <speed>0.29</speed>
  <fix>3d</fix>
</trkpt>
<trkpt lat="40.0728461" lon="-105.2308375">
  <ele>1587.92</ele>
  <time>2026-08-28T19:11:17Z</time>
  <course>73.33</course>
  <speed>0.29410882339705485</speed>
  <fix>3d</fix>
</trkpt>
<trkpt lat="40.0728463" lon="-105.2308382">
  <ele>1588.04</ele>
  <time>2026-08-28T19:11:17Z</time>
  <course>73.71</course>
  <speed>0.30083217912982646</speed>
  <fix>3d</fix>
</trkpt>
<trkpt lat="40.0728461" lon="-105.2308379">
  <ele>1587.84</ele>
  <time>2026-08-28T19:11:17Z</time>
  <course>282.39</course>
  <speed>0.3</speed>
  <fix>3d</fix>
</trkpt>
<trkpt lat="40.0728463" lon="-105.2308383">
  <ele>1588.06</ele>
  <time>2026-08-28T19:11:17Z</time>
  <course>73.76</course>
  <speed>0.30083217912982646</speed>
  <fix>3d</fix>
</trkpt>
<trkpt lat="40.0728464" lon="-105.2308389">
  <ele>1588.16</ele>
  <time>2026-08-28T19:11:17Z</time>
  <course>74.09</course>
  <speed>0.3080584360149873</speed>
  <fix>3d</fix>
</trkpt>
<trkpt lat="40.0728462" lon="-105.2308386">
  <ele>1587.97</ele>
  <time>2026-08-28T19:11:17Z</time>
  <course>280.69</course>
  <speed>0.3</speed>
  <fix>3d</fix>
</trkpt>
<trkpt lat="40.0728464" lon="-105.230839">
  <ele>1588.18</ele>
  <time>2026-08-28T19:11:17Z</time>
  <course>74.13</course>
  <speed>0.3080584360149873</speed>
  <fix>3d</fix>
</trkpt>
<trkpt lat="40.0728465" lon="-105.2308396">
  <ele>1588.29</ele>
  <time>2026-08-28T19:11:17Z</time>
  <course>74.46</course>
  <speed>0.3178049716414141</speed>
  <fix>3d</fix>
</trkpt>
<trkpt lat="40.0728463" lon="-105.2308393">
  <ele>1588.09</ele>
  <time>2026-08-28T19:11:17Z</time>
  <course>279.22</course>
  <speed>0.31</speed>
  <fix>3d</fix>
</trkpt>
<trkpt lat="40.0728465" lon="-105.2308397">
  <ele>1588.29</ele>
  <time>2026-08-28T19:11:17Z</time>
  <course>74.46</course>
  <speed>0.3178049716414141</speed>
  <fix>3d</fix>
</trkpt>
<trkpt lat="40.0728465" lon="-105.2308404">
  <ele>1588.41</ele>
  <time>2026-08-28T19:11:17Z</time>
  <course>74.82</course>
  <speed>0.31575306807693887</speed>
  <fix>3d</fix>
</trkpt>
<trkpt lat="40.0728464" lon="-105.2308401">
  <ele>1588.21</ele>
  <time>2026-08-28T19:11:17Z</time>
  <course>277.96</course>
  <speed>0.32</speed>
  <fix>3d</fix>
</trkpt>
<trkpt lat="40.0728466" lon="-105.2308405">
  <ele>1588.43</ele>
  <time>2026-08-28T19:11:17Z</time>
  <course>74.87</course>
  <speed>0.3255764119219941</speed>
  <fix>3d</fix>
</trkpt>
<trkpt lat="40.0728466" lon="-105.2308412">
  <ele>1588.54</ele>
  <time>2026-08-28T19:11:17Z</time>
  <course>75.19</course>
  <speed>0.3255764119219941</speed>
  <fix>3d</fix>
</trkpt>
<trkpt lat="40.0728465" lon="-105.2308409">
  <ele>1588.34</ele>
  <time>2026-08-28T19:11:17Z</time>
  <course>276.87</course>
  <speed>0.33</speed>
  <fix>3d</fix>
</trkpt>
<trkpt lat="40.0728466" lon="-105.2308413">
  <ele>1588.56</ele>
  <time>2026-08-28T19:11:17Z</time>
  <course>75.24</course>
  <speed>0.3255764119219941</speed>
  <fix>3d</fix>
</trkpt>
<trkpt lat="40.0728467" lon="-105.230842">
  <ele>1588.67</ele>
  <time>2026-08-28T19:11:17Z</time>
  <course>77.27</course>
  <speed>0.33376638536557274</speed>
  <fix>3d</fix>
</trkpt>
<trkpt lat="40.0728465" lon="-105.2308416">
  <ele>1588.46</ele>
  <time>2026-08-28T19:11:17Z</time>
  <course>275.94</course>
  <speed>0.33</speed>
  <fix>3d</fix>
</trkpt>
<trkpt lat="40.0728467" lon="-105.2308421">
  <ele>1588.69</ele>
  <time>2026-08-28T19:11:17Z</time>
  <course>77.04</course>
  <speed>0.33376638536557274</speed>
  <fix>3d</fix>
</trkpt>
<trkpt lat="40.0728467" lon="-105.2308428">
  <ele>1588.8</ele>
  <time>2026-08-28T19:11:17Z</time>
  <course>76.32</course>
  <speed>0.34365680554879163</speed>
  <fix>3d</fix>
</trkpt>
<trkpt lat="40.0728466" lon="-105.2308425">
  <ele>1588.58</ele>
  <time>2026-08-28T19:11:17Z</time>
  <course>275.28</course>
  <speed>0.34</speed>
  <fix>3d</fix>
</trkpt>
<trkpt lat="40.0728468" lon="-105.2308429">
  <ele>1588.82</ele>
  <time>2026-08-28T19:11:17Z</time>
  <course>76.36</course>
  <speed>0.34365680554879163</speed>
  <fix>3d</fix>
</trkpt>
<trkpt lat="40.0728468" lon="-105.2308437">
  <ele>1588.92</ele>
  <time>2026-08-28T19:11:17Z</time>
  <course>77.08</course>
  <speed>0.3535533905932738</speed>
  <fix>3d</fix>
</trkpt>
<trkpt lat="40.0728467" lon="-105.2308433">
  <ele>1588.71</ele>
  <time>2026-08-28T19:11:17Z</time>
  <course>274.89</course>
  <speed>0.35</speed>
  <fix>3d</fix>
</trkpt>
<trkpt lat="40.0728468" lon="-105.2308437">
  <ele>1588.92</ele>
  <time>2026-08-28T19:11:17Z</time>
  <course>77.1</course>
  <speed>0.3535533905932738</speed>
  <fix>3d</fix>
</trkpt>
<trkpt lat="40.0728469" lon="-105.2308445">
  <ele>1589.04</ele>
  <time>2026-08-28T19:11:17Z</time>
  <course>77.96</course>
  <speed>0.3634556369077249</speed>
  <fix>3d</fix>
</trkpt>
<trkpt lat="40.0728467" lon="-105.230844">
  <ele>1588.83</ele>
  <time>2026-08-28T19:11:17Z</time>
  <course>274.47</course>
  <speed>0.35</speed>
  <fix>3d</fix>
</trkpt>
<trkpt lat="40.0728469" lon="-105.2308446">
  <ele>1589.06</ele>
  <time>2026-08-28T19:11:17Z</time>
  <course>78.05</course>
  <speed>0.3634556369077249</speed>
  <fix>3d</fix>
</trkpt>
<trkpt lat="40.0728469" lon="-105.2308454">
  <ele>1589.17</ele>
  <time>2026-08-28T19:11:17Z</time>
  <course>78.54</course>
  <speed>0.3622154055254967</speed>
  <fix>3d</fix>
</trkpt>
<trkpt lat="40.0728468" lon="-105.2308449">
  <ele>1588.95</ele>
  <time>2026-08-28T19:11:17Z</time>
  <course>274.04</course>
  <speed>0.36</speed>
  <fix>3d</fix>
</trkpt>
<trkpt lat="40.0728469" lon="-105.2308455">
  <ele>1589.19</ele>
  <time>2026-08-28T19:11:17Z</time>
  <course>78.62</course>
  <speed>0.3622154055254967</speed>
  <fix>3d</fix>
</trkpt>
<trkpt lat="40.072847" lon="-105.2308462">
  <ele>1589.29</ele>
  <time>2026-08-28T19:11:17Z</time>
  <course>78.97</course>
  <speed>0.3721558813185679</speed>
  <fix>3d</fix>
</trkpt>
<trkpt lat="40.0728468" lon="-105.2308458">
  <ele>1589.08</ele>
  <time>2026-08-28T19:11:17Z</time>
  <course>273.79</course>
  <speed>0.36</speed>
  <fix>3d</fix>
</trkpt>
<trkpt lat="40.072847" lon="-105.2308464">
  <ele>1589.31</ele>
  <time>2026-08-28T19:11:17Z</time>
  <course>79.02</course>
  <speed>0.3721558813185679</speed>
  <fix>3d</fix>
</trkpt>
<trkpt lat="40.072847" lon="-105.2308471">
  <ele>1589.42</ele>
  <time>2026-08-28T19:11:17Z</time>
  <course>79.3</course>
  <speed>0.3721558813185679</speed>
  <fix>3d</fix>
</trkpt>
<trkpt lat="40.0728468" lon="-105.2308466">
  <ele>1589.2</ele>
  <time>2026-08-28T19:11:17Z</time>
  <course>273.64</course>
  <speed>0.36</speed>
  <fix>3d</fix>
</trkpt>
<trkpt lat="40.072847" lon="-105.2308471">
  <ele>1589.42</ele>
  <time>2026-08-28T19:11:17Z</time>
  <course>79.3</course>
  <speed>0.3721558813185679</speed>
  <fix>3d</fix>
</trkpt>
<trkpt lat="40.072847" lon="-105.230848">
  <ele>1589.55</ele>
  <time>2026-08-28T19:11:17Z</time>
  <course>79.58</course>
  <speed>0.3721558813185679</speed>
  <fix>3d</fix>
</trkpt>
<trkpt lat="40.0728468" lon="-105.2308475">
  <ele>1589.32</ele>
  <time>2026-08-28T19:11:17Z</time>
  <course>273.51</course>
  <speed>0.36</speed>
  <fix>3d</fix>
</trkpt>
<trkpt lat="40.072847" lon="-105.2308481">
  <ele>1589.56</ele>
  <time>2026-08-28T19:11:17Z</time>
  <course>79.63</course>
  <speed>0.3721558813185679</speed>
  <fix>3d</fix>
</trkpt>
<trkpt lat="40.0728471" lon="-105.2308488">
  <ele>1589.67</ele>
  <time>2026-08-28T19:11:17Z</time>
  <course>79.82</course>
  <speed>0.3721558813185679</speed>
  <fix>3d</fix>
</trkpt>
<trkpt lat="40.0728469" lon="-105.2308483">
  <ele>1589.45</ele>
  <time>2026-08-28T19:11:17Z</time>
  <course>273.43</course>
  <speed>0.36</speed>
  <fix>3d</fix>
</trkpt>
<trkpt lat="40.0728471" lon="-105.230849">
  <ele>1589.69</ele>
  <time>2026-08-28T19:11:17Z</time>
  <course>79.85</course>
  <speed>0.3712142238654117</speed>
  <fix>3d</fix>
</trkpt>
<trkpt lat="40.0728471" lon="-105.2308497">
  <ele>1589.79</ele>
  <time>2026-08-28T19:11:17Z</time>
  <course>80.02</course>
  <speed>0.3712142238654117</speed>
  <fix>3d</fix>
</trkpt>
<trkpt lat="40.0728469" lon="-105.2308492">
  <ele>1589.57</ele>
  <time>2026-08-28T19:11:17Z</time>
  <course>273.42</course>
  <speed>0.36</speed>
  <fix>3d</fix>
</trkpt>
<trkpt lat="40.0728471" lon="-105.2308498">
  <ele>1589.81</ele>
  <time>2026-08-28T19:11:17Z</time>
  <course>80.06</course>
  <speed>0.3712142238654117</speed>
  <fix>3d</fix>
</trkpt>
<trkpt lat="40.0728471" lon="-105.2308506">
  <ele>1589.92</ele>
  <time>2026-08-28T19:11:17Z</time>
  <course>80.21</course>
  <speed>0.3712142238654117</speed>
  <fix>3d</fix>
</trkpt>
<trkpt lat="40.0728469" lon="-105.23085">
  <ele>1589.7</ele>
  <time>2026-08-28T19:11:17Z</time>
  <course>273.46</course>
  <speed>0.36</speed>
  <fix>3d</fix>
</trkpt>
<trkpt lat="40.0728471" lon="-105.2308507">
  <ele>1589.93</ele>
  <time>2026-08-28T19:11:17Z</time>
  <course>80.24</course>
  <speed>0.3712142238654117</speed>
  <fix>3d</fix>
</trkpt>
<trkpt lat="40.0728471" lon="-105.2308514">
  <ele>1590.04</ele>
  <time>2026-08-28T19:11:17Z</time>
  <course>80.4</course>
  <speed>0.3712142238654117</speed>
  <fix>3d</fix>
</trkpt>
<trkpt lat="40.072847" lon="-105.2308508">
  <ele>1589.82</ele>
  <time>2026-08-28T19:11:17Z</time>
  <course>273.56</course>
  <speed>0.36</speed>
  <fix>3d</fix>
</trkpt>
<trkpt lat="40.0728471" lon="-105.2308516">
  <ele>1590.06</ele>
  <time>2026-08-28T19:11:17Z</time>
  <course>80.43</course>
  <speed>0.3712142238654117</speed>
  <fix>3d</fix>
</trkpt>
<trkpt lat="40.0728472" lon="-105.2308523">
  <ele>1590.17</ele>
  <time>2026-08-28T19:11:17Z</time>
  <course>80.56</course>
  <speed>0.3712142238654117</speed>
  <fix>3d</fix>
</trkpt>
<trkpt lat="40.0728471" lon="-105.2308517">
  <ele>1589.94</ele>
  <time>2026-08-28T19:11:17Z</time>
  <course>273.67</course>
  <speed>0.36</speed>
  <fix>3d</fix>
</trkpt>
<trkpt lat="40.0728472" lon="-105.2308523">
  <ele>1590.17</ele>
  <time>2026-08-28T19:11:17Z</time>
  <course>80.56</course>
  <speed>0.3712142238654117</speed>
  <fix>3d</fix>
</trkpt>
<trkpt lat="40.0728472" lon="-105.2308531">
  <ele>1590.3</ele>
  <time>2026-08-28T19:11:17Z</time>
  <course>80.71</course>
  <speed>0.3712142238654117</speed>
  <fix>3d</fix>
</trkpt>
<trkpt lat="40.0728471" lon="-105.2308526">
  <ele>1590.07</ele>
  <time>2026-08-28T19:11:17Z</time>
  <course>273.76</course>
  <speed>0.36</speed>
  <fix>3d</fix>
</trkpt>
<trkpt lat="40.0728472" lon="-105.2308532">
  <ele>1590.32</ele>
  <time>2026-08-28T19:11:17Z</time>
  <course>80.74</course>
  <speed>0.3712142238654117</speed>
  <fix>3d</fix>
</trkpt>
<trkpt lat="40.0728472" lon="-105.230854">
  <ele>1590.43</ele>
  <time>2026-08-28T19:11:17Z</time>
  <course>80.88</course>
  <speed>0.3712142238654117</speed>
  <fix>3d</fix>
</trkpt>
<trkpt lat="40.0728472" lon="-105.2308535">
  <ele>1590.19</ele>
  <time>2026-08-28T19:11:17Z</time>
  <course>273.85</course>
  <speed>0.36</speed>
  <fix>3d</fix>
</trkpt>
<trkpt lat="40.0728472" lon="-105.2308541">
  <ele>1590.45</ele>
  <time>2026-08-28T19:11:17Z</time>
  <course>80.9</course>
  <speed>0.3712142238654117</speed>
  <fix>3d</fix>
</trkpt>
<trkpt lat="40.0728473" lon="-105.2308548">
  <ele>1590.55</ele>
  <time>2026-08-28T19:11:17Z</time>
  <course>81.03</course>
  <speed>0.3712142238654117</speed>
  <fix>3d</fix>
</trkpt>
<trkpt lat="40.0728472" lon="-105.2308543">
  <ele>1590.32</ele>
  <time>2026-08-28T19:11:17Z</time>
  <course>273.93</course>
  <speed>0.36</speed>
  <fix>3d</fix>
</trkpt>
<trkpt lat="40.0728473" lon="-105.2308549">
  <ele>1590.57</ele>
  <time>2026-08-28T19:11:17Z</time>
  <course>81.05</course>
  <speed>0.3712142238654117</speed>
  <fix>3d</fix>
</trkpt>
<trkpt lat="40.0728473" lon="-105.2308557">
  <ele>1590.68</ele>
  <time>2026-08-28T19:11:17Z</time>
  <course>81.17</course>
  <speed>0.36124783736376886</speed>
  <fix>3d</fix>
</trkpt>
<trkpt lat="40.0728473" lon="-105.2308551">
  <ele>1590.44</ele>
  <time>2026-08-28T19:11:17Z</time>
  <course>274.02</course>
  <speed>0.36</speed>
  <fix>3d</fix>
</trkpt>
<trkpt lat="40.0728473" lon="-105.2308558">
  <ele>1590.7</ele>
  <time>2026-08-28T19:11:17Z</time>
  <course>81.19</course>
  <speed>0.36124783736376886</speed>
  <fix>3d</fix>
</trkpt>
<trkpt lat="40.0728474" lon="-105.2308565">
  <ele>1590.81</ele>
  <time>2026-08-28T19:11:17Z</time>
  <course>81.3</course>
  <speed>0.36124783736376886</speed>
  <fix>3d</fix>
</trkpt>
<trkpt lat="40.0728473" lon="-105.230856">
  <ele>1590.57</ele>
  <time>2026-08-28T19:11:17Z</time>
  <course>274.11</course>
  <speed>0.36</speed>
  <fix>3d</fix>
</trkpt>
<trkpt lat="40.0728474" lon="-105.2308566">
  <ele>1590.82</ele>
  <time>2026-08-28T19:11:17Z</time>
  <course>81.32</course>
  <speed>0.36124783736376886</speed>
  <fix>3d</fix>
</trkpt>
<trkpt lat="40.0728474" lon="-105.2308574">
  <ele>1590.93</ele>
  <time>2026-08-28T19:11:17Z</time>
  <course>81.44</course>
  <speed>0.36124783736376886</speed>
  <fix>3d</fix>
</trkpt>
<trkpt lat="40.0728474" lon="-105.2308568">
  <ele>1590.69</ele>
  <time>2026-08-28T19:11:17Z</time>
  <course>274.21</course>
  <speed>0.36</speed>
  <fix>3d</fix>
</trkpt>
<trkpt lat="40.0728474" lon="-105.2308574">
  <ele>1590.93</ele>
  <time>2026-08-28T19:11:17Z</time>
  <course>81.44</course>
  <speed>0.36124783736376886</speed>
  <fix>3d</fix>
</trkpt>
<trkpt lat="40.0728474" lon="-105.2308582">
  <ele>1591.05</ele>
  <time>2026-08-28T19:11:17Z</time>
  <course>81.57</course>
  <speed>0.36124783736376886</speed>
  <fix>3d</fix>
</trkpt>
<trkpt lat="40.0728474" lon="-105.2308577">
  <ele>1590.81</ele>
  <time>2026-08-28T19:11:17Z</time>
  <course>274.33</course>
  <speed>0.36</speed>
  <fix>3d</fix>
</trkpt>
<trkpt lat="40.0728474" lon="-105.2308583">
  <ele>1591.07</ele>
  <time>2026-08-28T19:11:17Z</time>
  <course>81.58</course>
  <speed>0.36124783736376886</speed>
  <fix>3d</fix>
</trkpt>
<trkpt lat="40.0728475" lon="-105.2308591">
  <ele>1591.17</ele>
  <time>2026-08-28T19:11:17Z</time>
  <course>81.69</course>
  <speed>0.36124783736376886</speed>
  <fix>3d</fix>
</trkpt>
<trkpt lat="40.0728475" lon="-105.2308586">
  <ele>1590.94</ele>
  <time>2026-08-28T19:11:17Z</time>
  <course>274.46</course>
  <speed>0.36</speed>
  <fix>3d</fix>
</trkpt>
<trkpt lat="40.0728475" lon="-105.2308592">
  <ele>1591.19</ele>
  <time>2026-08-28T19:11:17Z</time>
  <course>81.7</course>
  <speed>0.36124783736376886</speed>
  <fix>3d</fix>
</trkpt>
<trkpt lat="40.0728475" lon="-105.2308599">
  <ele>1591.3</ele>
  <time>2026-08-28T19:11:17Z</time>
  <course>81.8</course>
  <speed>0.36124783736376886</speed>
  <fix>3d</fix>
</trkpt>
<trkpt lat="40.0728475" lon="-105.2308594">
  <ele>1591.06</ele>
  <time>2026-08-28T19:11:17Z</time>
  <course>274.58</course>
  <speed>0.36</speed>
  <fix>3d</fix>
</trkpt>
<trkpt lat="40.0728475" lon="-105.2308599">
  <ele>1591.3</ele>
  <time>2026-08-28T19:11:17Z</time>
  <course>81.81</course>
  <speed>0.36124783736376886</speed>
  <fix>3d</fix>
</trkpt>
<trkpt lat="40.0728476" lon="-105.2308608">
  <ele>1591.42</ele>
  <time>2026-08-28T19:11:17Z</time>
  <course>81.92</course>
  <speed>0.36124783736376886</speed>
  <fix>3d</fix>
</trkpt>
<trkpt lat="40.0728475" lon="-105.2308603">
  <ele>1591.18</ele>
  <time>2026-08-28T19:11:17Z</time>
  <course>274.74</course>
  <speed>0.36</speed>
  <fix>3d</fix>
</trkpt>
<trkpt lat="40.0728476" lon="-105.2308609">
  <ele>1591.44</ele>
  <time>2026-08-28T19:11:17Z</time>
  <course>81.94</course>
  <speed>0.36124783736376886</speed>
  <fix>3d</fix>
</trkpt>
<trkpt lat="40.0728476" lon="-105.2308616">
  <ele>1591.55</ele>
  <time>2026-08-28T19:11:17Z</time>
  <course>82.03</course>
  <speed>0.35128336140500593</speed>
  <fix>3d</fix>
</trkpt>
<trkpt lat="40.0728476" lon="-105.2308611">
  <ele>1591.31</ele>
  <time>2026-08-28T19:11:17Z</time>
  <course>274.92</course>
  <speed>0.36</speed>
  <fix>3d</fix>
</trkpt>
<trkpt lat="40.0728477" lon="-105.2308617">
  <ele>1591.56</ele>
  <time>2026-08-28T19:11:17Z</time>
  <course>82.05</course>
  <speed>0.35128336140500593</speed>
  <fix>3d</fix>
</trkpt>
<trkpt lat="40.0728477" lon="-105.2308625">
  <ele>1591.67</ele>
  <time>2026-08-28T19:11:17Z</time>
  <course>82.16</course>
  <speed>0.3522782990761707</speed>
  <fix>3d</fix>
</trkpt>
<trkpt lat="40.0728476" lon="-105.230862">
  <ele>1591.43</ele>
  <time>2026-08-28T19:11:17Z</time>
  <course>275.12</course>
  <speed>0.36</speed>
  <fix>3d</fix>
</trkpt>
<trkpt lat="40.0728477" lon="-105.2308625">
  <ele>1591.67</ele>
  <time>2026-08-28T19:11:17Z</time>
  <course>82.16</course>
  <speed>0.3522782990761707</speed>
  <fix>3d</fix>
</trkpt>
<trkpt lat="40.0728478" lon="-105.2308633">
  <ele>1591.8</ele>
  <time>2026-08-28T19:11:17Z</time>
  <course>82.24</course>
  <speed>0.3522782990761707</speed>
  <fix>3d</fix>
</trkpt>
<trkpt lat="40.0728477" lon="-105.2308629">
  <ele>1591.56</ele>
  <time>2026-08-28T19:11:17Z</time>
  <course>275.29</course>
  <speed>0.36</speed>
  <fix>3d</fix>
</trkpt>
<trkpt lat="40.0728478" lon="-105.2308634">
  <ele>1591.81</ele>
  <time>2026-08-28T19:11:17Z</time>
  <course>82.25</course>
  <speed>0.3522782990761707</speed>
  <fix>3d</fix>
</trkpt>
<trkpt lat="40.0728478" lon="-105.2308641">
  <ele>1591.92</ele>
  <time>2026-08-28T19:11:17Z</time>
  <course>82.36</course>
  <speed>0.3522782990761707</speed>
  <fix>3d</fix>
</trkpt>
<trkpt lat="40.0728478" lon="-105.2308636">
  <ele>1591.68</ele>
  <time>2026-08-28T19:11:17Z</time>
  <course>275.46</course>
  <speed>0.36</speed>
  <fix>3d</fix>
</trkpt>
<trkpt lat="40.0728478" lon="-105.2308642">
  <ele>1591.92</ele>
  <time>2026-08-28T19:11:17Z</time>
  <course>82.36</course>
  <speed>0.3522782990761707</speed>
  <fix>3d</fix>
</trkpt>
<trkpt lat="40.0728479" lon="-105.230865">
  <ele>1592.04</ele>
  <time>2026-08-28T19:11:17Z</time>
  <course>82.45</course>
  <speed>0.3522782990761707</speed>
  <fix>3d</fix>
</trkpt>
<trkpt lat="40.0728478" lon="-105.2308645">
  <ele>1591.81</ele>
  <time>2026-08-28T19:11:17Z</time>
  <course>275.66</course>
  <speed>0.35</speed>
  <fix>3d</fix>
</trkpt>
<trkpt lat="40.0728479" lon="-105.2308651">
  <ele>1592.06</ele>
  <time>2026-08-28T19:11:17Z</time>
  <course>82.47</course>
  <speed>0.3522782990761707</speed>
  <fix>3d</fix>
</trkpt>
<trkpt lat="40.0728479" lon="-105.2308658">
  <ele>1592.16</ele>
  <time>2026-08-28T19:11:17Z</time>
  <course>82.56</course>
  <speed>0.3423448553724738</speed>
  <fix>3d</fix>
</trkpt>
<trkpt lat="40.0728479" lon="-105.2308654">
  <ele>1591.94</ele>
  <time>2026-08-28T19:11:17Z</time>
  <course>275.78</course>
  <speed>0.35</speed>
  <fix>3d</fix>
</trkpt>
<trkpt lat="40.072848" lon="-105.2308659">
  <ele>1592.18</ele>
  <time>2026-08-28T19:11:17Z</time>
  <course>82.56</course>
  <speed>0.3423448553724738</speed>
  <fix>3d</fix>
</trkpt>
<trkpt lat="40.072848" lon="-105.2308666">
  <ele>1592.29</ele>
  <time>2026-08-28T19:11:17Z</time>
  <course>82.64</course>
  <speed>0.3423448553724738</speed>
  <fix>3d</fix>
</trkpt>
<trkpt lat="40.072848" lon="-105.2308662">
  <ele>1592.06</ele>
  <time>2026-08-28T19:11:17Z</time>
  <course>275.94</course>
  <speed>0.35</speed>
  <fix>3d</fix>
</trkpt>
<trkpt lat="40.072848" lon="-105.2308668">
  <ele>1592.3</ele>
  <time>2026-08-28T19:11:17Z</time>
  <course>82.65</course>
  <speed>0.3423448553724738</speed>
  <fix>3d</fix>
</trkpt>
<trkpt lat="40.0728481" lon="-105.2308675">
  <ele>1592.42</ele>
  <time>2026-08-28T19:11:17Z</time>
  <course>82.72</course>
  <speed>0.3423448553724738</speed>
  <fix>3d</fix>
</trkpt>
<trkpt lat="40.072848" lon="-105.2308671">
  <ele>1592.19</ele>
  <time>2026-08-28T19:11:17Z</time>
  <course>276.13</course>
  <speed>0.35</speed>
  <fix>3d</fix>
</trkpt>
<trkpt lat="40.0728481" lon="-105.2308676">
  <ele>1592.43</ele>
  <time>2026-08-28T19:11:17Z</time>
  <course>82.74</course>
  <speed>0.3423448553724738</speed>
  <fix>3d</fix>
</trkpt>
<trkpt lat="40.0728482" lon="-105.2308683">
  <ele>1592.55</ele>
  <time>2026-08-28T19:11:17Z</time>
  <course>82.84</course>
  <speed>0.3423448553724738</speed>
  <fix>3d</fix>
</trkpt>
<trkpt lat="40.0728481" lon="-105.2308678">
  <ele>1592.32</ele>
  <time>2026-08-28T19:11:17Z</time>
  <course>276.29</course>
  <speed>0.35</speed>
  <fix>3d</fix>
</trkpt>
<trkpt lat="40.0728482" lon="-105.2308683">
  <ele>1592.55</ele>
  <time>2026-08-28T19:11:17Z</time>
  <course>82.84</course>
  <speed>0.3423448553724738</speed>
  <fix>3d</fix>
</trkpt>
<trkpt lat="40.0728482" lon="-105.2308691">
  <ele>1592.68</ele>
  <time>2026-08-28T19:11:17Z</time>
  <course>82.98</course>
  <speed>0.33376638536557274</speed>
  <fix>3d</fix>
</trkpt>
<trkpt lat="40.0728481" lon="-105.2308687">
  <ele>1592.45</ele>
  <time>2026-08-28T19:11:17Z</time>
  <course>276.46</course>
  <speed>0.35</speed>
  <fix>3d</fix>
</trkpt>
<trkpt lat="40.0728482" lon="-105.2308692">
  <ele>1592.7</ele>
  <time>2026-08-28T19:11:17Z</time>
  <course>82.99</course>
  <speed>0.33376638536557274</speed>
  <fix>3d</fix>
</trkpt>
<trkpt lat="40.0728483" lon="-105.2308699">
  <ele>1592.81</ele>
  <time>2026-08-28T19:11:17Z</time>
  <course>83.08</course>
  <speed>0.33376638536557274</speed>
  <fix>3d</fix>
</trkpt>
<trkpt lat="40.0728482" lon="-105.2308695">
  <ele>1592.58</ele>
  <time>2026-08-28T19:11:17Z</time>
  <course>276.61</course>
  <speed>0.35</speed>
  <fix>3d</fix>
</trkpt>
<trkpt lat="40.0728483" lon="-105.23087">
  <ele>1592.82</ele>
  <time>2026-08-28T19:11:17Z</time>
  <course>83.1</course>
  <speed>0.33376638536557274</speed>
  <fix>3d</fix>
</trkpt>
<trkpt lat="40.0728484" lon="-105.2308707">
  <ele>1592.93</ele>
  <time>2026-08-28T19:11:17Z</time>
  <course>83.16</course>
  <speed>0.33376638536557274</speed>
  <fix>3d</fix>
</trkpt>
<trkpt lat="40.0728483" lon="-105.2308703">
  <ele>1592.7</ele>
  <time>2026-08-28T19:11:17Z</time>
  <course>276.7</course>
  <speed>0.34</speed>
  <fix>3d</fix>
</trkpt>
<trkpt lat="40.0728484" lon="-105.2308708">
  <ele>1592.95</ele>
  <time>2026-08-28T19:11:17Z</time>
  <course>83.18</course>
  <speed>0.33376638536557274</speed>
  <fix>3d</fix>
</trkpt>
<trkpt lat="40.0728484" lon="-105.2308715">
  <ele>1593.06</ele>
  <time>2026-08-28T19:11:17Z</time>
  <course>83.26</course>
  <speed>0.33376638536557274</speed>
  <fix>3d</fix>
</trkpt>
<trkpt lat="40.0728484" lon="-105.2308712">
  <ele>1592.83</ele>
  <time>2026-08-28T19:11:17Z</time>
  <course>276.8</course>
  <speed>0.34</speed>
  <fix>3d</fix>
</trkpt>
<trkpt lat="40.0728485" lon="-105.2308716">
  <ele>1593.08</ele>
  <time>2026-08-28T19:11:17Z</time>
  <course>83.27</course>
  <speed>0.33376638536557274</speed>
  <fix>3d</fix>
</trkpt>
<trkpt lat="40.0728485" lon="-105.2308723">
  <ele>1593.19</ele>
  <time>2026-08-28T19:11:17Z</time>
  <course>83.35</course>
  <speed>0.3238826948140329</speed>
  <fix>3d</fix>
</trkpt>
<trkpt lat="40.0728485" lon="-105.230872">
  <ele>1592.96</ele>
  <time>2026-08-28T19:11:17Z</time>
  <course>276.92</course>
  <speed>0.34</speed>
  <fix>3d</fix>
</trkpt>
<trkpt lat="40.0728485" lon="-105.2308723">
  <ele>1593.19</ele>
  <time>2026-08-28T19:11:17Z</time>
  <course>83.35</course>
  <speed>0.3238826948140329</speed>
  <fix>3d</fix>
</trkpt>
<trkpt lat="40.0728486" lon="-105.2308731">
  <ele>1593.31</ele>
  <time>2026-08-28T19:11:17Z</time>
  <course>83.43</course>
  <speed>0.3238826948140329</speed>
  <fix>3d</fix>
</trkpt>
<trkpt lat="40.0728485" lon="-105.2308727">
  <ele>1593.08</ele>
  <time>2026-08-28T19:11:17Z</time>
  <course>277.06</course>
  <speed>0.34</speed>
  <fix>3d</fix>
</trkpt>
<trkpt lat="40.0728486" lon="-105.2308732">
  <ele>1593.33</ele>
  <time>2026-08-28T19:11:17Z</time>
  <course>83.44</course>
  <speed>0.3238826948140329</speed>
  <fix>3d</fix>
</trkpt>
<trkpt lat="40.0728487" lon="-105.2308739">
  <ele>1593.44</ele>
  <time>2026-08-28T19:11:17Z</time>
  <course>83.51</course>
  <speed>0.3238826948140329</speed>
  <fix>3d</fix>
</trkpt>
<trkpt lat="40.0728486" lon="-105.2308736">
  <ele>1593.21</ele>
  <time>2026-08-28T19:11:17Z</time>
  <course>277.16</course>
  <speed>0.33</speed>
  <fix>3d</fix>
</trkpt>
<trkpt lat="40.0728487" lon="-105.230874">
  <ele>1593.46</ele>
  <time>2026-08-28T19:11:17Z</time>
  <course>83.52</course>
  <speed>0.3238826948140329</speed>
  <fix>3d</fix>
</trkpt>
<trkpt lat="40.0728488" lon="-105.2308747">
  <ele>1593.56</ele>
  <time>2026-08-28T19:11:17Z</time>
  <course>83.6</course>
  <speed>0.31400636936215165</speed>
  <fix>3d</fix>
</trkpt>
<trkpt lat="40.0728487" lon="-105.2308743">
  <ele>1593.33</ele>
  <time>2026-08-28T19:11:17Z</time>
  <course>277.27</course>
  <speed>0.33</speed>
  <fix>3d</fix>
</trkpt>
<trkpt lat="40.0728488" lon="-105.2308748">
  <ele>1593.58</ele>
  <time>2026-08-28T19:11:17Z</time>
  <course>83.6</course>
  <speed>0.31400636936215165</speed>
  <fix>3d</fix>
</trkpt>
<trkpt lat="40.0728488" lon="-105.2308754">
  <ele>1593.68</ele>
  <time>2026-08-28T19:11:17Z</time>
  <course>83.67</course>
  <speed>0.31400636936215165</speed>
  <fix>3d</fix>
</trkpt>
<trkpt lat="40.0728487" lon="-105.230875">
  <ele>1593.45</ele>
  <time>2026-08-28T19:11:17Z</time>
  <course>277.37</course>
  <speed>0.33</speed>
  <fix>3d</fix>
</trkpt>
<trkpt lat="40.0728489" lon="-105.2308755">
  <ele>1593.7</ele>
  <time>2026-08-28T19:11:17Z</time>
  <course>83.68</course>
  <speed>0.31400636936215165</speed>
  <fix>3d</fix>
</trkpt>
<trkpt lat="40.0728489" lon="-105.2308762">
  <ele>1593.81</ele>
  <time>2026-08-28T19:11:17Z</time>
  <course>83.75</course>
  <speed>0.31400636936215165</speed>
  <fix>3d</fix>
</trkpt>
<trkpt lat="40.0728488" lon="-105.2308759">
  <ele>1593.58</ele>
  <time>2026-08-28T19:11:17Z</time>
  <course>277.4</course>
  <speed>0.33</speed>
  <fix>3d</fix>
</trkpt>
<trkpt lat="40.0728489" lon="-105.2308763">
  <ele>1593.83</ele>
  <time>2026-08-28T19:11:17Z</time>
  <course>83.76</course>
  <speed>0.31400636936215165</speed>
  <fix>3d</fix>
</trkpt>
<trkpt lat="40.072849" lon="-105.230877">
  <ele>1593.94</ele>
  <time>2026-08-28T19:11:17Z</time>
  <course>83.82</course>
  <speed>0.31575306807693887</speed>
  <fix>3d</fix>
</trkpt>
<trkpt lat="40.0728489" lon="-105.2308767">
  <ele>1593.7</ele>
  <time>2026-08-28T19:11:17Z</time>
  <course>277.45</course>
  <speed>0.32</speed>
  <fix>3d</fix>
</trkpt>
<trkpt lat="40.072849" lon="-105.230877">
  <ele>1593.94</ele>
  <time>2026-08-28T19:11:17Z</time>
  <course>83.82</course>
  <speed>0.31575306807693887</speed>
  <fix>3d</fix>
</trkpt>
<trkpt lat="40.0728491" lon="-105.2308777">
  <ele>1594.06</ele>
  <time>2026-08-28T19:11:17Z</time>
  <course>83.89</course>
  <speed>0.3059411708155671</speed>
  <fix>3d</fix>
</trkpt>
<trkpt lat="40.072849" lon="-105.2308774">
  <ele>1593.83</ele>
  <time>2026-08-28T19:11:17Z</time>
  <course>277.52</course>
  <speed>0.32</speed>
  <fix>3d</fix>
</trkpt>
<trkpt lat="40.0728491" lon="-105.2308778">
  <ele>1594.08</ele>
  <time>2026-08-28T19:11:17Z</time>
  <course>83.91</course>
  <speed>0.3059411708155671</speed>
  <fix>3d</fix>
</trkpt>
<trkpt lat="40.0728492" lon="-105.2308785">
  <ele>1594.19</ele>
  <time>2026-08-28T19:11:17Z</time>
  <course>83.96</course>
  <speed>0.3059411708155671</speed>
  <fix>3d</fix>
</trkpt>
<trkpt lat="40.0728491" lon="-105.2308782">
  <ele>1593.96</ele>
  <time>2026-08-28T19:11:17Z</time>
  <course>277.58</course>
  <speed>0.32</speed>
  <fix>3d</fix>
</trkpt>
<trkpt lat="40.0728492" lon="-105.2308786">
  <ele>1594.2</ele>
  <time>2026-08-28T19:11:17Z</time>
  <course>83.97</course>
  <speed>0.3059411708155671</speed>
  <fix>3d</fix>
</trkpt>
<trkpt lat="40.0728492" lon="-105.2308792">
  <ele>1594.31</ele>
  <time>2026-08-28T19:11:17Z</time>
  <course>84.03</course>
  <speed>0.3059411708155671</speed>
  <fix>3d</fix>
</trkpt>
<trkpt lat="40.0728492" lon="-105.2308789">
  <ele>1594.08</ele>
  <time>2026-08-28T19:11:17Z</time>
  <course>277.69</course>
  <speed>0.32</speed>
  <fix>3d</fix>
</trkpt>
<trkpt lat="40.0728493" lon="-105.2308793">
  <ele>1594.33</ele>
  <time>2026-08-28T19:11:17Z</time>
  <course>84.04</course>
  <speed>0.3059411708155671</speed>
  <fix>3d</fix>
</trkpt>
<trkpt lat="40.0728493" lon="-105.23088">
  <ele>1594.43</ele>
  <time>2026-08-28T19:11:17Z</time>
  <course>84.09</course>
  <speed>0.29614185789921693</speed>
  <fix>3d</fix>
</trkpt>
<trkpt lat="40.0728492" lon="-105.2308797">
  <ele>1594.21</ele>
  <time>2026-08-28T19:11:17Z</time>
  <course>277.82</course>
  <speed>0.31</speed>
  <fix>3d</fix>
</trkpt>
<trkpt lat="40.0728493" lon="-105.2308801">
  <ele>1594.45</ele>
  <time>2026-08-28T19:11:17Z</time>
  <course>84.1</course>
  <speed>0.29614185789921693</speed>
  <fix>3d</fix>
</trkpt>
<trkpt lat="40.0728494" lon="-105.2308807">
  <ele>1594.56</ele>
  <time>2026-08-28T19:11:17Z</time>
  <course>84.17</course>
  <speed>0.29614185789921693</speed>
  <fix>3d</fix>
</trkpt>
<trkpt lat="40.0728493" lon="-105.2308804">
  <ele>1594.33</ele>
  <time>2026-08-28T19:11:17Z</time>
  <course>277.97</course>
  <speed>0.31</speed>
  <fix>3d</fix>
</trkpt>
<trkpt lat="40.0728494" lon="-105.2308808">
  <ele>1594.58</ele>
  <time>2026-08-28T19:11:17Z</time>
  <course>84.18</course>
  <speed>0.29614185789921693</speed>
  <fix>3d</fix>
</trkpt>
<trkpt lat="40.0728495" lon="-105.2308814">
  <ele>1594.68</ele>
  <time>2026-08-28T19:11:17Z</time>
  <course>84.21</course>
  <speed>0.29614185789921693</speed>
  <fix>3d</fix>
</trkpt>
<trkpt lat="40.0728494" lon="-105.2308811">
  <ele>1594.46</ele>
  <time>2026-08-28T19:11:17Z</time>
  <course>278.11</course>
  <speed>0.31</speed>
  <fix>3d</fix>
</trkpt>
<trkpt lat="40.0728495" lon="-105.2308815">
  <ele>1594.7</ele>
  <time>2026-08-28T19:11:17Z</time>
  <course>84.23</course>
  <speed>0.29614185789921693</speed>
  <fix>3d</fix>
</trkpt>
<trkpt lat="40.0728496" lon="-105.2308821">
  <ele>1594.81</ele>
  <time>2026-08-28T19:11:17Z</time>
  <course>84.28</course>
  <speed>0.2863564212655271</speed>
  <fix>3d</fix>
</trkpt>
<trkpt lat="40.0728495" lon="-105.2308818">
  <ele>1594.59</ele>
  <time>2026-08-28T19:11:17Z</time>
  <course>278.21</course>
  <speed>0.3</speed>
  <fix>3d</fix>
</trkpt>
<trkpt lat="40.0728496" lon="-105.2308822">
  <ele>1594.83</ele>
  <time>2026-08-28T19:11:17Z</time>
  <course>84.28</course>
  <speed>0.2863564212655271</speed>
  <fix>3d</fix>
</trkpt>
<trkpt lat="40.0728497" lon="-105.2308828">
  <ele>1594.94</ele>
  <time>2026-08-28T19:11:17Z</time>
  <course>84.35</course>
  <speed>0.2863564212655271</speed>
  <fix>3d</fix>
</trkpt>
<trkpt lat="40.0728496" lon="-105.2308826">
  <ele>1594.71</ele>
  <time>2026-08-28T19:11:17Z</time>
  <course>278.39</course>
  <speed>0.3</speed>
  <fix>3d</fix>
</trkpt>
<trkpt lat="40.0728497" lon="-105.2308829">
  <ele>1594.95</ele>
  <time>2026-08-28T19:11:17Z</time>
  <course>84.36</course>
  <speed>0.2863564212655271</speed>
  <fix>3d</fix>
</trkpt>
<trkpt lat="40.0728498" lon="-105.2308835">
  <ele>1595.06</ele>
  <time>2026-08-28T19:11:17Z</time>
  <course>84.41</course>
  <speed>0.2863564212655271</speed>
  <fix>3d</fix>
</trkpt>
<trkpt lat="40.0728496" lon="-105.2308833">
  <ele>1594.84</ele>
  <time>2026-08-28T19:11:17Z</time>
  <course>278.61</course>
  <speed>0.3</speed>
  <fix>3d</fix>
</trkpt>
<trkpt lat="40.0728498" lon="-105.2308836">
  <ele>1595.06</ele>
  <time>2026-08-28T19:11:17Z</time>
  <course>84.41</course>
  <speed>0.2863564212655271</speed>
  <fix>3d</fix>
</trkpt>
<trkpt lat="40.0728498" lon="-105.2308842">
  <ele>1595.19</ele>
  <time>2026-08-28T19:11:17Z</time>
  <course>84.47</course>
  <speed>0.2765863337187866</speed>
  <fix>3d</fix>
</trkpt>
<trkpt lat="40.0728497" lon="-105.230884">
  <ele>1594.97</ele>
  <time>2026-08-28T19:11:17Z</time>
  <course>278.76</course>
  <speed>0.3</speed>
  <fix>3d</fix>
</trkpt>
<trkpt lat="40.0728499" lon="-105.2308849">
  <ele>1595.31</ele>
  <time>2026-08-28T19:11:17Z</time>
  <course>84.9</course>
  <speed>0.27892651361962706</speed>
  <fix>3d</fix>
</trkpt>
<trkpt lat="40.0728498" lon="-105.2308847">
  <ele>1595.09</ele>
  <time>2026-08-28T19:11:17Z</time>
  <course>279.2</course>
  <speed>0.29</speed>
  <fix>3d</fix>
</trkpt>
<trkpt lat="40.07285" lon="-105.2308856">
  <ele>1595.39</ele>
  <time>2026-08-28T19:11:17Z</time>
  <course>85.52</course>
  <speed>0.27892651361962706</speed>
  <fix>3d</fix>
</trkpt>
<trkpt lat="40.0728499" lon="-105.2308854">
  <ele>1595.2</ele>
  <time>2026-08-28T19:11:17Z</time>
  <course>279.67</course>
  <speed>0.29</speed>
  <fix>3d</fix>
</trkpt>
<trkpt lat="40.0728501" lon="-105.2308863">
  <ele>1595.45</ele>
  <time>2026-08-28T19:11:17Z</time>
  <course>85.81</course>
  <speed>0.2668332812825267</speed>
  <fix>3d</fix>
</trkpt>
<trkpt lat="40.07285" lon="-105.230886">
  <ele>1595.28</ele>
  <time>2026-08-28T19:11:17Z</time>
  <course>279.53</course>
  <speed>0.29</speed>
  <fix>3d</fix>
</trkpt>
<trkpt lat="40.0728502" lon="-105.2308869">
  <ele>1595.49</ele>
  <time>2026-08-28T19:11:17Z</time>
  <course>85.4</course>
  <speed>0.25495097567963926</speed>
  <fix>3d</fix>
</trkpt>
<trkpt lat="40.07285" lon="-105.2308867">
  <ele>1595.33</ele>
  <time>2026-08-28T19:11:17Z</time>
  <course>278.69</course>
  <speed>0.28</speed>
  <fix>3d</fix>
</trkpt>
<trkpt lat="40.0728503" lon="-105.2308876">
  <ele>1595.52</ele>
  <time>2026-08-28T19:11:17Z</time>
  <course>84.99</course>
  <speed>0.25495097567963926</speed>
  <fix>3d</fix>
</trkpt>
<trkpt lat="40.0728501" lon="-105.2308874">
  <ele>1595.37</ele>
  <time>2026-08-28T19:11:17Z</time>
  <course>277.75</course>
  <speed>0.27</speed>
  <fix>3d</fix>
</trkpt>
<trkpt lat="40.0728503" lon="-105.2308882">
  <ele>1595.54</ele>
  <time>2026-08-28T19:11:17Z</time>
  <course>84.81</course>
  <speed>0.24331050121192876</speed>
  <fix>3d</fix>
</trkpt>
<trkpt lat="40.0728502" lon="-105.2308879">
  <ele>1595.39</ele>
  <time>2026-08-28T19:11:17Z</time>
  <course>276.98</course>
  <speed>0.27</speed>
  <fix>3d</fix>
</trkpt>
<trkpt lat="40.0728504" lon="-105.2308888">
  <ele>1595.55</ele>
  <time>2026-08-28T19:11:17Z</time>
  <course>84.76</course>
  <speed>0.24331050121192876</speed>
  <fix>3d</fix>
</trkpt>
<trkpt lat="40.0728503" lon="-105.2308886">
  <ele>1595.4</ele>
  <time>2026-08-28T19:11:17Z</time>
  <course>276.05</course>
  <speed>0.26</speed>
  <fix>3d</fix>
</trkpt>
<trkpt lat="40.0728504" lon="-105.2308894">
  <ele>1595.56</ele>
  <time>2026-08-28T19:11:17Z</time>
  <course>84.75</course>
  <speed>0.23194827009486402</speed>
  <fix>3d</fix>
</trkpt>
<trkpt lat="40.0728503" lon="-105.2308893">
  <ele>1595.41</ele>
  <time>2026-08-28T19:11:17Z</time>
  <course>274.99</course>
  <speed>0.25</speed>
  <fix>3d</fix>
</trkpt>
<trkpt lat="40.0728504" lon="-105.23089">
  <ele>1595.56</ele>
  <time>2026-08-28T19:11:17Z</time>
  <course>84.76</course>
  <speed>0.23194827009486402</speed>
  <fix>3d</fix>
</trkpt>
<trkpt lat="40.0728504" lon="-105.2308898">
  <ele>1595.42</ele>
  <time>2026-08-28T19:11:17Z</time>
  <course>273.84</course>
  <speed>0.25</speed>
  <fix>3d</fix>
</trkpt>
<trkpt lat="40.0728505" lon="-105.2308906">
  <ele>1595.56</ele>
  <time>2026-08-28T19:11:17Z</time>
  <course>84.77</course>
  <speed>0.22090722034374521</speed>
  <fix>3d</fix>
</trkpt>
<trkpt lat="40.0728504" lon="-105.2308904">
  <ele>1595.42</ele>
  <time>2026-08-28T19:11:17Z</time>
  <course>272.71</course>
  <speed>0.24</speed>
  <fix>3d</fix>
</trkpt>
<trkpt lat="40.0728505" lon="-105.2308911">
  <ele>1595.56</ele>
  <time>2026-08-28T19:11:17Z</time>
  <course>84.78</course>
  <speed>0.2109502310972899</speed>
  <fix>3d</fix>
</trkpt>
<trkpt lat="40.0728504" lon="-105.2308909">
  <ele>1595.43</ele>
  <time>2026-08-28T19:11:17Z</time>
  <course>271.62</course>
  <speed>0.23</speed>
  <fix>3d</fix>
</trkpt>
<trkpt lat="40.0728505" lon="-105.2308917">
  <ele>1595.56</ele>
  <time>2026-08-28T19:11:17Z</time>
  <course>84.79</course>
  <speed>0.2109502310972899</speed>
  <fix>3d</fix>
</trkpt>
<trkpt lat="40.0728504" lon="-105.2308915">
  <ele>1595.43</ele>
  <time>2026-08-28T19:11:17Z</time>
  <course>270.53</course>
  <speed>0.23</speed>
  <fix>3d</fix>
</trkpt>
<trkpt lat="40.0728505" lon="-105.2308922">
  <ele>1595.56</ele>
  <time>2026-08-28T19:11:18Z</time>
  <course>84.8</course>
  <speed>0.2002498439450079</speed>
  <fix>3d</fix>
</trkpt>
<trkpt lat="40.0728504" lon="-105.2308921">
  <ele>1595.43</ele>
  <time>2026-08-28T19:11:18Z</time>
  <course>269.46</course>
  <speed>0.22</speed>
  <fix>3d</fix>
</trkpt>
<trkpt lat="40.0728505" lon="-105.2308927">
  <ele>1595.56</ele>
  <time>2026-08-28T19:11:18Z</time>
  <course>84.82</course>
  <speed>0.2002498439450079</speed>
  <fix>3d</fix>
</trkpt>
<trkpt lat="40.0728504" lon="-105.2308926">
  <ele>1595.43</ele>
  <time>2026-08-28T19:11:18Z</time>
  <course>268.38</course>
  <speed>0.22</speed>
  <fix>3d</fix>
</trkpt>
<trkpt lat="40.0728505" lon="-105.2308932">
  <ele>1595.57</ele>
  <time>2026-08-28T19:11:18Z</time>
  <course>84.83</course>
  <speed>0.19</speed>
  <fix>3d</fix>
</trkpt>
<trkpt lat="40.0728504" lon="-105.2308931">
  <ele>1595.43</ele>
  <time>2026-08-28T19:11:18Z</time>
  <course>267.27</course>
  <speed>0.21</speed>
  <fix>3d</fix>
</trkpt>
<trkpt lat="40.0728505" lon="-105.2308937">
  <ele>1595.57</ele>
  <time>2026-08-28T19:11:18Z</time>
  <course>84.85</course>
  <speed>0.19</speed>
  <fix>3d</fix>
</trkpt>
<trkpt lat="40.0728504" lon="-105.2308936">
  <ele>1595.43</ele>
  <time>2026-08-28T19:11:18Z</time>
  <course>266.14</course>
  <speed>0.21</speed>
  <fix>3d</fix>
</trkpt>
<trkpt lat="40.0728505" lon="-105.2308942">
  <ele>1595.56</ele>
  <time>2026-08-28T19:11:18Z</time>
  <course>84.86</course>
  <speed>0.18</speed>
  <fix>3d</fix>
</trkpt>
<trkpt lat="40.0728504" lon="-105.2308941">
  <ele>1595.44</ele>
  <time>2026-08-28T19:11:18Z</time>
  <course>265.05</course>
  <speed>0.2</speed>
  <fix>3d</fix>
</trkpt>
<trkpt lat="40.0728505" lon="-105.2308947">
  <ele>1595.56</ele>
  <time>2026-08-28T19:11:18Z</time>
  <course>84.86</course>
  <speed>0.18</speed>
  <fix>3d</fix>
</trkpt>
<trkpt lat="40.0728504" lon="-105.2308946">
  <ele>1595.44</ele>
  <time>2026-08-28T19:11:18Z</time>
  <course>263.97</course>
  <speed>0.2</speed>
  <fix>3d</fix>
</trkpt>
<trkpt lat="40.0728504" lon="-105.2308952">
  <ele>1595.56</ele>
  <time>2026-08-28T19:11:18Z</time>
  <course>84.85</course>
  <speed>0.17</speed>
  <fix>3d</fix>
</trkpt>
<trkpt lat="40.0728503" lon="-105.2308951">
  <ele>1595.44</ele>
  <time>2026-08-28T19:11:18Z</time>
  <course>262.93</course>
  <speed>0.19</speed>
  <fix>3d</fix>
</trkpt>
<trkpt lat="40.0728504" lon="-105.2308956">
  <ele>1595.56</ele>
  <time>2026-08-28T19:11:18Z</time>
  <course>84.48</course>
  <speed>0.17</speed>
  <fix>3d</fix>
</trkpt>
<trkpt lat="40.0728503" lon="-105.2308955">
  <ele>1595.44</ele>
  <time>2026-08-28T19:11:18Z</time>
  <course>261.57</course>
  <speed>0.19</speed>
  <fix>3d</fix>
</trkpt>
<trkpt lat="40.0728503" lon="-105.230896">
  <ele>1595.55</ele>
  <time>2026-08-28T19:11:18Z</time>
  <course>83.3</course>
  <speed>0.15033296378372907</speed>
  <fix>3d</fix>
</trkpt>
<trkpt lat="40.0728502" lon="-105.230896">
  <ele>1595.44</ele>
  <time>2026-08-28T19:11:18Z</time>
  <course>259.65</course>
  <speed>0.18</speed>
  <fix>3d</fix>
</trkpt>
<trkpt lat="40.0728503" lon="-105.2308964">
  <ele>1595.56</ele>
  <time>2026-08-28T19:11:18Z</time>
  <course>81.99</course>
  <speed>0.130384048104053</speed>
  <fix>3d</fix>
</trkpt>
<trkpt lat="40.0728502" lon="-105.2308963">
  <ele>1595.44</ele>
  <time>2026-08-28T19:11:18Z</time>
  <course>257.5</course>
  <speed>0.17</speed>
  <fix>3d</fix>
</trkpt>
<trkpt lat="40.0728502" lon="-105.2308968">
  <ele>1595.56</ele>
  <time>2026-08-28T19:11:18Z</time>
  <course>80.9</course>
  <speed>0.11045361017187261</speed>
  <fix>3d</fix>
</trkpt>
<trkpt lat="40.0728501" lon="-105.2308967">
  <ele>1595.45</ele>
  <time>2026-08-28T19:11:18Z</time>
  <course>255.23</course>
  <speed>0.15</speed>
  <fix>3d</fix>
</trkpt>
<trkpt lat="40.0728502" lon="-105.230897">
  <ele>1595.57</ele>
  <time>2026-08-28T19:11:18Z</time>
  <course>80.2</course>
  <speed>0.08062257748298549</speed>
  <fix>3d</fix>
</trkpt>
<trkpt lat="40.07285" lon="-105.230897">
  <ele>1595.45</ele>
  <time>2026-08-28T19:11:18Z</time>
  <course>252.83</course>
  <speed>0.12</speed>
  <fix>3d</fix>
</trkpt>
<trkpt lat="40.0728501" lon="-105.2308972">
  <ele>1595.57</ele>
  <time>2026-08-28T19:11:18Z</time>
  <course>79.96</course>
  <speed>0.06</speed>
  <fix>3d</fix>
</trkpt>
<trkpt lat="40.0728499" lon="-105.2308973">
  <ele>1595.45</ele>
  <time>2026-08-28T19:11:18Z</time>
  <course>250.14</course>
  <speed>0.1</speed>
  <fix>3d</fix>
</trkpt>
<trkpt lat="40.0728501" lon="-105.2308974">
  <ele>1595.58</ele>
  <time>2026-08-28T19:11:18Z</time>
  <course>80.19</course>
  <speed>0.03</speed>
  <fix>3d</fix>
</trkpt>
<trkpt lat="40.0728499" lon="-105.2308975">
  <ele>1595.45</ele>
  <time>2026-08-28T19:11:18Z</time>
  <course>246.66</course>
  <speed>0.07</speed>
  <fix>3d</fix>
</trkpt>
<trkpt lat="40.07285" lon="-105.2308975">
  <ele>1595.57</ele>
  <time>2026-08-28T19:11:18Z</time>
  <course>80.87</course>
  <speed>0.02</speed>
  <fix>3d</fix>
</trkpt>
<trkpt lat="40.0728499" lon="-105.2308976">
  <ele>1595.46</ele>
  <time>2026-08-28T19:11:18Z</time>
  <course>241.46</course>
  <speed>0.05</speed>
  <fix>3d</fix>
</trkpt>
<trkpt lat="40.07285" lon="-105.2308976">
  <ele>1595.57</ele>
  <time>2026-08-28T19:11:18Z</time>
  <course>81.96</course>
  <speed>0.0</speed>
  <fix>3d</fix>
</trkpt>
<trkpt lat="40.0728498" lon="-105.2308977">
  <ele>1595.45</ele>
  <time>2026-08-28T19:11:18Z</time>
  <course>233.65</course>
  <speed>0.03</speed>
  <fix>3d</fix>
</trkpt>
<trkpt lat="40.0728499" lon="-105.2308976">
  <ele>1595.57</ele>
  <time>2026-08-28T19:11:18Z</time>
  <course>83.32</course>
  <speed>0.0</speed>
  <fix>3d</fix>
</trkpt>
<trkpt lat="40.0728498" lon="-105.2308977">
  <ele>1595.45</ele>
  <time>2026-08-28T19:11:18Z</time>
  <course>221.47</course>
  <speed>0.02</speed>
  <fix>3d</fix>
</trkpt>
<trkpt lat="40.0728499" lon="-105.2308976">
  <ele>1595.57</ele>
  <time>2026-08-28T19:11:18Z</time>
  <course>84.83</course>
  <speed>0.01</speed>
  <fix>3d</fix>
</trkpt>
<trkpt lat="40.0728498" lon="-105.2308977">
  <ele>1595.45</ele>
  <time>2026-08-28T19:11:18Z</time>
  <course>202.05</course>
  <speed>0.02</speed>
  <fix>3d</fix>
</trkpt>
<trkpt lat="40.0728499" lon="-105.2308976">
  <ele>1595.57</ele>
  <time>2026-08-28T19:11:18Z</time>
  <course>86.29</course>
  <speed>0.01</speed>
  <fix>3d</fix>
</trkpt>
<trkpt lat="40.0728497" lon="-105.2308977">
  <ele>1595.45</ele>
  <time>2026-08-28T19:11:18Z</time>
  <course>182.31</course>
  <speed>0.01</speed>
  <fix>3d</fix>
</trkpt>
<trkpt lat="40.0728499" lon="-105.2308976">
  <ele>1595.56</ele>
  <time>2026-08-28T19:11:18Z</time>
  <course>87.63</course>
  <speed>0.01</speed>
  <fix>3d</fix>
</trkpt>
<trkpt lat="40.0728497" lon="-105.2308977">
  <ele>1595.45</ele>
  <time>2026-08-28T19:11:18Z</time>
  <course>169.78</course>
  <speed>0.01</speed>
  <fix>3d</fix>
</trkpt>
<trkpt lat="40.0728498" lon="-105.2308976">
  <ele>1595.56</ele>
  <time>2026-08-28T19:11:18Z</time>
  <course>88.76</course>
  <speed>0.01</speed>
  <fix>3d</fix>
</trkpt>
<trkpt lat="40.0728497" lon="-105.2308977">
  <ele>1595.45</ele>
  <time>2026-08-28T19:11:18Z</time>
  <course>164.05</course>
  <speed>0.02</speed>
  <fix>3d</fix>
</trkpt>
<trkpt lat="40.0728498" lon="-105.2308976">
  <ele>1595.56</ele>
  <time>2026-08-28T19:11:18Z</time>
  <course>89.47</course>
  <speed>0.01</speed>
  <fix>3d</fix>
</trkpt>
<trkpt lat="40.0728496" lon="-105.2308977">
  <ele>1595.45</ele>
  <time>2026-08-28T19:11:18Z</time>
  <course>164.18</course>
  <speed>0.02</speed>
  <fix>3d</fix>
</trkpt>
<trkpt lat="40.0728497" lon="-105.2308976">
  <ele>1595.56</ele>
  <time>2026-08-28T19:11:18Z</time>
  <course>89.7</course>
  <speed>0.01</speed>
  <fix>3d</fix>
</trkpt>
<trkpt lat="40.0728496" lon="-105.2308977">
  <ele>1595.46</ele>
  <time>2026-08-28T19:11:18Z</time>
  <course>168.06</course>
  <speed>0.02</speed>
  <fix>3d</fix>
</trkpt>
<trkpt lat="40.0728497" lon="-105.2308976">
  <ele>1595.55</ele>
  <time>2026-08-28T19:11:18Z</time>
  <course>89.48</course>
  <speed>0.01</speed>
  <fix>3d</fix>
</trkpt>
<trkpt lat="40.0728495" lon="-105.2308977">
  <ele>1595.46</ele>
  <time>2026-08-28T19:11:18Z</time>
  <course>173.29</course>
  <speed>0.02</speed>
  <fix>3d</fix>
</trkpt>
<trkpt lat="40.0728496" lon="-105.2308976">
  <ele>1595.56</ele>
  <time>2026-08-28T19:11:18Z</time>
  <course>88.77</course>
  <speed>0.01414213562373095</speed>
  <fix>3d</fix>
</trkpt>
<trkpt lat="40.0728494" lon="-105.2308977">
  <ele>1595.46</ele>
  <time>2026-08-28T19:11:18Z</time>
  <course>177.98</course>
  <speed>0.03</speed>
  <fix>3d</fix>
</trkpt>
<trkpt lat="40.0728496" lon="-105.2308976">
  <ele>1595.56</ele>
  <time>2026-08-28T19:11:18Z</time>
  <course>87.72</course>
  <speed>0.01414213562373095</speed>
  <fix>3d</fix>
</trkpt>
<trkpt lat="40.0728494" lon="-105.2308977">
  <ele>1595.46</ele>
  <time>2026-08-28T19:11:18Z</time>
  <course>181.21</course>
  <speed>0.03</speed>
  <fix>3d</fix>
</trkpt>
<trkpt lat="40.0728495" lon="-105.2308976">
  <ele>1595.56</ele>
  <time>2026-08-28T19:11:18Z</time>
  <course>86.36</course>
  <speed>0.01</speed>
  <fix>3d</fix>
</trkpt>
<trkpt lat="40.0728493" lon="-105.2308977">
  <ele>1595.47</ele>
  <time>2026-08-28T19:11:18Z</time>
  <course>183.72</course>
  <speed>0.03</speed>
  <fix>3d</fix>
</trkpt>
<trkpt lat="40.0728494" lon="-105.2308976">
  <ele>1595.56</ele>
  <time>2026-08-28T19:11:18Z</time>
  <course>84.88</course>
  <speed>0.01</speed>
  <fix>3d</fix>
</trkpt>
<trkpt lat="40.0728493" lon="-105.2308977">
  <ele>1595.47</ele>
  <time>2026-08-28T19:11:18Z</time>
  <course>186.49</course>
  <speed>0.03</speed>
  <fix>3d</fix>
</trkpt>
<trkpt lat="40.0728494" lon="-105.2308976">
  <ele>1595.57</ele>
  <time>2026-08-28T19:11:18Z</time>
  <course>83.37</course>
  <speed>0.01</speed>
  <fix>3d</fix>
</trkpt>
<trkpt lat="40.0728492" lon="-105.2308977">
  <ele>1595.47</ele>
  <time>2026-08-28T19:11:18Z</time>
  <course>189.5</course>
  <speed>0.03</speed>
  <fix>3d</fix>
</trkpt>
<trkpt lat="40.0728493" lon="-105.2308976">
  <ele>1595.57</ele>
  <time>2026-08-28T19:11:18Z</time>
  <course>81.98</course>
  <speed>0.01</speed>
  <fix>3d</fix>
</trkpt>
<trkpt lat="40.0728491" lon="-105.2308977">
  <ele>1595.48</ele>
  <time>2026-08-28T19:11:18Z</time>
  <course>192.2</course>
  <speed>0.03</speed>
  <fix>3d</fix>
</trkpt>
<trkpt lat="40.0728493" lon="-105.2308976">
  <ele>1595.57</ele>
  <time>2026-08-28T19:11:18Z</time>
  <course>80.88</course>
  <speed>0.0</speed>
  <fix>3d</fix>
</trkpt>
<trkpt lat="40.0728491" lon="-105.2308978">
  <ele>1595.48</ele>
  <time>2026-08-28T19:11:18Z</time>
  <course>194.56</course>
  <speed>0.03</speed>
  <fix>3d</fix>
</trkpt>
<trkpt lat="40.0728492" lon="-105.2308976">
  <ele>1595.57</ele>
  <time>2026-08-28T19:11:18Z</time>
  <course>80.16</course>
  <speed>0.0</speed>
  <fix>3d</fix>
</trkpt>
<trkpt lat="40.072849" lon="-105.2308979">
  <ele>1595.48</ele>
  <time>2026-08-28T19:11:18Z</time>
  <course>197.43</course>
  <speed>0.03</speed>
  <fix>3d</fix>
</trkpt>
<trkpt lat="40.0728492" lon="-105.2308977">
  <ele>1595.57</ele>
  <time>2026-08-28T19:11:18Z</time>
  <course>79.9</course>
  <speed>0.0</speed>
  <fix>3d</fix>
</trkpt>
<trkpt lat="40.072849" lon="-105.2308979">
  <ele>1595.48</ele>
  <time>2026-08-28T19:11:18Z</time>
  <course>201.69</course>
  <speed>0.02</speed>
  <fix>3d</fix>
</trkpt>
<trkpt lat="40.0728491" lon="-105.2308977">
  <ele>1595.57</ele>
  <time>2026-08-28T19:11:18Z</time>
  <course>80.11</course>
  <speed>0.0</speed>
  <fix>3d</fix>
</trkpt>
<trkpt lat="40.0728489" lon="-105.2308979">
  <ele>1595.48</ele>
  <time>2026-08-28T19:11:18Z</time>
  <course>206.66</course>
  <speed>0.02</speed>
  <fix>3d</fix>
</trkpt>
<trkpt lat="40.0728491" lon="-105.2308977">
  <ele>1595.57</ele>
  <time>2026-08-28T19:11:18Z</time>
  <course>80.76</course>
  <speed>0.0</speed>
  <fix>3d</fix>
</trkpt>
<trkpt lat="40.0728488" lon="-105.2308979">
  <ele>1595.49</ele>
  <time>2026-08-28T19:11:18Z</time>
  <course>211.4</course>
  <speed>0.02</speed>
  <fix>3d</fix>
</trkpt>
<trkpt lat="40.072849" lon="-105.2308978">
  <ele>1595.57</ele>
  <time>2026-08-28T19:11:18Z</time>
  <course>81.85</course>
  <speed>0.0</speed>
  <fix>3d</fix>
</trkpt>
<trkpt lat="40.0728488" lon="-105.230898">
  <ele>1595.49</ele>
  <time>2026-08-28T19:11:18Z</time>
  <course>215.47</course>
  <speed>0.02</speed>
  <fix>3d</fix>
</trkpt>
<trkpt lat="40.072849" lon="-105.2308978">
  <ele>1595.57</ele>
  <time>2026-08-28T19:11:18Z</time>
  <course>83.21</course>
  <speed>0.0</speed>
  <fix>3d</fix>
</trkpt>
<trkpt lat="40.0728488" lon="-105.230898">
  <ele>1595.49</ele>
  <time>2026-08-28T19:11:18Z</time>
  <course>218.1</course>
  <speed>0.02</speed>
  <fix>3d</fix>
</trkpt>
<trkpt lat="40.0728489" lon="-105.2308979">
  <ele>1595.57</ele>
  <time>2026-08-28T19:11:18Z</time>
  <course>84.73</course>
  <speed>0.0</speed>
  <fix>3d</fix>
</trkpt>
<trkpt lat="40.0728487" lon="-105.230898">
  <ele>1595.49</ele>
  <time>2026-08-28T19:11:18Z</time>
  <course>218.84</course>
  <speed>0.02</speed>
  <fix>3d</fix>
</trkpt>
<trkpt lat="40.0728489" lon="-105.2308979">
  <ele>1595.57</ele>
  <time>2026-08-28T19:11:18Z</time>
  <course>86.23</course>
  <speed>0.0</speed>
  <fix>3d</fix>
</trkpt>
<trkpt lat="40.0728487" lon="-105.230898">
  <ele>1595.49</ele>
  <time>2026-08-28T19:11:18Z</time>
  <course>218.75</course>
  <speed>0.02</speed>
  <fix>3d</fix>
</trkpt>
<trkpt lat="40.0728489" lon="-105.2308979">
  <ele>1595.57</ele>
  <time>2026-08-28T19:11:18Z</time>
  <course>87.59</course>
  <speed>0.0</speed>
  <fix>3d</fix>
</trkpt>
<trkpt lat="40.0728487" lon="-105.230898">
  <ele>1595.49</ele>
  <time>2026-08-28T19:11:18Z</time>
  <course>217.47</course>
  <speed>0.02</speed>
  <fix>3d</fix>
</trkpt>
<trkpt lat="40.0728488" lon="-105.230898">
  <ele>1595.57</ele>
  <time>2026-08-28T19:11:18Z</time>
  <course>88.72</course>
  <speed>0.0</speed>
  <fix>3d</fix>
</trkpt>
<trkpt lat="40.0728487" lon="-105.2308981">
  <ele>1595.49</ele>
  <time>2026-08-28T19:11:18Z</time>
  <course>215.18</course>
  <speed>0.02</speed>
  <fix>3d</fix>
</trkpt>
<trkpt lat="40.0728488" lon="-105.230898">
  <ele>1595.57</ele>
  <time>2026-08-28T19:11:18Z</time>
  <course>89.45</course>
  <speed>0.0</speed>
  <fix>3d</fix>
</trkpt>
<trkpt lat="40.0728486" lon="-105.2308982">
  <ele>1595.49</ele>
  <time>2026-08-28T19:11:18Z</time>
  <course>212.17</course>
  <speed>0.02</speed>
  <fix>3d</fix>
</trkpt>
<trkpt lat="40.0728487" lon="-105.230898">
  <ele>1595.57</ele>
  <time>2026-08-28T19:11:18Z</time>
  <course>89.71</course>
  <speed>0.0</speed>
  <fix>3d</fix>
</trkpt>
<trkpt lat="40.0728486" lon="-105.2308982">
  <ele>1595.49</ele>
  <time>2026-08-28T19:11:18Z</time>
  <course>208.12</course>
  <speed>0.02</speed>
  <fix>3d</fix>
</trkpt>
<trkpt lat="40.0728487" lon="-105.2308981">
  <ele>1595.57</ele>
  <time>2026-08-28T19:11:18Z</time>
  <course>89.5</course>
  <speed>0.0</speed>
  <fix>3d</fix>
</trkpt>
<trkpt lat="40.0728485" lon="-105.2308982">
  <ele>1595.49</ele>
  <time>2026-08-28T19:11:18Z</time>
  <course>203.45</course>
  <speed>0.02</speed>
  <fix>3d</fix>
</trkpt>
<trkpt lat="40.0728486" lon="-105.2308981">
  <ele>1595.57</ele>
  <time>2026-08-28T19:11:18Z</time>
  <course>88.83</course>
  <speed>0.01</speed>
  <fix>3d</fix>
</trkpt>
<trkpt lat="40.0728485" lon="-105.2308982">
  <ele>1595.49</ele>
  <time>2026-08-28T19:11:18Z</time>
  <course>199.25</course>
  <speed>0.03</speed>
  <fix>3d</fix>
</trkpt>
<trkpt lat="40.0728486" lon="-105.2308981">
  <ele>1595.57</ele>
  <time>2026-08-28T19:11:18Z</time>
  <course>87.74</course>
  <speed>0.01</speed>
  <fix>3d</fix>
</trkpt>
<trkpt lat="40.0728484" lon="-105.2308982">
  <ele>1595.49</ele>
  <time>2026-08-28T19:11:18Z</time>
  <course>196.7</course>
  <speed>0.03</speed>
  <fix>3d</fix>
</trkpt>
<trkpt lat="40.0728485" lon="-105.2308981">
  <ele>1595.57</ele>
  <time>2026-08-28T19:11:18Z</time>
  <course>86.39</course>
  <speed>0.01</speed>
  <fix>3d</fix>
</trkpt>
<trkpt lat="40.0728484" lon="-105.2308982">
  <ele>1595.5</ele>
  <time>2026-08-28T19:11:18Z</time>
  <course>195.16</course>
  <speed>0.03</speed>
  <fix>3d</fix>
</trkpt>
<trkpt lat="40.0728485" lon="-105.2308981">
  <ele>1595.57</ele>
  <time>2026-08-28T19:11:18Z</time>
  <course>84.9</course>
  <speed>0.01</speed>
  <fix>3d</fix>
</trkpt>
<trkpt lat="40.0728483" lon="-105.2308983">
  <ele>1595.5</ele>
  <time>2026-08-28T19:11:18Z</time>
  <course>193.74</course>
  <speed>0.03</speed>
  <fix>3d</fix>
</trkpt>
<trkpt lat="40.0728484" lon="-105.2308981">
  <ele>1595.57</ele>
  <time>2026-08-28T19:11:18Z</time>
  <course>83.39</course>
  <speed>0.01</speed>
  <fix>3d</fix>
</trkpt>
<trkpt lat="40.0728482" lon="-105.2308984">
  <ele>1595.5</ele>
  <time>2026-08-28T19:11:18Z</time>
  <course>192.97</course>
  <speed>0.02</speed>
  <fix>3d</fix>
</trkpt>
<trkpt lat="40.0728484" lon="-105.2308982">
  <ele>1595.57</ele>
  <time>2026-08-28T19:11:18Z</time>
  <course>82.02</course>
  <speed>0.0</speed>
  <fix>3d</fix>
</trkpt>
<trkpt lat="40.0728482" lon="-105.2308984">
  <ele>1595.5</ele>
  <time>2026-08-28T19:11:18Z</time>
  <course>193.21</course>
  <speed>0.02</speed>
  <fix>3d</fix>
</trkpt>
<trkpt lat="40.0728483" lon="-105.2308982">
  <ele>1595.57</ele>
  <time>2026-08-28T19:11:18Z</time>
  <course>80.92</course>
  <speed>0.0</speed>
  <fix>3d</fix>
</trkpt>
<trkpt lat="40.0728481" lon="-105.2308984">
  <ele>1595.5</ele>
  <time>2026-08-28T19:11:18Z</time>
  <course>194.92</course>
  <speed>0.02</speed>
  <fix>3d</fix>
</trkpt>
<trkpt lat="40.0728483" lon="-105.2308982">
  <ele>1595.57</ele>
  <time>2026-08-28T19:11:18Z</time>
  <course>80.21</course>
  <speed>0.0</speed>
  <fix>3d</fix>
</trkpt>
<trkpt lat="40.0728481" lon="-105.2308984">
  <ele>1595.5</ele>
  <time>2026-08-28T19:11:18Z</time>
  <course>197.96</course>
  <speed>0.02</speed>
  <fix>3d</fix>
</trkpt>
<trkpt lat="40.0728482" lon="-105.2308982">
  <ele>1595.57</ele>
  <time>2026-08-28T19:11:18Z</time>
  <course>79.94</course>
  <speed>0.0</speed>
  <fix>3d</fix>
</trkpt>
<trkpt lat="40.0728481" lon="-105.2308984">
  <ele>1595.5</ele>
  <time>2026-08-28T19:11:18Z</time>
  <course>201.67</course>
  <speed>0.02</speed>
  <fix>3d</fix>
</trkpt>
<trkpt lat="40.0728482" lon="-105.2308983">
  <ele>1595.57</ele>
  <time>2026-08-28T19:11:18Z</time>
  <course>80.15</course>
  <speed>0.0</speed>
  <fix>3d</fix>
</trkpt>
<trkpt lat="40.0728481" lon="-105.2308984">
  <ele>1595.5</ele>
  <time>2026-08-28T19:11:18Z</time>
  <course>205.87</course>
  <speed>0.02</speed>
  <fix>3d</fix>
</trkpt>
<trkpt lat="40.0728482" lon="-105.2308983">
  <ele>1595.57</ele>
  <time>2026-08-28T19:11:18Z</time>
  <course>80.81</course>
  <speed>0.0</speed>
  <fix>3d</fix>
</trkpt>
<trkpt lat="40.072848" lon="-105.2308985">
  <ele>1595.5</ele>
  <time>2026-08-28T19:11:18Z</time>
  <course>209.26</course>
  <speed>0.01</speed>
  <fix>3d</fix>
</trkpt>
<trkpt lat="40.0728481" lon="-105.2308983">
  <ele>1595.58</ele>
  <time>2026-08-28T19:11:18Z</time>
  <course>81.93</course>
  <speed>0.0</speed>
  <fix>3d</fix>
</trkpt>
<trkpt lat="40.072848" lon="-105.2308985">
  <ele>1595.5</ele>
  <time>2026-08-28T19:11:18Z</time>
  <course>212.6</course>
  <speed>0.01</speed>
  <fix>3d</fix>
</trkpt>
<trkpt lat="40.0728481" lon="-105.2308984">
  <ele>1595.58</ele>
  <time>2026-08-28T19:11:18Z</time>
  <course>83.3</course>
  <speed>0.0</speed>
  <fix>3d</fix>
</trkpt>
<trkpt lat="40.072848" lon="-105.2308985">
  <ele>1595.5</ele>
  <time>2026-08-28T19:11:18Z</time>
  <course>216.85</course>
  <speed>0.01</speed>
  <fix>3d</fix>
</trkpt>
<trkpt lat="40.0728481" lon="-105.2308984">
  <ele>1595.58</ele>
  <time>2026-08-28T19:11:18Z</time>
  <course>84.81</course>
  <speed>0.0</speed>
  <fix>3d</fix>
</trkpt>
<trkpt lat="40.072848" lon="-105.2308985">
  <ele>1595.5</ele>
  <time>2026-08-28T19:11:18Z</time>
  <course>220.92</course>
  <speed>0.02</speed>
  <fix>3d</fix>
</trkpt>
<trkpt lat="40.0728481" lon="-105.2308984">
  <ele>1595.58</ele>
  <time>2026-08-28T19:11:18Z</time>
  <course>86.29</course>
  <speed>0.0</speed>
  <fix>3d</fix>
</trkpt>
<trkpt lat="40.0728479" lon="-105.2308985">
  <ele>1595.5</ele>
  <time>2026-08-28T19:11:18Z</time>
  <course>222.58</course>
  <speed>0.02</speed>
  <fix>3d</fix>
</trkpt>
<trkpt lat="40.0728481" lon="-105.2308985">
  <ele>1595.58</ele>
  <time>2026-08-28T19:11:18Z</time>
  <course>87.68</course>
  <speed>0.0</speed>
  <fix>3d</fix>
</trkpt>
<trkpt lat="40.0728479" lon="-105.2308985">
  <ele>1595.5</ele>
  <time>2026-08-28T19:11:18Z</time>
  <course>220.95</course>
  <speed>0.02</speed>
  <fix>3d</fix>
</trkpt>
<trkpt lat="40.072848" lon="-105.2308985">
  <ele>1595.57</ele>
  <time>2026-08-28T19:11:18Z</time>
  <course>88.78</course>
  <speed>0.0</speed>
  <fix>3d</fix>
</trkpt>
<trkpt lat="40.0728479" lon="-105.2308986">
  <ele>1595.5</ele>
  <time>2026-08-28T19:11:18Z</time>
  <course>217.65</course>
  <speed>0.02</speed>
  <fix>3d</fix>
</trkpt>
<trkpt lat="40.072848" lon="-105.2308985">
  <ele>1595.57</ele>
  <time>2026-08-28T19:11:18Z</time>
  <course>89.49</course>
  <speed>0.0</speed>
  <fix>3d</fix>
</trkpt>
<trkpt lat="40.0728478" lon="-105.2308987">
  <ele>1595.5</ele>
  <time>2026-08-28T19:11:18Z</time>
  <course>213.86</course>
  <speed>0.02</speed>
  <fix>3d</fix>
</trkpt>
<trkpt lat="40.0728479" lon="-105.2308986">
  <ele>1595.57</ele>
  <time>2026-08-28T19:11:18Z</time>
  <course>89.74</course>
  <speed>0.0</speed>
  <fix>3d</fix>
</trkpt>
<trkpt lat="40.0728478" lon="-105.2308987">
  <ele>1595.5</ele>
  <time>2026-08-28T19:11:18Z</time>
  <course>209.43</course>
  <speed>0.02</speed>
  <fix>3d</fix>
</trkpt>
<trkpt lat="40.0728479" lon="-105.2308986">
  <ele>1595.56</ele>
  <time>2026-08-28T19:11:18Z</time>
  <course>89.52</course>
  <speed>0.01</speed>
  <fix>3d</fix>
</trkpt>
<trkpt lat="40.0728477" lon="-105.2308987">
  <ele>1595.5</ele>
  <time>2026-08-28T19:11:18Z</time>
  <course>204.74</course>
  <speed>0.03</speed>
  <fix>3d</fix>
</trkpt>
<trkpt lat="40.0728478" lon="-105.2308986">
  <ele>1595.56</ele>
  <time>2026-08-28T19:11:18Z</time>
  <course>88.8</course>
  <speed>0.01</speed>
  <fix>3d</fix>
</trkpt>
<trkpt lat="40.0728476" lon="-105.2308987">
  <ele>1595.5</ele>
  <time>2026-08-28T19:11:18Z</time>
  <course>199.96</course>
  <speed>0.03</speed>
  <fix>3d</fix>
</trkpt>
<trkpt lat="40.0728478" lon="-105.2308986">
  <ele>1595.55</ele>
  <time>2026-08-28T19:11:18Z</time>
  <course>87.75</course>
  <speed>0.01</speed>
  <fix>3d</fix>
</trkpt>
<trkpt lat="40.0728476" lon="-105.2308987">
  <ele>1595.5</ele>
  <time>2026-08-28T19:11:18Z</time>
  <course>195.48</course>
  <speed>0.03</speed>
  <fix>3d</fix>
</trkpt>
<trkpt lat="40.0728477" lon="-105.2308986">
  <ele>1595.55</ele>
  <time>2026-08-28T19:11:18Z</time>
  <course>86.39</course>
  <speed>0.01</speed>
  <fix>3d</fix>
</trkpt>
<trkpt lat="40.0728475" lon="-105.2308987">
  <ele>1595.5</ele>
  <time>2026-08-28T19:11:18Z</time>
  <course>192.31</course>
  <speed>0.03</speed>
  <fix>3d</fix>
</trkpt>
<trkpt lat="40.0728476" lon="-105.2308986">
  <ele>1595.56</ele>
  <time>2026-08-28T19:11:18Z</time>
  <course>84.91</course>
  <speed>0.01</speed>
  <fix>3d</fix>
</trkpt>
<trkpt lat="40.0728475" lon="-105.2308987">
  <ele>1595.5</ele>
  <time>2026-08-28T19:11:18Z</time>
  <course>190.65</course>
  <speed>0.03</speed>
  <fix>3d</fix>
</trkpt>
<trkpt lat="40.0728476" lon="-105.2308986">
  <ele>1595.56</ele>
  <time>2026-08-28T19:11:18Z</time>
  <course>83.38</course>
  <speed>0.01</speed>
  <fix>3d</fix>
</trkpt>
<trkpt lat="40.0728474" lon="-105.2308988">
  <ele>1595.51</ele>
  <time>2026-08-28T19:11:18Z</time>
  <course>190.46</course>
  <speed>0.03</speed>
  <fix>3d</fix>
</trkpt>
<trkpt lat="40.0728475" lon="-105.2308987">
  <ele>1595.57</ele>
  <time>2026-08-28T19:11:18Z</time>
  <course>82.02</course>
  <speed>0.01</speed>
  <fix>3d</fix>
</trkpt>
<trkpt lat="40.0728474" lon="-105.2308989">
  <ele>1595.51</ele>
  <time>2026-08-28T19:11:18Z</time>
  <course>191.7</course>
  <speed>0.03</speed>
  <fix>3d</fix>
</trkpt>
<trkpt lat="40.0728475" lon="-105.2308987">
  <ele>1595.58</ele>
  <time>2026-08-28T19:11:18Z</time>
  <course>80.92</course>
  <speed>0.0</speed>
  <fix>3d</fix>
</trkpt>
<trkpt lat="40.0728473" lon="-105.2308989">
  <ele>1595.51</ele>
  <time>2026-08-28T19:11:18Z</time>
  <course>193.38</course>
  <speed>0.02</speed>
  <fix>3d</fix>
</trkpt>
<trkpt lat="40.0728474" lon="-105.2308987">
  <ele>1595.59</ele>
  <time>2026-08-28T19:11:18Z</time>
  <course>80.23</course>
  <speed>0.0</speed>
  <fix>3d</fix>
</trkpt>
<trkpt lat="40.0728473" lon="-105.2308989">
  <ele>1595.51</ele>
  <time>2026-08-28T19:11:18Z</time>
  <course>194.85</course>
  <speed>0.02</speed>
  <fix>3d</fix>
</trkpt>
<trkpt lat="40.0728474" lon="-105.2308987">
  <ele>1595.59</ele>
  <time>2026-08-28T19:11:18Z</time>
  <course>80.0</course>
  <speed>0.0</speed>
  <fix>3d</fix>
</trkpt>
<trkpt lat="40.0728473" lon="-105.2308989">
  <ele>1595.52</ele>
  <time>2026-08-28T19:11:18Z</time>
  <course>197.01</course>
  <speed>0.02</speed>
  <fix>3d</fix>
</trkpt>
<trkpt lat="40.0728474" lon="-105.2308987">
  <ele>1595.59</ele>
  <time>2026-08-28T19:11:18Z</time>
  <course>80.24</course>
  <speed>0.0</speed>
  <fix>3d</fix>
</trkpt>
<trkpt lat="40.0728472" lon="-105.2308989">
  <ele>1595.51</ele>
  <time>2026-08-28T19:11:18Z</time>
  <course>200.96</course>
  <speed>0.02</speed>
  <fix>3d</fix>
</trkpt>
<trkpt lat="40.0728473" lon="-105.2308988">
  <ele>1595.59</ele>
  <time>2026-08-28T19:11:18Z</time>
  <course>80.91</course>
  <speed>0.0</speed>
  <fix>3d</fix>
</trkpt>
<trkpt lat="40.0728472" lon="-105.2308989">
  <ele>1595.51</ele>
  <time>2026-08-28T19:11:18Z</time>
  <course>205.82</course>
  <speed>0.01</speed>
  <fix>3d</fix>
</trkpt>
<trkpt lat="40.0728473" lon="-105.2308988">
  <ele>1595.59</ele>
  <time>2026-08-28T19:11:18Z</time>
  <course>81.97</course>
  <speed>0.0</speed>
  <fix>3d</fix>
</trkpt>
<trkpt lat="40.0728472" lon="-105.2308989">
  <ele>1595.51</ele>
  <time>2026-08-28T19:11:18Z</time>
  <course>209.55</course>
  <speed>0.01</speed>
  <fix>3d</fix>
</trkpt>
<trkpt lat="40.0728473" lon="-105.2308988">
  <ele>1595.58</ele>
  <time>2026-08-28T19:11:18Z</time>
  <course>83.32</course>
  <speed>0.0</speed>
  <fix>3d</fix>
</trkpt>
<trkpt lat="40.0728471" lon="-105.2308989">
  <ele>1595.5</ele>
  <time>2026-08-28T19:11:18Z</time>
  <course>211.78</course>
  <speed>0.01</speed>
  <fix>3d</fix>
</trkpt>
<trkpt lat="40.0728473" lon="-105.2308988">
  <ele>1595.58</ele>
  <time>2026-08-28T19:11:18Z</time>
  <course>84.82</course>
  <speed>0.0</speed>
  <fix>3d</fix>
</trkpt>
<trkpt lat="40.0728471" lon="-105.2308989">
  <ele>1595.5</ele>
  <time>2026-08-28T19:11:18Z</time>
  <course>212.58</course>
  <speed>0.01</speed>
  <fix>3d</fix>
</trkpt>
<trkpt lat="40.0728472" lon="-105.2308988">
  <ele>1595.57</ele>
  <time>2026-08-28T19:11:18Z</time>
  <course>86.31</course>
  <speed>0.0</speed>
  <fix>3d</fix>
</trkpt>
<trkpt lat="40.0728471" lon="-105.2308989">
  <ele>1595.49</ele>
  <time>2026-08-28T19:11:18Z</time>
  <course>211.59</course>
  <speed>0.01</speed>
  <fix>3d</fix>
</trkpt>
<trkpt lat="40.0728472" lon="-105.2308989">
  <ele>1595.57</ele>
  <time>2026-08-28T19:11:18Z</time>
  <course>87.68</course>
  <speed>0.0</speed>
  <fix>3d</fix>
</trkpt>
<trkpt lat="40.072847" lon="-105.230899">
  <ele>1595.49</ele>
  <time>2026-08-28T19:11:18Z</time>
  <course>209.76</course>
  <speed>0.01</speed>
  <fix>3d</fix>
</trkpt>
<trkpt lat="40.0728472" lon="-105.2308989">
  <ele>1595.57</ele>
  <time>2026-08-28T19:11:18Z</time>
  <course>88.79</course>
  <speed>0.0</speed>
  <fix>3d</fix>
</trkpt>
<trkpt lat="40.0728469" lon="-105.2308991">
  <ele>1595.49</ele>
  <time>2026-08-28T19:11:18Z</time>
  <course>208.56</course>
  <speed>0.02</speed>
  <fix>3d</fix>
</trkpt>
<trkpt lat="40.0728471" lon="-105.2308989">
  <ele>1595.57</ele>
  <time>2026-08-28T19:11:18Z</time>
  <course>89.5</course>
  <speed>0.0</speed>
  <fix>3d</fix>
</trkpt>
<trkpt lat="40.0728469" lon="-105.2308991">
  <ele>1595.49</ele>
  <time>2026-08-28T19:11:18Z</time>
  <course>207.34</course>
  <speed>0.02</speed>
  <fix>3d</fix>
</trkpt>
<trkpt lat="40.0728471" lon="-105.2308989">
  <ele>1595.57</ele>
  <time>2026-08-28T19:11:18Z</time>
  <course>89.77</course>
  <speed>0.0</speed>
  <fix>3d</fix>
</trkpt>
<trkpt lat="40.0728469" lon="-105.2308991">
  <ele>1595.49</ele>
  <time>2026-08-28T19:11:18Z</time>
  <course>204.2</course>
  <speed>0.02</speed>
  <fix>3d</fix>
</trkpt>
<trkpt lat="40.072847" lon="-105.230899">
  <ele>1595.57</ele>
  <time>2026-08-28T19:11:18Z</time>
  <course>89.55</course>
  <speed>0.01</speed>
  <fix>3d</fix>
</trkpt>
<trkpt lat="40.0728468" lon="-105.2308991">
  <ele>1595.48</ele>
  <time>2026-08-28T19:11:18Z</time>
  <course>200.47</course>
  <speed>0.02</speed>
  <fix>3d</fix>
</trkpt>
<trkpt lat="40.072847" lon="-105.230899">
  <ele>1595.57</ele>
  <time>2026-08-28T19:11:18Z</time>
  <course>88.9</course>
  <speed>0.01</speed>
  <fix>3d</fix>
</trkpt>
<trkpt lat="40.0728468" lon="-105.2308992">
  <ele>1595.48</ele>
  <time>2026-08-28T19:11:18Z</time>
  <course>197.92</course>
  <speed>0.03</speed>
  <fix>3d</fix>
</trkpt>
<trkpt lat="40.0728469" lon="-105.230899">
  <ele>1595.57</ele>
  <time>2026-08-28T19:11:18Z</time>
  <course>87.8</course>
  <speed>0.01</speed>
  <fix>3d</fix>
</trkpt>
<trkpt lat="40.0728468" lon="-105.2308992">
  <ele>1595.48</ele>
  <time>2026-08-28T19:11:18Z</time>
  <course>195.79</course>
  <speed>0.03</speed>
  <fix>3d</fix>
</trkpt>
<trkpt lat="40.0728468" lon="-105.230899">
  <ele>1595.57</ele>
  <time>2026-08-28T19:11:18Z</time>
  <course>86.43</course>
  <speed>0.01</speed>
  <fix>3d</fix>
</trkpt>
<trkpt lat="40.0728467" lon="-105.2308992">
  <ele>1595.48</ele>
  <time>2026-08-28T19:11:18Z</time>
  <course>193.83</course>
  <speed>0.03</speed>
  <fix>3d</fix>
</trkpt>
<trkpt lat="40.0728468" lon="-105.2308991">
  <ele>1595.57</ele>
  <time>2026-08-28T19:11:18Z</time>
  <course>84.93</course>
  <speed>0.01</speed>
  <fix>3d</fix>
</trkpt>
<trkpt lat="40.0728467" lon="-105.2308992">
  <ele>1595.48</ele>
  <time>2026-08-28T19:11:18Z</time>
  <course>192.1</course>
  <speed>0.03</speed>
  <fix>3d</fix>
</trkpt>
<trkpt lat="40.0728467" lon="-105.2308991">
  <ele>1595.58</ele>
  <time>2026-08-28T19:11:18Z</time>
  <course>83.44</course>
  <speed>0.01</speed>
  <fix>3d</fix>
</trkpt>
<trkpt lat="40.0728466" lon="-105.2308992">
  <ele>1595.48</ele>
  <time>2026-08-28T19:11:18Z</time>
  <course>190.92</course>
  <speed>0.03</speed>
  <fix>3d</fix>
</trkpt>
<trkpt lat="40.0728467" lon="-105.2308991">
  <ele>1595.58</ele>
  <time>2026-08-28T19:11:18Z</time>
  <course>82.09</course>
  <speed>0.0</speed>
  <fix>3d</fix>
</trkpt>
<trkpt lat="40.0728466" lon="-105.2308992">
  <ele>1595.48</ele>
  <time>2026-08-28T19:11:18Z</time>
  <course>190.48</course>
  <speed>0.02</speed>
  <fix>3d</fix>
</trkpt>
<trkpt lat="40.0728467" lon="-105.2308991">
  <ele>1595.58</ele>
  <time>2026-08-28T19:11:18Z</time>
  <course>80.99</course>
  <speed>0.0</speed>
  <fix>3d</fix>
</trkpt>
<trkpt lat="40.0728465" lon="-105.2308992">
  <ele>1595.48</ele>
  <time>2026-08-28T19:11:18Z</time>
  <course>191.26</course>
  <speed>0.02</speed>
  <fix>3d</fix>
</trkpt>
<trkpt lat="40.0728466" lon="-105.2308991">
  <ele>1595.58</ele>
  <time>2026-08-28T19:11:18Z</time>
  <course>80.26</course>
  <speed>0.0</speed>
  <fix>3d</fix>
</trkpt>
<trkpt lat="40.0728465" lon="-105.2308992">
  <ele>1595.47</ele>
  <time>2026-08-28T19:11:18Z</time>
  <course>194.04</course>
  <speed>0.02</speed>
  <fix>3d</fix>
</trkpt>
<trkpt lat="40.0728466" lon="-105.2308991">
  <ele>1595.58</ele>
  <time>2026-08-28T19:11:18Z</time>
  <course>80.0</course>
  <speed>0.0</speed>
  <fix>3d</fix>
</trkpt>
<trkpt lat="40.0728464" lon="-105.2308992">
  <ele>1595.47</ele>
  <time>2026-08-28T19:11:18Z</time>
  <course>198.04</course>
  <speed>0.02</speed>
  <fix>3d</fix>
</trkpt>
<trkpt lat="40.0728466" lon="-105.2308991">
  <ele>1595.58</ele>
  <time>2026-08-28T19:11:18Z</time>
  <course>80.21</course>
  <speed>0.0</speed>
  <fix>3d</fix>
</trkpt>
<trkpt lat="40.0728463" lon="-105.2308992">
  <ele>1595.47</ele>
  <time>2026-08-28T19:11:18Z</time>
  <course>201.4</course>
  <speed>0.02</speed>
  <fix>3d</fix>
</trkpt>
<trkpt lat="40.0728465" lon="-105.2308991">
  <ele>1595.58</ele>
  <time>2026-08-28T19:11:18Z</time>
  <course>80.88</course>
  <speed>0.0</speed>
  <fix>3d</fix>
</trkpt>
<trkpt lat="40.0728463" lon="-105.2308992">
  <ele>1595.47</ele>
  <time>2026-08-28T19:11:18Z</time>
  <course>205.04</course>
  <speed>0.01</speed>
  <fix>3d</fix>
</trkpt>
<trkpt lat="40.0728465" lon="-105.2308992">
  <ele>1595.58</ele>
  <time>2026-08-28T19:11:18Z</time>
  <course>81.96</course>
  <speed>0.0</speed>
  <fix>3d</fix>
</trkpt>
<trkpt lat="40.0728463" lon="-105.2308993">
  <ele>1595.46</ele>
  <time>2026-08-28T19:11:18Z</time>
  <course>210.12</course>
  <speed>0.01</speed>
  <fix>3d</fix>
</trkpt>
<trkpt lat="40.0728465" lon="-105.2308992">
  <ele>1595.57</ele>
  <time>2026-08-28T19:11:18Z</time>
  <course>83.32</course>
  <speed>0.0</speed>
  <fix>3d</fix>
</trkpt>
<trkpt lat="40.0728462" lon="-105.2308994">
  <ele>1595.46</ele>
  <time>2026-08-28T19:11:18Z</time>
  <course>214.16</course>
  <speed>0.01</speed>
  <fix>3d</fix>
</trkpt>
<trkpt lat="40.0728464" lon="-105.2308992">
  <ele>1595.56</ele>
  <time>2026-08-28T19:11:18Z</time>
  <course>84.82</course>
  <speed>0.0</speed>
  <fix>3d</fix>
</trkpt>
<trkpt lat="40.0728462" lon="-105.2308994">
  <ele>1595.46</ele>
  <time>2026-08-28T19:11:18Z</time>
  <course>216.05</course>
  <speed>0.01</speed>
  <fix>3d</fix>
</trkpt>
<trkpt lat="40.0728464" lon="-105.2308993">
  <ele>1595.56</ele>
  <time>2026-08-28T19:11:18Z</time>
  <course>86.29</course>
  <speed>0.0</speed>
  <fix>3d</fix>
</trkpt>
<trkpt lat="40.0728462" lon="-105.2308994">
  <ele>1595.46</ele>
  <time>2026-08-28T19:11:18Z</time>
  <course>216.27</course>
  <speed>0.02</speed>
  <fix>3d</fix>
</trkpt>
<trkpt lat="40.0728463" lon="-105.2308993">
  <ele>1595.55</ele>
  <time>2026-08-28T19:11:18Z</time>
  <course>87.62</course>
  <speed>0.0</speed>
  <fix>3d</fix>
</trkpt>
<trkpt lat="40.0728462" lon="-105.2308994">
  <ele>1595.46</ele>
  <time>2026-08-28T19:11:18Z</time>
  <course>213.91</course>
  <speed>0.02</speed>
  <fix>3d</fix>
</trkpt>
<trkpt lat="40.0728463" lon="-105.2308993">
  <ele>1595.56</ele>
  <time>2026-08-28T19:11:18Z</time>
  <course>88.74</course>
  <speed>0.0</speed>
  <fix>3d</fix>
</trkpt>
<trkpt lat="40.0728462" lon="-105.2308994">
  <ele>1595.46</ele>
  <time>2026-08-28T19:11:18Z</time>
  <course>209.59</course>
  <speed>0.02</speed>
  <fix>3d</fix>
</trkpt>
<trkpt lat="40.0728463" lon="-105.2308993">
  <ele>1595.56</ele>
  <time>2026-08-28T19:11:18Z</time>
  <course>89.47</course>
  <speed>0.0</speed>
  <fix>3d</fix>
</trkpt>
<trkpt lat="40.0728461" lon="-105.2308994">
  <ele>1595.46</ele>
  <time>2026-08-28T19:11:18Z</time>
  <course>205.8</course>
  <speed>0.02</speed>
  <fix>3d</fix>
</trkpt>
<trkpt lat="40.0728462" lon="-105.2308994">
  <ele>1595.56</ele>
  <time>2026-08-28T19:11:18Z</time>
  <course>89.74</course>
  <speed>0.0</speed>
  <fix>3d</fix>
</trkpt>
<trkpt lat="40.0728461" lon="-105.2308995">
  <ele>1595.46</ele>
  <time>2026-08-28T19:11:18Z</time>
  <course>202.67</course>
  <speed>0.02</speed>
  <fix>3d</fix>
</trkpt>
<trkpt lat="40.0728462" lon="-105.2308994">
  <ele>1595.56</ele>
  <time>2026-08-28T19:11:18Z</time>
  <course>89.52</course>
  <speed>0.01</speed>
  <fix>3d</fix>
</trkpt>
<trkpt lat="40.072846" lon="-105.2308996">
  <ele>1595.46</ele>
  <time>2026-08-28T19:11:18Z</time>
  <course>199.53</course>
  <speed>0.02</speed>
  <fix>3d</fix>
</trkpt>
<trkpt lat="40.0728461" lon="-105.2308994">
  <ele>1595.56</ele>
  <time>2026-08-28T19:11:18Z</time>
  <course>88.82</course>
  <speed>0.01</speed>
  <fix>3d</fix>
</trkpt>
<trkpt lat="40.072846" lon="-105.2308996">
  <ele>1595.46</ele>
  <time>2026-08-28T19:11:18Z</time>
  <course>196.05</course>
  <speed>0.03</speed>
  <fix>3d</fix>
</trkpt>
<trkpt lat="40.0728461" lon="-105.2308994">
  <ele>1595.57</ele>
  <time>2026-08-28T19:11:18Z</time>
  <course>87.78</course>
  <speed>0.01</speed>
  <fix>3d</fix>
</trkpt>
<trkpt lat="40.0728459" lon="-105.2308996">
  <ele>1595.46</ele>
  <time>2026-08-28T19:11:18Z</time>
  <course>192.69</course>
  <speed>0.03</speed>
  <fix>3d</fix>
</trkpt>
<trkpt lat="40.072846" lon="-105.2308994">
  <ele>1595.57</ele>
  <time>2026-08-28T19:11:18Z</time>
  <course>86.43</course>
  <speed>0.01</speed>
  <fix>3d</fix>
</trkpt>
<trkpt lat="40.0728459" lon="-105.2308996">
  <ele>1595.47</ele>
  <time>2026-08-28T19:11:18Z</time>
  <course>190.0</course>
  <speed>0.03</speed>
  <fix>3d</fix>
</trkpt>
<trkpt lat="40.072846" lon="-105.2308995">
  <ele>1595.57</ele>
  <time>2026-08-28T19:11:18Z</time>
  <course>84.94</course>
  <speed>0.01</speed>
  <fix>3d</fix>
</trkpt>
<trkpt lat="40.0728458" lon="-105.2308996">
  <ele>1595.47</ele>
  <time>2026-08-28T19:11:18Z</time>
  <course>187.93</course>
  <speed>0.03</speed>
  <fix>3d</fix>
</trkpt>
<trkpt lat="40.0728459" lon="-105.2308995">
  <ele>1595.56</ele>
  <time>2026-08-28T19:11:18Z</time>
  <course>83.42</course>
  <speed>0.01</speed>
  <fix>3d</fix>
</trkpt>
<trkpt lat="40.0728457" lon="-105.2308996">
  <ele>1595.47</ele>
  <time>2026-08-28T19:11:18Z</time>
  <course>186.57</course>
  <speed>0.02</speed>
  <fix>3d</fix>
</trkpt>
<trkpt lat="40.0728459" lon="-105.2308995">
  <ele>1595.56</ele>
  <time>2026-08-28T19:11:18Z</time>
  <course>82.03</course>
  <speed>0.0</speed>
  <fix>3d</fix>
</trkpt>
<trkpt lat="40.0728457" lon="-105.2308996">
  <ele>1595.47</ele>
  <time>2026-08-28T19:11:18Z</time>
  <course>186.17</course>
  <speed>0.02</speed>
  <fix>3d</fix>
</trkpt>
<trkpt lat="40.0728458" lon="-105.2308995">
  <ele>1595.56</ele>
  <time>2026-08-28T19:11:18Z</time>
  <course>80.92</course>
  <speed>0.0</speed>
  <fix>3d</fix>
</trkpt>
<trkpt lat="40.0728456" lon="-105.2308997">
  <ele>1595.47</ele>
  <time>2026-08-28T19:11:18Z</time>
  <course>186.89</course>
  <speed>0.02</speed>
  <fix>3d</fix>
</trkpt>
<trkpt lat="40.0728458" lon="-105.2308995">
  <ele>1595.56</ele>
  <time>2026-08-28T19:11:18Z</time>
  <course>80.21</course>
  <speed>0.0</speed>
  <fix>3d</fix>
</trkpt>
<trkpt lat="40.0728456" lon="-105.2308997">
  <ele>1595.47</ele>
  <time>2026-08-28T19:11:18Z</time>
  <course>188.58</course>
  <speed>0.02</speed>
  <fix>3d</fix>
</trkpt>
<trkpt lat="40.0728457" lon="-105.2308995">
  <ele>1595.56</ele>
  <time>2026-08-28T19:11:18Z</time>
  <course>79.97</course>
  <speed>0.0</speed>
  <fix>3d</fix>
</trkpt>
<trkpt lat="40.0728456" lon="-105.2308997">
  <ele>1595.48</ele>
  <time>2026-08-28T19:11:18Z</time>
  <course>191.95</course>
  <speed>0.02</speed>
  <fix>3d</fix>
</trkpt>
<trkpt lat="40.0728457" lon="-105.2308995">
  <ele>1595.56</ele>
  <time>2026-08-28T19:11:18Z</time>
  <course>79.76</course>
  <speed>0.0</speed>
  <fix>3d</fix>
</trkpt>
<trkpt lat="40.0728456" lon="-105.2308997">
  <ele>1595.48</ele>
  <time>2026-08-28T19:11:18Z</time>
  <course>194.42</course>
  <speed>0.02</speed>
  <fix>3d</fix>
</trkpt>
<trkpt lat="40.0728457" lon="-105.2308996">
  <ele>1595.57</ele>
  <time>2026-08-28T19:11:18Z</time>
  <course>79.5</course>
  <speed>0.0</speed>
  <fix>3d</fix>
</trkpt>
<trkpt lat="40.0728455" lon="-105.2308997">
  <ele>1595.48</ele>
  <time>2026-08-28T19:11:18Z</time>
  <course>193.87</course>
  <speed>0.02</speed>
  <fix>3d</fix>
</trkpt>
<trkpt lat="40.0728456" lon="-105.2308996">
  <ele>1595.57</ele>
  <time>2026-08-28T19:11:18Z</time>
  <course>79.38</course>
  <speed>0.0</speed>
  <fix>3d</fix>
</trkpt>
<trkpt lat="40.0728455" lon="-105.2308997">
  <ele>1595.48</ele>
  <time>2026-08-28T19:11:18Z</time>
  <course>193.33</course>
  <speed>0.02</speed>
  <fix>3d</fix>
</trkpt>
<trkpt lat="40.0728456" lon="-105.2308996">
  <ele>1595.57</ele>
  <time>2026-08-28T19:11:18Z</time>
  <course>79.34</course>
  <speed>0.0</speed>
  <fix>3d</fix>
</trkpt>
<trkpt lat="40.0728454" lon="-105.2308997">
  <ele>1595.48</ele>
  <time>2026-08-28T19:11:18Z</time>
  <course>193.45</course>
  <speed>0.02</speed>
  <fix>3d</fix>
</trkpt>
<trkpt lat="40.0728456" lon="-105.2308996">
  <ele>1595.57</ele>
  <time>2026-08-28T19:11:18Z</time>
  <course>79.33</course>
  <speed>0.0</speed>
  <fix>3d</fix>
</trkpt>
<trkpt lat="40.0728454" lon="-105.2308997">
  <ele>1595.48</ele>
  <time>2026-08-28T19:11:18Z</time>
  <course>193.16</course>
  <speed>0.02</speed>
  <fix>3d</fix>
</trkpt>
<trkpt lat="40.0728455" lon="-105.2308996">
  <ele>1595.58</ele>
  <time>2026-08-28T19:11:18Z</time>
  <course>79.33</course>
  <speed>0.0</speed>
  <fix>3d</fix>
</trkpt>
<trkpt lat="40.0728454" lon="-105.2308997">
  <ele>1595.48</ele>
  <time>2026-08-28T19:11:18Z</time>
  <course>192.12</course>
  <speed>0.02</speed>
  <fix>3d</fix>
</trkpt>
<trkpt lat="40.0728455" lon="-105.2308996">
  <ele>1595.58</ele>
  <time>2026-08-28T19:11:18Z</time>
  <course>79.35</course>
  <speed>0.0</speed>
  <fix>3d</fix>
</trkpt>
<trkpt lat="40.0728453" lon="-105.2308997">
  <ele>1595.48</ele>
  <time>2026-08-28T19:11:18Z</time>
  <course>190.34</course>
  <speed>0.02</speed>
  <fix>3d</fix>
</trkpt>
<trkpt lat="40.0728454" lon="-105.2308996">
  <ele>1595.58</ele>
  <time>2026-08-28T19:11:18Z</time>
  <course>79.36</course>
  <speed>0.0</speed>
  <fix>3d</fix>
</trkpt>
<trkpt lat="40.0728453" lon="-105.2308997">
  <ele>1595.48</ele>
  <time>2026-08-28T19:11:18Z</time>
  <course>187.61</course>
  <speed>0.02</speed>
  <fix>3d</fix>
</trkpt>
<trkpt lat="40.0728454" lon="-105.2308996">
  <ele>1595.57</ele>
  <time>2026-08-28T19:11:19Z</time>
  <course>79.39</course>
  <speed>0.0</speed>
  <fix>3d</fix>
</trkpt>
<trkpt lat="40.0728452" lon="-105.2308997">
  <ele>1595.48</ele>
  <time>2026-08-28T19:11:19Z</time>
  <course>184.9</course>
  <speed>0.02</speed>
  <fix>3d</fix>
</trkpt>
<trkpt lat="40.0728453" lon="-105.2308996">
  <ele>1595.57</ele>
  <time>2026-08-28T19:11:19Z</time>
  <course>79.38</course>
  <speed>0.0</speed>
  <fix>3d</fix>
</trkpt>
<trkpt lat="40.0728451" lon="-105.2308997">
  <ele>1595.48</ele>
  <time>2026-08-28T19:11:19Z</time>
  <course>182.87</course>
  <speed>0.02</speed>
  <fix>3d</fix>
</trkpt>
<trkpt lat="40.0728453" lon="-105.2308996">
  <ele>1595.56</ele>
  <time>2026-08-28T19:11:19Z</time>
  <course>79.39</course>
  <speed>0.01</speed>
  <fix>3d</fix>
</trkpt>
<trkpt lat="40.0728451" lon="-105.2308997">
  <ele>1595.48</ele>
  <time>2026-08-28T19:11:19Z</time>
  <course>181.07</course>
  <speed>0.02</speed>
  <fix>3d</fix>
</trkpt>
<trkpt lat="40.0728452" lon="-105.2308996">
  <ele>1595.56</ele>
  <time>2026-08-28T19:11:19Z</time>
  <course>79.4</course>
  <speed>0.01</speed>
  <fix>3d</fix>
</trkpt>
<trkpt lat="40.072845" lon="-105.2308997">
  <ele>1595.48</ele>
  <time>2026-08-28T19:11:19Z</time>
  <course>179.38</course>
  <speed>0.02</speed>
  <fix>3d</fix>
</trkpt>
<trkpt lat="40.0728452" lon="-105.2308996">
  <ele>1595.56</ele>
  <time>2026-08-28T19:11:19Z</time>
  <course>79.41</course>
  <speed>0.01</speed>
  <fix>3d</fix>
</trkpt>
<trkpt lat="40.072845" lon="-105.2308997">
  <ele>1595.48</ele>
  <time>2026-08-28T19:11:19Z</time>
  <course>177.78</course>
  <speed>0.02</speed>
  <fix>3d</fix>
</trkpt>
<trkpt lat="40.0728451" lon="-105.2308996">
  <ele>1595.56</ele>
  <time>2026-08-28T19:11:19Z</time>
  <course>79.39</course>
  <speed>0.01</speed>
  <fix>3d</fix>
</trkpt>
<trkpt lat="40.072845" lon="-105.2308997">
  <ele>1595.48</ele>
  <time>2026-08-28T19:11:19Z</time>
  <course>175.99</course>
  <speed>0.02</speed>
  <fix>3d</fix>
</trkpt>
<trkpt lat="40.0728451" lon="-105.2308996">
  <ele>1595.56</ele>
  <time>2026-08-28T19:11:19Z</time>
  <course>79.4</course>
  <speed>0.01</speed>
  <fix>3d</fix>
</trkpt>
<trkpt lat="40.0728449" lon="-105.2308997">
  <ele>1595.48</ele>
  <time>2026-08-28T19:11:19Z</time>
  <course>174.12</course>
  <speed>0.02</speed>
  <fix>3d</fix>
</trkpt>
<trkpt lat="40.072845" lon="-105.2308996">
  <ele>1595.56</ele>
  <time>2026-08-28T19:11:19Z</time>
  <course>79.41</course>
  <speed>0.01</speed>
  <fix>3d</fix>
</trkpt>
<trkpt lat="40.0728449" lon="-105.2308997">
  <ele>1595.48</ele>
  <time>2026-08-28T19:11:19Z</time>
  <course>172.53</course>
  <speed>0.02</speed>
  <fix>3d</fix>
</trkpt>
<trkpt lat="40.072845" lon="-105.2308996">
  <ele>1595.56</ele>
  <time>2026-08-28T19:11:19Z</time>
  <course>79.35</course>
  <speed>0.01414213562373095</speed>
  <fix>3d</fix>
</trkpt>
<trkpt lat="40.0728448" lon="-105.2308997">
  <ele>1595.48</ele>
  <time>2026-08-28T19:11:19Z</time>
  <course>171.33</course>
  <speed>0.03</speed>
  <fix>3d</fix>
</trkpt>
<trkpt lat="40.0728449" lon="-105.2308996">
  <ele>1595.57</ele>
  <time>2026-08-28T19:11:19Z</time>
  <course>78.5</course>
  <speed>0.01414213562373095</speed>
  <fix>3d</fix>
</trkpt>
<trkpt lat="40.0728448" lon="-105.2308997">
  <ele>1595.48</ele>
  <time>2026-08-28T19:11:19Z</time>
  <course>169.96</course>
  <speed>0.03</speed>
  <fix>3d</fix>
</trkpt>
<trkpt lat="40.0728449" lon="-105.2308996">
  <ele>1595.57</ele>
  <time>2026-08-28T19:11:19Z</time>
  <course>77.2</course>
  <speed>0.01414213562373095</speed>
  <fix>3d</fix>
</trkpt>
<trkpt lat="40.0728447" lon="-105.2308997">
  <ele>1595.48</ele>
  <time>2026-08-28T19:11:19Z</time>
  <course>168.56</course>
  <speed>0.03</speed>
  <fix>3d</fix>
</trkpt>
<trkpt lat="40.0728448" lon="-105.2308996">
  <ele>1595.57</ele>
  <time>2026-08-28T19:11:19Z</time>
  <course>75.99</course>
  <speed>0.01414213562373095</speed>
  <fix>3d</fix>
</trkpt>
<trkpt lat="40.0728446" lon="-105.2308997">
  <ele>1595.49</ele>
  <time>2026-08-28T19:11:19Z</time>
  <course>167.79</course>
  <speed>0.03</speed>
  <fix>3d</fix>
</trkpt>
<trkpt lat="40.0728447" lon="-105.2308996">
  <ele>1595.57</ele>
  <time>2026-08-28T19:11:19Z</time>
  <course>75.08</course>
  <speed>0.01</speed>
  <fix>3d</fix>
</trkpt>
<trkpt lat="40.0728445" lon="-105.2308997">
  <ele>1595.49</ele>
  <time>2026-08-28T19:11:19Z</time>
  <course>168.14</course>
  <speed>0.03</speed>
  <fix>3d</fix>
</trkpt>
<trkpt lat="40.0728447" lon="-105.2308996">
  <ele>1595.57</ele>
  <time>2026-08-28T19:11:19Z</time>
  <course>74.6</course>
  <speed>0.01</speed>
  <fix>3d</fix>
</trkpt>
<trkpt lat="40.0728445" lon="-105.2308997">
  <ele>1595.49</ele>
  <time>2026-08-28T19:11:19Z</time>
  <course>170.16</course>
  <speed>0.02</speed>
  <fix>3d</fix>
</trkpt>
<trkpt lat="40.0728446" lon="-105.2308996">
  <ele>1595.57</ele>
  <time>2026-08-28T19:11:19Z</time>
  <course>74.57</course>
  <speed>0.0</speed>
  <fix>3d</fix>
</trkpt>
<trkpt lat="40.0728444" lon="-105.2308997">
  <ele>1595.49</ele>
  <time>2026-08-28T19:11:19Z</time>
  <course>173.9</course>
  <speed>0.02</speed>
  <fix>3d</fix>
</trkpt>
<trkpt lat="40.0728446" lon="-105.2308996">
  <ele>1595.57</ele>
  <time>2026-08-28T19:11:19Z</time>
  <course>75.04</course>
  <speed>0.0</speed>
  <fix>3d</fix>
</trkpt>
<trkpt lat="40.0728444" lon="-105.2308997">
  <ele>1595.49</ele>
  <time>2026-08-28T19:11:19Z</time>
  <course>179.08</course>
  <speed>0.02</speed>
  <fix>3d</fix>
</trkpt>
<trkpt lat="40.0728446" lon="-105.2308996">
  <ele>1595.57</ele>
  <time>2026-08-28T19:11:19Z</time>
  <course>75.93</course>
  <speed>0.0</speed>
  <fix>3d</fix>
</trkpt>
<trkpt lat="40.0728444" lon="-105.2308997">
  <ele>1595.49</ele>
  <time>2026-08-28T19:11:19Z</time>
  <course>186.03</course>
  <speed>0.02</speed>
  <fix>3d</fix>
</trkpt>
<trkpt lat="40.0728445" lon="-105.2308996">
  <ele>1595.57</ele>
  <time>2026-08-28T19:11:19Z</time>
  <course>77.18</course>
  <speed>0.0</speed>
  <fix>3d</fix>
</trkpt>
<trkpt lat="40.0728444" lon="-105.2308997">
  <ele>1595.49</ele>
  <time>2026-08-28T19:11:19Z</time>
  <course>193.67</course>
  <speed>0.01</speed>
  <fix>3d</fix>
</trkpt>
<trkpt lat="40.0728445" lon="-105.2308996">
  <ele>1595.57</ele>
  <time>2026-08-28T19:11:19Z</time>
  <course>78.65</course>
  <speed>0.0</speed>
  <fix>3d</fix>
</trkpt>
<trkpt lat="40.0728443" lon="-105.2308997">
  <ele>1595.49</ele>
  <time>2026-08-28T19:11:19Z</time>
  <course>200.25</course>
  <speed>0.01</speed>
  <fix>3d</fix>
</trkpt>
<trkpt lat="40.0728445" lon="-105.2308996">
  <ele>1595.57</ele>
  <time>2026-08-28T19:11:19Z</time>
  <course>80.16</course>
  <speed>0.0</speed>
  <fix>3d</fix>
</trkpt>
<trkpt lat="40.0728443" lon="-105.2308997">
  <ele>1595.49</ele>
  <time>2026-08-28T19:11:19Z</time>
  <course>204.29</course>
  <speed>0.01</speed>
  <fix>3d</fix>
</trkpt>
<trkpt lat="40.0728444" lon="-105.2308996">
  <ele>1595.57</ele>
  <time>2026-08-28T19:11:19Z</time>
  <course>81.62</course>
  <speed>0.0</speed>
  <fix>3d</fix>
</trkpt>
<trkpt lat="40.0728443" lon="-105.2308997">
  <ele>1595.49</ele>
  <time>2026-08-28T19:11:19Z</time>
  <course>205.33</course>
  <speed>0.01</speed>
  <fix>3d</fix>
</trkpt>
<trkpt lat="40.0728444" lon="-105.2308996">
  <ele>1595.57</ele>
  <time>2026-08-28T19:11:19Z</time>
  <course>82.83</course>
  <speed>0.0</speed>
  <fix>3d</fix>
</trkpt>
<trkpt lat="40.0728442" lon="-105.2308997">
  <ele>1595.49</ele>
  <time>2026-08-28T19:11:19Z</time>
  <course>203.58</course>
  <speed>0.02</speed>
  <fix>3d</fix>
</trkpt>
<trkpt lat="40.0728444" lon="-105.2308997">
  <ele>1595.58</ele>
  <time>2026-08-28T19:11:19Z</time>
  <course>83.77</course>
  <speed>0.0</speed>
  <fix>3d</fix>
</trkpt>
<trkpt lat="40.0728442" lon="-105.2308997">
  <ele>1595.49</ele>
  <time>2026-08-28T19:11:19Z</time>
  <course>200.08</course>
  <speed>0.02</speed>
  <fix>3d</fix>
</trkpt>
<trkpt lat="40.0728443" lon="-105.2308997">
  <ele>1595.58</ele>
  <time>2026-08-28T19:11:19Z</time>
  <course>84.28</course>
  <speed>0.0</speed>
  <fix>3d</fix>
</trkpt>
<trkpt lat="40.0728442" lon="-105.2308997">
  <ele>1595.49</ele>
  <time>2026-08-28T19:11:19Z</time>
  <course>195.87</course>
  <speed>0.02</speed>
  <fix>3d</fix>
</trkpt>
<trkpt lat="40.0728443" lon="-105.2308997">
  <ele>1595.58</ele>
  <time>2026-08-28T19:11:19Z</time>
  <course>84.29</course>
  <speed>0.0</speed>
  <fix>3d</fix>
</trkpt>
<trkpt lat="40.0728441" lon="-105.2308997">
  <ele>1595.48</ele>
  <time>2026-08-28T19:11:19Z</time>
  <course>191.83</course>
  <speed>0.02</speed>
  <fix>3d</fix>
</trkpt>
<trkpt lat="40.0728442" lon="-105.2308997">
  <ele>1595.58</ele>
  <time>2026-08-28T19:11:19Z</time>
  <course>83.83</course>
  <speed>0.01</speed>
  <fix>3d</fix>
</trkpt>
<trkpt lat="40.0728441" lon="-105.2308997">
  <ele>1595.48</ele>
  <time>2026-08-28T19:11:19Z</time>
  <course>187.95</course>
  <speed>0.02</speed>
  <fix>3d</fix>
</trkpt>
<trkpt lat="40.0728442" lon="-105.2308997">
  <ele>1595.58</ele>
  <time>2026-08-28T19:11:19Z</time>
  <course>82.97</course>
  <speed>0.01</speed>
  <fix>3d</fix>
</trkpt>
<trkpt lat="40.072844" lon="-105.2308997">
  <ele>1595.48</ele>
  <time>2026-08-28T19:11:19Z</time>
  <course>183.86</course>
  <speed>0.02</speed>
  <fix>3d</fix>
</trkpt>
<trkpt lat="40.0728441" lon="-105.2308997">
  <ele>1595.58</ele>
  <time>2026-08-28T19:11:19Z</time>
  <course>81.76</course>
  <speed>0.01</speed>
  <fix>3d</fix>
</trkpt>
<trkpt lat="40.0728439" lon="-105.2308997">
  <ele>1595.48</ele>
  <time>2026-08-28T19:11:19Z</time>
  <course>180.13</course>
  <speed>0.02</speed>
  <fix>3d</fix>
</trkpt>
<trkpt lat="40.0728441" lon="-105.2308997">
  <ele>1595.58</ele>
  <time>2026-08-28T19:11:19Z</time>
  <course>80.31</course>
  <speed>0.01414213562373095</speed>
  <fix>3d</fix>
</trkpt>
<trkpt lat="40.0728439" lon="-105.2308997">
  <ele>1595.48</ele>
  <time>2026-08-28T19:11:19Z</time>
  <course>177.2</course>
  <speed>0.02</speed>
  <fix>3d</fix>
</trkpt>
<trkpt lat="40.072844" lon="-105.2308997">
  <ele>1595.58</ele>
  <time>2026-08-28T19:11:19Z</time>
  <course>78.77</course>
  <speed>0.01414213562373095</speed>
  <fix>3d</fix>
</trkpt>
<trkpt lat="40.0728438" lon="-105.2308997">
  <ele>1595.47</ele>
  <time>2026-08-28T19:11:19Z</time>
  <course>175.44</course>
  <speed>0.02</speed>
  <fix>3d</fix>
</trkpt>
<trkpt lat="40.072844" lon="-105.2308997">
  <ele>1595.57</ele>
  <time>2026-08-28T19:11:19Z</time>
  <course>77.29</course>
  <speed>0.01</speed>
  <fix>3d</fix>
</trkpt>
<trkpt lat="40.0728438" lon="-105.2308997">
  <ele>1595.47</ele>
  <time>2026-08-28T19:11:19Z</time>
  <course>173.87</course>
  <speed>0.02</speed>
  <fix>3d</fix>
</trkpt>
<trkpt lat="40.0728439" lon="-105.2308997">
  <ele>1595.57</ele>
  <time>2026-08-28T19:11:19Z</time>
  <course>76.0</course>
  <speed>0.01</speed>
  <fix>3d</fix>
</trkpt>
<trkpt lat="40.0728438" lon="-105.2308997">
  <ele>1595.47</ele>
  <time>2026-08-28T19:11:19Z</time>
  <course>172.68</course>
  <speed>0.02</speed>
  <fix>3d</fix>
</trkpt>
<trkpt lat="40.0728439" lon="-105.2308997">
  <ele>1595.57</ele>
  <time>2026-08-28T19:11:19Z</time>
  <course>75.07</course>
  <speed>0.0</speed>
  <fix>3d</fix>
</trkpt>
<trkpt lat="40.0728437" lon="-105.2308997">
  <ele>1595.47</ele>
  <time>2026-08-28T19:11:19Z</time>
  <course>173.77</course>
  <speed>0.02</speed>
  <fix>3d</fix>
</trkpt>
<trkpt lat="40.0728438" lon="-105.2308997">
  <ele>1595.56</ele>
  <time>2026-08-28T19:11:19Z</time>
  <course>74.59</course>
  <speed>0.0</speed>
  <fix>3d</fix>
</trkpt>
<trkpt lat="40.0728437" lon="-105.2308997">
  <ele>1595.46</ele>
  <time>2026-08-28T19:11:19Z</time>
  <course>177.66</course>
  <speed>0.01</speed>
  <fix>3d</fix>
</trkpt>
<trkpt lat="40.0728438" lon="-105.2308997">
  <ele>1595.56</ele>
  <time>2026-08-28T19:11:19Z</time>
  <course>74.57</course>
  <speed>0.0</speed>
  <fix>3d</fix>
</trkpt>
<trkpt lat="40.0728437" lon="-105.2308997">
  <ele>1595.46</ele>
  <time>2026-08-28T19:11:19Z</time>
  <course>183.29</course>
  <speed>0.01</speed>
  <fix>3d</fix>
</trkpt>
<trkpt lat="40.0728438" lon="-105.2308997">
  <ele>1595.55</ele>
  <time>2026-08-28T19:11:19Z</time>
  <course>75.01</course>
  <speed>0.0</speed>
  <fix>3d</fix>
</trkpt>
<trkpt lat="40.0728436" lon="-105.2308997">
  <ele>1595.46</ele>
  <time>2026-08-28T19:11:19Z</time>
  <course>188.67</course>
  <speed>0.01</speed>
  <fix>3d</fix>
</trkpt>
<trkpt lat="40.0728438" lon="-105.2308997">
  <ele>1595.56</ele>
  <time>2026-08-28T19:11:19Z</time>
  <course>75.89</course>
  <speed>0.0</speed>
  <fix>3d</fix>
</trkpt>
<trkpt lat="40.0728436" lon="-105.2308997">
  <ele>1595.47</ele>
  <time>2026-08-28T19:11:19Z</time>
  <course>194.18</course>
  <speed>0.01</speed>
  <fix>3d</fix>
</trkpt>
<trkpt lat="40.0728437" lon="-105.2308997">
  <ele>1595.56</ele>
  <time>2026-08-28T19:11:19Z</time>
  <course>77.11</course>
  <speed>0.0</speed>
  <fix>3d</fix>
</trkpt>
<trkpt lat="40.0728436" lon="-105.2308997">
  <ele>1595.47</ele>
  <time>2026-08-28T19:11:19Z</time>
  <course>200.71</course>
  <speed>0.01</speed>
  <fix>3d</fix>
</trkpt>
<trkpt lat="40.0728437" lon="-105.2308997">
  <ele>1595.56</ele>
  <time>2026-08-28T19:11:19Z</time>
  <course>78.61</course>
  <speed>0.0</speed>
  <fix>3d</fix>
</trkpt>
<trkpt lat="40.0728436" lon="-105.2308997">
  <ele>1595.47</ele>
  <time>2026-08-28T19:11:19Z</time>
  <course>205.91</course>
  <speed>0.01</speed>
  <fix>3d</fix>
</trkpt>
<trkpt lat="40.0728437" lon="-105.2308997">
  <ele>1595.56</ele>
  <time>2026-08-28T19:11:19Z</time>
  <course>80.16</course>
  <speed>0.0</speed>
  <fix>3d</fix>
</trkpt>
<trkpt lat="40.0728436" lon="-105.2308997">
  <ele>1595.47</ele>
  <time>2026-08-28T19:11:19Z</time>
  <course>208.11</course>
  <speed>0.01</speed>
  <fix>3d</fix>
</trkpt>
<trkpt lat="40.0728437" lon="-105.2308997">
  <ele>1595.56</ele>
  <time>2026-08-28T19:11:19Z</time>
  <course>81.58</course>
  <speed>0.0</speed>
  <fix>3d</fix>
</trkpt>
<trkpt lat="40.0728435" lon="-105.2308997">
  <ele>1595.48</ele>
  <time>2026-08-28T19:11:19Z</time>
  <course>206.82</course>
  <speed>0.01</speed>
  <fix>3d</fix>
</trkpt>
<trkpt lat="40.0728437" lon="-105.2308997">
  <ele>1595.56</ele>
  <time>2026-08-28T19:11:19Z</time>
  <course>82.84</course>
  <speed>0.0</speed>
  <fix>3d</fix>
</trkpt>
<trkpt lat="40.0728435" lon="-105.2308998">
  <ele>1595.48</ele>
  <time>2026-08-28T19:11:19Z</time>
  <course>202.48</course>
  <speed>0.01</speed>
  <fix>3d</fix>
</trkpt>
<trkpt lat="40.0728436" lon="-105.2308997">
  <ele>1595.57</ele>
  <time>2026-08-28T19:11:19Z</time>
  <course>83.76</course>
  <speed>0.0</speed>
  <fix>3d</fix>
</trkpt>
<trkpt lat="40.0728435" lon="-105.2308999">
  <ele>1595.48</ele>
  <time>2026-08-28T19:11:19Z</time>
  <course>196.67</course>
  <speed>0.01</speed>
  <fix>3d</fix>
</trkpt>
<trkpt lat="40.0728436" lon="-105.2308997">
  <ele>1595.57</ele>
  <time>2026-08-28T19:11:19Z</time>
  <course>84.27</course>
  <speed>0.0</speed>
  <fix>3d</fix>
</trkpt>
<trkpt lat="40.0728435" lon="-105.2308999">
  <ele>1595.48</ele>
  <time>2026-08-28T19:11:19Z</time>
  <course>190.53</course>
  <speed>0.01</speed>
  <fix>3d</fix>
</trkpt>
<trkpt lat="40.0728436" lon="-105.2308997">
  <ele>1595.57</ele>
  <time>2026-08-28T19:11:19Z</time>
  <course>84.27</course>
  <speed>0.0</speed>
  <fix>3d</fix>
</trkpt>
<trkpt lat="40.0728434" lon="-105.2308999">
  <ele>1595.48</ele>
  <time>2026-08-28T19:11:19Z</time>
  <course>183.95</course>
  <speed>0.01</speed>
  <fix>3d</fix>
</trkpt>
<trkpt lat="40.0728435" lon="-105.2308997">
  <ele>1595.57</ele>
  <time>2026-08-28T19:11:19Z</time>
  <course>83.84</course>
  <speed>0.0</speed>
  <fix>3d</fix>
</trkpt>
<trkpt lat="40.0728433" lon="-105.2308999">
  <ele>1595.48</ele>
  <time>2026-08-28T19:11:19Z</time>
  <course>177.31</course>
  <speed>0.01</speed>
  <fix>3d</fix>
</trkpt>
<trkpt lat="40.0728435" lon="-105.2308997">
  <ele>1595.57</ele>
  <time>2026-08-28T19:11:19Z</time>
  <course>82.92</course>
  <speed>0.01</speed>
  <fix>3d</fix>
</trkpt>
<trkpt lat="40.0728433" lon="-105.2308999">
  <ele>1595.48</ele>
  <time>2026-08-28T19:11:19Z</time>
  <course>171.14</course>
  <speed>0.01</speed>
  <fix>3d</fix>
</trkpt>
<trkpt lat="40.0728434" lon="-105.2308997">
  <ele>1595.57</ele>
  <time>2026-08-28T19:11:19Z</time>
  <course>81.68</course>
  <speed>0.01</speed>
  <fix>3d</fix>
</trkpt>
<trkpt lat="40.0728433" lon="-105.2308999">
  <ele>1595.48</ele>
  <time>2026-08-28T19:11:19Z</time>
  <course>166.68</course>
  <speed>0.02</speed>
  <fix>3d</fix>
</trkpt>
<trkpt lat="40.0728434" lon="-105.2308997">
  <ele>1595.58</ele>
  <time>2026-08-28T19:11:19Z</time>
  <course>80.22</course>
  <speed>0.01</speed>
  <fix>3d</fix>
</trkpt>
<trkpt lat="40.0728432" lon="-105.2308999">
  <ele>1595.48</ele>
  <time>2026-08-28T19:11:19Z</time>
  <course>162.57</course>
  <speed>0.02</speed>
  <fix>3d</fix>
</trkpt>
<trkpt lat="40.0728434" lon="-105.2308997">
  <ele>1595.58</ele>
  <time>2026-08-28T19:11:19Z</time>
  <course>78.71</course>
  <speed>0.0</speed>
  <fix>3d</fix>
</trkpt>
<trkpt lat="40.0728432" lon="-105.2308999">
  <ele>1595.48</ele>
  <time>2026-08-28T19:11:19Z</time>
  <course>157.56</course>
  <speed>0.02</speed>
  <fix>3d</fix>
</trkpt>
<trkpt lat="40.0728433" lon="-105.2308997">
  <ele>1595.58</ele>
  <time>2026-08-28T19:11:19Z</time>
  <course>77.28</course>
  <speed>0.01</speed>
  <fix>3d</fix>
</trkpt>
<trkpt lat="40.0728432" lon="-105.2308999">
  <ele>1595.48</ele>
  <time>2026-08-28T19:11:19Z</time>
  <course>151.98</course>
  <speed>0.01</speed>
  <fix>3d</fix>
</trkpt>
<trkpt lat="40.0728433" lon="-105.2308997">
  <ele>1595.58</ele>
  <time>2026-08-28T19:11:19Z</time>
  <course>76.03</course>
  <speed>0.01</speed>
  <fix>3d</fix>
</trkpt>
<trkpt lat="40.0728432" lon="-105.2308999">
  <ele>1595.48</ele>
  <time>2026-08-28T19:11:19Z</time>
  <course>146.44</course>
  <speed>0.01</speed>
  <fix>3d</fix>
</trkpt>
<trkpt lat="40.0728433" lon="-105.2308997">
  <ele>1595.58</ele>
  <time>2026-08-28T19:11:19Z</time>
  <course>75.12</course>
  <speed>0.0</speed>
  <fix>3d</fix>
</trkpt>
<trkpt lat="40.0728432" lon="-105.2308999">
  <ele>1595.48</ele>
  <time>2026-08-28T19:11:19Z</time>
  <course>139.44</course>
  <speed>0.01</speed>
  <fix>3d</fix>
</trkpt>
<trkpt lat="40.0728433" lon="-105.2308997">
  <ele>1595.58</ele>
  <time>2026-08-28T19:11:19Z</time>
  <course>74.63</course>
  <speed>0.0</speed>
  <fix>3d</fix>
</trkpt>
<trkpt lat="40.0728432" lon="-105.2308998">
  <ele>1595.47</ele>
  <time>2026-08-28T19:11:19Z</time>
  <course>130.17</course>
  <speed>0.01</speed>
  <fix>3d</fix>
</trkpt>
<trkpt lat="40.0728432" lon="-105.2308997">
  <ele>1595.58</ele>
  <time>2026-08-28T19:11:19Z</time>
  <course>74.63</course>
  <speed>0.0</speed>
  <fix>3d</fix>
</trkpt>
<trkpt lat="40.0728432" lon="-105.2308997">
  <ele>1595.47</ele>
  <time>2026-08-28T19:11:19Z</time>
  <course>119.49</course>
  <speed>0.01</speed>
  <fix>3d</fix>
</trkpt>
<trkpt lat="40.0728432" lon="-105.2308997">
  <ele>1595.57</ele>
  <time>2026-08-28T19:11:19Z</time>
  <course>75.08</course>
  <speed>0.0</speed>
  <fix>3d</fix>
</trkpt>
<trkpt lat="40.0728432" lon="-105.2308997">
  <ele>1595.47</ele>
  <time>2026-08-28T19:11:19Z</time>
  <course>109.04</course>
  <speed>0.01</speed>
  <fix>3d</fix>
</trkpt>
<trkpt lat="40.0728433" lon="-105.2308997">
  <ele>1595.57</ele>
  <time>2026-08-28T19:11:19Z</time>
  <course>75.97</course>
  <speed>0.0</speed>
  <fix>3d</fix>
</trkpt>
<trkpt lat="40.0728432" lon="-105.2308997">
  <ele>1595.47</ele>
  <time>2026-08-28T19:11:19Z</time>
  <course>98.58</course>
  <speed>0.0</speed>
  <fix>3d</fix>
</trkpt>
<trkpt lat="40.0728433" lon="-105.2308997">
  <ele>1595.57</ele>
  <time>2026-08-28T19:11:19Z</time>
  <course>77.18</course>
  <speed>0.0</speed>
  <fix>3d</fix>
</trkpt>
<trkpt lat="40.0728432" lon="-105.2308997">
  <ele>1595.46</ele>
  <time>2026-08-28T19:11:19Z</time>
  <course>91.11</course>
  <speed>0.0</speed>
  <fix>3d</fix>
</trkpt>
<trkpt lat="40.0728433" lon="-105.2308997">
  <ele>1595.56</ele>
  <time>2026-08-28T19:11:19Z</time>
  <course>78.62</course>
  <speed>0.0</speed>
  <fix>3d</fix>
</trkpt>
<trkpt lat="40.0728432" lon="-105.2308997">
  <ele>1595.46</ele>
  <time>2026-08-28T19:11:19Z</time>
  <course>90.96</course>
  <speed>0.0</speed>
  <fix>3d</fix>
</trkpt>
<trkpt lat="40.0728433" lon="-105.2308997">
  <ele>1595.56</ele>
  <time>2026-08-28T19:11:19Z</time>
  <course>80.15</course>
  <speed>0.0</speed>
  <fix>3d</fix>
</trkpt>
<trkpt lat="40.0728432" lon="-105.2308997">
  <ele>1595.46</ele>
  <time>2026-08-28T19:11:19Z</time>
  <course>97.7</course>
  <speed>0.0</speed>
  <fix>3d</fix>
</trkpt>
<trkpt lat="40.0728433" lon="-105.2308997">
  <ele>1595.56</ele>
  <time>2026-08-28T19:11:19Z</time>
  <course>81.58</course>
  <speed>0.0</speed>
  <fix>3d</fix>
</trkpt>
<trkpt lat="40.0728432" lon="-105.2308997">
  <ele>1595.46</ele>
  <time>2026-08-28T19:11:19Z</time>
  <course>109.54</course>
  <speed>0.0</speed>
  <fix>3d</fix>
</trkpt>
<trkpt lat="40.0728433" lon="-105.2308997">
  <ele>1595.56</ele>
  <time>2026-08-28T19:11:19Z</time>
  <course>82.84</course>
  <speed>0.0</speed>
  <fix>3d</fix>
</trkpt>
<trkpt lat="40.0728431" lon="-105.2308997">
  <ele>1595.47</ele>
  <time>2026-08-28T19:11:19Z</time>
  <course>122.07</course>
  <speed>0.0</speed>
  <fix>3d</fix>
</trkpt>
<trkpt lat="40.0728432" lon="-105.2308997">
  <ele>1595.56</ele>
  <time>2026-08-28T19:11:19Z</time>
  <course>83.77</course>
  <speed>0.0</speed>
  <fix>3d</fix>
</trkpt>
<trkpt lat="40.0728431" lon="-105.2308997">
  <ele>1595.47</ele>
  <time>2026-08-28T19:11:19Z</time>
  <course>130.58</course>
  <speed>0.0</speed>
  <fix>3d</fix>
</trkpt>
<trkpt lat="40.0728432" lon="-105.2308997">
  <ele>1595.56</ele>
  <time>2026-08-28T19:11:19Z</time>
  <course>84.26</course>
  <speed>0.0</speed>
  <fix>3d</fix>
</trkpt>
<trkpt lat="40.0728431" lon="-105.2308996">
  <ele>1595.47</ele>
  <time>2026-08-28T19:11:19Z</time>
  <course>133.85</course>
  <speed>0.01</speed>
  <fix>3d</fix>
</trkpt>
<trkpt lat="40.0728432" lon="-105.2308997">
  <ele>1595.56</ele>
  <time>2026-08-28T19:11:19Z</time>
  <course>84.23</course>
  <speed>0.0</speed>
  <fix>3d</fix>
</trkpt>
<trkpt lat="40.0728431" lon="-105.2308996">
  <ele>1595.47</ele>
  <time>2026-08-28T19:11:19Z</time>
  <course>134.61</course>
  <speed>0.01</speed>
  <fix>3d</fix>
</trkpt>
<trkpt lat="40.0728432" lon="-105.2308996">
  <ele>1595.55</ele>
  <time>2026-08-28T19:11:19Z</time>
  <course>83.76</course>
  <speed>0.01</speed>
  <fix>3d</fix>
</trkpt>
<trkpt lat="40.0728431" lon="-105.2308996">
  <ele>1595.47</ele>
  <time>2026-08-28T19:11:19Z</time>
  <course>134.65</course>
  <speed>0.01</speed>
  <fix>3d</fix>
</trkpt>
<trkpt lat="40.0728432" lon="-105.2308996">
  <ele>1595.55</ele>
  <time>2026-08-28T19:11:19Z</time>
  <course>82.88</course>
  <speed>0.01</speed>
  <fix>3d</fix>
</trkpt>
<trkpt lat="40.0728431" lon="-105.2308996">
  <ele>1595.47</ele>
  <time>2026-08-28T19:11:19Z</time>
  <course>132.51</course>
  <speed>0.01</speed>
  <fix>3d</fix>
</trkpt>
<trkpt lat="40.0728431" lon="-105.2308996">
  <ele>1595.55</ele>
  <time>2026-08-28T19:11:19Z</time>
  <course>81.64</course>
  <speed>0.01</speed>
  <fix>3d</fix>
</trkpt>
<trkpt lat="40.072843" lon="-105.2308995">
  <ele>1595.48</ele>
  <time>2026-08-28T19:11:19Z</time>
  <course>128.33</course>
  <speed>0.01</speed>
  <fix>3d</fix>
</trkpt>
<trkpt lat="40.0728431" lon="-105.2308995">
  <ele>1595.56</ele>
  <time>2026-08-28T19:11:19Z</time>
  <course>80.21</course>
  <speed>0.01</speed>
  <fix>3d</fix>
</trkpt>
<trkpt lat="40.072843" lon="-105.2308994">
  <ele>1595.48</ele>
  <time>2026-08-28T19:11:19Z</time>
  <course>123.51</course>
  <speed>0.02</speed>
  <fix>3d</fix>
</trkpt>
<trkpt lat="40.0728431" lon="-105.2308995">
  <ele>1595.57</ele>
  <time>2026-08-28T19:11:19Z</time>
  <course>78.69</course>
  <speed>0.01</speed>
  <fix>3d</fix>
</trkpt>
<trkpt lat="40.072843" lon="-105.2308994">
  <ele>1595.48</ele>
  <time>2026-08-28T19:11:19Z</time>
  <course>118.96</course>
  <speed>0.02</speed>
  <fix>3d</fix>
</trkpt>
<trkpt lat="40.0728431" lon="-105.2308994">
  <ele>1595.57</ele>
  <time>2026-08-28T19:11:19Z</time>
  <course>77.3</course>
  <speed>0.01</speed>
  <fix>3d</fix>
</trkpt>
<trkpt lat="40.072843" lon="-105.2308994">
  <ele>1595.49</ele>
  <time>2026-08-28T19:11:19Z</time>
  <course>113.81</course>
  <speed>0.02</speed>
  <fix>3d</fix>
</trkpt>
<trkpt lat="40.0728431" lon="-105.2308994">
  <ele>1595.57</ele>
  <time>2026-08-28T19:11:19Z</time>
  <course>76.04</course>
  <speed>0.01</speed>
  <fix>3d</fix>
</trkpt>
<trkpt lat="40.072843" lon="-105.2308994">
  <ele>1595.49</ele>
  <time>2026-08-28T19:11:19Z</time>
  <course>107.78</course>
  <speed>0.01</speed>
  <fix>3d</fix>
</trkpt>
<trkpt lat="40.072843" lon="-105.2308994">
  <ele>1595.57</ele>
  <time>2026-08-28T19:11:19Z</time>
  <course>75.1</course>
  <speed>0.01</speed>
  <fix>3d</fix>
</trkpt>
<trkpt lat="40.072843" lon="-105.2308993">
  <ele>1595.49</ele>
  <time>2026-08-28T19:11:19Z</time>
  <course>101.19</course>
  <speed>0.01</speed>
  <fix>3d</fix>
</trkpt>
<trkpt lat="40.0728431" lon="-105.2308993">
  <ele>1595.56</ele>
  <time>2026-08-28T19:11:19Z</time>
  <course>74.62</course>
  <speed>0.01</speed>
  <fix>3d</fix>
</trkpt>
<trkpt lat="40.072843" lon="-105.2308992">
  <ele>1595.49</ele>
  <time>2026-08-28T19:11:19Z</time>
  <course>92.51</course>
  <speed>0.01</speed>
  <fix>3d</fix>
</trkpt>
<trkpt lat="40.0728431" lon="-105.2308993">
  <ele>1595.56</ele>
  <time>2026-08-28T19:11:19Z</time>
  <course>74.58</course>
  <speed>0.01</speed>
  <fix>3d</fix>
</trkpt>
<trkpt lat="40.072843" lon="-105.2308992">
  <ele>1595.49</ele>
  <time>2026-08-28T19:11:19Z</time>
  <course>82.24</course>
  <speed>0.01</speed>
  <fix>3d</fix>
</trkpt>
<trkpt lat="40.0728431" lon="-105.2308993">
  <ele>1595.56</ele>
  <time>2026-08-28T19:11:19Z</time>
  <course>75.02</course>
  <speed>0.0</speed>
  <fix>3d</fix>
</trkpt>
<trkpt lat="40.072843" lon="-105.2308992">
  <ele>1595.49</ele>
  <time>2026-08-28T19:11:19Z</time>
  <course>72.33</course>
  <speed>0.01</speed>
  <fix>3d</fix>
</trkpt>
<trkpt lat="40.0728431" lon="-105.2308992">
  <ele>1595.57</ele>
  <time>2026-08-28T19:11:19Z</time>
  <course>75.93</course>
  <speed>0.0</speed>
  <fix>3d</fix>
</trkpt>
<trkpt lat="40.072843" lon="-105.2308992">
  <ele>1595.49</ele>
  <time>2026-08-28T19:11:19Z</time>
  <course>63.12</course>
  <speed>0.01</speed>
  <fix>3d</fix>
</trkpt>
<trkpt lat="40.0728431" lon="-105.2308992">
  <ele>1595.57</ele>
  <time>2026-08-28T19:11:19Z</time>
  <course>77.18</course>
  <speed>0.0</speed>
  <fix>3d</fix>
</trkpt>
<trkpt lat="40.072843" lon="-105.2308992">
  <ele>1595.49</ele>
  <time>2026-08-28T19:11:19Z</time>
  <course>55.29</course>
  <speed>0.01</speed>
  <fix>3d</fix>
</trkpt>
<trkpt lat="40.0728431" lon="-105.2308992">
  <ele>1595.57</ele>
  <time>2026-08-28T19:11:19Z</time>
  <course>78.63</course>
  <speed>0.0</speed>
  <fix>3d</fix>
</trkpt>
<trkpt lat="40.072843" lon="-105.2308991">
  <ele>1595.5</ele>
  <time>2026-08-28T19:11:19Z</time>
  <course>50.45</course>
  <speed>0.01</speed>
  <fix>3d</fix>
</trkpt>
<trkpt lat="40.0728431" lon="-105.2308992">
  <ele>1595.57</ele>
  <time>2026-08-28T19:11:19Z</time>
  <course>80.18</course>
  <speed>0.0</speed>
  <fix>3d</fix>
</trkpt>
<trkpt lat="40.072843" lon="-105.2308991">
  <ele>1595.5</ele>
  <time>2026-08-28T19:11:19Z</time>
  <course>49.04</course>
  <speed>0.01</speed>
  <fix>3d</fix>
</trkpt>
<trkpt lat="40.0728431" lon="-105.2308992">
  <ele>1595.58</ele>
  <time>2026-08-28T19:11:19Z</time>
  <course>81.64</course>
  <speed>0.0</speed>
  <fix>3d</fix>
</trkpt>
<trkpt lat="40.072843" lon="-105.2308991">
  <ele>1595.5</ele>
  <time>2026-08-28T19:11:19Z</time>
  <course>51.46</course>
  <speed>0.0</speed>
  <fix>3d</fix>
</trkpt>
<trkpt lat="40.0728431" lon="-105.2308991">
  <ele>1595.58</ele>
  <time>2026-08-28T19:11:19Z</time>
  <course>82.88</course>
  <speed>0.0</speed>
  <fix>3d</fix>
</trkpt>
<trkpt lat="40.072843" lon="-105.2308991">
  <ele>1595.5</ele>
  <time>2026-08-28T19:11:19Z</time>
  <course>56.86</course>
  <speed>0.0</speed>
  <fix>3d</fix>
</trkpt>
<trkpt lat="40.0728431" lon="-105.2308991">
  <ele>1595.57</ele>
  <time>2026-08-28T19:11:19Z</time>
  <course>83.81</course>
  <speed>0.0</speed>
  <fix>3d</fix>
</trkpt>
<trkpt lat="40.072843" lon="-105.2308991">
  <ele>1595.5</ele>
  <time>2026-08-28T19:11:19Z</time>
  <course>65.47</course>
  <speed>0.0</speed>
  <fix>3d</fix>
</trkpt>
<trkpt lat="40.0728431" lon="-105.2308991">
  <ele>1595.57</ele>
  <time>2026-08-28T19:11:19Z</time>
  <course>84.26</course>
  <speed>0.0</speed>
  <fix>3d</fix>
</trkpt>
<trkpt lat="40.072843" lon="-105.230899">
  <ele>1595.5</ele>
  <time>2026-08-28T19:11:19Z</time>
  <course>79.41</course>
  <speed>0.0</speed>
  <fix>3d</fix>
</trkpt>
<trkpt lat="40.0728431" lon="-105.2308991">
  <ele>1595.57</ele>
  <time>2026-08-28T19:11:19Z</time>
  <course>84.28</course>
  <speed>0.0</speed>
  <fix>3d</fix>
</trkpt>
<trkpt lat="40.072843" lon="-105.2308989">
  <ele>1595.5</ele>
  <time>2026-08-28T19:11:19Z</time>
  <course>94.31</course>
  <speed>0.0</speed>
  <fix>3d</fix>
</trkpt>
<trkpt lat="40.0728431" lon="-105.2308991">
  <ele>1595.57</ele>
  <time>2026-08-28T19:11:19Z</time>
  <course>83.79</course>
  <speed>0.0</speed>
  <fix>3d</fix>
</trkpt>
<trkpt lat="40.072843" lon="-105.2308989">
  <ele>1595.5</ele>
  <time>2026-08-28T19:11:19Z</time>
  <course>104.95</course>
  <speed>0.01</speed>
  <fix>3d</fix>
</trkpt>
<trkpt lat="40.0728431" lon="-105.230899">
  <ele>1595.56</ele>
  <time>2026-08-28T19:11:19Z</time>
  <course>82.92</course>
  <speed>0.01</speed>
  <fix>3d</fix>
</trkpt>
<trkpt lat="40.072843" lon="-105.2308989">
  <ele>1595.5</ele>
  <time>2026-08-28T19:11:19Z</time>
  <course>110.37</course>
  <speed>0.01</speed>
  <fix>3d</fix>
</trkpt>
<trkpt lat="40.072843" lon="-105.230899">
  <ele>1595.56</ele>
  <time>2026-08-28T19:11:19Z</time>
  <course>81.68</course>
  <speed>0.01414213562373095</speed>
  <fix>3d</fix>
</trkpt>
<trkpt lat="40.072843" lon="-105.2308989">
  <ele>1595.5</ele>
  <time>2026-08-28T19:11:19Z</time>
  <course>111.82</course>
  <speed>0.01</speed>
  <fix>3d</fix>
</trkpt>
<trkpt lat="40.072843" lon="-105.2308989">
  <ele>1595.57</ele>
  <time>2026-08-28T19:11:19Z</time>
  <course>80.21</course>
  <speed>0.01</speed>
  <fix>3d</fix>
</trkpt>
<trkpt lat="40.072843" lon="-105.2308989">
  <ele>1595.5</ele>
  <time>2026-08-28T19:11:19Z</time>
  <course>110.46</course>
  <speed>0.01</speed>
  <fix>3d</fix>
</trkpt>
<trkpt lat="40.072843" lon="-105.2308989">
  <ele>1595.57</ele>
  <time>2026-08-28T19:11:19Z</time>
  <course>78.7</course>
  <speed>0.01</speed>
  <fix>3d</fix>
</trkpt>
<trkpt lat="40.072843" lon="-105.2308988">
  <ele>1595.5</ele>
  <time>2026-08-28T19:11:19Z</time>
  <course>105.88</course>
  <speed>0.02</speed>
  <fix>3d</fix>
</trkpt>
<trkpt lat="40.072843" lon="-105.2308988">
  <ele>1595.57</ele>
  <time>2026-08-28T19:11:19Z</time>
  <course>77.24</course>
  <speed>0.01</speed>
  <fix>3d</fix>
</trkpt>
<trkpt lat="40.072843" lon="-105.2308987">
  <ele>1595.5</ele>
  <time>2026-08-28T19:11:19Z</time>
  <course>99.19</course>
  <speed>0.02</speed>
  <fix>3d</fix>
</trkpt>
<trkpt lat="40.072843" lon="-105.2308988">
  <ele>1595.57</ele>
  <time>2026-08-28T19:11:19Z</time>
  <course>76.0</course>
  <speed>0.01</speed>
  <fix>3d</fix>
</trkpt>
<trkpt lat="40.072843" lon="-105.2308987">
  <ele>1595.51</ele>
  <time>2026-08-28T19:11:19Z</time>
  <course>91.94</course>
  <speed>0.02</speed>
  <fix>3d</fix>
</trkpt>
<trkpt lat="40.072843" lon="-105.2308987">
  <ele>1595.57</ele>
  <time>2026-08-28T19:11:19Z</time>
  <course>75.08</course>
  <speed>0.01</speed>
  <fix>3d</fix>
</trkpt>
<trkpt lat="40.072843" lon="-105.2308987">
  <ele>1595.51</ele>
  <time>2026-08-28T19:11:19Z</time>
  <course>84.83</course>
  <speed>0.02</speed>
  <fix>3d</fix>
</trkpt>
<trkpt lat="40.072843" lon="-105.2308987">
  <ele>1595.57</ele>
  <time>2026-08-28T19:11:19Z</time>
  <course>74.61</course>
  <speed>0.01</speed>
  <fix>3d</fix>
</trkpt>
<trkpt lat="40.072843" lon="-105.2308986">
  <ele>1595.51</ele>
  <time>2026-08-28T19:11:19Z</time>
  <course>77.49</course>
  <speed>0.02</speed>
  <fix>3d</fix>
</trkpt>
<trkpt lat="40.072843" lon="-105.2308986">
  <ele>1595.57</ele>
  <time>2026-08-28T19:11:19Z</time>
  <course>74.6</course>
  <speed>0.01</speed>
  <fix>3d</fix>
</trkpt>
<trkpt lat="40.072843" lon="-105.2308985">
  <ele>1595.51</ele>
  <time>2026-08-28T19:11:19Z</time>
  <course>69.41</course>
  <speed>0.02</speed>
  <fix>3d</fix>
</trkpt>
<trkpt lat="40.072843" lon="-105.2308986">
  <ele>1595.57</ele>
  <time>2026-08-28T19:11:19Z</time>
  <course>75.06</course>
  <speed>0.01</speed>
  <fix>3d</fix>
</trkpt>
<trkpt lat="40.072843" lon="-105.2308985">
  <ele>1595.51</ele>
  <time>2026-08-28T19:11:19Z</time>
  <course>60.92</course>
  <speed>0.01</speed>
  <fix>3d</fix>
</trkpt>
<trkpt lat="40.072843" lon="-105.2308986">
  <ele>1595.57</ele>
  <time>2026-08-28T19:11:19Z</time>
  <course>75.94</course>
  <speed>0.01</speed>
  <fix>3d</fix>
</trkpt>
<trkpt lat="40.072843" lon="-105.2308985">
  <ele>1595.51</ele>
  <time>2026-08-28T19:11:19Z</time>
  <course>53.69</course>
  <speed>0.01</speed>
  <fix>3d</fix>
</trkpt>
<trkpt lat="40.072843" lon="-105.2308985">
  <ele>1595.58</ele>
  <time>2026-08-28T19:11:19Z</time>
  <course>77.2</course>
  <speed>0.01</speed>
  <fix>3d</fix>
</trkpt>
<trkpt lat="40.072843" lon="-105.2308985">
  <ele>1595.51</ele>
  <time>2026-08-28T19:11:19Z</time>
  <course>48.27</course>
  <speed>0.01</speed>
  <fix>3d</fix>
</trkpt>
<trkpt lat="40.072843" lon="-105.2308985">
  <ele>1595.58</ele>
  <time>2026-08-28T19:11:19Z</time>
  <course>78.67</course>
  <speed>0.01</speed>
  <fix>3d</fix>
</trkpt>
<trkpt lat="40.072843" lon="-105.2308984">
  <ele>1595.51</ele>
  <time>2026-08-28T19:11:19Z</time>
  <course>43.84</course>
  <speed>0.01</speed>
  <fix>3d</fix>
</trkpt>
<trkpt lat="40.072843" lon="-105.2308985">
  <ele>1595.59</ele>
  <time>2026-08-28T19:11:19Z</time>
  <course>80.2</course>
  <speed>0.01</speed>
  <fix>3d</fix>
</trkpt>
<trkpt lat="40.072843" lon="-105.2308984">
  <ele>1595.51</ele>
  <time>2026-08-28T19:11:19Z</time>
  <course>40.59</course>
  <speed>0.01</speed>
  <fix>3d</fix>
</trkpt>
<trkpt lat="40.0728431" lon="-105.2308984">
  <ele>1595.59</ele>
  <time>2026-08-28T19:11:19Z</time>
  <course>81.67</course>
  <speed>0.0</speed>
  <fix>3d</fix>
</trkpt>
<trkpt lat="40.072843" lon="-105.2308984">
  <ele>1595.51</ele>
  <time>2026-08-28T19:11:19Z</time>
  <course>40.61</course>
  <speed>0.01</speed>
  <fix>3d</fix>
</trkpt>
<trkpt lat="40.0728431" lon="-105.2308984">
  <ele>1595.59</ele>
  <time>2026-08-28T19:11:19Z</time>
  <course>82.92</course>
  <speed>0.0</speed>
  <fix>3d</fix>
</trkpt>
<trkpt lat="40.0728431" lon="-105.2308984">
  <ele>1595.51</ele>
  <time>2026-08-28T19:11:19Z</time>
  <course>45.35</course>
  <speed>0.01</speed>
  <fix>3d</fix>
</trkpt>
<trkpt lat="40.0728431" lon="-105.2308984">
  <ele>1595.59</ele>
  <time>2026-08-28T19:11:19Z</time>
  <course>83.85</course>
  <speed>0.0</speed>
  <fix>3d</fix>
</trkpt>
<trkpt lat="40.0728431" lon="-105.2308983">
  <ele>1595.5</ele>
  <time>2026-08-28T19:11:19Z</time>
  <course>54.24</course>
  <speed>0.01</speed>
  <fix>3d</fix>
</trkpt>
<trkpt lat="40.0728431" lon="-105.2308984">
  <ele>1595.58</ele>
  <time>2026-08-28T19:11:19Z</time>
  <course>84.33</course>
  <speed>0.01</speed>
  <fix>3d</fix>
</trkpt>
<trkpt lat="40.0728431" lon="-105.2308982">
  <ele>1595.5</ele>
  <time>2026-08-28T19:11:19Z</time>
  <course>65.22</course>
  <speed>0.01</speed>
  <fix>3d</fix>
</trkpt>
<trkpt lat="40.0728431" lon="-105.2308983">
  <ele>1595.58</ele>
  <time>2026-08-28T19:11:19Z</time>
  <course>84.32</course>
  <speed>0.01</speed>
  <fix>3d</fix>
</trkpt>
<trkpt lat="40.0728431" lon="-105.2308982">
  <ele>1595.5</ele>
  <time>2026-08-28T19:11:19Z</time>
  <course>75.0</course>
  <speed>0.01</speed>
  <fix>3d</fix>
</trkpt>
<trkpt lat="40.0728431" lon="-105.2308983">
  <ele>1595.58</ele>
  <time>2026-08-28T19:11:19Z</time>
  <course>83.8</course>
  <speed>0.01</speed>
  <fix>3d</fix>
</trkpt>
<trkpt lat="40.0728431" lon="-105.2308982">
  <ele>1595.49</ele>
  <time>2026-08-28T19:11:19Z</time>
  <course>82.6</course>
  <speed>0.01</speed>
  <fix>3d</fix>
</trkpt>
<trkpt lat="40.0728431" lon="-105.2308982">
  <ele>1595.58</ele>
  <time>2026-08-28T19:11:19Z</time>
  <course>82.94</course>
  <speed>0.01</speed>
  <fix>3d</fix>
</trkpt>
<trkpt lat="40.0728431" lon="-105.2308982">
  <ele>1595.49</ele>
  <time>2026-08-28T19:11:19Z</time>
  <course>86.83</course>
  <speed>0.01</speed>
  <fix>3d</fix>
</trkpt>
<trkpt lat="40.0728431" lon="-105.2308982">
  <ele>1595.58</ele>
  <time>2026-08-28T19:11:19Z</time>
  <course>81.73</course>
  <speed>0.01</speed>
  <fix>3d</fix>
</trkpt>
<trkpt lat="40.0728431" lon="-105.2308981">
  <ele>1595.49</ele>
  <time>2026-08-28T19:11:19Z</time>
  <course>87.89</course>
  <speed>0.02</speed>
  <fix>3d</fix>
</trkpt>
<trkpt lat="40.0728431" lon="-105.2308981">
  <ele>1595.58</ele>
  <time>2026-08-28T19:11:19Z</time>
  <course>80.3</course>
  <speed>0.01</speed>
  <fix>3d</fix>
</trkpt>
<trkpt lat="40.0728431" lon="-105.230898">
  <ele>1595.48</ele>
  <time>2026-08-28T19:11:19Z</time>
  <course>87.32</course>
  <speed>0.02</speed>
  <fix>3d</fix>
</trkpt>
<trkpt lat="40.0728431" lon="-105.2308981">
  <ele>1595.58</ele>
  <time>2026-08-28T19:11:19Z</time>
  <course>78.77</course>
  <speed>0.01</speed>
  <fix>3d</fix>
</trkpt>
<trkpt lat="40.0728431" lon="-105.230898">
  <ele>1595.48</ele>
  <time>2026-08-28T19:11:19Z</time>
  <course>85.05</course>
  <speed>0.02</speed>
  <fix>3d</fix>
</trkpt>
<trkpt lat="40.0728431" lon="-105.230898">
  <ele>1595.58</ele>
  <time>2026-08-28T19:11:19Z</time>
  <course>77.31</course>
  <speed>0.01</speed>
  <fix>3d</fix>
</trkpt>
<trkpt lat="40.0728431" lon="-105.2308979">
  <ele>1595.48</ele>
  <time>2026-08-28T19:11:19Z</time>
  <course>80.85</course>
  <speed>0.02</speed>
  <fix>3d</fix>
</trkpt>
<trkpt lat="40.0728431" lon="-105.230898">
  <ele>1595.58</ele>
  <time>2026-08-28T19:11:19Z</time>
  <course>76.04</course>
  <speed>0.01</speed>
  <fix>3d</fix>
</trkpt>
<trkpt lat="40.0728431" lon="-105.2308979">
  <ele>1595.48</ele>
  <time>2026-08-28T19:11:19Z</time>
  <course>75.89</course>
  <speed>0.02</speed>
  <fix>3d</fix>
</trkpt>
<trkpt lat="40.0728431" lon="-105.2308979">
  <ele>1595.57</ele>
  <time>2026-08-28T19:11:19Z</time>
  <course>75.14</course>
  <speed>0.01</speed>
  <fix>3d</fix>
</trkpt>
<trkpt lat="40.0728431" lon="-105.2308978">
  <ele>1595.47</ele>
  <time>2026-08-28T19:11:19Z</time>
  <course>69.96</course>
  <speed>0.02</speed>
  <fix>3d</fix>
</trkpt>
<trkpt lat="40.0728431" lon="-105.2308978">
  <ele>1595.56</ele>
  <time>2026-08-28T19:11:19Z</time>
  <course>74.63</course>
  <speed>0.01</speed>
  <fix>3d</fix>
</trkpt>
<trkpt lat="40.0728432" lon="-105.2308977">
  <ele>1595.47</ele>
  <time>2026-08-28T19:11:19Z</time>
  <course>63.72</course>
  <speed>0.02</speed>
  <fix>3d</fix>
</trkpt>
<trkpt lat="40.0728431" lon="-105.2308978">
  <ele>1595.56</ele>
  <time>2026-08-28T19:11:19Z</time>
  <course>74.52</course>
  <speed>0.01</speed>
  <fix>3d</fix>
</trkpt>
<trkpt lat="40.0728432" lon="-105.2308977">
  <ele>1595.47</ele>
  <time>2026-08-28T19:11:19Z</time>
  <course>58.47</course>
  <speed>0.02</speed>
  <fix>3d</fix>
</trkpt>
<trkpt lat="40.0728431" lon="-105.2308977">
  <ele>1595.55</ele>
  <time>2026-08-28T19:11:19Z</time>
  <course>74.29</course>
  <speed>0.01</speed>
  <fix>3d</fix>
</trkpt>
<trkpt lat="40.0728432" lon="-105.2308977">
  <ele>1595.47</ele>
  <time>2026-08-28T19:11:19Z</time>
  <course>57.69</course>
  <speed>0.02</speed>
  <fix>3d</fix>
</trkpt>
<trkpt lat="40.0728431" lon="-105.2308977">
  <ele>1595.55</ele>
  <time>2026-08-28T19:11:19Z</time>
  <course>74.14</course>
  <speed>0.01</speed>
  <fix>3d</fix>
</trkpt>
<trkpt lat="40.0728432" lon="-105.2308976">
  <ele>1595.47</ele>
  <time>2026-08-28T19:11:19Z</time>
  <course>60.38</course>
  <speed>0.02</speed>
  <fix>3d</fix>
</trkpt>
<trkpt lat="40.0728432" lon="-105.2308976">
  <ele>1595.55</ele>
  <time>2026-08-28T19:11:19Z</time>
  <course>74.1</course>
  <speed>0.02</speed>
  <fix>3d</fix>
</trkpt>
<trkpt lat="40.0728432" lon="-105.2308975">
  <ele>1595.47</ele>
  <time>2026-08-28T19:11:19Z</time>
  <course>61.79</course>
  <speed>0.03</speed>
  <fix>3d</fix>
</trkpt>
<trkpt lat="40.0728432" lon="-105.2308976">
  <ele>1595.55</ele>
  <time>2026-08-28T19:11:19Z</time>
  <course>74.05</course>
  <speed>0.02</speed>
  <fix>3d</fix>
</trkpt>
<trkpt lat="40.0728432" lon="-105.2308975">
  <ele>1595.47</ele>
  <time>2026-08-28T19:11:19Z</time>
  <course>62.42</course>
  <speed>0.03</speed>
  <fix>3d</fix>
</trkpt>
<trkpt lat="40.0728432" lon="-105.2308975">
  <ele>1595.55</ele>
  <time>2026-08-28T19:11:19Z</time>
  <course>74.05</course>
  <speed>0.02</speed>
  <fix>3d</fix>
</trkpt>
<trkpt lat="40.0728432" lon="-105.2308974">
  <ele>1595.48</ele>
  <time>2026-08-28T19:11:19Z</time>
  <course>62.97</course>
  <speed>0.03</speed>
  <fix>3d</fix>
</trkpt>
<trkpt lat="40.0728432" lon="-105.2308974">
  <ele>1595.56</ele>
  <time>2026-08-28T19:11:19Z</time>
  <course>74.08</course>
  <speed>0.02</speed>
  <fix>3d</fix>
</trkpt>
<trkpt lat="40.0728433" lon="-105.2308973">
  <ele>1595.48</ele>
  <time>2026-08-28T19:11:19Z</time>
  <course>63.81</course>
  <speed>0.03</speed>
  <fix>3d</fix>
</trkpt>
<trkpt lat="40.0728433" lon="-105.2308973">
  <ele>1595.56</ele>
  <time>2026-08-28T19:11:19Z</time>
  <course>74.09</course>
  <speed>0.0316227766016838</speed>
  <fix>3d</fix>
</trkpt>
<trkpt lat="40.0728433" lon="-105.2308972">
  <ele>1595.49</ele>
  <time>2026-08-28T19:11:19Z</time>
  <course>64.38</course>
  <speed>0.04</speed>
  <fix>3d</fix>
</trkpt>
<trkpt lat="40.0728433" lon="-105.2308972">
  <ele>1595.56</ele>
  <time>2026-08-28T19:11:19Z</time>
  <course>74.1</course>
  <speed>0.0316227766016838</speed>
  <fix>3d</fix>
</trkpt>
<trkpt lat="40.0728433" lon="-105.2308971">
  <ele>1595.49</ele>
  <time>2026-08-28T19:11:19Z</time>
  <course>64.79</course>
  <speed>0.04</speed>
  <fix>3d</fix>
</trkpt>
<trkpt lat="40.0728433" lon="-105.2308971">
  <ele>1595.57</ele>
  <time>2026-08-28T19:11:19Z</time>
  <course>74.11</course>
  <speed>0.0316227766016838</speed>
  <fix>3d</fix>
</trkpt>
<trkpt lat="40.0728434" lon="-105.230897">
  <ele>1595.49</ele>
  <time>2026-08-28T19:11:19Z</time>
  <course>65.63</course>
  <speed>0.04</speed>
  <fix>3d</fix>
</trkpt>
<trkpt lat="40.0728434" lon="-105.230897">
  <ele>1595.57</ele>
  <time>2026-08-28T19:11:20Z</time>
  <course>74.13</course>
  <speed>0.0412310562561766</speed>
  <fix>3d</fix>
</trkpt>
<trkpt lat="40.0728435" lon="-105.2308969">
  <ele>1595.49</ele>
  <time>2026-08-28T19:11:20Z</time>
  <course>66.15</course>
  <speed>0.05</speed>
  <fix>3d</fix>
</trkpt>
<trkpt lat="40.0728434" lon="-105.2308969">
  <ele>1595.57</ele>
  <time>2026-08-28T19:11:20Z</time>
  <course>74.14</course>
  <speed>0.0412310562561766</speed>
  <fix>3d</fix>
</trkpt>
<trkpt lat="40.0728435" lon="-105.2308968">
  <ele>1595.5</ele>
  <time>2026-08-28T19:11:20Z</time>
  <course>66.23</course>
  <speed>0.05</speed>
  <fix>3d</fix>
</trkpt>
<trkpt lat="40.0728434" lon="-105.2308967">
  <ele>1595.57</ele>
  <time>2026-08-28T19:11:20Z</time>
  <course>74.15</course>
  <speed>0.0412310562561766</speed>
  <fix>3d</fix>
</trkpt>
<trkpt lat="40.0728435" lon="-105.2308967">
  <ele>1595.5</ele>
  <time>2026-08-28T19:11:20Z</time>
  <course>66.39</course>
  <speed>0.05</speed>
  <fix>3d</fix>
</trkpt>
<trkpt lat="40.0728435" lon="-105.2308966">
  <ele>1595.57</ele>
  <time>2026-08-28T19:11:20Z</time>
  <course>74.16</course>
  <speed>0.0412310562561766</speed>
  <fix>3d</fix>
</trkpt>
<trkpt lat="40.0728436" lon="-105.2308966">
  <ele>1595.5</ele>
  <time>2026-08-28T19:11:20Z</time>
  <course>66.57</course>
  <speed>0.05</speed>
  <fix>3d</fix>
</trkpt>
<trkpt lat="40.0728435" lon="-105.2308965">
  <ele>1595.57</ele>
  <time>2026-08-28T19:11:20Z</time>
  <course>74.16</course>
  <speed>0.05099019513592785</speed>
  <fix>3d</fix>
</trkpt>
<trkpt lat="40.0728436" lon="-105.2308965">
  <ele>1595.5</ele>
  <time>2026-08-28T19:11:20Z</time>
  <course>66.76</course>
  <speed>0.06</speed>
  <fix>3d</fix>
</trkpt>
<trkpt lat="40.0728436" lon="-105.2308964">
  <ele>1595.57</ele>
  <time>2026-08-28T19:11:20Z</time>
  <course>74.19</course>
  <speed>0.05099019513592785</speed>
  <fix>3d</fix>
</trkpt>
<trkpt lat="40.0728437" lon="-105.2308963">
  <ele>1595.5</ele>
  <time>2026-08-28T19:11:20Z</time>
  <course>66.97</course>
  <speed>0.06</speed>
  <fix>3d</fix>
</trkpt>
<trkpt lat="40.0728436" lon="-105.2308962">
  <ele>1595.58</ele>
  <time>2026-08-28T19:11:20Z</time>
  <course>74.18</course>
  <speed>0.05099019513592785</speed>
  <fix>3d</fix>
</trkpt>
<trkpt lat="40.0728437" lon="-105.2308962">
  <ele>1595.5</ele>
  <time>2026-08-28T19:11:20Z</time>
  <course>67.36</course>
  <speed>0.06</speed>
  <fix>3d</fix>
</trkpt>
<trkpt lat="40.0728437" lon="-105.2308961">
  <ele>1595.58</ele>
  <time>2026-08-28T19:11:20Z</time>
  <course>73.8</course>
  <speed>0.05099019513592785</speed>
  <fix>3d</fix>
</trkpt>
<trkpt lat="40.0728438" lon="-105.2308961">
  <ele>1595.5</ele>
  <time>2026-08-28T19:11:20Z</time>
  <course>69.11</course>
  <speed>0.06</speed>
  <fix>3d</fix>
</trkpt>
<trkpt lat="40.0728437" lon="-105.2308959">
  <ele>1595.57</ele>
  <time>2026-08-28T19:11:20Z</time>
  <course>72.59</course>
  <speed>0.05099019513592785</speed>
  <fix>3d</fix>
</trkpt>
<trkpt lat="40.0728438" lon="-105.2308959">
  <ele>1595.5</ele>
  <time>2026-08-28T19:11:20Z</time>
  <course>71.58</course>
  <speed>0.07</speed>
  <fix>3d</fix>
</trkpt>
<trkpt lat="40.0728437" lon="-105.2308958">
  <ele>1595.57</ele>
  <time>2026-08-28T19:11:20Z</time>
  <course>71.26</course>
  <speed>0.05099019513592785</speed>
  <fix>3d</fix>
</trkpt>
<trkpt lat="40.0728438" lon="-105.2308957">
  <ele>1595.5</ele>
  <time>2026-08-28T19:11:20Z</time>
  <course>72.67</course>
  <speed>0.06</speed>
  <fix>3d</fix>
</trkpt>
<trkpt lat="40.0728438" lon="-105.2308956">
  <ele>1595.57</ele>
  <time>2026-08-28T19:11:20Z</time>
  <course>70.19</course>
  <speed>0.05099019513592785</speed>
  <fix>3d</fix>
</trkpt>
<trkpt lat="40.0728438" lon="-105.2308956">
  <ele>1595.5</ele>
  <time>2026-08-28T19:11:20Z</time>
  <course>72.07</course>
  <speed>0.06</speed>
  <fix>3d</fix>
</trkpt>
<trkpt lat="40.0728438" lon="-105.2308955">
  <ele>1595.57</ele>
  <time>2026-08-28T19:11:20Z</time>
  <course>69.51</course>
  <speed>0.0412310562561766</speed>
  <fix>3d</fix>
</trkpt>
<trkpt lat="40.0728439" lon="-105.2308954">
  <ele>1595.5</ele>
  <time>2026-08-28T19:11:20Z</time>
  <course>70.23</course>
  <speed>0.06</speed>
  <fix>3d</fix>
</trkpt>
<trkpt lat="40.0728439" lon="-105.2308954">
  <ele>1595.57</ele>
  <time>2026-08-28T19:11:20Z</time>
  <course>69.29</course>
  <speed>0.0316227766016838</speed>
  <fix>3d</fix>
</trkpt>
<trkpt lat="40.0728439" lon="-105.2308953">
  <ele>1595.5</ele>
  <time>2026-08-28T19:11:20Z</time>
  <course>67.63</course>
  <speed>0.05</speed>
  <fix>3d</fix>
</trkpt>
<trkpt lat="40.0728439" lon="-105.2308953">
  <ele>1595.57</ele>
  <time>2026-08-28T19:11:20Z</time>
  <course>69.52</course>
  <speed>0.0316227766016838</speed>
  <fix>3d</fix>
</trkpt>
<trkpt lat="40.0728439" lon="-105.2308952">
  <ele>1595.49</ele>
  <time>2026-08-28T19:11:20Z</time>
  <course>64.43</course>
  <speed>0.05</speed>
  <fix>3d</fix>
</trkpt>
<trkpt lat="40.0728439" lon="-105.2308952">
  <ele>1595.58</ele>
  <time>2026-08-28T19:11:20Z</time>
  <course>70.22</course>
  <speed>0.022360679774997897</speed>
  <fix>3d</fix>
</trkpt>
<trkpt lat="40.072844" lon="-105.2308951">
  <ele>1595.49</ele>
  <time>2026-08-28T19:11:20Z</time>
  <course>60.78</course>
  <speed>0.04</speed>
  <fix>3d</fix>
</trkpt>
<trkpt lat="40.072844" lon="-105.2308951">
  <ele>1595.58</ele>
  <time>2026-08-28T19:11:20Z</time>
  <course>71.33</course>
  <speed>0.01414213562373095</speed>
  <fix>3d</fix>
</trkpt>
<trkpt lat="40.0728441" lon="-105.230895">
  <ele>1595.49</ele>
  <time>2026-08-28T19:11:20Z</time>
  <course>56.48</course>
  <speed>0.03</speed>
  <fix>3d</fix>
</trkpt>
<trkpt lat="40.072844" lon="-105.230895">
  <ele>1595.58</ele>
  <time>2026-08-28T19:11:20Z</time>
  <course>72.7</course>
  <speed>0.01414213562373095</speed>
  <fix>3d</fix>
</trkpt>
<trkpt lat="40.0728441" lon="-105.2308949">
  <ele>1595.49</ele>
  <time>2026-08-28T19:11:20Z</time>
  <course>51.77</course>
  <speed>0.03</speed>
  <fix>3d</fix>
</trkpt>
<trkpt lat="40.072844" lon="-105.230895">
  <ele>1595.57</ele>
  <time>2026-08-28T19:11:20Z</time>
  <course>74.21</course>
  <speed>0.01</speed>
  <fix>3d</fix>
</trkpt>
<trkpt lat="40.0728442" lon="-105.2308949">
  <ele>1595.49</ele>
  <time>2026-08-28T19:11:20Z</time>
  <course>47.18</course>
  <speed>0.02</speed>
  <fix>3d</fix>
</trkpt>
<trkpt lat="40.0728441" lon="-105.230895">
  <ele>1595.56</ele>
  <time>2026-08-28T19:11:20Z</time>
  <course>75.69</course>
  <speed>0.0</speed>
  <fix>3d</fix>
</trkpt>
<trkpt lat="40.0728442" lon="-105.2308949">
  <ele>1595.49</ele>
  <time>2026-08-28T19:11:20Z</time>
  <course>42.99</course>
  <speed>0.02</speed>
  <fix>3d</fix>
</trkpt>
<trkpt lat="40.0728441" lon="-105.2308949">
  <ele>1595.56</ele>
  <time>2026-08-28T19:11:20Z</time>
  <course>77.04</course>
  <speed>0.0</speed>
  <fix>3d</fix>
</trkpt>
<trkpt lat="40.0728442" lon="-105.2308948">
  <ele>1595.49</ele>
  <time>2026-08-28T19:11:20Z</time>
  <course>41.73</course>
  <speed>0.02</speed>
  <fix>3d</fix>
</trkpt>
<trkpt lat="40.0728441" lon="-105.2308949">
  <ele>1595.56</ele>
  <time>2026-08-28T19:11:20Z</time>
  <course>78.1</course>
  <speed>0.0</speed>
  <fix>3d</fix>
</trkpt>
<trkpt lat="40.0728442" lon="-105.2308948">
  <ele>1595.48</ele>
  <time>2026-08-28T19:11:20Z</time>
  <course>44.41</course>
  <speed>0.02</speed>
  <fix>3d</fix>
</trkpt>
<trkpt lat="40.0728441" lon="-105.2308949">
  <ele>1595.56</ele>
  <time>2026-08-28T19:11:20Z</time>
  <course>78.8</course>
  <speed>0.0</speed>
  <fix>3d</fix>
</trkpt>
<trkpt lat="40.0728443" lon="-105.2308948">
  <ele>1595.48</ele>
  <time>2026-08-28T19:11:20Z</time>
  <course>49.46</course>
  <speed>0.01</speed>
  <fix>3d</fix>
</trkpt>
<trkpt lat="40.0728442" lon="-105.2308948">
  <ele>1595.56</ele>
  <time>2026-08-28T19:11:20Z</time>
  <course>79.04</course>
  <speed>0.0</speed>
  <fix>3d</fix>
</trkpt>
<trkpt lat="40.0728443" lon="-105.2308947">
  <ele>1595.49</ele>
  <time>2026-08-28T19:11:20Z</time>
  <course>55.55</course>
  <speed>0.01</speed>
  <fix>3d</fix>
</trkpt>
<trkpt lat="40.0728442" lon="-105.2308948">
  <ele>1595.56</ele>
  <time>2026-08-28T19:11:20Z</time>
  <course>78.8</course>
  <speed>0.01</speed>
  <fix>3d</fix>
</trkpt>
<trkpt lat="40.0728443" lon="-105.2308946">
  <ele>1595.49</ele>
  <time>2026-08-28T19:11:20Z</time>
  <course>61.39</course>
  <speed>0.01</speed>
  <fix>3d</fix>
</trkpt>
<trkpt lat="40.0728442" lon="-105.2308947">
  <ele>1595.57</ele>
  <time>2026-08-28T19:11:20Z</time>
  <course>78.11</course>
  <speed>0.01</speed>
  <fix>3d</fix>
</trkpt>
<trkpt lat="40.0728443" lon="-105.2308946">
  <ele>1595.49</ele>
  <time>2026-08-28T19:11:20Z</time>
  <course>66.65</course>
  <speed>0.02</speed>
  <fix>3d</fix>
</trkpt>
<trkpt lat="40.0728442" lon="-105.2308947">
  <ele>1595.57</ele>
  <time>2026-08-28T19:11:20Z</time>
  <course>77.02</course>
  <speed>0.01</speed>
  <fix>3d</fix>
</trkpt>
<trkpt lat="40.0728443" lon="-105.2308946">
  <ele>1595.49</ele>
  <time>2026-08-28T19:11:20Z</time>
  <course>70.83</course>
  <speed>0.02</speed>
  <fix>3d</fix>
</trkpt>
<trkpt lat="40.0728442" lon="-105.2308946">
  <ele>1595.57</ele>
  <time>2026-08-28T19:11:20Z</time>
  <course>75.67</course>
  <speed>0.01</speed>
  <fix>3d</fix>
</trkpt>
<trkpt lat="40.0728444" lon="-105.2308945">
  <ele>1595.49</ele>
  <time>2026-08-28T19:11:20Z</time>
  <course>71.93</course>
  <speed>0.02</speed>
  <fix>3d</fix>
</trkpt>
<trkpt lat="40.0728443" lon="-105.2308946">
  <ele>1595.57</ele>
  <time>2026-08-28T19:11:20Z</time>
  <course>74.18</course>
  <speed>0.01</speed>
  <fix>3d</fix>
</trkpt>
<trkpt lat="40.0728444" lon="-105.2308944">
  <ele>1595.49</ele>
  <time>2026-08-28T19:11:20Z</time>
  <course>71.06</course>
  <speed>0.02</speed>
  <fix>3d</fix>
</trkpt>
<trkpt lat="40.0728443" lon="-105.2308945">
  <ele>1595.57</ele>
  <time>2026-08-28T19:11:20Z</time>
  <course>72.68</course>
  <speed>0.02</speed>
  <fix>3d</fix>
</trkpt>
<trkpt lat="40.0728444" lon="-105.2308944">
  <ele>1595.49</ele>
  <time>2026-08-28T19:11:20Z</time>
  <course>69.41</course>
  <speed>0.02</speed>
  <fix>3d</fix>
</trkpt>
<trkpt lat="40.0728443" lon="-105.2308944">
  <ele>1595.57</ele>
  <time>2026-08-28T19:11:20Z</time>
  <course>71.3</course>
  <speed>0.02</speed>
  <fix>3d</fix>
</trkpt>
<trkpt lat="40.0728444" lon="-105.2308943">
  <ele>1595.49</ele>
  <time>2026-08-28T19:11:20Z</time>
  <course>66.58</course>
  <speed>0.03</speed>
  <fix>3d</fix>
</trkpt>
<trkpt lat="40.0728443" lon="-105.2308943">
  <ele>1595.57</ele>
  <time>2026-08-28T19:11:20Z</time>
  <course>70.21</course>
  <speed>0.02</speed>
  <fix>3d</fix>
</trkpt>
<trkpt lat="40.0728444" lon="-105.2308942">
  <ele>1595.49</ele>
  <time>2026-08-28T19:11:20Z</time>
  <course>62.19</course>
  <speed>0.03</speed>
  <fix>3d</fix>
</trkpt>
<trkpt lat="40.0728443" lon="-105.2308943">
  <ele>1595.57</ele>
  <time>2026-08-28T19:11:20Z</time>
  <course>69.52</course>
  <speed>0.01</speed>
  <fix>3d</fix>
</trkpt>
<trkpt lat="40.0728444" lon="-105.2308942">
  <ele>1595.49</ele>
  <time>2026-08-28T19:11:20Z</time>
  <course>56.83</course>
  <speed>0.03</speed>
  <fix>3d</fix>
</trkpt>
<trkpt lat="40.0728444" lon="-105.2308942">
  <ele>1595.57</ele>
  <time>2026-08-28T19:11:20Z</time>
  <course>69.28</course>
  <speed>0.01</speed>
  <fix>3d</fix>
</trkpt>
<trkpt lat="40.0728444" lon="-105.2308942">
  <ele>1595.49</ele>
  <time>2026-08-28T19:11:20Z</time>
  <course>51.91</course>
  <speed>0.03</speed>
  <fix>3d</fix>
</trkpt>
<trkpt lat="40.0728444" lon="-105.2308942">
  <ele>1595.57</ele>
  <time>2026-08-28T19:11:20Z</time>
  <course>69.51</course>
  <speed>0.01414213562373095</speed>
  <fix>3d</fix>
</trkpt>
<trkpt lat="40.0728445" lon="-105.2308941">
  <ele>1595.49</ele>
  <time>2026-08-28T19:11:20Z</time>
  <course>47.45</course>
  <speed>0.03</speed>
  <fix>3d</fix>
</trkpt>
<trkpt lat="40.0728444" lon="-105.2308941">
  <ele>1595.57</ele>
  <time>2026-08-28T19:11:20Z</time>
  <course>70.2</course>
  <speed>0.01414213562373095</speed>
  <fix>3d</fix>
</trkpt>
<trkpt lat="40.0728445" lon="-105.230894">
  <ele>1595.49</ele>
  <time>2026-08-28T19:11:20Z</time>
  <course>43.53</course>
  <speed>0.03</speed>
  <fix>3d</fix>
</trkpt>
<trkpt lat="40.0728445" lon="-105.2308941">
  <ele>1595.57</ele>
  <time>2026-08-28T19:11:20Z</time>
  <course>71.31</course>
  <speed>0.01414213562373095</speed>
  <fix>3d</fix>
</trkpt>
<trkpt lat="40.0728446" lon="-105.2308939">
  <ele>1595.49</ele>
  <time>2026-08-28T19:11:20Z</time>
  <course>41.11</course>
  <speed>0.03</speed>
  <fix>3d</fix>
</trkpt>
<trkpt lat="40.0728445" lon="-105.230894">
  <ele>1595.58</ele>
  <time>2026-08-28T19:11:20Z</time>
  <course>72.67</course>
  <speed>0.01414213562373095</speed>
  <fix>3d</fix>
</trkpt>
<trkpt lat="40.0728447" lon="-105.2308939">
  <ele>1595.49</ele>
  <time>2026-08-28T19:11:20Z</time>
  <course>38.97</course>
  <speed>0.03</speed>
  <fix>3d</fix>
</trkpt>
<trkpt lat="40.0728446" lon="-105.230894">
  <ele>1595.58</ele>
  <time>2026-08-28T19:11:20Z</time>
  <course>74.21</course>
  <speed>0.01414213562373095</speed>
  <fix>3d</fix>
</trkpt>
<trkpt lat="40.0728447" lon="-105.2308939">
  <ele>1595.49</ele>
  <time>2026-08-28T19:11:20Z</time>
  <course>36.39</course>
  <speed>0.03</speed>
  <fix>3d</fix>
</trkpt>
<trkpt lat="40.0728446" lon="-105.2308939">
  <ele>1595.58</ele>
  <time>2026-08-28T19:11:20Z</time>
  <course>75.7</course>
  <speed>0.01414213562373095</speed>
  <fix>3d</fix>
</trkpt>
<trkpt lat="40.0728447" lon="-105.2308939">
  <ele>1595.49</ele>
  <time>2026-08-28T19:11:20Z</time>
  <course>35.51</course>
  <speed>0.03</speed>
  <fix>3d</fix>
</trkpt>
<trkpt lat="40.0728447" lon="-105.2308939">
  <ele>1595.58</ele>
  <time>2026-08-28T19:11:20Z</time>
  <course>77.08</course>
  <speed>0.01414213562373095</speed>
  <fix>3d</fix>
</trkpt>
<trkpt lat="40.0728448" lon="-105.2308938">
  <ele>1595.49</ele>
  <time>2026-08-28T19:11:20Z</time>
  <course>36.55</course>
  <speed>0.03</speed>
  <fix>3d</fix>
</trkpt>
<trkpt lat="40.0728447" lon="-105.2308938">
  <ele>1595.57</ele>
  <time>2026-08-28T19:11:20Z</time>
  <course>78.18</course>
  <speed>0.01</speed>
  <fix>3d</fix>
</trkpt>
<trkpt lat="40.0728448" lon="-105.2308937">
  <ele>1595.48</ele>
  <time>2026-08-28T19:11:20Z</time>
  <course>38.95</course>
  <speed>0.03</speed>
  <fix>3d</fix>
</trkpt>
<trkpt lat="40.0728447" lon="-105.2308938">
  <ele>1595.57</ele>
  <time>2026-08-28T19:11:20Z</time>
  <course>78.84</course>
  <speed>0.01</speed>
  <fix>3d</fix>
</trkpt>
<trkpt lat="40.0728449" lon="-105.2308937">
  <ele>1595.48</ele>
  <time>2026-08-28T19:11:20Z</time>
  <course>42.87</course>
  <speed>0.03</speed>
  <fix>3d</fix>
</trkpt>
<trkpt lat="40.0728448" lon="-105.2308937">
  <ele>1595.57</ele>
  <time>2026-08-28T19:11:20Z</time>
  <course>79.07</course>
  <speed>0.01</speed>
  <fix>3d</fix>
</trkpt>
<trkpt lat="40.0728449" lon="-105.2308937">
  <ele>1595.48</ele>
  <time>2026-08-28T19:11:20Z</time>
  <course>47.38</course>
  <speed>0.02</speed>
  <fix>3d</fix>
</trkpt>
<trkpt lat="40.0728448" lon="-105.2308937">
  <ele>1595.56</ele>
  <time>2026-08-28T19:11:20Z</time>
  <course>78.81</course>
  <speed>0.01</speed>
  <fix>3d</fix>
</trkpt>
<trkpt lat="40.072845" lon="-105.2308936">
  <ele>1595.48</ele>
  <time>2026-08-28T19:11:20Z</time>
  <course>52.55</course>
  <speed>0.02</speed>
  <fix>3d</fix>
</trkpt>
<trkpt lat="40.0728448" lon="-105.2308936">
  <ele>1595.56</ele>
  <time>2026-08-28T19:11:20Z</time>
  <course>78.09</course>
  <speed>0.01</speed>
  <fix>3d</fix>
</trkpt>
<trkpt lat="40.072845" lon="-105.2308936">
  <ele>1595.48</ele>
  <time>2026-08-28T19:11:20Z</time>
  <course>57.96</course>
  <speed>0.02</speed>
  <fix>3d</fix>
</trkpt>
<trkpt lat="40.0728449" lon="-105.2308936">
  <ele>1595.56</ele>
  <time>2026-08-28T19:11:20Z</time>
  <course>77.01</course>
  <speed>0.01</speed>
  <fix>3d</fix>
</trkpt>
<trkpt lat="40.072845" lon="-105.2308935">
  <ele>1595.48</ele>
  <time>2026-08-28T19:11:20Z</time>
  <course>62.64</course>
  <speed>0.02</speed>
  <fix>3d</fix>
</trkpt>
<trkpt lat="40.0728449" lon="-105.2308935">
  <ele>1595.56</ele>
  <time>2026-08-28T19:11:20Z</time>
  <course>75.63</course>
  <speed>0.02</speed>
  <fix>3d</fix>
</trkpt>
<trkpt lat="40.072845" lon="-105.2308934">
  <ele>1595.48</ele>
  <time>2026-08-28T19:11:20Z</time>
  <course>66.09</course>
  <speed>0.03</speed>
  <fix>3d</fix>
</trkpt>
<trkpt lat="40.0728449" lon="-105.2308934">
  <ele>1595.56</ele>
  <time>2026-08-28T19:11:20Z</time>
  <course>74.12</course>
  <speed>0.02</speed>
  <fix>3d</fix>
</trkpt>
<trkpt lat="40.072845" lon="-105.2308934">
  <ele>1595.48</ele>
  <time>2026-08-28T19:11:20Z</time>
  <course>67.65</course>
  <speed>0.03</speed>
  <fix>3d</fix>
</trkpt>
<trkpt lat="40.0728449" lon="-105.2308934">
  <ele>1595.57</ele>
  <time>2026-08-28T19:11:20Z</time>
  <course>72.64</course>
  <speed>0.02</speed>
  <fix>3d</fix>
</trkpt>
<trkpt lat="40.072845" lon="-105.2308933">
  <ele>1595.48</ele>
  <time>2026-08-28T19:11:20Z</time>
  <course>67.24</course>
  <speed>0.03</speed>
  <fix>3d</fix>
</trkpt>
<trkpt lat="40.0728449" lon="-105.2308933">
  <ele>1595.56</ele>
  <time>2026-08-28T19:11:20Z</time>
  <course>71.26</course>
  <speed>0.02</speed>
  <fix>3d</fix>
</trkpt>
<trkpt lat="40.072845" lon="-105.2308932">
  <ele>1595.48</ele>
  <time>2026-08-28T19:11:20Z</time>
  <course>65.1</course>
  <speed>0.03</speed>
  <fix>3d</fix>
</trkpt>
<trkpt lat="40.072845" lon="-105.2308932">
  <ele>1595.56</ele>
  <time>2026-08-28T19:11:20Z</time>
  <course>70.2</course>
  <speed>0.02</speed>
  <fix>3d</fix>
</trkpt>
<trkpt lat="40.0728451" lon="-105.2308931">
  <ele>1595.48</ele>
  <time>2026-08-28T19:11:20Z</time>
  <course>61.42</course>
  <speed>0.03</speed>
  <fix>3d</fix>
</trkpt>
<trkpt lat="40.072845" lon="-105.2308932">
  <ele>1595.57</ele>
  <time>2026-08-28T19:11:20Z</time>
  <course>69.51</course>
  <speed>0.02</speed>
  <fix>3d</fix>
</trkpt>
<trkpt lat="40.0728451" lon="-105.230893">
  <ele>1595.48</ele>
  <time>2026-08-28T19:11:20Z</time>
  <course>57.05</course>
  <speed>0.03</speed>
  <fix>3d</fix>
</trkpt>
<trkpt lat="40.072845" lon="-105.2308931">
  <ele>1595.57</ele>
  <time>2026-08-28T19:11:20Z</time>
  <course>69.27</course>
  <speed>0.01</speed>
  <fix>3d</fix>
</trkpt>
<trkpt lat="40.0728451" lon="-105.230893">
  <ele>1595.49</ele>
  <time>2026-08-28T19:11:20Z</time>
  <course>52.66</course>
  <speed>0.03</speed>
  <fix>3d</fix>
</trkpt>
<trkpt lat="40.0728451" lon="-105.230893">
  <ele>1595.57</ele>
  <time>2026-08-28T19:11:20Z</time>
  <course>69.51</course>
  <speed>0.01414213562373095</speed>
  <fix>3d</fix>
</trkpt>
<trkpt lat="40.0728452" lon="-105.2308929">
  <ele>1595.49</ele>
  <time>2026-08-28T19:11:20Z</time>
  <course>48.28</course>
  <speed>0.03</speed>
  <fix>3d</fix>
</trkpt>
<trkpt lat="40.0728451" lon="-105.2308929">
  <ele>1595.56</ele>
  <time>2026-08-28T19:11:20Z</time>
  <course>70.21</course>
  <speed>0.01414213562373095</speed>
  <fix>3d</fix>
</trkpt>
<trkpt lat="40.0728453" lon="-105.2308929">
  <ele>1595.49</ele>
  <time>2026-08-28T19:11:20Z</time>
  <course>44.36</course>
  <speed>0.03</speed>
  <fix>3d</fix>
</trkpt>
<trkpt lat="40.0728452" lon="-105.2308929">
  <ele>1595.56</ele>
  <time>2026-08-28T19:11:20Z</time>
  <course>71.3</course>
  <speed>0.01414213562373095</speed>
  <fix>3d</fix>
</trkpt>
<trkpt lat="40.0728453" lon="-105.2308928">
  <ele>1595.49</ele>
  <time>2026-08-28T19:11:20Z</time>
  <course>41.1</course>
  <speed>0.03</speed>
  <fix>3d</fix>
</trkpt>
<trkpt lat="40.0728452" lon="-105.2308928">
  <ele>1595.56</ele>
  <time>2026-08-28T19:11:20Z</time>
  <course>72.66</course>
  <speed>0.01414213562373095</speed>
  <fix>3d</fix>
</trkpt>
<trkpt lat="40.0728454" lon="-105.2308927">
  <ele>1595.49</ele>
  <time>2026-08-28T19:11:20Z</time>
  <course>38.7</course>
  <speed>0.03</speed>
  <fix>3d</fix>
</trkpt>
<trkpt lat="40.0728453" lon="-105.2308928">
  <ele>1595.57</ele>
  <time>2026-08-28T19:11:20Z</time>
  <course>74.17</course>
  <speed>0.01414213562373095</speed>
  <fix>3d</fix>
</trkpt>
<trkpt lat="40.0728455" lon="-105.2308927">
  <ele>1595.49</ele>
  <time>2026-08-28T19:11:20Z</time>
  <course>37.13</course>
  <speed>0.03</speed>
  <fix>3d</fix>
</trkpt>
<trkpt lat="40.0728453" lon="-105.2308927">
  <ele>1595.57</ele>
  <time>2026-08-28T19:11:20Z</time>
  <course>75.66</course>
  <speed>0.01414213562373095</speed>
  <fix>3d</fix>
</trkpt>
<trkpt lat="40.0728455" lon="-105.2308926">
  <ele>1595.49</ele>
  <time>2026-08-28T19:11:20Z</time>
  <course>36.74</course>
  <speed>0.03</speed>
  <fix>3d</fix>
</trkpt>
<trkpt lat="40.0728454" lon="-105.2308927">
  <ele>1595.57</ele>
  <time>2026-08-28T19:11:20Z</time>
  <course>77.04</course>
  <speed>0.01414213562373095</speed>
  <fix>3d</fix>
</trkpt>
<trkpt lat="40.0728456" lon="-105.2308925">
  <ele>1595.49</ele>
  <time>2026-08-28T19:11:20Z</time>
  <course>37.66</course>
  <speed>0.03</speed>
  <fix>3d</fix>
</trkpt>
<trkpt lat="40.0728454" lon="-105.2308926">
  <ele>1595.57</ele>
  <time>2026-08-28T19:11:20Z</time>
  <course>78.14</course>
  <speed>0.01</speed>
  <fix>3d</fix>
</trkpt>
<trkpt lat="40.0728456" lon="-105.2308925">
  <ele>1595.49</ele>
  <time>2026-08-28T19:11:20Z</time>
  <course>39.7</course>
  <speed>0.03</speed>
  <fix>3d</fix>
</trkpt>
<trkpt lat="40.0728455" lon="-105.2308926">
  <ele>1595.56</ele>
  <time>2026-08-28T19:11:20Z</time>
  <course>78.83</course>
  <speed>0.01</speed>
  <fix>3d</fix>
</trkpt>
<trkpt lat="40.0728456" lon="-105.2308925">
  <ele>1595.49</ele>
  <time>2026-08-28T19:11:20Z</time>
  <course>43.04</course>
  <speed>0.03</speed>
  <fix>3d</fix>
</trkpt>
<trkpt lat="40.0728455" lon="-105.2308925">
  <ele>1595.56</ele>
  <time>2026-08-28T19:11:20Z</time>
  <course>79.05</course>
  <speed>0.01</speed>
  <fix>3d</fix>
</trkpt>
<trkpt lat="40.0728456" lon="-105.2308924">
  <ele>1595.49</ele>
  <time>2026-08-28T19:11:20Z</time>
  <course>47.44</course>
  <speed>0.03</speed>
  <fix>3d</fix>
</trkpt>
<trkpt lat="40.0728456" lon="-105.2308925">
  <ele>1595.56</ele>
  <time>2026-08-28T19:11:20Z</time>
  <course>78.8</course>
  <speed>0.01</speed>
  <fix>3d</fix>
</trkpt>
<trkpt lat="40.0728457" lon="-105.2308924">
  <ele>1595.49</ele>
  <time>2026-08-28T19:11:20Z</time>
  <course>52.42</course>
  <speed>0.02</speed>
  <fix>3d</fix>
</trkpt>
<trkpt lat="40.0728456" lon="-105.2308924">
  <ele>1595.56</ele>
  <time>2026-08-28T19:11:20Z</time>
  <course>78.08</course>
  <speed>0.01</speed>
  <fix>3d</fix>
</trkpt>
<trkpt lat="40.0728457" lon="-105.2308923">
  <ele>1595.49</ele>
  <time>2026-08-28T19:11:20Z</time>
  <course>57.52</course>
  <speed>0.02</speed>
  <fix>3d</fix>
</trkpt>
<trkpt lat="40.0728456" lon="-105.2308923">
  <ele>1595.57</ele>
  <time>2026-08-28T19:11:20Z</time>
  <course>76.98</course>
  <speed>0.01</speed>
  <fix>3d</fix>
</trkpt>
<trkpt lat="40.0728457" lon="-105.2308922">
  <ele>1595.5</ele>
  <time>2026-08-28T19:11:20Z</time>
  <course>61.68</course>
  <speed>0.02</speed>
  <fix>3d</fix>
</trkpt>
<trkpt lat="40.0728456" lon="-105.2308923">
  <ele>1595.57</ele>
  <time>2026-08-28T19:11:20Z</time>
  <course>75.67</course>
  <speed>0.02</speed>
  <fix>3d</fix>
</trkpt>
<trkpt lat="40.0728457" lon="-105.2308922">
  <ele>1595.5</ele>
  <time>2026-08-28T19:11:20Z</time>
  <course>63.5</course>
  <speed>0.03</speed>
  <fix>3d</fix>
</trkpt>
<trkpt lat="40.0728456" lon="-105.2308922">
  <ele>1595.58</ele>
  <time>2026-08-28T19:11:20Z</time>
  <course>74.17</course>
  <speed>0.02</speed>
  <fix>3d</fix>
</trkpt>
<trkpt lat="40.0728458" lon="-105.2308921">
  <ele>1595.5</ele>
  <time>2026-08-28T19:11:20Z</time>
  <course>63.24</course>
  <speed>0.03</speed>
  <fix>3d</fix>
</trkpt>
<trkpt lat="40.0728457" lon="-105.2308921">
  <ele>1595.58</ele>
  <time>2026-08-28T19:11:20Z</time>
  <course>72.68</course>
  <speed>0.02</speed>
  <fix>3d</fix>
</trkpt>
<trkpt lat="40.0728459" lon="-105.230892">
  <ele>1595.5</ele>
  <time>2026-08-28T19:11:20Z</time>
  <course>61.23</course>
  <speed>0.03</speed>
  <fix>3d</fix>
</trkpt>
<trkpt lat="40.0728457" lon="-105.2308921">
  <ele>1595.57</ele>
  <time>2026-08-28T19:11:20Z</time>
  <course>71.31</course>
  <speed>0.02</speed>
  <fix>3d</fix>
</trkpt>
<trkpt lat="40.0728459" lon="-105.230892">
  <ele>1595.5</ele>
  <time>2026-08-28T19:11:20Z</time>
  <course>58.59</course>
  <speed>0.03</speed>
  <fix>3d</fix>
</trkpt>
<trkpt lat="40.0728457" lon="-105.230892">
  <ele>1595.57</ele>
  <time>2026-08-28T19:11:20Z</time>
  <course>70.22</course>
  <speed>0.02</speed>
  <fix>3d</fix>
</trkpt>
<trkpt lat="40.0728459" lon="-105.2308919">
  <ele>1595.5</ele>
  <time>2026-08-28T19:11:20Z</time>
  <course>55.44</course>
  <speed>0.03</speed>
  <fix>3d</fix>
</trkpt>
<trkpt lat="40.0728458" lon="-105.2308919">
  <ele>1595.57</ele>
  <time>2026-08-28T19:11:20Z</time>
  <course>69.52</course>
  <speed>0.01</speed>
  <fix>3d</fix>
</trkpt>
<trkpt lat="40.072846" lon="-105.2308918">
  <ele>1595.5</ele>
  <time>2026-08-28T19:11:20Z</time>
  <course>51.11</course>
  <speed>0.03</speed>
  <fix>3d</fix>
</trkpt>
<trkpt lat="40.0728458" lon="-105.2308919">
  <ele>1595.57</ele>
  <time>2026-08-28T19:11:20Z</time>
  <course>69.28</course>
  <speed>0.01414213562373095</speed>
  <fix>3d</fix>
</trkpt>
<trkpt lat="40.072846" lon="-105.2308918">
  <ele>1595.5</ele>
  <time>2026-08-28T19:11:20Z</time>
  <course>46.61</course>
  <speed>0.03</speed>
  <fix>3d</fix>
</trkpt>
<trkpt lat="40.0728459" lon="-105.2308918">
  <ele>1595.57</ele>
  <time>2026-08-28T19:11:20Z</time>
  <course>69.51</course>
  <speed>0.01414213562373095</speed>
  <fix>3d</fix>
</trkpt>
<trkpt lat="40.0728461" lon="-105.2308917">
  <ele>1595.49</ele>
  <time>2026-08-28T19:11:20Z</time>
  <course>42.19</course>
  <speed>0.03</speed>
  <fix>3d</fix>
</trkpt>
<trkpt lat="40.072846" lon="-105.2308918">
  <ele>1595.57</ele>
  <time>2026-08-28T19:11:20Z</time>
  <course>70.21</course>
  <speed>0.01414213562373095</speed>
  <fix>3d</fix>
</trkpt>
<trkpt lat="40.0728461" lon="-105.2308917">
  <ele>1595.49</ele>
  <time>2026-08-28T19:11:20Z</time>
  <course>38.17</course>
  <speed>0.03</speed>
  <fix>3d</fix>
</trkpt>
<trkpt lat="40.072846" lon="-105.2308917">
  <ele>1595.57</ele>
  <time>2026-08-28T19:11:20Z</time>
  <course>71.33</course>
  <speed>0.01414213562373095</speed>
  <fix>3d</fix>
</trkpt>
<trkpt lat="40.0728462" lon="-105.2308916">
  <ele>1595.49</ele>
  <time>2026-08-28T19:11:20Z</time>
  <course>35.17</course>
  <speed>0.03</speed>
  <fix>3d</fix>
</trkpt>
<trkpt lat="40.0728461" lon="-105.2308917">
  <ele>1595.57</ele>
  <time>2026-08-28T19:11:20Z</time>
  <course>72.68</course>
  <speed>0.01414213562373095</speed>
  <fix>3d</fix>
</trkpt>
<trkpt lat="40.0728462" lon="-105.2308915">
  <ele>1595.49</ele>
  <time>2026-08-28T19:11:20Z</time>
  <course>32.86</course>
  <speed>0.03</speed>
  <fix>3d</fix>
</trkpt>
<trkpt lat="40.0728461" lon="-105.2308916">
  <ele>1595.57</ele>
  <time>2026-08-28T19:11:20Z</time>
  <course>74.21</course>
  <speed>0.01414213562373095</speed>
  <fix>3d</fix>
</trkpt>
<trkpt lat="40.0728462" lon="-105.2308915">
  <ele>1595.49</ele>
  <time>2026-08-28T19:11:20Z</time>
  <course>31.43</course>
  <speed>0.03</speed>
  <fix>3d</fix>
</trkpt>
<trkpt lat="40.0728462" lon="-105.2308916">
  <ele>1595.57</ele>
  <time>2026-08-28T19:11:20Z</time>
  <course>75.71</course>
  <speed>0.01</speed>
  <fix>3d</fix>
</trkpt>
<trkpt lat="40.0728463" lon="-105.2308915">
  <ele>1595.49</ele>
  <time>2026-08-28T19:11:20Z</time>
  <course>31.15</course>
  <speed>0.03</speed>
  <fix>3d</fix>
</trkpt>
<trkpt lat="40.0728462" lon="-105.2308915">
  <ele>1595.56</ele>
  <time>2026-08-28T19:11:20Z</time>
  <course>77.04</course>
  <speed>0.01</speed>
  <fix>3d</fix>
</trkpt>
<trkpt lat="40.0728463" lon="-105.2308914">
  <ele>1595.49</ele>
  <time>2026-08-28T19:11:20Z</time>
  <course>32.06</course>
  <speed>0.03</speed>
  <fix>3d</fix>
</trkpt>
<trkpt lat="40.0728463" lon="-105.2308915">
  <ele>1595.56</ele>
  <time>2026-08-28T19:11:20Z</time>
  <course>78.1</course>
  <speed>0.01</speed>
  <fix>3d</fix>
</trkpt>
<trkpt lat="40.0728464" lon="-105.2308913">
  <ele>1595.49</ele>
  <time>2026-08-28T19:11:20Z</time>
  <course>35.0</course>
  <speed>0.03</speed>
  <fix>3d</fix>
</trkpt>
<trkpt lat="40.0728463" lon="-105.2308914">
  <ele>1595.56</ele>
  <time>2026-08-28T19:11:20Z</time>
  <course>78.8</course>
  <speed>0.01</speed>
  <fix>3d</fix>
</trkpt>
<trkpt lat="40.0728465" lon="-105.2308913">
  <ele>1595.49</ele>
  <time>2026-08-28T19:11:20Z</time>
  <course>40.58</course>
  <speed>0.03</speed>
  <fix>3d</fix>
</trkpt>
<trkpt lat="40.0728464" lon="-105.2308914">
  <ele>1595.56</ele>
  <time>2026-08-28T19:11:20Z</time>
  <course>79.04</course>
  <speed>0.01</speed>
  <fix>3d</fix>
</trkpt>
<trkpt lat="40.0728465" lon="-105.2308913">
  <ele>1595.49</ele>
  <time>2026-08-28T19:11:20Z</time>
  <course>47.37</course>
  <speed>0.03</speed>
  <fix>3d</fix>
</trkpt>
<trkpt lat="40.0728464" lon="-105.2308913">
  <ele>1595.56</ele>
  <time>2026-08-28T19:11:20Z</time>
  <course>78.79</course>
  <speed>0.01</speed>
  <fix>3d</fix>
</trkpt>
<trkpt lat="40.0728466" lon="-105.2308912">
  <ele>1595.5</ele>
  <time>2026-08-28T19:11:20Z</time>
  <course>53.01</course>
  <speed>0.03</speed>
  <fix>3d</fix>
</trkpt>
<trkpt lat="40.0728464" lon="-105.2308913">
  <ele>1595.56</ele>
  <time>2026-08-28T19:11:20Z</time>
  <course>78.06</course>
  <speed>0.01</speed>
  <fix>3d</fix>
</trkpt>
<trkpt lat="40.0728466" lon="-105.2308912">
  <ele>1595.5</ele>
  <time>2026-08-28T19:11:20Z</time>
  <course>57.82</course>
  <speed>0.03</speed>
  <fix>3d</fix>
</trkpt>
<trkpt lat="40.0728464" lon="-105.2308912">
  <ele>1595.56</ele>
  <time>2026-08-28T19:11:20Z</time>
  <course>76.99</course>
  <speed>0.02</speed>
  <fix>3d</fix>
</trkpt>
<trkpt lat="40.0728466" lon="-105.2308911">
  <ele>1595.5</ele>
  <time>2026-08-28T19:11:20Z</time>
  <course>61.72</course>
  <speed>0.03</speed>
  <fix>3d</fix>
</trkpt>
<trkpt lat="40.0728465" lon="-105.2308911">
  <ele>1595.57</ele>
  <time>2026-08-28T19:11:20Z</time>
  <course>75.64</course>
  <speed>0.02</speed>
  <fix>3d</fix>
</trkpt>
<trkpt lat="40.0728467" lon="-105.230891">
  <ele>1595.5</ele>
  <time>2026-08-28T19:11:20Z</time>
  <course>63.81</course>
  <speed>0.03</speed>
  <fix>3d</fix>
</trkpt>
<trkpt lat="40.0728465" lon="-105.230891">
  <ele>1595.58</ele>
  <time>2026-08-28T19:11:20Z</time>
  <course>74.16</course>
  <speed>0.02</speed>
  <fix>3d</fix>
</trkpt>
<trkpt lat="40.0728467" lon="-105.230891">
  <ele>1595.51</ele>
  <time>2026-08-28T19:11:20Z</time>
  <course>64.24</course>
  <speed>0.03</speed>
  <fix>3d</fix>
</trkpt>
<trkpt lat="40.0728465" lon="-105.230891">
  <ele>1595.58</ele>
  <time>2026-08-28T19:11:20Z</time>
  <course>72.69</course>
  <speed>0.02</speed>
  <fix>3d</fix>
</trkpt>
<trkpt lat="40.0728467" lon="-105.2308909">
  <ele>1595.51</ele>
  <time>2026-08-28T19:11:20Z</time>
  <course>62.6</course>
  <speed>0.03</speed>
  <fix>3d</fix>
</trkpt>
<trkpt lat="40.0728466" lon="-105.2308909">
  <ele>1595.58</ele>
  <time>2026-08-28T19:11:20Z</time>
  <course>71.31</course>
  <speed>0.02</speed>
  <fix>3d</fix>
</trkpt>
<trkpt lat="40.0728467" lon="-105.2308908">
  <ele>1595.51</ele>
  <time>2026-08-28T19:11:20Z</time>
  <course>59.89</course>
  <speed>0.03</speed>
  <fix>3d</fix>
</trkpt>
<trkpt lat="40.0728466" lon="-105.2308908">
  <ele>1595.58</ele>
  <time>2026-08-28T19:11:20Z</time>
  <course>70.23</course>
  <speed>0.02</speed>
  <fix>3d</fix>
</trkpt>
<trkpt lat="40.0728468" lon="-105.2308907">
  <ele>1595.51</ele>
  <time>2026-08-28T19:11:20Z</time>
  <course>56.72</course>
  <speed>0.03</speed>
  <fix>3d</fix>
</trkpt>
<trkpt lat="40.0728467" lon="-105.2308907">
  <ele>1595.58</ele>
  <time>2026-08-28T19:11:20Z</time>
  <course>69.54</course>
  <speed>0.02</speed>
  <fix>3d</fix>
</trkpt>
<trkpt lat="40.0728468" lon="-105.2308906">
  <ele>1595.51</ele>
  <time>2026-08-28T19:11:20Z</time>
  <course>52.87</course>
  <speed>0.03</speed>
  <fix>3d</fix>
</trkpt>
<trkpt lat="40.0728467" lon="-105.2308907">
  <ele>1595.57</ele>
  <time>2026-08-28T19:11:20Z</time>
  <course>69.29</course>
  <speed>0.022360679774997897</speed>
  <fix>3d</fix>
</trkpt>
<trkpt lat="40.0728468" lon="-105.2308906">
  <ele>1595.5</ele>
  <time>2026-08-28T19:11:20Z</time>
  <course>49.37</course>
  <speed>0.04</speed>
  <fix>3d</fix>
</trkpt>
<trkpt lat="40.0728468" lon="-105.2308906">
  <ele>1595.57</ele>
  <time>2026-08-28T19:11:20Z</time>
  <course>69.53</course>
  <speed>0.01414213562373095</speed>
  <fix>3d</fix>
</trkpt>
<trkpt lat="40.0728469" lon="-105.2308905">
  <ele>1595.5</ele>
  <time>2026-08-28T19:11:20Z</time>
  <course>46.14</course>
  <speed>0.04</speed>
  <fix>3d</fix>
</trkpt>
<trkpt lat="40.0728468" lon="-105.2308905">
  <ele>1595.58</ele>
  <time>2026-08-28T19:11:20Z</time>
  <course>70.22</course>
  <speed>0.01414213562373095</speed>
  <fix>3d</fix>
</trkpt>
<trkpt lat="40.0728469" lon="-105.2308904">
  <ele>1595.5</ele>
  <time>2026-08-28T19:11:20Z</time>
  <course>42.7</course>
  <speed>0.04</speed>
  <fix>3d</fix>
</trkpt>
<trkpt lat="40.0728469" lon="-105.2308905">
  <ele>1595.58</ele>
  <time>2026-08-28T19:11:20Z</time>
  <course>71.32</course>
  <speed>0.01414213562373095</speed>
  <fix>3d</fix>
</trkpt>
<trkpt lat="40.072847" lon="-105.2308903">
  <ele>1595.5</ele>
  <time>2026-08-28T19:11:20Z</time>
  <course>39.41</course>
  <speed>0.04</speed>
  <fix>3d</fix>
</trkpt>
<trkpt lat="40.0728469" lon="-105.2308904">
  <ele>1595.59</ele>
  <time>2026-08-28T19:11:20Z</time>
  <course>72.72</course>
  <speed>0.01414213562373095</speed>
  <fix>3d</fix>
</trkpt>
<trkpt lat="40.0728471" lon="-105.2308903">
  <ele>1595.5</ele>
  <time>2026-08-28T19:11:20Z</time>
  <course>36.12</course>
  <speed>0.04</speed>
  <fix>3d</fix>
</trkpt>
<trkpt lat="40.072847" lon="-105.2308904">
  <ele>1595.59</ele>
  <time>2026-08-28T19:11:20Z</time>
  <course>74.23</course>
  <speed>0.01414213562373095</speed>
  <fix>3d</fix>
</trkpt>
<trkpt lat="40.0728471" lon="-105.2308903">
  <ele>1595.5</ele>
  <time>2026-08-28T19:11:20Z</time>
  <course>33.92</course>
  <speed>0.03</speed>
  <fix>3d</fix>
</trkpt>
<trkpt lat="40.072847" lon="-105.2308903">
  <ele>1595.59</ele>
  <time>2026-08-28T19:11:20Z</time>
  <course>75.76</course>
  <speed>0.01414213562373095</speed>
  <fix>3d</fix>
</trkpt>
<trkpt lat="40.0728472" lon="-105.2308902">
  <ele>1595.49</ele>
  <time>2026-08-28T19:11:20Z</time>
  <course>34.07</course>
  <speed>0.03</speed>
  <fix>3d</fix>
</trkpt>
<trkpt lat="40.0728471" lon="-105.2308903">
  <ele>1595.58</ele>
  <time>2026-08-28T19:11:20Z</time>
  <course>77.1</course>
  <speed>0.01414213562373095</speed>
  <fix>3d</fix>
</trkpt>
<trkpt lat="40.0728472" lon="-105.2308901">
  <ele>1595.49</ele>
  <time>2026-08-28T19:11:20Z</time>
  <course>35.49</course>
  <speed>0.03</speed>
  <fix>3d</fix>
</trkpt>
<trkpt lat="40.0728471" lon="-105.2308902">
  <ele>1595.58</ele>
  <time>2026-08-28T19:11:20Z</time>
  <course>78.17</course>
  <speed>0.01</speed>
  <fix>3d</fix>
</trkpt>
<trkpt lat="40.0728473" lon="-105.2308901">
  <ele>1595.49</ele>
  <time>2026-08-28T19:11:20Z</time>
  <course>38.04</course>
  <speed>0.03</speed>
  <fix>3d</fix>
</trkpt>
<trkpt lat="40.0728472" lon="-105.2308902">
  <ele>1595.57</ele>
  <time>2026-08-28T19:11:20Z</time>
  <course>78.87</course>
  <speed>0.01</speed>
  <fix>3d</fix>
</trkpt>
<trkpt lat="40.0728473" lon="-105.2308901">
  <ele>1595.48</ele>
  <time>2026-08-28T19:11:20Z</time>
  <course>41.81</course>
  <speed>0.03</speed>
  <fix>3d</fix>
</trkpt>
<trkpt lat="40.0728472" lon="-105.2308901">
  <ele>1595.57</ele>
  <time>2026-08-28T19:11:20Z</time>
  <course>79.08</course>
  <speed>0.01</speed>
  <fix>3d</fix>
</trkpt>
<trkpt lat="40.0728474" lon="-105.23089">
  <ele>1595.48</ele>
  <time>2026-08-28T19:11:20Z</time>
  <course>46.37</course>
  <speed>0.02</speed>
  <fix>3d</fix>
</trkpt>
<trkpt lat="40.0728472" lon="-105.2308901">
  <ele>1595.56</ele>
  <time>2026-08-28T19:11:20Z</time>
  <course>78.82</course>
  <speed>0.01</speed>
  <fix>3d</fix>
</trkpt>
<trkpt lat="40.0728474" lon="-105.23089">
  <ele>1595.48</ele>
  <time>2026-08-28T19:11:20Z</time>
  <course>51.39</course>
  <speed>0.02</speed>
  <fix>3d</fix>
</trkpt>
<trkpt lat="40.0728473" lon="-105.23089">
  <ele>1595.56</ele>
  <time>2026-08-28T19:11:20Z</time>
  <course>78.12</course>
  <speed>0.01</speed>
  <fix>3d</fix>
</trkpt>
<trkpt lat="40.0728475" lon="-105.2308899">
  <ele>1595.48</ele>
  <time>2026-08-28T19:11:20Z</time>
  <course>55.31</course>
  <speed>0.02</speed>
  <fix>3d</fix>
</trkpt>
<trkpt lat="40.0728473" lon="-105.2308899">
  <ele>1595.56</ele>
  <time>2026-08-28T19:11:20Z</time>
  <course>77.03</course>
  <speed>0.01</speed>
  <fix>3d</fix>
</trkpt>
<trkpt lat="40.0728475" lon="-105.2308898">
  <ele>1595.48</ele>
  <time>2026-08-28T19:11:20Z</time>
  <course>58.08</course>
  <speed>0.02</speed>
  <fix>3d</fix>
</trkpt>
<trkpt lat="40.0728473" lon="-105.2308899">
  <ele>1595.56</ele>
  <time>2026-08-28T19:11:20Z</time>
  <course>75.65</course>
  <speed>0.01</speed>
  <fix>3d</fix>
</trkpt>
<trkpt lat="40.0728475" lon="-105.2308898">
  <ele>1595.48</ele>
  <time>2026-08-28T19:11:20Z</time>
  <course>60.02</course>
  <speed>0.03</speed>
  <fix>3d</fix>
</trkpt>
<trkpt lat="40.0728474" lon="-105.2308898">
  <ele>1595.57</ele>
  <time>2026-08-28T19:11:20Z</time>
  <course>74.15</course>
  <speed>0.02</speed>
  <fix>3d</fix>
</trkpt>
<trkpt lat="40.0728475" lon="-105.2308897">
  <ele>1595.48</ele>
  <time>2026-08-28T19:11:20Z</time>
  <course>60.33</course>
  <speed>0.03</speed>
  <fix>3d</fix>
</trkpt>
<trkpt lat="40.0728474" lon="-105.2308897">
  <ele>1595.57</ele>
  <time>2026-08-28T19:11:20Z</time>
  <course>72.64</course>
  <speed>0.02</speed>
  <fix>3d</fix>
</trkpt>
<trkpt lat="40.0728475" lon="-105.2308896">
  <ele>1595.48</ele>
  <time>2026-08-28T19:11:20Z</time>
  <course>59.11</course>
  <speed>0.03</speed>
  <fix>3d</fix>
</trkpt>
<trkpt lat="40.0728474" lon="-105.2308897">
  <ele>1595.57</ele>
  <time>2026-08-28T19:11:20Z</time>
  <course>71.28</course>
  <speed>0.02</speed>
  <fix>3d</fix>
</trkpt>
<trkpt lat="40.0728475" lon="-105.2308896">
  <ele>1595.48</ele>
  <time>2026-08-28T19:11:20Z</time>
  <course>56.7</course>
  <speed>0.03</speed>
  <fix>3d</fix>
</trkpt>
<trkpt lat="40.0728475" lon="-105.2308896">
  <ele>1595.58</ele>
  <time>2026-08-28T19:11:20Z</time>
  <course>70.22</course>
  <speed>0.02</speed>
  <fix>3d</fix>
</trkpt>
<trkpt lat="40.0728476" lon="-105.2308895">
  <ele>1595.48</ele>
  <time>2026-08-28T19:11:20Z</time>
  <course>53.6</course>
  <speed>0.03</speed>
  <fix>3d</fix>
</trkpt>
<trkpt lat="40.0728475" lon="-105.2308895">
  <ele>1595.58</ele>
  <time>2026-08-28T19:11:20Z</time>
  <course>69.54</course>
  <speed>0.02</speed>
  <fix>3d</fix>
</trkpt>
<trkpt lat="40.0728476" lon="-105.2308894">
  <ele>1595.48</ele>
  <time>2026-08-28T19:11:20Z</time>
  <course>50.37</course>
  <speed>0.03</speed>
  <fix>3d</fix>
</trkpt>
<trkpt lat="40.0728475" lon="-105.2308895">
  <ele>1595.58</ele>
  <time>2026-08-28T19:11:20Z</time>
  <course>69.3</course>
  <speed>0.022360679774997897</speed>
  <fix>3d</fix>
</trkpt>
<trkpt lat="40.0728477" lon="-105.2308894">
  <ele>1595.48</ele>
  <time>2026-08-28T19:11:20Z</time>
  <course>47.12</course>
  <speed>0.04</speed>
  <fix>3d</fix>
</trkpt>
<trkpt lat="40.0728476" lon="-105.2308894">
  <ele>1595.57</ele>
  <time>2026-08-28T19:11:20Z</time>
  <course>69.2</course>
  <speed>0.022360679774997897</speed>
  <fix>3d</fix>
</trkpt>
<trkpt lat="40.0728478" lon="-105.2308893">
  <ele>1595.47</ele>
  <time>2026-08-28T19:11:20Z</time>
  <course>45.61</course>
  <speed>0.04</speed>
  <fix>3d</fix>
</trkpt>
<trkpt lat="40.0728477" lon="-105.2308893">
  <ele>1595.57</ele>
  <time>2026-08-28T19:11:20Z</time>
  <course>69.08</course>
  <speed>0.022360679774997897</speed>
  <fix>3d</fix>
</trkpt>
<trkpt lat="40.0728478" lon="-105.2308892">
  <ele>1595.47</ele>
  <time>2026-08-28T19:11:20Z</time>
  <course>47.24</course>
  <speed>0.04</speed>
  <fix>3d</fix>
</trkpt>
<trkpt lat="40.0728477" lon="-105.2308892">
  <ele>1595.57</ele>
  <time>2026-08-28T19:11:20Z</time>
  <course>69.0</course>
  <speed>0.022360679774997897</speed>
  <fix>3d</fix>
</trkpt>
<trkpt lat="40.0728479" lon="-105.2308891">
  <ele>1595.47</ele>
  <time>2026-08-28T19:11:20Z</time>
  <course>49.39</course>
  <speed>0.04</speed>
  <fix>3d</fix>
</trkpt>
<trkpt lat="40.0728478" lon="-105.2308891">
  <ele>1595.57</ele>
  <time>2026-08-28T19:11:20Z</time>
  <course>68.97</course>
  <speed>0.0316227766016838</speed>
  <fix>3d</fix>
</trkpt>
<trkpt lat="40.0728479" lon="-105.230889">
  <ele>1595.47</ele>
  <time>2026-08-28T19:11:20Z</time>
  <course>50.59</course>
  <speed>0.05</speed>
  <fix>3d</fix>
</trkpt>
<trkpt lat="40.0728478" lon="-105.230889">
  <ele>1595.56</ele>
  <time>2026-08-28T19:11:20Z</time>
  <course>68.96</course>
  <speed>0.0316227766016838</speed>
  <fix>3d</fix>
</trkpt>
<trkpt lat="40.072848" lon="-105.2308889">
  <ele>1595.47</ele>
  <time>2026-08-28T19:11:20Z</time>
  <course>51.8</course>
  <speed>0.05</speed>
  <fix>3d</fix>
</trkpt>
<trkpt lat="40.0728479" lon="-105.2308889">
  <ele>1595.56</ele>
  <time>2026-08-28T19:11:20Z</time>
  <course>68.96</course>
  <speed>0.0316227766016838</speed>
  <fix>3d</fix>
</trkpt>
<trkpt lat="40.0728481" lon="-105.2308888">
  <ele>1595.47</ele>
  <time>2026-08-28T19:11:20Z</time>
  <course>53.01</course>
  <speed>0.05</speed>
  <fix>3d</fix>
</trkpt>
<trkpt lat="40.072848" lon="-105.2308888">
  <ele>1595.56</ele>
  <time>2026-08-28T19:11:20Z</time>
  <course>68.96</course>
  <speed>0.044721359549995794</speed>
  <fix>3d</fix>
</trkpt>
<trkpt lat="40.0728481" lon="-105.2308887">
  <ele>1595.47</ele>
  <time>2026-08-28T19:11:20Z</time>
  <course>54.02</course>
  <speed>0.06</speed>
  <fix>3d</fix>
</trkpt>
<trkpt lat="40.072848" lon="-105.2308886">
  <ele>1595.56</ele>
  <time>2026-08-28T19:11:20Z</time>
  <course>68.97</course>
  <speed>0.044721359549995794</speed>
  <fix>3d</fix>
</trkpt>
<trkpt lat="40.0728482" lon="-105.2308886">
  <ele>1595.47</ele>
  <time>2026-08-28T19:11:20Z</time>
  <course>54.89</course>
  <speed>0.06</speed>
  <fix>3d</fix>
</trkpt>
<trkpt lat="40.0728481" lon="-105.2308885">
  <ele>1595.56</ele>
  <time>2026-08-28T19:11:20Z</time>
  <course>68.98</course>
  <speed>0.044721359549995794</speed>
  <fix>3d</fix>
</trkpt>
<trkpt lat="40.0728482" lon="-105.2308885">
  <ele>1595.47</ele>
  <time>2026-08-28T19:11:20Z</time>
  <course>55.49</course>
  <speed>0.06</speed>
  <fix>3d</fix>
</trkpt>
<trkpt lat="40.0728482" lon="-105.2308884">
  <ele>1595.56</ele>
  <time>2026-08-28T19:11:20Z</time>
  <course>68.99</course>
  <speed>0.053851648071345036</speed>
  <fix>3d</fix>
</trkpt>
<trkpt lat="40.0728483" lon="-105.2308884">
  <ele>1595.47</ele>
  <time>2026-08-28T19:11:21Z</time>
  <course>55.88</course>
  <speed>0.07</speed>
  <fix>3d</fix>
</trkpt>
<trkpt lat="40.0728483" lon="-105.2308882">
  <ele>1595.56</ele>
  <time>2026-08-28T19:11:21Z</time>
  <course>68.99</course>
  <speed>0.053851648071345036</speed>
  <fix>3d</fix>
</trkpt>
<trkpt lat="40.0728484" lon="-105.2308882">
  <ele>1595.47</ele>
  <time>2026-08-28T19:11:21Z</time>
  <course>56.04</course>
  <speed>0.07</speed>
  <fix>3d</fix>
</trkpt>
<trkpt lat="40.0728483" lon="-105.2308881">
  <ele>1595.57</ele>
  <time>2026-08-28T19:11:21Z</time>
  <course>69.0</course>
  <speed>0.053851648071345036</speed>
  <fix>3d</fix>
</trkpt>
<trkpt lat="40.0728485" lon="-105.230888">
  <ele>1595.47</ele>
  <time>2026-08-28T19:11:21Z</time>
  <course>56.0</course>
  <speed>0.07</speed>
  <fix>3d</fix>
</trkpt>
<trkpt lat="40.0728484" lon="-105.2308879">
  <ele>1595.57</ele>
  <time>2026-08-28T19:11:21Z</time>
  <course>69.01</course>
  <speed>0.053851648071345036</speed>
  <fix>3d</fix>
</trkpt>
<trkpt lat="40.0728485" lon="-105.2308879">
  <ele>1595.47</ele>
  <time>2026-08-28T19:11:21Z</time>
  <course>55.99</course>
  <speed>0.07</speed>
  <fix>3d</fix>
</trkpt>
<trkpt lat="40.0728485" lon="-105.2308878">
  <ele>1595.57</ele>
  <time>2026-08-28T19:11:21Z</time>
  <course>69.02</course>
  <speed>0.0632455532033676</speed>
  <fix>3d</fix>
</trkpt>
<trkpt lat="40.0728486" lon="-105.2308878">
  <ele>1595.47</ele>
  <time>2026-08-28T19:11:21Z</time>
  <course>56.02</course>
  <speed>0.08</speed>
  <fix>3d</fix>
</trkpt>
<trkpt lat="40.0728486" lon="-105.2308876">
  <ele>1595.57</ele>
  <time>2026-08-28T19:11:21Z</time>
  <course>69.03</course>
  <speed>0.0670820393249937</speed>
  <fix>3d</fix>
</trkpt>
<trkpt lat="40.0728487" lon="-105.2308876">
  <ele>1595.47</ele>
  <time>2026-08-28T19:11:21Z</time>
  <course>56.07</course>
  <speed>0.08</speed>
  <fix>3d</fix>
</trkpt>
<trkpt lat="40.0728487" lon="-105.2308874">
  <ele>1595.57</ele>
  <time>2026-08-28T19:11:21Z</time>
  <course>69.02</course>
  <speed>0.0670820393249937</speed>
  <fix>3d</fix>
</trkpt>
<trkpt lat="40.0728488" lon="-105.2308875">
  <ele>1595.47</ele>
  <time>2026-08-28T19:11:21Z</time>
  <course>56.38</course>
  <speed>0.08</speed>
  <fix>3d</fix>
</trkpt>
<trkpt lat="40.0728488" lon="-105.2308873">
  <ele>1595.57</ele>
  <time>2026-08-28T19:11:21Z</time>
  <course>68.92</course>
  <speed>0.0670820393249937</speed>
  <fix>3d</fix>
</trkpt>
<trkpt lat="40.0728489" lon="-105.2308873">
  <ele>1595.47</ele>
  <time>2026-08-28T19:11:21Z</time>
  <course>57.06</course>
  <speed>0.08</speed>
  <fix>3d</fix>
</trkpt>
<trkpt lat="40.0728488" lon="-105.2308871">
  <ele>1595.56</ele>
  <time>2026-08-28T19:11:21Z</time>
  <course>67.96</course>
  <speed>0.0632455532033676</speed>
  <fix>3d</fix>
</trkpt>
<trkpt lat="40.072849" lon="-105.230887">
  <ele>1595.47</ele>
  <time>2026-08-28T19:11:21Z</time>
  <course>58.78</course>
  <speed>0.09</speed>
  <fix>3d</fix>
</trkpt>
<trkpt lat="40.0728489" lon="-105.2308869">
  <ele>1595.56</ele>
  <time>2026-08-28T19:11:21Z</time>
  <course>66.63</course>
  <speed>0.0632455532033676</speed>
  <fix>3d</fix>
</trkpt>
<trkpt lat="40.0728491" lon="-105.2308869">
  <ele>1595.47</ele>
  <time>2026-08-28T19:11:21Z</time>
  <course>60.01</course>
  <speed>0.09</speed>
  <fix>3d</fix>
</trkpt>
<trkpt lat="40.072849" lon="-105.2308867">
  <ele>1595.56</ele>
  <time>2026-08-28T19:11:21Z</time>
  <course>65.43</course>
  <speed>0.0632455532033676</speed>
  <fix>3d</fix>
</trkpt>
<trkpt lat="40.0728491" lon="-105.2308867">
  <ele>1595.47</ele>
  <time>2026-08-28T19:11:21Z</time>
  <course>59.27</course>
  <speed>0.08</speed>
  <fix>3d</fix>
</trkpt>
<trkpt lat="40.0728491" lon="-105.2308866">
  <ele>1595.57</ele>
  <time>2026-08-28T19:11:21Z</time>
  <course>64.57</course>
  <speed>0.053851648071345036</speed>
  <fix>3d</fix>
</trkpt>
<trkpt lat="40.0728492" lon="-105.2308865">
  <ele>1595.47</ele>
  <time>2026-08-28T19:11:21Z</time>
  <course>57.55</course>
  <speed>0.08</speed>
  <fix>3d</fix>
</trkpt>
<trkpt lat="40.0728492" lon="-105.2308864">
  <ele>1595.57</ele>
  <time>2026-08-28T19:11:21Z</time>
  <course>64.15</course>
  <speed>0.044721359549995794</speed>
  <fix>3d</fix>
</trkpt>
<trkpt lat="40.0728493" lon="-105.2308864">
  <ele>1595.47</ele>
  <time>2026-08-28T19:11:21Z</time>
  <course>55.07</course>
  <speed>0.07</speed>
  <fix>3d</fix>
</trkpt>
<trkpt lat="40.0728492" lon="-105.2308863">
  <ele>1595.56</ele>
  <time>2026-08-28T19:11:21Z</time>
  <course>64.21</course>
  <speed>0.03605551275463989</speed>
  <fix>3d</fix>
</trkpt>
<trkpt lat="40.0728493" lon="-105.2308863">
  <ele>1595.47</ele>
  <time>2026-08-28T19:11:21Z</time>
  <course>51.9</course>
  <speed>0.06</speed>
  <fix>3d</fix>
</trkpt>
<trkpt lat="40.0728493" lon="-105.2308862">
  <ele>1595.56</ele>
  <time>2026-08-28T19:11:21Z</time>
  <course>64.72</course>
  <speed>0.03605551275463989</speed>
  <fix>3d</fix>
</trkpt>
<trkpt lat="40.0728494" lon="-105.2308861">
  <ele>1595.47</ele>
  <time>2026-08-28T19:11:21Z</time>
  <course>48.25</course>
  <speed>0.06</speed>
  <fix>3d</fix>
</trkpt>
<trkpt lat="40.0728494" lon="-105.2308861">
  <ele>1595.56</ele>
  <time>2026-08-28T19:11:21Z</time>
  <course>65.69</course>
  <speed>0.0282842712474619</speed>
  <fix>3d</fix>
</trkpt>
<trkpt lat="40.0728495" lon="-105.230886">
  <ele>1595.47</ele>
  <time>2026-08-28T19:11:21Z</time>
  <course>44.4</course>
  <speed>0.05</speed>
  <fix>3d</fix>
</trkpt>
<trkpt lat="40.0728494" lon="-105.230886">
  <ele>1595.56</ele>
  <time>2026-08-28T19:11:21Z</time>
  <course>66.95</course>
  <speed>0.022360679774997897</speed>
  <fix>3d</fix>
</trkpt>
<trkpt lat="40.0728496" lon="-105.2308859">
  <ele>1595.47</ele>
  <time>2026-08-28T19:11:21Z</time>
  <course>40.89</course>
  <speed>0.05</speed>
  <fix>3d</fix>
</trkpt>
<trkpt lat="40.0728495" lon="-105.230886">
  <ele>1595.56</ele>
  <time>2026-08-28T19:11:21Z</time>
  <course>68.38</course>
  <speed>0.01414213562373095</speed>
  <fix>3d</fix>
</trkpt>
<trkpt lat="40.0728497" lon="-105.2308858">
  <ele>1595.48</ele>
  <time>2026-08-28T19:11:21Z</time>
  <course>37.8</course>
  <speed>0.04</speed>
  <fix>3d</fix>
</trkpt>
<trkpt lat="40.0728496" lon="-105.2308859">
  <ele>1595.56</ele>
  <time>2026-08-28T19:11:21Z</time>
  <course>69.91</course>
  <speed>0.01414213562373095</speed>
  <fix>3d</fix>
</trkpt>
<trkpt lat="40.0728497" lon="-105.2308858">
  <ele>1595.48</ele>
  <time>2026-08-28T19:11:21Z</time>
  <course>34.47</course>
  <speed>0.04</speed>
  <fix>3d</fix>
</trkpt>
<trkpt lat="40.0728496" lon="-105.2308859">
  <ele>1595.57</ele>
  <time>2026-08-28T19:11:21Z</time>
  <course>71.35</course>
  <speed>0.01414213562373095</speed>
  <fix>3d</fix>
</trkpt>
<trkpt lat="40.0728498" lon="-105.2308858">
  <ele>1595.48</ele>
  <time>2026-08-28T19:11:21Z</time>
  <course>31.68</course>
  <speed>0.03</speed>
  <fix>3d</fix>
</trkpt>
<trkpt lat="40.0728497" lon="-105.2308858">
  <ele>1595.57</ele>
  <time>2026-08-28T19:11:21Z</time>
  <course>72.6</course>
  <speed>0.0</speed>
  <fix>3d</fix>
</trkpt>
<trkpt lat="40.0728498" lon="-105.2308857">
  <ele>1595.48</ele>
  <time>2026-08-28T19:11:21Z</time>
  <course>30.59</course>
  <speed>0.03</speed>
  <fix>3d</fix>
</trkpt>
<trkpt lat="40.0728497" lon="-105.2308858">
  <ele>1595.58</ele>
  <time>2026-08-28T19:11:21Z</time>
  <course>73.47</course>
  <speed>0.0</speed>
  <fix>3d</fix>
</trkpt>
<trkpt lat="40.0728499" lon="-105.2308857">
  <ele>1595.49</ele>
  <time>2026-08-28T19:11:21Z</time>
  <course>31.44</course>
  <speed>0.03</speed>
  <fix>3d</fix>
</trkpt>
<trkpt lat="40.0728498" lon="-105.2308857">
  <ele>1595.58</ele>
  <time>2026-08-28T19:11:21Z</time>
  <course>73.9</course>
  <speed>0.0</speed>
  <fix>3d</fix>
</trkpt>
<trkpt lat="40.0728499" lon="-105.2308857">
  <ele>1595.49</ele>
  <time>2026-08-28T19:11:21Z</time>
  <course>33.79</course>
  <speed>0.02</speed>
  <fix>3d</fix>
</trkpt>
<trkpt lat="40.0728498" lon="-105.2308857">
  <ele>1595.57</ele>
  <time>2026-08-28T19:11:21Z</time>
  <course>73.85</course>
  <speed>0.01</speed>
  <fix>3d</fix>
</trkpt>
<trkpt lat="40.0728499" lon="-105.2308856">
  <ele>1595.49</ele>
  <time>2026-08-28T19:11:21Z</time>
  <course>37.76</course>
  <speed>0.02</speed>
  <fix>3d</fix>
</trkpt>
<trkpt lat="40.0728498" lon="-105.2308857">
  <ele>1595.57</ele>
  <time>2026-08-28T19:11:21Z</time>
  <course>73.32</course>
  <speed>0.01</speed>
  <fix>3d</fix>
</trkpt>
<trkpt lat="40.07285" lon="-105.2308855">
  <ele>1595.49</ele>
  <time>2026-08-28T19:11:21Z</time>
  <course>42.74</course>
  <speed>0.02</speed>
  <fix>3d</fix>
</trkpt>
<trkpt lat="40.0728499" lon="-105.2308856">
  <ele>1595.56</ele>
  <time>2026-08-28T19:11:21Z</time>
  <course>72.36</course>
  <speed>0.01</speed>
  <fix>3d</fix>
</trkpt>
<trkpt lat="40.07285" lon="-105.2308855">
  <ele>1595.49</ele>
  <time>2026-08-28T19:11:21Z</time>
  <course>47.58</course>
  <speed>0.02</speed>
  <fix>3d</fix>
</trkpt>
<trkpt lat="40.0728499" lon="-105.2308855">
  <ele>1595.56</ele>
  <time>2026-08-28T19:11:21Z</time>
  <course>71.07</course>
  <speed>0.01</speed>
  <fix>3d</fix>
</trkpt>
<trkpt lat="40.07285" lon="-105.2308855">
  <ele>1595.48</ele>
  <time>2026-08-28T19:11:21Z</time>
  <course>51.03</course>
  <speed>0.02</speed>
  <fix>3d</fix>
</trkpt>
<trkpt lat="40.0728499" lon="-105.2308855">
  <ele>1595.56</ele>
  <time>2026-08-28T19:11:21Z</time>
  <course>69.59</course>
  <speed>0.01</speed>
  <fix>3d</fix>
</trkpt>
<trkpt lat="40.0728501" lon="-105.2308854">
  <ele>1595.48</ele>
  <time>2026-08-28T19:11:21Z</time>
  <course>52.76</course>
  <speed>0.02</speed>
  <fix>3d</fix>
</trkpt>
<trkpt lat="40.0728499" lon="-105.2308854">
  <ele>1595.56</ele>
  <time>2026-08-28T19:11:21Z</time>
  <course>68.08</course>
  <speed>0.02</speed>
  <fix>3d</fix>
</trkpt>
<trkpt lat="40.0728502" lon="-105.2308853">
  <ele>1595.49</ele>
  <time>2026-08-28T19:11:21Z</time>
  <course>53.46</course>
  <speed>0.03</speed>
  <fix>3d</fix>
</trkpt>
<trkpt lat="40.07285" lon="-105.2308854">
  <ele>1595.56</ele>
  <time>2026-08-28T19:11:21Z</time>
  <course>66.62</course>
  <speed>0.02</speed>
  <fix>3d</fix>
</trkpt>
<trkpt lat="40.0728502" lon="-105.2308853">
  <ele>1595.49</ele>
  <time>2026-08-28T19:11:21Z</time>
  <course>52.78</course>
  <speed>0.03</speed>
  <fix>3d</fix>
</trkpt>
<trkpt lat="40.07285" lon="-105.2308853">
  <ele>1595.56</ele>
  <time>2026-08-28T19:11:21Z</time>
  <course>65.43</course>
  <speed>0.02</speed>
  <fix>3d</fix>
</trkpt>
<trkpt lat="40.0728502" lon="-105.2308852">
  <ele>1595.49</ele>
  <time>2026-08-28T19:11:21Z</time>
  <course>50.73</course>
  <speed>0.03</speed>
  <fix>3d</fix>
</trkpt>
<trkpt lat="40.0728501" lon="-105.2308852">
  <ele>1595.56</ele>
  <time>2026-08-28T19:11:21Z</time>
  <course>64.57</course>
  <speed>0.02</speed>
  <fix>3d</fix>
</trkpt>
<trkpt lat="40.0728503" lon="-105.2308851">
  <ele>1595.49</ele>
  <time>2026-08-28T19:11:21Z</time>
  <course>47.48</course>
  <speed>0.03</speed>
  <fix>3d</fix>
</trkpt>
<trkpt lat="40.0728501" lon="-105.2308852">
  <ele>1595.57</ele>
  <time>2026-08-28T19:11:21Z</time>
  <course>64.15</course>
  <speed>0.022360679774997897</speed>
  <fix>3d</fix>
</trkpt>
<trkpt lat="40.0728503" lon="-105.2308851">
  <ele>1595.49</ele>
  <time>2026-08-28T19:11:21Z</time>
  <course>43.76</course>
  <speed>0.03</speed>
  <fix>3d</fix>
</trkpt>
<trkpt lat="40.0728502" lon="-105.2308851">
  <ele>1595.57</ele>
  <time>2026-08-28T19:11:21Z</time>
  <course>64.21</course>
  <speed>0.01414213562373095</speed>
  <fix>3d</fix>
</trkpt>
<trkpt lat="40.0728504" lon="-105.230885">
  <ele>1595.49</ele>
  <time>2026-08-28T19:11:21Z</time>
  <course>40.37</course>
  <speed>0.04</speed>
  <fix>3d</fix>
</trkpt>
<trkpt lat="40.0728503" lon="-105.230885">
  <ele>1595.58</ele>
  <time>2026-08-28T19:11:21Z</time>
  <course>64.74</course>
  <speed>0.01414213562373095</speed>
  <fix>3d</fix>
</trkpt>
<trkpt lat="40.0728504" lon="-105.230885">
  <ele>1595.5</ele>
  <time>2026-08-28T19:11:21Z</time>
  <course>37.38</course>
  <speed>0.04</speed>
  <fix>3d</fix>
</trkpt>
<trkpt lat="40.0728503" lon="-105.230885">
  <ele>1595.58</ele>
  <time>2026-08-28T19:11:21Z</time>
  <course>65.71</course>
  <speed>0.01414213562373095</speed>
  <fix>3d</fix>
</trkpt>
<trkpt lat="40.0728505" lon="-105.2308849">
  <ele>1595.5</ele>
  <time>2026-08-28T19:11:21Z</time>
  <course>34.36</course>
  <speed>0.04</speed>
  <fix>3d</fix>
</trkpt>
<trkpt lat="40.0728504" lon="-105.2308849">
  <ele>1595.58</ele>
  <time>2026-08-28T19:11:21Z</time>
  <course>66.99</course>
  <speed>0.01414213562373095</speed>
  <fix>3d</fix>
</trkpt>
<trkpt lat="40.0728505" lon="-105.2308848">
  <ele>1595.5</ele>
  <time>2026-08-28T19:11:21Z</time>
  <course>31.34</course>
  <speed>0.04</speed>
  <fix>3d</fix>
</trkpt>
<trkpt lat="40.0728505" lon="-105.2308849">
  <ele>1595.58</ele>
  <time>2026-08-28T19:11:21Z</time>
  <course>68.46</course>
  <speed>0.01414213562373095</speed>
  <fix>3d</fix>
</trkpt>
<trkpt lat="40.0728506" lon="-105.2308848">
  <ele>1595.49</ele>
  <time>2026-08-28T19:11:21Z</time>
  <course>29.22</course>
  <speed>0.04</speed>
  <fix>3d</fix>
</trkpt>
<trkpt lat="40.0728505" lon="-105.2308848">
  <ele>1595.58</ele>
  <time>2026-08-28T19:11:21Z</time>
  <course>69.97</course>
  <speed>0.01414213562373095</speed>
  <fix>3d</fix>
</trkpt>
<trkpt lat="40.0728506" lon="-105.2308848">
  <ele>1595.49</ele>
  <time>2026-08-28T19:11:21Z</time>
  <course>28.2</course>
  <speed>0.04</speed>
  <fix>3d</fix>
</trkpt>
<trkpt lat="40.0728506" lon="-105.2308848">
  <ele>1595.57</ele>
  <time>2026-08-28T19:11:21Z</time>
  <course>71.41</course>
  <speed>0.01414213562373095</speed>
  <fix>3d</fix>
</trkpt>
<trkpt lat="40.0728507" lon="-105.2308847">
  <ele>1595.49</ele>
  <time>2026-08-28T19:11:21Z</time>
  <course>27.93</course>
  <speed>0.04</speed>
  <fix>3d</fix>
</trkpt>
<trkpt lat="40.0728506" lon="-105.2308847">
  <ele>1595.57</ele>
  <time>2026-08-28T19:11:21Z</time>
  <course>72.61</course>
  <speed>0.01414213562373095</speed>
  <fix>3d</fix>
</trkpt>
<trkpt lat="40.0728508" lon="-105.2308846">
  <ele>1595.49</ele>
  <time>2026-08-28T19:11:21Z</time>
  <course>28.51</course>
  <speed>0.03</speed>
  <fix>3d</fix>
</trkpt>
<trkpt lat="40.0728507" lon="-105.2308847">
  <ele>1595.57</ele>
  <time>2026-08-28T19:11:21Z</time>
  <course>73.47</course>
  <speed>0.01414213562373095</speed>
  <fix>3d</fix>
</trkpt>
<trkpt lat="40.0728509" lon="-105.2308846">
  <ele>1595.49</ele>
  <time>2026-08-28T19:11:21Z</time>
  <course>29.53</course>
  <speed>0.03</speed>
  <fix>3d</fix>
</trkpt>
<trkpt lat="40.0728507" lon="-105.2308847">
  <ele>1595.57</ele>
  <time>2026-08-28T19:11:21Z</time>
  <course>73.89</course>
  <speed>0.01</speed>
  <fix>3d</fix>
</trkpt>
<trkpt lat="40.0728509" lon="-105.2308846">
  <ele>1595.49</ele>
  <time>2026-08-28T19:11:21Z</time>
  <course>32.24</course>
  <speed>0.03</speed>
  <fix>3d</fix>
</trkpt>
<trkpt lat="40.0728508" lon="-105.2308846">
  <ele>1595.57</ele>
  <time>2026-08-28T19:11:21Z</time>
  <course>73.82</course>
  <speed>0.01</speed>
  <fix>3d</fix>
</trkpt>
<trkpt lat="40.072851" lon="-105.2308846">
  <ele>1595.49</ele>
  <time>2026-08-28T19:11:21Z</time>
  <course>37.04</course>
  <speed>0.03</speed>
  <fix>3d</fix>
</trkpt>
<trkpt lat="40.0728508" lon="-105.2308846">
  <ele>1595.57</ele>
  <time>2026-08-28T19:11:21Z</time>
  <course>73.32</course>
  <speed>0.01</speed>
  <fix>3d</fix>
</trkpt>
<trkpt lat="40.072851" lon="-105.2308845">
  <ele>1595.49</ele>
  <time>2026-08-28T19:11:21Z</time>
  <course>41.65</course>
  <speed>0.03</speed>
  <fix>3d</fix>
</trkpt>
<trkpt lat="40.0728509" lon="-105.2308845">
  <ele>1595.56</ele>
  <time>2026-08-28T19:11:21Z</time>
  <course>72.35</course>
  <speed>0.01</speed>
  <fix>3d</fix>
</trkpt>
<trkpt lat="40.0728511" lon="-105.2308845">
  <ele>1595.49</ele>
  <time>2026-08-28T19:11:21Z</time>
  <course>46.09</course>
  <speed>0.03</speed>
  <fix>3d</fix>
</trkpt>
<trkpt lat="40.0728509" lon="-105.2308845">
  <ele>1595.57</ele>
  <time>2026-08-28T19:11:21Z</time>
  <course>71.06</course>
  <speed>0.01</speed>
  <fix>3d</fix>
</trkpt>
<trkpt lat="40.0728511" lon="-105.2308844">
  <ele>1595.49</ele>
  <time>2026-08-28T19:11:21Z</time>
  <course>49.91</course>
  <speed>0.03</speed>
  <fix>3d</fix>
</trkpt>
<trkpt lat="40.072851" lon="-105.2308844">
  <ele>1595.58</ele>
  <time>2026-08-28T19:11:21Z</time>
  <course>69.58</course>
  <speed>0.02</speed>
  <fix>3d</fix>
</trkpt>
<trkpt lat="40.0728511" lon="-105.2308843">
  <ele>1595.49</ele>
  <time>2026-08-28T19:11:21Z</time>
  <course>51.83</course>
  <speed>0.03</speed>
  <fix>3d</fix>
</trkpt>
<trkpt lat="40.072851" lon="-105.2308843">
  <ele>1595.58</ele>
  <time>2026-08-28T19:11:21Z</time>
  <course>68.1</course>
  <speed>0.02</speed>
  <fix>3d</fix>
</trkpt>
<trkpt lat="40.0728511" lon="-105.2308843">
  <ele>1595.49</ele>
  <time>2026-08-28T19:11:21Z</time>
  <course>51.88</course>
  <speed>0.03</speed>
  <fix>3d</fix>
</trkpt>
<trkpt lat="40.072851" lon="-105.2308843">
  <ele>1595.58</ele>
  <time>2026-08-28T19:11:21Z</time>
  <course>66.71</course>
  <speed>0.02</speed>
  <fix>3d</fix>
</trkpt>
<trkpt lat="40.0728512" lon="-105.2308842">
  <ele>1595.49</ele>
  <time>2026-08-28T19:11:21Z</time>
  <course>50.26</course>
  <speed>0.03</speed>
  <fix>3d</fix>
</trkpt>
<trkpt lat="40.0728511" lon="-105.2308842">
  <ele>1595.58</ele>
  <time>2026-08-28T19:11:21Z</time>
  <course>65.48</course>
  <speed>0.02</speed>
  <fix>3d</fix>
</trkpt>
<trkpt lat="40.0728512" lon="-105.2308841">
  <ele>1595.48</ele>
  <time>2026-08-28T19:11:21Z</time>
  <course>48.06</course>
  <speed>0.03</speed>
  <fix>3d</fix>
</trkpt>
<trkpt lat="40.0728511" lon="-105.2308841">
  <ele>1595.58</ele>
  <time>2026-08-28T19:11:21Z</time>
  <course>64.62</course>
  <speed>0.02</speed>
  <fix>3d</fix>
</trkpt>
<trkpt lat="40.0728513" lon="-105.2308841">
  <ele>1595.48</ele>
  <time>2026-08-28T19:11:21Z</time>
  <course>45.32</course>
  <speed>0.04</speed>
  <fix>3d</fix>
</trkpt>
<trkpt lat="40.0728512" lon="-105.2308841">
  <ele>1595.58</ele>
  <time>2026-08-28T19:11:21Z</time>
  <course>64.18</course>
  <speed>0.01414213562373095</speed>
  <fix>3d</fix>
</trkpt>
<trkpt lat="40.0728514" lon="-105.230884">
  <ele>1595.48</ele>
  <time>2026-08-28T19:11:21Z</time>
  <course>41.95</course>
  <speed>0.04</speed>
  <fix>3d</fix>
</trkpt>
<trkpt lat="40.0728512" lon="-105.230884">
  <ele>1595.58</ele>
  <time>2026-08-28T19:11:21Z</time>
  <course>64.25</course>
  <speed>0.01414213562373095</speed>
  <fix>3d</fix>
</trkpt>
<trkpt lat="40.0728514" lon="-105.2308839">
  <ele>1595.48</ele>
  <time>2026-08-28T19:11:21Z</time>
  <course>38.61</course>
  <speed>0.04</speed>
  <fix>3d</fix>
</trkpt>
<trkpt lat="40.0728513" lon="-105.230884">
  <ele>1595.58</ele>
  <time>2026-08-28T19:11:21Z</time>
  <course>64.78</course>
  <speed>0.01414213562373095</speed>
  <fix>3d</fix>
</trkpt>
<trkpt lat="40.0728515" lon="-105.2308839">
  <ele>1595.48</ele>
  <time>2026-08-28T19:11:21Z</time>
  <course>35.47</course>
  <speed>0.04</speed>
  <fix>3d</fix>
</trkpt>
<trkpt lat="40.0728514" lon="-105.2308839">
  <ele>1595.58</ele>
  <time>2026-08-28T19:11:21Z</time>
  <course>65.71</course>
  <speed>0.01414213562373095</speed>
  <fix>3d</fix>
</trkpt>
<trkpt lat="40.0728515" lon="-105.2308838">
  <ele>1595.47</ele>
  <time>2026-08-28T19:11:21Z</time>
  <course>32.53</course>
  <speed>0.04</speed>
  <fix>3d</fix>
</trkpt>
<trkpt lat="40.0728514" lon="-105.2308839">
  <ele>1595.57</ele>
  <time>2026-08-28T19:11:21Z</time>
  <course>66.98</course>
  <speed>0.01414213562373095</speed>
  <fix>3d</fix>
</trkpt>
<trkpt lat="40.0728516" lon="-105.2308838">
  <ele>1595.47</ele>
  <time>2026-08-28T19:11:21Z</time>
  <course>29.95</course>
  <speed>0.04</speed>
  <fix>3d</fix>
</trkpt>
<trkpt lat="40.0728515" lon="-105.2308838">
  <ele>1595.57</ele>
  <time>2026-08-28T19:11:21Z</time>
  <course>68.45</course>
  <speed>0.01414213562373095</speed>
  <fix>3d</fix>
</trkpt>
<trkpt lat="40.0728517" lon="-105.2308837">
  <ele>1595.47</ele>
  <time>2026-08-28T19:11:21Z</time>
  <course>28.14</course>
  <speed>0.04</speed>
  <fix>3d</fix>
</trkpt>
<trkpt lat="40.0728516" lon="-105.2308838">
  <ele>1595.57</ele>
  <time>2026-08-28T19:11:21Z</time>
  <course>69.95</course>
  <speed>0.01414213562373095</speed>
  <fix>3d</fix>
</trkpt>
<trkpt lat="40.0728517" lon="-105.2308836">
  <ele>1595.47</ele>
  <time>2026-08-28T19:11:21Z</time>
  <course>27.45</course>
  <speed>0.04</speed>
  <fix>3d</fix>
</trkpt>
<trkpt lat="40.0728516" lon="-105.2308837">
  <ele>1595.57</ele>
  <time>2026-08-28T19:11:21Z</time>
  <course>71.38</course>
  <speed>0.01414213562373095</speed>
  <fix>3d</fix>
</trkpt>
<trkpt lat="40.0728518" lon="-105.2308836">
  <ele>1595.47</ele>
  <time>2026-08-28T19:11:21Z</time>
  <course>27.27</course>
  <speed>0.03</speed>
  <fix>3d</fix>
</trkpt>
<trkpt lat="40.0728517" lon="-105.2308837">
  <ele>1595.57</ele>
  <time>2026-08-28T19:11:21Z</time>
  <course>72.61</course>
  <speed>0.01414213562373095</speed>
  <fix>3d</fix>
</trkpt>
<trkpt lat="40.0728518" lon="-105.2308836">
  <ele>1595.46</ele>
  <time>2026-08-28T19:11:21Z</time>
  <course>28.05</course>
  <speed>0.03</speed>
  <fix>3d</fix>
</trkpt>
<trkpt lat="40.0728517" lon="-105.2308836">
  <ele>1595.57</ele>
  <time>2026-08-28T19:11:21Z</time>
  <course>73.48</course>
  <speed>0.01</speed>
  <fix>3d</fix>
</trkpt>
<trkpt lat="40.0728519" lon="-105.2308836">
  <ele>1595.46</ele>
  <time>2026-08-28T19:11:21Z</time>
  <course>30.39</course>
  <speed>0.03</speed>
  <fix>3d</fix>
</trkpt>
<trkpt lat="40.0728518" lon="-105.2308836">
  <ele>1595.56</ele>
  <time>2026-08-28T19:11:21Z</time>
  <course>73.9</course>
  <speed>0.01</speed>
  <fix>3d</fix>
</trkpt>
<trkpt lat="40.072852" lon="-105.2308835">
  <ele>1595.46</ele>
  <time>2026-08-28T19:11:21Z</time>
  <course>34.49</course>
  <speed>0.03</speed>
  <fix>3d</fix>
</trkpt>
<trkpt lat="40.0728518" lon="-105.2308835">
  <ele>1595.56</ele>
  <time>2026-08-28T19:11:21Z</time>
  <course>73.81</course>
  <speed>0.01</speed>
  <fix>3d</fix>
</trkpt>
<trkpt lat="40.072852" lon="-105.2308834">
  <ele>1595.46</ele>
  <time>2026-08-28T19:11:21Z</time>
  <course>39.61</course>
  <speed>0.03</speed>
  <fix>3d</fix>
</trkpt>
<trkpt lat="40.0728519" lon="-105.2308835">
  <ele>1595.55</ele>
  <time>2026-08-28T19:11:21Z</time>
  <course>73.28</course>
  <speed>0.01</speed>
  <fix>3d</fix>
</trkpt>
<trkpt lat="40.0728521" lon="-105.2308834">
  <ele>1595.46</ele>
  <time>2026-08-28T19:11:21Z</time>
  <course>44.31</course>
  <speed>0.03</speed>
  <fix>3d</fix>
</trkpt>
<trkpt lat="40.0728519" lon="-105.2308834">
  <ele>1595.55</ele>
  <time>2026-08-28T19:11:21Z</time>
  <course>72.32</course>
  <speed>0.01</speed>
  <fix>3d</fix>
</trkpt>
<trkpt lat="40.0728521" lon="-105.2308834">
  <ele>1595.46</ele>
  <time>2026-08-28T19:11:21Z</time>
  <course>49.09</course>
  <speed>0.03</speed>
  <fix>3d</fix>
</trkpt>
<trkpt lat="40.072852" lon="-105.2308834">
  <ele>1595.55</ele>
  <time>2026-08-28T19:11:21Z</time>
  <course>71.04</course>
  <speed>0.02</speed>
  <fix>3d</fix>
</trkpt>
<trkpt lat="40.0728522" lon="-105.2308833">
  <ele>1595.46</ele>
  <time>2026-08-28T19:11:21Z</time>
  <course>52.66</course>
  <speed>0.03</speed>
  <fix>3d</fix>
</trkpt>
<trkpt lat="40.072852" lon="-105.2308833">
  <ele>1595.54</ele>
  <time>2026-08-28T19:11:21Z</time>
  <course>69.56</course>
  <speed>0.02</speed>
  <fix>3d</fix>
</trkpt>
<trkpt lat="40.0728522" lon="-105.2308832">
  <ele>1595.46</ele>
  <time>2026-08-28T19:11:21Z</time>
  <course>53.78</course>
  <speed>0.03</speed>
  <fix>3d</fix>
</trkpt>
<trkpt lat="40.072852" lon="-105.2308832">
  <ele>1595.54</ele>
  <time>2026-08-28T19:11:21Z</time>
  <course>68.03</course>
  <speed>0.02</speed>
  <fix>3d</fix>
</trkpt>
<trkpt lat="40.0728522" lon="-105.2308831">
  <ele>1595.47</ele>
  <time>2026-08-28T19:11:21Z</time>
  <course>53.12</course>
  <speed>0.03</speed>
  <fix>3d</fix>
</trkpt>
<trkpt lat="40.0728521" lon="-105.2308832">
  <ele>1595.54</ele>
  <time>2026-08-28T19:11:21Z</time>
  <course>66.58</course>
  <speed>0.02</speed>
  <fix>3d</fix>
</trkpt>
<trkpt lat="40.0728523" lon="-105.2308831">
  <ele>1595.47</ele>
  <time>2026-08-28T19:11:21Z</time>
  <course>51.17</course>
  <speed>0.03</speed>
  <fix>3d</fix>
</trkpt>
<trkpt lat="40.0728521" lon="-105.2308831">
  <ele>1595.55</ele>
  <time>2026-08-28T19:11:21Z</time>
  <course>65.38</course>
  <speed>0.02</speed>
  <fix>3d</fix>
</trkpt>
<trkpt lat="40.0728523" lon="-105.230883">
  <ele>1595.48</ele>
  <time>2026-08-28T19:11:21Z</time>
  <course>48.13</course>
  <speed>0.03</speed>
  <fix>3d</fix>
</trkpt>
<trkpt lat="40.0728522" lon="-105.230883">
  <ele>1595.55</ele>
  <time>2026-08-28T19:11:21Z</time>
  <course>64.53</course>
  <speed>0.022360679774997897</speed>
  <fix>3d</fix>
</trkpt>
<trkpt lat="40.0728523" lon="-105.2308829">
  <ele>1595.48</ele>
  <time>2026-08-28T19:11:21Z</time>
  <course>44.24</course>
  <speed>0.04</speed>
  <fix>3d</fix>
</trkpt>
<trkpt lat="40.0728522" lon="-105.230883">
  <ele>1595.55</ele>
  <time>2026-08-28T19:11:21Z</time>
  <course>64.1</course>
  <speed>0.01414213562373095</speed>
  <fix>3d</fix>
</trkpt>
<trkpt lat="40.0728524" lon="-105.2308829">
  <ele>1595.49</ele>
  <time>2026-08-28T19:11:21Z</time>
  <course>40.21</course>
  <speed>0.04</speed>
  <fix>3d</fix>
</trkpt>
<trkpt lat="40.0728523" lon="-105.2308829">
  <ele>1595.55</ele>
  <time>2026-08-28T19:11:21Z</time>
  <course>64.16</course>
  <speed>0.01414213562373095</speed>
  <fix>3d</fix>
</trkpt>
<trkpt lat="40.0728524" lon="-105.2308828">
  <ele>1595.5</ele>
  <time>2026-08-28T19:11:21Z</time>
  <course>36.58</course>
  <speed>0.04</speed>
  <fix>3d</fix>
</trkpt>
<trkpt lat="40.0728524" lon="-105.2308828">
  <ele>1595.55</ele>
  <time>2026-08-28T19:11:21Z</time>
  <course>64.69</course>
  <speed>0.01414213562373095</speed>
  <fix>3d</fix>
</trkpt>
<trkpt lat="40.0728525" lon="-105.2308827">
  <ele>1595.5</ele>
  <time>2026-08-28T19:11:21Z</time>
  <course>33.24</course>
  <speed>0.04</speed>
  <fix>3d</fix>
</trkpt>
<trkpt lat="40.0728524" lon="-105.2308828">
  <ele>1595.55</ele>
  <time>2026-08-28T19:11:21Z</time>
  <course>65.66</course>
  <speed>0.01414213562373095</speed>
  <fix>3d</fix>
</trkpt>
<trkpt lat="40.0728526" lon="-105.2308827">
  <ele>1595.51</ele>
  <time>2026-08-28T19:11:21Z</time>
  <course>30.03</course>
  <speed>0.04</speed>
  <fix>3d</fix>
</trkpt>
<trkpt lat="40.0728525" lon="-105.2308827">
  <ele>1595.56</ele>
  <time>2026-08-28T19:11:21Z</time>
  <course>66.9</course>
  <speed>0.01414213562373095</speed>
  <fix>3d</fix>
</trkpt>
<trkpt lat="40.0728527" lon="-105.2308827">
  <ele>1595.51</ele>
  <time>2026-08-28T19:11:21Z</time>
  <course>27.41</course>
  <speed>0.04</speed>
  <fix>3d</fix>
</trkpt>
<trkpt lat="40.0728526" lon="-105.2308827">
  <ele>1595.56</ele>
  <time>2026-08-28T19:11:21Z</time>
  <course>68.37</course>
  <speed>0.01414213562373095</speed>
  <fix>3d</fix>
</trkpt>
<trkpt lat="40.0728527" lon="-105.2308826">
  <ele>1595.52</ele>
  <time>2026-08-28T19:11:21Z</time>
  <course>25.78</course>
  <speed>0.04</speed>
  <fix>3d</fix>
</trkpt>
<trkpt lat="40.0728526" lon="-105.2308826">
  <ele>1595.57</ele>
  <time>2026-08-28T19:11:21Z</time>
  <course>69.92</course>
  <speed>0.01414213562373095</speed>
  <fix>3d</fix>
</trkpt>
<trkpt lat="40.0728528" lon="-105.2308826">
  <ele>1595.52</ele>
  <time>2026-08-28T19:11:21Z</time>
  <course>25.61</course>
  <speed>0.04</speed>
  <fix>3d</fix>
</trkpt>
<trkpt lat="40.0728527" lon="-105.2308826">
  <ele>1595.57</ele>
  <time>2026-08-28T19:11:21Z</time>
  <course>71.38</course>
  <speed>0.01414213562373095</speed>
  <fix>3d</fix>
</trkpt>
<trkpt lat="40.0728529" lon="-105.2308825">
  <ele>1595.53</ele>
  <time>2026-08-28T19:11:21Z</time>
  <course>26.34</course>
  <speed>0.04</speed>
  <fix>3d</fix>
</trkpt>
<trkpt lat="40.0728528" lon="-105.2308826">
  <ele>1595.57</ele>
  <time>2026-08-28T19:11:21Z</time>
  <course>72.58</course>
  <speed>0.01414213562373095</speed>
  <fix>3d</fix>
</trkpt>
<trkpt lat="40.0728529" lon="-105.2308824">
  <ele>1595.53</ele>
  <time>2026-08-28T19:11:21Z</time>
  <course>27.85</course>
  <speed>0.03</speed>
  <fix>3d</fix>
</trkpt>
<trkpt lat="40.0728528" lon="-105.2308825">
  <ele>1595.58</ele>
  <time>2026-08-28T19:11:21Z</time>
  <course>73.45</course>
  <speed>0.01</speed>
  <fix>3d</fix>
</trkpt>
<trkpt lat="40.072853" lon="-105.2308824">
  <ele>1595.53</ele>
  <time>2026-08-28T19:11:21Z</time>
  <course>30.95</course>
  <speed>0.03</speed>
  <fix>3d</fix>
</trkpt>
<trkpt lat="40.0728529" lon="-105.2308825">
  <ele>1595.58</ele>
  <time>2026-08-28T19:11:21Z</time>
  <course>73.89</course>
  <speed>0.01</speed>
  <fix>3d</fix>
</trkpt>
<trkpt lat="40.072853" lon="-105.2308824">
  <ele>1595.53</ele>
  <time>2026-08-28T19:11:21Z</time>
  <course>35.21</course>
  <speed>0.03</speed>
  <fix>3d</fix>
</trkpt>
<trkpt lat="40.0728529" lon="-105.2308824">
  <ele>1595.59</ele>
  <time>2026-08-28T19:11:21Z</time>
  <course>73.84</course>
  <speed>0.01</speed>
  <fix>3d</fix>
</trkpt>
<trkpt lat="40.0728531" lon="-105.2308824">
  <ele>1595.54</ele>
  <time>2026-08-28T19:11:21Z</time>
  <course>39.67</course>
  <speed>0.03</speed>
  <fix>3d</fix>
</trkpt>
<trkpt lat="40.072853" lon="-105.2308824">
  <ele>1595.59</ele>
  <time>2026-08-28T19:11:21Z</time>
  <course>73.35</course>
  <speed>0.01</speed>
  <fix>3d</fix>
</trkpt>
<trkpt lat="40.0728532" lon="-105.2308823">
  <ele>1595.53</ele>
  <time>2026-08-28T19:11:21Z</time>
  <course>43.98</course>
  <speed>0.03</speed>
  <fix>3d</fix>
</trkpt>
<trkpt lat="40.072853" lon="-105.2308823">
  <ele>1595.59</ele>
  <time>2026-08-28T19:11:21Z</time>
  <course>72.4</course>
  <speed>0.02</speed>
  <fix>3d</fix>
</trkpt>
<trkpt lat="40.0728532" lon="-105.2308822">
  <ele>1595.53</ele>
  <time>2026-08-28T19:11:21Z</time>
  <course>48.36</course>
  <speed>0.03</speed>
  <fix>3d</fix>
</trkpt>
<trkpt lat="40.072853" lon="-105.2308822">
  <ele>1595.58</ele>
  <time>2026-08-28T19:11:21Z</time>
  <course>71.15</course>
  <speed>0.02</speed>
  <fix>3d</fix>
</trkpt>
<trkpt lat="40.0728533" lon="-105.2308822">
  <ele>1595.53</ele>
  <time>2026-08-28T19:11:21Z</time>
  <course>51.66</course>
  <speed>0.03</speed>
  <fix>3d</fix>
</trkpt>
<trkpt lat="40.0728531" lon="-105.2308822">
  <ele>1595.58</ele>
  <time>2026-08-28T19:11:21Z</time>
  <course>69.67</course>
  <speed>0.02</speed>
  <fix>3d</fix>
</trkpt>
<trkpt lat="40.0728533" lon="-105.2308821">
  <ele>1595.53</ele>
  <time>2026-08-28T19:11:21Z</time>
  <course>53.43</course>
  <speed>0.03</speed>
  <fix>3d</fix>
</trkpt>
<trkpt lat="40.0728531" lon="-105.2308821">
  <ele>1595.58</ele>
  <time>2026-08-28T19:11:21Z</time>
  <course>68.12</course>
  <speed>0.02</speed>
  <fix>3d</fix>
</trkpt>
<trkpt lat="40.0728533" lon="-105.230882">
  <ele>1595.52</ele>
  <time>2026-08-28T19:11:21Z</time>
  <course>53.65</course>
  <speed>0.03</speed>
  <fix>3d</fix>
</trkpt>
<trkpt lat="40.0728532" lon="-105.230882">
  <ele>1595.58</ele>
  <time>2026-08-28T19:11:21Z</time>
  <course>66.68</course>
  <speed>0.02</speed>
  <fix>3d</fix>
</trkpt>
<trkpt lat="40.0728534" lon="-105.2308819">
  <ele>1595.52</ele>
  <time>2026-08-28T19:11:21Z</time>
  <course>52.05</course>
  <speed>0.04</speed>
  <fix>3d</fix>
</trkpt>
<trkpt lat="40.0728532" lon="-105.2308819">
  <ele>1595.58</ele>
  <time>2026-08-28T19:11:21Z</time>
  <course>65.46</course>
  <speed>0.02</speed>
  <fix>3d</fix>
</trkpt>
<trkpt lat="40.0728534" lon="-105.2308819">
  <ele>1595.52</ele>
  <time>2026-08-28T19:11:21Z</time>
  <course>49.13</course>
  <speed>0.04</speed>
  <fix>3d</fix>
</trkpt>
<trkpt lat="40.0728533" lon="-105.2308819">
  <ele>1595.58</ele>
  <time>2026-08-28T19:11:21Z</time>
  <course>64.61</course>
  <speed>0.022360679774997897</speed>
  <fix>3d</fix>
</trkpt>
<trkpt lat="40.0728535" lon="-105.2308818">
  <ele>1595.52</ele>
  <time>2026-08-28T19:11:21Z</time>
  <course>45.62</course>
  <speed>0.04</speed>
  <fix>3d</fix>
</trkpt>
<trkpt lat="40.0728534" lon="-105.2308818">
  <ele>1595.58</ele>
  <time>2026-08-28T19:11:21Z</time>
  <course>64.18</course>
  <speed>0.022360679774997897</speed>
  <fix>3d</fix>
</trkpt>
<trkpt lat="40.0728535" lon="-105.2308817">
  <ele>1595.52</ele>
  <time>2026-08-28T19:11:21Z</time>
  <course>41.99</course>
  <speed>0.04</speed>
  <fix>3d</fix>
</trkpt>
<trkpt lat="40.0728534" lon="-105.2308817">
  <ele>1595.58</ele>
  <time>2026-08-28T19:11:21Z</time>
  <course>64.22</course>
  <speed>0.01414213562373095</speed>
  <fix>3d</fix>
</trkpt>
<trkpt lat="40.0728535" lon="-105.2308817">
  <ele>1595.51</ele>
  <time>2026-08-28T19:11:21Z</time>
  <course>38.17</course>
  <speed>0.04</speed>
  <fix>3d</fix>
</trkpt>
<trkpt lat="40.0728535" lon="-105.2308817">
  <ele>1595.58</ele>
  <time>2026-08-28T19:11:21Z</time>
  <course>64.79</course>
  <speed>0.01414213562373095</speed>
  <fix>3d</fix>
</trkpt>
<trkpt lat="40.0728536" lon="-105.2308816">
  <ele>1595.51</ele>
  <time>2026-08-28T19:11:21Z</time>
  <course>34.28</course>
  <speed>0.04</speed>
  <fix>3d</fix>
</trkpt>
<trkpt lat="40.0728535" lon="-105.2308816">
  <ele>1595.58</ele>
  <time>2026-08-28T19:11:21Z</time>
  <course>65.72</course>
  <speed>0.01414213562373095</speed>
  <fix>3d</fix>
</trkpt>
<trkpt lat="40.0728537" lon="-105.2308815">
  <ele>1595.51</ele>
  <time>2026-08-28T19:11:21Z</time>
  <course>31.35</course>
  <speed>0.04</speed>
  <fix>3d</fix>
</trkpt>
<trkpt lat="40.0728536" lon="-105.2308816">
  <ele>1595.58</ele>
  <time>2026-08-28T19:11:21Z</time>
  <course>67.01</course>
  <speed>0.01414213562373095</speed>
  <fix>3d</fix>
</trkpt>
<trkpt lat="40.0728538" lon="-105.2308815">
  <ele>1595.51</ele>
  <time>2026-08-28T19:11:21Z</time>
  <course>28.84</course>
  <speed>0.04</speed>
  <fix>3d</fix>
</trkpt>
<trkpt lat="40.0728537" lon="-105.2308815">
  <ele>1595.58</ele>
  <time>2026-08-28T19:11:21Z</time>
  <course>68.48</course>
  <speed>0.01414213562373095</speed>
  <fix>3d</fix>
</trkpt>
<trkpt lat="40.0728538" lon="-105.2308815">
  <ele>1595.51</ele>
  <time>2026-08-28T19:11:21Z</time>
  <course>26.29</course>
  <speed>0.04</speed>
  <fix>3d</fix>
</trkpt>
<trkpt lat="40.0728537" lon="-105.2308815">
  <ele>1595.58</ele>
  <time>2026-08-28T19:11:21Z</time>
  <course>69.99</course>
  <speed>0.01</speed>
  <fix>3d</fix>
</trkpt>
<trkpt lat="40.0728539" lon="-105.2308814">
  <ele>1595.5</ele>
  <time>2026-08-28T19:11:21Z</time>
  <course>24.91</course>
  <speed>0.04</speed>
  <fix>3d</fix>
</trkpt>
<trkpt lat="40.0728538" lon="-105.2308815">
  <ele>1595.58</ele>
  <time>2026-08-28T19:11:21Z</time>
  <course>71.43</course>
  <speed>0.01</speed>
  <fix>3d</fix>
</trkpt>
<trkpt lat="40.072854" lon="-105.2308814">
  <ele>1595.5</ele>
  <time>2026-08-28T19:11:21Z</time>
  <course>24.96</course>
  <speed>0.03</speed>
  <fix>3d</fix>
</trkpt>
<trkpt lat="40.0728539" lon="-105.2308814">
  <ele>1595.57</ele>
  <time>2026-08-28T19:11:21Z</time>
  <course>72.61</course>
  <speed>0.01</speed>
  <fix>3d</fix>
</trkpt>
<trkpt lat="40.072854" lon="-105.2308813">
  <ele>1595.5</ele>
  <time>2026-08-28T19:11:21Z</time>
  <course>26.13</course>
  <speed>0.03</speed>
  <fix>3d</fix>
</trkpt>
<trkpt lat="40.0728539" lon="-105.2308814">
  <ele>1595.56</ele>
  <time>2026-08-28T19:11:21Z</time>
  <course>73.46</course>
  <speed>0.01</speed>
  <fix>3d</fix>
</trkpt>
<trkpt lat="40.0728541" lon="-105.2308812">
  <ele>1595.5</ele>
  <time>2026-08-28T19:11:21Z</time>
  <course>28.4</course>
  <speed>0.03</speed>
  <fix>3d</fix>
</trkpt>
<trkpt lat="40.072854" lon="-105.2308813">
  <ele>1595.57</ele>
  <time>2026-08-28T19:11:21Z</time>
  <course>73.88</course>
  <speed>0.01</speed>
  <fix>3d</fix>
</trkpt>
<trkpt lat="40.0728541" lon="-105.2308812">
  <ele>1595.5</ele>
  <time>2026-08-28T19:11:21Z</time>
  <course>32.35</course>
  <speed>0.03</speed>
  <fix>3d</fix>
</trkpt>
<trkpt lat="40.072854" lon="-105.2308813">
  <ele>1595.56</ele>
  <time>2026-08-28T19:11:21Z</time>
  <course>73.83</course>
  <speed>0.01</speed>
  <fix>3d</fix>
</trkpt>
<trkpt lat="40.0728542" lon="-105.2308812">
  <ele>1595.5</ele>
  <time>2026-08-28T19:11:22Z</time>
  <course>37.46</course>
  <speed>0.03</speed>
  <fix>3d</fix>
</trkpt>
<trkpt lat="40.0728541" lon="-105.2308812">
  <ele>1595.57</ele>
  <time>2026-08-28T19:11:22Z</time>
  <course>73.29</course>
  <speed>0.01</speed>
  <fix>3d</fix>
</trkpt>
<trkpt lat="40.0728542" lon="-105.2308812">
  <ele>1595.5</ele>
  <time>2026-08-28T19:11:22Z</time>
  <course>42.68</course>
  <speed>0.03</speed>
  <fix>3d</fix>
</trkpt>
<trkpt lat="40.0728541" lon="-105.2308812">
  <ele>1595.57</ele>
  <time>2026-08-28T19:11:22Z</time>
  <course>72.36</course>
  <speed>0.01</speed>
  <fix>3d</fix>
</trkpt>
<trkpt lat="40.0728542" lon="-105.2308811">
  <ele>1595.5</ele>
  <time>2026-08-28T19:11:22Z</time>
  <course>47.3</course>
  <speed>0.03</speed>
  <fix>3d</fix>
</trkpt>
<trkpt lat="40.0728541" lon="-105.2308811">
  <ele>1595.57</ele>
  <time>2026-08-28T19:11:22Z</time>
  <course>71.09</course>
  <speed>0.02</speed>
  <fix>3d</fix>
</trkpt>
<trkpt lat="40.0728543" lon="-105.230881">
  <ele>1595.5</ele>
  <time>2026-08-28T19:11:22Z</time>
  <course>50.51</course>
  <speed>0.03</speed>
  <fix>3d</fix>
</trkpt>
<trkpt lat="40.0728542" lon="-105.230881">
  <ele>1595.57</ele>
  <time>2026-08-28T19:11:22Z</time>
  <course>69.63</course>
  <speed>0.02</speed>
  <fix>3d</fix>
</trkpt>
<trkpt lat="40.0728544" lon="-105.230881">
  <ele>1595.5</ele>
  <time>2026-08-28T19:11:22Z</time>
  <course>51.69</course>
  <speed>0.03</speed>
  <fix>3d</fix>
</trkpt>
<trkpt lat="40.0728542" lon="-105.230881">
  <ele>1595.57</ele>
  <time>2026-08-28T19:11:22Z</time>
  <course>68.1</course>
  <speed>0.02</speed>
  <fix>3d</fix>
</trkpt>
<trkpt lat="40.0728544" lon="-105.2308809">
  <ele>1595.5</ele>
  <time>2026-08-28T19:11:22Z</time>
  <course>51.28</course>
  <speed>0.03</speed>
  <fix>3d</fix>
</trkpt>
<trkpt lat="40.0728543" lon="-105.2308809">
  <ele>1595.57</ele>
  <time>2026-08-28T19:11:22Z</time>
  <course>66.68</course>
  <speed>0.02</speed>
  <fix>3d</fix>
</trkpt>
<trkpt lat="40.0728545" lon="-105.2308808">
  <ele>1595.5</ele>
  <time>2026-08-28T19:11:22Z</time>
  <course>49.92</course>
  <speed>0.03</speed>
  <fix>3d</fix>
</trkpt>
<trkpt lat="40.0728543" lon="-105.2308808">
  <ele>1595.57</ele>
  <time>2026-08-28T19:11:22Z</time>
  <course>65.45</course>
  <speed>0.02</speed>
  <fix>3d</fix>
</trkpt>
<trkpt lat="40.0728545" lon="-105.2308808">
  <ele>1595.5</ele>
  <time>2026-08-28T19:11:22Z</time>
  <course>47.46</course>
  <speed>0.04</speed>
  <fix>3d</fix>
</trkpt>
<trkpt lat="40.0728544" lon="-105.2308808">
  <ele>1595.56</ele>
  <time>2026-08-28T19:11:22Z</time>
  <course>64.58</course>
  <speed>0.022360679774997897</speed>
  <fix>3d</fix>
</trkpt>
<trkpt lat="40.0728546" lon="-105.2308807">
  <ele>1595.5</ele>
  <time>2026-08-28T19:11:22Z</time>
  <course>44.02</course>
  <speed>0.04</speed>
  <fix>3d</fix>
</trkpt>
<trkpt lat="40.0728544" lon="-105.2308807">
  <ele>1595.56</ele>
  <time>2026-08-28T19:11:22Z</time>
  <course>64.16</course>
  <speed>0.01414213562373095</speed>
  <fix>3d</fix>
</trkpt>
<trkpt lat="40.0728546" lon="-105.2308806">
  <ele>1595.5</ele>
  <time>2026-08-28T19:11:22Z</time>
  <course>40.05</course>
  <speed>0.04</speed>
  <fix>3d</fix>
</trkpt>
<trkpt lat="40.0728545" lon="-105.2308806">
  <ele>1595.56</ele>
  <time>2026-08-28T19:11:22Z</time>
  <course>64.06</course>
  <speed>0.01414213562373095</speed>
  <fix>3d</fix>
</trkpt>
<trkpt lat="40.0728547" lon="-105.2308805">
  <ele>1595.5</ele>
  <time>2026-08-28T19:11:22Z</time>
  <course>36.93</course>
  <speed>0.04</speed>
  <fix>3d</fix>
</trkpt>
<trkpt lat="40.0728546" lon="-105.2308806">
  <ele>1595.55</ele>
  <time>2026-08-28T19:11:22Z</time>
  <course>63.94</course>
  <speed>0.022360679774997897</speed>
  <fix>3d</fix>
</trkpt>
<trkpt lat="40.0728547" lon="-105.2308805">
  <ele>1595.5</ele>
  <time>2026-08-28T19:11:22Z</time>
  <course>36.96</course>
  <speed>0.04</speed>
  <fix>3d</fix>
</trkpt>
<trkpt lat="40.0728546" lon="-105.2308805">
  <ele>1595.55</ele>
  <time>2026-08-28T19:11:22Z</time>
  <course>63.88</course>
  <speed>0.022360679774997897</speed>
  <fix>3d</fix>
</trkpt>
<trkpt lat="40.0728548" lon="-105.2308805">
  <ele>1595.5</ele>
  <time>2026-08-28T19:11:22Z</time>
  <course>39.36</course>
  <speed>0.04</speed>
  <fix>3d</fix>
</trkpt>
<trkpt lat="40.0728547" lon="-105.2308804">
  <ele>1595.56</ele>
  <time>2026-08-28T19:11:22Z</time>
  <course>63.85</course>
  <speed>0.022360679774997897</speed>
  <fix>3d</fix>
</trkpt>
<trkpt lat="40.0728548" lon="-105.2308804">
  <ele>1595.5</ele>
  <time>2026-08-28T19:11:22Z</time>
  <course>41.15</course>
  <speed>0.04</speed>
  <fix>3d</fix>
</trkpt>
<trkpt lat="40.0728548" lon="-105.2308803">
  <ele>1595.56</ele>
  <time>2026-08-28T19:11:22Z</time>
  <course>63.84</course>
  <speed>0.03605551275463989</speed>
  <fix>3d</fix>
</trkpt>
<trkpt lat="40.0728549" lon="-105.2308803">
  <ele>1595.51</ele>
  <time>2026-08-28T19:11:22Z</time>
  <course>42.5</course>
  <speed>0.05</speed>
  <fix>3d</fix>
</trkpt>
<trkpt lat="40.0728548" lon="-105.2308802">
  <ele>1595.57</ele>
  <time>2026-08-28T19:11:22Z</time>
  <course>63.85</course>
  <speed>0.03605551275463989</speed>
  <fix>3d</fix>
</trkpt>
<trkpt lat="40.072855" lon="-105.2308802">
  <ele>1595.51</ele>
  <time>2026-08-28T19:11:22Z</time>
  <course>43.47</course>
  <speed>0.05</speed>
  <fix>3d</fix>
</trkpt>
<trkpt lat="40.0728549" lon="-105.2308802">
  <ele>1595.58</ele>
  <time>2026-08-28T19:11:22Z</time>
  <course>63.86</course>
  <speed>0.03605551275463989</speed>
  <fix>3d</fix>
</trkpt>
<trkpt lat="40.0728551" lon="-105.2308801">
  <ele>1595.51</ele>
  <time>2026-08-28T19:11:22Z</time>
  <course>44.11</course>
  <speed>0.06</speed>
  <fix>3d</fix>
</trkpt>
<trkpt lat="40.072855" lon="-105.23088">
  <ele>1595.58</ele>
  <time>2026-08-28T19:11:22Z</time>
  <course>63.88</course>
  <speed>0.044721359549995794</speed>
  <fix>3d</fix>
</trkpt>
<trkpt lat="40.0728551" lon="-105.23088">
  <ele>1595.51</ele>
  <time>2026-08-28T19:11:22Z</time>
  <course>44.79</course>
  <speed>0.06</speed>
  <fix>3d</fix>
</trkpt>
<trkpt lat="40.0728551" lon="-105.2308799">
  <ele>1595.58</ele>
  <time>2026-08-28T19:11:22Z</time>
  <course>63.88</course>
  <speed>0.044721359549995794</speed>
  <fix>3d</fix>
</trkpt>
<trkpt lat="40.0728552" lon="-105.2308799">
  <ele>1595.52</ele>
  <time>2026-08-28T19:11:22Z</time>
  <course>45.43</course>
  <speed>0.06</speed>
  <fix>3d</fix>
</trkpt>
<trkpt lat="40.0728552" lon="-105.2308798">
  <ele>1595.58</ele>
  <time>2026-08-28T19:11:22Z</time>
  <course>63.9</course>
  <speed>0.05</speed>
  <fix>3d</fix>
</trkpt>
<trkpt lat="40.0728553" lon="-105.2308798">
  <ele>1595.52</ele>
  <time>2026-08-28T19:11:22Z</time>
  <course>46.28</course>
  <speed>0.07</speed>
  <fix>3d</fix>
</trkpt>
<trkpt lat="40.0728553" lon="-105.2308797">
  <ele>1595.58</ele>
  <time>2026-08-28T19:11:22Z</time>
  <course>63.9</course>
  <speed>0.05830951894845301</speed>
  <fix>3d</fix>
</trkpt>
<trkpt lat="40.0728554" lon="-105.2308797">
  <ele>1595.51</ele>
  <time>2026-08-28T19:11:22Z</time>
  <course>46.96</course>
  <speed>0.07</speed>
  <fix>3d</fix>
</trkpt>
<trkpt lat="40.0728554" lon="-105.2308796">
  <ele>1595.58</ele>
  <time>2026-08-28T19:11:22Z</time>
  <course>63.91</course>
  <speed>0.05830951894845301</speed>
  <fix>3d</fix>
</trkpt>
<trkpt lat="40.0728555" lon="-105.2308795">
  <ele>1595.51</ele>
  <time>2026-08-28T19:11:22Z</time>
  <course>47.56</course>
  <speed>0.07</speed>
  <fix>3d</fix>
</trkpt>
<trkpt lat="40.0728554" lon="-105.2308794">
  <ele>1595.58</ele>
  <time>2026-08-28T19:11:22Z</time>
  <course>63.92</course>
  <speed>0.05830951894845301</speed>
  <fix>3d</fix>
</trkpt>
<trkpt lat="40.0728556" lon="-105.2308794">
  <ele>1595.51</ele>
  <time>2026-08-28T19:11:22Z</time>
  <course>48.19</course>
  <speed>0.08</speed>
  <fix>3d</fix>
</trkpt>
<trkpt lat="40.0728556" lon="-105.2308793">
  <ele>1595.58</ele>
  <time>2026-08-28T19:11:22Z</time>
  <course>63.91</course>
  <speed>0.05830951894845301</speed>
  <fix>3d</fix>
</trkpt>
<trkpt lat="40.0728557" lon="-105.2308793">
  <ele>1595.51</ele>
  <time>2026-08-28T19:11:22Z</time>
  <course>48.68</course>
  <speed>0.08</speed>
  <fix>3d</fix>
</trkpt>
<trkpt lat="40.0728557" lon="-105.2308791">
  <ele>1595.58</ele>
  <time>2026-08-28T19:11:22Z</time>
  <course>63.92</course>
  <speed>0.0670820393249937</speed>
  <fix>3d</fix>
</trkpt>
<trkpt lat="40.0728558" lon="-105.2308791">
  <ele>1595.51</ele>
  <time>2026-08-28T19:11:22Z</time>
  <course>49.15</course>
  <speed>0.08</speed>
  <fix>3d</fix>
</trkpt>
<trkpt lat="40.0728558" lon="-105.2308789">
  <ele>1595.58</ele>
  <time>2026-08-28T19:11:22Z</time>
  <course>63.93</course>
  <speed>0.0670820393249937</speed>
  <fix>3d</fix>
</trkpt>
<trkpt lat="40.0728559" lon="-105.2308789">
  <ele>1595.5</ele>
  <time>2026-08-28T19:11:22Z</time>
  <course>49.59</course>
  <speed>0.08</speed>
  <fix>3d</fix>
</trkpt>
<trkpt lat="40.0728559" lon="-105.2308788">
  <ele>1595.57</ele>
  <time>2026-08-28T19:11:22Z</time>
  <course>63.92</course>
  <speed>0.07211102550927978</speed>
  <fix>3d</fix>
</trkpt>
<trkpt lat="40.072856" lon="-105.2308788">
  <ele>1595.5</ele>
  <time>2026-08-28T19:11:22Z</time>
  <course>50.01</course>
  <speed>0.09</speed>
  <fix>3d</fix>
</trkpt>
<trkpt lat="40.072856" lon="-105.2308786">
  <ele>1595.57</ele>
  <time>2026-08-28T19:11:22Z</time>
  <course>63.42</course>
  <speed>0.07615773105863909</speed>
  <fix>3d</fix>
</trkpt>
<trkpt lat="40.0728561" lon="-105.2308786">
  <ele>1595.5</ele>
  <time>2026-08-28T19:11:22Z</time>
  <course>51.45</course>
  <speed>0.09</speed>
  <fix>3d</fix>
</trkpt>
<trkpt lat="40.0728561" lon="-105.2308784">
  <ele>1595.57</ele>
  <time>2026-08-28T19:11:22Z</time>
  <course>62.15</course>
  <speed>0.0670820393249937</speed>
  <fix>3d</fix>
</trkpt>
<trkpt lat="40.0728562" lon="-105.2308784">
  <ele>1595.5</ele>
  <time>2026-08-28T19:11:22Z</time>
  <course>53.24</course>
  <speed>0.09</speed>
  <fix>3d</fix>
</trkpt>
<trkpt lat="40.0728562" lon="-105.2308782">
  <ele>1595.56</ele>
  <time>2026-08-28T19:11:22Z</time>
  <course>60.84</course>
  <speed>0.0670820393249937</speed>
  <fix>3d</fix>
</trkpt>
<trkpt lat="40.0728563" lon="-105.2308783">
  <ele>1595.5</ele>
  <time>2026-08-28T19:11:22Z</time>
  <course>53.41</course>
  <speed>0.09</speed>
  <fix>3d</fix>
</trkpt>
<trkpt lat="40.0728563" lon="-105.2308781">
  <ele>1595.56</ele>
  <time>2026-08-28T19:11:22Z</time>
  <course>59.81</course>
  <speed>0.05830951894845301</speed>
  <fix>3d</fix>
</trkpt>
<trkpt lat="40.0728564" lon="-105.230878">
  <ele>1595.49</ele>
  <time>2026-08-28T19:11:22Z</time>
  <course>52.06</course>
  <speed>0.08</speed>
  <fix>3d</fix>
</trkpt>
<trkpt lat="40.0728564" lon="-105.2308779">
  <ele>1595.56</ele>
  <time>2026-08-28T19:11:22Z</time>
  <course>59.17</course>
  <speed>0.05830951894845301</speed>
  <fix>3d</fix>
</trkpt>
<trkpt lat="40.0728565" lon="-105.2308779">
  <ele>1595.49</ele>
  <time>2026-08-28T19:11:22Z</time>
  <course>50.0</course>
  <speed>0.08</speed>
  <fix>3d</fix>
</trkpt>
<trkpt lat="40.0728565" lon="-105.2308778">
  <ele>1595.56</ele>
  <time>2026-08-28T19:11:22Z</time>
  <course>59.01</course>
  <speed>0.05</speed>
  <fix>3d</fix>
</trkpt>
<trkpt lat="40.0728566" lon="-105.2308778">
  <ele>1595.5</ele>
  <time>2026-08-28T19:11:22Z</time>
  <course>47.31</course>
  <speed>0.07</speed>
  <fix>3d</fix>
</trkpt>
<trkpt lat="40.0728565" lon="-105.2308777">
  <ele>1595.56</ele>
  <time>2026-08-28T19:11:22Z</time>
  <course>59.29</course>
  <speed>0.03605551275463989</speed>
  <fix>3d</fix>
</trkpt>
<trkpt lat="40.0728567" lon="-105.2308777">
  <ele>1595.5</ele>
  <time>2026-08-28T19:11:22Z</time>
  <course>43.99</course>
  <speed>0.06</speed>
  <fix>3d</fix>
</trkpt>
<trkpt lat="40.0728566" lon="-105.2308776">
  <ele>1595.56</ele>
  <time>2026-08-28T19:11:22Z</time>
  <course>60.06</course>
  <speed>0.0282842712474619</speed>
  <fix>3d</fix>
</trkpt>
<trkpt lat="40.0728567" lon="-105.2308776">
  <ele>1595.5</ele>
  <time>2026-08-28T19:11:22Z</time>
  <course>39.93</course>
  <speed>0.05</speed>
  <fix>3d</fix>
</trkpt>
<trkpt lat="40.0728567" lon="-105.2308775">
  <ele>1595.56</ele>
  <time>2026-08-28T19:11:22Z</time>
  <course>61.19</course>
  <speed>0.0282842712474619</speed>
  <fix>3d</fix>
</trkpt>
<trkpt lat="40.0728568" lon="-105.2308775">
  <ele>1595.5</ele>
  <time>2026-08-28T19:11:22Z</time>
  <course>35.5</course>
  <speed>0.05</speed>
  <fix>3d</fix>
</trkpt>
<trkpt lat="40.0728568" lon="-105.2308775">
  <ele>1595.56</ele>
  <time>2026-08-28T19:11:22Z</time>
  <course>62.56</course>
  <speed>0.01414213562373095</speed>
  <fix>3d</fix>
</trkpt>
<trkpt lat="40.0728569" lon="-105.2308774">
  <ele>1595.5</ele>
  <time>2026-08-28T19:11:22Z</time>
  <course>31.34</course>
  <speed>0.04</speed>
  <fix>3d</fix>
</trkpt>
<trkpt lat="40.0728568" lon="-105.2308774">
  <ele>1595.56</ele>
  <time>2026-08-28T19:11:22Z</time>
  <course>64.06</course>
  <speed>0.01414213562373095</speed>
  <fix>3d</fix>
</trkpt>
<trkpt lat="40.072857" lon="-105.2308774">
  <ele>1595.5</ele>
  <time>2026-08-28T19:11:22Z</time>
  <course>27.17</course>
  <speed>0.04</speed>
  <fix>3d</fix>
</trkpt>
<trkpt lat="40.0728569" lon="-105.2308774">
  <ele>1595.57</ele>
  <time>2026-08-28T19:11:22Z</time>
  <course>65.6</course>
  <speed>0.01</speed>
  <fix>3d</fix>
</trkpt>
<trkpt lat="40.0728571" lon="-105.2308774">
  <ele>1595.5</ele>
  <time>2026-08-28T19:11:22Z</time>
  <course>23.66</course>
  <speed>0.03</speed>
  <fix>3d</fix>
</trkpt>
<trkpt lat="40.072857" lon="-105.2308774">
  <ele>1595.57</ele>
  <time>2026-08-28T19:11:22Z</time>
  <course>66.96</course>
  <speed>0.01</speed>
  <fix>3d</fix>
</trkpt>
<trkpt lat="40.0728571" lon="-105.2308773">
  <ele>1595.51</ele>
  <time>2026-08-28T19:11:22Z</time>
  <course>22.03</course>
  <speed>0.03</speed>
  <fix>3d</fix>
</trkpt>
<trkpt lat="40.072857" lon="-105.2308774">
  <ele>1595.57</ele>
  <time>2026-08-28T19:11:22Z</time>
  <course>67.99</course>
  <speed>0.0</speed>
  <fix>3d</fix>
</trkpt>
<trkpt lat="40.0728572" lon="-105.2308772">
  <ele>1595.51</ele>
  <time>2026-08-28T19:11:22Z</time>
  <course>22.44</course>
  <speed>0.03</speed>
  <fix>3d</fix>
</trkpt>
<trkpt lat="40.0728571" lon="-105.2308773">
  <ele>1595.57</ele>
  <time>2026-08-28T19:11:22Z</time>
  <course>68.62</course>
  <speed>0.01</speed>
  <fix>3d</fix>
</trkpt>
<trkpt lat="40.0728572" lon="-105.2308772">
  <ele>1595.51</ele>
  <time>2026-08-28T19:11:22Z</time>
  <course>24.93</course>
  <speed>0.03</speed>
  <fix>3d</fix>
</trkpt>
<trkpt lat="40.0728571" lon="-105.2308773">
  <ele>1595.57</ele>
  <time>2026-08-28T19:11:22Z</time>
  <course>68.8</course>
  <speed>0.01</speed>
  <fix>3d</fix>
</trkpt>
<trkpt lat="40.0728572" lon="-105.2308772">
  <ele>1595.51</ele>
  <time>2026-08-28T19:11:22Z</time>
  <course>29.48</course>
  <speed>0.02</speed>
  <fix>3d</fix>
</trkpt>
<trkpt lat="40.0728571" lon="-105.2308772">
  <ele>1595.57</ele>
  <time>2026-08-28T19:11:22Z</time>
  <course>68.5</course>
  <speed>0.01</speed>
  <fix>3d</fix>
</trkpt>
<trkpt lat="40.0728573" lon="-105.2308772">
  <ele>1595.51</ele>
  <time>2026-08-28T19:11:22Z</time>
  <course>34.53</course>
  <speed>0.02</speed>
  <fix>3d</fix>
</trkpt>
<trkpt lat="40.0728572" lon="-105.2308772">
  <ele>1595.57</ele>
  <time>2026-08-28T19:11:22Z</time>
  <course>67.76</course>
  <speed>0.01</speed>
  <fix>3d</fix>
</trkpt>
<trkpt lat="40.0728573" lon="-105.2308771">
  <ele>1595.51</ele>
  <time>2026-08-28T19:11:22Z</time>
  <course>38.77</course>
  <speed>0.02</speed>
  <fix>3d</fix>
</trkpt>
<trkpt lat="40.0728572" lon="-105.2308771">
  <ele>1595.57</ele>
  <time>2026-08-28T19:11:22Z</time>
  <course>66.61</course>
  <speed>0.01</speed>
  <fix>3d</fix>
</trkpt>
<trkpt lat="40.0728574" lon="-105.2308771">
  <ele>1595.51</ele>
  <time>2026-08-28T19:11:22Z</time>
  <course>41.78</course>
  <speed>0.03</speed>
  <fix>3d</fix>
</trkpt>
<trkpt lat="40.0728572" lon="-105.2308771">
  <ele>1595.57</ele>
  <time>2026-08-28T19:11:22Z</time>
  <course>65.21</course>
  <speed>0.01</speed>
  <fix>3d</fix>
</trkpt>
<trkpt lat="40.0728575" lon="-105.230877">
  <ele>1595.51</ele>
  <time>2026-08-28T19:11:22Z</time>
  <course>43.23</course>
  <speed>0.03</speed>
  <fix>3d</fix>
</trkpt>
<trkpt lat="40.0728573" lon="-105.230877">
  <ele>1595.58</ele>
  <time>2026-08-28T19:11:22Z</time>
  <course>63.69</course>
  <speed>0.02</speed>
  <fix>3d</fix>
</trkpt>
<trkpt lat="40.0728575" lon="-105.2308769">
  <ele>1595.51</ele>
  <time>2026-08-28T19:11:22Z</time>
  <course>43.04</course>
  <speed>0.03</speed>
  <fix>3d</fix>
</trkpt>
<trkpt lat="40.0728573" lon="-105.230877">
  <ele>1595.57</ele>
  <time>2026-08-28T19:11:22Z</time>
  <course>62.21</course>
  <speed>0.02</speed>
  <fix>3d</fix>
</trkpt>
<trkpt lat="40.0728575" lon="-105.2308769">
  <ele>1595.51</ele>
  <time>2026-08-28T19:11:22Z</time>
  <course>41.81</course>
  <speed>0.03</speed>
  <fix>3d</fix>
</trkpt>
<trkpt lat="40.0728574" lon="-105.2308769">
  <ele>1595.57</ele>
  <time>2026-08-28T19:11:22Z</time>
  <course>60.88</course>
  <speed>0.02</speed>
  <fix>3d</fix>
</trkpt>
<trkpt lat="40.0728576" lon="-105.2308769">
  <ele>1595.5</ele>
  <time>2026-08-28T19:11:22Z</time>
  <course>39.99</course>
  <speed>0.03</speed>
  <fix>3d</fix>
</trkpt>
<trkpt lat="40.0728575" lon="-105.2308768">
  <ele>1595.57</ele>
  <time>2026-08-28T19:11:22Z</time>
  <course>59.84</course>
  <speed>0.01414213562373095</speed>
  <fix>3d</fix>
</trkpt>
<trkpt lat="40.0728576" lon="-105.2308768">
  <ele>1595.5</ele>
  <time>2026-08-28T19:11:22Z</time>
  <course>37.1</course>
  <speed>0.03</speed>
  <fix>3d</fix>
</trkpt>
<trkpt lat="40.0728575" lon="-105.2308768">
  <ele>1595.57</ele>
  <time>2026-08-28T19:11:22Z</time>
  <course>59.19</course>
  <speed>0.01414213562373095</speed>
  <fix>3d</fix>
</trkpt>
<trkpt lat="40.0728577" lon="-105.2308767">
  <ele>1595.5</ele>
  <time>2026-08-28T19:11:22Z</time>
  <course>33.94</course>
  <speed>0.04</speed>
  <fix>3d</fix>
</trkpt>
<trkpt lat="40.0728576" lon="-105.2308767">
  <ele>1595.57</ele>
  <time>2026-08-28T19:11:22Z</time>
  <course>59.02</course>
  <speed>0.01414213562373095</speed>
  <fix>3d</fix>
</trkpt>
<trkpt lat="40.0728578" lon="-105.2308767">
  <ele>1595.5</ele>
  <time>2026-08-28T19:11:22Z</time>
  <course>30.59</course>
  <speed>0.04</speed>
  <fix>3d</fix>
</trkpt>
<trkpt lat="40.0728576" lon="-105.2308767">
  <ele>1595.57</ele>
  <time>2026-08-28T19:11:22Z</time>
  <course>59.31</course>
  <speed>0.01414213562373095</speed>
  <fix>3d</fix>
</trkpt>
<trkpt lat="40.0728578" lon="-105.2308767">
  <ele>1595.5</ele>
  <time>2026-08-28T19:11:22Z</time>
  <course>26.81</course>
  <speed>0.04</speed>
  <fix>3d</fix>
</trkpt>
<trkpt lat="40.0728577" lon="-105.2308767">
  <ele>1595.56</ele>
  <time>2026-08-28T19:11:22Z</time>
  <course>60.07</course>
  <speed>0.01414213562373095</speed>
  <fix>3d</fix>
</trkpt>
<trkpt lat="40.0728579" lon="-105.2308766">
  <ele>1595.5</ele>
  <time>2026-08-28T19:11:22Z</time>
  <course>23.66</course>
  <speed>0.04</speed>
  <fix>3d</fix>
</trkpt>
<trkpt lat="40.0728578" lon="-105.2308766">
  <ele>1595.56</ele>
  <time>2026-08-28T19:11:22Z</time>
  <course>61.2</course>
  <speed>0.01414213562373095</speed>
  <fix>3d</fix>
</trkpt>
<trkpt lat="40.0728579" lon="-105.2308766">
  <ele>1595.5</ele>
  <time>2026-08-28T19:11:22Z</time>
  <course>21.8</course>
  <speed>0.04</speed>
  <fix>3d</fix>
</trkpt>
<trkpt lat="40.0728579" lon="-105.2308766">
  <ele>1595.56</ele>
  <time>2026-08-28T19:11:22Z</time>
  <course>62.55</course>
  <speed>0.01414213562373095</speed>
  <fix>3d</fix>
</trkpt>
<trkpt lat="40.072858" lon="-105.2308766">
  <ele>1595.5</ele>
  <time>2026-08-28T19:11:22Z</time>
  <course>20.68</course>
  <speed>0.04</speed>
  <fix>3d</fix>
</trkpt>
<trkpt lat="40.0728579" lon="-105.2308766">
  <ele>1595.56</ele>
  <time>2026-08-28T19:11:22Z</time>
  <course>64.05</course>
  <speed>0.01</speed>
  <fix>3d</fix>
</trkpt>
<trkpt lat="40.0728581" lon="-105.2308765">
  <ele>1595.5</ele>
  <time>2026-08-28T19:11:22Z</time>
  <course>19.74</course>
  <speed>0.04</speed>
  <fix>3d</fix>
</trkpt>
<trkpt lat="40.072858" lon="-105.2308765">
  <ele>1595.56</ele>
  <time>2026-08-28T19:11:22Z</time>
  <course>65.58</course>
  <speed>0.01</speed>
  <fix>3d</fix>
</trkpt>
<trkpt lat="40.0728582" lon="-105.2308764">
  <ele>1595.51</ele>
  <time>2026-08-28T19:11:22Z</time>
  <course>19.72</course>
  <speed>0.04</speed>
  <fix>3d</fix>
</trkpt>
<trkpt lat="40.0728581" lon="-105.2308765">
  <ele>1595.56</ele>
  <time>2026-08-28T19:11:22Z</time>
  <course>66.94</course>
  <speed>0.01414213562373095</speed>
  <fix>3d</fix>
</trkpt>
<trkpt lat="40.0728582" lon="-105.2308764">
  <ele>1595.51</ele>
  <time>2026-08-28T19:11:22Z</time>
  <course>20.75</course>
  <speed>0.03</speed>
  <fix>3d</fix>
</trkpt>
<trkpt lat="40.0728581" lon="-105.2308765">
  <ele>1595.57</ele>
  <time>2026-08-28T19:11:22Z</time>
  <course>67.97</course>
  <speed>0.01414213562373095</speed>
  <fix>3d</fix>
</trkpt>
<trkpt lat="40.0728583" lon="-105.2308764">
  <ele>1595.51</ele>
  <time>2026-08-28T19:11:22Z</time>
  <course>22.87</course>
  <speed>0.03</speed>
  <fix>3d</fix>
</trkpt>
<trkpt lat="40.0728582" lon="-105.2308764">
  <ele>1595.57</ele>
  <time>2026-08-28T19:11:22Z</time>
  <course>68.61</course>
  <speed>0.01</speed>
  <fix>3d</fix>
</trkpt>
<trkpt lat="40.0728584" lon="-105.2308764">
  <ele>1595.51</ele>
  <time>2026-08-28T19:11:22Z</time>
  <course>26.47</course>
  <speed>0.03</speed>
  <fix>3d</fix>
</trkpt>
<trkpt lat="40.0728582" lon="-105.2308764">
  <ele>1595.57</ele>
  <time>2026-08-28T19:11:22Z</time>
  <course>68.81</course>
  <speed>0.01</speed>
  <fix>3d</fix>
</trkpt>
<trkpt lat="40.0728584" lon="-105.2308764">
  <ele>1595.51</ele>
  <time>2026-08-28T19:11:22Z</time>
  <course>31.2</course>
  <speed>0.03</speed>
  <fix>3d</fix>
</trkpt>
<trkpt lat="40.0728583" lon="-105.2308763">
  <ele>1595.58</ele>
  <time>2026-08-28T19:11:22Z</time>
  <course>68.5</course>
  <speed>0.01</speed>
  <fix>3d</fix>
</trkpt>
<trkpt lat="40.0728584" lon="-105.2308763">
  <ele>1595.51</ele>
  <time>2026-08-28T19:11:22Z</time>
  <course>35.82</course>
  <speed>0.03</speed>
  <fix>3d</fix>
</trkpt>
<trkpt lat="40.0728583" lon="-105.2308763">
  <ele>1595.58</ele>
  <time>2026-08-28T19:11:22Z</time>
  <course>67.76</course>
  <speed>0.02</speed>
  <fix>3d</fix>
</trkpt>
<trkpt lat="40.0728585" lon="-105.2308762">
  <ele>1595.51</ele>
  <time>2026-08-28T19:11:22Z</time>
  <course>39.64</course>
  <speed>0.03</speed>
  <fix>3d</fix>
</trkpt>
<trkpt lat="40.0728584" lon="-105.2308762">
  <ele>1595.58</ele>
  <time>2026-08-28T19:11:22Z</time>
  <course>66.64</course>
  <speed>0.02</speed>
  <fix>3d</fix>
</trkpt>
<trkpt lat="40.0728585" lon="-105.2308762">
  <ele>1595.51</ele>
  <time>2026-08-28T19:11:22Z</time>
  <course>42.65</course>
  <speed>0.03</speed>
  <fix>3d</fix>
</trkpt>
<trkpt lat="40.0728584" lon="-105.2308762">
  <ele>1595.58</ele>
  <time>2026-08-28T19:11:22Z</time>
  <course>65.28</course>
  <speed>0.02</speed>
  <fix>3d</fix>
</trkpt>
<trkpt lat="40.0728586" lon="-105.2308761">
  <ele>1595.51</ele>
  <time>2026-08-28T19:11:22Z</time>
  <course>44.63</course>
  <speed>0.03</speed>
  <fix>3d</fix>
</trkpt>
<trkpt lat="40.0728585" lon="-105.2308761">
  <ele>1595.58</ele>
  <time>2026-08-28T19:11:22Z</time>
  <course>63.77</course>
  <speed>0.02</speed>
  <fix>3d</fix>
</trkpt>
<trkpt lat="40.0728587" lon="-105.230876">
  <ele>1595.51</ele>
  <time>2026-08-28T19:11:22Z</time>
  <course>45.55</course>
  <speed>0.03</speed>
  <fix>3d</fix>
</trkpt>
<trkpt lat="40.0728585" lon="-105.230876">
  <ele>1595.58</ele>
  <time>2026-08-28T19:11:22Z</time>
  <course>62.23</course>
  <speed>0.02</speed>
  <fix>3d</fix>
</trkpt>
<trkpt lat="40.0728587" lon="-105.230876">
  <ele>1595.5</ele>
  <time>2026-08-28T19:11:22Z</time>
  <course>45.59</course>
  <speed>0.03</speed>
  <fix>3d</fix>
</trkpt>
<trkpt lat="40.0728586" lon="-105.230876">
  <ele>1595.58</ele>
  <time>2026-08-28T19:11:22Z</time>
  <course>60.9</course>
  <speed>0.02</speed>
  <fix>3d</fix>
</trkpt>
<trkpt lat="40.0728588" lon="-105.2308759">
  <ele>1595.5</ele>
  <time>2026-08-28T19:11:22Z</time>
  <course>43.92</course>
  <speed>0.03</speed>
  <fix>3d</fix>
</trkpt>
<trkpt lat="40.0728586" lon="-105.2308759">
  <ele>1595.57</ele>
  <time>2026-08-28T19:11:22Z</time>
  <course>59.86</course>
  <speed>0.02</speed>
  <fix>3d</fix>
</trkpt>
<trkpt lat="40.0728588" lon="-105.2308759">
  <ele>1595.5</ele>
  <time>2026-08-28T19:11:22Z</time>
  <course>40.88</course>
  <speed>0.04</speed>
  <fix>3d</fix>
</trkpt>
<trkpt lat="40.0728587" lon="-105.2308759">
  <ele>1595.57</ele>
  <time>2026-08-28T19:11:22Z</time>
  <course>59.21</course>
  <speed>0.01414213562373095</speed>
  <fix>3d</fix>
</trkpt>
<trkpt lat="40.0728589" lon="-105.2308758">
  <ele>1595.5</ele>
  <time>2026-08-28T19:11:22Z</time>
  <course>36.77</course>
  <speed>0.04</speed>
  <fix>3d</fix>
</trkpt>
<trkpt lat="40.0728588" lon="-105.2308758">
  <ele>1595.57</ele>
  <time>2026-08-28T19:11:22Z</time>
  <course>59.03</course>
  <speed>0.01414213562373095</speed>
  <fix>3d</fix>
</trkpt>
<trkpt lat="40.0728589" lon="-105.2308757">
  <ele>1595.5</ele>
  <time>2026-08-28T19:11:22Z</time>
  <course>32.35</course>
  <speed>0.04</speed>
  <fix>3d</fix>
</trkpt>
<trkpt lat="40.0728588" lon="-105.2308758">
  <ele>1595.57</ele>
  <time>2026-08-28T19:11:22Z</time>
  <course>59.31</course>
  <speed>0.01414213562373095</speed>
  <fix>3d</fix>
</trkpt>
<trkpt lat="40.072859" lon="-105.2308757">
  <ele>1595.5</ele>
  <time>2026-08-28T19:11:22Z</time>
  <course>28.62</course>
  <speed>0.04</speed>
  <fix>3d</fix>
</trkpt>
<trkpt lat="40.0728589" lon="-105.2308757">
  <ele>1595.57</ele>
  <time>2026-08-28T19:11:22Z</time>
  <course>60.06</course>
  <speed>0.01414213562373095</speed>
  <fix>3d</fix>
</trkpt>
<trkpt lat="40.072859" lon="-105.2308757">
  <ele>1595.49</ele>
  <time>2026-08-28T19:11:22Z</time>
  <course>25.32</course>
  <speed>0.04</speed>
  <fix>3d</fix>
</trkpt>
<trkpt lat="40.072859" lon="-105.2308757">
  <ele>1595.57</ele>
  <time>2026-08-28T19:11:22Z</time>
  <course>61.23</course>
  <speed>0.022360679774997897</speed>
  <fix>3d</fix>
</trkpt>
<trkpt lat="40.0728591" lon="-105.2308756">
  <ele>1595.49</ele>
  <time>2026-08-28T19:11:22Z</time>
  <course>22.77</course>
  <speed>0.04</speed>
  <fix>3d</fix>
</trkpt>
<trkpt lat="40.072859" lon="-105.2308756">
  <ele>1595.57</ele>
  <time>2026-08-28T19:11:22Z</time>
  <course>62.63</course>
  <speed>0.022360679774997897</speed>
  <fix>3d</fix>
</trkpt>
<trkpt lat="40.0728592" lon="-105.2308755">
  <ele>1595.49</ele>
  <time>2026-08-28T19:11:22Z</time>
  <course>21.12</course>
  <speed>0.04</speed>
  <fix>3d</fix>
</trkpt>
<trkpt lat="40.0728591" lon="-105.2308756">
  <ele>1595.57</ele>
  <time>2026-08-28T19:11:22Z</time>
  <course>64.14</course>
  <speed>0.01414213562373095</speed>
  <fix>3d</fix>
</trkpt>
<trkpt lat="40.0728593" lon="-105.2308755">
  <ele>1595.49</ele>
  <time>2026-08-28T19:11:22Z</time>
  <course>20.27</course>
  <speed>0.04</speed>
  <fix>3d</fix>
</trkpt>
<trkpt lat="40.0728592" lon="-105.2308756">
  <ele>1595.58</ele>
  <time>2026-08-28T19:11:22Z</time>
  <course>65.63</course>
  <speed>0.01414213562373095</speed>
  <fix>3d</fix>
</trkpt>
<trkpt lat="40.0728594" lon="-105.2308755">
  <ele>1595.49</ele>
  <time>2026-08-28T19:11:22Z</time>
  <course>20.44</course>
  <speed>0.04</speed>
  <fix>3d</fix>
</trkpt>
<trkpt lat="40.0728593" lon="-105.2308755">
  <ele>1595.58</ele>
  <time>2026-08-28T19:11:22Z</time>
  <course>66.96</course>
  <speed>0.01414213562373095</speed>
  <fix>3d</fix>
</trkpt>
<trkpt lat="40.0728594" lon="-105.2308755">
  <ele>1595.49</ele>
  <time>2026-08-28T19:11:22Z</time>
  <course>21.67</course>
  <speed>0.04</speed>
  <fix>3d</fix>
</trkpt>
<trkpt lat="40.0728593" lon="-105.2308755">
  <ele>1595.58</ele>
  <time>2026-08-28T19:11:22Z</time>
  <course>68.02</course>
  <speed>0.01414213562373095</speed>
  <fix>3d</fix>
</trkpt>
<trkpt lat="40.0728595" lon="-105.2308755">
  <ele>1595.49</ele>
  <time>2026-08-28T19:11:22Z</time>
  <course>23.09</course>
  <speed>0.03</speed>
  <fix>3d</fix>
</trkpt>
<trkpt lat="40.0728594" lon="-105.2308754">
  <ele>1595.58</ele>
  <time>2026-08-28T19:11:22Z</time>
  <course>68.67</course>
  <speed>0.01</speed>
  <fix>3d</fix>
</trkpt>
<trkpt lat="40.0728596" lon="-105.2308754">
  <ele>1595.49</ele>
  <time>2026-08-28T19:11:22Z</time>
  <course>25.2</course>
  <speed>0.03</speed>
  <fix>3d</fix>
</trkpt>
<trkpt lat="40.0728594" lon="-105.2308754">
  <ele>1595.58</ele>
  <time>2026-08-28T19:11:22Z</time>
  <course>68.84</course>
  <speed>0.01</speed>
  <fix>3d</fix>
</trkpt>
<trkpt lat="40.0728596" lon="-105.2308754">
  <ele>1595.49</ele>
  <time>2026-08-28T19:11:22Z</time>
  <course>29.36</course>
  <speed>0.03</speed>
  <fix>3d</fix>
</trkpt>
<trkpt lat="40.0728595" lon="-105.2308754">
  <ele>1595.58</ele>
  <time>2026-08-28T19:11:22Z</time>
  <course>68.54</course>
  <speed>0.01</speed>
  <fix>3d</fix>
</trkpt>
<trkpt lat="40.0728596" lon="-105.2308753">
  <ele>1595.48</ele>
  <time>2026-08-28T19:11:22Z</time>
  <course>34.75</course>
  <speed>0.03</speed>
  <fix>3d</fix>
</trkpt>
<trkpt lat="40.0728595" lon="-105.2308753">
  <ele>1595.57</ele>
  <time>2026-08-28T19:11:22Z</time>
  <course>67.76</course>
  <speed>0.01</speed>
  <fix>3d</fix>
</trkpt>
<trkpt lat="40.0728597" lon="-105.2308752">
  <ele>1595.48</ele>
  <time>2026-08-28T19:11:22Z</time>
  <course>40.01</course>
  <speed>0.03</speed>
  <fix>3d</fix>
</trkpt>
<trkpt lat="40.0728596" lon="-105.2308753">
  <ele>1595.56</ele>
  <time>2026-08-28T19:11:22Z</time>
  <course>66.58</course>
  <speed>0.02</speed>
  <fix>3d</fix>
</trkpt>
<trkpt lat="40.0728597" lon="-105.2308752">
  <ele>1595.48</ele>
  <time>2026-08-28T19:11:22Z</time>
  <course>44.07</course>
  <speed>0.03</speed>
  <fix>3d</fix>
</trkpt>
<trkpt lat="40.0728596" lon="-105.2308752">
  <ele>1595.56</ele>
  <time>2026-08-28T19:11:22Z</time>
  <course>65.18</course>
  <speed>0.02</speed>
  <fix>3d</fix>
</trkpt>
<trkpt lat="40.0728598" lon="-105.2308752">
  <ele>1595.48</ele>
  <time>2026-08-28T19:11:22Z</time>
  <course>46.1</course>
  <speed>0.03</speed>
  <fix>3d</fix>
</trkpt>
<trkpt lat="40.0728596" lon="-105.2308751">
  <ele>1595.55</ele>
  <time>2026-08-28T19:11:22Z</time>
  <course>63.66</course>
  <speed>0.02</speed>
  <fix>3d</fix>
</trkpt>
<trkpt lat="40.0728599" lon="-105.2308751">
  <ele>1595.48</ele>
  <time>2026-08-28T19:11:22Z</time>
  <course>46.84</course>
  <speed>0.03</speed>
  <fix>3d</fix>
</trkpt>
<trkpt lat="40.0728597" lon="-105.2308751">
  <ele>1595.56</ele>
  <time>2026-08-28T19:11:22Z</time>
  <course>62.14</course>
  <speed>0.02</speed>
  <fix>3d</fix>
</trkpt>
<trkpt lat="40.0728599" lon="-105.230875">
  <ele>1595.48</ele>
  <time>2026-08-28T19:11:22Z</time>
  <course>46.75</course>
  <speed>0.03</speed>
  <fix>3d</fix>
</trkpt>
<trkpt lat="40.0728598" lon="-105.230875">
  <ele>1595.56</ele>
  <time>2026-08-28T19:11:22Z</time>
  <course>60.84</course>
  <speed>0.02</speed>
  <fix>3d</fix>
</trkpt>
<trkpt lat="40.07286" lon="-105.230875">
  <ele>1595.48</ele>
  <time>2026-08-28T19:11:22Z</time>
  <course>45.24</course>
  <speed>0.04</speed>
  <fix>3d</fix>
</trkpt>
<trkpt lat="40.0728598" lon="-105.2308749">
  <ele>1595.56</ele>
  <time>2026-08-28T19:11:22Z</time>
  <course>59.8</course>
  <speed>0.022360679774997897</speed>
  <fix>3d</fix>
</trkpt>
<trkpt lat="40.07286" lon="-105.2308749">
  <ele>1595.48</ele>
  <time>2026-08-28T19:11:22Z</time>
  <course>43.01</course>
  <speed>0.04</speed>
  <fix>3d</fix>
</trkpt>
<trkpt lat="40.0728599" lon="-105.2308749">
  <ele>1595.56</ele>
  <time>2026-08-28T19:11:22Z</time>
  <course>59.18</course>
  <speed>0.022360679774997897</speed>
  <fix>3d</fix>
</trkpt>
<trkpt lat="40.0728601" lon="-105.2308748">
  <ele>1595.48</ele>
  <time>2026-08-28T19:11:22Z</time>
  <course>39.61</course>
  <speed>0.04</speed>
  <fix>3d</fix>
</trkpt>
<trkpt lat="40.0728599" lon="-105.2308748">
  <ele>1595.56</ele>
  <time>2026-08-28T19:11:22Z</time>
  <course>59.02</course>
  <speed>0.01414213562373095</speed>
  <fix>3d</fix>
</trkpt>
<trkpt lat="40.0728601" lon="-105.2308748">
  <ele>1595.49</ele>
  <time>2026-08-28T19:11:22Z</time>
  <course>35.1</course>
  <speed>0.04</speed>
  <fix>3d</fix>
</trkpt>
<trkpt lat="40.07286" lon="-105.2308748">
  <ele>1595.56</ele>
  <time>2026-08-28T19:11:22Z</time>
  <course>59.31</course>
  <speed>0.01414213562373095</speed>
  <fix>3d</fix>
</trkpt>
<trkpt lat="40.0728602" lon="-105.2308747">
  <ele>1595.49</ele>
  <time>2026-08-28T19:11:22Z</time>
  <course>31.09</course>
  <speed>0.04</speed>
  <fix>3d</fix>
</trkpt>
<trkpt lat="40.0728601" lon="-105.2308747">
  <ele>1595.56</ele>
  <time>2026-08-28T19:11:22Z</time>
  <course>60.04</course>
  <speed>0.022360679774997897</speed>
  <fix>3d</fix>
</trkpt>
<trkpt lat="40.0728602" lon="-105.2308747">
  <ele>1595.49</ele>
  <time>2026-08-28T19:11:22Z</time>
  <course>27.79</course>
  <speed>0.04</speed>
  <fix>3d</fix>
</trkpt>
<trkpt lat="40.0728602" lon="-105.2308747">
  <ele>1595.57</ele>
  <time>2026-08-28T19:11:22Z</time>
  <course>61.21</course>
  <speed>0.022360679774997897</speed>
  <fix>3d</fix>
</trkpt>
<trkpt lat="40.0728603" lon="-105.2308746">
  <ele>1595.49</ele>
  <time>2026-08-28T19:11:22Z</time>
  <course>24.91</course>
  <speed>0.04</speed>
  <fix>3d</fix>
</trkpt>
<trkpt lat="40.0728602" lon="-105.2308746">
  <ele>1595.57</ele>
  <time>2026-08-28T19:11:22Z</time>
  <course>62.64</course>
  <speed>0.022360679774997897</speed>
  <fix>3d</fix>
</trkpt>
<trkpt lat="40.0728604" lon="-105.2308745">
  <ele>1595.49</ele>
  <time>2026-08-28T19:11:22Z</time>
  <course>22.38</course>
  <speed>0.04</speed>
  <fix>3d</fix>
</trkpt>
<trkpt lat="40.0728603" lon="-105.2308746">
  <ele>1595.57</ele>
  <time>2026-08-28T19:11:22Z</time>
  <course>64.14</course>
  <speed>0.01414213562373095</speed>
  <fix>3d</fix>
</trkpt>
<trkpt lat="40.0728605" lon="-105.2308745">
  <ele>1595.49</ele>
  <time>2026-08-28T19:11:22Z</time>
  <course>20.6</course>
  <speed>0.04</speed>
  <fix>3d</fix>
</trkpt>
<trkpt lat="40.0728604" lon="-105.2308746">
  <ele>1595.56</ele>
  <time>2026-08-28T19:11:22Z</time>
  <course>65.62</course>
  <speed>0.01414213562373095</speed>
  <fix>3d</fix>
</trkpt>
<trkpt lat="40.0728606" lon="-105.2308745">
  <ele>1595.49</ele>
  <time>2026-08-28T19:11:22Z</time>
  <course>19.78</course>
  <speed>0.04</speed>
  <fix>3d</fix>
</trkpt>
<trkpt lat="40.0728605" lon="-105.2308745">
  <ele>1595.56</ele>
  <time>2026-08-28T19:11:22Z</time>
  <course>66.95</course>
  <speed>0.01414213562373095</speed>
  <fix>3d</fix>
</trkpt>
<trkpt lat="40.0728606" lon="-105.2308745">
  <ele>1595.49</ele>
  <time>2026-08-28T19:11:22Z</time>
  <course>20.06</course>
  <speed>0.04</speed>
  <fix>3d</fix>
</trkpt>
<trkpt lat="40.0728605" lon="-105.2308745">
  <ele>1595.57</ele>
  <time>2026-08-28T19:11:22Z</time>
  <course>67.98</course>
  <speed>0.01414213562373095</speed>
  <fix>3d</fix>
</trkpt>
<trkpt lat="40.0728607" lon="-105.2308745">
  <ele>1595.49</ele>
  <time>2026-08-28T19:11:22Z</time>
  <course>21.9</course>
  <speed>0.03</speed>
  <fix>3d</fix>
</trkpt>
<trkpt lat="40.0728606" lon="-105.2308745">
  <ele>1595.57</ele>
  <time>2026-08-28T19:11:22Z</time>
  <course>68.63</course>
  <speed>0.01</speed>
  <fix>3d</fix>
</trkpt>
<trkpt lat="40.0728608" lon="-105.2308744">
  <ele>1595.5</ele>
  <time>2026-08-28T19:11:22Z</time>
  <course>25.73</course>
  <speed>0.03</speed>
  <fix>3d</fix>
</trkpt>
<trkpt lat="40.0728606" lon="-105.2308744">
  <ele>1595.58</ele>
  <time>2026-08-28T19:11:22Z</time>
  <course>68.79</course>
  <speed>0.01</speed>
  <fix>3d</fix>
</trkpt>
<trkpt lat="40.0728608" lon="-105.2308743">
  <ele>1595.5</ele>
  <time>2026-08-28T19:11:22Z</time>
  <course>30.47</course>
  <speed>0.03</speed>
  <fix>3d</fix>
</trkpt>
<trkpt lat="40.0728607" lon="-105.2308744">
  <ele>1595.58</ele>
  <time>2026-08-28T19:11:22Z</time>
  <course>68.54</course>
  <speed>0.01</speed>
  <fix>3d</fix>
</trkpt>
<trkpt lat="40.0728608" lon="-105.2308743">
  <ele>1595.5</ele>
  <time>2026-08-28T19:11:22Z</time>
  <course>34.67</course>
  <speed>0.03</speed>
  <fix>3d</fix>
</trkpt>
<trkpt lat="40.0728607" lon="-105.2308743">
  <ele>1595.58</ele>
  <time>2026-08-28T19:11:22Z</time>
  <course>67.77</course>
  <speed>0.01</speed>
  <fix>3d</fix>
</trkpt>
<trkpt lat="40.0728609" lon="-105.2308743">
  <ele>1595.5</ele>
  <time>2026-08-28T19:11:22Z</time>
  <course>38.49</course>
  <speed>0.03</speed>
  <fix>3d</fix>
</trkpt>
<trkpt lat="40.0728608" lon="-105.2308743">
  <ele>1595.57</ele>
  <time>2026-08-28T19:11:22Z</time>
  <course>66.64</course>
  <speed>0.02</speed>
  <fix>3d</fix>
</trkpt>
<trkpt lat="40.0728609" lon="-105.2308742">
  <ele>1595.49</ele>
  <time>2026-08-28T19:11:22Z</time>
  <course>41.7</course>
  <speed>0.03</speed>
  <fix>3d</fix>
</trkpt>
<trkpt lat="40.0728608" lon="-105.2308742">
  <ele>1595.57</ele>
  <time>2026-08-28T19:11:22Z</time>
  <course>65.26</course>
  <speed>0.02</speed>
  <fix>3d</fix>
</trkpt>
<trkpt lat="40.072861" lon="-105.2308741">
  <ele>1595.49</ele>
  <time>2026-08-28T19:11:22Z</time>
  <course>43.29</course>
  <speed>0.03</speed>
  <fix>3d</fix>
</trkpt>
<trkpt lat="40.0728609" lon="-105.2308741">
  <ele>1595.57</ele>
  <time>2026-08-28T19:11:22Z</time>
  <course>63.72</course>
  <speed>0.02</speed>
  <fix>3d</fix>
</trkpt>
<trkpt lat="40.0728611" lon="-105.2308741">
  <ele>1595.49</ele>
  <time>2026-08-28T19:11:22Z</time>
  <course>44.26</course>
  <speed>0.03</speed>
  <fix>3d</fix>
</trkpt>
<trkpt lat="40.0728609" lon="-105.2308741">
  <ele>1595.57</ele>
  <time>2026-08-28T19:11:22Z</time>
  <course>62.2</course>
  <speed>0.02</speed>
  <fix>3d</fix>
</trkpt>
<trkpt lat="40.0728611" lon="-105.2308741">
  <ele>1595.49</ele>
  <time>2026-08-28T19:11:22Z</time>
  <course>44.22</course>
  <speed>0.03</speed>
  <fix>3d</fix>
</trkpt>
<trkpt lat="40.072861" lon="-105.230874">
  <ele>1595.57</ele>
  <time>2026-08-28T19:11:22Z</time>
  <course>60.86</course>
  <speed>0.02</speed>
  <fix>3d</fix>
</trkpt>
<trkpt lat="40.0728612" lon="-105.230874">
  <ele>1595.49</ele>
  <time>2026-08-28T19:11:22Z</time>
  <course>42.5</course>
  <speed>0.03</speed>
  <fix>3d</fix>
</trkpt>
<trkpt lat="40.072861" lon="-105.230874">
  <ele>1595.57</ele>
  <time>2026-08-28T19:11:22Z</time>
  <course>59.82</course>
  <speed>0.022360679774997897</speed>
  <fix>3d</fix>
</trkpt>
<trkpt lat="40.0728612" lon="-105.2308739">
  <ele>1595.49</ele>
  <time>2026-08-28T19:11:22Z</time>
  <course>39.44</course>
  <speed>0.04</speed>
  <fix>3d</fix>
</trkpt>
<trkpt lat="40.0728611" lon="-105.2308739">
  <ele>1595.57</ele>
  <time>2026-08-28T19:11:22Z</time>
  <course>59.18</course>
  <speed>0.01414213562373095</speed>
  <fix>3d</fix>
</trkpt>
<trkpt lat="40.0728613" lon="-105.2308738">
  <ele>1595.49</ele>
  <time>2026-08-28T19:11:22Z</time>
  <course>35.28</course>
  <speed>0.04</speed>
  <fix>3d</fix>
</trkpt>
<trkpt lat="40.0728612" lon="-105.2308739">
  <ele>1595.56</ele>
  <time>2026-08-28T19:11:22Z</time>
  <course>59.03</course>
  <speed>0.01414213562373095</speed>
  <fix>3d</fix>
</trkpt>
<trkpt lat="40.0728613" lon="-105.2308738">
  <ele>1595.49</ele>
  <time>2026-08-28T19:11:22Z</time>
  <course>31.04</course>
  <speed>0.04</speed>
  <fix>3d</fix>
</trkpt>
<trkpt lat="40.0728612" lon="-105.2308738">
  <ele>1595.56</ele>
  <time>2026-08-28T19:11:22Z</time>
  <course>59.32</course>
  <speed>0.01414213562373095</speed>
  <fix>3d</fix>
</trkpt>
<trkpt lat="40.0728614" lon="-105.2308738">
  <ele>1595.49</ele>
  <time>2026-08-28T19:11:22Z</time>
  <course>27.78</course>
  <speed>0.04</speed>
  <fix>3d</fix>
</trkpt>
<trkpt lat="40.0728613" lon="-105.2308738">
  <ele>1595.56</ele>
  <time>2026-08-28T19:11:22Z</time>
  <course>60.05</course>
  <speed>0.01414213562373095</speed>
  <fix>3d</fix>
</trkpt>
<trkpt lat="40.0728614" lon="-105.2308737">
  <ele>1595.49</ele>
  <time>2026-08-28T19:11:22Z</time>
  <course>25.37</course>
  <speed>0.04</speed>
  <fix>3d</fix>
</trkpt>
<trkpt lat="40.0728614" lon="-105.2308737">
  <ele>1595.56</ele>
  <time>2026-08-28T19:11:22Z</time>
  <course>61.19</course>
  <speed>0.01414213562373095</speed>
  <fix>3d</fix>
</trkpt>
<trkpt lat="40.0728615" lon="-105.2308736">
  <ele>1595.49</ele>
  <time>2026-08-28T19:11:22Z</time>
  <course>23.48</course>
  <speed>0.04</speed>
  <fix>3d</fix>
</trkpt>
<trkpt lat="40.0728614" lon="-105.2308737">
  <ele>1595.56</ele>
  <time>2026-08-28T19:11:22Z</time>
  <course>62.57</course>
  <speed>0.01414213562373095</speed>
  <fix>3d</fix>
</trkpt>
<trkpt lat="40.0728616" lon="-105.2308736">
  <ele>1595.49</ele>
  <time>2026-08-28T19:11:22Z</time>
  <course>21.87</course>
  <speed>0.04</speed>
  <fix>3d</fix>
</trkpt>
<trkpt lat="40.0728615" lon="-105.2308736">
  <ele>1595.56</ele>
  <time>2026-08-28T19:11:22Z</time>
  <course>64.06</course>
  <speed>0.01414213562373095</speed>
  <fix>3d</fix>
</trkpt>
<trkpt lat="40.0728617" lon="-105.2308736">
  <ele>1595.49</ele>
  <time>2026-08-28T19:11:22Z</time>
  <course>20.73</course>
  <speed>0.04</speed>
  <fix>3d</fix>
</trkpt>
<trkpt lat="40.0728616" lon="-105.2308736">
  <ele>1595.56</ele>
  <time>2026-08-28T19:11:22Z</time>
  <course>65.6</course>
  <speed>0.01414213562373095</speed>
  <fix>3d</fix>
</trkpt>
<trkpt lat="40.0728617" lon="-105.2308736">
  <ele>1595.5</ele>
  <time>2026-08-28T19:11:22Z</time>
  <course>20.23</course>
  <speed>0.04</speed>
  <fix>3d</fix>
</trkpt>
<trkpt lat="40.0728616" lon="-105.2308736">
  <ele>1595.56</ele>
  <time>2026-08-28T19:11:22Z</time>
  <course>66.95</course>
  <speed>0.01414213562373095</speed>
  <fix>3d</fix>
</trkpt>
<trkpt lat="40.0728618" lon="-105.2308736">
  <ele>1595.5</ele>
  <time>2026-08-28T19:11:22Z</time>
  <course>21.08</course>
  <speed>0.03</speed>
  <fix>3d</fix>
</trkpt>
<trkpt lat="40.0728617" lon="-105.2308735">
  <ele>1595.56</ele>
  <time>2026-08-28T19:11:22Z</time>
  <course>67.97</course>
  <speed>0.01414213562373095</speed>
  <fix>3d</fix>
</trkpt>
<trkpt lat="40.0728619" lon="-105.2308735">
  <ele>1595.5</ele>
  <time>2026-08-28T19:11:22Z</time>
  <course>23.27</course>
  <speed>0.03</speed>
  <fix>3d</fix>
</trkpt>
<trkpt lat="40.0728618" lon="-105.2308735">
  <ele>1595.56</ele>
  <time>2026-08-28T19:11:22Z</time>
  <course>68.61</course>
  <speed>0.01</speed>
  <fix>3d</fix>
</trkpt>
<trkpt lat="40.0728619" lon="-105.2308735">
  <ele>1595.5</ele>
  <time>2026-08-28T19:11:22Z</time>
  <course>26.53</course>
  <speed>0.03</speed>
  <fix>3d</fix>
</trkpt>
<trkpt lat="40.0728618" lon="-105.2308735">
  <ele>1595.56</ele>
  <time>2026-08-28T19:11:22Z</time>
  <course>68.78</course>
  <speed>0.01</speed>
  <fix>3d</fix>
</trkpt>
<trkpt lat="40.072862" lon="-105.2308734">
  <ele>1595.5</ele>
  <time>2026-08-28T19:11:22Z</time>
  <course>30.79</course>
  <speed>0.03</speed>
  <fix>3d</fix>
</trkpt>
<trkpt lat="40.0728619" lon="-105.2308734">
  <ele>1595.56</ele>
  <time>2026-08-28T19:11:23Z</time>
  <course>68.47</course>
  <speed>0.01</speed>
  <fix>3d</fix>
</trkpt>
<trkpt lat="40.072862" lon="-105.2308733">
  <ele>1595.51</ele>
  <time>2026-08-28T19:11:23Z</time>
  <course>35.03</course>
  <speed>0.03</speed>
  <fix>3d</fix>
</trkpt>
<trkpt lat="40.0728619" lon="-105.2308734">
  <ele>1595.56</ele>
  <time>2026-08-28T19:11:23Z</time>
  <course>67.69</course>
  <speed>0.02</speed>
  <fix>3d</fix>
</trkpt>
<trkpt lat="40.0728621" lon="-105.2308733">
  <ele>1595.51</ele>
  <time>2026-08-28T19:11:23Z</time>
  <course>38.55</course>
  <speed>0.03</speed>
  <fix>3d</fix>
</trkpt>
<trkpt lat="40.0728619" lon="-105.2308733">
  <ele>1595.56</ele>
  <time>2026-08-28T19:11:23Z</time>
  <course>66.57</course>
  <speed>0.02</speed>
  <fix>3d</fix>
</trkpt>
<trkpt lat="40.0728621" lon="-105.2308733">
  <ele>1595.51</ele>
  <time>2026-08-28T19:11:23Z</time>
  <course>41.21</course>
  <speed>0.03</speed>
  <fix>3d</fix>
</trkpt>
<trkpt lat="40.072862" lon="-105.2308732">
  <ele>1595.56</ele>
  <time>2026-08-28T19:11:23Z</time>
  <course>65.18</course>
  <speed>0.02</speed>
  <fix>3d</fix>
</trkpt>
<trkpt lat="40.0728622" lon="-105.2308732">
  <ele>1595.51</ele>
  <time>2026-08-28T19:11:23Z</time>
  <course>43.01</course>
  <speed>0.03</speed>
  <fix>3d</fix>
</trkpt>
<trkpt lat="40.072862" lon="-105.2308732">
  <ele>1595.57</ele>
  <time>2026-08-28T19:11:23Z</time>
  <course>63.66</course>
  <speed>0.02</speed>
  <fix>3d</fix>
</trkpt>
<trkpt lat="40.0728623" lon="-105.2308731">
  <ele>1595.52</ele>
  <time>2026-08-28T19:11:23Z</time>
  <course>43.61</course>
  <speed>0.03</speed>
  <fix>3d</fix>
</trkpt>
<trkpt lat="40.0728621" lon="-105.2308731">
  <ele>1595.57</ele>
  <time>2026-08-28T19:11:23Z</time>
  <course>62.18</course>
  <speed>0.02</speed>
  <fix>3d</fix>
</trkpt>
<trkpt lat="40.0728623" lon="-105.2308731">
  <ele>1595.52</ele>
  <time>2026-08-28T19:11:23Z</time>
  <course>43.0</course>
  <speed>0.03</speed>
  <fix>3d</fix>
</trkpt>
<trkpt lat="40.0728622" lon="-105.2308731">
  <ele>1595.58</ele>
  <time>2026-08-28T19:11:23Z</time>
  <course>60.86</course>
  <speed>0.02</speed>
  <fix>3d</fix>
</trkpt>
<trkpt lat="40.0728624" lon="-105.230873">
  <ele>1595.52</ele>
  <time>2026-08-28T19:11:23Z</time>
  <course>41.16</course>
  <speed>0.04</speed>
  <fix>3d</fix>
</trkpt>
<trkpt lat="40.0728622" lon="-105.230873">
  <ele>1595.58</ele>
  <time>2026-08-28T19:11:23Z</time>
  <course>59.86</course>
  <speed>0.022360679774997897</speed>
  <fix>3d</fix>
</trkpt>
<trkpt lat="40.0728624" lon="-105.2308729">
  <ele>1595.52</ele>
  <time>2026-08-28T19:11:23Z</time>
  <course>38.09</course>
  <speed>0.04</speed>
  <fix>3d</fix>
</trkpt>
<trkpt lat="40.0728623" lon="-105.2308729">
  <ele>1595.58</ele>
  <time>2026-08-28T19:11:23Z</time>
  <course>59.22</course>
  <speed>0.01414213562373095</speed>
  <fix>3d</fix>
</trkpt>
<trkpt lat="40.0728625" lon="-105.2308729">
  <ele>1595.52</ele>
  <time>2026-08-28T19:11:23Z</time>
  <course>34.37</course>
  <speed>0.04</speed>
  <fix>3d</fix>
</trkpt>
<trkpt lat="40.0728624" lon="-105.2308729">
  <ele>1595.58</ele>
  <time>2026-08-28T19:11:23Z</time>
  <course>59.05</course>
  <speed>0.01414213562373095</speed>
  <fix>3d</fix>
</trkpt>
<trkpt lat="40.0728625" lon="-105.2308729">
  <ele>1595.52</ele>
  <time>2026-08-28T19:11:23Z</time>
  <course>30.93</course>
  <speed>0.04</speed>
  <fix>3d</fix>
</trkpt>
<trkpt lat="40.0728624" lon="-105.2308728">
  <ele>1595.58</ele>
  <time>2026-08-28T19:11:23Z</time>
  <course>58.96</course>
  <speed>0.01414213562373095</speed>
  <fix>3d</fix>
</trkpt>
<trkpt lat="40.0728626" lon="-105.2308728">
  <ele>1595.52</ele>
  <time>2026-08-28T19:11:23Z</time>
  <course>29.55</course>
  <speed>0.04</speed>
  <fix>3d</fix>
</trkpt>
<trkpt lat="40.0728625" lon="-105.2308728">
  <ele>1595.58</ele>
  <time>2026-08-28T19:11:23Z</time>
  <course>58.9</course>
  <speed>0.022360679774997897</speed>
  <fix>3d</fix>
</trkpt>
<trkpt lat="40.0728627" lon="-105.2308728">
  <ele>1595.52</ele>
  <time>2026-08-28T19:11:23Z</time>
  <course>31.1</course>
  <speed>0.04</speed>
  <fix>3d</fix>
</trkpt>
<trkpt lat="40.0728626" lon="-105.2308727">
  <ele>1595.58</ele>
  <time>2026-08-28T19:11:23Z</time>
  <course>58.88</course>
  <speed>0.0282842712474619</speed>
  <fix>3d</fix>
</trkpt>
<trkpt lat="40.0728627" lon="-105.2308727">
  <ele>1595.52</ele>
  <time>2026-08-28T19:11:23Z</time>
  <course>33.47</course>
  <speed>0.04</speed>
  <fix>3d</fix>
</trkpt>
<trkpt lat="40.0728627" lon="-105.2308727">
  <ele>1595.58</ele>
  <time>2026-08-28T19:11:23Z</time>
  <course>58.87</course>
  <speed>0.0282842712474619</speed>
  <fix>3d</fix>
</trkpt>
<trkpt lat="40.0728628" lon="-105.2308726">
  <ele>1595.51</ele>
  <time>2026-08-28T19:11:23Z</time>
  <course>35.29</course>
  <speed>0.05</speed>
  <fix>3d</fix>
</trkpt>
<trkpt lat="40.0728627" lon="-105.2308726">
  <ele>1595.58</ele>
  <time>2026-08-28T19:11:23Z</time>
  <course>58.86</course>
  <speed>0.03605551275463989</speed>
  <fix>3d</fix>
</trkpt>
<trkpt lat="40.0728629" lon="-105.2308725">
  <ele>1595.51</ele>
  <time>2026-08-28T19:11:23Z</time>
  <course>36.72</course>
  <speed>0.05</speed>
  <fix>3d</fix>
</trkpt>
<trkpt lat="40.0728628" lon="-105.2308725">
  <ele>1595.58</ele>
  <time>2026-08-28T19:11:23Z</time>
  <course>58.87</course>
  <speed>0.03605551275463989</speed>
  <fix>3d</fix>
</trkpt>
<trkpt lat="40.072863" lon="-105.2308724">
  <ele>1595.51</ele>
  <time>2026-08-28T19:11:23Z</time>
  <course>37.85</course>
  <speed>0.05</speed>
  <fix>3d</fix>
</trkpt>
<trkpt lat="40.0728629" lon="-105.2308724">
  <ele>1595.59</ele>
  <time>2026-08-28T19:11:23Z</time>
  <course>58.9</course>
  <speed>0.04242640687119285</speed>
  <fix>3d</fix>
</trkpt>
<trkpt lat="40.0728631" lon="-105.2308724">
  <ele>1595.51</ele>
  <time>2026-08-28T19:11:23Z</time>
  <course>38.67</course>
  <speed>0.06</speed>
  <fix>3d</fix>
</trkpt>
<trkpt lat="40.072863" lon="-105.2308723">
  <ele>1595.59</ele>
  <time>2026-08-28T19:11:23Z</time>
  <course>58.89</course>
  <speed>0.04242640687119285</speed>
  <fix>3d</fix>
</trkpt>
<trkpt lat="40.0728631" lon="-105.2308723">
  <ele>1595.51</ele>
  <time>2026-08-28T19:11:23Z</time>
  <course>39.53</course>
  <speed>0.06</speed>
  <fix>3d</fix>
</trkpt>
<trkpt lat="40.0728631" lon="-105.2308722">
  <ele>1595.58</ele>
  <time>2026-08-28T19:11:23Z</time>
  <course>58.91</course>
  <speed>0.05</speed>
  <fix>3d</fix>
</trkpt>
<trkpt lat="40.0728632" lon="-105.2308722">
  <ele>1595.5</ele>
  <time>2026-08-28T19:11:23Z</time>
  <course>40.39</course>
  <speed>0.06</speed>
  <fix>3d</fix>
</trkpt>
<trkpt lat="40.0728632" lon="-105.2308721">
  <ele>1595.58</ele>
  <time>2026-08-28T19:11:23Z</time>
  <course>58.89</course>
  <speed>0.05</speed>
  <fix>3d</fix>
</trkpt>
<trkpt lat="40.0728633" lon="-105.2308721">
  <ele>1595.5</ele>
  <time>2026-08-28T19:11:23Z</time>
  <course>41.35</course>
  <speed>0.07</speed>
  <fix>3d</fix>
</trkpt>
<trkpt lat="40.0728633" lon="-105.230872">
  <ele>1595.57</ele>
  <time>2026-08-28T19:11:23Z</time>
  <course>58.89</course>
  <speed>0.05</speed>
  <fix>3d</fix>
</trkpt>
<trkpt lat="40.0728634" lon="-105.230872">
  <ele>1595.49</ele>
  <time>2026-08-28T19:11:23Z</time>
  <course>42.18</course>
  <speed>0.07</speed>
  <fix>3d</fix>
</trkpt>
<trkpt lat="40.0728634" lon="-105.2308718">
  <ele>1595.56</ele>
  <time>2026-08-28T19:11:23Z</time>
  <course>58.88</course>
  <speed>0.05830951894845301</speed>
  <fix>3d</fix>
</trkpt>
<trkpt lat="40.0728635" lon="-105.2308718">
  <ele>1595.49</ele>
  <time>2026-08-28T19:11:23Z</time>
  <course>43.0</course>
  <speed>0.07</speed>
  <fix>3d</fix>
</trkpt>
<trkpt lat="40.0728635" lon="-105.2308717">
  <ele>1595.56</ele>
  <time>2026-08-28T19:11:23Z</time>
  <course>58.88</course>
  <speed>0.05830951894845301</speed>
  <fix>3d</fix>
</trkpt>
<trkpt lat="40.0728636" lon="-105.2308717">
  <ele>1595.49</ele>
  <time>2026-08-28T19:11:23Z</time>
  <course>43.92</course>
  <speed>0.08</speed>
  <fix>3d</fix>
</trkpt>
<trkpt lat="40.0728636" lon="-105.2308716">
  <ele>1595.56</ele>
  <time>2026-08-28T19:11:23Z</time>
  <course>58.87</course>
  <speed>0.06403124237432849</speed>
  <fix>3d</fix>
</trkpt>
<trkpt lat="40.0728637" lon="-105.2308716">
  <ele>1595.49</ele>
  <time>2026-08-28T19:11:23Z</time>
  <course>44.53</course>
  <speed>0.08</speed>
  <fix>3d</fix>
</trkpt>
<trkpt lat="40.0728637" lon="-105.2308714">
  <ele>1595.56</ele>
  <time>2026-08-28T19:11:23Z</time>
  <course>58.88</course>
  <speed>0.06403124237432849</speed>
  <fix>3d</fix>
</trkpt>
<trkpt lat="40.0728639" lon="-105.2308714">
  <ele>1595.49</ele>
  <time>2026-08-28T19:11:23Z</time>
  <course>44.74</course>
  <speed>0.08</speed>
  <fix>3d</fix>
</trkpt>
<trkpt lat="40.0728638" lon="-105.2308713">
  <ele>1595.56</ele>
  <time>2026-08-28T19:11:23Z</time>
  <course>58.88</course>
  <speed>0.07211102550927978</speed>
  <fix>3d</fix>
</trkpt>
<trkpt lat="40.072864" lon="-105.2308712">
  <ele>1595.49</ele>
  <time>2026-08-28T19:11:23Z</time>
  <course>44.87</course>
  <speed>0.09</speed>
  <fix>3d</fix>
</trkpt>
<trkpt lat="40.072864" lon="-105.2308711">
  <ele>1595.56</ele>
  <time>2026-08-28T19:11:23Z</time>
  <course>58.74</course>
  <speed>0.07211102550927978</speed>
  <fix>3d</fix>
</trkpt>
<trkpt lat="40.0728641" lon="-105.2308711">
  <ele>1595.49</ele>
  <time>2026-08-28T19:11:23Z</time>
  <course>45.25</course>
  <speed>0.09</speed>
  <fix>3d</fix>
</trkpt>
<trkpt lat="40.0728641" lon="-105.2308709">
  <ele>1595.56</ele>
  <time>2026-08-28T19:11:23Z</time>
  <course>57.73</course>
  <speed>0.07211102550927978</speed>
  <fix>3d</fix>
</trkpt>
<trkpt lat="40.0728642" lon="-105.230871">
  <ele>1595.49</ele>
  <time>2026-08-28T19:11:23Z</time>
  <course>46.65</course>
  <speed>0.09</speed>
  <fix>3d</fix>
</trkpt>
<trkpt lat="40.0728642" lon="-105.2308708">
  <ele>1595.56</ele>
  <time>2026-08-28T19:11:23Z</time>
  <course>56.41</course>
  <speed>0.07211102550927978</speed>
  <fix>3d</fix>
</trkpt>
<trkpt lat="40.0728643" lon="-105.2308708">
  <ele>1595.5</ele>
  <time>2026-08-28T19:11:23Z</time>
  <course>47.7</course>
  <speed>0.09</speed>
  <fix>3d</fix>
</trkpt>
<trkpt lat="40.0728643" lon="-105.2308706">
  <ele>1595.56</ele>
  <time>2026-08-28T19:11:23Z</time>
  <course>55.22</course>
  <speed>0.05830951894845301</speed>
  <fix>3d</fix>
</trkpt>
<trkpt lat="40.0728644" lon="-105.2308707">
  <ele>1595.5</ele>
  <time>2026-08-28T19:11:23Z</time>
  <course>47.0</course>
  <speed>0.09</speed>
  <fix>3d</fix>
</trkpt>
<trkpt lat="40.0728644" lon="-105.2308705">
  <ele>1595.57</ele>
  <time>2026-08-28T19:11:23Z</time>
  <course>54.4</course>
  <speed>0.05830951894845301</speed>
  <fix>3d</fix>
</trkpt>
<trkpt lat="40.0728645" lon="-105.2308705">
  <ele>1595.5</ele>
  <time>2026-08-28T19:11:23Z</time>
  <course>45.29</course>
  <speed>0.08</speed>
  <fix>3d</fix>
</trkpt>
<trkpt lat="40.0728645" lon="-105.2308704">
  <ele>1595.57</ele>
  <time>2026-08-28T19:11:23Z</time>
  <course>54.01</course>
  <speed>0.05</speed>
  <fix>3d</fix>
</trkpt>
<trkpt lat="40.0728646" lon="-105.2308703">
  <ele>1595.5</ele>
  <time>2026-08-28T19:11:23Z</time>
  <course>42.75</course>
  <speed>0.07</speed>
  <fix>3d</fix>
</trkpt>
<trkpt lat="40.0728646" lon="-105.2308703">
  <ele>1595.57</ele>
  <time>2026-08-28T19:11:23Z</time>
  <course>54.1</course>
  <speed>0.04242640687119285</speed>
  <fix>3d</fix>
</trkpt>
<trkpt lat="40.0728647" lon="-105.2308702">
  <ele>1595.5</ele>
  <time>2026-08-28T19:11:23Z</time>
  <course>39.58</course>
  <speed>0.07</speed>
  <fix>3d</fix>
</trkpt>
<trkpt lat="40.0728647" lon="-105.2308702">
  <ele>1595.57</ele>
  <time>2026-08-28T19:11:23Z</time>
  <course>54.65</course>
  <speed>0.0282842712474619</speed>
  <fix>3d</fix>
</trkpt>
<trkpt lat="40.0728648" lon="-105.2308701">
  <ele>1595.5</ele>
  <time>2026-08-28T19:11:23Z</time>
  <course>35.73</course>
  <speed>0.06</speed>
  <fix>3d</fix>
</trkpt>
<trkpt lat="40.0728648" lon="-105.2308701">
  <ele>1595.58</ele>
  <time>2026-08-28T19:11:23Z</time>
  <course>55.63</course>
  <speed>0.0282842712474619</speed>
  <fix>3d</fix>
</trkpt>
<trkpt lat="40.0728649" lon="-105.23087">
  <ele>1595.5</ele>
  <time>2026-08-28T19:11:23Z</time>
  <course>31.36</course>
  <speed>0.05</speed>
  <fix>3d</fix>
</trkpt>
<trkpt lat="40.0728648" lon="-105.23087">
  <ele>1595.58</ele>
  <time>2026-08-28T19:11:23Z</time>
  <course>56.94</course>
  <speed>0.022360679774997897</speed>
  <fix>3d</fix>
</trkpt>
<trkpt lat="40.072865" lon="-105.23087">
  <ele>1595.5</ele>
  <time>2026-08-28T19:11:23Z</time>
  <course>26.41</course>
  <speed>0.05</speed>
  <fix>3d</fix>
</trkpt>
<trkpt lat="40.0728649" lon="-105.23087">
  <ele>1595.58</ele>
  <time>2026-08-28T19:11:23Z</time>
  <course>58.44</course>
  <speed>0.01414213562373095</speed>
  <fix>3d</fix>
</trkpt>
<trkpt lat="40.0728651" lon="-105.23087">
  <ele>1595.5</ele>
  <time>2026-08-28T19:11:23Z</time>
  <course>21.44</course>
  <speed>0.04</speed>
  <fix>3d</fix>
</trkpt>
<trkpt lat="40.072865" lon="-105.23087">
  <ele>1595.58</ele>
  <time>2026-08-28T19:11:23Z</time>
  <course>59.96</course>
  <speed>0.01</speed>
  <fix>3d</fix>
</trkpt>
<trkpt lat="40.0728651" lon="-105.23087">
  <ele>1595.5</ele>
  <time>2026-08-28T19:11:23Z</time>
  <course>17.36</course>
  <speed>0.04</speed>
  <fix>3d</fix>
</trkpt>
<trkpt lat="40.072865" lon="-105.23087">
  <ele>1595.58</ele>
  <time>2026-08-28T19:11:23Z</time>
  <course>61.38</course>
  <speed>0.01</speed>
  <fix>3d</fix>
</trkpt>
<trkpt lat="40.0728652" lon="-105.2308699">
  <ele>1595.5</ele>
  <time>2026-08-28T19:11:23Z</time>
  <course>14.39</course>
  <speed>0.03</speed>
  <fix>3d</fix>
</trkpt>
<trkpt lat="40.0728651" lon="-105.2308699">
  <ele>1595.58</ele>
  <time>2026-08-28T19:11:23Z</time>
  <course>62.55</course>
  <speed>0.0</speed>
  <fix>3d</fix>
</trkpt>
<trkpt lat="40.0728653" lon="-105.2308699">
  <ele>1595.49</ele>
  <time>2026-08-28T19:11:23Z</time>
  <course>12.99</course>
  <speed>0.03</speed>
  <fix>3d</fix>
</trkpt>
<trkpt lat="40.0728652" lon="-105.2308699">
  <ele>1595.58</ele>
  <time>2026-08-28T19:11:23Z</time>
  <course>63.4</course>
  <speed>0.0</speed>
  <fix>3d</fix>
</trkpt>
<trkpt lat="40.0728654" lon="-105.2308699">
  <ele>1595.49</ele>
  <time>2026-08-28T19:11:23Z</time>
  <course>13.54</course>
  <speed>0.03</speed>
  <fix>3d</fix>
</trkpt>
<trkpt lat="40.0728652" lon="-105.2308699">
  <ele>1595.58</ele>
  <time>2026-08-28T19:11:23Z</time>
  <course>63.78</course>
  <speed>0.0</speed>
  <fix>3d</fix>
</trkpt>
<trkpt lat="40.0728654" lon="-105.2308699">
  <ele>1595.49</ele>
  <time>2026-08-28T19:11:23Z</time>
  <course>16.97</course>
  <speed>0.02</speed>
  <fix>3d</fix>
</trkpt>
<trkpt lat="40.0728653" lon="-105.2308699">
  <ele>1595.57</ele>
  <time>2026-08-28T19:11:23Z</time>
  <course>63.69</course>
  <speed>0.01</speed>
  <fix>3d</fix>
</trkpt>
<trkpt lat="40.0728655" lon="-105.2308699">
  <ele>1595.49</ele>
  <time>2026-08-28T19:11:23Z</time>
  <course>22.83</course>
  <speed>0.02</speed>
  <fix>3d</fix>
</trkpt>
<trkpt lat="40.0728653" lon="-105.2308699">
  <ele>1595.57</ele>
  <time>2026-08-28T19:11:23Z</time>
  <course>63.14</course>
  <speed>0.01</speed>
  <fix>3d</fix>
</trkpt>
<trkpt lat="40.0728655" lon="-105.2308698">
  <ele>1595.49</ele>
  <time>2026-08-28T19:11:23Z</time>
  <course>29.03</course>
  <speed>0.02</speed>
  <fix>3d</fix>
</trkpt>
<trkpt lat="40.0728653" lon="-105.2308698">
  <ele>1595.57</ele>
  <time>2026-08-28T19:11:23Z</time>
  <course>62.18</course>
  <speed>0.01</speed>
  <fix>3d</fix>
</trkpt>
<trkpt lat="40.0728656" lon="-105.2308697">
  <ele>1595.48</ele>
  <time>2026-08-28T19:11:23Z</time>
  <course>34.59</course>
  <speed>0.02</speed>
  <fix>3d</fix>
</trkpt>
<trkpt lat="40.0728654" lon="-105.2308698">
  <ele>1595.57</ele>
  <time>2026-08-28T19:11:23Z</time>
  <course>60.87</course>
  <speed>0.01</speed>
  <fix>3d</fix>
</trkpt>
<trkpt lat="40.0728656" lon="-105.2308697">
  <ele>1595.48</ele>
  <time>2026-08-28T19:11:23Z</time>
  <course>38.13</course>
  <speed>0.03</speed>
  <fix>3d</fix>
</trkpt>
<trkpt lat="40.0728654" lon="-105.2308697">
  <ele>1595.56</ele>
  <time>2026-08-28T19:11:23Z</time>
  <course>59.37</course>
  <speed>0.02</speed>
  <fix>3d</fix>
</trkpt>
<trkpt lat="40.0728656" lon="-105.2308697">
  <ele>1595.48</ele>
  <time>2026-08-28T19:11:23Z</time>
  <course>39.68</course>
  <speed>0.03</speed>
  <fix>3d</fix>
</trkpt>
<trkpt lat="40.0728655" lon="-105.2308696">
  <ele>1595.56</ele>
  <time>2026-08-28T19:11:23Z</time>
  <course>57.86</course>
  <speed>0.02</speed>
  <fix>3d</fix>
</trkpt>
<trkpt lat="40.0728657" lon="-105.2308696">
  <ele>1595.48</ele>
  <time>2026-08-28T19:11:23Z</time>
  <course>39.52</course>
  <speed>0.03</speed>
  <fix>3d</fix>
</trkpt>
<trkpt lat="40.0728655" lon="-105.2308696">
  <ele>1595.55</ele>
  <time>2026-08-28T19:11:23Z</time>
  <course>56.43</course>
  <speed>0.02</speed>
  <fix>3d</fix>
</trkpt>
<trkpt lat="40.0728657" lon="-105.2308695">
  <ele>1595.48</ele>
  <time>2026-08-28T19:11:23Z</time>
  <course>38.42</course>
  <speed>0.03</speed>
  <fix>3d</fix>
</trkpt>
<trkpt lat="40.0728656" lon="-105.2308695">
  <ele>1595.56</ele>
  <time>2026-08-28T19:11:23Z</time>
  <course>55.21</course>
  <speed>0.022360679774997897</speed>
  <fix>3d</fix>
</trkpt>
<trkpt lat="40.0728657" lon="-105.2308695">
  <ele>1595.48</ele>
  <time>2026-08-28T19:11:23Z</time>
  <course>36.92</course>
  <speed>0.04</speed>
  <fix>3d</fix>
</trkpt>
<trkpt lat="40.0728657" lon="-105.2308695">
  <ele>1595.56</ele>
  <time>2026-08-28T19:11:23Z</time>
  <course>54.38</course>
  <speed>0.022360679774997897</speed>
  <fix>3d</fix>
</trkpt>
<trkpt lat="40.0728658" lon="-105.2308695">
  <ele>1595.48</ele>
  <time>2026-08-28T19:11:23Z</time>
  <course>33.83</course>
  <speed>0.04</speed>
  <fix>3d</fix>
</trkpt>
<trkpt lat="40.0728657" lon="-105.2308694">
  <ele>1595.57</ele>
  <time>2026-08-28T19:11:23Z</time>
  <course>54.02</course>
  <speed>0.01414213562373095</speed>
  <fix>3d</fix>
</trkpt>
<trkpt lat="40.0728659" lon="-105.2308694">
  <ele>1595.49</ele>
  <time>2026-08-28T19:11:23Z</time>
  <course>29.96</course>
  <speed>0.04</speed>
  <fix>3d</fix>
</trkpt>
<trkpt lat="40.0728658" lon="-105.2308694">
  <ele>1595.57</ele>
  <time>2026-08-28T19:11:23Z</time>
  <course>54.1</course>
  <speed>0.022360679774997897</speed>
  <fix>3d</fix>
</trkpt>
<trkpt lat="40.072866" lon="-105.2308693">
  <ele>1595.49</ele>
  <time>2026-08-28T19:11:23Z</time>
  <course>26.31</course>
  <speed>0.04</speed>
  <fix>3d</fix>
</trkpt>
<trkpt lat="40.0728659" lon="-105.2308693">
  <ele>1595.57</ele>
  <time>2026-08-28T19:11:23Z</time>
  <course>54.69</course>
  <speed>0.022360679774997897</speed>
  <fix>3d</fix>
</trkpt>
<trkpt lat="40.0728661" lon="-105.2308693">
  <ele>1595.49</ele>
  <time>2026-08-28T19:11:23Z</time>
  <course>22.43</course>
  <speed>0.04</speed>
  <fix>3d</fix>
</trkpt>
<trkpt lat="40.072866" lon="-105.2308693">
  <ele>1595.57</ele>
  <time>2026-08-28T19:11:23Z</time>
  <course>55.64</course>
  <speed>0.022360679774997897</speed>
  <fix>3d</fix>
</trkpt>
<trkpt lat="40.0728661" lon="-105.2308693">
  <ele>1595.49</ele>
  <time>2026-08-28T19:11:23Z</time>
  <course>18.67</course>
  <speed>0.04</speed>
  <fix>3d</fix>
</trkpt>
<trkpt lat="40.072866" lon="-105.2308693">
  <ele>1595.57</ele>
  <time>2026-08-28T19:11:23Z</time>
  <course>56.94</course>
  <speed>0.02</speed>
  <fix>3d</fix>
</trkpt>
<trkpt lat="40.0728662" lon="-105.2308693">
  <ele>1595.49</ele>
  <time>2026-08-28T19:11:23Z</time>
  <course>15.84</course>
  <speed>0.04</speed>
  <fix>3d</fix>
</trkpt>
<trkpt lat="40.0728661" lon="-105.2308693">
  <ele>1595.57</ele>
  <time>2026-08-28T19:11:23Z</time>
  <course>58.44</course>
  <speed>0.02</speed>
  <fix>3d</fix>
</trkpt>
<trkpt lat="40.0728663" lon="-105.2308692">
  <ele>1595.49</ele>
  <time>2026-08-28T19:11:23Z</time>
  <course>13.95</course>
  <speed>0.04</speed>
  <fix>3d</fix>
</trkpt>
<trkpt lat="40.0728662" lon="-105.2308692">
  <ele>1595.57</ele>
  <time>2026-08-28T19:11:23Z</time>
  <course>59.93</course>
  <speed>0.01</speed>
  <fix>3d</fix>
</trkpt>
<trkpt lat="40.0728663" lon="-105.2308692">
  <ele>1595.49</ele>
  <time>2026-08-28T19:11:23Z</time>
  <course>12.63</course>
  <speed>0.04</speed>
  <fix>3d</fix>
</trkpt>
<trkpt lat="40.0728663" lon="-105.2308692">
  <ele>1595.57</ele>
  <time>2026-08-28T19:11:23Z</time>
  <course>61.34</course>
  <speed>0.01</speed>
  <fix>3d</fix>
</trkpt>
<trkpt lat="40.0728664" lon="-105.2308692">
  <ele>1595.49</ele>
  <time>2026-08-28T19:11:23Z</time>
  <course>12.29</course>
  <speed>0.04</speed>
  <fix>3d</fix>
</trkpt>
<trkpt lat="40.0728663" lon="-105.2308692">
  <ele>1595.57</ele>
  <time>2026-08-28T19:11:23Z</time>
  <course>62.53</course>
  <speed>0.01</speed>
  <fix>3d</fix>
</trkpt>
<trkpt lat="40.0728665" lon="-105.2308692">
  <ele>1595.49</ele>
  <time>2026-08-28T19:11:23Z</time>
  <course>13.26</course>
  <speed>0.03</speed>
  <fix>3d</fix>
</trkpt>
<trkpt lat="40.0728664" lon="-105.2308692">
  <ele>1595.57</ele>
  <time>2026-08-28T19:11:23Z</time>
  <course>63.37</course>
  <speed>0.01</speed>
  <fix>3d</fix>
</trkpt>
<trkpt lat="40.0728666" lon="-105.2308692">
  <ele>1595.49</ele>
  <time>2026-08-28T19:11:23Z</time>
  <course>15.59</course>
  <speed>0.03</speed>
  <fix>3d</fix>
</trkpt>
<trkpt lat="40.0728664" lon="-105.2308692">
  <ele>1595.57</ele>
  <time>2026-08-28T19:11:23Z</time>
  <course>63.75</course>
  <speed>0.01</speed>
  <fix>3d</fix>
</trkpt>
<trkpt lat="40.0728666" lon="-105.2308691">
  <ele>1595.49</ele>
  <time>2026-08-28T19:11:23Z</time>
  <course>19.49</course>
  <speed>0.03</speed>
  <fix>3d</fix>
</trkpt>
<trkpt lat="40.0728665" lon="-105.2308691">
  <ele>1595.56</ele>
  <time>2026-08-28T19:11:23Z</time>
  <course>63.67</course>
  <speed>0.01</speed>
  <fix>3d</fix>
</trkpt>
<trkpt lat="40.0728667" lon="-105.230869">
  <ele>1595.49</ele>
  <time>2026-08-28T19:11:23Z</time>
  <course>24.44</course>
  <speed>0.03</speed>
  <fix>3d</fix>
</trkpt>
<trkpt lat="40.0728666" lon="-105.2308691">
  <ele>1595.57</ele>
  <time>2026-08-28T19:11:23Z</time>
  <course>63.12</course>
  <speed>0.01</speed>
  <fix>3d</fix>
</trkpt>
<trkpt lat="40.0728668" lon="-105.230869">
  <ele>1595.49</ele>
  <time>2026-08-28T19:11:23Z</time>
  <course>29.34</course>
  <speed>0.03</speed>
  <fix>3d</fix>
</trkpt>
<trkpt lat="40.0728666" lon="-105.230869">
  <ele>1595.56</ele>
  <time>2026-08-28T19:11:23Z</time>
  <course>62.15</course>
  <speed>0.01</speed>
  <fix>3d</fix>
</trkpt>
<trkpt lat="40.0728668" lon="-105.230869">
  <ele>1595.49</ele>
  <time>2026-08-28T19:11:23Z</time>
  <course>33.51</course>
  <speed>0.03</speed>
  <fix>3d</fix>
</trkpt>
<trkpt lat="40.0728667" lon="-105.230869">
  <ele>1595.56</ele>
  <time>2026-08-28T19:11:23Z</time>
  <course>60.84</course>
  <speed>0.02</speed>
  <fix>3d</fix>
</trkpt>
<trkpt lat="40.0728669" lon="-105.230869">
  <ele>1595.49</ele>
  <time>2026-08-28T19:11:23Z</time>
  <course>37.1</course>
  <speed>0.03</speed>
  <fix>3d</fix>
</trkpt>
<trkpt lat="40.0728667" lon="-105.2308689">
  <ele>1595.56</ele>
  <time>2026-08-28T19:11:23Z</time>
  <course>59.36</course>
  <speed>0.02</speed>
  <fix>3d</fix>
</trkpt>
<trkpt lat="40.0728669" lon="-105.2308689">
  <ele>1595.49</ele>
  <time>2026-08-28T19:11:23Z</time>
  <course>39.66</course>
  <speed>0.03</speed>
  <fix>3d</fix>
</trkpt>
<trkpt lat="40.0728668" lon="-105.2308689">
  <ele>1595.56</ele>
  <time>2026-08-28T19:11:23Z</time>
  <course>57.83</course>
  <speed>0.02</speed>
  <fix>3d</fix>
</trkpt>
<trkpt lat="40.0728669" lon="-105.2308688">
  <ele>1595.49</ele>
  <time>2026-08-28T19:11:23Z</time>
  <course>40.87</course>
  <speed>0.03</speed>
  <fix>3d</fix>
</trkpt>
<trkpt lat="40.0728668" lon="-105.2308688">
  <ele>1595.56</ele>
  <time>2026-08-28T19:11:23Z</time>
  <course>56.41</course>
  <speed>0.02</speed>
  <fix>3d</fix>
</trkpt>
<trkpt lat="40.072867" lon="-105.2308688">
  <ele>1595.49</ele>
  <time>2026-08-28T19:11:23Z</time>
  <course>40.55</course>
  <speed>0.04</speed>
  <fix>3d</fix>
</trkpt>
<trkpt lat="40.0728669" lon="-105.2308687">
  <ele>1595.57</ele>
  <time>2026-08-28T19:11:23Z</time>
  <course>55.22</course>
  <speed>0.022360679774997897</speed>
  <fix>3d</fix>
</trkpt>
<trkpt lat="40.072867" lon="-105.2308687">
  <ele>1595.49</ele>
  <time>2026-08-28T19:11:23Z</time>
  <course>38.46</course>
  <speed>0.04</speed>
  <fix>3d</fix>
</trkpt>
<trkpt lat="40.0728669" lon="-105.2308687">
  <ele>1595.57</ele>
  <time>2026-08-28T19:11:23Z</time>
  <course>54.4</course>
  <speed>0.022360679774997897</speed>
  <fix>3d</fix>
</trkpt>
<trkpt lat="40.0728671" lon="-105.2308687">
  <ele>1595.49</ele>
  <time>2026-08-28T19:11:23Z</time>
  <course>35.47</course>
  <speed>0.04</speed>
  <fix>3d</fix>
</trkpt>
<trkpt lat="40.072867" lon="-105.2308686">
  <ele>1595.57</ele>
  <time>2026-08-28T19:11:23Z</time>
  <course>54.03</course>
  <speed>0.01414213562373095</speed>
  <fix>3d</fix>
</trkpt>
<trkpt lat="40.0728672" lon="-105.2308686">
  <ele>1595.49</ele>
  <time>2026-08-28T19:11:23Z</time>
  <course>31.83</course>
  <speed>0.04</speed>
  <fix>3d</fix>
</trkpt>
<trkpt lat="40.0728671" lon="-105.2308686">
  <ele>1595.57</ele>
  <time>2026-08-28T19:11:23Z</time>
  <course>54.1</course>
  <speed>0.01414213562373095</speed>
  <fix>3d</fix>
</trkpt>
<trkpt lat="40.0728673" lon="-105.2308685">
  <ele>1595.49</ele>
  <time>2026-08-28T19:11:23Z</time>
  <course>27.99</course>
  <speed>0.04</speed>
  <fix>3d</fix>
</trkpt>
<trkpt lat="40.0728672" lon="-105.2308685">
  <ele>1595.57</ele>
  <time>2026-08-28T19:11:23Z</time>
  <course>54.68</course>
  <speed>0.022360679774997897</speed>
  <fix>3d</fix>
</trkpt>
<trkpt lat="40.0728673" lon="-105.2308685">
  <ele>1595.5</ele>
  <time>2026-08-28T19:11:23Z</time>
  <course>24.1</course>
  <speed>0.04</speed>
  <fix>3d</fix>
</trkpt>
<trkpt lat="40.0728672" lon="-105.2308685">
  <ele>1595.58</ele>
  <time>2026-08-28T19:11:23Z</time>
  <course>55.66</course>
  <speed>0.022360679774997897</speed>
  <fix>3d</fix>
</trkpt>
<trkpt lat="40.0728674" lon="-105.2308685">
  <ele>1595.5</ele>
  <time>2026-08-28T19:11:23Z</time>
  <course>20.1</course>
  <speed>0.04</speed>
  <fix>3d</fix>
</trkpt>
<trkpt lat="40.0728673" lon="-105.2308685">
  <ele>1595.58</ele>
  <time>2026-08-28T19:11:23Z</time>
  <course>56.95</course>
  <speed>0.022360679774997897</speed>
  <fix>3d</fix>
</trkpt>
<trkpt lat="40.0728675" lon="-105.2308685">
  <ele>1595.49</ele>
  <time>2026-08-28T19:11:23Z</time>
  <course>17.1</course>
  <speed>0.04</speed>
  <fix>3d</fix>
</trkpt>
<trkpt lat="40.0728674" lon="-105.2308684">
  <ele>1595.58</ele>
  <time>2026-08-28T19:11:23Z</time>
  <course>58.44</course>
  <speed>0.02</speed>
  <fix>3d</fix>
</trkpt>
<trkpt lat="40.0728675" lon="-105.2308684">
  <ele>1595.49</ele>
  <time>2026-08-28T19:11:23Z</time>
  <course>15.06</course>
  <speed>0.04</speed>
  <fix>3d</fix>
</trkpt>
<trkpt lat="40.0728675" lon="-105.2308684">
  <ele>1595.59</ele>
  <time>2026-08-28T19:11:23Z</time>
  <course>59.97</course>
  <speed>0.02</speed>
  <fix>3d</fix>
</trkpt>
<trkpt lat="40.0728676" lon="-105.2308683">
  <ele>1595.49</ele>
  <time>2026-08-28T19:11:23Z</time>
  <course>13.96</course>
  <speed>0.04</speed>
  <fix>3d</fix>
</trkpt>
<trkpt lat="40.0728675" lon="-105.2308684">
  <ele>1595.59</ele>
  <time>2026-08-28T19:11:23Z</time>
  <course>61.4</course>
  <speed>0.01414213562373095</speed>
  <fix>3d</fix>
</trkpt>
<trkpt lat="40.0728677" lon="-105.2308683">
  <ele>1595.49</ele>
  <time>2026-08-28T19:11:23Z</time>
  <course>14.69</course>
  <speed>0.04</speed>
  <fix>3d</fix>
</trkpt>
<trkpt lat="40.0728676" lon="-105.2308684">
  <ele>1595.58</ele>
  <time>2026-08-28T19:11:23Z</time>
  <course>62.59</course>
  <speed>0.01414213562373095</speed>
  <fix>3d</fix>
</trkpt>
<trkpt lat="40.0728678" lon="-105.2308683">
  <ele>1595.48</ele>
  <time>2026-08-28T19:11:23Z</time>
  <course>16.42</course>
  <speed>0.04</speed>
  <fix>3d</fix>
</trkpt>
<trkpt lat="40.0728677" lon="-105.2308683">
  <ele>1595.57</ele>
  <time>2026-08-28T19:11:23Z</time>
  <course>63.42</course>
  <speed>0.01414213562373095</speed>
  <fix>3d</fix>
</trkpt>
<trkpt lat="40.0728679" lon="-105.2308683">
  <ele>1595.48</ele>
  <time>2026-08-28T19:11:23Z</time>
  <course>18.98</course>
  <speed>0.03</speed>
  <fix>3d</fix>
</trkpt>
<trkpt lat="40.0728677" lon="-105.2308683">
  <ele>1595.56</ele>
  <time>2026-08-28T19:11:23Z</time>
  <course>63.78</course>
  <speed>0.01</speed>
  <fix>3d</fix>
</trkpt>
<trkpt lat="40.0728679" lon="-105.2308683">
  <ele>1595.48</ele>
  <time>2026-08-28T19:11:23Z</time>
  <course>22.4</course>
  <speed>0.03</speed>
  <fix>3d</fix>
</trkpt>
<trkpt lat="40.0728678" lon="-105.2308683">
  <ele>1595.55</ele>
  <time>2026-08-28T19:11:23Z</time>
  <course>63.68</course>
  <speed>0.01</speed>
  <fix>3d</fix>
</trkpt>
<trkpt lat="40.072868" lon="-105.2308682">
  <ele>1595.48</ele>
  <time>2026-08-28T19:11:23Z</time>
  <course>26.66</course>
  <speed>0.03</speed>
  <fix>3d</fix>
</trkpt>
<trkpt lat="40.0728678" lon="-105.2308682">
  <ele>1595.55</ele>
  <time>2026-08-28T19:11:23Z</time>
  <course>63.05</course>
  <speed>0.01</speed>
  <fix>3d</fix>
</trkpt>
<trkpt lat="40.072868" lon="-105.2308681">
  <ele>1595.48</ele>
  <time>2026-08-28T19:11:23Z</time>
  <course>32.14</course>
  <speed>0.03</speed>
  <fix>3d</fix>
</trkpt>
<trkpt lat="40.0728679" lon="-105.2308682">
  <ele>1595.55</ele>
  <time>2026-08-28T19:11:23Z</time>
  <course>62.07</course>
  <speed>0.01</speed>
  <fix>3d</fix>
</trkpt>
<trkpt lat="40.0728681" lon="-105.2308681">
  <ele>1595.48</ele>
  <time>2026-08-28T19:11:23Z</time>
  <course>36.62</course>
  <speed>0.03</speed>
  <fix>3d</fix>
</trkpt>
<trkpt lat="40.0728679" lon="-105.2308681">
  <ele>1595.55</ele>
  <time>2026-08-28T19:11:23Z</time>
  <course>60.81</course>
  <speed>0.02</speed>
  <fix>3d</fix>
</trkpt>
<trkpt lat="40.0728681" lon="-105.2308681">
  <ele>1595.48</ele>
  <time>2026-08-28T19:11:23Z</time>
  <course>38.73</course>
  <speed>0.03</speed>
  <fix>3d</fix>
</trkpt>
<trkpt lat="40.072868" lon="-105.2308681">
  <ele>1595.55</ele>
  <time>2026-08-28T19:11:23Z</time>
  <course>59.34</course>
  <speed>0.02</speed>
  <fix>3d</fix>
</trkpt>
<trkpt lat="40.0728681" lon="-105.2308681">
  <ele>1595.48</ele>
  <time>2026-08-28T19:11:23Z</time>
  <course>38.78</course>
  <speed>0.03</speed>
  <fix>3d</fix>
</trkpt>
<trkpt lat="40.072868" lon="-105.230868">
  <ele>1595.55</ele>
  <time>2026-08-28T19:11:23Z</time>
  <course>57.81</course>
  <speed>0.02</speed>
  <fix>3d</fix>
</trkpt>
<trkpt lat="40.0728682" lon="-105.230868">
  <ele>1595.49</ele>
  <time>2026-08-28T19:11:23Z</time>
  <course>37.58</course>
  <speed>0.03</speed>
  <fix>3d</fix>
</trkpt>
<trkpt lat="40.0728681" lon="-105.230868">
  <ele>1595.55</ele>
  <time>2026-08-28T19:11:23Z</time>
  <course>56.38</course>
  <speed>0.02</speed>
  <fix>3d</fix>
</trkpt>
<trkpt lat="40.0728682" lon="-105.230868">
  <ele>1595.49</ele>
  <time>2026-08-28T19:11:23Z</time>
  <course>35.74</course>
  <speed>0.03</speed>
  <fix>3d</fix>
</trkpt>
<trkpt lat="40.0728681" lon="-105.2308679">
  <ele>1595.55</ele>
  <time>2026-08-28T19:11:23Z</time>
  <course>55.2</course>
  <speed>0.01414213562373095</speed>
  <fix>3d</fix>
</trkpt>
<trkpt lat="40.0728683" lon="-105.2308679">
  <ele>1595.49</ele>
  <time>2026-08-28T19:11:23Z</time>
  <course>33.38</course>
  <speed>0.03</speed>
  <fix>3d</fix>
</trkpt>
<trkpt lat="40.0728682" lon="-105.2308679">
  <ele>1595.56</ele>
  <time>2026-08-28T19:11:23Z</time>
  <course>54.36</course>
  <speed>0.01414213562373095</speed>
  <fix>3d</fix>
</trkpt>
<trkpt lat="40.0728684" lon="-105.2308678">
  <ele>1595.5</ele>
  <time>2026-08-28T19:11:23Z</time>
  <course>30.7</course>
  <speed>0.03</speed>
  <fix>3d</fix>
</trkpt>
<trkpt lat="40.0728683" lon="-105.2308678">
  <ele>1595.56</ele>
  <time>2026-08-28T19:11:23Z</time>
  <course>53.99</course>
  <speed>0.01414213562373095</speed>
  <fix>3d</fix>
</trkpt>
<trkpt lat="40.0728685" lon="-105.2308678">
  <ele>1595.5</ele>
  <time>2026-08-28T19:11:23Z</time>
  <course>27.55</course>
  <speed>0.04</speed>
  <fix>3d</fix>
</trkpt>
<trkpt lat="40.0728683" lon="-105.2308678">
  <ele>1595.56</ele>
  <time>2026-08-28T19:11:23Z</time>
  <course>54.08</course>
  <speed>0.01414213562373095</speed>
  <fix>3d</fix>
</trkpt>
<trkpt lat="40.0728685" lon="-105.2308678">
  <ele>1595.51</ele>
  <time>2026-08-28T19:11:23Z</time>
  <course>24.0</course>
  <speed>0.04</speed>
  <fix>3d</fix>
</trkpt>
<trkpt lat="40.0728684" lon="-105.2308678">
  <ele>1595.57</ele>
  <time>2026-08-28T19:11:23Z</time>
  <course>54.63</course>
  <speed>0.022360679774997897</speed>
  <fix>3d</fix>
</trkpt>
<trkpt lat="40.0728686" lon="-105.2308677">
  <ele>1595.51</ele>
  <time>2026-08-28T19:11:23Z</time>
  <course>20.44</course>
  <speed>0.04</speed>
  <fix>3d</fix>
</trkpt>
<trkpt lat="40.0728685" lon="-105.2308677">
  <ele>1595.57</ele>
  <time>2026-08-28T19:11:23Z</time>
  <course>55.64</course>
  <speed>0.022360679774997897</speed>
  <fix>3d</fix>
</trkpt>
<trkpt lat="40.0728687" lon="-105.2308676">
  <ele>1595.51</ele>
  <time>2026-08-28T19:11:23Z</time>
  <course>17.46</course>
  <speed>0.04</speed>
  <fix>3d</fix>
</trkpt>
<trkpt lat="40.0728686" lon="-105.2308677">
  <ele>1595.58</ele>
  <time>2026-08-28T19:11:23Z</time>
  <course>56.94</course>
  <speed>0.02</speed>
  <fix>3d</fix>
</trkpt>
<trkpt lat="40.0728687" lon="-105.2308676">
  <ele>1595.52</ele>
  <time>2026-08-28T19:11:23Z</time>
  <course>15.4</course>
  <speed>0.04</speed>
  <fix>3d</fix>
</trkpt>
<trkpt lat="40.0728687" lon="-105.2308677">
  <ele>1595.58</ele>
  <time>2026-08-28T19:11:23Z</time>
  <course>58.43</course>
  <speed>0.02</speed>
  <fix>3d</fix>
</trkpt>
<trkpt lat="40.0728688" lon="-105.2308676">
  <ele>1595.52</ele>
  <time>2026-08-28T19:11:23Z</time>
  <course>14.03</course>
  <speed>0.04</speed>
  <fix>3d</fix>
</trkpt>
<trkpt lat="40.0728687" lon="-105.2308676">
  <ele>1595.58</ele>
  <time>2026-08-28T19:11:23Z</time>
  <course>59.95</course>
  <speed>0.02</speed>
  <fix>3d</fix>
</trkpt>
<trkpt lat="40.0728689" lon="-105.2308676">
  <ele>1595.52</ele>
  <time>2026-08-28T19:11:23Z</time>
  <course>13.32</course>
  <speed>0.04</speed>
  <fix>3d</fix>
</trkpt>
<trkpt lat="40.0728688" lon="-105.2308676">
  <ele>1595.59</ele>
  <time>2026-08-28T19:11:23Z</time>
  <course>61.39</course>
  <speed>0.01</speed>
  <fix>3d</fix>
</trkpt>
<trkpt lat="40.072869" lon="-105.2308676">
  <ele>1595.52</ele>
  <time>2026-08-28T19:11:23Z</time>
  <course>13.5</course>
  <speed>0.04</speed>
  <fix>3d</fix>
</trkpt>
<trkpt lat="40.0728689" lon="-105.2308676">
  <ele>1595.59</ele>
  <time>2026-08-28T19:11:23Z</time>
  <course>62.59</course>
  <speed>0.01414213562373095</speed>
  <fix>3d</fix>
</trkpt>
<trkpt lat="40.0728691" lon="-105.2308676">
  <ele>1595.52</ele>
  <time>2026-08-28T19:11:23Z</time>
  <course>15.24</course>
  <speed>0.04</speed>
  <fix>3d</fix>
</trkpt>
<trkpt lat="40.0728689" lon="-105.2308676">
  <ele>1595.59</ele>
  <time>2026-08-28T19:11:23Z</time>
  <course>63.42</course>
  <speed>0.01414213562373095</speed>
  <fix>3d</fix>
</trkpt>
<trkpt lat="40.0728691" lon="-105.2308676">
  <ele>1595.51</ele>
  <time>2026-08-28T19:11:23Z</time>
  <course>18.6</course>
  <speed>0.03</speed>
  <fix>3d</fix>
</trkpt>
<trkpt lat="40.072869" lon="-105.2308675">
  <ele>1595.58</ele>
  <time>2026-08-28T19:11:23Z</time>
  <course>63.83</course>
  <speed>0.01</speed>
  <fix>3d</fix>
</trkpt>
<trkpt lat="40.0728692" lon="-105.2308675">
  <ele>1595.51</ele>
  <time>2026-08-28T19:11:23Z</time>
  <course>22.68</course>
  <speed>0.03</speed>
  <fix>3d</fix>
</trkpt>
<trkpt lat="40.0728691" lon="-105.2308675">
  <ele>1595.58</ele>
  <time>2026-08-28T19:11:23Z</time>
  <course>63.71</course>
  <speed>0.01</speed>
  <fix>3d</fix>
</trkpt>
<trkpt lat="40.0728692" lon="-105.2308675">
  <ele>1595.51</ele>
  <time>2026-08-28T19:11:23Z</time>
  <course>27.38</course>
  <speed>0.03</speed>
  <fix>3d</fix>
</trkpt>
<trkpt lat="40.0728691" lon="-105.2308675">
  <ele>1595.58</ele>
  <time>2026-08-28T19:11:23Z</time>
  <course>63.13</course>
  <speed>0.01</speed>
  <fix>3d</fix>
</trkpt>
<trkpt lat="40.0728693" lon="-105.2308674">
  <ele>1595.5</ele>
  <time>2026-08-28T19:11:23Z</time>
  <course>32.54</course>
  <speed>0.03</speed>
  <fix>3d</fix>
</trkpt>
<trkpt lat="40.0728692" lon="-105.2308674">
  <ele>1595.57</ele>
  <time>2026-08-28T19:11:23Z</time>
  <course>62.17</course>
  <speed>0.02</speed>
  <fix>3d</fix>
</trkpt>
<trkpt lat="40.0728693" lon="-105.2308673">
  <ele>1595.5</ele>
  <time>2026-08-28T19:11:23Z</time>
  <course>37.05</course>
  <speed>0.03</speed>
  <fix>3d</fix>
</trkpt>
<trkpt lat="40.0728692" lon="-105.2308673">
  <ele>1595.57</ele>
  <time>2026-08-28T19:11:23Z</time>
  <course>60.87</course>
  <speed>0.02</speed>
  <fix>3d</fix>
</trkpt>
<trkpt lat="40.0728694" lon="-105.2308673">
  <ele>1595.5</ele>
  <time>2026-08-28T19:11:23Z</time>
  <course>39.74</course>
  <speed>0.03</speed>
  <fix>3d</fix>
</trkpt>
<trkpt lat="40.0728692" lon="-105.2308673">
  <ele>1595.57</ele>
  <time>2026-08-28T19:11:23Z</time>
  <course>59.39</course>
  <speed>0.02</speed>
  <fix>3d</fix>
</trkpt>
<trkpt lat="40.0728694" lon="-105.2308673">
  <ele>1595.5</ele>
  <time>2026-08-28T19:11:23Z</time>
  <course>40.64</course>
  <speed>0.03</speed>
  <fix>3d</fix>
</trkpt>
<trkpt lat="40.0728693" lon="-105.2308672">
  <ele>1595.56</ele>
  <time>2026-08-28T19:11:23Z</time>
  <course>57.86</course>
  <speed>0.02</speed>
  <fix>3d</fix>
</trkpt>
<trkpt lat="40.0728695" lon="-105.2308672">
  <ele>1595.49</ele>
  <time>2026-08-28T19:11:23Z</time>
  <course>40.14</course>
  <speed>0.03</speed>
  <fix>3d</fix>
</trkpt>
<trkpt lat="40.0728694" lon="-105.2308672">
  <ele>1595.56</ele>
  <time>2026-08-28T19:11:23Z</time>
  <course>56.42</course>
  <speed>0.02</speed>
  <fix>3d</fix>
</trkpt>
<trkpt lat="40.0728696" lon="-105.2308671">
  <ele>1595.49</ele>
  <time>2026-08-28T19:11:23Z</time>
  <course>38.73</course>
  <speed>0.03</speed>
  <fix>3d</fix>
</trkpt>
<trkpt lat="40.0728694" lon="-105.2308671">
  <ele>1595.56</ele>
  <time>2026-08-28T19:11:23Z</time>
  <course>55.22</course>
  <speed>0.022360679774997897</speed>
  <fix>3d</fix>
</trkpt>
<trkpt lat="40.0728696" lon="-105.2308671">
  <ele>1595.5</ele>
  <time>2026-08-28T19:11:23Z</time>
  <course>36.73</course>
  <speed>0.04</speed>
  <fix>3d</fix>
</trkpt>
<trkpt lat="40.0728695" lon="-105.2308671">
  <ele>1595.56</ele>
  <time>2026-08-28T19:11:23Z</time>
  <course>54.39</course>
  <speed>0.022360679774997897</speed>
  <fix>3d</fix>
</trkpt>
<trkpt lat="40.0728697" lon="-105.2308671">
  <ele>1595.5</ele>
  <time>2026-08-28T19:11:23Z</time>
  <course>33.96</course>
  <speed>0.04</speed>
  <fix>3d</fix>
</trkpt>
<trkpt lat="40.0728696" lon="-105.230867">
  <ele>1595.56</ele>
  <time>2026-08-28T19:11:23Z</time>
  <course>54.0</course>
  <speed>0.01414213562373095</speed>
  <fix>3d</fix>
</trkpt>
<trkpt lat="40.0728697" lon="-105.230867">
  <ele>1595.5</ele>
  <time>2026-08-28T19:11:23Z</time>
  <course>30.21</course>
  <speed>0.04</speed>
  <fix>3d</fix>
</trkpt>
<trkpt lat="40.0728696" lon="-105.230867">
  <ele>1595.56</ele>
  <time>2026-08-28T19:11:23Z</time>
  <course>54.08</course>
  <speed>0.01414213562373095</speed>
  <fix>3d</fix>
</trkpt>
<trkpt lat="40.0728698" lon="-105.2308669">
  <ele>1595.5</ele>
  <time>2026-08-28T19:11:23Z</time>
  <course>26.19</course>
  <speed>0.04</speed>
  <fix>3d</fix>
</trkpt>
<trkpt lat="40.0728697" lon="-105.2308669">
  <ele>1595.56</ele>
  <time>2026-08-28T19:11:23Z</time>
  <course>54.63</course>
  <speed>0.022360679774997897</speed>
  <fix>3d</fix>
</trkpt>
<trkpt lat="40.0728699" lon="-105.2308669">
  <ele>1595.5</ele>
  <time>2026-08-28T19:11:23Z</time>
  <course>22.56</course>
  <speed>0.04</speed>
  <fix>3d</fix>
</trkpt>
<trkpt lat="40.0728698" lon="-105.2308669">
  <ele>1595.57</ele>
  <time>2026-08-28T19:11:23Z</time>
  <course>55.65</course>
  <speed>0.022360679774997897</speed>
  <fix>3d</fix>
</trkpt>
<trkpt lat="40.0728699" lon="-105.2308669">
  <ele>1595.5</ele>
  <time>2026-08-28T19:11:23Z</time>
  <course>19.49</course>
  <speed>0.04</speed>
  <fix>3d</fix>
</trkpt>
<trkpt lat="40.0728699" lon="-105.2308669">
  <ele>1595.57</ele>
  <time>2026-08-28T19:11:23Z</time>
  <course>56.92</course>
  <speed>0.02</speed>
  <fix>3d</fix>
</trkpt>
<trkpt lat="40.07287" lon="-105.2308669">
  <ele>1595.51</ele>
  <time>2026-08-28T19:11:23Z</time>
  <course>17.17</course>
  <speed>0.04</speed>
  <fix>3d</fix>
</trkpt>
<trkpt lat="40.0728699" lon="-105.2308668">
  <ele>1595.57</ele>
  <time>2026-08-28T19:11:23Z</time>
  <course>58.38</course>
  <speed>0.02</speed>
  <fix>3d</fix>
</trkpt>
<trkpt lat="40.0728701" lon="-105.2308668">
  <ele>1595.51</ele>
  <time>2026-08-28T19:11:23Z</time>
  <course>15.09</course>
  <speed>0.04</speed>
  <fix>3d</fix>
</trkpt>
<trkpt lat="40.07287" lon="-105.2308668">
  <ele>1595.56</ele>
  <time>2026-08-28T19:11:23Z</time>
  <course>59.92</course>
  <speed>0.01</speed>
  <fix>3d</fix>
</trkpt>
<trkpt lat="40.0728701" lon="-105.2308668">
  <ele>1595.51</ele>
  <time>2026-08-28T19:11:23Z</time>
  <course>13.9</course>
  <speed>0.04</speed>
  <fix>3d</fix>
</trkpt>
<trkpt lat="40.0728701" lon="-105.2308668">
  <ele>1595.56</ele>
  <time>2026-08-28T19:11:23Z</time>
  <course>61.32</course>
  <speed>0.01</speed>
  <fix>3d</fix>
</trkpt>
<trkpt lat="40.0728702" lon="-105.2308668">
  <ele>1595.51</ele>
  <time>2026-08-28T19:11:23Z</time>
  <course>14.21</course>
  <speed>0.04</speed>
  <fix>3d</fix>
</trkpt>
<trkpt lat="40.0728701" lon="-105.2308668">
  <ele>1595.57</ele>
  <time>2026-08-28T19:11:23Z</time>
  <course>62.51</course>
  <speed>0.01</speed>
  <fix>3d</fix>
</trkpt>
<trkpt lat="40.0728703" lon="-105.2308668">
  <ele>1595.51</ele>
  <time>2026-08-28T19:11:23Z</time>
  <course>15.51</course>
  <speed>0.03</speed>
  <fix>3d</fix>
</trkpt>
<trkpt lat="40.0728702" lon="-105.2308668">
  <ele>1595.57</ele>
  <time>2026-08-28T19:11:24Z</time>
  <course>63.37</course>
  <speed>0.01414213562373095</speed>
  <fix>3d</fix>
</trkpt>
<trkpt lat="40.0728704" lon="-105.2308667">
  <ele>1595.51</ele>
  <time>2026-08-28T19:11:24Z</time>
  <course>17.76</course>
  <speed>0.03</speed>
  <fix>3d</fix>
</trkpt>
<trkpt lat="40.0728703" lon="-105.2308667">
  <ele>1595.57</ele>
  <time>2026-08-28T19:11:24Z</time>
  <course>63.75</course>
  <speed>0.01</speed>
  <fix>3d</fix>
</trkpt>
<trkpt lat="40.0728704" lon="-105.2308666">
  <ele>1595.51</ele>
  <time>2026-08-28T19:11:24Z</time>
  <course>21.66</course>
  <speed>0.03</speed>
  <fix>3d</fix>
</trkpt>
<trkpt lat="40.0728703" lon="-105.2308667">
  <ele>1595.57</ele>
  <time>2026-08-28T19:11:24Z</time>
  <course>63.67</course>
  <speed>0.01</speed>
  <fix>3d</fix>
</trkpt>
<trkpt lat="40.0728705" lon="-105.2308666">
  <ele>1595.51</ele>
  <time>2026-08-28T19:11:24Z</time>
  <course>26.68</course>
  <speed>0.03</speed>
  <fix>3d</fix>
</trkpt>
<trkpt lat="40.0728704" lon="-105.2308666">
  <ele>1595.57</ele>
  <time>2026-08-28T19:11:24Z</time>
  <course>63.13</course>
  <speed>0.01</speed>
  <fix>3d</fix>
</trkpt>
<trkpt lat="40.0728706" lon="-105.2308666">
  <ele>1595.51</ele>
  <time>2026-08-28T19:11:24Z</time>
  <course>31.42</course>
  <speed>0.03</speed>
  <fix>3d</fix>
</trkpt>
<trkpt lat="40.0728704" lon="-105.2308666">
  <ele>1595.57</ele>
  <time>2026-08-28T19:11:24Z</time>
  <course>62.14</course>
  <speed>0.01</speed>
  <fix>3d</fix>
</trkpt>
<trkpt lat="40.0728706" lon="-105.2308666">
  <ele>1595.52</ele>
  <time>2026-08-28T19:11:24Z</time>
  <course>35.24</course>
  <speed>0.03</speed>
  <fix>3d</fix>
</trkpt>
<trkpt lat="40.0728705" lon="-105.2308665">
  <ele>1595.57</ele>
  <time>2026-08-28T19:11:24Z</time>
  <course>60.85</course>
  <speed>0.02</speed>
  <fix>3d</fix>
</trkpt>
<trkpt lat="40.0728706" lon="-105.2308665">
  <ele>1595.52</ele>
  <time>2026-08-28T19:11:24Z</time>
  <course>37.85</course>
  <speed>0.03</speed>
  <fix>3d</fix>
</trkpt>
<trkpt lat="40.0728705" lon="-105.2308665">
  <ele>1595.57</ele>
  <time>2026-08-28T19:11:24Z</time>
  <course>59.36</course>
  <speed>0.02</speed>
  <fix>3d</fix>
</trkpt>
<trkpt lat="40.0728707" lon="-105.2308664">
  <ele>1595.52</ele>
  <time>2026-08-28T19:11:24Z</time>
  <course>38.9</course>
  <speed>0.03</speed>
  <fix>3d</fix>
</trkpt>
<trkpt lat="40.0728706" lon="-105.2308664">
  <ele>1595.57</ele>
  <time>2026-08-28T19:11:24Z</time>
  <course>57.86</course>
  <speed>0.02</speed>
  <fix>3d</fix>
</trkpt>
<trkpt lat="40.0728707" lon="-105.2308664">
  <ele>1595.52</ele>
  <time>2026-08-28T19:11:24Z</time>
  <course>38.22</course>
  <speed>0.03</speed>
  <fix>3d</fix>
</trkpt>
<trkpt lat="40.0728706" lon="-105.2308664">
  <ele>1595.57</ele>
  <time>2026-08-28T19:11:24Z</time>
  <course>56.43</course>
  <speed>0.02</speed>
  <fix>3d</fix>
</trkpt>
<trkpt lat="40.0728708" lon="-105.2308664">
  <ele>1595.52</ele>
  <time>2026-08-28T19:11:24Z</time>
  <course>36.23</course>
  <speed>0.03</speed>
  <fix>3d</fix>
</trkpt>
<trkpt lat="40.0728707" lon="-105.2308663">
  <ele>1595.58</ele>
  <time>2026-08-28T19:11:24Z</time>
  <course>55.24</course>
  <speed>0.022360679774997897</speed>
  <fix>3d</fix>
</trkpt>
<trkpt lat="40.0728709" lon="-105.2308663">
  <ele>1595.52</ele>
  <time>2026-08-28T19:11:24Z</time>
  <course>33.37</course>
  <speed>0.04</speed>
  <fix>3d</fix>
</trkpt>
<trkpt lat="40.0728707" lon="-105.2308663">
  <ele>1595.58</ele>
  <time>2026-08-28T19:11:24Z</time>
  <course>54.44</course>
  <speed>0.01414213562373095</speed>
  <fix>3d</fix>
</trkpt>
<trkpt lat="40.0728709" lon="-105.2308662">
  <ele>1595.52</ele>
  <time>2026-08-28T19:11:24Z</time>
  <course>29.99</course>
  <speed>0.04</speed>
  <fix>3d</fix>
</trkpt>
<trkpt lat="40.0728708" lon="-105.2308662">
  <ele>1595.58</ele>
  <time>2026-08-28T19:11:24Z</time>
  <course>54.07</course>
  <speed>0.01414213562373095</speed>
  <fix>3d</fix>
</trkpt>
<trkpt lat="40.072871" lon="-105.2308662">
  <ele>1595.52</ele>
  <time>2026-08-28T19:11:24Z</time>
  <course>26.89</course>
  <speed>0.04</speed>
  <fix>3d</fix>
</trkpt>
<trkpt lat="40.0728709" lon="-105.2308662">
  <ele>1595.58</ele>
  <time>2026-08-28T19:11:24Z</time>
  <course>53.98</course>
  <speed>0.01414213562373095</speed>
  <fix>3d</fix>
</trkpt>
<trkpt lat="40.0728711" lon="-105.2308662">
  <ele>1595.51</ele>
  <time>2026-08-28T19:11:24Z</time>
  <course>24.92</course>
  <speed>0.04</speed>
  <fix>3d</fix>
</trkpt>
<trkpt lat="40.072871" lon="-105.2308661">
  <ele>1595.58</ele>
  <time>2026-08-28T19:11:24Z</time>
  <course>53.95</course>
  <speed>0.022360679774997897</speed>
  <fix>3d</fix>
</trkpt>
<trkpt lat="40.0728711" lon="-105.2308661">
  <ele>1595.51</ele>
  <time>2026-08-28T19:11:24Z</time>
  <course>25.03</course>
  <speed>0.04</speed>
  <fix>3d</fix>
</trkpt>
<trkpt lat="40.072871" lon="-105.2308661">
  <ele>1595.58</ele>
  <time>2026-08-28T19:11:24Z</time>
  <course>53.92</course>
  <speed>0.0282842712474619</speed>
  <fix>3d</fix>
</trkpt>
<trkpt lat="40.0728712" lon="-105.2308661">
  <ele>1595.51</ele>
  <time>2026-08-28T19:11:24Z</time>
  <course>27.03</course>
  <speed>0.04</speed>
  <fix>3d</fix>
</trkpt>
<trkpt lat="40.0728711" lon="-105.230866">
  <ele>1595.58</ele>
  <time>2026-08-28T19:11:24Z</time>
  <course>53.91</course>
  <speed>0.0282842712474619</speed>
  <fix>3d</fix>
</trkpt>
<trkpt lat="40.0728713" lon="-105.230866">
  <ele>1595.51</ele>
  <time>2026-08-28T19:11:24Z</time>
  <course>29.21</course>
  <speed>0.05</speed>
  <fix>3d</fix>
</trkpt>
<trkpt lat="40.0728712" lon="-105.230866">
  <ele>1595.57</ele>
  <time>2026-08-28T19:11:24Z</time>
  <course>53.9</course>
  <speed>0.0282842712474619</speed>
  <fix>3d</fix>
</trkpt>
<trkpt lat="40.0728714" lon="-105.2308659">
  <ele>1595.51</ele>
  <time>2026-08-28T19:11:24Z</time>
  <course>30.84</course>
  <speed>0.05</speed>
  <fix>3d</fix>
</trkpt>
<trkpt lat="40.0728713" lon="-105.2308659">
  <ele>1595.57</ele>
  <time>2026-08-28T19:11:24Z</time>
  <course>53.91</course>
  <speed>0.04242640687119285</speed>
  <fix>3d</fix>
</trkpt>
<trkpt lat="40.0728715" lon="-105.2308659">
  <ele>1595.5</ele>
  <time>2026-08-28T19:11:24Z</time>
  <course>32.0</course>
  <speed>0.05</speed>
  <fix>3d</fix>
</trkpt>
<trkpt lat="40.0728714" lon="-105.2308658">
  <ele>1595.57</ele>
  <time>2026-08-28T19:11:24Z</time>
  <course>53.9</course>
  <speed>0.04242640687119285</speed>
  <fix>3d</fix>
</trkpt>
<trkpt lat="40.0728716" lon="-105.2308658">
  <ele>1595.5</ele>
  <time>2026-08-28T19:11:24Z</time>
  <course>33.06</course>
  <speed>0.06</speed>
  <fix>3d</fix>
</trkpt>
<trkpt lat="40.0728715" lon="-105.2308657">
  <ele>1595.56</ele>
  <time>2026-08-28T19:11:24Z</time>
  <course>53.91</course>
  <speed>0.04242640687119285</speed>
  <fix>3d</fix>
</trkpt>
<trkpt lat="40.0728716" lon="-105.2308657">
  <ele>1595.5</ele>
  <time>2026-08-28T19:11:24Z</time>
  <course>34.16</course>
  <speed>0.06</speed>
  <fix>3d</fix>
</trkpt>
<trkpt lat="40.0728716" lon="-105.2308656">
  <ele>1595.56</ele>
  <time>2026-08-28T19:11:24Z</time>
  <course>53.91</course>
  <speed>0.05</speed>
  <fix>3d</fix>
</trkpt>
<trkpt lat="40.0728718" lon="-105.2308656">
  <ele>1595.5</ele>
  <time>2026-08-28T19:11:24Z</time>
  <course>35.09</course>
  <speed>0.07</speed>
  <fix>3d</fix>
</trkpt>
<trkpt lat="40.0728717" lon="-105.2308655">
  <ele>1595.56</ele>
  <time>2026-08-28T19:11:24Z</time>
  <course>53.9</course>
  <speed>0.0565685424949238</speed>
  <fix>3d</fix>
</trkpt>
<trkpt lat="40.0728719" lon="-105.2308655">
  <ele>1595.5</ele>
  <time>2026-08-28T19:11:24Z</time>
  <course>35.91</course>
  <speed>0.07</speed>
  <fix>3d</fix>
</trkpt>
<trkpt lat="40.0728718" lon="-105.2308654">
  <ele>1595.56</ele>
  <time>2026-08-28T19:11:24Z</time>
  <course>53.91</course>
  <speed>0.0565685424949238</speed>
  <fix>3d</fix>
</trkpt>
<trkpt lat="40.072872" lon="-105.2308654">
  <ele>1595.5</ele>
  <time>2026-08-28T19:11:24Z</time>
  <course>36.35</course>
  <speed>0.07</speed>
  <fix>3d</fix>
</trkpt>
<trkpt lat="40.072872" lon="-105.2308653">
  <ele>1595.57</ele>
  <time>2026-08-28T19:11:24Z</time>
  <course>53.92</course>
  <speed>0.0565685424949238</speed>
  <fix>3d</fix>
</trkpt>
<trkpt lat="40.0728721" lon="-105.2308653">
  <ele>1595.5</ele>
  <time>2026-08-28T19:11:24Z</time>
  <course>36.58</course>
  <speed>0.08</speed>
  <fix>3d</fix>
</trkpt>
<trkpt lat="40.0728721" lon="-105.2308652">
  <ele>1595.57</ele>
  <time>2026-08-28T19:11:24Z</time>
  <course>53.92</course>
  <speed>0.06403124237432849</speed>
  <fix>3d</fix>
</trkpt>
<trkpt lat="40.0728722" lon="-105.2308652">
  <ele>1595.51</ele>
  <time>2026-08-28T19:11:24Z</time>
  <course>37.07</course>
  <speed>0.08</speed>
  <fix>3d</fix>
</trkpt>
<trkpt lat="40.0728722" lon="-105.230865">
  <ele>1595.58</ele>
  <time>2026-08-28T19:11:24Z</time>
  <course>53.93</course>
  <speed>0.06403124237432849</speed>
  <fix>3d</fix>
</trkpt>
<trkpt lat="40.0728723" lon="-105.230865">
  <ele>1595.51</ele>
  <time>2026-08-28T19:11:24Z</time>
  <course>37.63</course>
  <speed>0.08</speed>
  <fix>3d</fix>
</trkpt>
<trkpt lat="40.0728723" lon="-105.2308649">
  <ele>1595.58</ele>
  <time>2026-08-28T19:11:24Z</time>
  <course>53.94</course>
  <speed>0.07071067811865475</speed>
  <fix>3d</fix>
</trkpt>
<trkpt lat="40.0728725" lon="-105.2308649">
  <ele>1595.51</ele>
  <time>2026-08-28T19:11:24Z</time>
  <course>38.08</course>
  <speed>0.09</speed>
  <fix>3d</fix>
</trkpt>
<trkpt lat="40.0728725" lon="-105.2308648">
  <ele>1595.59</ele>
  <time>2026-08-28T19:11:24Z</time>
  <course>53.96</course>
  <speed>0.07071067811865475</speed>
  <fix>3d</fix>
</trkpt>
<trkpt lat="40.0728726" lon="-105.2308648">
  <ele>1595.51</ele>
  <time>2026-08-28T19:11:24Z</time>
  <course>38.4</course>
  <speed>0.09</speed>
  <fix>3d</fix>
</trkpt>
<trkpt lat="40.0728726" lon="-105.2308646">
  <ele>1595.59</ele>
  <time>2026-08-28T19:11:24Z</time>
  <course>53.95</course>
  <speed>0.07810249675906654</speed>
  <fix>3d</fix>
</trkpt>
<trkpt lat="40.0728727" lon="-105.2308646">
  <ele>1595.51</ele>
  <time>2026-08-28T19:11:24Z</time>
  <course>38.81</course>
  <speed>0.09</speed>
  <fix>3d</fix>
</trkpt>
<trkpt lat="40.0728727" lon="-105.2308645">
  <ele>1595.59</ele>
  <time>2026-08-28T19:11:24Z</time>
  <course>53.32</course>
  <speed>0.07810249675906654</speed>
  <fix>3d</fix>
</trkpt>
<trkpt lat="40.0728729" lon="-105.2308645">
  <ele>1595.5</ele>
  <time>2026-08-28T19:11:24Z</time>
  <course>40.44</course>
  <speed>0.09</speed>
  <fix>3d</fix>
</trkpt>
<trkpt lat="40.0728729" lon="-105.2308643">
  <ele>1595.58</ele>
  <time>2026-08-28T19:11:24Z</time>
  <course>52.01</course>
  <speed>0.07211102550927978</speed>
  <fix>3d</fix>
</trkpt>
<trkpt lat="40.072873" lon="-105.2308644">
  <ele>1595.5</ele>
  <time>2026-08-28T19:11:24Z</time>
  <course>42.32</course>
  <speed>0.09</speed>
  <fix>3d</fix>
</trkpt>
<trkpt lat="40.072873" lon="-105.2308642">
  <ele>1595.58</ele>
  <time>2026-08-28T19:11:24Z</time>
  <course>50.74</course>
  <speed>0.06403124237432849</speed>
  <fix>3d</fix>
</trkpt>
<trkpt lat="40.0728731" lon="-105.2308642">
  <ele>1595.49</ele>
  <time>2026-08-28T19:11:24Z</time>
  <course>42.52</course>
  <speed>0.09</speed>
  <fix>3d</fix>
</trkpt>
<trkpt lat="40.0728731" lon="-105.230864">
  <ele>1595.58</ele>
  <time>2026-08-28T19:11:24Z</time>
  <course>49.76</course>
  <speed>0.06403124237432849</speed>
  <fix>3d</fix>
</trkpt>
<trkpt lat="40.0728732" lon="-105.230864">
  <ele>1595.49</ele>
  <time>2026-08-28T19:11:24Z</time>
  <course>41.35</course>
  <speed>0.08</speed>
  <fix>3d</fix>
</trkpt>
<trkpt lat="40.0728732" lon="-105.2308639">
  <ele>1595.58</ele>
  <time>2026-08-28T19:11:24Z</time>
  <course>49.18</course>
  <speed>0.05</speed>
  <fix>3d</fix>
</trkpt>
<trkpt lat="40.0728733" lon="-105.2308639">
  <ele>1595.48</ele>
  <time>2026-08-28T19:11:24Z</time>
  <course>39.36</course>
  <speed>0.08</speed>
  <fix>3d</fix>
</trkpt>
<trkpt lat="40.0728733" lon="-105.2308638">
  <ele>1595.58</ele>
  <time>2026-08-28T19:11:24Z</time>
  <course>49.1</course>
  <speed>0.04242640687119285</speed>
  <fix>3d</fix>
</trkpt>
<trkpt lat="40.0728735" lon="-105.2308638">
  <ele>1595.48</ele>
  <time>2026-08-28T19:11:24Z</time>
  <course>36.64</course>
  <speed>0.07</speed>
  <fix>3d</fix>
</trkpt>
<trkpt lat="40.0728734" lon="-105.2308637">
  <ele>1595.57</ele>
  <time>2026-08-28T19:11:24Z</time>
  <course>49.47</course>
  <speed>0.03605551275463989</speed>
  <fix>3d</fix>
</trkpt>
<trkpt lat="40.0728736" lon="-105.2308637">
  <ele>1595.48</ele>
  <time>2026-08-28T19:11:24Z</time>
  <course>33.1</course>
  <speed>0.06</speed>
  <fix>3d</fix>
</trkpt>
<trkpt lat="40.0728735" lon="-105.2308637">
  <ele>1595.57</ele>
  <time>2026-08-28T19:11:24Z</time>
  <course>50.26</course>
  <speed>0.0282842712474619</speed>
  <fix>3d</fix>
</trkpt>
<trkpt lat="40.0728736" lon="-105.2308637">
  <ele>1595.47</ele>
  <time>2026-08-28T19:11:24Z</time>
  <course>29.16</course>
  <speed>0.05</speed>
  <fix>3d</fix>
</trkpt>
<trkpt lat="40.0728736" lon="-105.2308636">
  <ele>1595.57</ele>
  <time>2026-08-28T19:11:24Z</time>
  <course>51.46</course>
  <speed>0.022360679774997897</speed>
  <fix>3d</fix>
</trkpt>
<trkpt lat="40.0728737" lon="-105.2308636">
  <ele>1595.47</ele>
  <time>2026-08-28T19:11:24Z</time>
  <course>24.59</course>
  <speed>0.05</speed>
  <fix>3d</fix>
</trkpt>
<trkpt lat="40.0728737" lon="-105.2308636">
  <ele>1595.57</ele>
  <time>2026-08-28T19:11:24Z</time>
  <course>52.89</course>
  <speed>0.022360679774997897</speed>
  <fix>3d</fix>
</trkpt>
<trkpt lat="40.0728738" lon="-105.2308635">
  <ele>1595.47</ele>
  <time>2026-08-28T19:11:24Z</time>
  <course>19.62</course>
  <speed>0.04</speed>
  <fix>3d</fix>
</trkpt>
<trkpt lat="40.0728737" lon="-105.2308635">
  <ele>1595.57</ele>
  <time>2026-08-28T19:11:24Z</time>
  <course>54.4</course>
  <speed>0.01</speed>
  <fix>3d</fix>
</trkpt>
<trkpt lat="40.0728739" lon="-105.2308635">
  <ele>1595.47</ele>
  <time>2026-08-28T19:11:24Z</time>
  <course>15.67</course>
  <speed>0.04</speed>
  <fix>3d</fix>
</trkpt>
<trkpt lat="40.0728738" lon="-105.2308635">
  <ele>1595.57</ele>
  <time>2026-08-28T19:11:24Z</time>
  <course>55.88</course>
  <speed>0.01</speed>
  <fix>3d</fix>
</trkpt>
<trkpt lat="40.072874" lon="-105.2308635">
  <ele>1595.47</ele>
  <time>2026-08-28T19:11:24Z</time>
  <course>12.81</course>
  <speed>0.03</speed>
  <fix>3d</fix>
</trkpt>
<trkpt lat="40.0728739" lon="-105.2308635">
  <ele>1595.57</ele>
  <time>2026-08-28T19:11:24Z</time>
  <course>57.17</course>
  <speed>0.01</speed>
  <fix>3d</fix>
</trkpt>
<trkpt lat="40.072874" lon="-105.2308635">
  <ele>1595.47</ele>
  <time>2026-08-28T19:11:24Z</time>
  <course>11.0</course>
  <speed>0.03</speed>
  <fix>3d</fix>
</trkpt>
<trkpt lat="40.0728739" lon="-105.2308635">
  <ele>1595.57</ele>
  <time>2026-08-28T19:11:24Z</time>
  <course>58.16</course>
  <speed>0.0</speed>
  <fix>3d</fix>
</trkpt>
<trkpt lat="40.0728741" lon="-105.2308635">
  <ele>1595.47</ele>
  <time>2026-08-28T19:11:24Z</time>
  <course>10.72</course>
  <speed>0.03</speed>
  <fix>3d</fix>
</trkpt>
<trkpt lat="40.072874" lon="-105.2308635">
  <ele>1595.56</ele>
  <time>2026-08-28T19:11:24Z</time>
  <course>58.72</course>
  <speed>0.0</speed>
  <fix>3d</fix>
</trkpt>
<trkpt lat="40.0728742" lon="-105.2308635">
  <ele>1595.47</ele>
  <time>2026-08-28T19:11:24Z</time>
  <course>12.07</course>
  <speed>0.03</speed>
  <fix>3d</fix>
</trkpt>
<trkpt lat="40.072874" lon="-105.2308635">
  <ele>1595.56</ele>
  <time>2026-08-28T19:11:24Z</time>
  <course>58.81</course>
  <speed>0.01</speed>
  <fix>3d</fix>
</trkpt>
<trkpt lat="40.0728742" lon="-105.2308635">
  <ele>1595.47</ele>
  <time>2026-08-28T19:11:24Z</time>
  <course>15.49</course>
  <speed>0.02</speed>
  <fix>3d</fix>
</trkpt>
<trkpt lat="40.0728741" lon="-105.2308634">
  <ele>1595.55</ele>
  <time>2026-08-28T19:11:24Z</time>
  <course>58.39</course>
  <speed>0.01</speed>
  <fix>3d</fix>
</trkpt>
<trkpt lat="40.0728742" lon="-105.2308635">
  <ele>1595.47</ele>
  <time>2026-08-28T19:11:24Z</time>
  <course>20.41</course>
  <speed>0.02</speed>
  <fix>3d</fix>
</trkpt>
<trkpt lat="40.0728741" lon="-105.2308634">
  <ele>1595.55</ele>
  <time>2026-08-28T19:11:24Z</time>
  <course>57.54</course>
  <speed>0.01</speed>
  <fix>3d</fix>
</trkpt>
<trkpt lat="40.0728743" lon="-105.2308634">
  <ele>1595.47</ele>
  <time>2026-08-28T19:11:24Z</time>
  <course>25.66</course>
  <speed>0.02</speed>
  <fix>3d</fix>
</trkpt>
<trkpt lat="40.0728742" lon="-105.2308634">
  <ele>1595.54</ele>
  <time>2026-08-28T19:11:24Z</time>
  <course>56.37</course>
  <speed>0.01</speed>
  <fix>3d</fix>
</trkpt>
<trkpt lat="40.0728743" lon="-105.2308633">
  <ele>1595.47</ele>
  <time>2026-08-28T19:11:24Z</time>
  <course>29.6</course>
  <speed>0.03</speed>
  <fix>3d</fix>
</trkpt>
<trkpt lat="40.0728742" lon="-105.2308633">
  <ele>1595.55</ele>
  <time>2026-08-28T19:11:24Z</time>
  <course>54.96</course>
  <speed>0.01</speed>
  <fix>3d</fix>
</trkpt>
<trkpt lat="40.0728744" lon="-105.2308633">
  <ele>1595.47</ele>
  <time>2026-08-28T19:11:24Z</time>
  <course>31.02</course>
  <speed>0.03</speed>
  <fix>3d</fix>
</trkpt>
<trkpt lat="40.0728743" lon="-105.2308633">
  <ele>1595.55</ele>
  <time>2026-08-28T19:11:24Z</time>
  <course>53.44</course>
  <speed>0.02</speed>
  <fix>3d</fix>
</trkpt>
<trkpt lat="40.0728745" lon="-105.2308633">
  <ele>1595.48</ele>
  <time>2026-08-28T19:11:24Z</time>
  <course>30.96</course>
  <speed>0.03</speed>
  <fix>3d</fix>
</trkpt>
<trkpt lat="40.0728743" lon="-105.2308632">
  <ele>1595.55</ele>
  <time>2026-08-28T19:11:24Z</time>
  <course>51.97</course>
  <speed>0.022360679774997897</speed>
  <fix>3d</fix>
</trkpt>
<trkpt lat="40.0728745" lon="-105.2308633">
  <ele>1595.48</ele>
  <time>2026-08-28T19:11:24Z</time>
  <course>30.12</course>
  <speed>0.03</speed>
  <fix>3d</fix>
</trkpt>
<trkpt lat="40.0728744" lon="-105.2308632">
  <ele>1595.56</ele>
  <time>2026-08-28T19:11:24Z</time>
  <course>50.66</course>
  <speed>0.01414213562373095</speed>
  <fix>3d</fix>
</trkpt>
<trkpt lat="40.0728746" lon="-105.2308632">
  <ele>1595.49</ele>
  <time>2026-08-28T19:11:24Z</time>
  <course>28.68</course>
  <speed>0.03</speed>
  <fix>3d</fix>
</trkpt>
<trkpt lat="40.0728745" lon="-105.2308632">
  <ele>1595.56</ele>
  <time>2026-08-28T19:11:24Z</time>
  <course>49.68</course>
  <speed>0.01414213562373095</speed>
  <fix>3d</fix>
</trkpt>
<trkpt lat="40.0728746" lon="-105.2308632">
  <ele>1595.49</ele>
  <time>2026-08-28T19:11:24Z</time>
  <course>27.03</course>
  <speed>0.04</speed>
  <fix>3d</fix>
</trkpt>
<trkpt lat="40.0728745" lon="-105.2308631">
  <ele>1595.56</ele>
  <time>2026-08-28T19:11:24Z</time>
  <course>49.16</course>
  <speed>0.01414213562373095</speed>
  <fix>3d</fix>
</trkpt>
<trkpt lat="40.0728747" lon="-105.2308631">
  <ele>1595.5</ele>
  <time>2026-08-28T19:11:24Z</time>
  <course>24.67</course>
  <speed>0.04</speed>
  <fix>3d</fix>
</trkpt>
<trkpt lat="40.0728746" lon="-105.2308631">
  <ele>1595.57</ele>
  <time>2026-08-28T19:11:24Z</time>
  <course>49.06</course>
  <speed>0.01414213562373095</speed>
  <fix>3d</fix>
</trkpt>
<trkpt lat="40.0728748" lon="-105.230863">
  <ele>1595.5</ele>
  <time>2026-08-28T19:11:24Z</time>
  <course>21.93</course>
  <speed>0.04</speed>
  <fix>3d</fix>
</trkpt>
<trkpt lat="40.0728747" lon="-105.2308631">
  <ele>1595.57</ele>
  <time>2026-08-28T19:11:24Z</time>
  <course>49.43</course>
  <speed>0.022360679774997897</speed>
  <fix>3d</fix>
</trkpt>
<trkpt lat="40.0728748" lon="-105.230863">
  <ele>1595.5</ele>
  <time>2026-08-28T19:11:24Z</time>
  <course>19.28</course>
  <speed>0.04</speed>
  <fix>3d</fix>
</trkpt>
<trkpt lat="40.0728748" lon="-105.230863">
  <ele>1595.57</ele>
  <time>2026-08-28T19:11:24Z</time>
  <course>50.26</course>
  <speed>0.022360679774997897</speed>
  <fix>3d</fix>
</trkpt>
<trkpt lat="40.0728749" lon="-105.230863">
  <ele>1595.5</ele>
  <time>2026-08-28T19:11:24Z</time>
  <course>16.62</course>
  <speed>0.04</speed>
  <fix>3d</fix>
</trkpt>
<trkpt lat="40.0728748" lon="-105.230863">
  <ele>1595.57</ele>
  <time>2026-08-28T19:11:24Z</time>
  <course>51.45</course>
  <speed>0.022360679774997897</speed>
  <fix>3d</fix>
</trkpt>
<trkpt lat="40.072875" lon="-105.230863">
  <ele>1595.5</ele>
  <time>2026-08-28T19:11:24Z</time>
  <course>14.45</course>
  <speed>0.04</speed>
  <fix>3d</fix>
</trkpt>
<trkpt lat="40.0728749" lon="-105.230863">
  <ele>1595.57</ele>
  <time>2026-08-28T19:11:24Z</time>
  <course>52.88</course>
  <speed>0.02</speed>
  <fix>3d</fix>
</trkpt>
<trkpt lat="40.0728751" lon="-105.230863">
  <ele>1595.5</ele>
  <time>2026-08-28T19:11:24Z</time>
  <course>12.84</course>
  <speed>0.04</speed>
  <fix>3d</fix>
</trkpt>
<trkpt lat="40.072875" lon="-105.230863">
  <ele>1595.57</ele>
  <time>2026-08-28T19:11:24Z</time>
  <course>54.39</course>
  <speed>0.01</speed>
  <fix>3d</fix>
</trkpt>
<trkpt lat="40.0728752" lon="-105.230863">
  <ele>1595.51</ele>
  <time>2026-08-28T19:11:24Z</time>
  <course>11.87</course>
  <speed>0.04</speed>
  <fix>3d</fix>
</trkpt>
<trkpt lat="40.0728751" lon="-105.2308629">
  <ele>1595.57</ele>
  <time>2026-08-28T19:11:24Z</time>
  <course>55.85</course>
  <speed>0.01</speed>
  <fix>3d</fix>
</trkpt>
<trkpt lat="40.0728752" lon="-105.2308629">
  <ele>1595.51</ele>
  <time>2026-08-28T19:11:24Z</time>
  <course>11.84</course>
  <speed>0.04</speed>
  <fix>3d</fix>
</trkpt>
<trkpt lat="40.0728751" lon="-105.2308629">
  <ele>1595.57</ele>
  <time>2026-08-28T19:11:24Z</time>
  <course>57.16</course>
  <speed>0.01</speed>
  <fix>3d</fix>
</trkpt>
<trkpt lat="40.0728753" lon="-105.2308628">
  <ele>1595.51</ele>
  <time>2026-08-28T19:11:24Z</time>
  <course>12.63</course>
  <speed>0.04</speed>
  <fix>3d</fix>
</trkpt>
<trkpt lat="40.0728752" lon="-105.2308629">
  <ele>1595.57</ele>
  <time>2026-08-28T19:11:24Z</time>
  <course>58.16</course>
  <speed>0.01414213562373095</speed>
  <fix>3d</fix>
</trkpt>
<trkpt lat="40.0728754" lon="-105.2308628">
  <ele>1595.51</ele>
  <time>2026-08-28T19:11:24Z</time>
  <course>13.93</course>
  <speed>0.03</speed>
  <fix>3d</fix>
</trkpt>
<trkpt lat="40.0728753" lon="-105.2308629">
  <ele>1595.57</ele>
  <time>2026-08-28T19:11:24Z</time>
  <course>58.7</course>
  <speed>0.01414213562373095</speed>
  <fix>3d</fix>
</trkpt>
<trkpt lat="40.0728754" lon="-105.2308628">
  <ele>1595.51</ele>
  <time>2026-08-28T19:11:24Z</time>
  <course>16.02</course>
  <speed>0.03</speed>
  <fix>3d</fix>
</trkpt>
<trkpt lat="40.0728753" lon="-105.2308628">
  <ele>1595.58</ele>
  <time>2026-08-28T19:11:24Z</time>
  <course>58.82</course>
  <speed>0.01414213562373095</speed>
  <fix>3d</fix>
</trkpt>
<trkpt lat="40.0728755" lon="-105.2308628">
  <ele>1595.51</ele>
  <time>2026-08-28T19:11:24Z</time>
  <course>18.76</course>
  <speed>0.03</speed>
  <fix>3d</fix>
</trkpt>
<trkpt lat="40.0728754" lon="-105.2308628">
  <ele>1595.58</ele>
  <time>2026-08-28T19:11:24Z</time>
  <course>58.44</course>
  <speed>0.01</speed>
  <fix>3d</fix>
</trkpt>
<trkpt lat="40.0728755" lon="-105.2308628">
  <ele>1595.51</ele>
  <time>2026-08-28T19:11:24Z</time>
  <course>21.74</course>
  <speed>0.03</speed>
  <fix>3d</fix>
</trkpt>
<trkpt lat="40.0728754" lon="-105.2308628">
  <ele>1595.58</ele>
  <time>2026-08-28T19:11:24Z</time>
  <course>57.64</course>
  <speed>0.01</speed>
  <fix>3d</fix>
</trkpt>
<trkpt lat="40.0728756" lon="-105.2308628">
  <ele>1595.51</ele>
  <time>2026-08-28T19:11:24Z</time>
  <course>25.01</course>
  <speed>0.03</speed>
  <fix>3d</fix>
</trkpt>
<trkpt lat="40.0728755" lon="-105.2308627">
  <ele>1595.58</ele>
  <time>2026-08-28T19:11:24Z</time>
  <course>56.46</course>
  <speed>0.01</speed>
  <fix>3d</fix>
</trkpt>
<trkpt lat="40.0728757" lon="-105.2308627">
  <ele>1595.5</ele>
  <time>2026-08-28T19:11:24Z</time>
  <course>27.9</course>
  <speed>0.03</speed>
  <fix>3d</fix>
</trkpt>
<trkpt lat="40.0728755" lon="-105.2308627">
  <ele>1595.57</ele>
  <time>2026-08-28T19:11:24Z</time>
  <course>55.05</course>
  <speed>0.02</speed>
  <fix>3d</fix>
</trkpt>
<trkpt lat="40.0728758" lon="-105.2308626">
  <ele>1595.5</ele>
  <time>2026-08-28T19:11:24Z</time>
  <course>29.98</course>
  <speed>0.03</speed>
  <fix>3d</fix>
</trkpt>
<trkpt lat="40.0728756" lon="-105.2308626">
  <ele>1595.57</ele>
  <time>2026-08-28T19:11:24Z</time>
  <course>53.54</course>
  <speed>0.02</speed>
  <fix>3d</fix>
</trkpt>
<trkpt lat="40.0728758" lon="-105.2308626">
  <ele>1595.5</ele>
  <time>2026-08-28T19:11:24Z</time>
  <course>31.25</course>
  <speed>0.03</speed>
  <fix>3d</fix>
</trkpt>
<trkpt lat="40.0728757" lon="-105.2308626">
  <ele>1595.57</ele>
  <time>2026-08-28T19:11:24Z</time>
  <course>52.0</course>
  <speed>0.022360679774997897</speed>
  <fix>3d</fix>
</trkpt>
<trkpt lat="40.0728759" lon="-105.2308626">
  <ele>1595.5</ele>
  <time>2026-08-28T19:11:24Z</time>
  <course>31.22</course>
  <speed>0.03</speed>
  <fix>3d</fix>
</trkpt>
<trkpt lat="40.0728757" lon="-105.2308625">
  <ele>1595.58</ele>
  <time>2026-08-28T19:11:24Z</time>
  <course>50.71</course>
  <speed>0.022360679774997897</speed>
  <fix>3d</fix>
</trkpt>
<trkpt lat="40.0728759" lon="-105.2308626">
  <ele>1595.5</ele>
  <time>2026-08-28T19:11:24Z</time>
  <course>29.19</course>
  <speed>0.04</speed>
  <fix>3d</fix>
</trkpt>
<trkpt lat="40.0728758" lon="-105.2308625">
  <ele>1595.58</ele>
  <time>2026-08-28T19:11:24Z</time>
  <course>49.73</course>
  <speed>0.01414213562373095</speed>
  <fix>3d</fix>
</trkpt>
<trkpt lat="40.072876" lon="-105.2308625">
  <ele>1595.5</ele>
  <time>2026-08-28T19:11:24Z</time>
  <course>26.43</course>
  <speed>0.04</speed>
  <fix>3d</fix>
</trkpt>
<trkpt lat="40.0728759" lon="-105.2308625">
  <ele>1595.58</ele>
  <time>2026-08-28T19:11:24Z</time>
  <course>49.18</course>
  <speed>0.01414213562373095</speed>
  <fix>3d</fix>
</trkpt>
<trkpt lat="40.072876" lon="-105.2308625">
  <ele>1595.5</ele>
  <time>2026-08-28T19:11:24Z</time>
  <course>23.45</course>
  <speed>0.04</speed>
  <fix>3d</fix>
</trkpt>
<trkpt lat="40.072876" lon="-105.2308624">
  <ele>1595.58</ele>
  <time>2026-08-28T19:11:24Z</time>
  <course>49.08</course>
  <speed>0.022360679774997897</speed>
  <fix>3d</fix>
</trkpt>
<trkpt lat="40.0728761" lon="-105.2308624">
  <ele>1595.5</ele>
  <time>2026-08-28T19:11:24Z</time>
  <course>20.37</course>
  <speed>0.04</speed>
  <fix>3d</fix>
</trkpt>
<trkpt lat="40.072876" lon="-105.2308624">
  <ele>1595.59</ele>
  <time>2026-08-28T19:11:24Z</time>
  <course>49.47</course>
  <speed>0.022360679774997897</speed>
  <fix>3d</fix>
</trkpt>
<trkpt lat="40.0728762" lon="-105.2308623">
  <ele>1595.49</ele>
  <time>2026-08-28T19:11:24Z</time>
  <course>17.59</course>
  <speed>0.04</speed>
  <fix>3d</fix>
</trkpt>
<trkpt lat="40.0728761" lon="-105.2308624">
  <ele>1595.58</ele>
  <time>2026-08-28T19:11:24Z</time>
  <course>50.3</course>
  <speed>0.022360679774997897</speed>
  <fix>3d</fix>
</trkpt>
<trkpt lat="40.0728763" lon="-105.2308623">
  <ele>1595.49</ele>
  <time>2026-08-28T19:11:24Z</time>
  <course>14.92</course>
  <speed>0.04</speed>
  <fix>3d</fix>
</trkpt>
<trkpt lat="40.0728762" lon="-105.2308623">
  <ele>1595.58</ele>
  <time>2026-08-28T19:11:24Z</time>
  <course>51.49</course>
  <speed>0.02</speed>
  <fix>3d</fix>
</trkpt>
<trkpt lat="40.0728764" lon="-105.2308623">
  <ele>1595.49</ele>
  <time>2026-08-28T19:11:24Z</time>
  <course>12.8</course>
  <speed>0.04</speed>
  <fix>3d</fix>
</trkpt>
<trkpt lat="40.0728763" lon="-105.2308623">
  <ele>1595.57</ele>
  <time>2026-08-28T19:11:24Z</time>
  <course>52.89</course>
  <speed>0.02</speed>
  <fix>3d</fix>
</trkpt>
<trkpt lat="40.0728764" lon="-105.2308623">
  <ele>1595.48</ele>
  <time>2026-08-28T19:11:24Z</time>
  <course>11.7</course>
  <speed>0.04</speed>
  <fix>3d</fix>
</trkpt>
<trkpt lat="40.0728763" lon="-105.2308623">
  <ele>1595.57</ele>
  <time>2026-08-28T19:11:24Z</time>
  <course>54.4</course>
  <speed>0.02</speed>
  <fix>3d</fix>
</trkpt>
<trkpt lat="40.0728765" lon="-105.2308623">
  <ele>1595.48</ele>
  <time>2026-08-28T19:11:24Z</time>
  <course>11.43</course>
  <speed>0.04</speed>
  <fix>3d</fix>
</trkpt>
<trkpt lat="40.0728764" lon="-105.2308623">
  <ele>1595.58</ele>
  <time>2026-08-28T19:11:24Z</time>
  <course>55.87</course>
  <speed>0.01</speed>
  <fix>3d</fix>
</trkpt>
<trkpt lat="40.0728766" lon="-105.2308623">
  <ele>1595.48</ele>
  <time>2026-08-28T19:11:24Z</time>
  <course>11.37</course>
  <speed>0.04</speed>
  <fix>3d</fix>
</trkpt>
<trkpt lat="40.0728765" lon="-105.2308623">
  <ele>1595.58</ele>
  <time>2026-08-28T19:11:24Z</time>
  <course>57.2</course>
  <speed>0.01</speed>
  <fix>3d</fix>
</trkpt>
<trkpt lat="40.0728766" lon="-105.2308623">
  <ele>1595.48</ele>
  <time>2026-08-28T19:11:24Z</time>
  <course>11.54</course>
  <speed>0.04</speed>
  <fix>3d</fix>
</trkpt>
<trkpt lat="40.0728766" lon="-105.2308622">
  <ele>1595.57</ele>
  <time>2026-08-28T19:11:24Z</time>
  <course>58.17</course>
  <speed>0.01414213562373095</speed>
  <fix>3d</fix>
</trkpt>
<trkpt lat="40.0728767" lon="-105.2308622">
  <ele>1595.48</ele>
  <time>2026-08-28T19:11:24Z</time>
  <course>12.73</course>
  <speed>0.04</speed>
  <fix>3d</fix>
</trkpt>
<trkpt lat="40.0728766" lon="-105.2308622">
  <ele>1595.57</ele>
  <time>2026-08-28T19:11:24Z</time>
  <course>58.73</course>
  <speed>0.01414213562373095</speed>
  <fix>3d</fix>
</trkpt>
<trkpt lat="40.0728768" lon="-105.2308621">
  <ele>1595.47</ele>
  <time>2026-08-28T19:11:24Z</time>
  <course>15.37</course>
  <speed>0.03</speed>
  <fix>3d</fix>
</trkpt>
<trkpt lat="40.0728767" lon="-105.2308622">
  <ele>1595.57</ele>
  <time>2026-08-28T19:11:24Z</time>
  <course>58.82</course>
  <speed>0.01</speed>
  <fix>3d</fix>
</trkpt>
<trkpt lat="40.0728769" lon="-105.2308621">
  <ele>1595.47</ele>
  <time>2026-08-28T19:11:24Z</time>
  <course>19.04</course>
  <speed>0.03</speed>
  <fix>3d</fix>
</trkpt>
<trkpt lat="40.0728767" lon="-105.2308621">
  <ele>1595.57</ele>
  <time>2026-08-28T19:11:24Z</time>
  <course>58.43</course>
  <speed>0.01</speed>
  <fix>3d</fix>
</trkpt>
<trkpt lat="40.0728769" lon="-105.2308621">
  <ele>1595.47</ele>
  <time>2026-08-28T19:11:24Z</time>
  <course>23.26</course>
  <speed>0.03</speed>
  <fix>3d</fix>
</trkpt>
<trkpt lat="40.0728768" lon="-105.2308621">
  <ele>1595.57</ele>
  <time>2026-08-28T19:11:24Z</time>
  <course>57.62</course>
  <speed>0.01</speed>
  <fix>3d</fix>
</trkpt>
<trkpt lat="40.072877" lon="-105.2308621">
  <ele>1595.47</ele>
  <time>2026-08-28T19:11:24Z</time>
  <course>27.24</course>
  <speed>0.03</speed>
  <fix>3d</fix>
</trkpt>
<trkpt lat="40.0728768" lon="-105.2308621">
  <ele>1595.57</ele>
  <time>2026-08-28T19:11:24Z</time>
  <course>56.41</course>
  <speed>0.02</speed>
  <fix>3d</fix>
</trkpt>
<trkpt lat="40.0728771" lon="-105.2308621">
  <ele>1595.47</ele>
  <time>2026-08-28T19:11:24Z</time>
  <course>30.62</course>
  <speed>0.03</speed>
  <fix>3d</fix>
</trkpt>
<trkpt lat="40.0728769" lon="-105.230862">
  <ele>1595.56</ele>
  <time>2026-08-28T19:11:24Z</time>
  <course>54.97</course>
  <speed>0.02</speed>
  <fix>3d</fix>
</trkpt>
<trkpt lat="40.0728771" lon="-105.230862">
  <ele>1595.47</ele>
  <time>2026-08-28T19:11:24Z</time>
  <course>32.93</course>
  <speed>0.03</speed>
  <fix>3d</fix>
</trkpt>
<trkpt lat="40.072877" lon="-105.230862">
  <ele>1595.57</ele>
  <time>2026-08-28T19:11:24Z</time>
  <course>53.46</course>
  <speed>0.02</speed>
  <fix>3d</fix>
</trkpt>
<trkpt lat="40.0728772" lon="-105.230862">
  <ele>1595.47</ele>
  <time>2026-08-28T19:11:24Z</time>
  <course>33.49</course>
  <speed>0.03</speed>
  <fix>3d</fix>
</trkpt>
<trkpt lat="40.072877" lon="-105.2308619">
  <ele>1595.56</ele>
  <time>2026-08-28T19:11:24Z</time>
  <course>52.01</course>
  <speed>0.022360679774997897</speed>
  <fix>3d</fix>
</trkpt>
<trkpt lat="40.0728772" lon="-105.2308619">
  <ele>1595.47</ele>
  <time>2026-08-28T19:11:24Z</time>
  <course>32.38</course>
  <speed>0.03</speed>
  <fix>3d</fix>
</trkpt>
<trkpt lat="40.0728771" lon="-105.2308619">
  <ele>1595.57</ele>
  <time>2026-08-28T19:11:24Z</time>
  <course>50.71</course>
  <speed>0.022360679774997897</speed>
  <fix>3d</fix>
</trkpt>
<trkpt lat="40.0728772" lon="-105.2308618">
  <ele>1595.47</ele>
  <time>2026-08-28T19:11:24Z</time>
  <course>30.06</course>
  <speed>0.04</speed>
  <fix>3d</fix>
</trkpt>
<trkpt lat="40.0728772" lon="-105.2308618">
  <ele>1595.57</ele>
  <time>2026-08-28T19:11:24Z</time>
  <course>49.73</course>
  <speed>0.01414213562373095</speed>
  <fix>3d</fix>
</trkpt>
<trkpt lat="40.0728773" lon="-105.2308618">
  <ele>1595.47</ele>
  <time>2026-08-28T19:11:24Z</time>
  <course>26.71</course>
  <speed>0.04</speed>
  <fix>3d</fix>
</trkpt>
<trkpt lat="40.0728772" lon="-105.2308618">
  <ele>1595.57</ele>
  <time>2026-08-28T19:11:24Z</time>
  <course>49.14</course>
  <speed>0.01414213562373095</speed>
  <fix>3d</fix>
</trkpt>
<trkpt lat="40.0728774" lon="-105.2308618">
  <ele>1595.47</ele>
  <time>2026-08-28T19:11:24Z</time>
  <course>23.2</course>
  <speed>0.04</speed>
  <fix>3d</fix>
</trkpt>
<trkpt lat="40.0728773" lon="-105.2308618">
  <ele>1595.57</ele>
  <time>2026-08-28T19:11:24Z</time>
  <course>49.07</course>
  <speed>0.01414213562373095</speed>
  <fix>3d</fix>
</trkpt>
<trkpt lat="40.0728775" lon="-105.2308618">
  <ele>1595.47</ele>
  <time>2026-08-28T19:11:24Z</time>
  <course>19.95</course>
  <speed>0.04</speed>
  <fix>3d</fix>
</trkpt>
<trkpt lat="40.0728774" lon="-105.2308617">
  <ele>1595.57</ele>
  <time>2026-08-28T19:11:24Z</time>
  <course>49.45</course>
  <speed>0.022360679774997897</speed>
  <fix>3d</fix>
</trkpt>
<trkpt lat="40.0728776" lon="-105.2308617">
  <ele>1595.47</ele>
  <time>2026-08-28T19:11:24Z</time>
  <course>16.83</course>
  <speed>0.04</speed>
  <fix>3d</fix>
</trkpt>
<trkpt lat="40.0728775" lon="-105.2308617">
  <ele>1595.57</ele>
  <time>2026-08-28T19:11:24Z</time>
  <course>50.28</course>
  <speed>0.02</speed>
  <fix>3d</fix>
</trkpt>
<trkpt lat="40.0728776" lon="-105.2308616">
  <ele>1595.47</ele>
  <time>2026-08-28T19:11:24Z</time>
  <course>14.01</course>
  <speed>0.04</speed>
  <fix>3d</fix>
</trkpt>
<trkpt lat="40.0728775" lon="-105.2308617">
  <ele>1595.57</ele>
  <time>2026-08-28T19:11:24Z</time>
  <course>51.48</course>
  <speed>0.02</speed>
  <fix>3d</fix>
</trkpt>
<trkpt lat="40.0728777" lon="-105.2308616">
  <ele>1595.47</ele>
  <time>2026-08-28T19:11:24Z</time>
  <course>11.39</course>
  <speed>0.04</speed>
  <fix>3d</fix>
</trkpt>
<trkpt lat="40.0728776" lon="-105.2308617">
  <ele>1595.57</ele>
  <time>2026-08-28T19:11:24Z</time>
  <course>52.91</course>
  <speed>0.02</speed>
  <fix>3d</fix>
</trkpt>
<trkpt lat="40.0728778" lon="-105.2308616">
  <ele>1595.46</ele>
  <time>2026-08-28T19:11:24Z</time>
  <course>9.37</course>
  <speed>0.04</speed>
  <fix>3d</fix>
</trkpt>
<trkpt lat="40.0728777" lon="-105.2308616">
  <ele>1595.57</ele>
  <time>2026-08-28T19:11:24Z</time>
  <course>54.4</course>
  <speed>0.01</speed>
  <fix>3d</fix>
</trkpt>
<trkpt lat="40.0728779" lon="-105.2308616">
  <ele>1595.46</ele>
  <time>2026-08-28T19:11:24Z</time>
  <course>8.26</course>
  <speed>0.04</speed>
  <fix>3d</fix>
</trkpt>
<trkpt lat="40.0728778" lon="-105.2308616">
  <ele>1595.57</ele>
  <time>2026-08-28T19:11:24Z</time>
  <course>55.88</course>
  <speed>0.01</speed>
  <fix>3d</fix>
</trkpt>
<trkpt lat="40.0728779" lon="-105.2308616">
  <ele>1595.46</ele>
  <time>2026-08-28T19:11:24Z</time>
  <course>8.03</course>
  <speed>0.04</speed>
  <fix>3d</fix>
</trkpt>
<trkpt lat="40.0728778" lon="-105.2308616">
  <ele>1595.57</ele>
  <time>2026-08-28T19:11:24Z</time>
  <course>57.15</course>
  <speed>0.01</speed>
  <fix>3d</fix>
</trkpt>
<trkpt lat="40.072878" lon="-105.2308616">
  <ele>1595.46</ele>
  <time>2026-08-28T19:11:24Z</time>
  <course>8.8</course>
  <speed>0.03</speed>
  <fix>3d</fix>
</trkpt>
<trkpt lat="40.0728779" lon="-105.2308616">
  <ele>1595.57</ele>
  <time>2026-08-28T19:11:24Z</time>
  <course>58.14</course>
  <speed>0.01</speed>
  <fix>3d</fix>
</trkpt>
<trkpt lat="40.072878" lon="-105.2308616">
  <ele>1595.46</ele>
  <time>2026-08-28T19:11:24Z</time>
  <course>10.92</course>
  <speed>0.03</speed>
  <fix>3d</fix>
</trkpt>
<trkpt lat="40.072878" lon="-105.2308616">
  <ele>1595.57</ele>
  <time>2026-08-28T19:11:24Z</time>
  <course>58.72</course>
  <speed>0.01414213562373095</speed>
  <fix>3d</fix>
</trkpt>
<trkpt lat="40.0728781" lon="-105.2308616">
  <ele>1595.46</ele>
  <time>2026-08-28T19:11:24Z</time>
  <course>14.45</course>
  <speed>0.03</speed>
  <fix>3d</fix>
</trkpt>
<trkpt lat="40.072878" lon="-105.2308615">
  <ele>1595.57</ele>
  <time>2026-08-28T19:11:24Z</time>
  <course>58.81</course>
  <speed>0.01</speed>
  <fix>3d</fix>
</trkpt>
<trkpt lat="40.0728782" lon="-105.2308616">
  <ele>1595.46</ele>
  <time>2026-08-28T19:11:24Z</time>
  <course>19.07</course>
  <speed>0.03</speed>
  <fix>3d</fix>
</trkpt>
<trkpt lat="40.0728781" lon="-105.2308615">
  <ele>1595.57</ele>
  <time>2026-08-28T19:11:24Z</time>
  <course>58.44</course>
  <speed>0.01</speed>
  <fix>3d</fix>
</trkpt>
<trkpt lat="40.0728783" lon="-105.2308615">
  <ele>1595.46</ele>
  <time>2026-08-28T19:11:24Z</time>
  <course>24.21</course>
  <speed>0.03</speed>
  <fix>3d</fix>
</trkpt>
<trkpt lat="40.0728781" lon="-105.2308615">
  <ele>1595.57</ele>
  <time>2026-08-28T19:11:24Z</time>
  <course>57.62</course>
  <speed>0.01</speed>
  <fix>3d</fix>
</trkpt>
<trkpt lat="40.0728783" lon="-105.2308614">
  <ele>1595.46</ele>
  <time>2026-08-28T19:11:24Z</time>
  <course>29.35</course>
  <speed>0.03</speed>
  <fix>3d</fix>
</trkpt>
<trkpt lat="40.0728782" lon="-105.2308614">
  <ele>1595.57</ele>
  <time>2026-08-28T19:11:24Z</time>
  <course>56.4</course>
  <speed>0.02</speed>
  <fix>3d</fix>
</trkpt>
<trkpt lat="40.0728784" lon="-105.2308614">
  <ele>1595.46</ele>
  <time>2026-08-28T19:11:24Z</time>
  <course>33.33</course>
  <speed>0.03</speed>
  <fix>3d</fix>
</trkpt>
<trkpt lat="40.0728782" lon="-105.2308614">
  <ele>1595.57</ele>
  <time>2026-08-28T19:11:24Z</time>
  <course>55.0</course>
  <speed>0.02</speed>
  <fix>3d</fix>
</trkpt>
<trkpt lat="40.0728784" lon="-105.2308614">
  <ele>1595.46</ele>
  <time>2026-08-28T19:11:24Z</time>
  <course>35.16</course>
  <speed>0.03</speed>
  <fix>3d</fix>
</trkpt>
<trkpt lat="40.0728783" lon="-105.2308613">
  <ele>1595.57</ele>
  <time>2026-08-28T19:11:24Z</time>
  <course>53.48</course>
  <speed>0.02</speed>
  <fix>3d</fix>
</trkpt>
<trkpt lat="40.0728785" lon="-105.2308614">
  <ele>1595.46</ele>
  <time>2026-08-28T19:11:24Z</time>
  <course>35.65</course>
  <speed>0.03</speed>
  <fix>3d</fix>
</trkpt>
<trkpt lat="40.0728783" lon="-105.2308613">
  <ele>1595.57</ele>
  <time>2026-08-28T19:11:24Z</time>
  <course>51.98</course>
  <speed>0.022360679774997897</speed>
  <fix>3d</fix>
</trkpt>
<trkpt lat="40.0728785" lon="-105.2308613">
  <ele>1595.46</ele>
  <time>2026-08-28T19:11:24Z</time>
  <course>35.12</course>
  <speed>0.03</speed>
  <fix>3d</fix>
</trkpt>
<trkpt lat="40.0728784" lon="-105.2308612">
  <ele>1595.57</ele>
  <time>2026-08-28T19:11:24Z</time>
  <course>50.71</course>
  <speed>0.022360679774997897</speed>
  <fix>3d</fix>
</trkpt>
<trkpt lat="40.0728786" lon="-105.2308613">
  <ele>1595.46</ele>
  <time>2026-08-28T19:11:24Z</time>
  <course>32.95</course>
  <speed>0.04</speed>
  <fix>3d</fix>
</trkpt>
<trkpt lat="40.0728785" lon="-105.2308612">
  <ele>1595.56</ele>
  <time>2026-08-28T19:11:24Z</time>
  <course>49.75</course>
  <speed>0.01414213562373095</speed>
  <fix>3d</fix>
</trkpt>
<trkpt lat="40.0728786" lon="-105.2308612">
  <ele>1595.46</ele>
  <time>2026-08-28T19:11:24Z</time>
  <course>29.66</course>
  <speed>0.04</speed>
  <fix>3d</fix>
</trkpt>
<trkpt lat="40.0728785" lon="-105.2308611">
  <ele>1595.56</ele>
  <time>2026-08-28T19:11:24Z</time>
  <course>49.15</course>
  <speed>0.01414213562373095</speed>
  <fix>3d</fix>
</trkpt>
<trkpt lat="40.0728787" lon="-105.2308611">
  <ele>1595.46</ele>
  <time>2026-08-28T19:11:24Z</time>
  <course>26.38</course>
  <speed>0.04</speed>
  <fix>3d</fix>
</trkpt>
<trkpt lat="40.0728786" lon="-105.2308611">
  <ele>1595.56</ele>
  <time>2026-08-28T19:11:24Z</time>
  <course>49.05</course>
  <speed>0.01414213562373095</speed>
  <fix>3d</fix>
</trkpt>
<trkpt lat="40.0728788" lon="-105.2308611">
  <ele>1595.46</ele>
  <time>2026-08-28T19:11:24Z</time>
  <course>23.08</course>
  <speed>0.04</speed>
  <fix>3d</fix>
</trkpt>
<trkpt lat="40.0728787" lon="-105.2308611">
  <ele>1595.56</ele>
  <time>2026-08-28T19:11:24Z</time>
  <course>49.43</course>
  <speed>0.01414213562373095</speed>
  <fix>3d</fix>
</trkpt>
<trkpt lat="40.0728789" lon="-105.2308611">
  <ele>1595.46</ele>
  <time>2026-08-28T19:11:24Z</time>
  <course>19.92</course>
  <speed>0.04</speed>
  <fix>3d</fix>
</trkpt>
<trkpt lat="40.0728788" lon="-105.230861">
  <ele>1595.56</ele>
  <time>2026-08-28T19:11:24Z</time>
  <course>50.22</course>
  <speed>0.022360679774997897</speed>
  <fix>3d</fix>
</trkpt>
<trkpt lat="40.0728789" lon="-105.230861">
  <ele>1595.46</ele>
  <time>2026-08-28T19:11:24Z</time>
  <course>17.42</course>
  <speed>0.04</speed>
  <fix>3d</fix>
</trkpt>
<trkpt lat="40.0728788" lon="-105.230861">
  <ele>1595.56</ele>
  <time>2026-08-28T19:11:24Z</time>
  <course>51.41</course>
  <speed>0.022360679774997897</speed>
  <fix>3d</fix>
</trkpt>
<trkpt lat="40.072879" lon="-105.2308609">
  <ele>1595.46</ele>
  <time>2026-08-28T19:11:24Z</time>
  <course>15.43</course>
  <speed>0.04</speed>
  <fix>3d</fix>
</trkpt>
<trkpt lat="40.0728789" lon="-105.230861">
  <ele>1595.56</ele>
  <time>2026-08-28T19:11:24Z</time>
  <course>52.82</course>
  <speed>0.02</speed>
  <fix>3d</fix>
</trkpt>
<trkpt lat="40.0728791" lon="-105.2308609">
  <ele>1595.46</ele>
  <time>2026-08-28T19:11:24Z</time>
  <course>13.53</course>
  <speed>0.04</speed>
  <fix>3d</fix>
</trkpt>
<trkpt lat="40.072879" lon="-105.230861">
  <ele>1595.57</ele>
  <time>2026-08-28T19:11:24Z</time>
  <course>54.38</course>
  <speed>0.02</speed>
  <fix>3d</fix>
</trkpt>
<trkpt lat="40.0728792" lon="-105.2308609">
  <ele>1595.46</ele>
  <time>2026-08-28T19:11:24Z</time>
  <course>11.89</course>
  <speed>0.04</speed>
  <fix>3d</fix>
</trkpt>
<trkpt lat="40.0728791" lon="-105.2308609">
  <ele>1595.57</ele>
  <time>2026-08-28T19:11:24Z</time>
  <course>55.85</course>
  <speed>0.01</speed>
  <fix>3d</fix>
</trkpt>
<trkpt lat="40.0728792" lon="-105.2308609">
  <ele>1595.46</ele>
  <time>2026-08-28T19:11:24Z</time>
  <course>11.44</course>
  <speed>0.04</speed>
  <fix>3d</fix>
</trkpt>
<trkpt lat="40.0728791" lon="-105.2308609">
  <ele>1595.56</ele>
  <time>2026-08-28T19:11:24Z</time>
  <course>57.16</course>
  <speed>0.01414213562373095</speed>
  <fix>3d</fix>
</trkpt>
<trkpt lat="40.0728793" lon="-105.2308609">
  <ele>1595.46</ele>
  <time>2026-08-28T19:11:24Z</time>
  <course>12.29</course>
  <speed>0.04</speed>
  <fix>3d</fix>
</trkpt>
<trkpt lat="40.0728792" lon="-105.2308609">
  <ele>1595.56</ele>
  <time>2026-08-28T19:11:25Z</time>
  <course>58.15</course>
  <speed>0.01414213562373095</speed>
  <fix>3d</fix>
</trkpt>
<trkpt lat="40.0728794" lon="-105.2308609">
  <ele>1595.47</ele>
  <time>2026-08-28T19:11:25Z</time>
  <course>14.27</course>
  <speed>0.03</speed>
  <fix>3d</fix>
</trkpt>
<trkpt lat="40.0728793" lon="-105.2308609">
  <ele>1595.56</ele>
  <time>2026-08-28T19:11:25Z</time>
  <course>58.69</course>
  <speed>0.01414213562373095</speed>
  <fix>3d</fix>
</trkpt>
<trkpt lat="40.0728795" lon="-105.2308609">
  <ele>1595.47</ele>
  <time>2026-08-28T19:11:25Z</time>
  <course>17.72</course>
  <speed>0.03</speed>
  <fix>3d</fix>
</trkpt>
<trkpt lat="40.0728793" lon="-105.2308608">
  <ele>1595.56</ele>
  <time>2026-08-28T19:11:25Z</time>
  <course>58.8</course>
  <speed>0.01</speed>
  <fix>3d</fix>
</trkpt>
<trkpt lat="40.0728795" lon="-105.2308609">
  <ele>1595.47</ele>
  <time>2026-08-28T19:11:25Z</time>
  <course>21.5</course>
  <speed>0.03</speed>
  <fix>3d</fix>
</trkpt>
<trkpt lat="40.0728794" lon="-105.2308608">
  <ele>1595.56</ele>
  <time>2026-08-28T19:11:25Z</time>
  <course>58.4</course>
  <speed>0.01</speed>
  <fix>3d</fix>
</trkpt>
<trkpt lat="40.0728796" lon="-105.2308608">
  <ele>1595.47</ele>
  <time>2026-08-28T19:11:25Z</time>
  <course>25.07</course>
  <speed>0.03</speed>
  <fix>3d</fix>
</trkpt>
<trkpt lat="40.0728795" lon="-105.2308608">
  <ele>1595.56</ele>
  <time>2026-08-28T19:11:25Z</time>
  <course>57.58</course>
  <speed>0.01</speed>
  <fix>3d</fix>
</trkpt>
<trkpt lat="40.0728797" lon="-105.2308608">
  <ele>1595.47</ele>
  <time>2026-08-28T19:11:25Z</time>
  <course>28.77</course>
  <speed>0.03</speed>
  <fix>3d</fix>
</trkpt>
<trkpt lat="40.0728795" lon="-105.2308607">
  <ele>1595.57</ele>
  <time>2026-08-28T19:11:25Z</time>
  <course>56.38</course>
  <speed>0.02</speed>
  <fix>3d</fix>
</trkpt>
<trkpt lat="40.0728797" lon="-105.2308607">
  <ele>1595.47</ele>
  <time>2026-08-28T19:11:25Z</time>
  <course>31.88</course>
  <speed>0.03</speed>
  <fix>3d</fix>
</trkpt>
<trkpt lat="40.0728796" lon="-105.2308607">
  <ele>1595.57</ele>
  <time>2026-08-28T19:11:25Z</time>
  <course>55.0</course>
  <speed>0.02</speed>
  <fix>3d</fix>
</trkpt>
<trkpt lat="40.0728797" lon="-105.2308606">
  <ele>1595.47</ele>
  <time>2026-08-28T19:11:25Z</time>
  <course>33.46</course>
  <speed>0.03</speed>
  <fix>3d</fix>
</trkpt>
<trkpt lat="40.0728796" lon="-105.2308606">
  <ele>1595.57</ele>
  <time>2026-08-28T19:11:25Z</time>
  <course>53.46</course>
  <speed>0.02</speed>
  <fix>3d</fix>
</trkpt>
<trkpt lat="40.0728798" lon="-105.2308606">
  <ele>1595.48</ele>
  <time>2026-08-28T19:11:25Z</time>
  <course>33.22</course>
  <speed>0.03</speed>
  <fix>3d</fix>
</trkpt>
<trkpt lat="40.0728797" lon="-105.2308606">
  <ele>1595.57</ele>
  <time>2026-08-28T19:11:25Z</time>
  <course>52.01</course>
  <speed>0.022360679774997897</speed>
  <fix>3d</fix>
</trkpt>
<trkpt lat="40.0728798" lon="-105.2308606">
  <ele>1595.48</ele>
  <time>2026-08-28T19:11:25Z</time>
  <course>32.2</course>
  <speed>0.03</speed>
  <fix>3d</fix>
</trkpt>
<trkpt lat="40.0728797" lon="-105.2308605">
  <ele>1595.57</ele>
  <time>2026-08-28T19:11:25Z</time>
  <course>50.71</course>
  <speed>0.022360679774997897</speed>
  <fix>3d</fix>
</trkpt>
<trkpt lat="40.0728799" lon="-105.2308605">
  <ele>1595.48</ele>
  <time>2026-08-28T19:11:25Z</time>
  <course>30.77</course>
  <speed>0.04</speed>
  <fix>3d</fix>
</trkpt>
<trkpt lat="40.0728798" lon="-105.2308605">
  <ele>1595.58</ele>
  <time>2026-08-28T19:11:25Z</time>
  <course>49.72</course>
  <speed>0.01414213562373095</speed>
  <fix>3d</fix>
</trkpt>
<trkpt lat="40.07288" lon="-105.2308604">
  <ele>1595.48</ele>
  <time>2026-08-28T19:11:25Z</time>
  <course>28.28</course>
  <speed>0.04</speed>
  <fix>3d</fix>
</trkpt>
<trkpt lat="40.0728799" lon="-105.2308604">
  <ele>1595.57</ele>
  <time>2026-08-28T19:11:25Z</time>
  <course>49.18</course>
  <speed>0.01414213562373095</speed>
  <fix>3d</fix>
</trkpt>
<trkpt lat="40.0728801" lon="-105.2308604">
  <ele>1595.48</ele>
  <time>2026-08-28T19:11:25Z</time>
  <course>24.6</course>
  <speed>0.04</speed>
  <fix>3d</fix>
</trkpt>
<trkpt lat="40.07288" lon="-105.2308604">
  <ele>1595.57</ele>
  <time>2026-08-28T19:11:25Z</time>
  <course>49.03</course>
  <speed>0.01414213562373095</speed>
  <fix>3d</fix>
</trkpt>
<trkpt lat="40.0728801" lon="-105.2308604">
  <ele>1595.48</ele>
  <time>2026-08-28T19:11:25Z</time>
  <course>21.37</course>
  <speed>0.04</speed>
  <fix>3d</fix>
</trkpt>
<trkpt lat="40.07288" lon="-105.2308603">
  <ele>1595.56</ele>
  <time>2026-08-28T19:11:25Z</time>
  <course>48.97</course>
  <speed>0.022360679774997897</speed>
  <fix>3d</fix>
</trkpt>
<trkpt lat="40.0728802" lon="-105.2308604">
  <ele>1595.48</ele>
  <time>2026-08-28T19:11:25Z</time>
  <course>20.73</course>
  <speed>0.04</speed>
  <fix>3d</fix>
</trkpt>
<trkpt lat="40.0728801" lon="-105.2308603">
  <ele>1595.56</ele>
  <time>2026-08-28T19:11:25Z</time>
  <course>48.95</course>
  <speed>0.0282842712474619</speed>
  <fix>3d</fix>
</trkpt>
<trkpt lat="40.0728803" lon="-105.2308603">
  <ele>1595.48</ele>
  <time>2026-08-28T19:11:25Z</time>
  <course>22.64</course>
  <speed>0.04</speed>
  <fix>3d</fix>
</trkpt>
<trkpt lat="40.0728802" lon="-105.2308603">
  <ele>1595.56</ele>
  <time>2026-08-28T19:11:25Z</time>
  <course>48.94</course>
  <speed>0.0282842712474619</speed>
  <fix>3d</fix>
</trkpt>
<trkpt lat="40.0728804" lon="-105.2308602">
  <ele>1595.48</ele>
  <time>2026-08-28T19:11:25Z</time>
  <course>24.67</course>
  <speed>0.05</speed>
  <fix>3d</fix>
</trkpt>
<trkpt lat="40.0728803" lon="-105.2308602">
  <ele>1595.56</ele>
  <time>2026-08-28T19:11:25Z</time>
  <course>48.94</course>
  <speed>0.0282842712474619</speed>
  <fix>3d</fix>
</trkpt>
<trkpt lat="40.0728804" lon="-105.2308602">
  <ele>1595.48</ele>
  <time>2026-08-28T19:11:25Z</time>
  <course>25.93</course>
  <speed>0.05</speed>
  <fix>3d</fix>
</trkpt>
<trkpt lat="40.0728804" lon="-105.2308601">
  <ele>1595.57</ele>
  <time>2026-08-28T19:11:25Z</time>
  <course>48.95</course>
  <speed>0.03605551275463989</speed>
  <fix>3d</fix>
</trkpt>
<trkpt lat="40.0728805" lon="-105.2308602">
  <ele>1595.48</ele>
  <time>2026-08-28T19:11:25Z</time>
  <course>26.67</course>
  <speed>0.05</speed>
  <fix>3d</fix>
</trkpt>
<trkpt lat="40.0728805" lon="-105.2308601">
  <ele>1595.58</ele>
  <time>2026-08-28T19:11:25Z</time>
  <course>48.96</course>
  <speed>0.03605551275463989</speed>
  <fix>3d</fix>
</trkpt>
<trkpt lat="40.0728806" lon="-105.2308601">
  <ele>1595.48</ele>
  <time>2026-08-28T19:11:25Z</time>
  <course>27.27</course>
  <speed>0.06</speed>
  <fix>3d</fix>
</trkpt>
<trkpt lat="40.0728806" lon="-105.23086">
  <ele>1595.58</ele>
  <time>2026-08-28T19:11:25Z</time>
  <course>48.96</course>
  <speed>0.04242640687119285</speed>
  <fix>3d</fix>
</trkpt>
<trkpt lat="40.0728807" lon="-105.23086">
  <ele>1595.48</ele>
  <time>2026-08-28T19:11:25Z</time>
  <course>28.07</course>
  <speed>0.06</speed>
  <fix>3d</fix>
</trkpt>
<trkpt lat="40.0728807" lon="-105.2308599">
  <ele>1595.58</ele>
  <time>2026-08-28T19:11:25Z</time>
  <course>48.97</course>
  <speed>0.04242640687119285</speed>
  <fix>3d</fix>
</trkpt>
<trkpt lat="40.0728808" lon="-105.2308599">
  <ele>1595.49</ele>
  <time>2026-08-28T19:11:25Z</time>
  <course>28.74</course>
  <speed>0.06</speed>
  <fix>3d</fix>
</trkpt>
<trkpt lat="40.0728808" lon="-105.2308598">
  <ele>1595.58</ele>
  <time>2026-08-28T19:11:25Z</time>
  <course>48.98</course>
  <speed>0.05</speed>
  <fix>3d</fix>
</trkpt>
<trkpt lat="40.0728809" lon="-105.2308599">
  <ele>1595.49</ele>
  <time>2026-08-28T19:11:25Z</time>
  <course>29.26</course>
  <speed>0.07</speed>
  <fix>3d</fix>
</trkpt>
<trkpt lat="40.0728809" lon="-105.2308598">
  <ele>1595.57</ele>
  <time>2026-08-28T19:11:25Z</time>
  <course>48.98</course>
  <speed>0.05</speed>
  <fix>3d</fix>
</trkpt>
<trkpt lat="40.0728811" lon="-105.2308598">
  <ele>1595.48</ele>
  <time>2026-08-28T19:11:25Z</time>
  <course>30.05</course>
  <speed>0.07</speed>
  <fix>3d</fix>
</trkpt>
<trkpt lat="40.072881" lon="-105.2308597">
  <ele>1595.58</ele>
  <time>2026-08-28T19:11:25Z</time>
  <course>48.97</course>
  <speed>0.0565685424949238</speed>
  <fix>3d</fix>
</trkpt>
<trkpt lat="40.0728812" lon="-105.2308597">
  <ele>1595.48</ele>
  <time>2026-08-28T19:11:25Z</time>
  <course>30.92</course>
  <speed>0.07</speed>
  <fix>3d</fix>
</trkpt>
<trkpt lat="40.0728812" lon="-105.2308596">
  <ele>1595.58</ele>
  <time>2026-08-28T19:11:25Z</time>
  <course>48.98</course>
  <speed>0.0565685424949238</speed>
  <fix>3d</fix>
</trkpt>
<trkpt lat="40.0728813" lon="-105.2308596">
  <ele>1595.48</ele>
  <time>2026-08-28T19:11:25Z</time>
  <course>31.58</course>
  <speed>0.08</speed>
  <fix>3d</fix>
</trkpt>
<trkpt lat="40.0728813" lon="-105.2308595">
  <ele>1595.58</ele>
  <time>2026-08-28T19:11:25Z</time>
  <course>48.98</course>
  <speed>0.06403124237432849</speed>
  <fix>3d</fix>
</trkpt>
<trkpt lat="40.0728814" lon="-105.2308595">
  <ele>1595.48</ele>
  <time>2026-08-28T19:11:25Z</time>
  <course>32.26</course>
  <speed>0.08</speed>
  <fix>3d</fix>
</trkpt>
<trkpt lat="40.0728814" lon="-105.2308593">
  <ele>1595.58</ele>
  <time>2026-08-28T19:11:25Z</time>
  <course>48.99</course>
  <speed>0.06403124237432849</speed>
  <fix>3d</fix>
</trkpt>
<trkpt lat="40.0728816" lon="-105.2308594">
  <ele>1595.48</ele>
  <time>2026-08-28T19:11:25Z</time>
  <course>32.88</course>
  <speed>0.08</speed>
  <fix>3d</fix>
</trkpt>
<trkpt lat="40.0728816" lon="-105.2308592">
  <ele>1595.57</ele>
  <time>2026-08-28T19:11:25Z</time>
  <course>48.99</course>
  <speed>0.07071067811865475</speed>
  <fix>3d</fix>
</trkpt>
<trkpt lat="40.0728817" lon="-105.2308592">
  <ele>1595.48</ele>
  <time>2026-08-28T19:11:25Z</time>
  <course>33.26</course>
  <speed>0.09</speed>
  <fix>3d</fix>
</trkpt>
<trkpt lat="40.0728817" lon="-105.2308591">
  <ele>1595.57</ele>
  <time>2026-08-28T19:11:25Z</time>
  <course>48.99</course>
  <speed>0.07071067811865475</speed>
  <fix>3d</fix>
</trkpt>
<trkpt lat="40.0728819" lon="-105.2308591">
  <ele>1595.48</ele>
  <time>2026-08-28T19:11:25Z</time>
  <course>33.65</course>
  <speed>0.09</speed>
  <fix>3d</fix>
</trkpt>
<trkpt lat="40.0728819" lon="-105.230859">
  <ele>1595.56</ele>
  <time>2026-08-28T19:11:25Z</time>
  <course>48.73</course>
  <speed>0.07071067811865475</speed>
  <fix>3d</fix>
</trkpt>
<trkpt lat="40.072882" lon="-105.230859">
  <ele>1595.48</ele>
  <time>2026-08-28T19:11:25Z</time>
  <course>34.67</course>
  <speed>0.09</speed>
  <fix>3d</fix>
</trkpt>
<trkpt lat="40.072882" lon="-105.2308588">
  <ele>1595.56</ele>
  <time>2026-08-28T19:11:25Z</time>
  <course>47.6</course>
  <speed>0.07071067811865475</speed>
  <fix>3d</fix>
</trkpt>
<trkpt lat="40.0728821" lon="-105.2308589">
  <ele>1595.47</ele>
  <time>2026-08-28T19:11:25Z</time>
  <course>36.5</course>
  <speed>0.09</speed>
  <fix>3d</fix>
</trkpt>
<trkpt lat="40.0728821" lon="-105.2308587">
  <ele>1595.56</ele>
  <time>2026-08-28T19:11:25Z</time>
  <course>46.27</course>
  <speed>0.07071067811865475</speed>
  <fix>3d</fix>
</trkpt>
<trkpt lat="40.0728822" lon="-105.2308587">
  <ele>1595.47</ele>
  <time>2026-08-28T19:11:25Z</time>
  <course>37.49</course>
  <speed>0.09</speed>
  <fix>3d</fix>
</trkpt>
<trkpt lat="40.0728823" lon="-105.2308586">
  <ele>1595.56</ele>
  <time>2026-08-28T19:11:25Z</time>
  <course>45.12</course>
  <speed>0.07071067811865475</speed>
  <fix>3d</fix>
</trkpt>
<trkpt lat="40.0728824" lon="-105.2308586">
  <ele>1595.47</ele>
  <time>2026-08-28T19:11:25Z</time>
  <course>36.72</course>
  <speed>0.09</speed>
  <fix>3d</fix>
</trkpt>
<trkpt lat="40.0728824" lon="-105.2308585">
  <ele>1595.56</ele>
  <time>2026-08-28T19:11:25Z</time>
  <course>44.36</course>
  <speed>0.0565685424949238</speed>
  <fix>3d</fix>
</trkpt>
<trkpt lat="40.0728825" lon="-105.2308585">
  <ele>1595.48</ele>
  <time>2026-08-28T19:11:25Z</time>
  <course>34.86</course>
  <speed>0.08</speed>
  <fix>3d</fix>
</trkpt>
<trkpt lat="40.0728825" lon="-105.2308584">
  <ele>1595.56</ele>
  <time>2026-08-28T19:11:25Z</time>
  <course>44.05</course>
  <speed>0.05</speed>
  <fix>3d</fix>
</trkpt>
<trkpt lat="40.0728826" lon="-105.2308584">
  <ele>1595.48</ele>
  <time>2026-08-28T19:11:25Z</time>
  <course>32.14</course>
  <speed>0.07</speed>
  <fix>3d</fix>
</trkpt>
<trkpt lat="40.0728826" lon="-105.2308583">
  <ele>1595.56</ele>
  <time>2026-08-28T19:11:25Z</time>
  <course>44.23</course>
  <speed>0.03605551275463989</speed>
  <fix>3d</fix>
</trkpt>
<trkpt lat="40.0728828" lon="-105.2308583">
  <ele>1595.48</ele>
  <time>2026-08-28T19:11:25Z</time>
  <course>28.63</course>
  <speed>0.06</speed>
  <fix>3d</fix>
</trkpt>
<trkpt lat="40.0728827" lon="-105.2308582">
  <ele>1595.56</ele>
  <time>2026-08-28T19:11:25Z</time>
  <course>44.86</course>
  <speed>0.0316227766016838</speed>
  <fix>3d</fix>
</trkpt>
<trkpt lat="40.0728829" lon="-105.2308582">
  <ele>1595.48</ele>
  <time>2026-08-28T19:11:25Z</time>
  <course>24.33</course>
  <speed>0.06</speed>
  <fix>3d</fix>
</trkpt>
<trkpt lat="40.0728828" lon="-105.2308582">
  <ele>1595.56</ele>
  <time>2026-08-28T19:11:25Z</time>
  <course>45.92</course>
  <speed>0.022360679774997897</speed>
  <fix>3d</fix>
</trkpt>
<trkpt lat="40.072883" lon="-105.2308582">
  <ele>1595.49</ele>
  <time>2026-08-28T19:11:25Z</time>
  <course>19.43</course>
  <speed>0.05</speed>
  <fix>3d</fix>
</trkpt>
<trkpt lat="40.0728829" lon="-105.2308582">
  <ele>1595.56</ele>
  <time>2026-08-28T19:11:25Z</time>
  <course>47.25</course>
  <speed>0.02</speed>
  <fix>3d</fix>
</trkpt>
<trkpt lat="40.0728831" lon="-105.2308582">
  <ele>1595.49</ele>
  <time>2026-08-28T19:11:25Z</time>
  <course>14.42</course>
  <speed>0.04</speed>
  <fix>3d</fix>
</trkpt>
<trkpt lat="40.072883" lon="-105.2308582">
  <ele>1595.57</ele>
  <time>2026-08-28T19:11:25Z</time>
  <course>48.73</course>
  <speed>0.01</speed>
  <fix>3d</fix>
</trkpt>
<trkpt lat="40.0728831" lon="-105.2308582">
  <ele>1595.49</ele>
  <time>2026-08-28T19:11:25Z</time>
  <course>10.29</course>
  <speed>0.04</speed>
  <fix>3d</fix>
</trkpt>
<trkpt lat="40.072883" lon="-105.2308581">
  <ele>1595.57</ele>
  <time>2026-08-28T19:11:25Z</time>
  <course>50.26</course>
  <speed>0.01</speed>
  <fix>3d</fix>
</trkpt>
<trkpt lat="40.0728832" lon="-105.2308581">
  <ele>1595.49</ele>
  <time>2026-08-28T19:11:25Z</time>
  <course>7.19</course>
  <speed>0.03</speed>
  <fix>3d</fix>
</trkpt>
<trkpt lat="40.0728831" lon="-105.2308581">
  <ele>1595.58</ele>
  <time>2026-08-28T19:11:25Z</time>
  <course>51.66</course>
  <speed>0.01</speed>
  <fix>3d</fix>
</trkpt>
<trkpt lat="40.0728833" lon="-105.230858">
  <ele>1595.5</ele>
  <time>2026-08-28T19:11:25Z</time>
  <course>5.02</course>
  <speed>0.03</speed>
  <fix>3d</fix>
</trkpt>
<trkpt lat="40.0728832" lon="-105.2308581">
  <ele>1595.58</ele>
  <time>2026-08-28T19:11:25Z</time>
  <course>52.82</course>
  <speed>0.01</speed>
  <fix>3d</fix>
</trkpt>
<trkpt lat="40.0728833" lon="-105.230858">
  <ele>1595.5</ele>
  <time>2026-08-28T19:11:25Z</time>
  <course>4.18</course>
  <speed>0.03</speed>
  <fix>3d</fix>
</trkpt>
<trkpt lat="40.0728832" lon="-105.2308581">
  <ele>1595.58</ele>
  <time>2026-08-28T19:11:25Z</time>
  <course>53.58</course>
  <speed>0.0</speed>
  <fix>3d</fix>
</trkpt>
<trkpt lat="40.0728834" lon="-105.230858">
  <ele>1595.5</ele>
  <time>2026-08-28T19:11:25Z</time>
  <course>5.44</course>
  <speed>0.03</speed>
  <fix>3d</fix>
</trkpt>
<trkpt lat="40.0728833" lon="-105.2308581">
  <ele>1595.58</ele>
  <time>2026-08-28T19:11:25Z</time>
  <course>53.89</course>
  <speed>0.0</speed>
  <fix>3d</fix>
</trkpt>
<trkpt lat="40.0728834" lon="-105.230858">
  <ele>1595.5</ele>
  <time>2026-08-28T19:11:25Z</time>
  <course>8.86</course>
  <speed>0.02</speed>
  <fix>3d</fix>
</trkpt>
<trkpt lat="40.0728833" lon="-105.2308581">
  <ele>1595.58</ele>
  <time>2026-08-28T19:11:25Z</time>
  <course>53.71</course>
  <speed>0.01</speed>
  <fix>3d</fix>
</trkpt>
<trkpt lat="40.0728835" lon="-105.230858">
  <ele>1595.5</ele>
  <time>2026-08-28T19:11:25Z</time>
  <course>14.03</course>
  <speed>0.02</speed>
  <fix>3d</fix>
</trkpt>
<trkpt lat="40.0728834" lon="-105.230858">
  <ele>1595.58</ele>
  <time>2026-08-28T19:11:25Z</time>
  <course>53.1</course>
  <speed>0.01</speed>
  <fix>3d</fix>
</trkpt>
<trkpt lat="40.0728836" lon="-105.230858">
  <ele>1595.49</ele>
  <time>2026-08-28T19:11:25Z</time>
  <course>19.6</course>
  <speed>0.02</speed>
  <fix>3d</fix>
</trkpt>
<trkpt lat="40.0728834" lon="-105.230858">
  <ele>1595.58</ele>
  <time>2026-08-28T19:11:25Z</time>
  <course>52.06</course>
  <speed>0.01</speed>
  <fix>3d</fix>
</trkpt>
<trkpt lat="40.0728836" lon="-105.230858">
  <ele>1595.49</ele>
  <time>2026-08-28T19:11:25Z</time>
  <course>23.78</course>
  <speed>0.03</speed>
  <fix>3d</fix>
</trkpt>
<trkpt lat="40.0728835" lon="-105.2308579">
  <ele>1595.57</ele>
  <time>2026-08-28T19:11:25Z</time>
  <course>50.73</course>
  <speed>0.01</speed>
  <fix>3d</fix>
</trkpt>
<trkpt lat="40.0728837" lon="-105.230858">
  <ele>1595.49</ele>
  <time>2026-08-28T19:11:25Z</time>
  <course>26.46</course>
  <speed>0.03</speed>
  <fix>3d</fix>
</trkpt>
<trkpt lat="40.0728835" lon="-105.2308579">
  <ele>1595.57</ele>
  <time>2026-08-28T19:11:25Z</time>
  <course>49.26</course>
  <speed>0.02</speed>
  <fix>3d</fix>
</trkpt>
<trkpt lat="40.0728837" lon="-105.230858">
  <ele>1595.49</ele>
  <time>2026-08-28T19:11:25Z</time>
  <course>27.49</course>
  <speed>0.03</speed>
  <fix>3d</fix>
</trkpt>
<trkpt lat="40.0728836" lon="-105.2308579">
  <ele>1595.57</ele>
  <time>2026-08-28T19:11:25Z</time>
  <course>47.71</course>
  <speed>0.022360679774997897</speed>
  <fix>3d</fix>
</trkpt>
<trkpt lat="40.0728838" lon="-105.2308579">
  <ele>1595.49</ele>
  <time>2026-08-28T19:11:25Z</time>
  <course>27.19</course>
  <speed>0.03</speed>
  <fix>3d</fix>
</trkpt>
<trkpt lat="40.0728837" lon="-105.2308578">
  <ele>1595.57</ele>
  <time>2026-08-28T19:11:25Z</time>
  <course>46.3</course>
  <speed>0.01414213562373095</speed>
  <fix>3d</fix>
</trkpt>
<trkpt lat="40.0728838" lon="-105.2308578">
  <ele>1595.49</ele>
  <time>2026-08-28T19:11:25Z</time>
  <course>25.49</course>
  <speed>0.03</speed>
  <fix>3d</fix>
</trkpt>
<trkpt lat="40.0728837" lon="-105.2308578">
  <ele>1595.58</ele>
  <time>2026-08-28T19:11:25Z</time>
  <course>45.17</course>
  <speed>0.01414213562373095</speed>
  <fix>3d</fix>
</trkpt>
<trkpt lat="40.0728839" lon="-105.2308578">
  <ele>1595.49</ele>
  <time>2026-08-28T19:11:25Z</time>
  <course>22.86</course>
  <speed>0.04</speed>
  <fix>3d</fix>
</trkpt>
<trkpt lat="40.0728838" lon="-105.2308578">
  <ele>1595.58</ele>
  <time>2026-08-28T19:11:25Z</time>
  <course>44.41</course>
  <speed>0.01414213562373095</speed>
  <fix>3d</fix>
</trkpt>
<trkpt lat="40.0728839" lon="-105.2308578">
  <ele>1595.49</ele>
  <time>2026-08-28T19:11:25Z</time>
  <course>19.51</course>
  <speed>0.04</speed>
  <fix>3d</fix>
</trkpt>
<trkpt lat="40.0728839" lon="-105.2308577">
  <ele>1595.58</ele>
  <time>2026-08-28T19:11:25Z</time>
  <course>44.11</course>
  <speed>0.022360679774997897</speed>
  <fix>3d</fix>
</trkpt>
<trkpt lat="40.072884" lon="-105.2308578">
  <ele>1595.48</ele>
  <time>2026-08-28T19:11:25Z</time>
  <course>15.98</course>
  <speed>0.04</speed>
  <fix>3d</fix>
</trkpt>
<trkpt lat="40.0728839" lon="-105.2308577">
  <ele>1595.58</ele>
  <time>2026-08-28T19:11:25Z</time>
  <course>44.28</course>
  <speed>0.022360679774997897</speed>
  <fix>3d</fix>
</trkpt>
<trkpt lat="40.0728841" lon="-105.2308578">
  <ele>1595.48</ele>
  <time>2026-08-28T19:11:25Z</time>
  <course>13.09</course>
  <speed>0.04</speed>
  <fix>3d</fix>
</trkpt>
<trkpt lat="40.072884" lon="-105.2308577">
  <ele>1595.57</ele>
  <time>2026-08-28T19:11:25Z</time>
  <course>44.9</course>
  <speed>0.02</speed>
  <fix>3d</fix>
</trkpt>
<trkpt lat="40.0728842" lon="-105.2308578">
  <ele>1595.48</ele>
  <time>2026-08-28T19:11:25Z</time>
  <course>10.54</course>
  <speed>0.04</speed>
  <fix>3d</fix>
</trkpt>
<trkpt lat="40.0728841" lon="-105.2308577">
  <ele>1595.57</ele>
  <time>2026-08-28T19:11:25Z</time>
  <course>45.95</course>
  <speed>0.02</speed>
  <fix>3d</fix>
</trkpt>
<trkpt lat="40.0728843" lon="-105.2308577">
  <ele>1595.48</ele>
  <time>2026-08-28T19:11:25Z</time>
  <course>8.17</course>
  <speed>0.04</speed>
  <fix>3d</fix>
</trkpt>
<trkpt lat="40.0728842" lon="-105.2308577">
  <ele>1595.57</ele>
  <time>2026-08-28T19:11:25Z</time>
  <course>47.26</course>
  <speed>0.02</speed>
  <fix>3d</fix>
</trkpt>
<trkpt lat="40.0728843" lon="-105.2308577">
  <ele>1595.48</ele>
  <time>2026-08-28T19:11:25Z</time>
  <course>6.53</course>
  <speed>0.04</speed>
  <fix>3d</fix>
</trkpt>
<trkpt lat="40.0728843" lon="-105.2308577">
  <ele>1595.56</ele>
  <time>2026-08-28T19:11:25Z</time>
  <course>48.77</course>
  <speed>0.02</speed>
  <fix>3d</fix>
</trkpt>
<trkpt lat="40.0728844" lon="-105.2308577">
  <ele>1595.48</ele>
  <time>2026-08-28T19:11:25Z</time>
  <course>5.9</course>
  <speed>0.04</speed>
  <fix>3d</fix>
</trkpt>
<trkpt lat="40.0728843" lon="-105.2308577">
  <ele>1595.56</ele>
  <time>2026-08-28T19:11:25Z</time>
  <course>50.27</course>
  <speed>0.01</speed>
  <fix>3d</fix>
</trkpt>
<trkpt lat="40.0728845" lon="-105.2308577">
  <ele>1595.48</ele>
  <time>2026-08-28T19:11:25Z</time>
  <course>6.42</course>
  <speed>0.04</speed>
  <fix>3d</fix>
</trkpt>
<trkpt lat="40.0728844" lon="-105.2308577">
  <ele>1595.56</ele>
  <time>2026-08-28T19:11:25Z</time>
  <course>51.65</course>
  <speed>0.01</speed>
  <fix>3d</fix>
</trkpt>
<trkpt lat="40.0728845" lon="-105.2308577">
  <ele>1595.48</ele>
  <time>2026-08-28T19:11:25Z</time>
  <course>7.68</course>
  <speed>0.04</speed>
  <fix>3d</fix>
</trkpt>
<trkpt lat="40.0728845" lon="-105.2308577">
  <ele>1595.56</ele>
  <time>2026-08-28T19:11:25Z</time>
  <course>52.78</course>
  <speed>0.01</speed>
  <fix>3d</fix>
</trkpt>
<trkpt lat="40.0728846" lon="-105.2308577">
  <ele>1595.48</ele>
  <time>2026-08-28T19:11:25Z</time>
  <course>9.51</course>
  <speed>0.04</speed>
  <fix>3d</fix>
</trkpt>
<trkpt lat="40.0728845" lon="-105.2308576">
  <ele>1595.56</ele>
  <time>2026-08-28T19:11:25Z</time>
  <course>53.54</course>
  <speed>0.01414213562373095</speed>
  <fix>3d</fix>
</trkpt>
<trkpt lat="40.0728847" lon="-105.2308577">
  <ele>1595.48</ele>
  <time>2026-08-28T19:11:25Z</time>
  <course>12.26</course>
  <speed>0.03</speed>
  <fix>3d</fix>
</trkpt>
<trkpt lat="40.0728846" lon="-105.2308576">
  <ele>1595.57</ele>
  <time>2026-08-28T19:11:25Z</time>
  <course>53.87</course>
  <speed>0.01414213562373095</speed>
  <fix>3d</fix>
</trkpt>
<trkpt lat="40.0728848" lon="-105.2308576">
  <ele>1595.48</ele>
  <time>2026-08-28T19:11:25Z</time>
  <course>16.05</course>
  <speed>0.03</speed>
  <fix>3d</fix>
</trkpt>
<trkpt lat="40.0728847" lon="-105.2308576">
  <ele>1595.57</ele>
  <time>2026-08-28T19:11:25Z</time>
  <course>53.7</course>
  <speed>0.01414213562373095</speed>
  <fix>3d</fix>
</trkpt>
<trkpt lat="40.0728849" lon="-105.2308575">
  <ele>1595.48</ele>
  <time>2026-08-28T19:11:25Z</time>
  <course>20.61</course>
  <speed>0.03</speed>
  <fix>3d</fix>
</trkpt>
<trkpt lat="40.0728847" lon="-105.2308575">
  <ele>1595.57</ele>
  <time>2026-08-28T19:11:25Z</time>
  <course>53.07</course>
  <speed>0.02</speed>
  <fix>3d</fix>
</trkpt>
<trkpt lat="40.0728849" lon="-105.2308575">
  <ele>1595.48</ele>
  <time>2026-08-28T19:11:25Z</time>
  <course>24.76</course>
  <speed>0.03</speed>
  <fix>3d</fix>
</trkpt>
<trkpt lat="40.0728848" lon="-105.2308575">
  <ele>1595.58</ele>
  <time>2026-08-28T19:11:25Z</time>
  <course>52.02</course>
  <speed>0.02</speed>
  <fix>3d</fix>
</trkpt>
<trkpt lat="40.072885" lon="-105.2308575">
  <ele>1595.48</ele>
  <time>2026-08-28T19:11:25Z</time>
  <course>27.83</course>
  <speed>0.03</speed>
  <fix>3d</fix>
</trkpt>
<trkpt lat="40.0728848" lon="-105.2308575">
  <ele>1595.58</ele>
  <time>2026-08-28T19:11:25Z</time>
  <course>50.68</course>
  <speed>0.02</speed>
  <fix>3d</fix>
</trkpt>
<trkpt lat="40.072885" lon="-105.2308575">
  <ele>1595.48</ele>
  <time>2026-08-28T19:11:25Z</time>
  <course>29.21</course>
  <speed>0.03</speed>
  <fix>3d</fix>
</trkpt>
<trkpt lat="40.0728849" lon="-105.2308574">
  <ele>1595.58</ele>
  <time>2026-08-28T19:11:25Z</time>
  <course>49.2</course>
  <speed>0.022360679774997897</speed>
  <fix>3d</fix>
</trkpt>
<trkpt lat="40.0728851" lon="-105.2308574">
  <ele>1595.48</ele>
  <time>2026-08-28T19:11:25Z</time>
  <course>29.07</course>
  <speed>0.03</speed>
  <fix>3d</fix>
</trkpt>
<trkpt lat="40.072885" lon="-105.2308574">
  <ele>1595.57</ele>
  <time>2026-08-28T19:11:25Z</time>
  <course>47.71</course>
  <speed>0.022360679774997897</speed>
  <fix>3d</fix>
</trkpt>
<trkpt lat="40.0728851" lon="-105.2308573">
  <ele>1595.48</ele>
  <time>2026-08-28T19:11:25Z</time>
  <course>27.97</course>
  <speed>0.04</speed>
  <fix>3d</fix>
</trkpt>
<trkpt lat="40.072885" lon="-105.2308573">
  <ele>1595.57</ele>
  <time>2026-08-28T19:11:25Z</time>
  <course>46.34</course>
  <speed>0.022360679774997897</speed>
  <fix>3d</fix>
</trkpt>
<trkpt lat="40.0728852" lon="-105.2308573">
  <ele>1595.48</ele>
  <time>2026-08-28T19:11:25Z</time>
  <course>26.06</course>
  <speed>0.04</speed>
  <fix>3d</fix>
</trkpt>
<trkpt lat="40.0728851" lon="-105.2308573">
  <ele>1595.58</ele>
  <time>2026-08-28T19:11:25Z</time>
  <course>45.18</course>
  <speed>0.01414213562373095</speed>
  <fix>3d</fix>
</trkpt>
<trkpt lat="40.0728853" lon="-105.2308573">
  <ele>1595.48</ele>
  <time>2026-08-28T19:11:25Z</time>
  <course>23.62</course>
  <speed>0.04</speed>
  <fix>3d</fix>
</trkpt>
<trkpt lat="40.0728852" lon="-105.2308572">
  <ele>1595.58</ele>
  <time>2026-08-28T19:11:25Z</time>
  <course>44.42</course>
  <speed>0.01414213562373095</speed>
  <fix>3d</fix>
</trkpt>
<trkpt lat="40.0728853" lon="-105.2308573">
  <ele>1595.48</ele>
  <time>2026-08-28T19:11:25Z</time>
  <course>20.46</course>
  <speed>0.04</speed>
  <fix>3d</fix>
</trkpt>
<trkpt lat="40.0728853" lon="-105.2308572">
  <ele>1595.57</ele>
  <time>2026-08-28T19:11:25Z</time>
  <course>44.11</course>
  <speed>0.022360679774997897</speed>
  <fix>3d</fix>
</trkpt>
<trkpt lat="40.0728854" lon="-105.2308572">
  <ele>1595.48</ele>
  <time>2026-08-28T19:11:25Z</time>
  <course>16.99</course>
  <speed>0.04</speed>
  <fix>3d</fix>
</trkpt>
<trkpt lat="40.0728853" lon="-105.2308572">
  <ele>1595.57</ele>
  <time>2026-08-28T19:11:25Z</time>
  <course>44.26</course>
  <speed>0.022360679774997897</speed>
  <fix>3d</fix>
</trkpt>
<trkpt lat="40.0728855" lon="-105.2308571">
  <ele>1595.48</ele>
  <time>2026-08-28T19:11:25Z</time>
  <course>13.93</course>
  <speed>0.04</speed>
  <fix>3d</fix>
</trkpt>
<trkpt lat="40.0728854" lon="-105.2308572">
  <ele>1595.56</ele>
  <time>2026-08-28T19:11:25Z</time>
  <course>44.89</course>
  <speed>0.02</speed>
  <fix>3d</fix>
</trkpt>
<trkpt lat="40.0728856" lon="-105.2308571">
  <ele>1595.47</ele>
  <time>2026-08-28T19:11:25Z</time>
  <course>11.0</course>
  <speed>0.04</speed>
  <fix>3d</fix>
</trkpt>
<trkpt lat="40.0728855" lon="-105.2308571">
  <ele>1595.56</ele>
  <time>2026-08-28T19:11:25Z</time>
  <course>45.91</course>
  <speed>0.02</speed>
  <fix>3d</fix>
</trkpt>
<trkpt lat="40.0728857" lon="-105.2308571">
  <ele>1595.47</ele>
  <time>2026-08-28T19:11:25Z</time>
  <course>8.51</course>
  <speed>0.04</speed>
  <fix>3d</fix>
</trkpt>
<trkpt lat="40.0728856" lon="-105.2308571">
  <ele>1595.56</ele>
  <time>2026-08-28T19:11:25Z</time>
  <course>47.22</course>
  <speed>0.02</speed>
  <fix>3d</fix>
</trkpt>
<trkpt lat="40.0728857" lon="-105.2308571">
  <ele>1595.47</ele>
  <time>2026-08-28T19:11:25Z</time>
  <course>6.81</course>
  <speed>0.04</speed>
  <fix>3d</fix>
</trkpt>
<trkpt lat="40.0728857" lon="-105.2308571">
  <ele>1595.56</ele>
  <time>2026-08-28T19:11:25Z</time>
  <course>48.68</course>
  <speed>0.02</speed>
  <fix>3d</fix>
</trkpt>
<trkpt lat="40.0728858" lon="-105.2308571">
  <ele>1595.47</ele>
  <time>2026-08-28T19:11:25Z</time>
  <course>5.83</course>
  <speed>0.04</speed>
  <fix>3d</fix>
</trkpt>
<trkpt lat="40.0728857" lon="-105.2308571">
  <ele>1595.56</ele>
  <time>2026-08-28T19:11:25Z</time>
  <course>50.24</course>
  <speed>0.01</speed>
  <fix>3d</fix>
</trkpt>
<trkpt lat="40.0728859" lon="-105.2308571">
  <ele>1595.48</ele>
  <time>2026-08-28T19:11:25Z</time>
  <course>5.31</course>
  <speed>0.04</speed>
  <fix>3d</fix>
</trkpt>
<trkpt lat="40.0728858" lon="-105.2308571">
  <ele>1595.56</ele>
  <time>2026-08-28T19:11:25Z</time>
  <course>51.64</course>
  <speed>0.01</speed>
  <fix>3d</fix>
</trkpt>
<trkpt lat="40.072886" lon="-105.2308571">
  <ele>1595.48</ele>
  <time>2026-08-28T19:11:25Z</time>
  <course>5.38</course>
  <speed>0.04</speed>
  <fix>3d</fix>
</trkpt>
<trkpt lat="40.0728859" lon="-105.2308571">
  <ele>1595.56</ele>
  <time>2026-08-28T19:11:25Z</time>
  <course>52.78</course>
  <speed>0.01</speed>
  <fix>3d</fix>
</trkpt>
<trkpt lat="40.0728861" lon="-105.2308571">
  <ele>1595.48</ele>
  <time>2026-08-28T19:11:25Z</time>
  <course>6.56</course>
  <speed>0.04</speed>
  <fix>3d</fix>
</trkpt>
<trkpt lat="40.0728859" lon="-105.2308571">
  <ele>1595.57</ele>
  <time>2026-08-28T19:11:25Z</time>
  <course>53.54</course>
  <speed>0.01414213562373095</speed>
  <fix>3d</fix>
</trkpt>
<trkpt lat="40.0728861" lon="-105.2308571">
  <ele>1595.48</ele>
  <time>2026-08-28T19:11:25Z</time>
  <course>8.9</course>
  <speed>0.03</speed>
  <fix>3d</fix>
</trkpt>
<trkpt lat="40.072886" lon="-105.2308571">
  <ele>1595.58</ele>
  <time>2026-08-28T19:11:25Z</time>
  <course>53.88</course>
  <speed>0.01414213562373095</speed>
  <fix>3d</fix>
</trkpt>
<trkpt lat="40.0728862" lon="-105.2308571">
  <ele>1595.49</ele>
  <time>2026-08-28T19:11:25Z</time>
  <course>12.43</course>
  <speed>0.03</speed>
  <fix>3d</fix>
</trkpt>
<trkpt lat="40.0728861" lon="-105.230857">
  <ele>1595.58</ele>
  <time>2026-08-28T19:11:25Z</time>
  <course>53.72</course>
  <speed>0.01414213562373095</speed>
  <fix>3d</fix>
</trkpt>
<trkpt lat="40.0728863" lon="-105.2308571">
  <ele>1595.49</ele>
  <time>2026-08-28T19:11:25Z</time>
  <course>16.35</course>
  <speed>0.03</speed>
  <fix>3d</fix>
</trkpt>
<trkpt lat="40.0728861" lon="-105.230857">
  <ele>1595.59</ele>
  <time>2026-08-28T19:11:25Z</time>
  <course>53.11</course>
  <speed>0.01</speed>
  <fix>3d</fix>
</trkpt>
<trkpt lat="40.0728863" lon="-105.230857">
  <ele>1595.49</ele>
  <time>2026-08-28T19:11:25Z</time>
  <course>20.25</course>
  <speed>0.03</speed>
  <fix>3d</fix>
</trkpt>
<trkpt lat="40.0728862" lon="-105.230857">
  <ele>1595.58</ele>
  <time>2026-08-28T19:11:25Z</time>
  <course>52.08</course>
  <speed>0.02</speed>
  <fix>3d</fix>
</trkpt>
<trkpt lat="40.0728864" lon="-105.230857">
  <ele>1595.48</ele>
  <time>2026-08-28T19:11:25Z</time>
  <course>24.17</course>
  <speed>0.03</speed>
  <fix>3d</fix>
</trkpt>
<trkpt lat="40.0728863" lon="-105.2308569">
  <ele>1595.58</ele>
  <time>2026-08-28T19:11:25Z</time>
  <course>50.76</course>
  <speed>0.022360679774997897</speed>
  <fix>3d</fix>
</trkpt>
<trkpt lat="40.0728864" lon="-105.230857">
  <ele>1595.48</ele>
  <time>2026-08-28T19:11:25Z</time>
  <course>27.64</course>
  <speed>0.03</speed>
  <fix>3d</fix>
</trkpt>
<trkpt lat="40.0728863" lon="-105.2308569">
  <ele>1595.58</ele>
  <time>2026-08-28T19:11:25Z</time>
  <course>49.28</course>
  <speed>0.022360679774997897</speed>
  <fix>3d</fix>
</trkpt>
<trkpt lat="40.0728865" lon="-105.2308569">
  <ele>1595.48</ele>
  <time>2026-08-28T19:11:25Z</time>
  <course>29.53</course>
  <speed>0.03</speed>
  <fix>3d</fix>
</trkpt>
<trkpt lat="40.0728864" lon="-105.2308568">
  <ele>1595.58</ele>
  <time>2026-08-28T19:11:25Z</time>
  <course>47.75</course>
  <speed>0.022360679774997897</speed>
  <fix>3d</fix>
</trkpt>
<trkpt lat="40.0728865" lon="-105.2308568">
  <ele>1595.47</ele>
  <time>2026-08-28T19:11:25Z</time>
  <course>29.6</course>
  <speed>0.04</speed>
  <fix>3d</fix>
</trkpt>
<trkpt lat="40.0728864" lon="-105.2308568">
  <ele>1595.58</ele>
  <time>2026-08-28T19:11:25Z</time>
  <course>46.35</course>
  <speed>0.022360679774997897</speed>
  <fix>3d</fix>
</trkpt>
<trkpt lat="40.0728866" lon="-105.2308568">
  <ele>1595.47</ele>
  <time>2026-08-28T19:11:25Z</time>
  <course>28.4</course>
  <speed>0.04</speed>
  <fix>3d</fix>
</trkpt>
<trkpt lat="40.0728865" lon="-105.2308568">
  <ele>1595.57</ele>
  <time>2026-08-28T19:11:25Z</time>
  <course>45.19</course>
  <speed>0.01414213562373095</speed>
  <fix>3d</fix>
</trkpt>
<trkpt lat="40.0728867" lon="-105.2308568">
  <ele>1595.47</ele>
  <time>2026-08-28T19:11:25Z</time>
  <course>26.1</course>
  <speed>0.04</speed>
  <fix>3d</fix>
</trkpt>
<trkpt lat="40.0728866" lon="-105.2308567">
  <ele>1595.56</ele>
  <time>2026-08-28T19:11:25Z</time>
  <course>44.4</course>
  <speed>0.01414213562373095</speed>
  <fix>3d</fix>
</trkpt>
<trkpt lat="40.0728868" lon="-105.2308567">
  <ele>1595.46</ele>
  <time>2026-08-28T19:11:25Z</time>
  <course>23.25</course>
  <speed>0.04</speed>
  <fix>3d</fix>
</trkpt>
<trkpt lat="40.0728867" lon="-105.2308567">
  <ele>1595.56</ele>
  <time>2026-08-28T19:11:25Z</time>
  <course>44.09</course>
  <speed>0.01414213562373095</speed>
  <fix>3d</fix>
</trkpt>
<trkpt lat="40.0728868" lon="-105.2308566">
  <ele>1595.46</ele>
  <time>2026-08-28T19:11:25Z</time>
  <course>19.83</course>
  <speed>0.04</speed>
  <fix>3d</fix>
</trkpt>
<trkpt lat="40.0728867" lon="-105.2308567">
  <ele>1595.56</ele>
  <time>2026-08-28T19:11:25Z</time>
  <course>44.25</course>
  <speed>0.01414213562373095</speed>
  <fix>3d</fix>
</trkpt>
<trkpt lat="40.0728869" lon="-105.2308566">
  <ele>1595.46</ele>
  <time>2026-08-28T19:11:25Z</time>
  <course>16.45</course>
  <speed>0.04</speed>
  <fix>3d</fix>
</trkpt>
<trkpt lat="40.0728868" lon="-105.2308566">
  <ele>1595.57</ele>
  <time>2026-08-28T19:11:25Z</time>
  <course>44.86</course>
  <speed>0.022360679774997897</speed>
  <fix>3d</fix>
</trkpt>
<trkpt lat="40.072887" lon="-105.2308566">
  <ele>1595.46</ele>
  <time>2026-08-28T19:11:25Z</time>
  <course>13.24</course>
  <speed>0.04</speed>
  <fix>3d</fix>
</trkpt>
<trkpt lat="40.0728869" lon="-105.2308566">
  <ele>1595.57</ele>
  <time>2026-08-28T19:11:25Z</time>
  <course>45.93</course>
  <speed>0.02</speed>
  <fix>3d</fix>
</trkpt>
<trkpt lat="40.072887" lon="-105.2308566">
  <ele>1595.46</ele>
  <time>2026-08-28T19:11:25Z</time>
  <course>10.38</course>
  <speed>0.04</speed>
  <fix>3d</fix>
</trkpt>
<trkpt lat="40.072887" lon="-105.2308566">
  <ele>1595.57</ele>
  <time>2026-08-28T19:11:25Z</time>
  <course>47.28</course>
  <speed>0.02</speed>
  <fix>3d</fix>
</trkpt>
<trkpt lat="40.0728871" lon="-105.2308566">
  <ele>1595.46</ele>
  <time>2026-08-28T19:11:25Z</time>
  <course>8.31</course>
  <speed>0.04</speed>
  <fix>3d</fix>
</trkpt>
<trkpt lat="40.072887" lon="-105.2308566">
  <ele>1595.57</ele>
  <time>2026-08-28T19:11:25Z</time>
  <course>48.78</course>
  <speed>0.02</speed>
  <fix>3d</fix>
</trkpt>
<trkpt lat="40.0728872" lon="-105.2308566">
  <ele>1595.47</ele>
  <time>2026-08-28T19:11:25Z</time>
  <course>6.45</course>
  <speed>0.04</speed>
  <fix>3d</fix>
</trkpt>
<trkpt lat="40.0728871" lon="-105.2308566">
  <ele>1595.58</ele>
  <time>2026-08-28T19:11:25Z</time>
  <course>50.3</course>
  <speed>0.02</speed>
  <fix>3d</fix>
</trkpt>
<trkpt lat="40.0728873" lon="-105.2308566">
  <ele>1595.47</ele>
  <time>2026-08-28T19:11:25Z</time>
  <course>5.0</course>
  <speed>0.04</speed>
  <fix>3d</fix>
</trkpt>
<trkpt lat="40.0728872" lon="-105.2308566">
  <ele>1595.57</ele>
  <time>2026-08-28T19:11:25Z</time>
  <course>51.71</course>
  <speed>0.01</speed>
  <fix>3d</fix>
</trkpt>
<trkpt lat="40.0728874" lon="-105.2308566">
  <ele>1595.46</ele>
  <time>2026-08-28T19:11:25Z</time>
  <course>4.37</course>
  <speed>0.04</speed>
  <fix>3d</fix>
</trkpt>
<trkpt lat="40.0728873" lon="-105.2308566">
  <ele>1595.57</ele>
  <time>2026-08-28T19:11:25Z</time>
  <course>52.82</course>
  <speed>0.01</speed>
  <fix>3d</fix>
</trkpt>
<trkpt lat="40.0728875" lon="-105.2308566">
  <ele>1595.46</ele>
  <time>2026-08-28T19:11:25Z</time>
  <course>4.96</course>
  <speed>0.04</speed>
  <fix>3d</fix>
</trkpt>
<trkpt lat="40.0728873" lon="-105.2308566">
  <ele>1595.56</ele>
  <time>2026-08-28T19:11:25Z</time>
  <course>53.55</course>
  <speed>0.01</speed>
  <fix>3d</fix>
</trkpt>
<trkpt lat="40.0728875" lon="-105.2308566">
  <ele>1595.46</ele>
  <time>2026-08-28T19:11:25Z</time>
  <course>6.71</course>
  <speed>0.03</speed>
  <fix>3d</fix>
</trkpt>
<trkpt lat="40.0728874" lon="-105.2308565">
  <ele>1595.56</ele>
  <time>2026-08-28T19:11:25Z</time>
  <course>53.87</course>
  <speed>0.01414213562373095</speed>
  <fix>3d</fix>
</trkpt>
<trkpt lat="40.0728876" lon="-105.2308566">
  <ele>1595.46</ele>
  <time>2026-08-28T19:11:25Z</time>
  <course>10.23</course>
  <speed>0.03</speed>
  <fix>3d</fix>
</trkpt>
<trkpt lat="40.0728875" lon="-105.2308565">
  <ele>1595.56</ele>
  <time>2026-08-28T19:11:25Z</time>
  <course>53.69</course>
  <speed>0.01414213562373095</speed>
  <fix>3d</fix>
</trkpt>
<trkpt lat="40.0728876" lon="-105.2308565">
  <ele>1595.46</ele>
  <time>2026-08-28T19:11:25Z</time>
  <course>15.32</course>
  <speed>0.03</speed>
  <fix>3d</fix>
</trkpt>
<trkpt lat="40.0728875" lon="-105.2308565">
  <ele>1595.56</ele>
  <time>2026-08-28T19:11:25Z</time>
  <course>53.05</course>
  <speed>0.01</speed>
  <fix>3d</fix>
</trkpt>
<trkpt lat="40.0728877" lon="-105.2308565">
  <ele>1595.46</ele>
  <time>2026-08-28T19:11:25Z</time>
  <course>20.41</course>
  <speed>0.03</speed>
  <fix>3d</fix>
</trkpt>
<trkpt lat="40.0728876" lon="-105.2308565">
  <ele>1595.56</ele>
  <time>2026-08-28T19:11:25Z</time>
  <course>52.03</course>
  <speed>0.01</speed>
  <fix>3d</fix>
</trkpt>
<trkpt lat="40.0728878" lon="-105.2308565">
  <ele>1595.46</ele>
  <time>2026-08-28T19:11:25Z</time>
  <course>24.95</course>
  <speed>0.03</speed>
  <fix>3d</fix>
</trkpt>
<trkpt lat="40.0728876" lon="-105.2308564">
  <ele>1595.57</ele>
  <time>2026-08-28T19:11:25Z</time>
  <course>50.67</course>
  <speed>0.02</speed>
  <fix>3d</fix>
</trkpt>
<trkpt lat="40.0728879" lon="-105.2308564">
  <ele>1595.46</ele>
  <time>2026-08-28T19:11:25Z</time>
  <course>28.61</course>
  <speed>0.03</speed>
  <fix>3d</fix>
</trkpt>
<trkpt lat="40.0728877" lon="-105.2308564">
  <ele>1595.57</ele>
  <time>2026-08-28T19:11:25Z</time>
  <course>49.19</course>
  <speed>0.02</speed>
  <fix>3d</fix>
</trkpt>
<trkpt lat="40.0728879" lon="-105.2308563">
  <ele>1595.46</ele>
  <time>2026-08-28T19:11:25Z</time>
  <course>30.64</course>
  <speed>0.03</speed>
  <fix>3d</fix>
</trkpt>
<trkpt lat="40.0728878" lon="-105.2308563">
  <ele>1595.57</ele>
  <time>2026-08-28T19:11:25Z</time>
  <course>47.68</course>
  <speed>0.022360679774997897</speed>
  <fix>3d</fix>
</trkpt>
<trkpt lat="40.072888" lon="-105.2308563">
  <ele>1595.47</ele>
  <time>2026-08-28T19:11:25Z</time>
  <course>30.73</course>
  <speed>0.03</speed>
  <fix>3d</fix>
</trkpt>
<trkpt lat="40.0728878" lon="-105.2308563">
  <ele>1595.57</ele>
  <time>2026-08-28T19:11:25Z</time>
  <course>46.29</course>
  <speed>0.022360679774997897</speed>
  <fix>3d</fix>
</trkpt>
<trkpt lat="40.072888" lon="-105.2308563">
  <ele>1595.47</ele>
  <time>2026-08-28T19:11:25Z</time>
  <course>29.42</course>
  <speed>0.04</speed>
  <fix>3d</fix>
</trkpt>
<trkpt lat="40.0728879" lon="-105.2308562">
  <ele>1595.56</ele>
  <time>2026-08-28T19:11:25Z</time>
  <course>45.15</course>
  <speed>0.01414213562373095</speed>
  <fix>3d</fix>
</trkpt>
<trkpt lat="40.0728881" lon="-105.2308563">
  <ele>1595.47</ele>
  <time>2026-08-28T19:11:25Z</time>
  <course>26.61</course>
  <speed>0.04</speed>
  <fix>3d</fix>
</trkpt>
<trkpt lat="40.072888" lon="-105.2308562">
  <ele>1595.56</ele>
  <time>2026-08-28T19:11:25Z</time>
  <course>44.4</course>
  <speed>0.01414213562373095</speed>
  <fix>3d</fix>
</trkpt>
<trkpt lat="40.0728882" lon="-105.2308562">
  <ele>1595.47</ele>
  <time>2026-08-28T19:11:25Z</time>
  <course>22.8</course>
  <speed>0.04</speed>
  <fix>3d</fix>
</trkpt>
<trkpt lat="40.0728881" lon="-105.2308562">
  <ele>1595.56</ele>
  <time>2026-08-28T19:11:25Z</time>
  <course>44.09</course>
  <speed>0.022360679774997897</speed>
  <fix>3d</fix>
</trkpt>
<trkpt lat="40.0728882" lon="-105.2308561">
  <ele>1595.47</ele>
  <time>2026-08-28T19:11:25Z</time>
  <course>18.73</course>
  <speed>0.04</speed>
  <fix>3d</fix>
</trkpt>
<trkpt lat="40.0728881" lon="-105.2308561">
  <ele>1595.55</ele>
  <time>2026-08-28T19:11:25Z</time>
  <course>44.22</course>
  <speed>0.022360679774997897</speed>
  <fix>3d</fix>
</trkpt>
<trkpt lat="40.0728883" lon="-105.2308561">
  <ele>1595.47</ele>
  <time>2026-08-28T19:11:25Z</time>
  <course>14.93</course>
  <speed>0.04</speed>
  <fix>3d</fix>
</trkpt>
<trkpt lat="40.0728882" lon="-105.2308561">
  <ele>1595.55</ele>
  <time>2026-08-28T19:11:25Z</time>
  <course>44.86</course>
  <speed>0.02</speed>
  <fix>3d</fix>
</trkpt>
<trkpt lat="40.0728884" lon="-105.2308561">
  <ele>1595.47</ele>
  <time>2026-08-28T19:11:25Z</time>
  <course>11.17</course>
  <speed>0.04</speed>
  <fix>3d</fix>
</trkpt>
<trkpt lat="40.0728883" lon="-105.2308561">
  <ele>1595.55</ele>
  <time>2026-08-28T19:11:25Z</time>
  <course>45.89</course>
  <speed>0.02</speed>
  <fix>3d</fix>
</trkpt>
<trkpt lat="40.0728885" lon="-105.2308561">
  <ele>1595.47</ele>
  <time>2026-08-28T19:11:25Z</time>
  <course>7.44</course>
  <speed>0.04</speed>
  <fix>3d</fix>
</trkpt>
<trkpt lat="40.0728884" lon="-105.2308561">
  <ele>1595.56</ele>
  <time>2026-08-28T19:11:25Z</time>
  <course>47.2</course>
  <speed>0.02</speed>
  <fix>3d</fix>
</trkpt>
<trkpt lat="40.0728885" lon="-105.2308561">
  <ele>1595.47</ele>
  <time>2026-08-28T19:11:25Z</time>
  <course>4.39</course>
  <speed>0.04</speed>
  <fix>3d</fix>
</trkpt>
<trkpt lat="40.0728885" lon="-105.2308561">
  <ele>1595.56</ele>
  <time>2026-08-28T19:11:25Z</time>
  <course>48.7</course>
  <speed>0.02</speed>
  <fix>3d</fix>
</trkpt>
<trkpt lat="40.0728886" lon="-105.2308561">
  <ele>1595.48</ele>
  <time>2026-08-28T19:11:25Z</time>
  <course>2.65</course>
  <speed>0.04</speed>
  <fix>3d</fix>
</trkpt>
<trkpt lat="40.0728885" lon="-105.2308561">
  <ele>1595.57</ele>
  <time>2026-08-28T19:11:26Z</time>
  <course>50.26</course>
  <speed>0.01</speed>
  <fix>3d</fix>
</trkpt>
<trkpt lat="40.0728887" lon="-105.2308561">
  <ele>1595.48</ele>
  <time>2026-08-28T19:11:26Z</time>
  <course>2.19</course>
  <speed>0.04</speed>
  <fix>3d</fix>
</trkpt>
<trkpt lat="40.0728886" lon="-105.2308561">
  <ele>1595.57</ele>
  <time>2026-08-28T19:11:26Z</time>
  <course>51.68</course>
  <speed>0.01</speed>
  <fix>3d</fix>
</trkpt>
<trkpt lat="40.0728888" lon="-105.2308561">
  <ele>1595.49</ele>
  <time>2026-08-28T19:11:26Z</time>
  <course>2.74</course>
  <speed>0.04</speed>
  <fix>3d</fix>
</trkpt>
<trkpt lat="40.0728887" lon="-105.2308561">
  <ele>1595.57</ele>
  <time>2026-08-28T19:11:26Z</time>
  <course>52.82</course>
  <speed>0.01</speed>
  <fix>3d</fix>
</trkpt>
<trkpt lat="40.0728888" lon="-105.2308561">
  <ele>1595.49</ele>
  <time>2026-08-28T19:11:26Z</time>
  <course>4.2</course>
  <speed>0.03</speed>
  <fix>3d</fix>
</trkpt>
<trkpt lat="40.0728887" lon="-105.2308561">
  <ele>1595.57</ele>
  <time>2026-08-28T19:11:26Z</time>
  <course>53.59</course>
  <speed>0.01</speed>
  <fix>3d</fix>
</trkpt>
<trkpt lat="40.0728889" lon="-105.2308561">
  <ele>1595.49</ele>
  <time>2026-08-28T19:11:26Z</time>
  <course>6.35</course>
  <speed>0.03</speed>
  <fix>3d</fix>
</trkpt>
<trkpt lat="40.0728888" lon="-105.2308561">
  <ele>1595.58</ele>
  <time>2026-08-28T19:11:26Z</time>
  <course>53.88</course>
  <speed>0.01414213562373095</speed>
  <fix>3d</fix>
</trkpt>
<trkpt lat="40.0728889" lon="-105.2308561">
  <ele>1595.49</ele>
  <time>2026-08-28T19:11:26Z</time>
  <course>10.02</course>
  <speed>0.03</speed>
  <fix>3d</fix>
</trkpt>
<trkpt lat="40.0728889" lon="-105.230856">
  <ele>1595.58</ele>
  <time>2026-08-28T19:11:26Z</time>
  <course>53.7</course>
  <speed>0.01414213562373095</speed>
  <fix>3d</fix>
</trkpt>
<trkpt lat="40.072889" lon="-105.230856">
  <ele>1595.49</ele>
  <time>2026-08-28T19:11:26Z</time>
  <course>14.46</course>
  <speed>0.03</speed>
  <fix>3d</fix>
</trkpt>
<trkpt lat="40.0728889" lon="-105.230856">
  <ele>1595.57</ele>
  <time>2026-08-28T19:11:26Z</time>
  <course>53.1</course>
  <speed>0.01</speed>
  <fix>3d</fix>
</trkpt>
<trkpt lat="40.0728891" lon="-105.2308559">
  <ele>1595.49</ele>
  <time>2026-08-28T19:11:26Z</time>
  <course>18.83</course>
  <speed>0.03</speed>
  <fix>3d</fix>
</trkpt>
<trkpt lat="40.072889" lon="-105.230856">
  <ele>1595.57</ele>
  <time>2026-08-28T19:11:26Z</time>
  <course>52.04</course>
  <speed>0.01</speed>
  <fix>3d</fix>
</trkpt>
<trkpt lat="40.0728892" lon="-105.2308559">
  <ele>1595.49</ele>
  <time>2026-08-28T19:11:26Z</time>
  <course>23.39</course>
  <speed>0.03</speed>
  <fix>3d</fix>
</trkpt>
<trkpt lat="40.072889" lon="-105.2308559">
  <ele>1595.56</ele>
  <time>2026-08-28T19:11:26Z</time>
  <course>50.68</course>
  <speed>0.02</speed>
  <fix>3d</fix>
</trkpt>
<trkpt lat="40.0728892" lon="-105.2308559">
  <ele>1595.49</ele>
  <time>2026-08-28T19:11:26Z</time>
  <course>26.77</course>
  <speed>0.03</speed>
  <fix>3d</fix>
</trkpt>
<trkpt lat="40.0728891" lon="-105.2308559">
  <ele>1595.57</ele>
  <time>2026-08-28T19:11:26Z</time>
  <course>49.18</course>
  <speed>0.022360679774997897</speed>
  <fix>3d</fix>
</trkpt>
<trkpt lat="40.0728893" lon="-105.2308559">
  <ele>1595.49</ele>
  <time>2026-08-28T19:11:26Z</time>
  <course>28.53</course>
  <speed>0.03</speed>
  <fix>3d</fix>
</trkpt>
<trkpt lat="40.0728891" lon="-105.2308558">
  <ele>1595.57</ele>
  <time>2026-08-28T19:11:26Z</time>
  <course>47.67</course>
  <speed>0.022360679774997897</speed>
  <fix>3d</fix>
</trkpt>
<trkpt lat="40.0728893" lon="-105.2308559">
  <ele>1595.49</ele>
  <time>2026-08-28T19:11:26Z</time>
  <course>28.97</course>
  <speed>0.03</speed>
  <fix>3d</fix>
</trkpt>
<trkpt lat="40.0728892" lon="-105.2308558">
  <ele>1595.57</ele>
  <time>2026-08-28T19:11:26Z</time>
  <course>46.27</course>
  <speed>0.022360679774997897</speed>
  <fix>3d</fix>
</trkpt>
<trkpt lat="40.0728894" lon="-105.2308558">
  <ele>1595.49</ele>
  <time>2026-08-28T19:11:26Z</time>
  <course>27.9</course>
  <speed>0.04</speed>
  <fix>3d</fix>
</trkpt>
<trkpt lat="40.0728893" lon="-105.2308557">
  <ele>1595.57</ele>
  <time>2026-08-28T19:11:26Z</time>
  <course>45.15</course>
  <speed>0.022360679774997897</speed>
  <fix>3d</fix>
</trkpt>
<trkpt lat="40.0728894" lon="-105.2308558">
  <ele>1595.49</ele>
  <time>2026-08-28T19:11:26Z</time>
  <course>25.81</course>
  <speed>0.04</speed>
  <fix>3d</fix>
</trkpt>
<trkpt lat="40.0728893" lon="-105.2308557">
  <ele>1595.57</ele>
  <time>2026-08-28T19:11:26Z</time>
  <course>44.38</course>
  <speed>0.01414213562373095</speed>
  <fix>3d</fix>
</trkpt>
<trkpt lat="40.0728895" lon="-105.2308557">
  <ele>1595.49</ele>
  <time>2026-08-28T19:11:26Z</time>
  <course>23.04</course>
  <speed>0.04</speed>
  <fix>3d</fix>
</trkpt>
<trkpt lat="40.0728894" lon="-105.2308557">
  <ele>1595.58</ele>
  <time>2026-08-28T19:11:26Z</time>
  <course>44.09</course>
  <speed>0.01414213562373095</speed>
  <fix>3d</fix>
</trkpt>
<trkpt lat="40.0728896" lon="-105.2308556">
  <ele>1595.49</ele>
  <time>2026-08-28T19:11:26Z</time>
  <course>19.47</course>
  <speed>0.04</speed>
  <fix>3d</fix>
</trkpt>
<trkpt lat="40.0728895" lon="-105.2308556">
  <ele>1595.58</ele>
  <time>2026-08-28T19:11:26Z</time>
  <course>44.05</course>
  <speed>0.022360679774997897</speed>
  <fix>3d</fix>
</trkpt>
<trkpt lat="40.0728897" lon="-105.2308556">
  <ele>1595.49</ele>
  <time>2026-08-28T19:11:26Z</time>
  <course>16.76</course>
  <speed>0.04</speed>
  <fix>3d</fix>
</trkpt>
<trkpt lat="40.0728896" lon="-105.2308556">
  <ele>1595.58</ele>
  <time>2026-08-28T19:11:26Z</time>
  <course>44.03</course>
  <speed>0.022360679774997897</speed>
  <fix>3d</fix>
</trkpt>
<trkpt lat="40.0728898" lon="-105.2308556">
  <ele>1595.49</ele>
  <time>2026-08-28T19:11:26Z</time>
  <course>17.01</course>
  <speed>0.04</speed>
  <fix>3d</fix>
</trkpt>
<trkpt lat="40.0728897" lon="-105.2308556">
  <ele>1595.58</ele>
  <time>2026-08-28T19:11:26Z</time>
  <course>44.01</course>
  <speed>0.0282842712474619</speed>
  <fix>3d</fix>
</trkpt>
<trkpt lat="40.0728898" lon="-105.2308556">
  <ele>1595.49</ele>
  <time>2026-08-28T19:11:26Z</time>
  <course>18.76</course>
  <speed>0.04</speed>
  <fix>3d</fix>
</trkpt>
<trkpt lat="40.0728898" lon="-105.2308555">
  <ele>1595.58</ele>
  <time>2026-08-28T19:11:26Z</time>
  <course>44.02</course>
  <speed>0.03605551275463989</speed>
  <fix>3d</fix>
</trkpt>
<trkpt lat="40.0728899" lon="-105.2308556">
  <ele>1595.49</ele>
  <time>2026-08-28T19:11:26Z</time>
  <course>19.95</course>
  <speed>0.05</speed>
  <fix>3d</fix>
</trkpt>
<trkpt lat="40.0728899" lon="-105.2308555">
  <ele>1595.58</ele>
  <time>2026-08-28T19:11:26Z</time>
  <course>44.02</course>
  <speed>0.03605551275463989</speed>
  <fix>3d</fix>
</trkpt>
<trkpt lat="40.07289" lon="-105.2308555">
  <ele>1595.49</ele>
  <time>2026-08-28T19:11:26Z</time>
  <course>21.0</course>
  <speed>0.05</speed>
  <fix>3d</fix>
</trkpt>
<trkpt lat="40.07289" lon="-105.2308554">
  <ele>1595.57</ele>
  <time>2026-08-28T19:11:26Z</time>
  <course>44.01</course>
  <speed>0.03605551275463989</speed>
  <fix>3d</fix>
</trkpt>
<trkpt lat="40.0728901" lon="-105.2308554">
  <ele>1595.48</ele>
  <time>2026-08-28T19:11:26Z</time>
  <course>22.34</course>
  <speed>0.06</speed>
  <fix>3d</fix>
</trkpt>
<trkpt lat="40.0728901" lon="-105.2308554">
  <ele>1595.56</ele>
  <time>2026-08-28T19:11:26Z</time>
  <course>44.0</course>
  <speed>0.04242640687119285</speed>
  <fix>3d</fix>
</trkpt>
<trkpt lat="40.0728902" lon="-105.2308554">
  <ele>1595.48</ele>
  <time>2026-08-28T19:11:26Z</time>
  <course>23.83</course>
  <speed>0.06</speed>
  <fix>3d</fix>
</trkpt>
<trkpt lat="40.0728902" lon="-105.2308553">
  <ele>1595.56</ele>
  <time>2026-08-28T19:11:26Z</time>
  <course>44.0</course>
  <speed>0.05</speed>
  <fix>3d</fix>
</trkpt>
<trkpt lat="40.0728903" lon="-105.2308553">
  <ele>1595.48</ele>
  <time>2026-08-28T19:11:26Z</time>
  <course>25.26</course>
  <speed>0.06</speed>
  <fix>3d</fix>
</trkpt>
<trkpt lat="40.0728903" lon="-105.2308552">
  <ele>1595.56</ele>
  <time>2026-08-28T19:11:26Z</time>
  <course>43.99</course>
  <speed>0.05</speed>
  <fix>3d</fix>
</trkpt>
<trkpt lat="40.0728904" lon="-105.2308553">
  <ele>1595.48</ele>
  <time>2026-08-28T19:11:26Z</time>
  <course>26.25</course>
  <speed>0.07</speed>
  <fix>3d</fix>
</trkpt>
<trkpt lat="40.0728904" lon="-105.2308551">
  <ele>1595.56</ele>
  <time>2026-08-28T19:11:26Z</time>
  <course>44.0</course>
  <speed>0.05</speed>
  <fix>3d</fix>
</trkpt>
<trkpt lat="40.0728905" lon="-105.2308552">
  <ele>1595.48</ele>
  <time>2026-08-28T19:11:26Z</time>
  <course>26.65</course>
  <speed>0.07</speed>
  <fix>3d</fix>
</trkpt>
<trkpt lat="40.0728905" lon="-105.2308551">
  <ele>1595.56</ele>
  <time>2026-08-28T19:11:26Z</time>
  <course>44.0</course>
  <speed>0.05</speed>
  <fix>3d</fix>
</trkpt>
<trkpt lat="40.0728907" lon="-105.2308551">
  <ele>1595.48</ele>
  <time>2026-08-28T19:11:26Z</time>
  <course>26.83</course>
  <speed>0.07</speed>
  <fix>3d</fix>
</trkpt>
<trkpt lat="40.0728907" lon="-105.230855">
  <ele>1595.56</ele>
  <time>2026-08-28T19:11:26Z</time>
  <course>44.0</course>
  <speed>0.05830951894845301</speed>
  <fix>3d</fix>
</trkpt>
<trkpt lat="40.0728908" lon="-105.230855">
  <ele>1595.49</ele>
  <time>2026-08-28T19:11:26Z</time>
  <course>27.14</course>
  <speed>0.08</speed>
  <fix>3d</fix>
</trkpt>
<trkpt lat="40.0728908" lon="-105.2308549">
  <ele>1595.56</ele>
  <time>2026-08-28T19:11:26Z</time>
  <course>44.01</course>
  <speed>0.06403124237432849</speed>
  <fix>3d</fix>
</trkpt>
<trkpt lat="40.0728909" lon="-105.2308549">
  <ele>1595.49</ele>
  <time>2026-08-28T19:11:26Z</time>
  <course>27.56</course>
  <speed>0.08</speed>
  <fix>3d</fix>
</trkpt>
<trkpt lat="40.0728909" lon="-105.2308548">
  <ele>1595.57</ele>
  <time>2026-08-28T19:11:26Z</time>
  <course>44.02</course>
  <speed>0.06403124237432849</speed>
  <fix>3d</fix>
</trkpt>
<trkpt lat="40.0728911" lon="-105.2308548">
  <ele>1595.49</ele>
  <time>2026-08-28T19:11:26Z</time>
  <course>27.98</course>
  <speed>0.08</speed>
  <fix>3d</fix>
</trkpt>
<trkpt lat="40.0728911" lon="-105.2308547">
  <ele>1595.57</ele>
  <time>2026-08-28T19:11:26Z</time>
  <course>44.02</course>
  <speed>0.06403124237432849</speed>
  <fix>3d</fix>
</trkpt>
<trkpt lat="40.0728912" lon="-105.2308547">
  <ele>1595.49</ele>
  <time>2026-08-28T19:11:26Z</time>
  <course>28.38</course>
  <speed>0.08</speed>
  <fix>3d</fix>
</trkpt>
<trkpt lat="40.0728912" lon="-105.2308546">
  <ele>1595.57</ele>
  <time>2026-08-28T19:11:26Z</time>
  <course>44.02</course>
  <speed>0.07211102550927978</speed>
  <fix>3d</fix>
</trkpt>
<trkpt lat="40.0728913" lon="-105.2308546">
  <ele>1595.49</ele>
  <time>2026-08-28T19:11:26Z</time>
  <course>28.75</course>
  <speed>0.09</speed>
  <fix>3d</fix>
</trkpt>
<trkpt lat="40.0728914" lon="-105.2308545">
  <ele>1595.56</ele>
  <time>2026-08-28T19:11:26Z</time>
  <course>43.97</course>
  <speed>0.07810249675906654</speed>
  <fix>3d</fix>
</trkpt>
<trkpt lat="40.0728915" lon="-105.2308545">
  <ele>1595.49</ele>
  <time>2026-08-28T19:11:26Z</time>
  <course>29.16</course>
  <speed>0.09</speed>
  <fix>3d</fix>
</trkpt>
<trkpt lat="40.0728915" lon="-105.2308543">
  <ele>1595.56</ele>
  <time>2026-08-28T19:11:26Z</time>
  <course>43.16</course>
  <speed>0.07071067811865475</speed>
  <fix>3d</fix>
</trkpt>
<trkpt lat="40.0728917" lon="-105.2308544">
  <ele>1595.49</ele>
  <time>2026-08-28T19:11:26Z</time>
  <course>30.76</course>
  <speed>0.09</speed>
  <fix>3d</fix>
</trkpt>
<trkpt lat="40.0728917" lon="-105.2308542">
  <ele>1595.57</ele>
  <time>2026-08-28T19:11:26Z</time>
  <course>41.85</course>
  <speed>0.07071067811865475</speed>
  <fix>3d</fix>
</trkpt>
<trkpt lat="40.0728918" lon="-105.2308543">
  <ele>1595.5</ele>
  <time>2026-08-28T19:11:26Z</time>
  <course>32.37</course>
  <speed>0.09</speed>
  <fix>3d</fix>
</trkpt>
<trkpt lat="40.0728918" lon="-105.2308541">
  <ele>1595.57</ele>
  <time>2026-08-28T19:11:26Z</time>
  <course>40.61</course>
  <speed>0.06403124237432849</speed>
  <fix>3d</fix>
</trkpt>
<trkpt lat="40.0728919" lon="-105.2308542">
  <ele>1595.5</ele>
  <time>2026-08-28T19:11:26Z</time>
  <course>31.89</course>
  <speed>0.09</speed>
  <fix>3d</fix>
</trkpt>
<trkpt lat="40.0728919" lon="-105.230854">
  <ele>1595.57</ele>
  <time>2026-08-28T19:11:26Z</time>
  <course>39.7</course>
  <speed>0.06403124237432849</speed>
  <fix>3d</fix>
</trkpt>
<trkpt lat="40.0728921" lon="-105.2308541">
  <ele>1595.5</ele>
  <time>2026-08-28T19:11:26Z</time>
  <course>29.96</course>
  <speed>0.08</speed>
  <fix>3d</fix>
</trkpt>
<trkpt lat="40.0728921" lon="-105.2308539">
  <ele>1595.57</ele>
  <time>2026-08-28T19:11:26Z</time>
  <course>39.19</course>
  <speed>0.05</speed>
  <fix>3d</fix>
</trkpt>
<trkpt lat="40.0728922" lon="-105.230854">
  <ele>1595.5</ele>
  <time>2026-08-28T19:11:26Z</time>
  <course>27.2</course>
  <speed>0.08</speed>
  <fix>3d</fix>
</trkpt>
<trkpt lat="40.0728922" lon="-105.2308539">
  <ele>1595.57</ele>
  <time>2026-08-28T19:11:26Z</time>
  <course>39.17</course>
  <speed>0.044721359549995794</speed>
  <fix>3d</fix>
</trkpt>
<trkpt lat="40.0728923" lon="-105.2308539">
  <ele>1595.5</ele>
  <time>2026-08-28T19:11:26Z</time>
  <course>23.97</course>
  <speed>0.07</speed>
  <fix>3d</fix>
</trkpt>
<trkpt lat="40.0728923" lon="-105.2308538">
  <ele>1595.56</ele>
  <time>2026-08-28T19:11:26Z</time>
  <course>39.6</course>
  <speed>0.0316227766016838</speed>
  <fix>3d</fix>
</trkpt>
<trkpt lat="40.0728924" lon="-105.2308538">
  <ele>1595.5</ele>
  <time>2026-08-28T19:11:26Z</time>
  <course>20.41</course>
  <speed>0.06</speed>
  <fix>3d</fix>
</trkpt>
<trkpt lat="40.0728924" lon="-105.2308538">
  <ele>1595.56</ele>
  <time>2026-08-28T19:11:26Z</time>
  <course>40.46</course>
  <speed>0.0316227766016838</speed>
  <fix>3d</fix>
</trkpt>
<trkpt lat="40.0728925" lon="-105.2308537">
  <ele>1595.5</ele>
  <time>2026-08-28T19:11:26Z</time>
  <course>16.32</course>
  <speed>0.05</speed>
  <fix>3d</fix>
</trkpt>
<trkpt lat="40.0728925" lon="-105.2308538">
  <ele>1595.56</ele>
  <time>2026-08-28T19:11:26Z</time>
  <course>41.65</course>
  <speed>0.022360679774997897</speed>
  <fix>3d</fix>
</trkpt>
<trkpt lat="40.0728926" lon="-105.2308537">
  <ele>1595.5</ele>
  <time>2026-08-28T19:11:26Z</time>
  <course>12.12</course>
  <speed>0.05</speed>
  <fix>3d</fix>
</trkpt>
<trkpt lat="40.0728926" lon="-105.2308537">
  <ele>1595.56</ele>
  <time>2026-08-28T19:11:26Z</time>
  <course>43.1</course>
  <speed>0.02</speed>
  <fix>3d</fix>
</trkpt>
<trkpt lat="40.0728927" lon="-105.2308537">
  <ele>1595.5</ele>
  <time>2026-08-28T19:11:26Z</time>
  <course>7.99</course>
  <speed>0.04</speed>
  <fix>3d</fix>
</trkpt>
<trkpt lat="40.0728926" lon="-105.2308537">
  <ele>1595.57</ele>
  <time>2026-08-28T19:11:26Z</time>
  <course>44.66</course>
  <speed>0.01</speed>
  <fix>3d</fix>
</trkpt>
<trkpt lat="40.0728928" lon="-105.2308537">
  <ele>1595.51</ele>
  <time>2026-08-28T19:11:26Z</time>
  <course>4.59</course>
  <speed>0.04</speed>
  <fix>3d</fix>
</trkpt>
<trkpt lat="40.0728927" lon="-105.2308537">
  <ele>1595.57</ele>
  <time>2026-08-28T19:11:26Z</time>
  <course>46.1</course>
  <speed>0.01</speed>
  <fix>3d</fix>
</trkpt>
<trkpt lat="40.0728929" lon="-105.2308537">
  <ele>1595.51</ele>
  <time>2026-08-28T19:11:26Z</time>
  <course>2.22</course>
  <speed>0.03</speed>
  <fix>3d</fix>
</trkpt>
<trkpt lat="40.0728928" lon="-105.2308537">
  <ele>1595.57</ele>
  <time>2026-08-28T19:11:26Z</time>
  <course>47.38</course>
  <speed>0.01</speed>
  <fix>3d</fix>
</trkpt>
<trkpt lat="40.072893" lon="-105.2308537">
  <ele>1595.51</ele>
  <time>2026-08-28T19:11:26Z</time>
  <course>0.9</course>
  <speed>0.03</speed>
  <fix>3d</fix>
</trkpt>
<trkpt lat="40.0728928" lon="-105.2308537">
  <ele>1595.56</ele>
  <time>2026-08-28T19:11:26Z</time>
  <course>48.33</course>
  <speed>0.01</speed>
  <fix>3d</fix>
</trkpt>
<trkpt lat="40.072893" lon="-105.2308537">
  <ele>1595.51</ele>
  <time>2026-08-28T19:11:26Z</time>
  <course>1.71</course>
  <speed>0.03</speed>
  <fix>3d</fix>
</trkpt>
<trkpt lat="40.0728929" lon="-105.2308537">
  <ele>1595.56</ele>
  <time>2026-08-28T19:11:26Z</time>
  <course>48.83</course>
  <speed>0.0</speed>
  <fix>3d</fix>
</trkpt>
<trkpt lat="40.0728931" lon="-105.2308537">
  <ele>1595.52</ele>
  <time>2026-08-28T19:11:26Z</time>
  <course>4.78</course>
  <speed>0.03</speed>
  <fix>3d</fix>
</trkpt>
<trkpt lat="40.072893" lon="-105.2308537">
  <ele>1595.57</ele>
  <time>2026-08-28T19:11:26Z</time>
  <course>48.86</course>
  <speed>0.01</speed>
  <fix>3d</fix>
</trkpt>
<trkpt lat="40.0728931" lon="-105.2308537">
  <ele>1595.52</ele>
  <time>2026-08-28T19:11:26Z</time>
  <course>8.76</course>
  <speed>0.03</speed>
  <fix>3d</fix>
</trkpt>
<trkpt lat="40.072893" lon="-105.2308537">
  <ele>1595.56</ele>
  <time>2026-08-28T19:11:26Z</time>
  <course>48.39</course>
  <speed>0.01</speed>
  <fix>3d</fix>
</trkpt>
<trkpt lat="40.0728932" lon="-105.2308537">
  <ele>1595.52</ele>
  <time>2026-08-28T19:11:26Z</time>
  <course>12.95</course>
  <speed>0.02</speed>
  <fix>3d</fix>
</trkpt>
<trkpt lat="40.0728931" lon="-105.2308536">
  <ele>1595.56</ele>
  <time>2026-08-28T19:11:26Z</time>
  <course>47.53</course>
  <speed>0.01</speed>
  <fix>3d</fix>
</trkpt>
<trkpt lat="40.0728932" lon="-105.2308537">
  <ele>1595.52</ele>
  <time>2026-08-28T19:11:26Z</time>
  <course>17.13</course>
  <speed>0.03</speed>
  <fix>3d</fix>
</trkpt>
<trkpt lat="40.0728931" lon="-105.2308536">
  <ele>1595.57</ele>
  <time>2026-08-28T19:11:26Z</time>
  <course>46.3</course>
  <speed>0.01</speed>
  <fix>3d</fix>
</trkpt>
<trkpt lat="40.0728933" lon="-105.2308537">
  <ele>1595.52</ele>
  <time>2026-08-28T19:11:26Z</time>
  <course>20.67</course>
  <speed>0.03</speed>
  <fix>3d</fix>
</trkpt>
<trkpt lat="40.0728932" lon="-105.2308536">
  <ele>1595.57</ele>
  <time>2026-08-28T19:11:26Z</time>
  <course>44.85</course>
  <speed>0.01</speed>
  <fix>3d</fix>
</trkpt>
<trkpt lat="40.0728934" lon="-105.2308536">
  <ele>1595.52</ele>
  <time>2026-08-28T19:11:26Z</time>
  <course>22.93</course>
  <speed>0.03</speed>
  <fix>3d</fix>
</trkpt>
<trkpt lat="40.0728932" lon="-105.2308536">
  <ele>1595.58</ele>
  <time>2026-08-28T19:11:26Z</time>
  <course>43.34</course>
  <speed>0.01414213562373095</speed>
  <fix>3d</fix>
</trkpt>
<trkpt lat="40.0728934" lon="-105.2308535">
  <ele>1595.53</ele>
  <time>2026-08-28T19:11:26Z</time>
  <course>23.1</course>
  <speed>0.03</speed>
  <fix>3d</fix>
</trkpt>
<trkpt lat="40.0728933" lon="-105.2308535">
  <ele>1595.58</ele>
  <time>2026-08-28T19:11:26Z</time>
  <course>41.95</course>
  <speed>0.01414213562373095</speed>
  <fix>3d</fix>
</trkpt>
<trkpt lat="40.0728935" lon="-105.2308535">
  <ele>1595.53</ele>
  <time>2026-08-28T19:11:26Z</time>
  <course>21.71</course>
  <speed>0.03</speed>
  <fix>3d</fix>
</trkpt>
<trkpt lat="40.0728934" lon="-105.2308535">
  <ele>1595.58</ele>
  <time>2026-08-28T19:11:26Z</time>
  <course>40.69</course>
  <speed>0.01414213562373095</speed>
  <fix>3d</fix>
</trkpt>
<trkpt lat="40.0728935" lon="-105.2308535">
  <ele>1595.53</ele>
  <time>2026-08-28T19:11:26Z</time>
  <course>19.53</course>
  <speed>0.03</speed>
  <fix>3d</fix>
</trkpt>
<trkpt lat="40.0728934" lon="-105.2308535">
  <ele>1595.58</ele>
  <time>2026-08-28T19:11:26Z</time>
  <course>39.74</course>
  <speed>0.01414213562373095</speed>
  <fix>3d</fix>
</trkpt>
<trkpt lat="40.0728936" lon="-105.2308535">
  <ele>1595.52</ele>
  <time>2026-08-28T19:11:26Z</time>
  <course>16.42</course>
  <speed>0.04</speed>
  <fix>3d</fix>
</trkpt>
<trkpt lat="40.0728935" lon="-105.2308534">
  <ele>1595.59</ele>
  <time>2026-08-28T19:11:26Z</time>
  <course>39.22</course>
  <speed>0.022360679774997897</speed>
  <fix>3d</fix>
</trkpt>
<trkpt lat="40.0728937" lon="-105.2308535">
  <ele>1595.52</ele>
  <time>2026-08-28T19:11:26Z</time>
  <course>12.96</course>
  <speed>0.04</speed>
  <fix>3d</fix>
</trkpt>
<trkpt lat="40.0728936" lon="-105.2308534">
  <ele>1595.59</ele>
  <time>2026-08-28T19:11:26Z</time>
  <course>39.2</course>
  <speed>0.022360679774997897</speed>
  <fix>3d</fix>
</trkpt>
<trkpt lat="40.0728937" lon="-105.2308535">
  <ele>1595.52</ele>
  <time>2026-08-28T19:11:26Z</time>
  <course>9.87</course>
  <speed>0.04</speed>
  <fix>3d</fix>
</trkpt>
<trkpt lat="40.0728937" lon="-105.2308534">
  <ele>1595.59</ele>
  <time>2026-08-28T19:11:26Z</time>
  <course>39.64</course>
  <speed>0.02</speed>
  <fix>3d</fix>
</trkpt>
<trkpt lat="40.0728938" lon="-105.2308535">
  <ele>1595.52</ele>
  <time>2026-08-28T19:11:26Z</time>
  <course>7.22</course>
  <speed>0.04</speed>
  <fix>3d</fix>
</trkpt>
<trkpt lat="40.0728937" lon="-105.2308534">
  <ele>1595.59</ele>
  <time>2026-08-28T19:11:26Z</time>
  <course>40.51</course>
  <speed>0.02</speed>
  <fix>3d</fix>
</trkpt>
<trkpt lat="40.0728939" lon="-105.2308535">
  <ele>1595.51</ele>
  <time>2026-08-28T19:11:26Z</time>
  <course>4.81</course>
  <speed>0.04</speed>
  <fix>3d</fix>
</trkpt>
<trkpt lat="40.0728938" lon="-105.2308534">
  <ele>1595.59</ele>
  <time>2026-08-28T19:11:26Z</time>
  <course>41.75</course>
  <speed>0.02</speed>
  <fix>3d</fix>
</trkpt>
<trkpt lat="40.072894" lon="-105.2308534">
  <ele>1595.51</ele>
  <time>2026-08-28T19:11:26Z</time>
  <course>3.01</course>
  <speed>0.04</speed>
  <fix>3d</fix>
</trkpt>
<trkpt lat="40.0728939" lon="-105.2308534">
  <ele>1595.59</ele>
  <time>2026-08-28T19:11:26Z</time>
  <course>43.19</course>
  <speed>0.02</speed>
  <fix>3d</fix>
</trkpt>
<trkpt lat="40.0728941" lon="-105.2308534">
  <ele>1595.51</ele>
  <time>2026-08-28T19:11:26Z</time>
  <course>2.29</course>
  <speed>0.04</speed>
  <fix>3d</fix>
</trkpt>
<trkpt lat="40.072894" lon="-105.2308534">
  <ele>1595.59</ele>
  <time>2026-08-28T19:11:26Z</time>
  <course>44.73</course>
  <speed>0.02</speed>
  <fix>3d</fix>
</trkpt>
<trkpt lat="40.0728942" lon="-105.2308534">
  <ele>1595.5</ele>
  <time>2026-08-28T19:11:26Z</time>
  <course>2.45</course>
  <speed>0.04</speed>
  <fix>3d</fix>
</trkpt>
<trkpt lat="40.0728941" lon="-105.2308534">
  <ele>1595.58</ele>
  <time>2026-08-28T19:11:26Z</time>
  <course>46.19</course>
  <speed>0.01</speed>
  <fix>3d</fix>
</trkpt>
<trkpt lat="40.0728942" lon="-105.2308534">
  <ele>1595.5</ele>
  <time>2026-08-28T19:11:26Z</time>
  <course>3.24</course>
  <speed>0.04</speed>
  <fix>3d</fix>
</trkpt>
<trkpt lat="40.0728941" lon="-105.2308534">
  <ele>1595.58</ele>
  <time>2026-08-28T19:11:26Z</time>
  <course>47.41</course>
  <speed>0.01</speed>
  <fix>3d</fix>
</trkpt>
<trkpt lat="40.0728943" lon="-105.2308534">
  <ele>1595.49</ele>
  <time>2026-08-28T19:11:26Z</time>
  <course>5.04</course>
  <speed>0.04</speed>
  <fix>3d</fix>
</trkpt>
<trkpt lat="40.0728942" lon="-105.2308534">
  <ele>1595.58</ele>
  <time>2026-08-28T19:11:26Z</time>
  <course>48.36</course>
  <speed>0.01414213562373095</speed>
  <fix>3d</fix>
</trkpt>
<trkpt lat="40.0728943" lon="-105.2308534">
  <ele>1595.49</ele>
  <time>2026-08-28T19:11:26Z</time>
  <course>7.84</course>
  <speed>0.03</speed>
  <fix>3d</fix>
</trkpt>
<trkpt lat="40.0728943" lon="-105.2308534">
  <ele>1595.57</ele>
  <time>2026-08-28T19:11:26Z</time>
  <course>48.87</course>
  <speed>0.01414213562373095</speed>
  <fix>3d</fix>
</trkpt>
<trkpt lat="40.0728944" lon="-105.2308534">
  <ele>1595.48</ele>
  <time>2026-08-28T19:11:26Z</time>
  <course>10.86</course>
  <speed>0.03</speed>
  <fix>3d</fix>
</trkpt>
<trkpt lat="40.0728943" lon="-105.2308533">
  <ele>1595.57</ele>
  <time>2026-08-28T19:11:26Z</time>
  <course>48.85</course>
  <speed>0.01414213562373095</speed>
  <fix>3d</fix>
</trkpt>
<trkpt lat="40.0728945" lon="-105.2308534">
  <ele>1595.48</ele>
  <time>2026-08-28T19:11:26Z</time>
  <course>14.1</course>
  <speed>0.03</speed>
  <fix>3d</fix>
</trkpt>
<trkpt lat="40.0728944" lon="-105.2308533">
  <ele>1595.56</ele>
  <time>2026-08-28T19:11:26Z</time>
  <course>48.43</course>
  <speed>0.01</speed>
  <fix>3d</fix>
</trkpt>
<trkpt lat="40.0728946" lon="-105.2308534">
  <ele>1595.48</ele>
  <time>2026-08-28T19:11:26Z</time>
  <course>16.88</course>
  <speed>0.03</speed>
  <fix>3d</fix>
</trkpt>
<trkpt lat="40.0728944" lon="-105.2308533">
  <ele>1595.57</ele>
  <time>2026-08-28T19:11:26Z</time>
  <course>47.55</course>
  <speed>0.01</speed>
  <fix>3d</fix>
</trkpt>
<trkpt lat="40.0728946" lon="-105.2308533">
  <ele>1595.48</ele>
  <time>2026-08-28T19:11:26Z</time>
  <course>19.23</course>
  <speed>0.03</speed>
  <fix>3d</fix>
</trkpt>
<trkpt lat="40.0728945" lon="-105.2308533">
  <ele>1595.56</ele>
  <time>2026-08-28T19:11:26Z</time>
  <course>46.31</course>
  <speed>0.01</speed>
  <fix>3d</fix>
</trkpt>
<trkpt lat="40.0728947" lon="-105.2308532">
  <ele>1595.48</ele>
  <time>2026-08-28T19:11:26Z</time>
  <course>21.13</course>
  <speed>0.03</speed>
  <fix>3d</fix>
</trkpt>
<trkpt lat="40.0728946" lon="-105.2308532">
  <ele>1595.56</ele>
  <time>2026-08-28T19:11:26Z</time>
  <course>44.86</course>
  <speed>0.01414213562373095</speed>
  <fix>3d</fix>
</trkpt>
<trkpt lat="40.0728948" lon="-105.2308532">
  <ele>1595.48</ele>
  <time>2026-08-28T19:11:26Z</time>
  <course>22.21</course>
  <speed>0.03</speed>
  <fix>3d</fix>
</trkpt>
<trkpt lat="40.0728946" lon="-105.2308532">
  <ele>1595.56</ele>
  <time>2026-08-28T19:11:26Z</time>
  <course>43.35</course>
  <speed>0.022360679774997897</speed>
  <fix>3d</fix>
</trkpt>
<trkpt lat="40.0728948" lon="-105.2308532">
  <ele>1595.48</ele>
  <time>2026-08-28T19:11:26Z</time>
  <course>22.62</course>
  <speed>0.03</speed>
  <fix>3d</fix>
</trkpt>
<trkpt lat="40.0728947" lon="-105.2308532">
  <ele>1595.56</ele>
  <time>2026-08-28T19:11:26Z</time>
  <course>41.87</course>
  <speed>0.01414213562373095</speed>
  <fix>3d</fix>
</trkpt>
<trkpt lat="40.0728949" lon="-105.2308532">
  <ele>1595.48</ele>
  <time>2026-08-28T19:11:26Z</time>
  <course>21.94</course>
  <speed>0.04</speed>
  <fix>3d</fix>
</trkpt>
<trkpt lat="40.0728948" lon="-105.2308531">
  <ele>1595.55</ele>
  <time>2026-08-28T19:11:26Z</time>
  <course>40.6</course>
  <speed>0.01414213562373095</speed>
  <fix>3d</fix>
</trkpt>
<trkpt lat="40.0728949" lon="-105.2308532">
  <ele>1595.48</ele>
  <time>2026-08-28T19:11:26Z</time>
  <course>20.4</course>
  <speed>0.04</speed>
  <fix>3d</fix>
</trkpt>
<trkpt lat="40.0728948" lon="-105.2308531">
  <ele>1595.55</ele>
  <time>2026-08-28T19:11:26Z</time>
  <course>39.65</course>
  <speed>0.022360679774997897</speed>
  <fix>3d</fix>
</trkpt>
<trkpt lat="40.072895" lon="-105.2308531">
  <ele>1595.48</ele>
  <time>2026-08-28T19:11:26Z</time>
  <course>18.0</course>
  <speed>0.04</speed>
  <fix>3d</fix>
</trkpt>
<trkpt lat="40.0728949" lon="-105.2308531">
  <ele>1595.55</ele>
  <time>2026-08-28T19:11:26Z</time>
  <course>39.16</course>
  <speed>0.022360679774997897</speed>
  <fix>3d</fix>
</trkpt>
<trkpt lat="40.0728951" lon="-105.230853">
  <ele>1595.48</ele>
  <time>2026-08-28T19:11:26Z</time>
  <course>14.91</course>
  <speed>0.04</speed>
  <fix>3d</fix>
</trkpt>
<trkpt lat="40.072895" lon="-105.230853">
  <ele>1595.55</ele>
  <time>2026-08-28T19:11:26Z</time>
  <course>39.12</course>
  <speed>0.022360679774997897</speed>
  <fix>3d</fix>
</trkpt>
<trkpt lat="40.0728952" lon="-105.230853">
  <ele>1595.49</ele>
  <time>2026-08-28T19:11:26Z</time>
  <course>11.23</course>
  <speed>0.04</speed>
  <fix>3d</fix>
</trkpt>
<trkpt lat="40.0728951" lon="-105.230853">
  <ele>1595.56</ele>
  <time>2026-08-28T19:11:26Z</time>
  <course>39.57</course>
  <speed>0.02</speed>
  <fix>3d</fix>
</trkpt>
<trkpt lat="40.0728953" lon="-105.230853">
  <ele>1595.49</ele>
  <time>2026-08-28T19:11:26Z</time>
  <course>7.28</course>
  <speed>0.04</speed>
  <fix>3d</fix>
</trkpt>
<trkpt lat="40.0728952" lon="-105.230853">
  <ele>1595.56</ele>
  <time>2026-08-28T19:11:26Z</time>
  <course>40.44</course>
  <speed>0.02</speed>
  <fix>3d</fix>
</trkpt>
<trkpt lat="40.0728953" lon="-105.230853">
  <ele>1595.49</ele>
  <time>2026-08-28T19:11:26Z</time>
  <course>3.97</course>
  <speed>0.04</speed>
  <fix>3d</fix>
</trkpt>
<trkpt lat="40.0728953" lon="-105.230853">
  <ele>1595.56</ele>
  <time>2026-08-28T19:11:26Z</time>
  <course>41.66</course>
  <speed>0.02</speed>
  <fix>3d</fix>
</trkpt>
<trkpt lat="40.0728954" lon="-105.230853">
  <ele>1595.5</ele>
  <time>2026-08-28T19:11:26Z</time>
  <course>1.76</course>
  <speed>0.04</speed>
  <fix>3d</fix>
</trkpt>
<trkpt lat="40.0728953" lon="-105.230853">
  <ele>1595.56</ele>
  <time>2026-08-28T19:11:26Z</time>
  <course>43.09</course>
  <speed>0.02</speed>
  <fix>3d</fix>
</trkpt>
<trkpt lat="40.0728955" lon="-105.230853">
  <ele>1595.5</ele>
  <time>2026-08-28T19:11:26Z</time>
  <course>0.39</course>
  <speed>0.04</speed>
  <fix>3d</fix>
</trkpt>
<trkpt lat="40.0728954" lon="-105.230853">
  <ele>1595.56</ele>
  <time>2026-08-28T19:11:26Z</time>
  <course>44.64</course>
  <speed>0.02</speed>
  <fix>3d</fix>
</trkpt>
<trkpt lat="40.0728956" lon="-105.230853">
  <ele>1595.5</ele>
  <time>2026-08-28T19:11:26Z</time>
  <course>359.66</course>
  <speed>0.04</speed>
  <fix>3d</fix>
</trkpt>
<trkpt lat="40.0728955" lon="-105.230853">
  <ele>1595.57</ele>
  <time>2026-08-28T19:11:26Z</time>
  <course>46.11</course>
  <speed>0.01</speed>
  <fix>3d</fix>
</trkpt>
<trkpt lat="40.0728957" lon="-105.230853">
  <ele>1595.51</ele>
  <time>2026-08-28T19:11:26Z</time>
  <course>359.72</course>
  <speed>0.04</speed>
  <fix>3d</fix>
</trkpt>
<trkpt lat="40.0728956" lon="-105.230853">
  <ele>1595.57</ele>
  <time>2026-08-28T19:11:26Z</time>
  <course>47.4</course>
  <speed>0.01</speed>
  <fix>3d</fix>
</trkpt>
<trkpt lat="40.0728958" lon="-105.230853">
  <ele>1595.51</ele>
  <time>2026-08-28T19:11:26Z</time>
  <course>0.48</course>
  <speed>0.04</speed>
  <fix>3d</fix>
</trkpt>
<trkpt lat="40.0728957" lon="-105.230853">
  <ele>1595.58</ele>
  <time>2026-08-28T19:11:26Z</time>
  <course>48.35</course>
  <speed>0.01</speed>
  <fix>3d</fix>
</trkpt>
<trkpt lat="40.0728958" lon="-105.230853">
  <ele>1595.51</ele>
  <time>2026-08-28T19:11:26Z</time>
  <course>2.18</course>
  <speed>0.04</speed>
  <fix>3d</fix>
</trkpt>
<trkpt lat="40.0728957" lon="-105.230853">
  <ele>1595.58</ele>
  <time>2026-08-28T19:11:26Z</time>
  <course>48.86</course>
  <speed>0.01414213562373095</speed>
  <fix>3d</fix>
</trkpt>
<trkpt lat="40.0728959" lon="-105.230853">
  <ele>1595.51</ele>
  <time>2026-08-28T19:11:26Z</time>
  <course>4.6</course>
  <speed>0.03</speed>
  <fix>3d</fix>
</trkpt>
<trkpt lat="40.0728958" lon="-105.230853">
  <ele>1595.58</ele>
  <time>2026-08-28T19:11:26Z</time>
  <course>48.89</course>
  <speed>0.01414213562373095</speed>
  <fix>3d</fix>
</trkpt>
<trkpt lat="40.072896" lon="-105.230853">
  <ele>1595.51</ele>
  <time>2026-08-28T19:11:26Z</time>
  <course>8.07</course>
  <speed>0.03</speed>
  <fix>3d</fix>
</trkpt>
<trkpt lat="40.0728959" lon="-105.230853">
  <ele>1595.59</ele>
  <time>2026-08-28T19:11:26Z</time>
  <course>48.48</course>
  <speed>0.01414213562373095</speed>
  <fix>3d</fix>
</trkpt>
<trkpt lat="40.072896" lon="-105.230853">
  <ele>1595.51</ele>
  <time>2026-08-28T19:11:26Z</time>
  <course>12.3</course>
  <speed>0.03</speed>
  <fix>3d</fix>
</trkpt>
<trkpt lat="40.0728959" lon="-105.2308529">
  <ele>1595.59</ele>
  <time>2026-08-28T19:11:26Z</time>
  <course>47.62</course>
  <speed>0.01414213562373095</speed>
  <fix>3d</fix>
</trkpt>
<trkpt lat="40.0728961" lon="-105.230853">
  <ele>1595.51</ele>
  <time>2026-08-28T19:11:26Z</time>
  <course>16.71</course>
  <speed>0.03</speed>
  <fix>3d</fix>
</trkpt>
<trkpt lat="40.072896" lon="-105.2308529">
  <ele>1595.59</ele>
  <time>2026-08-28T19:11:26Z</time>
  <course>46.41</course>
  <speed>0.022360679774997897</speed>
  <fix>3d</fix>
</trkpt>
<trkpt lat="40.0728961" lon="-105.230853">
  <ele>1595.5</ele>
  <time>2026-08-28T19:11:26Z</time>
  <course>20.9</course>
  <speed>0.03</speed>
  <fix>3d</fix>
</trkpt>
<trkpt lat="40.072896" lon="-105.2308529">
  <ele>1595.59</ele>
  <time>2026-08-28T19:11:26Z</time>
  <course>44.97</course>
  <speed>0.022360679774997897</speed>
  <fix>3d</fix>
</trkpt>
<trkpt lat="40.0728962" lon="-105.2308529">
  <ele>1595.5</ele>
  <time>2026-08-28T19:11:26Z</time>
  <course>24.09</course>
  <speed>0.03</speed>
  <fix>3d</fix>
</trkpt>
<trkpt lat="40.0728961" lon="-105.2308528">
  <ele>1595.59</ele>
  <time>2026-08-28T19:11:26Z</time>
  <course>43.45</course>
  <speed>0.022360679774997897</speed>
  <fix>3d</fix>
</trkpt>
<trkpt lat="40.0728963" lon="-105.2308529">
  <ele>1595.49</ele>
  <time>2026-08-28T19:11:26Z</time>
  <course>25.71</course>
  <speed>0.03</speed>
  <fix>3d</fix>
</trkpt>
<trkpt lat="40.0728962" lon="-105.2308528">
  <ele>1595.59</ele>
  <time>2026-08-28T19:11:26Z</time>
  <course>41.95</course>
  <speed>0.022360679774997897</speed>
  <fix>3d</fix>
</trkpt>
<trkpt lat="40.0728964" lon="-105.2308528">
  <ele>1595.49</ele>
  <time>2026-08-28T19:11:26Z</time>
  <course>25.93</course>
  <speed>0.04</speed>
  <fix>3d</fix>
</trkpt>
<trkpt lat="40.0728962" lon="-105.2308528">
  <ele>1595.58</ele>
  <time>2026-08-28T19:11:26Z</time>
  <course>40.68</course>
  <speed>0.022360679774997897</speed>
  <fix>3d</fix>
</trkpt>
<trkpt lat="40.0728964" lon="-105.2308527">
  <ele>1595.48</ele>
  <time>2026-08-28T19:11:26Z</time>
  <course>24.63</course>
  <speed>0.04</speed>
  <fix>3d</fix>
</trkpt>
<trkpt lat="40.0728963" lon="-105.2308527">
  <ele>1595.58</ele>
  <time>2026-08-28T19:11:26Z</time>
  <course>39.75</course>
  <speed>0.01414213562373095</speed>
  <fix>3d</fix>
</trkpt>
<trkpt lat="40.0728965" lon="-105.2308527">
  <ele>1595.48</ele>
  <time>2026-08-28T19:11:26Z</time>
  <course>21.91</course>
  <speed>0.04</speed>
  <fix>3d</fix>
</trkpt>
<trkpt lat="40.0728964" lon="-105.2308527">
  <ele>1595.58</ele>
  <time>2026-08-28T19:11:26Z</time>
  <course>39.24</course>
  <speed>0.022360679774997897</speed>
  <fix>3d</fix>
</trkpt>
<trkpt lat="40.0728966" lon="-105.2308527">
  <ele>1595.48</ele>
  <time>2026-08-28T19:11:26Z</time>
  <course>18.41</course>
  <speed>0.04</speed>
  <fix>3d</fix>
</trkpt>
<trkpt lat="40.0728965" lon="-105.2308527">
  <ele>1595.57</ele>
  <time>2026-08-28T19:11:26Z</time>
  <course>39.18</course>
  <speed>0.022360679774997897</speed>
  <fix>3d</fix>
</trkpt>
<trkpt lat="40.0728966" lon="-105.2308527">
  <ele>1595.47</ele>
  <time>2026-08-28T19:11:26Z</time>
  <course>14.32</course>
  <speed>0.04</speed>
  <fix>3d</fix>
</trkpt>
<trkpt lat="40.0728966" lon="-105.2308526">
  <ele>1595.57</ele>
  <time>2026-08-28T19:11:26Z</time>
  <course>39.61</course>
  <speed>0.022360679774997897</speed>
  <fix>3d</fix>
</trkpt>
<trkpt lat="40.0728967" lon="-105.2308527">
  <ele>1595.47</ele>
  <time>2026-08-28T19:11:26Z</time>
  <course>10.4</course>
  <speed>0.04</speed>
  <fix>3d</fix>
</trkpt>
<trkpt lat="40.0728966" lon="-105.2308526">
  <ele>1595.57</ele>
  <time>2026-08-28T19:11:26Z</time>
  <course>40.47</course>
  <speed>0.02</speed>
  <fix>3d</fix>
</trkpt>
<trkpt lat="40.0728968" lon="-105.2308527">
  <ele>1595.47</ele>
  <time>2026-08-28T19:11:26Z</time>
  <course>6.78</course>
  <speed>0.04</speed>
  <fix>3d</fix>
</trkpt>
<trkpt lat="40.0728967" lon="-105.2308526">
  <ele>1595.57</ele>
  <time>2026-08-28T19:11:26Z</time>
  <course>41.73</course>
  <speed>0.02</speed>
  <fix>3d</fix>
</trkpt>
<trkpt lat="40.0728969" lon="-105.2308527">
  <ele>1595.46</ele>
  <time>2026-08-28T19:11:26Z</time>
  <course>3.33</course>
  <speed>0.04</speed>
  <fix>3d</fix>
</trkpt>
<trkpt lat="40.0728968" lon="-105.2308526">
  <ele>1595.57</ele>
  <time>2026-08-28T19:11:26Z</time>
  <course>43.18</course>
  <speed>0.02</speed>
  <fix>3d</fix>
</trkpt>
<trkpt lat="40.072897" lon="-105.2308527">
  <ele>1595.46</ele>
  <time>2026-08-28T19:11:26Z</time>
  <course>0.56</course>
  <speed>0.04</speed>
  <fix>3d</fix>
</trkpt>
<trkpt lat="40.0728969" lon="-105.2308526">
  <ele>1595.57</ele>
  <time>2026-08-28T19:11:26Z</time>
  <course>44.69</course>
  <speed>0.02</speed>
  <fix>3d</fix>
</trkpt>
<trkpt lat="40.072897" lon="-105.2308527">
  <ele>1595.46</ele>
  <time>2026-08-28T19:11:26Z</time>
  <course>358.46</course>
  <speed>0.04</speed>
  <fix>3d</fix>
</trkpt>
<trkpt lat="40.072897" lon="-105.2308526">
  <ele>1595.57</ele>
  <time>2026-08-28T19:11:26Z</time>
  <course>46.14</course>
  <speed>0.01</speed>
  <fix>3d</fix>
</trkpt>
<trkpt lat="40.0728971" lon="-105.2308527">
  <ele>1595.46</ele>
  <time>2026-08-28T19:11:26Z</time>
  <course>357.25</course>
  <speed>0.04</speed>
  <fix>3d</fix>
</trkpt>
<trkpt lat="40.072897" lon="-105.2308526">
  <ele>1595.57</ele>
  <time>2026-08-28T19:11:26Z</time>
  <course>47.4</course>
  <speed>0.01</speed>
  <fix>3d</fix>
</trkpt>
<trkpt lat="40.0728972" lon="-105.2308527">
  <ele>1595.46</ele>
  <time>2026-08-28T19:11:26Z</time>
  <course>357.93</course>
  <speed>0.03</speed>
  <fix>3d</fix>
</trkpt>
<trkpt lat="40.0728971" lon="-105.2308526">
  <ele>1595.57</ele>
  <time>2026-08-28T19:11:26Z</time>
  <course>48.34</course>
  <speed>0.01</speed>
  <fix>3d</fix>
</trkpt>
<trkpt lat="40.0728973" lon="-105.2308527">
  <ele>1595.46</ele>
  <time>2026-08-28T19:11:26Z</time>
  <course>0.62</course>
  <speed>0.03</speed>
  <fix>3d</fix>
</trkpt>
<trkpt lat="40.0728972" lon="-105.2308526">
  <ele>1595.57</ele>
  <time>2026-08-28T19:11:26Z</time>
  <course>48.85</course>
  <speed>0.01</speed>
  <fix>3d</fix>
</trkpt>
<trkpt lat="40.0728973" lon="-105.2308527">
  <ele>1595.46</ele>
  <time>2026-08-28T19:11:26Z</time>
  <course>4.28</course>
  <speed>0.03</speed>
  <fix>3d</fix>
</trkpt>
<trkpt lat="40.0728972" lon="-105.2308526">
  <ele>1595.57</ele>
  <time>2026-08-28T19:11:26Z</time>
  <course>48.9</course>
  <speed>0.01</speed>
  <fix>3d</fix>
</trkpt>
<trkpt lat="40.0728974" lon="-105.2308526">
  <ele>1595.46</ele>
  <time>2026-08-28T19:11:26Z</time>
  <course>8.96</course>
  <speed>0.03</speed>
  <fix>3d</fix>
</trkpt>
<trkpt lat="40.0728973" lon="-105.2308526">
  <ele>1595.58</ele>
  <time>2026-08-28T19:11:26Z</time>
  <course>48.46</course>
  <speed>0.01</speed>
  <fix>3d</fix>
</trkpt>
<trkpt lat="40.0728974" lon="-105.2308525">
  <ele>1595.45</ele>
  <time>2026-08-28T19:11:26Z</time>
  <course>14.77</course>
  <speed>0.03</speed>
  <fix>3d</fix>
</trkpt>
<trkpt lat="40.0728973" lon="-105.2308526">
  <ele>1595.58</ele>
  <time>2026-08-28T19:11:26Z</time>
  <course>47.6</course>
  <speed>0.01</speed>
  <fix>3d</fix>
</trkpt>
<trkpt lat="40.0728975" lon="-105.2308525">
  <ele>1595.45</ele>
  <time>2026-08-28T19:11:26Z</time>
  <course>19.94</course>
  <speed>0.03</speed>
  <fix>3d</fix>
</trkpt>
<trkpt lat="40.0728974" lon="-105.2308525">
  <ele>1595.57</ele>
  <time>2026-08-28T19:11:26Z</time>
  <course>46.4</course>
  <speed>0.022360679774997897</speed>
  <fix>3d</fix>
</trkpt>
<trkpt lat="40.0728976" lon="-105.2308525">
  <ele>1595.45</ele>
  <time>2026-08-28T19:11:26Z</time>
  <course>23.13</course>
  <speed>0.03</speed>
  <fix>3d</fix>
</trkpt>
<trkpt lat="40.0728974" lon="-105.2308525">
  <ele>1595.57</ele>
  <time>2026-08-28T19:11:26Z</time>
  <course>44.93</course>
  <speed>0.022360679774997897</speed>
  <fix>3d</fix>
</trkpt>
<trkpt lat="40.0728976" lon="-105.2308525">
  <ele>1595.45</ele>
  <time>2026-08-28T19:11:26Z</time>
  <course>24.77</course>
  <speed>0.03</speed>
  <fix>3d</fix>
</trkpt>
<trkpt lat="40.0728975" lon="-105.2308525">
  <ele>1595.57</ele>
  <time>2026-08-28T19:11:26Z</time>
  <course>43.37</course>
  <speed>0.022360679774997897</speed>
  <fix>3d</fix>
</trkpt>
<trkpt lat="40.0728977" lon="-105.2308525">
  <ele>1595.45</ele>
  <time>2026-08-28T19:11:26Z</time>
  <course>24.89</course>
  <speed>0.03</speed>
  <fix>3d</fix>
</trkpt>
<trkpt lat="40.0728976" lon="-105.2308524">
  <ele>1595.57</ele>
  <time>2026-08-28T19:11:26Z</time>
  <course>41.93</course>
  <speed>0.022360679774997897</speed>
  <fix>3d</fix>
</trkpt>
<trkpt lat="40.0728978" lon="-105.2308524">
  <ele>1595.44</ele>
  <time>2026-08-28T19:11:26Z</time>
  <course>23.45</course>
  <speed>0.04</speed>
  <fix>3d</fix>
</trkpt>
<trkpt lat="40.0728977" lon="-105.2308524">
  <ele>1595.56</ele>
  <time>2026-08-28T19:11:26Z</time>
  <course>40.64</course>
  <speed>0.01414213562373095</speed>
  <fix>3d</fix>
</trkpt>
<trkpt lat="40.0728978" lon="-105.2308523">
  <ele>1595.44</ele>
  <time>2026-08-28T19:11:26Z</time>
  <course>21.11</course>
  <speed>0.04</speed>
  <fix>3d</fix>
</trkpt>
<trkpt lat="40.0728977" lon="-105.2308523">
  <ele>1595.56</ele>
  <time>2026-08-28T19:11:26Z</time>
  <course>39.71</course>
  <speed>0.01414213562373095</speed>
  <fix>3d</fix>
</trkpt>
<trkpt lat="40.0728979" lon="-105.2308523">
  <ele>1595.44</ele>
  <time>2026-08-28T19:11:26Z</time>
  <course>18.1</course>
  <speed>0.04</speed>
  <fix>3d</fix>
</trkpt>
<trkpt lat="40.0728978" lon="-105.2308523">
  <ele>1595.55</ele>
  <time>2026-08-28T19:11:26Z</time>
  <course>39.18</course>
  <speed>0.022360679774997897</speed>
  <fix>3d</fix>
</trkpt>
<trkpt lat="40.072898" lon="-105.2308523">
  <ele>1595.44</ele>
  <time>2026-08-28T19:11:26Z</time>
  <course>14.93</course>
  <speed>0.04</speed>
  <fix>3d</fix>
</trkpt>
<trkpt lat="40.0728979" lon="-105.2308523">
  <ele>1595.55</ele>
  <time>2026-08-28T19:11:26Z</time>
  <course>39.14</course>
  <speed>0.022360679774997897</speed>
  <fix>3d</fix>
</trkpt>
<trkpt lat="40.072898" lon="-105.2308523">
  <ele>1595.44</ele>
  <time>2026-08-28T19:11:26Z</time>
  <course>11.59</course>
  <speed>0.04</speed>
  <fix>3d</fix>
</trkpt>
<trkpt lat="40.072898" lon="-105.2308523">
  <ele>1595.55</ele>
  <time>2026-08-28T19:11:26Z</time>
  <course>39.55</course>
  <speed>0.02</speed>
  <fix>3d</fix>
</trkpt>
<trkpt lat="40.0728981" lon="-105.2308523">
  <ele>1595.44</ele>
  <time>2026-08-28T19:11:26Z</time>
  <course>7.93</course>
  <speed>0.04</speed>
  <fix>3d</fix>
</trkpt>
<trkpt lat="40.072898" lon="-105.2308523">
  <ele>1595.55</ele>
  <time>2026-08-28T19:11:26Z</time>
  <course>40.44</course>
  <speed>0.02</speed>
  <fix>3d</fix>
</trkpt>
<trkpt lat="40.0728982" lon="-105.2308523">
  <ele>1595.44</ele>
  <time>2026-08-28T19:11:26Z</time>
  <course>4.21</course>
  <speed>0.04</speed>
  <fix>3d</fix>
</trkpt>
<trkpt lat="40.0728981" lon="-105.2308523">
  <ele>1595.56</ele>
  <time>2026-08-28T19:11:26Z</time>
  <course>41.65</course>
  <speed>0.02</speed>
  <fix>3d</fix>
</trkpt>
<trkpt lat="40.0728983" lon="-105.2308523">
  <ele>1595.45</ele>
  <time>2026-08-28T19:11:26Z</time>
  <course>1.16</course>
  <speed>0.04</speed>
  <fix>3d</fix>
</trkpt>
<trkpt lat="40.0728982" lon="-105.2308523">
  <ele>1595.56</ele>
  <time>2026-08-28T19:11:27Z</time>
  <course>43.1</course>
  <speed>0.02</speed>
  <fix>3d</fix>
</trkpt>
<trkpt lat="40.0728984" lon="-105.2308523">
  <ele>1595.45</ele>
  <time>2026-08-28T19:11:27Z</time>
  <course>359.32</course>
  <speed>0.04</speed>
  <fix>3d</fix>
</trkpt>
<trkpt lat="40.0728983" lon="-105.2308523">
  <ele>1595.56</ele>
  <time>2026-08-28T19:11:27Z</time>
  <course>44.65</course>
  <speed>0.02</speed>
  <fix>3d</fix>
</trkpt>
<trkpt lat="40.0728985" lon="-105.2308523">
  <ele>1595.45</ele>
  <time>2026-08-28T19:11:27Z</time>
  <course>358.68</course>
  <speed>0.04</speed>
  <fix>3d</fix>
</trkpt>
<trkpt lat="40.0728984" lon="-105.2308523">
  <ele>1595.56</ele>
  <time>2026-08-28T19:11:27Z</time>
  <course>46.1</course>
  <speed>0.01</speed>
  <fix>3d</fix>
</trkpt>
<trkpt lat="40.0728985" lon="-105.2308523">
  <ele>1595.46</ele>
  <time>2026-08-28T19:11:27Z</time>
  <course>359.01</course>
  <speed>0.04</speed>
  <fix>3d</fix>
</trkpt>
<trkpt lat="40.0728984" lon="-105.2308523">
  <ele>1595.56</ele>
  <time>2026-08-28T19:11:27Z</time>
  <course>47.37</course>
  <speed>0.01</speed>
  <fix>3d</fix>
</trkpt>
<trkpt lat="40.0728986" lon="-105.2308523">
  <ele>1595.46</ele>
  <time>2026-08-28T19:11:27Z</time>
  <course>0.0</course>
  <speed>0.04</speed>
  <fix>3d</fix>
</trkpt>
<trkpt lat="40.0728985" lon="-105.2308523">
  <ele>1595.56</ele>
  <time>2026-08-28T19:11:27Z</time>
  <course>48.31</course>
  <speed>0.01</speed>
  <fix>3d</fix>
</trkpt>
<trkpt lat="40.0728987" lon="-105.2308523">
  <ele>1595.46</ele>
  <time>2026-08-28T19:11:27Z</time>
  <course>2.65</course>
  <speed>0.03</speed>
  <fix>3d</fix>
</trkpt>
<trkpt lat="40.0728986" lon="-105.2308523">
  <ele>1595.56</ele>
  <time>2026-08-28T19:11:27Z</time>
  <course>48.82</course>
  <speed>0.01414213562373095</speed>
  <fix>3d</fix>
</trkpt>
<trkpt lat="40.0728988" lon="-105.2308523">
  <ele>1595.46</ele>
  <time>2026-08-28T19:11:27Z</time>
  <course>6.37</course>
  <speed>0.03</speed>
  <fix>3d</fix>
</trkpt>
<trkpt lat="40.0728986" lon="-105.2308522">
  <ele>1595.56</ele>
  <time>2026-08-28T19:11:27Z</time>
  <course>48.86</course>
  <speed>0.01414213562373095</speed>
  <fix>3d</fix>
</trkpt>
<trkpt lat="40.0728988" lon="-105.2308523">
  <ele>1595.47</ele>
  <time>2026-08-28T19:11:27Z</time>
  <course>10.11</course>
  <speed>0.03</speed>
  <fix>3d</fix>
</trkpt>
<trkpt lat="40.0728987" lon="-105.2308522">
  <ele>1595.56</ele>
  <time>2026-08-28T19:11:27Z</time>
  <course>48.39</course>
  <speed>0.01414213562373095</speed>
  <fix>3d</fix>
</trkpt>
<trkpt lat="40.0728989" lon="-105.2308523">
  <ele>1595.47</ele>
  <time>2026-08-28T19:11:27Z</time>
  <course>14.25</course>
  <speed>0.03</speed>
  <fix>3d</fix>
</trkpt>
<trkpt lat="40.0728988" lon="-105.2308522">
  <ele>1595.56</ele>
  <time>2026-08-28T19:11:27Z</time>
  <course>47.54</course>
  <speed>0.01414213562373095</speed>
  <fix>3d</fix>
</trkpt>
<trkpt lat="40.0728989" lon="-105.2308522">
  <ele>1595.47</ele>
  <time>2026-08-28T19:11:27Z</time>
  <course>17.91</course>
  <speed>0.03</speed>
  <fix>3d</fix>
</trkpt>
<trkpt lat="40.0728988" lon="-105.2308522">
  <ele>1595.56</ele>
  <time>2026-08-28T19:11:27Z</time>
  <course>46.3</course>
  <speed>0.01414213562373095</speed>
  <fix>3d</fix>
</trkpt>
<trkpt lat="40.072899" lon="-105.2308522">
  <ele>1595.47</ele>
  <time>2026-08-28T19:11:27Z</time>
  <course>21.28</course>
  <speed>0.03</speed>
  <fix>3d</fix>
</trkpt>
<trkpt lat="40.0728989" lon="-105.2308521">
  <ele>1595.56</ele>
  <time>2026-08-28T19:11:27Z</time>
  <course>44.85</course>
  <speed>0.022360679774997897</speed>
  <fix>3d</fix>
</trkpt>
<trkpt lat="40.0728991" lon="-105.2308522">
  <ele>1595.48</ele>
  <time>2026-08-28T19:11:27Z</time>
  <course>24.12</course>
  <speed>0.03</speed>
  <fix>3d</fix>
</trkpt>
<trkpt lat="40.0728989" lon="-105.2308521">
  <ele>1595.56</ele>
  <time>2026-08-28T19:11:27Z</time>
  <course>43.33</course>
  <speed>0.022360679774997897</speed>
  <fix>3d</fix>
</trkpt>
<trkpt lat="40.0728991" lon="-105.2308521">
  <ele>1595.48</ele>
  <time>2026-08-28T19:11:27Z</time>
  <course>24.91</course>
  <speed>0.03</speed>
  <fix>3d</fix>
</trkpt>
<trkpt lat="40.072899" lon="-105.2308521">
  <ele>1595.56</ele>
  <time>2026-08-28T19:11:27Z</time>
  <course>41.87</course>
  <speed>0.022360679774997897</speed>
  <fix>3d</fix>
</trkpt>
<trkpt lat="40.0728992" lon="-105.230852">
  <ele>1595.48</ele>
  <time>2026-08-28T19:11:27Z</time>
  <course>23.98</course>
  <speed>0.04</speed>
  <fix>3d</fix>
</trkpt>
<trkpt lat="40.0728991" lon="-105.230852">
  <ele>1595.56</ele>
  <time>2026-08-28T19:11:27Z</time>
  <course>40.59</course>
  <speed>0.01414213562373095</speed>
  <fix>3d</fix>
</trkpt>
<trkpt lat="40.0728992" lon="-105.230852">
  <ele>1595.48</ele>
  <time>2026-08-28T19:11:27Z</time>
  <course>22.19</course>
  <speed>0.04</speed>
  <fix>3d</fix>
</trkpt>
<trkpt lat="40.0728992" lon="-105.230852">
  <ele>1595.57</ele>
  <time>2026-08-28T19:11:27Z</time>
  <course>39.69</course>
  <speed>0.01414213562373095</speed>
  <fix>3d</fix>
</trkpt>
<trkpt lat="40.0728993" lon="-105.230852">
  <ele>1595.49</ele>
  <time>2026-08-28T19:11:27Z</time>
  <course>19.33</course>
  <speed>0.04</speed>
  <fix>3d</fix>
</trkpt>
<trkpt lat="40.0728992" lon="-105.230852">
  <ele>1595.57</ele>
  <time>2026-08-28T19:11:27Z</time>
  <course>39.19</course>
  <speed>0.022360679774997897</speed>
  <fix>3d</fix>
</trkpt>
<trkpt lat="40.0728994" lon="-105.230852">
  <ele>1595.49</ele>
  <time>2026-08-28T19:11:27Z</time>
  <course>15.83</course>
  <speed>0.04</speed>
  <fix>3d</fix>
</trkpt>
<trkpt lat="40.0728993" lon="-105.2308519">
  <ele>1595.58</ele>
  <time>2026-08-28T19:11:27Z</time>
  <course>39.11</course>
  <speed>0.022360679774997897</speed>
  <fix>3d</fix>
</trkpt>
<trkpt lat="40.0728995" lon="-105.230852">
  <ele>1595.49</ele>
  <time>2026-08-28T19:11:27Z</time>
  <course>12.55</course>
  <speed>0.04</speed>
  <fix>3d</fix>
</trkpt>
<trkpt lat="40.0728994" lon="-105.2308519">
  <ele>1595.58</ele>
  <time>2026-08-28T19:11:27Z</time>
  <course>39.09</course>
  <speed>0.022360679774997897</speed>
  <fix>3d</fix>
</trkpt>
<trkpt lat="40.0728996" lon="-105.230852">
  <ele>1595.49</ele>
  <time>2026-08-28T19:11:27Z</time>
  <course>11.31</course>
  <speed>0.04</speed>
  <fix>3d</fix>
</trkpt>
<trkpt lat="40.0728995" lon="-105.2308519">
  <ele>1595.58</ele>
  <time>2026-08-28T19:11:27Z</time>
  <course>39.09</course>
  <speed>0.022360679774997897</speed>
  <fix>3d</fix>
</trkpt>
<trkpt lat="40.0728996" lon="-105.2308519">
  <ele>1595.49</ele>
  <time>2026-08-28T19:11:27Z</time>
  <course>12.56</course>
  <speed>0.04</speed>
  <fix>3d</fix>
</trkpt>
<trkpt lat="40.0728996" lon="-105.2308519">
  <ele>1595.58</ele>
  <time>2026-08-28T19:11:27Z</time>
  <course>39.09</course>
  <speed>0.0316227766016838</speed>
  <fix>3d</fix>
</trkpt>
<trkpt lat="40.0728997" lon="-105.2308518">
  <ele>1595.49</ele>
  <time>2026-08-28T19:11:27Z</time>
  <course>13.95</course>
  <speed>0.05</speed>
  <fix>3d</fix>
</trkpt>
<trkpt lat="40.0728997" lon="-105.2308518">
  <ele>1595.58</ele>
  <time>2026-08-28T19:11:27Z</time>
  <course>39.08</course>
  <speed>0.0316227766016838</speed>
  <fix>3d</fix>
</trkpt>
<trkpt lat="40.0728998" lon="-105.2308518">
  <ele>1595.49</ele>
  <time>2026-08-28T19:11:27Z</time>
  <course>15.13</course>
  <speed>0.05</speed>
  <fix>3d</fix>
</trkpt>
<trkpt lat="40.0728998" lon="-105.2308518">
  <ele>1595.57</ele>
  <time>2026-08-28T19:11:27Z</time>
  <course>39.07</course>
  <speed>0.03605551275463989</speed>
  <fix>3d</fix>
</trkpt>
<trkpt lat="40.0728999" lon="-105.2308518">
  <ele>1595.49</ele>
  <time>2026-08-28T19:11:27Z</time>
  <course>16.42</course>
  <speed>0.05</speed>
  <fix>3d</fix>
</trkpt>
<trkpt lat="40.0728999" lon="-105.2308517">
  <ele>1595.57</ele>
  <time>2026-08-28T19:11:27Z</time>
  <course>39.07</course>
  <speed>0.044721359549995794</speed>
  <fix>3d</fix>
</trkpt>
<trkpt lat="40.0729" lon="-105.2308518">
  <ele>1595.49</ele>
  <time>2026-08-28T19:11:27Z</time>
  <course>17.45</course>
  <speed>0.06</speed>
  <fix>3d</fix>
</trkpt>
<trkpt lat="40.0729" lon="-105.2308517">
  <ele>1595.56</ele>
  <time>2026-08-28T19:11:27Z</time>
  <course>39.07</course>
  <speed>0.044721359549995794</speed>
  <fix>3d</fix>
</trkpt>
<trkpt lat="40.0729001" lon="-105.2308517">
  <ele>1595.49</ele>
  <time>2026-08-28T19:11:27Z</time>
  <course>18.01</course>
  <speed>0.06</speed>
  <fix>3d</fix>
</trkpt>
<trkpt lat="40.0729001" lon="-105.2308516">
  <ele>1595.56</ele>
  <time>2026-08-28T19:11:27Z</time>
  <course>39.06</course>
  <speed>0.044721359549995794</speed>
  <fix>3d</fix>
</trkpt>
<trkpt lat="40.0729003" lon="-105.2308517">
  <ele>1595.49</ele>
  <time>2026-08-28T19:11:27Z</time>
  <course>18.33</course>
  <speed>0.06</speed>
  <fix>3d</fix>
</trkpt>
<trkpt lat="40.0729002" lon="-105.2308516">
  <ele>1595.56</ele>
  <time>2026-08-28T19:11:27Z</time>
  <course>39.07</course>
  <speed>0.044721359549995794</speed>
  <fix>3d</fix>
</trkpt>
<trkpt lat="40.0729004" lon="-105.2308516">
  <ele>1595.49</ele>
  <time>2026-08-28T19:11:27Z</time>
  <course>18.79</course>
  <speed>0.07</speed>
  <fix>3d</fix>
</trkpt>
<trkpt lat="40.0729004" lon="-105.2308515">
  <ele>1595.56</ele>
  <time>2026-08-28T19:11:27Z</time>
  <course>39.06</course>
  <speed>0.053851648071345036</speed>
  <fix>3d</fix>
</trkpt>
<trkpt lat="40.0729005" lon="-105.2308516">
  <ele>1595.49</ele>
  <time>2026-08-28T19:11:27Z</time>
  <course>19.39</course>
  <speed>0.07</speed>
  <fix>3d</fix>
</trkpt>
<trkpt lat="40.0729005" lon="-105.2308515">
  <ele>1595.56</ele>
  <time>2026-08-28T19:11:27Z</time>
  <course>39.06</course>
  <speed>0.05830951894845301</speed>
  <fix>3d</fix>
</trkpt>
<trkpt lat="40.0729006" lon="-105.2308515">
  <ele>1595.49</ele>
  <time>2026-08-28T19:11:27Z</time>
  <course>20.03</course>
  <speed>0.07</speed>
  <fix>3d</fix>
</trkpt>
<trkpt lat="40.0729006" lon="-105.2308514">
  <ele>1595.56</ele>
  <time>2026-08-28T19:11:27Z</time>
  <course>39.06</course>
  <speed>0.05830951894845301</speed>
  <fix>3d</fix>
</trkpt>
<trkpt lat="40.0729008" lon="-105.2308514">
  <ele>1595.49</ele>
  <time>2026-08-28T19:11:27Z</time>
  <course>20.67</course>
  <speed>0.08</speed>
  <fix>3d</fix>
</trkpt>
<trkpt lat="40.0729008" lon="-105.2308513">
  <ele>1595.56</ele>
  <time>2026-08-28T19:11:27Z</time>
  <course>39.07</course>
  <speed>0.05830951894845301</speed>
  <fix>3d</fix>
</trkpt>
<trkpt lat="40.0729009" lon="-105.2308513">
  <ele>1595.49</ele>
  <time>2026-08-28T19:11:27Z</time>
  <course>21.03</course>
  <speed>0.08</speed>
  <fix>3d</fix>
</trkpt>
<trkpt lat="40.0729009" lon="-105.2308512">
  <ele>1595.55</ele>
  <time>2026-08-28T19:11:27Z</time>
  <course>39.06</course>
  <speed>0.0670820393249937</speed>
  <fix>3d</fix>
</trkpt>
<trkpt lat="40.072901" lon="-105.2308513">
  <ele>1595.5</ele>
  <time>2026-08-28T19:11:27Z</time>
  <course>21.23</course>
  <speed>0.08</speed>
  <fix>3d</fix>
</trkpt>
<trkpt lat="40.0729011" lon="-105.2308512">
  <ele>1595.55</ele>
  <time>2026-08-28T19:11:27Z</time>
  <course>39.06</course>
  <speed>0.0670820393249937</speed>
  <fix>3d</fix>
</trkpt>
<trkpt lat="40.0729012" lon="-105.2308512">
  <ele>1595.5</ele>
  <time>2026-08-28T19:11:27Z</time>
  <course>21.76</course>
  <speed>0.09</speed>
  <fix>3d</fix>
</trkpt>
<trkpt lat="40.0729012" lon="-105.2308511">
  <ele>1595.55</ele>
  <time>2026-08-28T19:11:27Z</time>
  <course>39.03</course>
  <speed>0.07211102550927978</speed>
  <fix>3d</fix>
</trkpt>
<trkpt lat="40.0729014" lon="-105.2308511">
  <ele>1595.5</ele>
  <time>2026-08-28T19:11:27Z</time>
  <course>22.22</course>
  <speed>0.09</speed>
  <fix>3d</fix>
</trkpt>
<trkpt lat="40.0729014" lon="-105.230851">
  <ele>1595.55</ele>
  <time>2026-08-28T19:11:27Z</time>
  <course>38.57</course>
  <speed>0.07211102550927978</speed>
  <fix>3d</fix>
</trkpt>
<trkpt lat="40.0729015" lon="-105.230851">
  <ele>1595.5</ele>
  <time>2026-08-28T19:11:27Z</time>
  <course>23.35</course>
  <speed>0.09</speed>
  <fix>3d</fix>
</trkpt>
<trkpt lat="40.0729016" lon="-105.2308509">
  <ele>1595.55</ele>
  <time>2026-08-28T19:11:27Z</time>
  <course>37.33</course>
  <speed>0.07211102550927978</speed>
  <fix>3d</fix>
</trkpt>
<trkpt lat="40.0729017" lon="-105.2308509">
  <ele>1595.51</ele>
  <time>2026-08-28T19:11:27Z</time>
  <course>24.81</course>
  <speed>0.09</speed>
  <fix>3d</fix>
</trkpt>
<trkpt lat="40.0729017" lon="-105.2308508">
  <ele>1595.56</ele>
  <time>2026-08-28T19:11:27Z</time>
  <course>36.0</course>
  <speed>0.07211102550927978</speed>
  <fix>3d</fix>
</trkpt>
<trkpt lat="40.0729018" lon="-105.2308508">
  <ele>1595.51</ele>
  <time>2026-08-28T19:11:27Z</time>
  <course>24.88</course>
  <speed>0.09</speed>
  <fix>3d</fix>
</trkpt>
<trkpt lat="40.0729019" lon="-105.2308507">
  <ele>1595.57</ele>
  <time>2026-08-28T19:11:27Z</time>
  <course>35.02</course>
  <speed>0.05830951894845301</speed>
  <fix>3d</fix>
</trkpt>
<trkpt lat="40.072902" lon="-105.2308508">
  <ele>1595.52</ele>
  <time>2026-08-28T19:11:27Z</time>
  <course>23.55</course>
  <speed>0.08</speed>
  <fix>3d</fix>
</trkpt>
<trkpt lat="40.072902" lon="-105.2308506">
  <ele>1595.58</ele>
  <time>2026-08-28T19:11:27Z</time>
  <course>34.38</course>
  <speed>0.05830951894845301</speed>
  <fix>3d</fix>
</trkpt>
<trkpt lat="40.0729021" lon="-105.2308507">
  <ele>1595.53</ele>
  <time>2026-08-28T19:11:27Z</time>
  <course>21.43</course>
  <speed>0.08</speed>
  <fix>3d</fix>
</trkpt>
<trkpt lat="40.0729021" lon="-105.2308506">
  <ele>1595.58</ele>
  <time>2026-08-28T19:11:27Z</time>
  <course>34.18</course>
  <speed>0.044721359549995794</speed>
  <fix>3d</fix>
</trkpt>
<trkpt lat="40.0729022" lon="-105.2308506">
  <ele>1595.53</ele>
  <time>2026-08-28T19:11:27Z</time>
  <course>18.71</course>
  <speed>0.07</speed>
  <fix>3d</fix>
</trkpt>
<trkpt lat="40.0729022" lon="-105.2308505">
  <ele>1595.58</ele>
  <time>2026-08-28T19:11:27Z</time>
  <course>34.47</course>
  <speed>0.0316227766016838</speed>
  <fix>3d</fix>
</trkpt>
<trkpt lat="40.0729024" lon="-105.2308506">
  <ele>1595.53</ele>
  <time>2026-08-28T19:11:27Z</time>
  <course>15.16</course>
  <speed>0.06</speed>
  <fix>3d</fix>
</trkpt>
<trkpt lat="40.0729023" lon="-105.2308505">
  <ele>1595.58</ele>
  <time>2026-08-28T19:11:27Z</time>
  <course>35.22</course>
  <speed>0.0316227766016838</speed>
  <fix>3d</fix>
</trkpt>
<trkpt lat="40.0729025" lon="-105.2308506">
  <ele>1595.53</ele>
  <time>2026-08-28T19:11:27Z</time>
  <course>11.39</course>
  <speed>0.06</speed>
  <fix>3d</fix>
</trkpt>
<trkpt lat="40.0729024" lon="-105.2308505">
  <ele>1595.58</ele>
  <time>2026-08-28T19:11:27Z</time>
  <course>36.35</course>
  <speed>0.02</speed>
  <fix>3d</fix>
</trkpt>
<trkpt lat="40.0729026" lon="-105.2308506">
  <ele>1595.53</ele>
  <time>2026-08-28T19:11:27Z</time>
  <course>7.45</course>
  <speed>0.05</speed>
  <fix>3d</fix>
</trkpt>
<trkpt lat="40.0729025" lon="-105.2308505">
  <ele>1595.58</ele>
  <time>2026-08-28T19:11:27Z</time>
  <course>37.76</course>
  <speed>0.02</speed>
  <fix>3d</fix>
</trkpt>
<trkpt lat="40.0729027" lon="-105.2308505">
  <ele>1595.53</ele>
  <time>2026-08-28T19:11:27Z</time>
  <course>3.22</course>
  <speed>0.04</speed>
  <fix>3d</fix>
</trkpt>
<trkpt lat="40.0729026" lon="-105.2308505">
  <ele>1595.59</ele>
  <time>2026-08-28T19:11:27Z</time>
  <course>39.26</course>
  <speed>0.02</speed>
  <fix>3d</fix>
</trkpt>
<trkpt lat="40.0729028" lon="-105.2308504">
  <ele>1595.53</ele>
  <time>2026-08-28T19:11:27Z</time>
  <course>359.68</course>
  <speed>0.04</speed>
  <fix>3d</fix>
</trkpt>
<trkpt lat="40.0729027" lon="-105.2308505">
  <ele>1595.59</ele>
  <time>2026-08-28T19:11:27Z</time>
  <course>40.75</course>
  <speed>0.01</speed>
  <fix>3d</fix>
</trkpt>
<trkpt lat="40.0729028" lon="-105.2308505">
  <ele>1595.53</ele>
  <time>2026-08-28T19:11:27Z</time>
  <course>357.27</course>
  <speed>0.04</speed>
  <fix>3d</fix>
</trkpt>
<trkpt lat="40.0729027" lon="-105.2308505">
  <ele>1595.59</ele>
  <time>2026-08-28T19:11:27Z</time>
  <course>42.13</course>
  <speed>0.01</speed>
  <fix>3d</fix>
</trkpt>
<trkpt lat="40.0729029" lon="-105.2308506">
  <ele>1595.53</ele>
  <time>2026-08-28T19:11:27Z</time>
  <course>355.89</course>
  <speed>0.03</speed>
  <fix>3d</fix>
</trkpt>
<trkpt lat="40.0729028" lon="-105.2308505">
  <ele>1595.59</ele>
  <time>2026-08-28T19:11:27Z</time>
  <course>43.18</course>
  <speed>0.01</speed>
  <fix>3d</fix>
</trkpt>
<trkpt lat="40.0729029" lon="-105.2308506">
  <ele>1595.52</ele>
  <time>2026-08-28T19:11:27Z</time>
  <course>356.27</course>
  <speed>0.03</speed>
  <fix>3d</fix>
</trkpt>
<trkpt lat="40.0729028" lon="-105.2308505">
  <ele>1595.58</ele>
  <time>2026-08-28T19:11:27Z</time>
  <course>43.84</course>
  <speed>0.0</speed>
  <fix>3d</fix>
</trkpt>
<trkpt lat="40.072903" lon="-105.2308506">
  <ele>1595.52</ele>
  <time>2026-08-28T19:11:27Z</time>
  <course>358.99</course>
  <speed>0.03</speed>
  <fix>3d</fix>
</trkpt>
<trkpt lat="40.0729029" lon="-105.2308505">
  <ele>1595.58</ele>
  <time>2026-08-28T19:11:27Z</time>
  <course>43.99</course>
  <speed>0.01</speed>
  <fix>3d</fix>
</trkpt>
<trkpt lat="40.0729031" lon="-105.2308506">
  <ele>1595.52</ele>
  <time>2026-08-28T19:11:27Z</time>
  <course>3.76</course>
  <speed>0.02</speed>
  <fix>3d</fix>
</trkpt>
<trkpt lat="40.0729029" lon="-105.2308505">
  <ele>1595.58</ele>
  <time>2026-08-28T19:11:27Z</time>
  <course>43.7</course>
  <speed>0.01</speed>
  <fix>3d</fix>
</trkpt>
<trkpt lat="40.0729031" lon="-105.2308506">
  <ele>1595.51</ele>
  <time>2026-08-28T19:11:27Z</time>
  <course>9.6</course>
  <speed>0.02</speed>
  <fix>3d</fix>
</trkpt>
<trkpt lat="40.072903" lon="-105.2308505">
  <ele>1595.57</ele>
  <time>2026-08-28T19:11:27Z</time>
  <course>42.99</course>
  <speed>0.01</speed>
  <fix>3d</fix>
</trkpt>
<trkpt lat="40.0729032" lon="-105.2308505">
  <ele>1595.51</ele>
  <time>2026-08-28T19:11:27Z</time>
  <course>14.56</course>
  <speed>0.02</speed>
  <fix>3d</fix>
</trkpt>
<trkpt lat="40.072903" lon="-105.2308505">
  <ele>1595.57</ele>
  <time>2026-08-28T19:11:27Z</time>
  <course>41.87</course>
  <speed>0.01</speed>
  <fix>3d</fix>
</trkpt>
<trkpt lat="40.0729032" lon="-105.2308504">
  <ele>1595.51</ele>
  <time>2026-08-28T19:11:27Z</time>
  <course>18.25</course>
  <speed>0.03</speed>
  <fix>3d</fix>
</trkpt>
<trkpt lat="40.0729031" lon="-105.2308504">
  <ele>1595.57</ele>
  <time>2026-08-28T19:11:27Z</time>
  <course>40.43</course>
  <speed>0.01</speed>
  <fix>3d</fix>
</trkpt>
<trkpt lat="40.0729033" lon="-105.2308504">
  <ele>1595.51</ele>
  <time>2026-08-28T19:11:27Z</time>
  <course>20.39</course>
  <speed>0.03</speed>
  <fix>3d</fix>
</trkpt>
<trkpt lat="40.0729032" lon="-105.2308504">
  <ele>1595.56</ele>
  <time>2026-08-28T19:11:27Z</time>
  <course>38.92</course>
  <speed>0.022360679774997897</speed>
  <fix>3d</fix>
</trkpt>
<trkpt lat="40.0729034" lon="-105.2308504">
  <ele>1595.51</ele>
  <time>2026-08-28T19:11:27Z</time>
  <course>20.46</course>
  <speed>0.03</speed>
  <fix>3d</fix>
</trkpt>
<trkpt lat="40.0729032" lon="-105.2308504">
  <ele>1595.56</ele>
  <time>2026-08-28T19:11:27Z</time>
  <course>37.42</course>
  <speed>0.022360679774997897</speed>
  <fix>3d</fix>
</trkpt>
<trkpt lat="40.0729034" lon="-105.2308504">
  <ele>1595.51</ele>
  <time>2026-08-28T19:11:27Z</time>
  <course>19.49</course>
  <speed>0.03</speed>
  <fix>3d</fix>
</trkpt>
<trkpt lat="40.0729033" lon="-105.2308503">
  <ele>1595.57</ele>
  <time>2026-08-28T19:11:27Z</time>
  <course>36.08</course>
  <speed>0.01414213562373095</speed>
  <fix>3d</fix>
</trkpt>
<trkpt lat="40.0729035" lon="-105.2308504">
  <ele>1595.51</ele>
  <time>2026-08-28T19:11:27Z</time>
  <course>17.74</course>
  <speed>0.04</speed>
  <fix>3d</fix>
</trkpt>
<trkpt lat="40.0729034" lon="-105.2308503">
  <ele>1595.57</ele>
  <time>2026-08-28T19:11:27Z</time>
  <course>35.04</course>
  <speed>0.022360679774997897</speed>
  <fix>3d</fix>
</trkpt>
<trkpt lat="40.0729035" lon="-105.2308504">
  <ele>1595.51</ele>
  <time>2026-08-28T19:11:27Z</time>
  <course>15.24</course>
  <speed>0.04</speed>
  <fix>3d</fix>
</trkpt>
<trkpt lat="40.0729035" lon="-105.2308503">
  <ele>1595.58</ele>
  <time>2026-08-28T19:11:27Z</time>
  <course>34.38</course>
  <speed>0.022360679774997897</speed>
  <fix>3d</fix>
</trkpt>
<trkpt lat="40.0729036" lon="-105.2308503">
  <ele>1595.51</ele>
  <time>2026-08-28T19:11:27Z</time>
  <course>12.11</course>
  <speed>0.04</speed>
  <fix>3d</fix>
</trkpt>
<trkpt lat="40.0729035" lon="-105.2308503">
  <ele>1595.58</ele>
  <time>2026-08-28T19:11:27Z</time>
  <course>34.21</course>
  <speed>0.022360679774997897</speed>
  <fix>3d</fix>
</trkpt>
<trkpt lat="40.0729037" lon="-105.2308503">
  <ele>1595.51</ele>
  <time>2026-08-28T19:11:27Z</time>
  <course>8.19</course>
  <speed>0.04</speed>
  <fix>3d</fix>
</trkpt>
<trkpt lat="40.0729036" lon="-105.2308503">
  <ele>1595.58</ele>
  <time>2026-08-28T19:11:27Z</time>
  <course>34.52</course>
  <speed>0.02</speed>
  <fix>3d</fix>
</trkpt>
<trkpt lat="40.0729038" lon="-105.2308503">
  <ele>1595.51</ele>
  <time>2026-08-28T19:11:27Z</time>
  <course>4.6</course>
  <speed>0.04</speed>
  <fix>3d</fix>
</trkpt>
<trkpt lat="40.0729037" lon="-105.2308503">
  <ele>1595.58</ele>
  <time>2026-08-28T19:11:27Z</time>
  <course>35.23</course>
  <speed>0.02</speed>
  <fix>3d</fix>
</trkpt>
<trkpt lat="40.0729039" lon="-105.2308503">
  <ele>1595.51</ele>
  <time>2026-08-28T19:11:27Z</time>
  <course>1.78</course>
  <speed>0.04</speed>
  <fix>3d</fix>
</trkpt>
<trkpt lat="40.0729038" lon="-105.2308503">
  <ele>1595.58</ele>
  <time>2026-08-28T19:11:27Z</time>
  <course>36.34</course>
  <speed>0.02</speed>
  <fix>3d</fix>
</trkpt>
<trkpt lat="40.072904" lon="-105.2308503">
  <ele>1595.5</ele>
  <time>2026-08-28T19:11:27Z</time>
  <course>359.16</course>
  <speed>0.04</speed>
  <fix>3d</fix>
</trkpt>
<trkpt lat="40.0729039" lon="-105.2308503">
  <ele>1595.57</ele>
  <time>2026-08-28T19:11:27Z</time>
  <course>37.74</course>
  <speed>0.02</speed>
  <fix>3d</fix>
</trkpt>
<trkpt lat="40.072904" lon="-105.2308503">
  <ele>1595.5</ele>
  <time>2026-08-28T19:11:27Z</time>
  <course>356.62</course>
  <speed>0.04</speed>
  <fix>3d</fix>
</trkpt>
<trkpt lat="40.072904" lon="-105.2308503">
  <ele>1595.57</ele>
  <time>2026-08-28T19:11:27Z</time>
  <course>39.25</course>
  <speed>0.02</speed>
  <fix>3d</fix>
</trkpt>
<trkpt lat="40.0729041" lon="-105.2308503">
  <ele>1595.5</ele>
  <time>2026-08-28T19:11:27Z</time>
  <course>354.55</course>
  <speed>0.04</speed>
  <fix>3d</fix>
</trkpt>
<trkpt lat="40.072904" lon="-105.2308503">
  <ele>1595.57</ele>
  <time>2026-08-28T19:11:27Z</time>
  <course>40.72</course>
  <speed>0.02</speed>
  <fix>3d</fix>
</trkpt>
<trkpt lat="40.0729042" lon="-105.2308503">
  <ele>1595.5</ele>
  <time>2026-08-28T19:11:27Z</time>
  <course>353.74</course>
  <speed>0.04</speed>
  <fix>3d</fix>
</trkpt>
<trkpt lat="40.0729041" lon="-105.2308503">
  <ele>1595.56</ele>
  <time>2026-08-28T19:11:27Z</time>
  <course>42.06</course>
  <speed>0.01</speed>
  <fix>3d</fix>
</trkpt>
<trkpt lat="40.0729043" lon="-105.2308503">
  <ele>1595.5</ele>
  <time>2026-08-28T19:11:27Z</time>
  <course>354.52</course>
  <speed>0.04</speed>
  <fix>3d</fix>
</trkpt>
<trkpt lat="40.0729042" lon="-105.2308503">
  <ele>1595.56</ele>
  <time>2026-08-28T19:11:27Z</time>
  <course>43.12</course>
  <speed>0.01</speed>
  <fix>3d</fix>
</trkpt>
<trkpt lat="40.0729044" lon="-105.2308503">
  <ele>1595.5</ele>
  <time>2026-08-28T19:11:27Z</time>
  <course>357.06</course>
  <speed>0.04</speed>
  <fix>3d</fix>
</trkpt>
<trkpt lat="40.0729043" lon="-105.2308503">
  <ele>1595.56</ele>
  <time>2026-08-28T19:11:27Z</time>
  <course>43.76</course>
  <speed>0.01414213562373095</speed>
  <fix>3d</fix>
</trkpt>
<trkpt lat="40.0729044" lon="-105.2308503">
  <ele>1595.5</ele>
  <time>2026-08-28T19:11:27Z</time>
  <course>0.71</course>
  <speed>0.03</speed>
  <fix>3d</fix>
</trkpt>
<trkpt lat="40.0729043" lon="-105.2308503">
  <ele>1595.56</ele>
  <time>2026-08-28T19:11:27Z</time>
  <course>43.95</course>
  <speed>0.01414213562373095</speed>
  <fix>3d</fix>
</trkpt>
<trkpt lat="40.0729045" lon="-105.2308503">
  <ele>1595.5</ele>
  <time>2026-08-28T19:11:27Z</time>
  <course>4.58</course>
  <speed>0.03</speed>
  <fix>3d</fix>
</trkpt>
<trkpt lat="40.0729044" lon="-105.2308503">
  <ele>1595.57</ele>
  <time>2026-08-28T19:11:27Z</time>
  <course>43.67</course>
  <speed>0.01414213562373095</speed>
  <fix>3d</fix>
</trkpt>
<trkpt lat="40.0729046" lon="-105.2308503">
  <ele>1595.5</ele>
  <time>2026-08-28T19:11:27Z</time>
  <course>8.47</course>
  <speed>0.03</speed>
  <fix>3d</fix>
</trkpt>
<trkpt lat="40.0729044" lon="-105.2308502">
  <ele>1595.57</ele>
  <time>2026-08-28T19:11:27Z</time>
  <course>42.96</course>
  <speed>0.01414213562373095</speed>
  <fix>3d</fix>
</trkpt>
<trkpt lat="40.0729046" lon="-105.2308503">
  <ele>1595.5</ele>
  <time>2026-08-28T19:11:27Z</time>
  <course>12.23</course>
  <speed>0.03</speed>
  <fix>3d</fix>
</trkpt>
<trkpt lat="40.0729045" lon="-105.2308502">
  <ele>1595.57</ele>
  <time>2026-08-28T19:11:27Z</time>
  <course>41.85</course>
  <speed>0.01414213562373095</speed>
  <fix>3d</fix>
</trkpt>
<trkpt lat="40.0729047" lon="-105.2308503">
  <ele>1595.5</ele>
  <time>2026-08-28T19:11:27Z</time>
  <course>15.65</course>
  <speed>0.03</speed>
  <fix>3d</fix>
</trkpt>
<trkpt lat="40.0729046" lon="-105.2308502">
  <ele>1595.57</ele>
  <time>2026-08-28T19:11:27Z</time>
  <course>40.45</course>
  <speed>0.01414213562373095</speed>
  <fix>3d</fix>
</trkpt>
<trkpt lat="40.0729047" lon="-105.2308503">
  <ele>1595.51</ele>
  <time>2026-08-28T19:11:27Z</time>
  <course>17.64</course>
  <speed>0.03</speed>
  <fix>3d</fix>
</trkpt>
<trkpt lat="40.0729046" lon="-105.2308502">
  <ele>1595.57</ele>
  <time>2026-08-28T19:11:27Z</time>
  <course>38.92</course>
  <speed>0.01414213562373095</speed>
  <fix>3d</fix>
</trkpt>
<trkpt lat="40.0729048" lon="-105.2308502">
  <ele>1595.51</ele>
  <time>2026-08-28T19:11:27Z</time>
  <course>17.55</course>
  <speed>0.03</speed>
  <fix>3d</fix>
</trkpt>
<trkpt lat="40.0729047" lon="-105.2308502">
  <ele>1595.57</ele>
  <time>2026-08-28T19:11:27Z</time>
  <course>37.44</course>
  <speed>0.01414213562373095</speed>
  <fix>3d</fix>
</trkpt>
<trkpt lat="40.0729049" lon="-105.2308501">
  <ele>1595.51</ele>
  <time>2026-08-28T19:11:27Z</time>
  <course>16.64</course>
  <speed>0.04</speed>
  <fix>3d</fix>
</trkpt>
<trkpt lat="40.0729048" lon="-105.2308501">
  <ele>1595.57</ele>
  <time>2026-08-28T19:11:27Z</time>
  <course>36.08</course>
  <speed>0.01414213562373095</speed>
  <fix>3d</fix>
</trkpt>
<trkpt lat="40.072905" lon="-105.2308501">
  <ele>1595.51</ele>
  <time>2026-08-28T19:11:27Z</time>
  <course>15.33</course>
  <speed>0.04</speed>
  <fix>3d</fix>
</trkpt>
<trkpt lat="40.0729049" lon="-105.2308501">
  <ele>1595.57</ele>
  <time>2026-08-28T19:11:27Z</time>
  <course>35.01</course>
  <speed>0.022360679774997897</speed>
  <fix>3d</fix>
</trkpt>
<trkpt lat="40.072905" lon="-105.2308501">
  <ele>1595.51</ele>
  <time>2026-08-28T19:11:27Z</time>
  <course>12.92</course>
  <speed>0.04</speed>
  <fix>3d</fix>
</trkpt>
<trkpt lat="40.0729049" lon="-105.2308501">
  <ele>1595.57</ele>
  <time>2026-08-28T19:11:27Z</time>
  <course>34.38</course>
  <speed>0.022360679774997897</speed>
  <fix>3d</fix>
</trkpt>
<trkpt lat="40.0729051" lon="-105.2308501">
  <ele>1595.51</ele>
  <time>2026-08-28T19:11:27Z</time>
  <course>9.61</course>
  <speed>0.04</speed>
  <fix>3d</fix>
</trkpt>
<trkpt lat="40.072905" lon="-105.2308501">
  <ele>1595.58</ele>
  <time>2026-08-28T19:11:27Z</time>
  <course>34.19</course>
  <speed>0.022360679774997897</speed>
  <fix>3d</fix>
</trkpt>
<trkpt lat="40.0729052" lon="-105.2308501">
  <ele>1595.51</ele>
  <time>2026-08-28T19:11:27Z</time>
  <course>6.2</course>
  <speed>0.04</speed>
  <fix>3d</fix>
</trkpt>
<trkpt lat="40.0729051" lon="-105.2308501">
  <ele>1595.57</ele>
  <time>2026-08-28T19:11:27Z</time>
  <course>34.48</course>
  <speed>0.02</speed>
  <fix>3d</fix>
</trkpt>
<trkpt lat="40.0729053" lon="-105.2308501">
  <ele>1595.51</ele>
  <time>2026-08-28T19:11:27Z</time>
  <course>3.07</course>
  <speed>0.04</speed>
  <fix>3d</fix>
</trkpt>
<trkpt lat="40.0729052" lon="-105.2308501">
  <ele>1595.57</ele>
  <time>2026-08-28T19:11:27Z</time>
  <course>35.22</course>
  <speed>0.02</speed>
  <fix>3d</fix>
</trkpt>
<trkpt lat="40.0729053" lon="-105.2308501">
  <ele>1595.51</ele>
  <time>2026-08-28T19:11:27Z</time>
  <course>359.96</course>
  <speed>0.04</speed>
  <fix>3d</fix>
</trkpt>
<trkpt lat="40.0729053" lon="-105.2308501">
  <ele>1595.56</ele>
  <time>2026-08-28T19:11:27Z</time>
  <course>36.32</course>
  <speed>0.02</speed>
  <fix>3d</fix>
</trkpt>
<trkpt lat="40.0729054" lon="-105.2308501">
  <ele>1595.51</ele>
  <time>2026-08-28T19:11:27Z</time>
  <course>357.57</course>
  <speed>0.04</speed>
  <fix>3d</fix>
</trkpt>
<trkpt lat="40.0729054" lon="-105.2308501">
  <ele>1595.57</ele>
  <time>2026-08-28T19:11:27Z</time>
  <course>37.69</course>
  <speed>0.02</speed>
  <fix>3d</fix>
</trkpt>
<trkpt lat="40.0729055" lon="-105.2308501">
  <ele>1595.51</ele>
  <time>2026-08-28T19:11:27Z</time>
  <course>356.46</course>
  <speed>0.04</speed>
  <fix>3d</fix>
</trkpt>
<trkpt lat="40.0729054" lon="-105.2308501">
  <ele>1595.57</ele>
  <time>2026-08-28T19:11:27Z</time>
  <course>39.2</course>
  <speed>0.02</speed>
  <fix>3d</fix>
</trkpt>
<trkpt lat="40.0729056" lon="-105.2308501">
  <ele>1595.51</ele>
  <time>2026-08-28T19:11:27Z</time>
  <course>355.67</course>
  <speed>0.04</speed>
  <fix>3d</fix>
</trkpt>
<trkpt lat="40.0729055" lon="-105.2308501">
  <ele>1595.58</ele>
  <time>2026-08-28T19:11:27Z</time>
  <course>40.73</course>
  <speed>0.02</speed>
  <fix>3d</fix>
</trkpt>
<trkpt lat="40.0729057" lon="-105.2308501">
  <ele>1595.51</ele>
  <time>2026-08-28T19:11:27Z</time>
  <course>355.3</course>
  <speed>0.04</speed>
  <fix>3d</fix>
</trkpt>
<trkpt lat="40.0729056" lon="-105.2308501">
  <ele>1595.58</ele>
  <time>2026-08-28T19:11:27Z</time>
  <course>42.09</course>
  <speed>0.01</speed>
  <fix>3d</fix>
</trkpt>
<trkpt lat="40.0729058" lon="-105.2308501">
  <ele>1595.51</ele>
  <time>2026-08-28T19:11:27Z</time>
  <course>355.71</course>
  <speed>0.04</speed>
  <fix>3d</fix>
</trkpt>
<trkpt lat="40.0729057" lon="-105.2308501">
  <ele>1595.58</ele>
  <time>2026-08-28T19:11:27Z</time>
  <course>43.17</course>
  <speed>0.01</speed>
  <fix>3d</fix>
</trkpt>
<trkpt lat="40.0729058" lon="-105.2308501">
  <ele>1595.51</ele>
  <time>2026-08-28T19:11:27Z</time>
  <course>356.76</course>
  <speed>0.04</speed>
  <fix>3d</fix>
</trkpt>
<trkpt lat="40.0729057" lon="-105.2308501">
  <ele>1595.58</ele>
  <time>2026-08-28T19:11:27Z</time>
  <course>43.8</course>
  <speed>0.01</speed>
  <fix>3d</fix>
</trkpt>
<trkpt lat="40.0729059" lon="-105.2308501">
  <ele>1595.5</ele>
  <time>2026-08-28T19:11:27Z</time>
  <course>359.11</course>
  <speed>0.03</speed>
  <fix>3d</fix>
</trkpt>
<trkpt lat="40.0729058" lon="-105.2308501">
  <ele>1595.57</ele>
  <time>2026-08-28T19:11:27Z</time>
  <course>43.99</course>
  <speed>0.01414213562373095</speed>
  <fix>3d</fix>
</trkpt>
<trkpt lat="40.072906" lon="-105.2308501">
  <ele>1595.5</ele>
  <time>2026-08-28T19:11:27Z</time>
  <course>3.04</course>
  <speed>0.03</speed>
  <fix>3d</fix>
</trkpt>
<trkpt lat="40.0729059" lon="-105.2308501">
  <ele>1595.57</ele>
  <time>2026-08-28T19:11:27Z</time>
  <course>43.7</course>
  <speed>0.01414213562373095</speed>
  <fix>3d</fix>
</trkpt>
<trkpt lat="40.0729061" lon="-105.2308501">
  <ele>1595.5</ele>
  <time>2026-08-28T19:11:27Z</time>
  <course>7.81</course>
  <speed>0.03</speed>
  <fix>3d</fix>
</trkpt>
<trkpt lat="40.0729059" lon="-105.2308501">
  <ele>1595.57</ele>
  <time>2026-08-28T19:11:27Z</time>
  <course>42.98</course>
  <speed>0.01414213562373095</speed>
  <fix>3d</fix>
</trkpt>
<trkpt lat="40.0729061" lon="-105.2308501">
  <ele>1595.5</ele>
  <time>2026-08-28T19:11:27Z</time>
  <course>12.09</course>
  <speed>0.03</speed>
  <fix>3d</fix>
</trkpt>
<trkpt lat="40.072906" lon="-105.23085">
  <ele>1595.57</ele>
  <time>2026-08-28T19:11:27Z</time>
  <course>41.83</course>
  <speed>0.01414213562373095</speed>
  <fix>3d</fix>
</trkpt>
<trkpt lat="40.0729062" lon="-105.2308501">
  <ele>1595.5</ele>
  <time>2026-08-28T19:11:27Z</time>
  <course>15.27</course>
  <speed>0.03</speed>
  <fix>3d</fix>
</trkpt>
<trkpt lat="40.0729061" lon="-105.23085">
  <ele>1595.57</ele>
  <time>2026-08-28T19:11:27Z</time>
  <course>40.45</course>
  <speed>0.01414213562373095</speed>
  <fix>3d</fix>
</trkpt>
<trkpt lat="40.0729062" lon="-105.2308501">
  <ele>1595.5</ele>
  <time>2026-08-28T19:11:27Z</time>
  <course>16.88</course>
  <speed>0.03</speed>
  <fix>3d</fix>
</trkpt>
<trkpt lat="40.0729061" lon="-105.23085">
  <ele>1595.57</ele>
  <time>2026-08-28T19:11:27Z</time>
  <course>38.92</course>
  <speed>0.01414213562373095</speed>
  <fix>3d</fix>
</trkpt>
<trkpt lat="40.0729063" lon="-105.2308501">
  <ele>1595.5</ele>
  <time>2026-08-28T19:11:27Z</time>
  <course>17.37</course>
  <speed>0.03</speed>
  <fix>3d</fix>
</trkpt>
<trkpt lat="40.0729062" lon="-105.23085">
  <ele>1595.57</ele>
  <time>2026-08-28T19:11:27Z</time>
  <course>37.44</course>
  <speed>0.01414213562373095</speed>
  <fix>3d</fix>
</trkpt>
<trkpt lat="40.0729064" lon="-105.23085">
  <ele>1595.5</ele>
  <time>2026-08-28T19:11:27Z</time>
  <course>16.78</course>
  <speed>0.03</speed>
  <fix>3d</fix>
</trkpt>
<trkpt lat="40.0729063" lon="-105.2308499">
  <ele>1595.57</ele>
  <time>2026-08-28T19:11:27Z</time>
  <course>36.1</course>
  <speed>0.01414213562373095</speed>
  <fix>3d</fix>
</trkpt>
<trkpt lat="40.0729064" lon="-105.2308499">
  <ele>1595.5</ele>
  <time>2026-08-28T19:11:27Z</time>
  <course>15.12</course>
  <speed>0.04</speed>
  <fix>3d</fix>
</trkpt>
<trkpt lat="40.0729063" lon="-105.2308499">
  <ele>1595.57</ele>
  <time>2026-08-28T19:11:27Z</time>
  <course>35.05</course>
  <speed>0.022360679774997897</speed>
  <fix>3d</fix>
</trkpt>
<trkpt lat="40.0729065" lon="-105.2308499">
  <ele>1595.5</ele>
  <time>2026-08-28T19:11:27Z</time>
  <course>12.87</course>
  <speed>0.04</speed>
  <fix>3d</fix>
</trkpt>
<trkpt lat="40.0729064" lon="-105.2308499">
  <ele>1595.56</ele>
  <time>2026-08-28T19:11:27Z</time>
  <course>34.38</course>
  <speed>0.022360679774997897</speed>
  <fix>3d</fix>
</trkpt>
<trkpt lat="40.0729066" lon="-105.2308499">
  <ele>1595.5</ele>
  <time>2026-08-28T19:11:27Z</time>
  <course>9.64</course>
  <speed>0.04</speed>
  <fix>3d</fix>
</trkpt>
<trkpt lat="40.0729065" lon="-105.2308499">
  <ele>1595.56</ele>
  <time>2026-08-28T19:11:27Z</time>
  <course>34.18</course>
  <speed>0.02</speed>
  <fix>3d</fix>
</trkpt>
<trkpt lat="40.0729067" lon="-105.2308499">
  <ele>1595.5</ele>
  <time>2026-08-28T19:11:27Z</time>
  <course>6.25</course>
  <speed>0.04</speed>
  <fix>3d</fix>
</trkpt>
<trkpt lat="40.0729066" lon="-105.2308499">
  <ele>1595.56</ele>
  <time>2026-08-28T19:11:27Z</time>
  <course>34.45</course>
  <speed>0.02</speed>
  <fix>3d</fix>
</trkpt>
<trkpt lat="40.0729067" lon="-105.2308499">
  <ele>1595.5</ele>
  <time>2026-08-28T19:11:27Z</time>
  <course>3.64</course>
  <speed>0.04</speed>
  <fix>3d</fix>
</trkpt>
<trkpt lat="40.0729067" lon="-105.2308499">
  <ele>1595.55</ele>
  <time>2026-08-28T19:11:27Z</time>
  <course>35.16</course>
  <speed>0.02</speed>
  <fix>3d</fix>
</trkpt>
<trkpt lat="40.0729068" lon="-105.2308499">
  <ele>1595.5</ele>
  <time>2026-08-28T19:11:27Z</time>
  <course>1.21</course>
  <speed>0.04</speed>
  <fix>3d</fix>
</trkpt>
<trkpt lat="40.0729067" lon="-105.2308499">
  <ele>1595.56</ele>
  <time>2026-08-28T19:11:27Z</time>
  <course>36.27</course>
  <speed>0.02</speed>
  <fix>3d</fix>
</trkpt>
<trkpt lat="40.0729069" lon="-105.2308499">
  <ele>1595.5</ele>
  <time>2026-08-28T19:11:27Z</time>
  <course>358.94</course>
  <speed>0.04</speed>
  <fix>3d</fix>
</trkpt>
<trkpt lat="40.0729068" lon="-105.2308499">
  <ele>1595.57</ele>
  <time>2026-08-28T19:11:27Z</time>
  <course>37.66</course>
  <speed>0.02</speed>
  <fix>3d</fix>
</trkpt>
<trkpt lat="40.072907" lon="-105.2308499">
  <ele>1595.5</ele>
  <time>2026-08-28T19:11:27Z</time>
  <course>357.22</course>
  <speed>0.04</speed>
  <fix>3d</fix>
</trkpt>
<trkpt lat="40.0729069" lon="-105.2308499">
  <ele>1595.57</ele>
  <time>2026-08-28T19:11:27Z</time>
  <course>39.21</course>
  <speed>0.02</speed>
  <fix>3d</fix>
</trkpt>
<trkpt lat="40.072907" lon="-105.2308499">
  <ele>1595.5</ele>
  <time>2026-08-28T19:11:27Z</time>
  <course>356.14</course>
  <speed>0.04</speed>
  <fix>3d</fix>
</trkpt>
<trkpt lat="40.072907" lon="-105.2308499">
  <ele>1595.58</ele>
  <time>2026-08-28T19:11:27Z</time>
  <course>40.73</course>
  <speed>0.02</speed>
  <fix>3d</fix>
</trkpt>
<trkpt lat="40.0729071" lon="-105.2308499">
  <ele>1595.51</ele>
  <time>2026-08-28T19:11:27Z</time>
  <course>355.96</course>
  <speed>0.04</speed>
  <fix>3d</fix>
</trkpt>
<trkpt lat="40.072907" lon="-105.2308499">
  <ele>1595.58</ele>
  <time>2026-08-28T19:11:27Z</time>
  <course>42.1</course>
  <speed>0.01</speed>
  <fix>3d</fix>
</trkpt>
<trkpt lat="40.0729072" lon="-105.2308499">
  <ele>1595.51</ele>
  <time>2026-08-28T19:11:27Z</time>
  <course>356.74</course>
  <speed>0.04</speed>
  <fix>3d</fix>
</trkpt>
<trkpt lat="40.0729071" lon="-105.2308499">
  <ele>1595.58</ele>
  <time>2026-08-28T19:11:27Z</time>
  <course>43.17</course>
  <speed>0.01</speed>
  <fix>3d</fix>
</trkpt>
<trkpt lat="40.0729073" lon="-105.2308499">
  <ele>1595.51</ele>
  <time>2026-08-28T19:11:27Z</time>
  <course>358.47</course>
  <speed>0.04</speed>
  <fix>3d</fix>
</trkpt>
<trkpt lat="40.0729072" lon="-105.2308499">
  <ele>1595.58</ele>
  <time>2026-08-28T19:11:27Z</time>
  <course>43.82</course>
  <speed>0.01</speed>
  <fix>3d</fix>
</trkpt>
<trkpt lat="40.0729074" lon="-105.2308499">
  <ele>1595.5</ele>
  <time>2026-08-28T19:11:27Z</time>
  <course>1.25</course>
  <speed>0.04</speed>
  <fix>3d</fix>
</trkpt>
<trkpt lat="40.0729073" lon="-105.2308499">
  <ele>1595.58</ele>
  <time>2026-08-28T19:11:27Z</time>
  <course>43.99</course>
  <speed>0.01414213562373095</speed>
  <fix>3d</fix>
</trkpt>
<trkpt lat="40.0729074" lon="-105.2308499">
  <ele>1595.5</ele>
  <time>2026-08-28T19:11:27Z</time>
  <course>4.79</course>
  <speed>0.03</speed>
  <fix>3d</fix>
</trkpt>
<trkpt lat="40.0729073" lon="-105.2308499">
  <ele>1595.57</ele>
  <time>2026-08-28T19:11:27Z</time>
  <course>43.7</course>
  <speed>0.01414213562373095</speed>
  <fix>3d</fix>
</trkpt>
<trkpt lat="40.0729075" lon="-105.2308499">
  <ele>1595.5</ele>
  <time>2026-08-28T19:11:27Z</time>
  <course>9.13</course>
  <speed>0.03</speed>
  <fix>3d</fix>
</trkpt>
<trkpt lat="40.0729074" lon="-105.2308498">
  <ele>1595.57</ele>
  <time>2026-08-28T19:11:27Z</time>
  <course>42.98</course>
  <speed>0.01414213562373095</speed>
  <fix>3d</fix>
</trkpt>
<trkpt lat="40.0729076" lon="-105.2308499">
  <ele>1595.5</ele>
  <time>2026-08-28T19:11:27Z</time>
  <course>13.34</course>
  <speed>0.03</speed>
  <fix>3d</fix>
</trkpt>
<trkpt lat="40.0729074" lon="-105.2308498">
  <ele>1595.57</ele>
  <time>2026-08-28T19:11:27Z</time>
  <course>41.83</course>
  <speed>0.01414213562373095</speed>
  <fix>3d</fix>
</trkpt>
<trkpt lat="40.0729076" lon="-105.2308499">
  <ele>1595.5</ele>
  <time>2026-08-28T19:11:27Z</time>
  <course>16.75</course>
  <speed>0.03</speed>
  <fix>3d</fix>
</trkpt>
<trkpt lat="40.0729075" lon="-105.2308498">
  <ele>1595.57</ele>
  <time>2026-08-28T19:11:27Z</time>
  <course>40.44</course>
  <speed>0.01414213562373095</speed>
  <fix>3d</fix>
</trkpt>
<trkpt lat="40.0729077" lon="-105.2308499">
  <ele>1595.49</ele>
  <time>2026-08-28T19:11:27Z</time>
  <course>19.03</course>
  <speed>0.03</speed>
  <fix>3d</fix>
</trkpt>
<trkpt lat="40.0729076" lon="-105.2308498">
  <ele>1595.58</ele>
  <time>2026-08-28T19:11:27Z</time>
  <course>38.93</course>
  <speed>0.01414213562373095</speed>
  <fix>3d</fix>
</trkpt>
<trkpt lat="40.0729077" lon="-105.2308499">
  <ele>1595.49</ele>
  <time>2026-08-28T19:11:27Z</time>
  <course>19.71</course>
  <speed>0.03</speed>
  <fix>3d</fix>
</trkpt>
<trkpt lat="40.0729076" lon="-105.2308497">
  <ele>1595.58</ele>
  <time>2026-08-28T19:11:27Z</time>
  <course>37.46</course>
  <speed>0.01414213562373095</speed>
  <fix>3d</fix>
</trkpt>
<trkpt lat="40.0729078" lon="-105.2308498">
  <ele>1595.49</ele>
  <time>2026-08-28T19:11:27Z</time>
  <course>18.63</course>
  <speed>0.04</speed>
  <fix>3d</fix>
</trkpt>
<trkpt lat="40.0729077" lon="-105.2308497">
  <ele>1595.58</ele>
  <time>2026-08-28T19:11:27Z</time>
  <course>36.13</course>
  <speed>0.01414213562373095</speed>
  <fix>3d</fix>
</trkpt>
<trkpt lat="40.0729079" lon="-105.2308498">
  <ele>1595.49</ele>
  <time>2026-08-28T19:11:27Z</time>
  <course>16.82</course>
  <speed>0.04</speed>
  <fix>3d</fix>
</trkpt>
<trkpt lat="40.0729078" lon="-105.2308497">
  <ele>1595.58</ele>
  <time>2026-08-28T19:11:27Z</time>
  <course>35.07</course>
  <speed>0.01414213562373095</speed>
  <fix>3d</fix>
</trkpt>
<trkpt lat="40.072908" lon="-105.2308498">
  <ele>1595.49</ele>
  <time>2026-08-28T19:11:27Z</time>
  <course>15.06</course>
  <speed>0.04</speed>
  <fix>3d</fix>
</trkpt>
<trkpt lat="40.0729079" lon="-105.2308497">
  <ele>1595.58</ele>
  <time>2026-08-28T19:11:27Z</time>
  <course>34.42</course>
  <speed>0.022360679774997897</speed>
  <fix>3d</fix>
</trkpt>
<trkpt lat="40.0729081" lon="-105.2308498">
  <ele>1595.49</ele>
  <time>2026-08-28T19:11:27Z</time>
  <course>12.48</course>
  <speed>0.04</speed>
  <fix>3d</fix>
</trkpt>
<trkpt lat="40.072908" lon="-105.2308497">
  <ele>1595.58</ele>
  <time>2026-08-28T19:11:27Z</time>
  <course>34.24</course>
  <speed>0.022360679774997897</speed>
  <fix>3d</fix>
</trkpt>
<trkpt lat="40.0729081" lon="-105.2308497">
  <ele>1595.48</ele>
  <time>2026-08-28T19:11:27Z</time>
  <course>9.36</course>
  <speed>0.04</speed>
  <fix>3d</fix>
</trkpt>
<trkpt lat="40.072908" lon="-105.2308497">
  <ele>1595.57</ele>
  <time>2026-08-28T19:11:28Z</time>
  <course>34.5</course>
  <speed>0.02</speed>
  <fix>3d</fix>
</trkpt>
<trkpt lat="40.0729082" lon="-105.2308496">
  <ele>1595.48</ele>
  <time>2026-08-28T19:11:28Z</time>
  <course>6.37</course>
  <speed>0.04</speed>
  <fix>3d</fix>
</trkpt>
<trkpt lat="40.0729081" lon="-105.2308497">
  <ele>1595.57</ele>
  <time>2026-08-28T19:11:28Z</time>
  <course>35.21</course>
  <speed>0.02</speed>
  <fix>3d</fix>
</trkpt>
<trkpt lat="40.0729083" lon="-105.2308496">
  <ele>1595.48</ele>
  <time>2026-08-28T19:11:28Z</time>
  <course>3.82</course>
  <speed>0.04</speed>
  <fix>3d</fix>
</trkpt>
<trkpt lat="40.0729082" lon="-105.2308497">
  <ele>1595.56</ele>
  <time>2026-08-28T19:11:28Z</time>
  <course>36.32</course>
  <speed>0.02</speed>
  <fix>3d</fix>
</trkpt>
<trkpt lat="40.0729084" lon="-105.2308496">
  <ele>1595.47</ele>
  <time>2026-08-28T19:11:28Z</time>
  <course>1.39</course>
  <speed>0.04</speed>
  <fix>3d</fix>
</trkpt>
<trkpt lat="40.0729083" lon="-105.2308497">
  <ele>1595.55</ele>
  <time>2026-08-28T19:11:28Z</time>
  <course>37.69</course>
  <speed>0.02</speed>
  <fix>3d</fix>
</trkpt>
<trkpt lat="40.0729084" lon="-105.2308496">
  <ele>1595.47</ele>
  <time>2026-08-28T19:11:28Z</time>
  <course>359.29</course>
  <speed>0.04</speed>
  <fix>3d</fix>
</trkpt>
<trkpt lat="40.0729084" lon="-105.2308496">
  <ele>1595.55</ele>
  <time>2026-08-28T19:11:28Z</time>
  <course>39.16</course>
  <speed>0.02</speed>
  <fix>3d</fix>
</trkpt>
<trkpt lat="40.0729085" lon="-105.2308496">
  <ele>1595.47</ele>
  <time>2026-08-28T19:11:28Z</time>
  <course>358.17</course>
  <speed>0.04</speed>
  <fix>3d</fix>
</trkpt>
<trkpt lat="40.0729084" lon="-105.2308496">
  <ele>1595.55</ele>
  <time>2026-08-28T19:11:28Z</time>
  <course>40.68</course>
  <speed>0.02</speed>
  <fix>3d</fix>
</trkpt>
<trkpt lat="40.0729086" lon="-105.2308496">
  <ele>1595.47</ele>
  <time>2026-08-28T19:11:28Z</time>
  <course>357.55</course>
  <speed>0.04</speed>
  <fix>3d</fix>
</trkpt>
<trkpt lat="40.0729085" lon="-105.2308496">
  <ele>1595.55</ele>
  <time>2026-08-28T19:11:28Z</time>
  <course>42.04</course>
  <speed>0.01</speed>
  <fix>3d</fix>
</trkpt>
<trkpt lat="40.0729087" lon="-105.2308496">
  <ele>1595.48</ele>
  <time>2026-08-28T19:11:28Z</time>
  <course>357.56</course>
  <speed>0.04</speed>
  <fix>3d</fix>
</trkpt>
<trkpt lat="40.0729086" lon="-105.2308496">
  <ele>1595.56</ele>
  <time>2026-08-28T19:11:28Z</time>
  <course>43.1</course>
  <speed>0.01</speed>
  <fix>3d</fix>
</trkpt>
<trkpt lat="40.0729088" lon="-105.2308496">
  <ele>1595.48</ele>
  <time>2026-08-28T19:11:28Z</time>
  <course>358.99</course>
  <speed>0.04</speed>
  <fix>3d</fix>
</trkpt>
<trkpt lat="40.0729087" lon="-105.2308496">
  <ele>1595.56</ele>
  <time>2026-08-28T19:11:28Z</time>
  <course>43.77</course>
  <speed>0.01414213562373095</speed>
  <fix>3d</fix>
</trkpt>
<trkpt lat="40.0729089" lon="-105.2308496">
  <ele>1595.48</ele>
  <time>2026-08-28T19:11:28Z</time>
  <course>1.55</course>
  <speed>0.03</speed>
  <fix>3d</fix>
</trkpt>
<trkpt lat="40.0729087" lon="-105.2308496">
  <ele>1595.57</ele>
  <time>2026-08-28T19:11:28Z</time>
  <course>43.97</course>
  <speed>0.01414213562373095</speed>
  <fix>3d</fix>
</trkpt>
<trkpt lat="40.0729089" lon="-105.2308496">
  <ele>1595.49</ele>
  <time>2026-08-28T19:11:28Z</time>
  <course>5.14</course>
  <speed>0.03</speed>
  <fix>3d</fix>
</trkpt>
<trkpt lat="40.0729088" lon="-105.2308496">
  <ele>1595.57</ele>
  <time>2026-08-28T19:11:28Z</time>
  <course>43.69</course>
  <speed>0.01414213562373095</speed>
  <fix>3d</fix>
</trkpt>
<trkpt lat="40.072909" lon="-105.2308496">
  <ele>1595.49</ele>
  <time>2026-08-28T19:11:28Z</time>
  <course>9.34</course>
  <speed>0.03</speed>
  <fix>3d</fix>
</trkpt>
<trkpt lat="40.0729089" lon="-105.2308496">
  <ele>1595.58</ele>
  <time>2026-08-28T19:11:28Z</time>
  <course>42.98</course>
  <speed>0.01414213562373095</speed>
  <fix>3d</fix>
</trkpt>
<trkpt lat="40.072909" lon="-105.2308496">
  <ele>1595.49</ele>
  <time>2026-08-28T19:11:28Z</time>
  <course>12.7</course>
  <speed>0.03</speed>
  <fix>3d</fix>
</trkpt>
<trkpt lat="40.0729089" lon="-105.2308495">
  <ele>1595.58</ele>
  <time>2026-08-28T19:11:28Z</time>
  <course>41.9</course>
  <speed>0.01414213562373095</speed>
  <fix>3d</fix>
</trkpt>
<trkpt lat="40.0729091" lon="-105.2308496">
  <ele>1595.49</ele>
  <time>2026-08-28T19:11:28Z</time>
  <course>14.94</course>
  <speed>0.03</speed>
  <fix>3d</fix>
</trkpt>
<trkpt lat="40.072909" lon="-105.2308495">
  <ele>1595.58</ele>
  <time>2026-08-28T19:11:28Z</time>
  <course>40.51</course>
  <speed>0.01414213562373095</speed>
  <fix>3d</fix>
</trkpt>
<trkpt lat="40.0729092" lon="-105.2308496">
  <ele>1595.49</ele>
  <time>2026-08-28T19:11:28Z</time>
  <course>16.4</course>
  <speed>0.03</speed>
  <fix>3d</fix>
</trkpt>
<trkpt lat="40.0729091" lon="-105.2308495">
  <ele>1595.57</ele>
  <time>2026-08-28T19:11:28Z</time>
  <course>38.98</course>
  <speed>0.01414213562373095</speed>
  <fix>3d</fix>
</trkpt>
<trkpt lat="40.0729093" lon="-105.2308496">
  <ele>1595.49</ele>
  <time>2026-08-28T19:11:28Z</time>
  <course>16.59</course>
  <speed>0.03</speed>
  <fix>3d</fix>
</trkpt>
<trkpt lat="40.0729091" lon="-105.2308495">
  <ele>1595.58</ele>
  <time>2026-08-28T19:11:28Z</time>
  <course>37.46</course>
  <speed>0.01414213562373095</speed>
  <fix>3d</fix>
</trkpt>
<trkpt lat="40.0729093" lon="-105.2308496">
  <ele>1595.48</ele>
  <time>2026-08-28T19:11:28Z</time>
  <course>15.82</course>
  <speed>0.03</speed>
  <fix>3d</fix>
</trkpt>
<trkpt lat="40.0729092" lon="-105.2308495">
  <ele>1595.58</ele>
  <time>2026-08-28T19:11:28Z</time>
  <course>36.11</course>
  <speed>0.01414213562373095</speed>
  <fix>3d</fix>
</trkpt>
<trkpt lat="40.0729094" lon="-105.2308496">
  <ele>1595.48</ele>
  <time>2026-08-28T19:11:28Z</time>
  <course>14.26</course>
  <speed>0.04</speed>
  <fix>3d</fix>
</trkpt>
<trkpt lat="40.0729093" lon="-105.2308494">
  <ele>1595.58</ele>
  <time>2026-08-28T19:11:28Z</time>
  <course>35.06</course>
  <speed>0.01414213562373095</speed>
  <fix>3d</fix>
</trkpt>
<trkpt lat="40.0729095" lon="-105.2308495">
  <ele>1595.48</ele>
  <time>2026-08-28T19:11:28Z</time>
  <course>11.63</course>
  <speed>0.04</speed>
  <fix>3d</fix>
</trkpt>
<trkpt lat="40.0729094" lon="-105.2308494">
  <ele>1595.57</ele>
  <time>2026-08-28T19:11:28Z</time>
  <course>34.4</course>
  <speed>0.02</speed>
  <fix>3d</fix>
</trkpt>
<trkpt lat="40.0729095" lon="-105.2308494">
  <ele>1595.48</ele>
  <time>2026-08-28T19:11:28Z</time>
  <course>8.49</course>
  <speed>0.04</speed>
  <fix>3d</fix>
</trkpt>
<trkpt lat="40.0729094" lon="-105.2308494">
  <ele>1595.57</ele>
  <time>2026-08-28T19:11:28Z</time>
  <course>34.19</course>
  <speed>0.02</speed>
  <fix>3d</fix>
</trkpt>
<trkpt lat="40.0729096" lon="-105.2308494">
  <ele>1595.48</ele>
  <time>2026-08-28T19:11:28Z</time>
  <course>5.3</course>
  <speed>0.04</speed>
  <fix>3d</fix>
</trkpt>
<trkpt lat="40.0729095" lon="-105.2308494">
  <ele>1595.57</ele>
  <time>2026-08-28T19:11:28Z</time>
  <course>34.16</course>
  <speed>0.02</speed>
  <fix>3d</fix>
</trkpt>
<trkpt lat="40.0729097" lon="-105.2308494">
  <ele>1595.47</ele>
  <time>2026-08-28T19:11:28Z</time>
  <course>3.99</course>
  <speed>0.04</speed>
  <fix>3d</fix>
</trkpt>
<trkpt lat="40.0729096" lon="-105.2308494">
  <ele>1595.57</ele>
  <time>2026-08-28T19:11:28Z</time>
  <course>34.17</course>
  <speed>0.022360679774997897</speed>
  <fix>3d</fix>
</trkpt>
<trkpt lat="40.0729098" lon="-105.2308494">
  <ele>1595.47</ele>
  <time>2026-08-28T19:11:28Z</time>
  <course>5.9</course>
  <speed>0.04</speed>
  <fix>3d</fix>
</trkpt>
<trkpt lat="40.0729097" lon="-105.2308494">
  <ele>1595.57</ele>
  <time>2026-08-28T19:11:28Z</time>
  <course>34.17</course>
  <speed>0.022360679774997897</speed>
  <fix>3d</fix>
</trkpt>
<trkpt lat="40.0729098" lon="-105.2308494">
  <ele>1595.47</ele>
  <time>2026-08-28T19:11:28Z</time>
  <course>8.78</course>
  <speed>0.04</speed>
  <fix>3d</fix>
</trkpt>
<trkpt lat="40.0729098" lon="-105.2308494">
  <ele>1595.57</ele>
  <time>2026-08-28T19:11:28Z</time>
  <course>34.16</course>
  <speed>0.0316227766016838</speed>
  <fix>3d</fix>
</trkpt>
<trkpt lat="40.0729099" lon="-105.2308494">
  <ele>1595.47</ele>
  <time>2026-08-28T19:11:28Z</time>
  <course>11.21</course>
  <speed>0.05</speed>
  <fix>3d</fix>
</trkpt>
<trkpt lat="40.0729099" lon="-105.2308493">
  <ele>1595.57</ele>
  <time>2026-08-28T19:11:28Z</time>
  <course>34.17</course>
  <speed>0.03605551275463989</speed>
  <fix>3d</fix>
</trkpt>
<trkpt lat="40.07291" lon="-105.2308494">
  <ele>1595.47</ele>
  <time>2026-08-28T19:11:28Z</time>
  <course>13.26</course>
  <speed>0.05</speed>
  <fix>3d</fix>
</trkpt>
<trkpt lat="40.07291" lon="-105.2308493">
  <ele>1595.57</ele>
  <time>2026-08-28T19:11:28Z</time>
  <course>34.17</course>
  <speed>0.03605551275463989</speed>
  <fix>3d</fix>
</trkpt>
<trkpt lat="40.0729101" lon="-105.2308494">
  <ele>1595.47</ele>
  <time>2026-08-28T19:11:28Z</time>
  <course>14.87</course>
  <speed>0.06</speed>
  <fix>3d</fix>
</trkpt>
<trkpt lat="40.0729101" lon="-105.2308493">
  <ele>1595.58</ele>
  <time>2026-08-28T19:11:28Z</time>
  <course>34.19</course>
  <speed>0.044721359549995794</speed>
  <fix>3d</fix>
</trkpt>
<trkpt lat="40.0729102" lon="-105.2308494">
  <ele>1595.47</ele>
  <time>2026-08-28T19:11:28Z</time>
  <course>15.99</course>
  <speed>0.06</speed>
  <fix>3d</fix>
</trkpt>
<trkpt lat="40.0729102" lon="-105.2308492">
  <ele>1595.58</ele>
  <time>2026-08-28T19:11:28Z</time>
  <course>34.18</course>
  <speed>0.044721359549995794</speed>
  <fix>3d</fix>
</trkpt>
<trkpt lat="40.0729104" lon="-105.2308493">
  <ele>1595.47</ele>
  <time>2026-08-28T19:11:28Z</time>
  <course>16.46</course>
  <speed>0.06</speed>
  <fix>3d</fix>
</trkpt>
<trkpt lat="40.0729103" lon="-105.2308492">
  <ele>1595.58</ele>
  <time>2026-08-28T19:11:28Z</time>
  <course>34.19</course>
  <speed>0.044721359549995794</speed>
  <fix>3d</fix>
</trkpt>
<trkpt lat="40.0729105" lon="-105.2308492">
  <ele>1595.47</ele>
  <time>2026-08-28T19:11:28Z</time>
  <course>16.69</course>
  <speed>0.07</speed>
  <fix>3d</fix>
</trkpt>
<trkpt lat="40.0729105" lon="-105.2308491">
  <ele>1595.58</ele>
  <time>2026-08-28T19:11:28Z</time>
  <course>34.21</course>
  <speed>0.053851648071345036</speed>
  <fix>3d</fix>
</trkpt>
<trkpt lat="40.0729106" lon="-105.2308492">
  <ele>1595.47</ele>
  <time>2026-08-28T19:11:28Z</time>
  <course>17.0</course>
  <speed>0.07</speed>
  <fix>3d</fix>
</trkpt>
<trkpt lat="40.0729106" lon="-105.2308491">
  <ele>1595.57</ele>
  <time>2026-08-28T19:11:28Z</time>
  <course>34.19</course>
  <speed>0.053851648071345036</speed>
  <fix>3d</fix>
</trkpt>
<trkpt lat="40.0729107" lon="-105.2308492">
  <ele>1595.46</ele>
  <time>2026-08-28T19:11:28Z</time>
  <course>17.48</course>
  <speed>0.07</speed>
  <fix>3d</fix>
</trkpt>
<trkpt lat="40.0729107" lon="-105.230849">
  <ele>1595.57</ele>
  <time>2026-08-28T19:11:28Z</time>
  <course>34.17</course>
  <speed>0.05830951894845301</speed>
  <fix>3d</fix>
</trkpt>
<trkpt lat="40.0729108" lon="-105.2308491">
  <ele>1595.46</ele>
  <time>2026-08-28T19:11:28Z</time>
  <course>18.16</course>
  <speed>0.08</speed>
  <fix>3d</fix>
</trkpt>
<trkpt lat="40.0729109" lon="-105.230849">
  <ele>1595.56</ele>
  <time>2026-08-28T19:11:28Z</time>
  <course>34.17</course>
  <speed>0.0670820393249937</speed>
  <fix>3d</fix>
</trkpt>
<trkpt lat="40.072911" lon="-105.230849">
  <ele>1595.46</ele>
  <time>2026-08-28T19:11:28Z</time>
  <course>18.77</course>
  <speed>0.08</speed>
  <fix>3d</fix>
</trkpt>
<trkpt lat="40.072911" lon="-105.2308489">
  <ele>1595.55</ele>
  <time>2026-08-28T19:11:28Z</time>
  <course>34.16</course>
  <speed>0.0670820393249937</speed>
  <fix>3d</fix>
</trkpt>
<trkpt lat="40.0729112" lon="-105.2308489">
  <ele>1595.46</ele>
  <time>2026-08-28T19:11:28Z</time>
  <course>19.27</course>
  <speed>0.08</speed>
  <fix>3d</fix>
</trkpt>
<trkpt lat="40.0729112" lon="-105.2308488">
  <ele>1595.55</ele>
  <time>2026-08-28T19:11:28Z</time>
  <course>34.15</course>
  <speed>0.0670820393249937</speed>
  <fix>3d</fix>
</trkpt>
<trkpt lat="40.0729113" lon="-105.2308489">
  <ele>1595.46</ele>
  <time>2026-08-28T19:11:28Z</time>
  <course>19.61</course>
  <speed>0.09</speed>
  <fix>3d</fix>
</trkpt>
<trkpt lat="40.0729114" lon="-105.2308487">
  <ele>1595.55</ele>
  <time>2026-08-28T19:11:28Z</time>
  <course>34.15</course>
  <speed>0.0670820393249937</speed>
  <fix>3d</fix>
</trkpt>
<trkpt lat="40.0729114" lon="-105.2308488">
  <ele>1595.46</ele>
  <time>2026-08-28T19:11:28Z</time>
  <course>19.61</course>
  <speed>0.09</speed>
  <fix>3d</fix>
</trkpt>
<trkpt lat="40.0729115" lon="-105.2308487">
  <ele>1595.56</ele>
  <time>2026-08-28T19:11:28Z</time>
  <course>34.03</course>
  <speed>0.07211102550927978</speed>
  <fix>3d</fix>
</trkpt>
<trkpt lat="40.0729116" lon="-105.2308487">
  <ele>1595.46</ele>
  <time>2026-08-28T19:11:28Z</time>
  <course>19.87</course>
  <speed>0.09</speed>
  <fix>3d</fix>
</trkpt>
<trkpt lat="40.0729117" lon="-105.2308486">
  <ele>1595.56</ele>
  <time>2026-08-28T19:11:28Z</time>
  <course>33.02</course>
  <speed>0.07211102550927978</speed>
  <fix>3d</fix>
</trkpt>
<trkpt lat="40.0729118" lon="-105.2308487">
  <ele>1595.46</ele>
  <time>2026-08-28T19:11:28Z</time>
  <course>21.35</course>
  <speed>0.09</speed>
  <fix>3d</fix>
</trkpt>
<trkpt lat="40.0729118" lon="-105.2308485">
  <ele>1595.56</ele>
  <time>2026-08-28T19:11:28Z</time>
  <course>31.69</course>
  <speed>0.0670820393249937</speed>
  <fix>3d</fix>
</trkpt>
<trkpt lat="40.072912" lon="-105.2308486">
  <ele>1595.47</ele>
  <time>2026-08-28T19:11:28Z</time>
  <course>22.18</course>
  <speed>0.09</speed>
  <fix>3d</fix>
</trkpt>
<trkpt lat="40.072912" lon="-105.2308484">
  <ele>1595.56</ele>
  <time>2026-08-28T19:11:28Z</time>
  <course>30.52</course>
  <speed>0.0670820393249937</speed>
  <fix>3d</fix>
</trkpt>
<trkpt lat="40.0729121" lon="-105.2308485">
  <ele>1595.47</ele>
  <time>2026-08-28T19:11:28Z</time>
  <course>21.13</course>
  <speed>0.09</speed>
  <fix>3d</fix>
</trkpt>
<trkpt lat="40.0729121" lon="-105.2308484">
  <ele>1595.57</ele>
  <time>2026-08-28T19:11:28Z</time>
  <course>29.69</course>
  <speed>0.053851648071345036</speed>
  <fix>3d</fix>
</trkpt>
<trkpt lat="40.0729123" lon="-105.2308484">
  <ele>1595.47</ele>
  <time>2026-08-28T19:11:28Z</time>
  <course>19.12</course>
  <speed>0.08</speed>
  <fix>3d</fix>
</trkpt>
<trkpt lat="40.0729123" lon="-105.2308483">
  <ele>1595.57</ele>
  <time>2026-08-28T19:11:28Z</time>
  <course>29.29</course>
  <speed>0.044721359549995794</speed>
  <fix>3d</fix>
</trkpt>
<trkpt lat="40.0729124" lon="-105.2308484">
  <ele>1595.47</ele>
  <time>2026-08-28T19:11:28Z</time>
  <course>16.24</course>
  <speed>0.07</speed>
  <fix>3d</fix>
</trkpt>
<trkpt lat="40.0729124" lon="-105.2308483">
  <ele>1595.56</ele>
  <time>2026-08-28T19:11:28Z</time>
  <course>29.36</course>
  <speed>0.0412310562561766</speed>
  <fix>3d</fix>
</trkpt>
<trkpt lat="40.0729125" lon="-105.2308483">
  <ele>1595.48</ele>
  <time>2026-08-28T19:11:28Z</time>
  <course>12.49</course>
  <speed>0.06</speed>
  <fix>3d</fix>
</trkpt>
<trkpt lat="40.0729125" lon="-105.2308483">
  <ele>1595.56</ele>
  <time>2026-08-28T19:11:28Z</time>
  <course>29.91</course>
  <speed>0.03</speed>
  <fix>3d</fix>
</trkpt>
<trkpt lat="40.0729126" lon="-105.2308482">
  <ele>1595.48</ele>
  <time>2026-08-28T19:11:28Z</time>
  <course>7.97</course>
  <speed>0.06</speed>
  <fix>3d</fix>
</trkpt>
<trkpt lat="40.0729126" lon="-105.2308483">
  <ele>1595.56</ele>
  <time>2026-08-28T19:11:28Z</time>
  <course>30.87</course>
  <speed>0.03</speed>
  <fix>3d</fix>
</trkpt>
<trkpt lat="40.0729127" lon="-105.2308482">
  <ele>1595.48</ele>
  <time>2026-08-28T19:11:28Z</time>
  <course>3.14</course>
  <speed>0.05</speed>
  <fix>3d</fix>
</trkpt>
<trkpt lat="40.0729127" lon="-105.2308483">
  <ele>1595.56</ele>
  <time>2026-08-28T19:11:28Z</time>
  <course>32.14</course>
  <speed>0.02</speed>
  <fix>3d</fix>
</trkpt>
<trkpt lat="40.0729128" lon="-105.2308482">
  <ele>1595.48</ele>
  <time>2026-08-28T19:11:28Z</time>
  <course>358.93</course>
  <speed>0.04</speed>
  <fix>3d</fix>
</trkpt>
<trkpt lat="40.0729128" lon="-105.2308483">
  <ele>1595.56</ele>
  <time>2026-08-28T19:11:28Z</time>
  <course>33.58</course>
  <speed>0.02</speed>
  <fix>3d</fix>
</trkpt>
<trkpt lat="40.0729129" lon="-105.2308482">
  <ele>1595.48</ele>
  <time>2026-08-28T19:11:28Z</time>
  <course>355.52</course>
  <speed>0.04</speed>
  <fix>3d</fix>
</trkpt>
<trkpt lat="40.0729128" lon="-105.2308483">
  <ele>1595.56</ele>
  <time>2026-08-28T19:11:28Z</time>
  <course>35.15</course>
  <speed>0.01</speed>
  <fix>3d</fix>
</trkpt>
<trkpt lat="40.072913" lon="-105.2308482">
  <ele>1595.48</ele>
  <time>2026-08-28T19:11:28Z</time>
  <course>352.92</course>
  <speed>0.04</speed>
  <fix>3d</fix>
</trkpt>
<trkpt lat="40.0729129" lon="-105.2308483">
  <ele>1595.56</ele>
  <time>2026-08-28T19:11:28Z</time>
  <course>36.6</course>
  <speed>0.01</speed>
  <fix>3d</fix>
</trkpt>
<trkpt lat="40.0729131" lon="-105.2308482">
  <ele>1595.49</ele>
  <time>2026-08-28T19:11:28Z</time>
  <course>351.82</course>
  <speed>0.03</speed>
  <fix>3d</fix>
</trkpt>
<trkpt lat="40.072913" lon="-105.2308483">
  <ele>1595.57</ele>
  <time>2026-08-28T19:11:28Z</time>
  <course>37.76</course>
  <speed>0.01</speed>
  <fix>3d</fix>
</trkpt>
<trkpt lat="40.0729131" lon="-105.2308482">
  <ele>1595.49</ele>
  <time>2026-08-28T19:11:28Z</time>
  <course>352.41</course>
  <speed>0.03</speed>
  <fix>3d</fix>
</trkpt>
<trkpt lat="40.072913" lon="-105.2308482">
  <ele>1595.56</ele>
  <time>2026-08-28T19:11:28Z</time>
  <course>38.64</course>
  <speed>0.01</speed>
  <fix>3d</fix>
</trkpt>
<trkpt lat="40.0729132" lon="-105.2308482">
  <ele>1595.49</ele>
  <time>2026-08-28T19:11:28Z</time>
  <course>354.28</course>
  <speed>0.03</speed>
  <fix>3d</fix>
</trkpt>
<trkpt lat="40.0729131" lon="-105.2308482">
  <ele>1595.56</ele>
  <time>2026-08-28T19:11:28Z</time>
  <course>39.04</course>
  <speed>0.01</speed>
  <fix>3d</fix>
</trkpt>
<trkpt lat="40.0729132" lon="-105.2308482">
  <ele>1595.49</ele>
  <time>2026-08-28T19:11:28Z</time>
  <course>356.86</course>
  <speed>0.03</speed>
  <fix>3d</fix>
</trkpt>
<trkpt lat="40.0729131" lon="-105.2308482">
  <ele>1595.56</ele>
  <time>2026-08-28T19:11:28Z</time>
  <course>38.97</course>
  <speed>0.01414213562373095</speed>
  <fix>3d</fix>
</trkpt>
<trkpt lat="40.0729133" lon="-105.2308482">
  <ele>1595.49</ele>
  <time>2026-08-28T19:11:28Z</time>
  <course>0.08</course>
  <speed>0.03</speed>
  <fix>3d</fix>
</trkpt>
<trkpt lat="40.0729132" lon="-105.2308482">
  <ele>1595.56</ele>
  <time>2026-08-28T19:11:28Z</time>
  <course>38.38</course>
  <speed>0.01414213562373095</speed>
  <fix>3d</fix>
</trkpt>
<trkpt lat="40.0729134" lon="-105.2308482">
  <ele>1595.49</ele>
  <time>2026-08-28T19:11:28Z</time>
  <course>4.14</course>
  <speed>0.03</speed>
  <fix>3d</fix>
</trkpt>
<trkpt lat="40.0729132" lon="-105.2308482">
  <ele>1595.57</ele>
  <time>2026-08-28T19:11:28Z</time>
  <course>37.42</course>
  <speed>0.01414213562373095</speed>
  <fix>3d</fix>
</trkpt>
<trkpt lat="40.0729134" lon="-105.2308482">
  <ele>1595.49</ele>
  <time>2026-08-28T19:11:28Z</time>
  <course>8.24</course>
  <speed>0.03</speed>
  <fix>3d</fix>
</trkpt>
<trkpt lat="40.0729133" lon="-105.2308482">
  <ele>1595.57</ele>
  <time>2026-08-28T19:11:28Z</time>
  <course>36.14</course>
  <speed>0.01414213562373095</speed>
  <fix>3d</fix>
</trkpt>
<trkpt lat="40.0729135" lon="-105.2308482">
  <ele>1595.5</ele>
  <time>2026-08-28T19:11:28Z</time>
  <course>10.86</course>
  <speed>0.03</speed>
  <fix>3d</fix>
</trkpt>
<trkpt lat="40.0729134" lon="-105.2308481">
  <ele>1595.57</ele>
  <time>2026-08-28T19:11:28Z</time>
  <course>34.65</course>
  <speed>0.01414213562373095</speed>
  <fix>3d</fix>
</trkpt>
<trkpt lat="40.0729136" lon="-105.2308482">
  <ele>1595.5</ele>
  <time>2026-08-28T19:11:28Z</time>
  <course>11.63</course>
  <speed>0.03</speed>
  <fix>3d</fix>
</trkpt>
<trkpt lat="40.0729134" lon="-105.2308481">
  <ele>1595.58</ele>
  <time>2026-08-28T19:11:28Z</time>
  <course>33.16</course>
  <speed>0.01414213562373095</speed>
  <fix>3d</fix>
</trkpt>
<trkpt lat="40.0729136" lon="-105.2308482">
  <ele>1595.5</ele>
  <time>2026-08-28T19:11:28Z</time>
  <course>10.92</course>
  <speed>0.03</speed>
  <fix>3d</fix>
</trkpt>
<trkpt lat="40.0729135" lon="-105.2308481">
  <ele>1595.58</ele>
  <time>2026-08-28T19:11:28Z</time>
  <course>31.73</course>
  <speed>0.01414213562373095</speed>
  <fix>3d</fix>
</trkpt>
<trkpt lat="40.0729137" lon="-105.2308482">
  <ele>1595.5</ele>
  <time>2026-08-28T19:11:28Z</time>
  <course>9.03</course>
  <speed>0.03</speed>
  <fix>3d</fix>
</trkpt>
<trkpt lat="40.0729136" lon="-105.2308481">
  <ele>1595.58</ele>
  <time>2026-08-28T19:11:28Z</time>
  <course>30.57</course>
  <speed>0.022360679774997897</speed>
  <fix>3d</fix>
</trkpt>
<trkpt lat="40.0729137" lon="-105.2308482">
  <ele>1595.5</ele>
  <time>2026-08-28T19:11:28Z</time>
  <course>6.2</course>
  <speed>0.04</speed>
  <fix>3d</fix>
</trkpt>
<trkpt lat="40.0729137" lon="-105.2308481">
  <ele>1595.58</ele>
  <time>2026-08-28T19:11:28Z</time>
  <course>29.72</course>
  <speed>0.022360679774997897</speed>
  <fix>3d</fix>
</trkpt>
<trkpt lat="40.0729138" lon="-105.2308482">
  <ele>1595.5</ele>
  <time>2026-08-28T19:11:28Z</time>
  <course>3.3</course>
  <speed>0.04</speed>
  <fix>3d</fix>
</trkpt>
<trkpt lat="40.0729137" lon="-105.2308481">
  <ele>1595.58</ele>
  <time>2026-08-28T19:11:28Z</time>
  <course>29.31</course>
  <speed>0.02</speed>
  <fix>3d</fix>
</trkpt>
<trkpt lat="40.0729139" lon="-105.2308482">
  <ele>1595.5</ele>
  <time>2026-08-28T19:11:28Z</time>
  <course>0.5</course>
  <speed>0.04</speed>
  <fix>3d</fix>
</trkpt>
<trkpt lat="40.0729138" lon="-105.2308481">
  <ele>1595.57</ele>
  <time>2026-08-28T19:11:28Z</time>
  <course>29.38</course>
  <speed>0.02</speed>
  <fix>3d</fix>
</trkpt>
<trkpt lat="40.072914" lon="-105.2308482">
  <ele>1595.5</ele>
  <time>2026-08-28T19:11:28Z</time>
  <course>357.66</course>
  <speed>0.04</speed>
  <fix>3d</fix>
</trkpt>
<trkpt lat="40.0729139" lon="-105.2308481">
  <ele>1595.57</ele>
  <time>2026-08-28T19:11:28Z</time>
  <course>29.91</course>
  <speed>0.02</speed>
  <fix>3d</fix>
</trkpt>
<trkpt lat="40.0729141" lon="-105.2308482">
  <ele>1595.5</ele>
  <time>2026-08-28T19:11:28Z</time>
  <course>354.94</course>
  <speed>0.04</speed>
  <fix>3d</fix>
</trkpt>
<trkpt lat="40.072914" lon="-105.2308481">
  <ele>1595.57</ele>
  <time>2026-08-28T19:11:28Z</time>
  <course>30.89</course>
  <speed>0.02</speed>
  <fix>3d</fix>
</trkpt>
<trkpt lat="40.0729142" lon="-105.2308482">
  <ele>1595.49</ele>
  <time>2026-08-28T19:11:28Z</time>
  <course>352.31</course>
  <speed>0.04</speed>
  <fix>3d</fix>
</trkpt>
<trkpt lat="40.0729141" lon="-105.2308481">
  <ele>1595.57</ele>
  <time>2026-08-28T19:11:28Z</time>
  <course>32.18</course>
  <speed>0.02</speed>
  <fix>3d</fix>
</trkpt>
<trkpt lat="40.0729142" lon="-105.2308482">
  <ele>1595.49</ele>
  <time>2026-08-28T19:11:28Z</time>
  <course>349.77</course>
  <speed>0.04</speed>
  <fix>3d</fix>
</trkpt>
<trkpt lat="40.0729142" lon="-105.2308481">
  <ele>1595.57</ele>
  <time>2026-08-28T19:11:28Z</time>
  <course>33.67</course>
  <speed>0.02</speed>
  <fix>3d</fix>
</trkpt>
<trkpt lat="40.0729143" lon="-105.2308482">
  <ele>1595.49</ele>
  <time>2026-08-28T19:11:28Z</time>
  <course>348.0</course>
  <speed>0.04</speed>
  <fix>3d</fix>
</trkpt>
<trkpt lat="40.0729142" lon="-105.2308481">
  <ele>1595.57</ele>
  <time>2026-08-28T19:11:28Z</time>
  <course>35.19</course>
  <speed>0.02</speed>
  <fix>3d</fix>
</trkpt>
<trkpt lat="40.0729144" lon="-105.2308482">
  <ele>1595.49</ele>
  <time>2026-08-28T19:11:28Z</time>
  <course>347.58</course>
  <speed>0.04</speed>
  <fix>3d</fix>
</trkpt>
<trkpt lat="40.0729143" lon="-105.2308481">
  <ele>1595.56</ele>
  <time>2026-08-28T19:11:28Z</time>
  <course>36.62</course>
  <speed>0.01</speed>
  <fix>3d</fix>
</trkpt>
<trkpt lat="40.0729145" lon="-105.2308482">
  <ele>1595.49</ele>
  <time>2026-08-28T19:11:28Z</time>
  <course>347.89</course>
  <speed>0.04</speed>
  <fix>3d</fix>
</trkpt>
<trkpt lat="40.0729144" lon="-105.2308481">
  <ele>1595.56</ele>
  <time>2026-08-28T19:11:28Z</time>
  <course>37.8</course>
  <speed>0.01</speed>
  <fix>3d</fix>
</trkpt>
<trkpt lat="40.0729146" lon="-105.2308482">
  <ele>1595.49</ele>
  <time>2026-08-28T19:11:28Z</time>
  <course>349.33</course>
  <speed>0.04</speed>
  <fix>3d</fix>
</trkpt>
<trkpt lat="40.0729145" lon="-105.2308481">
  <ele>1595.56</ele>
  <time>2026-08-28T19:11:28Z</time>
  <course>38.63</course>
  <speed>0.01</speed>
  <fix>3d</fix>
</trkpt>
<trkpt lat="40.0729146" lon="-105.2308482">
  <ele>1595.49</ele>
  <time>2026-08-28T19:11:28Z</time>
  <course>352.46</course>
  <speed>0.03</speed>
  <fix>3d</fix>
</trkpt>
<trkpt lat="40.0729145" lon="-105.2308481">
  <ele>1595.56</ele>
  <time>2026-08-28T19:11:28Z</time>
  <course>39.0</course>
  <speed>0.01414213562373095</speed>
  <fix>3d</fix>
</trkpt>
<trkpt lat="40.0729147" lon="-105.2308482">
  <ele>1595.49</ele>
  <time>2026-08-28T19:11:28Z</time>
  <course>356.71</course>
  <speed>0.03</speed>
  <fix>3d</fix>
</trkpt>
<trkpt lat="40.0729146" lon="-105.2308481">
  <ele>1595.56</ele>
  <time>2026-08-28T19:11:28Z</time>
  <course>38.94</course>
  <speed>0.01414213562373095</speed>
  <fix>3d</fix>
</trkpt>
<trkpt lat="40.0729148" lon="-105.2308482">
  <ele>1595.49</ele>
  <time>2026-08-28T19:11:28Z</time>
  <course>0.92</course>
  <speed>0.03</speed>
  <fix>3d</fix>
</trkpt>
<trkpt lat="40.0729146" lon="-105.2308481">
  <ele>1595.57</ele>
  <time>2026-08-28T19:11:28Z</time>
  <course>38.38</course>
  <speed>0.01414213562373095</speed>
  <fix>3d</fix>
</trkpt>
<trkpt lat="40.0729148" lon="-105.2308482">
  <ele>1595.5</ele>
  <time>2026-08-28T19:11:28Z</time>
  <course>5.45</course>
  <speed>0.03</speed>
  <fix>3d</fix>
</trkpt>
<trkpt lat="40.0729147" lon="-105.2308481">
  <ele>1595.57</ele>
  <time>2026-08-28T19:11:28Z</time>
  <course>37.44</course>
  <speed>0.01414213562373095</speed>
  <fix>3d</fix>
</trkpt>
<trkpt lat="40.0729149" lon="-105.2308482">
  <ele>1595.5</ele>
  <time>2026-08-28T19:11:28Z</time>
  <course>9.5</course>
  <speed>0.03</speed>
  <fix>3d</fix>
</trkpt>
<trkpt lat="40.0729148" lon="-105.2308481">
  <ele>1595.57</ele>
  <time>2026-08-28T19:11:28Z</time>
  <course>36.17</course>
  <speed>0.01414213562373095</speed>
  <fix>3d</fix>
</trkpt>
<trkpt lat="40.0729149" lon="-105.2308482">
  <ele>1595.5</ele>
  <time>2026-08-28T19:11:28Z</time>
  <course>11.82</course>
  <speed>0.03</speed>
  <fix>3d</fix>
</trkpt>
<trkpt lat="40.0729148" lon="-105.2308481">
  <ele>1595.58</ele>
  <time>2026-08-28T19:11:28Z</time>
  <course>34.72</course>
  <speed>0.01414213562373095</speed>
  <fix>3d</fix>
</trkpt>
<trkpt lat="40.072915" lon="-105.2308482">
  <ele>1595.5</ele>
  <time>2026-08-28T19:11:28Z</time>
  <course>12.36</course>
  <speed>0.03</speed>
  <fix>3d</fix>
</trkpt>
<trkpt lat="40.0729149" lon="-105.2308481">
  <ele>1595.58</ele>
  <time>2026-08-28T19:11:28Z</time>
  <course>33.18</course>
  <speed>0.01414213562373095</speed>
  <fix>3d</fix>
</trkpt>
<trkpt lat="40.072915" lon="-105.2308482">
  <ele>1595.5</ele>
  <time>2026-08-28T19:11:28Z</time>
  <course>11.85</course>
  <speed>0.03</speed>
  <fix>3d</fix>
</trkpt>
<trkpt lat="40.072915" lon="-105.2308481">
  <ele>1595.57</ele>
  <time>2026-08-28T19:11:28Z</time>
  <course>31.76</course>
  <speed>0.01414213562373095</speed>
  <fix>3d</fix>
</trkpt>
<trkpt lat="40.0729151" lon="-105.2308482">
  <ele>1595.5</ele>
  <time>2026-08-28T19:11:28Z</time>
  <course>10.52</course>
  <speed>0.04</speed>
  <fix>3d</fix>
</trkpt>
<trkpt lat="40.072915" lon="-105.2308481">
  <ele>1595.57</ele>
  <time>2026-08-28T19:11:28Z</time>
  <course>30.54</course>
  <speed>0.01414213562373095</speed>
  <fix>3d</fix>
</trkpt>
<trkpt lat="40.0729152" lon="-105.2308482">
  <ele>1595.5</ele>
  <time>2026-08-28T19:11:28Z</time>
  <course>7.95</course>
  <speed>0.04</speed>
  <fix>3d</fix>
</trkpt>
<trkpt lat="40.0729151" lon="-105.2308481">
  <ele>1595.57</ele>
  <time>2026-08-28T19:11:28Z</time>
  <course>29.7</course>
  <speed>0.022360679774997897</speed>
  <fix>3d</fix>
</trkpt>
<trkpt lat="40.0729153" lon="-105.2308482">
  <ele>1595.5</ele>
  <time>2026-08-28T19:11:28Z</time>
  <course>4.94</course>
  <speed>0.04</speed>
  <fix>3d</fix>
</trkpt>
<trkpt lat="40.0729152" lon="-105.2308481">
  <ele>1595.57</ele>
  <time>2026-08-28T19:11:28Z</time>
  <course>29.29</course>
  <speed>0.02</speed>
  <fix>3d</fix>
</trkpt>
<trkpt lat="40.0729154" lon="-105.2308482">
  <ele>1595.5</ele>
  <time>2026-08-28T19:11:28Z</time>
  <course>1.58</course>
  <speed>0.04</speed>
  <fix>3d</fix>
</trkpt>
<trkpt lat="40.0729153" lon="-105.2308481">
  <ele>1595.58</ele>
  <time>2026-08-28T19:11:28Z</time>
  <course>29.37</course>
  <speed>0.02</speed>
  <fix>3d</fix>
</trkpt>
<trkpt lat="40.0729154" lon="-105.2308482">
  <ele>1595.5</ele>
  <time>2026-08-28T19:11:28Z</time>
  <course>357.78</course>
  <speed>0.04</speed>
  <fix>3d</fix>
</trkpt>
<trkpt lat="40.0729154" lon="-105.2308481">
  <ele>1595.58</ele>
  <time>2026-08-28T19:11:28Z</time>
  <course>29.92</course>
  <speed>0.02</speed>
  <fix>3d</fix>
</trkpt>
<trkpt lat="40.0729155" lon="-105.2308482">
  <ele>1595.5</ele>
  <time>2026-08-28T19:11:28Z</time>
  <course>354.26</course>
  <speed>0.04</speed>
  <fix>3d</fix>
</trkpt>
<trkpt lat="40.0729154" lon="-105.2308481">
  <ele>1595.58</ele>
  <time>2026-08-28T19:11:28Z</time>
  <course>30.92</course>
  <speed>0.02</speed>
  <fix>3d</fix>
</trkpt>
<trkpt lat="40.0729156" lon="-105.2308482">
  <ele>1595.5</ele>
  <time>2026-08-28T19:11:28Z</time>
  <course>351.6</course>
  <speed>0.04</speed>
  <fix>3d</fix>
</trkpt>
<trkpt lat="40.0729155" lon="-105.2308481">
  <ele>1595.59</ele>
  <time>2026-08-28T19:11:28Z</time>
  <course>32.2</course>
  <speed>0.02</speed>
  <fix>3d</fix>
</trkpt>
<trkpt lat="40.0729157" lon="-105.2308482">
  <ele>1595.5</ele>
  <time>2026-08-28T19:11:28Z</time>
  <course>350.06</course>
  <speed>0.04</speed>
  <fix>3d</fix>
</trkpt>
<trkpt lat="40.0729156" lon="-105.2308481">
  <ele>1595.58</ele>
  <time>2026-08-28T19:11:28Z</time>
  <course>33.69</course>
  <speed>0.02</speed>
  <fix>3d</fix>
</trkpt>
<trkpt lat="40.0729158" lon="-105.2308482">
  <ele>1595.49</ele>
  <time>2026-08-28T19:11:28Z</time>
  <course>349.88</course>
  <speed>0.04</speed>
  <fix>3d</fix>
</trkpt>
<trkpt lat="40.0729157" lon="-105.2308481">
  <ele>1595.58</ele>
  <time>2026-08-28T19:11:28Z</time>
  <course>35.22</course>
  <speed>0.02</speed>
  <fix>3d</fix>
</trkpt>
<trkpt lat="40.0729159" lon="-105.2308482">
  <ele>1595.49</ele>
  <time>2026-08-28T19:11:28Z</time>
  <course>350.72</course>
  <speed>0.04</speed>
  <fix>3d</fix>
</trkpt>
<trkpt lat="40.0729158" lon="-105.2308481">
  <ele>1595.57</ele>
  <time>2026-08-28T19:11:28Z</time>
  <course>36.64</course>
  <speed>0.02</speed>
  <fix>3d</fix>
</trkpt>
<trkpt lat="40.0729159" lon="-105.2308482">
  <ele>1595.49</ele>
  <time>2026-08-28T19:11:28Z</time>
  <course>352.18</course>
  <speed>0.04</speed>
  <fix>3d</fix>
</trkpt>
<trkpt lat="40.0729158" lon="-105.2308481">
  <ele>1595.57</ele>
  <time>2026-08-28T19:11:28Z</time>
  <course>37.81</course>
  <speed>0.01</speed>
  <fix>3d</fix>
</trkpt>
<trkpt lat="40.072916" lon="-105.2308482">
  <ele>1595.48</ele>
  <time>2026-08-28T19:11:28Z</time>
  <course>354.52</course>
  <speed>0.04</speed>
  <fix>3d</fix>
</trkpt>
<trkpt lat="40.0729159" lon="-105.2308481">
  <ele>1595.56</ele>
  <time>2026-08-28T19:11:28Z</time>
  <course>38.64</course>
  <speed>0.01</speed>
  <fix>3d</fix>
</trkpt>
<trkpt lat="40.0729161" lon="-105.2308482">
  <ele>1595.48</ele>
  <time>2026-08-28T19:11:28Z</time>
  <course>357.6</course>
  <speed>0.04</speed>
  <fix>3d</fix>
</trkpt>
<trkpt lat="40.072916" lon="-105.2308481">
  <ele>1595.57</ele>
  <time>2026-08-28T19:11:28Z</time>
  <course>39.04</course>
  <speed>0.01414213562373095</speed>
  <fix>3d</fix>
</trkpt>
<trkpt lat="40.0729162" lon="-105.2308482">
  <ele>1595.48</ele>
  <time>2026-08-28T19:11:28Z</time>
  <course>1.49</course>
  <speed>0.03</speed>
  <fix>3d</fix>
</trkpt>
<trkpt lat="40.0729161" lon="-105.2308481">
  <ele>1595.56</ele>
  <time>2026-08-28T19:11:28Z</time>
  <course>38.96</course>
  <speed>0.01414213562373095</speed>
  <fix>3d</fix>
</trkpt>
<trkpt lat="40.0729162" lon="-105.2308482">
  <ele>1595.48</ele>
  <time>2026-08-28T19:11:28Z</time>
  <course>6.0</course>
  <speed>0.03</speed>
  <fix>3d</fix>
</trkpt>
<trkpt lat="40.0729161" lon="-105.2308481">
  <ele>1595.57</ele>
  <time>2026-08-28T19:11:28Z</time>
  <course>38.42</course>
  <speed>0.01414213562373095</speed>
  <fix>3d</fix>
</trkpt>
<trkpt lat="40.0729163" lon="-105.2308482">
  <ele>1595.48</ele>
  <time>2026-08-28T19:11:28Z</time>
  <course>9.71</course>
  <speed>0.03</speed>
  <fix>3d</fix>
</trkpt>
<trkpt lat="40.0729162" lon="-105.2308481">
  <ele>1595.57</ele>
  <time>2026-08-28T19:11:28Z</time>
  <course>37.43</course>
  <speed>0.01414213562373095</speed>
  <fix>3d</fix>
</trkpt>
<trkpt lat="40.0729163" lon="-105.2308482">
  <ele>1595.48</ele>
  <time>2026-08-28T19:11:28Z</time>
  <course>12.31</course>
  <speed>0.03</speed>
  <fix>3d</fix>
</trkpt>
<trkpt lat="40.0729162" lon="-105.2308481">
  <ele>1595.57</ele>
  <time>2026-08-28T19:11:28Z</time>
  <course>36.18</course>
  <speed>0.01414213562373095</speed>
  <fix>3d</fix>
</trkpt>
<trkpt lat="40.0729164" lon="-105.2308482">
  <ele>1595.48</ele>
  <time>2026-08-28T19:11:28Z</time>
  <course>13.69</course>
  <speed>0.03</speed>
  <fix>3d</fix>
</trkpt>
<trkpt lat="40.0729163" lon="-105.2308481">
  <ele>1595.57</ele>
  <time>2026-08-28T19:11:28Z</time>
  <course>34.72</course>
  <speed>0.01414213562373095</speed>
  <fix>3d</fix>
</trkpt>
<trkpt lat="40.0729165" lon="-105.2308482">
  <ele>1595.49</ele>
  <time>2026-08-28T19:11:28Z</time>
  <course>13.59</course>
  <speed>0.03</speed>
  <fix>3d</fix>
</trkpt>
<trkpt lat="40.0729164" lon="-105.2308481">
  <ele>1595.58</ele>
  <time>2026-08-28T19:11:28Z</time>
  <course>33.18</course>
  <speed>0.01414213562373095</speed>
  <fix>3d</fix>
</trkpt>
<trkpt lat="40.0729166" lon="-105.2308482">
  <ele>1595.49</ele>
  <time>2026-08-28T19:11:28Z</time>
  <course>12.88</course>
  <speed>0.04</speed>
  <fix>3d</fix>
</trkpt>
<trkpt lat="40.0729165" lon="-105.2308481">
  <ele>1595.58</ele>
  <time>2026-08-28T19:11:28Z</time>
  <course>31.78</course>
  <speed>0.01414213562373095</speed>
  <fix>3d</fix>
</trkpt>
<trkpt lat="40.0729166" lon="-105.2308482">
  <ele>1595.49</ele>
  <time>2026-08-28T19:11:28Z</time>
  <course>11.44</course>
  <speed>0.04</speed>
  <fix>3d</fix>
</trkpt>
<trkpt lat="40.0729165" lon="-105.2308481">
  <ele>1595.59</ele>
  <time>2026-08-28T19:11:28Z</time>
  <course>30.58</course>
  <speed>0.01414213562373095</speed>
  <fix>3d</fix>
</trkpt>
<trkpt lat="40.0729167" lon="-105.2308482">
  <ele>1595.48</ele>
  <time>2026-08-28T19:11:28Z</time>
  <course>8.86</course>
  <speed>0.04</speed>
  <fix>3d</fix>
</trkpt>
<trkpt lat="40.0729166" lon="-105.2308481">
  <ele>1595.59</ele>
  <time>2026-08-28T19:11:28Z</time>
  <course>29.73</course>
  <speed>0.022360679774997897</speed>
  <fix>3d</fix>
</trkpt>
<trkpt lat="40.0729168" lon="-105.2308482">
  <ele>1595.48</ele>
  <time>2026-08-28T19:11:28Z</time>
  <course>5.75</course>
  <speed>0.04</speed>
  <fix>3d</fix>
</trkpt>
<trkpt lat="40.0729167" lon="-105.2308481">
  <ele>1595.59</ele>
  <time>2026-08-28T19:11:28Z</time>
  <course>29.36</course>
  <speed>0.02</speed>
  <fix>3d</fix>
</trkpt>
<trkpt lat="40.0729168" lon="-105.2308482">
  <ele>1595.48</ele>
  <time>2026-08-28T19:11:28Z</time>
  <course>2.93</course>
  <speed>0.04</speed>
  <fix>3d</fix>
</trkpt>
<trkpt lat="40.0729168" lon="-105.2308481">
  <ele>1595.59</ele>
  <time>2026-08-28T19:11:28Z</time>
  <course>29.44</course>
  <speed>0.02</speed>
  <fix>3d</fix>
</trkpt>
<trkpt lat="40.0729169" lon="-105.2308482">
  <ele>1595.47</ele>
  <time>2026-08-28T19:11:28Z</time>
  <course>0.33</course>
  <speed>0.04</speed>
  <fix>3d</fix>
</trkpt>
<trkpt lat="40.0729169" lon="-105.2308481">
  <ele>1595.58</ele>
  <time>2026-08-28T19:11:28Z</time>
  <course>29.97</course>
  <speed>0.02</speed>
  <fix>3d</fix>
</trkpt>
<trkpt lat="40.072917" lon="-105.2308482">
  <ele>1595.47</ele>
  <time>2026-08-28T19:11:28Z</time>
  <course>357.78</course>
  <speed>0.04</speed>
  <fix>3d</fix>
</trkpt>
<trkpt lat="40.0729169" lon="-105.2308481">
  <ele>1595.57</ele>
  <time>2026-08-28T19:11:28Z</time>
  <course>30.92</course>
  <speed>0.02</speed>
  <fix>3d</fix>
</trkpt>
<trkpt lat="40.0729171" lon="-105.2308482">
  <ele>1595.46</ele>
  <time>2026-08-28T19:11:28Z</time>
  <course>355.46</course>
  <speed>0.04</speed>
  <fix>3d</fix>
</trkpt>
<trkpt lat="40.072917" lon="-105.2308481">
  <ele>1595.57</ele>
  <time>2026-08-28T19:11:28Z</time>
  <course>32.21</course>
  <speed>0.02</speed>
  <fix>3d</fix>
</trkpt>
<trkpt lat="40.0729172" lon="-105.2308482">
  <ele>1595.46</ele>
  <time>2026-08-28T19:11:28Z</time>
  <course>353.27</course>
  <speed>0.04</speed>
  <fix>3d</fix>
</trkpt>
<trkpt lat="40.0729171" lon="-105.2308481">
  <ele>1595.57</ele>
  <time>2026-08-28T19:11:28Z</time>
  <course>33.68</course>
  <speed>0.02</speed>
  <fix>3d</fix>
</trkpt>
<trkpt lat="40.0729173" lon="-105.2308482">
  <ele>1595.46</ele>
  <time>2026-08-28T19:11:28Z</time>
  <course>351.65</course>
  <speed>0.04</speed>
  <fix>3d</fix>
</trkpt>
<trkpt lat="40.0729172" lon="-105.2308481">
  <ele>1595.58</ele>
  <time>2026-08-28T19:11:28Z</time>
  <course>35.21</course>
  <speed>0.02</speed>
  <fix>3d</fix>
</trkpt>
<trkpt lat="40.0729174" lon="-105.2308482">
  <ele>1595.46</ele>
  <time>2026-08-28T19:11:28Z</time>
  <course>350.59</course>
  <speed>0.04</speed>
  <fix>3d</fix>
</trkpt>
<trkpt lat="40.0729173" lon="-105.2308481">
  <ele>1595.58</ele>
  <time>2026-08-28T19:11:28Z</time>
  <course>36.64</course>
  <speed>0.01</speed>
  <fix>3d</fix>
</trkpt>
<trkpt lat="40.0729174" lon="-105.2308482">
  <ele>1595.45</ele>
  <time>2026-08-28T19:11:28Z</time>
  <course>350.36</course>
  <speed>0.04</speed>
  <fix>3d</fix>
</trkpt>
<trkpt lat="40.0729173" lon="-105.2308481">
  <ele>1595.57</ele>
  <time>2026-08-28T19:11:28Z</time>
  <course>37.83</course>
  <speed>0.01</speed>
  <fix>3d</fix>
</trkpt>
<trkpt lat="40.0729175" lon="-105.2308482">
  <ele>1595.45</ele>
  <time>2026-08-28T19:11:28Z</time>
  <course>351.58</course>
  <speed>0.04</speed>
  <fix>3d</fix>
</trkpt>
<trkpt lat="40.0729174" lon="-105.2308481">
  <ele>1595.57</ele>
  <time>2026-08-28T19:11:28Z</time>
  <course>38.67</course>
  <speed>0.01</speed>
  <fix>3d</fix>
</trkpt>
<trkpt lat="40.0729176" lon="-105.2308482">
  <ele>1595.45</ele>
  <time>2026-08-28T19:11:28Z</time>
  <course>354.02</course>
  <speed>0.03</speed>
  <fix>3d</fix>
</trkpt>
<trkpt lat="40.0729175" lon="-105.2308481">
  <ele>1595.57</ele>
  <time>2026-08-28T19:11:28Z</time>
  <course>39.07</course>
  <speed>0.01</speed>
  <fix>3d</fix>
</trkpt>
<trkpt lat="40.0729177" lon="-105.2308482">
  <ele>1595.45</ele>
  <time>2026-08-28T19:11:28Z</time>
  <course>357.69</course>
  <speed>0.03</speed>
  <fix>3d</fix>
</trkpt>
<trkpt lat="40.0729175" lon="-105.2308481">
  <ele>1595.57</ele>
  <time>2026-08-28T19:11:28Z</time>
  <course>38.99</course>
  <speed>0.01414213562373095</speed>
  <fix>3d</fix>
</trkpt>
<trkpt lat="40.0729177" lon="-105.2308482">
  <ele>1595.45</ele>
  <time>2026-08-28T19:11:28Z</time>
  <course>2.59</course>
  <speed>0.03</speed>
  <fix>3d</fix>
</trkpt>
<trkpt lat="40.0729176" lon="-105.2308481">
  <ele>1595.56</ele>
  <time>2026-08-28T19:11:29Z</time>
  <course>38.44</course>
  <speed>0.01414213562373095</speed>
  <fix>3d</fix>
</trkpt>
<trkpt lat="40.0729178" lon="-105.2308482">
  <ele>1595.44</ele>
  <time>2026-08-28T19:11:29Z</time>
  <course>7.84</course>
  <speed>0.03</speed>
  <fix>3d</fix>
</trkpt>
<trkpt lat="40.0729177" lon="-105.2308481">
  <ele>1595.56</ele>
  <time>2026-08-28T19:11:29Z</time>
  <course>37.44</course>
  <speed>0.01414213562373095</speed>
  <fix>3d</fix>
</trkpt>
<trkpt lat="40.0729178" lon="-105.2308482">
  <ele>1595.44</ele>
  <time>2026-08-28T19:11:29Z</time>
  <course>12.37</course>
  <speed>0.03</speed>
  <fix>3d</fix>
</trkpt>
<trkpt lat="40.0729177" lon="-105.2308481">
  <ele>1595.55</ele>
  <time>2026-08-28T19:11:29Z</time>
  <course>36.15</course>
  <speed>0.022360679774997897</speed>
  <fix>3d</fix>
</trkpt>
<trkpt lat="40.0729179" lon="-105.2308482">
  <ele>1595.44</ele>
  <time>2026-08-28T19:11:29Z</time>
  <course>15.75</course>
  <speed>0.03</speed>
  <fix>3d</fix>
</trkpt>
<trkpt lat="40.0729178" lon="-105.2308481">
  <ele>1595.56</ele>
  <time>2026-08-28T19:11:29Z</time>
  <course>34.66</course>
  <speed>0.022360679774997897</speed>
  <fix>3d</fix>
</trkpt>
<trkpt lat="40.072918" lon="-105.2308482">
  <ele>1595.44</ele>
  <time>2026-08-28T19:11:29Z</time>
  <course>17.47</course>
  <speed>0.03</speed>
  <fix>3d</fix>
</trkpt>
<trkpt lat="40.0729179" lon="-105.2308481">
  <ele>1595.56</ele>
  <time>2026-08-28T19:11:29Z</time>
  <course>33.13</course>
  <speed>0.022360679774997897</speed>
  <fix>3d</fix>
</trkpt>
<trkpt lat="40.072918" lon="-105.2308482">
  <ele>1595.44</ele>
  <time>2026-08-28T19:11:29Z</time>
  <course>17.71</course>
  <speed>0.04</speed>
  <fix>3d</fix>
</trkpt>
<trkpt lat="40.0729179" lon="-105.2308481">
  <ele>1595.56</ele>
  <time>2026-08-28T19:11:29Z</time>
  <course>31.72</course>
  <speed>0.01414213562373095</speed>
  <fix>3d</fix>
</trkpt>
<trkpt lat="40.0729181" lon="-105.2308482">
  <ele>1595.45</ele>
  <time>2026-08-28T19:11:29Z</time>
  <course>16.26</course>
  <speed>0.04</speed>
  <fix>3d</fix>
</trkpt>
<trkpt lat="40.072918" lon="-105.230848">
  <ele>1595.57</ele>
  <time>2026-08-28T19:11:29Z</time>
  <course>30.52</course>
  <speed>0.022360679774997897</speed>
  <fix>3d</fix>
</trkpt>
<trkpt lat="40.0729182" lon="-105.2308482">
  <ele>1595.45</ele>
  <time>2026-08-28T19:11:29Z</time>
  <course>13.17</course>
  <speed>0.04</speed>
  <fix>3d</fix>
</trkpt>
<trkpt lat="40.0729181" lon="-105.230848">
  <ele>1595.56</ele>
  <time>2026-08-28T19:11:29Z</time>
  <course>29.71</course>
  <speed>0.022360679774997897</speed>
  <fix>3d</fix>
</trkpt>
<trkpt lat="40.0729183" lon="-105.2308482">
  <ele>1595.45</ele>
  <time>2026-08-28T19:11:29Z</time>
  <course>9.18</course>
  <speed>0.04</speed>
  <fix>3d</fix>
</trkpt>
<trkpt lat="40.0729182" lon="-105.230848">
  <ele>1595.56</ele>
  <time>2026-08-28T19:11:29Z</time>
  <course>29.3</course>
  <speed>0.02</speed>
  <fix>3d</fix>
</trkpt>
<trkpt lat="40.0729183" lon="-105.2308482">
  <ele>1595.45</ele>
  <time>2026-08-28T19:11:29Z</time>
  <course>5.22</course>
  <speed>0.04</speed>
  <fix>3d</fix>
</trkpt>
<trkpt lat="40.0729183" lon="-105.2308481">
  <ele>1595.56</ele>
  <time>2026-08-28T19:11:29Z</time>
  <course>29.36</course>
  <speed>0.02</speed>
  <fix>3d</fix>
</trkpt>
<trkpt lat="40.0729184" lon="-105.2308482">
  <ele>1595.45</ele>
  <time>2026-08-28T19:11:29Z</time>
  <course>1.42</course>
  <speed>0.04</speed>
  <fix>3d</fix>
</trkpt>
<trkpt lat="40.0729183" lon="-105.2308481">
  <ele>1595.56</ele>
  <time>2026-08-28T19:11:29Z</time>
  <course>29.9</course>
  <speed>0.02</speed>
  <fix>3d</fix>
</trkpt>
<trkpt lat="40.0729185" lon="-105.2308482">
  <ele>1595.45</ele>
  <time>2026-08-28T19:11:29Z</time>
  <course>357.88</course>
  <speed>0.04</speed>
  <fix>3d</fix>
</trkpt>
<trkpt lat="40.0729184" lon="-105.2308481">
  <ele>1595.56</ele>
  <time>2026-08-28T19:11:29Z</time>
  <course>30.87</course>
  <speed>0.02</speed>
  <fix>3d</fix>
</trkpt>
<trkpt lat="40.0729186" lon="-105.2308482">
  <ele>1595.45</ele>
  <time>2026-08-28T19:11:29Z</time>
  <course>355.07</course>
  <speed>0.04</speed>
  <fix>3d</fix>
</trkpt>
<trkpt lat="40.0729185" lon="-105.2308481">
  <ele>1595.55</ele>
  <time>2026-08-28T19:11:29Z</time>
  <course>32.14</course>
  <speed>0.02</speed>
  <fix>3d</fix>
</trkpt>
<trkpt lat="40.0729187" lon="-105.2308482">
  <ele>1595.45</ele>
  <time>2026-08-28T19:11:29Z</time>
  <course>353.18</course>
  <speed>0.04</speed>
  <fix>3d</fix>
</trkpt>
<trkpt lat="40.0729186" lon="-105.2308481">
  <ele>1595.55</ele>
  <time>2026-08-28T19:11:29Z</time>
  <course>33.6</course>
  <speed>0.02</speed>
  <fix>3d</fix>
</trkpt>
<trkpt lat="40.0729187" lon="-105.2308482">
  <ele>1595.46</ele>
  <time>2026-08-28T19:11:29Z</time>
  <course>351.93</course>
  <speed>0.04</speed>
  <fix>3d</fix>
</trkpt>
<trkpt lat="40.0729187" lon="-105.2308481">
  <ele>1595.55</ele>
  <time>2026-08-28T19:11:29Z</time>
  <course>35.15</course>
  <speed>0.02</speed>
  <fix>3d</fix>
</trkpt>
<trkpt lat="40.0729188" lon="-105.2308482">
  <ele>1595.46</ele>
  <time>2026-08-28T19:11:29Z</time>
  <course>351.26</course>
  <speed>0.04</speed>
  <fix>3d</fix>
</trkpt>
<trkpt lat="40.0729187" lon="-105.2308481">
  <ele>1595.56</ele>
  <time>2026-08-28T19:11:29Z</time>
  <course>36.56</course>
  <speed>0.01</speed>
  <fix>3d</fix>
</trkpt>
<trkpt lat="40.0729189" lon="-105.2308482">
  <ele>1595.46</ele>
  <time>2026-08-28T19:11:29Z</time>
  <course>351.91</course>
  <speed>0.04</speed>
  <fix>3d</fix>
</trkpt>
<trkpt lat="40.0729188" lon="-105.2308481">
  <ele>1595.56</ele>
  <time>2026-08-28T19:11:29Z</time>
  <course>37.77</course>
  <speed>0.01</speed>
  <fix>3d</fix>
</trkpt>
<trkpt lat="40.072919" lon="-105.2308482">
  <ele>1595.47</ele>
  <time>2026-08-28T19:11:29Z</time>
  <course>353.28</course>
  <speed>0.04</speed>
  <fix>3d</fix>
</trkpt>
<trkpt lat="40.0729189" lon="-105.2308481">
  <ele>1595.56</ele>
  <time>2026-08-28T19:11:29Z</time>
  <course>38.64</course>
  <speed>0.01</speed>
  <fix>3d</fix>
</trkpt>
<trkpt lat="40.0729191" lon="-105.2308482">
  <ele>1595.47</ele>
  <time>2026-08-28T19:11:29Z</time>
  <course>355.4</course>
  <speed>0.03</speed>
  <fix>3d</fix>
</trkpt>
<trkpt lat="40.072919" lon="-105.2308481">
  <ele>1595.56</ele>
  <time>2026-08-28T19:11:29Z</time>
  <course>39.02</course>
  <speed>0.01</speed>
  <fix>3d</fix>
</trkpt>
<trkpt lat="40.0729191" lon="-105.2308482">
  <ele>1595.47</ele>
  <time>2026-08-28T19:11:29Z</time>
  <course>358.69</course>
  <speed>0.03</speed>
  <fix>3d</fix>
</trkpt>
<trkpt lat="40.072919" lon="-105.2308481">
  <ele>1595.56</ele>
  <time>2026-08-28T19:11:29Z</time>
  <course>38.96</course>
  <speed>0.01414213562373095</speed>
  <fix>3d</fix>
</trkpt>
<trkpt lat="40.0729192" lon="-105.2308482">
  <ele>1595.47</ele>
  <time>2026-08-28T19:11:29Z</time>
  <course>2.26</course>
  <speed>0.03</speed>
  <fix>3d</fix>
</trkpt>
<trkpt lat="40.0729191" lon="-105.2308481">
  <ele>1595.57</ele>
  <time>2026-08-28T19:11:29Z</time>
  <course>38.38</course>
  <speed>0.01414213562373095</speed>
  <fix>3d</fix>
</trkpt>
<trkpt lat="40.0729192" lon="-105.2308482">
  <ele>1595.48</ele>
  <time>2026-08-28T19:11:29Z</time>
  <course>6.3</course>
  <speed>0.03</speed>
  <fix>3d</fix>
</trkpt>
<trkpt lat="40.0729191" lon="-105.2308481">
  <ele>1595.57</ele>
  <time>2026-08-28T19:11:29Z</time>
  <course>37.44</course>
  <speed>0.01414213562373095</speed>
  <fix>3d</fix>
</trkpt>
<trkpt lat="40.0729193" lon="-105.2308482">
  <ele>1595.48</ele>
  <time>2026-08-28T19:11:29Z</time>
  <course>10.3</course>
  <speed>0.03</speed>
  <fix>3d</fix>
</trkpt>
<trkpt lat="40.0729192" lon="-105.2308481">
  <ele>1595.57</ele>
  <time>2026-08-28T19:11:29Z</time>
  <course>36.14</course>
  <speed>0.01414213562373095</speed>
  <fix>3d</fix>
</trkpt>
<trkpt lat="40.0729194" lon="-105.2308482">
  <ele>1595.48</ele>
  <time>2026-08-28T19:11:29Z</time>
  <course>13.43</course>
  <speed>0.03</speed>
  <fix>3d</fix>
</trkpt>
<trkpt lat="40.0729193" lon="-105.2308481">
  <ele>1595.58</ele>
  <time>2026-08-28T19:11:29Z</time>
  <course>34.66</course>
  <speed>0.01414213562373095</speed>
  <fix>3d</fix>
</trkpt>
<trkpt lat="40.0729195" lon="-105.2308482">
  <ele>1595.48</ele>
  <time>2026-08-28T19:11:29Z</time>
  <course>14.86</course>
  <speed>0.03</speed>
  <fix>3d</fix>
</trkpt>
<trkpt lat="40.0729193" lon="-105.2308481">
  <ele>1595.58</ele>
  <time>2026-08-28T19:11:29Z</time>
  <course>33.17</course>
  <speed>0.01414213562373095</speed>
  <fix>3d</fix>
</trkpt>
<trkpt lat="40.0729195" lon="-105.2308482">
  <ele>1595.48</ele>
  <time>2026-08-28T19:11:29Z</time>
  <course>13.78</course>
  <speed>0.03</speed>
  <fix>3d</fix>
</trkpt>
<trkpt lat="40.0729194" lon="-105.2308481">
  <ele>1595.57</ele>
  <time>2026-08-28T19:11:29Z</time>
  <course>31.73</course>
  <speed>0.01414213562373095</speed>
  <fix>3d</fix>
</trkpt>
<trkpt lat="40.0729196" lon="-105.2308481">
  <ele>1595.48</ele>
  <time>2026-08-28T19:11:29Z</time>
  <course>11.45</course>
  <speed>0.04</speed>
  <fix>3d</fix>
</trkpt>
<trkpt lat="40.0729195" lon="-105.2308481">
  <ele>1595.57</ele>
  <time>2026-08-28T19:11:29Z</time>
  <course>30.55</course>
  <speed>0.022360679774997897</speed>
  <fix>3d</fix>
</trkpt>
<trkpt lat="40.0729197" lon="-105.230848">
  <ele>1595.48</ele>
  <time>2026-08-28T19:11:29Z</time>
  <course>8.39</course>
  <speed>0.04</speed>
  <fix>3d</fix>
</trkpt>
<trkpt lat="40.0729196" lon="-105.230848">
  <ele>1595.57</ele>
  <time>2026-08-28T19:11:29Z</time>
  <course>29.7</course>
  <speed>0.02</speed>
  <fix>3d</fix>
</trkpt>
<trkpt lat="40.0729197" lon="-105.230848">
  <ele>1595.48</ele>
  <time>2026-08-28T19:11:29Z</time>
  <course>4.68</course>
  <speed>0.04</speed>
  <fix>3d</fix>
</trkpt>
<trkpt lat="40.0729196" lon="-105.230848">
  <ele>1595.57</ele>
  <time>2026-08-28T19:11:29Z</time>
  <course>29.29</course>
  <speed>0.02</speed>
  <fix>3d</fix>
</trkpt>
<trkpt lat="40.0729198" lon="-105.230848">
  <ele>1595.48</ele>
  <time>2026-08-28T19:11:29Z</time>
  <course>0.67</course>
  <speed>0.04</speed>
  <fix>3d</fix>
</trkpt>
<trkpt lat="40.0729197" lon="-105.230848">
  <ele>1595.57</ele>
  <time>2026-08-28T19:11:29Z</time>
  <course>29.26</course>
  <speed>0.02</speed>
  <fix>3d</fix>
</trkpt>
<trkpt lat="40.0729199" lon="-105.230848">
  <ele>1595.48</ele>
  <time>2026-08-28T19:11:29Z</time>
  <course>356.96</course>
  <speed>0.04</speed>
  <fix>3d</fix>
</trkpt>
<trkpt lat="40.0729198" lon="-105.230848">
  <ele>1595.57</ele>
  <time>2026-08-28T19:11:29Z</time>
  <course>29.24</course>
  <speed>0.02</speed>
  <fix>3d</fix>
</trkpt>
<trkpt lat="40.0729199" lon="-105.230848">
  <ele>1595.48</ele>
  <time>2026-08-28T19:11:29Z</time>
  <course>356.61</course>
  <speed>0.04</speed>
  <fix>3d</fix>
</trkpt>
<trkpt lat="40.0729199" lon="-105.230848">
  <ele>1595.57</ele>
  <time>2026-08-28T19:11:29Z</time>
  <course>29.23</course>
  <speed>0.022360679774997897</speed>
  <fix>3d</fix>
</trkpt>
<trkpt lat="40.07292" lon="-105.230848">
  <ele>1595.48</ele>
  <time>2026-08-28T19:11:29Z</time>
  <course>359.43</course>
  <speed>0.04</speed>
  <fix>3d</fix>
</trkpt>
<trkpt lat="40.07292" lon="-105.230848">
  <ele>1595.57</ele>
  <time>2026-08-28T19:11:29Z</time>
  <course>29.24</course>
  <speed>0.0316227766016838</speed>
  <fix>3d</fix>
</trkpt>
<trkpt lat="40.0729201" lon="-105.230848">
  <ele>1595.48</ele>
  <time>2026-08-28T19:11:29Z</time>
  <course>1.93</course>
  <speed>0.05</speed>
  <fix>3d</fix>
</trkpt>
<trkpt lat="40.0729201" lon="-105.230848">
  <ele>1595.57</ele>
  <time>2026-08-28T19:11:29Z</time>
  <course>29.24</course>
  <speed>0.0316227766016838</speed>
  <fix>3d</fix>
</trkpt>
<trkpt lat="40.0729202" lon="-105.230848">
  <ele>1595.48</ele>
  <time>2026-08-28T19:11:29Z</time>
  <course>3.58</course>
  <speed>0.05</speed>
  <fix>3d</fix>
</trkpt>
<trkpt lat="40.0729202" lon="-105.230848">
  <ele>1595.57</ele>
  <time>2026-08-28T19:11:29Z</time>
  <course>29.24</course>
  <speed>0.0316227766016838</speed>
  <fix>3d</fix>
</trkpt>
<trkpt lat="40.0729203" lon="-105.230848">
  <ele>1595.48</ele>
  <time>2026-08-28T19:11:29Z</time>
  <course>4.95</course>
  <speed>0.05</speed>
  <fix>3d</fix>
</trkpt>
<trkpt lat="40.0729203" lon="-105.230848">
  <ele>1595.57</ele>
  <time>2026-08-28T19:11:29Z</time>
  <course>29.24</course>
  <speed>0.0412310562561766</speed>
  <fix>3d</fix>
</trkpt>
<trkpt lat="40.0729204" lon="-105.230848">
  <ele>1595.48</ele>
  <time>2026-08-28T19:11:29Z</time>
  <course>6.14</course>
  <speed>0.06</speed>
  <fix>3d</fix>
</trkpt>
<trkpt lat="40.0729204" lon="-105.2308479">
  <ele>1595.57</ele>
  <time>2026-08-28T19:11:29Z</time>
  <course>29.24</course>
  <speed>0.0412310562561766</speed>
  <fix>3d</fix>
</trkpt>
<trkpt lat="40.0729205" lon="-105.230848">
  <ele>1595.48</ele>
  <time>2026-08-28T19:11:29Z</time>
  <course>7.21</course>
  <speed>0.06</speed>
  <fix>3d</fix>
</trkpt>
<trkpt lat="40.0729205" lon="-105.2308479">
  <ele>1595.56</ele>
  <time>2026-08-28T19:11:29Z</time>
  <course>29.24</course>
  <speed>0.044721359549995794</speed>
  <fix>3d</fix>
</trkpt>
<trkpt lat="40.0729207" lon="-105.230848">
  <ele>1595.48</ele>
  <time>2026-08-28T19:11:29Z</time>
  <course>8.14</course>
  <speed>0.06</speed>
  <fix>3d</fix>
</trkpt>
<trkpt lat="40.0729206" lon="-105.2308479">
  <ele>1595.56</ele>
  <time>2026-08-28T19:11:29Z</time>
  <course>29.24</course>
  <speed>0.053851648071345036</speed>
  <fix>3d</fix>
</trkpt>
<trkpt lat="40.0729208" lon="-105.230848">
  <ele>1595.48</ele>
  <time>2026-08-28T19:11:29Z</time>
  <course>8.83</course>
  <speed>0.07</speed>
  <fix>3d</fix>
</trkpt>
<trkpt lat="40.0729208" lon="-105.2308479">
  <ele>1595.56</ele>
  <time>2026-08-28T19:11:29Z</time>
  <course>29.22</course>
  <speed>0.053851648071345036</speed>
  <fix>3d</fix>
</trkpt>
<trkpt lat="40.0729209" lon="-105.230848">
  <ele>1595.49</ele>
  <time>2026-08-28T19:11:29Z</time>
  <course>9.4</course>
  <speed>0.07</speed>
  <fix>3d</fix>
</trkpt>
<trkpt lat="40.0729209" lon="-105.2308478">
  <ele>1595.56</ele>
  <time>2026-08-28T19:11:29Z</time>
  <course>29.24</course>
  <speed>0.053851648071345036</speed>
  <fix>3d</fix>
</trkpt>
<trkpt lat="40.0729211" lon="-105.230848">
  <ele>1595.49</ele>
  <time>2026-08-28T19:11:29Z</time>
  <course>9.88</course>
  <speed>0.07</speed>
  <fix>3d</fix>
</trkpt>
<trkpt lat="40.0729211" lon="-105.2308478">
  <ele>1595.57</ele>
  <time>2026-08-28T19:11:29Z</time>
  <course>29.25</course>
  <speed>0.0632455532033676</speed>
  <fix>3d</fix>
</trkpt>
<trkpt lat="40.0729212" lon="-105.2308479">
  <ele>1595.49</ele>
  <time>2026-08-28T19:11:29Z</time>
  <course>10.29</course>
  <speed>0.08</speed>
  <fix>3d</fix>
</trkpt>
<trkpt lat="40.0729212" lon="-105.2308478">
  <ele>1595.57</ele>
  <time>2026-08-28T19:11:29Z</time>
  <course>29.25</course>
  <speed>0.0632455532033676</speed>
  <fix>3d</fix>
</trkpt>
<trkpt lat="40.0729214" lon="-105.2308479">
  <ele>1595.49</ele>
  <time>2026-08-28T19:11:29Z</time>
  <course>10.77</course>
  <speed>0.08</speed>
  <fix>3d</fix>
</trkpt>
<trkpt lat="40.0729214" lon="-105.2308477">
  <ele>1595.58</ele>
  <time>2026-08-28T19:11:29Z</time>
  <course>29.25</course>
  <speed>0.0632455532033676</speed>
  <fix>3d</fix>
</trkpt>
<trkpt lat="40.0729215" lon="-105.2308479">
  <ele>1595.49</ele>
  <time>2026-08-28T19:11:29Z</time>
  <course>11.23</course>
  <speed>0.08</speed>
  <fix>3d</fix>
</trkpt>
<trkpt lat="40.0729215" lon="-105.2308477">
  <ele>1595.58</ele>
  <time>2026-08-28T19:11:29Z</time>
  <course>29.26</course>
  <speed>0.0632455532033676</speed>
  <fix>3d</fix>
</trkpt>
<trkpt lat="40.0729216" lon="-105.2308478">
  <ele>1595.5</ele>
  <time>2026-08-28T19:11:29Z</time>
  <course>11.63</course>
  <speed>0.09</speed>
  <fix>3d</fix>
</trkpt>
<trkpt lat="40.0729217" lon="-105.2308477">
  <ele>1595.58</ele>
  <time>2026-08-28T19:11:29Z</time>
  <course>29.25</course>
  <speed>0.07280109889280519</speed>
  <fix>3d</fix>
</trkpt>
<trkpt lat="40.0729218" lon="-105.2308477">
  <ele>1595.5</ele>
  <time>2026-08-28T19:11:29Z</time>
  <course>12.1</course>
  <speed>0.09</speed>
  <fix>3d</fix>
</trkpt>
<trkpt lat="40.0729219" lon="-105.2308476">
  <ele>1595.58</ele>
  <time>2026-08-28T19:11:29Z</time>
  <course>28.67</course>
  <speed>0.07615773105863909</speed>
  <fix>3d</fix>
</trkpt>
<trkpt lat="40.072922" lon="-105.2308477">
  <ele>1595.5</ele>
  <time>2026-08-28T19:11:29Z</time>
  <course>13.68</course>
  <speed>0.09</speed>
  <fix>3d</fix>
</trkpt>
<trkpt lat="40.072922" lon="-105.2308476">
  <ele>1595.58</ele>
  <time>2026-08-28T19:11:29Z</time>
  <course>27.38</course>
  <speed>0.0670820393249937</speed>
  <fix>3d</fix>
</trkpt>
<trkpt lat="40.0729221" lon="-105.2308477">
  <ele>1595.5</ele>
  <time>2026-08-28T19:11:29Z</time>
  <course>15.57</course>
  <speed>0.09</speed>
  <fix>3d</fix>
</trkpt>
<trkpt lat="40.0729222" lon="-105.2308475">
  <ele>1595.58</ele>
  <time>2026-08-28T19:11:29Z</time>
  <course>26.09</course>
  <speed>0.0670820393249937</speed>
  <fix>3d</fix>
</trkpt>
<trkpt lat="40.0729223" lon="-105.2308476">
  <ele>1595.49</ele>
  <time>2026-08-28T19:11:29Z</time>
  <course>15.88</course>
  <speed>0.09</speed>
  <fix>3d</fix>
</trkpt>
<trkpt lat="40.0729224" lon="-105.2308475">
  <ele>1595.58</ele>
  <time>2026-08-28T19:11:29Z</time>
  <course>25.08</course>
  <speed>0.0632455532033676</speed>
  <fix>3d</fix>
</trkpt>
<trkpt lat="40.0729225" lon="-105.2308475">
  <ele>1595.49</ele>
  <time>2026-08-28T19:11:29Z</time>
  <course>14.74</course>
  <speed>0.08</speed>
  <fix>3d</fix>
</trkpt>
<trkpt lat="40.0729225" lon="-105.2308474">
  <ele>1595.58</ele>
  <time>2026-08-28T19:11:29Z</time>
  <course>24.51</course>
  <speed>0.053851648071345036</speed>
  <fix>3d</fix>
</trkpt>
<trkpt lat="40.0729226" lon="-105.2308475">
  <ele>1595.49</ele>
  <time>2026-08-28T19:11:29Z</time>
  <course>12.8</course>
  <speed>0.08</speed>
  <fix>3d</fix>
</trkpt>
<trkpt lat="40.0729226" lon="-105.2308474">
  <ele>1595.59</ele>
  <time>2026-08-28T19:11:29Z</time>
  <course>24.39</course>
  <speed>0.0412310562561766</speed>
  <fix>3d</fix>
</trkpt>
<trkpt lat="40.0729228" lon="-105.2308475">
  <ele>1595.49</ele>
  <time>2026-08-28T19:11:29Z</time>
  <course>10.25</course>
  <speed>0.07</speed>
  <fix>3d</fix>
</trkpt>
<trkpt lat="40.0729228" lon="-105.2308474">
  <ele>1595.59</ele>
  <time>2026-08-28T19:11:29Z</time>
  <course>24.76</course>
  <speed>0.0412310562561766</speed>
  <fix>3d</fix>
</trkpt>
<trkpt lat="40.0729229" lon="-105.2308474">
  <ele>1595.49</ele>
  <time>2026-08-28T19:11:29Z</time>
  <course>7.11</course>
  <speed>0.06</speed>
  <fix>3d</fix>
</trkpt>
<trkpt lat="40.0729229" lon="-105.2308474">
  <ele>1595.58</ele>
  <time>2026-08-28T19:11:29Z</time>
  <course>25.57</course>
  <speed>0.03</speed>
  <fix>3d</fix>
</trkpt>
<trkpt lat="40.072923" lon="-105.2308474">
  <ele>1595.48</ele>
  <time>2026-08-28T19:11:29Z</time>
  <course>3.46</course>
  <speed>0.06</speed>
  <fix>3d</fix>
</trkpt>
<trkpt lat="40.072923" lon="-105.2308474">
  <ele>1595.58</ele>
  <time>2026-08-28T19:11:29Z</time>
  <course>26.73</course>
  <speed>0.02</speed>
  <fix>3d</fix>
</trkpt>
<trkpt lat="40.0729231" lon="-105.2308474">
  <ele>1595.48</ele>
  <time>2026-08-28T19:11:29Z</time>
  <course>359.31</course>
  <speed>0.05</speed>
  <fix>3d</fix>
</trkpt>
<trkpt lat="40.072923" lon="-105.2308474">
  <ele>1595.57</ele>
  <time>2026-08-28T19:11:29Z</time>
  <course>28.14</course>
  <speed>0.02</speed>
  <fix>3d</fix>
</trkpt>
<trkpt lat="40.0729232" lon="-105.2308474">
  <ele>1595.48</ele>
  <time>2026-08-28T19:11:29Z</time>
  <course>355.0</course>
  <speed>0.04</speed>
  <fix>3d</fix>
</trkpt>
<trkpt lat="40.0729231" lon="-105.2308474">
  <ele>1595.57</ele>
  <time>2026-08-28T19:11:29Z</time>
  <course>29.64</course>
  <speed>0.01</speed>
  <fix>3d</fix>
</trkpt>
<trkpt lat="40.0729233" lon="-105.2308474">
  <ele>1595.47</ele>
  <time>2026-08-28T19:11:29Z</time>
  <course>351.58</course>
  <speed>0.04</speed>
  <fix>3d</fix>
</trkpt>
<trkpt lat="40.0729232" lon="-105.2308474">
  <ele>1595.57</ele>
  <time>2026-08-28T19:11:29Z</time>
  <course>31.11</course>
  <speed>0.01</speed>
  <fix>3d</fix>
</trkpt>
<trkpt lat="40.0729234" lon="-105.2308474">
  <ele>1595.47</ele>
  <time>2026-08-28T19:11:29Z</time>
  <course>349.69</course>
  <speed>0.03</speed>
  <fix>3d</fix>
</trkpt>
<trkpt lat="40.0729233" lon="-105.2308474">
  <ele>1595.57</ele>
  <time>2026-08-28T19:11:29Z</time>
  <course>32.39</course>
  <speed>0.01</speed>
  <fix>3d</fix>
</trkpt>
<trkpt lat="40.0729234" lon="-105.2308474">
  <ele>1595.47</ele>
  <time>2026-08-28T19:11:29Z</time>
  <course>349.17</course>
  <speed>0.03</speed>
  <fix>3d</fix>
</trkpt>
<trkpt lat="40.0729233" lon="-105.2308474">
  <ele>1595.56</ele>
  <time>2026-08-28T19:11:29Z</time>
  <course>33.41</course>
  <speed>0.01</speed>
  <fix>3d</fix>
</trkpt>
<trkpt lat="40.0729235" lon="-105.2308474">
  <ele>1595.47</ele>
  <time>2026-08-28T19:11:29Z</time>
  <course>349.7</course>
  <speed>0.03</speed>
  <fix>3d</fix>
</trkpt>
<trkpt lat="40.0729234" lon="-105.2308474">
  <ele>1595.56</ele>
  <time>2026-08-28T19:11:29Z</time>
  <course>34.0</course>
  <speed>0.01</speed>
  <fix>3d</fix>
</trkpt>
<trkpt lat="40.0729235" lon="-105.2308474">
  <ele>1595.47</ele>
  <time>2026-08-28T19:11:29Z</time>
  <course>351.81</course>
  <speed>0.03</speed>
  <fix>3d</fix>
</trkpt>
<trkpt lat="40.0729234" lon="-105.2308474">
  <ele>1595.57</ele>
  <time>2026-08-28T19:11:29Z</time>
  <course>34.14</course>
  <speed>0.01414213562373095</speed>
  <fix>3d</fix>
</trkpt>
<trkpt lat="40.0729236" lon="-105.2308474">
  <ele>1595.47</ele>
  <time>2026-08-28T19:11:29Z</time>
  <course>355.61</course>
  <speed>0.03</speed>
  <fix>3d</fix>
</trkpt>
<trkpt lat="40.0729235" lon="-105.2308474">
  <ele>1595.57</ele>
  <time>2026-08-28T19:11:29Z</time>
  <course>33.77</course>
  <speed>0.01</speed>
  <fix>3d</fix>
</trkpt>
<trkpt lat="40.0729236" lon="-105.2308474">
  <ele>1595.47</ele>
  <time>2026-08-28T19:11:29Z</time>
  <course>0.01</course>
  <speed>0.03</speed>
  <fix>3d</fix>
</trkpt>
<trkpt lat="40.0729235" lon="-105.2308474">
  <ele>1595.56</ele>
  <time>2026-08-28T19:11:29Z</time>
  <course>32.98</course>
  <speed>0.01</speed>
  <fix>3d</fix>
</trkpt>
<trkpt lat="40.0729237" lon="-105.2308474">
  <ele>1595.47</ele>
  <time>2026-08-28T19:11:29Z</time>
  <course>4.0</course>
  <speed>0.03</speed>
  <fix>3d</fix>
</trkpt>
<trkpt lat="40.0729236" lon="-105.2308474">
  <ele>1595.57</ele>
  <time>2026-08-28T19:11:29Z</time>
  <course>31.79</course>
  <speed>0.01414213562373095</speed>
  <fix>3d</fix>
</trkpt>
<trkpt lat="40.0729238" lon="-105.2308474">
  <ele>1595.47</ele>
  <time>2026-08-28T19:11:29Z</time>
  <course>7.07</course>
  <speed>0.03</speed>
  <fix>3d</fix>
</trkpt>
<trkpt lat="40.0729237" lon="-105.2308473">
  <ele>1595.57</ele>
  <time>2026-08-28T19:11:29Z</time>
  <course>30.41</course>
  <speed>0.01414213562373095</speed>
  <fix>3d</fix>
</trkpt>
<trkpt lat="40.0729238" lon="-105.2308474">
  <ele>1595.47</ele>
  <time>2026-08-28T19:11:29Z</time>
  <course>8.83</course>
  <speed>0.03</speed>
  <fix>3d</fix>
</trkpt>
<trkpt lat="40.0729237" lon="-105.2308473">
  <ele>1595.57</ele>
  <time>2026-08-28T19:11:29Z</time>
  <course>28.89</course>
  <speed>0.01414213562373095</speed>
  <fix>3d</fix>
</trkpt>
<trkpt lat="40.0729239" lon="-105.2308474">
  <ele>1595.47</ele>
  <time>2026-08-28T19:11:29Z</time>
  <course>8.82</course>
  <speed>0.03</speed>
  <fix>3d</fix>
</trkpt>
<trkpt lat="40.0729238" lon="-105.2308473">
  <ele>1595.57</ele>
  <time>2026-08-28T19:11:29Z</time>
  <course>27.4</course>
  <speed>0.01414213562373095</speed>
  <fix>3d</fix>
</trkpt>
<trkpt lat="40.0729239" lon="-105.2308474">
  <ele>1595.48</ele>
  <time>2026-08-28T19:11:29Z</time>
  <course>7.08</course>
  <speed>0.03</speed>
  <fix>3d</fix>
</trkpt>
<trkpt lat="40.0729239" lon="-105.2308473">
  <ele>1595.57</ele>
  <time>2026-08-28T19:11:29Z</time>
  <course>26.1</course>
  <speed>0.022360679774997897</speed>
  <fix>3d</fix>
</trkpt>
<trkpt lat="40.072924" lon="-105.2308474">
  <ele>1595.47</ele>
  <time>2026-08-28T19:11:29Z</time>
  <course>4.12</course>
  <speed>0.04</speed>
  <fix>3d</fix>
</trkpt>
<trkpt lat="40.0729239" lon="-105.2308473">
  <ele>1595.57</ele>
  <time>2026-08-28T19:11:29Z</time>
  <course>25.1</course>
  <speed>0.022360679774997897</speed>
  <fix>3d</fix>
</trkpt>
<trkpt lat="40.0729241" lon="-105.2308474">
  <ele>1595.47</ele>
  <time>2026-08-28T19:11:29Z</time>
  <course>0.82</course>
  <speed>0.04</speed>
  <fix>3d</fix>
</trkpt>
<trkpt lat="40.072924" lon="-105.2308473">
  <ele>1595.57</ele>
  <time>2026-08-28T19:11:29Z</time>
  <course>24.49</course>
  <speed>0.02</speed>
  <fix>3d</fix>
</trkpt>
<trkpt lat="40.0729241" lon="-105.2308474">
  <ele>1595.47</ele>
  <time>2026-08-28T19:11:29Z</time>
  <course>357.29</course>
  <speed>0.04</speed>
  <fix>3d</fix>
</trkpt>
<trkpt lat="40.0729241" lon="-105.2308473">
  <ele>1595.57</ele>
  <time>2026-08-28T19:11:29Z</time>
  <course>24.37</course>
  <speed>0.02</speed>
  <fix>3d</fix>
</trkpt>
<trkpt lat="40.0729242" lon="-105.2308474">
  <ele>1595.47</ele>
  <time>2026-08-28T19:11:29Z</time>
  <course>353.44</course>
  <speed>0.04</speed>
  <fix>3d</fix>
</trkpt>
<trkpt lat="40.0729242" lon="-105.2308474">
  <ele>1595.57</ele>
  <time>2026-08-28T19:11:29Z</time>
  <course>24.71</course>
  <speed>0.02</speed>
  <fix>3d</fix>
</trkpt>
<trkpt lat="40.0729243" lon="-105.2308474">
  <ele>1595.47</ele>
  <time>2026-08-28T19:11:29Z</time>
  <course>350.09</course>
  <speed>0.04</speed>
  <fix>3d</fix>
</trkpt>
<trkpt lat="40.0729242" lon="-105.2308474">
  <ele>1595.57</ele>
  <time>2026-08-28T19:11:29Z</time>
  <course>25.53</course>
  <speed>0.02</speed>
  <fix>3d</fix>
</trkpt>
<trkpt lat="40.0729244" lon="-105.2308474">
  <ele>1595.47</ele>
  <time>2026-08-28T19:11:29Z</time>
  <course>347.43</course>
  <speed>0.04</speed>
  <fix>3d</fix>
</trkpt>
<trkpt lat="40.0729243" lon="-105.2308474">
  <ele>1595.57</ele>
  <time>2026-08-28T19:11:29Z</time>
  <course>26.69</course>
  <speed>0.02</speed>
  <fix>3d</fix>
</trkpt>
<trkpt lat="40.0729245" lon="-105.2308474">
  <ele>1595.47</ele>
  <time>2026-08-28T19:11:29Z</time>
  <course>345.13</course>
  <speed>0.04</speed>
  <fix>3d</fix>
</trkpt>
<trkpt lat="40.0729244" lon="-105.2308474">
  <ele>1595.57</ele>
  <time>2026-08-28T19:11:29Z</time>
  <course>28.13</course>
  <speed>0.02</speed>
  <fix>3d</fix>
</trkpt>
<trkpt lat="40.0729246" lon="-105.2308475">
  <ele>1595.47</ele>
  <time>2026-08-28T19:11:29Z</time>
  <course>343.66</course>
  <speed>0.04</speed>
  <fix>3d</fix>
</trkpt>
<trkpt lat="40.0729245" lon="-105.2308474">
  <ele>1595.57</ele>
  <time>2026-08-28T19:11:29Z</time>
  <course>29.64</course>
  <speed>0.02</speed>
  <fix>3d</fix>
</trkpt>
<trkpt lat="40.0729247" lon="-105.2308475">
  <ele>1595.47</ele>
  <time>2026-08-28T19:11:29Z</time>
  <course>343.03</course>
  <speed>0.04</speed>
  <fix>3d</fix>
</trkpt>
<trkpt lat="40.0729246" lon="-105.2308474">
  <ele>1595.56</ele>
  <time>2026-08-28T19:11:29Z</time>
  <course>31.13</course>
  <speed>0.02</speed>
  <fix>3d</fix>
</trkpt>
<trkpt lat="40.0729247" lon="-105.2308475">
  <ele>1595.47</ele>
  <time>2026-08-28T19:11:29Z</time>
  <course>343.3</course>
  <speed>0.04</speed>
  <fix>3d</fix>
</trkpt>
<trkpt lat="40.0729246" lon="-105.2308474">
  <ele>1595.56</ele>
  <time>2026-08-28T19:11:29Z</time>
  <course>32.39</course>
  <speed>0.01</speed>
  <fix>3d</fix>
</trkpt>
<trkpt lat="40.0729248" lon="-105.2308475">
  <ele>1595.47</ele>
  <time>2026-08-28T19:11:29Z</time>
  <course>344.67</course>
  <speed>0.04</speed>
  <fix>3d</fix>
</trkpt>
<trkpt lat="40.0729247" lon="-105.2308474">
  <ele>1595.56</ele>
  <time>2026-08-28T19:11:29Z</time>
  <course>33.37</course>
  <speed>0.01</speed>
  <fix>3d</fix>
</trkpt>
<trkpt lat="40.0729249" lon="-105.2308475">
  <ele>1595.47</ele>
  <time>2026-08-28T19:11:29Z</time>
  <course>347.39</course>
  <speed>0.04</speed>
  <fix>3d</fix>
</trkpt>
<trkpt lat="40.0729248" lon="-105.2308474">
  <ele>1595.56</ele>
  <time>2026-08-28T19:11:29Z</time>
  <course>33.98</course>
  <speed>0.01</speed>
  <fix>3d</fix>
</trkpt>
<trkpt lat="40.072925" lon="-105.2308475">
  <ele>1595.47</ele>
  <time>2026-08-28T19:11:29Z</time>
  <course>351.14</course>
  <speed>0.04</speed>
  <fix>3d</fix>
</trkpt>
<trkpt lat="40.0729249" lon="-105.2308474">
  <ele>1595.56</ele>
  <time>2026-08-28T19:11:29Z</time>
  <course>34.12</course>
  <speed>0.01414213562373095</speed>
  <fix>3d</fix>
</trkpt>
<trkpt lat="40.072925" lon="-105.2308475">
  <ele>1595.47</ele>
  <time>2026-08-28T19:11:29Z</time>
  <course>355.23</course>
  <speed>0.03</speed>
  <fix>3d</fix>
</trkpt>
<trkpt lat="40.0729249" lon="-105.2308474">
  <ele>1595.57</ele>
  <time>2026-08-28T19:11:29Z</time>
  <course>33.77</course>
  <speed>0.01414213562373095</speed>
  <fix>3d</fix>
</trkpt>
<trkpt lat="40.0729251" lon="-105.2308475">
  <ele>1595.47</ele>
  <time>2026-08-28T19:11:29Z</time>
  <course>358.97</course>
  <speed>0.03</speed>
  <fix>3d</fix>
</trkpt>
<trkpt lat="40.072925" lon="-105.2308474">
  <ele>1595.56</ele>
  <time>2026-08-28T19:11:29Z</time>
  <course>32.99</course>
  <speed>0.01414213562373095</speed>
  <fix>3d</fix>
</trkpt>
<trkpt lat="40.0729252" lon="-105.2308475">
  <ele>1595.47</ele>
  <time>2026-08-28T19:11:29Z</time>
  <course>2.01</course>
  <speed>0.03</speed>
  <fix>3d</fix>
</trkpt>
<trkpt lat="40.0729251" lon="-105.2308474">
  <ele>1595.57</ele>
  <time>2026-08-28T19:11:29Z</time>
  <course>31.8</course>
  <speed>0.01414213562373095</speed>
  <fix>3d</fix>
</trkpt>
<trkpt lat="40.0729252" lon="-105.2308475">
  <ele>1595.47</ele>
  <time>2026-08-28T19:11:29Z</time>
  <course>4.49</course>
  <speed>0.03</speed>
  <fix>3d</fix>
</trkpt>
<trkpt lat="40.0729251" lon="-105.2308474">
  <ele>1595.57</ele>
  <time>2026-08-28T19:11:29Z</time>
  <course>30.38</course>
  <speed>0.01414213562373095</speed>
  <fix>3d</fix>
</trkpt>
<trkpt lat="40.0729253" lon="-105.2308475">
  <ele>1595.48</ele>
  <time>2026-08-28T19:11:29Z</time>
  <course>5.9</course>
  <speed>0.03</speed>
  <fix>3d</fix>
</trkpt>
<trkpt lat="40.0729252" lon="-105.2308474">
  <ele>1595.57</ele>
  <time>2026-08-28T19:11:29Z</time>
  <course>28.87</course>
  <speed>0.01414213562373095</speed>
  <fix>3d</fix>
</trkpt>
<trkpt lat="40.0729254" lon="-105.2308475">
  <ele>1595.48</ele>
  <time>2026-08-28T19:11:29Z</time>
  <course>6.13</course>
  <speed>0.03</speed>
  <fix>3d</fix>
</trkpt>
<trkpt lat="40.0729253" lon="-105.2308474">
  <ele>1595.57</ele>
  <time>2026-08-28T19:11:29Z</time>
  <course>27.43</course>
  <speed>0.01414213562373095</speed>
  <fix>3d</fix>
</trkpt>
<trkpt lat="40.0729254" lon="-105.2308475">
  <ele>1595.48</ele>
  <time>2026-08-28T19:11:29Z</time>
  <course>5.18</course>
  <speed>0.04</speed>
  <fix>3d</fix>
</trkpt>
<trkpt lat="40.0729254" lon="-105.2308474">
  <ele>1595.57</ele>
  <time>2026-08-28T19:11:29Z</time>
  <course>26.11</course>
  <speed>0.022360679774997897</speed>
  <fix>3d</fix>
</trkpt>
<trkpt lat="40.0729255" lon="-105.2308475">
  <ele>1595.48</ele>
  <time>2026-08-28T19:11:29Z</time>
  <course>3.45</course>
  <speed>0.04</speed>
  <fix>3d</fix>
</trkpt>
<trkpt lat="40.0729254" lon="-105.2308474">
  <ele>1595.58</ele>
  <time>2026-08-28T19:11:29Z</time>
  <course>25.1</course>
  <speed>0.022360679774997897</speed>
  <fix>3d</fix>
</trkpt>
<trkpt lat="40.0729256" lon="-105.2308475">
  <ele>1595.48</ele>
  <time>2026-08-28T19:11:29Z</time>
  <course>1.2</course>
  <speed>0.04</speed>
  <fix>3d</fix>
</trkpt>
<trkpt lat="40.0729255" lon="-105.2308474">
  <ele>1595.58</ele>
  <time>2026-08-28T19:11:29Z</time>
  <course>24.51</course>
  <speed>0.02</speed>
  <fix>3d</fix>
</trkpt>
<trkpt lat="40.0729257" lon="-105.2308475">
  <ele>1595.48</ele>
  <time>2026-08-28T19:11:29Z</time>
  <course>358.25</course>
  <speed>0.04</speed>
  <fix>3d</fix>
</trkpt>
<trkpt lat="40.0729256" lon="-105.2308474">
  <ele>1595.58</ele>
  <time>2026-08-28T19:11:29Z</time>
  <course>24.4</course>
  <speed>0.02</speed>
  <fix>3d</fix>
</trkpt>
<trkpt lat="40.0729258" lon="-105.2308475">
  <ele>1595.48</ele>
  <time>2026-08-28T19:11:29Z</time>
  <course>355.24</course>
  <speed>0.04</speed>
  <fix>3d</fix>
</trkpt>
<trkpt lat="40.0729257" lon="-105.2308474">
  <ele>1595.58</ele>
  <time>2026-08-28T19:11:29Z</time>
  <course>24.76</course>
  <speed>0.02</speed>
  <fix>3d</fix>
</trkpt>
<trkpt lat="40.0729258" lon="-105.2308475">
  <ele>1595.47</ele>
  <time>2026-08-28T19:11:29Z</time>
  <course>352.34</course>
  <speed>0.04</speed>
  <fix>3d</fix>
</trkpt>
<trkpt lat="40.0729258" lon="-105.2308474">
  <ele>1595.58</ele>
  <time>2026-08-28T19:11:29Z</time>
  <course>25.55</course>
  <speed>0.02</speed>
  <fix>3d</fix>
</trkpt>
<trkpt lat="40.0729259" lon="-105.2308475">
  <ele>1595.47</ele>
  <time>2026-08-28T19:11:29Z</time>
  <course>349.43</course>
  <speed>0.04</speed>
  <fix>3d</fix>
</trkpt>
<trkpt lat="40.0729258" lon="-105.2308474">
  <ele>1595.58</ele>
  <time>2026-08-28T19:11:29Z</time>
  <course>26.71</course>
  <speed>0.02</speed>
  <fix>3d</fix>
</trkpt>
<trkpt lat="40.072926" lon="-105.2308476">
  <ele>1595.47</ele>
  <time>2026-08-28T19:11:29Z</time>
  <course>346.76</course>
  <speed>0.04</speed>
  <fix>3d</fix>
</trkpt>
<trkpt lat="40.0729259" lon="-105.2308474">
  <ele>1595.57</ele>
  <time>2026-08-28T19:11:29Z</time>
  <course>28.14</course>
  <speed>0.02</speed>
  <fix>3d</fix>
</trkpt>
<trkpt lat="40.0729261" lon="-105.2308477">
  <ele>1595.46</ele>
  <time>2026-08-28T19:11:29Z</time>
  <course>344.48</course>
  <speed>0.04</speed>
  <fix>3d</fix>
</trkpt>
<trkpt lat="40.072926" lon="-105.2308475">
  <ele>1595.57</ele>
  <time>2026-08-28T19:11:29Z</time>
  <course>29.64</course>
  <speed>0.02</speed>
  <fix>3d</fix>
</trkpt>
<trkpt lat="40.0729262" lon="-105.2308477">
  <ele>1595.46</ele>
  <time>2026-08-28T19:11:29Z</time>
  <course>343.12</course>
  <speed>0.04</speed>
  <fix>3d</fix>
</trkpt>
<trkpt lat="40.0729261" lon="-105.2308475">
  <ele>1595.57</ele>
  <time>2026-08-28T19:11:29Z</time>
  <course>31.1</course>
  <speed>0.01</speed>
  <fix>3d</fix>
</trkpt>
<trkpt lat="40.0729262" lon="-105.2308477">
  <ele>1595.46</ele>
  <time>2026-08-28T19:11:29Z</time>
  <course>342.98</course>
  <speed>0.04</speed>
  <fix>3d</fix>
</trkpt>
<trkpt lat="40.0729261" lon="-105.2308475">
  <ele>1595.56</ele>
  <time>2026-08-28T19:11:29Z</time>
  <course>32.4</course>
  <speed>0.01</speed>
  <fix>3d</fix>
</trkpt>
<trkpt lat="40.0729263" lon="-105.2308477">
  <ele>1595.46</ele>
  <time>2026-08-28T19:11:29Z</time>
  <course>344.1</course>
  <speed>0.04</speed>
  <fix>3d</fix>
</trkpt>
<trkpt lat="40.0729262" lon="-105.2308476">
  <ele>1595.56</ele>
  <time>2026-08-28T19:11:29Z</time>
  <course>33.39</course>
  <speed>0.01</speed>
  <fix>3d</fix>
</trkpt>
<trkpt lat="40.0729264" lon="-105.2308477">
  <ele>1595.46</ele>
  <time>2026-08-28T19:11:29Z</time>
  <course>346.73</course>
  <speed>0.03</speed>
  <fix>3d</fix>
</trkpt>
<trkpt lat="40.0729263" lon="-105.2308476">
  <ele>1595.56</ele>
  <time>2026-08-28T19:11:29Z</time>
  <course>33.99</course>
  <speed>0.01</speed>
  <fix>3d</fix>
</trkpt>
<trkpt lat="40.0729265" lon="-105.2308477">
  <ele>1595.46</ele>
  <time>2026-08-28T19:11:29Z</time>
  <course>350.89</course>
  <speed>0.03</speed>
  <fix>3d</fix>
</trkpt>
<trkpt lat="40.0729264" lon="-105.2308476">
  <ele>1595.56</ele>
  <time>2026-08-28T19:11:29Z</time>
  <course>34.13</course>
  <speed>0.01414213562373095</speed>
  <fix>3d</fix>
</trkpt>
<trkpt lat="40.0729265" lon="-105.2308477">
  <ele>1595.46</ele>
  <time>2026-08-28T19:11:29Z</time>
  <course>355.96</course>
  <speed>0.03</speed>
  <fix>3d</fix>
</trkpt>
<trkpt lat="40.0729264" lon="-105.2308476">
  <ele>1595.57</ele>
  <time>2026-08-28T19:11:29Z</time>
  <course>33.78</course>
  <speed>0.01414213562373095</speed>
  <fix>3d</fix>
</trkpt>
<trkpt lat="40.0729266" lon="-105.2308477">
  <ele>1595.46</ele>
  <time>2026-08-28T19:11:29Z</time>
  <course>1.11</course>
  <speed>0.03</speed>
  <fix>3d</fix>
</trkpt>
<trkpt lat="40.0729265" lon="-105.2308476">
  <ele>1595.57</ele>
  <time>2026-08-28T19:11:29Z</time>
  <course>32.99</course>
  <speed>0.01414213562373095</speed>
  <fix>3d</fix>
</trkpt>
<trkpt lat="40.0729266" lon="-105.2308477">
  <ele>1595.46</ele>
  <time>2026-08-28T19:11:29Z</time>
  <course>5.51</course>
  <speed>0.03</speed>
  <fix>3d</fix>
</trkpt>
<trkpt lat="40.0729265" lon="-105.2308476">
  <ele>1595.57</ele>
  <time>2026-08-28T19:11:29Z</time>
  <course>31.81</course>
  <speed>0.01414213562373095</speed>
  <fix>3d</fix>
</trkpt>
<trkpt lat="40.0729267" lon="-105.2308477">
  <ele>1595.46</ele>
  <time>2026-08-28T19:11:29Z</time>
  <course>8.46</course>
  <speed>0.03</speed>
  <fix>3d</fix>
</trkpt>
<trkpt lat="40.0729266" lon="-105.2308476">
  <ele>1595.57</ele>
  <time>2026-08-28T19:11:29Z</time>
  <course>30.41</course>
  <speed>0.01414213562373095</speed>
  <fix>3d</fix>
</trkpt>
<trkpt lat="40.0729268" lon="-105.2308477">
  <ele>1595.46</ele>
  <time>2026-08-28T19:11:29Z</time>
  <course>9.51</course>
  <speed>0.03</speed>
  <fix>3d</fix>
</trkpt>
<trkpt lat="40.0729267" lon="-105.2308476">
  <ele>1595.57</ele>
  <time>2026-08-28T19:11:29Z</time>
  <course>28.88</course>
  <speed>0.01414213562373095</speed>
  <fix>3d</fix>
</trkpt>
<trkpt lat="40.0729269" lon="-105.2308477">
  <ele>1595.46</ele>
  <time>2026-08-28T19:11:29Z</time>
  <course>9.47</course>
  <speed>0.03</speed>
  <fix>3d</fix>
</trkpt>
<trkpt lat="40.0729268" lon="-105.2308476">
  <ele>1595.57</ele>
  <time>2026-08-28T19:11:29Z</time>
  <course>27.4</course>
  <speed>0.01414213562373095</speed>
  <fix>3d</fix>
</trkpt>
<trkpt lat="40.0729269" lon="-105.2308477">
  <ele>1595.46</ele>
  <time>2026-08-28T19:11:29Z</time>
  <course>8.36</course>
  <speed>0.04</speed>
  <fix>3d</fix>
</trkpt>
<trkpt lat="40.0729268" lon="-105.2308476">
  <ele>1595.57</ele>
  <time>2026-08-28T19:11:29Z</time>
  <course>26.07</course>
  <speed>0.022360679774997897</speed>
  <fix>3d</fix>
</trkpt>
<trkpt lat="40.072927" lon="-105.2308477">
  <ele>1595.46</ele>
  <time>2026-08-28T19:11:29Z</time>
  <course>6.42</course>
  <speed>0.04</speed>
  <fix>3d</fix>
</trkpt>
<trkpt lat="40.0729269" lon="-105.2308476">
  <ele>1595.57</ele>
  <time>2026-08-28T19:11:29Z</time>
  <course>25.09</course>
  <speed>0.022360679774997897</speed>
  <fix>3d</fix>
</trkpt>
<trkpt lat="40.0729271" lon="-105.2308477">
  <ele>1595.46</ele>
  <time>2026-08-28T19:11:29Z</time>
  <course>3.86</course>
  <speed>0.04</speed>
  <fix>3d</fix>
</trkpt>
<trkpt lat="40.072927" lon="-105.2308476">
  <ele>1595.57</ele>
  <time>2026-08-28T19:11:29Z</time>
  <course>24.49</course>
  <speed>0.02</speed>
  <fix>3d</fix>
</trkpt>
<trkpt lat="40.0729271" lon="-105.2308477">
  <ele>1595.46</ele>
  <time>2026-08-28T19:11:29Z</time>
  <course>0.56</course>
  <speed>0.04</speed>
  <fix>3d</fix>
</trkpt>
<trkpt lat="40.0729271" lon="-105.2308476">
  <ele>1595.57</ele>
  <time>2026-08-28T19:11:29Z</time>
  <course>24.36</course>
  <speed>0.02</speed>
  <fix>3d</fix>
</trkpt>
<trkpt lat="40.0729272" lon="-105.2308477">
  <ele>1595.46</ele>
  <time>2026-08-28T19:11:29Z</time>
  <course>357.14</course>
  <speed>0.04</speed>
  <fix>3d</fix>
</trkpt>
<trkpt lat="40.0729272" lon="-105.2308476">
  <ele>1595.57</ele>
  <time>2026-08-28T19:11:29Z</time>
  <course>24.73</course>
  <speed>0.02</speed>
  <fix>3d</fix>
</trkpt>
<trkpt lat="40.0729273" lon="-105.2308477">
  <ele>1595.47</ele>
  <time>2026-08-28T19:11:29Z</time>
  <course>353.92</course>
  <speed>0.04</speed>
  <fix>3d</fix>
</trkpt>
<trkpt lat="40.0729272" lon="-105.2308476">
  <ele>1595.57</ele>
  <time>2026-08-28T19:11:29Z</time>
  <course>25.53</course>
  <speed>0.02</speed>
  <fix>3d</fix>
</trkpt>
<trkpt lat="40.0729274" lon="-105.2308477">
  <ele>1595.46</ele>
  <time>2026-08-28T19:11:29Z</time>
  <course>351.18</course>
  <speed>0.04</speed>
  <fix>3d</fix>
</trkpt>
<trkpt lat="40.0729273" lon="-105.2308476">
  <ele>1595.58</ele>
  <time>2026-08-28T19:11:29Z</time>
  <course>26.71</course>
  <speed>0.02</speed>
  <fix>3d</fix>
</trkpt>
<trkpt lat="40.0729275" lon="-105.2308477">
  <ele>1595.46</ele>
  <time>2026-08-28T19:11:29Z</time>
  <course>348.55</course>
  <speed>0.04</speed>
  <fix>3d</fix>
</trkpt>
<trkpt lat="40.0729274" lon="-105.2308476">
  <ele>1595.57</ele>
  <time>2026-08-28T19:11:29Z</time>
  <course>28.12</course>
  <speed>0.02</speed>
  <fix>3d</fix>
</trkpt>
<trkpt lat="40.0729276" lon="-105.2308477">
  <ele>1595.46</ele>
  <time>2026-08-28T19:11:29Z</time>
  <course>346.74</course>
  <speed>0.04</speed>
  <fix>3d</fix>
</trkpt>
<trkpt lat="40.0729275" lon="-105.2308476">
  <ele>1595.57</ele>
  <time>2026-08-28T19:11:29Z</time>
  <course>29.65</course>
  <speed>0.02</speed>
  <fix>3d</fix>
</trkpt>
<trkpt lat="40.0729277" lon="-105.2308477">
  <ele>1595.46</ele>
  <time>2026-08-28T19:11:29Z</time>
  <course>345.65</course>
  <speed>0.04</speed>
  <fix>3d</fix>
</trkpt>
<trkpt lat="40.0729276" lon="-105.2308476">
  <ele>1595.57</ele>
  <time>2026-08-28T19:11:29Z</time>
  <course>31.1</course>
  <speed>0.01</speed>
  <fix>3d</fix>
</trkpt>
<trkpt lat="40.0729277" lon="-105.2308478">
  <ele>1595.46</ele>
  <time>2026-08-28T19:11:29Z</time>
  <course>345.29</course>
  <speed>0.04</speed>
  <fix>3d</fix>
</trkpt>
<trkpt lat="40.0729276" lon="-105.2308477">
  <ele>1595.57</ele>
  <time>2026-08-28T19:11:29Z</time>
  <course>32.42</course>
  <speed>0.01</speed>
  <fix>3d</fix>
</trkpt>
<trkpt lat="40.0729278" lon="-105.2308479">
  <ele>1595.46</ele>
  <time>2026-08-28T19:11:29Z</time>
  <course>346.15</course>
  <speed>0.04</speed>
  <fix>3d</fix>
</trkpt>
<trkpt lat="40.0729277" lon="-105.2308477">
  <ele>1595.56</ele>
  <time>2026-08-28T19:11:29Z</time>
  <course>33.41</course>
  <speed>0.01</speed>
  <fix>3d</fix>
</trkpt>
<trkpt lat="40.0729279" lon="-105.2308479">
  <ele>1595.46</ele>
  <time>2026-08-28T19:11:29Z</time>
  <course>348.21</course>
  <speed>0.04</speed>
  <fix>3d</fix>
</trkpt>
<trkpt lat="40.0729278" lon="-105.2308477">
  <ele>1595.56</ele>
  <time>2026-08-28T19:11:29Z</time>
  <course>34.0</course>
  <speed>0.01</speed>
  <fix>3d</fix>
</trkpt>
<trkpt lat="40.072928" lon="-105.2308479">
  <ele>1595.46</ele>
  <time>2026-08-28T19:11:29Z</time>
  <course>351.69</course>
  <speed>0.03</speed>
  <fix>3d</fix>
</trkpt>
<trkpt lat="40.0729279" lon="-105.2308477">
  <ele>1595.55</ele>
  <time>2026-08-28T19:11:29Z</time>
  <course>34.12</course>
  <speed>0.01414213562373095</speed>
  <fix>3d</fix>
</trkpt>
<trkpt lat="40.072928" lon="-105.2308479">
  <ele>1595.46</ele>
  <time>2026-08-28T19:11:29Z</time>
  <course>356.39</course>
  <speed>0.03</speed>
  <fix>3d</fix>
</trkpt>
<trkpt lat="40.0729279" lon="-105.2308477">
  <ele>1595.55</ele>
  <time>2026-08-28T19:11:30Z</time>
  <course>33.74</course>
  <speed>0.01414213562373095</speed>
  <fix>3d</fix>
</trkpt>
<trkpt lat="40.0729281" lon="-105.2308479">
  <ele>1595.46</ele>
  <time>2026-08-28T19:11:30Z</time>
  <course>0.93</course>
  <speed>0.03</speed>
  <fix>3d</fix>
</trkpt>
<trkpt lat="40.072928" lon="-105.2308477">
  <ele>1595.55</ele>
  <time>2026-08-28T19:11:30Z</time>
  <course>32.92</course>
  <speed>0.01414213562373095</speed>
  <fix>3d</fix>
</trkpt>
<trkpt lat="40.0729282" lon="-105.2308479">
  <ele>1595.46</ele>
  <time>2026-08-28T19:11:30Z</time>
  <course>4.48</course>
  <speed>0.03</speed>
  <fix>3d</fix>
</trkpt>
<trkpt lat="40.0729281" lon="-105.2308477">
  <ele>1595.55</ele>
  <time>2026-08-28T19:11:30Z</time>
  <course>31.77</course>
  <speed>0.01414213562373095</speed>
  <fix>3d</fix>
</trkpt>
<trkpt lat="40.0729282" lon="-105.2308479">
  <ele>1595.46</ele>
  <time>2026-08-28T19:11:30Z</time>
  <course>7.21</course>
  <speed>0.03</speed>
  <fix>3d</fix>
</trkpt>
<trkpt lat="40.0729281" lon="-105.2308477">
  <ele>1595.55</ele>
  <time>2026-08-28T19:11:30Z</time>
  <course>30.37</course>
  <speed>0.01414213562373095</speed>
  <fix>3d</fix>
</trkpt>
<trkpt lat="40.0729283" lon="-105.2308479">
  <ele>1595.47</ele>
  <time>2026-08-28T19:11:30Z</time>
  <course>8.48</course>
  <speed>0.03</speed>
  <fix>3d</fix>
</trkpt>
<trkpt lat="40.0729282" lon="-105.2308477">
  <ele>1595.56</ele>
  <time>2026-08-28T19:11:30Z</time>
  <course>28.84</course>
  <speed>0.01414213562373095</speed>
  <fix>3d</fix>
</trkpt>
<trkpt lat="40.0729283" lon="-105.2308479">
  <ele>1595.47</ele>
  <time>2026-08-28T19:11:30Z</time>
  <course>8.57</course>
  <speed>0.03</speed>
  <fix>3d</fix>
</trkpt>
<trkpt lat="40.0729283" lon="-105.2308477">
  <ele>1595.56</ele>
  <time>2026-08-28T19:11:30Z</time>
  <course>27.39</course>
  <speed>0.01414213562373095</speed>
  <fix>3d</fix>
</trkpt>
<trkpt lat="40.0729284" lon="-105.2308479">
  <ele>1595.48</ele>
  <time>2026-08-28T19:11:30Z</time>
  <course>7.57</course>
  <speed>0.03</speed>
  <fix>3d</fix>
</trkpt>
<trkpt lat="40.0729283" lon="-105.2308477">
  <ele>1595.57</ele>
  <time>2026-08-28T19:11:30Z</time>
  <course>26.06</course>
  <speed>0.01414213562373095</speed>
  <fix>3d</fix>
</trkpt>
<trkpt lat="40.0729285" lon="-105.2308479">
  <ele>1595.48</ele>
  <time>2026-08-28T19:11:30Z</time>
  <course>5.8</course>
  <speed>0.03</speed>
  <fix>3d</fix>
</trkpt>
<trkpt lat="40.0729284" lon="-105.2308477">
  <ele>1595.58</ele>
  <time>2026-08-28T19:11:30Z</time>
  <course>25.07</course>
  <speed>0.02</speed>
  <fix>3d</fix>
</trkpt>
<trkpt lat="40.0729286" lon="-105.2308479">
  <ele>1595.48</ele>
  <time>2026-08-28T19:11:30Z</time>
  <course>3.4</course>
  <speed>0.04</speed>
  <fix>3d</fix>
</trkpt>
<trkpt lat="40.0729285" lon="-105.2308477">
  <ele>1595.58</ele>
  <time>2026-08-28T19:11:30Z</time>
  <course>24.5</course>
  <speed>0.02</speed>
  <fix>3d</fix>
</trkpt>
<trkpt lat="40.0729286" lon="-105.2308479">
  <ele>1595.49</ele>
  <time>2026-08-28T19:11:30Z</time>
  <course>0.5</course>
  <speed>0.04</speed>
  <fix>3d</fix>
</trkpt>
<trkpt lat="40.0729286" lon="-105.2308477">
  <ele>1595.58</ele>
  <time>2026-08-28T19:11:30Z</time>
  <course>24.41</course>
  <speed>0.02</speed>
  <fix>3d</fix>
</trkpt>
<trkpt lat="40.0729287" lon="-105.2308479">
  <ele>1595.49</ele>
  <time>2026-08-28T19:11:30Z</time>
  <course>357.26</course>
  <speed>0.04</speed>
  <fix>3d</fix>
</trkpt>
<trkpt lat="40.0729286" lon="-105.2308477">
  <ele>1595.58</ele>
  <time>2026-08-28T19:11:30Z</time>
  <course>24.78</course>
  <speed>0.02</speed>
  <fix>3d</fix>
</trkpt>
<trkpt lat="40.0729288" lon="-105.2308479">
  <ele>1595.49</ele>
  <time>2026-08-28T19:11:30Z</time>
  <course>354.19</course>
  <speed>0.04</speed>
  <fix>3d</fix>
</trkpt>
<trkpt lat="40.0729287" lon="-105.2308478">
  <ele>1595.58</ele>
  <time>2026-08-28T19:11:30Z</time>
  <course>25.54</course>
  <speed>0.02</speed>
  <fix>3d</fix>
</trkpt>
<trkpt lat="40.0729289" lon="-105.2308479">
  <ele>1595.48</ele>
  <time>2026-08-28T19:11:30Z</time>
  <course>351.51</course>
  <speed>0.04</speed>
  <fix>3d</fix>
</trkpt>
<trkpt lat="40.0729288" lon="-105.2308478">
  <ele>1595.58</ele>
  <time>2026-08-28T19:11:30Z</time>
  <course>26.72</course>
  <speed>0.02</speed>
  <fix>3d</fix>
</trkpt>
<trkpt lat="40.072929" lon="-105.2308479">
  <ele>1595.48</ele>
  <time>2026-08-28T19:11:30Z</time>
  <course>349.21</course>
  <speed>0.04</speed>
  <fix>3d</fix>
</trkpt>
<trkpt lat="40.0729289" lon="-105.2308478">
  <ele>1595.58</ele>
  <time>2026-08-28T19:11:30Z</time>
  <course>28.14</course>
  <speed>0.02</speed>
  <fix>3d</fix>
</trkpt>
<trkpt lat="40.072929" lon="-105.2308479">
  <ele>1595.48</ele>
  <time>2026-08-28T19:11:30Z</time>
  <course>347.74</course>
  <speed>0.04</speed>
  <fix>3d</fix>
</trkpt>
<trkpt lat="40.072929" lon="-105.2308478">
  <ele>1595.58</ele>
  <time>2026-08-28T19:11:30Z</time>
  <course>29.66</course>
  <speed>0.02</speed>
  <fix>3d</fix>
</trkpt>
<trkpt lat="40.0729291" lon="-105.2308479">
  <ele>1595.48</ele>
  <time>2026-08-28T19:11:30Z</time>
  <course>347.08</course>
  <speed>0.04</speed>
  <fix>3d</fix>
</trkpt>
<trkpt lat="40.072929" lon="-105.2308478">
  <ele>1595.58</ele>
  <time>2026-08-28T19:11:30Z</time>
  <course>31.1</course>
  <speed>0.02</speed>
  <fix>3d</fix>
</trkpt>
<trkpt lat="40.0729292" lon="-105.2308479">
  <ele>1595.47</ele>
  <time>2026-08-28T19:11:30Z</time>
  <course>347.56</course>
  <speed>0.04</speed>
  <fix>3d</fix>
</trkpt>
<trkpt lat="40.0729291" lon="-105.2308478">
  <ele>1595.57</ele>
  <time>2026-08-28T19:11:30Z</time>
  <course>32.44</course>
  <speed>0.02</speed>
  <fix>3d</fix>
</trkpt>
<trkpt lat="40.0729293" lon="-105.230848">
  <ele>1595.47</ele>
  <time>2026-08-28T19:11:30Z</time>
  <course>348.9</course>
  <speed>0.04</speed>
  <fix>3d</fix>
</trkpt>
<trkpt lat="40.0729292" lon="-105.2308479">
  <ele>1595.57</ele>
  <time>2026-08-28T19:11:30Z</time>
  <course>33.45</course>
  <speed>0.01</speed>
  <fix>3d</fix>
</trkpt>
<trkpt lat="40.0729294" lon="-105.230848">
  <ele>1595.47</ele>
  <time>2026-08-28T19:11:30Z</time>
  <course>350.82</course>
  <speed>0.04</speed>
  <fix>3d</fix>
</trkpt>
<trkpt lat="40.0729293" lon="-105.2308479">
  <ele>1595.57</ele>
  <time>2026-08-28T19:11:30Z</time>
  <course>34.0</course>
  <speed>0.01</speed>
  <fix>3d</fix>
</trkpt>
<trkpt lat="40.0729294" lon="-105.230848">
  <ele>1595.47</ele>
  <time>2026-08-28T19:11:30Z</time>
  <course>353.14</course>
  <speed>0.04</speed>
  <fix>3d</fix>
</trkpt>
<trkpt lat="40.0729293" lon="-105.2308479">
  <ele>1595.57</ele>
  <time>2026-08-28T19:11:30Z</time>
  <course>34.13</course>
  <speed>0.01</speed>
  <fix>3d</fix>
</trkpt>
<trkpt lat="40.0729295" lon="-105.230848">
  <ele>1595.47</ele>
  <time>2026-08-28T19:11:30Z</time>
  <course>355.8</course>
  <speed>0.03</speed>
  <fix>3d</fix>
</trkpt>
<trkpt lat="40.0729294" lon="-105.2308479">
  <ele>1595.57</ele>
  <time>2026-08-28T19:11:30Z</time>
  <course>33.78</course>
  <speed>0.01414213562373095</speed>
  <fix>3d</fix>
</trkpt>
<trkpt lat="40.0729296" lon="-105.230848">
  <ele>1595.47</ele>
  <time>2026-08-28T19:11:30Z</time>
  <course>359.17</course>
  <speed>0.03</speed>
  <fix>3d</fix>
</trkpt>
<trkpt lat="40.0729295" lon="-105.2308479">
  <ele>1595.57</ele>
  <time>2026-08-28T19:11:30Z</time>
  <course>32.99</course>
  <speed>0.01414213562373095</speed>
  <fix>3d</fix>
</trkpt>
<trkpt lat="40.0729296" lon="-105.230848">
  <ele>1595.47</ele>
  <time>2026-08-28T19:11:30Z</time>
  <course>2.21</course>
  <speed>0.03</speed>
  <fix>3d</fix>
</trkpt>
<trkpt lat="40.0729295" lon="-105.2308479">
  <ele>1595.58</ele>
  <time>2026-08-28T19:11:30Z</time>
  <course>31.85</course>
  <speed>0.01414213562373095</speed>
  <fix>3d</fix>
</trkpt>
<trkpt lat="40.0729297" lon="-105.230848">
  <ele>1595.47</ele>
  <time>2026-08-28T19:11:30Z</time>
  <course>4.63</course>
  <speed>0.03</speed>
  <fix>3d</fix>
</trkpt>
<trkpt lat="40.0729296" lon="-105.2308479">
  <ele>1595.58</ele>
  <time>2026-08-28T19:11:30Z</time>
  <course>30.46</course>
  <speed>0.01414213562373095</speed>
  <fix>3d</fix>
</trkpt>
<trkpt lat="40.0729298" lon="-105.230848">
  <ele>1595.47</ele>
  <time>2026-08-28T19:11:30Z</time>
  <course>6.48</course>
  <speed>0.03</speed>
  <fix>3d</fix>
</trkpt>
<trkpt lat="40.0729297" lon="-105.2308479">
  <ele>1595.58</ele>
  <time>2026-08-28T19:11:30Z</time>
  <course>28.92</course>
  <speed>0.01414213562373095</speed>
  <fix>3d</fix>
</trkpt>
<trkpt lat="40.0729299" lon="-105.230848">
  <ele>1595.46</ele>
  <time>2026-08-28T19:11:30Z</time>
  <course>6.93</course>
  <speed>0.03</speed>
  <fix>3d</fix>
</trkpt>
<trkpt lat="40.0729297" lon="-105.2308479">
  <ele>1595.58</ele>
  <time>2026-08-28T19:11:30Z</time>
  <course>27.43</course>
  <speed>0.01414213562373095</speed>
  <fix>3d</fix>
</trkpt>
<trkpt lat="40.0729299" lon="-105.230848">
  <ele>1595.46</ele>
  <time>2026-08-28T19:11:30Z</time>
  <course>6.3</course>
  <speed>0.03</speed>
  <fix>3d</fix>
</trkpt>
<trkpt lat="40.0729298" lon="-105.2308479">
  <ele>1595.58</ele>
  <time>2026-08-28T19:11:30Z</time>
  <course>26.12</course>
  <speed>0.01414213562373095</speed>
  <fix>3d</fix>
</trkpt>
<trkpt lat="40.07293" lon="-105.230848">
  <ele>1595.46</ele>
  <time>2026-08-28T19:11:30Z</time>
  <course>5.03</course>
  <speed>0.04</speed>
  <fix>3d</fix>
</trkpt>
<trkpt lat="40.0729299" lon="-105.2308479">
  <ele>1595.57</ele>
  <time>2026-08-28T19:11:30Z</time>
  <course>25.11</course>
  <speed>0.01414213562373095</speed>
  <fix>3d</fix>
</trkpt>
<trkpt lat="40.0729301" lon="-105.230848">
  <ele>1595.46</ele>
  <time>2026-08-28T19:11:30Z</time>
  <course>2.32</course>
  <speed>0.04</speed>
  <fix>3d</fix>
</trkpt>
<trkpt lat="40.07293" lon="-105.2308479">
  <ele>1595.57</ele>
  <time>2026-08-28T19:11:30Z</time>
  <course>24.51</course>
  <speed>0.02</speed>
  <fix>3d</fix>
</trkpt>
<trkpt lat="40.0729301" lon="-105.230848">
  <ele>1595.45</ele>
  <time>2026-08-28T19:11:30Z</time>
  <course>358.69</course>
  <speed>0.04</speed>
  <fix>3d</fix>
</trkpt>
<trkpt lat="40.07293" lon="-105.2308479">
  <ele>1595.57</ele>
  <time>2026-08-28T19:11:30Z</time>
  <course>24.35</course>
  <speed>0.02</speed>
  <fix>3d</fix>
</trkpt>
<trkpt lat="40.0729302" lon="-105.230848">
  <ele>1595.45</ele>
  <time>2026-08-28T19:11:30Z</time>
  <course>354.88</course>
  <speed>0.04</speed>
  <fix>3d</fix>
</trkpt>
<trkpt lat="40.0729301" lon="-105.2308479">
  <ele>1595.56</ele>
  <time>2026-08-28T19:11:30Z</time>
  <course>24.34</course>
  <speed>0.02</speed>
  <fix>3d</fix>
</trkpt>
<trkpt lat="40.0729303" lon="-105.230848">
  <ele>1595.45</ele>
  <time>2026-08-28T19:11:30Z</time>
  <course>353.02</course>
  <speed>0.04</speed>
  <fix>3d</fix>
</trkpt>
<trkpt lat="40.0729302" lon="-105.2308479">
  <ele>1595.56</ele>
  <time>2026-08-28T19:11:30Z</time>
  <course>24.34</course>
  <speed>0.02</speed>
  <fix>3d</fix>
</trkpt>
<trkpt lat="40.0729304" lon="-105.230848">
  <ele>1595.45</ele>
  <time>2026-08-28T19:11:30Z</time>
  <course>354.72</course>
  <speed>0.04</speed>
  <fix>3d</fix>
</trkpt>
<trkpt lat="40.0729303" lon="-105.2308479">
  <ele>1595.56</ele>
  <time>2026-08-28T19:11:30Z</time>
  <course>24.35</course>
  <speed>0.03</speed>
  <fix>3d</fix>
</trkpt>
<trkpt lat="40.0729304" lon="-105.230848">
  <ele>1595.45</ele>
  <time>2026-08-28T19:11:30Z</time>
  <course>357.32</course>
  <speed>0.04</speed>
  <fix>3d</fix>
</trkpt>
<trkpt lat="40.0729304" lon="-105.2308479">
  <ele>1595.56</ele>
  <time>2026-08-28T19:11:30Z</time>
  <course>24.34</course>
  <speed>0.0316227766016838</speed>
  <fix>3d</fix>
</trkpt>
<trkpt lat="40.0729305" lon="-105.230848">
  <ele>1595.45</ele>
  <time>2026-08-28T19:11:30Z</time>
  <course>359.28</course>
  <speed>0.05</speed>
  <fix>3d</fix>
</trkpt>
<trkpt lat="40.0729305" lon="-105.2308479">
  <ele>1595.56</ele>
  <time>2026-08-28T19:11:30Z</time>
  <course>24.34</course>
  <speed>0.0316227766016838</speed>
  <fix>3d</fix>
</trkpt>
<trkpt lat="40.0729306" lon="-105.230848">
  <ele>1595.45</ele>
  <time>2026-08-28T19:11:30Z</time>
  <course>0.78</course>
  <speed>0.05</speed>
  <fix>3d</fix>
</trkpt>
<trkpt lat="40.0729306" lon="-105.2308479">
  <ele>1595.56</ele>
  <time>2026-08-28T19:11:30Z</time>
  <course>24.35</course>
  <speed>0.0412310562561766</speed>
  <fix>3d</fix>
</trkpt>
<trkpt lat="40.0729307" lon="-105.230848">
  <ele>1595.45</ele>
  <time>2026-08-28T19:11:30Z</time>
  <course>1.75</course>
  <speed>0.05</speed>
  <fix>3d</fix>
</trkpt>
<trkpt lat="40.0729307" lon="-105.2308479">
  <ele>1595.56</ele>
  <time>2026-08-28T19:11:30Z</time>
  <course>24.35</course>
  <speed>0.0412310562561766</speed>
  <fix>3d</fix>
</trkpt>
<trkpt lat="40.0729309" lon="-105.230848">
  <ele>1595.45</ele>
  <time>2026-08-28T19:11:30Z</time>
  <course>2.41</course>
  <speed>0.06</speed>
  <fix>3d</fix>
</trkpt>
<trkpt lat="40.0729308" lon="-105.2308479">
  <ele>1595.56</ele>
  <time>2026-08-28T19:11:30Z</time>
  <course>24.35</course>
  <speed>0.0412310562561766</speed>
  <fix>3d</fix>
</trkpt>
<trkpt lat="40.072931" lon="-105.230848">
  <ele>1595.45</ele>
  <time>2026-08-28T19:11:30Z</time>
  <course>3.03</course>
  <speed>0.06</speed>
  <fix>3d</fix>
</trkpt>
<trkpt lat="40.072931" lon="-105.2308479">
  <ele>1595.56</ele>
  <time>2026-08-28T19:11:30Z</time>
  <course>24.35</course>
  <speed>0.05099019513592785</speed>
  <fix>3d</fix>
</trkpt>
<trkpt lat="40.0729311" lon="-105.230848">
  <ele>1595.45</ele>
  <time>2026-08-28T19:11:30Z</time>
  <course>3.59</course>
  <speed>0.07</speed>
  <fix>3d</fix>
</trkpt>
<trkpt lat="40.0729311" lon="-105.2308479">
  <ele>1595.56</ele>
  <time>2026-08-28T19:11:30Z</time>
  <course>24.32</course>
  <speed>0.05099019513592785</speed>
  <fix>3d</fix>
</trkpt>
<trkpt lat="40.0729312" lon="-105.230848">
  <ele>1595.46</ele>
  <time>2026-08-28T19:11:30Z</time>
  <course>4.34</course>
  <speed>0.07</speed>
  <fix>3d</fix>
</trkpt>
<trkpt lat="40.0729312" lon="-105.2308479">
  <ele>1595.56</ele>
  <time>2026-08-28T19:11:30Z</time>
  <course>24.34</course>
  <speed>0.05099019513592785</speed>
  <fix>3d</fix>
</trkpt>
<trkpt lat="40.0729314" lon="-105.230848">
  <ele>1595.46</ele>
  <time>2026-08-28T19:11:30Z</time>
  <course>5.16</course>
  <speed>0.07</speed>
  <fix>3d</fix>
</trkpt>
<trkpt lat="40.0729314" lon="-105.2308479">
  <ele>1595.57</ele>
  <time>2026-08-28T19:11:30Z</time>
  <course>24.35</course>
  <speed>0.06082762530298219</speed>
  <fix>3d</fix>
</trkpt>
<trkpt lat="40.0729315" lon="-105.230848">
  <ele>1595.46</ele>
  <time>2026-08-28T19:11:30Z</time>
  <course>5.66</course>
  <speed>0.08</speed>
  <fix>3d</fix>
</trkpt>
<trkpt lat="40.0729315" lon="-105.2308479">
  <ele>1595.57</ele>
  <time>2026-08-28T19:11:30Z</time>
  <course>24.35</course>
  <speed>0.06082762530298219</speed>
  <fix>3d</fix>
</trkpt>
<trkpt lat="40.0729317" lon="-105.230848">
  <ele>1595.46</ele>
  <time>2026-08-28T19:11:30Z</time>
  <course>5.97</course>
  <speed>0.08</speed>
  <fix>3d</fix>
</trkpt>
<trkpt lat="40.0729317" lon="-105.2308479">
  <ele>1595.57</ele>
  <time>2026-08-28T19:11:30Z</time>
  <course>24.36</course>
  <speed>0.06082762530298219</speed>
  <fix>3d</fix>
</trkpt>
<trkpt lat="40.0729318" lon="-105.230848">
  <ele>1595.46</ele>
  <time>2026-08-28T19:11:30Z</time>
  <course>6.31</course>
  <speed>0.08</speed>
  <fix>3d</fix>
</trkpt>
<trkpt lat="40.0729319" lon="-105.2308478">
  <ele>1595.56</ele>
  <time>2026-08-28T19:11:30Z</time>
  <course>24.36</course>
  <speed>0.06082762530298219</speed>
  <fix>3d</fix>
</trkpt>
<trkpt lat="40.0729319" lon="-105.230848">
  <ele>1595.46</ele>
  <time>2026-08-28T19:11:30Z</time>
  <course>6.65</course>
  <speed>0.08</speed>
  <fix>3d</fix>
</trkpt>
<trkpt lat="40.072932" lon="-105.2308478">
  <ele>1595.56</ele>
  <time>2026-08-28T19:11:30Z</time>
  <course>24.36</course>
  <speed>0.07071067811865475</speed>
  <fix>3d</fix>
</trkpt>
<trkpt lat="40.0729321" lon="-105.2308479">
  <ele>1595.47</ele>
  <time>2026-08-28T19:11:30Z</time>
  <course>6.99</course>
  <speed>0.09</speed>
  <fix>3d</fix>
</trkpt>
<trkpt lat="40.0729322" lon="-105.2308478">
  <ele>1595.56</ele>
  <time>2026-08-28T19:11:30Z</time>
  <course>24.13</course>
  <speed>0.07280109889280519</speed>
  <fix>3d</fix>
</trkpt>
<trkpt lat="40.0729323" lon="-105.2308479">
  <ele>1595.47</ele>
  <time>2026-08-28T19:11:30Z</time>
  <course>7.85</course>
  <speed>0.09</speed>
  <fix>3d</fix>
</trkpt>
<trkpt lat="40.0729324" lon="-105.2308478">
  <ele>1595.56</ele>
  <time>2026-08-28T19:11:30Z</time>
  <course>23.02</course>
  <speed>0.07280109889280519</speed>
  <fix>3d</fix>
</trkpt>
<trkpt lat="40.0729325" lon="-105.2308479">
  <ele>1595.47</ele>
  <time>2026-08-28T19:11:30Z</time>
  <course>9.79</course>
  <speed>0.09</speed>
  <fix>3d</fix>
</trkpt>
<trkpt lat="40.0729325" lon="-105.2308477">
  <ele>1595.56</ele>
  <time>2026-08-28T19:11:30Z</time>
  <course>21.67</course>
  <speed>0.0632455532033676</speed>
  <fix>3d</fix>
</trkpt>
<trkpt lat="40.0729326" lon="-105.2308478">
  <ele>1595.47</ele>
  <time>2026-08-28T19:11:30Z</time>
  <course>11.23</course>
  <speed>0.09</speed>
  <fix>3d</fix>
</trkpt>
<trkpt lat="40.0729327" lon="-105.2308477">
  <ele>1595.56</ele>
  <time>2026-08-28T19:11:30Z</time>
  <course>20.53</course>
  <speed>0.0632455532033676</speed>
  <fix>3d</fix>
</trkpt>
<trkpt lat="40.0729327" lon="-105.2308477">
  <ele>1595.47</ele>
  <time>2026-08-28T19:11:30Z</time>
  <course>10.7</course>
  <speed>0.09</speed>
  <fix>3d</fix>
</trkpt>
<trkpt lat="40.0729328" lon="-105.2308477">
  <ele>1595.56</ele>
  <time>2026-08-28T19:11:30Z</time>
  <course>19.75</course>
  <speed>0.05099019513592785</speed>
  <fix>3d</fix>
</trkpt>
<trkpt lat="40.0729329" lon="-105.2308477">
  <ele>1595.47</ele>
  <time>2026-08-28T19:11:30Z</time>
  <course>9.07</course>
  <speed>0.08</speed>
  <fix>3d</fix>
</trkpt>
<trkpt lat="40.072933" lon="-105.2308476">
  <ele>1595.56</ele>
  <time>2026-08-28T19:11:30Z</time>
  <course>19.42</course>
  <speed>0.05099019513592785</speed>
  <fix>3d</fix>
</trkpt>
<trkpt lat="40.0729331" lon="-105.2308477">
  <ele>1595.48</ele>
  <time>2026-08-28T19:11:30Z</time>
  <course>6.82</course>
  <speed>0.07</speed>
  <fix>3d</fix>
</trkpt>
<trkpt lat="40.0729331" lon="-105.2308476">
  <ele>1595.56</ele>
  <time>2026-08-28T19:11:30Z</time>
  <course>19.59</course>
  <speed>0.04</speed>
  <fix>3d</fix>
</trkpt>
<trkpt lat="40.0729332" lon="-105.2308477">
  <ele>1595.48</ele>
  <time>2026-08-28T19:11:30Z</time>
  <course>3.79</course>
  <speed>0.07</speed>
  <fix>3d</fix>
</trkpt>
<trkpt lat="40.0729332" lon="-105.2308476">
  <ele>1595.56</ele>
  <time>2026-08-28T19:11:30Z</time>
  <course>20.21</course>
  <speed>0.03</speed>
  <fix>3d</fix>
</trkpt>
<trkpt lat="40.0729333" lon="-105.2308477">
  <ele>1595.48</ele>
  <time>2026-08-28T19:11:30Z</time>
  <course>0.32</course>
  <speed>0.06</speed>
  <fix>3d</fix>
</trkpt>
<trkpt lat="40.0729333" lon="-105.2308476">
  <ele>1595.57</ele>
  <time>2026-08-28T19:11:30Z</time>
  <course>21.23</course>
  <speed>0.03</speed>
  <fix>3d</fix>
</trkpt>
<trkpt lat="40.0729334" lon="-105.2308477">
  <ele>1595.48</ele>
  <time>2026-08-28T19:11:30Z</time>
  <course>356.5</course>
  <speed>0.05</speed>
  <fix>3d</fix>
</trkpt>
<trkpt lat="40.0729334" lon="-105.2308476">
  <ele>1595.57</ele>
  <time>2026-08-28T19:11:30Z</time>
  <course>22.55</course>
  <speed>0.02</speed>
  <fix>3d</fix>
</trkpt>
<trkpt lat="40.0729335" lon="-105.2308477">
  <ele>1595.49</ele>
  <time>2026-08-28T19:11:30Z</time>
  <course>352.87</course>
  <speed>0.05</speed>
  <fix>3d</fix>
</trkpt>
<trkpt lat="40.0729335" lon="-105.2308476">
  <ele>1595.57</ele>
  <time>2026-08-28T19:11:30Z</time>
  <course>24.05</course>
  <speed>0.02</speed>
  <fix>3d</fix>
</trkpt>
<trkpt lat="40.0729336" lon="-105.2308477">
  <ele>1595.49</ele>
  <time>2026-08-28T19:11:30Z</time>
  <course>349.58</course>
  <speed>0.04</speed>
  <fix>3d</fix>
</trkpt>
<trkpt lat="40.0729335" lon="-105.2308476">
  <ele>1595.57</ele>
  <time>2026-08-28T19:11:30Z</time>
  <course>25.59</course>
  <speed>0.02</speed>
  <fix>3d</fix>
</trkpt>
<trkpt lat="40.0729337" lon="-105.2308477">
  <ele>1595.49</ele>
  <time>2026-08-28T19:11:30Z</time>
  <course>346.65</course>
  <speed>0.04</speed>
  <fix>3d</fix>
</trkpt>
<trkpt lat="40.0729336" lon="-105.2308476">
  <ele>1595.56</ele>
  <time>2026-08-28T19:11:30Z</time>
  <course>26.99</course>
  <speed>0.01</speed>
  <fix>3d</fix>
</trkpt>
<trkpt lat="40.0729338" lon="-105.2308477">
  <ele>1595.49</ele>
  <time>2026-08-28T19:11:30Z</time>
  <course>344.94</course>
  <speed>0.04</speed>
  <fix>3d</fix>
</trkpt>
<trkpt lat="40.0729337" lon="-105.2308476">
  <ele>1595.57</ele>
  <time>2026-08-28T19:11:30Z</time>
  <course>28.13</course>
  <speed>0.01</speed>
  <fix>3d</fix>
</trkpt>
<trkpt lat="40.0729338" lon="-105.2308477">
  <ele>1595.49</ele>
  <time>2026-08-28T19:11:30Z</time>
  <course>344.94</course>
  <speed>0.03</speed>
  <fix>3d</fix>
</trkpt>
<trkpt lat="40.0729337" lon="-105.2308476">
  <ele>1595.57</ele>
  <time>2026-08-28T19:11:30Z</time>
  <course>28.91</course>
  <speed>0.01</speed>
  <fix>3d</fix>
</trkpt>
<trkpt lat="40.0729339" lon="-105.2308477">
  <ele>1595.49</ele>
  <time>2026-08-28T19:11:30Z</time>
  <course>346.43</course>
  <speed>0.03</speed>
  <fix>3d</fix>
</trkpt>
<trkpt lat="40.0729338" lon="-105.2308476">
  <ele>1595.58</ele>
  <time>2026-08-28T19:11:30Z</time>
  <course>29.24</course>
  <speed>0.01</speed>
  <fix>3d</fix>
</trkpt>
<trkpt lat="40.0729339" lon="-105.2308477">
  <ele>1595.5</ele>
  <time>2026-08-28T19:11:30Z</time>
  <course>349.21</course>
  <speed>0.03</speed>
  <fix>3d</fix>
</trkpt>
<trkpt lat="40.0729339" lon="-105.2308476">
  <ele>1595.59</ele>
  <time>2026-08-28T19:11:30Z</time>
  <course>29.11</course>
  <speed>0.01414213562373095</speed>
  <fix>3d</fix>
</trkpt>
<trkpt lat="40.072934" lon="-105.2308477">
  <ele>1595.5</ele>
  <time>2026-08-28T19:11:30Z</time>
  <course>353.05</course>
  <speed>0.03</speed>
  <fix>3d</fix>
</trkpt>
<trkpt lat="40.0729339" lon="-105.2308476">
  <ele>1595.59</ele>
  <time>2026-08-28T19:11:30Z</time>
  <course>28.54</course>
  <speed>0.01414213562373095</speed>
  <fix>3d</fix>
</trkpt>
<trkpt lat="40.0729341" lon="-105.2308477">
  <ele>1595.5</ele>
  <time>2026-08-28T19:11:30Z</time>
  <course>356.6</course>
  <speed>0.03</speed>
  <fix>3d</fix>
</trkpt>
<trkpt lat="40.072934" lon="-105.2308476">
  <ele>1595.59</ele>
  <time>2026-08-28T19:11:30Z</time>
  <course>27.54</course>
  <speed>0.01414213562373095</speed>
  <fix>3d</fix>
</trkpt>
<trkpt lat="40.0729342" lon="-105.2308477">
  <ele>1595.5</ele>
  <time>2026-08-28T19:11:30Z</time>
  <course>359.64</course>
  <speed>0.03</speed>
  <fix>3d</fix>
</trkpt>
<trkpt lat="40.072934" lon="-105.2308476">
  <ele>1595.59</ele>
  <time>2026-08-28T19:11:30Z</time>
  <course>26.21</course>
  <speed>0.01414213562373095</speed>
  <fix>3d</fix>
</trkpt>
<trkpt lat="40.0729342" lon="-105.2308477">
  <ele>1595.49</ele>
  <time>2026-08-28T19:11:30Z</time>
  <course>2.29</course>
  <speed>0.03</speed>
  <fix>3d</fix>
</trkpt>
<trkpt lat="40.0729341" lon="-105.2308476">
  <ele>1595.58</ele>
  <time>2026-08-28T19:11:30Z</time>
  <course>24.7</course>
  <speed>0.01414213562373095</speed>
  <fix>3d</fix>
</trkpt>
<trkpt lat="40.0729343" lon="-105.2308477">
  <ele>1595.49</ele>
  <time>2026-08-28T19:11:30Z</time>
  <course>3.83</course>
  <speed>0.03</speed>
  <fix>3d</fix>
</trkpt>
<trkpt lat="40.0729342" lon="-105.2308476">
  <ele>1595.58</ele>
  <time>2026-08-28T19:11:30Z</time>
  <course>23.16</course>
  <speed>0.01414213562373095</speed>
  <fix>3d</fix>
</trkpt>
<trkpt lat="40.0729344" lon="-105.2308477">
  <ele>1595.48</ele>
  <time>2026-08-28T19:11:30Z</time>
  <course>3.56</course>
  <speed>0.03</speed>
  <fix>3d</fix>
</trkpt>
<trkpt lat="40.0729343" lon="-105.2308476">
  <ele>1595.58</ele>
  <time>2026-08-28T19:11:30Z</time>
  <course>21.77</course>
  <speed>0.01414213562373095</speed>
  <fix>3d</fix>
</trkpt>
<trkpt lat="40.0729344" lon="-105.2308477">
  <ele>1595.48</ele>
  <time>2026-08-28T19:11:30Z</time>
  <course>1.6</course>
  <speed>0.03</speed>
  <fix>3d</fix>
</trkpt>
<trkpt lat="40.0729343" lon="-105.2308476">
  <ele>1595.57</ele>
  <time>2026-08-28T19:11:30Z</time>
  <course>20.59</course>
  <speed>0.022360679774997897</speed>
  <fix>3d</fix>
</trkpt>
<trkpt lat="40.0729345" lon="-105.2308477">
  <ele>1595.48</ele>
  <time>2026-08-28T19:11:30Z</time>
  <course>358.63</course>
  <speed>0.04</speed>
  <fix>3d</fix>
</trkpt>
<trkpt lat="40.0729344" lon="-105.2308476">
  <ele>1595.57</ele>
  <time>2026-08-28T19:11:30Z</time>
  <course>19.79</course>
  <speed>0.02</speed>
  <fix>3d</fix>
</trkpt>
<trkpt lat="40.0729345" lon="-105.2308477">
  <ele>1595.47</ele>
  <time>2026-08-28T19:11:30Z</time>
  <course>354.75</course>
  <speed>0.04</speed>
  <fix>3d</fix>
</trkpt>
<trkpt lat="40.0729345" lon="-105.2308476">
  <ele>1595.57</ele>
  <time>2026-08-28T19:11:30Z</time>
  <course>19.45</course>
  <speed>0.02</speed>
  <fix>3d</fix>
</trkpt>
<trkpt lat="40.0729346" lon="-105.2308477">
  <ele>1595.47</ele>
  <time>2026-08-28T19:11:30Z</time>
  <course>350.0</course>
  <speed>0.04</speed>
  <fix>3d</fix>
</trkpt>
<trkpt lat="40.0729345" lon="-105.2308476">
  <ele>1595.57</ele>
  <time>2026-08-28T19:11:30Z</time>
  <course>19.6</course>
  <speed>0.02</speed>
  <fix>3d</fix>
</trkpt>
<trkpt lat="40.0729347" lon="-105.2308477">
  <ele>1595.47</ele>
  <time>2026-08-28T19:11:30Z</time>
  <course>345.13</course>
  <speed>0.04</speed>
  <fix>3d</fix>
</trkpt>
<trkpt lat="40.0729346" lon="-105.2308476">
  <ele>1595.57</ele>
  <time>2026-08-28T19:11:30Z</time>
  <course>20.22</course>
  <speed>0.02</speed>
  <fix>3d</fix>
</trkpt>
<trkpt lat="40.0729348" lon="-105.2308478">
  <ele>1595.47</ele>
  <time>2026-08-28T19:11:30Z</time>
  <course>341.16</course>
  <speed>0.04</speed>
  <fix>3d</fix>
</trkpt>
<trkpt lat="40.0729347" lon="-105.2308477">
  <ele>1595.56</ele>
  <time>2026-08-28T19:11:30Z</time>
  <course>21.27</course>
  <speed>0.02</speed>
  <fix>3d</fix>
</trkpt>
<trkpt lat="40.0729349" lon="-105.2308479">
  <ele>1595.47</ele>
  <time>2026-08-28T19:11:30Z</time>
  <course>338.52</course>
  <speed>0.04</speed>
  <fix>3d</fix>
</trkpt>
<trkpt lat="40.0729348" lon="-105.2308477">
  <ele>1595.56</ele>
  <time>2026-08-28T19:11:30Z</time>
  <course>22.57</course>
  <speed>0.02</speed>
  <fix>3d</fix>
</trkpt>
<trkpt lat="40.072935" lon="-105.2308479">
  <ele>1595.47</ele>
  <time>2026-08-28T19:11:30Z</time>
  <course>336.97</course>
  <speed>0.04</speed>
  <fix>3d</fix>
</trkpt>
<trkpt lat="40.0729349" lon="-105.2308477">
  <ele>1595.56</ele>
  <time>2026-08-28T19:11:30Z</time>
  <course>24.05</course>
  <speed>0.02</speed>
  <fix>3d</fix>
</trkpt>
<trkpt lat="40.072935" lon="-105.2308479">
  <ele>1595.47</ele>
  <time>2026-08-28T19:11:30Z</time>
  <course>336.43</course>
  <speed>0.04</speed>
  <fix>3d</fix>
</trkpt>
<trkpt lat="40.0729349" lon="-105.2308478">
  <ele>1595.55</ele>
  <time>2026-08-28T19:11:30Z</time>
  <course>25.57</course>
  <speed>0.02</speed>
  <fix>3d</fix>
</trkpt>
<trkpt lat="40.0729351" lon="-105.230848">
  <ele>1595.47</ele>
  <time>2026-08-28T19:11:30Z</time>
  <course>336.98</course>
  <speed>0.04</speed>
  <fix>3d</fix>
</trkpt>
<trkpt lat="40.072935" lon="-105.2308478">
  <ele>1595.55</ele>
  <time>2026-08-28T19:11:30Z</time>
  <course>26.92</course>
  <speed>0.01</speed>
  <fix>3d</fix>
</trkpt>
<trkpt lat="40.0729352" lon="-105.230848">
  <ele>1595.47</ele>
  <time>2026-08-28T19:11:30Z</time>
  <course>338.08</course>
  <speed>0.04</speed>
  <fix>3d</fix>
</trkpt>
<trkpt lat="40.0729351" lon="-105.2308479">
  <ele>1595.55</ele>
  <time>2026-08-28T19:11:30Z</time>
  <course>28.08</course>
  <speed>0.01</speed>
  <fix>3d</fix>
</trkpt>
<trkpt lat="40.0729353" lon="-105.230848">
  <ele>1595.48</ele>
  <time>2026-08-28T19:11:30Z</time>
  <course>339.72</course>
  <speed>0.04</speed>
  <fix>3d</fix>
</trkpt>
<trkpt lat="40.0729352" lon="-105.2308479">
  <ele>1595.56</ele>
  <time>2026-08-28T19:11:30Z</time>
  <course>28.89</course>
  <speed>0.01</speed>
  <fix>3d</fix>
</trkpt>
<trkpt lat="40.0729353" lon="-105.230848">
  <ele>1595.48</ele>
  <time>2026-08-28T19:11:30Z</time>
  <course>342.54</course>
  <speed>0.04</speed>
  <fix>3d</fix>
</trkpt>
<trkpt lat="40.0729352" lon="-105.2308479">
  <ele>1595.56</ele>
  <time>2026-08-28T19:11:30Z</time>
  <course>29.23</course>
  <speed>0.01</speed>
  <fix>3d</fix>
</trkpt>
<trkpt lat="40.0729354" lon="-105.230848">
  <ele>1595.48</ele>
  <time>2026-08-28T19:11:30Z</time>
  <course>346.14</course>
  <speed>0.03</speed>
  <fix>3d</fix>
</trkpt>
<trkpt lat="40.0729353" lon="-105.2308479">
  <ele>1595.57</ele>
  <time>2026-08-28T19:11:30Z</time>
  <course>29.1</course>
  <speed>0.01414213562373095</speed>
  <fix>3d</fix>
</trkpt>
<trkpt lat="40.0729355" lon="-105.2308481">
  <ele>1595.49</ele>
  <time>2026-08-28T19:11:30Z</time>
  <course>350.22</course>
  <speed>0.03</speed>
  <fix>3d</fix>
</trkpt>
<trkpt lat="40.0729354" lon="-105.2308479">
  <ele>1595.57</ele>
  <time>2026-08-28T19:11:30Z</time>
  <course>28.46</course>
  <speed>0.01414213562373095</speed>
  <fix>3d</fix>
</trkpt>
<trkpt lat="40.0729355" lon="-105.2308482">
  <ele>1595.49</ele>
  <time>2026-08-28T19:11:30Z</time>
  <course>354.4</course>
  <speed>0.03</speed>
  <fix>3d</fix>
</trkpt>
<trkpt lat="40.0729354" lon="-105.2308479">
  <ele>1595.57</ele>
  <time>2026-08-28T19:11:30Z</time>
  <course>27.46</course>
  <speed>0.01414213562373095</speed>
  <fix>3d</fix>
</trkpt>
<trkpt lat="40.0729356" lon="-105.2308482">
  <ele>1595.49</ele>
  <time>2026-08-28T19:11:30Z</time>
  <course>357.9</course>
  <speed>0.03</speed>
  <fix>3d</fix>
</trkpt>
<trkpt lat="40.0729355" lon="-105.2308479">
  <ele>1595.57</ele>
  <time>2026-08-28T19:11:30Z</time>
  <course>26.13</course>
  <speed>0.01414213562373095</speed>
  <fix>3d</fix>
</trkpt>
<trkpt lat="40.0729356" lon="-105.2308482">
  <ele>1595.49</ele>
  <time>2026-08-28T19:11:30Z</time>
  <course>0.3</course>
  <speed>0.03</speed>
  <fix>3d</fix>
</trkpt>
<trkpt lat="40.0729356" lon="-105.2308479">
  <ele>1595.57</ele>
  <time>2026-08-28T19:11:30Z</time>
  <course>24.61</course>
  <speed>0.01414213562373095</speed>
  <fix>3d</fix>
</trkpt>
<trkpt lat="40.0729357" lon="-105.2308482">
  <ele>1595.49</ele>
  <time>2026-08-28T19:11:30Z</time>
  <course>1.37</course>
  <speed>0.03</speed>
  <fix>3d</fix>
</trkpt>
<trkpt lat="40.0729356" lon="-105.2308479">
  <ele>1595.57</ele>
  <time>2026-08-28T19:11:30Z</time>
  <course>23.1</course>
  <speed>0.01414213562373095</speed>
  <fix>3d</fix>
</trkpt>
<trkpt lat="40.0729358" lon="-105.2308482">
  <ele>1595.49</ele>
  <time>2026-08-28T19:11:30Z</time>
  <course>0.87</course>
  <speed>0.03</speed>
  <fix>3d</fix>
</trkpt>
<trkpt lat="40.0729357" lon="-105.230848">
  <ele>1595.57</ele>
  <time>2026-08-28T19:11:30Z</time>
  <course>21.7</course>
  <speed>0.022360679774997897</speed>
  <fix>3d</fix>
</trkpt>
<trkpt lat="40.0729359" lon="-105.2308482">
  <ele>1595.5</ele>
  <time>2026-08-28T19:11:30Z</time>
  <course>359.02</course>
  <speed>0.04</speed>
  <fix>3d</fix>
</trkpt>
<trkpt lat="40.0729358" lon="-105.230848">
  <ele>1595.57</ele>
  <time>2026-08-28T19:11:30Z</time>
  <course>20.57</course>
  <speed>0.02</speed>
  <fix>3d</fix>
</trkpt>
<trkpt lat="40.0729359" lon="-105.2308482">
  <ele>1595.5</ele>
  <time>2026-08-28T19:11:30Z</time>
  <course>356.52</course>
  <speed>0.04</speed>
  <fix>3d</fix>
</trkpt>
<trkpt lat="40.0729359" lon="-105.230848">
  <ele>1595.58</ele>
  <time>2026-08-28T19:11:30Z</time>
  <course>19.79</course>
  <speed>0.02</speed>
  <fix>3d</fix>
</trkpt>
<trkpt lat="40.072936" lon="-105.2308482">
  <ele>1595.5</ele>
  <time>2026-08-28T19:11:30Z</time>
  <course>354.07</course>
  <speed>0.04</speed>
  <fix>3d</fix>
</trkpt>
<trkpt lat="40.0729359" lon="-105.230848">
  <ele>1595.58</ele>
  <time>2026-08-28T19:11:30Z</time>
  <course>19.46</course>
  <speed>0.02</speed>
  <fix>3d</fix>
</trkpt>
<trkpt lat="40.0729361" lon="-105.2308482">
  <ele>1595.5</ele>
  <time>2026-08-28T19:11:30Z</time>
  <course>351.58</course>
  <speed>0.04</speed>
  <fix>3d</fix>
</trkpt>
<trkpt lat="40.072936" lon="-105.230848">
  <ele>1595.58</ele>
  <time>2026-08-28T19:11:30Z</time>
  <course>19.62</course>
  <speed>0.02</speed>
  <fix>3d</fix>
</trkpt>
<trkpt lat="40.0729362" lon="-105.2308482">
  <ele>1595.49</ele>
  <time>2026-08-28T19:11:30Z</time>
  <course>348.86</course>
  <speed>0.04</speed>
  <fix>3d</fix>
</trkpt>
<trkpt lat="40.0729361" lon="-105.2308481">
  <ele>1595.58</ele>
  <time>2026-08-28T19:11:30Z</time>
  <course>20.26</course>
  <speed>0.02</speed>
  <fix>3d</fix>
</trkpt>
<trkpt lat="40.0729362" lon="-105.2308482">
  <ele>1595.49</ele>
  <time>2026-08-28T19:11:30Z</time>
  <course>346.45</course>
  <speed>0.04</speed>
  <fix>3d</fix>
</trkpt>
<trkpt lat="40.0729362" lon="-105.2308481">
  <ele>1595.57</ele>
  <time>2026-08-28T19:11:30Z</time>
  <course>21.27</course>
  <speed>0.02</speed>
  <fix>3d</fix>
</trkpt>
<trkpt lat="40.0729363" lon="-105.2308482">
  <ele>1595.49</ele>
  <time>2026-08-28T19:11:30Z</time>
  <course>344.48</course>
  <speed>0.04</speed>
  <fix>3d</fix>
</trkpt>
<trkpt lat="40.0729363" lon="-105.2308481">
  <ele>1595.57</ele>
  <time>2026-08-28T19:11:30Z</time>
  <course>22.61</course>
  <speed>0.02</speed>
  <fix>3d</fix>
</trkpt>
<trkpt lat="40.0729364" lon="-105.2308482">
  <ele>1595.49</ele>
  <time>2026-08-28T19:11:30Z</time>
  <course>342.67</course>
  <speed>0.04</speed>
  <fix>3d</fix>
</trkpt>
<trkpt lat="40.0729363" lon="-105.2308482">
  <ele>1595.57</ele>
  <time>2026-08-28T19:11:30Z</time>
  <course>24.1</course>
  <speed>0.02</speed>
  <fix>3d</fix>
</trkpt>
<trkpt lat="40.0729365" lon="-105.2308483">
  <ele>1595.49</ele>
  <time>2026-08-28T19:11:30Z</time>
  <course>341.31</course>
  <speed>0.04</speed>
  <fix>3d</fix>
</trkpt>
<trkpt lat="40.0729364" lon="-105.2308482">
  <ele>1595.57</ele>
  <time>2026-08-28T19:11:30Z</time>
  <course>25.59</course>
  <speed>0.02</speed>
  <fix>3d</fix>
</trkpt>
<trkpt lat="40.0729366" lon="-105.2308484">
  <ele>1595.49</ele>
  <time>2026-08-28T19:11:30Z</time>
  <course>341.22</course>
  <speed>0.04</speed>
  <fix>3d</fix>
</trkpt>
<trkpt lat="40.0729365" lon="-105.2308482">
  <ele>1595.57</ele>
  <time>2026-08-28T19:11:30Z</time>
  <course>26.99</course>
  <speed>0.01</speed>
  <fix>3d</fix>
</trkpt>
<trkpt lat="40.0729367" lon="-105.2308484">
  <ele>1595.49</ele>
  <time>2026-08-28T19:11:30Z</time>
  <course>341.93</course>
  <speed>0.04</speed>
  <fix>3d</fix>
</trkpt>
<trkpt lat="40.0729366" lon="-105.2308482">
  <ele>1595.56</ele>
  <time>2026-08-28T19:11:30Z</time>
  <course>28.14</course>
  <speed>0.01</speed>
  <fix>3d</fix>
</trkpt>
<trkpt lat="40.0729367" lon="-105.2308484">
  <ele>1595.49</ele>
  <time>2026-08-28T19:11:30Z</time>
  <course>343.22</course>
  <speed>0.04</speed>
  <fix>3d</fix>
</trkpt>
<trkpt lat="40.0729366" lon="-105.2308483">
  <ele>1595.56</ele>
  <time>2026-08-28T19:11:30Z</time>
  <course>28.92</course>
  <speed>0.01</speed>
  <fix>3d</fix>
</trkpt>
<trkpt lat="40.0729368" lon="-105.2308484">
  <ele>1595.49</ele>
  <time>2026-08-28T19:11:30Z</time>
  <course>345.69</course>
  <speed>0.03</speed>
  <fix>3d</fix>
</trkpt>
<trkpt lat="40.0729367" lon="-105.2308483">
  <ele>1595.56</ele>
  <time>2026-08-28T19:11:30Z</time>
  <course>29.23</course>
  <speed>0.01</speed>
  <fix>3d</fix>
</trkpt>
<trkpt lat="40.0729368" lon="-105.2308484">
  <ele>1595.49</ele>
  <time>2026-08-28T19:11:30Z</time>
  <course>349.18</course>
  <speed>0.03</speed>
  <fix>3d</fix>
</trkpt>
<trkpt lat="40.0729368" lon="-105.2308483">
  <ele>1595.57</ele>
  <time>2026-08-28T19:11:30Z</time>
  <course>29.09</course>
  <speed>0.01414213562373095</speed>
  <fix>3d</fix>
</trkpt>
<trkpt lat="40.0729369" lon="-105.2308484">
  <ele>1595.49</ele>
  <time>2026-08-28T19:11:30Z</time>
  <course>353.39</course>
  <speed>0.03</speed>
  <fix>3d</fix>
</trkpt>
<trkpt lat="40.0729368" lon="-105.2308483">
  <ele>1595.58</ele>
  <time>2026-08-28T19:11:30Z</time>
  <course>28.47</course>
  <speed>0.01414213562373095</speed>
  <fix>3d</fix>
</trkpt>
<trkpt lat="40.072937" lon="-105.2308484">
  <ele>1595.49</ele>
  <time>2026-08-28T19:11:30Z</time>
  <course>357.75</course>
  <speed>0.03</speed>
  <fix>3d</fix>
</trkpt>
<trkpt lat="40.0729369" lon="-105.2308483">
  <ele>1595.58</ele>
  <time>2026-08-28T19:11:30Z</time>
  <course>27.48</course>
  <speed>0.01414213562373095</speed>
  <fix>3d</fix>
</trkpt>
<trkpt lat="40.0729371" lon="-105.2308484">
  <ele>1595.49</ele>
  <time>2026-08-28T19:11:30Z</time>
  <course>1.06</course>
  <speed>0.03</speed>
  <fix>3d</fix>
</trkpt>
<trkpt lat="40.072937" lon="-105.2308483">
  <ele>1595.58</ele>
  <time>2026-08-28T19:11:30Z</time>
  <course>26.17</course>
  <speed>0.01414213562373095</speed>
  <fix>3d</fix>
</trkpt>
<trkpt lat="40.0729371" lon="-105.2308484">
  <ele>1595.49</ele>
  <time>2026-08-28T19:11:30Z</time>
  <course>2.96</course>
  <speed>0.03</speed>
  <fix>3d</fix>
</trkpt>
<trkpt lat="40.072937" lon="-105.2308483">
  <ele>1595.58</ele>
  <time>2026-08-28T19:11:30Z</time>
  <course>24.7</course>
  <speed>0.01414213562373095</speed>
  <fix>3d</fix>
</trkpt>
<trkpt lat="40.0729372" lon="-105.2308484">
  <ele>1595.49</ele>
  <time>2026-08-28T19:11:30Z</time>
  <course>3.64</course>
  <speed>0.03</speed>
  <fix>3d</fix>
</trkpt>
<trkpt lat="40.0729371" lon="-105.2308483">
  <ele>1595.58</ele>
  <time>2026-08-28T19:11:30Z</time>
  <course>23.15</course>
  <speed>0.022360679774997897</speed>
  <fix>3d</fix>
</trkpt>
<trkpt lat="40.0729373" lon="-105.2308484">
  <ele>1595.48</ele>
  <time>2026-08-28T19:11:30Z</time>
  <course>2.99</course>
  <speed>0.04</speed>
  <fix>3d</fix>
</trkpt>
<trkpt lat="40.0729372" lon="-105.2308483">
  <ele>1595.58</ele>
  <time>2026-08-28T19:11:30Z</time>
  <course>21.76</course>
  <speed>0.022360679774997897</speed>
  <fix>3d</fix>
</trkpt>
<trkpt lat="40.0729374" lon="-105.2308484">
  <ele>1595.48</ele>
  <time>2026-08-28T19:11:30Z</time>
  <course>1.35</course>
  <speed>0.04</speed>
  <fix>3d</fix>
</trkpt>
<trkpt lat="40.0729373" lon="-105.2308483">
  <ele>1595.58</ele>
  <time>2026-08-28T19:11:30Z</time>
  <course>20.6</course>
  <speed>0.022360679774997897</speed>
  <fix>3d</fix>
</trkpt>
<trkpt lat="40.0729374" lon="-105.2308484">
  <ele>1595.48</ele>
  <time>2026-08-28T19:11:30Z</time>
  <course>359.0</course>
  <speed>0.04</speed>
  <fix>3d</fix>
</trkpt>
<trkpt lat="40.0729373" lon="-105.2308483">
  <ele>1595.57</ele>
  <time>2026-08-28T19:11:30Z</time>
  <course>19.8</course>
  <speed>0.02</speed>
  <fix>3d</fix>
</trkpt>
<trkpt lat="40.0729375" lon="-105.2308484">
  <ele>1595.47</ele>
  <time>2026-08-28T19:11:30Z</time>
  <course>356.22</course>
  <speed>0.04</speed>
  <fix>3d</fix>
</trkpt>
<trkpt lat="40.0729374" lon="-105.2308483">
  <ele>1595.57</ele>
  <time>2026-08-28T19:11:30Z</time>
  <course>19.46</course>
  <speed>0.02</speed>
  <fix>3d</fix>
</trkpt>
<trkpt lat="40.0729376" lon="-105.2308484">
  <ele>1595.47</ele>
  <time>2026-08-28T19:11:30Z</time>
  <course>352.97</course>
  <speed>0.04</speed>
  <fix>3d</fix>
</trkpt>
<trkpt lat="40.0729375" lon="-105.2308483">
  <ele>1595.57</ele>
  <time>2026-08-28T19:11:30Z</time>
  <course>19.6</course>
  <speed>0.02</speed>
  <fix>3d</fix>
</trkpt>
<trkpt lat="40.0729377" lon="-105.2308484">
  <ele>1595.47</ele>
  <time>2026-08-28T19:11:30Z</time>
  <course>349.53</course>
  <speed>0.04</speed>
  <fix>3d</fix>
</trkpt>
<trkpt lat="40.0729376" lon="-105.2308483">
  <ele>1595.57</ele>
  <time>2026-08-28T19:11:30Z</time>
  <course>20.24</course>
  <speed>0.02</speed>
  <fix>3d</fix>
</trkpt>
<trkpt lat="40.0729377" lon="-105.2308484">
  <ele>1595.47</ele>
  <time>2026-08-28T19:11:30Z</time>
  <course>346.51</course>
  <speed>0.04</speed>
  <fix>3d</fix>
</trkpt>
<trkpt lat="40.0729377" lon="-105.2308483">
  <ele>1595.58</ele>
  <time>2026-08-28T19:11:30Z</time>
  <course>21.28</course>
  <speed>0.02</speed>
  <fix>3d</fix>
</trkpt>
<trkpt lat="40.0729378" lon="-105.2308485">
  <ele>1595.47</ele>
  <time>2026-08-28T19:11:30Z</time>
  <course>343.38</course>
  <speed>0.04</speed>
  <fix>3d</fix>
</trkpt>
<trkpt lat="40.0729377" lon="-105.2308484">
  <ele>1595.58</ele>
  <time>2026-08-28T19:11:30Z</time>
  <course>22.61</course>
  <speed>0.02</speed>
  <fix>3d</fix>
</trkpt>
<trkpt lat="40.0729379" lon="-105.2308486">
  <ele>1595.47</ele>
  <time>2026-08-28T19:11:30Z</time>
  <course>340.5</course>
  <speed>0.04</speed>
  <fix>3d</fix>
</trkpt>
<trkpt lat="40.0729378" lon="-105.2308484">
  <ele>1595.58</ele>
  <time>2026-08-28T19:11:30Z</time>
  <course>24.09</course>
  <speed>0.02</speed>
  <fix>3d</fix>
</trkpt>
<trkpt lat="40.072938" lon="-105.2308486">
  <ele>1595.46</ele>
  <time>2026-08-28T19:11:30Z</time>
  <course>338.85</course>
  <speed>0.04</speed>
  <fix>3d</fix>
</trkpt>
<trkpt lat="40.0729379" lon="-105.2308484">
  <ele>1595.57</ele>
  <time>2026-08-28T19:11:30Z</time>
  <course>25.62</course>
  <speed>0.01</speed>
  <fix>3d</fix>
</trkpt>
<trkpt lat="40.072938" lon="-105.2308487">
  <ele>1595.46</ele>
  <time>2026-08-28T19:11:30Z</time>
  <course>337.91</course>
  <speed>0.04</speed>
  <fix>3d</fix>
</trkpt>
<trkpt lat="40.072938" lon="-105.2308485">
  <ele>1595.57</ele>
  <time>2026-08-28T19:11:30Z</time>
  <course>27.01</course>
  <speed>0.01</speed>
  <fix>3d</fix>
</trkpt>
<trkpt lat="40.0729381" lon="-105.2308487">
  <ele>1595.46</ele>
  <time>2026-08-28T19:11:30Z</time>
  <course>338.07</course>
  <speed>0.04</speed>
  <fix>3d</fix>
</trkpt>
<trkpt lat="40.072938" lon="-105.2308485">
  <ele>1595.57</ele>
  <time>2026-08-28T19:11:30Z</time>
  <course>28.13</course>
  <speed>0.01</speed>
  <fix>3d</fix>
</trkpt>
<trkpt lat="40.0729382" lon="-105.2308487">
  <ele>1595.46</ele>
  <time>2026-08-28T19:11:30Z</time>
  <course>339.8</course>
  <speed>0.04</speed>
  <fix>3d</fix>
</trkpt>
<trkpt lat="40.0729381" lon="-105.2308486">
  <ele>1595.57</ele>
  <time>2026-08-28T19:11:30Z</time>
  <course>28.91</course>
  <speed>0.01</speed>
  <fix>3d</fix>
</trkpt>
<trkpt lat="40.0729382" lon="-105.2308487">
  <ele>1595.46</ele>
  <time>2026-08-28T19:11:30Z</time>
  <course>342.55</course>
  <speed>0.03</speed>
  <fix>3d</fix>
</trkpt>
<trkpt lat="40.0729382" lon="-105.2308486">
  <ele>1595.57</ele>
  <time>2026-08-28T19:11:31Z</time>
  <course>29.24</course>
  <speed>0.01</speed>
  <fix>3d</fix>
</trkpt>
<trkpt lat="40.0729383" lon="-105.2308487">
  <ele>1595.46</ele>
  <time>2026-08-28T19:11:31Z</time>
  <course>346.42</course>
  <speed>0.03</speed>
  <fix>3d</fix>
</trkpt>
<trkpt lat="40.0729382" lon="-105.2308486">
  <ele>1595.57</ele>
  <time>2026-08-28T19:11:31Z</time>
  <course>29.1</course>
  <speed>0.01</speed>
  <fix>3d</fix>
</trkpt>
<trkpt lat="40.0729384" lon="-105.2308487">
  <ele>1595.46</ele>
  <time>2026-08-28T19:11:31Z</time>
  <course>351.24</course>
  <speed>0.03</speed>
  <fix>3d</fix>
</trkpt>
<trkpt lat="40.0729383" lon="-105.2308486">
  <ele>1595.57</ele>
  <time>2026-08-28T19:11:31Z</time>
  <course>28.51</course>
  <speed>0.01414213562373095</speed>
  <fix>3d</fix>
</trkpt>
<trkpt lat="40.0729385" lon="-105.2308487">
  <ele>1595.46</ele>
  <time>2026-08-28T19:11:31Z</time>
  <course>355.68</course>
  <speed>0.03</speed>
  <fix>3d</fix>
</trkpt>
<trkpt lat="40.0729383" lon="-105.2308486">
  <ele>1595.57</ele>
  <time>2026-08-28T19:11:31Z</time>
  <course>27.5</course>
  <speed>0.01414213562373095</speed>
  <fix>3d</fix>
</trkpt>
<trkpt lat="40.0729385" lon="-105.2308487">
  <ele>1595.46</ele>
  <time>2026-08-28T19:11:31Z</time>
  <course>359.29</course>
  <speed>0.03</speed>
  <fix>3d</fix>
</trkpt>
<trkpt lat="40.0729384" lon="-105.2308486">
  <ele>1595.57</ele>
  <time>2026-08-28T19:11:31Z</time>
  <course>26.17</course>
  <speed>0.01414213562373095</speed>
  <fix>3d</fix>
</trkpt>
<trkpt lat="40.0729386" lon="-105.2308487">
  <ele>1595.46</ele>
  <time>2026-08-28T19:11:31Z</time>
  <course>2.0</course>
  <speed>0.03</speed>
  <fix>3d</fix>
</trkpt>
<trkpt lat="40.0729385" lon="-105.2308486">
  <ele>1595.57</ele>
  <time>2026-08-28T19:11:31Z</time>
  <course>24.68</course>
  <speed>0.01414213562373095</speed>
  <fix>3d</fix>
</trkpt>
<trkpt lat="40.0729387" lon="-105.2308487">
  <ele>1595.45</ele>
  <time>2026-08-28T19:11:31Z</time>
  <course>3.14</course>
  <speed>0.03</speed>
  <fix>3d</fix>
</trkpt>
<trkpt lat="40.0729386" lon="-105.2308486">
  <ele>1595.56</ele>
  <time>2026-08-28T19:11:31Z</time>
  <course>23.13</course>
  <speed>0.022360679774997897</speed>
  <fix>3d</fix>
</trkpt>
<trkpt lat="40.0729387" lon="-105.2308487">
  <ele>1595.45</ele>
  <time>2026-08-28T19:11:31Z</time>
  <course>3.23</course>
  <speed>0.03</speed>
  <fix>3d</fix>
</trkpt>
<trkpt lat="40.0729386" lon="-105.2308486">
  <ele>1595.56</ele>
  <time>2026-08-28T19:11:31Z</time>
  <course>21.69</course>
  <speed>0.022360679774997897</speed>
  <fix>3d</fix>
</trkpt>
<trkpt lat="40.0729388" lon="-105.2308487">
  <ele>1595.45</ele>
  <time>2026-08-28T19:11:31Z</time>
  <course>2.6</course>
  <speed>0.04</speed>
  <fix>3d</fix>
</trkpt>
<trkpt lat="40.0729387" lon="-105.2308486">
  <ele>1595.56</ele>
  <time>2026-08-28T19:11:31Z</time>
  <course>20.53</course>
  <speed>0.022360679774997897</speed>
  <fix>3d</fix>
</trkpt>
<trkpt lat="40.0729389" lon="-105.2308487">
  <ele>1595.45</ele>
  <time>2026-08-28T19:11:31Z</time>
  <course>0.96</course>
  <speed>0.04</speed>
  <fix>3d</fix>
</trkpt>
<trkpt lat="40.0729388" lon="-105.2308486">
  <ele>1595.56</ele>
  <time>2026-08-28T19:11:31Z</time>
  <course>19.77</course>
  <speed>0.02</speed>
  <fix>3d</fix>
</trkpt>
<trkpt lat="40.072939" lon="-105.2308487">
  <ele>1595.45</ele>
  <time>2026-08-28T19:11:31Z</time>
  <course>358.29</course>
  <speed>0.04</speed>
  <fix>3d</fix>
</trkpt>
<trkpt lat="40.0729389" lon="-105.2308486">
  <ele>1595.56</ele>
  <time>2026-08-28T19:11:31Z</time>
  <course>19.45</course>
  <speed>0.02</speed>
  <fix>3d</fix>
</trkpt>
<trkpt lat="40.072939" lon="-105.2308487">
  <ele>1595.46</ele>
  <time>2026-08-28T19:11:31Z</time>
  <course>355.05</course>
  <speed>0.04</speed>
  <fix>3d</fix>
</trkpt>
<trkpt lat="40.072939" lon="-105.2308486">
  <ele>1595.55</ele>
  <time>2026-08-28T19:11:31Z</time>
  <course>19.59</course>
  <speed>0.02</speed>
  <fix>3d</fix>
</trkpt>
<trkpt lat="40.0729391" lon="-105.2308487">
  <ele>1595.46</ele>
  <time>2026-08-28T19:11:31Z</time>
  <course>351.59</course>
  <speed>0.04</speed>
  <fix>3d</fix>
</trkpt>
<trkpt lat="40.072939" lon="-105.2308486">
  <ele>1595.55</ele>
  <time>2026-08-28T19:11:31Z</time>
  <course>20.18</course>
  <speed>0.02</speed>
  <fix>3d</fix>
</trkpt>
<trkpt lat="40.0729392" lon="-105.2308488">
  <ele>1595.46</ele>
  <time>2026-08-28T19:11:31Z</time>
  <course>347.89</course>
  <speed>0.04</speed>
  <fix>3d</fix>
</trkpt>
<trkpt lat="40.0729391" lon="-105.2308486">
  <ele>1595.56</ele>
  <time>2026-08-28T19:11:31Z</time>
  <course>21.21</course>
  <speed>0.02</speed>
  <fix>3d</fix>
</trkpt>
<trkpt lat="40.0729393" lon="-105.2308489">
  <ele>1595.46</ele>
  <time>2026-08-28T19:11:31Z</time>
  <course>344.38</course>
  <speed>0.04</speed>
  <fix>3d</fix>
</trkpt>
<trkpt lat="40.0729392" lon="-105.2308487">
  <ele>1595.56</ele>
  <time>2026-08-28T19:11:31Z</time>
  <course>22.52</course>
  <speed>0.02</speed>
  <fix>3d</fix>
</trkpt>
<trkpt lat="40.0729393" lon="-105.2308489">
  <ele>1595.46</ele>
  <time>2026-08-28T19:11:31Z</time>
  <course>341.75</course>
  <speed>0.04</speed>
  <fix>3d</fix>
</trkpt>
<trkpt lat="40.0729393" lon="-105.2308487">
  <ele>1595.56</ele>
  <time>2026-08-28T19:11:31Z</time>
  <course>24.01</course>
  <speed>0.02</speed>
  <fix>3d</fix>
</trkpt>
<trkpt lat="40.0729394" lon="-105.2308489">
  <ele>1595.47</ele>
  <time>2026-08-28T19:11:31Z</time>
  <course>340.28</course>
  <speed>0.04</speed>
  <fix>3d</fix>
</trkpt>
<trkpt lat="40.0729394" lon="-105.2308487">
  <ele>1595.56</ele>
  <time>2026-08-28T19:11:31Z</time>
  <course>25.56</course>
  <speed>0.02</speed>
  <fix>3d</fix>
</trkpt>
<trkpt lat="40.0729395" lon="-105.2308489">
  <ele>1595.47</ele>
  <time>2026-08-28T19:11:31Z</time>
  <course>339.38</course>
  <speed>0.04</speed>
  <fix>3d</fix>
</trkpt>
<trkpt lat="40.0729394" lon="-105.2308488">
  <ele>1595.56</ele>
  <time>2026-08-28T19:11:31Z</time>
  <course>26.98</course>
  <speed>0.01</speed>
  <fix>3d</fix>
</trkpt>
<trkpt lat="40.0729396" lon="-105.2308489">
  <ele>1595.47</ele>
  <time>2026-08-28T19:11:31Z</time>
  <course>339.65</course>
  <speed>0.04</speed>
  <fix>3d</fix>
</trkpt>
<trkpt lat="40.0729395" lon="-105.2308488">
  <ele>1595.56</ele>
  <time>2026-08-28T19:11:31Z</time>
  <course>28.12</course>
  <speed>0.01</speed>
  <fix>3d</fix>
</trkpt>
<trkpt lat="40.0729397" lon="-105.230849">
  <ele>1595.47</ele>
  <time>2026-08-28T19:11:31Z</time>
  <course>341.64</course>
  <speed>0.04</speed>
  <fix>3d</fix>
</trkpt>
<trkpt lat="40.0729396" lon="-105.2308488">
  <ele>1595.57</ele>
  <time>2026-08-28T19:11:31Z</time>
  <course>28.91</course>
  <speed>0.01</speed>
  <fix>3d</fix>
</trkpt>
<trkpt lat="40.0729397" lon="-105.2308491">
  <ele>1595.47</ele>
  <time>2026-08-28T19:11:31Z</time>
  <course>344.44</course>
  <speed>0.03</speed>
  <fix>3d</fix>
</trkpt>
<trkpt lat="40.0729396" lon="-105.2308489">
  <ele>1595.57</ele>
  <time>2026-08-28T19:11:31Z</time>
  <course>29.26</course>
  <speed>0.01</speed>
  <fix>3d</fix>
</trkpt>
<trkpt lat="40.0729398" lon="-105.2308491">
  <ele>1595.48</ele>
  <time>2026-08-28T19:11:31Z</time>
  <course>348.19</course>
  <speed>0.03</speed>
  <fix>3d</fix>
</trkpt>
<trkpt lat="40.0729397" lon="-105.2308489">
  <ele>1595.57</ele>
  <time>2026-08-28T19:11:31Z</time>
  <course>29.1</course>
  <speed>0.01</speed>
  <fix>3d</fix>
</trkpt>
<trkpt lat="40.0729399" lon="-105.2308491">
  <ele>1595.48</ele>
  <time>2026-08-28T19:11:31Z</time>
  <course>352.5</course>
  <speed>0.03</speed>
  <fix>3d</fix>
</trkpt>
<trkpt lat="40.0729398" lon="-105.2308489">
  <ele>1595.56</ele>
  <time>2026-08-28T19:11:31Z</time>
  <course>28.47</course>
  <speed>0.01414213562373095</speed>
  <fix>3d</fix>
</trkpt>
<trkpt lat="40.0729399" lon="-105.2308491">
  <ele>1595.48</ele>
  <time>2026-08-28T19:11:31Z</time>
  <course>356.16</course>
  <speed>0.03</speed>
  <fix>3d</fix>
</trkpt>
<trkpt lat="40.0729398" lon="-105.2308489">
  <ele>1595.56</ele>
  <time>2026-08-28T19:11:31Z</time>
  <course>27.45</course>
  <speed>0.01414213562373095</speed>
  <fix>3d</fix>
</trkpt>
<trkpt lat="40.07294" lon="-105.2308491">
  <ele>1595.48</ele>
  <time>2026-08-28T19:11:31Z</time>
  <course>358.8</course>
  <speed>0.03</speed>
  <fix>3d</fix>
</trkpt>
<trkpt lat="40.0729399" lon="-105.2308489">
  <ele>1595.57</ele>
  <time>2026-08-28T19:11:31Z</time>
  <course>26.1</course>
  <speed>0.01414213562373095</speed>
  <fix>3d</fix>
</trkpt>
<trkpt lat="40.07294" lon="-105.2308491">
  <ele>1595.48</ele>
  <time>2026-08-28T19:11:31Z</time>
  <course>1.22</course>
  <speed>0.03</speed>
  <fix>3d</fix>
</trkpt>
<trkpt lat="40.07294" lon="-105.2308489">
  <ele>1595.57</ele>
  <time>2026-08-28T19:11:31Z</time>
  <course>24.63</course>
  <speed>0.01414213562373095</speed>
  <fix>3d</fix>
</trkpt>
<trkpt lat="40.0729401" lon="-105.2308491">
  <ele>1595.48</ele>
  <time>2026-08-28T19:11:31Z</time>
  <course>3.0</course>
  <speed>0.03</speed>
  <fix>3d</fix>
</trkpt>
<trkpt lat="40.07294" lon="-105.2308489">
  <ele>1595.56</ele>
  <time>2026-08-28T19:11:31Z</time>
  <course>23.1</course>
  <speed>0.01414213562373095</speed>
  <fix>3d</fix>
</trkpt>
<trkpt lat="40.0729402" lon="-105.2308491">
  <ele>1595.48</ele>
  <time>2026-08-28T19:11:31Z</time>
  <course>3.39</course>
  <speed>0.03</speed>
  <fix>3d</fix>
</trkpt>
<trkpt lat="40.0729401" lon="-105.2308489">
  <ele>1595.56</ele>
  <time>2026-08-28T19:11:31Z</time>
  <course>21.69</course>
  <speed>0.022360679774997897</speed>
  <fix>3d</fix>
</trkpt>
<trkpt lat="40.0729403" lon="-105.2308491">
  <ele>1595.48</ele>
  <time>2026-08-28T19:11:31Z</time>
  <course>2.73</course>
  <speed>0.04</speed>
  <fix>3d</fix>
</trkpt>
<trkpt lat="40.0729402" lon="-105.2308489">
  <ele>1595.56</ele>
  <time>2026-08-28T19:11:31Z</time>
  <course>20.54</course>
  <speed>0.022360679774997897</speed>
  <fix>3d</fix>
</trkpt>
<trkpt lat="40.0729404" lon="-105.2308491">
  <ele>1595.48</ele>
  <time>2026-08-28T19:11:31Z</time>
  <course>0.98</course>
  <speed>0.04</speed>
  <fix>3d</fix>
</trkpt>
<trkpt lat="40.0729403" lon="-105.2308489">
  <ele>1595.56</ele>
  <time>2026-08-28T19:11:31Z</time>
  <course>19.77</course>
  <speed>0.02</speed>
  <fix>3d</fix>
</trkpt>
<trkpt lat="40.0729404" lon="-105.2308491">
  <ele>1595.49</ele>
  <time>2026-08-28T19:11:31Z</time>
  <course>358.58</course>
  <speed>0.04</speed>
  <fix>3d</fix>
</trkpt>
<trkpt lat="40.0729403" lon="-105.2308489">
  <ele>1595.56</ele>
  <time>2026-08-28T19:11:31Z</time>
  <course>19.44</course>
  <speed>0.02</speed>
  <fix>3d</fix>
</trkpt>
<trkpt lat="40.0729405" lon="-105.2308491">
  <ele>1595.49</ele>
  <time>2026-08-28T19:11:31Z</time>
  <course>355.31</course>
  <speed>0.04</speed>
  <fix>3d</fix>
</trkpt>
<trkpt lat="40.0729404" lon="-105.2308489">
  <ele>1595.57</ele>
  <time>2026-08-28T19:11:31Z</time>
  <course>19.42</course>
  <speed>0.02</speed>
  <fix>3d</fix>
</trkpt>
<trkpt lat="40.0729406" lon="-105.2308491">
  <ele>1595.49</ele>
  <time>2026-08-28T19:11:31Z</time>
  <course>352.0</course>
  <speed>0.04</speed>
  <fix>3d</fix>
</trkpt>
<trkpt lat="40.0729405" lon="-105.230849">
  <ele>1595.57</ele>
  <time>2026-08-28T19:11:31Z</time>
  <course>19.43</course>
  <speed>0.02</speed>
  <fix>3d</fix>
</trkpt>
<trkpt lat="40.0729407" lon="-105.2308491">
  <ele>1595.49</ele>
  <time>2026-08-28T19:11:31Z</time>
  <course>351.34</course>
  <speed>0.04</speed>
  <fix>3d</fix>
</trkpt>
<trkpt lat="40.0729406" lon="-105.230849">
  <ele>1595.58</ele>
  <time>2026-08-28T19:11:31Z</time>
  <course>19.43</course>
  <speed>0.03</speed>
  <fix>3d</fix>
</trkpt>
<trkpt lat="40.0729408" lon="-105.2308491">
  <ele>1595.5</ele>
  <time>2026-08-28T19:11:31Z</time>
  <course>353.05</course>
  <speed>0.05</speed>
  <fix>3d</fix>
</trkpt>
<trkpt lat="40.0729407" lon="-105.230849">
  <ele>1595.58</ele>
  <time>2026-08-28T19:11:31Z</time>
  <course>19.43</course>
  <speed>0.03</speed>
  <fix>3d</fix>
</trkpt>
<trkpt lat="40.0729408" lon="-105.2308492">
  <ele>1595.5</ele>
  <time>2026-08-28T19:11:31Z</time>
  <course>354.88</course>
  <speed>0.05</speed>
  <fix>3d</fix>
</trkpt>
<trkpt lat="40.0729408" lon="-105.230849">
  <ele>1595.58</ele>
  <time>2026-08-28T19:11:31Z</time>
  <course>19.45</course>
  <speed>0.04</speed>
  <fix>3d</fix>
</trkpt>
<trkpt lat="40.0729409" lon="-105.2308492">
  <ele>1595.5</ele>
  <time>2026-08-28T19:11:31Z</time>
  <course>355.98</course>
  <speed>0.05</speed>
  <fix>3d</fix>
</trkpt>
<trkpt lat="40.0729409" lon="-105.230849">
  <ele>1595.58</ele>
  <time>2026-08-28T19:11:31Z</time>
  <course>19.46</course>
  <speed>0.04</speed>
  <fix>3d</fix>
</trkpt>
<trkpt lat="40.072941" lon="-105.2308492">
  <ele>1595.5</ele>
  <time>2026-08-28T19:11:31Z</time>
  <course>356.7</course>
  <speed>0.06</speed>
  <fix>3d</fix>
</trkpt>
<trkpt lat="40.072941" lon="-105.230849">
  <ele>1595.58</ele>
  <time>2026-08-28T19:11:31Z</time>
  <course>19.45</course>
  <speed>0.04</speed>
  <fix>3d</fix>
</trkpt>
<trkpt lat="40.0729412" lon="-105.2308492">
  <ele>1595.49</ele>
  <time>2026-08-28T19:11:31Z</time>
  <course>357.61</course>
  <speed>0.06</speed>
  <fix>3d</fix>
</trkpt>
<trkpt lat="40.0729412" lon="-105.230849">
  <ele>1595.58</ele>
  <time>2026-08-28T19:11:31Z</time>
  <course>19.45</course>
  <speed>0.05</speed>
  <fix>3d</fix>
</trkpt>
<trkpt lat="40.0729413" lon="-105.2308492">
  <ele>1595.49</ele>
  <time>2026-08-28T19:11:31Z</time>
  <course>358.55</course>
  <speed>0.06</speed>
  <fix>3d</fix>
</trkpt>
<trkpt lat="40.0729413" lon="-105.230849">
  <ele>1595.58</ele>
  <time>2026-08-28T19:11:31Z</time>
  <course>19.45</course>
  <speed>0.05099019513592785</speed>
  <fix>3d</fix>
</trkpt>
<trkpt lat="40.0729414" lon="-105.2308492">
  <ele>1595.49</ele>
  <time>2026-08-28T19:11:31Z</time>
  <course>359.35</course>
  <speed>0.07</speed>
  <fix>3d</fix>
</trkpt>
<trkpt lat="40.0729414" lon="-105.230849">
  <ele>1595.58</ele>
  <time>2026-08-28T19:11:31Z</time>
  <course>19.45</course>
  <speed>0.05099019513592785</speed>
  <fix>3d</fix>
</trkpt>
<trkpt lat="40.0729416" lon="-105.2308492">
  <ele>1595.49</ele>
  <time>2026-08-28T19:11:31Z</time>
  <course>359.93</course>
  <speed>0.07</speed>
  <fix>3d</fix>
</trkpt>
<trkpt lat="40.0729416" lon="-105.230849">
  <ele>1595.58</ele>
  <time>2026-08-28T19:11:31Z</time>
  <course>19.45</course>
  <speed>0.05099019513592785</speed>
  <fix>3d</fix>
</trkpt>
<trkpt lat="40.0729417" lon="-105.2308492">
  <ele>1595.49</ele>
  <time>2026-08-28T19:11:31Z</time>
  <course>0.28</course>
  <speed>0.07</speed>
  <fix>3d</fix>
</trkpt>
<trkpt lat="40.0729417" lon="-105.230849">
  <ele>1595.58</ele>
  <time>2026-08-28T19:11:31Z</time>
  <course>19.44</course>
  <speed>0.06082762530298219</speed>
  <fix>3d</fix>
</trkpt>
<trkpt lat="40.0729418" lon="-105.2308492">
  <ele>1595.48</ele>
  <time>2026-08-28T19:11:31Z</time>
  <course>0.88</course>
  <speed>0.08</speed>
  <fix>3d</fix>
</trkpt>
<trkpt lat="40.0729419" lon="-105.230849">
  <ele>1595.58</ele>
  <time>2026-08-28T19:11:31Z</time>
  <course>19.46</course>
  <speed>0.06082762530298219</speed>
  <fix>3d</fix>
</trkpt>
<trkpt lat="40.072942" lon="-105.2308492">
  <ele>1595.48</ele>
  <time>2026-08-28T19:11:31Z</time>
  <course>1.41</course>
  <speed>0.08</speed>
  <fix>3d</fix>
</trkpt>
<trkpt lat="40.072942" lon="-105.230849">
  <ele>1595.57</ele>
  <time>2026-08-28T19:11:31Z</time>
  <course>19.45</course>
  <speed>0.06082762530298219</speed>
  <fix>3d</fix>
</trkpt>
<trkpt lat="40.0729422" lon="-105.2308492">
  <ele>1595.48</ele>
  <time>2026-08-28T19:11:31Z</time>
  <course>1.79</course>
  <speed>0.08</speed>
  <fix>3d</fix>
</trkpt>
<trkpt lat="40.0729422" lon="-105.230849">
  <ele>1595.57</ele>
  <time>2026-08-28T19:11:31Z</time>
  <course>19.43</course>
  <speed>0.07071067811865475</speed>
  <fix>3d</fix>
</trkpt>
<trkpt lat="40.0729423" lon="-105.2308492">
  <ele>1595.48</ele>
  <time>2026-08-28T19:11:31Z</time>
  <course>2.36</course>
  <speed>0.09</speed>
  <fix>3d</fix>
</trkpt>
<trkpt lat="40.0729424" lon="-105.230849">
  <ele>1595.57</ele>
  <time>2026-08-28T19:11:31Z</time>
  <course>19.43</course>
  <speed>0.07071067811865475</speed>
  <fix>3d</fix>
</trkpt>
<trkpt lat="40.0729424" lon="-105.2308492">
  <ele>1595.48</ele>
  <time>2026-08-28T19:11:31Z</time>
  <course>2.85</course>
  <speed>0.09</speed>
  <fix>3d</fix>
</trkpt>
<trkpt lat="40.0729425" lon="-105.230849">
  <ele>1595.57</ele>
  <time>2026-08-28T19:11:31Z</time>
  <course>19.37</course>
  <speed>0.07071067811865475</speed>
  <fix>3d</fix>
</trkpt>
<trkpt lat="40.0729427" lon="-105.2308492">
  <ele>1595.48</ele>
  <time>2026-08-28T19:11:31Z</time>
  <course>3.39</course>
  <speed>0.09</speed>
  <fix>3d</fix>
</trkpt>
<trkpt lat="40.0729427" lon="-105.230849">
  <ele>1595.58</ele>
  <time>2026-08-28T19:11:31Z</time>
  <course>18.51</course>
  <speed>0.07280109889280519</speed>
  <fix>3d</fix>
</trkpt>
<trkpt lat="40.0729428" lon="-105.2308492">
  <ele>1595.48</ele>
  <time>2026-08-28T19:11:31Z</time>
  <course>5.02</course>
  <speed>0.09</speed>
  <fix>3d</fix>
</trkpt>
<trkpt lat="40.0729429" lon="-105.230849">
  <ele>1595.57</ele>
  <time>2026-08-28T19:11:31Z</time>
  <course>17.19</course>
  <speed>0.07280109889280519</speed>
  <fix>3d</fix>
</trkpt>
<trkpt lat="40.0729429" lon="-105.2308492">
  <ele>1595.47</ele>
  <time>2026-08-28T19:11:31Z</time>
  <course>6.42</course>
  <speed>0.09</speed>
  <fix>3d</fix>
</trkpt>
<trkpt lat="40.072943" lon="-105.230849">
  <ele>1595.57</ele>
  <time>2026-08-28T19:11:31Z</time>
  <course>15.95</course>
  <speed>0.06082762530298219</speed>
  <fix>3d</fix>
</trkpt>
<trkpt lat="40.0729432" lon="-105.2308492">
  <ele>1595.47</ele>
  <time>2026-08-28T19:11:31Z</time>
  <course>6.17</course>
  <speed>0.09</speed>
  <fix>3d</fix>
</trkpt>
<trkpt lat="40.0729432" lon="-105.230849">
  <ele>1595.56</ele>
  <time>2026-08-28T19:11:31Z</time>
  <course>15.05</course>
  <speed>0.06082762530298219</speed>
  <fix>3d</fix>
</trkpt>
<trkpt lat="40.0729433" lon="-105.2308492">
  <ele>1595.47</ele>
  <time>2026-08-28T19:11:31Z</time>
  <course>4.91</course>
  <speed>0.08</speed>
  <fix>3d</fix>
</trkpt>
<trkpt lat="40.0729433" lon="-105.230849">
  <ele>1595.55</ele>
  <time>2026-08-28T19:11:31Z</time>
  <course>14.57</course>
  <speed>0.05099019513592785</speed>
  <fix>3d</fix>
</trkpt>
<trkpt lat="40.0729434" lon="-105.2308492">
  <ele>1595.47</ele>
  <time>2026-08-28T19:11:31Z</time>
  <course>2.93</course>
  <speed>0.07</speed>
  <fix>3d</fix>
</trkpt>
<trkpt lat="40.0729435" lon="-105.230849">
  <ele>1595.54</ele>
  <time>2026-08-28T19:11:31Z</time>
  <course>14.52</course>
  <speed>0.04</speed>
  <fix>3d</fix>
</trkpt>
<trkpt lat="40.0729436" lon="-105.2308492">
  <ele>1595.47</ele>
  <time>2026-08-28T19:11:31Z</time>
  <course>0.3</course>
  <speed>0.07</speed>
  <fix>3d</fix>
</trkpt>
<trkpt lat="40.0729436" lon="-105.230849">
  <ele>1595.55</ele>
  <time>2026-08-28T19:11:31Z</time>
  <course>14.99</course>
  <speed>0.03</speed>
  <fix>3d</fix>
</trkpt>
<trkpt lat="40.0729437" lon="-105.2308492">
  <ele>1595.47</ele>
  <time>2026-08-28T19:11:31Z</time>
  <course>356.49</course>
  <speed>0.06</speed>
  <fix>3d</fix>
</trkpt>
<trkpt lat="40.0729437" lon="-105.230849">
  <ele>1595.55</ele>
  <time>2026-08-28T19:11:31Z</time>
  <course>15.93</course>
  <speed>0.03</speed>
  <fix>3d</fix>
</trkpt>
<trkpt lat="40.0729438" lon="-105.2308492">
  <ele>1595.47</ele>
  <time>2026-08-28T19:11:31Z</time>
  <course>351.97</course>
  <speed>0.05</speed>
  <fix>3d</fix>
</trkpt>
<trkpt lat="40.0729438" lon="-105.230849">
  <ele>1595.56</ele>
  <time>2026-08-28T19:11:31Z</time>
  <course>17.17</course>
  <speed>0.02</speed>
  <fix>3d</fix>
</trkpt>
<trkpt lat="40.0729439" lon="-105.2308492">
  <ele>1595.48</ele>
  <time>2026-08-28T19:11:31Z</time>
  <course>347.2</course>
  <speed>0.05</speed>
  <fix>3d</fix>
</trkpt>
<trkpt lat="40.0729438" lon="-105.2308491">
  <ele>1595.56</ele>
  <time>2026-08-28T19:11:31Z</time>
  <course>18.65</course>
  <speed>0.02</speed>
  <fix>3d</fix>
</trkpt>
<trkpt lat="40.072944" lon="-105.2308492">
  <ele>1595.48</ele>
  <time>2026-08-28T19:11:31Z</time>
  <course>342.2</course>
  <speed>0.04</speed>
  <fix>3d</fix>
</trkpt>
<trkpt lat="40.0729439" lon="-105.2308491">
  <ele>1595.56</ele>
  <time>2026-08-28T19:11:31Z</time>
  <course>20.21</course>
  <speed>0.01</speed>
  <fix>3d</fix>
</trkpt>
<trkpt lat="40.0729441" lon="-105.2308492">
  <ele>1595.49</ele>
  <time>2026-08-28T19:11:31Z</time>
  <course>338.34</course>
  <speed>0.04</speed>
  <fix>3d</fix>
</trkpt>
<trkpt lat="40.072944" lon="-105.2308491">
  <ele>1595.56</ele>
  <time>2026-08-28T19:11:31Z</time>
  <course>21.64</course>
  <speed>0.01</speed>
  <fix>3d</fix>
</trkpt>
<trkpt lat="40.0729441" lon="-105.2308492">
  <ele>1595.49</ele>
  <time>2026-08-28T19:11:31Z</time>
  <course>337.09</course>
  <speed>0.03</speed>
  <fix>3d</fix>
</trkpt>
<trkpt lat="40.072944" lon="-105.2308492">
  <ele>1595.57</ele>
  <time>2026-08-28T19:11:31Z</time>
  <course>22.88</course>
  <speed>0.01</speed>
  <fix>3d</fix>
</trkpt>
<trkpt lat="40.0729442" lon="-105.2308492">
  <ele>1595.5</ele>
  <time>2026-08-28T19:11:31Z</time>
  <course>337.37</course>
  <speed>0.03</speed>
  <fix>3d</fix>
</trkpt>
<trkpt lat="40.0729441" lon="-105.2308492">
  <ele>1595.57</ele>
  <time>2026-08-28T19:11:31Z</time>
  <course>23.81</course>
  <speed>0.01</speed>
  <fix>3d</fix>
</trkpt>
<trkpt lat="40.0729442" lon="-105.2308492">
  <ele>1595.5</ele>
  <time>2026-08-28T19:11:31Z</time>
  <course>338.77</course>
  <speed>0.03</speed>
  <fix>3d</fix>
</trkpt>
<trkpt lat="40.0729441" lon="-105.2308492">
  <ele>1595.57</ele>
  <time>2026-08-28T19:11:31Z</time>
  <course>24.29</course>
  <speed>0.01</speed>
  <fix>3d</fix>
</trkpt>
<trkpt lat="40.0729443" lon="-105.2308492">
  <ele>1595.5</ele>
  <time>2026-08-28T19:11:31Z</time>
  <course>342.35</course>
  <speed>0.03</speed>
  <fix>3d</fix>
</trkpt>
<trkpt lat="40.0729442" lon="-105.2308492">
  <ele>1595.57</ele>
  <time>2026-08-28T19:11:31Z</time>
  <course>24.27</course>
  <speed>0.01</speed>
  <fix>3d</fix>
</trkpt>
<trkpt lat="40.0729444" lon="-105.2308492">
  <ele>1595.5</ele>
  <time>2026-08-28T19:11:31Z</time>
  <course>346.85</course>
  <speed>0.03</speed>
  <fix>3d</fix>
</trkpt>
<trkpt lat="40.0729443" lon="-105.2308492">
  <ele>1595.57</ele>
  <time>2026-08-28T19:11:31Z</time>
  <course>23.79</course>
  <speed>0.01414213562373095</speed>
  <fix>3d</fix>
</trkpt>
<trkpt lat="40.0729444" lon="-105.2308492">
  <ele>1595.5</ele>
  <time>2026-08-28T19:11:31Z</time>
  <course>351.05</course>
  <speed>0.03</speed>
  <fix>3d</fix>
</trkpt>
<trkpt lat="40.0729443" lon="-105.2308492">
  <ele>1595.58</ele>
  <time>2026-08-28T19:11:31Z</time>
  <course>22.87</course>
  <speed>0.01414213562373095</speed>
  <fix>3d</fix>
</trkpt>
<trkpt lat="40.0729445" lon="-105.2308492">
  <ele>1595.5</ele>
  <time>2026-08-28T19:11:31Z</time>
  <course>354.58</course>
  <speed>0.03</speed>
  <fix>3d</fix>
</trkpt>
<trkpt lat="40.0729444" lon="-105.2308492">
  <ele>1595.58</ele>
  <time>2026-08-28T19:11:31Z</time>
  <course>21.61</course>
  <speed>0.01414213562373095</speed>
  <fix>3d</fix>
</trkpt>
<trkpt lat="40.0729446" lon="-105.2308492">
  <ele>1595.51</ele>
  <time>2026-08-28T19:11:31Z</time>
  <course>356.64</course>
  <speed>0.03</speed>
  <fix>3d</fix>
</trkpt>
<trkpt lat="40.0729445" lon="-105.2308492">
  <ele>1595.58</ele>
  <time>2026-08-28T19:11:31Z</time>
  <course>20.17</course>
  <speed>0.01414213562373095</speed>
  <fix>3d</fix>
</trkpt>
<trkpt lat="40.0729446" lon="-105.2308492">
  <ele>1595.51</ele>
  <time>2026-08-28T19:11:31Z</time>
  <course>356.82</course>
  <speed>0.03</speed>
  <fix>3d</fix>
</trkpt>
<trkpt lat="40.0729445" lon="-105.2308492">
  <ele>1595.58</ele>
  <time>2026-08-28T19:11:31Z</time>
  <course>18.67</course>
  <speed>0.01414213562373095</speed>
  <fix>3d</fix>
</trkpt>
<trkpt lat="40.0729447" lon="-105.2308493">
  <ele>1595.5</ele>
  <time>2026-08-28T19:11:31Z</time>
  <course>355.62</course>
  <speed>0.03</speed>
  <fix>3d</fix>
</trkpt>
<trkpt lat="40.0729446" lon="-105.2308492">
  <ele>1595.58</ele>
  <time>2026-08-28T19:11:31Z</time>
  <course>17.21</course>
  <speed>0.022360679774997897</speed>
  <fix>3d</fix>
</trkpt>
<trkpt lat="40.0729447" lon="-105.2308494">
  <ele>1595.5</ele>
  <time>2026-08-28T19:11:31Z</time>
  <course>353.69</course>
  <speed>0.03</speed>
  <fix>3d</fix>
</trkpt>
<trkpt lat="40.0729447" lon="-105.2308492">
  <ele>1595.58</ele>
  <time>2026-08-28T19:11:31Z</time>
  <course>15.96</course>
  <speed>0.02</speed>
  <fix>3d</fix>
</trkpt>
<trkpt lat="40.0729448" lon="-105.2308494">
  <ele>1595.5</ele>
  <time>2026-08-28T19:11:31Z</time>
  <course>351.14</course>
  <speed>0.04</speed>
  <fix>3d</fix>
</trkpt>
<trkpt lat="40.0729447" lon="-105.2308492">
  <ele>1595.58</ele>
  <time>2026-08-28T19:11:31Z</time>
  <course>15.07</course>
  <speed>0.02</speed>
  <fix>3d</fix>
</trkpt>
<trkpt lat="40.0729449" lon="-105.2308494">
  <ele>1595.5</ele>
  <time>2026-08-28T19:11:31Z</time>
  <course>347.67</course>
  <speed>0.04</speed>
  <fix>3d</fix>
</trkpt>
<trkpt lat="40.0729448" lon="-105.2308492">
  <ele>1595.58</ele>
  <time>2026-08-28T19:11:31Z</time>
  <course>14.59</course>
  <speed>0.02</speed>
  <fix>3d</fix>
</trkpt>
<trkpt lat="40.072945" lon="-105.2308494">
  <ele>1595.5</ele>
  <time>2026-08-28T19:11:31Z</time>
  <course>343.94</course>
  <speed>0.04</speed>
  <fix>3d</fix>
</trkpt>
<trkpt lat="40.0729449" lon="-105.2308492">
  <ele>1595.58</ele>
  <time>2026-08-28T19:11:31Z</time>
  <course>14.61</course>
  <speed>0.02</speed>
  <fix>3d</fix>
</trkpt>
<trkpt lat="40.0729451" lon="-105.2308494">
  <ele>1595.49</ele>
  <time>2026-08-28T19:11:31Z</time>
  <course>340.57</course>
  <speed>0.04</speed>
  <fix>3d</fix>
</trkpt>
<trkpt lat="40.072945" lon="-105.2308493">
  <ele>1595.58</ele>
  <time>2026-08-28T19:11:31Z</time>
  <course>15.1</course>
  <speed>0.02</speed>
  <fix>3d</fix>
</trkpt>
<trkpt lat="40.0729451" lon="-105.2308494">
  <ele>1595.49</ele>
  <time>2026-08-28T19:11:31Z</time>
  <course>337.8</course>
  <speed>0.04</speed>
  <fix>3d</fix>
</trkpt>
<trkpt lat="40.0729451" lon="-105.2308493">
  <ele>1595.58</ele>
  <time>2026-08-28T19:11:31Z</time>
  <course>16.01</course>
  <speed>0.02</speed>
  <fix>3d</fix>
</trkpt>
<trkpt lat="40.0729452" lon="-105.2308495">
  <ele>1595.49</ele>
  <time>2026-08-28T19:11:31Z</time>
  <course>335.4</course>
  <speed>0.04</speed>
  <fix>3d</fix>
</trkpt>
<trkpt lat="40.0729451" lon="-105.2308494">
  <ele>1595.58</ele>
  <time>2026-08-28T19:11:31Z</time>
  <course>17.25</course>
  <speed>0.02</speed>
  <fix>3d</fix>
</trkpt>
<trkpt lat="40.0729453" lon="-105.2308496">
  <ele>1595.49</ele>
  <time>2026-08-28T19:11:31Z</time>
  <course>333.29</course>
  <speed>0.04</speed>
  <fix>3d</fix>
</trkpt>
<trkpt lat="40.0729452" lon="-105.2308494">
  <ele>1595.58</ele>
  <time>2026-08-28T19:11:31Z</time>
  <course>18.73</course>
  <speed>0.02</speed>
  <fix>3d</fix>
</trkpt>
<trkpt lat="40.0729453" lon="-105.2308496">
  <ele>1595.48</ele>
  <time>2026-08-28T19:11:31Z</time>
  <course>332.07</course>
  <speed>0.04</speed>
  <fix>3d</fix>
</trkpt>
<trkpt lat="40.0729453" lon="-105.2308495">
  <ele>1595.58</ele>
  <time>2026-08-28T19:11:31Z</time>
  <course>20.25</course>
  <speed>0.02</speed>
  <fix>3d</fix>
</trkpt>
<trkpt lat="40.0729454" lon="-105.2308496">
  <ele>1595.48</ele>
  <time>2026-08-28T19:11:31Z</time>
  <course>331.63</course>
  <speed>0.04</speed>
  <fix>3d</fix>
</trkpt>
<trkpt lat="40.0729453" lon="-105.2308495">
  <ele>1595.58</ele>
  <time>2026-08-28T19:11:31Z</time>
  <course>21.7</course>
  <speed>0.01</speed>
  <fix>3d</fix>
</trkpt>
<trkpt lat="40.0729455" lon="-105.2308497">
  <ele>1595.48</ele>
  <time>2026-08-28T19:11:31Z</time>
  <course>332.21</course>
  <speed>0.04</speed>
  <fix>3d</fix>
</trkpt>
<trkpt lat="40.0729454" lon="-105.2308496">
  <ele>1595.58</ele>
  <time>2026-08-28T19:11:31Z</time>
  <course>22.96</course>
  <speed>0.01</speed>
  <fix>3d</fix>
</trkpt>
<trkpt lat="40.0729456" lon="-105.2308498">
  <ele>1595.48</ele>
  <time>2026-08-28T19:11:31Z</time>
  <course>333.75</course>
  <speed>0.04</speed>
  <fix>3d</fix>
</trkpt>
<trkpt lat="40.0729455" lon="-105.2308496">
  <ele>1595.57</ele>
  <time>2026-08-28T19:11:31Z</time>
  <course>23.85</course>
  <speed>0.01</speed>
  <fix>3d</fix>
</trkpt>
<trkpt lat="40.0729457" lon="-105.2308498">
  <ele>1595.48</ele>
  <time>2026-08-28T19:11:31Z</time>
  <course>335.9</course>
  <speed>0.04</speed>
  <fix>3d</fix>
</trkpt>
<trkpt lat="40.0729456" lon="-105.2308496">
  <ele>1595.57</ele>
  <time>2026-08-28T19:11:31Z</time>
  <course>24.29</course>
  <speed>0.01</speed>
  <fix>3d</fix>
</trkpt>
<trkpt lat="40.0729457" lon="-105.2308498">
  <ele>1595.47</ele>
  <time>2026-08-28T19:11:31Z</time>
  <course>339.11</course>
  <speed>0.04</speed>
  <fix>3d</fix>
</trkpt>
<trkpt lat="40.0729456" lon="-105.2308497">
  <ele>1595.56</ele>
  <time>2026-08-28T19:11:31Z</time>
  <course>24.27</course>
  <speed>0.01</speed>
  <fix>3d</fix>
</trkpt>
<trkpt lat="40.0729458" lon="-105.2308499">
  <ele>1595.47</ele>
  <time>2026-08-28T19:11:31Z</time>
  <course>343.25</course>
  <speed>0.03</speed>
  <fix>3d</fix>
</trkpt>
<trkpt lat="40.0729457" lon="-105.2308497">
  <ele>1595.56</ele>
  <time>2026-08-28T19:11:31Z</time>
  <course>23.79</course>
  <speed>0.01</speed>
  <fix>3d</fix>
</trkpt>
<trkpt lat="40.0729459" lon="-105.2308499">
  <ele>1595.47</ele>
  <time>2026-08-28T19:11:31Z</time>
  <course>347.4</course>
  <speed>0.03</speed>
  <fix>3d</fix>
</trkpt>
<trkpt lat="40.0729458" lon="-105.2308497">
  <ele>1595.56</ele>
  <time>2026-08-28T19:11:31Z</time>
  <course>22.87</course>
  <speed>0.01414213562373095</speed>
  <fix>3d</fix>
</trkpt>
<trkpt lat="40.0729459" lon="-105.2308499">
  <ele>1595.47</ele>
  <time>2026-08-28T19:11:31Z</time>
  <course>350.92</course>
  <speed>0.03</speed>
  <fix>3d</fix>
</trkpt>
<trkpt lat="40.0729458" lon="-105.2308497">
  <ele>1595.56</ele>
  <time>2026-08-28T19:11:31Z</time>
  <course>21.62</course>
  <speed>0.01414213562373095</speed>
  <fix>3d</fix>
</trkpt>
<trkpt lat="40.072946" lon="-105.2308499">
  <ele>1595.47</ele>
  <time>2026-08-28T19:11:31Z</time>
  <course>353.44</course>
  <speed>0.03</speed>
  <fix>3d</fix>
</trkpt>
<trkpt lat="40.0729459" lon="-105.2308497">
  <ele>1595.57</ele>
  <time>2026-08-28T19:11:31Z</time>
  <course>20.15</course>
  <speed>0.01414213562373095</speed>
  <fix>3d</fix>
</trkpt>
<trkpt lat="40.072946" lon="-105.2308499">
  <ele>1595.47</ele>
  <time>2026-08-28T19:11:31Z</time>
  <course>355.28</course>
  <speed>0.03</speed>
  <fix>3d</fix>
</trkpt>
<trkpt lat="40.072946" lon="-105.2308497">
  <ele>1595.57</ele>
  <time>2026-08-28T19:11:31Z</time>
  <course>18.64</course>
  <speed>0.022360679774997897</speed>
  <fix>3d</fix>
</trkpt>
<trkpt lat="40.0729461" lon="-105.2308499">
  <ele>1595.47</ele>
  <time>2026-08-28T19:11:31Z</time>
  <course>355.74</course>
  <speed>0.04</speed>
  <fix>3d</fix>
</trkpt>
<trkpt lat="40.072946" lon="-105.2308497">
  <ele>1595.57</ele>
  <time>2026-08-28T19:11:31Z</time>
  <course>17.19</course>
  <speed>0.022360679774997897</speed>
  <fix>3d</fix>
</trkpt>
<trkpt lat="40.0729462" lon="-105.2308499">
  <ele>1595.48</ele>
  <time>2026-08-28T19:11:31Z</time>
  <course>355.28</course>
  <speed>0.04</speed>
  <fix>3d</fix>
</trkpt>
<trkpt lat="40.0729461" lon="-105.2308497">
  <ele>1595.57</ele>
  <time>2026-08-28T19:11:31Z</time>
  <course>15.95</course>
  <speed>0.02</speed>
  <fix>3d</fix>
</trkpt>
<trkpt lat="40.0729463" lon="-105.2308499">
  <ele>1595.47</ele>
  <time>2026-08-28T19:11:31Z</time>
  <course>354.41</course>
  <speed>0.04</speed>
  <fix>3d</fix>
</trkpt>
<trkpt lat="40.0729462" lon="-105.2308497">
  <ele>1595.57</ele>
  <time>2026-08-28T19:11:31Z</time>
  <course>15.05</course>
  <speed>0.02</speed>
  <fix>3d</fix>
</trkpt>
<trkpt lat="40.0729464" lon="-105.2308499">
  <ele>1595.47</ele>
  <time>2026-08-28T19:11:31Z</time>
  <course>352.26</course>
  <speed>0.04</speed>
  <fix>3d</fix>
</trkpt>
<trkpt lat="40.0729463" lon="-105.2308498">
  <ele>1595.57</ele>
  <time>2026-08-28T19:11:31Z</time>
  <course>14.59</course>
  <speed>0.02</speed>
  <fix>3d</fix>
</trkpt>
<trkpt lat="40.0729464" lon="-105.2308499">
  <ele>1595.47</ele>
  <time>2026-08-28T19:11:31Z</time>
  <course>348.82</course>
  <speed>0.04</speed>
  <fix>3d</fix>
</trkpt>
<trkpt lat="40.0729464" lon="-105.2308498">
  <ele>1595.57</ele>
  <time>2026-08-28T19:11:31Z</time>
  <course>14.58</course>
  <speed>0.02</speed>
  <fix>3d</fix>
</trkpt>
<trkpt lat="40.0729465" lon="-105.2308499">
  <ele>1595.47</ele>
  <time>2026-08-28T19:11:31Z</time>
  <course>345.35</course>
  <speed>0.04</speed>
  <fix>3d</fix>
</trkpt>
<trkpt lat="40.0729464" lon="-105.2308498">
  <ele>1595.57</ele>
  <time>2026-08-28T19:11:31Z</time>
  <course>15.06</course>
  <speed>0.02</speed>
  <fix>3d</fix>
</trkpt>
<trkpt lat="40.0729466" lon="-105.23085">
  <ele>1595.47</ele>
  <time>2026-08-28T19:11:31Z</time>
  <course>342.36</course>
  <speed>0.04</speed>
  <fix>3d</fix>
</trkpt>
<trkpt lat="40.0729465" lon="-105.2308499">
  <ele>1595.57</ele>
  <time>2026-08-28T19:11:31Z</time>
  <course>15.98</course>
  <speed>0.02</speed>
  <fix>3d</fix>
</trkpt>
<trkpt lat="40.0729466" lon="-105.2308501">
  <ele>1595.47</ele>
  <time>2026-08-28T19:11:31Z</time>
  <course>339.32</course>
  <speed>0.04</speed>
  <fix>3d</fix>
</trkpt>
<trkpt lat="40.0729466" lon="-105.2308499">
  <ele>1595.57</ele>
  <time>2026-08-28T19:11:31Z</time>
  <course>17.25</course>
  <speed>0.02</speed>
  <fix>3d</fix>
</trkpt>
<trkpt lat="40.0729467" lon="-105.2308501">
  <ele>1595.47</ele>
  <time>2026-08-28T19:11:31Z</time>
  <course>336.83</course>
  <speed>0.04</speed>
  <fix>3d</fix>
</trkpt>
<trkpt lat="40.0729467" lon="-105.2308499">
  <ele>1595.57</ele>
  <time>2026-08-28T19:11:31Z</time>
  <course>18.71</course>
  <speed>0.02</speed>
  <fix>3d</fix>
</trkpt>
<trkpt lat="40.0729468" lon="-105.2308501">
  <ele>1595.47</ele>
  <time>2026-08-28T19:11:31Z</time>
  <course>335.39</course>
  <speed>0.04</speed>
  <fix>3d</fix>
</trkpt>
<trkpt lat="40.0729467" lon="-105.23085">
  <ele>1595.57</ele>
  <time>2026-08-28T19:11:31Z</time>
  <course>20.24</course>
  <speed>0.01</speed>
  <fix>3d</fix>
</trkpt>
<trkpt lat="40.0729469" lon="-105.2308501">
  <ele>1595.47</ele>
  <time>2026-08-28T19:11:31Z</time>
  <course>334.5</course>
  <speed>0.04</speed>
  <fix>3d</fix>
</trkpt>
<trkpt lat="40.0729468" lon="-105.23085">
  <ele>1595.57</ele>
  <time>2026-08-28T19:11:31Z</time>
  <course>21.67</course>
  <speed>0.01</speed>
  <fix>3d</fix>
</trkpt>
<trkpt lat="40.072947" lon="-105.2308502">
  <ele>1595.47</ele>
  <time>2026-08-28T19:11:31Z</time>
  <course>333.82</course>
  <speed>0.04</speed>
  <fix>3d</fix>
</trkpt>
<trkpt lat="40.0729469" lon="-105.2308501">
  <ele>1595.57</ele>
  <time>2026-08-28T19:11:31Z</time>
  <course>22.91</course>
  <speed>0.01</speed>
  <fix>3d</fix>
</trkpt>
<trkpt lat="40.072947" lon="-105.2308503">
  <ele>1595.47</ele>
  <time>2026-08-28T19:11:31Z</time>
  <course>334.47</course>
  <speed>0.03</speed>
  <fix>3d</fix>
</trkpt>
<trkpt lat="40.0729469" lon="-105.2308501">
  <ele>1595.57</ele>
  <time>2026-08-28T19:11:31Z</time>
  <course>23.82</course>
  <speed>0.01</speed>
  <fix>3d</fix>
</trkpt>
<trkpt lat="40.0729471" lon="-105.2308503">
  <ele>1595.47</ele>
  <time>2026-08-28T19:11:31Z</time>
  <course>337.12</course>
  <speed>0.03</speed>
  <fix>3d</fix>
</trkpt>
<trkpt lat="40.072947" lon="-105.2308501">
  <ele>1595.57</ele>
  <time>2026-08-28T19:11:31Z</time>
  <course>24.29</course>
  <speed>0.01</speed>
  <fix>3d</fix>
</trkpt>
<trkpt lat="40.0729472" lon="-105.2308504">
  <ele>1595.47</ele>
  <time>2026-08-28T19:11:31Z</time>
  <course>341.35</course>
  <speed>0.03</speed>
  <fix>3d</fix>
</trkpt>
<trkpt lat="40.0729471" lon="-105.2308502">
  <ele>1595.56</ele>
  <time>2026-08-28T19:11:31Z</time>
  <course>24.27</course>
  <speed>0.01</speed>
  <fix>3d</fix>
</trkpt>
<trkpt lat="40.0729472" lon="-105.2308504">
  <ele>1595.47</ele>
  <time>2026-08-28T19:11:31Z</time>
  <course>346.21</course>
  <speed>0.03</speed>
  <fix>3d</fix>
</trkpt>
<trkpt lat="40.0729471" lon="-105.2308502">
  <ele>1595.56</ele>
  <time>2026-08-28T19:11:31Z</time>
  <course>23.77</course>
  <speed>0.01</speed>
  <fix>3d</fix>
</trkpt>
<trkpt lat="40.0729472" lon="-105.2308504">
  <ele>1595.47</ele>
  <time>2026-08-28T19:11:31Z</time>
  <course>350.96</course>
  <speed>0.03</speed>
  <fix>3d</fix>
</trkpt>
<trkpt lat="40.0729472" lon="-105.2308502">
  <ele>1595.55</ele>
  <time>2026-08-28T19:11:31Z</time>
  <course>22.86</course>
  <speed>0.01414213562373095</speed>
  <fix>3d</fix>
</trkpt>
<trkpt lat="40.0729473" lon="-105.2308504">
  <ele>1595.47</ele>
  <time>2026-08-28T19:11:31Z</time>
  <course>355.61</course>
  <speed>0.03</speed>
  <fix>3d</fix>
</trkpt>
<trkpt lat="40.0729472" lon="-105.2308502">
  <ele>1595.55</ele>
  <time>2026-08-28T19:11:31Z</time>
  <course>21.59</course>
  <speed>0.01414213562373095</speed>
  <fix>3d</fix>
</trkpt>
<trkpt lat="40.0729473" lon="-105.2308504">
  <ele>1595.47</ele>
  <time>2026-08-28T19:11:31Z</time>
  <course>0.18</course>
  <speed>0.03</speed>
  <fix>3d</fix>
</trkpt>
<trkpt lat="40.0729473" lon="-105.2308502">
  <ele>1595.54</ele>
  <time>2026-08-28T19:11:31Z</time>
  <course>20.12</course>
  <speed>0.01414213562373095</speed>
  <fix>3d</fix>
</trkpt>
<trkpt lat="40.0729474" lon="-105.2308504">
  <ele>1595.47</ele>
  <time>2026-08-28T19:11:31Z</time>
  <course>3.59</course>
  <speed>0.03</speed>
  <fix>3d</fix>
</trkpt>
<trkpt lat="40.0729473" lon="-105.2308502">
  <ele>1595.55</ele>
  <time>2026-08-28T19:11:31Z</time>
  <course>18.59</course>
  <speed>0.01414213562373095</speed>
  <fix>3d</fix>
</trkpt>
<trkpt lat="40.0729475" lon="-105.2308504">
  <ele>1595.47</ele>
  <time>2026-08-28T19:11:31Z</time>
  <course>4.65</course>
  <speed>0.03</speed>
  <fix>3d</fix>
</trkpt>
<trkpt lat="40.0729474" lon="-105.2308502">
  <ele>1595.55</ele>
  <time>2026-08-28T19:11:31Z</time>
  <course>17.13</course>
  <speed>0.01414213562373095</speed>
  <fix>3d</fix>
</trkpt>
<trkpt lat="40.0729476" lon="-105.2308504">
  <ele>1595.48</ele>
  <time>2026-08-28T19:11:31Z</time>
  <course>3.89</course>
  <speed>0.03</speed>
  <fix>3d</fix>
</trkpt>
<trkpt lat="40.0729475" lon="-105.2308502">
  <ele>1595.55</ele>
  <time>2026-08-28T19:11:31Z</time>
  <course>15.89</course>
  <speed>0.01</speed>
  <fix>3d</fix>
</trkpt>
<trkpt lat="40.0729476" lon="-105.2308504">
  <ele>1595.48</ele>
  <time>2026-08-28T19:11:31Z</time>
  <course>1.63</course>
  <speed>0.03</speed>
  <fix>3d</fix>
</trkpt>
<trkpt lat="40.0729475" lon="-105.2308502">
  <ele>1595.56</ele>
  <time>2026-08-28T19:11:31Z</time>
  <course>14.99</course>
  <speed>0.02</speed>
  <fix>3d</fix>
</trkpt>
<trkpt lat="40.0729477" lon="-105.2308504">
  <ele>1595.49</ele>
  <time>2026-08-28T19:11:31Z</time>
  <course>358.26</course>
  <speed>0.03</speed>
  <fix>3d</fix>
</trkpt>
<trkpt lat="40.0729476" lon="-105.2308502">
  <ele>1595.57</ele>
  <time>2026-08-28T19:11:31Z</time>
  <course>14.55</course>
  <speed>0.02</speed>
  <fix>3d</fix>
</trkpt>
<trkpt lat="40.0729477" lon="-105.2308504">
  <ele>1595.49</ele>
  <time>2026-08-28T19:11:31Z</time>
  <course>354.23</course>
  <speed>0.03</speed>
  <fix>3d</fix>
</trkpt>
<trkpt lat="40.0729477" lon="-105.2308502">
  <ele>1595.58</ele>
  <time>2026-08-28T19:11:31Z</time>
  <course>14.6</course>
  <speed>0.02</speed>
  <fix>3d</fix>
</trkpt>
<trkpt lat="40.0729478" lon="-105.2308504">
  <ele>1595.5</ele>
  <time>2026-08-28T19:11:31Z</time>
  <course>349.92</course>
  <speed>0.03</speed>
  <fix>3d</fix>
</trkpt>
<trkpt lat="40.0729477" lon="-105.2308503">
  <ele>1595.58</ele>
  <time>2026-08-28T19:11:31Z</time>
  <course>15.09</course>
  <speed>0.02</speed>
  <fix>3d</fix>
</trkpt>
<trkpt lat="40.0729478" lon="-105.2308504">
  <ele>1595.5</ele>
  <time>2026-08-28T19:11:31Z</time>
  <course>345.88</course>
  <speed>0.03</speed>
  <fix>3d</fix>
</trkpt>
<trkpt lat="40.0729478" lon="-105.2308503">
  <ele>1595.59</ele>
  <time>2026-08-28T19:11:31Z</time>
  <course>16.0</course>
  <speed>0.02</speed>
  <fix>3d</fix>
</trkpt>
<trkpt lat="40.0729479" lon="-105.2308504">
  <ele>1595.5</ele>
  <time>2026-08-28T19:11:31Z</time>
  <course>342.52</course>
  <speed>0.03</speed>
  <fix>3d</fix>
</trkpt>
<trkpt lat="40.0729479" lon="-105.2308503">
  <ele>1595.58</ele>
  <time>2026-08-28T19:11:31Z</time>
  <course>17.26</course>
  <speed>0.02</speed>
  <fix>3d</fix>
</trkpt>
<trkpt lat="40.0729479" lon="-105.2308504">
  <ele>1595.5</ele>
  <time>2026-08-28T19:11:31Z</time>
  <course>339.95</course>
  <speed>0.03</speed>
  <fix>3d</fix>
</trkpt>
<trkpt lat="40.0729479" lon="-105.2308504">
  <ele>1595.58</ele>
  <time>2026-08-28T19:11:31Z</time>
  <course>18.73</course>
  <speed>0.02</speed>
  <fix>3d</fix>
</trkpt>
<trkpt lat="40.072948" lon="-105.2308504">
  <ele>1595.5</ele>
  <time>2026-08-28T19:11:31Z</time>
  <course>338.52</course>
  <speed>0.03</speed>
  <fix>3d</fix>
</trkpt>
<trkpt lat="40.072948" lon="-105.2308504">
  <ele>1595.58</ele>
  <time>2026-08-28T19:11:31Z</time>
  <course>20.25</course>
  <speed>0.01</speed>
  <fix>3d</fix>
</trkpt>
<trkpt lat="40.0729481" lon="-105.2308505">
  <ele>1595.49</ele>
  <time>2026-08-28T19:11:31Z</time>
  <course>338.33</course>
  <speed>0.03</speed>
  <fix>3d</fix>
</trkpt>
<trkpt lat="40.072948" lon="-105.2308504">
  <ele>1595.58</ele>
  <time>2026-08-28T19:11:31Z</time>
  <course>21.72</course>
  <speed>0.01</speed>
  <fix>3d</fix>
</trkpt>
<trkpt lat="40.0729482" lon="-105.2308506">
  <ele>1595.49</ele>
  <time>2026-08-28T19:11:31Z</time>
  <course>339.43</course>
  <speed>0.03</speed>
  <fix>3d</fix>
</trkpt>
<trkpt lat="40.0729481" lon="-105.2308504">
  <ele>1595.58</ele>
  <time>2026-08-28T19:11:31Z</time>
  <course>22.94</course>
  <speed>0.01</speed>
  <fix>3d</fix>
</trkpt>
<trkpt lat="40.0729482" lon="-105.2308506">
  <ele>1595.49</ele>
  <time>2026-08-28T19:11:31Z</time>
  <course>341.7</course>
  <speed>0.03</speed>
  <fix>3d</fix>
</trkpt>
<trkpt lat="40.0729481" lon="-105.2308504">
  <ele>1595.58</ele>
  <time>2026-08-28T19:11:31Z</time>
  <course>23.85</course>
  <speed>0.01</speed>
  <fix>3d</fix>
</trkpt>
<trkpt lat="40.0729483" lon="-105.2308506">
  <ele>1595.48</ele>
  <time>2026-08-28T19:11:31Z</time>
  <course>344.95</course>
  <speed>0.02</speed>
  <fix>3d</fix>
</trkpt>
<trkpt lat="40.0729482" lon="-105.2308505">
  <ele>1595.57</ele>
  <time>2026-08-28T19:11:32Z</time>
  <course>24.32</course>
  <speed>0.01</speed>
  <fix>3d</fix>
</trkpt>
<trkpt lat="40.0729483" lon="-105.2308506">
  <ele>1595.48</ele>
  <time>2026-08-28T19:11:32Z</time>
  <course>349.29</course>
  <speed>0.02</speed>
  <fix>3d</fix>
</trkpt>
<trkpt lat="40.0729482" lon="-105.2308505">
  <ele>1595.56</ele>
  <time>2026-08-28T19:11:32Z</time>
  <course>24.29</course>
  <speed>0.01</speed>
  <fix>3d</fix>
</trkpt>
<trkpt lat="40.0729484" lon="-105.2308506">
  <ele>1595.48</ele>
  <time>2026-08-28T19:11:32Z</time>
  <course>354.01</course>
  <speed>0.02</speed>
  <fix>3d</fix>
</trkpt>
<trkpt lat="40.0729483" lon="-105.2308505">
  <ele>1595.56</ele>
  <time>2026-08-28T19:11:32Z</time>
  <course>23.76</course>
  <speed>0.01</speed>
  <fix>3d</fix>
</trkpt>
<trkpt lat="40.0729484" lon="-105.2308506">
  <ele>1595.48</ele>
  <time>2026-08-28T19:11:32Z</time>
  <course>359.09</course>
  <speed>0.02</speed>
  <fix>3d</fix>
</trkpt>
<trkpt lat="40.0729483" lon="-105.2308505">
  <ele>1595.56</ele>
  <time>2026-08-28T19:11:32Z</time>
  <course>22.85</course>
  <speed>0.01414213562373095</speed>
  <fix>3d</fix>
</trkpt>
<trkpt lat="40.0729484" lon="-105.2308506">
  <ele>1595.48</ele>
  <time>2026-08-28T19:11:32Z</time>
  <course>4.34</course>
  <speed>0.02</speed>
  <fix>3d</fix>
</trkpt>
<trkpt lat="40.0729484" lon="-105.2308505">
  <ele>1595.57</ele>
  <time>2026-08-28T19:11:32Z</time>
  <course>21.59</course>
  <speed>0.01414213562373095</speed>
  <fix>3d</fix>
</trkpt>
<trkpt lat="40.0729484" lon="-105.2308506">
  <ele>1595.48</ele>
  <time>2026-08-28T19:11:32Z</time>
  <course>10.06</course>
  <speed>0.02</speed>
  <fix>3d</fix>
</trkpt>
<trkpt lat="40.0729484" lon="-105.2308505">
  <ele>1595.57</ele>
  <time>2026-08-28T19:11:32Z</time>
  <course>20.16</course>
  <speed>0.01414213562373095</speed>
  <fix>3d</fix>
</trkpt>
<trkpt lat="40.0729485" lon="-105.2308506">
  <ele>1595.48</ele>
  <time>2026-08-28T19:11:32Z</time>
  <course>14.67</course>
  <speed>0.02</speed>
  <fix>3d</fix>
</trkpt>
<trkpt lat="40.0729485" lon="-105.2308505">
  <ele>1595.57</ele>
  <time>2026-08-28T19:11:32Z</time>
  <course>18.64</course>
  <speed>0.01414213562373095</speed>
  <fix>3d</fix>
</trkpt>
<trkpt lat="40.0729485" lon="-105.2308506">
  <ele>1595.48</ele>
  <time>2026-08-28T19:11:32Z</time>
  <course>15.76</course>
  <speed>0.02</speed>
  <fix>3d</fix>
</trkpt>
<trkpt lat="40.0729485" lon="-105.2308505">
  <ele>1595.57</ele>
  <time>2026-08-28T19:11:32Z</time>
  <course>17.2</course>
  <speed>0.01414213562373095</speed>
  <fix>3d</fix>
</trkpt>
<trkpt lat="40.0729486" lon="-105.2308506">
  <ele>1595.48</ele>
  <time>2026-08-28T19:11:32Z</time>
  <course>14.12</course>
  <speed>0.02</speed>
  <fix>3d</fix>
</trkpt>
<trkpt lat="40.0729485" lon="-105.2308505">
  <ele>1595.57</ele>
  <time>2026-08-28T19:11:32Z</time>
  <course>15.95</course>
  <speed>0.01</speed>
  <fix>3d</fix>
</trkpt>
<trkpt lat="40.0729487" lon="-105.2308506">
  <ele>1595.48</ele>
  <time>2026-08-28T19:11:32Z</time>
  <course>10.03</course>
  <speed>0.02</speed>
  <fix>3d</fix>
</trkpt>
<trkpt lat="40.0729486" lon="-105.2308505">
  <ele>1595.56</ele>
  <time>2026-08-28T19:11:32Z</time>
  <course>15.04</course>
  <speed>0.01</speed>
  <fix>3d</fix>
</trkpt>
<trkpt lat="40.0729487" lon="-105.2308506">
  <ele>1595.48</ele>
  <time>2026-08-28T19:11:32Z</time>
  <course>4.59</course>
  <speed>0.02</speed>
  <fix>3d</fix>
</trkpt>
<trkpt lat="40.0729486" lon="-105.2308505">
  <ele>1595.56</ele>
  <time>2026-08-28T19:11:32Z</time>
  <course>14.56</course>
  <speed>0.01</speed>
  <fix>3d</fix>
</trkpt>
<trkpt lat="40.0729488" lon="-105.2308506">
  <ele>1595.48</ele>
  <time>2026-08-28T19:11:32Z</time>
  <course>358.65</course>
  <speed>0.02</speed>
  <fix>3d</fix>
</trkpt>
<trkpt lat="40.0729487" lon="-105.2308505">
  <ele>1595.55</ele>
  <time>2026-08-28T19:11:32Z</time>
  <course>14.55</course>
  <speed>0.01</speed>
  <fix>3d</fix>
</trkpt>
<trkpt lat="40.0729488" lon="-105.2308506">
  <ele>1595.48</ele>
  <time>2026-08-28T19:11:32Z</time>
  <course>352.59</course>
  <speed>0.02</speed>
  <fix>3d</fix>
</trkpt>
<trkpt lat="40.0729487" lon="-105.2308505">
  <ele>1595.55</ele>
  <time>2026-08-28T19:11:32Z</time>
  <course>15.02</course>
  <speed>0.01</speed>
  <fix>3d</fix>
</trkpt>
<trkpt lat="40.0729488" lon="-105.2308506">
  <ele>1595.48</ele>
  <time>2026-08-28T19:11:32Z</time>
  <course>346.64</course>
  <speed>0.02</speed>
  <fix>3d</fix>
</trkpt>
<trkpt lat="40.0729488" lon="-105.2308505">
  <ele>1595.55</ele>
  <time>2026-08-28T19:11:32Z</time>
  <course>15.95</course>
  <speed>0.01</speed>
  <fix>3d</fix>
</trkpt>
<trkpt lat="40.0729489" lon="-105.2308506">
  <ele>1595.48</ele>
  <time>2026-08-28T19:11:32Z</time>
  <course>340.66</course>
  <speed>0.02</speed>
  <fix>3d</fix>
</trkpt>
<trkpt lat="40.0729488" lon="-105.2308505">
  <ele>1595.55</ele>
  <time>2026-08-28T19:11:32Z</time>
  <course>17.16</course>
  <speed>0.01</speed>
  <fix>3d</fix>
</trkpt>
<trkpt lat="40.0729489" lon="-105.2308506">
  <ele>1595.49</ele>
  <time>2026-08-28T19:11:32Z</time>
  <course>335.39</course>
  <speed>0.02</speed>
  <fix>3d</fix>
</trkpt>
<trkpt lat="40.0729489" lon="-105.2308505">
  <ele>1595.56</ele>
  <time>2026-08-28T19:11:32Z</time>
  <course>18.62</course>
  <speed>0.01</speed>
  <fix>3d</fix>
</trkpt>
<trkpt lat="40.072949" lon="-105.2308506">
  <ele>1595.49</ele>
  <time>2026-08-28T19:11:32Z</time>
  <course>331.54</course>
  <speed>0.02</speed>
  <fix>3d</fix>
</trkpt>
<trkpt lat="40.0729489" lon="-105.2308506">
  <ele>1595.57</ele>
  <time>2026-08-28T19:11:32Z</time>
  <course>20.18</course>
  <speed>0.01</speed>
  <fix>3d</fix>
</trkpt>
<trkpt lat="40.072949" lon="-105.2308506">
  <ele>1595.49</ele>
  <time>2026-08-28T19:11:32Z</time>
  <course>330.06</course>
  <speed>0.02</speed>
  <fix>3d</fix>
</trkpt>
<trkpt lat="40.0729489" lon="-105.2308506">
  <ele>1595.57</ele>
  <time>2026-08-28T19:11:32Z</time>
  <course>21.66</course>
  <speed>0.01</speed>
  <fix>3d</fix>
</trkpt>
<trkpt lat="40.072949" lon="-105.2308506">
  <ele>1595.5</ele>
  <time>2026-08-28T19:11:32Z</time>
  <course>330.71</course>
  <speed>0.01</speed>
  <fix>3d</fix>
</trkpt>
<trkpt lat="40.072949" lon="-105.2308506">
  <ele>1595.57</ele>
  <time>2026-08-28T19:11:32Z</time>
  <course>22.92</course>
  <speed>0.01</speed>
  <fix>3d</fix>
</trkpt>
<trkpt lat="40.072949" lon="-105.2308506">
  <ele>1595.5</ele>
  <time>2026-08-28T19:11:32Z</time>
  <course>333.87</course>
  <speed>0.01</speed>
  <fix>3d</fix>
</trkpt>
<trkpt lat="40.072949" lon="-105.2308506">
  <ele>1595.57</ele>
  <time>2026-08-28T19:11:32Z</time>
  <course>23.83</course>
  <speed>0.01</speed>
  <fix>3d</fix>
</trkpt>
<trkpt lat="40.072949" lon="-105.2308506">
  <ele>1595.5</ele>
  <time>2026-08-28T19:11:32Z</time>
  <course>341.24</course>
  <speed>0.01</speed>
  <fix>3d</fix>
</trkpt>
<trkpt lat="40.072949" lon="-105.2308506">
  <ele>1595.57</ele>
  <time>2026-08-28T19:11:32Z</time>
  <course>24.3</course>
  <speed>0.01</speed>
  <fix>3d</fix>
</trkpt>
<trkpt lat="40.072949" lon="-105.2308506">
  <ele>1595.5</ele>
  <time>2026-08-28T19:11:32Z</time>
  <course>352.63</course>
  <speed>0.01</speed>
  <fix>3d</fix>
</trkpt>
<trkpt lat="40.072949" lon="-105.2308506">
  <ele>1595.57</ele>
  <time>2026-08-28T19:11:32Z</time>
  <course>24.27</course>
  <speed>0.0</speed>
  <fix>3d</fix>
</trkpt>
<trkpt lat="40.072949" lon="-105.2308506">
  <ele>1595.51</ele>
  <time>2026-08-28T19:11:32Z</time>
  <course>6.5</course>
  <speed>0.01</speed>
  <fix>3d</fix>
</trkpt>
<trkpt lat="40.072949" lon="-105.2308506">
  <ele>1595.57</ele>
  <time>2026-08-28T19:11:32Z</time>
  <course>23.78</course>
  <speed>0.01</speed>
  <fix>3d</fix>
</trkpt>
<trkpt lat="40.0729491" lon="-105.2308506">
  <ele>1595.51</ele>
  <time>2026-08-28T19:11:32Z</time>
  <course>19.12</course>
  <speed>0.01</speed>
  <fix>3d</fix>
</trkpt>
<trkpt lat="40.0729491" lon="-105.2308506">
  <ele>1595.57</ele>
  <time>2026-08-28T19:11:32Z</time>
  <course>22.87</course>
  <speed>0.01</speed>
  <fix>3d</fix>
</trkpt>
<trkpt lat="40.0729491" lon="-105.2308506">
  <ele>1595.51</ele>
  <time>2026-08-28T19:11:32Z</time>
  <course>29.14</course>
  <speed>0.01</speed>
  <fix>3d</fix>
</trkpt>
<trkpt lat="40.0729491" lon="-105.2308506">
  <ele>1595.57</ele>
  <time>2026-08-28T19:11:32Z</time>
  <course>21.61</course>
  <speed>0.01</speed>
  <fix>3d</fix>
</trkpt>
<trkpt lat="40.0729491" lon="-105.2308506">
  <ele>1595.51</ele>
  <time>2026-08-28T19:11:32Z</time>
  <course>34.82</course>
  <speed>0.01</speed>
  <fix>3d</fix>
</trkpt>
<trkpt lat="40.0729491" lon="-105.2308506">
  <ele>1595.57</ele>
  <time>2026-08-28T19:11:32Z</time>
  <course>20.15</course>
  <speed>0.01</speed>
  <fix>3d</fix>
</trkpt>
<trkpt lat="40.0729491" lon="-105.2308506">
  <ele>1595.51</ele>
  <time>2026-08-28T19:11:32Z</time>
  <course>35.3</course>
  <speed>0.01</speed>
  <fix>3d</fix>
</trkpt>
<trkpt lat="40.0729491" lon="-105.2308506">
  <ele>1595.57</ele>
  <time>2026-08-28T19:11:32Z</time>
  <course>18.63</course>
  <speed>0.01414213562373095</speed>
  <fix>3d</fix>
</trkpt>
<trkpt lat="40.0729491" lon="-105.2308506">
  <ele>1595.51</ele>
  <time>2026-08-28T19:11:32Z</time>
  <course>32.83</course>
  <speed>0.01</speed>
  <fix>3d</fix>
</trkpt>
<trkpt lat="40.0729491" lon="-105.2308505">
  <ele>1595.56</ele>
  <time>2026-08-28T19:11:32Z</time>
  <course>17.17</course>
  <speed>0.01414213562373095</speed>
  <fix>3d</fix>
</trkpt>
<trkpt lat="40.0729492" lon="-105.2308506">
  <ele>1595.51</ele>
  <time>2026-08-28T19:11:32Z</time>
  <course>28.52</course>
  <speed>0.01</speed>
  <fix>3d</fix>
</trkpt>
<trkpt lat="40.0729492" lon="-105.2308505">
  <ele>1595.57</ele>
  <time>2026-08-28T19:11:32Z</time>
  <course>15.9</course>
  <speed>0.01</speed>
  <fix>3d</fix>
</trkpt>
<trkpt lat="40.0729493" lon="-105.2308506">
  <ele>1595.51</ele>
  <time>2026-08-28T19:11:32Z</time>
  <course>22.8</course>
  <speed>0.01</speed>
  <fix>3d</fix>
</trkpt>
<trkpt lat="40.0729492" lon="-105.2308505">
  <ele>1595.57</ele>
  <time>2026-08-28T19:11:32Z</time>
  <course>15.04</course>
  <speed>0.01</speed>
  <fix>3d</fix>
</trkpt>
<trkpt lat="40.0729493" lon="-105.2308506">
  <ele>1595.51</ele>
  <time>2026-08-28T19:11:32Z</time>
  <course>15.51</course>
  <speed>0.01</speed>
  <fix>3d</fix>
</trkpt>
<trkpt lat="40.0729492" lon="-105.2308505">
  <ele>1595.58</ele>
  <time>2026-08-28T19:11:32Z</time>
  <course>14.57</course>
  <speed>0.01</speed>
  <fix>3d</fix>
</trkpt>
<trkpt lat="40.0729493" lon="-105.2308506">
  <ele>1595.51</ele>
  <time>2026-08-28T19:11:32Z</time>
  <course>7.63</course>
  <speed>0.01</speed>
  <fix>3d</fix>
</trkpt>
<trkpt lat="40.0729493" lon="-105.2308505">
  <ele>1595.58</ele>
  <time>2026-08-28T19:11:32Z</time>
  <course>14.53</course>
  <speed>0.01</speed>
  <fix>3d</fix>
</trkpt>
<trkpt lat="40.0729494" lon="-105.2308506">
  <ele>1595.51</ele>
  <time>2026-08-28T19:11:32Z</time>
  <course>359.49</course>
  <speed>0.01</speed>
  <fix>3d</fix>
</trkpt>
<trkpt lat="40.0729493" lon="-105.2308505">
  <ele>1595.58</ele>
  <time>2026-08-28T19:11:32Z</time>
  <course>14.52</course>
  <speed>0.01</speed>
  <fix>3d</fix>
</trkpt>
<trkpt lat="40.0729494" lon="-105.2308506">
  <ele>1595.51</ele>
  <time>2026-08-28T19:11:32Z</time>
  <course>357.44</course>
  <speed>0.01</speed>
  <fix>3d</fix>
</trkpt>
<trkpt lat="40.0729493" lon="-105.2308505">
  <ele>1595.58</ele>
  <time>2026-08-28T19:11:32Z</time>
  <course>14.52</course>
  <speed>0.01</speed>
  <fix>3d</fix>
</trkpt>
<trkpt lat="40.0729494" lon="-105.2308506">
  <ele>1595.51</ele>
  <time>2026-08-28T19:11:32Z</time>
  <course>2.06</course>
  <speed>0.01</speed>
  <fix>3d</fix>
</trkpt>
<trkpt lat="40.0729494" lon="-105.2308505">
  <ele>1595.58</ele>
  <time>2026-08-28T19:11:32Z</time>
  <course>14.54</course>
  <speed>0.02</speed>
  <fix>3d</fix>
</trkpt>
<trkpt lat="40.0729494" lon="-105.2308506">
  <ele>1595.51</ele>
  <time>2026-08-28T19:11:32Z</time>
  <course>5.33</course>
  <speed>0.01</speed>
  <fix>3d</fix>
</trkpt>
<trkpt lat="40.0729494" lon="-105.2308505">
  <ele>1595.58</ele>
  <time>2026-08-28T19:11:32Z</time>
  <course>14.54</course>
  <speed>0.02</speed>
  <fix>3d</fix>
</trkpt>
<trkpt lat="40.0729495" lon="-105.2308506">
  <ele>1595.51</ele>
  <time>2026-08-28T19:11:32Z</time>
  <course>7.46</course>
  <speed>0.02</speed>
  <fix>3d</fix>
</trkpt>
<trkpt lat="40.0729495" lon="-105.2308505">
  <ele>1595.58</ele>
  <time>2026-08-28T19:11:32Z</time>
  <course>14.53</course>
  <speed>0.02</speed>
  <fix>3d</fix>
</trkpt>
<trkpt lat="40.0729495" lon="-105.2308506">
  <ele>1595.51</ele>
  <time>2026-08-28T19:11:32Z</time>
  <course>9.17</course>
  <speed>0.02</speed>
  <fix>3d</fix>
</trkpt>
<trkpt lat="40.0729495" lon="-105.2308505">
  <ele>1595.58</ele>
  <time>2026-08-28T19:11:32Z</time>
  <course>14.53</course>
  <speed>0.02</speed>
  <fix>3d</fix>
</trkpt>
<trkpt lat="40.0729496" lon="-105.2308506">
  <ele>1595.51</ele>
  <time>2026-08-28T19:11:32Z</time>
  <course>11.09</course>
  <speed>0.02</speed>
  <fix>3d</fix>
</trkpt>
<trkpt lat="40.0729496" lon="-105.2308505">
  <ele>1595.58</ele>
  <time>2026-08-28T19:11:32Z</time>
  <course>14.54</course>
  <speed>0.03</speed>
  <fix>3d</fix>
</trkpt>
<trkpt lat="40.0729496" lon="-105.2308506">
  <ele>1595.51</ele>
  <time>2026-08-28T19:11:32Z</time>
  <course>12.89</course>
  <speed>0.02</speed>
  <fix>3d</fix>
</trkpt>
<trkpt lat="40.0729496" lon="-105.2308505">
  <ele>1595.58</ele>
  <time>2026-08-28T19:11:32Z</time>
  <course>14.55</course>
  <speed>0.03</speed>
  <fix>3d</fix>
</trkpt>
<trkpt lat="40.0729496" lon="-105.2308506">
  <ele>1595.5</ele>
  <time>2026-08-28T19:11:32Z</time>
  <course>14.01</course>
  <speed>0.02</speed>
  <fix>3d</fix>
</trkpt>
<trkpt lat="40.0729497" lon="-105.2308505">
  <ele>1595.58</ele>
  <time>2026-08-28T19:11:32Z</time>
  <course>14.56</course>
  <speed>0.03</speed>
  <fix>3d</fix>
</trkpt>
<trkpt lat="40.0729497" lon="-105.2308506">
  <ele>1595.5</ele>
  <time>2026-08-28T19:11:32Z</time>
  <course>14.49</course>
  <speed>0.03</speed>
  <fix>3d</fix>
</trkpt>
<trkpt lat="40.0729497" lon="-105.2308505">
  <ele>1595.58</ele>
  <time>2026-08-28T19:11:32Z</time>
  <course>14.55</course>
  <speed>0.03</speed>
  <fix>3d</fix>
</trkpt>
<trkpt lat="40.0729497" lon="-105.2308506">
  <ele>1595.5</ele>
  <time>2026-08-28T19:11:32Z</time>
  <course>15.38</course>
  <speed>0.03</speed>
  <fix>3d</fix>
</trkpt>
<trkpt lat="40.0729498" lon="-105.2308505">
  <ele>1595.58</ele>
  <time>2026-08-28T19:11:32Z</time>
  <course>14.54</course>
  <speed>0.03</speed>
  <fix>3d</fix>
</trkpt>
<trkpt lat="40.0729498" lon="-105.2308506">
  <ele>1595.5</ele>
  <time>2026-08-28T19:11:32Z</time>
  <course>16.68</course>
  <speed>0.03</speed>
  <fix>3d</fix>
</trkpt>
<trkpt lat="40.0729499" lon="-105.2308505">
  <ele>1595.58</ele>
  <time>2026-08-28T19:11:32Z</time>
  <course>14.54</course>
  <speed>0.04</speed>
  <fix>3d</fix>
</trkpt>
<trkpt lat="40.0729499" lon="-105.2308506">
  <ele>1595.49</ele>
  <time>2026-08-28T19:11:32Z</time>
  <course>17.36</course>
  <speed>0.03</speed>
  <fix>3d</fix>
</trkpt>
<trkpt lat="40.0729499" lon="-105.2308505">
  <ele>1595.58</ele>
  <time>2026-08-28T19:11:32Z</time>
  <course>14.54</course>
  <speed>0.04</speed>
  <fix>3d</fix>
</trkpt>
<trkpt lat="40.0729499" lon="-105.2308505">
  <ele>1595.49</ele>
  <time>2026-08-28T19:11:32Z</time>
  <course>17.95</course>
  <speed>0.03</speed>
  <fix>3d</fix>
</trkpt>
<trkpt lat="40.07295" lon="-105.2308505">
  <ele>1595.58</ele>
  <time>2026-08-28T19:11:32Z</time>
  <course>14.55</course>
  <speed>0.04</speed>
  <fix>3d</fix>
</trkpt>
<trkpt lat="40.07295" lon="-105.2308504">
  <ele>1595.49</ele>
  <time>2026-08-28T19:11:32Z</time>
  <course>18.83</course>
  <speed>0.03</speed>
  <fix>3d</fix>
</trkpt>
<trkpt lat="40.0729501" lon="-105.2308505">
  <ele>1595.57</ele>
  <time>2026-08-28T19:11:32Z</time>
  <course>14.53</course>
  <speed>0.0412310562561766</speed>
  <fix>3d</fix>
</trkpt>
<trkpt lat="40.0729501" lon="-105.2308504">
  <ele>1595.49</ele>
  <time>2026-08-28T19:11:32Z</time>
  <course>19.58</course>
  <speed>0.04</speed>
  <fix>3d</fix>
</trkpt>
<trkpt lat="40.0729502" lon="-105.2308504">
  <ele>1595.57</ele>
  <time>2026-08-28T19:11:32Z</time>
  <course>14.53</course>
  <speed>0.0412310562561766</speed>
  <fix>3d</fix>
</trkpt>
<trkpt lat="40.0729501" lon="-105.2308504">
  <ele>1595.48</ele>
  <time>2026-08-28T19:11:32Z</time>
  <course>20.14</course>
  <speed>0.04</speed>
  <fix>3d</fix>
</trkpt>
<trkpt lat="40.0729502" lon="-105.2308504">
  <ele>1595.57</ele>
  <time>2026-08-28T19:11:32Z</time>
  <course>14.15</course>
  <speed>0.0412310562561766</speed>
  <fix>3d</fix>
</trkpt>
<trkpt lat="40.0729502" lon="-105.2308504">
  <ele>1595.48</ele>
  <time>2026-08-28T19:11:32Z</time>
  <course>22.15</course>
  <speed>0.04</speed>
  <fix>3d</fix>
</trkpt>
<trkpt lat="40.0729503" lon="-105.2308503">
  <ele>1595.58</ele>
  <time>2026-08-28T19:11:32Z</time>
  <course>12.96</course>
  <speed>0.0412310562561766</speed>
  <fix>3d</fix>
</trkpt>
<trkpt lat="40.0729503" lon="-105.2308504">
  <ele>1595.48</ele>
  <time>2026-08-28T19:11:32Z</time>
  <course>25.5</course>
  <speed>0.04</speed>
  <fix>3d</fix>
</trkpt>
<trkpt lat="40.0729504" lon="-105.2308503">
  <ele>1595.57</ele>
  <time>2026-08-28T19:11:32Z</time>
  <course>11.65</course>
  <speed>0.0412310562561766</speed>
  <fix>3d</fix>
</trkpt>
<trkpt lat="40.0729503" lon="-105.2308503">
  <ele>1595.48</ele>
  <time>2026-08-28T19:11:32Z</time>
  <course>27.48</course>
  <speed>0.04</speed>
  <fix>3d</fix>
</trkpt>
<trkpt lat="40.0729504" lon="-105.2308503">
  <ele>1595.57</ele>
  <time>2026-08-28T19:11:32Z</time>
  <course>10.55</course>
  <speed>0.0316227766016838</speed>
  <fix>3d</fix>
</trkpt>
<trkpt lat="40.0729504" lon="-105.2308503">
  <ele>1595.48</ele>
  <time>2026-08-28T19:11:32Z</time>
  <course>27.66</course>
  <speed>0.04</speed>
  <fix>3d</fix>
</trkpt>
<trkpt lat="40.0729505" lon="-105.2308502">
  <ele>1595.57</ele>
  <time>2026-08-28T19:11:32Z</time>
  <course>9.85</course>
  <speed>0.03</speed>
  <fix>3d</fix>
</trkpt>
<trkpt lat="40.0729505" lon="-105.2308502">
  <ele>1595.48</ele>
  <time>2026-08-28T19:11:32Z</time>
  <course>27.03</course>
  <speed>0.03</speed>
  <fix>3d</fix>
</trkpt>
<trkpt lat="40.0729505" lon="-105.2308502">
  <ele>1595.57</ele>
  <time>2026-08-28T19:11:32Z</time>
  <course>9.62</course>
  <speed>0.02</speed>
  <fix>3d</fix>
</trkpt>
<trkpt lat="40.0729505" lon="-105.2308501">
  <ele>1595.48</ele>
  <time>2026-08-28T19:11:32Z</time>
  <course>25.93</course>
  <speed>0.03</speed>
  <fix>3d</fix>
</trkpt>
<trkpt lat="40.0729506" lon="-105.2308502">
  <ele>1595.57</ele>
  <time>2026-08-28T19:11:32Z</time>
  <course>9.85</course>
  <speed>0.02</speed>
  <fix>3d</fix>
</trkpt>
<trkpt lat="40.0729506" lon="-105.2308501">
  <ele>1595.48</ele>
  <time>2026-08-28T19:11:32Z</time>
  <course>24.73</course>
  <speed>0.02</speed>
  <fix>3d</fix>
</trkpt>
<trkpt lat="40.0729506" lon="-105.2308502">
  <ele>1595.57</ele>
  <time>2026-08-28T19:11:32Z</time>
  <course>10.56</course>
  <speed>0.01</speed>
  <fix>3d</fix>
</trkpt>
<trkpt lat="40.0729506" lon="-105.2308501">
  <ele>1595.47</ele>
  <time>2026-08-28T19:11:32Z</time>
  <course>23.39</course>
  <speed>0.01</speed>
  <fix>3d</fix>
</trkpt>
<trkpt lat="40.0729506" lon="-105.2308502">
  <ele>1595.56</ele>
  <time>2026-08-28T19:11:32Z</time>
  <course>11.67</course>
  <speed>0.01</speed>
  <fix>3d</fix>
</trkpt>
<trkpt lat="40.0729507" lon="-105.2308501">
  <ele>1595.47</ele>
  <time>2026-08-28T19:11:32Z</time>
  <course>20.15</course>
  <speed>0.01</speed>
  <fix>3d</fix>
</trkpt>
<trkpt lat="40.0729506" lon="-105.2308502">
  <ele>1595.56</ele>
  <time>2026-08-28T19:11:32Z</time>
  <course>13.03</course>
  <speed>0.01</speed>
  <fix>3d</fix>
</trkpt>
<trkpt lat="40.0729507" lon="-105.2308501">
  <ele>1595.47</ele>
  <time>2026-08-28T19:11:32Z</time>
  <course>15.13</course>
  <speed>0.0</speed>
  <fix>3d</fix>
</trkpt>
<trkpt lat="40.0729507" lon="-105.2308502">
  <ele>1595.56</ele>
  <time>2026-08-28T19:11:32Z</time>
  <course>14.53</course>
  <speed>0.0</speed>
  <fix>3d</fix>
</trkpt>
<trkpt lat="40.0729507" lon="-105.2308501">
  <ele>1595.47</ele>
  <time>2026-08-28T19:11:32Z</time>
  <course>15.29</course>
  <speed>0.0</speed>
  <fix>3d</fix>
</trkpt>
<trkpt lat="40.0729507" lon="-105.2308502">
  <ele>1595.55</ele>
  <time>2026-08-28T19:11:32Z</time>
  <course>16.02</course>
  <speed>0.0</speed>
  <fix>3d</fix>
</trkpt>
<trkpt lat="40.0729507" lon="-105.2308501">
  <ele>1595.47</ele>
  <time>2026-08-28T19:11:32Z</time>
  <course>55.83</course>
  <speed>0.0</speed>
  <fix>3d</fix>
</trkpt>
<trkpt lat="40.0729507" lon="-105.2308502">
  <ele>1595.56</ele>
  <time>2026-08-28T19:11:32Z</time>
  <course>17.34</course>
  <speed>0.0</speed>
  <fix>3d</fix>
</trkpt>
<trkpt lat="40.0729507" lon="-105.2308501">
  <ele>1595.48</ele>
  <time>2026-08-28T19:11:32Z</time>
  <course>129.45</course>
  <speed>0.0</speed>
  <fix>3d</fix>
</trkpt>
<trkpt lat="40.0729507" lon="-105.2308502">
  <ele>1595.56</ele>
  <time>2026-08-28T19:11:32Z</time>
  <course>18.47</course>
  <speed>0.0</speed>
  <fix>3d</fix>
</trkpt>
<trkpt lat="40.0729507" lon="-105.2308501">
  <ele>1595.48</ele>
  <time>2026-08-28T19:11:32Z</time>
  <course>131.91</course>
  <speed>0.0</speed>
  <fix>3d</fix>
</trkpt>
<trkpt lat="40.0729507" lon="-105.2308501">
  <ele>1595.56</ele>
  <time>2026-08-28T19:11:32Z</time>
  <course>19.19</course>
  <speed>0.0</speed>
  <fix>3d</fix>
</trkpt>
<trkpt lat="40.0729507" lon="-105.2308501">
  <ele>1595.48</ele>
  <time>2026-08-28T19:11:32Z</time>
  <course>126.39</course>
  <speed>0.0</speed>
  <fix>3d</fix>
</trkpt>
<trkpt lat="40.0729507" lon="-105.2308501">
  <ele>1595.56</ele>
  <time>2026-08-28T19:11:32Z</time>
  <course>19.43</course>
  <speed>0.0</speed>
  <fix>3d</fix>
</trkpt>
<trkpt lat="40.0729507" lon="-105.2308501">
  <ele>1595.48</ele>
  <time>2026-08-28T19:11:32Z</time>
  <course>120.4</course>
  <speed>0.0</speed>
  <fix>3d</fix>
</trkpt>
<trkpt lat="40.0729507" lon="-105.2308501">
  <ele>1595.56</ele>
  <time>2026-08-28T19:11:32Z</time>
  <course>19.18</course>
  <speed>0.0</speed>
  <fix>3d</fix>
</trkpt>
<trkpt lat="40.0729507" lon="-105.2308501">
  <ele>1595.48</ele>
  <time>2026-08-28T19:11:32Z</time>
  <course>115.73</course>
  <speed>0.01</speed>
  <fix>3d</fix>
</trkpt>
<trkpt lat="40.0729507" lon="-105.2308501">
  <ele>1595.56</ele>
  <time>2026-08-28T19:11:32Z</time>
  <course>18.46</course>
  <speed>0.01</speed>
  <fix>3d</fix>
</trkpt>
<trkpt lat="40.0729507" lon="-105.23085">
  <ele>1595.48</ele>
  <time>2026-08-28T19:11:32Z</time>
  <course>112.34</course>
  <speed>0.01</speed>
  <fix>3d</fix>
</trkpt>
<trkpt lat="40.0729507" lon="-105.23085">
  <ele>1595.56</ele>
  <time>2026-08-28T19:11:32Z</time>
  <course>17.38</course>
  <speed>0.01</speed>
  <fix>3d</fix>
</trkpt>
<trkpt lat="40.0729507" lon="-105.2308499">
  <ele>1595.49</ele>
  <time>2026-08-28T19:11:32Z</time>
  <course>108.35</course>
  <speed>0.01</speed>
  <fix>3d</fix>
</trkpt>
<trkpt lat="40.0729507" lon="-105.23085">
  <ele>1595.57</ele>
  <time>2026-08-28T19:11:32Z</time>
  <course>16.0</course>
  <speed>0.01</speed>
  <fix>3d</fix>
</trkpt>
<trkpt lat="40.0729507" lon="-105.2308499">
  <ele>1595.49</ele>
  <time>2026-08-28T19:11:32Z</time>
  <course>103.28</course>
  <speed>0.01</speed>
  <fix>3d</fix>
</trkpt>
<trkpt lat="40.0729507" lon="-105.23085">
  <ele>1595.57</ele>
  <time>2026-08-28T19:11:32Z</time>
  <course>14.51</course>
  <speed>0.01</speed>
  <fix>3d</fix>
</trkpt>
<trkpt lat="40.0729507" lon="-105.2308499">
  <ele>1595.49</ele>
  <time>2026-08-28T19:11:32Z</time>
  <course>98.32</course>
  <speed>0.01</speed>
  <fix>3d</fix>
</trkpt>
<trkpt lat="40.0729507" lon="-105.2308499">
  <ele>1595.58</ele>
  <time>2026-08-28T19:11:32Z</time>
  <course>13.02</course>
  <speed>0.01</speed>
  <fix>3d</fix>
</trkpt>
<trkpt lat="40.0729507" lon="-105.2308499">
  <ele>1595.49</ele>
  <time>2026-08-28T19:11:32Z</time>
  <course>94.16</course>
  <speed>0.01</speed>
  <fix>3d</fix>
</trkpt>
<trkpt lat="40.0729507" lon="-105.2308499">
  <ele>1595.57</ele>
  <time>2026-08-28T19:11:32Z</time>
  <course>11.69</course>
  <speed>0.01</speed>
  <fix>3d</fix>
</trkpt>
<trkpt lat="40.0729507" lon="-105.2308499">
  <ele>1595.49</ele>
  <time>2026-08-28T19:11:32Z</time>
  <course>90.17</course>
  <speed>0.01</speed>
  <fix>3d</fix>
</trkpt>
<trkpt lat="40.0729507" lon="-105.2308499">
  <ele>1595.57</ele>
  <time>2026-08-28T19:11:32Z</time>
  <course>10.57</course>
  <speed>0.01</speed>
  <fix>3d</fix>
</trkpt>
<trkpt lat="40.0729507" lon="-105.2308498">
  <ele>1595.49</ele>
  <time>2026-08-28T19:11:32Z</time>
  <course>86.34</course>
  <speed>0.01</speed>
  <fix>3d</fix>
</trkpt>
<trkpt lat="40.0729507" lon="-105.2308499">
  <ele>1595.57</ele>
  <time>2026-08-28T19:11:32Z</time>
  <course>9.86</course>
  <speed>0.01</speed>
  <fix>3d</fix>
</trkpt>
<trkpt lat="40.0729507" lon="-105.2308498">
  <ele>1595.49</ele>
  <time>2026-08-28T19:11:32Z</time>
  <course>84.97</course>
  <speed>0.0</speed>
  <fix>3d</fix>
</trkpt>
<trkpt lat="40.0729507" lon="-105.2308498">
  <ele>1595.57</ele>
  <time>2026-08-28T19:11:32Z</time>
  <course>9.61</course>
  <speed>0.01</speed>
  <fix>3d</fix>
</trkpt>
<trkpt lat="40.0729507" lon="-105.2308498">
  <ele>1595.49</ele>
  <time>2026-08-28T19:11:32Z</time>
  <course>91.06</course>
  <speed>0.0</speed>
  <fix>3d</fix>
</trkpt>
<trkpt lat="40.0729507" lon="-105.2308498">
  <ele>1595.57</ele>
  <time>2026-08-28T19:11:32Z</time>
  <course>9.85</course>
  <speed>0.0</speed>
  <fix>3d</fix>
</trkpt>
<trkpt lat="40.0729507" lon="-105.2308498">
  <ele>1595.49</ele>
  <time>2026-08-28T19:11:32Z</time>
  <course>117.68</course>
  <speed>0.0</speed>
  <fix>3d</fix>
</trkpt>
<trkpt lat="40.0729507" lon="-105.2308499">
  <ele>1595.57</ele>
  <time>2026-08-28T19:11:32Z</time>
  <course>10.55</course>
  <speed>0.0</speed>
  <fix>3d</fix>
</trkpt>
<trkpt lat="40.0729507" lon="-105.2308498">
  <ele>1595.49</ele>
  <time>2026-08-28T19:11:32Z</time>
  <course>187.83</course>
  <speed>0.0</speed>
  <fix>3d</fix>
</trkpt>
<trkpt lat="40.0729507" lon="-105.2308499">
  <ele>1595.57</ele>
  <time>2026-08-28T19:11:32Z</time>
  <course>11.67</course>
  <speed>0.0</speed>
  <fix>3d</fix>
</trkpt>
<trkpt lat="40.0729507" lon="-105.2308498">
  <ele>1595.49</ele>
  <time>2026-08-28T19:11:32Z</time>
  <course>221.52</course>
  <speed>0.0</speed>
  <fix>3d</fix>
</trkpt>
<trkpt lat="40.0729507" lon="-105.2308499">
  <ele>1595.57</ele>
  <time>2026-08-28T19:11:32Z</time>
  <course>13.04</course>
  <speed>0.0</speed>
  <fix>3d</fix>
</trkpt>
<trkpt lat="40.0729507" lon="-105.2308498">
  <ele>1595.49</ele>
  <time>2026-08-28T19:11:32Z</time>
  <course>224.39</course>
  <speed>0.0</speed>
  <fix>3d</fix>
</trkpt>
<trkpt lat="40.0729507" lon="-105.2308499">
  <ele>1595.57</ele>
  <time>2026-08-28T19:11:32Z</time>
  <course>14.55</course>
  <speed>0.0</speed>
  <fix>3d</fix>
</trkpt>
<trkpt lat="40.0729507" lon="-105.2308498">
  <ele>1595.49</ele>
  <time>2026-08-28T19:11:32Z</time>
  <course>216.47</course>
  <speed>0.0</speed>
  <fix>3d</fix>
</trkpt>
<trkpt lat="40.0729507" lon="-105.2308499">
  <ele>1595.57</ele>
  <time>2026-08-28T19:11:32Z</time>
  <course>16.06</course>
  <speed>0.0</speed>
  <fix>3d</fix>
</trkpt>
<trkpt lat="40.0729507" lon="-105.2308498">
  <ele>1595.49</ele>
  <time>2026-08-28T19:11:32Z</time>
  <course>203.07</course>
  <speed>0.0</speed>
  <fix>3d</fix>
</trkpt>
<trkpt lat="40.0729507" lon="-105.2308499">
  <ele>1595.57</ele>
  <time>2026-08-28T19:11:32Z</time>
  <course>17.43</course>
  <speed>0.0</speed>
  <fix>3d</fix>
</trkpt>
<trkpt lat="40.0729507" lon="-105.2308498">
  <ele>1595.49</ele>
  <time>2026-08-28T19:11:32Z</time>
  <course>187.62</course>
  <speed>0.0</speed>
  <fix>3d</fix>
</trkpt>
<trkpt lat="40.0729507" lon="-105.2308499">
  <ele>1595.57</ele>
  <time>2026-08-28T19:11:32Z</time>
  <course>18.51</course>
  <speed>0.0</speed>
  <fix>3d</fix>
</trkpt>
<trkpt lat="40.0729507" lon="-105.2308498">
  <ele>1595.49</ele>
  <time>2026-08-28T19:11:32Z</time>
  <course>171.27</course>
  <speed>0.0</speed>
  <fix>3d</fix>
</trkpt>
<trkpt lat="40.0729507" lon="-105.2308499">
  <ele>1595.57</ele>
  <time>2026-08-28T19:11:32Z</time>
  <course>19.2</course>
  <speed>0.0</speed>
  <fix>3d</fix>
</trkpt>
<trkpt lat="40.0729507" lon="-105.2308498">
  <ele>1595.49</ele>
  <time>2026-08-28T19:11:32Z</time>
  <course>154.0</course>
  <speed>0.0</speed>
  <fix>3d</fix>
</trkpt>
<trkpt lat="40.0729507" lon="-105.2308498">
  <ele>1595.57</ele>
  <time>2026-08-28T19:11:32Z</time>
  <course>19.43</course>
  <speed>0.0</speed>
  <fix>3d</fix>
</trkpt>
<trkpt lat="40.0729507" lon="-105.2308498">
  <ele>1595.49</ele>
  <time>2026-08-28T19:11:32Z</time>
  <course>136.9</course>
  <speed>0.01</speed>
  <fix>3d</fix>
</trkpt>
<trkpt lat="40.0729507" lon="-105.2308498">
  <ele>1595.57</ele>
  <time>2026-08-28T19:11:32Z</time>
  <course>19.19</course>
  <speed>0.0</speed>
  <fix>3d</fix>
</trkpt>
<trkpt lat="40.0729507" lon="-105.2308498">
  <ele>1595.49</ele>
  <time>2026-08-28T19:11:32Z</time>
  <course>122.74</course>
  <speed>0.01</speed>
  <fix>3d</fix>
</trkpt>
<trkpt lat="40.0729507" lon="-105.2308498">
  <ele>1595.57</ele>
  <time>2026-08-28T19:11:32Z</time>
  <course>18.49</course>
  <speed>0.01</speed>
  <fix>3d</fix>
</trkpt>
<trkpt lat="40.0729506" lon="-105.2308497">
  <ele>1595.49</ele>
  <time>2026-08-28T19:11:32Z</time>
  <course>114.31</course>
  <speed>0.01</speed>
  <fix>3d</fix>
</trkpt>
<trkpt lat="40.0729507" lon="-105.2308498">
  <ele>1595.57</ele>
  <time>2026-08-28T19:11:32Z</time>
  <course>17.38</course>
  <speed>0.01</speed>
  <fix>3d</fix>
</trkpt>
<trkpt lat="40.0729506" lon="-105.2308496">
  <ele>1595.49</ele>
  <time>2026-08-28T19:11:32Z</time>
  <course>110.76</course>
  <speed>0.01</speed>
  <fix>3d</fix>
</trkpt>
<trkpt lat="40.0729507" lon="-105.2308497">
  <ele>1595.57</ele>
  <time>2026-08-28T19:11:32Z</time>
  <course>16.01</course>
  <speed>0.01</speed>
  <fix>3d</fix>
</trkpt>
<trkpt lat="40.0729506" lon="-105.2308496">
  <ele>1595.49</ele>
  <time>2026-08-28T19:11:32Z</time>
  <course>108.39</course>
  <speed>0.01</speed>
  <fix>3d</fix>
</trkpt>
<trkpt lat="40.0729507" lon="-105.2308497">
  <ele>1595.57</ele>
  <time>2026-08-28T19:11:32Z</time>
  <course>14.5</course>
  <speed>0.01</speed>
  <fix>3d</fix>
</trkpt>
<trkpt lat="40.0729506" lon="-105.2308496">
  <ele>1595.49</ele>
  <time>2026-08-28T19:11:32Z</time>
  <course>105.5</course>
  <speed>0.01</speed>
  <fix>3d</fix>
</trkpt>
<trkpt lat="40.0729507" lon="-105.2308496">
  <ele>1595.57</ele>
  <time>2026-08-28T19:11:32Z</time>
  <course>13.0</course>
  <speed>0.01</speed>
  <fix>3d</fix>
</trkpt>
<trkpt lat="40.0729506" lon="-105.2308496">
  <ele>1595.49</ele>
  <time>2026-08-28T19:11:32Z</time>
  <course>103.05</course>
  <speed>0.01</speed>
  <fix>3d</fix>
</trkpt>
<trkpt lat="40.0729507" lon="-105.2308496">
  <ele>1595.57</ele>
  <time>2026-08-28T19:11:32Z</time>
  <course>11.63</course>
  <speed>0.0</speed>
  <fix>3d</fix>
</trkpt>
<trkpt lat="40.0729506" lon="-105.2308496">
  <ele>1595.49</ele>
  <time>2026-08-28T19:11:32Z</time>
  <course>101.15</course>
  <speed>0.01</speed>
  <fix>3d</fix>
</trkpt>
<trkpt lat="40.0729507" lon="-105.2308496">
  <ele>1595.57</ele>
  <time>2026-08-28T19:11:32Z</time>
  <course>10.56</course>
  <speed>0.01</speed>
  <fix>3d</fix>
</trkpt>
<trkpt lat="40.0729506" lon="-105.2308495">
  <ele>1595.49</ele>
  <time>2026-08-28T19:11:32Z</time>
  <course>99.81</course>
  <speed>0.01</speed>
  <fix>3d</fix>
</trkpt>
<trkpt lat="40.0729507" lon="-105.2308495">
  <ele>1595.57</ele>
  <time>2026-08-28T19:11:32Z</time>
  <course>9.86</course>
  <speed>0.01</speed>
  <fix>3d</fix>
</trkpt>
<trkpt lat="40.0729506" lon="-105.2308494">
  <ele>1595.49</ele>
  <time>2026-08-28T19:11:32Z</time>
  <course>100.28</course>
  <speed>0.01</speed>
  <fix>3d</fix>
</trkpt>
<trkpt lat="40.0729507" lon="-105.2308495">
  <ele>1595.57</ele>
  <time>2026-08-28T19:11:32Z</time>
  <course>9.64</course>
  <speed>0.0</speed>
  <fix>3d</fix>
</trkpt>
<trkpt lat="40.0729506" lon="-105.2308494">
  <ele>1595.49</ele>
  <time>2026-08-28T19:11:32Z</time>
  <course>105.83</course>
  <speed>0.0</speed>
  <fix>3d</fix>
</trkpt>
<trkpt lat="40.0729507" lon="-105.2308495">
  <ele>1595.58</ele>
  <time>2026-08-28T19:11:32Z</time>
  <course>9.88</course>
  <speed>0.0</speed>
  <fix>3d</fix>
</trkpt>
<trkpt lat="40.0729506" lon="-105.2308494">
  <ele>1595.49</ele>
  <time>2026-08-28T19:11:32Z</time>
  <course>116.8</course>
  <speed>0.0</speed>
  <fix>3d</fix>
</trkpt>
<trkpt lat="40.0729507" lon="-105.2308495">
  <ele>1595.57</ele>
  <time>2026-08-28T19:11:32Z</time>
  <course>10.57</course>
  <speed>0.0</speed>
  <fix>3d</fix>
</trkpt>
<trkpt lat="40.0729506" lon="-105.2308494">
  <ele>1595.48</ele>
  <time>2026-08-28T19:11:32Z</time>
  <course>132.45</course>
  <speed>0.0</speed>
  <fix>3d</fix>
</trkpt>
<trkpt lat="40.0729507" lon="-105.2308495">
  <ele>1595.57</ele>
  <time>2026-08-28T19:11:32Z</time>
  <course>11.67</course>
  <speed>0.0</speed>
  <fix>3d</fix>
</trkpt>
<trkpt lat="40.0729506" lon="-105.2308494">
  <ele>1595.48</ele>
  <time>2026-08-28T19:11:32Z</time>
  <course>157.26</course>
  <speed>0.0</speed>
  <fix>3d</fix>
</trkpt>
<trkpt lat="40.0729507" lon="-105.2308495">
  <ele>1595.57</ele>
  <time>2026-08-28T19:11:32Z</time>
  <course>13.04</course>
  <speed>0.0</speed>
  <fix>3d</fix>
</trkpt>
<trkpt lat="40.0729506" lon="-105.2308494">
  <ele>1595.48</ele>
  <time>2026-08-28T19:11:32Z</time>
  <course>172.43</course>
  <speed>0.0</speed>
  <fix>3d</fix>
</trkpt>
<trkpt lat="40.0729507" lon="-105.2308495">
  <ele>1595.57</ele>
  <time>2026-08-28T19:11:32Z</time>
  <course>14.56</course>
  <speed>0.0</speed>
  <fix>3d</fix>
</trkpt>
<trkpt lat="40.0729506" lon="-105.2308494">
  <ele>1595.48</ele>
  <time>2026-08-28T19:11:32Z</time>
  <course>175.27</course>
  <speed>0.0</speed>
  <fix>3d</fix>
</trkpt>
<trkpt lat="40.0729507" lon="-105.2308495">
  <ele>1595.57</ele>
  <time>2026-08-28T19:11:32Z</time>
  <course>16.04</course>
  <speed>0.0</speed>
  <fix>3d</fix>
</trkpt>
<trkpt lat="40.0729505" lon="-105.2308494">
  <ele>1595.48</ele>
  <time>2026-08-28T19:11:32Z</time>
  <course>172.2</course>
  <speed>0.0</speed>
  <fix>3d</fix>
</trkpt>
<trkpt lat="40.0729507" lon="-105.2308495">
  <ele>1595.56</ele>
  <time>2026-08-28T19:11:32Z</time>
  <course>17.41</course>
  <speed>0.0</speed>
  <fix>3d</fix>
</trkpt>
<trkpt lat="40.0729505" lon="-105.2308494">
  <ele>1595.48</ele>
  <time>2026-08-28T19:11:32Z</time>
  <course>165.9</course>
  <speed>0.0</speed>
  <fix>3d</fix>
</trkpt>
<trkpt lat="40.0729506" lon="-105.2308495">
  <ele>1595.57</ele>
  <time>2026-08-28T19:11:32Z</time>
  <course>18.49</course>
  <speed>0.0</speed>
  <fix>3d</fix>
</trkpt>
<trkpt lat="40.0729505" lon="-105.2308494">
  <ele>1595.48</ele>
  <time>2026-08-28T19:11:32Z</time>
  <course>156.7</course>
  <speed>0.0</speed>
  <fix>3d</fix>
</trkpt>
<trkpt lat="40.0729506" lon="-105.2308495">
  <ele>1595.56</ele>
  <time>2026-08-28T19:11:32Z</time>
  <course>19.2</course>
  <speed>0.0</speed>
  <fix>3d</fix>
</trkpt>
<trkpt lat="40.0729505" lon="-105.2308494">
  <ele>1595.48</ele>
  <time>2026-08-28T19:11:32Z</time>
  <course>144.37</course>
  <speed>0.01</speed>
  <fix>3d</fix>
</trkpt>
<trkpt lat="40.0729506" lon="-105.2308494">
  <ele>1595.56</ele>
  <time>2026-08-28T19:11:32Z</time>
  <course>19.44</course>
  <speed>0.0</speed>
  <fix>3d</fix>
</trkpt>
<trkpt lat="40.0729505" lon="-105.2308494">
  <ele>1595.48</ele>
  <time>2026-08-28T19:11:32Z</time>
  <course>133.03</course>
  <speed>0.01</speed>
  <fix>3d</fix>
</trkpt>
<trkpt lat="40.0729506" lon="-105.2308494">
  <ele>1595.56</ele>
  <time>2026-08-28T19:11:32Z</time>
  <course>19.18</course>
  <speed>0.0</speed>
  <fix>3d</fix>
</trkpt>
<trkpt lat="40.0729505" lon="-105.2308494">
  <ele>1595.48</ele>
  <time>2026-08-28T19:11:32Z</time>
  <course>123.99</course>
  <speed>0.01</speed>
  <fix>3d</fix>
</trkpt>
<trkpt lat="40.0729506" lon="-105.2308494">
  <ele>1595.55</ele>
  <time>2026-08-28T19:11:32Z</time>
  <course>18.45</course>
  <speed>0.01</speed>
  <fix>3d</fix>
</trkpt>
<trkpt lat="40.0729504" lon="-105.2308493">
  <ele>1595.48</ele>
  <time>2026-08-28T19:11:32Z</time>
  <course>116.41</course>
  <speed>0.01</speed>
  <fix>3d</fix>
</trkpt>
<trkpt lat="40.0729506" lon="-105.2308493">
  <ele>1595.55</ele>
  <time>2026-08-28T19:11:32Z</time>
  <course>17.35</course>
  <speed>0.01</speed>
  <fix>3d</fix>
</trkpt>
<trkpt lat="40.0729503" lon="-105.2308492">
  <ele>1595.48</ele>
  <time>2026-08-28T19:11:32Z</time>
  <course>109.59</course>
  <speed>0.01</speed>
  <fix>3d</fix>
</trkpt>
<trkpt lat="40.0729505" lon="-105.2308493">
  <ele>1595.56</ele>
  <time>2026-08-28T19:11:32Z</time>
  <course>15.98</course>
  <speed>0.01</speed>
  <fix>3d</fix>
</trkpt>
<trkpt lat="40.0729503" lon="-105.2308492">
  <ele>1595.48</ele>
  <time>2026-08-28T19:11:32Z</time>
  <course>103.48</course>
  <speed>0.02</speed>
  <fix>3d</fix>
</trkpt>
<trkpt lat="40.0729505" lon="-105.2308492">
  <ele>1595.56</ele>
  <time>2026-08-28T19:11:32Z</time>
  <course>14.48</course>
  <speed>0.01</speed>
  <fix>3d</fix>
</trkpt>
<trkpt lat="40.0729503" lon="-105.2308492">
  <ele>1595.48</ele>
  <time>2026-08-28T19:11:32Z</time>
  <course>98.79</course>
  <speed>0.02</speed>
  <fix>3d</fix>
</trkpt>
<trkpt lat="40.0729505" lon="-105.2308492">
  <ele>1595.57</ele>
  <time>2026-08-28T19:11:32Z</time>
  <course>13.0</course>
  <speed>0.01</speed>
  <fix>3d</fix>
</trkpt>
<trkpt lat="40.0729503" lon="-105.2308492">
  <ele>1595.49</ele>
  <time>2026-08-28T19:11:33Z</time>
  <course>95.35</course>
  <speed>0.01</speed>
  <fix>3d</fix>
</trkpt>
<trkpt lat="40.0729505" lon="-105.2308492">
  <ele>1595.57</ele>
  <time>2026-08-28T19:11:33Z</time>
  <course>11.64</course>
  <speed>0.01414213562373095</speed>
  <fix>3d</fix>
</trkpt>
<trkpt lat="40.0729503" lon="-105.2308491">
  <ele>1595.49</ele>
  <time>2026-08-28T19:11:33Z</time>
  <course>92.5</course>
  <speed>0.01</speed>
  <fix>3d</fix>
</trkpt>
<trkpt lat="40.0729505" lon="-105.2308491">
  <ele>1595.57</ele>
  <time>2026-08-28T19:11:33Z</time>
  <course>10.56</course>
  <speed>0.01</speed>
  <fix>3d</fix>
</trkpt>
<trkpt lat="40.0729503" lon="-105.2308491">
  <ele>1595.49</ele>
  <time>2026-08-28T19:11:33Z</time>
  <course>91.2</course>
  <speed>0.01</speed>
  <fix>3d</fix>
</trkpt>
<trkpt lat="40.0729505" lon="-105.2308491">
  <ele>1595.57</ele>
  <time>2026-08-28T19:11:33Z</time>
  <course>9.87</course>
  <speed>0.0</speed>
  <fix>3d</fix>
</trkpt>
<trkpt lat="40.0729503" lon="-105.230849">
  <ele>1595.49</ele>
  <time>2026-08-28T19:11:33Z</time>
  <course>92.95</course>
  <speed>0.01</speed>
  <fix>3d</fix>
</trkpt>
<trkpt lat="40.0729505" lon="-105.2308491">
  <ele>1595.57</ele>
  <time>2026-08-28T19:11:33Z</time>
  <course>9.63</course>
  <speed>0.0</speed>
  <fix>3d</fix>
</trkpt>
<trkpt lat="40.0729503" lon="-105.2308489">
  <ele>1595.49</ele>
  <time>2026-08-28T19:11:33Z</time>
  <course>98.97</course>
  <speed>0.01</speed>
  <fix>3d</fix>
</trkpt>
<trkpt lat="40.0729505" lon="-105.2308491">
  <ele>1595.57</ele>
  <time>2026-08-28T19:11:33Z</time>
  <course>9.86</course>
  <speed>0.0</speed>
  <fix>3d</fix>
</trkpt>
<trkpt lat="40.0729503" lon="-105.2308489">
  <ele>1595.49</ele>
  <time>2026-08-28T19:11:33Z</time>
  <course>109.71</course>
  <speed>0.0</speed>
  <fix>3d</fix>
</trkpt>
<trkpt lat="40.0729505" lon="-105.230849">
  <ele>1595.57</ele>
  <time>2026-08-28T19:11:33Z</time>
  <course>10.55</course>
  <speed>0.0</speed>
  <fix>3d</fix>
</trkpt>
<trkpt lat="40.0729503" lon="-105.2308489">
  <ele>1595.49</ele>
  <time>2026-08-28T19:11:33Z</time>
  <course>123.68</course>
  <speed>0.0</speed>
  <fix>3d</fix>
</trkpt>
<trkpt lat="40.0729504" lon="-105.230849">
  <ele>1595.57</ele>
  <time>2026-08-28T19:11:33Z</time>
  <course>11.68</course>
  <speed>0.0</speed>
  <fix>3d</fix>
</trkpt>
<trkpt lat="40.0729503" lon="-105.2308489">
  <ele>1595.49</ele>
  <time>2026-08-28T19:11:33Z</time>
  <course>138.26</course>
  <speed>0.0</speed>
  <fix>3d</fix>
</trkpt>
<trkpt lat="40.0729504" lon="-105.230849">
  <ele>1595.57</ele>
  <time>2026-08-28T19:11:33Z</time>
  <course>13.07</course>
  <speed>0.0</speed>
  <fix>3d</fix>
</trkpt>
<trkpt lat="40.0729503" lon="-105.2308489">
  <ele>1595.49</ele>
  <time>2026-08-28T19:11:33Z</time>
  <course>151.63</course>
  <speed>0.0</speed>
  <fix>3d</fix>
</trkpt>
<trkpt lat="40.0729504" lon="-105.230849">
  <ele>1595.57</ele>
  <time>2026-08-28T19:11:33Z</time>
  <course>14.56</course>
  <speed>0.0</speed>
  <fix>3d</fix>
</trkpt>
<trkpt lat="40.0729503" lon="-105.2308489">
  <ele>1595.49</ele>
  <time>2026-08-28T19:11:33Z</time>
  <course>157.98</course>
  <speed>0.0</speed>
  <fix>3d</fix>
</trkpt>
<trkpt lat="40.0729504" lon="-105.230849">
  <ele>1595.57</ele>
  <time>2026-08-28T19:11:33Z</time>
  <course>16.04</course>
  <speed>0.0</speed>
  <fix>3d</fix>
</trkpt>
<trkpt lat="40.0729503" lon="-105.2308489">
  <ele>1595.49</ele>
  <time>2026-08-28T19:11:33Z</time>
  <course>156.77</course>
  <speed>0.0</speed>
  <fix>3d</fix>
</trkpt>
<trkpt lat="40.0729504" lon="-105.230849">
  <ele>1595.58</ele>
  <time>2026-08-28T19:11:33Z</time>
  <course>17.42</course>
  <speed>0.0</speed>
  <fix>3d</fix>
</trkpt>
<trkpt lat="40.0729503" lon="-105.2308489">
  <ele>1595.49</ele>
  <time>2026-08-28T19:11:33Z</time>
  <course>151.27</course>
  <speed>0.0</speed>
  <fix>3d</fix>
</trkpt>
<trkpt lat="40.0729504" lon="-105.230849">
  <ele>1595.58</ele>
  <time>2026-08-28T19:11:33Z</time>
  <course>18.54</course>
  <speed>0.0</speed>
  <fix>3d</fix>
</trkpt>
<trkpt lat="40.0729502" lon="-105.2308489">
  <ele>1595.49</ele>
  <time>2026-08-28T19:11:33Z</time>
  <course>143.36</course>
  <speed>0.01</speed>
  <fix>3d</fix>
</trkpt>
<trkpt lat="40.0729504" lon="-105.230849">
  <ele>1595.58</ele>
  <time>2026-08-28T19:11:33Z</time>
  <course>19.23</course>
  <speed>0.0</speed>
  <fix>3d</fix>
</trkpt>
<trkpt lat="40.0729502" lon="-105.2308489">
  <ele>1595.49</ele>
  <time>2026-08-28T19:11:33Z</time>
  <course>135.06</course>
  <speed>0.01</speed>
  <fix>3d</fix>
</trkpt>
<trkpt lat="40.0729503" lon="-105.2308489">
  <ele>1595.59</ele>
  <time>2026-08-28T19:11:33Z</time>
  <course>19.48</course>
  <speed>0.0</speed>
  <fix>3d</fix>
</trkpt>
<trkpt lat="40.0729502" lon="-105.2308489">
  <ele>1595.49</ele>
  <time>2026-08-28T19:11:33Z</time>
  <course>127.63</course>
  <speed>0.01</speed>
  <fix>3d</fix>
</trkpt>
<trkpt lat="40.0729503" lon="-105.2308489">
  <ele>1595.59</ele>
  <time>2026-08-28T19:11:33Z</time>
  <course>19.23</course>
  <speed>0.01</speed>
  <fix>3d</fix>
</trkpt>
<trkpt lat="40.0729502" lon="-105.2308488">
  <ele>1595.49</ele>
  <time>2026-08-28T19:11:33Z</time>
  <course>121.28</course>
  <speed>0.01</speed>
  <fix>3d</fix>
</trkpt>
<trkpt lat="40.0729503" lon="-105.2308489">
  <ele>1595.59</ele>
  <time>2026-08-28T19:11:33Z</time>
  <course>18.55</course>
  <speed>0.01</speed>
  <fix>3d</fix>
</trkpt>
<trkpt lat="40.0729502" lon="-105.2308487">
  <ele>1595.48</ele>
  <time>2026-08-28T19:11:33Z</time>
  <course>115.42</course>
  <speed>0.02</speed>
  <fix>3d</fix>
</trkpt>
<trkpt lat="40.0729503" lon="-105.2308488">
  <ele>1595.58</ele>
  <time>2026-08-28T19:11:33Z</time>
  <course>17.47</course>
  <speed>0.01</speed>
  <fix>3d</fix>
</trkpt>
<trkpt lat="40.0729502" lon="-105.2308487">
  <ele>1595.48</ele>
  <time>2026-08-28T19:11:33Z</time>
  <course>110.36</course>
  <speed>0.02</speed>
  <fix>3d</fix>
</trkpt>
<trkpt lat="40.0729503" lon="-105.2308487">
  <ele>1595.58</ele>
  <time>2026-08-28T19:11:33Z</time>
  <course>16.08</course>
  <speed>0.01</speed>
  <fix>3d</fix>
</trkpt>
<trkpt lat="40.0729502" lon="-105.2308487">
  <ele>1595.47</ele>
  <time>2026-08-28T19:11:33Z</time>
  <course>106.3</course>
  <speed>0.02</speed>
  <fix>3d</fix>
</trkpt>
<trkpt lat="40.0729503" lon="-105.2308487">
  <ele>1595.58</ele>
  <time>2026-08-28T19:11:33Z</time>
  <course>14.59</course>
  <speed>0.01</speed>
  <fix>3d</fix>
</trkpt>
<trkpt lat="40.0729502" lon="-105.2308486">
  <ele>1595.47</ele>
  <time>2026-08-28T19:11:33Z</time>
  <course>103.56</course>
  <speed>0.02</speed>
  <fix>3d</fix>
</trkpt>
<trkpt lat="40.0729503" lon="-105.2308486">
  <ele>1595.58</ele>
  <time>2026-08-28T19:11:33Z</time>
  <course>13.04</course>
  <speed>0.01414213562373095</speed>
  <fix>3d</fix>
</trkpt>
<trkpt lat="40.0729502" lon="-105.2308486">
  <ele>1595.47</ele>
  <time>2026-08-28T19:11:33Z</time>
  <course>102.02</course>
  <speed>0.02</speed>
  <fix>3d</fix>
</trkpt>
<trkpt lat="40.0729503" lon="-105.2308486">
  <ele>1595.57</ele>
  <time>2026-08-28T19:11:33Z</time>
  <course>11.65</course>
  <speed>0.01414213562373095</speed>
  <fix>3d</fix>
</trkpt>
<trkpt lat="40.0729502" lon="-105.2308485">
  <ele>1595.46</ele>
  <time>2026-08-28T19:11:33Z</time>
  <course>101.33</course>
  <speed>0.02</speed>
  <fix>3d</fix>
</trkpt>
<trkpt lat="40.0729503" lon="-105.2308486">
  <ele>1595.57</ele>
  <time>2026-08-28T19:11:33Z</time>
  <course>10.56</course>
  <speed>0.01</speed>
  <fix>3d</fix>
</trkpt>
<trkpt lat="40.0729502" lon="-105.2308484">
  <ele>1595.46</ele>
  <time>2026-08-28T19:11:33Z</time>
  <course>101.91</course>
  <speed>0.02</speed>
  <fix>3d</fix>
</trkpt>
<trkpt lat="40.0729503" lon="-105.2308485">
  <ele>1595.57</ele>
  <time>2026-08-28T19:11:33Z</time>
  <course>9.86</course>
  <speed>0.01</speed>
  <fix>3d</fix>
</trkpt>
<trkpt lat="40.0729502" lon="-105.2308484">
  <ele>1595.46</ele>
  <time>2026-08-28T19:11:33Z</time>
  <course>104.75</course>
  <speed>0.01</speed>
  <fix>3d</fix>
</trkpt>
<trkpt lat="40.0729503" lon="-105.2308485">
  <ele>1595.57</ele>
  <time>2026-08-28T19:11:33Z</time>
  <course>9.64</course>
  <speed>0.0</speed>
  <fix>3d</fix>
</trkpt>
<trkpt lat="40.0729502" lon="-105.2308484">
  <ele>1595.46</ele>
  <time>2026-08-28T19:11:33Z</time>
  <course>111.51</course>
  <speed>0.01</speed>
  <fix>3d</fix>
</trkpt>
<trkpt lat="40.0729503" lon="-105.2308485">
  <ele>1595.57</ele>
  <time>2026-08-28T19:11:33Z</time>
  <course>9.88</course>
  <speed>0.0</speed>
  <fix>3d</fix>
</trkpt>
<trkpt lat="40.0729502" lon="-105.2308484">
  <ele>1595.46</ele>
  <time>2026-08-28T19:11:33Z</time>
  <course>120.65</course>
  <speed>0.01</speed>
  <fix>3d</fix>
</trkpt>
<trkpt lat="40.0729503" lon="-105.2308484">
  <ele>1595.57</ele>
  <time>2026-08-28T19:11:33Z</time>
  <course>10.57</course>
  <speed>0.0</speed>
  <fix>3d</fix>
</trkpt>
<trkpt lat="40.0729502" lon="-105.2308483">
  <ele>1595.45</ele>
  <time>2026-08-28T19:11:33Z</time>
  <course>130.23</course>
  <speed>0.01</speed>
  <fix>3d</fix>
</trkpt>
<trkpt lat="40.0729503" lon="-105.2308484">
  <ele>1595.57</ele>
  <time>2026-08-28T19:11:33Z</time>
  <course>11.68</course>
  <speed>0.0</speed>
  <fix>3d</fix>
</trkpt>
<trkpt lat="40.0729501" lon="-105.2308482">
  <ele>1595.45</ele>
  <time>2026-08-28T19:11:33Z</time>
  <course>141.66</course>
  <speed>0.01</speed>
  <fix>3d</fix>
</trkpt>
<trkpt lat="40.0729503" lon="-105.2308484">
  <ele>1595.57</ele>
  <time>2026-08-28T19:11:33Z</time>
  <course>13.03</course>
  <speed>0.0</speed>
  <fix>3d</fix>
</trkpt>
<trkpt lat="40.0729501" lon="-105.2308482">
  <ele>1595.45</ele>
  <time>2026-08-28T19:11:33Z</time>
  <course>149.5</course>
  <speed>0.01</speed>
  <fix>3d</fix>
</trkpt>
<trkpt lat="40.0729502" lon="-105.2308484">
  <ele>1595.57</ele>
  <time>2026-08-28T19:11:33Z</time>
  <course>14.55</course>
  <speed>0.0</speed>
  <fix>3d</fix>
</trkpt>
<trkpt lat="40.0729501" lon="-105.2308482">
  <ele>1595.45</ele>
  <time>2026-08-28T19:11:33Z</time>
  <course>151.31</course>
  <speed>0.01</speed>
  <fix>3d</fix>
</trkpt>
<trkpt lat="40.0729502" lon="-105.2308484">
  <ele>1595.57</ele>
  <time>2026-08-28T19:11:33Z</time>
  <course>16.05</course>
  <speed>0.0</speed>
  <fix>3d</fix>
</trkpt>
<trkpt lat="40.0729501" lon="-105.2308482">
  <ele>1595.45</ele>
  <time>2026-08-28T19:11:33Z</time>
  <course>150.0</course>
  <speed>0.01</speed>
  <fix>3d</fix>
</trkpt>
<trkpt lat="40.0729502" lon="-105.2308483">
  <ele>1595.56</ele>
  <time>2026-08-28T19:11:33Z</time>
  <course>17.4</course>
  <speed>0.0</speed>
  <fix>3d</fix>
</trkpt>
<trkpt lat="40.07295" lon="-105.2308482">
  <ele>1595.45</ele>
  <time>2026-08-28T19:11:33Z</time>
  <course>147.13</course>
  <speed>0.01</speed>
  <fix>3d</fix>
</trkpt>
<trkpt lat="40.0729502" lon="-105.2308483">
  <ele>1595.56</ele>
  <time>2026-08-28T19:11:33Z</time>
  <course>18.48</course>
  <speed>0.0</speed>
  <fix>3d</fix>
</trkpt>
<trkpt lat="40.07295" lon="-105.2308482">
  <ele>1595.45</ele>
  <time>2026-08-28T19:11:33Z</time>
  <course>142.84</course>
  <speed>0.01</speed>
  <fix>3d</fix>
</trkpt>
<trkpt lat="40.0729501" lon="-105.2308483">
  <ele>1595.56</ele>
  <time>2026-08-28T19:11:33Z</time>
  <course>19.19</course>
  <speed>0.0</speed>
  <fix>3d</fix>
</trkpt>
<trkpt lat="40.07295" lon="-105.2308482">
  <ele>1595.45</ele>
  <time>2026-08-28T19:11:33Z</time>
  <course>137.63</course>
  <speed>0.01</speed>
  <fix>3d</fix>
</trkpt>
<trkpt lat="40.0729501" lon="-105.2308482">
  <ele>1595.56</ele>
  <time>2026-08-28T19:11:33Z</time>
  <course>19.43</course>
  <speed>0.01</speed>
  <fix>3d</fix>
</trkpt>
<trkpt lat="40.07295" lon="-105.2308482">
  <ele>1595.45</ele>
  <time>2026-08-28T19:11:33Z</time>
  <course>131.83</course>
  <speed>0.02</speed>
  <fix>3d</fix>
</trkpt>
<trkpt lat="40.0729501" lon="-105.2308482">
  <ele>1595.56</ele>
  <time>2026-08-28T19:11:33Z</time>
  <course>19.18</course>
  <speed>0.01</speed>
  <fix>3d</fix>
</trkpt>
<trkpt lat="40.0729499" lon="-105.2308481">
  <ele>1595.45</ele>
  <time>2026-08-28T19:11:33Z</time>
  <course>126.44</course>
  <speed>0.02</speed>
  <fix>3d</fix>
</trkpt>
<trkpt lat="40.0729501" lon="-105.2308481">
  <ele>1595.56</ele>
  <time>2026-08-28T19:11:33Z</time>
  <course>18.48</course>
  <speed>0.01</speed>
  <fix>3d</fix>
</trkpt>
<trkpt lat="40.0729499" lon="-105.230848">
  <ele>1595.45</ele>
  <time>2026-08-28T19:11:33Z</time>
  <course>122.75</course>
  <speed>0.02</speed>
  <fix>3d</fix>
</trkpt>
<trkpt lat="40.07295" lon="-105.2308481">
  <ele>1595.56</ele>
  <time>2026-08-28T19:11:33Z</time>
  <course>17.36</course>
  <speed>0.01</speed>
  <fix>3d</fix>
</trkpt>
<trkpt lat="40.0729499" lon="-105.230848">
  <ele>1595.45</ele>
  <time>2026-08-28T19:11:33Z</time>
  <course>119.32</course>
  <speed>0.02</speed>
  <fix>3d</fix>
</trkpt>
<trkpt lat="40.07295" lon="-105.230848">
  <ele>1595.56</ele>
  <time>2026-08-28T19:11:33Z</time>
  <course>15.99</course>
  <speed>0.01</speed>
  <fix>3d</fix>
</trkpt>
<trkpt lat="40.0729499" lon="-105.230848">
  <ele>1595.46</ele>
  <time>2026-08-28T19:11:33Z</time>
  <course>115.96</course>
  <speed>0.02</speed>
  <fix>3d</fix>
</trkpt>
<trkpt lat="40.07295" lon="-105.230848">
  <ele>1595.56</ele>
  <time>2026-08-28T19:11:33Z</time>
  <course>14.49</course>
  <speed>0.01</speed>
  <fix>3d</fix>
</trkpt>
<trkpt lat="40.0729499" lon="-105.2308479">
  <ele>1595.46</ele>
  <time>2026-08-28T19:11:33Z</time>
  <course>113.0</course>
  <speed>0.02</speed>
  <fix>3d</fix>
</trkpt>
<trkpt lat="40.07295" lon="-105.2308479">
  <ele>1595.57</ele>
  <time>2026-08-28T19:11:33Z</time>
  <course>12.99</course>
  <speed>0.01</speed>
  <fix>3d</fix>
</trkpt>
<trkpt lat="40.0729498" lon="-105.2308479">
  <ele>1595.46</ele>
  <time>2026-08-28T19:11:33Z</time>
  <course>110.99</course>
  <speed>0.02</speed>
  <fix>3d</fix>
</trkpt>
<trkpt lat="40.07295" lon="-105.2308479">
  <ele>1595.57</ele>
  <time>2026-08-28T19:11:33Z</time>
  <course>11.63</course>
  <speed>0.01</speed>
  <fix>3d</fix>
</trkpt>
<trkpt lat="40.0729497" lon="-105.2308478">
  <ele>1595.46</ele>
  <time>2026-08-28T19:11:33Z</time>
  <course>110.98</course>
  <speed>0.02</speed>
  <fix>3d</fix>
</trkpt>
<trkpt lat="40.07295" lon="-105.2308479">
  <ele>1595.57</ele>
  <time>2026-08-28T19:11:33Z</time>
  <course>10.56</course>
  <speed>0.0</speed>
  <fix>3d</fix>
</trkpt>
<trkpt lat="40.0729497" lon="-105.2308477">
  <ele>1595.46</ele>
  <time>2026-08-28T19:11:33Z</time>
  <course>113.26</course>
  <speed>0.02</speed>
  <fix>3d</fix>
</trkpt>
<trkpt lat="40.0729499" lon="-105.2308478">
  <ele>1595.57</ele>
  <time>2026-08-28T19:11:33Z</time>
  <course>9.86</course>
  <speed>0.0</speed>
  <fix>3d</fix>
</trkpt>
<trkpt lat="40.0729497" lon="-105.2308477">
  <ele>1595.46</ele>
  <time>2026-08-28T19:11:33Z</time>
  <course>117.9</course>
  <speed>0.01</speed>
  <fix>3d</fix>
</trkpt>
<trkpt lat="40.0729499" lon="-105.2308478">
  <ele>1595.56</ele>
  <time>2026-08-28T19:11:33Z</time>
  <course>9.62</course>
  <speed>0.0</speed>
  <fix>3d</fix>
</trkpt>
<trkpt lat="40.0729497" lon="-105.2308477">
  <ele>1595.47</ele>
  <time>2026-08-28T19:11:33Z</time>
  <course>124.24</course>
  <speed>0.01</speed>
  <fix>3d</fix>
</trkpt>
<trkpt lat="40.0729499" lon="-105.2308478">
  <ele>1595.56</ele>
  <time>2026-08-28T19:11:33Z</time>
  <course>9.61</course>
  <speed>0.0</speed>
  <fix>3d</fix>
</trkpt>
<trkpt lat="40.0729497" lon="-105.2308477">
  <ele>1595.47</ele>
  <time>2026-08-28T19:11:33Z</time>
  <course>129.26</course>
  <speed>0.01</speed>
  <fix>3d</fix>
</trkpt>
<trkpt lat="40.0729499" lon="-105.2308477">
  <ele>1595.57</ele>
  <time>2026-08-28T19:11:33Z</time>
  <course>9.62</course>
  <speed>0.0</speed>
  <fix>3d</fix>
</trkpt>
<trkpt lat="40.0729497" lon="-105.2308476">
  <ele>1595.47</ele>
  <time>2026-08-28T19:11:33Z</time>
  <course>127.53</course>
  <speed>0.01</speed>
  <fix>3d</fix>
</trkpt>
<trkpt lat="40.0729498" lon="-105.2308477">
  <ele>1595.57</ele>
  <time>2026-08-28T19:11:33Z</time>
  <course>9.62</course>
  <speed>0.0</speed>
  <fix>3d</fix>
</trkpt>
<trkpt lat="40.0729497" lon="-105.2308475">
  <ele>1595.47</ele>
  <time>2026-08-28T19:11:33Z</time>
  <course>122.46</course>
  <speed>0.01</speed>
  <fix>3d</fix>
</trkpt>
<trkpt lat="40.0729498" lon="-105.2308477">
  <ele>1595.57</ele>
  <time>2026-08-28T19:11:33Z</time>
  <course>9.62</course>
  <speed>0.0</speed>
  <fix>3d</fix>
</trkpt>
<trkpt lat="40.0729496" lon="-105.2308475">
  <ele>1595.47</ele>
  <time>2026-08-28T19:11:33Z</time>
  <course>117.88</course>
  <speed>0.01</speed>
  <fix>3d</fix>
</trkpt>
<trkpt lat="40.0729498" lon="-105.2308476">
  <ele>1595.57</ele>
  <time>2026-08-28T19:11:33Z</time>
  <course>9.63</course>
  <speed>0.0</speed>
  <fix>3d</fix>
</trkpt>
<trkpt lat="40.0729496" lon="-105.2308475">
  <ele>1595.47</ele>
  <time>2026-08-28T19:11:33Z</time>
  <course>113.76</course>
  <speed>0.01</speed>
  <fix>3d</fix>
</trkpt>
<trkpt lat="40.0729498" lon="-105.2308476">
  <ele>1595.57</ele>
  <time>2026-08-28T19:11:33Z</time>
  <course>9.63</course>
  <speed>0.0</speed>
  <fix>3d</fix>
</trkpt>
<trkpt lat="40.0729496" lon="-105.2308475">
  <ele>1595.47</ele>
  <time>2026-08-28T19:11:33Z</time>
  <course>110.06</course>
  <speed>0.01</speed>
  <fix>3d</fix>
</trkpt>
<trkpt lat="40.0729498" lon="-105.2308476">
  <ele>1595.57</ele>
  <time>2026-08-28T19:11:33Z</time>
  <course>9.63</course>
  <speed>0.01</speed>
  <fix>3d</fix>
</trkpt>
<trkpt lat="40.0729496" lon="-105.2308475">
  <ele>1595.47</ele>
  <time>2026-08-28T19:11:33Z</time>
  <course>105.86</course>
  <speed>0.01</speed>
  <fix>3d</fix>
</trkpt>
<trkpt lat="40.0729498" lon="-105.2308475">
  <ele>1595.56</ele>
  <time>2026-08-28T19:11:33Z</time>
  <course>9.63</course>
  <speed>0.01</speed>
  <fix>3d</fix>
</trkpt>
<trkpt lat="40.0729496" lon="-105.2308474">
  <ele>1595.47</ele>
  <time>2026-08-28T19:11:33Z</time>
  <course>100.97</course>
  <speed>0.01</speed>
  <fix>3d</fix>
</trkpt>
<trkpt lat="40.0729498" lon="-105.2308475">
  <ele>1595.56</ele>
  <time>2026-08-28T19:11:33Z</time>
  <course>9.63</course>
  <speed>0.01</speed>
  <fix>3d</fix>
</trkpt>
<trkpt lat="40.0729496" lon="-105.2308474">
  <ele>1595.47</ele>
  <time>2026-08-28T19:11:33Z</time>
  <course>96.29</course>
  <speed>0.01</speed>
  <fix>3d</fix>
</trkpt>
<trkpt lat="40.0729498" lon="-105.2308474">
  <ele>1595.55</ele>
  <time>2026-08-28T19:11:33Z</time>
  <course>9.61</course>
  <speed>0.01</speed>
  <fix>3d</fix>
</trkpt>
<trkpt lat="40.0729496" lon="-105.2308473">
  <ele>1595.47</ele>
  <time>2026-08-28T19:11:33Z</time>
  <course>92.45</course>
  <speed>0.02</speed>
  <fix>3d</fix>
</trkpt>
<trkpt lat="40.0729498" lon="-105.2308474">
  <ele>1595.55</ele>
  <time>2026-08-28T19:11:33Z</time>
  <course>9.59</course>
  <speed>0.01</speed>
  <fix>3d</fix>
</trkpt>
<trkpt lat="40.0729496" lon="-105.2308472">
  <ele>1595.47</ele>
  <time>2026-08-28T19:11:33Z</time>
  <course>90.14</course>
  <speed>0.02</speed>
  <fix>3d</fix>
</trkpt>
<trkpt lat="40.0729498" lon="-105.2308473">
  <ele>1595.55</ele>
  <time>2026-08-28T19:11:33Z</time>
  <course>9.57</course>
  <speed>0.01</speed>
  <fix>3d</fix>
</trkpt>
<trkpt lat="40.0729496" lon="-105.2308472">
  <ele>1595.47</ele>
  <time>2026-08-28T19:11:33Z</time>
  <course>88.19</course>
  <speed>0.02</speed>
  <fix>3d</fix>
</trkpt>
<trkpt lat="40.0729498" lon="-105.2308473">
  <ele>1595.55</ele>
  <time>2026-08-28T19:11:33Z</time>
  <course>9.58</course>
  <speed>0.01</speed>
  <fix>3d</fix>
</trkpt>
<trkpt lat="40.0729496" lon="-105.2308472">
  <ele>1595.47</ele>
  <time>2026-08-28T19:11:33Z</time>
  <course>85.95</course>
  <speed>0.02</speed>
  <fix>3d</fix>
</trkpt>
<trkpt lat="40.0729498" lon="-105.2308472">
  <ele>1595.55</ele>
  <time>2026-08-28T19:11:33Z</time>
  <course>9.6</course>
  <speed>0.01</speed>
  <fix>3d</fix>
</trkpt>
<trkpt lat="40.0729496" lon="-105.2308471">
  <ele>1595.48</ele>
  <time>2026-08-28T19:11:33Z</time>
  <course>84.05</course>
  <speed>0.02</speed>
  <fix>3d</fix>
</trkpt>
<trkpt lat="40.0729498" lon="-105.2308472">
  <ele>1595.56</ele>
  <time>2026-08-28T19:11:33Z</time>
  <course>9.58</course>
  <speed>0.01</speed>
  <fix>3d</fix>
</trkpt>
<trkpt lat="40.0729496" lon="-105.230847">
  <ele>1595.48</ele>
  <time>2026-08-28T19:11:33Z</time>
  <course>82.42</course>
  <speed>0.02</speed>
  <fix>3d</fix>
</trkpt>
<trkpt lat="40.0729498" lon="-105.2308471">
  <ele>1595.56</ele>
  <time>2026-08-28T19:11:33Z</time>
  <course>9.61</course>
  <speed>0.01</speed>
  <fix>3d</fix>
</trkpt>
<trkpt lat="40.0729496" lon="-105.230847">
  <ele>1595.49</ele>
  <time>2026-08-28T19:11:33Z</time>
  <course>80.78</course>
  <speed>0.02</speed>
  <fix>3d</fix>
</trkpt>
<trkpt lat="40.0729498" lon="-105.2308471">
  <ele>1595.57</ele>
  <time>2026-08-28T19:11:33Z</time>
  <course>9.56</course>
  <speed>0.022360679774997897</speed>
  <fix>3d</fix>
</trkpt>
<trkpt lat="40.0729496" lon="-105.230847">
  <ele>1595.49</ele>
  <time>2026-08-28T19:11:33Z</time>
  <course>79.38</course>
  <speed>0.02</speed>
  <fix>3d</fix>
</trkpt>
<trkpt lat="40.0729498" lon="-105.230847">
  <ele>1595.57</ele>
  <time>2026-08-28T19:11:33Z</time>
  <course>8.7</course>
  <speed>0.022360679774997897</speed>
  <fix>3d</fix>
</trkpt>
<trkpt lat="40.0729496" lon="-105.2308469">
  <ele>1595.5</ele>
  <time>2026-08-28T19:11:33Z</time>
  <course>80.24</course>
  <speed>0.02</speed>
  <fix>3d</fix>
</trkpt>
<trkpt lat="40.0729498" lon="-105.230847">
  <ele>1595.57</ele>
  <time>2026-08-28T19:11:33Z</time>
  <course>7.4</course>
  <speed>0.01414213562373095</speed>
  <fix>3d</fix>
</trkpt>
<trkpt lat="40.0729496" lon="-105.2308468">
  <ele>1595.5</ele>
  <time>2026-08-28T19:11:33Z</time>
  <course>81.63</course>
  <speed>0.02</speed>
  <fix>3d</fix>
</trkpt>
<trkpt lat="40.0729498" lon="-105.2308469">
  <ele>1595.57</ele>
  <time>2026-08-28T19:11:33Z</time>
  <course>6.15</course>
  <speed>0.01414213562373095</speed>
  <fix>3d</fix>
</trkpt>
<trkpt lat="40.0729496" lon="-105.2308468">
  <ele>1595.5</ele>
  <time>2026-08-28T19:11:33Z</time>
  <course>82.42</course>
  <speed>0.02</speed>
  <fix>3d</fix>
</trkpt>
<trkpt lat="40.0729498" lon="-105.2308468">
  <ele>1595.57</ele>
  <time>2026-08-28T19:11:33Z</time>
  <course>5.25</course>
  <speed>0.01</speed>
  <fix>3d</fix>
</trkpt>
<trkpt lat="40.0729496" lon="-105.2308467">
  <ele>1595.5</ele>
  <time>2026-08-28T19:11:33Z</time>
  <course>84.14</course>
  <speed>0.02</speed>
  <fix>3d</fix>
</trkpt>
<trkpt lat="40.0729498" lon="-105.2308468">
  <ele>1595.57</ele>
  <time>2026-08-28T19:11:33Z</time>
  <course>4.77</course>
  <speed>0.01</speed>
  <fix>3d</fix>
</trkpt>
<trkpt lat="40.0729496" lon="-105.2308467">
  <ele>1595.5</ele>
  <time>2026-08-28T19:11:33Z</time>
  <course>87.78</course>
  <speed>0.02</speed>
  <fix>3d</fix>
</trkpt>
<trkpt lat="40.0729498" lon="-105.2308468">
  <ele>1595.57</ele>
  <time>2026-08-28T19:11:33Z</time>
  <course>4.77</course>
  <speed>0.01</speed>
  <fix>3d</fix>
</trkpt>
<trkpt lat="40.0729496" lon="-105.2308466">
  <ele>1595.51</ele>
  <time>2026-08-28T19:11:33Z</time>
  <course>94.36</course>
  <speed>0.02</speed>
  <fix>3d</fix>
</trkpt>
<trkpt lat="40.0729498" lon="-105.2308467">
  <ele>1595.58</ele>
  <time>2026-08-28T19:11:33Z</time>
  <course>5.25</course>
  <speed>0.0</speed>
  <fix>3d</fix>
</trkpt>
<trkpt lat="40.0729496" lon="-105.2308465">
  <ele>1595.51</ele>
  <time>2026-08-28T19:11:33Z</time>
  <course>103.48</course>
  <speed>0.01</speed>
  <fix>3d</fix>
</trkpt>
<trkpt lat="40.0729498" lon="-105.2308467">
  <ele>1595.58</ele>
  <time>2026-08-28T19:11:33Z</time>
  <course>6.18</course>
  <speed>0.0</speed>
  <fix>3d</fix>
</trkpt>
<trkpt lat="40.0729496" lon="-105.2308465">
  <ele>1595.51</ele>
  <time>2026-08-28T19:11:33Z</time>
  <course>112.54</course>
  <speed>0.01</speed>
  <fix>3d</fix>
</trkpt>
<trkpt lat="40.0729497" lon="-105.2308466">
  <ele>1595.57</ele>
  <time>2026-08-28T19:11:33Z</time>
  <course>7.42</course>
  <speed>0.0</speed>
  <fix>3d</fix>
</trkpt>
<trkpt lat="40.0729496" lon="-105.2308465">
  <ele>1595.51</ele>
  <time>2026-08-28T19:11:33Z</time>
  <course>120.53</course>
  <speed>0.01</speed>
  <fix>3d</fix>
</trkpt>
<trkpt lat="40.0729497" lon="-105.2308466">
  <ele>1595.57</ele>
  <time>2026-08-28T19:11:33Z</time>
  <course>8.89</course>
  <speed>0.0</speed>
  <fix>3d</fix>
</trkpt>
<trkpt lat="40.0729496" lon="-105.2308465">
  <ele>1595.51</ele>
  <time>2026-08-28T19:11:33Z</time>
  <course>128.42</course>
  <speed>0.01</speed>
  <fix>3d</fix>
</trkpt>
<trkpt lat="40.0729497" lon="-105.2308466">
  <ele>1595.57</ele>
  <time>2026-08-28T19:11:33Z</time>
  <course>10.41</course>
  <speed>0.0</speed>
  <fix>3d</fix>
</trkpt>
<trkpt lat="40.0729496" lon="-105.2308464">
  <ele>1595.51</ele>
  <time>2026-08-28T19:11:33Z</time>
  <course>134.26</course>
  <speed>0.01</speed>
  <fix>3d</fix>
</trkpt>
<trkpt lat="40.0729497" lon="-105.2308465">
  <ele>1595.57</ele>
  <time>2026-08-28T19:11:33Z</time>
  <course>11.81</course>
  <speed>0.0</speed>
  <fix>3d</fix>
</trkpt>
<trkpt lat="40.0729496" lon="-105.2308463">
  <ele>1595.51</ele>
  <time>2026-08-28T19:11:33Z</time>
  <course>136.19</course>
  <speed>0.01</speed>
  <fix>3d</fix>
</trkpt>
<trkpt lat="40.0729497" lon="-105.2308465">
  <ele>1595.57</ele>
  <time>2026-08-28T19:11:33Z</time>
  <course>13.07</course>
  <speed>0.0</speed>
  <fix>3d</fix>
</trkpt>
<trkpt lat="40.0729496" lon="-105.2308463">
  <ele>1595.51</ele>
  <time>2026-08-28T19:11:33Z</time>
  <course>135.94</course>
  <speed>0.01</speed>
  <fix>3d</fix>
</trkpt>
<trkpt lat="40.0729497" lon="-105.2308465">
  <ele>1595.57</ele>
  <time>2026-08-28T19:11:33Z</time>
  <course>14.02</course>
  <speed>0.0</speed>
  <fix>3d</fix>
</trkpt>
<trkpt lat="40.0729496" lon="-105.2308463">
  <ele>1595.51</ele>
  <time>2026-08-28T19:11:33Z</time>
  <course>134.0</course>
  <speed>0.02</speed>
  <fix>3d</fix>
</trkpt>
<trkpt lat="40.0729496" lon="-105.2308464">
  <ele>1595.57</ele>
  <time>2026-08-28T19:11:33Z</time>
  <course>14.5</course>
  <speed>0.0</speed>
  <fix>3d</fix>
</trkpt>
<trkpt lat="40.0729496" lon="-105.2308463">
  <ele>1595.51</ele>
  <time>2026-08-28T19:11:33Z</time>
  <course>130.21</course>
  <speed>0.02</speed>
  <fix>3d</fix>
</trkpt>
<trkpt lat="40.0729496" lon="-105.2308464">
  <ele>1595.57</ele>
  <time>2026-08-28T19:11:33Z</time>
  <course>14.48</course>
  <speed>0.0</speed>
  <fix>3d</fix>
</trkpt>
<trkpt lat="40.0729495" lon="-105.2308463">
  <ele>1595.51</ele>
  <time>2026-08-28T19:11:33Z</time>
  <course>126.16</course>
  <speed>0.02</speed>
  <fix>3d</fix>
</trkpt>
<trkpt lat="40.0729496" lon="-105.2308463">
  <ele>1595.57</ele>
  <time>2026-08-28T19:11:33Z</time>
  <course>14.0</course>
  <speed>0.01</speed>
  <fix>3d</fix>
</trkpt>
<trkpt lat="40.0729495" lon="-105.2308462">
  <ele>1595.51</ele>
  <time>2026-08-28T19:11:33Z</time>
  <course>123.04</course>
  <speed>0.02</speed>
  <fix>3d</fix>
</trkpt>
<trkpt lat="40.0729496" lon="-105.2308463">
  <ele>1595.57</ele>
  <time>2026-08-28T19:11:33Z</time>
  <course>13.09</course>
  <speed>0.01</speed>
  <fix>3d</fix>
</trkpt>
<trkpt lat="40.0729495" lon="-105.2308462">
  <ele>1595.51</ele>
  <time>2026-08-28T19:11:33Z</time>
  <course>121.15</course>
  <speed>0.02</speed>
  <fix>3d</fix>
</trkpt>
<trkpt lat="40.0729496" lon="-105.2308462">
  <ele>1595.57</ele>
  <time>2026-08-28T19:11:33Z</time>
  <course>11.82</course>
  <speed>0.01</speed>
  <fix>3d</fix>
</trkpt>
<trkpt lat="40.0729495" lon="-105.2308461">
  <ele>1595.51</ele>
  <time>2026-08-28T19:11:33Z</time>
  <course>120.02</course>
  <speed>0.02</speed>
  <fix>3d</fix>
</trkpt>
<trkpt lat="40.0729496" lon="-105.2308462">
  <ele>1595.57</ele>
  <time>2026-08-28T19:11:33Z</time>
  <course>10.37</course>
  <speed>0.01</speed>
  <fix>3d</fix>
</trkpt>
<trkpt lat="40.0729494" lon="-105.230846">
  <ele>1595.51</ele>
  <time>2026-08-28T19:11:33Z</time>
  <course>119.5</course>
  <speed>0.02</speed>
  <fix>3d</fix>
</trkpt>
<trkpt lat="40.0729495" lon="-105.2308461">
  <ele>1595.57</ele>
  <time>2026-08-28T19:11:33Z</time>
  <course>8.84</course>
  <speed>0.01</speed>
  <fix>3d</fix>
</trkpt>
<trkpt lat="40.0729494" lon="-105.230846">
  <ele>1595.51</ele>
  <time>2026-08-28T19:11:33Z</time>
  <course>119.19</course>
  <speed>0.02</speed>
  <fix>3d</fix>
</trkpt>
<trkpt lat="40.0729495" lon="-105.2308461">
  <ele>1595.57</ele>
  <time>2026-08-28T19:11:33Z</time>
  <course>7.43</course>
  <speed>0.0</speed>
  <fix>3d</fix>
</trkpt>
<trkpt lat="40.0729494" lon="-105.2308459">
  <ele>1595.51</ele>
  <time>2026-08-28T19:11:33Z</time>
  <course>119.36</course>
  <speed>0.02</speed>
  <fix>3d</fix>
</trkpt>
<trkpt lat="40.0729495" lon="-105.230846">
  <ele>1595.58</ele>
  <time>2026-08-28T19:11:33Z</time>
  <course>6.18</course>
  <speed>0.0</speed>
  <fix>3d</fix>
</trkpt>
<trkpt lat="40.0729494" lon="-105.2308458">
  <ele>1595.51</ele>
  <time>2026-08-28T19:11:33Z</time>
  <course>121.04</course>
  <speed>0.02</speed>
  <fix>3d</fix>
</trkpt>
<trkpt lat="40.0729495" lon="-105.230846">
  <ele>1595.58</ele>
  <time>2026-08-28T19:11:33Z</time>
  <course>5.26</course>
  <speed>0.0</speed>
  <fix>3d</fix>
</trkpt>
<trkpt lat="40.0729493" lon="-105.2308458">
  <ele>1595.51</ele>
  <time>2026-08-28T19:11:33Z</time>
  <course>124.33</course>
  <speed>0.02</speed>
  <fix>3d</fix>
</trkpt>
<trkpt lat="40.0729495" lon="-105.2308459">
  <ele>1595.58</ele>
  <time>2026-08-28T19:11:33Z</time>
  <course>4.8</course>
  <speed>0.0</speed>
  <fix>3d</fix>
</trkpt>
<trkpt lat="40.0729493" lon="-105.2308458">
  <ele>1595.51</ele>
  <time>2026-08-28T19:11:33Z</time>
  <course>129.02</course>
  <speed>0.01</speed>
  <fix>3d</fix>
</trkpt>
<trkpt lat="40.0729494" lon="-105.2308459">
  <ele>1595.58</ele>
  <time>2026-08-28T19:11:33Z</time>
  <course>4.84</course>
  <speed>0.0</speed>
  <fix>3d</fix>
</trkpt>
<trkpt lat="40.0729493" lon="-105.2308458">
  <ele>1595.51</ele>
  <time>2026-08-28T19:11:33Z</time>
  <course>134.58</course>
  <speed>0.01</speed>
  <fix>3d</fix>
</trkpt>
<trkpt lat="40.0729494" lon="-105.2308459">
  <ele>1595.58</ele>
  <time>2026-08-28T19:11:33Z</time>
  <course>5.31</course>
  <speed>0.0</speed>
  <fix>3d</fix>
</trkpt>
<trkpt lat="40.0729493" lon="-105.2308457">
  <ele>1595.51</ele>
  <time>2026-08-28T19:11:33Z</time>
  <course>140.49</course>
  <speed>0.01</speed>
  <fix>3d</fix>
</trkpt>
<trkpt lat="40.0729494" lon="-105.2308459">
  <ele>1595.58</ele>
  <time>2026-08-28T19:11:33Z</time>
  <course>6.18</course>
  <speed>0.0</speed>
  <fix>3d</fix>
</trkpt>
<trkpt lat="40.0729492" lon="-105.2308456">
  <ele>1595.5</ele>
  <time>2026-08-28T19:11:33Z</time>
  <course>146.13</course>
  <speed>0.01</speed>
  <fix>3d</fix>
</trkpt>
<trkpt lat="40.0729494" lon="-105.2308458">
  <ele>1595.57</ele>
  <time>2026-08-28T19:11:33Z</time>
  <course>7.45</course>
  <speed>0.0</speed>
  <fix>3d</fix>
</trkpt>
<trkpt lat="40.0729491" lon="-105.2308456">
  <ele>1595.5</ele>
  <time>2026-08-28T19:11:33Z</time>
  <course>151.05</course>
  <speed>0.01</speed>
  <fix>3d</fix>
</trkpt>
<trkpt lat="40.0729493" lon="-105.2308458">
  <ele>1595.57</ele>
  <time>2026-08-28T19:11:33Z</time>
  <course>8.88</course>
  <speed>0.0</speed>
  <fix>3d</fix>
</trkpt>
<trkpt lat="40.0729491" lon="-105.2308456">
  <ele>1595.5</ele>
  <time>2026-08-28T19:11:33Z</time>
  <course>153.15</course>
  <speed>0.01</speed>
  <fix>3d</fix>
</trkpt>
<trkpt lat="40.0729493" lon="-105.2308458">
  <ele>1595.57</ele>
  <time>2026-08-28T19:11:33Z</time>
  <course>10.42</course>
  <speed>0.0</speed>
  <fix>3d</fix>
</trkpt>
<trkpt lat="40.0729491" lon="-105.2308456">
  <ele>1595.5</ele>
  <time>2026-08-28T19:11:33Z</time>
  <course>152.24</course>
  <speed>0.01</speed>
  <fix>3d</fix>
</trkpt>
<trkpt lat="40.0729493" lon="-105.2308458">
  <ele>1595.56</ele>
  <time>2026-08-28T19:11:33Z</time>
  <course>11.83</course>
  <speed>0.0</speed>
  <fix>3d</fix>
</trkpt>
<trkpt lat="40.0729491" lon="-105.2308456">
  <ele>1595.5</ele>
  <time>2026-08-28T19:11:33Z</time>
  <course>148.98</course>
  <speed>0.02</speed>
  <fix>3d</fix>
</trkpt>
<trkpt lat="40.0729492" lon="-105.2308457">
  <ele>1595.56</ele>
  <time>2026-08-28T19:11:33Z</time>
  <course>13.07</course>
  <speed>0.0</speed>
  <fix>3d</fix>
</trkpt>
<trkpt lat="40.072949" lon="-105.2308456">
  <ele>1595.5</ele>
  <time>2026-08-28T19:11:33Z</time>
  <course>144.08</course>
  <speed>0.02</speed>
  <fix>3d</fix>
</trkpt>
<trkpt lat="40.0729492" lon="-105.2308457">
  <ele>1595.56</ele>
  <time>2026-08-28T19:11:33Z</time>
  <course>14.0</course>
  <speed>0.0</speed>
  <fix>3d</fix>
</trkpt>
<trkpt lat="40.072949" lon="-105.2308456">
  <ele>1595.5</ele>
  <time>2026-08-28T19:11:33Z</time>
  <course>138.7</course>
  <speed>0.02</speed>
  <fix>3d</fix>
</trkpt>
<trkpt lat="40.0729492" lon="-105.2308456">
  <ele>1595.56</ele>
  <time>2026-08-28T19:11:33Z</time>
  <course>14.48</course>
  <speed>0.0</speed>
  <fix>3d</fix>
</trkpt>
<trkpt lat="40.072949" lon="-105.2308455">
  <ele>1595.5</ele>
  <time>2026-08-28T19:11:33Z</time>
  <course>132.3</course>
  <speed>0.02</speed>
  <fix>3d</fix>
</trkpt>
<trkpt lat="40.0729491" lon="-105.2308456">
  <ele>1595.56</ele>
  <time>2026-08-28T19:11:33Z</time>
  <course>14.49</course>
  <speed>0.01</speed>
  <fix>3d</fix>
</trkpt>
<trkpt lat="40.072949" lon="-105.2308455">
  <ele>1595.5</ele>
  <time>2026-08-28T19:11:33Z</time>
  <course>125.95</course>
  <speed>0.02</speed>
  <fix>3d</fix>
</trkpt>
<trkpt lat="40.0729491" lon="-105.2308455">
  <ele>1595.57</ele>
  <time>2026-08-28T19:11:33Z</time>
  <course>14.0</course>
  <speed>0.01</speed>
  <fix>3d</fix>
</trkpt>
<trkpt lat="40.072949" lon="-105.2308454">
  <ele>1595.5</ele>
  <time>2026-08-28T19:11:33Z</time>
  <course>120.82</course>
  <speed>0.02</speed>
  <fix>3d</fix>
</trkpt>
<trkpt lat="40.0729491" lon="-105.2308455">
  <ele>1595.57</ele>
  <time>2026-08-28T19:11:33Z</time>
  <course>13.09</course>
  <speed>0.01</speed>
  <fix>3d</fix>
</trkpt>
<trkpt lat="40.072949" lon="-105.2308453">
  <ele>1595.5</ele>
  <time>2026-08-28T19:11:33Z</time>
  <course>117.09</course>
  <speed>0.02</speed>
  <fix>3d</fix>
</trkpt>
<trkpt lat="40.0729491" lon="-105.2308454">
  <ele>1595.57</ele>
  <time>2026-08-28T19:11:33Z</time>
  <course>11.82</course>
  <speed>0.01</speed>
  <fix>3d</fix>
</trkpt>
<trkpt lat="40.0729489" lon="-105.2308453">
  <ele>1595.51</ele>
  <time>2026-08-28T19:11:33Z</time>
  <course>114.74</course>
  <speed>0.02</speed>
  <fix>3d</fix>
</trkpt>
<trkpt lat="40.0729491" lon="-105.2308454">
  <ele>1595.57</ele>
  <time>2026-08-28T19:11:33Z</time>
  <course>10.4</course>
  <speed>0.01</speed>
  <fix>3d</fix>
</trkpt>
<trkpt lat="40.0729489" lon="-105.2308452">
  <ele>1595.51</ele>
  <time>2026-08-28T19:11:33Z</time>
  <course>113.36</course>
  <speed>0.02</speed>
  <fix>3d</fix>
</trkpt>
<trkpt lat="40.072949" lon="-105.2308453">
  <ele>1595.58</ele>
  <time>2026-08-28T19:11:33Z</time>
  <course>8.87</course>
  <speed>0.01</speed>
  <fix>3d</fix>
</trkpt>
<trkpt lat="40.0729489" lon="-105.2308451">
  <ele>1595.51</ele>
  <time>2026-08-28T19:11:33Z</time>
  <course>112.68</course>
  <speed>0.02</speed>
  <fix>3d</fix>
</trkpt>
<trkpt lat="40.072949" lon="-105.2308452">
  <ele>1595.57</ele>
  <time>2026-08-28T19:11:33Z</time>
  <course>7.45</course>
  <speed>0.01</speed>
  <fix>3d</fix>
</trkpt>
<trkpt lat="40.0729489" lon="-105.2308451">
  <ele>1595.51</ele>
  <time>2026-08-28T19:11:33Z</time>
  <course>112.81</course>
  <speed>0.02</speed>
  <fix>3d</fix>
</trkpt>
<trkpt lat="40.072949" lon="-105.2308452">
  <ele>1595.57</ele>
  <time>2026-08-28T19:11:33Z</time>
  <course>6.2</course>
  <speed>0.0</speed>
  <fix>3d</fix>
</trkpt>
<trkpt lat="40.0729489" lon="-105.2308451">
  <ele>1595.51</ele>
  <time>2026-08-28T19:11:33Z</time>
  <course>113.66</course>
  <speed>0.02</speed>
  <fix>3d</fix>
</trkpt>
<trkpt lat="40.072949" lon="-105.2308451">
  <ele>1595.57</ele>
  <time>2026-08-28T19:11:34Z</time>
  <course>5.25</course>
  <speed>0.0</speed>
  <fix>3d</fix>
</trkpt>
<trkpt lat="40.0729489" lon="-105.230845">
  <ele>1595.5</ele>
  <time>2026-08-28T19:11:34Z</time>
  <course>115.87</course>
  <speed>0.02</speed>
  <fix>3d</fix>
</trkpt>
<trkpt lat="40.072949" lon="-105.2308451">
  <ele>1595.57</ele>
  <time>2026-08-28T19:11:34Z</time>
  <course>4.78</course>
  <speed>0.0</speed>
  <fix>3d</fix>
</trkpt>
<trkpt lat="40.0729488" lon="-105.230845">
  <ele>1595.5</ele>
  <time>2026-08-28T19:11:34Z</time>
  <course>120.87</course>
  <speed>0.01</speed>
  <fix>3d</fix>
</trkpt>
<trkpt lat="40.072949" lon="-105.2308451">
  <ele>1595.57</ele>
  <time>2026-08-28T19:11:34Z</time>
  <course>4.78</course>
  <speed>0.0</speed>
  <fix>3d</fix>
</trkpt>
<trkpt lat="40.0729488" lon="-105.230845">
  <ele>1595.5</ele>
  <time>2026-08-28T19:11:34Z</time>
  <course>128.78</course>
  <speed>0.01</speed>
  <fix>3d</fix>
</trkpt>
<trkpt lat="40.0729489" lon="-105.2308451">
  <ele>1595.56</ele>
  <time>2026-08-28T19:11:34Z</time>
  <course>5.25</course>
  <speed>0.0</speed>
  <fix>3d</fix>
</trkpt>
<trkpt lat="40.0729488" lon="-105.2308449">
  <ele>1595.5</ele>
  <time>2026-08-28T19:11:34Z</time>
  <course>138.37</course>
  <speed>0.01</speed>
  <fix>3d</fix>
</trkpt>
<trkpt lat="40.0729489" lon="-105.2308451">
  <ele>1595.56</ele>
  <time>2026-08-28T19:11:34Z</time>
  <course>6.15</course>
  <speed>0.0</speed>
  <fix>3d</fix>
</trkpt>
<trkpt lat="40.0729488" lon="-105.2308448">
  <ele>1595.5</ele>
  <time>2026-08-28T19:11:34Z</time>
  <course>146.51</course>
  <speed>0.01</speed>
  <fix>3d</fix>
</trkpt>
<trkpt lat="40.0729489" lon="-105.230845">
  <ele>1595.56</ele>
  <time>2026-08-28T19:11:34Z</time>
  <course>7.38</course>
  <speed>0.0</speed>
  <fix>3d</fix>
</trkpt>
<trkpt lat="40.0729487" lon="-105.2308448">
  <ele>1595.5</ele>
  <time>2026-08-28T19:11:34Z</time>
  <course>149.63</course>
  <speed>0.01</speed>
  <fix>3d</fix>
</trkpt>
<trkpt lat="40.0729489" lon="-105.230845">
  <ele>1595.56</ele>
  <time>2026-08-28T19:11:34Z</time>
  <course>8.82</course>
  <speed>0.0</speed>
  <fix>3d</fix>
</trkpt>
<trkpt lat="40.0729487" lon="-105.2308448">
  <ele>1595.51</ele>
  <time>2026-08-28T19:11:34Z</time>
  <course>149.91</course>
  <speed>0.01</speed>
  <fix>3d</fix>
</trkpt>
<trkpt lat="40.0729488" lon="-105.230845">
  <ele>1595.56</ele>
  <time>2026-08-28T19:11:34Z</time>
  <course>10.38</course>
  <speed>0.0</speed>
  <fix>3d</fix>
</trkpt>
<trkpt lat="40.0729487" lon="-105.2308448">
  <ele>1595.51</ele>
  <time>2026-08-28T19:11:34Z</time>
  <course>148.68</course>
  <speed>0.01</speed>
  <fix>3d</fix>
</trkpt>
<trkpt lat="40.0729488" lon="-105.230845">
  <ele>1595.57</ele>
  <time>2026-08-28T19:11:34Z</time>
  <course>11.82</course>
  <speed>0.0</speed>
  <fix>3d</fix>
</trkpt>
<trkpt lat="40.0729487" lon="-105.2308448">
  <ele>1595.51</ele>
  <time>2026-08-28T19:11:34Z</time>
  <course>145.91</course>
  <speed>0.01</speed>
  <fix>3d</fix>
</trkpt>
<trkpt lat="40.0729488" lon="-105.2308449">
  <ele>1595.58</ele>
  <time>2026-08-28T19:11:34Z</time>
  <course>13.1</course>
  <speed>0.0</speed>
  <fix>3d</fix>
</trkpt>
<trkpt lat="40.0729486" lon="-105.2308448">
  <ele>1595.51</ele>
  <time>2026-08-28T19:11:34Z</time>
  <course>142.51</course>
  <speed>0.02</speed>
  <fix>3d</fix>
</trkpt>
<trkpt lat="40.0729488" lon="-105.2308449">
  <ele>1595.58</ele>
  <time>2026-08-28T19:11:34Z</time>
  <course>14.03</course>
  <speed>0.0</speed>
  <fix>3d</fix>
</trkpt>
<trkpt lat="40.0729485" lon="-105.2308448">
  <ele>1595.51</ele>
  <time>2026-08-28T19:11:34Z</time>
  <course>138.18</course>
  <speed>0.02</speed>
  <fix>3d</fix>
</trkpt>
<trkpt lat="40.0729487" lon="-105.2308449">
  <ele>1595.58</ele>
  <time>2026-08-28T19:11:34Z</time>
  <course>14.52</course>
  <speed>0.0</speed>
  <fix>3d</fix>
</trkpt>
<trkpt lat="40.0729485" lon="-105.2308447">
  <ele>1595.51</ele>
  <time>2026-08-28T19:11:34Z</time>
  <course>134.01</course>
  <speed>0.02</speed>
  <fix>3d</fix>
</trkpt>
<trkpt lat="40.0729487" lon="-105.2308448">
  <ele>1595.58</ele>
  <time>2026-08-28T19:11:34Z</time>
  <course>14.52</course>
  <speed>0.0</speed>
  <fix>3d</fix>
</trkpt>
<trkpt lat="40.0729485" lon="-105.2308446">
  <ele>1595.51</ele>
  <time>2026-08-28T19:11:34Z</time>
  <course>129.91</course>
  <speed>0.02</speed>
  <fix>3d</fix>
</trkpt>
<trkpt lat="40.0729487" lon="-105.2308447">
  <ele>1595.58</ele>
  <time>2026-08-28T19:11:34Z</time>
  <course>14.05</course>
  <speed>0.01</speed>
  <fix>3d</fix>
</trkpt>
<trkpt lat="40.0729484" lon="-105.2308446">
  <ele>1595.51</ele>
  <time>2026-08-28T19:11:34Z</time>
  <course>125.77</course>
  <speed>0.02</speed>
  <fix>3d</fix>
</trkpt>
<trkpt lat="40.0729486" lon="-105.2308447">
  <ele>1595.58</ele>
  <time>2026-08-28T19:11:34Z</time>
  <course>13.13</course>
  <speed>0.01</speed>
  <fix>3d</fix>
</trkpt>
<trkpt lat="40.0729484" lon="-105.2308446">
  <ele>1595.51</ele>
  <time>2026-08-28T19:11:34Z</time>
  <course>122.18</course>
  <speed>0.02</speed>
  <fix>3d</fix>
</trkpt>
<trkpt lat="40.0729486" lon="-105.2308446">
  <ele>1595.57</ele>
  <time>2026-08-28T19:11:34Z</time>
  <course>11.84</course>
  <speed>0.01</speed>
  <fix>3d</fix>
</trkpt>
<trkpt lat="40.0729484" lon="-105.2308445">
  <ele>1595.51</ele>
  <time>2026-08-28T19:11:34Z</time>
  <course>119.55</course>
  <speed>0.03</speed>
  <fix>3d</fix>
</trkpt>
<trkpt lat="40.0729486" lon="-105.2308446">
  <ele>1595.57</ele>
  <time>2026-08-28T19:11:34Z</time>
  <course>10.39</course>
  <speed>0.01</speed>
  <fix>3d</fix>
</trkpt>
<trkpt lat="40.0729484" lon="-105.2308444">
  <ele>1595.5</ele>
  <time>2026-08-28T19:11:34Z</time>
  <course>117.04</course>
  <speed>0.03</speed>
  <fix>3d</fix>
</trkpt>
<trkpt lat="40.0729485" lon="-105.2308445">
  <ele>1595.57</ele>
  <time>2026-08-28T19:11:34Z</time>
  <course>8.86</course>
  <speed>0.01</speed>
  <fix>3d</fix>
</trkpt>
<trkpt lat="40.0729484" lon="-105.2308444">
  <ele>1595.5</ele>
  <time>2026-08-28T19:11:34Z</time>
  <course>114.42</course>
  <speed>0.02</speed>
  <fix>3d</fix>
</trkpt>
<trkpt lat="40.0729485" lon="-105.2308444">
  <ele>1595.56</ele>
  <time>2026-08-28T19:11:34Z</time>
  <course>7.43</course>
  <speed>0.01</speed>
  <fix>3d</fix>
</trkpt>
<trkpt lat="40.0729484" lon="-105.2308443">
  <ele>1595.5</ele>
  <time>2026-08-28T19:11:34Z</time>
  <course>112.78</course>
  <speed>0.02</speed>
  <fix>3d</fix>
</trkpt>
<trkpt lat="40.0729485" lon="-105.2308444">
  <ele>1595.57</ele>
  <time>2026-08-28T19:11:34Z</time>
  <course>6.15</course>
  <speed>0.0</speed>
  <fix>3d</fix>
</trkpt>
<trkpt lat="40.0729484" lon="-105.2308443">
  <ele>1595.5</ele>
  <time>2026-08-28T19:11:34Z</time>
  <course>111.87</course>
  <speed>0.02</speed>
  <fix>3d</fix>
</trkpt>
<trkpt lat="40.0729485" lon="-105.2308443">
  <ele>1595.57</ele>
  <time>2026-08-28T19:11:34Z</time>
  <course>5.26</course>
  <speed>0.0</speed>
  <fix>3d</fix>
</trkpt>
<trkpt lat="40.0729484" lon="-105.2308442">
  <ele>1595.5</ele>
  <time>2026-08-28T19:11:34Z</time>
  <course>111.82</course>
  <speed>0.02</speed>
  <fix>3d</fix>
</trkpt>
<trkpt lat="40.0729485" lon="-105.2308443">
  <ele>1595.57</ele>
  <time>2026-08-28T19:11:34Z</time>
  <course>4.78</course>
  <speed>0.0</speed>
  <fix>3d</fix>
</trkpt>
<trkpt lat="40.0729483" lon="-105.2308441">
  <ele>1595.5</ele>
  <time>2026-08-28T19:11:34Z</time>
  <course>114.51</course>
  <speed>0.02</speed>
  <fix>3d</fix>
</trkpt>
<trkpt lat="40.0729485" lon="-105.2308443">
  <ele>1595.57</ele>
  <time>2026-08-28T19:11:34Z</time>
  <course>4.78</course>
  <speed>0.0</speed>
  <fix>3d</fix>
</trkpt>
<trkpt lat="40.0729483" lon="-105.2308441">
  <ele>1595.5</ele>
  <time>2026-08-28T19:11:34Z</time>
  <course>120.33</course>
  <speed>0.02</speed>
  <fix>3d</fix>
</trkpt>
<trkpt lat="40.0729484" lon="-105.2308442">
  <ele>1595.57</ele>
  <time>2026-08-28T19:11:34Z</time>
  <course>5.25</course>
  <speed>0.0</speed>
  <fix>3d</fix>
</trkpt>
<trkpt lat="40.0729483" lon="-105.2308441">
  <ele>1595.5</ele>
  <time>2026-08-28T19:11:34Z</time>
  <course>127.17</course>
  <speed>0.01</speed>
  <fix>3d</fix>
</trkpt>
<trkpt lat="40.0729484" lon="-105.2308442">
  <ele>1595.57</ele>
  <time>2026-08-28T19:11:34Z</time>
  <course>6.18</course>
  <speed>0.0</speed>
  <fix>3d</fix>
</trkpt>
<trkpt lat="40.0729483" lon="-105.230844">
  <ele>1595.5</ele>
  <time>2026-08-28T19:11:34Z</time>
  <course>132.98</course>
  <speed>0.01</speed>
  <fix>3d</fix>
</trkpt>
<trkpt lat="40.0729484" lon="-105.2308442">
  <ele>1595.57</ele>
  <time>2026-08-28T19:11:34Z</time>
  <course>7.42</course>
  <speed>0.0</speed>
  <fix>3d</fix>
</trkpt>
<trkpt lat="40.0729483" lon="-105.2308439">
  <ele>1595.5</ele>
  <time>2026-08-28T19:11:34Z</time>
  <course>136.78</course>
  <speed>0.01</speed>
  <fix>3d</fix>
</trkpt>
<trkpt lat="40.0729484" lon="-105.2308441">
  <ele>1595.57</ele>
  <time>2026-08-28T19:11:34Z</time>
  <course>8.86</course>
  <speed>0.0</speed>
  <fix>3d</fix>
</trkpt>
<trkpt lat="40.0729482" lon="-105.2308439">
  <ele>1595.5</ele>
  <time>2026-08-28T19:11:34Z</time>
  <course>139.3</course>
  <speed>0.01</speed>
  <fix>3d</fix>
</trkpt>
<trkpt lat="40.0729484" lon="-105.2308441">
  <ele>1595.57</ele>
  <time>2026-08-28T19:11:34Z</time>
  <course>10.41</course>
  <speed>0.0</speed>
  <fix>3d</fix>
</trkpt>
<trkpt lat="40.0729482" lon="-105.2308439">
  <ele>1595.5</ele>
  <time>2026-08-28T19:11:34Z</time>
  <course>139.99</course>
  <speed>0.01</speed>
  <fix>3d</fix>
</trkpt>
<trkpt lat="40.0729483" lon="-105.2308441">
  <ele>1595.56</ele>
  <time>2026-08-28T19:11:34Z</time>
  <course>11.85</course>
  <speed>0.0</speed>
  <fix>3d</fix>
</trkpt>
<trkpt lat="40.0729482" lon="-105.2308439">
  <ele>1595.5</ele>
  <time>2026-08-28T19:11:34Z</time>
  <course>139.28</course>
  <speed>0.01</speed>
  <fix>3d</fix>
</trkpt>
<trkpt lat="40.0729483" lon="-105.230844">
  <ele>1595.56</ele>
  <time>2026-08-28T19:11:34Z</time>
  <course>13.09</course>
  <speed>0.0</speed>
  <fix>3d</fix>
</trkpt>
<trkpt lat="40.0729482" lon="-105.2308439">
  <ele>1595.51</ele>
  <time>2026-08-28T19:11:34Z</time>
  <course>137.66</course>
  <speed>0.02</speed>
  <fix>3d</fix>
</trkpt>
<trkpt lat="40.0729483" lon="-105.230844">
  <ele>1595.56</ele>
  <time>2026-08-28T19:11:34Z</time>
  <course>13.99</course>
  <speed>0.0</speed>
  <fix>3d</fix>
</trkpt>
<trkpt lat="40.0729481" lon="-105.2308439">
  <ele>1595.51</ele>
  <time>2026-08-28T19:11:34Z</time>
  <course>134.29</course>
  <speed>0.02</speed>
  <fix>3d</fix>
</trkpt>
<trkpt lat="40.0729483" lon="-105.230844">
  <ele>1595.56</ele>
  <time>2026-08-28T19:11:34Z</time>
  <course>14.48</course>
  <speed>0.0</speed>
  <fix>3d</fix>
</trkpt>
<trkpt lat="40.0729481" lon="-105.2308438">
  <ele>1595.51</ele>
  <time>2026-08-28T19:11:34Z</time>
  <course>130.47</course>
  <speed>0.02</speed>
  <fix>3d</fix>
</trkpt>
<trkpt lat="40.0729482" lon="-105.2308439">
  <ele>1595.56</ele>
  <time>2026-08-28T19:11:34Z</time>
  <course>14.49</course>
  <speed>0.0</speed>
  <fix>3d</fix>
</trkpt>
<trkpt lat="40.0729481" lon="-105.2308437">
  <ele>1595.51</ele>
  <time>2026-08-28T19:11:34Z</time>
  <course>126.42</course>
  <speed>0.02</speed>
  <fix>3d</fix>
</trkpt>
<trkpt lat="40.0729482" lon="-105.2308438">
  <ele>1595.56</ele>
  <time>2026-08-28T19:11:34Z</time>
  <course>13.98</course>
  <speed>0.01</speed>
  <fix>3d</fix>
</trkpt>
<trkpt lat="40.072948" lon="-105.2308437">
  <ele>1595.51</ele>
  <time>2026-08-28T19:11:34Z</time>
  <course>122.39</course>
  <speed>0.02</speed>
  <fix>3d</fix>
</trkpt>
<trkpt lat="40.0729482" lon="-105.2308438">
  <ele>1595.56</ele>
  <time>2026-08-28T19:11:34Z</time>
  <course>13.09</course>
  <speed>0.01</speed>
  <fix>3d</fix>
</trkpt>
<trkpt lat="40.0729479" lon="-105.2308437">
  <ele>1595.51</ele>
  <time>2026-08-28T19:11:34Z</time>
  <course>119.14</course>
  <speed>0.02</speed>
  <fix>3d</fix>
</trkpt>
<trkpt lat="40.0729481" lon="-105.2308437">
  <ele>1595.56</ele>
  <time>2026-08-28T19:11:34Z</time>
  <course>11.82</course>
  <speed>0.01</speed>
  <fix>3d</fix>
</trkpt>
<trkpt lat="40.0729479" lon="-105.2308436">
  <ele>1595.51</ele>
  <time>2026-08-28T19:11:34Z</time>
  <course>116.69</course>
  <speed>0.03</speed>
  <fix>3d</fix>
</trkpt>
<trkpt lat="40.0729481" lon="-105.2308437">
  <ele>1595.56</ele>
  <time>2026-08-28T19:11:34Z</time>
  <course>10.37</course>
  <speed>0.01</speed>
  <fix>3d</fix>
</trkpt>
<trkpt lat="40.0729479" lon="-105.2308435">
  <ele>1595.51</ele>
  <time>2026-08-28T19:11:34Z</time>
  <course>115.08</course>
  <speed>0.03</speed>
  <fix>3d</fix>
</trkpt>
<trkpt lat="40.0729481" lon="-105.2308436">
  <ele>1595.56</ele>
  <time>2026-08-28T19:11:34Z</time>
  <course>8.85</course>
  <speed>0.01</speed>
  <fix>3d</fix>
</trkpt>
<trkpt lat="40.0729479" lon="-105.2308434">
  <ele>1595.52</ele>
  <time>2026-08-28T19:11:34Z</time>
  <course>113.93</course>
  <speed>0.03</speed>
  <fix>3d</fix>
</trkpt>
<trkpt lat="40.0729481" lon="-105.2308435">
  <ele>1595.57</ele>
  <time>2026-08-28T19:11:34Z</time>
  <course>7.41</course>
  <speed>0.01</speed>
  <fix>3d</fix>
</trkpt>
<trkpt lat="40.0729478" lon="-105.2308434">
  <ele>1595.52</ele>
  <time>2026-08-28T19:11:34Z</time>
  <course>113.24</course>
  <speed>0.02</speed>
  <fix>3d</fix>
</trkpt>
<trkpt lat="40.072948" lon="-105.2308435">
  <ele>1595.57</ele>
  <time>2026-08-28T19:11:34Z</time>
  <course>6.15</course>
  <speed>0.0</speed>
  <fix>3d</fix>
</trkpt>
<trkpt lat="40.0729478" lon="-105.2308433">
  <ele>1595.52</ele>
  <time>2026-08-28T19:11:34Z</time>
  <course>112.97</course>
  <speed>0.02</speed>
  <fix>3d</fix>
</trkpt>
<trkpt lat="40.072948" lon="-105.2308434">
  <ele>1595.57</ele>
  <time>2026-08-28T19:11:34Z</time>
  <course>5.27</course>
  <speed>0.0</speed>
  <fix>3d</fix>
</trkpt>
<trkpt lat="40.0729478" lon="-105.2308432">
  <ele>1595.52</ele>
  <time>2026-08-28T19:11:34Z</time>
  <course>113.8</course>
  <speed>0.02</speed>
  <fix>3d</fix>
</trkpt>
<trkpt lat="40.072948" lon="-105.2308434">
  <ele>1595.58</ele>
  <time>2026-08-28T19:11:34Z</time>
  <course>4.78</course>
  <speed>0.0</speed>
  <fix>3d</fix>
</trkpt>
<trkpt lat="40.0729478" lon="-105.2308432">
  <ele>1595.52</ele>
  <time>2026-08-28T19:11:34Z</time>
  <course>116.59</course>
  <speed>0.02</speed>
  <fix>3d</fix>
</trkpt>
<trkpt lat="40.072948" lon="-105.2308433">
  <ele>1595.58</ele>
  <time>2026-08-28T19:11:34Z</time>
  <course>4.78</course>
  <speed>0.0</speed>
  <fix>3d</fix>
</trkpt>
<trkpt lat="40.0729478" lon="-105.2308432">
  <ele>1595.53</ele>
  <time>2026-08-28T19:11:34Z</time>
  <course>121.6</course>
  <speed>0.01</speed>
  <fix>3d</fix>
</trkpt>
<trkpt lat="40.0729479" lon="-105.2308433">
  <ele>1595.58</ele>
  <time>2026-08-28T19:11:34Z</time>
  <course>5.3</course>
  <speed>0.0</speed>
  <fix>3d</fix>
</trkpt>
<trkpt lat="40.0729478" lon="-105.2308432">
  <ele>1595.53</ele>
  <time>2026-08-28T19:11:34Z</time>
  <course>128.57</course>
  <speed>0.01</speed>
  <fix>3d</fix>
</trkpt>
<trkpt lat="40.0729479" lon="-105.2308433">
  <ele>1595.57</ele>
  <time>2026-08-28T19:11:34Z</time>
  <course>6.2</course>
  <speed>0.0</speed>
  <fix>3d</fix>
</trkpt>
<trkpt lat="40.0729478" lon="-105.2308431">
  <ele>1595.52</ele>
  <time>2026-08-28T19:11:34Z</time>
  <course>135.65</course>
  <speed>0.01</speed>
  <fix>3d</fix>
</trkpt>
<trkpt lat="40.0729479" lon="-105.2308433">
  <ele>1595.57</ele>
  <time>2026-08-28T19:11:34Z</time>
  <course>7.44</course>
  <speed>0.0</speed>
  <fix>3d</fix>
</trkpt>
<trkpt lat="40.0729478" lon="-105.2308431">
  <ele>1595.52</ele>
  <time>2026-08-28T19:11:34Z</time>
  <course>140.9</course>
  <speed>0.01</speed>
  <fix>3d</fix>
</trkpt>
<trkpt lat="40.0729479" lon="-105.2308433">
  <ele>1595.56</ele>
  <time>2026-08-28T19:11:34Z</time>
  <course>8.89</course>
  <speed>0.0</speed>
  <fix>3d</fix>
</trkpt>
<trkpt lat="40.0729478" lon="-105.2308431">
  <ele>1595.52</ele>
  <time>2026-08-28T19:11:34Z</time>
  <course>143.95</course>
  <speed>0.01</speed>
  <fix>3d</fix>
</trkpt>
<trkpt lat="40.0729479" lon="-105.2308432">
  <ele>1595.56</ele>
  <time>2026-08-28T19:11:34Z</time>
  <course>10.42</course>
  <speed>0.0</speed>
  <fix>3d</fix>
</trkpt>
<trkpt lat="40.0729477" lon="-105.2308431">
  <ele>1595.52</ele>
  <time>2026-08-28T19:11:34Z</time>
  <course>144.09</course>
  <speed>0.01</speed>
  <fix>3d</fix>
</trkpt>
<trkpt lat="40.0729478" lon="-105.2308432">
  <ele>1595.57</ele>
  <time>2026-08-28T19:11:34Z</time>
  <course>11.81</course>
  <speed>0.0</speed>
  <fix>3d</fix>
</trkpt>
<trkpt lat="40.0729477" lon="-105.230843">
  <ele>1595.52</ele>
  <time>2026-08-28T19:11:34Z</time>
  <course>141.07</course>
  <speed>0.01</speed>
  <fix>3d</fix>
</trkpt>
<trkpt lat="40.0729478" lon="-105.2308432">
  <ele>1595.57</ele>
  <time>2026-08-28T19:11:34Z</time>
  <course>13.08</course>
  <speed>0.0</speed>
  <fix>3d</fix>
</trkpt>
<trkpt lat="40.0729477" lon="-105.2308429">
  <ele>1595.52</ele>
  <time>2026-08-28T19:11:34Z</time>
  <course>137.36</course>
  <speed>0.02</speed>
  <fix>3d</fix>
</trkpt>
<trkpt lat="40.0729478" lon="-105.2308431">
  <ele>1595.57</ele>
  <time>2026-08-28T19:11:34Z</time>
  <course>14.01</course>
  <speed>0.0</speed>
  <fix>3d</fix>
</trkpt>
<trkpt lat="40.0729477" lon="-105.2308429">
  <ele>1595.52</ele>
  <time>2026-08-28T19:11:34Z</time>
  <course>133.58</course>
  <speed>0.02</speed>
  <fix>3d</fix>
</trkpt>
<trkpt lat="40.0729478" lon="-105.2308431">
  <ele>1595.57</ele>
  <time>2026-08-28T19:11:34Z</time>
  <course>14.49</course>
  <speed>0.0</speed>
  <fix>3d</fix>
</trkpt>
<trkpt lat="40.0729476" lon="-105.2308429">
  <ele>1595.52</ele>
  <time>2026-08-28T19:11:34Z</time>
  <course>129.47</course>
  <speed>0.02</speed>
  <fix>3d</fix>
</trkpt>
<trkpt lat="40.0729477" lon="-105.230843">
  <ele>1595.57</ele>
  <time>2026-08-28T19:11:34Z</time>
  <course>14.49</course>
  <speed>0.0</speed>
  <fix>3d</fix>
</trkpt>
<trkpt lat="40.0729476" lon="-105.2308429">
  <ele>1595.52</ele>
  <time>2026-08-28T19:11:34Z</time>
  <course>125.07</course>
  <speed>0.02</speed>
  <fix>3d</fix>
</trkpt>
<trkpt lat="40.0729477" lon="-105.230843">
  <ele>1595.57</ele>
  <time>2026-08-28T19:11:34Z</time>
  <course>14.01</course>
  <speed>0.01</speed>
  <fix>3d</fix>
</trkpt>
<trkpt lat="40.0729476" lon="-105.2308428">
  <ele>1595.52</ele>
  <time>2026-08-28T19:11:34Z</time>
  <course>121.03</course>
  <speed>0.02</speed>
  <fix>3d</fix>
</trkpt>
<trkpt lat="40.0729477" lon="-105.2308429">
  <ele>1595.58</ele>
  <time>2026-08-28T19:11:34Z</time>
  <course>13.1</course>
  <speed>0.01</speed>
  <fix>3d</fix>
</trkpt>
<trkpt lat="40.0729475" lon="-105.2308427">
  <ele>1595.52</ele>
  <time>2026-08-28T19:11:34Z</time>
  <course>118.62</course>
  <speed>0.03</speed>
  <fix>3d</fix>
</trkpt>
<trkpt lat="40.0729477" lon="-105.2308428">
  <ele>1595.58</ele>
  <time>2026-08-28T19:11:34Z</time>
  <course>11.87</course>
  <speed>0.01</speed>
  <fix>3d</fix>
</trkpt>
<trkpt lat="40.0729475" lon="-105.2308427">
  <ele>1595.52</ele>
  <time>2026-08-28T19:11:34Z</time>
  <course>117.12</course>
  <speed>0.03</speed>
  <fix>3d</fix>
</trkpt>
<trkpt lat="40.0729477" lon="-105.2308428">
  <ele>1595.58</ele>
  <time>2026-08-28T19:11:34Z</time>
  <course>10.45</course>
  <speed>0.01</speed>
  <fix>3d</fix>
</trkpt>
<trkpt lat="40.0729475" lon="-105.2308426">
  <ele>1595.52</ele>
  <time>2026-08-28T19:11:34Z</time>
  <course>115.58</course>
  <speed>0.03</speed>
  <fix>3d</fix>
</trkpt>
<trkpt lat="40.0729476" lon="-105.2308427">
  <ele>1595.59</ele>
  <time>2026-08-28T19:11:34Z</time>
  <course>8.95</course>
  <speed>0.01</speed>
  <fix>3d</fix>
</trkpt>
<trkpt lat="40.0729475" lon="-105.2308425">
  <ele>1595.52</ele>
  <time>2026-08-28T19:11:34Z</time>
  <course>114.53</course>
  <speed>0.03</speed>
  <fix>3d</fix>
</trkpt>
<trkpt lat="40.0729476" lon="-105.2308426">
  <ele>1595.59</ele>
  <time>2026-08-28T19:11:34Z</time>
  <course>7.47</course>
  <speed>0.01</speed>
  <fix>3d</fix>
</trkpt>
<trkpt lat="40.0729474" lon="-105.2308425">
  <ele>1595.52</ele>
  <time>2026-08-28T19:11:34Z</time>
  <course>114.1</course>
  <speed>0.02</speed>
  <fix>3d</fix>
</trkpt>
<trkpt lat="40.0729476" lon="-105.2308426">
  <ele>1595.59</ele>
  <time>2026-08-28T19:11:34Z</time>
  <course>6.21</course>
  <speed>0.0</speed>
  <fix>3d</fix>
</trkpt>
<trkpt lat="40.0729473" lon="-105.2308424">
  <ele>1595.52</ele>
  <time>2026-08-28T19:11:34Z</time>
  <course>114.39</course>
  <speed>0.02</speed>
  <fix>3d</fix>
</trkpt>
<trkpt lat="40.0729476" lon="-105.2308425">
  <ele>1595.59</ele>
  <time>2026-08-28T19:11:34Z</time>
  <course>5.31</course>
  <speed>0.0</speed>
  <fix>3d</fix>
</trkpt>
<trkpt lat="40.0729473" lon="-105.2308424">
  <ele>1595.51</ele>
  <time>2026-08-28T19:11:34Z</time>
  <course>115.44</course>
  <speed>0.02</speed>
  <fix>3d</fix>
</trkpt>
<trkpt lat="40.0729475" lon="-105.2308425">
  <ele>1595.59</ele>
  <time>2026-08-28T19:11:34Z</time>
  <course>4.86</course>
  <speed>0.0</speed>
  <fix>3d</fix>
</trkpt>
<trkpt lat="40.0729473" lon="-105.2308423">
  <ele>1595.51</ele>
  <time>2026-08-28T19:11:34Z</time>
  <course>117.22</course>
  <speed>0.02</speed>
  <fix>3d</fix>
</trkpt>
<trkpt lat="40.0729475" lon="-105.2308424">
  <ele>1595.59</ele>
  <time>2026-08-28T19:11:34Z</time>
  <course>4.81</course>
  <speed>0.0</speed>
  <fix>3d</fix>
</trkpt>
<trkpt lat="40.0729473" lon="-105.2308422">
  <ele>1595.5</ele>
  <time>2026-08-28T19:11:34Z</time>
  <course>119.7</course>
  <speed>0.02</speed>
  <fix>3d</fix>
</trkpt>
<trkpt lat="40.0729475" lon="-105.2308424">
  <ele>1595.59</ele>
  <time>2026-08-28T19:11:34Z</time>
  <course>4.89</course>
  <speed>0.0</speed>
  <fix>3d</fix>
</trkpt>
<trkpt lat="40.0729473" lon="-105.2308422">
  <ele>1595.5</ele>
  <time>2026-08-28T19:11:34Z</time>
  <course>119.7</course>
  <speed>0.02</speed>
  <fix>3d</fix>
</trkpt>
<trkpt lat="40.0729474" lon="-105.2308423">
  <ele>1595.59</ele>
  <time>2026-08-28T19:11:34Z</time>
  <course>4.91</course>
  <speed>0.0</speed>
  <fix>3d</fix>
</trkpt>
<trkpt lat="40.0729473" lon="-105.2308422">
  <ele>1595.49</ele>
  <time>2026-08-28T19:11:34Z</time>
  <course>115.96</course>
  <speed>0.02</speed>
  <fix>3d</fix>
</trkpt>
<trkpt lat="40.0729474" lon="-105.2308423">
  <ele>1595.59</ele>
  <time>2026-08-28T19:11:34Z</time>
  <course>4.9</course>
  <speed>0.0</speed>
  <fix>3d</fix>
</trkpt>
<trkpt lat="40.0729472" lon="-105.2308421">
  <ele>1595.48</ele>
  <time>2026-08-28T19:11:34Z</time>
  <course>112.12</course>
  <speed>0.02</speed>
  <fix>3d</fix>
</trkpt>
<trkpt lat="40.0729474" lon="-105.2308422">
  <ele>1595.58</ele>
  <time>2026-08-28T19:11:34Z</time>
  <course>4.86</course>
  <speed>0.0</speed>
  <fix>3d</fix>
</trkpt>
<trkpt lat="40.0729472" lon="-105.230842">
  <ele>1595.48</ele>
  <time>2026-08-28T19:11:34Z</time>
  <course>109.15</course>
  <speed>0.02</speed>
  <fix>3d</fix>
</trkpt>
<trkpt lat="40.0729474" lon="-105.2308422">
  <ele>1595.57</ele>
  <time>2026-08-28T19:11:34Z</time>
  <course>4.86</course>
  <speed>0.01</speed>
  <fix>3d</fix>
</trkpt>
<trkpt lat="40.0729472" lon="-105.230842">
  <ele>1595.47</ele>
  <time>2026-08-28T19:11:34Z</time>
  <course>106.99</course>
  <speed>0.02</speed>
  <fix>3d</fix>
</trkpt>
<trkpt lat="40.0729474" lon="-105.2308421">
  <ele>1595.56</ele>
  <time>2026-08-28T19:11:34Z</time>
  <course>4.84</course>
  <speed>0.01</speed>
  <fix>3d</fix>
</trkpt>
<trkpt lat="40.0729472" lon="-105.230842">
  <ele>1595.47</ele>
  <time>2026-08-28T19:11:34Z</time>
  <course>104.66</course>
  <speed>0.02</speed>
  <fix>3d</fix>
</trkpt>
<trkpt lat="40.0729474" lon="-105.2308421">
  <ele>1595.55</ele>
  <time>2026-08-28T19:11:34Z</time>
  <course>4.83</course>
  <speed>0.01414213562373095</speed>
  <fix>3d</fix>
</trkpt>
<trkpt lat="40.0729472" lon="-105.2308419">
  <ele>1595.47</ele>
  <time>2026-08-28T19:11:34Z</time>
  <course>101.66</course>
  <speed>0.02</speed>
  <fix>3d</fix>
</trkpt>
<trkpt lat="40.0729474" lon="-105.230842">
  <ele>1595.56</ele>
  <time>2026-08-28T19:11:34Z</time>
  <course>4.8</course>
  <speed>0.01414213562373095</speed>
  <fix>3d</fix>
</trkpt>
<trkpt lat="40.0729472" lon="-105.2308418">
  <ele>1595.47</ele>
  <time>2026-08-28T19:11:34Z</time>
  <course>99.76</course>
  <speed>0.02</speed>
  <fix>3d</fix>
</trkpt>
<trkpt lat="40.0729474" lon="-105.2308419">
  <ele>1595.56</ele>
  <time>2026-08-28T19:11:34Z</time>
  <course>4.82</course>
  <speed>0.01414213562373095</speed>
  <fix>3d</fix>
</trkpt>
<trkpt lat="40.0729472" lon="-105.2308417">
  <ele>1595.47</ele>
  <time>2026-08-28T19:11:34Z</time>
  <course>98.71</course>
  <speed>0.02</speed>
  <fix>3d</fix>
</trkpt>
<trkpt lat="40.0729474" lon="-105.2308419">
  <ele>1595.56</ele>
  <time>2026-08-28T19:11:34Z</time>
  <course>4.83</course>
  <speed>0.01414213562373095</speed>
  <fix>3d</fix>
</trkpt>
<trkpt lat="40.0729472" lon="-105.2308417">
  <ele>1595.47</ele>
  <time>2026-08-28T19:11:34Z</time>
  <course>97.56</course>
  <speed>0.02</speed>
  <fix>3d</fix>
</trkpt>
<trkpt lat="40.0729474" lon="-105.2308418">
  <ele>1595.56</ele>
  <time>2026-08-28T19:11:34Z</time>
  <course>4.83</course>
  <speed>0.01414213562373095</speed>
  <fix>3d</fix>
</trkpt>
<trkpt lat="40.0729472" lon="-105.2308416">
  <ele>1595.47</ele>
  <time>2026-08-28T19:11:34Z</time>
  <course>96.37</course>
  <speed>0.02</speed>
  <fix>3d</fix>
</trkpt>
<trkpt lat="40.0729473" lon="-105.2308417">
  <ele>1595.56</ele>
  <time>2026-08-28T19:11:34Z</time>
  <course>4.83</course>
  <speed>0.01414213562373095</speed>
  <fix>3d</fix>
</trkpt>
<trkpt lat="40.0729472" lon="-105.2308415">
  <ele>1595.47</ele>
  <time>2026-08-28T19:11:34Z</time>
  <course>95.14</course>
  <speed>0.02</speed>
  <fix>3d</fix>
</trkpt>
<trkpt lat="40.0729473" lon="-105.2308417">
  <ele>1595.56</ele>
  <time>2026-08-28T19:11:34Z</time>
  <course>4.82</course>
  <speed>0.01414213562373095</speed>
  <fix>3d</fix>
</trkpt>
<trkpt lat="40.0729472" lon="-105.2308415">
  <ele>1595.47</ele>
  <time>2026-08-28T19:11:34Z</time>
  <course>94.01</course>
  <speed>0.03</speed>
  <fix>3d</fix>
</trkpt>
<trkpt lat="40.0729473" lon="-105.2308416">
  <ele>1595.56</ele>
  <time>2026-08-28T19:11:34Z</time>
  <course>4.82</course>
  <speed>0.01414213562373095</speed>
  <fix>3d</fix>
</trkpt>
<trkpt lat="40.0729472" lon="-105.2308414">
  <ele>1595.47</ele>
  <time>2026-08-28T19:11:34Z</time>
  <course>92.83</course>
  <speed>0.03</speed>
  <fix>3d</fix>
</trkpt>
<trkpt lat="40.0729473" lon="-105.2308415">
  <ele>1595.56</ele>
  <time>2026-08-28T19:11:34Z</time>
  <course>4.83</course>
  <speed>0.01414213562373095</speed>
  <fix>3d</fix>
</trkpt>
<trkpt lat="40.0729472" lon="-105.2308413">
  <ele>1595.48</ele>
  <time>2026-08-28T19:11:34Z</time>
  <course>91.77</course>
  <speed>0.03</speed>
  <fix>3d</fix>
</trkpt>
<trkpt lat="40.0729473" lon="-105.2308414">
  <ele>1595.56</ele>
  <time>2026-08-28T19:11:34Z</time>
  <course>4.83</course>
  <speed>0.01414213562373095</speed>
  <fix>3d</fix>
</trkpt>
<trkpt lat="40.0729472" lon="-105.2308413">
  <ele>1595.48</ele>
  <time>2026-08-28T19:11:34Z</time>
  <course>91.08</course>
  <speed>0.02</speed>
  <fix>3d</fix>
</trkpt>
<trkpt lat="40.0729473" lon="-105.2308414">
  <ele>1595.56</ele>
  <time>2026-08-28T19:11:34Z</time>
  <course>4.26</course>
  <speed>0.01414213562373095</speed>
  <fix>3d</fix>
</trkpt>
<trkpt lat="40.0729472" lon="-105.2308412">
  <ele>1595.48</ele>
  <time>2026-08-28T19:11:34Z</time>
  <course>90.28</course>
  <speed>0.03</speed>
  <fix>3d</fix>
</trkpt>
<trkpt lat="40.0729473" lon="-105.2308413">
  <ele>1595.56</ele>
  <time>2026-08-28T19:11:34Z</time>
  <course>2.97</course>
  <speed>0.01414213562373095</speed>
  <fix>3d</fix>
</trkpt>
<trkpt lat="40.0729472" lon="-105.2308411">
  <ele>1595.48</ele>
  <time>2026-08-28T19:11:34Z</time>
  <course>89.65</course>
  <speed>0.03</speed>
  <fix>3d</fix>
</trkpt>
<trkpt lat="40.0729473" lon="-105.2308412">
  <ele>1595.56</ele>
  <time>2026-08-28T19:11:34Z</time>
  <course>1.68</course>
  <speed>0.01414213562373095</speed>
  <fix>3d</fix>
</trkpt>
<trkpt lat="40.0729472" lon="-105.230841">
  <ele>1595.48</ele>
  <time>2026-08-28T19:11:34Z</time>
  <course>89.77</course>
  <speed>0.03</speed>
  <fix>3d</fix>
</trkpt>
<trkpt lat="40.0729473" lon="-105.2308411">
  <ele>1595.56</ele>
  <time>2026-08-28T19:11:34Z</time>
  <course>0.66</course>
  <speed>0.01414213562373095</speed>
  <fix>3d</fix>
</trkpt>
<trkpt lat="40.0729472" lon="-105.230841">
  <ele>1595.49</ele>
  <time>2026-08-28T19:11:34Z</time>
  <course>91.09</course>
  <speed>0.03</speed>
  <fix>3d</fix>
</trkpt>
<trkpt lat="40.0729473" lon="-105.2308411">
  <ele>1595.56</ele>
  <time>2026-08-28T19:11:34Z</time>
  <course>0.06</course>
  <speed>0.01</speed>
  <fix>3d</fix>
</trkpt>
<trkpt lat="40.0729472" lon="-105.2308409">
  <ele>1595.49</ele>
  <time>2026-08-28T19:11:34Z</time>
  <course>94.43</course>
  <speed>0.02</speed>
  <fix>3d</fix>
</trkpt>
<trkpt lat="40.0729473" lon="-105.230841">
  <ele>1595.56</ele>
  <time>2026-08-28T19:11:34Z</time>
  <course>359.93</course>
  <speed>0.01</speed>
  <fix>3d</fix>
</trkpt>
<trkpt lat="40.0729472" lon="-105.2308408">
  <ele>1595.49</ele>
  <time>2026-08-28T19:11:34Z</time>
  <course>100.86</course>
  <speed>0.02</speed>
  <fix>3d</fix>
</trkpt>
<trkpt lat="40.0729473" lon="-105.230841">
  <ele>1595.56</ele>
  <time>2026-08-28T19:11:34Z</time>
  <course>0.26</course>
  <speed>0.0</speed>
  <fix>3d</fix>
</trkpt>
<trkpt lat="40.0729472" lon="-105.2308408">
  <ele>1595.49</ele>
  <time>2026-08-28T19:11:34Z</time>
  <course>109.94</course>
  <speed>0.02</speed>
  <fix>3d</fix>
</trkpt>
<trkpt lat="40.0729473" lon="-105.2308409">
  <ele>1595.56</ele>
  <time>2026-08-28T19:11:34Z</time>
  <course>1.02</course>
  <speed>0.0</speed>
  <fix>3d</fix>
</trkpt>
<trkpt lat="40.0729472" lon="-105.2308408">
  <ele>1595.49</ele>
  <time>2026-08-28T19:11:34Z</time>
  <course>119.12</course>
  <speed>0.02</speed>
  <fix>3d</fix>
</trkpt>
<trkpt lat="40.0729473" lon="-105.2308409">
  <ele>1595.57</ele>
  <time>2026-08-28T19:11:34Z</time>
  <course>2.17</course>
  <speed>0.0</speed>
  <fix>3d</fix>
</trkpt>
<trkpt lat="40.0729472" lon="-105.2308407">
  <ele>1595.49</ele>
  <time>2026-08-28T19:11:34Z</time>
  <course>126.92</course>
  <speed>0.02</speed>
  <fix>3d</fix>
</trkpt>
<trkpt lat="40.0729473" lon="-105.2308409">
  <ele>1595.57</ele>
  <time>2026-08-28T19:11:34Z</time>
  <course>3.56</course>
  <speed>0.0</speed>
  <fix>3d</fix>
</trkpt>
<trkpt lat="40.0729471" lon="-105.2308407">
  <ele>1595.5</ele>
  <time>2026-08-28T19:11:34Z</time>
  <course>133.24</course>
  <speed>0.02</speed>
  <fix>3d</fix>
</trkpt>
<trkpt lat="40.0729473" lon="-105.2308408">
  <ele>1595.56</ele>
  <time>2026-08-28T19:11:34Z</time>
  <course>5.1</course>
  <speed>0.0</speed>
  <fix>3d</fix>
</trkpt>
<trkpt lat="40.0729471" lon="-105.2308406">
  <ele>1595.5</ele>
  <time>2026-08-28T19:11:34Z</time>
  <course>137.96</course>
  <speed>0.02</speed>
  <fix>3d</fix>
</trkpt>
<trkpt lat="40.0729472" lon="-105.2308408">
  <ele>1595.56</ele>
  <time>2026-08-28T19:11:34Z</time>
  <course>6.6</course>
  <speed>0.0</speed>
  <fix>3d</fix>
</trkpt>
<trkpt lat="40.0729471" lon="-105.2308405">
  <ele>1595.5</ele>
  <time>2026-08-28T19:11:34Z</time>
  <course>140.22</course>
  <speed>0.02</speed>
  <fix>3d</fix>
</trkpt>
<trkpt lat="40.0729472" lon="-105.2308408">
  <ele>1595.56</ele>
  <time>2026-08-28T19:11:34Z</time>
  <course>7.93</course>
  <speed>0.0</speed>
  <fix>3d</fix>
</trkpt>
<trkpt lat="40.072947" lon="-105.2308405">
  <ele>1595.5</ele>
  <time>2026-08-28T19:11:34Z</time>
  <course>139.46</course>
  <speed>0.02</speed>
  <fix>3d</fix>
</trkpt>
<trkpt lat="40.0729472" lon="-105.2308407">
  <ele>1595.57</ele>
  <time>2026-08-28T19:11:34Z</time>
  <course>8.95</course>
  <speed>0.0</speed>
  <fix>3d</fix>
</trkpt>
<trkpt lat="40.072947" lon="-105.2308405">
  <ele>1595.5</ele>
  <time>2026-08-28T19:11:34Z</time>
  <course>136.62</course>
  <speed>0.02</speed>
  <fix>3d</fix>
</trkpt>
<trkpt lat="40.0729471" lon="-105.2308407">
  <ele>1595.57</ele>
  <time>2026-08-28T19:11:34Z</time>
  <course>9.58</course>
  <speed>0.0</speed>
  <fix>3d</fix>
</trkpt>
<trkpt lat="40.072947" lon="-105.2308405">
  <ele>1595.5</ele>
  <time>2026-08-28T19:11:34Z</time>
  <course>132.41</course>
  <speed>0.02</speed>
  <fix>3d</fix>
</trkpt>
<trkpt lat="40.0729471" lon="-105.2308406">
  <ele>1595.57</ele>
  <time>2026-08-28T19:11:34Z</time>
  <course>9.75</course>
  <speed>0.0</speed>
  <fix>3d</fix>
</trkpt>
<trkpt lat="40.0729469" lon="-105.2308404">
  <ele>1595.5</ele>
  <time>2026-08-28T19:11:34Z</time>
  <course>127.35</course>
  <speed>0.02</speed>
  <fix>3d</fix>
</trkpt>
<trkpt lat="40.0729471" lon="-105.2308405">
  <ele>1595.58</ele>
  <time>2026-08-28T19:11:34Z</time>
  <course>9.39</course>
  <speed>0.01</speed>
  <fix>3d</fix>
</trkpt>
<trkpt lat="40.0729469" lon="-105.2308403">
  <ele>1595.5</ele>
  <time>2026-08-28T19:11:34Z</time>
  <course>122.84</course>
  <speed>0.03</speed>
  <fix>3d</fix>
</trkpt>
<trkpt lat="40.072947" lon="-105.2308405">
  <ele>1595.58</ele>
  <time>2026-08-28T19:11:34Z</time>
  <course>8.64</course>
  <speed>0.01</speed>
  <fix>3d</fix>
</trkpt>
<trkpt lat="40.0729469" lon="-105.2308403">
  <ele>1595.5</ele>
  <time>2026-08-28T19:11:34Z</time>
  <course>120.18</course>
  <speed>0.03</speed>
  <fix>3d</fix>
</trkpt>
<trkpt lat="40.072947" lon="-105.2308404">
  <ele>1595.58</ele>
  <time>2026-08-28T19:11:34Z</time>
  <course>7.5</course>
  <speed>0.01</speed>
  <fix>3d</fix>
</trkpt>
<trkpt lat="40.0729468" lon="-105.2308402">
  <ele>1595.5</ele>
  <time>2026-08-28T19:11:34Z</time>
  <course>118.68</course>
  <speed>0.03</speed>
  <fix>3d</fix>
</trkpt>
<trkpt lat="40.072947" lon="-105.2308403">
  <ele>1595.57</ele>
  <time>2026-08-28T19:11:34Z</time>
  <course>6.1</course>
  <speed>0.01</speed>
  <fix>3d</fix>
</trkpt>
<trkpt lat="40.0729467" lon="-105.2308401">
  <ele>1595.5</ele>
  <time>2026-08-28T19:11:34Z</time>
  <course>117.29</course>
  <speed>0.03</speed>
  <fix>3d</fix>
</trkpt>
<trkpt lat="40.0729469" lon="-105.2308402">
  <ele>1595.57</ele>
  <time>2026-08-28T19:11:34Z</time>
  <course>4.53</course>
  <speed>0.01</speed>
  <fix>3d</fix>
</trkpt>
<trkpt lat="40.0729467" lon="-105.2308401">
  <ele>1595.5</ele>
  <time>2026-08-28T19:11:34Z</time>
  <course>115.87</course>
  <speed>0.03</speed>
  <fix>3d</fix>
</trkpt>
<trkpt lat="40.0729469" lon="-105.2308402">
  <ele>1595.56</ele>
  <time>2026-08-28T19:11:34Z</time>
  <course>3.04</course>
  <speed>0.01</speed>
  <fix>3d</fix>
</trkpt>
<trkpt lat="40.0729467" lon="-105.23084">
  <ele>1595.5</ele>
  <time>2026-08-28T19:11:34Z</time>
  <course>114.95</course>
  <speed>0.03</speed>
  <fix>3d</fix>
</trkpt>
<trkpt lat="40.0729469" lon="-105.2308401">
  <ele>1595.56</ele>
  <time>2026-08-28T19:11:34Z</time>
  <course>1.68</course>
  <speed>0.0</speed>
  <fix>3d</fix>
</trkpt>
<trkpt lat="40.0729467" lon="-105.23084">
  <ele>1595.5</ele>
  <time>2026-08-28T19:11:34Z</time>
  <course>114.76</course>
  <speed>0.02</speed>
  <fix>3d</fix>
</trkpt>
<trkpt lat="40.0729469" lon="-105.2308401">
  <ele>1595.56</ele>
  <time>2026-08-28T19:11:34Z</time>
  <course>0.66</course>
  <speed>0.0</speed>
  <fix>3d</fix>
</trkpt>
<trkpt lat="40.0729466" lon="-105.2308399">
  <ele>1595.5</ele>
  <time>2026-08-28T19:11:34Z</time>
  <course>114.97</course>
  <speed>0.02</speed>
  <fix>3d</fix>
</trkpt>
<trkpt lat="40.0729468" lon="-105.23084">
  <ele>1595.56</ele>
  <time>2026-08-28T19:11:34Z</time>
  <course>0.04</course>
  <speed>0.0</speed>
  <fix>3d</fix>
</trkpt>
<trkpt lat="40.0729466" lon="-105.2308398">
  <ele>1595.5</ele>
  <time>2026-08-28T19:11:34Z</time>
  <course>116.54</course>
  <speed>0.02</speed>
  <fix>3d</fix>
</trkpt>
<trkpt lat="40.0729468" lon="-105.23084">
  <ele>1595.56</ele>
  <time>2026-08-28T19:11:34Z</time>
  <course>359.92</course>
  <speed>0.0</speed>
  <fix>3d</fix>
</trkpt>
<trkpt lat="40.0729466" lon="-105.2308398">
  <ele>1595.5</ele>
  <time>2026-08-28T19:11:34Z</time>
  <course>119.72</course>
  <speed>0.02</speed>
  <fix>3d</fix>
</trkpt>
<trkpt lat="40.0729468" lon="-105.2308399">
  <ele>1595.56</ele>
  <time>2026-08-28T19:11:34Z</time>
  <course>0.23</course>
  <speed>0.0</speed>
  <fix>3d</fix>
</trkpt>
<trkpt lat="40.0729466" lon="-105.2308398">
  <ele>1595.5</ele>
  <time>2026-08-28T19:11:34Z</time>
  <course>124.36</course>
  <speed>0.01</speed>
  <fix>3d</fix>
</trkpt>
<trkpt lat="40.0729467" lon="-105.2308399">
  <ele>1595.56</ele>
  <time>2026-08-28T19:11:34Z</time>
  <course>1.03</course>
  <speed>0.0</speed>
  <fix>3d</fix>
</trkpt>
<trkpt lat="40.0729466" lon="-105.2308397">
  <ele>1595.51</ele>
  <time>2026-08-28T19:11:34Z</time>
  <course>130.42</course>
  <speed>0.01</speed>
  <fix>3d</fix>
</trkpt>
<trkpt lat="40.0729467" lon="-105.2308399">
  <ele>1595.56</ele>
  <time>2026-08-28T19:11:34Z</time>
  <course>2.18</course>
  <speed>0.0</speed>
  <fix>3d</fix>
</trkpt>
<trkpt lat="40.0729466" lon="-105.2308396">
  <ele>1595.51</ele>
  <time>2026-08-28T19:11:34Z</time>
  <course>134.87</course>
  <speed>0.01</speed>
  <fix>3d</fix>
</trkpt>
<trkpt lat="40.0729467" lon="-105.2308399">
  <ele>1595.56</ele>
  <time>2026-08-28T19:11:34Z</time>
  <course>3.56</course>
  <speed>0.0</speed>
  <fix>3d</fix>
</trkpt>
<trkpt lat="40.0729466" lon="-105.2308396">
  <ele>1595.51</ele>
  <time>2026-08-28T19:11:34Z</time>
  <course>137.11</course>
  <speed>0.01</speed>
  <fix>3d</fix>
</trkpt>
<trkpt lat="40.0729467" lon="-105.2308398">
  <ele>1595.57</ele>
  <time>2026-08-28T19:11:34Z</time>
  <course>5.14</course>
  <speed>0.0</speed>
  <fix>3d</fix>
</trkpt>
<trkpt lat="40.0729466" lon="-105.2308396">
  <ele>1595.51</ele>
  <time>2026-08-28T19:11:34Z</time>
  <course>139.1</course>
  <speed>0.01</speed>
  <fix>3d</fix>
</trkpt>
<trkpt lat="40.0729467" lon="-105.2308398">
  <ele>1595.57</ele>
  <time>2026-08-28T19:11:34Z</time>
  <course>6.61</course>
  <speed>0.0</speed>
  <fix>3d</fix>
</trkpt>
<trkpt lat="40.0729465" lon="-105.2308396">
  <ele>1595.51</ele>
  <time>2026-08-28T19:11:34Z</time>
  <course>138.76</course>
  <speed>0.02</speed>
  <fix>3d</fix>
</trkpt>
<trkpt lat="40.0729466" lon="-105.2308398">
  <ele>1595.57</ele>
  <time>2026-08-28T19:11:34Z</time>
  <course>7.95</course>
  <speed>0.0</speed>
  <fix>3d</fix>
</trkpt>
<trkpt lat="40.0729465" lon="-105.2308396">
  <ele>1595.52</ele>
  <time>2026-08-28T19:11:34Z</time>
  <course>135.89</course>
  <speed>0.02</speed>
  <fix>3d</fix>
</trkpt>
<trkpt lat="40.0729466" lon="-105.2308397">
  <ele>1595.57</ele>
  <time>2026-08-28T19:11:34Z</time>
  <course>9.0</course>
  <speed>0.0</speed>
  <fix>3d</fix>
</trkpt>
<trkpt lat="40.0729465" lon="-105.2308395">
  <ele>1595.52</ele>
  <time>2026-08-28T19:11:34Z</time>
  <course>132.86</course>
  <speed>0.02</speed>
  <fix>3d</fix>
</trkpt>
<trkpt lat="40.0729466" lon="-105.2308397">
  <ele>1595.57</ele>
  <time>2026-08-28T19:11:34Z</time>
  <course>9.59</course>
  <speed>0.0</speed>
  <fix>3d</fix>
</trkpt>
<trkpt lat="40.0729465" lon="-105.2308395">
  <ele>1595.52</ele>
  <time>2026-08-28T19:11:34Z</time>
  <course>129.42</course>
  <speed>0.02</speed>
  <fix>3d</fix>
</trkpt>
<trkpt lat="40.0729466" lon="-105.2308396">
  <ele>1595.57</ele>
  <time>2026-08-28T19:11:34Z</time>
  <course>9.74</course>
  <speed>0.0</speed>
  <fix>3d</fix>
</trkpt>
<trkpt lat="40.0729464" lon="-105.2308394">
  <ele>1595.52</ele>
  <time>2026-08-28T19:11:34Z</time>
  <course>125.83</course>
  <speed>0.02</speed>
  <fix>3d</fix>
</trkpt>
<trkpt lat="40.0729465" lon="-105.2308396">
  <ele>1595.58</ele>
  <time>2026-08-28T19:11:34Z</time>
  <course>9.4</course>
  <speed>0.0</speed>
  <fix>3d</fix>
</trkpt>
<trkpt lat="40.0729464" lon="-105.2308393">
  <ele>1595.52</ele>
  <time>2026-08-28T19:11:34Z</time>
  <course>122.88</course>
  <speed>0.02</speed>
  <fix>3d</fix>
</trkpt>
<trkpt lat="40.0729465" lon="-105.2308395">
  <ele>1595.58</ele>
  <time>2026-08-28T19:11:34Z</time>
  <course>8.63</course>
  <speed>0.01</speed>
  <fix>3d</fix>
</trkpt>
<trkpt lat="40.0729464" lon="-105.2308393">
  <ele>1595.52</ele>
  <time>2026-08-28T19:11:34Z</time>
  <course>120.98</course>
  <speed>0.03</speed>
  <fix>3d</fix>
</trkpt>
<trkpt lat="40.0729465" lon="-105.2308394">
  <ele>1595.58</ele>
  <time>2026-08-28T19:11:34Z</time>
  <course>7.47</course>
  <speed>0.01</speed>
  <fix>3d</fix>
</trkpt>
<trkpt lat="40.0729463" lon="-105.2308393">
  <ele>1595.52</ele>
  <time>2026-08-28T19:11:34Z</time>
  <course>119.19</course>
  <speed>0.03</speed>
  <fix>3d</fix>
</trkpt>
<trkpt lat="40.0729465" lon="-105.2308394">
  <ele>1595.58</ele>
  <time>2026-08-28T19:11:34Z</time>
  <course>6.08</course>
  <speed>0.01</speed>
  <fix>3d</fix>
</trkpt>
<trkpt lat="40.0729463" lon="-105.2308392">
  <ele>1595.52</ele>
  <time>2026-08-28T19:11:34Z</time>
  <course>117.18</course>
  <speed>0.03</speed>
  <fix>3d</fix>
</trkpt>
<trkpt lat="40.0729464" lon="-105.2308393">
  <ele>1595.58</ele>
  <time>2026-08-28T19:11:34Z</time>
  <course>4.56</course>
  <speed>0.01</speed>
  <fix>3d</fix>
</trkpt>
<trkpt lat="40.0729463" lon="-105.2308391">
  <ele>1595.51</ele>
  <time>2026-08-28T19:11:34Z</time>
  <course>115.16</course>
  <speed>0.03</speed>
  <fix>3d</fix>
</trkpt>
<trkpt lat="40.0729464" lon="-105.2308392">
  <ele>1595.58</ele>
  <time>2026-08-28T19:11:34Z</time>
  <course>3.04</course>
  <speed>0.01</speed>
  <fix>3d</fix>
</trkpt>
<trkpt lat="40.0729463" lon="-105.2308391">
  <ele>1595.51</ele>
  <time>2026-08-28T19:11:34Z</time>
  <course>113.56</course>
  <speed>0.03</speed>
  <fix>3d</fix>
</trkpt>
<trkpt lat="40.0729464" lon="-105.2308392">
  <ele>1595.58</ele>
  <time>2026-08-28T19:11:34Z</time>
  <course>1.72</course>
  <speed>0.0</speed>
  <fix>3d</fix>
</trkpt>
<trkpt lat="40.0729462" lon="-105.230839">
  <ele>1595.51</ele>
  <time>2026-08-28T19:11:34Z</time>
  <course>113.63</course>
  <speed>0.02</speed>
  <fix>3d</fix>
</trkpt>
<trkpt lat="40.0729464" lon="-105.2308391">
  <ele>1595.58</ele>
  <time>2026-08-28T19:11:34Z</time>
  <course>0.71</course>
  <speed>0.0</speed>
  <fix>3d</fix>
</trkpt>
<trkpt lat="40.0729461" lon="-105.2308389">
  <ele>1595.51</ele>
  <time>2026-08-28T19:11:34Z</time>
  <course>114.66</course>
  <speed>0.02</speed>
  <fix>3d</fix>
</trkpt>
<trkpt lat="40.0729464" lon="-105.2308391">
  <ele>1595.59</ele>
  <time>2026-08-28T19:11:34Z</time>
  <course>0.1</course>
  <speed>0.0</speed>
  <fix>3d</fix>
</trkpt>
<trkpt lat="40.0729461" lon="-105.2308389">
  <ele>1595.51</ele>
  <time>2026-08-28T19:11:34Z</time>
  <course>116.29</course>
  <speed>0.02</speed>
  <fix>3d</fix>
</trkpt>
<trkpt lat="40.0729463" lon="-105.230839">
  <ele>1595.59</ele>
  <time>2026-08-28T19:11:34Z</time>
  <course>359.99</course>
  <speed>0.0</speed>
  <fix>3d</fix>
</trkpt>
<trkpt lat="40.0729461" lon="-105.2308388">
  <ele>1595.5</ele>
  <time>2026-08-28T19:11:34Z</time>
  <course>119.01</course>
  <speed>0.02</speed>
  <fix>3d</fix>
</trkpt>
<trkpt lat="40.0729463" lon="-105.230839">
  <ele>1595.58</ele>
  <time>2026-08-28T19:11:35Z</time>
  <course>0.31</course>
  <speed>0.0</speed>
  <fix>3d</fix>
</trkpt>
<trkpt lat="40.0729461" lon="-105.2308388">
  <ele>1595.5</ele>
  <time>2026-08-28T19:11:35Z</time>
  <course>122.97</course>
  <speed>0.02</speed>
  <fix>3d</fix>
</trkpt>
<trkpt lat="40.0729463" lon="-105.230839">
  <ele>1595.58</ele>
  <time>2026-08-28T19:11:35Z</time>
  <course>1.08</course>
  <speed>0.0</speed>
  <fix>3d</fix>
</trkpt>
<trkpt lat="40.0729461" lon="-105.2308388">
  <ele>1595.5</ele>
  <time>2026-08-28T19:11:35Z</time>
  <course>128.37</course>
  <speed>0.02</speed>
  <fix>3d</fix>
</trkpt>
<trkpt lat="40.0729462" lon="-105.2308389">
  <ele>1595.58</ele>
  <time>2026-08-28T19:11:35Z</time>
  <course>2.25</course>
  <speed>0.0</speed>
  <fix>3d</fix>
</trkpt>
<trkpt lat="40.072946" lon="-105.2308387">
  <ele>1595.49</ele>
  <time>2026-08-28T19:11:35Z</time>
  <course>132.93</course>
  <speed>0.02</speed>
  <fix>3d</fix>
</trkpt>
<trkpt lat="40.0729462" lon="-105.2308389">
  <ele>1595.58</ele>
  <time>2026-08-28T19:11:35Z</time>
  <course>3.67</course>
  <speed>0.0</speed>
  <fix>3d</fix>
</trkpt>
<trkpt lat="40.072946" lon="-105.2308386">
  <ele>1595.49</ele>
  <time>2026-08-28T19:11:35Z</time>
  <course>135.98</course>
  <speed>0.02</speed>
  <fix>3d</fix>
</trkpt>
<trkpt lat="40.0729462" lon="-105.2308389">
  <ele>1595.58</ele>
  <time>2026-08-28T19:11:35Z</time>
  <course>5.18</course>
  <speed>0.0</speed>
  <fix>3d</fix>
</trkpt>
<trkpt lat="40.072946" lon="-105.2308386">
  <ele>1595.49</ele>
  <time>2026-08-28T19:11:35Z</time>
  <course>137.5</course>
  <speed>0.02</speed>
  <fix>3d</fix>
</trkpt>
<trkpt lat="40.0729461" lon="-105.2308388">
  <ele>1595.59</ele>
  <time>2026-08-28T19:11:35Z</time>
  <course>6.68</course>
  <speed>0.0</speed>
  <fix>3d</fix>
</trkpt>
<trkpt lat="40.072946" lon="-105.2308386">
  <ele>1595.48</ele>
  <time>2026-08-28T19:11:35Z</time>
  <course>136.79</course>
  <speed>0.02</speed>
  <fix>3d</fix>
</trkpt>
<trkpt lat="40.0729461" lon="-105.2308388">
  <ele>1595.58</ele>
  <time>2026-08-28T19:11:35Z</time>
  <course>8.0</course>
  <speed>0.0</speed>
  <fix>3d</fix>
</trkpt>
<trkpt lat="40.072946" lon="-105.2308386">
  <ele>1595.48</ele>
  <time>2026-08-28T19:11:35Z</time>
  <course>133.83</course>
  <speed>0.02</speed>
  <fix>3d</fix>
</trkpt>
<trkpt lat="40.0729461" lon="-105.2308387">
  <ele>1595.58</ele>
  <time>2026-08-28T19:11:35Z</time>
  <course>9.03</course>
  <speed>0.0</speed>
  <fix>3d</fix>
</trkpt>
<trkpt lat="40.072946" lon="-105.2308385">
  <ele>1595.48</ele>
  <time>2026-08-28T19:11:35Z</time>
  <course>129.01</course>
  <speed>0.02</speed>
  <fix>3d</fix>
</trkpt>
<trkpt lat="40.0729461" lon="-105.2308387">
  <ele>1595.57</ele>
  <time>2026-08-28T19:11:35Z</time>
  <course>9.63</course>
  <speed>0.0</speed>
  <fix>3d</fix>
</trkpt>
<trkpt lat="40.072946" lon="-105.2308384">
  <ele>1595.47</ele>
  <time>2026-08-28T19:11:35Z</time>
  <course>124.2</course>
  <speed>0.02</speed>
  <fix>3d</fix>
</trkpt>
<trkpt lat="40.0729461" lon="-105.2308386">
  <ele>1595.57</ele>
  <time>2026-08-28T19:11:35Z</time>
  <course>9.76</course>
  <speed>0.0</speed>
  <fix>3d</fix>
</trkpt>
<trkpt lat="40.0729459" lon="-105.2308384">
  <ele>1595.47</ele>
  <time>2026-08-28T19:11:35Z</time>
  <course>120.71</course>
  <speed>0.02</speed>
  <fix>3d</fix>
</trkpt>
<trkpt lat="40.072946" lon="-105.2308385">
  <ele>1595.58</ele>
  <time>2026-08-28T19:11:35Z</time>
  <course>9.43</course>
  <speed>0.01</speed>
  <fix>3d</fix>
</trkpt>
<trkpt lat="40.0729459" lon="-105.2308384">
  <ele>1595.47</ele>
  <time>2026-08-28T19:11:35Z</time>
  <course>118.14</course>
  <speed>0.03</speed>
  <fix>3d</fix>
</trkpt>
<trkpt lat="40.072946" lon="-105.2308385">
  <ele>1595.58</ele>
  <time>2026-08-28T19:11:35Z</time>
  <course>8.65</course>
  <speed>0.01</speed>
  <fix>3d</fix>
</trkpt>
<trkpt lat="40.0729459" lon="-105.2308383">
  <ele>1595.46</ele>
  <time>2026-08-28T19:11:35Z</time>
  <course>115.48</course>
  <speed>0.03</speed>
  <fix>3d</fix>
</trkpt>
<trkpt lat="40.072946" lon="-105.2308384">
  <ele>1595.58</ele>
  <time>2026-08-28T19:11:35Z</time>
  <course>7.49</course>
  <speed>0.01</speed>
  <fix>3d</fix>
</trkpt>
<trkpt lat="40.0729459" lon="-105.2308382">
  <ele>1595.46</ele>
  <time>2026-08-28T19:11:35Z</time>
  <course>113.13</course>
  <speed>0.03</speed>
  <fix>3d</fix>
</trkpt>
<trkpt lat="40.072946" lon="-105.2308383">
  <ele>1595.57</ele>
  <time>2026-08-28T19:11:35Z</time>
  <course>6.1</course>
  <speed>0.01</speed>
  <fix>3d</fix>
</trkpt>
<trkpt lat="40.0729458" lon="-105.2308381">
  <ele>1595.46</ele>
  <time>2026-08-28T19:11:35Z</time>
  <course>111.55</course>
  <speed>0.03</speed>
  <fix>3d</fix>
</trkpt>
<trkpt lat="40.072946" lon="-105.2308382">
  <ele>1595.57</ele>
  <time>2026-08-28T19:11:35Z</time>
  <course>4.54</course>
  <speed>0.01</speed>
  <fix>3d</fix>
</trkpt>
<trkpt lat="40.0729458" lon="-105.2308381">
  <ele>1595.45</ele>
  <time>2026-08-28T19:11:35Z</time>
  <course>110.33</course>
  <speed>0.03</speed>
  <fix>3d</fix>
</trkpt>
<trkpt lat="40.0729459" lon="-105.2308382">
  <ele>1595.57</ele>
  <time>2026-08-28T19:11:35Z</time>
  <course>3.06</course>
  <speed>0.01</speed>
  <fix>3d</fix>
</trkpt>
<trkpt lat="40.0729458" lon="-105.230838">
  <ele>1595.45</ele>
  <time>2026-08-28T19:11:35Z</time>
  <course>109.83</course>
  <speed>0.03</speed>
  <fix>3d</fix>
</trkpt>
<trkpt lat="40.0729459" lon="-105.2308381">
  <ele>1595.57</ele>
  <time>2026-08-28T19:11:35Z</time>
  <course>1.73</course>
  <speed>0.0</speed>
  <fix>3d</fix>
</trkpt>
<trkpt lat="40.0729458" lon="-105.2308379">
  <ele>1595.45</ele>
  <time>2026-08-28T19:11:35Z</time>
  <course>110.11</course>
  <speed>0.03</speed>
  <fix>3d</fix>
</trkpt>
<trkpt lat="40.0729459" lon="-105.230838">
  <ele>1595.57</ele>
  <time>2026-08-28T19:11:35Z</time>
  <course>0.7</course>
  <speed>0.0</speed>
  <fix>3d</fix>
</trkpt>
<trkpt lat="40.0729457" lon="-105.2308379">
  <ele>1595.45</ele>
  <time>2026-08-28T19:11:35Z</time>
  <course>111.27</course>
  <speed>0.02</speed>
  <fix>3d</fix>
</trkpt>
<trkpt lat="40.0729459" lon="-105.230838">
  <ele>1595.57</ele>
  <time>2026-08-28T19:11:35Z</time>
  <course>0.08</course>
  <speed>0.0</speed>
  <fix>3d</fix>
</trkpt>
<trkpt lat="40.0729457" lon="-105.2308378">
  <ele>1595.45</ele>
  <time>2026-08-28T19:11:35Z</time>
  <course>114.3</course>
  <speed>0.02</speed>
  <fix>3d</fix>
</trkpt>
<trkpt lat="40.0729459" lon="-105.230838">
  <ele>1595.57</ele>
  <time>2026-08-28T19:11:35Z</time>
  <course>359.95</course>
  <speed>0.0</speed>
  <fix>3d</fix>
</trkpt>
<trkpt lat="40.0729457" lon="-105.2308377">
  <ele>1595.45</ele>
  <time>2026-08-28T19:11:35Z</time>
  <course>119.54</course>
  <speed>0.02</speed>
  <fix>3d</fix>
</trkpt>
<trkpt lat="40.0729458" lon="-105.2308379">
  <ele>1595.57</ele>
  <time>2026-08-28T19:11:35Z</time>
  <course>0.28</course>
  <speed>0.0</speed>
  <fix>3d</fix>
</trkpt>
<trkpt lat="40.0729457" lon="-105.2308377">
  <ele>1595.45</ele>
  <time>2026-08-28T19:11:35Z</time>
  <course>125.46</course>
  <speed>0.02</speed>
  <fix>3d</fix>
</trkpt>
<trkpt lat="40.0729458" lon="-105.2308379">
  <ele>1595.57</ele>
  <time>2026-08-28T19:11:35Z</time>
  <course>1.06</course>
  <speed>0.0</speed>
  <fix>3d</fix>
</trkpt>
<trkpt lat="40.0729457" lon="-105.2308377">
  <ele>1595.44</ele>
  <time>2026-08-28T19:11:35Z</time>
  <course>129.83</course>
  <speed>0.02</speed>
  <fix>3d</fix>
</trkpt>
<trkpt lat="40.0729458" lon="-105.2308378">
  <ele>1595.56</ele>
  <time>2026-08-28T19:11:35Z</time>
  <course>2.22</course>
  <speed>0.0</speed>
  <fix>3d</fix>
</trkpt>
<trkpt lat="40.0729456" lon="-105.2308376">
  <ele>1595.44</ele>
  <time>2026-08-28T19:11:35Z</time>
  <course>133.1</course>
  <speed>0.02</speed>
  <fix>3d</fix>
</trkpt>
<trkpt lat="40.0729458" lon="-105.2308378">
  <ele>1595.56</ele>
  <time>2026-08-28T19:11:35Z</time>
  <course>3.64</course>
  <speed>0.0</speed>
  <fix>3d</fix>
</trkpt>
<trkpt lat="40.0729456" lon="-105.2308376">
  <ele>1595.44</ele>
  <time>2026-08-28T19:11:35Z</time>
  <course>135.52</course>
  <speed>0.02</speed>
  <fix>3d</fix>
</trkpt>
<trkpt lat="40.0729457" lon="-105.2308378">
  <ele>1595.56</ele>
  <time>2026-08-28T19:11:35Z</time>
  <course>5.17</course>
  <speed>0.0</speed>
  <fix>3d</fix>
</trkpt>
<trkpt lat="40.0729456" lon="-105.2308376">
  <ele>1595.44</ele>
  <time>2026-08-28T19:11:35Z</time>
  <course>136.1</course>
  <speed>0.02</speed>
  <fix>3d</fix>
</trkpt>
<trkpt lat="40.0729457" lon="-105.2308377">
  <ele>1595.56</ele>
  <time>2026-08-28T19:11:35Z</time>
  <course>6.64</course>
  <speed>0.0</speed>
  <fix>3d</fix>
</trkpt>
<trkpt lat="40.0729455" lon="-105.2308375">
  <ele>1595.44</ele>
  <time>2026-08-28T19:11:35Z</time>
  <course>134.33</course>
  <speed>0.02</speed>
  <fix>3d</fix>
</trkpt>
<trkpt lat="40.0729457" lon="-105.2308377">
  <ele>1595.56</ele>
  <time>2026-08-28T19:11:35Z</time>
  <course>7.94</course>
  <speed>0.0</speed>
  <fix>3d</fix>
</trkpt>
<trkpt lat="40.0729454" lon="-105.2308374">
  <ele>1595.44</ele>
  <time>2026-08-28T19:11:35Z</time>
  <course>131.63</course>
  <speed>0.02</speed>
  <fix>3d</fix>
</trkpt>
<trkpt lat="40.0729456" lon="-105.2308376">
  <ele>1595.57</ele>
  <time>2026-08-28T19:11:35Z</time>
  <course>8.98</course>
  <speed>0.0</speed>
  <fix>3d</fix>
</trkpt>
<trkpt lat="40.0729454" lon="-105.2308374">
  <ele>1595.44</ele>
  <time>2026-08-28T19:11:35Z</time>
  <course>128.82</course>
  <speed>0.02</speed>
  <fix>3d</fix>
</trkpt>
<trkpt lat="40.0729456" lon="-105.2308376">
  <ele>1595.57</ele>
  <time>2026-08-28T19:11:35Z</time>
  <course>9.59</course>
  <speed>0.0</speed>
  <fix>3d</fix>
</trkpt>
<trkpt lat="40.0729454" lon="-105.2308374">
  <ele>1595.44</ele>
  <time>2026-08-28T19:11:35Z</time>
  <course>124.95</course>
  <speed>0.02</speed>
  <fix>3d</fix>
</trkpt>
<trkpt lat="40.0729456" lon="-105.2308375">
  <ele>1595.57</ele>
  <time>2026-08-28T19:11:35Z</time>
  <course>9.75</course>
  <speed>0.0</speed>
  <fix>3d</fix>
</trkpt>
<trkpt lat="40.0729454" lon="-105.2308373">
  <ele>1595.44</ele>
  <time>2026-08-28T19:11:35Z</time>
  <course>120.63</course>
  <speed>0.02</speed>
  <fix>3d</fix>
</trkpt>
<trkpt lat="40.0729455" lon="-105.2308374">
  <ele>1595.58</ele>
  <time>2026-08-28T19:11:35Z</time>
  <course>9.41</course>
  <speed>0.01</speed>
  <fix>3d</fix>
</trkpt>
<trkpt lat="40.0729453" lon="-105.2308372">
  <ele>1595.44</ele>
  <time>2026-08-28T19:11:35Z</time>
  <course>117.07</course>
  <speed>0.03</speed>
  <fix>3d</fix>
</trkpt>
<trkpt lat="40.0729455" lon="-105.2308374">
  <ele>1595.58</ele>
  <time>2026-08-28T19:11:35Z</time>
  <course>8.66</course>
  <speed>0.01</speed>
  <fix>3d</fix>
</trkpt>
<trkpt lat="40.0729453" lon="-105.2308372">
  <ele>1595.44</ele>
  <time>2026-08-28T19:11:35Z</time>
  <course>113.93</course>
  <speed>0.03</speed>
  <fix>3d</fix>
</trkpt>
<trkpt lat="40.0729455" lon="-105.2308373">
  <ele>1595.58</ele>
  <time>2026-08-28T19:11:35Z</time>
  <course>7.53</course>
  <speed>0.01</speed>
  <fix>3d</fix>
</trkpt>
<trkpt lat="40.0729453" lon="-105.2308371">
  <ele>1595.44</ele>
  <time>2026-08-28T19:11:35Z</time>
  <course>110.57</course>
  <speed>0.03</speed>
  <fix>3d</fix>
</trkpt>
<trkpt lat="40.0729455" lon="-105.2308372">
  <ele>1595.58</ele>
  <time>2026-08-28T19:11:35Z</time>
  <course>6.1</course>
  <speed>0.01</speed>
  <fix>3d</fix>
</trkpt>
<trkpt lat="40.0729453" lon="-105.230837">
  <ele>1595.44</ele>
  <time>2026-08-28T19:11:35Z</time>
  <course>107.94</course>
  <speed>0.03</speed>
  <fix>3d</fix>
</trkpt>
<trkpt lat="40.0729454" lon="-105.2308371">
  <ele>1595.57</ele>
  <time>2026-08-28T19:11:35Z</time>
  <course>4.58</course>
  <speed>0.01</speed>
  <fix>3d</fix>
</trkpt>
<trkpt lat="40.0729453" lon="-105.2308369">
  <ele>1595.43</ele>
  <time>2026-08-28T19:11:35Z</time>
  <course>106.85</course>
  <speed>0.03</speed>
  <fix>3d</fix>
</trkpt>
<trkpt lat="40.0729454" lon="-105.2308371">
  <ele>1595.56</ele>
  <time>2026-08-28T19:11:35Z</time>
  <course>3.05</course>
  <speed>0.01</speed>
  <fix>3d</fix>
</trkpt>
<trkpt lat="40.0729453" lon="-105.2308369">
  <ele>1595.43</ele>
  <time>2026-08-28T19:11:35Z</time>
  <course>106.4</course>
  <speed>0.03</speed>
  <fix>3d</fix>
</trkpt>
<trkpt lat="40.0729454" lon="-105.230837">
  <ele>1595.56</ele>
  <time>2026-08-28T19:11:35Z</time>
  <course>1.7</course>
  <speed>0.0</speed>
  <fix>3d</fix>
</trkpt>
<trkpt lat="40.0729453" lon="-105.2308368">
  <ele>1595.43</ele>
  <time>2026-08-28T19:11:35Z</time>
  <course>106.76</course>
  <speed>0.02</speed>
  <fix>3d</fix>
</trkpt>
<trkpt lat="40.0729454" lon="-105.2308369">
  <ele>1595.55</ele>
  <time>2026-08-28T19:11:35Z</time>
  <course>0.67</course>
  <speed>0.0</speed>
  <fix>3d</fix>
</trkpt>
<trkpt lat="40.0729453" lon="-105.2308367">
  <ele>1595.43</ele>
  <time>2026-08-28T19:11:35Z</time>
  <course>108.21</course>
  <speed>0.02</speed>
  <fix>3d</fix>
</trkpt>
<trkpt lat="40.0729454" lon="-105.2308369">
  <ele>1595.55</ele>
  <time>2026-08-28T19:11:35Z</time>
  <course>0.04</course>
  <speed>0.0</speed>
  <fix>3d</fix>
</trkpt>
<trkpt lat="40.0729453" lon="-105.2308367">
  <ele>1595.43</ele>
  <time>2026-08-28T19:11:35Z</time>
  <course>110.15</course>
  <speed>0.02</speed>
  <fix>3d</fix>
</trkpt>
<trkpt lat="40.0729454" lon="-105.2308368">
  <ele>1595.55</ele>
  <time>2026-08-28T19:11:35Z</time>
  <course>359.88</course>
  <speed>0.0</speed>
  <fix>3d</fix>
</trkpt>
<trkpt lat="40.0729453" lon="-105.2308367">
  <ele>1595.43</ele>
  <time>2026-08-28T19:11:35Z</time>
  <course>112.84</course>
  <speed>0.02</speed>
  <fix>3d</fix>
</trkpt>
<trkpt lat="40.0729454" lon="-105.2308368">
  <ele>1595.55</ele>
  <time>2026-08-28T19:11:35Z</time>
  <course>0.2</course>
  <speed>0.0</speed>
  <fix>3d</fix>
</trkpt>
<trkpt lat="40.0729452" lon="-105.2308366">
  <ele>1595.43</ele>
  <time>2026-08-28T19:11:35Z</time>
  <course>117.67</course>
  <speed>0.02</speed>
  <fix>3d</fix>
</trkpt>
<trkpt lat="40.0729454" lon="-105.2308368">
  <ele>1595.55</ele>
  <time>2026-08-28T19:11:35Z</time>
  <course>0.99</course>
  <speed>0.0</speed>
  <fix>3d</fix>
</trkpt>
<trkpt lat="40.0729452" lon="-105.2308365">
  <ele>1595.43</ele>
  <time>2026-08-28T19:11:35Z</time>
  <course>124.6</course>
  <speed>0.01</speed>
  <fix>3d</fix>
</trkpt>
<trkpt lat="40.0729453" lon="-105.2308367">
  <ele>1595.55</ele>
  <time>2026-08-28T19:11:35Z</time>
  <course>2.14</course>
  <speed>0.0</speed>
  <fix>3d</fix>
</trkpt>
<trkpt lat="40.0729452" lon="-105.2308365">
  <ele>1595.44</ele>
  <time>2026-08-28T19:11:35Z</time>
  <course>131.3</course>
  <speed>0.01</speed>
  <fix>3d</fix>
</trkpt>
<trkpt lat="40.0729453" lon="-105.2308367">
  <ele>1595.56</ele>
  <time>2026-08-28T19:11:35Z</time>
  <course>3.56</course>
  <speed>0.0</speed>
  <fix>3d</fix>
</trkpt>
<trkpt lat="40.0729452" lon="-105.2308365">
  <ele>1595.44</ele>
  <time>2026-08-28T19:11:35Z</time>
  <course>135.94</course>
  <speed>0.01</speed>
  <fix>3d</fix>
</trkpt>
<trkpt lat="40.0729453" lon="-105.2308367">
  <ele>1595.56</ele>
  <time>2026-08-28T19:11:35Z</time>
  <course>5.07</course>
  <speed>0.0</speed>
  <fix>3d</fix>
</trkpt>
<trkpt lat="40.0729451" lon="-105.2308365">
  <ele>1595.45</ele>
  <time>2026-08-28T19:11:35Z</time>
  <course>137.65</course>
  <speed>0.02</speed>
  <fix>3d</fix>
</trkpt>
<trkpt lat="40.0729453" lon="-105.2308366">
  <ele>1595.57</ele>
  <time>2026-08-28T19:11:35Z</time>
  <course>6.63</course>
  <speed>0.0</speed>
  <fix>3d</fix>
</trkpt>
<trkpt lat="40.0729451" lon="-105.2308365">
  <ele>1595.45</ele>
  <time>2026-08-28T19:11:35Z</time>
  <course>138.0</course>
  <speed>0.02</speed>
  <fix>3d</fix>
</trkpt>
<trkpt lat="40.0729452" lon="-105.2308366">
  <ele>1595.57</ele>
  <time>2026-08-28T19:11:35Z</time>
  <course>7.97</course>
  <speed>0.0</speed>
  <fix>3d</fix>
</trkpt>
<trkpt lat="40.0729451" lon="-105.2308364">
  <ele>1595.45</ele>
  <time>2026-08-28T19:11:35Z</time>
  <course>136.45</course>
  <speed>0.02</speed>
  <fix>3d</fix>
</trkpt>
<trkpt lat="40.0729452" lon="-105.2308366">
  <ele>1595.57</ele>
  <time>2026-08-28T19:11:35Z</time>
  <course>9.0</course>
  <speed>0.0</speed>
  <fix>3d</fix>
</trkpt>
<trkpt lat="40.072945" lon="-105.2308364">
  <ele>1595.46</ele>
  <time>2026-08-28T19:11:35Z</time>
  <course>133.03</course>
  <speed>0.02</speed>
  <fix>3d</fix>
</trkpt>
<trkpt lat="40.0729452" lon="-105.2308365">
  <ele>1595.57</ele>
  <time>2026-08-28T19:11:35Z</time>
  <course>9.61</course>
  <speed>0.0</speed>
  <fix>3d</fix>
</trkpt>
<trkpt lat="40.072945" lon="-105.2308363">
  <ele>1595.46</ele>
  <time>2026-08-28T19:11:35Z</time>
  <course>129.19</course>
  <speed>0.02</speed>
  <fix>3d</fix>
</trkpt>
<trkpt lat="40.0729451" lon="-105.2308365">
  <ele>1595.57</ele>
  <time>2026-08-28T19:11:35Z</time>
  <course>9.74</course>
  <speed>0.0</speed>
  <fix>3d</fix>
</trkpt>
<trkpt lat="40.072945" lon="-105.2308362">
  <ele>1595.46</ele>
  <time>2026-08-28T19:11:35Z</time>
  <course>125.29</course>
  <speed>0.02</speed>
  <fix>3d</fix>
</trkpt>
<trkpt lat="40.0729451" lon="-105.2308364">
  <ele>1595.57</ele>
  <time>2026-08-28T19:11:35Z</time>
  <course>9.41</course>
  <speed>0.01</speed>
  <fix>3d</fix>
</trkpt>
<trkpt lat="40.072945" lon="-105.2308362">
  <ele>1595.46</ele>
  <time>2026-08-28T19:11:35Z</time>
  <course>121.71</course>
  <speed>0.03</speed>
  <fix>3d</fix>
</trkpt>
<trkpt lat="40.0729451" lon="-105.2308363">
  <ele>1595.56</ele>
  <time>2026-08-28T19:11:35Z</time>
  <course>8.62</course>
  <speed>0.01</speed>
  <fix>3d</fix>
</trkpt>
<trkpt lat="40.0729449" lon="-105.2308361">
  <ele>1595.46</ele>
  <time>2026-08-28T19:11:35Z</time>
  <course>118.85</course>
  <speed>0.03</speed>
  <fix>3d</fix>
</trkpt>
<trkpt lat="40.0729451" lon="-105.2308362">
  <ele>1595.56</ele>
  <time>2026-08-28T19:11:35Z</time>
  <course>7.46</course>
  <speed>0.01</speed>
  <fix>3d</fix>
</trkpt>
<trkpt lat="40.0729448" lon="-105.230836">
  <ele>1595.46</ele>
  <time>2026-08-28T19:11:35Z</time>
  <course>116.59</course>
  <speed>0.03</speed>
  <fix>3d</fix>
</trkpt>
<trkpt lat="40.072945" lon="-105.2308362">
  <ele>1595.56</ele>
  <time>2026-08-28T19:11:35Z</time>
  <course>6.04</course>
  <speed>0.01</speed>
  <fix>3d</fix>
</trkpt>
<trkpt lat="40.0729448" lon="-105.230836">
  <ele>1595.46</ele>
  <time>2026-08-28T19:11:35Z</time>
  <course>114.03</course>
  <speed>0.03</speed>
  <fix>3d</fix>
</trkpt>
<trkpt lat="40.072945" lon="-105.2308361">
  <ele>1595.56</ele>
  <time>2026-08-28T19:11:35Z</time>
  <course>4.51</course>
  <speed>0.01</speed>
  <fix>3d</fix>
</trkpt>
<trkpt lat="40.0729448" lon="-105.2308359">
  <ele>1595.46</ele>
  <time>2026-08-28T19:11:35Z</time>
  <course>111.74</course>
  <speed>0.03</speed>
  <fix>3d</fix>
</trkpt>
<trkpt lat="40.072945" lon="-105.230836">
  <ele>1595.57</ele>
  <time>2026-08-28T19:11:35Z</time>
  <course>3.01</course>
  <speed>0.01</speed>
  <fix>3d</fix>
</trkpt>
<trkpt lat="40.0729447" lon="-105.2308358">
  <ele>1595.46</ele>
  <time>2026-08-28T19:11:35Z</time>
  <course>109.87</course>
  <speed>0.03</speed>
  <fix>3d</fix>
</trkpt>
<trkpt lat="40.0729449" lon="-105.2308359">
  <ele>1595.56</ele>
  <time>2026-08-28T19:11:35Z</time>
  <course>1.69</course>
  <speed>0.01</speed>
  <fix>3d</fix>
</trkpt>
<trkpt lat="40.0729447" lon="-105.2308358">
  <ele>1595.46</ele>
  <time>2026-08-28T19:11:35Z</time>
  <course>108.45</course>
  <speed>0.03</speed>
  <fix>3d</fix>
</trkpt>
<trkpt lat="40.0729449" lon="-105.2308359">
  <ele>1595.56</ele>
  <time>2026-08-28T19:11:35Z</time>
  <course>0.67</course>
  <speed>0.0</speed>
  <fix>3d</fix>
</trkpt>
<trkpt lat="40.0729447" lon="-105.2308357">
  <ele>1595.46</ele>
  <time>2026-08-28T19:11:35Z</time>
  <course>108.21</course>
  <speed>0.02</speed>
  <fix>3d</fix>
</trkpt>
<trkpt lat="40.0729449" lon="-105.2308358">
  <ele>1595.56</ele>
  <time>2026-08-28T19:11:35Z</time>
  <course>0.04</course>
  <speed>0.0</speed>
  <fix>3d</fix>
</trkpt>
<trkpt lat="40.0729447" lon="-105.2308356">
  <ele>1595.46</ele>
  <time>2026-08-28T19:11:35Z</time>
  <course>109.21</course>
  <speed>0.02</speed>
  <fix>3d</fix>
</trkpt>
<trkpt lat="40.0729449" lon="-105.2308358">
  <ele>1595.55</ele>
  <time>2026-08-28T19:11:35Z</time>
  <course>359.88</course>
  <speed>0.0</speed>
  <fix>3d</fix>
</trkpt>
<trkpt lat="40.0729447" lon="-105.2308355">
  <ele>1595.46</ele>
  <time>2026-08-28T19:11:35Z</time>
  <course>112.09</course>
  <speed>0.02</speed>
  <fix>3d</fix>
</trkpt>
<trkpt lat="40.0729449" lon="-105.2308357">
  <ele>1595.55</ele>
  <time>2026-08-28T19:11:35Z</time>
  <course>359.86</course>
  <speed>0.0</speed>
  <fix>3d</fix>
</trkpt>
<trkpt lat="40.0729447" lon="-105.2308355">
  <ele>1595.47</ele>
  <time>2026-08-28T19:11:35Z</time>
  <course>116.4</course>
  <speed>0.02</speed>
  <fix>3d</fix>
</trkpt>
<trkpt lat="40.0729448" lon="-105.2308357">
  <ele>1595.55</ele>
  <time>2026-08-28T19:11:35Z</time>
  <course>359.9</course>
  <speed>0.0</speed>
  <fix>3d</fix>
</trkpt>
<trkpt lat="40.0729447" lon="-105.2308355">
  <ele>1595.47</ele>
  <time>2026-08-28T19:11:35Z</time>
  <course>118.06</course>
  <speed>0.02</speed>
  <fix>3d</fix>
</trkpt>
<trkpt lat="40.0729448" lon="-105.2308356">
  <ele>1595.56</ele>
  <time>2026-08-28T19:11:35Z</time>
  <course>359.89</course>
  <speed>0.0</speed>
  <fix>3d</fix>
</trkpt>
<trkpt lat="40.0729447" lon="-105.2308354">
  <ele>1595.47</ele>
  <time>2026-08-28T19:11:35Z</time>
  <course>116.22</course>
  <speed>0.02</speed>
  <fix>3d</fix>
</trkpt>
<trkpt lat="40.0729448" lon="-105.2308356">
  <ele>1595.56</ele>
  <time>2026-08-28T19:11:35Z</time>
  <course>359.92</course>
  <speed>0.0</speed>
  <fix>3d</fix>
</trkpt>
<trkpt lat="40.0729447" lon="-105.2308353">
  <ele>1595.48</ele>
  <time>2026-08-28T19:11:35Z</time>
  <course>114.1</course>
  <speed>0.02</speed>
  <fix>3d</fix>
</trkpt>
<trkpt lat="40.0729448" lon="-105.2308355">
  <ele>1595.57</ele>
  <time>2026-08-28T19:11:35Z</time>
  <course>359.9</course>
  <speed>0.0</speed>
  <fix>3d</fix>
</trkpt>
<trkpt lat="40.0729447" lon="-105.2308353">
  <ele>1595.48</ele>
  <time>2026-08-28T19:11:35Z</time>
  <course>112.1</course>
  <speed>0.02</speed>
  <fix>3d</fix>
</trkpt>
<trkpt lat="40.0729448" lon="-105.2308355">
  <ele>1595.57</ele>
  <time>2026-08-28T19:11:35Z</time>
  <course>359.92</course>
  <speed>0.0</speed>
  <fix>3d</fix>
</trkpt>
<trkpt lat="40.0729447" lon="-105.2308353">
  <ele>1595.48</ele>
  <time>2026-08-28T19:11:35Z</time>
  <course>109.88</course>
  <speed>0.02</speed>
  <fix>3d</fix>
</trkpt>
<trkpt lat="40.0729448" lon="-105.2308354">
  <ele>1595.57</ele>
  <time>2026-08-28T19:11:35Z</time>
  <course>359.92</course>
  <speed>0.01</speed>
  <fix>3d</fix>
</trkpt>
<trkpt lat="40.0729446" lon="-105.2308352">
  <ele>1595.49</ele>
  <time>2026-08-28T19:11:35Z</time>
  <course>108.0</course>
  <speed>0.02</speed>
  <fix>3d</fix>
</trkpt>
<trkpt lat="40.0729448" lon="-105.2308354">
  <ele>1595.57</ele>
  <time>2026-08-28T19:11:35Z</time>
  <course>359.92</course>
  <speed>0.01</speed>
  <fix>3d</fix>
</trkpt>
<trkpt lat="40.0729446" lon="-105.2308352">
  <ele>1595.49</ele>
  <time>2026-08-28T19:11:35Z</time>
  <course>106.23</course>
  <speed>0.02</speed>
  <fix>3d</fix>
</trkpt>
<trkpt lat="40.0729448" lon="-105.2308353">
  <ele>1595.56</ele>
  <time>2026-08-28T19:11:35Z</time>
  <course>359.92</course>
  <speed>0.01</speed>
  <fix>3d</fix>
</trkpt>
<trkpt lat="40.0729446" lon="-105.2308351">
  <ele>1595.49</ele>
  <time>2026-08-28T19:11:35Z</time>
  <course>104.1</course>
  <speed>0.02</speed>
  <fix>3d</fix>
</trkpt>
<trkpt lat="40.0729448" lon="-105.2308352">
  <ele>1595.56</ele>
  <time>2026-08-28T19:11:35Z</time>
  <course>359.91</course>
  <speed>0.01</speed>
  <fix>3d</fix>
</trkpt>
<trkpt lat="40.0729446" lon="-105.230835">
  <ele>1595.49</ele>
  <time>2026-08-28T19:11:35Z</time>
  <course>102.23</course>
  <speed>0.02</speed>
  <fix>3d</fix>
</trkpt>
<trkpt lat="40.0729447" lon="-105.2308352">
  <ele>1595.56</ele>
  <time>2026-08-28T19:11:35Z</time>
  <course>359.89</course>
  <speed>0.01</speed>
  <fix>3d</fix>
</trkpt>
<trkpt lat="40.0729446" lon="-105.230835">
  <ele>1595.49</ele>
  <time>2026-08-28T19:11:35Z</time>
  <course>100.6</course>
  <speed>0.02</speed>
  <fix>3d</fix>
</trkpt>
<trkpt lat="40.0729447" lon="-105.2308351">
  <ele>1595.56</ele>
  <time>2026-08-28T19:11:35Z</time>
  <course>359.91</course>
  <speed>0.01</speed>
  <fix>3d</fix>
</trkpt>
<trkpt lat="40.0729446" lon="-105.2308349">
  <ele>1595.5</ele>
  <time>2026-08-28T19:11:35Z</time>
  <course>99.18</course>
  <speed>0.02</speed>
  <fix>3d</fix>
</trkpt>
<trkpt lat="40.0729447" lon="-105.2308351">
  <ele>1595.57</ele>
  <time>2026-08-28T19:11:35Z</time>
  <course>359.92</course>
  <speed>0.01</speed>
  <fix>3d</fix>
</trkpt>
<trkpt lat="40.0729446" lon="-105.2308348">
  <ele>1595.5</ele>
  <time>2026-08-28T19:11:35Z</time>
  <course>97.98</course>
  <speed>0.02</speed>
  <fix>3d</fix>
</trkpt>
<trkpt lat="40.0729447" lon="-105.230835">
  <ele>1595.57</ele>
  <time>2026-08-28T19:11:35Z</time>
  <course>359.93</course>
  <speed>0.01</speed>
  <fix>3d</fix>
</trkpt>
<trkpt lat="40.0729446" lon="-105.2308348">
  <ele>1595.5</ele>
  <time>2026-08-28T19:11:35Z</time>
  <course>96.58</course>
  <speed>0.02</speed>
  <fix>3d</fix>
</trkpt>
<trkpt lat="40.0729447" lon="-105.2308349">
  <ele>1595.57</ele>
  <time>2026-08-28T19:11:35Z</time>
  <course>359.93</course>
  <speed>0.01</speed>
  <fix>3d</fix>
</trkpt>
<trkpt lat="40.0729446" lon="-105.2308347">
  <ele>1595.51</ele>
  <time>2026-08-28T19:11:35Z</time>
  <course>95.32</course>
  <speed>0.02</speed>
  <fix>3d</fix>
</trkpt>
<trkpt lat="40.0729447" lon="-105.2308349">
  <ele>1595.57</ele>
  <time>2026-08-28T19:11:35Z</time>
  <course>359.93</course>
  <speed>0.01</speed>
  <fix>3d</fix>
</trkpt>
<trkpt lat="40.0729446" lon="-105.2308346">
  <ele>1595.51</ele>
  <time>2026-08-28T19:11:35Z</time>
  <course>94.32</course>
  <speed>0.02</speed>
  <fix>3d</fix>
</trkpt>
<trkpt lat="40.0729447" lon="-105.2308348">
  <ele>1595.57</ele>
  <time>2026-08-28T19:11:35Z</time>
  <course>359.77</course>
  <speed>0.01414213562373095</speed>
  <fix>3d</fix>
</trkpt>
<trkpt lat="40.0729446" lon="-105.2308346">
  <ele>1595.51</ele>
  <time>2026-08-28T19:11:35Z</time>
  <course>93.49</course>
  <speed>0.02</speed>
  <fix>3d</fix>
</trkpt>
<trkpt lat="40.0729447" lon="-105.2308347">
  <ele>1595.57</ele>
  <time>2026-08-28T19:11:35Z</time>
  <course>358.71</course>
  <speed>0.01414213562373095</speed>
  <fix>3d</fix>
</trkpt>
<trkpt lat="40.0729446" lon="-105.2308345">
  <ele>1595.51</ele>
  <time>2026-08-28T19:11:35Z</time>
  <course>92.95</course>
  <speed>0.03</speed>
  <fix>3d</fix>
</trkpt>
<trkpt lat="40.0729447" lon="-105.2308346">
  <ele>1595.58</ele>
  <time>2026-08-28T19:11:35Z</time>
  <course>357.38</course>
  <speed>0.01414213562373095</speed>
  <fix>3d</fix>
</trkpt>
<trkpt lat="40.0729446" lon="-105.2308345">
  <ele>1595.51</ele>
  <time>2026-08-28T19:11:35Z</time>
  <course>92.98</course>
  <speed>0.03</speed>
  <fix>3d</fix>
</trkpt>
<trkpt lat="40.0729447" lon="-105.2308346">
  <ele>1595.57</ele>
  <time>2026-08-28T19:11:35Z</time>
  <course>356.21</course>
  <speed>0.01</speed>
  <fix>3d</fix>
</trkpt>
<trkpt lat="40.0729446" lon="-105.2308344">
  <ele>1595.51</ele>
  <time>2026-08-28T19:11:35Z</time>
  <course>94.27</course>
  <speed>0.03</speed>
  <fix>3d</fix>
</trkpt>
<trkpt lat="40.0729447" lon="-105.2308345">
  <ele>1595.57</ele>
  <time>2026-08-28T19:11:35Z</time>
  <course>355.4</course>
  <speed>0.01</speed>
  <fix>3d</fix>
</trkpt>
<trkpt lat="40.0729446" lon="-105.2308343">
  <ele>1595.51</ele>
  <time>2026-08-28T19:11:35Z</time>
  <course>97.34</course>
  <speed>0.03</speed>
  <fix>3d</fix>
</trkpt>
<trkpt lat="40.0729447" lon="-105.2308344">
  <ele>1595.57</ele>
  <time>2026-08-28T19:11:35Z</time>
  <course>355.02</course>
  <speed>0.01</speed>
  <fix>3d</fix>
</trkpt>
<trkpt lat="40.0729445" lon="-105.2308342">
  <ele>1595.51</ele>
  <time>2026-08-28T19:11:35Z</time>
  <course>102.32</course>
  <speed>0.02</speed>
  <fix>3d</fix>
</trkpt>
<trkpt lat="40.0729447" lon="-105.2308344">
  <ele>1595.57</ele>
  <time>2026-08-28T19:11:35Z</time>
  <course>355.12</course>
  <speed>0.0</speed>
  <fix>3d</fix>
</trkpt>
<trkpt lat="40.0729445" lon="-105.2308341">
  <ele>1595.51</ele>
  <time>2026-08-28T19:11:35Z</time>
  <course>108.65</course>
  <speed>0.02</speed>
  <fix>3d</fix>
</trkpt>
<trkpt lat="40.0729447" lon="-105.2308343">
  <ele>1595.58</ele>
  <time>2026-08-28T19:11:35Z</time>
  <course>355.71</course>
  <speed>0.0</speed>
  <fix>3d</fix>
</trkpt>
<trkpt lat="40.0729445" lon="-105.2308341">
  <ele>1595.51</ele>
  <time>2026-08-28T19:11:35Z</time>
  <course>114.82</course>
  <speed>0.02</speed>
  <fix>3d</fix>
</trkpt>
<trkpt lat="40.0729447" lon="-105.2308343">
  <ele>1595.58</ele>
  <time>2026-08-28T19:11:35Z</time>
  <course>356.72</course>
  <speed>0.0</speed>
  <fix>3d</fix>
</trkpt>
<trkpt lat="40.0729445" lon="-105.2308341">
  <ele>1595.51</ele>
  <time>2026-08-28T19:11:35Z</time>
  <course>120.31</course>
  <speed>0.02</speed>
  <fix>3d</fix>
</trkpt>
<trkpt lat="40.0729446" lon="-105.2308343">
  <ele>1595.58</ele>
  <time>2026-08-28T19:11:35Z</time>
  <course>358.04</course>
  <speed>0.0</speed>
  <fix>3d</fix>
</trkpt>
<trkpt lat="40.0729445" lon="-105.230834">
  <ele>1595.51</ele>
  <time>2026-08-28T19:11:35Z</time>
  <course>126.11</course>
  <speed>0.02</speed>
  <fix>3d</fix>
</trkpt>
<trkpt lat="40.0729446" lon="-105.2308342">
  <ele>1595.58</ele>
  <time>2026-08-28T19:11:35Z</time>
  <course>359.56</course>
  <speed>0.0</speed>
  <fix>3d</fix>
</trkpt>
<trkpt lat="40.0729444" lon="-105.230834">
  <ele>1595.51</ele>
  <time>2026-08-28T19:11:35Z</time>
  <course>132.08</course>
  <speed>0.02</speed>
  <fix>3d</fix>
</trkpt>
<trkpt lat="40.0729446" lon="-105.2308342">
  <ele>1595.58</ele>
  <time>2026-08-28T19:11:35Z</time>
  <course>1.04</course>
  <speed>0.0</speed>
  <fix>3d</fix>
</trkpt>
<trkpt lat="40.0729444" lon="-105.230834">
  <ele>1595.51</ele>
  <time>2026-08-28T19:11:35Z</time>
  <course>135.55</course>
  <speed>0.02</speed>
  <fix>3d</fix>
</trkpt>
<trkpt lat="40.0729445" lon="-105.2308341">
  <ele>1595.58</ele>
  <time>2026-08-28T19:11:35Z</time>
  <course>2.45</course>
  <speed>0.0</speed>
  <fix>3d</fix>
</trkpt>
<trkpt lat="40.0729444" lon="-105.2308339">
  <ele>1595.51</ele>
  <time>2026-08-28T19:11:35Z</time>
  <course>136.7</course>
  <speed>0.02</speed>
  <fix>3d</fix>
</trkpt>
<trkpt lat="40.0729445" lon="-105.2308341">
  <ele>1595.59</ele>
  <time>2026-08-28T19:11:35Z</time>
  <course>3.67</course>
  <speed>0.0</speed>
  <fix>3d</fix>
</trkpt>
<trkpt lat="40.0729443" lon="-105.2308338">
  <ele>1595.5</ele>
  <time>2026-08-28T19:11:35Z</time>
  <course>135.98</course>
  <speed>0.02</speed>
  <fix>3d</fix>
</trkpt>
<trkpt lat="40.0729445" lon="-105.230834">
  <ele>1595.59</ele>
  <time>2026-08-28T19:11:35Z</time>
  <course>4.49</course>
  <speed>0.0</speed>
  <fix>3d</fix>
</trkpt>
<trkpt lat="40.0729442" lon="-105.2308338">
  <ele>1595.5</ele>
  <time>2026-08-28T19:11:35Z</time>
  <course>132.47</course>
  <speed>0.02</speed>
  <fix>3d</fix>
</trkpt>
<trkpt lat="40.0729444" lon="-105.230834">
  <ele>1595.59</ele>
  <time>2026-08-28T19:11:35Z</time>
  <course>4.87</course>
  <speed>0.0</speed>
  <fix>3d</fix>
</trkpt>
<trkpt lat="40.0729442" lon="-105.2308338">
  <ele>1595.5</ele>
  <time>2026-08-28T19:11:35Z</time>
  <course>128.18</course>
  <speed>0.03</speed>
  <fix>3d</fix>
</trkpt>
<trkpt lat="40.0729444" lon="-105.2308339">
  <ele>1595.58</ele>
  <time>2026-08-28T19:11:35Z</time>
  <course>4.73</course>
  <speed>0.01</speed>
  <fix>3d</fix>
</trkpt>
<trkpt lat="40.0729442" lon="-105.2308337">
  <ele>1595.5</ele>
  <time>2026-08-28T19:11:35Z</time>
  <course>123.59</course>
  <speed>0.03</speed>
  <fix>3d</fix>
</trkpt>
<trkpt lat="40.0729443" lon="-105.2308338">
  <ele>1595.57</ele>
  <time>2026-08-28T19:11:35Z</time>
  <course>4.13</course>
  <speed>0.01</speed>
  <fix>3d</fix>
</trkpt>
<trkpt lat="40.0729441" lon="-105.2308336">
  <ele>1595.49</ele>
  <time>2026-08-28T19:11:35Z</time>
  <course>118.63</course>
  <speed>0.03</speed>
  <fix>3d</fix>
</trkpt>
<trkpt lat="40.0729443" lon="-105.2308338">
  <ele>1595.57</ele>
  <time>2026-08-28T19:11:35Z</time>
  <course>3.15</course>
  <speed>0.01</speed>
  <fix>3d</fix>
</trkpt>
<trkpt lat="40.0729441" lon="-105.2308336">
  <ele>1595.49</ele>
  <time>2026-08-28T19:11:35Z</time>
  <course>114.34</course>
  <speed>0.03</speed>
  <fix>3d</fix>
</trkpt>
<trkpt lat="40.0729443" lon="-105.2308337">
  <ele>1595.57</ele>
  <time>2026-08-28T19:11:35Z</time>
  <course>1.8</course>
  <speed>0.01</speed>
  <fix>3d</fix>
</trkpt>
<trkpt lat="40.0729441" lon="-105.2308335">
  <ele>1595.49</ele>
  <time>2026-08-28T19:11:35Z</time>
  <course>111.41</course>
  <speed>0.03</speed>
  <fix>3d</fix>
</trkpt>
<trkpt lat="40.0729443" lon="-105.2308336">
  <ele>1595.57</ele>
  <time>2026-08-28T19:11:35Z</time>
  <course>0.31</course>
  <speed>0.01</speed>
  <fix>3d</fix>
</trkpt>
<trkpt lat="40.0729441" lon="-105.2308334">
  <ele>1595.49</ele>
  <time>2026-08-28T19:11:35Z</time>
  <course>109.31</course>
  <speed>0.03</speed>
  <fix>3d</fix>
</trkpt>
<trkpt lat="40.0729442" lon="-105.2308335">
  <ele>1595.57</ele>
  <time>2026-08-28T19:11:35Z</time>
  <course>358.81</course>
  <speed>0.01</speed>
  <fix>3d</fix>
</trkpt>
<trkpt lat="40.0729441" lon="-105.2308333">
  <ele>1595.49</ele>
  <time>2026-08-28T19:11:35Z</time>
  <course>107.59</course>
  <speed>0.03</speed>
  <fix>3d</fix>
</trkpt>
<trkpt lat="40.0729442" lon="-105.2308335">
  <ele>1595.58</ele>
  <time>2026-08-28T19:11:35Z</time>
  <course>357.43</course>
  <speed>0.0</speed>
  <fix>3d</fix>
</trkpt>
<trkpt lat="40.0729441" lon="-105.2308333">
  <ele>1595.49</ele>
  <time>2026-08-28T19:11:35Z</time>
  <course>106.72</course>
  <speed>0.03</speed>
  <fix>3d</fix>
</trkpt>
<trkpt lat="40.0729442" lon="-105.2308334">
  <ele>1595.58</ele>
  <time>2026-08-28T19:11:35Z</time>
  <course>356.23</course>
  <speed>0.0</speed>
  <fix>3d</fix>
</trkpt>
<trkpt lat="40.0729441" lon="-105.2308332">
  <ele>1595.48</ele>
  <time>2026-08-28T19:11:35Z</time>
  <course>106.99</course>
  <speed>0.02</speed>
  <fix>3d</fix>
</trkpt>
<trkpt lat="40.0729442" lon="-105.2308334">
  <ele>1595.58</ele>
  <time>2026-08-28T19:11:35Z</time>
  <course>355.43</course>
  <speed>0.0</speed>
  <fix>3d</fix>
</trkpt>
<trkpt lat="40.0729441" lon="-105.2308331">
  <ele>1595.48</ele>
  <time>2026-08-28T19:11:35Z</time>
  <course>108.66</course>
  <speed>0.02</speed>
  <fix>3d</fix>
</trkpt>
<trkpt lat="40.0729442" lon="-105.2308333">
  <ele>1595.57</ele>
  <time>2026-08-28T19:11:35Z</time>
  <course>355.05</course>
  <speed>0.0</speed>
  <fix>3d</fix>
</trkpt>
<trkpt lat="40.0729441" lon="-105.2308331">
  <ele>1595.48</ele>
  <time>2026-08-28T19:11:35Z</time>
  <course>111.52</course>
  <speed>0.02</speed>
  <fix>3d</fix>
</trkpt>
<trkpt lat="40.0729442" lon="-105.2308333">
  <ele>1595.57</ele>
  <time>2026-08-28T19:11:35Z</time>
  <course>355.15</course>
  <speed>0.0</speed>
  <fix>3d</fix>
</trkpt>
<trkpt lat="40.072944" lon="-105.230833">
  <ele>1595.48</ele>
  <time>2026-08-28T19:11:35Z</time>
  <course>114.94</course>
  <speed>0.02</speed>
  <fix>3d</fix>
</trkpt>
<trkpt lat="40.0729442" lon="-105.2308332">
  <ele>1595.57</ele>
  <time>2026-08-28T19:11:35Z</time>
  <course>355.73</course>
  <speed>0.0</speed>
  <fix>3d</fix>
</trkpt>
<trkpt lat="40.072944" lon="-105.2308329">
  <ele>1595.48</ele>
  <time>2026-08-28T19:11:35Z</time>
  <course>119.65</course>
  <speed>0.02</speed>
  <fix>3d</fix>
</trkpt>
<trkpt lat="40.0729441" lon="-105.2308332">
  <ele>1595.57</ele>
  <time>2026-08-28T19:11:35Z</time>
  <course>356.72</course>
  <speed>0.0</speed>
  <fix>3d</fix>
</trkpt>
<trkpt lat="40.072944" lon="-105.2308329">
  <ele>1595.48</ele>
  <time>2026-08-28T19:11:35Z</time>
  <course>125.41</course>
  <speed>0.01</speed>
  <fix>3d</fix>
</trkpt>
<trkpt lat="40.0729441" lon="-105.2308331">
  <ele>1595.57</ele>
  <time>2026-08-28T19:11:35Z</time>
  <course>358.04</course>
  <speed>0.0</speed>
  <fix>3d</fix>
</trkpt>
<trkpt lat="40.072944" lon="-105.2308329">
  <ele>1595.48</ele>
  <time>2026-08-28T19:11:35Z</time>
  <course>130.35</course>
  <speed>0.01</speed>
  <fix>3d</fix>
</trkpt>
<trkpt lat="40.0729441" lon="-105.2308331">
  <ele>1595.57</ele>
  <time>2026-08-28T19:11:35Z</time>
  <course>359.55</course>
  <speed>0.0</speed>
  <fix>3d</fix>
</trkpt>
<trkpt lat="40.072944" lon="-105.2308329">
  <ele>1595.48</ele>
  <time>2026-08-28T19:11:35Z</time>
  <course>133.32</course>
  <speed>0.01</speed>
  <fix>3d</fix>
</trkpt>
<trkpt lat="40.0729441" lon="-105.2308331">
  <ele>1595.57</ele>
  <time>2026-08-28T19:11:35Z</time>
  <course>1.06</course>
  <speed>0.0</speed>
  <fix>3d</fix>
</trkpt>
<trkpt lat="40.0729439" lon="-105.2308329">
  <ele>1595.48</ele>
  <time>2026-08-28T19:11:35Z</time>
  <course>134.44</course>
  <speed>0.02</speed>
  <fix>3d</fix>
</trkpt>
<trkpt lat="40.072944" lon="-105.230833">
  <ele>1595.57</ele>
  <time>2026-08-28T19:11:35Z</time>
  <course>2.47</course>
  <speed>0.0</speed>
  <fix>3d</fix>
</trkpt>
<trkpt lat="40.0729439" lon="-105.2308328">
  <ele>1595.48</ele>
  <time>2026-08-28T19:11:35Z</time>
  <course>134.15</course>
  <speed>0.02</speed>
  <fix>3d</fix>
</trkpt>
<trkpt lat="40.072944" lon="-105.230833">
  <ele>1595.57</ele>
  <time>2026-08-28T19:11:35Z</time>
  <course>3.65</course>
  <speed>0.0</speed>
  <fix>3d</fix>
</trkpt>
<trkpt lat="40.0729439" lon="-105.2308328">
  <ele>1595.47</ele>
  <time>2026-08-28T19:11:35Z</time>
  <course>132.51</course>
  <speed>0.02</speed>
  <fix>3d</fix>
</trkpt>
<trkpt lat="40.072944" lon="-105.2308329">
  <ele>1595.56</ele>
  <time>2026-08-28T19:11:35Z</time>
  <course>4.45</course>
  <speed>0.0</speed>
  <fix>3d</fix>
</trkpt>
<trkpt lat="40.0729438" lon="-105.2308327">
  <ele>1595.47</ele>
  <time>2026-08-28T19:11:35Z</time>
  <course>129.77</course>
  <speed>0.02</speed>
  <fix>3d</fix>
</trkpt>
<trkpt lat="40.072944" lon="-105.2308329">
  <ele>1595.56</ele>
  <time>2026-08-28T19:11:35Z</time>
  <course>4.81</course>
  <speed>0.0</speed>
  <fix>3d</fix>
</trkpt>
<trkpt lat="40.0729438" lon="-105.2308326">
  <ele>1595.47</ele>
  <time>2026-08-28T19:11:35Z</time>
  <course>125.88</course>
  <speed>0.02</speed>
  <fix>3d</fix>
</trkpt>
<trkpt lat="40.0729439" lon="-105.2308328">
  <ele>1595.56</ele>
  <time>2026-08-28T19:11:35Z</time>
  <course>4.7</course>
  <speed>0.0</speed>
  <fix>3d</fix>
</trkpt>
<trkpt lat="40.0729438" lon="-105.2308326">
  <ele>1595.47</ele>
  <time>2026-08-28T19:11:35Z</time>
  <course>121.63</course>
  <speed>0.03</speed>
  <fix>3d</fix>
</trkpt>
<trkpt lat="40.0729439" lon="-105.2308327">
  <ele>1595.56</ele>
  <time>2026-08-28T19:11:35Z</time>
  <course>4.08</course>
  <speed>0.01</speed>
  <fix>3d</fix>
</trkpt>
<trkpt lat="40.0729438" lon="-105.2308326">
  <ele>1595.47</ele>
  <time>2026-08-28T19:11:35Z</time>
  <course>117.87</course>
  <speed>0.03</speed>
  <fix>3d</fix>
</trkpt>
<trkpt lat="40.0729439" lon="-105.2308327">
  <ele>1595.56</ele>
  <time>2026-08-28T19:11:35Z</time>
  <course>3.11</course>
  <speed>0.01</speed>
  <fix>3d</fix>
</trkpt>
<trkpt lat="40.0729437" lon="-105.2308325">
  <ele>1595.48</ele>
  <time>2026-08-28T19:11:35Z</time>
  <course>114.08</course>
  <speed>0.03</speed>
  <fix>3d</fix>
</trkpt>
<trkpt lat="40.0729439" lon="-105.2308326">
  <ele>1595.57</ele>
  <time>2026-08-28T19:11:35Z</time>
  <course>1.78</course>
  <speed>0.01</speed>
  <fix>3d</fix>
</trkpt>
<trkpt lat="40.0729436" lon="-105.2308324">
  <ele>1595.48</ele>
  <time>2026-08-28T19:11:35Z</time>
  <course>110.73</course>
  <speed>0.03</speed>
  <fix>3d</fix>
</trkpt>
<trkpt lat="40.0729438" lon="-105.2308325">
  <ele>1595.57</ele>
  <time>2026-08-28T19:11:36Z</time>
  <course>0.31</course>
  <speed>0.01</speed>
  <fix>3d</fix>
</trkpt>
<trkpt lat="40.0729436" lon="-105.2308323">
  <ele>1595.48</ele>
  <time>2026-08-28T19:11:36Z</time>
  <course>108.56</course>
  <speed>0.03</speed>
  <fix>3d</fix>
</trkpt>
<trkpt lat="40.0729438" lon="-105.2308324">
  <ele>1595.57</ele>
  <time>2026-08-28T19:11:36Z</time>
  <course>358.82</course>
  <speed>0.01</speed>
  <fix>3d</fix>
</trkpt>
<trkpt lat="40.0729436" lon="-105.2308322">
  <ele>1595.48</ele>
  <time>2026-08-28T19:11:36Z</time>
  <course>107.36</course>
  <speed>0.03</speed>
  <fix>3d</fix>
</trkpt>
<trkpt lat="40.0729438" lon="-105.2308324">
  <ele>1595.58</ele>
  <time>2026-08-28T19:11:36Z</time>
  <course>357.44</course>
  <speed>0.0</speed>
  <fix>3d</fix>
</trkpt>
<trkpt lat="40.0729436" lon="-105.2308322">
  <ele>1595.48</ele>
  <time>2026-08-28T19:11:36Z</time>
  <course>107.25</course>
  <speed>0.03</speed>
  <fix>3d</fix>
</trkpt>
<trkpt lat="40.0729438" lon="-105.2308323">
  <ele>1595.58</ele>
  <time>2026-08-28T19:11:36Z</time>
  <course>356.24</course>
  <speed>0.0</speed>
  <fix>3d</fix>
</trkpt>
<trkpt lat="40.0729436" lon="-105.2308321">
  <ele>1595.48</ele>
  <time>2026-08-28T19:11:36Z</time>
  <course>108.4</course>
  <speed>0.02</speed>
  <fix>3d</fix>
</trkpt>
<trkpt lat="40.0729437" lon="-105.2308323">
  <ele>1595.57</ele>
  <time>2026-08-28T19:11:36Z</time>
  <course>355.43</course>
  <speed>0.0</speed>
  <fix>3d</fix>
</trkpt>
<trkpt lat="40.0729435" lon="-105.2308321">
  <ele>1595.48</ele>
  <time>2026-08-28T19:11:36Z</time>
  <course>110.7</course>
  <speed>0.02</speed>
  <fix>3d</fix>
</trkpt>
<trkpt lat="40.0729437" lon="-105.2308322">
  <ele>1595.57</ele>
  <time>2026-08-28T19:11:36Z</time>
  <course>355.04</course>
  <speed>0.0</speed>
  <fix>3d</fix>
</trkpt>
<trkpt lat="40.0729435" lon="-105.230832">
  <ele>1595.48</ele>
  <time>2026-08-28T19:11:36Z</time>
  <course>113.73</course>
  <speed>0.02</speed>
  <fix>3d</fix>
</trkpt>
<trkpt lat="40.0729437" lon="-105.2308322">
  <ele>1595.57</ele>
  <time>2026-08-28T19:11:36Z</time>
  <course>355.14</course>
  <speed>0.0</speed>
  <fix>3d</fix>
</trkpt>
<trkpt lat="40.0729435" lon="-105.2308319">
  <ele>1595.48</ele>
  <time>2026-08-28T19:11:36Z</time>
  <course>117.64</course>
  <speed>0.02</speed>
  <fix>3d</fix>
</trkpt>
<trkpt lat="40.0729437" lon="-105.2308321">
  <ele>1595.56</ele>
  <time>2026-08-28T19:11:36Z</time>
  <course>355.7</course>
  <speed>0.0</speed>
  <fix>3d</fix>
</trkpt>
<trkpt lat="40.0729435" lon="-105.2308319">
  <ele>1595.48</ele>
  <time>2026-08-28T19:11:36Z</time>
  <course>121.92</course>
  <speed>0.02</speed>
  <fix>3d</fix>
</trkpt>
<trkpt lat="40.0729436" lon="-105.2308321">
  <ele>1595.56</ele>
  <time>2026-08-28T19:11:36Z</time>
  <course>356.7</course>
  <speed>0.0</speed>
  <fix>3d</fix>
</trkpt>
<trkpt lat="40.0729435" lon="-105.2308319">
  <ele>1595.48</ele>
  <time>2026-08-28T19:11:36Z</time>
  <course>125.35</course>
  <speed>0.01</speed>
  <fix>3d</fix>
</trkpt>
<trkpt lat="40.0729436" lon="-105.2308321">
  <ele>1595.56</ele>
  <time>2026-08-28T19:11:36Z</time>
  <course>357.98</course>
  <speed>0.0</speed>
  <fix>3d</fix>
</trkpt>
<trkpt lat="40.0729435" lon="-105.2308318">
  <ele>1595.48</ele>
  <time>2026-08-28T19:11:36Z</time>
  <course>127.88</course>
  <speed>0.01</speed>
  <fix>3d</fix>
</trkpt>
<trkpt lat="40.0729436" lon="-105.230832">
  <ele>1595.56</ele>
  <time>2026-08-28T19:11:36Z</time>
  <course>359.47</course>
  <speed>0.0</speed>
  <fix>3d</fix>
</trkpt>
<trkpt lat="40.0729435" lon="-105.2308317">
  <ele>1595.48</ele>
  <time>2026-08-28T19:11:36Z</time>
  <course>129.97</course>
  <speed>0.01</speed>
  <fix>3d</fix>
</trkpt>
<trkpt lat="40.0729436" lon="-105.230832">
  <ele>1595.56</ele>
  <time>2026-08-28T19:11:36Z</time>
  <course>1.01</course>
  <speed>0.0</speed>
  <fix>3d</fix>
</trkpt>
<trkpt lat="40.0729435" lon="-105.2308317">
  <ele>1595.48</ele>
  <time>2026-08-28T19:11:36Z</time>
  <course>130.33</course>
  <speed>0.02</speed>
  <fix>3d</fix>
</trkpt>
<trkpt lat="40.0729436" lon="-105.2308319">
  <ele>1595.56</ele>
  <time>2026-08-28T19:11:36Z</time>
  <course>2.44</course>
  <speed>0.0</speed>
  <fix>3d</fix>
</trkpt>
<trkpt lat="40.0729434" lon="-105.2308317">
  <ele>1595.49</ele>
  <time>2026-08-28T19:11:36Z</time>
  <course>129.09</course>
  <speed>0.02</speed>
  <fix>3d</fix>
</trkpt>
<trkpt lat="40.0729435" lon="-105.2308319">
  <ele>1595.56</ele>
  <time>2026-08-28T19:11:36Z</time>
  <course>3.61</course>
  <speed>0.0</speed>
  <fix>3d</fix>
</trkpt>
<trkpt lat="40.0729434" lon="-105.2308317">
  <ele>1595.49</ele>
  <time>2026-08-28T19:11:36Z</time>
  <course>126.84</course>
  <speed>0.02</speed>
  <fix>3d</fix>
</trkpt>
<trkpt lat="40.0729435" lon="-105.2308318">
  <ele>1595.57</ele>
  <time>2026-08-28T19:11:36Z</time>
  <course>4.44</course>
  <speed>0.0</speed>
  <fix>3d</fix>
</trkpt>
<trkpt lat="40.0729434" lon="-105.2308316">
  <ele>1595.49</ele>
  <time>2026-08-28T19:11:36Z</time>
  <course>123.39</course>
  <speed>0.02</speed>
  <fix>3d</fix>
</trkpt>
<trkpt lat="40.0729435" lon="-105.2308318">
  <ele>1595.57</ele>
  <time>2026-08-28T19:11:36Z</time>
  <course>4.82</course>
  <speed>0.0</speed>
  <fix>3d</fix>
</trkpt>
<trkpt lat="40.0729434" lon="-105.2308316">
  <ele>1595.49</ele>
  <time>2026-08-28T19:11:36Z</time>
  <course>119.11</course>
  <speed>0.02</speed>
  <fix>3d</fix>
</trkpt>
<trkpt lat="40.0729435" lon="-105.2308317">
  <ele>1595.57</ele>
  <time>2026-08-28T19:11:36Z</time>
  <course>4.71</course>
  <speed>0.0</speed>
  <fix>3d</fix>
</trkpt>
<trkpt lat="40.0729433" lon="-105.2308315">
  <ele>1595.5</ele>
  <time>2026-08-28T19:11:36Z</time>
  <course>114.13</course>
  <speed>0.02</speed>
  <fix>3d</fix>
</trkpt>
<trkpt lat="40.0729435" lon="-105.2308316">
  <ele>1595.57</ele>
  <time>2026-08-28T19:11:36Z</time>
  <course>4.13</course>
  <speed>0.01</speed>
  <fix>3d</fix>
</trkpt>
<trkpt lat="40.0729433" lon="-105.2308314">
  <ele>1595.5</ele>
  <time>2026-08-28T19:11:36Z</time>
  <course>109.74</course>
  <speed>0.03</speed>
  <fix>3d</fix>
</trkpt>
<trkpt lat="40.0729434" lon="-105.2308316">
  <ele>1595.57</ele>
  <time>2026-08-28T19:11:36Z</time>
  <course>3.14</course>
  <speed>0.01</speed>
  <fix>3d</fix>
</trkpt>
<trkpt lat="40.0729433" lon="-105.2308314">
  <ele>1595.5</ele>
  <time>2026-08-28T19:11:36Z</time>
  <course>107.36</course>
  <speed>0.03</speed>
  <fix>3d</fix>
</trkpt>
<trkpt lat="40.0729434" lon="-105.2308315">
  <ele>1595.58</ele>
  <time>2026-08-28T19:11:36Z</time>
  <course>1.81</course>
  <speed>0.01</speed>
  <fix>3d</fix>
</trkpt>
<trkpt lat="40.0729433" lon="-105.2308313">
  <ele>1595.5</ele>
  <time>2026-08-28T19:11:36Z</time>
  <course>106.58</course>
  <speed>0.03</speed>
  <fix>3d</fix>
</trkpt>
<trkpt lat="40.0729434" lon="-105.2308314">
  <ele>1595.58</ele>
  <time>2026-08-28T19:11:36Z</time>
  <course>0.32</course>
  <speed>0.01</speed>
  <fix>3d</fix>
</trkpt>
<trkpt lat="40.0729433" lon="-105.2308312">
  <ele>1595.5</ele>
  <time>2026-08-28T19:11:36Z</time>
  <course>106.78</course>
  <speed>0.03</speed>
  <fix>3d</fix>
</trkpt>
<trkpt lat="40.0729434" lon="-105.2308313">
  <ele>1595.58</ele>
  <time>2026-08-28T19:11:36Z</time>
  <course>358.83</course>
  <speed>0.01</speed>
  <fix>3d</fix>
</trkpt>
<trkpt lat="40.0729433" lon="-105.2308311">
  <ele>1595.5</ele>
  <time>2026-08-28T19:11:36Z</time>
  <course>107.63</course>
  <speed>0.03</speed>
  <fix>3d</fix>
</trkpt>
<trkpt lat="40.0729434" lon="-105.2308313">
  <ele>1595.58</ele>
  <time>2026-08-28T19:11:36Z</time>
  <course>357.43</course>
  <speed>0.0</speed>
  <fix>3d</fix>
</trkpt>
<trkpt lat="40.0729432" lon="-105.230831">
  <ele>1595.5</ele>
  <time>2026-08-28T19:11:36Z</time>
  <course>109.14</course>
  <speed>0.03</speed>
  <fix>3d</fix>
</trkpt>
<trkpt lat="40.0729434" lon="-105.2308312">
  <ele>1595.58</ele>
  <time>2026-08-28T19:11:36Z</time>
  <course>356.24</course>
  <speed>0.0</speed>
  <fix>3d</fix>
</trkpt>
<trkpt lat="40.0729432" lon="-105.230831">
  <ele>1595.49</ele>
  <time>2026-08-28T19:11:36Z</time>
  <course>111.46</course>
  <speed>0.02</speed>
  <fix>3d</fix>
</trkpt>
<trkpt lat="40.0729434" lon="-105.2308311">
  <ele>1595.58</ele>
  <time>2026-08-28T19:11:36Z</time>
  <course>355.43</course>
  <speed>0.0</speed>
  <fix>3d</fix>
</trkpt>
<trkpt lat="40.0729432" lon="-105.2308309">
  <ele>1595.49</ele>
  <time>2026-08-28T19:11:36Z</time>
  <course>114.76</course>
  <speed>0.02</speed>
  <fix>3d</fix>
</trkpt>
<trkpt lat="40.0729433" lon="-105.2308311">
  <ele>1595.58</ele>
  <time>2026-08-28T19:11:36Z</time>
  <course>355.05</course>
  <speed>0.0</speed>
  <fix>3d</fix>
</trkpt>
<trkpt lat="40.0729432" lon="-105.2308309">
  <ele>1595.49</ele>
  <time>2026-08-28T19:11:36Z</time>
  <course>119.63</course>
  <speed>0.02</speed>
  <fix>3d</fix>
</trkpt>
<trkpt lat="40.0729433" lon="-105.230831">
  <ele>1595.57</ele>
  <time>2026-08-28T19:11:36Z</time>
  <course>355.14</course>
  <speed>0.0</speed>
  <fix>3d</fix>
</trkpt>
<trkpt lat="40.0729432" lon="-105.2308308">
  <ele>1595.49</ele>
  <time>2026-08-28T19:11:36Z</time>
  <course>125.16</course>
  <speed>0.02</speed>
  <fix>3d</fix>
</trkpt>
<trkpt lat="40.0729433" lon="-105.230831">
  <ele>1595.57</ele>
  <time>2026-08-28T19:11:36Z</time>
  <course>355.72</course>
  <speed>0.0</speed>
  <fix>3d</fix>
</trkpt>
<trkpt lat="40.0729431" lon="-105.2308307">
  <ele>1595.48</ele>
  <time>2026-08-28T19:11:36Z</time>
  <course>130.4</course>
  <speed>0.02</speed>
  <fix>3d</fix>
</trkpt>
<trkpt lat="40.0729433" lon="-105.230831">
  <ele>1595.57</ele>
  <time>2026-08-28T19:11:36Z</time>
  <course>356.73</course>
  <speed>0.0</speed>
  <fix>3d</fix>
</trkpt>
<trkpt lat="40.072943" lon="-105.2308307">
  <ele>1595.48</ele>
  <time>2026-08-28T19:11:36Z</time>
  <course>135.05</course>
  <speed>0.02</speed>
  <fix>3d</fix>
</trkpt>
<trkpt lat="40.0729432" lon="-105.2308309">
  <ele>1595.57</ele>
  <time>2026-08-28T19:11:36Z</time>
  <course>358.04</course>
  <speed>0.0</speed>
  <fix>3d</fix>
</trkpt>
<trkpt lat="40.072943" lon="-105.2308307">
  <ele>1595.48</ele>
  <time>2026-08-28T19:11:36Z</time>
  <course>137.87</course>
  <speed>0.02</speed>
  <fix>3d</fix>
</trkpt>
<trkpt lat="40.0729432" lon="-105.2308309">
  <ele>1595.57</ele>
  <time>2026-08-28T19:11:36Z</time>
  <course>359.55</course>
  <speed>0.0</speed>
  <fix>3d</fix>
</trkpt>
<trkpt lat="40.072943" lon="-105.2308307">
  <ele>1595.48</ele>
  <time>2026-08-28T19:11:36Z</time>
  <course>138.99</course>
  <speed>0.02</speed>
  <fix>3d</fix>
</trkpt>
<trkpt lat="40.0729431" lon="-105.2308308">
  <ele>1595.58</ele>
  <time>2026-08-28T19:11:36Z</time>
  <course>1.05</course>
  <speed>0.0</speed>
  <fix>3d</fix>
</trkpt>
<trkpt lat="40.0729429" lon="-105.2308306">
  <ele>1595.48</ele>
  <time>2026-08-28T19:11:36Z</time>
  <course>139.22</course>
  <speed>0.02</speed>
  <fix>3d</fix>
</trkpt>
<trkpt lat="40.0729431" lon="-105.2308308">
  <ele>1595.58</ele>
  <time>2026-08-28T19:11:36Z</time>
  <course>2.49</course>
  <speed>0.0</speed>
  <fix>3d</fix>
</trkpt>
<trkpt lat="40.0729429" lon="-105.2308305">
  <ele>1595.48</ele>
  <time>2026-08-28T19:11:36Z</time>
  <course>138.42</course>
  <speed>0.02</speed>
  <fix>3d</fix>
</trkpt>
<trkpt lat="40.0729431" lon="-105.2308308">
  <ele>1595.58</ele>
  <time>2026-08-28T19:11:36Z</time>
  <course>3.67</course>
  <speed>0.0</speed>
  <fix>3d</fix>
</trkpt>
<trkpt lat="40.0729429" lon="-105.2308305">
  <ele>1595.48</ele>
  <time>2026-08-28T19:11:36Z</time>
  <course>135.69</course>
  <speed>0.02</speed>
  <fix>3d</fix>
</trkpt>
<trkpt lat="40.072943" lon="-105.2308307">
  <ele>1595.57</ele>
  <time>2026-08-28T19:11:36Z</time>
  <course>4.49</course>
  <speed>0.0</speed>
  <fix>3d</fix>
</trkpt>
<trkpt lat="40.0729429" lon="-105.2308305">
  <ele>1595.48</ele>
  <time>2026-08-28T19:11:36Z</time>
  <course>131.31</course>
  <speed>0.02</speed>
  <fix>3d</fix>
</trkpt>
<trkpt lat="40.072943" lon="-105.2308306">
  <ele>1595.57</ele>
  <time>2026-08-28T19:11:36Z</time>
  <course>4.84</course>
  <speed>0.0</speed>
  <fix>3d</fix>
</trkpt>
<trkpt lat="40.0729429" lon="-105.2308305">
  <ele>1595.47</ele>
  <time>2026-08-28T19:11:36Z</time>
  <course>126.15</course>
  <speed>0.02</speed>
  <fix>3d</fix>
</trkpt>
<trkpt lat="40.072943" lon="-105.2308306">
  <ele>1595.57</ele>
  <time>2026-08-28T19:11:36Z</time>
  <course>4.72</course>
  <speed>0.0</speed>
  <fix>3d</fix>
</trkpt>
<trkpt lat="40.0729428" lon="-105.2308304">
  <ele>1595.47</ele>
  <time>2026-08-28T19:11:36Z</time>
  <course>120.7</course>
  <speed>0.03</speed>
  <fix>3d</fix>
</trkpt>
<trkpt lat="40.0729429" lon="-105.2308305">
  <ele>1595.56</ele>
  <time>2026-08-28T19:11:36Z</time>
  <course>4.13</course>
  <speed>0.01</speed>
  <fix>3d</fix>
</trkpt>
<trkpt lat="40.0729428" lon="-105.2308303">
  <ele>1595.47</ele>
  <time>2026-08-28T19:11:36Z</time>
  <course>116.34</course>
  <speed>0.03</speed>
  <fix>3d</fix>
</trkpt>
<trkpt lat="40.0729429" lon="-105.2308305">
  <ele>1595.56</ele>
  <time>2026-08-28T19:11:36Z</time>
  <course>3.12</course>
  <speed>0.01</speed>
  <fix>3d</fix>
</trkpt>
<trkpt lat="40.0729428" lon="-105.2308302">
  <ele>1595.47</ele>
  <time>2026-08-28T19:11:36Z</time>
  <course>113.62</course>
  <speed>0.03</speed>
  <fix>3d</fix>
</trkpt>
<trkpt lat="40.0729429" lon="-105.2308304">
  <ele>1595.56</ele>
  <time>2026-08-28T19:11:36Z</time>
  <course>1.81</course>
  <speed>0.01</speed>
  <fix>3d</fix>
</trkpt>
<trkpt lat="40.0729428" lon="-105.2308302">
  <ele>1595.47</ele>
  <time>2026-08-28T19:11:36Z</time>
  <course>111.32</course>
  <speed>0.03</speed>
  <fix>3d</fix>
</trkpt>
<trkpt lat="40.0729429" lon="-105.2308303">
  <ele>1595.56</ele>
  <time>2026-08-28T19:11:36Z</time>
  <course>0.31</course>
  <speed>0.01</speed>
  <fix>3d</fix>
</trkpt>
<trkpt lat="40.0729427" lon="-105.2308301">
  <ele>1595.47</ele>
  <time>2026-08-28T19:11:36Z</time>
  <course>108.43</course>
  <speed>0.03</speed>
  <fix>3d</fix>
</trkpt>
<trkpt lat="40.0729429" lon="-105.2308302">
  <ele>1595.55</ele>
  <time>2026-08-28T19:11:36Z</time>
  <course>358.82</course>
  <speed>0.01</speed>
  <fix>3d</fix>
</trkpt>
<trkpt lat="40.0729427" lon="-105.23083">
  <ele>1595.47</ele>
  <time>2026-08-28T19:11:36Z</time>
  <course>106.28</course>
  <speed>0.03</speed>
  <fix>3d</fix>
</trkpt>
<trkpt lat="40.0729429" lon="-105.2308301">
  <ele>1595.55</ele>
  <time>2026-08-28T19:11:36Z</time>
  <course>357.38</course>
  <speed>0.01</speed>
  <fix>3d</fix>
</trkpt>
<trkpt lat="40.0729427" lon="-105.23083">
  <ele>1595.48</ele>
  <time>2026-08-28T19:11:36Z</time>
  <course>105.14</course>
  <speed>0.03</speed>
  <fix>3d</fix>
</trkpt>
<trkpt lat="40.0729428" lon="-105.2308301">
  <ele>1595.56</ele>
  <time>2026-08-28T19:11:36Z</time>
  <course>356.18</course>
  <speed>0.0</speed>
  <fix>3d</fix>
</trkpt>
<trkpt lat="40.0729427" lon="-105.2308299">
  <ele>1595.48</ele>
  <time>2026-08-28T19:11:36Z</time>
  <course>105.14</course>
  <speed>0.03</speed>
  <fix>3d</fix>
</trkpt>
<trkpt lat="40.0729428" lon="-105.23083">
  <ele>1595.56</ele>
  <time>2026-08-28T19:11:36Z</time>
  <course>355.38</course>
  <speed>0.0</speed>
  <fix>3d</fix>
</trkpt>
<trkpt lat="40.0729427" lon="-105.2308298">
  <ele>1595.48</ele>
  <time>2026-08-28T19:11:36Z</time>
  <course>106.63</course>
  <speed>0.02</speed>
  <fix>3d</fix>
</trkpt>
<trkpt lat="40.0729428" lon="-105.23083">
  <ele>1595.56</ele>
  <time>2026-08-28T19:11:36Z</time>
  <course>355.03</course>
  <speed>0.0</speed>
  <fix>3d</fix>
</trkpt>
<trkpt lat="40.0729427" lon="-105.2308298">
  <ele>1595.48</ele>
  <time>2026-08-28T19:11:36Z</time>
  <course>109.36</course>
  <speed>0.02</speed>
  <fix>3d</fix>
</trkpt>
<trkpt lat="40.0729428" lon="-105.2308299">
  <ele>1595.57</ele>
  <time>2026-08-28T19:11:36Z</time>
  <course>355.14</course>
  <speed>0.0</speed>
  <fix>3d</fix>
</trkpt>
<trkpt lat="40.0729427" lon="-105.2308297">
  <ele>1595.49</ele>
  <time>2026-08-28T19:11:36Z</time>
  <course>114.04</course>
  <speed>0.02</speed>
  <fix>3d</fix>
</trkpt>
<trkpt lat="40.0729428" lon="-105.2308299">
  <ele>1595.57</ele>
  <time>2026-08-28T19:11:36Z</time>
  <course>355.71</course>
  <speed>0.0</speed>
  <fix>3d</fix>
</trkpt>
<trkpt lat="40.0729426" lon="-105.2308297">
  <ele>1595.49</ele>
  <time>2026-08-28T19:11:36Z</time>
  <course>119.7</course>
  <speed>0.02</speed>
  <fix>3d</fix>
</trkpt>
<trkpt lat="40.0729428" lon="-105.2308298">
  <ele>1595.57</ele>
  <time>2026-08-28T19:11:36Z</time>
  <course>356.72</course>
  <speed>0.0</speed>
  <fix>3d</fix>
</trkpt>
<trkpt lat="40.0729426" lon="-105.2308296">
  <ele>1595.49</ele>
  <time>2026-08-28T19:11:36Z</time>
  <course>123.94</course>
  <speed>0.02</speed>
  <fix>3d</fix>
</trkpt>
<trkpt lat="40.0729427" lon="-105.2308298">
  <ele>1595.57</ele>
  <time>2026-08-28T19:11:36Z</time>
  <course>358.04</course>
  <speed>0.0</speed>
  <fix>3d</fix>
</trkpt>
<trkpt lat="40.0729426" lon="-105.2308295">
  <ele>1595.49</ele>
  <time>2026-08-28T19:11:36Z</time>
  <course>127.26</course>
  <speed>0.02</speed>
  <fix>3d</fix>
</trkpt>
<trkpt lat="40.0729427" lon="-105.2308298">
  <ele>1595.57</ele>
  <time>2026-08-28T19:11:36Z</time>
  <course>359.54</course>
  <speed>0.0</speed>
  <fix>3d</fix>
</trkpt>
<trkpt lat="40.0729426" lon="-105.2308295">
  <ele>1595.49</ele>
  <time>2026-08-28T19:11:36Z</time>
  <course>130.08</course>
  <speed>0.02</speed>
  <fix>3d</fix>
</trkpt>
<trkpt lat="40.0729427" lon="-105.2308297">
  <ele>1595.57</ele>
  <time>2026-08-28T19:11:36Z</time>
  <course>1.03</course>
  <speed>0.0</speed>
  <fix>3d</fix>
</trkpt>
<trkpt lat="40.0729425" lon="-105.2308295">
  <ele>1595.49</ele>
  <time>2026-08-28T19:11:36Z</time>
  <course>130.82</course>
  <speed>0.02</speed>
  <fix>3d</fix>
</trkpt>
<trkpt lat="40.0729427" lon="-105.2308297">
  <ele>1595.56</ele>
  <time>2026-08-28T19:11:36Z</time>
  <course>2.46</course>
  <speed>0.0</speed>
  <fix>3d</fix>
</trkpt>
<trkpt lat="40.0729424" lon="-105.2308295">
  <ele>1595.49</ele>
  <time>2026-08-28T19:11:36Z</time>
  <course>129.43</course>
  <speed>0.02</speed>
  <fix>3d</fix>
</trkpt>
<trkpt lat="40.0729426" lon="-105.2308296">
  <ele>1595.56</ele>
  <time>2026-08-28T19:11:36Z</time>
  <course>3.62</course>
  <speed>0.0</speed>
  <fix>3d</fix>
</trkpt>
<trkpt lat="40.0729424" lon="-105.2308294">
  <ele>1595.5</ele>
  <time>2026-08-28T19:11:36Z</time>
  <course>126.66</course>
  <speed>0.02</speed>
  <fix>3d</fix>
</trkpt>
<trkpt lat="40.0729426" lon="-105.2308296">
  <ele>1595.57</ele>
  <time>2026-08-28T19:11:36Z</time>
  <course>4.44</course>
  <speed>0.0</speed>
  <fix>3d</fix>
</trkpt>
<trkpt lat="40.0729424" lon="-105.2308293">
  <ele>1595.5</ele>
  <time>2026-08-28T19:11:36Z</time>
  <course>123.18</course>
  <speed>0.02</speed>
  <fix>3d</fix>
</trkpt>
<trkpt lat="40.0729426" lon="-105.2308295">
  <ele>1595.57</ele>
  <time>2026-08-28T19:11:36Z</time>
  <course>4.82</course>
  <speed>0.0</speed>
  <fix>3d</fix>
</trkpt>
<trkpt lat="40.0729424" lon="-105.2308293">
  <ele>1595.5</ele>
  <time>2026-08-28T19:11:36Z</time>
  <course>119.05</course>
  <speed>0.02</speed>
  <fix>3d</fix>
</trkpt>
<trkpt lat="40.0729425" lon="-105.2308295">
  <ele>1595.57</ele>
  <time>2026-08-28T19:11:36Z</time>
  <course>4.71</course>
  <speed>0.0</speed>
  <fix>3d</fix>
</trkpt>
<trkpt lat="40.0729423" lon="-105.2308292">
  <ele>1595.5</ele>
  <time>2026-08-28T19:11:36Z</time>
  <course>114.31</course>
  <speed>0.03</speed>
  <fix>3d</fix>
</trkpt>
<trkpt lat="40.0729425" lon="-105.2308294">
  <ele>1595.58</ele>
  <time>2026-08-28T19:11:36Z</time>
  <course>4.13</course>
  <speed>0.01</speed>
  <fix>3d</fix>
</trkpt>
<trkpt lat="40.0729423" lon="-105.2308292">
  <ele>1595.5</ele>
  <time>2026-08-28T19:11:36Z</time>
  <course>110.25</course>
  <speed>0.03</speed>
  <fix>3d</fix>
</trkpt>
<trkpt lat="40.0729425" lon="-105.2308293">
  <ele>1595.58</ele>
  <time>2026-08-28T19:11:36Z</time>
  <course>3.15</course>
  <speed>0.01</speed>
  <fix>3d</fix>
</trkpt>
<trkpt lat="40.0729423" lon="-105.2308291">
  <ele>1595.5</ele>
  <time>2026-08-28T19:11:36Z</time>
  <course>107.93</course>
  <speed>0.03</speed>
  <fix>3d</fix>
</trkpt>
<trkpt lat="40.0729425" lon="-105.2308292">
  <ele>1595.58</ele>
  <time>2026-08-28T19:11:36Z</time>
  <course>1.85</course>
  <speed>0.01</speed>
  <fix>3d</fix>
</trkpt>
<trkpt lat="40.0729423" lon="-105.230829">
  <ele>1595.5</ele>
  <time>2026-08-28T19:11:36Z</time>
  <course>106.71</course>
  <speed>0.03</speed>
  <fix>3d</fix>
</trkpt>
<trkpt lat="40.0729424" lon="-105.2308291">
  <ele>1595.58</ele>
  <time>2026-08-28T19:11:36Z</time>
  <course>0.4</course>
  <speed>0.01</speed>
  <fix>3d</fix>
</trkpt>
<trkpt lat="40.0729423" lon="-105.2308289">
  <ele>1595.5</ele>
  <time>2026-08-28T19:11:36Z</time>
  <course>105.72</course>
  <speed>0.03</speed>
  <fix>3d</fix>
</trkpt>
<trkpt lat="40.0729424" lon="-105.2308291">
  <ele>1595.58</ele>
  <time>2026-08-28T19:11:36Z</time>
  <course>358.88</course>
  <speed>0.01</speed>
  <fix>3d</fix>
</trkpt>
<trkpt lat="40.0729423" lon="-105.2308288">
  <ele>1595.5</ele>
  <time>2026-08-28T19:11:36Z</time>
  <course>105.08</course>
  <speed>0.03</speed>
  <fix>3d</fix>
</trkpt>
<trkpt lat="40.0729424" lon="-105.230829">
  <ele>1595.58</ele>
  <time>2026-08-28T19:11:36Z</time>
  <course>357.44</course>
  <speed>0.01</speed>
  <fix>3d</fix>
</trkpt>
<trkpt lat="40.0729423" lon="-105.2308288">
  <ele>1595.49</ele>
  <time>2026-08-28T19:11:36Z</time>
  <course>104.81</course>
  <speed>0.03</speed>
  <fix>3d</fix>
</trkpt>
<trkpt lat="40.0729424" lon="-105.2308289">
  <ele>1595.58</ele>
  <time>2026-08-28T19:11:36Z</time>
  <course>356.23</course>
  <speed>0.0</speed>
  <fix>3d</fix>
</trkpt>
<trkpt lat="40.0729423" lon="-105.2308287">
  <ele>1595.49</ele>
  <time>2026-08-28T19:11:36Z</time>
  <course>105.38</course>
  <speed>0.02</speed>
  <fix>3d</fix>
</trkpt>
<trkpt lat="40.0729424" lon="-105.2308289">
  <ele>1595.57</ele>
  <time>2026-08-28T19:11:36Z</time>
  <course>355.43</course>
  <speed>0.0</speed>
  <fix>3d</fix>
</trkpt>
<trkpt lat="40.0729423" lon="-105.2308286">
  <ele>1595.49</ele>
  <time>2026-08-28T19:11:36Z</time>
  <course>107.2</course>
  <speed>0.02</speed>
  <fix>3d</fix>
</trkpt>
<trkpt lat="40.0729424" lon="-105.2308288">
  <ele>1595.57</ele>
  <time>2026-08-28T19:11:36Z</time>
  <course>355.04</course>
  <speed>0.0</speed>
  <fix>3d</fix>
</trkpt>
<trkpt lat="40.0729423" lon="-105.2308286">
  <ele>1595.49</ele>
  <time>2026-08-28T19:11:36Z</time>
  <course>110.57</course>
  <speed>0.02</speed>
  <fix>3d</fix>
</trkpt>
<trkpt lat="40.0729424" lon="-105.2308288">
  <ele>1595.56</ele>
  <time>2026-08-28T19:11:36Z</time>
  <course>355.04</course>
  <speed>0.0</speed>
  <fix>3d</fix>
</trkpt>
<trkpt lat="40.0729422" lon="-105.2308286">
  <ele>1595.49</ele>
  <time>2026-08-28T19:11:36Z</time>
  <course>115.21</course>
  <speed>0.02</speed>
  <fix>3d</fix>
</trkpt>
<trkpt lat="40.0729424" lon="-105.2308287">
  <ele>1595.56</ele>
  <time>2026-08-28T19:11:36Z</time>
  <course>355.05</course>
  <speed>0.0</speed>
  <fix>3d</fix>
</trkpt>
<trkpt lat="40.0729422" lon="-105.2308285">
  <ele>1595.49</ele>
  <time>2026-08-28T19:11:36Z</time>
  <course>116.59</course>
  <speed>0.02</speed>
  <fix>3d</fix>
</trkpt>
<trkpt lat="40.0729423" lon="-105.2308287">
  <ele>1595.56</ele>
  <time>2026-08-28T19:11:36Z</time>
  <course>355.03</course>
  <speed>0.0</speed>
  <fix>3d</fix>
</trkpt>
<trkpt lat="40.0729422" lon="-105.2308285">
  <ele>1595.49</ele>
  <time>2026-08-28T19:11:36Z</time>
  <course>113.93</course>
  <speed>0.02</speed>
  <fix>3d</fix>
</trkpt>
<trkpt lat="40.0729423" lon="-105.2308286">
  <ele>1595.56</ele>
  <time>2026-08-28T19:11:36Z</time>
  <course>355.03</course>
  <speed>0.0</speed>
  <fix>3d</fix>
</trkpt>
<trkpt lat="40.0729422" lon="-105.2308284">
  <ele>1595.49</ele>
  <time>2026-08-28T19:11:36Z</time>
  <course>110.71</course>
  <speed>0.02</speed>
  <fix>3d</fix>
</trkpt>
<trkpt lat="40.0729423" lon="-105.2308286">
  <ele>1595.56</ele>
  <time>2026-08-28T19:11:36Z</time>
  <course>355.03</course>
  <speed>0.0</speed>
  <fix>3d</fix>
</trkpt>
<trkpt lat="40.0729422" lon="-105.2308283">
  <ele>1595.49</ele>
  <time>2026-08-28T19:11:36Z</time>
  <course>108.17</course>
  <speed>0.02</speed>
  <fix>3d</fix>
</trkpt>
<trkpt lat="40.0729423" lon="-105.2308285">
  <ele>1595.56</ele>
  <time>2026-08-28T19:11:36Z</time>
  <course>355.02</course>
  <speed>0.0</speed>
  <fix>3d</fix>
</trkpt>
<trkpt lat="40.0729422" lon="-105.2308283">
  <ele>1595.49</ele>
  <time>2026-08-28T19:11:36Z</time>
  <course>106.16</course>
  <speed>0.02</speed>
  <fix>3d</fix>
</trkpt>
<trkpt lat="40.0729423" lon="-105.2308285">
  <ele>1595.56</ele>
  <time>2026-08-28T19:11:36Z</time>
  <course>355.03</course>
  <speed>0.01</speed>
  <fix>3d</fix>
</trkpt>
<trkpt lat="40.0729422" lon="-105.2308282">
  <ele>1595.49</ele>
  <time>2026-08-28T19:11:36Z</time>
  <course>104.0</course>
  <speed>0.02</speed>
  <fix>3d</fix>
</trkpt>
<trkpt lat="40.0729423" lon="-105.2308284">
  <ele>1595.57</ele>
  <time>2026-08-28T19:11:36Z</time>
  <course>355.04</course>
  <speed>0.01</speed>
  <fix>3d</fix>
</trkpt>
<trkpt lat="40.0729421" lon="-105.2308281">
  <ele>1595.5</ele>
  <time>2026-08-28T19:11:36Z</time>
  <course>102.45</course>
  <speed>0.02</speed>
  <fix>3d</fix>
</trkpt>
<trkpt lat="40.0729423" lon="-105.2308283">
  <ele>1595.58</ele>
  <time>2026-08-28T19:11:36Z</time>
  <course>355.05</course>
  <speed>0.01</speed>
  <fix>3d</fix>
</trkpt>
<trkpt lat="40.0729421" lon="-105.2308281">
  <ele>1595.5</ele>
  <time>2026-08-28T19:11:36Z</time>
  <course>101.16</course>
  <speed>0.02</speed>
  <fix>3d</fix>
</trkpt>
<trkpt lat="40.0729423" lon="-105.2308283">
  <ele>1595.59</ele>
  <time>2026-08-28T19:11:36Z</time>
  <course>355.07</course>
  <speed>0.01</speed>
  <fix>3d</fix>
</trkpt>
<trkpt lat="40.0729421" lon="-105.2308281">
  <ele>1595.5</ele>
  <time>2026-08-28T19:11:36Z</time>
  <course>99.24</course>
  <speed>0.02</speed>
  <fix>3d</fix>
</trkpt>
<trkpt lat="40.0729423" lon="-105.2308282">
  <ele>1595.59</ele>
  <time>2026-08-28T19:11:36Z</time>
  <course>355.08</course>
  <speed>0.01</speed>
  <fix>3d</fix>
</trkpt>
<trkpt lat="40.0729421" lon="-105.230828">
  <ele>1595.5</ele>
  <time>2026-08-28T19:11:36Z</time>
  <course>97.17</course>
  <speed>0.02</speed>
  <fix>3d</fix>
</trkpt>
<trkpt lat="40.0729423" lon="-105.2308281">
  <ele>1595.59</ele>
  <time>2026-08-28T19:11:36Z</time>
  <course>355.11</course>
  <speed>0.01</speed>
  <fix>3d</fix>
</trkpt>
<trkpt lat="40.0729421" lon="-105.2308279">
  <ele>1595.5</ele>
  <time>2026-08-28T19:11:36Z</time>
  <course>95.41</course>
  <speed>0.02</speed>
  <fix>3d</fix>
</trkpt>
<trkpt lat="40.0729423" lon="-105.2308281">
  <ele>1595.59</ele>
  <time>2026-08-28T19:11:36Z</time>
  <course>355.15</course>
  <speed>0.01</speed>
  <fix>3d</fix>
</trkpt>
<trkpt lat="40.0729421" lon="-105.2308279">
  <ele>1595.49</ele>
  <time>2026-08-28T19:11:36Z</time>
  <course>93.78</course>
  <speed>0.02</speed>
  <fix>3d</fix>
</trkpt>
<trkpt lat="40.0729423" lon="-105.230828">
  <ele>1595.57</ele>
  <time>2026-08-28T19:11:36Z</time>
  <course>355.13</course>
  <speed>0.01</speed>
  <fix>3d</fix>
</trkpt>
<trkpt lat="40.0729421" lon="-105.2308278">
  <ele>1595.49</ele>
  <time>2026-08-28T19:11:36Z</time>
  <course>91.84</course>
  <speed>0.02</speed>
  <fix>3d</fix>
</trkpt>
<trkpt lat="40.0729422" lon="-105.2308279">
  <ele>1595.57</ele>
  <time>2026-08-28T19:11:36Z</time>
  <course>355.07</course>
  <speed>0.01</speed>
  <fix>3d</fix>
</trkpt>
<trkpt lat="40.0729421" lon="-105.2308277">
  <ele>1595.48</ele>
  <time>2026-08-28T19:11:36Z</time>
  <course>89.96</course>
  <speed>0.02</speed>
  <fix>3d</fix>
</trkpt>
<trkpt lat="40.0729422" lon="-105.2308279">
  <ele>1595.56</ele>
  <time>2026-08-28T19:11:36Z</time>
  <course>355.05</course>
  <speed>0.01</speed>
  <fix>3d</fix>
</trkpt>
<trkpt lat="40.0729421" lon="-105.2308276">
  <ele>1595.48</ele>
  <time>2026-08-28T19:11:36Z</time>
  <course>88.44</course>
  <speed>0.03</speed>
  <fix>3d</fix>
</trkpt>
<trkpt lat="40.0729422" lon="-105.2308278">
  <ele>1595.56</ele>
  <time>2026-08-28T19:11:36Z</time>
  <course>355.01</course>
  <speed>0.01</speed>
  <fix>3d</fix>
</trkpt>
<trkpt lat="40.0729421" lon="-105.2308276">
  <ele>1595.48</ele>
  <time>2026-08-28T19:11:36Z</time>
  <course>87.17</course>
  <speed>0.03</speed>
  <fix>3d</fix>
</trkpt>
<trkpt lat="40.0729422" lon="-105.2308277">
  <ele>1595.56</ele>
  <time>2026-08-28T19:11:36Z</time>
  <course>354.35</course>
  <speed>0.01414213562373095</speed>
  <fix>3d</fix>
</trkpt>
<trkpt lat="40.0729421" lon="-105.2308275">
  <ele>1595.48</ele>
  <time>2026-08-28T19:11:36Z</time>
  <course>86.24</course>
  <speed>0.03</speed>
  <fix>3d</fix>
</trkpt>
<trkpt lat="40.0729422" lon="-105.2308276">
  <ele>1595.56</ele>
  <time>2026-08-28T19:11:36Z</time>
  <course>353.04</course>
  <speed>0.01414213562373095</speed>
  <fix>3d</fix>
</trkpt>
<trkpt lat="40.0729421" lon="-105.2308274">
  <ele>1595.48</ele>
  <time>2026-08-28T19:11:36Z</time>
  <course>85.56</course>
  <speed>0.03</speed>
  <fix>3d</fix>
</trkpt>
<trkpt lat="40.0729422" lon="-105.2308276">
  <ele>1595.56</ele>
  <time>2026-08-28T19:11:36Z</time>
  <course>351.78</course>
  <speed>0.01414213562373095</speed>
  <fix>3d</fix>
</trkpt>
<trkpt lat="40.0729421" lon="-105.2308273">
  <ele>1595.48</ele>
  <time>2026-08-28T19:11:36Z</time>
  <course>85.43</course>
  <speed>0.03</speed>
  <fix>3d</fix>
</trkpt>
<trkpt lat="40.0729422" lon="-105.2308275">
  <ele>1595.56</ele>
  <time>2026-08-28T19:11:36Z</time>
  <course>350.78</course>
  <speed>0.01</speed>
  <fix>3d</fix>
</trkpt>
<trkpt lat="40.0729421" lon="-105.2308273">
  <ele>1595.48</ele>
  <time>2026-08-28T19:11:36Z</time>
  <course>86.76</course>
  <speed>0.03</speed>
  <fix>3d</fix>
</trkpt>
<trkpt lat="40.0729422" lon="-105.2308274">
  <ele>1595.56</ele>
  <time>2026-08-28T19:11:36Z</time>
  <course>350.22</course>
  <speed>0.01</speed>
  <fix>3d</fix>
</trkpt>
<trkpt lat="40.0729421" lon="-105.2308272">
  <ele>1595.49</ele>
  <time>2026-08-28T19:11:36Z</time>
  <course>90.07</course>
  <speed>0.03</speed>
  <fix>3d</fix>
</trkpt>
<trkpt lat="40.0729422" lon="-105.2308273">
  <ele>1595.56</ele>
  <time>2026-08-28T19:11:36Z</time>
  <course>350.15</course>
  <speed>0.0</speed>
  <fix>3d</fix>
</trkpt>
<trkpt lat="40.0729421" lon="-105.2308271">
  <ele>1595.49</ele>
  <time>2026-08-28T19:11:36Z</time>
  <course>95.18</course>
  <speed>0.02</speed>
  <fix>3d</fix>
</trkpt>
<trkpt lat="40.0729422" lon="-105.2308273">
  <ele>1595.56</ele>
  <time>2026-08-28T19:11:36Z</time>
  <course>350.51</course>
  <speed>0.0</speed>
  <fix>3d</fix>
</trkpt>
<trkpt lat="40.0729421" lon="-105.2308271">
  <ele>1595.49</ele>
  <time>2026-08-28T19:11:36Z</time>
  <course>102.26</course>
  <speed>0.02</speed>
  <fix>3d</fix>
</trkpt>
<trkpt lat="40.0729422" lon="-105.2308272">
  <ele>1595.57</ele>
  <time>2026-08-28T19:11:36Z</time>
  <course>351.33</course>
  <speed>0.0</speed>
  <fix>3d</fix>
</trkpt>
<trkpt lat="40.0729421" lon="-105.230827">
  <ele>1595.49</ele>
  <time>2026-08-28T19:11:36Z</time>
  <course>111.17</course>
  <speed>0.02</speed>
  <fix>3d</fix>
</trkpt>
<trkpt lat="40.0729422" lon="-105.2308272">
  <ele>1595.58</ele>
  <time>2026-08-28T19:11:36Z</time>
  <course>352.54</course>
  <speed>0.0</speed>
  <fix>3d</fix>
</trkpt>
<trkpt lat="40.0729421" lon="-105.2308269">
  <ele>1595.49</ele>
  <time>2026-08-28T19:11:36Z</time>
  <course>119.25</course>
  <speed>0.02</speed>
  <fix>3d</fix>
</trkpt>
<trkpt lat="40.0729422" lon="-105.2308272">
  <ele>1595.58</ele>
  <time>2026-08-28T19:11:36Z</time>
  <course>354.0</course>
  <speed>0.0</speed>
  <fix>3d</fix>
</trkpt>
<trkpt lat="40.0729421" lon="-105.2308269">
  <ele>1595.5</ele>
  <time>2026-08-28T19:11:36Z</time>
  <course>124.47</course>
  <speed>0.02</speed>
  <fix>3d</fix>
</trkpt>
<trkpt lat="40.0729422" lon="-105.2308271">
  <ele>1595.58</ele>
  <time>2026-08-28T19:11:36Z</time>
  <course>355.53</course>
  <speed>0.0</speed>
  <fix>3d</fix>
</trkpt>
<trkpt lat="40.072942" lon="-105.2308269">
  <ele>1595.5</ele>
  <time>2026-08-28T19:11:36Z</time>
  <course>127.5</course>
  <speed>0.02</speed>
  <fix>3d</fix>
</trkpt>
<trkpt lat="40.0729421" lon="-105.2308271">
  <ele>1595.58</ele>
  <time>2026-08-28T19:11:36Z</time>
  <course>357.04</course>
  <speed>0.0</speed>
  <fix>3d</fix>
</trkpt>
<trkpt lat="40.072942" lon="-105.2308268">
  <ele>1595.5</ele>
  <time>2026-08-28T19:11:36Z</time>
  <course>128.67</course>
  <speed>0.02</speed>
  <fix>3d</fix>
</trkpt>
<trkpt lat="40.0729421" lon="-105.230827">
  <ele>1595.58</ele>
  <time>2026-08-28T19:11:36Z</time>
  <course>358.3</course>
  <speed>0.0</speed>
  <fix>3d</fix>
</trkpt>
<trkpt lat="40.072942" lon="-105.2308267">
  <ele>1595.5</ele>
  <time>2026-08-28T19:11:36Z</time>
  <course>127.79</course>
  <speed>0.02</speed>
  <fix>3d</fix>
</trkpt>
<trkpt lat="40.0729421" lon="-105.230827">
  <ele>1595.58</ele>
  <time>2026-08-28T19:11:36Z</time>
  <course>359.31</course>
  <speed>0.0</speed>
  <fix>3d</fix>
</trkpt>
<trkpt lat="40.072942" lon="-105.2308267">
  <ele>1595.49</ele>
  <time>2026-08-28T19:11:36Z</time>
  <course>125.76</course>
  <speed>0.02</speed>
  <fix>3d</fix>
</trkpt>
<trkpt lat="40.0729421" lon="-105.2308269">
  <ele>1595.57</ele>
  <time>2026-08-28T19:11:36Z</time>
  <course>359.87</course>
  <speed>0.0</speed>
  <fix>3d</fix>
</trkpt>
<trkpt lat="40.0729419" lon="-105.2308267">
  <ele>1595.49</ele>
  <time>2026-08-28T19:11:36Z</time>
  <course>123.24</course>
  <speed>0.02</speed>
  <fix>3d</fix>
</trkpt>
<trkpt lat="40.072942" lon="-105.2308269">
  <ele>1595.57</ele>
  <time>2026-08-28T19:11:36Z</time>
  <course>359.94</course>
  <speed>0.0</speed>
  <fix>3d</fix>
</trkpt>
<trkpt lat="40.0729418" lon="-105.2308266">
  <ele>1595.49</ele>
  <time>2026-08-28T19:11:36Z</time>
  <course>119.58</course>
  <speed>0.02</speed>
  <fix>3d</fix>
</trkpt>
<trkpt lat="40.072942" lon="-105.2308268">
  <ele>1595.57</ele>
  <time>2026-08-28T19:11:36Z</time>
  <course>359.56</course>
  <speed>0.0</speed>
  <fix>3d</fix>
</trkpt>
<trkpt lat="40.0729418" lon="-105.2308266">
  <ele>1595.49</ele>
  <time>2026-08-28T19:11:36Z</time>
  <course>115.8</course>
  <speed>0.03</speed>
  <fix>3d</fix>
</trkpt>
<trkpt lat="40.072942" lon="-105.2308267">
  <ele>1595.57</ele>
  <time>2026-08-28T19:11:36Z</time>
  <course>358.73</course>
  <speed>0.01</speed>
  <fix>3d</fix>
</trkpt>
<trkpt lat="40.0729418" lon="-105.2308265">
  <ele>1595.49</ele>
  <time>2026-08-28T19:11:36Z</time>
  <course>113.25</course>
  <speed>0.03</speed>
  <fix>3d</fix>
</trkpt>
<trkpt lat="40.072942" lon="-105.2308266">
  <ele>1595.56</ele>
  <time>2026-08-28T19:11:36Z</time>
  <course>357.53</course>
  <speed>0.01</speed>
  <fix>3d</fix>
</trkpt>
<trkpt lat="40.0729418" lon="-105.2308264">
  <ele>1595.49</ele>
  <time>2026-08-28T19:11:36Z</time>
  <course>111.15</course>
  <speed>0.03</speed>
  <fix>3d</fix>
</trkpt>
<trkpt lat="40.0729419" lon="-105.2308266">
  <ele>1595.56</ele>
  <time>2026-08-28T19:11:36Z</time>
  <course>356.09</course>
  <speed>0.01</speed>
  <fix>3d</fix>
</trkpt>
<trkpt lat="40.0729417" lon="-105.2308263">
  <ele>1595.49</ele>
  <time>2026-08-28T19:11:36Z</time>
  <course>109.0</course>
  <speed>0.03</speed>
  <fix>3d</fix>
</trkpt>
<trkpt lat="40.0729419" lon="-105.2308265">
  <ele>1595.55</ele>
  <time>2026-08-28T19:11:36Z</time>
  <course>354.57</course>
  <speed>0.01</speed>
  <fix>3d</fix>
</trkpt>
<trkpt lat="40.0729417" lon="-105.2308262">
  <ele>1595.49</ele>
  <time>2026-08-28T19:11:36Z</time>
  <course>107.46</course>
  <speed>0.03</speed>
  <fix>3d</fix>
</trkpt>
<trkpt lat="40.0729419" lon="-105.2308264">
  <ele>1595.55</ele>
  <time>2026-08-28T19:11:36Z</time>
  <course>353.05</course>
  <speed>0.01</speed>
  <fix>3d</fix>
</trkpt>
<trkpt lat="40.0729417" lon="-105.2308262">
  <ele>1595.49</ele>
  <time>2026-08-28T19:11:36Z</time>
  <course>106.91</course>
  <speed>0.03</speed>
  <fix>3d</fix>
</trkpt>
<trkpt lat="40.0729419" lon="-105.2308263">
  <ele>1595.55</ele>
  <time>2026-08-28T19:11:36Z</time>
  <course>351.75</course>
  <speed>0.0</speed>
  <fix>3d</fix>
</trkpt>
<trkpt lat="40.0729417" lon="-105.2308261">
  <ele>1595.49</ele>
  <time>2026-08-28T19:11:36Z</time>
  <course>107.98</course>
  <speed>0.03</speed>
  <fix>3d</fix>
</trkpt>
<trkpt lat="40.0729418" lon="-105.2308263">
  <ele>1595.55</ele>
  <time>2026-08-28T19:11:36Z</time>
  <course>350.76</course>
  <speed>0.0</speed>
  <fix>3d</fix>
</trkpt>
<trkpt lat="40.0729417" lon="-105.230826">
  <ele>1595.49</ele>
  <time>2026-08-28T19:11:36Z</time>
  <course>110.63</course>
  <speed>0.02</speed>
  <fix>3d</fix>
</trkpt>
<trkpt lat="40.0729418" lon="-105.2308262">
  <ele>1595.55</ele>
  <time>2026-08-28T19:11:36Z</time>
  <course>350.2</course>
  <speed>0.0</speed>
  <fix>3d</fix>
</trkpt>
<trkpt lat="40.0729417" lon="-105.2308259">
  <ele>1595.5</ele>
  <time>2026-08-28T19:11:36Z</time>
  <course>114.09</course>
  <speed>0.02</speed>
  <fix>3d</fix>
</trkpt>
<trkpt lat="40.0729418" lon="-105.2308261">
  <ele>1595.55</ele>
  <time>2026-08-28T19:11:36Z</time>
  <course>350.08</course>
  <speed>0.0</speed>
  <fix>3d</fix>
</trkpt>
<trkpt lat="40.0729417" lon="-105.2308259">
  <ele>1595.5</ele>
  <time>2026-08-28T19:11:36Z</time>
  <course>117.67</course>
  <speed>0.02</speed>
  <fix>3d</fix>
</trkpt>
<trkpt lat="40.0729418" lon="-105.2308261">
  <ele>1595.55</ele>
  <time>2026-08-28T19:11:36Z</time>
  <course>350.47</course>
  <speed>0.0</speed>
  <fix>3d</fix>
</trkpt>
<trkpt lat="40.0729417" lon="-105.2308259">
  <ele>1595.51</ele>
  <time>2026-08-28T19:11:36Z</time>
  <course>121.24</course>
  <speed>0.02</speed>
  <fix>3d</fix>
</trkpt>
<trkpt lat="40.0729418" lon="-105.2308261">
  <ele>1595.56</ele>
  <time>2026-08-28T19:11:36Z</time>
  <course>351.33</course>
  <speed>0.0</speed>
  <fix>3d</fix>
</trkpt>
<trkpt lat="40.0729417" lon="-105.2308258">
  <ele>1595.51</ele>
  <time>2026-08-28T19:11:36Z</time>
  <course>125.98</course>
  <speed>0.02</speed>
  <fix>3d</fix>
</trkpt>
<trkpt lat="40.0729417" lon="-105.230826">
  <ele>1595.56</ele>
  <time>2026-08-28T19:11:36Z</time>
  <course>352.49</course>
  <speed>0.0</speed>
  <fix>3d</fix>
</trkpt>
<trkpt lat="40.0729416" lon="-105.2308257">
  <ele>1595.52</ele>
  <time>2026-08-28T19:11:36Z</time>
  <course>130.65</course>
  <speed>0.02</speed>
  <fix>3d</fix>
</trkpt>
<trkpt lat="40.0729417" lon="-105.230826">
  <ele>1595.56</ele>
  <time>2026-08-28T19:11:36Z</time>
  <course>353.92</course>
  <speed>0.0</speed>
  <fix>3d</fix>
</trkpt>
<trkpt lat="40.0729416" lon="-105.2308257">
  <ele>1595.52</ele>
  <time>2026-08-28T19:11:36Z</time>
  <course>132.92</course>
  <speed>0.02</speed>
  <fix>3d</fix>
</trkpt>
<trkpt lat="40.0729417" lon="-105.2308259">
  <ele>1595.55</ele>
  <time>2026-08-28T19:11:36Z</time>
  <course>355.46</course>
  <speed>0.0</speed>
  <fix>3d</fix>
</trkpt>
<trkpt lat="40.0729416" lon="-105.2308257">
  <ele>1595.52</ele>
  <time>2026-08-28T19:11:36Z</time>
  <course>133.05</course>
  <speed>0.02</speed>
  <fix>3d</fix>
</trkpt>
<trkpt lat="40.0729417" lon="-105.2308259">
  <ele>1595.56</ele>
  <time>2026-08-28T19:11:36Z</time>
  <course>356.96</course>
  <speed>0.0</speed>
  <fix>3d</fix>
</trkpt>
<trkpt lat="40.0729416" lon="-105.2308257">
  <ele>1595.53</ele>
  <time>2026-08-28T19:11:36Z</time>
  <course>131.16</course>
  <speed>0.02</speed>
  <fix>3d</fix>
</trkpt>
<trkpt lat="40.0729417" lon="-105.2308259">
  <ele>1595.56</ele>
  <time>2026-08-28T19:11:36Z</time>
  <course>358.25</course>
  <speed>0.0</speed>
  <fix>3d</fix>
</trkpt>
<trkpt lat="40.0729415" lon="-105.2308257">
  <ele>1595.53</ele>
  <time>2026-08-28T19:11:36Z</time>
  <course>128.74</course>
  <speed>0.02</speed>
  <fix>3d</fix>
</trkpt>
<trkpt lat="40.0729416" lon="-105.2308258">
  <ele>1595.56</ele>
  <time>2026-08-28T19:11:36Z</time>
  <course>359.24</course>
  <speed>0.0</speed>
  <fix>3d</fix>
</trkpt>
<trkpt lat="40.0729415" lon="-105.2308256">
  <ele>1595.54</ele>
  <time>2026-08-28T19:11:36Z</time>
  <course>125.16</course>
  <speed>0.02</speed>
  <fix>3d</fix>
</trkpt>
<trkpt lat="40.0729416" lon="-105.2308258">
  <ele>1595.57</ele>
  <time>2026-08-28T19:11:37Z</time>
  <course>359.83</course>
  <speed>0.0</speed>
  <fix>3d</fix>
</trkpt>
<trkpt lat="40.0729415" lon="-105.2308255">
  <ele>1595.54</ele>
  <time>2026-08-28T19:11:37Z</time>
  <course>120.22</course>
  <speed>0.02</speed>
  <fix>3d</fix>
</trkpt>
<trkpt lat="40.0729416" lon="-105.2308257">
  <ele>1595.58</ele>
  <time>2026-08-28T19:11:37Z</time>
  <course>359.95</course>
  <speed>0.0</speed>
  <fix>3d</fix>
</trkpt>
<trkpt lat="40.0729415" lon="-105.2308255">
  <ele>1595.54</ele>
  <time>2026-08-28T19:11:37Z</time>
  <course>115.12</course>
  <speed>0.02</speed>
  <fix>3d</fix>
</trkpt>
<trkpt lat="40.0729416" lon="-105.2308256">
  <ele>1595.59</ele>
  <time>2026-08-28T19:11:37Z</time>
  <course>359.6</course>
  <speed>0.0</speed>
  <fix>3d</fix>
</trkpt>
<trkpt lat="40.0729414" lon="-105.2308254">
  <ele>1595.55</ele>
  <time>2026-08-28T19:11:37Z</time>
  <course>111.04</course>
  <speed>0.02</speed>
  <fix>3d</fix>
</trkpt>
<trkpt lat="40.0729416" lon="-105.2308256">
  <ele>1595.59</ele>
  <time>2026-08-28T19:11:37Z</time>
  <course>358.77</course>
  <speed>0.01</speed>
  <fix>3d</fix>
</trkpt>
<trkpt lat="40.0729414" lon="-105.2308254">
  <ele>1595.55</ele>
  <time>2026-08-28T19:11:37Z</time>
  <course>108.33</course>
  <speed>0.03</speed>
  <fix>3d</fix>
</trkpt>
<trkpt lat="40.0729416" lon="-105.2308255">
  <ele>1595.59</ele>
  <time>2026-08-28T19:11:37Z</time>
  <course>357.61</course>
  <speed>0.01</speed>
  <fix>3d</fix>
</trkpt>
<trkpt lat="40.0729414" lon="-105.2308253">
  <ele>1595.55</ele>
  <time>2026-08-28T19:11:37Z</time>
  <course>106.22</course>
  <speed>0.03</speed>
  <fix>3d</fix>
</trkpt>
<trkpt lat="40.0729415" lon="-105.2308254">
  <ele>1595.59</ele>
  <time>2026-08-28T19:11:37Z</time>
  <course>356.19</course>
  <speed>0.01</speed>
  <fix>3d</fix>
</trkpt>
<trkpt lat="40.0729414" lon="-105.2308252">
  <ele>1595.54</ele>
  <time>2026-08-28T19:11:37Z</time>
  <course>104.64</course>
  <speed>0.03</speed>
  <fix>3d</fix>
</trkpt>
<trkpt lat="40.0729415" lon="-105.2308253">
  <ele>1595.6</ele>
  <time>2026-08-28T19:11:37Z</time>
  <course>354.68</course>
  <speed>0.01</speed>
  <fix>3d</fix>
</trkpt>
<trkpt lat="40.0729414" lon="-105.2308251">
  <ele>1595.54</ele>
  <time>2026-08-28T19:11:37Z</time>
  <course>103.8</course>
  <speed>0.03</speed>
  <fix>3d</fix>
</trkpt>
<trkpt lat="40.0729415" lon="-105.2308253">
  <ele>1595.6</ele>
  <time>2026-08-28T19:11:37Z</time>
  <course>353.18</course>
  <speed>0.01</speed>
  <fix>3d</fix>
</trkpt>
<trkpt lat="40.0729414" lon="-105.230825">
  <ele>1595.53</ele>
  <time>2026-08-28T19:11:37Z</time>
  <course>104.13</course>
  <speed>0.03</speed>
  <fix>3d</fix>
</trkpt>
<trkpt lat="40.0729415" lon="-105.2308252">
  <ele>1595.59</ele>
  <time>2026-08-28T19:11:37Z</time>
  <course>351.88</course>
  <speed>0.0</speed>
  <fix>3d</fix>
</trkpt>
<trkpt lat="40.0729413" lon="-105.230825">
  <ele>1595.53</ele>
  <time>2026-08-28T19:11:37Z</time>
  <course>105.06</course>
  <speed>0.03</speed>
  <fix>3d</fix>
</trkpt>
<trkpt lat="40.0729415" lon="-105.2308251">
  <ele>1595.59</ele>
  <time>2026-08-28T19:11:37Z</time>
  <course>350.88</course>
  <speed>0.0</speed>
  <fix>3d</fix>
</trkpt>
<trkpt lat="40.0729412" lon="-105.2308249">
  <ele>1595.52</ele>
  <time>2026-08-28T19:11:37Z</time>
  <course>106.06</course>
  <speed>0.03</speed>
  <fix>3d</fix>
</trkpt>
<trkpt lat="40.0729415" lon="-105.2308251">
  <ele>1595.59</ele>
  <time>2026-08-28T19:11:37Z</time>
  <course>350.3</course>
  <speed>0.0</speed>
  <fix>3d</fix>
</trkpt>
<trkpt lat="40.0729412" lon="-105.2308249">
  <ele>1595.52</ele>
  <time>2026-08-28T19:11:37Z</time>
  <course>108.46</course>
  <speed>0.02</speed>
  <fix>3d</fix>
</trkpt>
<trkpt lat="40.0729414" lon="-105.230825">
  <ele>1595.58</ele>
  <time>2026-08-28T19:11:37Z</time>
  <course>350.2</course>
  <speed>0.0</speed>
  <fix>3d</fix>
</trkpt>
<trkpt lat="40.0729412" lon="-105.2308248">
  <ele>1595.51</ele>
  <time>2026-08-28T19:11:37Z</time>
  <course>112.19</course>
  <speed>0.02</speed>
  <fix>3d</fix>
</trkpt>
<trkpt lat="40.0729414" lon="-105.230825">
  <ele>1595.58</ele>
  <time>2026-08-28T19:11:37Z</time>
  <course>350.57</course>
  <speed>0.0</speed>
  <fix>3d</fix>
</trkpt>
<trkpt lat="40.0729412" lon="-105.2308247">
  <ele>1595.51</ele>
  <time>2026-08-28T19:11:37Z</time>
  <course>116.94</course>
  <speed>0.02</speed>
  <fix>3d</fix>
</trkpt>
<trkpt lat="40.0729414" lon="-105.2308249">
  <ele>1595.58</ele>
  <time>2026-08-28T19:11:37Z</time>
  <course>351.39</course>
  <speed>0.0</speed>
  <fix>3d</fix>
</trkpt>
<trkpt lat="40.0729412" lon="-105.2308247">
  <ele>1595.5</ele>
  <time>2026-08-28T19:11:37Z</time>
  <course>122.89</course>
  <speed>0.02</speed>
  <fix>3d</fix>
</trkpt>
<trkpt lat="40.0729413" lon="-105.2308249">
  <ele>1595.57</ele>
  <time>2026-08-28T19:11:37Z</time>
  <course>352.58</course>
  <speed>0.0</speed>
  <fix>3d</fix>
</trkpt>
<trkpt lat="40.0729412" lon="-105.2308247">
  <ele>1595.5</ele>
  <time>2026-08-28T19:11:37Z</time>
  <course>128.34</course>
  <speed>0.02</speed>
  <fix>3d</fix>
</trkpt>
<trkpt lat="40.0729413" lon="-105.2308249">
  <ele>1595.57</ele>
  <time>2026-08-28T19:11:37Z</time>
  <course>354.02</course>
  <speed>0.0</speed>
  <fix>3d</fix>
</trkpt>
<trkpt lat="40.0729411" lon="-105.2308246">
  <ele>1595.5</ele>
  <time>2026-08-28T19:11:37Z</time>
  <course>131.96</course>
  <speed>0.02</speed>
  <fix>3d</fix>
</trkpt>
<trkpt lat="40.0729413" lon="-105.2308248">
  <ele>1595.57</ele>
  <time>2026-08-28T19:11:37Z</time>
  <course>355.51</course>
  <speed>0.0</speed>
  <fix>3d</fix>
</trkpt>
<trkpt lat="40.0729411" lon="-105.2308245">
  <ele>1595.5</ele>
  <time>2026-08-28T19:11:37Z</time>
  <course>133.4</course>
  <speed>0.02</speed>
  <fix>3d</fix>
</trkpt>
<trkpt lat="40.0729412" lon="-105.2308248">
  <ele>1595.57</ele>
  <time>2026-08-28T19:11:37Z</time>
  <course>357.01</course>
  <speed>0.0</speed>
  <fix>3d</fix>
</trkpt>
<trkpt lat="40.0729411" lon="-105.2308245">
  <ele>1595.49</ele>
  <time>2026-08-28T19:11:37Z</time>
  <course>133.44</course>
  <speed>0.02</speed>
  <fix>3d</fix>
</trkpt>
<trkpt lat="40.0729412" lon="-105.2308247">
  <ele>1595.57</ele>
  <time>2026-08-28T19:11:37Z</time>
  <course>358.31</course>
  <speed>0.0</speed>
  <fix>3d</fix>
</trkpt>
<trkpt lat="40.0729411" lon="-105.2308245">
  <ele>1595.49</ele>
  <time>2026-08-28T19:11:37Z</time>
  <course>131.95</course>
  <speed>0.02</speed>
  <fix>3d</fix>
</trkpt>
<trkpt lat="40.0729412" lon="-105.2308247">
  <ele>1595.58</ele>
  <time>2026-08-28T19:11:37Z</time>
  <course>359.29</course>
  <speed>0.0</speed>
  <fix>3d</fix>
</trkpt>
<trkpt lat="40.0729411" lon="-105.2308245">
  <ele>1595.49</ele>
  <time>2026-08-28T19:11:37Z</time>
  <course>128.93</course>
  <speed>0.02</speed>
  <fix>3d</fix>
</trkpt>
<trkpt lat="40.0729412" lon="-105.2308246">
  <ele>1595.58</ele>
  <time>2026-08-28T19:11:37Z</time>
  <course>359.87</course>
  <speed>0.0</speed>
  <fix>3d</fix>
</trkpt>
<trkpt lat="40.0729411" lon="-105.2308244">
  <ele>1595.49</ele>
  <time>2026-08-28T19:11:37Z</time>
  <course>124.78</course>
  <speed>0.02</speed>
  <fix>3d</fix>
</trkpt>
<trkpt lat="40.0729411" lon="-105.2308246">
  <ele>1595.58</ele>
  <time>2026-08-28T19:11:37Z</time>
  <course>359.98</course>
  <speed>0.0</speed>
  <fix>3d</fix>
</trkpt>
<trkpt lat="40.072941" lon="-105.2308243">
  <ele>1595.49</ele>
  <time>2026-08-28T19:11:37Z</time>
  <course>119.75</course>
  <speed>0.02</speed>
  <fix>3d</fix>
</trkpt>
<trkpt lat="40.0729411" lon="-105.2308245">
  <ele>1595.58</ele>
  <time>2026-08-28T19:11:37Z</time>
  <course>359.58</course>
  <speed>0.0</speed>
  <fix>3d</fix>
</trkpt>
<trkpt lat="40.072941" lon="-105.2308243">
  <ele>1595.49</ele>
  <time>2026-08-28T19:11:37Z</time>
  <course>114.67</course>
  <speed>0.03</speed>
  <fix>3d</fix>
</trkpt>
<trkpt lat="40.0729411" lon="-105.2308244">
  <ele>1595.58</ele>
  <time>2026-08-28T19:11:37Z</time>
  <course>358.78</course>
  <speed>0.01</speed>
  <fix>3d</fix>
</trkpt>
<trkpt lat="40.072941" lon="-105.2308242">
  <ele>1595.49</ele>
  <time>2026-08-28T19:11:37Z</time>
  <course>109.94</course>
  <speed>0.03</speed>
  <fix>3d</fix>
</trkpt>
<trkpt lat="40.0729411" lon="-105.2308243">
  <ele>1595.57</ele>
  <time>2026-08-28T19:11:37Z</time>
  <course>357.62</course>
  <speed>0.01</speed>
  <fix>3d</fix>
</trkpt>
<trkpt lat="40.072941" lon="-105.2308241">
  <ele>1595.48</ele>
  <time>2026-08-28T19:11:37Z</time>
  <course>105.4</course>
  <speed>0.03</speed>
  <fix>3d</fix>
</trkpt>
<trkpt lat="40.0729411" lon="-105.2308243">
  <ele>1595.56</ele>
  <time>2026-08-28T19:11:37Z</time>
  <course>356.16</course>
  <speed>0.01</speed>
  <fix>3d</fix>
</trkpt>
<trkpt lat="40.072941" lon="-105.230824">
  <ele>1595.48</ele>
  <time>2026-08-28T19:11:37Z</time>
  <course>101.91</course>
  <speed>0.03</speed>
  <fix>3d</fix>
</trkpt>
<trkpt lat="40.0729411" lon="-105.2308242">
  <ele>1595.56</ele>
  <time>2026-08-28T19:11:37Z</time>
  <course>354.59</course>
  <speed>0.01</speed>
  <fix>3d</fix>
</trkpt>
<trkpt lat="40.0729409" lon="-105.230824">
  <ele>1595.48</ele>
  <time>2026-08-28T19:11:37Z</time>
  <course>100.74</course>
  <speed>0.03</speed>
  <fix>3d</fix>
</trkpt>
<trkpt lat="40.0729411" lon="-105.2308241">
  <ele>1595.56</ele>
  <time>2026-08-28T19:11:37Z</time>
  <course>353.11</course>
  <speed>0.0</speed>
  <fix>3d</fix>
</trkpt>
<trkpt lat="40.0729409" lon="-105.2308239">
  <ele>1595.48</ele>
  <time>2026-08-28T19:11:37Z</time>
  <course>101.23</course>
  <speed>0.03</speed>
  <fix>3d</fix>
</trkpt>
<trkpt lat="40.0729411" lon="-105.230824">
  <ele>1595.56</ele>
  <time>2026-08-28T19:11:37Z</time>
  <course>351.78</course>
  <speed>0.0</speed>
  <fix>3d</fix>
</trkpt>
<trkpt lat="40.0729409" lon="-105.2308238">
  <ele>1595.48</ele>
  <time>2026-08-28T19:11:37Z</time>
  <course>101.94</course>
  <speed>0.03</speed>
  <fix>3d</fix>
</trkpt>
<trkpt lat="40.072941" lon="-105.230824">
  <ele>1595.56</ele>
  <time>2026-08-28T19:11:37Z</time>
  <course>350.8</course>
  <speed>0.0</speed>
  <fix>3d</fix>
</trkpt>
<trkpt lat="40.0729409" lon="-105.2308238">
  <ele>1595.48</ele>
  <time>2026-08-28T19:11:37Z</time>
  <course>102.79</course>
  <speed>0.02</speed>
  <fix>3d</fix>
</trkpt>
<trkpt lat="40.072941" lon="-105.2308239">
  <ele>1595.57</ele>
  <time>2026-08-28T19:11:37Z</time>
  <course>350.24</course>
  <speed>0.0</speed>
  <fix>3d</fix>
</trkpt>
<trkpt lat="40.0729409" lon="-105.2308237">
  <ele>1595.48</ele>
  <time>2026-08-28T19:11:37Z</time>
  <course>105.43</course>
  <speed>0.02</speed>
  <fix>3d</fix>
</trkpt>
<trkpt lat="40.072941" lon="-105.2308239">
  <ele>1595.57</ele>
  <time>2026-08-28T19:11:37Z</time>
  <course>350.14</course>
  <speed>0.0</speed>
  <fix>3d</fix>
</trkpt>
<trkpt lat="40.0729409" lon="-105.2308236">
  <ele>1595.48</ele>
  <time>2026-08-28T19:11:37Z</time>
  <course>110.75</course>
  <speed>0.02</speed>
  <fix>3d</fix>
</trkpt>
<trkpt lat="40.072941" lon="-105.2308238">
  <ele>1595.57</ele>
  <time>2026-08-28T19:11:37Z</time>
  <course>350.53</course>
  <speed>0.0</speed>
  <fix>3d</fix>
</trkpt>
<trkpt lat="40.0729409" lon="-105.2308235">
  <ele>1595.48</ele>
  <time>2026-08-28T19:11:37Z</time>
  <course>116.9</course>
  <speed>0.02</speed>
  <fix>3d</fix>
</trkpt>
<trkpt lat="40.072941" lon="-105.2308238">
  <ele>1595.57</ele>
  <time>2026-08-28T19:11:37Z</time>
  <course>351.37</course>
  <speed>0.0</speed>
  <fix>3d</fix>
</trkpt>
<trkpt lat="40.0729408" lon="-105.2308235">
  <ele>1595.48</ele>
  <time>2026-08-28T19:11:37Z</time>
  <course>122.62</course>
  <speed>0.02</speed>
  <fix>3d</fix>
</trkpt>
<trkpt lat="40.072941" lon="-105.2308237">
  <ele>1595.57</ele>
  <time>2026-08-28T19:11:37Z</time>
  <course>352.56</course>
  <speed>0.0</speed>
  <fix>3d</fix>
</trkpt>
<trkpt lat="40.0729408" lon="-105.2308235">
  <ele>1595.48</ele>
  <time>2026-08-28T19:11:37Z</time>
  <course>127.33</course>
  <speed>0.02</speed>
  <fix>3d</fix>
</trkpt>
<trkpt lat="40.0729409" lon="-105.2308237">
  <ele>1595.57</ele>
  <time>2026-08-28T19:11:37Z</time>
  <course>354.0</course>
  <speed>0.0</speed>
  <fix>3d</fix>
</trkpt>
<trkpt lat="40.0729408" lon="-105.2308235">
  <ele>1595.48</ele>
  <time>2026-08-28T19:11:37Z</time>
  <course>130.58</course>
  <speed>0.02</speed>
  <fix>3d</fix>
</trkpt>
<trkpt lat="40.0729409" lon="-105.2308236">
  <ele>1595.57</ele>
  <time>2026-08-28T19:11:37Z</time>
  <course>355.51</course>
  <speed>0.0</speed>
  <fix>3d</fix>
</trkpt>
<trkpt lat="40.0729408" lon="-105.2308234">
  <ele>1595.48</ele>
  <time>2026-08-28T19:11:37Z</time>
  <course>131.93</course>
  <speed>0.02</speed>
  <fix>3d</fix>
</trkpt>
<trkpt lat="40.0729409" lon="-105.2308236">
  <ele>1595.56</ele>
  <time>2026-08-28T19:11:37Z</time>
  <course>357.0</course>
  <speed>0.0</speed>
  <fix>3d</fix>
</trkpt>
<trkpt lat="40.0729407" lon="-105.2308233">
  <ele>1595.48</ele>
  <time>2026-08-28T19:11:37Z</time>
  <course>131.44</course>
  <speed>0.02</speed>
  <fix>3d</fix>
</trkpt>
<trkpt lat="40.0729408" lon="-105.2308236">
  <ele>1595.57</ele>
  <time>2026-08-28T19:11:37Z</time>
  <course>358.27</course>
  <speed>0.0</speed>
  <fix>3d</fix>
</trkpt>
<trkpt lat="40.0729406" lon="-105.2308233">
  <ele>1595.48</ele>
  <time>2026-08-28T19:11:37Z</time>
  <course>128.66</course>
  <speed>0.02</speed>
  <fix>3d</fix>
</trkpt>
<trkpt lat="40.0729408" lon="-105.2308235">
  <ele>1595.57</ele>
  <time>2026-08-28T19:11:37Z</time>
  <course>359.27</course>
  <speed>0.0</speed>
  <fix>3d</fix>
</trkpt>
<trkpt lat="40.0729406" lon="-105.2308233">
  <ele>1595.48</ele>
  <time>2026-08-28T19:11:37Z</time>
  <course>124.33</course>
  <speed>0.02</speed>
  <fix>3d</fix>
</trkpt>
<trkpt lat="40.0729408" lon="-105.2308234">
  <ele>1595.57</ele>
  <time>2026-08-28T19:11:37Z</time>
  <course>359.86</course>
  <speed>0.0</speed>
  <fix>3d</fix>
</trkpt>
<trkpt lat="40.0729406" lon="-105.2308232">
  <ele>1595.48</ele>
  <time>2026-08-28T19:11:37Z</time>
  <course>119.45</course>
  <speed>0.02</speed>
  <fix>3d</fix>
</trkpt>
<trkpt lat="40.0729408" lon="-105.2308234">
  <ele>1595.57</ele>
  <time>2026-08-28T19:11:37Z</time>
  <course>359.93</course>
  <speed>0.0</speed>
  <fix>3d</fix>
</trkpt>
<trkpt lat="40.0729406" lon="-105.2308231">
  <ele>1595.48</ele>
  <time>2026-08-28T19:11:37Z</time>
  <course>114.38</course>
  <speed>0.03</speed>
  <fix>3d</fix>
</trkpt>
<trkpt lat="40.0729407" lon="-105.2308233">
  <ele>1595.57</ele>
  <time>2026-08-28T19:11:37Z</time>
  <course>359.56</course>
  <speed>0.01</speed>
  <fix>3d</fix>
</trkpt>
<trkpt lat="40.0729405" lon="-105.2308231">
  <ele>1595.48</ele>
  <time>2026-08-28T19:11:37Z</time>
  <course>110.16</course>
  <speed>0.03</speed>
  <fix>3d</fix>
</trkpt>
<trkpt lat="40.0729407" lon="-105.2308232">
  <ele>1595.58</ele>
  <time>2026-08-28T19:11:37Z</time>
  <course>358.75</course>
  <speed>0.01</speed>
  <fix>3d</fix>
</trkpt>
<trkpt lat="40.0729405" lon="-105.230823">
  <ele>1595.48</ele>
  <time>2026-08-28T19:11:37Z</time>
  <course>107.47</course>
  <speed>0.03</speed>
  <fix>3d</fix>
</trkpt>
<trkpt lat="40.0729407" lon="-105.2308231">
  <ele>1595.58</ele>
  <time>2026-08-28T19:11:37Z</time>
  <course>357.57</course>
  <speed>0.01</speed>
  <fix>3d</fix>
</trkpt>
<trkpt lat="40.0729405" lon="-105.2308229">
  <ele>1595.48</ele>
  <time>2026-08-28T19:11:37Z</time>
  <course>106.07</course>
  <speed>0.03</speed>
  <fix>3d</fix>
</trkpt>
<trkpt lat="40.0729407" lon="-105.2308231">
  <ele>1595.58</ele>
  <time>2026-08-28T19:11:37Z</time>
  <course>356.17</course>
  <speed>0.01</speed>
  <fix>3d</fix>
</trkpt>
<trkpt lat="40.0729405" lon="-105.2308228">
  <ele>1595.48</ele>
  <time>2026-08-28T19:11:37Z</time>
  <course>105.14</course>
  <speed>0.03</speed>
  <fix>3d</fix>
</trkpt>
<trkpt lat="40.0729406" lon="-105.230823">
  <ele>1595.58</ele>
  <time>2026-08-28T19:11:37Z</time>
  <course>354.67</course>
  <speed>0.01</speed>
  <fix>3d</fix>
</trkpt>
<trkpt lat="40.0729405" lon="-105.2308228">
  <ele>1595.48</ele>
  <time>2026-08-28T19:11:37Z</time>
  <course>104.21</course>
  <speed>0.03</speed>
  <fix>3d</fix>
</trkpt>
<trkpt lat="40.0729406" lon="-105.2308229">
  <ele>1595.57</ele>
  <time>2026-08-28T19:11:37Z</time>
  <course>353.16</course>
  <speed>0.0</speed>
  <fix>3d</fix>
</trkpt>
<trkpt lat="40.0729405" lon="-105.2308227">
  <ele>1595.48</ele>
  <time>2026-08-28T19:11:37Z</time>
  <course>103.38</course>
  <speed>0.03</speed>
  <fix>3d</fix>
</trkpt>
<trkpt lat="40.0729406" lon="-105.2308228">
  <ele>1595.57</ele>
  <time>2026-08-28T19:11:37Z</time>
  <course>351.81</course>
  <speed>0.0</speed>
  <fix>3d</fix>
</trkpt>
<trkpt lat="40.0729405" lon="-105.2308226">
  <ele>1595.47</ele>
  <time>2026-08-28T19:11:37Z</time>
  <course>103.21</course>
  <speed>0.03</speed>
  <fix>3d</fix>
</trkpt>
<trkpt lat="40.0729406" lon="-105.2308228">
  <ele>1595.57</ele>
  <time>2026-08-28T19:11:37Z</time>
  <course>350.84</course>
  <speed>0.0</speed>
  <fix>3d</fix>
</trkpt>
<trkpt lat="40.0729405" lon="-105.2308226">
  <ele>1595.47</ele>
  <time>2026-08-28T19:11:37Z</time>
  <course>104.58</course>
  <speed>0.02</speed>
  <fix>3d</fix>
</trkpt>
<trkpt lat="40.0729406" lon="-105.2308227">
  <ele>1595.57</ele>
  <time>2026-08-28T19:11:37Z</time>
  <course>350.26</course>
  <speed>0.0</speed>
  <fix>3d</fix>
</trkpt>
<trkpt lat="40.0729405" lon="-105.2308225">
  <ele>1595.47</ele>
  <time>2026-08-28T19:11:37Z</time>
  <course>108.37</course>
  <speed>0.02</speed>
  <fix>3d</fix>
</trkpt>
<trkpt lat="40.0729406" lon="-105.2308227">
  <ele>1595.58</ele>
  <time>2026-08-28T19:11:37Z</time>
  <course>350.18</course>
  <speed>0.0</speed>
  <fix>3d</fix>
</trkpt>
<trkpt lat="40.0729405" lon="-105.2308225">
  <ele>1595.47</ele>
  <time>2026-08-28T19:11:37Z</time>
  <course>114.32</course>
  <speed>0.02</speed>
  <fix>3d</fix>
</trkpt>
<trkpt lat="40.0729406" lon="-105.2308226">
  <ele>1595.58</ele>
  <time>2026-08-28T19:11:37Z</time>
  <course>350.54</course>
  <speed>0.0</speed>
  <fix>3d</fix>
</trkpt>
<trkpt lat="40.0729405" lon="-105.2308224">
  <ele>1595.47</ele>
  <time>2026-08-28T19:11:37Z</time>
  <course>120.5</course>
  <speed>0.02</speed>
  <fix>3d</fix>
</trkpt>
<trkpt lat="40.0729406" lon="-105.2308226">
  <ele>1595.58</ele>
  <time>2026-08-28T19:11:37Z</time>
  <course>351.38</course>
  <speed>0.0</speed>
  <fix>3d</fix>
</trkpt>
<trkpt lat="40.0729404" lon="-105.2308223">
  <ele>1595.47</ele>
  <time>2026-08-28T19:11:37Z</time>
  <course>125.06</course>
  <speed>0.02</speed>
  <fix>3d</fix>
</trkpt>
<trkpt lat="40.0729405" lon="-105.2308226">
  <ele>1595.58</ele>
  <time>2026-08-28T19:11:37Z</time>
  <course>352.58</course>
  <speed>0.0</speed>
  <fix>3d</fix>
</trkpt>
<trkpt lat="40.0729404" lon="-105.2308223">
  <ele>1595.47</ele>
  <time>2026-08-28T19:11:37Z</time>
  <course>128.5</course>
  <speed>0.02</speed>
  <fix>3d</fix>
</trkpt>
<trkpt lat="40.0729405" lon="-105.2308225">
  <ele>1595.58</ele>
  <time>2026-08-28T19:11:37Z</time>
  <course>354.03</course>
  <speed>0.0</speed>
  <fix>3d</fix>
</trkpt>
<trkpt lat="40.0729404" lon="-105.2308223">
  <ele>1595.46</ele>
  <time>2026-08-28T19:11:37Z</time>
  <course>130.72</course>
  <speed>0.02</speed>
  <fix>3d</fix>
</trkpt>
<trkpt lat="40.0729405" lon="-105.2308225">
  <ele>1595.57</ele>
  <time>2026-08-28T19:11:37Z</time>
  <course>355.54</course>
  <speed>0.0</speed>
  <fix>3d</fix>
</trkpt>
<trkpt lat="40.0729404" lon="-105.2308222">
  <ele>1595.46</ele>
  <time>2026-08-28T19:11:37Z</time>
  <course>130.47</course>
  <speed>0.02</speed>
  <fix>3d</fix>
</trkpt>
<trkpt lat="40.0729405" lon="-105.2308224">
  <ele>1595.57</ele>
  <time>2026-08-28T19:11:37Z</time>
  <course>357.0</course>
  <speed>0.0</speed>
  <fix>3d</fix>
</trkpt>
<trkpt lat="40.0729403" lon="-105.2308221">
  <ele>1595.46</ele>
  <time>2026-08-28T19:11:37Z</time>
  <course>128.31</course>
  <speed>0.02</speed>
  <fix>3d</fix>
</trkpt>
<trkpt lat="40.0729404" lon="-105.2308224">
  <ele>1595.56</ele>
  <time>2026-08-28T19:11:37Z</time>
  <course>358.3</course>
  <speed>0.0</speed>
  <fix>3d</fix>
</trkpt>
<trkpt lat="40.0729403" lon="-105.2308221">
  <ele>1595.46</ele>
  <time>2026-08-28T19:11:37Z</time>
  <course>125.8</course>
  <speed>0.02</speed>
  <fix>3d</fix>
</trkpt>
<trkpt lat="40.0729404" lon="-105.2308223">
  <ele>1595.55</ele>
  <time>2026-08-28T19:11:37Z</time>
  <course>359.27</course>
  <speed>0.0</speed>
  <fix>3d</fix>
</trkpt>
<trkpt lat="40.0729403" lon="-105.2308221">
  <ele>1595.45</ele>
  <time>2026-08-28T19:11:37Z</time>
  <course>122.8</course>
  <speed>0.02</speed>
  <fix>3d</fix>
</trkpt>
<trkpt lat="40.0729404" lon="-105.2308223">
  <ele>1595.55</ele>
  <time>2026-08-28T19:11:37Z</time>
  <course>359.82</course>
  <speed>0.0</speed>
  <fix>3d</fix>
</trkpt>
<trkpt lat="40.0729402" lon="-105.230822">
  <ele>1595.45</ele>
  <time>2026-08-28T19:11:37Z</time>
  <course>118.81</course>
  <speed>0.02</speed>
  <fix>3d</fix>
</trkpt>
<trkpt lat="40.0729404" lon="-105.2308222">
  <ele>1595.55</ele>
  <time>2026-08-28T19:11:37Z</time>
  <course>359.89</course>
  <speed>0.0</speed>
  <fix>3d</fix>
</trkpt>
<trkpt lat="40.0729402" lon="-105.2308219">
  <ele>1595.45</ele>
  <time>2026-08-28T19:11:37Z</time>
  <course>115.04</course>
  <speed>0.03</speed>
  <fix>3d</fix>
</trkpt>
<trkpt lat="40.0729403" lon="-105.2308221">
  <ele>1595.55</ele>
  <time>2026-08-28T19:11:37Z</time>
  <course>359.5</course>
  <speed>0.01</speed>
  <fix>3d</fix>
</trkpt>
<trkpt lat="40.0729402" lon="-105.2308219">
  <ele>1595.46</ele>
  <time>2026-08-28T19:11:37Z</time>
  <course>111.63</course>
  <speed>0.03</speed>
  <fix>3d</fix>
</trkpt>
<trkpt lat="40.0729403" lon="-105.230822">
  <ele>1595.55</ele>
  <time>2026-08-28T19:11:37Z</time>
  <course>358.67</course>
  <speed>0.01</speed>
  <fix>3d</fix>
</trkpt>
<trkpt lat="40.0729402" lon="-105.2308218">
  <ele>1595.46</ele>
  <time>2026-08-28T19:11:37Z</time>
  <course>107.99</course>
  <speed>0.03</speed>
  <fix>3d</fix>
</trkpt>
<trkpt lat="40.0729403" lon="-105.230822">
  <ele>1595.55</ele>
  <time>2026-08-28T19:11:37Z</time>
  <course>357.5</course>
  <speed>0.01</speed>
  <fix>3d</fix>
</trkpt>
<trkpt lat="40.0729402" lon="-105.2308218">
  <ele>1595.46</ele>
  <time>2026-08-28T19:11:37Z</time>
  <course>104.61</course>
  <speed>0.03</speed>
  <fix>3d</fix>
</trkpt>
<trkpt lat="40.0729403" lon="-105.2308219">
  <ele>1595.56</ele>
  <time>2026-08-28T19:11:37Z</time>
  <course>356.08</course>
  <speed>0.01</speed>
  <fix>3d</fix>
</trkpt>
<trkpt lat="40.0729402" lon="-105.2308217">
  <ele>1595.47</ele>
  <time>2026-08-28T19:11:37Z</time>
  <course>101.87</course>
  <speed>0.03</speed>
  <fix>3d</fix>
</trkpt>
<trkpt lat="40.0729403" lon="-105.2308218">
  <ele>1595.56</ele>
  <time>2026-08-28T19:11:37Z</time>
  <course>354.57</course>
  <speed>0.01414213562373095</speed>
  <fix>3d</fix>
</trkpt>
<trkpt lat="40.0729401" lon="-105.2308216">
  <ele>1595.47</ele>
  <time>2026-08-28T19:11:37Z</time>
  <course>100.01</course>
  <speed>0.03</speed>
  <fix>3d</fix>
</trkpt>
<trkpt lat="40.0729403" lon="-105.2308217">
  <ele>1595.56</ele>
  <time>2026-08-28T19:11:37Z</time>
  <course>353.07</course>
  <speed>0.01</speed>
  <fix>3d</fix>
</trkpt>
<trkpt lat="40.07294" lon="-105.2308215">
  <ele>1595.48</ele>
  <time>2026-08-28T19:11:37Z</time>
  <course>98.83</course>
  <speed>0.03</speed>
  <fix>3d</fix>
</trkpt>
<trkpt lat="40.0729403" lon="-105.2308217">
  <ele>1595.56</ele>
  <time>2026-08-28T19:11:37Z</time>
  <course>351.81</course>
  <speed>0.01</speed>
  <fix>3d</fix>
</trkpt>
<trkpt lat="40.07294" lon="-105.2308214">
  <ele>1595.48</ele>
  <time>2026-08-28T19:11:37Z</time>
  <course>98.53</course>
  <speed>0.03</speed>
  <fix>3d</fix>
</trkpt>
<trkpt lat="40.0729403" lon="-105.2308216">
  <ele>1595.56</ele>
  <time>2026-08-28T19:11:37Z</time>
  <course>350.81</course>
  <speed>0.0</speed>
  <fix>3d</fix>
</trkpt>
<trkpt lat="40.07294" lon="-105.2308214">
  <ele>1595.48</ele>
  <time>2026-08-28T19:11:37Z</time>
  <course>100.1</course>
  <speed>0.02</speed>
  <fix>3d</fix>
</trkpt>
<trkpt lat="40.0729402" lon="-105.2308215">
  <ele>1595.56</ele>
  <time>2026-08-28T19:11:37Z</time>
  <course>350.22</course>
  <speed>0.0</speed>
  <fix>3d</fix>
</trkpt>
<trkpt lat="40.07294" lon="-105.2308213">
  <ele>1595.48</ele>
  <time>2026-08-28T19:11:37Z</time>
  <course>103.74</course>
  <speed>0.02</speed>
  <fix>3d</fix>
</trkpt>
<trkpt lat="40.0729402" lon="-105.2308215">
  <ele>1595.56</ele>
  <time>2026-08-28T19:11:37Z</time>
  <course>350.11</course>
  <speed>0.0</speed>
  <fix>3d</fix>
</trkpt>
<trkpt lat="40.07294" lon="-105.2308213">
  <ele>1595.49</ele>
  <time>2026-08-28T19:11:37Z</time>
  <course>108.16</course>
  <speed>0.02</speed>
  <fix>3d</fix>
</trkpt>
<trkpt lat="40.0729402" lon="-105.2308214">
  <ele>1595.56</ele>
  <time>2026-08-28T19:11:37Z</time>
  <course>350.13</course>
  <speed>0.0</speed>
  <fix>3d</fix>
</trkpt>
<trkpt lat="40.07294" lon="-105.2308212">
  <ele>1595.49</ele>
  <time>2026-08-28T19:11:37Z</time>
  <course>110.85</course>
  <speed>0.02</speed>
  <fix>3d</fix>
</trkpt>
<trkpt lat="40.0729402" lon="-105.2308214">
  <ele>1595.56</ele>
  <time>2026-08-28T19:11:37Z</time>
  <course>350.13</course>
  <speed>0.0</speed>
  <fix>3d</fix>
</trkpt>
<trkpt lat="40.07294" lon="-105.2308212">
  <ele>1595.49</ele>
  <time>2026-08-28T19:11:37Z</time>
  <course>110.37</course>
  <speed>0.02</speed>
  <fix>3d</fix>
</trkpt>
<trkpt lat="40.0729401" lon="-105.2308213">
  <ele>1595.57</ele>
  <time>2026-08-28T19:11:37Z</time>
  <course>350.15</course>
  <speed>0.0</speed>
  <fix>3d</fix>
</trkpt>
<trkpt lat="40.07294" lon="-105.2308211">
  <ele>1595.49</ele>
  <time>2026-08-28T19:11:37Z</time>
  <course>109.09</course>
  <speed>0.02</speed>
  <fix>3d</fix>
</trkpt>
<trkpt lat="40.0729401" lon="-105.2308213">
  <ele>1595.57</ele>
  <time>2026-08-28T19:11:37Z</time>
  <course>350.15</course>
  <speed>0.0</speed>
  <fix>3d</fix>
</trkpt>
<trkpt lat="40.0729399" lon="-105.2308211">
  <ele>1595.5</ele>
  <time>2026-08-28T19:11:37Z</time>
  <course>108.33</course>
  <speed>0.02</speed>
  <fix>3d</fix>
</trkpt>
<trkpt lat="40.0729401" lon="-105.2308212">
  <ele>1595.57</ele>
  <time>2026-08-28T19:11:37Z</time>
  <course>350.15</course>
  <speed>0.0</speed>
  <fix>3d</fix>
</trkpt>
<trkpt lat="40.0729399" lon="-105.230821">
  <ele>1595.5</ele>
  <time>2026-08-28T19:11:37Z</time>
  <course>107.5</course>
  <speed>0.02</speed>
  <fix>3d</fix>
</trkpt>
<trkpt lat="40.0729401" lon="-105.2308212">
  <ele>1595.57</ele>
  <time>2026-08-28T19:11:37Z</time>
  <course>350.15</course>
  <speed>0.0</speed>
  <fix>3d</fix>
</trkpt>
<trkpt lat="40.0729399" lon="-105.2308209">
  <ele>1595.5</ele>
  <time>2026-08-28T19:11:37Z</time>
  <course>106.69</course>
  <speed>0.02</speed>
  <fix>3d</fix>
</trkpt>
<trkpt lat="40.0729401" lon="-105.2308211">
  <ele>1595.57</ele>
  <time>2026-08-28T19:11:37Z</time>
  <course>350.15</course>
  <speed>0.0</speed>
  <fix>3d</fix>
</trkpt>
<trkpt lat="40.0729399" lon="-105.2308209">
  <ele>1595.5</ele>
  <time>2026-08-28T19:11:37Z</time>
  <course>105.96</course>
  <speed>0.02</speed>
  <fix>3d</fix>
</trkpt>
<trkpt lat="40.07294" lon="-105.2308211">
  <ele>1595.58</ele>
  <time>2026-08-28T19:11:37Z</time>
  <course>350.15</course>
  <speed>0.0</speed>
  <fix>3d</fix>
</trkpt>
<trkpt lat="40.0729399" lon="-105.2308208">
  <ele>1595.5</ele>
  <time>2026-08-28T19:11:37Z</time>
  <course>105.29</course>
  <speed>0.02</speed>
  <fix>3d</fix>
</trkpt>
<trkpt lat="40.07294" lon="-105.230821">
  <ele>1595.58</ele>
  <time>2026-08-28T19:11:37Z</time>
  <course>350.16</course>
  <speed>0.0</speed>
  <fix>3d</fix>
</trkpt>
<trkpt lat="40.0729399" lon="-105.2308207">
  <ele>1595.5</ele>
  <time>2026-08-28T19:11:37Z</time>
  <course>104.67</course>
  <speed>0.02</speed>
  <fix>3d</fix>
</trkpt>
<trkpt lat="40.07294" lon="-105.2308209">
  <ele>1595.58</ele>
  <time>2026-08-28T19:11:37Z</time>
  <course>350.16</course>
  <speed>0.0</speed>
  <fix>3d</fix>
</trkpt>
<trkpt lat="40.0729399" lon="-105.2308207">
  <ele>1595.5</ele>
  <time>2026-08-28T19:11:37Z</time>
  <course>103.56</course>
  <speed>0.02</speed>
  <fix>3d</fix>
</trkpt>
<trkpt lat="40.07294" lon="-105.2308209">
  <ele>1595.58</ele>
  <time>2026-08-28T19:11:37Z</time>
  <course>350.18</course>
  <speed>0.0</speed>
  <fix>3d</fix>
</trkpt>
<trkpt lat="40.0729399" lon="-105.2308206">
  <ele>1595.5</ele>
  <time>2026-08-28T19:11:37Z</time>
  <course>101.49</course>
  <speed>0.02</speed>
  <fix>3d</fix>
</trkpt>
<trkpt lat="40.07294" lon="-105.2308208">
  <ele>1595.57</ele>
  <time>2026-08-28T19:11:37Z</time>
  <course>350.16</course>
  <speed>0.0</speed>
  <fix>3d</fix>
</trkpt>
<trkpt lat="40.0729399" lon="-105.2308206">
  <ele>1595.5</ele>
  <time>2026-08-28T19:11:37Z</time>
  <course>99.04</course>
  <speed>0.02</speed>
  <fix>3d</fix>
</trkpt>
<trkpt lat="40.07294" lon="-105.2308207">
  <ele>1595.57</ele>
  <time>2026-08-28T19:11:37Z</time>
  <course>350.15</course>
  <speed>0.01</speed>
  <fix>3d</fix>
</trkpt>
<trkpt lat="40.0729399" lon="-105.2308205">
  <ele>1595.5</ele>
  <time>2026-08-28T19:11:37Z</time>
  <course>96.73</course>
  <speed>0.02</speed>
  <fix>3d</fix>
</trkpt>
<trkpt lat="40.07294" lon="-105.2308207">
  <ele>1595.57</ele>
  <time>2026-08-28T19:11:37Z</time>
  <course>350.15</course>
  <speed>0.01</speed>
  <fix>3d</fix>
</trkpt>
<trkpt lat="40.0729399" lon="-105.2308204">
  <ele>1595.49</ele>
  <time>2026-08-28T19:11:37Z</time>
  <course>94.56</course>
  <speed>0.02</speed>
  <fix>3d</fix>
</trkpt>
<trkpt lat="40.07294" lon="-105.2308206">
  <ele>1595.56</ele>
  <time>2026-08-28T19:11:37Z</time>
  <course>350.15</course>
  <speed>0.01</speed>
  <fix>3d</fix>
</trkpt>
<trkpt lat="40.0729399" lon="-105.2308204">
  <ele>1595.49</ele>
  <time>2026-08-28T19:11:37Z</time>
  <course>92.55</course>
  <speed>0.03</speed>
  <fix>3d</fix>
</trkpt>
<trkpt lat="40.07294" lon="-105.2308205">
  <ele>1595.56</ele>
  <time>2026-08-28T19:11:37Z</time>
  <course>350.15</course>
  <speed>0.01</speed>
  <fix>3d</fix>
</trkpt>
<trkpt lat="40.0729399" lon="-105.2308203">
  <ele>1595.49</ele>
  <time>2026-08-28T19:11:37Z</time>
  <course>90.67</course>
  <speed>0.03</speed>
  <fix>3d</fix>
</trkpt>
<trkpt lat="40.07294" lon="-105.2308205">
  <ele>1595.56</ele>
  <time>2026-08-28T19:11:37Z</time>
  <course>349.88</course>
  <speed>0.01</speed>
  <fix>3d</fix>
</trkpt>
<trkpt lat="40.0729399" lon="-105.2308202">
  <ele>1595.49</ele>
  <time>2026-08-28T19:11:37Z</time>
  <course>88.75</course>
  <speed>0.03</speed>
  <fix>3d</fix>
</trkpt>
<trkpt lat="40.07294" lon="-105.2308204">
  <ele>1595.57</ele>
  <time>2026-08-28T19:11:37Z</time>
  <course>348.72</course>
  <speed>0.01414213562373095</speed>
  <fix>3d</fix>
</trkpt>
<trkpt lat="40.0729399" lon="-105.2308201">
  <ele>1595.49</ele>
  <time>2026-08-28T19:11:37Z</time>
  <course>86.58</course>
  <speed>0.03</speed>
  <fix>3d</fix>
</trkpt>
<trkpt lat="40.07294" lon="-105.2308203">
  <ele>1595.57</ele>
  <time>2026-08-28T19:11:37Z</time>
  <course>347.37</course>
  <speed>0.01414213562373095</speed>
  <fix>3d</fix>
</trkpt>
<trkpt lat="40.0729399" lon="-105.23082">
  <ele>1595.5</ele>
  <time>2026-08-28T19:11:37Z</time>
  <course>85.37</course>
  <speed>0.03</speed>
  <fix>3d</fix>
</trkpt>
<trkpt lat="40.07294" lon="-105.2308202">
  <ele>1595.57</ele>
  <time>2026-08-28T19:11:37Z</time>
  <course>346.26</course>
  <speed>0.01</speed>
  <fix>3d</fix>
</trkpt>
<trkpt lat="40.0729399" lon="-105.23082">
  <ele>1595.5</ele>
  <time>2026-08-28T19:11:37Z</time>
  <course>86.06</course>
  <speed>0.03</speed>
  <fix>3d</fix>
</trkpt>
<trkpt lat="40.07294" lon="-105.2308201">
  <ele>1595.57</ele>
  <time>2026-08-28T19:11:37Z</time>
  <course>345.53</course>
  <speed>0.01</speed>
  <fix>3d</fix>
</trkpt>
<trkpt lat="40.0729399" lon="-105.2308199">
  <ele>1595.5</ele>
  <time>2026-08-28T19:11:37Z</time>
  <course>88.76</course>
  <speed>0.03</speed>
  <fix>3d</fix>
</trkpt>
<trkpt lat="40.07294" lon="-105.2308201">
  <ele>1595.56</ele>
  <time>2026-08-28T19:11:37Z</time>
  <course>345.24</course>
  <speed>0.0</speed>
  <fix>3d</fix>
</trkpt>
<trkpt lat="40.0729399" lon="-105.2308198">
  <ele>1595.5</ele>
  <time>2026-08-28T19:11:37Z</time>
  <course>93.63</course>
  <speed>0.02</speed>
  <fix>3d</fix>
</trkpt>
<trkpt lat="40.07294" lon="-105.23082">
  <ele>1595.56</ele>
  <time>2026-08-28T19:11:37Z</time>
  <course>345.41</course>
  <speed>0.0</speed>
  <fix>3d</fix>
</trkpt>
<trkpt lat="40.0729399" lon="-105.2308197">
  <ele>1595.5</ele>
  <time>2026-08-28T19:11:37Z</time>
  <course>100.17</course>
  <speed>0.02</speed>
  <fix>3d</fix>
</trkpt>
<trkpt lat="40.07294" lon="-105.2308199">
  <ele>1595.56</ele>
  <time>2026-08-28T19:11:37Z</time>
  <course>346.05</course>
  <speed>0.0</speed>
  <fix>3d</fix>
</trkpt>
<trkpt lat="40.0729399" lon="-105.2308197">
  <ele>1595.5</ele>
  <time>2026-08-28T19:11:37Z</time>
  <course>107.67</course>
  <speed>0.02</speed>
  <fix>3d</fix>
</trkpt>
<trkpt lat="40.07294" lon="-105.2308199">
  <ele>1595.57</ele>
  <time>2026-08-28T19:11:37Z</time>
  <course>347.12</course>
  <speed>0.0</speed>
  <fix>3d</fix>
</trkpt>
<trkpt lat="40.0729399" lon="-105.2308197">
  <ele>1595.5</ele>
  <time>2026-08-28T19:11:37Z</time>
  <course>115.15</course>
  <speed>0.02</speed>
  <fix>3d</fix>
</trkpt>
<trkpt lat="40.07294" lon="-105.2308199">
  <ele>1595.57</ele>
  <time>2026-08-28T19:11:37Z</time>
  <course>348.48</course>
  <speed>0.0</speed>
  <fix>3d</fix>
</trkpt>
<trkpt lat="40.0729399" lon="-105.2308196">
  <ele>1595.5</ele>
  <time>2026-08-28T19:11:37Z</time>
  <course>120.91</course>
  <speed>0.02</speed>
  <fix>3d</fix>
</trkpt>
<trkpt lat="40.07294" lon="-105.2308198">
  <ele>1595.57</ele>
  <time>2026-08-28T19:11:37Z</time>
  <course>349.99</course>
  <speed>0.0</speed>
  <fix>3d</fix>
</trkpt>
<trkpt lat="40.0729399" lon="-105.2308195">
  <ele>1595.5</ele>
  <time>2026-08-28T19:11:37Z</time>
  <course>124.49</course>
  <speed>0.02</speed>
  <fix>3d</fix>
</trkpt>
<trkpt lat="40.0729399" lon="-105.2308197">
  <ele>1595.57</ele>
  <time>2026-08-28T19:11:37Z</time>
  <course>351.48</course>
  <speed>0.0</speed>
  <fix>3d</fix>
</trkpt>
<trkpt lat="40.0729398" lon="-105.2308195">
  <ele>1595.5</ele>
  <time>2026-08-28T19:11:37Z</time>
  <course>125.91</course>
  <speed>0.02</speed>
  <fix>3d</fix>
</trkpt>
<trkpt lat="40.0729399" lon="-105.2308197">
  <ele>1595.57</ele>
  <time>2026-08-28T19:11:37Z</time>
  <course>352.87</course>
  <speed>0.0</speed>
  <fix>3d</fix>
</trkpt>
<trkpt lat="40.0729398" lon="-105.2308195">
  <ele>1595.51</ele>
  <time>2026-08-28T19:11:37Z</time>
  <course>126.47</course>
  <speed>0.02</speed>
  <fix>3d</fix>
</trkpt>
<trkpt lat="40.0729399" lon="-105.2308197">
  <ele>1595.57</ele>
  <time>2026-08-28T19:11:37Z</time>
  <course>354.02</course>
  <speed>0.0</speed>
  <fix>3d</fix>
</trkpt>
<trkpt lat="40.0729398" lon="-105.2308194">
  <ele>1595.51</ele>
  <time>2026-08-28T19:11:37Z</time>
  <course>126.31</course>
  <speed>0.02</speed>
  <fix>3d</fix>
</trkpt>
<trkpt lat="40.0729399" lon="-105.2308196">
  <ele>1595.57</ele>
  <time>2026-08-28T19:11:37Z</time>
  <course>354.77</course>
  <speed>0.0</speed>
  <fix>3d</fix>
</trkpt>
<trkpt lat="40.0729397" lon="-105.2308194">
  <ele>1595.51</ele>
  <time>2026-08-28T19:11:37Z</time>
  <course>124.61</course>
  <speed>0.02</speed>
  <fix>3d</fix>
</trkpt>
<trkpt lat="40.0729398" lon="-105.2308195">
  <ele>1595.57</ele>
  <time>2026-08-28T19:11:37Z</time>
  <course>355.07</course>
  <speed>0.0</speed>
  <fix>3d</fix>
</trkpt>
<trkpt lat="40.0729397" lon="-105.2308193">
  <ele>1595.51</ele>
  <time>2026-08-28T19:11:37Z</time>
  <course>121.59</course>
  <speed>0.03</speed>
  <fix>3d</fix>
</trkpt>
<trkpt lat="40.0729398" lon="-105.2308195">
  <ele>1595.57</ele>
  <time>2026-08-28T19:11:37Z</time>
  <course>354.86</course>
  <speed>0.0</speed>
  <fix>3d</fix>
</trkpt>
<trkpt lat="40.0729397" lon="-105.2308192">
  <ele>1595.51</ele>
  <time>2026-08-28T19:11:37Z</time>
  <course>117.73</course>
  <speed>0.03</speed>
  <fix>3d</fix>
</trkpt>
<trkpt lat="40.0729398" lon="-105.2308194">
  <ele>1595.57</ele>
  <time>2026-08-28T19:11:37Z</time>
  <course>354.18</course>
  <speed>0.0</speed>
  <fix>3d</fix>
</trkpt>
<trkpt lat="40.0729397" lon="-105.2308192">
  <ele>1595.51</ele>
  <time>2026-08-28T19:11:37Z</time>
  <course>113.61</course>
  <speed>0.03</speed>
  <fix>3d</fix>
</trkpt>
<trkpt lat="40.0729398" lon="-105.2308193">
  <ele>1595.57</ele>
  <time>2026-08-28T19:11:37Z</time>
  <course>353.15</course>
  <speed>0.01</speed>
  <fix>3d</fix>
</trkpt>
<trkpt lat="40.0729396" lon="-105.2308191">
  <ele>1595.51</ele>
  <time>2026-08-28T19:11:37Z</time>
  <course>109.96</course>
  <speed>0.03</speed>
  <fix>3d</fix>
</trkpt>
<trkpt lat="40.0729398" lon="-105.2308193">
  <ele>1595.57</ele>
  <time>2026-08-28T19:11:37Z</time>
  <course>351.8</course>
  <speed>0.01</speed>
  <fix>3d</fix>
</trkpt>
<trkpt lat="40.0729396" lon="-105.230819">
  <ele>1595.51</ele>
  <time>2026-08-28T19:11:37Z</time>
  <course>107.39</course>
  <speed>0.03</speed>
  <fix>3d</fix>
</trkpt>
<trkpt lat="40.0729397" lon="-105.2308192">
  <ele>1595.57</ele>
  <time>2026-08-28T19:11:37Z</time>
  <course>350.31</course>
  <speed>0.01</speed>
  <fix>3d</fix>
</trkpt>
<trkpt lat="40.0729396" lon="-105.2308189">
  <ele>1595.51</ele>
  <time>2026-08-28T19:11:37Z</time>
  <course>105.55</course>
  <speed>0.03</speed>
  <fix>3d</fix>
</trkpt>
<trkpt lat="40.0729397" lon="-105.2308191">
  <ele>1595.58</ele>
  <time>2026-08-28T19:11:37Z</time>
  <course>348.8</course>
  <speed>0.0</speed>
  <fix>3d</fix>
</trkpt>
<trkpt lat="40.0729396" lon="-105.2308188">
  <ele>1595.51</ele>
  <time>2026-08-28T19:11:37Z</time>
  <course>104.39</course>
  <speed>0.03</speed>
  <fix>3d</fix>
</trkpt>
<trkpt lat="40.0729397" lon="-105.230819">
  <ele>1595.58</ele>
  <time>2026-08-28T19:11:37Z</time>
  <course>347.42</course>
  <speed>0.0</speed>
  <fix>3d</fix>
</trkpt>
<trkpt lat="40.0729396" lon="-105.2308188">
  <ele>1595.51</ele>
  <time>2026-08-28T19:11:37Z</time>
  <course>104.42</course>
  <speed>0.03</speed>
  <fix>3d</fix>
</trkpt>
<trkpt lat="40.0729397" lon="-105.230819">
  <ele>1595.58</ele>
  <time>2026-08-28T19:11:37Z</time>
  <course>346.28</course>
  <speed>0.0</speed>
  <fix>3d</fix>
</trkpt>
<trkpt lat="40.0729396" lon="-105.2308187">
  <ele>1595.51</ele>
  <time>2026-08-28T19:11:37Z</time>
  <course>105.92</course>
  <speed>0.02</speed>
  <fix>3d</fix>
</trkpt>
<trkpt lat="40.0729397" lon="-105.2308189">
  <ele>1595.59</ele>
  <time>2026-08-28T19:11:37Z</time>
  <course>345.56</course>
  <speed>0.0</speed>
  <fix>3d</fix>
</trkpt>
<trkpt lat="40.0729395" lon="-105.2308187">
  <ele>1595.51</ele>
  <time>2026-08-28T19:11:37Z</time>
  <course>108.49</course>
  <speed>0.02</speed>
  <fix>3d</fix>
</trkpt>
<trkpt lat="40.0729397" lon="-105.2308188">
  <ele>1595.59</ele>
  <time>2026-08-28T19:11:37Z</time>
  <course>345.28</course>
  <speed>0.0</speed>
  <fix>3d</fix>
</trkpt>
<trkpt lat="40.0729394" lon="-105.2308186">
  <ele>1595.51</ele>
  <time>2026-08-28T19:11:37Z</time>
  <course>111.92</course>
  <speed>0.02</speed>
  <fix>3d</fix>
</trkpt>
<trkpt lat="40.0729396" lon="-105.2308188">
  <ele>1595.59</ele>
  <time>2026-08-28T19:11:37Z</time>
  <course>345.49</course>
  <speed>0.0</speed>
  <fix>3d</fix>
</trkpt>
<trkpt lat="40.0729394" lon="-105.2308185">
  <ele>1595.5</ele>
  <time>2026-08-28T19:11:37Z</time>
  <course>115.58</course>
  <speed>0.02</speed>
  <fix>3d</fix>
</trkpt>
<trkpt lat="40.0729396" lon="-105.2308188">
  <ele>1595.59</ele>
  <time>2026-08-28T19:11:37Z</time>
  <course>346.13</course>
  <speed>0.0</speed>
  <fix>3d</fix>
</trkpt>
<trkpt lat="40.0729394" lon="-105.2308185">
  <ele>1595.5</ele>
  <time>2026-08-28T19:11:37Z</time>
  <course>119.54</course>
  <speed>0.02</speed>
  <fix>3d</fix>
</trkpt>
<trkpt lat="40.0729396" lon="-105.2308187">
  <ele>1595.58</ele>
  <time>2026-08-28T19:11:37Z</time>
  <course>347.18</course>
  <speed>0.0</speed>
  <fix>3d</fix>
</trkpt>
<trkpt lat="40.0729394" lon="-105.2308185">
  <ele>1595.5</ele>
  <time>2026-08-28T19:11:37Z</time>
  <course>123.8</course>
  <speed>0.02</speed>
  <fix>3d</fix>
</trkpt>
<trkpt lat="40.0729396" lon="-105.2308187">
  <ele>1595.58</ele>
  <time>2026-08-28T19:11:37Z</time>
  <course>348.51</course>
  <speed>0.0</speed>
  <fix>3d</fix>
</trkpt>
<trkpt lat="40.0729394" lon="-105.2308184">
  <ele>1595.49</ele>
  <time>2026-08-28T19:11:37Z</time>
  <course>126.18</course>
  <speed>0.02</speed>
  <fix>3d</fix>
</trkpt>
<trkpt lat="40.0729395" lon="-105.2308186">
  <ele>1595.57</ele>
  <time>2026-08-28T19:11:37Z</time>
  <course>350.0</course>
  <speed>0.0</speed>
  <fix>3d</fix>
</trkpt>
<trkpt lat="40.0729394" lon="-105.2308183">
  <ele>1595.49</ele>
  <time>2026-08-28T19:11:37Z</time>
  <course>125.97</course>
  <speed>0.02</speed>
  <fix>3d</fix>
</trkpt>
<trkpt lat="40.0729395" lon="-105.2308186">
  <ele>1595.56</ele>
  <time>2026-08-28T19:11:37Z</time>
  <course>351.52</course>
  <speed>0.0</speed>
  <fix>3d</fix>
</trkpt>
<trkpt lat="40.0729393" lon="-105.2308183">
  <ele>1595.48</ele>
  <time>2026-08-28T19:11:37Z</time>
  <course>124.56</course>
  <speed>0.02</speed>
  <fix>3d</fix>
</trkpt>
<trkpt lat="40.0729395" lon="-105.2308185">
  <ele>1595.56</ele>
  <time>2026-08-28T19:11:37Z</time>
  <course>352.89</course>
  <speed>0.0</speed>
  <fix>3d</fix>
</trkpt>
<trkpt lat="40.0729393" lon="-105.2308183">
  <ele>1595.48</ele>
  <time>2026-08-28T19:11:37Z</time>
  <course>122.55</course>
  <speed>0.02</speed>
  <fix>3d</fix>
</trkpt>
<trkpt lat="40.0729394" lon="-105.2308185">
  <ele>1595.55</ele>
  <time>2026-08-28T19:11:37Z</time>
  <course>353.98</course>
  <speed>0.0</speed>
  <fix>3d</fix>
</trkpt>
<trkpt lat="40.0729393" lon="-105.2308182">
  <ele>1595.48</ele>
  <time>2026-08-28T19:11:37Z</time>
  <course>119.67</course>
  <speed>0.02</speed>
  <fix>3d</fix>
</trkpt>
<trkpt lat="40.0729394" lon="-105.2308184">
  <ele>1595.55</ele>
  <time>2026-08-28T19:11:38Z</time>
  <course>354.74</course>
  <speed>0.0</speed>
  <fix>3d</fix>
</trkpt>
<trkpt lat="40.0729393" lon="-105.2308182">
  <ele>1595.48</ele>
  <time>2026-08-28T19:11:38Z</time>
  <course>116.43</course>
  <speed>0.02</speed>
  <fix>3d</fix>
</trkpt>
<trkpt lat="40.0729394" lon="-105.2308183">
  <ele>1595.55</ele>
  <time>2026-08-28T19:11:38Z</time>
  <course>355.02</course>
  <speed>0.0</speed>
  <fix>3d</fix>
</trkpt>
<trkpt lat="40.0729393" lon="-105.2308181">
  <ele>1595.48</ele>
  <time>2026-08-28T19:11:38Z</time>
  <course>113.96</course>
  <speed>0.03</speed>
  <fix>3d</fix>
</trkpt>
<trkpt lat="40.0729394" lon="-105.2308183">
  <ele>1595.55</ele>
  <time>2026-08-28T19:11:38Z</time>
  <course>354.81</course>
  <speed>0.0</speed>
  <fix>3d</fix>
</trkpt>
<trkpt lat="40.0729393" lon="-105.230818">
  <ele>1595.49</ele>
  <time>2026-08-28T19:11:38Z</time>
  <course>111.67</course>
  <speed>0.03</speed>
  <fix>3d</fix>
</trkpt>
<trkpt lat="40.0729394" lon="-105.2308182">
  <ele>1595.56</ele>
  <time>2026-08-28T19:11:38Z</time>
  <course>354.19</course>
  <speed>0.01</speed>
  <fix>3d</fix>
</trkpt>
<trkpt lat="40.0729393" lon="-105.230818">
  <ele>1595.49</ele>
  <time>2026-08-28T19:11:38Z</time>
  <course>108.48</course>
  <speed>0.03</speed>
  <fix>3d</fix>
</trkpt>
<trkpt lat="40.0729394" lon="-105.2308181">
  <ele>1595.57</ele>
  <time>2026-08-28T19:11:38Z</time>
  <course>353.13</course>
  <speed>0.01</speed>
  <fix>3d</fix>
</trkpt>
<trkpt lat="40.0729393" lon="-105.2308179">
  <ele>1595.49</ele>
  <time>2026-08-28T19:11:38Z</time>
  <course>105.3</course>
  <speed>0.03</speed>
  <fix>3d</fix>
</trkpt>
<trkpt lat="40.0729394" lon="-105.230818">
  <ele>1595.58</ele>
  <time>2026-08-28T19:11:38Z</time>
  <course>351.83</course>
  <speed>0.01</speed>
  <fix>3d</fix>
</trkpt>
<trkpt lat="40.0729392" lon="-105.2308178">
  <ele>1595.5</ele>
  <time>2026-08-28T19:11:38Z</time>
  <course>103.0</course>
  <speed>0.03</speed>
  <fix>3d</fix>
</trkpt>
<trkpt lat="40.0729393" lon="-105.230818">
  <ele>1595.58</ele>
  <time>2026-08-28T19:11:38Z</time>
  <course>350.36</course>
  <speed>0.0</speed>
  <fix>3d</fix>
</trkpt>
<trkpt lat="40.0729392" lon="-105.2308177">
  <ele>1595.5</ele>
  <time>2026-08-28T19:11:38Z</time>
  <course>101.54</course>
  <speed>0.03</speed>
  <fix>3d</fix>
</trkpt>
<trkpt lat="40.0729393" lon="-105.2308179">
  <ele>1595.58</ele>
  <time>2026-08-28T19:11:38Z</time>
  <course>348.84</course>
  <speed>0.0</speed>
  <fix>3d</fix>
</trkpt>
<trkpt lat="40.0729392" lon="-105.2308176">
  <ele>1595.5</ele>
  <time>2026-08-28T19:11:38Z</time>
  <course>101.25</course>
  <speed>0.03</speed>
  <fix>3d</fix>
</trkpt>
<trkpt lat="40.0729393" lon="-105.2308178">
  <ele>1595.57</ele>
  <time>2026-08-28T19:11:38Z</time>
  <course>347.44</course>
  <speed>0.0</speed>
  <fix>3d</fix>
</trkpt>
<trkpt lat="40.0729392" lon="-105.2308176">
  <ele>1595.5</ele>
  <time>2026-08-28T19:11:38Z</time>
  <course>102.2</course>
  <speed>0.03</speed>
  <fix>3d</fix>
</trkpt>
<trkpt lat="40.0729393" lon="-105.2308177">
  <ele>1595.57</ele>
  <time>2026-08-28T19:11:38Z</time>
  <course>346.29</course>
  <speed>0.0</speed>
  <fix>3d</fix>
</trkpt>
<trkpt lat="40.0729392" lon="-105.2308175">
  <ele>1595.5</ele>
  <time>2026-08-28T19:11:38Z</time>
  <course>103.68</course>
  <speed>0.02</speed>
  <fix>3d</fix>
</trkpt>
<trkpt lat="40.0729393" lon="-105.2308177">
  <ele>1595.57</ele>
  <time>2026-08-28T19:11:38Z</time>
  <course>345.53</course>
  <speed>0.0</speed>
  <fix>3d</fix>
</trkpt>
<trkpt lat="40.0729392" lon="-105.2308175">
  <ele>1595.49</ele>
  <time>2026-08-28T19:11:38Z</time>
  <course>105.79</course>
  <speed>0.02</speed>
  <fix>3d</fix>
</trkpt>
<trkpt lat="40.0729393" lon="-105.2308176">
  <ele>1595.57</ele>
  <time>2026-08-28T19:11:38Z</time>
  <course>345.23</course>
  <speed>0.0</speed>
  <fix>3d</fix>
</trkpt>
<trkpt lat="40.0729392" lon="-105.2308174">
  <ele>1595.49</ele>
  <time>2026-08-28T19:11:38Z</time>
  <course>109.56</course>
  <speed>0.02</speed>
  <fix>3d</fix>
</trkpt>
<trkpt lat="40.0729393" lon="-105.2308176">
  <ele>1595.57</ele>
  <time>2026-08-28T19:11:38Z</time>
  <course>345.42</course>
  <speed>0.0</speed>
  <fix>3d</fix>
</trkpt>
<trkpt lat="40.0729391" lon="-105.2308173">
  <ele>1595.49</ele>
  <time>2026-08-28T19:11:38Z</time>
  <course>114.74</course>
  <speed>0.02</speed>
  <fix>3d</fix>
</trkpt>
<trkpt lat="40.0729393" lon="-105.2308175">
  <ele>1595.57</ele>
  <time>2026-08-28T19:11:38Z</time>
  <course>346.06</course>
  <speed>0.0</speed>
  <fix>3d</fix>
</trkpt>
<trkpt lat="40.0729391" lon="-105.2308173">
  <ele>1595.49</ele>
  <time>2026-08-28T19:11:38Z</time>
  <course>119.72</course>
  <speed>0.02</speed>
  <fix>3d</fix>
</trkpt>
<trkpt lat="40.0729392" lon="-105.2308175">
  <ele>1595.57</ele>
  <time>2026-08-28T19:11:38Z</time>
  <course>347.15</course>
  <speed>0.0</speed>
  <fix>3d</fix>
</trkpt>
<trkpt lat="40.0729391" lon="-105.2308173">
  <ele>1595.49</ele>
  <time>2026-08-28T19:11:38Z</time>
  <course>123.47</course>
  <speed>0.02</speed>
  <fix>3d</fix>
</trkpt>
<trkpt lat="40.0729392" lon="-105.2308174">
  <ele>1595.57</ele>
  <time>2026-08-28T19:11:38Z</time>
  <course>348.5</course>
  <speed>0.0</speed>
  <fix>3d</fix>
</trkpt>
<trkpt lat="40.0729391" lon="-105.2308172">
  <ele>1595.49</ele>
  <time>2026-08-28T19:11:38Z</time>
  <course>126.59</course>
  <speed>0.02</speed>
  <fix>3d</fix>
</trkpt>
<trkpt lat="40.0729392" lon="-105.2308174">
  <ele>1595.57</ele>
  <time>2026-08-28T19:11:38Z</time>
  <course>350.0</course>
  <speed>0.0</speed>
  <fix>3d</fix>
</trkpt>
<trkpt lat="40.072939" lon="-105.2308171">
  <ele>1595.49</ele>
  <time>2026-08-28T19:11:38Z</time>
  <course>128.83</course>
  <speed>0.02</speed>
  <fix>3d</fix>
</trkpt>
<trkpt lat="40.0729392" lon="-105.2308174">
  <ele>1595.57</ele>
  <time>2026-08-28T19:11:38Z</time>
  <course>351.51</course>
  <speed>0.0</speed>
  <fix>3d</fix>
</trkpt>
<trkpt lat="40.072939" lon="-105.2308171">
  <ele>1595.49</ele>
  <time>2026-08-28T19:11:38Z</time>
  <course>129.51</course>
  <speed>0.02</speed>
  <fix>3d</fix>
</trkpt>
<trkpt lat="40.0729391" lon="-105.2308173">
  <ele>1595.57</ele>
  <time>2026-08-28T19:11:38Z</time>
  <course>352.9</course>
  <speed>0.0</speed>
  <fix>3d</fix>
</trkpt>
<trkpt lat="40.072939" lon="-105.2308171">
  <ele>1595.49</ele>
  <time>2026-08-28T19:11:38Z</time>
  <course>128.98</course>
  <speed>0.02</speed>
  <fix>3d</fix>
</trkpt>
<trkpt lat="40.0729391" lon="-105.2308173">
  <ele>1595.57</ele>
  <time>2026-08-28T19:11:38Z</time>
  <course>354.02</course>
  <speed>0.0</speed>
  <fix>3d</fix>
</trkpt>
<trkpt lat="40.072939" lon="-105.230817">
  <ele>1595.49</ele>
  <time>2026-08-28T19:11:38Z</time>
  <course>127.23</course>
  <speed>0.02</speed>
  <fix>3d</fix>
</trkpt>
<trkpt lat="40.0729391" lon="-105.2308172">
  <ele>1595.57</ele>
  <time>2026-08-28T19:11:38Z</time>
  <course>354.79</course>
  <speed>0.0</speed>
  <fix>3d</fix>
</trkpt>
<trkpt lat="40.0729389" lon="-105.230817">
  <ele>1595.49</ele>
  <time>2026-08-28T19:11:38Z</time>
  <course>124.11</course>
  <speed>0.02</speed>
  <fix>3d</fix>
</trkpt>
<trkpt lat="40.072939" lon="-105.2308171">
  <ele>1595.56</ele>
  <time>2026-08-28T19:11:38Z</time>
  <course>355.07</course>
  <speed>0.0</speed>
  <fix>3d</fix>
</trkpt>
<trkpt lat="40.0729388" lon="-105.2308169">
  <ele>1595.49</ele>
  <time>2026-08-28T19:11:38Z</time>
  <course>118.95</course>
  <speed>0.02</speed>
  <fix>3d</fix>
</trkpt>
<trkpt lat="40.072939" lon="-105.2308171">
  <ele>1595.56</ele>
  <time>2026-08-28T19:11:38Z</time>
  <course>354.88</course>
  <speed>0.0</speed>
  <fix>3d</fix>
</trkpt>
<trkpt lat="40.0729388" lon="-105.2308168">
  <ele>1595.49</ele>
  <time>2026-08-28T19:11:38Z</time>
  <course>112.78</course>
  <speed>0.03</speed>
  <fix>3d</fix>
</trkpt>
<trkpt lat="40.072939" lon="-105.230817">
  <ele>1595.56</ele>
  <time>2026-08-28T19:11:38Z</time>
  <course>354.19</course>
  <speed>0.01</speed>
  <fix>3d</fix>
</trkpt>
<trkpt lat="40.0729388" lon="-105.2308168">
  <ele>1595.49</ele>
  <time>2026-08-28T19:11:38Z</time>
  <course>107.67</course>
  <speed>0.03</speed>
  <fix>3d</fix>
</trkpt>
<trkpt lat="40.072939" lon="-105.2308169">
  <ele>1595.56</ele>
  <time>2026-08-28T19:11:38Z</time>
  <course>353.13</course>
  <speed>0.01</speed>
  <fix>3d</fix>
</trkpt>
<trkpt lat="40.0729388" lon="-105.2308167">
  <ele>1595.49</ele>
  <time>2026-08-28T19:11:38Z</time>
  <course>103.99</course>
  <speed>0.03</speed>
  <fix>3d</fix>
</trkpt>
<trkpt lat="40.072939" lon="-105.2308168">
  <ele>1595.56</ele>
  <time>2026-08-28T19:11:38Z</time>
  <course>351.79</course>
  <speed>0.01</speed>
  <fix>3d</fix>
</trkpt>
<trkpt lat="40.0729388" lon="-105.2308166">
  <ele>1595.49</ele>
  <time>2026-08-28T19:11:38Z</time>
  <course>101.29</course>
  <speed>0.03</speed>
  <fix>3d</fix>
</trkpt>
<trkpt lat="40.0729389" lon="-105.2308168">
  <ele>1595.56</ele>
  <time>2026-08-28T19:11:38Z</time>
  <course>350.28</course>
  <speed>0.01</speed>
  <fix>3d</fix>
</trkpt>
<trkpt lat="40.0729387" lon="-105.2308165">
  <ele>1595.49</ele>
  <time>2026-08-28T19:11:38Z</time>
  <course>99.38</course>
  <speed>0.03</speed>
  <fix>3d</fix>
</trkpt>
<trkpt lat="40.0729389" lon="-105.2308167">
  <ele>1595.56</ele>
  <time>2026-08-28T19:11:38Z</time>
  <course>348.77</course>
  <speed>0.01</speed>
  <fix>3d</fix>
</trkpt>
<trkpt lat="40.0729387" lon="-105.2308164">
  <ele>1595.5</ele>
  <time>2026-08-28T19:11:38Z</time>
  <course>98.23</course>
  <speed>0.03</speed>
  <fix>3d</fix>
</trkpt>
<trkpt lat="40.0729389" lon="-105.2308166">
  <ele>1595.57</ele>
  <time>2026-08-28T19:11:38Z</time>
  <course>347.38</course>
  <speed>0.0</speed>
  <fix>3d</fix>
</trkpt>
<trkpt lat="40.0729387" lon="-105.2308164">
  <ele>1595.5</ele>
  <time>2026-08-28T19:11:38Z</time>
  <course>97.53</course>
  <speed>0.03</speed>
  <fix>3d</fix>
</trkpt>
<trkpt lat="40.0729389" lon="-105.2308165">
  <ele>1595.57</ele>
  <time>2026-08-28T19:11:38Z</time>
  <course>346.27</course>
  <speed>0.0</speed>
  <fix>3d</fix>
</trkpt>
<trkpt lat="40.0729387" lon="-105.2308163">
  <ele>1595.5</ele>
  <time>2026-08-28T19:11:38Z</time>
  <course>97.42</course>
  <speed>0.03</speed>
  <fix>3d</fix>
</trkpt>
<trkpt lat="40.0729389" lon="-105.2308165">
  <ele>1595.57</ele>
  <time>2026-08-28T19:11:38Z</time>
  <course>345.53</course>
  <speed>0.0</speed>
  <fix>3d</fix>
</trkpt>
<trkpt lat="40.0729387" lon="-105.2308163">
  <ele>1595.5</ele>
  <time>2026-08-28T19:11:38Z</time>
  <course>98.65</course>
  <speed>0.02</speed>
  <fix>3d</fix>
</trkpt>
<trkpt lat="40.0729389" lon="-105.2308164">
  <ele>1595.57</ele>
  <time>2026-08-28T19:11:38Z</time>
  <course>345.24</course>
  <speed>0.0</speed>
  <fix>3d</fix>
</trkpt>
<trkpt lat="40.0729387" lon="-105.2308162">
  <ele>1595.5</ele>
  <time>2026-08-28T19:11:38Z</time>
  <course>101.53</course>
  <speed>0.02</speed>
  <fix>3d</fix>
</trkpt>
<trkpt lat="40.0729388" lon="-105.2308164">
  <ele>1595.57</ele>
  <time>2026-08-28T19:11:38Z</time>
  <course>345.42</course>
  <speed>0.0</speed>
  <fix>3d</fix>
</trkpt>
<trkpt lat="40.0729387" lon="-105.2308161">
  <ele>1595.5</ele>
  <time>2026-08-28T19:11:38Z</time>
  <course>105.9</course>
  <speed>0.02</speed>
  <fix>3d</fix>
</trkpt>
<trkpt lat="40.0729388" lon="-105.2308163">
  <ele>1595.57</ele>
  <time>2026-08-28T19:11:38Z</time>
  <course>346.05</course>
  <speed>0.0</speed>
  <fix>3d</fix>
</trkpt>
<trkpt lat="40.0729387" lon="-105.2308161">
  <ele>1595.5</ele>
  <time>2026-08-28T19:11:38Z</time>
  <course>110.43</course>
  <speed>0.02</speed>
  <fix>3d</fix>
</trkpt>
<trkpt lat="40.0729388" lon="-105.2308163">
  <ele>1595.57</ele>
  <time>2026-08-28T19:11:38Z</time>
  <course>347.13</course>
  <speed>0.0</speed>
  <fix>3d</fix>
</trkpt>
<trkpt lat="40.0729387" lon="-105.2308161">
  <ele>1595.5</ele>
  <time>2026-08-28T19:11:38Z</time>
  <course>114.66</course>
  <speed>0.02</speed>
  <fix>3d</fix>
</trkpt>
<trkpt lat="40.0729388" lon="-105.2308163">
  <ele>1595.57</ele>
  <time>2026-08-28T19:11:38Z</time>
  <course>348.48</course>
  <speed>0.0</speed>
  <fix>3d</fix>
</trkpt>
<trkpt lat="40.0729387" lon="-105.230816">
  <ele>1595.51</ele>
  <time>2026-08-28T19:11:38Z</time>
  <course>118.93</course>
  <speed>0.02</speed>
  <fix>3d</fix>
</trkpt>
<trkpt lat="40.0729388" lon="-105.2308162">
  <ele>1595.58</ele>
  <time>2026-08-28T19:11:38Z</time>
  <course>350.01</course>
  <speed>0.0</speed>
  <fix>3d</fix>
</trkpt>
<trkpt lat="40.0729387" lon="-105.2308159">
  <ele>1595.51</ele>
  <time>2026-08-28T19:11:38Z</time>
  <course>122.18</course>
  <speed>0.02</speed>
  <fix>3d</fix>
</trkpt>
<trkpt lat="40.0729388" lon="-105.2308162">
  <ele>1595.57</ele>
  <time>2026-08-28T19:11:38Z</time>
  <course>351.52</course>
  <speed>0.0</speed>
  <fix>3d</fix>
</trkpt>
<trkpt lat="40.0729387" lon="-105.2308159">
  <ele>1595.51</ele>
  <time>2026-08-28T19:11:38Z</time>
  <course>124.17</course>
  <speed>0.02</speed>
  <fix>3d</fix>
</trkpt>
<trkpt lat="40.0729387" lon="-105.2308161">
  <ele>1595.57</ele>
  <time>2026-08-28T19:11:38Z</time>
  <course>352.92</course>
  <speed>0.0</speed>
  <fix>3d</fix>
</trkpt>
<trkpt lat="40.0729387" lon="-105.2308159">
  <ele>1595.51</ele>
  <time>2026-08-28T19:11:38Z</time>
  <course>124.95</course>
  <speed>0.02</speed>
  <fix>3d</fix>
</trkpt>
<trkpt lat="40.0729387" lon="-105.2308161">
  <ele>1595.57</ele>
  <time>2026-08-28T19:11:38Z</time>
  <course>354.04</course>
  <speed>0.0</speed>
  <fix>3d</fix>
</trkpt>
<trkpt lat="40.0729386" lon="-105.2308158">
  <ele>1595.5</ele>
  <time>2026-08-28T19:11:38Z</time>
  <course>124.04</course>
  <speed>0.02</speed>
  <fix>3d</fix>
</trkpt>
<trkpt lat="40.0729387" lon="-105.230816">
  <ele>1595.57</ele>
  <time>2026-08-28T19:11:38Z</time>
  <course>354.78</course>
  <speed>0.0</speed>
  <fix>3d</fix>
</trkpt>
<trkpt lat="40.0729386" lon="-105.2308158">
  <ele>1595.5</ele>
  <time>2026-08-28T19:11:38Z</time>
  <course>120.94</course>
  <speed>0.02</speed>
  <fix>3d</fix>
</trkpt>
<trkpt lat="40.0729387" lon="-105.230816">
  <ele>1595.58</ele>
  <time>2026-08-28T19:11:38Z</time>
  <course>355.08</course>
  <speed>0.0</speed>
  <fix>3d</fix>
</trkpt>
<trkpt lat="40.0729386" lon="-105.2308157">
  <ele>1595.5</ele>
  <time>2026-08-28T19:11:38Z</time>
  <course>116.71</course>
  <speed>0.02</speed>
  <fix>3d</fix>
</trkpt>
<trkpt lat="40.0729387" lon="-105.2308159">
  <ele>1595.58</ele>
  <time>2026-08-28T19:11:38Z</time>
  <course>354.9</course>
  <speed>0.0</speed>
  <fix>3d</fix>
</trkpt>
<trkpt lat="40.0729386" lon="-105.2308156">
  <ele>1595.5</ele>
  <time>2026-08-28T19:11:38Z</time>
  <course>112.87</course>
  <speed>0.03</speed>
  <fix>3d</fix>
</trkpt>
<trkpt lat="40.0729387" lon="-105.2308158">
  <ele>1595.58</ele>
  <time>2026-08-28T19:11:38Z</time>
  <course>354.27</course>
  <speed>0.01</speed>
  <fix>3d</fix>
</trkpt>
<trkpt lat="40.0729386" lon="-105.2308156">
  <ele>1595.5</ele>
  <time>2026-08-28T19:11:38Z</time>
  <course>109.38</course>
  <speed>0.03</speed>
  <fix>3d</fix>
</trkpt>
<trkpt lat="40.0729387" lon="-105.2308157">
  <ele>1595.57</ele>
  <time>2026-08-28T19:11:38Z</time>
  <course>353.2</course>
  <speed>0.01</speed>
  <fix>3d</fix>
</trkpt>
<trkpt lat="40.0729385" lon="-105.2308155">
  <ele>1595.5</ele>
  <time>2026-08-28T19:11:38Z</time>
  <course>105.76</course>
  <speed>0.03</speed>
  <fix>3d</fix>
</trkpt>
<trkpt lat="40.0729386" lon="-105.2308157">
  <ele>1595.57</ele>
  <time>2026-08-28T19:11:38Z</time>
  <course>351.85</course>
  <speed>0.01</speed>
  <fix>3d</fix>
</trkpt>
<trkpt lat="40.0729385" lon="-105.2308154">
  <ele>1595.5</ele>
  <time>2026-08-28T19:11:38Z</time>
  <course>103.27</course>
  <speed>0.03</speed>
  <fix>3d</fix>
</trkpt>
<trkpt lat="40.0729386" lon="-105.2308156">
  <ele>1595.57</ele>
  <time>2026-08-28T19:11:38Z</time>
  <course>350.31</course>
  <speed>0.01</speed>
  <fix>3d</fix>
</trkpt>
<trkpt lat="40.0729385" lon="-105.2308153">
  <ele>1595.5</ele>
  <time>2026-08-28T19:11:38Z</time>
  <course>101.51</course>
  <speed>0.03</speed>
  <fix>3d</fix>
</trkpt>
<trkpt lat="40.0729386" lon="-105.2308155">
  <ele>1595.57</ele>
  <time>2026-08-28T19:11:38Z</time>
  <course>348.79</course>
  <speed>0.01</speed>
  <fix>3d</fix>
</trkpt>
<trkpt lat="40.0729385" lon="-105.2308152">
  <ele>1595.49</ele>
  <time>2026-08-28T19:11:38Z</time>
  <course>99.96</course>
  <speed>0.03</speed>
  <fix>3d</fix>
</trkpt>
<trkpt lat="40.0729386" lon="-105.2308154">
  <ele>1595.57</ele>
  <time>2026-08-28T19:11:38Z</time>
  <course>347.4</course>
  <speed>0.0</speed>
  <fix>3d</fix>
</trkpt>
<trkpt lat="40.0729385" lon="-105.2308152">
  <ele>1595.49</ele>
  <time>2026-08-28T19:11:38Z</time>
  <course>99.66</course>
  <speed>0.03</speed>
  <fix>3d</fix>
</trkpt>
<trkpt lat="40.0729386" lon="-105.2308153">
  <ele>1595.57</ele>
  <time>2026-08-28T19:11:38Z</time>
  <course>346.29</course>
  <speed>0.0</speed>
  <fix>3d</fix>
</trkpt>
<trkpt lat="40.0729385" lon="-105.2308151">
  <ele>1595.49</ele>
  <time>2026-08-28T19:11:38Z</time>
  <course>100.55</course>
  <speed>0.03</speed>
  <fix>3d</fix>
</trkpt>
<trkpt lat="40.0729386" lon="-105.2308153">
  <ele>1595.58</ele>
  <time>2026-08-28T19:11:38Z</time>
  <course>345.54</course>
  <speed>0.0</speed>
  <fix>3d</fix>
</trkpt>
<trkpt lat="40.0729385" lon="-105.2308151">
  <ele>1595.49</ele>
  <time>2026-08-28T19:11:38Z</time>
  <course>103.07</course>
  <speed>0.02</speed>
  <fix>3d</fix>
</trkpt>
<trkpt lat="40.0729386" lon="-105.2308152">
  <ele>1595.58</ele>
  <time>2026-08-28T19:11:38Z</time>
  <course>345.25</course>
  <speed>0.0</speed>
  <fix>3d</fix>
</trkpt>
<trkpt lat="40.0729385" lon="-105.230815">
  <ele>1595.49</ele>
  <time>2026-08-28T19:11:38Z</time>
  <course>108.05</course>
  <speed>0.02</speed>
  <fix>3d</fix>
</trkpt>
<trkpt lat="40.0729386" lon="-105.2308152">
  <ele>1595.58</ele>
  <time>2026-08-28T19:11:38Z</time>
  <course>345.45</course>
  <speed>0.0</speed>
  <fix>3d</fix>
</trkpt>
<trkpt lat="40.0729384" lon="-105.2308149">
  <ele>1595.49</ele>
  <time>2026-08-28T19:11:38Z</time>
  <course>114.07</course>
  <speed>0.02</speed>
  <fix>3d</fix>
</trkpt>
<trkpt lat="40.0729386" lon="-105.2308151">
  <ele>1595.58</ele>
  <time>2026-08-28T19:11:38Z</time>
  <course>346.12</course>
  <speed>0.0</speed>
  <fix>3d</fix>
</trkpt>
<trkpt lat="40.0729384" lon="-105.2308149">
  <ele>1595.49</ele>
  <time>2026-08-28T19:11:38Z</time>
  <course>119.65</course>
  <speed>0.02</speed>
  <fix>3d</fix>
</trkpt>
<trkpt lat="40.0729385" lon="-105.2308151">
  <ele>1595.58</ele>
  <time>2026-08-28T19:11:38Z</time>
  <course>347.17</course>
  <speed>0.0</speed>
  <fix>3d</fix>
</trkpt>
<trkpt lat="40.0729384" lon="-105.2308149">
  <ele>1595.49</ele>
  <time>2026-08-28T19:11:38Z</time>
  <course>124.42</course>
  <speed>0.02</speed>
  <fix>3d</fix>
</trkpt>
<trkpt lat="40.0729385" lon="-105.230815">
  <ele>1595.57</ele>
  <time>2026-08-28T19:11:38Z</time>
  <course>348.52</course>
  <speed>0.0</speed>
  <fix>3d</fix>
</trkpt>
<trkpt lat="40.0729384" lon="-105.2308148">
  <ele>1595.49</ele>
  <time>2026-08-28T19:11:38Z</time>
  <course>127.74</course>
  <speed>0.02</speed>
  <fix>3d</fix>
</trkpt>
<trkpt lat="40.0729385" lon="-105.230815">
  <ele>1595.57</ele>
  <time>2026-08-28T19:11:38Z</time>
  <course>350.02</course>
  <speed>0.0</speed>
  <fix>3d</fix>
</trkpt>
<trkpt lat="40.0729383" lon="-105.2308147">
  <ele>1595.48</ele>
  <time>2026-08-28T19:11:38Z</time>
  <course>129.19</course>
  <speed>0.02</speed>
  <fix>3d</fix>
</trkpt>
<trkpt lat="40.0729384" lon="-105.230815">
  <ele>1595.57</ele>
  <time>2026-08-28T19:11:38Z</time>
  <course>351.52</course>
  <speed>0.0</speed>
  <fix>3d</fix>
</trkpt>
<trkpt lat="40.0729382" lon="-105.2308147">
  <ele>1595.48</ele>
  <time>2026-08-28T19:11:38Z</time>
  <course>129.15</course>
  <speed>0.02</speed>
  <fix>3d</fix>
</trkpt>
<trkpt lat="40.0729384" lon="-105.2308149">
  <ele>1595.57</ele>
  <time>2026-08-28T19:11:38Z</time>
  <course>352.91</course>
  <speed>0.0</speed>
  <fix>3d</fix>
</trkpt>
<trkpt lat="40.0729382" lon="-105.2308147">
  <ele>1595.48</ele>
  <time>2026-08-28T19:11:38Z</time>
  <course>127.76</course>
  <speed>0.02</speed>
  <fix>3d</fix>
</trkpt>
<trkpt lat="40.0729384" lon="-105.2308149">
  <ele>1595.57</ele>
  <time>2026-08-28T19:11:38Z</time>
  <course>354.03</course>
  <speed>0.0</speed>
  <fix>3d</fix>
</trkpt>
<trkpt lat="40.0729382" lon="-105.2308146">
  <ele>1595.48</ele>
  <time>2026-08-28T19:11:38Z</time>
  <course>124.63</course>
  <speed>0.02</speed>
  <fix>3d</fix>
</trkpt>
<trkpt lat="40.0729383" lon="-105.2308148">
  <ele>1595.58</ele>
  <time>2026-08-28T19:11:38Z</time>
  <course>354.78</course>
  <speed>0.0</speed>
  <fix>3d</fix>
</trkpt>
<trkpt lat="40.0729381" lon="-105.2308145">
  <ele>1595.48</ele>
  <time>2026-08-28T19:11:38Z</time>
  <course>120.5</course>
  <speed>0.02</speed>
  <fix>3d</fix>
</trkpt>
<trkpt lat="40.0729383" lon="-105.2308147">
  <ele>1595.58</ele>
  <time>2026-08-28T19:11:38Z</time>
  <course>355.1</course>
  <speed>0.0</speed>
  <fix>3d</fix>
</trkpt>
<trkpt lat="40.0729381" lon="-105.2308144">
  <ele>1595.48</ele>
  <time>2026-08-28T19:11:38Z</time>
  <course>116.12</course>
  <speed>0.03</speed>
  <fix>3d</fix>
</trkpt>
<trkpt lat="40.0729383" lon="-105.2308146">
  <ele>1595.58</ele>
  <time>2026-08-28T19:11:38Z</time>
  <course>354.9</course>
  <speed>0.0</speed>
  <fix>3d</fix>
</trkpt>
<trkpt lat="40.0729381" lon="-105.2308144">
  <ele>1595.48</ele>
  <time>2026-08-28T19:11:38Z</time>
  <course>111.56</course>
  <speed>0.03</speed>
  <fix>3d</fix>
</trkpt>
<trkpt lat="40.0729382" lon="-105.2308146">
  <ele>1595.58</ele>
  <time>2026-08-28T19:11:38Z</time>
  <course>354.26</course>
  <speed>0.01</speed>
  <fix>3d</fix>
</trkpt>
<trkpt lat="40.0729381" lon="-105.2308143">
  <ele>1595.47</ele>
  <time>2026-08-28T19:11:38Z</time>
  <course>106.7</course>
  <speed>0.03</speed>
  <fix>3d</fix>
</trkpt>
<trkpt lat="40.0729382" lon="-105.2308145">
  <ele>1595.57</ele>
  <time>2026-08-28T19:11:38Z</time>
  <course>353.22</course>
  <speed>0.01</speed>
  <fix>3d</fix>
</trkpt>
<trkpt lat="40.0729381" lon="-105.2308142">
  <ele>1595.47</ele>
  <time>2026-08-28T19:11:38Z</time>
  <course>101.57</course>
  <speed>0.03</speed>
  <fix>3d</fix>
</trkpt>
<trkpt lat="40.0729382" lon="-105.2308144">
  <ele>1595.57</ele>
  <time>2026-08-28T19:11:38Z</time>
  <course>351.89</course>
  <speed>0.01</speed>
  <fix>3d</fix>
</trkpt>
<trkpt lat="40.072938" lon="-105.2308142">
  <ele>1595.47</ele>
  <time>2026-08-28T19:11:38Z</time>
  <course>97.21</course>
  <speed>0.03</speed>
  <fix>3d</fix>
</trkpt>
<trkpt lat="40.0729382" lon="-105.2308143">
  <ele>1595.57</ele>
  <time>2026-08-28T19:11:38Z</time>
  <course>350.37</course>
  <speed>0.01</speed>
  <fix>3d</fix>
</trkpt>
<trkpt lat="40.072938" lon="-105.2308141">
  <ele>1595.46</ele>
  <time>2026-08-28T19:11:38Z</time>
  <course>94.78</course>
  <speed>0.03</speed>
  <fix>3d</fix>
</trkpt>
<trkpt lat="40.0729382" lon="-105.2308142">
  <ele>1595.57</ele>
  <time>2026-08-28T19:11:38Z</time>
  <course>348.83</course>
  <speed>0.0</speed>
  <fix>3d</fix>
</trkpt>
<trkpt lat="40.072938" lon="-105.230814">
  <ele>1595.46</ele>
  <time>2026-08-28T19:11:38Z</time>
  <course>93.67</course>
  <speed>0.03</speed>
  <fix>3d</fix>
</trkpt>
<trkpt lat="40.0729382" lon="-105.2308142">
  <ele>1595.56</ele>
  <time>2026-08-28T19:11:38Z</time>
  <course>347.41</course>
  <speed>0.0</speed>
  <fix>3d</fix>
</trkpt>
<trkpt lat="40.072938" lon="-105.2308139">
  <ele>1595.46</ele>
  <time>2026-08-28T19:11:38Z</time>
  <course>93.29</course>
  <speed>0.03</speed>
  <fix>3d</fix>
</trkpt>
<trkpt lat="40.0729382" lon="-105.2308141">
  <ele>1595.56</ele>
  <time>2026-08-28T19:11:38Z</time>
  <course>346.26</course>
  <speed>0.0</speed>
  <fix>3d</fix>
</trkpt>
<trkpt lat="40.072938" lon="-105.2308139">
  <ele>1595.46</ele>
  <time>2026-08-28T19:11:38Z</time>
  <course>94.27</course>
  <speed>0.02</speed>
  <fix>3d</fix>
</trkpt>
<trkpt lat="40.0729382" lon="-105.230814">
  <ele>1595.56</ele>
  <time>2026-08-28T19:11:38Z</time>
  <course>345.52</course>
  <speed>0.0</speed>
  <fix>3d</fix>
</trkpt>
<trkpt lat="40.072938" lon="-105.2308138">
  <ele>1595.46</ele>
  <time>2026-08-28T19:11:38Z</time>
  <course>96.92</course>
  <speed>0.02</speed>
  <fix>3d</fix>
</trkpt>
<trkpt lat="40.0729382" lon="-105.230814">
  <ele>1595.56</ele>
  <time>2026-08-28T19:11:38Z</time>
  <course>345.22</course>
  <speed>0.0</speed>
  <fix>3d</fix>
</trkpt>
<trkpt lat="40.072938" lon="-105.2308137">
  <ele>1595.46</ele>
  <time>2026-08-28T19:11:38Z</time>
  <course>101.17</course>
  <speed>0.02</speed>
  <fix>3d</fix>
</trkpt>
<trkpt lat="40.0729381" lon="-105.2308139">
  <ele>1595.55</ele>
  <time>2026-08-28T19:11:38Z</time>
  <course>345.22</course>
  <speed>0.0</speed>
  <fix>3d</fix>
</trkpt>
<trkpt lat="40.072938" lon="-105.2308137">
  <ele>1595.46</ele>
  <time>2026-08-28T19:11:38Z</time>
  <course>104.52</course>
  <speed>0.02</speed>
  <fix>3d</fix>
</trkpt>
<trkpt lat="40.0729381" lon="-105.2308139">
  <ele>1595.56</ele>
  <time>2026-08-28T19:11:38Z</time>
  <course>345.24</course>
  <speed>0.0</speed>
  <fix>3d</fix>
</trkpt>
<trkpt lat="40.072938" lon="-105.2308137">
  <ele>1595.46</ele>
  <time>2026-08-28T19:11:38Z</time>
  <course>104.12</course>
  <speed>0.02</speed>
  <fix>3d</fix>
</trkpt>
<trkpt lat="40.0729381" lon="-105.2308138">
  <ele>1595.56</ele>
  <time>2026-08-28T19:11:38Z</time>
  <course>345.25</course>
  <speed>0.0</speed>
  <fix>3d</fix>
</trkpt>
<trkpt lat="40.072938" lon="-105.2308136">
  <ele>1595.46</ele>
  <time>2026-08-28T19:11:38Z</time>
  <course>102.04</course>
  <speed>0.02</speed>
  <fix>3d</fix>
</trkpt>
<trkpt lat="40.0729381" lon="-105.2308138">
  <ele>1595.56</ele>
  <time>2026-08-28T19:11:38Z</time>
  <course>345.26</course>
  <speed>0.0</speed>
  <fix>3d</fix>
</trkpt>
<trkpt lat="40.072938" lon="-105.2308135">
  <ele>1595.47</ele>
  <time>2026-08-28T19:11:38Z</time>
  <course>99.65</course>
  <speed>0.02</speed>
  <fix>3d</fix>
</trkpt>
<trkpt lat="40.0729381" lon="-105.2308137">
  <ele>1595.56</ele>
  <time>2026-08-28T19:11:38Z</time>
  <course>345.26</course>
  <speed>0.0</speed>
  <fix>3d</fix>
</trkpt>
<trkpt lat="40.072938" lon="-105.2308135">
  <ele>1595.47</ele>
  <time>2026-08-28T19:11:38Z</time>
  <course>96.91</course>
  <speed>0.02</speed>
  <fix>3d</fix>
</trkpt>
<trkpt lat="40.0729381" lon="-105.2308137">
  <ele>1595.56</ele>
  <time>2026-08-28T19:11:38Z</time>
  <course>345.24</course>
  <speed>0.0</speed>
  <fix>3d</fix>
</trkpt>
<trkpt lat="40.072938" lon="-105.2308134">
  <ele>1595.47</ele>
  <time>2026-08-28T19:11:38Z</time>
  <course>95.01</course>
  <speed>0.02</speed>
  <fix>3d</fix>
</trkpt>
<trkpt lat="40.0729381" lon="-105.2308136">
  <ele>1595.56</ele>
  <time>2026-08-28T19:11:38Z</time>
  <course>345.24</course>
  <speed>0.01</speed>
  <fix>3d</fix>
</trkpt>
<trkpt lat="40.072938" lon="-105.2308133">
  <ele>1595.47</ele>
  <time>2026-08-28T19:11:38Z</time>
  <course>93.71</course>
  <speed>0.02</speed>
  <fix>3d</fix>
</trkpt>
<trkpt lat="40.0729381" lon="-105.2308135">
  <ele>1595.56</ele>
  <time>2026-08-28T19:11:38Z</time>
  <course>345.25</course>
  <speed>0.01</speed>
  <fix>3d</fix>
</trkpt>
<trkpt lat="40.072938" lon="-105.2308133">
  <ele>1595.47</ele>
  <time>2026-08-28T19:11:38Z</time>
  <course>92.21</course>
  <speed>0.02</speed>
  <fix>3d</fix>
</trkpt>
<trkpt lat="40.0729381" lon="-105.2308135">
  <ele>1595.57</ele>
  <time>2026-08-28T19:11:38Z</time>
  <course>345.25</course>
  <speed>0.01</speed>
  <fix>3d</fix>
</trkpt>
<trkpt lat="40.072938" lon="-105.2308132">
  <ele>1595.47</ele>
  <time>2026-08-28T19:11:38Z</time>
  <course>91.22</course>
  <speed>0.02</speed>
  <fix>3d</fix>
</trkpt>
<trkpt lat="40.0729381" lon="-105.2308134">
  <ele>1595.57</ele>
  <time>2026-08-28T19:11:38Z</time>
  <course>345.26</course>
  <speed>0.01</speed>
  <fix>3d</fix>
</trkpt>
<trkpt lat="40.072938" lon="-105.2308132">
  <ele>1595.48</ele>
  <time>2026-08-28T19:11:38Z</time>
  <course>91.14</course>
  <speed>0.02</speed>
  <fix>3d</fix>
</trkpt>
<trkpt lat="40.0729381" lon="-105.2308133">
  <ele>1595.58</ele>
  <time>2026-08-28T19:11:38Z</time>
  <course>345.26</course>
  <speed>0.01</speed>
  <fix>3d</fix>
</trkpt>
<trkpt lat="40.072938" lon="-105.2308131">
  <ele>1595.48</ele>
  <time>2026-08-28T19:11:38Z</time>
  <course>91.31</course>
  <speed>0.02</speed>
  <fix>3d</fix>
</trkpt>
<trkpt lat="40.0729381" lon="-105.2308133">
  <ele>1595.58</ele>
  <time>2026-08-28T19:11:38Z</time>
  <course>345.27</course>
  <speed>0.01</speed>
  <fix>3d</fix>
</trkpt>
<trkpt lat="40.072938" lon="-105.230813">
  <ele>1595.48</ele>
  <time>2026-08-28T19:11:38Z</time>
  <course>90.93</course>
  <speed>0.02</speed>
  <fix>3d</fix>
</trkpt>
<trkpt lat="40.0729381" lon="-105.2308132">
  <ele>1595.58</ele>
  <time>2026-08-28T19:11:38Z</time>
  <course>345.28</course>
  <speed>0.01</speed>
  <fix>3d</fix>
</trkpt>
<trkpt lat="40.072938" lon="-105.230813">
  <ele>1595.48</ele>
  <time>2026-08-28T19:11:38Z</time>
  <course>89.54</course>
  <speed>0.02</speed>
  <fix>3d</fix>
</trkpt>
<trkpt lat="40.0729381" lon="-105.2308131">
  <ele>1595.57</ele>
  <time>2026-08-28T19:11:38Z</time>
  <course>345.28</course>
  <speed>0.01</speed>
  <fix>3d</fix>
</trkpt>
<trkpt lat="40.072938" lon="-105.2308129">
  <ele>1595.48</ele>
  <time>2026-08-28T19:11:38Z</time>
  <course>87.9</course>
  <speed>0.02</speed>
  <fix>3d</fix>
</trkpt>
<trkpt lat="40.0729381" lon="-105.2308131">
  <ele>1595.57</ele>
  <time>2026-08-28T19:11:38Z</time>
  <course>345.27</course>
  <speed>0.01</speed>
  <fix>3d</fix>
</trkpt>
<trkpt lat="40.072938" lon="-105.2308128">
  <ele>1595.47</ele>
  <time>2026-08-28T19:11:38Z</time>
  <course>85.83</course>
  <speed>0.02</speed>
  <fix>3d</fix>
</trkpt>
<trkpt lat="40.0729381" lon="-105.230813">
  <ele>1595.57</ele>
  <time>2026-08-28T19:11:38Z</time>
  <course>345.26</course>
  <speed>0.01</speed>
  <fix>3d</fix>
</trkpt>
<trkpt lat="40.072938" lon="-105.2308128">
  <ele>1595.47</ele>
  <time>2026-08-28T19:11:38Z</time>
  <course>83.72</course>
  <speed>0.03</speed>
  <fix>3d</fix>
</trkpt>
<trkpt lat="40.0729381" lon="-105.2308129">
  <ele>1595.57</ele>
  <time>2026-08-28T19:11:38Z</time>
  <course>345.19</course>
  <speed>0.01</speed>
  <fix>3d</fix>
</trkpt>
<trkpt lat="40.072938" lon="-105.2308127">
  <ele>1595.47</ele>
  <time>2026-08-28T19:11:38Z</time>
  <course>82.57</course>
  <speed>0.03</speed>
  <fix>3d</fix>
</trkpt>
<trkpt lat="40.0729381" lon="-105.2308129">
  <ele>1595.57</ele>
  <time>2026-08-28T19:11:38Z</time>
  <course>344.29</course>
  <speed>0.01414213562373095</speed>
  <fix>3d</fix>
</trkpt>
<trkpt lat="40.072938" lon="-105.2308126">
  <ele>1595.47</ele>
  <time>2026-08-28T19:11:38Z</time>
  <course>81.6</course>
  <speed>0.03</speed>
  <fix>3d</fix>
</trkpt>
<trkpt lat="40.0729381" lon="-105.2308128">
  <ele>1595.57</ele>
  <time>2026-08-28T19:11:38Z</time>
  <course>342.96</course>
  <speed>0.01414213562373095</speed>
  <fix>3d</fix>
</trkpt>
<trkpt lat="40.072938" lon="-105.2308125">
  <ele>1595.47</ele>
  <time>2026-08-28T19:11:38Z</time>
  <course>81.07</course>
  <speed>0.03</speed>
  <fix>3d</fix>
</trkpt>
<trkpt lat="40.0729381" lon="-105.2308127">
  <ele>1595.57</ele>
  <time>2026-08-28T19:11:38Z</time>
  <course>341.73</course>
  <speed>0.01</speed>
  <fix>3d</fix>
</trkpt>
<trkpt lat="40.072938" lon="-105.2308125">
  <ele>1595.47</ele>
  <time>2026-08-28T19:11:38Z</time>
  <course>81.83</course>
  <speed>0.03</speed>
  <fix>3d</fix>
</trkpt>
<trkpt lat="40.0729381" lon="-105.2308126">
  <ele>1595.56</ele>
  <time>2026-08-28T19:11:38Z</time>
  <course>340.86</course>
  <speed>0.01</speed>
  <fix>3d</fix>
</trkpt>
<trkpt lat="40.072938" lon="-105.2308124">
  <ele>1595.47</ele>
  <time>2026-08-28T19:11:38Z</time>
  <course>83.93</course>
  <speed>0.03</speed>
  <fix>3d</fix>
</trkpt>
<trkpt lat="40.0729381" lon="-105.2308126">
  <ele>1595.56</ele>
  <time>2026-08-28T19:11:38Z</time>
  <course>340.38</course>
  <speed>0.01</speed>
  <fix>3d</fix>
</trkpt>
<trkpt lat="40.072938" lon="-105.2308123">
  <ele>1595.47</ele>
  <time>2026-08-28T19:11:38Z</time>
  <course>87.61</course>
  <speed>0.03</speed>
  <fix>3d</fix>
</trkpt>
<trkpt lat="40.0729381" lon="-105.2308125">
  <ele>1595.56</ele>
  <time>2026-08-28T19:11:38Z</time>
  <course>340.39</course>
  <speed>0.0</speed>
  <fix>3d</fix>
</trkpt>
<trkpt lat="40.072938" lon="-105.2308122">
  <ele>1595.47</ele>
  <time>2026-08-28T19:11:38Z</time>
  <course>92.95</course>
  <speed>0.02</speed>
  <fix>3d</fix>
</trkpt>
<trkpt lat="40.0729381" lon="-105.2308124">
  <ele>1595.56</ele>
  <time>2026-08-28T19:11:38Z</time>
  <course>340.87</course>
  <speed>0.0</speed>
  <fix>3d</fix>
</trkpt>
<trkpt lat="40.072938" lon="-105.2308121">
  <ele>1595.47</ele>
  <time>2026-08-28T19:11:38Z</time>
  <course>98.84</course>
  <speed>0.02</speed>
  <fix>3d</fix>
</trkpt>
<trkpt lat="40.0729381" lon="-105.2308124">
  <ele>1595.56</ele>
  <time>2026-08-28T19:11:38Z</time>
  <course>341.81</course>
  <speed>0.0</speed>
  <fix>3d</fix>
</trkpt>
<trkpt lat="40.072938" lon="-105.2308121">
  <ele>1595.47</ele>
  <time>2026-08-28T19:11:38Z</time>
  <course>105.05</course>
  <speed>0.02</speed>
  <fix>3d</fix>
</trkpt>
<trkpt lat="40.0729381" lon="-105.2308123">
  <ele>1595.56</ele>
  <time>2026-08-28T19:11:38Z</time>
  <course>343.08</course>
  <speed>0.0</speed>
  <fix>3d</fix>
</trkpt>
<trkpt lat="40.072938" lon="-105.2308121">
  <ele>1595.47</ele>
  <time>2026-08-28T19:11:38Z</time>
  <course>111.03</course>
  <speed>0.02</speed>
  <fix>3d</fix>
</trkpt>
<trkpt lat="40.0729381" lon="-105.2308123">
  <ele>1595.56</ele>
  <time>2026-08-28T19:11:38Z</time>
  <course>344.52</course>
  <speed>0.0</speed>
  <fix>3d</fix>
</trkpt>
<trkpt lat="40.072938" lon="-105.230812">
  <ele>1595.48</ele>
  <time>2026-08-28T19:11:38Z</time>
  <course>116.08</course>
  <speed>0.02</speed>
  <fix>3d</fix>
</trkpt>
<trkpt lat="40.0729381" lon="-105.2308122">
  <ele>1595.56</ele>
  <time>2026-08-28T19:11:38Z</time>
  <course>346.06</course>
  <speed>0.0</speed>
  <fix>3d</fix>
</trkpt>
<trkpt lat="40.072938" lon="-105.230812">
  <ele>1595.48</ele>
  <time>2026-08-28T19:11:38Z</time>
  <course>120.13</course>
  <speed>0.02</speed>
  <fix>3d</fix>
</trkpt>
<trkpt lat="40.0729381" lon="-105.2308122">
  <ele>1595.56</ele>
  <time>2026-08-28T19:11:38Z</time>
  <course>347.54</course>
  <speed>0.0</speed>
  <fix>3d</fix>
</trkpt>
<trkpt lat="40.072938" lon="-105.2308119">
  <ele>1595.48</ele>
  <time>2026-08-28T19:11:38Z</time>
  <course>121.4</course>
  <speed>0.02</speed>
  <fix>3d</fix>
</trkpt>
<trkpt lat="40.072938" lon="-105.2308121">
  <ele>1595.56</ele>
  <time>2026-08-28T19:11:38Z</time>
  <course>348.75</course>
  <speed>0.0</speed>
  <fix>3d</fix>
</trkpt>
<trkpt lat="40.072938" lon="-105.2308118">
  <ele>1595.48</ele>
  <time>2026-08-28T19:11:38Z</time>
  <course>120.02</course>
  <speed>0.02</speed>
  <fix>3d</fix>
</trkpt>
<trkpt lat="40.072938" lon="-105.2308121">
  <ele>1595.56</ele>
  <time>2026-08-28T19:11:38Z</time>
  <course>349.65</course>
  <speed>0.0</speed>
  <fix>3d</fix>
</trkpt>
<trkpt lat="40.072938" lon="-105.2308118">
  <ele>1595.48</ele>
  <time>2026-08-28T19:11:38Z</time>
  <course>117.4</course>
  <speed>0.02</speed>
  <fix>3d</fix>
</trkpt>
<trkpt lat="40.072938" lon="-105.230812">
  <ele>1595.56</ele>
  <time>2026-08-28T19:11:38Z</time>
  <course>350.1</course>
  <speed>0.0</speed>
  <fix>3d</fix>
</trkpt>
<trkpt lat="40.0729379" lon="-105.2308118">
  <ele>1595.48</ele>
  <time>2026-08-28T19:11:38Z</time>
  <course>114.04</course>
  <speed>0.02</speed>
  <fix>3d</fix>
</trkpt>
<trkpt lat="40.072938" lon="-105.2308119">
  <ele>1595.56</ele>
  <time>2026-08-28T19:11:38Z</time>
  <course>350.07</course>
  <speed>0.0</speed>
  <fix>3d</fix>
</trkpt>
<trkpt lat="40.0729379" lon="-105.2308117">
  <ele>1595.49</ele>
  <time>2026-08-28T19:11:38Z</time>
  <course>110.87</course>
  <speed>0.03</speed>
  <fix>3d</fix>
</trkpt>
<trkpt lat="40.072938" lon="-105.2308119">
  <ele>1595.56</ele>
  <time>2026-08-28T19:11:38Z</time>
  <course>349.57</course>
  <speed>0.0</speed>
  <fix>3d</fix>
</trkpt>
<trkpt lat="40.0729379" lon="-105.2308116">
  <ele>1595.49</ele>
  <time>2026-08-28T19:11:38Z</time>
  <course>107.86</course>
  <speed>0.03</speed>
  <fix>3d</fix>
</trkpt>
<trkpt lat="40.072938" lon="-105.2308118">
  <ele>1595.56</ele>
  <time>2026-08-28T19:11:38Z</time>
  <course>348.66</course>
  <speed>0.01</speed>
  <fix>3d</fix>
</trkpt>
<trkpt lat="40.0729379" lon="-105.2308115">
  <ele>1595.49</ele>
  <time>2026-08-28T19:11:38Z</time>
  <course>104.72</course>
  <speed>0.03</speed>
  <fix>3d</fix>
</trkpt>
<trkpt lat="40.072938" lon="-105.2308117">
  <ele>1595.56</ele>
  <time>2026-08-28T19:11:38Z</time>
  <course>347.4</course>
  <speed>0.01</speed>
  <fix>3d</fix>
</trkpt>
<trkpt lat="40.0729379" lon="-105.2308115">
  <ele>1595.49</ele>
  <time>2026-08-28T19:11:38Z</time>
  <course>102.46</course>
  <speed>0.03</speed>
  <fix>3d</fix>
</trkpt>
<trkpt lat="40.072938" lon="-105.2308116">
  <ele>1595.57</ele>
  <time>2026-08-28T19:11:38Z</time>
  <course>345.93</course>
  <speed>0.01</speed>
  <fix>3d</fix>
</trkpt>
<trkpt lat="40.0729379" lon="-105.2308114">
  <ele>1595.5</ele>
  <time>2026-08-28T19:11:38Z</time>
  <course>100.98</course>
  <speed>0.03</speed>
  <fix>3d</fix>
</trkpt>
<trkpt lat="40.072938" lon="-105.2308115">
  <ele>1595.57</ele>
  <time>2026-08-28T19:11:38Z</time>
  <course>344.42</course>
  <speed>0.0</speed>
  <fix>3d</fix>
</trkpt>
<trkpt lat="40.0729379" lon="-105.2308113">
  <ele>1595.5</ele>
  <time>2026-08-28T19:11:38Z</time>
  <course>99.76</course>
  <speed>0.03</speed>
  <fix>3d</fix>
</trkpt>
<trkpt lat="40.072938" lon="-105.2308115">
  <ele>1595.57</ele>
  <time>2026-08-28T19:11:38Z</time>
  <course>342.96</course>
  <speed>0.0</speed>
  <fix>3d</fix>
</trkpt>
<trkpt lat="40.0729378" lon="-105.2308112">
  <ele>1595.5</ele>
  <time>2026-08-28T19:11:38Z</time>
  <course>99.35</course>
  <speed>0.03</speed>
  <fix>3d</fix>
</trkpt>
<trkpt lat="40.072938" lon="-105.2308114">
  <ele>1595.57</ele>
  <time>2026-08-28T19:11:38Z</time>
  <course>341.72</course>
  <speed>0.0</speed>
  <fix>3d</fix>
</trkpt>
<trkpt lat="40.0729378" lon="-105.2308111">
  <ele>1595.5</ele>
  <time>2026-08-28T19:11:38Z</time>
  <course>100.39</course>
  <speed>0.02</speed>
  <fix>3d</fix>
</trkpt>
<trkpt lat="40.0729379" lon="-105.2308113">
  <ele>1595.57</ele>
  <time>2026-08-28T19:11:38Z</time>
  <course>340.85</course>
  <speed>0.0</speed>
  <fix>3d</fix>
</trkpt>
<trkpt lat="40.0729378" lon="-105.2308111">
  <ele>1595.5</ele>
  <time>2026-08-28T19:11:38Z</time>
  <course>103.35</course>
  <speed>0.02</speed>
  <fix>3d</fix>
</trkpt>
<trkpt lat="40.0729379" lon="-105.2308113">
  <ele>1595.57</ele>
  <time>2026-08-28T19:11:38Z</time>
  <course>340.38</course>
  <speed>0.0</speed>
  <fix>3d</fix>
</trkpt>
<trkpt lat="40.0729378" lon="-105.230811">
  <ele>1595.51</ele>
  <time>2026-08-28T19:11:38Z</time>
  <course>107.83</course>
  <speed>0.02</speed>
  <fix>3d</fix>
</trkpt>
<trkpt lat="40.0729379" lon="-105.2308112">
  <ele>1595.57</ele>
  <time>2026-08-28T19:11:38Z</time>
  <course>340.4</course>
  <speed>0.0</speed>
  <fix>3d</fix>
</trkpt>
<trkpt lat="40.0729378" lon="-105.2308109">
  <ele>1595.51</ele>
  <time>2026-08-28T19:11:38Z</time>
  <course>113.6</course>
  <speed>0.02</speed>
  <fix>3d</fix>
</trkpt>
<trkpt lat="40.0729379" lon="-105.2308112">
  <ele>1595.58</ele>
  <time>2026-08-28T19:11:38Z</time>
  <course>340.9</course>
  <speed>0.0</speed>
  <fix>3d</fix>
</trkpt>
<trkpt lat="40.0729378" lon="-105.2308109">
  <ele>1595.51</ele>
  <time>2026-08-28T19:11:38Z</time>
  <course>119.96</course>
  <speed>0.02</speed>
  <fix>3d</fix>
</trkpt>
<trkpt lat="40.0729379" lon="-105.2308111">
  <ele>1595.58</ele>
  <time>2026-08-28T19:11:38Z</time>
  <course>341.85</course>
  <speed>0.0</speed>
  <fix>3d</fix>
</trkpt>
<trkpt lat="40.0729377" lon="-105.2308109">
  <ele>1595.51</ele>
  <time>2026-08-28T19:11:38Z</time>
  <course>126.15</course>
  <speed>0.02</speed>
  <fix>3d</fix>
</trkpt>
<trkpt lat="40.0729378" lon="-105.2308111">
  <ele>1595.58</ele>
  <time>2026-08-28T19:11:38Z</time>
  <course>343.13</course>
  <speed>0.0</speed>
  <fix>3d</fix>
</trkpt>
<trkpt lat="40.0729377" lon="-105.2308109">
  <ele>1595.51</ele>
  <time>2026-08-28T19:11:38Z</time>
  <course>131.25</course>
  <speed>0.02</speed>
  <fix>3d</fix>
</trkpt>
<trkpt lat="40.0729378" lon="-105.2308111">
  <ele>1595.58</ele>
  <time>2026-08-28T19:11:38Z</time>
  <course>344.59</course>
  <speed>0.0</speed>
  <fix>3d</fix>
</trkpt>
<trkpt lat="40.0729377" lon="-105.2308108">
  <ele>1595.5</ele>
  <time>2026-08-28T19:11:38Z</time>
  <course>134.11</course>
  <speed>0.02</speed>
  <fix>3d</fix>
</trkpt>
<trkpt lat="40.0729378" lon="-105.230811">
  <ele>1595.57</ele>
  <time>2026-08-28T19:11:38Z</time>
  <course>346.11</course>
  <speed>0.0</speed>
  <fix>3d</fix>
</trkpt>
<trkpt lat="40.0729377" lon="-105.2308108">
  <ele>1595.5</ele>
  <time>2026-08-28T19:11:38Z</time>
  <course>134.54</course>
  <speed>0.02</speed>
  <fix>3d</fix>
</trkpt>
<trkpt lat="40.0729377" lon="-105.230811">
  <ele>1595.57</ele>
  <time>2026-08-28T19:11:39Z</time>
  <course>347.56</course>
  <speed>0.0</speed>
  <fix>3d</fix>
</trkpt>
<trkpt lat="40.0729376" lon="-105.2308107">
  <ele>1595.5</ele>
  <time>2026-08-28T19:11:39Z</time>
  <course>132.37</course>
  <speed>0.02</speed>
  <fix>3d</fix>
</trkpt>
<trkpt lat="40.0729377" lon="-105.2308109">
  <ele>1595.57</ele>
  <time>2026-08-28T19:11:39Z</time>
  <course>348.76</course>
  <speed>0.0</speed>
  <fix>3d</fix>
</trkpt>
<trkpt lat="40.0729375" lon="-105.2308106">
  <ele>1595.5</ele>
  <time>2026-08-28T19:11:39Z</time>
  <course>128.08</course>
  <speed>0.02</speed>
  <fix>3d</fix>
</trkpt>
<trkpt lat="40.0729377" lon="-105.2308109">
  <ele>1595.57</ele>
  <time>2026-08-28T19:11:39Z</time>
  <course>349.66</course>
  <speed>0.0</speed>
  <fix>3d</fix>
</trkpt>
<trkpt lat="40.0729375" lon="-105.2308106">
  <ele>1595.5</ele>
  <time>2026-08-28T19:11:39Z</time>
  <course>122.84</course>
  <speed>0.02</speed>
  <fix>3d</fix>
</trkpt>
<trkpt lat="40.0729377" lon="-105.2308108">
  <ele>1595.57</ele>
  <time>2026-08-28T19:11:39Z</time>
  <course>350.13</course>
  <speed>0.0</speed>
  <fix>3d</fix>
</trkpt>
<trkpt lat="40.0729375" lon="-105.2308106">
  <ele>1595.5</ele>
  <time>2026-08-28T19:11:39Z</time>
  <course>116.51</course>
  <speed>0.02</speed>
  <fix>3d</fix>
</trkpt>
<trkpt lat="40.0729376" lon="-105.2308107">
  <ele>1595.57</ele>
  <time>2026-08-28T19:11:39Z</time>
  <course>350.11</course>
  <speed>0.0</speed>
  <fix>3d</fix>
</trkpt>
<trkpt lat="40.0729374" lon="-105.2308105">
  <ele>1595.5</ele>
  <time>2026-08-28T19:11:39Z</time>
  <course>109.58</course>
  <speed>0.03</speed>
  <fix>3d</fix>
</trkpt>
<trkpt lat="40.0729376" lon="-105.2308107">
  <ele>1595.56</ele>
  <time>2026-08-28T19:11:39Z</time>
  <course>349.6</course>
  <speed>0.0</speed>
  <fix>3d</fix>
</trkpt>
<trkpt lat="40.0729374" lon="-105.2308104">
  <ele>1595.5</ele>
  <time>2026-08-28T19:11:39Z</time>
  <course>103.9</course>
  <speed>0.03</speed>
  <fix>3d</fix>
</trkpt>
<trkpt lat="40.0729376" lon="-105.2308106">
  <ele>1595.56</ele>
  <time>2026-08-28T19:11:39Z</time>
  <course>348.67</course>
  <speed>0.01</speed>
  <fix>3d</fix>
</trkpt>
<trkpt lat="40.0729374" lon="-105.2308103">
  <ele>1595.5</ele>
  <time>2026-08-28T19:11:39Z</time>
  <course>99.87</course>
  <speed>0.03</speed>
  <fix>3d</fix>
</trkpt>
<trkpt lat="40.0729376" lon="-105.2308105">
  <ele>1595.57</ele>
  <time>2026-08-28T19:11:39Z</time>
  <course>347.38</course>
  <speed>0.01</speed>
  <fix>3d</fix>
</trkpt>
<trkpt lat="40.0729374" lon="-105.2308103">
  <ele>1595.5</ele>
  <time>2026-08-28T19:11:39Z</time>
  <course>96.77</course>
  <speed>0.03</speed>
  <fix>3d</fix>
</trkpt>
<trkpt lat="40.0729376" lon="-105.2308104">
  <ele>1595.57</ele>
  <time>2026-08-28T19:11:39Z</time>
  <course>345.94</course>
  <speed>0.01</speed>
  <fix>3d</fix>
</trkpt>
<trkpt lat="40.0729374" lon="-105.2308102">
  <ele>1595.5</ele>
  <time>2026-08-28T19:11:39Z</time>
  <course>94.39</course>
  <speed>0.03</speed>
  <fix>3d</fix>
</trkpt>
<trkpt lat="40.0729376" lon="-105.2308103">
  <ele>1595.57</ele>
  <time>2026-08-28T19:11:39Z</time>
  <course>344.43</course>
  <speed>0.0</speed>
  <fix>3d</fix>
</trkpt>
<trkpt lat="40.0729374" lon="-105.2308101">
  <ele>1595.5</ele>
  <time>2026-08-28T19:11:39Z</time>
  <course>93.04</course>
  <speed>0.03</speed>
  <fix>3d</fix>
</trkpt>
<trkpt lat="40.0729376" lon="-105.2308103">
  <ele>1595.58</ele>
  <time>2026-08-28T19:11:39Z</time>
  <course>343.0</course>
  <speed>0.0</speed>
  <fix>3d</fix>
</trkpt>
<trkpt lat="40.0729374" lon="-105.23081">
  <ele>1595.51</ele>
  <time>2026-08-28T19:11:39Z</time>
  <course>92.85</course>
  <speed>0.03</speed>
  <fix>3d</fix>
</trkpt>
<trkpt lat="40.0729375" lon="-105.2308102">
  <ele>1595.58</ele>
  <time>2026-08-28T19:11:39Z</time>
  <course>341.77</course>
  <speed>0.0</speed>
  <fix>3d</fix>
</trkpt>
<trkpt lat="40.0729374" lon="-105.2308099">
  <ele>1595.51</ele>
  <time>2026-08-28T19:11:39Z</time>
  <course>94.57</course>
  <speed>0.02</speed>
  <fix>3d</fix>
</trkpt>
<trkpt lat="40.0729375" lon="-105.2308101">
  <ele>1595.58</ele>
  <time>2026-08-28T19:11:39Z</time>
  <course>340.88</course>
  <speed>0.0</speed>
  <fix>3d</fix>
</trkpt>
<trkpt lat="40.0729374" lon="-105.2308099">
  <ele>1595.5</ele>
  <time>2026-08-28T19:11:39Z</time>
  <course>98.57</course>
  <speed>0.02</speed>
  <fix>3d</fix>
</trkpt>
<trkpt lat="40.0729375" lon="-105.2308101">
  <ele>1595.58</ele>
  <time>2026-08-28T19:11:39Z</time>
  <course>340.4</course>
  <speed>0.0</speed>
  <fix>3d</fix>
</trkpt>
<trkpt lat="40.0729374" lon="-105.2308098">
  <ele>1595.5</ele>
  <time>2026-08-28T19:11:39Z</time>
  <course>103.83</course>
  <speed>0.02</speed>
  <fix>3d</fix>
</trkpt>
<trkpt lat="40.0729375" lon="-105.23081">
  <ele>1595.57</ele>
  <time>2026-08-28T19:11:39Z</time>
  <course>340.42</course>
  <speed>0.0</speed>
  <fix>3d</fix>
</trkpt>
<trkpt lat="40.0729374" lon="-105.2308097">
  <ele>1595.5</ele>
  <time>2026-08-28T19:11:39Z</time>
  <course>109.53</course>
  <speed>0.02</speed>
  <fix>3d</fix>
</trkpt>
<trkpt lat="40.0729375" lon="-105.23081">
  <ele>1595.57</ele>
  <time>2026-08-28T19:11:39Z</time>
  <course>340.89</course>
  <speed>0.0</speed>
  <fix>3d</fix>
</trkpt>
<trkpt lat="40.0729374" lon="-105.2308097">
  <ele>1595.5</ele>
  <time>2026-08-28T19:11:39Z</time>
  <course>114.82</course>
  <speed>0.02</speed>
  <fix>3d</fix>
</trkpt>
<trkpt lat="40.0729375" lon="-105.2308099">
  <ele>1595.56</ele>
  <time>2026-08-28T19:11:39Z</time>
  <course>341.84</course>
  <speed>0.0</speed>
  <fix>3d</fix>
</trkpt>
<trkpt lat="40.0729374" lon="-105.2308097">
  <ele>1595.5</ele>
  <time>2026-08-28T19:11:39Z</time>
  <course>118.93</course>
  <speed>0.02</speed>
  <fix>3d</fix>
</trkpt>
<trkpt lat="40.0729375" lon="-105.2308099">
  <ele>1595.56</ele>
  <time>2026-08-28T19:11:39Z</time>
  <course>343.04</course>
  <speed>0.0</speed>
  <fix>3d</fix>
</trkpt>
<trkpt lat="40.0729374" lon="-105.2308096">
  <ele>1595.5</ele>
  <time>2026-08-28T19:11:39Z</time>
  <course>121.2</course>
  <speed>0.02</speed>
  <fix>3d</fix>
</trkpt>
<trkpt lat="40.0729374" lon="-105.2308098">
  <ele>1595.56</ele>
  <time>2026-08-28T19:11:39Z</time>
  <course>344.5</course>
  <speed>0.0</speed>
  <fix>3d</fix>
</trkpt>
<trkpt lat="40.0729374" lon="-105.2308096">
  <ele>1595.5</ele>
  <time>2026-08-28T19:11:39Z</time>
  <course>121.99</course>
  <speed>0.02</speed>
  <fix>3d</fix>
</trkpt>
<trkpt lat="40.0729374" lon="-105.2308098">
  <ele>1595.56</ele>
  <time>2026-08-28T19:11:39Z</time>
  <course>346.06</course>
  <speed>0.0</speed>
  <fix>3d</fix>
</trkpt>
<trkpt lat="40.0729373" lon="-105.2308096">
  <ele>1595.5</ele>
  <time>2026-08-28T19:11:39Z</time>
  <course>121.67</course>
  <speed>0.02</speed>
  <fix>3d</fix>
</trkpt>
<trkpt lat="40.0729374" lon="-105.2308097">
  <ele>1595.57</ele>
  <time>2026-08-28T19:11:39Z</time>
  <course>347.51</course>
  <speed>0.0</speed>
  <fix>3d</fix>
</trkpt>
<trkpt lat="40.0729373" lon="-105.2308095">
  <ele>1595.5</ele>
  <time>2026-08-28T19:11:39Z</time>
  <course>120.2</course>
  <speed>0.02</speed>
  <fix>3d</fix>
</trkpt>
<trkpt lat="40.0729374" lon="-105.2308097">
  <ele>1595.57</ele>
  <time>2026-08-28T19:11:39Z</time>
  <course>348.77</course>
  <speed>0.0</speed>
  <fix>3d</fix>
</trkpt>
<trkpt lat="40.0729373" lon="-105.2308094">
  <ele>1595.5</ele>
  <time>2026-08-28T19:11:39Z</time>
  <course>117.97</course>
  <speed>0.02</speed>
  <fix>3d</fix>
</trkpt>
<trkpt lat="40.0729374" lon="-105.2308096">
  <ele>1595.58</ele>
  <time>2026-08-28T19:11:39Z</time>
  <course>349.69</course>
  <speed>0.0</speed>
  <fix>3d</fix>
</trkpt>
<trkpt lat="40.0729373" lon="-105.2308094">
  <ele>1595.51</ele>
  <time>2026-08-28T19:11:39Z</time>
  <course>114.74</course>
  <speed>0.02</speed>
  <fix>3d</fix>
</trkpt>
<trkpt lat="40.0729374" lon="-105.2308096">
  <ele>1595.59</ele>
  <time>2026-08-28T19:11:39Z</time>
  <course>350.14</course>
  <speed>0.0</speed>
  <fix>3d</fix>
</trkpt>
<trkpt lat="40.0729373" lon="-105.2308093">
  <ele>1595.51</ele>
  <time>2026-08-28T19:11:39Z</time>
  <course>111.27</course>
  <speed>0.02</speed>
  <fix>3d</fix>
</trkpt>
<trkpt lat="40.0729373" lon="-105.2308095">
  <ele>1595.59</ele>
  <time>2026-08-28T19:11:39Z</time>
  <course>350.15</course>
  <speed>0.0</speed>
  <fix>3d</fix>
</trkpt>
<trkpt lat="40.0729372" lon="-105.2308092">
  <ele>1595.5</ele>
  <time>2026-08-28T19:11:39Z</time>
  <course>108.17</course>
  <speed>0.03</speed>
  <fix>3d</fix>
</trkpt>
<trkpt lat="40.0729373" lon="-105.2308094">
  <ele>1595.59</ele>
  <time>2026-08-28T19:11:39Z</time>
  <course>349.69</course>
  <speed>0.01</speed>
  <fix>3d</fix>
</trkpt>
<trkpt lat="40.0729372" lon="-105.2308092">
  <ele>1595.5</ele>
  <time>2026-08-28T19:11:39Z</time>
  <course>104.88</course>
  <speed>0.03</speed>
  <fix>3d</fix>
</trkpt>
<trkpt lat="40.0729373" lon="-105.2308093">
  <ele>1595.58</ele>
  <time>2026-08-28T19:11:39Z</time>
  <course>348.74</course>
  <speed>0.01</speed>
  <fix>3d</fix>
</trkpt>
<trkpt lat="40.0729372" lon="-105.2308091">
  <ele>1595.5</ele>
  <time>2026-08-28T19:11:39Z</time>
  <course>101.76</course>
  <speed>0.03</speed>
  <fix>3d</fix>
</trkpt>
<trkpt lat="40.0729373" lon="-105.2308092">
  <ele>1595.58</ele>
  <time>2026-08-28T19:11:39Z</time>
  <course>347.5</course>
  <speed>0.01</speed>
  <fix>3d</fix>
</trkpt>
<trkpt lat="40.0729372" lon="-105.230809">
  <ele>1595.49</ele>
  <time>2026-08-28T19:11:39Z</time>
  <course>99.26</course>
  <speed>0.03</speed>
  <fix>3d</fix>
</trkpt>
<trkpt lat="40.0729373" lon="-105.2308092">
  <ele>1595.57</ele>
  <time>2026-08-28T19:11:39Z</time>
  <course>346.03</course>
  <speed>0.01</speed>
  <fix>3d</fix>
</trkpt>
<trkpt lat="40.0729372" lon="-105.2308089">
  <ele>1595.49</ele>
  <time>2026-08-28T19:11:39Z</time>
  <course>97.56</course>
  <speed>0.03</speed>
  <fix>3d</fix>
</trkpt>
<trkpt lat="40.0729373" lon="-105.2308091">
  <ele>1595.57</ele>
  <time>2026-08-28T19:11:39Z</time>
  <course>344.47</course>
  <speed>0.01</speed>
  <fix>3d</fix>
</trkpt>
<trkpt lat="40.0729372" lon="-105.2308088">
  <ele>1595.49</ele>
  <time>2026-08-28T19:11:39Z</time>
  <course>96.87</course>
  <speed>0.03</speed>
  <fix>3d</fix>
</trkpt>
<trkpt lat="40.0729373" lon="-105.230809">
  <ele>1595.57</ele>
  <time>2026-08-28T19:11:39Z</time>
  <course>342.96</course>
  <speed>0.0</speed>
  <fix>3d</fix>
</trkpt>
<trkpt lat="40.0729372" lon="-105.2308087">
  <ele>1595.48</ele>
  <time>2026-08-28T19:11:39Z</time>
  <course>96.56</course>
  <speed>0.03</speed>
  <fix>3d</fix>
</trkpt>
<trkpt lat="40.0729373" lon="-105.2308089">
  <ele>1595.56</ele>
  <time>2026-08-28T19:11:39Z</time>
  <course>341.74</course>
  <speed>0.0</speed>
  <fix>3d</fix>
</trkpt>
<trkpt lat="40.0729372" lon="-105.2308087">
  <ele>1595.48</ele>
  <time>2026-08-28T19:11:39Z</time>
  <course>97.25</course>
  <speed>0.03</speed>
  <fix>3d</fix>
</trkpt>
<trkpt lat="40.0729373" lon="-105.2308089">
  <ele>1595.56</ele>
  <time>2026-08-28T19:11:39Z</time>
  <course>340.83</course>
  <speed>0.0</speed>
  <fix>3d</fix>
</trkpt>
<trkpt lat="40.0729372" lon="-105.2308086">
  <ele>1595.48</ele>
  <time>2026-08-28T19:11:39Z</time>
  <course>99.51</course>
  <speed>0.02</speed>
  <fix>3d</fix>
</trkpt>
<trkpt lat="40.0729373" lon="-105.2308088">
  <ele>1595.56</ele>
  <time>2026-08-28T19:11:39Z</time>
  <course>340.37</course>
  <speed>0.0</speed>
  <fix>3d</fix>
</trkpt>
<trkpt lat="40.0729371" lon="-105.2308085">
  <ele>1595.48</ele>
  <time>2026-08-28T19:11:39Z</time>
  <course>103.19</course>
  <speed>0.02</speed>
  <fix>3d</fix>
</trkpt>
<trkpt lat="40.0729373" lon="-105.2308087">
  <ele>1595.56</ele>
  <time>2026-08-28T19:11:39Z</time>
  <course>340.4</course>
  <speed>0.0</speed>
  <fix>3d</fix>
</trkpt>
<trkpt lat="40.0729371" lon="-105.2308085">
  <ele>1595.48</ele>
  <time>2026-08-28T19:11:39Z</time>
  <course>107.95</course>
  <speed>0.02</speed>
  <fix>3d</fix>
</trkpt>
<trkpt lat="40.0729373" lon="-105.2308087">
  <ele>1595.56</ele>
  <time>2026-08-28T19:11:39Z</time>
  <course>340.88</course>
  <speed>0.0</speed>
  <fix>3d</fix>
</trkpt>
<trkpt lat="40.0729371" lon="-105.2308085">
  <ele>1595.48</ele>
  <time>2026-08-28T19:11:39Z</time>
  <course>113.37</course>
  <speed>0.02</speed>
  <fix>3d</fix>
</trkpt>
<trkpt lat="40.0729372" lon="-105.2308086">
  <ele>1595.56</ele>
  <time>2026-08-28T19:11:39Z</time>
  <course>341.81</course>
  <speed>0.0</speed>
  <fix>3d</fix>
</trkpt>
<trkpt lat="40.0729371" lon="-105.2308084">
  <ele>1595.48</ele>
  <time>2026-08-28T19:11:39Z</time>
  <course>118.94</course>
  <speed>0.02</speed>
  <fix>3d</fix>
</trkpt>
<trkpt lat="40.0729372" lon="-105.2308086">
  <ele>1595.57</ele>
  <time>2026-08-28T19:11:39Z</time>
  <course>343.11</course>
  <speed>0.0</speed>
  <fix>3d</fix>
</trkpt>
<trkpt lat="40.0729371" lon="-105.2308084">
  <ele>1595.48</ele>
  <time>2026-08-28T19:11:39Z</time>
  <course>122.82</course>
  <speed>0.02</speed>
  <fix>3d</fix>
</trkpt>
<trkpt lat="40.0729372" lon="-105.2308086">
  <ele>1595.57</ele>
  <time>2026-08-28T19:11:39Z</time>
  <course>344.58</course>
  <speed>0.0</speed>
  <fix>3d</fix>
</trkpt>
<trkpt lat="40.0729371" lon="-105.2308083">
  <ele>1595.49</ele>
  <time>2026-08-28T19:11:39Z</time>
  <course>123.92</course>
  <speed>0.02</speed>
  <fix>3d</fix>
</trkpt>
<trkpt lat="40.0729372" lon="-105.2308085">
  <ele>1595.57</ele>
  <time>2026-08-28T19:11:39Z</time>
  <course>346.1</course>
  <speed>0.0</speed>
  <fix>3d</fix>
</trkpt>
<trkpt lat="40.072937" lon="-105.2308082">
  <ele>1595.49</ele>
  <time>2026-08-28T19:11:39Z</time>
  <course>123.87</course>
  <speed>0.02</speed>
  <fix>3d</fix>
</trkpt>
<trkpt lat="40.0729371" lon="-105.2308085">
  <ele>1595.57</ele>
  <time>2026-08-28T19:11:39Z</time>
  <course>347.57</course>
  <speed>0.0</speed>
  <fix>3d</fix>
</trkpt>
<trkpt lat="40.0729369" lon="-105.2308082">
  <ele>1595.49</ele>
  <time>2026-08-28T19:11:39Z</time>
  <course>123.98</course>
  <speed>0.02</speed>
  <fix>3d</fix>
</trkpt>
<trkpt lat="40.0729371" lon="-105.2308084">
  <ele>1595.57</ele>
  <time>2026-08-28T19:11:39Z</time>
  <course>348.78</course>
  <speed>0.0</speed>
  <fix>3d</fix>
</trkpt>
<trkpt lat="40.0729369" lon="-105.2308082">
  <ele>1595.49</ele>
  <time>2026-08-28T19:11:39Z</time>
  <course>123.18</course>
  <speed>0.02</speed>
  <fix>3d</fix>
</trkpt>
<trkpt lat="40.0729371" lon="-105.2308084">
  <ele>1595.57</ele>
  <time>2026-08-28T19:11:39Z</time>
  <course>349.69</course>
  <speed>0.0</speed>
  <fix>3d</fix>
</trkpt>
<trkpt lat="40.0729369" lon="-105.2308081">
  <ele>1595.49</ele>
  <time>2026-08-28T19:11:39Z</time>
  <course>120.24</course>
  <speed>0.02</speed>
  <fix>3d</fix>
</trkpt>
<trkpt lat="40.072937" lon="-105.2308083">
  <ele>1595.57</ele>
  <time>2026-08-28T19:11:39Z</time>
  <course>350.13</course>
  <speed>0.0</speed>
  <fix>3d</fix>
</trkpt>
<trkpt lat="40.0729369" lon="-105.230808">
  <ele>1595.49</ele>
  <time>2026-08-28T19:11:39Z</time>
  <course>115.61</course>
  <speed>0.02</speed>
  <fix>3d</fix>
</trkpt>
<trkpt lat="40.072937" lon="-105.2308082">
  <ele>1595.58</ele>
  <time>2026-08-28T19:11:39Z</time>
  <course>350.11</course>
  <speed>0.0</speed>
  <fix>3d</fix>
</trkpt>
<trkpt lat="40.0729368" lon="-105.230808">
  <ele>1595.49</ele>
  <time>2026-08-28T19:11:39Z</time>
  <course>110.33</course>
  <speed>0.03</speed>
  <fix>3d</fix>
</trkpt>
<trkpt lat="40.072937" lon="-105.2308082">
  <ele>1595.58</ele>
  <time>2026-08-28T19:11:39Z</time>
  <course>349.64</course>
  <speed>0.0</speed>
  <fix>3d</fix>
</trkpt>
<trkpt lat="40.0729368" lon="-105.2308079">
  <ele>1595.49</ele>
  <time>2026-08-28T19:11:39Z</time>
  <course>105.4</course>
  <speed>0.03</speed>
  <fix>3d</fix>
</trkpt>
<trkpt lat="40.072937" lon="-105.2308081">
  <ele>1595.57</ele>
  <time>2026-08-28T19:11:39Z</time>
  <course>348.72</course>
  <speed>0.01</speed>
  <fix>3d</fix>
</trkpt>
<trkpt lat="40.0729368" lon="-105.2308078">
  <ele>1595.48</ele>
  <time>2026-08-28T19:11:39Z</time>
  <course>101.26</course>
  <speed>0.03</speed>
  <fix>3d</fix>
</trkpt>
<trkpt lat="40.072937" lon="-105.230808">
  <ele>1595.57</ele>
  <time>2026-08-28T19:11:39Z</time>
  <course>347.46</course>
  <speed>0.01</speed>
  <fix>3d</fix>
</trkpt>
<trkpt lat="40.0729368" lon="-105.2308077">
  <ele>1595.48</ele>
  <time>2026-08-28T19:11:39Z</time>
  <course>98.16</course>
  <speed>0.03</speed>
  <fix>3d</fix>
</trkpt>
<trkpt lat="40.072937" lon="-105.2308079">
  <ele>1595.57</ele>
  <time>2026-08-28T19:11:39Z</time>
  <course>345.97</course>
  <speed>0.01</speed>
  <fix>3d</fix>
</trkpt>
<trkpt lat="40.0729368" lon="-105.2308077">
  <ele>1595.48</ele>
  <time>2026-08-28T19:11:39Z</time>
  <course>96.24</course>
  <speed>0.03</speed>
  <fix>3d</fix>
</trkpt>
<trkpt lat="40.0729369" lon="-105.2308078">
  <ele>1595.57</ele>
  <time>2026-08-28T19:11:39Z</time>
  <course>344.43</course>
  <speed>0.0</speed>
  <fix>3d</fix>
</trkpt>
<trkpt lat="40.0729368" lon="-105.2308076">
  <ele>1595.48</ele>
  <time>2026-08-28T19:11:39Z</time>
  <course>94.71</course>
  <speed>0.03</speed>
  <fix>3d</fix>
</trkpt>
<trkpt lat="40.0729369" lon="-105.2308078">
  <ele>1595.57</ele>
  <time>2026-08-28T19:11:39Z</time>
  <course>342.96</course>
  <speed>0.0</speed>
  <fix>3d</fix>
</trkpt>
<trkpt lat="40.0729368" lon="-105.2308075">
  <ele>1595.48</ele>
  <time>2026-08-28T19:11:39Z</time>
  <course>93.61</course>
  <speed>0.03</speed>
  <fix>3d</fix>
</trkpt>
<trkpt lat="40.0729369" lon="-105.2308077">
  <ele>1595.57</ele>
  <time>2026-08-28T19:11:39Z</time>
  <course>341.75</course>
  <speed>0.0</speed>
  <fix>3d</fix>
</trkpt>
<trkpt lat="40.0729368" lon="-105.2308075">
  <ele>1595.48</ele>
  <time>2026-08-28T19:11:39Z</time>
  <course>94.06</course>
  <speed>0.02</speed>
  <fix>3d</fix>
</trkpt>
<trkpt lat="40.0729369" lon="-105.2308076">
  <ele>1595.57</ele>
  <time>2026-08-28T19:11:39Z</time>
  <course>340.88</course>
  <speed>0.0</speed>
  <fix>3d</fix>
</trkpt>
<trkpt lat="40.0729368" lon="-105.2308074">
  <ele>1595.48</ele>
  <time>2026-08-28T19:11:39Z</time>
  <course>96.18</course>
  <speed>0.02</speed>
  <fix>3d</fix>
</trkpt>
<trkpt lat="40.0729369" lon="-105.2308076">
  <ele>1595.57</ele>
  <time>2026-08-28T19:11:39Z</time>
  <course>340.39</course>
  <speed>0.0</speed>
  <fix>3d</fix>
</trkpt>
<trkpt lat="40.0729368" lon="-105.2308073">
  <ele>1595.48</ele>
  <time>2026-08-28T19:11:39Z</time>
  <course>99.89</course>
  <speed>0.02</speed>
  <fix>3d</fix>
</trkpt>
<trkpt lat="40.0729369" lon="-105.2308075">
  <ele>1595.56</ele>
  <time>2026-08-28T19:11:39Z</time>
  <course>340.4</course>
  <speed>0.0</speed>
  <fix>3d</fix>
</trkpt>
<trkpt lat="40.0729368" lon="-105.2308073">
  <ele>1595.48</ele>
  <time>2026-08-28T19:11:39Z</time>
  <course>105.84</course>
  <speed>0.02</speed>
  <fix>3d</fix>
</trkpt>
<trkpt lat="40.0729369" lon="-105.2308075">
  <ele>1595.56</ele>
  <time>2026-08-28T19:11:39Z</time>
  <course>340.88</course>
  <speed>0.0</speed>
  <fix>3d</fix>
</trkpt>
<trkpt lat="40.0729368" lon="-105.2308072">
  <ele>1595.48</ele>
  <time>2026-08-28T19:11:39Z</time>
  <course>112.91</course>
  <speed>0.02</speed>
  <fix>3d</fix>
</trkpt>
<trkpt lat="40.0729369" lon="-105.2308074">
  <ele>1595.57</ele>
  <time>2026-08-28T19:11:39Z</time>
  <course>341.81</course>
  <speed>0.0</speed>
  <fix>3d</fix>
</trkpt>
<trkpt lat="40.0729368" lon="-105.2308072">
  <ele>1595.48</ele>
  <time>2026-08-28T19:11:39Z</time>
  <course>118.53</course>
  <speed>0.02</speed>
  <fix>3d</fix>
</trkpt>
<trkpt lat="40.0729369" lon="-105.2308074">
  <ele>1595.57</ele>
  <time>2026-08-28T19:11:39Z</time>
  <course>343.1</course>
  <speed>0.0</speed>
  <fix>3d</fix>
</trkpt>
<trkpt lat="40.0729368" lon="-105.2308071">
  <ele>1595.48</ele>
  <time>2026-08-28T19:11:39Z</time>
  <course>120.96</course>
  <speed>0.02</speed>
  <fix>3d</fix>
</trkpt>
<trkpt lat="40.0729368" lon="-105.2308073">
  <ele>1595.57</ele>
  <time>2026-08-28T19:11:39Z</time>
  <course>344.59</course>
  <speed>0.0</speed>
  <fix>3d</fix>
</trkpt>
<trkpt lat="40.0729368" lon="-105.230807">
  <ele>1595.48</ele>
  <time>2026-08-28T19:11:39Z</time>
  <course>120.88</course>
  <speed>0.02</speed>
  <fix>3d</fix>
</trkpt>
<trkpt lat="40.0729368" lon="-105.2308073">
  <ele>1595.57</ele>
  <time>2026-08-28T19:11:39Z</time>
  <course>346.1</course>
  <speed>0.0</speed>
  <fix>3d</fix>
</trkpt>
<trkpt lat="40.0729367" lon="-105.230807">
  <ele>1595.48</ele>
  <time>2026-08-28T19:11:39Z</time>
  <course>119.51</course>
  <speed>0.02</speed>
  <fix>3d</fix>
</trkpt>
<trkpt lat="40.0729368" lon="-105.2308072">
  <ele>1595.57</ele>
  <time>2026-08-28T19:11:39Z</time>
  <course>347.51</course>
  <speed>0.0</speed>
  <fix>3d</fix>
</trkpt>
<trkpt lat="40.0729367" lon="-105.230807">
  <ele>1595.48</ele>
  <time>2026-08-28T19:11:39Z</time>
  <course>116.8</course>
  <speed>0.02</speed>
  <fix>3d</fix>
</trkpt>
<trkpt lat="40.0729368" lon="-105.2308072">
  <ele>1595.57</ele>
  <time>2026-08-28T19:11:39Z</time>
  <course>348.77</course>
  <speed>0.0</speed>
  <fix>3d</fix>
</trkpt>
<trkpt lat="40.0729367" lon="-105.2308069">
  <ele>1595.48</ele>
  <time>2026-08-28T19:11:39Z</time>
  <course>113.98</course>
  <speed>0.02</speed>
  <fix>3d</fix>
</trkpt>
<trkpt lat="40.0729368" lon="-105.2308071">
  <ele>1595.57</ele>
  <time>2026-08-28T19:11:39Z</time>
  <course>349.67</course>
  <speed>0.0</speed>
  <fix>3d</fix>
</trkpt>
<trkpt lat="40.0729367" lon="-105.2308068">
  <ele>1595.48</ele>
  <time>2026-08-28T19:11:39Z</time>
  <course>110.83</course>
  <speed>0.02</speed>
  <fix>3d</fix>
</trkpt>
<trkpt lat="40.0729368" lon="-105.230807">
  <ele>1595.57</ele>
  <time>2026-08-28T19:11:39Z</time>
  <course>350.13</course>
  <speed>0.0</speed>
  <fix>3d</fix>
</trkpt>
<trkpt lat="40.0729367" lon="-105.2308068">
  <ele>1595.48</ele>
  <time>2026-08-28T19:11:39Z</time>
  <course>106.74</course>
  <speed>0.02</speed>
  <fix>3d</fix>
</trkpt>
<trkpt lat="40.0729368" lon="-105.230807">
  <ele>1595.57</ele>
  <time>2026-08-28T19:11:39Z</time>
  <course>350.09</course>
  <speed>0.0</speed>
  <fix>3d</fix>
</trkpt>
<trkpt lat="40.0729366" lon="-105.2308067">
  <ele>1595.48</ele>
  <time>2026-08-28T19:11:39Z</time>
  <course>102.96</course>
  <speed>0.03</speed>
  <fix>3d</fix>
</trkpt>
<trkpt lat="40.0729368" lon="-105.2308069">
  <ele>1595.57</ele>
  <time>2026-08-28T19:11:39Z</time>
  <course>349.61</course>
  <speed>0.01</speed>
  <fix>3d</fix>
</trkpt>
<trkpt lat="40.0729366" lon="-105.2308067">
  <ele>1595.48</ele>
  <time>2026-08-28T19:11:39Z</time>
  <course>100.07</course>
  <speed>0.03</speed>
  <fix>3d</fix>
</trkpt>
<trkpt lat="40.0729367" lon="-105.2308068">
  <ele>1595.57</ele>
  <time>2026-08-28T19:11:39Z</time>
  <course>348.7</course>
  <speed>0.01</speed>
  <fix>3d</fix>
</trkpt>
<trkpt lat="40.0729366" lon="-105.2308066">
  <ele>1595.48</ele>
  <time>2026-08-28T19:11:39Z</time>
  <course>98.43</course>
  <speed>0.03</speed>
  <fix>3d</fix>
</trkpt>
<trkpt lat="40.0729367" lon="-105.2308067">
  <ele>1595.57</ele>
  <time>2026-08-28T19:11:39Z</time>
  <course>347.42</course>
  <speed>0.01</speed>
  <fix>3d</fix>
</trkpt>
<trkpt lat="40.0729366" lon="-105.2308065">
  <ele>1595.48</ele>
  <time>2026-08-28T19:11:39Z</time>
  <course>97.84</course>
  <speed>0.03</speed>
  <fix>3d</fix>
</trkpt>
<trkpt lat="40.0729367" lon="-105.2308066">
  <ele>1595.57</ele>
  <time>2026-08-28T19:11:39Z</time>
  <course>345.93</course>
  <speed>0.01</speed>
  <fix>3d</fix>
</trkpt>
<trkpt lat="40.0729366" lon="-105.2308064">
  <ele>1595.48</ele>
  <time>2026-08-28T19:11:39Z</time>
  <course>97.62</course>
  <speed>0.03</speed>
  <fix>3d</fix>
</trkpt>
<trkpt lat="40.0729367" lon="-105.2308066">
  <ele>1595.57</ele>
  <time>2026-08-28T19:11:39Z</time>
  <course>344.43</course>
  <speed>0.0</speed>
  <fix>3d</fix>
</trkpt>
<trkpt lat="40.0729366" lon="-105.2308063">
  <ele>1595.48</ele>
  <time>2026-08-28T19:11:39Z</time>
  <course>97.31</course>
  <speed>0.03</speed>
  <fix>3d</fix>
</trkpt>
<trkpt lat="40.0729367" lon="-105.2308065">
  <ele>1595.57</ele>
  <time>2026-08-28T19:11:39Z</time>
  <course>343.0</course>
  <speed>0.0</speed>
  <fix>3d</fix>
</trkpt>
<trkpt lat="40.0729366" lon="-105.2308063">
  <ele>1595.48</ele>
  <time>2026-08-28T19:11:39Z</time>
  <course>97.68</course>
  <speed>0.03</speed>
  <fix>3d</fix>
</trkpt>
<trkpt lat="40.0729367" lon="-105.2308064">
  <ele>1595.56</ele>
  <time>2026-08-28T19:11:39Z</time>
  <course>341.74</course>
  <speed>0.0</speed>
  <fix>3d</fix>
</trkpt>
<trkpt lat="40.0729366" lon="-105.2308062">
  <ele>1595.48</ele>
  <time>2026-08-28T19:11:39Z</time>
  <course>98.82</course>
  <speed>0.02</speed>
  <fix>3d</fix>
</trkpt>
<trkpt lat="40.0729367" lon="-105.2308064">
  <ele>1595.56</ele>
  <time>2026-08-28T19:11:39Z</time>
  <course>340.83</course>
  <speed>0.0</speed>
  <fix>3d</fix>
</trkpt>
<trkpt lat="40.0729366" lon="-105.2308061">
  <ele>1595.48</ele>
  <time>2026-08-28T19:11:39Z</time>
  <course>100.45</course>
  <speed>0.02</speed>
  <fix>3d</fix>
</trkpt>
<trkpt lat="40.0729367" lon="-105.2308063">
  <ele>1595.56</ele>
  <time>2026-08-28T19:11:39Z</time>
  <course>340.38</course>
  <speed>0.0</speed>
  <fix>3d</fix>
</trkpt>
<trkpt lat="40.0729366" lon="-105.2308061">
  <ele>1595.48</ele>
  <time>2026-08-28T19:11:39Z</time>
  <course>103.36</course>
  <speed>0.02</speed>
  <fix>3d</fix>
</trkpt>
<trkpt lat="40.0729367" lon="-105.2308062">
  <ele>1595.56</ele>
  <time>2026-08-28T19:11:39Z</time>
  <course>340.33</course>
  <speed>0.0</speed>
  <fix>3d</fix>
</trkpt>
<trkpt lat="40.0729366" lon="-105.230806">
  <ele>1595.48</ele>
  <time>2026-08-28T19:11:39Z</time>
  <course>106.36</course>
  <speed>0.02</speed>
  <fix>3d</fix>
</trkpt>
<trkpt lat="40.0729367" lon="-105.2308062">
  <ele>1595.56</ele>
  <time>2026-08-28T19:11:39Z</time>
  <course>340.35</course>
  <speed>0.0</speed>
  <fix>3d</fix>
</trkpt>
<trkpt lat="40.0729365" lon="-105.230806">
  <ele>1595.48</ele>
  <time>2026-08-28T19:11:39Z</time>
  <course>106.26</course>
  <speed>0.02</speed>
  <fix>3d</fix>
</trkpt>
<trkpt lat="40.0729367" lon="-105.2308062">
  <ele>1595.56</ele>
  <time>2026-08-28T19:11:39Z</time>
  <course>340.36</course>
  <speed>0.0</speed>
  <fix>3d</fix>
</trkpt>
<trkpt lat="40.0729365" lon="-105.2308059">
  <ele>1595.48</ele>
  <time>2026-08-28T19:11:39Z</time>
  <course>104.08</course>
  <speed>0.02</speed>
  <fix>3d</fix>
</trkpt>
<trkpt lat="40.0729367" lon="-105.2308061">
  <ele>1595.56</ele>
  <time>2026-08-28T19:11:39Z</time>
  <course>340.36</course>
  <speed>0.0</speed>
  <fix>3d</fix>
</trkpt>
<trkpt lat="40.0729365" lon="-105.2308058">
  <ele>1595.49</ele>
  <time>2026-08-28T19:11:39Z</time>
  <course>102.05</course>
  <speed>0.02</speed>
  <fix>3d</fix>
</trkpt>
<trkpt lat="40.0729366" lon="-105.230806">
  <ele>1595.56</ele>
  <time>2026-08-28T19:11:39Z</time>
  <course>340.36</course>
  <speed>0.0</speed>
  <fix>3d</fix>
</trkpt>
<trkpt lat="40.0729365" lon="-105.2308058">
  <ele>1595.49</ele>
  <time>2026-08-28T19:11:39Z</time>
  <course>100.38</course>
  <speed>0.02</speed>
  <fix>3d</fix>
</trkpt>
<trkpt lat="40.0729366" lon="-105.230806">
  <ele>1595.57</ele>
  <time>2026-08-28T19:11:39Z</time>
  <course>340.36</course>
  <speed>0.0</speed>
  <fix>3d</fix>
</trkpt>
<trkpt lat="40.0729365" lon="-105.2308057">
  <ele>1595.49</ele>
  <time>2026-08-28T19:11:39Z</time>
  <course>99.11</course>
  <speed>0.02</speed>
  <fix>3d</fix>
</trkpt>
<trkpt lat="40.0729366" lon="-105.2308059">
  <ele>1595.57</ele>
  <time>2026-08-28T19:11:39Z</time>
  <course>340.37</course>
  <speed>0.0</speed>
  <fix>3d</fix>
</trkpt>
<trkpt lat="40.0729365" lon="-105.2308056">
  <ele>1595.49</ele>
  <time>2026-08-28T19:11:39Z</time>
  <course>97.95</course>
  <speed>0.02</speed>
  <fix>3d</fix>
</trkpt>
<trkpt lat="40.0729366" lon="-105.2308059">
  <ele>1595.57</ele>
  <time>2026-08-28T19:11:39Z</time>
  <course>340.37</course>
  <speed>0.0</speed>
  <fix>3d</fix>
</trkpt>
<trkpt lat="40.0729365" lon="-105.2308056">
  <ele>1595.5</ele>
  <time>2026-08-28T19:11:39Z</time>
  <course>97.1</course>
  <speed>0.02</speed>
  <fix>3d</fix>
</trkpt>
<trkpt lat="40.0729366" lon="-105.2308058">
  <ele>1595.57</ele>
  <time>2026-08-28T19:11:39Z</time>
  <course>340.37</course>
  <speed>0.0</speed>
  <fix>3d</fix>
</trkpt>
<trkpt lat="40.0729365" lon="-105.2308055">
  <ele>1595.5</ele>
  <time>2026-08-28T19:11:39Z</time>
  <course>96.23</course>
  <speed>0.02</speed>
  <fix>3d</fix>
</trkpt>
<trkpt lat="40.0729366" lon="-105.2308057">
  <ele>1595.57</ele>
  <time>2026-08-28T19:11:39Z</time>
  <course>340.37</course>
  <speed>0.0</speed>
  <fix>3d</fix>
</trkpt>
<trkpt lat="40.0729365" lon="-105.2308054">
  <ele>1595.5</ele>
  <time>2026-08-28T19:11:39Z</time>
  <course>95.4</course>
  <speed>0.02</speed>
  <fix>3d</fix>
</trkpt>
<trkpt lat="40.0729366" lon="-105.2308056">
  <ele>1595.57</ele>
  <time>2026-08-28T19:11:39Z</time>
  <course>340.37</course>
  <speed>0.0</speed>
  <fix>3d</fix>
</trkpt>
<trkpt lat="40.0729365" lon="-105.2308054">
  <ele>1595.5</ele>
  <time>2026-08-28T19:11:39Z</time>
  <course>94.6</course>
  <speed>0.02</speed>
  <fix>3d</fix>
</trkpt>
<trkpt lat="40.0729366" lon="-105.2308056">
  <ele>1595.57</ele>
  <time>2026-08-28T19:11:39Z</time>
  <course>340.37</course>
  <speed>0.0</speed>
  <fix>3d</fix>
</trkpt>
<trkpt lat="40.0729365" lon="-105.2308054">
  <ele>1595.5</ele>
  <time>2026-08-28T19:11:39Z</time>
  <course>93.83</course>
  <speed>0.02</speed>
  <fix>3d</fix>
</trkpt>
<trkpt lat="40.0729366" lon="-105.2308055">
  <ele>1595.56</ele>
  <time>2026-08-28T19:11:39Z</time>
  <course>340.37</course>
  <speed>0.0</speed>
  <fix>3d</fix>
</trkpt>
<trkpt lat="40.0729365" lon="-105.2308053">
  <ele>1595.5</ele>
  <time>2026-08-28T19:11:39Z</time>
  <course>93.12</course>
  <speed>0.02</speed>
  <fix>3d</fix>
</trkpt>
<trkpt lat="40.0729366" lon="-105.2308055">
  <ele>1595.56</ele>
  <time>2026-08-28T19:11:39Z</time>
  <course>340.36</course>
  <speed>0.01</speed>
  <fix>3d</fix>
</trkpt>
<trkpt lat="40.0729365" lon="-105.2308052">
  <ele>1595.5</ele>
  <time>2026-08-28T19:11:39Z</time>
  <course>92.4</course>
  <speed>0.02</speed>
  <fix>3d</fix>
</trkpt>
<trkpt lat="40.0729366" lon="-105.2308054">
  <ele>1595.56</ele>
  <time>2026-08-28T19:11:39Z</time>
  <course>340.36</course>
  <speed>0.01</speed>
  <fix>3d</fix>
</trkpt>
<trkpt lat="40.0729365" lon="-105.2308051">
  <ele>1595.5</ele>
  <time>2026-08-28T19:11:39Z</time>
  <course>91.44</course>
  <speed>0.02</speed>
  <fix>3d</fix>
</trkpt>
<trkpt lat="40.0729366" lon="-105.2308053">
  <ele>1595.57</ele>
  <time>2026-08-28T19:11:39Z</time>
  <course>340.34</course>
  <speed>0.01</speed>
  <fix>3d</fix>
</trkpt>
<trkpt lat="40.0729365" lon="-105.2308051">
  <ele>1595.5</ele>
  <time>2026-08-28T19:11:39Z</time>
  <course>90.22</course>
  <speed>0.02</speed>
  <fix>3d</fix>
</trkpt>
<trkpt lat="40.0729366" lon="-105.2308053">
  <ele>1595.57</ele>
  <time>2026-08-28T19:11:39Z</time>
  <course>340.36</course>
  <speed>0.01</speed>
  <fix>3d</fix>
</trkpt>
<trkpt lat="40.0729365" lon="-105.230805">
  <ele>1595.5</ele>
  <time>2026-08-28T19:11:39Z</time>
  <course>89.23</course>
  <speed>0.02</speed>
  <fix>3d</fix>
</trkpt>
<trkpt lat="40.0729366" lon="-105.2308052">
  <ele>1595.58</ele>
  <time>2026-08-28T19:11:39Z</time>
  <course>339.86</course>
  <speed>0.01</speed>
  <fix>3d</fix>
</trkpt>
<trkpt lat="40.0729365" lon="-105.2308049">
  <ele>1595.5</ele>
  <time>2026-08-28T19:11:39Z</time>
  <course>87.6</course>
  <speed>0.03</speed>
  <fix>3d</fix>
</trkpt>
<trkpt lat="40.0729366" lon="-105.2308051">
  <ele>1595.58</ele>
  <time>2026-08-28T19:11:39Z</time>
  <course>338.6</course>
  <speed>0.01</speed>
  <fix>3d</fix>
</trkpt>
<trkpt lat="40.0729365" lon="-105.2308049">
  <ele>1595.51</ele>
  <time>2026-08-28T19:11:39Z</time>
  <course>85.82</course>
  <speed>0.03</speed>
  <fix>3d</fix>
</trkpt>
<trkpt lat="40.0729366" lon="-105.230805">
  <ele>1595.57</ele>
  <time>2026-08-28T19:11:39Z</time>
  <course>337.3</course>
  <speed>0.01</speed>
  <fix>3d</fix>
</trkpt>
<trkpt lat="40.0729365" lon="-105.2308048">
  <ele>1595.51</ele>
  <time>2026-08-28T19:11:39Z</time>
  <course>85.53</course>
  <speed>0.03</speed>
  <fix>3d</fix>
</trkpt>
<trkpt lat="40.0729366" lon="-105.230805">
  <ele>1595.57</ele>
  <time>2026-08-28T19:11:39Z</time>
  <course>336.26</course>
  <speed>0.01</speed>
  <fix>3d</fix>
</trkpt>
<trkpt lat="40.0729365" lon="-105.2308047">
  <ele>1595.51</ele>
  <time>2026-08-28T19:11:39Z</time>
  <course>87.13</course>
  <speed>0.03</speed>
  <fix>3d</fix>
</trkpt>
<trkpt lat="40.0729366" lon="-105.2308049">
  <ele>1595.57</ele>
  <time>2026-08-28T19:11:39Z</time>
  <course>335.62</course>
  <speed>0.0</speed>
  <fix>3d</fix>
</trkpt>
<trkpt lat="40.0729365" lon="-105.2308046">
  <ele>1595.5</ele>
  <time>2026-08-28T19:11:39Z</time>
  <course>90.73</course>
  <speed>0.02</speed>
  <fix>3d</fix>
</trkpt>
<trkpt lat="40.0729366" lon="-105.2308048">
  <ele>1595.57</ele>
  <time>2026-08-28T19:11:39Z</time>
  <course>335.44</course>
  <speed>0.0</speed>
  <fix>3d</fix>
</trkpt>
<trkpt lat="40.0729365" lon="-105.2308046">
  <ele>1595.5</ele>
  <time>2026-08-28T19:11:39Z</time>
  <course>96.28</course>
  <speed>0.02</speed>
  <fix>3d</fix>
</trkpt>
<trkpt lat="40.0729366" lon="-105.2308048">
  <ele>1595.56</ele>
  <time>2026-08-28T19:11:39Z</time>
  <course>335.76</course>
  <speed>0.0</speed>
  <fix>3d</fix>
</trkpt>
<trkpt lat="40.0729365" lon="-105.2308045">
  <ele>1595.5</ele>
  <time>2026-08-28T19:11:39Z</time>
  <course>102.5</course>
  <speed>0.02</speed>
  <fix>3d</fix>
</trkpt>
<trkpt lat="40.0729366" lon="-105.2308047">
  <ele>1595.56</ele>
  <time>2026-08-28T19:11:39Z</time>
  <course>336.51</course>
  <speed>0.0</speed>
  <fix>3d</fix>
</trkpt>
<trkpt lat="40.0729365" lon="-105.2308044">
  <ele>1595.5</ele>
  <time>2026-08-28T19:11:39Z</time>
  <course>107.56</course>
  <speed>0.02</speed>
  <fix>3d</fix>
</trkpt>
<trkpt lat="40.0729366" lon="-105.2308047">
  <ele>1595.57</ele>
  <time>2026-08-28T19:11:39Z</time>
  <course>337.67</course>
  <speed>0.0</speed>
  <fix>3d</fix>
</trkpt>
<trkpt lat="40.0729364" lon="-105.2308044">
  <ele>1595.51</ele>
  <time>2026-08-28T19:11:39Z</time>
  <course>111.33</course>
  <speed>0.02</speed>
  <fix>3d</fix>
</trkpt>
<trkpt lat="40.0729366" lon="-105.2308046">
  <ele>1595.57</ele>
  <time>2026-08-28T19:11:39Z</time>
  <course>339.04</course>
  <speed>0.0</speed>
  <fix>3d</fix>
</trkpt>
<trkpt lat="40.0729363" lon="-105.2308044">
  <ele>1595.51</ele>
  <time>2026-08-28T19:11:39Z</time>
  <course>114.27</course>
  <speed>0.02</speed>
  <fix>3d</fix>
</trkpt>
<trkpt lat="40.0729365" lon="-105.2308046">
  <ele>1595.57</ele>
  <time>2026-08-28T19:11:39Z</time>
  <course>340.56</course>
  <speed>0.0</speed>
  <fix>3d</fix>
</trkpt>
<trkpt lat="40.0729363" lon="-105.2308043">
  <ele>1595.51</ele>
  <time>2026-08-28T19:11:39Z</time>
  <course>116.06</course>
  <speed>0.02</speed>
  <fix>3d</fix>
</trkpt>
<trkpt lat="40.0729365" lon="-105.2308045">
  <ele>1595.57</ele>
  <time>2026-08-28T19:11:39Z</time>
  <course>342.11</course>
  <speed>0.0</speed>
  <fix>3d</fix>
</trkpt>
<trkpt lat="40.0729363" lon="-105.2308042">
  <ele>1595.51</ele>
  <time>2026-08-28T19:11:39Z</time>
  <course>116.61</course>
  <speed>0.02</speed>
  <fix>3d</fix>
</trkpt>
<trkpt lat="40.0729365" lon="-105.2308045">
  <ele>1595.57</ele>
  <time>2026-08-28T19:11:39Z</time>
  <course>343.44</course>
  <speed>0.0</speed>
  <fix>3d</fix>
</trkpt>
<trkpt lat="40.0729363" lon="-105.2308042">
  <ele>1595.51</ele>
  <time>2026-08-28T19:11:39Z</time>
  <course>115.06</course>
  <speed>0.02</speed>
  <fix>3d</fix>
</trkpt>
<trkpt lat="40.0729364" lon="-105.2308044">
  <ele>1595.57</ele>
  <time>2026-08-28T19:11:39Z</time>
  <course>344.47</course>
  <speed>0.0</speed>
  <fix>3d</fix>
</trkpt>
<trkpt lat="40.0729363" lon="-105.2308041">
  <ele>1595.51</ele>
  <time>2026-08-28T19:11:39Z</time>
  <course>111.56</course>
  <speed>0.02</speed>
  <fix>3d</fix>
</trkpt>
<trkpt lat="40.0729364" lon="-105.2308043">
  <ele>1595.57</ele>
  <time>2026-08-28T19:11:39Z</time>
  <course>345.12</course>
  <speed>0.0</speed>
  <fix>3d</fix>
</trkpt>
<trkpt lat="40.0729362" lon="-105.2308041">
  <ele>1595.51</ele>
  <time>2026-08-28T19:11:39Z</time>
  <course>107.43</course>
  <speed>0.02</speed>
  <fix>3d</fix>
</trkpt>
<trkpt lat="40.0729364" lon="-105.2308043">
  <ele>1595.57</ele>
  <time>2026-08-28T19:11:39Z</time>
  <course>345.28</course>
  <speed>0.0</speed>
  <fix>3d</fix>
</trkpt>
<trkpt lat="40.0729362" lon="-105.230804">
  <ele>1595.52</ele>
  <time>2026-08-28T19:11:39Z</time>
  <course>102.96</course>
  <speed>0.03</speed>
  <fix>3d</fix>
</trkpt>
<trkpt lat="40.0729364" lon="-105.2308042">
  <ele>1595.57</ele>
  <time>2026-08-28T19:11:39Z</time>
  <course>344.97</course>
  <speed>0.0</speed>
  <fix>3d</fix>
</trkpt>
<trkpt lat="40.0729362" lon="-105.2308039">
  <ele>1595.52</ele>
  <time>2026-08-28T19:11:39Z</time>
  <course>98.42</course>
  <speed>0.03</speed>
  <fix>3d</fix>
</trkpt>
<trkpt lat="40.0729364" lon="-105.2308041">
  <ele>1595.57</ele>
  <time>2026-08-28T19:11:39Z</time>
  <course>344.23</course>
  <speed>0.01</speed>
  <fix>3d</fix>
</trkpt>
<trkpt lat="40.0729362" lon="-105.2308039">
  <ele>1595.52</ele>
  <time>2026-08-28T19:11:39Z</time>
  <course>95.1</course>
  <speed>0.03</speed>
  <fix>3d</fix>
</trkpt>
<trkpt lat="40.0729364" lon="-105.230804">
  <ele>1595.57</ele>
  <time>2026-08-28T19:11:39Z</time>
  <course>343.03</course>
  <speed>0.01</speed>
  <fix>3d</fix>
</trkpt>
<trkpt lat="40.0729362" lon="-105.2308038">
  <ele>1595.52</ele>
  <time>2026-08-28T19:11:39Z</time>
  <course>93.01</course>
  <speed>0.03</speed>
  <fix>3d</fix>
</trkpt>
<trkpt lat="40.0729363" lon="-105.2308039">
  <ele>1595.57</ele>
  <time>2026-08-28T19:11:39Z</time>
  <course>341.64</course>
  <speed>0.01</speed>
  <fix>3d</fix>
</trkpt>
<trkpt lat="40.0729362" lon="-105.2308037">
  <ele>1595.52</ele>
  <time>2026-08-28T19:11:39Z</time>
  <course>91.28</course>
  <speed>0.03</speed>
  <fix>3d</fix>
</trkpt>
<trkpt lat="40.0729363" lon="-105.2308039">
  <ele>1595.57</ele>
  <time>2026-08-28T19:11:39Z</time>
  <course>340.11</course>
  <speed>0.0</speed>
  <fix>3d</fix>
</trkpt>
<trkpt lat="40.0729362" lon="-105.2308036">
  <ele>1595.52</ele>
  <time>2026-08-28T19:11:39Z</time>
  <course>89.96</course>
  <speed>0.03</speed>
  <fix>3d</fix>
</trkpt>
<trkpt lat="40.0729363" lon="-105.2308038">
  <ele>1595.57</ele>
  <time>2026-08-28T19:11:39Z</time>
  <course>338.63</course>
  <speed>0.0</speed>
  <fix>3d</fix>
</trkpt>
<trkpt lat="40.0729362" lon="-105.2308035">
  <ele>1595.52</ele>
  <time>2026-08-28T19:11:39Z</time>
  <course>89.3</course>
  <speed>0.03</speed>
  <fix>3d</fix>
</trkpt>
<trkpt lat="40.0729363" lon="-105.2308037">
  <ele>1595.57</ele>
  <time>2026-08-28T19:11:39Z</time>
  <course>337.3</course>
  <speed>0.0</speed>
  <fix>3d</fix>
</trkpt>
<trkpt lat="40.0729362" lon="-105.2308034">
  <ele>1595.52</ele>
  <time>2026-08-28T19:11:39Z</time>
  <course>89.21</course>
  <speed>0.03</speed>
  <fix>3d</fix>
</trkpt>
<trkpt lat="40.0729363" lon="-105.2308036">
  <ele>1595.57</ele>
  <time>2026-08-28T19:11:39Z</time>
  <course>336.25</course>
  <speed>0.0</speed>
  <fix>3d</fix>
</trkpt>
<trkpt lat="40.0729362" lon="-105.2308034">
  <ele>1595.52</ele>
  <time>2026-08-28T19:11:39Z</time>
  <course>90.59</course>
  <speed>0.02</speed>
  <fix>3d</fix>
</trkpt>
<trkpt lat="40.0729363" lon="-105.2308036">
  <ele>1595.58</ele>
  <time>2026-08-28T19:11:39Z</time>
  <course>335.62</course>
  <speed>0.0</speed>
  <fix>3d</fix>
</trkpt>
<trkpt lat="40.0729362" lon="-105.2308033">
  <ele>1595.52</ele>
  <time>2026-08-28T19:11:39Z</time>
  <course>94.41</course>
  <speed>0.02</speed>
  <fix>3d</fix>
</trkpt>
<trkpt lat="40.0729363" lon="-105.2308035">
  <ele>1595.58</ele>
  <time>2026-08-28T19:11:39Z</time>
  <course>335.48</course>
  <speed>0.0</speed>
  <fix>3d</fix>
</trkpt>
<trkpt lat="40.0729362" lon="-105.2308032">
  <ele>1595.52</ele>
  <time>2026-08-28T19:11:39Z</time>
  <course>100.73</course>
  <speed>0.02</speed>
  <fix>3d</fix>
</trkpt>
<trkpt lat="40.0729363" lon="-105.2308035">
  <ele>1595.59</ele>
  <time>2026-08-28T19:11:39Z</time>
  <course>335.81</course>
  <speed>0.0</speed>
  <fix>3d</fix>
</trkpt>
<trkpt lat="40.0729362" lon="-105.2308032">
  <ele>1595.52</ele>
  <time>2026-08-28T19:11:39Z</time>
  <course>107.22</course>
  <speed>0.02</speed>
  <fix>3d</fix>
</trkpt>
<trkpt lat="40.0729363" lon="-105.2308034">
  <ele>1595.59</ele>
  <time>2026-08-28T19:11:39Z</time>
  <course>336.59</course>
  <speed>0.0</speed>
  <fix>3d</fix>
</trkpt>
<trkpt lat="40.0729362" lon="-105.2308032">
  <ele>1595.52</ele>
  <time>2026-08-28T19:11:39Z</time>
  <course>112.49</course>
  <speed>0.02</speed>
  <fix>3d</fix>
</trkpt>
<trkpt lat="40.0729363" lon="-105.2308034">
  <ele>1595.59</ele>
  <time>2026-08-28T19:11:39Z</time>
  <course>337.74</course>
  <speed>0.0</speed>
  <fix>3d</fix>
</trkpt>
<trkpt lat="40.0729362" lon="-105.2308032">
  <ele>1595.51</ele>
  <time>2026-08-28T19:11:39Z</time>
  <course>117.01</course>
  <speed>0.02</speed>
  <fix>3d</fix>
</trkpt>
<trkpt lat="40.0729363" lon="-105.2308033">
  <ele>1595.59</ele>
  <time>2026-08-28T19:11:39Z</time>
  <course>339.13</course>
  <speed>0.0</speed>
  <fix>3d</fix>
</trkpt>
<trkpt lat="40.0729362" lon="-105.2308031">
  <ele>1595.51</ele>
  <time>2026-08-28T19:11:39Z</time>
  <course>118.5</course>
  <speed>0.02</speed>
  <fix>3d</fix>
</trkpt>
<trkpt lat="40.0729362" lon="-105.2308033">
  <ele>1595.59</ele>
  <time>2026-08-28T19:11:39Z</time>
  <course>340.66</course>
  <speed>0.0</speed>
  <fix>3d</fix>
</trkpt>
<trkpt lat="40.0729362" lon="-105.230803">
  <ele>1595.51</ele>
  <time>2026-08-28T19:11:39Z</time>
  <course>117.86</course>
  <speed>0.02</speed>
  <fix>3d</fix>
</trkpt>
<trkpt lat="40.0729362" lon="-105.2308033">
  <ele>1595.58</ele>
  <time>2026-08-28T19:11:40Z</time>
  <course>342.13</course>
  <speed>0.0</speed>
  <fix>3d</fix>
</trkpt>
<trkpt lat="40.0729362" lon="-105.230803">
  <ele>1595.5</ele>
  <time>2026-08-28T19:11:40Z</time>
  <course>116.54</course>
  <speed>0.02</speed>
  <fix>3d</fix>
</trkpt>
<trkpt lat="40.0729362" lon="-105.2308032">
  <ele>1595.58</ele>
  <time>2026-08-28T19:11:40Z</time>
  <course>343.49</course>
  <speed>0.0</speed>
  <fix>3d</fix>
</trkpt>
<trkpt lat="40.0729362" lon="-105.230803">
  <ele>1595.5</ele>
  <time>2026-08-28T19:11:40Z</time>
  <course>113.82</course>
  <speed>0.02</speed>
  <fix>3d</fix>
</trkpt>
<trkpt lat="40.0729362" lon="-105.2308032">
  <ele>1595.58</ele>
  <time>2026-08-28T19:11:40Z</time>
  <course>344.53</course>
  <speed>0.0</speed>
  <fix>3d</fix>
</trkpt>
<trkpt lat="40.0729362" lon="-105.2308029">
  <ele>1595.5</ele>
  <time>2026-08-28T19:11:40Z</time>
  <course>109.68</course>
  <speed>0.02</speed>
  <fix>3d</fix>
</trkpt>
<trkpt lat="40.0729362" lon="-105.2308031">
  <ele>1595.58</ele>
  <time>2026-08-28T19:11:40Z</time>
  <course>345.16</course>
  <speed>0.0</speed>
  <fix>3d</fix>
</trkpt>
<trkpt lat="40.0729361" lon="-105.2308029">
  <ele>1595.49</ele>
  <time>2026-08-28T19:11:40Z</time>
  <course>105.87</course>
  <speed>0.02</speed>
  <fix>3d</fix>
</trkpt>
<trkpt lat="40.0729362" lon="-105.230803">
  <ele>1595.58</ele>
  <time>2026-08-28T19:11:40Z</time>
  <course>345.3</course>
  <speed>0.0</speed>
  <fix>3d</fix>
</trkpt>
<trkpt lat="40.0729361" lon="-105.2308028">
  <ele>1595.49</ele>
  <time>2026-08-28T19:11:40Z</time>
  <course>103.68</course>
  <speed>0.02</speed>
  <fix>3d</fix>
</trkpt>
<trkpt lat="40.0729362" lon="-105.230803">
  <ele>1595.58</ele>
  <time>2026-08-28T19:11:40Z</time>
  <course>344.99</course>
  <speed>0.0</speed>
  <fix>3d</fix>
</trkpt>
<trkpt lat="40.0729361" lon="-105.2308027">
  <ele>1595.49</ele>
  <time>2026-08-28T19:11:40Z</time>
  <course>101.7</course>
  <speed>0.03</speed>
  <fix>3d</fix>
</trkpt>
<trkpt lat="40.0729362" lon="-105.2308029">
  <ele>1595.58</ele>
  <time>2026-08-28T19:11:40Z</time>
  <course>344.24</course>
  <speed>0.0</speed>
  <fix>3d</fix>
</trkpt>
<trkpt lat="40.0729361" lon="-105.2308026">
  <ele>1595.48</ele>
  <time>2026-08-28T19:11:40Z</time>
  <course>99.26</course>
  <speed>0.03</speed>
  <fix>3d</fix>
</trkpt>
<trkpt lat="40.0729362" lon="-105.2308028">
  <ele>1595.57</ele>
  <time>2026-08-28T19:11:40Z</time>
  <course>343.1</course>
  <speed>0.01</speed>
  <fix>3d</fix>
</trkpt>
<trkpt lat="40.0729361" lon="-105.2308025">
  <ele>1595.48</ele>
  <time>2026-08-28T19:11:40Z</time>
  <course>97.45</course>
  <speed>0.03</speed>
  <fix>3d</fix>
</trkpt>
<trkpt lat="40.0729362" lon="-105.2308027">
  <ele>1595.57</ele>
  <time>2026-08-28T19:11:40Z</time>
  <course>341.68</course>
  <speed>0.01</speed>
  <fix>3d</fix>
</trkpt>
<trkpt lat="40.0729361" lon="-105.2308025">
  <ele>1595.48</ele>
  <time>2026-08-28T19:11:40Z</time>
  <course>96.5</course>
  <speed>0.03</speed>
  <fix>3d</fix>
</trkpt>
<trkpt lat="40.0729362" lon="-105.2308026">
  <ele>1595.56</ele>
  <time>2026-08-28T19:11:40Z</time>
  <course>340.13</course>
  <speed>0.0</speed>
  <fix>3d</fix>
</trkpt>
<trkpt lat="40.0729361" lon="-105.2308024">
  <ele>1595.48</ele>
  <time>2026-08-28T19:11:40Z</time>
  <course>96.22</course>
  <speed>0.03</speed>
  <fix>3d</fix>
</trkpt>
<trkpt lat="40.0729362" lon="-105.2308026">
  <ele>1595.56</ele>
  <time>2026-08-28T19:11:40Z</time>
  <course>338.63</course>
  <speed>0.0</speed>
  <fix>3d</fix>
</trkpt>
<trkpt lat="40.0729361" lon="-105.2308023">
  <ele>1595.48</ele>
  <time>2026-08-28T19:11:40Z</time>
  <course>96.91</course>
  <speed>0.03</speed>
  <fix>3d</fix>
</trkpt>
<trkpt lat="40.0729362" lon="-105.2308025">
  <ele>1595.56</ele>
  <time>2026-08-28T19:11:40Z</time>
  <course>337.27</course>
  <speed>0.0</speed>
  <fix>3d</fix>
</trkpt>
<trkpt lat="40.0729361" lon="-105.2308022">
  <ele>1595.48</ele>
  <time>2026-08-28T19:11:40Z</time>
  <course>98.08</course>
  <speed>0.03</speed>
  <fix>3d</fix>
</trkpt>
<trkpt lat="40.0729362" lon="-105.2308024">
  <ele>1595.57</ele>
  <time>2026-08-28T19:11:40Z</time>
  <course>336.25</course>
  <speed>0.0</speed>
  <fix>3d</fix>
</trkpt>
<trkpt lat="40.0729361" lon="-105.2308022">
  <ele>1595.48</ele>
  <time>2026-08-28T19:11:40Z</time>
  <course>100.12</course>
  <speed>0.02</speed>
  <fix>3d</fix>
</trkpt>
<trkpt lat="40.0729362" lon="-105.2308024">
  <ele>1595.57</ele>
  <time>2026-08-28T19:11:40Z</time>
  <course>335.63</course>
  <speed>0.0</speed>
  <fix>3d</fix>
</trkpt>
<trkpt lat="40.0729361" lon="-105.2308021">
  <ele>1595.48</ele>
  <time>2026-08-28T19:11:40Z</time>
  <course>103.74</course>
  <speed>0.02</speed>
  <fix>3d</fix>
</trkpt>
<trkpt lat="40.0729362" lon="-105.2308023">
  <ele>1595.57</ele>
  <time>2026-08-28T19:11:40Z</time>
  <course>335.47</course>
  <speed>0.0</speed>
  <fix>3d</fix>
</trkpt>
<trkpt lat="40.072936" lon="-105.230802">
  <ele>1595.48</ele>
  <time>2026-08-28T19:11:40Z</time>
  <course>108.67</course>
  <speed>0.02</speed>
  <fix>3d</fix>
</trkpt>
<trkpt lat="40.0729361" lon="-105.2308023">
  <ele>1595.57</ele>
  <time>2026-08-28T19:11:40Z</time>
  <course>335.78</course>
  <speed>0.0</speed>
  <fix>3d</fix>
</trkpt>
<trkpt lat="40.072936" lon="-105.230802">
  <ele>1595.48</ele>
  <time>2026-08-28T19:11:40Z</time>
  <course>114.11</course>
  <speed>0.02</speed>
  <fix>3d</fix>
</trkpt>
<trkpt lat="40.0729361" lon="-105.2308022">
  <ele>1595.57</ele>
  <time>2026-08-28T19:11:40Z</time>
  <course>336.54</course>
  <speed>0.0</speed>
  <fix>3d</fix>
</trkpt>
<trkpt lat="40.072936" lon="-105.230802">
  <ele>1595.48</ele>
  <time>2026-08-28T19:11:40Z</time>
  <course>119.44</course>
  <speed>0.02</speed>
  <fix>3d</fix>
</trkpt>
<trkpt lat="40.0729361" lon="-105.2308022">
  <ele>1595.57</ele>
  <time>2026-08-28T19:11:40Z</time>
  <course>337.7</course>
  <speed>0.0</speed>
  <fix>3d</fix>
</trkpt>
<trkpt lat="40.072936" lon="-105.2308019">
  <ele>1595.48</ele>
  <time>2026-08-28T19:11:40Z</time>
  <course>124.03</course>
  <speed>0.02</speed>
  <fix>3d</fix>
</trkpt>
<trkpt lat="40.0729361" lon="-105.2308021">
  <ele>1595.57</ele>
  <time>2026-08-28T19:11:40Z</time>
  <course>339.1</course>
  <speed>0.0</speed>
  <fix>3d</fix>
</trkpt>
<trkpt lat="40.072936" lon="-105.2308018">
  <ele>1595.48</ele>
  <time>2026-08-28T19:11:40Z</time>
  <course>126.7</course>
  <speed>0.02</speed>
  <fix>3d</fix>
</trkpt>
<trkpt lat="40.072936" lon="-105.2308021">
  <ele>1595.56</ele>
  <time>2026-08-28T19:11:40Z</time>
  <course>340.64</course>
  <speed>0.0</speed>
  <fix>3d</fix>
</trkpt>
<trkpt lat="40.0729359" lon="-105.2308018">
  <ele>1595.47</ele>
  <time>2026-08-28T19:11:40Z</time>
  <course>127.32</course>
  <speed>0.02</speed>
  <fix>3d</fix>
</trkpt>
<trkpt lat="40.072936" lon="-105.230802">
  <ele>1595.56</ele>
  <time>2026-08-28T19:11:40Z</time>
  <course>342.11</course>
  <speed>0.0</speed>
  <fix>3d</fix>
</trkpt>
<trkpt lat="40.0729359" lon="-105.2308018">
  <ele>1595.47</ele>
  <time>2026-08-28T19:11:40Z</time>
  <course>125.7</course>
  <speed>0.02</speed>
  <fix>3d</fix>
</trkpt>
<trkpt lat="40.072936" lon="-105.230802">
  <ele>1595.56</ele>
  <time>2026-08-28T19:11:40Z</time>
  <course>343.44</course>
  <speed>0.0</speed>
  <fix>3d</fix>
</trkpt>
<trkpt lat="40.0729359" lon="-105.2308017">
  <ele>1595.47</ele>
  <time>2026-08-28T19:11:40Z</time>
  <course>122.1</course>
  <speed>0.02</speed>
  <fix>3d</fix>
</trkpt>
<trkpt lat="40.072936" lon="-105.2308019">
  <ele>1595.57</ele>
  <time>2026-08-28T19:11:40Z</time>
  <course>344.48</course>
  <speed>0.0</speed>
  <fix>3d</fix>
</trkpt>
<trkpt lat="40.0729359" lon="-105.2308017">
  <ele>1595.47</ele>
  <time>2026-08-28T19:11:40Z</time>
  <course>117.47</course>
  <speed>0.02</speed>
  <fix>3d</fix>
</trkpt>
<trkpt lat="40.072936" lon="-105.2308018">
  <ele>1595.56</ele>
  <time>2026-08-28T19:11:40Z</time>
  <course>345.11</course>
  <speed>0.0</speed>
  <fix>3d</fix>
</trkpt>
<trkpt lat="40.0729358" lon="-105.2308016">
  <ele>1595.47</ele>
  <time>2026-08-28T19:11:40Z</time>
  <course>111.86</course>
  <speed>0.02</speed>
  <fix>3d</fix>
</trkpt>
<trkpt lat="40.0729359" lon="-105.2308018">
  <ele>1595.56</ele>
  <time>2026-08-28T19:11:40Z</time>
  <course>345.28</course>
  <speed>0.0</speed>
  <fix>3d</fix>
</trkpt>
<trkpt lat="40.0729357" lon="-105.2308015">
  <ele>1595.47</ele>
  <time>2026-08-28T19:11:40Z</time>
  <course>106.15</course>
  <speed>0.03</speed>
  <fix>3d</fix>
</trkpt>
<trkpt lat="40.0729359" lon="-105.2308017">
  <ele>1595.56</ele>
  <time>2026-08-28T19:11:40Z</time>
  <course>344.95</course>
  <speed>0.0</speed>
  <fix>3d</fix>
</trkpt>
<trkpt lat="40.0729357" lon="-105.2308015">
  <ele>1595.47</ele>
  <time>2026-08-28T19:11:40Z</time>
  <course>101.31</course>
  <speed>0.03</speed>
  <fix>3d</fix>
</trkpt>
<trkpt lat="40.0729359" lon="-105.2308016">
  <ele>1595.56</ele>
  <time>2026-08-28T19:11:40Z</time>
  <course>344.16</course>
  <speed>0.01</speed>
  <fix>3d</fix>
</trkpt>
<trkpt lat="40.0729357" lon="-105.2308014">
  <ele>1595.48</ele>
  <time>2026-08-28T19:11:40Z</time>
  <course>97.92</course>
  <speed>0.03</speed>
  <fix>3d</fix>
</trkpt>
<trkpt lat="40.0729359" lon="-105.2308015">
  <ele>1595.56</ele>
  <time>2026-08-28T19:11:40Z</time>
  <course>343.04</course>
  <speed>0.01</speed>
  <fix>3d</fix>
</trkpt>
<trkpt lat="40.0729357" lon="-105.2308013">
  <ele>1595.48</ele>
  <time>2026-08-28T19:11:40Z</time>
  <course>95.34</course>
  <speed>0.03</speed>
  <fix>3d</fix>
</trkpt>
<trkpt lat="40.0729359" lon="-105.2308015">
  <ele>1595.56</ele>
  <time>2026-08-28T19:11:40Z</time>
  <course>341.62</course>
  <speed>0.01</speed>
  <fix>3d</fix>
</trkpt>
<trkpt lat="40.0729357" lon="-105.2308012">
  <ele>1595.48</ele>
  <time>2026-08-28T19:11:40Z</time>
  <course>93.23</course>
  <speed>0.03</speed>
  <fix>3d</fix>
</trkpt>
<trkpt lat="40.0729359" lon="-105.2308014">
  <ele>1595.56</ele>
  <time>2026-08-28T19:11:40Z</time>
  <course>340.1</course>
  <speed>0.01</speed>
  <fix>3d</fix>
</trkpt>
<trkpt lat="40.0729357" lon="-105.2308011">
  <ele>1595.48</ele>
  <time>2026-08-28T19:11:40Z</time>
  <course>91.93</course>
  <speed>0.03</speed>
  <fix>3d</fix>
</trkpt>
<trkpt lat="40.0729359" lon="-105.2308013">
  <ele>1595.56</ele>
  <time>2026-08-28T19:11:40Z</time>
  <course>338.63</course>
  <speed>0.0</speed>
  <fix>3d</fix>
</trkpt>
<trkpt lat="40.0729357" lon="-105.230801">
  <ele>1595.48</ele>
  <time>2026-08-28T19:11:40Z</time>
  <course>90.96</course>
  <speed>0.03</speed>
  <fix>3d</fix>
</trkpt>
<trkpt lat="40.0729359" lon="-105.2308012">
  <ele>1595.56</ele>
  <time>2026-08-28T19:11:40Z</time>
  <course>337.27</course>
  <speed>0.0</speed>
  <fix>3d</fix>
</trkpt>
<trkpt lat="40.0729357" lon="-105.230801">
  <ele>1595.48</ele>
  <time>2026-08-28T19:11:40Z</time>
  <course>90.62</course>
  <speed>0.03</speed>
  <fix>3d</fix>
</trkpt>
<trkpt lat="40.0729358" lon="-105.2308012">
  <ele>1595.57</ele>
  <time>2026-08-28T19:11:40Z</time>
  <course>336.26</course>
  <speed>0.0</speed>
  <fix>3d</fix>
</trkpt>
<trkpt lat="40.0729357" lon="-105.2308009">
  <ele>1595.49</ele>
  <time>2026-08-28T19:11:40Z</time>
  <course>91.35</course>
  <speed>0.02</speed>
  <fix>3d</fix>
</trkpt>
<trkpt lat="40.0729358" lon="-105.2308011">
  <ele>1595.57</ele>
  <time>2026-08-28T19:11:40Z</time>
  <course>335.62</course>
  <speed>0.0</speed>
  <fix>3d</fix>
</trkpt>
<trkpt lat="40.0729357" lon="-105.2308008">
  <ele>1595.49</ele>
  <time>2026-08-28T19:11:40Z</time>
  <course>93.5</course>
  <speed>0.02</speed>
  <fix>3d</fix>
</trkpt>
<trkpt lat="40.0729358" lon="-105.230801">
  <ele>1595.57</ele>
  <time>2026-08-28T19:11:40Z</time>
  <course>335.46</course>
  <speed>0.0</speed>
  <fix>3d</fix>
</trkpt>
<trkpt lat="40.0729357" lon="-105.2308008">
  <ele>1595.49</ele>
  <time>2026-08-28T19:11:40Z</time>
  <course>97.89</course>
  <speed>0.02</speed>
  <fix>3d</fix>
</trkpt>
<trkpt lat="40.0729358" lon="-105.230801">
  <ele>1595.58</ele>
  <time>2026-08-28T19:11:40Z</time>
  <course>335.77</course>
  <speed>0.0</speed>
  <fix>3d</fix>
</trkpt>
<trkpt lat="40.0729357" lon="-105.2308008">
  <ele>1595.49</ele>
  <time>2026-08-28T19:11:40Z</time>
  <course>104.03</course>
  <speed>0.02</speed>
  <fix>3d</fix>
</trkpt>
<trkpt lat="40.0729358" lon="-105.2308009">
  <ele>1595.59</ele>
  <time>2026-08-28T19:11:40Z</time>
  <course>336.55</course>
  <speed>0.0</speed>
  <fix>3d</fix>
</trkpt>
<trkpt lat="40.0729357" lon="-105.2308007">
  <ele>1595.49</ele>
  <time>2026-08-28T19:11:40Z</time>
  <course>110.11</course>
  <speed>0.02</speed>
  <fix>3d</fix>
</trkpt>
<trkpt lat="40.0729358" lon="-105.2308009">
  <ele>1595.58</ele>
  <time>2026-08-28T19:11:40Z</time>
  <course>337.71</course>
  <speed>0.0</speed>
  <fix>3d</fix>
</trkpt>
<trkpt lat="40.0729357" lon="-105.2308006">
  <ele>1595.49</ele>
  <time>2026-08-28T19:11:40Z</time>
  <course>114.97</course>
  <speed>0.02</speed>
  <fix>3d</fix>
</trkpt>
<trkpt lat="40.0729358" lon="-105.2308009">
  <ele>1595.58</ele>
  <time>2026-08-28T19:11:40Z</time>
  <course>339.14</course>
  <speed>0.0</speed>
  <fix>3d</fix>
</trkpt>
<trkpt lat="40.0729356" lon="-105.2308006">
  <ele>1595.49</ele>
  <time>2026-08-28T19:11:40Z</time>
  <course>117.43</course>
  <speed>0.02</speed>
  <fix>3d</fix>
</trkpt>
<trkpt lat="40.0729357" lon="-105.2308008">
  <ele>1595.57</ele>
  <time>2026-08-28T19:11:40Z</time>
  <course>340.66</course>
  <speed>0.0</speed>
  <fix>3d</fix>
</trkpt>
<trkpt lat="40.0729356" lon="-105.2308006">
  <ele>1595.48</ele>
  <time>2026-08-28T19:11:40Z</time>
  <course>116.97</course>
  <speed>0.02</speed>
  <fix>3d</fix>
</trkpt>
<trkpt lat="40.0729357" lon="-105.2308008">
  <ele>1595.57</ele>
  <time>2026-08-28T19:11:40Z</time>
  <course>342.13</course>
  <speed>0.0</speed>
  <fix>3d</fix>
</trkpt>
<trkpt lat="40.0729356" lon="-105.2308005">
  <ele>1595.48</ele>
  <time>2026-08-28T19:11:40Z</time>
  <course>115.25</course>
  <speed>0.02</speed>
  <fix>3d</fix>
</trkpt>
<trkpt lat="40.0729357" lon="-105.2308007">
  <ele>1595.56</ele>
  <time>2026-08-28T19:11:40Z</time>
  <course>343.45</course>
  <speed>0.0</speed>
  <fix>3d</fix>
</trkpt>
<trkpt lat="40.0729356" lon="-105.2308005">
  <ele>1595.48</ele>
  <time>2026-08-28T19:11:40Z</time>
  <course>113.94</course>
  <speed>0.02</speed>
  <fix>3d</fix>
</trkpt>
<trkpt lat="40.0729357" lon="-105.2308007">
  <ele>1595.56</ele>
  <time>2026-08-28T19:11:40Z</time>
  <course>344.48</course>
  <speed>0.0</speed>
  <fix>3d</fix>
</trkpt>
<trkpt lat="40.0729356" lon="-105.2308004">
  <ele>1595.48</ele>
  <time>2026-08-28T19:11:40Z</time>
  <course>111.97</course>
  <speed>0.02</speed>
  <fix>3d</fix>
</trkpt>
<trkpt lat="40.0729357" lon="-105.2308006">
  <ele>1595.56</ele>
  <time>2026-08-28T19:11:40Z</time>
  <course>345.11</course>
  <speed>0.0</speed>
  <fix>3d</fix>
</trkpt>
<trkpt lat="40.0729356" lon="-105.2308003">
  <ele>1595.48</ele>
  <time>2026-08-28T19:11:40Z</time>
  <course>107.86</course>
  <speed>0.02</speed>
  <fix>3d</fix>
</trkpt>
<trkpt lat="40.0729357" lon="-105.2308005">
  <ele>1595.57</ele>
  <time>2026-08-28T19:11:40Z</time>
  <course>345.28</course>
  <speed>0.0</speed>
  <fix>3d</fix>
</trkpt>
<trkpt lat="40.0729356" lon="-105.2308003">
  <ele>1595.48</ele>
  <time>2026-08-28T19:11:40Z</time>
  <course>103.01</course>
  <speed>0.02</speed>
  <fix>3d</fix>
</trkpt>
<trkpt lat="40.0729357" lon="-105.2308004">
  <ele>1595.57</ele>
  <time>2026-08-28T19:11:40Z</time>
  <course>344.96</course>
  <speed>0.0</speed>
  <fix>3d</fix>
</trkpt>
<trkpt lat="40.0729356" lon="-105.2308002">
  <ele>1595.48</ele>
  <time>2026-08-28T19:11:40Z</time>
  <course>98.56</course>
  <speed>0.03</speed>
  <fix>3d</fix>
</trkpt>
<trkpt lat="40.0729357" lon="-105.2308004">
  <ele>1595.57</ele>
  <time>2026-08-28T19:11:40Z</time>
  <course>344.22</course>
  <speed>0.01</speed>
  <fix>3d</fix>
</trkpt>
<trkpt lat="40.0729356" lon="-105.2308001">
  <ele>1595.48</ele>
  <time>2026-08-28T19:11:40Z</time>
  <course>95.36</course>
  <speed>0.03</speed>
  <fix>3d</fix>
</trkpt>
<trkpt lat="40.0729357" lon="-105.2308003">
  <ele>1595.58</ele>
  <time>2026-08-28T19:11:40Z</time>
  <course>343.07</course>
  <speed>0.01</speed>
  <fix>3d</fix>
</trkpt>
<trkpt lat="40.0729356" lon="-105.2308">
  <ele>1595.48</ele>
  <time>2026-08-28T19:11:40Z</time>
  <course>93.91</course>
  <speed>0.03</speed>
  <fix>3d</fix>
</trkpt>
<trkpt lat="40.0729357" lon="-105.2308002">
  <ele>1595.58</ele>
  <time>2026-08-28T19:11:40Z</time>
  <course>341.7</course>
  <speed>0.01</speed>
  <fix>3d</fix>
</trkpt>
<trkpt lat="40.0729356" lon="-105.2308">
  <ele>1595.48</ele>
  <time>2026-08-28T19:11:40Z</time>
  <course>93.39</course>
  <speed>0.03</speed>
  <fix>3d</fix>
</trkpt>
<trkpt lat="40.0729357" lon="-105.2308001">
  <ele>1595.58</ele>
  <time>2026-08-28T19:11:40Z</time>
  <course>340.2</course>
  <speed>0.0</speed>
  <fix>3d</fix>
</trkpt>
<trkpt lat="40.0729356" lon="-105.2307999">
  <ele>1595.48</ele>
  <time>2026-08-28T19:11:40Z</time>
  <course>93.15</course>
  <speed>0.03</speed>
  <fix>3d</fix>
</trkpt>
<trkpt lat="40.0729357" lon="-105.2308">
  <ele>1595.57</ele>
  <time>2026-08-28T19:11:40Z</time>
  <course>338.67</course>
  <speed>0.0</speed>
  <fix>3d</fix>
</trkpt>
<trkpt lat="40.0729356" lon="-105.2307998">
  <ele>1595.47</ele>
  <time>2026-08-28T19:11:40Z</time>
  <course>93.41</course>
  <speed>0.03</speed>
  <fix>3d</fix>
</trkpt>
<trkpt lat="40.0729357" lon="-105.2308">
  <ele>1595.56</ele>
  <time>2026-08-28T19:11:40Z</time>
  <course>337.3</course>
  <speed>0.0</speed>
  <fix>3d</fix>
</trkpt>
<trkpt lat="40.0729356" lon="-105.2307997">
  <ele>1595.47</ele>
  <time>2026-08-28T19:11:40Z</time>
  <course>94.34</course>
  <speed>0.03</speed>
  <fix>3d</fix>
</trkpt>
<trkpt lat="40.0729357" lon="-105.2307999">
  <ele>1595.56</ele>
  <time>2026-08-28T19:11:40Z</time>
  <course>336.25</course>
  <speed>0.0</speed>
  <fix>3d</fix>
</trkpt>
<trkpt lat="40.0729356" lon="-105.2307996">
  <ele>1595.47</ele>
  <time>2026-08-28T19:11:40Z</time>
  <course>96.57</course>
  <speed>0.02</speed>
  <fix>3d</fix>
</trkpt>
<trkpt lat="40.0729357" lon="-105.2307998">
  <ele>1595.56</ele>
  <time>2026-08-28T19:11:40Z</time>
  <course>335.61</course>
  <speed>0.0</speed>
  <fix>3d</fix>
</trkpt>
<trkpt lat="40.0729356" lon="-105.2307996">
  <ele>1595.47</ele>
  <time>2026-08-28T19:11:40Z</time>
  <course>100.49</course>
  <speed>0.02</speed>
  <fix>3d</fix>
</trkpt>
<trkpt lat="40.0729357" lon="-105.2307998">
  <ele>1595.56</ele>
  <time>2026-08-28T19:11:40Z</time>
  <course>335.46</course>
  <speed>0.0</speed>
  <fix>3d</fix>
</trkpt>
<trkpt lat="40.0729356" lon="-105.2307995">
  <ele>1595.47</ele>
  <time>2026-08-28T19:11:40Z</time>
  <course>105.26</course>
  <speed>0.02</speed>
  <fix>3d</fix>
</trkpt>
<trkpt lat="40.0729357" lon="-105.2307997">
  <ele>1595.55</ele>
  <time>2026-08-28T19:11:40Z</time>
  <course>335.73</course>
  <speed>0.0</speed>
  <fix>3d</fix>
</trkpt>
<trkpt lat="40.0729355" lon="-105.2307994">
  <ele>1595.47</ele>
  <time>2026-08-28T19:11:40Z</time>
  <course>110.24</course>
  <speed>0.02</speed>
  <fix>3d</fix>
</trkpt>
<trkpt lat="40.0729356" lon="-105.2307997">
  <ele>1595.55</ele>
  <time>2026-08-28T19:11:40Z</time>
  <course>336.52</course>
  <speed>0.0</speed>
  <fix>3d</fix>
</trkpt>
<trkpt lat="40.0729355" lon="-105.2307994">
  <ele>1595.47</ele>
  <time>2026-08-28T19:11:40Z</time>
  <course>115.35</course>
  <speed>0.02</speed>
  <fix>3d</fix>
</trkpt>
<trkpt lat="40.0729356" lon="-105.2307996">
  <ele>1595.55</ele>
  <time>2026-08-28T19:11:40Z</time>
  <course>337.63</course>
  <speed>0.0</speed>
  <fix>3d</fix>
</trkpt>
<trkpt lat="40.0729355" lon="-105.2307994">
  <ele>1595.47</ele>
  <time>2026-08-28T19:11:40Z</time>
  <course>119.89</course>
  <speed>0.02</speed>
  <fix>3d</fix>
</trkpt>
<trkpt lat="40.0729356" lon="-105.2307996">
  <ele>1595.55</ele>
  <time>2026-08-28T19:11:40Z</time>
  <course>339.03</course>
  <speed>0.0</speed>
  <fix>3d</fix>
</trkpt>
<trkpt lat="40.0729355" lon="-105.2307994">
  <ele>1595.48</ele>
  <time>2026-08-28T19:11:40Z</time>
  <course>123.04</course>
  <speed>0.02</speed>
  <fix>3d</fix>
</trkpt>
<trkpt lat="40.0729356" lon="-105.2307995">
  <ele>1595.56</ele>
  <time>2026-08-28T19:11:40Z</time>
  <course>340.56</course>
  <speed>0.0</speed>
  <fix>3d</fix>
</trkpt>
<trkpt lat="40.0729355" lon="-105.2307993">
  <ele>1595.48</ele>
  <time>2026-08-28T19:11:40Z</time>
  <course>124.48</course>
  <speed>0.02</speed>
  <fix>3d</fix>
</trkpt>
<trkpt lat="40.0729356" lon="-105.2307995">
  <ele>1595.56</ele>
  <time>2026-08-28T19:11:40Z</time>
  <course>342.1</course>
  <speed>0.0</speed>
  <fix>3d</fix>
</trkpt>
<trkpt lat="40.0729354" lon="-105.2307993">
  <ele>1595.48</ele>
  <time>2026-08-28T19:11:40Z</time>
  <course>123.8</course>
  <speed>0.02</speed>
  <fix>3d</fix>
</trkpt>
<trkpt lat="40.0729355" lon="-105.2307995">
  <ele>1595.56</ele>
  <time>2026-08-28T19:11:40Z</time>
  <course>343.43</course>
  <speed>0.0</speed>
  <fix>3d</fix>
</trkpt>
<trkpt lat="40.0729354" lon="-105.2307992">
  <ele>1595.49</ele>
  <time>2026-08-28T19:11:40Z</time>
  <course>121.05</course>
  <speed>0.02</speed>
  <fix>3d</fix>
</trkpt>
<trkpt lat="40.0729355" lon="-105.2307994">
  <ele>1595.56</ele>
  <time>2026-08-28T19:11:40Z</time>
  <course>344.46</course>
  <speed>0.0</speed>
  <fix>3d</fix>
</trkpt>
<trkpt lat="40.0729354" lon="-105.2307991">
  <ele>1595.49</ele>
  <time>2026-08-28T19:11:40Z</time>
  <course>116.83</course>
  <speed>0.02</speed>
  <fix>3d</fix>
</trkpt>
<trkpt lat="40.0729355" lon="-105.2307993">
  <ele>1595.56</ele>
  <time>2026-08-28T19:11:40Z</time>
  <course>345.1</course>
  <speed>0.0</speed>
  <fix>3d</fix>
</trkpt>
<trkpt lat="40.0729354" lon="-105.2307991">
  <ele>1595.49</ele>
  <time>2026-08-28T19:11:40Z</time>
  <course>111.42</course>
  <speed>0.02</speed>
  <fix>3d</fix>
</trkpt>
<trkpt lat="40.0729355" lon="-105.2307993">
  <ele>1595.55</ele>
  <time>2026-08-28T19:11:40Z</time>
  <course>345.26</course>
  <speed>0.0</speed>
  <fix>3d</fix>
</trkpt>
<trkpt lat="40.0729354" lon="-105.230799">
  <ele>1595.5</ele>
  <time>2026-08-28T19:11:40Z</time>
  <course>105.96</course>
  <speed>0.02</speed>
  <fix>3d</fix>
</trkpt>
<trkpt lat="40.0729355" lon="-105.2307992">
  <ele>1595.55</ele>
  <time>2026-08-28T19:11:40Z</time>
  <course>344.93</course>
  <speed>0.0</speed>
  <fix>3d</fix>
</trkpt>
<trkpt lat="40.0729353" lon="-105.2307989">
  <ele>1595.5</ele>
  <time>2026-08-28T19:11:40Z</time>
  <course>102.34</course>
  <speed>0.03</speed>
  <fix>3d</fix>
</trkpt>
<trkpt lat="40.0729355" lon="-105.2307991">
  <ele>1595.56</ele>
  <time>2026-08-28T19:11:40Z</time>
  <course>344.16</course>
  <speed>0.0</speed>
  <fix>3d</fix>
</trkpt>
<trkpt lat="40.0729353" lon="-105.2307989">
  <ele>1595.5</ele>
  <time>2026-08-28T19:11:40Z</time>
  <course>99.62</course>
  <speed>0.03</speed>
  <fix>3d</fix>
</trkpt>
<trkpt lat="40.0729355" lon="-105.230799">
  <ele>1595.57</ele>
  <time>2026-08-28T19:11:40Z</time>
  <course>343.02</course>
  <speed>0.0</speed>
  <fix>3d</fix>
</trkpt>
<trkpt lat="40.0729353" lon="-105.2307988">
  <ele>1595.51</ele>
  <time>2026-08-28T19:11:40Z</time>
  <course>96.68</course>
  <speed>0.03</speed>
  <fix>3d</fix>
</trkpt>
<trkpt lat="40.0729354" lon="-105.230799">
  <ele>1595.58</ele>
  <time>2026-08-28T19:11:40Z</time>
  <course>341.63</course>
  <speed>0.0</speed>
  <fix>3d</fix>
</trkpt>
<trkpt lat="40.0729353" lon="-105.2307987">
  <ele>1595.51</ele>
  <time>2026-08-28T19:11:40Z</time>
  <course>94.32</course>
  <speed>0.03</speed>
  <fix>3d</fix>
</trkpt>
<trkpt lat="40.0729354" lon="-105.2307989">
  <ele>1595.58</ele>
  <time>2026-08-28T19:11:40Z</time>
  <course>340.13</course>
  <speed>0.0</speed>
  <fix>3d</fix>
</trkpt>
<trkpt lat="40.0729353" lon="-105.2307986">
  <ele>1595.51</ele>
  <time>2026-08-28T19:11:40Z</time>
  <course>93.13</course>
  <speed>0.03</speed>
  <fix>3d</fix>
</trkpt>
<trkpt lat="40.0729354" lon="-105.2307988">
  <ele>1595.59</ele>
  <time>2026-08-28T19:11:40Z</time>
  <course>338.67</course>
  <speed>0.0</speed>
  <fix>3d</fix>
</trkpt>
<trkpt lat="40.0729353" lon="-105.2307986">
  <ele>1595.52</ele>
  <time>2026-08-28T19:11:40Z</time>
  <course>93.46</course>
  <speed>0.03</speed>
  <fix>3d</fix>
</trkpt>
<trkpt lat="40.0729354" lon="-105.2307987">
  <ele>1595.59</ele>
  <time>2026-08-28T19:11:40Z</time>
  <course>337.37</course>
  <speed>0.0</speed>
  <fix>3d</fix>
</trkpt>
<trkpt lat="40.0729353" lon="-105.2307985">
  <ele>1595.51</ele>
  <time>2026-08-28T19:11:40Z</time>
  <course>95.06</course>
  <speed>0.03</speed>
  <fix>3d</fix>
</trkpt>
<trkpt lat="40.0729354" lon="-105.2307987">
  <ele>1595.59</ele>
  <time>2026-08-28T19:11:40Z</time>
  <course>336.31</course>
  <speed>0.0</speed>
  <fix>3d</fix>
</trkpt>
<trkpt lat="40.0729353" lon="-105.2307984">
  <ele>1595.51</ele>
  <time>2026-08-28T19:11:40Z</time>
  <course>97.57</course>
  <speed>0.02</speed>
  <fix>3d</fix>
</trkpt>
<trkpt lat="40.0729354" lon="-105.2307986">
  <ele>1595.59</ele>
  <time>2026-08-28T19:11:40Z</time>
  <course>335.67</course>
  <speed>0.0</speed>
  <fix>3d</fix>
</trkpt>
<trkpt lat="40.0729353" lon="-105.2307984">
  <ele>1595.51</ele>
  <time>2026-08-28T19:11:40Z</time>
  <course>100.9</course>
  <speed>0.02</speed>
  <fix>3d</fix>
</trkpt>
<trkpt lat="40.0729354" lon="-105.2307985">
  <ele>1595.58</ele>
  <time>2026-08-28T19:11:40Z</time>
  <course>335.5</course>
  <speed>0.0</speed>
  <fix>3d</fix>
</trkpt>
<trkpt lat="40.0729353" lon="-105.2307983">
  <ele>1595.5</ele>
  <time>2026-08-28T19:11:40Z</time>
  <course>104.0</course>
  <speed>0.02</speed>
  <fix>3d</fix>
</trkpt>
<trkpt lat="40.0729354" lon="-105.2307985">
  <ele>1595.58</ele>
  <time>2026-08-28T19:11:40Z</time>
  <course>335.53</course>
  <speed>0.0</speed>
  <fix>3d</fix>
</trkpt>
<trkpt lat="40.0729353" lon="-105.2307982">
  <ele>1595.5</ele>
  <time>2026-08-28T19:11:40Z</time>
  <course>104.68</course>
  <speed>0.02</speed>
  <fix>3d</fix>
</trkpt>
<trkpt lat="40.0729354" lon="-105.2307984">
  <ele>1595.58</ele>
  <time>2026-08-28T19:11:40Z</time>
  <course>335.55</course>
  <speed>0.0</speed>
  <fix>3d</fix>
</trkpt>
<trkpt lat="40.0729353" lon="-105.2307982">
  <ele>1595.5</ele>
  <time>2026-08-28T19:11:40Z</time>
  <course>102.72</course>
  <speed>0.02</speed>
  <fix>3d</fix>
</trkpt>
<trkpt lat="40.0729354" lon="-105.2307984">
  <ele>1595.58</ele>
  <time>2026-08-28T19:11:40Z</time>
  <course>335.55</course>
  <speed>0.0</speed>
  <fix>3d</fix>
</trkpt>
<trkpt lat="40.0729353" lon="-105.2307981">
  <ele>1595.5</ele>
  <time>2026-08-28T19:11:40Z</time>
  <course>100.09</course>
  <speed>0.02</speed>
  <fix>3d</fix>
</trkpt>
<trkpt lat="40.0729354" lon="-105.2307983">
  <ele>1595.58</ele>
  <time>2026-08-28T19:11:40Z</time>
  <course>335.55</course>
  <speed>0.0</speed>
  <fix>3d</fix>
</trkpt>
<trkpt lat="40.0729352" lon="-105.2307981">
  <ele>1595.49</ele>
  <time>2026-08-28T19:11:40Z</time>
  <course>98.13</course>
  <speed>0.02</speed>
  <fix>3d</fix>
</trkpt>
<trkpt lat="40.0729354" lon="-105.2307982">
  <ele>1595.58</ele>
  <time>2026-08-28T19:11:40Z</time>
  <course>335.55</course>
  <speed>0.0</speed>
  <fix>3d</fix>
</trkpt>
<trkpt lat="40.0729351" lon="-105.230798">
  <ele>1595.49</ele>
  <time>2026-08-28T19:11:40Z</time>
  <course>96.22</course>
  <speed>0.02</speed>
  <fix>3d</fix>
</trkpt>
<trkpt lat="40.0729354" lon="-105.2307982">
  <ele>1595.57</ele>
  <time>2026-08-28T19:11:40Z</time>
  <course>335.55</course>
  <speed>0.0</speed>
  <fix>3d</fix>
</trkpt>
<trkpt lat="40.0729351" lon="-105.2307979">
  <ele>1595.49</ele>
  <time>2026-08-28T19:11:40Z</time>
  <course>94.06</course>
  <speed>0.02</speed>
  <fix>3d</fix>
</trkpt>
<trkpt lat="40.0729353" lon="-105.2307981">
  <ele>1595.57</ele>
  <time>2026-08-28T19:11:40Z</time>
  <course>335.54</course>
  <speed>0.0</speed>
  <fix>3d</fix>
</trkpt>
<trkpt lat="40.0729351" lon="-105.2307979">
  <ele>1595.49</ele>
  <time>2026-08-28T19:11:40Z</time>
  <course>92.54</course>
  <speed>0.02</speed>
  <fix>3d</fix>
</trkpt>
<trkpt lat="40.0729353" lon="-105.2307981">
  <ele>1595.57</ele>
  <time>2026-08-28T19:11:40Z</time>
  <course>335.54</course>
  <speed>0.0</speed>
  <fix>3d</fix>
</trkpt>
<trkpt lat="40.0729351" lon="-105.2307978">
  <ele>1595.49</ele>
  <time>2026-08-28T19:11:40Z</time>
  <course>90.95</course>
  <speed>0.02</speed>
  <fix>3d</fix>
</trkpt>
<trkpt lat="40.0729353" lon="-105.230798">
  <ele>1595.57</ele>
  <time>2026-08-28T19:11:40Z</time>
  <course>335.54</course>
  <speed>0.0</speed>
  <fix>3d</fix>
</trkpt>
<trkpt lat="40.0729351" lon="-105.2307977">
  <ele>1595.49</ele>
  <time>2026-08-28T19:11:40Z</time>
  <course>89.02</course>
  <speed>0.02</speed>
  <fix>3d</fix>
</trkpt>
<trkpt lat="40.0729353" lon="-105.2307979">
  <ele>1595.57</ele>
  <time>2026-08-28T19:11:40Z</time>
  <course>335.54</course>
  <speed>0.0</speed>
  <fix>3d</fix>
</trkpt>
<trkpt lat="40.0729351" lon="-105.2307976">
  <ele>1595.49</ele>
  <time>2026-08-28T19:11:40Z</time>
  <course>87.23</course>
  <speed>0.02</speed>
  <fix>3d</fix>
</trkpt>
<trkpt lat="40.0729353" lon="-105.2307978">
  <ele>1595.57</ele>
  <time>2026-08-28T19:11:40Z</time>
  <course>335.55</course>
  <speed>0.0</speed>
  <fix>3d</fix>
</trkpt>
<trkpt lat="40.0729351" lon="-105.2307975">
  <ele>1595.48</ele>
  <time>2026-08-28T19:11:40Z</time>
  <course>85.92</course>
  <speed>0.02</speed>
  <fix>3d</fix>
</trkpt>
<trkpt lat="40.0729353" lon="-105.2307978">
  <ele>1595.57</ele>
  <time>2026-08-28T19:11:40Z</time>
  <course>335.55</course>
  <speed>0.0</speed>
  <fix>3d</fix>
</trkpt>
<trkpt lat="40.0729351" lon="-105.2307975">
  <ele>1595.48</ele>
  <time>2026-08-28T19:11:40Z</time>
  <course>85.15</course>
  <speed>0.03</speed>
  <fix>3d</fix>
</trkpt>
<trkpt lat="40.0729353" lon="-105.2307977">
  <ele>1595.56</ele>
  <time>2026-08-28T19:11:40Z</time>
  <course>335.55</course>
  <speed>0.0</speed>
  <fix>3d</fix>
</trkpt>
<trkpt lat="40.0729351" lon="-105.2307974">
  <ele>1595.48</ele>
  <time>2026-08-28T19:11:40Z</time>
  <course>84.14</course>
  <speed>0.03</speed>
  <fix>3d</fix>
</trkpt>
<trkpt lat="40.0729353" lon="-105.2307976">
  <ele>1595.56</ele>
  <time>2026-08-28T19:11:40Z</time>
  <course>335.55</course>
  <speed>0.0</speed>
  <fix>3d</fix>
</trkpt>
<trkpt lat="40.0729351" lon="-105.2307974">
  <ele>1595.48</ele>
  <time>2026-08-28T19:11:40Z</time>
  <course>82.71</course>
  <speed>0.03</speed>
  <fix>3d</fix>
</trkpt>
<trkpt lat="40.0729353" lon="-105.2307975">
  <ele>1595.56</ele>
  <time>2026-08-28T19:11:40Z</time>
  <course>335.53</course>
  <speed>0.0</speed>
  <fix>3d</fix>
</trkpt>
<trkpt lat="40.0729351" lon="-105.2307973">
  <ele>1595.48</ele>
  <time>2026-08-28T19:11:40Z</time>
  <course>81.58</course>
  <speed>0.03</speed>
  <fix>3d</fix>
</trkpt>
<trkpt lat="40.0729353" lon="-105.2307975">
  <ele>1595.56</ele>
  <time>2026-08-28T19:11:40Z</time>
  <course>335.52</course>
  <speed>0.01</speed>
  <fix>3d</fix>
</trkpt>
<trkpt lat="40.0729351" lon="-105.2307972">
  <ele>1595.48</ele>
  <time>2026-08-28T19:11:40Z</time>
  <course>80.74</course>
  <speed>0.03</speed>
  <fix>3d</fix>
</trkpt>
<trkpt lat="40.0729353" lon="-105.2307974">
  <ele>1595.56</ele>
  <time>2026-08-28T19:11:40Z</time>
  <course>335.4</course>
  <speed>0.01</speed>
  <fix>3d</fix>
</trkpt>
<trkpt lat="40.0729351" lon="-105.2307971">
  <ele>1595.48</ele>
  <time>2026-08-28T19:11:40Z</time>
  <course>79.55</course>
  <speed>0.03</speed>
  <fix>3d</fix>
</trkpt>
<trkpt lat="40.0729353" lon="-105.2307973">
  <ele>1595.56</ele>
  <time>2026-08-28T19:11:40Z</time>
  <course>334.33</course>
  <speed>0.01</speed>
  <fix>3d</fix>
</trkpt>
<trkpt lat="40.0729351" lon="-105.230797">
  <ele>1595.49</ele>
  <time>2026-08-28T19:11:40Z</time>
  <course>77.3</course>
  <speed>0.03</speed>
  <fix>3d</fix>
</trkpt>
<trkpt lat="40.0729353" lon="-105.2307972">
  <ele>1595.56</ele>
  <time>2026-08-28T19:11:40Z</time>
  <course>332.97</course>
  <speed>0.01</speed>
  <fix>3d</fix>
</trkpt>
<trkpt lat="40.0729351" lon="-105.230797">
  <ele>1595.49</ele>
  <time>2026-08-28T19:11:40Z</time>
  <course>75.41</course>
  <speed>0.03</speed>
  <fix>3d</fix>
</trkpt>
<trkpt lat="40.0729353" lon="-105.2307972">
  <ele>1595.57</ele>
  <time>2026-08-28T19:11:40Z</time>
  <course>331.8</course>
  <speed>0.01</speed>
  <fix>3d</fix>
</trkpt>
<trkpt lat="40.0729351" lon="-105.2307969">
  <ele>1595.49</ele>
  <time>2026-08-28T19:11:40Z</time>
  <course>74.94</course>
  <speed>0.03</speed>
  <fix>3d</fix>
</trkpt>
<trkpt lat="40.0729353" lon="-105.2307971">
  <ele>1595.57</ele>
  <time>2026-08-28T19:11:40Z</time>
  <course>331.01</course>
  <speed>0.0</speed>
  <fix>3d</fix>
</trkpt>
<trkpt lat="40.0729351" lon="-105.2307968">
  <ele>1595.49</ele>
  <time>2026-08-28T19:11:40Z</time>
  <course>76.41</course>
  <speed>0.03</speed>
  <fix>3d</fix>
</trkpt>
<trkpt lat="40.0729353" lon="-105.230797">
  <ele>1595.57</ele>
  <time>2026-08-28T19:11:40Z</time>
  <course>330.64</course>
  <speed>0.0</speed>
  <fix>3d</fix>
</trkpt>
<trkpt lat="40.0729352" lon="-105.2307967">
  <ele>1595.49</ele>
  <time>2026-08-28T19:11:40Z</time>
  <course>80.63</course>
  <speed>0.02</speed>
  <fix>3d</fix>
</trkpt>
<trkpt lat="40.0729353" lon="-105.230797">
  <ele>1595.57</ele>
  <time>2026-08-28T19:11:40Z</time>
  <course>330.73</course>
  <speed>0.0</speed>
  <fix>3d</fix>
</trkpt>
<trkpt lat="40.0729353" lon="-105.2307967">
  <ele>1595.5</ele>
  <time>2026-08-28T19:11:40Z</time>
  <course>86.83</course>
  <speed>0.02</speed>
  <fix>3d</fix>
</trkpt>
<trkpt lat="40.0729353" lon="-105.2307969">
  <ele>1595.57</ele>
  <time>2026-08-28T19:11:40Z</time>
  <course>331.32</course>
  <speed>0.0</speed>
  <fix>3d</fix>
</trkpt>
<trkpt lat="40.0729353" lon="-105.2307966">
  <ele>1595.5</ele>
  <time>2026-08-28T19:11:40Z</time>
  <course>93.19</course>
  <speed>0.02</speed>
  <fix>3d</fix>
</trkpt>
<trkpt lat="40.0729353" lon="-105.2307968">
  <ele>1595.57</ele>
  <time>2026-08-28T19:11:40Z</time>
  <course>332.31</course>
  <speed>0.0</speed>
  <fix>3d</fix>
</trkpt>
<trkpt lat="40.0729353" lon="-105.2307965">
  <ele>1595.5</ele>
  <time>2026-08-28T19:11:40Z</time>
  <course>98.91</course>
  <speed>0.02</speed>
  <fix>3d</fix>
</trkpt>
<trkpt lat="40.0729353" lon="-105.2307968">
  <ele>1595.57</ele>
  <time>2026-08-28T19:11:40Z</time>
  <course>333.64</course>
  <speed>0.0</speed>
  <fix>3d</fix>
</trkpt>
<trkpt lat="40.0729353" lon="-105.2307965">
  <ele>1595.5</ele>
  <time>2026-08-28T19:11:40Z</time>
  <course>103.48</course>
  <speed>0.02</speed>
  <fix>3d</fix>
</trkpt>
<trkpt lat="40.0729353" lon="-105.2307967">
  <ele>1595.57</ele>
  <time>2026-08-28T19:11:40Z</time>
  <course>335.12</course>
  <speed>0.0</speed>
  <fix>3d</fix>
</trkpt>
<trkpt lat="40.0729353" lon="-105.2307965">
  <ele>1595.5</ele>
  <time>2026-08-28T19:11:40Z</time>
  <course>106.24</course>
  <speed>0.02</speed>
  <fix>3d</fix>
</trkpt>
<trkpt lat="40.0729353" lon="-105.2307967">
  <ele>1595.57</ele>
  <time>2026-08-28T19:11:40Z</time>
  <course>336.63</course>
  <speed>0.0</speed>
  <fix>3d</fix>
</trkpt>
<trkpt lat="40.0729353" lon="-105.2307964">
  <ele>1595.5</ele>
  <time>2026-08-28T19:11:40Z</time>
  <course>107.3</course>
  <speed>0.02</speed>
  <fix>3d</fix>
</trkpt>
<trkpt lat="40.0729353" lon="-105.2307966">
  <ele>1595.57</ele>
  <time>2026-08-28T19:11:40Z</time>
  <course>338.03</course>
  <speed>0.0</speed>
  <fix>3d</fix>
</trkpt>
<trkpt lat="40.0729353" lon="-105.2307963">
  <ele>1595.5</ele>
  <time>2026-08-28T19:11:40Z</time>
  <course>107.9</course>
  <speed>0.02</speed>
  <fix>3d</fix>
</trkpt>
<trkpt lat="40.0729353" lon="-105.2307966">
  <ele>1595.57</ele>
  <time>2026-08-28T19:11:40Z</time>
  <course>339.24</course>
  <speed>0.0</speed>
  <fix>3d</fix>
</trkpt>
<trkpt lat="40.0729353" lon="-105.2307963">
  <ele>1595.5</ele>
  <time>2026-08-28T19:11:40Z</time>
  <course>107.81</course>
  <speed>0.02</speed>
  <fix>3d</fix>
</trkpt>
<trkpt lat="40.0729353" lon="-105.2307965">
  <ele>1595.57</ele>
  <time>2026-08-28T19:11:40Z</time>
  <course>340.07</course>
  <speed>0.0</speed>
  <fix>3d</fix>
</trkpt>
<trkpt lat="40.0729353" lon="-105.2307963">
  <ele>1595.49</ele>
  <time>2026-08-28T19:11:40Z</time>
  <course>106.23</course>
  <speed>0.02</speed>
  <fix>3d</fix>
</trkpt>
<trkpt lat="40.0729353" lon="-105.2307964">
  <ele>1595.57</ele>
  <time>2026-08-28T19:11:40Z</time>
  <course>340.45</course>
  <speed>0.0</speed>
  <fix>3d</fix>
</trkpt>
<trkpt lat="40.0729353" lon="-105.2307962">
  <ele>1595.49</ele>
  <time>2026-08-28T19:11:40Z</time>
  <course>103.68</course>
  <speed>0.02</speed>
  <fix>3d</fix>
</trkpt>
<trkpt lat="40.0729353" lon="-105.2307964">
  <ele>1595.57</ele>
  <time>2026-08-28T19:11:40Z</time>
  <course>340.34</course>
  <speed>0.0</speed>
  <fix>3d</fix>
</trkpt>
<trkpt lat="40.0729352" lon="-105.2307961">
  <ele>1595.49</ele>
  <time>2026-08-28T19:11:40Z</time>
  <course>101.25</course>
  <speed>0.03</speed>
  <fix>3d</fix>
</trkpt>
<trkpt lat="40.0729353" lon="-105.2307963">
  <ele>1595.57</ele>
  <time>2026-08-28T19:11:40Z</time>
  <course>339.76</course>
  <speed>0.0</speed>
  <fix>3d</fix>
</trkpt>
<trkpt lat="40.0729351" lon="-105.230796">
  <ele>1595.49</ele>
  <time>2026-08-28T19:11:40Z</time>
  <course>99.7</course>
  <speed>0.03</speed>
  <fix>3d</fix>
</trkpt>
<trkpt lat="40.0729353" lon="-105.2307962">
  <ele>1595.57</ele>
  <time>2026-08-28T19:11:40Z</time>
  <course>338.77</course>
  <speed>0.0</speed>
  <fix>3d</fix>
</trkpt>
<trkpt lat="40.0729351" lon="-105.230796">
  <ele>1595.49</ele>
  <time>2026-08-28T19:11:40Z</time>
  <course>98.64</course>
  <speed>0.03</speed>
  <fix>3d</fix>
</trkpt>
<trkpt lat="40.0729353" lon="-105.2307961">
  <ele>1595.58</ele>
  <time>2026-08-28T19:11:40Z</time>
  <course>337.49</course>
  <speed>0.0</speed>
  <fix>3d</fix>
</trkpt>
<trkpt lat="40.0729351" lon="-105.2307959">
  <ele>1595.49</ele>
  <time>2026-08-28T19:11:40Z</time>
  <course>97.27</course>
  <speed>0.03</speed>
  <fix>3d</fix>
</trkpt>
<trkpt lat="40.0729353" lon="-105.2307961">
  <ele>1595.57</ele>
  <time>2026-08-28T19:11:40Z</time>
  <course>336.02</course>
  <speed>0.0</speed>
  <fix>3d</fix>
</trkpt>
<trkpt lat="40.0729351" lon="-105.2307958">
  <ele>1595.49</ele>
  <time>2026-08-28T19:11:40Z</time>
  <course>96.01</course>
  <speed>0.03</speed>
  <fix>3d</fix>
</trkpt>
<trkpt lat="40.0729353" lon="-105.230796">
  <ele>1595.57</ele>
  <time>2026-08-28T19:11:40Z</time>
  <course>334.45</course>
  <speed>0.0</speed>
  <fix>3d</fix>
</trkpt>
<trkpt lat="40.0729351" lon="-105.2307957">
  <ele>1595.49</ele>
  <time>2026-08-28T19:11:40Z</time>
  <course>95.29</course>
  <speed>0.03</speed>
  <fix>3d</fix>
</trkpt>
<trkpt lat="40.0729352" lon="-105.2307959">
  <ele>1595.56</ele>
  <time>2026-08-28T19:11:40Z</time>
  <course>333.0</course>
  <speed>0.0</speed>
  <fix>3d</fix>
</trkpt>
<trkpt lat="40.0729351" lon="-105.2307957">
  <ele>1595.49</ele>
  <time>2026-08-28T19:11:40Z</time>
  <course>95.48</course>
  <speed>0.03</speed>
  <fix>3d</fix>
</trkpt>
<trkpt lat="40.0729352" lon="-105.2307958">
  <ele>1595.56</ele>
  <time>2026-08-28T19:11:40Z</time>
  <course>331.82</course>
  <speed>0.0</speed>
  <fix>3d</fix>
</trkpt>
<trkpt lat="40.0729351" lon="-105.2307956">
  <ele>1595.49</ele>
  <time>2026-08-28T19:11:40Z</time>
  <course>97.49</course>
  <speed>0.02</speed>
  <fix>3d</fix>
</trkpt>
<trkpt lat="40.0729352" lon="-105.2307958">
  <ele>1595.56</ele>
  <time>2026-08-28T19:11:40Z</time>
  <course>331.01</course>
  <speed>0.0</speed>
  <fix>3d</fix>
</trkpt>
<trkpt lat="40.0729351" lon="-105.2307955">
  <ele>1595.49</ele>
  <time>2026-08-28T19:11:40Z</time>
  <course>100.66</course>
  <speed>0.02</speed>
  <fix>3d</fix>
</trkpt>
<trkpt lat="40.0729352" lon="-105.2307957">
  <ele>1595.57</ele>
  <time>2026-08-28T19:11:40Z</time>
  <course>330.63</course>
  <speed>0.0</speed>
  <fix>3d</fix>
</trkpt>
<trkpt lat="40.0729351" lon="-105.2307955">
  <ele>1595.49</ele>
  <time>2026-08-28T19:11:40Z</time>
  <course>104.58</course>
  <speed>0.02</speed>
  <fix>3d</fix>
</trkpt>
<trkpt lat="40.0729352" lon="-105.2307957">
  <ele>1595.56</ele>
  <time>2026-08-28T19:11:40Z</time>
  <course>330.73</course>
  <speed>0.0</speed>
  <fix>3d</fix>
</trkpt>
<trkpt lat="40.0729351" lon="-105.2307954">
  <ele>1595.49</ele>
  <time>2026-08-28T19:11:40Z</time>
  <course>109.47</course>
  <speed>0.02</speed>
  <fix>3d</fix>
</trkpt>
<trkpt lat="40.0729352" lon="-105.2307956">
  <ele>1595.56</ele>
  <time>2026-08-28T19:11:40Z</time>
  <course>331.29</course>
  <speed>0.0</speed>
  <fix>3d</fix>
</trkpt>
<trkpt lat="40.0729351" lon="-105.2307953">
  <ele>1595.49</ele>
  <time>2026-08-28T19:11:40Z</time>
  <course>114.43</course>
  <speed>0.02</speed>
  <fix>3d</fix>
</trkpt>
<trkpt lat="40.0729351" lon="-105.2307956">
  <ele>1595.56</ele>
  <time>2026-08-28T19:11:40Z</time>
  <course>332.27</course>
  <speed>0.0</speed>
  <fix>3d</fix>
</trkpt>
<trkpt lat="40.072935" lon="-105.2307953">
  <ele>1595.49</ele>
  <time>2026-08-28T19:11:40Z</time>
  <course>117.65</course>
  <speed>0.02</speed>
  <fix>3d</fix>
</trkpt>
<trkpt lat="40.0729351" lon="-105.2307955">
  <ele>1595.57</ele>
  <time>2026-08-28T19:11:40Z</time>
  <course>333.55</course>
  <speed>0.0</speed>
  <fix>3d</fix>
</trkpt>
<trkpt lat="40.072935" lon="-105.2307953">
  <ele>1595.49</ele>
  <time>2026-08-28T19:11:40Z</time>
  <course>118.66</course>
  <speed>0.02</speed>
  <fix>3d</fix>
</trkpt>
<trkpt lat="40.0729351" lon="-105.2307955">
  <ele>1595.57</ele>
  <time>2026-08-28T19:11:41Z</time>
  <course>335.06</course>
  <speed>0.0</speed>
  <fix>3d</fix>
</trkpt>
<trkpt lat="40.072935" lon="-105.2307952">
  <ele>1595.49</ele>
  <time>2026-08-28T19:11:41Z</time>
  <course>119.27</course>
  <speed>0.02</speed>
  <fix>3d</fix>
</trkpt>
<trkpt lat="40.0729351" lon="-105.2307954">
  <ele>1595.57</ele>
  <time>2026-08-28T19:11:41Z</time>
  <course>336.63</course>
  <speed>0.0</speed>
  <fix>3d</fix>
</trkpt>
<trkpt lat="40.072935" lon="-105.2307951">
  <ele>1595.5</ele>
  <time>2026-08-28T19:11:41Z</time>
  <course>118.92</course>
  <speed>0.02</speed>
  <fix>3d</fix>
</trkpt>
<trkpt lat="40.0729351" lon="-105.2307954">
  <ele>1595.57</ele>
  <time>2026-08-28T19:11:41Z</time>
  <course>338.06</course>
  <speed>0.0</speed>
  <fix>3d</fix>
</trkpt>
<trkpt lat="40.072935" lon="-105.2307951">
  <ele>1595.5</ele>
  <time>2026-08-28T19:11:41Z</time>
  <course>117.12</course>
  <speed>0.02</speed>
  <fix>3d</fix>
</trkpt>
<trkpt lat="40.072935" lon="-105.2307953">
  <ele>1595.56</ele>
  <time>2026-08-28T19:11:41Z</time>
  <course>339.24</course>
  <speed>0.0</speed>
  <fix>3d</fix>
</trkpt>
<trkpt lat="40.072935" lon="-105.230795">
  <ele>1595.5</ele>
  <time>2026-08-28T19:11:41Z</time>
  <course>114.34</course>
  <speed>0.02</speed>
  <fix>3d</fix>
</trkpt>
<trkpt lat="40.072935" lon="-105.2307952">
  <ele>1595.56</ele>
  <time>2026-08-28T19:11:41Z</time>
  <course>340.07</course>
  <speed>0.0</speed>
  <fix>3d</fix>
</trkpt>
<trkpt lat="40.072935" lon="-105.230795">
  <ele>1595.5</ele>
  <time>2026-08-28T19:11:41Z</time>
  <course>110.01</course>
  <speed>0.02</speed>
  <fix>3d</fix>
</trkpt>
<trkpt lat="40.072935" lon="-105.2307952">
  <ele>1595.56</ele>
  <time>2026-08-28T19:11:41Z</time>
  <course>340.41</course>
  <speed>0.0</speed>
  <fix>3d</fix>
</trkpt>
<trkpt lat="40.072935" lon="-105.2307949">
  <ele>1595.5</ele>
  <time>2026-08-28T19:11:41Z</time>
  <course>105.09</course>
  <speed>0.03</speed>
  <fix>3d</fix>
</trkpt>
<trkpt lat="40.072935" lon="-105.2307951">
  <ele>1595.56</ele>
  <time>2026-08-28T19:11:41Z</time>
  <course>340.31</course>
  <speed>0.0</speed>
  <fix>3d</fix>
</trkpt>
<trkpt lat="40.072935" lon="-105.2307948">
  <ele>1595.5</ele>
  <time>2026-08-28T19:11:41Z</time>
  <course>101.03</course>
  <speed>0.03</speed>
  <fix>3d</fix>
</trkpt>
<trkpt lat="40.072935" lon="-105.230795">
  <ele>1595.56</ele>
  <time>2026-08-28T19:11:41Z</time>
  <course>339.72</course>
  <speed>0.0</speed>
  <fix>3d</fix>
</trkpt>
<trkpt lat="40.072935" lon="-105.2307948">
  <ele>1595.5</ele>
  <time>2026-08-28T19:11:41Z</time>
  <course>97.85</course>
  <speed>0.03</speed>
  <fix>3d</fix>
</trkpt>
<trkpt lat="40.072935" lon="-105.2307949">
  <ele>1595.56</ele>
  <time>2026-08-28T19:11:41Z</time>
  <course>338.74</course>
  <speed>0.01</speed>
  <fix>3d</fix>
</trkpt>
<trkpt lat="40.072935" lon="-105.2307947">
  <ele>1595.5</ele>
  <time>2026-08-28T19:11:41Z</time>
  <course>95.12</course>
  <speed>0.03</speed>
  <fix>3d</fix>
</trkpt>
<trkpt lat="40.072935" lon="-105.2307948">
  <ele>1595.56</ele>
  <time>2026-08-28T19:11:41Z</time>
  <course>337.44</course>
  <speed>0.01414213562373095</speed>
  <fix>3d</fix>
</trkpt>
<trkpt lat="40.072935" lon="-105.2307946">
  <ele>1595.5</ele>
  <time>2026-08-28T19:11:41Z</time>
  <course>92.72</course>
  <speed>0.03</speed>
  <fix>3d</fix>
</trkpt>
<trkpt lat="40.072935" lon="-105.2307948">
  <ele>1595.56</ele>
  <time>2026-08-28T19:11:41Z</time>
  <course>335.95</course>
  <speed>0.01</speed>
  <fix>3d</fix>
</trkpt>
<trkpt lat="40.072935" lon="-105.2307945">
  <ele>1595.51</ele>
  <time>2026-08-28T19:11:41Z</time>
  <course>90.71</course>
  <speed>0.03</speed>
  <fix>3d</fix>
</trkpt>
<trkpt lat="40.072935" lon="-105.2307947">
  <ele>1595.57</ele>
  <time>2026-08-28T19:11:41Z</time>
  <course>334.44</course>
  <speed>0.01</speed>
  <fix>3d</fix>
</trkpt>
<trkpt lat="40.072935" lon="-105.2307944">
  <ele>1595.51</ele>
  <time>2026-08-28T19:11:41Z</time>
  <course>89.94</course>
  <speed>0.03</speed>
  <fix>3d</fix>
</trkpt>
<trkpt lat="40.072935" lon="-105.2307946">
  <ele>1595.57</ele>
  <time>2026-08-28T19:11:41Z</time>
  <course>333.02</course>
  <speed>0.01</speed>
  <fix>3d</fix>
</trkpt>
<trkpt lat="40.072935" lon="-105.2307943">
  <ele>1595.51</ele>
  <time>2026-08-28T19:11:41Z</time>
  <course>90.29</course>
  <speed>0.03</speed>
  <fix>3d</fix>
</trkpt>
<trkpt lat="40.072935" lon="-105.2307945">
  <ele>1595.58</ele>
  <time>2026-08-28T19:11:41Z</time>
  <course>331.83</course>
  <speed>0.0</speed>
  <fix>3d</fix>
</trkpt>
<trkpt lat="40.072935" lon="-105.2307943">
  <ele>1595.51</ele>
  <time>2026-08-28T19:11:41Z</time>
  <course>92.22</course>
  <speed>0.02</speed>
  <fix>3d</fix>
</trkpt>
<trkpt lat="40.072935" lon="-105.2307945">
  <ele>1595.59</ele>
  <time>2026-08-28T19:11:41Z</time>
  <course>331.03</course>
  <speed>0.0</speed>
  <fix>3d</fix>
</trkpt>
<trkpt lat="40.0729349" lon="-105.2307942">
  <ele>1595.51</ele>
  <time>2026-08-28T19:11:41Z</time>
  <course>96.49</course>
  <speed>0.02</speed>
  <fix>3d</fix>
</trkpt>
<trkpt lat="40.072935" lon="-105.2307944">
  <ele>1595.59</ele>
  <time>2026-08-28T19:11:41Z</time>
  <course>330.67</course>
  <speed>0.0</speed>
  <fix>3d</fix>
</trkpt>
<trkpt lat="40.0729349" lon="-105.2307941">
  <ele>1595.51</ele>
  <time>2026-08-28T19:11:41Z</time>
  <course>101.67</course>
  <speed>0.02</speed>
  <fix>3d</fix>
</trkpt>
<trkpt lat="40.072935" lon="-105.2307944">
  <ele>1595.59</ele>
  <time>2026-08-28T19:11:41Z</time>
  <course>330.81</course>
  <speed>0.0</speed>
  <fix>3d</fix>
</trkpt>
<trkpt lat="40.0729349" lon="-105.2307941">
  <ele>1595.51</ele>
  <time>2026-08-28T19:11:41Z</time>
  <course>107.13</course>
  <speed>0.02</speed>
  <fix>3d</fix>
</trkpt>
<trkpt lat="40.072935" lon="-105.2307943">
  <ele>1595.59</ele>
  <time>2026-08-28T19:11:41Z</time>
  <course>331.36</course>
  <speed>0.0</speed>
  <fix>3d</fix>
</trkpt>
<trkpt lat="40.0729349" lon="-105.2307941">
  <ele>1595.51</ele>
  <time>2026-08-28T19:11:41Z</time>
  <course>112.83</course>
  <speed>0.02</speed>
  <fix>3d</fix>
</trkpt>
<trkpt lat="40.072935" lon="-105.2307943">
  <ele>1595.59</ele>
  <time>2026-08-28T19:11:41Z</time>
  <course>332.35</course>
  <speed>0.0</speed>
  <fix>3d</fix>
</trkpt>
<trkpt lat="40.0729349" lon="-105.230794">
  <ele>1595.5</ele>
  <time>2026-08-28T19:11:41Z</time>
  <course>117.99</course>
  <speed>0.02</speed>
  <fix>3d</fix>
</trkpt>
<trkpt lat="40.072935" lon="-105.2307942">
  <ele>1595.58</ele>
  <time>2026-08-28T19:11:41Z</time>
  <course>333.66</course>
  <speed>0.0</speed>
  <fix>3d</fix>
</trkpt>
<trkpt lat="40.0729349" lon="-105.2307939">
  <ele>1595.5</ele>
  <time>2026-08-28T19:11:41Z</time>
  <course>121.27</course>
  <speed>0.02</speed>
  <fix>3d</fix>
</trkpt>
<trkpt lat="40.072935" lon="-105.2307942">
  <ele>1595.58</ele>
  <time>2026-08-28T19:11:41Z</time>
  <course>335.13</course>
  <speed>0.0</speed>
  <fix>3d</fix>
</trkpt>
<trkpt lat="40.0729348" lon="-105.2307939">
  <ele>1595.5</ele>
  <time>2026-08-28T19:11:41Z</time>
  <course>121.64</course>
  <speed>0.02</speed>
  <fix>3d</fix>
</trkpt>
<trkpt lat="40.0729349" lon="-105.2307941">
  <ele>1595.58</ele>
  <time>2026-08-28T19:11:41Z</time>
  <course>336.66</course>
  <speed>0.0</speed>
  <fix>3d</fix>
</trkpt>
<trkpt lat="40.0729348" lon="-105.2307939">
  <ele>1595.49</ele>
  <time>2026-08-28T19:11:41Z</time>
  <course>120.19</course>
  <speed>0.02</speed>
  <fix>3d</fix>
</trkpt>
<trkpt lat="40.0729349" lon="-105.2307941">
  <ele>1595.57</ele>
  <time>2026-08-28T19:11:41Z</time>
  <course>338.08</course>
  <speed>0.0</speed>
  <fix>3d</fix>
</trkpt>
<trkpt lat="40.0729348" lon="-105.2307938">
  <ele>1595.49</ele>
  <time>2026-08-28T19:11:41Z</time>
  <course>117.81</course>
  <speed>0.02</speed>
  <fix>3d</fix>
</trkpt>
<trkpt lat="40.0729349" lon="-105.230794">
  <ele>1595.57</ele>
  <time>2026-08-28T19:11:41Z</time>
  <course>339.26</course>
  <speed>0.0</speed>
  <fix>3d</fix>
</trkpt>
<trkpt lat="40.0729348" lon="-105.2307937">
  <ele>1595.49</ele>
  <time>2026-08-28T19:11:41Z</time>
  <course>114.9</course>
  <speed>0.02</speed>
  <fix>3d</fix>
</trkpt>
<trkpt lat="40.0729349" lon="-105.2307939">
  <ele>1595.57</ele>
  <time>2026-08-28T19:11:41Z</time>
  <course>340.07</course>
  <speed>0.0</speed>
  <fix>3d</fix>
</trkpt>
<trkpt lat="40.0729348" lon="-105.2307936">
  <ele>1595.48</ele>
  <time>2026-08-28T19:11:41Z</time>
  <course>111.39</course>
  <speed>0.02</speed>
  <fix>3d</fix>
</trkpt>
<trkpt lat="40.0729348" lon="-105.2307938">
  <ele>1595.57</ele>
  <time>2026-08-28T19:11:41Z</time>
  <course>340.45</course>
  <speed>0.0</speed>
  <fix>3d</fix>
</trkpt>
<trkpt lat="40.0729347" lon="-105.2307936">
  <ele>1595.48</ele>
  <time>2026-08-28T19:11:41Z</time>
  <course>106.8</course>
  <speed>0.03</speed>
  <fix>3d</fix>
</trkpt>
<trkpt lat="40.0729348" lon="-105.2307938">
  <ele>1595.57</ele>
  <time>2026-08-28T19:11:41Z</time>
  <course>340.34</course>
  <speed>0.0</speed>
  <fix>3d</fix>
</trkpt>
<trkpt lat="40.0729347" lon="-105.2307935">
  <ele>1595.48</ele>
  <time>2026-08-28T19:11:41Z</time>
  <course>101.6</course>
  <speed>0.03</speed>
  <fix>3d</fix>
</trkpt>
<trkpt lat="40.0729348" lon="-105.2307937">
  <ele>1595.56</ele>
  <time>2026-08-28T19:11:41Z</time>
  <course>339.76</course>
  <speed>0.01</speed>
  <fix>3d</fix>
</trkpt>
<trkpt lat="40.0729347" lon="-105.2307934">
  <ele>1595.48</ele>
  <time>2026-08-28T19:11:41Z</time>
  <course>97.06</course>
  <speed>0.03</speed>
  <fix>3d</fix>
</trkpt>
<trkpt lat="40.0729348" lon="-105.2307936">
  <ele>1595.56</ele>
  <time>2026-08-28T19:11:41Z</time>
  <course>338.75</course>
  <speed>0.01</speed>
  <fix>3d</fix>
</trkpt>
<trkpt lat="40.0729347" lon="-105.2307934">
  <ele>1595.48</ele>
  <time>2026-08-28T19:11:41Z</time>
  <course>93.84</course>
  <speed>0.03</speed>
  <fix>3d</fix>
</trkpt>
<trkpt lat="40.0729348" lon="-105.2307935">
  <ele>1595.56</ele>
  <time>2026-08-28T19:11:41Z</time>
  <course>337.44</course>
  <speed>0.01</speed>
  <fix>3d</fix>
</trkpt>
<trkpt lat="40.0729347" lon="-105.2307933">
  <ele>1595.48</ele>
  <time>2026-08-28T19:11:41Z</time>
  <course>91.15</course>
  <speed>0.03</speed>
  <fix>3d</fix>
</trkpt>
<trkpt lat="40.0729348" lon="-105.2307934">
  <ele>1595.55</ele>
  <time>2026-08-28T19:11:41Z</time>
  <course>335.96</course>
  <speed>0.01</speed>
  <fix>3d</fix>
</trkpt>
<trkpt lat="40.0729347" lon="-105.2307932">
  <ele>1595.48</ele>
  <time>2026-08-28T19:11:41Z</time>
  <course>88.8</course>
  <speed>0.03</speed>
  <fix>3d</fix>
</trkpt>
<trkpt lat="40.0729348" lon="-105.2307934">
  <ele>1595.55</ele>
  <time>2026-08-28T19:11:41Z</time>
  <course>334.42</course>
  <speed>0.0</speed>
  <fix>3d</fix>
</trkpt>
<trkpt lat="40.0729347" lon="-105.2307931">
  <ele>1595.48</ele>
  <time>2026-08-28T19:11:41Z</time>
  <course>87.55</course>
  <speed>0.03</speed>
  <fix>3d</fix>
</trkpt>
<trkpt lat="40.0729348" lon="-105.2307933">
  <ele>1595.55</ele>
  <time>2026-08-28T19:11:41Z</time>
  <course>332.98</course>
  <speed>0.0</speed>
  <fix>3d</fix>
</trkpt>
<trkpt lat="40.0729347" lon="-105.230793">
  <ele>1595.49</ele>
  <time>2026-08-28T19:11:41Z</time>
  <course>87.99</course>
  <speed>0.03</speed>
  <fix>3d</fix>
</trkpt>
<trkpt lat="40.0729348" lon="-105.2307932">
  <ele>1595.55</ele>
  <time>2026-08-28T19:11:41Z</time>
  <course>331.78</course>
  <speed>0.0</speed>
  <fix>3d</fix>
</trkpt>
<trkpt lat="40.0729347" lon="-105.2307929">
  <ele>1595.49</ele>
  <time>2026-08-28T19:11:41Z</time>
  <course>90.25</course>
  <speed>0.03</speed>
  <fix>3d</fix>
</trkpt>
<trkpt lat="40.0729348" lon="-105.2307931">
  <ele>1595.55</ele>
  <time>2026-08-28T19:11:41Z</time>
  <course>330.95</course>
  <speed>0.0</speed>
  <fix>3d</fix>
</trkpt>
<trkpt lat="40.0729347" lon="-105.2307929">
  <ele>1595.49</ele>
  <time>2026-08-28T19:11:41Z</time>
  <course>93.4</course>
  <speed>0.02</speed>
  <fix>3d</fix>
</trkpt>
<trkpt lat="40.0729348" lon="-105.2307931">
  <ele>1595.54</ele>
  <time>2026-08-28T19:11:41Z</time>
  <course>330.57</course>
  <speed>0.0</speed>
  <fix>3d</fix>
</trkpt>
<trkpt lat="40.0729347" lon="-105.2307928">
  <ele>1595.5</ele>
  <time>2026-08-28T19:11:41Z</time>
  <course>97.12</course>
  <speed>0.02</speed>
  <fix>3d</fix>
</trkpt>
<trkpt lat="40.0729348" lon="-105.230793">
  <ele>1595.55</ele>
  <time>2026-08-28T19:11:41Z</time>
  <course>330.68</course>
  <speed>0.0</speed>
  <fix>3d</fix>
</trkpt>
<trkpt lat="40.0729347" lon="-105.2307927">
  <ele>1595.5</ele>
  <time>2026-08-28T19:11:41Z</time>
  <course>101.83</course>
  <speed>0.02</speed>
  <fix>3d</fix>
</trkpt>
<trkpt lat="40.0729348" lon="-105.230793">
  <ele>1595.56</ele>
  <time>2026-08-28T19:11:41Z</time>
  <course>331.25</course>
  <speed>0.0</speed>
  <fix>3d</fix>
</trkpt>
<trkpt lat="40.0729347" lon="-105.2307927">
  <ele>1595.51</ele>
  <time>2026-08-28T19:11:41Z</time>
  <course>107.84</course>
  <speed>0.02</speed>
  <fix>3d</fix>
</trkpt>
<trkpt lat="40.0729348" lon="-105.2307929">
  <ele>1595.56</ele>
  <time>2026-08-28T19:11:41Z</time>
  <course>332.26</course>
  <speed>0.0</speed>
  <fix>3d</fix>
</trkpt>
<trkpt lat="40.0729347" lon="-105.2307927">
  <ele>1595.52</ele>
  <time>2026-08-28T19:11:41Z</time>
  <course>113.7</course>
  <speed>0.02</speed>
  <fix>3d</fix>
</trkpt>
<trkpt lat="40.0729348" lon="-105.2307929">
  <ele>1595.57</ele>
  <time>2026-08-28T19:11:41Z</time>
  <course>333.57</course>
  <speed>0.0</speed>
  <fix>3d</fix>
</trkpt>
<trkpt lat="40.0729347" lon="-105.2307927">
  <ele>1595.52</ele>
  <time>2026-08-28T19:11:41Z</time>
  <course>117.12</course>
  <speed>0.02</speed>
  <fix>3d</fix>
</trkpt>
<trkpt lat="40.0729347" lon="-105.2307929">
  <ele>1595.57</ele>
  <time>2026-08-28T19:11:41Z</time>
  <course>335.07</course>
  <speed>0.0</speed>
  <fix>3d</fix>
</trkpt>
<trkpt lat="40.0729346" lon="-105.2307926">
  <ele>1595.53</ele>
  <time>2026-08-28T19:11:41Z</time>
  <course>118.0</course>
  <speed>0.02</speed>
  <fix>3d</fix>
</trkpt>
<trkpt lat="40.0729347" lon="-105.2307928">
  <ele>1595.58</ele>
  <time>2026-08-28T19:11:41Z</time>
  <course>336.62</course>
  <speed>0.0</speed>
  <fix>3d</fix>
</trkpt>
<trkpt lat="40.0729345" lon="-105.2307926">
  <ele>1595.53</ele>
  <time>2026-08-28T19:11:41Z</time>
  <course>116.95</course>
  <speed>0.02</speed>
  <fix>3d</fix>
</trkpt>
<trkpt lat="40.0729347" lon="-105.2307928">
  <ele>1595.58</ele>
  <time>2026-08-28T19:11:41Z</time>
  <course>338.06</course>
  <speed>0.0</speed>
  <fix>3d</fix>
</trkpt>
<trkpt lat="40.0729345" lon="-105.2307925">
  <ele>1595.53</ele>
  <time>2026-08-28T19:11:41Z</time>
  <course>115.0</course>
  <speed>0.02</speed>
  <fix>3d</fix>
</trkpt>
<trkpt lat="40.0729347" lon="-105.2307927">
  <ele>1595.59</ele>
  <time>2026-08-28T19:11:41Z</time>
  <course>339.28</course>
  <speed>0.0</speed>
  <fix>3d</fix>
</trkpt>
<trkpt lat="40.0729345" lon="-105.2307924">
  <ele>1595.53</ele>
  <time>2026-08-28T19:11:41Z</time>
  <course>112.7</course>
  <speed>0.02</speed>
  <fix>3d</fix>
</trkpt>
<trkpt lat="40.0729346" lon="-105.2307926">
  <ele>1595.59</ele>
  <time>2026-08-28T19:11:41Z</time>
  <course>340.11</course>
  <speed>0.0</speed>
  <fix>3d</fix>
</trkpt>
<trkpt lat="40.0729345" lon="-105.2307924">
  <ele>1595.53</ele>
  <time>2026-08-28T19:11:41Z</time>
  <course>109.25</course>
  <speed>0.02</speed>
  <fix>3d</fix>
</trkpt>
<trkpt lat="40.0729346" lon="-105.2307926">
  <ele>1595.6</ele>
  <time>2026-08-28T19:11:41Z</time>
  <course>340.49</course>
  <speed>0.0</speed>
  <fix>3d</fix>
</trkpt>
<trkpt lat="40.0729345" lon="-105.2307923">
  <ele>1595.53</ele>
  <time>2026-08-28T19:11:41Z</time>
  <course>104.84</course>
  <speed>0.02</speed>
  <fix>3d</fix>
</trkpt>
<trkpt lat="40.0729346" lon="-105.2307925">
  <ele>1595.6</ele>
  <time>2026-08-28T19:11:41Z</time>
  <course>340.41</course>
  <speed>0.0</speed>
  <fix>3d</fix>
</trkpt>
<trkpt lat="40.0729345" lon="-105.2307922">
  <ele>1595.52</ele>
  <time>2026-08-28T19:11:41Z</time>
  <course>100.56</course>
  <speed>0.03</speed>
  <fix>3d</fix>
</trkpt>
<trkpt lat="40.0729346" lon="-105.2307924">
  <ele>1595.59</ele>
  <time>2026-08-28T19:11:41Z</time>
  <course>339.83</course>
  <speed>0.0</speed>
  <fix>3d</fix>
</trkpt>
<trkpt lat="40.0729344" lon="-105.2307922">
  <ele>1595.52</ele>
  <time>2026-08-28T19:11:41Z</time>
  <course>96.05</course>
  <speed>0.03</speed>
  <fix>3d</fix>
</trkpt>
<trkpt lat="40.0729346" lon="-105.2307923">
  <ele>1595.59</ele>
  <time>2026-08-28T19:11:41Z</time>
  <course>338.82</course>
  <speed>0.01</speed>
  <fix>3d</fix>
</trkpt>
<trkpt lat="40.0729344" lon="-105.2307921">
  <ele>1595.51</ele>
  <time>2026-08-28T19:11:41Z</time>
  <course>91.35</course>
  <speed>0.03</speed>
  <fix>3d</fix>
</trkpt>
<trkpt lat="40.0729346" lon="-105.2307923">
  <ele>1595.58</ele>
  <time>2026-08-28T19:11:41Z</time>
  <course>337.53</course>
  <speed>0.01</speed>
  <fix>3d</fix>
</trkpt>
<trkpt lat="40.0729344" lon="-105.230792">
  <ele>1595.51</ele>
  <time>2026-08-28T19:11:41Z</time>
  <course>87.41</course>
  <speed>0.03</speed>
  <fix>3d</fix>
</trkpt>
<trkpt lat="40.0729346" lon="-105.2307922">
  <ele>1595.58</ele>
  <time>2026-08-28T19:11:41Z</time>
  <course>336.04</course>
  <speed>0.01414213562373095</speed>
  <fix>3d</fix>
</trkpt>
<trkpt lat="40.0729344" lon="-105.2307919">
  <ele>1595.5</ele>
  <time>2026-08-28T19:11:41Z</time>
  <course>84.9</course>
  <speed>0.03</speed>
  <fix>3d</fix>
</trkpt>
<trkpt lat="40.0729346" lon="-105.2307921">
  <ele>1595.58</ele>
  <time>2026-08-28T19:11:41Z</time>
  <course>334.49</course>
  <speed>0.01</speed>
  <fix>3d</fix>
</trkpt>
<trkpt lat="40.0729344" lon="-105.2307919">
  <ele>1595.5</ele>
  <time>2026-08-28T19:11:41Z</time>
  <course>83.88</course>
  <speed>0.03</speed>
  <fix>3d</fix>
</trkpt>
<trkpt lat="40.0729346" lon="-105.230792">
  <ele>1595.58</ele>
  <time>2026-08-28T19:11:41Z</time>
  <course>333.08</course>
  <speed>0.0</speed>
  <fix>3d</fix>
</trkpt>
<trkpt lat="40.0729344" lon="-105.2307918">
  <ele>1595.49</ele>
  <time>2026-08-28T19:11:41Z</time>
  <course>84.02</course>
  <speed>0.03</speed>
  <fix>3d</fix>
</trkpt>
<trkpt lat="40.0729346" lon="-105.2307919">
  <ele>1595.58</ele>
  <time>2026-08-28T19:11:41Z</time>
  <course>331.87</course>
  <speed>0.0</speed>
  <fix>3d</fix>
</trkpt>
<trkpt lat="40.0729344" lon="-105.2307917">
  <ele>1595.49</ele>
  <time>2026-08-28T19:11:41Z</time>
  <course>85.06</course>
  <speed>0.03</speed>
  <fix>3d</fix>
</trkpt>
<trkpt lat="40.0729346" lon="-105.2307919">
  <ele>1595.57</ele>
  <time>2026-08-28T19:11:41Z</time>
  <course>331.02</course>
  <speed>0.0</speed>
  <fix>3d</fix>
</trkpt>
<trkpt lat="40.0729344" lon="-105.2307916">
  <ele>1595.49</ele>
  <time>2026-08-28T19:11:41Z</time>
  <course>87.25</course>
  <speed>0.02</speed>
  <fix>3d</fix>
</trkpt>
<trkpt lat="40.0729345" lon="-105.2307918">
  <ele>1595.57</ele>
  <time>2026-08-28T19:11:41Z</time>
  <course>330.65</course>
  <speed>0.0</speed>
  <fix>3d</fix>
</trkpt>
<trkpt lat="40.0729344" lon="-105.2307915">
  <ele>1595.49</ele>
  <time>2026-08-28T19:11:41Z</time>
  <course>91.29</course>
  <speed>0.02</speed>
  <fix>3d</fix>
</trkpt>
<trkpt lat="40.0729345" lon="-105.2307918">
  <ele>1595.57</ele>
  <time>2026-08-28T19:11:41Z</time>
  <course>330.73</course>
  <speed>0.0</speed>
  <fix>3d</fix>
</trkpt>
<trkpt lat="40.0729344" lon="-105.2307915">
  <ele>1595.48</ele>
  <time>2026-08-28T19:11:41Z</time>
  <course>96.97</course>
  <speed>0.02</speed>
  <fix>3d</fix>
</trkpt>
<trkpt lat="40.0729345" lon="-105.2307917">
  <ele>1595.57</ele>
  <time>2026-08-28T19:11:41Z</time>
  <course>331.3</course>
  <speed>0.0</speed>
  <fix>3d</fix>
</trkpt>
<trkpt lat="40.0729344" lon="-105.2307915">
  <ele>1595.48</ele>
  <time>2026-08-28T19:11:41Z</time>
  <course>102.57</course>
  <speed>0.02</speed>
  <fix>3d</fix>
</trkpt>
<trkpt lat="40.0729345" lon="-105.2307917">
  <ele>1595.57</ele>
  <time>2026-08-28T19:11:41Z</time>
  <course>332.32</course>
  <speed>0.0</speed>
  <fix>3d</fix>
</trkpt>
<trkpt lat="40.0729344" lon="-105.2307914">
  <ele>1595.48</ele>
  <time>2026-08-28T19:11:41Z</time>
  <course>106.82</course>
  <speed>0.02</speed>
  <fix>3d</fix>
</trkpt>
<trkpt lat="40.0729345" lon="-105.2307916">
  <ele>1595.57</ele>
  <time>2026-08-28T19:11:41Z</time>
  <course>333.6</course>
  <speed>0.0</speed>
  <fix>3d</fix>
</trkpt>
<trkpt lat="40.0729344" lon="-105.2307914">
  <ele>1595.48</ele>
  <time>2026-08-28T19:11:41Z</time>
  <course>109.22</course>
  <speed>0.02</speed>
  <fix>3d</fix>
</trkpt>
<trkpt lat="40.0729345" lon="-105.2307916">
  <ele>1595.57</ele>
  <time>2026-08-28T19:11:41Z</time>
  <course>335.08</course>
  <speed>0.0</speed>
  <fix>3d</fix>
</trkpt>
<trkpt lat="40.0729344" lon="-105.2307913">
  <ele>1595.48</ele>
  <time>2026-08-28T19:11:41Z</time>
  <course>110.11</course>
  <speed>0.02</speed>
  <fix>3d</fix>
</trkpt>
<trkpt lat="40.0729345" lon="-105.2307915">
  <ele>1595.57</ele>
  <time>2026-08-28T19:11:41Z</time>
  <course>336.64</course>
  <speed>0.0</speed>
  <fix>3d</fix>
</trkpt>
<trkpt lat="40.0729344" lon="-105.2307912">
  <ele>1595.48</ele>
  <time>2026-08-28T19:11:41Z</time>
  <course>109.45</course>
  <speed>0.02</speed>
  <fix>3d</fix>
</trkpt>
<trkpt lat="40.0729344" lon="-105.2307915">
  <ele>1595.58</ele>
  <time>2026-08-28T19:11:41Z</time>
  <course>338.08</course>
  <speed>0.0</speed>
  <fix>3d</fix>
</trkpt>
<trkpt lat="40.0729344" lon="-105.2307912">
  <ele>1595.48</ele>
  <time>2026-08-28T19:11:41Z</time>
  <course>107.2</course>
  <speed>0.02</speed>
  <fix>3d</fix>
</trkpt>
<trkpt lat="40.0729344" lon="-105.2307914">
  <ele>1595.58</ele>
  <time>2026-08-28T19:11:41Z</time>
  <course>339.27</course>
  <speed>0.0</speed>
  <fix>3d</fix>
</trkpt>
<trkpt lat="40.0729344" lon="-105.2307912">
  <ele>1595.48</ele>
  <time>2026-08-28T19:11:41Z</time>
  <course>104.86</course>
  <speed>0.02</speed>
  <fix>3d</fix>
</trkpt>
<trkpt lat="40.0729344" lon="-105.2307914">
  <ele>1595.58</ele>
  <time>2026-08-28T19:11:41Z</time>
  <course>340.1</course>
  <speed>0.0</speed>
  <fix>3d</fix>
</trkpt>
<trkpt lat="40.0729344" lon="-105.2307911">
  <ele>1595.48</ele>
  <time>2026-08-28T19:11:41Z</time>
  <course>102.51</course>
  <speed>0.02</speed>
  <fix>3d</fix>
</trkpt>
<trkpt lat="40.0729344" lon="-105.2307913">
  <ele>1595.57</ele>
  <time>2026-08-28T19:11:41Z</time>
  <course>340.46</course>
  <speed>0.0</speed>
  <fix>3d</fix>
</trkpt>
<trkpt lat="40.0729344" lon="-105.230791">
  <ele>1595.48</ele>
  <time>2026-08-28T19:11:41Z</time>
  <course>98.86</course>
  <speed>0.02</speed>
  <fix>3d</fix>
</trkpt>
<trkpt lat="40.0729344" lon="-105.2307912">
  <ele>1595.57</ele>
  <time>2026-08-28T19:11:41Z</time>
  <course>340.34</course>
  <speed>0.0</speed>
  <fix>3d</fix>
</trkpt>
<trkpt lat="40.0729344" lon="-105.230791">
  <ele>1595.48</ele>
  <time>2026-08-28T19:11:41Z</time>
  <course>94.59</course>
  <speed>0.03</speed>
  <fix>3d</fix>
</trkpt>
<trkpt lat="40.0729345" lon="-105.2307911">
  <ele>1595.57</ele>
  <time>2026-08-28T19:11:41Z</time>
  <course>339.77</course>
  <speed>0.0</speed>
  <fix>3d</fix>
</trkpt>
<trkpt lat="40.0729344" lon="-105.2307909">
  <ele>1595.48</ele>
  <time>2026-08-28T19:11:41Z</time>
  <course>91.04</course>
  <speed>0.03</speed>
  <fix>3d</fix>
</trkpt>
<trkpt lat="40.0729345" lon="-105.2307911">
  <ele>1595.56</ele>
  <time>2026-08-28T19:11:41Z</time>
  <course>338.77</course>
  <speed>0.01414213562373095</speed>
  <fix>3d</fix>
</trkpt>
<trkpt lat="40.0729344" lon="-105.2307908">
  <ele>1595.48</ele>
  <time>2026-08-28T19:11:41Z</time>
  <course>88.85</course>
  <speed>0.03</speed>
  <fix>3d</fix>
</trkpt>
<trkpt lat="40.0729345" lon="-105.230791">
  <ele>1595.56</ele>
  <time>2026-08-28T19:11:41Z</time>
  <course>337.44</course>
  <speed>0.01414213562373095</speed>
  <fix>3d</fix>
</trkpt>
<trkpt lat="40.0729344" lon="-105.2307907">
  <ele>1595.48</ele>
  <time>2026-08-28T19:11:41Z</time>
  <course>87.56</course>
  <speed>0.03</speed>
  <fix>3d</fix>
</trkpt>
<trkpt lat="40.0729345" lon="-105.2307909">
  <ele>1595.56</ele>
  <time>2026-08-28T19:11:41Z</time>
  <course>335.96</course>
  <speed>0.01</speed>
  <fix>3d</fix>
</trkpt>
<trkpt lat="40.0729344" lon="-105.2307906">
  <ele>1595.48</ele>
  <time>2026-08-28T19:11:41Z</time>
  <course>86.55</course>
  <speed>0.03</speed>
  <fix>3d</fix>
</trkpt>
<trkpt lat="40.0729345" lon="-105.2307908">
  <ele>1595.56</ele>
  <time>2026-08-28T19:11:41Z</time>
  <course>334.46</course>
  <speed>0.01</speed>
  <fix>3d</fix>
</trkpt>
<trkpt lat="40.0729344" lon="-105.2307905">
  <ele>1595.48</ele>
  <time>2026-08-28T19:11:41Z</time>
  <course>85.71</course>
  <speed>0.03</speed>
  <fix>3d</fix>
</trkpt>
<trkpt lat="40.0729345" lon="-105.2307907">
  <ele>1595.56</ele>
  <time>2026-08-28T19:11:41Z</time>
  <course>333.04</course>
  <speed>0.01</speed>
  <fix>3d</fix>
</trkpt>
<trkpt lat="40.0729344" lon="-105.2307905">
  <ele>1595.48</ele>
  <time>2026-08-28T19:11:41Z</time>
  <course>85.34</course>
  <speed>0.03</speed>
  <fix>3d</fix>
</trkpt>
<trkpt lat="40.0729345" lon="-105.2307907">
  <ele>1595.56</ele>
  <time>2026-08-28T19:11:41Z</time>
  <course>331.82</course>
  <speed>0.01</speed>
  <fix>3d</fix>
</trkpt>
<trkpt lat="40.0729344" lon="-105.2307904">
  <ele>1595.48</ele>
  <time>2026-08-28T19:11:41Z</time>
  <course>85.77</course>
  <speed>0.03</speed>
  <fix>3d</fix>
</trkpt>
<trkpt lat="40.0729345" lon="-105.2307906">
  <ele>1595.57</ele>
  <time>2026-08-28T19:11:41Z</time>
  <course>330.99</course>
  <speed>0.0</speed>
  <fix>3d</fix>
</trkpt>
<trkpt lat="40.0729344" lon="-105.2307903">
  <ele>1595.48</ele>
  <time>2026-08-28T19:11:41Z</time>
  <course>88.32</course>
  <speed>0.02</speed>
  <fix>3d</fix>
</trkpt>
<trkpt lat="40.0729345" lon="-105.2307905">
  <ele>1595.57</ele>
  <time>2026-08-28T19:11:41Z</time>
  <course>330.63</course>
  <speed>0.0</speed>
  <fix>3d</fix>
</trkpt>
<trkpt lat="40.0729344" lon="-105.2307903">
  <ele>1595.48</ele>
  <time>2026-08-28T19:11:41Z</time>
  <course>94.03</course>
  <speed>0.02</speed>
  <fix>3d</fix>
</trkpt>
<trkpt lat="40.0729345" lon="-105.2307905">
  <ele>1595.57</ele>
  <time>2026-08-28T19:11:41Z</time>
  <course>330.66</course>
  <speed>0.0</speed>
  <fix>3d</fix>
</trkpt>
<trkpt lat="40.0729344" lon="-105.2307902">
  <ele>1595.48</ele>
  <time>2026-08-28T19:11:41Z</time>
  <course>100.4</course>
  <speed>0.02</speed>
  <fix>3d</fix>
</trkpt>
<trkpt lat="40.0729345" lon="-105.2307904">
  <ele>1595.57</ele>
  <time>2026-08-28T19:11:41Z</time>
  <course>330.66</course>
  <speed>0.0</speed>
  <fix>3d</fix>
</trkpt>
<trkpt lat="40.0729344" lon="-105.2307901">
  <ele>1595.48</ele>
  <time>2026-08-28T19:11:41Z</time>
  <course>102.92</course>
  <speed>0.02</speed>
  <fix>3d</fix>
</trkpt>
<trkpt lat="40.0729345" lon="-105.2307903">
  <ele>1595.57</ele>
  <time>2026-08-28T19:11:41Z</time>
  <course>330.67</course>
  <speed>0.0</speed>
  <fix>3d</fix>
</trkpt>
<trkpt lat="40.0729344" lon="-105.23079">
  <ele>1595.48</ele>
  <time>2026-08-28T19:11:41Z</time>
  <course>102.29</course>
  <speed>0.02</speed>
  <fix>3d</fix>
</trkpt>
<trkpt lat="40.0729345" lon="-105.2307903">
  <ele>1595.57</ele>
  <time>2026-08-28T19:11:41Z</time>
  <course>330.66</course>
  <speed>0.0</speed>
  <fix>3d</fix>
</trkpt>
<trkpt lat="40.0729344" lon="-105.23079">
  <ele>1595.48</ele>
  <time>2026-08-28T19:11:41Z</time>
  <course>100.79</course>
  <speed>0.02</speed>
  <fix>3d</fix>
</trkpt>
<trkpt lat="40.0729345" lon="-105.2307902">
  <ele>1595.57</ele>
  <time>2026-08-28T19:11:41Z</time>
  <course>330.66</course>
  <speed>0.0</speed>
  <fix>3d</fix>
</trkpt>
<trkpt lat="40.0729344" lon="-105.23079">
  <ele>1595.48</ele>
  <time>2026-08-28T19:11:41Z</time>
  <course>98.38</course>
  <speed>0.02</speed>
  <fix>3d</fix>
</trkpt>
<trkpt lat="40.0729345" lon="-105.2307901">
  <ele>1595.58</ele>
  <time>2026-08-28T19:11:41Z</time>
  <course>330.66</course>
  <speed>0.0</speed>
  <fix>3d</fix>
</trkpt>
<trkpt lat="40.0729344" lon="-105.2307899">
  <ele>1595.48</ele>
  <time>2026-08-28T19:11:41Z</time>
  <course>95.84</course>
  <speed>0.02</speed>
  <fix>3d</fix>
</trkpt>
<trkpt lat="40.0729345" lon="-105.2307901">
  <ele>1595.57</ele>
  <time>2026-08-28T19:11:41Z</time>
  <course>330.67</course>
  <speed>0.0</speed>
  <fix>3d</fix>
</trkpt>
<trkpt lat="40.0729344" lon="-105.2307898">
  <ele>1595.48</ele>
  <time>2026-08-28T19:11:41Z</time>
  <course>93.95</course>
  <speed>0.02</speed>
  <fix>3d</fix>
</trkpt>
<trkpt lat="40.0729345" lon="-105.23079">
  <ele>1595.57</ele>
  <time>2026-08-28T19:11:41Z</time>
  <course>330.67</course>
  <speed>0.0</speed>
  <fix>3d</fix>
</trkpt>
<trkpt lat="40.0729344" lon="-105.2307898">
  <ele>1595.48</ele>
  <time>2026-08-28T19:11:41Z</time>
  <course>92.16</course>
  <speed>0.02</speed>
  <fix>3d</fix>
</trkpt>
<trkpt lat="40.0729345" lon="-105.23079">
  <ele>1595.57</ele>
  <time>2026-08-28T19:11:41Z</time>
  <course>330.67</course>
  <speed>0.0</speed>
  <fix>3d</fix>
</trkpt>
<trkpt lat="40.0729344" lon="-105.2307897">
  <ele>1595.47</ele>
  <time>2026-08-28T19:11:41Z</time>
  <course>90.44</course>
  <speed>0.02</speed>
  <fix>3d</fix>
</trkpt>
<trkpt lat="40.0729345" lon="-105.2307899">
  <ele>1595.57</ele>
  <time>2026-08-28T19:11:41Z</time>
  <course>330.66</course>
  <speed>0.01</speed>
  <fix>3d</fix>
</trkpt>
<trkpt lat="40.0729344" lon="-105.2307896">
  <ele>1595.47</ele>
  <time>2026-08-28T19:11:41Z</time>
  <course>88.86</course>
  <speed>0.02</speed>
  <fix>3d</fix>
</trkpt>
<trkpt lat="40.0729345" lon="-105.2307898">
  <ele>1595.56</ele>
  <time>2026-08-28T19:11:41Z</time>
  <course>330.65</course>
  <speed>0.01</speed>
  <fix>3d</fix>
</trkpt>
<trkpt lat="40.0729344" lon="-105.2307896">
  <ele>1595.47</ele>
  <time>2026-08-28T19:11:41Z</time>
  <course>87.05</course>
  <speed>0.03</speed>
  <fix>3d</fix>
</trkpt>
<trkpt lat="40.0729345" lon="-105.2307897">
  <ele>1595.55</ele>
  <time>2026-08-28T19:11:41Z</time>
  <course>330.64</course>
  <speed>0.01</speed>
  <fix>3d</fix>
</trkpt>
<trkpt lat="40.0729344" lon="-105.2307895">
  <ele>1595.47</ele>
  <time>2026-08-28T19:11:41Z</time>
  <course>85.55</course>
  <speed>0.03</speed>
  <fix>3d</fix>
</trkpt>
<trkpt lat="40.0729345" lon="-105.2307897">
  <ele>1595.55</ele>
  <time>2026-08-28T19:11:41Z</time>
  <course>330.62</course>
  <speed>0.01</speed>
  <fix>3d</fix>
</trkpt>
<trkpt lat="40.0729344" lon="-105.2307894">
  <ele>1595.47</ele>
  <time>2026-08-28T19:11:41Z</time>
  <course>84.57</course>
  <speed>0.03</speed>
  <fix>3d</fix>
</trkpt>
<trkpt lat="40.0729345" lon="-105.2307896">
  <ele>1595.55</ele>
  <time>2026-08-28T19:11:41Z</time>
  <course>330.62</course>
  <speed>0.01</speed>
  <fix>3d</fix>
</trkpt>
<trkpt lat="40.0729344" lon="-105.2307893">
  <ele>1595.47</ele>
  <time>2026-08-28T19:11:41Z</time>
  <course>84.02</course>
  <speed>0.03</speed>
  <fix>3d</fix>
</trkpt>
<trkpt lat="40.0729345" lon="-105.2307895">
  <ele>1595.55</ele>
  <time>2026-08-28T19:11:41Z</time>
  <course>330.63</course>
  <speed>0.01</speed>
  <fix>3d</fix>
</trkpt>
<trkpt lat="40.0729344" lon="-105.2307893">
  <ele>1595.47</ele>
  <time>2026-08-28T19:11:41Z</time>
  <course>83.65</course>
  <speed>0.03</speed>
  <fix>3d</fix>
</trkpt>
<trkpt lat="40.0729345" lon="-105.2307895">
  <ele>1595.55</ele>
  <time>2026-08-28T19:11:41Z</time>
  <course>330.6</course>
  <speed>0.01</speed>
  <fix>3d</fix>
</trkpt>
<trkpt lat="40.0729344" lon="-105.2307892">
  <ele>1595.48</ele>
  <time>2026-08-28T19:11:41Z</time>
  <course>83.26</course>
  <speed>0.03</speed>
  <fix>3d</fix>
</trkpt>
<trkpt lat="40.0729345" lon="-105.2307894">
  <ele>1595.55</ele>
  <time>2026-08-28T19:11:41Z</time>
  <course>330.6</course>
  <speed>0.01</speed>
  <fix>3d</fix>
</trkpt>
<trkpt lat="40.0729344" lon="-105.2307891">
  <ele>1595.48</ele>
  <time>2026-08-28T19:11:41Z</time>
  <course>82.6</course>
  <speed>0.03</speed>
  <fix>3d</fix>
</trkpt>
<trkpt lat="40.0729345" lon="-105.2307893">
  <ele>1595.55</ele>
  <time>2026-08-28T19:11:41Z</time>
  <course>329.97</course>
  <speed>0.01</speed>
  <fix>3d</fix>
</trkpt>
<trkpt lat="40.0729344" lon="-105.230789">
  <ele>1595.49</ele>
  <time>2026-08-28T19:11:41Z</time>
  <course>80.64</course>
  <speed>0.03</speed>
  <fix>3d</fix>
</trkpt>
<trkpt lat="40.0729345" lon="-105.2307892">
  <ele>1595.56</ele>
  <time>2026-08-28T19:11:41Z</time>
  <course>328.65</course>
  <speed>0.01</speed>
  <fix>3d</fix>
</trkpt>
<trkpt lat="40.0729344" lon="-105.230789">
  <ele>1595.49</ele>
  <time>2026-08-28T19:11:41Z</time>
  <course>78.38</course>
  <speed>0.03</speed>
  <fix>3d</fix>
</trkpt>
<trkpt lat="40.0729345" lon="-105.2307891">
  <ele>1595.57</ele>
  <time>2026-08-28T19:11:41Z</time>
  <course>327.37</course>
  <speed>0.01</speed>
  <fix>3d</fix>
</trkpt>
<trkpt lat="40.0729344" lon="-105.2307889">
  <ele>1595.5</ele>
  <time>2026-08-28T19:11:41Z</time>
  <course>77.93</course>
  <speed>0.03</speed>
  <fix>3d</fix>
</trkpt>
<trkpt lat="40.0729345" lon="-105.2307891">
  <ele>1595.57</ele>
  <time>2026-08-28T19:11:41Z</time>
  <course>326.42</course>
  <speed>0.01</speed>
  <fix>3d</fix>
</trkpt>
<trkpt lat="40.0729344" lon="-105.2307888">
  <ele>1595.5</ele>
  <time>2026-08-28T19:11:41Z</time>
  <course>79.0</course>
  <speed>0.03</speed>
  <fix>3d</fix>
</trkpt>
<trkpt lat="40.0729345" lon="-105.230789">
  <ele>1595.57</ele>
  <time>2026-08-28T19:11:41Z</time>
  <course>325.85</course>
  <speed>0.0</speed>
  <fix>3d</fix>
</trkpt>
<trkpt lat="40.0729344" lon="-105.2307887">
  <ele>1595.5</ele>
  <time>2026-08-28T19:11:41Z</time>
  <course>81.61</course>
  <speed>0.03</speed>
  <fix>3d</fix>
</trkpt>
<trkpt lat="40.0729345" lon="-105.2307889">
  <ele>1595.57</ele>
  <time>2026-08-28T19:11:41Z</time>
  <course>325.75</course>
  <speed>0.0</speed>
  <fix>3d</fix>
</trkpt>
<trkpt lat="40.0729344" lon="-105.2307886">
  <ele>1595.51</ele>
  <time>2026-08-28T19:11:41Z</time>
  <course>86.54</course>
  <speed>0.02</speed>
  <fix>3d</fix>
</trkpt>
<trkpt lat="40.0729345" lon="-105.2307889">
  <ele>1595.58</ele>
  <time>2026-08-28T19:11:41Z</time>
  <course>326.13</course>
  <speed>0.0</speed>
  <fix>3d</fix>
</trkpt>
<trkpt lat="40.0729344" lon="-105.2307886">
  <ele>1595.51</ele>
  <time>2026-08-28T19:11:41Z</time>
  <course>93.15</course>
  <speed>0.02</speed>
  <fix>3d</fix>
</trkpt>
<trkpt lat="40.0729345" lon="-105.2307888">
  <ele>1595.58</ele>
  <time>2026-08-28T19:11:41Z</time>
  <course>326.97</course>
  <speed>0.0</speed>
  <fix>3d</fix>
</trkpt>
<trkpt lat="40.0729344" lon="-105.2307885">
  <ele>1595.51</ele>
  <time>2026-08-28T19:11:41Z</time>
  <course>100.66</course>
  <speed>0.02</speed>
  <fix>3d</fix>
</trkpt>
<trkpt lat="40.0729345" lon="-105.2307888">
  <ele>1595.59</ele>
  <time>2026-08-28T19:11:41Z</time>
  <course>328.16</course>
  <speed>0.0</speed>
  <fix>3d</fix>
</trkpt>
<trkpt lat="40.0729344" lon="-105.2307884">
  <ele>1595.51</ele>
  <time>2026-08-28T19:11:41Z</time>
  <course>107.02</course>
  <speed>0.02</speed>
  <fix>3d</fix>
</trkpt>
<trkpt lat="40.0729345" lon="-105.2307887">
  <ele>1595.59</ele>
  <time>2026-08-28T19:11:41Z</time>
  <course>329.61</course>
  <speed>0.0</speed>
  <fix>3d</fix>
</trkpt>
<trkpt lat="40.0729344" lon="-105.2307884">
  <ele>1595.5</ele>
  <time>2026-08-28T19:11:41Z</time>
  <course>110.16</course>
  <speed>0.02</speed>
  <fix>3d</fix>
</trkpt>
<trkpt lat="40.0729345" lon="-105.2307886">
  <ele>1595.59</ele>
  <time>2026-08-28T19:11:41Z</time>
  <course>331.14</course>
  <speed>0.0</speed>
  <fix>3d</fix>
</trkpt>
<trkpt lat="40.0729344" lon="-105.2307884">
  <ele>1595.5</ele>
  <time>2026-08-28T19:11:41Z</time>
  <course>110.23</course>
  <speed>0.02</speed>
  <fix>3d</fix>
</trkpt>
<trkpt lat="40.0729345" lon="-105.2307886">
  <ele>1595.58</ele>
  <time>2026-08-28T19:11:41Z</time>
  <course>332.63</course>
  <speed>0.0</speed>
  <fix>3d</fix>
</trkpt>
<trkpt lat="40.0729344" lon="-105.2307883">
  <ele>1595.5</ele>
  <time>2026-08-28T19:11:41Z</time>
  <course>108.49</course>
  <speed>0.02</speed>
  <fix>3d</fix>
</trkpt>
<trkpt lat="40.0729344" lon="-105.2307885">
  <ele>1595.58</ele>
  <time>2026-08-28T19:11:41Z</time>
  <course>333.94</course>
  <speed>0.0</speed>
  <fix>3d</fix>
</trkpt>
<trkpt lat="40.0729344" lon="-105.2307883">
  <ele>1595.49</ele>
  <time>2026-08-28T19:11:41Z</time>
  <course>105.32</course>
  <speed>0.02</speed>
  <fix>3d</fix>
</trkpt>
<trkpt lat="40.0729344" lon="-105.2307885">
  <ele>1595.57</ele>
  <time>2026-08-28T19:11:41Z</time>
  <course>334.92</course>
  <speed>0.0</speed>
  <fix>3d</fix>
</trkpt>
<trkpt lat="40.0729344" lon="-105.2307882">
  <ele>1595.49</ele>
  <time>2026-08-28T19:11:41Z</time>
  <course>101.46</course>
  <speed>0.02</speed>
  <fix>3d</fix>
</trkpt>
<trkpt lat="40.0729344" lon="-105.2307884">
  <ele>1595.57</ele>
  <time>2026-08-28T19:11:41Z</time>
  <course>335.48</course>
  <speed>0.0</speed>
  <fix>3d</fix>
</trkpt>
<trkpt lat="40.0729344" lon="-105.2307881">
  <ele>1595.49</ele>
  <time>2026-08-28T19:11:41Z</time>
  <course>98.49</course>
  <speed>0.02</speed>
  <fix>3d</fix>
</trkpt>
<trkpt lat="40.0729344" lon="-105.2307883">
  <ele>1595.57</ele>
  <time>2026-08-28T19:11:41Z</time>
  <course>335.57</course>
  <speed>0.0</speed>
  <fix>3d</fix>
</trkpt>
<trkpt lat="40.0729344" lon="-105.2307881">
  <ele>1595.48</ele>
  <time>2026-08-28T19:11:41Z</time>
  <course>95.53</course>
  <speed>0.03</speed>
  <fix>3d</fix>
</trkpt>
<trkpt lat="40.0729344" lon="-105.2307882">
  <ele>1595.56</ele>
  <time>2026-08-28T19:11:41Z</time>
  <course>335.17</course>
  <speed>0.0</speed>
  <fix>3d</fix>
</trkpt>
<trkpt lat="40.0729344" lon="-105.230788">
  <ele>1595.48</ele>
  <time>2026-08-28T19:11:41Z</time>
  <course>92.09</course>
  <speed>0.03</speed>
  <fix>3d</fix>
</trkpt>
<trkpt lat="40.0729344" lon="-105.2307882">
  <ele>1595.57</ele>
  <time>2026-08-28T19:11:41Z</time>
  <course>334.34</course>
  <speed>0.0</speed>
  <fix>3d</fix>
</trkpt>
<trkpt lat="40.0729344" lon="-105.2307879">
  <ele>1595.48</ele>
  <time>2026-08-28T19:11:41Z</time>
  <course>89.42</course>
  <speed>0.03</speed>
  <fix>3d</fix>
</trkpt>
<trkpt lat="40.0729344" lon="-105.2307881">
  <ele>1595.57</ele>
  <time>2026-08-28T19:11:41Z</time>
  <course>333.14</course>
  <speed>0.0</speed>
  <fix>3d</fix>
</trkpt>
<trkpt lat="40.0729344" lon="-105.2307878">
  <ele>1595.48</ele>
  <time>2026-08-28T19:11:41Z</time>
  <course>87.13</course>
  <speed>0.03</speed>
  <fix>3d</fix>
</trkpt>
<trkpt lat="40.0729344" lon="-105.230788">
  <ele>1595.57</ele>
  <time>2026-08-28T19:11:41Z</time>
  <course>331.71</course>
  <speed>0.01</speed>
  <fix>3d</fix>
</trkpt>
<trkpt lat="40.0729344" lon="-105.2307877">
  <ele>1595.48</ele>
  <time>2026-08-28T19:11:41Z</time>
  <course>85.17</course>
  <speed>0.03</speed>
  <fix>3d</fix>
</trkpt>
<trkpt lat="40.0729344" lon="-105.2307879">
  <ele>1595.58</ele>
  <time>2026-08-28T19:11:41Z</time>
  <course>330.19</course>
  <speed>0.01</speed>
  <fix>3d</fix>
</trkpt>
<trkpt lat="40.0729344" lon="-105.2307876">
  <ele>1595.48</ele>
  <time>2026-08-28T19:11:41Z</time>
  <course>84.16</course>
  <speed>0.03</speed>
  <fix>3d</fix>
</trkpt>
<trkpt lat="40.0729344" lon="-105.2307878">
  <ele>1595.58</ele>
  <time>2026-08-28T19:11:41Z</time>
  <course>328.76</course>
  <speed>0.0</speed>
  <fix>3d</fix>
</trkpt>
<trkpt lat="40.0729344" lon="-105.2307876">
  <ele>1595.48</ele>
  <time>2026-08-28T19:11:41Z</time>
  <course>84.54</course>
  <speed>0.03</speed>
  <fix>3d</fix>
</trkpt>
<trkpt lat="40.0729344" lon="-105.2307878">
  <ele>1595.58</ele>
  <time>2026-08-28T19:11:41Z</time>
  <course>327.48</course>
  <speed>0.0</speed>
  <fix>3d</fix>
</trkpt>
<trkpt lat="40.0729344" lon="-105.2307875">
  <ele>1595.48</ele>
  <time>2026-08-28T19:11:41Z</time>
  <course>86.74</course>
  <speed>0.03</speed>
  <fix>3d</fix>
</trkpt>
<trkpt lat="40.0729344" lon="-105.2307877">
  <ele>1595.57</ele>
  <time>2026-08-28T19:11:41Z</time>
  <course>326.44</course>
  <speed>0.0</speed>
  <fix>3d</fix>
</trkpt>
<trkpt lat="40.0729344" lon="-105.2307874">
  <ele>1595.48</ele>
  <time>2026-08-28T19:11:41Z</time>
  <course>89.64</course>
  <speed>0.02</speed>
  <fix>3d</fix>
</trkpt>
<trkpt lat="40.0729344" lon="-105.2307876">
  <ele>1595.57</ele>
  <time>2026-08-28T19:11:41Z</time>
  <course>325.86</course>
  <speed>0.0</speed>
  <fix>3d</fix>
</trkpt>
<trkpt lat="40.0729344" lon="-105.2307874">
  <ele>1595.48</ele>
  <time>2026-08-28T19:11:41Z</time>
  <course>93.93</course>
  <speed>0.02</speed>
  <fix>3d</fix>
</trkpt>
<trkpt lat="40.0729344" lon="-105.2307876">
  <ele>1595.56</ele>
  <time>2026-08-28T19:11:41Z</time>
  <course>325.75</course>
  <speed>0.0</speed>
  <fix>3d</fix>
</trkpt>
<trkpt lat="40.0729344" lon="-105.2307873">
  <ele>1595.48</ele>
  <time>2026-08-28T19:11:41Z</time>
  <course>100.02</course>
  <speed>0.02</speed>
  <fix>3d</fix>
</trkpt>
<trkpt lat="40.0729344" lon="-105.2307875">
  <ele>1595.56</ele>
  <time>2026-08-28T19:11:41Z</time>
  <course>326.12</course>
  <speed>0.0</speed>
  <fix>3d</fix>
</trkpt>
<trkpt lat="40.0729344" lon="-105.2307872">
  <ele>1595.47</ele>
  <time>2026-08-28T19:11:41Z</time>
  <course>106.31</course>
  <speed>0.02</speed>
  <fix>3d</fix>
</trkpt>
<trkpt lat="40.0729344" lon="-105.2307875">
  <ele>1595.56</ele>
  <time>2026-08-28T19:11:41Z</time>
  <course>326.94</course>
  <speed>0.0</speed>
  <fix>3d</fix>
</trkpt>
<trkpt lat="40.0729344" lon="-105.2307872">
  <ele>1595.47</ele>
  <time>2026-08-28T19:11:41Z</time>
  <course>111.61</course>
  <speed>0.02</speed>
  <fix>3d</fix>
</trkpt>
<trkpt lat="40.0729344" lon="-105.2307874">
  <ele>1595.56</ele>
  <time>2026-08-28T19:11:42Z</time>
  <course>328.14</course>
  <speed>0.0</speed>
  <fix>3d</fix>
</trkpt>
<trkpt lat="40.0729344" lon="-105.2307872">
  <ele>1595.47</ele>
  <time>2026-08-28T19:11:42Z</time>
  <course>114.13</course>
  <speed>0.02</speed>
  <fix>3d</fix>
</trkpt>
<trkpt lat="40.0729344" lon="-105.2307874">
  <ele>1595.57</ele>
  <time>2026-08-28T19:11:42Z</time>
  <course>329.55</course>
  <speed>0.0</speed>
  <fix>3d</fix>
</trkpt>
<trkpt lat="40.0729344" lon="-105.2307871">
  <ele>1595.48</ele>
  <time>2026-08-28T19:11:42Z</time>
  <course>115.13</course>
  <speed>0.02</speed>
  <fix>3d</fix>
</trkpt>
<trkpt lat="40.0729344" lon="-105.2307873">
  <ele>1595.57</ele>
  <time>2026-08-28T19:11:42Z</time>
  <course>331.1</course>
  <speed>0.0</speed>
  <fix>3d</fix>
</trkpt>
<trkpt lat="40.0729343" lon="-105.2307871">
  <ele>1595.48</ele>
  <time>2026-08-28T19:11:42Z</time>
  <course>115.39</course>
  <speed>0.02</speed>
  <fix>3d</fix>
</trkpt>
<trkpt lat="40.0729344" lon="-105.2307873">
  <ele>1595.57</ele>
  <time>2026-08-28T19:11:42Z</time>
  <course>332.56</course>
  <speed>0.0</speed>
  <fix>3d</fix>
</trkpt>
<trkpt lat="40.0729343" lon="-105.230787">
  <ele>1595.48</ele>
  <time>2026-08-28T19:11:42Z</time>
  <course>113.53</course>
  <speed>0.02</speed>
  <fix>3d</fix>
</trkpt>
<trkpt lat="40.0729344" lon="-105.2307872">
  <ele>1595.57</ele>
  <time>2026-08-28T19:11:42Z</time>
  <course>333.87</course>
  <speed>0.0</speed>
  <fix>3d</fix>
</trkpt>
<trkpt lat="40.0729343" lon="-105.2307869">
  <ele>1595.48</ele>
  <time>2026-08-28T19:11:42Z</time>
  <course>110.29</course>
  <speed>0.02</speed>
  <fix>3d</fix>
</trkpt>
<trkpt lat="40.0729344" lon="-105.2307872">
  <ele>1595.57</ele>
  <time>2026-08-28T19:11:42Z</time>
  <course>334.87</course>
  <speed>0.0</speed>
  <fix>3d</fix>
</trkpt>
<trkpt lat="40.0729343" lon="-105.2307869">
  <ele>1595.48</ele>
  <time>2026-08-28T19:11:42Z</time>
  <course>106.14</course>
  <speed>0.02</speed>
  <fix>3d</fix>
</trkpt>
<trkpt lat="40.0729344" lon="-105.2307871">
  <ele>1595.57</ele>
  <time>2026-08-28T19:11:42Z</time>
  <course>335.47</course>
  <speed>0.0</speed>
  <fix>3d</fix>
</trkpt>
<trkpt lat="40.0729343" lon="-105.2307868">
  <ele>1595.48</ele>
  <time>2026-08-28T19:11:42Z</time>
  <course>101.49</course>
  <speed>0.03</speed>
  <fix>3d</fix>
</trkpt>
<trkpt lat="40.0729344" lon="-105.230787">
  <ele>1595.57</ele>
  <time>2026-08-28T19:11:42Z</time>
  <course>335.55</course>
  <speed>0.0</speed>
  <fix>3d</fix>
</trkpt>
<trkpt lat="40.0729343" lon="-105.2307867">
  <ele>1595.48</ele>
  <time>2026-08-28T19:11:42Z</time>
  <course>96.9</course>
  <speed>0.03</speed>
  <fix>3d</fix>
</trkpt>
<trkpt lat="40.0729344" lon="-105.2307869">
  <ele>1595.58</ele>
  <time>2026-08-28T19:11:42Z</time>
  <course>335.18</course>
  <speed>0.0</speed>
  <fix>3d</fix>
</trkpt>
<trkpt lat="40.0729343" lon="-105.2307867">
  <ele>1595.48</ele>
  <time>2026-08-28T19:11:42Z</time>
  <course>92.79</course>
  <speed>0.03</speed>
  <fix>3d</fix>
</trkpt>
<trkpt lat="40.0729344" lon="-105.2307868">
  <ele>1595.58</ele>
  <time>2026-08-28T19:11:42Z</time>
  <course>334.36</course>
  <speed>0.0</speed>
  <fix>3d</fix>
</trkpt>
<trkpt lat="40.0729343" lon="-105.2307866">
  <ele>1595.48</ele>
  <time>2026-08-28T19:11:42Z</time>
  <course>89.65</course>
  <speed>0.03</speed>
  <fix>3d</fix>
</trkpt>
<trkpt lat="40.0729344" lon="-105.2307868">
  <ele>1595.58</ele>
  <time>2026-08-28T19:11:42Z</time>
  <course>333.19</course>
  <speed>0.0</speed>
  <fix>3d</fix>
</trkpt>
<trkpt lat="40.0729343" lon="-105.2307865">
  <ele>1595.48</ele>
  <time>2026-08-28T19:11:42Z</time>
  <course>87.67</course>
  <speed>0.03</speed>
  <fix>3d</fix>
</trkpt>
<trkpt lat="40.0729344" lon="-105.2307867">
  <ele>1595.58</ele>
  <time>2026-08-28T19:11:42Z</time>
  <course>331.8</course>
  <speed>0.0</speed>
  <fix>3d</fix>
</trkpt>
<trkpt lat="40.0729343" lon="-105.2307864">
  <ele>1595.47</ele>
  <time>2026-08-28T19:11:42Z</time>
  <course>87.21</course>
  <speed>0.03</speed>
  <fix>3d</fix>
</trkpt>
<trkpt lat="40.0729344" lon="-105.2307866">
  <ele>1595.58</ele>
  <time>2026-08-28T19:11:42Z</time>
  <course>330.27</course>
  <speed>0.0</speed>
  <fix>3d</fix>
</trkpt>
<trkpt lat="40.0729343" lon="-105.2307864">
  <ele>1595.47</ele>
  <time>2026-08-28T19:11:42Z</time>
  <course>87.06</course>
  <speed>0.03</speed>
  <fix>3d</fix>
</trkpt>
<trkpt lat="40.0729344" lon="-105.2307865">
  <ele>1595.57</ele>
  <time>2026-08-28T19:11:42Z</time>
  <course>328.74</course>
  <speed>0.0</speed>
  <fix>3d</fix>
</trkpt>
<trkpt lat="40.0729343" lon="-105.2307863">
  <ele>1595.47</ele>
  <time>2026-08-28T19:11:42Z</time>
  <course>87.29</course>
  <speed>0.03</speed>
  <fix>3d</fix>
</trkpt>
<trkpt lat="40.0729344" lon="-105.2307865">
  <ele>1595.57</ele>
  <time>2026-08-28T19:11:42Z</time>
  <course>327.42</course>
  <speed>0.0</speed>
  <fix>3d</fix>
</trkpt>
<trkpt lat="40.0729343" lon="-105.2307862">
  <ele>1595.47</ele>
  <time>2026-08-28T19:11:42Z</time>
  <course>88.63</course>
  <speed>0.03</speed>
  <fix>3d</fix>
</trkpt>
<trkpt lat="40.0729344" lon="-105.2307864">
  <ele>1595.57</ele>
  <time>2026-08-28T19:11:42Z</time>
  <course>326.41</course>
  <speed>0.0</speed>
  <fix>3d</fix>
</trkpt>
<trkpt lat="40.0729343" lon="-105.2307862">
  <ele>1595.47</ele>
  <time>2026-08-28T19:11:42Z</time>
  <course>91.21</course>
  <speed>0.02</speed>
  <fix>3d</fix>
</trkpt>
<trkpt lat="40.0729344" lon="-105.2307863">
  <ele>1595.57</ele>
  <time>2026-08-28T19:11:42Z</time>
  <course>325.86</course>
  <speed>0.0</speed>
  <fix>3d</fix>
</trkpt>
<trkpt lat="40.0729343" lon="-105.2307861">
  <ele>1595.47</ele>
  <time>2026-08-28T19:11:42Z</time>
  <course>95.92</course>
  <speed>0.02</speed>
  <fix>3d</fix>
</trkpt>
<trkpt lat="40.0729344" lon="-105.2307863">
  <ele>1595.57</ele>
  <time>2026-08-28T19:11:42Z</time>
  <course>325.75</course>
  <speed>0.0</speed>
  <fix>3d</fix>
</trkpt>
<trkpt lat="40.0729343" lon="-105.230786">
  <ele>1595.47</ele>
  <time>2026-08-28T19:11:42Z</time>
  <course>101.73</course>
  <speed>0.02</speed>
  <fix>3d</fix>
</trkpt>
<trkpt lat="40.0729344" lon="-105.2307862">
  <ele>1595.58</ele>
  <time>2026-08-28T19:11:42Z</time>
  <course>326.14</course>
  <speed>0.0</speed>
  <fix>3d</fix>
</trkpt>
<trkpt lat="40.0729343" lon="-105.230786">
  <ele>1595.46</ele>
  <time>2026-08-28T19:11:42Z</time>
  <course>106.99</course>
  <speed>0.02</speed>
  <fix>3d</fix>
</trkpt>
<trkpt lat="40.0729344" lon="-105.2307862">
  <ele>1595.58</ele>
  <time>2026-08-28T19:11:42Z</time>
  <course>326.97</course>
  <speed>0.0</speed>
  <fix>3d</fix>
</trkpt>
<trkpt lat="40.0729342" lon="-105.2307859">
  <ele>1595.46</ele>
  <time>2026-08-28T19:11:42Z</time>
  <course>110.86</course>
  <speed>0.02</speed>
  <fix>3d</fix>
</trkpt>
<trkpt lat="40.0729343" lon="-105.2307861">
  <ele>1595.58</ele>
  <time>2026-08-28T19:11:42Z</time>
  <course>328.17</course>
  <speed>0.0</speed>
  <fix>3d</fix>
</trkpt>
<trkpt lat="40.0729342" lon="-105.2307859">
  <ele>1595.46</ele>
  <time>2026-08-28T19:11:42Z</time>
  <course>113.48</course>
  <speed>0.02</speed>
  <fix>3d</fix>
</trkpt>
<trkpt lat="40.0729343" lon="-105.2307861">
  <ele>1595.57</ele>
  <time>2026-08-28T19:11:42Z</time>
  <course>329.62</course>
  <speed>0.0</speed>
  <fix>3d</fix>
</trkpt>
<trkpt lat="40.0729342" lon="-105.2307858">
  <ele>1595.46</ele>
  <time>2026-08-28T19:11:42Z</time>
  <course>115.32</course>
  <speed>0.02</speed>
  <fix>3d</fix>
</trkpt>
<trkpt lat="40.0729343" lon="-105.230786">
  <ele>1595.57</ele>
  <time>2026-08-28T19:11:42Z</time>
  <course>331.12</course>
  <speed>0.0</speed>
  <fix>3d</fix>
</trkpt>
<trkpt lat="40.0729342" lon="-105.2307857">
  <ele>1595.46</ele>
  <time>2026-08-28T19:11:42Z</time>
  <course>115.25</course>
  <speed>0.02</speed>
  <fix>3d</fix>
</trkpt>
<trkpt lat="40.0729343" lon="-105.230786">
  <ele>1595.56</ele>
  <time>2026-08-28T19:11:42Z</time>
  <course>332.56</course>
  <speed>0.0</speed>
  <fix>3d</fix>
</trkpt>
<trkpt lat="40.0729342" lon="-105.2307857">
  <ele>1595.45</ele>
  <time>2026-08-28T19:11:42Z</time>
  <course>113.27</course>
  <speed>0.02</speed>
  <fix>3d</fix>
</trkpt>
<trkpt lat="40.0729342" lon="-105.2307859">
  <ele>1595.55</ele>
  <time>2026-08-28T19:11:42Z</time>
  <course>333.85</course>
  <speed>0.0</speed>
  <fix>3d</fix>
</trkpt>
<trkpt lat="40.0729341" lon="-105.2307856">
  <ele>1595.45</ele>
  <time>2026-08-28T19:11:42Z</time>
  <course>109.97</course>
  <speed>0.02</speed>
  <fix>3d</fix>
</trkpt>
<trkpt lat="40.0729342" lon="-105.2307858">
  <ele>1595.55</ele>
  <time>2026-08-28T19:11:42Z</time>
  <course>334.84</course>
  <speed>0.0</speed>
  <fix>3d</fix>
</trkpt>
<trkpt lat="40.0729341" lon="-105.2307855">
  <ele>1595.45</ele>
  <time>2026-08-28T19:11:42Z</time>
  <course>104.92</course>
  <speed>0.02</speed>
  <fix>3d</fix>
</trkpt>
<trkpt lat="40.0729342" lon="-105.2307858">
  <ele>1595.56</ele>
  <time>2026-08-28T19:11:42Z</time>
  <course>335.43</course>
  <speed>0.0</speed>
  <fix>3d</fix>
</trkpt>
<trkpt lat="40.0729341" lon="-105.2307855">
  <ele>1595.46</ele>
  <time>2026-08-28T19:11:42Z</time>
  <course>99.62</course>
  <speed>0.03</speed>
  <fix>3d</fix>
</trkpt>
<trkpt lat="40.0729342" lon="-105.2307857">
  <ele>1595.56</ele>
  <time>2026-08-28T19:11:42Z</time>
  <course>335.53</course>
  <speed>0.0</speed>
  <fix>3d</fix>
</trkpt>
<trkpt lat="40.0729341" lon="-105.2307854">
  <ele>1595.46</ele>
  <time>2026-08-28T19:11:42Z</time>
  <course>94.89</course>
  <speed>0.03</speed>
  <fix>3d</fix>
</trkpt>
<trkpt lat="40.0729342" lon="-105.2307856">
  <ele>1595.56</ele>
  <time>2026-08-28T19:11:42Z</time>
  <course>335.16</course>
  <speed>0.0</speed>
  <fix>3d</fix>
</trkpt>
<trkpt lat="40.0729341" lon="-105.2307853">
  <ele>1595.46</ele>
  <time>2026-08-28T19:11:42Z</time>
  <course>91.47</course>
  <speed>0.03</speed>
  <fix>3d</fix>
</trkpt>
<trkpt lat="40.0729342" lon="-105.2307855">
  <ele>1595.56</ele>
  <time>2026-08-28T19:11:42Z</time>
  <course>334.35</course>
  <speed>0.0</speed>
  <fix>3d</fix>
</trkpt>
<trkpt lat="40.0729341" lon="-105.2307852">
  <ele>1595.46</ele>
  <time>2026-08-28T19:11:42Z</time>
  <course>88.96</course>
  <speed>0.03</speed>
  <fix>3d</fix>
</trkpt>
<trkpt lat="40.0729342" lon="-105.2307854">
  <ele>1595.56</ele>
  <time>2026-08-28T19:11:42Z</time>
  <course>333.13</course>
  <speed>0.0</speed>
  <fix>3d</fix>
</trkpt>
<trkpt lat="40.0729341" lon="-105.2307852">
  <ele>1595.46</ele>
  <time>2026-08-28T19:11:42Z</time>
  <course>86.57</course>
  <speed>0.03</speed>
  <fix>3d</fix>
</trkpt>
<trkpt lat="40.0729342" lon="-105.2307854">
  <ele>1595.56</ele>
  <time>2026-08-28T19:11:42Z</time>
  <course>331.73</course>
  <speed>0.0</speed>
  <fix>3d</fix>
</trkpt>
<trkpt lat="40.0729341" lon="-105.2307851">
  <ele>1595.47</ele>
  <time>2026-08-28T19:11:42Z</time>
  <course>84.68</course>
  <speed>0.03</speed>
  <fix>3d</fix>
</trkpt>
<trkpt lat="40.0729342" lon="-105.2307853">
  <ele>1595.57</ele>
  <time>2026-08-28T19:11:42Z</time>
  <course>330.19</course>
  <speed>0.01</speed>
  <fix>3d</fix>
</trkpt>
<trkpt lat="40.0729341" lon="-105.230785">
  <ele>1595.47</ele>
  <time>2026-08-28T19:11:42Z</time>
  <course>83.26</course>
  <speed>0.03</speed>
  <fix>3d</fix>
</trkpt>
<trkpt lat="40.0729342" lon="-105.2307852">
  <ele>1595.57</ele>
  <time>2026-08-28T19:11:42Z</time>
  <course>328.74</course>
  <speed>0.01</speed>
  <fix>3d</fix>
</trkpt>
<trkpt lat="40.0729341" lon="-105.2307849">
  <ele>1595.47</ele>
  <time>2026-08-28T19:11:42Z</time>
  <course>82.34</course>
  <speed>0.03</speed>
  <fix>3d</fix>
</trkpt>
<trkpt lat="40.0729342" lon="-105.2307851">
  <ele>1595.57</ele>
  <time>2026-08-28T19:11:42Z</time>
  <course>327.41</course>
  <speed>0.0</speed>
  <fix>3d</fix>
</trkpt>
<trkpt lat="40.0729341" lon="-105.2307848">
  <ele>1595.47</ele>
  <time>2026-08-28T19:11:42Z</time>
  <course>82.23</course>
  <speed>0.03</speed>
  <fix>3d</fix>
</trkpt>
<trkpt lat="40.0729342" lon="-105.2307851">
  <ele>1595.57</ele>
  <time>2026-08-28T19:11:42Z</time>
  <course>326.45</course>
  <speed>0.0</speed>
  <fix>3d</fix>
</trkpt>
<trkpt lat="40.0729341" lon="-105.2307848">
  <ele>1595.47</ele>
  <time>2026-08-28T19:11:42Z</time>
  <course>83.94</course>
  <speed>0.02</speed>
  <fix>3d</fix>
</trkpt>
<trkpt lat="40.0729342" lon="-105.230785">
  <ele>1595.57</ele>
  <time>2026-08-28T19:11:42Z</time>
  <course>325.86</course>
  <speed>0.0</speed>
  <fix>3d</fix>
</trkpt>
<trkpt lat="40.0729341" lon="-105.2307847">
  <ele>1595.47</ele>
  <time>2026-08-28T19:11:42Z</time>
  <course>88.04</course>
  <speed>0.02</speed>
  <fix>3d</fix>
</trkpt>
<trkpt lat="40.0729342" lon="-105.2307849">
  <ele>1595.57</ele>
  <time>2026-08-28T19:11:42Z</time>
  <course>325.77</course>
  <speed>0.0</speed>
  <fix>3d</fix>
</trkpt>
<trkpt lat="40.0729341" lon="-105.2307847">
  <ele>1595.47</ele>
  <time>2026-08-28T19:11:42Z</time>
  <course>94.37</course>
  <speed>0.02</speed>
  <fix>3d</fix>
</trkpt>
<trkpt lat="40.0729342" lon="-105.2307849">
  <ele>1595.57</ele>
  <time>2026-08-28T19:11:42Z</time>
  <course>326.12</course>
  <speed>0.0</speed>
  <fix>3d</fix>
</trkpt>
<trkpt lat="40.0729341" lon="-105.2307846">
  <ele>1595.47</ele>
  <time>2026-08-28T19:11:42Z</time>
  <course>101.02</course>
  <speed>0.02</speed>
  <fix>3d</fix>
</trkpt>
<trkpt lat="40.0729342" lon="-105.2307848">
  <ele>1595.57</ele>
  <time>2026-08-28T19:11:42Z</time>
  <course>326.96</course>
  <speed>0.0</speed>
  <fix>3d</fix>
</trkpt>
<trkpt lat="40.0729341" lon="-105.2307845">
  <ele>1595.47</ele>
  <time>2026-08-28T19:11:42Z</time>
  <course>106.25</course>
  <speed>0.02</speed>
  <fix>3d</fix>
</trkpt>
<trkpt lat="40.0729342" lon="-105.2307848">
  <ele>1595.57</ele>
  <time>2026-08-28T19:11:42Z</time>
  <course>328.15</course>
  <speed>0.0</speed>
  <fix>3d</fix>
</trkpt>
<trkpt lat="40.0729341" lon="-105.2307845">
  <ele>1595.47</ele>
  <time>2026-08-28T19:11:42Z</time>
  <course>109.74</course>
  <speed>0.02</speed>
  <fix>3d</fix>
</trkpt>
<trkpt lat="40.0729342" lon="-105.2307847">
  <ele>1595.57</ele>
  <time>2026-08-28T19:11:42Z</time>
  <course>329.56</course>
  <speed>0.0</speed>
  <fix>3d</fix>
</trkpt>
<trkpt lat="40.0729341" lon="-105.2307845">
  <ele>1595.47</ele>
  <time>2026-08-28T19:11:42Z</time>
  <course>111.4</course>
  <speed>0.02</speed>
  <fix>3d</fix>
</trkpt>
<trkpt lat="40.0729341" lon="-105.2307847">
  <ele>1595.57</ele>
  <time>2026-08-28T19:11:42Z</time>
  <course>331.1</course>
  <speed>0.0</speed>
  <fix>3d</fix>
</trkpt>
<trkpt lat="40.0729341" lon="-105.2307844">
  <ele>1595.47</ele>
  <time>2026-08-28T19:11:42Z</time>
  <course>111.25</course>
  <speed>0.02</speed>
  <fix>3d</fix>
</trkpt>
<trkpt lat="40.0729341" lon="-105.2307846">
  <ele>1595.57</ele>
  <time>2026-08-28T19:11:42Z</time>
  <course>332.6</course>
  <speed>0.0</speed>
  <fix>3d</fix>
</trkpt>
<trkpt lat="40.0729341" lon="-105.2307843">
  <ele>1595.47</ele>
  <time>2026-08-28T19:11:42Z</time>
  <course>108.72</course>
  <speed>0.02</speed>
  <fix>3d</fix>
</trkpt>
<trkpt lat="40.0729341" lon="-105.2307846">
  <ele>1595.57</ele>
  <time>2026-08-28T19:11:42Z</time>
  <course>333.9</course>
  <speed>0.0</speed>
  <fix>3d</fix>
</trkpt>
<trkpt lat="40.0729341" lon="-105.2307843">
  <ele>1595.47</ele>
  <time>2026-08-28T19:11:42Z</time>
  <course>104.71</course>
  <speed>0.02</speed>
  <fix>3d</fix>
</trkpt>
<trkpt lat="40.0729341" lon="-105.2307845">
  <ele>1595.56</ele>
  <time>2026-08-28T19:11:42Z</time>
  <course>334.88</course>
  <speed>0.0</speed>
  <fix>3d</fix>
</trkpt>
<trkpt lat="40.0729341" lon="-105.2307843">
  <ele>1595.47</ele>
  <time>2026-08-28T19:11:42Z</time>
  <course>100.42</course>
  <speed>0.02</speed>
  <fix>3d</fix>
</trkpt>
<trkpt lat="40.0729341" lon="-105.2307844">
  <ele>1595.57</ele>
  <time>2026-08-28T19:11:42Z</time>
  <course>335.43</course>
  <speed>0.0</speed>
  <fix>3d</fix>
</trkpt>
<trkpt lat="40.072934" lon="-105.2307842">
  <ele>1595.47</ele>
  <time>2026-08-28T19:11:42Z</time>
  <course>96.27</course>
  <speed>0.02</speed>
  <fix>3d</fix>
</trkpt>
<trkpt lat="40.0729341" lon="-105.2307844">
  <ele>1595.57</ele>
  <time>2026-08-28T19:11:42Z</time>
  <course>335.55</course>
  <speed>0.0</speed>
  <fix>3d</fix>
</trkpt>
<trkpt lat="40.0729339" lon="-105.2307841">
  <ele>1595.47</ele>
  <time>2026-08-28T19:11:42Z</time>
  <course>92.47</course>
  <speed>0.03</speed>
  <fix>3d</fix>
</trkpt>
<trkpt lat="40.0729341" lon="-105.2307843">
  <ele>1595.57</ele>
  <time>2026-08-28T19:11:42Z</time>
  <course>335.17</course>
  <speed>0.0</speed>
  <fix>3d</fix>
</trkpt>
<trkpt lat="40.0729339" lon="-105.230784">
  <ele>1595.47</ele>
  <time>2026-08-28T19:11:42Z</time>
  <course>89.06</course>
  <speed>0.03</speed>
  <fix>3d</fix>
</trkpt>
<trkpt lat="40.0729341" lon="-105.2307842">
  <ele>1595.57</ele>
  <time>2026-08-28T19:11:42Z</time>
  <course>334.34</course>
  <speed>0.0</speed>
  <fix>3d</fix>
</trkpt>
<trkpt lat="40.0729339" lon="-105.230784">
  <ele>1595.47</ele>
  <time>2026-08-28T19:11:42Z</time>
  <course>86.48</course>
  <speed>0.03</speed>
  <fix>3d</fix>
</trkpt>
<trkpt lat="40.0729341" lon="-105.2307841">
  <ele>1595.57</ele>
  <time>2026-08-28T19:11:42Z</time>
  <course>333.13</course>
  <speed>0.0</speed>
  <fix>3d</fix>
</trkpt>
<trkpt lat="40.0729339" lon="-105.2307839">
  <ele>1595.47</ele>
  <time>2026-08-28T19:11:42Z</time>
  <course>84.78</course>
  <speed>0.03</speed>
  <fix>3d</fix>
</trkpt>
<trkpt lat="40.0729341" lon="-105.2307841">
  <ele>1595.57</ele>
  <time>2026-08-28T19:11:42Z</time>
  <course>331.72</course>
  <speed>0.0</speed>
  <fix>3d</fix>
</trkpt>
<trkpt lat="40.0729339" lon="-105.2307838">
  <ele>1595.47</ele>
  <time>2026-08-28T19:11:42Z</time>
  <course>83.81</course>
  <speed>0.03</speed>
  <fix>3d</fix>
</trkpt>
<trkpt lat="40.0729341" lon="-105.230784">
  <ele>1595.57</ele>
  <time>2026-08-28T19:11:42Z</time>
  <course>330.19</course>
  <speed>0.0</speed>
  <fix>3d</fix>
</trkpt>
<trkpt lat="40.0729339" lon="-105.2307837">
  <ele>1595.47</ele>
  <time>2026-08-28T19:11:42Z</time>
  <course>83.23</course>
  <speed>0.03</speed>
  <fix>3d</fix>
</trkpt>
<trkpt lat="40.0729341" lon="-105.2307839">
  <ele>1595.57</ele>
  <time>2026-08-28T19:11:42Z</time>
  <course>328.74</course>
  <speed>0.0</speed>
  <fix>3d</fix>
</trkpt>
<trkpt lat="40.0729339" lon="-105.2307836">
  <ele>1595.47</ele>
  <time>2026-08-28T19:11:42Z</time>
  <course>83.21</course>
  <speed>0.03</speed>
  <fix>3d</fix>
</trkpt>
<trkpt lat="40.0729341" lon="-105.2307838">
  <ele>1595.57</ele>
  <time>2026-08-28T19:11:42Z</time>
  <course>327.41</course>
  <speed>0.0</speed>
  <fix>3d</fix>
</trkpt>
<trkpt lat="40.0729339" lon="-105.2307836">
  <ele>1595.48</ele>
  <time>2026-08-28T19:11:42Z</time>
  <course>84.34</course>
  <speed>0.03</speed>
  <fix>3d</fix>
</trkpt>
<trkpt lat="40.0729341" lon="-105.2307838">
  <ele>1595.57</ele>
  <time>2026-08-28T19:11:42Z</time>
  <course>326.43</course>
  <speed>0.0</speed>
  <fix>3d</fix>
</trkpt>
<trkpt lat="40.0729339" lon="-105.2307835">
  <ele>1595.48</ele>
  <time>2026-08-28T19:11:42Z</time>
  <course>86.98</course>
  <speed>0.02</speed>
  <fix>3d</fix>
</trkpt>
<trkpt lat="40.0729341" lon="-105.2307837">
  <ele>1595.58</ele>
  <time>2026-08-28T19:11:42Z</time>
  <course>325.85</course>
  <speed>0.0</speed>
  <fix>3d</fix>
</trkpt>
<trkpt lat="40.0729339" lon="-105.2307834">
  <ele>1595.48</ele>
  <time>2026-08-28T19:11:42Z</time>
  <course>91.1</course>
  <speed>0.02</speed>
  <fix>3d</fix>
</trkpt>
<trkpt lat="40.072934" lon="-105.2307836">
  <ele>1595.58</ele>
  <time>2026-08-28T19:11:42Z</time>
  <course>325.78</course>
  <speed>0.0</speed>
  <fix>3d</fix>
</trkpt>
<trkpt lat="40.0729339" lon="-105.2307833">
  <ele>1595.48</ele>
  <time>2026-08-28T19:11:42Z</time>
  <course>96.39</course>
  <speed>0.02</speed>
  <fix>3d</fix>
</trkpt>
<trkpt lat="40.072934" lon="-105.2307836">
  <ele>1595.57</ele>
  <time>2026-08-28T19:11:42Z</time>
  <course>326.14</course>
  <speed>0.0</speed>
  <fix>3d</fix>
</trkpt>
<trkpt lat="40.0729339" lon="-105.2307833">
  <ele>1595.48</ele>
  <time>2026-08-28T19:11:42Z</time>
  <course>100.89</course>
  <speed>0.02</speed>
  <fix>3d</fix>
</trkpt>
<trkpt lat="40.072934" lon="-105.2307835">
  <ele>1595.56</ele>
  <time>2026-08-28T19:11:42Z</time>
  <course>326.96</course>
  <speed>0.0</speed>
  <fix>3d</fix>
</trkpt>
<trkpt lat="40.0729339" lon="-105.2307833">
  <ele>1595.47</ele>
  <time>2026-08-28T19:11:42Z</time>
  <course>103.89</course>
  <speed>0.02</speed>
  <fix>3d</fix>
</trkpt>
<trkpt lat="40.072934" lon="-105.2307835">
  <ele>1595.56</ele>
  <time>2026-08-28T19:11:42Z</time>
  <course>328.17</course>
  <speed>0.0</speed>
  <fix>3d</fix>
</trkpt>
<trkpt lat="40.0729339" lon="-105.2307832">
  <ele>1595.47</ele>
  <time>2026-08-28T19:11:42Z</time>
  <course>106.15</course>
  <speed>0.02</speed>
  <fix>3d</fix>
</trkpt>
<trkpt lat="40.072934" lon="-105.2307834">
  <ele>1595.56</ele>
  <time>2026-08-28T19:11:42Z</time>
  <course>329.57</course>
  <speed>0.0</speed>
  <fix>3d</fix>
</trkpt>
<trkpt lat="40.0729339" lon="-105.2307831">
  <ele>1595.47</ele>
  <time>2026-08-28T19:11:42Z</time>
  <course>106.77</course>
  <speed>0.02</speed>
  <fix>3d</fix>
</trkpt>
<trkpt lat="40.072934" lon="-105.2307834">
  <ele>1595.55</ele>
  <time>2026-08-28T19:11:42Z</time>
  <course>331.07</course>
  <speed>0.0</speed>
  <fix>3d</fix>
</trkpt>
<trkpt lat="40.0729339" lon="-105.2307831">
  <ele>1595.47</ele>
  <time>2026-08-28T19:11:42Z</time>
  <course>105.41</course>
  <speed>0.02</speed>
  <fix>3d</fix>
</trkpt>
<trkpt lat="40.072934" lon="-105.2307833">
  <ele>1595.55</ele>
  <time>2026-08-28T19:11:42Z</time>
  <course>332.55</course>
  <speed>0.0</speed>
  <fix>3d</fix>
</trkpt>
<trkpt lat="40.0729339" lon="-105.2307831">
  <ele>1595.48</ele>
  <time>2026-08-28T19:11:42Z</time>
  <course>102.93</course>
  <speed>0.02</speed>
  <fix>3d</fix>
</trkpt>
<trkpt lat="40.0729339" lon="-105.2307833">
  <ele>1595.56</ele>
  <time>2026-08-28T19:11:42Z</time>
  <course>333.85</course>
  <speed>0.0</speed>
  <fix>3d</fix>
</trkpt>
<trkpt lat="40.0729339" lon="-105.230783">
  <ele>1595.48</ele>
  <time>2026-08-28T19:11:42Z</time>
  <course>99.76</course>
  <speed>0.02</speed>
  <fix>3d</fix>
</trkpt>
<trkpt lat="40.0729339" lon="-105.2307832">
  <ele>1595.56</ele>
  <time>2026-08-28T19:11:42Z</time>
  <course>334.85</course>
  <speed>0.0</speed>
  <fix>3d</fix>
</trkpt>
<trkpt lat="40.0729339" lon="-105.2307829">
  <ele>1595.48</ele>
  <time>2026-08-28T19:11:42Z</time>
  <course>96.0</course>
  <speed>0.02</speed>
  <fix>3d</fix>
</trkpt>
<trkpt lat="40.072934" lon="-105.2307831">
  <ele>1595.56</ele>
  <time>2026-08-28T19:11:42Z</time>
  <course>335.42</course>
  <speed>0.0</speed>
  <fix>3d</fix>
</trkpt>
<trkpt lat="40.0729339" lon="-105.2307829">
  <ele>1595.48</ele>
  <time>2026-08-28T19:11:42Z</time>
  <course>92.14</course>
  <speed>0.02</speed>
  <fix>3d</fix>
</trkpt>
<trkpt lat="40.072934" lon="-105.2307831">
  <ele>1595.56</ele>
  <time>2026-08-28T19:11:42Z</time>
  <course>335.55</course>
  <speed>0.0</speed>
  <fix>3d</fix>
</trkpt>
<trkpt lat="40.0729339" lon="-105.2307828">
  <ele>1595.49</ele>
  <time>2026-08-28T19:11:42Z</time>
  <course>88.65</course>
  <speed>0.02</speed>
  <fix>3d</fix>
</trkpt>
<trkpt lat="40.072934" lon="-105.230783">
  <ele>1595.57</ele>
  <time>2026-08-28T19:11:42Z</time>
  <course>335.16</course>
  <speed>0.0</speed>
  <fix>3d</fix>
</trkpt>
<trkpt lat="40.0729339" lon="-105.2307828">
  <ele>1595.49</ele>
  <time>2026-08-28T19:11:42Z</time>
  <course>85.82</course>
  <speed>0.03</speed>
  <fix>3d</fix>
</trkpt>
<trkpt lat="40.072934" lon="-105.2307829">
  <ele>1595.58</ele>
  <time>2026-08-28T19:11:42Z</time>
  <course>334.35</course>
  <speed>0.01</speed>
  <fix>3d</fix>
</trkpt>
<trkpt lat="40.0729339" lon="-105.2307827">
  <ele>1595.49</ele>
  <time>2026-08-28T19:11:42Z</time>
  <course>83.52</course>
  <speed>0.03</speed>
  <fix>3d</fix>
</trkpt>
<trkpt lat="40.072934" lon="-105.2307829">
  <ele>1595.57</ele>
  <time>2026-08-28T19:11:42Z</time>
  <course>333.17</course>
  <speed>0.01</speed>
  <fix>3d</fix>
</trkpt>
<trkpt lat="40.0729339" lon="-105.2307826">
  <ele>1595.5</ele>
  <time>2026-08-28T19:11:42Z</time>
  <course>82.17</course>
  <speed>0.03</speed>
  <fix>3d</fix>
</trkpt>
<trkpt lat="40.072934" lon="-105.2307828">
  <ele>1595.57</ele>
  <time>2026-08-28T19:11:42Z</time>
  <course>331.74</course>
  <speed>0.01</speed>
  <fix>3d</fix>
</trkpt>
<trkpt lat="40.0729339" lon="-105.2307825">
  <ele>1595.5</ele>
  <time>2026-08-28T19:11:42Z</time>
  <course>81.66</course>
  <speed>0.03</speed>
  <fix>3d</fix>
</trkpt>
<trkpt lat="40.072934" lon="-105.2307827">
  <ele>1595.57</ele>
  <time>2026-08-28T19:11:42Z</time>
  <course>330.19</course>
  <speed>0.01</speed>
  <fix>3d</fix>
</trkpt>
<trkpt lat="40.0729339" lon="-105.2307824">
  <ele>1595.5</ele>
  <time>2026-08-28T19:11:42Z</time>
  <course>82.04</course>
  <speed>0.03</speed>
  <fix>3d</fix>
</trkpt>
<trkpt lat="40.072934" lon="-105.2307826">
  <ele>1595.57</ele>
  <time>2026-08-28T19:11:42Z</time>
  <course>328.72</course>
  <speed>0.0</speed>
  <fix>3d</fix>
</trkpt>
<trkpt lat="40.0729339" lon="-105.2307824">
  <ele>1595.5</ele>
  <time>2026-08-28T19:11:42Z</time>
  <course>83.07</course>
  <speed>0.03</speed>
  <fix>3d</fix>
</trkpt>
<trkpt lat="40.072934" lon="-105.2307825">
  <ele>1595.57</ele>
  <time>2026-08-28T19:11:42Z</time>
  <course>327.41</course>
  <speed>0.0</speed>
  <fix>3d</fix>
</trkpt>
<trkpt lat="40.0729339" lon="-105.2307823">
  <ele>1595.5</ele>
  <time>2026-08-28T19:11:42Z</time>
  <course>84.33</course>
  <speed>0.03</speed>
  <fix>3d</fix>
</trkpt>
<trkpt lat="40.072934" lon="-105.2307825">
  <ele>1595.57</ele>
  <time>2026-08-28T19:11:42Z</time>
  <course>326.4</course>
  <speed>0.0</speed>
  <fix>3d</fix>
</trkpt>
<trkpt lat="40.0729339" lon="-105.2307822">
  <ele>1595.5</ele>
  <time>2026-08-28T19:11:42Z</time>
  <course>86.53</course>
  <speed>0.02</speed>
  <fix>3d</fix>
</trkpt>
<trkpt lat="40.072934" lon="-105.2307824">
  <ele>1595.57</ele>
  <time>2026-08-28T19:11:42Z</time>
  <course>325.84</course>
  <speed>0.0</speed>
  <fix>3d</fix>
</trkpt>
<trkpt lat="40.0729339" lon="-105.2307821">
  <ele>1595.5</ele>
  <time>2026-08-28T19:11:42Z</time>
  <course>90.21</course>
  <speed>0.02</speed>
  <fix>3d</fix>
</trkpt>
<trkpt lat="40.072934" lon="-105.2307823">
  <ele>1595.57</ele>
  <time>2026-08-28T19:11:42Z</time>
  <course>325.73</course>
  <speed>0.0</speed>
  <fix>3d</fix>
</trkpt>
<trkpt lat="40.0729339" lon="-105.2307821">
  <ele>1595.5</ele>
  <time>2026-08-28T19:11:42Z</time>
  <course>94.66</course>
  <speed>0.02</speed>
  <fix>3d</fix>
</trkpt>
<trkpt lat="40.072934" lon="-105.2307823">
  <ele>1595.57</ele>
  <time>2026-08-28T19:11:42Z</time>
  <course>325.75</course>
  <speed>0.0</speed>
  <fix>3d</fix>
</trkpt>
<trkpt lat="40.0729339" lon="-105.230782">
  <ele>1595.5</ele>
  <time>2026-08-28T19:11:42Z</time>
  <course>97.13</course>
  <speed>0.02</speed>
  <fix>3d</fix>
</trkpt>
<trkpt lat="40.072934" lon="-105.2307822">
  <ele>1595.57</ele>
  <time>2026-08-28T19:11:42Z</time>
  <course>325.76</course>
  <speed>0.0</speed>
  <fix>3d</fix>
</trkpt>
<trkpt lat="40.0729339" lon="-105.2307819">
  <ele>1595.5</ele>
  <time>2026-08-28T19:11:42Z</time>
  <course>97.2</course>
  <speed>0.02</speed>
  <fix>3d</fix>
</trkpt>
<trkpt lat="40.072934" lon="-105.2307822">
  <ele>1595.57</ele>
  <time>2026-08-28T19:11:42Z</time>
  <course>325.76</course>
  <speed>0.0</speed>
  <fix>3d</fix>
</trkpt>
<trkpt lat="40.0729339" lon="-105.2307819">
  <ele>1595.5</ele>
  <time>2026-08-28T19:11:42Z</time>
  <course>97.01</course>
  <speed>0.02</speed>
  <fix>3d</fix>
</trkpt>
<trkpt lat="40.072934" lon="-105.2307821">
  <ele>1595.57</ele>
  <time>2026-08-28T19:11:42Z</time>
  <course>325.76</course>
  <speed>0.0</speed>
  <fix>3d</fix>
</trkpt>
<trkpt lat="40.0729339" lon="-105.2307818">
  <ele>1595.5</ele>
  <time>2026-08-28T19:11:42Z</time>
  <course>96.9</course>
  <speed>0.02</speed>
  <fix>3d</fix>
</trkpt>
<trkpt lat="40.072934" lon="-105.230782">
  <ele>1595.57</ele>
  <time>2026-08-28T19:11:42Z</time>
  <course>325.76</course>
  <speed>0.0</speed>
  <fix>3d</fix>
</trkpt>
<trkpt lat="40.0729339" lon="-105.2307817">
  <ele>1595.5</ele>
  <time>2026-08-28T19:11:42Z</time>
  <course>96.79</course>
  <speed>0.03</speed>
  <fix>3d</fix>
</trkpt>
<trkpt lat="40.072934" lon="-105.2307819">
  <ele>1595.57</ele>
  <time>2026-08-28T19:11:42Z</time>
  <course>325.76</course>
  <speed>0.0</speed>
  <fix>3d</fix>
</trkpt>
<trkpt lat="40.0729339" lon="-105.2307817">
  <ele>1595.5</ele>
  <time>2026-08-28T19:11:42Z</time>
  <course>96.58</course>
  <speed>0.03</speed>
  <fix>3d</fix>
</trkpt>
<trkpt lat="40.072934" lon="-105.2307819">
  <ele>1595.57</ele>
  <time>2026-08-28T19:11:42Z</time>
  <course>325.75</course>
  <speed>0.0</speed>
  <fix>3d</fix>
</trkpt>
<trkpt lat="40.0729339" lon="-105.2307816">
  <ele>1595.5</ele>
  <time>2026-08-28T19:11:42Z</time>
  <course>96.29</course>
  <speed>0.03</speed>
  <fix>3d</fix>
</trkpt>
<trkpt lat="40.072934" lon="-105.2307818">
  <ele>1595.57</ele>
  <time>2026-08-28T19:11:42Z</time>
  <course>325.76</course>
  <speed>0.0</speed>
  <fix>3d</fix>
</trkpt>
<trkpt lat="40.0729339" lon="-105.2307815">
  <ele>1595.5</ele>
  <time>2026-08-28T19:11:42Z</time>
  <course>95.62</course>
  <speed>0.03</speed>
  <fix>3d</fix>
</trkpt>
<trkpt lat="40.072934" lon="-105.2307817">
  <ele>1595.57</ele>
  <time>2026-08-28T19:11:42Z</time>
  <course>325.76</course>
  <speed>0.0</speed>
  <fix>3d</fix>
</trkpt>
<trkpt lat="40.0729339" lon="-105.2307814">
  <ele>1595.5</ele>
  <time>2026-08-28T19:11:42Z</time>
  <course>94.33</course>
  <speed>0.03</speed>
  <fix>3d</fix>
</trkpt>
<trkpt lat="40.072934" lon="-105.2307816">
  <ele>1595.57</ele>
  <time>2026-08-28T19:11:42Z</time>
  <course>325.76</course>
  <speed>0.0</speed>
  <fix>3d</fix>
</trkpt>
<trkpt lat="40.0729339" lon="-105.2307814">
  <ele>1595.5</ele>
  <time>2026-08-28T19:11:42Z</time>
  <course>92.78</course>
  <speed>0.03</speed>
  <fix>3d</fix>
</trkpt>
<trkpt lat="40.072934" lon="-105.2307816">
  <ele>1595.58</ele>
  <time>2026-08-28T19:11:42Z</time>
  <course>325.76</course>
  <speed>0.0</speed>
  <fix>3d</fix>
</trkpt>
<trkpt lat="40.0729339" lon="-105.2307813">
  <ele>1595.5</ele>
  <time>2026-08-28T19:11:42Z</time>
  <course>91.33</course>
  <speed>0.03</speed>
  <fix>3d</fix>
</trkpt>
<trkpt lat="40.072934" lon="-105.2307815">
  <ele>1595.58</ele>
  <time>2026-08-28T19:11:42Z</time>
  <course>325.77</course>
  <speed>0.0</speed>
  <fix>3d</fix>
</trkpt>
<trkpt lat="40.0729339" lon="-105.2307812">
  <ele>1595.5</ele>
  <time>2026-08-28T19:11:42Z</time>
  <course>89.99</course>
  <speed>0.03</speed>
  <fix>3d</fix>
</trkpt>
<trkpt lat="40.072934" lon="-105.2307814">
  <ele>1595.58</ele>
  <time>2026-08-28T19:11:42Z</time>
  <course>325.76</course>
  <speed>0.0</speed>
  <fix>3d</fix>
</trkpt>
<trkpt lat="40.0729339" lon="-105.2307812">
  <ele>1595.5</ele>
  <time>2026-08-28T19:11:42Z</time>
  <course>88.48</course>
  <speed>0.03</speed>
  <fix>3d</fix>
</trkpt>
<trkpt lat="40.072934" lon="-105.2307813">
  <ele>1595.58</ele>
  <time>2026-08-28T19:11:42Z</time>
  <course>325.79</course>
  <speed>0.0</speed>
  <fix>3d</fix>
</trkpt>
<trkpt lat="40.0729339" lon="-105.2307811">
  <ele>1595.5</ele>
  <time>2026-08-28T19:11:42Z</time>
  <course>87.09</course>
  <speed>0.03</speed>
  <fix>3d</fix>
</trkpt>
<trkpt lat="40.072934" lon="-105.2307813">
  <ele>1595.58</ele>
  <time>2026-08-28T19:11:42Z</time>
  <course>325.79</course>
  <speed>0.0</speed>
  <fix>3d</fix>
</trkpt>
<trkpt lat="40.0729339" lon="-105.230781">
  <ele>1595.5</ele>
  <time>2026-08-28T19:11:42Z</time>
  <course>85.71</course>
  <speed>0.03</speed>
  <fix>3d</fix>
</trkpt>
<trkpt lat="40.072934" lon="-105.2307812">
  <ele>1595.57</ele>
  <time>2026-08-28T19:11:42Z</time>
  <course>325.77</course>
  <speed>0.0</speed>
  <fix>3d</fix>
</trkpt>
<trkpt lat="40.0729339" lon="-105.2307809">
  <ele>1595.5</ele>
  <time>2026-08-28T19:11:42Z</time>
  <course>83.88</course>
  <speed>0.03</speed>
  <fix>3d</fix>
</trkpt>
<trkpt lat="40.072934" lon="-105.2307811">
  <ele>1595.56</ele>
  <time>2026-08-28T19:11:42Z</time>
  <course>325.47</course>
  <speed>0.01</speed>
  <fix>3d</fix>
</trkpt>
<trkpt lat="40.0729339" lon="-105.2307809">
  <ele>1595.49</ele>
  <time>2026-08-28T19:11:42Z</time>
  <course>81.48</course>
  <speed>0.03</speed>
  <fix>3d</fix>
</trkpt>
<trkpt lat="40.072934" lon="-105.230781">
  <ele>1595.56</ele>
  <time>2026-08-28T19:11:42Z</time>
  <course>324.25</course>
  <speed>0.01414213562373095</speed>
  <fix>3d</fix>
</trkpt>
<trkpt lat="40.0729339" lon="-105.2307808">
  <ele>1595.49</ele>
  <time>2026-08-28T19:11:42Z</time>
  <course>78.65</course>
  <speed>0.03</speed>
  <fix>3d</fix>
</trkpt>
<trkpt lat="40.072934" lon="-105.2307809">
  <ele>1595.57</ele>
  <time>2026-08-28T19:11:42Z</time>
  <course>322.89</course>
  <speed>0.01</speed>
  <fix>3d</fix>
</trkpt>
<trkpt lat="40.0729339" lon="-105.2307807">
  <ele>1595.49</ele>
  <time>2026-08-28T19:11:42Z</time>
  <course>77.03</course>
  <speed>0.03</speed>
  <fix>3d</fix>
</trkpt>
<trkpt lat="40.072934" lon="-105.2307809">
  <ele>1595.57</ele>
  <time>2026-08-28T19:11:42Z</time>
  <course>321.8</course>
  <speed>0.01</speed>
  <fix>3d</fix>
</trkpt>
<trkpt lat="40.0729339" lon="-105.2307806">
  <ele>1595.49</ele>
  <time>2026-08-28T19:11:42Z</time>
  <course>77.15</course>
  <speed>0.03</speed>
  <fix>3d</fix>
</trkpt>
<trkpt lat="40.072934" lon="-105.2307808">
  <ele>1595.57</ele>
  <time>2026-08-28T19:11:42Z</time>
  <course>321.1</course>
  <speed>0.0</speed>
  <fix>3d</fix>
</trkpt>
<trkpt lat="40.0729339" lon="-105.2307805">
  <ele>1595.5</ele>
  <time>2026-08-28T19:11:42Z</time>
  <course>78.69</course>
  <speed>0.03</speed>
  <fix>3d</fix>
</trkpt>
<trkpt lat="40.072934" lon="-105.2307807">
  <ele>1595.57</ele>
  <time>2026-08-28T19:11:42Z</time>
  <course>320.82</course>
  <speed>0.0</speed>
  <fix>3d</fix>
</trkpt>
<trkpt lat="40.0729339" lon="-105.2307804">
  <ele>1595.5</ele>
  <time>2026-08-28T19:11:42Z</time>
  <course>82.1</course>
  <speed>0.03</speed>
  <fix>3d</fix>
</trkpt>
<trkpt lat="40.072934" lon="-105.2307807">
  <ele>1595.57</ele>
  <time>2026-08-28T19:11:42Z</time>
  <course>321.04</course>
  <speed>0.0</speed>
  <fix>3d</fix>
</trkpt>
<trkpt lat="40.0729339" lon="-105.2307804">
  <ele>1595.5</ele>
  <time>2026-08-28T19:11:42Z</time>
  <course>86.57</course>
  <speed>0.02</speed>
  <fix>3d</fix>
</trkpt>
<trkpt lat="40.072934" lon="-105.2307806">
  <ele>1595.57</ele>
  <time>2026-08-28T19:11:42Z</time>
  <course>321.72</course>
  <speed>0.0</speed>
  <fix>3d</fix>
</trkpt>
<trkpt lat="40.0729339" lon="-105.2307803">
  <ele>1595.5</ele>
  <time>2026-08-28T19:11:42Z</time>
  <course>90.49</course>
  <speed>0.02</speed>
  <fix>3d</fix>
</trkpt>
<trkpt lat="40.072934" lon="-105.2307805">
  <ele>1595.57</ele>
  <time>2026-08-28T19:11:42Z</time>
  <course>322.83</course>
  <speed>0.0</speed>
  <fix>3d</fix>
</trkpt>
<trkpt lat="40.0729339" lon="-105.2307802">
  <ele>1595.5</ele>
  <time>2026-08-28T19:11:42Z</time>
  <course>94.55</course>
  <speed>0.02</speed>
  <fix>3d</fix>
</trkpt>
<trkpt lat="40.072934" lon="-105.2307805">
  <ele>1595.57</ele>
  <time>2026-08-28T19:11:42Z</time>
  <course>324.17</course>
  <speed>0.0</speed>
  <fix>3d</fix>
</trkpt>
<trkpt lat="40.0729339" lon="-105.2307802">
  <ele>1595.5</ele>
  <time>2026-08-28T19:11:42Z</time>
  <course>98.71</course>
  <speed>0.02</speed>
  <fix>3d</fix>
</trkpt>
<trkpt lat="40.072934" lon="-105.2307804">
  <ele>1595.57</ele>
  <time>2026-08-28T19:11:42Z</time>
  <course>325.68</course>
  <speed>0.0</speed>
  <fix>3d</fix>
</trkpt>
<trkpt lat="40.0729339" lon="-105.2307801">
  <ele>1595.5</ele>
  <time>2026-08-28T19:11:42Z</time>
  <course>101.65</course>
  <speed>0.02</speed>
  <fix>3d</fix>
</trkpt>
<trkpt lat="40.072934" lon="-105.2307804">
  <ele>1595.57</ele>
  <time>2026-08-28T19:11:42Z</time>
  <course>327.21</course>
  <speed>0.0</speed>
  <fix>3d</fix>
</trkpt>
<trkpt lat="40.0729339" lon="-105.23078">
  <ele>1595.5</ele>
  <time>2026-08-28T19:11:42Z</time>
  <course>102.91</course>
  <speed>0.02</speed>
  <fix>3d</fix>
</trkpt>
<trkpt lat="40.072934" lon="-105.2307803">
  <ele>1595.57</ele>
  <time>2026-08-28T19:11:42Z</time>
  <course>328.59</course>
  <speed>0.0</speed>
  <fix>3d</fix>
</trkpt>
<trkpt lat="40.0729339" lon="-105.23078">
  <ele>1595.5</ele>
  <time>2026-08-28T19:11:42Z</time>
  <course>102.58</course>
  <speed>0.02</speed>
  <fix>3d</fix>
</trkpt>
<trkpt lat="40.072934" lon="-105.2307802">
  <ele>1595.58</ele>
  <time>2026-08-28T19:11:42Z</time>
  <course>329.7</course>
  <speed>0.0</speed>
  <fix>3d</fix>
</trkpt>
<trkpt lat="40.0729339" lon="-105.2307799">
  <ele>1595.5</ele>
  <time>2026-08-28T19:11:42Z</time>
  <course>101.71</course>
  <speed>0.02</speed>
  <fix>3d</fix>
</trkpt>
<trkpt lat="40.0729339" lon="-105.2307801">
  <ele>1595.58</ele>
  <time>2026-08-28T19:11:42Z</time>
  <course>330.45</course>
  <speed>0.0</speed>
  <fix>3d</fix>
</trkpt>
<trkpt lat="40.0729339" lon="-105.2307799">
  <ele>1595.5</ele>
  <time>2026-08-28T19:11:42Z</time>
  <course>99.99</course>
  <speed>0.02</speed>
  <fix>3d</fix>
</trkpt>
<trkpt lat="40.0729339" lon="-105.2307801">
  <ele>1595.58</ele>
  <time>2026-08-28T19:11:42Z</time>
  <course>330.68</course>
  <speed>0.0</speed>
  <fix>3d</fix>
</trkpt>
<trkpt lat="40.0729339" lon="-105.2307798">
  <ele>1595.5</ele>
  <time>2026-08-28T19:11:42Z</time>
  <course>96.65</course>
  <speed>0.03</speed>
  <fix>3d</fix>
</trkpt>
<trkpt lat="40.0729339" lon="-105.23078">
  <ele>1595.57</ele>
  <time>2026-08-28T19:11:42Z</time>
  <course>330.47</course>
  <speed>0.0</speed>
  <fix>3d</fix>
</trkpt>
<trkpt lat="40.0729339" lon="-105.2307797">
  <ele>1595.5</ele>
  <time>2026-08-28T19:11:42Z</time>
  <course>92.55</course>
  <speed>0.03</speed>
  <fix>3d</fix>
</trkpt>
<trkpt lat="40.072934" lon="-105.2307799">
  <ele>1595.57</ele>
  <time>2026-08-28T19:11:42Z</time>
  <course>329.81</course>
  <speed>0.0</speed>
  <fix>3d</fix>
</trkpt>
<trkpt lat="40.0729339" lon="-105.2307797">
  <ele>1595.49</ele>
  <time>2026-08-28T19:11:42Z</time>
  <course>88.62</course>
  <speed>0.03</speed>
  <fix>3d</fix>
</trkpt>
<trkpt lat="40.072934" lon="-105.2307798">
  <ele>1595.57</ele>
  <time>2026-08-28T19:11:42Z</time>
  <course>328.73</course>
  <speed>0.0</speed>
  <fix>3d</fix>
</trkpt>
<trkpt lat="40.0729339" lon="-105.2307796">
  <ele>1595.49</ele>
  <time>2026-08-28T19:11:42Z</time>
  <course>85.59</course>
  <speed>0.03</speed>
  <fix>3d</fix>
</trkpt>
<trkpt lat="40.072934" lon="-105.2307798">
  <ele>1595.58</ele>
  <time>2026-08-28T19:11:42Z</time>
  <course>327.36</course>
  <speed>0.0</speed>
  <fix>3d</fix>
</trkpt>
<trkpt lat="40.0729339" lon="-105.2307795">
  <ele>1595.49</ele>
  <time>2026-08-28T19:11:42Z</time>
  <course>83.89</course>
  <speed>0.03</speed>
  <fix>3d</fix>
</trkpt>
<trkpt lat="40.072934" lon="-105.2307797">
  <ele>1595.58</ele>
  <time>2026-08-28T19:11:42Z</time>
  <course>325.85</course>
  <speed>0.0</speed>
  <fix>3d</fix>
</trkpt>
<trkpt lat="40.0729339" lon="-105.2307794">
  <ele>1595.49</ele>
  <time>2026-08-28T19:11:42Z</time>
  <course>83.1</course>
  <speed>0.03</speed>
  <fix>3d</fix>
</trkpt>
<trkpt lat="40.072934" lon="-105.2307796">
  <ele>1595.57</ele>
  <time>2026-08-28T19:11:42Z</time>
  <course>324.33</course>
  <speed>0.0</speed>
  <fix>3d</fix>
</trkpt>
<trkpt lat="40.0729339" lon="-105.2307793">
  <ele>1595.49</ele>
  <time>2026-08-28T19:11:42Z</time>
  <course>82.92</course>
  <speed>0.03</speed>
  <fix>3d</fix>
</trkpt>
<trkpt lat="40.072934" lon="-105.2307795">
  <ele>1595.57</ele>
  <time>2026-08-28T19:11:42Z</time>
  <course>322.94</course>
  <speed>0.0</speed>
  <fix>3d</fix>
</trkpt>
<trkpt lat="40.0729339" lon="-105.2307793">
  <ele>1595.49</ele>
  <time>2026-08-28T19:11:42Z</time>
  <course>83.55</course>
  <speed>0.03</speed>
  <fix>3d</fix>
</trkpt>
<trkpt lat="40.072934" lon="-105.2307795">
  <ele>1595.56</ele>
  <time>2026-08-28T19:11:42Z</time>
  <course>321.81</course>
  <speed>0.0</speed>
  <fix>3d</fix>
</trkpt>
<trkpt lat="40.0729339" lon="-105.2307792">
  <ele>1595.49</ele>
  <time>2026-08-28T19:11:42Z</time>
  <course>85.1</course>
  <speed>0.02</speed>
  <fix>3d</fix>
</trkpt>
<trkpt lat="40.072934" lon="-105.2307794">
  <ele>1595.56</ele>
  <time>2026-08-28T19:11:42Z</time>
  <course>321.1</course>
  <speed>0.0</speed>
  <fix>3d</fix>
</trkpt>
<trkpt lat="40.0729339" lon="-105.2307792">
  <ele>1595.48</ele>
  <time>2026-08-28T19:11:42Z</time>
  <course>87.7</course>
  <speed>0.02</speed>
  <fix>3d</fix>
</trkpt>
<trkpt lat="40.072934" lon="-105.2307794">
  <ele>1595.57</ele>
  <time>2026-08-28T19:11:43Z</time>
  <course>320.82</course>
  <speed>0.0</speed>
  <fix>3d</fix>
</trkpt>
<trkpt lat="40.0729339" lon="-105.2307791">
  <ele>1595.48</ele>
  <time>2026-08-28T19:11:43Z</time>
  <course>91.26</course>
  <speed>0.02</speed>
  <fix>3d</fix>
</trkpt>
<trkpt lat="40.072934" lon="-105.2307793">
  <ele>1595.57</ele>
  <time>2026-08-28T19:11:43Z</time>
  <course>321.04</course>
  <speed>0.0</speed>
  <fix>3d</fix>
</trkpt>
<trkpt lat="40.0729339" lon="-105.230779">
  <ele>1595.49</ele>
  <time>2026-08-28T19:11:43Z</time>
  <course>95.1</course>
  <speed>0.02</speed>
  <fix>3d</fix>
</trkpt>
<trkpt lat="40.072934" lon="-105.2307792">
  <ele>1595.57</ele>
  <time>2026-08-28T19:11:43Z</time>
  <course>321.73</course>
  <speed>0.0</speed>
  <fix>3d</fix>
</trkpt>
<trkpt lat="40.0729339" lon="-105.230779">
  <ele>1595.49</ele>
  <time>2026-08-28T19:11:43Z</time>
  <course>99.55</course>
  <speed>0.02</speed>
  <fix>3d</fix>
</trkpt>
<trkpt lat="40.072934" lon="-105.2307792">
  <ele>1595.57</ele>
  <time>2026-08-28T19:11:43Z</time>
  <course>322.84</course>
  <speed>0.0</speed>
  <fix>3d</fix>
</trkpt>
<trkpt lat="40.0729339" lon="-105.2307789">
  <ele>1595.49</ele>
  <time>2026-08-28T19:11:43Z</time>
  <course>104.86</course>
  <speed>0.02</speed>
  <fix>3d</fix>
</trkpt>
<trkpt lat="40.072934" lon="-105.2307792">
  <ele>1595.57</ele>
  <time>2026-08-28T19:11:43Z</time>
  <course>324.22</course>
  <speed>0.0</speed>
  <fix>3d</fix>
</trkpt>
<trkpt lat="40.0729339" lon="-105.2307788">
  <ele>1595.49</ele>
  <time>2026-08-28T19:11:43Z</time>
  <course>109.18</course>
  <speed>0.02</speed>
  <fix>3d</fix>
</trkpt>
<trkpt lat="40.0729339" lon="-105.2307791">
  <ele>1595.57</ele>
  <time>2026-08-28T19:11:43Z</time>
  <course>325.72</course>
  <speed>0.0</speed>
  <fix>3d</fix>
</trkpt>
<trkpt lat="40.0729339" lon="-105.2307788">
  <ele>1595.49</ele>
  <time>2026-08-28T19:11:43Z</time>
  <course>111.49</course>
  <speed>0.02</speed>
  <fix>3d</fix>
</trkpt>
<trkpt lat="40.0729339" lon="-105.230779">
  <ele>1595.57</ele>
  <time>2026-08-28T19:11:43Z</time>
  <course>327.23</course>
  <speed>0.0</speed>
  <fix>3d</fix>
</trkpt>
<trkpt lat="40.0729339" lon="-105.2307788">
  <ele>1595.49</ele>
  <time>2026-08-28T19:11:43Z</time>
  <course>111.76</course>
  <speed>0.02</speed>
  <fix>3d</fix>
</trkpt>
<trkpt lat="40.0729339" lon="-105.230779">
  <ele>1595.58</ele>
  <time>2026-08-28T19:11:43Z</time>
  <course>328.61</course>
  <speed>0.0</speed>
  <fix>3d</fix>
</trkpt>
<trkpt lat="40.0729339" lon="-105.2307787">
  <ele>1595.49</ele>
  <time>2026-08-28T19:11:43Z</time>
  <course>110.59</course>
  <speed>0.02</speed>
  <fix>3d</fix>
</trkpt>
<trkpt lat="40.0729339" lon="-105.2307789">
  <ele>1595.58</ele>
  <time>2026-08-28T19:11:43Z</time>
  <course>329.74</course>
  <speed>0.0</speed>
  <fix>3d</fix>
</trkpt>
<trkpt lat="40.0729339" lon="-105.2307787">
  <ele>1595.48</ele>
  <time>2026-08-28T19:11:43Z</time>
  <course>108.21</course>
  <speed>0.02</speed>
  <fix>3d</fix>
</trkpt>
<trkpt lat="40.0729339" lon="-105.2307789">
  <ele>1595.58</ele>
  <time>2026-08-28T19:11:43Z</time>
  <course>330.45</course>
  <speed>0.0</speed>
  <fix>3d</fix>
</trkpt>
<trkpt lat="40.0729339" lon="-105.2307786">
  <ele>1595.48</ele>
  <time>2026-08-28T19:11:43Z</time>
  <course>104.24</course>
  <speed>0.02</speed>
  <fix>3d</fix>
</trkpt>
<trkpt lat="40.0729339" lon="-105.2307788">
  <ele>1595.59</ele>
  <time>2026-08-28T19:11:43Z</time>
  <course>330.74</course>
  <speed>0.0</speed>
  <fix>3d</fix>
</trkpt>
<trkpt lat="40.0729338" lon="-105.2307785">
  <ele>1595.48</ele>
  <time>2026-08-28T19:11:43Z</time>
  <course>99.75</course>
  <speed>0.03</speed>
  <fix>3d</fix>
</trkpt>
<trkpt lat="40.0729339" lon="-105.2307787">
  <ele>1595.59</ele>
  <time>2026-08-28T19:11:43Z</time>
  <course>330.5</course>
  <speed>0.0</speed>
  <fix>3d</fix>
</trkpt>
<trkpt lat="40.0729338" lon="-105.2307784">
  <ele>1595.48</ele>
  <time>2026-08-28T19:11:43Z</time>
  <course>95.11</course>
  <speed>0.03</speed>
  <fix>3d</fix>
</trkpt>
<trkpt lat="40.0729339" lon="-105.2307786">
  <ele>1595.58</ele>
  <time>2026-08-28T19:11:43Z</time>
  <course>329.83</course>
  <speed>0.0</speed>
  <fix>3d</fix>
</trkpt>
<trkpt lat="40.0729338" lon="-105.2307783">
  <ele>1595.47</ele>
  <time>2026-08-28T19:11:43Z</time>
  <course>90.46</course>
  <speed>0.03</speed>
  <fix>3d</fix>
</trkpt>
<trkpt lat="40.0729339" lon="-105.2307785">
  <ele>1595.58</ele>
  <time>2026-08-28T19:11:43Z</time>
  <course>328.75</course>
  <speed>0.0</speed>
  <fix>3d</fix>
</trkpt>
<trkpt lat="40.0729338" lon="-105.2307783">
  <ele>1595.47</ele>
  <time>2026-08-28T19:11:43Z</time>
  <course>86.5</course>
  <speed>0.03</speed>
  <fix>3d</fix>
</trkpt>
<trkpt lat="40.0729339" lon="-105.2307785">
  <ele>1595.58</ele>
  <time>2026-08-28T19:11:43Z</time>
  <course>327.4</course>
  <speed>0.01</speed>
  <fix>3d</fix>
</trkpt>
<trkpt lat="40.0729338" lon="-105.2307782">
  <ele>1595.46</ele>
  <time>2026-08-28T19:11:43Z</time>
  <course>83.62</course>
  <speed>0.03</speed>
  <fix>3d</fix>
</trkpt>
<trkpt lat="40.0729339" lon="-105.2307784">
  <ele>1595.57</ele>
  <time>2026-08-28T19:11:43Z</time>
  <course>325.85</course>
  <speed>0.01</speed>
  <fix>3d</fix>
</trkpt>
<trkpt lat="40.0729338" lon="-105.2307781">
  <ele>1595.46</ele>
  <time>2026-08-28T19:11:43Z</time>
  <course>82.08</course>
  <speed>0.03</speed>
  <fix>3d</fix>
</trkpt>
<trkpt lat="40.0729339" lon="-105.2307783">
  <ele>1595.57</ele>
  <time>2026-08-28T19:11:43Z</time>
  <course>324.33</course>
  <speed>0.0</speed>
  <fix>3d</fix>
</trkpt>
<trkpt lat="40.0729338" lon="-105.230778">
  <ele>1595.46</ele>
  <time>2026-08-28T19:11:43Z</time>
  <course>82.03</course>
  <speed>0.03</speed>
  <fix>3d</fix>
</trkpt>
<trkpt lat="40.0729339" lon="-105.2307782">
  <ele>1595.57</ele>
  <time>2026-08-28T19:11:43Z</time>
  <course>322.93</course>
  <speed>0.0</speed>
  <fix>3d</fix>
</trkpt>
<trkpt lat="40.0729338" lon="-105.230778">
  <ele>1595.46</ele>
  <time>2026-08-28T19:11:43Z</time>
  <course>82.53</course>
  <speed>0.03</speed>
  <fix>3d</fix>
</trkpt>
<trkpt lat="40.0729339" lon="-105.2307782">
  <ele>1595.57</ele>
  <time>2026-08-28T19:11:43Z</time>
  <course>321.83</course>
  <speed>0.0</speed>
  <fix>3d</fix>
</trkpt>
<trkpt lat="40.0729338" lon="-105.2307779">
  <ele>1595.45</ele>
  <time>2026-08-28T19:11:43Z</time>
  <course>84.25</course>
  <speed>0.02</speed>
  <fix>3d</fix>
</trkpt>
<trkpt lat="40.0729339" lon="-105.2307781">
  <ele>1595.57</ele>
  <time>2026-08-28T19:11:43Z</time>
  <course>321.13</course>
  <speed>0.0</speed>
  <fix>3d</fix>
</trkpt>
<trkpt lat="40.0729338" lon="-105.2307778">
  <ele>1595.45</ele>
  <time>2026-08-28T19:11:43Z</time>
  <course>88.24</course>
  <speed>0.02</speed>
  <fix>3d</fix>
</trkpt>
<trkpt lat="40.0729339" lon="-105.230778">
  <ele>1595.57</ele>
  <time>2026-08-28T19:11:43Z</time>
  <course>320.86</course>
  <speed>0.0</speed>
  <fix>3d</fix>
</trkpt>
<trkpt lat="40.0729338" lon="-105.2307778">
  <ele>1595.45</ele>
  <time>2026-08-28T19:11:43Z</time>
  <course>94.15</course>
  <speed>0.02</speed>
  <fix>3d</fix>
</trkpt>
<trkpt lat="40.0729339" lon="-105.230778">
  <ele>1595.57</ele>
  <time>2026-08-28T19:11:43Z</time>
  <course>321.06</course>
  <speed>0.0</speed>
  <fix>3d</fix>
</trkpt>
<trkpt lat="40.0729338" lon="-105.2307777">
  <ele>1595.45</ele>
  <time>2026-08-28T19:11:43Z</time>
  <course>99.93</course>
  <speed>0.02</speed>
  <fix>3d</fix>
</trkpt>
<trkpt lat="40.0729339" lon="-105.2307779">
  <ele>1595.56</ele>
  <time>2026-08-28T19:11:43Z</time>
  <course>321.73</course>
  <speed>0.0</speed>
  <fix>3d</fix>
</trkpt>
<trkpt lat="40.0729338" lon="-105.2307776">
  <ele>1595.45</ele>
  <time>2026-08-28T19:11:43Z</time>
  <course>104.04</course>
  <speed>0.02</speed>
  <fix>3d</fix>
</trkpt>
<trkpt lat="40.0729339" lon="-105.2307779">
  <ele>1595.56</ele>
  <time>2026-08-28T19:11:43Z</time>
  <course>322.83</course>
  <speed>0.0</speed>
  <fix>3d</fix>
</trkpt>
<trkpt lat="40.0729338" lon="-105.2307776">
  <ele>1595.45</ele>
  <time>2026-08-28T19:11:43Z</time>
  <course>106.52</course>
  <speed>0.02</speed>
  <fix>3d</fix>
</trkpt>
<trkpt lat="40.0729339" lon="-105.2307778">
  <ele>1595.55</ele>
  <time>2026-08-28T19:11:43Z</time>
  <course>324.14</course>
  <speed>0.0</speed>
  <fix>3d</fix>
</trkpt>
<trkpt lat="40.0729338" lon="-105.2307776">
  <ele>1595.45</ele>
  <time>2026-08-28T19:11:43Z</time>
  <course>106.76</course>
  <speed>0.02</speed>
  <fix>3d</fix>
</trkpt>
<trkpt lat="40.0729338" lon="-105.2307778">
  <ele>1595.56</ele>
  <time>2026-08-28T19:11:43Z</time>
  <course>325.63</course>
  <speed>0.0</speed>
  <fix>3d</fix>
</trkpt>
<trkpt lat="40.0729338" lon="-105.2307775">
  <ele>1595.45</ele>
  <time>2026-08-28T19:11:43Z</time>
  <course>105.87</course>
  <speed>0.02</speed>
  <fix>3d</fix>
</trkpt>
<trkpt lat="40.0729338" lon="-105.2307777">
  <ele>1595.56</ele>
  <time>2026-08-28T19:11:43Z</time>
  <course>327.17</course>
  <speed>0.0</speed>
  <fix>3d</fix>
</trkpt>
<trkpt lat="40.0729338" lon="-105.2307774">
  <ele>1595.45</ele>
  <time>2026-08-28T19:11:43Z</time>
  <course>104.58</course>
  <speed>0.02</speed>
  <fix>3d</fix>
</trkpt>
<trkpt lat="40.0729338" lon="-105.2307776">
  <ele>1595.56</ele>
  <time>2026-08-28T19:11:43Z</time>
  <course>328.56</course>
  <speed>0.0</speed>
  <fix>3d</fix>
</trkpt>
<trkpt lat="40.0729338" lon="-105.2307773">
  <ele>1595.45</ele>
  <time>2026-08-28T19:11:43Z</time>
  <course>102.46</course>
  <speed>0.02</speed>
  <fix>3d</fix>
</trkpt>
<trkpt lat="40.0729338" lon="-105.2307776">
  <ele>1595.56</ele>
  <time>2026-08-28T19:11:43Z</time>
  <course>329.69</course>
  <speed>0.0</speed>
  <fix>3d</fix>
</trkpt>
<trkpt lat="40.0729338" lon="-105.2307773">
  <ele>1595.46</ele>
  <time>2026-08-28T19:11:43Z</time>
  <course>99.22</course>
  <speed>0.02</speed>
  <fix>3d</fix>
</trkpt>
<trkpt lat="40.0729338" lon="-105.2307775">
  <ele>1595.56</ele>
  <time>2026-08-28T19:11:43Z</time>
  <course>330.4</course>
  <speed>0.0</speed>
  <fix>3d</fix>
</trkpt>
<trkpt lat="40.0729338" lon="-105.2307772">
  <ele>1595.46</ele>
  <time>2026-08-28T19:11:43Z</time>
  <course>95.13</course>
  <speed>0.02</speed>
  <fix>3d</fix>
</trkpt>
<trkpt lat="40.0729338" lon="-105.2307774">
  <ele>1595.56</ele>
  <time>2026-08-28T19:11:43Z</time>
  <course>330.66</course>
  <speed>0.0</speed>
  <fix>3d</fix>
</trkpt>
<trkpt lat="40.0729338" lon="-105.2307771">
  <ele>1595.46</ele>
  <time>2026-08-28T19:11:43Z</time>
  <course>90.86</course>
  <speed>0.03</speed>
  <fix>3d</fix>
</trkpt>
<trkpt lat="40.0729338" lon="-105.2307773">
  <ele>1595.56</ele>
  <time>2026-08-28T19:11:43Z</time>
  <course>330.46</course>
  <speed>0.0</speed>
  <fix>3d</fix>
</trkpt>
<trkpt lat="40.0729338" lon="-105.2307771">
  <ele>1595.46</ele>
  <time>2026-08-28T19:11:43Z</time>
  <course>87.3</course>
  <speed>0.03</speed>
  <fix>3d</fix>
</trkpt>
<trkpt lat="40.0729338" lon="-105.2307773">
  <ele>1595.55</ele>
  <time>2026-08-28T19:11:43Z</time>
  <course>329.77</course>
  <speed>0.0</speed>
  <fix>3d</fix>
</trkpt>
<trkpt lat="40.0729338" lon="-105.230777">
  <ele>1595.47</ele>
  <time>2026-08-28T19:11:43Z</time>
  <course>84.61</course>
  <speed>0.03</speed>
  <fix>3d</fix>
</trkpt>
<trkpt lat="40.0729338" lon="-105.2307772">
  <ele>1595.55</ele>
  <time>2026-08-28T19:11:43Z</time>
  <course>328.67</course>
  <speed>0.01</speed>
  <fix>3d</fix>
</trkpt>
<trkpt lat="40.0729338" lon="-105.2307769">
  <ele>1595.47</ele>
  <time>2026-08-28T19:11:43Z</time>
  <course>82.21</course>
  <speed>0.03</speed>
  <fix>3d</fix>
</trkpt>
<trkpt lat="40.0729338" lon="-105.2307771">
  <ele>1595.55</ele>
  <time>2026-08-28T19:11:43Z</time>
  <course>327.3</course>
  <speed>0.01</speed>
  <fix>3d</fix>
</trkpt>
<trkpt lat="40.0729338" lon="-105.2307769">
  <ele>1595.47</ele>
  <time>2026-08-28T19:11:43Z</time>
  <course>80.37</course>
  <speed>0.03</speed>
  <fix>3d</fix>
</trkpt>
<trkpt lat="40.0729338" lon="-105.230777">
  <ele>1595.55</ele>
  <time>2026-08-28T19:11:43Z</time>
  <course>325.78</course>
  <speed>0.01</speed>
  <fix>3d</fix>
</trkpt>
<trkpt lat="40.0729338" lon="-105.2307768">
  <ele>1595.47</ele>
  <time>2026-08-28T19:11:43Z</time>
  <course>80.02</course>
  <speed>0.03</speed>
  <fix>3d</fix>
</trkpt>
<trkpt lat="40.0729338" lon="-105.230777">
  <ele>1595.55</ele>
  <time>2026-08-28T19:11:43Z</time>
  <course>324.25</course>
  <speed>0.0</speed>
  <fix>3d</fix>
</trkpt>
<trkpt lat="40.0729338" lon="-105.2307767">
  <ele>1595.48</ele>
  <time>2026-08-28T19:11:43Z</time>
  <course>81.11</course>
  <speed>0.03</speed>
  <fix>3d</fix>
</trkpt>
<trkpt lat="40.0729338" lon="-105.2307769">
  <ele>1595.56</ele>
  <time>2026-08-28T19:11:43Z</time>
  <course>322.87</course>
  <speed>0.0</speed>
  <fix>3d</fix>
</trkpt>
<trkpt lat="40.0729338" lon="-105.2307766">
  <ele>1595.48</ele>
  <time>2026-08-28T19:11:43Z</time>
  <course>83.56</course>
  <speed>0.02</speed>
  <fix>3d</fix>
</trkpt>
<trkpt lat="40.0729338" lon="-105.2307768">
  <ele>1595.57</ele>
  <time>2026-08-28T19:11:43Z</time>
  <course>321.78</course>
  <speed>0.0</speed>
  <fix>3d</fix>
</trkpt>
<trkpt lat="40.0729338" lon="-105.2307766">
  <ele>1595.49</ele>
  <time>2026-08-28T19:11:43Z</time>
  <course>87.48</course>
  <speed>0.02</speed>
  <fix>3d</fix>
</trkpt>
<trkpt lat="40.0729338" lon="-105.2307768">
  <ele>1595.58</ele>
  <time>2026-08-28T19:11:43Z</time>
  <course>321.09</course>
  <speed>0.0</speed>
  <fix>3d</fix>
</trkpt>
<trkpt lat="40.0729338" lon="-105.2307765">
  <ele>1595.49</ele>
  <time>2026-08-28T19:11:43Z</time>
  <course>92.05</course>
  <speed>0.02</speed>
  <fix>3d</fix>
</trkpt>
<trkpt lat="40.0729338" lon="-105.2307767">
  <ele>1595.58</ele>
  <time>2026-08-28T19:11:43Z</time>
  <course>320.85</course>
  <speed>0.0</speed>
  <fix>3d</fix>
</trkpt>
<trkpt lat="40.0729338" lon="-105.2307764">
  <ele>1595.49</ele>
  <time>2026-08-28T19:11:43Z</time>
  <course>96.87</course>
  <speed>0.02</speed>
  <fix>3d</fix>
</trkpt>
<trkpt lat="40.0729338" lon="-105.2307767">
  <ele>1595.58</ele>
  <time>2026-08-28T19:11:43Z</time>
  <course>321.06</course>
  <speed>0.0</speed>
  <fix>3d</fix>
</trkpt>
<trkpt lat="40.0729338" lon="-105.2307764">
  <ele>1595.5</ele>
  <time>2026-08-28T19:11:43Z</time>
  <course>101.42</course>
  <speed>0.02</speed>
  <fix>3d</fix>
</trkpt>
<trkpt lat="40.0729338" lon="-105.2307766">
  <ele>1595.58</ele>
  <time>2026-08-28T19:11:43Z</time>
  <course>321.77</course>
  <speed>0.0</speed>
  <fix>3d</fix>
</trkpt>
<trkpt lat="40.0729338" lon="-105.2307764">
  <ele>1595.5</ele>
  <time>2026-08-28T19:11:43Z</time>
  <course>105.69</course>
  <speed>0.02</speed>
  <fix>3d</fix>
</trkpt>
<trkpt lat="40.0729338" lon="-105.2307766">
  <ele>1595.59</ele>
  <time>2026-08-28T19:11:43Z</time>
  <course>322.85</course>
  <speed>0.0</speed>
  <fix>3d</fix>
</trkpt>
<trkpt lat="40.0729338" lon="-105.2307763">
  <ele>1595.49</ele>
  <time>2026-08-28T19:11:43Z</time>
  <course>109.33</course>
  <speed>0.02</speed>
  <fix>3d</fix>
</trkpt>
<trkpt lat="40.0729338" lon="-105.2307765">
  <ele>1595.59</ele>
  <time>2026-08-28T19:11:43Z</time>
  <course>324.23</course>
  <speed>0.0</speed>
  <fix>3d</fix>
</trkpt>
<trkpt lat="40.0729338" lon="-105.2307763">
  <ele>1595.49</ele>
  <time>2026-08-28T19:11:43Z</time>
  <course>110.39</course>
  <speed>0.02</speed>
  <fix>3d</fix>
</trkpt>
<trkpt lat="40.0729338" lon="-105.2307765">
  <ele>1595.59</ele>
  <time>2026-08-28T19:11:43Z</time>
  <course>325.74</course>
  <speed>0.0</speed>
  <fix>3d</fix>
</trkpt>
<trkpt lat="40.0729338" lon="-105.2307762">
  <ele>1595.49</ele>
  <time>2026-08-28T19:11:43Z</time>
  <course>108.83</course>
  <speed>0.02</speed>
  <fix>3d</fix>
</trkpt>
<trkpt lat="40.0729338" lon="-105.2307764">
  <ele>1595.59</ele>
  <time>2026-08-28T19:11:43Z</time>
  <course>327.28</course>
  <speed>0.0</speed>
  <fix>3d</fix>
</trkpt>
<trkpt lat="40.0729338" lon="-105.2307761">
  <ele>1595.49</ele>
  <time>2026-08-28T19:11:43Z</time>
  <course>106.25</course>
  <speed>0.02</speed>
  <fix>3d</fix>
</trkpt>
<trkpt lat="40.0729338" lon="-105.2307763">
  <ele>1595.59</ele>
  <time>2026-08-28T19:11:43Z</time>
  <course>328.64</course>
  <speed>0.0</speed>
  <fix>3d</fix>
</trkpt>
<trkpt lat="40.0729338" lon="-105.2307761">
  <ele>1595.48</ele>
  <time>2026-08-28T19:11:43Z</time>
  <course>102.95</course>
  <speed>0.02</speed>
  <fix>3d</fix>
</trkpt>
<trkpt lat="40.0729338" lon="-105.2307763">
  <ele>1595.58</ele>
  <time>2026-08-28T19:11:43Z</time>
  <course>329.74</course>
  <speed>0.0</speed>
  <fix>3d</fix>
</trkpt>
<trkpt lat="40.0729338" lon="-105.230776">
  <ele>1595.48</ele>
  <time>2026-08-28T19:11:43Z</time>
  <course>99.01</course>
  <speed>0.02</speed>
  <fix>3d</fix>
</trkpt>
<trkpt lat="40.0729338" lon="-105.2307762">
  <ele>1595.58</ele>
  <time>2026-08-28T19:11:43Z</time>
  <course>330.46</course>
  <speed>0.0</speed>
  <fix>3d</fix>
</trkpt>
<trkpt lat="40.0729338" lon="-105.2307759">
  <ele>1595.47</ele>
  <time>2026-08-28T19:11:43Z</time>
  <course>94.87</course>
  <speed>0.03</speed>
  <fix>3d</fix>
</trkpt>
<trkpt lat="40.0729338" lon="-105.2307761">
  <ele>1595.58</ele>
  <time>2026-08-28T19:11:43Z</time>
  <course>330.72</course>
  <speed>0.0</speed>
  <fix>3d</fix>
</trkpt>
<trkpt lat="40.0729338" lon="-105.2307759">
  <ele>1595.47</ele>
  <time>2026-08-28T19:11:43Z</time>
  <course>91.38</course>
  <speed>0.03</speed>
  <fix>3d</fix>
</trkpt>
<trkpt lat="40.0729338" lon="-105.230776">
  <ele>1595.57</ele>
  <time>2026-08-28T19:11:43Z</time>
  <course>330.49</course>
  <speed>0.0</speed>
  <fix>3d</fix>
</trkpt>
<trkpt lat="40.0729338" lon="-105.2307758">
  <ele>1595.47</ele>
  <time>2026-08-28T19:11:43Z</time>
  <course>88.36</course>
  <speed>0.03</speed>
  <fix>3d</fix>
</trkpt>
<trkpt lat="40.0729338" lon="-105.230776">
  <ele>1595.57</ele>
  <time>2026-08-28T19:11:43Z</time>
  <course>329.81</course>
  <speed>0.01</speed>
  <fix>3d</fix>
</trkpt>
<trkpt lat="40.0729338" lon="-105.2307757">
  <ele>1595.46</ele>
  <time>2026-08-28T19:11:43Z</time>
  <course>85.2</course>
  <speed>0.03</speed>
  <fix>3d</fix>
</trkpt>
<trkpt lat="40.0729338" lon="-105.2307759">
  <ele>1595.57</ele>
  <time>2026-08-28T19:11:43Z</time>
  <course>328.69</course>
  <speed>0.01414213562373095</speed>
  <fix>3d</fix>
</trkpt>
<trkpt lat="40.0729338" lon="-105.2307756">
  <ele>1595.46</ele>
  <time>2026-08-28T19:11:43Z</time>
  <course>82.98</course>
  <speed>0.03</speed>
  <fix>3d</fix>
</trkpt>
<trkpt lat="40.0729338" lon="-105.2307758">
  <ele>1595.57</ele>
  <time>2026-08-28T19:11:43Z</time>
  <course>327.33</course>
  <speed>0.01</speed>
  <fix>3d</fix>
</trkpt>
<trkpt lat="40.0729338" lon="-105.2307755">
  <ele>1595.46</ele>
  <time>2026-08-28T19:11:43Z</time>
  <course>82.35</course>
  <speed>0.03</speed>
  <fix>3d</fix>
</trkpt>
<trkpt lat="40.0729338" lon="-105.2307757">
  <ele>1595.57</ele>
  <time>2026-08-28T19:11:43Z</time>
  <course>325.84</course>
  <speed>0.01</speed>
  <fix>3d</fix>
</trkpt>
<trkpt lat="40.0729338" lon="-105.2307754">
  <ele>1595.46</ele>
  <time>2026-08-28T19:11:43Z</time>
  <course>82.43</course>
  <speed>0.03</speed>
  <fix>3d</fix>
</trkpt>
<trkpt lat="40.0729338" lon="-105.2307756">
  <ele>1595.57</ele>
  <time>2026-08-28T19:11:43Z</time>
  <course>324.33</course>
  <speed>0.0</speed>
  <fix>3d</fix>
</trkpt>
<trkpt lat="40.0729338" lon="-105.2307754">
  <ele>1595.46</ele>
  <time>2026-08-28T19:11:43Z</time>
  <course>82.72</course>
  <speed>0.03</speed>
  <fix>3d</fix>
</trkpt>
<trkpt lat="40.0729338" lon="-105.2307756">
  <ele>1595.56</ele>
  <time>2026-08-28T19:11:43Z</time>
  <course>322.95</course>
  <speed>0.0</speed>
  <fix>3d</fix>
</trkpt>
<trkpt lat="40.0729338" lon="-105.2307753">
  <ele>1595.46</ele>
  <time>2026-08-28T19:11:43Z</time>
  <course>83.6</course>
  <speed>0.03</speed>
  <fix>3d</fix>
</trkpt>
<trkpt lat="40.0729338" lon="-105.2307755">
  <ele>1595.56</ele>
  <time>2026-08-28T19:11:43Z</time>
  <course>321.8</course>
  <speed>0.0</speed>
  <fix>3d</fix>
</trkpt>
<trkpt lat="40.0729338" lon="-105.2307752">
  <ele>1595.46</ele>
  <time>2026-08-28T19:11:43Z</time>
  <course>85.22</course>
  <speed>0.02</speed>
  <fix>3d</fix>
</trkpt>
<trkpt lat="40.0729338" lon="-105.2307754">
  <ele>1595.56</ele>
  <time>2026-08-28T19:11:43Z</time>
  <course>321.09</course>
  <speed>0.0</speed>
  <fix>3d</fix>
</trkpt>
<trkpt lat="40.0729338" lon="-105.2307752">
  <ele>1595.46</ele>
  <time>2026-08-28T19:11:43Z</time>
  <course>88.16</course>
  <speed>0.02</speed>
  <fix>3d</fix>
</trkpt>
<trkpt lat="40.0729338" lon="-105.2307754">
  <ele>1595.56</ele>
  <time>2026-08-28T19:11:43Z</time>
  <course>320.83</course>
  <speed>0.0</speed>
  <fix>3d</fix>
</trkpt>
<trkpt lat="40.0729338" lon="-105.2307751">
  <ele>1595.46</ele>
  <time>2026-08-28T19:11:43Z</time>
  <course>92.15</course>
  <speed>0.02</speed>
  <fix>3d</fix>
</trkpt>
<trkpt lat="40.0729338" lon="-105.2307753">
  <ele>1595.56</ele>
  <time>2026-08-28T19:11:43Z</time>
  <course>321.04</course>
  <speed>0.0</speed>
  <fix>3d</fix>
</trkpt>
<trkpt lat="40.0729338" lon="-105.230775">
  <ele>1595.46</ele>
  <time>2026-08-28T19:11:43Z</time>
  <course>96.13</course>
  <speed>0.02</speed>
  <fix>3d</fix>
</trkpt>
<trkpt lat="40.0729338" lon="-105.2307753">
  <ele>1595.56</ele>
  <time>2026-08-28T19:11:43Z</time>
  <course>321.7</course>
  <speed>0.0</speed>
  <fix>3d</fix>
</trkpt>
<trkpt lat="40.0729338" lon="-105.230775">
  <ele>1595.46</ele>
  <time>2026-08-28T19:11:43Z</time>
  <course>100.17</course>
  <speed>0.02</speed>
  <fix>3d</fix>
</trkpt>
<trkpt lat="40.0729338" lon="-105.2307752">
  <ele>1595.56</ele>
  <time>2026-08-28T19:11:43Z</time>
  <course>322.8</course>
  <speed>0.0</speed>
  <fix>3d</fix>
</trkpt>
<trkpt lat="40.0729338" lon="-105.2307749">
  <ele>1595.46</ele>
  <time>2026-08-28T19:11:43Z</time>
  <course>103.5</course>
  <speed>0.02</speed>
  <fix>3d</fix>
</trkpt>
<trkpt lat="40.0729338" lon="-105.2307752">
  <ele>1595.56</ele>
  <time>2026-08-28T19:11:43Z</time>
  <course>324.14</course>
  <speed>0.0</speed>
  <fix>3d</fix>
</trkpt>
<trkpt lat="40.0729338" lon="-105.2307749">
  <ele>1595.46</ele>
  <time>2026-08-28T19:11:43Z</time>
  <course>105.21</course>
  <speed>0.02</speed>
  <fix>3d</fix>
</trkpt>
<trkpt lat="40.0729338" lon="-105.2307751">
  <ele>1595.55</ele>
  <time>2026-08-28T19:11:43Z</time>
  <course>325.66</course>
  <speed>0.0</speed>
  <fix>3d</fix>
</trkpt>
<trkpt lat="40.0729338" lon="-105.2307748">
  <ele>1595.46</ele>
  <time>2026-08-28T19:11:43Z</time>
  <course>106.34</course>
  <speed>0.02</speed>
  <fix>3d</fix>
</trkpt>
<trkpt lat="40.0729338" lon="-105.230775">
  <ele>1595.55</ele>
  <time>2026-08-28T19:11:43Z</time>
  <course>327.18</course>
  <speed>0.0</speed>
  <fix>3d</fix>
</trkpt>
<trkpt lat="40.0729338" lon="-105.2307747">
  <ele>1595.47</ele>
  <time>2026-08-28T19:11:43Z</time>
  <course>105.7</course>
  <speed>0.02</speed>
  <fix>3d</fix>
</trkpt>
<trkpt lat="40.0729338" lon="-105.230775">
  <ele>1595.55</ele>
  <time>2026-08-28T19:11:43Z</time>
  <course>328.51</course>
  <speed>0.0</speed>
  <fix>3d</fix>
</trkpt>
<trkpt lat="40.0729338" lon="-105.2307747">
  <ele>1595.47</ele>
  <time>2026-08-28T19:11:43Z</time>
  <course>102.67</course>
  <speed>0.02</speed>
  <fix>3d</fix>
</trkpt>
<trkpt lat="40.0729338" lon="-105.2307749">
  <ele>1595.55</ele>
  <time>2026-08-28T19:11:43Z</time>
  <course>329.65</course>
  <speed>0.0</speed>
  <fix>3d</fix>
</trkpt>
<trkpt lat="40.0729338" lon="-105.2307747">
  <ele>1595.47</ele>
  <time>2026-08-28T19:11:43Z</time>
  <course>99.41</course>
  <speed>0.02</speed>
  <fix>3d</fix>
</trkpt>
<trkpt lat="40.0729338" lon="-105.2307749">
  <ele>1595.54</ele>
  <time>2026-08-28T19:11:43Z</time>
  <course>330.38</course>
  <speed>0.0</speed>
  <fix>3d</fix>
</trkpt>
<trkpt lat="40.0729338" lon="-105.2307746">
  <ele>1595.48</ele>
  <time>2026-08-28T19:11:43Z</time>
  <course>96.19</course>
  <speed>0.02</speed>
  <fix>3d</fix>
</trkpt>
<trkpt lat="40.0729338" lon="-105.2307748">
  <ele>1595.55</ele>
  <time>2026-08-28T19:11:43Z</time>
  <course>330.63</course>
  <speed>0.0</speed>
  <fix>3d</fix>
</trkpt>
<trkpt lat="40.0729338" lon="-105.2307745">
  <ele>1595.48</ele>
  <time>2026-08-28T19:11:43Z</time>
  <course>93.25</course>
  <speed>0.02</speed>
  <fix>3d</fix>
</trkpt>
<trkpt lat="40.0729338" lon="-105.2307747">
  <ele>1595.55</ele>
  <time>2026-08-28T19:11:43Z</time>
  <course>330.39</course>
  <speed>0.0</speed>
  <fix>3d</fix>
</trkpt>
<trkpt lat="40.0729338" lon="-105.2307745">
  <ele>1595.49</ele>
  <time>2026-08-28T19:11:43Z</time>
  <course>90.48</course>
  <speed>0.03</speed>
  <fix>3d</fix>
</trkpt>
<trkpt lat="40.0729338" lon="-105.2307746">
  <ele>1595.55</ele>
  <time>2026-08-28T19:11:43Z</time>
  <course>329.74</course>
  <speed>0.0</speed>
  <fix>3d</fix>
</trkpt>
<trkpt lat="40.0729338" lon="-105.2307744">
  <ele>1595.49</ele>
  <time>2026-08-28T19:11:43Z</time>
  <course>87.47</course>
  <speed>0.03</speed>
  <fix>3d</fix>
</trkpt>
<trkpt lat="40.0729338" lon="-105.2307746">
  <ele>1595.56</ele>
  <time>2026-08-28T19:11:43Z</time>
  <course>328.68</course>
  <speed>0.01</speed>
  <fix>3d</fix>
</trkpt>
<trkpt lat="40.0729338" lon="-105.2307743">
  <ele>1595.5</ele>
  <time>2026-08-28T19:11:43Z</time>
  <course>84.36</course>
  <speed>0.03</speed>
  <fix>3d</fix>
</trkpt>
<trkpt lat="40.0729338" lon="-105.2307745">
  <ele>1595.57</ele>
  <time>2026-08-28T19:11:43Z</time>
  <course>327.31</course>
  <speed>0.01</speed>
  <fix>3d</fix>
</trkpt>
<trkpt lat="40.0729338" lon="-105.2307742">
  <ele>1595.51</ele>
  <time>2026-08-28T19:11:43Z</time>
  <course>81.56</course>
  <speed>0.03</speed>
  <fix>3d</fix>
</trkpt>
<trkpt lat="40.0729338" lon="-105.2307744">
  <ele>1595.57</ele>
  <time>2026-08-28T19:11:43Z</time>
  <course>325.8</course>
  <speed>0.01</speed>
  <fix>3d</fix>
</trkpt>
<trkpt lat="40.0729338" lon="-105.2307742">
  <ele>1595.51</ele>
  <time>2026-08-28T19:11:43Z</time>
  <course>80.07</course>
  <speed>0.03</speed>
  <fix>3d</fix>
</trkpt>
<trkpt lat="40.0729338" lon="-105.2307743">
  <ele>1595.58</ele>
  <time>2026-08-28T19:11:44Z</time>
  <course>324.32</course>
  <speed>0.0</speed>
  <fix>3d</fix>
</trkpt>
<trkpt lat="40.0729338" lon="-105.2307741">
  <ele>1595.51</ele>
  <time>2026-08-28T19:11:44Z</time>
  <course>80.25</course>
  <speed>0.03</speed>
  <fix>3d</fix>
</trkpt>
<trkpt lat="40.0729338" lon="-105.2307743">
  <ele>1595.58</ele>
  <time>2026-08-28T19:11:44Z</time>
  <course>322.93</course>
  <speed>0.0</speed>
  <fix>3d</fix>
</trkpt>
<trkpt lat="40.0729338" lon="-105.230774">
  <ele>1595.52</ele>
  <time>2026-08-28T19:11:44Z</time>
  <course>81.59</course>
  <speed>0.03</speed>
  <fix>3d</fix>
</trkpt>
<trkpt lat="40.0729338" lon="-105.2307742">
  <ele>1595.57</ele>
  <time>2026-08-28T19:11:44Z</time>
  <course>321.82</course>
  <speed>0.0</speed>
  <fix>3d</fix>
</trkpt>
<trkpt lat="40.0729338" lon="-105.2307739">
  <ele>1595.52</ele>
  <time>2026-08-28T19:11:44Z</time>
  <course>84.08</course>
  <speed>0.02</speed>
  <fix>3d</fix>
</trkpt>
<trkpt lat="40.0729338" lon="-105.2307741">
  <ele>1595.57</ele>
  <time>2026-08-28T19:11:44Z</time>
  <course>321.1</course>
  <speed>0.0</speed>
  <fix>3d</fix>
</trkpt>
<trkpt lat="40.0729338" lon="-105.2307738">
  <ele>1595.52</ele>
  <time>2026-08-28T19:11:44Z</time>
  <course>87.55</course>
  <speed>0.02</speed>
  <fix>3d</fix>
</trkpt>
<trkpt lat="40.0729338" lon="-105.2307741">
  <ele>1595.57</ele>
  <time>2026-08-28T19:11:44Z</time>
  <course>320.84</course>
  <speed>0.0</speed>
  <fix>3d</fix>
</trkpt>
<trkpt lat="40.0729338" lon="-105.2307738">
  <ele>1595.52</ele>
  <time>2026-08-28T19:11:44Z</time>
  <course>91.93</course>
  <speed>0.02</speed>
  <fix>3d</fix>
</trkpt>
<trkpt lat="40.0729338" lon="-105.230774">
  <ele>1595.57</ele>
  <time>2026-08-28T19:11:44Z</time>
  <course>320.86</course>
  <speed>0.0</speed>
  <fix>3d</fix>
</trkpt>
<trkpt lat="40.0729338" lon="-105.2307738">
  <ele>1595.52</ele>
  <time>2026-08-28T19:11:44Z</time>
  <course>95.86</course>
  <speed>0.02</speed>
  <fix>3d</fix>
</trkpt>
<trkpt lat="40.0729338" lon="-105.230774">
  <ele>1595.58</ele>
  <time>2026-08-28T19:11:44Z</time>
  <course>320.88</course>
  <speed>0.0</speed>
  <fix>3d</fix>
</trkpt>
<trkpt lat="40.0729338" lon="-105.2307737">
  <ele>1595.52</ele>
  <time>2026-08-28T19:11:44Z</time>
  <course>96.2</course>
  <speed>0.02</speed>
  <fix>3d</fix>
</trkpt>
<trkpt lat="40.0729338" lon="-105.2307739">
  <ele>1595.58</ele>
  <time>2026-08-28T19:11:44Z</time>
  <course>320.88</course>
  <speed>0.0</speed>
  <fix>3d</fix>
</trkpt>
<trkpt lat="40.0729338" lon="-105.2307736">
  <ele>1595.52</ele>
  <time>2026-08-28T19:11:44Z</time>
  <course>94.62</course>
  <speed>0.02</speed>
  <fix>3d</fix>
</trkpt>
<trkpt lat="40.0729338" lon="-105.2307738">
  <ele>1595.59</ele>
  <time>2026-08-28T19:11:44Z</time>
  <course>320.9</course>
  <speed>0.0</speed>
  <fix>3d</fix>
</trkpt>
<trkpt lat="40.0729338" lon="-105.2307735">
  <ele>1595.52</ele>
  <time>2026-08-28T19:11:44Z</time>
  <course>93.37</course>
  <speed>0.02</speed>
  <fix>3d</fix>
</trkpt>
<trkpt lat="40.0729338" lon="-105.2307737">
  <ele>1595.59</ele>
  <time>2026-08-28T19:11:44Z</time>
  <course>320.89</course>
  <speed>0.0</speed>
  <fix>3d</fix>
</trkpt>
<trkpt lat="40.0729338" lon="-105.2307735">
  <ele>1595.51</ele>
  <time>2026-08-28T19:11:44Z</time>
  <course>91.09</course>
  <speed>0.02</speed>
  <fix>3d</fix>
</trkpt>
<trkpt lat="40.0729338" lon="-105.2307737">
  <ele>1595.59</ele>
  <time>2026-08-28T19:11:44Z</time>
  <course>320.92</course>
  <speed>0.0</speed>
  <fix>3d</fix>
</trkpt>
<trkpt lat="40.0729338" lon="-105.2307734">
  <ele>1595.51</ele>
  <time>2026-08-28T19:11:44Z</time>
  <course>88.73</course>
  <speed>0.02</speed>
  <fix>3d</fix>
</trkpt>
<trkpt lat="40.0729338" lon="-105.2307736">
  <ele>1595.59</ele>
  <time>2026-08-28T19:11:44Z</time>
  <course>320.93</course>
  <speed>0.0</speed>
  <fix>3d</fix>
</trkpt>
<trkpt lat="40.0729338" lon="-105.2307733">
  <ele>1595.51</ele>
  <time>2026-08-28T19:11:44Z</time>
  <course>86.93</course>
  <speed>0.02</speed>
  <fix>3d</fix>
</trkpt>
<trkpt lat="40.0729338" lon="-105.2307735">
  <ele>1595.58</ele>
  <time>2026-08-28T19:11:44Z</time>
  <course>320.91</course>
  <speed>0.0</speed>
  <fix>3d</fix>
</trkpt>
<trkpt lat="40.0729338" lon="-105.2307733">
  <ele>1595.5</ele>
  <time>2026-08-28T19:11:44Z</time>
  <course>84.63</course>
  <speed>0.03</speed>
  <fix>3d</fix>
</trkpt>
<trkpt lat="40.0729338" lon="-105.2307735">
  <ele>1595.58</ele>
  <time>2026-08-28T19:11:44Z</time>
  <course>320.89</course>
  <speed>0.0</speed>
  <fix>3d</fix>
</trkpt>
<trkpt lat="40.0729338" lon="-105.2307732">
  <ele>1595.5</ele>
  <time>2026-08-28T19:11:44Z</time>
  <course>82.63</course>
  <speed>0.03</speed>
  <fix>3d</fix>
</trkpt>
<trkpt lat="40.0729338" lon="-105.2307734">
  <ele>1595.58</ele>
  <time>2026-08-28T19:11:44Z</time>
  <course>320.89</course>
  <speed>0.0</speed>
  <fix>3d</fix>
</trkpt>
<trkpt lat="40.0729338" lon="-105.2307731">
  <ele>1595.5</ele>
  <time>2026-08-28T19:11:44Z</time>
  <course>80.97</course>
  <speed>0.03</speed>
  <fix>3d</fix>
</trkpt>
<trkpt lat="40.0729338" lon="-105.2307733">
  <ele>1595.58</ele>
  <time>2026-08-28T19:11:44Z</time>
  <course>320.89</course>
  <speed>0.0</speed>
  <fix>3d</fix>
</trkpt>
<trkpt lat="40.0729338" lon="-105.230773">
  <ele>1595.49</ele>
  <time>2026-08-28T19:11:44Z</time>
  <course>79.39</course>
  <speed>0.03</speed>
  <fix>3d</fix>
</trkpt>
<trkpt lat="40.0729338" lon="-105.2307733">
  <ele>1595.58</ele>
  <time>2026-08-28T19:11:44Z</time>
  <course>320.89</course>
  <speed>0.0</speed>
  <fix>3d</fix>
</trkpt>
<trkpt lat="40.0729338" lon="-105.230773">
  <ele>1595.49</ele>
  <time>2026-08-28T19:11:44Z</time>
  <course>78.07</course>
  <speed>0.03</speed>
  <fix>3d</fix>
</trkpt>
<trkpt lat="40.0729338" lon="-105.2307732">
  <ele>1595.58</ele>
  <time>2026-08-28T19:11:44Z</time>
  <course>320.89</course>
  <speed>0.0</speed>
  <fix>3d</fix>
</trkpt>
<trkpt lat="40.0729338" lon="-105.2307729">
  <ele>1595.49</ele>
  <time>2026-08-28T19:11:44Z</time>
  <course>77.1</course>
  <speed>0.03</speed>
  <fix>3d</fix>
</trkpt>
<trkpt lat="40.0729338" lon="-105.2307731">
  <ele>1595.58</ele>
  <time>2026-08-28T19:11:44Z</time>
  <course>320.91</course>
  <speed>0.0</speed>
  <fix>3d</fix>
</trkpt>
<trkpt lat="40.0729338" lon="-105.2307728">
  <ele>1595.49</ele>
  <time>2026-08-28T19:11:44Z</time>
  <course>76.18</course>
  <speed>0.03</speed>
  <fix>3d</fix>
</trkpt>
<trkpt lat="40.0729338" lon="-105.230773">
  <ele>1595.58</ele>
  <time>2026-08-28T19:11:44Z</time>
  <course>320.9</course>
  <speed>0.0</speed>
  <fix>3d</fix>
</trkpt>
<trkpt lat="40.0729338" lon="-105.2307728">
  <ele>1595.48</ele>
  <time>2026-08-28T19:11:44Z</time>
  <course>75.15</course>
  <speed>0.03</speed>
  <fix>3d</fix>
</trkpt>
<trkpt lat="40.0729338" lon="-105.2307729">
  <ele>1595.58</ele>
  <time>2026-08-28T19:11:44Z</time>
  <course>320.91</course>
  <speed>0.0</speed>
  <fix>3d</fix>
</trkpt>
<trkpt lat="40.0729338" lon="-105.2307727">
  <ele>1595.48</ele>
  <time>2026-08-28T19:11:44Z</time>
  <course>74.32</course>
  <speed>0.03</speed>
  <fix>3d</fix>
</trkpt>
<trkpt lat="40.0729338" lon="-105.2307729">
  <ele>1595.58</ele>
  <time>2026-08-28T19:11:44Z</time>
  <course>320.86</course>
  <speed>0.01</speed>
  <fix>3d</fix>
</trkpt>
<trkpt lat="40.0729338" lon="-105.2307726">
  <ele>1595.48</ele>
  <time>2026-08-28T19:11:44Z</time>
  <course>73.5</course>
  <speed>0.03</speed>
  <fix>3d</fix>
</trkpt>
<trkpt lat="40.0729339" lon="-105.2307728">
  <ele>1595.57</ele>
  <time>2026-08-28T19:11:44Z</time>
  <course>320.0</course>
  <speed>0.01</speed>
  <fix>3d</fix>
</trkpt>
<trkpt lat="40.0729338" lon="-105.2307725">
  <ele>1595.47</ele>
  <time>2026-08-28T19:11:44Z</time>
  <course>71.51</course>
  <speed>0.03</speed>
  <fix>3d</fix>
</trkpt>
<trkpt lat="40.0729339" lon="-105.2307727">
  <ele>1595.57</ele>
  <time>2026-08-28T19:11:44Z</time>
  <course>318.63</course>
  <speed>0.01</speed>
  <fix>3d</fix>
</trkpt>
<trkpt lat="40.0729338" lon="-105.2307725">
  <ele>1595.47</ele>
  <time>2026-08-28T19:11:44Z</time>
  <course>69.69</course>
  <speed>0.03</speed>
  <fix>3d</fix>
</trkpt>
<trkpt lat="40.0729339" lon="-105.2307726">
  <ele>1595.56</ele>
  <time>2026-08-28T19:11:44Z</time>
  <course>317.37</course>
  <speed>0.01</speed>
  <fix>3d</fix>
</trkpt>
<trkpt lat="40.0729338" lon="-105.2307724">
  <ele>1595.47</ele>
  <time>2026-08-28T19:11:44Z</time>
  <course>69.47</course>
  <speed>0.03</speed>
  <fix>3d</fix>
</trkpt>
<trkpt lat="40.0729339" lon="-105.2307726">
  <ele>1595.57</ele>
  <time>2026-08-28T19:11:44Z</time>
  <course>316.48</course>
  <speed>0.0</speed>
  <fix>3d</fix>
</trkpt>
<trkpt lat="40.0729338" lon="-105.2307723">
  <ele>1595.47</ele>
  <time>2026-08-28T19:11:44Z</time>
  <course>70.61</course>
  <speed>0.03</speed>
  <fix>3d</fix>
</trkpt>
<trkpt lat="40.0729339" lon="-105.2307725">
  <ele>1595.57</ele>
  <time>2026-08-28T19:11:44Z</time>
  <course>316.0</course>
  <speed>0.0</speed>
  <fix>3d</fix>
</trkpt>
<trkpt lat="40.0729338" lon="-105.2307722">
  <ele>1595.47</ele>
  <time>2026-08-28T19:11:44Z</time>
  <course>72.73</course>
  <speed>0.03</speed>
  <fix>3d</fix>
</trkpt>
<trkpt lat="40.0729339" lon="-105.2307724">
  <ele>1595.57</ele>
  <time>2026-08-28T19:11:44Z</time>
  <course>316.0</course>
  <speed>0.0</speed>
  <fix>3d</fix>
</trkpt>
<trkpt lat="40.0729339" lon="-105.2307721">
  <ele>1595.47</ele>
  <time>2026-08-28T19:11:44Z</time>
  <course>75.9</course>
  <speed>0.03</speed>
  <fix>3d</fix>
</trkpt>
<trkpt lat="40.0729339" lon="-105.2307724">
  <ele>1595.57</ele>
  <time>2026-08-28T19:11:44Z</time>
  <course>316.47</course>
  <speed>0.0</speed>
  <fix>3d</fix>
</trkpt>
<trkpt lat="40.0729339" lon="-105.2307721">
  <ele>1595.47</ele>
  <time>2026-08-28T19:11:44Z</time>
  <course>79.71</course>
  <speed>0.02</speed>
  <fix>3d</fix>
</trkpt>
<trkpt lat="40.0729339" lon="-105.2307723">
  <ele>1595.56</ele>
  <time>2026-08-28T19:11:44Z</time>
  <course>317.42</course>
  <speed>0.0</speed>
  <fix>3d</fix>
</trkpt>
<trkpt lat="40.0729339" lon="-105.230772">
  <ele>1595.47</ele>
  <time>2026-08-28T19:11:44Z</time>
  <course>83.18</course>
  <speed>0.02</speed>
  <fix>3d</fix>
</trkpt>
<trkpt lat="40.0729339" lon="-105.2307722">
  <ele>1595.56</ele>
  <time>2026-08-28T19:11:44Z</time>
  <course>318.64</course>
  <speed>0.0</speed>
  <fix>3d</fix>
</trkpt>
<trkpt lat="40.0729339" lon="-105.230772">
  <ele>1595.47</ele>
  <time>2026-08-28T19:11:44Z</time>
  <course>86.32</course>
  <speed>0.02</speed>
  <fix>3d</fix>
</trkpt>
<trkpt lat="40.0729339" lon="-105.2307722">
  <ele>1595.56</ele>
  <time>2026-08-28T19:11:44Z</time>
  <course>320.06</course>
  <speed>0.0</speed>
  <fix>3d</fix>
</trkpt>
<trkpt lat="40.0729339" lon="-105.2307719">
  <ele>1595.47</ele>
  <time>2026-08-28T19:11:44Z</time>
  <course>89.34</course>
  <speed>0.02</speed>
  <fix>3d</fix>
</trkpt>
<trkpt lat="40.0729339" lon="-105.2307721">
  <ele>1595.56</ele>
  <time>2026-08-28T19:11:44Z</time>
  <course>321.63</course>
  <speed>0.0</speed>
  <fix>3d</fix>
</trkpt>
<trkpt lat="40.0729339" lon="-105.2307718">
  <ele>1595.47</ele>
  <time>2026-08-28T19:11:44Z</time>
  <course>92.24</course>
  <speed>0.02</speed>
  <fix>3d</fix>
</trkpt>
<trkpt lat="40.0729339" lon="-105.2307721">
  <ele>1595.56</ele>
  <time>2026-08-28T19:11:44Z</time>
  <course>323.12</course>
  <speed>0.0</speed>
  <fix>3d</fix>
</trkpt>
<trkpt lat="40.0729339" lon="-105.2307718">
  <ele>1595.47</ele>
  <time>2026-08-28T19:11:44Z</time>
  <course>93.55</course>
  <speed>0.02</speed>
  <fix>3d</fix>
</trkpt>
<trkpt lat="40.0729339" lon="-105.230772">
  <ele>1595.56</ele>
  <time>2026-08-28T19:11:44Z</time>
  <course>324.36</course>
  <speed>0.0</speed>
  <fix>3d</fix>
</trkpt>
<trkpt lat="40.0729339" lon="-105.2307717">
  <ele>1595.47</ele>
  <time>2026-08-28T19:11:44Z</time>
  <course>92.37</course>
  <speed>0.02</speed>
  <fix>3d</fix>
</trkpt>
<trkpt lat="40.0729339" lon="-105.2307719">
  <ele>1595.56</ele>
  <time>2026-08-28T19:11:44Z</time>
  <course>325.27</course>
  <speed>0.0</speed>
  <fix>3d</fix>
</trkpt>
<trkpt lat="40.0729339" lon="-105.2307716">
  <ele>1595.47</ele>
  <time>2026-08-28T19:11:44Z</time>
  <course>89.68</course>
  <speed>0.02</speed>
  <fix>3d</fix>
</trkpt>
<trkpt lat="40.0729339" lon="-105.2307719">
  <ele>1595.56</ele>
  <time>2026-08-28T19:11:44Z</time>
  <course>325.75</course>
  <speed>0.0</speed>
  <fix>3d</fix>
</trkpt>
<trkpt lat="40.0729339" lon="-105.2307716">
  <ele>1595.47</ele>
  <time>2026-08-28T19:11:44Z</time>
  <course>85.72</course>
  <speed>0.02</speed>
  <fix>3d</fix>
</trkpt>
<trkpt lat="40.0729339" lon="-105.2307718">
  <ele>1595.56</ele>
  <time>2026-08-28T19:11:44Z</time>
  <course>325.72</course>
  <speed>0.0</speed>
  <fix>3d</fix>
</trkpt>
<trkpt lat="40.0729339" lon="-105.2307715">
  <ele>1595.47</ele>
  <time>2026-08-28T19:11:44Z</time>
  <course>81.7</course>
  <speed>0.03</speed>
  <fix>3d</fix>
</trkpt>
<trkpt lat="40.0729339" lon="-105.2307717">
  <ele>1595.56</ele>
  <time>2026-08-28T19:11:44Z</time>
  <course>325.25</course>
  <speed>0.0</speed>
  <fix>3d</fix>
</trkpt>
<trkpt lat="40.0729339" lon="-105.2307714">
  <ele>1595.47</ele>
  <time>2026-08-28T19:11:44Z</time>
  <course>79.4</course>
  <speed>0.03</speed>
  <fix>3d</fix>
</trkpt>
<trkpt lat="40.0729339" lon="-105.2307716">
  <ele>1595.56</ele>
  <time>2026-08-28T19:11:44Z</time>
  <course>324.33</course>
  <speed>0.0</speed>
  <fix>3d</fix>
</trkpt>
<trkpt lat="40.0729339" lon="-105.2307714">
  <ele>1595.47</ele>
  <time>2026-08-28T19:11:44Z</time>
  <course>77.96</course>
  <speed>0.03</speed>
  <fix>3d</fix>
</trkpt>
<trkpt lat="40.0729339" lon="-105.2307715">
  <ele>1595.56</ele>
  <time>2026-08-28T19:11:44Z</time>
  <course>323.08</course>
  <speed>0.0</speed>
  <fix>3d</fix>
</trkpt>
<trkpt lat="40.0729339" lon="-105.2307713">
  <ele>1595.48</ele>
  <time>2026-08-28T19:11:44Z</time>
  <course>76.77</course>
  <speed>0.03</speed>
  <fix>3d</fix>
</trkpt>
<trkpt lat="40.0729339" lon="-105.2307715">
  <ele>1595.56</ele>
  <time>2026-08-28T19:11:44Z</time>
  <course>321.59</course>
  <speed>0.0</speed>
  <fix>3d</fix>
</trkpt>
<trkpt lat="40.0729339" lon="-105.2307712">
  <ele>1595.48</ele>
  <time>2026-08-28T19:11:44Z</time>
  <course>75.87</course>
  <speed>0.03</speed>
  <fix>3d</fix>
</trkpt>
<trkpt lat="40.0729339" lon="-105.2307714">
  <ele>1595.56</ele>
  <time>2026-08-28T19:11:44Z</time>
  <course>320.06</course>
  <speed>0.0</speed>
  <fix>3d</fix>
</trkpt>
<trkpt lat="40.0729339" lon="-105.2307711">
  <ele>1595.48</ele>
  <time>2026-08-28T19:11:44Z</time>
  <course>75.64</course>
  <speed>0.03</speed>
  <fix>3d</fix>
</trkpt>
<trkpt lat="40.0729339" lon="-105.2307713">
  <ele>1595.56</ele>
  <time>2026-08-28T19:11:44Z</time>
  <course>318.58</course>
  <speed>0.0</speed>
  <fix>3d</fix>
</trkpt>
<trkpt lat="40.072934" lon="-105.2307711">
  <ele>1595.48</ele>
  <time>2026-08-28T19:11:44Z</time>
  <course>76.92</course>
  <speed>0.03</speed>
  <fix>3d</fix>
</trkpt>
<trkpt lat="40.0729339" lon="-105.2307712">
  <ele>1595.56</ele>
  <time>2026-08-28T19:11:44Z</time>
  <course>317.36</course>
  <speed>0.0</speed>
  <fix>3d</fix>
</trkpt>
<trkpt lat="40.0729341" lon="-105.230771">
  <ele>1595.48</ele>
  <time>2026-08-28T19:11:44Z</time>
  <course>79.42</course>
  <speed>0.03</speed>
  <fix>3d</fix>
</trkpt>
<trkpt lat="40.072934" lon="-105.2307712">
  <ele>1595.57</ele>
  <time>2026-08-28T19:11:44Z</time>
  <course>316.45</course>
  <speed>0.0</speed>
  <fix>3d</fix>
</trkpt>
<trkpt lat="40.0729341" lon="-105.2307709">
  <ele>1595.49</ele>
  <time>2026-08-28T19:11:44Z</time>
  <course>82.14</course>
  <speed>0.02</speed>
  <fix>3d</fix>
</trkpt>
<trkpt lat="40.072934" lon="-105.2307711">
  <ele>1595.57</ele>
  <time>2026-08-28T19:11:44Z</time>
  <course>315.99</course>
  <speed>0.0</speed>
  <fix>3d</fix>
</trkpt>
<trkpt lat="40.0729341" lon="-105.2307709">
  <ele>1595.49</ele>
  <time>2026-08-28T19:11:44Z</time>
  <course>85.02</course>
  <speed>0.02</speed>
  <fix>3d</fix>
</trkpt>
<trkpt lat="40.072934" lon="-105.2307711">
  <ele>1595.57</ele>
  <time>2026-08-28T19:11:44Z</time>
  <course>316.0</course>
  <speed>0.0</speed>
  <fix>3d</fix>
</trkpt>
<trkpt lat="40.0729341" lon="-105.2307708">
  <ele>1595.49</ele>
  <time>2026-08-28T19:11:44Z</time>
  <course>89.84</course>
  <speed>0.02</speed>
  <fix>3d</fix>
</trkpt>
<trkpt lat="40.072934" lon="-105.230771">
  <ele>1595.57</ele>
  <time>2026-08-28T19:11:44Z</time>
  <course>316.48</course>
  <speed>0.0</speed>
  <fix>3d</fix>
</trkpt>
<trkpt lat="40.0729341" lon="-105.2307707">
  <ele>1595.49</ele>
  <time>2026-08-28T19:11:44Z</time>
  <course>96.11</course>
  <speed>0.02</speed>
  <fix>3d</fix>
</trkpt>
<trkpt lat="40.072934" lon="-105.230771">
  <ele>1595.57</ele>
  <time>2026-08-28T19:11:44Z</time>
  <course>317.41</course>
  <speed>0.0</speed>
  <fix>3d</fix>
</trkpt>
<trkpt lat="40.0729341" lon="-105.2307706">
  <ele>1595.49</ele>
  <time>2026-08-28T19:11:44Z</time>
  <course>101.59</course>
  <speed>0.02</speed>
  <fix>3d</fix>
</trkpt>
<trkpt lat="40.072934" lon="-105.2307709">
  <ele>1595.57</ele>
  <time>2026-08-28T19:11:44Z</time>
  <course>318.68</course>
  <speed>0.0</speed>
  <fix>3d</fix>
</trkpt>
<trkpt lat="40.0729341" lon="-105.2307706">
  <ele>1595.49</ele>
  <time>2026-08-28T19:11:44Z</time>
  <course>106.13</course>
  <speed>0.02</speed>
  <fix>3d</fix>
</trkpt>
<trkpt lat="40.072934" lon="-105.2307708">
  <ele>1595.57</ele>
  <time>2026-08-28T19:11:44Z</time>
  <course>320.15</course>
  <speed>0.0</speed>
  <fix>3d</fix>
</trkpt>
<trkpt lat="40.0729341" lon="-105.2307706">
  <ele>1595.49</ele>
  <time>2026-08-28T19:11:44Z</time>
  <course>109.2</course>
  <speed>0.02</speed>
  <fix>3d</fix>
</trkpt>
<trkpt lat="40.072934" lon="-105.2307708">
  <ele>1595.57</ele>
  <time>2026-08-28T19:11:44Z</time>
  <course>321.68</course>
  <speed>0.0</speed>
  <fix>3d</fix>
</trkpt>
<trkpt lat="40.0729341" lon="-105.2307705">
  <ele>1595.5</ele>
  <time>2026-08-28T19:11:44Z</time>
  <course>110.5</course>
  <speed>0.02</speed>
  <fix>3d</fix>
</trkpt>
<trkpt lat="40.072934" lon="-105.2307707">
  <ele>1595.57</ele>
  <time>2026-08-28T19:11:44Z</time>
  <course>323.13</course>
  <speed>0.0</speed>
  <fix>3d</fix>
</trkpt>
<trkpt lat="40.0729341" lon="-105.2307704">
  <ele>1595.5</ele>
  <time>2026-08-28T19:11:44Z</time>
  <course>110.18</course>
  <speed>0.02</speed>
  <fix>3d</fix>
</trkpt>
<trkpt lat="40.072934" lon="-105.2307707">
  <ele>1595.57</ele>
  <time>2026-08-28T19:11:44Z</time>
  <course>324.37</course>
  <speed>0.0</speed>
  <fix>3d</fix>
</trkpt>
<trkpt lat="40.0729341" lon="-105.2307704">
  <ele>1595.49</ele>
  <time>2026-08-28T19:11:44Z</time>
  <course>108.38</course>
  <speed>0.02</speed>
  <fix>3d</fix>
</trkpt>
<trkpt lat="40.072934" lon="-105.2307706">
  <ele>1595.57</ele>
  <time>2026-08-28T19:11:44Z</time>
  <course>325.29</course>
  <speed>0.0</speed>
  <fix>3d</fix>
</trkpt>
<trkpt lat="40.0729341" lon="-105.2307703">
  <ele>1595.49</ele>
  <time>2026-08-28T19:11:44Z</time>
  <course>105.76</course>
  <speed>0.02</speed>
  <fix>3d</fix>
</trkpt>
<trkpt lat="40.072934" lon="-105.2307705">
  <ele>1595.58</ele>
  <time>2026-08-28T19:11:44Z</time>
  <course>325.75</course>
  <speed>0.0</speed>
  <fix>3d</fix>
</trkpt>
<trkpt lat="40.0729341" lon="-105.2307702">
  <ele>1595.49</ele>
  <time>2026-08-28T19:11:44Z</time>
  <course>102.45</course>
  <speed>0.02</speed>
  <fix>3d</fix>
</trkpt>
<trkpt lat="40.072934" lon="-105.2307705">
  <ele>1595.58</ele>
  <time>2026-08-28T19:11:44Z</time>
  <course>325.76</course>
  <speed>0.0</speed>
  <fix>3d</fix>
</trkpt>
<trkpt lat="40.0729341" lon="-105.2307702">
  <ele>1595.49</ele>
  <time>2026-08-28T19:11:44Z</time>
  <course>98.92</course>
  <speed>0.03</speed>
  <fix>3d</fix>
</trkpt>
<trkpt lat="40.072934" lon="-105.2307704">
  <ele>1595.58</ele>
  <time>2026-08-28T19:11:44Z</time>
  <course>325.29</course>
  <speed>0.0</speed>
  <fix>3d</fix>
</trkpt>
<trkpt lat="40.0729341" lon="-105.2307701">
  <ele>1595.49</ele>
  <time>2026-08-28T19:11:44Z</time>
  <course>95.14</course>
  <speed>0.03</speed>
  <fix>3d</fix>
</trkpt>
<trkpt lat="40.072934" lon="-105.2307703">
  <ele>1595.58</ele>
  <time>2026-08-28T19:11:44Z</time>
  <course>324.38</course>
  <speed>0.0</speed>
  <fix>3d</fix>
</trkpt>
<trkpt lat="40.0729341" lon="-105.2307701">
  <ele>1595.49</ele>
  <time>2026-08-28T19:11:44Z</time>
  <course>91.43</course>
  <speed>0.03</speed>
  <fix>3d</fix>
</trkpt>
<trkpt lat="40.072934" lon="-105.2307702">
  <ele>1595.57</ele>
  <time>2026-08-28T19:11:44Z</time>
  <course>323.11</course>
  <speed>0.0</speed>
  <fix>3d</fix>
</trkpt>
<trkpt lat="40.0729341" lon="-105.23077">
  <ele>1595.49</ele>
  <time>2026-08-28T19:11:44Z</time>
  <course>89.11</course>
  <speed>0.03</speed>
  <fix>3d</fix>
</trkpt>
<trkpt lat="40.072934" lon="-105.2307701">
  <ele>1595.56</ele>
  <time>2026-08-28T19:11:44Z</time>
  <course>321.65</course>
  <speed>0.01</speed>
  <fix>3d</fix>
</trkpt>
<trkpt lat="40.0729341" lon="-105.2307699">
  <ele>1595.49</ele>
  <time>2026-08-28T19:11:44Z</time>
  <course>87.22</course>
  <speed>0.03</speed>
  <fix>3d</fix>
</trkpt>
<trkpt lat="40.072934" lon="-105.2307701">
  <ele>1595.56</ele>
  <time>2026-08-28T19:11:44Z</time>
  <course>320.08</course>
  <speed>0.01</speed>
  <fix>3d</fix>
</trkpt>
<trkpt lat="40.0729341" lon="-105.2307698">
  <ele>1595.49</ele>
  <time>2026-08-28T19:11:44Z</time>
  <course>85.63</course>
  <speed>0.03</speed>
  <fix>3d</fix>
</trkpt>
<trkpt lat="40.0729341" lon="-105.23077">
  <ele>1595.56</ele>
  <time>2026-08-28T19:11:44Z</time>
  <course>318.6</course>
  <speed>0.0</speed>
  <fix>3d</fix>
</trkpt>
<trkpt lat="40.0729341" lon="-105.2307697">
  <ele>1595.49</ele>
  <time>2026-08-28T19:11:44Z</time>
  <course>85.28</course>
  <speed>0.03</speed>
  <fix>3d</fix>
</trkpt>
<trkpt lat="40.0729341" lon="-105.2307699">
  <ele>1595.56</ele>
  <time>2026-08-28T19:11:44Z</time>
  <course>317.33</course>
  <speed>0.0</speed>
  <fix>3d</fix>
</trkpt>
<trkpt lat="40.0729341" lon="-105.2307697">
  <ele>1595.49</ele>
  <time>2026-08-28T19:11:44Z</time>
  <course>86.23</course>
  <speed>0.03</speed>
  <fix>3d</fix>
</trkpt>
<trkpt lat="40.0729341" lon="-105.2307699">
  <ele>1595.56</ele>
  <time>2026-08-28T19:11:44Z</time>
  <course>316.44</course>
  <speed>0.0</speed>
  <fix>3d</fix>
</trkpt>
<trkpt lat="40.0729341" lon="-105.2307696">
  <ele>1595.49</ele>
  <time>2026-08-28T19:11:44Z</time>
  <course>88.5</course>
  <speed>0.02</speed>
  <fix>3d</fix>
</trkpt>
<trkpt lat="40.0729341" lon="-105.2307698">
  <ele>1595.56</ele>
  <time>2026-08-28T19:11:44Z</time>
  <course>315.98</course>
  <speed>0.0</speed>
  <fix>3d</fix>
</trkpt>
<trkpt lat="40.0729341" lon="-105.2307695">
  <ele>1595.49</ele>
  <time>2026-08-28T19:11:44Z</time>
  <course>92.27</course>
  <speed>0.02</speed>
  <fix>3d</fix>
</trkpt>
<trkpt lat="40.0729341" lon="-105.2307697">
  <ele>1595.56</ele>
  <time>2026-08-28T19:11:44Z</time>
  <course>315.98</course>
  <speed>0.0</speed>
  <fix>3d</fix>
</trkpt>
<trkpt lat="40.0729341" lon="-105.2307694">
  <ele>1595.49</ele>
  <time>2026-08-28T19:11:44Z</time>
  <course>97.21</course>
  <speed>0.02</speed>
  <fix>3d</fix>
</trkpt>
<trkpt lat="40.0729341" lon="-105.2307697">
  <ele>1595.56</ele>
  <time>2026-08-28T19:11:44Z</time>
  <course>316.45</course>
  <speed>0.0</speed>
  <fix>3d</fix>
</trkpt>
<trkpt lat="40.0729341" lon="-105.2307694">
  <ele>1595.5</ele>
  <time>2026-08-28T19:11:44Z</time>
  <course>102.52</course>
  <speed>0.02</speed>
  <fix>3d</fix>
</trkpt>
<trkpt lat="40.0729341" lon="-105.2307696">
  <ele>1595.56</ele>
  <time>2026-08-28T19:11:44Z</time>
  <course>317.39</course>
  <speed>0.0</speed>
  <fix>3d</fix>
</trkpt>
<trkpt lat="40.072934" lon="-105.2307694">
  <ele>1595.5</ele>
  <time>2026-08-28T19:11:44Z</time>
  <course>107.35</course>
  <speed>0.02</speed>
  <fix>3d</fix>
</trkpt>
<trkpt lat="40.0729341" lon="-105.2307696">
  <ele>1595.57</ele>
  <time>2026-08-28T19:11:44Z</time>
  <course>318.66</course>
  <speed>0.0</speed>
  <fix>3d</fix>
</trkpt>
<trkpt lat="40.0729339" lon="-105.2307693">
  <ele>1595.5</ele>
  <time>2026-08-28T19:11:44Z</time>
  <course>110.58</course>
  <speed>0.02</speed>
  <fix>3d</fix>
</trkpt>
<trkpt lat="40.0729341" lon="-105.2307695">
  <ele>1595.57</ele>
  <time>2026-08-28T19:11:44Z</time>
  <course>320.13</course>
  <speed>0.0</speed>
  <fix>3d</fix>
</trkpt>
<trkpt lat="40.0729339" lon="-105.2307692">
  <ele>1595.5</ele>
  <time>2026-08-28T19:11:44Z</time>
  <course>111.76</course>
  <speed>0.02</speed>
  <fix>3d</fix>
</trkpt>
<trkpt lat="40.0729341" lon="-105.2307695">
  <ele>1595.57</ele>
  <time>2026-08-28T19:11:44Z</time>
  <course>321.67</course>
  <speed>0.0</speed>
  <fix>3d</fix>
</trkpt>
<trkpt lat="40.0729339" lon="-105.2307692">
  <ele>1595.5</ele>
  <time>2026-08-28T19:11:44Z</time>
  <course>110.62</course>
  <speed>0.02</speed>
  <fix>3d</fix>
</trkpt>
<trkpt lat="40.072934" lon="-105.2307694">
  <ele>1595.56</ele>
  <time>2026-08-28T19:11:44Z</time>
  <course>323.07</course>
  <speed>0.0</speed>
  <fix>3d</fix>
</trkpt>
<trkpt lat="40.0729339" lon="-105.2307691">
  <ele>1595.51</ele>
  <time>2026-08-28T19:11:44Z</time>
  <course>108.06</course>
  <speed>0.02</speed>
  <fix>3d</fix>
</trkpt>
<trkpt lat="40.072934" lon="-105.2307693">
  <ele>1595.56</ele>
  <time>2026-08-28T19:11:44Z</time>
  <course>324.35</course>
  <speed>0.0</speed>
  <fix>3d</fix>
</trkpt>
<trkpt lat="40.0729339" lon="-105.230769">
  <ele>1595.51</ele>
  <time>2026-08-28T19:11:44Z</time>
  <course>105.13</course>
  <speed>0.02</speed>
  <fix>3d</fix>
</trkpt>
<trkpt lat="40.072934" lon="-105.2307693">
  <ele>1595.57</ele>
  <time>2026-08-28T19:11:44Z</time>
  <course>325.24</course>
  <speed>0.0</speed>
  <fix>3d</fix>
</trkpt>
<trkpt lat="40.0729339" lon="-105.230769">
  <ele>1595.51</ele>
  <time>2026-08-28T19:11:44Z</time>
  <course>100.72</course>
  <speed>0.02</speed>
  <fix>3d</fix>
</trkpt>
<trkpt lat="40.072934" lon="-105.2307692">
  <ele>1595.57</ele>
  <time>2026-08-28T19:11:44Z</time>
  <course>325.74</course>
  <speed>0.0</speed>
  <fix>3d</fix>
</trkpt>
<trkpt lat="40.0729339" lon="-105.2307689">
  <ele>1595.51</ele>
  <time>2026-08-28T19:11:44Z</time>
  <course>95.65</course>
  <speed>0.03</speed>
  <fix>3d</fix>
</trkpt>
<trkpt lat="40.072934" lon="-105.2307691">
  <ele>1595.57</ele>
  <time>2026-08-28T19:11:44Z</time>
  <course>325.74</course>
  <speed>0.0</speed>
  <fix>3d</fix>
</trkpt>
<trkpt lat="40.0729339" lon="-105.2307689">
  <ele>1595.51</ele>
  <time>2026-08-28T19:11:44Z</time>
  <course>90.46</course>
  <speed>0.03</speed>
  <fix>3d</fix>
</trkpt>
<trkpt lat="40.072934" lon="-105.230769">
  <ele>1595.56</ele>
  <time>2026-08-28T19:11:44Z</time>
  <course>325.25</course>
  <speed>0.0</speed>
  <fix>3d</fix>
</trkpt>
<trkpt lat="40.0729339" lon="-105.2307688">
  <ele>1595.51</ele>
  <time>2026-08-28T19:11:44Z</time>
  <course>85.24</course>
  <speed>0.03</speed>
  <fix>3d</fix>
</trkpt>
<trkpt lat="40.072934" lon="-105.230769">
  <ele>1595.56</ele>
  <time>2026-08-28T19:11:44Z</time>
  <course>324.34</course>
  <speed>0.0</speed>
  <fix>3d</fix>
</trkpt>
<trkpt lat="40.0729339" lon="-105.2307687">
  <ele>1595.51</ele>
  <time>2026-08-28T19:11:44Z</time>
  <course>81.29</course>
  <speed>0.03</speed>
  <fix>3d</fix>
</trkpt>
<trkpt lat="40.072934" lon="-105.2307689">
  <ele>1595.57</ele>
  <time>2026-08-28T19:11:44Z</time>
  <course>323.07</course>
  <speed>0.01</speed>
  <fix>3d</fix>
</trkpt>
<trkpt lat="40.0729339" lon="-105.2307686">
  <ele>1595.51</ele>
  <time>2026-08-28T19:11:44Z</time>
  <course>77.99</course>
  <speed>0.03</speed>
  <fix>3d</fix>
</trkpt>
<trkpt lat="40.072934" lon="-105.2307688">
  <ele>1595.57</ele>
  <time>2026-08-28T19:11:44Z</time>
  <course>321.6</course>
  <speed>0.01</speed>
  <fix>3d</fix>
</trkpt>
<trkpt lat="40.0729339" lon="-105.2307685">
  <ele>1595.52</ele>
  <time>2026-08-28T19:11:44Z</time>
  <course>75.54</course>
  <speed>0.03</speed>
  <fix>3d</fix>
</trkpt>
<trkpt lat="40.072934" lon="-105.2307687">
  <ele>1595.57</ele>
  <time>2026-08-28T19:11:44Z</time>
  <course>320.08</course>
  <speed>0.01</speed>
  <fix>3d</fix>
</trkpt>
<trkpt lat="40.0729339" lon="-105.2307685">
  <ele>1595.52</ele>
  <time>2026-08-28T19:11:44Z</time>
  <course>74.64</course>
  <speed>0.03</speed>
  <fix>3d</fix>
</trkpt>
<trkpt lat="40.072934" lon="-105.2307687">
  <ele>1595.57</ele>
  <time>2026-08-28T19:11:44Z</time>
  <course>318.62</course>
  <speed>0.0</speed>
  <fix>3d</fix>
</trkpt>
<trkpt lat="40.0729339" lon="-105.2307684">
  <ele>1595.52</ele>
  <time>2026-08-28T19:11:44Z</time>
  <course>74.38</course>
  <speed>0.03</speed>
  <fix>3d</fix>
</trkpt>
<trkpt lat="40.072934" lon="-105.2307686">
  <ele>1595.58</ele>
  <time>2026-08-28T19:11:44Z</time>
  <course>317.37</course>
  <speed>0.0</speed>
  <fix>3d</fix>
</trkpt>
<trkpt lat="40.0729339" lon="-105.2307683">
  <ele>1595.52</ele>
  <time>2026-08-28T19:11:44Z</time>
  <course>75.31</course>
  <speed>0.03</speed>
  <fix>3d</fix>
</trkpt>
<trkpt lat="40.072934" lon="-105.2307685">
  <ele>1595.58</ele>
  <time>2026-08-28T19:11:44Z</time>
  <course>316.5</course>
  <speed>0.0</speed>
  <fix>3d</fix>
</trkpt>
<trkpt lat="40.0729339" lon="-105.2307683">
  <ele>1595.52</ele>
  <time>2026-08-28T19:11:44Z</time>
  <course>78.65</course>
  <speed>0.02</speed>
  <fix>3d</fix>
</trkpt>
<trkpt lat="40.072934" lon="-105.2307685">
  <ele>1595.58</ele>
  <time>2026-08-28T19:11:44Z</time>
  <course>316.02</course>
  <speed>0.0</speed>
  <fix>3d</fix>
</trkpt>
<trkpt lat="40.0729339" lon="-105.2307682">
  <ele>1595.52</ele>
  <time>2026-08-28T19:11:44Z</time>
  <course>83.54</course>
  <speed>0.02</speed>
  <fix>3d</fix>
</trkpt>
<trkpt lat="40.072934" lon="-105.2307684">
  <ele>1595.58</ele>
  <time>2026-08-28T19:11:44Z</time>
  <course>316.04</course>
  <speed>0.0</speed>
  <fix>3d</fix>
</trkpt>
<trkpt lat="40.0729339" lon="-105.2307681">
  <ele>1595.52</ele>
  <time>2026-08-28T19:11:44Z</time>
  <course>88.59</course>
  <speed>0.02</speed>
  <fix>3d</fix>
</trkpt>
<trkpt lat="40.072934" lon="-105.2307683">
  <ele>1595.58</ele>
  <time>2026-08-28T19:11:44Z</time>
  <course>316.53</course>
  <speed>0.0</speed>
  <fix>3d</fix>
</trkpt>
<trkpt lat="40.0729339" lon="-105.230768">
  <ele>1595.52</ele>
  <time>2026-08-28T19:11:44Z</time>
  <course>92.82</course>
  <speed>0.02</speed>
  <fix>3d</fix>
</trkpt>
<trkpt lat="40.072934" lon="-105.2307683">
  <ele>1595.58</ele>
  <time>2026-08-28T19:11:44Z</time>
  <course>317.42</course>
  <speed>0.0</speed>
  <fix>3d</fix>
</trkpt>
<trkpt lat="40.0729339" lon="-105.230768">
  <ele>1595.52</ele>
  <time>2026-08-28T19:11:44Z</time>
  <course>96.53</course>
  <speed>0.02</speed>
  <fix>3d</fix>
</trkpt>
<trkpt lat="40.072934" lon="-105.2307682">
  <ele>1595.57</ele>
  <time>2026-08-28T19:11:44Z</time>
  <course>318.67</course>
  <speed>0.0</speed>
  <fix>3d</fix>
</trkpt>
<trkpt lat="40.0729339" lon="-105.230768">
  <ele>1595.52</ele>
  <time>2026-08-28T19:11:44Z</time>
  <course>99.51</course>
  <speed>0.02</speed>
  <fix>3d</fix>
</trkpt>
<trkpt lat="40.072934" lon="-105.2307682">
  <ele>1595.57</ele>
  <time>2026-08-28T19:11:44Z</time>
  <course>320.12</course>
  <speed>0.0</speed>
  <fix>3d</fix>
</trkpt>
<trkpt lat="40.0729339" lon="-105.2307679">
  <ele>1595.51</ele>
  <time>2026-08-28T19:11:44Z</time>
  <course>101.71</course>
  <speed>0.02</speed>
  <fix>3d</fix>
</trkpt>
<trkpt lat="40.072934" lon="-105.2307681">
  <ele>1595.57</ele>
  <time>2026-08-28T19:11:44Z</time>
  <course>321.68</course>
  <speed>0.0</speed>
  <fix>3d</fix>
</trkpt>
<trkpt lat="40.0729339" lon="-105.2307678">
  <ele>1595.51</ele>
  <time>2026-08-28T19:11:44Z</time>
  <course>102.93</course>
  <speed>0.02</speed>
  <fix>3d</fix>
</trkpt>
<trkpt lat="40.0729339" lon="-105.2307681">
  <ele>1595.57</ele>
  <time>2026-08-28T19:11:44Z</time>
  <course>323.12</course>
  <speed>0.0</speed>
  <fix>3d</fix>
</trkpt>
<trkpt lat="40.0729339" lon="-105.2307678">
  <ele>1595.51</ele>
  <time>2026-08-28T19:11:44Z</time>
  <course>102.23</course>
  <speed>0.02</speed>
  <fix>3d</fix>
</trkpt>
<trkpt lat="40.0729339" lon="-105.230768">
  <ele>1595.57</ele>
  <time>2026-08-28T19:11:44Z</time>
  <course>324.38</course>
  <speed>0.0</speed>
  <fix>3d</fix>
</trkpt>
<trkpt lat="40.0729339" lon="-105.2307677">
  <ele>1595.51</ele>
  <time>2026-08-28T19:11:44Z</time>
  <course>99.56</course>
  <speed>0.02</speed>
  <fix>3d</fix>
</trkpt>
<trkpt lat="40.0729339" lon="-105.2307679">
  <ele>1595.58</ele>
  <time>2026-08-28T19:11:44Z</time>
  <course>325.29</course>
  <speed>0.0</speed>
  <fix>3d</fix>
</trkpt>
<trkpt lat="40.0729339" lon="-105.2307677">
  <ele>1595.51</ele>
  <time>2026-08-28T19:11:44Z</time>
  <course>95.05</course>
  <speed>0.02</speed>
  <fix>3d</fix>
</trkpt>
<trkpt lat="40.0729339" lon="-105.2307679">
  <ele>1595.58</ele>
  <time>2026-08-28T19:11:44Z</time>
  <course>325.77</course>
  <speed>0.0</speed>
  <fix>3d</fix>
</trkpt>
<trkpt lat="40.0729339" lon="-105.2307676">
  <ele>1595.51</ele>
  <time>2026-08-28T19:11:44Z</time>
  <course>89.91</course>
  <speed>0.03</speed>
  <fix>3d</fix>
</trkpt>
<trkpt lat="40.0729339" lon="-105.2307678">
  <ele>1595.59</ele>
  <time>2026-08-28T19:11:44Z</time>
  <course>325.76</course>
  <speed>0.0</speed>
  <fix>3d</fix>
</trkpt>
<trkpt lat="40.0729339" lon="-105.2307675">
  <ele>1595.51</ele>
  <time>2026-08-28T19:11:44Z</time>
  <course>85.35</course>
  <speed>0.03</speed>
  <fix>3d</fix>
</trkpt>
<trkpt lat="40.0729339" lon="-105.2307677">
  <ele>1595.59</ele>
  <time>2026-08-28T19:11:44Z</time>
  <course>325.31</course>
  <speed>0.0</speed>
  <fix>3d</fix>
</trkpt>
<trkpt lat="40.0729339" lon="-105.2307675">
  <ele>1595.51</ele>
  <time>2026-08-28T19:11:44Z</time>
  <course>80.98</course>
  <speed>0.03</speed>
  <fix>3d</fix>
</trkpt>
<trkpt lat="40.0729339" lon="-105.2307676">
  <ele>1595.59</ele>
  <time>2026-08-28T19:11:44Z</time>
  <course>324.4</course>
  <speed>0.01</speed>
  <fix>3d</fix>
</trkpt>
<trkpt lat="40.0729339" lon="-105.2307674">
  <ele>1595.5</ele>
  <time>2026-08-28T19:11:44Z</time>
  <course>76.45</course>
  <speed>0.03</speed>
  <fix>3d</fix>
</trkpt>
<trkpt lat="40.0729339" lon="-105.2307675">
  <ele>1595.59</ele>
  <time>2026-08-28T19:11:44Z</time>
  <course>323.16</course>
  <speed>0.01</speed>
  <fix>3d</fix>
</trkpt>
<trkpt lat="40.0729339" lon="-105.2307673">
  <ele>1595.5</ele>
  <time>2026-08-28T19:11:44Z</time>
  <course>72.39</course>
  <speed>0.03</speed>
  <fix>3d</fix>
</trkpt>
<trkpt lat="40.0729339" lon="-105.2307675">
  <ele>1595.59</ele>
  <time>2026-08-28T19:11:44Z</time>
  <course>321.71</course>
  <speed>0.01</speed>
  <fix>3d</fix>
</trkpt>
<trkpt lat="40.0729339" lon="-105.2307672">
  <ele>1595.5</ele>
  <time>2026-08-28T19:11:44Z</time>
  <course>69.26</course>
  <speed>0.03</speed>
  <fix>3d</fix>
</trkpt>
<trkpt lat="40.0729339" lon="-105.2307674">
  <ele>1595.58</ele>
  <time>2026-08-28T19:11:44Z</time>
  <course>320.14</course>
  <speed>0.01</speed>
  <fix>3d</fix>
</trkpt>
<trkpt lat="40.0729339" lon="-105.2307671">
  <ele>1595.49</ele>
  <time>2026-08-28T19:11:44Z</time>
  <course>67.35</course>
  <speed>0.03</speed>
  <fix>3d</fix>
</trkpt>
<trkpt lat="40.072934" lon="-105.2307673">
  <ele>1595.58</ele>
  <time>2026-08-28T19:11:44Z</time>
  <course>318.67</course>
  <speed>0.01</speed>
  <fix>3d</fix>
</trkpt>
<trkpt lat="40.0729339" lon="-105.2307671">
  <ele>1595.49</ele>
  <time>2026-08-28T19:11:44Z</time>
  <course>66.5</course>
  <speed>0.03</speed>
  <fix>3d</fix>
</trkpt>
<trkpt lat="40.072934" lon="-105.2307673">
  <ele>1595.58</ele>
  <time>2026-08-28T19:11:44Z</time>
  <course>317.42</course>
  <speed>0.01</speed>
  <fix>3d</fix>
</trkpt>
<trkpt lat="40.0729339" lon="-105.230767">
  <ele>1595.48</ele>
  <time>2026-08-28T19:11:44Z</time>
  <course>67.17</course>
  <speed>0.03</speed>
  <fix>3d</fix>
</trkpt>
<trkpt lat="40.072934" lon="-105.2307672">
  <ele>1595.57</ele>
  <time>2026-08-28T19:11:44Z</time>
  <course>316.49</course>
  <speed>0.0</speed>
  <fix>3d</fix>
</trkpt>
<trkpt lat="40.072934" lon="-105.2307669">
  <ele>1595.48</ele>
  <time>2026-08-28T19:11:44Z</time>
  <course>69.75</course>
  <speed>0.02</speed>
  <fix>3d</fix>
</trkpt>
<trkpt lat="40.072934" lon="-105.2307671">
  <ele>1595.57</ele>
  <time>2026-08-28T19:11:44Z</time>
  <course>316.03</course>
  <speed>0.0</speed>
  <fix>3d</fix>
</trkpt>
<trkpt lat="40.0729341" lon="-105.2307668">
  <ele>1595.47</ele>
  <time>2026-08-28T19:11:44Z</time>
  <course>74.78</course>
  <speed>0.02</speed>
  <fix>3d</fix>
</trkpt>
<trkpt lat="40.072934" lon="-105.2307671">
  <ele>1595.57</ele>
  <time>2026-08-28T19:11:44Z</time>
  <course>316.01</course>
  <speed>0.0</speed>
  <fix>3d</fix>
</trkpt>
<trkpt lat="40.0729341" lon="-105.2307668">
  <ele>1595.47</ele>
  <time>2026-08-28T19:11:44Z</time>
  <course>81.76</course>
  <speed>0.02</speed>
  <fix>3d</fix>
</trkpt>
<trkpt lat="40.072934" lon="-105.230767">
  <ele>1595.56</ele>
  <time>2026-08-28T19:11:44Z</time>
  <course>316.48</course>
  <speed>0.0</speed>
  <fix>3d</fix>
</trkpt>
<trkpt lat="40.0729341" lon="-105.2307668">
  <ele>1595.47</ele>
  <time>2026-08-28T19:11:44Z</time>
  <course>89.09</course>
  <speed>0.02</speed>
  <fix>3d</fix>
</trkpt>
<trkpt lat="40.072934" lon="-105.230767">
  <ele>1595.56</ele>
  <time>2026-08-28T19:11:44Z</time>
  <course>317.39</course>
  <speed>0.0</speed>
  <fix>3d</fix>
</trkpt>
<trkpt lat="40.0729341" lon="-105.2307667">
  <ele>1595.47</ele>
  <time>2026-08-28T19:11:44Z</time>
  <course>95.57</course>
  <speed>0.02</speed>
  <fix>3d</fix>
</trkpt>
<trkpt lat="40.072934" lon="-105.2307669">
  <ele>1595.56</ele>
  <time>2026-08-28T19:11:44Z</time>
  <course>318.61</course>
  <speed>0.0</speed>
  <fix>3d</fix>
</trkpt>
<trkpt lat="40.0729341" lon="-105.2307666">
  <ele>1595.47</ele>
  <time>2026-08-28T19:11:44Z</time>
  <course>99.3</course>
  <speed>0.01</speed>
  <fix>3d</fix>
</trkpt>
<trkpt lat="40.072934" lon="-105.2307669">
  <ele>1595.56</ele>
  <time>2026-08-28T19:11:44Z</time>
  <course>320.06</course>
  <speed>0.0</speed>
  <fix>3d</fix>
</trkpt>
<trkpt lat="40.0729341" lon="-105.2307666">
  <ele>1595.47</ele>
  <time>2026-08-28T19:11:44Z</time>
  <course>100.83</course>
  <speed>0.01</speed>
  <fix>3d</fix>
</trkpt>
<trkpt lat="40.072934" lon="-105.2307668">
  <ele>1595.56</ele>
  <time>2026-08-28T19:11:44Z</time>
  <course>321.65</course>
  <speed>0.0</speed>
  <fix>3d</fix>
</trkpt>
<trkpt lat="40.0729341" lon="-105.2307666">
  <ele>1595.47</ele>
  <time>2026-08-28T19:11:44Z</time>
  <course>101.08</course>
  <speed>0.01</speed>
  <fix>3d</fix>
</trkpt>
<trkpt lat="40.072934" lon="-105.2307668">
  <ele>1595.56</ele>
  <time>2026-08-28T19:11:44Z</time>
  <course>323.08</course>
  <speed>0.0</speed>
  <fix>3d</fix>
</trkpt>
<trkpt lat="40.0729341" lon="-105.2307666">
  <ele>1595.47</ele>
  <time>2026-08-28T19:11:44Z</time>
  <course>99.63</course>
  <speed>0.01</speed>
  <fix>3d</fix>
</trkpt>
<trkpt lat="40.072934" lon="-105.2307667">
  <ele>1595.56</ele>
  <time>2026-08-28T19:11:44Z</time>
  <course>324.34</course>
  <speed>0.0</speed>
  <fix>3d</fix>
</trkpt>
<trkpt lat="40.0729341" lon="-105.2307665">
  <ele>1595.48</ele>
  <time>2026-08-28T19:11:44Z</time>
  <course>96.47</course>
  <speed>0.01</speed>
  <fix>3d</fix>
</trkpt>
<trkpt lat="40.072934" lon="-105.2307667">
  <ele>1595.56</ele>
  <time>2026-08-28T19:11:44Z</time>
  <course>325.25</course>
  <speed>0.0</speed>
  <fix>3d</fix>
</trkpt>
<trkpt lat="40.0729341" lon="-105.2307665">
  <ele>1595.48</ele>
  <time>2026-08-28T19:11:44Z</time>
  <course>91.94</course>
  <speed>0.02</speed>
  <fix>3d</fix>
</trkpt>
<trkpt lat="40.072934" lon="-105.2307666">
  <ele>1595.55</ele>
  <time>2026-08-28T19:11:44Z</time>
  <course>325.72</course>
  <speed>0.0</speed>
  <fix>3d</fix>
</trkpt>
<trkpt lat="40.0729341" lon="-105.2307664">
  <ele>1595.48</ele>
  <time>2026-08-28T19:11:44Z</time>
  <course>86.43</course>
  <speed>0.02</speed>
  <fix>3d</fix>
</trkpt>
<trkpt lat="40.072934" lon="-105.2307666">
  <ele>1595.55</ele>
  <time>2026-08-28T19:11:44Z</time>
  <course>325.71</course>
  <speed>0.0</speed>
  <fix>3d</fix>
</trkpt>
<trkpt lat="40.0729341" lon="-105.2307663">
  <ele>1595.48</ele>
  <time>2026-08-28T19:11:44Z</time>
  <course>81.5</course>
  <speed>0.02</speed>
  <fix>3d</fix>
</trkpt>
<trkpt lat="40.0729341" lon="-105.2307665">
  <ele>1595.56</ele>
  <time>2026-08-28T19:11:44Z</time>
  <course>325.21</course>
  <speed>0.0</speed>
  <fix>3d</fix>
</trkpt>
<trkpt lat="40.0729341" lon="-105.2307663">
  <ele>1595.48</ele>
  <time>2026-08-28T19:11:44Z</time>
  <course>77.91</course>
  <speed>0.02</speed>
  <fix>3d</fix>
</trkpt>
<trkpt lat="40.0729341" lon="-105.2307665">
  <ele>1595.56</ele>
  <time>2026-08-28T19:11:44Z</time>
  <course>324.31</course>
  <speed>0.01</speed>
  <fix>3d</fix>
</trkpt>
<trkpt lat="40.0729341" lon="-105.2307663">
  <ele>1595.49</ele>
  <time>2026-08-28T19:11:44Z</time>
  <course>74.23</course>
  <speed>0.02</speed>
  <fix>3d</fix>
</trkpt>
<trkpt lat="40.0729341" lon="-105.2307664">
  <ele>1595.57</ele>
  <time>2026-08-28T19:11:44Z</time>
  <course>323.07</course>
  <speed>0.01</speed>
  <fix>3d</fix>
</trkpt>
<trkpt lat="40.0729341" lon="-105.2307662">
  <ele>1595.49</ele>
  <time>2026-08-28T19:11:44Z</time>
  <course>70.3</course>
  <speed>0.02</speed>
  <fix>3d</fix>
</trkpt>
<trkpt lat="40.0729341" lon="-105.2307664">
  <ele>1595.57</ele>
  <time>2026-08-28T19:11:44Z</time>
  <course>321.61</course>
  <speed>0.01</speed>
  <fix>3d</fix>
</trkpt>
<trkpt lat="40.0729341" lon="-105.2307661">
  <ele>1595.49</ele>
  <time>2026-08-28T19:11:44Z</time>
  <course>67.22</course>
  <speed>0.02</speed>
  <fix>3d</fix>
</trkpt>
<trkpt lat="40.0729341" lon="-105.2307663">
  <ele>1595.57</ele>
  <time>2026-08-28T19:11:44Z</time>
  <course>320.08</course>
  <speed>0.01</speed>
  <fix>3d</fix>
</trkpt>
<trkpt lat="40.0729341" lon="-105.2307661">
  <ele>1595.5</ele>
  <time>2026-08-28T19:11:44Z</time>
  <course>65.23</course>
  <speed>0.02</speed>
  <fix>3d</fix>
</trkpt>
<trkpt lat="40.0729341" lon="-105.2307662">
  <ele>1595.57</ele>
  <time>2026-08-28T19:11:44Z</time>
  <course>318.65</course>
  <speed>0.01</speed>
  <fix>3d</fix>
</trkpt>
<trkpt lat="40.0729341" lon="-105.2307661">
  <ele>1595.5</ele>
  <time>2026-08-28T19:11:44Z</time>
  <course>64.6</course>
  <speed>0.02</speed>
  <fix>3d</fix>
</trkpt>
<trkpt lat="40.0729341" lon="-105.2307662">
  <ele>1595.58</ele>
  <time>2026-08-28T19:11:44Z</time>
  <course>317.39</course>
  <speed>0.0</speed>
  <fix>3d</fix>
</trkpt>
<trkpt lat="40.0729341" lon="-105.230766">
  <ele>1595.5</ele>
  <time>2026-08-28T19:11:44Z</time>
  <course>65.59</course>
  <speed>0.01</speed>
  <fix>3d</fix>
</trkpt>
<trkpt lat="40.0729341" lon="-105.2307662">
  <ele>1595.58</ele>
  <time>2026-08-28T19:11:44Z</time>
  <course>316.5</course>
  <speed>0.0</speed>
  <fix>3d</fix>
</trkpt>
<trkpt lat="40.0729342" lon="-105.2307659">
  <ele>1595.5</ele>
  <time>2026-08-28T19:11:44Z</time>
  <course>68.85</course>
  <speed>0.01</speed>
  <fix>3d</fix>
</trkpt>
<trkpt lat="40.0729341" lon="-105.2307661">
  <ele>1595.58</ele>
  <time>2026-08-28T19:11:45Z</time>
  <course>316.03</course>
  <speed>0.0</speed>
  <fix>3d</fix>
</trkpt>
<trkpt lat="40.0729342" lon="-105.2307659">
  <ele>1595.5</ele>
  <time>2026-08-28T19:11:45Z</time>
  <course>74.91</course>
  <speed>0.01</speed>
  <fix>3d</fix>
</trkpt>
<trkpt lat="40.0729341" lon="-105.2307661">
  <ele>1595.58</ele>
  <time>2026-08-28T19:11:45Z</time>
  <course>315.99</course>
  <speed>0.0</speed>
  <fix>3d</fix>
</trkpt>
<trkpt lat="40.0729342" lon="-105.2307659">
  <ele>1595.5</ele>
  <time>2026-08-28T19:11:45Z</time>
  <course>82.18</course>
  <speed>0.01</speed>
  <fix>3d</fix>
</trkpt>
<trkpt lat="40.0729341" lon="-105.2307661">
  <ele>1595.58</ele>
  <time>2026-08-28T19:11:45Z</time>
  <course>316.01</course>
  <speed>0.0</speed>
  <fix>3d</fix>
</trkpt>
<trkpt lat="40.0729342" lon="-105.2307659">
  <ele>1595.49</ele>
  <time>2026-08-28T19:11:45Z</time>
  <course>81.63</course>
  <speed>0.01</speed>
  <fix>3d</fix>
</trkpt>
<trkpt lat="40.0729342" lon="-105.2307661">
  <ele>1595.58</ele>
  <time>2026-08-28T19:11:45Z</time>
  <course>316.04</course>
  <speed>0.0</speed>
  <fix>3d</fix>
</trkpt>
<trkpt lat="40.0729342" lon="-105.2307659">
  <ele>1595.49</ele>
  <time>2026-08-28T19:11:45Z</time>
  <course>73.05</course>
  <speed>0.01</speed>
  <fix>3d</fix>
</trkpt>
<trkpt lat="40.0729342" lon="-105.230766">
  <ele>1595.58</ele>
  <time>2026-08-28T19:11:45Z</time>
  <course>316.03</course>
  <speed>0.0</speed>
  <fix>3d</fix>
</trkpt>
<trkpt lat="40.0729342" lon="-105.2307659">
  <ele>1595.49</ele>
  <time>2026-08-28T19:11:45Z</time>
  <course>64.64</course>
  <speed>0.01</speed>
  <fix>3d</fix>
</trkpt>
<trkpt lat="40.0729342" lon="-105.230766">
  <ele>1595.57</ele>
  <time>2026-08-28T19:11:45Z</time>
  <course>316.01</course>
  <speed>0.0</speed>
  <fix>3d</fix>
</trkpt>
<trkpt lat="40.0729342" lon="-105.2307658">
  <ele>1595.49</ele>
  <time>2026-08-28T19:11:45Z</time>
  <course>55.98</course>
  <speed>0.01</speed>
  <fix>3d</fix>
</trkpt>
<trkpt lat="40.0729342" lon="-105.230766">
  <ele>1595.57</ele>
  <time>2026-08-28T19:11:45Z</time>
  <course>316.01</course>
  <speed>0.0</speed>
  <fix>3d</fix>
</trkpt>
<trkpt lat="40.0729342" lon="-105.2307658">
  <ele>1595.49</ele>
  <time>2026-08-28T19:11:45Z</time>
  <course>47.12</course>
  <speed>0.01</speed>
  <fix>3d</fix>
</trkpt>
<trkpt lat="40.0729342" lon="-105.230766">
  <ele>1595.56</ele>
  <time>2026-08-28T19:11:45Z</time>
  <course>316.01</course>
  <speed>0.01</speed>
  <fix>3d</fix>
</trkpt>
<trkpt lat="40.0729342" lon="-105.2307658">
  <ele>1595.48</ele>
  <time>2026-08-28T19:11:45Z</time>
  <course>39.16</course>
  <speed>0.01</speed>
  <fix>3d</fix>
</trkpt>
<trkpt lat="40.0729342" lon="-105.230766">
  <ele>1595.56</ele>
  <time>2026-08-28T19:11:45Z</time>
  <course>316.01</course>
  <speed>0.01</speed>
  <fix>3d</fix>
</trkpt>
<trkpt lat="40.0729342" lon="-105.2307658">
  <ele>1595.48</ele>
  <time>2026-08-28T19:11:45Z</time>
  <course>31.96</course>
  <speed>0.01</speed>
  <fix>3d</fix>
</trkpt>
<trkpt lat="40.0729342" lon="-105.2307659">
  <ele>1595.56</ele>
  <time>2026-08-28T19:11:45Z</time>
  <course>315.97</course>
  <speed>0.01</speed>
  <fix>3d</fix>
</trkpt>
<trkpt lat="40.0729342" lon="-105.2307658">
  <ele>1595.48</ele>
  <time>2026-08-28T19:11:45Z</time>
  <course>25.88</course>
  <speed>0.01</speed>
  <fix>3d</fix>
</trkpt>
<trkpt lat="40.0729342" lon="-105.2307659">
  <ele>1595.57</ele>
  <time>2026-08-28T19:11:45Z</time>
  <course>315.99</course>
  <speed>0.01</speed>
  <fix>3d</fix>
</trkpt>
<trkpt lat="40.0729343" lon="-105.2307658">
  <ele>1595.49</ele>
  <time>2026-08-28T19:11:45Z</time>
  <course>20.97</course>
  <speed>0.01</speed>
  <fix>3d</fix>
</trkpt>
<trkpt lat="40.0729343" lon="-105.2307659">
  <ele>1595.57</ele>
  <time>2026-08-28T19:11:45Z</time>
  <course>316.0</course>
  <speed>0.01</speed>
  <fix>3d</fix>
</trkpt>
<trkpt lat="40.0729343" lon="-105.2307658">
  <ele>1595.49</ele>
  <time>2026-08-28T19:11:45Z</time>
  <course>16.46</course>
  <speed>0.01</speed>
  <fix>3d</fix>
</trkpt>
<trkpt lat="40.0729343" lon="-105.2307659">
  <ele>1595.58</ele>
  <time>2026-08-28T19:11:45Z</time>
  <course>316.01</course>
  <speed>0.01</speed>
  <fix>3d</fix>
</trkpt>
<trkpt lat="40.0729343" lon="-105.2307657">
  <ele>1595.49</ele>
  <time>2026-08-28T19:11:45Z</time>
  <course>12.33</course>
  <speed>0.01</speed>
  <fix>3d</fix>
</trkpt>
<trkpt lat="40.0729343" lon="-105.2307659">
  <ele>1595.58</ele>
  <time>2026-08-28T19:11:45Z</time>
  <course>316.01</course>
  <speed>0.01</speed>
  <fix>3d</fix>
</trkpt>
<trkpt lat="40.0729343" lon="-105.2307656">
  <ele>1595.49</ele>
  <time>2026-08-28T19:11:45Z</time>
  <course>8.61</course>
  <speed>0.01</speed>
  <fix>3d</fix>
</trkpt>
<trkpt lat="40.0729343" lon="-105.2307659">
  <ele>1595.58</ele>
  <time>2026-08-28T19:11:45Z</time>
  <course>316.04</course>
  <speed>0.01</speed>
  <fix>3d</fix>
</trkpt>
<trkpt lat="40.0729344" lon="-105.2307656">
  <ele>1595.49</ele>
  <time>2026-08-28T19:11:45Z</time>
  <course>4.75</course>
  <speed>0.01</speed>
  <fix>3d</fix>
</trkpt>
<trkpt lat="40.0729344" lon="-105.2307659">
  <ele>1595.57</ele>
  <time>2026-08-28T19:11:45Z</time>
  <course>316.03</course>
  <speed>0.01</speed>
  <fix>3d</fix>
</trkpt>
<trkpt lat="40.0729344" lon="-105.2307656">
  <ele>1595.49</ele>
  <time>2026-08-28T19:11:45Z</time>
  <course>0.52</course>
  <speed>0.01</speed>
  <fix>3d</fix>
</trkpt>
<trkpt lat="40.0729344" lon="-105.2307659">
  <ele>1595.57</ele>
  <time>2026-08-28T19:11:45Z</time>
  <course>316.01</course>
  <speed>0.01</speed>
  <fix>3d</fix>
</trkpt>
<trkpt lat="40.0729344" lon="-105.2307656">
  <ele>1595.48</ele>
  <time>2026-08-28T19:11:45Z</time>
  <course>357.34</course>
  <speed>0.01</speed>
  <fix>3d</fix>
</trkpt>
<trkpt lat="40.0729344" lon="-105.2307659">
  <ele>1595.57</ele>
  <time>2026-08-28T19:11:45Z</time>
  <course>316.01</course>
  <speed>0.01</speed>
  <fix>3d</fix>
</trkpt>
<trkpt lat="40.0729344" lon="-105.2307656">
  <ele>1595.48</ele>
  <time>2026-08-28T19:11:45Z</time>
  <course>354.42</course>
  <speed>0.01</speed>
  <fix>3d</fix>
</trkpt>
<trkpt lat="40.0729345" lon="-105.2307658">
  <ele>1595.57</ele>
  <time>2026-08-28T19:11:45Z</time>
  <course>313.7</course>
  <speed>0.02</speed>
  <fix>3d</fix>
</trkpt>
<trkpt lat="40.0729344" lon="-105.2307656">
  <ele>1595.48</ele>
  <time>2026-08-28T19:11:45Z</time>
  <course>5.78</course>
  <speed>0.02</speed>
  <fix>3d</fix>
</trkpt>
<trkpt lat="40.0729345" lon="-105.2307658">
  <ele>1595.57</ele>
  <time>2026-08-28T19:11:45Z</time>
  <course>314.28</course>
  <speed>0.02</speed>
  <fix>3d</fix>
</trkpt>
<trkpt lat="40.0729345" lon="-105.2307656">
  <ele>1595.48</ele>
  <time>2026-08-28T19:11:45Z</time>
  <course>352.29</course>
  <speed>0.01</speed>
  <fix>3d</fix>
</trkpt>
<trkpt lat="40.0729345" lon="-105.2307658">
  <ele>1595.57</ele>
  <time>2026-08-28T19:11:45Z</time>
  <course>318.75</course>
  <speed>0.0</speed>
  <fix>3d</fix>
</trkpt>
<trkpt lat="40.0729345" lon="-105.2307656">
  <ele>1595.48</ele>
  <time>2026-08-28T19:11:45Z</time>
  <course>290.75</course>
  <speed>0.01</speed>
  <fix>3d</fix>
</trkpt>
<trkpt lat="40.0729345" lon="-105.2307658">
  <ele>1595.57</ele>
  <time>2026-08-28T19:11:45Z</time>
  <course>314.89</course>
  <speed>0.022360679774997897</speed>
  <fix>3d</fix>
</trkpt>
<trkpt lat="40.0729345" lon="-105.2307656">
  <ele>1595.48</ele>
  <time>2026-08-28T19:11:45Z</time>
  <course>9.14</course>
  <speed>0.01</speed>
  <fix>3d</fix>
</trkpt>
<trkpt lat="40.0729345" lon="-105.2307658">
  <ele>1595.57</ele>
  <time>2026-08-28T19:11:45Z</time>
  <course>314.53</course>
  <speed>0.01</speed>
  <fix>3d</fix>
</trkpt>
<trkpt lat="40.0729345" lon="-105.2307656">
  <ele>1595.48</ele>
  <time>2026-08-28T19:11:45Z</time>
  <course>22.86</course>
  <speed>0.01</speed>
  <fix>3d</fix>
</trkpt>
<trkpt lat="40.0729345" lon="-105.2307658">
  <ele>1595.57</ele>
  <time>2026-08-28T19:11:45Z</time>
  <course>318.64</course>
  <speed>0.0</speed>
  <fix>3d</fix>
</trkpt>
<trkpt lat="40.0729345" lon="-105.2307656">
  <ele>1595.48</ele>
  <time>2026-08-28T19:11:45Z</time>
  <course>261.97</course>
  <speed>0.0</speed>
  <fix>3d</fix>
</trkpt>
<trkpt lat="40.0729345" lon="-105.2307658">
  <ele>1595.57</ele>
  <time>2026-08-28T19:11:45Z</time>
  <course>314.43</course>
  <speed>0.01414213562373095</speed>
  <fix>3d</fix>
</trkpt>
<trkpt lat="40.0729345" lon="-105.2307656">
  <ele>1595.48</ele>
  <time>2026-08-28T19:11:45Z</time>
  <course>30.87</course>
  <speed>0.01</speed>
  <fix>3d</fix>
</trkpt>
<trkpt lat="40.0729345" lon="-105.2307658">
  <ele>1595.57</ele>
  <time>2026-08-28T19:11:45Z</time>
  <course>315.42</course>
  <speed>0.01414213562373095</speed>
  <fix>3d</fix>
</trkpt>
<trkpt lat="40.0729346" lon="-105.2307656">
  <ele>1595.48</ele>
  <time>2026-08-28T19:11:45Z</time>
  <course>30.78</course>
  <speed>0.0</speed>
  <fix>3d</fix>
</trkpt>
<trkpt lat="40.0729345" lon="-105.2307658">
  <ele>1595.57</ele>
  <time>2026-08-28T19:11:45Z</time>
  <course>318.21</course>
  <speed>0.01</speed>
  <fix>3d</fix>
</trkpt>
<trkpt lat="40.0729346" lon="-105.2307656">
  <ele>1595.48</ele>
  <time>2026-08-28T19:11:45Z</time>
  <course>250.03</course>
  <speed>0.0</speed>
  <fix>3d</fix>
</trkpt>
<trkpt lat="40.0729346" lon="-105.2307657">
  <ele>1595.57</ele>
  <time>2026-08-28T19:11:45Z</time>
  <course>313.71</course>
  <speed>0.0</speed>
  <fix>3d</fix>
</trkpt>
<trkpt lat="40.0729346" lon="-105.2307656">
  <ele>1595.48</ele>
  <time>2026-08-28T19:11:45Z</time>
  <course>34.74</course>
  <speed>0.01</speed>
  <fix>3d</fix>
</trkpt>
<trkpt lat="40.0729345" lon="-105.2307657">
  <ele>1595.57</ele>
  <time>2026-08-28T19:11:45Z</time>
  <course>317.13</course>
  <speed>0.01414213562373095</speed>
  <fix>3d</fix>
</trkpt>
<trkpt lat="40.0729347" lon="-105.2307656">
  <ele>1595.48</ele>
  <time>2026-08-28T19:11:45Z</time>
  <course>335.54</course>
  <speed>0.0</speed>
  <fix>3d</fix>
</trkpt>
<trkpt lat="40.0729346" lon="-105.2307657">
  <ele>1595.57</ele>
  <time>2026-08-28T19:11:45Z</time>
  <course>316.58</course>
  <speed>0.01414213562373095</speed>
  <fix>3d</fix>
</trkpt>
<trkpt lat="40.0729347" lon="-105.2307656">
  <ele>1595.48</ele>
  <time>2026-08-28T19:11:45Z</time>
  <course>285.22</course>
  <speed>0.0</speed>
  <fix>3d</fix>
</trkpt>
<trkpt lat="40.0729346" lon="-105.2307657">
  <ele>1595.57</ele>
  <time>2026-08-28T19:11:45Z</time>
  <course>314.16</course>
  <speed>0.01</speed>
  <fix>3d</fix>
</trkpt>
<trkpt lat="40.0729347" lon="-105.2307656">
  <ele>1595.48</ele>
  <time>2026-08-28T19:11:45Z</time>
  <course>29.74</course>
  <speed>0.01</speed>
  <fix>3d</fix>
</trkpt>
<trkpt lat="40.0729346" lon="-105.2307657">
  <ele>1595.57</ele>
  <time>2026-08-28T19:11:45Z</time>
  <course>318.25</course>
  <speed>0.0</speed>
  <fix>3d</fix>
</trkpt>
<trkpt lat="40.0729347" lon="-105.2307656">
  <ele>1595.48</ele>
  <time>2026-08-28T19:11:45Z</time>
  <course>258.97</course>
  <speed>0.0</speed>
  <fix>3d</fix>
</trkpt>
<trkpt lat="40.0729346" lon="-105.2307657">
  <ele>1595.57</ele>
  <time>2026-08-28T19:11:45Z</time>
  <course>314.22</course>
  <speed>0.01</speed>
  <fix>3d</fix>
</trkpt>
<trkpt lat="40.0729347" lon="-105.2307656">
  <ele>1595.48</ele>
  <time>2026-08-28T19:11:45Z</time>
  <course>10.83</course>
  <speed>0.0</speed>
  <fix>3d</fix>
</trkpt>
<trkpt lat="40.0729346" lon="-105.2307657">
  <ele>1595.57</ele>
  <time>2026-08-28T19:11:45Z</time>
  <course>316.82</course>
  <speed>0.01414213562373095</speed>
  <fix>3d</fix>
</trkpt>
<trkpt lat="40.0729347" lon="-105.2307656">
  <ele>1595.48</ele>
  <time>2026-08-28T19:11:45Z</time>
  <course>327.26</course>
  <speed>0.0</speed>
  <fix>3d</fix>
</trkpt>
<trkpt lat="40.0729346" lon="-105.2307657">
  <ele>1595.57</ele>
  <time>2026-08-28T19:11:45Z</time>
  <course>316.27</course>
  <speed>0.022360679774997897</speed>
  <fix>3d</fix>
</trkpt>
<trkpt lat="40.0729347" lon="-105.2307656">
  <ele>1595.48</ele>
  <time>2026-08-28T19:11:45Z</time>
  <course>272.59</course>
  <speed>0.0</speed>
  <fix>3d</fix>
</trkpt>
<trkpt lat="40.0729346" lon="-105.2307657">
  <ele>1595.56</ele>
  <time>2026-08-28T19:11:45Z</time>
  <course>314.84</course>
  <speed>0.01414213562373095</speed>
  <fix>3d</fix>
</trkpt>
<trkpt lat="40.0729347" lon="-105.2307656">
  <ele>1595.48</ele>
  <time>2026-08-28T19:11:45Z</time>
  <course>8.96</course>
  <speed>0.0</speed>
  <fix>3d</fix>
</trkpt>
<trkpt lat="40.0729346" lon="-105.2307657">
  <ele>1595.56</ele>
  <time>2026-08-28T19:11:45Z</time>
  <course>317.72</course>
  <speed>0.01</speed>
  <fix>3d</fix>
</trkpt>
<trkpt lat="40.0729347" lon="-105.2307656">
  <ele>1595.48</ele>
  <time>2026-08-28T19:11:45Z</time>
  <course>257.1</course>
  <speed>0.0</speed>
  <fix>3d</fix>
</trkpt>
<trkpt lat="40.0729347" lon="-105.2307657">
  <ele>1595.56</ele>
  <time>2026-08-28T19:11:45Z</time>
  <course>314.05</course>
  <speed>0.0</speed>
  <fix>3d</fix>
</trkpt>
<trkpt lat="40.0729347" lon="-105.2307656">
  <ele>1595.48</ele>
  <time>2026-08-28T19:11:45Z</time>
  <course>349.61</course>
  <speed>0.0</speed>
  <fix>3d</fix>
</trkpt>
<trkpt lat="40.0729346" lon="-105.2307657">
  <ele>1595.57</ele>
  <time>2026-08-28T19:11:45Z</time>
  <course>317.87</course>
  <speed>0.0</speed>
  <fix>3d</fix>
</trkpt>
<trkpt lat="40.0729347" lon="-105.2307656">
  <ele>1595.48</ele>
  <time>2026-08-28T19:11:45Z</time>
  <course>266.81</course>
  <speed>0.0</speed>
  <fix>3d</fix>
</trkpt>
<trkpt lat="40.0729347" lon="-105.2307657">
  <ele>1595.57</ele>
  <time>2026-08-28T19:11:45Z</time>
  <course>314.31</course>
  <speed>0.01</speed>
  <fix>3d</fix>
</trkpt>
<trkpt lat="40.0729347" lon="-105.2307656">
  <ele>1595.48</ele>
  <time>2026-08-28T19:11:45Z</time>
  <course>303.25</course>
  <speed>0.0</speed>
  <fix>3d</fix>
</trkpt>
<trkpt lat="40.0729347" lon="-105.2307657">
  <ele>1595.57</ele>
  <time>2026-08-28T19:11:45Z</time>
  <course>317.42</course>
  <speed>0.01</speed>
  <fix>3d</fix>
</trkpt>
<trkpt lat="40.0729347" lon="-105.2307656">
  <ele>1595.48</ele>
  <time>2026-08-28T19:11:45Z</time>
  <course>278.28</course>
  <speed>0.0</speed>
  <fix>3d</fix>
</trkpt>
<trkpt lat="40.0729347" lon="-105.2307657">
  <ele>1595.57</ele>
  <time>2026-08-28T19:11:45Z</time>
  <course>314.84</course>
  <speed>0.01</speed>
  <fix>3d</fix>
</trkpt>
<trkpt lat="40.0729347" lon="-105.2307656">
  <ele>1595.48</ele>
  <time>2026-08-28T19:11:45Z</time>
  <course>281.21</course>
  <speed>0.0</speed>
  <fix>3d</fix>
</trkpt>
<trkpt lat="40.0729347" lon="-105.2307657">
  <ele>1595.57</ele>
  <time>2026-08-28T19:11:45Z</time>
  <course>316.96</course>
  <speed>0.01414213562373095</speed>
  <fix>3d</fix>
</trkpt>
<trkpt lat="40.0729347" lon="-105.2307657">
  <ele>1595.48</ele>
  <time>2026-08-28T19:11:45Z</time>
  <course>282.35</course>
  <speed>0.0</speed>
  <fix>3d</fix>
</trkpt>
<trkpt lat="40.0729347" lon="-105.2307657">
  <ele>1595.57</ele>
  <time>2026-08-28T19:11:45Z</time>
  <course>315.21</course>
  <speed>0.01</speed>
  <fix>3d</fix>
</trkpt>
<trkpt lat="40.0729347" lon="-105.2307658">
  <ele>1595.48</ele>
  <time>2026-08-28T19:11:45Z</time>
  <course>277.09</course>
  <speed>0.0</speed>
  <fix>3d</fix>
</trkpt>
<trkpt lat="40.0729347" lon="-105.2307657">
  <ele>1595.57</ele>
  <time>2026-08-28T19:11:45Z</time>
  <course>316.77</course>
  <speed>0.01414213562373095</speed>
  <fix>3d</fix>
</trkpt>
<trkpt lat="40.0729347" lon="-105.2307658">
  <ele>1595.48</ele>
  <time>2026-08-28T19:11:45Z</time>
  <course>282.05</course>
  <speed>0.0</speed>
  <fix>3d</fix>
</trkpt>
<trkpt lat="40.0729347" lon="-105.2307657">
  <ele>1595.56</ele>
  <time>2026-08-28T19:11:45Z</time>
  <course>315.26</course>
  <speed>0.01</speed>
  <fix>3d</fix>
</trkpt>
<trkpt lat="40.0729347" lon="-105.2307658">
  <ele>1595.48</ele>
  <time>2026-08-28T19:11:45Z</time>
  <course>280.36</course>
  <speed>0.0</speed>
  <fix>3d</fix>
</trkpt>
<trkpt lat="40.0729347" lon="-105.2307657">
  <ele>1595.56</ele>
  <time>2026-08-28T19:11:45Z</time>
  <course>316.84</course>
  <speed>0.01</speed>
  <fix>3d</fix>
</trkpt>
<trkpt lat="40.0729347" lon="-105.2307658">
  <ele>1595.48</ele>
  <time>2026-08-28T19:11:45Z</time>
  <course>281.49</course>
  <speed>0.0</speed>
  <fix>3d</fix>
</trkpt>
<trkpt lat="40.0729347" lon="-105.2307657">
  <ele>1595.56</ele>
  <time>2026-08-28T19:11:45Z</time>
  <course>315.01</course>
  <speed>0.01</speed>
  <fix>3d</fix>
</trkpt>
<trkpt lat="40.0729347" lon="-105.2307658">
  <ele>1595.48</ele>
  <time>2026-08-28T19:11:45Z</time>
  <course>285.38</course>
  <speed>0.0</speed>
  <fix>3d</fix>
</trkpt>
<trkpt lat="40.0729347" lon="-105.2307658">
  <ele>1595.55</ele>
  <time>2026-08-28T19:11:45Z</time>
  <course>317.11</course>
  <speed>0.01</speed>
  <fix>3d</fix>
</trkpt>
<trkpt lat="40.0729347" lon="-105.2307658">
  <ele>1595.48</ele>
  <time>2026-08-28T19:11:45Z</time>
  <course>285.36</course>
  <speed>0.0</speed>
  <fix>3d</fix>
</trkpt>
<trkpt lat="40.0729347" lon="-105.2307658">
  <ele>1595.56</ele>
  <time>2026-08-28T19:11:45Z</time>
  <course>314.66</course>
  <speed>0.0</speed>
  <fix>3d</fix>
</trkpt>
<trkpt lat="40.0729348" lon="-105.2307659">
  <ele>1595.48</ele>
  <time>2026-08-28T19:11:45Z</time>
  <course>283.18</course>
  <speed>0.0</speed>
  <fix>3d</fix>
</trkpt>
<trkpt lat="40.0729347" lon="-105.2307658">
  <ele>1595.56</ele>
  <time>2026-08-28T19:11:45Z</time>
  <course>317.35</course>
  <speed>0.0</speed>
  <fix>3d</fix>
</trkpt>
<trkpt lat="40.0729348" lon="-105.2307659">
  <ele>1595.49</ele>
  <time>2026-08-28T19:11:45Z</time>
  <course>294.3</course>
  <speed>0.0</speed>
  <fix>3d</fix>
</trkpt>
<trkpt lat="40.0729347" lon="-105.2307658">
  <ele>1595.56</ele>
  <time>2026-08-28T19:11:45Z</time>
  <course>314.68</course>
  <speed>0.01</speed>
  <fix>3d</fix>
</trkpt>
<trkpt lat="40.0729348" lon="-105.2307659">
  <ele>1595.49</ele>
  <time>2026-08-28T19:11:45Z</time>
  <course>274.51</course>
  <speed>0.01</speed>
  <fix>3d</fix>
</trkpt>
<trkpt lat="40.0729347" lon="-105.2307659">
  <ele>1595.57</ele>
  <time>2026-08-28T19:11:45Z</time>
  <course>316.99</course>
  <speed>0.01</speed>
  <fix>3d</fix>
</trkpt>
<trkpt lat="40.0729348" lon="-105.2307659">
  <ele>1595.49</ele>
  <time>2026-08-28T19:11:45Z</time>
  <course>307.72</course>
  <speed>0.0</speed>
  <fix>3d</fix>
</trkpt>
<trkpt lat="40.0729347" lon="-105.2307659">
  <ele>1595.57</ele>
  <time>2026-08-28T19:11:45Z</time>
  <course>315.53</course>
  <speed>0.02</speed>
  <fix>3d</fix>
</trkpt>
<trkpt lat="40.0729348" lon="-105.2307659">
  <ele>1595.5</ele>
  <time>2026-08-28T19:11:45Z</time>
  <course>267.88</course>
  <speed>0.01</speed>
  <fix>3d</fix>
</trkpt>
<trkpt lat="40.0729347" lon="-105.2307659">
  <ele>1595.57</ele>
  <time>2026-08-28T19:11:45Z</time>
  <course>315.8</course>
  <speed>0.01</speed>
  <fix>3d</fix>
</trkpt>
<trkpt lat="40.0729348" lon="-105.2307659">
  <ele>1595.5</ele>
  <time>2026-08-28T19:11:45Z</time>
  <course>310.23</course>
  <speed>0.0</speed>
  <fix>3d</fix>
</trkpt>
<trkpt lat="40.0729347" lon="-105.2307659">
  <ele>1595.57</ele>
  <time>2026-08-28T19:11:45Z</time>
  <course>316.85</course>
  <speed>0.01</speed>
  <fix>3d</fix>
</trkpt>
<trkpt lat="40.0729348" lon="-105.2307659">
  <ele>1595.5</ele>
  <time>2026-08-28T19:11:45Z</time>
  <course>274.75</course>
  <speed>0.01</speed>
  <fix>3d</fix>
</trkpt>
<trkpt lat="40.0729348" lon="-105.2307659">
  <ele>1595.57</ele>
  <time>2026-08-28T19:11:45Z</time>
  <course>314.85</course>
  <speed>0.0</speed>
  <fix>3d</fix>
</trkpt>
<trkpt lat="40.0729348" lon="-105.2307659">
  <ele>1595.5</ele>
  <time>2026-08-28T19:11:45Z</time>
  <course>281.71</course>
  <speed>0.01</speed>
  <fix>3d</fix>
</trkpt>
<trkpt lat="40.0729348" lon="-105.230766">
  <ele>1595.57</ele>
  <time>2026-08-28T19:11:45Z</time>
  <course>316.91</course>
  <speed>0.01</speed>
  <fix>3d</fix>
</trkpt>
<trkpt lat="40.0729348" lon="-105.230766">
  <ele>1595.5</ele>
  <time>2026-08-28T19:11:45Z</time>
  <course>312.97</course>
  <speed>0.01</speed>
  <fix>3d</fix>
</trkpt>
<trkpt lat="40.0729348" lon="-105.230766">
  <ele>1595.57</ele>
  <time>2026-08-28T19:11:45Z</time>
  <course>315.84</course>
  <speed>0.02</speed>
  <fix>3d</fix>
</trkpt>
<trkpt lat="40.0729348" lon="-105.2307661">
  <ele>1595.5</ele>
  <time>2026-08-28T19:11:45Z</time>
  <course>264.08</course>
  <speed>0.01</speed>
  <fix>3d</fix>
</trkpt>
<trkpt lat="40.0729348" lon="-105.230766">
  <ele>1595.57</ele>
  <time>2026-08-28T19:11:45Z</time>
  <course>315.29</course>
  <speed>0.01</speed>
  <fix>3d</fix>
</trkpt>
<trkpt lat="40.0729348" lon="-105.2307661">
  <ele>1595.5</ele>
  <time>2026-08-28T19:11:45Z</time>
  <course>310.99</course>
  <speed>0.01</speed>
  <fix>3d</fix>
</trkpt>
<trkpt lat="40.0729348" lon="-105.230766">
  <ele>1595.58</ele>
  <time>2026-08-28T19:11:45Z</time>
  <course>317.03</course>
  <speed>0.0</speed>
  <fix>3d</fix>
</trkpt>
<trkpt lat="40.0729348" lon="-105.2307661">
  <ele>1595.5</ele>
  <time>2026-08-28T19:11:45Z</time>
  <course>292.69</course>
  <speed>0.01</speed>
  <fix>3d</fix>
</trkpt>
<trkpt lat="40.0729348" lon="-105.2307661">
  <ele>1595.58</ele>
  <time>2026-08-28T19:11:45Z</time>
  <course>315.63</course>
  <speed>0.01</speed>
  <fix>3d</fix>
</trkpt>
<trkpt lat="40.0729348" lon="-105.2307661">
  <ele>1595.5</ele>
  <time>2026-08-28T19:11:45Z</time>
  <course>263.65</course>
  <speed>0.01</speed>
  <fix>3d</fix>
</trkpt>
<trkpt lat="40.0729348" lon="-105.2307661">
  <ele>1595.58</ele>
  <time>2026-08-28T19:11:45Z</time>
  <course>315.43</course>
  <speed>0.01</speed>
  <fix>3d</fix>
</trkpt>
<trkpt lat="40.0729348" lon="-105.2307661">
  <ele>1595.5</ele>
  <time>2026-08-28T19:11:45Z</time>
  <course>320.47</course>
  <speed>0.01</speed>
  <fix>3d</fix>
</trkpt>
<trkpt lat="40.0729348" lon="-105.2307661">
  <ele>1595.58</ele>
  <time>2026-08-28T19:11:45Z</time>
  <course>316.92</course>
  <speed>0.0</speed>
  <fix>3d</fix>
</trkpt>
<trkpt lat="40.0729348" lon="-105.2307662">
  <ele>1595.5</ele>
  <time>2026-08-28T19:11:45Z</time>
  <course>293.28</course>
  <speed>0.01</speed>
  <fix>3d</fix>
</trkpt>
<trkpt lat="40.0729348" lon="-105.2307661">
  <ele>1595.57</ele>
  <time>2026-08-28T19:11:45Z</time>
  <course>315.97</course>
  <speed>0.01</speed>
  <fix>3d</fix>
</trkpt>
<trkpt lat="40.0729348" lon="-105.2307663">
  <ele>1595.5</ele>
  <time>2026-08-28T19:11:45Z</time>
  <course>263.28</course>
  <speed>0.02</speed>
  <fix>3d</fix>
</trkpt>
<trkpt lat="40.0729348" lon="-105.2307662">
  <ele>1595.57</ele>
  <time>2026-08-28T19:11:45Z</time>
  <course>315.18</course>
  <speed>0.0</speed>
  <fix>3d</fix>
</trkpt>
<trkpt lat="40.0729348" lon="-105.2307663">
  <ele>1595.5</ele>
  <time>2026-08-28T19:11:45Z</time>
  <course>311.14</course>
  <speed>0.01</speed>
  <fix>3d</fix>
</trkpt>
<trkpt lat="40.0729348" lon="-105.2307662">
  <ele>1595.56</ele>
  <time>2026-08-28T19:11:45Z</time>
  <course>316.4</course>
  <speed>0.01</speed>
  <fix>3d</fix>
</trkpt>
<trkpt lat="40.0729349" lon="-105.2307663">
  <ele>1595.5</ele>
  <time>2026-08-28T19:11:45Z</time>
  <course>320.77</course>
  <speed>0.01</speed>
  <fix>3d</fix>
</trkpt>
<trkpt lat="40.0729348" lon="-105.2307662">
  <ele>1595.56</ele>
  <time>2026-08-28T19:11:45Z</time>
  <course>316.64</course>
  <speed>0.01</speed>
  <fix>3d</fix>
</trkpt>
<trkpt lat="40.0729349" lon="-105.2307663">
  <ele>1595.5</ele>
  <time>2026-08-28T19:11:45Z</time>
  <course>267.55</course>
  <speed>0.02</speed>
  <fix>3d</fix>
</trkpt>
<trkpt lat="40.0729348" lon="-105.2307663">
  <ele>1595.56</ele>
  <time>2026-08-28T19:11:45Z</time>
  <course>315.5</course>
  <speed>0.01</speed>
  <fix>3d</fix>
</trkpt>
<trkpt lat="40.0729349" lon="-105.2307663">
  <ele>1595.5</ele>
  <time>2026-08-28T19:11:45Z</time>
  <course>274.27</course>
  <speed>0.01</speed>
  <fix>3d</fix>
</trkpt>
<trkpt lat="40.0729348" lon="-105.2307663">
  <ele>1595.57</ele>
  <time>2026-08-28T19:11:45Z</time>
  <course>315.36</course>
  <speed>0.01</speed>
  <fix>3d</fix>
</trkpt>
<trkpt lat="40.0729349" lon="-105.2307664">
  <ele>1595.5</ele>
  <time>2026-08-28T19:11:45Z</time>
  <course>327.99</course>
  <speed>0.01</speed>
  <fix>3d</fix>
</trkpt>
<trkpt lat="40.0729349" lon="-105.2307664">
  <ele>1595.57</ele>
  <time>2026-08-28T19:11:45Z</time>
  <course>316.3</course>
  <speed>0.01</speed>
  <fix>3d</fix>
</trkpt>
<trkpt lat="40.0729349" lon="-105.2307665">
  <ele>1595.5</ele>
  <time>2026-08-28T19:11:45Z</time>
  <course>312.93</course>
  <speed>0.01</speed>
  <fix>3d</fix>
</trkpt>
<trkpt lat="40.0729349" lon="-105.2307664">
  <ele>1595.57</ele>
  <time>2026-08-28T19:11:45Z</time>
  <course>316.69</course>
  <speed>0.0</speed>
  <fix>3d</fix>
</trkpt>
<trkpt lat="40.0729349" lon="-105.2307665">
  <ele>1595.5</ele>
  <time>2026-08-28T19:11:45Z</time>
  <course>267.29</course>
  <speed>0.02</speed>
  <fix>3d</fix>
</trkpt>
<trkpt lat="40.0729349" lon="-105.2307664">
  <ele>1595.57</ele>
  <time>2026-08-28T19:11:45Z</time>
  <course>316.08</course>
  <speed>0.01</speed>
  <fix>3d</fix>
</trkpt>
<trkpt lat="40.0729349" lon="-105.2307665">
  <ele>1595.5</ele>
  <time>2026-08-28T19:11:45Z</time>
  <course>264.8</course>
  <speed>0.02</speed>
  <fix>3d</fix>
</trkpt>
<trkpt lat="40.0729349" lon="-105.2307665">
  <ele>1595.57</ele>
  <time>2026-08-28T19:11:45Z</time>
  <course>315.46</course>
  <speed>0.01</speed>
  <fix>3d</fix>
</trkpt>
<trkpt lat="40.0729349" lon="-105.2307666">
  <ele>1595.5</ele>
  <time>2026-08-28T19:11:45Z</time>
  <course>297.62</course>
  <speed>0.01</speed>
  <fix>3d</fix>
</trkpt>
<trkpt lat="40.0729349" lon="-105.2307665">
  <ele>1595.57</ele>
  <time>2026-08-28T19:11:45Z</time>
  <course>315.51</course>
  <speed>0.0</speed>
  <fix>3d</fix>
</trkpt>
<trkpt lat="40.0729349" lon="-105.2307666">
  <ele>1595.5</ele>
  <time>2026-08-28T19:11:45Z</time>
  <course>332.52</course>
  <speed>0.01</speed>
  <fix>3d</fix>
</trkpt>
<trkpt lat="40.0729349" lon="-105.2307666">
  <ele>1595.57</ele>
  <time>2026-08-28T19:11:45Z</time>
  <course>316.04</course>
  <speed>0.01</speed>
  <fix>3d</fix>
</trkpt>
<trkpt lat="40.0729349" lon="-105.2307666">
  <ele>1595.5</ele>
  <time>2026-08-28T19:11:45Z</time>
  <course>316.25</course>
  <speed>0.01</speed>
  <fix>3d</fix>
</trkpt>
<trkpt lat="40.0729349" lon="-105.2307666">
  <ele>1595.57</ele>
  <time>2026-08-28T19:11:45Z</time>
  <course>316.5</course>
  <speed>0.01</speed>
  <fix>3d</fix>
</trkpt>
<trkpt lat="40.0729349" lon="-105.2307666">
  <ele>1595.5</ele>
  <time>2026-08-28T19:11:45Z</time>
  <course>278.81</course>
  <speed>0.01</speed>
  <fix>3d</fix>
</trkpt>
<trkpt lat="40.0729349" lon="-105.2307666">
  <ele>1595.57</ele>
  <time>2026-08-28T19:11:45Z</time>
  <course>316.55</course>
  <speed>0.0</speed>
  <fix>3d</fix>
</trkpt>
<trkpt lat="40.072935" lon="-105.2307667">
  <ele>1595.5</ele>
  <time>2026-08-28T19:11:45Z</time>
  <course>264.96</course>
  <speed>0.02</speed>
  <fix>3d</fix>
</trkpt>
<trkpt lat="40.0729349" lon="-105.2307666">
  <ele>1595.57</ele>
  <time>2026-08-28T19:11:45Z</time>
  <course>316.31</course>
  <speed>0.01</speed>
  <fix>3d</fix>
</trkpt>
<trkpt lat="40.072935" lon="-105.2307668">
  <ele>1595.5</ele>
  <time>2026-08-28T19:11:45Z</time>
  <course>266.66</course>
  <speed>0.02</speed>
  <fix>3d</fix>
</trkpt>
<trkpt lat="40.0729349" lon="-105.2307667">
  <ele>1595.57</ele>
  <time>2026-08-28T19:11:45Z</time>
  <course>315.99</course>
  <speed>0.01</speed>
  <fix>3d</fix>
</trkpt>
<trkpt lat="40.072935" lon="-105.2307668">
  <ele>1595.5</ele>
  <time>2026-08-28T19:11:45Z</time>
  <course>278.58</course>
  <speed>0.02</speed>
  <fix>3d</fix>
</trkpt>
<trkpt lat="40.0729349" lon="-105.2307668">
  <ele>1595.57</ele>
  <time>2026-08-28T19:11:45Z</time>
  <course>315.77</course>
  <speed>0.01</speed>
  <fix>3d</fix>
</trkpt>
<trkpt lat="40.072935" lon="-105.2307668">
  <ele>1595.5</ele>
  <time>2026-08-28T19:11:45Z</time>
  <course>297.57</course>
  <speed>0.01</speed>
  <fix>3d</fix>
</trkpt>
<trkpt lat="40.0729349" lon="-105.2307668">
  <ele>1595.56</ele>
  <time>2026-08-28T19:11:45Z</time>
  <course>315.61</course>
  <speed>0.01</speed>
  <fix>3d</fix>
</trkpt>
<trkpt lat="40.072935" lon="-105.2307668">
  <ele>1595.5</ele>
  <time>2026-08-28T19:11:45Z</time>
  <course>314.82</course>
  <speed>0.01</speed>
  <fix>3d</fix>
</trkpt>
<trkpt lat="40.072935" lon="-105.2307668">
  <ele>1595.56</ele>
  <time>2026-08-28T19:11:45Z</time>
  <course>315.56</course>
  <speed>0.01</speed>
  <fix>3d</fix>
</trkpt>
<trkpt lat="40.072935" lon="-105.2307669">
  <ele>1595.5</ele>
  <time>2026-08-28T19:11:45Z</time>
  <course>324.76</course>
  <speed>0.01</speed>
  <fix>3d</fix>
</trkpt>
<trkpt lat="40.072935" lon="-105.2307669">
  <ele>1595.57</ele>
  <time>2026-08-28T19:11:45Z</time>
  <course>315.55</course>
  <speed>0.01</speed>
  <fix>3d</fix>
</trkpt>
<trkpt lat="40.072935" lon="-105.230767">
  <ele>1595.5</ele>
  <time>2026-08-28T19:11:45Z</time>
  <course>328.53</course>
  <speed>0.01</speed>
  <fix>3d</fix>
</trkpt>
<trkpt lat="40.072935" lon="-105.2307669">
  <ele>1595.57</ele>
  <time>2026-08-28T19:11:45Z</time>
  <course>315.58</course>
  <speed>0.0</speed>
  <fix>3d</fix>
</trkpt>
<trkpt lat="40.072935" lon="-105.230767">
  <ele>1595.5</ele>
  <time>2026-08-28T19:11:45Z</time>
  <course>328.72</course>
  <speed>0.01</speed>
  <fix>3d</fix>
</trkpt>
<trkpt lat="40.072935" lon="-105.2307669">
  <ele>1595.58</ele>
  <time>2026-08-28T19:11:45Z</time>
  <course>315.61</course>
  <speed>0.01</speed>
  <fix>3d</fix>
</trkpt>
<trkpt lat="40.072935" lon="-105.2307671">
  <ele>1595.5</ele>
  <time>2026-08-28T19:11:45Z</time>
  <course>326.98</course>
  <speed>0.01</speed>
  <fix>3d</fix>
</trkpt>
<trkpt lat="40.0729351" lon="-105.2307669">
  <ele>1595.58</ele>
  <time>2026-08-28T19:11:45Z</time>
  <course>315.63</course>
  <speed>0.01</speed>
  <fix>3d</fix>
</trkpt>
<trkpt lat="40.072935" lon="-105.2307671">
  <ele>1595.5</ele>
  <time>2026-08-28T19:11:45Z</time>
  <course>324.16</course>
  <speed>0.02</speed>
  <fix>3d</fix>
</trkpt>
<trkpt lat="40.0729351" lon="-105.230767">
  <ele>1595.59</ele>
  <time>2026-08-28T19:11:45Z</time>
  <course>315.68</course>
  <speed>0.0</speed>
  <fix>3d</fix>
</trkpt>
<trkpt lat="40.072935" lon="-105.2307671">
  <ele>1595.5</ele>
  <time>2026-08-28T19:11:45Z</time>
  <course>320.31</course>
  <speed>0.02</speed>
  <fix>3d</fix>
</trkpt>
<trkpt lat="40.0729351" lon="-105.230767">
  <ele>1595.59</ele>
  <time>2026-08-28T19:11:45Z</time>
  <course>315.73</course>
  <speed>0.0</speed>
  <fix>3d</fix>
</trkpt>
<trkpt lat="40.072935" lon="-105.2307672">
  <ele>1595.5</ele>
  <time>2026-08-28T19:11:45Z</time>
  <course>315.47</course>
  <speed>0.02</speed>
  <fix>3d</fix>
</trkpt>
<trkpt lat="40.0729351" lon="-105.230767">
  <ele>1595.59</ele>
  <time>2026-08-28T19:11:45Z</time>
  <course>315.84</course>
  <speed>0.01</speed>
  <fix>3d</fix>
</trkpt>
<trkpt lat="40.072935" lon="-105.2307673">
  <ele>1595.5</ele>
  <time>2026-08-28T19:11:45Z</time>
  <course>308.2</course>
  <speed>0.02</speed>
  <fix>3d</fix>
</trkpt>
<trkpt lat="40.0729351" lon="-105.2307671">
  <ele>1595.59</ele>
  <time>2026-08-28T19:11:45Z</time>
  <course>316.02</course>
  <speed>0.01</speed>
  <fix>3d</fix>
</trkpt>
<trkpt lat="40.072935" lon="-105.2307673">
  <ele>1595.49</ele>
  <time>2026-08-28T19:11:45Z</time>
  <course>296.92</course>
  <speed>0.02</speed>
  <fix>3d</fix>
</trkpt>
<trkpt lat="40.0729351" lon="-105.2307671">
  <ele>1595.59</ele>
  <time>2026-08-28T19:11:45Z</time>
  <course>316.22</course>
  <speed>0.01</speed>
  <fix>3d</fix>
</trkpt>
<trkpt lat="40.0729351" lon="-105.2307673">
  <ele>1595.49</ele>
  <time>2026-08-28T19:11:45Z</time>
  <course>283.19</course>
  <speed>0.02</speed>
  <fix>3d</fix>
</trkpt>
<trkpt lat="40.0729351" lon="-105.2307672">
  <ele>1595.59</ele>
  <time>2026-08-28T19:11:45Z</time>
  <course>316.35</course>
  <speed>0.01</speed>
  <fix>3d</fix>
</trkpt>
<trkpt lat="40.0729351" lon="-105.2307674">
  <ele>1595.49</ele>
  <time>2026-08-28T19:11:45Z</time>
  <course>271.79</course>
  <speed>0.02</speed>
  <fix>3d</fix>
</trkpt>
<trkpt lat="40.0729351" lon="-105.2307673">
  <ele>1595.59</ele>
  <time>2026-08-28T19:11:45Z</time>
  <course>316.29</course>
  <speed>0.01</speed>
  <fix>3d</fix>
</trkpt>
<trkpt lat="40.0729351" lon="-105.2307675">
  <ele>1595.48</ele>
  <time>2026-08-28T19:11:45Z</time>
  <course>266.71</course>
  <speed>0.03</speed>
  <fix>3d</fix>
</trkpt>
<trkpt lat="40.0729351" lon="-105.2307673">
  <ele>1595.59</ele>
  <time>2026-08-28T19:11:45Z</time>
  <course>316.04</course>
  <speed>0.01</speed>
  <fix>3d</fix>
</trkpt>
<trkpt lat="40.0729351" lon="-105.2307675">
  <ele>1595.48</ele>
  <time>2026-08-28T19:11:45Z</time>
  <course>269.85</course>
  <speed>0.03</speed>
  <fix>3d</fix>
</trkpt>
<trkpt lat="40.0729351" lon="-105.2307674">
  <ele>1595.59</ele>
  <time>2026-08-28T19:11:45Z</time>
  <course>315.8</course>
  <speed>0.01</speed>
  <fix>3d</fix>
</trkpt>
<trkpt lat="40.0729351" lon="-105.2307676">
  <ele>1595.47</ele>
  <time>2026-08-28T19:11:45Z</time>
  <course>282.66</course>
  <speed>0.02</speed>
  <fix>3d</fix>
</trkpt>
<trkpt lat="40.0729351" lon="-105.2307675">
  <ele>1595.58</ele>
  <time>2026-08-28T19:11:45Z</time>
  <course>315.9</course>
  <speed>0.01</speed>
  <fix>3d</fix>
</trkpt>
<trkpt lat="40.0729351" lon="-105.2307677">
  <ele>1595.47</ele>
  <time>2026-08-28T19:11:45Z</time>
  <course>295.44</course>
  <speed>0.02</speed>
  <fix>3d</fix>
</trkpt>
<trkpt lat="40.0729351" lon="-105.2307676">
  <ele>1595.58</ele>
  <time>2026-08-28T19:11:45Z</time>
  <course>316.22</course>
  <speed>0.01</speed>
  <fix>3d</fix>
</trkpt>
<trkpt lat="40.0729351" lon="-105.2307677">
  <ele>1595.46</ele>
  <time>2026-08-28T19:11:45Z</time>
  <course>288.42</course>
  <speed>0.02</speed>
  <fix>3d</fix>
</trkpt>
<trkpt lat="40.0729351" lon="-105.2307676">
  <ele>1595.58</ele>
  <time>2026-08-28T19:11:45Z</time>
  <course>316.22</course>
  <speed>0.01</speed>
  <fix>3d</fix>
</trkpt>
<trkpt lat="40.0729351" lon="-105.2307678">
  <ele>1595.46</ele>
  <time>2026-08-28T19:11:45Z</time>
  <course>275.79</course>
  <speed>0.02</speed>
  <fix>3d</fix>
</trkpt>
<trkpt lat="40.0729351" lon="-105.2307677">
  <ele>1595.57</ele>
  <time>2026-08-28T19:11:45Z</time>
  <course>315.88</course>
  <speed>0.01</speed>
  <fix>3d</fix>
</trkpt>
<trkpt lat="40.0729351" lon="-105.2307678">
  <ele>1595.46</ele>
  <time>2026-08-28T19:11:45Z</time>
  <course>279.81</course>
  <speed>0.02</speed>
  <fix>3d</fix>
</trkpt>
<trkpt lat="40.0729351" lon="-105.2307677">
  <ele>1595.57</ele>
  <time>2026-08-28T19:11:45Z</time>
  <course>315.9</course>
  <speed>0.01</speed>
  <fix>3d</fix>
</trkpt>
<trkpt lat="40.0729351" lon="-105.2307679">
  <ele>1595.45</ele>
  <time>2026-08-28T19:11:45Z</time>
  <course>296.56</course>
  <speed>0.02</speed>
  <fix>3d</fix>
</trkpt>
<trkpt lat="40.0729351" lon="-105.2307678">
  <ele>1595.56</ele>
  <time>2026-08-28T19:11:45Z</time>
  <course>316.21</course>
  <speed>0.01</speed>
  <fix>3d</fix>
</trkpt>
<trkpt lat="40.0729352" lon="-105.230768">
  <ele>1595.45</ele>
  <time>2026-08-28T19:11:45Z</time>
  <course>290.67</course>
  <speed>0.02</speed>
  <fix>3d</fix>
</trkpt>
<trkpt lat="40.0729352" lon="-105.2307679">
  <ele>1595.56</ele>
  <time>2026-08-28T19:11:45Z</time>
  <course>315.93</course>
  <speed>0.01</speed>
  <fix>3d</fix>
</trkpt>
<trkpt lat="40.0729353" lon="-105.230768">
  <ele>1595.45</ele>
  <time>2026-08-28T19:11:45Z</time>
  <course>281.36</course>
  <speed>0.02</speed>
  <fix>3d</fix>
</trkpt>
<trkpt lat="40.0729352" lon="-105.2307679">
  <ele>1595.56</ele>
  <time>2026-08-28T19:11:45Z</time>
  <course>315.87</course>
  <speed>0.01</speed>
  <fix>3d</fix>
</trkpt>
<trkpt lat="40.0729353" lon="-105.2307681">
  <ele>1595.45</ele>
  <time>2026-08-28T19:11:45Z</time>
  <course>292.99</course>
  <speed>0.02</speed>
  <fix>3d</fix>
</trkpt>
<trkpt lat="40.0729352" lon="-105.230768">
  <ele>1595.56</ele>
  <time>2026-08-28T19:11:45Z</time>
  <course>316.16</course>
  <speed>0.01</speed>
  <fix>3d</fix>
</trkpt>
<trkpt lat="40.0729353" lon="-105.2307682">
  <ele>1595.45</ele>
  <time>2026-08-28T19:11:45Z</time>
  <course>289.66</course>
  <speed>0.02</speed>
  <fix>3d</fix>
</trkpt>
<trkpt lat="40.0729352" lon="-105.2307681">
  <ele>1595.57</ele>
  <time>2026-08-28T19:11:45Z</time>
  <course>315.84</course>
  <speed>0.01414213562373095</speed>
  <fix>3d</fix>
</trkpt>
<trkpt lat="40.0729353" lon="-105.2307682">
  <ele>1595.45</ele>
  <time>2026-08-28T19:11:45Z</time>
  <course>284.61</course>
  <speed>0.02</speed>
  <fix>3d</fix>
</trkpt>
<trkpt lat="40.0729352" lon="-105.2307681">
  <ele>1595.57</ele>
  <time>2026-08-28T19:11:45Z</time>
  <course>316.11</course>
  <speed>0.01</speed>
  <fix>3d</fix>
</trkpt>
<trkpt lat="40.0729353" lon="-105.2307683">
  <ele>1595.45</ele>
  <time>2026-08-28T19:11:45Z</time>
  <course>291.29</course>
  <speed>0.02</speed>
  <fix>3d</fix>
</trkpt>
<trkpt lat="40.0729353" lon="-105.2307682">
  <ele>1595.57</ele>
  <time>2026-08-28T19:11:45Z</time>
  <course>315.97</course>
  <speed>0.01</speed>
  <fix>3d</fix>
</trkpt>
<trkpt lat="40.0729353" lon="-105.2307683">
  <ele>1595.45</ele>
  <time>2026-08-28T19:11:45Z</time>
  <course>285.51</course>
  <speed>0.02</speed>
  <fix>3d</fix>
</trkpt>
<trkpt lat="40.0729353" lon="-105.2307682">
  <ele>1595.57</ele>
  <time>2026-08-28T19:11:45Z</time>
  <course>316.04</course>
  <speed>0.01</speed>
  <fix>3d</fix>
</trkpt>
<trkpt lat="40.0729353" lon="-105.2307684">
  <ele>1595.45</ele>
  <time>2026-08-28T19:11:45Z</time>
  <course>288.65</course>
  <speed>0.02</speed>
  <fix>3d</fix>
</trkpt>
<trkpt lat="40.0729353" lon="-105.2307683">
  <ele>1595.57</ele>
  <time>2026-08-28T19:11:45Z</time>
  <course>316.0</course>
  <speed>0.01</speed>
  <fix>3d</fix>
</trkpt>
<trkpt lat="40.0729354" lon="-105.2307684">
  <ele>1595.45</ele>
  <time>2026-08-28T19:11:45Z</time>
  <course>287.84</course>
  <speed>0.02</speed>
  <fix>3d</fix>
</trkpt>
<trkpt lat="40.0729353" lon="-105.2307684">
  <ele>1595.57</ele>
  <time>2026-08-28T19:11:45Z</time>
  <course>316.05</course>
  <speed>0.01</speed>
  <fix>3d</fix>
</trkpt>
<trkpt lat="40.0729354" lon="-105.2307685">
  <ele>1595.45</ele>
  <time>2026-08-28T19:11:45Z</time>
  <course>287.59</course>
  <speed>0.02</speed>
  <fix>3d</fix>
</trkpt>
<trkpt lat="40.0729353" lon="-105.2307684">
  <ele>1595.57</ele>
  <time>2026-08-28T19:11:45Z</time>
  <course>315.94</course>
  <speed>0.01</speed>
  <fix>3d</fix>
</trkpt>
<trkpt lat="40.0729354" lon="-105.2307685">
  <ele>1595.45</ele>
  <time>2026-08-28T19:11:45Z</time>
  <course>289.63</course>
  <speed>0.02</speed>
  <fix>3d</fix>
</trkpt>
<trkpt lat="40.0729353" lon="-105.2307685">
  <ele>1595.57</ele>
  <time>2026-08-28T19:11:45Z</time>
  <course>316.12</course>
  <speed>0.01</speed>
  <fix>3d</fix>
</trkpt>
<trkpt lat="40.0729354" lon="-105.2307686">
  <ele>1595.45</ele>
  <time>2026-08-28T19:11:45Z</time>
  <course>285.94</course>
  <speed>0.02</speed>
  <fix>3d</fix>
</trkpt>
<trkpt lat="40.0729354" lon="-105.2307685">
  <ele>1595.57</ele>
  <time>2026-08-28T19:11:45Z</time>
  <course>315.9</course>
  <speed>0.01</speed>
  <fix>3d</fix>
</trkpt>
<trkpt lat="40.0729354" lon="-105.2307687">
  <ele>1595.45</ele>
  <time>2026-08-28T19:11:45Z</time>
  <course>291.56</course>
  <speed>0.02</speed>
  <fix>3d</fix>
</trkpt>
<trkpt lat="40.0729354" lon="-105.2307686">
  <ele>1595.56</ele>
  <time>2026-08-28T19:11:45Z</time>
  <course>316.06</course>
  <speed>0.01</speed>
  <fix>3d</fix>
</trkpt>
<trkpt lat="40.0729354" lon="-105.2307687">
  <ele>1595.45</ele>
  <time>2026-08-28T19:11:45Z</time>
  <course>285.86</course>
  <speed>0.02</speed>
  <fix>3d</fix>
</trkpt>
<trkpt lat="40.0729354" lon="-105.2307686">
  <ele>1595.56</ele>
  <time>2026-08-28T19:11:45Z</time>
  <course>316.03</course>
  <speed>0.01</speed>
  <fix>3d</fix>
</trkpt>
<trkpt lat="40.0729354" lon="-105.2307688">
  <ele>1595.44</ele>
  <time>2026-08-28T19:11:45Z</time>
  <course>286.17</course>
  <speed>0.02</speed>
  <fix>3d</fix>
</trkpt>
<trkpt lat="40.0729354" lon="-105.2307687">
  <ele>1595.56</ele>
  <time>2026-08-28T19:11:45Z</time>
  <course>315.88</course>
  <speed>0.01</speed>
  <fix>3d</fix>
</trkpt>
<trkpt lat="40.0729355" lon="-105.2307689">
  <ele>1595.44</ele>
  <time>2026-08-28T19:11:45Z</time>
  <course>292.17</course>
  <speed>0.02</speed>
  <fix>3d</fix>
</trkpt>
<trkpt lat="40.0729354" lon="-105.2307688">
  <ele>1595.57</ele>
  <time>2026-08-28T19:11:45Z</time>
  <course>316.0</course>
  <speed>0.01</speed>
  <fix>3d</fix>
</trkpt>
<trkpt lat="40.0729355" lon="-105.2307689">
  <ele>1595.45</ele>
  <time>2026-08-28T19:11:45Z</time>
  <course>282.89</course>
  <speed>0.02</speed>
  <fix>3d</fix>
</trkpt>
<trkpt lat="40.0729354" lon="-105.2307688">
  <ele>1595.56</ele>
  <time>2026-08-28T19:11:45Z</time>
  <course>316.09</course>
  <speed>0.01</speed>
  <fix>3d</fix>
</trkpt>
<trkpt lat="40.0729355" lon="-105.230769">
  <ele>1595.45</ele>
  <time>2026-08-28T19:11:45Z</time>
  <course>281.24</course>
  <speed>0.02</speed>
  <fix>3d</fix>
</trkpt>
<trkpt lat="40.0729355" lon="-105.2307689">
  <ele>1595.56</ele>
  <time>2026-08-28T19:11:45Z</time>
  <course>315.99</course>
  <speed>0.01</speed>
  <fix>3d</fix>
</trkpt>
<trkpt lat="40.0729355" lon="-105.230769">
  <ele>1595.45</ele>
  <time>2026-08-28T19:11:45Z</time>
  <course>289.92</course>
  <speed>0.02</speed>
  <fix>3d</fix>
</trkpt>
<trkpt lat="40.0729355" lon="-105.2307689">
  <ele>1595.55</ele>
  <time>2026-08-28T19:11:45Z</time>
  <course>315.9</course>
  <speed>0.01</speed>
  <fix>3d</fix>
</trkpt>
<trkpt lat="40.0729355" lon="-105.2307691">
  <ele>1595.45</ele>
  <time>2026-08-28T19:11:46Z</time>
  <course>291.42</course>
  <speed>0.02</speed>
  <fix>3d</fix>
</trkpt>
<trkpt lat="40.0729355" lon="-105.230769">
  <ele>1595.55</ele>
  <time>2026-08-28T19:11:46Z</time>
  <course>315.91</course>
  <speed>0.01</speed>
  <fix>3d</fix>
</trkpt>
<trkpt lat="40.0729355" lon="-105.2307692">
  <ele>1595.45</ele>
  <time>2026-08-28T19:11:46Z</time>
  <course>284.31</course>
  <speed>0.02</speed>
  <fix>3d</fix>
</trkpt>
<trkpt lat="40.0729355" lon="-105.2307691">
  <ele>1595.55</ele>
  <time>2026-08-28T19:11:46Z</time>
  <course>315.94</course>
  <speed>0.01</speed>
  <fix>3d</fix>
</trkpt>
<trkpt lat="40.0729355" lon="-105.2307692">
  <ele>1595.45</ele>
  <time>2026-08-28T19:11:46Z</time>
  <course>279.42</course>
  <speed>0.03</speed>
  <fix>3d</fix>
</trkpt>
<trkpt lat="40.0729355" lon="-105.2307691">
  <ele>1595.55</ele>
  <time>2026-08-28T19:11:46Z</time>
  <course>315.98</course>
  <speed>0.01</speed>
  <fix>3d</fix>
</trkpt>
<trkpt lat="40.0729356" lon="-105.2307693">
  <ele>1595.45</ele>
  <time>2026-08-28T19:11:46Z</time>
  <course>279.14</course>
  <speed>0.03</speed>
  <fix>3d</fix>
</trkpt>
<trkpt lat="40.0729355" lon="-105.2307692">
  <ele>1595.55</ele>
  <time>2026-08-28T19:11:46Z</time>
  <course>315.99</course>
  <speed>0.01</speed>
  <fix>3d</fix>
</trkpt>
<trkpt lat="40.0729356" lon="-105.2307694">
  <ele>1595.46</ele>
  <time>2026-08-28T19:11:46Z</time>
  <course>281.09</course>
  <speed>0.02</speed>
  <fix>3d</fix>
</trkpt>
<trkpt lat="40.0729355" lon="-105.2307693">
  <ele>1595.55</ele>
  <time>2026-08-28T19:11:46Z</time>
  <course>315.99</course>
  <speed>0.01</speed>
  <fix>3d</fix>
</trkpt>
<trkpt lat="40.0729356" lon="-105.2307694">
  <ele>1595.46</ele>
  <time>2026-08-28T19:11:46Z</time>
  <course>283.18</course>
  <speed>0.02</speed>
  <fix>3d</fix>
</trkpt>
<trkpt lat="40.0729355" lon="-105.2307693">
  <ele>1595.55</ele>
  <time>2026-08-28T19:11:46Z</time>
  <course>315.98</course>
  <speed>0.01</speed>
  <fix>3d</fix>
</trkpt>
<trkpt lat="40.0729356" lon="-105.2307695">
  <ele>1595.47</ele>
  <time>2026-08-28T19:11:46Z</time>
  <course>284.32</course>
  <speed>0.02</speed>
  <fix>3d</fix>
</trkpt>
<trkpt lat="40.0729356" lon="-105.2307694">
  <ele>1595.56</ele>
  <time>2026-08-28T19:11:46Z</time>
  <course>315.98</course>
  <speed>0.01</speed>
  <fix>3d</fix>
</trkpt>
<trkpt lat="40.0729356" lon="-105.2307696">
  <ele>1595.47</ele>
  <time>2026-08-28T19:11:46Z</time>
  <course>284.49</course>
  <speed>0.02</speed>
  <fix>3d</fix>
</trkpt>
<trkpt lat="40.0729356" lon="-105.2307695">
  <ele>1595.57</ele>
  <time>2026-08-28T19:11:46Z</time>
  <course>315.98</course>
  <speed>0.01</speed>
  <fix>3d</fix>
</trkpt>
<trkpt lat="40.0729356" lon="-105.2307696">
  <ele>1595.48</ele>
  <time>2026-08-28T19:11:46Z</time>
  <course>284.23</course>
  <speed>0.02</speed>
  <fix>3d</fix>
</trkpt>
<trkpt lat="40.0729356" lon="-105.2307695">
  <ele>1595.57</ele>
  <time>2026-08-28T19:11:46Z</time>
  <course>316.0</course>
  <speed>0.01</speed>
  <fix>3d</fix>
</trkpt>
<trkpt lat="40.0729356" lon="-105.2307697">
  <ele>1595.48</ele>
  <time>2026-08-28T19:11:46Z</time>
  <course>284.2</course>
  <speed>0.02</speed>
  <fix>3d</fix>
</trkpt>
<trkpt lat="40.0729356" lon="-105.2307696">
  <ele>1595.57</ele>
  <time>2026-08-28T19:11:46Z</time>
  <course>316.0</course>
  <speed>0.01</speed>
  <fix>3d</fix>
</trkpt>
<trkpt lat="40.0729356" lon="-105.2307697">
  <ele>1595.49</ele>
  <time>2026-08-28T19:11:46Z</time>
  <course>284.94</course>
  <speed>0.02</speed>
  <fix>3d</fix>
</trkpt>
<trkpt lat="40.0729356" lon="-105.2307697">
  <ele>1595.57</ele>
  <time>2026-08-28T19:11:46Z</time>
  <course>315.99</course>
  <speed>0.01</speed>
  <fix>3d</fix>
</trkpt>
<trkpt lat="40.0729356" lon="-105.2307698">
  <ele>1595.49</ele>
  <time>2026-08-28T19:11:46Z</time>
  <course>286.14</course>
  <speed>0.02</speed>
  <fix>3d</fix>
</trkpt>
<trkpt lat="40.0729356" lon="-105.2307697">
  <ele>1595.57</ele>
  <time>2026-08-28T19:11:46Z</time>
  <course>316.0</course>
  <speed>0.01</speed>
  <fix>3d</fix>
</trkpt>
<trkpt lat="40.0729356" lon="-105.2307699">
  <ele>1595.49</ele>
  <time>2026-08-28T19:11:46Z</time>
  <course>287.31</course>
  <speed>0.03</speed>
  <fix>3d</fix>
</trkpt>
<trkpt lat="40.0729356" lon="-105.2307698">
  <ele>1595.57</ele>
  <time>2026-08-28T19:11:46Z</time>
  <course>316.0</course>
  <speed>0.01414213562373095</speed>
  <fix>3d</fix>
</trkpt>
<trkpt lat="40.0729356" lon="-105.2307699">
  <ele>1595.49</ele>
  <time>2026-08-28T19:11:46Z</time>
  <course>288.69</course>
  <speed>0.03</speed>
  <fix>3d</fix>
</trkpt>
<trkpt lat="40.0729356" lon="-105.2307699">
  <ele>1595.58</ele>
  <time>2026-08-28T19:11:46Z</time>
  <course>316.0</course>
  <speed>0.01414213562373095</speed>
  <fix>3d</fix>
</trkpt>
<trkpt lat="40.0729356" lon="-105.23077">
  <ele>1595.49</ele>
  <time>2026-08-28T19:11:46Z</time>
  <course>290.23</course>
  <speed>0.03</speed>
  <fix>3d</fix>
</trkpt>
<trkpt lat="40.0729357" lon="-105.23077">
  <ele>1595.58</ele>
  <time>2026-08-28T19:11:46Z</time>
  <course>316.0</course>
  <speed>0.022360679774997897</speed>
  <fix>3d</fix>
</trkpt>
<trkpt lat="40.0729357" lon="-105.2307701">
  <ele>1595.49</ele>
  <time>2026-08-28T19:11:46Z</time>
  <course>291.48</course>
  <speed>0.03</speed>
  <fix>3d</fix>
</trkpt>
<trkpt lat="40.0729357" lon="-105.23077">
  <ele>1595.58</ele>
  <time>2026-08-28T19:11:46Z</time>
  <course>316.02</course>
  <speed>0.022360679774997897</speed>
  <fix>3d</fix>
</trkpt>
<trkpt lat="40.0729357" lon="-105.2307702">
  <ele>1595.49</ele>
  <time>2026-08-28T19:11:46Z</time>
  <course>292.5</course>
  <speed>0.04</speed>
  <fix>3d</fix>
</trkpt>
<trkpt lat="40.0729357" lon="-105.2307701">
  <ele>1595.58</ele>
  <time>2026-08-28T19:11:46Z</time>
  <course>316.02</course>
  <speed>0.022360679774997897</speed>
  <fix>3d</fix>
</trkpt>
<trkpt lat="40.0729357" lon="-105.2307703">
  <ele>1595.49</ele>
  <time>2026-08-28T19:11:46Z</time>
  <course>293.5</course>
  <speed>0.04</speed>
  <fix>3d</fix>
</trkpt>
<trkpt lat="40.0729357" lon="-105.2307702">
  <ele>1595.58</ele>
  <time>2026-08-28T19:11:46Z</time>
  <course>316.0</course>
  <speed>0.022360679774997897</speed>
  <fix>3d</fix>
</trkpt>
<trkpt lat="40.0729358" lon="-105.2307704">
  <ele>1595.49</ele>
  <time>2026-08-28T19:11:46Z</time>
  <course>294.61</course>
  <speed>0.04</speed>
  <fix>3d</fix>
</trkpt>
<trkpt lat="40.0729358" lon="-105.2307703">
  <ele>1595.58</ele>
  <time>2026-08-28T19:11:46Z</time>
  <course>316.04</course>
  <speed>0.0282842712474619</speed>
  <fix>3d</fix>
</trkpt>
<trkpt lat="40.0729359" lon="-105.2307705">
  <ele>1595.49</ele>
  <time>2026-08-28T19:11:46Z</time>
  <course>295.33</course>
  <speed>0.04</speed>
  <fix>3d</fix>
</trkpt>
<trkpt lat="40.0729358" lon="-105.2307705">
  <ele>1595.59</ele>
  <time>2026-08-28T19:11:46Z</time>
  <course>316.03</course>
  <speed>0.03605551275463989</speed>
  <fix>3d</fix>
</trkpt>
<trkpt lat="40.0729359" lon="-105.2307706">
  <ele>1595.49</ele>
  <time>2026-08-28T19:11:46Z</time>
  <course>295.81</course>
  <speed>0.05</speed>
  <fix>3d</fix>
</trkpt>
<trkpt lat="40.0729359" lon="-105.2307706">
  <ele>1595.58</ele>
  <time>2026-08-28T19:11:46Z</time>
  <course>316.03</course>
  <speed>0.03605551275463989</speed>
  <fix>3d</fix>
</trkpt>
<trkpt lat="40.0729359" lon="-105.2307707">
  <ele>1595.48</ele>
  <time>2026-08-28T19:11:46Z</time>
  <course>296.67</course>
  <speed>0.05</speed>
  <fix>3d</fix>
</trkpt>
<trkpt lat="40.0729359" lon="-105.2307707">
  <ele>1595.58</ele>
  <time>2026-08-28T19:11:46Z</time>
  <course>316.04</course>
  <speed>0.03605551275463989</speed>
  <fix>3d</fix>
</trkpt>
<trkpt lat="40.072936" lon="-105.2307708">
  <ele>1595.48</ele>
  <time>2026-08-28T19:11:46Z</time>
  <course>297.48</course>
  <speed>0.05</speed>
  <fix>3d</fix>
</trkpt>
<trkpt lat="40.072936" lon="-105.2307708">
  <ele>1595.57</ele>
  <time>2026-08-28T19:11:46Z</time>
  <course>316.02</course>
  <speed>0.03605551275463989</speed>
  <fix>3d</fix>
</trkpt>
<trkpt lat="40.072936" lon="-105.2307709">
  <ele>1595.48</ele>
  <time>2026-08-28T19:11:46Z</time>
  <course>298.1</course>
  <speed>0.05</speed>
  <fix>3d</fix>
</trkpt>
<trkpt lat="40.072936" lon="-105.2307709">
  <ele>1595.57</ele>
  <time>2026-08-28T19:11:46Z</time>
  <course>316.01</course>
  <speed>0.04242640687119285</speed>
  <fix>3d</fix>
</trkpt>
<trkpt lat="40.0729361" lon="-105.2307711">
  <ele>1595.47</ele>
  <time>2026-08-28T19:11:46Z</time>
  <course>298.84</course>
  <speed>0.06</speed>
  <fix>3d</fix>
</trkpt>
<trkpt lat="40.0729361" lon="-105.2307711">
  <ele>1595.57</ele>
  <time>2026-08-28T19:11:46Z</time>
  <course>316.01</course>
  <speed>0.04242640687119285</speed>
  <fix>3d</fix>
</trkpt>
<trkpt lat="40.0729361" lon="-105.2307712">
  <ele>1595.47</ele>
  <time>2026-08-28T19:11:46Z</time>
  <course>299.48</course>
  <speed>0.06</speed>
  <fix>3d</fix>
</trkpt>
<trkpt lat="40.0729362" lon="-105.2307712">
  <ele>1595.57</ele>
  <time>2026-08-28T19:11:46Z</time>
  <course>316.01</course>
  <speed>0.05</speed>
  <fix>3d</fix>
</trkpt>
<trkpt lat="40.0729362" lon="-105.2307713">
  <ele>1595.47</ele>
  <time>2026-08-28T19:11:46Z</time>
  <course>299.74</course>
  <speed>0.06</speed>
  <fix>3d</fix>
</trkpt>
<trkpt lat="40.0729362" lon="-105.2307713">
  <ele>1595.57</ele>
  <time>2026-08-28T19:11:46Z</time>
  <course>316.01</course>
  <speed>0.05</speed>
  <fix>3d</fix>
</trkpt>
<trkpt lat="40.0729362" lon="-105.2307715">
  <ele>1595.47</ele>
  <time>2026-08-28T19:11:46Z</time>
  <course>300.14</course>
  <speed>0.06</speed>
  <fix>3d</fix>
</trkpt>
<trkpt lat="40.0729363" lon="-105.2307715">
  <ele>1595.57</ele>
  <time>2026-08-28T19:11:46Z</time>
  <course>313.91</course>
  <speed>0.05</speed>
  <fix>3d</fix>
</trkpt>
<trkpt lat="40.0729363" lon="-105.2307716">
  <ele>1595.47</ele>
  <time>2026-08-28T19:11:46Z</time>
  <course>307.2</course>
  <speed>0.06</speed>
  <fix>3d</fix>
</trkpt>
<trkpt lat="40.0729363" lon="-105.2307716">
  <ele>1595.56</ele>
  <time>2026-08-28T19:11:46Z</time>
  <course>316.43</course>
  <speed>0.05099019513592785</speed>
  <fix>3d</fix>
</trkpt>
<trkpt lat="40.0729363" lon="-105.2307717">
  <ele>1595.47</ele>
  <time>2026-08-28T19:11:46Z</time>
  <course>296.71</course>
  <speed>0.07</speed>
  <fix>3d</fix>
</trkpt>
<trkpt lat="40.0729364" lon="-105.2307717">
  <ele>1595.56</ele>
  <time>2026-08-28T19:11:46Z</time>
  <course>315.93</course>
  <speed>0.0316227766016838</speed>
  <fix>3d</fix>
</trkpt>
<trkpt lat="40.0729364" lon="-105.2307719">
  <ele>1595.47</ele>
  <time>2026-08-28T19:11:46Z</time>
  <course>293.88</course>
  <speed>0.06</speed>
  <fix>3d</fix>
</trkpt>
<trkpt lat="40.0729364" lon="-105.2307718">
  <ele>1595.56</ele>
  <time>2026-08-28T19:11:46Z</time>
  <course>315.49</course>
  <speed>0.04</speed>
  <fix>3d</fix>
</trkpt>
<trkpt lat="40.0729365" lon="-105.230772">
  <ele>1595.47</ele>
  <time>2026-08-28T19:11:46Z</time>
  <course>295.79</course>
  <speed>0.05</speed>
  <fix>3d</fix>
</trkpt>
<trkpt lat="40.0729364" lon="-105.230772">
  <ele>1595.56</ele>
  <time>2026-08-28T19:11:46Z</time>
  <course>316.97</course>
  <speed>0.02</speed>
  <fix>3d</fix>
</trkpt>
<trkpt lat="40.0729365" lon="-105.2307721">
  <ele>1595.47</ele>
  <time>2026-08-28T19:11:46Z</time>
  <course>287.75</course>
  <speed>0.04</speed>
  <fix>3d</fix>
</trkpt>
<trkpt lat="40.0729365" lon="-105.230772">
  <ele>1595.57</ele>
  <time>2026-08-28T19:11:46Z</time>
  <course>314.6</course>
  <speed>0.02</speed>
  <fix>3d</fix>
</trkpt>
<trkpt lat="40.0729365" lon="-105.2307722">
  <ele>1595.47</ele>
  <time>2026-08-28T19:11:46Z</time>
  <course>293.97</course>
  <speed>0.03</speed>
  <fix>3d</fix>
</trkpt>
<trkpt lat="40.0729365" lon="-105.2307721">
  <ele>1595.57</ele>
  <time>2026-08-28T19:11:46Z</time>
  <course>317.67</course>
  <speed>0.01</speed>
  <fix>3d</fix>
</trkpt>
<trkpt lat="40.0729366" lon="-105.2307723">
  <ele>1595.47</ele>
  <time>2026-08-28T19:11:46Z</time>
  <course>284.01</course>
  <speed>0.03</speed>
  <fix>3d</fix>
</trkpt>
<trkpt lat="40.0729365" lon="-105.2307722">
  <ele>1595.57</ele>
  <time>2026-08-28T19:11:46Z</time>
  <course>314.15</course>
  <speed>0.01</speed>
  <fix>3d</fix>
</trkpt>
<trkpt lat="40.0729366" lon="-105.2307724">
  <ele>1595.47</ele>
  <time>2026-08-28T19:11:46Z</time>
  <course>291.66</course>
  <speed>0.03</speed>
  <fix>3d</fix>
</trkpt>
<trkpt lat="40.0729365" lon="-105.2307723">
  <ele>1595.57</ele>
  <time>2026-08-28T19:11:46Z</time>
  <course>317.87</course>
  <speed>0.01</speed>
  <fix>3d</fix>
</trkpt>
<trkpt lat="40.0729366" lon="-105.2307725">
  <ele>1595.47</ele>
  <time>2026-08-28T19:11:46Z</time>
  <course>282.68</course>
  <speed>0.03</speed>
  <fix>3d</fix>
</trkpt>
<trkpt lat="40.0729366" lon="-105.2307723">
  <ele>1595.57</ele>
  <time>2026-08-28T19:11:46Z</time>
  <course>314.26</course>
  <speed>0.01</speed>
  <fix>3d</fix>
</trkpt>
<trkpt lat="40.0729366" lon="-105.2307725">
  <ele>1595.48</ele>
  <time>2026-08-28T19:11:46Z</time>
  <course>287.96</course>
  <speed>0.03</speed>
  <fix>3d</fix>
</trkpt>
<trkpt lat="40.0729366" lon="-105.2307724">
  <ele>1595.58</ele>
  <time>2026-08-28T19:11:46Z</time>
  <course>317.46</course>
  <speed>0.02</speed>
  <fix>3d</fix>
</trkpt>
<trkpt lat="40.0729367" lon="-105.2307726">
  <ele>1595.48</ele>
  <time>2026-08-28T19:11:46Z</time>
  <course>282.42</course>
  <speed>0.03</speed>
  <fix>3d</fix>
</trkpt>
<trkpt lat="40.0729366" lon="-105.2307725">
  <ele>1595.58</ele>
  <time>2026-08-28T19:11:46Z</time>
  <course>314.94</course>
  <speed>0.02</speed>
  <fix>3d</fix>
</trkpt>
<trkpt lat="40.0729367" lon="-105.2307727">
  <ele>1595.48</ele>
  <time>2026-08-28T19:11:46Z</time>
  <course>282.2</course>
  <speed>0.03</speed>
  <fix>3d</fix>
</trkpt>
<trkpt lat="40.0729366" lon="-105.2307726">
  <ele>1595.57</ele>
  <time>2026-08-28T19:11:46Z</time>
  <course>316.59</course>
  <speed>0.02</speed>
  <fix>3d</fix>
</trkpt>
<trkpt lat="40.0729367" lon="-105.2307728">
  <ele>1595.47</ele>
  <time>2026-08-28T19:11:46Z</time>
  <course>282.45</course>
  <speed>0.02</speed>
  <fix>3d</fix>
</trkpt>
<trkpt lat="40.0729366" lon="-105.2307726">
  <ele>1595.57</ele>
  <time>2026-08-28T19:11:46Z</time>
  <course>315.98</course>
  <speed>0.02</speed>
  <fix>3d</fix>
</trkpt>
<trkpt lat="40.0729367" lon="-105.2307728">
  <ele>1595.47</ele>
  <time>2026-08-28T19:11:46Z</time>
  <course>276.99</course>
  <speed>0.03</speed>
  <fix>3d</fix>
</trkpt>
<trkpt lat="40.0729366" lon="-105.2307727">
  <ele>1595.57</ele>
  <time>2026-08-28T19:11:46Z</time>
  <course>315.5</course>
  <speed>0.02</speed>
  <fix>3d</fix>
</trkpt>
<trkpt lat="40.0729367" lon="-105.2307729">
  <ele>1595.47</ele>
  <time>2026-08-28T19:11:46Z</time>
  <course>283.3</course>
  <speed>0.02</speed>
  <fix>3d</fix>
</trkpt>
<trkpt lat="40.0729366" lon="-105.2307728">
  <ele>1595.56</ele>
  <time>2026-08-28T19:11:46Z</time>
  <course>316.97</course>
  <speed>0.02</speed>
  <fix>3d</fix>
</trkpt>
<trkpt lat="40.0729367" lon="-105.230773">
  <ele>1595.47</ele>
  <time>2026-08-28T19:11:46Z</time>
  <course>274.25</course>
  <speed>0.03</speed>
  <fix>3d</fix>
</trkpt>
<trkpt lat="40.0729367" lon="-105.2307728">
  <ele>1595.55</ele>
  <time>2026-08-28T19:11:46Z</time>
  <course>314.62</course>
  <speed>0.02</speed>
  <fix>3d</fix>
</trkpt>
<trkpt lat="40.0729367" lon="-105.230773">
  <ele>1595.47</ele>
  <time>2026-08-28T19:11:46Z</time>
  <course>284.07</course>
  <speed>0.02</speed>
  <fix>3d</fix>
</trkpt>
<trkpt lat="40.0729367" lon="-105.2307729">
  <ele>1595.55</ele>
  <time>2026-08-28T19:11:46Z</time>
  <course>317.64</course>
  <speed>0.01</speed>
  <fix>3d</fix>
</trkpt>
<trkpt lat="40.0729367" lon="-105.2307731">
  <ele>1595.47</ele>
  <time>2026-08-28T19:11:46Z</time>
  <course>273.92</course>
  <speed>0.03</speed>
  <fix>3d</fix>
</trkpt>
<trkpt lat="40.0729367" lon="-105.230773">
  <ele>1595.55</ele>
  <time>2026-08-28T19:11:46Z</time>
  <course>314.1</course>
  <speed>0.01</speed>
  <fix>3d</fix>
</trkpt>
<trkpt lat="40.0729367" lon="-105.2307732">
  <ele>1595.47</ele>
  <time>2026-08-28T19:11:46Z</time>
  <course>283.28</course>
  <speed>0.02</speed>
  <fix>3d</fix>
</trkpt>
<trkpt lat="40.0729367" lon="-105.2307731">
  <ele>1595.55</ele>
  <time>2026-08-28T19:11:46Z</time>
  <course>317.8</course>
  <speed>0.01</speed>
  <fix>3d</fix>
</trkpt>
<trkpt lat="40.0729367" lon="-105.2307732">
  <ele>1595.47</ele>
  <time>2026-08-28T19:11:46Z</time>
  <course>274.26</course>
  <speed>0.03</speed>
  <fix>3d</fix>
</trkpt>
<trkpt lat="40.0729367" lon="-105.2307731">
  <ele>1595.55</ele>
  <time>2026-08-28T19:11:46Z</time>
  <course>314.21</course>
  <speed>0.01</speed>
  <fix>3d</fix>
</trkpt>
<trkpt lat="40.0729367" lon="-105.2307733">
  <ele>1595.48</ele>
  <time>2026-08-28T19:11:46Z</time>
  <course>279.87</course>
  <speed>0.02</speed>
  <fix>3d</fix>
</trkpt>
<trkpt lat="40.0729367" lon="-105.2307732">
  <ele>1595.55</ele>
  <time>2026-08-28T19:11:46Z</time>
  <course>317.41</course>
  <speed>0.02</speed>
  <fix>3d</fix>
</trkpt>
<trkpt lat="40.0729367" lon="-105.2307734">
  <ele>1595.48</ele>
  <time>2026-08-28T19:11:46Z</time>
  <course>275.11</course>
  <speed>0.03</speed>
  <fix>3d</fix>
</trkpt>
<trkpt lat="40.0729367" lon="-105.2307732">
  <ele>1595.56</ele>
  <time>2026-08-28T19:11:46Z</time>
  <course>314.9</course>
  <speed>0.01</speed>
  <fix>3d</fix>
</trkpt>
<trkpt lat="40.0729368" lon="-105.2307735">
  <ele>1595.49</ele>
  <time>2026-08-28T19:11:46Z</time>
  <course>275.83</course>
  <speed>0.03</speed>
  <fix>3d</fix>
</trkpt>
<trkpt lat="40.0729367" lon="-105.2307733">
  <ele>1595.56</ele>
  <time>2026-08-28T19:11:46Z</time>
  <course>316.54</course>
  <speed>0.022360679774997897</speed>
  <fix>3d</fix>
</trkpt>
<trkpt lat="40.0729368" lon="-105.2307735">
  <ele>1595.49</ele>
  <time>2026-08-28T19:11:46Z</time>
  <course>277.34</course>
  <speed>0.02</speed>
  <fix>3d</fix>
</trkpt>
<trkpt lat="40.0729367" lon="-105.2307734">
  <ele>1595.56</ele>
  <time>2026-08-28T19:11:46Z</time>
  <course>315.94</course>
  <speed>0.02</speed>
  <fix>3d</fix>
</trkpt>
<trkpt lat="40.0729368" lon="-105.2307736">
  <ele>1595.5</ele>
  <time>2026-08-28T19:11:46Z</time>
  <course>273.61</course>
  <speed>0.03</speed>
  <fix>3d</fix>
</trkpt>
<trkpt lat="40.0729367" lon="-105.2307735">
  <ele>1595.56</ele>
  <time>2026-08-28T19:11:46Z</time>
  <course>315.46</course>
  <speed>0.022360679774997897</speed>
  <fix>3d</fix>
</trkpt>
<trkpt lat="40.0729368" lon="-105.2307737">
  <ele>1595.5</ele>
  <time>2026-08-28T19:11:46Z</time>
  <course>280.58</course>
  <speed>0.02</speed>
  <fix>3d</fix>
</trkpt>
<trkpt lat="40.0729367" lon="-105.2307736">
  <ele>1595.56</ele>
  <time>2026-08-28T19:11:46Z</time>
  <course>316.92</course>
  <speed>0.01</speed>
  <fix>3d</fix>
</trkpt>
<trkpt lat="40.0729368" lon="-105.2307737">
  <ele>1595.51</ele>
  <time>2026-08-28T19:11:46Z</time>
  <course>272.84</course>
  <speed>0.03</speed>
  <fix>3d</fix>
</trkpt>
<trkpt lat="40.0729368" lon="-105.2307736">
  <ele>1595.56</ele>
  <time>2026-08-28T19:11:46Z</time>
  <course>314.6</course>
  <speed>0.02</speed>
  <fix>3d</fix>
</trkpt>
<trkpt lat="40.0729368" lon="-105.2307738">
  <ele>1595.51</ele>
  <time>2026-08-28T19:11:46Z</time>
  <course>282.33</course>
  <speed>0.02</speed>
  <fix>3d</fix>
</trkpt>
<trkpt lat="40.0729367" lon="-105.2307737">
  <ele>1595.57</ele>
  <time>2026-08-28T19:11:46Z</time>
  <course>317.66</course>
  <speed>0.01</speed>
  <fix>3d</fix>
</trkpt>
<trkpt lat="40.0729368" lon="-105.2307739">
  <ele>1595.51</ele>
  <time>2026-08-28T19:11:46Z</time>
  <course>273.09</course>
  <speed>0.03</speed>
  <fix>3d</fix>
</trkpt>
<trkpt lat="40.0729368" lon="-105.2307737">
  <ele>1595.57</ele>
  <time>2026-08-28T19:11:46Z</time>
  <course>314.14</course>
  <speed>0.01</speed>
  <fix>3d</fix>
</trkpt>
<trkpt lat="40.0729368" lon="-105.230774">
  <ele>1595.52</ele>
  <time>2026-08-28T19:11:46Z</time>
  <course>281.93</course>
  <speed>0.02</speed>
  <fix>3d</fix>
</trkpt>
<trkpt lat="40.0729368" lon="-105.2307739">
  <ele>1595.57</ele>
  <time>2026-08-28T19:11:46Z</time>
  <course>317.82</course>
  <speed>0.01</speed>
  <fix>3d</fix>
</trkpt>
<trkpt lat="40.0729368" lon="-105.230774">
  <ele>1595.52</ele>
  <time>2026-08-28T19:11:46Z</time>
  <course>274.86</course>
  <speed>0.03</speed>
  <fix>3d</fix>
</trkpt>
<trkpt lat="40.0729368" lon="-105.2307739">
  <ele>1595.57</ele>
  <time>2026-08-28T19:11:46Z</time>
  <course>317.1</course>
  <speed>0.01</speed>
  <fix>3d</fix>
</trkpt>
<trkpt lat="40.0729368" lon="-105.2307741">
  <ele>1595.52</ele>
  <time>2026-08-28T19:11:46Z</time>
  <course>271.39</course>
  <speed>0.03</speed>
  <fix>3d</fix>
</trkpt>
<trkpt lat="40.0729368" lon="-105.230774">
  <ele>1595.57</ele>
  <time>2026-08-28T19:11:46Z</time>
  <course>315.43</course>
  <speed>0.01414213562373095</speed>
  <fix>3d</fix>
</trkpt>
<trkpt lat="40.0729368" lon="-105.2307742">
  <ele>1595.52</ele>
  <time>2026-08-28T19:11:46Z</time>
  <course>288.48</course>
  <speed>0.03</speed>
  <fix>3d</fix>
</trkpt>
<trkpt lat="40.0729368" lon="-105.2307741">
  <ele>1595.57</ele>
  <time>2026-08-28T19:11:46Z</time>
  <course>314.57</course>
  <speed>0.01414213562373095</speed>
  <fix>3d</fix>
</trkpt>
<trkpt lat="40.0729368" lon="-105.2307742">
  <ele>1595.52</ele>
  <time>2026-08-28T19:11:46Z</time>
  <course>287.35</course>
  <speed>0.03</speed>
  <fix>3d</fix>
</trkpt>
<trkpt lat="40.0729368" lon="-105.2307742">
  <ele>1595.57</ele>
  <time>2026-08-28T19:11:46Z</time>
  <course>314.24</course>
  <speed>0.01414213562373095</speed>
  <fix>3d</fix>
</trkpt>
<trkpt lat="40.0729368" lon="-105.2307743">
  <ele>1595.52</ele>
  <time>2026-08-28T19:11:46Z</time>
  <course>285.53</course>
  <speed>0.03</speed>
  <fix>3d</fix>
</trkpt>
<trkpt lat="40.0729368" lon="-105.2307742">
  <ele>1595.58</ele>
  <time>2026-08-28T19:11:46Z</time>
  <course>314.14</course>
  <speed>0.022360679774997897</speed>
  <fix>3d</fix>
</trkpt>
<trkpt lat="40.0729368" lon="-105.2307744">
  <ele>1595.52</ele>
  <time>2026-08-28T19:11:46Z</time>
  <course>285.51</course>
  <speed>0.04</speed>
  <fix>3d</fix>
</trkpt>
<trkpt lat="40.0729368" lon="-105.2307743">
  <ele>1595.58</ele>
  <time>2026-08-28T19:11:46Z</time>
  <course>314.1</course>
  <speed>0.022360679774997897</speed>
  <fix>3d</fix>
</trkpt>
<trkpt lat="40.0729368" lon="-105.2307745">
  <ele>1595.52</ele>
  <time>2026-08-28T19:11:46Z</time>
  <course>286.45</course>
  <speed>0.04</speed>
  <fix>3d</fix>
</trkpt>
<trkpt lat="40.0729369" lon="-105.2307744">
  <ele>1595.58</ele>
  <time>2026-08-28T19:11:46Z</time>
  <course>314.1</course>
  <speed>0.022360679774997897</speed>
  <fix>3d</fix>
</trkpt>
<trkpt lat="40.0729368" lon="-105.2307746">
  <ele>1595.52</ele>
  <time>2026-08-28T19:11:46Z</time>
  <course>287.42</course>
  <speed>0.04</speed>
  <fix>3d</fix>
</trkpt>
<trkpt lat="40.0729369" lon="-105.2307746">
  <ele>1595.58</ele>
  <time>2026-08-28T19:11:46Z</time>
  <course>314.1</course>
  <speed>0.022360679774997897</speed>
  <fix>3d</fix>
</trkpt>
<trkpt lat="40.0729369" lon="-105.2307747">
  <ele>1595.52</ele>
  <time>2026-08-28T19:11:46Z</time>
  <course>288.6</course>
  <speed>0.04</speed>
  <fix>3d</fix>
</trkpt>
<trkpt lat="40.0729369" lon="-105.2307747">
  <ele>1595.57</ele>
  <time>2026-08-28T19:11:46Z</time>
  <course>314.09</course>
  <speed>0.022360679774997897</speed>
  <fix>3d</fix>
</trkpt>
<trkpt lat="40.0729369" lon="-105.2307749">
  <ele>1595.52</ele>
  <time>2026-08-28T19:11:46Z</time>
  <course>289.78</course>
  <speed>0.05</speed>
  <fix>3d</fix>
</trkpt>
<trkpt lat="40.0729369" lon="-105.2307748">
  <ele>1595.57</ele>
  <time>2026-08-28T19:11:46Z</time>
  <course>314.08</course>
  <speed>0.0316227766016838</speed>
  <fix>3d</fix>
</trkpt>
<trkpt lat="40.0729369" lon="-105.230775">
  <ele>1595.52</ele>
  <time>2026-08-28T19:11:46Z</time>
  <course>291.0</course>
  <speed>0.05</speed>
  <fix>3d</fix>
</trkpt>
<trkpt lat="40.072937" lon="-105.2307749">
  <ele>1595.57</ele>
  <time>2026-08-28T19:11:46Z</time>
  <course>314.07</course>
  <speed>0.03605551275463989</speed>
  <fix>3d</fix>
</trkpt>
<trkpt lat="40.072937" lon="-105.2307751">
  <ele>1595.52</ele>
  <time>2026-08-28T19:11:46Z</time>
  <course>292.4</course>
  <speed>0.05</speed>
  <fix>3d</fix>
</trkpt>
<trkpt lat="40.072937" lon="-105.230775">
  <ele>1595.58</ele>
  <time>2026-08-28T19:11:46Z</time>
  <course>314.08</course>
  <speed>0.03605551275463989</speed>
  <fix>3d</fix>
</trkpt>
<trkpt lat="40.0729371" lon="-105.2307752">
  <ele>1595.51</ele>
  <time>2026-08-28T19:11:46Z</time>
  <course>293.28</course>
  <speed>0.06</speed>
  <fix>3d</fix>
</trkpt>
<trkpt lat="40.0729371" lon="-105.2307752">
  <ele>1595.58</ele>
  <time>2026-08-28T19:11:46Z</time>
  <course>314.08</course>
  <speed>0.03605551275463989</speed>
  <fix>3d</fix>
</trkpt>
<trkpt lat="40.0729371" lon="-105.2307754">
  <ele>1595.51</ele>
  <time>2026-08-28T19:11:46Z</time>
  <course>293.85</course>
  <speed>0.06</speed>
  <fix>3d</fix>
</trkpt>
<trkpt lat="40.0729371" lon="-105.2307753">
  <ele>1595.58</ele>
  <time>2026-08-28T19:11:46Z</time>
  <course>314.1</course>
  <speed>0.044721359549995794</speed>
  <fix>3d</fix>
</trkpt>
<trkpt lat="40.0729372" lon="-105.2307755">
  <ele>1595.51</ele>
  <time>2026-08-28T19:11:46Z</time>
  <course>294.15</course>
  <speed>0.06</speed>
  <fix>3d</fix>
</trkpt>
<trkpt lat="40.0729372" lon="-105.2307755">
  <ele>1595.58</ele>
  <time>2026-08-28T19:11:46Z</time>
  <course>314.1</course>
  <speed>0.044721359549995794</speed>
  <fix>3d</fix>
</trkpt>
<trkpt lat="40.0729372" lon="-105.2307756">
  <ele>1595.51</ele>
  <time>2026-08-28T19:11:46Z</time>
  <course>294.59</course>
  <speed>0.06</speed>
  <fix>3d</fix>
</trkpt>
<trkpt lat="40.0729372" lon="-105.2307756">
  <ele>1595.58</ele>
  <time>2026-08-28T19:11:46Z</time>
  <course>314.07</course>
  <speed>0.05</speed>
  <fix>3d</fix>
</trkpt>
<trkpt lat="40.0729373" lon="-105.2307758">
  <ele>1595.51</ele>
  <time>2026-08-28T19:11:46Z</time>
  <course>295.3</course>
  <speed>0.06</speed>
  <fix>3d</fix>
</trkpt>
<trkpt lat="40.0729373" lon="-105.2307758">
  <ele>1595.58</ele>
  <time>2026-08-28T19:11:46Z</time>
  <course>311.52</course>
  <speed>0.04242640687119285</speed>
  <fix>3d</fix>
</trkpt>
<trkpt lat="40.0729373" lon="-105.2307759">
  <ele>1595.51</ele>
  <time>2026-08-28T19:11:46Z</time>
  <course>302.32</course>
  <speed>0.06</speed>
  <fix>3d</fix>
</trkpt>
<trkpt lat="40.0729373" lon="-105.2307759">
  <ele>1595.58</ele>
  <time>2026-08-28T19:11:46Z</time>
  <course>314.74</course>
  <speed>0.05</speed>
  <fix>3d</fix>
</trkpt>
<trkpt lat="40.0729374" lon="-105.230776">
  <ele>1595.5</ele>
  <time>2026-08-28T19:11:46Z</time>
  <course>292.03</course>
  <speed>0.07</speed>
  <fix>3d</fix>
</trkpt>
<trkpt lat="40.0729374" lon="-105.230776">
  <ele>1595.58</ele>
  <time>2026-08-28T19:11:46Z</time>
  <course>314.66</course>
  <speed>0.0316227766016838</speed>
  <fix>3d</fix>
</trkpt>
<trkpt lat="40.0729374" lon="-105.2307762">
  <ele>1595.5</ele>
  <time>2026-08-28T19:11:46Z</time>
  <course>288.57</course>
  <speed>0.06</speed>
  <fix>3d</fix>
</trkpt>
<trkpt lat="40.0729374" lon="-105.2307761">
  <ele>1595.58</ele>
  <time>2026-08-28T19:11:46Z</time>
  <course>312.43</course>
  <speed>0.03</speed>
  <fix>3d</fix>
</trkpt>
<trkpt lat="40.0729374" lon="-105.2307763">
  <ele>1595.5</ele>
  <time>2026-08-28T19:11:46Z</time>
  <course>297.31</course>
  <speed>0.05</speed>
  <fix>3d</fix>
</trkpt>
<trkpt lat="40.0729374" lon="-105.2307763">
  <ele>1595.57</ele>
  <time>2026-08-28T19:11:46Z</time>
  <course>316.29</course>
  <speed>0.01414213562373095</speed>
  <fix>3d</fix>
</trkpt>
<trkpt lat="40.0729374" lon="-105.2307764">
  <ele>1595.5</ele>
  <time>2026-08-28T19:11:46Z</time>
  <course>281.81</course>
  <speed>0.05</speed>
  <fix>3d</fix>
</trkpt>
<trkpt lat="40.0729375" lon="-105.2307763">
  <ele>1595.57</ele>
  <time>2026-08-28T19:11:46Z</time>
  <course>312.16</course>
  <speed>0.01</speed>
  <fix>3d</fix>
</trkpt>
<trkpt lat="40.0729375" lon="-105.2307766">
  <ele>1595.5</ele>
  <time>2026-08-28T19:11:46Z</time>
  <course>293.68</course>
  <speed>0.04</speed>
  <fix>3d</fix>
</trkpt>
<trkpt lat="40.0729375" lon="-105.2307764">
  <ele>1595.57</ele>
  <time>2026-08-28T19:11:46Z</time>
  <course>315.11</course>
  <speed>0.03</speed>
  <fix>3d</fix>
</trkpt>
<trkpt lat="40.0729375" lon="-105.2307766">
  <ele>1595.49</ele>
  <time>2026-08-28T19:11:46Z</time>
  <course>285.96</course>
  <speed>0.04</speed>
  <fix>3d</fix>
</trkpt>
<trkpt lat="40.0729375" lon="-105.2307765">
  <ele>1595.56</ele>
  <time>2026-08-28T19:11:46Z</time>
  <course>314.36</course>
  <speed>0.02</speed>
  <fix>3d</fix>
</trkpt>
<trkpt lat="40.0729375" lon="-105.2307767">
  <ele>1595.49</ele>
  <time>2026-08-28T19:11:46Z</time>
  <course>281.45</course>
  <speed>0.03</speed>
  <fix>3d</fix>
</trkpt>
<trkpt lat="40.0729375" lon="-105.2307766">
  <ele>1595.57</ele>
  <time>2026-08-28T19:11:46Z</time>
  <course>312.6</course>
  <speed>0.02</speed>
  <fix>3d</fix>
</trkpt>
<trkpt lat="40.0729375" lon="-105.2307768">
  <ele>1595.49</ele>
  <time>2026-08-28T19:11:46Z</time>
  <course>294.65</course>
  <speed>0.03</speed>
  <fix>3d</fix>
</trkpt>
<trkpt lat="40.0729375" lon="-105.2307767">
  <ele>1595.57</ele>
  <time>2026-08-28T19:11:46Z</time>
  <course>316.2</course>
  <speed>0.01</speed>
  <fix>3d</fix>
</trkpt>
<trkpt lat="40.0729375" lon="-105.2307769">
  <ele>1595.49</ele>
  <time>2026-08-28T19:11:46Z</time>
  <course>275.01</course>
  <speed>0.03</speed>
  <fix>3d</fix>
</trkpt>
<trkpt lat="40.0729375" lon="-105.2307767">
  <ele>1595.57</ele>
  <time>2026-08-28T19:11:46Z</time>
  <course>312.0</course>
  <speed>0.01</speed>
  <fix>3d</fix>
</trkpt>
<trkpt lat="40.0729375" lon="-105.230777">
  <ele>1595.49</ele>
  <time>2026-08-28T19:11:46Z</time>
  <course>291.42</course>
  <speed>0.03</speed>
  <fix>3d</fix>
</trkpt>
<trkpt lat="40.0729375" lon="-105.2307769">
  <ele>1595.57</ele>
  <time>2026-08-28T19:11:46Z</time>
  <course>315.37</course>
  <speed>0.02</speed>
  <fix>3d</fix>
</trkpt>
<trkpt lat="40.0729376" lon="-105.2307771">
  <ele>1595.49</ele>
  <time>2026-08-28T19:11:46Z</time>
  <course>279.77</course>
  <speed>0.03</speed>
  <fix>3d</fix>
</trkpt>
<trkpt lat="40.0729375" lon="-105.2307769">
  <ele>1595.57</ele>
  <time>2026-08-28T19:11:46Z</time>
  <course>314.02</course>
  <speed>0.02</speed>
  <fix>3d</fix>
</trkpt>
<trkpt lat="40.0729377" lon="-105.2307771">
  <ele>1595.49</ele>
  <time>2026-08-28T19:11:46Z</time>
  <course>277.77</course>
  <speed>0.03</speed>
  <fix>3d</fix>
</trkpt>
<trkpt lat="40.0729376" lon="-105.230777">
  <ele>1595.57</ele>
  <time>2026-08-28T19:11:46Z</time>
  <course>312.89</course>
  <speed>0.02</speed>
  <fix>3d</fix>
</trkpt>
<trkpt lat="40.0729377" lon="-105.2307772">
  <ele>1595.49</ele>
  <time>2026-08-28T19:11:46Z</time>
  <course>289.63</course>
  <speed>0.03</speed>
  <fix>3d</fix>
</trkpt>
<trkpt lat="40.0729376" lon="-105.2307771">
  <ele>1595.57</ele>
  <time>2026-08-28T19:11:46Z</time>
  <course>316.11</course>
  <speed>0.01</speed>
  <fix>3d</fix>
</trkpt>
<trkpt lat="40.0729377" lon="-105.2307773">
  <ele>1595.49</ele>
  <time>2026-08-28T19:11:46Z</time>
  <course>271.06</course>
  <speed>0.03</speed>
  <fix>3d</fix>
</trkpt>
<trkpt lat="40.0729376" lon="-105.2307771">
  <ele>1595.57</ele>
  <time>2026-08-28T19:11:46Z</time>
  <course>311.92</course>
  <speed>0.0</speed>
  <fix>3d</fix>
</trkpt>
<trkpt lat="40.0729377" lon="-105.2307774">
  <ele>1595.49</ele>
  <time>2026-08-28T19:11:46Z</time>
  <course>289.41</course>
  <speed>0.03</speed>
  <fix>3d</fix>
</trkpt>
<trkpt lat="40.0729376" lon="-105.2307773">
  <ele>1595.56</ele>
  <time>2026-08-28T19:11:46Z</time>
  <course>315.61</course>
  <speed>0.02</speed>
  <fix>3d</fix>
</trkpt>
<trkpt lat="40.0729377" lon="-105.2307775">
  <ele>1595.49</ele>
  <time>2026-08-28T19:11:46Z</time>
  <course>275.77</course>
  <speed>0.03</speed>
  <fix>3d</fix>
</trkpt>
<trkpt lat="40.0729376" lon="-105.2307773">
  <ele>1595.56</ele>
  <time>2026-08-28T19:11:46Z</time>
  <course>313.72</course>
  <speed>0.02</speed>
  <fix>3d</fix>
</trkpt>
<trkpt lat="40.0729377" lon="-105.2307775">
  <ele>1595.5</ele>
  <time>2026-08-28T19:11:46Z</time>
  <course>276.77</course>
  <speed>0.03</speed>
  <fix>3d</fix>
</trkpt>
<trkpt lat="40.0729376" lon="-105.2307774">
  <ele>1595.56</ele>
  <time>2026-08-28T19:11:46Z</time>
  <course>313.1</course>
  <speed>0.022360679774997897</speed>
  <fix>3d</fix>
</trkpt>
<trkpt lat="40.0729377" lon="-105.2307776">
  <ele>1595.5</ele>
  <time>2026-08-28T19:11:46Z</time>
  <course>286.66</course>
  <speed>0.02</speed>
  <fix>3d</fix>
</trkpt>
<trkpt lat="40.0729376" lon="-105.2307775">
  <ele>1595.56</ele>
  <time>2026-08-28T19:11:46Z</time>
  <course>315.96</course>
  <speed>0.01</speed>
  <fix>3d</fix>
</trkpt>
<trkpt lat="40.0729377" lon="-105.2307777">
  <ele>1595.5</ele>
  <time>2026-08-28T19:11:46Z</time>
  <course>269.09</course>
  <speed>0.03</speed>
  <fix>3d</fix>
</trkpt>
<trkpt lat="40.0729377" lon="-105.2307775">
  <ele>1595.56</ele>
  <time>2026-08-28T19:11:46Z</time>
  <course>311.85</course>
  <speed>0.01</speed>
  <fix>3d</fix>
</trkpt>
<trkpt lat="40.0729377" lon="-105.2307778">
  <ele>1595.5</ele>
  <time>2026-08-28T19:11:46Z</time>
  <course>288.25</course>
  <speed>0.02</speed>
  <fix>3d</fix>
</trkpt>
<trkpt lat="40.0729377" lon="-105.2307776">
  <ele>1595.57</ele>
  <time>2026-08-28T19:11:46Z</time>
  <course>315.81</course>
  <speed>0.02</speed>
  <fix>3d</fix>
</trkpt>
<trkpt lat="40.0729377" lon="-105.2307778">
  <ele>1595.5</ele>
  <time>2026-08-28T19:11:46Z</time>
  <course>272.39</course>
  <speed>0.03</speed>
  <fix>3d</fix>
</trkpt>
<trkpt lat="40.0729377" lon="-105.2307777">
  <ele>1595.58</ele>
  <time>2026-08-28T19:11:46Z</time>
  <course>313.43</course>
  <speed>0.02</speed>
  <fix>3d</fix>
</trkpt>
<trkpt lat="40.0729377" lon="-105.2307779">
  <ele>1595.5</ele>
  <time>2026-08-28T19:11:46Z</time>
  <course>275.49</course>
  <speed>0.03</speed>
  <fix>3d</fix>
</trkpt>
<trkpt lat="40.0729377" lon="-105.2307778">
  <ele>1595.58</ele>
  <time>2026-08-28T19:11:46Z</time>
  <course>313.5</course>
  <speed>0.022360679774997897</speed>
  <fix>3d</fix>
</trkpt>
<trkpt lat="40.0729377" lon="-105.230778">
  <ele>1595.5</ele>
  <time>2026-08-28T19:11:46Z</time>
  <course>282.37</course>
  <speed>0.03</speed>
  <fix>3d</fix>
</trkpt>
<trkpt lat="40.0729377" lon="-105.2307779">
  <ele>1595.58</ele>
  <time>2026-08-28T19:11:46Z</time>
  <course>315.84</course>
  <speed>0.01</speed>
  <fix>3d</fix>
</trkpt>
<trkpt lat="40.0729378" lon="-105.2307781">
  <ele>1595.5</ele>
  <time>2026-08-28T19:11:46Z</time>
  <course>267.5</course>
  <speed>0.03</speed>
  <fix>3d</fix>
</trkpt>
<trkpt lat="40.0729377" lon="-105.2307779">
  <ele>1595.57</ele>
  <time>2026-08-28T19:11:46Z</time>
  <course>311.94</course>
  <speed>0.01</speed>
  <fix>3d</fix>
</trkpt>
<trkpt lat="40.0729378" lon="-105.2307781">
  <ele>1595.5</ele>
  <time>2026-08-28T19:11:46Z</time>
  <course>287.47</course>
  <speed>0.02</speed>
  <fix>3d</fix>
</trkpt>
<trkpt lat="40.0729377" lon="-105.230778">
  <ele>1595.57</ele>
  <time>2026-08-28T19:11:46Z</time>
  <course>316.01</course>
  <speed>0.01</speed>
  <fix>3d</fix>
</trkpt>
<trkpt lat="40.0729378" lon="-105.2307782">
  <ele>1595.5</ele>
  <time>2026-08-28T19:11:46Z</time>
  <course>271.08</course>
  <speed>0.03</speed>
  <fix>3d</fix>
</trkpt>
<trkpt lat="40.0729377" lon="-105.2307781">
  <ele>1595.57</ele>
  <time>2026-08-28T19:11:46Z</time>
  <course>313.12</course>
  <speed>0.02</speed>
  <fix>3d</fix>
</trkpt>
<trkpt lat="40.0729378" lon="-105.2307783">
  <ele>1595.5</ele>
  <time>2026-08-28T19:11:46Z</time>
  <course>277.45</course>
  <speed>0.03</speed>
  <fix>3d</fix>
</trkpt>
<trkpt lat="40.0729377" lon="-105.2307782">
  <ele>1595.57</ele>
  <time>2026-08-28T19:11:46Z</time>
  <course>313.75</course>
  <speed>0.022360679774997897</speed>
  <fix>3d</fix>
</trkpt>
<trkpt lat="40.0729378" lon="-105.2307783">
  <ele>1595.49</ele>
  <time>2026-08-28T19:11:46Z</time>
  <course>281.74</course>
  <speed>0.03</speed>
  <fix>3d</fix>
</trkpt>
<trkpt lat="40.0729377" lon="-105.2307782">
  <ele>1595.57</ele>
  <time>2026-08-28T19:11:46Z</time>
  <course>315.6</course>
  <speed>0.01</speed>
  <fix>3d</fix>
</trkpt>
<trkpt lat="40.0729378" lon="-105.2307784">
  <ele>1595.49</ele>
  <time>2026-08-28T19:11:46Z</time>
  <course>268.11</course>
  <speed>0.03</speed>
  <fix>3d</fix>
</trkpt>
<trkpt lat="40.0729378" lon="-105.2307783">
  <ele>1595.57</ele>
  <time>2026-08-28T19:11:46Z</time>
  <course>311.93</course>
  <speed>0.01</speed>
  <fix>3d</fix>
</trkpt>
<trkpt lat="40.0729378" lon="-105.2307785">
  <ele>1595.49</ele>
  <time>2026-08-28T19:11:46Z</time>
  <course>287.12</course>
  <speed>0.02</speed>
  <fix>3d</fix>
</trkpt>
<trkpt lat="40.0729378" lon="-105.2307784">
  <ele>1595.57</ele>
  <time>2026-08-28T19:11:46Z</time>
  <course>316.13</course>
  <speed>0.01</speed>
  <fix>3d</fix>
</trkpt>
<trkpt lat="40.0729378" lon="-105.2307786">
  <ele>1595.49</ele>
  <time>2026-08-28T19:11:46Z</time>
  <course>269.56</course>
  <speed>0.03</speed>
  <fix>3d</fix>
</trkpt>
<trkpt lat="40.0729378" lon="-105.2307784">
  <ele>1595.56</ele>
  <time>2026-08-28T19:11:46Z</time>
  <course>312.84</course>
  <speed>0.01</speed>
  <fix>3d</fix>
</trkpt>
<trkpt lat="40.0729378" lon="-105.2307787">
  <ele>1595.49</ele>
  <time>2026-08-28T19:11:46Z</time>
  <course>278.02</course>
  <speed>0.03</speed>
  <fix>3d</fix>
</trkpt>
<trkpt lat="40.0729378" lon="-105.2307785">
  <ele>1595.56</ele>
  <time>2026-08-28T19:11:46Z</time>
  <course>314.06</course>
  <speed>0.022360679774997897</speed>
  <fix>3d</fix>
</trkpt>
<trkpt lat="40.0729378" lon="-105.2307788">
  <ele>1595.49</ele>
  <time>2026-08-28T19:11:46Z</time>
  <course>279.62</course>
  <speed>0.03</speed>
  <fix>3d</fix>
</trkpt>
<trkpt lat="40.0729378" lon="-105.2307786">
  <ele>1595.57</ele>
  <time>2026-08-28T19:11:46Z</time>
  <course>315.32</course>
  <speed>0.01</speed>
  <fix>3d</fix>
</trkpt>
<trkpt lat="40.0729378" lon="-105.2307788">
  <ele>1595.49</ele>
  <time>2026-08-28T19:11:46Z</time>
  <course>268.52</course>
  <speed>0.03</speed>
  <fix>3d</fix>
</trkpt>
<trkpt lat="40.0729378" lon="-105.2307787">
  <ele>1595.57</ele>
  <time>2026-08-28T19:11:46Z</time>
  <course>312.01</course>
  <speed>0.01</speed>
  <fix>3d</fix>
</trkpt>
<trkpt lat="40.0729378" lon="-105.2307789">
  <ele>1595.49</ele>
  <time>2026-08-28T19:11:46Z</time>
  <course>287.14</course>
  <speed>0.02</speed>
  <fix>3d</fix>
</trkpt>
<trkpt lat="40.0729378" lon="-105.2307788">
  <ele>1595.57</ele>
  <time>2026-08-28T19:11:46Z</time>
  <course>315.58</course>
  <speed>0.01</speed>
  <fix>3d</fix>
</trkpt>
<trkpt lat="40.0729378" lon="-105.230779">
  <ele>1595.49</ele>
  <time>2026-08-28T19:11:46Z</time>
  <course>272.15</course>
  <speed>0.03</speed>
  <fix>3d</fix>
</trkpt>
<trkpt lat="40.0729378" lon="-105.2307789">
  <ele>1595.57</ele>
  <time>2026-08-28T19:11:46Z</time>
  <course>314.62</course>
  <speed>0.01</speed>
  <fix>3d</fix>
</trkpt>
<trkpt lat="40.0729378" lon="-105.2307791">
  <ele>1595.49</ele>
  <time>2026-08-28T19:11:46Z</time>
  <course>272.43</course>
  <speed>0.03</speed>
  <fix>3d</fix>
</trkpt>
<trkpt lat="40.0729378" lon="-105.2307789">
  <ele>1595.57</ele>
  <time>2026-08-28T19:11:46Z</time>
  <course>313.05</course>
  <speed>0.01414213562373095</speed>
  <fix>3d</fix>
</trkpt>
<trkpt lat="40.0729378" lon="-105.2307792">
  <ele>1595.49</ele>
  <time>2026-08-28T19:11:46Z</time>
  <course>286.21</course>
  <speed>0.03</speed>
  <fix>3d</fix>
</trkpt>
<trkpt lat="40.0729378" lon="-105.230779">
  <ele>1595.58</ele>
  <time>2026-08-28T19:11:46Z</time>
  <course>312.26</course>
  <speed>0.01414213562373095</speed>
  <fix>3d</fix>
</trkpt>
<trkpt lat="40.0729379" lon="-105.2307793">
  <ele>1595.49</ele>
  <time>2026-08-28T19:11:46Z</time>
  <course>284.76</course>
  <speed>0.03</speed>
  <fix>3d</fix>
</trkpt>
<trkpt lat="40.0729378" lon="-105.2307791">
  <ele>1595.58</ele>
  <time>2026-08-28T19:11:46Z</time>
  <course>311.95</course>
  <speed>0.022360679774997897</speed>
  <fix>3d</fix>
</trkpt>
<trkpt lat="40.0729379" lon="-105.2307793">
  <ele>1595.49</ele>
  <time>2026-08-28T19:11:46Z</time>
  <course>283.67</course>
  <speed>0.04</speed>
  <fix>3d</fix>
</trkpt>
<trkpt lat="40.0729379" lon="-105.2307792">
  <ele>1595.58</ele>
  <time>2026-08-28T19:11:46Z</time>
  <course>311.87</course>
  <speed>0.022360679774997897</speed>
  <fix>3d</fix>
</trkpt>
<trkpt lat="40.0729379" lon="-105.2307794">
  <ele>1595.49</ele>
  <time>2026-08-28T19:11:46Z</time>
  <course>283.97</course>
  <speed>0.04</speed>
  <fix>3d</fix>
</trkpt>
<trkpt lat="40.0729379" lon="-105.2307794">
  <ele>1595.57</ele>
  <time>2026-08-28T19:11:46Z</time>
  <course>311.86</course>
  <speed>0.022360679774997897</speed>
  <fix>3d</fix>
</trkpt>
<trkpt lat="40.0729379" lon="-105.2307796">
  <ele>1595.49</ele>
  <time>2026-08-28T19:11:46Z</time>
  <course>285.11</course>
  <speed>0.04</speed>
  <fix>3d</fix>
</trkpt>
<trkpt lat="40.0729379" lon="-105.2307795">
  <ele>1595.57</ele>
  <time>2026-08-28T19:11:46Z</time>
  <course>311.83</course>
  <speed>0.022360679774997897</speed>
  <fix>3d</fix>
</trkpt>
<trkpt lat="40.0729379" lon="-105.2307797">
  <ele>1595.49</ele>
  <time>2026-08-28T19:11:46Z</time>
  <course>286.28</course>
  <speed>0.05</speed>
  <fix>3d</fix>
</trkpt>
<trkpt lat="40.0729379" lon="-105.2307796">
  <ele>1595.57</ele>
  <time>2026-08-28T19:11:46Z</time>
  <course>311.82</course>
  <speed>0.0316227766016838</speed>
  <fix>3d</fix>
</trkpt>
<trkpt lat="40.072938" lon="-105.2307798">
  <ele>1595.49</ele>
  <time>2026-08-28T19:11:46Z</time>
  <course>287.46</course>
  <speed>0.05</speed>
  <fix>3d</fix>
</trkpt>
<trkpt lat="40.072938" lon="-105.2307797">
  <ele>1595.57</ele>
  <time>2026-08-28T19:11:46Z</time>
  <course>311.81</course>
  <speed>0.03605551275463989</speed>
  <fix>3d</fix>
</trkpt>
<trkpt lat="40.072938" lon="-105.2307799">
  <ele>1595.48</ele>
  <time>2026-08-28T19:11:46Z</time>
  <course>288.63</course>
  <speed>0.05</speed>
  <fix>3d</fix>
</trkpt>
<trkpt lat="40.072938" lon="-105.2307799">
  <ele>1595.57</ele>
  <time>2026-08-28T19:11:46Z</time>
  <course>311.82</course>
  <speed>0.03605551275463989</speed>
  <fix>3d</fix>
</trkpt>
<trkpt lat="40.072938" lon="-105.2307801">
  <ele>1595.48</ele>
  <time>2026-08-28T19:11:46Z</time>
  <course>289.46</course>
  <speed>0.06</speed>
  <fix>3d</fix>
</trkpt>
<trkpt lat="40.072938" lon="-105.23078">
  <ele>1595.57</ele>
  <time>2026-08-28T19:11:47Z</time>
  <course>311.82</course>
  <speed>0.03605551275463989</speed>
  <fix>3d</fix>
</trkpt>
<trkpt lat="40.072938" lon="-105.2307802">
  <ele>1595.48</ele>
  <time>2026-08-28T19:11:47Z</time>
  <course>290.23</course>
  <speed>0.06</speed>
  <fix>3d</fix>
</trkpt>
<trkpt lat="40.0729381" lon="-105.2307802">
  <ele>1595.57</ele>
  <time>2026-08-28T19:11:47Z</time>
  <course>311.82</course>
  <speed>0.044721359549995794</speed>
  <fix>3d</fix>
</trkpt>
<trkpt lat="40.072938" lon="-105.2307803">
  <ele>1595.48</ele>
  <time>2026-08-28T19:11:47Z</time>
  <course>290.99</course>
  <speed>0.06</speed>
  <fix>3d</fix>
</trkpt>
<trkpt lat="40.0729381" lon="-105.2307803">
  <ele>1595.57</ele>
  <time>2026-08-28T19:11:47Z</time>
  <course>311.82</course>
  <speed>0.044721359549995794</speed>
  <fix>3d</fix>
</trkpt>
<trkpt lat="40.0729381" lon="-105.2307805">
  <ele>1595.48</ele>
  <time>2026-08-28T19:11:47Z</time>
  <course>291.58</course>
  <speed>0.06</speed>
  <fix>3d</fix>
</trkpt>
<trkpt lat="40.0729382" lon="-105.2307805">
  <ele>1595.56</ele>
  <time>2026-08-28T19:11:47Z</time>
  <course>311.82</course>
  <speed>0.044721359549995794</speed>
  <fix>3d</fix>
</trkpt>
<trkpt lat="40.0729381" lon="-105.2307807">
  <ele>1595.48</ele>
  <time>2026-08-28T19:11:47Z</time>
  <course>292.25</course>
  <speed>0.07</speed>
  <fix>3d</fix>
</trkpt>
<trkpt lat="40.0729382" lon="-105.2307806">
  <ele>1595.57</ele>
  <time>2026-08-28T19:11:47Z</time>
  <course>311.82</course>
  <speed>0.044721359549995794</speed>
  <fix>3d</fix>
</trkpt>
<trkpt lat="40.0729382" lon="-105.2307808">
  <ele>1595.48</ele>
  <time>2026-08-28T19:11:47Z</time>
  <course>292.96</course>
  <speed>0.07</speed>
  <fix>3d</fix>
</trkpt>
<trkpt lat="40.0729383" lon="-105.2307808">
  <ele>1595.57</ele>
  <time>2026-08-28T19:11:47Z</time>
  <course>311.4</course>
  <speed>0.05</speed>
  <fix>3d</fix>
</trkpt>
<trkpt lat="40.0729383" lon="-105.230781">
  <ele>1595.48</ele>
  <time>2026-08-28T19:11:47Z</time>
  <course>294.06</course>
  <speed>0.07</speed>
  <fix>3d</fix>
</trkpt>
<trkpt lat="40.0729383" lon="-105.230781">
  <ele>1595.57</ele>
  <time>2026-08-28T19:11:47Z</time>
  <course>311.35</course>
  <speed>0.044721359549995794</speed>
  <fix>3d</fix>
</trkpt>
<trkpt lat="40.0729384" lon="-105.2307812">
  <ele>1595.48</ele>
  <time>2026-08-28T19:11:47Z</time>
  <course>295.38</course>
  <speed>0.07</speed>
  <fix>3d</fix>
</trkpt>
<trkpt lat="40.0729384" lon="-105.2307811">
  <ele>1595.57</ele>
  <time>2026-08-28T19:11:47Z</time>
  <course>311.7</course>
  <speed>0.0412310562561766</speed>
  <fix>3d</fix>
</trkpt>
<trkpt lat="40.0729384" lon="-105.2307813">
  <ele>1595.48</ele>
  <time>2026-08-28T19:11:47Z</time>
  <course>296.02</course>
  <speed>0.07</speed>
  <fix>3d</fix>
</trkpt>
<trkpt lat="40.0729384" lon="-105.2307813">
  <ele>1595.57</ele>
  <time>2026-08-28T19:11:47Z</time>
  <course>312.04</course>
  <speed>0.0316227766016838</speed>
  <fix>3d</fix>
</trkpt>
<trkpt lat="40.0729385" lon="-105.2307815">
  <ele>1595.48</ele>
  <time>2026-08-28T19:11:47Z</time>
  <course>290.69</course>
  <speed>0.06</speed>
  <fix>3d</fix>
</trkpt>
<trkpt lat="40.0729385" lon="-105.2307814">
  <ele>1595.57</ele>
  <time>2026-08-28T19:11:47Z</time>
  <course>311.9</course>
  <speed>0.0282842712474619</speed>
  <fix>3d</fix>
</trkpt>
<trkpt lat="40.0729385" lon="-105.2307816">
  <ele>1595.48</ele>
  <time>2026-08-28T19:11:47Z</time>
  <course>283.73</course>
  <speed>0.06</speed>
  <fix>3d</fix>
</trkpt>
<trkpt lat="40.0729385" lon="-105.2307815">
  <ele>1595.57</ele>
  <time>2026-08-28T19:11:47Z</time>
  <course>311.6</course>
  <speed>0.022360679774997897</speed>
  <fix>3d</fix>
</trkpt>
<trkpt lat="40.0729385" lon="-105.2307817">
  <ele>1595.48</ele>
  <time>2026-08-28T19:11:47Z</time>
  <course>287.27</course>
  <speed>0.05</speed>
  <fix>3d</fix>
</trkpt>
<trkpt lat="40.0729385" lon="-105.2307816">
  <ele>1595.57</ele>
  <time>2026-08-28T19:11:47Z</time>
  <course>311.74</course>
  <speed>0.02</speed>
  <fix>3d</fix>
</trkpt>
<trkpt lat="40.0729386" lon="-105.2307818">
  <ele>1595.48</ele>
  <time>2026-08-28T19:11:47Z</time>
  <course>293.91</course>
  <speed>0.04</speed>
  <fix>3d</fix>
</trkpt>
<trkpt lat="40.0729385" lon="-105.2307817">
  <ele>1595.57</ele>
  <time>2026-08-28T19:11:47Z</time>
  <course>312.05</course>
  <speed>0.022360679774997897</speed>
  <fix>3d</fix>
</trkpt>
<trkpt lat="40.0729386" lon="-105.2307819">
  <ele>1595.48</ele>
  <time>2026-08-28T19:11:47Z</time>
  <course>287.46</course>
  <speed>0.04</speed>
  <fix>3d</fix>
</trkpt>
<trkpt lat="40.0729386" lon="-105.2307818">
  <ele>1595.57</ele>
  <time>2026-08-28T19:11:47Z</time>
  <course>311.93</course>
  <speed>0.01414213562373095</speed>
  <fix>3d</fix>
</trkpt>
<trkpt lat="40.0729386" lon="-105.230782">
  <ele>1595.47</ele>
  <time>2026-08-28T19:11:47Z</time>
  <course>279.07</course>
  <speed>0.04</speed>
  <fix>3d</fix>
</trkpt>
<trkpt lat="40.0729386" lon="-105.2307819">
  <ele>1595.57</ele>
  <time>2026-08-28T19:11:47Z</time>
  <course>311.61</course>
  <speed>0.01414213562373095</speed>
  <fix>3d</fix>
</trkpt>
<trkpt lat="40.0729386" lon="-105.2307821">
  <ele>1595.47</ele>
  <time>2026-08-28T19:11:47Z</time>
  <course>283.65</course>
  <speed>0.04</speed>
  <fix>3d</fix>
</trkpt>
<trkpt lat="40.0729386" lon="-105.230782">
  <ele>1595.57</ele>
  <time>2026-08-28T19:11:47Z</time>
  <course>311.75</course>
  <speed>0.02</speed>
  <fix>3d</fix>
</trkpt>
<trkpt lat="40.0729387" lon="-105.2307822">
  <ele>1595.47</ele>
  <time>2026-08-28T19:11:47Z</time>
  <course>291.37</course>
  <speed>0.03</speed>
  <fix>3d</fix>
</trkpt>
<trkpt lat="40.0729386" lon="-105.2307821">
  <ele>1595.57</ele>
  <time>2026-08-28T19:11:47Z</time>
  <course>312.04</course>
  <speed>0.01</speed>
  <fix>3d</fix>
</trkpt>
<trkpt lat="40.0729387" lon="-105.2307823">
  <ele>1595.47</ele>
  <time>2026-08-28T19:11:47Z</time>
  <course>283.91</course>
  <speed>0.04</speed>
  <fix>3d</fix>
</trkpt>
<trkpt lat="40.0729387" lon="-105.2307822">
  <ele>1595.57</ele>
  <time>2026-08-28T19:11:47Z</time>
  <course>310.29</course>
  <speed>0.01414213562373095</speed>
  <fix>3d</fix>
</trkpt>
<trkpt lat="40.0729387" lon="-105.2307824">
  <ele>1595.47</ele>
  <time>2026-08-28T19:11:47Z</time>
  <course>284.76</course>
  <speed>0.03</speed>
  <fix>3d</fix>
</trkpt>
<trkpt lat="40.0729387" lon="-105.2307823">
  <ele>1595.56</ele>
  <time>2026-08-28T19:11:47Z</time>
  <course>310.39</course>
  <speed>0.022360679774997897</speed>
  <fix>3d</fix>
</trkpt>
<trkpt lat="40.0729387" lon="-105.2307825">
  <ele>1595.47</ele>
  <time>2026-08-28T19:11:47Z</time>
  <course>287.32</course>
  <speed>0.04</speed>
  <fix>3d</fix>
</trkpt>
<trkpt lat="40.0729387" lon="-105.2307824">
  <ele>1595.56</ele>
  <time>2026-08-28T19:11:47Z</time>
  <course>311.01</course>
  <speed>0.022360679774997897</speed>
  <fix>3d</fix>
</trkpt>
<trkpt lat="40.0729387" lon="-105.2307826">
  <ele>1595.47</ele>
  <time>2026-08-28T19:11:47Z</time>
  <course>282.43</course>
  <speed>0.04</speed>
  <fix>3d</fix>
</trkpt>
<trkpt lat="40.0729387" lon="-105.2307825">
  <ele>1595.56</ele>
  <time>2026-08-28T19:11:47Z</time>
  <course>311.32</course>
  <speed>0.022360679774997897</speed>
  <fix>3d</fix>
</trkpt>
<trkpt lat="40.0729387" lon="-105.2307827">
  <ele>1595.47</ele>
  <time>2026-08-28T19:11:47Z</time>
  <course>284.98</course>
  <speed>0.05</speed>
  <fix>3d</fix>
</trkpt>
<trkpt lat="40.0729387" lon="-105.2307826">
  <ele>1595.56</ele>
  <time>2026-08-28T19:11:47Z</time>
  <course>311.45</course>
  <speed>0.0282842712474619</speed>
  <fix>3d</fix>
</trkpt>
<trkpt lat="40.0729387" lon="-105.2307828">
  <ele>1595.47</ele>
  <time>2026-08-28T19:11:47Z</time>
  <course>287.78</course>
  <speed>0.05</speed>
  <fix>3d</fix>
</trkpt>
<trkpt lat="40.0729388" lon="-105.2307827">
  <ele>1595.56</ele>
  <time>2026-08-28T19:11:47Z</time>
  <course>311.5</course>
  <speed>0.03605551275463989</speed>
  <fix>3d</fix>
</trkpt>
<trkpt lat="40.0729387" lon="-105.230783">
  <ele>1595.47</ele>
  <time>2026-08-28T19:11:47Z</time>
  <course>288.98</course>
  <speed>0.05</speed>
  <fix>3d</fix>
</trkpt>
<trkpt lat="40.0729388" lon="-105.2307829">
  <ele>1595.56</ele>
  <time>2026-08-28T19:11:47Z</time>
  <course>311.52</course>
  <speed>0.03605551275463989</speed>
  <fix>3d</fix>
</trkpt>
<trkpt lat="40.0729388" lon="-105.2307831">
  <ele>1595.47</ele>
  <time>2026-08-28T19:11:47Z</time>
  <course>289.36</course>
  <speed>0.06</speed>
  <fix>3d</fix>
</trkpt>
<trkpt lat="40.0729388" lon="-105.230783">
  <ele>1595.56</ele>
  <time>2026-08-28T19:11:47Z</time>
  <course>311.52</course>
  <speed>0.03605551275463989</speed>
  <fix>3d</fix>
</trkpt>
<trkpt lat="40.0729388" lon="-105.2307832">
  <ele>1595.47</ele>
  <time>2026-08-28T19:11:47Z</time>
  <course>289.88</course>
  <speed>0.06</speed>
  <fix>3d</fix>
</trkpt>
<trkpt lat="40.0729389" lon="-105.2307832">
  <ele>1595.56</ele>
  <time>2026-08-28T19:11:47Z</time>
  <course>311.53</course>
  <speed>0.03605551275463989</speed>
  <fix>3d</fix>
</trkpt>
<trkpt lat="40.0729388" lon="-105.2307834">
  <ele>1595.48</ele>
  <time>2026-08-28T19:11:47Z</time>
  <course>290.18</course>
  <speed>0.06</speed>
  <fix>3d</fix>
</trkpt>
<trkpt lat="40.0729389" lon="-105.2307833">
  <ele>1595.57</ele>
  <time>2026-08-28T19:11:47Z</time>
  <course>311.54</course>
  <speed>0.044721359549995794</speed>
  <fix>3d</fix>
</trkpt>
<trkpt lat="40.0729389" lon="-105.2307835">
  <ele>1595.48</ele>
  <time>2026-08-28T19:11:47Z</time>
  <course>290.22</course>
  <speed>0.06</speed>
  <fix>3d</fix>
</trkpt>
<trkpt lat="40.0729389" lon="-105.2307835">
  <ele>1595.57</ele>
  <time>2026-08-28T19:11:47Z</time>
  <course>311.55</course>
  <speed>0.044721359549995794</speed>
  <fix>3d</fix>
</trkpt>
<trkpt lat="40.072939" lon="-105.2307836">
  <ele>1595.48</ele>
  <time>2026-08-28T19:11:47Z</time>
  <course>290.21</course>
  <speed>0.06</speed>
  <fix>3d</fix>
</trkpt>
<trkpt lat="40.072939" lon="-105.2307836">
  <ele>1595.57</ele>
  <time>2026-08-28T19:11:47Z</time>
  <course>311.55</course>
  <speed>0.044721359549995794</speed>
  <fix>3d</fix>
</trkpt>
<trkpt lat="40.072939" lon="-105.2307838">
  <ele>1595.48</ele>
  <time>2026-08-28T19:11:47Z</time>
  <course>290.49</course>
  <speed>0.07</speed>
  <fix>3d</fix>
</trkpt>
<trkpt lat="40.072939" lon="-105.2307838">
  <ele>1595.58</ele>
  <time>2026-08-28T19:11:47Z</time>
  <course>311.56</course>
  <speed>0.044721359549995794</speed>
  <fix>3d</fix>
</trkpt>
<trkpt lat="40.0729391" lon="-105.230784">
  <ele>1595.48</ele>
  <time>2026-08-28T19:11:47Z</time>
  <course>291.14</course>
  <speed>0.07</speed>
  <fix>3d</fix>
</trkpt>
<trkpt lat="40.0729391" lon="-105.2307839">
  <ele>1595.58</ele>
  <time>2026-08-28T19:11:47Z</time>
  <course>311.56</course>
  <speed>0.05</speed>
  <fix>3d</fix>
</trkpt>
<trkpt lat="40.0729391" lon="-105.2307841">
  <ele>1595.48</ele>
  <time>2026-08-28T19:11:47Z</time>
  <course>291.8</course>
  <speed>0.07</speed>
  <fix>3d</fix>
</trkpt>
<trkpt lat="40.0729391" lon="-105.2307841">
  <ele>1595.58</ele>
  <time>2026-08-28T19:11:47Z</time>
  <course>311.56</course>
  <speed>0.05</speed>
  <fix>3d</fix>
</trkpt>
<trkpt lat="40.0729392" lon="-105.2307843">
  <ele>1595.48</ele>
  <time>2026-08-28T19:11:47Z</time>
  <course>292.44</course>
  <speed>0.07</speed>
  <fix>3d</fix>
</trkpt>
<trkpt lat="40.0729392" lon="-105.2307843">
  <ele>1595.58</ele>
  <time>2026-08-28T19:11:47Z</time>
  <course>311.58</course>
  <speed>0.05830951894845301</speed>
  <fix>3d</fix>
</trkpt>
<trkpt lat="40.0729392" lon="-105.2307845">
  <ele>1595.48</ele>
  <time>2026-08-28T19:11:47Z</time>
  <course>292.9</course>
  <speed>0.08</speed>
  <fix>3d</fix>
</trkpt>
<trkpt lat="40.0729393" lon="-105.2307845">
  <ele>1595.58</ele>
  <time>2026-08-28T19:11:47Z</time>
  <course>311.07</course>
  <speed>0.0565685424949238</speed>
  <fix>3d</fix>
</trkpt>
<trkpt lat="40.0729393" lon="-105.2307846">
  <ele>1595.48</ele>
  <time>2026-08-28T19:11:47Z</time>
  <course>294.2</course>
  <speed>0.08</speed>
  <fix>3d</fix>
</trkpt>
<trkpt lat="40.0729393" lon="-105.2307846">
  <ele>1595.57</ele>
  <time>2026-08-28T19:11:47Z</time>
  <course>311.11</course>
  <speed>0.05</speed>
  <fix>3d</fix>
</trkpt>
<trkpt lat="40.0729393" lon="-105.2307849">
  <ele>1595.48</ele>
  <time>2026-08-28T19:11:47Z</time>
  <course>295.59</course>
  <speed>0.08</speed>
  <fix>3d</fix>
</trkpt>
<trkpt lat="40.0729394" lon="-105.2307848">
  <ele>1595.57</ele>
  <time>2026-08-28T19:11:47Z</time>
  <course>311.34</course>
  <speed>0.044721359549995794</speed>
  <fix>3d</fix>
</trkpt>
<trkpt lat="40.0729394" lon="-105.230785">
  <ele>1595.47</ele>
  <time>2026-08-28T19:11:47Z</time>
  <course>296.36</course>
  <speed>0.07</speed>
  <fix>3d</fix>
</trkpt>
<trkpt lat="40.0729394" lon="-105.2307849">
  <ele>1595.57</ele>
  <time>2026-08-28T19:11:47Z</time>
  <course>311.67</course>
  <speed>0.0316227766016838</speed>
  <fix>3d</fix>
</trkpt>
<trkpt lat="40.0729394" lon="-105.2307851">
  <ele>1595.47</ele>
  <time>2026-08-28T19:11:47Z</time>
  <course>293.21</course>
  <speed>0.06</speed>
  <fix>3d</fix>
</trkpt>
<trkpt lat="40.0729395" lon="-105.2307851">
  <ele>1595.57</ele>
  <time>2026-08-28T19:11:47Z</time>
  <course>311.8</course>
  <speed>0.0282842712474619</speed>
  <fix>3d</fix>
</trkpt>
<trkpt lat="40.0729394" lon="-105.2307853">
  <ele>1595.47</ele>
  <time>2026-08-28T19:11:47Z</time>
  <course>284.84</course>
  <speed>0.06</speed>
  <fix>3d</fix>
</trkpt>
<trkpt lat="40.0729395" lon="-105.2307852">
  <ele>1595.58</ele>
  <time>2026-08-28T19:11:47Z</time>
  <course>311.6</course>
  <speed>0.022360679774997897</speed>
  <fix>3d</fix>
</trkpt>
<trkpt lat="40.0729395" lon="-105.2307854">
  <ele>1595.47</ele>
  <time>2026-08-28T19:11:47Z</time>
  <course>281.06</course>
  <speed>0.05</speed>
  <fix>3d</fix>
</trkpt>
<trkpt lat="40.0729395" lon="-105.2307853">
  <ele>1595.58</ele>
  <time>2026-08-28T19:11:47Z</time>
  <course>311.34</course>
  <speed>0.01414213562373095</speed>
  <fix>3d</fix>
</trkpt>
<trkpt lat="40.0729396" lon="-105.2307855">
  <ele>1595.47</ele>
  <time>2026-08-28T19:11:47Z</time>
  <course>286.47</course>
  <speed>0.05</speed>
  <fix>3d</fix>
</trkpt>
<trkpt lat="40.0729395" lon="-105.2307854">
  <ele>1595.58</ele>
  <time>2026-08-28T19:11:47Z</time>
  <course>311.41</course>
  <speed>0.02</speed>
  <fix>3d</fix>
</trkpt>
<trkpt lat="40.0729396" lon="-105.2307857">
  <ele>1595.47</ele>
  <time>2026-08-28T19:11:47Z</time>
  <course>293.53</course>
  <speed>0.04</speed>
  <fix>3d</fix>
</trkpt>
<trkpt lat="40.0729396" lon="-105.2307855">
  <ele>1595.58</ele>
  <time>2026-08-28T19:11:47Z</time>
  <course>311.72</course>
  <speed>0.02</speed>
  <fix>3d</fix>
</trkpt>
<trkpt lat="40.0729396" lon="-105.2307858">
  <ele>1595.47</ele>
  <time>2026-08-28T19:11:47Z</time>
  <course>289.82</course>
  <speed>0.04</speed>
  <fix>3d</fix>
</trkpt>
<trkpt lat="40.0729396" lon="-105.2307856">
  <ele>1595.57</ele>
  <time>2026-08-28T19:11:47Z</time>
  <course>311.85</course>
  <speed>0.01414213562373095</speed>
  <fix>3d</fix>
</trkpt>
<trkpt lat="40.0729396" lon="-105.2307859">
  <ele>1595.46</ele>
  <time>2026-08-28T19:11:47Z</time>
  <course>279.54</course>
  <speed>0.04</speed>
  <fix>3d</fix>
</trkpt>
<trkpt lat="40.0729396" lon="-105.2307857">
  <ele>1595.57</ele>
  <time>2026-08-28T19:11:47Z</time>
  <course>311.61</course>
  <speed>0.01414213562373095</speed>
  <fix>3d</fix>
</trkpt>
<trkpt lat="40.0729397" lon="-105.230786">
  <ele>1595.46</ele>
  <time>2026-08-28T19:11:47Z</time>
  <course>276.07</course>
  <speed>0.04</speed>
  <fix>3d</fix>
</trkpt>
<trkpt lat="40.0729396" lon="-105.2307858">
  <ele>1595.58</ele>
  <time>2026-08-28T19:11:47Z</time>
  <course>311.34</course>
  <speed>0.01414213562373095</speed>
  <fix>3d</fix>
</trkpt>
<trkpt lat="40.0729397" lon="-105.2307861">
  <ele>1595.46</ele>
  <time>2026-08-28T19:11:47Z</time>
  <course>282.76</course>
  <speed>0.04</speed>
  <fix>3d</fix>
</trkpt>
<trkpt lat="40.0729396" lon="-105.2307859">
  <ele>1595.58</ele>
  <time>2026-08-28T19:11:47Z</time>
  <course>310.91</course>
  <speed>0.01414213562373095</speed>
  <fix>3d</fix>
</trkpt>
<trkpt lat="40.0729397" lon="-105.2307862">
  <ele>1595.46</ele>
  <time>2026-08-28T19:11:47Z</time>
  <course>291.72</course>
  <speed>0.03</speed>
  <fix>3d</fix>
</trkpt>
<trkpt lat="40.0729397" lon="-105.230786">
  <ele>1595.57</ele>
  <time>2026-08-28T19:11:47Z</time>
  <course>309.98</course>
  <speed>0.022360679774997897</speed>
  <fix>3d</fix>
</trkpt>
<trkpt lat="40.0729397" lon="-105.2307863">
  <ele>1595.46</ele>
  <time>2026-08-28T19:11:47Z</time>
  <course>288.72</course>
  <speed>0.04</speed>
  <fix>3d</fix>
</trkpt>
<trkpt lat="40.0729397" lon="-105.2307861">
  <ele>1595.57</ele>
  <time>2026-08-28T19:11:47Z</time>
  <course>310.56</course>
  <speed>0.022360679774997897</speed>
  <fix>3d</fix>
</trkpt>
<trkpt lat="40.0729397" lon="-105.2307864">
  <ele>1595.45</ele>
  <time>2026-08-28T19:11:47Z</time>
  <course>282.75</course>
  <speed>0.04</speed>
  <fix>3d</fix>
</trkpt>
<trkpt lat="40.0729397" lon="-105.2307863">
  <ele>1595.57</ele>
  <time>2026-08-28T19:11:47Z</time>
  <course>310.97</course>
  <speed>0.022360679774997897</speed>
  <fix>3d</fix>
</trkpt>
<trkpt lat="40.0729398" lon="-105.2307865">
  <ele>1595.45</ele>
  <time>2026-08-28T19:11:47Z</time>
  <course>283.35</course>
  <speed>0.04</speed>
  <fix>3d</fix>
</trkpt>
<trkpt lat="40.0729398" lon="-105.2307864">
  <ele>1595.57</ele>
  <time>2026-08-28T19:11:47Z</time>
  <course>311.15</course>
  <speed>0.022360679774997897</speed>
  <fix>3d</fix>
</trkpt>
<trkpt lat="40.0729398" lon="-105.2307866">
  <ele>1595.45</ele>
  <time>2026-08-28T19:11:47Z</time>
  <course>285.51</course>
  <speed>0.05</speed>
  <fix>3d</fix>
</trkpt>
<trkpt lat="40.0729398" lon="-105.2307865">
  <ele>1595.57</ele>
  <time>2026-08-28T19:11:47Z</time>
  <course>311.23</course>
  <speed>0.03605551275463989</speed>
  <fix>3d</fix>
</trkpt>
<trkpt lat="40.0729398" lon="-105.2307867">
  <ele>1595.45</ele>
  <time>2026-08-28T19:11:47Z</time>
  <course>286.86</course>
  <speed>0.05</speed>
  <fix>3d</fix>
</trkpt>
<trkpt lat="40.0729398" lon="-105.2307866">
  <ele>1595.57</ele>
  <time>2026-08-28T19:11:47Z</time>
  <course>311.26</course>
  <speed>0.03605551275463989</speed>
  <fix>3d</fix>
</trkpt>
<trkpt lat="40.0729398" lon="-105.2307869">
  <ele>1595.45</ele>
  <time>2026-08-28T19:11:47Z</time>
  <course>287.51</course>
  <speed>0.05</speed>
  <fix>3d</fix>
</trkpt>
<trkpt lat="40.0729399" lon="-105.2307868">
  <ele>1595.57</ele>
  <time>2026-08-28T19:11:47Z</time>
  <course>311.28</course>
  <speed>0.03605551275463989</speed>
  <fix>3d</fix>
</trkpt>
<trkpt lat="40.0729399" lon="-105.230787">
  <ele>1595.45</ele>
  <time>2026-08-28T19:11:47Z</time>
  <course>287.81</course>
  <speed>0.06</speed>
  <fix>3d</fix>
</trkpt>
<trkpt lat="40.0729399" lon="-105.2307869">
  <ele>1595.57</ele>
  <time>2026-08-28T19:11:47Z</time>
  <course>311.27</course>
  <speed>0.044721359549995794</speed>
  <fix>3d</fix>
</trkpt>
<trkpt lat="40.0729399" lon="-105.2307871">
  <ele>1595.45</ele>
  <time>2026-08-28T19:11:47Z</time>
  <course>288.47</course>
  <speed>0.06</speed>
  <fix>3d</fix>
</trkpt>
<trkpt lat="40.0729399" lon="-105.2307871">
  <ele>1595.56</ele>
  <time>2026-08-28T19:11:47Z</time>
  <course>311.27</course>
  <speed>0.044721359549995794</speed>
  <fix>3d</fix>
</trkpt>
<trkpt lat="40.0729399" lon="-105.2307873">
  <ele>1595.45</ele>
  <time>2026-08-28T19:11:47Z</time>
  <course>289.24</course>
  <speed>0.06</speed>
  <fix>3d</fix>
</trkpt>
<trkpt lat="40.07294" lon="-105.2307872">
  <ele>1595.56</ele>
  <time>2026-08-28T19:11:47Z</time>
  <course>311.27</course>
  <speed>0.044721359549995794</speed>
  <fix>3d</fix>
</trkpt>
<trkpt lat="40.0729399" lon="-105.2307874">
  <ele>1595.45</ele>
  <time>2026-08-28T19:11:47Z</time>
  <course>289.75</course>
  <speed>0.07</speed>
  <fix>3d</fix>
</trkpt>
<trkpt lat="40.07294" lon="-105.2307874">
  <ele>1595.56</ele>
  <time>2026-08-28T19:11:47Z</time>
  <course>311.27</course>
  <speed>0.044721359549995794</speed>
  <fix>3d</fix>
</trkpt>
<trkpt lat="40.07294" lon="-105.2307876">
  <ele>1595.45</ele>
  <time>2026-08-28T19:11:47Z</time>
  <course>290.25</course>
  <speed>0.07</speed>
  <fix>3d</fix>
</trkpt>
<trkpt lat="40.0729401" lon="-105.2307876">
  <ele>1595.56</ele>
  <time>2026-08-28T19:11:47Z</time>
  <course>311.25</course>
  <speed>0.044721359549995794</speed>
  <fix>3d</fix>
</trkpt>
<trkpt lat="40.07294" lon="-105.2307878">
  <ele>1595.45</ele>
  <time>2026-08-28T19:11:47Z</time>
  <course>290.84</course>
  <speed>0.07</speed>
  <fix>3d</fix>
</trkpt>
<trkpt lat="40.0729401" lon="-105.2307878">
  <ele>1595.56</ele>
  <time>2026-08-28T19:11:47Z</time>
  <course>311.26</course>
  <speed>0.05</speed>
  <fix>3d</fix>
</trkpt>
<trkpt lat="40.0729401" lon="-105.2307879">
  <ele>1595.45</ele>
  <time>2026-08-28T19:11:47Z</time>
  <course>291.12</course>
  <speed>0.07</speed>
  <fix>3d</fix>
</trkpt>
<trkpt lat="40.0729402" lon="-105.2307879">
  <ele>1595.56</ele>
  <time>2026-08-28T19:11:47Z</time>
  <course>311.27</course>
  <speed>0.05830951894845301</speed>
  <fix>3d</fix>
</trkpt>
<trkpt lat="40.0729402" lon="-105.2307881">
  <ele>1595.45</ele>
  <time>2026-08-28T19:11:47Z</time>
  <course>291.32</course>
  <speed>0.08</speed>
  <fix>3d</fix>
</trkpt>
<trkpt lat="40.0729402" lon="-105.2307881">
  <ele>1595.56</ele>
  <time>2026-08-28T19:11:47Z</time>
  <course>311.28</course>
  <speed>0.05830951894845301</speed>
  <fix>3d</fix>
</trkpt>
<trkpt lat="40.0729402" lon="-105.2307883">
  <ele>1595.46</ele>
  <time>2026-08-28T19:11:47Z</time>
  <course>291.79</course>
  <speed>0.08</speed>
  <fix>3d</fix>
</trkpt>
<trkpt lat="40.0729403" lon="-105.2307883">
  <ele>1595.57</ele>
  <time>2026-08-28T19:11:47Z</time>
  <course>311.28</course>
  <speed>0.05830951894845301</speed>
  <fix>3d</fix>
</trkpt>
<trkpt lat="40.0729403" lon="-105.2307884">
  <ele>1595.46</ele>
  <time>2026-08-28T19:11:47Z</time>
  <course>292.21</course>
  <speed>0.08</speed>
  <fix>3d</fix>
</trkpt>
<trkpt lat="40.0729403" lon="-105.2307885">
  <ele>1595.57</ele>
  <time>2026-08-28T19:11:47Z</time>
  <course>311.17</course>
  <speed>0.05830951894845301</speed>
  <fix>3d</fix>
</trkpt>
<trkpt lat="40.0729403" lon="-105.2307887">
  <ele>1595.46</ele>
  <time>2026-08-28T19:11:47Z</time>
  <course>289.21</course>
  <speed>0.08</speed>
  <fix>3d</fix>
</trkpt>
<trkpt lat="40.0729404" lon="-105.2307887">
  <ele>1595.57</ele>
  <time>2026-08-28T19:11:47Z</time>
  <course>311.41</course>
  <speed>0.05</speed>
  <fix>3d</fix>
</trkpt>
<trkpt lat="40.0729404" lon="-105.2307888">
  <ele>1595.46</ele>
  <time>2026-08-28T19:11:47Z</time>
  <course>285.02</course>
  <speed>0.08</speed>
  <fix>3d</fix>
</trkpt>
<trkpt lat="40.0729404" lon="-105.2307888">
  <ele>1595.56</ele>
  <time>2026-08-28T19:11:47Z</time>
  <course>311.22</course>
  <speed>0.03605551275463989</speed>
  <fix>3d</fix>
</trkpt>
<trkpt lat="40.0729404" lon="-105.230789">
  <ele>1595.46</ele>
  <time>2026-08-28T19:11:47Z</time>
  <course>285.2</course>
  <speed>0.07</speed>
  <fix>3d</fix>
</trkpt>
<trkpt lat="40.0729404" lon="-105.230789">
  <ele>1595.56</ele>
  <time>2026-08-28T19:11:47Z</time>
  <course>311.01</course>
  <speed>0.0316227766016838</speed>
  <fix>3d</fix>
</trkpt>
<trkpt lat="40.0729405" lon="-105.2307892">
  <ele>1595.46</ele>
  <time>2026-08-28T19:11:47Z</time>
  <course>289.8</course>
  <speed>0.06</speed>
  <fix>3d</fix>
</trkpt>
<trkpt lat="40.0729405" lon="-105.2307891">
  <ele>1595.55</ele>
  <time>2026-08-28T19:11:47Z</time>
  <course>310.99</course>
  <speed>0.0316227766016838</speed>
  <fix>3d</fix>
</trkpt>
<trkpt lat="40.0729405" lon="-105.2307893">
  <ele>1595.46</ele>
  <time>2026-08-28T19:11:47Z</time>
  <course>295.16</course>
  <speed>0.05</speed>
  <fix>3d</fix>
</trkpt>
<trkpt lat="40.0729405" lon="-105.2307892">
  <ele>1595.55</ele>
  <time>2026-08-28T19:11:47Z</time>
  <course>311.19</course>
  <speed>0.02</speed>
  <fix>3d</fix>
</trkpt>
<trkpt lat="40.0729405" lon="-105.2307894">
  <ele>1595.47</ele>
  <time>2026-08-28T19:11:47Z</time>
  <course>294.97</course>
  <speed>0.05</speed>
  <fix>3d</fix>
</trkpt>
<trkpt lat="40.0729405" lon="-105.2307893">
  <ele>1595.55</ele>
  <time>2026-08-28T19:11:47Z</time>
  <course>311.43</course>
  <speed>0.02</speed>
  <fix>3d</fix>
</trkpt>
<trkpt lat="40.0729405" lon="-105.2307895">
  <ele>1595.47</ele>
  <time>2026-08-28T19:11:47Z</time>
  <course>287.51</course>
  <speed>0.04</speed>
  <fix>3d</fix>
</trkpt>
<trkpt lat="40.0729405" lon="-105.2307894">
  <ele>1595.55</ele>
  <time>2026-08-28T19:11:47Z</time>
  <course>311.51</course>
  <speed>0.01414213562373095</speed>
  <fix>3d</fix>
</trkpt>
<trkpt lat="40.0729405" lon="-105.2307896">
  <ele>1595.47</ele>
  <time>2026-08-28T19:11:47Z</time>
  <course>278.95</course>
  <speed>0.04</speed>
  <fix>3d</fix>
</trkpt>
<trkpt lat="40.0729405" lon="-105.2307895">
  <ele>1595.55</ele>
  <time>2026-08-28T19:11:47Z</time>
  <course>311.34</course>
  <speed>0.01414213562373095</speed>
  <fix>3d</fix>
</trkpt>
<trkpt lat="40.0729405" lon="-105.2307897">
  <ele>1595.48</ele>
  <time>2026-08-28T19:11:47Z</time>
  <course>275.96</course>
  <speed>0.04</speed>
  <fix>3d</fix>
</trkpt>
<trkpt lat="40.0729406" lon="-105.2307896">
  <ele>1595.56</ele>
  <time>2026-08-28T19:11:47Z</time>
  <course>311.1</course>
  <speed>0.01414213562373095</speed>
  <fix>3d</fix>
</trkpt>
<trkpt lat="40.0729406" lon="-105.2307898">
  <ele>1595.48</ele>
  <time>2026-08-28T19:11:47Z</time>
  <course>280.2</course>
  <speed>0.04</speed>
  <fix>3d</fix>
</trkpt>
<trkpt lat="40.0729406" lon="-105.2307897">
  <ele>1595.56</ele>
  <time>2026-08-28T19:11:47Z</time>
  <course>310.96</course>
  <speed>0.01</speed>
  <fix>3d</fix>
</trkpt>
<trkpt lat="40.0729406" lon="-105.2307899">
  <ele>1595.49</ele>
  <time>2026-08-28T19:11:47Z</time>
  <course>288.64</course>
  <speed>0.04</speed>
  <fix>3d</fix>
</trkpt>
<trkpt lat="40.0729406" lon="-105.2307898">
  <ele>1595.57</ele>
  <time>2026-08-28T19:11:47Z</time>
  <course>311.06</course>
  <speed>0.02</speed>
  <fix>3d</fix>
</trkpt>
<trkpt lat="40.0729406" lon="-105.23079">
  <ele>1595.49</ele>
  <time>2026-08-28T19:11:47Z</time>
  <course>293.11</course>
  <speed>0.03</speed>
  <fix>3d</fix>
</trkpt>
<trkpt lat="40.0729406" lon="-105.2307899">
  <ele>1595.57</ele>
  <time>2026-08-28T19:11:47Z</time>
  <course>310.59</course>
  <speed>0.01414213562373095</speed>
  <fix>3d</fix>
</trkpt>
<trkpt lat="40.0729406" lon="-105.2307901">
  <ele>1595.5</ele>
  <time>2026-08-28T19:11:47Z</time>
  <course>293.1</course>
  <speed>0.03</speed>
  <fix>3d</fix>
</trkpt>
<trkpt lat="40.0729406" lon="-105.23079">
  <ele>1595.57</ele>
  <time>2026-08-28T19:11:47Z</time>
  <course>310.06</course>
  <speed>0.01414213562373095</speed>
  <fix>3d</fix>
</trkpt>
<trkpt lat="40.0729406" lon="-105.2307902">
  <ele>1595.5</ele>
  <time>2026-08-28T19:11:47Z</time>
  <course>287.64</course>
  <speed>0.04</speed>
  <fix>3d</fix>
</trkpt>
<trkpt lat="40.0729407" lon="-105.2307901">
  <ele>1595.57</ele>
  <time>2026-08-28T19:11:47Z</time>
  <course>310.47</course>
  <speed>0.022360679774997897</speed>
  <fix>3d</fix>
</trkpt>
<trkpt lat="40.0729407" lon="-105.2307903">
  <ele>1595.5</ele>
  <time>2026-08-28T19:11:47Z</time>
  <course>282.61</course>
  <speed>0.04</speed>
  <fix>3d</fix>
</trkpt>
<trkpt lat="40.0729407" lon="-105.2307902">
  <ele>1595.57</ele>
  <time>2026-08-28T19:11:47Z</time>
  <course>310.73</course>
  <speed>0.022360679774997897</speed>
  <fix>3d</fix>
</trkpt>
<trkpt lat="40.0729408" lon="-105.2307904">
  <ele>1595.5</ele>
  <time>2026-08-28T19:11:47Z</time>
  <course>283.72</course>
  <speed>0.05</speed>
  <fix>3d</fix>
</trkpt>
<trkpt lat="40.0729407" lon="-105.2307903">
  <ele>1595.57</ele>
  <time>2026-08-28T19:11:47Z</time>
  <course>310.84</course>
  <speed>0.022360679774997897</speed>
  <fix>3d</fix>
</trkpt>
<trkpt lat="40.0729408" lon="-105.2307905">
  <ele>1595.5</ele>
  <time>2026-08-28T19:11:47Z</time>
  <course>285.55</course>
  <speed>0.05</speed>
  <fix>3d</fix>
</trkpt>
<trkpt lat="40.0729407" lon="-105.2307904">
  <ele>1595.57</ele>
  <time>2026-08-28T19:11:47Z</time>
  <course>310.89</course>
  <speed>0.03605551275463989</speed>
  <fix>3d</fix>
</trkpt>
<trkpt lat="40.0729408" lon="-105.2307907">
  <ele>1595.5</ele>
  <time>2026-08-28T19:11:47Z</time>
  <course>286.66</course>
  <speed>0.05</speed>
  <fix>3d</fix>
</trkpt>
<trkpt lat="40.0729408" lon="-105.2307906">
  <ele>1595.57</ele>
  <time>2026-08-28T19:11:47Z</time>
  <course>310.91</course>
  <speed>0.03605551275463989</speed>
  <fix>3d</fix>
</trkpt>
<trkpt lat="40.0729408" lon="-105.2307908">
  <ele>1595.51</ele>
  <time>2026-08-28T19:11:47Z</time>
  <course>287.47</course>
  <speed>0.06</speed>
  <fix>3d</fix>
</trkpt>
<trkpt lat="40.0729408" lon="-105.2307907">
  <ele>1595.58</ele>
  <time>2026-08-28T19:11:47Z</time>
  <course>310.92</course>
  <speed>0.03605551275463989</speed>
  <fix>3d</fix>
</trkpt>
<trkpt lat="40.0729409" lon="-105.2307909">
  <ele>1595.51</ele>
  <time>2026-08-28T19:11:47Z</time>
  <course>287.95</course>
  <speed>0.06</speed>
  <fix>3d</fix>
</trkpt>
<trkpt lat="40.0729409" lon="-105.2307908">
  <ele>1595.58</ele>
  <time>2026-08-28T19:11:47Z</time>
  <course>310.93</course>
  <speed>0.03605551275463989</speed>
  <fix>3d</fix>
</trkpt>
<trkpt lat="40.0729409" lon="-105.2307911">
  <ele>1595.51</ele>
  <time>2026-08-28T19:11:47Z</time>
  <course>288.32</course>
  <speed>0.06</speed>
  <fix>3d</fix>
</trkpt>
<trkpt lat="40.0729409" lon="-105.230791">
  <ele>1595.58</ele>
  <time>2026-08-28T19:11:47Z</time>
  <course>310.93</course>
  <speed>0.044721359549995794</speed>
  <fix>3d</fix>
</trkpt>
<trkpt lat="40.0729409" lon="-105.2307912">
  <ele>1595.51</ele>
  <time>2026-08-28T19:11:47Z</time>
  <course>288.82</course>
  <speed>0.06</speed>
  <fix>3d</fix>
</trkpt>
<trkpt lat="40.072941" lon="-105.2307912">
  <ele>1595.58</ele>
  <time>2026-08-28T19:11:47Z</time>
  <course>310.97</course>
  <speed>0.044721359549995794</speed>
  <fix>3d</fix>
</trkpt>
<trkpt lat="40.072941" lon="-105.2307913">
  <ele>1595.5</ele>
  <time>2026-08-28T19:11:47Z</time>
  <course>289.22</course>
  <speed>0.07</speed>
  <fix>3d</fix>
</trkpt>
<trkpt lat="40.072941" lon="-105.2307913">
  <ele>1595.57</ele>
  <time>2026-08-28T19:11:47Z</time>
  <course>310.94</course>
  <speed>0.044721359549995794</speed>
  <fix>3d</fix>
</trkpt>
<trkpt lat="40.072941" lon="-105.2307916">
  <ele>1595.5</ele>
  <time>2026-08-28T19:11:47Z</time>
  <course>289.78</course>
  <speed>0.07</speed>
  <fix>3d</fix>
</trkpt>
<trkpt lat="40.0729411" lon="-105.2307915">
  <ele>1595.57</ele>
  <time>2026-08-28T19:11:47Z</time>
  <course>310.93</course>
  <speed>0.05</speed>
  <fix>3d</fix>
</trkpt>
<trkpt lat="40.0729411" lon="-105.2307917">
  <ele>1595.5</ele>
  <time>2026-08-28T19:11:47Z</time>
  <course>290.38</course>
  <speed>0.07</speed>
  <fix>3d</fix>
</trkpt>
<trkpt lat="40.0729411" lon="-105.2307917">
  <ele>1595.56</ele>
  <time>2026-08-28T19:11:47Z</time>
  <course>310.92</course>
  <speed>0.05</speed>
  <fix>3d</fix>
</trkpt>
<trkpt lat="40.0729411" lon="-105.2307918">
  <ele>1595.5</ele>
  <time>2026-08-28T19:11:47Z</time>
  <course>291.0</course>
  <speed>0.07</speed>
  <fix>3d</fix>
</trkpt>
<trkpt lat="40.0729412" lon="-105.2307918">
  <ele>1595.56</ele>
  <time>2026-08-28T19:11:47Z</time>
  <course>310.92</course>
  <speed>0.05830951894845301</speed>
  <fix>3d</fix>
</trkpt>
<trkpt lat="40.0729411" lon="-105.2307921">
  <ele>1595.5</ele>
  <time>2026-08-28T19:11:47Z</time>
  <course>291.76</course>
  <speed>0.08</speed>
  <fix>3d</fix>
</trkpt>
<trkpt lat="40.0729412" lon="-105.230792">
  <ele>1595.56</ele>
  <time>2026-08-28T19:11:47Z</time>
  <course>310.93</course>
  <speed>0.05830951894845301</speed>
  <fix>3d</fix>
</trkpt>
<trkpt lat="40.0729412" lon="-105.2307922">
  <ele>1595.5</ele>
  <time>2026-08-28T19:11:47Z</time>
  <course>292.14</course>
  <speed>0.08</speed>
  <fix>3d</fix>
</trkpt>
<trkpt lat="40.0729413" lon="-105.2307922">
  <ele>1595.56</ele>
  <time>2026-08-28T19:11:47Z</time>
  <course>310.83</course>
  <speed>0.06403124237432849</speed>
  <fix>3d</fix>
</trkpt>
<trkpt lat="40.0729412" lon="-105.2307925">
  <ele>1595.5</ele>
  <time>2026-08-28T19:11:47Z</time>
  <course>292.3</course>
  <speed>0.08</speed>
  <fix>3d</fix>
</trkpt>
<trkpt lat="40.0729413" lon="-105.2307924">
  <ele>1595.57</ele>
  <time>2026-08-28T19:11:47Z</time>
  <course>310.84</course>
  <speed>0.05830951894845301</speed>
  <fix>3d</fix>
</trkpt>
<trkpt lat="40.0729413" lon="-105.2307926">
  <ele>1595.5</ele>
  <time>2026-08-28T19:11:47Z</time>
  <course>288.55</course>
  <speed>0.08</speed>
  <fix>3d</fix>
</trkpt>
<trkpt lat="40.0729414" lon="-105.2307926">
  <ele>1595.57</ele>
  <time>2026-08-28T19:11:47Z</time>
  <course>310.98</course>
  <speed>0.05</speed>
  <fix>3d</fix>
</trkpt>
<trkpt lat="40.0729414" lon="-105.2307927">
  <ele>1595.5</ele>
  <time>2026-08-28T19:11:47Z</time>
  <course>284.62</course>
  <speed>0.08</speed>
  <fix>3d</fix>
</trkpt>
<trkpt lat="40.0729414" lon="-105.2307928">
  <ele>1595.58</ele>
  <time>2026-08-28T19:11:47Z</time>
  <course>310.85</course>
  <speed>0.03605551275463989</speed>
  <fix>3d</fix>
</trkpt>
<trkpt lat="40.0729414" lon="-105.230793">
  <ele>1595.51</ele>
  <time>2026-08-28T19:11:47Z</time>
  <course>285.37</course>
  <speed>0.07</speed>
  <fix>3d</fix>
</trkpt>
<trkpt lat="40.0729414" lon="-105.2307929">
  <ele>1595.58</ele>
  <time>2026-08-28T19:11:47Z</time>
  <course>310.7</course>
  <speed>0.0282842712474619</speed>
  <fix>3d</fix>
</trkpt>
<trkpt lat="40.0729415" lon="-105.2307931">
  <ele>1595.51</ele>
  <time>2026-08-28T19:11:47Z</time>
  <course>288.54</course>
  <speed>0.06</speed>
  <fix>3d</fix>
</trkpt>
<trkpt lat="40.0729415" lon="-105.230793">
  <ele>1595.58</ele>
  <time>2026-08-28T19:11:47Z</time>
  <course>310.63</course>
  <speed>0.022360679774997897</speed>
  <fix>3d</fix>
</trkpt>
<trkpt lat="40.0729415" lon="-105.2307932">
  <ele>1595.51</ele>
  <time>2026-08-28T19:11:47Z</time>
  <course>293.06</course>
  <speed>0.05</speed>
  <fix>3d</fix>
</trkpt>
<trkpt lat="40.0729415" lon="-105.2307931">
  <ele>1595.58</ele>
  <time>2026-08-28T19:11:47Z</time>
  <course>310.67</course>
  <speed>0.022360679774997897</speed>
  <fix>3d</fix>
</trkpt>
<trkpt lat="40.0729415" lon="-105.2307934">
  <ele>1595.51</ele>
  <time>2026-08-28T19:11:47Z</time>
  <course>296.15</course>
  <speed>0.04</speed>
  <fix>3d</fix>
</trkpt>
<trkpt lat="40.0729415" lon="-105.2307932">
  <ele>1595.57</ele>
  <time>2026-08-28T19:11:47Z</time>
  <course>310.81</course>
  <speed>0.02</speed>
  <fix>3d</fix>
</trkpt>
<trkpt lat="40.0729416" lon="-105.2307935">
  <ele>1595.51</ele>
  <time>2026-08-28T19:11:47Z</time>
  <course>294.91</course>
  <speed>0.04</speed>
  <fix>3d</fix>
</trkpt>
<trkpt lat="40.0729416" lon="-105.2307933">
  <ele>1595.57</ele>
  <time>2026-08-28T19:11:47Z</time>
  <course>311.01</course>
  <speed>0.02</speed>
  <fix>3d</fix>
</trkpt>
<trkpt lat="40.0729416" lon="-105.2307936">
  <ele>1595.5</ele>
  <time>2026-08-28T19:11:47Z</time>
  <course>288.86</course>
  <speed>0.04</speed>
  <fix>3d</fix>
</trkpt>
<trkpt lat="40.0729416" lon="-105.2307934">
  <ele>1595.58</ele>
  <time>2026-08-28T19:11:47Z</time>
  <course>311.18</course>
  <speed>0.02</speed>
  <fix>3d</fix>
</trkpt>
<trkpt lat="40.0729416" lon="-105.2307937">
  <ele>1595.5</ele>
  <time>2026-08-28T19:11:47Z</time>
  <course>280.75</course>
  <speed>0.04</speed>
  <fix>3d</fix>
</trkpt>
<trkpt lat="40.0729416" lon="-105.2307935">
  <ele>1595.58</ele>
  <time>2026-08-28T19:11:47Z</time>
  <course>311.28</course>
  <speed>0.01414213562373095</speed>
  <fix>3d</fix>
</trkpt>
<trkpt lat="40.0729416" lon="-105.2307938">
  <ele>1595.5</ele>
  <time>2026-08-28T19:11:47Z</time>
  <course>273.82</course>
  <speed>0.04</speed>
  <fix>3d</fix>
</trkpt>
<trkpt lat="40.0729416" lon="-105.2307937">
  <ele>1595.58</ele>
  <time>2026-08-28T19:11:47Z</time>
  <course>311.24</course>
  <speed>0.01414213562373095</speed>
  <fix>3d</fix>
</trkpt>
<trkpt lat="40.0729417" lon="-105.2307939">
  <ele>1595.5</ele>
  <time>2026-08-28T19:11:47Z</time>
  <course>270.27</course>
  <speed>0.04</speed>
  <fix>3d</fix>
</trkpt>
<trkpt lat="40.0729416" lon="-105.2307938">
  <ele>1595.59</ele>
  <time>2026-08-28T19:11:47Z</time>
  <course>311.1</course>
  <speed>0.01414213562373095</speed>
  <fix>3d</fix>
</trkpt>
<trkpt lat="40.0729417" lon="-105.230794">
  <ele>1595.5</ele>
  <time>2026-08-28T19:11:47Z</time>
  <course>270.84</course>
  <speed>0.04</speed>
  <fix>3d</fix>
</trkpt>
<trkpt lat="40.0729416" lon="-105.2307939">
  <ele>1595.59</ele>
  <time>2026-08-28T19:11:47Z</time>
  <course>311.16</course>
  <speed>0.01414213562373095</speed>
  <fix>3d</fix>
</trkpt>
<trkpt lat="40.0729417" lon="-105.2307941">
  <ele>1595.5</ele>
  <time>2026-08-28T19:11:47Z</time>
  <course>274.16</course>
  <speed>0.04</speed>
  <fix>3d</fix>
</trkpt>
<trkpt lat="40.0729416" lon="-105.230794">
  <ele>1595.58</ele>
  <time>2026-08-28T19:11:47Z</time>
  <course>309.93</course>
  <speed>0.01</speed>
  <fix>3d</fix>
</trkpt>
<trkpt lat="40.0729417" lon="-105.2307942">
  <ele>1595.49</ele>
  <time>2026-08-28T19:11:47Z</time>
  <course>280.2</course>
  <speed>0.04</speed>
  <fix>3d</fix>
</trkpt>
<trkpt lat="40.0729416" lon="-105.2307941">
  <ele>1595.58</ele>
  <time>2026-08-28T19:11:47Z</time>
  <course>310.12</course>
  <speed>0.022360679774997897</speed>
  <fix>3d</fix>
</trkpt>
<trkpt lat="40.0729417" lon="-105.2307943">
  <ele>1595.49</ele>
  <time>2026-08-28T19:11:47Z</time>
  <course>282.96</course>
  <speed>0.04</speed>
  <fix>3d</fix>
</trkpt>
<trkpt lat="40.0729417" lon="-105.2307942">
  <ele>1595.57</ele>
  <time>2026-08-28T19:11:47Z</time>
  <course>310.38</course>
  <speed>0.022360679774997897</speed>
  <fix>3d</fix>
</trkpt>
<trkpt lat="40.0729417" lon="-105.2307944">
  <ele>1595.48</ele>
  <time>2026-08-28T19:11:47Z</time>
  <course>283.03</course>
  <speed>0.04</speed>
  <fix>3d</fix>
</trkpt>
<trkpt lat="40.0729417" lon="-105.2307943">
  <ele>1595.57</ele>
  <time>2026-08-28T19:11:47Z</time>
  <course>310.51</course>
  <speed>0.022360679774997897</speed>
  <fix>3d</fix>
</trkpt>
<trkpt lat="40.0729417" lon="-105.2307945">
  <ele>1595.48</ele>
  <time>2026-08-28T19:11:47Z</time>
  <course>284.87</course>
  <speed>0.05</speed>
  <fix>3d</fix>
</trkpt>
<trkpt lat="40.0729417" lon="-105.2307944">
  <ele>1595.58</ele>
  <time>2026-08-28T19:11:47Z</time>
  <course>310.57</course>
  <speed>0.022360679774997897</speed>
  <fix>3d</fix>
</trkpt>
<trkpt lat="40.0729417" lon="-105.2307946">
  <ele>1595.48</ele>
  <time>2026-08-28T19:11:47Z</time>
  <course>286.31</course>
  <speed>0.05</speed>
  <fix>3d</fix>
</trkpt>
<trkpt lat="40.0729417" lon="-105.2307946">
  <ele>1595.58</ele>
  <time>2026-08-28T19:11:47Z</time>
  <course>310.6</course>
  <speed>0.0316227766016838</speed>
  <fix>3d</fix>
</trkpt>
<trkpt lat="40.0729417" lon="-105.2307948">
  <ele>1595.48</ele>
  <time>2026-08-28T19:11:47Z</time>
  <course>287.47</course>
  <speed>0.05</speed>
  <fix>3d</fix>
</trkpt>
<trkpt lat="40.0729418" lon="-105.2307947">
  <ele>1595.58</ele>
  <time>2026-08-28T19:11:47Z</time>
  <course>310.6</course>
  <speed>0.0316227766016838</speed>
  <fix>3d</fix>
</trkpt>
<trkpt lat="40.0729418" lon="-105.2307949">
  <ele>1595.48</ele>
  <time>2026-08-28T19:11:47Z</time>
  <course>288.31</course>
  <speed>0.05</speed>
  <fix>3d</fix>
</trkpt>
<trkpt lat="40.0729418" lon="-105.2307948">
  <ele>1595.58</ele>
  <time>2026-08-28T19:11:47Z</time>
  <course>310.64</course>
  <speed>0.03605551275463989</speed>
  <fix>3d</fix>
</trkpt>
<trkpt lat="40.0729418" lon="-105.230795">
  <ele>1595.48</ele>
  <time>2026-08-28T19:11:47Z</time>
  <course>288.96</course>
  <speed>0.06</speed>
  <fix>3d</fix>
</trkpt>
<trkpt lat="40.0729418" lon="-105.230795">
  <ele>1595.58</ele>
  <time>2026-08-28T19:11:47Z</time>
  <course>310.62</course>
  <speed>0.03605551275463989</speed>
  <fix>3d</fix>
</trkpt>
<trkpt lat="40.0729418" lon="-105.2307951">
  <ele>1595.47</ele>
  <time>2026-08-28T19:11:47Z</time>
  <course>289.67</course>
  <speed>0.06</speed>
  <fix>3d</fix>
</trkpt>
<trkpt lat="40.0729419" lon="-105.2307951">
  <ele>1595.58</ele>
  <time>2026-08-28T19:11:47Z</time>
  <course>310.63</course>
  <speed>0.044721359549995794</speed>
  <fix>3d</fix>
</trkpt>
<trkpt lat="40.0729419" lon="-105.2307953">
  <ele>1595.47</ele>
  <time>2026-08-28T19:11:47Z</time>
  <course>290.34</course>
  <speed>0.06</speed>
  <fix>3d</fix>
</trkpt>
<trkpt lat="40.0729419" lon="-105.2307953">
  <ele>1595.58</ele>
  <time>2026-08-28T19:11:47Z</time>
  <course>310.62</course>
  <speed>0.044721359549995794</speed>
  <fix>3d</fix>
</trkpt>
<trkpt lat="40.072942" lon="-105.2307955">
  <ele>1595.47</ele>
  <time>2026-08-28T19:11:47Z</time>
  <course>290.89</course>
  <speed>0.07</speed>
  <fix>3d</fix>
</trkpt>
<trkpt lat="40.072942" lon="-105.2307954">
  <ele>1595.57</ele>
  <time>2026-08-28T19:11:47Z</time>
  <course>310.61</course>
  <speed>0.044721359549995794</speed>
  <fix>3d</fix>
</trkpt>
<trkpt lat="40.072942" lon="-105.2307956">
  <ele>1595.46</ele>
  <time>2026-08-28T19:11:47Z</time>
  <course>291.46</course>
  <speed>0.07</speed>
  <fix>3d</fix>
</trkpt>
<trkpt lat="40.072942" lon="-105.2307956">
  <ele>1595.57</ele>
  <time>2026-08-28T19:11:47Z</time>
  <course>310.61</course>
  <speed>0.044721359549995794</speed>
  <fix>3d</fix>
</trkpt>
<trkpt lat="40.0729421" lon="-105.2307958">
  <ele>1595.46</ele>
  <time>2026-08-28T19:11:47Z</time>
  <course>291.9</course>
  <speed>0.07</speed>
  <fix>3d</fix>
</trkpt>
<trkpt lat="40.0729421" lon="-105.2307958">
  <ele>1595.56</ele>
  <time>2026-08-28T19:11:47Z</time>
  <course>310.61</course>
  <speed>0.05</speed>
  <fix>3d</fix>
</trkpt>
<trkpt lat="40.0729421" lon="-105.230796">
  <ele>1595.46</ele>
  <time>2026-08-28T19:11:47Z</time>
  <course>292.47</course>
  <speed>0.07</speed>
  <fix>3d</fix>
</trkpt>
<trkpt lat="40.0729421" lon="-105.2307959">
  <ele>1595.56</ele>
  <time>2026-08-28T19:11:47Z</time>
  <course>310.61</course>
  <speed>0.05830951894845301</speed>
  <fix>3d</fix>
</trkpt>
<trkpt lat="40.0729422" lon="-105.2307961">
  <ele>1595.46</ele>
  <time>2026-08-28T19:11:47Z</time>
  <course>293.21</course>
  <speed>0.08</speed>
  <fix>3d</fix>
</trkpt>
<trkpt lat="40.0729422" lon="-105.2307961">
  <ele>1595.56</ele>
  <time>2026-08-28T19:11:47Z</time>
  <course>310.61</course>
  <speed>0.05830951894845301</speed>
  <fix>3d</fix>
</trkpt>
<trkpt lat="40.0729422" lon="-105.2307963">
  <ele>1595.46</ele>
  <time>2026-08-28T19:11:47Z</time>
  <course>293.84</course>
  <speed>0.08</speed>
  <fix>3d</fix>
</trkpt>
<trkpt lat="40.0729423" lon="-105.2307963">
  <ele>1595.56</ele>
  <time>2026-08-28T19:11:47Z</time>
  <course>309.14</course>
  <speed>0.05830951894845301</speed>
  <fix>3d</fix>
</trkpt>
<trkpt lat="40.0729423" lon="-105.2307965">
  <ele>1595.46</ele>
  <time>2026-08-28T19:11:47Z</time>
  <course>299.0</course>
  <speed>0.08</speed>
  <fix>3d</fix>
</trkpt>
<trkpt lat="40.0729423" lon="-105.2307965">
  <ele>1595.56</ele>
  <time>2026-08-28T19:11:47Z</time>
  <course>310.41</course>
  <speed>0.05</speed>
  <fix>3d</fix>
</trkpt>
<trkpt lat="40.0729423" lon="-105.2307966">
  <ele>1595.46</ele>
  <time>2026-08-28T19:11:47Z</time>
  <course>299.34</course>
  <speed>0.08</speed>
  <fix>3d</fix>
</trkpt>
<trkpt lat="40.0729424" lon="-105.2307966">
  <ele>1595.56</ele>
  <time>2026-08-28T19:11:47Z</time>
  <course>311.25</course>
  <speed>0.03605551275463989</speed>
  <fix>3d</fix>
</trkpt>
<trkpt lat="40.0729424" lon="-105.2307969">
  <ele>1595.46</ele>
  <time>2026-08-28T19:11:47Z</time>
  <course>287.6</course>
  <speed>0.07</speed>
  <fix>3d</fix>
</trkpt>
<trkpt lat="40.0729424" lon="-105.2307968">
  <ele>1595.56</ele>
  <time>2026-08-28T19:11:48Z</time>
  <course>310.95</course>
  <speed>0.04</speed>
  <fix>3d</fix>
</trkpt>
<trkpt lat="40.0729424" lon="-105.230797">
  <ele>1595.46</ele>
  <time>2026-08-28T19:11:48Z</time>
  <course>279.48</course>
  <speed>0.07</speed>
  <fix>3d</fix>
</trkpt>
<trkpt lat="40.0729425" lon="-105.2307969">
  <ele>1595.56</ele>
  <time>2026-08-28T19:11:48Z</time>
  <course>310.1</course>
  <speed>0.03</speed>
  <fix>3d</fix>
</trkpt>
<trkpt lat="40.0729424" lon="-105.2307971">
  <ele>1595.46</ele>
  <time>2026-08-28T19:11:48Z</time>
  <course>284.89</course>
  <speed>0.06</speed>
  <fix>3d</fix>
</trkpt>
<trkpt lat="40.0729425" lon="-105.230797">
  <ele>1595.56</ele>
  <time>2026-08-28T19:11:48Z</time>
  <course>309.98</course>
  <speed>0.022360679774997897</speed>
  <fix>3d</fix>
</trkpt>
<trkpt lat="40.0729425" lon="-105.2307973">
  <ele>1595.46</ele>
  <time>2026-08-28T19:11:48Z</time>
  <course>296.67</course>
  <speed>0.05</speed>
  <fix>3d</fix>
</trkpt>
<trkpt lat="40.0729425" lon="-105.2307972">
  <ele>1595.56</ele>
  <time>2026-08-28T19:11:48Z</time>
  <course>310.79</course>
  <speed>0.022360679774997897</speed>
  <fix>3d</fix>
</trkpt>
<trkpt lat="40.0729426" lon="-105.2307974">
  <ele>1595.46</ele>
  <time>2026-08-28T19:11:48Z</time>
  <course>291.66</course>
  <speed>0.04</speed>
  <fix>3d</fix>
</trkpt>
<trkpt lat="40.0729425" lon="-105.2307973">
  <ele>1595.56</ele>
  <time>2026-08-28T19:11:48Z</time>
  <course>311.3</course>
  <speed>0.01414213562373095</speed>
  <fix>3d</fix>
</trkpt>
<trkpt lat="40.0729426" lon="-105.2307975">
  <ele>1595.47</ele>
  <time>2026-08-28T19:11:48Z</time>
  <course>274.97</course>
  <speed>0.05</speed>
  <fix>3d</fix>
</trkpt>
<trkpt lat="40.0729425" lon="-105.2307974">
  <ele>1595.55</ele>
  <time>2026-08-28T19:11:48Z</time>
  <course>310.73</course>
  <speed>0.02</speed>
  <fix>3d</fix>
</trkpt>
<trkpt lat="40.0729426" lon="-105.2307976">
  <ele>1595.47</ele>
  <time>2026-08-28T19:11:48Z</time>
  <course>270.78</course>
  <speed>0.05</speed>
  <fix>3d</fix>
</trkpt>
<trkpt lat="40.0729426" lon="-105.2307975">
  <ele>1595.55</ele>
  <time>2026-08-28T19:11:48Z</time>
  <course>309.96</course>
  <speed>0.02</speed>
  <fix>3d</fix>
</trkpt>
<trkpt lat="40.0729426" lon="-105.2307977">
  <ele>1595.47</ele>
  <time>2026-08-28T19:11:48Z</time>
  <course>283.43</course>
  <speed>0.04</speed>
  <fix>3d</fix>
</trkpt>
<trkpt lat="40.0729426" lon="-105.2307976">
  <ele>1595.55</ele>
  <time>2026-08-28T19:11:48Z</time>
  <course>310.08</course>
  <speed>0.01414213562373095</speed>
  <fix>3d</fix>
</trkpt>
<trkpt lat="40.0729426" lon="-105.2307978">
  <ele>1595.47</ele>
  <time>2026-08-28T19:11:48Z</time>
  <course>296.06</course>
  <speed>0.03</speed>
  <fix>3d</fix>
</trkpt>
<trkpt lat="40.0729426" lon="-105.2307977">
  <ele>1595.56</ele>
  <time>2026-08-28T19:11:48Z</time>
  <course>310.94</course>
  <speed>0.01</speed>
  <fix>3d</fix>
</trkpt>
<trkpt lat="40.0729426" lon="-105.2307979">
  <ele>1595.47</ele>
  <time>2026-08-28T19:11:48Z</time>
  <course>283.87</course>
  <speed>0.04</speed>
  <fix>3d</fix>
</trkpt>
<trkpt lat="40.0729426" lon="-105.2307978">
  <ele>1595.56</ele>
  <time>2026-08-28T19:11:48Z</time>
  <course>311.25</course>
  <speed>0.01</speed>
  <fix>3d</fix>
</trkpt>
<trkpt lat="40.0729427" lon="-105.230798">
  <ele>1595.48</ele>
  <time>2026-08-28T19:11:48Z</time>
  <course>267.35</course>
  <speed>0.04</speed>
  <fix>3d</fix>
</trkpt>
<trkpt lat="40.0729426" lon="-105.2307979">
  <ele>1595.57</ele>
  <time>2026-08-28T19:11:48Z</time>
  <course>310.55</course>
  <speed>0.02</speed>
  <fix>3d</fix>
</trkpt>
<trkpt lat="40.0729427" lon="-105.2307981">
  <ele>1595.48</ele>
  <time>2026-08-28T19:11:48Z</time>
  <course>267.54</course>
  <speed>0.04</speed>
  <fix>3d</fix>
</trkpt>
<trkpt lat="40.0729426" lon="-105.230798">
  <ele>1595.57</ele>
  <time>2026-08-28T19:11:48Z</time>
  <course>309.93</course>
  <speed>0.01</speed>
  <fix>3d</fix>
</trkpt>
<trkpt lat="40.0729427" lon="-105.2307982">
  <ele>1595.48</ele>
  <time>2026-08-28T19:11:48Z</time>
  <course>283.84</course>
  <speed>0.03</speed>
  <fix>3d</fix>
</trkpt>
<trkpt lat="40.0729426" lon="-105.2307981">
  <ele>1595.57</ele>
  <time>2026-08-28T19:11:48Z</time>
  <course>310.3</course>
  <speed>0.01</speed>
  <fix>3d</fix>
</trkpt>
<trkpt lat="40.0729427" lon="-105.2307983">
  <ele>1595.48</ele>
  <time>2026-08-28T19:11:48Z</time>
  <course>293.31</course>
  <speed>0.03</speed>
  <fix>3d</fix>
</trkpt>
<trkpt lat="40.0729426" lon="-105.2307982">
  <ele>1595.57</ele>
  <time>2026-08-28T19:11:48Z</time>
  <course>311.15</course>
  <speed>0.01</speed>
  <fix>3d</fix>
</trkpt>
<trkpt lat="40.0729427" lon="-105.2307984">
  <ele>1595.49</ele>
  <time>2026-08-28T19:11:48Z</time>
  <course>277.24</course>
  <speed>0.04</speed>
  <fix>3d</fix>
</trkpt>
<trkpt lat="40.0729427" lon="-105.2307982">
  <ele>1595.57</ele>
  <time>2026-08-28T19:11:48Z</time>
  <course>311.23</course>
  <speed>0.02</speed>
  <fix>3d</fix>
</trkpt>
<trkpt lat="40.0729427" lon="-105.2307985">
  <ele>1595.49</ele>
  <time>2026-08-28T19:11:48Z</time>
  <course>264.32</course>
  <speed>0.04</speed>
  <fix>3d</fix>
</trkpt>
<trkpt lat="40.0729427" lon="-105.2307983">
  <ele>1595.57</ele>
  <time>2026-08-28T19:11:48Z</time>
  <course>311.62</course>
  <speed>0.01414213562373095</speed>
  <fix>3d</fix>
</trkpt>
<trkpt lat="40.0729427" lon="-105.2307986">
  <ele>1595.49</ele>
  <time>2026-08-28T19:11:48Z</time>
  <course>269.38</course>
  <speed>0.04</speed>
  <fix>3d</fix>
</trkpt>
<trkpt lat="40.0729427" lon="-105.2307984">
  <ele>1595.56</ele>
  <time>2026-08-28T19:11:48Z</time>
  <course>310.67</course>
  <speed>0.01414213562373095</speed>
  <fix>3d</fix>
</trkpt>
<trkpt lat="40.0729427" lon="-105.2307987">
  <ele>1595.49</ele>
  <time>2026-08-28T19:11:48Z</time>
  <course>280.51</course>
  <speed>0.04</speed>
  <fix>3d</fix>
</trkpt>
<trkpt lat="40.0729427" lon="-105.2307986">
  <ele>1595.56</ele>
  <time>2026-08-28T19:11:48Z</time>
  <course>310.15</course>
  <speed>0.022360679774997897</speed>
  <fix>3d</fix>
</trkpt>
<trkpt lat="40.0729427" lon="-105.2307988">
  <ele>1595.49</ele>
  <time>2026-08-28T19:11:48Z</time>
  <course>281.88</course>
  <speed>0.04</speed>
  <fix>3d</fix>
</trkpt>
<trkpt lat="40.0729427" lon="-105.2307987">
  <ele>1595.56</ele>
  <time>2026-08-28T19:11:48Z</time>
  <course>309.94</course>
  <speed>0.022360679774997897</speed>
  <fix>3d</fix>
</trkpt>
<trkpt lat="40.0729427" lon="-105.2307989">
  <ele>1595.49</ele>
  <time>2026-08-28T19:11:48Z</time>
  <course>281.55</course>
  <speed>0.04</speed>
  <fix>3d</fix>
</trkpt>
<trkpt lat="40.0729427" lon="-105.2307988">
  <ele>1595.56</ele>
  <time>2026-08-28T19:11:48Z</time>
  <course>309.88</course>
  <speed>0.022360679774997897</speed>
  <fix>3d</fix>
</trkpt>
<trkpt lat="40.0729428" lon="-105.230799">
  <ele>1595.49</ele>
  <time>2026-08-28T19:11:48Z</time>
  <course>281.98</course>
  <speed>0.05</speed>
  <fix>3d</fix>
</trkpt>
<trkpt lat="40.0729428" lon="-105.2307989">
  <ele>1595.56</ele>
  <time>2026-08-28T19:11:48Z</time>
  <course>309.83</course>
  <speed>0.022360679774997897</speed>
  <fix>3d</fix>
</trkpt>
<trkpt lat="40.0729428" lon="-105.2307992">
  <ele>1595.49</ele>
  <time>2026-08-28T19:11:48Z</time>
  <course>282.75</course>
  <speed>0.05</speed>
  <fix>3d</fix>
</trkpt>
<trkpt lat="40.0729428" lon="-105.2307991">
  <ele>1595.56</ele>
  <time>2026-08-28T19:11:48Z</time>
  <course>309.83</course>
  <speed>0.0316227766016838</speed>
  <fix>3d</fix>
</trkpt>
<trkpt lat="40.0729428" lon="-105.2307993">
  <ele>1595.5</ele>
  <time>2026-08-28T19:11:48Z</time>
  <course>283.41</course>
  <speed>0.05</speed>
  <fix>3d</fix>
</trkpt>
<trkpt lat="40.0729428" lon="-105.2307992">
  <ele>1595.57</ele>
  <time>2026-08-28T19:11:48Z</time>
  <course>309.83</course>
  <speed>0.0316227766016838</speed>
  <fix>3d</fix>
</trkpt>
<trkpt lat="40.0729428" lon="-105.2307994">
  <ele>1595.5</ele>
  <time>2026-08-28T19:11:48Z</time>
  <course>283.93</course>
  <speed>0.05</speed>
  <fix>3d</fix>
</trkpt>
<trkpt lat="40.0729428" lon="-105.2307993">
  <ele>1595.57</ele>
  <time>2026-08-28T19:11:48Z</time>
  <course>309.83</course>
  <speed>0.0316227766016838</speed>
  <fix>3d</fix>
</trkpt>
<trkpt lat="40.0729429" lon="-105.2307995">
  <ele>1595.5</ele>
  <time>2026-08-28T19:11:48Z</time>
  <course>284.28</course>
  <speed>0.06</speed>
  <fix>3d</fix>
</trkpt>
<trkpt lat="40.0729429" lon="-105.2307995">
  <ele>1595.57</ele>
  <time>2026-08-28T19:11:48Z</time>
  <course>309.83</course>
  <speed>0.0316227766016838</speed>
  <fix>3d</fix>
</trkpt>
<trkpt lat="40.0729429" lon="-105.2307997">
  <ele>1595.5</ele>
  <time>2026-08-28T19:11:48Z</time>
  <course>284.79</course>
  <speed>0.06</speed>
  <fix>3d</fix>
</trkpt>
<trkpt lat="40.0729429" lon="-105.2307996">
  <ele>1595.58</ele>
  <time>2026-08-28T19:11:48Z</time>
  <course>309.84</course>
  <speed>0.044721359549995794</speed>
  <fix>3d</fix>
</trkpt>
<trkpt lat="40.0729429" lon="-105.2307998">
  <ele>1595.5</ele>
  <time>2026-08-28T19:11:48Z</time>
  <course>285.42</course>
  <speed>0.06</speed>
  <fix>3d</fix>
</trkpt>
<trkpt lat="40.0729429" lon="-105.2307998">
  <ele>1595.58</ele>
  <time>2026-08-28T19:11:48Z</time>
  <course>309.85</course>
  <speed>0.044721359549995794</speed>
  <fix>3d</fix>
</trkpt>
<trkpt lat="40.0729429" lon="-105.2308">
  <ele>1595.51</ele>
  <time>2026-08-28T19:11:48Z</time>
  <course>285.92</course>
  <speed>0.06</speed>
  <fix>3d</fix>
</trkpt>
<trkpt lat="40.072943" lon="-105.2307999">
  <ele>1595.59</ele>
  <time>2026-08-28T19:11:48Z</time>
  <course>309.86</course>
  <speed>0.044721359549995794</speed>
  <fix>3d</fix>
</trkpt>
<trkpt lat="40.0729429" lon="-105.2308002">
  <ele>1595.5</ele>
  <time>2026-08-28T19:11:48Z</time>
  <course>286.52</course>
  <speed>0.07</speed>
  <fix>3d</fix>
</trkpt>
<trkpt lat="40.072943" lon="-105.2308001">
  <ele>1595.59</ele>
  <time>2026-08-28T19:11:48Z</time>
  <course>309.89</course>
  <speed>0.044721359549995794</speed>
  <fix>3d</fix>
</trkpt>
<trkpt lat="40.072943" lon="-105.2308003">
  <ele>1595.5</ele>
  <time>2026-08-28T19:11:48Z</time>
  <course>287.31</course>
  <speed>0.07</speed>
  <fix>3d</fix>
</trkpt>
<trkpt lat="40.072943" lon="-105.2308003">
  <ele>1595.58</ele>
  <time>2026-08-28T19:11:48Z</time>
  <course>309.88</course>
  <speed>0.044721359549995794</speed>
  <fix>3d</fix>
</trkpt>
<trkpt lat="40.072943" lon="-105.2308004">
  <ele>1595.5</ele>
  <time>2026-08-28T19:11:48Z</time>
  <course>288.13</course>
  <speed>0.07</speed>
  <fix>3d</fix>
</trkpt>
<trkpt lat="40.0729431" lon="-105.2308005">
  <ele>1595.58</ele>
  <time>2026-08-28T19:11:48Z</time>
  <course>309.87</course>
  <speed>0.053851648071345036</speed>
  <fix>3d</fix>
</trkpt>
<trkpt lat="40.072943" lon="-105.2308007">
  <ele>1595.5</ele>
  <time>2026-08-28T19:11:48Z</time>
  <course>288.8</course>
  <speed>0.07</speed>
  <fix>3d</fix>
</trkpt>
<trkpt lat="40.0729431" lon="-105.2308006">
  <ele>1595.58</ele>
  <time>2026-08-28T19:11:48Z</time>
  <course>308.84</course>
  <speed>0.05</speed>
  <fix>3d</fix>
</trkpt>
<trkpt lat="40.0729431" lon="-105.2308008">
  <ele>1595.49</ele>
  <time>2026-08-28T19:11:48Z</time>
  <course>292.8</course>
  <speed>0.07</speed>
  <fix>3d</fix>
</trkpt>
<trkpt lat="40.0729432" lon="-105.2308008">
  <ele>1595.58</ele>
  <time>2026-08-28T19:11:48Z</time>
  <course>310.16</course>
  <speed>0.05</speed>
  <fix>3d</fix>
</trkpt>
<trkpt lat="40.0729432" lon="-105.2308011">
  <ele>1595.49</ele>
  <time>2026-08-28T19:11:48Z</time>
  <course>288.72</course>
  <speed>0.08</speed>
  <fix>3d</fix>
</trkpt>
<trkpt lat="40.0729432" lon="-105.230801">
  <ele>1595.57</ele>
  <time>2026-08-28T19:11:48Z</time>
  <course>310.4</course>
  <speed>0.0412310562561766</speed>
  <fix>3d</fix>
</trkpt>
<trkpt lat="40.0729432" lon="-105.2308012">
  <ele>1595.49</ele>
  <time>2026-08-28T19:11:48Z</time>
  <course>279.14</course>
  <speed>0.08</speed>
  <fix>3d</fix>
</trkpt>
<trkpt lat="40.0729432" lon="-105.2308011">
  <ele>1595.57</ele>
  <time>2026-08-28T19:11:48Z</time>
  <course>309.77</course>
  <speed>0.04</speed>
  <fix>3d</fix>
</trkpt>
<trkpt lat="40.0729433" lon="-105.2308013">
  <ele>1595.49</ele>
  <time>2026-08-28T19:11:48Z</time>
  <course>280.16</course>
  <speed>0.07</speed>
  <fix>3d</fix>
</trkpt>
<trkpt lat="40.0729432" lon="-105.2308013">
  <ele>1595.57</ele>
  <time>2026-08-28T19:11:48Z</time>
  <course>309.24</course>
  <speed>0.03</speed>
  <fix>3d</fix>
</trkpt>
<trkpt lat="40.0729433" lon="-105.2308015">
  <ele>1595.48</ele>
  <time>2026-08-28T19:11:48Z</time>
  <course>290.52</course>
  <speed>0.05</speed>
  <fix>3d</fix>
</trkpt>
<trkpt lat="40.0729433" lon="-105.2308014">
  <ele>1595.57</ele>
  <time>2026-08-28T19:11:48Z</time>
  <course>309.46</course>
  <speed>0.022360679774997897</speed>
  <fix>3d</fix>
</trkpt>
<trkpt lat="40.0729433" lon="-105.2308016">
  <ele>1595.48</ele>
  <time>2026-08-28T19:11:48Z</time>
  <course>297.89</course>
  <speed>0.05</speed>
  <fix>3d</fix>
</trkpt>
<trkpt lat="40.0729433" lon="-105.2308015">
  <ele>1595.58</ele>
  <time>2026-08-28T19:11:48Z</time>
  <course>310.18</course>
  <speed>0.022360679774997897</speed>
  <fix>3d</fix>
</trkpt>
<trkpt lat="40.0729434" lon="-105.2308018">
  <ele>1595.48</ele>
  <time>2026-08-28T19:11:48Z</time>
  <course>289.08</course>
  <speed>0.04</speed>
  <fix>3d</fix>
</trkpt>
<trkpt lat="40.0729433" lon="-105.2308016">
  <ele>1595.58</ele>
  <time>2026-08-28T19:11:48Z</time>
  <course>310.52</course>
  <speed>0.01414213562373095</speed>
  <fix>3d</fix>
</trkpt>
<trkpt lat="40.0729434" lon="-105.2308019">
  <ele>1595.48</ele>
  <time>2026-08-28T19:11:48Z</time>
  <course>275.04</course>
  <speed>0.05</speed>
  <fix>3d</fix>
</trkpt>
<trkpt lat="40.0729434" lon="-105.2308017">
  <ele>1595.58</ele>
  <time>2026-08-28T19:11:48Z</time>
  <course>310.11</course>
  <speed>0.02</speed>
  <fix>3d</fix>
</trkpt>
<trkpt lat="40.0729434" lon="-105.230802">
  <ele>1595.48</ele>
  <time>2026-08-28T19:11:48Z</time>
  <course>272.14</course>
  <speed>0.05</speed>
  <fix>3d</fix>
</trkpt>
<trkpt lat="40.0729434" lon="-105.2308018">
  <ele>1595.57</ele>
  <time>2026-08-28T19:11:48Z</time>
  <course>309.41</course>
  <speed>0.02</speed>
  <fix>3d</fix>
</trkpt>
<trkpt lat="40.0729434" lon="-105.2308021">
  <ele>1595.48</ele>
  <time>2026-08-28T19:11:48Z</time>
  <course>283.28</course>
  <speed>0.04</speed>
  <fix>3d</fix>
</trkpt>
<trkpt lat="40.0729434" lon="-105.2308019">
  <ele>1595.57</ele>
  <time>2026-08-28T19:11:48Z</time>
  <course>309.26</course>
  <speed>0.01414213562373095</speed>
  <fix>3d</fix>
</trkpt>
<trkpt lat="40.0729435" lon="-105.2308022">
  <ele>1595.47</ele>
  <time>2026-08-28T19:11:48Z</time>
  <course>297.92</course>
  <speed>0.03</speed>
  <fix>3d</fix>
</trkpt>
<trkpt lat="40.0729434" lon="-105.230802">
  <ele>1595.57</ele>
  <time>2026-08-28T19:11:48Z</time>
  <course>309.84</course>
  <speed>0.02</speed>
  <fix>3d</fix>
</trkpt>
<trkpt lat="40.0729435" lon="-105.2308023">
  <ele>1595.47</ele>
  <time>2026-08-28T19:11:48Z</time>
  <course>294.22</course>
  <speed>0.03</speed>
  <fix>3d</fix>
</trkpt>
<trkpt lat="40.0729434" lon="-105.2308021">
  <ele>1595.57</ele>
  <time>2026-08-28T19:11:48Z</time>
  <course>310.45</course>
  <speed>0.01414213562373095</speed>
  <fix>3d</fix>
</trkpt>
<trkpt lat="40.0729435" lon="-105.2308024">
  <ele>1595.47</ele>
  <time>2026-08-28T19:11:48Z</time>
  <course>276.16</course>
  <speed>0.04</speed>
  <fix>3d</fix>
</trkpt>
<trkpt lat="40.0729435" lon="-105.2308022">
  <ele>1595.57</ele>
  <time>2026-08-28T19:11:48Z</time>
  <course>310.35</course>
  <speed>0.02</speed>
  <fix>3d</fix>
</trkpt>
<trkpt lat="40.0729435" lon="-105.2308025">
  <ele>1595.47</ele>
  <time>2026-08-28T19:11:48Z</time>
  <course>266.81</course>
  <speed>0.04</speed>
  <fix>3d</fix>
</trkpt>
<trkpt lat="40.0729435" lon="-105.2308023">
  <ele>1595.57</ele>
  <time>2026-08-28T19:11:48Z</time>
  <course>309.65</course>
  <speed>0.02</speed>
  <fix>3d</fix>
</trkpt>
<trkpt lat="40.0729435" lon="-105.2308025">
  <ele>1595.47</ele>
  <time>2026-08-28T19:11:48Z</time>
  <course>272.63</course>
  <speed>0.04</speed>
  <fix>3d</fix>
</trkpt>
<trkpt lat="40.0729435" lon="-105.2308024">
  <ele>1595.57</ele>
  <time>2026-08-28T19:11:48Z</time>
  <course>309.19</course>
  <speed>0.01</speed>
  <fix>3d</fix>
</trkpt>
<trkpt lat="40.0729435" lon="-105.2308026">
  <ele>1595.47</ele>
  <time>2026-08-28T19:11:48Z</time>
  <course>289.29</course>
  <speed>0.03</speed>
  <fix>3d</fix>
</trkpt>
<trkpt lat="40.0729435" lon="-105.2308025">
  <ele>1595.57</ele>
  <time>2026-08-28T19:11:48Z</time>
  <course>309.55</course>
  <speed>0.01</speed>
  <fix>3d</fix>
</trkpt>
<trkpt lat="40.0729435" lon="-105.2308027">
  <ele>1595.47</ele>
  <time>2026-08-28T19:11:48Z</time>
  <course>294.7</course>
  <speed>0.03</speed>
  <fix>3d</fix>
</trkpt>
<trkpt lat="40.0729435" lon="-105.2308026">
  <ele>1595.57</ele>
  <time>2026-08-28T19:11:48Z</time>
  <course>310.94</course>
  <speed>0.01</speed>
  <fix>3d</fix>
</trkpt>
<trkpt lat="40.0729435" lon="-105.2308028">
  <ele>1595.47</ele>
  <time>2026-08-28T19:11:48Z</time>
  <course>276.59</course>
  <speed>0.04</speed>
  <fix>3d</fix>
</trkpt>
<trkpt lat="40.0729435" lon="-105.2308027">
  <ele>1595.57</ele>
  <time>2026-08-28T19:11:48Z</time>
  <course>310.41</course>
  <speed>0.01414213562373095</speed>
  <fix>3d</fix>
</trkpt>
<trkpt lat="40.0729435" lon="-105.2308029">
  <ele>1595.47</ele>
  <time>2026-08-28T19:11:48Z</time>
  <course>273.26</course>
  <speed>0.04</speed>
  <fix>3d</fix>
</trkpt>
<trkpt lat="40.0729435" lon="-105.2308028">
  <ele>1595.57</ele>
  <time>2026-08-28T19:11:48Z</time>
  <course>309.66</course>
  <speed>0.01414213562373095</speed>
  <fix>3d</fix>
</trkpt>
<trkpt lat="40.0729435" lon="-105.230803">
  <ele>1595.47</ele>
  <time>2026-08-28T19:11:48Z</time>
  <course>282.34</course>
  <speed>0.04</speed>
  <fix>3d</fix>
</trkpt>
<trkpt lat="40.0729435" lon="-105.2308029">
  <ele>1595.58</ele>
  <time>2026-08-28T19:11:48Z</time>
  <course>309.34</course>
  <speed>0.022360679774997897</speed>
  <fix>3d</fix>
</trkpt>
<trkpt lat="40.0729435" lon="-105.2308031">
  <ele>1595.47</ele>
  <time>2026-08-28T19:11:48Z</time>
  <course>281.81</course>
  <speed>0.04</speed>
  <fix>3d</fix>
</trkpt>
<trkpt lat="40.0729436" lon="-105.230803">
  <ele>1595.58</ele>
  <time>2026-08-28T19:11:48Z</time>
  <course>309.2</course>
  <speed>0.022360679774997897</speed>
  <fix>3d</fix>
</trkpt>
<trkpt lat="40.0729435" lon="-105.2308032">
  <ele>1595.47</ele>
  <time>2026-08-28T19:11:48Z</time>
  <course>281.4</course>
  <speed>0.04</speed>
  <fix>3d</fix>
</trkpt>
<trkpt lat="40.0729436" lon="-105.2308031">
  <ele>1595.57</ele>
  <time>2026-08-28T19:11:48Z</time>
  <course>309.16</course>
  <speed>0.022360679774997897</speed>
  <fix>3d</fix>
</trkpt>
<trkpt lat="40.0729435" lon="-105.2308033">
  <ele>1595.47</ele>
  <time>2026-08-28T19:11:48Z</time>
  <course>282.04</course>
  <speed>0.05</speed>
  <fix>3d</fix>
</trkpt>
<trkpt lat="40.0729436" lon="-105.2308032">
  <ele>1595.57</ele>
  <time>2026-08-28T19:11:48Z</time>
  <course>309.13</course>
  <speed>0.022360679774997897</speed>
  <fix>3d</fix>
</trkpt>
<trkpt lat="40.0729436" lon="-105.2308035">
  <ele>1595.47</ele>
  <time>2026-08-28T19:11:48Z</time>
  <course>283.0</course>
  <speed>0.05</speed>
  <fix>3d</fix>
</trkpt>
<trkpt lat="40.0729436" lon="-105.2308034">
  <ele>1595.57</ele>
  <time>2026-08-28T19:11:48Z</time>
  <course>309.11</course>
  <speed>0.0316227766016838</speed>
  <fix>3d</fix>
</trkpt>
<trkpt lat="40.0729436" lon="-105.2308036">
  <ele>1595.46</ele>
  <time>2026-08-28T19:11:48Z</time>
  <course>284.24</course>
  <speed>0.05</speed>
  <fix>3d</fix>
</trkpt>
<trkpt lat="40.0729436" lon="-105.2308035">
  <ele>1595.56</ele>
  <time>2026-08-28T19:11:48Z</time>
  <course>309.11</course>
  <speed>0.0316227766016838</speed>
  <fix>3d</fix>
</trkpt>
<trkpt lat="40.0729436" lon="-105.2308037">
  <ele>1595.46</ele>
  <time>2026-08-28T19:11:48Z</time>
  <course>285.58</course>
  <speed>0.06</speed>
  <fix>3d</fix>
</trkpt>
<trkpt lat="40.0729437" lon="-105.2308036">
  <ele>1595.56</ele>
  <time>2026-08-28T19:11:48Z</time>
  <course>309.11</course>
  <speed>0.03605551275463989</speed>
  <fix>3d</fix>
</trkpt>
<trkpt lat="40.0729436" lon="-105.2308039">
  <ele>1595.46</ele>
  <time>2026-08-28T19:11:48Z</time>
  <course>286.7</course>
  <speed>0.06</speed>
  <fix>3d</fix>
</trkpt>
<trkpt lat="40.0729437" lon="-105.2308038">
  <ele>1595.56</ele>
  <time>2026-08-28T19:11:48Z</time>
  <course>309.11</course>
  <speed>0.044721359549995794</speed>
  <fix>3d</fix>
</trkpt>
<trkpt lat="40.0729437" lon="-105.2308041">
  <ele>1595.46</ele>
  <time>2026-08-28T19:11:48Z</time>
  <course>287.69</course>
  <speed>0.06</speed>
  <fix>3d</fix>
</trkpt>
<trkpt lat="40.0729437" lon="-105.230804">
  <ele>1595.56</ele>
  <time>2026-08-28T19:11:48Z</time>
  <course>309.11</course>
  <speed>0.044721359549995794</speed>
  <fix>3d</fix>
</trkpt>
<trkpt lat="40.0729438" lon="-105.2308042">
  <ele>1595.46</ele>
  <time>2026-08-28T19:11:48Z</time>
  <course>288.57</course>
  <speed>0.07</speed>
  <fix>3d</fix>
</trkpt>
<trkpt lat="40.0729438" lon="-105.2308041">
  <ele>1595.57</ele>
  <time>2026-08-28T19:11:48Z</time>
  <course>309.11</course>
  <speed>0.044721359549995794</speed>
  <fix>3d</fix>
</trkpt>
<trkpt lat="40.0729438" lon="-105.2308043">
  <ele>1595.46</ele>
  <time>2026-08-28T19:11:48Z</time>
  <course>289.06</course>
  <speed>0.07</speed>
  <fix>3d</fix>
</trkpt>
<trkpt lat="40.0729438" lon="-105.2308043">
  <ele>1595.57</ele>
  <time>2026-08-28T19:11:48Z</time>
  <course>309.11</course>
  <speed>0.044721359549995794</speed>
  <fix>3d</fix>
</trkpt>
<trkpt lat="40.0729439" lon="-105.2308045">
  <ele>1595.46</ele>
  <time>2026-08-28T19:11:48Z</time>
  <course>289.19</course>
  <speed>0.07</speed>
  <fix>3d</fix>
</trkpt>
<trkpt lat="40.0729439" lon="-105.2308045">
  <ele>1595.57</ele>
  <time>2026-08-28T19:11:48Z</time>
  <course>309.12</course>
  <speed>0.053851648071345036</speed>
  <fix>3d</fix>
</trkpt>
<trkpt lat="40.0729439" lon="-105.2308046">
  <ele>1595.46</ele>
  <time>2026-08-28T19:11:48Z</time>
  <course>289.29</course>
  <speed>0.07</speed>
  <fix>3d</fix>
</trkpt>
<trkpt lat="40.0729439" lon="-105.2308047">
  <ele>1595.57</ele>
  <time>2026-08-28T19:11:48Z</time>
  <course>309.12</course>
  <speed>0.05830951894845301</speed>
  <fix>3d</fix>
</trkpt>
<trkpt lat="40.072944" lon="-105.2308049">
  <ele>1595.47</ele>
  <time>2026-08-28T19:11:48Z</time>
  <course>289.41</course>
  <speed>0.08</speed>
  <fix>3d</fix>
</trkpt>
<trkpt lat="40.072944" lon="-105.2308048">
  <ele>1595.58</ele>
  <time>2026-08-28T19:11:48Z</time>
  <course>309.13</course>
  <speed>0.05830951894845301</speed>
  <fix>3d</fix>
</trkpt>
<trkpt lat="40.072944" lon="-105.2308051">
  <ele>1595.47</ele>
  <time>2026-08-28T19:11:48Z</time>
  <course>289.65</course>
  <speed>0.08</speed>
  <fix>3d</fix>
</trkpt>
<trkpt lat="40.072944" lon="-105.230805">
  <ele>1595.58</ele>
  <time>2026-08-28T19:11:48Z</time>
  <course>308.12</course>
  <speed>0.0632455532033676</speed>
  <fix>3d</fix>
</trkpt>
<trkpt lat="40.0729441" lon="-105.2308052">
  <ele>1595.46</ele>
  <time>2026-08-28T19:11:48Z</time>
  <course>291.69</course>
  <speed>0.08</speed>
  <fix>3d</fix>
</trkpt>
<trkpt lat="40.0729441" lon="-105.2308052">
  <ele>1595.58</ele>
  <time>2026-08-28T19:11:48Z</time>
  <course>308.44</course>
  <speed>0.044721359549995794</speed>
  <fix>3d</fix>
</trkpt>
<trkpt lat="40.0729441" lon="-105.2308055">
  <ele>1595.46</ele>
  <time>2026-08-28T19:11:48Z</time>
  <course>295.45</course>
  <speed>0.08</speed>
  <fix>3d</fix>
</trkpt>
<trkpt lat="40.0729441" lon="-105.2308054">
  <ele>1595.57</ele>
  <time>2026-08-28T19:11:48Z</time>
  <course>308.94</course>
  <speed>0.04242640687119285</speed>
  <fix>3d</fix>
</trkpt>
<trkpt lat="40.0729441" lon="-105.2308056">
  <ele>1595.46</ele>
  <time>2026-08-28T19:11:48Z</time>
  <course>294.69</course>
  <speed>0.07</speed>
  <fix>3d</fix>
</trkpt>
<trkpt lat="40.0729442" lon="-105.2308055">
  <ele>1595.57</ele>
  <time>2026-08-28T19:11:48Z</time>
  <course>309.52</course>
  <speed>0.0282842712474619</speed>
  <fix>3d</fix>
</trkpt>
<trkpt lat="40.0729441" lon="-105.2308057">
  <ele>1595.46</ele>
  <time>2026-08-28T19:11:48Z</time>
  <course>285.28</course>
  <speed>0.06</speed>
  <fix>3d</fix>
</trkpt>
<trkpt lat="40.0729442" lon="-105.2308056">
  <ele>1595.56</ele>
  <time>2026-08-28T19:11:48Z</time>
  <course>309.74</course>
  <speed>0.022360679774997897</speed>
  <fix>3d</fix>
</trkpt>
<trkpt lat="40.0729442" lon="-105.2308059">
  <ele>1595.46</ele>
  <time>2026-08-28T19:11:48Z</time>
  <course>274.85</course>
  <speed>0.06</speed>
  <fix>3d</fix>
</trkpt>
<trkpt lat="40.0729442" lon="-105.2308058">
  <ele>1595.56</ele>
  <time>2026-08-28T19:11:48Z</time>
  <course>309.42</course>
  <speed>0.03</speed>
  <fix>3d</fix>
</trkpt>
<trkpt lat="40.0729442" lon="-105.230806">
  <ele>1595.46</ele>
  <time>2026-08-28T19:11:48Z</time>
  <course>272.12</course>
  <speed>0.05</speed>
  <fix>3d</fix>
</trkpt>
<trkpt lat="40.0729442" lon="-105.2308059">
  <ele>1595.56</ele>
  <time>2026-08-28T19:11:48Z</time>
  <course>308.82</course>
  <speed>0.02</speed>
  <fix>3d</fix>
</trkpt>
<trkpt lat="40.0729442" lon="-105.2308061">
  <ele>1595.46</ele>
  <time>2026-08-28T19:11:48Z</time>
  <course>279.08</course>
  <speed>0.05</speed>
  <fix>3d</fix>
</trkpt>
<trkpt lat="40.0729442" lon="-105.230806">
  <ele>1595.56</ele>
  <time>2026-08-28T19:11:48Z</time>
  <course>308.5</course>
  <speed>0.02</speed>
  <fix>3d</fix>
</trkpt>
<trkpt lat="40.0729442" lon="-105.2308063">
  <ele>1595.46</ele>
  <time>2026-08-28T19:11:48Z</time>
  <course>291.1</course>
  <speed>0.04</speed>
  <fix>3d</fix>
</trkpt>
<trkpt lat="40.0729442" lon="-105.2308061">
  <ele>1595.57</ele>
  <time>2026-08-28T19:11:48Z</time>
  <course>308.74</course>
  <speed>0.01414213562373095</speed>
  <fix>3d</fix>
</trkpt>
<trkpt lat="40.0729442" lon="-105.2308064">
  <ele>1595.46</ele>
  <time>2026-08-28T19:11:48Z</time>
  <course>294.69</course>
  <speed>0.04</speed>
  <fix>3d</fix>
</trkpt>
<trkpt lat="40.0729442" lon="-105.2308062">
  <ele>1595.57</ele>
  <time>2026-08-28T19:11:48Z</time>
  <course>309.33</course>
  <speed>0.01</speed>
  <fix>3d</fix>
</trkpt>
<trkpt lat="40.0729442" lon="-105.2308065">
  <ele>1595.46</ele>
  <time>2026-08-28T19:11:48Z</time>
  <course>283.63</course>
  <speed>0.04</speed>
  <fix>3d</fix>
</trkpt>
<trkpt lat="40.0729443" lon="-105.2308063">
  <ele>1595.57</ele>
  <time>2026-08-28T19:11:48Z</time>
  <course>309.73</course>
  <speed>0.01414213562373095</speed>
  <fix>3d</fix>
</trkpt>
<trkpt lat="40.0729442" lon="-105.2308066">
  <ele>1595.46</ele>
  <time>2026-08-28T19:11:48Z</time>
  <course>269.97</course>
  <speed>0.04</speed>
  <fix>3d</fix>
</trkpt>
<trkpt lat="40.0729443" lon="-105.2308064">
  <ele>1595.56</ele>
  <time>2026-08-28T19:11:48Z</time>
  <course>309.55</course>
  <speed>0.02</speed>
  <fix>3d</fix>
</trkpt>
<trkpt lat="40.0729443" lon="-105.2308067">
  <ele>1595.46</ele>
  <time>2026-08-28T19:11:48Z</time>
  <course>265.28</course>
  <speed>0.05</speed>
  <fix>3d</fix>
</trkpt>
<trkpt lat="40.0729443" lon="-105.2308065">
  <ele>1595.56</ele>
  <time>2026-08-28T19:11:48Z</time>
  <course>308.97</course>
  <speed>0.02</speed>
  <fix>3d</fix>
</trkpt>
<trkpt lat="40.0729444" lon="-105.2308068">
  <ele>1595.46</ele>
  <time>2026-08-28T19:11:48Z</time>
  <course>271.55</course>
  <speed>0.04</speed>
  <fix>3d</fix>
</trkpt>
<trkpt lat="40.0729443" lon="-105.2308066">
  <ele>1595.56</ele>
  <time>2026-08-28T19:11:48Z</time>
  <course>308.53</course>
  <speed>0.02</speed>
  <fix>3d</fix>
</trkpt>
<trkpt lat="40.0729444" lon="-105.2308069">
  <ele>1595.46</ele>
  <time>2026-08-28T19:11:48Z</time>
  <course>285.72</course>
  <speed>0.03</speed>
  <fix>3d</fix>
</trkpt>
<trkpt lat="40.0729443" lon="-105.2308067">
  <ele>1595.56</ele>
  <time>2026-08-28T19:11:48Z</time>
  <course>308.62</course>
  <speed>0.01414213562373095</speed>
  <fix>3d</fix>
</trkpt>
<trkpt lat="40.0729444" lon="-105.230807">
  <ele>1595.46</ele>
  <time>2026-08-28T19:11:48Z</time>
  <course>294.07</course>
  <speed>0.03</speed>
  <fix>3d</fix>
</trkpt>
<trkpt lat="40.0729443" lon="-105.2308068">
  <ele>1595.56</ele>
  <time>2026-08-28T19:11:48Z</time>
  <course>309.13</course>
  <speed>0.01</speed>
  <fix>3d</fix>
</trkpt>
<trkpt lat="40.0729444" lon="-105.2308071">
  <ele>1595.46</ele>
  <time>2026-08-28T19:11:48Z</time>
  <course>285.82</course>
  <speed>0.03</speed>
  <fix>3d</fix>
</trkpt>
<trkpt lat="40.0729443" lon="-105.2308069">
  <ele>1595.56</ele>
  <time>2026-08-28T19:11:48Z</time>
  <course>309.98</course>
  <speed>0.01</speed>
  <fix>3d</fix>
</trkpt>
<trkpt lat="40.0729444" lon="-105.2308072">
  <ele>1595.47</ele>
  <time>2026-08-28T19:11:48Z</time>
  <course>270.47</course>
  <speed>0.04</speed>
  <fix>3d</fix>
</trkpt>
<trkpt lat="40.0729444" lon="-105.230807">
  <ele>1595.56</ele>
  <time>2026-08-28T19:11:48Z</time>
  <course>309.5</course>
  <speed>0.01414213562373095</speed>
  <fix>3d</fix>
</trkpt>
<trkpt lat="40.0729444" lon="-105.2308073">
  <ele>1595.47</ele>
  <time>2026-08-28T19:11:48Z</time>
  <course>271.82</course>
  <speed>0.04</speed>
  <fix>3d</fix>
</trkpt>
<trkpt lat="40.0729444" lon="-105.2308071">
  <ele>1595.57</ele>
  <time>2026-08-28T19:11:48Z</time>
  <course>308.8</course>
  <speed>0.01414213562373095</speed>
  <fix>3d</fix>
</trkpt>
<trkpt lat="40.0729444" lon="-105.2308074">
  <ele>1595.47</ele>
  <time>2026-08-28T19:11:48Z</time>
  <course>281.28</course>
  <speed>0.04</speed>
  <fix>3d</fix>
</trkpt>
<trkpt lat="40.0729444" lon="-105.2308072">
  <ele>1595.57</ele>
  <time>2026-08-28T19:11:48Z</time>
  <course>308.52</course>
  <speed>0.022360679774997897</speed>
  <fix>3d</fix>
</trkpt>
<trkpt lat="40.0729444" lon="-105.2308075">
  <ele>1595.47</ele>
  <time>2026-08-28T19:11:48Z</time>
  <course>281.06</course>
  <speed>0.04</speed>
  <fix>3d</fix>
</trkpt>
<trkpt lat="40.0729444" lon="-105.2308074">
  <ele>1595.57</ele>
  <time>2026-08-28T19:11:48Z</time>
  <course>308.44</course>
  <speed>0.022360679774997897</speed>
  <fix>3d</fix>
</trkpt>
<trkpt lat="40.0729444" lon="-105.2308076">
  <ele>1595.47</ele>
  <time>2026-08-28T19:11:48Z</time>
  <course>281.13</course>
  <speed>0.04</speed>
  <fix>3d</fix>
</trkpt>
<trkpt lat="40.0729444" lon="-105.2308075">
  <ele>1595.57</ele>
  <time>2026-08-28T19:11:48Z</time>
  <course>308.41</course>
  <speed>0.022360679774997897</speed>
  <fix>3d</fix>
</trkpt>
<trkpt lat="40.0729445" lon="-105.2308077">
  <ele>1595.48</ele>
  <time>2026-08-28T19:11:48Z</time>
  <course>281.84</course>
  <speed>0.05</speed>
  <fix>3d</fix>
</trkpt>
<trkpt lat="40.0729445" lon="-105.2308076">
  <ele>1595.57</ele>
  <time>2026-08-28T19:11:48Z</time>
  <course>308.4</course>
  <speed>0.022360679774997897</speed>
  <fix>3d</fix>
</trkpt>
<trkpt lat="40.0729445" lon="-105.2308078">
  <ele>1595.48</ele>
  <time>2026-08-28T19:11:48Z</time>
  <course>282.53</course>
  <speed>0.05</speed>
  <fix>3d</fix>
</trkpt>
<trkpt lat="40.0729445" lon="-105.2308077">
  <ele>1595.57</ele>
  <time>2026-08-28T19:11:48Z</time>
  <course>308.4</course>
  <speed>0.0316227766016838</speed>
  <fix>3d</fix>
</trkpt>
<trkpt lat="40.0729445" lon="-105.230808">
  <ele>1595.48</ele>
  <time>2026-08-28T19:11:48Z</time>
  <course>283.48</course>
  <speed>0.05</speed>
  <fix>3d</fix>
</trkpt>
<trkpt lat="40.0729445" lon="-105.2308079">
  <ele>1595.57</ele>
  <time>2026-08-28T19:11:48Z</time>
  <course>308.39</course>
  <speed>0.03605551275463989</speed>
  <fix>3d</fix>
</trkpt>
<trkpt lat="40.0729445" lon="-105.2308081">
  <ele>1595.48</ele>
  <time>2026-08-28T19:11:48Z</time>
  <course>284.69</course>
  <speed>0.06</speed>
  <fix>3d</fix>
</trkpt>
<trkpt lat="40.0729445" lon="-105.230808">
  <ele>1595.57</ele>
  <time>2026-08-28T19:11:48Z</time>
  <course>308.39</course>
  <speed>0.03605551275463989</speed>
  <fix>3d</fix>
</trkpt>
<trkpt lat="40.0729445" lon="-105.2308083">
  <ele>1595.48</ele>
  <time>2026-08-28T19:11:48Z</time>
  <course>285.73</course>
  <speed>0.06</speed>
  <fix>3d</fix>
</trkpt>
<trkpt lat="40.0729446" lon="-105.2308082">
  <ele>1595.57</ele>
  <time>2026-08-28T19:11:48Z</time>
  <course>308.4</course>
  <speed>0.044721359549995794</speed>
  <fix>3d</fix>
</trkpt>
<trkpt lat="40.0729446" lon="-105.2308084">
  <ele>1595.48</ele>
  <time>2026-08-28T19:11:48Z</time>
  <course>286.62</course>
  <speed>0.06</speed>
  <fix>3d</fix>
</trkpt>
<trkpt lat="40.0729446" lon="-105.2308083">
  <ele>1595.57</ele>
  <time>2026-08-28T19:11:48Z</time>
  <course>308.4</course>
  <speed>0.044721359549995794</speed>
  <fix>3d</fix>
</trkpt>
<trkpt lat="40.0729446" lon="-105.2308085">
  <ele>1595.48</ele>
  <time>2026-08-28T19:11:48Z</time>
  <course>287.22</course>
  <speed>0.07</speed>
  <fix>3d</fix>
</trkpt>
<trkpt lat="40.0729446" lon="-105.2308085">
  <ele>1595.57</ele>
  <time>2026-08-28T19:11:48Z</time>
  <course>308.4</course>
  <speed>0.044721359549995794</speed>
  <fix>3d</fix>
</trkpt>
<trkpt lat="40.0729447" lon="-105.2308087">
  <ele>1595.48</ele>
  <time>2026-08-28T19:11:48Z</time>
  <course>287.65</course>
  <speed>0.07</speed>
  <fix>3d</fix>
</trkpt>
<trkpt lat="40.0729447" lon="-105.2308087">
  <ele>1595.57</ele>
  <time>2026-08-28T19:11:48Z</time>
  <course>308.41</course>
  <speed>0.044721359549995794</speed>
  <fix>3d</fix>
</trkpt>
<trkpt lat="40.0729447" lon="-105.2308089">
  <ele>1595.48</ele>
  <time>2026-08-28T19:11:48Z</time>
  <course>288.05</course>
  <speed>0.07</speed>
  <fix>3d</fix>
</trkpt>
<trkpt lat="40.0729447" lon="-105.2308088">
  <ele>1595.57</ele>
  <time>2026-08-28T19:11:48Z</time>
  <course>308.41</course>
  <speed>0.044721359549995794</speed>
  <fix>3d</fix>
</trkpt>
<trkpt lat="40.0729447" lon="-105.230809">
  <ele>1595.48</ele>
  <time>2026-08-28T19:11:48Z</time>
  <course>288.38</course>
  <speed>0.07</speed>
  <fix>3d</fix>
</trkpt>
<trkpt lat="40.0729448" lon="-105.230809">
  <ele>1595.57</ele>
  <time>2026-08-28T19:11:48Z</time>
  <course>308.43</course>
  <speed>0.053851648071345036</speed>
  <fix>3d</fix>
</trkpt>
<trkpt lat="40.0729447" lon="-105.2308093">
  <ele>1595.48</ele>
  <time>2026-08-28T19:11:48Z</time>
  <course>288.66</course>
  <speed>0.07</speed>
  <fix>3d</fix>
</trkpt>
<trkpt lat="40.0729448" lon="-105.2308092">
  <ele>1595.57</ele>
  <time>2026-08-28T19:11:48Z</time>
  <course>308.42</course>
  <speed>0.05830951894845301</speed>
  <fix>3d</fix>
</trkpt>
<trkpt lat="40.0729448" lon="-105.2308094">
  <ele>1595.48</ele>
  <time>2026-08-28T19:11:48Z</time>
  <course>289.01</course>
  <speed>0.08</speed>
  <fix>3d</fix>
</trkpt>
<trkpt lat="40.0729449" lon="-105.2308094">
  <ele>1595.57</ele>
  <time>2026-08-28T19:11:48Z</time>
  <course>307.03</course>
  <speed>0.053851648071345036</speed>
  <fix>3d</fix>
</trkpt>
<trkpt lat="40.0729448" lon="-105.2308095">
  <ele>1595.48</ele>
  <time>2026-08-28T19:11:48Z</time>
  <course>293.84</course>
  <speed>0.08</speed>
  <fix>3d</fix>
</trkpt>
<trkpt lat="40.0729449" lon="-105.2308096">
  <ele>1595.56</ele>
  <time>2026-08-28T19:11:48Z</time>
  <course>308.03</course>
  <speed>0.04242640687119285</speed>
  <fix>3d</fix>
</trkpt>
<trkpt lat="40.0729449" lon="-105.2308098">
  <ele>1595.48</ele>
  <time>2026-08-28T19:11:48Z</time>
  <course>295.51</course>
  <speed>0.08</speed>
  <fix>3d</fix>
</trkpt>
<trkpt lat="40.072945" lon="-105.2308097">
  <ele>1595.56</ele>
  <time>2026-08-28T19:11:48Z</time>
  <course>308.87</course>
  <speed>0.03605551275463989</speed>
  <fix>3d</fix>
</trkpt>
<trkpt lat="40.072945" lon="-105.2308099">
  <ele>1595.48</ele>
  <time>2026-08-28T19:11:48Z</time>
  <course>285.77</course>
  <speed>0.07</speed>
  <fix>3d</fix>
</trkpt>
<trkpt lat="40.072945" lon="-105.2308099">
  <ele>1595.56</ele>
  <time>2026-08-28T19:11:48Z</time>
  <course>309.03</course>
  <speed>0.0316227766016838</speed>
  <fix>3d</fix>
</trkpt>
<trkpt lat="40.072945" lon="-105.2308101">
  <ele>1595.48</ele>
  <time>2026-08-28T19:11:48Z</time>
  <course>275.48</course>
  <speed>0.07</speed>
  <fix>3d</fix>
</trkpt>
<trkpt lat="40.072945" lon="-105.23081">
  <ele>1595.56</ele>
  <time>2026-08-28T19:11:48Z</time>
  <course>308.43</course>
  <speed>0.03</speed>
  <fix>3d</fix>
</trkpt>
<trkpt lat="40.072945" lon="-105.2308103">
  <ele>1595.48</ele>
  <time>2026-08-28T19:11:48Z</time>
  <course>274.74</course>
  <speed>0.06</speed>
  <fix>3d</fix>
</trkpt>
<trkpt lat="40.072945" lon="-105.2308101">
  <ele>1595.56</ele>
  <time>2026-08-28T19:11:48Z</time>
  <course>307.79</course>
  <speed>0.02</speed>
  <fix>3d</fix>
</trkpt>
<trkpt lat="40.0729451" lon="-105.2308104">
  <ele>1595.48</ele>
  <time>2026-08-28T19:11:48Z</time>
  <course>285.23</course>
  <speed>0.05</speed>
  <fix>3d</fix>
</trkpt>
<trkpt lat="40.072945" lon="-105.2308103">
  <ele>1595.56</ele>
  <time>2026-08-28T19:11:48Z</time>
  <course>307.88</course>
  <speed>0.01414213562373095</speed>
  <fix>3d</fix>
</trkpt>
<trkpt lat="40.0729451" lon="-105.2308105">
  <ele>1595.48</ele>
  <time>2026-08-28T19:11:48Z</time>
  <course>294.59</course>
  <speed>0.04</speed>
  <fix>3d</fix>
</trkpt>
<trkpt lat="40.072945" lon="-105.2308104">
  <ele>1595.56</ele>
  <time>2026-08-28T19:11:48Z</time>
  <course>308.56</course>
  <speed>0.022360679774997897</speed>
  <fix>3d</fix>
</trkpt>
<trkpt lat="40.0729451" lon="-105.2308106">
  <ele>1595.49</ele>
  <time>2026-08-28T19:11:48Z</time>
  <course>286.67</course>
  <speed>0.04</speed>
  <fix>3d</fix>
</trkpt>
<trkpt lat="40.0729451" lon="-105.2308105">
  <ele>1595.56</ele>
  <time>2026-08-28T19:11:48Z</time>
  <course>309.05</course>
  <speed>0.01414213562373095</speed>
  <fix>3d</fix>
</trkpt>
<trkpt lat="40.0729451" lon="-105.2308107">
  <ele>1595.49</ele>
  <time>2026-08-28T19:11:48Z</time>
  <course>271.12</course>
  <speed>0.05</speed>
  <fix>3d</fix>
</trkpt>
<trkpt lat="40.0729451" lon="-105.2308106">
  <ele>1595.56</ele>
  <time>2026-08-28T19:11:48Z</time>
  <course>308.75</course>
  <speed>0.02</speed>
  <fix>3d</fix>
</trkpt>
<trkpt lat="40.0729451" lon="-105.2308108">
  <ele>1595.49</ele>
  <time>2026-08-28T19:11:48Z</time>
  <course>265.86</course>
  <speed>0.05</speed>
  <fix>3d</fix>
</trkpt>
<trkpt lat="40.0729451" lon="-105.2308107">
  <ele>1595.57</ele>
  <time>2026-08-28T19:11:48Z</time>
  <course>308.03</course>
  <speed>0.02</speed>
  <fix>3d</fix>
</trkpt>
<trkpt lat="40.0729451" lon="-105.2308109">
  <ele>1595.49</ele>
  <time>2026-08-28T19:11:48Z</time>
  <course>274.54</course>
  <speed>0.04</speed>
  <fix>3d</fix>
</trkpt>
<trkpt lat="40.0729451" lon="-105.2308108">
  <ele>1595.58</ele>
  <time>2026-08-28T19:11:48Z</time>
  <course>307.75</course>
  <speed>0.01</speed>
  <fix>3d</fix>
</trkpt>
<trkpt lat="40.0729452" lon="-105.230811">
  <ele>1595.5</ele>
  <time>2026-08-28T19:11:48Z</time>
  <course>290.21</course>
  <speed>0.03</speed>
  <fix>3d</fix>
</trkpt>
<trkpt lat="40.0729451" lon="-105.2308109">
  <ele>1595.58</ele>
  <time>2026-08-28T19:11:48Z</time>
  <course>308.27</course>
  <speed>0.01</speed>
  <fix>3d</fix>
</trkpt>
<trkpt lat="40.0729452" lon="-105.2308111">
  <ele>1595.5</ele>
  <time>2026-08-28T19:11:48Z</time>
  <course>290.88</course>
  <speed>0.03</speed>
  <fix>3d</fix>
</trkpt>
<trkpt lat="40.0729451" lon="-105.230811">
  <ele>1595.58</ele>
  <time>2026-08-28T19:11:48Z</time>
  <course>308.95</course>
  <speed>0.01</speed>
  <fix>3d</fix>
</trkpt>
<trkpt lat="40.0729452" lon="-105.2308112">
  <ele>1595.5</ele>
  <time>2026-08-28T19:11:48Z</time>
  <course>274.39</course>
  <speed>0.04</speed>
  <fix>3d</fix>
</trkpt>
<trkpt lat="40.0729451" lon="-105.2308111">
  <ele>1595.58</ele>
  <time>2026-08-28T19:11:48Z</time>
  <course>309.03</course>
  <speed>0.01</speed>
  <fix>3d</fix>
</trkpt>
<trkpt lat="40.0729452" lon="-105.2308113">
  <ele>1595.5</ele>
  <time>2026-08-28T19:11:48Z</time>
  <course>263.5</course>
  <speed>0.04</speed>
  <fix>3d</fix>
</trkpt>
<trkpt lat="40.0729451" lon="-105.2308112">
  <ele>1595.58</ele>
  <time>2026-08-28T19:11:48Z</time>
  <course>308.41</course>
  <speed>0.02</speed>
  <fix>3d</fix>
</trkpt>
<trkpt lat="40.0729452" lon="-105.2308114">
  <ele>1595.5</ele>
  <time>2026-08-28T19:11:48Z</time>
  <course>266.64</course>
  <speed>0.04</speed>
  <fix>3d</fix>
</trkpt>
<trkpt lat="40.0729451" lon="-105.2308113">
  <ele>1595.58</ele>
  <time>2026-08-28T19:11:48Z</time>
  <course>307.81</course>
  <speed>0.02</speed>
  <fix>3d</fix>
</trkpt>
<trkpt lat="40.0729452" lon="-105.2308115">
  <ele>1595.49</ele>
  <time>2026-08-28T19:11:48Z</time>
  <course>282.63</course>
  <speed>0.03</speed>
  <fix>3d</fix>
</trkpt>
<trkpt lat="40.0729451" lon="-105.2308114">
  <ele>1595.58</ele>
  <time>2026-08-28T19:11:48Z</time>
  <course>309.72</course>
  <speed>0.01</speed>
  <fix>3d</fix>
</trkpt>
<trkpt lat="40.0729452" lon="-105.2308116">
  <ele>1595.49</ele>
  <time>2026-08-28T19:11:48Z</time>
  <course>281.8</course>
  <speed>0.03</speed>
  <fix>3d</fix>
</trkpt>
<trkpt lat="40.0729452" lon="-105.2308115">
  <ele>1595.58</ele>
  <time>2026-08-28T19:11:48Z</time>
  <course>308.9</course>
  <speed>0.01414213562373095</speed>
  <fix>3d</fix>
</trkpt>
<trkpt lat="40.0729452" lon="-105.2308117">
  <ele>1595.49</ele>
  <time>2026-08-28T19:11:48Z</time>
  <course>276.83</course>
  <speed>0.04</speed>
  <fix>3d</fix>
</trkpt>
<trkpt lat="40.0729452" lon="-105.2308116">
  <ele>1595.57</ele>
  <time>2026-08-28T19:11:48Z</time>
  <course>308.18</course>
  <speed>0.01414213562373095</speed>
  <fix>3d</fix>
</trkpt>
<trkpt lat="40.0729452" lon="-105.2308118">
  <ele>1595.49</ele>
  <time>2026-08-28T19:11:48Z</time>
  <course>282.15</course>
  <speed>0.04</speed>
  <fix>3d</fix>
</trkpt>
<trkpt lat="40.0729452" lon="-105.2308117">
  <ele>1595.57</ele>
  <time>2026-08-28T19:11:48Z</time>
  <course>307.88</course>
  <speed>0.022360679774997897</speed>
  <fix>3d</fix>
</trkpt>
<trkpt lat="40.0729452" lon="-105.2308119">
  <ele>1595.49</ele>
  <time>2026-08-28T19:11:48Z</time>
  <course>281.56</course>
  <speed>0.04</speed>
  <fix>3d</fix>
</trkpt>
<trkpt lat="40.0729452" lon="-105.2308118">
  <ele>1595.57</ele>
  <time>2026-08-28T19:11:48Z</time>
  <course>307.75</course>
  <speed>0.022360679774997897</speed>
  <fix>3d</fix>
</trkpt>
<trkpt lat="40.0729452" lon="-105.230812">
  <ele>1595.49</ele>
  <time>2026-08-28T19:11:48Z</time>
  <course>281.37</course>
  <speed>0.05</speed>
  <fix>3d</fix>
</trkpt>
<trkpt lat="40.0729452" lon="-105.2308119">
  <ele>1595.57</ele>
  <time>2026-08-28T19:11:48Z</time>
  <course>307.7</course>
  <speed>0.022360679774997897</speed>
  <fix>3d</fix>
</trkpt>
<trkpt lat="40.0729453" lon="-105.2308122">
  <ele>1595.49</ele>
  <time>2026-08-28T19:11:48Z</time>
  <course>281.98</course>
  <speed>0.05</speed>
  <fix>3d</fix>
</trkpt>
<trkpt lat="40.0729453" lon="-105.230812">
  <ele>1595.57</ele>
  <time>2026-08-28T19:11:48Z</time>
  <course>307.68</course>
  <speed>0.0316227766016838</speed>
  <fix>3d</fix>
</trkpt>
<trkpt lat="40.0729453" lon="-105.2308123">
  <ele>1595.49</ele>
  <time>2026-08-28T19:11:48Z</time>
  <course>282.84</course>
  <speed>0.05</speed>
  <fix>3d</fix>
</trkpt>
<trkpt lat="40.0729453" lon="-105.2308122">
  <ele>1595.57</ele>
  <time>2026-08-28T19:11:48Z</time>
  <course>307.68</course>
  <speed>0.0316227766016838</speed>
  <fix>3d</fix>
</trkpt>
<trkpt lat="40.0729453" lon="-105.2308124">
  <ele>1595.49</ele>
  <time>2026-08-28T19:11:48Z</time>
  <course>283.67</course>
  <speed>0.05</speed>
  <fix>3d</fix>
</trkpt>
<trkpt lat="40.0729453" lon="-105.2308123">
  <ele>1595.58</ele>
  <time>2026-08-28T19:11:48Z</time>
  <course>307.69</course>
  <speed>0.0316227766016838</speed>
  <fix>3d</fix>
</trkpt>
<trkpt lat="40.0729453" lon="-105.2308126">
  <ele>1595.49</ele>
  <time>2026-08-28T19:11:48Z</time>
  <course>284.26</course>
  <speed>0.06</speed>
  <fix>3d</fix>
</trkpt>
<trkpt lat="40.0729453" lon="-105.2308125">
  <ele>1595.58</ele>
  <time>2026-08-28T19:11:48Z</time>
  <course>307.68</course>
  <speed>0.03605551275463989</speed>
  <fix>3d</fix>
</trkpt>
<trkpt lat="40.0729453" lon="-105.2308127">
  <ele>1595.48</ele>
  <time>2026-08-28T19:11:48Z</time>
  <course>285.04</course>
  <speed>0.06</speed>
  <fix>3d</fix>
</trkpt>
<trkpt lat="40.0729454" lon="-105.2308126">
  <ele>1595.58</ele>
  <time>2026-08-28T19:11:48Z</time>
  <course>307.69</course>
  <speed>0.044721359549995794</speed>
  <fix>3d</fix>
</trkpt>
<trkpt lat="40.0729453" lon="-105.2308128">
  <ele>1595.48</ele>
  <time>2026-08-28T19:11:48Z</time>
  <course>285.9</course>
  <speed>0.06</speed>
  <fix>3d</fix>
</trkpt>
<trkpt lat="40.0729454" lon="-105.2308128">
  <ele>1595.57</ele>
  <time>2026-08-28T19:11:48Z</time>
  <course>307.69</course>
  <speed>0.044721359549995794</speed>
  <fix>3d</fix>
</trkpt>
<trkpt lat="40.0729454" lon="-105.230813">
  <ele>1595.48</ele>
  <time>2026-08-28T19:11:48Z</time>
  <course>286.25</course>
  <speed>0.07</speed>
  <fix>3d</fix>
</trkpt>
<trkpt lat="40.0729454" lon="-105.230813">
  <ele>1595.57</ele>
  <time>2026-08-28T19:11:49Z</time>
  <course>307.69</course>
  <speed>0.044721359549995794</speed>
  <fix>3d</fix>
</trkpt>
<trkpt lat="40.0729454" lon="-105.2308132">
  <ele>1595.48</ele>
  <time>2026-08-28T19:11:49Z</time>
  <course>286.8</course>
  <speed>0.07</speed>
  <fix>3d</fix>
</trkpt>
<trkpt lat="40.0729455" lon="-105.2308131">
  <ele>1595.58</ele>
  <time>2026-08-28T19:11:49Z</time>
  <course>307.69</course>
  <speed>0.044721359549995794</speed>
  <fix>3d</fix>
</trkpt>
<trkpt lat="40.0729454" lon="-105.2308133">
  <ele>1595.48</ele>
  <time>2026-08-28T19:11:49Z</time>
  <course>287.52</course>
  <speed>0.07</speed>
  <fix>3d</fix>
</trkpt>
<trkpt lat="40.0729455" lon="-105.2308133">
  <ele>1595.58</ele>
  <time>2026-08-28T19:11:49Z</time>
  <course>307.7</course>
  <speed>0.053851648071345036</speed>
  <fix>3d</fix>
</trkpt>
<trkpt lat="40.0729455" lon="-105.2308135">
  <ele>1595.48</ele>
  <time>2026-08-28T19:11:49Z</time>
  <course>288.02</course>
  <speed>0.07</speed>
  <fix>3d</fix>
</trkpt>
<trkpt lat="40.0729455" lon="-105.2308135">
  <ele>1595.58</ele>
  <time>2026-08-28T19:11:49Z</time>
  <course>307.71</course>
  <speed>0.053851648071345036</speed>
  <fix>3d</fix>
</trkpt>
<trkpt lat="40.0729456" lon="-105.2308137">
  <ele>1595.48</ele>
  <time>2026-08-28T19:11:49Z</time>
  <course>288.47</course>
  <speed>0.08</speed>
  <fix>3d</fix>
</trkpt>
<trkpt lat="40.0729456" lon="-105.2308137">
  <ele>1595.58</ele>
  <time>2026-08-28T19:11:49Z</time>
  <course>307.65</course>
  <speed>0.05830951894845301</speed>
  <fix>3d</fix>
</trkpt>
<trkpt lat="40.0729456" lon="-105.2308138">
  <ele>1595.47</ele>
  <time>2026-08-28T19:11:49Z</time>
  <course>288.93</course>
  <speed>0.08</speed>
  <fix>3d</fix>
</trkpt>
<trkpt lat="40.0729456" lon="-105.2308139">
  <ele>1595.58</ele>
  <time>2026-08-28T19:11:49Z</time>
  <course>307.51</course>
  <speed>0.06082762530298219</speed>
  <fix>3d</fix>
</trkpt>
<trkpt lat="40.0729457" lon="-105.2308141">
  <ele>1595.47</ele>
  <time>2026-08-28T19:11:49Z</time>
  <course>285.97</course>
  <speed>0.08</speed>
  <fix>3d</fix>
</trkpt>
<trkpt lat="40.0729457" lon="-105.230814">
  <ele>1595.58</ele>
  <time>2026-08-28T19:11:49Z</time>
  <course>307.29</course>
  <speed>0.05099019513592785</speed>
  <fix>3d</fix>
</trkpt>
<trkpt lat="40.0729457" lon="-105.2308142">
  <ele>1595.47</ele>
  <time>2026-08-28T19:11:49Z</time>
  <course>286.66</course>
  <speed>0.08</speed>
  <fix>3d</fix>
</trkpt>
<trkpt lat="40.0729457" lon="-105.2308142">
  <ele>1595.58</ele>
  <time>2026-08-28T19:11:49Z</time>
  <course>307.09</course>
  <speed>0.0316227766016838</speed>
  <fix>3d</fix>
</trkpt>
<trkpt lat="40.0729458" lon="-105.2308144">
  <ele>1595.47</ele>
  <time>2026-08-28T19:11:49Z</time>
  <course>294.06</course>
  <speed>0.07</speed>
  <fix>3d</fix>
</trkpt>
<trkpt lat="40.0729457" lon="-105.2308143">
  <ele>1595.58</ele>
  <time>2026-08-28T19:11:49Z</time>
  <course>307.41</course>
  <speed>0.0282842712474619</speed>
  <fix>3d</fix>
</trkpt>
<trkpt lat="40.0729458" lon="-105.2308146">
  <ele>1595.46</ele>
  <time>2026-08-28T19:11:49Z</time>
  <course>295.48</course>
  <speed>0.06</speed>
  <fix>3d</fix>
</trkpt>
<trkpt lat="40.0729458" lon="-105.2308145">
  <ele>1595.58</ele>
  <time>2026-08-28T19:11:49Z</time>
  <course>308.0</course>
  <speed>0.022360679774997897</speed>
  <fix>3d</fix>
</trkpt>
<trkpt lat="40.0729458" lon="-105.2308147">
  <ele>1595.46</ele>
  <time>2026-08-28T19:11:49Z</time>
  <course>286.49</course>
  <speed>0.05</speed>
  <fix>3d</fix>
</trkpt>
<trkpt lat="40.0729458" lon="-105.2308146">
  <ele>1595.57</ele>
  <time>2026-08-28T19:11:49Z</time>
  <course>308.34</course>
  <speed>0.022360679774997897</speed>
  <fix>3d</fix>
</trkpt>
<trkpt lat="40.0729459" lon="-105.2308148">
  <ele>1595.46</ele>
  <time>2026-08-28T19:11:49Z</time>
  <course>274.98</course>
  <speed>0.05</speed>
  <fix>3d</fix>
</trkpt>
<trkpt lat="40.0729458" lon="-105.2308147">
  <ele>1595.57</ele>
  <time>2026-08-28T19:11:49Z</time>
  <course>308.09</course>
  <speed>0.02</speed>
  <fix>3d</fix>
</trkpt>
<trkpt lat="40.0729459" lon="-105.230815">
  <ele>1595.45</ele>
  <time>2026-08-28T19:11:49Z</time>
  <course>270.85</course>
  <speed>0.05</speed>
  <fix>3d</fix>
</trkpt>
<trkpt lat="40.0729459" lon="-105.2308148">
  <ele>1595.56</ele>
  <time>2026-08-28T19:11:49Z</time>
  <course>307.51</course>
  <speed>0.02</speed>
  <fix>3d</fix>
</trkpt>
<trkpt lat="40.0729459" lon="-105.2308151">
  <ele>1595.45</ele>
  <time>2026-08-28T19:11:49Z</time>
  <course>276.97</course>
  <speed>0.05</speed>
  <fix>3d</fix>
</trkpt>
<trkpt lat="40.0729459" lon="-105.2308149">
  <ele>1595.56</ele>
  <time>2026-08-28T19:11:49Z</time>
  <course>307.08</course>
  <speed>0.02</speed>
  <fix>3d</fix>
</trkpt>
<trkpt lat="40.0729459" lon="-105.2308152">
  <ele>1595.45</ele>
  <time>2026-08-28T19:11:49Z</time>
  <course>290.15</course>
  <speed>0.04</speed>
  <fix>3d</fix>
</trkpt>
<trkpt lat="40.0729459" lon="-105.230815">
  <ele>1595.56</ele>
  <time>2026-08-28T19:11:49Z</time>
  <course>307.21</course>
  <speed>0.01414213562373095</speed>
  <fix>3d</fix>
</trkpt>
<trkpt lat="40.0729459" lon="-105.2308153">
  <ele>1595.45</ele>
  <time>2026-08-28T19:11:49Z</time>
  <course>296.72</course>
  <speed>0.04</speed>
  <fix>3d</fix>
</trkpt>
<trkpt lat="40.0729459" lon="-105.2308151">
  <ele>1595.56</ele>
  <time>2026-08-28T19:11:49Z</time>
  <course>307.75</course>
  <speed>0.02</speed>
  <fix>3d</fix>
</trkpt>
<trkpt lat="40.0729459" lon="-105.2308154">
  <ele>1595.45</ele>
  <time>2026-08-28T19:11:49Z</time>
  <course>286.86</course>
  <speed>0.04</speed>
  <fix>3d</fix>
</trkpt>
<trkpt lat="40.0729459" lon="-105.2308152">
  <ele>1595.56</ele>
  <time>2026-08-28T19:11:49Z</time>
  <course>308.24</course>
  <speed>0.01414213562373095</speed>
  <fix>3d</fix>
</trkpt>
<trkpt lat="40.072946" lon="-105.2308155">
  <ele>1595.45</ele>
  <time>2026-08-28T19:11:49Z</time>
  <course>271.06</course>
  <speed>0.04</speed>
  <fix>3d</fix>
</trkpt>
<trkpt lat="40.0729459" lon="-105.2308153">
  <ele>1595.56</ele>
  <time>2026-08-28T19:11:49Z</time>
  <course>308.21</course>
  <speed>0.02</speed>
  <fix>3d</fix>
</trkpt>
<trkpt lat="40.072946" lon="-105.2308156">
  <ele>1595.45</ele>
  <time>2026-08-28T19:11:49Z</time>
  <course>263.54</course>
  <speed>0.05</speed>
  <fix>3d</fix>
</trkpt>
<trkpt lat="40.0729459" lon="-105.2308154">
  <ele>1595.56</ele>
  <time>2026-08-28T19:11:49Z</time>
  <course>307.69</course>
  <speed>0.02</speed>
  <fix>3d</fix>
</trkpt>
<trkpt lat="40.072946" lon="-105.2308157">
  <ele>1595.46</ele>
  <time>2026-08-28T19:11:49Z</time>
  <course>267.01</course>
  <speed>0.04</speed>
  <fix>3d</fix>
</trkpt>
<trkpt lat="40.0729459" lon="-105.2308155">
  <ele>1595.56</ele>
  <time>2026-08-28T19:11:49Z</time>
  <course>307.16</course>
  <speed>0.02</speed>
  <fix>3d</fix>
</trkpt>
<trkpt lat="40.072946" lon="-105.2308158">
  <ele>1595.46</ele>
  <time>2026-08-28T19:11:49Z</time>
  <course>280.06</course>
  <speed>0.04</speed>
  <fix>3d</fix>
</trkpt>
<trkpt lat="40.0729459" lon="-105.2308157">
  <ele>1595.56</ele>
  <time>2026-08-28T19:11:49Z</time>
  <course>307.09</course>
  <speed>0.01</speed>
  <fix>3d</fix>
</trkpt>
<trkpt lat="40.072946" lon="-105.2308159">
  <ele>1595.46</ele>
  <time>2026-08-28T19:11:49Z</time>
  <course>292.0</course>
  <speed>0.03</speed>
  <fix>3d</fix>
</trkpt>
<trkpt lat="40.0729459" lon="-105.2308158">
  <ele>1595.56</ele>
  <time>2026-08-28T19:11:49Z</time>
  <course>308.82</course>
  <speed>0.01</speed>
  <fix>3d</fix>
</trkpt>
<trkpt lat="40.072946" lon="-105.230816">
  <ele>1595.46</ele>
  <time>2026-08-28T19:11:49Z</time>
  <course>279.52</course>
  <speed>0.03</speed>
  <fix>3d</fix>
</trkpt>
<trkpt lat="40.072946" lon="-105.2308158">
  <ele>1595.56</ele>
  <time>2026-08-28T19:11:49Z</time>
  <course>308.1</course>
  <speed>0.01414213562373095</speed>
  <fix>3d</fix>
</trkpt>
<trkpt lat="40.072946" lon="-105.2308161">
  <ele>1595.46</ele>
  <time>2026-08-28T19:11:49Z</time>
  <course>273.05</course>
  <speed>0.04</speed>
  <fix>3d</fix>
</trkpt>
<trkpt lat="40.072946" lon="-105.2308159">
  <ele>1595.56</ele>
  <time>2026-08-28T19:11:49Z</time>
  <course>307.38</course>
  <speed>0.01414213562373095</speed>
  <fix>3d</fix>
</trkpt>
<trkpt lat="40.072946" lon="-105.2308162">
  <ele>1595.46</ele>
  <time>2026-08-28T19:11:49Z</time>
  <course>279.27</course>
  <speed>0.04</speed>
  <fix>3d</fix>
</trkpt>
<trkpt lat="40.072946" lon="-105.230816">
  <ele>1595.57</ele>
  <time>2026-08-28T19:11:49Z</time>
  <course>307.06</course>
  <speed>0.022360679774997897</speed>
  <fix>3d</fix>
</trkpt>
<trkpt lat="40.072946" lon="-105.2308163">
  <ele>1595.47</ele>
  <time>2026-08-28T19:11:49Z</time>
  <course>279.03</course>
  <speed>0.04</speed>
  <fix>3d</fix>
</trkpt>
<trkpt lat="40.072946" lon="-105.2308162">
  <ele>1595.58</ele>
  <time>2026-08-28T19:11:49Z</time>
  <course>306.99</course>
  <speed>0.022360679774997897</speed>
  <fix>3d</fix>
</trkpt>
<trkpt lat="40.072946" lon="-105.2308164">
  <ele>1595.47</ele>
  <time>2026-08-28T19:11:49Z</time>
  <course>278.96</course>
  <speed>0.04</speed>
  <fix>3d</fix>
</trkpt>
<trkpt lat="40.072946" lon="-105.2308163">
  <ele>1595.58</ele>
  <time>2026-08-28T19:11:49Z</time>
  <course>306.99</course>
  <speed>0.022360679774997897</speed>
  <fix>3d</fix>
</trkpt>
<trkpt lat="40.072946" lon="-105.2308165">
  <ele>1595.47</ele>
  <time>2026-08-28T19:11:49Z</time>
  <course>279.33</course>
  <speed>0.05</speed>
  <fix>3d</fix>
</trkpt>
<trkpt lat="40.072946" lon="-105.2308164">
  <ele>1595.58</ele>
  <time>2026-08-28T19:11:49Z</time>
  <course>306.98</course>
  <speed>0.0316227766016838</speed>
  <fix>3d</fix>
</trkpt>
<trkpt lat="40.072946" lon="-105.2308166">
  <ele>1595.47</ele>
  <time>2026-08-28T19:11:49Z</time>
  <course>280.12</course>
  <speed>0.05</speed>
  <fix>3d</fix>
</trkpt>
<trkpt lat="40.0729461" lon="-105.2308165">
  <ele>1595.58</ele>
  <time>2026-08-28T19:11:49Z</time>
  <course>306.96</course>
  <speed>0.0316227766016838</speed>
  <fix>3d</fix>
</trkpt>
<trkpt lat="40.072946" lon="-105.2308167">
  <ele>1595.47</ele>
  <time>2026-08-28T19:11:49Z</time>
  <course>281.19</course>
  <speed>0.05</speed>
  <fix>3d</fix>
</trkpt>
<trkpt lat="40.0729461" lon="-105.2308167">
  <ele>1595.58</ele>
  <time>2026-08-28T19:11:49Z</time>
  <course>306.97</course>
  <speed>0.0316227766016838</speed>
  <fix>3d</fix>
</trkpt>
<trkpt lat="40.072946" lon="-105.2308169">
  <ele>1595.47</ele>
  <time>2026-08-28T19:11:49Z</time>
  <course>282.35</course>
  <speed>0.06</speed>
  <fix>3d</fix>
</trkpt>
<trkpt lat="40.0729461" lon="-105.2308168">
  <ele>1595.57</ele>
  <time>2026-08-28T19:11:49Z</time>
  <course>306.96</course>
  <speed>0.0316227766016838</speed>
  <fix>3d</fix>
</trkpt>
<trkpt lat="40.0729461" lon="-105.2308171">
  <ele>1595.46</ele>
  <time>2026-08-28T19:11:49Z</time>
  <course>283.18</course>
  <speed>0.06</speed>
  <fix>3d</fix>
</trkpt>
<trkpt lat="40.0729461" lon="-105.230817">
  <ele>1595.56</ele>
  <time>2026-08-28T19:11:49Z</time>
  <course>306.96</course>
  <speed>0.044721359549995794</speed>
  <fix>3d</fix>
</trkpt>
<trkpt lat="40.0729461" lon="-105.2308172">
  <ele>1595.46</ele>
  <time>2026-08-28T19:11:49Z</time>
  <course>284.06</course>
  <speed>0.06</speed>
  <fix>3d</fix>
</trkpt>
<trkpt lat="40.0729461" lon="-105.2308171">
  <ele>1595.56</ele>
  <time>2026-08-28T19:11:49Z</time>
  <course>306.95</course>
  <speed>0.044721359549995794</speed>
  <fix>3d</fix>
</trkpt>
<trkpt lat="40.0729461" lon="-105.2308174">
  <ele>1595.46</ele>
  <time>2026-08-28T19:11:49Z</time>
  <course>285.13</course>
  <speed>0.07</speed>
  <fix>3d</fix>
</trkpt>
<trkpt lat="40.0729462" lon="-105.2308173">
  <ele>1595.55</ele>
  <time>2026-08-28T19:11:49Z</time>
  <course>306.95</course>
  <speed>0.044721359549995794</speed>
  <fix>3d</fix>
</trkpt>
<trkpt lat="40.0729462" lon="-105.2308175">
  <ele>1595.46</ele>
  <time>2026-08-28T19:11:49Z</time>
  <course>286.0</course>
  <speed>0.07</speed>
  <fix>3d</fix>
</trkpt>
<trkpt lat="40.0729462" lon="-105.2308175">
  <ele>1595.55</ele>
  <time>2026-08-28T19:11:49Z</time>
  <course>306.93</course>
  <speed>0.044721359549995794</speed>
  <fix>3d</fix>
</trkpt>
<trkpt lat="40.0729463" lon="-105.2308176">
  <ele>1595.46</ele>
  <time>2026-08-28T19:11:49Z</time>
  <course>286.57</course>
  <speed>0.07</speed>
  <fix>3d</fix>
</trkpt>
<trkpt lat="40.0729463" lon="-105.2308177">
  <ele>1595.56</ele>
  <time>2026-08-28T19:11:49Z</time>
  <course>306.95</course>
  <speed>0.044721359549995794</speed>
  <fix>3d</fix>
</trkpt>
<trkpt lat="40.0729463" lon="-105.2308179">
  <ele>1595.46</ele>
  <time>2026-08-28T19:11:49Z</time>
  <course>286.72</course>
  <speed>0.07</speed>
  <fix>3d</fix>
</trkpt>
<trkpt lat="40.0729463" lon="-105.2308178">
  <ele>1595.56</ele>
  <time>2026-08-28T19:11:49Z</time>
  <course>306.95</course>
  <speed>0.053851648071345036</speed>
  <fix>3d</fix>
</trkpt>
<trkpt lat="40.0729463" lon="-105.230818">
  <ele>1595.46</ele>
  <time>2026-08-28T19:11:49Z</time>
  <course>286.84</course>
  <speed>0.08</speed>
  <fix>3d</fix>
</trkpt>
<trkpt lat="40.0729464" lon="-105.230818">
  <ele>1595.56</ele>
  <time>2026-08-28T19:11:49Z</time>
  <course>306.94</course>
  <speed>0.053851648071345036</speed>
  <fix>3d</fix>
</trkpt>
<trkpt lat="40.0729464" lon="-105.2308183">
  <ele>1595.47</ele>
  <time>2026-08-28T19:11:49Z</time>
  <course>287.18</course>
  <speed>0.08</speed>
  <fix>3d</fix>
</trkpt>
<trkpt lat="40.0729464" lon="-105.2308182">
  <ele>1595.56</ele>
  <time>2026-08-28T19:11:49Z</time>
  <course>306.58</course>
  <speed>0.06082762530298219</speed>
  <fix>3d</fix>
</trkpt>
<trkpt lat="40.0729464" lon="-105.2308184">
  <ele>1595.47</ele>
  <time>2026-08-28T19:11:49Z</time>
  <course>284.89</course>
  <speed>0.08</speed>
  <fix>3d</fix>
</trkpt>
<trkpt lat="40.0729464" lon="-105.2308184">
  <ele>1595.56</ele>
  <time>2026-08-28T19:11:49Z</time>
  <course>306.5</course>
  <speed>0.05</speed>
  <fix>3d</fix>
</trkpt>
<trkpt lat="40.0729465" lon="-105.2308185">
  <ele>1595.47</ele>
  <time>2026-08-28T19:11:49Z</time>
  <course>285.5</course>
  <speed>0.07</speed>
  <fix>3d</fix>
</trkpt>
<trkpt lat="40.0729465" lon="-105.2308186">
  <ele>1595.57</ele>
  <time>2026-08-28T19:11:49Z</time>
  <course>306.36</course>
  <speed>0.0316227766016838</speed>
  <fix>3d</fix>
</trkpt>
<trkpt lat="40.0729465" lon="-105.2308188">
  <ele>1595.48</ele>
  <time>2026-08-28T19:11:49Z</time>
  <course>291.46</course>
  <speed>0.06</speed>
  <fix>3d</fix>
</trkpt>
<trkpt lat="40.0729465" lon="-105.2308187">
  <ele>1595.57</ele>
  <time>2026-08-28T19:11:49Z</time>
  <course>306.53</course>
  <speed>0.0282842712474619</speed>
  <fix>3d</fix>
</trkpt>
<trkpt lat="40.0729465" lon="-105.2308189">
  <ele>1595.48</ele>
  <time>2026-08-28T19:11:49Z</time>
  <course>293.34</course>
  <speed>0.06</speed>
  <fix>3d</fix>
</trkpt>
<trkpt lat="40.0729465" lon="-105.2308188">
  <ele>1595.57</ele>
  <time>2026-08-28T19:11:49Z</time>
  <course>306.99</course>
  <speed>0.022360679774997897</speed>
  <fix>3d</fix>
</trkpt>
<trkpt lat="40.0729466" lon="-105.230819">
  <ele>1595.48</ele>
  <time>2026-08-28T19:11:49Z</time>
  <course>287.1</course>
  <speed>0.05</speed>
  <fix>3d</fix>
</trkpt>
<trkpt lat="40.0729466" lon="-105.2308189">
  <ele>1595.57</ele>
  <time>2026-08-28T19:11:49Z</time>
  <course>307.42</course>
  <speed>0.022360679774997897</speed>
  <fix>3d</fix>
</trkpt>
<trkpt lat="40.0729466" lon="-105.2308192">
  <ele>1595.48</ele>
  <time>2026-08-28T19:11:49Z</time>
  <course>276.07</course>
  <speed>0.05</speed>
  <fix>3d</fix>
</trkpt>
<trkpt lat="40.0729466" lon="-105.230819">
  <ele>1595.57</ele>
  <time>2026-08-28T19:11:49Z</time>
  <course>307.57</course>
  <speed>0.022360679774997897</speed>
  <fix>3d</fix>
</trkpt>
<trkpt lat="40.0729466" lon="-105.2308193">
  <ele>1595.48</ele>
  <time>2026-08-28T19:11:49Z</time>
  <course>267.97</course>
  <speed>0.05</speed>
  <fix>3d</fix>
</trkpt>
<trkpt lat="40.0729466" lon="-105.2308191">
  <ele>1595.57</ele>
  <time>2026-08-28T19:11:49Z</time>
  <course>307.3</course>
  <speed>0.02</speed>
  <fix>3d</fix>
</trkpt>
<trkpt lat="40.0729466" lon="-105.2308194">
  <ele>1595.48</ele>
  <time>2026-08-28T19:11:49Z</time>
  <course>266.64</course>
  <speed>0.05</speed>
  <fix>3d</fix>
</trkpt>
<trkpt lat="40.0729466" lon="-105.2308193">
  <ele>1595.56</ele>
  <time>2026-08-28T19:11:49Z</time>
  <course>306.82</course>
  <speed>0.02</speed>
  <fix>3d</fix>
</trkpt>
<trkpt lat="40.0729466" lon="-105.2308195">
  <ele>1595.48</ele>
  <time>2026-08-28T19:11:49Z</time>
  <course>272.7</course>
  <speed>0.04</speed>
  <fix>3d</fix>
</trkpt>
<trkpt lat="40.0729466" lon="-105.2308194">
  <ele>1595.56</ele>
  <time>2026-08-28T19:11:49Z</time>
  <course>306.43</course>
  <speed>0.02</speed>
  <fix>3d</fix>
</trkpt>
<trkpt lat="40.0729466" lon="-105.2308196">
  <ele>1595.48</ele>
  <time>2026-08-28T19:11:49Z</time>
  <course>283.9</course>
  <speed>0.04</speed>
  <fix>3d</fix>
</trkpt>
<trkpt lat="40.0729466" lon="-105.2308195">
  <ele>1595.56</ele>
  <time>2026-08-28T19:11:49Z</time>
  <course>306.38</course>
  <speed>0.01</speed>
  <fix>3d</fix>
</trkpt>
<trkpt lat="40.0729466" lon="-105.2308197">
  <ele>1595.48</ele>
  <time>2026-08-28T19:11:49Z</time>
  <course>291.94</course>
  <speed>0.03</speed>
  <fix>3d</fix>
</trkpt>
<trkpt lat="40.0729466" lon="-105.2308196">
  <ele>1595.56</ele>
  <time>2026-08-28T19:11:49Z</time>
  <course>306.7</course>
  <speed>0.01</speed>
  <fix>3d</fix>
</trkpt>
<trkpt lat="40.0729466" lon="-105.2308199">
  <ele>1595.48</ele>
  <time>2026-08-28T19:11:49Z</time>
  <course>288.64</course>
  <speed>0.03</speed>
  <fix>3d</fix>
</trkpt>
<trkpt lat="40.0729466" lon="-105.2308197">
  <ele>1595.57</ele>
  <time>2026-08-28T19:11:49Z</time>
  <course>307.19</course>
  <speed>0.01</speed>
  <fix>3d</fix>
</trkpt>
<trkpt lat="40.0729466" lon="-105.23082">
  <ele>1595.48</ele>
  <time>2026-08-28T19:11:49Z</time>
  <course>276.06</course>
  <speed>0.04</speed>
  <fix>3d</fix>
</trkpt>
<trkpt lat="40.0729466" lon="-105.2308198">
  <ele>1595.57</ele>
  <time>2026-08-28T19:11:49Z</time>
  <course>307.53</course>
  <speed>0.01414213562373095</speed>
  <fix>3d</fix>
</trkpt>
<trkpt lat="40.0729466" lon="-105.2308201">
  <ele>1595.49</ele>
  <time>2026-08-28T19:11:49Z</time>
  <course>264.82</course>
  <speed>0.04</speed>
  <fix>3d</fix>
</trkpt>
<trkpt lat="40.0729466" lon="-105.2308199">
  <ele>1595.57</ele>
  <time>2026-08-28T19:11:49Z</time>
  <course>307.47</course>
  <speed>0.01</speed>
  <fix>3d</fix>
</trkpt>
<trkpt lat="40.0729466" lon="-105.2308202">
  <ele>1595.49</ele>
  <time>2026-08-28T19:11:49Z</time>
  <course>260.52</course>
  <speed>0.05</speed>
  <fix>3d</fix>
</trkpt>
<trkpt lat="40.0729466" lon="-105.23082">
  <ele>1595.57</ele>
  <time>2026-08-28T19:11:49Z</time>
  <course>307.08</course>
  <speed>0.02</speed>
  <fix>3d</fix>
</trkpt>
<trkpt lat="40.0729466" lon="-105.2308202">
  <ele>1595.49</ele>
  <time>2026-08-28T19:11:49Z</time>
  <course>263.78</course>
  <speed>0.04</speed>
  <fix>3d</fix>
</trkpt>
<trkpt lat="40.0729466" lon="-105.2308201">
  <ele>1595.56</ele>
  <time>2026-08-28T19:11:49Z</time>
  <course>307.8</course>
  <speed>0.01</speed>
  <fix>3d</fix>
</trkpt>
<trkpt lat="40.0729466" lon="-105.2308204">
  <ele>1595.49</ele>
  <time>2026-08-28T19:11:49Z</time>
  <course>271.19</course>
  <speed>0.04</speed>
  <fix>3d</fix>
</trkpt>
<trkpt lat="40.0729466" lon="-105.2308202">
  <ele>1595.56</ele>
  <time>2026-08-28T19:11:49Z</time>
  <course>306.95</course>
  <speed>0.01</speed>
  <fix>3d</fix>
</trkpt>
<trkpt lat="40.0729466" lon="-105.2308204">
  <ele>1595.49</ele>
  <time>2026-08-28T19:11:49Z</time>
  <course>276.53</course>
  <speed>0.04</speed>
  <fix>3d</fix>
</trkpt>
<trkpt lat="40.0729466" lon="-105.2308203">
  <ele>1595.56</ele>
  <time>2026-08-28T19:11:49Z</time>
  <course>306.48</course>
  <speed>0.02</speed>
  <fix>3d</fix>
</trkpt>
<trkpt lat="40.0729466" lon="-105.2308205">
  <ele>1595.49</ele>
  <time>2026-08-28T19:11:49Z</time>
  <course>277.9</course>
  <speed>0.04</speed>
  <fix>3d</fix>
</trkpt>
<trkpt lat="40.0729466" lon="-105.2308204">
  <ele>1595.56</ele>
  <time>2026-08-28T19:11:49Z</time>
  <course>306.32</course>
  <speed>0.02</speed>
  <fix>3d</fix>
</trkpt>
<trkpt lat="40.0729466" lon="-105.2308207">
  <ele>1595.49</ele>
  <time>2026-08-28T19:11:49Z</time>
  <course>277.87</course>
  <speed>0.04</speed>
  <fix>3d</fix>
</trkpt>
<trkpt lat="40.0729466" lon="-105.2308206">
  <ele>1595.57</ele>
  <time>2026-08-28T19:11:49Z</time>
  <course>306.29</course>
  <speed>0.02</speed>
  <fix>3d</fix>
</trkpt>
<trkpt lat="40.0729466" lon="-105.2308208">
  <ele>1595.5</ele>
  <time>2026-08-28T19:11:49Z</time>
  <course>278.24</course>
  <speed>0.05</speed>
  <fix>3d</fix>
</trkpt>
<trkpt lat="40.0729466" lon="-105.2308207">
  <ele>1595.57</ele>
  <time>2026-08-28T19:11:49Z</time>
  <course>306.28</course>
  <speed>0.0316227766016838</speed>
  <fix>3d</fix>
</trkpt>
<trkpt lat="40.0729466" lon="-105.2308209">
  <ele>1595.5</ele>
  <time>2026-08-28T19:11:49Z</time>
  <course>278.83</course>
  <speed>0.05</speed>
  <fix>3d</fix>
</trkpt>
<trkpt lat="40.0729466" lon="-105.2308208">
  <ele>1595.57</ele>
  <time>2026-08-28T19:11:49Z</time>
  <course>306.28</course>
  <speed>0.0316227766016838</speed>
  <fix>3d</fix>
</trkpt>
<trkpt lat="40.0729466" lon="-105.230821">
  <ele>1595.5</ele>
  <time>2026-08-28T19:11:49Z</time>
  <course>279.65</course>
  <speed>0.05</speed>
  <fix>3d</fix>
</trkpt>
<trkpt lat="40.0729466" lon="-105.230821">
  <ele>1595.57</ele>
  <time>2026-08-28T19:11:49Z</time>
  <course>306.28</course>
  <speed>0.0316227766016838</speed>
  <fix>3d</fix>
</trkpt>
<trkpt lat="40.0729467" lon="-105.2308212">
  <ele>1595.5</ele>
  <time>2026-08-28T19:11:49Z</time>
  <course>280.42</course>
  <speed>0.06</speed>
  <fix>3d</fix>
</trkpt>
<trkpt lat="40.0729467" lon="-105.2308211">
  <ele>1595.57</ele>
  <time>2026-08-28T19:11:49Z</time>
  <course>306.27</course>
  <speed>0.0316227766016838</speed>
  <fix>3d</fix>
</trkpt>
<trkpt lat="40.0729467" lon="-105.2308213">
  <ele>1595.5</ele>
  <time>2026-08-28T19:11:49Z</time>
  <course>281.2</course>
  <speed>0.06</speed>
  <fix>3d</fix>
</trkpt>
<trkpt lat="40.0729467" lon="-105.2308213">
  <ele>1595.57</ele>
  <time>2026-08-28T19:11:49Z</time>
  <course>306.27</course>
  <speed>0.0412310562561766</speed>
  <fix>3d</fix>
</trkpt>
<trkpt lat="40.0729467" lon="-105.2308214">
  <ele>1595.5</ele>
  <time>2026-08-28T19:11:49Z</time>
  <course>282.1</course>
  <speed>0.06</speed>
  <fix>3d</fix>
</trkpt>
<trkpt lat="40.0729467" lon="-105.2308214">
  <ele>1595.57</ele>
  <time>2026-08-28T19:11:49Z</time>
  <course>306.28</course>
  <speed>0.0412310562561766</speed>
  <fix>3d</fix>
</trkpt>
<trkpt lat="40.0729467" lon="-105.2308216">
  <ele>1595.5</ele>
  <time>2026-08-28T19:11:49Z</time>
  <course>282.81</course>
  <speed>0.06</speed>
  <fix>3d</fix>
</trkpt>
<trkpt lat="40.0729467" lon="-105.2308216">
  <ele>1595.58</ele>
  <time>2026-08-28T19:11:49Z</time>
  <course>306.28</course>
  <speed>0.0412310562561766</speed>
  <fix>3d</fix>
</trkpt>
<trkpt lat="40.0729468" lon="-105.2308218">
  <ele>1595.51</ele>
  <time>2026-08-28T19:11:49Z</time>
  <course>283.21</course>
  <speed>0.07</speed>
  <fix>3d</fix>
</trkpt>
<trkpt lat="40.0729468" lon="-105.2308217">
  <ele>1595.58</ele>
  <time>2026-08-28T19:11:49Z</time>
  <course>306.29</course>
  <speed>0.0412310562561766</speed>
  <fix>3d</fix>
</trkpt>
<trkpt lat="40.0729469" lon="-105.2308219">
  <ele>1595.51</ele>
  <time>2026-08-28T19:11:49Z</time>
  <course>283.58</course>
  <speed>0.07</speed>
  <fix>3d</fix>
</trkpt>
<trkpt lat="40.0729468" lon="-105.2308219">
  <ele>1595.58</ele>
  <time>2026-08-28T19:11:49Z</time>
  <course>306.29</course>
  <speed>0.053851648071345036</speed>
  <fix>3d</fix>
</trkpt>
<trkpt lat="40.0729469" lon="-105.2308221">
  <ele>1595.51</ele>
  <time>2026-08-28T19:11:49Z</time>
  <course>284.23</course>
  <speed>0.07</speed>
  <fix>3d</fix>
</trkpt>
<trkpt lat="40.0729469" lon="-105.2308221">
  <ele>1595.58</ele>
  <time>2026-08-28T19:11:49Z</time>
  <course>306.31</course>
  <speed>0.053851648071345036</speed>
  <fix>3d</fix>
</trkpt>
<trkpt lat="40.0729469" lon="-105.2308223">
  <ele>1595.51</ele>
  <time>2026-08-28T19:11:49Z</time>
  <course>284.89</course>
  <speed>0.07</speed>
  <fix>3d</fix>
</trkpt>
<trkpt lat="40.0729469" lon="-105.2308223">
  <ele>1595.57</ele>
  <time>2026-08-28T19:11:49Z</time>
  <course>306.3</course>
  <speed>0.053851648071345036</speed>
  <fix>3d</fix>
</trkpt>
<trkpt lat="40.072947" lon="-105.2308224">
  <ele>1595.51</ele>
  <time>2026-08-28T19:11:49Z</time>
  <course>285.54</course>
  <speed>0.08</speed>
  <fix>3d</fix>
</trkpt>
<trkpt lat="40.072947" lon="-105.2308225">
  <ele>1595.57</ele>
  <time>2026-08-28T19:11:49Z</time>
  <course>305.44</course>
  <speed>0.05</speed>
  <fix>3d</fix>
</trkpt>
<trkpt lat="40.072947" lon="-105.2308227">
  <ele>1595.51</ele>
  <time>2026-08-28T19:11:49Z</time>
  <course>288.65</course>
  <speed>0.08</speed>
  <fix>3d</fix>
</trkpt>
<trkpt lat="40.072947" lon="-105.2308226">
  <ele>1595.57</ele>
  <time>2026-08-28T19:11:49Z</time>
  <course>306.5</course>
  <speed>0.05</speed>
  <fix>3d</fix>
</trkpt>
<trkpt lat="40.0729471" lon="-105.2308228">
  <ele>1595.51</ele>
  <time>2026-08-28T19:11:49Z</time>
  <course>284.75</course>
  <speed>0.08</speed>
  <fix>3d</fix>
</trkpt>
<trkpt lat="40.072947" lon="-105.2308228">
  <ele>1595.57</ele>
  <time>2026-08-28T19:11:49Z</time>
  <course>306.87</course>
  <speed>0.0412310562561766</speed>
  <fix>3d</fix>
</trkpt>
<trkpt lat="40.0729471" lon="-105.2308231">
  <ele>1595.51</ele>
  <time>2026-08-28T19:11:49Z</time>
  <course>275.82</course>
  <speed>0.08</speed>
  <fix>3d</fix>
</trkpt>
<trkpt lat="40.0729471" lon="-105.230823">
  <ele>1595.58</ele>
  <time>2026-08-28T19:11:49Z</time>
  <course>306.55</course>
  <speed>0.04</speed>
  <fix>3d</fix>
</trkpt>
<trkpt lat="40.0729471" lon="-105.2308232">
  <ele>1595.51</ele>
  <time>2026-08-28T19:11:49Z</time>
  <course>274.08</course>
  <speed>0.07</speed>
  <fix>3d</fix>
</trkpt>
<trkpt lat="40.0729471" lon="-105.2308231">
  <ele>1595.58</ele>
  <time>2026-08-28T19:11:49Z</time>
  <course>305.98</course>
  <speed>0.03</speed>
  <fix>3d</fix>
</trkpt>
<trkpt lat="40.0729472" lon="-105.2308233">
  <ele>1595.51</ele>
  <time>2026-08-28T19:11:49Z</time>
  <course>280.47</course>
  <speed>0.06</speed>
  <fix>3d</fix>
</trkpt>
<trkpt lat="40.0729471" lon="-105.2308233">
  <ele>1595.58</ele>
  <time>2026-08-28T19:11:49Z</time>
  <course>305.68</course>
  <speed>0.02</speed>
  <fix>3d</fix>
</trkpt>
<trkpt lat="40.0729472" lon="-105.2308235">
  <ele>1595.5</ele>
  <time>2026-08-28T19:11:49Z</time>
  <course>291.71</course>
  <speed>0.05</speed>
  <fix>3d</fix>
</trkpt>
<trkpt lat="40.0729471" lon="-105.2308234">
  <ele>1595.58</ele>
  <time>2026-08-28T19:11:49Z</time>
  <course>305.91</course>
  <speed>0.022360679774997897</speed>
  <fix>3d</fix>
</trkpt>
<trkpt lat="40.0729472" lon="-105.2308236">
  <ele>1595.5</ele>
  <time>2026-08-28T19:11:49Z</time>
  <course>296.35</course>
  <speed>0.04</speed>
  <fix>3d</fix>
</trkpt>
<trkpt lat="40.0729472" lon="-105.2308235">
  <ele>1595.58</ele>
  <time>2026-08-28T19:11:49Z</time>
  <course>306.46</course>
  <speed>0.022360679774997897</speed>
  <fix>3d</fix>
</trkpt>
<trkpt lat="40.0729472" lon="-105.2308237">
  <ele>1595.5</ele>
  <time>2026-08-28T19:11:49Z</time>
  <course>287.27</course>
  <speed>0.04</speed>
  <fix>3d</fix>
</trkpt>
<trkpt lat="40.0729472" lon="-105.2308236">
  <ele>1595.58</ele>
  <time>2026-08-28T19:11:49Z</time>
  <course>306.91</course>
  <speed>0.01414213562373095</speed>
  <fix>3d</fix>
</trkpt>
<trkpt lat="40.0729472" lon="-105.2308238">
  <ele>1595.5</ele>
  <time>2026-08-28T19:11:49Z</time>
  <course>272.81</course>
  <speed>0.04</speed>
  <fix>3d</fix>
</trkpt>
<trkpt lat="40.0729472" lon="-105.2308237">
  <ele>1595.58</ele>
  <time>2026-08-28T19:11:49Z</time>
  <course>306.87</course>
  <speed>0.02</speed>
  <fix>3d</fix>
</trkpt>
<trkpt lat="40.0729472" lon="-105.2308239">
  <ele>1595.5</ele>
  <time>2026-08-28T19:11:49Z</time>
  <course>265.47</course>
  <speed>0.05</speed>
  <fix>3d</fix>
</trkpt>
<trkpt lat="40.0729472" lon="-105.2308238">
  <ele>1595.58</ele>
  <time>2026-08-28T19:11:49Z</time>
  <course>306.38</course>
  <speed>0.02</speed>
  <fix>3d</fix>
</trkpt>
<trkpt lat="40.0729472" lon="-105.230824">
  <ele>1595.5</ele>
  <time>2026-08-28T19:11:49Z</time>
  <course>268.43</course>
  <speed>0.04</speed>
  <fix>3d</fix>
</trkpt>
<trkpt lat="40.0729472" lon="-105.2308239">
  <ele>1595.58</ele>
  <time>2026-08-28T19:11:49Z</time>
  <course>305.85</course>
  <speed>0.02</speed>
  <fix>3d</fix>
</trkpt>
<trkpt lat="40.0729472" lon="-105.2308241">
  <ele>1595.49</ele>
  <time>2026-08-28T19:11:49Z</time>
  <course>280.72</course>
  <speed>0.04</speed>
  <fix>3d</fix>
</trkpt>
<trkpt lat="40.0729472" lon="-105.230824">
  <ele>1595.58</ele>
  <time>2026-08-28T19:11:49Z</time>
  <course>305.7</course>
  <speed>0.01</speed>
  <fix>3d</fix>
</trkpt>
<trkpt lat="40.0729472" lon="-105.2308242">
  <ele>1595.49</ele>
  <time>2026-08-28T19:11:49Z</time>
  <course>293.46</course>
  <speed>0.03</speed>
  <fix>3d</fix>
</trkpt>
<trkpt lat="40.0729472" lon="-105.2308241">
  <ele>1595.57</ele>
  <time>2026-08-28T19:11:49Z</time>
  <course>306.05</course>
  <speed>0.01</speed>
  <fix>3d</fix>
</trkpt>
<trkpt lat="40.0729472" lon="-105.2308243">
  <ele>1595.49</ele>
  <time>2026-08-28T19:11:49Z</time>
  <course>292.41</course>
  <speed>0.03</speed>
  <fix>3d</fix>
</trkpt>
<trkpt lat="40.0729472" lon="-105.2308242">
  <ele>1595.57</ele>
  <time>2026-08-28T19:11:49Z</time>
  <course>306.62</course>
  <speed>0.01</speed>
  <fix>3d</fix>
</trkpt>
<trkpt lat="40.0729472" lon="-105.2308244">
  <ele>1595.49</ele>
  <time>2026-08-28T19:11:49Z</time>
  <course>277.68</course>
  <speed>0.03</speed>
  <fix>3d</fix>
</trkpt>
<trkpt lat="40.0729472" lon="-105.2308242">
  <ele>1595.57</ele>
  <time>2026-08-28T19:11:49Z</time>
  <course>306.94</course>
  <speed>0.01</speed>
  <fix>3d</fix>
</trkpt>
<trkpt lat="40.0729472" lon="-105.2308245">
  <ele>1595.49</ele>
  <time>2026-08-28T19:11:49Z</time>
  <course>264.6</course>
  <speed>0.04</speed>
  <fix>3d</fix>
</trkpt>
<trkpt lat="40.0729472" lon="-105.2308243">
  <ele>1595.57</ele>
  <time>2026-08-28T19:11:49Z</time>
  <course>306.74</course>
  <speed>0.02</speed>
  <fix>3d</fix>
</trkpt>
<trkpt lat="40.0729472" lon="-105.2308246">
  <ele>1595.49</ele>
  <time>2026-08-28T19:11:49Z</time>
  <course>261.53</course>
  <speed>0.04</speed>
  <fix>3d</fix>
</trkpt>
<trkpt lat="40.0729472" lon="-105.2308244">
  <ele>1595.57</ele>
  <time>2026-08-28T19:11:49Z</time>
  <course>307.44</course>
  <speed>0.01</speed>
  <fix>3d</fix>
</trkpt>
<trkpt lat="40.0729472" lon="-105.2308247">
  <ele>1595.48</ele>
  <time>2026-08-28T19:11:49Z</time>
  <course>269.54</course>
  <speed>0.04</speed>
  <fix>3d</fix>
</trkpt>
<trkpt lat="40.0729472" lon="-105.2308245">
  <ele>1595.57</ele>
  <time>2026-08-28T19:11:49Z</time>
  <course>306.48</course>
  <speed>0.01414213562373095</speed>
  <fix>3d</fix>
</trkpt>
<trkpt lat="40.0729472" lon="-105.2308248">
  <ele>1595.48</ele>
  <time>2026-08-28T19:11:49Z</time>
  <course>279.57</course>
  <speed>0.04</speed>
  <fix>3d</fix>
</trkpt>
<trkpt lat="40.0729472" lon="-105.2308247">
  <ele>1595.56</ele>
  <time>2026-08-28T19:11:49Z</time>
  <course>305.91</course>
  <speed>0.02</speed>
  <fix>3d</fix>
</trkpt>
<trkpt lat="40.0729472" lon="-105.2308249">
  <ele>1595.48</ele>
  <time>2026-08-28T19:11:49Z</time>
  <course>280.88</course>
  <speed>0.04</speed>
  <fix>3d</fix>
</trkpt>
<trkpt lat="40.0729472" lon="-105.2308248">
  <ele>1595.56</ele>
  <time>2026-08-28T19:11:49Z</time>
  <course>305.7</course>
  <speed>0.022360679774997897</speed>
  <fix>3d</fix>
</trkpt>
<trkpt lat="40.0729473" lon="-105.230825">
  <ele>1595.48</ele>
  <time>2026-08-28T19:11:49Z</time>
  <course>280.34</course>
  <speed>0.04</speed>
  <fix>3d</fix>
</trkpt>
<trkpt lat="40.0729472" lon="-105.2308249">
  <ele>1595.56</ele>
  <time>2026-08-28T19:11:49Z</time>
  <course>305.6</course>
  <speed>0.022360679774997897</speed>
  <fix>3d</fix>
</trkpt>
<trkpt lat="40.0729473" lon="-105.2308251">
  <ele>1595.48</ele>
  <time>2026-08-28T19:11:49Z</time>
  <course>280.82</course>
  <speed>0.05</speed>
  <fix>3d</fix>
</trkpt>
<trkpt lat="40.0729473" lon="-105.230825">
  <ele>1595.56</ele>
  <time>2026-08-28T19:11:49Z</time>
  <course>305.56</course>
  <speed>0.022360679774997897</speed>
  <fix>3d</fix>
</trkpt>
<trkpt lat="40.0729473" lon="-105.2308252">
  <ele>1595.48</ele>
  <time>2026-08-28T19:11:49Z</time>
  <course>281.76</course>
  <speed>0.05</speed>
  <fix>3d</fix>
</trkpt>
<trkpt lat="40.0729473" lon="-105.2308251">
  <ele>1595.57</ele>
  <time>2026-08-28T19:11:49Z</time>
  <course>305.55</course>
  <speed>0.0316227766016838</speed>
  <fix>3d</fix>
</trkpt>
<trkpt lat="40.0729473" lon="-105.2308253">
  <ele>1595.49</ele>
  <time>2026-08-28T19:11:49Z</time>
  <course>282.8</course>
  <speed>0.05</speed>
  <fix>3d</fix>
</trkpt>
<trkpt lat="40.0729473" lon="-105.2308253">
  <ele>1595.57</ele>
  <time>2026-08-28T19:11:49Z</time>
  <course>305.56</course>
  <speed>0.0316227766016838</speed>
  <fix>3d</fix>
</trkpt>
<trkpt lat="40.0729473" lon="-105.2308255">
  <ele>1595.49</ele>
  <time>2026-08-28T19:11:49Z</time>
  <course>283.47</course>
  <speed>0.05</speed>
  <fix>3d</fix>
</trkpt>
<trkpt lat="40.0729473" lon="-105.2308254">
  <ele>1595.57</ele>
  <time>2026-08-28T19:11:49Z</time>
  <course>305.56</course>
  <speed>0.0316227766016838</speed>
  <fix>3d</fix>
</trkpt>
<trkpt lat="40.0729474" lon="-105.2308256">
  <ele>1595.49</ele>
  <time>2026-08-28T19:11:49Z</time>
  <course>283.79</course>
  <speed>0.06</speed>
  <fix>3d</fix>
</trkpt>
<trkpt lat="40.0729474" lon="-105.2308256">
  <ele>1595.57</ele>
  <time>2026-08-28T19:11:49Z</time>
  <course>305.56</course>
  <speed>0.0316227766016838</speed>
  <fix>3d</fix>
</trkpt>
<trkpt lat="40.0729475" lon="-105.2308257">
  <ele>1595.49</ele>
  <time>2026-08-28T19:11:49Z</time>
  <course>284.13</course>
  <speed>0.06</speed>
  <fix>3d</fix>
</trkpt>
<trkpt lat="40.0729474" lon="-105.2308257">
  <ele>1595.57</ele>
  <time>2026-08-28T19:11:49Z</time>
  <course>305.56</course>
  <speed>0.0316227766016838</speed>
  <fix>3d</fix>
</trkpt>
<trkpt lat="40.0729475" lon="-105.2308259">
  <ele>1595.49</ele>
  <time>2026-08-28T19:11:49Z</time>
  <course>284.45</course>
  <speed>0.06</speed>
  <fix>3d</fix>
</trkpt>
<trkpt lat="40.0729474" lon="-105.2308259">
  <ele>1595.57</ele>
  <time>2026-08-28T19:11:49Z</time>
  <course>305.56</course>
  <speed>0.044721359549995794</speed>
  <fix>3d</fix>
</trkpt>
<trkpt lat="40.0729475" lon="-105.2308261">
  <ele>1595.49</ele>
  <time>2026-08-28T19:11:49Z</time>
  <course>284.77</course>
  <speed>0.06</speed>
  <fix>3d</fix>
</trkpt>
<trkpt lat="40.0729475" lon="-105.230826">
  <ele>1595.57</ele>
  <time>2026-08-28T19:11:49Z</time>
  <course>305.57</course>
  <speed>0.044721359549995794</speed>
  <fix>3d</fix>
</trkpt>
<trkpt lat="40.0729476" lon="-105.2308262">
  <ele>1595.49</ele>
  <time>2026-08-28T19:11:49Z</time>
  <course>285.07</course>
  <speed>0.07</speed>
  <fix>3d</fix>
</trkpt>
<trkpt lat="40.0729475" lon="-105.2308262">
  <ele>1595.57</ele>
  <time>2026-08-28T19:11:49Z</time>
  <course>305.57</course>
  <speed>0.044721359549995794</speed>
  <fix>3d</fix>
</trkpt>
<trkpt lat="40.0729476" lon="-105.2308264">
  <ele>1595.49</ele>
  <time>2026-08-28T19:11:49Z</time>
  <course>285.33</course>
  <speed>0.07</speed>
  <fix>3d</fix>
</trkpt>
<trkpt lat="40.0729476" lon="-105.2308263">
  <ele>1595.57</ele>
  <time>2026-08-28T19:11:49Z</time>
  <course>305.57</course>
  <speed>0.044721359549995794</speed>
  <fix>3d</fix>
</trkpt>
<trkpt lat="40.0729476" lon="-105.2308266">
  <ele>1595.49</ele>
  <time>2026-08-28T19:11:49Z</time>
  <course>285.68</course>
  <speed>0.07</speed>
  <fix>3d</fix>
</trkpt>
<trkpt lat="40.0729476" lon="-105.2308265">
  <ele>1595.57</ele>
  <time>2026-08-28T19:11:49Z</time>
  <course>305.58</course>
  <speed>0.053851648071345036</speed>
  <fix>3d</fix>
</trkpt>
<trkpt lat="40.0729477" lon="-105.2308267">
  <ele>1595.49</ele>
  <time>2026-08-28T19:11:49Z</time>
  <course>286.05</course>
  <speed>0.07</speed>
  <fix>3d</fix>
</trkpt>
<trkpt lat="40.0729477" lon="-105.2308267">
  <ele>1595.57</ele>
  <time>2026-08-28T19:11:49Z</time>
  <course>304.55</course>
  <speed>0.05</speed>
  <fix>3d</fix>
</trkpt>
<trkpt lat="40.0729477" lon="-105.230827">
  <ele>1595.49</ele>
  <time>2026-08-28T19:11:49Z</time>
  <course>289.73</course>
  <speed>0.08</speed>
  <fix>3d</fix>
</trkpt>
<trkpt lat="40.0729477" lon="-105.2308269">
  <ele>1595.57</ele>
  <time>2026-08-28T19:11:49Z</time>
  <course>305.54</course>
  <speed>0.05</speed>
  <fix>3d</fix>
</trkpt>
<trkpt lat="40.0729477" lon="-105.2308271">
  <ele>1595.49</ele>
  <time>2026-08-28T19:11:49Z</time>
  <course>287.6</course>
  <speed>0.08</speed>
  <fix>3d</fix>
</trkpt>
<trkpt lat="40.0729478" lon="-105.2308271">
  <ele>1595.57</ele>
  <time>2026-08-28T19:11:49Z</time>
  <course>306.09</course>
  <speed>0.03605551275463989</speed>
  <fix>3d</fix>
</trkpt>
<trkpt lat="40.0729478" lon="-105.2308272">
  <ele>1595.49</ele>
  <time>2026-08-28T19:11:49Z</time>
  <course>277.89</course>
  <speed>0.08</speed>
  <fix>3d</fix>
</trkpt>
<trkpt lat="40.0729478" lon="-105.2308272">
  <ele>1595.57</ele>
  <time>2026-08-28T19:11:49Z</time>
  <course>306.15</course>
  <speed>0.0316227766016838</speed>
  <fix>3d</fix>
</trkpt>
<trkpt lat="40.0729478" lon="-105.2308275">
  <ele>1595.49</ele>
  <time>2026-08-28T19:11:49Z</time>
  <course>271.68</course>
  <speed>0.07</speed>
  <fix>3d</fix>
</trkpt>
<trkpt lat="40.0729478" lon="-105.2308274">
  <ele>1595.57</ele>
  <time>2026-08-28T19:11:49Z</time>
  <course>305.83</course>
  <speed>0.03</speed>
  <fix>3d</fix>
</trkpt>
<trkpt lat="40.0729478" lon="-105.2308276">
  <ele>1595.49</ele>
  <time>2026-08-28T19:11:49Z</time>
  <course>270.94</course>
  <speed>0.06</speed>
  <fix>3d</fix>
</trkpt>
<trkpt lat="40.0729478" lon="-105.2308275">
  <ele>1595.57</ele>
  <time>2026-08-28T19:11:49Z</time>
  <course>305.37</course>
  <speed>0.03</speed>
  <fix>3d</fix>
</trkpt>
<trkpt lat="40.0729478" lon="-105.2308277">
  <ele>1595.49</ele>
  <time>2026-08-28T19:11:49Z</time>
  <course>276.73</course>
  <speed>0.05</speed>
  <fix>3d</fix>
</trkpt>
<trkpt lat="40.0729478" lon="-105.2308276">
  <ele>1595.57</ele>
  <time>2026-08-28T19:11:49Z</time>
  <course>305.04</course>
  <speed>0.02</speed>
  <fix>3d</fix>
</trkpt>
<trkpt lat="40.0729478" lon="-105.2308279">
  <ele>1595.49</ele>
  <time>2026-08-28T19:11:49Z</time>
  <course>286.88</course>
  <speed>0.04</speed>
  <fix>3d</fix>
</trkpt>
<trkpt lat="40.0729478" lon="-105.2308278">
  <ele>1595.57</ele>
  <time>2026-08-28T19:11:49Z</time>
  <course>305.01</course>
  <speed>0.022360679774997897</speed>
  <fix>3d</fix>
</trkpt>
<trkpt lat="40.0729478" lon="-105.230828">
  <ele>1595.49</ele>
  <time>2026-08-28T19:11:49Z</time>
  <course>294.37</course>
  <speed>0.04</speed>
  <fix>3d</fix>
</trkpt>
<trkpt lat="40.0729478" lon="-105.2308279">
  <ele>1595.57</ele>
  <time>2026-08-28T19:11:49Z</time>
  <course>305.31</course>
  <speed>0.01414213562373095</speed>
  <fix>3d</fix>
</trkpt>
<trkpt lat="40.0729478" lon="-105.2308281">
  <ele>1595.49</ele>
  <time>2026-08-28T19:11:49Z</time>
  <course>292.42</course>
  <speed>0.04</speed>
  <fix>3d</fix>
</trkpt>
<trkpt lat="40.0729478" lon="-105.2308279">
  <ele>1595.56</ele>
  <time>2026-08-28T19:11:49Z</time>
  <course>305.75</course>
  <speed>0.02</speed>
  <fix>3d</fix>
</trkpt>
<trkpt lat="40.0729478" lon="-105.2308282">
  <ele>1595.49</ele>
  <time>2026-08-28T19:11:49Z</time>
  <course>281.49</course>
  <speed>0.04</speed>
  <fix>3d</fix>
</trkpt>
<trkpt lat="40.0729479" lon="-105.230828">
  <ele>1595.56</ele>
  <time>2026-08-28T19:11:49Z</time>
  <course>306.09</course>
  <speed>0.01414213562373095</speed>
  <fix>3d</fix>
</trkpt>
<trkpt lat="40.0729478" lon="-105.2308283">
  <ele>1595.49</ele>
  <time>2026-08-28T19:11:49Z</time>
  <course>269.34</course>
  <speed>0.04</speed>
  <fix>3d</fix>
</trkpt>
<trkpt lat="40.0729479" lon="-105.2308281">
  <ele>1595.56</ele>
  <time>2026-08-28T19:11:49Z</time>
  <course>306.14</course>
  <speed>0.01</speed>
  <fix>3d</fix>
</trkpt>
<trkpt lat="40.0729478" lon="-105.2308284">
  <ele>1595.49</ele>
  <time>2026-08-28T19:11:49Z</time>
  <course>262.76</course>
  <speed>0.05</speed>
  <fix>3d</fix>
</trkpt>
<trkpt lat="40.0729479" lon="-105.2308282">
  <ele>1595.56</ele>
  <time>2026-08-28T19:11:49Z</time>
  <course>305.83</course>
  <speed>0.02</speed>
  <fix>3d</fix>
</trkpt>
<trkpt lat="40.0729479" lon="-105.2308285">
  <ele>1595.49</ele>
  <time>2026-08-28T19:11:49Z</time>
  <course>263.43</course>
  <speed>0.04</speed>
  <fix>3d</fix>
</trkpt>
<trkpt lat="40.0729478" lon="-105.2308284">
  <ele>1595.57</ele>
  <time>2026-08-28T19:11:49Z</time>
  <course>305.38</course>
  <speed>0.02</speed>
  <fix>3d</fix>
</trkpt>
<trkpt lat="40.0729479" lon="-105.2308286">
  <ele>1595.49</ele>
  <time>2026-08-28T19:11:49Z</time>
  <course>271.07</course>
  <speed>0.04</speed>
  <fix>3d</fix>
</trkpt>
<trkpt lat="40.0729478" lon="-105.2308285">
  <ele>1595.56</ele>
  <time>2026-08-28T19:11:49Z</time>
  <course>305.03</course>
  <speed>0.02</speed>
  <fix>3d</fix>
</trkpt>
<trkpt lat="40.0729479" lon="-105.2308287">
  <ele>1595.49</ele>
  <time>2026-08-28T19:11:49Z</time>
  <course>283.18</course>
  <speed>0.04</speed>
  <fix>3d</fix>
</trkpt>
<trkpt lat="40.0729478" lon="-105.2308286">
  <ele>1595.56</ele>
  <time>2026-08-28T19:11:49Z</time>
  <course>305.0</course>
  <speed>0.01</speed>
  <fix>3d</fix>
</trkpt>
<trkpt lat="40.0729479" lon="-105.2308288">
  <ele>1595.49</ele>
  <time>2026-08-28T19:11:49Z</time>
  <course>291.83</course>
  <speed>0.03</speed>
  <fix>3d</fix>
</trkpt>
<trkpt lat="40.0729478" lon="-105.2308287">
  <ele>1595.56</ele>
  <time>2026-08-28T19:11:49Z</time>
  <course>306.74</course>
  <speed>0.01</speed>
  <fix>3d</fix>
</trkpt>
<trkpt lat="40.0729479" lon="-105.2308289">
  <ele>1595.5</ele>
  <time>2026-08-28T19:11:49Z</time>
  <course>279.66</course>
  <speed>0.04</speed>
  <fix>3d</fix>
</trkpt>
<trkpt lat="40.0729479" lon="-105.2308288">
  <ele>1595.57</ele>
  <time>2026-08-28T19:11:49Z</time>
  <course>306.02</course>
  <speed>0.01414213562373095</speed>
  <fix>3d</fix>
</trkpt>
<trkpt lat="40.0729479" lon="-105.230829">
  <ele>1595.5</ele>
  <time>2026-08-28T19:11:49Z</time>
  <course>273.74</course>
  <speed>0.04</speed>
  <fix>3d</fix>
</trkpt>
<trkpt lat="40.0729479" lon="-105.2308289">
  <ele>1595.57</ele>
  <time>2026-08-28T19:11:49Z</time>
  <course>305.34</course>
  <speed>0.022360679774997897</speed>
  <fix>3d</fix>
</trkpt>
<trkpt lat="40.0729479" lon="-105.2308291">
  <ele>1595.5</ele>
  <time>2026-08-28T19:11:49Z</time>
  <course>279.7</course>
  <speed>0.04</speed>
  <fix>3d</fix>
</trkpt>
<trkpt lat="40.0729479" lon="-105.230829">
  <ele>1595.57</ele>
  <time>2026-08-28T19:11:49Z</time>
  <course>305.05</course>
  <speed>0.022360679774997897</speed>
  <fix>3d</fix>
</trkpt>
<trkpt lat="40.0729479" lon="-105.2308292">
  <ele>1595.5</ele>
  <time>2026-08-28T19:11:49Z</time>
  <course>279.72</course>
  <speed>0.04</speed>
  <fix>3d</fix>
</trkpt>
<trkpt lat="40.0729479" lon="-105.2308291">
  <ele>1595.57</ele>
  <time>2026-08-28T19:11:49Z</time>
  <course>304.93</course>
  <speed>0.022360679774997897</speed>
  <fix>3d</fix>
</trkpt>
<trkpt lat="40.0729479" lon="-105.2308294">
  <ele>1595.5</ele>
  <time>2026-08-28T19:11:49Z</time>
  <course>280.13</course>
  <speed>0.05</speed>
  <fix>3d</fix>
</trkpt>
<trkpt lat="40.0729479" lon="-105.2308292">
  <ele>1595.57</ele>
  <time>2026-08-28T19:11:49Z</time>
  <course>304.88</course>
  <speed>0.022360679774997897</speed>
  <fix>3d</fix>
</trkpt>
<trkpt lat="40.0729479" lon="-105.2308295">
  <ele>1595.5</ele>
  <time>2026-08-28T19:11:49Z</time>
  <course>280.63</course>
  <speed>0.05</speed>
  <fix>3d</fix>
</trkpt>
<trkpt lat="40.072948" lon="-105.2308293">
  <ele>1595.57</ele>
  <time>2026-08-28T19:11:49Z</time>
  <course>304.86</course>
  <speed>0.0316227766016838</speed>
  <fix>3d</fix>
</trkpt>
<trkpt lat="40.072948" lon="-105.2308296">
  <ele>1595.5</ele>
  <time>2026-08-28T19:11:49Z</time>
  <course>281.15</course>
  <speed>0.05</speed>
  <fix>3d</fix>
</trkpt>
<trkpt lat="40.072948" lon="-105.2308295">
  <ele>1595.57</ele>
  <time>2026-08-28T19:11:49Z</time>
  <course>304.86</course>
  <speed>0.0316227766016838</speed>
  <fix>3d</fix>
</trkpt>
<trkpt lat="40.0729481" lon="-105.2308297">
  <ele>1595.5</ele>
  <time>2026-08-28T19:11:49Z</time>
  <course>281.77</course>
  <speed>0.05</speed>
  <fix>3d</fix>
</trkpt>
<trkpt lat="40.072948" lon="-105.2308296">
  <ele>1595.57</ele>
  <time>2026-08-28T19:11:50Z</time>
  <course>304.86</course>
  <speed>0.0316227766016838</speed>
  <fix>3d</fix>
</trkpt>
<trkpt lat="40.0729481" lon="-105.2308299">
  <ele>1595.5</ele>
  <time>2026-08-28T19:11:50Z</time>
  <course>282.36</course>
  <speed>0.06</speed>
  <fix>3d</fix>
</trkpt>
<trkpt lat="40.072948" lon="-105.2308298">
  <ele>1595.57</ele>
  <time>2026-08-28T19:11:50Z</time>
  <course>304.86</course>
  <speed>0.03605551275463989</speed>
  <fix>3d</fix>
</trkpt>
<trkpt lat="40.0729481" lon="-105.23083">
  <ele>1595.5</ele>
  <time>2026-08-28T19:11:50Z</time>
  <course>282.91</course>
  <speed>0.06</speed>
  <fix>3d</fix>
</trkpt>
<trkpt lat="40.0729481" lon="-105.2308299">
  <ele>1595.57</ele>
  <time>2026-08-28T19:11:50Z</time>
  <course>304.86</course>
  <speed>0.03605551275463989</speed>
  <fix>3d</fix>
</trkpt>
<trkpt lat="40.0729481" lon="-105.2308301">
  <ele>1595.51</ele>
  <time>2026-08-28T19:11:50Z</time>
  <course>283.42</course>
  <speed>0.06</speed>
  <fix>3d</fix>
</trkpt>
<trkpt lat="40.0729481" lon="-105.2308301">
  <ele>1595.58</ele>
  <time>2026-08-28T19:11:50Z</time>
  <course>304.87</course>
  <speed>0.044721359549995794</speed>
  <fix>3d</fix>
</trkpt>
<trkpt lat="40.0729482" lon="-105.2308303">
  <ele>1595.51</ele>
  <time>2026-08-28T19:11:50Z</time>
  <course>283.81</course>
  <speed>0.06</speed>
  <fix>3d</fix>
</trkpt>
<trkpt lat="40.0729482" lon="-105.2308303">
  <ele>1595.58</ele>
  <time>2026-08-28T19:11:50Z</time>
  <course>304.9</course>
  <speed>0.044721359549995794</speed>
  <fix>3d</fix>
</trkpt>
<trkpt lat="40.0729482" lon="-105.2308305">
  <ele>1595.51</ele>
  <time>2026-08-28T19:11:50Z</time>
  <course>284.08</course>
  <speed>0.07</speed>
  <fix>3d</fix>
</trkpt>
<trkpt lat="40.0729482" lon="-105.2308304">
  <ele>1595.58</ele>
  <time>2026-08-28T19:11:50Z</time>
  <course>304.89</course>
  <speed>0.044721359549995794</speed>
  <fix>3d</fix>
</trkpt>
<trkpt lat="40.0729482" lon="-105.2308306">
  <ele>1595.5</ele>
  <time>2026-08-28T19:11:50Z</time>
  <course>284.43</course>
  <speed>0.07</speed>
  <fix>3d</fix>
</trkpt>
<trkpt lat="40.0729482" lon="-105.2308306">
  <ele>1595.58</ele>
  <time>2026-08-28T19:11:50Z</time>
  <course>304.9</course>
  <speed>0.053851648071345036</speed>
  <fix>3d</fix>
</trkpt>
<trkpt lat="40.0729483" lon="-105.2308309">
  <ele>1595.5</ele>
  <time>2026-08-28T19:11:50Z</time>
  <course>284.95</course>
  <speed>0.07</speed>
  <fix>3d</fix>
</trkpt>
<trkpt lat="40.0729483" lon="-105.2308308">
  <ele>1595.58</ele>
  <time>2026-08-28T19:11:50Z</time>
  <course>304.91</course>
  <speed>0.053851648071345036</speed>
  <fix>3d</fix>
</trkpt>
<trkpt lat="40.0729483" lon="-105.230831">
  <ele>1595.5</ele>
  <time>2026-08-28T19:11:50Z</time>
  <course>285.36</course>
  <speed>0.08</speed>
  <fix>3d</fix>
</trkpt>
<trkpt lat="40.0729483" lon="-105.230831">
  <ele>1595.57</ele>
  <time>2026-08-28T19:11:50Z</time>
  <course>304.84</course>
  <speed>0.05830951894845301</speed>
  <fix>3d</fix>
</trkpt>
<trkpt lat="40.0729483" lon="-105.2308311">
  <ele>1595.5</ele>
  <time>2026-08-28T19:11:50Z</time>
  <course>285.61</course>
  <speed>0.08</speed>
  <fix>3d</fix>
</trkpt>
<trkpt lat="40.0729484" lon="-105.2308312">
  <ele>1595.57</ele>
  <time>2026-08-28T19:11:50Z</time>
  <course>304.87</course>
  <speed>0.06082762530298219</speed>
  <fix>3d</fix>
</trkpt>
<trkpt lat="40.0729484" lon="-105.2308314">
  <ele>1595.5</ele>
  <time>2026-08-28T19:11:50Z</time>
  <course>281.66</course>
  <speed>0.08</speed>
  <fix>3d</fix>
</trkpt>
<trkpt lat="40.0729484" lon="-105.2308314">
  <ele>1595.56</ele>
  <time>2026-08-28T19:11:50Z</time>
  <course>304.87</course>
  <speed>0.05</speed>
  <fix>3d</fix>
</trkpt>
<trkpt lat="40.0729484" lon="-105.2308315">
  <ele>1595.5</ele>
  <time>2026-08-28T19:11:50Z</time>
  <course>279.15</course>
  <speed>0.08</speed>
  <fix>3d</fix>
</trkpt>
<trkpt lat="40.0729484" lon="-105.2308315">
  <ele>1595.56</ele>
  <time>2026-08-28T19:11:50Z</time>
  <course>304.57</course>
  <speed>0.04</speed>
  <fix>3d</fix>
</trkpt>
<trkpt lat="40.0729484" lon="-105.2308318">
  <ele>1595.5</ele>
  <time>2026-08-28T19:11:50Z</time>
  <course>283.01</course>
  <speed>0.07</speed>
  <fix>3d</fix>
</trkpt>
<trkpt lat="40.0729484" lon="-105.2308317">
  <ele>1595.56</ele>
  <time>2026-08-28T19:11:50Z</time>
  <course>304.34</course>
  <speed>0.03</speed>
  <fix>3d</fix>
</trkpt>
<trkpt lat="40.0729484" lon="-105.2308319">
  <ele>1595.5</ele>
  <time>2026-08-28T19:11:50Z</time>
  <course>288.48</course>
  <speed>0.06</speed>
  <fix>3d</fix>
</trkpt>
<trkpt lat="40.0729484" lon="-105.2308318">
  <ele>1595.57</ele>
  <time>2026-08-28T19:11:50Z</time>
  <course>304.3</course>
  <speed>0.022360679774997897</speed>
  <fix>3d</fix>
</trkpt>
<trkpt lat="40.0729484" lon="-105.230832">
  <ele>1595.5</ele>
  <time>2026-08-28T19:11:50Z</time>
  <course>293.08</course>
  <speed>0.05</speed>
  <fix>3d</fix>
</trkpt>
<trkpt lat="40.0729484" lon="-105.2308319">
  <ele>1595.57</ele>
  <time>2026-08-28T19:11:50Z</time>
  <course>304.47</course>
  <speed>0.01414213562373095</speed>
  <fix>3d</fix>
</trkpt>
<trkpt lat="40.0729484" lon="-105.2308322">
  <ele>1595.5</ele>
  <time>2026-08-28T19:11:50Z</time>
  <course>293.17</course>
  <speed>0.04</speed>
  <fix>3d</fix>
</trkpt>
<trkpt lat="40.0729485" lon="-105.230832">
  <ele>1595.57</ele>
  <time>2026-08-28T19:11:50Z</time>
  <course>304.78</course>
  <speed>0.022360679774997897</speed>
  <fix>3d</fix>
</trkpt>
<trkpt lat="40.0729484" lon="-105.2308323">
  <ele>1595.5</ele>
  <time>2026-08-28T19:11:50Z</time>
  <course>287.23</course>
  <speed>0.04</speed>
  <fix>3d</fix>
</trkpt>
<trkpt lat="40.0729485" lon="-105.2308321">
  <ele>1595.57</ele>
  <time>2026-08-28T19:11:50Z</time>
  <course>305.14</course>
  <speed>0.022360679774997897</speed>
  <fix>3d</fix>
</trkpt>
<trkpt lat="40.0729485" lon="-105.2308324">
  <ele>1595.5</ele>
  <time>2026-08-28T19:11:50Z</time>
  <course>277.51</course>
  <speed>0.04</speed>
  <fix>3d</fix>
</trkpt>
<trkpt lat="40.0729485" lon="-105.2308322">
  <ele>1595.57</ele>
  <time>2026-08-28T19:11:50Z</time>
  <course>305.39</course>
  <speed>0.01414213562373095</speed>
  <fix>3d</fix>
</trkpt>
<trkpt lat="40.0729485" lon="-105.2308325">
  <ele>1595.5</ele>
  <time>2026-08-28T19:11:50Z</time>
  <course>268.42</course>
  <speed>0.05</speed>
  <fix>3d</fix>
</trkpt>
<trkpt lat="40.0729485" lon="-105.2308323">
  <ele>1595.57</ele>
  <time>2026-08-28T19:11:50Z</time>
  <course>305.46</course>
  <speed>0.01</speed>
  <fix>3d</fix>
</trkpt>
<trkpt lat="40.0729485" lon="-105.2308326">
  <ele>1595.5</ele>
  <time>2026-08-28T19:11:50Z</time>
  <course>263.1</course>
  <speed>0.05</speed>
  <fix>3d</fix>
</trkpt>
<trkpt lat="40.0729485" lon="-105.2308325">
  <ele>1595.57</ele>
  <time>2026-08-28T19:11:50Z</time>
  <course>305.3</course>
  <speed>0.02</speed>
  <fix>3d</fix>
</trkpt>
<trkpt lat="40.0729485" lon="-105.2308327">
  <ele>1595.5</ele>
  <time>2026-08-28T19:11:50Z</time>
  <course>262.43</course>
  <speed>0.05</speed>
  <fix>3d</fix>
</trkpt>
<trkpt lat="40.0729485" lon="-105.2308326">
  <ele>1595.57</ele>
  <time>2026-08-28T19:11:50Z</time>
  <course>304.98</course>
  <speed>0.02</speed>
  <fix>3d</fix>
</trkpt>
<trkpt lat="40.0729485" lon="-105.2308328">
  <ele>1595.5</ele>
  <time>2026-08-28T19:11:50Z</time>
  <course>266.64</course>
  <speed>0.04</speed>
  <fix>3d</fix>
</trkpt>
<trkpt lat="40.0729485" lon="-105.2308327">
  <ele>1595.57</ele>
  <time>2026-08-28T19:11:50Z</time>
  <course>304.61</course>
  <speed>0.02</speed>
  <fix>3d</fix>
</trkpt>
<trkpt lat="40.0729485" lon="-105.2308329">
  <ele>1595.5</ele>
  <time>2026-08-28T19:11:50Z</time>
  <course>275.45</course>
  <speed>0.04</speed>
  <fix>3d</fix>
</trkpt>
<trkpt lat="40.0729485" lon="-105.2308328">
  <ele>1595.57</ele>
  <time>2026-08-28T19:11:50Z</time>
  <course>304.37</course>
  <speed>0.02</speed>
  <fix>3d</fix>
</trkpt>
<trkpt lat="40.0729485" lon="-105.230833">
  <ele>1595.5</ele>
  <time>2026-08-28T19:11:50Z</time>
  <course>286.29</course>
  <speed>0.03</speed>
  <fix>3d</fix>
</trkpt>
<trkpt lat="40.0729485" lon="-105.2308329">
  <ele>1595.57</ele>
  <time>2026-08-28T19:11:50Z</time>
  <course>304.32</course>
  <speed>0.01</speed>
  <fix>3d</fix>
</trkpt>
<trkpt lat="40.0729485" lon="-105.2308331">
  <ele>1595.5</ele>
  <time>2026-08-28T19:11:50Z</time>
  <course>293.76</course>
  <speed>0.03</speed>
  <fix>3d</fix>
</trkpt>
<trkpt lat="40.0729485" lon="-105.230833">
  <ele>1595.57</ele>
  <time>2026-08-28T19:11:50Z</time>
  <course>305.9</course>
  <speed>0.01</speed>
  <fix>3d</fix>
</trkpt>
<trkpt lat="40.0729485" lon="-105.2308332">
  <ele>1595.5</ele>
  <time>2026-08-28T19:11:50Z</time>
  <course>282.79</course>
  <speed>0.03</speed>
  <fix>3d</fix>
</trkpt>
<trkpt lat="40.0729485" lon="-105.2308331">
  <ele>1595.57</ele>
  <time>2026-08-28T19:11:50Z</time>
  <course>305.14</course>
  <speed>0.01414213562373095</speed>
  <fix>3d</fix>
</trkpt>
<trkpt lat="40.0729485" lon="-105.2308333">
  <ele>1595.5</ele>
  <time>2026-08-28T19:11:50Z</time>
  <course>276.39</course>
  <speed>0.04</speed>
  <fix>3d</fix>
</trkpt>
<trkpt lat="40.0729485" lon="-105.2308332">
  <ele>1595.58</ele>
  <time>2026-08-28T19:11:50Z</time>
  <course>304.59</course>
  <speed>0.01414213562373095</speed>
  <fix>3d</fix>
</trkpt>
<trkpt lat="40.0729485" lon="-105.2308334">
  <ele>1595.5</ele>
  <time>2026-08-28T19:11:50Z</time>
  <course>280.95</course>
  <speed>0.04</speed>
  <fix>3d</fix>
</trkpt>
<trkpt lat="40.0729485" lon="-105.2308333">
  <ele>1595.57</ele>
  <time>2026-08-28T19:11:50Z</time>
  <course>304.36</course>
  <speed>0.022360679774997897</speed>
  <fix>3d</fix>
</trkpt>
<trkpt lat="40.0729486" lon="-105.2308335">
  <ele>1595.5</ele>
  <time>2026-08-28T19:11:50Z</time>
  <course>280.39</course>
  <speed>0.04</speed>
  <fix>3d</fix>
</trkpt>
<trkpt lat="40.0729486" lon="-105.2308334">
  <ele>1595.57</ele>
  <time>2026-08-28T19:11:50Z</time>
  <course>304.27</course>
  <speed>0.022360679774997897</speed>
  <fix>3d</fix>
</trkpt>
<trkpt lat="40.0729487" lon="-105.2308337">
  <ele>1595.5</ele>
  <time>2026-08-28T19:11:50Z</time>
  <course>280.55</course>
  <speed>0.05</speed>
  <fix>3d</fix>
</trkpt>
<trkpt lat="40.0729486" lon="-105.2308335">
  <ele>1595.57</ele>
  <time>2026-08-28T19:11:50Z</time>
  <course>304.23</course>
  <speed>0.022360679774997897</speed>
  <fix>3d</fix>
</trkpt>
<trkpt lat="40.0729487" lon="-105.2308338">
  <ele>1595.5</ele>
  <time>2026-08-28T19:11:50Z</time>
  <course>281.07</course>
  <speed>0.05</speed>
  <fix>3d</fix>
</trkpt>
<trkpt lat="40.0729486" lon="-105.2308336">
  <ele>1595.57</ele>
  <time>2026-08-28T19:11:50Z</time>
  <course>304.21</course>
  <speed>0.0316227766016838</speed>
  <fix>3d</fix>
</trkpt>
<trkpt lat="40.0729487" lon="-105.2308339">
  <ele>1595.5</ele>
  <time>2026-08-28T19:11:50Z</time>
  <course>281.81</course>
  <speed>0.05</speed>
  <fix>3d</fix>
</trkpt>
<trkpt lat="40.0729487" lon="-105.2308338">
  <ele>1595.58</ele>
  <time>2026-08-28T19:11:50Z</time>
  <course>304.22</course>
  <speed>0.0316227766016838</speed>
  <fix>3d</fix>
</trkpt>
<trkpt lat="40.0729487" lon="-105.2308341">
  <ele>1595.5</ele>
  <time>2026-08-28T19:11:50Z</time>
  <course>282.73</course>
  <speed>0.06</speed>
  <fix>3d</fix>
</trkpt>
<trkpt lat="40.0729487" lon="-105.2308339">
  <ele>1595.58</ele>
  <time>2026-08-28T19:11:50Z</time>
  <course>304.22</course>
  <speed>0.03605551275463989</speed>
  <fix>3d</fix>
</trkpt>
<trkpt lat="40.0729487" lon="-105.2308342">
  <ele>1595.5</ele>
  <time>2026-08-28T19:11:50Z</time>
  <course>283.22</course>
  <speed>0.06</speed>
  <fix>3d</fix>
</trkpt>
<trkpt lat="40.0729487" lon="-105.2308341">
  <ele>1595.58</ele>
  <time>2026-08-28T19:11:50Z</time>
  <course>304.23</course>
  <speed>0.044721359549995794</speed>
  <fix>3d</fix>
</trkpt>
<trkpt lat="40.0729488" lon="-105.2308343">
  <ele>1595.49</ele>
  <time>2026-08-28T19:11:50Z</time>
  <course>283.62</course>
  <speed>0.06</speed>
  <fix>3d</fix>
</trkpt>
<trkpt lat="40.0729488" lon="-105.2308343">
  <ele>1595.57</ele>
  <time>2026-08-28T19:11:50Z</time>
  <course>304.23</course>
  <speed>0.044721359549995794</speed>
  <fix>3d</fix>
</trkpt>
<trkpt lat="40.0729488" lon="-105.2308345">
  <ele>1595.49</ele>
  <time>2026-08-28T19:11:50Z</time>
  <course>283.94</course>
  <speed>0.06</speed>
  <fix>3d</fix>
</trkpt>
<trkpt lat="40.0729488" lon="-105.2308344">
  <ele>1595.57</ele>
  <time>2026-08-28T19:11:50Z</time>
  <course>304.22</course>
  <speed>0.044721359549995794</speed>
  <fix>3d</fix>
</trkpt>
<trkpt lat="40.0729488" lon="-105.2308347">
  <ele>1595.49</ele>
  <time>2026-08-28T19:11:50Z</time>
  <course>284.37</course>
  <speed>0.07</speed>
  <fix>3d</fix>
</trkpt>
<trkpt lat="40.0729488" lon="-105.2308346">
  <ele>1595.57</ele>
  <time>2026-08-28T19:11:50Z</time>
  <course>304.22</course>
  <speed>0.044721359549995794</speed>
  <fix>3d</fix>
</trkpt>
<trkpt lat="40.0729488" lon="-105.2308348">
  <ele>1595.49</ele>
  <time>2026-08-28T19:11:50Z</time>
  <course>284.94</course>
  <speed>0.07</speed>
  <fix>3d</fix>
</trkpt>
<trkpt lat="40.0729489" lon="-105.2308348">
  <ele>1595.57</ele>
  <time>2026-08-28T19:11:50Z</time>
  <course>304.22</course>
  <speed>0.053851648071345036</speed>
  <fix>3d</fix>
</trkpt>
<trkpt lat="40.0729489" lon="-105.230835">
  <ele>1595.49</ele>
  <time>2026-08-28T19:11:50Z</time>
  <course>285.51</course>
  <speed>0.07</speed>
  <fix>3d</fix>
</trkpt>
<trkpt lat="40.0729489" lon="-105.230835">
  <ele>1595.57</ele>
  <time>2026-08-28T19:11:50Z</time>
  <course>304.22</course>
  <speed>0.053851648071345036</speed>
  <fix>3d</fix>
</trkpt>
<trkpt lat="40.0729489" lon="-105.2308352">
  <ele>1595.49</ele>
  <time>2026-08-28T19:11:50Z</time>
  <course>285.96</course>
  <speed>0.07</speed>
  <fix>3d</fix>
</trkpt>
<trkpt lat="40.072949" lon="-105.2308352">
  <ele>1595.56</ele>
  <time>2026-08-28T19:11:50Z</time>
  <course>304.23</course>
  <speed>0.053851648071345036</speed>
  <fix>3d</fix>
</trkpt>
<trkpt lat="40.072949" lon="-105.2308353">
  <ele>1595.49</ele>
  <time>2026-08-28T19:11:50Z</time>
  <course>286.17</course>
  <speed>0.08</speed>
  <fix>3d</fix>
</trkpt>
<trkpt lat="40.072949" lon="-105.2308353">
  <ele>1595.56</ele>
  <time>2026-08-28T19:11:50Z</time>
  <course>304.23</course>
  <speed>0.053851648071345036</speed>
  <fix>3d</fix>
</trkpt>
<trkpt lat="40.072949" lon="-105.2308356">
  <ele>1595.49</ele>
  <time>2026-08-28T19:11:50Z</time>
  <course>286.29</course>
  <speed>0.08</speed>
  <fix>3d</fix>
</trkpt>
<trkpt lat="40.072949" lon="-105.2308355">
  <ele>1595.56</ele>
  <time>2026-08-28T19:11:50Z</time>
  <course>303.91</course>
  <speed>0.06082762530298219</speed>
  <fix>3d</fix>
</trkpt>
<trkpt lat="40.072949" lon="-105.2308358">
  <ele>1595.49</ele>
  <time>2026-08-28T19:11:50Z</time>
  <course>283.97</course>
  <speed>0.08</speed>
  <fix>3d</fix>
</trkpt>
<trkpt lat="40.0729491" lon="-105.2308357">
  <ele>1595.56</ele>
  <time>2026-08-28T19:11:50Z</time>
  <course>303.83</course>
  <speed>0.05</speed>
  <fix>3d</fix>
</trkpt>
<trkpt lat="40.072949" lon="-105.2308359">
  <ele>1595.49</ele>
  <time>2026-08-28T19:11:50Z</time>
  <course>284.08</course>
  <speed>0.08</speed>
  <fix>3d</fix>
</trkpt>
<trkpt lat="40.0729491" lon="-105.2308359">
  <ele>1595.56</ele>
  <time>2026-08-28T19:11:50Z</time>
  <course>303.64</course>
  <speed>0.04</speed>
  <fix>3d</fix>
</trkpt>
<trkpt lat="40.0729491" lon="-105.2308361">
  <ele>1595.49</ele>
  <time>2026-08-28T19:11:50Z</time>
  <course>289.37</course>
  <speed>0.07</speed>
  <fix>3d</fix>
</trkpt>
<trkpt lat="40.0729491" lon="-105.230836">
  <ele>1595.57</ele>
  <time>2026-08-28T19:11:50Z</time>
  <course>303.63</course>
  <speed>0.0316227766016838</speed>
  <fix>3d</fix>
</trkpt>
<trkpt lat="40.0729491" lon="-105.2308362">
  <ele>1595.49</ele>
  <time>2026-08-28T19:11:50Z</time>
  <course>293.17</course>
  <speed>0.06</speed>
  <fix>3d</fix>
</trkpt>
<trkpt lat="40.0729491" lon="-105.2308362">
  <ele>1595.57</ele>
  <time>2026-08-28T19:11:50Z</time>
  <course>303.88</course>
  <speed>0.022360679774997897</speed>
  <fix>3d</fix>
</trkpt>
<trkpt lat="40.0729491" lon="-105.2308364">
  <ele>1595.49</ele>
  <time>2026-08-28T19:11:50Z</time>
  <course>291.47</course>
  <speed>0.05</speed>
  <fix>3d</fix>
</trkpt>
<trkpt lat="40.0729492" lon="-105.2308363">
  <ele>1595.57</ele>
  <time>2026-08-28T19:11:50Z</time>
  <course>304.29</course>
  <speed>0.022360679774997897</speed>
  <fix>3d</fix>
</trkpt>
<trkpt lat="40.0729491" lon="-105.2308365">
  <ele>1595.49</ele>
  <time>2026-08-28T19:11:50Z</time>
  <course>283.27</course>
  <speed>0.05</speed>
  <fix>3d</fix>
</trkpt>
<trkpt lat="40.0729492" lon="-105.2308364">
  <ele>1595.56</ele>
  <time>2026-08-28T19:11:50Z</time>
  <course>304.67</course>
  <speed>0.022360679774997897</speed>
  <fix>3d</fix>
</trkpt>
<trkpt lat="40.0729491" lon="-105.2308367">
  <ele>1595.49</ele>
  <time>2026-08-28T19:11:50Z</time>
  <course>272.49</course>
  <speed>0.05</speed>
  <fix>3d</fix>
</trkpt>
<trkpt lat="40.0729492" lon="-105.2308365">
  <ele>1595.56</ele>
  <time>2026-08-28T19:11:50Z</time>
  <course>304.84</course>
  <speed>0.01414213562373095</speed>
  <fix>3d</fix>
</trkpt>
<trkpt lat="40.0729491" lon="-105.2308368">
  <ele>1595.5</ele>
  <time>2026-08-28T19:11:50Z</time>
  <course>264.44</course>
  <speed>0.05</speed>
  <fix>3d</fix>
</trkpt>
<trkpt lat="40.0729492" lon="-105.2308366">
  <ele>1595.57</ele>
  <time>2026-08-28T19:11:50Z</time>
  <course>304.7</course>
  <speed>0.02</speed>
  <fix>3d</fix>
</trkpt>
<trkpt lat="40.0729491" lon="-105.2308369">
  <ele>1595.5</ele>
  <time>2026-08-28T19:11:50Z</time>
  <course>261.77</course>
  <speed>0.05</speed>
  <fix>3d</fix>
</trkpt>
<trkpt lat="40.0729492" lon="-105.2308367">
  <ele>1595.57</ele>
  <time>2026-08-28T19:11:50Z</time>
  <course>304.36</course>
  <speed>0.02</speed>
  <fix>3d</fix>
</trkpt>
<trkpt lat="40.0729491" lon="-105.230837">
  <ele>1595.5</ele>
  <time>2026-08-28T19:11:50Z</time>
  <course>264.95</course>
  <speed>0.05</speed>
  <fix>3d</fix>
</trkpt>
<trkpt lat="40.0729492" lon="-105.2308369">
  <ele>1595.57</ele>
  <time>2026-08-28T19:11:50Z</time>
  <course>303.94</course>
  <speed>0.02</speed>
  <fix>3d</fix>
</trkpt>
<trkpt lat="40.0729491" lon="-105.2308371">
  <ele>1595.5</ele>
  <time>2026-08-28T19:11:50Z</time>
  <course>273.96</course>
  <speed>0.04</speed>
  <fix>3d</fix>
</trkpt>
<trkpt lat="40.0729492" lon="-105.230837">
  <ele>1595.57</ele>
  <time>2026-08-28T19:11:50Z</time>
  <course>303.67</course>
  <speed>0.02</speed>
  <fix>3d</fix>
</trkpt>
<trkpt lat="40.0729492" lon="-105.2308372">
  <ele>1595.5</ele>
  <time>2026-08-28T19:11:50Z</time>
  <course>285.86</course>
  <speed>0.03</speed>
  <fix>3d</fix>
</trkpt>
<trkpt lat="40.0729492" lon="-105.2308371">
  <ele>1595.58</ele>
  <time>2026-08-28T19:11:50Z</time>
  <course>303.68</course>
  <speed>0.01</speed>
  <fix>3d</fix>
</trkpt>
<trkpt lat="40.0729493" lon="-105.2308373">
  <ele>1595.5</ele>
  <time>2026-08-28T19:11:50Z</time>
  <course>293.33</course>
  <speed>0.03</speed>
  <fix>3d</fix>
</trkpt>
<trkpt lat="40.0729492" lon="-105.2308372">
  <ele>1595.58</ele>
  <time>2026-08-28T19:11:50Z</time>
  <course>303.95</course>
  <speed>0.01</speed>
  <fix>3d</fix>
</trkpt>
<trkpt lat="40.0729493" lon="-105.2308374">
  <ele>1595.5</ele>
  <time>2026-08-28T19:11:50Z</time>
  <course>290.79</course>
  <speed>0.03</speed>
  <fix>3d</fix>
</trkpt>
<trkpt lat="40.0729492" lon="-105.2308372">
  <ele>1595.58</ele>
  <time>2026-08-28T19:11:50Z</time>
  <course>304.35</course>
  <speed>0.02</speed>
  <fix>3d</fix>
</trkpt>
<trkpt lat="40.0729493" lon="-105.2308375">
  <ele>1595.5</ele>
  <time>2026-08-28T19:11:50Z</time>
  <course>279.58</course>
  <speed>0.03</speed>
  <fix>3d</fix>
</trkpt>
<trkpt lat="40.0729492" lon="-105.2308373">
  <ele>1595.58</ele>
  <time>2026-08-28T19:11:50Z</time>
  <course>305.3</course>
  <speed>0.01</speed>
  <fix>3d</fix>
</trkpt>
<trkpt lat="40.0729493" lon="-105.2308376">
  <ele>1595.5</ele>
  <time>2026-08-28T19:11:50Z</time>
  <course>266.21</course>
  <speed>0.04</speed>
  <fix>3d</fix>
</trkpt>
<trkpt lat="40.0729492" lon="-105.2308374">
  <ele>1595.58</ele>
  <time>2026-08-28T19:11:50Z</time>
  <course>305.06</course>
  <speed>0.01414213562373095</speed>
  <fix>3d</fix>
</trkpt>
<trkpt lat="40.0729493" lon="-105.2308377">
  <ele>1595.49</ele>
  <time>2026-08-28T19:11:50Z</time>
  <course>268.58</course>
  <speed>0.04</speed>
  <fix>3d</fix>
</trkpt>
<trkpt lat="40.0729493" lon="-105.2308375">
  <ele>1595.58</ele>
  <time>2026-08-28T19:11:50Z</time>
  <course>304.22</course>
  <speed>0.01414213562373095</speed>
  <fix>3d</fix>
</trkpt>
<trkpt lat="40.0729493" lon="-105.2308378">
  <ele>1595.49</ele>
  <time>2026-08-28T19:11:50Z</time>
  <course>279.04</course>
  <speed>0.04</speed>
  <fix>3d</fix>
</trkpt>
<trkpt lat="40.0729493" lon="-105.2308376">
  <ele>1595.58</ele>
  <time>2026-08-28T19:11:50Z</time>
  <course>303.81</course>
  <speed>0.022360679774997897</speed>
  <fix>3d</fix>
</trkpt>
<trkpt lat="40.0729493" lon="-105.2308379">
  <ele>1595.49</ele>
  <time>2026-08-28T19:11:50Z</time>
  <course>278.99</course>
  <speed>0.04</speed>
  <fix>3d</fix>
</trkpt>
<trkpt lat="40.0729493" lon="-105.2308377">
  <ele>1595.58</ele>
  <time>2026-08-28T19:11:50Z</time>
  <course>303.64</course>
  <speed>0.022360679774997897</speed>
  <fix>3d</fix>
</trkpt>
<trkpt lat="40.0729493" lon="-105.230838">
  <ele>1595.49</ele>
  <time>2026-08-28T19:11:50Z</time>
  <course>278.56</course>
  <speed>0.04</speed>
  <fix>3d</fix>
</trkpt>
<trkpt lat="40.0729493" lon="-105.2308379">
  <ele>1595.57</ele>
  <time>2026-08-28T19:11:50Z</time>
  <course>303.58</course>
  <speed>0.022360679774997897</speed>
  <fix>3d</fix>
</trkpt>
<trkpt lat="40.0729493" lon="-105.2308381">
  <ele>1595.49</ele>
  <time>2026-08-28T19:11:50Z</time>
  <course>278.85</course>
  <speed>0.05</speed>
  <fix>3d</fix>
</trkpt>
<trkpt lat="40.0729493" lon="-105.230838">
  <ele>1595.57</ele>
  <time>2026-08-28T19:11:50Z</time>
  <course>303.55</course>
  <speed>0.0316227766016838</speed>
  <fix>3d</fix>
</trkpt>
<trkpt lat="40.0729493" lon="-105.2308382">
  <ele>1595.48</ele>
  <time>2026-08-28T19:11:50Z</time>
  <course>279.34</course>
  <speed>0.05</speed>
  <fix>3d</fix>
</trkpt>
<trkpt lat="40.0729494" lon="-105.2308381">
  <ele>1595.56</ele>
  <time>2026-08-28T19:11:50Z</time>
  <course>303.54</course>
  <speed>0.0316227766016838</speed>
  <fix>3d</fix>
</trkpt>
<trkpt lat="40.0729493" lon="-105.2308384">
  <ele>1595.48</ele>
  <time>2026-08-28T19:11:50Z</time>
  <course>280.2</course>
  <speed>0.05</speed>
  <fix>3d</fix>
</trkpt>
<trkpt lat="40.0729494" lon="-105.2308383">
  <ele>1595.56</ele>
  <time>2026-08-28T19:11:50Z</time>
  <course>303.54</course>
  <speed>0.0316227766016838</speed>
  <fix>3d</fix>
</trkpt>
<trkpt lat="40.0729494" lon="-105.2308385">
  <ele>1595.48</ele>
  <time>2026-08-28T19:11:50Z</time>
  <course>281.12</course>
  <speed>0.06</speed>
  <fix>3d</fix>
</trkpt>
<trkpt lat="40.0729494" lon="-105.2308384">
  <ele>1595.55</ele>
  <time>2026-08-28T19:11:50Z</time>
  <course>303.53</course>
  <speed>0.03605551275463989</speed>
  <fix>3d</fix>
</trkpt>
<trkpt lat="40.0729494" lon="-105.2308386">
  <ele>1595.48</ele>
  <time>2026-08-28T19:11:50Z</time>
  <course>281.93</course>
  <speed>0.06</speed>
  <fix>3d</fix>
</trkpt>
<trkpt lat="40.0729494" lon="-105.2308386">
  <ele>1595.55</ele>
  <time>2026-08-28T19:11:50Z</time>
  <course>303.51</course>
  <speed>0.044721359549995794</speed>
  <fix>3d</fix>
</trkpt>
<trkpt lat="40.0729494" lon="-105.2308388">
  <ele>1595.48</ele>
  <time>2026-08-28T19:11:50Z</time>
  <course>282.49</course>
  <speed>0.06</speed>
  <fix>3d</fix>
</trkpt>
<trkpt lat="40.0729494" lon="-105.2308387">
  <ele>1595.55</ele>
  <time>2026-08-28T19:11:50Z</time>
  <course>303.52</course>
  <speed>0.044721359549995794</speed>
  <fix>3d</fix>
</trkpt>
<trkpt lat="40.0729494" lon="-105.230839">
  <ele>1595.48</ele>
  <time>2026-08-28T19:11:50Z</time>
  <course>282.77</course>
  <speed>0.06</speed>
  <fix>3d</fix>
</trkpt>
<trkpt lat="40.0729495" lon="-105.2308389">
  <ele>1595.56</ele>
  <time>2026-08-28T19:11:50Z</time>
  <course>303.5</course>
  <speed>0.044721359549995794</speed>
  <fix>3d</fix>
</trkpt>
<trkpt lat="40.0729495" lon="-105.2308391">
  <ele>1595.49</ele>
  <time>2026-08-28T19:11:50Z</time>
  <course>283.05</course>
  <speed>0.07</speed>
  <fix>3d</fix>
</trkpt>
<trkpt lat="40.0729495" lon="-105.2308391">
  <ele>1595.56</ele>
  <time>2026-08-28T19:11:50Z</time>
  <course>303.53</course>
  <speed>0.044721359549995794</speed>
  <fix>3d</fix>
</trkpt>
<trkpt lat="40.0729495" lon="-105.2308393">
  <ele>1595.49</ele>
  <time>2026-08-28T19:11:50Z</time>
  <course>283.3</course>
  <speed>0.07</speed>
  <fix>3d</fix>
</trkpt>
<trkpt lat="40.0729495" lon="-105.2308393">
  <ele>1595.56</ele>
  <time>2026-08-28T19:11:50Z</time>
  <course>303.54</course>
  <speed>0.053851648071345036</speed>
  <fix>3d</fix>
</trkpt>
<trkpt lat="40.0729495" lon="-105.2308395">
  <ele>1595.49</ele>
  <time>2026-08-28T19:11:50Z</time>
  <course>283.37</course>
  <speed>0.07</speed>
  <fix>3d</fix>
</trkpt>
<trkpt lat="40.0729496" lon="-105.2308395">
  <ele>1595.56</ele>
  <time>2026-08-28T19:11:50Z</time>
  <course>303.55</course>
  <speed>0.053851648071345036</speed>
  <fix>3d</fix>
</trkpt>
<trkpt lat="40.0729496" lon="-105.2308396">
  <ele>1595.5</ele>
  <time>2026-08-28T19:11:50Z</time>
  <course>283.57</course>
  <speed>0.07</speed>
  <fix>3d</fix>
</trkpt>
<trkpt lat="40.0729496" lon="-105.2308396">
  <ele>1595.57</ele>
  <time>2026-08-28T19:11:50Z</time>
  <course>303.55</course>
  <speed>0.053851648071345036</speed>
  <fix>3d</fix>
</trkpt>
<trkpt lat="40.0729496" lon="-105.2308399">
  <ele>1595.5</ele>
  <time>2026-08-28T19:11:50Z</time>
  <course>283.97</course>
  <speed>0.08</speed>
  <fix>3d</fix>
</trkpt>
<trkpt lat="40.0729496" lon="-105.2308398">
  <ele>1595.57</ele>
  <time>2026-08-28T19:11:50Z</time>
  <course>302.34</course>
  <speed>0.053851648071345036</speed>
  <fix>3d</fix>
</trkpt>
<trkpt lat="40.0729496" lon="-105.2308401">
  <ele>1595.5</ele>
  <time>2026-08-28T19:11:50Z</time>
  <course>288.7</course>
  <speed>0.08</speed>
  <fix>3d</fix>
</trkpt>
<trkpt lat="40.0729497" lon="-105.23084">
  <ele>1595.57</ele>
  <time>2026-08-28T19:11:50Z</time>
  <course>302.83</course>
  <speed>0.044721359549995794</speed>
  <fix>3d</fix>
</trkpt>
<trkpt lat="40.0729496" lon="-105.2308402">
  <ele>1595.5</ele>
  <time>2026-08-28T19:11:50Z</time>
  <course>292.38</course>
  <speed>0.07</speed>
  <fix>3d</fix>
</trkpt>
<trkpt lat="40.0729497" lon="-105.2308402">
  <ele>1595.57</ele>
  <time>2026-08-28T19:11:50Z</time>
  <course>303.21</course>
  <speed>0.03605551275463989</speed>
  <fix>3d</fix>
</trkpt>
<trkpt lat="40.0729496" lon="-105.2308404">
  <ele>1595.51</ele>
  <time>2026-08-28T19:11:50Z</time>
  <course>289.08</course>
  <speed>0.07</speed>
  <fix>3d</fix>
</trkpt>
<trkpt lat="40.0729497" lon="-105.2308403">
  <ele>1595.57</ele>
  <time>2026-08-28T19:11:50Z</time>
  <course>303.54</course>
  <speed>0.0282842712474619</speed>
  <fix>3d</fix>
</trkpt>
<trkpt lat="40.0729496" lon="-105.2308405">
  <ele>1595.51</ele>
  <time>2026-08-28T19:11:50Z</time>
  <course>282.8</course>
  <speed>0.06</speed>
  <fix>3d</fix>
</trkpt>
<trkpt lat="40.0729498" lon="-105.2308404">
  <ele>1595.57</ele>
  <time>2026-08-28T19:11:50Z</time>
  <course>303.84</course>
  <speed>0.022360679774997897</speed>
  <fix>3d</fix>
</trkpt>
<trkpt lat="40.0729497" lon="-105.2308407">
  <ele>1595.51</ele>
  <time>2026-08-28T19:11:50Z</time>
  <course>274.98</course>
  <speed>0.06</speed>
  <fix>3d</fix>
</trkpt>
<trkpt lat="40.0729498" lon="-105.2308405">
  <ele>1595.57</ele>
  <time>2026-08-28T19:11:50Z</time>
  <course>304.07</course>
  <speed>0.022360679774997897</speed>
  <fix>3d</fix>
</trkpt>
<trkpt lat="40.0729497" lon="-105.2308409">
  <ele>1595.51</ele>
  <time>2026-08-28T19:11:50Z</time>
  <course>267.76</course>
  <speed>0.06</speed>
  <fix>3d</fix>
</trkpt>
<trkpt lat="40.0729498" lon="-105.2308407">
  <ele>1595.57</ele>
  <time>2026-08-28T19:11:50Z</time>
  <course>304.13</course>
  <speed>0.022360679774997897</speed>
  <fix>3d</fix>
</trkpt>
<trkpt lat="40.0729497" lon="-105.230841">
  <ele>1595.51</ele>
  <time>2026-08-28T19:11:50Z</time>
  <course>262.96</course>
  <speed>0.06</speed>
  <fix>3d</fix>
</trkpt>
<trkpt lat="40.0729498" lon="-105.2308408">
  <ele>1595.57</ele>
  <time>2026-08-28T19:11:50Z</time>
  <course>304.03</course>
  <speed>0.02</speed>
  <fix>3d</fix>
</trkpt>
<trkpt lat="40.0729497" lon="-105.2308411">
  <ele>1595.51</ele>
  <time>2026-08-28T19:11:50Z</time>
  <course>261.39</course>
  <speed>0.05</speed>
  <fix>3d</fix>
</trkpt>
<trkpt lat="40.0729497" lon="-105.230841">
  <ele>1595.57</ele>
  <time>2026-08-28T19:11:50Z</time>
  <course>303.81</course>
  <speed>0.02</speed>
  <fix>3d</fix>
</trkpt>
<trkpt lat="40.0729497" lon="-105.2308412">
  <ele>1595.51</ele>
  <time>2026-08-28T19:11:50Z</time>
  <course>263.15</course>
  <speed>0.05</speed>
  <fix>3d</fix>
</trkpt>
<trkpt lat="40.0729497" lon="-105.2308411">
  <ele>1595.58</ele>
  <time>2026-08-28T19:11:50Z</time>
  <course>303.51</course>
  <speed>0.02</speed>
  <fix>3d</fix>
</trkpt>
<trkpt lat="40.0729497" lon="-105.2308413">
  <ele>1595.51</ele>
  <time>2026-08-28T19:11:50Z</time>
  <course>268.61</course>
  <speed>0.04</speed>
  <fix>3d</fix>
</trkpt>
<trkpt lat="40.0729497" lon="-105.2308412">
  <ele>1595.59</ele>
  <time>2026-08-28T19:11:50Z</time>
  <course>303.23</course>
  <speed>0.02</speed>
  <fix>3d</fix>
</trkpt>
<trkpt lat="40.0729497" lon="-105.2308414">
  <ele>1595.51</ele>
  <time>2026-08-28T19:11:50Z</time>
  <course>277.27</course>
  <speed>0.04</speed>
  <fix>3d</fix>
</trkpt>
<trkpt lat="40.0729497" lon="-105.2308413">
  <ele>1595.59</ele>
  <time>2026-08-28T19:11:50Z</time>
  <course>303.05</course>
  <speed>0.02</speed>
  <fix>3d</fix>
</trkpt>
<trkpt lat="40.0729497" lon="-105.2308415">
  <ele>1595.51</ele>
  <time>2026-08-28T19:11:50Z</time>
  <course>286.71</course>
  <speed>0.03</speed>
  <fix>3d</fix>
</trkpt>
<trkpt lat="40.0729497" lon="-105.2308414">
  <ele>1595.58</ele>
  <time>2026-08-28T19:11:50Z</time>
  <course>303.03</course>
  <speed>0.01</speed>
  <fix>3d</fix>
</trkpt>
<trkpt lat="40.0729497" lon="-105.2308416">
  <ele>1595.5</ele>
  <time>2026-08-28T19:11:50Z</time>
  <course>293.2</course>
  <speed>0.03</speed>
  <fix>3d</fix>
</trkpt>
<trkpt lat="40.0729497" lon="-105.2308415">
  <ele>1595.58</ele>
  <time>2026-08-28T19:11:50Z</time>
  <course>303.15</course>
  <speed>0.01414213562373095</speed>
  <fix>3d</fix>
</trkpt>
<trkpt lat="40.0729497" lon="-105.2308417">
  <ele>1595.5</ele>
  <time>2026-08-28T19:11:50Z</time>
  <course>293.58</course>
  <speed>0.03</speed>
  <fix>3d</fix>
</trkpt>
<trkpt lat="40.0729497" lon="-105.2308416">
  <ele>1595.58</ele>
  <time>2026-08-28T19:11:50Z</time>
  <course>303.4</course>
  <speed>0.02</speed>
  <fix>3d</fix>
</trkpt>
<trkpt lat="40.0729497" lon="-105.2308418">
  <ele>1595.5</ele>
  <time>2026-08-28T19:11:50Z</time>
  <course>287.33</course>
  <speed>0.03</speed>
  <fix>3d</fix>
</trkpt>
<trkpt lat="40.0729497" lon="-105.2308416">
  <ele>1595.58</ele>
  <time>2026-08-28T19:11:50Z</time>
  <course>304.65</course>
  <speed>0.01</speed>
  <fix>3d</fix>
</trkpt>
<trkpt lat="40.0729497" lon="-105.2308419">
  <ele>1595.49</ele>
  <time>2026-08-28T19:11:50Z</time>
  <course>273.31</course>
  <speed>0.04</speed>
  <fix>3d</fix>
</trkpt>
<trkpt lat="40.0729498" lon="-105.2308417">
  <ele>1595.58</ele>
  <time>2026-08-28T19:11:50Z</time>
  <course>304.11</course>
  <speed>0.01414213562373095</speed>
  <fix>3d</fix>
</trkpt>
<trkpt lat="40.0729497" lon="-105.230842">
  <ele>1595.49</ele>
  <time>2026-08-28T19:11:50Z</time>
  <course>272.7</course>
  <speed>0.04</speed>
  <fix>3d</fix>
</trkpt>
<trkpt lat="40.0729498" lon="-105.2308418">
  <ele>1595.57</ele>
  <time>2026-08-28T19:11:50Z</time>
  <course>303.41</course>
  <speed>0.01414213562373095</speed>
  <fix>3d</fix>
</trkpt>
<trkpt lat="40.0729497" lon="-105.2308421">
  <ele>1595.49</ele>
  <time>2026-08-28T19:11:50Z</time>
  <course>280.8</course>
  <speed>0.04</speed>
  <fix>3d</fix>
</trkpt>
<trkpt lat="40.0729498" lon="-105.2308419">
  <ele>1595.57</ele>
  <time>2026-08-28T19:11:50Z</time>
  <course>303.1</course>
  <speed>0.022360679774997897</speed>
  <fix>3d</fix>
</trkpt>
<trkpt lat="40.0729497" lon="-105.2308422">
  <ele>1595.49</ele>
  <time>2026-08-28T19:11:50Z</time>
  <course>280.07</course>
  <speed>0.04</speed>
  <fix>3d</fix>
</trkpt>
<trkpt lat="40.0729498" lon="-105.230842">
  <ele>1595.56</ele>
  <time>2026-08-28T19:11:50Z</time>
  <course>302.97</course>
  <speed>0.022360679774997897</speed>
  <fix>3d</fix>
</trkpt>
<trkpt lat="40.0729498" lon="-105.2308423">
  <ele>1595.49</ele>
  <time>2026-08-28T19:11:50Z</time>
  <course>279.67</course>
  <speed>0.04</speed>
  <fix>3d</fix>
</trkpt>
<trkpt lat="40.0729498" lon="-105.2308422">
  <ele>1595.56</ele>
  <time>2026-08-28T19:11:50Z</time>
  <course>302.92</course>
  <speed>0.022360679774997897</speed>
  <fix>3d</fix>
</trkpt>
<trkpt lat="40.0729499" lon="-105.2308425">
  <ele>1595.48</ele>
  <time>2026-08-28T19:11:50Z</time>
  <course>279.95</course>
  <speed>0.05</speed>
  <fix>3d</fix>
</trkpt>
<trkpt lat="40.0729498" lon="-105.2308423">
  <ele>1595.55</ele>
  <time>2026-08-28T19:11:50Z</time>
  <course>302.88</course>
  <speed>0.0316227766016838</speed>
  <fix>3d</fix>
</trkpt>
<trkpt lat="40.0729499" lon="-105.2308426">
  <ele>1595.48</ele>
  <time>2026-08-28T19:11:50Z</time>
  <course>280.56</course>
  <speed>0.05</speed>
  <fix>3d</fix>
</trkpt>
<trkpt lat="40.0729499" lon="-105.2308425">
  <ele>1595.55</ele>
  <time>2026-08-28T19:11:50Z</time>
  <course>302.88</course>
  <speed>0.0316227766016838</speed>
  <fix>3d</fix>
</trkpt>
<trkpt lat="40.0729499" lon="-105.2308427">
  <ele>1595.49</ele>
  <time>2026-08-28T19:11:50Z</time>
  <course>281.03</course>
  <speed>0.05</speed>
  <fix>3d</fix>
</trkpt>
<trkpt lat="40.0729499" lon="-105.2308426">
  <ele>1595.56</ele>
  <time>2026-08-28T19:11:50Z</time>
  <course>302.88</course>
  <speed>0.0316227766016838</speed>
  <fix>3d</fix>
</trkpt>
<trkpt lat="40.0729499" lon="-105.2308429">
  <ele>1595.49</ele>
  <time>2026-08-28T19:11:50Z</time>
  <course>281.39</course>
  <speed>0.06</speed>
  <fix>3d</fix>
</trkpt>
<trkpt lat="40.0729499" lon="-105.2308428">
  <ele>1595.56</ele>
  <time>2026-08-28T19:11:50Z</time>
  <course>302.88</course>
  <speed>0.0316227766016838</speed>
  <fix>3d</fix>
</trkpt>
<trkpt lat="40.0729499" lon="-105.230843">
  <ele>1595.49</ele>
  <time>2026-08-28T19:11:50Z</time>
  <course>281.76</course>
  <speed>0.06</speed>
  <fix>3d</fix>
</trkpt>
<trkpt lat="40.0729499" lon="-105.2308429">
  <ele>1595.57</ele>
  <time>2026-08-28T19:11:50Z</time>
  <course>302.89</course>
  <speed>0.044721359549995794</speed>
  <fix>3d</fix>
</trkpt>
<trkpt lat="40.07295" lon="-105.2308432">
  <ele>1595.49</ele>
  <time>2026-08-28T19:11:50Z</time>
  <course>282.0</course>
  <speed>0.06</speed>
  <fix>3d</fix>
</trkpt>
<trkpt lat="40.07295" lon="-105.2308431">
  <ele>1595.57</ele>
  <time>2026-08-28T19:11:50Z</time>
  <course>302.9</course>
  <speed>0.044721359549995794</speed>
  <fix>3d</fix>
</trkpt>
<trkpt lat="40.07295" lon="-105.2308433">
  <ele>1595.5</ele>
  <time>2026-08-28T19:11:50Z</time>
  <course>282.11</course>
  <speed>0.07</speed>
  <fix>3d</fix>
</trkpt>
<trkpt lat="40.07295" lon="-105.2308433">
  <ele>1595.57</ele>
  <time>2026-08-28T19:11:50Z</time>
  <course>302.9</course>
  <speed>0.044721359549995794</speed>
  <fix>3d</fix>
</trkpt>
<trkpt lat="40.07295" lon="-105.2308434">
  <ele>1595.5</ele>
  <time>2026-08-28T19:11:50Z</time>
  <course>282.25</course>
  <speed>0.07</speed>
  <fix>3d</fix>
</trkpt>
<trkpt lat="40.07295" lon="-105.2308434">
  <ele>1595.57</ele>
  <time>2026-08-28T19:11:50Z</time>
  <course>302.93</course>
  <speed>0.044721359549995794</speed>
  <fix>3d</fix>
</trkpt>
<trkpt lat="40.07295" lon="-105.2308437">
  <ele>1595.5</ele>
  <time>2026-08-28T19:11:50Z</time>
  <course>282.6</course>
  <speed>0.07</speed>
  <fix>3d</fix>
</trkpt>
<trkpt lat="40.0729501" lon="-105.2308436">
  <ele>1595.57</ele>
  <time>2026-08-28T19:11:50Z</time>
  <course>302.92</course>
  <speed>0.053851648071345036</speed>
  <fix>3d</fix>
</trkpt>
<trkpt lat="40.0729501" lon="-105.2308439">
  <ele>1595.5</ele>
  <time>2026-08-28T19:11:50Z</time>
  <course>283.06</course>
  <speed>0.07</speed>
  <fix>3d</fix>
</trkpt>
<trkpt lat="40.0729501" lon="-105.2308438">
  <ele>1595.57</ele>
  <time>2026-08-28T19:11:50Z</time>
  <course>302.93</course>
  <speed>0.053851648071345036</speed>
  <fix>3d</fix>
</trkpt>
<trkpt lat="40.0729501" lon="-105.230844">
  <ele>1595.5</ele>
  <time>2026-08-28T19:11:50Z</time>
  <course>283.67</course>
  <speed>0.08</speed>
  <fix>3d</fix>
</trkpt>
<trkpt lat="40.0729501" lon="-105.230844">
  <ele>1595.57</ele>
  <time>2026-08-28T19:11:50Z</time>
  <course>302.93</course>
  <speed>0.053851648071345036</speed>
  <fix>3d</fix>
</trkpt>
<trkpt lat="40.0729501" lon="-105.2308442">
  <ele>1595.5</ele>
  <time>2026-08-28T19:11:50Z</time>
  <course>284.15</course>
  <speed>0.08</speed>
  <fix>3d</fix>
</trkpt>
<trkpt lat="40.0729502" lon="-105.2308442">
  <ele>1595.57</ele>
  <time>2026-08-28T19:11:50Z</time>
  <course>301.95</course>
  <speed>0.06082762530298219</speed>
  <fix>3d</fix>
</trkpt>
<trkpt lat="40.0729502" lon="-105.2308444">
  <ele>1595.5</ele>
  <time>2026-08-28T19:11:50Z</time>
  <course>287.71</course>
  <speed>0.08</speed>
  <fix>3d</fix>
</trkpt>
<trkpt lat="40.0729502" lon="-105.2308444">
  <ele>1595.57</ele>
  <time>2026-08-28T19:11:50Z</time>
  <course>302.24</course>
  <speed>0.05099019513592785</speed>
  <fix>3d</fix>
</trkpt>
<trkpt lat="40.0729502" lon="-105.2308445">
  <ele>1595.5</ele>
  <time>2026-08-28T19:11:50Z</time>
  <course>291.72</course>
  <speed>0.07</speed>
  <fix>3d</fix>
</trkpt>
<trkpt lat="40.0729502" lon="-105.2308445">
  <ele>1595.58</ele>
  <time>2026-08-28T19:11:50Z</time>
  <course>302.36</course>
  <speed>0.0412310562561766</speed>
  <fix>3d</fix>
</trkpt>
<trkpt lat="40.0729502" lon="-105.2308448">
  <ele>1595.5</ele>
  <time>2026-08-28T19:11:50Z</time>
  <course>292.24</course>
  <speed>0.07</speed>
  <fix>3d</fix>
</trkpt>
<trkpt lat="40.0729503" lon="-105.2308447">
  <ele>1595.58</ele>
  <time>2026-08-28T19:11:50Z</time>
  <course>302.43</course>
  <speed>0.0282842712474619</speed>
  <fix>3d</fix>
</trkpt>
<trkpt lat="40.0729502" lon="-105.2308449">
  <ele>1595.49</ele>
  <time>2026-08-28T19:11:50Z</time>
  <course>291.41</course>
  <speed>0.06</speed>
  <fix>3d</fix>
</trkpt>
<trkpt lat="40.0729503" lon="-105.2308448">
  <ele>1595.58</ele>
  <time>2026-08-28T19:11:50Z</time>
  <course>302.58</course>
  <speed>0.0282842712474619</speed>
  <fix>3d</fix>
</trkpt>
<trkpt lat="40.0729502" lon="-105.2308451">
  <ele>1595.49</ele>
  <time>2026-08-28T19:11:50Z</time>
  <course>288.92</course>
  <speed>0.05</speed>
  <fix>3d</fix>
</trkpt>
<trkpt lat="40.0729503" lon="-105.2308449">
  <ele>1595.58</ele>
  <time>2026-08-28T19:11:50Z</time>
  <course>302.77</course>
  <speed>0.022360679774997897</speed>
  <fix>3d</fix>
</trkpt>
<trkpt lat="40.0729502" lon="-105.2308452">
  <ele>1595.49</ele>
  <time>2026-08-28T19:11:50Z</time>
  <course>284.16</course>
  <speed>0.05</speed>
  <fix>3d</fix>
</trkpt>
<trkpt lat="40.0729504" lon="-105.230845">
  <ele>1595.58</ele>
  <time>2026-08-28T19:11:50Z</time>
  <course>302.99</course>
  <speed>0.022360679774997897</speed>
  <fix>3d</fix>
</trkpt>
<trkpt lat="40.0729502" lon="-105.2308453">
  <ele>1595.49</ele>
  <time>2026-08-28T19:11:50Z</time>
  <course>277.21</course>
  <speed>0.05</speed>
  <fix>3d</fix>
</trkpt>
<trkpt lat="40.0729504" lon="-105.2308451">
  <ele>1595.58</ele>
  <time>2026-08-28T19:11:50Z</time>
  <course>303.2</course>
  <speed>0.022360679774997897</speed>
  <fix>3d</fix>
</trkpt>
<trkpt lat="40.0729502" lon="-105.2308454">
  <ele>1595.48</ele>
  <time>2026-08-28T19:11:50Z</time>
  <course>269.67</course>
  <speed>0.05</speed>
  <fix>3d</fix>
</trkpt>
<trkpt lat="40.0729504" lon="-105.2308452">
  <ele>1595.57</ele>
  <time>2026-08-28T19:11:50Z</time>
  <course>303.37</course>
  <speed>0.022360679774997897</speed>
  <fix>3d</fix>
</trkpt>
<trkpt lat="40.0729502" lon="-105.2308456">
  <ele>1595.48</ele>
  <time>2026-08-28T19:11:50Z</time>
  <course>263.03</course>
  <speed>0.05</speed>
  <fix>3d</fix>
</trkpt>
<trkpt lat="40.0729504" lon="-105.2308453">
  <ele>1595.57</ele>
  <time>2026-08-28T19:11:50Z</time>
  <course>303.46</course>
  <speed>0.01414213562373095</speed>
  <fix>3d</fix>
</trkpt>
<trkpt lat="40.0729502" lon="-105.2308457">
  <ele>1595.48</ele>
  <time>2026-08-28T19:11:50Z</time>
  <course>258.22</course>
  <speed>0.05</speed>
  <fix>3d</fix>
</trkpt>
<trkpt lat="40.0729503" lon="-105.2308455">
  <ele>1595.57</ele>
  <time>2026-08-28T19:11:50Z</time>
  <course>303.49</course>
  <speed>0.01</speed>
  <fix>3d</fix>
</trkpt>
<trkpt lat="40.0729502" lon="-105.2308458">
  <ele>1595.48</ele>
  <time>2026-08-28T19:11:50Z</time>
  <course>255.46</course>
  <speed>0.05</speed>
  <fix>3d</fix>
</trkpt>
<trkpt lat="40.0729503" lon="-105.2308456">
  <ele>1595.56</ele>
  <time>2026-08-28T19:11:50Z</time>
  <course>303.42</course>
  <speed>0.02</speed>
  <fix>3d</fix>
</trkpt>
<trkpt lat="40.0729502" lon="-105.2308459">
  <ele>1595.48</ele>
  <time>2026-08-28T19:11:50Z</time>
  <course>254.79</course>
  <speed>0.05</speed>
  <fix>3d</fix>
</trkpt>
<trkpt lat="40.0729503" lon="-105.2308457">
  <ele>1595.56</ele>
  <time>2026-08-28T19:11:50Z</time>
  <course>303.3</course>
  <speed>0.02</speed>
  <fix>3d</fix>
</trkpt>
<trkpt lat="40.0729502" lon="-105.230846">
  <ele>1595.48</ele>
  <time>2026-08-28T19:11:50Z</time>
  <course>256.29</course>
  <speed>0.05</speed>
  <fix>3d</fix>
</trkpt>
<trkpt lat="40.0729503" lon="-105.2308459">
  <ele>1595.56</ele>
  <time>2026-08-28T19:11:50Z</time>
  <course>303.1</course>
  <speed>0.022360679774997897</speed>
  <fix>3d</fix>
</trkpt>
<trkpt lat="40.0729502" lon="-105.2308461">
  <ele>1595.48</ele>
  <time>2026-08-28T19:11:50Z</time>
  <course>260.06</course>
  <speed>0.04</speed>
  <fix>3d</fix>
</trkpt>
<trkpt lat="40.0729503" lon="-105.230846">
  <ele>1595.56</ele>
  <time>2026-08-28T19:11:50Z</time>
  <course>302.88</course>
  <speed>0.022360679774997897</speed>
  <fix>3d</fix>
</trkpt>
<trkpt lat="40.0729502" lon="-105.2308462">
  <ele>1595.48</ele>
  <time>2026-08-28T19:11:50Z</time>
  <course>266.0</course>
  <speed>0.04</speed>
  <fix>3d</fix>
</trkpt>
<trkpt lat="40.0729502" lon="-105.2308461">
  <ele>1595.57</ele>
  <time>2026-08-28T19:11:50Z</time>
  <course>303.77</course>
  <speed>0.01</speed>
  <fix>3d</fix>
</trkpt>
<trkpt lat="40.0729502" lon="-105.2308463">
  <ele>1595.48</ele>
  <time>2026-08-28T19:11:50Z</time>
  <course>270.85</course>
  <speed>0.04</speed>
  <fix>3d</fix>
</trkpt>
<trkpt lat="40.0729502" lon="-105.2308462">
  <ele>1595.58</ele>
  <time>2026-08-28T19:11:50Z</time>
  <course>302.97</course>
  <speed>0.02</speed>
  <fix>3d</fix>
</trkpt>
<trkpt lat="40.0729502" lon="-105.2308464">
  <ele>1595.48</ele>
  <time>2026-08-28T19:11:50Z</time>
  <course>274.27</course>
  <speed>0.04</speed>
  <fix>3d</fix>
</trkpt>
<trkpt lat="40.0729502" lon="-105.2308463">
  <ele>1595.58</ele>
  <time>2026-08-28T19:11:50Z</time>
  <course>302.53</course>
  <speed>0.02</speed>
  <fix>3d</fix>
</trkpt>
<trkpt lat="40.0729502" lon="-105.2308465">
  <ele>1595.48</ele>
  <time>2026-08-28T19:11:50Z</time>
  <course>276.2</course>
  <speed>0.04</speed>
  <fix>3d</fix>
</trkpt>
<trkpt lat="40.0729503" lon="-105.2308464">
  <ele>1595.59</ele>
  <time>2026-08-28T19:11:50Z</time>
  <course>302.37</course>
  <speed>0.02</speed>
  <fix>3d</fix>
</trkpt>
<trkpt lat="40.0729502" lon="-105.2308466">
  <ele>1595.48</ele>
  <time>2026-08-28T19:11:50Z</time>
  <course>276.43</course>
  <speed>0.04</speed>
  <fix>3d</fix>
</trkpt>
<trkpt lat="40.0729503" lon="-105.2308465">
  <ele>1595.59</ele>
  <time>2026-08-28T19:11:50Z</time>
  <course>302.29</course>
  <speed>0.03</speed>
  <fix>3d</fix>
</trkpt>
<trkpt lat="40.0729503" lon="-105.2308467">
  <ele>1595.48</ele>
  <time>2026-08-28T19:11:50Z</time>
  <course>277.45</course>
  <speed>0.05</speed>
  <fix>3d</fix>
</trkpt>
<trkpt lat="40.0729503" lon="-105.2308467">
  <ele>1595.59</ele>
  <time>2026-08-28T19:11:50Z</time>
  <course>302.27</course>
  <speed>0.03</speed>
  <fix>3d</fix>
</trkpt>
<trkpt lat="40.0729503" lon="-105.2308468">
  <ele>1595.47</ele>
  <time>2026-08-28T19:11:50Z</time>
  <course>278.49</course>
  <speed>0.05</speed>
  <fix>3d</fix>
</trkpt>
<trkpt lat="40.0729503" lon="-105.2308468">
  <ele>1595.58</ele>
  <time>2026-08-28T19:11:51Z</time>
  <course>302.26</course>
  <speed>0.0316227766016838</speed>
  <fix>3d</fix>
</trkpt>
<trkpt lat="40.0729503" lon="-105.230847">
  <ele>1595.47</ele>
  <time>2026-08-28T19:11:51Z</time>
  <course>279.56</course>
  <speed>0.05</speed>
  <fix>3d</fix>
</trkpt>
<trkpt lat="40.0729503" lon="-105.2308469">
  <ele>1595.58</ele>
  <time>2026-08-28T19:11:51Z</time>
  <course>302.25</course>
  <speed>0.0316227766016838</speed>
  <fix>3d</fix>
</trkpt>
<trkpt lat="40.0729503" lon="-105.2308471">
  <ele>1595.46</ele>
  <time>2026-08-28T19:11:51Z</time>
  <course>280.65</course>
  <speed>0.06</speed>
  <fix>3d</fix>
</trkpt>
<trkpt lat="40.0729503" lon="-105.2308471">
  <ele>1595.58</ele>
  <time>2026-08-28T19:11:51Z</time>
  <course>302.24</course>
  <speed>0.0316227766016838</speed>
  <fix>3d</fix>
</trkpt>
<trkpt lat="40.0729503" lon="-105.2308472">
  <ele>1595.46</ele>
  <time>2026-08-28T19:11:51Z</time>
  <course>281.46</course>
  <speed>0.06</speed>
  <fix>3d</fix>
</trkpt>
<trkpt lat="40.0729503" lon="-105.2308472">
  <ele>1595.58</ele>
  <time>2026-08-28T19:11:51Z</time>
  <course>302.26</course>
  <speed>0.0412310562561766</speed>
  <fix>3d</fix>
</trkpt>
<trkpt lat="40.0729504" lon="-105.2308474">
  <ele>1595.46</ele>
  <time>2026-08-28T19:11:51Z</time>
  <course>282.11</course>
  <speed>0.06</speed>
  <fix>3d</fix>
</trkpt>
<trkpt lat="40.0729503" lon="-105.2308474">
  <ele>1595.57</ele>
  <time>2026-08-28T19:11:51Z</time>
  <course>302.26</course>
  <speed>0.0412310562561766</speed>
  <fix>3d</fix>
</trkpt>
<trkpt lat="40.0729505" lon="-105.2308476">
  <ele>1595.45</ele>
  <time>2026-08-28T19:11:51Z</time>
  <course>282.6</course>
  <speed>0.06</speed>
  <fix>3d</fix>
</trkpt>
<trkpt lat="40.0729504" lon="-105.2308475">
  <ele>1595.57</ele>
  <time>2026-08-28T19:11:51Z</time>
  <course>302.24</course>
  <speed>0.044721359549995794</speed>
  <fix>3d</fix>
</trkpt>
<trkpt lat="40.0729505" lon="-105.2308477">
  <ele>1595.45</ele>
  <time>2026-08-28T19:11:51Z</time>
  <course>283.31</course>
  <speed>0.07</speed>
  <fix>3d</fix>
</trkpt>
<trkpt lat="40.0729504" lon="-105.2308477">
  <ele>1595.57</ele>
  <time>2026-08-28T19:11:51Z</time>
  <course>302.24</course>
  <speed>0.044721359549995794</speed>
  <fix>3d</fix>
</trkpt>
<trkpt lat="40.0729505" lon="-105.2308479">
  <ele>1595.45</ele>
  <time>2026-08-28T19:11:51Z</time>
  <course>283.98</course>
  <speed>0.07</speed>
  <fix>3d</fix>
</trkpt>
<trkpt lat="40.0729505" lon="-105.2308479">
  <ele>1595.56</ele>
  <time>2026-08-28T19:11:51Z</time>
  <course>302.23</course>
  <speed>0.053851648071345036</speed>
  <fix>3d</fix>
</trkpt>
<trkpt lat="40.0729505" lon="-105.2308481">
  <ele>1595.45</ele>
  <time>2026-08-28T19:11:51Z</time>
  <course>284.33</course>
  <speed>0.07</speed>
  <fix>3d</fix>
</trkpt>
<trkpt lat="40.0729505" lon="-105.2308481">
  <ele>1595.56</ele>
  <time>2026-08-28T19:11:51Z</time>
  <course>302.24</course>
  <speed>0.053851648071345036</speed>
  <fix>3d</fix>
</trkpt>
<trkpt lat="40.0729506" lon="-105.2308482">
  <ele>1595.45</ele>
  <time>2026-08-28T19:11:51Z</time>
  <course>284.6</course>
  <speed>0.07</speed>
  <fix>3d</fix>
</trkpt>
<trkpt lat="40.0729506" lon="-105.2308482">
  <ele>1595.57</ele>
  <time>2026-08-28T19:11:51Z</time>
  <course>302.25</course>
  <speed>0.053851648071345036</speed>
  <fix>3d</fix>
</trkpt>
<trkpt lat="40.0729506" lon="-105.2308485">
  <ele>1595.45</ele>
  <time>2026-08-28T19:11:51Z</time>
  <course>284.8</course>
  <speed>0.08</speed>
  <fix>3d</fix>
</trkpt>
<trkpt lat="40.0729506" lon="-105.2308484">
  <ele>1595.57</ele>
  <time>2026-08-28T19:11:51Z</time>
  <course>301.73</course>
  <speed>0.05</speed>
  <fix>3d</fix>
</trkpt>
<trkpt lat="40.0729506" lon="-105.2308487">
  <ele>1595.45</ele>
  <time>2026-08-28T19:11:51Z</time>
  <course>285.83</course>
  <speed>0.08</speed>
  <fix>3d</fix>
</trkpt>
<trkpt lat="40.0729507" lon="-105.2308486">
  <ele>1595.57</ele>
  <time>2026-08-28T19:11:51Z</time>
  <course>302.35</course>
  <speed>0.05</speed>
  <fix>3d</fix>
</trkpt>
<trkpt lat="40.0729507" lon="-105.2308488">
  <ele>1595.45</ele>
  <time>2026-08-28T19:11:51Z</time>
  <course>281.62</course>
  <speed>0.08</speed>
  <fix>3d</fix>
</trkpt>
<trkpt lat="40.0729507" lon="-105.2308488">
  <ele>1595.57</ele>
  <time>2026-08-28T19:11:51Z</time>
  <course>302.69</course>
  <speed>0.044721359549995794</speed>
  <fix>3d</fix>
</trkpt>
<trkpt lat="40.0729507" lon="-105.230849">
  <ele>1595.45</ele>
  <time>2026-08-28T19:11:51Z</time>
  <course>274.44</course>
  <speed>0.08</speed>
  <fix>3d</fix>
</trkpt>
<trkpt lat="40.0729507" lon="-105.230849">
  <ele>1595.57</ele>
  <time>2026-08-28T19:11:51Z</time>
  <course>302.77</course>
  <speed>0.0316227766016838</speed>
  <fix>3d</fix>
</trkpt>
<trkpt lat="40.0729508" lon="-105.2308492">
  <ele>1595.45</ele>
  <time>2026-08-28T19:11:51Z</time>
  <course>270.34</course>
  <speed>0.07</speed>
  <fix>3d</fix>
</trkpt>
<trkpt lat="40.0729507" lon="-105.2308491">
  <ele>1595.57</ele>
  <time>2026-08-28T19:11:51Z</time>
  <course>302.74</course>
  <speed>0.03</speed>
  <fix>3d</fix>
</trkpt>
<trkpt lat="40.0729508" lon="-105.2308493">
  <ele>1595.45</ele>
  <time>2026-08-28T19:11:51Z</time>
  <course>267.75</course>
  <speed>0.06</speed>
  <fix>3d</fix>
</trkpt>
<trkpt lat="40.0729507" lon="-105.2308493">
  <ele>1595.57</ele>
  <time>2026-08-28T19:11:51Z</time>
  <course>302.64</course>
  <speed>0.03</speed>
  <fix>3d</fix>
</trkpt>
<trkpt lat="40.0729508" lon="-105.2308495">
  <ele>1595.45</ele>
  <time>2026-08-28T19:11:51Z</time>
  <course>267.43</course>
  <speed>0.06</speed>
  <fix>3d</fix>
</trkpt>
<trkpt lat="40.0729507" lon="-105.2308494">
  <ele>1595.56</ele>
  <time>2026-08-28T19:11:51Z</time>
  <course>302.47</course>
  <speed>0.03</speed>
  <fix>3d</fix>
</trkpt>
<trkpt lat="40.0729508" lon="-105.2308496">
  <ele>1595.45</ele>
  <time>2026-08-28T19:11:51Z</time>
  <course>269.62</course>
  <speed>0.05</speed>
  <fix>3d</fix>
</trkpt>
<trkpt lat="40.0729507" lon="-105.2308496">
  <ele>1595.56</ele>
  <time>2026-08-28T19:11:51Z</time>
  <course>302.26</course>
  <speed>0.03</speed>
  <fix>3d</fix>
</trkpt>
<trkpt lat="40.0729508" lon="-105.2308497">
  <ele>1595.45</ele>
  <time>2026-08-28T19:11:51Z</time>
  <course>274.2</course>
  <speed>0.04</speed>
  <fix>3d</fix>
</trkpt>
<trkpt lat="40.0729507" lon="-105.2308497">
  <ele>1595.57</ele>
  <time>2026-08-28T19:11:51Z</time>
  <course>302.04</course>
  <speed>0.02</speed>
  <fix>3d</fix>
</trkpt>
<trkpt lat="40.0729508" lon="-105.2308498">
  <ele>1595.45</ele>
  <time>2026-08-28T19:11:51Z</time>
  <course>280.78</course>
  <speed>0.04</speed>
  <fix>3d</fix>
</trkpt>
<trkpt lat="40.0729507" lon="-105.2308498">
  <ele>1595.57</ele>
  <time>2026-08-28T19:11:51Z</time>
  <course>301.88</course>
  <speed>0.02</speed>
  <fix>3d</fix>
</trkpt>
<trkpt lat="40.0729508" lon="-105.2308499">
  <ele>1595.45</ele>
  <time>2026-08-28T19:11:51Z</time>
  <course>288.26</course>
  <speed>0.04</speed>
  <fix>3d</fix>
</trkpt>
<trkpt lat="40.0729507" lon="-105.2308499">
  <ele>1595.57</ele>
  <time>2026-08-28T19:11:51Z</time>
  <course>301.76</course>
  <speed>0.02</speed>
  <fix>3d</fix>
</trkpt>
<trkpt lat="40.0729508" lon="-105.23085">
  <ele>1595.45</ele>
  <time>2026-08-28T19:11:51Z</time>
  <course>294.85</course>
  <speed>0.03</speed>
  <fix>3d</fix>
</trkpt>
<trkpt lat="40.0729507" lon="-105.2308499">
  <ele>1595.57</ele>
  <time>2026-08-28T19:11:51Z</time>
  <course>301.73</course>
  <speed>0.01</speed>
  <fix>3d</fix>
</trkpt>
<trkpt lat="40.0729508" lon="-105.2308501">
  <ele>1595.45</ele>
  <time>2026-08-28T19:11:51Z</time>
  <course>299.06</course>
  <speed>0.03</speed>
  <fix>3d</fix>
</trkpt>
<trkpt lat="40.0729508" lon="-105.23085">
  <ele>1595.56</ele>
  <time>2026-08-28T19:11:51Z</time>
  <course>301.76</course>
  <speed>0.01414213562373095</speed>
  <fix>3d</fix>
</trkpt>
<trkpt lat="40.0729508" lon="-105.2308502">
  <ele>1595.45</ele>
  <time>2026-08-28T19:11:51Z</time>
  <course>299.58</course>
  <speed>0.03</speed>
  <fix>3d</fix>
</trkpt>
<trkpt lat="40.0729508" lon="-105.2308501">
  <ele>1595.56</ele>
  <time>2026-08-28T19:11:51Z</time>
  <course>301.86</course>
  <speed>0.01</speed>
  <fix>3d</fix>
</trkpt>
<trkpt lat="40.0729508" lon="-105.2308503">
  <ele>1595.45</ele>
  <time>2026-08-28T19:11:51Z</time>
  <course>296.04</course>
  <speed>0.03</speed>
  <fix>3d</fix>
</trkpt>
<trkpt lat="40.0729509" lon="-105.2308501">
  <ele>1595.56</ele>
  <time>2026-08-28T19:11:51Z</time>
  <course>302.01</course>
  <speed>0.02</speed>
  <fix>3d</fix>
</trkpt>
<trkpt lat="40.0729508" lon="-105.2308504">
  <ele>1595.45</ele>
  <time>2026-08-28T19:11:51Z</time>
  <course>289.07</course>
  <speed>0.03</speed>
  <fix>3d</fix>
</trkpt>
<trkpt lat="40.0729509" lon="-105.2308502">
  <ele>1595.56</ele>
  <time>2026-08-28T19:11:51Z</time>
  <course>303.06</course>
  <speed>0.01414213562373095</speed>
  <fix>3d</fix>
</trkpt>
<trkpt lat="40.0729508" lon="-105.2308505">
  <ele>1595.45</ele>
  <time>2026-08-28T19:11:51Z</time>
  <course>274.98</course>
  <speed>0.04</speed>
  <fix>3d</fix>
</trkpt>
<trkpt lat="40.0729509" lon="-105.2308503">
  <ele>1595.56</ele>
  <time>2026-08-28T19:11:51Z</time>
  <course>302.33</course>
  <speed>0.01414213562373095</speed>
  <fix>3d</fix>
</trkpt>
<trkpt lat="40.0729508" lon="-105.2308506">
  <ele>1595.45</ele>
  <time>2026-08-28T19:11:51Z</time>
  <course>271.87</course>
  <speed>0.04</speed>
  <fix>3d</fix>
</trkpt>
<trkpt lat="40.0729509" lon="-105.2308504">
  <ele>1595.56</ele>
  <time>2026-08-28T19:11:51Z</time>
  <course>301.81</course>
  <speed>0.01414213562373095</speed>
  <fix>3d</fix>
</trkpt>
<trkpt lat="40.0729508" lon="-105.2308507">
  <ele>1595.45</ele>
  <time>2026-08-28T19:11:51Z</time>
  <course>276.94</course>
  <speed>0.04</speed>
  <fix>3d</fix>
</trkpt>
<trkpt lat="40.0729509" lon="-105.2308505">
  <ele>1595.56</ele>
  <time>2026-08-28T19:11:51Z</time>
  <course>301.63</course>
  <speed>0.01414213562373095</speed>
  <fix>3d</fix>
</trkpt>
<trkpt lat="40.0729508" lon="-105.2308508">
  <ele>1595.45</ele>
  <time>2026-08-28T19:11:51Z</time>
  <course>276.42</course>
  <speed>0.04</speed>
  <fix>3d</fix>
</trkpt>
<trkpt lat="40.0729509" lon="-105.2308506">
  <ele>1595.56</ele>
  <time>2026-08-28T19:11:51Z</time>
  <course>301.61</course>
  <speed>0.022360679774997897</speed>
  <fix>3d</fix>
</trkpt>
<trkpt lat="40.0729509" lon="-105.2308509">
  <ele>1595.45</ele>
  <time>2026-08-28T19:11:51Z</time>
  <course>276.81</course>
  <speed>0.04</speed>
  <fix>3d</fix>
</trkpt>
<trkpt lat="40.0729509" lon="-105.2308507">
  <ele>1595.56</ele>
  <time>2026-08-28T19:11:51Z</time>
  <course>301.6</course>
  <speed>0.022360679774997897</speed>
  <fix>3d</fix>
</trkpt>
<trkpt lat="40.0729509" lon="-105.230851">
  <ele>1595.46</ele>
  <time>2026-08-28T19:11:51Z</time>
  <course>277.22</course>
  <speed>0.05</speed>
  <fix>3d</fix>
</trkpt>
<trkpt lat="40.0729509" lon="-105.2308509">
  <ele>1595.56</ele>
  <time>2026-08-28T19:11:51Z</time>
  <course>301.59</course>
  <speed>0.022360679774997897</speed>
  <fix>3d</fix>
</trkpt>
<trkpt lat="40.0729509" lon="-105.2308511">
  <ele>1595.46</ele>
  <time>2026-08-28T19:11:51Z</time>
  <course>277.63</course>
  <speed>0.05</speed>
  <fix>3d</fix>
</trkpt>
<trkpt lat="40.0729509" lon="-105.230851">
  <ele>1595.56</ele>
  <time>2026-08-28T19:11:51Z</time>
  <course>301.59</course>
  <speed>0.0316227766016838</speed>
  <fix>3d</fix>
</trkpt>
<trkpt lat="40.0729509" lon="-105.2308512">
  <ele>1595.46</ele>
  <time>2026-08-28T19:11:51Z</time>
  <course>278.19</course>
  <speed>0.05</speed>
  <fix>3d</fix>
</trkpt>
<trkpt lat="40.072951" lon="-105.2308512">
  <ele>1595.56</ele>
  <time>2026-08-28T19:11:51Z</time>
  <course>301.57</course>
  <speed>0.0316227766016838</speed>
  <fix>3d</fix>
</trkpt>
<trkpt lat="40.0729509" lon="-105.2308514">
  <ele>1595.46</ele>
  <time>2026-08-28T19:11:51Z</time>
  <course>278.74</course>
  <speed>0.06</speed>
  <fix>3d</fix>
</trkpt>
<trkpt lat="40.072951" lon="-105.2308513">
  <ele>1595.56</ele>
  <time>2026-08-28T19:11:51Z</time>
  <course>301.58</course>
  <speed>0.0316227766016838</speed>
  <fix>3d</fix>
</trkpt>
<trkpt lat="40.0729509" lon="-105.2308516">
  <ele>1595.46</ele>
  <time>2026-08-28T19:11:51Z</time>
  <course>279.14</course>
  <speed>0.06</speed>
  <fix>3d</fix>
</trkpt>
<trkpt lat="40.072951" lon="-105.2308515">
  <ele>1595.56</ele>
  <time>2026-08-28T19:11:51Z</time>
  <course>301.59</course>
  <speed>0.0412310562561766</speed>
  <fix>3d</fix>
</trkpt>
<trkpt lat="40.0729509" lon="-105.2308517">
  <ele>1595.46</ele>
  <time>2026-08-28T19:11:51Z</time>
  <course>279.32</course>
  <speed>0.06</speed>
  <fix>3d</fix>
</trkpt>
<trkpt lat="40.072951" lon="-105.2308516">
  <ele>1595.56</ele>
  <time>2026-08-28T19:11:51Z</time>
  <course>301.6</course>
  <speed>0.0412310562561766</speed>
  <fix>3d</fix>
</trkpt>
<trkpt lat="40.072951" lon="-105.2308519">
  <ele>1595.47</ele>
  <time>2026-08-28T19:11:51Z</time>
  <course>279.61</course>
  <speed>0.06</speed>
  <fix>3d</fix>
</trkpt>
<trkpt lat="40.072951" lon="-105.2308518">
  <ele>1595.56</ele>
  <time>2026-08-28T19:11:51Z</time>
  <course>301.58</course>
  <speed>0.0412310562561766</speed>
  <fix>3d</fix>
</trkpt>
<trkpt lat="40.0729511" lon="-105.230852">
  <ele>1595.47</ele>
  <time>2026-08-28T19:11:51Z</time>
  <course>280.12</course>
  <speed>0.07</speed>
  <fix>3d</fix>
</trkpt>
<trkpt lat="40.072951" lon="-105.230852">
  <ele>1595.56</ele>
  <time>2026-08-28T19:11:51Z</time>
  <course>301.58</course>
  <speed>0.044721359549995794</speed>
  <fix>3d</fix>
</trkpt>
<trkpt lat="40.0729511" lon="-105.2308522">
  <ele>1595.47</ele>
  <time>2026-08-28T19:11:51Z</time>
  <course>280.54</course>
  <speed>0.07</speed>
  <fix>3d</fix>
</trkpt>
<trkpt lat="40.0729511" lon="-105.2308522">
  <ele>1595.56</ele>
  <time>2026-08-28T19:11:51Z</time>
  <course>301.59</course>
  <speed>0.053851648071345036</speed>
  <fix>3d</fix>
</trkpt>
<trkpt lat="40.0729511" lon="-105.2308524">
  <ele>1595.47</ele>
  <time>2026-08-28T19:11:51Z</time>
  <course>280.76</course>
  <speed>0.07</speed>
  <fix>3d</fix>
</trkpt>
<trkpt lat="40.0729511" lon="-105.2308523">
  <ele>1595.56</ele>
  <time>2026-08-28T19:11:51Z</time>
  <course>301.59</course>
  <speed>0.053851648071345036</speed>
  <fix>3d</fix>
</trkpt>
<trkpt lat="40.0729511" lon="-105.2308525">
  <ele>1595.48</ele>
  <time>2026-08-28T19:11:51Z</time>
  <course>281.19</course>
  <speed>0.08</speed>
  <fix>3d</fix>
</trkpt>
<trkpt lat="40.0729511" lon="-105.2308525">
  <ele>1595.57</ele>
  <time>2026-08-28T19:11:51Z</time>
  <course>301.6</course>
  <speed>0.053851648071345036</speed>
  <fix>3d</fix>
</trkpt>
<trkpt lat="40.0729512" lon="-105.2308528">
  <ele>1595.48</ele>
  <time>2026-08-28T19:11:51Z</time>
  <course>281.67</course>
  <speed>0.08</speed>
  <fix>3d</fix>
</trkpt>
<trkpt lat="40.0729512" lon="-105.2308527">
  <ele>1595.57</ele>
  <time>2026-08-28T19:11:51Z</time>
  <course>300.83</course>
  <speed>0.06</speed>
  <fix>3d</fix>
</trkpt>
<trkpt lat="40.0729512" lon="-105.230853">
  <ele>1595.48</ele>
  <time>2026-08-28T19:11:51Z</time>
  <course>282.86</course>
  <speed>0.08</speed>
  <fix>3d</fix>
</trkpt>
<trkpt lat="40.0729512" lon="-105.2308529">
  <ele>1595.57</ele>
  <time>2026-08-28T19:11:51Z</time>
  <course>301.04</course>
  <speed>0.05</speed>
  <fix>3d</fix>
</trkpt>
<trkpt lat="40.0729512" lon="-105.2308531">
  <ele>1595.49</ele>
  <time>2026-08-28T19:11:51Z</time>
  <course>285.58</course>
  <speed>0.07</speed>
  <fix>3d</fix>
</trkpt>
<trkpt lat="40.0729512" lon="-105.2308531">
  <ele>1595.57</ele>
  <time>2026-08-28T19:11:51Z</time>
  <course>301.06</course>
  <speed>0.0412310562561766</speed>
  <fix>3d</fix>
</trkpt>
<trkpt lat="40.0729513" lon="-105.2308533">
  <ele>1595.49</ele>
  <time>2026-08-28T19:11:51Z</time>
  <course>288.2</course>
  <speed>0.07</speed>
  <fix>3d</fix>
</trkpt>
<trkpt lat="40.0729513" lon="-105.2308532">
  <ele>1595.56</ele>
  <time>2026-08-28T19:11:51Z</time>
  <course>301.12</course>
  <speed>0.0316227766016838</speed>
  <fix>3d</fix>
</trkpt>
<trkpt lat="40.0729513" lon="-105.2308535">
  <ele>1595.49</ele>
  <time>2026-08-28T19:11:51Z</time>
  <course>288.61</course>
  <speed>0.06</speed>
  <fix>3d</fix>
</trkpt>
<trkpt lat="40.0729513" lon="-105.2308534">
  <ele>1595.56</ele>
  <time>2026-08-28T19:11:51Z</time>
  <course>301.31</course>
  <speed>0.0282842712474619</speed>
  <fix>3d</fix>
</trkpt>
<trkpt lat="40.0729513" lon="-105.2308536">
  <ele>1595.49</ele>
  <time>2026-08-28T19:11:51Z</time>
  <course>285.5</course>
  <speed>0.05</speed>
  <fix>3d</fix>
</trkpt>
<trkpt lat="40.0729513" lon="-105.2308535">
  <ele>1595.56</ele>
  <time>2026-08-28T19:11:51Z</time>
  <course>301.59</course>
  <speed>0.022360679774997897</speed>
  <fix>3d</fix>
</trkpt>
<trkpt lat="40.0729513" lon="-105.2308538">
  <ele>1595.49</ele>
  <time>2026-08-28T19:11:51Z</time>
  <course>278.65</course>
  <speed>0.05</speed>
  <fix>3d</fix>
</trkpt>
<trkpt lat="40.0729514" lon="-105.2308536">
  <ele>1595.57</ele>
  <time>2026-08-28T19:11:51Z</time>
  <course>301.88</course>
  <speed>0.022360679774997897</speed>
  <fix>3d</fix>
</trkpt>
<trkpt lat="40.0729513" lon="-105.2308539">
  <ele>1595.49</ele>
  <time>2026-08-28T19:11:51Z</time>
  <course>269.85</course>
  <speed>0.05</speed>
  <fix>3d</fix>
</trkpt>
<trkpt lat="40.0729514" lon="-105.2308537">
  <ele>1595.58</ele>
  <time>2026-08-28T19:11:51Z</time>
  <course>302.11</course>
  <speed>0.01414213562373095</speed>
  <fix>3d</fix>
</trkpt>
<trkpt lat="40.0729513" lon="-105.230854">
  <ele>1595.5</ele>
  <time>2026-08-28T19:11:51Z</time>
  <course>261.96</course>
  <speed>0.05</speed>
  <fix>3d</fix>
</trkpt>
<trkpt lat="40.0729514" lon="-105.2308538">
  <ele>1595.58</ele>
  <time>2026-08-28T19:11:51Z</time>
  <course>302.19</course>
  <speed>0.01</speed>
  <fix>3d</fix>
</trkpt>
<trkpt lat="40.0729513" lon="-105.2308541">
  <ele>1595.5</ele>
  <time>2026-08-28T19:11:51Z</time>
  <course>257.11</course>
  <speed>0.05</speed>
  <fix>3d</fix>
</trkpt>
<trkpt lat="40.0729513" lon="-105.2308539">
  <ele>1595.58</ele>
  <time>2026-08-28T19:11:51Z</time>
  <course>302.08</course>
  <speed>0.02</speed>
  <fix>3d</fix>
</trkpt>
<trkpt lat="40.0729513" lon="-105.2308542">
  <ele>1595.5</ele>
  <time>2026-08-28T19:11:51Z</time>
  <course>255.82</course>
  <speed>0.05</speed>
  <fix>3d</fix>
</trkpt>
<trkpt lat="40.0729513" lon="-105.2308541">
  <ele>1595.59</ele>
  <time>2026-08-28T19:11:51Z</time>
  <course>301.84</course>
  <speed>0.02</speed>
  <fix>3d</fix>
</trkpt>
<trkpt lat="40.0729513" lon="-105.2308543">
  <ele>1595.5</ele>
  <time>2026-08-28T19:11:51Z</time>
  <course>258.08</course>
  <speed>0.05</speed>
  <fix>3d</fix>
</trkpt>
<trkpt lat="40.0729513" lon="-105.2308542">
  <ele>1595.59</ele>
  <time>2026-08-28T19:11:51Z</time>
  <course>301.56</course>
  <speed>0.022360679774997897</speed>
  <fix>3d</fix>
</trkpt>
<trkpt lat="40.0729513" lon="-105.2308544">
  <ele>1595.5</ele>
  <time>2026-08-28T19:11:51Z</time>
  <course>263.99</course>
  <speed>0.04</speed>
  <fix>3d</fix>
</trkpt>
<trkpt lat="40.0729513" lon="-105.2308543">
  <ele>1595.58</ele>
  <time>2026-08-28T19:11:51Z</time>
  <course>301.3</course>
  <speed>0.02</speed>
  <fix>3d</fix>
</trkpt>
<trkpt lat="40.0729513" lon="-105.2308545">
  <ele>1595.49</ele>
  <time>2026-08-28T19:11:51Z</time>
  <course>273.0</course>
  <speed>0.04</speed>
  <fix>3d</fix>
</trkpt>
<trkpt lat="40.0729513" lon="-105.2308544">
  <ele>1595.58</ele>
  <time>2026-08-28T19:11:51Z</time>
  <course>301.14</course>
  <speed>0.02</speed>
  <fix>3d</fix>
</trkpt>
<trkpt lat="40.0729513" lon="-105.2308546">
  <ele>1595.49</ele>
  <time>2026-08-28T19:11:51Z</time>
  <course>282.59</course>
  <speed>0.03</speed>
  <fix>3d</fix>
</trkpt>
<trkpt lat="40.0729513" lon="-105.2308545">
  <ele>1595.57</ele>
  <time>2026-08-28T19:11:51Z</time>
  <course>301.11</course>
  <speed>0.01</speed>
  <fix>3d</fix>
</trkpt>
<trkpt lat="40.0729513" lon="-105.2308547">
  <ele>1595.49</ele>
  <time>2026-08-28T19:11:51Z</time>
  <course>288.88</course>
  <speed>0.03</speed>
  <fix>3d</fix>
</trkpt>
<trkpt lat="40.0729513" lon="-105.2308546">
  <ele>1595.57</ele>
  <time>2026-08-28T19:11:51Z</time>
  <course>302.61</course>
  <speed>0.01</speed>
  <fix>3d</fix>
</trkpt>
<trkpt lat="40.0729513" lon="-105.2308548">
  <ele>1595.49</ele>
  <time>2026-08-28T19:11:51Z</time>
  <course>278.16</course>
  <speed>0.03</speed>
  <fix>3d</fix>
</trkpt>
<trkpt lat="40.0729513" lon="-105.2308547">
  <ele>1595.56</ele>
  <time>2026-08-28T19:11:51Z</time>
  <course>301.84</course>
  <speed>0.01414213562373095</speed>
  <fix>3d</fix>
</trkpt>
<trkpt lat="40.0729513" lon="-105.2308549">
  <ele>1595.48</ele>
  <time>2026-08-28T19:11:51Z</time>
  <course>272.62</course>
  <speed>0.04</speed>
  <fix>3d</fix>
</trkpt>
<trkpt lat="40.0729513" lon="-105.2308548">
  <ele>1595.56</ele>
  <time>2026-08-28T19:11:51Z</time>
  <course>301.29</course>
  <speed>0.01414213562373095</speed>
  <fix>3d</fix>
</trkpt>
<trkpt lat="40.0729513" lon="-105.230855">
  <ele>1595.48</ele>
  <time>2026-08-28T19:11:51Z</time>
  <course>277.64</course>
  <speed>0.04</speed>
  <fix>3d</fix>
</trkpt>
<trkpt lat="40.0729513" lon="-105.2308549">
  <ele>1595.57</ele>
  <time>2026-08-28T19:11:51Z</time>
  <course>301.07</course>
  <speed>0.022360679774997897</speed>
  <fix>3d</fix>
</trkpt>
<trkpt lat="40.0729513" lon="-105.2308551">
  <ele>1595.48</ele>
  <time>2026-08-28T19:11:51Z</time>
  <course>277.28</course>
  <speed>0.04</speed>
  <fix>3d</fix>
</trkpt>
<trkpt lat="40.0729513" lon="-105.230855">
  <ele>1595.57</ele>
  <time>2026-08-28T19:11:51Z</time>
  <course>301.02</course>
  <speed>0.022360679774997897</speed>
  <fix>3d</fix>
</trkpt>
<trkpt lat="40.0729513" lon="-105.2308552">
  <ele>1595.48</ele>
  <time>2026-08-28T19:11:51Z</time>
  <course>277.27</course>
  <speed>0.05</speed>
  <fix>3d</fix>
</trkpt>
<trkpt lat="40.0729513" lon="-105.2308551">
  <ele>1595.57</ele>
  <time>2026-08-28T19:11:51Z</time>
  <course>301.0</course>
  <speed>0.0316227766016838</speed>
  <fix>3d</fix>
</trkpt>
<trkpt lat="40.0729513" lon="-105.2308554">
  <ele>1595.49</ele>
  <time>2026-08-28T19:11:51Z</time>
  <course>277.74</course>
  <speed>0.05</speed>
  <fix>3d</fix>
</trkpt>
<trkpt lat="40.0729514" lon="-105.2308552">
  <ele>1595.57</ele>
  <time>2026-08-28T19:11:51Z</time>
  <course>301.0</course>
  <speed>0.0316227766016838</speed>
  <fix>3d</fix>
</trkpt>
<trkpt lat="40.0729513" lon="-105.2308555">
  <ele>1595.49</ele>
  <time>2026-08-28T19:11:51Z</time>
  <course>278.45</course>
  <speed>0.05</speed>
  <fix>3d</fix>
</trkpt>
<trkpt lat="40.0729514" lon="-105.2308554">
  <ele>1595.57</ele>
  <time>2026-08-28T19:11:51Z</time>
  <course>301.0</course>
  <speed>0.0316227766016838</speed>
  <fix>3d</fix>
</trkpt>
<trkpt lat="40.0729514" lon="-105.2308556">
  <ele>1595.49</ele>
  <time>2026-08-28T19:11:51Z</time>
  <course>279.15</course>
  <speed>0.06</speed>
  <fix>3d</fix>
</trkpt>
<trkpt lat="40.0729514" lon="-105.2308555">
  <ele>1595.57</ele>
  <time>2026-08-28T19:11:51Z</time>
  <course>300.99</course>
  <speed>0.0316227766016838</speed>
  <fix>3d</fix>
</trkpt>
<trkpt lat="40.0729514" lon="-105.2308558">
  <ele>1595.49</ele>
  <time>2026-08-28T19:11:51Z</time>
  <course>279.8</course>
  <speed>0.06</speed>
  <fix>3d</fix>
</trkpt>
<trkpt lat="40.0729514" lon="-105.2308557">
  <ele>1595.57</ele>
  <time>2026-08-28T19:11:51Z</time>
  <course>301.0</course>
  <speed>0.0412310562561766</speed>
  <fix>3d</fix>
</trkpt>
<trkpt lat="40.0729514" lon="-105.2308559">
  <ele>1595.49</ele>
  <time>2026-08-28T19:11:51Z</time>
  <course>280.4</course>
  <speed>0.06</speed>
  <fix>3d</fix>
</trkpt>
<trkpt lat="40.0729514" lon="-105.2308559">
  <ele>1595.57</ele>
  <time>2026-08-28T19:11:51Z</time>
  <course>301.0</course>
  <speed>0.0412310562561766</speed>
  <fix>3d</fix>
</trkpt>
<trkpt lat="40.0729514" lon="-105.230856">
  <ele>1595.49</ele>
  <time>2026-08-28T19:11:51Z</time>
  <course>280.93</course>
  <speed>0.06</speed>
  <fix>3d</fix>
</trkpt>
<trkpt lat="40.0729515" lon="-105.230856">
  <ele>1595.57</ele>
  <time>2026-08-28T19:11:51Z</time>
  <course>301.0</course>
  <speed>0.0412310562561766</speed>
  <fix>3d</fix>
</trkpt>
<trkpt lat="40.0729514" lon="-105.2308563">
  <ele>1595.49</ele>
  <time>2026-08-28T19:11:51Z</time>
  <course>281.43</course>
  <speed>0.07</speed>
  <fix>3d</fix>
</trkpt>
<trkpt lat="40.0729515" lon="-105.2308562">
  <ele>1595.57</ele>
  <time>2026-08-28T19:11:51Z</time>
  <course>301.0</course>
  <speed>0.044721359549995794</speed>
  <fix>3d</fix>
</trkpt>
<trkpt lat="40.0729514" lon="-105.2308564">
  <ele>1595.49</ele>
  <time>2026-08-28T19:11:51Z</time>
  <course>281.9</course>
  <speed>0.07</speed>
  <fix>3d</fix>
</trkpt>
<trkpt lat="40.0729515" lon="-105.2308564">
  <ele>1595.57</ele>
  <time>2026-08-28T19:11:51Z</time>
  <course>301.01</course>
  <speed>0.053851648071345036</speed>
  <fix>3d</fix>
</trkpt>
<trkpt lat="40.0729514" lon="-105.2308566">
  <ele>1595.49</ele>
  <time>2026-08-28T19:11:51Z</time>
  <course>282.33</course>
  <speed>0.07</speed>
  <fix>3d</fix>
</trkpt>
<trkpt lat="40.0729515" lon="-105.2308566">
  <ele>1595.57</ele>
  <time>2026-08-28T19:11:51Z</time>
  <course>301.01</course>
  <speed>0.053851648071345036</speed>
  <fix>3d</fix>
</trkpt>
<trkpt lat="40.0729515" lon="-105.2308568">
  <ele>1595.49</ele>
  <time>2026-08-28T19:11:51Z</time>
  <course>282.73</course>
  <speed>0.07</speed>
  <fix>3d</fix>
</trkpt>
<trkpt lat="40.0729515" lon="-105.2308568">
  <ele>1595.57</ele>
  <time>2026-08-28T19:11:51Z</time>
  <course>301.01</course>
  <speed>0.053851648071345036</speed>
  <fix>3d</fix>
</trkpt>
<trkpt lat="40.0729515" lon="-105.2308569">
  <ele>1595.49</ele>
  <time>2026-08-28T19:11:51Z</time>
  <course>283.14</course>
  <speed>0.08</speed>
  <fix>3d</fix>
</trkpt>
<trkpt lat="40.0729516" lon="-105.2308569">
  <ele>1595.57</ele>
  <time>2026-08-28T19:11:51Z</time>
  <course>301.0</course>
  <speed>0.053851648071345036</speed>
  <fix>3d</fix>
</trkpt>
<trkpt lat="40.0729515" lon="-105.2308572">
  <ele>1595.49</ele>
  <time>2026-08-28T19:11:51Z</time>
  <course>283.56</course>
  <speed>0.08</speed>
  <fix>3d</fix>
</trkpt>
<trkpt lat="40.0729516" lon="-105.2308571">
  <ele>1595.57</ele>
  <time>2026-08-28T19:11:51Z</time>
  <course>300.72</course>
  <speed>0.06</speed>
  <fix>3d</fix>
</trkpt>
<trkpt lat="40.0729516" lon="-105.2308573">
  <ele>1595.49</ele>
  <time>2026-08-28T19:11:51Z</time>
  <course>281.25</course>
  <speed>0.08</speed>
  <fix>3d</fix>
</trkpt>
<trkpt lat="40.0729516" lon="-105.2308573">
  <ele>1595.56</ele>
  <time>2026-08-28T19:11:51Z</time>
  <course>300.68</course>
  <speed>0.05</speed>
  <fix>3d</fix>
</trkpt>
<trkpt lat="40.0729517" lon="-105.2308576">
  <ele>1595.49</ele>
  <time>2026-08-28T19:11:51Z</time>
  <course>281.44</course>
  <speed>0.08</speed>
  <fix>3d</fix>
</trkpt>
<trkpt lat="40.0729516" lon="-105.2308575">
  <ele>1595.56</ele>
  <time>2026-08-28T19:11:51Z</time>
  <course>300.47</course>
  <speed>0.04</speed>
  <fix>3d</fix>
</trkpt>
<trkpt lat="40.0729517" lon="-105.2308577">
  <ele>1595.49</ele>
  <time>2026-08-28T19:11:51Z</time>
  <course>286.99</course>
  <speed>0.07</speed>
  <fix>3d</fix>
</trkpt>
<trkpt lat="40.0729517" lon="-105.2308577">
  <ele>1595.56</ele>
  <time>2026-08-28T19:11:51Z</time>
  <course>300.43</course>
  <speed>0.0316227766016838</speed>
  <fix>3d</fix>
</trkpt>
<trkpt lat="40.0729517" lon="-105.2308578">
  <ele>1595.49</ele>
  <time>2026-08-28T19:11:51Z</time>
  <course>291.25</course>
  <speed>0.06</speed>
  <fix>3d</fix>
</trkpt>
<trkpt lat="40.0729517" lon="-105.2308578">
  <ele>1595.56</ele>
  <time>2026-08-28T19:11:51Z</time>
  <course>300.65</course>
  <speed>0.0282842712474619</speed>
  <fix>3d</fix>
</trkpt>
<trkpt lat="40.0729517" lon="-105.230858">
  <ele>1595.5</ele>
  <time>2026-08-28T19:11:51Z</time>
  <course>290.59</course>
  <speed>0.05</speed>
  <fix>3d</fix>
</trkpt>
<trkpt lat="40.0729517" lon="-105.2308579">
  <ele>1595.56</ele>
  <time>2026-08-28T19:11:51Z</time>
  <course>301.04</course>
  <speed>0.022360679774997897</speed>
  <fix>3d</fix>
</trkpt>
<trkpt lat="40.0729517" lon="-105.2308581">
  <ele>1595.5</ele>
  <time>2026-08-28T19:11:51Z</time>
  <course>283.15</course>
  <speed>0.05</speed>
  <fix>3d</fix>
</trkpt>
<trkpt lat="40.0729518" lon="-105.230858">
  <ele>1595.56</ele>
  <time>2026-08-28T19:11:51Z</time>
  <course>301.41</course>
  <speed>0.022360679774997897</speed>
  <fix>3d</fix>
</trkpt>
<trkpt lat="40.0729518" lon="-105.2308583">
  <ele>1595.5</ele>
  <time>2026-08-28T19:11:51Z</time>
  <course>272.35</course>
  <speed>0.05</speed>
  <fix>3d</fix>
</trkpt>
<trkpt lat="40.0729518" lon="-105.2308581">
  <ele>1595.57</ele>
  <time>2026-08-28T19:11:51Z</time>
  <course>301.57</course>
  <speed>0.01414213562373095</speed>
  <fix>3d</fix>
</trkpt>
<trkpt lat="40.0729518" lon="-105.2308584">
  <ele>1595.5</ele>
  <time>2026-08-28T19:11:51Z</time>
  <course>263.8</course>
  <speed>0.05</speed>
  <fix>3d</fix>
</trkpt>
<trkpt lat="40.0729518" lon="-105.2308582">
  <ele>1595.57</ele>
  <time>2026-08-28T19:11:51Z</time>
  <course>301.48</course>
  <speed>0.02</speed>
  <fix>3d</fix>
</trkpt>
<trkpt lat="40.0729518" lon="-105.2308585">
  <ele>1595.5</ele>
  <time>2026-08-28T19:11:51Z</time>
  <course>260.49</course>
  <speed>0.05</speed>
  <fix>3d</fix>
</trkpt>
<trkpt lat="40.0729518" lon="-105.2308583">
  <ele>1595.58</ele>
  <time>2026-08-28T19:11:51Z</time>
  <course>301.13</course>
  <speed>0.02</speed>
  <fix>3d</fix>
</trkpt>
<trkpt lat="40.0729518" lon="-105.2308586">
  <ele>1595.5</ele>
  <time>2026-08-28T19:11:51Z</time>
  <course>263.05</course>
  <speed>0.05</speed>
  <fix>3d</fix>
</trkpt>
<trkpt lat="40.0729518" lon="-105.2308585">
  <ele>1595.58</ele>
  <time>2026-08-28T19:11:51Z</time>
  <course>300.74</course>
  <speed>0.02</speed>
  <fix>3d</fix>
</trkpt>
<trkpt lat="40.0729518" lon="-105.2308587">
  <ele>1595.5</ele>
  <time>2026-08-28T19:11:51Z</time>
  <course>271.11</course>
  <speed>0.04</speed>
  <fix>3d</fix>
</trkpt>
<trkpt lat="40.0729518" lon="-105.2308586">
  <ele>1595.58</ele>
  <time>2026-08-28T19:11:51Z</time>
  <course>300.51</course>
  <speed>0.02</speed>
  <fix>3d</fix>
</trkpt>
<trkpt lat="40.0729518" lon="-105.2308588">
  <ele>1595.5</ele>
  <time>2026-08-28T19:11:51Z</time>
  <course>281.64</course>
  <speed>0.04</speed>
  <fix>3d</fix>
</trkpt>
<trkpt lat="40.0729518" lon="-105.2308587">
  <ele>1595.58</ele>
  <time>2026-08-28T19:11:51Z</time>
  <course>300.5</course>
  <speed>0.01</speed>
  <fix>3d</fix>
</trkpt>
<trkpt lat="40.0729518" lon="-105.2308589">
  <ele>1595.5</ele>
  <time>2026-08-28T19:11:51Z</time>
  <course>288.22</course>
  <speed>0.03</speed>
  <fix>3d</fix>
</trkpt>
<trkpt lat="40.0729518" lon="-105.2308588">
  <ele>1595.58</ele>
  <time>2026-08-28T19:11:51Z</time>
  <course>300.73</course>
  <speed>0.01414213562373095</speed>
  <fix>3d</fix>
</trkpt>
<trkpt lat="40.0729518" lon="-105.230859">
  <ele>1595.5</ele>
  <time>2026-08-28T19:11:51Z</time>
  <course>285.84</course>
  <speed>0.03</speed>
  <fix>3d</fix>
</trkpt>
<trkpt lat="40.0729518" lon="-105.2308588">
  <ele>1595.58</ele>
  <time>2026-08-28T19:11:51Z</time>
  <course>301.13</course>
  <speed>0.02</speed>
  <fix>3d</fix>
</trkpt>
<trkpt lat="40.0729518" lon="-105.2308591">
  <ele>1595.5</ele>
  <time>2026-08-28T19:11:51Z</time>
  <course>275.48</course>
  <speed>0.03</speed>
  <fix>3d</fix>
</trkpt>
<trkpt lat="40.0729518" lon="-105.2308589">
  <ele>1595.58</ele>
  <time>2026-08-28T19:11:51Z</time>
  <course>301.97</course>
  <speed>0.01</speed>
  <fix>3d</fix>
</trkpt>
<trkpt lat="40.0729518" lon="-105.2308592">
  <ele>1595.5</ele>
  <time>2026-08-28T19:11:51Z</time>
  <course>262.98</course>
  <speed>0.04</speed>
  <fix>3d</fix>
</trkpt>
<trkpt lat="40.0729518" lon="-105.230859">
  <ele>1595.57</ele>
  <time>2026-08-28T19:11:51Z</time>
  <course>301.54</course>
  <speed>0.01414213562373095</speed>
  <fix>3d</fix>
</trkpt>
<trkpt lat="40.0729518" lon="-105.2308593">
  <ele>1595.49</ele>
  <time>2026-08-28T19:11:51Z</time>
  <course>265.27</course>
  <speed>0.04</speed>
  <fix>3d</fix>
</trkpt>
<trkpt lat="40.0729518" lon="-105.2308591">
  <ele>1595.57</ele>
  <time>2026-08-28T19:11:51Z</time>
  <course>300.85</course>
  <speed>0.01414213562373095</speed>
  <fix>3d</fix>
</trkpt>
<trkpt lat="40.0729518" lon="-105.2308594">
  <ele>1595.49</ele>
  <time>2026-08-28T19:11:51Z</time>
  <course>274.35</course>
  <speed>0.04</speed>
  <fix>3d</fix>
</trkpt>
<trkpt lat="40.0729518" lon="-105.2308592">
  <ele>1595.57</ele>
  <time>2026-08-28T19:11:51Z</time>
  <course>300.55</course>
  <speed>0.022360679774997897</speed>
  <fix>3d</fix>
</trkpt>
<trkpt lat="40.0729518" lon="-105.2308595">
  <ele>1595.49</ele>
  <time>2026-08-28T19:11:51Z</time>
  <course>273.84</course>
  <speed>0.04</speed>
  <fix>3d</fix>
</trkpt>
<trkpt lat="40.0729518" lon="-105.2308593">
  <ele>1595.57</ele>
  <time>2026-08-28T19:11:51Z</time>
  <course>300.43</course>
  <speed>0.022360679774997897</speed>
  <fix>3d</fix>
</trkpt>
<trkpt lat="40.0729518" lon="-105.2308596">
  <ele>1595.49</ele>
  <time>2026-08-28T19:11:51Z</time>
  <course>273.48</course>
  <speed>0.04</speed>
  <fix>3d</fix>
</trkpt>
<trkpt lat="40.0729518" lon="-105.2308595">
  <ele>1595.57</ele>
  <time>2026-08-28T19:11:51Z</time>
  <course>300.39</course>
  <speed>0.022360679774997897</speed>
  <fix>3d</fix>
</trkpt>
<trkpt lat="40.0729518" lon="-105.2308597">
  <ele>1595.49</ele>
  <time>2026-08-28T19:11:51Z</time>
  <course>273.54</course>
  <speed>0.05</speed>
  <fix>3d</fix>
</trkpt>
<trkpt lat="40.0729518" lon="-105.2308596">
  <ele>1595.57</ele>
  <time>2026-08-28T19:11:51Z</time>
  <course>300.37</course>
  <speed>0.022360679774997897</speed>
  <fix>3d</fix>
</trkpt>
<trkpt lat="40.0729518" lon="-105.2308598">
  <ele>1595.49</ele>
  <time>2026-08-28T19:11:51Z</time>
  <course>274.07</course>
  <speed>0.05</speed>
  <fix>3d</fix>
</trkpt>
<trkpt lat="40.0729518" lon="-105.2308597">
  <ele>1595.57</ele>
  <time>2026-08-28T19:11:51Z</time>
  <course>300.36</course>
  <speed>0.0316227766016838</speed>
  <fix>3d</fix>
</trkpt>
<trkpt lat="40.0729518" lon="-105.23086">
  <ele>1595.49</ele>
  <time>2026-08-28T19:11:51Z</time>
  <course>274.92</course>
  <speed>0.05</speed>
  <fix>3d</fix>
</trkpt>
<trkpt lat="40.0729519" lon="-105.2308599">
  <ele>1595.56</ele>
  <time>2026-08-28T19:11:51Z</time>
  <course>300.36</course>
  <speed>0.0316227766016838</speed>
  <fix>3d</fix>
</trkpt>
<trkpt lat="40.0729518" lon="-105.2308601">
  <ele>1595.49</ele>
  <time>2026-08-28T19:11:51Z</time>
  <course>275.67</course>
  <speed>0.05</speed>
  <fix>3d</fix>
</trkpt>
<trkpt lat="40.0729519" lon="-105.23086">
  <ele>1595.56</ele>
  <time>2026-08-28T19:11:51Z</time>
  <course>300.36</course>
  <speed>0.0316227766016838</speed>
  <fix>3d</fix>
</trkpt>
<trkpt lat="40.0729518" lon="-105.2308602">
  <ele>1595.49</ele>
  <time>2026-08-28T19:11:51Z</time>
  <course>276.36</course>
  <speed>0.06</speed>
  <fix>3d</fix>
</trkpt>
<trkpt lat="40.0729519" lon="-105.2308602">
  <ele>1595.56</ele>
  <time>2026-08-28T19:11:51Z</time>
  <course>300.35</course>
  <speed>0.0316227766016838</speed>
  <fix>3d</fix>
</trkpt>
<trkpt lat="40.0729518" lon="-105.2308604">
  <ele>1595.49</ele>
  <time>2026-08-28T19:11:51Z</time>
  <course>277.05</course>
  <speed>0.06</speed>
  <fix>3d</fix>
</trkpt>
<trkpt lat="40.0729519" lon="-105.2308603">
  <ele>1595.56</ele>
  <time>2026-08-28T19:11:51Z</time>
  <course>300.35</course>
  <speed>0.0412310562561766</speed>
  <fix>3d</fix>
</trkpt>
<trkpt lat="40.0729519" lon="-105.2308606">
  <ele>1595.49</ele>
  <time>2026-08-28T19:11:51Z</time>
  <course>277.83</course>
  <speed>0.06</speed>
  <fix>3d</fix>
</trkpt>
<trkpt lat="40.0729519" lon="-105.2308605">
  <ele>1595.56</ele>
  <time>2026-08-28T19:11:51Z</time>
  <course>300.35</course>
  <speed>0.0412310562561766</speed>
  <fix>3d</fix>
</trkpt>
<trkpt lat="40.0729519" lon="-105.2308607">
  <ele>1595.49</ele>
  <time>2026-08-28T19:11:51Z</time>
  <course>278.47</course>
  <speed>0.06</speed>
  <fix>3d</fix>
</trkpt>
<trkpt lat="40.0729519" lon="-105.2308607">
  <ele>1595.56</ele>
  <time>2026-08-28T19:11:51Z</time>
  <course>300.34</course>
  <speed>0.0412310562561766</speed>
  <fix>3d</fix>
</trkpt>
<trkpt lat="40.0729519" lon="-105.2308609">
  <ele>1595.49</ele>
  <time>2026-08-28T19:11:51Z</time>
  <course>278.92</course>
  <speed>0.07</speed>
  <fix>3d</fix>
</trkpt>
<trkpt lat="40.0729519" lon="-105.2308608">
  <ele>1595.57</ele>
  <time>2026-08-28T19:11:51Z</time>
  <course>300.36</course>
  <speed>0.05099019513592785</speed>
  <fix>3d</fix>
</trkpt>
<trkpt lat="40.0729519" lon="-105.2308611">
  <ele>1595.49</ele>
  <time>2026-08-28T19:11:51Z</time>
  <course>279.56</course>
  <speed>0.07</speed>
  <fix>3d</fix>
</trkpt>
<trkpt lat="40.072952" lon="-105.230861">
  <ele>1595.57</ele>
  <time>2026-08-28T19:11:51Z</time>
  <course>300.37</course>
  <speed>0.05099019513592785</speed>
  <fix>3d</fix>
</trkpt>
<trkpt lat="40.0729519" lon="-105.2308612">
  <ele>1595.5</ele>
  <time>2026-08-28T19:11:51Z</time>
  <course>279.98</course>
  <speed>0.07</speed>
  <fix>3d</fix>
</trkpt>
<trkpt lat="40.072952" lon="-105.2308612">
  <ele>1595.57</ele>
  <time>2026-08-28T19:11:51Z</time>
  <course>300.38</course>
  <speed>0.053851648071345036</speed>
  <fix>3d</fix>
</trkpt>
<trkpt lat="40.072952" lon="-105.2308614">
  <ele>1595.5</ele>
  <time>2026-08-28T19:11:51Z</time>
  <course>280.09</course>
  <speed>0.08</speed>
  <fix>3d</fix>
</trkpt>
<trkpt lat="40.072952" lon="-105.2308614">
  <ele>1595.57</ele>
  <time>2026-08-28T19:11:51Z</time>
  <course>299.19</course>
  <speed>0.06082762530298219</speed>
  <fix>3d</fix>
</trkpt>
<trkpt lat="40.072952" lon="-105.2308616">
  <ele>1595.5</ele>
  <time>2026-08-28T19:11:51Z</time>
  <course>284.21</course>
  <speed>0.08</speed>
  <fix>3d</fix>
</trkpt>
<trkpt lat="40.072952" lon="-105.2308616">
  <ele>1595.57</ele>
  <time>2026-08-28T19:11:51Z</time>
  <course>299.65</course>
  <speed>0.044721359549995794</speed>
  <fix>3d</fix>
</trkpt>
<trkpt lat="40.072952" lon="-105.2308617">
  <ele>1595.5</ele>
  <time>2026-08-28T19:11:51Z</time>
  <course>288.8</course>
  <speed>0.07</speed>
  <fix>3d</fix>
</trkpt>
<trkpt lat="40.0729521" lon="-105.2308617">
  <ele>1595.57</ele>
  <time>2026-08-28T19:11:51Z</time>
  <course>300.02</course>
  <speed>0.03605551275463989</speed>
  <fix>3d</fix>
</trkpt>
<trkpt lat="40.072952" lon="-105.230862">
  <ele>1595.5</ele>
  <time>2026-08-28T19:11:51Z</time>
  <course>287.02</course>
  <speed>0.07</speed>
  <fix>3d</fix>
</trkpt>
<trkpt lat="40.0729521" lon="-105.2308619">
  <ele>1595.57</ele>
  <time>2026-08-28T19:11:51Z</time>
  <course>300.46</course>
  <speed>0.0282842712474619</speed>
  <fix>3d</fix>
</trkpt>
<trkpt lat="40.072952" lon="-105.2308621">
  <ele>1595.5</ele>
  <time>2026-08-28T19:11:51Z</time>
  <course>279.68</course>
  <speed>0.06</speed>
  <fix>3d</fix>
</trkpt>
<trkpt lat="40.0729521" lon="-105.230862">
  <ele>1595.56</ele>
  <time>2026-08-28T19:11:51Z</time>
  <course>300.83</course>
  <speed>0.0282842712474619</speed>
  <fix>3d</fix>
</trkpt>
<trkpt lat="40.072952" lon="-105.2308623">
  <ele>1595.5</ele>
  <time>2026-08-28T19:11:51Z</time>
  <course>269.89</course>
  <speed>0.06</speed>
  <fix>3d</fix>
</trkpt>
<trkpt lat="40.0729521" lon="-105.2308621">
  <ele>1595.56</ele>
  <time>2026-08-28T19:11:51Z</time>
  <course>301.01</course>
  <speed>0.022360679774997897</speed>
  <fix>3d</fix>
</trkpt>
<trkpt lat="40.072952" lon="-105.2308624">
  <ele>1595.5</ele>
  <time>2026-08-28T19:11:51Z</time>
  <course>262.38</course>
  <speed>0.06</speed>
  <fix>3d</fix>
</trkpt>
<trkpt lat="40.0729521" lon="-105.2308623">
  <ele>1595.56</ele>
  <time>2026-08-28T19:11:51Z</time>
  <course>300.89</course>
  <speed>0.02</speed>
  <fix>3d</fix>
</trkpt>
<trkpt lat="40.072952" lon="-105.2308626">
  <ele>1595.5</ele>
  <time>2026-08-28T19:11:51Z</time>
  <course>259.41</course>
  <speed>0.06</speed>
  <fix>3d</fix>
</trkpt>
<trkpt lat="40.0729521" lon="-105.2308624">
  <ele>1595.56</ele>
  <time>2026-08-28T19:11:51Z</time>
  <course>300.54</course>
  <speed>0.03</speed>
  <fix>3d</fix>
</trkpt>
<trkpt lat="40.072952" lon="-105.2308627">
  <ele>1595.5</ele>
  <time>2026-08-28T19:11:51Z</time>
  <course>261.76</course>
  <speed>0.05</speed>
  <fix>3d</fix>
</trkpt>
<trkpt lat="40.0729521" lon="-105.2308625">
  <ele>1595.56</ele>
  <time>2026-08-28T19:11:51Z</time>
  <course>300.09</course>
  <speed>0.022360679774997897</speed>
  <fix>3d</fix>
</trkpt>
<trkpt lat="40.072952" lon="-105.2308628">
  <ele>1595.5</ele>
  <time>2026-08-28T19:11:51Z</time>
  <course>269.45</course>
  <speed>0.04</speed>
  <fix>3d</fix>
</trkpt>
<trkpt lat="40.0729521" lon="-105.2308627">
  <ele>1595.57</ele>
  <time>2026-08-28T19:11:51Z</time>
  <course>299.79</course>
  <speed>0.02</speed>
  <fix>3d</fix>
</trkpt>
<trkpt lat="40.072952" lon="-105.2308629">
  <ele>1595.5</ele>
  <time>2026-08-28T19:11:51Z</time>
  <course>280.25</course>
  <speed>0.04</speed>
  <fix>3d</fix>
</trkpt>
<trkpt lat="40.0729521" lon="-105.2308628">
  <ele>1595.57</ele>
  <time>2026-08-28T19:11:51Z</time>
  <course>299.74</course>
  <speed>0.01</speed>
  <fix>3d</fix>
</trkpt>
<trkpt lat="40.072952" lon="-105.230863">
  <ele>1595.51</ele>
  <time>2026-08-28T19:11:51Z</time>
  <course>288.14</course>
  <speed>0.04</speed>
  <fix>3d</fix>
</trkpt>
<trkpt lat="40.0729521" lon="-105.2308629">
  <ele>1595.56</ele>
  <time>2026-08-28T19:11:51Z</time>
  <course>299.97</course>
  <speed>0.01414213562373095</speed>
  <fix>3d</fix>
</trkpt>
<trkpt lat="40.072952" lon="-105.2308631">
  <ele>1595.51</ele>
  <time>2026-08-28T19:11:51Z</time>
  <course>287.46</course>
  <speed>0.03</speed>
  <fix>3d</fix>
</trkpt>
<trkpt lat="40.0729521" lon="-105.230863">
  <ele>1595.56</ele>
  <time>2026-08-28T19:11:51Z</time>
  <course>300.37</course>
  <speed>0.02</speed>
  <fix>3d</fix>
</trkpt>
<trkpt lat="40.072952" lon="-105.2308632">
  <ele>1595.51</ele>
  <time>2026-08-28T19:11:51Z</time>
  <course>278.39</course>
  <speed>0.04</speed>
  <fix>3d</fix>
</trkpt>
<trkpt lat="40.0729521" lon="-105.230863">
  <ele>1595.57</ele>
  <time>2026-08-28T19:11:51Z</time>
  <course>300.77</course>
  <speed>0.01</speed>
  <fix>3d</fix>
</trkpt>
<trkpt lat="40.072952" lon="-105.2308633">
  <ele>1595.51</ele>
  <time>2026-08-28T19:11:51Z</time>
  <course>266.34</course>
  <speed>0.04</speed>
  <fix>3d</fix>
</trkpt>
<trkpt lat="40.0729521" lon="-105.2308631">
  <ele>1595.57</ele>
  <time>2026-08-28T19:11:51Z</time>
  <course>301.0</course>
  <speed>0.01414213562373095</speed>
  <fix>3d</fix>
</trkpt>
<trkpt lat="40.072952" lon="-105.2308634">
  <ele>1595.51</ele>
  <time>2026-08-28T19:11:51Z</time>
  <course>257.6</course>
  <speed>0.04</speed>
  <fix>3d</fix>
</trkpt>
<trkpt lat="40.0729521" lon="-105.2308632">
  <ele>1595.58</ele>
  <time>2026-08-28T19:11:51Z</time>
  <course>301.02</course>
  <speed>0.02</speed>
  <fix>3d</fix>
</trkpt>
<trkpt lat="40.072952" lon="-105.2308635">
  <ele>1595.51</ele>
  <time>2026-08-28T19:11:51Z</time>
  <course>254.57</course>
  <speed>0.05</speed>
  <fix>3d</fix>
</trkpt>
<trkpt lat="40.0729521" lon="-105.2308634">
  <ele>1595.58</ele>
  <time>2026-08-28T19:11:51Z</time>
  <course>301.14</course>
  <speed>0.01</speed>
  <fix>3d</fix>
</trkpt>
<trkpt lat="40.072952" lon="-105.2308636">
  <ele>1595.52</ele>
  <time>2026-08-28T19:11:51Z</time>
  <course>262.84</course>
  <speed>0.04</speed>
  <fix>3d</fix>
</trkpt>
<trkpt lat="40.0729521" lon="-105.2308635">
  <ele>1595.58</ele>
  <time>2026-08-28T19:11:51Z</time>
  <course>300.29</course>
  <speed>0.02</speed>
  <fix>3d</fix>
</trkpt>
<trkpt lat="40.072952" lon="-105.2308637">
  <ele>1595.51</ele>
  <time>2026-08-28T19:11:51Z</time>
  <course>274.04</course>
  <speed>0.04</speed>
  <fix>3d</fix>
</trkpt>
<trkpt lat="40.0729521" lon="-105.2308636">
  <ele>1595.58</ele>
  <time>2026-08-28T19:11:51Z</time>
  <course>299.9</course>
  <speed>0.02</speed>
  <fix>3d</fix>
</trkpt>
<trkpt lat="40.072952" lon="-105.2308638">
  <ele>1595.51</ele>
  <time>2026-08-28T19:11:51Z</time>
  <course>274.4</course>
  <speed>0.04</speed>
  <fix>3d</fix>
</trkpt>
<trkpt lat="40.0729521" lon="-105.2308637">
  <ele>1595.58</ele>
  <time>2026-08-28T19:11:51Z</time>
  <course>299.74</course>
  <speed>0.02</speed>
  <fix>3d</fix>
</trkpt>
<trkpt lat="40.072952" lon="-105.2308639">
  <ele>1595.51</ele>
  <time>2026-08-28T19:11:51Z</time>
  <course>274.48</course>
  <speed>0.05</speed>
  <fix>3d</fix>
</trkpt>
<trkpt lat="40.0729521" lon="-105.2308638">
  <ele>1595.58</ele>
  <time>2026-08-28T19:11:52Z</time>
  <course>299.68</course>
  <speed>0.03</speed>
  <fix>3d</fix>
</trkpt>
<trkpt lat="40.072952" lon="-105.230864">
  <ele>1595.51</ele>
  <time>2026-08-28T19:11:52Z</time>
  <course>275.02</course>
  <speed>0.05</speed>
  <fix>3d</fix>
</trkpt>
<trkpt lat="40.0729521" lon="-105.230864">
  <ele>1595.58</ele>
  <time>2026-08-28T19:11:52Z</time>
  <course>299.66</course>
  <speed>0.0316227766016838</speed>
  <fix>3d</fix>
</trkpt>
<trkpt lat="40.072952" lon="-105.2308642">
  <ele>1595.51</ele>
  <time>2026-08-28T19:11:52Z</time>
  <course>275.78</course>
  <speed>0.05</speed>
  <fix>3d</fix>
</trkpt>
<trkpt lat="40.0729521" lon="-105.2308641">
  <ele>1595.58</ele>
  <time>2026-08-28T19:11:52Z</time>
  <course>299.67</course>
  <speed>0.0316227766016838</speed>
  <fix>3d</fix>
</trkpt>
<trkpt lat="40.072952" lon="-105.2308643">
  <ele>1595.5</ele>
  <time>2026-08-28T19:11:52Z</time>
  <course>276.82</course>
  <speed>0.05</speed>
  <fix>3d</fix>
</trkpt>
<trkpt lat="40.0729521" lon="-105.2308642">
  <ele>1595.58</ele>
  <time>2026-08-28T19:11:52Z</time>
  <course>299.66</course>
  <speed>0.0316227766016838</speed>
  <fix>3d</fix>
</trkpt>
<trkpt lat="40.072952" lon="-105.2308645">
  <ele>1595.5</ele>
  <time>2026-08-28T19:11:52Z</time>
  <course>277.64</course>
  <speed>0.06</speed>
  <fix>3d</fix>
</trkpt>
<trkpt lat="40.0729521" lon="-105.2308644">
  <ele>1595.58</ele>
  <time>2026-08-28T19:11:52Z</time>
  <course>299.65</course>
  <speed>0.0412310562561766</speed>
  <fix>3d</fix>
</trkpt>
<trkpt lat="40.0729521" lon="-105.2308646">
  <ele>1595.5</ele>
  <time>2026-08-28T19:11:52Z</time>
  <course>278.52</course>
  <speed>0.06</speed>
  <fix>3d</fix>
</trkpt>
<trkpt lat="40.0729521" lon="-105.2308646">
  <ele>1595.58</ele>
  <time>2026-08-28T19:11:52Z</time>
  <course>299.64</course>
  <speed>0.0412310562561766</speed>
  <fix>3d</fix>
</trkpt>
<trkpt lat="40.0729521" lon="-105.2308648">
  <ele>1595.49</ele>
  <time>2026-08-28T19:11:52Z</time>
  <course>279.43</course>
  <speed>0.06</speed>
  <fix>3d</fix>
</trkpt>
<trkpt lat="40.0729521" lon="-105.2308647">
  <ele>1595.58</ele>
  <time>2026-08-28T19:11:52Z</time>
  <course>299.66</course>
  <speed>0.0412310562561766</speed>
  <fix>3d</fix>
</trkpt>
<trkpt lat="40.0729521" lon="-105.230865">
  <ele>1595.49</ele>
  <time>2026-08-28T19:11:52Z</time>
  <course>279.98</course>
  <speed>0.07</speed>
  <fix>3d</fix>
</trkpt>
<trkpt lat="40.0729521" lon="-105.2308649">
  <ele>1595.58</ele>
  <time>2026-08-28T19:11:52Z</time>
  <course>299.65</course>
  <speed>0.0412310562561766</speed>
  <fix>3d</fix>
</trkpt>
<trkpt lat="40.0729521" lon="-105.2308651">
  <ele>1595.49</ele>
  <time>2026-08-28T19:11:52Z</time>
  <course>280.48</course>
  <speed>0.07</speed>
  <fix>3d</fix>
</trkpt>
<trkpt lat="40.0729521" lon="-105.2308651">
  <ele>1595.58</ele>
  <time>2026-08-28T19:11:52Z</time>
  <course>299.66</course>
  <speed>0.05099019513592785</speed>
  <fix>3d</fix>
</trkpt>
<trkpt lat="40.0729522" lon="-105.2308653">
  <ele>1595.49</ele>
  <time>2026-08-28T19:11:52Z</time>
  <course>281.1</course>
  <speed>0.07</speed>
  <fix>3d</fix>
</trkpt>
<trkpt lat="40.0729522" lon="-105.2308653">
  <ele>1595.58</ele>
  <time>2026-08-28T19:11:52Z</time>
  <course>299.68</course>
  <speed>0.053851648071345036</speed>
  <fix>3d</fix>
</trkpt>
<trkpt lat="40.0729523" lon="-105.2308654">
  <ele>1595.48</ele>
  <time>2026-08-28T19:11:52Z</time>
  <course>281.41</course>
  <speed>0.07</speed>
  <fix>3d</fix>
</trkpt>
<trkpt lat="40.0729522" lon="-105.2308654">
  <ele>1595.58</ele>
  <time>2026-08-28T19:11:52Z</time>
  <course>299.67</course>
  <speed>0.053851648071345036</speed>
  <fix>3d</fix>
</trkpt>
<trkpt lat="40.0729523" lon="-105.2308657">
  <ele>1595.48</ele>
  <time>2026-08-28T19:11:52Z</time>
  <course>281.8</course>
  <speed>0.08</speed>
  <fix>3d</fix>
</trkpt>
<trkpt lat="40.0729523" lon="-105.2308656">
  <ele>1595.57</ele>
  <time>2026-08-28T19:11:52Z</time>
  <course>299.68</course>
  <speed>0.053851648071345036</speed>
  <fix>3d</fix>
</trkpt>
<trkpt lat="40.0729523" lon="-105.2308659">
  <ele>1595.48</ele>
  <time>2026-08-28T19:11:52Z</time>
  <course>282.33</course>
  <speed>0.08</speed>
  <fix>3d</fix>
</trkpt>
<trkpt lat="40.0729523" lon="-105.2308658">
  <ele>1595.56</ele>
  <time>2026-08-28T19:11:52Z</time>
  <course>298.54</course>
  <speed>0.05830951894845301</speed>
  <fix>3d</fix>
</trkpt>
<trkpt lat="40.0729523" lon="-105.230866">
  <ele>1595.47</ele>
  <time>2026-08-28T19:11:52Z</time>
  <course>286.2</course>
  <speed>0.08</speed>
  <fix>3d</fix>
</trkpt>
<trkpt lat="40.0729523" lon="-105.230866">
  <ele>1595.56</ele>
  <time>2026-08-28T19:11:52Z</time>
  <course>299.68</course>
  <speed>0.05</speed>
  <fix>3d</fix>
</trkpt>
<trkpt lat="40.0729524" lon="-105.2308663">
  <ele>1595.47</ele>
  <time>2026-08-28T19:11:52Z</time>
  <course>284.0</course>
  <speed>0.08</speed>
  <fix>3d</fix>
</trkpt>
<trkpt lat="40.0729524" lon="-105.2308662">
  <ele>1595.55</ele>
  <time>2026-08-28T19:11:52Z</time>
  <course>300.24</course>
  <speed>0.044721359549995794</speed>
  <fix>3d</fix>
</trkpt>
<trkpt lat="40.0729524" lon="-105.2308664">
  <ele>1595.47</ele>
  <time>2026-08-28T19:11:52Z</time>
  <course>273.52</course>
  <speed>0.08</speed>
  <fix>3d</fix>
</trkpt>
<trkpt lat="40.0729524" lon="-105.2308664">
  <ele>1595.55</ele>
  <time>2026-08-28T19:11:52Z</time>
  <course>300.23</course>
  <speed>0.04</speed>
  <fix>3d</fix>
</trkpt>
<trkpt lat="40.0729524" lon="-105.2308665">
  <ele>1595.47</ele>
  <time>2026-08-28T19:11:52Z</time>
  <course>266.86</course>
  <speed>0.07</speed>
  <fix>3d</fix>
</trkpt>
<trkpt lat="40.0729524" lon="-105.2308665">
  <ele>1595.55</ele>
  <time>2026-08-28T19:11:52Z</time>
  <course>299.79</course>
  <speed>0.03</speed>
  <fix>3d</fix>
</trkpt>
<trkpt lat="40.0729525" lon="-105.2308667">
  <ele>1595.47</ele>
  <time>2026-08-28T19:11:52Z</time>
  <course>267.03</course>
  <speed>0.06</speed>
  <fix>3d</fix>
</trkpt>
<trkpt lat="40.0729524" lon="-105.2308667">
  <ele>1595.55</ele>
  <time>2026-08-28T19:11:52Z</time>
  <course>299.22</course>
  <speed>0.03</speed>
  <fix>3d</fix>
</trkpt>
<trkpt lat="40.0729525" lon="-105.2308669">
  <ele>1595.48</ele>
  <time>2026-08-28T19:11:52Z</time>
  <course>275.12</course>
  <speed>0.05</speed>
  <fix>3d</fix>
</trkpt>
<trkpt lat="40.0729524" lon="-105.2308668">
  <ele>1595.55</ele>
  <time>2026-08-28T19:11:52Z</time>
  <course>298.94</course>
  <speed>0.02</speed>
  <fix>3d</fix>
</trkpt>
<trkpt lat="40.0729525" lon="-105.230867">
  <ele>1595.48</ele>
  <time>2026-08-28T19:11:52Z</time>
  <course>286.6</course>
  <speed>0.04</speed>
  <fix>3d</fix>
</trkpt>
<trkpt lat="40.0729524" lon="-105.2308669">
  <ele>1595.55</ele>
  <time>2026-08-28T19:11:52Z</time>
  <course>299.1</course>
  <speed>0.01414213562373095</speed>
  <fix>3d</fix>
</trkpt>
<trkpt lat="40.0729525" lon="-105.2308671">
  <ele>1595.48</ele>
  <time>2026-08-28T19:11:52Z</time>
  <course>290.73</course>
  <speed>0.04</speed>
  <fix>3d</fix>
</trkpt>
<trkpt lat="40.0729524" lon="-105.230867">
  <ele>1595.55</ele>
  <time>2026-08-28T19:11:52Z</time>
  <course>299.62</course>
  <speed>0.022360679774997897</speed>
  <fix>3d</fix>
</trkpt>
<trkpt lat="40.0729525" lon="-105.2308672">
  <ele>1595.49</ele>
  <time>2026-08-28T19:11:52Z</time>
  <course>281.44</course>
  <speed>0.04</speed>
  <fix>3d</fix>
</trkpt>
<trkpt lat="40.0729525" lon="-105.2308671">
  <ele>1595.55</ele>
  <time>2026-08-28T19:11:52Z</time>
  <course>300.12</course>
  <speed>0.01414213562373095</speed>
  <fix>3d</fix>
</trkpt>
<trkpt lat="40.0729525" lon="-105.2308673">
  <ele>1595.49</ele>
  <time>2026-08-28T19:11:52Z</time>
  <course>265.8</course>
  <speed>0.04</speed>
  <fix>3d</fix>
</trkpt>
<trkpt lat="40.0729525" lon="-105.2308672">
  <ele>1595.55</ele>
  <time>2026-08-28T19:11:52Z</time>
  <course>300.31</course>
  <speed>0.01</speed>
  <fix>3d</fix>
</trkpt>
<trkpt lat="40.0729525" lon="-105.2308674">
  <ele>1595.5</ele>
  <time>2026-08-28T19:11:52Z</time>
  <course>255.69</course>
  <speed>0.05</speed>
  <fix>3d</fix>
</trkpt>
<trkpt lat="40.0729525" lon="-105.2308673">
  <ele>1595.56</ele>
  <time>2026-08-28T19:11:52Z</time>
  <course>300.04</course>
  <speed>0.02</speed>
  <fix>3d</fix>
</trkpt>
<trkpt lat="40.0729525" lon="-105.2308675">
  <ele>1595.5</ele>
  <time>2026-08-28T19:11:52Z</time>
  <course>254.2</course>
  <speed>0.05</speed>
  <fix>3d</fix>
</trkpt>
<trkpt lat="40.0729525" lon="-105.2308674">
  <ele>1595.57</ele>
  <time>2026-08-28T19:11:52Z</time>
  <course>299.5</course>
  <speed>0.022360679774997897</speed>
  <fix>3d</fix>
</trkpt>
<trkpt lat="40.0729525" lon="-105.2308676">
  <ele>1595.51</ele>
  <time>2026-08-28T19:11:52Z</time>
  <course>261.24</course>
  <speed>0.04</speed>
  <fix>3d</fix>
</trkpt>
<trkpt lat="40.0729525" lon="-105.2308675">
  <ele>1595.57</ele>
  <time>2026-08-28T19:11:52Z</time>
  <course>299.06</course>
  <speed>0.02</speed>
  <fix>3d</fix>
</trkpt>
<trkpt lat="40.0729525" lon="-105.2308677">
  <ele>1595.51</ele>
  <time>2026-08-28T19:11:52Z</time>
  <course>275.19</course>
  <speed>0.03</speed>
  <fix>3d</fix>
</trkpt>
<trkpt lat="40.0729525" lon="-105.2308676">
  <ele>1595.58</ele>
  <time>2026-08-28T19:11:52Z</time>
  <course>299.01</course>
  <speed>0.01</speed>
  <fix>3d</fix>
</trkpt>
<trkpt lat="40.0729525" lon="-105.2308678">
  <ele>1595.51</ele>
  <time>2026-08-28T19:11:52Z</time>
  <course>286.35</course>
  <speed>0.03</speed>
  <fix>3d</fix>
</trkpt>
<trkpt lat="40.0729525" lon="-105.2308677">
  <ele>1595.58</ele>
  <time>2026-08-28T19:11:52Z</time>
  <course>299.4</course>
  <speed>0.01</speed>
  <fix>3d</fix>
</trkpt>
<trkpt lat="40.0729525" lon="-105.2308679">
  <ele>1595.51</ele>
  <time>2026-08-28T19:11:52Z</time>
  <course>283.44</course>
  <speed>0.03</speed>
  <fix>3d</fix>
</trkpt>
<trkpt lat="40.0729525" lon="-105.2308678">
  <ele>1595.58</ele>
  <time>2026-08-28T19:11:52Z</time>
  <course>300.96</course>
  <speed>0.01</speed>
  <fix>3d</fix>
</trkpt>
<trkpt lat="40.0729525" lon="-105.230868">
  <ele>1595.51</ele>
  <time>2026-08-28T19:11:52Z</time>
  <course>264.47</course>
  <speed>0.04</speed>
  <fix>3d</fix>
</trkpt>
<trkpt lat="40.0729525" lon="-105.2308678">
  <ele>1595.57</ele>
  <time>2026-08-28T19:11:52Z</time>
  <course>301.26</course>
  <speed>0.01</speed>
  <fix>3d</fix>
</trkpt>
<trkpt lat="40.0729525" lon="-105.2308681">
  <ele>1595.51</ele>
  <time>2026-08-28T19:11:52Z</time>
  <course>259.92</course>
  <speed>0.04</speed>
  <fix>3d</fix>
</trkpt>
<trkpt lat="40.0729525" lon="-105.2308679">
  <ele>1595.56</ele>
  <time>2026-08-28T19:11:52Z</time>
  <course>301.56</course>
  <speed>0.01</speed>
  <fix>3d</fix>
</trkpt>
<trkpt lat="40.0729525" lon="-105.2308682">
  <ele>1595.51</ele>
  <time>2026-08-28T19:11:52Z</time>
  <course>265.54</course>
  <speed>0.04</speed>
  <fix>3d</fix>
</trkpt>
<trkpt lat="40.0729525" lon="-105.230868">
  <ele>1595.51</ele>
  <time>2026-08-28T19:11:52Z</time>
  <course>302.47</course>
  <speed>0.02</speed>
  <fix>3d</fix>
</trkpt>
<trkpt lat="40.0729525" lon="-105.2308683">
  <ele>1595.49</ele>
  <time>2026-08-28T19:11:52Z</time>
  <course>263.64</course>
  <speed>0.04</speed>
  <fix>3d</fix>
</trkpt>
<trkpt lat="40.0729525" lon="-105.2308682">
  <ele>1595.36</ele>
  <time>2026-08-28T19:11:52Z</time>
  <course>303.81</course>
  <speed>0.0412310562561766</speed>
  <fix>3d</fix>
</trkpt>
<trkpt lat="40.0729525" lon="-105.2308684">
  <ele>1595.41</ele>
  <time>2026-08-28T19:11:52Z</time>
  <course>263.45</course>
  <speed>0.05</speed>
  <fix>3d</fix>
</trkpt>
<trkpt lat="40.0729525" lon="-105.2308684">
  <ele>1594.92</ele>
  <time>2026-08-28T19:11:52Z</time>
  <course>305.18</course>
  <speed>0.1</speed>
  <fix>3d</fix>
</trkpt>
<trkpt lat="40.0729525" lon="-105.2308686">
  <ele>1595.18</ele>
  <time>2026-08-28T19:11:52Z</time>
  <course>243.95</course>
  <speed>0.08</speed>
  <fix>3d</fix>
</trkpt>
<trkpt lat="40.0729523" lon="-105.2308687">
  <ele>1594.2</ele>
  <time>2026-08-28T19:11:52Z</time>
  <course>306.56</course>
  <speed>0.14212670403551894</speed>
  <fix>3d</fix>
</trkpt>
<trkpt lat="40.0729524" lon="-105.2308688">
  <ele>1594.67</ele>
  <time>2026-08-28T19:11:52Z</time>
  <course>232.11</course>
  <speed>0.13</speed>
  <fix>3d</fix>
</trkpt>
<trkpt lat="40.0729522" lon="-105.230869">
  <ele>1593.3</ele>
  <time>2026-08-28T19:11:52Z</time>
  <course>308.44</course>
  <speed>0.15</speed>
  <fix>3d</fix>
</trkpt>
<trkpt lat="40.0729521" lon="-105.230869">
  <ele>1593.9</ele>
  <time>2026-08-28T19:11:52Z</time>
  <course>231.02</course>
  <speed>0.16</speed>
  <fix>3d</fix>
</trkpt>
<trkpt lat="40.072952" lon="-105.2308693">
  <ele>1592.27</ele>
  <time>2026-08-28T19:11:52Z</time>
  <course>311.01</course>
  <speed>0.147648230602334</speed>
  <fix>3d</fix>
</trkpt>
<trkpt lat="40.072952" lon="-105.2308694">
  <ele>1592.98</ele>
  <time>2026-08-28T19:11:52Z</time>
  <course>234.0</course>
  <speed>0.17</speed>
  <fix>3d</fix>
</trkpt>
<trkpt lat="40.0729519" lon="-105.2308697">
  <ele>1591.18</ele>
  <time>2026-08-28T19:11:52Z</time>
  <course>313.43</course>
  <speed>0.13601470508735444</speed>
  <fix>3d</fix>
</trkpt>
<trkpt lat="40.0729518" lon="-105.2308697">
  <ele>1591.94</ele>
  <time>2026-08-28T19:11:52Z</time>
  <course>240.32</course>
  <speed>0.17</speed>
  <fix>3d</fix>
</trkpt>
<trkpt lat="40.0729518" lon="-105.23087">
  <ele>1590.03</ele>
  <time>2026-08-28T19:11:52Z</time>
  <course>315.4</course>
  <speed>0.130384048104053</speed>
  <fix>3d</fix>
</trkpt>
<trkpt lat="40.0729517" lon="-105.2308701">
  <ele>1590.83</ele>
  <time>2026-08-28T19:11:52Z</time>
  <course>249.62</course>
  <speed>0.16</speed>
  <fix>3d</fix>
</trkpt>
<trkpt lat="40.0729517" lon="-105.2308704">
  <ele>1588.85</ele>
  <time>2026-08-28T19:11:52Z</time>
  <course>317.1</course>
  <speed>0.140356688476182</speed>
  <fix>3d</fix>
</trkpt>
<trkpt lat="40.0729516" lon="-105.2308705">
  <ele>1589.68</ele>
  <time>2026-08-28T19:11:52Z</time>
  <course>260.59</course>
  <speed>0.16</speed>
  <fix>3d</fix>
</trkpt>
<trkpt lat="40.0729518" lon="-105.2308708">
  <ele>1587.66</ele>
  <time>2026-08-28T19:11:52Z</time>
  <course>318.61</course>
  <speed>0.15524174696260024</speed>
  <fix>3d</fix>
</trkpt>
<trkpt lat="40.0729515" lon="-105.2308709">
  <ele>1588.51</ele>
  <time>2026-08-28T19:11:52Z</time>
  <course>271.85</course>
  <speed>0.17</speed>
  <fix>3d</fix>
</trkpt>
<trkpt lat="40.0729517" lon="-105.2308712">
  <ele>1586.45</ele>
  <time>2026-08-28T19:11:52Z</time>
  <course>320.0</course>
  <speed>0.17464249196572978</speed>
  <fix>3d</fix>
</trkpt>
<trkpt lat="40.0729516" lon="-105.2308712">
  <ele>1587.32</ele>
  <time>2026-08-28T19:11:52Z</time>
  <course>282.08</course>
  <speed>0.18</speed>
  <fix>3d</fix>
</trkpt>
<trkpt lat="40.0729519" lon="-105.2308717">
  <ele>1585.34</ele>
  <time>2026-08-28T19:11:52Z</time>
  <course>320.93</course>
  <speed>0.05830951894845301</speed>
  <fix>3d</fix>
</trkpt>
<trkpt lat="40.0729517" lon="-105.2308717">
  <ele>1586.12</ele>
  <time>2026-08-28T19:11:52Z</time>
  <course>290.05</course>
  <speed>0.2</speed>
  <fix>3d</fix>
</trkpt>
<trkpt lat="40.0729518" lon="-105.2308716">
  <ele>1585.44</ele>
  <time>2026-08-28T19:11:52Z</time>
  <course>320.98</course>
  <speed>0.1044030650891055</speed>
  <fix>3d</fix>
</trkpt>
<trkpt lat="40.0729518" lon="-105.230872">
  <ele>1585.41</ele>
  <time>2026-08-28T19:11:52Z</time>
  <course>288.7</course>
  <speed>0.07</speed>
  <fix>3d</fix>
</trkpt>
<trkpt lat="40.0729518" lon="-105.2308715">
  <ele>1585.57</ele>
  <time>2026-08-28T19:11:52Z</time>
  <course>321.03</course>
  <speed>0.04</speed>
  <fix>3d</fix>
</trkpt>
<trkpt lat="40.0729518" lon="-105.230872">
  <ele>1585.45</ele>
  <time>2026-08-28T19:11:52Z</time>
  <course>119.86</course>
  <speed>0.03</speed>
  <fix>3d</fix>
</trkpt>
<trkpt lat="40.0729518" lon="-105.2308716">
  <ele>1585.49</ele>
  <time>2026-08-28T19:11:52Z</time>
  <course>321.08</course>
  <speed>0.02</speed>
  <fix>3d</fix>
</trkpt>
<trkpt lat="40.0729518" lon="-105.2308719">
  <ele>1585.58</ele>
  <time>2026-08-28T19:11:52Z</time>
  <course>85.54</course>
  <speed>0.0</speed>
  <fix>3d</fix>
</trkpt>
<trkpt lat="40.0729518" lon="-105.2308716">
  <ele>1585.47</ele>
  <time>2026-08-28T19:11:52Z</time>
  <course>321.12</course>
  <speed>0.03</speed>
  <fix>3d</fix>
</trkpt>
<trkpt lat="40.0729518" lon="-105.2308719">
  <ele>1585.56</ele>
  <time>2026-08-28T19:11:52Z</time>
  <course>316.16</course>
  <speed>0.0</speed>
  <fix>3d</fix>
</trkpt>
<trkpt lat="40.0729518" lon="-105.2308716">
  <ele>1585.48</ele>
  <time>2026-08-28T19:11:52Z</time>
  <course>321.15</course>
  <speed>0.03</speed>
  <fix>3d</fix>
</trkpt>
<trkpt lat="40.0729518" lon="-105.2308719">
  <ele>1585.55</ele>
  <time>2026-08-28T19:11:52Z</time>
  <course>52.59</course>
  <speed>0.0</speed>
  <fix>3d</fix>
</trkpt>
<trkpt lat="40.0729518" lon="-105.2308716">
  <ele>1585.49</ele>
  <time>2026-08-28T19:11:52Z</time>
  <course>321.18</course>
  <speed>0.02</speed>
  <fix>3d</fix>
</trkpt>
<trkpt lat="40.0729518" lon="-105.2308719">
  <ele>1585.55</ele>
  <time>2026-08-28T19:11:52Z</time>
  <course>78.3</course>
  <speed>0.0</speed>
  <fix>3d</fix>
</trkpt>
<trkpt lat="40.0729518" lon="-105.2308716">
  <ele>1585.49</ele>
  <time>2026-08-28T19:11:52Z</time>
  <course>321.21</course>
  <speed>0.02</speed>
  <fix>3d</fix>
</trkpt>
<trkpt lat="40.0729518" lon="-105.2308719">
  <ele>1585.55</ele>
  <time>2026-08-28T19:11:52Z</time>
  <course>43.7</course>
  <speed>0.0</speed>
  <fix>3d</fix>
</trkpt>
<trkpt lat="40.0729518" lon="-105.2308716">
  <ele>1585.49</ele>
  <time>2026-08-28T19:11:52Z</time>
  <course>321.24</course>
  <speed>0.02</speed>
  <fix>3d</fix>
</trkpt>
<trkpt lat="40.0729518" lon="-105.2308719">
  <ele>1585.55</ele>
  <time>2026-08-28T19:11:52Z</time>
  <course>43.15</course>
  <speed>0.0</speed>
  <fix>3d</fix>
</trkpt>
<trkpt lat="40.0729518" lon="-105.2308716">
  <ele>1585.5</ele>
  <time>2026-08-28T19:11:52Z</time>
  <course>321.26</course>
  <speed>0.02</speed>
  <fix>3d</fix>
</trkpt>
<trkpt lat="40.0729518" lon="-105.2308719">
  <ele>1585.55</ele>
  <time>2026-08-28T19:11:52Z</time>
  <course>51.7</course>
  <speed>0.0</speed>
  <fix>3d</fix>
</trkpt>
<trkpt lat="40.0729518" lon="-105.2308716">
  <ele>1585.5</ele>
  <time>2026-08-28T19:11:52Z</time>
  <course>321.28</course>
  <speed>0.02</speed>
  <fix>3d</fix>
</trkpt>
<trkpt lat="40.0729518" lon="-105.2308719">
  <ele>1585.55</ele>
  <time>2026-08-28T19:11:52Z</time>
  <course>50.53</course>
  <speed>0.0</speed>
  <fix>3d</fix>
</trkpt>
<trkpt lat="40.0729518" lon="-105.2308716">
  <ele>1585.51</ele>
  <time>2026-08-28T19:11:52Z</time>
  <course>321.29</course>
  <speed>0.02</speed>
  <fix>3d</fix>
</trkpt>
<trkpt lat="40.0729518" lon="-105.2308719">
  <ele>1585.55</ele>
  <time>2026-08-28T19:11:52Z</time>
  <course>49.03</course>
  <speed>0.0</speed>
  <fix>3d</fix>
</trkpt>
<trkpt lat="40.0729518" lon="-105.2308716">
  <ele>1585.51</ele>
  <time>2026-08-28T19:11:52Z</time>
  <course>321.29</course>
  <speed>0.02</speed>
  <fix>3d</fix>
</trkpt>
<trkpt lat="40.0729518" lon="-105.2308719">
  <ele>1585.55</ele>
  <time>2026-08-28T19:11:52Z</time>
  <course>31.96</course>
  <speed>0.0</speed>
  <fix>3d</fix>
</trkpt>
<trkpt lat="40.0729518" lon="-105.2308716">
  <ele>1585.52</ele>
  <time>2026-08-28T19:11:52Z</time>
  <course>321.27</course>
  <speed>0.02</speed>
  <fix>3d</fix>
</trkpt>
<trkpt lat="40.0729518" lon="-105.2308719">
  <ele>1585.55</ele>
  <time>2026-08-28T19:11:52Z</time>
  <course>30.22</course>
  <speed>0.0</speed>
  <fix>3d</fix>
</trkpt>
<trkpt lat="40.0729518" lon="-105.2308716">
  <ele>1585.52</ele>
  <time>2026-08-28T19:11:52Z</time>
  <course>321.25</course>
  <speed>0.02</speed>
  <fix>3d</fix>
</trkpt>
<trkpt lat="40.0729518" lon="-105.2308719">
  <ele>1585.55</ele>
  <time>2026-08-28T19:11:52Z</time>
  <course>191.57</course>
  <speed>0.0</speed>
  <fix>3d</fix>
</trkpt>
<trkpt lat="40.0729518" lon="-105.2308716">
  <ele>1585.52</ele>
  <time>2026-08-28T19:11:52Z</time>
  <course>321.23</course>
  <speed>0.02</speed>
  <fix>3d</fix>
</trkpt>
<trkpt lat="40.0729518" lon="-105.2308719">
  <ele>1585.55</ele>
  <time>2026-08-28T19:11:52Z</time>
  <course>191.15</course>
  <speed>0.0</speed>
  <fix>3d</fix>
</trkpt>
<trkpt lat="40.0729518" lon="-105.2308716">
  <ele>1585.53</ele>
  <time>2026-08-28T19:11:52Z</time>
  <course>321.21</course>
  <speed>0.02</speed>
  <fix>3d</fix>
</trkpt>
<trkpt lat="40.0729518" lon="-105.2308719">
  <ele>1585.55</ele>
  <time>2026-08-28T19:11:52Z</time>
  <course>184.3</course>
  <speed>0.0</speed>
  <fix>3d</fix>
</trkpt>
<trkpt lat="40.0729518" lon="-105.2308716">
  <ele>1585.53</ele>
  <time>2026-08-28T19:11:52Z</time>
  <course>321.19</course>
  <speed>0.02</speed>
  <fix>3d</fix>
</trkpt>
<trkpt lat="40.0729518" lon="-105.2308719">
  <ele>1585.55</ele>
  <time>2026-08-28T19:11:52Z</time>
  <course>185.05</course>
  <speed>0.0</speed>
  <fix>3d</fix>
</trkpt>
<trkpt lat="40.0729518" lon="-105.2308716">
  <ele>1585.53</ele>
  <time>2026-08-28T19:11:52Z</time>
  <course>321.17</course>
  <speed>0.02</speed>
  <fix>3d</fix>
</trkpt>
<trkpt lat="40.0729518" lon="-105.2308719">
  <ele>1585.55</ele>
  <time>2026-08-28T19:11:52Z</time>
  <course>185.2</course>
  <speed>0.0</speed>
  <fix>3d</fix>
</trkpt>
<trkpt lat="40.0729518" lon="-105.2308716">
  <ele>1585.54</ele>
  <time>2026-08-28T19:11:52Z</time>
  <course>321.16</course>
  <speed>0.02</speed>
  <fix>3d</fix>
</trkpt>
<trkpt lat="40.0729518" lon="-105.2308719">
  <ele>1585.55</ele>
  <time>2026-08-28T19:11:52Z</time>
  <course>188.96</course>
  <speed>0.0</speed>
  <fix>3d</fix>
</trkpt>
<trkpt lat="40.0729518" lon="-105.2308716">
  <ele>1585.54</ele>
  <time>2026-08-28T19:11:52Z</time>
  <course>321.14</course>
  <speed>0.02</speed>
  <fix>3d</fix>
</trkpt>
<trkpt lat="40.0729518" lon="-105.2308719">
  <ele>1585.55</ele>
  <time>2026-08-28T19:11:52Z</time>
  <course>198.82</course>
  <speed>0.0</speed>
  <fix>3d</fix>
</trkpt>
<trkpt lat="40.0729518" lon="-105.2308716">
  <ele>1585.54</ele>
  <time>2026-08-28T19:11:52Z</time>
  <course>321.13</course>
  <speed>0.02</speed>
  <fix>3d</fix>
</trkpt>
<trkpt lat="40.0729518" lon="-105.2308719">
  <ele>1585.55</ele>
  <time>2026-08-28T19:11:52Z</time>
  <course>215.5</course>
  <speed>0.0</speed>
  <fix>3d</fix>
</trkpt>
<trkpt lat="40.0729518" lon="-105.2308716">
  <ele>1585.55</ele>
  <time>2026-08-28T19:11:52Z</time>
  <course>321.11</course>
  <speed>0.02</speed>
  <fix>3d</fix>
</trkpt>
<trkpt lat="40.0729518" lon="-105.2308719">
  <ele>1585.55</ele>
  <time>2026-08-28T19:11:52Z</time>
  <course>227.66</course>
  <speed>0.0</speed>
  <fix>3d</fix>
</trkpt>
<trkpt lat="40.0729518" lon="-105.2308716">
  <ele>1585.55</ele>
  <time>2026-08-28T19:11:52Z</time>
  <course>321.1</course>
  <speed>0.02</speed>
  <fix>3d</fix>
</trkpt>
<trkpt lat="40.0729518" lon="-105.2308719">
  <ele>1585.55</ele>
  <time>2026-08-28T19:11:52Z</time>
  <course>232.51</course>
  <speed>0.0</speed>
  <fix>3d</fix>
</trkpt>
<trkpt lat="40.0729518" lon="-105.2308716">
  <ele>1585.56</ele>
  <time>2026-08-28T19:11:52Z</time>
  <course>321.09</course>
  <speed>0.02</speed>
  <fix>3d</fix>
</trkpt>
<trkpt lat="40.0729518" lon="-105.2308719">
  <ele>1585.55</ele>
  <time>2026-08-28T19:11:52Z</time>
  <course>231.16</course>
  <speed>0.0</speed>
  <fix>3d</fix>
</trkpt>
<trkpt lat="40.0729518" lon="-105.2308716">
  <ele>1585.56</ele>
  <time>2026-08-28T19:11:52Z</time>
  <course>321.08</course>
  <speed>0.02</speed>
  <fix>3d</fix>
</trkpt>
<trkpt lat="40.0729518" lon="-105.2308719">
  <ele>1585.55</ele>
  <time>2026-08-28T19:11:52Z</time>
  <course>230.28</course>
  <speed>0.0</speed>
  <fix>3d</fix>
</trkpt>
<trkpt lat="40.0729518" lon="-105.2308716">
  <ele>1585.56</ele>
  <time>2026-08-28T19:11:52Z</time>
  <course>321.07</course>
  <speed>0.02</speed>
  <fix>3d</fix>
</trkpt>
<trkpt lat="40.0729518" lon="-105.2308719">
  <ele>1585.55</ele>
  <time>2026-08-28T19:11:52Z</time>
  <course>230.55</course>
  <speed>0.0</speed>
  <fix>3d</fix>
</trkpt>
<trkpt lat="40.0729518" lon="-105.2308716">
  <ele>1585.56</ele>
  <time>2026-08-28T19:11:52Z</time>
  <course>321.06</course>
  <speed>0.02</speed>
  <fix>3d</fix>
</trkpt>
<trkpt lat="40.0729518" lon="-105.2308719">
  <ele>1585.55</ele>
  <time>2026-08-28T19:11:52Z</time>
  <course>230.62</course>
  <speed>0.0</speed>
  <fix>3d</fix>
</trkpt>
<trkpt lat="40.0729518" lon="-105.2308716">
  <ele>1585.57</ele>
  <time>2026-08-28T19:11:52Z</time>
  <course>321.05</course>
  <speed>0.02</speed>
  <fix>3d</fix>
</trkpt>
<trkpt lat="40.0729518" lon="-105.2308719">
  <ele>1585.55</ele>
  <time>2026-08-28T19:11:52Z</time>
  <course>230.52</course>
  <speed>0.0</speed>
  <fix>3d</fix>
</trkpt>
<trkpt lat="40.0729518" lon="-105.2308716">
  <ele>1585.57</ele>
  <time>2026-08-28T19:11:52Z</time>
  <course>321.05</course>
  <speed>0.02</speed>
  <fix>3d</fix>
</trkpt>
<trkpt lat="40.0729518" lon="-105.2308719">
  <ele>1585.55</ele>
  <time>2026-08-28T19:11:52Z</time>
  <course>230.49</course>
  <speed>0.0</speed>
  <fix>3d</fix>
</trkpt>
<trkpt lat="40.0729518" lon="-105.2308716">
  <ele>1585.57</ele>
  <time>2026-08-28T19:11:52Z</time>
  <course>321.04</course>
  <speed>0.02</speed>
  <fix>3d</fix>
</trkpt>
<trkpt lat="40.0729518" lon="-105.2308719">
  <ele>1585.55</ele>
  <time>2026-08-28T19:11:52Z</time>
  <course>230.47</course>
  <speed>0.0</speed>
  <fix>3d</fix>
</trkpt>
<trkpt lat="40.0729518" lon="-105.2308716">
  <ele>1585.57</ele>
  <time>2026-08-28T19:11:52Z</time>
  <course>321.03</course>
  <speed>0.02</speed>
  <fix>3d</fix>
</trkpt>
<trkpt lat="40.0729518" lon="-105.2308719">
  <ele>1585.55</ele>
  <time>2026-08-28T19:11:52Z</time>
  <course>230.45</course>
  <speed>0.0</speed>
  <fix>3d</fix>
</trkpt>
<trkpt lat="40.0729518" lon="-105.2308716">
  <ele>1585.57</ele>
  <time>2026-08-28T19:11:52Z</time>
  <course>321.02</course>
  <speed>0.02</speed>
  <fix>3d</fix>
</trkpt>
<trkpt lat="40.0729518" lon="-105.2308719">
  <ele>1585.55</ele>
  <time>2026-08-28T19:11:52Z</time>
  <course>230.41</course>
  <speed>0.0</speed>
  <fix>3d</fix>
</trkpt>
<trkpt lat="40.0729518" lon="-105.2308716">
  <ele>1585.57</ele>
  <time>2026-08-28T19:11:52Z</time>
  <course>321.02</course>
  <speed>0.02</speed>
  <fix>3d</fix>
</trkpt>
<trkpt lat="40.0729518" lon="-105.2308719">
  <ele>1585.55</ele>
  <time>2026-08-28T19:11:52Z</time>
  <course>230.39</course>
  <speed>0.0</speed>
  <fix>3d</fix>
</trkpt>
<trkpt lat="40.0729518" lon="-105.2308716">
  <ele>1585.57</ele>
  <time>2026-08-28T19:11:52Z</time>
  <course>321.01</course>
  <speed>0.02</speed>
  <fix>3d</fix>
</trkpt>
<trkpt lat="40.0729518" lon="-105.2308719">
  <ele>1585.55</ele>
  <time>2026-08-28T19:11:52Z</time>
  <course>230.36</course>
  <speed>0.0</speed>
  <fix>3d</fix>
</trkpt>
<trkpt lat="40.0729518" lon="-105.2308716">
  <ele>1585.57</ele>
  <time>2026-08-28T19:11:52Z</time>
  <course>321.01</course>
  <speed>0.02</speed>
  <fix>3d</fix>
</trkpt>
<trkpt lat="40.0729518" lon="-105.2308719">
  <ele>1585.55</ele>
  <time>2026-08-28T19:11:52Z</time>
  <course>230.33</course>
  <speed>0.0</speed>
  <fix>3d</fix>
</trkpt>
<trkpt lat="40.0729518" lon="-105.2308716">
  <ele>1585.57</ele>
  <time>2026-08-28T19:11:52Z</time>
  <course>321.0</course>
  <speed>0.02</speed>
  <fix>3d</fix>
</trkpt>
<trkpt lat="40.0729518" lon="-105.2308719">
  <ele>1585.55</ele>
  <time>2026-08-28T19:11:52Z</time>
  <course>230.3</course>
  <speed>0.0</speed>
  <fix>3d</fix>
</trkpt>
<trkpt lat="40.0729518" lon="-105.2308716">
  <ele>1585.57</ele>
  <time>2026-08-28T19:11:52Z</time>
  <course>321.0</course>
  <speed>0.02</speed>
  <fix>3d</fix>
</trkpt>
<trkpt lat="40.0729518" lon="-105.2308719">
  <ele>1585.55</ele>
  <time>2026-08-28T19:11:52Z</time>
  <course>230.26</course>
  <speed>0.0</speed>
  <fix>3d</fix>
</trkpt>
<trkpt lat="40.0729518" lon="-105.2308716">
  <ele>1585.57</ele>
  <time>2026-08-28T19:11:52Z</time>
  <course>320.99</course>
  <speed>0.02</speed>
  <fix>3d</fix>
</trkpt>
<trkpt lat="40.0729518" lon="-105.2308719">
  <ele>1585.55</ele>
  <time>2026-08-28T19:11:52Z</time>
  <course>230.22</course>
  <speed>0.0</speed>
  <fix>3d</fix>
</trkpt>
<trkpt lat="40.0729518" lon="-105.2308717">
  <ele>1585.57</ele>
  <time>2026-08-28T19:11:52Z</time>
  <course>320.99</course>
  <speed>0.02</speed>
  <fix>3d</fix>
</trkpt>
<trkpt lat="40.0729518" lon="-105.2308719">
  <ele>1585.55</ele>
  <time>2026-08-28T19:11:52Z</time>
  <course>230.18</course>
  <speed>0.0</speed>
  <fix>3d</fix>
</trkpt>
<trkpt lat="40.0729518" lon="-105.2308717">
  <ele>1585.58</ele>
  <time>2026-08-28T19:11:52Z</time>
  <course>320.99</course>
  <speed>0.02</speed>
  <fix>3d</fix>
</trkpt>
<trkpt lat="40.0729518" lon="-105.2308719">
  <ele>1585.55</ele>
  <time>2026-08-28T19:11:52Z</time>
  <course>230.15</course>
  <speed>0.0</speed>
  <fix>3d</fix>
</trkpt>
<trkpt lat="40.0729518" lon="-105.2308717">
  <ele>1585.57</ele>
  <time>2026-08-28T19:11:52Z</time>
  <course>321.02</course>
  <speed>0.02</speed>
  <fix>3d</fix>
</trkpt>
<trkpt lat="40.0729518" lon="-105.2308719">
  <ele>1585.55</ele>
  <time>2026-08-28T19:11:52Z</time>
  <course>230.35</course>
  <speed>0.0</speed>
  <fix>3d</fix>
</trkpt>
<trkpt lat="40.0729518" lon="-105.2308717">
  <ele>1585.57</ele>
  <time>2026-08-28T19:11:52Z</time>
  <course>321.07</course>
  <speed>0.02</speed>
  <fix>3d</fix>
</trkpt>
<trkpt lat="40.0729518" lon="-105.2308719">
  <ele>1585.55</ele>
  <time>2026-08-28T19:11:52Z</time>
  <course>230.34</course>
  <speed>0.0</speed>
  <fix>3d</fix>
</trkpt>
<trkpt lat="40.0729518" lon="-105.2308717">
  <ele>1585.57</ele>
  <time>2026-08-28T19:11:52Z</time>
  <course>321.11</course>
  <speed>0.02</speed>
  <fix>3d</fix>
</trkpt>
<trkpt lat="40.0729518" lon="-105.2308719">
  <ele>1585.55</ele>
  <time>2026-08-28T19:11:52Z</time>
  <course>50.48</course>
  <speed>0.0</speed>
  <fix>3d</fix>
</trkpt>
<trkpt lat="40.0729518" lon="-105.2308717">
  <ele>1585.57</ele>
  <time>2026-08-28T19:11:52Z</time>
  <course>321.14</course>
  <speed>0.02</speed>
  <fix>3d</fix>
</trkpt>
<trkpt lat="40.0729518" lon="-105.2308719">
  <ele>1585.55</ele>
  <time>2026-08-28T19:11:52Z</time>
  <course>50.66</course>
  <speed>0.0</speed>
  <fix>3d</fix>
</trkpt>
<trkpt lat="40.0729518" lon="-105.2308717">
  <ele>1585.58</ele>
  <time>2026-08-28T19:11:52Z</time>
  <course>321.18</course>
  <speed>0.02</speed>
  <fix>3d</fix>
</trkpt>
<trkpt lat="40.0729518" lon="-105.2308719">
  <ele>1585.55</ele>
  <time>2026-08-28T19:11:52Z</time>
  <course>229.87</course>
  <speed>0.0</speed>
  <fix>3d</fix>
</trkpt>
<trkpt lat="40.0729518" lon="-105.2308717">
  <ele>1585.59</ele>
  <time>2026-08-28T19:11:52Z</time>
  <course>321.22</course>
  <speed>0.02</speed>
  <fix>3d</fix>
</trkpt>
<trkpt lat="40.0729518" lon="-105.2308719">
  <ele>1585.55</ele>
  <time>2026-08-28T19:11:52Z</time>
  <course>228.47</course>
  <speed>0.0</speed>
  <fix>3d</fix>
</trkpt>
<trkpt lat="40.0729518" lon="-105.2308717">
  <ele>1585.59</ele>
  <time>2026-08-28T19:11:52Z</time>
  <course>321.26</course>
  <speed>0.02</speed>
  <fix>3d</fix>
</trkpt>
<trkpt lat="40.0729518" lon="-105.2308719">
  <ele>1585.55</ele>
  <time>2026-08-28T19:11:52Z</time>
  <course>100.82</course>
  <speed>0.0</speed>
  <fix>3d</fix>
</trkpt>
<trkpt lat="40.0729518" lon="-105.2308717">
  <ele>1585.59</ele>
  <time>2026-08-28T19:11:52Z</time>
  <course>321.3</course>
  <speed>0.02</speed>
  <fix>3d</fix>
</trkpt>
<trkpt lat="40.0729518" lon="-105.2308719">
  <ele>1585.55</ele>
  <time>2026-08-28T19:11:52Z</time>
  <course>226.32</course>
  <speed>0.0</speed>
  <fix>3d</fix>
</trkpt>
<trkpt lat="40.0729518" lon="-105.2308717">
  <ele>1585.6</ele>
  <time>2026-08-28T19:11:52Z</time>
  <course>321.33</course>
  <speed>0.02</speed>
  <fix>3d</fix>
</trkpt>
<trkpt lat="40.0729518" lon="-105.2308719">
  <ele>1585.55</ele>
  <time>2026-08-28T19:11:52Z</time>
  <course>226.91</course>
  <speed>0.0</speed>
  <fix>3d</fix>
</trkpt>
<trkpt lat="40.0729518" lon="-105.2308717">
  <ele>1585.6</ele>
  <time>2026-08-28T19:11:52Z</time>
  <course>321.37</course>
  <speed>0.02</speed>
  <fix>3d</fix>
</trkpt>
<trkpt lat="40.0729518" lon="-105.2308719">
  <ele>1585.55</ele>
  <time>2026-08-28T19:11:52Z</time>
  <course>226.35</course>
  <speed>0.0</speed>
  <fix>3d</fix>
</trkpt>
<trkpt lat="40.0729518" lon="-105.2308717">
  <ele>1585.6</ele>
  <time>2026-08-28T19:11:52Z</time>
  <course>321.41</course>
  <speed>0.02</speed>
  <fix>3d</fix>
</trkpt>
<trkpt lat="40.0729518" lon="-105.2308719">
  <ele>1585.55</ele>
  <time>2026-08-28T19:11:52Z</time>
  <course>226.34</course>
  <speed>0.0</speed>
  <fix>3d</fix>
</trkpt>
<trkpt lat="40.0729518" lon="-105.2308717">
  <ele>1585.59</ele>
  <time>2026-08-28T19:11:52Z</time>
  <course>321.44</course>
  <speed>0.02</speed>
  <fix>3d</fix>
</trkpt>
<trkpt lat="40.0729518" lon="-105.2308719">
  <ele>1585.55</ele>
  <time>2026-08-28T19:11:52Z</time>
  <course>226.42</course>
  <speed>0.0</speed>
  <fix>3d</fix>
</trkpt>
<trkpt lat="40.0729518" lon="-105.2308717">
  <ele>1585.59</ele>
  <time>2026-08-28T19:11:52Z</time>
  <course>321.48</course>
  <speed>0.02</speed>
  <fix>3d</fix>
</trkpt>
<trkpt lat="40.0729518" lon="-105.2308719">
  <ele>1585.55</ele>
  <time>2026-08-28T19:11:52Z</time>
  <course>226.42</course>
  <speed>0.0</speed>
  <fix>3d</fix>
</trkpt>
<trkpt lat="40.0729518" lon="-105.2308717">
  <ele>1585.59</ele>
  <time>2026-08-28T19:11:52Z</time>
  <course>321.52</course>
  <speed>0.01</speed>
  <fix>3d</fix>
</trkpt>
<trkpt lat="40.0729518" lon="-105.2308719">
  <ele>1585.55</ele>
  <time>2026-08-28T19:11:52Z</time>
  <course>226.4</course>
  <speed>0.0</speed>
  <fix>3d</fix>
</trkpt>
<trkpt lat="40.0729518" lon="-105.2308717">
  <ele>1585.59</ele>
  <time>2026-08-28T19:11:52Z</time>
  <course>321.56</course>
  <speed>0.01</speed>
  <fix>3d</fix>
</trkpt>
<trkpt lat="40.0729518" lon="-105.2308719">
  <ele>1585.55</ele>
  <time>2026-08-28T19:11:52Z</time>
  <course>226.41</course>
  <speed>0.0</speed>
  <fix>3d</fix>
</trkpt>
<trkpt lat="40.0729518" lon="-105.2308717">
  <ele>1585.6</ele>
  <time>2026-08-28T19:11:52Z</time>
  <course>321.6</course>
  <speed>0.01</speed>
  <fix>3d</fix>
</trkpt>
<trkpt lat="40.0729518" lon="-105.2308719">
  <ele>1585.55</ele>
  <time>2026-08-28T19:11:52Z</time>
  <course>226.41</course>
  <speed>0.0</speed>
  <fix>3d</fix>
</trkpt>
<trkpt lat="40.0729518" lon="-105.2308717">
  <ele>1585.6</ele>
  <time>2026-08-28T19:11:52Z</time>
  <course>321.63</course>
  <speed>0.01</speed>
  <fix>3d</fix>
</trkpt>
<trkpt lat="40.0729518" lon="-105.2308719">
  <ele>1585.55</ele>
  <time>2026-08-28T19:11:52Z</time>
  <course>226.41</course>
  <speed>0.0</speed>
  <fix>3d</fix>
</trkpt>
<trkpt lat="40.0729518" lon="-105.2308717">
  <ele>1585.61</ele>
  <time>2026-08-28T19:11:52Z</time>
  <course>321.67</course>
  <speed>0.01</speed>
  <fix>3d</fix>
</trkpt>
<trkpt lat="40.0729518" lon="-105.2308719">
  <ele>1585.55</ele>
  <time>2026-08-28T19:11:52Z</time>
  <course>226.41</course>
  <speed>0.0</speed>
  <fix>3d</fix>
</trkpt>
<trkpt lat="40.0729518" lon="-105.2308717">
  <ele>1585.62</ele>
  <time>2026-08-28T19:11:52Z</time>
  <course>321.71</course>
  <speed>0.01</speed>
  <fix>3d</fix>
</trkpt>
<trkpt lat="40.0729518" lon="-105.2308719">
  <ele>1585.55</ele>
  <time>2026-08-28T19:11:52Z</time>
  <course>226.41</course>
  <speed>0.0</speed>
  <fix>3d</fix>
</trkpt>
<trkpt lat="40.0729518" lon="-105.2308717">
  <ele>1585.62</ele>
  <time>2026-08-28T19:11:52Z</time>
  <course>321.75</course>
  <speed>0.01</speed>
  <fix>3d</fix>
</trkpt>
<trkpt lat="40.0729518" lon="-105.2308719">
  <ele>1585.55</ele>
  <time>2026-08-28T19:11:52Z</time>
  <course>226.41</course>
  <speed>0.0</speed>
  <fix>3d</fix>
</trkpt>
<trkpt lat="40.0729518" lon="-105.2308717">
  <ele>1585.63</ele>
  <time>2026-08-28T19:11:52Z</time>
  <course>321.79</course>
  <speed>0.01</speed>
  <fix>3d</fix>
</trkpt>
<trkpt lat="40.0729518" lon="-105.2308719">
  <ele>1585.55</ele>
  <time>2026-08-28T19:11:52Z</time>
  <course>226.41</course>
  <speed>0.0</speed>
  <fix>3d</fix>
</trkpt>
<trkpt lat="40.0729518" lon="-105.2308717">
  <ele>1585.63</ele>
  <time>2026-08-28T19:11:52Z</time>
  <course>321.83</course>
  <speed>0.01</speed>
  <fix>3d</fix>
</trkpt>
<trkpt lat="40.0729518" lon="-105.2308719">
  <ele>1585.55</ele>
  <time>2026-08-28T19:11:52Z</time>
  <course>226.41</course>
  <speed>0.0</speed>
  <fix>3d</fix>
</trkpt>
<trkpt lat="40.0729518" lon="-105.2308717">
  <ele>1585.63</ele>
  <time>2026-08-28T19:11:52Z</time>
  <course>321.87</course>
  <speed>0.01</speed>
  <fix>3d</fix>
</trkpt>
<trkpt lat="40.0729518" lon="-105.2308719">
  <ele>1585.55</ele>
  <time>2026-08-28T19:11:52Z</time>
  <course>226.41</course>
  <speed>0.0</speed>
  <fix>3d</fix>
</trkpt>
<trkpt lat="40.0729518" lon="-105.2308717">
  <ele>1585.63</ele>
  <time>2026-08-28T19:11:52Z</time>
  <course>321.9</course>
  <speed>0.01</speed>
  <fix>3d</fix>
</trkpt>
<trkpt lat="40.0729518" lon="-105.2308719">
  <ele>1585.55</ele>
  <time>2026-08-28T19:11:52Z</time>
  <course>159.27</course>
  <speed>0.0</speed>
  <fix>3d</fix>
</trkpt>
<trkpt lat="40.0729518" lon="-105.2308717">
  <ele>1585.63</ele>
  <time>2026-08-28T19:11:52Z</time>
  <course>321.94</course>
  <speed>0.01</speed>
  <fix>3d</fix>
</trkpt>
<trkpt lat="40.0729518" lon="-105.2308719">
  <ele>1585.55</ele>
  <time>2026-08-28T19:11:52Z</time>
  <course>208.24</course>
  <speed>0.0</speed>
  <fix>3d</fix>
</trkpt>
<trkpt lat="40.0729518" lon="-105.2308717">
  <ele>1585.63</ele>
  <time>2026-08-28T19:11:52Z</time>
  <course>321.98</course>
  <speed>0.01</speed>
  <fix>3d</fix>
</trkpt>
<trkpt lat="40.0729518" lon="-105.2308719">
  <ele>1585.55</ele>
  <time>2026-08-28T19:11:52Z</time>
  <course>226.55</course>
  <speed>0.0</speed>
  <fix>3d</fix>
</trkpt>
<trkpt lat="40.0729518" lon="-105.2308717">
  <ele>1585.63</ele>
  <time>2026-08-28T19:11:52Z</time>
  <course>322.02</course>
  <speed>0.01</speed>
  <fix>3d</fix>
</trkpt>
<trkpt lat="40.0729518" lon="-105.2308719">
  <ele>1585.55</ele>
  <time>2026-08-28T19:11:52Z</time>
  <course>222.05</course>
  <speed>0.0</speed>
  <fix>3d</fix>
</trkpt>
<trkpt lat="40.0729518" lon="-105.2308717">
  <ele>1585.63</ele>
  <time>2026-08-28T19:11:52Z</time>
  <course>322.06</course>
  <speed>0.01</speed>
  <fix>3d</fix>
</trkpt>
<trkpt lat="40.0729518" lon="-105.2308719">
  <ele>1585.55</ele>
  <time>2026-08-28T19:11:52Z</time>
  <course>227.23</course>
  <speed>0.0</speed>
  <fix>3d</fix>
</trkpt>
<trkpt lat="40.0729518" lon="-105.2308717">
  <ele>1585.63</ele>
  <time>2026-08-28T19:11:52Z</time>
  <course>322.1</course>
  <speed>0.01</speed>
  <fix>3d</fix>
</trkpt>
<trkpt lat="40.0729518" lon="-105.2308719">
  <ele>1585.55</ele>
  <time>2026-08-28T19:11:52Z</time>
  <course>226.9</course>
  <speed>0.0</speed>
  <fix>3d</fix>
</trkpt>
<trkpt lat="40.0729518" lon="-105.2308717">
  <ele>1585.63</ele>
  <time>2026-08-28T19:11:52Z</time>
  <course>322.14</course>
  <speed>0.01</speed>
  <fix>3d</fix>
</trkpt>
<trkpt lat="40.0729518" lon="-105.2308719">
  <ele>1585.55</ele>
  <time>2026-08-28T19:11:52Z</time>
  <course>226.25</course>
  <speed>0.0</speed>
  <fix>3d</fix>
</trkpt>
<trkpt lat="40.0729518" lon="-105.2308717">
  <ele>1585.63</ele>
  <time>2026-08-28T19:11:52Z</time>
  <course>322.18</course>
  <speed>0.01</speed>
  <fix>3d</fix>
</trkpt>
<trkpt lat="40.0729518" lon="-105.2308719">
  <ele>1585.55</ele>
  <time>2026-08-28T19:11:52Z</time>
  <course>226.36</course>
  <speed>0.0</speed>
  <fix>3d</fix>
</trkpt>
<trkpt lat="40.0729518" lon="-105.2308717">
  <ele>1585.63</ele>
  <time>2026-08-28T19:11:52Z</time>
  <course>322.22</course>
  <speed>0.01</speed>
  <fix>3d</fix>
</trkpt>
<trkpt lat="40.0729518" lon="-105.2308719">
  <ele>1585.55</ele>
  <time>2026-08-28T19:11:52Z</time>
  <course>226.44</course>
  <speed>0.0</speed>
  <fix>3d</fix>
</trkpt>
<trkpt lat="40.0729518" lon="-105.2308717">
  <ele>1585.63</ele>
  <time>2026-08-28T19:11:52Z</time>
  <course>322.26</course>
  <speed>0.01</speed>
  <fix>3d</fix>
</trkpt>
<trkpt lat="40.0729518" lon="-105.2308719">
  <ele>1585.55</ele>
  <time>2026-08-28T19:11:52Z</time>
  <course>226.41</course>
  <speed>0.0</speed>
  <fix>3d</fix>
</trkpt>
<trkpt lat="40.0729518" lon="-105.2308717">
  <ele>1585.63</ele>
  <time>2026-08-28T19:11:52Z</time>
  <course>322.3</course>
  <speed>0.01</speed>
  <fix>3d</fix>
</trkpt>
<trkpt lat="40.0729518" lon="-105.2308719">
  <ele>1585.55</ele>
  <time>2026-08-28T19:11:52Z</time>
  <course>226.4</course>
  <speed>0.0</speed>
  <fix>3d</fix>
</trkpt>
<trkpt lat="40.0729518" lon="-105.2308717">
  <ele>1585.63</ele>
  <time>2026-08-28T19:11:52Z</time>
  <course>322.34</course>
  <speed>0.01</speed>
  <fix>3d</fix>
</trkpt>
<trkpt lat="40.0729518" lon="-105.2308719">
  <ele>1585.55</ele>
  <time>2026-08-28T19:11:52Z</time>
  <course>226.41</course>
  <speed>0.0</speed>
  <fix>3d</fix>
</trkpt>
<trkpt lat="40.0729518" lon="-105.2308717">
  <ele>1585.63</ele>
  <time>2026-08-28T19:11:52Z</time>
  <course>322.38</course>
  <speed>0.01</speed>
  <fix>3d</fix>
</trkpt>
<trkpt lat="40.0729518" lon="-105.2308719">
  <ele>1585.55</ele>
  <time>2026-08-28T19:11:52Z</time>
  <course>226.41</course>
  <speed>0.0</speed>
  <fix>3d</fix>
</trkpt>
<trkpt lat="40.0729518" lon="-105.2308717">
  <ele>1585.63</ele>
  <time>2026-08-28T19:11:52Z</time>
  <course>322.42</course>
  <speed>0.01</speed>
  <fix>3d</fix>
</trkpt>
<trkpt lat="40.0729518" lon="-105.2308719">
  <ele>1585.55</ele>
  <time>2026-08-28T19:11:52Z</time>
  <course>226.37</course>
  <speed>0.0</speed>
  <fix>3d</fix>
</trkpt>
<trkpt lat="40.0729518" lon="-105.2308717">
  <ele>1585.63</ele>
  <time>2026-08-28T19:11:52Z</time>
  <course>322.46</course>
  <speed>0.01</speed>
  <fix>3d</fix>
</trkpt>
<trkpt lat="40.0729518" lon="-105.2308719">
  <ele>1585.55</ele>
  <time>2026-08-28T19:11:52Z</time>
  <course>225.71</course>
  <speed>0.0</speed>
  <fix>3d</fix>
</trkpt>
<trkpt lat="40.0729518" lon="-105.2308717">
  <ele>1585.63</ele>
  <time>2026-08-28T19:11:52Z</time>
  <course>322.5</course>
  <speed>0.01</speed>
  <fix>3d</fix>
</trkpt>
<trkpt lat="40.0729518" lon="-105.2308719">
  <ele>1585.55</ele>
  <time>2026-08-28T19:11:52Z</time>
  <course>224.99</course>
  <speed>0.0</speed>
  <fix>3d</fix>
</trkpt>
<trkpt lat="40.0729518" lon="-105.2308717">
  <ele>1585.63</ele>
  <time>2026-08-28T19:11:52Z</time>
  <course>322.53</course>
  <speed>0.01</speed>
  <fix>3d</fix>
</trkpt>
<trkpt lat="40.0729518" lon="-105.2308719">
  <ele>1585.55</ele>
  <time>2026-08-28T19:11:52Z</time>
  <course>224.72</course>
  <speed>0.0</speed>
  <fix>3d</fix>
</trkpt>
<trkpt lat="40.0729518" lon="-105.2308717">
  <ele>1585.63</ele>
  <time>2026-08-28T19:11:52Z</time>
  <course>322.57</course>
  <speed>0.01</speed>
  <fix>3d</fix>
</trkpt>
<trkpt lat="40.0729518" lon="-105.2308719">
  <ele>1585.55</ele>
  <time>2026-08-28T19:11:52Z</time>
  <course>223.23</course>
  <speed>0.0</speed>
  <fix>3d</fix>
</trkpt>
<trkpt lat="40.0729518" lon="-105.2308717">
  <ele>1585.63</ele>
  <time>2026-08-28T19:11:52Z</time>
  <course>322.6</course>
  <speed>0.01</speed>
  <fix>3d</fix>
</trkpt>
<trkpt lat="40.0729518" lon="-105.2308719">
  <ele>1585.55</ele>
  <time>2026-08-28T19:11:52Z</time>
  <course>58.17</course>
  <speed>0.0</speed>
  <fix>3d</fix>
</trkpt>
<trkpt lat="40.0729518" lon="-105.2308717">
  <ele>1585.63</ele>
  <time>2026-08-28T19:11:53Z</time>
  <course>322.63</course>
  <speed>0.01</speed>
  <fix>3d</fix>
</trkpt>
<trkpt lat="40.0729518" lon="-105.2308719">
  <ele>1585.55</ele>
  <time>2026-08-28T19:11:53Z</time>
  <course>53.48</course>
  <speed>0.0</speed>
  <fix>3d</fix>
</trkpt>
<trkpt lat="40.0729518" lon="-105.2308717">
  <ele>1585.63</ele>
  <time>2026-08-28T19:11:53Z</time>
  <course>322.66</course>
  <speed>0.01</speed>
  <fix>3d</fix>
</trkpt>
<trkpt lat="40.0729518" lon="-105.2308719">
  <ele>1585.55</ele>
  <time>2026-08-28T19:11:53Z</time>
  <course>53.75</course>
  <speed>0.0</speed>
  <fix>3d</fix>
</trkpt>
<trkpt lat="40.0729518" lon="-105.2308717">
  <ele>1585.63</ele>
  <time>2026-08-28T19:11:53Z</time>
  <course>322.68</course>
  <speed>0.01</speed>
  <fix>3d</fix>
</trkpt>
<trkpt lat="40.0729518" lon="-105.2308719">
  <ele>1585.55</ele>
  <time>2026-08-28T19:11:53Z</time>
  <course>52.79</course>
  <speed>0.0</speed>
  <fix>3d</fix>
</trkpt>
<trkpt lat="40.0729518" lon="-105.2308717">
  <ele>1585.63</ele>
  <time>2026-08-28T19:11:53Z</time>
  <course>322.71</course>
  <speed>0.01</speed>
  <fix>3d</fix>
</trkpt>
<trkpt lat="40.0729518" lon="-105.2308719">
  <ele>1585.55</ele>
  <time>2026-08-28T19:11:53Z</time>
  <course>52.05</course>
  <speed>0.0</speed>
  <fix>3d</fix>
</trkpt>
<trkpt lat="40.0729518" lon="-105.2308717">
  <ele>1585.63</ele>
  <time>2026-08-28T19:11:53Z</time>
  <course>322.73</course>
  <speed>0.01</speed>
  <fix>3d</fix>
</trkpt>
<trkpt lat="40.0729518" lon="-105.2308719">
  <ele>1585.55</ele>
  <time>2026-08-28T19:11:53Z</time>
  <course>316.23</course>
  <speed>0.0</speed>
  <fix>3d</fix>
</trkpt>
<trkpt lat="40.0729518" lon="-105.2308717">
  <ele>1585.63</ele>
  <time>2026-08-28T19:11:53Z</time>
  <course>322.75</course>
  <speed>0.01</speed>
  <fix>3d</fix>
</trkpt>
<trkpt lat="40.0729518" lon="-105.2308719">
  <ele>1585.55</ele>
  <time>2026-08-28T19:11:53Z</time>
  <course>316.57</course>
  <speed>0.0</speed>
  <fix>3d</fix>
</trkpt>
<trkpt lat="40.0729518" lon="-105.2308717">
  <ele>1585.62</ele>
  <time>2026-08-28T19:11:53Z</time>
  <course>322.77</course>
  <speed>0.01</speed>
  <fix>3d</fix>
</trkpt>
<trkpt lat="40.0729518" lon="-105.2308719">
  <ele>1585.55</ele>
  <time>2026-08-28T19:11:53Z</time>
  <course>244.85</course>
  <speed>0.0</speed>
  <fix>3d</fix>
</trkpt>
<trkpt lat="40.0729518" lon="-105.2308717">
  <ele>1585.62</ele>
  <time>2026-08-28T19:11:53Z</time>
  <course>322.79</course>
  <speed>0.01</speed>
  <fix>3d</fix>
</trkpt>
<trkpt lat="40.0729518" lon="-105.2308719">
  <ele>1585.55</ele>
  <time>2026-08-28T19:11:53Z</time>
  <course>225.56</course>
  <speed>0.0</speed>
  <fix>3d</fix>
</trkpt>
<trkpt lat="40.0729518" lon="-105.2308717">
  <ele>1585.62</ele>
  <time>2026-08-28T19:11:53Z</time>
  <course>322.81</course>
  <speed>0.02</speed>
  <fix>3d</fix>
</trkpt>
<trkpt lat="40.0729518" lon="-105.2308719">
  <ele>1585.55</ele>
  <time>2026-08-28T19:11:53Z</time>
  <course>85.57</course>
  <speed>0.0</speed>
  <fix>3d</fix>
</trkpt>
<trkpt lat="40.0729518" lon="-105.2308717">
  <ele>1585.62</ele>
  <time>2026-08-28T19:11:53Z</time>
  <course>322.82</course>
  <speed>0.02</speed>
  <fix>3d</fix>
</trkpt>
<trkpt lat="40.0729518" lon="-105.2308719">
  <ele>1585.55</ele>
  <time>2026-08-28T19:11:53Z</time>
  <course>45.75</course>
  <speed>0.0</speed>
  <fix>3d</fix>
</trkpt>
<trkpt lat="40.0729518" lon="-105.2308717">
  <ele>1585.62</ele>
  <time>2026-08-28T19:11:53Z</time>
  <course>322.84</course>
  <speed>0.02</speed>
  <fix>3d</fix>
</trkpt>
<trkpt lat="40.0729518" lon="-105.2308719">
  <ele>1585.55</ele>
  <time>2026-08-28T19:11:53Z</time>
  <course>45.28</course>
  <speed>0.0</speed>
  <fix>3d</fix>
</trkpt>
<trkpt lat="40.0729518" lon="-105.2308717">
  <ele>1585.62</ele>
  <time>2026-08-28T19:11:53Z</time>
  <course>322.85</course>
  <speed>0.02</speed>
  <fix>3d</fix>
</trkpt>
<trkpt lat="40.0729518" lon="-105.2308719">
  <ele>1585.55</ele>
  <time>2026-08-28T19:11:53Z</time>
  <course>48.54</course>
  <speed>0.0</speed>
  <fix>3d</fix>
</trkpt>
<trkpt lat="40.0729518" lon="-105.2308717">
  <ele>1585.62</ele>
  <time>2026-08-28T19:11:53Z</time>
  <course>322.86</course>
  <speed>0.02</speed>
  <fix>3d</fix>
</trkpt>
<trkpt lat="40.0729518" lon="-105.2308719">
  <ele>1585.55</ele>
  <time>2026-08-28T19:11:53Z</time>
  <course>145.22</course>
  <speed>0.0</speed>
  <fix>3d</fix>
</trkpt>
<trkpt lat="40.0729518" lon="-105.2308717">
  <ele>1585.62</ele>
  <time>2026-08-28T19:11:53Z</time>
  <course>322.86</course>
  <speed>0.02</speed>
  <fix>3d</fix>
</trkpt>
<trkpt lat="40.0729518" lon="-105.2308719">
  <ele>1585.55</ele>
  <time>2026-08-28T19:11:53Z</time>
  <course>141.05</course>
  <speed>0.0</speed>
  <fix>3d</fix>
</trkpt>
<trkpt lat="40.0729518" lon="-105.2308717">
  <ele>1585.62</ele>
  <time>2026-08-28T19:11:53Z</time>
  <course>322.87</course>
  <speed>0.02</speed>
  <fix>3d</fix>
</trkpt>
<trkpt lat="40.0729518" lon="-105.2308719">
  <ele>1585.55</ele>
  <time>2026-08-28T19:11:53Z</time>
  <course>58.23</course>
  <speed>0.0</speed>
  <fix>3d</fix>
</trkpt>
<trkpt lat="40.0729518" lon="-105.2308717">
  <ele>1585.62</ele>
  <time>2026-08-28T19:11:53Z</time>
  <course>322.87</course>
  <speed>0.02</speed>
  <fix>3d</fix>
</trkpt>
<trkpt lat="40.0729518" lon="-105.2308719">
  <ele>1585.55</ele>
  <time>2026-08-28T19:11:53Z</time>
  <course>44.78</course>
  <speed>0.0</speed>
  <fix>3d</fix>
</trkpt>
<trkpt lat="40.0729518" lon="-105.2308717">
  <ele>1585.62</ele>
  <time>2026-08-28T19:11:53Z</time>
  <course>322.88</course>
  <speed>0.02</speed>
  <fix>3d</fix>
</trkpt>
<trkpt lat="40.0729518" lon="-105.2308719">
  <ele>1585.55</ele>
  <time>2026-08-28T19:11:53Z</time>
  <course>49.77</course>
  <speed>0.0</speed>
  <fix>3d</fix>
</trkpt>
<trkpt lat="40.0729518" lon="-105.2308717">
  <ele>1585.62</ele>
  <time>2026-08-28T19:11:53Z</time>
  <course>322.88</course>
  <speed>0.02</speed>
  <fix>3d</fix>
</trkpt>
<trkpt lat="40.0729518" lon="-105.2308719">
  <ele>1585.55</ele>
  <time>2026-08-28T19:11:53Z</time>
  <course>53.73</course>
  <speed>0.0</speed>
  <fix>3d</fix>
</trkpt>
<trkpt lat="40.0729518" lon="-105.2308717">
  <ele>1585.62</ele>
  <time>2026-08-28T19:11:53Z</time>
  <course>322.87</course>
  <speed>0.02</speed>
  <fix>3d</fix>
</trkpt>
<trkpt lat="40.0729518" lon="-105.2308719">
  <ele>1585.55</ele>
  <time>2026-08-28T19:11:53Z</time>
  <course>50.17</course>
  <speed>0.0</speed>
  <fix>3d</fix>
</trkpt>
<trkpt lat="40.0729518" lon="-105.2308717">
  <ele>1585.63</ele>
  <time>2026-08-28T19:11:53Z</time>
  <course>322.87</course>
  <speed>0.02</speed>
  <fix>3d</fix>
</trkpt>
<trkpt lat="40.0729518" lon="-105.2308719">
  <ele>1585.55</ele>
  <time>2026-08-28T19:11:53Z</time>
  <course>49.99</course>
  <speed>0.0</speed>
  <fix>3d</fix>
</trkpt>
<trkpt lat="40.0729518" lon="-105.2308717">
  <ele>1585.63</ele>
  <time>2026-08-28T19:11:53Z</time>
  <course>322.87</course>
  <speed>0.02</speed>
  <fix>3d</fix>
</trkpt>
<trkpt lat="40.0729518" lon="-105.2308719">
  <ele>1585.55</ele>
  <time>2026-08-28T19:11:53Z</time>
  <course>229.41</course>
  <speed>0.0</speed>
  <fix>3d</fix>
</trkpt>
<trkpt lat="40.0729518" lon="-105.2308717">
  <ele>1585.63</ele>
  <time>2026-08-28T19:11:53Z</time>
  <course>322.86</course>
  <speed>0.02</speed>
  <fix>3d</fix>
</trkpt>
<trkpt lat="40.0729518" lon="-105.2308719">
  <ele>1585.55</ele>
  <time>2026-08-28T19:11:53Z</time>
  <course>229.4</course>
  <speed>0.0</speed>
  <fix>3d</fix>
</trkpt>
<trkpt lat="40.0729518" lon="-105.2308717">
  <ele>1585.63</ele>
  <time>2026-08-28T19:11:53Z</time>
  <course>322.85</course>
  <speed>0.02</speed>
  <fix>3d</fix>
</trkpt>
<trkpt lat="40.0729518" lon="-105.2308719">
  <ele>1585.55</ele>
  <time>2026-08-28T19:11:53Z</time>
  <course>50.25</course>
  <speed>0.0</speed>
  <fix>3d</fix>
</trkpt>
<trkpt lat="40.0729518" lon="-105.2308717">
  <ele>1585.63</ele>
  <time>2026-08-28T19:11:53Z</time>
  <course>322.84</course>
  <speed>0.02</speed>
  <fix>3d</fix>
</trkpt>
<trkpt lat="40.0729518" lon="-105.2308719">
  <ele>1585.55</ele>
  <time>2026-08-28T19:11:53Z</time>
  <course>50.15</course>
  <speed>0.0</speed>
  <fix>3d</fix>
</trkpt>
<trkpt lat="40.0729518" lon="-105.2308717">
  <ele>1585.63</ele>
  <time>2026-08-28T19:11:53Z</time>
  <course>322.83</course>
  <speed>0.02</speed>
  <fix>3d</fix>
</trkpt>
<trkpt lat="40.0729518" lon="-105.2308719">
  <ele>1585.55</ele>
  <time>2026-08-28T19:11:53Z</time>
  <course>50.22</course>
  <speed>0.0</speed>
  <fix>3d</fix>
</trkpt>
<trkpt lat="40.0729518" lon="-105.2308717">
  <ele>1585.63</ele>
  <time>2026-08-28T19:11:53Z</time>
  <course>322.82</course>
  <speed>0.02</speed>
  <fix>3d</fix>
</trkpt>
<trkpt lat="40.0729518" lon="-105.2308719">
  <ele>1585.55</ele>
  <time>2026-08-28T19:11:53Z</time>
  <course>50.08</course>
  <speed>0.0</speed>
  <fix>3d</fix>
</trkpt>
<trkpt lat="40.0729518" lon="-105.2308717">
  <ele>1585.64</ele>
  <time>2026-08-28T19:11:53Z</time>
  <course>322.8</course>
  <speed>0.02</speed>
  <fix>3d</fix>
</trkpt>
<trkpt lat="40.0729518" lon="-105.2308719">
  <ele>1585.55</ele>
  <time>2026-08-28T19:11:53Z</time>
  <course>49.95</course>
  <speed>0.0</speed>
  <fix>3d</fix>
</trkpt>
<trkpt lat="40.0729518" lon="-105.2308717">
  <ele>1585.64</ele>
  <time>2026-08-28T19:11:53Z</time>
  <course>322.78</course>
  <speed>0.02</speed>
  <fix>3d</fix>
</trkpt>
<trkpt lat="40.0729518" lon="-105.2308719">
  <ele>1585.55</ele>
  <time>2026-08-28T19:11:53Z</time>
  <course>49.83</course>
  <speed>0.0</speed>
  <fix>3d</fix>
</trkpt>
<trkpt lat="40.0729518" lon="-105.2308717">
  <ele>1585.64</ele>
  <time>2026-08-28T19:11:53Z</time>
  <course>322.77</course>
  <speed>0.02</speed>
  <fix>3d</fix>
</trkpt>
<trkpt lat="40.0729518" lon="-105.2308719">
  <ele>1585.55</ele>
  <time>2026-08-28T19:11:53Z</time>
  <course>49.7</course>
  <speed>0.0</speed>
  <fix>3d</fix>
</trkpt>
<trkpt lat="40.0729518" lon="-105.2308717">
  <ele>1585.64</ele>
  <time>2026-08-28T19:11:53Z</time>
  <course>322.74</course>
  <speed>0.02</speed>
  <fix>3d</fix>
</trkpt>
<trkpt lat="40.0729518" lon="-105.2308719">
  <ele>1585.55</ele>
  <time>2026-08-28T19:11:53Z</time>
  <course>49.58</course>
  <speed>0.0</speed>
  <fix>3d</fix>
</trkpt>
<trkpt lat="40.0729518" lon="-105.2308717">
  <ele>1585.63</ele>
  <time>2026-08-28T19:11:53Z</time>
  <course>322.72</course>
  <speed>0.02</speed>
  <fix>3d</fix>
</trkpt>
<trkpt lat="40.0729518" lon="-105.2308719">
  <ele>1585.55</ele>
  <time>2026-08-28T19:11:53Z</time>
  <course>229.14</course>
  <speed>0.0</speed>
  <fix>3d</fix>
</trkpt>
<trkpt lat="40.0729518" lon="-105.2308717">
  <ele>1585.63</ele>
  <time>2026-08-28T19:11:53Z</time>
  <course>322.7</course>
  <speed>0.02</speed>
  <fix>3d</fix>
</trkpt>
<trkpt lat="40.0729518" lon="-105.2308719">
  <ele>1585.55</ele>
  <time>2026-08-28T19:11:53Z</time>
  <course>229.12</course>
  <speed>0.0</speed>
  <fix>3d</fix>
</trkpt>
<trkpt lat="40.0729518" lon="-105.2308717">
  <ele>1585.63</ele>
  <time>2026-08-28T19:11:53Z</time>
  <course>322.67</course>
  <speed>0.02</speed>
  <fix>3d</fix>
</trkpt>
<trkpt lat="40.0729518" lon="-105.2308719">
  <ele>1585.55</ele>
  <time>2026-08-28T19:11:53Z</time>
  <course>50.34</course>
  <speed>0.0</speed>
  <fix>3d</fix>
</trkpt>
<trkpt lat="40.0729518" lon="-105.2308717">
  <ele>1585.62</ele>
  <time>2026-08-28T19:11:53Z</time>
  <course>322.65</course>
  <speed>0.02</speed>
  <fix>3d</fix>
</trkpt>
<trkpt lat="40.0729518" lon="-105.2308719">
  <ele>1585.55</ele>
  <time>2026-08-28T19:11:53Z</time>
  <course>49.61</course>
  <speed>0.0</speed>
  <fix>3d</fix>
</trkpt>
<trkpt lat="40.0729518" lon="-105.2308717">
  <ele>1585.62</ele>
  <time>2026-08-28T19:11:53Z</time>
  <course>322.62</course>
  <speed>0.02</speed>
  <fix>3d</fix>
</trkpt>
<trkpt lat="40.0729518" lon="-105.2308719">
  <ele>1585.55</ele>
  <time>2026-08-28T19:11:53Z</time>
  <course>50.12</course>
  <speed>0.0</speed>
  <fix>3d</fix>
</trkpt>
<trkpt lat="40.0729518" lon="-105.2308717">
  <ele>1585.62</ele>
  <time>2026-08-28T19:11:53Z</time>
  <course>322.59</course>
  <speed>0.02</speed>
  <fix>3d</fix>
</trkpt>
<trkpt lat="40.0729518" lon="-105.2308719">
  <ele>1585.55</ele>
  <time>2026-08-28T19:11:53Z</time>
  <course>277.48</course>
  <speed>0.0</speed>
  <fix>3d</fix>
</trkpt>
<trkpt lat="40.0729518" lon="-105.2308717">
  <ele>1585.62</ele>
  <time>2026-08-28T19:11:53Z</time>
  <course>322.56</course>
  <speed>0.02</speed>
  <fix>3d</fix>
</trkpt>
<trkpt lat="40.0729518" lon="-105.2308719">
  <ele>1585.55</ele>
  <time>2026-08-28T19:11:53Z</time>
  <course>249.94</course>
  <speed>0.0</speed>
  <fix>3d</fix>
</trkpt>
<trkpt lat="40.0729518" lon="-105.2308717">
  <ele>1585.62</ele>
  <time>2026-08-28T19:11:53Z</time>
  <course>322.54</course>
  <speed>0.02</speed>
  <fix>3d</fix>
</trkpt>
<trkpt lat="40.0729518" lon="-105.2308719">
  <ele>1585.55</ele>
  <time>2026-08-28T19:11:53Z</time>
  <course>225.81</course>
  <speed>0.0</speed>
  <fix>3d</fix>
</trkpt>
<trkpt lat="40.0729518" lon="-105.2308717">
  <ele>1585.62</ele>
  <time>2026-08-28T19:11:53Z</time>
  <course>322.51</course>
  <speed>0.02</speed>
  <fix>3d</fix>
</trkpt>
<trkpt lat="40.0729518" lon="-105.2308719">
  <ele>1585.55</ele>
  <time>2026-08-28T19:11:53Z</time>
  <course>60.58</course>
  <speed>0.0</speed>
  <fix>3d</fix>
</trkpt>
<trkpt lat="40.0729518" lon="-105.2308717">
  <ele>1585.62</ele>
  <time>2026-08-28T19:11:53Z</time>
  <course>322.48</course>
  <speed>0.02</speed>
  <fix>3d</fix>
</trkpt>
<trkpt lat="40.0729518" lon="-105.2308719">
  <ele>1585.55</ele>
  <time>2026-08-28T19:11:53Z</time>
  <course>26.78</course>
  <speed>0.0</speed>
  <fix>3d</fix>
</trkpt>
<trkpt lat="40.0729518" lon="-105.2308717">
  <ele>1585.62</ele>
  <time>2026-08-28T19:11:53Z</time>
  <course>322.45</course>
  <speed>0.02</speed>
  <fix>3d</fix>
</trkpt>
<trkpt lat="40.0729518" lon="-105.2308719">
  <ele>1585.55</ele>
  <time>2026-08-28T19:11:53Z</time>
  <course>247.78</course>
  <speed>0.0</speed>
  <fix>3d</fix>
</trkpt>
<trkpt lat="40.0729518" lon="-105.2308717">
  <ele>1585.62</ele>
  <time>2026-08-28T19:11:53Z</time>
  <course>322.42</course>
  <speed>0.02</speed>
  <fix>3d</fix>
</trkpt>
<trkpt lat="40.0729518" lon="-105.2308719">
  <ele>1585.55</ele>
  <time>2026-08-28T19:11:53Z</time>
  <course>228.83</course>
  <speed>0.0</speed>
  <fix>3d</fix>
</trkpt>
<trkpt lat="40.0729518" lon="-105.2308717">
  <ele>1585.62</ele>
  <time>2026-08-28T19:11:53Z</time>
  <course>322.4</course>
  <speed>0.02</speed>
  <fix>3d</fix>
</trkpt>
<trkpt lat="40.0729518" lon="-105.2308719">
  <ele>1585.55</ele>
  <time>2026-08-28T19:11:53Z</time>
  <course>228.87</course>
  <speed>0.0</speed>
  <fix>3d</fix>
</trkpt>
<trkpt lat="40.0729518" lon="-105.2308717">
  <ele>1585.62</ele>
  <time>2026-08-28T19:11:53Z</time>
  <course>322.37</course>
  <speed>0.02</speed>
  <fix>3d</fix>
</trkpt>
<trkpt lat="40.0729518" lon="-105.2308719">
  <ele>1585.55</ele>
  <time>2026-08-28T19:11:53Z</time>
  <course>46.55</course>
  <speed>0.0</speed>
  <fix>3d</fix>
</trkpt>
<trkpt lat="40.0729518" lon="-105.2308717">
  <ele>1585.62</ele>
  <time>2026-08-28T19:11:53Z</time>
  <course>322.34</course>
  <speed>0.02</speed>
  <fix>3d</fix>
</trkpt>
<trkpt lat="40.0729518" lon="-105.2308719">
  <ele>1585.55</ele>
  <time>2026-08-28T19:11:53Z</time>
  <course>40.86</course>
  <speed>0.0</speed>
  <fix>3d</fix>
</trkpt>
<trkpt lat="40.0729518" lon="-105.2308717">
  <ele>1585.62</ele>
  <time>2026-08-28T19:11:53Z</time>
  <course>322.31</course>
  <speed>0.02</speed>
  <fix>3d</fix>
</trkpt>
<trkpt lat="40.0729518" lon="-105.2308719">
  <ele>1585.55</ele>
  <time>2026-08-28T19:11:53Z</time>
  <course>232.19</course>
  <speed>0.0</speed>
  <fix>3d</fix>
</trkpt>
<trkpt lat="40.0729518" lon="-105.2308717">
  <ele>1585.63</ele>
  <time>2026-08-28T19:11:53Z</time>
  <course>322.29</course>
  <speed>0.02</speed>
  <fix>3d</fix>
</trkpt>
<trkpt lat="40.0729518" lon="-105.2308719">
  <ele>1585.55</ele>
  <time>2026-08-28T19:11:53Z</time>
  <course>234.35</course>
  <speed>0.0</speed>
  <fix>3d</fix>
</trkpt>
<trkpt lat="40.0729518" lon="-105.2308717">
  <ele>1585.63</ele>
  <time>2026-08-28T19:11:53Z</time>
  <course>322.26</course>
  <speed>0.02</speed>
  <fix>3d</fix>
</trkpt>
<trkpt lat="40.0729518" lon="-105.2308719">
  <ele>1585.55</ele>
  <time>2026-08-28T19:11:53Z</time>
  <course>236.15</course>
  <speed>0.0</speed>
  <fix>3d</fix>
</trkpt>
<trkpt lat="40.0729518" lon="-105.2308717">
  <ele>1585.63</ele>
  <time>2026-08-28T19:11:53Z</time>
  <course>322.23</course>
  <speed>0.02</speed>
  <fix>3d</fix>
</trkpt>
<trkpt lat="40.0729518" lon="-105.2308719">
  <ele>1585.55</ele>
  <time>2026-08-28T19:11:53Z</time>
  <course>235.13</course>
  <speed>0.0</speed>
  <fix>3d</fix>
</trkpt>
<trkpt lat="40.0729518" lon="-105.2308717">
  <ele>1585.63</ele>
  <time>2026-08-28T19:11:53Z</time>
  <course>322.2</course>
  <speed>0.02</speed>
  <fix>3d</fix>
</trkpt>
<trkpt lat="40.0729518" lon="-105.2308719">
  <ele>1585.55</ele>
  <time>2026-08-28T19:11:53Z</time>
  <course>234.92</course>
  <speed>0.0</speed>
  <fix>3d</fix>
</trkpt>
<trkpt lat="40.0729518" lon="-105.2308717">
  <ele>1585.63</ele>
  <time>2026-08-28T19:11:53Z</time>
  <course>322.17</course>
  <speed>0.02</speed>
  <fix>3d</fix>
</trkpt>
<trkpt lat="40.0729518" lon="-105.2308719">
  <ele>1585.55</ele>
  <time>2026-08-28T19:11:53Z</time>
  <course>234.97</course>
  <speed>0.0</speed>
  <fix>3d</fix>
</trkpt>
<trkpt lat="40.0729518" lon="-105.2308717">
  <ele>1585.63</ele>
  <time>2026-08-28T19:11:53Z</time>
  <course>322.14</course>
  <speed>0.02</speed>
  <fix>3d</fix>
</trkpt>
<trkpt lat="40.0729518" lon="-105.2308719">
  <ele>1585.55</ele>
  <time>2026-08-28T19:11:53Z</time>
  <course>230.58</course>
  <speed>0.0</speed>
  <fix>3d</fix>
</trkpt>
<trkpt lat="40.0729518" lon="-105.2308717">
  <ele>1585.63</ele>
  <time>2026-08-28T19:11:53Z</time>
  <course>322.11</course>
  <speed>0.02</speed>
  <fix>3d</fix>
</trkpt>
<trkpt lat="40.0729518" lon="-105.2308719">
  <ele>1585.55</ele>
  <time>2026-08-28T19:11:53Z</time>
  <course>228.09</course>
  <speed>0.0</speed>
  <fix>3d</fix>
</trkpt>
<trkpt lat="40.0729518" lon="-105.2308717">
  <ele>1585.62</ele>
  <time>2026-08-28T19:11:53Z</time>
  <course>322.09</course>
  <speed>0.02</speed>
  <fix>3d</fix>
</trkpt>
<trkpt lat="40.0729518" lon="-105.2308719">
  <ele>1585.55</ele>
  <time>2026-08-28T19:11:53Z</time>
  <course>228.04</course>
  <speed>0.0</speed>
  <fix>3d</fix>
</trkpt>
<trkpt lat="40.0729518" lon="-105.2308717">
  <ele>1585.62</ele>
  <time>2026-08-28T19:11:53Z</time>
  <course>322.06</course>
  <speed>0.02</speed>
  <fix>3d</fix>
</trkpt>
<trkpt lat="40.0729518" lon="-105.2308719">
  <ele>1585.55</ele>
  <time>2026-08-28T19:11:53Z</time>
  <course>46.63</course>
  <speed>0.0</speed>
  <fix>3d</fix>
</trkpt>
<trkpt lat="40.0729518" lon="-105.2308717">
  <ele>1585.62</ele>
  <time>2026-08-28T19:11:53Z</time>
  <course>322.03</course>
  <speed>0.02</speed>
  <fix>3d</fix>
</trkpt>
<trkpt lat="40.0729518" lon="-105.2308719">
  <ele>1585.55</ele>
  <time>2026-08-28T19:11:53Z</time>
  <course>259.22</course>
  <speed>0.0</speed>
  <fix>3d</fix>
</trkpt>
<trkpt lat="40.0729518" lon="-105.2308717">
  <ele>1585.62</ele>
  <time>2026-08-28T19:11:53Z</time>
  <course>322.0</course>
  <speed>0.02</speed>
  <fix>3d</fix>
</trkpt>
<trkpt lat="40.0729518" lon="-105.2308719">
  <ele>1585.55</ele>
  <time>2026-08-28T19:11:53Z</time>
  <course>228.37</course>
  <speed>0.0</speed>
  <fix>3d</fix>
</trkpt>
<trkpt lat="40.0729518" lon="-105.2308717">
  <ele>1585.62</ele>
  <time>2026-08-28T19:11:53Z</time>
  <course>321.97</course>
  <speed>0.02</speed>
  <fix>3d</fix>
</trkpt>
<trkpt lat="40.0729518" lon="-105.2308719">
  <ele>1585.55</ele>
  <time>2026-08-28T19:11:53Z</time>
  <course>227.64</course>
  <speed>0.0</speed>
  <fix>3d</fix>
</trkpt>
<trkpt lat="40.0729518" lon="-105.2308717">
  <ele>1585.62</ele>
  <time>2026-08-28T19:11:53Z</time>
  <course>321.94</course>
  <speed>0.02</speed>
  <fix>3d</fix>
</trkpt>
<trkpt lat="40.0729518" lon="-105.2308719">
  <ele>1585.55</ele>
  <time>2026-08-28T19:11:53Z</time>
  <course>227.57</course>
  <speed>0.0</speed>
  <fix>3d</fix>
</trkpt>
<trkpt lat="40.0729518" lon="-105.2308717">
  <ele>1585.62</ele>
  <time>2026-08-28T19:11:53Z</time>
  <course>321.92</course>
  <speed>0.02</speed>
  <fix>3d</fix>
</trkpt>
<trkpt lat="40.0729518" lon="-105.2308719">
  <ele>1585.55</ele>
  <time>2026-08-28T19:11:53Z</time>
  <course>65.33</course>
  <speed>0.0</speed>
  <fix>3d</fix>
</trkpt>
<trkpt lat="40.0729518" lon="-105.2308717">
  <ele>1585.62</ele>
  <time>2026-08-28T19:11:53Z</time>
  <course>321.89</course>
  <speed>0.02</speed>
  <fix>3d</fix>
</trkpt>
<trkpt lat="40.0729518" lon="-105.2308719">
  <ele>1585.55</ele>
  <time>2026-08-28T19:11:53Z</time>
  <course>48.53</course>
  <speed>0.0</speed>
  <fix>3d</fix>
</trkpt>
<trkpt lat="40.0729518" lon="-105.2308717">
  <ele>1585.62</ele>
  <time>2026-08-28T19:11:53Z</time>
  <course>321.86</course>
  <speed>0.02</speed>
  <fix>3d</fix>
</trkpt>
<trkpt lat="40.0729518" lon="-105.2308719">
  <ele>1585.55</ele>
  <time>2026-08-28T19:11:53Z</time>
  <course>318.13</course>
  <speed>0.0</speed>
  <fix>3d</fix>
</trkpt>
<trkpt lat="40.0729518" lon="-105.2308717">
  <ele>1585.62</ele>
  <time>2026-08-28T19:11:53Z</time>
  <course>321.83</course>
  <speed>0.02</speed>
  <fix>3d</fix>
</trkpt>
<trkpt lat="40.0729518" lon="-105.2308719">
  <ele>1585.55</ele>
  <time>2026-08-28T19:11:53Z</time>
  <course>227.19</course>
  <speed>0.0</speed>
  <fix>3d</fix>
</trkpt>
<trkpt lat="40.0729518" lon="-105.2308717">
  <ele>1585.62</ele>
  <time>2026-08-28T19:11:53Z</time>
  <course>321.81</course>
  <speed>0.02</speed>
  <fix>3d</fix>
</trkpt>
<trkpt lat="40.0729518" lon="-105.2308719">
  <ele>1585.55</ele>
  <time>2026-08-28T19:11:53Z</time>
  <course>226.45</course>
  <speed>0.0</speed>
  <fix>3d</fix>
</trkpt>
<trkpt lat="40.0729518" lon="-105.2308717">
  <ele>1585.62</ele>
  <time>2026-08-28T19:11:53Z</time>
  <course>321.78</course>
  <speed>0.02</speed>
  <fix>3d</fix>
</trkpt>
<trkpt lat="40.0729518" lon="-105.2308719">
  <ele>1585.55</ele>
  <time>2026-08-28T19:11:53Z</time>
  <course>45.6</course>
  <speed>0.0</speed>
  <fix>3d</fix>
</trkpt>
<trkpt lat="40.0729518" lon="-105.2308717">
  <ele>1585.62</ele>
  <time>2026-08-28T19:11:53Z</time>
  <course>321.75</course>
  <speed>0.02</speed>
  <fix>3d</fix>
</trkpt>
<trkpt lat="40.0729518" lon="-105.2308719">
  <ele>1585.55</ele>
  <time>2026-08-28T19:11:53Z</time>
  <course>229.34</course>
  <speed>0.0</speed>
  <fix>3d</fix>
</trkpt>
<trkpt lat="40.0729518" lon="-105.2308717">
  <ele>1585.62</ele>
  <time>2026-08-28T19:11:53Z</time>
  <course>321.72</course>
  <speed>0.02</speed>
  <fix>3d</fix>
</trkpt>
<trkpt lat="40.0729518" lon="-105.2308719">
  <ele>1585.55</ele>
  <time>2026-08-28T19:11:53Z</time>
  <course>227.04</course>
  <speed>0.0</speed>
  <fix>3d</fix>
</trkpt>
<trkpt lat="40.0729518" lon="-105.2308717">
  <ele>1585.62</ele>
  <time>2026-08-28T19:11:53Z</time>
  <course>321.7</course>
  <speed>0.02</speed>
  <fix>3d</fix>
</trkpt>
<trkpt lat="40.0729518" lon="-105.2308719">
  <ele>1585.55</ele>
  <time>2026-08-28T19:11:53Z</time>
  <course>226.88</course>
  <speed>0.0</speed>
  <fix>3d</fix>
</trkpt>
<trkpt lat="40.0729518" lon="-105.2308717">
  <ele>1585.62</ele>
  <time>2026-08-28T19:11:53Z</time>
  <course>321.67</course>
  <speed>0.02</speed>
  <fix>3d</fix>
</trkpt>
<trkpt lat="40.0729518" lon="-105.2308719">
  <ele>1585.55</ele>
  <time>2026-08-28T19:11:53Z</time>
  <course>226.82</course>
  <speed>0.0</speed>
  <fix>3d</fix>
</trkpt>
<trkpt lat="40.0729518" lon="-105.2308717">
  <ele>1585.63</ele>
  <time>2026-08-28T19:11:53Z</time>
  <course>321.64</course>
  <speed>0.02</speed>
  <fix>3d</fix>
</trkpt>
<trkpt lat="40.0729518" lon="-105.2308719">
  <ele>1585.55</ele>
  <time>2026-08-28T19:11:53Z</time>
  <course>178.73</course>
  <speed>0.0</speed>
  <fix>3d</fix>
</trkpt>
<trkpt lat="40.0729518" lon="-105.2308717">
  <ele>1585.62</ele>
  <time>2026-08-28T19:11:53Z</time>
  <course>321.62</course>
  <speed>0.02</speed>
  <fix>3d</fix>
</trkpt>
<trkpt lat="40.0729518" lon="-105.2308719">
  <ele>1585.55</ele>
  <time>2026-08-28T19:11:53Z</time>
  <course>225.03</course>
  <speed>0.0</speed>
  <fix>3d</fix>
</trkpt>
<trkpt lat="40.0729518" lon="-105.2308717">
  <ele>1585.62</ele>
  <time>2026-08-28T19:11:53Z</time>
  <course>321.59</course>
  <speed>0.02</speed>
  <fix>3d</fix>
</trkpt>
<trkpt lat="40.0729518" lon="-105.2308719">
  <ele>1585.55</ele>
  <time>2026-08-28T19:11:53Z</time>
  <course>226.26</course>
  <speed>0.0</speed>
  <fix>3d</fix>
</trkpt>
<trkpt lat="40.0729518" lon="-105.2308717">
  <ele>1585.62</ele>
  <time>2026-08-28T19:11:53Z</time>
  <course>321.56</course>
  <speed>0.02</speed>
  <fix>3d</fix>
</trkpt>
<trkpt lat="40.0729518" lon="-105.2308719">
  <ele>1585.55</ele>
  <time>2026-08-28T19:11:53Z</time>
  <course>226.38</course>
  <speed>0.0</speed>
  <fix>3d</fix>
</trkpt>
<trkpt lat="40.0729518" lon="-105.2308717">
  <ele>1585.62</ele>
  <time>2026-08-28T19:11:53Z</time>
  <course>321.54</course>
  <speed>0.02</speed>
  <fix>3d</fix>
</trkpt>
<trkpt lat="40.0729518" lon="-105.2308719">
  <ele>1585.55</ele>
  <time>2026-08-28T19:11:53Z</time>
  <course>226.44</course>
  <speed>0.0</speed>
  <fix>3d</fix>
</trkpt>
<trkpt lat="40.0729518" lon="-105.2308717">
  <ele>1585.62</ele>
  <time>2026-08-28T19:11:53Z</time>
  <course>321.51</course>
  <speed>0.02</speed>
  <fix>3d</fix>
</trkpt>
<trkpt lat="40.0729518" lon="-105.2308719">
  <ele>1585.55</ele>
  <time>2026-08-28T19:11:53Z</time>
  <course>226.31</course>
  <speed>0.0</speed>
  <fix>3d</fix>
</trkpt>
<trkpt lat="40.0729518" lon="-105.2308717">
  <ele>1585.62</ele>
  <time>2026-08-28T19:11:53Z</time>
  <course>321.48</course>
  <speed>0.02</speed>
  <fix>3d</fix>
</trkpt>
<trkpt lat="40.0729518" lon="-105.2308719">
  <ele>1585.55</ele>
  <time>2026-08-28T19:11:53Z</time>
  <course>65.42</course>
  <speed>0.0</speed>
  <fix>3d</fix>
</trkpt>
<trkpt lat="40.0729518" lon="-105.2308717">
  <ele>1585.62</ele>
  <time>2026-08-28T19:11:53Z</time>
  <course>321.46</course>
  <speed>0.02</speed>
  <fix>3d</fix>
</trkpt>
<trkpt lat="40.0729518" lon="-105.2308719">
  <ele>1585.55</ele>
  <time>2026-08-28T19:11:53Z</time>
  <course>224.93</course>
  <speed>0.0</speed>
  <fix>3d</fix>
</trkpt>
<trkpt lat="40.0729518" lon="-105.2308717">
  <ele>1585.62</ele>
  <time>2026-08-28T19:11:53Z</time>
  <course>321.43</course>
  <speed>0.02</speed>
  <fix>3d</fix>
</trkpt>
<trkpt lat="40.0729518" lon="-105.2308719">
  <ele>1585.55</ele>
  <time>2026-08-28T19:11:53Z</time>
  <course>225.55</course>
  <speed>0.0</speed>
  <fix>3d</fix>
</trkpt>
<trkpt lat="40.0729518" lon="-105.2308717">
  <ele>1585.62</ele>
  <time>2026-08-28T19:11:53Z</time>
  <course>321.4</course>
  <speed>0.02</speed>
  <fix>3d</fix>
</trkpt>
<trkpt lat="40.0729518" lon="-105.2308719">
  <ele>1585.55</ele>
  <time>2026-08-28T19:11:53Z</time>
  <course>226.07</course>
  <speed>0.0</speed>
  <fix>3d</fix>
</trkpt>
<trkpt lat="40.0729518" lon="-105.2308717">
  <ele>1585.62</ele>
  <time>2026-08-28T19:11:53Z</time>
  <course>321.38</course>
  <speed>0.02</speed>
  <fix>3d</fix>
</trkpt>
<trkpt lat="40.0729518" lon="-105.2308719">
  <ele>1585.55</ele>
  <time>2026-08-28T19:11:53Z</time>
  <course>226.01</course>
  <speed>0.0</speed>
  <fix>3d</fix>
</trkpt>
<trkpt lat="40.0729518" lon="-105.2308717">
  <ele>1585.61</ele>
  <time>2026-08-28T19:11:53Z</time>
  <course>321.35</course>
  <speed>0.02</speed>
  <fix>3d</fix>
</trkpt>
<trkpt lat="40.0729518" lon="-105.2308719">
  <ele>1585.55</ele>
  <time>2026-08-28T19:11:53Z</time>
  <course>222.45</course>
  <speed>0.0</speed>
  <fix>3d</fix>
</trkpt>
<trkpt lat="40.0729518" lon="-105.2308717">
  <ele>1585.61</ele>
  <time>2026-08-28T19:11:53Z</time>
  <course>321.32</course>
  <speed>0.02</speed>
  <fix>3d</fix>
</trkpt>
<trkpt lat="40.0729518" lon="-105.2308719">
  <ele>1585.55</ele>
  <time>2026-08-28T19:11:53Z</time>
  <course>223.51</course>
  <speed>0.0</speed>
  <fix>3d</fix>
</trkpt>
<trkpt lat="40.0729518" lon="-105.2308717">
  <ele>1585.61</ele>
  <time>2026-08-28T19:11:53Z</time>
  <course>321.3</course>
  <speed>0.02</speed>
  <fix>3d</fix>
</trkpt>
<trkpt lat="40.0729518" lon="-105.2308719">
  <ele>1585.55</ele>
  <time>2026-08-28T19:11:53Z</time>
  <course>224.97</course>
  <speed>0.0</speed>
  <fix>3d</fix>
</trkpt>
<trkpt lat="40.0729518" lon="-105.2308717">
  <ele>1585.61</ele>
  <time>2026-08-28T19:11:53Z</time>
  <course>321.27</course>
  <speed>0.02</speed>
  <fix>3d</fix>
</trkpt>
<trkpt lat="40.0729518" lon="-105.2308719">
  <ele>1585.55</ele>
  <time>2026-08-28T19:11:53Z</time>
  <course>225.73</course>
  <speed>0.0</speed>
  <fix>3d</fix>
</trkpt>
<trkpt lat="40.0729518" lon="-105.2308717">
  <ele>1585.61</ele>
  <time>2026-08-28T19:11:53Z</time>
  <course>321.24</course>
  <speed>0.02</speed>
  <fix>3d</fix>
</trkpt>
<trkpt lat="40.0729518" lon="-105.2308719">
  <ele>1585.55</ele>
  <time>2026-08-28T19:11:53Z</time>
  <course>225.71</course>
  <speed>0.0</speed>
  <fix>3d</fix>
</trkpt>
<trkpt lat="40.0729518" lon="-105.2308717">
  <ele>1585.61</ele>
  <time>2026-08-28T19:11:53Z</time>
  <course>321.22</course>
  <speed>0.02</speed>
  <fix>3d</fix>
</trkpt>
<trkpt lat="40.0729518" lon="-105.2308719">
  <ele>1585.55</ele>
  <time>2026-08-28T19:11:53Z</time>
  <course>224.65</course>
  <speed>0.0</speed>
  <fix>3d</fix>
</trkpt>
<trkpt lat="40.0729518" lon="-105.2308717">
  <ele>1585.61</ele>
  <time>2026-08-28T19:11:53Z</time>
  <course>321.19</course>
  <speed>0.02</speed>
  <fix>3d</fix>
</trkpt>
<trkpt lat="40.0729518" lon="-105.2308719">
  <ele>1585.55</ele>
  <time>2026-08-28T19:11:53Z</time>
  <course>220.96</course>
  <speed>0.0</speed>
  <fix>3d</fix>
</trkpt>
<trkpt lat="40.0729518" lon="-105.2308717">
  <ele>1585.62</ele>
  <time>2026-08-28T19:11:53Z</time>
  <course>321.16</course>
  <speed>0.02</speed>
  <fix>3d</fix>
</trkpt>
<trkpt lat="40.0729518" lon="-105.2308719">
  <ele>1585.55</ele>
  <time>2026-08-28T19:11:53Z</time>
  <course>224.39</course>
  <speed>0.0</speed>
  <fix>3d</fix>
</trkpt>
<trkpt lat="40.0729518" lon="-105.2308717">
  <ele>1585.62</ele>
  <time>2026-08-28T19:11:53Z</time>
  <course>321.14</course>
  <speed>0.02</speed>
  <fix>3d</fix>
</trkpt>
<trkpt lat="40.0729518" lon="-105.2308719">
  <ele>1585.55</ele>
  <time>2026-08-28T19:11:53Z</time>
  <course>225.21</course>
  <speed>0.0</speed>
  <fix>3d</fix>
</trkpt>
<trkpt lat="40.0729518" lon="-105.2308717">
  <ele>1585.62</ele>
  <time>2026-08-28T19:11:53Z</time>
  <course>321.11</course>
  <speed>0.02</speed>
  <fix>3d</fix>
</trkpt>
<trkpt lat="40.0729518" lon="-105.2308719">
  <ele>1585.55</ele>
  <time>2026-08-28T19:11:53Z</time>
  <course>225.36</course>
  <speed>0.0</speed>
  <fix>3d</fix>
</trkpt>
<trkpt lat="40.0729518" lon="-105.2308717">
  <ele>1585.62</ele>
  <time>2026-08-28T19:11:53Z</time>
  <course>321.09</course>
  <speed>0.02</speed>
  <fix>3d</fix>
</trkpt>
<trkpt lat="40.0729518" lon="-105.2308719">
  <ele>1585.55</ele>
  <time>2026-08-28T19:11:53Z</time>
  <course>225.05</course>
  <speed>0.0</speed>
  <fix>3d</fix>
</trkpt>
<trkpt lat="40.0729518" lon="-105.2308717">
  <ele>1585.62</ele>
  <time>2026-08-28T19:11:53Z</time>
  <course>321.06</course>
  <speed>0.02</speed>
  <fix>3d</fix>
</trkpt>
<trkpt lat="40.0729518" lon="-105.2308719">
  <ele>1585.55</ele>
  <time>2026-08-28T19:11:53Z</time>
  <course>219.36</course>
  <speed>0.0</speed>
  <fix>3d</fix>
</trkpt>
<trkpt lat="40.0729518" lon="-105.2308717">
  <ele>1585.62</ele>
  <time>2026-08-28T19:11:53Z</time>
  <course>321.04</course>
  <speed>0.02</speed>
  <fix>3d</fix>
</trkpt>
<trkpt lat="40.0729518" lon="-105.2308719">
  <ele>1585.55</ele>
  <time>2026-08-28T19:11:53Z</time>
  <course>223.63</course>
  <speed>0.0</speed>
  <fix>3d</fix>
</trkpt>
<trkpt lat="40.0729518" lon="-105.2308717">
  <ele>1585.62</ele>
  <time>2026-08-28T19:11:53Z</time>
  <course>321.01</course>
  <speed>0.02</speed>
  <fix>3d</fix>
</trkpt>
<trkpt lat="40.0729518" lon="-105.2308719">
  <ele>1585.55</ele>
  <time>2026-08-28T19:11:53Z</time>
  <course>224.04</course>
  <speed>0.0</speed>
  <fix>3d</fix>
</trkpt>
<trkpt lat="40.0729518" lon="-105.2308717">
  <ele>1585.62</ele>
  <time>2026-08-28T19:11:53Z</time>
  <course>320.98</course>
  <speed>0.02</speed>
  <fix>3d</fix>
</trkpt>
<trkpt lat="40.0729518" lon="-105.2308719">
  <ele>1585.55</ele>
  <time>2026-08-28T19:11:53Z</time>
  <course>224.64</course>
  <speed>0.0</speed>
  <fix>3d</fix>
</trkpt>
<trkpt lat="40.0729518" lon="-105.2308717">
  <ele>1585.62</ele>
  <time>2026-08-28T19:11:53Z</time>
  <course>320.96</course>
  <speed>0.02</speed>
  <fix>3d</fix>
</trkpt>
<trkpt lat="40.0729518" lon="-105.2308719">
  <ele>1585.55</ele>
  <time>2026-08-28T19:11:53Z</time>
  <course>224.95</course>
  <speed>0.0</speed>
  <fix>3d</fix>
</trkpt>
<trkpt lat="40.0729518" lon="-105.2308717">
  <ele>1585.62</ele>
  <time>2026-08-28T19:11:53Z</time>
  <course>320.93</course>
  <speed>0.02</speed>
  <fix>3d</fix>
</trkpt>
<trkpt lat="40.0729518" lon="-105.2308719">
  <ele>1585.55</ele>
  <time>2026-08-28T19:11:53Z</time>
  <course>224.62</course>
  <speed>0.0</speed>
  <fix>3d</fix>
</trkpt>
<trkpt lat="40.0729518" lon="-105.2308717">
  <ele>1585.62</ele>
  <time>2026-08-28T19:11:53Z</time>
  <course>320.91</course>
  <speed>0.02</speed>
  <fix>3d</fix>
</trkpt>
<trkpt lat="40.0729518" lon="-105.2308719">
  <ele>1585.55</ele>
  <time>2026-08-28T19:11:53Z</time>
  <course>222.4</course>
  <speed>0.0</speed>
  <fix>3d</fix>
</trkpt>
<trkpt lat="40.0729518" lon="-105.2308717">
  <ele>1585.63</ele>
  <time>2026-08-28T19:11:53Z</time>
  <course>320.88</course>
  <speed>0.02</speed>
  <fix>3d</fix>
</trkpt>
<trkpt lat="40.0729518" lon="-105.2308719">
  <ele>1585.55</ele>
  <time>2026-08-28T19:11:53Z</time>
  <course>215.23</course>
  <speed>0.0</speed>
  <fix>3d</fix>
</trkpt>
<trkpt lat="40.0729518" lon="-105.2308717">
  <ele>1585.63</ele>
  <time>2026-08-28T19:11:53Z</time>
  <course>320.86</course>
  <speed>0.02</speed>
  <fix>3d</fix>
</trkpt>
<trkpt lat="40.0729518" lon="-105.2308719">
  <ele>1585.55</ele>
  <time>2026-08-28T19:11:53Z</time>
  <course>215.55</course>
  <speed>0.0</speed>
  <fix>3d</fix>
</trkpt>
<trkpt lat="40.0729518" lon="-105.2308717">
  <ele>1585.63</ele>
  <time>2026-08-28T19:11:53Z</time>
  <course>320.85</course>
  <speed>0.02</speed>
  <fix>3d</fix>
</trkpt>
<trkpt lat="40.0729518" lon="-105.2308719">
  <ele>1585.55</ele>
  <time>2026-08-28T19:11:53Z</time>
  <course>220.98</course>
  <speed>0.0</speed>
  <fix>3d</fix>
</trkpt>
<trkpt lat="40.0729518" lon="-105.2308717">
  <ele>1585.63</ele>
  <time>2026-08-28T19:11:53Z</time>
  <course>320.83</course>
  <speed>0.02</speed>
  <fix>3d</fix>
</trkpt>
<trkpt lat="40.0729518" lon="-105.2308719">
  <ele>1585.55</ele>
  <time>2026-08-28T19:11:53Z</time>
  <course>228.95</course>
  <speed>0.0</speed>
  <fix>3d</fix>
</trkpt>
<trkpt lat="40.0729518" lon="-105.2308717">
  <ele>1585.63</ele>
  <time>2026-08-28T19:11:53Z</time>
  <course>320.82</course>
  <speed>0.02</speed>
  <fix>3d</fix>
</trkpt>
<trkpt lat="40.0729518" lon="-105.2308717">
  <ele>1585.63</ele>
  <time>2026-08-28T19:11:53Z</time>
  <course>320.8</course>
  <speed>0.02</speed>
  <fix>3d</fix>
</trkpt>
<trkpt lat="40.0729518" lon="-105.2308719">
  <ele>1585.55</ele>
  <time>2026-08-28T19:11:53Z</time>
  <course>224.67</course>
  <speed>0.0</speed>
  <fix>3d</fix>
</trkpt>
<trkpt lat="40.0729518" lon="-105.2308717">
  <ele>1585.63</ele>
  <time>2026-08-28T19:11:53Z</time>
  <course>320.79</course>
  <speed>0.02</speed>
  <fix>3d</fix>
</trkpt>
<trkpt lat="40.0729518" lon="-105.2308717">
  <ele>1585.63</ele>
  <time>2026-08-28T19:11:53Z</time>
  <course>320.75</course>
  <speed>0.02</speed>
  <fix>3d</fix>
</trkpt>
<trkpt lat="40.0729518" lon="-105.2308719">
  <ele>1585.55</ele>
  <time>2026-08-28T19:11:53Z</time>
  <course>224.03</course>
  <speed>0.0</speed>
  <fix>3d</fix>
</trkpt>
<trkpt lat="40.0729518" lon="-105.2308717">
  <ele>1585.63</ele>
  <time>2026-08-28T19:11:53Z</time>
  <course>320.74</course>
  <speed>0.02</speed>
  <fix>3d</fix>
</trkpt>
<trkpt lat="40.0729518" lon="-105.2308717">
  <ele>1585.65</ele>
  <time>2026-08-28T19:11:53Z</time>
  <course>320.69</course>
  <speed>0.02</speed>
  <fix>3d</fix>
</trkpt>
<trkpt lat="40.0729518" lon="-105.2308719">
  <ele>1585.56</ele>
  <time>2026-08-28T19:11:53Z</time>
  <course>224.44</course>
  <speed>0.0</speed>
  <fix>3d</fix>
</trkpt>
<trkpt lat="40.0729518" lon="-105.2308717">
  <ele>1585.65</ele>
  <time>2026-08-28T19:11:53Z</time>
  <course>320.68</course>
  <speed>0.02</speed>
  <fix>3d</fix>
</trkpt>
<trkpt lat="40.0729518" lon="-105.2308717">
  <ele>1585.7</ele>
  <time>2026-08-28T19:11:53Z</time>
  <course>320.6</course>
  <speed>0.02</speed>
  <fix>3d</fix>
</trkpt>
<trkpt lat="40.0729518" lon="-105.2308719">
  <ele>1585.59</ele>
  <time>2026-08-28T19:11:53Z</time>
  <course>226.44</course>
  <speed>0.0</speed>
  <fix>3d</fix>
</trkpt>
<trkpt lat="40.0729518" lon="-105.2308717">
  <ele>1585.71</ele>
  <time>2026-08-28T19:11:53Z</time>
  <course>320.59</course>
  <speed>0.02</speed>
  <fix>3d</fix>
</trkpt>
<trkpt lat="40.0729518" lon="-105.2308717">
  <ele>1585.74</ele>
  <time>2026-08-28T19:11:53Z</time>
  <course>320.51</course>
  <speed>0.02</speed>
  <fix>3d</fix>
</trkpt>
<trkpt lat="40.0729518" lon="-105.2308719">
  <ele>1585.64</ele>
  <time>2026-08-28T19:11:53Z</time>
  <course>355.37</course>
  <speed>0.0</speed>
  <fix>3d</fix>
</trkpt>
<trkpt lat="40.0729518" lon="-105.2308717">
  <ele>1585.75</ele>
  <time>2026-08-28T19:11:53Z</time>
  <course>320.12</course>
  <speed>0.02</speed>
  <fix>3d</fix>
</trkpt>
<trkpt lat="40.0729518" lon="-105.2308717">
  <ele>1585.89</ele>
  <time>2026-08-28T19:11:53Z</time>
  <course>311.82</course>
  <speed>0.07211102550927978</speed>
  <fix>3d</fix>
</trkpt>
<trkpt lat="40.0729518" lon="-105.2308719">
  <ele>1585.71</ele>
  <time>2026-08-28T19:11:53Z</time>
  <course>222.24</course>
  <speed>0.02</speed>
  <fix>3d</fix>
</trkpt>
<trkpt lat="40.0729518" lon="-105.2308717">
  <ele>1585.92</ele>
  <time>2026-08-28T19:11:53Z</time>
  <course>310.88</course>
  <speed>0.09433981132056603</speed>
  <fix>3d</fix>
</trkpt>
<trkpt lat="40.0729516" lon="-105.2308719">
  <ele>1586.13</ele>
  <time>2026-08-28T19:11:53Z</time>
  <course>309.52</course>
  <speed>0.18027756377319945</speed>
  <fix>3d</fix>
</trkpt>
<trkpt lat="40.0729517" lon="-105.2308721">
  <ele>1585.88</ele>
  <time>2026-08-28T19:11:53Z</time>
  <course>217.66</course>
  <speed>0.11</speed>
  <fix>3d</fix>
</trkpt>
<trkpt lat="40.0729515" lon="-105.230872">
  <ele>1586.16</ele>
  <time>2026-08-28T19:11:53Z</time>
  <course>309.52</course>
  <speed>0.18027756377319945</speed>
  <fix>3d</fix>
</trkpt>
<trkpt lat="40.0729513" lon="-105.2308722">
  <ele>1586.27</ele>
  <time>2026-08-28T19:11:53Z</time>
  <course>309.15</course>
  <speed>0.21633307652783937</speed>
  <fix>3d</fix>
</trkpt>
<trkpt lat="40.0729514" lon="-105.2308722">
  <ele>1586.08</ele>
  <time>2026-08-28T19:11:53Z</time>
  <course>214.9</course>
  <speed>0.2</speed>
  <fix>3d</fix>
</trkpt>
<trkpt lat="40.0729513" lon="-105.2308722">
  <ele>1586.28</ele>
  <time>2026-08-28T19:11:53Z</time>
  <course>309.12</course>
  <speed>0.21633307652783937</speed>
  <fix>3d</fix>
</trkpt>
<trkpt lat="40.0729509" lon="-105.2308725">
  <ele>1586.39</ele>
  <time>2026-08-28T19:11:53Z</time>
  <course>308.34</course>
  <speed>0.24186773244895649</speed>
  <fix>3d</fix>
</trkpt>
<trkpt lat="40.0729511" lon="-105.2308725">
  <ele>1586.22</ele>
  <time>2026-08-28T19:11:53Z</time>
  <course>211.66</course>
  <speed>0.24</speed>
  <fix>3d</fix>
</trkpt>
<trkpt lat="40.0729509" lon="-105.2308726">
  <ele>1586.4</ele>
  <time>2026-08-28T19:11:53Z</time>
  <course>308.25</course>
  <speed>0.24596747752497689</speed>
  <fix>3d</fix>
</trkpt>
<trkpt lat="40.0729505" lon="-105.2308728">
  <ele>1586.48</ele>
  <time>2026-08-28T19:11:53Z</time>
  <course>308.04</course>
  <speed>0.25079872407968906</speed>
  <fix>3d</fix>
</trkpt>
<trkpt lat="40.0729506" lon="-105.2308728">
  <ele>1586.32</ele>
  <time>2026-08-28T19:11:53Z</time>
  <course>207.8</course>
  <speed>0.26</speed>
  <fix>3d</fix>
</trkpt>
<trkpt lat="40.0729504" lon="-105.2308729">
  <ele>1586.5</ele>
  <time>2026-08-28T19:11:53Z</time>
  <course>308.03</course>
  <speed>0.26</speed>
  <fix>3d</fix>
</trkpt>
<trkpt lat="40.0729501" lon="-105.2308731">
  <ele>1586.58</ele>
  <time>2026-08-28T19:11:53Z</time>
  <course>308.01</course>
  <speed>0.26248809496813374</speed>
  <fix>3d</fix>
</trkpt>
<trkpt lat="40.0729503" lon="-105.2308731">
  <ele>1586.41</ele>
  <time>2026-08-28T19:11:53Z</time>
  <course>203.75</course>
  <speed>0.27</speed>
  <fix>3d</fix>
</trkpt>
<trkpt lat="40.07295" lon="-105.2308731">
  <ele>1586.59</ele>
  <time>2026-08-28T19:11:53Z</time>
  <course>308.02</course>
  <speed>0.26248809496813374</speed>
  <fix>3d</fix>
</trkpt>
<trkpt lat="40.0729496" lon="-105.2308733">
  <ele>1586.67</ele>
  <time>2026-08-28T19:11:53Z</time>
  <course>308.05</course>
  <speed>0.2570992026436488</speed>
  <fix>3d</fix>
</trkpt>
<trkpt lat="40.0729498" lon="-105.2308734">
  <ele>1586.5</ele>
  <time>2026-08-28T19:11:53Z</time>
  <course>199.64</course>
  <speed>0.27</speed>
  <fix>3d</fix>
</trkpt>
<trkpt lat="40.0729496" lon="-105.2308733">
  <ele>1586.67</ele>
  <time>2026-08-28T19:11:53Z</time>
  <course>308.06</course>
  <speed>0.2570992026436488</speed>
  <fix>3d</fix>
</trkpt>
<trkpt lat="40.0729491" lon="-105.2308735">
  <ele>1586.77</ele>
  <time>2026-08-28T19:11:53Z</time>
  <course>308.12</course>
  <speed>0.26476404589747454</speed>
  <fix>3d</fix>
</trkpt>
<trkpt lat="40.0729494" lon="-105.2308736">
  <ele>1586.59</ele>
  <time>2026-08-28T19:11:53Z</time>
  <course>195.65</course>
  <speed>0.27</speed>
  <fix>3d</fix>
</trkpt>
<trkpt lat="40.072949" lon="-105.2308735">
  <ele>1586.78</ele>
  <time>2026-08-28T19:11:53Z</time>
  <course>308.15</course>
  <speed>0.26305892875931813</speed>
  <fix>3d</fix>
</trkpt>
<trkpt lat="40.0729486" lon="-105.2308736">
  <ele>1586.86</ele>
  <time>2026-08-28T19:11:53Z</time>
  <course>308.27</course>
  <speed>0.27166155414412246</speed>
  <fix>3d</fix>
</trkpt>
<trkpt lat="40.0729489" lon="-105.2308737">
  <ele>1586.69</ele>
  <time>2026-08-28T19:11:53Z</time>
  <course>191.85</course>
  <speed>0.27</speed>
  <fix>3d</fix>
</trkpt>
<trkpt lat="40.0729486" lon="-105.2308736">
  <ele>1586.86</ele>
  <time>2026-08-28T19:11:53Z</time>
  <course>308.27</course>
  <speed>0.27166155414412246</speed>
  <fix>3d</fix>
</trkpt>
<trkpt lat="40.0729481" lon="-105.2308737">
  <ele>1586.96</ele>
  <time>2026-08-28T19:11:53Z</time>
  <course>308.42</course>
  <speed>0.280178514522438</speed>
  <fix>3d</fix>
</trkpt>
<trkpt lat="40.0729484" lon="-105.2308738">
  <ele>1586.79</ele>
  <time>2026-08-28T19:11:53Z</time>
  <course>188.24</course>
  <speed>0.27</speed>
  <fix>3d</fix>
</trkpt>
<trkpt lat="40.072948" lon="-105.2308737">
  <ele>1586.97</ele>
  <time>2026-08-28T19:11:53Z</time>
  <course>308.45</course>
  <speed>0.280178514522438</speed>
  <fix>3d</fix>
</trkpt>
<trkpt lat="40.0729476" lon="-105.2308737">
  <ele>1587.07</ele>
  <time>2026-08-28T19:11:53Z</time>
  <course>308.61</course>
  <speed>0.28</speed>
  <fix>3d</fix>
</trkpt>
<trkpt lat="40.0729479" lon="-105.2308738">
  <ele>1586.9</ele>
  <time>2026-08-28T19:11:53Z</time>
  <course>184.84</course>
  <speed>0.27</speed>
  <fix>3d</fix>
</trkpt>
<trkpt lat="40.0729475" lon="-105.2308737">
  <ele>1587.09</ele>
  <time>2026-08-28T19:11:53Z</time>
  <course>308.64</course>
  <speed>0.29</speed>
  <fix>3d</fix>
</trkpt>
<trkpt lat="40.0729471" lon="-105.2308737">
  <ele>1587.19</ele>
  <time>2026-08-28T19:11:53Z</time>
  <course>308.82</course>
  <speed>0.29017236257093815</speed>
  <fix>3d</fix>
</trkpt>
<trkpt lat="40.0729474" lon="-105.2308739">
  <ele>1587.02</ele>
  <time>2026-08-28T19:11:53Z</time>
  <course>181.7</course>
  <speed>0.28</speed>
  <fix>3d</fix>
</trkpt>
<trkpt lat="40.0729471" lon="-105.2308737">
  <ele>1587.19</ele>
  <time>2026-08-28T19:11:53Z</time>
  <course>308.82</course>
  <speed>0.29017236257093815</speed>
  <fix>3d</fix>
</trkpt>
<trkpt lat="40.0729466" lon="-105.2308737">
  <ele>1587.31</ele>
  <time>2026-08-28T19:11:53Z</time>
  <course>309.08</course>
  <speed>0.3014962686336267</speed>
  <fix>3d</fix>
</trkpt>
<trkpt lat="40.0729469" lon="-105.230874">
  <ele>1587.13</ele>
  <time>2026-08-28T19:11:53Z</time>
  <course>178.84</course>
  <speed>0.29</speed>
  <fix>3d</fix>
</trkpt>
<trkpt lat="40.0729465" lon="-105.2308737">
  <ele>1587.33</ele>
  <time>2026-08-28T19:11:53Z</time>
  <course>309.13</course>
  <speed>0.3014962686336267</speed>
  <fix>3d</fix>
</trkpt>
<trkpt lat="40.072946" lon="-105.2308737">
  <ele>1587.43</ele>
  <time>2026-08-28T19:11:53Z</time>
  <course>309.38</course>
  <speed>0.3125699921617557</speed>
  <fix>3d</fix>
</trkpt>
<trkpt lat="40.0729463" lon="-105.230874">
  <ele>1587.26</ele>
  <time>2026-08-28T19:11:53Z</time>
  <course>176.27</course>
  <speed>0.29</speed>
  <fix>3d</fix>
</trkpt>
<trkpt lat="40.0729459" lon="-105.2308737">
  <ele>1587.45</ele>
  <time>2026-08-28T19:11:53Z</time>
  <course>309.43</course>
  <speed>0.3125699921617557</speed>
  <fix>3d</fix>
</trkpt>
<trkpt lat="40.0729455" lon="-105.2308737">
  <ele>1587.56</ele>
  <time>2026-08-28T19:11:53Z</time>
  <course>309.7</course>
  <speed>0.31400636936215165</speed>
  <fix>3d</fix>
</trkpt>
<trkpt lat="40.0729458" lon="-105.2308739">
  <ele>1587.38</ele>
  <time>2026-08-28T19:11:53Z</time>
  <course>174.0</course>
  <speed>0.3</speed>
  <fix>3d</fix>
</trkpt>
<trkpt lat="40.0729455" lon="-105.2308737">
  <ele>1587.57</ele>
  <time>2026-08-28T19:11:53Z</time>
  <course>309.71</course>
  <speed>0.31400636936215165</speed>
  <fix>3d</fix>
</trkpt>
<trkpt lat="40.0729449" lon="-105.2308736">
  <ele>1587.69</ele>
  <time>2026-08-28T19:11:54Z</time>
  <course>310.02</course>
  <speed>0.3255764119219941</speed>
  <fix>3d</fix>
</trkpt>
<trkpt lat="40.0729453" lon="-105.2308738">
  <ele>1587.51</ele>
  <time>2026-08-28T19:11:54Z</time>
  <course>172.0</course>
  <speed>0.31</speed>
  <fix>3d</fix>
</trkpt>
<trkpt lat="40.0729448" lon="-105.2308736">
  <ele>1587.71</ele>
  <time>2026-08-28T19:11:54Z</time>
  <course>310.08</course>
  <speed>0.327566787083184</speed>
  <fix>3d</fix>
</trkpt>
<trkpt lat="40.0729443" lon="-105.2308735">
  <ele>1587.82</ele>
  <time>2026-08-28T19:11:54Z</time>
  <course>310.36</course>
  <speed>0.3298484500494128</speed>
  <fix>3d</fix>
</trkpt>
<trkpt lat="40.0729446" lon="-105.2308737">
  <ele>1587.64</ele>
  <time>2026-08-28T19:11:54Z</time>
  <course>170.19</course>
  <speed>0.32</speed>
  <fix>3d</fix>
</trkpt>
<trkpt lat="40.0729443" lon="-105.2308734">
  <ele>1587.82</ele>
  <time>2026-08-28T19:11:54Z</time>
  <course>310.36</course>
  <speed>0.3298484500494128</speed>
  <fix>3d</fix>
</trkpt>
<trkpt lat="40.0729438" lon="-105.2308733">
  <ele>1587.94</ele>
  <time>2026-08-28T19:11:54Z</time>
  <course>310.66</course>
  <speed>0.3420526275297414</speed>
  <fix>3d</fix>
</trkpt>
<trkpt lat="40.0729441" lon="-105.2308736">
  <ele>1587.77</ele>
  <time>2026-08-28T19:11:54Z</time>
  <course>168.53</course>
  <speed>0.32</speed>
  <fix>3d</fix>
</trkpt>
<trkpt lat="40.0729437" lon="-105.2308733">
  <ele>1587.96</ele>
  <time>2026-08-28T19:11:54Z</time>
  <course>310.7</course>
  <speed>0.3420526275297414</speed>
  <fix>3d</fix>
</trkpt>
<trkpt lat="40.0729432" lon="-105.2308731">
  <ele>1588.07</ele>
  <time>2026-08-28T19:11:54Z</time>
  <course>310.94</course>
  <speed>0.34481879299133333</speed>
  <fix>3d</fix>
</trkpt>
<trkpt lat="40.0729436" lon="-105.2308734">
  <ele>1587.89</ele>
  <time>2026-08-28T19:11:54Z</time>
  <course>167.05</course>
  <speed>0.33</speed>
  <fix>3d</fix>
</trkpt>
<trkpt lat="40.0729431" lon="-105.2308731">
  <ele>1588.09</ele>
  <time>2026-08-28T19:11:54Z</time>
  <course>310.98</course>
  <speed>0.34481879299133333</speed>
  <fix>3d</fix>
</trkpt>
<trkpt lat="40.0729426" lon="-105.2308729">
  <ele>1588.2</ele>
  <time>2026-08-28T19:11:54Z</time>
  <course>311.21</course>
  <speed>0.354400902933387</speed>
  <fix>3d</fix>
</trkpt>
<trkpt lat="40.0729429" lon="-105.2308732">
  <ele>1588.02</ele>
  <time>2026-08-28T19:11:54Z</time>
  <course>165.77</course>
  <speed>0.34</speed>
  <fix>3d</fix>
</trkpt>
<trkpt lat="40.0729425" lon="-105.2308729">
  <ele>1588.22</ele>
  <time>2026-08-28T19:11:54Z</time>
  <course>311.25</course>
  <speed>0.35735136770411274</speed>
  <fix>3d</fix>
</trkpt>
<trkpt lat="40.072942" lon="-105.2308727">
  <ele>1588.33</ele>
  <time>2026-08-28T19:11:54Z</time>
  <course>309.6</course>
  <speed>0.35735136770411274</speed>
  <fix>3d</fix>
</trkpt>
<trkpt lat="40.0729424" lon="-105.2308731">
  <ele>1588.15</ele>
  <time>2026-08-28T19:11:54Z</time>
  <course>164.65</course>
  <speed>0.34</speed>
  <fix>3d</fix>
</trkpt>
<trkpt lat="40.0729419" lon="-105.2308727">
  <ele>1588.34</ele>
  <time>2026-08-28T19:11:54Z</time>
  <course>309.34</course>
  <speed>0.3605551275463989</speed>
  <fix>3d</fix>
</trkpt>
<trkpt lat="40.0729413" lon="-105.2308725">
  <ele>1588.46</ele>
  <time>2026-08-28T19:11:54Z</time>
  <course>308.44</course>
  <speed>0.37</speed>
  <fix>3d</fix>
</trkpt>
<trkpt lat="40.0729417" lon="-105.2308728">
  <ele>1588.28</ele>
  <time>2026-08-28T19:11:54Z</time>
  <course>163.79</course>
  <speed>0.35</speed>
  <fix>3d</fix>
</trkpt>
<trkpt lat="40.0729413" lon="-105.2308725">
  <ele>1588.46</ele>
  <time>2026-08-28T19:11:54Z</time>
  <course>308.45</course>
  <speed>0.37</speed>
  <fix>3d</fix>
</trkpt>
<trkpt lat="40.0729407" lon="-105.2308722">
  <ele>1588.58</ele>
  <time>2026-08-28T19:11:54Z</time>
  <course>309.43</course>
  <speed>0.3827531841800928</speed>
  <fix>3d</fix>
</trkpt>
<trkpt lat="40.0729411" lon="-105.2308726">
  <ele>1588.4</ele>
  <time>2026-08-28T19:11:54Z</time>
  <course>163.14</course>
  <speed>0.36</speed>
  <fix>3d</fix>
</trkpt>
<trkpt lat="40.0729406" lon="-105.2308722">
  <ele>1588.61</ele>
  <time>2026-08-28T19:11:54Z</time>
  <course>309.65</course>
  <speed>0.38626415831655936</speed>
  <fix>3d</fix>
</trkpt>
<trkpt lat="40.0729401" lon="-105.2308719">
  <ele>1588.71</ele>
  <time>2026-08-28T19:11:54Z</time>
  <course>310.47</course>
  <speed>0.38626415831655936</speed>
  <fix>3d</fix>
</trkpt>
<trkpt lat="40.0729405" lon="-105.2308723">
  <ele>1588.53</ele>
  <time>2026-08-28T19:11:54Z</time>
  <course>162.43</course>
  <speed>0.36</speed>
  <fix>3d</fix>
</trkpt>
<trkpt lat="40.07294" lon="-105.2308719">
  <ele>1588.72</ele>
  <time>2026-08-28T19:11:54Z</time>
  <course>310.58</course>
  <speed>0.38626415831655936</speed>
  <fix>3d</fix>
</trkpt>
<trkpt lat="40.0729394" lon="-105.2308717">
  <ele>1588.83</ele>
  <time>2026-08-28T19:11:54Z</time>
  <course>311.04</course>
  <speed>0.3769615364994153</speed>
  <fix>3d</fix>
</trkpt>
<trkpt lat="40.0729398" lon="-105.230872">
  <ele>1588.65</ele>
  <time>2026-08-28T19:11:54Z</time>
  <course>161.76</course>
  <speed>0.37</speed>
  <fix>3d</fix>
</trkpt>
<trkpt lat="40.0729393" lon="-105.2308716">
  <ele>1588.85</ele>
  <time>2026-08-28T19:11:54Z</time>
  <course>311.12</course>
  <speed>0.3769615364994153</speed>
  <fix>3d</fix>
</trkpt>
<trkpt lat="40.0729388" lon="-105.2308714">
  <ele>1588.95</ele>
  <time>2026-08-28T19:11:54Z</time>
  <course>311.39</course>
  <speed>0.3769615364994153</speed>
  <fix>3d</fix>
</trkpt>
<trkpt lat="40.0729392" lon="-105.2308717">
  <ele>1588.78</ele>
  <time>2026-08-28T19:11:54Z</time>
  <course>161.29</course>
  <speed>0.37</speed>
  <fix>3d</fix>
</trkpt>
<trkpt lat="40.0729387" lon="-105.2308713">
  <ele>1588.97</ele>
  <time>2026-08-28T19:11:54Z</time>
  <course>311.44</course>
  <speed>0.3769615364994153</speed>
  <fix>3d</fix>
</trkpt>
<trkpt lat="40.0729382" lon="-105.2308711">
  <ele>1589.07</ele>
  <time>2026-08-28T19:11:54Z</time>
  <course>311.68</course>
  <speed>0.3769615364994153</speed>
  <fix>3d</fix>
</trkpt>
<trkpt lat="40.0729386" lon="-105.2308715">
  <ele>1588.9</ele>
  <time>2026-08-28T19:11:54Z</time>
  <course>160.91</course>
  <speed>0.37</speed>
  <fix>3d</fix>
</trkpt>
<trkpt lat="40.0729382" lon="-105.2308711">
  <ele>1589.08</ele>
  <time>2026-08-28T19:11:54Z</time>
  <course>311.68</course>
  <speed>0.3769615364994153</speed>
  <fix>3d</fix>
</trkpt>
<trkpt lat="40.0729376" lon="-105.2308708">
  <ele>1589.2</ele>
  <time>2026-08-28T19:11:54Z</time>
  <course>311.89</course>
  <speed>0.3769615364994153</speed>
  <fix>3d</fix>
</trkpt>
<trkpt lat="40.0729379" lon="-105.2308712">
  <ele>1589.03</ele>
  <time>2026-08-28T19:11:54Z</time>
  <course>160.5</course>
  <speed>0.38</speed>
  <fix>3d</fix>
</trkpt>
<trkpt lat="40.0729375" lon="-105.2308708">
  <ele>1589.22</ele>
  <time>2026-08-28T19:11:54Z</time>
  <course>311.92</course>
  <speed>0.3769615364994153</speed>
  <fix>3d</fix>
</trkpt>
<trkpt lat="40.0729369" lon="-105.2308706">
  <ele>1589.33</ele>
  <time>2026-08-28T19:11:54Z</time>
  <course>312.11</course>
  <speed>0.3769615364994153</speed>
  <fix>3d</fix>
</trkpt>
<trkpt lat="40.0729372" lon="-105.2308709">
  <ele>1589.15</ele>
  <time>2026-08-28T19:11:54Z</time>
  <course>160.08</course>
  <speed>0.38</speed>
  <fix>3d</fix>
</trkpt>
<trkpt lat="40.0729368" lon="-105.2308705">
  <ele>1589.35</ele>
  <time>2026-08-28T19:11:54Z</time>
  <course>312.14</course>
  <speed>0.3769615364994153</speed>
  <fix>3d</fix>
</trkpt>
<trkpt lat="40.0729363" lon="-105.2308703">
  <ele>1589.45</ele>
  <time>2026-08-28T19:11:54Z</time>
  <course>312.29</course>
  <speed>0.38626415831655936</speed>
  <fix>3d</fix>
</trkpt>
<trkpt lat="40.0729366" lon="-105.2308706">
  <ele>1589.28</ele>
  <time>2026-08-28T19:11:54Z</time>
  <course>159.64</course>
  <speed>0.39</speed>
  <fix>3d</fix>
</trkpt>
<trkpt lat="40.0729362" lon="-105.2308702">
  <ele>1589.47</ele>
  <time>2026-08-28T19:11:54Z</time>
  <course>312.31</course>
  <speed>0.39</speed>
  <fix>3d</fix>
</trkpt>
<trkpt lat="40.0729356" lon="-105.2308699">
  <ele>1589.58</ele>
  <time>2026-08-28T19:11:54Z</time>
  <course>312.47</course>
  <speed>0.39</speed>
  <fix>3d</fix>
</trkpt>
<trkpt lat="40.0729359" lon="-105.2308702">
  <ele>1589.4</ele>
  <time>2026-08-28T19:11:54Z</time>
  <course>159.19</course>
  <speed>0.4</speed>
  <fix>3d</fix>
</trkpt>
<trkpt lat="40.0729355" lon="-105.2308699">
  <ele>1589.59</ele>
  <time>2026-08-28T19:11:54Z</time>
  <course>312.5</course>
  <speed>0.39</speed>
  <fix>3d</fix>
</trkpt>
<trkpt lat="40.0729349" lon="-105.2308696">
  <ele>1589.7</ele>
  <time>2026-08-28T19:11:54Z</time>
  <course>312.66</course>
  <speed>0.39</speed>
  <fix>3d</fix>
</trkpt>
<trkpt lat="40.0729353" lon="-105.2308699">
  <ele>1589.53</ele>
  <time>2026-08-28T19:11:54Z</time>
  <course>158.79</course>
  <speed>0.4</speed>
  <fix>3d</fix>
</trkpt>
<trkpt lat="40.0729348" lon="-105.2308696">
  <ele>1589.72</ele>
  <time>2026-08-28T19:11:54Z</time>
  <course>312.68</course>
  <speed>0.39</speed>
  <fix>3d</fix>
</trkpt>
<trkpt lat="40.0729342" lon="-105.2308693">
  <ele>1589.83</ele>
  <time>2026-08-28T19:11:54Z</time>
  <course>312.85</course>
  <speed>0.39</speed>
  <fix>3d</fix>
</trkpt>
<trkpt lat="40.0729346" lon="-105.2308695">
  <ele>1589.66</ele>
  <time>2026-08-28T19:11:54Z</time>
  <course>158.44</course>
  <speed>0.4</speed>
  <fix>3d</fix>
</trkpt>
<trkpt lat="40.0729342" lon="-105.2308693">
  <ele>1589.83</ele>
  <time>2026-08-28T19:11:54Z</time>
  <course>312.85</course>
  <speed>0.39</speed>
  <fix>3d</fix>
</trkpt>
<trkpt lat="40.0729336" lon="-105.2308689">
  <ele>1589.96</ele>
  <time>2026-08-28T19:11:54Z</time>
  <course>312.99</course>
  <speed>0.40311288741492746</speed>
  <fix>3d</fix>
</trkpt>
<trkpt lat="40.0729339" lon="-105.2308692">
  <ele>1589.79</ele>
  <time>2026-08-28T19:11:54Z</time>
  <course>158.12</course>
  <speed>0.41</speed>
  <fix>3d</fix>
</trkpt>
<trkpt lat="40.0729334" lon="-105.2308688">
  <ele>1589.98</ele>
  <time>2026-08-28T19:11:54Z</time>
  <course>313.02</course>
  <speed>0.40311288741492746</speed>
  <fix>3d</fix>
</trkpt>
<trkpt lat="40.0729329" lon="-105.2308685">
  <ele>1590.09</ele>
  <time>2026-08-28T19:11:54Z</time>
  <course>313.17</course>
  <speed>0.40311288741492746</speed>
  <fix>3d</fix>
</trkpt>
<trkpt lat="40.0729332" lon="-105.2308688">
  <ele>1589.91</ele>
  <time>2026-08-28T19:11:54Z</time>
  <course>157.83</course>
  <speed>0.41</speed>
  <fix>3d</fix>
</trkpt>
<trkpt lat="40.0729328" lon="-105.2308685">
  <ele>1590.11</ele>
  <time>2026-08-28T19:11:54Z</time>
  <course>313.19</course>
  <speed>0.40311288741492746</speed>
  <fix>3d</fix>
</trkpt>
<trkpt lat="40.0729322" lon="-105.2308682">
  <ele>1590.22</ele>
  <time>2026-08-28T19:11:54Z</time>
  <course>313.34</course>
  <speed>0.40311288741492746</speed>
  <fix>3d</fix>
</trkpt>
<trkpt lat="40.0729325" lon="-105.2308685">
  <ele>1590.04</ele>
  <time>2026-08-28T19:11:54Z</time>
  <course>157.64</course>
  <speed>0.42</speed>
  <fix>3d</fix>
</trkpt>
<trkpt lat="40.0729321" lon="-105.2308681">
  <ele>1590.24</ele>
  <time>2026-08-28T19:11:54Z</time>
  <course>313.37</course>
  <speed>0.40311288741492746</speed>
  <fix>3d</fix>
</trkpt>
<trkpt lat="40.0729315" lon="-105.2308678">
  <ele>1590.35</ele>
  <time>2026-08-28T19:11:54Z</time>
  <course>313.5</course>
  <speed>0.41231056256176607</speed>
  <fix>3d</fix>
</trkpt>
<trkpt lat="40.0729318" lon="-105.2308681">
  <ele>1590.16</ele>
  <time>2026-08-28T19:11:54Z</time>
  <course>157.49</course>
  <speed>0.42</speed>
  <fix>3d</fix>
</trkpt>
<trkpt lat="40.0729315" lon="-105.2308678">
  <ele>1590.35</ele>
  <time>2026-08-28T19:11:54Z</time>
  <course>313.51</course>
  <speed>0.41231056256176607</speed>
  <fix>3d</fix>
</trkpt>
<trkpt lat="40.0729308" lon="-105.2308674">
  <ele>1590.48</ele>
  <time>2026-08-28T19:11:54Z</time>
  <course>313.67</course>
  <speed>0.416293165929973</speed>
  <fix>3d</fix>
</trkpt>
<trkpt lat="40.0729311" lon="-105.2308677">
  <ele>1590.29</ele>
  <time>2026-08-28T19:11:54Z</time>
  <course>157.36</course>
  <speed>0.42</speed>
  <fix>3d</fix>
</trkpt>
<trkpt lat="40.0729307" lon="-105.2308674">
  <ele>1590.5</ele>
  <time>2026-08-28T19:11:54Z</time>
  <course>313.68</course>
  <speed>0.416293165929973</speed>
  <fix>3d</fix>
</trkpt>
<trkpt lat="40.07293" lon="-105.230867">
  <ele>1590.61</ele>
  <time>2026-08-28T19:11:54Z</time>
  <course>313.82</course>
  <speed>0.416293165929973</speed>
  <fix>3d</fix>
</trkpt>
<trkpt lat="40.0729304" lon="-105.2308673">
  <ele>1590.41</ele>
  <time>2026-08-28T19:11:54Z</time>
  <course>157.25</course>
  <speed>0.43</speed>
  <fix>3d</fix>
</trkpt>
<trkpt lat="40.07293" lon="-105.230867">
  <ele>1590.61</ele>
  <time>2026-08-28T19:11:54Z</time>
  <course>313.82</course>
  <speed>0.416293165929973</speed>
  <fix>3d</fix>
</trkpt>
<trkpt lat="40.0729293" lon="-105.2308667">
  <ele>1590.73</ele>
  <time>2026-08-28T19:11:54Z</time>
  <course>313.96</course>
  <speed>0.416293165929973</speed>
  <fix>3d</fix>
</trkpt>
<trkpt lat="40.0729297" lon="-105.2308669">
  <ele>1590.54</ele>
  <time>2026-08-28T19:11:54Z</time>
  <course>157.16</course>
  <speed>0.43</speed>
  <fix>3d</fix>
</trkpt>
<trkpt lat="40.0729292" lon="-105.2308666">
  <ele>1590.75</ele>
  <time>2026-08-28T19:11:54Z</time>
  <course>313.99</course>
  <speed>0.416293165929973</speed>
  <fix>3d</fix>
</trkpt>
<trkpt lat="40.0729286" lon="-105.2308663">
  <ele>1590.86</ele>
  <time>2026-08-28T19:11:54Z</time>
  <course>314.11</course>
  <speed>0.416293165929973</speed>
  <fix>3d</fix>
</trkpt>
<trkpt lat="40.0729289" lon="-105.2308664">
  <ele>1590.65</ele>
  <time>2026-08-28T19:11:54Z</time>
  <course>157.05</course>
  <speed>0.43</speed>
  <fix>3d</fix>
</trkpt>
<trkpt lat="40.0729285" lon="-105.2308662">
  <ele>1590.88</ele>
  <time>2026-08-28T19:11:54Z</time>
  <course>314.12</course>
  <speed>0.416293165929973</speed>
  <fix>3d</fix>
</trkpt>
<trkpt lat="40.0729279" lon="-105.2308658">
  <ele>1590.99</ele>
  <time>2026-08-28T19:11:54Z</time>
  <course>314.26</course>
  <speed>0.416293165929973</speed>
  <fix>3d</fix>
</trkpt>
<trkpt lat="40.0729282" lon="-105.230866">
  <ele>1590.78</ele>
  <time>2026-08-28T19:11:54Z</time>
  <course>156.98</course>
  <speed>0.43</speed>
  <fix>3d</fix>
</trkpt>
<trkpt lat="40.0729279" lon="-105.2308658">
  <ele>1590.99</ele>
  <time>2026-08-28T19:11:54Z</time>
  <course>314.26</course>
  <speed>0.416293165929973</speed>
  <fix>3d</fix>
</trkpt>
<trkpt lat="40.0729272" lon="-105.2308654">
  <ele>1591.11</ele>
  <time>2026-08-28T19:11:54Z</time>
  <course>314.37</course>
  <speed>0.416293165929973</speed>
  <fix>3d</fix>
</trkpt>
<trkpt lat="40.0729275" lon="-105.2308657">
  <ele>1590.89</ele>
  <time>2026-08-28T19:11:54Z</time>
  <course>156.93</course>
  <speed>0.43</speed>
  <fix>3d</fix>
</trkpt>
<trkpt lat="40.0729271" lon="-105.2308654">
  <ele>1591.13</ele>
  <time>2026-08-28T19:11:54Z</time>
  <course>314.38</course>
  <speed>0.416293165929973</speed>
  <fix>3d</fix>
</trkpt>
<trkpt lat="40.0729264" lon="-105.230865">
  <ele>1591.24</ele>
  <time>2026-08-28T19:11:54Z</time>
  <course>314.5</course>
  <speed>0.4204759208325728</speed>
  <fix>3d</fix>
</trkpt>
<trkpt lat="40.0729268" lon="-105.2308652">
  <ele>1591.02</ele>
  <time>2026-08-28T19:11:54Z</time>
  <course>156.92</course>
  <speed>0.43</speed>
  <fix>3d</fix>
</trkpt>
<trkpt lat="40.0729263" lon="-105.230865">
  <ele>1591.25</ele>
  <time>2026-08-28T19:11:54Z</time>
  <course>314.52</course>
  <speed>0.4204759208325728</speed>
  <fix>3d</fix>
</trkpt>
<trkpt lat="40.0729257" lon="-105.2308646">
  <ele>1591.36</ele>
  <time>2026-08-28T19:11:54Z</time>
  <course>314.61</course>
  <speed>0.4295346318982906</speed>
  <fix>3d</fix>
</trkpt>
<trkpt lat="40.0729261" lon="-105.2308649">
  <ele>1591.13</ele>
  <time>2026-08-28T19:11:54Z</time>
  <course>156.93</course>
  <speed>0.43</speed>
  <fix>3d</fix>
</trkpt>
<trkpt lat="40.0729257" lon="-105.2308646">
  <ele>1591.36</ele>
  <time>2026-08-28T19:11:54Z</time>
  <course>314.61</course>
  <speed>0.4295346318982906</speed>
  <fix>3d</fix>
</trkpt>
<trkpt lat="40.072925" lon="-105.2308642">
  <ele>1591.48</ele>
  <time>2026-08-28T19:11:54Z</time>
  <course>314.69</course>
  <speed>0.4295346318982906</speed>
  <fix>3d</fix>
</trkpt>
<trkpt lat="40.0729253" lon="-105.2308645">
  <ele>1591.26</ele>
  <time>2026-08-28T19:11:54Z</time>
  <course>156.95</course>
  <speed>0.43</speed>
  <fix>3d</fix>
</trkpt>
<trkpt lat="40.0729249" lon="-105.2308641">
  <ele>1591.49</ele>
  <time>2026-08-28T19:11:54Z</time>
  <course>314.71</course>
  <speed>0.4295346318982906</speed>
  <fix>3d</fix>
</trkpt>
<trkpt lat="40.0729243" lon="-105.2308638">
  <ele>1591.6</ele>
  <time>2026-08-28T19:11:54Z</time>
  <course>314.8</course>
  <speed>0.4295346318982906</speed>
  <fix>3d</fix>
</trkpt>
<trkpt lat="40.0729246" lon="-105.230864">
  <ele>1591.38</ele>
  <time>2026-08-28T19:11:54Z</time>
  <course>157.01</course>
  <speed>0.43</speed>
  <fix>3d</fix>
</trkpt>
<trkpt lat="40.0729243" lon="-105.2308638">
  <ele>1591.6</ele>
  <time>2026-08-28T19:11:54Z</time>
  <course>314.8</course>
  <speed>0.4295346318982906</speed>
  <fix>3d</fix>
</trkpt>
<trkpt lat="40.0729236" lon="-105.2308634">
  <ele>1591.72</ele>
  <time>2026-08-28T19:11:54Z</time>
  <course>314.9</course>
  <speed>0.4295346318982906</speed>
  <fix>3d</fix>
</trkpt>
<trkpt lat="40.0729239" lon="-105.2308636">
  <ele>1591.51</ele>
  <time>2026-08-28T19:11:54Z</time>
  <course>157.07</course>
  <speed>0.43</speed>
  <fix>3d</fix>
</trkpt>
<trkpt lat="40.0729234" lon="-105.2308633">
  <ele>1591.74</ele>
  <time>2026-08-28T19:11:54Z</time>
  <course>314.92</course>
  <speed>0.4295346318982906</speed>
  <fix>3d</fix>
</trkpt>
<trkpt lat="40.0729228" lon="-105.230863">
  <ele>1591.84</ele>
  <time>2026-08-28T19:11:54Z</time>
  <course>315.0</course>
  <speed>0.4295346318982906</speed>
  <fix>3d</fix>
</trkpt>
<trkpt lat="40.0729232" lon="-105.2308633">
  <ele>1591.62</ele>
  <time>2026-08-28T19:11:54Z</time>
  <course>157.14</course>
  <speed>0.43</speed>
  <fix>3d</fix>
</trkpt>
<trkpt lat="40.0729227" lon="-105.2308629">
  <ele>1591.86</ele>
  <time>2026-08-28T19:11:54Z</time>
  <course>315.02</course>
  <speed>0.4295346318982906</speed>
  <fix>3d</fix>
</trkpt>
<trkpt lat="40.0729221" lon="-105.2308626">
  <ele>1591.97</ele>
  <time>2026-08-28T19:11:54Z</time>
  <course>315.1</course>
  <speed>0.4295346318982906</speed>
  <fix>3d</fix>
</trkpt>
<trkpt lat="40.0729224" lon="-105.2308628">
  <ele>1591.75</ele>
  <time>2026-08-28T19:11:54Z</time>
  <course>157.22</course>
  <speed>0.43</speed>
  <fix>3d</fix>
</trkpt>
<trkpt lat="40.072922" lon="-105.2308625">
  <ele>1591.98</ele>
  <time>2026-08-28T19:11:54Z</time>
  <course>315.11</course>
  <speed>0.4295346318982906</speed>
  <fix>3d</fix>
</trkpt>
<trkpt lat="40.0729214" lon="-105.2308622">
  <ele>1592.09</ele>
  <time>2026-08-28T19:11:54Z</time>
  <course>315.19</course>
  <speed>0.4295346318982906</speed>
  <fix>3d</fix>
</trkpt>
<trkpt lat="40.0729217" lon="-105.2308625">
  <ele>1591.87</ele>
  <time>2026-08-28T19:11:54Z</time>
  <course>157.3</course>
  <speed>0.43</speed>
  <fix>3d</fix>
</trkpt>
<trkpt lat="40.0729213" lon="-105.2308621">
  <ele>1592.11</ele>
  <time>2026-08-28T19:11:54Z</time>
  <course>315.2</course>
  <speed>0.4295346318982906</speed>
  <fix>3d</fix>
</trkpt>
<trkpt lat="40.0729207" lon="-105.2308618">
  <ele>1592.21</ele>
  <time>2026-08-28T19:11:54Z</time>
  <course>315.28</course>
  <speed>0.4295346318982906</speed>
  <fix>3d</fix>
</trkpt>
<trkpt lat="40.072921" lon="-105.2308621">
  <ele>1592.0</ele>
  <time>2026-08-28T19:11:54Z</time>
  <course>157.43</course>
  <speed>0.43</speed>
  <fix>3d</fix>
</trkpt>
<trkpt lat="40.0729207" lon="-105.2308618">
  <ele>1592.22</ele>
  <time>2026-08-28T19:11:54Z</time>
  <course>315.28</course>
  <speed>0.4295346318982906</speed>
  <fix>3d</fix>
</trkpt>
<trkpt lat="40.0729199" lon="-105.2308614">
  <ele>1592.34</ele>
  <time>2026-08-28T19:11:54Z</time>
  <course>315.37</course>
  <speed>0.4295346318982906</speed>
  <fix>3d</fix>
</trkpt>
<trkpt lat="40.0729202" lon="-105.2308617">
  <ele>1592.12</ele>
  <time>2026-08-28T19:11:54Z</time>
  <course>157.63</course>
  <speed>0.43</speed>
  <fix>3d</fix>
</trkpt>
<trkpt lat="40.0729198" lon="-105.2308613">
  <ele>1592.35</ele>
  <time>2026-08-28T19:11:54Z</time>
  <course>315.38</course>
  <speed>0.4204759208325728</speed>
  <fix>3d</fix>
</trkpt>
<trkpt lat="40.0729192" lon="-105.230861">
  <ele>1592.46</ele>
  <time>2026-08-28T19:11:54Z</time>
  <course>315.44</course>
  <speed>0.4204759208325728</speed>
  <fix>3d</fix>
</trkpt>
<trkpt lat="40.0729195" lon="-105.2308614">
  <ele>1592.25</ele>
  <time>2026-08-28T19:11:54Z</time>
  <course>157.86</course>
  <speed>0.43</speed>
  <fix>3d</fix>
</trkpt>
<trkpt lat="40.0729191" lon="-105.2308609">
  <ele>1592.48</ele>
  <time>2026-08-28T19:11:54Z</time>
  <course>315.46</course>
  <speed>0.4204759208325728</speed>
  <fix>3d</fix>
</trkpt>
<trkpt lat="40.0729185" lon="-105.2308606">
  <ele>1592.59</ele>
  <time>2026-08-28T19:11:54Z</time>
  <course>315.52</course>
  <speed>0.416293165929973</speed>
  <fix>3d</fix>
</trkpt>
<trkpt lat="40.0729188" lon="-105.230861">
  <ele>1592.37</ele>
  <time>2026-08-28T19:11:54Z</time>
  <course>158.13</course>
  <speed>0.43</speed>
  <fix>3d</fix>
</trkpt>
<trkpt lat="40.0729184" lon="-105.2308606">
  <ele>1592.61</ele>
  <time>2026-08-28T19:11:54Z</time>
  <course>315.53</course>
  <speed>0.416293165929973</speed>
  <fix>3d</fix>
</trkpt>
<trkpt lat="40.0729178" lon="-105.2308602">
  <ele>1592.72</ele>
  <time>2026-08-28T19:11:54Z</time>
  <course>315.63</course>
  <speed>0.416293165929973</speed>
  <fix>3d</fix>
</trkpt>
<trkpt lat="40.0729181" lon="-105.2308606">
  <ele>1592.5</ele>
  <time>2026-08-28T19:11:54Z</time>
  <course>158.43</course>
  <speed>0.42</speed>
  <fix>3d</fix>
</trkpt>
<trkpt lat="40.0729177" lon="-105.2308602">
  <ele>1592.73</ele>
  <time>2026-08-28T19:11:54Z</time>
  <course>315.64</course>
  <speed>0.416293165929973</speed>
  <fix>3d</fix>
</trkpt>
<trkpt lat="40.072917" lon="-105.2308599">
  <ele>1592.84</ele>
  <time>2026-08-28T19:11:54Z</time>
  <course>315.71</course>
  <speed>0.416293165929973</speed>
  <fix>3d</fix>
</trkpt>
<trkpt lat="40.0729174" lon="-105.2308602">
  <ele>1592.62</ele>
  <time>2026-08-28T19:11:54Z</time>
  <course>158.72</course>
  <speed>0.42</speed>
  <fix>3d</fix>
</trkpt>
<trkpt lat="40.072917" lon="-105.2308599">
  <ele>1592.84</ele>
  <time>2026-08-28T19:11:54Z</time>
  <course>315.71</course>
  <speed>0.416293165929973</speed>
  <fix>3d</fix>
</trkpt>
<trkpt lat="40.0729163" lon="-105.2308595">
  <ele>1592.96</ele>
  <time>2026-08-28T19:11:54Z</time>
  <course>315.8</course>
  <speed>0.416293165929973</speed>
  <fix>3d</fix>
</trkpt>
<trkpt lat="40.0729167" lon="-105.2308599">
  <ele>1592.75</ele>
  <time>2026-08-28T19:11:54Z</time>
  <course>159.02</course>
  <speed>0.42</speed>
  <fix>3d</fix>
</trkpt>
<trkpt lat="40.0729162" lon="-105.2308595">
  <ele>1592.98</ele>
  <time>2026-08-28T19:11:54Z</time>
  <course>315.81</course>
  <speed>0.416293165929973</speed>
  <fix>3d</fix>
</trkpt>
<trkpt lat="40.0729156" lon="-105.2308592">
  <ele>1593.09</ele>
  <time>2026-08-28T19:11:54Z</time>
  <course>315.89</course>
  <speed>0.416293165929973</speed>
  <fix>3d</fix>
</trkpt>
<trkpt lat="40.0729159" lon="-105.2308595">
  <ele>1592.87</ele>
  <time>2026-08-28T19:11:54Z</time>
  <course>159.38</course>
  <speed>0.42</speed>
  <fix>3d</fix>
</trkpt>
<trkpt lat="40.0729156" lon="-105.2308591">
  <ele>1593.09</ele>
  <time>2026-08-28T19:11:54Z</time>
  <course>315.89</course>
  <speed>0.416293165929973</speed>
  <fix>3d</fix>
</trkpt>
<trkpt lat="40.0729149" lon="-105.2308588">
  <ele>1593.22</ele>
  <time>2026-08-28T19:11:54Z</time>
  <course>315.97</course>
  <speed>0.41231056256176607</speed>
  <fix>3d</fix>
</trkpt>
<trkpt lat="40.0729152" lon="-105.2308592">
  <ele>1593.0</ele>
  <time>2026-08-28T19:11:54Z</time>
  <course>159.74</course>
  <speed>0.42</speed>
  <fix>3d</fix>
</trkpt>
<trkpt lat="40.0729148" lon="-105.2308588">
  <ele>1593.24</ele>
  <time>2026-08-28T19:11:54Z</time>
  <course>315.98</course>
  <speed>0.41231056256176607</speed>
  <fix>3d</fix>
</trkpt>
<trkpt lat="40.0729142" lon="-105.2308585">
  <ele>1593.35</ele>
  <time>2026-08-28T19:11:54Z</time>
  <course>316.05</course>
  <speed>0.41231056256176607</speed>
  <fix>3d</fix>
</trkpt>
<trkpt lat="40.0729145" lon="-105.2308588">
  <ele>1593.13</ele>
  <time>2026-08-28T19:11:54Z</time>
  <course>160.04</course>
  <speed>0.41</speed>
  <fix>3d</fix>
</trkpt>
<trkpt lat="40.0729141" lon="-105.2308584">
  <ele>1593.37</ele>
  <time>2026-08-28T19:11:54Z</time>
  <course>316.06</course>
  <speed>0.41231056256176607</speed>
  <fix>3d</fix>
</trkpt>
<trkpt lat="40.0729135" lon="-105.2308581">
  <ele>1593.48</ele>
  <time>2026-08-28T19:11:54Z</time>
  <course>316.14</course>
  <speed>0.41231056256176607</speed>
  <fix>3d</fix>
</trkpt>
<trkpt lat="40.0729138" lon="-105.2308585">
  <ele>1593.26</ele>
  <time>2026-08-28T19:11:54Z</time>
  <course>160.3</course>
  <speed>0.41</speed>
  <fix>3d</fix>
</trkpt>
<trkpt lat="40.0729134" lon="-105.2308581">
  <ele>1593.5</ele>
  <time>2026-08-28T19:11:54Z</time>
  <course>316.15</course>
  <speed>0.41231056256176607</speed>
  <fix>3d</fix>
</trkpt>
<trkpt lat="40.0729128" lon="-105.2308578">
  <ele>1593.61</ele>
  <time>2026-08-28T19:11:54Z</time>
  <course>316.22</course>
  <speed>0.41231056256176607</speed>
  <fix>3d</fix>
</trkpt>
<trkpt lat="40.0729131" lon="-105.2308581">
  <ele>1593.38</ele>
  <time>2026-08-28T19:11:54Z</time>
  <course>160.58</course>
  <speed>0.41</speed>
  <fix>3d</fix>
</trkpt>
<trkpt lat="40.0729128" lon="-105.2308578">
  <ele>1593.61</ele>
  <time>2026-08-28T19:11:54Z</time>
  <course>316.22</course>
  <speed>0.41231056256176607</speed>
  <fix>3d</fix>
</trkpt>
<trkpt lat="40.0729121" lon="-105.2308575">
  <ele>1593.73</ele>
  <time>2026-08-28T19:11:54Z</time>
  <course>316.32</course>
  <speed>0.40311288741492746</speed>
  <fix>3d</fix>
</trkpt>
<trkpt lat="40.0729124" lon="-105.2308578">
  <ele>1593.51</ele>
  <time>2026-08-28T19:11:54Z</time>
  <course>160.9</course>
  <speed>0.41</speed>
  <fix>3d</fix>
</trkpt>
<trkpt lat="40.072912" lon="-105.2308574">
  <ele>1593.75</ele>
  <time>2026-08-28T19:11:54Z</time>
  <course>316.32</course>
  <speed>0.3992492955535426</speed>
  <fix>3d</fix>
</trkpt>
<trkpt lat="40.0729114" lon="-105.2308571">
  <ele>1593.86</ele>
  <time>2026-08-28T19:11:54Z</time>
  <course>316.4</course>
  <speed>0.3992492955535426</speed>
  <fix>3d</fix>
</trkpt>
<trkpt lat="40.0729117" lon="-105.2308575">
  <ele>1593.62</ele>
  <time>2026-08-28T19:11:54Z</time>
  <course>161.23</course>
  <speed>0.4</speed>
  <fix>3d</fix>
</trkpt>
<trkpt lat="40.0729112" lon="-105.2308571">
  <ele>1593.88</ele>
  <time>2026-08-28T19:11:54Z</time>
  <course>316.41</course>
  <speed>0.3992492955535426</speed>
  <fix>3d</fix>
</trkpt>
<trkpt lat="40.0729107" lon="-105.2308568">
  <ele>1593.98</ele>
  <time>2026-08-28T19:11:54Z</time>
  <course>316.46</course>
  <speed>0.3992492955535426</speed>
  <fix>3d</fix>
</trkpt>
<trkpt lat="40.072911" lon="-105.2308572">
  <ele>1593.75</ele>
  <time>2026-08-28T19:11:54Z</time>
  <course>161.55</course>
  <speed>0.4</speed>
  <fix>3d</fix>
</trkpt>
<trkpt lat="40.0729106" lon="-105.2308568">
  <ele>1594.0</ele>
  <time>2026-08-28T19:11:54Z</time>
  <course>316.47</course>
  <speed>0.3992492955535426</speed>
  <fix>3d</fix>
</trkpt>
<trkpt lat="40.07291" lon="-105.2308565">
  <ele>1594.1</ele>
  <time>2026-08-28T19:11:54Z</time>
  <course>316.53</course>
  <speed>0.3992492955535426</speed>
  <fix>3d</fix>
</trkpt>
<trkpt lat="40.0729103" lon="-105.2308569">
  <ele>1593.87</ele>
  <time>2026-08-28T19:11:54Z</time>
  <course>161.89</course>
  <speed>0.4</speed>
  <fix>3d</fix>
</trkpt>
<trkpt lat="40.07291" lon="-105.2308565">
  <ele>1594.1</ele>
  <time>2026-08-28T19:11:54Z</time>
  <course>316.53</course>
  <speed>0.3992492955535426</speed>
  <fix>3d</fix>
</trkpt>
<trkpt lat="40.0729093" lon="-105.2308562">
  <ele>1594.23</ele>
  <time>2026-08-28T19:11:54Z</time>
  <course>316.6</course>
  <speed>0.3956008088970496</speed>
  <fix>3d</fix>
</trkpt>
<trkpt lat="40.0729096" lon="-105.2308566">
  <ele>1594.0</ele>
  <time>2026-08-28T19:11:54Z</time>
  <course>162.24</course>
  <speed>0.4</speed>
  <fix>3d</fix>
</trkpt>
<trkpt lat="40.0729092" lon="-105.2308562">
  <ele>1594.24</ele>
  <time>2026-08-28T19:11:54Z</time>
  <course>316.61</course>
  <speed>0.3956008088970496</speed>
  <fix>3d</fix>
</trkpt>
<trkpt lat="40.0729086" lon="-105.230856">
  <ele>1594.35</ele>
  <time>2026-08-28T19:11:54Z</time>
  <course>316.67</course>
  <speed>0.3956008088970496</speed>
  <fix>3d</fix>
</trkpt>
<trkpt lat="40.0729089" lon="-105.2308563">
  <ele>1594.12</ele>
  <time>2026-08-28T19:11:54Z</time>
  <course>162.59</course>
  <speed>0.39</speed>
  <fix>3d</fix>
</trkpt>
<trkpt lat="40.0729086" lon="-105.230856">
  <ele>1594.35</ele>
  <time>2026-08-28T19:11:54Z</time>
  <course>316.67</course>
  <speed>0.3956008088970496</speed>
  <fix>3d</fix>
</trkpt>
<trkpt lat="40.0729079" lon="-105.2308557">
  <ele>1594.47</ele>
  <time>2026-08-28T19:11:54Z</time>
  <course>316.72</course>
  <speed>0.38626415831655936</speed>
  <fix>3d</fix>
</trkpt>
<trkpt lat="40.0729083" lon="-105.230856">
  <ele>1594.25</ele>
  <time>2026-08-28T19:11:54Z</time>
  <course>162.96</course>
  <speed>0.39</speed>
  <fix>3d</fix>
</trkpt>
<trkpt lat="40.0729079" lon="-105.2308557">
  <ele>1594.49</ele>
  <time>2026-08-28T19:11:54Z</time>
  <course>316.73</course>
  <speed>0.38626415831655936</speed>
  <fix>3d</fix>
</trkpt>
<trkpt lat="40.0729073" lon="-105.2308554">
  <ele>1594.59</ele>
  <time>2026-08-28T19:11:54Z</time>
  <course>316.79</course>
  <speed>0.38626415831655936</speed>
  <fix>3d</fix>
</trkpt>
<trkpt lat="40.0729076" lon="-105.2308558">
  <ele>1594.37</ele>
  <time>2026-08-28T19:11:54Z</time>
  <course>163.34</course>
  <speed>0.39</speed>
  <fix>3d</fix>
</trkpt>
<trkpt lat="40.0729072" lon="-105.2308554">
  <ele>1594.61</ele>
  <time>2026-08-28T19:11:54Z</time>
  <course>316.79</course>
  <speed>0.3827531841800928</speed>
  <fix>3d</fix>
</trkpt>
<trkpt lat="40.0729066" lon="-105.2308552">
  <ele>1594.72</ele>
  <time>2026-08-28T19:11:54Z</time>
  <course>316.86</course>
  <speed>0.3827531841800928</speed>
  <fix>3d</fix>
</trkpt>
<trkpt lat="40.0729069" lon="-105.2308555">
  <ele>1594.5</ele>
  <time>2026-08-28T19:11:54Z</time>
  <course>163.72</course>
  <speed>0.38</speed>
  <fix>3d</fix>
</trkpt>
<trkpt lat="40.0729066" lon="-105.2308552">
  <ele>1594.72</ele>
  <time>2026-08-28T19:11:54Z</time>
  <course>316.86</course>
  <speed>0.3827531841800928</speed>
  <fix>3d</fix>
</trkpt>
<trkpt lat="40.0729059" lon="-105.2308549">
  <ele>1594.85</ele>
  <time>2026-08-28T19:11:54Z</time>
  <course>316.94</course>
  <speed>0.3827531841800928</speed>
  <fix>3d</fix>
</trkpt>
<trkpt lat="40.0729063" lon="-105.2308553">
  <ele>1594.62</ele>
  <time>2026-08-28T19:11:54Z</time>
  <course>164.14</course>
  <speed>0.38</speed>
  <fix>3d</fix>
</trkpt>
<trkpt lat="40.0729053" lon="-105.2308547">
  <ele>1594.96</ele>
  <time>2026-08-28T19:11:54Z</time>
  <course>317.41</course>
  <speed>0.37947331922020555</speed>
  <fix>3d</fix>
</trkpt>
<trkpt lat="40.0729056" lon="-105.230855">
  <ele>1594.75</ele>
  <time>2026-08-28T19:11:54Z</time>
  <course>164.74</course>
  <speed>0.38</speed>
  <fix>3d</fix>
</trkpt>
<trkpt lat="40.0729046" lon="-105.2308544">
  <ele>1595.05</ele>
  <time>2026-08-28T19:11:54Z</time>
  <course>317.99</course>
  <speed>0.37</speed>
  <fix>3d</fix>
</trkpt>
<trkpt lat="40.0729049" lon="-105.2308548">
  <ele>1594.86</ele>
  <time>2026-08-28T19:11:54Z</time>
  <course>165.28</course>
  <speed>0.37</speed>
  <fix>3d</fix>
</trkpt>
<trkpt lat="40.072904" lon="-105.2308542">
  <ele>1595.1</ele>
  <time>2026-08-28T19:11:54Z</time>
  <course>318.21</course>
  <speed>0.3605551275463989</speed>
  <fix>3d</fix>
</trkpt>
<trkpt lat="40.0729043" lon="-105.2308545">
  <ele>1594.94</ele>
  <time>2026-08-28T19:11:54Z</time>
  <course>165.4</course>
  <speed>0.37</speed>
  <fix>3d</fix>
</trkpt>
<trkpt lat="40.0729033" lon="-105.230854">
  <ele>1595.13</ele>
  <time>2026-08-28T19:11:54Z</time>
  <course>317.15</course>
  <speed>0.35114099732158877</speed>
  <fix>3d</fix>
</trkpt>
<trkpt lat="40.0729037" lon="-105.2308544">
  <ele>1594.99</ele>
  <time>2026-08-28T19:11:54Z</time>
  <course>164.91</course>
  <speed>0.36</speed>
  <fix>3d</fix>
</trkpt>
<trkpt lat="40.0729027" lon="-105.2308538">
  <ele>1595.15</ele>
  <time>2026-08-28T19:11:54Z</time>
  <course>316.17</course>
  <speed>0.35114099732158877</speed>
  <fix>3d</fix>
</trkpt>
<trkpt lat="40.0729031" lon="-105.2308542">
  <ele>1595.02</ele>
  <time>2026-08-28T19:11:54Z</time>
  <course>164.44</course>
  <speed>0.35</speed>
  <fix>3d</fix>
</trkpt>
<trkpt lat="40.0729021" lon="-105.2308535">
  <ele>1595.17</ele>
  <time>2026-08-28T19:11:54Z</time>
  <course>315.78</course>
  <speed>0.3417601498127012</speed>
  <fix>3d</fix>
</trkpt>
<trkpt lat="40.0729025" lon="-105.2308539">
  <ele>1595.04</ele>
  <time>2026-08-28T19:11:54Z</time>
  <course>164.4</course>
  <speed>0.34</speed>
  <fix>3d</fix>
</trkpt>
<trkpt lat="40.0729016" lon="-105.2308533">
  <ele>1595.18</ele>
  <time>2026-08-28T19:11:54Z</time>
  <course>315.64</course>
  <speed>0.33241540277189324</speed>
  <fix>3d</fix>
</trkpt>
<trkpt lat="40.0729019" lon="-105.2308536">
  <ele>1595.06</ele>
  <time>2026-08-28T19:11:54Z</time>
  <course>164.22</course>
  <speed>0.33</speed>
  <fix>3d</fix>
</trkpt>
<trkpt lat="40.072901" lon="-105.2308531">
  <ele>1595.19</ele>
  <time>2026-08-28T19:11:54Z</time>
  <course>315.63</course>
  <speed>0.3231098884280702</speed>
  <fix>3d</fix>
</trkpt>
<trkpt lat="40.0729013" lon="-105.2308535">
  <ele>1595.07</ele>
  <time>2026-08-28T19:11:54Z</time>
  <course>163.87</course>
  <speed>0.33</speed>
  <fix>3d</fix>
</trkpt>
<trkpt lat="40.0729004" lon="-105.2308529">
  <ele>1595.19</ele>
  <time>2026-08-28T19:11:54Z</time>
  <course>315.67</course>
  <speed>0.3138470965295043</speed>
  <fix>3d</fix>
</trkpt>
<trkpt lat="40.0729007" lon="-105.2308533">
  <ele>1595.08</ele>
  <time>2026-08-28T19:11:54Z</time>
  <course>163.44</course>
  <speed>0.32</speed>
  <fix>3d</fix>
</trkpt>
<trkpt lat="40.0728999" lon="-105.2308527">
  <ele>1595.2</ele>
  <time>2026-08-28T19:11:54Z</time>
  <course>315.74</course>
  <speed>0.30463092423455634</speed>
  <fix>3d</fix>
</trkpt>
<trkpt lat="40.0729001" lon="-105.230853">
  <ele>1595.09</ele>
  <time>2026-08-28T19:11:54Z</time>
  <course>163.03</course>
  <speed>0.31</speed>
  <fix>3d</fix>
</trkpt>
<trkpt lat="40.0728994" lon="-105.2308524">
  <ele>1595.21</ele>
  <time>2026-08-28T19:11:54Z</time>
  <course>315.79</course>
  <speed>0.30463092423455634</speed>
  <fix>3d</fix>
</trkpt>
<trkpt lat="40.0728996" lon="-105.2308529">
  <ele>1595.09</ele>
  <time>2026-08-28T19:11:54Z</time>
  <course>162.63</course>
  <speed>0.3</speed>
  <fix>3d</fix>
</trkpt>
<trkpt lat="40.0728989" lon="-105.2308522">
  <ele>1595.21</ele>
  <time>2026-08-28T19:11:54Z</time>
  <course>315.84</course>
  <speed>0.29546573405388316</speed>
  <fix>3d</fix>
</trkpt>
<trkpt lat="40.0728991" lon="-105.2308526">
  <ele>1595.1</ele>
  <time>2026-08-28T19:11:54Z</time>
  <course>162.29</course>
  <speed>0.29</speed>
  <fix>3d</fix>
</trkpt>
<trkpt lat="40.0728984" lon="-105.230852">
  <ele>1595.21</ele>
  <time>2026-08-28T19:11:54Z</time>
  <course>315.88</course>
  <speed>0.2863564212655271</speed>
  <fix>3d</fix>
</trkpt>
<trkpt lat="40.0728986" lon="-105.2308524">
  <ele>1595.11</ele>
  <time>2026-08-28T19:11:54Z</time>
  <course>162.02</course>
  <speed>0.29</speed>
  <fix>3d</fix>
</trkpt>
<trkpt lat="40.0728979" lon="-105.2308518">
  <ele>1595.21</ele>
  <time>2026-08-28T19:11:54Z</time>
  <course>315.91</course>
  <speed>0.2863564212655271</speed>
  <fix>3d</fix>
</trkpt>
<trkpt lat="40.0728981" lon="-105.2308521">
  <ele>1595.11</ele>
  <time>2026-08-28T19:11:54Z</time>
  <course>161.71</course>
  <speed>0.28</speed>
  <fix>3d</fix>
</trkpt>
<trkpt lat="40.0728974" lon="-105.2308516">
  <ele>1595.21</ele>
  <time>2026-08-28T19:11:54Z</time>
  <course>315.95</course>
  <speed>0.27313000567495327</speed>
  <fix>3d</fix>
</trkpt>
<trkpt lat="40.0728976" lon="-105.230852">
  <ele>1595.11</ele>
  <time>2026-08-28T19:11:54Z</time>
  <course>161.38</course>
  <speed>0.27</speed>
  <fix>3d</fix>
</trkpt>
<trkpt lat="40.0728969" lon="-105.2308514">
  <ele>1595.21</ele>
  <time>2026-08-28T19:11:54Z</time>
  <course>315.98</course>
  <speed>0.2640075756488817</speed>
  <fix>3d</fix>
</trkpt>
<trkpt lat="40.0728971" lon="-105.2308518">
  <ele>1595.11</ele>
  <time>2026-08-28T19:11:54Z</time>
  <course>161.06</course>
  <speed>0.26</speed>
  <fix>3d</fix>
</trkpt>
<trkpt lat="40.0728965" lon="-105.2308512">
  <ele>1595.21</ele>
  <time>2026-08-28T19:11:54Z</time>
  <course>316.02</course>
  <speed>0.2640075756488817</speed>
  <fix>3d</fix>
</trkpt>
<trkpt lat="40.0728967" lon="-105.2308516">
  <ele>1595.12</ele>
  <time>2026-08-28T19:11:54Z</time>
  <course>160.79</course>
  <speed>0.26</speed>
  <fix>3d</fix>
</trkpt>
<trkpt lat="40.0728961" lon="-105.230851">
  <ele>1595.21</ele>
  <time>2026-08-28T19:11:54Z</time>
  <course>316.06</course>
  <speed>0.25495097567963926</speed>
  <fix>3d</fix>
</trkpt>
<trkpt lat="40.0728962" lon="-105.2308514">
  <ele>1595.12</ele>
  <time>2026-08-28T19:11:54Z</time>
  <course>160.59</course>
  <speed>0.25</speed>
  <fix>3d</fix>
</trkpt>
<trkpt lat="40.0728956" lon="-105.2308508">
  <ele>1595.2</ele>
  <time>2026-08-28T19:11:54Z</time>
  <course>316.09</course>
  <speed>0.24596747752497689</speed>
  <fix>3d</fix>
</trkpt>
<trkpt lat="40.0728958" lon="-105.2308511">
  <ele>1595.12</ele>
  <time>2026-08-28T19:11:54Z</time>
  <course>160.41</course>
  <speed>0.24</speed>
  <fix>3d</fix>
</trkpt>
<trkpt lat="40.0728952" lon="-105.2308506">
  <ele>1595.2</ele>
  <time>2026-08-28T19:11:54Z</time>
  <course>314.84</course>
  <speed>0.22825424421026652</speed>
  <fix>3d</fix>
</trkpt>
<trkpt lat="40.0728953" lon="-105.230851">
  <ele>1595.12</ele>
  <time>2026-08-28T19:11:54Z</time>
  <course>159.27</course>
  <speed>0.23</speed>
  <fix>3d</fix>
</trkpt>
<trkpt lat="40.0728949" lon="-105.2308504">
  <ele>1595.2</ele>
  <time>2026-08-28T19:11:54Z</time>
  <course>312.23</course>
  <speed>0.20591260281974003</speed>
  <fix>3d</fix>
</trkpt>
<trkpt lat="40.072895" lon="-105.2308507">
  <ele>1595.12</ele>
  <time>2026-08-28T19:11:54Z</time>
  <course>157.9</course>
  <speed>0.21</speed>
  <fix>3d</fix>
</trkpt>
<trkpt lat="40.0728946" lon="-105.2308503">
  <ele>1595.2</ele>
  <time>2026-08-28T19:11:54Z</time>
  <course>312.56</course>
  <speed>0.16552945357246848</speed>
  <fix>3d</fix>
</trkpt>
<trkpt lat="40.0728947" lon="-105.2308506">
  <ele>1595.12</ele>
  <time>2026-08-28T19:11:54Z</time>
  <course>159.94</course>
  <speed>0.18</speed>
  <fix>3d</fix>
</trkpt>
<trkpt lat="40.0728943" lon="-105.2308502">
  <ele>1595.21</ele>
  <time>2026-08-28T19:11:54Z</time>
  <course>316.35</course>
  <speed>0.13</speed>
  <fix>3d</fix>
</trkpt>
<trkpt lat="40.0728944" lon="-105.2308505">
  <ele>1595.13</ele>
  <time>2026-08-28T19:11:54Z</time>
  <course>166.27</course>
  <speed>0.15</speed>
  <fix>3d</fix>
</trkpt>
<trkpt lat="40.0728941" lon="-105.2308502">
  <ele>1595.21</ele>
  <time>2026-08-28T19:11:54Z</time>
  <course>319.93</course>
  <speed>0.08944271909999159</speed>
  <fix>3d</fix>
</trkpt>
<trkpt lat="40.0728942" lon="-105.2308504">
  <ele>1595.13</ele>
  <time>2026-08-28T19:11:54Z</time>
  <course>172.5</course>
  <speed>0.11</speed>
  <fix>3d</fix>
</trkpt>
<trkpt lat="40.072894" lon="-105.2308501">
  <ele>1595.21</ele>
  <time>2026-08-28T19:11:54Z</time>
  <course>319.5</course>
  <speed>0.0565685424949238</speed>
  <fix>3d</fix>
</trkpt>
<trkpt lat="40.072894" lon="-105.2308504">
  <ele>1595.14</ele>
  <time>2026-08-28T19:11:54Z</time>
  <course>173.9</course>
  <speed>0.07</speed>
  <fix>3d</fix>
</trkpt>
<trkpt lat="40.0728939" lon="-105.2308501">
  <ele>1595.21</ele>
  <time>2026-08-28T19:11:54Z</time>
  <course>315.41</course>
  <speed>0.03605551275463989</speed>
  <fix>3d</fix>
</trkpt>
<trkpt lat="40.0728938" lon="-105.2308504">
  <ele>1595.14</ele>
  <time>2026-08-28T19:11:54Z</time>
  <course>172.85</course>
  <speed>0.04</speed>
  <fix>3d</fix>
</trkpt>
<trkpt lat="40.0728939" lon="-105.2308501">
  <ele>1595.21</ele>
  <time>2026-08-28T19:11:54Z</time>
  <course>312.28</course>
  <speed>0.022360679774997897</speed>
  <fix>3d</fix>
</trkpt>
<trkpt lat="40.0728938" lon="-105.2308504">
  <ele>1595.14</ele>
  <time>2026-08-28T19:11:54Z</time>
  <course>194.11</course>
  <speed>0.02</speed>
  <fix>3d</fix>
</trkpt>
<trkpt lat="40.0728938" lon="-105.2308502">
  <ele>1595.21</ele>
  <time>2026-08-28T19:11:54Z</time>
  <course>313.85</course>
  <speed>0.0316227766016838</speed>
  <fix>3d</fix>
</trkpt>
<trkpt lat="40.0728937" lon="-105.2308504">
  <ele>1595.14</ele>
  <time>2026-08-28T19:11:54Z</time>
  <course>223.78</course>
  <speed>0.04</speed>
  <fix>3d</fix>
</trkpt>
<trkpt lat="40.0728937" lon="-105.2308502">
  <ele>1595.21</ele>
  <time>2026-08-28T19:11:54Z</time>
  <course>318.42</course>
  <speed>0.0316227766016838</speed>
  <fix>3d</fix>
</trkpt>
<trkpt lat="40.0728937" lon="-105.2308504">
  <ele>1595.15</ele>
  <time>2026-08-28T19:11:54Z</time>
  <course>231.71</course>
  <speed>0.05</speed>
  <fix>3d</fix>
</trkpt>
<trkpt lat="40.0728937" lon="-105.2308503">
  <ele>1595.21</ele>
  <time>2026-08-28T19:11:54Z</time>
  <course>320.24</course>
  <speed>0.01</speed>
  <fix>3d</fix>
</trkpt>
<trkpt lat="40.0728936" lon="-105.2308505">
  <ele>1595.15</ele>
  <time>2026-08-28T19:11:54Z</time>
  <course>235.82</course>
  <speed>0.05</speed>
  <fix>3d</fix>
</trkpt>
<trkpt lat="40.0728936" lon="-105.2308504">
  <ele>1595.21</ele>
  <time>2026-08-28T19:11:54Z</time>
  <course>316.91</course>
  <speed>0.01</speed>
  <fix>3d</fix>
</trkpt>
<trkpt lat="40.0728936" lon="-105.2308506">
  <ele>1595.15</ele>
  <time>2026-08-28T19:11:54Z</time>
  <course>244.2</course>
  <speed>0.03</speed>
  <fix>3d</fix>
</trkpt>
<trkpt lat="40.0728936" lon="-105.2308504">
  <ele>1595.21</ele>
  <time>2026-08-28T19:11:54Z</time>
  <course>312.9</course>
  <speed>0.0</speed>
  <fix>3d</fix>
</trkpt>
<trkpt lat="40.0728936" lon="-105.2308506">
  <ele>1595.15</ele>
  <time>2026-08-28T19:11:54Z</time>
  <course>256.34</course>
  <speed>0.02</speed>
  <fix>3d</fix>
</trkpt>
<trkpt lat="40.0728936" lon="-105.2308505">
  <ele>1595.21</ele>
  <time>2026-08-28T19:11:54Z</time>
  <course>313.9</course>
  <speed>0.022360679774997897</speed>
  <fix>3d</fix>
</trkpt>
<trkpt lat="40.0728936" lon="-105.2308507">
  <ele>1595.16</ele>
  <time>2026-08-28T19:11:54Z</time>
  <course>248.71</course>
  <speed>0.03</speed>
  <fix>3d</fix>
</trkpt>
<trkpt lat="40.0728935" lon="-105.2308506">
  <ele>1595.21</ele>
  <time>2026-08-28T19:11:54Z</time>
  <course>318.6</course>
  <speed>0.022360679774997897</speed>
  <fix>3d</fix>
</trkpt>
<trkpt lat="40.0728935" lon="-105.2308508">
  <ele>1595.16</ele>
  <time>2026-08-28T19:11:54Z</time>
  <course>242.27</course>
  <speed>0.05</speed>
  <fix>3d</fix>
</trkpt>
<trkpt lat="40.0728935" lon="-105.2308507">
  <ele>1595.21</ele>
  <time>2026-08-28T19:11:54Z</time>
  <course>320.04</course>
  <speed>0.0</speed>
  <fix>3d</fix>
</trkpt>
<trkpt lat="40.0728935" lon="-105.230851">
  <ele>1595.17</ele>
  <time>2026-08-28T19:11:54Z</time>
  <course>243.59</course>
  <speed>0.04</speed>
  <fix>3d</fix>
</trkpt>
<trkpt lat="40.0728935" lon="-105.2308507">
  <ele>1595.22</ele>
  <time>2026-08-28T19:11:54Z</time>
  <course>315.97</course>
  <speed>0.01</speed>
  <fix>3d</fix>
</trkpt>
<trkpt lat="40.0728935" lon="-105.2308511">
  <ele>1595.17</ele>
  <time>2026-08-28T19:11:54Z</time>
  <course>256.67</course>
  <speed>0.02</speed>
  <fix>3d</fix>
</trkpt>
<trkpt lat="40.0728935" lon="-105.2308508">
  <ele>1595.22</ele>
  <time>2026-08-28T19:11:54Z</time>
  <course>312.94</course>
  <speed>0.01</speed>
  <fix>3d</fix>
</trkpt>
<trkpt lat="40.0728935" lon="-105.2308511">
  <ele>1595.17</ele>
  <time>2026-08-28T19:11:54Z</time>
  <course>265.13</course>
  <speed>0.02</speed>
  <fix>3d</fix>
</trkpt>
<trkpt lat="40.0728935" lon="-105.2308509">
  <ele>1595.23</ele>
  <time>2026-08-28T19:11:54Z</time>
  <course>316.06</course>
  <speed>0.0282842712474619</speed>
  <fix>3d</fix>
</trkpt>
<trkpt lat="40.0728934" lon="-105.2308512">
  <ele>1595.18</ele>
  <time>2026-08-28T19:11:54Z</time>
  <course>247.98</course>
  <speed>0.04</speed>
  <fix>3d</fix>
</trkpt>
<trkpt lat="40.0728934" lon="-105.230851">
  <ele>1595.23</ele>
  <time>2026-08-28T19:11:54Z</time>
  <course>320.13</course>
  <speed>0.01414213562373095</speed>
  <fix>3d</fix>
</trkpt>
<trkpt lat="40.0728934" lon="-105.2308513">
  <ele>1595.18</ele>
  <time>2026-08-28T19:11:54Z</time>
  <course>242.99</course>
  <speed>0.05</speed>
  <fix>3d</fix>
</trkpt>
<trkpt lat="40.0728934" lon="-105.2308511">
  <ele>1595.23</ele>
  <time>2026-08-28T19:11:54Z</time>
  <course>317.95</course>
  <speed>0.01</speed>
  <fix>3d</fix>
</trkpt>
<trkpt lat="40.0728934" lon="-105.2308514">
  <ele>1595.18</ele>
  <time>2026-08-28T19:11:54Z</time>
  <course>250.45</course>
  <speed>0.03</speed>
  <fix>3d</fix>
</trkpt>
<trkpt lat="40.0728934" lon="-105.2308511">
  <ele>1595.23</ele>
  <time>2026-08-28T19:11:54Z</time>
  <course>313.58</course>
  <speed>0.0</speed>
  <fix>3d</fix>
</trkpt>
<trkpt lat="40.0728934" lon="-105.2308515">
  <ele>1595.18</ele>
  <time>2026-08-28T19:11:54Z</time>
  <course>268.46</course>
  <speed>0.02</speed>
  <fix>3d</fix>
</trkpt>
<trkpt lat="40.0728934" lon="-105.2308512">
  <ele>1595.24</ele>
  <time>2026-08-28T19:11:54Z</time>
  <course>315.34</course>
  <speed>0.0282842712474619</speed>
  <fix>3d</fix>
</trkpt>
<trkpt lat="40.0728934" lon="-105.2308515">
  <ele>1595.18</ele>
  <time>2026-08-28T19:11:54Z</time>
  <course>251.29</course>
  <speed>0.03</speed>
  <fix>3d</fix>
</trkpt>
<trkpt lat="40.0728934" lon="-105.2308513">
  <ele>1595.24</ele>
  <time>2026-08-28T19:11:54Z</time>
  <course>319.89</course>
  <speed>0.01414213562373095</speed>
  <fix>3d</fix>
</trkpt>
<trkpt lat="40.0728933" lon="-105.2308516">
  <ele>1595.17</ele>
  <time>2026-08-28T19:11:54Z</time>
  <course>242.76</course>
  <speed>0.05</speed>
  <fix>3d</fix>
</trkpt>
<trkpt lat="40.0728933" lon="-105.2308514">
  <ele>1595.23</ele>
  <time>2026-08-28T19:11:54Z</time>
  <course>318.11</course>
  <speed>0.01</speed>
  <fix>3d</fix>
</trkpt>
<trkpt lat="40.0728932" lon="-105.2308517">
  <ele>1595.17</ele>
  <time>2026-08-28T19:11:54Z</time>
  <course>249.44</course>
  <speed>0.03</speed>
  <fix>3d</fix>
</trkpt>
<trkpt lat="40.0728933" lon="-105.2308515">
  <ele>1595.23</ele>
  <time>2026-08-28T19:11:54Z</time>
  <course>313.77</course>
  <speed>0.0</speed>
  <fix>3d</fix>
</trkpt>
<trkpt lat="40.0728932" lon="-105.2308518">
  <ele>1595.17</ele>
  <time>2026-08-28T19:11:54Z</time>
  <course>269.72</course>
  <speed>0.02</speed>
  <fix>3d</fix>
</trkpt>
<trkpt lat="40.0728933" lon="-105.2308516">
  <ele>1595.23</ele>
  <time>2026-08-28T19:11:54Z</time>
  <course>316.2</course>
  <speed>0.0282842712474619</speed>
  <fix>3d</fix>
</trkpt>
<trkpt lat="40.0728932" lon="-105.2308518">
  <ele>1595.16</ele>
  <time>2026-08-28T19:11:54Z</time>
  <course>250.51</course>
  <speed>0.03</speed>
  <fix>3d</fix>
</trkpt>
<trkpt lat="40.0728932" lon="-105.2308517">
  <ele>1595.22</ele>
  <time>2026-08-28T19:11:54Z</time>
  <course>320.03</course>
  <speed>0.01</speed>
  <fix>3d</fix>
</trkpt>
<trkpt lat="40.0728932" lon="-105.2308519">
  <ele>1595.16</ele>
  <time>2026-08-28T19:11:54Z</time>
  <course>243.38</course>
  <speed>0.04</speed>
  <fix>3d</fix>
</trkpt>
<trkpt lat="40.0728932" lon="-105.2308517">
  <ele>1595.22</ele>
  <time>2026-08-28T19:11:54Z</time>
  <course>316.62</course>
  <speed>0.01</speed>
  <fix>3d</fix>
</trkpt>
<trkpt lat="40.0728931" lon="-105.230852">
  <ele>1595.16</ele>
  <time>2026-08-28T19:11:54Z</time>
  <course>256.01</course>
  <speed>0.02</speed>
  <fix>3d</fix>
</trkpt>
<trkpt lat="40.0728932" lon="-105.2308518">
  <ele>1595.22</ele>
  <time>2026-08-28T19:11:54Z</time>
  <course>314.02</course>
  <speed>0.01414213562373095</speed>
  <fix>3d</fix>
</trkpt>
<trkpt lat="40.0728931" lon="-105.230852">
  <ele>1595.16</ele>
  <time>2026-08-28T19:11:54Z</time>
  <course>267.77</course>
  <speed>0.02</speed>
  <fix>3d</fix>
</trkpt>
<trkpt lat="40.0728932" lon="-105.2308519">
  <ele>1595.22</ele>
  <time>2026-08-28T19:11:54Z</time>
  <course>318.51</course>
  <speed>0.0282842712474619</speed>
  <fix>3d</fix>
</trkpt>
<trkpt lat="40.0728931" lon="-105.2308521">
  <ele>1595.16</ele>
  <time>2026-08-28T19:11:54Z</time>
  <course>246.83</course>
  <speed>0.04</speed>
  <fix>3d</fix>
</trkpt>
<trkpt lat="40.0728932" lon="-105.2308519">
  <ele>1595.22</ele>
  <time>2026-08-28T19:11:54Z</time>
  <course>318.88</course>
  <speed>0.0</speed>
  <fix>3d</fix>
</trkpt>
<trkpt lat="40.0728931" lon="-105.2308522">
  <ele>1595.16</ele>
  <time>2026-08-28T19:11:54Z</time>
  <course>247.6</course>
  <speed>0.04</speed>
  <fix>3d</fix>
</trkpt>
<trkpt lat="40.0728932" lon="-105.230852">
  <ele>1595.22</ele>
  <time>2026-08-28T19:11:54Z</time>
  <course>314.33</course>
  <speed>0.0</speed>
  <fix>3d</fix>
</trkpt>
<trkpt lat="40.0728931" lon="-105.2308523">
  <ele>1595.16</ele>
  <time>2026-08-28T19:11:54Z</time>
  <course>269.42</course>
  <speed>0.02</speed>
  <fix>3d</fix>
</trkpt>
<trkpt lat="40.0728931" lon="-105.2308521">
  <ele>1595.21</ele>
  <time>2026-08-28T19:11:54Z</time>
  <course>316.88</course>
  <speed>0.0282842712474619</speed>
  <fix>3d</fix>
</trkpt>
<trkpt lat="40.0728931" lon="-105.2308523">
  <ele>1595.16</ele>
  <time>2026-08-28T19:11:54Z</time>
  <course>253.07</course>
  <speed>0.03</speed>
  <fix>3d</fix>
</trkpt>
<trkpt lat="40.0728931" lon="-105.2308522">
  <ele>1595.21</ele>
  <time>2026-08-28T19:11:54Z</time>
  <course>319.57</course>
  <speed>0.0</speed>
  <fix>3d</fix>
</trkpt>
<trkpt lat="40.0728931" lon="-105.2308524">
  <ele>1595.16</ele>
  <time>2026-08-28T19:11:54Z</time>
  <course>246.32</course>
  <speed>0.04</speed>
  <fix>3d</fix>
</trkpt>
<trkpt lat="40.0728931" lon="-105.2308522">
  <ele>1595.21</ele>
  <time>2026-08-28T19:11:54Z</time>
  <course>315.06</course>
  <speed>0.0</speed>
  <fix>3d</fix>
</trkpt>
<trkpt lat="40.0728931" lon="-105.2308525">
  <ele>1595.16</ele>
  <time>2026-08-28T19:11:54Z</time>
  <course>264.16</course>
  <speed>0.02</speed>
  <fix>3d</fix>
</trkpt>
<trkpt lat="40.0728931" lon="-105.2308523">
  <ele>1595.21</ele>
  <time>2026-08-28T19:11:54Z</time>
  <course>316.28</course>
  <speed>0.0282842712474619</speed>
  <fix>3d</fix>
</trkpt>
<trkpt lat="40.0728931" lon="-105.2308525">
  <ele>1595.16</ele>
  <time>2026-08-28T19:11:54Z</time>
  <course>256.38</course>
  <speed>0.03</speed>
  <fix>3d</fix>
</trkpt>
<trkpt lat="40.0728931" lon="-105.2308524">
  <ele>1595.22</ele>
  <time>2026-08-28T19:11:54Z</time>
  <course>319.56</course>
  <speed>0.0</speed>
  <fix>3d</fix>
</trkpt>
<trkpt lat="40.0728931" lon="-105.2308526">
  <ele>1595.16</ele>
  <time>2026-08-28T19:11:54Z</time>
  <course>246.18</course>
  <speed>0.04</speed>
  <fix>3d</fix>
</trkpt>
<trkpt lat="40.0728931" lon="-105.2308524">
  <ele>1595.22</ele>
  <time>2026-08-28T19:11:54Z</time>
  <course>315.27</course>
  <speed>0.0</speed>
  <fix>3d</fix>
</trkpt>
<trkpt lat="40.0728931" lon="-105.2308527">
  <ele>1595.17</ele>
  <time>2026-08-28T19:11:54Z</time>
  <course>261.79</course>
  <speed>0.02</speed>
  <fix>3d</fix>
</trkpt>
<trkpt lat="40.072893" lon="-105.2308525">
  <ele>1595.22</ele>
  <time>2026-08-28T19:11:54Z</time>
  <course>316.69</course>
  <speed>0.0282842712474619</speed>
  <fix>3d</fix>
</trkpt>
<trkpt lat="40.072893" lon="-105.2308528">
  <ele>1595.17</ele>
  <time>2026-08-28T19:11:54Z</time>
  <course>256.77</course>
  <speed>0.03</speed>
  <fix>3d</fix>
</trkpt>
<trkpt lat="40.072893" lon="-105.2308526">
  <ele>1595.23</ele>
  <time>2026-08-28T19:11:54Z</time>
  <course>319.25</course>
  <speed>0.0</speed>
  <fix>3d</fix>
</trkpt>
<trkpt lat="40.072893" lon="-105.2308529">
  <ele>1595.17</ele>
  <time>2026-08-28T19:11:54Z</time>
  <course>248.33</course>
  <speed>0.04</speed>
  <fix>3d</fix>
</trkpt>
<trkpt lat="40.072893" lon="-105.2308527">
  <ele>1595.23</ele>
  <time>2026-08-28T19:11:54Z</time>
  <course>314.95</course>
  <speed>0.0</speed>
  <fix>3d</fix>
</trkpt>
<trkpt lat="40.072893" lon="-105.230853">
  <ele>1595.17</ele>
  <time>2026-08-28T19:11:54Z</time>
  <course>263.47</course>
  <speed>0.02</speed>
  <fix>3d</fix>
</trkpt>
<trkpt lat="40.072893" lon="-105.2308528">
  <ele>1595.23</ele>
  <time>2026-08-28T19:11:54Z</time>
  <course>318.01</course>
  <speed>0.0282842712474619</speed>
  <fix>3d</fix>
</trkpt>
<trkpt lat="40.072893" lon="-105.230853">
  <ele>1595.17</ele>
  <time>2026-08-28T19:11:54Z</time>
  <course>253.66</course>
  <speed>0.03</speed>
  <fix>3d</fix>
</trkpt>
<trkpt lat="40.072893" lon="-105.2308529">
  <ele>1595.22</ele>
  <time>2026-08-28T19:11:54Z</time>
  <course>318.02</course>
  <speed>0.0</speed>
  <fix>3d</fix>
</trkpt>
<trkpt lat="40.072893" lon="-105.2308531">
  <ele>1595.17</ele>
  <time>2026-08-28T19:11:54Z</time>
  <course>251.07</course>
  <speed>0.04</speed>
  <fix>3d</fix>
</trkpt>
<trkpt lat="40.072893" lon="-105.2308529">
  <ele>1595.22</ele>
  <time>2026-08-28T19:11:54Z</time>
  <course>315.21</course>
  <speed>0.01414213562373095</speed>
  <fix>3d</fix>
</trkpt>
<trkpt lat="40.072893" lon="-105.2308532">
  <ele>1595.17</ele>
  <time>2026-08-28T19:11:54Z</time>
  <course>262.76</course>
  <speed>0.03</speed>
  <fix>3d</fix>
</trkpt>
<trkpt lat="40.072893" lon="-105.230853">
  <ele>1595.22</ele>
  <time>2026-08-28T19:11:54Z</time>
  <course>319.25</course>
  <speed>0.01414213562373095</speed>
  <fix>3d</fix>
</trkpt>
<trkpt lat="40.0728929" lon="-105.2308533">
  <ele>1595.17</ele>
  <time>2026-08-28T19:11:54Z</time>
  <course>250.51</course>
  <speed>0.04</speed>
  <fix>3d</fix>
</trkpt>
<trkpt lat="40.072893" lon="-105.2308531">
  <ele>1595.22</ele>
  <time>2026-08-28T19:11:54Z</time>
  <course>315.82</course>
  <speed>0.0</speed>
  <fix>3d</fix>
</trkpt>
<trkpt lat="40.0728929" lon="-105.2308534">
  <ele>1595.17</ele>
  <time>2026-08-28T19:11:54Z</time>
  <course>257.5</course>
  <speed>0.03</speed>
  <fix>3d</fix>
</trkpt>
<trkpt lat="40.0728929" lon="-105.2308532">
  <ele>1595.23</ele>
  <time>2026-08-28T19:11:54Z</time>
  <course>317.51</course>
  <speed>0.0282842712474619</speed>
  <fix>3d</fix>
</trkpt>
<trkpt lat="40.0728929" lon="-105.2308535">
  <ele>1595.17</ele>
  <time>2026-08-28T19:11:54Z</time>
  <course>256.54</course>
  <speed>0.03</speed>
  <fix>3d</fix>
</trkpt>
<trkpt lat="40.0728929" lon="-105.2308533">
  <ele>1595.24</ele>
  <time>2026-08-28T19:11:55Z</time>
  <course>317.97</course>
  <speed>0.0</speed>
  <fix>3d</fix>
</trkpt>
<trkpt lat="40.0728929" lon="-105.2308535">
  <ele>1595.17</ele>
  <time>2026-08-28T19:11:55Z</time>
  <course>252.03</course>
  <speed>0.04</speed>
  <fix>3d</fix>
</trkpt>
<trkpt lat="40.0728929" lon="-105.2308533">
  <ele>1595.24</ele>
  <time>2026-08-28T19:11:55Z</time>
  <course>315.83</course>
  <speed>0.01414213562373095</speed>
  <fix>3d</fix>
</trkpt>
<trkpt lat="40.0728929" lon="-105.2308536">
  <ele>1595.16</ele>
  <time>2026-08-28T19:11:55Z</time>
  <course>259.93</course>
  <speed>0.03</speed>
  <fix>3d</fix>
</trkpt>
<trkpt lat="40.0728929" lon="-105.2308534">
  <ele>1595.23</ele>
  <time>2026-08-28T19:11:55Z</time>
  <course>319.08</course>
  <speed>0.0</speed>
  <fix>3d</fix>
</trkpt>
<trkpt lat="40.0728928" lon="-105.2308537">
  <ele>1595.16</ele>
  <time>2026-08-28T19:11:55Z</time>
  <course>252.25</course>
  <speed>0.04</speed>
  <fix>3d</fix>
</trkpt>
<trkpt lat="40.0728929" lon="-105.2308535">
  <ele>1595.23</ele>
  <time>2026-08-28T19:11:55Z</time>
  <course>315.5</course>
  <speed>0.0</speed>
  <fix>3d</fix>
</trkpt>
<trkpt lat="40.0728928" lon="-105.2308538">
  <ele>1595.16</ele>
  <time>2026-08-28T19:11:55Z</time>
  <course>259.34</course>
  <speed>0.03</speed>
  <fix>3d</fix>
</trkpt>
<trkpt lat="40.0728928" lon="-105.2308536">
  <ele>1595.22</ele>
  <time>2026-08-28T19:11:55Z</time>
  <course>318.96</course>
  <speed>0.01414213562373095</speed>
  <fix>3d</fix>
</trkpt>
<trkpt lat="40.0728928" lon="-105.2308539">
  <ele>1595.15</ele>
  <time>2026-08-28T19:11:55Z</time>
  <course>255.44</course>
  <speed>0.03</speed>
  <fix>3d</fix>
</trkpt>
<trkpt lat="40.0728928" lon="-105.2308537">
  <ele>1595.22</ele>
  <time>2026-08-28T19:11:55Z</time>
  <course>315.9</course>
  <speed>0.0</speed>
  <fix>3d</fix>
</trkpt>
<trkpt lat="40.0728928" lon="-105.230854">
  <ele>1595.15</ele>
  <time>2026-08-28T19:11:55Z</time>
  <course>258.14</course>
  <speed>0.03</speed>
  <fix>3d</fix>
</trkpt>
<trkpt lat="40.0728928" lon="-105.2308538">
  <ele>1595.22</ele>
  <time>2026-08-28T19:11:55Z</time>
  <course>318.48</course>
  <speed>0.022360679774997897</speed>
  <fix>3d</fix>
</trkpt>
<trkpt lat="40.0728928" lon="-105.2308541">
  <ele>1595.15</ele>
  <time>2026-08-28T19:11:55Z</time>
  <course>257.73</course>
  <speed>0.03</speed>
  <fix>3d</fix>
</trkpt>
<trkpt lat="40.0728928" lon="-105.2308539">
  <ele>1595.22</ele>
  <time>2026-08-28T19:11:55Z</time>
  <course>316.3</course>
  <speed>0.0</speed>
  <fix>3d</fix>
</trkpt>
<trkpt lat="40.0728928" lon="-105.2308542">
  <ele>1595.15</ele>
  <time>2026-08-28T19:11:55Z</time>
  <course>258.16</course>
  <speed>0.03</speed>
  <fix>3d</fix>
</trkpt>
<trkpt lat="40.0728928" lon="-105.230854">
  <ele>1595.22</ele>
  <time>2026-08-28T19:11:55Z</time>
  <course>318.2</course>
  <speed>0.022360679774997897</speed>
  <fix>3d</fix>
</trkpt>
<trkpt lat="40.0728928" lon="-105.2308542">
  <ele>1595.15</ele>
  <time>2026-08-28T19:11:55Z</time>
  <course>258.83</course>
  <speed>0.03</speed>
  <fix>3d</fix>
</trkpt>
<trkpt lat="40.0728928" lon="-105.230854">
  <ele>1595.22</ele>
  <time>2026-08-28T19:11:55Z</time>
  <course>316.45</course>
  <speed>0.0</speed>
  <fix>3d</fix>
</trkpt>
<trkpt lat="40.0728927" lon="-105.2308543">
  <ele>1595.15</ele>
  <time>2026-08-28T19:11:55Z</time>
  <course>258.94</course>
  <speed>0.04</speed>
  <fix>3d</fix>
</trkpt>
<trkpt lat="40.0728928" lon="-105.2308542">
  <ele>1595.22</ele>
  <time>2026-08-28T19:11:55Z</time>
  <course>318.24</course>
  <speed>0.022360679774997897</speed>
  <fix>3d</fix>
</trkpt>
<trkpt lat="40.0728927" lon="-105.2308544">
  <ele>1595.15</ele>
  <time>2026-08-28T19:11:55Z</time>
  <course>259.37</course>
  <speed>0.04</speed>
  <fix>3d</fix>
</trkpt>
<trkpt lat="40.0728928" lon="-105.2308542">
  <ele>1595.22</ele>
  <time>2026-08-28T19:11:55Z</time>
  <course>316.36</course>
  <speed>0.0</speed>
  <fix>3d</fix>
</trkpt>
<trkpt lat="40.0728927" lon="-105.2308545">
  <ele>1595.15</ele>
  <time>2026-08-28T19:11:55Z</time>
  <course>259.64</course>
  <speed>0.04</speed>
  <fix>3d</fix>
</trkpt>
<trkpt lat="40.0728927" lon="-105.2308543">
  <ele>1595.22</ele>
  <time>2026-08-28T19:11:55Z</time>
  <course>318.52</course>
  <speed>0.01414213562373095</speed>
  <fix>3d</fix>
</trkpt>
<trkpt lat="40.0728927" lon="-105.2308546">
  <ele>1595.15</ele>
  <time>2026-08-28T19:11:55Z</time>
  <course>259.97</course>
  <speed>0.04</speed>
  <fix>3d</fix>
</trkpt>
<trkpt lat="40.0728927" lon="-105.2308544">
  <ele>1595.22</ele>
  <time>2026-08-28T19:11:55Z</time>
  <course>316.11</course>
  <speed>0.0</speed>
  <fix>3d</fix>
</trkpt>
<trkpt lat="40.0728927" lon="-105.2308547">
  <ele>1595.15</ele>
  <time>2026-08-28T19:11:55Z</time>
  <course>259.65</course>
  <speed>0.04</speed>
  <fix>3d</fix>
</trkpt>
<trkpt lat="40.0728927" lon="-105.2308545">
  <ele>1595.22</ele>
  <time>2026-08-28T19:11:55Z</time>
  <course>318.69</course>
  <speed>0.01</speed>
  <fix>3d</fix>
</trkpt>
<trkpt lat="40.0728927" lon="-105.2308548">
  <ele>1595.15</ele>
  <time>2026-08-28T19:11:55Z</time>
  <course>262.13</course>
  <speed>0.04</speed>
  <fix>3d</fix>
</trkpt>
<trkpt lat="40.0728927" lon="-105.2308546">
  <ele>1595.23</ele>
  <time>2026-08-28T19:11:55Z</time>
  <course>316.27</course>
  <speed>0.01414213562373095</speed>
  <fix>3d</fix>
</trkpt>
<trkpt lat="40.0728927" lon="-105.2308549">
  <ele>1595.15</ele>
  <time>2026-08-28T19:11:55Z</time>
  <course>258.55</course>
  <speed>0.04</speed>
  <fix>3d</fix>
</trkpt>
<trkpt lat="40.0728927" lon="-105.2308547">
  <ele>1595.23</ele>
  <time>2026-08-28T19:11:55Z</time>
  <course>318.17</course>
  <speed>0.0</speed>
  <fix>3d</fix>
</trkpt>
<trkpt lat="40.0728927" lon="-105.230855">
  <ele>1595.15</ele>
  <time>2026-08-28T19:11:55Z</time>
  <course>265.22</course>
  <speed>0.03</speed>
  <fix>3d</fix>
</trkpt>
<trkpt lat="40.0728927" lon="-105.2308548">
  <ele>1595.23</ele>
  <time>2026-08-28T19:11:55Z</time>
  <course>317.33</course>
  <speed>0.022360679774997897</speed>
  <fix>3d</fix>
</trkpt>
<trkpt lat="40.0728927" lon="-105.2308551">
  <ele>1595.14</ele>
  <time>2026-08-28T19:11:55Z</time>
  <course>257.61</course>
  <speed>0.04</speed>
  <fix>3d</fix>
</trkpt>
<trkpt lat="40.0728927" lon="-105.2308549">
  <ele>1595.23</ele>
  <time>2026-08-28T19:11:55Z</time>
  <course>316.91</course>
  <speed>0.0</speed>
  <fix>3d</fix>
</trkpt>
<trkpt lat="40.0728926" lon="-105.2308552">
  <ele>1595.14</ele>
  <time>2026-08-28T19:11:55Z</time>
  <course>265.52</course>
  <speed>0.03</speed>
  <fix>3d</fix>
</trkpt>
<trkpt lat="40.0728927" lon="-105.230855">
  <ele>1595.23</ele>
  <time>2026-08-28T19:11:55Z</time>
  <course>318.53</course>
  <speed>0.01</speed>
  <fix>3d</fix>
</trkpt>
<trkpt lat="40.0728925" lon="-105.2308553">
  <ele>1595.14</ele>
  <time>2026-08-28T19:11:55Z</time>
  <course>262.2</course>
  <speed>0.04</speed>
  <fix>3d</fix>
</trkpt>
<trkpt lat="40.0728927" lon="-105.2308551">
  <ele>1595.23</ele>
  <time>2026-08-28T19:11:55Z</time>
  <course>316.51</course>
  <speed>0.01414213562373095</speed>
  <fix>3d</fix>
</trkpt>
<trkpt lat="40.0728925" lon="-105.2308554">
  <ele>1595.13</ele>
  <time>2026-08-28T19:11:55Z</time>
  <course>260.15</course>
  <speed>0.04</speed>
  <fix>3d</fix>
</trkpt>
<trkpt lat="40.0728926" lon="-105.2308552">
  <ele>1595.23</ele>
  <time>2026-08-28T19:11:55Z</time>
  <course>317.79</course>
  <speed>0.0</speed>
  <fix>3d</fix>
</trkpt>
<trkpt lat="40.0728925" lon="-105.2308555">
  <ele>1595.13</ele>
  <time>2026-08-28T19:11:55Z</time>
  <course>271.54</course>
  <speed>0.03</speed>
  <fix>3d</fix>
</trkpt>
<trkpt lat="40.0728926" lon="-105.2308553">
  <ele>1595.22</ele>
  <time>2026-08-28T19:11:55Z</time>
  <course>318.11</course>
  <speed>0.022360679774997897</speed>
  <fix>3d</fix>
</trkpt>
<trkpt lat="40.0728925" lon="-105.2308556">
  <ele>1595.13</ele>
  <time>2026-08-28T19:11:55Z</time>
  <course>259.53</course>
  <speed>0.04</speed>
  <fix>3d</fix>
</trkpt>
<trkpt lat="40.0728926" lon="-105.2308554">
  <ele>1595.22</ele>
  <time>2026-08-28T19:11:55Z</time>
  <course>316.53</course>
  <speed>0.01</speed>
  <fix>3d</fix>
</trkpt>
<trkpt lat="40.0728925" lon="-105.2308557">
  <ele>1595.12</ele>
  <time>2026-08-28T19:11:55Z</time>
  <course>264.17</course>
  <speed>0.04</speed>
  <fix>3d</fix>
</trkpt>
<trkpt lat="40.0728926" lon="-105.2308555">
  <ele>1595.22</ele>
  <time>2026-08-28T19:11:55Z</time>
  <course>317.83</course>
  <speed>0.0</speed>
  <fix>3d</fix>
</trkpt>
<trkpt lat="40.0728925" lon="-105.2308558">
  <ele>1595.12</ele>
  <time>2026-08-28T19:11:55Z</time>
  <course>274.63</course>
  <speed>0.03</speed>
  <fix>3d</fix>
</trkpt>
<trkpt lat="40.0728926" lon="-105.2308556">
  <ele>1595.21</ele>
  <time>2026-08-28T19:11:55Z</time>
  <course>318.18</course>
  <speed>0.01414213562373095</speed>
  <fix>3d</fix>
</trkpt>
<trkpt lat="40.0728925" lon="-105.2308559">
  <ele>1595.12</ele>
  <time>2026-08-28T19:11:55Z</time>
  <course>259.97</course>
  <speed>0.04</speed>
  <fix>3d</fix>
</trkpt>
<trkpt lat="40.0728926" lon="-105.2308557">
  <ele>1595.21</ele>
  <time>2026-08-28T19:11:55Z</time>
  <course>316.75</course>
  <speed>0.01414213562373095</speed>
  <fix>3d</fix>
</trkpt>
<trkpt lat="40.0728925" lon="-105.230856">
  <ele>1595.12</ele>
  <time>2026-08-28T19:11:55Z</time>
  <course>263.21</course>
  <speed>0.04</speed>
  <fix>3d</fix>
</trkpt>
<trkpt lat="40.0728926" lon="-105.2308558">
  <ele>1595.2</ele>
  <time>2026-08-28T19:11:55Z</time>
  <course>317.19</course>
  <speed>0.0</speed>
  <fix>3d</fix>
</trkpt>
<trkpt lat="40.0728925" lon="-105.2308561">
  <ele>1595.12</ele>
  <time>2026-08-28T19:11:55Z</time>
  <course>278.88</course>
  <speed>0.03</speed>
  <fix>3d</fix>
</trkpt>
<trkpt lat="40.0728925" lon="-105.2308559">
  <ele>1595.2</ele>
  <time>2026-08-28T19:11:55Z</time>
  <course>318.28</course>
  <speed>0.0</speed>
  <fix>3d</fix>
</trkpt>
<trkpt lat="40.0728925" lon="-105.2308562">
  <ele>1595.12</ele>
  <time>2026-08-28T19:11:55Z</time>
  <course>266.16</course>
  <speed>0.04</speed>
  <fix>3d</fix>
</trkpt>
<trkpt lat="40.0728925" lon="-105.230856">
  <ele>1595.21</ele>
  <time>2026-08-28T19:11:55Z</time>
  <course>317.69</course>
  <speed>0.022360679774997897</speed>
  <fix>3d</fix>
</trkpt>
<trkpt lat="40.0728925" lon="-105.2308563">
  <ele>1595.12</ele>
  <time>2026-08-28T19:11:55Z</time>
  <course>257.81</course>
  <speed>0.05</speed>
  <fix>3d</fix>
</trkpt>
<trkpt lat="40.0728925" lon="-105.2308561">
  <ele>1595.22</ele>
  <time>2026-08-28T19:11:55Z</time>
  <course>316.78</course>
  <speed>0.01</speed>
  <fix>3d</fix>
</trkpt>
<trkpt lat="40.0728925" lon="-105.2308564">
  <ele>1595.12</ele>
  <time>2026-08-28T19:11:55Z</time>
  <course>268.24</course>
  <speed>0.04</speed>
  <fix>3d</fix>
</trkpt>
<trkpt lat="40.0728925" lon="-105.2308562">
  <ele>1595.22</ele>
  <time>2026-08-28T19:11:55Z</time>
  <course>317.19</course>
  <speed>0.0</speed>
  <fix>3d</fix>
</trkpt>
<trkpt lat="40.0728925" lon="-105.2308565">
  <ele>1595.12</ele>
  <time>2026-08-28T19:11:55Z</time>
  <course>279.95</course>
  <speed>0.03</speed>
  <fix>3d</fix>
</trkpt>
<trkpt lat="40.0728925" lon="-105.2308563">
  <ele>1595.22</ele>
  <time>2026-08-28T19:11:55Z</time>
  <course>318.1</course>
  <speed>0.0</speed>
  <fix>3d</fix>
</trkpt>
<trkpt lat="40.0728925" lon="-105.2308566">
  <ele>1595.12</ele>
  <time>2026-08-28T19:11:55Z</time>
  <course>267.48</course>
  <speed>0.04</speed>
  <fix>3d</fix>
</trkpt>
<trkpt lat="40.0728925" lon="-105.2308564">
  <ele>1595.22</ele>
  <time>2026-08-28T19:11:55Z</time>
  <course>318.21</course>
  <speed>0.01</speed>
  <fix>3d</fix>
</trkpt>
<trkpt lat="40.0728924" lon="-105.2308568">
  <ele>1595.12</ele>
  <time>2026-08-28T19:11:55Z</time>
  <course>257.27</course>
  <speed>0.05</speed>
  <fix>3d</fix>
</trkpt>
<trkpt lat="40.0728925" lon="-105.2308565">
  <ele>1595.21</ele>
  <time>2026-08-28T19:11:55Z</time>
  <course>317.62</course>
  <speed>0.022360679774997897</speed>
  <fix>3d</fix>
</trkpt>
<trkpt lat="40.0728924" lon="-105.2308569">
  <ele>1595.12</ele>
  <time>2026-08-28T19:11:55Z</time>
  <course>259.1</course>
  <speed>0.05</speed>
  <fix>3d</fix>
</trkpt>
<trkpt lat="40.0728925" lon="-105.2308567">
  <ele>1595.21</ele>
  <time>2026-08-28T19:11:55Z</time>
  <course>317.07</course>
  <speed>0.022360679774997897</speed>
  <fix>3d</fix>
</trkpt>
<trkpt lat="40.0728924" lon="-105.230857">
  <ele>1595.12</ele>
  <time>2026-08-28T19:11:55Z</time>
  <course>270.46</course>
  <speed>0.04</speed>
  <fix>3d</fix>
</trkpt>
<trkpt lat="40.0728925" lon="-105.2308568">
  <ele>1595.2</ele>
  <time>2026-08-28T19:11:55Z</time>
  <course>316.98</course>
  <speed>0.01</speed>
  <fix>3d</fix>
</trkpt>
<trkpt lat="40.0728924" lon="-105.2308571">
  <ele>1595.12</ele>
  <time>2026-08-28T19:11:55Z</time>
  <course>281.9</course>
  <speed>0.03</speed>
  <fix>3d</fix>
</trkpt>
<trkpt lat="40.0728925" lon="-105.2308569">
  <ele>1595.21</ele>
  <time>2026-08-28T19:11:55Z</time>
  <course>317.24</course>
  <speed>0.0</speed>
  <fix>3d</fix>
</trkpt>
<trkpt lat="40.0728924" lon="-105.2308572">
  <ele>1595.12</ele>
  <time>2026-08-28T19:11:55Z</time>
  <course>281.62</course>
  <speed>0.03</speed>
  <fix>3d</fix>
</trkpt>
<trkpt lat="40.0728925" lon="-105.230857">
  <ele>1595.21</ele>
  <time>2026-08-28T19:11:55Z</time>
  <course>317.61</course>
  <speed>0.0</speed>
  <fix>3d</fix>
</trkpt>
<trkpt lat="40.0728924" lon="-105.2308573">
  <ele>1595.12</ele>
  <time>2026-08-28T19:11:55Z</time>
  <course>273.24</course>
  <speed>0.04</speed>
  <fix>3d</fix>
</trkpt>
<trkpt lat="40.0728925" lon="-105.2308571">
  <ele>1595.21</ele>
  <time>2026-08-28T19:11:55Z</time>
  <course>317.89</course>
  <speed>0.0</speed>
  <fix>3d</fix>
</trkpt>
<trkpt lat="40.0728924" lon="-105.2308574">
  <ele>1595.13</ele>
  <time>2026-08-28T19:11:55Z</time>
  <course>265.37</course>
  <speed>0.04</speed>
  <fix>3d</fix>
</trkpt>
<trkpt lat="40.0728925" lon="-105.2308572">
  <ele>1595.22</ele>
  <time>2026-08-28T19:11:55Z</time>
  <course>318.06</course>
  <speed>0.0</speed>
  <fix>3d</fix>
</trkpt>
<trkpt lat="40.0728924" lon="-105.2308575">
  <ele>1595.13</ele>
  <time>2026-08-28T19:11:55Z</time>
  <course>260.86</course>
  <speed>0.05</speed>
  <fix>3d</fix>
</trkpt>
<trkpt lat="40.0728925" lon="-105.2308573">
  <ele>1595.22</ele>
  <time>2026-08-28T19:11:55Z</time>
  <course>318.11</course>
  <speed>0.01</speed>
  <fix>3d</fix>
</trkpt>
<trkpt lat="40.0728924" lon="-105.2308576">
  <ele>1595.13</ele>
  <time>2026-08-28T19:11:55Z</time>
  <course>258.85</course>
  <speed>0.05</speed>
  <fix>3d</fix>
</trkpt>
<trkpt lat="40.0728925" lon="-105.2308574">
  <ele>1595.22</ele>
  <time>2026-08-28T19:11:55Z</time>
  <course>318.13</course>
  <speed>0.01</speed>
  <fix>3d</fix>
</trkpt>
<trkpt lat="40.0728924" lon="-105.2308577">
  <ele>1595.13</ele>
  <time>2026-08-28T19:11:55Z</time>
  <course>258.11</course>
  <speed>0.05</speed>
  <fix>3d</fix>
</trkpt>
<trkpt lat="40.0728924" lon="-105.2308575">
  <ele>1595.22</ele>
  <time>2026-08-28T19:11:55Z</time>
  <course>318.12</course>
  <speed>0.01</speed>
  <fix>3d</fix>
</trkpt>
<trkpt lat="40.0728924" lon="-105.2308578">
  <ele>1595.13</ele>
  <time>2026-08-28T19:11:55Z</time>
  <course>257.82</course>
  <speed>0.05</speed>
  <fix>3d</fix>
</trkpt>
<trkpt lat="40.0728924" lon="-105.2308577">
  <ele>1595.22</ele>
  <time>2026-08-28T19:11:55Z</time>
  <course>318.11</course>
  <speed>0.01</speed>
  <fix>3d</fix>
</trkpt>
<trkpt lat="40.0728924" lon="-105.2308579">
  <ele>1595.13</ele>
  <time>2026-08-28T19:11:55Z</time>
  <course>257.81</course>
  <speed>0.05</speed>
  <fix>3d</fix>
</trkpt>
<trkpt lat="40.0728924" lon="-105.2308578">
  <ele>1595.22</ele>
  <time>2026-08-28T19:11:55Z</time>
  <course>318.08</course>
  <speed>0.01</speed>
  <fix>3d</fix>
</trkpt>
<trkpt lat="40.0728924" lon="-105.2308581">
  <ele>1595.13</ele>
  <time>2026-08-28T19:11:55Z</time>
  <course>258.22</course>
  <speed>0.05</speed>
  <fix>3d</fix>
</trkpt>
<trkpt lat="40.0728924" lon="-105.2308579">
  <ele>1595.22</ele>
  <time>2026-08-28T19:11:55Z</time>
  <course>318.01</course>
  <speed>0.01</speed>
  <fix>3d</fix>
</trkpt>
<trkpt lat="40.0728924" lon="-105.2308582">
  <ele>1595.13</ele>
  <time>2026-08-28T19:11:55Z</time>
  <course>259.28</course>
  <speed>0.05</speed>
  <fix>3d</fix>
</trkpt>
<trkpt lat="40.0728923" lon="-105.2308581">
  <ele>1595.22</ele>
  <time>2026-08-28T19:11:55Z</time>
  <course>317.86</course>
  <speed>0.01</speed>
  <fix>3d</fix>
</trkpt>
<trkpt lat="40.0728924" lon="-105.2308583">
  <ele>1595.13</ele>
  <time>2026-08-28T19:11:55Z</time>
  <course>261.82</course>
  <speed>0.05</speed>
  <fix>3d</fix>
</trkpt>
<trkpt lat="40.0728923" lon="-105.2308582">
  <ele>1595.22</ele>
  <time>2026-08-28T19:11:55Z</time>
  <course>317.63</course>
  <speed>0.01</speed>
  <fix>3d</fix>
</trkpt>
<trkpt lat="40.0728924" lon="-105.2308584">
  <ele>1595.13</ele>
  <time>2026-08-28T19:11:55Z</time>
  <course>266.97</course>
  <speed>0.04</speed>
  <fix>3d</fix>
</trkpt>
<trkpt lat="40.0728923" lon="-105.2308583">
  <ele>1595.22</ele>
  <time>2026-08-28T19:11:55Z</time>
  <course>317.4</course>
  <speed>0.01</speed>
  <fix>3d</fix>
</trkpt>
<trkpt lat="40.0728924" lon="-105.2308585">
  <ele>1595.13</ele>
  <time>2026-08-28T19:11:55Z</time>
  <course>275.6</course>
  <speed>0.04</speed>
  <fix>3d</fix>
</trkpt>
<trkpt lat="40.0728924" lon="-105.2308584">
  <ele>1595.21</ele>
  <time>2026-08-28T19:11:55Z</time>
  <course>317.35</course>
  <speed>0.01</speed>
  <fix>3d</fix>
</trkpt>
<trkpt lat="40.0728924" lon="-105.2308586">
  <ele>1595.13</ele>
  <time>2026-08-28T19:11:55Z</time>
  <course>285.56</course>
  <speed>0.03</speed>
  <fix>3d</fix>
</trkpt>
<trkpt lat="40.0728924" lon="-105.2308585">
  <ele>1595.21</ele>
  <time>2026-08-28T19:11:55Z</time>
  <course>317.57</course>
  <speed>0.02</speed>
  <fix>3d</fix>
</trkpt>
<trkpt lat="40.0728924" lon="-105.2308587">
  <ele>1595.13</ele>
  <time>2026-08-28T19:11:55Z</time>
  <course>288.29</course>
  <speed>0.03</speed>
  <fix>3d</fix>
</trkpt>
<trkpt lat="40.0728924" lon="-105.2308585">
  <ele>1595.21</ele>
  <time>2026-08-28T19:11:55Z</time>
  <course>317.91</course>
  <speed>0.01</speed>
  <fix>3d</fix>
</trkpt>
<trkpt lat="40.0728924" lon="-105.2308588">
  <ele>1595.13</ele>
  <time>2026-08-28T19:11:55Z</time>
  <course>279.24</course>
  <speed>0.04</speed>
  <fix>3d</fix>
</trkpt>
<trkpt lat="40.0728924" lon="-105.2308586">
  <ele>1595.21</ele>
  <time>2026-08-28T19:11:55Z</time>
  <course>317.93</course>
  <speed>0.0</speed>
  <fix>3d</fix>
</trkpt>
<trkpt lat="40.0728924" lon="-105.2308589">
  <ele>1595.13</ele>
  <time>2026-08-28T19:11:55Z</time>
  <course>269.76</course>
  <speed>0.04</speed>
  <fix>3d</fix>
</trkpt>
<trkpt lat="40.0728924" lon="-105.2308587">
  <ele>1595.22</ele>
  <time>2026-08-28T19:11:55Z</time>
  <course>317.56</course>
  <speed>0.0</speed>
  <fix>3d</fix>
</trkpt>
<trkpt lat="40.0728924" lon="-105.230859">
  <ele>1595.13</ele>
  <time>2026-08-28T19:11:55Z</time>
  <course>270.79</course>
  <speed>0.04</speed>
  <fix>3d</fix>
</trkpt>
<trkpt lat="40.0728924" lon="-105.2308588">
  <ele>1595.22</ele>
  <time>2026-08-28T19:11:55Z</time>
  <course>317.49</course>
  <speed>0.01</speed>
  <fix>3d</fix>
</trkpt>
<trkpt lat="40.0728924" lon="-105.2308591">
  <ele>1595.13</ele>
  <time>2026-08-28T19:11:55Z</time>
  <course>280.37</course>
  <speed>0.04</speed>
  <fix>3d</fix>
</trkpt>
<trkpt lat="40.0728924" lon="-105.2308589">
  <ele>1595.22</ele>
  <time>2026-08-28T19:11:55Z</time>
  <course>317.91</course>
  <speed>0.01</speed>
  <fix>3d</fix>
</trkpt>
<trkpt lat="40.0728924" lon="-105.2308592">
  <ele>1595.14</ele>
  <time>2026-08-28T19:11:55Z</time>
  <course>278.58</course>
  <speed>0.04</speed>
  <fix>3d</fix>
</trkpt>
<trkpt lat="40.0728924" lon="-105.230859">
  <ele>1595.23</ele>
  <time>2026-08-28T19:11:55Z</time>
  <course>317.82</course>
  <speed>0.0</speed>
  <fix>3d</fix>
</trkpt>
<trkpt lat="40.0728924" lon="-105.2308593">
  <ele>1595.14</ele>
  <time>2026-08-28T19:11:55Z</time>
  <course>269.17</course>
  <speed>0.04</speed>
  <fix>3d</fix>
</trkpt>
<trkpt lat="40.0728924" lon="-105.2308591">
  <ele>1595.23</ele>
  <time>2026-08-28T19:11:55Z</time>
  <course>317.57</course>
  <speed>0.01</speed>
  <fix>3d</fix>
</trkpt>
<trkpt lat="40.0728924" lon="-105.2308594">
  <ele>1595.14</ele>
  <time>2026-08-28T19:11:55Z</time>
  <course>272.51</course>
  <speed>0.04</speed>
  <fix>3d</fix>
</trkpt>
<trkpt lat="40.0728924" lon="-105.2308592">
  <ele>1595.23</ele>
  <time>2026-08-28T19:11:55Z</time>
  <course>317.9</course>
  <speed>0.01</speed>
  <fix>3d</fix>
</trkpt>
<trkpt lat="40.0728924" lon="-105.2308595">
  <ele>1595.14</ele>
  <time>2026-08-28T19:11:55Z</time>
  <course>275.57</course>
  <speed>0.04</speed>
  <fix>3d</fix>
</trkpt>
<trkpt lat="40.0728924" lon="-105.2308593">
  <ele>1595.23</ele>
  <time>2026-08-28T19:11:55Z</time>
  <course>317.75</course>
  <speed>0.01</speed>
  <fix>3d</fix>
</trkpt>
<trkpt lat="40.0728924" lon="-105.2308596">
  <ele>1595.14</ele>
  <time>2026-08-28T19:11:55Z</time>
  <course>271.0</course>
  <speed>0.04</speed>
  <fix>3d</fix>
</trkpt>
<trkpt lat="40.0728924" lon="-105.2308594">
  <ele>1595.23</ele>
  <time>2026-08-28T19:11:55Z</time>
  <course>317.77</course>
  <speed>0.01</speed>
  <fix>3d</fix>
</trkpt>
<trkpt lat="40.0728924" lon="-105.2308597">
  <ele>1595.13</ele>
  <time>2026-08-28T19:11:55Z</time>
  <course>272.87</course>
  <speed>0.04</speed>
  <fix>3d</fix>
</trkpt>
<trkpt lat="40.0728924" lon="-105.2308595">
  <ele>1595.22</ele>
  <time>2026-08-28T19:11:55Z</time>
  <course>317.82</course>
  <speed>0.01</speed>
  <fix>3d</fix>
</trkpt>
<trkpt lat="40.0728924" lon="-105.2308598">
  <ele>1595.13</ele>
  <time>2026-08-28T19:11:55Z</time>
  <course>272.92</course>
  <speed>0.04</speed>
  <fix>3d</fix>
</trkpt>
<trkpt lat="40.0728924" lon="-105.2308597">
  <ele>1595.21</ele>
  <time>2026-08-28T19:11:55Z</time>
  <course>317.76</course>
  <speed>0.01</speed>
  <fix>3d</fix>
</trkpt>
<trkpt lat="40.0728924" lon="-105.23086">
  <ele>1595.13</ele>
  <time>2026-08-28T19:11:55Z</time>
  <course>272.4</course>
  <speed>0.04</speed>
  <fix>3d</fix>
</trkpt>
<trkpt lat="40.0728924" lon="-105.2308598">
  <ele>1595.21</ele>
  <time>2026-08-28T19:11:55Z</time>
  <course>317.77</course>
  <speed>0.01</speed>
  <fix>3d</fix>
</trkpt>
<trkpt lat="40.0728924" lon="-105.2308601">
  <ele>1595.13</ele>
  <time>2026-08-28T19:11:55Z</time>
  <course>273.36</course>
  <speed>0.04</speed>
  <fix>3d</fix>
</trkpt>
<trkpt lat="40.0728924" lon="-105.2308599">
  <ele>1595.2</ele>
  <time>2026-08-28T19:11:55Z</time>
  <course>317.7</course>
  <speed>0.01</speed>
  <fix>3d</fix>
</trkpt>
<trkpt lat="40.0728924" lon="-105.2308602">
  <ele>1595.13</ele>
  <time>2026-08-28T19:11:55Z</time>
  <course>272.91</course>
  <speed>0.04</speed>
  <fix>3d</fix>
</trkpt>
<trkpt lat="40.0728924" lon="-105.23086">
  <ele>1595.2</ele>
  <time>2026-08-28T19:11:55Z</time>
  <course>317.52</course>
  <speed>0.01</speed>
  <fix>3d</fix>
</trkpt>
<trkpt lat="40.0728924" lon="-105.2308603">
  <ele>1595.13</ele>
  <time>2026-08-28T19:11:55Z</time>
  <course>273.44</course>
  <speed>0.04</speed>
  <fix>3d</fix>
</trkpt>
<trkpt lat="40.0728924" lon="-105.2308601">
  <ele>1595.21</ele>
  <time>2026-08-28T19:11:55Z</time>
  <course>317.47</course>
  <speed>0.01</speed>
  <fix>3d</fix>
</trkpt>
<trkpt lat="40.0728924" lon="-105.2308604">
  <ele>1595.13</ele>
  <time>2026-08-28T19:11:55Z</time>
  <course>272.91</course>
  <speed>0.04</speed>
  <fix>3d</fix>
</trkpt>
<trkpt lat="40.0728924" lon="-105.2308602">
  <ele>1595.21</ele>
  <time>2026-08-28T19:11:55Z</time>
  <course>317.46</course>
  <speed>0.02</speed>
  <fix>3d</fix>
</trkpt>
<trkpt lat="40.0728924" lon="-105.2308605">
  <ele>1595.13</ele>
  <time>2026-08-28T19:11:55Z</time>
  <course>272.02</course>
  <speed>0.05</speed>
  <fix>3d</fix>
</trkpt>
<trkpt lat="40.0728924" lon="-105.2308603">
  <ele>1595.21</ele>
  <time>2026-08-28T19:11:55Z</time>
  <course>317.46</course>
  <speed>0.02</speed>
  <fix>3d</fix>
</trkpt>
<trkpt lat="40.0728924" lon="-105.2308606">
  <ele>1595.14</ele>
  <time>2026-08-28T19:11:55Z</time>
  <course>271.17</course>
  <speed>0.05</speed>
  <fix>3d</fix>
</trkpt>
<trkpt lat="40.0728924" lon="-105.2308605">
  <ele>1595.22</ele>
  <time>2026-08-28T19:11:55Z</time>
  <course>317.47</course>
  <speed>0.02</speed>
  <fix>3d</fix>
</trkpt>
<trkpt lat="40.0728924" lon="-105.2308607">
  <ele>1595.14</ele>
  <time>2026-08-28T19:11:55Z</time>
  <course>270.73</course>
  <speed>0.05</speed>
  <fix>3d</fix>
</trkpt>
<trkpt lat="40.0728924" lon="-105.2308606">
  <ele>1595.21</ele>
  <time>2026-08-28T19:11:55Z</time>
  <course>317.48</course>
  <speed>0.03</speed>
  <fix>3d</fix>
</trkpt>
<trkpt lat="40.0728924" lon="-105.2308609">
  <ele>1595.14</ele>
  <time>2026-08-28T19:11:55Z</time>
  <course>270.5</course>
  <speed>0.06</speed>
  <fix>3d</fix>
</trkpt>
<trkpt lat="40.0728924" lon="-105.2308608">
  <ele>1595.21</ele>
  <time>2026-08-28T19:11:55Z</time>
  <course>317.48</course>
  <speed>0.03</speed>
  <fix>3d</fix>
</trkpt>
<trkpt lat="40.0728924" lon="-105.2308611">
  <ele>1595.14</ele>
  <time>2026-08-28T19:11:55Z</time>
  <course>270.4</course>
  <speed>0.06</speed>
  <fix>3d</fix>
</trkpt>
<trkpt lat="40.0728924" lon="-105.2308609">
  <ele>1595.22</ele>
  <time>2026-08-28T19:11:55Z</time>
  <course>317.48</course>
  <speed>0.03</speed>
  <fix>3d</fix>
</trkpt>
<trkpt lat="40.0728924" lon="-105.2308612">
  <ele>1595.15</ele>
  <time>2026-08-28T19:11:55Z</time>
  <course>270.38</course>
  <speed>0.06</speed>
  <fix>3d</fix>
</trkpt>
<trkpt lat="40.0728924" lon="-105.2308611">
  <ele>1595.22</ele>
  <time>2026-08-28T19:11:55Z</time>
  <course>317.49</course>
  <speed>0.03</speed>
  <fix>3d</fix>
</trkpt>
<trkpt lat="40.0728924" lon="-105.2308614">
  <ele>1595.15</ele>
  <time>2026-08-28T19:11:55Z</time>
  <course>270.46</course>
  <speed>0.06</speed>
  <fix>3d</fix>
</trkpt>
<trkpt lat="40.0728924" lon="-105.2308612">
  <ele>1595.22</ele>
  <time>2026-08-28T19:11:55Z</time>
  <course>317.49</course>
  <speed>0.03</speed>
  <fix>3d</fix>
</trkpt>
<trkpt lat="40.0728924" lon="-105.2308615">
  <ele>1595.15</ele>
  <time>2026-08-28T19:11:55Z</time>
  <course>270.58</course>
  <speed>0.07</speed>
  <fix>3d</fix>
</trkpt>
<trkpt lat="40.0728924" lon="-105.2308614">
  <ele>1595.22</ele>
  <time>2026-08-28T19:11:55Z</time>
  <course>317.49</course>
  <speed>0.04</speed>
  <fix>3d</fix>
</trkpt>
<trkpt lat="40.0728924" lon="-105.2308616">
  <ele>1595.15</ele>
  <time>2026-08-28T19:11:55Z</time>
  <course>270.71</course>
  <speed>0.07</speed>
  <fix>3d</fix>
</trkpt>
<trkpt lat="40.0728924" lon="-105.2308616">
  <ele>1595.22</ele>
  <time>2026-08-28T19:11:55Z</time>
  <course>317.5</course>
  <speed>0.04</speed>
  <fix>3d</fix>
</trkpt>
<trkpt lat="40.0728924" lon="-105.2308619">
  <ele>1595.15</ele>
  <time>2026-08-28T19:11:55Z</time>
  <course>270.78</course>
  <speed>0.07</speed>
  <fix>3d</fix>
</trkpt>
<trkpt lat="40.0728924" lon="-105.2308618">
  <ele>1595.22</ele>
  <time>2026-08-28T19:11:55Z</time>
  <course>317.5</course>
  <speed>0.04</speed>
  <fix>3d</fix>
</trkpt>
<trkpt lat="40.0728924" lon="-105.2308621">
  <ele>1595.15</ele>
  <time>2026-08-28T19:11:55Z</time>
  <course>271.17</course>
  <speed>0.07</speed>
  <fix>3d</fix>
</trkpt>
<trkpt lat="40.0728924" lon="-105.2308619">
  <ele>1595.22</ele>
  <time>2026-08-28T19:11:55Z</time>
  <course>317.5</course>
  <speed>0.04</speed>
  <fix>3d</fix>
</trkpt>
<trkpt lat="40.0728924" lon="-105.2308622">
  <ele>1595.15</ele>
  <time>2026-08-28T19:11:55Z</time>
  <course>271.74</course>
  <speed>0.07</speed>
  <fix>3d</fix>
</trkpt>
<trkpt lat="40.0728924" lon="-105.2308621">
  <ele>1595.22</ele>
  <time>2026-08-28T19:11:55Z</time>
  <course>317.51</course>
  <speed>0.04</speed>
  <fix>3d</fix>
</trkpt>
<trkpt lat="40.0728924" lon="-105.2308624">
  <ele>1595.15</ele>
  <time>2026-08-28T19:11:55Z</time>
  <course>272.04</course>
  <speed>0.08</speed>
  <fix>3d</fix>
</trkpt>
<trkpt lat="40.0728924" lon="-105.2308623">
  <ele>1595.22</ele>
  <time>2026-08-28T19:11:55Z</time>
  <course>317.51</course>
  <speed>0.05</speed>
  <fix>3d</fix>
</trkpt>
<trkpt lat="40.0728924" lon="-105.2308626">
  <ele>1595.15</ele>
  <time>2026-08-28T19:11:55Z</time>
  <course>272.24</course>
  <speed>0.08</speed>
  <fix>3d</fix>
</trkpt>
<trkpt lat="40.0728924" lon="-105.2308625">
  <ele>1595.21</ele>
  <time>2026-08-28T19:11:55Z</time>
  <course>315.86</course>
  <speed>0.0316227766016838</speed>
  <fix>3d</fix>
</trkpt>
<trkpt lat="40.0728925" lon="-105.2308627">
  <ele>1595.15</ele>
  <time>2026-08-28T19:11:55Z</time>
  <course>276.18</course>
  <speed>0.07</speed>
  <fix>3d</fix>
</trkpt>
<trkpt lat="40.0728924" lon="-105.2308627">
  <ele>1595.21</ele>
  <time>2026-08-28T19:11:55Z</time>
  <course>315.09</course>
  <speed>0.05</speed>
  <fix>3d</fix>
</trkpt>
<trkpt lat="40.0728925" lon="-105.230863">
  <ele>1595.15</ele>
  <time>2026-08-28T19:11:55Z</time>
  <course>275.03</course>
  <speed>0.08</speed>
  <fix>3d</fix>
</trkpt>
<trkpt lat="40.0728924" lon="-105.2308629">
  <ele>1595.21</ele>
  <time>2026-08-28T19:11:55Z</time>
  <course>319.81</course>
  <speed>0.04</speed>
  <fix>3d</fix>
</trkpt>
<trkpt lat="40.0728925" lon="-105.2308631">
  <ele>1595.15</ele>
  <time>2026-08-28T19:11:55Z</time>
  <course>265.57</course>
  <speed>0.08</speed>
  <fix>3d</fix>
</trkpt>
<trkpt lat="40.0728924" lon="-105.230863">
  <ele>1595.2</ele>
  <time>2026-08-28T19:11:55Z</time>
  <course>317.63</course>
  <speed>0.01414213562373095</speed>
  <fix>3d</fix>
</trkpt>
<trkpt lat="40.0728925" lon="-105.2308634">
  <ele>1595.15</ele>
  <time>2026-08-28T19:11:55Z</time>
  <course>270.66</course>
  <speed>0.06</speed>
  <fix>3d</fix>
</trkpt>
<trkpt lat="40.0728924" lon="-105.2308632">
  <ele>1595.2</ele>
  <time>2026-08-28T19:11:55Z</time>
  <course>315.05</course>
  <speed>0.03</speed>
  <fix>3d</fix>
</trkpt>
<trkpt lat="40.0728925" lon="-105.2308635">
  <ele>1595.15</ele>
  <time>2026-08-28T19:11:55Z</time>
  <course>279.68</course>
  <speed>0.05</speed>
  <fix>3d</fix>
</trkpt>
<trkpt lat="40.0728924" lon="-105.2308633">
  <ele>1595.2</ele>
  <time>2026-08-28T19:11:55Z</time>
  <course>319.57</course>
  <speed>0.0316227766016838</speed>
  <fix>3d</fix>
</trkpt>
<trkpt lat="40.0728925" lon="-105.2308636">
  <ele>1595.16</ele>
  <time>2026-08-28T19:11:55Z</time>
  <course>265.04</course>
  <speed>0.06</speed>
  <fix>3d</fix>
</trkpt>
<trkpt lat="40.0728924" lon="-105.2308635">
  <ele>1595.21</ele>
  <time>2026-08-28T19:11:55Z</time>
  <course>318.07</course>
  <speed>0.01</speed>
  <fix>3d</fix>
</trkpt>
<trkpt lat="40.0728925" lon="-105.2308638">
  <ele>1595.16</ele>
  <time>2026-08-28T19:11:55Z</time>
  <course>270.05</course>
  <speed>0.05</speed>
  <fix>3d</fix>
</trkpt>
<trkpt lat="40.0728924" lon="-105.2308636">
  <ele>1595.22</ele>
  <time>2026-08-28T19:11:55Z</time>
  <course>314.94</course>
  <speed>0.02</speed>
  <fix>3d</fix>
</trkpt>
<trkpt lat="40.0728925" lon="-105.2308639">
  <ele>1595.16</ele>
  <time>2026-08-28T19:11:55Z</time>
  <course>283.84</course>
  <speed>0.04</speed>
  <fix>3d</fix>
</trkpt>
<trkpt lat="40.0728924" lon="-105.2308637">
  <ele>1595.23</ele>
  <time>2026-08-28T19:11:55Z</time>
  <course>319.31</course>
  <speed>0.0316227766016838</speed>
  <fix>3d</fix>
</trkpt>
<trkpt lat="40.0728925" lon="-105.230864">
  <ele>1595.17</ele>
  <time>2026-08-28T19:11:55Z</time>
  <course>265.32</course>
  <speed>0.05</speed>
  <fix>3d</fix>
</trkpt>
<trkpt lat="40.0728924" lon="-105.2308638">
  <ele>1595.23</ele>
  <time>2026-08-28T19:11:55Z</time>
  <course>318.58</course>
  <speed>0.01</speed>
  <fix>3d</fix>
</trkpt>
<trkpt lat="40.0728925" lon="-105.2308641">
  <ele>1595.17</ele>
  <time>2026-08-28T19:11:55Z</time>
  <course>267.05</course>
  <speed>0.05</speed>
  <fix>3d</fix>
</trkpt>
<trkpt lat="40.0728924" lon="-105.2308639">
  <ele>1595.23</ele>
  <time>2026-08-28T19:11:55Z</time>
  <course>314.94</course>
  <speed>0.01</speed>
  <fix>3d</fix>
</trkpt>
<trkpt lat="40.0728925" lon="-105.2308642">
  <ele>1595.17</ele>
  <time>2026-08-28T19:11:55Z</time>
  <course>283.1</course>
  <speed>0.04</speed>
  <fix>3d</fix>
</trkpt>
<trkpt lat="40.0728924" lon="-105.2308641">
  <ele>1595.23</ele>
  <time>2026-08-28T19:11:55Z</time>
  <course>318.98</course>
  <speed>0.0316227766016838</speed>
  <fix>3d</fix>
</trkpt>
<trkpt lat="40.0728925" lon="-105.2308644">
  <ele>1595.17</ele>
  <time>2026-08-28T19:11:55Z</time>
  <course>264.68</course>
  <speed>0.05</speed>
  <fix>3d</fix>
</trkpt>
<trkpt lat="40.0728924" lon="-105.2308642">
  <ele>1595.22</ele>
  <time>2026-08-28T19:11:55Z</time>
  <course>319.02</course>
  <speed>0.01</speed>
  <fix>3d</fix>
</trkpt>
<trkpt lat="40.0728925" lon="-105.2308645">
  <ele>1595.16</ele>
  <time>2026-08-28T19:11:55Z</time>
  <course>264.27</course>
  <speed>0.05</speed>
  <fix>3d</fix>
</trkpt>
<trkpt lat="40.0728924" lon="-105.2308642">
  <ele>1595.23</ele>
  <time>2026-08-28T19:11:55Z</time>
  <course>314.92</course>
  <speed>0.01</speed>
  <fix>3d</fix>
</trkpt>
<trkpt lat="40.0728925" lon="-105.2308646">
  <ele>1595.16</ele>
  <time>2026-08-28T19:11:55Z</time>
  <course>283.09</course>
  <speed>0.03</speed>
  <fix>3d</fix>
</trkpt>
<trkpt lat="40.0728924" lon="-105.2308644">
  <ele>1595.23</ele>
  <time>2026-08-28T19:11:55Z</time>
  <course>318.51</course>
  <speed>0.0316227766016838</speed>
  <fix>3d</fix>
</trkpt>
<trkpt lat="40.0728925" lon="-105.2308647">
  <ele>1595.16</ele>
  <time>2026-08-28T19:11:55Z</time>
  <course>265.77</course>
  <speed>0.05</speed>
  <fix>3d</fix>
</trkpt>
<trkpt lat="40.0728924" lon="-105.2308645">
  <ele>1595.23</ele>
  <time>2026-08-28T19:11:55Z</time>
  <course>319.35</course>
  <speed>0.0</speed>
  <fix>3d</fix>
</trkpt>
<trkpt lat="40.0728925" lon="-105.2308648">
  <ele>1595.16</ele>
  <time>2026-08-28T19:11:55Z</time>
  <course>262.31</course>
  <speed>0.05</speed>
  <fix>3d</fix>
</trkpt>
<trkpt lat="40.0728924" lon="-105.2308646">
  <ele>1595.22</ele>
  <time>2026-08-28T19:11:55Z</time>
  <course>315.0</course>
  <speed>0.01</speed>
  <fix>3d</fix>
</trkpt>
<trkpt lat="40.0728925" lon="-105.2308649">
  <ele>1595.16</ele>
  <time>2026-08-28T19:11:55Z</time>
  <course>281.5</course>
  <speed>0.03</speed>
  <fix>3d</fix>
</trkpt>
<trkpt lat="40.0728924" lon="-105.2308647">
  <ele>1595.22</ele>
  <time>2026-08-28T19:11:55Z</time>
  <course>318.11</course>
  <speed>0.0316227766016838</speed>
  <fix>3d</fix>
</trkpt>
<trkpt lat="40.0728925" lon="-105.230865">
  <ele>1595.15</ele>
  <time>2026-08-28T19:11:55Z</time>
  <course>266.04</course>
  <speed>0.04</speed>
  <fix>3d</fix>
</trkpt>
<trkpt lat="40.0728924" lon="-105.2308648">
  <ele>1595.22</ele>
  <time>2026-08-28T19:11:55Z</time>
  <course>319.67</course>
  <speed>0.0</speed>
  <fix>3d</fix>
</trkpt>
<trkpt lat="40.0728925" lon="-105.2308651">
  <ele>1595.15</ele>
  <time>2026-08-28T19:11:55Z</time>
  <course>260.07</course>
  <speed>0.05</speed>
  <fix>3d</fix>
</trkpt>
<trkpt lat="40.0728924" lon="-105.2308649">
  <ele>1595.23</ele>
  <time>2026-08-28T19:11:55Z</time>
  <course>315.15</course>
  <speed>0.0</speed>
  <fix>3d</fix>
</trkpt>
<trkpt lat="40.0728925" lon="-105.2308652">
  <ele>1595.15</ele>
  <time>2026-08-28T19:11:55Z</time>
  <course>279.33</course>
  <speed>0.03</speed>
  <fix>3d</fix>
</trkpt>
<trkpt lat="40.0728924" lon="-105.230865">
  <ele>1595.23</ele>
  <time>2026-08-28T19:11:55Z</time>
  <course>317.66</course>
  <speed>0.0316227766016838</speed>
  <fix>3d</fix>
</trkpt>
<trkpt lat="40.0728925" lon="-105.2308653">
  <ele>1595.15</ele>
  <time>2026-08-28T19:11:55Z</time>
  <course>266.74</course>
  <speed>0.04</speed>
  <fix>3d</fix>
</trkpt>
<trkpt lat="40.0728924" lon="-105.2308651">
  <ele>1595.23</ele>
  <time>2026-08-28T19:11:55Z</time>
  <course>319.96</course>
  <speed>0.0</speed>
  <fix>3d</fix>
</trkpt>
<trkpt lat="40.0728925" lon="-105.2308654">
  <ele>1595.15</ele>
  <time>2026-08-28T19:11:55Z</time>
  <course>258.8</course>
  <speed>0.05</speed>
  <fix>3d</fix>
</trkpt>
<trkpt lat="40.0728924" lon="-105.2308652">
  <ele>1595.23</ele>
  <time>2026-08-28T19:11:55Z</time>
  <course>315.44</course>
  <speed>0.0</speed>
  <fix>3d</fix>
</trkpt>
<trkpt lat="40.0728925" lon="-105.2308656">
  <ele>1595.15</ele>
  <time>2026-08-28T19:11:55Z</time>
  <course>277.79</course>
  <speed>0.03</speed>
  <fix>3d</fix>
</trkpt>
<trkpt lat="40.0728924" lon="-105.2308653">
  <ele>1595.22</ele>
  <time>2026-08-28T19:11:55Z</time>
  <course>317.18</course>
  <speed>0.0316227766016838</speed>
  <fix>3d</fix>
</trkpt>
<trkpt lat="40.0728925" lon="-105.2308657">
  <ele>1595.14</ele>
  <time>2026-08-28T19:11:55Z</time>
  <course>268.49</course>
  <speed>0.04</speed>
  <fix>3d</fix>
</trkpt>
<trkpt lat="40.0728924" lon="-105.2308655">
  <ele>1595.22</ele>
  <time>2026-08-28T19:11:55Z</time>
  <course>320.14</course>
  <speed>0.0</speed>
  <fix>3d</fix>
</trkpt>
<trkpt lat="40.0728925" lon="-105.2308658">
  <ele>1595.14</ele>
  <time>2026-08-28T19:11:55Z</time>
  <course>258.14</course>
  <speed>0.05</speed>
  <fix>3d</fix>
</trkpt>
<trkpt lat="40.0728924" lon="-105.2308655">
  <ele>1595.21</ele>
  <time>2026-08-28T19:11:55Z</time>
  <course>315.7</course>
  <speed>0.0</speed>
  <fix>3d</fix>
</trkpt>
<trkpt lat="40.0728925" lon="-105.2308659">
  <ele>1595.14</ele>
  <time>2026-08-28T19:11:55Z</time>
  <course>275.96</course>
  <speed>0.04</speed>
  <fix>3d</fix>
</trkpt>
<trkpt lat="40.0728924" lon="-105.2308657">
  <ele>1595.21</ele>
  <time>2026-08-28T19:11:55Z</time>
  <course>316.73</course>
  <speed>0.0316227766016838</speed>
  <fix>3d</fix>
</trkpt>
<trkpt lat="40.0728925" lon="-105.230866">
  <ele>1595.14</ele>
  <time>2026-08-28T19:11:55Z</time>
  <course>270.54</course>
  <speed>0.04</speed>
  <fix>3d</fix>
</trkpt>
<trkpt lat="40.0728924" lon="-105.2308658">
  <ele>1595.21</ele>
  <time>2026-08-28T19:11:55Z</time>
  <course>320.21</course>
  <speed>0.01</speed>
  <fix>3d</fix>
</trkpt>
<trkpt lat="40.0728925" lon="-105.2308661">
  <ele>1595.14</ele>
  <time>2026-08-28T19:11:55Z</time>
  <course>257.68</course>
  <speed>0.05</speed>
  <fix>3d</fix>
</trkpt>
<trkpt lat="40.0728924" lon="-105.2308659">
  <ele>1595.21</ele>
  <time>2026-08-28T19:11:55Z</time>
  <course>316.03</course>
  <speed>0.0</speed>
  <fix>3d</fix>
</trkpt>
<trkpt lat="40.0728925" lon="-105.2308662">
  <ele>1595.14</ele>
  <time>2026-08-28T19:11:55Z</time>
  <course>273.33</course>
  <speed>0.04</speed>
  <fix>3d</fix>
</trkpt>
<trkpt lat="40.0728924" lon="-105.230866">
  <ele>1595.21</ele>
  <time>2026-08-28T19:11:55Z</time>
  <course>316.3</course>
  <speed>0.0316227766016838</speed>
  <fix>3d</fix>
</trkpt>
<trkpt lat="40.0728925" lon="-105.2308663">
  <ele>1595.14</ele>
  <time>2026-08-28T19:11:55Z</time>
  <course>271.51</course>
  <speed>0.04</speed>
  <fix>3d</fix>
</trkpt>
<trkpt lat="40.0728924" lon="-105.2308661">
  <ele>1595.22</ele>
  <time>2026-08-28T19:11:55Z</time>
  <course>320.24</course>
  <speed>0.01</speed>
  <fix>3d</fix>
</trkpt>
<trkpt lat="40.0728925" lon="-105.2308664">
  <ele>1595.14</ele>
  <time>2026-08-28T19:11:55Z</time>
  <course>256.9</course>
  <speed>0.05</speed>
  <fix>3d</fix>
</trkpt>
<trkpt lat="40.0728924" lon="-105.2308662">
  <ele>1595.22</ele>
  <time>2026-08-28T19:11:55Z</time>
  <course>316.45</course>
  <speed>0.01</speed>
  <fix>3d</fix>
</trkpt>
<trkpt lat="40.0728925" lon="-105.2308666">
  <ele>1595.14</ele>
  <time>2026-08-28T19:11:55Z</time>
  <course>270.65</course>
  <speed>0.04</speed>
  <fix>3d</fix>
</trkpt>
<trkpt lat="40.0728924" lon="-105.2308663">
  <ele>1595.22</ele>
  <time>2026-08-28T19:11:55Z</time>
  <course>315.93</course>
  <speed>0.022360679774997897</speed>
  <fix>3d</fix>
</trkpt>
<trkpt lat="40.0728925" lon="-105.2308666">
  <ele>1595.14</ele>
  <time>2026-08-28T19:11:55Z</time>
  <course>272.96</course>
  <speed>0.04</speed>
  <fix>3d</fix>
</trkpt>
<trkpt lat="40.0728924" lon="-105.2308665">
  <ele>1595.22</ele>
  <time>2026-08-28T19:11:55Z</time>
  <course>320.2</course>
  <speed>0.01</speed>
  <fix>3d</fix>
</trkpt>
<trkpt lat="40.0728925" lon="-105.2308668">
  <ele>1595.14</ele>
  <time>2026-08-28T19:11:55Z</time>
  <course>256.78</course>
  <speed>0.05</speed>
  <fix>3d</fix>
</trkpt>
<trkpt lat="40.0728924" lon="-105.2308665">
  <ele>1595.22</ele>
  <time>2026-08-28T19:11:55Z</time>
  <course>316.94</course>
  <speed>0.01</speed>
  <fix>3d</fix>
</trkpt>
<trkpt lat="40.0728925" lon="-105.2308669">
  <ele>1595.14</ele>
  <time>2026-08-28T19:11:55Z</time>
  <course>268.29</course>
  <speed>0.04</speed>
  <fix>3d</fix>
</trkpt>
<trkpt lat="40.0728924" lon="-105.2308667">
  <ele>1595.22</ele>
  <time>2026-08-28T19:11:55Z</time>
  <course>315.61</course>
  <speed>0.022360679774997897</speed>
  <fix>3d</fix>
</trkpt>
<trkpt lat="40.0728925" lon="-105.230867">
  <ele>1595.14</ele>
  <time>2026-08-28T19:11:55Z</time>
  <course>274.5</course>
  <speed>0.03</speed>
  <fix>3d</fix>
</trkpt>
<trkpt lat="40.0728924" lon="-105.2308668">
  <ele>1595.23</ele>
  <time>2026-08-28T19:11:55Z</time>
  <course>320.12</course>
  <speed>0.02</speed>
  <fix>3d</fix>
</trkpt>
<trkpt lat="40.0728925" lon="-105.2308671">
  <ele>1595.14</ele>
  <time>2026-08-28T19:11:55Z</time>
  <course>257.16</course>
  <speed>0.05</speed>
  <fix>3d</fix>
</trkpt>
<trkpt lat="40.0728924" lon="-105.2308669">
  <ele>1595.22</ele>
  <time>2026-08-28T19:11:55Z</time>
  <course>317.38</course>
  <speed>0.01</speed>
  <fix>3d</fix>
</trkpt>
<trkpt lat="40.0728925" lon="-105.2308672">
  <ele>1595.14</ele>
  <time>2026-08-28T19:11:55Z</time>
  <course>266.67</course>
  <speed>0.04</speed>
  <fix>3d</fix>
</trkpt>
<trkpt lat="40.0728924" lon="-105.230867">
  <ele>1595.22</ele>
  <time>2026-08-28T19:11:55Z</time>
  <course>315.37</course>
  <speed>0.022360679774997897</speed>
  <fix>3d</fix>
</trkpt>
<trkpt lat="40.0728925" lon="-105.2308673">
  <ele>1595.14</ele>
  <time>2026-08-28T19:11:55Z</time>
  <course>276.63</course>
  <speed>0.03</speed>
  <fix>3d</fix>
</trkpt>
<trkpt lat="40.0728924" lon="-105.2308671">
  <ele>1595.22</ele>
  <time>2026-08-28T19:11:55Z</time>
  <course>319.91</course>
  <speed>0.022360679774997897</speed>
  <fix>3d</fix>
</trkpt>
<trkpt lat="40.0728925" lon="-105.2308674">
  <ele>1595.14</ele>
  <time>2026-08-28T19:11:55Z</time>
  <course>257.93</course>
  <speed>0.05</speed>
  <fix>3d</fix>
</trkpt>
<trkpt lat="40.0728924" lon="-105.2308672">
  <ele>1595.22</ele>
  <time>2026-08-28T19:11:55Z</time>
  <course>317.83</course>
  <speed>0.01</speed>
  <fix>3d</fix>
</trkpt>
<trkpt lat="40.0728925" lon="-105.2308675">
  <ele>1595.14</ele>
  <time>2026-08-28T19:11:55Z</time>
  <course>264.73</course>
  <speed>0.04</speed>
  <fix>3d</fix>
</trkpt>
<trkpt lat="40.0728924" lon="-105.2308673">
  <ele>1595.22</ele>
  <time>2026-08-28T19:11:55Z</time>
  <course>315.15</course>
  <speed>0.02</speed>
  <fix>3d</fix>
</trkpt>
<trkpt lat="40.0728925" lon="-105.2308676">
  <ele>1595.14</ele>
  <time>2026-08-28T19:11:55Z</time>
  <course>277.66</course>
  <speed>0.03</speed>
  <fix>3d</fix>
</trkpt>
<trkpt lat="40.0728924" lon="-105.2308674">
  <ele>1595.21</ele>
  <time>2026-08-28T19:11:55Z</time>
  <course>319.63</course>
  <speed>0.022360679774997897</speed>
  <fix>3d</fix>
</trkpt>
<trkpt lat="40.0728925" lon="-105.2308677">
  <ele>1595.13</ele>
  <time>2026-08-28T19:11:55Z</time>
  <course>258.34</course>
  <speed>0.05</speed>
  <fix>3d</fix>
</trkpt>
<trkpt lat="40.0728924" lon="-105.2308675">
  <ele>1595.21</ele>
  <time>2026-08-28T19:11:55Z</time>
  <course>318.3</course>
  <speed>0.01</speed>
  <fix>3d</fix>
</trkpt>
<trkpt lat="40.0728924" lon="-105.2308678">
  <ele>1595.13</ele>
  <time>2026-08-28T19:11:56Z</time>
  <course>262.4</course>
  <speed>0.04</speed>
  <fix>3d</fix>
</trkpt>
<trkpt lat="40.0728924" lon="-105.2308676">
  <ele>1595.2</ele>
  <time>2026-08-28T19:11:56Z</time>
  <course>315.79</course>
  <speed>0.01</speed>
  <fix>3d</fix>
</trkpt>
<trkpt lat="40.0728924" lon="-105.2308679">
  <ele>1595.13</ele>
  <time>2026-08-28T19:11:56Z</time>
  <course>275.33</course>
  <speed>0.03</speed>
  <fix>3d</fix>
</trkpt>
<trkpt lat="40.0728924" lon="-105.2308677">
  <ele>1595.21</ele>
  <time>2026-08-28T19:11:56Z</time>
  <course>317.46</course>
  <speed>0.02</speed>
  <fix>3d</fix>
</trkpt>
<trkpt lat="40.0728924" lon="-105.230868">
  <ele>1595.13</ele>
  <time>2026-08-28T19:11:56Z</time>
  <course>264.34</course>
  <speed>0.04</speed>
  <fix>3d</fix>
</trkpt>
<trkpt lat="40.0728924" lon="-105.2308678">
  <ele>1595.21</ele>
  <time>2026-08-28T19:11:56Z</time>
  <course>318.91</course>
  <speed>0.02</speed>
  <fix>3d</fix>
</trkpt>
<trkpt lat="40.0728924" lon="-105.2308681">
  <ele>1595.14</ele>
  <time>2026-08-28T19:11:56Z</time>
  <course>262.53</course>
  <speed>0.05</speed>
  <fix>3d</fix>
</trkpt>
<trkpt lat="40.0728924" lon="-105.230868">
  <ele>1595.22</ele>
  <time>2026-08-28T19:11:56Z</time>
  <course>319.54</course>
  <speed>0.02</speed>
  <fix>3d</fix>
</trkpt>
<trkpt lat="40.0728924" lon="-105.2308683">
  <ele>1595.14</ele>
  <time>2026-08-28T19:11:56Z</time>
  <course>265.66</course>
  <speed>0.05</speed>
  <fix>3d</fix>
</trkpt>
<trkpt lat="40.0728924" lon="-105.2308681">
  <ele>1595.22</ele>
  <time>2026-08-28T19:11:56Z</time>
  <course>319.77</course>
  <speed>0.02</speed>
  <fix>3d</fix>
</trkpt>
<trkpt lat="40.0728924" lon="-105.2308684">
  <ele>1595.14</ele>
  <time>2026-08-28T19:11:56Z</time>
  <course>267.72</course>
  <speed>0.05</speed>
  <fix>3d</fix>
</trkpt>
<trkpt lat="40.0728924" lon="-105.2308682">
  <ele>1595.22</ele>
  <time>2026-08-28T19:11:56Z</time>
  <course>319.82</course>
  <speed>0.02</speed>
  <fix>3d</fix>
</trkpt>
<trkpt lat="40.0728924" lon="-105.2308685">
  <ele>1595.14</ele>
  <time>2026-08-28T19:11:56Z</time>
  <course>268.84</course>
  <speed>0.05</speed>
  <fix>3d</fix>
</trkpt>
<trkpt lat="40.0728924" lon="-105.2308684">
  <ele>1595.23</ele>
  <time>2026-08-28T19:11:56Z</time>
  <course>319.82</course>
  <speed>0.03</speed>
  <fix>3d</fix>
</trkpt>
<trkpt lat="40.0728924" lon="-105.2308687">
  <ele>1595.14</ele>
  <time>2026-08-28T19:11:56Z</time>
  <course>269.44</course>
  <speed>0.06</speed>
  <fix>3d</fix>
</trkpt>
<trkpt lat="40.0728924" lon="-105.2308685">
  <ele>1595.22</ele>
  <time>2026-08-28T19:11:56Z</time>
  <course>319.81</course>
  <speed>0.03</speed>
  <fix>3d</fix>
</trkpt>
<trkpt lat="40.0728924" lon="-105.2308688">
  <ele>1595.14</ele>
  <time>2026-08-28T19:11:56Z</time>
  <course>269.86</course>
  <speed>0.06</speed>
  <fix>3d</fix>
</trkpt>
<trkpt lat="40.0728924" lon="-105.2308687">
  <ele>1595.23</ele>
  <time>2026-08-28T19:11:56Z</time>
  <course>319.82</course>
  <speed>0.03</speed>
  <fix>3d</fix>
</trkpt>
<trkpt lat="40.0728924" lon="-105.2308689">
  <ele>1595.14</ele>
  <time>2026-08-28T19:11:56Z</time>
  <course>270.46</course>
  <speed>0.06</speed>
  <fix>3d</fix>
</trkpt>
<trkpt lat="40.0728924" lon="-105.2308688">
  <ele>1595.23</ele>
  <time>2026-08-28T19:11:56Z</time>
  <course>319.83</course>
  <speed>0.03</speed>
  <fix>3d</fix>
</trkpt>
<trkpt lat="40.0728924" lon="-105.2308692">
  <ele>1595.14</ele>
  <time>2026-08-28T19:11:56Z</time>
  <course>270.97</course>
  <speed>0.06</speed>
  <fix>3d</fix>
</trkpt>
<trkpt lat="40.0728924" lon="-105.230869">
  <ele>1595.22</ele>
  <time>2026-08-28T19:11:56Z</time>
  <course>319.82</course>
  <speed>0.04</speed>
  <fix>3d</fix>
</trkpt>
<trkpt lat="40.0728924" lon="-105.2308693">
  <ele>1595.14</ele>
  <time>2026-08-28T19:11:56Z</time>
  <course>271.46</course>
  <speed>0.07</speed>
  <fix>3d</fix>
</trkpt>
<trkpt lat="40.0728924" lon="-105.2308692">
  <ele>1595.22</ele>
  <time>2026-08-28T19:11:56Z</time>
  <course>319.82</course>
  <speed>0.04</speed>
  <fix>3d</fix>
</trkpt>
<trkpt lat="40.0728924" lon="-105.2308694">
  <ele>1595.13</ele>
  <time>2026-08-28T19:11:56Z</time>
  <course>272.1</course>
  <speed>0.07</speed>
  <fix>3d</fix>
</trkpt>
<trkpt lat="40.0728924" lon="-105.2308694">
  <ele>1595.21</ele>
  <time>2026-08-28T19:11:56Z</time>
  <course>319.81</course>
  <speed>0.04</speed>
  <fix>3d</fix>
</trkpt>
<trkpt lat="40.0728924" lon="-105.2308697">
  <ele>1595.13</ele>
  <time>2026-08-28T19:11:56Z</time>
  <course>272.79</course>
  <speed>0.07</speed>
  <fix>3d</fix>
</trkpt>
<trkpt lat="40.0728924" lon="-105.2308696">
  <ele>1595.21</ele>
  <time>2026-08-28T19:11:56Z</time>
  <course>319.81</course>
  <speed>0.04</speed>
  <fix>3d</fix>
</trkpt>
<trkpt lat="40.0728924" lon="-105.2308698">
  <ele>1595.13</ele>
  <time>2026-08-28T19:11:56Z</time>
  <course>273.37</course>
  <speed>0.07</speed>
  <fix>3d</fix>
</trkpt>
<trkpt lat="40.0728924" lon="-105.2308698">
  <ele>1595.2</ele>
  <time>2026-08-28T19:11:56Z</time>
  <course>319.82</course>
  <speed>0.05</speed>
  <fix>3d</fix>
</trkpt>
<trkpt lat="40.0728924" lon="-105.23087">
  <ele>1595.13</ele>
  <time>2026-08-28T19:11:56Z</time>
  <course>273.87</course>
  <speed>0.08</speed>
  <fix>3d</fix>
</trkpt>
<trkpt lat="40.0728924" lon="-105.2308699">
  <ele>1595.2</ele>
  <time>2026-08-28T19:11:56Z</time>
  <course>319.82</course>
  <speed>0.05</speed>
  <fix>3d</fix>
</trkpt>
<trkpt lat="40.0728924" lon="-105.2308702">
  <ele>1595.13</ele>
  <time>2026-08-28T19:11:56Z</time>
  <course>274.35</course>
  <speed>0.08</speed>
  <fix>3d</fix>
</trkpt>
<trkpt lat="40.0728924" lon="-105.2308701">
  <ele>1595.2</ele>
  <time>2026-08-28T19:11:56Z</time>
  <course>319.12</course>
  <speed>0.0412310562561766</speed>
  <fix>3d</fix>
</trkpt>
<trkpt lat="40.0728924" lon="-105.2308703">
  <ele>1595.13</ele>
  <time>2026-08-28T19:11:56Z</time>
  <course>276.11</course>
  <speed>0.08</speed>
  <fix>3d</fix>
</trkpt>
<trkpt lat="40.0728924" lon="-105.2308703">
  <ele>1595.2</ele>
  <time>2026-08-28T19:11:56Z</time>
  <course>316.45</course>
  <speed>0.05</speed>
  <fix>3d</fix>
</trkpt>
<trkpt lat="40.0728924" lon="-105.2308706">
  <ele>1595.13</ele>
  <time>2026-08-28T19:11:56Z</time>
  <course>278.68</course>
  <speed>0.08</speed>
  <fix>3d</fix>
</trkpt>
<trkpt lat="40.0728924" lon="-105.2308705">
  <ele>1595.21</ele>
  <time>2026-08-28T19:11:56Z</time>
  <course>321.24</course>
  <speed>0.06082762530298219</speed>
  <fix>3d</fix>
</trkpt>
<trkpt lat="40.0728924" lon="-105.2308707">
  <ele>1595.14</ele>
  <time>2026-08-28T19:11:56Z</time>
  <course>269.09</course>
  <speed>0.08</speed>
  <fix>3d</fix>
</trkpt>
<trkpt lat="40.0728924" lon="-105.2308707">
  <ele>1595.21</ele>
  <time>2026-08-28T19:11:56Z</time>
  <course>321.65</course>
  <speed>0.01414213562373095</speed>
  <fix>3d</fix>
</trkpt>
<trkpt lat="40.0728924" lon="-105.230871">
  <ele>1595.14</ele>
  <time>2026-08-28T19:11:56Z</time>
  <course>267.78</course>
  <speed>0.07</speed>
  <fix>3d</fix>
</trkpt>
<trkpt lat="40.0728924" lon="-105.2308708">
  <ele>1595.22</ele>
  <time>2026-08-28T19:11:56Z</time>
  <course>316.79</course>
  <speed>0.02</speed>
  <fix>3d</fix>
</trkpt>
<trkpt lat="40.0728924" lon="-105.2308711">
  <ele>1595.14</ele>
  <time>2026-08-28T19:11:56Z</time>
  <course>283.62</course>
  <speed>0.05</speed>
  <fix>3d</fix>
</trkpt>
<trkpt lat="40.0728924" lon="-105.230871">
  <ele>1595.22</ele>
  <time>2026-08-28T19:11:56Z</time>
  <course>320.7</course>
  <speed>0.0412310562561766</speed>
  <fix>3d</fix>
</trkpt>
<trkpt lat="40.0728924" lon="-105.2308712">
  <ele>1595.15</ele>
  <time>2026-08-28T19:11:56Z</time>
  <course>269.56</course>
  <speed>0.06</speed>
  <fix>3d</fix>
</trkpt>
<trkpt lat="40.0728924" lon="-105.2308711">
  <ele>1595.23</ele>
  <time>2026-08-28T19:11:56Z</time>
  <course>322.11</course>
  <speed>0.0</speed>
  <fix>3d</fix>
</trkpt>
<trkpt lat="40.0728924" lon="-105.2308714">
  <ele>1595.15</ele>
  <time>2026-08-28T19:11:56Z</time>
  <course>265.77</course>
  <speed>0.06</speed>
  <fix>3d</fix>
</trkpt>
<trkpt lat="40.0728924" lon="-105.2308712">
  <ele>1595.23</ele>
  <time>2026-08-28T19:11:56Z</time>
  <course>316.96</course>
  <speed>0.01</speed>
  <fix>3d</fix>
</trkpt>
<trkpt lat="40.0728924" lon="-105.2308715">
  <ele>1595.15</ele>
  <time>2026-08-28T19:11:56Z</time>
  <course>288.41</course>
  <speed>0.04</speed>
  <fix>3d</fix>
</trkpt>
<trkpt lat="40.0728924" lon="-105.2308713">
  <ele>1595.24</ele>
  <time>2026-08-28T19:11:56Z</time>
  <course>320.27</course>
  <speed>0.03605551275463989</speed>
  <fix>3d</fix>
</trkpt>
<trkpt lat="40.0728924" lon="-105.2308716">
  <ele>1595.15</ele>
  <time>2026-08-28T19:11:56Z</time>
  <course>272.72</course>
  <speed>0.04</speed>
  <fix>3d</fix>
</trkpt>
<trkpt lat="40.0728924" lon="-105.2308714">
  <ele>1595.24</ele>
  <time>2026-08-28T19:11:56Z</time>
  <course>322.43</course>
  <speed>0.0</speed>
  <fix>3d</fix>
</trkpt>
<trkpt lat="40.0728924" lon="-105.2308717">
  <ele>1595.15</ele>
  <time>2026-08-28T19:11:56Z</time>
  <course>265.0</course>
  <speed>0.05</speed>
  <fix>3d</fix>
</trkpt>
<trkpt lat="40.0728924" lon="-105.2308715">
  <ele>1595.23</ele>
  <time>2026-08-28T19:11:56Z</time>
  <course>317.2</course>
  <speed>0.0</speed>
  <fix>3d</fix>
</trkpt>
<trkpt lat="40.0728924" lon="-105.2308718">
  <ele>1595.14</ele>
  <time>2026-08-28T19:11:56Z</time>
  <course>289.67</course>
  <speed>0.03</speed>
  <fix>3d</fix>
</trkpt>
<trkpt lat="40.0728924" lon="-105.2308716">
  <ele>1595.23</ele>
  <time>2026-08-28T19:11:56Z</time>
  <course>319.74</course>
  <speed>0.03605551275463989</speed>
  <fix>3d</fix>
</trkpt>
<trkpt lat="40.0728924" lon="-105.2308719">
  <ele>1595.14</ele>
  <time>2026-08-28T19:11:56Z</time>
  <course>274.95</course>
  <speed>0.04</speed>
  <fix>3d</fix>
</trkpt>
<trkpt lat="40.0728924" lon="-105.2308718">
  <ele>1595.23</ele>
  <time>2026-08-28T19:11:56Z</time>
  <course>322.69</course>
  <speed>0.0</speed>
  <fix>3d</fix>
</trkpt>
<trkpt lat="40.0728924" lon="-105.2308721">
  <ele>1595.14</ele>
  <time>2026-08-28T19:11:56Z</time>
  <course>263.41</course>
  <speed>0.05</speed>
  <fix>3d</fix>
</trkpt>
<trkpt lat="40.0728924" lon="-105.2308718">
  <ele>1595.22</ele>
  <time>2026-08-28T19:11:56Z</time>
  <course>317.49</course>
  <speed>0.0</speed>
  <fix>3d</fix>
</trkpt>
<trkpt lat="40.0728925" lon="-105.2308721">
  <ele>1595.13</ele>
  <time>2026-08-28T19:11:56Z</time>
  <course>288.25</course>
  <speed>0.03</speed>
  <fix>3d</fix>
</trkpt>
<trkpt lat="40.0728924" lon="-105.2308719">
  <ele>1595.22</ele>
  <time>2026-08-28T19:11:56Z</time>
  <course>319.17</course>
  <speed>0.03605551275463989</speed>
  <fix>3d</fix>
</trkpt>
<trkpt lat="40.0728925" lon="-105.2308722">
  <ele>1595.13</ele>
  <time>2026-08-28T19:11:56Z</time>
  <course>277.44</course>
  <speed>0.04</speed>
  <fix>3d</fix>
</trkpt>
<trkpt lat="40.0728924" lon="-105.2308721">
  <ele>1595.21</ele>
  <time>2026-08-28T19:11:56Z</time>
  <course>322.84</course>
  <speed>0.0</speed>
  <fix>3d</fix>
</trkpt>
<trkpt lat="40.0728925" lon="-105.2308724">
  <ele>1595.13</ele>
  <time>2026-08-28T19:11:56Z</time>
  <course>262.03</course>
  <speed>0.05</speed>
  <fix>3d</fix>
</trkpt>
<trkpt lat="40.0728924" lon="-105.2308721">
  <ele>1595.21</ele>
  <time>2026-08-28T19:11:56Z</time>
  <course>317.84</course>
  <speed>0.01</speed>
  <fix>3d</fix>
</trkpt>
<trkpt lat="40.0728925" lon="-105.2308724">
  <ele>1595.13</ele>
  <time>2026-08-28T19:11:56Z</time>
  <course>284.04</course>
  <speed>0.03</speed>
  <fix>3d</fix>
</trkpt>
<trkpt lat="40.0728924" lon="-105.2308722">
  <ele>1595.2</ele>
  <time>2026-08-28T19:11:56Z</time>
  <course>318.63</course>
  <speed>0.0316227766016838</speed>
  <fix>3d</fix>
</trkpt>
<trkpt lat="40.0728925" lon="-105.2308725">
  <ele>1595.13</ele>
  <time>2026-08-28T19:11:56Z</time>
  <course>277.55</course>
  <speed>0.03</speed>
  <fix>3d</fix>
</trkpt>
<trkpt lat="40.0728924" lon="-105.2308724">
  <ele>1595.2</ele>
  <time>2026-08-28T19:11:56Z</time>
  <course>322.89</course>
  <speed>0.01</speed>
  <fix>3d</fix>
</trkpt>
<trkpt lat="40.0728925" lon="-105.2308726">
  <ele>1595.13</ele>
  <time>2026-08-28T19:11:56Z</time>
  <course>259.41</course>
  <speed>0.05</speed>
  <fix>3d</fix>
</trkpt>
<trkpt lat="40.0728924" lon="-105.2308724">
  <ele>1595.2</ele>
  <time>2026-08-28T19:11:56Z</time>
  <course>318.25</course>
  <speed>0.01</speed>
  <fix>3d</fix>
</trkpt>
<trkpt lat="40.0728925" lon="-105.2308728">
  <ele>1595.13</ele>
  <time>2026-08-28T19:11:56Z</time>
  <course>277.83</course>
  <speed>0.03</speed>
  <fix>3d</fix>
</trkpt>
<trkpt lat="40.0728924" lon="-105.2308725">
  <ele>1595.21</ele>
  <time>2026-08-28T19:11:56Z</time>
  <course>318.18</course>
  <speed>0.0316227766016838</speed>
  <fix>3d</fix>
</trkpt>
<trkpt lat="40.0728925" lon="-105.2308728">
  <ele>1595.13</ele>
  <time>2026-08-28T19:11:56Z</time>
  <course>276.09</course>
  <speed>0.03</speed>
  <fix>3d</fix>
</trkpt>
<trkpt lat="40.0728924" lon="-105.2308727">
  <ele>1595.22</ele>
  <time>2026-08-28T19:11:56Z</time>
  <course>322.9</course>
  <speed>0.01</speed>
  <fix>3d</fix>
</trkpt>
<trkpt lat="40.0728925" lon="-105.230873">
  <ele>1595.14</ele>
  <time>2026-08-28T19:11:56Z</time>
  <course>256.55</course>
  <speed>0.05</speed>
  <fix>3d</fix>
</trkpt>
<trkpt lat="40.0728924" lon="-105.2308727">
  <ele>1595.22</ele>
  <time>2026-08-28T19:11:56Z</time>
  <course>318.75</course>
  <speed>0.01</speed>
  <fix>3d</fix>
</trkpt>
<trkpt lat="40.0728925" lon="-105.2308731">
  <ele>1595.14</ele>
  <time>2026-08-28T19:11:56Z</time>
  <course>271.32</course>
  <speed>0.03</speed>
  <fix>3d</fix>
</trkpt>
<trkpt lat="40.0728924" lon="-105.2308728">
  <ele>1595.22</ele>
  <time>2026-08-28T19:11:56Z</time>
  <course>317.8</course>
  <speed>0.022360679774997897</speed>
  <fix>3d</fix>
</trkpt>
<trkpt lat="40.0728925" lon="-105.2308731">
  <ele>1595.14</ele>
  <time>2026-08-28T19:11:56Z</time>
  <course>275.16</course>
  <speed>0.03</speed>
  <fix>3d</fix>
</trkpt>
<trkpt lat="40.0728924" lon="-105.230873">
  <ele>1595.23</ele>
  <time>2026-08-28T19:11:56Z</time>
  <course>322.84</course>
  <speed>0.01</speed>
  <fix>3d</fix>
</trkpt>
<trkpt lat="40.0728925" lon="-105.2308732">
  <ele>1595.14</ele>
  <time>2026-08-28T19:11:56Z</time>
  <course>255.39</course>
  <speed>0.05</speed>
  <fix>3d</fix>
</trkpt>
<trkpt lat="40.0728924" lon="-105.230873">
  <ele>1595.23</ele>
  <time>2026-08-28T19:11:56Z</time>
  <course>319.32</course>
  <speed>0.01</speed>
  <fix>3d</fix>
</trkpt>
<trkpt lat="40.0728925" lon="-105.2308734">
  <ele>1595.14</ele>
  <time>2026-08-28T19:11:56Z</time>
  <course>267.53</course>
  <speed>0.04</speed>
  <fix>3d</fix>
</trkpt>
<trkpt lat="40.0728924" lon="-105.2308731">
  <ele>1595.23</ele>
  <time>2026-08-28T19:11:56Z</time>
  <course>317.43</course>
  <speed>0.022360679774997897</speed>
  <fix>3d</fix>
</trkpt>
<trkpt lat="40.0728925" lon="-105.2308735">
  <ele>1595.14</ele>
  <time>2026-08-28T19:11:56Z</time>
  <course>276.54</course>
  <speed>0.03</speed>
  <fix>3d</fix>
</trkpt>
<trkpt lat="40.0728924" lon="-105.2308733">
  <ele>1595.23</ele>
  <time>2026-08-28T19:11:56Z</time>
  <course>322.64</course>
  <speed>0.022360679774997897</speed>
  <fix>3d</fix>
</trkpt>
<trkpt lat="40.0728925" lon="-105.2308736">
  <ele>1595.14</ele>
  <time>2026-08-28T19:11:56Z</time>
  <course>255.72</course>
  <speed>0.05</speed>
  <fix>3d</fix>
</trkpt>
<trkpt lat="40.0728924" lon="-105.2308734">
  <ele>1595.23</ele>
  <time>2026-08-28T19:11:56Z</time>
  <course>319.82</course>
  <speed>0.01</speed>
  <fix>3d</fix>
</trkpt>
<trkpt lat="40.0728925" lon="-105.2308737">
  <ele>1595.14</ele>
  <time>2026-08-28T19:11:56Z</time>
  <course>265.0</course>
  <speed>0.04</speed>
  <fix>3d</fix>
</trkpt>
<trkpt lat="40.0728924" lon="-105.2308735">
  <ele>1595.23</ele>
  <time>2026-08-28T19:11:56Z</time>
  <course>317.17</course>
  <speed>0.022360679774997897</speed>
  <fix>3d</fix>
</trkpt>
<trkpt lat="40.0728925" lon="-105.2308738">
  <ele>1595.13</ele>
  <time>2026-08-28T19:11:56Z</time>
  <course>277.97</course>
  <speed>0.03</speed>
  <fix>3d</fix>
</trkpt>
<trkpt lat="40.0728924" lon="-105.2308736">
  <ele>1595.23</ele>
  <time>2026-08-28T19:11:56Z</time>
  <course>322.39</course>
  <speed>0.022360679774997897</speed>
  <fix>3d</fix>
</trkpt>
<trkpt lat="40.0728925" lon="-105.2308739">
  <ele>1595.13</ele>
  <time>2026-08-28T19:11:56Z</time>
  <course>256.05</course>
  <speed>0.05</speed>
  <fix>3d</fix>
</trkpt>
<trkpt lat="40.0728924" lon="-105.2308737">
  <ele>1595.23</ele>
  <time>2026-08-28T19:11:56Z</time>
  <course>320.36</course>
  <speed>0.01</speed>
  <fix>3d</fix>
</trkpt>
<trkpt lat="40.0728925" lon="-105.230874">
  <ele>1595.13</ele>
  <time>2026-08-28T19:11:56Z</time>
  <course>262.23</course>
  <speed>0.04</speed>
  <fix>3d</fix>
</trkpt>
<trkpt lat="40.0728924" lon="-105.2308738">
  <ele>1595.22</ele>
  <time>2026-08-28T19:11:56Z</time>
  <course>316.94</course>
  <speed>0.02</speed>
  <fix>3d</fix>
</trkpt>
<trkpt lat="40.0728925" lon="-105.2308741">
  <ele>1595.13</ele>
  <time>2026-08-28T19:11:56Z</time>
  <course>278.6</course>
  <speed>0.03</speed>
  <fix>3d</fix>
</trkpt>
<trkpt lat="40.0728924" lon="-105.2308739">
  <ele>1595.22</ele>
  <time>2026-08-28T19:11:56Z</time>
  <course>322.04</course>
  <speed>0.0316227766016838</speed>
  <fix>3d</fix>
</trkpt>
<trkpt lat="40.0728925" lon="-105.2308742">
  <ele>1595.12</ele>
  <time>2026-08-28T19:11:56Z</time>
  <course>256.31</course>
  <speed>0.05</speed>
  <fix>3d</fix>
</trkpt>
<trkpt lat="40.0728924" lon="-105.230874">
  <ele>1595.21</ele>
  <time>2026-08-28T19:11:56Z</time>
  <course>320.87</course>
  <speed>0.01</speed>
  <fix>3d</fix>
</trkpt>
<trkpt lat="40.0728925" lon="-105.2308743">
  <ele>1595.12</ele>
  <time>2026-08-28T19:11:56Z</time>
  <course>259.66</course>
  <speed>0.04</speed>
  <fix>3d</fix>
</trkpt>
<trkpt lat="40.0728924" lon="-105.2308741">
  <ele>1595.21</ele>
  <time>2026-08-28T19:11:56Z</time>
  <course>316.8</course>
  <speed>0.01</speed>
  <fix>3d</fix>
</trkpt>
<trkpt lat="40.0728925" lon="-105.2308744">
  <ele>1595.12</ele>
  <time>2026-08-28T19:11:56Z</time>
  <course>279.11</course>
  <speed>0.03</speed>
  <fix>3d</fix>
</trkpt>
<trkpt lat="40.0728924" lon="-105.2308742">
  <ele>1595.21</ele>
  <time>2026-08-28T19:11:56Z</time>
  <course>321.56</course>
  <speed>0.0316227766016838</speed>
  <fix>3d</fix>
</trkpt>
<trkpt lat="40.0728925" lon="-105.2308745">
  <ele>1595.12</ele>
  <time>2026-08-28T19:11:56Z</time>
  <course>256.91</course>
  <speed>0.04</speed>
  <fix>3d</fix>
</trkpt>
<trkpt lat="40.0728924" lon="-105.2308743">
  <ele>1595.2</ele>
  <time>2026-08-28T19:11:56Z</time>
  <course>321.35</course>
  <speed>0.01</speed>
  <fix>3d</fix>
</trkpt>
<trkpt lat="40.0728924" lon="-105.2308746">
  <ele>1595.12</ele>
  <time>2026-08-28T19:11:56Z</time>
  <course>257.14</course>
  <speed>0.04</speed>
  <fix>3d</fix>
</trkpt>
<trkpt lat="40.0728924" lon="-105.2308744">
  <ele>1595.2</ele>
  <time>2026-08-28T19:11:56Z</time>
  <course>316.75</course>
  <speed>0.01</speed>
  <fix>3d</fix>
</trkpt>
<trkpt lat="40.0728924" lon="-105.2308747">
  <ele>1595.12</ele>
  <time>2026-08-28T19:11:56Z</time>
  <course>277.73</course>
  <speed>0.03</speed>
  <fix>3d</fix>
</trkpt>
<trkpt lat="40.0728924" lon="-105.2308745">
  <ele>1595.2</ele>
  <time>2026-08-28T19:11:56Z</time>
  <course>321.11</course>
  <speed>0.03605551275463989</speed>
  <fix>3d</fix>
</trkpt>
<trkpt lat="40.0728924" lon="-105.2308748">
  <ele>1595.12</ele>
  <time>2026-08-28T19:11:56Z</time>
  <course>256.84</course>
  <speed>0.04</speed>
  <fix>3d</fix>
</trkpt>
<trkpt lat="40.0728924" lon="-105.2308746">
  <ele>1595.2</ele>
  <time>2026-08-28T19:11:56Z</time>
  <course>321.74</course>
  <speed>0.0</speed>
  <fix>3d</fix>
</trkpt>
<trkpt lat="40.0728924" lon="-105.2308749">
  <ele>1595.13</ele>
  <time>2026-08-28T19:11:56Z</time>
  <course>254.82</course>
  <speed>0.05</speed>
  <fix>3d</fix>
</trkpt>
<trkpt lat="40.0728924" lon="-105.2308747">
  <ele>1595.2</ele>
  <time>2026-08-28T19:11:56Z</time>
  <course>316.81</course>
  <speed>0.01</speed>
  <fix>3d</fix>
</trkpt>
<trkpt lat="40.0728924" lon="-105.230875">
  <ele>1595.13</ele>
  <time>2026-08-28T19:11:56Z</time>
  <course>276.44</course>
  <speed>0.03</speed>
  <fix>3d</fix>
</trkpt>
<trkpt lat="40.0728924" lon="-105.2308748">
  <ele>1595.21</ele>
  <time>2026-08-28T19:11:56Z</time>
  <course>320.62</course>
  <speed>0.03605551275463989</speed>
  <fix>3d</fix>
</trkpt>
<trkpt lat="40.0728924" lon="-105.2308751">
  <ele>1595.14</ele>
  <time>2026-08-28T19:11:56Z</time>
  <course>258.23</course>
  <speed>0.04</speed>
  <fix>3d</fix>
</trkpt>
<trkpt lat="40.0728924" lon="-105.2308749">
  <ele>1595.21</ele>
  <time>2026-08-28T19:11:56Z</time>
  <course>322.14</course>
  <speed>0.0</speed>
  <fix>3d</fix>
</trkpt>
<trkpt lat="40.0728924" lon="-105.2308752">
  <ele>1595.14</ele>
  <time>2026-08-28T19:11:56Z</time>
  <course>253.91</course>
  <speed>0.05</speed>
  <fix>3d</fix>
</trkpt>
<trkpt lat="40.0728924" lon="-105.230875">
  <ele>1595.21</ele>
  <time>2026-08-28T19:11:56Z</time>
  <course>318.1</course>
  <speed>0.01</speed>
  <fix>3d</fix>
</trkpt>
<trkpt lat="40.0728924" lon="-105.2308753">
  <ele>1595.15</ele>
  <time>2026-08-28T19:11:56Z</time>
  <course>270.05</course>
  <speed>0.03</speed>
  <fix>3d</fix>
</trkpt>
<trkpt lat="40.0728924" lon="-105.2308751">
  <ele>1595.21</ele>
  <time>2026-08-28T19:11:56Z</time>
  <course>319.4</course>
  <speed>0.02</speed>
  <fix>3d</fix>
</trkpt>
<trkpt lat="40.0728924" lon="-105.2308754">
  <ele>1595.15</ele>
  <time>2026-08-28T19:11:56Z</time>
  <course>265.01</course>
  <speed>0.04</speed>
  <fix>3d</fix>
</trkpt>
<trkpt lat="40.0728924" lon="-105.2308752">
  <ele>1595.22</ele>
  <time>2026-08-28T19:11:56Z</time>
  <course>321.22</course>
  <speed>0.02</speed>
  <fix>3d</fix>
</trkpt>
<trkpt lat="40.0728924" lon="-105.2308755">
  <ele>1595.15</ele>
  <time>2026-08-28T19:11:56Z</time>
  <course>260.15</course>
  <speed>0.05</speed>
  <fix>3d</fix>
</trkpt>
<trkpt lat="40.0728924" lon="-105.2308754">
  <ele>1595.22</ele>
  <time>2026-08-28T19:11:56Z</time>
  <course>322.06</course>
  <speed>0.02</speed>
  <fix>3d</fix>
</trkpt>
<trkpt lat="40.0728924" lon="-105.2308756">
  <ele>1595.15</ele>
  <time>2026-08-28T19:11:56Z</time>
  <course>264.15</course>
  <speed>0.05</speed>
  <fix>3d</fix>
</trkpt>
<trkpt lat="40.0728924" lon="-105.2308755">
  <ele>1595.22</ele>
  <time>2026-08-28T19:11:56Z</time>
  <course>322.34</course>
  <speed>0.02</speed>
  <fix>3d</fix>
</trkpt>
<trkpt lat="40.0728924" lon="-105.2308757">
  <ele>1595.16</ele>
  <time>2026-08-28T19:11:56Z</time>
  <course>267.45</course>
  <speed>0.05</speed>
  <fix>3d</fix>
</trkpt>
<trkpt lat="40.0728924" lon="-105.2308756">
  <ele>1595.22</ele>
  <time>2026-08-28T19:11:56Z</time>
  <course>322.4</course>
  <speed>0.02</speed>
  <fix>3d</fix>
</trkpt>
<trkpt lat="40.0728924" lon="-105.2308759">
  <ele>1595.16</ele>
  <time>2026-08-28T19:11:56Z</time>
  <course>269.12</course>
  <speed>0.05</speed>
  <fix>3d</fix>
</trkpt>
<trkpt lat="40.0728924" lon="-105.2308758">
  <ele>1595.22</ele>
  <time>2026-08-28T19:11:56Z</time>
  <course>322.44</course>
  <speed>0.03</speed>
  <fix>3d</fix>
</trkpt>
<trkpt lat="40.0728924" lon="-105.230876">
  <ele>1595.16</ele>
  <time>2026-08-28T19:11:56Z</time>
  <course>269.78</course>
  <speed>0.05</speed>
  <fix>3d</fix>
</trkpt>
<trkpt lat="40.0728924" lon="-105.2308759">
  <ele>1595.22</ele>
  <time>2026-08-28T19:11:56Z</time>
  <course>322.45</course>
  <speed>0.03</speed>
  <fix>3d</fix>
</trkpt>
<trkpt lat="40.0728924" lon="-105.2308761">
  <ele>1595.16</ele>
  <time>2026-08-28T19:11:56Z</time>
  <course>270.07</course>
  <speed>0.06</speed>
  <fix>3d</fix>
</trkpt>
<trkpt lat="40.0728924" lon="-105.230876">
  <ele>1595.22</ele>
  <time>2026-08-28T19:11:56Z</time>
  <course>322.46</course>
  <speed>0.03</speed>
  <fix>3d</fix>
</trkpt>
<trkpt lat="40.0728924" lon="-105.2308763">
  <ele>1595.16</ele>
  <time>2026-08-28T19:11:56Z</time>
  <course>270.65</course>
  <speed>0.06</speed>
  <fix>3d</fix>
</trkpt>
<trkpt lat="40.0728924" lon="-105.2308762">
  <ele>1595.22</ele>
  <time>2026-08-28T19:11:56Z</time>
  <course>322.45</course>
  <speed>0.03</speed>
  <fix>3d</fix>
</trkpt>
<trkpt lat="40.0728924" lon="-105.2308764">
  <ele>1595.16</ele>
  <time>2026-08-28T19:11:56Z</time>
  <course>271.18</course>
  <speed>0.06</speed>
  <fix>3d</fix>
</trkpt>
<trkpt lat="40.0728924" lon="-105.2308764">
  <ele>1595.22</ele>
  <time>2026-08-28T19:11:56Z</time>
  <course>322.44</course>
  <speed>0.04</speed>
  <fix>3d</fix>
</trkpt>
<trkpt lat="40.0728924" lon="-105.2308766">
  <ele>1595.16</ele>
  <time>2026-08-28T19:11:56Z</time>
  <course>271.48</course>
  <speed>0.06</speed>
  <fix>3d</fix>
</trkpt>
<trkpt lat="40.0728924" lon="-105.2308765">
  <ele>1595.22</ele>
  <time>2026-08-28T19:11:56Z</time>
  <course>322.45</course>
  <speed>0.04</speed>
  <fix>3d</fix>
</trkpt>
<trkpt lat="40.0728924" lon="-105.2308768">
  <ele>1595.16</ele>
  <time>2026-08-28T19:11:56Z</time>
  <course>271.71</course>
  <speed>0.07</speed>
  <fix>3d</fix>
</trkpt>
<trkpt lat="40.0728924" lon="-105.2308767">
  <ele>1595.22</ele>
  <time>2026-08-28T19:11:56Z</time>
  <course>322.45</course>
  <speed>0.04</speed>
  <fix>3d</fix>
</trkpt>
<trkpt lat="40.0728924" lon="-105.2308769">
  <ele>1595.16</ele>
  <time>2026-08-28T19:11:56Z</time>
  <course>271.95</course>
  <speed>0.07</speed>
  <fix>3d</fix>
</trkpt>
<trkpt lat="40.0728924" lon="-105.2308769">
  <ele>1595.22</ele>
  <time>2026-08-28T19:11:56Z</time>
  <course>322.45</course>
  <speed>0.04</speed>
  <fix>3d</fix>
</trkpt>
<trkpt lat="40.0728924" lon="-105.2308772">
  <ele>1595.16</ele>
  <time>2026-08-28T19:11:56Z</time>
  <course>272.22</course>
  <speed>0.07</speed>
  <fix>3d</fix>
</trkpt>
<trkpt lat="40.0728924" lon="-105.2308771">
  <ele>1595.22</ele>
  <time>2026-08-28T19:11:56Z</time>
  <course>322.46</course>
  <speed>0.04</speed>
  <fix>3d</fix>
</trkpt>
<trkpt lat="40.0728924" lon="-105.2308773">
  <ele>1595.16</ele>
  <time>2026-08-28T19:11:56Z</time>
  <course>272.52</course>
  <speed>0.07</speed>
  <fix>3d</fix>
</trkpt>
<trkpt lat="40.0728924" lon="-105.2308773">
  <ele>1595.22</ele>
  <time>2026-08-28T19:11:56Z</time>
  <course>322.47</course>
  <speed>0.05</speed>
  <fix>3d</fix>
</trkpt>
<trkpt lat="40.0728924" lon="-105.2308774">
  <ele>1595.16</ele>
  <time>2026-08-28T19:11:56Z</time>
  <course>273.13</course>
  <speed>0.08</speed>
  <fix>3d</fix>
</trkpt>
<trkpt lat="40.0728924" lon="-105.2308774">
  <ele>1595.23</ele>
  <time>2026-08-28T19:11:56Z</time>
  <course>322.32</course>
  <speed>0.0412310562561766</speed>
  <fix>3d</fix>
</trkpt>
<trkpt lat="40.0728924" lon="-105.2308777">
  <ele>1595.16</ele>
  <time>2026-08-28T19:11:56Z</time>
  <course>273.85</course>
  <speed>0.08</speed>
  <fix>3d</fix>
</trkpt>
<trkpt lat="40.0728924" lon="-105.2308776">
  <ele>1595.23</ele>
  <time>2026-08-28T19:11:56Z</time>
  <course>319.01</course>
  <speed>0.0412310562561766</speed>
  <fix>3d</fix>
</trkpt>
<trkpt lat="40.0728924" lon="-105.2308779">
  <ele>1595.16</ele>
  <time>2026-08-28T19:11:56Z</time>
  <course>279.15</course>
  <speed>0.07</speed>
  <fix>3d</fix>
</trkpt>
<trkpt lat="40.0728924" lon="-105.2308778">
  <ele>1595.23</ele>
  <time>2026-08-28T19:11:56Z</time>
  <course>322.6</course>
  <speed>0.06082762530298219</speed>
  <fix>3d</fix>
</trkpt>
<trkpt lat="40.0728924" lon="-105.230878">
  <ele>1595.16</ele>
  <time>2026-08-28T19:11:56Z</time>
  <course>271.21</course>
  <speed>0.08</speed>
  <fix>3d</fix>
</trkpt>
<trkpt lat="40.0728924" lon="-105.230878">
  <ele>1595.23</ele>
  <time>2026-08-28T19:11:56Z</time>
  <course>325.66</course>
  <speed>0.02</speed>
  <fix>3d</fix>
</trkpt>
<trkpt lat="40.0728924" lon="-105.2308783">
  <ele>1595.15</ele>
  <time>2026-08-28T19:11:56Z</time>
  <course>265.21</course>
  <speed>0.08</speed>
  <fix>3d</fix>
</trkpt>
<trkpt lat="40.0728924" lon="-105.2308781">
  <ele>1595.23</ele>
  <time>2026-08-28T19:11:56Z</time>
  <course>319.68</course>
  <speed>0.01</speed>
  <fix>3d</fix>
</trkpt>
<trkpt lat="40.0728924" lon="-105.2308784">
  <ele>1595.15</ele>
  <time>2026-08-28T19:11:56Z</time>
  <course>282.56</course>
  <speed>0.05</speed>
  <fix>3d</fix>
</trkpt>
<trkpt lat="40.0728924" lon="-105.2308783">
  <ele>1595.23</ele>
  <time>2026-08-28T19:11:56Z</time>
  <course>321.87</course>
  <speed>0.044721359549995794</speed>
  <fix>3d</fix>
</trkpt>
<trkpt lat="40.0728924" lon="-105.2308785">
  <ele>1595.15</ele>
  <time>2026-08-28T19:11:56Z</time>
  <course>273.54</course>
  <speed>0.05</speed>
  <fix>3d</fix>
</trkpt>
<trkpt lat="40.0728924" lon="-105.2308784">
  <ele>1595.22</ele>
  <time>2026-08-28T19:11:56Z</time>
  <course>325.85</course>
  <speed>0.01</speed>
  <fix>3d</fix>
</trkpt>
<trkpt lat="40.0728924" lon="-105.2308787">
  <ele>1595.15</ele>
  <time>2026-08-28T19:11:56Z</time>
  <course>261.48</course>
  <speed>0.06</speed>
  <fix>3d</fix>
</trkpt>
<trkpt lat="40.0728924" lon="-105.2308785">
  <ele>1595.22</ele>
  <time>2026-08-28T19:11:56Z</time>
  <course>320.11</course>
  <speed>0.01</speed>
  <fix>3d</fix>
</trkpt>
<trkpt lat="40.0728924" lon="-105.2308788">
  <ele>1595.14</ele>
  <time>2026-08-28T19:11:56Z</time>
  <course>284.73</course>
  <speed>0.04</speed>
  <fix>3d</fix>
</trkpt>
<trkpt lat="40.0728924" lon="-105.2308786">
  <ele>1595.22</ele>
  <time>2026-08-28T19:11:56Z</time>
  <course>321.21</course>
  <speed>0.03605551275463989</speed>
  <fix>3d</fix>
</trkpt>
<trkpt lat="40.0728924" lon="-105.2308788">
  <ele>1595.14</ele>
  <time>2026-08-28T19:11:56Z</time>
  <course>277.86</course>
  <speed>0.04</speed>
  <fix>3d</fix>
</trkpt>
<trkpt lat="40.0728924" lon="-105.2308787">
  <ele>1595.22</ele>
  <time>2026-08-28T19:11:56Z</time>
  <course>325.95</course>
  <speed>0.01</speed>
  <fix>3d</fix>
</trkpt>
<trkpt lat="40.0728924" lon="-105.2308789">
  <ele>1595.14</ele>
  <time>2026-08-28T19:11:56Z</time>
  <course>259.97</course>
  <speed>0.05</speed>
  <fix>3d</fix>
</trkpt>
<trkpt lat="40.0728924" lon="-105.2308788">
  <ele>1595.22</ele>
  <time>2026-08-28T19:11:56Z</time>
  <course>320.53</course>
  <speed>0.01</speed>
  <fix>3d</fix>
</trkpt>
<trkpt lat="40.0728924" lon="-105.2308791">
  <ele>1595.14</ele>
  <time>2026-08-28T19:11:56Z</time>
  <course>282.12</course>
  <speed>0.03</speed>
  <fix>3d</fix>
</trkpt>
<trkpt lat="40.0728924" lon="-105.2308789">
  <ele>1595.22</ele>
  <time>2026-08-28T19:11:56Z</time>
  <course>320.72</course>
  <speed>0.03605551275463989</speed>
  <fix>3d</fix>
</trkpt>
<trkpt lat="40.0728924" lon="-105.2308791">
  <ele>1595.14</ele>
  <time>2026-08-28T19:11:56Z</time>
  <course>279.31</course>
  <speed>0.03</speed>
  <fix>3d</fix>
</trkpt>
<trkpt lat="40.0728924" lon="-105.230879">
  <ele>1595.23</ele>
  <time>2026-08-28T19:11:56Z</time>
  <course>325.99</course>
  <speed>0.01</speed>
  <fix>3d</fix>
</trkpt>
<trkpt lat="40.0728924" lon="-105.2308793">
  <ele>1595.14</ele>
  <time>2026-08-28T19:11:56Z</time>
  <course>257.92</course>
  <speed>0.05</speed>
  <fix>3d</fix>
</trkpt>
<trkpt lat="40.0728924" lon="-105.2308791">
  <ele>1595.23</ele>
  <time>2026-08-28T19:11:56Z</time>
  <course>321.08</course>
  <speed>0.01</speed>
  <fix>3d</fix>
</trkpt>
<trkpt lat="40.0728924" lon="-105.2308794">
  <ele>1595.14</ele>
  <time>2026-08-28T19:11:56Z</time>
  <course>277.34</course>
  <speed>0.03</speed>
  <fix>3d</fix>
</trkpt>
<trkpt lat="40.0728924" lon="-105.2308792">
  <ele>1595.23</ele>
  <time>2026-08-28T19:11:56Z</time>
  <course>320.24</course>
  <speed>0.03605551275463989</speed>
  <fix>3d</fix>
</trkpt>
<trkpt lat="40.0728924" lon="-105.2308795">
  <ele>1595.14</ele>
  <time>2026-08-28T19:11:56Z</time>
  <course>281.14</course>
  <speed>0.03</speed>
  <fix>3d</fix>
</trkpt>
<trkpt lat="40.0728924" lon="-105.2308793">
  <ele>1595.23</ele>
  <time>2026-08-28T19:11:56Z</time>
  <course>325.9</course>
  <speed>0.01</speed>
  <fix>3d</fix>
</trkpt>
<trkpt lat="40.0728924" lon="-105.2308796">
  <ele>1595.14</ele>
  <time>2026-08-28T19:11:56Z</time>
  <course>257.35</course>
  <speed>0.05</speed>
  <fix>3d</fix>
</trkpt>
<trkpt lat="40.0728924" lon="-105.2308794">
  <ele>1595.22</ele>
  <time>2026-08-28T19:11:56Z</time>
  <course>321.68</course>
  <speed>0.01414213562373095</speed>
  <fix>3d</fix>
</trkpt>
<trkpt lat="40.0728924" lon="-105.2308797">
  <ele>1595.13</ele>
  <time>2026-08-28T19:11:56Z</time>
  <course>273.46</course>
  <speed>0.03</speed>
  <fix>3d</fix>
</trkpt>
<trkpt lat="40.0728924" lon="-105.2308795">
  <ele>1595.23</ele>
  <time>2026-08-28T19:11:56Z</time>
  <course>319.79</course>
  <speed>0.0316227766016838</speed>
  <fix>3d</fix>
</trkpt>
<trkpt lat="40.0728924" lon="-105.2308798">
  <ele>1595.13</ele>
  <time>2026-08-28T19:11:56Z</time>
  <course>283.93</course>
  <speed>0.03</speed>
  <fix>3d</fix>
</trkpt>
<trkpt lat="40.0728924" lon="-105.2308796">
  <ele>1595.23</ele>
  <time>2026-08-28T19:11:56Z</time>
  <course>325.69</course>
  <speed>0.022360679774997897</speed>
  <fix>3d</fix>
</trkpt>
<trkpt lat="40.0728924" lon="-105.2308798">
  <ele>1595.13</ele>
  <time>2026-08-28T19:11:56Z</time>
  <course>257.44</course>
  <speed>0.05</speed>
  <fix>3d</fix>
</trkpt>
<trkpt lat="40.0728924" lon="-105.2308797">
  <ele>1595.22</ele>
  <time>2026-08-28T19:11:56Z</time>
  <course>322.32</course>
  <speed>0.01414213562373095</speed>
  <fix>3d</fix>
</trkpt>
<trkpt lat="40.0728924" lon="-105.23088">
  <ele>1595.13</ele>
  <time>2026-08-28T19:11:56Z</time>
  <course>269.67</course>
  <speed>0.03</speed>
  <fix>3d</fix>
</trkpt>
<trkpt lat="40.0728924" lon="-105.2308798">
  <ele>1595.22</ele>
  <time>2026-08-28T19:11:56Z</time>
  <course>319.45</course>
  <speed>0.022360679774997897</speed>
  <fix>3d</fix>
</trkpt>
<trkpt lat="40.0728924" lon="-105.23088">
  <ele>1595.13</ele>
  <time>2026-08-28T19:11:56Z</time>
  <course>285.84</course>
  <speed>0.03</speed>
  <fix>3d</fix>
</trkpt>
<trkpt lat="40.0728924" lon="-105.2308799">
  <ele>1595.21</ele>
  <time>2026-08-28T19:11:56Z</time>
  <course>325.4</course>
  <speed>0.022360679774997897</speed>
  <fix>3d</fix>
</trkpt>
<trkpt lat="40.0728924" lon="-105.2308801">
  <ele>1595.12</ele>
  <time>2026-08-28T19:11:56Z</time>
  <course>257.29</course>
  <speed>0.05</speed>
  <fix>3d</fix>
</trkpt>
<trkpt lat="40.0728924" lon="-105.23088">
  <ele>1595.21</ele>
  <time>2026-08-28T19:11:56Z</time>
  <course>322.84</course>
  <speed>0.01414213562373095</speed>
  <fix>3d</fix>
</trkpt>
<trkpt lat="40.0728924" lon="-105.2308802">
  <ele>1595.12</ele>
  <time>2026-08-28T19:11:56Z</time>
  <course>265.6</course>
  <speed>0.04</speed>
  <fix>3d</fix>
</trkpt>
<trkpt lat="40.0728924" lon="-105.23088">
  <ele>1595.21</ele>
  <time>2026-08-28T19:11:56Z</time>
  <course>319.15</course>
  <speed>0.022360679774997897</speed>
  <fix>3d</fix>
</trkpt>
<trkpt lat="40.0728924" lon="-105.2308803">
  <ele>1595.12</ele>
  <time>2026-08-28T19:11:56Z</time>
  <course>286.6</course>
  <speed>0.02</speed>
  <fix>3d</fix>
</trkpt>
<trkpt lat="40.0728924" lon="-105.2308802">
  <ele>1595.21</ele>
  <time>2026-08-28T19:11:56Z</time>
  <course>325.01</course>
  <speed>0.022360679774997897</speed>
  <fix>3d</fix>
</trkpt>
<trkpt lat="40.0728924" lon="-105.2308804">
  <ele>1595.12</ele>
  <time>2026-08-28T19:11:56Z</time>
  <course>256.31</course>
  <speed>0.04</speed>
  <fix>3d</fix>
</trkpt>
<trkpt lat="40.0728924" lon="-105.2308802">
  <ele>1595.21</ele>
  <time>2026-08-28T19:11:56Z</time>
  <course>323.43</course>
  <speed>0.01414213562373095</speed>
  <fix>3d</fix>
</trkpt>
<trkpt lat="40.0728924" lon="-105.2308805">
  <ele>1595.13</ele>
  <time>2026-08-28T19:11:56Z</time>
  <course>260.76</course>
  <speed>0.04</speed>
  <fix>3d</fix>
</trkpt>
<trkpt lat="40.0728924" lon="-105.2308803">
  <ele>1595.21</ele>
  <time>2026-08-28T19:11:56Z</time>
  <course>319.0</course>
  <speed>0.01414213562373095</speed>
  <fix>3d</fix>
</trkpt>
<trkpt lat="40.0728924" lon="-105.2308805">
  <ele>1595.13</ele>
  <time>2026-08-28T19:11:56Z</time>
  <course>285.23</course>
  <speed>0.02</speed>
  <fix>3d</fix>
</trkpt>
<trkpt lat="40.0728924" lon="-105.2308804">
  <ele>1595.22</ele>
  <time>2026-08-28T19:11:56Z</time>
  <course>324.55</course>
  <speed>0.03605551275463989</speed>
  <fix>3d</fix>
</trkpt>
<trkpt lat="40.0728924" lon="-105.2308807">
  <ele>1595.13</ele>
  <time>2026-08-28T19:11:56Z</time>
  <course>255.45</course>
  <speed>0.04</speed>
  <fix>3d</fix>
</trkpt>
<trkpt lat="40.0728924" lon="-105.2308805">
  <ele>1595.21</ele>
  <time>2026-08-28T19:11:56Z</time>
  <course>324.07</course>
  <speed>0.01414213562373095</speed>
  <fix>3d</fix>
</trkpt>
<trkpt lat="40.0728924" lon="-105.2308808">
  <ele>1595.13</ele>
  <time>2026-08-28T19:11:56Z</time>
  <course>256.44</course>
  <speed>0.04</speed>
  <fix>3d</fix>
</trkpt>
<trkpt lat="40.0728924" lon="-105.2308805">
  <ele>1595.21</ele>
  <time>2026-08-28T19:11:56Z</time>
  <course>318.96</course>
  <speed>0.01</speed>
  <fix>3d</fix>
</trkpt>
<trkpt lat="40.0728924" lon="-105.2308808">
  <ele>1595.13</ele>
  <time>2026-08-28T19:11:56Z</time>
  <course>283.04</course>
  <speed>0.02</speed>
  <fix>3d</fix>
</trkpt>
<trkpt lat="40.0728924" lon="-105.2308807">
  <ele>1595.22</ele>
  <time>2026-08-28T19:11:56Z</time>
  <course>324.05</course>
  <speed>0.03605551275463989</speed>
  <fix>3d</fix>
</trkpt>
<trkpt lat="40.0728924" lon="-105.2308809">
  <ele>1595.14</ele>
  <time>2026-08-28T19:11:56Z</time>
  <course>255.77</course>
  <speed>0.04</speed>
  <fix>3d</fix>
</trkpt>
<trkpt lat="40.0728924" lon="-105.2308808">
  <ele>1595.22</ele>
  <time>2026-08-28T19:11:56Z</time>
  <course>324.54</course>
  <speed>0.0</speed>
  <fix>3d</fix>
</trkpt>
<trkpt lat="40.0728924" lon="-105.230881">
  <ele>1595.14</ele>
  <time>2026-08-28T19:11:56Z</time>
  <course>254.01</course>
  <speed>0.04</speed>
  <fix>3d</fix>
</trkpt>
<trkpt lat="40.0728924" lon="-105.2308808">
  <ele>1595.22</ele>
  <time>2026-08-28T19:11:56Z</time>
  <course>319.02</course>
  <speed>0.0</speed>
  <fix>3d</fix>
</trkpt>
<trkpt lat="40.0728924" lon="-105.2308811">
  <ele>1595.14</ele>
  <time>2026-08-28T19:11:56Z</time>
  <course>281.45</course>
  <speed>0.02</speed>
  <fix>3d</fix>
</trkpt>
<trkpt lat="40.0728924" lon="-105.2308809">
  <ele>1595.22</ele>
  <time>2026-08-28T19:11:56Z</time>
  <course>323.53</course>
  <speed>0.03605551275463989</speed>
  <fix>3d</fix>
</trkpt>
<trkpt lat="40.0728924" lon="-105.2308812">
  <ele>1595.14</ele>
  <time>2026-08-28T19:11:56Z</time>
  <course>256.2</course>
  <speed>0.04</speed>
  <fix>3d</fix>
</trkpt>
<trkpt lat="40.0728924" lon="-105.230881">
  <ele>1595.22</ele>
  <time>2026-08-28T19:11:56Z</time>
  <course>325.01</course>
  <speed>0.0</speed>
  <fix>3d</fix>
</trkpt>
<trkpt lat="40.0728924" lon="-105.2308813">
  <ele>1595.14</ele>
  <time>2026-08-28T19:11:56Z</time>
  <course>251.79</course>
  <speed>0.04</speed>
  <fix>3d</fix>
</trkpt>
<trkpt lat="40.0728924" lon="-105.2308811">
  <ele>1595.22</ele>
  <time>2026-08-28T19:11:56Z</time>
  <course>319.17</course>
  <speed>0.0</speed>
  <fix>3d</fix>
</trkpt>
<trkpt lat="40.0728924" lon="-105.2308814">
  <ele>1595.14</ele>
  <time>2026-08-28T19:11:56Z</time>
  <course>279.06</course>
  <speed>0.02</speed>
  <fix>3d</fix>
</trkpt>
<trkpt lat="40.0728924" lon="-105.2308812">
  <ele>1595.22</ele>
  <time>2026-08-28T19:11:56Z</time>
  <course>322.93</course>
  <speed>0.03605551275463989</speed>
  <fix>3d</fix>
</trkpt>
<trkpt lat="40.0728924" lon="-105.2308814">
  <ele>1595.14</ele>
  <time>2026-08-28T19:11:56Z</time>
  <course>257.09</course>
  <speed>0.03</speed>
  <fix>3d</fix>
</trkpt>
<trkpt lat="40.0728924" lon="-105.2308813">
  <ele>1595.23</ele>
  <time>2026-08-28T19:11:56Z</time>
  <course>325.4</course>
  <speed>0.0</speed>
  <fix>3d</fix>
</trkpt>
<trkpt lat="40.0728923" lon="-105.2308816">
  <ele>1595.14</ele>
  <time>2026-08-28T19:11:56Z</time>
  <course>249.98</course>
  <speed>0.04</speed>
  <fix>3d</fix>
</trkpt>
<trkpt lat="40.0728924" lon="-105.2308813">
  <ele>1595.23</ele>
  <time>2026-08-28T19:11:56Z</time>
  <course>319.45</course>
  <speed>0.0</speed>
  <fix>3d</fix>
</trkpt>
<trkpt lat="40.0728923" lon="-105.2308817">
  <ele>1595.14</ele>
  <time>2026-08-28T19:11:56Z</time>
  <course>275.59</course>
  <speed>0.02</speed>
  <fix>3d</fix>
</trkpt>
<trkpt lat="40.0728923" lon="-105.2308815">
  <ele>1595.23</ele>
  <time>2026-08-28T19:11:56Z</time>
  <course>322.29</course>
  <speed>0.03605551275463989</speed>
  <fix>3d</fix>
</trkpt>
<trkpt lat="40.0728923" lon="-105.2308817">
  <ele>1595.13</ele>
  <time>2026-08-28T19:11:56Z</time>
  <course>257.71</course>
  <speed>0.03</speed>
  <fix>3d</fix>
</trkpt>
<trkpt lat="40.0728923" lon="-105.2308816">
  <ele>1595.22</ele>
  <time>2026-08-28T19:11:56Z</time>
  <course>325.71</course>
  <speed>0.0</speed>
  <fix>3d</fix>
</trkpt>
<trkpt lat="40.0728923" lon="-105.2308818">
  <ele>1595.13</ele>
  <time>2026-08-28T19:11:56Z</time>
  <course>248.19</course>
  <speed>0.04</speed>
  <fix>3d</fix>
</trkpt>
<trkpt lat="40.0728923" lon="-105.2308816">
  <ele>1595.22</ele>
  <time>2026-08-28T19:11:56Z</time>
  <course>319.76</course>
  <speed>0.0</speed>
  <fix>3d</fix>
</trkpt>
<trkpt lat="40.0728923" lon="-105.2308819">
  <ele>1595.13</ele>
  <time>2026-08-28T19:11:56Z</time>
  <course>272.71</course>
  <speed>0.02</speed>
  <fix>3d</fix>
</trkpt>
<trkpt lat="40.0728923" lon="-105.2308817">
  <ele>1595.22</ele>
  <time>2026-08-28T19:11:56Z</time>
  <course>321.72</course>
  <speed>0.03605551275463989</speed>
  <fix>3d</fix>
</trkpt>
<trkpt lat="40.0728923" lon="-105.2308819">
  <ele>1595.13</ele>
  <time>2026-08-28T19:11:56Z</time>
  <course>259.6</course>
  <speed>0.03</speed>
  <fix>3d</fix>
</trkpt>
<trkpt lat="40.0728923" lon="-105.2308818">
  <ele>1595.22</ele>
  <time>2026-08-28T19:11:56Z</time>
  <course>325.87</course>
  <speed>0.0</speed>
  <fix>3d</fix>
</trkpt>
<trkpt lat="40.0728922" lon="-105.230882">
  <ele>1595.13</ele>
  <time>2026-08-28T19:11:56Z</time>
  <course>246.93</course>
  <speed>0.04</speed>
  <fix>3d</fix>
</trkpt>
<trkpt lat="40.0728923" lon="-105.2308819">
  <ele>1595.22</ele>
  <time>2026-08-28T19:11:56Z</time>
  <course>321.1</course>
  <speed>0.0</speed>
  <fix>3d</fix>
</trkpt>
<trkpt lat="40.0728922" lon="-105.2308821">
  <ele>1595.13</ele>
  <time>2026-08-28T19:11:56Z</time>
  <course>263.36</course>
  <speed>0.02</speed>
  <fix>3d</fix>
</trkpt>
<trkpt lat="40.0728923" lon="-105.2308819">
  <ele>1595.21</ele>
  <time>2026-08-28T19:11:57Z</time>
  <course>321.67</course>
  <speed>0.022360679774997897</speed>
  <fix>3d</fix>
</trkpt>
<trkpt lat="40.0728922" lon="-105.2308822">
  <ele>1595.13</ele>
  <time>2026-08-28T19:11:57Z</time>
  <course>266.21</course>
  <speed>0.02</speed>
  <fix>3d</fix>
</trkpt>
<trkpt lat="40.0728922" lon="-105.230882">
  <ele>1595.21</ele>
  <time>2026-08-28T19:11:57Z</time>
  <course>323.82</course>
  <speed>0.01</speed>
  <fix>3d</fix>
</trkpt>
<trkpt lat="40.0728922" lon="-105.2308823">
  <ele>1595.13</ele>
  <time>2026-08-28T19:11:57Z</time>
  <course>254.47</course>
  <speed>0.03</speed>
  <fix>3d</fix>
</trkpt>
<trkpt lat="40.0728922" lon="-105.2308821">
  <ele>1595.21</ele>
  <time>2026-08-28T19:11:57Z</time>
  <course>324.92</course>
  <speed>0.01</speed>
  <fix>3d</fix>
</trkpt>
<trkpt lat="40.0728922" lon="-105.2308824">
  <ele>1595.13</ele>
  <time>2026-08-28T19:11:57Z</time>
  <course>258.2</course>
  <speed>0.03</speed>
  <fix>3d</fix>
</trkpt>
<trkpt lat="40.0728922" lon="-105.2308822">
  <ele>1595.22</ele>
  <time>2026-08-28T19:11:57Z</time>
  <course>325.29</course>
  <speed>0.01</speed>
  <fix>3d</fix>
</trkpt>
<trkpt lat="40.0728922" lon="-105.2308824">
  <ele>1595.13</ele>
  <time>2026-08-28T19:11:57Z</time>
  <course>262.53</course>
  <speed>0.03</speed>
  <fix>3d</fix>
</trkpt>
<trkpt lat="40.0728922" lon="-105.2308823">
  <ele>1595.22</ele>
  <time>2026-08-28T19:11:57Z</time>
  <course>325.4</course>
  <speed>0.02</speed>
  <fix>3d</fix>
</trkpt>
<trkpt lat="40.0728922" lon="-105.2308825">
  <ele>1595.13</ele>
  <time>2026-08-28T19:11:57Z</time>
  <course>265.0</course>
  <speed>0.03</speed>
  <fix>3d</fix>
</trkpt>
<trkpt lat="40.0728922" lon="-105.2308824">
  <ele>1595.22</ele>
  <time>2026-08-28T19:11:57Z</time>
  <course>325.44</course>
  <speed>0.02</speed>
  <fix>3d</fix>
</trkpt>
<trkpt lat="40.0728922" lon="-105.2308826">
  <ele>1595.13</ele>
  <time>2026-08-28T19:11:57Z</time>
  <course>266.68</course>
  <speed>0.04</speed>
  <fix>3d</fix>
</trkpt>
<trkpt lat="40.0728922" lon="-105.2308825">
  <ele>1595.22</ele>
  <time>2026-08-28T19:11:57Z</time>
  <course>325.46</course>
  <speed>0.02</speed>
  <fix>3d</fix>
</trkpt>
<trkpt lat="40.0728922" lon="-105.2308827">
  <ele>1595.13</ele>
  <time>2026-08-28T19:11:57Z</time>
  <course>267.8</course>
  <speed>0.04</speed>
  <fix>3d</fix>
</trkpt>
<trkpt lat="40.0728922" lon="-105.2308826">
  <ele>1595.22</ele>
  <time>2026-08-28T19:11:57Z</time>
  <course>325.46</course>
  <speed>0.02</speed>
  <fix>3d</fix>
</trkpt>
<trkpt lat="40.0728922" lon="-105.2308828">
  <ele>1595.13</ele>
  <time>2026-08-28T19:11:57Z</time>
  <course>268.2</course>
  <speed>0.04</speed>
  <fix>3d</fix>
</trkpt>
<trkpt lat="40.0728922" lon="-105.2308827">
  <ele>1595.23</ele>
  <time>2026-08-28T19:11:57Z</time>
  <course>325.47</course>
  <speed>0.03</speed>
  <fix>3d</fix>
</trkpt>
<trkpt lat="40.0728922" lon="-105.2308829">
  <ele>1595.13</ele>
  <time>2026-08-28T19:11:57Z</time>
  <course>268.17</course>
  <speed>0.04</speed>
  <fix>3d</fix>
</trkpt>
<trkpt lat="40.0728922" lon="-105.2308829">
  <ele>1595.23</ele>
  <time>2026-08-28T19:11:57Z</time>
  <course>325.49</course>
  <speed>0.03</speed>
  <fix>3d</fix>
</trkpt>
<trkpt lat="40.0728922" lon="-105.230883">
  <ele>1595.13</ele>
  <time>2026-08-28T19:11:57Z</time>
  <course>268.19</course>
  <speed>0.04</speed>
  <fix>3d</fix>
</trkpt>
<trkpt lat="40.0728922" lon="-105.230883">
  <ele>1595.24</ele>
  <time>2026-08-28T19:11:57Z</time>
  <course>325.5</course>
  <speed>0.03</speed>
  <fix>3d</fix>
</trkpt>
<trkpt lat="40.0728922" lon="-105.2308831">
  <ele>1595.13</ele>
  <time>2026-08-28T19:11:57Z</time>
  <course>268.2</course>
  <speed>0.04</speed>
  <fix>3d</fix>
</trkpt>
<trkpt lat="40.0728922" lon="-105.2308831">
  <ele>1595.24</ele>
  <time>2026-08-28T19:11:57Z</time>
  <course>325.51</course>
  <speed>0.03</speed>
  <fix>3d</fix>
</trkpt>
<trkpt lat="40.0728922" lon="-105.2308833">
  <ele>1595.12</ele>
  <time>2026-08-28T19:11:57Z</time>
  <course>268.42</course>
  <speed>0.04</speed>
  <fix>3d</fix>
</trkpt>
<trkpt lat="40.0728922" lon="-105.2308832">
  <ele>1595.23</ele>
  <time>2026-08-28T19:11:57Z</time>
  <course>325.49</course>
  <speed>0.03</speed>
  <fix>3d</fix>
</trkpt>
<trkpt lat="40.0728922" lon="-105.2308834">
  <ele>1595.12</ele>
  <time>2026-08-28T19:11:57Z</time>
  <course>268.95</course>
  <speed>0.04</speed>
  <fix>3d</fix>
</trkpt>
<trkpt lat="40.0728922" lon="-105.2308833">
  <ele>1595.23</ele>
  <time>2026-08-28T19:11:57Z</time>
  <course>325.5</course>
  <speed>0.03</speed>
  <fix>3d</fix>
</trkpt>
<trkpt lat="40.0728922" lon="-105.2308835">
  <ele>1595.12</ele>
  <time>2026-08-28T19:11:57Z</time>
  <course>269.35</course>
  <speed>0.05</speed>
  <fix>3d</fix>
</trkpt>
<trkpt lat="40.0728922" lon="-105.2308835">
  <ele>1595.23</ele>
  <time>2026-08-28T19:11:57Z</time>
  <course>325.49</course>
  <speed>0.03</speed>
  <fix>3d</fix>
</trkpt>
<trkpt lat="40.0728922" lon="-105.2308836">
  <ele>1595.11</ele>
  <time>2026-08-28T19:11:57Z</time>
  <course>269.74</course>
  <speed>0.05</speed>
  <fix>3d</fix>
</trkpt>
<trkpt lat="40.0728922" lon="-105.2308836">
  <ele>1595.22</ele>
  <time>2026-08-28T19:11:57Z</time>
  <course>325.48</course>
  <speed>0.03</speed>
  <fix>3d</fix>
</trkpt>
<trkpt lat="40.0728922" lon="-105.2308837">
  <ele>1595.11</ele>
  <time>2026-08-28T19:11:57Z</time>
  <course>270.45</course>
  <speed>0.05</speed>
  <fix>3d</fix>
</trkpt>
<trkpt lat="40.0728922" lon="-105.2308837">
  <ele>1595.21</ele>
  <time>2026-08-28T19:11:57Z</time>
  <course>322.66</course>
  <speed>0.022360679774997897</speed>
  <fix>3d</fix>
</trkpt>
<trkpt lat="40.0728922" lon="-105.2308839">
  <ele>1595.11</ele>
  <time>2026-08-28T19:11:57Z</time>
  <course>279.88</course>
  <speed>0.04</speed>
  <fix>3d</fix>
</trkpt>
<trkpt lat="40.0728922" lon="-105.2308838">
  <ele>1595.21</ele>
  <time>2026-08-28T19:11:57Z</time>
  <course>323.72</course>
  <speed>0.05099019513592785</speed>
  <fix>3d</fix>
</trkpt>
<trkpt lat="40.0728922" lon="-105.230884">
  <ele>1595.11</ele>
  <time>2026-08-28T19:11:57Z</time>
  <course>270.92</course>
  <speed>0.04</speed>
  <fix>3d</fix>
</trkpt>
<trkpt lat="40.0728922" lon="-105.230884">
  <ele>1595.21</ele>
  <time>2026-08-28T19:11:57Z</time>
  <course>329.44</course>
  <speed>0.02</speed>
  <fix>3d</fix>
</trkpt>
<trkpt lat="40.0728921" lon="-105.2308841">
  <ele>1595.11</ele>
  <time>2026-08-28T19:11:57Z</time>
  <course>256.46</course>
  <speed>0.05</speed>
  <fix>3d</fix>
</trkpt>
<trkpt lat="40.0728922" lon="-105.230884">
  <ele>1595.21</ele>
  <time>2026-08-28T19:11:57Z</time>
  <course>323.88</course>
  <speed>0.01</speed>
  <fix>3d</fix>
</trkpt>
<trkpt lat="40.0728921" lon="-105.2308842">
  <ele>1595.11</ele>
  <time>2026-08-28T19:11:57Z</time>
  <course>272.66</course>
  <speed>0.02</speed>
  <fix>3d</fix>
</trkpt>
<trkpt lat="40.0728922" lon="-105.2308841">
  <ele>1595.22</ele>
  <time>2026-08-28T19:11:57Z</time>
  <course>322.91</course>
  <speed>0.03605551275463989</speed>
  <fix>3d</fix>
</trkpt>
<trkpt lat="40.0728921" lon="-105.2308843">
  <ele>1595.11</ele>
  <time>2026-08-28T19:11:57Z</time>
  <course>274.77</course>
  <speed>0.02</speed>
  <fix>3d</fix>
</trkpt>
<trkpt lat="40.0728922" lon="-105.2308842">
  <ele>1595.23</ele>
  <time>2026-08-28T19:11:57Z</time>
  <course>329.33</course>
  <speed>0.022360679774997897</speed>
  <fix>3d</fix>
</trkpt>
<trkpt lat="40.0728921" lon="-105.2308843">
  <ele>1595.11</ele>
  <time>2026-08-28T19:11:57Z</time>
  <course>244.98</course>
  <speed>0.04</speed>
  <fix>3d</fix>
</trkpt>
<trkpt lat="40.0728922" lon="-105.2308842">
  <ele>1595.23</ele>
  <time>2026-08-28T19:11:57Z</time>
  <course>324.6</course>
  <speed>0.01414213562373095</speed>
  <fix>3d</fix>
</trkpt>
<trkpt lat="40.0728921" lon="-105.2308844">
  <ele>1595.11</ele>
  <time>2026-08-28T19:11:57Z</time>
  <course>258.41</course>
  <speed>0.01</speed>
  <fix>3d</fix>
</trkpt>
<trkpt lat="40.0728922" lon="-105.2308843">
  <ele>1595.23</ele>
  <time>2026-08-28T19:11:57Z</time>
  <course>322.46</course>
  <speed>0.0282842712474619</speed>
  <fix>3d</fix>
</trkpt>
<trkpt lat="40.0728921" lon="-105.2308845">
  <ele>1595.1</ele>
  <time>2026-08-28T19:11:57Z</time>
  <course>281.46</course>
  <speed>0.0</speed>
  <fix>3d</fix>
</trkpt>
<trkpt lat="40.0728921" lon="-105.2308844">
  <ele>1595.23</ele>
  <time>2026-08-28T19:11:57Z</time>
  <course>329.11</course>
  <speed>0.022360679774997897</speed>
  <fix>3d</fix>
</trkpt>
<trkpt lat="40.0728921" lon="-105.2308845">
  <ele>1595.1</ele>
  <time>2026-08-28T19:11:57Z</time>
  <course>238.55</course>
  <speed>0.03</speed>
  <fix>3d</fix>
</trkpt>
<trkpt lat="40.0728921" lon="-105.2308844">
  <ele>1595.23</ele>
  <time>2026-08-28T19:11:57Z</time>
  <course>325.32</course>
  <speed>0.022360679774997897</speed>
  <fix>3d</fix>
</trkpt>
<trkpt lat="40.0728921" lon="-105.2308846">
  <ele>1595.1</ele>
  <time>2026-08-28T19:11:57Z</time>
  <course>244.99</course>
  <speed>0.01</speed>
  <fix>3d</fix>
</trkpt>
<trkpt lat="40.0728921" lon="-105.2308844">
  <ele>1595.23</ele>
  <time>2026-08-28T19:11:57Z</time>
  <course>322.04</course>
  <speed>0.0282842712474619</speed>
  <fix>3d</fix>
</trkpt>
<trkpt lat="40.0728921" lon="-105.2308846">
  <ele>1595.1</ele>
  <time>2026-08-28T19:11:57Z</time>
  <course>318.83</course>
  <speed>0.0</speed>
  <fix>3d</fix>
</trkpt>
<trkpt lat="40.0728921" lon="-105.2308845">
  <ele>1595.23</ele>
  <time>2026-08-28T19:11:57Z</time>
  <course>328.8</course>
  <speed>0.022360679774997897</speed>
  <fix>3d</fix>
</trkpt>
<trkpt lat="40.072892" lon="-105.2308846">
  <ele>1595.09</ele>
  <time>2026-08-28T19:11:57Z</time>
  <course>234.12</course>
  <speed>0.03</speed>
  <fix>3d</fix>
</trkpt>
<trkpt lat="40.0728921" lon="-105.2308845">
  <ele>1595.23</ele>
  <time>2026-08-28T19:11:57Z</time>
  <course>325.96</course>
  <speed>0.022360679774997897</speed>
  <fix>3d</fix>
</trkpt>
<trkpt lat="40.0728919" lon="-105.2308846">
  <ele>1595.09</ele>
  <time>2026-08-28T19:11:57Z</time>
  <course>234.31</course>
  <speed>0.01</speed>
  <fix>3d</fix>
</trkpt>
<trkpt lat="40.0728921" lon="-105.2308845">
  <ele>1595.22</ele>
  <time>2026-08-28T19:11:57Z</time>
  <course>321.79</course>
  <speed>0.01414213562373095</speed>
  <fix>3d</fix>
</trkpt>
<trkpt lat="40.0728919" lon="-105.2308846">
  <ele>1595.09</ele>
  <time>2026-08-28T19:11:57Z</time>
  <course>47.74</course>
  <speed>0.0</speed>
  <fix>3d</fix>
</trkpt>
<trkpt lat="40.072892" lon="-105.2308846">
  <ele>1595.22</ele>
  <time>2026-08-28T19:11:57Z</time>
  <course>328.37</course>
  <speed>0.0282842712474619</speed>
  <fix>3d</fix>
</trkpt>
<trkpt lat="40.0728919" lon="-105.2308846">
  <ele>1595.09</ele>
  <time>2026-08-28T19:11:57Z</time>
  <course>229.8</course>
  <speed>0.02</speed>
  <fix>3d</fix>
</trkpt>
<trkpt lat="40.072892" lon="-105.2308846">
  <ele>1595.21</ele>
  <time>2026-08-28T19:11:57Z</time>
  <course>326.62</course>
  <speed>0.02</speed>
  <fix>3d</fix>
</trkpt>
<trkpt lat="40.0728919" lon="-105.2308847">
  <ele>1595.08</ele>
  <time>2026-08-28T19:11:57Z</time>
  <course>226.93</course>
  <speed>0.01</speed>
  <fix>3d</fix>
</trkpt>
<trkpt lat="40.072892" lon="-105.2308846">
  <ele>1595.21</ele>
  <time>2026-08-28T19:11:57Z</time>
  <course>321.6</course>
  <speed>0.01</speed>
  <fix>3d</fix>
</trkpt>
<trkpt lat="40.0728919" lon="-105.2308847">
  <ele>1595.08</ele>
  <time>2026-08-28T19:11:57Z</time>
  <course>73.27</course>
  <speed>0.0</speed>
  <fix>3d</fix>
</trkpt>
<trkpt lat="40.0728919" lon="-105.2308846">
  <ele>1595.21</ele>
  <time>2026-08-28T19:11:57Z</time>
  <course>327.82</course>
  <speed>0.0282842712474619</speed>
  <fix>3d</fix>
</trkpt>
<trkpt lat="40.0728919" lon="-105.2308847">
  <ele>1595.08</ele>
  <time>2026-08-28T19:11:57Z</time>
  <course>225.75</course>
  <speed>0.02</speed>
  <fix>3d</fix>
</trkpt>
<trkpt lat="40.0728919" lon="-105.2308847">
  <ele>1595.21</ele>
  <time>2026-08-28T19:11:57Z</time>
  <course>327.24</course>
  <speed>0.02</speed>
  <fix>3d</fix>
</trkpt>
<trkpt lat="40.0728918" lon="-105.2308848">
  <ele>1595.08</ele>
  <time>2026-08-28T19:11:57Z</time>
  <course>223.08</course>
  <speed>0.02</speed>
  <fix>3d</fix>
</trkpt>
<trkpt lat="40.0728919" lon="-105.2308846">
  <ele>1595.21</ele>
  <time>2026-08-28T19:11:57Z</time>
  <course>321.51</course>
  <speed>0.01</speed>
  <fix>3d</fix>
</trkpt>
<trkpt lat="40.0728918" lon="-105.2308848">
  <ele>1595.08</ele>
  <time>2026-08-28T19:11:57Z</time>
  <course>88.45</course>
  <speed>0.0</speed>
  <fix>3d</fix>
</trkpt>
<trkpt lat="40.0728919" lon="-105.2308847">
  <ele>1595.21</ele>
  <time>2026-08-28T19:11:57Z</time>
  <course>327.21</course>
  <speed>0.04242640687119285</speed>
  <fix>3d</fix>
</trkpt>
<trkpt lat="40.0728918" lon="-105.2308848">
  <ele>1595.08</ele>
  <time>2026-08-28T19:11:57Z</time>
  <course>220.49</course>
  <speed>0.02</speed>
  <fix>3d</fix>
</trkpt>
<trkpt lat="40.0728918" lon="-105.2308847">
  <ele>1595.2</ele>
  <time>2026-08-28T19:11:57Z</time>
  <course>327.82</course>
  <speed>0.02</speed>
  <fix>3d</fix>
</trkpt>
<trkpt lat="40.0728918" lon="-105.2308848">
  <ele>1595.09</ele>
  <time>2026-08-28T19:11:57Z</time>
  <course>219.31</course>
  <speed>0.02</speed>
  <fix>3d</fix>
</trkpt>
<trkpt lat="40.0728918" lon="-105.2308847">
  <ele>1595.21</ele>
  <time>2026-08-28T19:11:57Z</time>
  <course>321.57</course>
  <speed>0.01</speed>
  <fix>3d</fix>
</trkpt>
<trkpt lat="40.0728918" lon="-105.2308848">
  <ele>1595.09</ele>
  <time>2026-08-28T19:11:57Z</time>
  <course>101.09</course>
  <speed>0.0</speed>
  <fix>3d</fix>
</trkpt>
<trkpt lat="40.0728918" lon="-105.2308848">
  <ele>1595.21</ele>
  <time>2026-08-28T19:11:57Z</time>
  <course>326.61</course>
  <speed>0.04242640687119285</speed>
  <fix>3d</fix>
</trkpt>
<trkpt lat="40.0728918" lon="-105.2308848">
  <ele>1595.09</ele>
  <time>2026-08-28T19:11:57Z</time>
  <course>214.49</course>
  <speed>0.02</speed>
  <fix>3d</fix>
</trkpt>
<trkpt lat="40.0728918" lon="-105.2308848">
  <ele>1595.21</ele>
  <time>2026-08-28T19:11:57Z</time>
  <course>328.32</course>
  <speed>0.01</speed>
  <fix>3d</fix>
</trkpt>
<trkpt lat="40.0728918" lon="-105.2308849">
  <ele>1595.09</ele>
  <time>2026-08-28T19:11:57Z</time>
  <course>217.41</course>
  <speed>0.02</speed>
  <fix>3d</fix>
</trkpt>
<trkpt lat="40.0728918" lon="-105.2308848">
  <ele>1595.21</ele>
  <time>2026-08-28T19:11:57Z</time>
  <course>321.75</course>
  <speed>0.0</speed>
  <fix>3d</fix>
</trkpt>
<trkpt lat="40.0728918" lon="-105.2308849">
  <ele>1595.1</ele>
  <time>2026-08-28T19:11:57Z</time>
  <course>108.46</course>
  <speed>0.0</speed>
  <fix>3d</fix>
</trkpt>
<trkpt lat="40.0728917" lon="-105.2308848">
  <ele>1595.21</ele>
  <time>2026-08-28T19:11:57Z</time>
  <course>325.95</course>
  <speed>0.04242640687119285</speed>
  <fix>3d</fix>
</trkpt>
<trkpt lat="40.0728917" lon="-105.2308848">
  <ele>1595.1</ele>
  <time>2026-08-28T19:11:57Z</time>
  <course>208.94</course>
  <speed>0.01</speed>
  <fix>3d</fix>
</trkpt>
<trkpt lat="40.0728917" lon="-105.2308848">
  <ele>1595.21</ele>
  <time>2026-08-28T19:11:57Z</time>
  <course>328.75</course>
  <speed>0.01</speed>
  <fix>3d</fix>
</trkpt>
<trkpt lat="40.0728917" lon="-105.2308849">
  <ele>1595.1</ele>
  <time>2026-08-28T19:11:57Z</time>
  <course>217.22</course>
  <speed>0.03</speed>
  <fix>3d</fix>
</trkpt>
<trkpt lat="40.0728917" lon="-105.2308848">
  <ele>1595.2</ele>
  <time>2026-08-28T19:11:57Z</time>
  <course>322.04</course>
  <speed>0.0</speed>
  <fix>3d</fix>
</trkpt>
<trkpt lat="40.0728917" lon="-105.230885">
  <ele>1595.1</ele>
  <time>2026-08-28T19:11:57Z</time>
  <course>116.26</course>
  <speed>0.0</speed>
  <fix>3d</fix>
</trkpt>
<trkpt lat="40.0728917" lon="-105.2308849">
  <ele>1595.2</ele>
  <time>2026-08-28T19:11:57Z</time>
  <course>325.24</course>
  <speed>0.04242640687119285</speed>
  <fix>3d</fix>
</trkpt>
<trkpt lat="40.0728917" lon="-105.230885">
  <ele>1595.1</ele>
  <time>2026-08-28T19:11:57Z</time>
  <course>198.06</course>
  <speed>0.01</speed>
  <fix>3d</fix>
</trkpt>
<trkpt lat="40.0728916" lon="-105.2308849">
  <ele>1595.2</ele>
  <time>2026-08-28T19:11:57Z</time>
  <course>329.08</course>
  <speed>0.0</speed>
  <fix>3d</fix>
</trkpt>
<trkpt lat="40.0728916" lon="-105.230885">
  <ele>1595.1</ele>
  <time>2026-08-28T19:11:57Z</time>
  <course>214.47</course>
  <speed>0.03</speed>
  <fix>3d</fix>
</trkpt>
<trkpt lat="40.0728917" lon="-105.2308849">
  <ele>1595.21</ele>
  <time>2026-08-28T19:11:57Z</time>
  <course>322.43</course>
  <speed>0.01</speed>
  <fix>3d</fix>
</trkpt>
<trkpt lat="40.0728916" lon="-105.230885">
  <ele>1595.11</ele>
  <time>2026-08-28T19:11:57Z</time>
  <course>128.69</course>
  <speed>0.0</speed>
  <fix>3d</fix>
</trkpt>
<trkpt lat="40.0728916" lon="-105.2308849">
  <ele>1595.21</ele>
  <time>2026-08-28T19:11:57Z</time>
  <course>324.59</course>
  <speed>0.04242640687119285</speed>
  <fix>3d</fix>
</trkpt>
<trkpt lat="40.0728916" lon="-105.230885">
  <ele>1595.11</ele>
  <time>2026-08-28T19:11:57Z</time>
  <course>182.57</course>
  <speed>0.01</speed>
  <fix>3d</fix>
</trkpt>
<trkpt lat="40.0728916" lon="-105.230885">
  <ele>1595.22</ele>
  <time>2026-08-28T19:11:57Z</time>
  <course>329.31</course>
  <speed>0.0</speed>
  <fix>3d</fix>
</trkpt>
<trkpt lat="40.0728915" lon="-105.230885">
  <ele>1595.11</ele>
  <time>2026-08-28T19:11:57Z</time>
  <course>211.99</course>
  <speed>0.03</speed>
  <fix>3d</fix>
</trkpt>
<trkpt lat="40.0728916" lon="-105.2308849">
  <ele>1595.23</ele>
  <time>2026-08-28T19:11:57Z</time>
  <course>322.92</course>
  <speed>0.01</speed>
  <fix>3d</fix>
</trkpt>
<trkpt lat="40.0728915" lon="-105.230885">
  <ele>1595.12</ele>
  <time>2026-08-28T19:11:57Z</time>
  <course>139.92</course>
  <speed>0.01</speed>
  <fix>3d</fix>
</trkpt>
<trkpt lat="40.0728915" lon="-105.2308849">
  <ele>1595.23</ele>
  <time>2026-08-28T19:11:57Z</time>
  <course>323.98</course>
  <speed>0.04242640687119285</speed>
  <fix>3d</fix>
</trkpt>
<trkpt lat="40.0728915" lon="-105.230885">
  <ele>1595.12</ele>
  <time>2026-08-28T19:11:57Z</time>
  <course>164.39</course>
  <speed>0.01</speed>
  <fix>3d</fix>
</trkpt>
<trkpt lat="40.0728915" lon="-105.230885">
  <ele>1595.23</ele>
  <time>2026-08-28T19:11:57Z</time>
  <course>329.45</course>
  <speed>0.01</speed>
  <fix>3d</fix>
</trkpt>
<trkpt lat="40.0728914" lon="-105.230885">
  <ele>1595.12</ele>
  <time>2026-08-28T19:11:57Z</time>
  <course>210.18</course>
  <speed>0.03</speed>
  <fix>3d</fix>
</trkpt>
<trkpt lat="40.0728915" lon="-105.2308849">
  <ele>1595.22</ele>
  <time>2026-08-28T19:11:57Z</time>
  <course>323.49</course>
  <speed>0.02</speed>
  <fix>3d</fix>
</trkpt>
<trkpt lat="40.0728913" lon="-105.2308851">
  <ele>1595.12</ele>
  <time>2026-08-28T19:11:57Z</time>
  <course>146.64</course>
  <speed>0.01</speed>
  <fix>3d</fix>
</trkpt>
<trkpt lat="40.0728914" lon="-105.2308849">
  <ele>1595.21</ele>
  <time>2026-08-28T19:11:57Z</time>
  <course>323.36</course>
  <speed>0.03605551275463989</speed>
  <fix>3d</fix>
</trkpt>
<trkpt lat="40.0728913" lon="-105.230885">
  <ele>1595.12</ele>
  <time>2026-08-28T19:11:57Z</time>
  <course>145.39</course>
  <speed>0.01</speed>
  <fix>3d</fix>
</trkpt>
<trkpt lat="40.0728914" lon="-105.230885">
  <ele>1595.21</ele>
  <time>2026-08-28T19:11:57Z</time>
  <course>329.38</course>
  <speed>0.01</speed>
  <fix>3d</fix>
</trkpt>
<trkpt lat="40.0728913" lon="-105.230885">
  <ele>1595.12</ele>
  <time>2026-08-28T19:11:57Z</time>
  <course>208.98</course>
  <speed>0.03</speed>
  <fix>3d</fix>
</trkpt>
<trkpt lat="40.0728914" lon="-105.230885">
  <ele>1595.2</ele>
  <time>2026-08-28T19:11:57Z</time>
  <course>324.11</course>
  <speed>0.02</speed>
  <fix>3d</fix>
</trkpt>
<trkpt lat="40.0728913" lon="-105.2308851">
  <ele>1595.12</ele>
  <time>2026-08-28T19:11:57Z</time>
  <course>157.34</course>
  <speed>0.01</speed>
  <fix>3d</fix>
</trkpt>
<trkpt lat="40.0728913" lon="-105.230885">
  <ele>1595.2</ele>
  <time>2026-08-28T19:11:57Z</time>
  <course>322.75</course>
  <speed>0.0282842712474619</speed>
  <fix>3d</fix>
</trkpt>
<trkpt lat="40.0728912" lon="-105.230885">
  <ele>1595.12</ele>
  <time>2026-08-28T19:11:57Z</time>
  <course>131.88</course>
  <speed>0.01</speed>
  <fix>3d</fix>
</trkpt>
<trkpt lat="40.0728913" lon="-105.230885">
  <ele>1595.2</ele>
  <time>2026-08-28T19:11:57Z</time>
  <course>329.25</course>
  <speed>0.01414213562373095</speed>
  <fix>3d</fix>
</trkpt>
<trkpt lat="40.0728912" lon="-105.230885">
  <ele>1595.12</ele>
  <time>2026-08-28T19:11:57Z</time>
  <course>206.81</course>
  <speed>0.03</speed>
  <fix>3d</fix>
</trkpt>
<trkpt lat="40.0728913" lon="-105.230885">
  <ele>1595.21</ele>
  <time>2026-08-28T19:11:57Z</time>
  <course>325.1</course>
  <speed>0.01</speed>
  <fix>3d</fix>
</trkpt>
<trkpt lat="40.0728912" lon="-105.2308851">
  <ele>1595.12</ele>
  <time>2026-08-28T19:11:57Z</time>
  <course>172.48</course>
  <speed>0.01</speed>
  <fix>3d</fix>
</trkpt>
<trkpt lat="40.0728913" lon="-105.230885">
  <ele>1595.22</ele>
  <time>2026-08-28T19:11:57Z</time>
  <course>321.82</course>
  <speed>0.0</speed>
  <fix>3d</fix>
</trkpt>
<trkpt lat="40.0728912" lon="-105.2308851">
  <ele>1595.12</ele>
  <time>2026-08-28T19:11:57Z</time>
  <course>100.54</course>
  <speed>0.01</speed>
  <fix>3d</fix>
</trkpt>
<trkpt lat="40.0728912" lon="-105.230885">
  <ele>1595.21</ele>
  <time>2026-08-28T19:11:57Z</time>
  <course>321.61</course>
  <speed>0.01</speed>
  <fix>3d</fix>
</trkpt>
<trkpt lat="40.0728912" lon="-105.2308851">
  <ele>1595.12</ele>
  <time>2026-08-28T19:11:57Z</time>
  <course>166.69</course>
  <speed>0.01</speed>
  <fix>3d</fix>
</trkpt>
<trkpt lat="40.0728912" lon="-105.230885">
  <ele>1595.16</ele>
  <time>2026-08-28T19:11:57Z</time>
  <course>322.51</course>
  <speed>0.01414213562373095</speed>
  <fix>3d</fix>
</trkpt>
<trkpt lat="40.0728912" lon="-105.2308851">
  <ele>1595.1</ele>
  <time>2026-08-28T19:11:57Z</time>
  <course>196.4</course>
  <speed>0.01</speed>
  <fix>3d</fix>
</trkpt>
<trkpt lat="40.0728912" lon="-105.230885">
  <ele>1595.02</ele>
  <time>2026-08-28T19:11:57Z</time>
  <course>323.82</course>
  <speed>0.03605551275463989</speed>
  <fix>3d</fix>
</trkpt>
<trkpt lat="40.0728912" lon="-105.2308851">
  <ele>1595.03</ele>
  <time>2026-08-28T19:11:57Z</time>
  <course>209.57</course>
  <speed>0.01</speed>
  <fix>3d</fix>
</trkpt>
<trkpt lat="40.0728911" lon="-105.2308852">
  <ele>1594.58</ele>
  <time>2026-08-28T19:11:57Z</time>
  <course>325.17</course>
  <speed>0.1</speed>
  <fix>3d</fix>
</trkpt>
<trkpt lat="40.0728911" lon="-105.2308851">
  <ele>1594.8</ele>
  <time>2026-08-28T19:11:57Z</time>
  <course>225.1</course>
  <speed>0.05</speed>
  <fix>3d</fix>
</trkpt>
<trkpt lat="40.072891" lon="-105.2308854">
  <ele>1593.87</ele>
  <time>2026-08-28T19:11:57Z</time>
  <course>326.54</course>
  <speed>0.14422205101855956</speed>
  <fix>3d</fix>
</trkpt>
<trkpt lat="40.072891" lon="-105.2308852">
  <ele>1594.3</ele>
  <time>2026-08-28T19:11:57Z</time>
  <course>228.59</course>
  <speed>0.11</speed>
  <fix>3d</fix>
</trkpt>
<trkpt lat="40.0728908" lon="-105.2308857">
  <ele>1592.98</ele>
  <time>2026-08-28T19:11:57Z</time>
  <course>328.39</course>
  <speed>0.15264337522473748</speed>
  <fix>3d</fix>
</trkpt>
<trkpt lat="40.0728908" lon="-105.2308855">
  <ele>1593.53</ele>
  <time>2026-08-28T19:11:57Z</time>
  <course>230.43</course>
  <speed>0.14</speed>
  <fix>3d</fix>
</trkpt>
<trkpt lat="40.0728907" lon="-105.230886">
  <ele>1591.96</ele>
  <time>2026-08-28T19:11:57Z</time>
  <course>330.93</course>
  <speed>0.13892443989449804</speed>
  <fix>3d</fix>
</trkpt>
<trkpt lat="40.0728907" lon="-105.2308857">
  <ele>1592.6</ele>
  <time>2026-08-28T19:11:57Z</time>
  <course>232.27</course>
  <speed>0.15</speed>
  <fix>3d</fix>
</trkpt>
<trkpt lat="40.0728905" lon="-105.2308862">
  <ele>1590.85</ele>
  <time>2026-08-28T19:11:57Z</time>
  <course>333.35</course>
  <speed>0.12083045973594572</speed>
  <fix>3d</fix>
</trkpt>
<trkpt lat="40.0728905" lon="-105.230886">
  <ele>1591.56</ele>
  <time>2026-08-28T19:11:57Z</time>
  <course>234.85</course>
  <speed>0.14</speed>
  <fix>3d</fix>
</trkpt>
<trkpt lat="40.0728904" lon="-105.2308865">
  <ele>1589.68</ele>
  <time>2026-08-28T19:11:57Z</time>
  <course>335.36</course>
  <speed>0.1044030650891055</speed>
  <fix>3d</fix>
</trkpt>
<trkpt lat="40.0728904" lon="-105.2308863">
  <ele>1590.45</ele>
  <time>2026-08-28T19:11:57Z</time>
  <course>239.14</course>
  <speed>0.12</speed>
  <fix>3d</fix>
</trkpt>
<trkpt lat="40.0728904" lon="-105.2308867">
  <ele>1588.49</ele>
  <time>2026-08-28T19:11:57Z</time>
  <course>337.09</course>
  <speed>0.09055385138137417</speed>
  <fix>3d</fix>
</trkpt>
<trkpt lat="40.0728903" lon="-105.2308865">
  <ele>1589.31</ele>
  <time>2026-08-28T19:11:57Z</time>
  <course>246.19</course>
  <speed>0.1</speed>
  <fix>3d</fix>
</trkpt>
<trkpt lat="40.0728903" lon="-105.2308869">
  <ele>1587.29</ele>
  <time>2026-08-28T19:11:57Z</time>
  <course>338.63</course>
  <speed>0.08</speed>
  <fix>3d</fix>
</trkpt>
<trkpt lat="40.0728902" lon="-105.2308868">
  <ele>1588.13</ele>
  <time>2026-08-28T19:11:57Z</time>
  <course>257.34</course>
  <speed>0.08</speed>
  <fix>3d</fix>
</trkpt>
<trkpt lat="40.0728903" lon="-105.2308871">
  <ele>1586.08</ele>
  <time>2026-08-28T19:11:57Z</time>
  <course>340.06</course>
  <speed>0.07615773105863909</speed>
  <fix>3d</fix>
</trkpt>
<trkpt lat="40.0728901" lon="-105.230887">
  <ele>1586.94</ele>
  <time>2026-08-28T19:11:57Z</time>
  <course>273.35</course>
  <speed>0.07</speed>
  <fix>3d</fix>
</trkpt>
<trkpt lat="40.0728903" lon="-105.2308872">
  <ele>1585.46</ele>
  <time>2026-08-28T19:11:57Z</time>
  <course>340.38</course>
  <speed>0.01</speed>
  <fix>3d</fix>
</trkpt>
<trkpt lat="40.0728902" lon="-105.2308871">
  <ele>1585.87</ele>
  <time>2026-08-28T19:11:57Z</time>
  <course>277.44</course>
  <speed>0.05</speed>
  <fix>3d</fix>
</trkpt>
<trkpt lat="40.0728903" lon="-105.2308871">
  <ele>1585.8</ele>
  <time>2026-08-28T19:11:57Z</time>
  <course>340.49</course>
  <speed>0.01</speed>
  <fix>3d</fix>
</trkpt>
<trkpt lat="40.0728903" lon="-105.2308872">
  <ele>1585.51</ele>
  <time>2026-08-28T19:11:57Z</time>
  <course>230.16</course>
  <speed>0.0</speed>
  <fix>3d</fix>
</trkpt>
<trkpt lat="40.0728903" lon="-105.2308871">
  <ele>1585.82</ele>
  <time>2026-08-28T19:11:57Z</time>
  <course>340.51</course>
  <speed>0.0</speed>
  <fix>3d</fix>
</trkpt>
<trkpt lat="40.0728903" lon="-105.2308872">
  <ele>1585.7</ele>
  <time>2026-08-28T19:11:57Z</time>
  <course>107.26</course>
  <speed>0.01</speed>
  <fix>3d</fix>
</trkpt>
<trkpt lat="40.0728903" lon="-105.2308872">
  <ele>1585.77</ele>
  <time>2026-08-28T19:11:57Z</time>
  <course>340.46</course>
  <speed>0.0</speed>
  <fix>3d</fix>
</trkpt>
<trkpt lat="40.0728903" lon="-105.2308872">
  <ele>1585.74</ele>
  <time>2026-08-28T19:11:57Z</time>
  <course>44.45</course>
  <speed>0.0</speed>
  <fix>3d</fix>
</trkpt>
<trkpt lat="40.0728903" lon="-105.2308872">
  <ele>1585.77</ele>
  <time>2026-08-28T19:11:57Z</time>
  <course>340.41</course>
  <speed>0.0</speed>
  <fix>3d</fix>
</trkpt>
<trkpt lat="40.0728903" lon="-105.2308872">
  <ele>1585.71</ele>
  <time>2026-08-28T19:11:57Z</time>
  <course>12.41</course>
  <speed>0.0</speed>
  <fix>3d</fix>
</trkpt>
<trkpt lat="40.0728903" lon="-105.2308872">
  <ele>1585.78</ele>
  <time>2026-08-28T19:11:57Z</time>
  <course>340.37</course>
  <speed>0.0</speed>
  <fix>3d</fix>
</trkpt>
<trkpt lat="40.0728903" lon="-105.2308872">
  <ele>1585.71</ele>
  <time>2026-08-28T19:11:57Z</time>
  <course>77.8</course>
  <speed>0.0</speed>
  <fix>3d</fix>
</trkpt>
<trkpt lat="40.0728903" lon="-105.2308872">
  <ele>1585.78</ele>
  <time>2026-08-28T19:11:57Z</time>
  <course>340.32</course>
  <speed>0.0</speed>
  <fix>3d</fix>
</trkpt>
<trkpt lat="40.0728903" lon="-105.2308872">
  <ele>1585.72</ele>
  <time>2026-08-28T19:11:57Z</time>
  <course>70.58</course>
  <speed>0.0</speed>
  <fix>3d</fix>
</trkpt>
<trkpt lat="40.0728903" lon="-105.2308872">
  <ele>1585.78</ele>
  <time>2026-08-28T19:11:57Z</time>
  <course>340.27</course>
  <speed>0.0</speed>
  <fix>3d</fix>
</trkpt>
<trkpt lat="40.0728903" lon="-105.2308872">
  <ele>1585.72</ele>
  <time>2026-08-28T19:11:57Z</time>
  <course>64.08</course>
  <speed>0.0</speed>
  <fix>3d</fix>
</trkpt>
<trkpt lat="40.0728903" lon="-105.2308872">
  <ele>1585.79</ele>
  <time>2026-08-28T19:11:57Z</time>
  <course>340.23</course>
  <speed>0.0</speed>
  <fix>3d</fix>
</trkpt>
<trkpt lat="40.0728903" lon="-105.2308872">
  <ele>1585.72</ele>
  <time>2026-08-28T19:11:57Z</time>
  <course>66.14</course>
  <speed>0.0</speed>
  <fix>3d</fix>
</trkpt>
<trkpt lat="40.0728903" lon="-105.2308872">
  <ele>1585.79</ele>
  <time>2026-08-28T19:11:57Z</time>
  <course>340.19</course>
  <speed>0.01</speed>
  <fix>3d</fix>
</trkpt>
<trkpt lat="40.0728903" lon="-105.2308872">
  <ele>1585.72</ele>
  <time>2026-08-28T19:11:57Z</time>
  <course>67.17</course>
  <speed>0.0</speed>
  <fix>3d</fix>
</trkpt>
<trkpt lat="40.0728903" lon="-105.2308872">
  <ele>1585.79</ele>
  <time>2026-08-28T19:11:57Z</time>
  <course>340.14</course>
  <speed>0.01</speed>
  <fix>3d</fix>
</trkpt>
<trkpt lat="40.0728903" lon="-105.2308872">
  <ele>1585.72</ele>
  <time>2026-08-28T19:11:57Z</time>
  <course>66.5</course>
  <speed>0.0</speed>
  <fix>3d</fix>
</trkpt>
<trkpt lat="40.0728903" lon="-105.2308872">
  <ele>1585.79</ele>
  <time>2026-08-28T19:11:57Z</time>
  <course>340.1</course>
  <speed>0.01</speed>
  <fix>3d</fix>
</trkpt>
<trkpt lat="40.0728903" lon="-105.2308872">
  <ele>1585.72</ele>
  <time>2026-08-28T19:11:57Z</time>
  <course>66.41</course>
  <speed>0.0</speed>
  <fix>3d</fix>
</trkpt>
<trkpt lat="40.0728903" lon="-105.2308872">
  <ele>1585.8</ele>
  <time>2026-08-28T19:11:57Z</time>
  <course>340.06</course>
  <speed>0.01</speed>
  <fix>3d</fix>
</trkpt>
<trkpt lat="40.0728903" lon="-105.2308872">
  <ele>1585.72</ele>
  <time>2026-08-28T19:11:57Z</time>
  <course>66.49</course>
  <speed>0.0</speed>
  <fix>3d</fix>
</trkpt>
<trkpt lat="40.0728903" lon="-105.2308872">
  <ele>1585.8</ele>
  <time>2026-08-28T19:11:57Z</time>
  <course>340.02</course>
  <speed>0.01</speed>
  <fix>3d</fix>
</trkpt>
<trkpt lat="40.0728903" lon="-105.2308872">
  <ele>1585.72</ele>
  <time>2026-08-28T19:11:57Z</time>
  <course>66.27</course>
  <speed>0.0</speed>
  <fix>3d</fix>
</trkpt>
<trkpt lat="40.0728903" lon="-105.2308872">
  <ele>1585.8</ele>
  <time>2026-08-28T19:11:57Z</time>
  <course>339.99</course>
  <speed>0.01</speed>
  <fix>3d</fix>
</trkpt>
<trkpt lat="40.0728903" lon="-105.2308872">
  <ele>1585.72</ele>
  <time>2026-08-28T19:11:57Z</time>
  <course>66.04</course>
  <speed>0.0</speed>
  <fix>3d</fix>
</trkpt>
<trkpt lat="40.0728903" lon="-105.2308872">
  <ele>1585.8</ele>
  <time>2026-08-28T19:11:57Z</time>
  <course>339.95</course>
  <speed>0.01</speed>
  <fix>3d</fix>
</trkpt>
<trkpt lat="40.0728903" lon="-105.2308872">
  <ele>1585.72</ele>
  <time>2026-08-28T19:11:57Z</time>
  <course>65.95</course>
  <speed>0.0</speed>
  <fix>3d</fix>
</trkpt>
<trkpt lat="40.0728903" lon="-105.2308872">
  <ele>1585.8</ele>
  <time>2026-08-28T19:11:57Z</time>
  <course>339.91</course>
  <speed>0.01</speed>
  <fix>3d</fix>
</trkpt>
<trkpt lat="40.0728903" lon="-105.2308872">
  <ele>1585.72</ele>
  <time>2026-08-28T19:11:57Z</time>
  <course>67.33</course>
  <speed>0.0</speed>
  <fix>3d</fix>
</trkpt>
<trkpt lat="40.0728903" lon="-105.2308872">
  <ele>1585.8</ele>
  <time>2026-08-28T19:11:57Z</time>
  <course>339.86</course>
  <speed>0.01</speed>
  <fix>3d</fix>
</trkpt>
<trkpt lat="40.0728903" lon="-105.2308872">
  <ele>1585.72</ele>
  <time>2026-08-28T19:11:57Z</time>
  <course>67.39</course>
  <speed>0.0</speed>
  <fix>3d</fix>
</trkpt>
<trkpt lat="40.0728903" lon="-105.2308872">
  <ele>1585.8</ele>
  <time>2026-08-28T19:11:57Z</time>
  <course>339.81</course>
  <speed>0.01</speed>
  <fix>3d</fix>
</trkpt>
<trkpt lat="40.0728903" lon="-105.2308872">
  <ele>1585.72</ele>
  <time>2026-08-28T19:11:57Z</time>
  <course>66.87</course>
  <speed>0.0</speed>
  <fix>3d</fix>
</trkpt>
<trkpt lat="40.0728903" lon="-105.2308873">
  <ele>1585.8</ele>
  <time>2026-08-28T19:11:57Z</time>
  <course>339.77</course>
  <speed>0.01</speed>
  <fix>3d</fix>
</trkpt>
<trkpt lat="40.0728903" lon="-105.2308872">
  <ele>1585.72</ele>
  <time>2026-08-28T19:11:57Z</time>
  <course>249.2</course>
  <speed>0.0</speed>
  <fix>3d</fix>
</trkpt>
<trkpt lat="40.0728903" lon="-105.2308873">
  <ele>1585.8</ele>
  <time>2026-08-28T19:11:57Z</time>
  <course>339.72</course>
  <speed>0.01</speed>
  <fix>3d</fix>
</trkpt>
<trkpt lat="40.0728903" lon="-105.2308872">
  <ele>1585.72</ele>
  <time>2026-08-28T19:11:57Z</time>
  <course>255.31</course>
  <speed>0.0</speed>
  <fix>3d</fix>
</trkpt>
<trkpt lat="40.0728903" lon="-105.2308873">
  <ele>1585.8</ele>
  <time>2026-08-28T19:11:57Z</time>
  <course>339.68</course>
  <speed>0.01</speed>
  <fix>3d</fix>
</trkpt>
<trkpt lat="40.0728903" lon="-105.2308872">
  <ele>1585.72</ele>
  <time>2026-08-28T19:11:57Z</time>
  <course>36.81</course>
  <speed>0.0</speed>
  <fix>3d</fix>
</trkpt>
<trkpt lat="40.0728903" lon="-105.2308873">
  <ele>1585.8</ele>
  <time>2026-08-28T19:11:57Z</time>
  <course>339.64</course>
  <speed>0.01</speed>
  <fix>3d</fix>
</trkpt>
<trkpt lat="40.0728903" lon="-105.2308872">
  <ele>1585.72</ele>
  <time>2026-08-28T19:11:57Z</time>
  <course>269.0</course>
  <speed>0.0</speed>
  <fix>3d</fix>
</trkpt>
<trkpt lat="40.0728903" lon="-105.2308873">
  <ele>1585.79</ele>
  <time>2026-08-28T19:11:57Z</time>
  <course>339.6</course>
  <speed>0.01</speed>
  <fix>3d</fix>
</trkpt>
<trkpt lat="40.0728903" lon="-105.2308872">
  <ele>1585.72</ele>
  <time>2026-08-28T19:11:57Z</time>
  <course>267.16</course>
  <speed>0.0</speed>
  <fix>3d</fix>
</trkpt>
<trkpt lat="40.0728903" lon="-105.2308873">
  <ele>1585.79</ele>
  <time>2026-08-28T19:11:57Z</time>
  <course>339.57</course>
  <speed>0.01</speed>
  <fix>3d</fix>
</trkpt>
<trkpt lat="40.0728903" lon="-105.2308872">
  <ele>1585.72</ele>
  <time>2026-08-28T19:11:57Z</time>
  <course>276.45</course>
  <speed>0.0</speed>
  <fix>3d</fix>
</trkpt>
<trkpt lat="40.0728903" lon="-105.2308873">
  <ele>1585.79</ele>
  <time>2026-08-28T19:11:57Z</time>
  <course>339.53</course>
  <speed>0.01</speed>
  <fix>3d</fix>
</trkpt>
<trkpt lat="40.0728903" lon="-105.2308872">
  <ele>1585.72</ele>
  <time>2026-08-28T19:11:57Z</time>
  <course>280.47</course>
  <speed>0.0</speed>
  <fix>3d</fix>
</trkpt>
<trkpt lat="40.0728903" lon="-105.2308873">
  <ele>1585.79</ele>
  <time>2026-08-28T19:11:57Z</time>
  <course>339.49</course>
  <speed>0.01</speed>
  <fix>3d</fix>
</trkpt>
<trkpt lat="40.0728903" lon="-105.2308872">
  <ele>1585.72</ele>
  <time>2026-08-28T19:11:57Z</time>
  <course>283.11</course>
  <speed>0.0</speed>
  <fix>3d</fix>
</trkpt>
<trkpt lat="40.0728903" lon="-105.2308873">
  <ele>1585.8</ele>
  <time>2026-08-28T19:11:57Z</time>
  <course>339.46</course>
  <speed>0.01</speed>
  <fix>3d</fix>
</trkpt>
<trkpt lat="40.0728903" lon="-105.2308872">
  <ele>1585.72</ele>
  <time>2026-08-28T19:11:57Z</time>
  <course>287.95</course>
  <speed>0.0</speed>
  <fix>3d</fix>
</trkpt>
<trkpt lat="40.0728903" lon="-105.2308873">
  <ele>1585.8</ele>
  <time>2026-08-28T19:11:57Z</time>
  <course>339.43</course>
  <speed>0.01</speed>
  <fix>3d</fix>
</trkpt>
<trkpt lat="40.0728903" lon="-105.2308872">
  <ele>1585.72</ele>
  <time>2026-08-28T19:11:57Z</time>
  <course>293.31</course>
  <speed>0.0</speed>
  <fix>3d</fix>
</trkpt>
<trkpt lat="40.0728903" lon="-105.2308873">
  <ele>1585.8</ele>
  <time>2026-08-28T19:11:57Z</time>
  <course>339.39</course>
  <speed>0.01</speed>
  <fix>3d</fix>
</trkpt>
<trkpt lat="40.0728903" lon="-105.2308872">
  <ele>1585.72</ele>
  <time>2026-08-28T19:11:57Z</time>
  <course>298.67</course>
  <speed>0.0</speed>
  <fix>3d</fix>
</trkpt>
<trkpt lat="40.0728903" lon="-105.2308873">
  <ele>1585.8</ele>
  <time>2026-08-28T19:11:57Z</time>
  <course>339.36</course>
  <speed>0.01</speed>
  <fix>3d</fix>
</trkpt>
<trkpt lat="40.0728903" lon="-105.2308872">
  <ele>1585.72</ele>
  <time>2026-08-28T19:11:57Z</time>
  <course>304.34</course>
  <speed>0.0</speed>
  <fix>3d</fix>
</trkpt>
<trkpt lat="40.0728903" lon="-105.2308873">
  <ele>1585.8</ele>
  <time>2026-08-28T19:11:57Z</time>
  <course>339.33</course>
  <speed>0.01</speed>
  <fix>3d</fix>
</trkpt>
<trkpt lat="40.0728903" lon="-105.2308872">
  <ele>1585.72</ele>
  <time>2026-08-28T19:11:57Z</time>
  <course>310.23</course>
  <speed>0.0</speed>
  <fix>3d</fix>
</trkpt>
<trkpt lat="40.0728903" lon="-105.2308873">
  <ele>1585.8</ele>
  <time>2026-08-28T19:11:57Z</time>
  <course>339.3</course>
  <speed>0.01</speed>
  <fix>3d</fix>
</trkpt>
<trkpt lat="40.0728903" lon="-105.2308872">
  <ele>1585.72</ele>
  <time>2026-08-28T19:11:57Z</time>
  <course>316.13</course>
  <speed>0.0</speed>
  <fix>3d</fix>
</trkpt>
<trkpt lat="40.0728903" lon="-105.2308873">
  <ele>1585.8</ele>
  <time>2026-08-28T19:11:57Z</time>
  <course>339.28</course>
  <speed>0.01</speed>
  <fix>3d</fix>
</trkpt>
<trkpt lat="40.0728903" lon="-105.2308872">
  <ele>1585.72</ele>
  <time>2026-08-28T19:11:57Z</time>
  <course>321.89</course>
  <speed>0.0</speed>
  <fix>3d</fix>
</trkpt>
<trkpt lat="40.0728903" lon="-105.2308873">
  <ele>1585.8</ele>
  <time>2026-08-28T19:11:57Z</time>
  <course>339.25</course>
  <speed>0.01</speed>
  <fix>3d</fix>
</trkpt>
<trkpt lat="40.0728903" lon="-105.2308872">
  <ele>1585.72</ele>
  <time>2026-08-28T19:11:57Z</time>
  <course>149.11</course>
  <speed>0.0</speed>
  <fix>3d</fix>
</trkpt>
<trkpt lat="40.0728903" lon="-105.2308873">
  <ele>1585.8</ele>
  <time>2026-08-28T19:11:57Z</time>
  <course>339.22</course>
  <speed>0.01</speed>
  <fix>3d</fix>
</trkpt>
<trkpt lat="40.0728903" lon="-105.2308872">
  <ele>1585.72</ele>
  <time>2026-08-28T19:11:57Z</time>
  <course>126.33</course>
  <speed>0.0</speed>
  <fix>3d</fix>
</trkpt>
<trkpt lat="40.0728903" lon="-105.2308873">
  <ele>1585.8</ele>
  <time>2026-08-28T19:11:57Z</time>
  <course>339.2</course>
  <speed>0.01</speed>
  <fix>3d</fix>
</trkpt>
<trkpt lat="40.0728903" lon="-105.2308872">
  <ele>1585.72</ele>
  <time>2026-08-28T19:11:57Z</time>
  <course>78.05</course>
  <speed>0.0</speed>
  <fix>3d</fix>
</trkpt>
<trkpt lat="40.0728903" lon="-105.2308873">
  <ele>1585.8</ele>
  <time>2026-08-28T19:11:57Z</time>
  <course>339.17</course>
  <speed>0.01</speed>
  <fix>3d</fix>
</trkpt>
<trkpt lat="40.0728903" lon="-105.2308872">
  <ele>1585.72</ele>
  <time>2026-08-28T19:11:57Z</time>
  <course>315.39</course>
  <speed>0.0</speed>
  <fix>3d</fix>
</trkpt>
<trkpt lat="40.0728903" lon="-105.2308873">
  <ele>1585.8</ele>
  <time>2026-08-28T19:11:57Z</time>
  <course>339.15</course>
  <speed>0.01</speed>
  <fix>3d</fix>
</trkpt>
<trkpt lat="40.0728903" lon="-105.2308872">
  <ele>1585.72</ele>
  <time>2026-08-28T19:11:57Z</time>
  <course>332.77</course>
  <speed>0.0</speed>
  <fix>3d</fix>
</trkpt>
<trkpt lat="40.0728903" lon="-105.2308873">
  <ele>1585.8</ele>
  <time>2026-08-28T19:11:57Z</time>
  <course>339.12</course>
  <speed>0.01</speed>
  <fix>3d</fix>
</trkpt>
<trkpt lat="40.0728903" lon="-105.2308872">
  <ele>1585.72</ele>
  <time>2026-08-28T19:11:57Z</time>
  <course>34.6</course>
  <speed>0.0</speed>
  <fix>3d</fix>
</trkpt>
<trkpt lat="40.0728903" lon="-105.2308873">
  <ele>1585.8</ele>
  <time>2026-08-28T19:11:57Z</time>
  <course>339.1</course>
  <speed>0.01</speed>
  <fix>3d</fix>
</trkpt>
<trkpt lat="40.0728903" lon="-105.2308872">
  <ele>1585.72</ele>
  <time>2026-08-28T19:11:57Z</time>
  <course>10.88</course>
  <speed>0.0</speed>
  <fix>3d</fix>
</trkpt>
<trkpt lat="40.0728903" lon="-105.2308873">
  <ele>1585.8</ele>
  <time>2026-08-28T19:11:57Z</time>
  <course>339.08</course>
  <speed>0.01</speed>
  <fix>3d</fix>
</trkpt>
<trkpt lat="40.0728903" lon="-105.2308872">
  <ele>1585.72</ele>
  <time>2026-08-28T19:11:57Z</time>
  <course>10.95</course>
  <speed>0.0</speed>
  <fix>3d</fix>
</trkpt>
<trkpt lat="40.0728903" lon="-105.2308873">
  <ele>1585.8</ele>
  <time>2026-08-28T19:11:57Z</time>
  <course>339.06</course>
  <speed>0.01</speed>
  <fix>3d</fix>
</trkpt>
<trkpt lat="40.0728903" lon="-105.2308872">
  <ele>1585.72</ele>
  <time>2026-08-28T19:11:57Z</time>
  <course>17.05</course>
  <speed>0.0</speed>
  <fix>3d</fix>
</trkpt>
<trkpt lat="40.0728903" lon="-105.2308873">
  <ele>1585.8</ele>
  <time>2026-08-28T19:11:57Z</time>
  <course>339.04</course>
  <speed>0.01</speed>
  <fix>3d</fix>
</trkpt>
<trkpt lat="40.0728903" lon="-105.2308872">
  <ele>1585.72</ele>
  <time>2026-08-28T19:11:57Z</time>
  <course>19.15</course>
  <speed>0.0</speed>
  <fix>3d</fix>
</trkpt>
<trkpt lat="40.0728903" lon="-105.2308873">
  <ele>1585.8</ele>
  <time>2026-08-28T19:11:57Z</time>
  <course>339.02</course>
  <speed>0.01</speed>
  <fix>3d</fix>
</trkpt>
<trkpt lat="40.0728903" lon="-105.2308872">
  <ele>1585.72</ele>
  <time>2026-08-28T19:11:57Z</time>
  <course>20.57</course>
  <speed>0.0</speed>
  <fix>3d</fix>
</trkpt>
<trkpt lat="40.0728903" lon="-105.2308873">
  <ele>1585.8</ele>
  <time>2026-08-28T19:11:57Z</time>
  <course>339.0</course>
  <speed>0.01</speed>
  <fix>3d</fix>
</trkpt>
<trkpt lat="40.0728903" lon="-105.2308872">
  <ele>1585.72</ele>
  <time>2026-08-28T19:11:57Z</time>
  <course>65.62</course>
  <speed>0.0</speed>
  <fix>3d</fix>
</trkpt>
<trkpt lat="40.0728903" lon="-105.2308873">
  <ele>1585.81</ele>
  <time>2026-08-28T19:11:57Z</time>
  <course>338.98</course>
  <speed>0.01</speed>
  <fix>3d</fix>
</trkpt>
<trkpt lat="40.0728903" lon="-105.2308872">
  <ele>1585.72</ele>
  <time>2026-08-28T19:11:57Z</time>
  <course>57.7</course>
  <speed>0.0</speed>
  <fix>3d</fix>
</trkpt>
<trkpt lat="40.0728903" lon="-105.2308873">
  <ele>1585.81</ele>
  <time>2026-08-28T19:11:57Z</time>
  <course>338.96</course>
  <speed>0.01</speed>
  <fix>3d</fix>
</trkpt>
<trkpt lat="40.0728903" lon="-105.2308872">
  <ele>1585.72</ele>
  <time>2026-08-28T19:11:57Z</time>
  <course>323.19</course>
  <speed>0.0</speed>
  <fix>3d</fix>
</trkpt>
<trkpt lat="40.0728903" lon="-105.2308873">
  <ele>1585.81</ele>
  <time>2026-08-28T19:11:57Z</time>
  <course>338.94</course>
  <speed>0.01</speed>
  <fix>3d</fix>
</trkpt>
<trkpt lat="40.0728903" lon="-105.2308872">
  <ele>1585.72</ele>
  <time>2026-08-28T19:11:57Z</time>
  <course>261.52</course>
  <speed>0.0</speed>
  <fix>3d</fix>
</trkpt>
<trkpt lat="40.0728903" lon="-105.2308873">
  <ele>1585.81</ele>
  <time>2026-08-28T19:11:57Z</time>
  <course>338.92</course>
  <speed>0.01</speed>
  <fix>3d</fix>
</trkpt>
<trkpt lat="40.0728903" lon="-105.2308872">
  <ele>1585.72</ele>
  <time>2026-08-28T19:11:57Z</time>
  <course>35.23</course>
  <speed>0.0</speed>
  <fix>3d</fix>
</trkpt>
<trkpt lat="40.0728903" lon="-105.2308873">
  <ele>1585.81</ele>
  <time>2026-08-28T19:11:57Z</time>
  <course>338.91</course>
  <speed>0.01</speed>
  <fix>3d</fix>
</trkpt>
<trkpt lat="40.0728903" lon="-105.2308872">
  <ele>1585.72</ele>
  <time>2026-08-28T19:11:57Z</time>
  <course>21.95</course>
  <speed>0.0</speed>
  <fix>3d</fix>
</trkpt>
<trkpt lat="40.0728903" lon="-105.2308873">
  <ele>1585.8</ele>
  <time>2026-08-28T19:11:57Z</time>
  <course>338.89</course>
  <speed>0.01</speed>
  <fix>3d</fix>
</trkpt>
<trkpt lat="40.0728903" lon="-105.2308872">
  <ele>1585.72</ele>
  <time>2026-08-28T19:11:57Z</time>
  <course>15.86</course>
  <speed>0.0</speed>
  <fix>3d</fix>
</trkpt>
<trkpt lat="40.0728903" lon="-105.2308873">
  <ele>1585.8</ele>
  <time>2026-08-28T19:11:57Z</time>
  <course>338.87</course>
  <speed>0.01</speed>
  <fix>3d</fix>
</trkpt>
<trkpt lat="40.0728903" lon="-105.2308872">
  <ele>1585.72</ele>
  <time>2026-08-28T19:11:57Z</time>
  <course>19.79</course>
  <speed>0.0</speed>
  <fix>3d</fix>
</trkpt>
<trkpt lat="40.0728903" lon="-105.2308873">
  <ele>1585.8</ele>
  <time>2026-08-28T19:11:58Z</time>
  <course>338.85</course>
  <speed>0.01</speed>
  <fix>3d</fix>
</trkpt>
<trkpt lat="40.0728903" lon="-105.2308872">
  <ele>1585.72</ele>
  <time>2026-08-28T19:11:58Z</time>
  <course>21.2</course>
  <speed>0.0</speed>
  <fix>3d</fix>
</trkpt>
<trkpt lat="40.0728903" lon="-105.2308873">
  <ele>1585.8</ele>
  <time>2026-08-28T19:11:58Z</time>
  <course>338.84</course>
  <speed>0.01</speed>
  <fix>3d</fix>
</trkpt>
<trkpt lat="40.0728903" lon="-105.2308872">
  <ele>1585.72</ele>
  <time>2026-08-28T19:11:58Z</time>
  <course>21.59</course>
  <speed>0.0</speed>
  <fix>3d</fix>
</trkpt>
<trkpt lat="40.0728903" lon="-105.2308873">
  <ele>1585.8</ele>
  <time>2026-08-28T19:11:58Z</time>
  <course>338.82</course>
  <speed>0.01</speed>
  <fix>3d</fix>
</trkpt>
<trkpt lat="40.0728903" lon="-105.2308872">
  <ele>1585.72</ele>
  <time>2026-08-28T19:11:58Z</time>
  <course>22.41</course>
  <speed>0.0</speed>
  <fix>3d</fix>
</trkpt>
<trkpt lat="40.0728903" lon="-105.2308873">
  <ele>1585.79</ele>
  <time>2026-08-28T19:11:58Z</time>
  <course>338.81</course>
  <speed>0.01</speed>
  <fix>3d</fix>
</trkpt>
<trkpt lat="40.0728903" lon="-105.2308872">
  <ele>1585.72</ele>
  <time>2026-08-28T19:11:58Z</time>
  <course>23.31</course>
  <speed>0.0</speed>
  <fix>3d</fix>
</trkpt>
<trkpt lat="40.0728903" lon="-105.2308873">
  <ele>1585.79</ele>
  <time>2026-08-28T19:11:58Z</time>
  <course>338.79</course>
  <speed>0.01</speed>
  <fix>3d</fix>
</trkpt>
<trkpt lat="40.0728903" lon="-105.2308872">
  <ele>1585.72</ele>
  <time>2026-08-28T19:11:58Z</time>
  <course>24.15</course>
  <speed>0.0</speed>
  <fix>3d</fix>
</trkpt>
<trkpt lat="40.0728903" lon="-105.2308873">
  <ele>1585.79</ele>
  <time>2026-08-28T19:11:58Z</time>
  <course>338.8</course>
  <speed>0.01</speed>
  <fix>3d</fix>
</trkpt>
<trkpt lat="40.0728903" lon="-105.2308872">
  <ele>1585.72</ele>
  <time>2026-08-28T19:11:58Z</time>
  <course>24.98</course>
  <speed>0.0</speed>
  <fix>3d</fix>
</trkpt>
<trkpt lat="40.0728903" lon="-105.2308873">
  <ele>1585.79</ele>
  <time>2026-08-28T19:11:58Z</time>
  <course>338.97</course>
  <speed>0.01414213562373095</speed>
  <fix>3d</fix>
</trkpt>
<trkpt lat="40.0728903" lon="-105.2308872">
  <ele>1585.72</ele>
  <time>2026-08-28T19:11:58Z</time>
  <course>35.48</course>
  <speed>0.0</speed>
  <fix>3d</fix>
</trkpt>
<trkpt lat="40.0728903" lon="-105.2308873">
  <ele>1585.79</ele>
  <time>2026-08-28T19:11:58Z</time>
  <course>339.16</course>
  <speed>0.01</speed>
  <fix>3d</fix>
</trkpt>
<trkpt lat="40.0728903" lon="-105.2308872">
  <ele>1585.72</ele>
  <time>2026-08-28T19:11:58Z</time>
  <course>25.49</course>
  <speed>0.0</speed>
  <fix>3d</fix>
</trkpt>
<trkpt lat="40.0728903" lon="-105.2308873">
  <ele>1585.79</ele>
  <time>2026-08-28T19:11:58Z</time>
  <course>339.33</course>
  <speed>0.01</speed>
  <fix>3d</fix>
</trkpt>
<trkpt lat="40.0728903" lon="-105.2308872">
  <ele>1585.72</ele>
  <time>2026-08-28T19:11:58Z</time>
  <course>234.78</course>
  <speed>0.0</speed>
  <fix>3d</fix>
</trkpt>
<trkpt lat="40.0728903" lon="-105.2308873">
  <ele>1585.79</ele>
  <time>2026-08-28T19:11:58Z</time>
  <course>339.49</course>
  <speed>0.01</speed>
  <fix>3d</fix>
</trkpt>
<trkpt lat="40.0728903" lon="-105.2308872">
  <ele>1585.72</ele>
  <time>2026-08-28T19:11:58Z</time>
  <course>206.92</course>
  <speed>0.0</speed>
  <fix>3d</fix>
</trkpt>
<trkpt lat="40.0728903" lon="-105.2308873">
  <ele>1585.79</ele>
  <time>2026-08-28T19:11:58Z</time>
  <course>339.65</course>
  <speed>0.01</speed>
  <fix>3d</fix>
</trkpt>
<trkpt lat="40.0728903" lon="-105.2308872">
  <ele>1585.72</ele>
  <time>2026-08-28T19:11:58Z</time>
  <course>208.35</course>
  <speed>0.0</speed>
  <fix>3d</fix>
</trkpt>
<trkpt lat="40.0728903" lon="-105.2308873">
  <ele>1585.8</ele>
  <time>2026-08-28T19:11:58Z</time>
  <course>339.8</course>
  <speed>0.01</speed>
  <fix>3d</fix>
</trkpt>
<trkpt lat="40.0728903" lon="-105.2308872">
  <ele>1585.72</ele>
  <time>2026-08-28T19:11:58Z</time>
  <course>210.53</course>
  <speed>0.0</speed>
  <fix>3d</fix>
</trkpt>
<trkpt lat="40.0728903" lon="-105.2308873">
  <ele>1585.8</ele>
  <time>2026-08-28T19:11:58Z</time>
  <course>339.95</course>
  <speed>0.01</speed>
  <fix>3d</fix>
</trkpt>
<trkpt lat="40.0728903" lon="-105.2308872">
  <ele>1585.72</ele>
  <time>2026-08-28T19:11:58Z</time>
  <course>204.55</course>
  <speed>0.0</speed>
  <fix>3d</fix>
</trkpt>
<trkpt lat="40.0728903" lon="-105.2308873">
  <ele>1585.8</ele>
  <time>2026-08-28T19:11:58Z</time>
  <course>340.08</course>
  <speed>0.01</speed>
  <fix>3d</fix>
</trkpt>
<trkpt lat="40.0728903" lon="-105.2308872">
  <ele>1585.72</ele>
  <time>2026-08-28T19:11:58Z</time>
  <course>193.55</course>
  <speed>0.0</speed>
  <fix>3d</fix>
</trkpt>
<trkpt lat="40.0728903" lon="-105.2308873">
  <ele>1585.8</ele>
  <time>2026-08-28T19:11:58Z</time>
  <course>340.22</course>
  <speed>0.01</speed>
  <fix>3d</fix>
</trkpt>
<trkpt lat="40.0728903" lon="-105.2308872">
  <ele>1585.72</ele>
  <time>2026-08-28T19:11:58Z</time>
  <course>173.92</course>
  <speed>0.0</speed>
  <fix>3d</fix>
</trkpt>
<trkpt lat="40.0728903" lon="-105.2308873">
  <ele>1585.8</ele>
  <time>2026-08-28T19:11:58Z</time>
  <course>340.35</course>
  <speed>0.01</speed>
  <fix>3d</fix>
</trkpt>
<trkpt lat="40.0728903" lon="-105.2308872">
  <ele>1585.72</ele>
  <time>2026-08-28T19:11:58Z</time>
  <course>222.9</course>
  <speed>0.0</speed>
  <fix>3d</fix>
</trkpt>
<trkpt lat="40.0728903" lon="-105.2308873">
  <ele>1585.81</ele>
  <time>2026-08-28T19:11:58Z</time>
  <course>340.47</course>
  <speed>0.01</speed>
  <fix>3d</fix>
</trkpt>
<trkpt lat="40.0728903" lon="-105.2308872">
  <ele>1585.72</ele>
  <time>2026-08-28T19:11:58Z</time>
  <course>231.45</course>
  <speed>0.0</speed>
  <fix>3d</fix>
</trkpt>
<trkpt lat="40.0728903" lon="-105.2308873">
  <ele>1585.81</ele>
  <time>2026-08-28T19:11:58Z</time>
  <course>340.59</course>
  <speed>0.01</speed>
  <fix>3d</fix>
</trkpt>
<trkpt lat="40.0728903" lon="-105.2308872">
  <ele>1585.72</ele>
  <time>2026-08-28T19:11:58Z</time>
  <course>311.24</course>
  <speed>0.0</speed>
  <fix>3d</fix>
</trkpt>
<trkpt lat="40.0728903" lon="-105.2308873">
  <ele>1585.81</ele>
  <time>2026-08-28T19:11:58Z</time>
  <course>340.7</course>
  <speed>0.0</speed>
  <fix>3d</fix>
</trkpt>
<trkpt lat="40.0728903" lon="-105.2308872">
  <ele>1585.72</ele>
  <time>2026-08-28T19:11:58Z</time>
  <course>108.09</course>
  <speed>0.0</speed>
  <fix>3d</fix>
</trkpt>
<trkpt lat="40.0728903" lon="-105.2308873">
  <ele>1585.81</ele>
  <time>2026-08-28T19:11:58Z</time>
  <course>340.81</course>
  <speed>0.0</speed>
  <fix>3d</fix>
</trkpt>
<trkpt lat="40.0728903" lon="-105.2308872">
  <ele>1585.72</ele>
  <time>2026-08-28T19:11:58Z</time>
  <course>128.97</course>
  <speed>0.0</speed>
  <fix>3d</fix>
</trkpt>
<trkpt lat="40.0728903" lon="-105.2308873">
  <ele>1585.81</ele>
  <time>2026-08-28T19:11:58Z</time>
  <course>340.92</course>
  <speed>0.0</speed>
  <fix>3d</fix>
</trkpt>
<trkpt lat="40.0728903" lon="-105.2308872">
  <ele>1585.72</ele>
  <time>2026-08-28T19:11:58Z</time>
  <course>45.86</course>
  <speed>0.0</speed>
  <fix>3d</fix>
</trkpt>
<trkpt lat="40.0728903" lon="-105.2308873">
  <ele>1585.81</ele>
  <time>2026-08-28T19:11:58Z</time>
  <course>341.02</course>
  <speed>0.0</speed>
  <fix>3d</fix>
</trkpt>
<trkpt lat="40.0728903" lon="-105.2308872">
  <ele>1585.72</ele>
  <time>2026-08-28T19:11:58Z</time>
  <course>279.98</course>
  <speed>0.0</speed>
  <fix>3d</fix>
</trkpt>
<trkpt lat="40.0728903" lon="-105.2308873">
  <ele>1585.81</ele>
  <time>2026-08-28T19:11:58Z</time>
  <course>341.12</course>
  <speed>0.0</speed>
  <fix>3d</fix>
</trkpt>
<trkpt lat="40.0728903" lon="-105.2308872">
  <ele>1585.72</ele>
  <time>2026-08-28T19:11:58Z</time>
  <course>172.58</course>
  <speed>0.0</speed>
  <fix>3d</fix>
</trkpt>
<trkpt lat="40.0728903" lon="-105.2308873">
  <ele>1585.81</ele>
  <time>2026-08-28T19:11:58Z</time>
  <course>341.22</course>
  <speed>0.0</speed>
  <fix>3d</fix>
</trkpt>
<trkpt lat="40.0728903" lon="-105.2308872">
  <ele>1585.72</ele>
  <time>2026-08-28T19:11:58Z</time>
  <course>161.36</course>
  <speed>0.0</speed>
  <fix>3d</fix>
</trkpt>
<trkpt lat="40.0728903" lon="-105.2308873">
  <ele>1585.81</ele>
  <time>2026-08-28T19:11:58Z</time>
  <course>341.32</course>
  <speed>0.0</speed>
  <fix>3d</fix>
</trkpt>
<trkpt lat="40.0728903" lon="-105.2308872">
  <ele>1585.72</ele>
  <time>2026-08-28T19:11:58Z</time>
  <course>182.95</course>
  <speed>0.0</speed>
  <fix>3d</fix>
</trkpt>
<trkpt lat="40.0728903" lon="-105.2308873">
  <ele>1585.81</ele>
  <time>2026-08-28T19:11:58Z</time>
  <course>341.41</course>
  <speed>0.0</speed>
  <fix>3d</fix>
</trkpt>
<trkpt lat="40.0728903" lon="-105.2308872">
  <ele>1585.72</ele>
  <time>2026-08-28T19:11:58Z</time>
  <course>181.27</course>
  <speed>0.0</speed>
  <fix>3d</fix>
</trkpt>
<trkpt lat="40.0728903" lon="-105.2308873">
  <ele>1585.81</ele>
  <time>2026-08-28T19:11:58Z</time>
  <course>341.5</course>
  <speed>0.01</speed>
  <fix>3d</fix>
</trkpt>
<trkpt lat="40.0728903" lon="-105.2308872">
  <ele>1585.72</ele>
  <time>2026-08-28T19:11:58Z</time>
  <course>178.11</course>
  <speed>0.0</speed>
  <fix>3d</fix>
</trkpt>
<trkpt lat="40.0728903" lon="-105.2308873">
  <ele>1585.81</ele>
  <time>2026-08-28T19:11:58Z</time>
  <course>341.58</course>
  <speed>0.01</speed>
  <fix>3d</fix>
</trkpt>
<trkpt lat="40.0728903" lon="-105.2308872">
  <ele>1585.72</ele>
  <time>2026-08-28T19:11:58Z</time>
  <course>27.29</course>
  <speed>0.0</speed>
  <fix>3d</fix>
</trkpt>
<trkpt lat="40.0728903" lon="-105.2308873">
  <ele>1585.8</ele>
  <time>2026-08-28T19:11:58Z</time>
  <course>341.66</course>
  <speed>0.01</speed>
  <fix>3d</fix>
</trkpt>
<trkpt lat="40.0728903" lon="-105.2308872">
  <ele>1585.72</ele>
  <time>2026-08-28T19:11:58Z</time>
  <course>17.37</course>
  <speed>0.0</speed>
  <fix>3d</fix>
</trkpt>
<trkpt lat="40.0728903" lon="-105.2308873">
  <ele>1585.8</ele>
  <time>2026-08-28T19:11:58Z</time>
  <course>341.74</course>
  <speed>0.01</speed>
  <fix>3d</fix>
</trkpt>
<trkpt lat="40.0728903" lon="-105.2308872">
  <ele>1585.72</ele>
  <time>2026-08-28T19:11:58Z</time>
  <course>14.67</course>
  <speed>0.0</speed>
  <fix>3d</fix>
</trkpt>
<trkpt lat="40.0728903" lon="-105.2308873">
  <ele>1585.81</ele>
  <time>2026-08-28T19:11:58Z</time>
  <course>341.82</course>
  <speed>0.01</speed>
  <fix>3d</fix>
</trkpt>
<trkpt lat="40.0728903" lon="-105.2308872">
  <ele>1585.72</ele>
  <time>2026-08-28T19:11:58Z</time>
  <course>200.61</course>
  <speed>0.0</speed>
  <fix>3d</fix>
</trkpt>
<trkpt lat="40.0728903" lon="-105.2308873">
  <ele>1585.8</ele>
  <time>2026-08-28T19:11:58Z</time>
  <course>341.9</course>
  <speed>0.01</speed>
  <fix>3d</fix>
</trkpt>
<trkpt lat="40.0728903" lon="-105.2308872">
  <ele>1585.72</ele>
  <time>2026-08-28T19:11:58Z</time>
  <course>230.75</course>
  <speed>0.0</speed>
  <fix>3d</fix>
</trkpt>
<trkpt lat="40.0728903" lon="-105.2308873">
  <ele>1585.81</ele>
  <time>2026-08-28T19:11:58Z</time>
  <course>341.97</course>
  <speed>0.01</speed>
  <fix>3d</fix>
</trkpt>
<trkpt lat="40.0728903" lon="-105.2308872">
  <ele>1585.72</ele>
  <time>2026-08-28T19:11:58Z</time>
  <course>149.81</course>
  <speed>0.0</speed>
  <fix>3d</fix>
</trkpt>
<trkpt lat="40.0728903" lon="-105.2308873">
  <ele>1585.81</ele>
  <time>2026-08-28T19:11:58Z</time>
  <course>342.04</course>
  <speed>0.01</speed>
  <fix>3d</fix>
</trkpt>
<trkpt lat="40.0728903" lon="-105.2308872">
  <ele>1585.72</ele>
  <time>2026-08-28T19:11:58Z</time>
  <course>133.8</course>
  <speed>0.0</speed>
  <fix>3d</fix>
</trkpt>
<trkpt lat="40.0728903" lon="-105.2308873">
  <ele>1585.81</ele>
  <time>2026-08-28T19:11:58Z</time>
  <course>342.11</course>
  <speed>0.01</speed>
  <fix>3d</fix>
</trkpt>
<trkpt lat="40.0728903" lon="-105.2308872">
  <ele>1585.72</ele>
  <time>2026-08-28T19:11:58Z</time>
  <course>113.86</course>
  <speed>0.0</speed>
  <fix>3d</fix>
</trkpt>
<trkpt lat="40.0728903" lon="-105.2308873">
  <ele>1585.81</ele>
  <time>2026-08-28T19:11:58Z</time>
  <course>342.18</course>
  <speed>0.01</speed>
  <fix>3d</fix>
</trkpt>
<trkpt lat="40.0728903" lon="-105.2308872">
  <ele>1585.72</ele>
  <time>2026-08-28T19:11:58Z</time>
  <course>96.87</course>
  <speed>0.0</speed>
  <fix>3d</fix>
</trkpt>
<trkpt lat="40.0728903" lon="-105.2308873">
  <ele>1585.81</ele>
  <time>2026-08-28T19:11:58Z</time>
  <course>342.25</course>
  <speed>0.01</speed>
  <fix>3d</fix>
</trkpt>
<trkpt lat="40.0728903" lon="-105.2308872">
  <ele>1585.72</ele>
  <time>2026-08-28T19:11:58Z</time>
  <course>302.86</course>
  <speed>0.0</speed>
  <fix>3d</fix>
</trkpt>
<trkpt lat="40.0728903" lon="-105.2308873">
  <ele>1585.81</ele>
  <time>2026-08-28T19:11:58Z</time>
  <course>342.31</course>
  <speed>0.01</speed>
  <fix>3d</fix>
</trkpt>
<trkpt lat="40.0728903" lon="-105.2308872">
  <ele>1585.72</ele>
  <time>2026-08-28T19:11:58Z</time>
  <course>275.0</course>
  <speed>0.0</speed>
  <fix>3d</fix>
</trkpt>
<trkpt lat="40.0728903" lon="-105.2308873">
  <ele>1585.81</ele>
  <time>2026-08-28T19:11:58Z</time>
  <course>342.37</course>
  <speed>0.01</speed>
  <fix>3d</fix>
</trkpt>
<trkpt lat="40.0728903" lon="-105.2308872">
  <ele>1585.72</ele>
  <time>2026-08-28T19:11:58Z</time>
  <course>169.85</course>
  <speed>0.0</speed>
  <fix>3d</fix>
</trkpt>
<trkpt lat="40.0728903" lon="-105.2308873">
  <ele>1585.81</ele>
  <time>2026-08-28T19:11:58Z</time>
  <course>342.43</course>
  <speed>0.01</speed>
  <fix>3d</fix>
</trkpt>
<trkpt lat="40.0728903" lon="-105.2308872">
  <ele>1585.72</ele>
  <time>2026-08-28T19:11:58Z</time>
  <course>160.21</course>
  <speed>0.0</speed>
  <fix>3d</fix>
</trkpt>
<trkpt lat="40.0728903" lon="-105.2308873">
  <ele>1585.81</ele>
  <time>2026-08-28T19:11:58Z</time>
  <course>342.49</course>
  <speed>0.01</speed>
  <fix>3d</fix>
</trkpt>
<trkpt lat="40.0728903" lon="-105.2308872">
  <ele>1585.72</ele>
  <time>2026-08-28T19:11:58Z</time>
  <course>20.49</course>
  <speed>0.0</speed>
  <fix>3d</fix>
</trkpt>
<trkpt lat="40.0728903" lon="-105.2308873">
  <ele>1585.81</ele>
  <time>2026-08-28T19:11:58Z</time>
  <course>342.55</course>
  <speed>0.01</speed>
  <fix>3d</fix>
</trkpt>
<trkpt lat="40.0728903" lon="-105.2308872">
  <ele>1585.72</ele>
  <time>2026-08-28T19:11:58Z</time>
  <course>342.45</course>
  <speed>0.0</speed>
  <fix>3d</fix>
</trkpt>
<trkpt lat="40.0728903" lon="-105.2308873">
  <ele>1585.81</ele>
  <time>2026-08-28T19:11:58Z</time>
  <course>342.61</course>
  <speed>0.01</speed>
  <fix>3d</fix>
</trkpt>
<trkpt lat="40.0728903" lon="-105.2308872">
  <ele>1585.72</ele>
  <time>2026-08-28T19:11:58Z</time>
  <course>13.3</course>
  <speed>0.0</speed>
  <fix>3d</fix>
</trkpt>
<trkpt lat="40.0728903" lon="-105.2308873">
  <ele>1585.8</ele>
  <time>2026-08-28T19:11:58Z</time>
  <course>342.66</course>
  <speed>0.01</speed>
  <fix>3d</fix>
</trkpt>
<trkpt lat="40.0728903" lon="-105.2308872">
  <ele>1585.72</ele>
  <time>2026-08-28T19:11:58Z</time>
  <course>2.29</course>
  <speed>0.0</speed>
  <fix>3d</fix>
</trkpt>
<trkpt lat="40.0728903" lon="-105.2308873">
  <ele>1585.8</ele>
  <time>2026-08-28T19:11:58Z</time>
  <course>342.72</course>
  <speed>0.01</speed>
  <fix>3d</fix>
</trkpt>
<trkpt lat="40.0728903" lon="-105.2308872">
  <ele>1585.72</ele>
  <time>2026-08-28T19:11:58Z</time>
  <course>285.02</course>
  <speed>0.0</speed>
  <fix>3d</fix>
</trkpt>
<trkpt lat="40.0728903" lon="-105.2308873">
  <ele>1585.8</ele>
  <time>2026-08-28T19:11:58Z</time>
  <course>342.77</course>
  <speed>0.01</speed>
  <fix>3d</fix>
</trkpt>
<trkpt lat="40.0728903" lon="-105.2308872">
  <ele>1585.72</ele>
  <time>2026-08-28T19:11:58Z</time>
  <course>161.62</course>
  <speed>0.0</speed>
  <fix>3d</fix>
</trkpt>
<trkpt lat="40.0728903" lon="-105.2308873">
  <ele>1585.8</ele>
  <time>2026-08-28T19:11:58Z</time>
  <course>342.82</course>
  <speed>0.01</speed>
  <fix>3d</fix>
</trkpt>
<trkpt lat="40.0728903" lon="-105.2308872">
  <ele>1585.72</ele>
  <time>2026-08-28T19:11:58Z</time>
  <course>56.41</course>
  <speed>0.0</speed>
  <fix>3d</fix>
</trkpt>
<trkpt lat="40.0728903" lon="-105.2308873">
  <ele>1585.8</ele>
  <time>2026-08-28T19:11:58Z</time>
  <course>342.86</course>
  <speed>0.01</speed>
  <fix>3d</fix>
</trkpt>
<trkpt lat="40.0728903" lon="-105.2308872">
  <ele>1585.72</ele>
  <time>2026-08-28T19:11:58Z</time>
  <course>34.16</course>
  <speed>0.0</speed>
  <fix>3d</fix>
</trkpt>
<trkpt lat="40.0728903" lon="-105.2308873">
  <ele>1585.8</ele>
  <time>2026-08-28T19:11:58Z</time>
  <course>342.91</course>
  <speed>0.01</speed>
  <fix>3d</fix>
</trkpt>
<trkpt lat="40.0728903" lon="-105.2308872">
  <ele>1585.72</ele>
  <time>2026-08-28T19:11:58Z</time>
  <course>69.81</course>
  <speed>0.0</speed>
  <fix>3d</fix>
</trkpt>
<trkpt lat="40.0728903" lon="-105.2308873">
  <ele>1585.79</ele>
  <time>2026-08-28T19:11:58Z</time>
  <course>342.95</course>
  <speed>0.01</speed>
  <fix>3d</fix>
</trkpt>
<trkpt lat="40.0728903" lon="-105.2308872">
  <ele>1585.72</ele>
  <time>2026-08-28T19:11:58Z</time>
  <course>67.73</course>
  <speed>0.0</speed>
  <fix>3d</fix>
</trkpt>
<trkpt lat="40.0728903" lon="-105.2308873">
  <ele>1585.8</ele>
  <time>2026-08-28T19:11:58Z</time>
  <course>342.98</course>
  <speed>0.01</speed>
  <fix>3d</fix>
</trkpt>
<trkpt lat="40.0728903" lon="-105.2308872">
  <ele>1585.72</ele>
  <time>2026-08-28T19:11:58Z</time>
  <course>66.02</course>
  <speed>0.0</speed>
  <fix>3d</fix>
</trkpt>
<trkpt lat="40.0728903" lon="-105.2308873">
  <ele>1585.79</ele>
  <time>2026-08-28T19:11:58Z</time>
  <course>343.02</course>
  <speed>0.01</speed>
  <fix>3d</fix>
</trkpt>
<trkpt lat="40.0728903" lon="-105.2308872">
  <ele>1585.72</ele>
  <time>2026-08-28T19:11:58Z</time>
  <course>66.53</course>
  <speed>0.0</speed>
  <fix>3d</fix>
</trkpt>
<trkpt lat="40.0728903" lon="-105.2308873">
  <ele>1585.79</ele>
  <time>2026-08-28T19:11:58Z</time>
  <course>343.05</course>
  <speed>0.01</speed>
  <fix>3d</fix>
</trkpt>
<trkpt lat="40.0728903" lon="-105.2308872">
  <ele>1585.72</ele>
  <time>2026-08-28T19:11:58Z</time>
  <course>66.95</course>
  <speed>0.0</speed>
  <fix>3d</fix>
</trkpt>
<trkpt lat="40.0728903" lon="-105.2308873">
  <ele>1585.79</ele>
  <time>2026-08-28T19:11:58Z</time>
  <course>343.08</course>
  <speed>0.01</speed>
  <fix>3d</fix>
</trkpt>
<trkpt lat="40.0728903" lon="-105.2308872">
  <ele>1585.72</ele>
  <time>2026-08-28T19:11:58Z</time>
  <course>67.1</course>
  <speed>0.0</speed>
  <fix>3d</fix>
</trkpt>
<trkpt lat="40.0728903" lon="-105.2308873">
  <ele>1585.79</ele>
  <time>2026-08-28T19:11:58Z</time>
  <course>343.11</course>
  <speed>0.01</speed>
  <fix>3d</fix>
</trkpt>
<trkpt lat="40.0728903" lon="-105.2308872">
  <ele>1585.72</ele>
  <time>2026-08-28T19:11:58Z</time>
  <course>67.11</course>
  <speed>0.0</speed>
  <fix>3d</fix>
</trkpt>
<trkpt lat="40.0728903" lon="-105.2308873">
  <ele>1585.79</ele>
  <time>2026-08-28T19:11:58Z</time>
  <course>343.13</course>
  <speed>0.01</speed>
  <fix>3d</fix>
</trkpt>
<trkpt lat="40.0728903" lon="-105.2308872">
  <ele>1585.72</ele>
  <time>2026-08-28T19:11:58Z</time>
  <course>67.08</course>
  <speed>0.0</speed>
  <fix>3d</fix>
</trkpt>
<trkpt lat="40.0728903" lon="-105.2308873">
  <ele>1585.79</ele>
  <time>2026-08-28T19:11:58Z</time>
  <course>343.15</course>
  <speed>0.01</speed>
  <fix>3d</fix>
</trkpt>
<trkpt lat="40.0728903" lon="-105.2308872">
  <ele>1585.72</ele>
  <time>2026-08-28T19:11:58Z</time>
  <course>67.09</course>
  <speed>0.0</speed>
  <fix>3d</fix>
</trkpt>
<trkpt lat="40.0728903" lon="-105.2308873">
  <ele>1585.79</ele>
  <time>2026-08-28T19:11:58Z</time>
  <course>343.17</course>
  <speed>0.01</speed>
  <fix>3d</fix>
</trkpt>
<trkpt lat="40.0728903" lon="-105.2308872">
  <ele>1585.72</ele>
  <time>2026-08-28T19:11:58Z</time>
  <course>67.16</course>
  <speed>0.0</speed>
  <fix>3d</fix>
</trkpt>
<trkpt lat="40.0728903" lon="-105.2308873">
  <ele>1585.78</ele>
  <time>2026-08-28T19:11:58Z</time>
  <course>343.19</course>
  <speed>0.01</speed>
  <fix>3d</fix>
</trkpt>
<trkpt lat="40.0728903" lon="-105.2308872">
  <ele>1585.72</ele>
  <time>2026-08-28T19:11:58Z</time>
  <course>67.18</course>
  <speed>0.0</speed>
  <fix>3d</fix>
</trkpt>
<trkpt lat="40.0728903" lon="-105.2308873">
  <ele>1585.79</ele>
  <time>2026-08-28T19:11:58Z</time>
  <course>343.2</course>
  <speed>0.01</speed>
  <fix>3d</fix>
</trkpt>
<trkpt lat="40.0728903" lon="-105.2308872">
  <ele>1585.72</ele>
  <time>2026-08-28T19:11:58Z</time>
  <course>67.1</course>
  <speed>0.0</speed>
  <fix>3d</fix>
</trkpt>
<trkpt lat="40.0728903" lon="-105.2308873">
  <ele>1585.79</ele>
  <time>2026-08-28T19:11:58Z</time>
  <course>343.21</course>
  <speed>0.01</speed>
  <fix>3d</fix>
</trkpt>
<trkpt lat="40.0728903" lon="-105.2308872">
  <ele>1585.72</ele>
  <time>2026-08-28T19:11:58Z</time>
  <course>66.97</course>
  <speed>0.0</speed>
  <fix>3d</fix>
</trkpt>
<trkpt lat="40.0728903" lon="-105.2308873">
  <ele>1585.79</ele>
  <time>2026-08-28T19:11:58Z</time>
  <course>343.22</course>
  <speed>0.01</speed>
  <fix>3d</fix>
</trkpt>
<trkpt lat="40.0728903" lon="-105.2308872">
  <ele>1585.72</ele>
  <time>2026-08-28T19:11:58Z</time>
  <course>66.94</course>
  <speed>0.0</speed>
  <fix>3d</fix>
</trkpt>
<trkpt lat="40.0728903" lon="-105.2308873">
  <ele>1585.79</ele>
  <time>2026-08-28T19:11:58Z</time>
  <course>343.22</course>
  <speed>0.01</speed>
  <fix>3d</fix>
</trkpt>
<trkpt lat="40.0728903" lon="-105.2308872">
  <ele>1585.72</ele>
  <time>2026-08-28T19:11:58Z</time>
  <course>66.88</course>
  <speed>0.0</speed>
  <fix>3d</fix>
</trkpt>
<trkpt lat="40.0728903" lon="-105.2308873">
  <ele>1585.79</ele>
  <time>2026-08-28T19:11:58Z</time>
  <course>343.23</course>
  <speed>0.01</speed>
  <fix>3d</fix>
</trkpt>
<trkpt lat="40.0728903" lon="-105.2308872">
  <ele>1585.72</ele>
  <time>2026-08-28T19:11:58Z</time>
  <course>66.8</course>
  <speed>0.0</speed>
  <fix>3d</fix>
</trkpt>
<trkpt lat="40.0728903" lon="-105.2308873">
  <ele>1585.79</ele>
  <time>2026-08-28T19:11:58Z</time>
  <course>343.23</course>
  <speed>0.01</speed>
  <fix>3d</fix>
</trkpt>
<trkpt lat="40.0728903" lon="-105.2308872">
  <ele>1585.72</ele>
  <time>2026-08-28T19:11:58Z</time>
  <course>66.72</course>
  <speed>0.0</speed>
  <fix>3d</fix>
</trkpt>
<trkpt lat="40.0728903" lon="-105.2308873">
  <ele>1585.79</ele>
  <time>2026-08-28T19:11:58Z</time>
  <course>343.23</course>
  <speed>0.01</speed>
  <fix>3d</fix>
</trkpt>
<trkpt lat="40.0728903" lon="-105.2308872">
  <ele>1585.72</ele>
  <time>2026-08-28T19:11:58Z</time>
  <course>66.64</course>
  <speed>0.0</speed>
  <fix>3d</fix>
</trkpt>
<trkpt lat="40.0728903" lon="-105.2308873">
  <ele>1585.79</ele>
  <time>2026-08-28T19:11:58Z</time>
  <course>343.22</course>
  <speed>0.01</speed>
  <fix>3d</fix>
</trkpt>
<trkpt lat="40.0728903" lon="-105.2308872">
  <ele>1585.72</ele>
  <time>2026-08-28T19:11:58Z</time>
  <course>66.55</course>
  <speed>0.0</speed>
  <fix>3d</fix>
</trkpt>
<trkpt lat="40.0728903" lon="-105.2308873">
  <ele>1585.79</ele>
  <time>2026-08-28T19:11:58Z</time>
  <course>343.22</course>
  <speed>0.02</speed>
  <fix>3d</fix>
</trkpt>
<trkpt lat="40.0728903" lon="-105.2308872">
  <ele>1585.72</ele>
  <time>2026-08-28T19:11:58Z</time>
  <course>66.45</course>
  <speed>0.0</speed>
  <fix>3d</fix>
</trkpt>
<trkpt lat="40.0728903" lon="-105.2308873">
  <ele>1585.79</ele>
  <time>2026-08-28T19:11:58Z</time>
  <course>343.21</course>
  <speed>0.02</speed>
  <fix>3d</fix>
</trkpt>
<trkpt lat="40.0728903" lon="-105.2308872">
  <ele>1585.72</ele>
  <time>2026-08-28T19:11:58Z</time>
  <course>66.35</course>
  <speed>0.0</speed>
  <fix>3d</fix>
</trkpt>
<trkpt lat="40.0728903" lon="-105.2308873">
  <ele>1585.79</ele>
  <time>2026-08-28T19:11:58Z</time>
  <course>343.2</course>
  <speed>0.02</speed>
  <fix>3d</fix>
</trkpt>
<trkpt lat="40.0728903" lon="-105.2308872">
  <ele>1585.72</ele>
  <time>2026-08-28T19:11:58Z</time>
  <course>66.25</course>
  <speed>0.0</speed>
  <fix>3d</fix>
</trkpt>
<trkpt lat="40.0728903" lon="-105.2308873">
  <ele>1585.79</ele>
  <time>2026-08-28T19:11:58Z</time>
  <course>343.18</course>
  <speed>0.02</speed>
  <fix>3d</fix>
</trkpt>
<trkpt lat="40.0728903" lon="-105.2308872">
  <ele>1585.72</ele>
  <time>2026-08-28T19:11:58Z</time>
  <course>66.15</course>
  <speed>0.0</speed>
  <fix>3d</fix>
</trkpt>
<trkpt lat="40.0728903" lon="-105.2308873">
  <ele>1585.78</ele>
  <time>2026-08-28T19:11:58Z</time>
  <course>343.17</course>
  <speed>0.02</speed>
  <fix>3d</fix>
</trkpt>
<trkpt lat="40.0728903" lon="-105.2308872">
  <ele>1585.72</ele>
  <time>2026-08-28T19:11:58Z</time>
  <course>65.16</course>
  <speed>0.0</speed>
  <fix>3d</fix>
</trkpt>
<trkpt lat="40.0728903" lon="-105.2308873">
  <ele>1585.78</ele>
  <time>2026-08-28T19:11:58Z</time>
  <course>343.15</course>
  <speed>0.02</speed>
  <fix>3d</fix>
</trkpt>
<trkpt lat="40.0728903" lon="-105.2308872">
  <ele>1585.72</ele>
  <time>2026-08-28T19:11:58Z</time>
  <course>248.04</course>
  <speed>0.0</speed>
  <fix>3d</fix>
</trkpt>
<trkpt lat="40.0728903" lon="-105.2308873">
  <ele>1585.78</ele>
  <time>2026-08-28T19:11:58Z</time>
  <course>343.13</course>
  <speed>0.02</speed>
  <fix>3d</fix>
</trkpt>
<trkpt lat="40.0728903" lon="-105.2308872">
  <ele>1585.72</ele>
  <time>2026-08-28T19:11:58Z</time>
  <course>253.55</course>
  <speed>0.0</speed>
  <fix>3d</fix>
</trkpt>
<trkpt lat="40.0728903" lon="-105.2308873">
  <ele>1585.78</ele>
  <time>2026-08-28T19:11:58Z</time>
  <course>343.11</course>
  <speed>0.02</speed>
  <fix>3d</fix>
</trkpt>
<trkpt lat="40.0728903" lon="-105.2308872">
  <ele>1585.72</ele>
  <time>2026-08-28T19:11:58Z</time>
  <course>66.02</course>
  <speed>0.0</speed>
  <fix>3d</fix>
</trkpt>
<trkpt lat="40.0728903" lon="-105.2308873">
  <ele>1585.78</ele>
  <time>2026-08-28T19:11:58Z</time>
  <course>343.08</course>
  <speed>0.02</speed>
  <fix>3d</fix>
</trkpt>
<trkpt lat="40.0728903" lon="-105.2308872">
  <ele>1585.72</ele>
  <time>2026-08-28T19:11:58Z</time>
  <course>65.69</course>
  <speed>0.0</speed>
  <fix>3d</fix>
</trkpt>
<trkpt lat="40.0728903" lon="-105.2308873">
  <ele>1585.79</ele>
  <time>2026-08-28T19:11:58Z</time>
  <course>343.06</course>
  <speed>0.02</speed>
  <fix>3d</fix>
</trkpt>
<trkpt lat="40.0728903" lon="-105.2308872">
  <ele>1585.72</ele>
  <time>2026-08-28T19:11:58Z</time>
  <course>65.35</course>
  <speed>0.0</speed>
  <fix>3d</fix>
</trkpt>
<trkpt lat="40.0728903" lon="-105.2308873">
  <ele>1585.79</ele>
  <time>2026-08-28T19:11:58Z</time>
  <course>343.03</course>
  <speed>0.02</speed>
  <fix>3d</fix>
</trkpt>
<trkpt lat="40.0728903" lon="-105.2308872">
  <ele>1585.72</ele>
  <time>2026-08-28T19:11:58Z</time>
  <course>247.33</course>
  <speed>0.0</speed>
  <fix>3d</fix>
</trkpt>
<trkpt lat="40.0728903" lon="-105.2308873">
  <ele>1585.79</ele>
  <time>2026-08-28T19:11:58Z</time>
  <course>343.0</course>
  <speed>0.02</speed>
  <fix>3d</fix>
</trkpt>
<trkpt lat="40.0728903" lon="-105.2308872">
  <ele>1585.72</ele>
  <time>2026-08-28T19:11:58Z</time>
  <course>247.13</course>
  <speed>0.0</speed>
  <fix>3d</fix>
</trkpt>
<trkpt lat="40.0728903" lon="-105.2308873">
  <ele>1585.79</ele>
  <time>2026-08-28T19:11:58Z</time>
  <course>342.97</course>
  <speed>0.02</speed>
  <fix>3d</fix>
</trkpt>
<trkpt lat="40.0728903" lon="-105.2308872">
  <ele>1585.72</ele>
  <time>2026-08-28T19:11:58Z</time>
  <course>65.04</course>
  <speed>0.0</speed>
  <fix>3d</fix>
</trkpt>
<trkpt lat="40.0728903" lon="-105.2308873">
  <ele>1585.79</ele>
  <time>2026-08-28T19:11:58Z</time>
  <course>342.93</course>
  <speed>0.02</speed>
  <fix>3d</fix>
</trkpt>
<trkpt lat="40.0728903" lon="-105.2308872">
  <ele>1585.72</ele>
  <time>2026-08-28T19:11:58Z</time>
  <course>65.33</course>
  <speed>0.0</speed>
  <fix>3d</fix>
</trkpt>
<trkpt lat="40.0728903" lon="-105.2308873">
  <ele>1585.79</ele>
  <time>2026-08-28T19:11:58Z</time>
  <course>342.9</course>
  <speed>0.02</speed>
  <fix>3d</fix>
</trkpt>
<trkpt lat="40.0728903" lon="-105.2308872">
  <ele>1585.72</ele>
  <time>2026-08-28T19:11:58Z</time>
  <course>247.02</course>
  <speed>0.0</speed>
  <fix>3d</fix>
</trkpt>
<trkpt lat="40.0728903" lon="-105.2308873">
  <ele>1585.79</ele>
  <time>2026-08-28T19:11:58Z</time>
  <course>342.86</course>
  <speed>0.02</speed>
  <fix>3d</fix>
</trkpt>
<trkpt lat="40.0728903" lon="-105.2308872">
  <ele>1585.72</ele>
  <time>2026-08-28T19:11:58Z</time>
  <course>247.07</course>
  <speed>0.0</speed>
  <fix>3d</fix>
</trkpt>
<trkpt lat="40.0728903" lon="-105.2308874">
  <ele>1585.79</ele>
  <time>2026-08-28T19:11:58Z</time>
  <course>342.82</course>
  <speed>0.02</speed>
  <fix>3d</fix>
</trkpt>
<trkpt lat="40.0728903" lon="-105.2308872">
  <ele>1585.72</ele>
  <time>2026-08-28T19:11:58Z</time>
  <course>65.42</course>
  <speed>0.0</speed>
  <fix>3d</fix>
</trkpt>
<trkpt lat="40.0728903" lon="-105.2308874">
  <ele>1585.79</ele>
  <time>2026-08-28T19:11:58Z</time>
  <course>342.78</course>
  <speed>0.02</speed>
  <fix>3d</fix>
</trkpt>
<trkpt lat="40.0728903" lon="-105.2308872">
  <ele>1585.72</ele>
  <time>2026-08-28T19:11:58Z</time>
  <course>246.65</course>
  <speed>0.0</speed>
  <fix>3d</fix>
</trkpt>
<trkpt lat="40.0728903" lon="-105.2308874">
  <ele>1585.79</ele>
  <time>2026-08-28T19:11:58Z</time>
  <course>342.74</course>
  <speed>0.02</speed>
  <fix>3d</fix>
</trkpt>
<trkpt lat="40.0728903" lon="-105.2308872">
  <ele>1585.72</ele>
  <time>2026-08-28T19:11:58Z</time>
  <course>246.55</course>
  <speed>0.0</speed>
  <fix>3d</fix>
</trkpt>
<trkpt lat="40.0728903" lon="-105.2308874">
  <ele>1585.79</ele>
  <time>2026-08-28T19:11:58Z</time>
  <course>342.7</course>
  <speed>0.02</speed>
  <fix>3d</fix>
</trkpt>
<trkpt lat="40.0728903" lon="-105.2308872">
  <ele>1585.72</ele>
  <time>2026-08-28T19:11:58Z</time>
  <course>246.34</course>
  <speed>0.0</speed>
  <fix>3d</fix>
</trkpt>
<trkpt lat="40.0728903" lon="-105.2308874">
  <ele>1585.79</ele>
  <time>2026-08-28T19:11:58Z</time>
  <course>342.65</course>
  <speed>0.02</speed>
  <fix>3d</fix>
</trkpt>
<trkpt lat="40.0728903" lon="-105.2308872">
  <ele>1585.72</ele>
  <time>2026-08-28T19:11:58Z</time>
  <course>246.12</course>
  <speed>0.0</speed>
  <fix>3d</fix>
</trkpt>
<trkpt lat="40.0728903" lon="-105.2308874">
  <ele>1585.8</ele>
  <time>2026-08-28T19:11:58Z</time>
  <course>342.61</course>
  <speed>0.02</speed>
  <fix>3d</fix>
</trkpt>
<trkpt lat="40.0728903" lon="-105.2308872">
  <ele>1585.72</ele>
  <time>2026-08-28T19:11:58Z</time>
  <course>246.24</course>
  <speed>0.0</speed>
  <fix>3d</fix>
</trkpt>
<trkpt lat="40.0728903" lon="-105.2308874">
  <ele>1585.8</ele>
  <time>2026-08-28T19:11:58Z</time>
  <course>342.57</course>
  <speed>0.02</speed>
  <fix>3d</fix>
</trkpt>
<trkpt lat="40.0728903" lon="-105.2308872">
  <ele>1585.72</ele>
  <time>2026-08-28T19:11:58Z</time>
  <course>65.62</course>
  <speed>0.0</speed>
  <fix>3d</fix>
</trkpt>
<trkpt lat="40.0728903" lon="-105.2308874">
  <ele>1585.8</ele>
  <time>2026-08-28T19:11:58Z</time>
  <course>342.53</course>
  <speed>0.02</speed>
  <fix>3d</fix>
</trkpt>
<trkpt lat="40.0728903" lon="-105.2308872">
  <ele>1585.72</ele>
  <time>2026-08-28T19:11:58Z</time>
  <course>63.75</course>
  <speed>0.0</speed>
  <fix>3d</fix>
</trkpt>
<trkpt lat="40.0728903" lon="-105.2308874">
  <ele>1585.8</ele>
  <time>2026-08-28T19:11:58Z</time>
  <course>342.48</course>
  <speed>0.02</speed>
  <fix>3d</fix>
</trkpt>
<trkpt lat="40.0728903" lon="-105.2308872">
  <ele>1585.72</ele>
  <time>2026-08-28T19:11:58Z</time>
  <course>250.7</course>
  <speed>0.0</speed>
  <fix>3d</fix>
</trkpt>
<trkpt lat="40.0728903" lon="-105.2308874">
  <ele>1585.8</ele>
  <time>2026-08-28T19:11:58Z</time>
  <course>342.44</course>
  <speed>0.02</speed>
  <fix>3d</fix>
</trkpt>
<trkpt lat="40.0728903" lon="-105.2308872">
  <ele>1585.72</ele>
  <time>2026-08-28T19:11:58Z</time>
  <course>245.71</course>
  <speed>0.0</speed>
  <fix>3d</fix>
</trkpt>
<trkpt lat="40.0728903" lon="-105.2308874">
  <ele>1585.8</ele>
  <time>2026-08-28T19:11:58Z</time>
  <course>342.4</course>
  <speed>0.02</speed>
  <fix>3d</fix>
</trkpt>
<trkpt lat="40.0728903" lon="-105.2308872">
  <ele>1585.72</ele>
  <time>2026-08-28T19:11:58Z</time>
  <course>245.64</course>
  <speed>0.0</speed>
  <fix>3d</fix>
</trkpt>
<trkpt lat="40.0728903" lon="-105.2308874">
  <ele>1585.8</ele>
  <time>2026-08-28T19:11:58Z</time>
  <course>342.36</course>
  <speed>0.02</speed>
  <fix>3d</fix>
</trkpt>
<trkpt lat="40.0728903" lon="-105.2308872">
  <ele>1585.72</ele>
  <time>2026-08-28T19:11:58Z</time>
  <course>245.39</course>
  <speed>0.0</speed>
  <fix>3d</fix>
</trkpt>
<trkpt lat="40.0728903" lon="-105.2308874">
  <ele>1585.8</ele>
  <time>2026-08-28T19:11:58Z</time>
  <course>342.32</course>
  <speed>0.02</speed>
  <fix>3d</fix>
</trkpt>
<trkpt lat="40.0728903" lon="-105.2308872">
  <ele>1585.72</ele>
  <time>2026-08-28T19:11:58Z</time>
  <course>245.34</course>
  <speed>0.0</speed>
  <fix>3d</fix>
</trkpt>
<trkpt lat="40.0728903" lon="-105.2308874">
  <ele>1585.8</ele>
  <time>2026-08-28T19:11:58Z</time>
  <course>342.27</course>
  <speed>0.02</speed>
  <fix>3d</fix>
</trkpt>
<trkpt lat="40.0728903" lon="-105.2308872">
  <ele>1585.72</ele>
  <time>2026-08-28T19:11:58Z</time>
  <course>245.34</course>
  <speed>0.0</speed>
  <fix>3d</fix>
</trkpt>
<trkpt lat="40.0728903" lon="-105.2308874">
  <ele>1585.8</ele>
  <time>2026-08-28T19:11:58Z</time>
  <course>342.23</course>
  <speed>0.02</speed>
  <fix>3d</fix>
</trkpt>
<trkpt lat="40.0728903" lon="-105.2308872">
  <ele>1585.72</ele>
  <time>2026-08-28T19:11:58Z</time>
  <course>244.63</course>
  <speed>0.0</speed>
  <fix>3d</fix>
</trkpt>
<trkpt lat="40.0728903" lon="-105.2308874">
  <ele>1585.81</ele>
  <time>2026-08-28T19:11:58Z</time>
  <course>342.19</course>
  <speed>0.02</speed>
  <fix>3d</fix>
</trkpt>
<trkpt lat="40.0728903" lon="-105.2308872">
  <ele>1585.72</ele>
  <time>2026-08-28T19:11:58Z</time>
  <course>245.06</course>
  <speed>0.0</speed>
  <fix>3d</fix>
</trkpt>
<trkpt lat="40.0728903" lon="-105.2308874">
  <ele>1585.81</ele>
  <time>2026-08-28T19:11:58Z</time>
  <course>342.15</course>
  <speed>0.02</speed>
  <fix>3d</fix>
</trkpt>
<trkpt lat="40.0728903" lon="-105.2308872">
  <ele>1585.72</ele>
  <time>2026-08-28T19:11:58Z</time>
  <course>244.93</course>
  <speed>0.0</speed>
  <fix>3d</fix>
</trkpt>
<trkpt lat="40.0728903" lon="-105.2308874">
  <ele>1585.81</ele>
  <time>2026-08-28T19:11:58Z</time>
  <course>342.11</course>
  <speed>0.02</speed>
  <fix>3d</fix>
</trkpt>
<trkpt lat="40.0728903" lon="-105.2308872">
  <ele>1585.72</ele>
  <time>2026-08-28T19:11:58Z</time>
  <course>244.74</course>
  <speed>0.0</speed>
  <fix>3d</fix>
</trkpt>
<trkpt lat="40.0728903" lon="-105.2308874">
  <ele>1585.81</ele>
  <time>2026-08-28T19:11:58Z</time>
  <course>342.07</course>
  <speed>0.02</speed>
  <fix>3d</fix>
</trkpt>
<trkpt lat="40.0728903" lon="-105.2308872">
  <ele>1585.72</ele>
  <time>2026-08-28T19:11:58Z</time>
  <course>244.88</course>
  <speed>0.0</speed>
  <fix>3d</fix>
</trkpt>
<trkpt lat="40.0728903" lon="-105.2308874">
  <ele>1585.82</ele>
  <time>2026-08-28T19:11:58Z</time>
  <course>342.03</course>
  <speed>0.02</speed>
  <fix>3d</fix>
</trkpt>
<trkpt lat="40.0728903" lon="-105.2308872">
  <ele>1585.72</ele>
  <time>2026-08-28T19:11:58Z</time>
  <course>244.19</course>
  <speed>0.0</speed>
  <fix>3d</fix>
</trkpt>
<trkpt lat="40.0728903" lon="-105.2308874">
  <ele>1585.82</ele>
  <time>2026-08-28T19:11:58Z</time>
  <course>341.99</course>
  <speed>0.02</speed>
  <fix>3d</fix>
</trkpt>
<trkpt lat="40.0728903" lon="-105.2308872">
  <ele>1585.72</ele>
  <time>2026-08-28T19:11:58Z</time>
  <course>244.45</course>
  <speed>0.0</speed>
  <fix>3d</fix>
</trkpt>
<trkpt lat="40.0728903" lon="-105.2308874">
  <ele>1585.82</ele>
  <time>2026-08-28T19:11:58Z</time>
  <course>341.95</course>
  <speed>0.02</speed>
  <fix>3d</fix>
</trkpt>
<trkpt lat="40.0728903" lon="-105.2308872">
  <ele>1585.72</ele>
  <time>2026-08-28T19:11:58Z</time>
  <course>244.65</course>
  <speed>0.0</speed>
  <fix>3d</fix>
</trkpt>
<trkpt lat="40.0728903" lon="-105.2308874">
  <ele>1585.82</ele>
  <time>2026-08-28T19:11:58Z</time>
  <course>341.91</course>
  <speed>0.02</speed>
  <fix>3d</fix>
</trkpt>
<trkpt lat="40.0728903" lon="-105.2308872">
  <ele>1585.72</ele>
  <time>2026-08-28T19:11:58Z</time>
  <course>243.79</course>
  <speed>0.0</speed>
  <fix>3d</fix>
</trkpt>
<trkpt lat="40.0728903" lon="-105.2308874">
  <ele>1585.82</ele>
  <time>2026-08-28T19:11:59Z</time>
  <course>341.87</course>
  <speed>0.02</speed>
  <fix>3d</fix>
</trkpt>
<trkpt lat="40.0728903" lon="-105.2308872">
  <ele>1585.72</ele>
  <time>2026-08-28T19:11:59Z</time>
  <course>244.27</course>
  <speed>0.0</speed>
  <fix>3d</fix>
</trkpt>
<trkpt lat="40.0728903" lon="-105.2308874">
  <ele>1585.82</ele>
  <time>2026-08-28T19:11:59Z</time>
  <course>341.83</course>
  <speed>0.02</speed>
  <fix>3d</fix>
</trkpt>
<trkpt lat="40.0728903" lon="-105.2308872">
  <ele>1585.72</ele>
  <time>2026-08-28T19:11:59Z</time>
  <course>244.4</course>
  <speed>0.0</speed>
  <fix>3d</fix>
</trkpt>
<trkpt lat="40.0728903" lon="-105.2308874">
  <ele>1585.82</ele>
  <time>2026-08-28T19:11:59Z</time>
  <course>341.79</course>
  <speed>0.02</speed>
  <fix>3d</fix>
</trkpt>
<trkpt lat="40.0728903" lon="-105.2308872">
  <ele>1585.72</ele>
  <time>2026-08-28T19:11:59Z</time>
  <course>242.52</course>
  <speed>0.0</speed>
  <fix>3d</fix>
</trkpt>
<trkpt lat="40.0728903" lon="-105.2308874">
  <ele>1585.81</ele>
  <time>2026-08-28T19:11:59Z</time>
  <course>341.75</course>
  <speed>0.02</speed>
  <fix>3d</fix>
</trkpt>
<trkpt lat="40.0728903" lon="-105.2308872">
  <ele>1585.72</ele>
  <time>2026-08-28T19:11:59Z</time>
  <course>244.01</course>
  <speed>0.0</speed>
  <fix>3d</fix>
</trkpt>
<trkpt lat="40.0728903" lon="-105.2308874">
  <ele>1585.81</ele>
  <time>2026-08-28T19:11:59Z</time>
  <course>341.71</course>
  <speed>0.02</speed>
  <fix>3d</fix>
</trkpt>
<trkpt lat="40.0728903" lon="-105.2308872">
  <ele>1585.72</ele>
  <time>2026-08-28T19:11:59Z</time>
  <course>244.11</course>
  <speed>0.0</speed>
  <fix>3d</fix>
</trkpt>
<trkpt lat="40.0728903" lon="-105.2308874">
  <ele>1585.81</ele>
  <time>2026-08-28T19:11:59Z</time>
  <course>341.67</course>
  <speed>0.02</speed>
  <fix>3d</fix>
</trkpt>
<trkpt lat="40.0728903" lon="-105.2308872">
  <ele>1585.72</ele>
  <time>2026-08-28T19:11:59Z</time>
  <course>239.38</course>
  <speed>0.0</speed>
  <fix>3d</fix>
</trkpt>
<trkpt lat="40.0728903" lon="-105.2308874">
  <ele>1585.81</ele>
  <time>2026-08-28T19:11:59Z</time>
  <course>341.63</course>
  <speed>0.02</speed>
  <fix>3d</fix>
</trkpt>
<trkpt lat="40.0728903" lon="-105.2308872">
  <ele>1585.72</ele>
  <time>2026-08-28T19:11:59Z</time>
  <course>243.76</course>
  <speed>0.0</speed>
  <fix>3d</fix>
</trkpt>
<trkpt lat="40.0728903" lon="-105.2308874">
  <ele>1585.82</ele>
  <time>2026-08-28T19:11:59Z</time>
  <course>341.59</course>
  <speed>0.02</speed>
  <fix>3d</fix>
</trkpt>
<trkpt lat="40.0728903" lon="-105.2308872">
  <ele>1585.72</ele>
  <time>2026-08-28T19:11:59Z</time>
  <course>243.81</course>
  <speed>0.0</speed>
  <fix>3d</fix>
</trkpt>
<trkpt lat="40.0728903" lon="-105.2308874">
  <ele>1585.82</ele>
  <time>2026-08-28T19:11:59Z</time>
  <course>341.55</course>
  <speed>0.02</speed>
  <fix>3d</fix>
</trkpt>
<trkpt lat="40.0728903" lon="-105.2308872">
  <ele>1585.72</ele>
  <time>2026-08-28T19:11:59Z</time>
  <course>236.62</course>
  <speed>0.0</speed>
  <fix>3d</fix>
</trkpt>
<trkpt lat="40.0728903" lon="-105.2308874">
  <ele>1585.82</ele>
  <time>2026-08-28T19:11:59Z</time>
  <course>341.51</course>
  <speed>0.02</speed>
  <fix>3d</fix>
</trkpt>
<trkpt lat="40.0728903" lon="-105.2308872">
  <ele>1585.72</ele>
  <time>2026-08-28T19:11:59Z</time>
  <course>243.63</course>
  <speed>0.0</speed>
  <fix>3d</fix>
</trkpt>
<trkpt lat="40.0728903" lon="-105.2308874">
  <ele>1585.82</ele>
  <time>2026-08-28T19:11:59Z</time>
  <course>341.47</course>
  <speed>0.02</speed>
  <fix>3d</fix>
</trkpt>
<trkpt lat="40.0728903" lon="-105.2308872">
  <ele>1585.72</ele>
  <time>2026-08-28T19:11:59Z</time>
  <course>243.71</course>
  <speed>0.0</speed>
  <fix>3d</fix>
</trkpt>
<trkpt lat="40.0728903" lon="-105.2308873">
  <ele>1585.81</ele>
  <time>2026-08-28T19:11:59Z</time>
  <course>341.44</course>
  <speed>0.02</speed>
  <fix>3d</fix>
</trkpt>
<trkpt lat="40.0728903" lon="-105.2308872">
  <ele>1585.72</ele>
  <time>2026-08-28T19:11:59Z</time>
  <course>240.31</course>
  <speed>0.0</speed>
  <fix>3d</fix>
</trkpt>
<trkpt lat="40.0728903" lon="-105.2308873">
  <ele>1585.81</ele>
  <time>2026-08-28T19:11:59Z</time>
  <course>341.4</course>
  <speed>0.02</speed>
  <fix>3d</fix>
</trkpt>
<trkpt lat="40.0728903" lon="-105.2308872">
  <ele>1585.72</ele>
  <time>2026-08-28T19:11:59Z</time>
  <course>243.35</course>
  <speed>0.0</speed>
  <fix>3d</fix>
</trkpt>
<trkpt lat="40.0728903" lon="-105.2308873">
  <ele>1585.81</ele>
  <time>2026-08-28T19:11:59Z</time>
  <course>341.36</course>
  <speed>0.02</speed>
  <fix>3d</fix>
</trkpt>
<trkpt lat="40.0728903" lon="-105.2308872">
  <ele>1585.72</ele>
  <time>2026-08-28T19:11:59Z</time>
  <course>243.45</course>
  <speed>0.0</speed>
  <fix>3d</fix>
</trkpt>
<trkpt lat="40.0728903" lon="-105.2308873">
  <ele>1585.81</ele>
  <time>2026-08-28T19:11:59Z</time>
  <course>341.32</course>
  <speed>0.02</speed>
  <fix>3d</fix>
</trkpt>
<trkpt lat="40.0728903" lon="-105.2308872">
  <ele>1585.72</ele>
  <time>2026-08-28T19:11:59Z</time>
  <course>239.43</course>
  <speed>0.0</speed>
  <fix>3d</fix>
</trkpt>
<trkpt lat="40.0728903" lon="-105.2308873">
  <ele>1585.81</ele>
  <time>2026-08-28T19:11:59Z</time>
  <course>341.29</course>
  <speed>0.02</speed>
  <fix>3d</fix>
</trkpt>
<trkpt lat="40.0728903" lon="-105.2308872">
  <ele>1585.72</ele>
  <time>2026-08-28T19:11:59Z</time>
  <course>243.18</course>
  <speed>0.0</speed>
  <fix>3d</fix>
</trkpt>
<trkpt lat="40.0728903" lon="-105.2308873">
  <ele>1585.8</ele>
  <time>2026-08-28T19:11:59Z</time>
  <course>341.25</course>
  <speed>0.02</speed>
  <fix>3d</fix>
</trkpt>
<trkpt lat="40.0728903" lon="-105.2308872">
  <ele>1585.72</ele>
  <time>2026-08-28T19:11:59Z</time>
  <course>243.26</course>
  <speed>0.0</speed>
  <fix>3d</fix>
</trkpt>
<trkpt lat="40.0728903" lon="-105.2308874">
  <ele>1585.81</ele>
  <time>2026-08-28T19:11:59Z</time>
  <course>341.21</course>
  <speed>0.02</speed>
  <fix>3d</fix>
</trkpt>
<trkpt lat="40.0728903" lon="-105.2308872">
  <ele>1585.72</ele>
  <time>2026-08-28T19:11:59Z</time>
  <course>239.54</course>
  <speed>0.0</speed>
  <fix>3d</fix>
</trkpt>
<trkpt lat="40.0728903" lon="-105.2308873">
  <ele>1585.81</ele>
  <time>2026-08-28T19:11:59Z</time>
  <course>341.18</course>
  <speed>0.02</speed>
  <fix>3d</fix>
</trkpt>
<trkpt lat="40.0728903" lon="-105.2308872">
  <ele>1585.72</ele>
  <time>2026-08-28T19:11:59Z</time>
  <course>243.0</course>
  <speed>0.0</speed>
  <fix>3d</fix>
</trkpt>
<trkpt lat="40.0728903" lon="-105.2308873">
  <ele>1585.8</ele>
  <time>2026-08-28T19:11:59Z</time>
  <course>341.14</course>
  <speed>0.02</speed>
  <fix>3d</fix>
</trkpt>
<trkpt lat="40.0728903" lon="-105.2308872">
  <ele>1585.72</ele>
  <time>2026-08-28T19:11:59Z</time>
  <course>243.1</course>
  <speed>0.0</speed>
  <fix>3d</fix>
</trkpt>
<trkpt lat="40.0728903" lon="-105.2308873">
  <ele>1585.8</ele>
  <time>2026-08-28T19:11:59Z</time>
  <course>341.1</course>
  <speed>0.02</speed>
  <fix>3d</fix>
</trkpt>
<trkpt lat="40.0728903" lon="-105.2308872">
  <ele>1585.72</ele>
  <time>2026-08-28T19:11:59Z</time>
  <course>239.98</course>
  <speed>0.0</speed>
  <fix>3d</fix>
</trkpt>
<trkpt lat="40.0728903" lon="-105.2308873">
  <ele>1585.81</ele>
  <time>2026-08-28T19:11:59Z</time>
  <course>341.07</course>
  <speed>0.02</speed>
  <fix>3d</fix>
</trkpt>
<trkpt lat="40.0728903" lon="-105.2308872">
  <ele>1585.72</ele>
  <time>2026-08-28T19:11:59Z</time>
  <course>242.75</course>
  <speed>0.0</speed>
  <fix>3d</fix>
</trkpt>
<trkpt lat="40.0728903" lon="-105.2308873">
  <ele>1585.8</ele>
  <time>2026-08-28T19:11:59Z</time>
  <course>341.03</course>
  <speed>0.02</speed>
  <fix>3d</fix>
</trkpt>
<trkpt lat="40.0728903" lon="-105.2308872">
  <ele>1585.72</ele>
  <time>2026-08-28T19:11:59Z</time>
  <course>243.03</course>
  <speed>0.0</speed>
  <fix>3d</fix>
</trkpt>
<trkpt lat="40.0728903" lon="-105.2308873">
  <ele>1585.8</ele>
  <time>2026-08-28T19:11:59Z</time>
  <course>341.0</course>
  <speed>0.02</speed>
  <fix>3d</fix>
</trkpt>
<trkpt lat="40.0728903" lon="-105.2308872">
  <ele>1585.72</ele>
  <time>2026-08-28T19:11:59Z</time>
  <course>241.8</course>
  <speed>0.0</speed>
  <fix>3d</fix>
</trkpt>
<trkpt lat="40.0728903" lon="-105.2308873">
  <ele>1585.8</ele>
  <time>2026-08-28T19:11:59Z</time>
  <course>340.96</course>
  <speed>0.02</speed>
  <fix>3d</fix>
</trkpt>
<trkpt lat="40.0728903" lon="-105.2308872">
  <ele>1585.72</ele>
  <time>2026-08-28T19:11:59Z</time>
  <course>242.18</course>
  <speed>0.0</speed>
  <fix>3d</fix>
</trkpt>
<trkpt lat="40.0728903" lon="-105.2308873">
  <ele>1585.8</ele>
  <time>2026-08-28T19:11:59Z</time>
  <course>340.93</course>
  <speed>0.02</speed>
  <fix>3d</fix>
</trkpt>
<trkpt lat="40.0728903" lon="-105.2308872">
  <ele>1585.72</ele>
  <time>2026-08-28T19:11:59Z</time>
  <course>242.8</course>
  <speed>0.0</speed>
  <fix>3d</fix>
</trkpt>
<trkpt lat="40.0728903" lon="-105.2308873">
  <ele>1585.8</ele>
  <time>2026-08-28T19:11:59Z</time>
  <course>340.89</course>
  <speed>0.02</speed>
  <fix>3d</fix>
</trkpt>
<trkpt lat="40.0728903" lon="-105.2308872">
  <ele>1585.72</ele>
  <time>2026-08-28T19:11:59Z</time>
  <course>242.12</course>
  <speed>0.0</speed>
  <fix>3d</fix>
</trkpt>
<trkpt lat="40.0728903" lon="-105.2308873">
  <ele>1585.8</ele>
  <time>2026-08-28T19:11:59Z</time>
  <course>340.86</course>
  <speed>0.02</speed>
  <fix>3d</fix>
</trkpt>
<trkpt lat="40.0728903" lon="-105.2308872">
  <ele>1585.72</ele>
  <time>2026-08-28T19:11:59Z</time>
  <course>237.96</course>
  <speed>0.0</speed>
  <fix>3d</fix>
</trkpt>
<trkpt lat="40.0728903" lon="-105.2308873">
  <ele>1585.8</ele>
  <time>2026-08-28T19:11:59Z</time>
  <course>340.82</course>
  <speed>0.02</speed>
  <fix>3d</fix>
</trkpt>
<trkpt lat="40.0728903" lon="-105.2308872">
  <ele>1585.72</ele>
  <time>2026-08-28T19:11:59Z</time>
  <course>242.37</course>
  <speed>0.0</speed>
  <fix>3d</fix>
</trkpt>
<trkpt lat="40.0728903" lon="-105.2308873">
  <ele>1585.8</ele>
  <time>2026-08-28T19:11:59Z</time>
  <course>340.79</course>
  <speed>0.02</speed>
  <fix>3d</fix>
</trkpt>
<trkpt lat="40.0728903" lon="-105.2308872">
  <ele>1585.72</ele>
  <time>2026-08-28T19:11:59Z</time>
  <course>242.33</course>
  <speed>0.0</speed>
  <fix>3d</fix>
</trkpt>
<trkpt lat="40.0728903" lon="-105.2308873">
  <ele>1585.8</ele>
  <time>2026-08-28T19:11:59Z</time>
  <course>340.75</course>
  <speed>0.02</speed>
  <fix>3d</fix>
</trkpt>
<trkpt lat="40.0728903" lon="-105.2308872">
  <ele>1585.72</ele>
  <time>2026-08-28T19:11:59Z</time>
  <course>238.78</course>
  <speed>0.0</speed>
  <fix>3d</fix>
</trkpt>
<trkpt lat="40.0728903" lon="-105.2308873">
  <ele>1585.8</ele>
  <time>2026-08-28T19:11:59Z</time>
  <course>340.72</course>
  <speed>0.02</speed>
  <fix>3d</fix>
</trkpt>
<trkpt lat="40.0728903" lon="-105.2308872">
  <ele>1585.72</ele>
  <time>2026-08-28T19:11:59Z</time>
  <course>242.33</course>
  <speed>0.0</speed>
  <fix>3d</fix>
</trkpt>
<trkpt lat="40.0728903" lon="-105.2308873">
  <ele>1585.8</ele>
  <time>2026-08-28T19:11:59Z</time>
  <course>340.69</course>
  <speed>0.02</speed>
  <fix>3d</fix>
</trkpt>
<trkpt lat="40.0728903" lon="-105.2308872">
  <ele>1585.72</ele>
  <time>2026-08-28T19:11:59Z</time>
  <course>242.43</course>
  <speed>0.0</speed>
  <fix>3d</fix>
</trkpt>
<trkpt lat="40.0728903" lon="-105.2308873">
  <ele>1585.8</ele>
  <time>2026-08-28T19:11:59Z</time>
  <course>340.65</course>
  <speed>0.02</speed>
  <fix>3d</fix>
</trkpt>
<trkpt lat="40.0728903" lon="-105.2308872">
  <ele>1585.72</ele>
  <time>2026-08-28T19:11:59Z</time>
  <course>240.26</course>
  <speed>0.0</speed>
  <fix>3d</fix>
</trkpt>
<trkpt lat="40.0728903" lon="-105.2308873">
  <ele>1585.8</ele>
  <time>2026-08-28T19:11:59Z</time>
  <course>340.62</course>
  <speed>0.02</speed>
  <fix>3d</fix>
</trkpt>
<trkpt lat="40.0728903" lon="-105.2308872">
  <ele>1585.72</ele>
  <time>2026-08-28T19:11:59Z</time>
  <course>239.33</course>
  <speed>0.0</speed>
  <fix>3d</fix>
</trkpt>
<trkpt lat="40.0728903" lon="-105.2308873">
  <ele>1585.8</ele>
  <time>2026-08-28T19:11:59Z</time>
  <course>340.59</course>
  <speed>0.02</speed>
  <fix>3d</fix>
</trkpt>
<trkpt lat="40.0728903" lon="-105.2308872">
  <ele>1585.72</ele>
  <time>2026-08-28T19:11:59Z</time>
  <course>242.07</course>
  <speed>0.0</speed>
  <fix>3d</fix>
</trkpt>
<trkpt lat="40.0728903" lon="-105.2308873">
  <ele>1585.8</ele>
  <time>2026-08-28T19:11:59Z</time>
  <course>340.55</course>
  <speed>0.02</speed>
  <fix>3d</fix>
</trkpt>
<trkpt lat="40.0728903" lon="-105.2308872">
  <ele>1585.72</ele>
  <time>2026-08-28T19:11:59Z</time>
  <course>241.97</course>
  <speed>0.0</speed>
  <fix>3d</fix>
</trkpt>
<trkpt lat="40.0728903" lon="-105.2308873">
  <ele>1585.8</ele>
  <time>2026-08-28T19:11:59Z</time>
  <course>340.52</course>
  <speed>0.02</speed>
  <fix>3d</fix>
</trkpt>
<trkpt lat="40.0728903" lon="-105.2308872">
  <ele>1585.72</ele>
  <time>2026-08-28T19:11:59Z</time>
  <course>238.92</course>
  <speed>0.0</speed>
  <fix>3d</fix>
</trkpt>
<trkpt lat="40.0728903" lon="-105.2308873">
  <ele>1585.79</ele>
  <time>2026-08-28T19:11:59Z</time>
  <course>340.49</course>
  <speed>0.02</speed>
  <fix>3d</fix>
</trkpt>
<trkpt lat="40.0728903" lon="-105.2308872">
  <ele>1585.72</ele>
  <time>2026-08-28T19:11:59Z</time>
  <course>242.0</course>
  <speed>0.0</speed>
  <fix>3d</fix>
</trkpt>
<trkpt lat="40.0728903" lon="-105.2308874">
  <ele>1585.8</ele>
  <time>2026-08-28T19:11:59Z</time>
  <course>340.46</course>
  <speed>0.02</speed>
  <fix>3d</fix>
</trkpt>
<trkpt lat="40.0728903" lon="-105.2308872">
  <ele>1585.72</ele>
  <time>2026-08-28T19:11:59Z</time>
  <course>242.11</course>
  <speed>0.0</speed>
  <fix>3d</fix>
</trkpt>
<trkpt lat="40.0728903" lon="-105.2308874">
  <ele>1585.8</ele>
  <time>2026-08-28T19:11:59Z</time>
  <course>340.42</course>
  <speed>0.02</speed>
  <fix>3d</fix>
</trkpt>
<trkpt lat="40.0728903" lon="-105.2308872">
  <ele>1585.72</ele>
  <time>2026-08-28T19:11:59Z</time>
  <course>240.26</course>
  <speed>0.0</speed>
  <fix>3d</fix>
</trkpt>
<trkpt lat="40.0728903" lon="-105.2308874">
  <ele>1585.8</ele>
  <time>2026-08-28T19:11:59Z</time>
  <course>340.39</course>
  <speed>0.02</speed>
  <fix>3d</fix>
</trkpt>
<trkpt lat="40.0728903" lon="-105.2308872">
  <ele>1585.72</ele>
  <time>2026-08-28T19:11:59Z</time>
  <course>240.71</course>
  <speed>0.0</speed>
  <fix>3d</fix>
</trkpt>
<trkpt lat="40.0728903" lon="-105.2308874">
  <ele>1585.8</ele>
  <time>2026-08-28T19:11:59Z</time>
  <course>340.36</course>
  <speed>0.02</speed>
  <fix>3d</fix>
</trkpt>
<trkpt lat="40.0728903" lon="-105.2308872">
  <ele>1585.72</ele>
  <time>2026-08-28T19:11:59Z</time>
  <course>241.87</course>
  <speed>0.0</speed>
  <fix>3d</fix>
</trkpt>
<trkpt lat="40.0728903" lon="-105.2308874">
  <ele>1585.8</ele>
  <time>2026-08-28T19:11:59Z</time>
  <course>340.33</course>
  <speed>0.02</speed>
  <fix>3d</fix>
</trkpt>
<trkpt lat="40.0728903" lon="-105.2308872">
  <ele>1585.72</ele>
  <time>2026-08-28T19:11:59Z</time>
  <course>239.5</course>
  <speed>0.0</speed>
  <fix>3d</fix>
</trkpt>
<trkpt lat="40.0728903" lon="-105.2308874">
  <ele>1585.8</ele>
  <time>2026-08-28T19:11:59Z</time>
  <course>340.3</course>
  <speed>0.02</speed>
  <fix>3d</fix>
</trkpt>
<trkpt lat="40.0728903" lon="-105.2308872">
  <ele>1585.72</ele>
  <time>2026-08-28T19:11:59Z</time>
  <course>235.59</course>
  <speed>0.0</speed>
  <fix>3d</fix>
</trkpt>
<trkpt lat="40.0728903" lon="-105.2308873">
  <ele>1585.81</ele>
  <time>2026-08-28T19:11:59Z</time>
  <course>340.28</course>
  <speed>0.02</speed>
  <fix>3d</fix>
</trkpt>
<trkpt lat="40.0728903" lon="-105.2308872">
  <ele>1585.72</ele>
  <time>2026-08-28T19:11:59Z</time>
  <course>239.13</course>
  <speed>0.0</speed>
  <fix>3d</fix>
</trkpt>
<trkpt lat="40.0728903" lon="-105.2308873">
  <ele>1585.81</ele>
  <time>2026-08-28T19:11:59Z</time>
  <course>340.26</course>
  <speed>0.02</speed>
  <fix>3d</fix>
</trkpt>
<trkpt lat="40.0728903" lon="-105.2308872">
  <ele>1585.72</ele>
  <time>2026-08-28T19:11:59Z</time>
  <course>243.09</course>
  <speed>0.0</speed>
  <fix>3d</fix>
</trkpt>
<trkpt lat="40.0728903" lon="-105.2308873">
  <ele>1585.81</ele>
  <time>2026-08-28T19:11:59Z</time>
  <course>340.26</course>
  <speed>0.02</speed>
  <fix>3d</fix>
</trkpt>
<trkpt lat="40.0728903" lon="-105.2308873">
  <ele>1585.8</ele>
  <time>2026-08-28T19:11:59Z</time>
  <course>340.23</course>
  <speed>0.02</speed>
  <fix>3d</fix>
</trkpt>
<trkpt lat="40.0728903" lon="-105.2308872">
  <ele>1585.72</ele>
  <time>2026-08-28T19:11:59Z</time>
  <course>240.98</course>
  <speed>0.0</speed>
  <fix>3d</fix>
</trkpt>
<trkpt lat="40.0728903" lon="-105.2308873">
  <ele>1585.8</ele>
  <time>2026-08-28T19:11:59Z</time>
  <course>340.22</course>
  <speed>0.02</speed>
  <fix>3d</fix>
</trkpt>
<trkpt lat="40.0728903" lon="-105.2308873">
  <ele>1585.8</ele>
  <time>2026-08-28T19:11:59Z</time>
  <course>340.18</course>
  <speed>0.02</speed>
  <fix>3d</fix>
</trkpt>
<trkpt lat="40.0728903" lon="-105.2308872">
  <ele>1585.72</ele>
  <time>2026-08-28T19:11:59Z</time>
  <course>240.16</course>
  <speed>0.0</speed>
  <fix>3d</fix>
</trkpt>
<trkpt lat="40.0728903" lon="-105.2308873">
  <ele>1585.8</ele>
  <time>2026-08-28T19:11:59Z</time>
  <course>340.18</course>
  <speed>0.02</speed>
  <fix>3d</fix>
</trkpt>
<trkpt lat="40.0728903" lon="-105.2308873">
  <ele>1585.82</ele>
  <time>2026-08-28T19:11:59Z</time>
  <course>340.11</course>
  <speed>0.02</speed>
  <fix>3d</fix>
</trkpt>
<trkpt lat="40.0728903" lon="-105.2308872">
  <ele>1585.72</ele>
  <time>2026-08-28T19:11:59Z</time>
  <course>240.79</course>
  <speed>0.0</speed>
  <fix>3d</fix>
</trkpt>
<trkpt lat="40.0728903" lon="-105.2308873">
  <ele>1585.83</ele>
  <time>2026-08-28T19:11:59Z</time>
  <course>340.1</course>
  <speed>0.02</speed>
  <fix>3d</fix>
</trkpt>
<trkpt lat="40.0728903" lon="-105.2308874">
  <ele>1585.88</ele>
  <time>2026-08-28T19:11:59Z</time>
  <course>340.02</course>
  <speed>0.02</speed>
  <fix>3d</fix>
</trkpt>
<trkpt lat="40.0728903" lon="-105.2308872">
  <ele>1585.75</ele>
  <time>2026-08-28T19:11:59Z</time>
  <course>242.12</course>
  <speed>0.0</speed>
  <fix>3d</fix>
</trkpt>
<trkpt lat="40.0728903" lon="-105.2308873">
  <ele>1585.88</ele>
  <time>2026-08-28T19:11:59Z</time>
  <course>340.01</course>
  <speed>0.02</speed>
  <fix>3d</fix>
</trkpt>
<trkpt lat="40.0728903" lon="-105.2308873">
  <ele>1585.92</ele>
  <time>2026-08-28T19:11:59Z</time>
  <course>339.92</course>
  <speed>0.022360679774997897</speed>
  <fix>3d</fix>
</trkpt>
<trkpt lat="40.0728903" lon="-105.2308872">
  <ele>1585.8</ele>
  <time>2026-08-28T19:11:59Z</time>
  <course>326.12</course>
  <speed>0.0</speed>
  <fix>3d</fix>
</trkpt>
<trkpt lat="40.0728903" lon="-105.2308873">
  <ele>1585.93</ele>
  <time>2026-08-28T19:11:59Z</time>
  <course>339.58</course>
  <speed>0.02</speed>
  <fix>3d</fix>
</trkpt>
<trkpt lat="40.0728903" lon="-105.2308874">
  <ele>1586.07</ele>
  <time>2026-08-28T19:11:59Z</time>
  <course>332.3</course>
  <speed>0.1044030650891055</speed>
  <fix>3d</fix>
</trkpt>
<trkpt lat="40.0728902" lon="-105.2308872">
  <ele>1585.87</ele>
  <time>2026-08-28T19:11:59Z</time>
  <course>237.16</course>
  <speed>0.02</speed>
  <fix>3d</fix>
</trkpt>
<trkpt lat="40.0728903" lon="-105.2308874">
  <ele>1586.07</ele>
  <time>2026-08-28T19:11:59Z</time>
  <course>332.23</course>
  <speed>0.1044030650891055</speed>
  <fix>3d</fix>
</trkpt>
<trkpt lat="40.0728902" lon="-105.2308877">
  <ele>1586.3</ele>
  <time>2026-08-28T19:11:59Z</time>
  <course>330.77</course>
  <speed>0.19697715603592209</speed>
  <fix>3d</fix>
</trkpt>
<trkpt lat="40.0728901" lon="-105.2308873">
  <ele>1586.04</ele>
  <time>2026-08-28T19:11:59Z</time>
  <course>233.35</course>
  <speed>0.11</speed>
  <fix>3d</fix>
</trkpt>
<trkpt lat="40.0728902" lon="-105.2308878">
  <ele>1586.33</ele>
  <time>2026-08-28T19:11:59Z</time>
  <course>330.81</course>
  <speed>0.20124611797498107</speed>
  <fix>3d</fix>
</trkpt>
<trkpt lat="40.07289" lon="-105.2308881">
  <ele>1586.44</ele>
  <time>2026-08-28T19:11:59Z</time>
  <course>330.64</course>
  <speed>0.23323807579381203</speed>
  <fix>3d</fix>
</trkpt>
<trkpt lat="40.07289" lon="-105.2308875">
  <ele>1586.24</ele>
  <time>2026-08-28T19:11:59Z</time>
  <course>230.11</course>
  <speed>0.19</speed>
  <fix>3d</fix>
</trkpt>
<trkpt lat="40.07289" lon="-105.2308882">
  <ele>1586.46</ele>
  <time>2026-08-28T19:11:59Z</time>
  <course>330.54</course>
  <speed>0.23323807579381203</speed>
  <fix>3d</fix>
</trkpt>
<trkpt lat="40.0728897" lon="-105.2308885">
  <ele>1586.55</ele>
  <time>2026-08-28T19:11:59Z</time>
  <course>329.94</course>
  <speed>0.25</speed>
  <fix>3d</fix>
</trkpt>
<trkpt lat="40.0728897" lon="-105.2308879">
  <ele>1586.38</ele>
  <time>2026-08-28T19:11:59Z</time>
  <course>225.57</course>
  <speed>0.22</speed>
  <fix>3d</fix>
</trkpt>
<trkpt lat="40.0728897" lon="-105.2308885">
  <ele>1586.57</ele>
  <time>2026-08-28T19:11:59Z</time>
  <course>329.87</course>
  <speed>0.25</speed>
  <fix>3d</fix>
</trkpt>
<trkpt lat="40.0728894" lon="-105.2308889">
  <ele>1586.66</ele>
  <time>2026-08-28T19:11:59Z</time>
  <course>329.68</course>
  <speed>0.2545584412271571</speed>
  <fix>3d</fix>
</trkpt>
<trkpt lat="40.0728894" lon="-105.2308884">
  <ele>1586.48</ele>
  <time>2026-08-28T19:11:59Z</time>
  <course>220.3</course>
  <speed>0.24</speed>
  <fix>3d</fix>
</trkpt>
<trkpt lat="40.0728893" lon="-105.2308889">
  <ele>1586.67</ele>
  <time>2026-08-28T19:11:59Z</time>
  <course>329.68</course>
  <speed>0.2545584412271571</speed>
  <fix>3d</fix>
</trkpt>
<trkpt lat="40.072889" lon="-105.2308892">
  <ele>1586.75</ele>
  <time>2026-08-28T19:11:59Z</time>
  <course>329.71</course>
  <speed>0.25612496949731395</speed>
  <fix>3d</fix>
</trkpt>
<trkpt lat="40.0728891" lon="-105.2308887">
  <ele>1586.57</ele>
  <time>2026-08-28T19:11:59Z</time>
  <course>214.82</course>
  <speed>0.25</speed>
  <fix>3d</fix>
</trkpt>
<trkpt lat="40.072889" lon="-105.2308892">
  <ele>1586.75</ele>
  <time>2026-08-28T19:11:59Z</time>
  <course>329.71</course>
  <speed>0.25612496949731395</speed>
  <fix>3d</fix>
</trkpt>
<trkpt lat="40.0728886" lon="-105.2308895">
  <ele>1586.84</ele>
  <time>2026-08-28T19:11:59Z</time>
  <course>329.76</course>
  <speed>0.25238858928247926</speed>
  <fix>3d</fix>
</trkpt>
<trkpt lat="40.0728886" lon="-105.230889">
  <ele>1586.66</ele>
  <time>2026-08-28T19:11:59Z</time>
  <course>209.25</course>
  <speed>0.25</speed>
  <fix>3d</fix>
</trkpt>
<trkpt lat="40.0728885" lon="-105.2308895">
  <ele>1586.86</ele>
  <time>2026-08-28T19:11:59Z</time>
  <course>329.77</course>
  <speed>0.260768096208106</speed>
  <fix>3d</fix>
</trkpt>
<trkpt lat="40.0728881" lon="-105.2308897">
  <ele>1586.95</ele>
  <time>2026-08-28T19:11:59Z</time>
  <course>329.84</course>
  <speed>0.25942243542145693</speed>
  <fix>3d</fix>
</trkpt>
<trkpt lat="40.0728883" lon="-105.2308893">
  <ele>1586.76</ele>
  <time>2026-08-28T19:11:59Z</time>
  <course>203.87</course>
  <speed>0.25</speed>
  <fix>3d</fix>
</trkpt>
<trkpt lat="40.0728881" lon="-105.2308897">
  <ele>1586.96</ele>
  <time>2026-08-28T19:11:59Z</time>
  <course>329.86</course>
  <speed>0.25942243542145693</speed>
  <fix>3d</fix>
</trkpt>
<trkpt lat="40.0728877" lon="-105.2308899">
  <ele>1587.06</ele>
  <time>2026-08-28T19:11:59Z</time>
  <course>330.0</course>
  <speed>0.2692582403567252</speed>
  <fix>3d</fix>
</trkpt>
<trkpt lat="40.0728878" lon="-105.2308894">
  <ele>1586.86</ele>
  <time>2026-08-28T19:11:59Z</time>
  <course>198.87</course>
  <speed>0.26</speed>
  <fix>3d</fix>
</trkpt>
<trkpt lat="40.0728877" lon="-105.2308899">
  <ele>1587.06</ele>
  <time>2026-08-28T19:11:59Z</time>
  <course>330.0</course>
  <speed>0.2692582403567252</speed>
  <fix>3d</fix>
</trkpt>
<trkpt lat="40.0728872" lon="-105.23089">
  <ele>1587.17</ele>
  <time>2026-08-28T19:11:59Z</time>
  <course>330.19</course>
  <speed>0.2720294101747089</speed>
  <fix>3d</fix>
</trkpt>
<trkpt lat="40.0728873" lon="-105.2308897">
  <ele>1586.96</ele>
  <time>2026-08-28T19:11:59Z</time>
  <course>194.37</course>
  <speed>0.26</speed>
  <fix>3d</fix>
</trkpt>
<trkpt lat="40.0728871" lon="-105.2308901">
  <ele>1587.19</ele>
  <time>2026-08-28T19:11:59Z</time>
  <course>330.22</course>
  <speed>0.2720294101747089</speed>
  <fix>3d</fix>
</trkpt>
<trkpt lat="40.0728867" lon="-105.2308901">
  <ele>1587.29</ele>
  <time>2026-08-28T19:11:59Z</time>
  <course>330.44</course>
  <speed>0.27892651361962706</speed>
  <fix>3d</fix>
</trkpt>
<trkpt lat="40.0728869" lon="-105.2308898">
  <ele>1587.06</ele>
  <time>2026-08-28T19:11:59Z</time>
  <course>190.38</course>
  <speed>0.27</speed>
  <fix>3d</fix>
</trkpt>
<trkpt lat="40.0728867" lon="-105.2308901">
  <ele>1587.29</ele>
  <time>2026-08-28T19:11:59Z</time>
  <course>330.45</course>
  <speed>0.27892651361962706</speed>
  <fix>3d</fix>
</trkpt>
<trkpt lat="40.0728862" lon="-105.2308902">
  <ele>1587.41</ele>
  <time>2026-08-28T19:11:59Z</time>
  <course>330.71</course>
  <speed>0.2942787793912432</speed>
  <fix>3d</fix>
</trkpt>
<trkpt lat="40.0728864" lon="-105.2308899">
  <ele>1587.17</ele>
  <time>2026-08-28T19:11:59Z</time>
  <course>186.84</course>
  <speed>0.28</speed>
  <fix>3d</fix>
</trkpt>
<trkpt lat="40.0728861" lon="-105.2308902">
  <ele>1587.42</ele>
  <time>2026-08-28T19:11:59Z</time>
  <course>330.75</course>
  <speed>0.2942787793912432</speed>
  <fix>3d</fix>
</trkpt>
<trkpt lat="40.0728856" lon="-105.2308902">
  <ele>1587.53</ele>
  <time>2026-08-28T19:11:59Z</time>
  <course>330.99</course>
  <speed>0.3026549190084311</speed>
  <fix>3d</fix>
</trkpt>
<trkpt lat="40.0728858" lon="-105.23089">
  <ele>1587.29</ele>
  <time>2026-08-28T19:11:59Z</time>
  <course>183.73</course>
  <speed>0.29</speed>
  <fix>3d</fix>
</trkpt>
<trkpt lat="40.0728855" lon="-105.2308902">
  <ele>1587.54</ele>
  <time>2026-08-28T19:11:59Z</time>
  <course>331.03</course>
  <speed>0.3014962686336267</speed>
  <fix>3d</fix>
</trkpt>
<trkpt lat="40.072885" lon="-105.2308903">
  <ele>1587.65</ele>
  <time>2026-08-28T19:11:59Z</time>
  <course>331.29</course>
  <speed>0.31064449134018135</speed>
  <fix>3d</fix>
</trkpt>
<trkpt lat="40.0728853" lon="-105.23089">
  <ele>1587.4</ele>
  <time>2026-08-28T19:11:59Z</time>
  <course>181.07</course>
  <speed>0.3</speed>
  <fix>3d</fix>
</trkpt>
<trkpt lat="40.072885" lon="-105.2308902">
  <ele>1587.66</ele>
  <time>2026-08-28T19:11:59Z</time>
  <course>331.33</course>
  <speed>0.31064449134018135</speed>
  <fix>3d</fix>
</trkpt>
<trkpt lat="40.0728845" lon="-105.2308902">
  <ele>1587.77</ele>
  <time>2026-08-28T19:11:59Z</time>
  <course>331.6</course>
  <speed>0.32015621187164245</speed>
  <fix>3d</fix>
</trkpt>
<trkpt lat="40.0728848" lon="-105.23089">
  <ele>1587.52</ele>
  <time>2026-08-28T19:11:59Z</time>
  <course>178.83</course>
  <speed>0.31</speed>
  <fix>3d</fix>
</trkpt>
<trkpt lat="40.0728844" lon="-105.2308902">
  <ele>1587.78</ele>
  <time>2026-08-28T19:11:59Z</time>
  <course>331.63</course>
  <speed>0.32015621187164245</speed>
  <fix>3d</fix>
</trkpt>
<trkpt lat="40.0728839" lon="-105.2308902">
  <ele>1587.89</ele>
  <time>2026-08-28T19:11:59Z</time>
  <course>331.87</course>
  <speed>0.33</speed>
  <fix>3d</fix>
</trkpt>
<trkpt lat="40.0728842" lon="-105.23089">
  <ele>1587.63</ele>
  <time>2026-08-28T19:11:59Z</time>
  <course>176.89</course>
  <speed>0.32</speed>
  <fix>3d</fix>
</trkpt>
<trkpt lat="40.0728839" lon="-105.2308902">
  <ele>1587.89</ele>
  <time>2026-08-28T19:11:59Z</time>
  <course>331.88</course>
  <speed>0.33</speed>
  <fix>3d</fix>
</trkpt>
<trkpt lat="40.0728832" lon="-105.2308902">
  <ele>1588.01</ele>
  <time>2026-08-28T19:11:59Z</time>
  <course>332.17</course>
  <speed>0.34</speed>
  <fix>3d</fix>
</trkpt>
<trkpt lat="40.0728836" lon="-105.23089">
  <ele>1587.76</ele>
  <time>2026-08-28T19:11:59Z</time>
  <course>175.19</course>
  <speed>0.33</speed>
  <fix>3d</fix>
</trkpt>
<trkpt lat="40.0728832" lon="-105.2308902">
  <ele>1588.03</ele>
  <time>2026-08-28T19:11:59Z</time>
  <course>332.2</course>
  <speed>0.34</speed>
  <fix>3d</fix>
</trkpt>
<trkpt lat="40.0728826" lon="-105.2308901">
  <ele>1588.13</ele>
  <time>2026-08-28T19:11:59Z</time>
  <course>332.44</course>
  <speed>0.35014282800023194</speed>
  <fix>3d</fix>
</trkpt>
<trkpt lat="40.072883" lon="-105.2308899">
  <ele>1587.88</ele>
  <time>2026-08-28T19:11:59Z</time>
  <course>173.74</course>
  <speed>0.34</speed>
  <fix>3d</fix>
</trkpt>
<trkpt lat="40.0728825" lon="-105.2308901">
  <ele>1588.15</ele>
  <time>2026-08-28T19:11:59Z</time>
  <course>332.48</course>
  <speed>0.35014282800023194</speed>
  <fix>3d</fix>
</trkpt>
<trkpt lat="40.072882" lon="-105.23089">
  <ele>1588.26</ele>
  <time>2026-08-28T19:11:59Z</time>
  <course>332.71</course>
  <speed>0.3605551275463989</speed>
  <fix>3d</fix>
</trkpt>
<trkpt lat="40.0728824" lon="-105.2308898">
  <ele>1588.01</ele>
  <time>2026-08-28T19:11:59Z</time>
  <course>172.46</course>
  <speed>0.35</speed>
  <fix>3d</fix>
</trkpt>
<trkpt lat="40.0728819" lon="-105.23089">
  <ele>1588.28</ele>
  <time>2026-08-28T19:11:59Z</time>
  <course>332.75</course>
  <speed>0.3605551275463989</speed>
  <fix>3d</fix>
</trkpt>
<trkpt lat="40.0728813" lon="-105.2308899">
  <ele>1588.38</ele>
  <time>2026-08-28T19:11:59Z</time>
  <course>332.98</course>
  <speed>0.3712142238654117</speed>
  <fix>3d</fix>
</trkpt>
<trkpt lat="40.0728817" lon="-105.2308897">
  <ele>1588.12</ele>
  <time>2026-08-28T19:11:59Z</time>
  <course>171.37</course>
  <speed>0.36</speed>
  <fix>3d</fix>
</trkpt>
<trkpt lat="40.0728812" lon="-105.2308899">
  <ele>1588.4</ele>
  <time>2026-08-28T19:11:59Z</time>
  <course>333.02</course>
  <speed>0.3712142238654117</speed>
  <fix>3d</fix>
</trkpt>
<trkpt lat="40.0728807" lon="-105.2308897">
  <ele>1588.5</ele>
  <time>2026-08-28T19:11:59Z</time>
  <course>332.23</course>
  <speed>0.3721558813185679</speed>
  <fix>3d</fix>
</trkpt>
<trkpt lat="40.0728811" lon="-105.2308896">
  <ele>1588.25</ele>
  <time>2026-08-28T19:11:59Z</time>
  <course>170.42</course>
  <speed>0.37</speed>
  <fix>3d</fix>
</trkpt>
<trkpt lat="40.0728807" lon="-105.2308897">
  <ele>1588.5</ele>
  <time>2026-08-28T19:11:59Z</time>
  <course>332.19</course>
  <speed>0.3721558813185679</speed>
  <fix>3d</fix>
</trkpt>
<trkpt lat="40.07288" lon="-105.2308896">
  <ele>1588.62</ele>
  <time>2026-08-28T19:11:59Z</time>
  <course>330.16</course>
  <speed>0.3920459156782532</speed>
  <fix>3d</fix>
</trkpt>
<trkpt lat="40.0728804" lon="-105.2308894">
  <ele>1588.37</ele>
  <time>2026-08-28T19:11:59Z</time>
  <course>169.82</course>
  <speed>0.38</speed>
  <fix>3d</fix>
</trkpt>
<trkpt lat="40.0728799" lon="-105.2308895">
  <ele>1588.64</ele>
  <time>2026-08-28T19:11:59Z</time>
  <course>330.21</course>
  <speed>0.39319206502675</speed>
  <fix>3d</fix>
</trkpt>
<trkpt lat="40.0728793" lon="-105.2308894">
  <ele>1588.74</ele>
  <time>2026-08-28T19:11:59Z</time>
  <course>331.39</course>
  <speed>0.41303752856126763</speed>
  <fix>3d</fix>
</trkpt>
<trkpt lat="40.0728797" lon="-105.2308893">
  <ele>1588.5</ele>
  <time>2026-08-28T19:11:59Z</time>
  <course>169.6</course>
  <speed>0.38</speed>
  <fix>3d</fix>
</trkpt>
<trkpt lat="40.0728792" lon="-105.2308894">
  <ele>1588.76</ele>
  <time>2026-08-28T19:11:59Z</time>
  <course>331.63</course>
  <speed>0.41303752856126763</speed>
  <fix>3d</fix>
</trkpt>
<trkpt lat="40.0728786" lon="-105.2308892">
  <ele>1588.86</ele>
  <time>2026-08-28T19:11:59Z</time>
  <course>332.77</course>
  <speed>0.4143669871020132</speed>
  <fix>3d</fix>
</trkpt>
<trkpt lat="40.072879" lon="-105.2308891">
  <ele>1588.62</ele>
  <time>2026-08-28T19:11:59Z</time>
  <course>169.22</course>
  <speed>0.39</speed>
  <fix>3d</fix>
</trkpt>
<trkpt lat="40.0728785" lon="-105.2308892">
  <ele>1588.88</ele>
  <time>2026-08-28T19:11:59Z</time>
  <course>332.9</course>
  <speed>0.4143669871020132</speed>
  <fix>3d</fix>
</trkpt>
<trkpt lat="40.0728778" lon="-105.230889">
  <ele>1588.99</ele>
  <time>2026-08-28T19:11:59Z</time>
  <course>333.55</course>
  <speed>0.4143669871020132</speed>
  <fix>3d</fix>
</trkpt>
<trkpt lat="40.0728783" lon="-105.2308889">
  <ele>1588.75</ele>
  <time>2026-08-28T19:11:59Z</time>
  <course>168.8</course>
  <speed>0.39</speed>
  <fix>3d</fix>
</trkpt>
<trkpt lat="40.0728777" lon="-105.230889">
  <ele>1589.0</ele>
  <time>2026-08-28T19:11:59Z</time>
  <course>333.63</course>
  <speed>0.42579337712087534</speed>
  <fix>3d</fix>
</trkpt>
<trkpt lat="40.0728771" lon="-105.2308888">
  <ele>1589.12</ele>
  <time>2026-08-28T19:11:59Z</time>
  <course>334.02</course>
  <speed>0.42579337712087534</speed>
  <fix>3d</fix>
</trkpt>
<trkpt lat="40.0728776" lon="-105.2308888">
  <ele>1588.87</ele>
  <time>2026-08-28T19:11:59Z</time>
  <course>168.67</course>
  <speed>0.39</speed>
  <fix>3d</fix>
</trkpt>
<trkpt lat="40.072877" lon="-105.2308888">
  <ele>1589.13</ele>
  <time>2026-08-28T19:11:59Z</time>
  <course>334.07</course>
  <speed>0.42579337712087534</speed>
  <fix>3d</fix>
</trkpt>
<trkpt lat="40.0728764" lon="-105.2308886">
  <ele>1589.25</ele>
  <time>2026-08-28T19:11:59Z</time>
  <course>334.37</course>
  <speed>0.4159326868617084</speed>
  <fix>3d</fix>
</trkpt>
<trkpt lat="40.0728769" lon="-105.2308885">
  <ele>1589.0</ele>
  <time>2026-08-28T19:11:59Z</time>
  <course>168.69</course>
  <speed>0.39</speed>
  <fix>3d</fix>
</trkpt>
<trkpt lat="40.0728764" lon="-105.2308886">
  <ele>1589.25</ele>
  <time>2026-08-28T19:11:59Z</time>
  <course>334.37</course>
  <speed>0.42579337712087534</speed>
  <fix>3d</fix>
</trkpt>
<trkpt lat="40.0728757" lon="-105.2308884">
  <ele>1589.37</ele>
  <time>2026-08-28T19:11:59Z</time>
  <course>334.64</course>
  <speed>0.4159326868617084</speed>
  <fix>3d</fix>
</trkpt>
<trkpt lat="40.0728762" lon="-105.2308884">
  <ele>1589.13</ele>
  <time>2026-08-28T19:11:59Z</time>
  <course>168.77</course>
  <speed>0.4</speed>
  <fix>3d</fix>
</trkpt>
<trkpt lat="40.0728756" lon="-105.2308884">
  <ele>1589.39</ele>
  <time>2026-08-28T19:11:59Z</time>
  <course>334.68</course>
  <speed>0.4159326868617084</speed>
  <fix>3d</fix>
</trkpt>
<trkpt lat="40.072875" lon="-105.2308883">
  <ele>1589.5</ele>
  <time>2026-08-28T19:11:59Z</time>
  <course>334.85</course>
  <speed>0.4159326868617084</speed>
  <fix>3d</fix>
</trkpt>
<trkpt lat="40.0728755" lon="-105.2308882">
  <ele>1589.26</ele>
  <time>2026-08-28T19:11:59Z</time>
  <course>168.86</course>
  <speed>0.4</speed>
  <fix>3d</fix>
</trkpt>
<trkpt lat="40.0728749" lon="-105.2308882">
  <ele>1589.52</ele>
  <time>2026-08-28T19:11:59Z</time>
  <course>334.88</course>
  <speed>0.4159326868617084</speed>
  <fix>3d</fix>
</trkpt>
<trkpt lat="40.0728743" lon="-105.2308881">
  <ele>1589.63</ele>
  <time>2026-08-28T19:11:59Z</time>
  <course>335.05</course>
  <speed>0.4159326868617084</speed>
  <fix>3d</fix>
</trkpt>
<trkpt lat="40.0728748" lon="-105.230888">
  <ele>1589.38</ele>
  <time>2026-08-28T19:11:59Z</time>
  <course>168.95</course>
  <speed>0.4</speed>
  <fix>3d</fix>
</trkpt>
<trkpt lat="40.0728742" lon="-105.2308881">
  <ele>1589.64</ele>
  <time>2026-08-28T19:11:59Z</time>
  <course>335.08</course>
  <speed>0.4159326868617084</speed>
  <fix>3d</fix>
</trkpt>
<trkpt lat="40.0728736" lon="-105.2308879">
  <ele>1589.76</ele>
  <time>2026-08-28T19:11:59Z</time>
  <course>335.21</course>
  <speed>0.4159326868617084</speed>
  <fix>3d</fix>
</trkpt>
<trkpt lat="40.0728741" lon="-105.2308879">
  <ele>1589.51</ele>
  <time>2026-08-28T19:11:59Z</time>
  <course>169.03</course>
  <speed>0.4</speed>
  <fix>3d</fix>
</trkpt>
<trkpt lat="40.0728735" lon="-105.2308879">
  <ele>1589.78</ele>
  <time>2026-08-28T19:11:59Z</time>
  <course>335.24</course>
  <speed>0.4159326868617084</speed>
  <fix>3d</fix>
</trkpt>
<trkpt lat="40.0728729" lon="-105.2308877">
  <ele>1589.89</ele>
  <time>2026-08-28T19:11:59Z</time>
  <course>335.4</course>
  <speed>0.4159326868617084</speed>
  <fix>3d</fix>
</trkpt>
<trkpt lat="40.0728734" lon="-105.2308876">
  <ele>1589.64</ele>
  <time>2026-08-28T19:11:59Z</time>
  <course>169.15</course>
  <speed>0.41</speed>
  <fix>3d</fix>
</trkpt>
<trkpt lat="40.0728728" lon="-105.2308877">
  <ele>1589.91</ele>
  <time>2026-08-28T19:11:59Z</time>
  <course>335.43</course>
  <speed>0.4159326868617084</speed>
  <fix>3d</fix>
</trkpt>
<trkpt lat="40.0728722" lon="-105.2308875">
  <ele>1590.01</ele>
  <time>2026-08-28T19:11:59Z</time>
  <course>335.57</course>
  <speed>0.4159326868617084</speed>
  <fix>3d</fix>
</trkpt>
<trkpt lat="40.0728726" lon="-105.2308875">
  <ele>1589.77</ele>
  <time>2026-08-28T19:11:59Z</time>
  <course>169.29</course>
  <speed>0.41</speed>
  <fix>3d</fix>
</trkpt>
<trkpt lat="40.0728721" lon="-105.2308875">
  <ele>1590.01</ele>
  <time>2026-08-28T19:11:59Z</time>
  <course>335.57</course>
  <speed>0.4159326868617084</speed>
  <fix>3d</fix>
</trkpt>
<trkpt lat="40.0728714" lon="-105.2308873">
  <ele>1590.13</ele>
  <time>2026-08-28T19:11:59Z</time>
  <course>335.73</course>
  <speed>0.4159326868617084</speed>
  <fix>3d</fix>
</trkpt>
<trkpt lat="40.0728719" lon="-105.2308873">
  <ele>1589.89</ele>
  <time>2026-08-28T19:11:59Z</time>
  <course>169.39</course>
  <speed>0.41</speed>
  <fix>3d</fix>
</trkpt>
<trkpt lat="40.0728713" lon="-105.2308873">
  <ele>1590.15</ele>
  <time>2026-08-28T19:11:59Z</time>
  <course>335.75</course>
  <speed>0.4159326868617084</speed>
  <fix>3d</fix>
</trkpt>
<trkpt lat="40.0728707" lon="-105.2308871">
  <ele>1590.26</ele>
  <time>2026-08-28T19:11:59Z</time>
  <course>335.89</course>
  <speed>0.4159326868617084</speed>
  <fix>3d</fix>
</trkpt>
<trkpt lat="40.0728712" lon="-105.2308871">
  <ele>1590.02</ele>
  <time>2026-08-28T19:11:59Z</time>
  <course>169.49</course>
  <speed>0.41</speed>
  <fix>3d</fix>
</trkpt>
<trkpt lat="40.0728706" lon="-105.2308871">
  <ele>1590.28</ele>
  <time>2026-08-28T19:11:59Z</time>
  <course>335.91</course>
  <speed>0.4159326868617084</speed>
  <fix>3d</fix>
</trkpt>
<trkpt lat="40.07287" lon="-105.230887">
  <ele>1590.39</ele>
  <time>2026-08-28T19:11:59Z</time>
  <course>336.04</course>
  <speed>0.4159326868617084</speed>
  <fix>3d</fix>
</trkpt>
<trkpt lat="40.0728704" lon="-105.230887">
  <ele>1590.14</ele>
  <time>2026-08-28T19:11:59Z</time>
  <course>169.57</course>
  <speed>0.41</speed>
  <fix>3d</fix>
</trkpt>
<trkpt lat="40.07287" lon="-105.230887">
  <ele>1590.39</ele>
  <time>2026-08-28T19:11:59Z</time>
  <course>336.04</course>
  <speed>0.4159326868617084</speed>
  <fix>3d</fix>
</trkpt>
<trkpt lat="40.0728692" lon="-105.2308868">
  <ele>1590.51</ele>
  <time>2026-08-28T19:11:59Z</time>
  <course>336.18</course>
  <speed>0.4159326868617084</speed>
  <fix>3d</fix>
</trkpt>
<trkpt lat="40.0728697" lon="-105.2308868">
  <ele>1590.27</ele>
  <time>2026-08-28T19:11:59Z</time>
  <course>169.61</course>
  <speed>0.42</speed>
  <fix>3d</fix>
</trkpt>
<trkpt lat="40.0728691" lon="-105.2308868">
  <ele>1590.53</ele>
  <time>2026-08-28T19:11:59Z</time>
  <course>336.2</course>
  <speed>0.4159326868617084</speed>
  <fix>3d</fix>
</trkpt>
<trkpt lat="40.0728685" lon="-105.2308866">
  <ele>1590.63</ele>
  <time>2026-08-28T19:11:59Z</time>
  <course>336.3</course>
  <speed>0.4159326868617084</speed>
  <fix>3d</fix>
</trkpt>
<trkpt lat="40.072869" lon="-105.2308865">
  <ele>1590.39</ele>
  <time>2026-08-28T19:11:59Z</time>
  <course>169.63</course>
  <speed>0.42</speed>
  <fix>3d</fix>
</trkpt>
<trkpt lat="40.0728684" lon="-105.2308866">
  <ele>1590.65</ele>
  <time>2026-08-28T19:11:59Z</time>
  <course>336.33</course>
  <speed>0.4159326868617084</speed>
  <fix>3d</fix>
</trkpt>
<trkpt lat="40.0728677" lon="-105.2308864">
  <ele>1590.76</ele>
  <time>2026-08-28T19:11:59Z</time>
  <course>336.42</course>
  <speed>0.4159326868617084</speed>
  <fix>3d</fix>
</trkpt>
<trkpt lat="40.0728682" lon="-105.2308864">
  <ele>1590.52</ele>
  <time>2026-08-28T19:11:59Z</time>
  <course>169.65</course>
  <speed>0.42</speed>
  <fix>3d</fix>
</trkpt>
<trkpt lat="40.0728677" lon="-105.2308864">
  <ele>1590.76</ele>
  <time>2026-08-28T19:11:59Z</time>
  <course>336.42</course>
  <speed>0.4159326868617084</speed>
  <fix>3d</fix>
</trkpt>
<trkpt lat="40.072867" lon="-105.2308862">
  <ele>1590.89</ele>
  <time>2026-08-28T19:11:59Z</time>
  <course>336.57</course>
  <speed>0.4159326868617084</speed>
  <fix>3d</fix>
</trkpt>
<trkpt lat="40.0728675" lon="-105.2308862">
  <ele>1590.64</ele>
  <time>2026-08-28T19:11:59Z</time>
  <course>169.71</course>
  <speed>0.42</speed>
  <fix>3d</fix>
</trkpt>
<trkpt lat="40.0728669" lon="-105.2308862">
  <ele>1590.91</ele>
  <time>2026-08-28T19:11:59Z</time>
  <course>336.59</course>
  <speed>0.42579337712087534</speed>
  <fix>3d</fix>
</trkpt>
<trkpt lat="40.0728662" lon="-105.230886">
  <ele>1591.01</ele>
  <time>2026-08-28T19:11:59Z</time>
  <course>336.71</course>
  <speed>0.42579337712087534</speed>
  <fix>3d</fix>
</trkpt>
<trkpt lat="40.0728667" lon="-105.230886">
  <ele>1590.77</ele>
  <time>2026-08-28T19:11:59Z</time>
  <course>169.79</course>
  <speed>0.42</speed>
  <fix>3d</fix>
</trkpt>
<trkpt lat="40.0728662" lon="-105.230886">
  <ele>1591.01</ele>
  <time>2026-08-28T19:11:59Z</time>
  <course>336.72</course>
  <speed>0.42579337712087534</speed>
  <fix>3d</fix>
</trkpt>
<trkpt lat="40.0728655" lon="-105.2308859">
  <ele>1591.14</ele>
  <time>2026-08-28T19:11:59Z</time>
  <course>336.81</course>
  <speed>0.42579337712087534</speed>
  <fix>3d</fix>
</trkpt>
<trkpt lat="40.0728659" lon="-105.2308859">
  <ele>1590.89</ele>
  <time>2026-08-28T19:11:59Z</time>
  <course>169.84</course>
  <speed>0.43</speed>
  <fix>3d</fix>
</trkpt>
<trkpt lat="40.0728653" lon="-105.2308858">
  <ele>1591.17</ele>
  <time>2026-08-28T19:11:59Z</time>
  <course>336.85</course>
  <speed>0.42579337712087534</speed>
  <fix>3d</fix>
</trkpt>
<trkpt lat="40.0728647" lon="-105.2308857">
  <ele>1591.26</ele>
  <time>2026-08-28T19:11:59Z</time>
  <course>336.94</course>
  <speed>0.42579337712087534</speed>
  <fix>3d</fix>
</trkpt>
<trkpt lat="40.0728651" lon="-105.2308856">
  <ele>1591.02</ele>
  <time>2026-08-28T19:11:59Z</time>
  <course>169.93</course>
  <speed>0.43</speed>
  <fix>3d</fix>
</trkpt>
<trkpt lat="40.0728646" lon="-105.2308856">
  <ele>1591.28</ele>
  <time>2026-08-28T19:11:59Z</time>
  <course>336.95</course>
  <speed>0.42579337712087534</speed>
  <fix>3d</fix>
</trkpt>
<trkpt lat="40.072864" lon="-105.2308855">
  <ele>1591.38</ele>
  <time>2026-08-28T19:11:59Z</time>
  <course>337.03</course>
  <speed>0.4242640687119285</speed>
  <fix>3d</fix>
</trkpt>
<trkpt lat="40.0728644" lon="-105.2308855">
  <ele>1591.14</ele>
  <time>2026-08-28T19:11:59Z</time>
  <course>170.02</course>
  <speed>0.43</speed>
  <fix>3d</fix>
</trkpt>
<trkpt lat="40.0728638" lon="-105.2308855">
  <ele>1591.4</ele>
  <time>2026-08-28T19:11:59Z</time>
  <course>337.05</course>
  <speed>0.4242640687119285</speed>
  <fix>3d</fix>
</trkpt>
<trkpt lat="40.0728632" lon="-105.2308853">
  <ele>1591.5</ele>
  <time>2026-08-28T19:11:59Z</time>
  <course>337.14</course>
  <speed>0.4242640687119285</speed>
  <fix>3d</fix>
</trkpt>
<trkpt lat="40.0728637" lon="-105.2308854">
  <ele>1591.27</ele>
  <time>2026-08-28T19:11:59Z</time>
  <course>170.06</course>
  <speed>0.43</speed>
  <fix>3d</fix>
</trkpt>
<trkpt lat="40.0728631" lon="-105.2308853">
  <ele>1591.52</ele>
  <time>2026-08-28T19:11:59Z</time>
  <course>337.16</course>
  <speed>0.4242640687119285</speed>
  <fix>3d</fix>
</trkpt>
<trkpt lat="40.0728624" lon="-105.2308851">
  <ele>1591.63</ele>
  <time>2026-08-28T19:11:59Z</time>
  <course>337.27</course>
  <speed>0.4242640687119285</speed>
  <fix>3d</fix>
</trkpt>
<trkpt lat="40.0728629" lon="-105.2308851">
  <ele>1591.4</ele>
  <time>2026-08-28T19:11:59Z</time>
  <course>170.11</course>
  <speed>0.43</speed>
  <fix>3d</fix>
</trkpt>
<trkpt lat="40.0728623" lon="-105.2308851">
  <ele>1591.65</ele>
  <time>2026-08-28T19:11:59Z</time>
  <course>337.29</course>
  <speed>0.4242640687119285</speed>
  <fix>3d</fix>
</trkpt>
<trkpt lat="40.0728617" lon="-105.230885">
  <ele>1591.76</ele>
  <time>2026-08-28T19:11:59Z</time>
  <course>337.39</course>
  <speed>0.4242640687119285</speed>
  <fix>3d</fix>
</trkpt>
<trkpt lat="40.072862" lon="-105.230885">
  <ele>1591.53</ele>
  <time>2026-08-28T19:11:59Z</time>
  <course>170.18</course>
  <speed>0.43</speed>
  <fix>3d</fix>
</trkpt>
<trkpt lat="40.0728615" lon="-105.2308849">
  <ele>1591.78</ele>
  <time>2026-08-28T19:11:59Z</time>
  <course>337.4</course>
  <speed>0.4242640687119285</speed>
  <fix>3d</fix>
</trkpt>
<trkpt lat="40.0728609" lon="-105.2308848">
  <ele>1591.89</ele>
  <time>2026-08-28T19:11:59Z</time>
  <course>337.46</course>
  <speed>0.4242640687119285</speed>
  <fix>3d</fix>
</trkpt>
<trkpt lat="40.0728613" lon="-105.2308848">
  <ele>1591.66</ele>
  <time>2026-08-28T19:11:59Z</time>
  <course>170.25</course>
  <speed>0.43</speed>
  <fix>3d</fix>
</trkpt>
<trkpt lat="40.0728608" lon="-105.2308848">
  <ele>1591.9</ele>
  <time>2026-08-28T19:11:59Z</time>
  <course>337.48</course>
  <speed>0.4242640687119285</speed>
  <fix>3d</fix>
</trkpt>
<trkpt lat="40.0728601" lon="-105.2308846">
  <ele>1592.01</ele>
  <time>2026-08-28T19:11:59Z</time>
  <course>337.58</course>
  <speed>0.4242640687119285</speed>
  <fix>3d</fix>
</trkpt>
<trkpt lat="40.0728606" lon="-105.2308846">
  <ele>1591.79</ele>
  <time>2026-08-28T19:11:59Z</time>
  <course>170.33</course>
  <speed>0.43</speed>
  <fix>3d</fix>
</trkpt>
<trkpt lat="40.07286" lon="-105.2308846">
  <ele>1592.03</ele>
  <time>2026-08-28T19:11:59Z</time>
  <course>337.61</course>
  <speed>0.4242640687119285</speed>
  <fix>3d</fix>
</trkpt>
<trkpt lat="40.0728594" lon="-105.2308845">
  <ele>1592.14</ele>
  <time>2026-08-28T19:11:59Z</time>
  <course>337.68</course>
  <speed>0.4242640687119285</speed>
  <fix>3d</fix>
</trkpt>
<trkpt lat="40.0728598" lon="-105.2308845">
  <ele>1591.91</ele>
  <time>2026-08-28T19:11:59Z</time>
  <course>170.35</course>
  <speed>0.43</speed>
  <fix>3d</fix>
</trkpt>
<trkpt lat="40.0728592" lon="-105.2308844">
  <ele>1592.16</ele>
  <time>2026-08-28T19:11:59Z</time>
  <course>337.69</course>
  <speed>0.4242640687119285</speed>
  <fix>3d</fix>
</trkpt>
<trkpt lat="40.0728586" lon="-105.2308843">
  <ele>1592.27</ele>
  <time>2026-08-28T19:11:59Z</time>
  <course>337.79</course>
  <speed>0.4242640687119285</speed>
  <fix>3d</fix>
</trkpt>
<trkpt lat="40.0728589" lon="-105.2308842">
  <ele>1592.04</ele>
  <time>2026-08-28T19:11:59Z</time>
  <course>170.36</course>
  <speed>0.43</speed>
  <fix>3d</fix>
</trkpt>
<trkpt lat="40.0728586" lon="-105.2308843">
  <ele>1592.27</ele>
  <time>2026-08-28T19:11:59Z</time>
  <course>337.79</course>
  <speed>0.4242640687119285</speed>
  <fix>3d</fix>
</trkpt>
<trkpt lat="40.0728578" lon="-105.2308841">
  <ele>1592.4</ele>
  <time>2026-08-28T19:11:59Z</time>
  <course>337.87</course>
  <speed>0.4242640687119285</speed>
  <fix>3d</fix>
</trkpt>
<trkpt lat="40.0728582" lon="-105.2308841">
  <ele>1592.17</ele>
  <time>2026-08-28T19:11:59Z</time>
  <course>170.34</course>
  <speed>0.43</speed>
  <fix>3d</fix>
</trkpt>
<trkpt lat="40.0728577" lon="-105.2308841">
  <ele>1592.42</ele>
  <time>2026-08-28T19:11:59Z</time>
  <course>337.89</course>
  <speed>0.4242640687119285</speed>
  <fix>3d</fix>
</trkpt>
<trkpt lat="40.072857" lon="-105.230884">
  <ele>1592.53</ele>
  <time>2026-08-28T19:11:59Z</time>
  <course>337.97</course>
  <speed>0.4143669871020132</speed>
  <fix>3d</fix>
</trkpt>
<trkpt lat="40.0728575" lon="-105.230884">
  <ele>1592.3</ele>
  <time>2026-08-28T19:11:59Z</time>
  <course>170.33</course>
  <speed>0.43</speed>
  <fix>3d</fix>
</trkpt>
<trkpt lat="40.0728569" lon="-105.2308839">
  <ele>1592.55</ele>
  <time>2026-08-28T19:11:59Z</time>
  <course>337.98</course>
  <speed>0.4143669871020132</speed>
  <fix>3d</fix>
</trkpt>
<trkpt lat="40.0728563" lon="-105.2308838">
  <ele>1592.65</ele>
  <time>2026-08-28T19:11:59Z</time>
  <course>338.06</course>
  <speed>0.41303752856126763</speed>
  <fix>3d</fix>
</trkpt>
<trkpt lat="40.0728567" lon="-105.2308837">
  <ele>1592.42</ele>
  <time>2026-08-28T19:11:59Z</time>
  <course>170.37</course>
  <speed>0.43</speed>
  <fix>3d</fix>
</trkpt>
<trkpt lat="40.0728562" lon="-105.2308838">
  <ele>1592.67</ele>
  <time>2026-08-28T19:11:59Z</time>
  <course>338.07</course>
  <speed>0.41303752856126763</speed>
  <fix>3d</fix>
</trkpt>
<trkpt lat="40.0728555" lon="-105.2308836">
  <ele>1592.78</ele>
  <time>2026-08-28T19:11:59Z</time>
  <course>338.14</course>
  <speed>0.41303752856126763</speed>
  <fix>3d</fix>
</trkpt>
<trkpt lat="40.0728558" lon="-105.2308836">
  <ele>1592.55</ele>
  <time>2026-08-28T19:11:59Z</time>
  <course>170.38</course>
  <speed>0.43</speed>
  <fix>3d</fix>
</trkpt>
<trkpt lat="40.0728554" lon="-105.2308836">
  <ele>1592.8</ele>
  <time>2026-08-28T19:11:59Z</time>
  <course>338.15</course>
  <speed>0.41303752856126763</speed>
  <fix>3d</fix>
</trkpt>
<trkpt lat="40.0728547" lon="-105.2308835">
  <ele>1592.9</ele>
  <time>2026-08-28T19:11:59Z</time>
  <course>338.22</course>
  <speed>0.41303752856126763</speed>
  <fix>3d</fix>
</trkpt>
<trkpt lat="40.0728551" lon="-105.2308835">
  <ele>1592.67</ele>
  <time>2026-08-28T19:11:59Z</time>
  <course>170.38</course>
  <speed>0.43</speed>
  <fix>3d</fix>
</trkpt>
<trkpt lat="40.0728546" lon="-105.2308834">
  <ele>1592.92</ele>
  <time>2026-08-28T19:11:59Z</time>
  <course>338.23</course>
  <speed>0.41303752856126763</speed>
  <fix>3d</fix>
</trkpt>
<trkpt lat="40.072854" lon="-105.2308833">
  <ele>1593.03</ele>
  <time>2026-08-28T19:11:59Z</time>
  <course>338.29</course>
  <speed>0.41303752856126763</speed>
  <fix>3d</fix>
</trkpt>
<trkpt lat="40.0728544" lon="-105.2308832">
  <ele>1592.8</ele>
  <time>2026-08-28T19:11:59Z</time>
  <course>170.37</course>
  <speed>0.43</speed>
  <fix>3d</fix>
</trkpt>
<trkpt lat="40.0728539" lon="-105.2308833">
  <ele>1593.03</ele>
  <time>2026-08-28T19:11:59Z</time>
  <course>338.29</course>
  <speed>0.41303752856126763</speed>
  <fix>3d</fix>
</trkpt>
<trkpt lat="40.0728532" lon="-105.2308831">
  <ele>1593.16</ele>
  <time>2026-08-28T19:11:59Z</time>
  <course>338.35</course>
  <speed>0.41303752856126763</speed>
  <fix>3d</fix>
</trkpt>
<trkpt lat="40.0728536" lon="-105.2308831">
  <ele>1592.92</ele>
  <time>2026-08-28T19:11:59Z</time>
  <course>170.33</course>
  <speed>0.43</speed>
  <fix>3d</fix>
</trkpt>
<trkpt lat="40.0728531" lon="-105.2308831">
  <ele>1593.18</ele>
  <time>2026-08-28T19:11:59Z</time>
  <course>338.36</course>
  <speed>0.41303752856126763</speed>
  <fix>3d</fix>
</trkpt>
<trkpt lat="40.0728524" lon="-105.230883">
  <ele>1593.29</ele>
  <time>2026-08-28T19:11:59Z</time>
  <course>338.44</course>
  <speed>0.41303752856126763</speed>
  <fix>3d</fix>
</trkpt>
<trkpt lat="40.0728528" lon="-105.2308829">
  <ele>1593.05</ele>
  <time>2026-08-28T19:11:59Z</time>
  <course>170.32</course>
  <speed>0.43</speed>
  <fix>3d</fix>
</trkpt>
<trkpt lat="40.0728523" lon="-105.2308829">
  <ele>1593.3</ele>
  <time>2026-08-28T19:11:59Z</time>
  <course>338.45</course>
  <speed>0.41303752856126763</speed>
  <fix>3d</fix>
</trkpt>
<trkpt lat="40.0728517" lon="-105.2308828">
  <ele>1593.41</ele>
  <time>2026-08-28T19:11:59Z</time>
  <course>338.51</course>
  <speed>0.41303752856126763</speed>
  <fix>3d</fix>
</trkpt>
<trkpt lat="40.0728521" lon="-105.2308827">
  <ele>1593.17</ele>
  <time>2026-08-28T19:11:59Z</time>
  <course>170.35</course>
  <speed>0.43</speed>
  <fix>3d</fix>
</trkpt>
<trkpt lat="40.0728515" lon="-105.2308828">
  <ele>1593.44</ele>
  <time>2026-08-28T19:11:59Z</time>
  <course>338.52</course>
  <speed>0.41303752856126763</speed>
  <fix>3d</fix>
</trkpt>
<trkpt lat="40.0728509" lon="-105.2308826">
  <ele>1593.53</ele>
  <time>2026-08-28T19:11:59Z</time>
  <course>338.58</course>
  <speed>0.41303752856126763</speed>
  <fix>3d</fix>
</trkpt>
<trkpt lat="40.0728512" lon="-105.2308826">
  <ele>1593.3</ele>
  <time>2026-08-28T19:11:59Z</time>
  <course>170.35</course>
  <speed>0.43</speed>
  <fix>3d</fix>
</trkpt>
<trkpt lat="40.0728509" lon="-105.2308826">
  <ele>1593.53</ele>
  <time>2026-08-28T19:11:59Z</time>
  <course>338.58</course>
  <speed>0.41303752856126763</speed>
  <fix>3d</fix>
</trkpt>
<trkpt lat="40.0728501" lon="-105.2308825">
  <ele>1593.64</ele>
  <time>2026-08-28T19:11:59Z</time>
  <course>338.6</course>
  <speed>0.41303752856126763</speed>
  <fix>3d</fix>
</trkpt>
<trkpt lat="40.0728505" lon="-105.2308824">
  <ele>1593.42</ele>
  <time>2026-08-28T19:11:59Z</time>
  <course>170.34</course>
  <speed>0.43</speed>
  <fix>3d</fix>
</trkpt>
<trkpt lat="40.07285" lon="-105.2308825">
  <ele>1593.66</ele>
  <time>2026-08-28T19:11:59Z</time>
  <course>338.62</course>
  <speed>0.41303752856126763</speed>
  <fix>3d</fix>
</trkpt>
<trkpt lat="40.0728494" lon="-105.2308823">
  <ele>1593.77</ele>
  <time>2026-08-28T19:11:59Z</time>
  <course>338.65</course>
  <speed>0.41303752856126763</speed>
  <fix>3d</fix>
</trkpt>
<trkpt lat="40.0728498" lon="-105.2308822">
  <ele>1593.55</ele>
  <time>2026-08-28T19:11:59Z</time>
  <course>170.31</course>
  <speed>0.43</speed>
  <fix>3d</fix>
</trkpt>
<trkpt lat="40.0728494" lon="-105.2308823">
  <ele>1593.77</ele>
  <time>2026-08-28T19:11:59Z</time>
  <course>338.65</course>
  <speed>0.41303752856126763</speed>
  <fix>3d</fix>
</trkpt>
<trkpt lat="40.0728486" lon="-105.2308822">
  <ele>1593.9</ele>
  <time>2026-08-28T19:11:59Z</time>
  <course>338.73</course>
  <speed>0.40311288741492746</speed>
  <fix>3d</fix>
</trkpt>
<trkpt lat="40.072849" lon="-105.2308821">
  <ele>1593.67</ele>
  <time>2026-08-28T19:11:59Z</time>
  <course>170.33</course>
  <speed>0.43</speed>
  <fix>3d</fix>
</trkpt>
<trkpt lat="40.0728485" lon="-105.2308821">
  <ele>1593.92</ele>
  <time>2026-08-28T19:11:59Z</time>
  <course>338.74</course>
  <speed>0.40311288741492746</speed>
  <fix>3d</fix>
</trkpt>
<trkpt lat="40.0728479" lon="-105.230882">
  <ele>1594.03</ele>
  <time>2026-08-28T19:11:59Z</time>
  <course>338.82</course>
  <speed>0.40311288741492746</speed>
  <fix>3d</fix>
</trkpt>
<trkpt lat="40.0728482" lon="-105.2308818">
  <ele>1593.8</ele>
  <time>2026-08-28T19:11:59Z</time>
  <course>170.37</course>
  <speed>0.42</speed>
  <fix>3d</fix>
</trkpt>
<trkpt lat="40.0728478" lon="-105.230882">
  <ele>1594.05</ele>
  <time>2026-08-28T19:11:59Z</time>
  <course>338.83</course>
  <speed>0.40311288741492746</speed>
  <fix>3d</fix>
</trkpt>
<trkpt lat="40.0728471" lon="-105.2308818">
  <ele>1594.16</ele>
  <time>2026-08-28T19:11:59Z</time>
  <course>338.87</course>
  <speed>0.4019950248448356</speed>
  <fix>3d</fix>
</trkpt>
<trkpt lat="40.0728474" lon="-105.2308817">
  <ele>1593.93</ele>
  <time>2026-08-28T19:11:59Z</time>
  <course>170.36</course>
  <speed>0.42</speed>
  <fix>3d</fix>
</trkpt>
<trkpt lat="40.0728471" lon="-105.2308818">
  <ele>1594.16</ele>
  <time>2026-08-28T19:11:59Z</time>
  <course>338.87</course>
  <speed>0.4019950248448356</speed>
  <fix>3d</fix>
</trkpt>
<trkpt lat="40.0728463" lon="-105.2308817">
  <ele>1594.29</ele>
  <time>2026-08-28T19:11:59Z</time>
  <course>338.93</course>
  <speed>0.4019950248448356</speed>
  <fix>3d</fix>
</trkpt>
<trkpt lat="40.0728467" lon="-105.2308816">
  <ele>1594.06</ele>
  <time>2026-08-28T19:11:59Z</time>
  <course>170.35</course>
  <speed>0.42</speed>
  <fix>3d</fix>
</trkpt>
<trkpt lat="40.0728462" lon="-105.2308816">
  <ele>1594.31</ele>
  <time>2026-08-28T19:11:59Z</time>
  <course>338.94</course>
  <speed>0.4019950248448356</speed>
  <fix>3d</fix>
</trkpt>
<trkpt lat="40.0728456" lon="-105.2308815">
  <ele>1594.41</ele>
  <time>2026-08-28T19:11:59Z</time>
  <course>338.99</course>
  <speed>0.4019950248448356</speed>
  <fix>3d</fix>
</trkpt>
<trkpt lat="40.0728459" lon="-105.2308813">
  <ele>1594.18</ele>
  <time>2026-08-28T19:11:59Z</time>
  <course>170.37</course>
  <speed>0.42</speed>
  <fix>3d</fix>
</trkpt>
<trkpt lat="40.0728455" lon="-105.2308815">
  <ele>1594.43</ele>
  <time>2026-08-28T19:11:59Z</time>
  <course>339.0</course>
  <speed>0.4019950248448356</speed>
  <fix>3d</fix>
</trkpt>
<trkpt lat="40.0728448" lon="-105.2308813">
  <ele>1594.53</ele>
  <time>2026-08-28T19:11:59Z</time>
  <course>339.04</course>
  <speed>0.4019950248448356</speed>
  <fix>3d</fix>
</trkpt>
<trkpt lat="40.0728452" lon="-105.2308812">
  <ele>1594.31</ele>
  <time>2026-08-28T19:11:59Z</time>
  <course>170.39</course>
  <speed>0.42</speed>
  <fix>3d</fix>
</trkpt>
<trkpt lat="40.0728448" lon="-105.2308813">
  <ele>1594.53</ele>
  <time>2026-08-28T19:11:59Z</time>
  <course>339.04</course>
  <speed>0.4019950248448356</speed>
  <fix>3d</fix>
</trkpt>
<trkpt lat="40.0728441" lon="-105.2308812">
  <ele>1594.65</ele>
  <time>2026-08-28T19:11:59Z</time>
  <course>339.09</course>
  <speed>0.4019950248448356</speed>
  <fix>3d</fix>
</trkpt>
<trkpt lat="40.0728444" lon="-105.2308811">
  <ele>1594.43</ele>
  <time>2026-08-28T19:11:59Z</time>
  <course>170.41</course>
  <speed>0.42</speed>
  <fix>3d</fix>
</trkpt>
<trkpt lat="40.072844" lon="-105.2308812">
  <ele>1594.67</ele>
  <time>2026-08-28T19:11:59Z</time>
  <course>339.1</course>
  <speed>0.4019950248448356</speed>
  <fix>3d</fix>
</trkpt>
<trkpt lat="40.0728433" lon="-105.230881">
  <ele>1594.77</ele>
  <time>2026-08-28T19:11:59Z</time>
  <course>339.11</course>
  <speed>0.4019950248448356</speed>
  <fix>3d</fix>
</trkpt>
<trkpt lat="40.0728436" lon="-105.2308808">
  <ele>1594.56</ele>
  <time>2026-08-28T19:11:59Z</time>
  <course>170.42</course>
  <speed>0.42</speed>
  <fix>3d</fix>
</trkpt>
<trkpt lat="40.0728433" lon="-105.230881">
  <ele>1594.78</ele>
  <time>2026-08-28T19:11:59Z</time>
  <course>339.12</course>
  <speed>0.3920459156782532</speed>
  <fix>3d</fix>
</trkpt>
<trkpt lat="40.0728426" lon="-105.2308809">
  <ele>1594.9</ele>
  <time>2026-08-28T19:12:00Z</time>
  <course>339.18</course>
  <speed>0.3920459156782532</speed>
  <fix>3d</fix>
</trkpt>
<trkpt lat="40.0728429" lon="-105.2308807">
  <ele>1594.69</ele>
  <time>2026-08-28T19:12:00Z</time>
  <course>170.44</course>
  <speed>0.42</speed>
  <fix>3d</fix>
</trkpt>
<trkpt lat="40.0728425" lon="-105.2308808">
  <ele>1594.93</ele>
  <time>2026-08-28T19:12:00Z</time>
  <course>339.2</course>
  <speed>0.3920459156782532</speed>
  <fix>3d</fix>
</trkpt>
<trkpt lat="40.0728419" lon="-105.2308807">
  <ele>1595.03</ele>
  <time>2026-08-28T19:12:00Z</time>
  <course>339.23</course>
  <speed>0.3920459156782532</speed>
  <fix>3d</fix>
</trkpt>
<trkpt lat="40.0728422" lon="-105.2308806">
  <ele>1594.81</ele>
  <time>2026-08-28T19:12:00Z</time>
  <course>170.5</course>
  <speed>0.41</speed>
  <fix>3d</fix>
</trkpt>
<trkpt lat="40.0728411" lon="-105.2308805">
  <ele>1595.14</ele>
  <time>2026-08-28T19:12:00Z</time>
  <course>339.53</course>
  <speed>0.3920459156782532</speed>
  <fix>3d</fix>
</trkpt>
<trkpt lat="40.0728414" lon="-105.2308804">
  <ele>1594.94</ele>
  <time>2026-08-28T19:12:00Z</time>
  <course>170.73</course>
  <speed>0.41</speed>
  <fix>3d</fix>
</trkpt>
<trkpt lat="40.0728404" lon="-105.2308804">
  <ele>1595.23</ele>
  <time>2026-08-28T19:12:00Z</time>
  <course>340.08</course>
  <speed>0.3920459156782532</speed>
  <fix>3d</fix>
</trkpt>
<trkpt lat="40.0728407" lon="-105.2308803">
  <ele>1595.06</ele>
  <time>2026-08-28T19:12:00Z</time>
  <course>171.01</course>
  <speed>0.41</speed>
  <fix>3d</fix>
</trkpt>
<trkpt lat="40.0728397" lon="-105.2308803">
  <ele>1595.3</ele>
  <time>2026-08-28T19:12:00Z</time>
  <course>340.25</course>
  <speed>0.382099463490856</speed>
  <fix>3d</fix>
</trkpt>
<trkpt lat="40.07284" lon="-105.2308801">
  <ele>1595.14</ele>
  <time>2026-08-28T19:12:00Z</time>
  <course>170.9</course>
  <speed>0.41</speed>
  <fix>3d</fix>
</trkpt>
<trkpt lat="40.0728389" lon="-105.2308801">
  <ele>1595.34</ele>
  <time>2026-08-28T19:12:00Z</time>
  <course>339.34</course>
  <speed>0.3721558813185679</speed>
  <fix>3d</fix>
</trkpt>
<trkpt lat="40.0728392" lon="-105.2308799">
  <ele>1595.2</ele>
  <time>2026-08-28T19:12:00Z</time>
  <course>170.17</course>
  <speed>0.4</speed>
  <fix>3d</fix>
</trkpt>
<trkpt lat="40.0728382" lon="-105.2308799">
  <ele>1595.37</ele>
  <time>2026-08-28T19:12:00Z</time>
  <course>338.62</course>
  <speed>0.37336309405188944</speed>
  <fix>3d</fix>
</trkpt>
<trkpt lat="40.0728385" lon="-105.2308798">
  <ele>1595.24</ele>
  <time>2026-08-28T19:12:00Z</time>
  <course>169.46</course>
  <speed>0.39</speed>
  <fix>3d</fix>
</trkpt>
<trkpt lat="40.0728375" lon="-105.2308797">
  <ele>1595.39</ele>
  <time>2026-08-28T19:12:00Z</time>
  <course>338.39</course>
  <speed>0.3634556369077249</speed>
  <fix>3d</fix>
</trkpt>
<trkpt lat="40.0728378" lon="-105.2308796">
  <ele>1595.27</ele>
  <time>2026-08-28T19:12:00Z</time>
  <course>169.02</course>
  <speed>0.39</speed>
  <fix>3d</fix>
</trkpt>
<trkpt lat="40.0728369" lon="-105.2308796">
  <ele>1595.4</ele>
  <time>2026-08-28T19:12:00Z</time>
  <course>338.36</course>
  <speed>0.3634556369077249</speed>
  <fix>3d</fix>
</trkpt>
<trkpt lat="40.0728371" lon="-105.2308794">
  <ele>1595.29</ele>
  <time>2026-08-28T19:12:00Z</time>
  <course>168.41</course>
  <speed>0.38</speed>
  <fix>3d</fix>
</trkpt>
<trkpt lat="40.0728362" lon="-105.2308794">
  <ele>1595.41</ele>
  <time>2026-08-28T19:12:00Z</time>
  <course>338.34</course>
  <speed>0.35510561809129404</speed>
  <fix>3d</fix>
</trkpt>
<trkpt lat="40.0728364" lon="-105.2308793">
  <ele>1595.3</ele>
  <time>2026-08-28T19:12:00Z</time>
  <course>167.61</course>
  <speed>0.38</speed>
  <fix>3d</fix>
</trkpt>
<trkpt lat="40.0728355" lon="-105.2308792">
  <ele>1595.42</ele>
  <time>2026-08-28T19:12:00Z</time>
  <course>338.36</course>
  <speed>0.35510561809129404</speed>
  <fix>3d</fix>
</trkpt>
<trkpt lat="40.0728358" lon="-105.2308791">
  <ele>1595.31</ele>
  <time>2026-08-28T19:12:00Z</time>
  <course>166.73</course>
  <speed>0.37</speed>
  <fix>3d</fix>
</trkpt>
<trkpt lat="40.0728349" lon="-105.2308789">
  <ele>1595.43</ele>
  <time>2026-08-28T19:12:00Z</time>
  <course>338.39</course>
  <speed>0.34713109915419565</speed>
  <fix>3d</fix>
</trkpt>
<trkpt lat="40.0728352" lon="-105.2308788">
  <ele>1595.32</ele>
  <time>2026-08-28T19:12:00Z</time>
  <course>165.88</course>
  <speed>0.37</speed>
  <fix>3d</fix>
</trkpt>
<trkpt lat="40.0728342" lon="-105.2308787">
  <ele>1595.43</ele>
  <time>2026-08-28T19:12:00Z</time>
  <course>338.42</course>
  <speed>0.34713109915419565</speed>
  <fix>3d</fix>
</trkpt>
<trkpt lat="40.0728345" lon="-105.2308786">
  <ele>1595.32</ele>
  <time>2026-08-28T19:12:00Z</time>
  <course>165.08</course>
  <speed>0.37</speed>
  <fix>3d</fix>
</trkpt>
<trkpt lat="40.0728336" lon="-105.2308785">
  <ele>1595.43</ele>
  <time>2026-08-28T19:12:00Z</time>
  <course>338.45</course>
  <speed>0.33734255586865997</speed>
  <fix>3d</fix>
</trkpt>
<trkpt lat="40.0728338" lon="-105.2308784">
  <ele>1595.33</ele>
  <time>2026-08-28T19:12:00Z</time>
  <course>164.31</course>
  <speed>0.36</speed>
  <fix>3d</fix>
</trkpt>
<trkpt lat="40.072833" lon="-105.2308783">
  <ele>1595.42</ele>
  <time>2026-08-28T19:12:00Z</time>
  <course>338.47</course>
  <speed>0.33955853692699295</speed>
  <fix>3d</fix>
</trkpt>
<trkpt lat="40.0728333" lon="-105.2308782">
  <ele>1595.33</ele>
  <time>2026-08-28T19:12:00Z</time>
  <course>163.53</course>
  <speed>0.36</speed>
  <fix>3d</fix>
</trkpt>
<trkpt lat="40.0728324" lon="-105.230878">
  <ele>1595.42</ele>
  <time>2026-08-28T19:12:00Z</time>
  <course>338.49</course>
  <speed>0.3298484500494128</speed>
  <fix>3d</fix>
</trkpt>
<trkpt lat="40.0728326" lon="-105.2308779">
  <ele>1595.33</ele>
  <time>2026-08-28T19:12:00Z</time>
  <course>162.75</course>
  <speed>0.35</speed>
  <fix>3d</fix>
</trkpt>
<trkpt lat="40.0728317" lon="-105.2308778">
  <ele>1595.42</ele>
  <time>2026-08-28T19:12:00Z</time>
  <course>338.51</course>
  <speed>0.3298484500494128</speed>
  <fix>3d</fix>
</trkpt>
<trkpt lat="40.072832" lon="-105.2308777">
  <ele>1595.33</ele>
  <time>2026-08-28T19:12:00Z</time>
  <course>162.01</course>
  <speed>0.35</speed>
  <fix>3d</fix>
</trkpt>
<trkpt lat="40.0728312" lon="-105.2308775">
  <ele>1595.42</ele>
  <time>2026-08-28T19:12:00Z</time>
  <course>338.55</course>
  <speed>0.32280024783137945</speed>
  <fix>3d</fix>
</trkpt>
<trkpt lat="40.0728314" lon="-105.2308774">
  <ele>1595.33</ele>
  <time>2026-08-28T19:12:00Z</time>
  <course>161.36</course>
  <speed>0.34</speed>
  <fix>3d</fix>
</trkpt>
<trkpt lat="40.0728306" lon="-105.2308772">
  <ele>1595.42</ele>
  <time>2026-08-28T19:12:00Z</time>
  <course>338.54</course>
  <speed>0.32280024783137945</speed>
  <fix>3d</fix>
</trkpt>
<trkpt lat="40.0728308" lon="-105.2308771">
  <ele>1595.34</ele>
  <time>2026-08-28T19:12:00Z</time>
  <course>160.74</course>
  <speed>0.34</speed>
  <fix>3d</fix>
</trkpt>
<trkpt lat="40.07283" lon="-105.230877">
  <ele>1595.42</ele>
  <time>2026-08-28T19:12:00Z</time>
  <course>338.6</course>
  <speed>0.3132091952673165</speed>
  <fix>3d</fix>
</trkpt>
<trkpt lat="40.0728302" lon="-105.2308769">
  <ele>1595.34</ele>
  <time>2026-08-28T19:12:00Z</time>
  <course>160.17</course>
  <speed>0.34</speed>
  <fix>3d</fix>
</trkpt>
<trkpt lat="40.0728294" lon="-105.2308767">
  <ele>1595.42</ele>
  <time>2026-08-28T19:12:00Z</time>
  <course>338.62</course>
  <speed>0.3132091952673165</speed>
  <fix>3d</fix>
</trkpt>
<trkpt lat="40.0728297" lon="-105.2308766">
  <ele>1595.34</ele>
  <time>2026-08-28T19:12:00Z</time>
  <course>159.65</course>
  <speed>0.33</speed>
  <fix>3d</fix>
</trkpt>
<trkpt lat="40.0728289" lon="-105.2308764">
  <ele>1595.43</ele>
  <time>2026-08-28T19:12:00Z</time>
  <course>338.62</course>
  <speed>0.30083217912982646</speed>
  <fix>3d</fix>
</trkpt>
<trkpt lat="40.0728291" lon="-105.2308763">
  <ele>1595.34</ele>
  <time>2026-08-28T19:12:00Z</time>
  <course>159.44</course>
  <speed>0.33</speed>
  <fix>3d</fix>
</trkpt>
<trkpt lat="40.0728283" lon="-105.2308762">
  <ele>1595.43</ele>
  <time>2026-08-28T19:12:00Z</time>
  <course>338.66</course>
  <speed>0.280713376952364</speed>
  <fix>3d</fix>
</trkpt>
<trkpt lat="40.0728285" lon="-105.230876">
  <ele>1595.35</ele>
  <time>2026-08-28T19:12:00Z</time>
  <course>163.37</course>
  <speed>0.31</speed>
  <fix>3d</fix>
</trkpt>
<trkpt lat="40.0728278" lon="-105.2308761">
  <ele>1595.43</ele>
  <time>2026-08-28T19:12:00Z</time>
  <course>338.72</course>
  <speed>0.24</speed>
  <fix>3d</fix>
</trkpt>
<trkpt lat="40.072828" lon="-105.2308759">
  <ele>1595.35</ele>
  <time>2026-08-28T19:12:00Z</time>
  <course>170.68</course>
  <speed>0.29</speed>
  <fix>3d</fix>
</trkpt>
<trkpt lat="40.0728274" lon="-105.230876">
  <ele>1595.43</ele>
  <time>2026-08-28T19:12:00Z</time>
  <course>338.72</course>
  <speed>0.19235384061671343</speed>
  <fix>3d</fix>
</trkpt>
<trkpt lat="40.0728275" lon="-105.2308758">
  <ele>1595.35</ele>
  <time>2026-08-28T19:12:00Z</time>
  <course>171.34</course>
  <speed>0.25</speed>
  <fix>3d</fix>
</trkpt>
<trkpt lat="40.0728271" lon="-105.2308759">
  <ele>1595.44</ele>
  <time>2026-08-28T19:12:00Z</time>
  <course>338.71</course>
  <speed>0.14</speed>
  <fix>3d</fix>
</trkpt>
<trkpt lat="40.0728271" lon="-105.2308757">
  <ele>1595.35</ele>
  <time>2026-08-28T19:12:00Z</time>
  <course>168.55</course>
  <speed>0.2</speed>
  <fix>3d</fix>
</trkpt>
<trkpt lat="40.0728268" lon="-105.2308758">
  <ele>1595.44</ele>
  <time>2026-08-28T19:12:00Z</time>
  <course>338.8</course>
  <speed>0.1</speed>
  <fix>3d</fix>
</trkpt>
<trkpt lat="40.0728268" lon="-105.2308756">
  <ele>1595.36</ele>
  <time>2026-08-28T19:12:00Z</time>
  <course>171.64</course>
  <speed>0.15</speed>
  <fix>3d</fix>
</trkpt>
<trkpt lat="40.0728266" lon="-105.2308757">
  <ele>1595.44</ele>
  <time>2026-08-28T19:12:00Z</time>
  <course>338.8</course>
  <speed>0.0632455532033676</speed>
  <fix>3d</fix>
</trkpt>
<trkpt lat="40.0728266" lon="-105.2308755">
  <ele>1595.36</ele>
  <time>2026-08-28T19:12:00Z</time>
  <course>167.87</course>
  <speed>0.11</speed>
  <fix>3d</fix>
</trkpt>
<trkpt lat="40.0728265" lon="-105.2308757">
  <ele>1595.44</ele>
  <time>2026-08-28T19:12:00Z</time>
  <course>338.81</course>
  <speed>0.04</speed>
  <fix>3d</fix>
</trkpt>
<trkpt lat="40.0728264" lon="-105.2308755">
  <ele>1595.36</ele>
  <time>2026-08-28T19:12:00Z</time>
  <course>162.36</course>
  <speed>0.08</speed>
  <fix>3d</fix>
</trkpt>
<trkpt lat="40.0728264" lon="-105.2308757">
  <ele>1595.44</ele>
  <time>2026-08-28T19:12:00Z</time>
  <course>338.87</course>
  <speed>0.02</speed>
  <fix>3d</fix>
</trkpt>
<trkpt lat="40.0728263" lon="-105.2308755">
  <ele>1595.36</ele>
  <time>2026-08-28T19:12:00Z</time>
  <course>169.1</course>
  <speed>0.05</speed>
  <fix>3d</fix>
</trkpt>
<trkpt lat="40.0728263" lon="-105.2308756">
  <ele>1595.44</ele>
  <time>2026-08-28T19:12:00Z</time>
  <course>338.86</course>
  <speed>0.01</speed>
  <fix>3d</fix>
</trkpt>
<trkpt lat="40.0728262" lon="-105.2308755">
  <ele>1595.35</ele>
  <time>2026-08-28T19:12:00Z</time>
  <course>155.54</course>
  <speed>0.03</speed>
  <fix>3d</fix>
</trkpt>
<trkpt lat="40.0728263" lon="-105.2308756">
  <ele>1595.44</ele>
  <time>2026-08-28T19:12:00Z</time>
  <course>338.87</course>
  <speed>0.01</speed>
  <fix>3d</fix>
</trkpt>
<trkpt lat="40.0728262" lon="-105.2308754">
  <ele>1595.35</ele>
  <time>2026-08-28T19:12:00Z</time>
  <course>154.22</course>
  <speed>0.02</speed>
  <fix>3d</fix>
</trkpt>
<trkpt lat="40.0728263" lon="-105.2308756">
  <ele>1595.44</ele>
  <time>2026-08-28T19:12:00Z</time>
  <course>338.94</course>
  <speed>0.0</speed>
  <fix>3d</fix>
</trkpt>
<trkpt lat="40.0728261" lon="-105.2308754">
  <ele>1595.35</ele>
  <time>2026-08-28T19:12:00Z</time>
  <course>158.6</course>
  <speed>0.01</speed>
  <fix>3d</fix>
</trkpt>
<trkpt lat="40.0728262" lon="-105.2308755">
  <ele>1595.43</ele>
  <time>2026-08-28T19:12:00Z</time>
  <course>338.91</course>
  <speed>0.0</speed>
  <fix>3d</fix>
</trkpt>
<trkpt lat="40.0728261" lon="-105.2308754">
  <ele>1595.35</ele>
  <time>2026-08-28T19:12:00Z</time>
  <course>135.82</course>
  <speed>0.02</speed>
  <fix>3d</fix>
</trkpt>
<trkpt lat="40.0728262" lon="-105.2308755">
  <ele>1595.42</ele>
  <time>2026-08-28T19:12:00Z</time>
  <course>338.96</course>
  <speed>0.0</speed>
  <fix>3d</fix>
</trkpt>
<trkpt lat="40.0728261" lon="-105.2308754">
  <ele>1595.35</ele>
  <time>2026-08-28T19:12:00Z</time>
  <course>145.62</course>
  <speed>0.01</speed>
  <fix>3d</fix>
</trkpt>
<trkpt lat="40.0728262" lon="-105.2308755">
  <ele>1595.42</ele>
  <time>2026-08-28T19:12:00Z</time>
  <course>338.93</course>
  <speed>0.0</speed>
  <fix>3d</fix>
</trkpt>
<trkpt lat="40.0728261" lon="-105.2308753">
  <ele>1595.35</ele>
  <time>2026-08-28T19:12:00Z</time>
  <course>132.24</course>
  <speed>0.02</speed>
  <fix>3d</fix>
</trkpt>
<trkpt lat="40.0728261" lon="-105.2308754">
  <ele>1595.42</ele>
  <time>2026-08-28T19:12:00Z</time>
  <course>338.95</course>
  <speed>0.0</speed>
  <fix>3d</fix>
</trkpt>
<trkpt lat="40.072826" lon="-105.2308752">
  <ele>1595.35</ele>
  <time>2026-08-28T19:12:00Z</time>
  <course>132.02</course>
  <speed>0.02</speed>
  <fix>3d</fix>
</trkpt>
<trkpt lat="40.0728261" lon="-105.2308754">
  <ele>1595.42</ele>
  <time>2026-08-28T19:12:00Z</time>
  <course>338.97</course>
  <speed>0.01414213562373095</speed>
  <fix>3d</fix>
</trkpt>
<trkpt lat="40.072826" lon="-105.2308752">
  <ele>1595.35</ele>
  <time>2026-08-28T19:12:00Z</time>
  <course>132.03</course>
  <speed>0.02</speed>
  <fix>3d</fix>
</trkpt>
<trkpt lat="40.0728261" lon="-105.2308753">
  <ele>1595.42</ele>
  <time>2026-08-28T19:12:00Z</time>
  <course>338.97</course>
  <speed>0.01</speed>
  <fix>3d</fix>
</trkpt>
<trkpt lat="40.072826" lon="-105.2308752">
  <ele>1595.35</ele>
  <time>2026-08-28T19:12:00Z</time>
  <course>126.91</course>
  <speed>0.03</speed>
  <fix>3d</fix>
</trkpt>
<trkpt lat="40.072826" lon="-105.2308753">
  <ele>1595.43</ele>
  <time>2026-08-28T19:12:00Z</time>
  <course>339.02</course>
  <speed>0.01</speed>
  <fix>3d</fix>
</trkpt>
<trkpt lat="40.0728259" lon="-105.2308751">
  <ele>1595.35</ele>
  <time>2026-08-28T19:12:00Z</time>
  <course>129.74</course>
  <speed>0.03</speed>
  <fix>3d</fix>
</trkpt>
<trkpt lat="40.072826" lon="-105.2308752">
  <ele>1595.43</ele>
  <time>2026-08-28T19:12:00Z</time>
  <course>339.0</course>
  <speed>0.01</speed>
  <fix>3d</fix>
</trkpt>
<trkpt lat="40.0728259" lon="-105.230875">
  <ele>1595.36</ele>
  <time>2026-08-28T19:12:00Z</time>
  <course>125.28</course>
  <speed>0.03</speed>
  <fix>3d</fix>
</trkpt>
<trkpt lat="40.0728259" lon="-105.2308752">
  <ele>1595.43</ele>
  <time>2026-08-28T19:12:00Z</time>
  <course>339.07</course>
  <speed>0.01</speed>
  <fix>3d</fix>
</trkpt>
<trkpt lat="40.0728259" lon="-105.230875">
  <ele>1595.36</ele>
  <time>2026-08-28T19:12:00Z</time>
  <course>126.71</course>
  <speed>0.03</speed>
  <fix>3d</fix>
</trkpt>
<trkpt lat="40.0728259" lon="-105.2308751">
  <ele>1595.43</ele>
  <time>2026-08-28T19:12:00Z</time>
  <course>339.04</course>
  <speed>0.01</speed>
  <fix>3d</fix>
</trkpt>
<trkpt lat="40.0728258" lon="-105.2308749">
  <ele>1595.36</ele>
  <time>2026-08-28T19:12:00Z</time>
  <course>123.59</course>
  <speed>0.03</speed>
  <fix>3d</fix>
</trkpt>
<trkpt lat="40.0728259" lon="-105.2308751">
  <ele>1595.43</ele>
  <time>2026-08-28T19:12:00Z</time>
  <course>339.08</course>
  <speed>0.01</speed>
  <fix>3d</fix>
</trkpt>
<trkpt lat="40.0728257" lon="-105.2308748">
  <ele>1595.36</ele>
  <time>2026-08-28T19:12:00Z</time>
  <course>123.76</course>
  <speed>0.03</speed>
  <fix>3d</fix>
</trkpt>
<trkpt lat="40.0728258" lon="-105.230875">
  <ele>1595.43</ele>
  <time>2026-08-28T19:12:00Z</time>
  <course>339.07</course>
  <speed>0.01</speed>
  <fix>3d</fix>
</trkpt>
<trkpt lat="40.0728257" lon="-105.2308748">
  <ele>1595.36</ele>
  <time>2026-08-28T19:12:00Z</time>
  <course>122.26</course>
  <speed>0.03</speed>
  <fix>3d</fix>
</trkpt>
<trkpt lat="40.0728258" lon="-105.2308749">
  <ele>1595.43</ele>
  <time>2026-08-28T19:12:00Z</time>
  <course>339.11</course>
  <speed>0.01</speed>
  <fix>3d</fix>
</trkpt>
<trkpt lat="40.0728256" lon="-105.2308747">
  <ele>1595.36</ele>
  <time>2026-08-28T19:12:00Z</time>
  <course>122.06</course>
  <speed>0.03</speed>
  <fix>3d</fix>
</trkpt>
<trkpt lat="40.0728257" lon="-105.2308748">
  <ele>1595.43</ele>
  <time>2026-08-28T19:12:00Z</time>
  <course>339.1</course>
  <speed>0.01</speed>
  <fix>3d</fix>
</trkpt>
<trkpt lat="40.0728256" lon="-105.2308746">
  <ele>1595.36</ele>
  <time>2026-08-28T19:12:00Z</time>
  <course>121.75</course>
  <speed>0.03</speed>
  <fix>3d</fix>
</trkpt>
<trkpt lat="40.0728257" lon="-105.2308748">
  <ele>1595.44</ele>
  <time>2026-08-28T19:12:00Z</time>
  <course>339.14</course>
  <speed>0.01</speed>
  <fix>3d</fix>
</trkpt>
<trkpt lat="40.0728256" lon="-105.2308745">
  <ele>1595.36</ele>
  <time>2026-08-28T19:12:00Z</time>
  <course>121.35</course>
  <speed>0.04</speed>
  <fix>3d</fix>
</trkpt>
<trkpt lat="40.0728257" lon="-105.2308747">
  <ele>1595.43</ele>
  <time>2026-08-28T19:12:00Z</time>
  <course>339.12</course>
  <speed>0.01</speed>
  <fix>3d</fix>
</trkpt>
<trkpt lat="40.0728256" lon="-105.2308744">
  <ele>1595.36</ele>
  <time>2026-08-28T19:12:00Z</time>
  <course>121.78</course>
  <speed>0.04</speed>
  <fix>3d</fix>
</trkpt>
<trkpt lat="40.0728256" lon="-105.2308746">
  <ele>1595.43</ele>
  <time>2026-08-28T19:12:00Z</time>
  <course>339.17</course>
  <speed>0.01</speed>
  <fix>3d</fix>
</trkpt>
<trkpt lat="40.0728256" lon="-105.2308743">
  <ele>1595.36</ele>
  <time>2026-08-28T19:12:00Z</time>
  <course>120.84</course>
  <speed>0.04</speed>
  <fix>3d</fix>
</trkpt>
<trkpt lat="40.0728256" lon="-105.2308745">
  <ele>1595.42</ele>
  <time>2026-08-28T19:12:00Z</time>
  <course>339.16</course>
  <speed>0.01</speed>
  <fix>3d</fix>
</trkpt>
<trkpt lat="40.0728255" lon="-105.2308743">
  <ele>1595.36</ele>
  <time>2026-08-28T19:12:00Z</time>
  <course>122.27</course>
  <speed>0.03</speed>
  <fix>3d</fix>
</trkpt>
<trkpt lat="40.0728256" lon="-105.2308745">
  <ele>1595.42</ele>
  <time>2026-08-28T19:12:00Z</time>
  <course>339.2</course>
  <speed>0.0</speed>
  <fix>3d</fix>
</trkpt>
<trkpt lat="40.0728255" lon="-105.2308742">
  <ele>1595.36</ele>
  <time>2026-08-28T19:12:00Z</time>
  <course>120.64</course>
  <speed>0.04</speed>
  <fix>3d</fix>
</trkpt>
<trkpt lat="40.0728255" lon="-105.2308744">
  <ele>1595.43</ele>
  <time>2026-08-28T19:12:00Z</time>
  <course>339.15</course>
  <speed>0.01</speed>
  <fix>3d</fix>
</trkpt>
<trkpt lat="40.0728254" lon="-105.2308741">
  <ele>1595.36</ele>
  <time>2026-08-28T19:12:00Z</time>
  <course>122.68</course>
  <speed>0.03</speed>
  <fix>3d</fix>
</trkpt>
<trkpt lat="40.0728255" lon="-105.2308743">
  <ele>1595.43</ele>
  <time>2026-08-28T19:12:00Z</time>
  <course>339.24</course>
  <speed>0.01414213562373095</speed>
  <fix>3d</fix>
</trkpt>
<trkpt lat="40.0728254" lon="-105.230874">
  <ele>1595.36</ele>
  <time>2026-08-28T19:12:00Z</time>
  <course>120.89</course>
  <speed>0.04</speed>
  <fix>3d</fix>
</trkpt>
<trkpt lat="40.0728254" lon="-105.2308742">
  <ele>1595.43</ele>
  <time>2026-08-28T19:12:00Z</time>
  <course>339.21</course>
  <speed>0.01</speed>
  <fix>3d</fix>
</trkpt>
<trkpt lat="40.0728254" lon="-105.230874">
  <ele>1595.36</ele>
  <time>2026-08-28T19:12:00Z</time>
  <course>123.2</course>
  <speed>0.03</speed>
  <fix>3d</fix>
</trkpt>
<trkpt lat="40.0728254" lon="-105.2308741">
  <ele>1595.43</ele>
  <time>2026-08-28T19:12:00Z</time>
  <course>339.25</course>
  <speed>0.01</speed>
  <fix>3d</fix>
</trkpt>
<trkpt lat="40.0728253" lon="-105.2308739">
  <ele>1595.37</ele>
  <time>2026-08-28T19:12:00Z</time>
  <course>122.94</course>
  <speed>0.04</speed>
  <fix>3d</fix>
</trkpt>
<trkpt lat="40.0728254" lon="-105.2308741">
  <ele>1595.44</ele>
  <time>2026-08-28T19:12:00Z</time>
  <course>339.27</course>
  <speed>0.0</speed>
  <fix>3d</fix>
</trkpt>
<trkpt lat="40.0728253" lon="-105.2308738">
  <ele>1595.37</ele>
  <time>2026-08-28T19:12:00Z</time>
  <course>122.43</course>
  <speed>0.03</speed>
  <fix>3d</fix>
</trkpt>
<trkpt lat="40.0728253" lon="-105.230874">
  <ele>1595.44</ele>
  <time>2026-08-28T19:12:00Z</time>
  <course>339.27</course>
  <speed>0.01</speed>
  <fix>3d</fix>
</trkpt>
<trkpt lat="40.0728252" lon="-105.2308737">
  <ele>1595.37</ele>
  <time>2026-08-28T19:12:00Z</time>
  <course>126.14</course>
  <speed>0.03</speed>
  <fix>3d</fix>
</trkpt>
<trkpt lat="40.0728253" lon="-105.2308739">
  <ele>1595.44</ele>
  <time>2026-08-28T19:12:00Z</time>
  <course>339.32</course>
  <speed>0.01414213562373095</speed>
  <fix>3d</fix>
</trkpt>
<trkpt lat="40.0728251" lon="-105.2308736">
  <ele>1595.37</ele>
  <time>2026-08-28T19:12:00Z</time>
  <course>122.57</course>
  <speed>0.04</speed>
  <fix>3d</fix>
</trkpt>
<trkpt lat="40.0728253" lon="-105.2308738">
  <ele>1595.44</ele>
  <time>2026-08-28T19:12:00Z</time>
  <course>339.31</course>
  <speed>0.01</speed>
  <fix>3d</fix>
</trkpt>
<trkpt lat="40.0728251" lon="-105.2308736">
  <ele>1595.37</ele>
  <time>2026-08-28T19:12:00Z</time>
  <course>126.34</course>
  <speed>0.03</speed>
  <fix>3d</fix>
</trkpt>
<trkpt lat="40.0728252" lon="-105.2308737">
  <ele>1595.44</ele>
  <time>2026-08-28T19:12:00Z</time>
  <course>339.33</course>
  <speed>0.01</speed>
  <fix>3d</fix>
</trkpt>
<trkpt lat="40.0728251" lon="-105.2308735">
  <ele>1595.36</ele>
  <time>2026-08-28T19:12:00Z</time>
  <course>126.55</course>
  <speed>0.03</speed>
  <fix>3d</fix>
</trkpt>
<trkpt lat="40.0728252" lon="-105.2308737">
  <ele>1595.44</ele>
  <time>2026-08-28T19:12:00Z</time>
  <course>339.37</course>
  <speed>0.0</speed>
  <fix>3d</fix>
</trkpt>
<trkpt lat="40.072825" lon="-105.2308734">
  <ele>1595.36</ele>
  <time>2026-08-28T19:12:00Z</time>
  <course>122.65</course>
  <speed>0.03</speed>
  <fix>3d</fix>
</trkpt>
<trkpt lat="40.0728251" lon="-105.2308736">
  <ele>1595.43</ele>
  <time>2026-08-28T19:12:00Z</time>
  <course>339.34</course>
  <speed>0.01</speed>
  <fix>3d</fix>
</trkpt>
<trkpt lat="40.072825" lon="-105.2308733">
  <ele>1595.36</ele>
  <time>2026-08-28T19:12:00Z</time>
  <course>127.48</course>
  <speed>0.03</speed>
  <fix>3d</fix>
</trkpt>
<trkpt lat="40.0728251" lon="-105.2308735">
  <ele>1595.43</ele>
  <time>2026-08-28T19:12:00Z</time>
  <course>339.37</course>
  <speed>0.01</speed>
  <fix>3d</fix>
</trkpt>
<trkpt lat="40.072825" lon="-105.2308733">
  <ele>1595.36</ele>
  <time>2026-08-28T19:12:00Z</time>
  <course>125.68</course>
  <speed>0.03</speed>
  <fix>3d</fix>
</trkpt>
<trkpt lat="40.072825" lon="-105.2308734">
  <ele>1595.43</ele>
  <time>2026-08-28T19:12:00Z</time>
  <course>339.4</course>
  <speed>0.0</speed>
  <fix>3d</fix>
</trkpt>
<trkpt lat="40.072825" lon="-105.2308732">
  <ele>1595.36</ele>
  <time>2026-08-28T19:12:00Z</time>
  <course>121.78</course>
  <speed>0.03</speed>
  <fix>3d</fix>
</trkpt>
<trkpt lat="40.072825" lon="-105.2308734">
  <ele>1595.43</ele>
  <time>2026-08-28T19:12:00Z</time>
  <course>339.37</course>
  <speed>0.01</speed>
  <fix>3d</fix>
</trkpt>
<trkpt lat="40.0728249" lon="-105.2308731">
  <ele>1595.36</ele>
  <time>2026-08-28T19:12:00Z</time>
  <course>126.99</course>
  <speed>0.03</speed>
  <fix>3d</fix>
</trkpt>
<trkpt lat="40.072825" lon="-105.2308733">
  <ele>1595.43</ele>
  <time>2026-08-28T19:12:00Z</time>
  <course>339.4</course>
  <speed>0.01</speed>
  <fix>3d</fix>
</trkpt>
<trkpt lat="40.0728249" lon="-105.2308731">
  <ele>1595.36</ele>
  <time>2026-08-28T19:12:00Z</time>
  <course>127.68</course>
  <speed>0.03</speed>
  <fix>3d</fix>
</trkpt>
<trkpt lat="40.0728249" lon="-105.2308732">
  <ele>1595.43</ele>
  <time>2026-08-28T19:12:00Z</time>
  <course>339.44</course>
  <speed>0.0</speed>
  <fix>3d</fix>
</trkpt>
<trkpt lat="40.0728249" lon="-105.230873">
  <ele>1595.36</ele>
  <time>2026-08-28T19:12:00Z</time>
  <course>123.11</course>
  <speed>0.03</speed>
  <fix>3d</fix>
</trkpt>
<trkpt lat="40.0728249" lon="-105.2308732">
  <ele>1595.42</ele>
  <time>2026-08-28T19:12:00Z</time>
  <course>339.43</course>
  <speed>0.0</speed>
  <fix>3d</fix>
</trkpt>
<trkpt lat="40.0728248" lon="-105.2308729">
  <ele>1595.36</ele>
  <time>2026-08-28T19:12:00Z</time>
  <course>125.97</course>
  <speed>0.03</speed>
  <fix>3d</fix>
</trkpt>
<trkpt lat="40.0728249" lon="-105.2308731">
  <ele>1595.42</ele>
  <time>2026-08-28T19:12:00Z</time>
  <course>339.42</course>
  <speed>0.01</speed>
  <fix>3d</fix>
</trkpt>
<trkpt lat="40.0728248" lon="-105.2308729">
  <ele>1595.36</ele>
  <time>2026-08-28T19:12:00Z</time>
  <course>131.45</course>
  <speed>0.03</speed>
  <fix>3d</fix>
</trkpt>
<trkpt lat="40.0728248" lon="-105.230873">
  <ele>1595.42</ele>
  <time>2026-08-28T19:12:00Z</time>
  <course>339.44</course>
  <speed>0.01</speed>
  <fix>3d</fix>
</trkpt>
<trkpt lat="40.0728247" lon="-105.2308728">
  <ele>1595.36</ele>
  <time>2026-08-28T19:12:00Z</time>
  <course>129.63</course>
  <speed>0.03</speed>
  <fix>3d</fix>
</trkpt>
<trkpt lat="40.0728248" lon="-105.230873">
  <ele>1595.43</ele>
  <time>2026-08-28T19:12:00Z</time>
  <course>339.47</course>
  <speed>0.0</speed>
  <fix>3d</fix>
</trkpt>
<trkpt lat="40.0728247" lon="-105.2308727">
  <ele>1595.36</ele>
  <time>2026-08-28T19:12:00Z</time>
  <course>126.31</course>
  <speed>0.03</speed>
  <fix>3d</fix>
</trkpt>
<trkpt lat="40.0728248" lon="-105.2308729">
  <ele>1595.43</ele>
  <time>2026-08-28T19:12:00Z</time>
  <course>339.49</course>
  <speed>0.0</speed>
  <fix>3d</fix>
</trkpt>
<trkpt lat="40.0728247" lon="-105.2308726">
  <ele>1595.36</ele>
  <time>2026-08-28T19:12:00Z</time>
  <course>128.14</course>
  <speed>0.03</speed>
  <fix>3d</fix>
</trkpt>
<trkpt lat="40.0728247" lon="-105.2308728">
  <ele>1595.43</ele>
  <time>2026-08-28T19:12:00Z</time>
  <course>339.48</course>
  <speed>0.01</speed>
  <fix>3d</fix>
</trkpt>
<trkpt lat="40.0728246" lon="-105.2308726">
  <ele>1595.36</ele>
  <time>2026-08-28T19:12:00Z</time>
  <course>132.44</course>
  <speed>0.03</speed>
  <fix>3d</fix>
</trkpt>
<trkpt lat="40.0728247" lon="-105.2308728">
  <ele>1595.44</ele>
  <time>2026-08-28T19:12:00Z</time>
  <course>339.5</course>
  <speed>0.01</speed>
  <fix>3d</fix>
</trkpt>
<trkpt lat="40.0728245" lon="-105.2308726">
  <ele>1595.37</ele>
  <time>2026-08-28T19:12:00Z</time>
  <course>133.78</course>
  <speed>0.03</speed>
  <fix>3d</fix>
</trkpt>
<trkpt lat="40.0728246" lon="-105.2308727">
  <ele>1595.44</ele>
  <time>2026-08-28T19:12:00Z</time>
  <course>339.52</course>
  <speed>0.01</speed>
  <fix>3d</fix>
</trkpt>
<trkpt lat="40.0728245" lon="-105.2308725">
  <ele>1595.37</ele>
  <time>2026-08-28T19:12:00Z</time>
  <course>131.6</course>
  <speed>0.03</speed>
  <fix>3d</fix>
</trkpt>
<trkpt lat="40.0728246" lon="-105.2308727">
  <ele>1595.44</ele>
  <time>2026-08-28T19:12:00Z</time>
  <course>339.54</course>
  <speed>0.01</speed>
  <fix>3d</fix>
</trkpt>
<trkpt lat="40.0728244" lon="-105.2308724">
  <ele>1595.37</ele>
  <time>2026-08-28T19:12:00Z</time>
  <course>128.95</course>
  <speed>0.03</speed>
  <fix>3d</fix>
</trkpt>
<trkpt lat="40.0728246" lon="-105.2308726">
  <ele>1595.44</ele>
  <time>2026-08-28T19:12:00Z</time>
  <course>339.55</course>
  <speed>0.01</speed>
  <fix>3d</fix>
</trkpt>
<trkpt lat="40.0728244" lon="-105.2308724">
  <ele>1595.36</ele>
  <time>2026-08-28T19:12:00Z</time>
  <course>127.79</course>
  <speed>0.03</speed>
  <fix>3d</fix>
</trkpt>
<trkpt lat="40.0728245" lon="-105.2308725">
  <ele>1595.44</ele>
  <time>2026-08-28T19:12:00Z</time>
  <course>339.55</course>
  <speed>0.01</speed>
  <fix>3d</fix>
</trkpt>
<trkpt lat="40.0728244" lon="-105.2308723">
  <ele>1595.36</ele>
  <time>2026-08-28T19:12:00Z</time>
  <course>128.03</course>
  <speed>0.03</speed>
  <fix>3d</fix>
</trkpt>
<trkpt lat="40.0728245" lon="-105.2308725">
  <ele>1595.44</ele>
  <time>2026-08-28T19:12:00Z</time>
  <course>339.56</course>
  <speed>0.0</speed>
  <fix>3d</fix>
</trkpt>
<trkpt lat="40.0728243" lon="-105.2308723">
  <ele>1595.36</ele>
  <time>2026-08-28T19:12:00Z</time>
  <course>128.51</course>
  <speed>0.03</speed>
  <fix>3d</fix>
</trkpt>
<trkpt lat="40.0728244" lon="-105.2308724">
  <ele>1595.44</ele>
  <time>2026-08-28T19:12:00Z</time>
  <course>339.57</course>
  <speed>0.0</speed>
  <fix>3d</fix>
</trkpt>
<trkpt lat="40.0728243" lon="-105.2308722">
  <ele>1595.36</ele>
  <time>2026-08-28T19:12:00Z</time>
  <course>128.67</course>
  <speed>0.03</speed>
  <fix>3d</fix>
</trkpt>
<trkpt lat="40.0728244" lon="-105.2308724">
  <ele>1595.43</ele>
  <time>2026-08-28T19:12:00Z</time>
  <course>339.58</course>
  <speed>0.0</speed>
  <fix>3d</fix>
</trkpt>
<trkpt lat="40.0728243" lon="-105.2308721">
  <ele>1595.36</ele>
  <time>2026-08-28T19:12:00Z</time>
  <course>128.7</course>
  <speed>0.03</speed>
  <fix>3d</fix>
</trkpt>
<trkpt lat="40.0728244" lon="-105.2308723">
  <ele>1595.43</ele>
  <time>2026-08-28T19:12:00Z</time>
  <course>339.59</course>
  <speed>0.0</speed>
  <fix>3d</fix>
</trkpt>
<trkpt lat="40.0728243" lon="-105.2308721">
  <ele>1595.36</ele>
  <time>2026-08-28T19:12:00Z</time>
  <course>128.52</course>
  <speed>0.03</speed>
  <fix>3d</fix>
</trkpt>
<trkpt lat="40.0728243" lon="-105.2308722">
  <ele>1595.43</ele>
  <time>2026-08-28T19:12:00Z</time>
  <course>339.59</course>
  <speed>0.0</speed>
  <fix>3d</fix>
</trkpt>
<trkpt lat="40.0728243" lon="-105.230872">
  <ele>1595.36</ele>
  <time>2026-08-28T19:12:00Z</time>
  <course>128.31</course>
  <speed>0.03</speed>
  <fix>3d</fix>
</trkpt>
<trkpt lat="40.0728243" lon="-105.2308722">
  <ele>1595.43</ele>
  <time>2026-08-28T19:12:00Z</time>
  <course>339.6</course>
  <speed>0.0</speed>
  <fix>3d</fix>
</trkpt>
<trkpt lat="40.0728242" lon="-105.2308719">
  <ele>1595.36</ele>
  <time>2026-08-28T19:12:00Z</time>
  <course>128.33</course>
  <speed>0.02</speed>
  <fix>3d</fix>
</trkpt>
<trkpt lat="40.0728243" lon="-105.2308721">
  <ele>1595.44</ele>
  <time>2026-08-28T19:12:00Z</time>
  <course>339.61</course>
  <speed>0.0</speed>
  <fix>3d</fix>
</trkpt>
<trkpt lat="40.0728242" lon="-105.2308719">
  <ele>1595.36</ele>
  <time>2026-08-28T19:12:00Z</time>
  <course>128.51</course>
  <speed>0.02</speed>
  <fix>3d</fix>
</trkpt>
<trkpt lat="40.0728242" lon="-105.2308721">
  <ele>1595.44</ele>
  <time>2026-08-28T19:12:00Z</time>
  <course>339.63</course>
  <speed>0.0</speed>
  <fix>3d</fix>
</trkpt>
<trkpt lat="40.0728242" lon="-105.2308719">
  <ele>1595.36</ele>
  <time>2026-08-28T19:12:00Z</time>
  <course>128.88</course>
  <speed>0.02</speed>
  <fix>3d</fix>
</trkpt>
<trkpt lat="40.0728242" lon="-105.230872">
  <ele>1595.44</ele>
  <time>2026-08-28T19:12:00Z</time>
  <course>339.64</course>
  <speed>0.0</speed>
  <fix>3d</fix>
</trkpt>
<trkpt lat="40.0728241" lon="-105.2308718">
  <ele>1595.35</ele>
  <time>2026-08-28T19:12:00Z</time>
  <course>129.34</course>
  <speed>0.02</speed>
  <fix>3d</fix>
</trkpt>
<trkpt lat="40.0728242" lon="-105.230872">
  <ele>1595.44</ele>
  <time>2026-08-28T19:12:00Z</time>
  <course>339.64</course>
  <speed>0.0</speed>
  <fix>3d</fix>
</trkpt>
<trkpt lat="40.0728241" lon="-105.2308717">
  <ele>1595.35</ele>
  <time>2026-08-28T19:12:00Z</time>
  <course>129.45</course>
  <speed>0.02</speed>
  <fix>3d</fix>
</trkpt>
<trkpt lat="40.0728242" lon="-105.2308719">
  <ele>1595.43</ele>
  <time>2026-08-28T19:12:00Z</time>
  <course>339.65</course>
  <speed>0.0</speed>
  <fix>3d</fix>
</trkpt>
<trkpt lat="40.0728241" lon="-105.2308717">
  <ele>1595.35</ele>
  <time>2026-08-28T19:12:00Z</time>
  <course>129.14</course>
  <speed>0.02</speed>
  <fix>3d</fix>
</trkpt>
<trkpt lat="40.0728241" lon="-105.2308719">
  <ele>1595.42</ele>
  <time>2026-08-28T19:12:00Z</time>
  <course>339.65</course>
  <speed>0.0</speed>
  <fix>3d</fix>
</trkpt>
<trkpt lat="40.072824" lon="-105.2308716">
  <ele>1595.35</ele>
  <time>2026-08-28T19:12:00Z</time>
  <course>128.37</course>
  <speed>0.02</speed>
  <fix>3d</fix>
</trkpt>
<trkpt lat="40.0728241" lon="-105.2308718">
  <ele>1595.42</ele>
  <time>2026-08-28T19:12:00Z</time>
  <course>339.65</course>
  <speed>0.0</speed>
  <fix>3d</fix>
</trkpt>
<trkpt lat="40.072824" lon="-105.2308716">
  <ele>1595.35</ele>
  <time>2026-08-28T19:12:00Z</time>
  <course>127.62</course>
  <speed>0.02</speed>
  <fix>3d</fix>
</trkpt>
<trkpt lat="40.0728241" lon="-105.2308717">
  <ele>1595.42</ele>
  <time>2026-08-28T19:12:00Z</time>
  <course>339.66</course>
  <speed>0.0</speed>
  <fix>3d</fix>
</trkpt>
<trkpt lat="40.072824" lon="-105.2308715">
  <ele>1595.35</ele>
  <time>2026-08-28T19:12:00Z</time>
  <course>128.05</course>
  <speed>0.02</speed>
  <fix>3d</fix>
</trkpt>
<trkpt lat="40.072824" lon="-105.2308717">
  <ele>1595.42</ele>
  <time>2026-08-28T19:12:00Z</time>
  <course>339.66</course>
  <speed>0.0</speed>
  <fix>3d</fix>
</trkpt>
<trkpt lat="40.0728239" lon="-105.2308714">
  <ele>1595.35</ele>
  <time>2026-08-28T19:12:00Z</time>
  <course>129.16</course>
  <speed>0.02</speed>
  <fix>3d</fix>
</trkpt>
<trkpt lat="40.072824" lon="-105.2308716">
  <ele>1595.42</ele>
  <time>2026-08-28T19:12:00Z</time>
  <course>339.66</course>
  <speed>0.0</speed>
  <fix>3d</fix>
</trkpt>
<trkpt lat="40.0728238" lon="-105.2308714">
  <ele>1595.35</ele>
  <time>2026-08-28T19:12:00Z</time>
  <course>129.93</course>
  <speed>0.02</speed>
  <fix>3d</fix>
</trkpt>
<trkpt lat="40.072824" lon="-105.2308716">
  <ele>1595.42</ele>
  <time>2026-08-28T19:12:00Z</time>
  <course>339.69</course>
  <speed>0.0</speed>
  <fix>3d</fix>
</trkpt>
<trkpt lat="40.0728238" lon="-105.2308714">
  <ele>1595.35</ele>
  <time>2026-08-28T19:12:00Z</time>
  <course>130.45</course>
  <speed>0.03</speed>
  <fix>3d</fix>
</trkpt>
<trkpt lat="40.0728239" lon="-105.2308715">
  <ele>1595.42</ele>
  <time>2026-08-28T19:12:00Z</time>
  <course>339.7</course>
  <speed>0.0</speed>
  <fix>3d</fix>
</trkpt>
<trkpt lat="40.0728238" lon="-105.2308713">
  <ele>1595.36</ele>
  <time>2026-08-28T19:12:00Z</time>
  <course>130.82</course>
  <speed>0.03</speed>
  <fix>3d</fix>
</trkpt>
<trkpt lat="40.0728239" lon="-105.2308715">
  <ele>1595.43</ele>
  <time>2026-08-28T19:12:00Z</time>
  <course>339.71</course>
  <speed>0.0</speed>
  <fix>3d</fix>
</trkpt>
<trkpt lat="40.0728237" lon="-105.2308712">
  <ele>1595.36</ele>
  <time>2026-08-28T19:12:00Z</time>
  <course>131.19</course>
  <speed>0.03</speed>
  <fix>3d</fix>
</trkpt>
<trkpt lat="40.0728238" lon="-105.2308714">
  <ele>1595.42</ele>
  <time>2026-08-28T19:12:00Z</time>
  <course>339.72</course>
  <speed>0.01</speed>
  <fix>3d</fix>
</trkpt>
<trkpt lat="40.0728237" lon="-105.2308712">
  <ele>1595.36</ele>
  <time>2026-08-28T19:12:00Z</time>
  <course>131.85</course>
  <speed>0.03</speed>
  <fix>3d</fix>
</trkpt>
<trkpt lat="40.0728238" lon="-105.2308714">
  <ele>1595.42</ele>
  <time>2026-08-28T19:12:00Z</time>
  <course>339.72</course>
  <speed>0.01</speed>
  <fix>3d</fix>
</trkpt>
<trkpt lat="40.0728237" lon="-105.2308712">
  <ele>1595.36</ele>
  <time>2026-08-28T19:12:00Z</time>
  <course>132.19</course>
  <speed>0.02</speed>
  <fix>3d</fix>
</trkpt>
<trkpt lat="40.0728238" lon="-105.2308713">
  <ele>1595.43</ele>
  <time>2026-08-28T19:12:00Z</time>
  <course>339.72</course>
  <speed>0.0</speed>
  <fix>3d</fix>
</trkpt>
<trkpt lat="40.0728237" lon="-105.2308711">
  <ele>1595.36</ele>
  <time>2026-08-28T19:12:00Z</time>
  <course>132.03</course>
  <speed>0.02</speed>
  <fix>3d</fix>
</trkpt>
<trkpt lat="40.0728237" lon="-105.2308713">
  <ele>1595.43</ele>
  <time>2026-08-28T19:12:00Z</time>
  <course>339.73</course>
  <speed>0.0</speed>
  <fix>3d</fix>
</trkpt>
<trkpt lat="40.0728236" lon="-105.2308711">
  <ele>1595.37</ele>
  <time>2026-08-28T19:12:00Z</time>
  <course>132.63</course>
  <speed>0.02</speed>
  <fix>3d</fix>
</trkpt>
<trkpt lat="40.0728237" lon="-105.2308712">
  <ele>1595.43</ele>
  <time>2026-08-28T19:12:00Z</time>
  <course>339.74</course>
  <speed>0.0</speed>
  <fix>3d</fix>
</trkpt>
<trkpt lat="40.0728236" lon="-105.230871">
  <ele>1595.37</ele>
  <time>2026-08-28T19:12:00Z</time>
  <course>133.33</course>
  <speed>0.02</speed>
  <fix>3d</fix>
</trkpt>
<trkpt lat="40.0728237" lon="-105.2308712">
  <ele>1595.43</ele>
  <time>2026-08-28T19:12:00Z</time>
  <course>339.76</course>
  <speed>0.0</speed>
  <fix>3d</fix>
</trkpt>
<trkpt lat="40.0728236" lon="-105.2308709">
  <ele>1595.37</ele>
  <time>2026-08-28T19:12:00Z</time>
  <course>133.01</course>
  <speed>0.02</speed>
  <fix>3d</fix>
</trkpt>
<trkpt lat="40.0728236" lon="-105.2308711">
  <ele>1595.43</ele>
  <time>2026-08-28T19:12:00Z</time>
  <course>339.76</course>
  <speed>0.0</speed>
  <fix>3d</fix>
</trkpt>
<trkpt lat="40.0728235" lon="-105.2308709">
  <ele>1595.37</ele>
  <time>2026-08-28T19:12:00Z</time>
  <course>132.32</course>
  <speed>0.02</speed>
  <fix>3d</fix>
</trkpt>
<trkpt lat="40.0728236" lon="-105.2308711">
  <ele>1595.43</ele>
  <time>2026-08-28T19:12:00Z</time>
  <course>339.77</course>
  <speed>0.0</speed>
  <fix>3d</fix>
</trkpt>
<trkpt lat="40.0728235" lon="-105.2308709">
  <ele>1595.37</ele>
  <time>2026-08-28T19:12:00Z</time>
  <course>130.98</course>
  <speed>0.02</speed>
  <fix>3d</fix>
</trkpt>
<trkpt lat="40.0728236" lon="-105.230871">
  <ele>1595.43</ele>
  <time>2026-08-28T19:12:00Z</time>
  <course>339.77</course>
  <speed>0.0</speed>
  <fix>3d</fix>
</trkpt>
<trkpt lat="40.0728235" lon="-105.2308708">
  <ele>1595.37</ele>
  <time>2026-08-28T19:12:00Z</time>
  <course>128.29</course>
  <speed>0.02</speed>
  <fix>3d</fix>
</trkpt>
<trkpt lat="40.0728235" lon="-105.230871">
  <ele>1595.43</ele>
  <time>2026-08-28T19:12:00Z</time>
  <course>339.77</course>
  <speed>0.0</speed>
  <fix>3d</fix>
</trkpt>
<trkpt lat="40.0728234" lon="-105.2308707">
  <ele>1595.37</ele>
  <time>2026-08-28T19:12:00Z</time>
  <course>124.95</course>
  <speed>0.02</speed>
  <fix>3d</fix>
</trkpt>
<trkpt lat="40.0728235" lon="-105.2308709">
  <ele>1595.44</ele>
  <time>2026-08-28T19:12:00Z</time>
  <course>339.78</course>
  <speed>0.0</speed>
  <fix>3d</fix>
</trkpt>
<trkpt lat="40.0728234" lon="-105.2308707">
  <ele>1595.37</ele>
  <time>2026-08-28T19:12:00Z</time>
  <course>122.72</course>
  <speed>0.02</speed>
  <fix>3d</fix>
</trkpt>
<trkpt lat="40.0728235" lon="-105.2308708">
  <ele>1595.43</ele>
  <time>2026-08-28T19:12:00Z</time>
  <course>339.8</course>
  <speed>0.0</speed>
  <fix>3d</fix>
</trkpt>
<trkpt lat="40.0728234" lon="-105.2308706">
  <ele>1595.37</ele>
  <time>2026-08-28T19:12:00Z</time>
  <course>121.71</course>
  <speed>0.02</speed>
  <fix>3d</fix>
</trkpt>
<trkpt lat="40.0728235" lon="-105.2308708">
  <ele>1595.43</ele>
  <time>2026-08-28T19:12:00Z</time>
  <course>339.8</course>
  <speed>0.0</speed>
  <fix>3d</fix>
</trkpt>
<trkpt lat="40.0728234" lon="-105.2308705">
  <ele>1595.37</ele>
  <time>2026-08-28T19:12:00Z</time>
  <course>121.14</course>
  <speed>0.02</speed>
  <fix>3d</fix>
</trkpt>
<trkpt lat="40.0728234" lon="-105.2308707">
  <ele>1595.43</ele>
  <time>2026-08-28T19:12:00Z</time>
  <course>339.8</course>
  <speed>0.0</speed>
  <fix>3d</fix>
</trkpt>
<trkpt lat="40.0728233" lon="-105.2308705">
  <ele>1595.37</ele>
  <time>2026-08-28T19:12:00Z</time>
  <course>120.49</course>
  <speed>0.02</speed>
  <fix>3d</fix>
</trkpt>
<trkpt lat="40.0728234" lon="-105.2308707">
  <ele>1595.43</ele>
  <time>2026-08-28T19:12:00Z</time>
  <course>339.81</course>
  <speed>0.0</speed>
  <fix>3d</fix>
</trkpt>
<trkpt lat="40.0728232" lon="-105.2308705">
  <ele>1595.37</ele>
  <time>2026-08-28T19:12:00Z</time>
  <course>120.16</course>
  <speed>0.02</speed>
  <fix>3d</fix>
</trkpt>
<trkpt lat="40.0728234" lon="-105.2308706">
  <ele>1595.43</ele>
  <time>2026-08-28T19:12:00Z</time>
  <course>339.81</course>
  <speed>0.0</speed>
  <fix>3d</fix>
</trkpt>
<trkpt lat="40.0728232" lon="-105.2308704">
  <ele>1595.37</ele>
  <time>2026-08-28T19:12:00Z</time>
  <course>122.7</course>
  <speed>0.02</speed>
  <fix>3d</fix>
</trkpt>
<trkpt lat="40.0728233" lon="-105.2308706">
  <ele>1595.43</ele>
  <time>2026-08-28T19:12:00Z</time>
  <course>339.81</course>
  <speed>0.0</speed>
  <fix>3d</fix>
</trkpt>
<trkpt lat="40.0728232" lon="-105.2308704">
  <ele>1595.37</ele>
  <time>2026-08-28T19:12:00Z</time>
  <course>128.73</course>
  <speed>0.02</speed>
  <fix>3d</fix>
</trkpt>
<trkpt lat="40.0728233" lon="-105.2308705">
  <ele>1595.43</ele>
  <time>2026-08-28T19:12:00Z</time>
  <course>339.82</course>
  <speed>0.0</speed>
  <fix>3d</fix>
</trkpt>
<trkpt lat="40.0728232" lon="-105.2308703">
  <ele>1595.37</ele>
  <time>2026-08-28T19:12:00Z</time>
  <course>132.71</course>
  <speed>0.02</speed>
  <fix>3d</fix>
</trkpt>
<trkpt lat="40.0728233" lon="-105.2308705">
  <ele>1595.43</ele>
  <time>2026-08-28T19:12:00Z</time>
  <course>339.83</course>
  <speed>0.0</speed>
  <fix>3d</fix>
</trkpt>
<trkpt lat="40.0728231" lon="-105.2308702">
  <ele>1595.37</ele>
  <time>2026-08-28T19:12:00Z</time>
  <course>131.42</course>
  <speed>0.02</speed>
  <fix>3d</fix>
</trkpt>
<trkpt lat="40.0728232" lon="-105.2308704">
  <ele>1595.43</ele>
  <time>2026-08-28T19:12:00Z</time>
  <course>339.83</course>
  <speed>0.0</speed>
  <fix>3d</fix>
</trkpt>
<trkpt lat="40.0728231" lon="-105.2308702">
  <ele>1595.37</ele>
  <time>2026-08-28T19:12:00Z</time>
  <course>127.62</course>
  <speed>0.02</speed>
  <fix>3d</fix>
</trkpt>
<trkpt lat="40.0728232" lon="-105.2308704">
  <ele>1595.43</ele>
  <time>2026-08-28T19:12:00Z</time>
  <course>339.83</course>
  <speed>0.0</speed>
  <fix>3d</fix>
</trkpt>
<trkpt lat="40.0728231" lon="-105.2308702">
  <ele>1595.37</ele>
  <time>2026-08-28T19:12:00Z</time>
  <course>124.45</course>
  <speed>0.02</speed>
  <fix>3d</fix>
</trkpt>
<trkpt lat="40.0728232" lon="-105.2308703">
  <ele>1595.43</ele>
  <time>2026-08-28T19:12:00Z</time>
  <course>339.84</course>
  <speed>0.0</speed>
  <fix>3d</fix>
</trkpt>
<trkpt lat="40.0728231" lon="-105.2308701">
  <ele>1595.37</ele>
  <time>2026-08-28T19:12:00Z</time>
  <course>123.74</course>
  <speed>0.02</speed>
  <fix>3d</fix>
</trkpt>
<trkpt lat="40.0728231" lon="-105.2308703">
  <ele>1595.43</ele>
  <time>2026-08-28T19:12:00Z</time>
  <course>339.85</course>
  <speed>0.0</speed>
  <fix>3d</fix>
</trkpt>
<trkpt lat="40.0728231" lon="-105.23087">
  <ele>1595.37</ele>
  <time>2026-08-28T19:12:00Z</time>
  <course>123.56</course>
  <speed>0.02</speed>
  <fix>3d</fix>
</trkpt>
<trkpt lat="40.0728231" lon="-105.2308702">
  <ele>1595.44</ele>
  <time>2026-08-28T19:12:00Z</time>
  <course>339.85</course>
  <speed>0.0</speed>
  <fix>3d</fix>
</trkpt>
<trkpt lat="40.072823" lon="-105.23087">
  <ele>1595.37</ele>
  <time>2026-08-28T19:12:00Z</time>
  <course>121.0</course>
  <speed>0.03</speed>
  <fix>3d</fix>
</trkpt>
<trkpt lat="40.0728231" lon="-105.2308701">
  <ele>1595.44</ele>
  <time>2026-08-28T19:12:00Z</time>
  <course>339.86</course>
  <speed>0.0</speed>
  <fix>3d</fix>
</trkpt>
<trkpt lat="40.072823" lon="-105.2308699">
  <ele>1595.36</ele>
  <time>2026-08-28T19:12:00Z</time>
  <course>117.09</course>
  <speed>0.03</speed>
  <fix>3d</fix>
</trkpt>
<trkpt lat="40.0728231" lon="-105.2308701">
  <ele>1595.43</ele>
  <time>2026-08-28T19:12:00Z</time>
  <course>339.87</course>
  <speed>0.0</speed>
  <fix>3d</fix>
</trkpt>
<trkpt lat="40.072823" lon="-105.2308699">
  <ele>1595.36</ele>
  <time>2026-08-28T19:12:00Z</time>
  <course>114.07</course>
  <speed>0.03</speed>
  <fix>3d</fix>
</trkpt>
<trkpt lat="40.0728231" lon="-105.23087">
  <ele>1595.43</ele>
  <time>2026-08-28T19:12:01Z</time>
  <course>339.86</course>
  <speed>0.0</speed>
  <fix>3d</fix>
</trkpt>
<trkpt lat="40.072823" lon="-105.2308698">
  <ele>1595.36</ele>
  <time>2026-08-28T19:12:01Z</time>
  <course>113.42</course>
  <speed>0.03</speed>
  <fix>3d</fix>
</trkpt>
<trkpt lat="40.072823" lon="-105.2308699">
  <ele>1595.43</ele>
  <time>2026-08-28T19:12:01Z</time>
  <course>339.87</course>
  <speed>0.0</speed>
  <fix>3d</fix>
</trkpt>
<trkpt lat="40.072823" lon="-105.2308697">
  <ele>1595.36</ele>
  <time>2026-08-28T19:12:01Z</time>
  <course>115.9</course>
  <speed>0.02</speed>
  <fix>3d</fix>
</trkpt>
<trkpt lat="40.072823" lon="-105.2308699">
  <ele>1595.44</ele>
  <time>2026-08-28T19:12:01Z</time>
  <course>339.88</course>
  <speed>0.0</speed>
  <fix>3d</fix>
</trkpt>
<trkpt lat="40.0728229" lon="-105.2308697">
  <ele>1595.36</ele>
  <time>2026-08-28T19:12:01Z</time>
  <course>118.12</course>
  <speed>0.02</speed>
  <fix>3d</fix>
</trkpt>
<trkpt lat="40.072823" lon="-105.2308698">
  <ele>1595.44</ele>
  <time>2026-08-28T19:12:01Z</time>
  <course>339.88</course>
  <speed>0.0</speed>
  <fix>3d</fix>
</trkpt>
<trkpt lat="40.0728229" lon="-105.2308696">
  <ele>1595.36</ele>
  <time>2026-08-28T19:12:01Z</time>
  <course>117.57</course>
  <speed>0.02</speed>
  <fix>3d</fix>
</trkpt>
<trkpt lat="40.072823" lon="-105.2308698">
  <ele>1595.44</ele>
  <time>2026-08-28T19:12:01Z</time>
  <course>339.9</course>
  <speed>0.0</speed>
  <fix>3d</fix>
</trkpt>
<trkpt lat="40.0728229" lon="-105.2308695">
  <ele>1595.36</ele>
  <time>2026-08-28T19:12:01Z</time>
  <course>117.92</course>
  <speed>0.02</speed>
  <fix>3d</fix>
</trkpt>
<trkpt lat="40.072823" lon="-105.2308697">
  <ele>1595.45</ele>
  <time>2026-08-28T19:12:01Z</time>
  <course>339.89</course>
  <speed>0.0</speed>
  <fix>3d</fix>
</trkpt>
<trkpt lat="40.0728229" lon="-105.2308695">
  <ele>1595.36</ele>
  <time>2026-08-28T19:12:01Z</time>
  <course>120.06</course>
  <speed>0.02</speed>
  <fix>3d</fix>
</trkpt>
<trkpt lat="40.0728229" lon="-105.2308697">
  <ele>1595.45</ele>
  <time>2026-08-28T19:12:01Z</time>
  <course>339.92</course>
  <speed>0.0</speed>
  <fix>3d</fix>
</trkpt>
<trkpt lat="40.0728228" lon="-105.2308695">
  <ele>1595.35</ele>
  <time>2026-08-28T19:12:01Z</time>
  <course>122.48</course>
  <speed>0.02</speed>
  <fix>3d</fix>
</trkpt>
<trkpt lat="40.0728229" lon="-105.2308696">
  <ele>1595.45</ele>
  <time>2026-08-28T19:12:01Z</time>
  <course>339.91</course>
  <speed>0.0</speed>
  <fix>3d</fix>
</trkpt>
<trkpt lat="40.0728228" lon="-105.2308694">
  <ele>1595.35</ele>
  <time>2026-08-28T19:12:01Z</time>
  <course>124.38</course>
  <speed>0.02</speed>
  <fix>3d</fix>
</trkpt>
<trkpt lat="40.0728229" lon="-105.2308696">
  <ele>1595.44</ele>
  <time>2026-08-28T19:12:01Z</time>
  <course>339.93</course>
  <speed>0.0</speed>
  <fix>3d</fix>
</trkpt>
<trkpt lat="40.0728228" lon="-105.2308693">
  <ele>1595.35</ele>
  <time>2026-08-28T19:12:01Z</time>
  <course>125.3</course>
  <speed>0.02</speed>
  <fix>3d</fix>
</trkpt>
<trkpt lat="40.0728229" lon="-105.2308695">
  <ele>1595.44</ele>
  <time>2026-08-28T19:12:01Z</time>
  <course>339.91</course>
  <speed>0.0</speed>
  <fix>3d</fix>
</trkpt>
<trkpt lat="40.0728228" lon="-105.2308693">
  <ele>1595.34</ele>
  <time>2026-08-28T19:12:01Z</time>
  <course>125.48</course>
  <speed>0.02</speed>
  <fix>3d</fix>
</trkpt>
<trkpt lat="40.0728228" lon="-105.2308695">
  <ele>1595.44</ele>
  <time>2026-08-28T19:12:01Z</time>
  <course>339.91</course>
  <speed>0.0</speed>
  <fix>3d</fix>
</trkpt>
<trkpt lat="40.0728227" lon="-105.2308693">
  <ele>1595.34</ele>
  <time>2026-08-28T19:12:01Z</time>
  <course>124.84</course>
  <speed>0.02</speed>
  <fix>3d</fix>
</trkpt>
<trkpt lat="40.0728228" lon="-105.2308694">
  <ele>1595.44</ele>
  <time>2026-08-28T19:12:01Z</time>
  <course>339.92</course>
  <speed>0.0</speed>
  <fix>3d</fix>
</trkpt>
<trkpt lat="40.0728226" lon="-105.2308692">
  <ele>1595.34</ele>
  <time>2026-08-28T19:12:01Z</time>
  <course>124.56</course>
  <speed>0.02</speed>
  <fix>3d</fix>
</trkpt>
<trkpt lat="40.0728228" lon="-105.2308694">
  <ele>1595.44</ele>
  <time>2026-08-28T19:12:01Z</time>
  <course>339.92</course>
  <speed>0.0</speed>
  <fix>3d</fix>
</trkpt>
<trkpt lat="40.0728226" lon="-105.2308692">
  <ele>1595.33</ele>
  <time>2026-08-28T19:12:01Z</time>
  <course>126.03</course>
  <speed>0.02</speed>
  <fix>3d</fix>
</trkpt>
<trkpt lat="40.0728227" lon="-105.2308693">
  <ele>1595.44</ele>
  <time>2026-08-28T19:12:01Z</time>
  <course>339.93</course>
  <speed>0.0</speed>
  <fix>3d</fix>
</trkpt>
<trkpt lat="40.0728226" lon="-105.2308691">
  <ele>1595.33</ele>
  <time>2026-08-28T19:12:01Z</time>
  <course>127.34</course>
  <speed>0.02</speed>
  <fix>3d</fix>
</trkpt>
<trkpt lat="40.0728227" lon="-105.2308693">
  <ele>1595.43</ele>
  <time>2026-08-28T19:12:01Z</time>
  <course>339.94</course>
  <speed>0.0</speed>
  <fix>3d</fix>
</trkpt>
<trkpt lat="40.0728225" lon="-105.230869">
  <ele>1595.33</ele>
  <time>2026-08-28T19:12:01Z</time>
  <course>128.22</course>
  <speed>0.02</speed>
  <fix>3d</fix>
</trkpt>
<trkpt lat="40.0728227" lon="-105.2308692">
  <ele>1595.43</ele>
  <time>2026-08-28T19:12:01Z</time>
  <course>339.92</course>
  <speed>0.01</speed>
  <fix>3d</fix>
</trkpt>
<trkpt lat="40.0728225" lon="-105.230869">
  <ele>1595.33</ele>
  <time>2026-08-28T19:12:01Z</time>
  <course>129.18</course>
  <speed>0.03</speed>
  <fix>3d</fix>
</trkpt>
<trkpt lat="40.0728226" lon="-105.2308692">
  <ele>1595.42</ele>
  <time>2026-08-28T19:12:01Z</time>
  <course>339.92</course>
  <speed>0.01</speed>
  <fix>3d</fix>
</trkpt>
<trkpt lat="40.0728225" lon="-105.2308689">
  <ele>1595.32</ele>
  <time>2026-08-28T19:12:01Z</time>
  <course>129.91</course>
  <speed>0.03</speed>
  <fix>3d</fix>
</trkpt>
<trkpt lat="40.0728226" lon="-105.2308691">
  <ele>1595.42</ele>
  <time>2026-08-28T19:12:01Z</time>
  <course>339.93</course>
  <speed>0.01</speed>
  <fix>3d</fix>
</trkpt>
<trkpt lat="40.0728225" lon="-105.2308688">
  <ele>1595.32</ele>
  <time>2026-08-28T19:12:01Z</time>
  <course>130.92</course>
  <speed>0.03</speed>
  <fix>3d</fix>
</trkpt>
<trkpt lat="40.0728225" lon="-105.230869">
  <ele>1595.42</ele>
  <time>2026-08-28T19:12:01Z</time>
  <course>339.93</course>
  <speed>0.01</speed>
  <fix>3d</fix>
</trkpt>
<trkpt lat="40.0728225" lon="-105.2308688">
  <ele>1595.32</ele>
  <time>2026-08-28T19:12:01Z</time>
  <course>131.94</course>
  <speed>0.03</speed>
  <fix>3d</fix>
</trkpt>
<trkpt lat="40.0728225" lon="-105.230869">
  <ele>1595.41</ele>
  <time>2026-08-28T19:12:01Z</time>
  <course>339.9</course>
  <speed>0.01</speed>
  <fix>3d</fix>
</trkpt>
<trkpt lat="40.0728224" lon="-105.2308688">
  <ele>1595.32</ele>
  <time>2026-08-28T19:12:01Z</time>
  <course>132.72</course>
  <speed>0.03</speed>
  <fix>3d</fix>
</trkpt>
<trkpt lat="40.0728225" lon="-105.2308689">
  <ele>1595.41</ele>
  <time>2026-08-28T19:12:01Z</time>
  <course>339.92</course>
  <speed>0.01</speed>
  <fix>3d</fix>
</trkpt>
<trkpt lat="40.0728224" lon="-105.2308687">
  <ele>1595.32</ele>
  <time>2026-08-28T19:12:01Z</time>
  <course>133.65</course>
  <speed>0.03</speed>
  <fix>3d</fix>
</trkpt>
<trkpt lat="40.0728224" lon="-105.2308689">
  <ele>1595.41</ele>
  <time>2026-08-28T19:12:01Z</time>
  <course>339.9</course>
  <speed>0.01</speed>
  <fix>3d</fix>
</trkpt>
<trkpt lat="40.0728223" lon="-105.2308687">
  <ele>1595.33</ele>
  <time>2026-08-28T19:12:01Z</time>
  <course>134.57</course>
  <speed>0.03</speed>
  <fix>3d</fix>
</trkpt>
<trkpt lat="40.0728224" lon="-105.2308688">
  <ele>1595.41</ele>
  <time>2026-08-28T19:12:01Z</time>
  <course>339.9</course>
  <speed>0.01</speed>
  <fix>3d</fix>
</trkpt>
<trkpt lat="40.0728223" lon="-105.2308686">
  <ele>1595.33</ele>
  <time>2026-08-28T19:12:01Z</time>
  <course>135.57</course>
  <speed>0.03</speed>
  <fix>3d</fix>
</trkpt>
<trkpt lat="40.0728223" lon="-105.2308688">
  <ele>1595.41</ele>
  <time>2026-08-28T19:12:01Z</time>
  <course>339.93</course>
  <speed>0.01</speed>
  <fix>3d</fix>
</trkpt>
<trkpt lat="40.0728222" lon="-105.2308685">
  <ele>1595.33</ele>
  <time>2026-08-28T19:12:01Z</time>
  <course>136.85</course>
  <speed>0.03</speed>
  <fix>3d</fix>
</trkpt>
<trkpt lat="40.0728223" lon="-105.2308687">
  <ele>1595.42</ele>
  <time>2026-08-28T19:12:01Z</time>
  <course>339.92</course>
  <speed>0.01</speed>
  <fix>3d</fix>
</trkpt>
<trkpt lat="40.0728222" lon="-105.2308685">
  <ele>1595.34</ele>
  <time>2026-08-28T19:12:01Z</time>
  <course>137.74</course>
  <speed>0.03</speed>
  <fix>3d</fix>
</trkpt>
<trkpt lat="40.0728222" lon="-105.2308686">
  <ele>1595.42</ele>
  <time>2026-08-28T19:12:01Z</time>
  <course>339.93</course>
  <speed>0.01</speed>
  <fix>3d</fix>
</trkpt>
<trkpt lat="40.0728222" lon="-105.2308684">
  <ele>1595.34</ele>
  <time>2026-08-28T19:12:01Z</time>
  <course>138.42</course>
  <speed>0.03</speed>
  <fix>3d</fix>
</trkpt>
<trkpt lat="40.0728222" lon="-105.2308686">
  <ele>1595.43</ele>
  <time>2026-08-28T19:12:01Z</time>
  <course>339.95</course>
  <speed>0.01</speed>
  <fix>3d</fix>
</trkpt>
<trkpt lat="40.0728221" lon="-105.2308683">
  <ele>1595.34</ele>
  <time>2026-08-28T19:12:01Z</time>
  <course>139.19</course>
  <speed>0.03</speed>
  <fix>3d</fix>
</trkpt>
<trkpt lat="40.0728221" lon="-105.2308685">
  <ele>1595.43</ele>
  <time>2026-08-28T19:12:01Z</time>
  <course>339.97</course>
  <speed>0.01</speed>
  <fix>3d</fix>
</trkpt>
<trkpt lat="40.072822" lon="-105.2308683">
  <ele>1595.35</ele>
  <time>2026-08-28T19:12:01Z</time>
  <course>139.53</course>
  <speed>0.03</speed>
  <fix>3d</fix>
</trkpt>
<trkpt lat="40.0728221" lon="-105.2308685">
  <ele>1595.43</ele>
  <time>2026-08-28T19:12:01Z</time>
  <course>339.95</course>
  <speed>0.04</speed>
  <fix>3d</fix>
</trkpt>
<trkpt lat="40.0728219" lon="-105.2308683">
  <ele>1595.35</ele>
  <time>2026-08-28T19:12:01Z</time>
  <course>113.67</course>
  <speed>0.01</speed>
  <fix>3d</fix>
</trkpt>
<trkpt lat="40.0728222" lon="-105.2308685">
  <ele>1595.44</ele>
  <time>2026-08-28T19:12:01Z</time>
  <course>339.95</course>
  <speed>0.07071067811865475</speed>
  <fix>3d</fix>
</trkpt>
<trkpt lat="40.072822" lon="-105.2308683">
  <ele>1595.35</ele>
  <time>2026-08-28T19:12:01Z</time>
  <course>11.83</course>
  <speed>0.04</speed>
  <fix>3d</fix>
</trkpt>
<trkpt lat="40.0728222" lon="-105.2308685">
  <ele>1595.44</ele>
  <time>2026-08-28T19:12:01Z</time>
  <course>339.98</course>
  <speed>0.044721359549995794</speed>
  <fix>3d</fix>
</trkpt>
<trkpt lat="40.072822" lon="-105.2308683">
  <ele>1595.35</ele>
  <time>2026-08-28T19:12:01Z</time>
  <course>359.54</course>
  <speed>0.05</speed>
  <fix>3d</fix>
</trkpt>
<trkpt lat="40.0728222" lon="-105.2308685">
  <ele>1595.45</ele>
  <time>2026-08-28T19:12:01Z</time>
  <course>340.02</course>
  <speed>0.044721359549995794</speed>
  <fix>3d</fix>
</trkpt>
<trkpt lat="40.0728221" lon="-105.2308683">
  <ele>1595.35</ele>
  <time>2026-08-28T19:12:01Z</time>
  <course>348.23</course>
  <speed>0.03</speed>
  <fix>3d</fix>
</trkpt>
<trkpt lat="40.0728223" lon="-105.2308685">
  <ele>1595.44</ele>
  <time>2026-08-28T19:12:01Z</time>
  <course>340.02</course>
  <speed>0.0412310562561766</speed>
  <fix>3d</fix>
</trkpt>
<trkpt lat="40.0728222" lon="-105.2308683">
  <ele>1595.35</ele>
  <time>2026-08-28T19:12:01Z</time>
  <course>351.74</course>
  <speed>0.03</speed>
  <fix>3d</fix>
</trkpt>
<trkpt lat="40.0728223" lon="-105.2308685">
  <ele>1595.44</ele>
  <time>2026-08-28T19:12:01Z</time>
  <course>340.0</course>
  <speed>0.01</speed>
  <fix>3d</fix>
</trkpt>
<trkpt lat="40.0728222" lon="-105.2308683">
  <ele>1595.35</ele>
  <time>2026-08-28T19:12:01Z</time>
  <course>1.89</course>
  <speed>0.02</speed>
  <fix>3d</fix>
</trkpt>
<trkpt lat="40.0728223" lon="-105.2308685">
  <ele>1595.43</ele>
  <time>2026-08-28T19:12:01Z</time>
  <course>339.98</course>
  <speed>0.01414213562373095</speed>
  <fix>3d</fix>
</trkpt>
<trkpt lat="40.0728223" lon="-105.2308683">
  <ele>1595.34</ele>
  <time>2026-08-28T19:12:01Z</time>
  <course>78.51</course>
  <speed>0.0</speed>
  <fix>3d</fix>
</trkpt>
<trkpt lat="40.0728223" lon="-105.2308685">
  <ele>1595.43</ele>
  <time>2026-08-28T19:12:01Z</time>
  <course>339.98</course>
  <speed>0.01</speed>
  <fix>3d</fix>
</trkpt>
<trkpt lat="40.0728223" lon="-105.2308683">
  <ele>1595.34</ele>
  <time>2026-08-28T19:12:01Z</time>
  <course>69.84</course>
  <speed>0.01</speed>
  <fix>3d</fix>
</trkpt>
<trkpt lat="40.0728223" lon="-105.2308684">
  <ele>1595.43</ele>
  <time>2026-08-28T19:12:01Z</time>
  <course>339.98</course>
  <speed>0.01</speed>
  <fix>3d</fix>
</trkpt>
<trkpt lat="40.0728223" lon="-105.2308682">
  <ele>1595.34</ele>
  <time>2026-08-28T19:12:01Z</time>
  <course>106.07</course>
  <speed>0.01</speed>
  <fix>3d</fix>
</trkpt>
<trkpt lat="40.0728223" lon="-105.2308684">
  <ele>1595.43</ele>
  <time>2026-08-28T19:12:01Z</time>
  <course>339.98</course>
  <speed>0.0</speed>
  <fix>3d</fix>
</trkpt>
<trkpt lat="40.0728223" lon="-105.2308681">
  <ele>1595.34</ele>
  <time>2026-08-28T19:12:01Z</time>
  <course>123.78</course>
  <speed>0.02</speed>
  <fix>3d</fix>
</trkpt>
<trkpt lat="40.0728223" lon="-105.2308683">
  <ele>1595.44</ele>
  <time>2026-08-28T19:12:01Z</time>
  <course>339.98</course>
  <speed>0.0</speed>
  <fix>3d</fix>
</trkpt>
<trkpt lat="40.0728223" lon="-105.2308681">
  <ele>1595.34</ele>
  <time>2026-08-28T19:12:01Z</time>
  <course>104.39</course>
  <speed>0.02</speed>
  <fix>3d</fix>
</trkpt>
<trkpt lat="40.0728223" lon="-105.2308683">
  <ele>1595.44</ele>
  <time>2026-08-28T19:12:01Z</time>
  <course>340.0</course>
  <speed>0.0</speed>
  <fix>3d</fix>
</trkpt>
<trkpt lat="40.0728223" lon="-105.230868">
  <ele>1595.34</ele>
  <time>2026-08-28T19:12:01Z</time>
  <course>121.9</course>
  <speed>0.02</speed>
  <fix>3d</fix>
</trkpt>
<trkpt lat="40.0728223" lon="-105.2308682">
  <ele>1595.44</ele>
  <time>2026-08-28T19:12:01Z</time>
  <course>340.02</course>
  <speed>0.0</speed>
  <fix>3d</fix>
</trkpt>
<trkpt lat="40.0728223" lon="-105.230868">
  <ele>1595.34</ele>
  <time>2026-08-28T19:12:01Z</time>
  <course>115.89</course>
  <speed>0.02</speed>
  <fix>3d</fix>
</trkpt>
<trkpt lat="40.0728223" lon="-105.2308682">
  <ele>1595.44</ele>
  <time>2026-08-28T19:12:01Z</time>
  <course>340.0</course>
  <speed>0.01</speed>
  <fix>3d</fix>
</trkpt>
<trkpt lat="40.0728223" lon="-105.2308679">
  <ele>1595.34</ele>
  <time>2026-08-28T19:12:01Z</time>
  <course>113.13</course>
  <speed>0.02</speed>
  <fix>3d</fix>
</trkpt>
<trkpt lat="40.0728223" lon="-105.2308681">
  <ele>1595.44</ele>
  <time>2026-08-28T19:12:01Z</time>
  <course>340.02</course>
  <speed>0.0</speed>
  <fix>3d</fix>
</trkpt>
<trkpt lat="40.0728222" lon="-105.2308678">
  <ele>1595.33</ele>
  <time>2026-08-28T19:12:01Z</time>
  <course>122.34</course>
  <speed>0.02</speed>
  <fix>3d</fix>
</trkpt>
<trkpt lat="40.0728223" lon="-105.230868">
  <ele>1595.44</ele>
  <time>2026-08-28T19:12:01Z</time>
  <course>340.01</course>
  <speed>0.0</speed>
  <fix>3d</fix>
</trkpt>
<trkpt lat="40.0728222" lon="-105.2308678">
  <ele>1595.33</ele>
  <time>2026-08-28T19:12:01Z</time>
  <course>112.21</course>
  <speed>0.02</speed>
  <fix>3d</fix>
</trkpt>
<trkpt lat="40.0728223" lon="-105.230868">
  <ele>1595.44</ele>
  <time>2026-08-28T19:12:01Z</time>
  <course>340.01</course>
  <speed>0.0</speed>
  <fix>3d</fix>
</trkpt>
<trkpt lat="40.0728222" lon="-105.2308677">
  <ele>1595.33</ele>
  <time>2026-08-28T19:12:01Z</time>
  <course>122.41</course>
  <speed>0.02</speed>
  <fix>3d</fix>
</trkpt>
<trkpt lat="40.0728223" lon="-105.2308679">
  <ele>1595.43</ele>
  <time>2026-08-28T19:12:01Z</time>
  <course>340.02</course>
  <speed>0.0</speed>
  <fix>3d</fix>
</trkpt>
<trkpt lat="40.0728222" lon="-105.2308676">
  <ele>1595.32</ele>
  <time>2026-08-28T19:12:01Z</time>
  <course>116.74</course>
  <speed>0.02</speed>
  <fix>3d</fix>
</trkpt>
<trkpt lat="40.0728222" lon="-105.2308678">
  <ele>1595.43</ele>
  <time>2026-08-28T19:12:01Z</time>
  <course>340.0</course>
  <speed>0.0</speed>
  <fix>3d</fix>
</trkpt>
<trkpt lat="40.0728221" lon="-105.2308676">
  <ele>1595.32</ele>
  <time>2026-08-28T19:12:01Z</time>
  <course>120.13</course>
  <speed>0.02</speed>
  <fix>3d</fix>
</trkpt>
<trkpt lat="40.0728222" lon="-105.2308678">
  <ele>1595.42</ele>
  <time>2026-08-28T19:12:01Z</time>
  <course>340.01</course>
  <speed>0.0</speed>
  <fix>3d</fix>
</trkpt>
<trkpt lat="40.072822" lon="-105.2308676">
  <ele>1595.32</ele>
  <time>2026-08-28T19:12:01Z</time>
  <course>120.59</course>
  <speed>0.02</speed>
  <fix>3d</fix>
</trkpt>
<trkpt lat="40.0728222" lon="-105.2308677">
  <ele>1595.42</ele>
  <time>2026-08-28T19:12:01Z</time>
  <course>339.99</course>
  <speed>0.01</speed>
  <fix>3d</fix>
</trkpt>
<trkpt lat="40.072822" lon="-105.2308675">
  <ele>1595.32</ele>
  <time>2026-08-28T19:12:01Z</time>
  <course>119.9</course>
  <speed>0.02</speed>
  <fix>3d</fix>
</trkpt>
<trkpt lat="40.0728221" lon="-105.2308677">
  <ele>1595.42</ele>
  <time>2026-08-28T19:12:01Z</time>
  <course>340.01</course>
  <speed>0.0</speed>
  <fix>3d</fix>
</trkpt>
<trkpt lat="40.072822" lon="-105.2308675">
  <ele>1595.32</ele>
  <time>2026-08-28T19:12:01Z</time>
  <course>122.88</course>
  <speed>0.02</speed>
  <fix>3d</fix>
</trkpt>
<trkpt lat="40.0728221" lon="-105.2308676">
  <ele>1595.42</ele>
  <time>2026-08-28T19:12:01Z</time>
  <course>339.99</course>
  <speed>0.01</speed>
  <fix>3d</fix>
</trkpt>
<trkpt lat="40.072822" lon="-105.2308674">
  <ele>1595.32</ele>
  <time>2026-08-28T19:12:01Z</time>
  <course>121.54</course>
  <speed>0.02</speed>
  <fix>3d</fix>
</trkpt>
<trkpt lat="40.0728221" lon="-105.2308676">
  <ele>1595.43</ele>
  <time>2026-08-28T19:12:01Z</time>
  <course>340.03</course>
  <speed>0.0</speed>
  <fix>3d</fix>
</trkpt>
<trkpt lat="40.0728219" lon="-105.2308673">
  <ele>1595.32</ele>
  <time>2026-08-28T19:12:01Z</time>
  <course>124.32</course>
  <speed>0.02</speed>
  <fix>3d</fix>
</trkpt>
<trkpt lat="40.072822" lon="-105.2308675">
  <ele>1595.43</ele>
  <time>2026-08-28T19:12:01Z</time>
  <course>340.03</course>
  <speed>0.01</speed>
  <fix>3d</fix>
</trkpt>
<trkpt lat="40.0728219" lon="-105.2308673">
  <ele>1595.32</ele>
  <time>2026-08-28T19:12:01Z</time>
  <course>123.55</course>
  <speed>0.02</speed>
  <fix>3d</fix>
</trkpt>
<trkpt lat="40.072822" lon="-105.2308675">
  <ele>1595.42</ele>
  <time>2026-08-28T19:12:01Z</time>
  <course>340.03</course>
  <speed>0.0</speed>
  <fix>3d</fix>
</trkpt>
<trkpt lat="40.0728219" lon="-105.2308673">
  <ele>1595.33</ele>
  <time>2026-08-28T19:12:01Z</time>
  <course>123.84</course>
  <speed>0.02</speed>
  <fix>3d</fix>
</trkpt>
<trkpt lat="40.072822" lon="-105.2308674">
  <ele>1595.42</ele>
  <time>2026-08-28T19:12:01Z</time>
  <course>340.01</course>
  <speed>0.01</speed>
  <fix>3d</fix>
</trkpt>
<trkpt lat="40.0728219" lon="-105.2308672">
  <ele>1595.33</ele>
  <time>2026-08-28T19:12:01Z</time>
  <course>123.89</course>
  <speed>0.02</speed>
  <fix>3d</fix>
</trkpt>
<trkpt lat="40.072822" lon="-105.2308674">
  <ele>1595.42</ele>
  <time>2026-08-28T19:12:01Z</time>
  <course>340.03</course>
  <speed>0.0</speed>
  <fix>3d</fix>
</trkpt>
<trkpt lat="40.0728219" lon="-105.2308671">
  <ele>1595.33</ele>
  <time>2026-08-28T19:12:01Z</time>
  <course>123.12</course>
  <speed>0.02</speed>
  <fix>3d</fix>
</trkpt>
<trkpt lat="40.0728219" lon="-105.2308673">
  <ele>1595.42</ele>
  <time>2026-08-28T19:12:01Z</time>
  <course>340.01</course>
  <speed>0.0</speed>
  <fix>3d</fix>
</trkpt>
<trkpt lat="40.0728219" lon="-105.2308671">
  <ele>1595.33</ele>
  <time>2026-08-28T19:12:01Z</time>
  <course>123.45</course>
  <speed>0.02</speed>
  <fix>3d</fix>
</trkpt>
<trkpt lat="40.0728219" lon="-105.2308673">
  <ele>1595.42</ele>
  <time>2026-08-28T19:12:01Z</time>
  <course>340.04</course>
  <speed>0.0</speed>
  <fix>3d</fix>
</trkpt>
<trkpt lat="40.0728219" lon="-105.2308671">
  <ele>1595.33</ele>
  <time>2026-08-28T19:12:01Z</time>
  <course>122.45</course>
  <speed>0.02</speed>
  <fix>3d</fix>
</trkpt>
<trkpt lat="40.0728219" lon="-105.2308672">
  <ele>1595.42</ele>
  <time>2026-08-28T19:12:01Z</time>
  <course>340.0</course>
  <speed>0.0</speed>
  <fix>3d</fix>
</trkpt>
<trkpt lat="40.0728218" lon="-105.230867">
  <ele>1595.33</ele>
  <time>2026-08-28T19:12:01Z</time>
  <course>122.61</course>
  <speed>0.02</speed>
  <fix>3d</fix>
</trkpt>
<trkpt lat="40.0728219" lon="-105.2308672">
  <ele>1595.42</ele>
  <time>2026-08-28T19:12:01Z</time>
  <course>340.05</course>
  <speed>0.0</speed>
  <fix>3d</fix>
</trkpt>
<trkpt lat="40.0728218" lon="-105.2308669">
  <ele>1595.33</ele>
  <time>2026-08-28T19:12:01Z</time>
  <course>123.84</course>
  <speed>0.02</speed>
  <fix>3d</fix>
</trkpt>
<trkpt lat="40.0728219" lon="-105.2308671">
  <ele>1595.43</ele>
  <time>2026-08-28T19:12:01Z</time>
  <course>340.03</course>
  <speed>0.0</speed>
  <fix>3d</fix>
</trkpt>
<trkpt lat="40.0728218" lon="-105.2308669">
  <ele>1595.34</ele>
  <time>2026-08-28T19:12:01Z</time>
  <course>121.86</course>
  <speed>0.02</speed>
  <fix>3d</fix>
</trkpt>
<trkpt lat="40.0728218" lon="-105.2308671">
  <ele>1595.43</ele>
  <time>2026-08-28T19:12:01Z</time>
  <course>340.04</course>
  <speed>0.0</speed>
  <fix>3d</fix>
</trkpt>
<trkpt lat="40.0728218" lon="-105.2308668">
  <ele>1595.34</ele>
  <time>2026-08-28T19:12:01Z</time>
  <course>126.21</course>
  <speed>0.02</speed>
  <fix>3d</fix>
</trkpt>
<trkpt lat="40.0728218" lon="-105.230867">
  <ele>1595.43</ele>
  <time>2026-08-28T19:12:01Z</time>
  <course>340.06</course>
  <speed>0.0</speed>
  <fix>3d</fix>
</trkpt>
<trkpt lat="40.0728217" lon="-105.2308668">
  <ele>1595.34</ele>
  <time>2026-08-28T19:12:01Z</time>
  <course>121.73</course>
  <speed>0.02</speed>
  <fix>3d</fix>
</trkpt>
<trkpt lat="40.0728218" lon="-105.230867">
  <ele>1595.43</ele>
  <time>2026-08-28T19:12:01Z</time>
  <course>340.03</course>
  <speed>0.0</speed>
  <fix>3d</fix>
</trkpt>
<trkpt lat="40.0728217" lon="-105.2308667">
  <ele>1595.34</ele>
  <time>2026-08-28T19:12:01Z</time>
  <course>127.27</course>
  <speed>0.02</speed>
  <fix>3d</fix>
</trkpt>
<trkpt lat="40.0728218" lon="-105.2308669">
  <ele>1595.43</ele>
  <time>2026-08-28T19:12:01Z</time>
  <course>340.09</course>
  <speed>0.0</speed>
  <fix>3d</fix>
</trkpt>
<trkpt lat="40.0728217" lon="-105.2308666">
  <ele>1595.34</ele>
  <time>2026-08-28T19:12:01Z</time>
  <course>124.73</course>
  <speed>0.02</speed>
  <fix>3d</fix>
</trkpt>
<trkpt lat="40.0728218" lon="-105.2308669">
  <ele>1595.43</ele>
  <time>2026-08-28T19:12:01Z</time>
  <course>340.06</course>
  <speed>0.0</speed>
  <fix>3d</fix>
</trkpt>
<trkpt lat="40.0728216" lon="-105.2308666">
  <ele>1595.34</ele>
  <time>2026-08-28T19:12:01Z</time>
  <course>124.31</course>
  <speed>0.02</speed>
  <fix>3d</fix>
</trkpt>
<trkpt lat="40.0728217" lon="-105.2308668">
  <ele>1595.42</ele>
  <time>2026-08-28T19:12:01Z</time>
  <course>340.05</course>
  <speed>0.0</speed>
  <fix>3d</fix>
</trkpt>
<trkpt lat="40.0728216" lon="-105.2308666">
  <ele>1595.34</ele>
  <time>2026-08-28T19:12:01Z</time>
  <course>128.55</course>
  <speed>0.02</speed>
  <fix>3d</fix>
</trkpt>
<trkpt lat="40.0728217" lon="-105.2308667">
  <ele>1595.42</ele>
  <time>2026-08-28T19:12:01Z</time>
  <course>340.06</course>
  <speed>0.0</speed>
  <fix>3d</fix>
</trkpt>
<trkpt lat="40.0728216" lon="-105.2308665">
  <ele>1595.34</ele>
  <time>2026-08-28T19:12:01Z</time>
  <course>121.83</course>
  <speed>0.02</speed>
  <fix>3d</fix>
</trkpt>
<trkpt lat="40.0728217" lon="-105.2308667">
  <ele>1595.42</ele>
  <time>2026-08-28T19:12:01Z</time>
  <course>340.03</course>
  <speed>0.0</speed>
  <fix>3d</fix>
</trkpt>
<trkpt lat="40.0728216" lon="-105.2308664">
  <ele>1595.34</ele>
  <time>2026-08-28T19:12:01Z</time>
  <course>124.8</course>
  <speed>0.02</speed>
  <fix>3d</fix>
</trkpt>
<trkpt lat="40.0728216" lon="-105.2308666">
  <ele>1595.43</ele>
  <time>2026-08-28T19:12:01Z</time>
  <course>340.05</course>
  <speed>0.0</speed>
  <fix>3d</fix>
</trkpt>
<trkpt lat="40.0728215" lon="-105.2308664">
  <ele>1595.34</ele>
  <time>2026-08-28T19:12:01Z</time>
  <course>127.41</course>
  <speed>0.02</speed>
  <fix>3d</fix>
</trkpt>
<trkpt lat="40.0728216" lon="-105.2308666">
  <ele>1595.43</ele>
  <time>2026-08-28T19:12:01Z</time>
  <course>340.07</course>
  <speed>0.0</speed>
  <fix>3d</fix>
</trkpt>
<trkpt lat="40.0728214" lon="-105.2308664">
  <ele>1595.35</ele>
  <time>2026-08-28T19:12:01Z</time>
  <course>121.85</course>
  <speed>0.02</speed>
  <fix>3d</fix>
</trkpt>
<trkpt lat="40.0728216" lon="-105.2308665">
  <ele>1595.43</ele>
  <time>2026-08-28T19:12:01Z</time>
  <course>340.05</course>
  <speed>0.0</speed>
  <fix>3d</fix>
</trkpt>
<trkpt lat="40.0728214" lon="-105.2308663">
  <ele>1595.35</ele>
  <time>2026-08-28T19:12:01Z</time>
  <course>126.01</course>
  <speed>0.02</speed>
  <fix>3d</fix>
</trkpt>
<trkpt lat="40.0728215" lon="-105.2308665">
  <ele>1595.43</ele>
  <time>2026-08-28T19:12:01Z</time>
  <course>340.05</course>
  <speed>0.0</speed>
  <fix>3d</fix>
</trkpt>
<trkpt lat="40.0728214" lon="-105.2308662">
  <ele>1595.35</ele>
  <time>2026-08-28T19:12:01Z</time>
  <course>129.7</course>
  <speed>0.02</speed>
  <fix>3d</fix>
</trkpt>
<trkpt lat="40.0728215" lon="-105.2308664">
  <ele>1595.44</ele>
  <time>2026-08-28T19:12:01Z</time>
  <course>340.09</course>
  <speed>0.0</speed>
  <fix>3d</fix>
</trkpt>
<trkpt lat="40.0728214" lon="-105.2308662">
  <ele>1595.35</ele>
  <time>2026-08-28T19:12:01Z</time>
  <course>124.55</course>
  <speed>0.02</speed>
  <fix>3d</fix>
</trkpt>
<trkpt lat="40.0728215" lon="-105.2308664">
  <ele>1595.44</ele>
  <time>2026-08-28T19:12:01Z</time>
  <course>340.11</course>
  <speed>0.0</speed>
  <fix>3d</fix>
</trkpt>
<trkpt lat="40.0728213" lon="-105.2308662">
  <ele>1595.35</ele>
  <time>2026-08-28T19:12:01Z</time>
  <course>124.6</course>
  <speed>0.02</speed>
  <fix>3d</fix>
</trkpt>
<trkpt lat="40.0728214" lon="-105.2308663">
  <ele>1595.44</ele>
  <time>2026-08-28T19:12:01Z</time>
  <course>340.08</course>
  <speed>0.0</speed>
  <fix>3d</fix>
</trkpt>
<trkpt lat="40.0728213" lon="-105.2308661">
  <ele>1595.35</ele>
  <time>2026-08-28T19:12:01Z</time>
  <course>128.82</course>
  <speed>0.02</speed>
  <fix>3d</fix>
</trkpt>
<trkpt lat="40.0728214" lon="-105.2308663">
  <ele>1595.44</ele>
  <time>2026-08-28T19:12:01Z</time>
  <course>340.1</course>
  <speed>0.0</speed>
  <fix>3d</fix>
</trkpt>
<trkpt lat="40.0728213" lon="-105.2308661">
  <ele>1595.35</ele>
  <time>2026-08-28T19:12:01Z</time>
  <course>126.28</course>
  <speed>0.02</speed>
  <fix>3d</fix>
</trkpt>
<trkpt lat="40.0728214" lon="-105.2308662">
  <ele>1595.44</ele>
  <time>2026-08-28T19:12:01Z</time>
  <course>340.12</course>
  <speed>0.0</speed>
  <fix>3d</fix>
</trkpt>
<trkpt lat="40.0728213" lon="-105.230866">
  <ele>1595.35</ele>
  <time>2026-08-28T19:12:01Z</time>
  <course>121.3</course>
  <speed>0.02</speed>
  <fix>3d</fix>
</trkpt>
<trkpt lat="40.0728214" lon="-105.2308662">
  <ele>1595.44</ele>
  <time>2026-08-28T19:12:01Z</time>
  <course>340.11</course>
  <speed>0.0</speed>
  <fix>3d</fix>
</trkpt>
<trkpt lat="40.0728213" lon="-105.2308659">
  <ele>1595.34</ele>
  <time>2026-08-28T19:12:01Z</time>
  <course>121.35</course>
  <speed>0.02</speed>
  <fix>3d</fix>
</trkpt>
<trkpt lat="40.0728213" lon="-105.2308661">
  <ele>1595.45</ele>
  <time>2026-08-28T19:12:01Z</time>
  <course>340.1</course>
  <speed>0.0</speed>
  <fix>3d</fix>
</trkpt>
<trkpt lat="40.0728213" lon="-105.2308659">
  <ele>1595.34</ele>
  <time>2026-08-28T19:12:01Z</time>
  <course>124.27</course>
  <speed>0.02</speed>
  <fix>3d</fix>
</trkpt>
<trkpt lat="40.0728213" lon="-105.2308661">
  <ele>1595.44</ele>
  <time>2026-08-28T19:12:01Z</time>
  <course>340.09</course>
  <speed>0.0</speed>
  <fix>3d</fix>
</trkpt>
<trkpt lat="40.0728212" lon="-105.2308659">
  <ele>1595.34</ele>
  <time>2026-08-28T19:12:01Z</time>
  <course>124.45</course>
  <speed>0.02</speed>
  <fix>3d</fix>
</trkpt>
<trkpt lat="40.0728213" lon="-105.230866">
  <ele>1595.44</ele>
  <time>2026-08-28T19:12:01Z</time>
  <course>340.1</course>
  <speed>0.0</speed>
  <fix>3d</fix>
</trkpt>
<trkpt lat="40.0728212" lon="-105.2308658">
  <ele>1595.34</ele>
  <time>2026-08-28T19:12:01Z</time>
  <course>121.6</course>
  <speed>0.02</speed>
  <fix>3d</fix>
</trkpt>
<trkpt lat="40.0728213" lon="-105.230866">
  <ele>1595.43</ele>
  <time>2026-08-28T19:12:01Z</time>
  <course>340.1</course>
  <speed>0.0</speed>
  <fix>3d</fix>
</trkpt>
<trkpt lat="40.0728212" lon="-105.2308657">
  <ele>1595.33</ele>
  <time>2026-08-28T19:12:01Z</time>
  <course>118.94</course>
  <speed>0.02</speed>
  <fix>3d</fix>
</trkpt>
<trkpt lat="40.0728213" lon="-105.2308659">
  <ele>1595.43</ele>
  <time>2026-08-28T19:12:01Z</time>
  <course>340.1</course>
  <speed>0.0</speed>
  <fix>3d</fix>
</trkpt>
<trkpt lat="40.0728212" lon="-105.2308657">
  <ele>1595.33</ele>
  <time>2026-08-28T19:12:01Z</time>
  <course>118.3</course>
  <speed>0.02</speed>
  <fix>3d</fix>
</trkpt>
<trkpt lat="40.0728212" lon="-105.2308659">
  <ele>1595.42</ele>
  <time>2026-08-28T19:12:01Z</time>
  <course>340.08</course>
  <speed>0.0</speed>
  <fix>3d</fix>
</trkpt>
<trkpt lat="40.0728211" lon="-105.2308657">
  <ele>1595.33</ele>
  <time>2026-08-28T19:12:01Z</time>
  <course>119.53</course>
  <speed>0.02</speed>
  <fix>3d</fix>
</trkpt>
<trkpt lat="40.0728212" lon="-105.2308658">
  <ele>1595.41</ele>
  <time>2026-08-28T19:12:01Z</time>
  <course>340.05</course>
  <speed>0.0</speed>
  <fix>3d</fix>
</trkpt>
<trkpt lat="40.0728211" lon="-105.2308656">
  <ele>1595.33</ele>
  <time>2026-08-28T19:12:01Z</time>
  <course>121.04</course>
  <speed>0.02</speed>
  <fix>3d</fix>
</trkpt>
<trkpt lat="40.0728212" lon="-105.2308658">
  <ele>1595.41</ele>
  <time>2026-08-28T19:12:01Z</time>
  <course>340.03</course>
  <speed>0.0</speed>
  <fix>3d</fix>
</trkpt>
<trkpt lat="40.0728211" lon="-105.2308656">
  <ele>1595.33</ele>
  <time>2026-08-28T19:12:01Z</time>
  <course>121.84</course>
  <speed>0.02</speed>
  <fix>3d</fix>
</trkpt>
<trkpt lat="40.0728212" lon="-105.2308657">
  <ele>1595.41</ele>
  <time>2026-08-28T19:12:01Z</time>
  <course>340.03</course>
  <speed>0.0</speed>
  <fix>3d</fix>
</trkpt>
<trkpt lat="40.0728211" lon="-105.2308655">
  <ele>1595.33</ele>
  <time>2026-08-28T19:12:01Z</time>
  <course>122.1</course>
  <speed>0.02</speed>
  <fix>3d</fix>
</trkpt>
<trkpt lat="40.0728211" lon="-105.2308657">
  <ele>1595.41</ele>
  <time>2026-08-28T19:12:01Z</time>
  <course>340.02</course>
  <speed>0.0</speed>
  <fix>3d</fix>
</trkpt>
<trkpt lat="40.072821" lon="-105.2308654">
  <ele>1595.33</ele>
  <time>2026-08-28T19:12:01Z</time>
  <course>122.29</course>
  <speed>0.02</speed>
  <fix>3d</fix>
</trkpt>
<trkpt lat="40.0728211" lon="-105.2308656">
  <ele>1595.41</ele>
  <time>2026-08-28T19:12:01Z</time>
  <course>340.03</course>
  <speed>0.0</speed>
  <fix>3d</fix>
</trkpt>
<trkpt lat="40.072821" lon="-105.2308654">
  <ele>1595.33</ele>
  <time>2026-08-28T19:12:01Z</time>
  <course>122.67</course>
  <speed>0.02</speed>
  <fix>3d</fix>
</trkpt>
<trkpt lat="40.0728211" lon="-105.2308656">
  <ele>1595.42</ele>
  <time>2026-08-28T19:12:01Z</time>
  <course>340.03</course>
  <speed>0.0</speed>
  <fix>3d</fix>
</trkpt>
<trkpt lat="40.072821" lon="-105.2308654">
  <ele>1595.34</ele>
  <time>2026-08-28T19:12:01Z</time>
  <course>123.27</course>
  <speed>0.02</speed>
  <fix>3d</fix>
</trkpt>
<trkpt lat="40.0728211" lon="-105.2308655">
  <ele>1595.42</ele>
  <time>2026-08-28T19:12:01Z</time>
  <course>340.04</course>
  <speed>0.0</speed>
  <fix>3d</fix>
</trkpt>
<trkpt lat="40.072821" lon="-105.2308653">
  <ele>1595.34</ele>
  <time>2026-08-28T19:12:01Z</time>
  <course>124.06</course>
  <speed>0.02</speed>
  <fix>3d</fix>
</trkpt>
<trkpt lat="40.072821" lon="-105.2308655">
  <ele>1595.43</ele>
  <time>2026-08-28T19:12:01Z</time>
  <course>340.06</course>
  <speed>0.0</speed>
  <fix>3d</fix>
</trkpt>
<trkpt lat="40.0728209" lon="-105.2308652">
  <ele>1595.35</ele>
  <time>2026-08-28T19:12:01Z</time>
  <course>124.47</course>
  <speed>0.02</speed>
  <fix>3d</fix>
</trkpt>
<trkpt lat="40.072821" lon="-105.2308654">
  <ele>1595.44</ele>
  <time>2026-08-28T19:12:01Z</time>
  <course>340.08</course>
  <speed>0.0</speed>
  <fix>3d</fix>
</trkpt>
<trkpt lat="40.0728208" lon="-105.2308652">
  <ele>1595.35</ele>
  <time>2026-08-28T19:12:01Z</time>
  <course>124.52</course>
  <speed>0.02</speed>
  <fix>3d</fix>
</trkpt>
<trkpt lat="40.072821" lon="-105.2308654">
  <ele>1595.45</ele>
  <time>2026-08-28T19:12:01Z</time>
  <course>340.11</course>
  <speed>0.0</speed>
  <fix>3d</fix>
</trkpt>
<trkpt lat="40.0728208" lon="-105.2308652">
  <ele>1595.35</ele>
  <time>2026-08-28T19:12:01Z</time>
  <course>124.61</course>
  <speed>0.02</speed>
  <fix>3d</fix>
</trkpt>
<trkpt lat="40.0728209" lon="-105.2308653">
  <ele>1595.45</ele>
  <time>2026-08-28T19:12:01Z</time>
  <course>340.13</course>
  <speed>0.0</speed>
  <fix>3d</fix>
</trkpt>
<trkpt lat="40.0728208" lon="-105.2308651">
  <ele>1595.36</ele>
  <time>2026-08-28T19:12:01Z</time>
  <course>124.22</course>
  <speed>0.02</speed>
  <fix>3d</fix>
</trkpt>
<trkpt lat="40.0728209" lon="-105.2308653">
  <ele>1595.45</ele>
  <time>2026-08-28T19:12:01Z</time>
  <course>340.13</course>
  <speed>0.0</speed>
  <fix>3d</fix>
</trkpt>
<trkpt lat="40.0728208" lon="-105.230865">
  <ele>1595.35</ele>
  <time>2026-08-28T19:12:01Z</time>
  <course>123.32</course>
  <speed>0.02</speed>
  <fix>3d</fix>
</trkpt>
<trkpt lat="40.0728209" lon="-105.2308652">
  <ele>1595.45</ele>
  <time>2026-08-28T19:12:01Z</time>
  <course>340.13</course>
  <speed>0.0</speed>
  <fix>3d</fix>
</trkpt>
<trkpt lat="40.0728207" lon="-105.230865">
  <ele>1595.35</ele>
  <time>2026-08-28T19:12:01Z</time>
  <course>121.98</course>
  <speed>0.02</speed>
  <fix>3d</fix>
</trkpt>
<trkpt lat="40.0728209" lon="-105.2308652">
  <ele>1595.45</ele>
  <time>2026-08-28T19:12:01Z</time>
  <course>340.13</course>
  <speed>0.0</speed>
  <fix>3d</fix>
</trkpt>
<trkpt lat="40.0728207" lon="-105.2308649">
  <ele>1595.35</ele>
  <time>2026-08-28T19:12:01Z</time>
  <course>120.53</course>
  <speed>0.02</speed>
  <fix>3d</fix>
</trkpt>
<trkpt lat="40.0728208" lon="-105.2308651">
  <ele>1595.44</ele>
  <time>2026-08-28T19:12:01Z</time>
  <course>340.12</course>
  <speed>0.0</speed>
  <fix>3d</fix>
</trkpt>
<trkpt lat="40.0728207" lon="-105.2308649">
  <ele>1595.34</ele>
  <time>2026-08-28T19:12:01Z</time>
  <course>119.44</course>
  <speed>0.02</speed>
  <fix>3d</fix>
</trkpt>
<trkpt lat="40.0728208" lon="-105.2308651">
  <ele>1595.44</ele>
  <time>2026-08-28T19:12:01Z</time>
  <course>340.13</course>
  <speed>0.0</speed>
  <fix>3d</fix>
</trkpt>
<trkpt lat="40.0728207" lon="-105.2308648">
  <ele>1595.34</ele>
  <time>2026-08-28T19:12:01Z</time>
  <course>118.9</course>
  <speed>0.02</speed>
  <fix>3d</fix>
</trkpt>
<trkpt lat="40.0728208" lon="-105.230865">
  <ele>1595.43</ele>
  <time>2026-08-28T19:12:01Z</time>
  <course>340.09</course>
  <speed>0.0</speed>
  <fix>3d</fix>
</trkpt>
<trkpt lat="40.0728207" lon="-105.2308647">
  <ele>1595.33</ele>
  <time>2026-08-28T19:12:01Z</time>
  <course>118.53</course>
  <speed>0.02</speed>
  <fix>3d</fix>
</trkpt>
<trkpt lat="40.0728208" lon="-105.2308649">
  <ele>1595.42</ele>
  <time>2026-08-28T19:12:01Z</time>
  <course>340.08</course>
  <speed>0.0</speed>
  <fix>3d</fix>
</trkpt>
<trkpt lat="40.0728207" lon="-105.2308647">
  <ele>1595.33</ele>
  <time>2026-08-28T19:12:01Z</time>
  <course>118.14</course>
  <speed>0.02</speed>
  <fix>3d</fix>
</trkpt>
<trkpt lat="40.0728207" lon="-105.2308649">
  <ele>1595.42</ele>
  <time>2026-08-28T19:12:01Z</time>
  <course>340.07</course>
  <speed>0.0</speed>
  <fix>3d</fix>
</trkpt>
<trkpt lat="40.0728207" lon="-105.2308647">
  <ele>1595.33</ele>
  <time>2026-08-28T19:12:01Z</time>
  <course>117.96</course>
  <speed>0.02</speed>
  <fix>3d</fix>
</trkpt>
<trkpt lat="40.0728207" lon="-105.2308648">
  <ele>1595.42</ele>
  <time>2026-08-28T19:12:01Z</time>
  <course>340.07</course>
  <speed>0.0</speed>
  <fix>3d</fix>
</trkpt>
<trkpt lat="40.0728207" lon="-105.2308646">
  <ele>1595.33</ele>
  <time>2026-08-28T19:12:01Z</time>
  <course>118.26</course>
  <speed>0.02</speed>
  <fix>3d</fix>
</trkpt>
<trkpt lat="40.0728207" lon="-105.2308648">
  <ele>1595.42</ele>
  <time>2026-08-28T19:12:01Z</time>
  <course>340.09</course>
  <speed>0.0</speed>
  <fix>3d</fix>
</trkpt>
<trkpt lat="40.0728206" lon="-105.2308645">
  <ele>1595.33</ele>
  <time>2026-08-28T19:12:01Z</time>
  <course>119.25</course>
  <speed>0.02</speed>
  <fix>3d</fix>
</trkpt>
<trkpt lat="40.0728207" lon="-105.2308647">
  <ele>1595.42</ele>
  <time>2026-08-28T19:12:01Z</time>
  <course>340.08</course>
  <speed>0.0</speed>
  <fix>3d</fix>
</trkpt>
<trkpt lat="40.0728206" lon="-105.2308645">
  <ele>1595.33</ele>
  <time>2026-08-28T19:12:01Z</time>
  <course>119.41</course>
  <speed>0.02</speed>
  <fix>3d</fix>
</trkpt>
<trkpt lat="40.0728207" lon="-105.2308647">
  <ele>1595.42</ele>
  <time>2026-08-28T19:12:01Z</time>
  <course>340.08</course>
  <speed>0.0</speed>
  <fix>3d</fix>
</trkpt>
<trkpt lat="40.0728206" lon="-105.2308645">
  <ele>1595.33</ele>
  <time>2026-08-28T19:12:01Z</time>
  <course>119.72</course>
  <speed>0.02</speed>
  <fix>3d</fix>
</trkpt>
<trkpt lat="40.0728207" lon="-105.2308646">
  <ele>1595.42</ele>
  <time>2026-08-28T19:12:01Z</time>
  <course>340.09</course>
  <speed>0.0</speed>
  <fix>3d</fix>
</trkpt>
<trkpt lat="40.0728206" lon="-105.2308644">
  <ele>1595.34</ele>
  <time>2026-08-28T19:12:01Z</time>
  <course>121.38</course>
  <speed>0.02</speed>
  <fix>3d</fix>
</trkpt>
<trkpt lat="40.0728206" lon="-105.2308646">
  <ele>1595.42</ele>
  <time>2026-08-28T19:12:01Z</time>
  <course>340.08</course>
  <speed>0.0</speed>
  <fix>3d</fix>
</trkpt>
<trkpt lat="40.0728205" lon="-105.2308644">
  <ele>1595.34</ele>
  <time>2026-08-28T19:12:01Z</time>
  <course>122.56</course>
  <speed>0.02</speed>
  <fix>3d</fix>
</trkpt>
<trkpt lat="40.0728206" lon="-105.2308645">
  <ele>1595.42</ele>
  <time>2026-08-28T19:12:01Z</time>
  <course>340.09</course>
  <speed>0.0</speed>
  <fix>3d</fix>
</trkpt>
<trkpt lat="40.0728205" lon="-105.2308643">
  <ele>1595.34</ele>
  <time>2026-08-28T19:12:01Z</time>
  <course>122.68</course>
  <speed>0.02</speed>
  <fix>3d</fix>
</trkpt>
<trkpt lat="40.0728206" lon="-105.2308645">
  <ele>1595.43</ele>
  <time>2026-08-28T19:12:01Z</time>
  <course>340.08</course>
  <speed>0.0</speed>
  <fix>3d</fix>
</trkpt>
<trkpt lat="40.0728205" lon="-105.2308642">
  <ele>1595.34</ele>
  <time>2026-08-28T19:12:01Z</time>
  <course>122.42</course>
  <speed>0.02</speed>
  <fix>3d</fix>
</trkpt>
<trkpt lat="40.0728206" lon="-105.2308644">
  <ele>1595.43</ele>
  <time>2026-08-28T19:12:01Z</time>
  <course>340.09</course>
  <speed>0.0</speed>
  <fix>3d</fix>
</trkpt>
<trkpt lat="40.0728205" lon="-105.2308642">
  <ele>1595.34</ele>
  <time>2026-08-28T19:12:01Z</time>
  <course>122.95</course>
  <speed>0.02</speed>
  <fix>3d</fix>
</trkpt>
<trkpt lat="40.0728205" lon="-105.2308644">
  <ele>1595.43</ele>
  <time>2026-08-28T19:12:01Z</time>
  <course>340.1</course>
  <speed>0.0</speed>
  <fix>3d</fix>
</trkpt>
<trkpt lat="40.0728204" lon="-105.2308642">
  <ele>1595.34</ele>
  <time>2026-08-28T19:12:01Z</time>
  <course>124.25</course>
  <speed>0.02</speed>
  <fix>3d</fix>
</trkpt>
<trkpt lat="40.0728205" lon="-105.2308643">
  <ele>1595.43</ele>
  <time>2026-08-28T19:12:01Z</time>
  <course>340.1</course>
  <speed>0.0</speed>
  <fix>3d</fix>
</trkpt>
<trkpt lat="40.0728204" lon="-105.2308641">
  <ele>1595.35</ele>
  <time>2026-08-28T19:12:01Z</time>
  <course>125.52</course>
  <speed>0.02</speed>
  <fix>3d</fix>
</trkpt>
<trkpt lat="40.0728205" lon="-105.2308643">
  <ele>1595.44</ele>
  <time>2026-08-28T19:12:01Z</time>
  <course>340.11</course>
  <speed>0.0</speed>
  <fix>3d</fix>
</trkpt>
<trkpt lat="40.0728204" lon="-105.230864">
  <ele>1595.35</ele>
  <time>2026-08-28T19:12:01Z</time>
  <course>126.14</course>
  <speed>0.02</speed>
  <fix>3d</fix>
</trkpt>
<trkpt lat="40.0728205" lon="-105.2308642">
  <ele>1595.44</ele>
  <time>2026-08-28T19:12:01Z</time>
  <course>340.11</course>
  <speed>0.0</speed>
  <fix>3d</fix>
</trkpt>
<trkpt lat="40.0728204" lon="-105.230864">
  <ele>1595.35</ele>
  <time>2026-08-28T19:12:01Z</time>
  <course>125.13</course>
  <speed>0.02</speed>
  <fix>3d</fix>
</trkpt>
<trkpt lat="40.0728204" lon="-105.2308642">
  <ele>1595.44</ele>
  <time>2026-08-28T19:12:01Z</time>
  <course>340.11</course>
  <speed>0.0</speed>
  <fix>3d</fix>
</trkpt>
<trkpt lat="40.0728203" lon="-105.2308639">
  <ele>1595.35</ele>
  <time>2026-08-28T19:12:01Z</time>
  <course>123.37</course>
  <speed>0.02</speed>
  <fix>3d</fix>
</trkpt>
<trkpt lat="40.0728204" lon="-105.2308641">
  <ele>1595.44</ele>
  <time>2026-08-28T19:12:01Z</time>
  <course>340.11</course>
  <speed>0.0</speed>
  <fix>3d</fix>
</trkpt>
<trkpt lat="40.0728202" lon="-105.2308638">
  <ele>1595.34</ele>
  <time>2026-08-28T19:12:01Z</time>
  <course>122.55</course>
  <speed>0.02</speed>
  <fix>3d</fix>
</trkpt>
<trkpt lat="40.0728204" lon="-105.2308641">
  <ele>1595.44</ele>
  <time>2026-08-28T19:12:01Z</time>
  <course>340.11</course>
  <speed>0.0</speed>
  <fix>3d</fix>
</trkpt>
<trkpt lat="40.0728202" lon="-105.2308638">
  <ele>1595.34</ele>
  <time>2026-08-28T19:12:01Z</time>
  <course>122.32</course>
  <speed>0.02</speed>
  <fix>3d</fix>
</trkpt>
<trkpt lat="40.0728203" lon="-105.230864">
  <ele>1595.44</ele>
  <time>2026-08-28T19:12:01Z</time>
  <course>340.11</course>
  <speed>0.0</speed>
  <fix>3d</fix>
</trkpt>
<trkpt lat="40.0728202" lon="-105.2308638">
  <ele>1595.34</ele>
  <time>2026-08-28T19:12:01Z</time>
  <course>122.19</course>
  <speed>0.02</speed>
  <fix>3d</fix>
</trkpt>
<trkpt lat="40.0728203" lon="-105.2308639">
  <ele>1595.44</ele>
  <time>2026-08-28T19:12:01Z</time>
  <course>340.11</course>
  <speed>0.0</speed>
  <fix>3d</fix>
</trkpt>
<trkpt lat="40.0728202" lon="-105.2308637">
  <ele>1595.34</ele>
  <time>2026-08-28T19:12:01Z</time>
  <course>122.93</course>
  <speed>0.02</speed>
  <fix>3d</fix>
</trkpt>
<trkpt lat="40.0728203" lon="-105.2308639">
  <ele>1595.44</ele>
  <time>2026-08-28T19:12:01Z</time>
  <course>340.12</course>
  <speed>0.0</speed>
  <fix>3d</fix>
</trkpt>
<trkpt lat="40.0728201" lon="-105.2308637">
  <ele>1595.34</ele>
  <time>2026-08-28T19:12:02Z</time>
  <course>122.8</course>
  <speed>0.02</speed>
  <fix>3d</fix>
</trkpt>
<trkpt lat="40.0728203" lon="-105.2308638">
  <ele>1595.44</ele>
  <time>2026-08-28T19:12:02Z</time>
  <course>340.12</course>
  <speed>0.0</speed>
  <fix>3d</fix>
</trkpt>
<trkpt lat="40.0728201" lon="-105.2308636">
  <ele>1595.33</ele>
  <time>2026-08-28T19:12:02Z</time>
  <course>119.71</course>
  <speed>0.02</speed>
  <fix>3d</fix>
</trkpt>
<trkpt lat="40.0728202" lon="-105.2308638">
  <ele>1595.44</ele>
  <time>2026-08-28T19:12:02Z</time>
  <course>340.11</course>
  <speed>0.0</speed>
  <fix>3d</fix>
</trkpt>
<trkpt lat="40.0728201" lon="-105.2308635">
  <ele>1595.33</ele>
  <time>2026-08-28T19:12:02Z</time>
  <course>116.84</course>
  <speed>0.02</speed>
  <fix>3d</fix>
</trkpt>
<trkpt lat="40.0728202" lon="-105.2308637">
  <ele>1595.44</ele>
  <time>2026-08-28T19:12:02Z</time>
  <course>340.11</course>
  <speed>0.0</speed>
  <fix>3d</fix>
</trkpt>
<trkpt lat="40.0728201" lon="-105.2308635">
  <ele>1595.33</ele>
  <time>2026-08-28T19:12:02Z</time>
  <course>116.5</course>
  <speed>0.02</speed>
  <fix>3d</fix>
</trkpt>
<trkpt lat="40.0728202" lon="-105.2308637">
  <ele>1595.43</ele>
  <time>2026-08-28T19:12:02Z</time>
  <course>340.11</course>
  <speed>0.0</speed>
  <fix>3d</fix>
</trkpt>
<trkpt lat="40.0728201" lon="-105.2308635">
  <ele>1595.32</ele>
  <time>2026-08-28T19:12:02Z</time>
  <course>118.15</course>
  <speed>0.02</speed>
  <fix>3d</fix>
</trkpt>
<trkpt lat="40.0728202" lon="-105.2308636">
  <ele>1595.43</ele>
  <time>2026-08-28T19:12:02Z</time>
  <course>340.1</course>
  <speed>0.0</speed>
  <fix>3d</fix>
</trkpt>
<trkpt lat="40.0728201" lon="-105.2308634">
  <ele>1595.32</ele>
  <time>2026-08-28T19:12:02Z</time>
  <course>119.6</course>
  <speed>0.02</speed>
  <fix>3d</fix>
</trkpt>
<trkpt lat="40.0728201" lon="-105.2308636">
  <ele>1595.44</ele>
  <time>2026-08-28T19:12:02Z</time>
  <course>340.12</course>
  <speed>0.0</speed>
  <fix>3d</fix>
</trkpt>
<trkpt lat="40.0728201" lon="-105.2308633">
  <ele>1595.32</ele>
  <time>2026-08-28T19:12:02Z</time>
  <course>120.07</course>
  <speed>0.02</speed>
  <fix>3d</fix>
</trkpt>
<trkpt lat="40.0728201" lon="-105.2308635">
  <ele>1595.44</ele>
  <time>2026-08-28T19:12:02Z</time>
  <course>340.11</course>
  <speed>0.0</speed>
  <fix>3d</fix>
</trkpt>
<trkpt lat="40.07282" lon="-105.2308633">
  <ele>1595.32</ele>
  <time>2026-08-28T19:12:02Z</time>
  <course>121.98</course>
  <speed>0.02</speed>
  <fix>3d</fix>
</trkpt>
<trkpt lat="40.0728201" lon="-105.2308635">
  <ele>1595.43</ele>
  <time>2026-08-28T19:12:02Z</time>
  <course>340.11</course>
  <speed>0.0</speed>
  <fix>3d</fix>
</trkpt>
<trkpt lat="40.07282" lon="-105.2308633">
  <ele>1595.32</ele>
  <time>2026-08-28T19:12:02Z</time>
  <course>124.37</course>
  <speed>0.02</speed>
  <fix>3d</fix>
</trkpt>
<trkpt lat="40.0728201" lon="-105.2308634">
  <ele>1595.43</ele>
  <time>2026-08-28T19:12:02Z</time>
  <course>340.1</course>
  <speed>0.0</speed>
  <fix>3d</fix>
</trkpt>
<trkpt lat="40.07282" lon="-105.2308632">
  <ele>1595.32</ele>
  <time>2026-08-28T19:12:02Z</time>
  <course>124.73</course>
  <speed>0.02</speed>
  <fix>3d</fix>
</trkpt>
<trkpt lat="40.0728201" lon="-105.2308634">
  <ele>1595.42</ele>
  <time>2026-08-28T19:12:02Z</time>
  <course>340.11</course>
  <speed>0.0</speed>
  <fix>3d</fix>
</trkpt>
<trkpt lat="40.07282" lon="-105.2308632">
  <ele>1595.32</ele>
  <time>2026-08-28T19:12:02Z</time>
  <course>122.06</course>
  <speed>0.02</speed>
  <fix>3d</fix>
</trkpt>
<trkpt lat="40.07282" lon="-105.2308633">
  <ele>1595.42</ele>
  <time>2026-08-28T19:12:02Z</time>
  <course>340.1</course>
  <speed>0.0</speed>
  <fix>3d</fix>
</trkpt>
<trkpt lat="40.0728199" lon="-105.2308631">
  <ele>1595.32</ele>
  <time>2026-08-28T19:12:02Z</time>
  <course>118.15</course>
  <speed>0.02</speed>
  <fix>3d</fix>
</trkpt>
<trkpt lat="40.07282" lon="-105.2308633">
  <ele>1595.41</ele>
  <time>2026-08-28T19:12:02Z</time>
  <course>340.1</course>
  <speed>0.0</speed>
  <fix>3d</fix>
</trkpt>
<trkpt lat="40.0728199" lon="-105.230863">
  <ele>1595.32</ele>
  <time>2026-08-28T19:12:02Z</time>
  <course>117.94</course>
  <speed>0.02</speed>
  <fix>3d</fix>
</trkpt>
<trkpt lat="40.07282" lon="-105.2308632">
  <ele>1595.42</ele>
  <time>2026-08-28T19:12:02Z</time>
  <course>340.1</course>
  <speed>0.0</speed>
  <fix>3d</fix>
</trkpt>
<trkpt lat="40.0728199" lon="-105.230863">
  <ele>1595.32</ele>
  <time>2026-08-28T19:12:02Z</time>
  <course>121.21</course>
  <speed>0.02</speed>
  <fix>3d</fix>
</trkpt>
<trkpt lat="40.07282" lon="-105.2308632">
  <ele>1595.42</ele>
  <time>2026-08-28T19:12:02Z</time>
  <course>340.1</course>
  <speed>0.0</speed>
  <fix>3d</fix>
</trkpt>
<trkpt lat="40.0728199" lon="-105.2308629">
  <ele>1595.32</ele>
  <time>2026-08-28T19:12:02Z</time>
  <course>123.83</course>
  <speed>0.02</speed>
  <fix>3d</fix>
</trkpt>
<trkpt lat="40.0728199" lon="-105.2308631">
  <ele>1595.42</ele>
  <time>2026-08-28T19:12:02Z</time>
  <course>340.1</course>
  <speed>0.0</speed>
  <fix>3d</fix>
</trkpt>
<trkpt lat="40.0728198" lon="-105.2308628">
  <ele>1595.32</ele>
  <time>2026-08-28T19:12:02Z</time>
  <course>125.09</course>
  <speed>0.02</speed>
  <fix>3d</fix>
</trkpt>
<trkpt lat="40.0728199" lon="-105.2308631">
  <ele>1595.42</ele>
  <time>2026-08-28T19:12:02Z</time>
  <course>340.1</course>
  <speed>0.0</speed>
  <fix>3d</fix>
</trkpt>
<trkpt lat="40.0728198" lon="-105.2308628">
  <ele>1595.32</ele>
  <time>2026-08-28T19:12:02Z</time>
  <course>125.14</course>
  <speed>0.02</speed>
  <fix>3d</fix>
</trkpt>
<trkpt lat="40.0728199" lon="-105.230863">
  <ele>1595.43</ele>
  <time>2026-08-28T19:12:02Z</time>
  <course>340.1</course>
  <speed>0.0</speed>
  <fix>3d</fix>
</trkpt>
<trkpt lat="40.0728198" lon="-105.2308628">
  <ele>1595.33</ele>
  <time>2026-08-28T19:12:02Z</time>
  <course>124.23</course>
  <speed>0.02</speed>
  <fix>3d</fix>
</trkpt>
<trkpt lat="40.0728199" lon="-105.230863">
  <ele>1595.43</ele>
  <time>2026-08-28T19:12:02Z</time>
  <course>340.11</course>
  <speed>0.0</speed>
  <fix>3d</fix>
</trkpt>
<trkpt lat="40.0728198" lon="-105.2308627">
  <ele>1595.33</ele>
  <time>2026-08-28T19:12:02Z</time>
  <course>123.1</course>
  <speed>0.02</speed>
  <fix>3d</fix>
</trkpt>
<trkpt lat="40.0728198" lon="-105.2308629">
  <ele>1595.43</ele>
  <time>2026-08-28T19:12:02Z</time>
  <course>340.11</course>
  <speed>0.0</speed>
  <fix>3d</fix>
</trkpt>
<trkpt lat="40.0728197" lon="-105.2308626">
  <ele>1595.33</ele>
  <time>2026-08-28T19:12:02Z</time>
  <course>122.28</course>
  <speed>0.02</speed>
  <fix>3d</fix>
</trkpt>
<trkpt lat="40.0728198" lon="-105.2308628">
  <ele>1595.43</ele>
  <time>2026-08-28T19:12:02Z</time>
  <course>340.12</course>
  <speed>0.0</speed>
  <fix>3d</fix>
</trkpt>
<trkpt lat="40.0728196" lon="-105.2308626">
  <ele>1595.33</ele>
  <time>2026-08-28T19:12:02Z</time>
  <course>121.66</course>
  <speed>0.02</speed>
  <fix>3d</fix>
</trkpt>
<trkpt lat="40.0728198" lon="-105.2308628">
  <ele>1595.43</ele>
  <time>2026-08-28T19:12:02Z</time>
  <course>340.12</course>
  <speed>0.0</speed>
  <fix>3d</fix>
</trkpt>
<trkpt lat="40.0728196" lon="-105.2308626">
  <ele>1595.33</ele>
  <time>2026-08-28T19:12:02Z</time>
  <course>120.95</course>
  <speed>0.02</speed>
  <fix>3d</fix>
</trkpt>
<trkpt lat="40.0728198" lon="-105.2308627">
  <ele>1595.43</ele>
  <time>2026-08-28T19:12:02Z</time>
  <course>340.12</course>
  <speed>0.0</speed>
  <fix>3d</fix>
</trkpt>
<trkpt lat="40.0728196" lon="-105.2308625">
  <ele>1595.34</ele>
  <time>2026-08-28T19:12:02Z</time>
  <course>120.24</course>
  <speed>0.02</speed>
  <fix>3d</fix>
</trkpt>
<trkpt lat="40.0728197" lon="-105.2308627">
  <ele>1595.42</ele>
  <time>2026-08-28T19:12:02Z</time>
  <course>340.12</course>
  <speed>0.0</speed>
  <fix>3d</fix>
</trkpt>
<trkpt lat="40.0728196" lon="-105.2308625">
  <ele>1595.34</ele>
  <time>2026-08-28T19:12:02Z</time>
  <course>119.58</course>
  <speed>0.02</speed>
  <fix>3d</fix>
</trkpt>
<trkpt lat="40.0728197" lon="-105.2308626">
  <ele>1595.42</ele>
  <time>2026-08-28T19:12:02Z</time>
  <course>340.12</course>
  <speed>0.0</speed>
  <fix>3d</fix>
</trkpt>
<trkpt lat="40.0728195" lon="-105.2308624">
  <ele>1595.34</ele>
  <time>2026-08-28T19:12:02Z</time>
  <course>119.78</course>
  <speed>0.02</speed>
  <fix>3d</fix>
</trkpt>
<trkpt lat="40.0728197" lon="-105.2308626">
  <ele>1595.42</ele>
  <time>2026-08-28T19:12:02Z</time>
  <course>340.12</course>
  <speed>0.0</speed>
  <fix>3d</fix>
</trkpt>
<trkpt lat="40.0728195" lon="-105.2308623">
  <ele>1595.34</ele>
  <time>2026-08-28T19:12:02Z</time>
  <course>120.83</course>
  <speed>0.02</speed>
  <fix>3d</fix>
</trkpt>
<trkpt lat="40.0728196" lon="-105.2308625">
  <ele>1595.41</ele>
  <time>2026-08-28T19:12:02Z</time>
  <course>340.1</course>
  <speed>0.0</speed>
  <fix>3d</fix>
</trkpt>
<trkpt lat="40.0728195" lon="-105.2308623">
  <ele>1595.34</ele>
  <time>2026-08-28T19:12:02Z</time>
  <course>122.49</course>
  <speed>0.02</speed>
  <fix>3d</fix>
</trkpt>
<trkpt lat="40.0728196" lon="-105.2308625">
  <ele>1595.41</ele>
  <time>2026-08-28T19:12:02Z</time>
  <course>340.09</course>
  <speed>0.0</speed>
  <fix>3d</fix>
</trkpt>
<trkpt lat="40.0728195" lon="-105.2308623">
  <ele>1595.34</ele>
  <time>2026-08-28T19:12:02Z</time>
  <course>124.29</course>
  <speed>0.02</speed>
  <fix>3d</fix>
</trkpt>
<trkpt lat="40.0728196" lon="-105.2308624">
  <ele>1595.41</ele>
  <time>2026-08-28T19:12:02Z</time>
  <course>340.1</course>
  <speed>0.0</speed>
  <fix>3d</fix>
</trkpt>
<trkpt lat="40.0728195" lon="-105.2308622">
  <ele>1595.34</ele>
  <time>2026-08-28T19:12:02Z</time>
  <course>126.25</course>
  <speed>0.02</speed>
  <fix>3d</fix>
</trkpt>
<trkpt lat="40.0728195" lon="-105.2308624">
  <ele>1595.42</ele>
  <time>2026-08-28T19:12:02Z</time>
  <course>340.11</course>
  <speed>0.0</speed>
  <fix>3d</fix>
</trkpt>
<trkpt lat="40.0728195" lon="-105.2308621">
  <ele>1595.35</ele>
  <time>2026-08-28T19:12:02Z</time>
  <course>128.45</course>
  <speed>0.02</speed>
  <fix>3d</fix>
</trkpt>
<trkpt lat="40.0728195" lon="-105.2308623">
  <ele>1595.42</ele>
  <time>2026-08-28T19:12:02Z</time>
  <course>340.1</course>
  <speed>0.01</speed>
  <fix>3d</fix>
</trkpt>
<trkpt lat="40.0728195" lon="-105.2308621">
  <ele>1595.35</ele>
  <time>2026-08-28T19:12:02Z</time>
  <course>130.48</course>
  <speed>0.02</speed>
  <fix>3d</fix>
</trkpt>
<trkpt lat="40.0728195" lon="-105.2308623">
  <ele>1595.42</ele>
  <time>2026-08-28T19:12:02Z</time>
  <course>340.1</course>
  <speed>0.01</speed>
  <fix>3d</fix>
</trkpt>
<trkpt lat="40.0728194" lon="-105.2308621">
  <ele>1595.35</ele>
  <time>2026-08-28T19:12:02Z</time>
  <course>132.31</course>
  <speed>0.02</speed>
  <fix>3d</fix>
</trkpt>
<trkpt lat="40.0728195" lon="-105.2308622">
  <ele>1595.43</ele>
  <time>2026-08-28T19:12:02Z</time>
  <course>340.11</course>
  <speed>0.01</speed>
  <fix>3d</fix>
</trkpt>
<trkpt lat="40.0728194" lon="-105.230862">
  <ele>1595.36</ele>
  <time>2026-08-28T19:12:02Z</time>
  <course>134.16</course>
  <speed>0.03</speed>
  <fix>3d</fix>
</trkpt>
<trkpt lat="40.0728194" lon="-105.2308622">
  <ele>1595.43</ele>
  <time>2026-08-28T19:12:02Z</time>
  <course>340.12</course>
  <speed>0.01</speed>
  <fix>3d</fix>
</trkpt>
<trkpt lat="40.0728193" lon="-105.230862">
  <ele>1595.36</ele>
  <time>2026-08-28T19:12:02Z</time>
  <course>135.78</course>
  <speed>0.03</speed>
  <fix>3d</fix>
</trkpt>
<trkpt lat="40.0728194" lon="-105.2308621">
  <ele>1595.43</ele>
  <time>2026-08-28T19:12:02Z</time>
  <course>340.12</course>
  <speed>0.01</speed>
  <fix>3d</fix>
</trkpt>
<trkpt lat="40.0728193" lon="-105.2308619">
  <ele>1595.36</ele>
  <time>2026-08-28T19:12:02Z</time>
  <course>136.77</course>
  <speed>0.03</speed>
  <fix>3d</fix>
</trkpt>
<trkpt lat="40.0728193" lon="-105.2308621">
  <ele>1595.43</ele>
  <time>2026-08-28T19:12:02Z</time>
  <course>339.54</course>
  <speed>0.01</speed>
  <fix>3d</fix>
</trkpt>
<trkpt lat="40.0728193" lon="-105.2308618">
  <ele>1595.37</ele>
  <time>2026-08-28T19:12:02Z</time>
  <course>133.94</course>
  <speed>0.03</speed>
  <fix>3d</fix>
</trkpt>
<trkpt lat="40.0728193" lon="-105.230862">
  <ele>1595.43</ele>
  <time>2026-08-28T19:12:02Z</time>
  <course>337.95</course>
  <speed>0.01</speed>
  <fix>3d</fix>
</trkpt>
<trkpt lat="40.0728192" lon="-105.2308618">
  <ele>1595.37</ele>
  <time>2026-08-28T19:12:02Z</time>
  <course>130.06</course>
  <speed>0.03</speed>
  <fix>3d</fix>
</trkpt>
<trkpt lat="40.0728193" lon="-105.230862">
  <ele>1595.43</ele>
  <time>2026-08-28T19:12:02Z</time>
  <course>340.08</course>
  <speed>0.01414213562373095</speed>
  <fix>3d</fix>
</trkpt>
<trkpt lat="40.0728192" lon="-105.2308618">
  <ele>1595.37</ele>
  <time>2026-08-28T19:12:02Z</time>
  <course>143.66</course>
  <speed>0.03</speed>
  <fix>3d</fix>
</trkpt>
<trkpt lat="40.0728192" lon="-105.2308619">
  <ele>1595.44</ele>
  <time>2026-08-28T19:12:02Z</time>
  <course>341.12</course>
  <speed>0.0</speed>
  <fix>3d</fix>
</trkpt>
<trkpt lat="40.0728191" lon="-105.2308617">
  <ele>1595.37</ele>
  <time>2026-08-28T19:12:02Z</time>
  <course>145.74</course>
  <speed>0.03</speed>
  <fix>3d</fix>
</trkpt>
<trkpt lat="40.0728192" lon="-105.2308619">
  <ele>1595.44</ele>
  <time>2026-08-28T19:12:02Z</time>
  <course>338.91</course>
  <speed>0.0</speed>
  <fix>3d</fix>
</trkpt>
<trkpt lat="40.072819" lon="-105.2308616">
  <ele>1595.37</ele>
  <time>2026-08-28T19:12:02Z</time>
  <course>125.15</course>
  <speed>0.03</speed>
  <fix>3d</fix>
</trkpt>
<trkpt lat="40.0728191" lon="-105.2308618">
  <ele>1595.45</ele>
  <time>2026-08-28T19:12:02Z</time>
  <course>340.48</course>
  <speed>0.01</speed>
  <fix>3d</fix>
</trkpt>
<trkpt lat="40.072819" lon="-105.2308616">
  <ele>1595.37</ele>
  <time>2026-08-28T19:12:02Z</time>
  <course>132.42</course>
  <speed>0.03</speed>
  <fix>3d</fix>
</trkpt>
<trkpt lat="40.0728191" lon="-105.2308618">
  <ele>1595.45</ele>
  <time>2026-08-28T19:12:02Z</time>
  <course>340.89</course>
  <speed>0.01</speed>
  <fix>3d</fix>
</trkpt>
<trkpt lat="40.0728189" lon="-105.2308616">
  <ele>1595.37</ele>
  <time>2026-08-28T19:12:02Z</time>
  <course>134.6</course>
  <speed>0.02</speed>
  <fix>3d</fix>
</trkpt>
<trkpt lat="40.0728191" lon="-105.2308617">
  <ele>1595.45</ele>
  <time>2026-08-28T19:12:02Z</time>
  <course>339.01</course>
  <speed>0.0</speed>
  <fix>3d</fix>
</trkpt>
<trkpt lat="40.0728189" lon="-105.2308615">
  <ele>1595.36</ele>
  <time>2026-08-28T19:12:02Z</time>
  <course>118.52</course>
  <speed>0.03</speed>
  <fix>3d</fix>
</trkpt>
<trkpt lat="40.072819" lon="-105.2308617">
  <ele>1595.45</ele>
  <time>2026-08-28T19:12:02Z</time>
  <course>340.94</course>
  <speed>0.0</speed>
  <fix>3d</fix>
</trkpt>
<trkpt lat="40.0728189" lon="-105.2308614">
  <ele>1595.36</ele>
  <time>2026-08-28T19:12:02Z</time>
  <course>127.83</course>
  <speed>0.02</speed>
  <fix>3d</fix>
</trkpt>
<trkpt lat="40.072819" lon="-105.2308616">
  <ele>1595.45</ele>
  <time>2026-08-28T19:12:02Z</time>
  <course>340.21</course>
  <speed>0.01</speed>
  <fix>3d</fix>
</trkpt>
<trkpt lat="40.0728189" lon="-105.2308614">
  <ele>1595.36</ele>
  <time>2026-08-28T19:12:02Z</time>
  <course>123.87</course>
  <speed>0.02</speed>
  <fix>3d</fix>
</trkpt>
<trkpt lat="40.072819" lon="-105.2308615">
  <ele>1595.45</ele>
  <time>2026-08-28T19:12:02Z</time>
  <course>339.42</course>
  <speed>0.0</speed>
  <fix>3d</fix>
</trkpt>
<trkpt lat="40.0728189" lon="-105.2308613">
  <ele>1595.35</ele>
  <time>2026-08-28T19:12:02Z</time>
  <course>115.73</course>
  <speed>0.03</speed>
  <fix>3d</fix>
</trkpt>
<trkpt lat="40.0728189" lon="-105.2308615">
  <ele>1595.45</ele>
  <time>2026-08-28T19:12:02Z</time>
  <course>341.15</course>
  <speed>0.0</speed>
  <fix>3d</fix>
</trkpt>
<trkpt lat="40.0728189" lon="-105.2308613">
  <ele>1595.35</ele>
  <time>2026-08-28T19:12:02Z</time>
  <course>126.92</course>
  <speed>0.02</speed>
  <fix>3d</fix>
</trkpt>
<trkpt lat="40.0728189" lon="-105.2308614">
  <ele>1595.45</ele>
  <time>2026-08-28T19:12:02Z</time>
  <course>339.37</course>
  <speed>0.0</speed>
  <fix>3d</fix>
</trkpt>
<trkpt lat="40.0728188" lon="-105.2308612">
  <ele>1595.35</ele>
  <time>2026-08-28T19:12:02Z</time>
  <course>117.22</course>
  <speed>0.02</speed>
  <fix>3d</fix>
</trkpt>
<trkpt lat="40.0728189" lon="-105.2308614">
  <ele>1595.45</ele>
  <time>2026-08-28T19:12:02Z</time>
  <course>340.46</course>
  <speed>0.0</speed>
  <fix>3d</fix>
</trkpt>
<trkpt lat="40.0728188" lon="-105.2308611">
  <ele>1595.34</ele>
  <time>2026-08-28T19:12:02Z</time>
  <course>120.13</course>
  <speed>0.02</speed>
  <fix>3d</fix>
</trkpt>
<trkpt lat="40.0728189" lon="-105.2308613">
  <ele>1595.44</ele>
  <time>2026-08-28T19:12:02Z</time>
  <course>340.36</course>
  <speed>0.0</speed>
  <fix>3d</fix>
</trkpt>
<trkpt lat="40.0728188" lon="-105.2308611">
  <ele>1595.34</ele>
  <time>2026-08-28T19:12:02Z</time>
  <course>122.78</course>
  <speed>0.02</speed>
  <fix>3d</fix>
</trkpt>
<trkpt lat="40.0728189" lon="-105.2308613">
  <ele>1595.43</ele>
  <time>2026-08-28T19:12:02Z</time>
  <course>339.57</course>
  <speed>0.0</speed>
  <fix>3d</fix>
</trkpt>
<trkpt lat="40.0728188" lon="-105.230861">
  <ele>1595.33</ele>
  <time>2026-08-28T19:12:02Z</time>
  <course>116.78</course>
  <speed>0.02</speed>
  <fix>3d</fix>
</trkpt>
<trkpt lat="40.0728188" lon="-105.2308612">
  <ele>1595.42</ele>
  <time>2026-08-28T19:12:02Z</time>
  <course>340.9</course>
  <speed>0.0</speed>
  <fix>3d</fix>
</trkpt>
<trkpt lat="40.0728187" lon="-105.2308609">
  <ele>1595.33</ele>
  <time>2026-08-28T19:12:02Z</time>
  <course>124.97</course>
  <speed>0.02</speed>
  <fix>3d</fix>
</trkpt>
<trkpt lat="40.0728188" lon="-105.2308611">
  <ele>1595.42</ele>
  <time>2026-08-28T19:12:02Z</time>
  <course>339.35</course>
  <speed>0.0</speed>
  <fix>3d</fix>
</trkpt>
<trkpt lat="40.0728187" lon="-105.2308609">
  <ele>1595.33</ele>
  <time>2026-08-28T19:12:02Z</time>
  <course>117.99</course>
  <speed>0.02</speed>
  <fix>3d</fix>
</trkpt>
<trkpt lat="40.0728188" lon="-105.2308611">
  <ele>1595.42</ele>
  <time>2026-08-28T19:12:02Z</time>
  <course>340.76</course>
  <speed>0.0</speed>
  <fix>3d</fix>
</trkpt>
<trkpt lat="40.0728187" lon="-105.2308609">
  <ele>1595.33</ele>
  <time>2026-08-28T19:12:02Z</time>
  <course>121.98</course>
  <speed>0.02</speed>
  <fix>3d</fix>
</trkpt>
<trkpt lat="40.0728188" lon="-105.230861">
  <ele>1595.42</ele>
  <time>2026-08-28T19:12:02Z</time>
  <course>339.58</course>
  <speed>0.0</speed>
  <fix>3d</fix>
</trkpt>
<trkpt lat="40.0728187" lon="-105.2308608">
  <ele>1595.33</ele>
  <time>2026-08-28T19:12:02Z</time>
  <course>120.52</course>
  <speed>0.02</speed>
  <fix>3d</fix>
</trkpt>
<trkpt lat="40.0728187" lon="-105.230861">
  <ele>1595.42</ele>
  <time>2026-08-28T19:12:02Z</time>
  <course>340.44</course>
  <speed>0.0</speed>
  <fix>3d</fix>
</trkpt>
<trkpt lat="40.0728186" lon="-105.2308607">
  <ele>1595.33</ele>
  <time>2026-08-28T19:12:02Z</time>
  <course>121.08</course>
  <speed>0.02</speed>
  <fix>3d</fix>
</trkpt>
<trkpt lat="40.0728187" lon="-105.2308609">
  <ele>1595.42</ele>
  <time>2026-08-28T19:12:02Z</time>
  <course>339.92</course>
  <speed>0.0</speed>
  <fix>3d</fix>
</trkpt>
<trkpt lat="40.0728186" lon="-105.2308606">
  <ele>1595.33</ele>
  <time>2026-08-28T19:12:02Z</time>
  <course>122.78</course>
  <speed>0.02</speed>
  <fix>3d</fix>
</trkpt>
<trkpt lat="40.0728187" lon="-105.2308609">
  <ele>1595.43</ele>
  <time>2026-08-28T19:12:02Z</time>
  <course>340.2</course>
  <speed>0.0</speed>
  <fix>3d</fix>
</trkpt>
<trkpt lat="40.0728186" lon="-105.2308606">
  <ele>1595.33</ele>
  <time>2026-08-28T19:12:02Z</time>
  <course>121.96</course>
  <speed>0.02</speed>
  <fix>3d</fix>
</trkpt>
<trkpt lat="40.0728187" lon="-105.2308608">
  <ele>1595.43</ele>
  <time>2026-08-28T19:12:02Z</time>
  <course>340.12</course>
  <speed>0.0</speed>
  <fix>3d</fix>
</trkpt>
<trkpt lat="40.0728186" lon="-105.2308606">
  <ele>1595.34</ele>
  <time>2026-08-28T19:12:02Z</time>
  <course>124.2</course>
  <speed>0.02</speed>
  <fix>3d</fix>
</trkpt>
<trkpt lat="40.0728186" lon="-105.2308608">
  <ele>1595.42</ele>
  <time>2026-08-28T19:12:02Z</time>
  <course>340.1</course>
  <speed>0.0</speed>
  <fix>3d</fix>
</trkpt>
<trkpt lat="40.0728185" lon="-105.2308605">
  <ele>1595.34</ele>
  <time>2026-08-28T19:12:02Z</time>
  <course>123.51</course>
  <speed>0.02</speed>
  <fix>3d</fix>
</trkpt>
<trkpt lat="40.0728186" lon="-105.2308607">
  <ele>1595.43</ele>
  <time>2026-08-28T19:12:02Z</time>
  <course>340.14</course>
  <speed>0.0</speed>
  <fix>3d</fix>
</trkpt>
<trkpt lat="40.0728184" lon="-105.2308604">
  <ele>1595.34</ele>
  <time>2026-08-28T19:12:02Z</time>
  <course>124.16</course>
  <speed>0.02</speed>
  <fix>3d</fix>
</trkpt>
<trkpt lat="40.0728186" lon="-105.2308606">
  <ele>1595.43</ele>
  <time>2026-08-28T19:12:02Z</time>
  <course>340.12</course>
  <speed>0.0</speed>
  <fix>3d</fix>
</trkpt>
<trkpt lat="40.0728184" lon="-105.2308604">
  <ele>1595.34</ele>
  <time>2026-08-28T19:12:02Z</time>
  <course>123.96</course>
  <speed>0.02</speed>
  <fix>3d</fix>
</trkpt>
<trkpt lat="40.0728185" lon="-105.2308606">
  <ele>1595.43</ele>
  <time>2026-08-28T19:12:02Z</time>
  <course>340.05</course>
  <speed>0.0</speed>
  <fix>3d</fix>
</trkpt>
<trkpt lat="40.0728184" lon="-105.2308604">
  <ele>1595.34</ele>
  <time>2026-08-28T19:12:02Z</time>
  <course>123.59</course>
  <speed>0.02</speed>
  <fix>3d</fix>
</trkpt>
<trkpt lat="40.0728185" lon="-105.2308605">
  <ele>1595.43</ele>
  <time>2026-08-28T19:12:02Z</time>
  <course>340.28</course>
  <speed>0.0</speed>
  <fix>3d</fix>
</trkpt>
<trkpt lat="40.0728183" lon="-105.2308603">
  <ele>1595.34</ele>
  <time>2026-08-28T19:12:02Z</time>
  <course>124.18</course>
  <speed>0.02</speed>
  <fix>3d</fix>
</trkpt>
<trkpt lat="40.0728185" lon="-105.2308605">
  <ele>1595.43</ele>
  <time>2026-08-28T19:12:02Z</time>
  <course>339.88</course>
  <speed>0.0</speed>
  <fix>3d</fix>
</trkpt>
<trkpt lat="40.0728183" lon="-105.2308602">
  <ele>1595.35</ele>
  <time>2026-08-28T19:12:02Z</time>
  <course>123.08</course>
  <speed>0.02</speed>
  <fix>3d</fix>
</trkpt>
<trkpt lat="40.0728184" lon="-105.2308604">
  <ele>1595.43</ele>
  <time>2026-08-28T19:12:02Z</time>
  <course>340.45</course>
  <speed>0.0</speed>
  <fix>3d</fix>
</trkpt>
<trkpt lat="40.0728183" lon="-105.2308602">
  <ele>1595.35</ele>
  <time>2026-08-28T19:12:02Z</time>
  <course>123.02</course>
  <speed>0.02</speed>
  <fix>3d</fix>
</trkpt>
<trkpt lat="40.0728184" lon="-105.2308604">
  <ele>1595.42</ele>
  <time>2026-08-28T19:12:02Z</time>
  <course>339.74</course>
  <speed>0.0</speed>
  <fix>3d</fix>
</trkpt>
<trkpt lat="40.0728183" lon="-105.2308601">
  <ele>1595.35</ele>
  <time>2026-08-28T19:12:02Z</time>
  <course>122.89</course>
  <speed>0.02</speed>
  <fix>3d</fix>
</trkpt>
<trkpt lat="40.0728184" lon="-105.2308603">
  <ele>1595.42</ele>
  <time>2026-08-28T19:12:02Z</time>
  <course>340.5</course>
  <speed>0.0</speed>
  <fix>3d</fix>
</trkpt>
<trkpt lat="40.0728183" lon="-105.2308601">
  <ele>1595.35</ele>
  <time>2026-08-28T19:12:02Z</time>
  <course>120.57</course>
  <speed>0.02</speed>
  <fix>3d</fix>
</trkpt>
<trkpt lat="40.0728184" lon="-105.2308603">
  <ele>1595.42</ele>
  <time>2026-08-28T19:12:02Z</time>
  <course>339.8</course>
  <speed>0.0</speed>
  <fix>3d</fix>
</trkpt>
<trkpt lat="40.0728183" lon="-105.23086">
  <ele>1595.35</ele>
  <time>2026-08-28T19:12:02Z</time>
  <course>123.74</course>
  <speed>0.02</speed>
  <fix>3d</fix>
</trkpt>
<trkpt lat="40.0728183" lon="-105.2308602">
  <ele>1595.42</ele>
  <time>2026-08-28T19:12:02Z</time>
  <course>340.24</course>
  <speed>0.0</speed>
  <fix>3d</fix>
</trkpt>
<trkpt lat="40.0728183" lon="-105.2308599">
  <ele>1595.35</ele>
  <time>2026-08-28T19:12:02Z</time>
  <course>119.09</course>
  <speed>0.02</speed>
  <fix>3d</fix>
</trkpt>
<trkpt lat="40.0728183" lon="-105.2308602">
  <ele>1595.42</ele>
  <time>2026-08-28T19:12:02Z</time>
  <course>340.18</course>
  <speed>0.0</speed>
  <fix>3d</fix>
</trkpt>
<trkpt lat="40.0728182" lon="-105.2308599">
  <ele>1595.35</ele>
  <time>2026-08-28T19:12:02Z</time>
  <course>124.65</course>
  <speed>0.02</speed>
  <fix>3d</fix>
</trkpt>
<trkpt lat="40.0728183" lon="-105.2308601">
  <ele>1595.42</ele>
  <time>2026-08-28T19:12:02Z</time>
  <course>339.86</course>
  <speed>0.0</speed>
  <fix>3d</fix>
</trkpt>
<trkpt lat="40.0728182" lon="-105.2308599">
  <ele>1595.36</ele>
  <time>2026-08-28T19:12:02Z</time>
  <course>121.03</course>
  <speed>0.02</speed>
  <fix>3d</fix>
</trkpt>
<trkpt lat="40.0728183" lon="-105.23086">
  <ele>1595.42</ele>
  <time>2026-08-28T19:12:02Z</time>
  <course>340.41</course>
  <speed>0.0</speed>
  <fix>3d</fix>
</trkpt>
<trkpt lat="40.0728182" lon="-105.2308598">
  <ele>1595.36</ele>
  <time>2026-08-28T19:12:02Z</time>
  <course>121.08</course>
  <speed>0.02</speed>
  <fix>3d</fix>
</trkpt>
<trkpt lat="40.0728182" lon="-105.23086">
  <ele>1595.43</ele>
  <time>2026-08-28T19:12:02Z</time>
  <course>339.96</course>
  <speed>0.0</speed>
  <fix>3d</fix>
</trkpt>
<trkpt lat="40.0728182" lon="-105.2308597">
  <ele>1595.36</ele>
  <time>2026-08-28T19:12:02Z</time>
  <course>126.28</course>
  <speed>0.02</speed>
  <fix>3d</fix>
</trkpt>
<trkpt lat="40.0728182" lon="-105.2308599">
  <ele>1595.43</ele>
  <time>2026-08-28T19:12:02Z</time>
  <course>340.02</course>
  <speed>0.0</speed>
  <fix>3d</fix>
</trkpt>
<trkpt lat="40.0728181" lon="-105.2308597">
  <ele>1595.37</ele>
  <time>2026-08-28T19:12:02Z</time>
  <course>119.71</course>
  <speed>0.02</speed>
  <fix>3d</fix>
</trkpt>
<trkpt lat="40.0728182" lon="-105.2308599">
  <ele>1595.43</ele>
  <time>2026-08-28T19:12:02Z</time>
  <course>340.39</course>
  <speed>0.0</speed>
  <fix>3d</fix>
</trkpt>
<trkpt lat="40.0728181" lon="-105.2308597">
  <ele>1595.37</ele>
  <time>2026-08-28T19:12:02Z</time>
  <course>123.87</course>
  <speed>0.02</speed>
  <fix>3d</fix>
</trkpt>
<trkpt lat="40.0728182" lon="-105.2308598">
  <ele>1595.43</ele>
  <time>2026-08-28T19:12:02Z</time>
  <course>339.96</course>
  <speed>0.0</speed>
  <fix>3d</fix>
</trkpt>
<trkpt lat="40.0728181" lon="-105.2308596">
  <ele>1595.37</ele>
  <time>2026-08-28T19:12:02Z</time>
  <course>126.45</course>
  <speed>0.02</speed>
  <fix>3d</fix>
</trkpt>
<trkpt lat="40.0728182" lon="-105.2308598">
  <ele>1595.43</ele>
  <time>2026-08-28T19:12:02Z</time>
  <course>340.03</course>
  <speed>0.0</speed>
  <fix>3d</fix>
</trkpt>
<trkpt lat="40.0728181" lon="-105.2308596">
  <ele>1595.37</ele>
  <time>2026-08-28T19:12:02Z</time>
  <course>119.27</course>
  <speed>0.02</speed>
  <fix>3d</fix>
</trkpt>
<trkpt lat="40.0728181" lon="-105.2308597">
  <ele>1595.43</ele>
  <time>2026-08-28T19:12:02Z</time>
  <course>340.35</course>
  <speed>0.0</speed>
  <fix>3d</fix>
</trkpt>
<trkpt lat="40.072818" lon="-105.2308595">
  <ele>1595.37</ele>
  <time>2026-08-28T19:12:02Z</time>
  <course>123.16</course>
  <speed>0.02</speed>
  <fix>3d</fix>
</trkpt>
<trkpt lat="40.0728181" lon="-105.2308597">
  <ele>1595.44</ele>
  <time>2026-08-28T19:12:02Z</time>
  <course>340.1</course>
  <speed>0.0</speed>
  <fix>3d</fix>
</trkpt>
<trkpt lat="40.072818" lon="-105.2308594">
  <ele>1595.37</ele>
  <time>2026-08-28T19:12:02Z</time>
  <course>127.52</course>
  <speed>0.02</speed>
  <fix>3d</fix>
</trkpt>
<trkpt lat="40.0728181" lon="-105.2308596">
  <ele>1595.44</ele>
  <time>2026-08-28T19:12:02Z</time>
  <course>339.96</course>
  <speed>0.0</speed>
  <fix>3d</fix>
</trkpt>
<trkpt lat="40.072818" lon="-105.2308594">
  <ele>1595.38</ele>
  <time>2026-08-28T19:12:02Z</time>
  <course>120.68</course>
  <speed>0.02</speed>
  <fix>3d</fix>
</trkpt>
<trkpt lat="40.0728181" lon="-105.2308596">
  <ele>1595.43</ele>
  <time>2026-08-28T19:12:02Z</time>
  <course>340.23</course>
  <speed>0.0</speed>
  <fix>3d</fix>
</trkpt>
<trkpt lat="40.0728179" lon="-105.2308594">
  <ele>1595.38</ele>
  <time>2026-08-28T19:12:02Z</time>
  <course>120.6</course>
  <speed>0.02</speed>
  <fix>3d</fix>
</trkpt>
<trkpt lat="40.072818" lon="-105.2308595">
  <ele>1595.43</ele>
  <time>2026-08-28T19:12:02Z</time>
  <course>340.3</course>
  <speed>0.0</speed>
  <fix>3d</fix>
</trkpt>
<trkpt lat="40.0728178" lon="-105.2308593">
  <ele>1595.38</ele>
  <time>2026-08-28T19:12:02Z</time>
  <course>128.06</course>
  <speed>0.02</speed>
  <fix>3d</fix>
</trkpt>
<trkpt lat="40.072818" lon="-105.2308595">
  <ele>1595.43</ele>
  <time>2026-08-28T19:12:02Z</time>
  <course>340.06</course>
  <speed>0.0</speed>
  <fix>3d</fix>
</trkpt>
<trkpt lat="40.0728178" lon="-105.2308592">
  <ele>1595.38</ele>
  <time>2026-08-28T19:12:02Z</time>
  <course>126.83</course>
  <speed>0.02</speed>
  <fix>3d</fix>
</trkpt>
<trkpt lat="40.072818" lon="-105.2308594">
  <ele>1595.44</ele>
  <time>2026-08-28T19:12:02Z</time>
  <course>339.96</course>
  <speed>0.0</speed>
  <fix>3d</fix>
</trkpt>
<trkpt lat="40.0728178" lon="-105.2308592">
  <ele>1595.38</ele>
  <time>2026-08-28T19:12:02Z</time>
  <course>118.99</course>
  <speed>0.02</speed>
  <fix>3d</fix>
</trkpt>
<trkpt lat="40.0728179" lon="-105.2308594">
  <ele>1595.44</ele>
  <time>2026-08-28T19:12:02Z</time>
  <course>340.13</course>
  <speed>0.0</speed>
  <fix>3d</fix>
</trkpt>
<trkpt lat="40.0728178" lon="-105.2308591">
  <ele>1595.38</ele>
  <time>2026-08-28T19:12:02Z</time>
  <course>116.86</course>
  <speed>0.02</speed>
  <fix>3d</fix>
</trkpt>
<trkpt lat="40.0728179" lon="-105.2308593">
  <ele>1595.44</ele>
  <time>2026-08-28T19:12:02Z</time>
  <course>340.29</course>
  <speed>0.0</speed>
  <fix>3d</fix>
</trkpt>
<trkpt lat="40.0728177" lon="-105.230859">
  <ele>1595.38</ele>
  <time>2026-08-28T19:12:02Z</time>
  <course>121.04</course>
  <speed>0.02</speed>
  <fix>3d</fix>
</trkpt>
<trkpt lat="40.0728179" lon="-105.2308593">
  <ele>1595.44</ele>
  <time>2026-08-28T19:12:02Z</time>
  <course>340.25</course>
  <speed>0.0</speed>
  <fix>3d</fix>
</trkpt>
<trkpt lat="40.0728177" lon="-105.230859">
  <ele>1595.38</ele>
  <time>2026-08-28T19:12:02Z</time>
  <course>124.47</course>
  <speed>0.02</speed>
  <fix>3d</fix>
</trkpt>
<trkpt lat="40.0728178" lon="-105.2308592">
  <ele>1595.45</ele>
  <time>2026-08-28T19:12:02Z</time>
  <course>340.13</course>
  <speed>0.0</speed>
  <fix>3d</fix>
</trkpt>
<trkpt lat="40.0728177" lon="-105.230859">
  <ele>1595.38</ele>
  <time>2026-08-28T19:12:02Z</time>
  <course>122.49</course>
  <speed>0.02</speed>
  <fix>3d</fix>
</trkpt>
<trkpt lat="40.0728178" lon="-105.2308591">
  <ele>1595.45</ele>
  <time>2026-08-28T19:12:02Z</time>
  <course>340.06</course>
  <speed>0.0</speed>
  <fix>3d</fix>
</trkpt>
<trkpt lat="40.0728177" lon="-105.2308589">
  <ele>1595.37</ele>
  <time>2026-08-28T19:12:02Z</time>
  <course>118.36</course>
  <speed>0.02</speed>
  <fix>3d</fix>
</trkpt>
<trkpt lat="40.0728178" lon="-105.2308591">
  <ele>1595.44</ele>
  <time>2026-08-28T19:12:02Z</time>
  <course>340.06</course>
  <speed>0.0</speed>
  <fix>3d</fix>
</trkpt>
<trkpt lat="40.0728177" lon="-105.2308589">
  <ele>1595.37</ele>
  <time>2026-08-28T19:12:02Z</time>
  <course>116.06</course>
  <speed>0.02</speed>
  <fix>3d</fix>
</trkpt>
<trkpt lat="40.0728178" lon="-105.230859">
  <ele>1595.44</ele>
  <time>2026-08-28T19:12:02Z</time>
  <course>340.12</course>
  <speed>0.0</speed>
  <fix>3d</fix>
</trkpt>
<trkpt lat="40.0728177" lon="-105.2308588">
  <ele>1595.37</ele>
  <time>2026-08-28T19:12:02Z</time>
  <course>116.59</course>
  <speed>0.02</speed>
  <fix>3d</fix>
</trkpt>
<trkpt lat="40.0728177" lon="-105.230859">
  <ele>1595.44</ele>
  <time>2026-08-28T19:12:02Z</time>
  <course>340.19</course>
  <speed>0.0</speed>
  <fix>3d</fix>
</trkpt>
<trkpt lat="40.0728177" lon="-105.2308587">
  <ele>1595.37</ele>
  <time>2026-08-28T19:12:02Z</time>
  <course>119.07</course>
  <speed>0.02</speed>
  <fix>3d</fix>
</trkpt>
<trkpt lat="40.0728177" lon="-105.2308589">
  <ele>1595.43</ele>
  <time>2026-08-28T19:12:02Z</time>
  <course>340.23</course>
  <speed>0.0</speed>
  <fix>3d</fix>
</trkpt>
<trkpt lat="40.0728176" lon="-105.2308587">
  <ele>1595.36</ele>
  <time>2026-08-28T19:12:02Z</time>
  <course>121.65</course>
  <speed>0.02</speed>
  <fix>3d</fix>
</trkpt>
<trkpt lat="40.0728177" lon="-105.2308589">
  <ele>1595.43</ele>
  <time>2026-08-28T19:12:02Z</time>
  <course>340.23</course>
  <speed>0.0</speed>
  <fix>3d</fix>
</trkpt>
<trkpt lat="40.0728176" lon="-105.2308586">
  <ele>1595.36</ele>
  <time>2026-08-28T19:12:02Z</time>
  <course>123.28</course>
  <speed>0.02</speed>
  <fix>3d</fix>
</trkpt>
<trkpt lat="40.0728177" lon="-105.2308588">
  <ele>1595.43</ele>
  <time>2026-08-28T19:12:02Z</time>
  <course>340.22</course>
  <speed>0.0</speed>
  <fix>3d</fix>
</trkpt>
<trkpt lat="40.0728176" lon="-105.2308585">
  <ele>1595.36</ele>
  <time>2026-08-28T19:12:02Z</time>
  <course>124.65</course>
  <speed>0.02</speed>
  <fix>3d</fix>
</trkpt>
<trkpt lat="40.0728177" lon="-105.2308587">
  <ele>1595.42</ele>
  <time>2026-08-28T19:12:02Z</time>
  <course>340.21</course>
  <speed>0.0</speed>
  <fix>3d</fix>
</trkpt>
<trkpt lat="40.0728176" lon="-105.2308585">
  <ele>1595.36</ele>
  <time>2026-08-28T19:12:02Z</time>
  <course>125.7</course>
  <speed>0.02</speed>
  <fix>3d</fix>
</trkpt>
<trkpt lat="40.0728176" lon="-105.2308587">
  <ele>1595.42</ele>
  <time>2026-08-28T19:12:02Z</time>
  <course>340.2</course>
  <speed>0.0</speed>
  <fix>3d</fix>
</trkpt>
<trkpt lat="40.0728176" lon="-105.2308585">
  <ele>1595.36</ele>
  <time>2026-08-28T19:12:02Z</time>
  <course>125.89</course>
  <speed>0.02</speed>
  <fix>3d</fix>
</trkpt>
<trkpt lat="40.0728176" lon="-105.2308587">
  <ele>1595.42</ele>
  <time>2026-08-28T19:12:02Z</time>
  <course>340.19</course>
  <speed>0.0</speed>
  <fix>3d</fix>
</trkpt>
<trkpt lat="40.0728175" lon="-105.2308584">
  <ele>1595.36</ele>
  <time>2026-08-28T19:12:02Z</time>
  <course>125.14</course>
  <speed>0.02</speed>
  <fix>3d</fix>
</trkpt>
<trkpt lat="40.0728176" lon="-105.2308586">
  <ele>1595.42</ele>
  <time>2026-08-28T19:12:02Z</time>
  <course>340.18</course>
  <speed>0.0</speed>
  <fix>3d</fix>
</trkpt>
<trkpt lat="40.0728175" lon="-105.2308583">
  <ele>1595.36</ele>
  <time>2026-08-28T19:12:02Z</time>
  <course>124.03</course>
  <speed>0.02</speed>
  <fix>3d</fix>
</trkpt>
<trkpt lat="40.0728176" lon="-105.2308586">
  <ele>1595.42</ele>
  <time>2026-08-28T19:12:02Z</time>
  <course>340.18</course>
  <speed>0.0</speed>
  <fix>3d</fix>
</trkpt>
<trkpt lat="40.0728175" lon="-105.2308583">
  <ele>1595.36</ele>
  <time>2026-08-28T19:12:02Z</time>
  <course>122.88</course>
  <speed>0.02</speed>
  <fix>3d</fix>
</trkpt>
<trkpt lat="40.0728175" lon="-105.2308585">
  <ele>1595.43</ele>
  <time>2026-08-28T19:12:02Z</time>
  <course>340.19</course>
  <speed>0.0</speed>
  <fix>3d</fix>
</trkpt>
<trkpt lat="40.0728175" lon="-105.2308583">
  <ele>1595.36</ele>
  <time>2026-08-28T19:12:02Z</time>
  <course>122.44</course>
  <speed>0.02</speed>
  <fix>3d</fix>
</trkpt>
<trkpt lat="40.0728175" lon="-105.2308585">
  <ele>1595.43</ele>
  <time>2026-08-28T19:12:02Z</time>
  <course>340.18</course>
  <speed>0.0</speed>
  <fix>3d</fix>
</trkpt>
<trkpt lat="40.0728174" lon="-105.2308582">
  <ele>1595.36</ele>
  <time>2026-08-28T19:12:02Z</time>
  <course>121.99</course>
  <speed>0.02</speed>
  <fix>3d</fix>
</trkpt>
<trkpt lat="40.0728175" lon="-105.2308584">
  <ele>1595.43</ele>
  <time>2026-08-28T19:12:02Z</time>
  <course>340.16</course>
  <speed>0.0</speed>
  <fix>3d</fix>
</trkpt>
<trkpt lat="40.0728174" lon="-105.2308581">
  <ele>1595.37</ele>
  <time>2026-08-28T19:12:02Z</time>
  <course>120.35</course>
  <speed>0.02</speed>
  <fix>3d</fix>
</trkpt>
<trkpt lat="40.0728175" lon="-105.2308584">
  <ele>1595.43</ele>
  <time>2026-08-28T19:12:02Z</time>
  <course>340.13</course>
  <speed>0.0</speed>
  <fix>3d</fix>
</trkpt>
<trkpt lat="40.0728174" lon="-105.230858">
  <ele>1595.37</ele>
  <time>2026-08-28T19:12:02Z</time>
  <course>118.1</course>
  <speed>0.02</speed>
  <fix>3d</fix>
</trkpt>
<trkpt lat="40.0728175" lon="-105.2308583">
  <ele>1595.43</ele>
  <time>2026-08-28T19:12:02Z</time>
  <course>340.1</course>
  <speed>0.0</speed>
  <fix>3d</fix>
</trkpt>
<trkpt lat="40.0728174" lon="-105.230858">
  <ele>1595.37</ele>
  <time>2026-08-28T19:12:02Z</time>
  <course>115.48</course>
  <speed>0.02</speed>
  <fix>3d</fix>
</trkpt>
<trkpt lat="40.0728174" lon="-105.2308582">
  <ele>1595.43</ele>
  <time>2026-08-28T19:12:02Z</time>
  <course>340.1</course>
  <speed>0.0</speed>
  <fix>3d</fix>
</trkpt>
<trkpt lat="40.0728173" lon="-105.230858">
  <ele>1595.37</ele>
  <time>2026-08-28T19:12:02Z</time>
  <course>113.37</course>
  <speed>0.02</speed>
  <fix>3d</fix>
</trkpt>
<trkpt lat="40.0728174" lon="-105.2308582">
  <ele>1595.43</ele>
  <time>2026-08-28T19:12:02Z</time>
  <course>340.14</course>
  <speed>0.0</speed>
  <fix>3d</fix>
</trkpt>
<trkpt lat="40.0728172" lon="-105.2308579">
  <ele>1595.37</ele>
  <time>2026-08-28T19:12:02Z</time>
  <course>112.82</course>
  <speed>0.02</speed>
  <fix>3d</fix>
</trkpt>
<trkpt lat="40.0728174" lon="-105.2308581">
  <ele>1595.44</ele>
  <time>2026-08-28T19:12:02Z</time>
  <course>340.18</course>
  <speed>0.0</speed>
  <fix>3d</fix>
</trkpt>
<trkpt lat="40.0728172" lon="-105.2308578">
  <ele>1595.37</ele>
  <time>2026-08-28T19:12:02Z</time>
  <course>114.18</course>
  <speed>0.02</speed>
  <fix>3d</fix>
</trkpt>
<trkpt lat="40.0728174" lon="-105.230858">
  <ele>1595.44</ele>
  <time>2026-08-28T19:12:02Z</time>
  <course>340.17</course>
  <speed>0.0</speed>
  <fix>3d</fix>
</trkpt>
<trkpt lat="40.0728172" lon="-105.2308578">
  <ele>1595.37</ele>
  <time>2026-08-28T19:12:02Z</time>
  <course>116.33</course>
  <speed>0.02</speed>
  <fix>3d</fix>
</trkpt>
<trkpt lat="40.0728173" lon="-105.230858">
  <ele>1595.44</ele>
  <time>2026-08-28T19:12:02Z</time>
  <course>340.13</course>
  <speed>0.0</speed>
  <fix>3d</fix>
</trkpt>
<trkpt lat="40.0728172" lon="-105.2308577">
  <ele>1595.37</ele>
  <time>2026-08-28T19:12:02Z</time>
  <course>117.29</course>
  <speed>0.02</speed>
  <fix>3d</fix>
</trkpt>
<trkpt lat="40.0728173" lon="-105.2308579">
  <ele>1595.44</ele>
  <time>2026-08-28T19:12:02Z</time>
  <course>340.15</course>
  <speed>0.0</speed>
  <fix>3d</fix>
</trkpt>
<trkpt lat="40.0728172" lon="-105.2308577">
  <ele>1595.37</ele>
  <time>2026-08-28T19:12:02Z</time>
  <course>117.45</course>
  <speed>0.02</speed>
  <fix>3d</fix>
</trkpt>
<trkpt lat="40.0728173" lon="-105.2308579">
  <ele>1595.43</ele>
  <time>2026-08-28T19:12:02Z</time>
  <course>340.17</course>
  <speed>0.0</speed>
  <fix>3d</fix>
</trkpt>
<trkpt lat="40.0728171" lon="-105.2308576">
  <ele>1595.36</ele>
  <time>2026-08-28T19:12:02Z</time>
  <course>119.07</course>
  <speed>0.02</speed>
  <fix>3d</fix>
</trkpt>
<trkpt lat="40.0728173" lon="-105.2308578">
  <ele>1595.42</ele>
  <time>2026-08-28T19:12:02Z</time>
  <course>340.15</course>
  <speed>0.0</speed>
  <fix>3d</fix>
</trkpt>
<trkpt lat="40.0728171" lon="-105.2308575">
  <ele>1595.36</ele>
  <time>2026-08-28T19:12:02Z</time>
  <course>120.68</course>
  <speed>0.02</speed>
  <fix>3d</fix>
</trkpt>
<trkpt lat="40.0728172" lon="-105.2308578">
  <ele>1595.42</ele>
  <time>2026-08-28T19:12:02Z</time>
  <course>340.13</course>
  <speed>0.0</speed>
  <fix>3d</fix>
</trkpt>
<trkpt lat="40.0728171" lon="-105.2308575">
  <ele>1595.36</ele>
  <time>2026-08-28T19:12:02Z</time>
  <course>119.45</course>
  <speed>0.02</speed>
  <fix>3d</fix>
</trkpt>
<trkpt lat="40.0728172" lon="-105.2308577">
  <ele>1595.42</ele>
  <time>2026-08-28T19:12:02Z</time>
  <course>340.15</course>
  <speed>0.0</speed>
  <fix>3d</fix>
</trkpt>
<trkpt lat="40.0728171" lon="-105.2308575">
  <ele>1595.36</ele>
  <time>2026-08-28T19:12:02Z</time>
  <course>119.16</course>
  <speed>0.02</speed>
  <fix>3d</fix>
</trkpt>
<trkpt lat="40.0728172" lon="-105.2308576">
  <ele>1595.42</ele>
  <time>2026-08-28T19:12:02Z</time>
  <course>340.11</course>
  <speed>0.0</speed>
  <fix>3d</fix>
</trkpt>
<trkpt lat="40.072817" lon="-105.2308574">
  <ele>1595.36</ele>
  <time>2026-08-28T19:12:02Z</time>
  <course>120.24</course>
  <speed>0.02</speed>
  <fix>3d</fix>
</trkpt>
<trkpt lat="40.0728171" lon="-105.2308576">
  <ele>1595.42</ele>
  <time>2026-08-28T19:12:02Z</time>
  <course>340.1</course>
  <speed>0.0</speed>
  <fix>3d</fix>
</trkpt>
<trkpt lat="40.072817" lon="-105.2308573">
  <ele>1595.36</ele>
  <time>2026-08-28T19:12:02Z</time>
  <course>119.87</course>
  <speed>0.02</speed>
  <fix>3d</fix>
</trkpt>
<trkpt lat="40.0728171" lon="-105.2308575">
  <ele>1595.42</ele>
  <time>2026-08-28T19:12:02Z</time>
  <course>340.12</course>
  <speed>0.0</speed>
  <fix>3d</fix>
</trkpt>
<trkpt lat="40.072817" lon="-105.2308573">
  <ele>1595.36</ele>
  <time>2026-08-28T19:12:02Z</time>
  <course>120.93</course>
  <speed>0.02</speed>
  <fix>3d</fix>
</trkpt>
<trkpt lat="40.0728171" lon="-105.2308575">
  <ele>1595.43</ele>
  <time>2026-08-28T19:12:02Z</time>
  <course>340.12</course>
  <speed>0.0</speed>
  <fix>3d</fix>
</trkpt>
<trkpt lat="40.072817" lon="-105.2308572">
  <ele>1595.37</ele>
  <time>2026-08-28T19:12:02Z</time>
  <course>121.54</course>
  <speed>0.02</speed>
  <fix>3d</fix>
</trkpt>
<trkpt lat="40.0728171" lon="-105.2308574">
  <ele>1595.43</ele>
  <time>2026-08-28T19:12:02Z</time>
  <course>340.15</course>
  <speed>0.0</speed>
  <fix>3d</fix>
</trkpt>
<trkpt lat="40.072817" lon="-105.2308571">
  <ele>1595.37</ele>
  <time>2026-08-28T19:12:02Z</time>
  <course>122.04</course>
  <speed>0.02</speed>
  <fix>3d</fix>
</trkpt>
<trkpt lat="40.072817" lon="-105.2308574">
  <ele>1595.43</ele>
  <time>2026-08-28T19:12:02Z</time>
  <course>340.1</course>
  <speed>0.0</speed>
  <fix>3d</fix>
</trkpt>
<trkpt lat="40.072817" lon="-105.2308571">
  <ele>1595.37</ele>
  <time>2026-08-28T19:12:02Z</time>
  <course>122.67</course>
  <speed>0.02</speed>
  <fix>3d</fix>
</trkpt>
<trkpt lat="40.072817" lon="-105.2308573">
  <ele>1595.43</ele>
  <time>2026-08-28T19:12:02Z</time>
  <course>340.12</course>
  <speed>0.0</speed>
  <fix>3d</fix>
</trkpt>
<trkpt lat="40.072817" lon="-105.2308571">
  <ele>1595.37</ele>
  <time>2026-08-28T19:12:02Z</time>
  <course>123.35</course>
  <speed>0.02</speed>
  <fix>3d</fix>
</trkpt>
<trkpt lat="40.072817" lon="-105.2308573">
  <ele>1595.43</ele>
  <time>2026-08-28T19:12:02Z</time>
  <course>340.15</course>
  <speed>0.0</speed>
  <fix>3d</fix>
</trkpt>
<trkpt lat="40.0728169" lon="-105.230857">
  <ele>1595.38</ele>
  <time>2026-08-28T19:12:02Z</time>
  <course>124.28</course>
  <speed>0.02</speed>
  <fix>3d</fix>
</trkpt>
<trkpt lat="40.072817" lon="-105.2308572">
  <ele>1595.44</ele>
  <time>2026-08-28T19:12:03Z</time>
  <course>340.19</course>
  <speed>0.0</speed>
  <fix>3d</fix>
</trkpt>
<trkpt lat="40.0728169" lon="-105.230857">
  <ele>1595.38</ele>
  <time>2026-08-28T19:12:03Z</time>
  <course>124.19</course>
  <speed>0.02</speed>
  <fix>3d</fix>
</trkpt>
<trkpt lat="40.072817" lon="-105.2308572">
  <ele>1595.44</ele>
  <time>2026-08-28T19:12:03Z</time>
  <course>340.18</course>
  <speed>0.0</speed>
  <fix>3d</fix>
</trkpt>
<trkpt lat="40.0728169" lon="-105.2308569">
  <ele>1595.38</ele>
  <time>2026-08-28T19:12:03Z</time>
  <course>123.79</course>
  <speed>0.02</speed>
  <fix>3d</fix>
</trkpt>
<trkpt lat="40.0728169" lon="-105.2308571">
  <ele>1595.43</ele>
  <time>2026-08-28T19:12:03Z</time>
  <course>340.14</course>
  <speed>0.0</speed>
  <fix>3d</fix>
</trkpt>
<trkpt lat="40.0728169" lon="-105.2308568">
  <ele>1595.38</ele>
  <time>2026-08-28T19:12:03Z</time>
  <course>122.19</course>
  <speed>0.02</speed>
  <fix>3d</fix>
</trkpt>
<trkpt lat="40.0728169" lon="-105.230857">
  <ele>1595.43</ele>
  <time>2026-08-28T19:12:03Z</time>
  <course>340.11</course>
  <speed>0.0</speed>
  <fix>3d</fix>
</trkpt>
<trkpt lat="40.0728168" lon="-105.2308568">
  <ele>1595.38</ele>
  <time>2026-08-28T19:12:03Z</time>
  <course>121.81</course>
  <speed>0.02</speed>
  <fix>3d</fix>
</trkpt>
<trkpt lat="40.0728169" lon="-105.230857">
  <ele>1595.42</ele>
  <time>2026-08-28T19:12:03Z</time>
  <course>340.16</course>
  <speed>0.0</speed>
  <fix>3d</fix>
</trkpt>
<trkpt lat="40.0728168" lon="-105.2308568">
  <ele>1595.37</ele>
  <time>2026-08-28T19:12:03Z</time>
  <course>122.22</course>
  <speed>0.02</speed>
  <fix>3d</fix>
</trkpt>
<trkpt lat="40.0728169" lon="-105.2308569">
  <ele>1595.42</ele>
  <time>2026-08-28T19:12:03Z</time>
  <course>340.13</course>
  <speed>0.0</speed>
  <fix>3d</fix>
</trkpt>
<trkpt lat="40.0728168" lon="-105.2308567">
  <ele>1595.37</ele>
  <time>2026-08-28T19:12:03Z</time>
  <course>121.49</course>
  <speed>0.02</speed>
  <fix>3d</fix>
</trkpt>
<trkpt lat="40.0728169" lon="-105.2308569">
  <ele>1595.42</ele>
  <time>2026-08-28T19:12:03Z</time>
  <course>340.07</course>
  <speed>0.0</speed>
  <fix>3d</fix>
</trkpt>
<trkpt lat="40.0728168" lon="-105.2308566">
  <ele>1595.37</ele>
  <time>2026-08-28T19:12:03Z</time>
  <course>121.09</course>
  <speed>0.02</speed>
  <fix>3d</fix>
</trkpt>
<trkpt lat="40.0728168" lon="-105.2308568">
  <ele>1595.43</ele>
  <time>2026-08-28T19:12:03Z</time>
  <course>340.1</course>
  <speed>0.0</speed>
  <fix>3d</fix>
</trkpt>
<trkpt lat="40.0728167" lon="-105.2308566">
  <ele>1595.38</ele>
  <time>2026-08-28T19:12:03Z</time>
  <course>122.16</course>
  <speed>0.02</speed>
  <fix>3d</fix>
</trkpt>
<trkpt lat="40.0728168" lon="-105.2308568">
  <ele>1595.43</ele>
  <time>2026-08-28T19:12:03Z</time>
  <course>340.14</course>
  <speed>0.0</speed>
  <fix>3d</fix>
</trkpt>
<trkpt lat="40.0728167" lon="-105.2308565">
  <ele>1595.38</ele>
  <time>2026-08-28T19:12:03Z</time>
  <course>123.31</course>
  <speed>0.02</speed>
  <fix>3d</fix>
</trkpt>
<trkpt lat="40.0728168" lon="-105.2308567">
  <ele>1595.43</ele>
  <time>2026-08-28T19:12:03Z</time>
  <course>340.16</course>
  <speed>0.0</speed>
  <fix>3d</fix>
</trkpt>
<trkpt lat="40.0728167" lon="-105.2308565">
  <ele>1595.38</ele>
  <time>2026-08-28T19:12:03Z</time>
  <course>123.89</course>
  <speed>0.02</speed>
  <fix>3d</fix>
</trkpt>
<trkpt lat="40.0728168" lon="-105.2308567">
  <ele>1595.43</ele>
  <time>2026-08-28T19:12:03Z</time>
  <course>340.1</course>
  <speed>0.0</speed>
  <fix>3d</fix>
</trkpt>
<trkpt lat="40.0728166" lon="-105.2308564">
  <ele>1595.38</ele>
  <time>2026-08-28T19:12:03Z</time>
  <course>123.79</course>
  <speed>0.02</speed>
  <fix>3d</fix>
</trkpt>
<trkpt lat="40.0728167" lon="-105.2308566">
  <ele>1595.43</ele>
  <time>2026-08-28T19:12:03Z</time>
  <course>340.11</course>
  <speed>0.0</speed>
  <fix>3d</fix>
</trkpt>
<trkpt lat="40.0728165" lon="-105.2308563">
  <ele>1595.38</ele>
  <time>2026-08-28T19:12:03Z</time>
  <course>124.31</course>
  <speed>0.02</speed>
  <fix>3d</fix>
</trkpt>
<trkpt lat="40.0728167" lon="-105.2308566">
  <ele>1595.44</ele>
  <time>2026-08-28T19:12:03Z</time>
  <course>340.21</course>
  <speed>0.0</speed>
  <fix>3d</fix>
</trkpt>
<trkpt lat="40.0728165" lon="-105.2308563">
  <ele>1595.38</ele>
  <time>2026-08-28T19:12:03Z</time>
  <course>125.42</course>
  <speed>0.02</speed>
  <fix>3d</fix>
</trkpt>
<trkpt lat="40.0728167" lon="-105.2308565">
  <ele>1595.44</ele>
  <time>2026-08-28T19:12:03Z</time>
  <course>340.21</course>
  <speed>0.0</speed>
  <fix>3d</fix>
</trkpt>
<trkpt lat="40.0728165" lon="-105.2308563">
  <ele>1595.38</ele>
  <time>2026-08-28T19:12:03Z</time>
  <course>125.43</course>
  <speed>0.02</speed>
  <fix>3d</fix>
</trkpt>
<trkpt lat="40.0728166" lon="-105.2308565">
  <ele>1595.44</ele>
  <time>2026-08-28T19:12:03Z</time>
  <course>340.18</course>
  <speed>0.0</speed>
  <fix>3d</fix>
</trkpt>
<trkpt lat="40.0728165" lon="-105.2308562">
  <ele>1595.38</ele>
  <time>2026-08-28T19:12:03Z</time>
  <course>124.47</course>
  <speed>0.02</speed>
  <fix>3d</fix>
</trkpt>
<trkpt lat="40.0728166" lon="-105.2308564">
  <ele>1595.44</ele>
  <time>2026-08-28T19:12:03Z</time>
  <course>340.12</course>
  <speed>0.0</speed>
  <fix>3d</fix>
</trkpt>
<trkpt lat="40.0728164" lon="-105.2308561">
  <ele>1595.38</ele>
  <time>2026-08-28T19:12:03Z</time>
  <course>123.01</course>
  <speed>0.02</speed>
  <fix>3d</fix>
</trkpt>
<trkpt lat="40.0728166" lon="-105.2308563">
  <ele>1595.44</ele>
  <time>2026-08-28T19:12:03Z</time>
  <course>340.11</course>
  <speed>0.0</speed>
  <fix>3d</fix>
</trkpt>
<trkpt lat="40.0728164" lon="-105.2308561">
  <ele>1595.38</ele>
  <time>2026-08-28T19:12:03Z</time>
  <course>121.84</course>
  <speed>0.02</speed>
  <fix>3d</fix>
</trkpt>
<trkpt lat="40.0728165" lon="-105.2308563">
  <ele>1595.45</ele>
  <time>2026-08-28T19:12:03Z</time>
  <course>340.16</course>
  <speed>0.0</speed>
  <fix>3d</fix>
</trkpt>
<trkpt lat="40.0728164" lon="-105.2308561">
  <ele>1595.38</ele>
  <time>2026-08-28T19:12:03Z</time>
  <course>120.99</course>
  <speed>0.02</speed>
  <fix>3d</fix>
</trkpt>
<trkpt lat="40.0728165" lon="-105.2308562">
  <ele>1595.44</ele>
  <time>2026-08-28T19:12:03Z</time>
  <course>340.19</course>
  <speed>0.0</speed>
  <fix>3d</fix>
</trkpt>
<trkpt lat="40.0728164" lon="-105.230856">
  <ele>1595.37</ele>
  <time>2026-08-28T19:12:03Z</time>
  <course>119.64</course>
  <speed>0.02</speed>
  <fix>3d</fix>
</trkpt>
<trkpt lat="40.0728165" lon="-105.2308562">
  <ele>1595.44</ele>
  <time>2026-08-28T19:12:03Z</time>
  <course>340.18</course>
  <speed>0.0</speed>
  <fix>3d</fix>
</trkpt>
<trkpt lat="40.0728164" lon="-105.2308559">
  <ele>1595.37</ele>
  <time>2026-08-28T19:12:03Z</time>
  <course>118.19</course>
  <speed>0.02</speed>
  <fix>3d</fix>
</trkpt>
<trkpt lat="40.0728165" lon="-105.2308561">
  <ele>1595.43</ele>
  <time>2026-08-28T19:12:03Z</time>
  <course>340.16</course>
  <speed>0.0</speed>
  <fix>3d</fix>
</trkpt>
<trkpt lat="40.0728164" lon="-105.2308559">
  <ele>1595.37</ele>
  <time>2026-08-28T19:12:03Z</time>
  <course>117.45</course>
  <speed>0.02</speed>
  <fix>3d</fix>
</trkpt>
<trkpt lat="40.0728164" lon="-105.2308561">
  <ele>1595.43</ele>
  <time>2026-08-28T19:12:03Z</time>
  <course>340.15</course>
  <speed>0.0</speed>
  <fix>3d</fix>
</trkpt>
<trkpt lat="40.0728164" lon="-105.2308558">
  <ele>1595.36</ele>
  <time>2026-08-28T19:12:03Z</time>
  <course>117.36</course>
  <speed>0.02</speed>
  <fix>3d</fix>
</trkpt>
<trkpt lat="40.0728164" lon="-105.230856">
  <ele>1595.43</ele>
  <time>2026-08-28T19:12:03Z</time>
  <course>340.14</course>
  <speed>0.0</speed>
  <fix>3d</fix>
</trkpt>
<trkpt lat="40.0728163" lon="-105.2308558">
  <ele>1595.36</ele>
  <time>2026-08-28T19:12:03Z</time>
  <course>117.98</course>
  <speed>0.02</speed>
  <fix>3d</fix>
</trkpt>
<trkpt lat="40.0728164" lon="-105.230856">
  <ele>1595.42</ele>
  <time>2026-08-28T19:12:03Z</time>
  <course>340.14</course>
  <speed>0.0</speed>
  <fix>3d</fix>
</trkpt>
<trkpt lat="40.0728163" lon="-105.2308557">
  <ele>1595.36</ele>
  <time>2026-08-28T19:12:03Z</time>
  <course>119.2</course>
  <speed>0.02</speed>
  <fix>3d</fix>
</trkpt>
<trkpt lat="40.0728164" lon="-105.2308559">
  <ele>1595.42</ele>
  <time>2026-08-28T19:12:03Z</time>
  <course>340.13</course>
  <speed>0.0</speed>
  <fix>3d</fix>
</trkpt>
<trkpt lat="40.0728163" lon="-105.2308556">
  <ele>1595.36</ele>
  <time>2026-08-28T19:12:03Z</time>
  <course>120.23</course>
  <speed>0.02</speed>
  <fix>3d</fix>
</trkpt>
<trkpt lat="40.0728164" lon="-105.2308558">
  <ele>1595.42</ele>
  <time>2026-08-28T19:12:03Z</time>
  <course>340.12</course>
  <speed>0.0</speed>
  <fix>3d</fix>
</trkpt>
<trkpt lat="40.0728163" lon="-105.2308556">
  <ele>1595.36</ele>
  <time>2026-08-28T19:12:03Z</time>
  <course>121.0</course>
  <speed>0.02</speed>
  <fix>3d</fix>
</trkpt>
<trkpt lat="40.0728163" lon="-105.2308558">
  <ele>1595.42</ele>
  <time>2026-08-28T19:12:03Z</time>
  <course>340.14</course>
  <speed>0.0</speed>
  <fix>3d</fix>
</trkpt>
<trkpt lat="40.0728162" lon="-105.2308556">
  <ele>1595.36</ele>
  <time>2026-08-28T19:12:03Z</time>
  <course>122.11</course>
  <speed>0.02</speed>
  <fix>3d</fix>
</trkpt>
<trkpt lat="40.0728163" lon="-105.2308557">
  <ele>1595.41</ele>
  <time>2026-08-28T19:12:03Z</time>
  <course>340.38</course>
  <speed>0.0</speed>
  <fix>3d</fix>
</trkpt>
<trkpt lat="40.0728162" lon="-105.2308555">
  <ele>1595.36</ele>
  <time>2026-08-28T19:12:03Z</time>
  <course>125.4</course>
  <speed>0.02</speed>
  <fix>3d</fix>
</trkpt>
<trkpt lat="40.0728163" lon="-105.2308557">
  <ele>1595.37</ele>
  <time>2026-08-28T19:12:03Z</time>
  <course>340.9</course>
  <speed>0.0</speed>
  <fix>3d</fix>
</trkpt>
<trkpt lat="40.0728162" lon="-105.2308554">
  <ele>1595.35</ele>
  <time>2026-08-28T19:12:03Z</time>
  <course>128.08</course>
  <speed>0.02</speed>
  <fix>3d</fix>
</trkpt>
<trkpt lat="40.0728163" lon="-105.2308557">
  <ele>1595.3</ele>
  <time>2026-08-28T19:12:03Z</time>
  <course>341.16</course>
  <speed>0.0</speed>
  <fix>3d</fix>
</trkpt>
<trkpt lat="40.0728162" lon="-105.2308554">
  <ele>1595.31</ele>
  <time>2026-08-28T19:12:03Z</time>
  <course>122.09</course>
  <speed>0.02</speed>
  <fix>3d</fix>
</trkpt>
<trkpt lat="40.0728163" lon="-105.2308556">
  <ele>1595.21</ele>
  <time>2026-08-28T19:12:03Z</time>
  <course>341.13</course>
  <speed>0.0</speed>
  <fix>3d</fix>
</trkpt>
<trkpt lat="40.0728162" lon="-105.2308554">
  <ele>1595.23</ele>
  <time>2026-08-28T19:12:03Z</time>
  <course>107.29</course>
  <speed>0.02</speed>
  <fix>3d</fix>
</trkpt>
<trkpt lat="40.0728163" lon="-105.2308556">
  <ele>1595.19</ele>
  <time>2026-08-28T19:12:03Z</time>
  <course>341.12</course>
  <speed>0.0</speed>
  <fix>3d</fix>
</trkpt>
<trkpt lat="40.0728163" lon="-105.2308556">
  <ele>1595.11</ele>
  <time>2026-08-28T19:12:03Z</time>
  <course>341.07</course>
  <speed>0.01</speed>
  <fix>3d</fix>
</trkpt>
<trkpt lat="40.0728161" lon="-105.2308553">
  <ele>1595.13</ele>
  <time>2026-08-28T19:12:03Z</time>
  <course>92.34</course>
  <speed>0.02</speed>
  <fix>3d</fix>
</trkpt>
<trkpt lat="40.0728163" lon="-105.2308555">
  <ele>1595.0</ele>
  <time>2026-08-28T19:12:03Z</time>
  <course>341.01</course>
  <speed>0.01</speed>
  <fix>3d</fix>
</trkpt>
<trkpt lat="40.0728161" lon="-105.2308553">
  <ele>1595.03</ele>
  <time>2026-08-28T19:12:03Z</time>
  <course>81.4</course>
  <speed>0.02</speed>
  <fix>3d</fix>
</trkpt>
<trkpt lat="40.0728163" lon="-105.2308555">
  <ele>1594.89</ele>
  <time>2026-08-28T19:12:03Z</time>
  <course>340.96</course>
  <speed>0.01</speed>
  <fix>3d</fix>
</trkpt>
<trkpt lat="40.0728162" lon="-105.2308552">
  <ele>1594.92</ele>
  <time>2026-08-28T19:12:03Z</time>
  <course>75.81</course>
  <speed>0.02</speed>
  <fix>3d</fix>
</trkpt>
<trkpt lat="40.0728163" lon="-105.2308554">
  <ele>1594.78</ele>
  <time>2026-08-28T19:12:03Z</time>
  <course>340.94</course>
  <speed>0.01</speed>
  <fix>3d</fix>
</trkpt>
<trkpt lat="40.0728162" lon="-105.2308551">
  <ele>1594.81</ele>
  <time>2026-08-28T19:12:03Z</time>
  <course>74.0</course>
  <speed>0.02</speed>
  <fix>3d</fix>
</trkpt>
<trkpt lat="40.0728163" lon="-105.2308554">
  <ele>1594.67</ele>
  <time>2026-08-28T19:12:03Z</time>
  <course>340.86</course>
  <speed>0.01</speed>
  <fix>3d</fix>
</trkpt>
<trkpt lat="40.0728162" lon="-105.2308551">
  <ele>1594.69</ele>
  <time>2026-08-28T19:12:03Z</time>
  <course>72.93</course>
  <speed>0.01</speed>
  <fix>3d</fix>
</trkpt>
<trkpt lat="40.0728163" lon="-105.2308553">
  <ele>1594.56</ele>
  <time>2026-08-28T19:12:03Z</time>
  <course>340.83</course>
  <speed>0.01</speed>
  <fix>3d</fix>
</trkpt>
<trkpt lat="40.0728162" lon="-105.2308551">
  <ele>1594.58</ele>
  <time>2026-08-28T19:12:03Z</time>
  <course>71.47</course>
  <speed>0.01</speed>
  <fix>3d</fix>
</trkpt>
<trkpt lat="40.0728163" lon="-105.2308553">
  <ele>1594.46</ele>
  <time>2026-08-28T19:12:03Z</time>
  <course>340.82</course>
  <speed>0.01414213562373095</speed>
  <fix>3d</fix>
</trkpt>
<trkpt lat="40.0728162" lon="-105.2308551">
  <ele>1594.48</ele>
  <time>2026-08-28T19:12:03Z</time>
  <course>70.34</course>
  <speed>0.01</speed>
  <fix>3d</fix>
</trkpt>
<trkpt lat="40.0728163" lon="-105.2308553">
  <ele>1594.36</ele>
  <time>2026-08-28T19:12:03Z</time>
  <course>340.8</course>
  <speed>0.01414213562373095</speed>
  <fix>3d</fix>
</trkpt>
<trkpt lat="40.0728162" lon="-105.230855">
  <ele>1594.37</ele>
  <time>2026-08-28T19:12:03Z</time>
  <course>70.06</course>
  <speed>0.01</speed>
  <fix>3d</fix>
</trkpt>
<trkpt lat="40.0728163" lon="-105.2308553">
  <ele>1594.26</ele>
  <time>2026-08-28T19:12:03Z</time>
  <course>340.77</course>
  <speed>0.01414213562373095</speed>
  <fix>3d</fix>
</trkpt>
<trkpt lat="40.0728162" lon="-105.2308549">
  <ele>1594.27</ele>
  <time>2026-08-28T19:12:03Z</time>
  <course>71.17</course>
  <speed>0.0</speed>
  <fix>3d</fix>
</trkpt>
<trkpt lat="40.0728163" lon="-105.2308553">
  <ele>1594.15</ele>
  <time>2026-08-28T19:12:03Z</time>
  <course>340.77</course>
  <speed>0.022360679774997897</speed>
  <fix>3d</fix>
</trkpt>
<trkpt lat="40.0728162" lon="-105.2308549">
  <ele>1594.16</ele>
  <time>2026-08-28T19:12:03Z</time>
  <course>76.65</course>
  <speed>0.0</speed>
  <fix>3d</fix>
</trkpt>
<trkpt lat="40.0728163" lon="-105.2308552">
  <ele>1594.05</ele>
  <time>2026-08-28T19:12:03Z</time>
  <course>340.77</course>
  <speed>0.02</speed>
  <fix>3d</fix>
</trkpt>
<trkpt lat="40.0728162" lon="-105.2308549">
  <ele>1594.07</ele>
  <time>2026-08-28T19:12:03Z</time>
  <course>100.59</course>
  <speed>0.0</speed>
  <fix>3d</fix>
</trkpt>
<trkpt lat="40.0728163" lon="-105.2308552">
  <ele>1593.95</ele>
  <time>2026-08-28T19:12:03Z</time>
  <course>340.74</course>
  <speed>0.02</speed>
  <fix>3d</fix>
</trkpt>
<trkpt lat="40.0728162" lon="-105.2308549">
  <ele>1593.97</ele>
  <time>2026-08-28T19:12:03Z</time>
  <course>243.62</course>
  <speed>0.0</speed>
  <fix>3d</fix>
</trkpt>
<trkpt lat="40.0728163" lon="-105.2308552">
  <ele>1593.85</ele>
  <time>2026-08-28T19:12:03Z</time>
  <course>340.75</course>
  <speed>0.03</speed>
  <fix>3d</fix>
</trkpt>
<trkpt lat="40.0728162" lon="-105.2308549">
  <ele>1593.86</ele>
  <time>2026-08-28T19:12:03Z</time>
  <course>249.29</course>
  <speed>0.0</speed>
  <fix>3d</fix>
</trkpt>
<trkpt lat="40.0728163" lon="-105.2308552">
  <ele>1593.75</ele>
  <time>2026-08-28T19:12:03Z</time>
  <course>340.74</course>
  <speed>0.03</speed>
  <fix>3d</fix>
</trkpt>
<trkpt lat="40.0728162" lon="-105.2308549">
  <ele>1593.76</ele>
  <time>2026-08-28T19:12:03Z</time>
  <course>251.32</course>
  <speed>0.0</speed>
  <fix>3d</fix>
</trkpt>
<trkpt lat="40.0728163" lon="-105.2308552">
  <ele>1593.65</ele>
  <time>2026-08-28T19:12:03Z</time>
  <course>340.73</course>
  <speed>0.03</speed>
  <fix>3d</fix>
</trkpt>
<trkpt lat="40.0728162" lon="-105.2308549">
  <ele>1593.65</ele>
  <time>2026-08-28T19:12:03Z</time>
  <course>251.73</course>
  <speed>0.01</speed>
  <fix>3d</fix>
</trkpt>
<trkpt lat="40.0728163" lon="-105.2308552">
  <ele>1593.55</ele>
  <time>2026-08-28T19:12:03Z</time>
  <course>340.71</course>
  <speed>0.03</speed>
  <fix>3d</fix>
</trkpt>
<trkpt lat="40.0728162" lon="-105.2308549">
  <ele>1593.56</ele>
  <time>2026-08-28T19:12:03Z</time>
  <course>251.22</course>
  <speed>0.01</speed>
  <fix>3d</fix>
</trkpt>
<trkpt lat="40.0728163" lon="-105.2308552">
  <ele>1593.45</ele>
  <time>2026-08-28T19:12:03Z</time>
  <course>340.7</course>
  <speed>0.03</speed>
  <fix>3d</fix>
</trkpt>
<trkpt lat="40.0728162" lon="-105.2308549">
  <ele>1593.46</ele>
  <time>2026-08-28T19:12:03Z</time>
  <course>251.38</course>
  <speed>0.01</speed>
  <fix>3d</fix>
</trkpt>
<trkpt lat="40.0728163" lon="-105.2308552">
  <ele>1593.35</ele>
  <time>2026-08-28T19:12:03Z</time>
  <course>340.7</course>
  <speed>0.03</speed>
  <fix>3d</fix>
</trkpt>
<trkpt lat="40.0728162" lon="-105.230855">
  <ele>1593.36</ele>
  <time>2026-08-28T19:12:03Z</time>
  <course>252.56</course>
  <speed>0.01</speed>
  <fix>3d</fix>
</trkpt>
<trkpt lat="40.0728163" lon="-105.2308553">
  <ele>1593.25</ele>
  <time>2026-08-28T19:12:03Z</time>
  <course>340.69</course>
  <speed>0.03</speed>
  <fix>3d</fix>
</trkpt>
<trkpt lat="40.0728162" lon="-105.2308551">
  <ele>1593.26</ele>
  <time>2026-08-28T19:12:03Z</time>
  <course>253.28</course>
  <speed>0.01</speed>
  <fix>3d</fix>
</trkpt>
<trkpt lat="40.0728163" lon="-105.2308553">
  <ele>1593.15</ele>
  <time>2026-08-28T19:12:03Z</time>
  <course>340.68</course>
  <speed>0.03</speed>
  <fix>3d</fix>
</trkpt>
<trkpt lat="40.0728162" lon="-105.2308551">
  <ele>1593.15</ele>
  <time>2026-08-28T19:12:03Z</time>
  <course>253.27</course>
  <speed>0.01</speed>
  <fix>3d</fix>
</trkpt>
<trkpt lat="40.0728163" lon="-105.2308553">
  <ele>1593.06</ele>
  <time>2026-08-28T19:12:03Z</time>
  <course>340.67</course>
  <speed>0.03</speed>
  <fix>3d</fix>
</trkpt>
<trkpt lat="40.0728162" lon="-105.2308551">
  <ele>1593.06</ele>
  <time>2026-08-28T19:12:03Z</time>
  <course>252.81</course>
  <speed>0.01</speed>
  <fix>3d</fix>
</trkpt>
<trkpt lat="40.0728163" lon="-105.2308554">
  <ele>1592.95</ele>
  <time>2026-08-28T19:12:03Z</time>
  <course>340.66</course>
  <speed>0.03</speed>
  <fix>3d</fix>
</trkpt>
<trkpt lat="40.0728161" lon="-105.2308551">
  <ele>1592.96</ele>
  <time>2026-08-28T19:12:03Z</time>
  <course>252.12</course>
  <speed>0.01</speed>
  <fix>3d</fix>
</trkpt>
<trkpt lat="40.0728163" lon="-105.2308554">
  <ele>1592.85</ele>
  <time>2026-08-28T19:12:03Z</time>
  <course>340.65</course>
  <speed>0.03</speed>
  <fix>3d</fix>
</trkpt>
<trkpt lat="40.0728161" lon="-105.2308551">
  <ele>1592.86</ele>
  <time>2026-08-28T19:12:03Z</time>
  <course>251.14</course>
  <speed>0.01</speed>
  <fix>3d</fix>
</trkpt>
<trkpt lat="40.0728163" lon="-105.2308554">
  <ele>1592.75</ele>
  <time>2026-08-28T19:12:03Z</time>
  <course>340.65</course>
  <speed>0.03</speed>
  <fix>3d</fix>
</trkpt>
<trkpt lat="40.0728161" lon="-105.2308552">
  <ele>1592.75</ele>
  <time>2026-08-28T19:12:03Z</time>
  <course>250.69</course>
  <speed>0.01</speed>
  <fix>3d</fix>
</trkpt>
<trkpt lat="40.0728162" lon="-105.2308554">
  <ele>1592.65</ele>
  <time>2026-08-28T19:12:03Z</time>
  <course>340.64</course>
  <speed>0.03</speed>
  <fix>3d</fix>
</trkpt>
<trkpt lat="40.0728161" lon="-105.2308553">
  <ele>1592.64</ele>
  <time>2026-08-28T19:12:03Z</time>
  <course>251.57</course>
  <speed>0.01</speed>
  <fix>3d</fix>
</trkpt>
<trkpt lat="40.0728162" lon="-105.2308555">
  <ele>1592.55</ele>
  <time>2026-08-28T19:12:03Z</time>
  <course>340.62</course>
  <speed>0.03</speed>
  <fix>3d</fix>
</trkpt>
<trkpt lat="40.0728161" lon="-105.2308553">
  <ele>1592.55</ele>
  <time>2026-08-28T19:12:03Z</time>
  <course>253.72</course>
  <speed>0.01</speed>
  <fix>3d</fix>
</trkpt>
<trkpt lat="40.0728162" lon="-105.2308555">
  <ele>1592.45</ele>
  <time>2026-08-28T19:12:03Z</time>
  <course>340.62</course>
  <speed>0.03</speed>
  <fix>3d</fix>
</trkpt>
<trkpt lat="40.0728161" lon="-105.2308553">
  <ele>1592.45</ele>
  <time>2026-08-28T19:12:03Z</time>
  <course>256.31</course>
  <speed>0.01</speed>
  <fix>3d</fix>
</trkpt>
<trkpt lat="40.0728162" lon="-105.2308555">
  <ele>1592.35</ele>
  <time>2026-08-28T19:12:03Z</time>
  <course>340.6</course>
  <speed>0.02</speed>
  <fix>3d</fix>
</trkpt>
<trkpt lat="40.0728161" lon="-105.2308553">
  <ele>1592.35</ele>
  <time>2026-08-28T19:12:03Z</time>
  <course>258.33</course>
  <speed>0.0</speed>
  <fix>3d</fix>
</trkpt>
<trkpt lat="40.0728162" lon="-105.2308555">
  <ele>1592.25</ele>
  <time>2026-08-28T19:12:03Z</time>
  <course>340.6</course>
  <speed>0.02</speed>
  <fix>3d</fix>
</trkpt>
<trkpt lat="40.0728161" lon="-105.2308554">
  <ele>1592.25</ele>
  <time>2026-08-28T19:12:03Z</time>
  <course>259.93</course>
  <speed>0.0</speed>
  <fix>3d</fix>
</trkpt>
<trkpt lat="40.0728162" lon="-105.2308555">
  <ele>1592.15</ele>
  <time>2026-08-28T19:12:03Z</time>
  <course>340.6</course>
  <speed>0.02</speed>
  <fix>3d</fix>
</trkpt>
<trkpt lat="40.0728161" lon="-105.2308554">
  <ele>1592.14</ele>
  <time>2026-08-28T19:12:03Z</time>
  <course>262.06</course>
  <speed>0.0</speed>
  <fix>3d</fix>
</trkpt>
<trkpt lat="40.0728162" lon="-105.2308555">
  <ele>1592.05</ele>
  <time>2026-08-28T19:12:03Z</time>
  <course>340.59</course>
  <speed>0.02</speed>
  <fix>3d</fix>
</trkpt>
<trkpt lat="40.0728161" lon="-105.2308554">
  <ele>1592.05</ele>
  <time>2026-08-28T19:12:03Z</time>
  <course>266.62</course>
  <speed>0.0</speed>
  <fix>3d</fix>
</trkpt>
<trkpt lat="40.0728162" lon="-105.2308556">
  <ele>1591.95</ele>
  <time>2026-08-28T19:12:03Z</time>
  <course>340.58</course>
  <speed>0.02</speed>
  <fix>3d</fix>
</trkpt>
<trkpt lat="40.0728161" lon="-105.2308554">
  <ele>1591.95</ele>
  <time>2026-08-28T19:12:03Z</time>
  <course>275.97</course>
  <speed>0.0</speed>
  <fix>3d</fix>
</trkpt>
<trkpt lat="40.0728162" lon="-105.2308556">
  <ele>1591.85</ele>
  <time>2026-08-28T19:12:03Z</time>
  <course>340.57</course>
  <speed>0.02</speed>
  <fix>3d</fix>
</trkpt>
<trkpt lat="40.0728161" lon="-105.2308554">
  <ele>1591.85</ele>
  <time>2026-08-28T19:12:03Z</time>
  <course>304.48</course>
  <speed>0.0</speed>
  <fix>3d</fix>
</trkpt>
<trkpt lat="40.0728162" lon="-105.2308556">
  <ele>1591.75</ele>
  <time>2026-08-28T19:12:03Z</time>
  <course>340.56</course>
  <speed>0.02</speed>
  <fix>3d</fix>
</trkpt>
<trkpt lat="40.0728161" lon="-105.2308554">
  <ele>1591.75</ele>
  <time>2026-08-28T19:12:03Z</time>
  <course>48.99</course>
  <speed>0.0</speed>
  <fix>3d</fix>
</trkpt>
<trkpt lat="40.0728162" lon="-105.2308556">
  <ele>1591.65</ele>
  <time>2026-08-28T19:12:03Z</time>
  <course>340.55</course>
  <speed>0.022360679774997897</speed>
  <fix>3d</fix>
</trkpt>
<trkpt lat="40.0728161" lon="-105.2308554">
  <ele>1591.64</ele>
  <time>2026-08-28T19:12:03Z</time>
  <course>72.29</course>
  <speed>0.0</speed>
  <fix>3d</fix>
</trkpt>
<trkpt lat="40.0728162" lon="-105.2308556">
  <ele>1591.55</ele>
  <time>2026-08-28T19:12:03Z</time>
  <course>340.55</course>
  <speed>0.01414213562373095</speed>
  <fix>3d</fix>
</trkpt>
<trkpt lat="40.0728161" lon="-105.2308554">
  <ele>1591.55</ele>
  <time>2026-08-28T19:12:03Z</time>
  <course>76.25</course>
  <speed>0.0</speed>
  <fix>3d</fix>
</trkpt>
<trkpt lat="40.0728162" lon="-105.2308556">
  <ele>1591.45</ele>
  <time>2026-08-28T19:12:03Z</time>
  <course>340.55</course>
  <speed>0.01414213562373095</speed>
  <fix>3d</fix>
</trkpt>
<trkpt lat="40.0728161" lon="-105.2308554">
  <ele>1591.45</ele>
  <time>2026-08-28T19:12:03Z</time>
  <course>75.7</course>
  <speed>0.0</speed>
  <fix>3d</fix>
</trkpt>
<trkpt lat="40.0728162" lon="-105.2308555">
  <ele>1591.35</ele>
  <time>2026-08-28T19:12:03Z</time>
  <course>340.54</course>
  <speed>0.01414213562373095</speed>
  <fix>3d</fix>
</trkpt>
<trkpt lat="40.0728161" lon="-105.2308554">
  <ele>1591.35</ele>
  <time>2026-08-28T19:12:03Z</time>
  <course>74.67</course>
  <speed>0.0</speed>
  <fix>3d</fix>
</trkpt>
<trkpt lat="40.0728162" lon="-105.2308555">
  <ele>1591.25</ele>
  <time>2026-08-28T19:12:03Z</time>
  <course>340.53</course>
  <speed>0.01414213562373095</speed>
  <fix>3d</fix>
</trkpt>
<trkpt lat="40.0728161" lon="-105.2308554">
  <ele>1591.25</ele>
  <time>2026-08-28T19:12:03Z</time>
  <course>76.07</course>
  <speed>0.0</speed>
  <fix>3d</fix>
</trkpt>
<trkpt lat="40.0728162" lon="-105.2308555">
  <ele>1591.15</ele>
  <time>2026-08-28T19:12:03Z</time>
  <course>340.54</course>
  <speed>0.01414213562373095</speed>
  <fix>3d</fix>
</trkpt>
<trkpt lat="40.0728161" lon="-105.2308554">
  <ele>1591.14</ele>
  <time>2026-08-28T19:12:03Z</time>
  <course>78.55</course>
  <speed>0.0</speed>
  <fix>3d</fix>
</trkpt>
<trkpt lat="40.0728162" lon="-105.2308555">
  <ele>1591.05</ele>
  <time>2026-08-28T19:12:03Z</time>
  <course>340.52</course>
  <speed>0.01414213562373095</speed>
  <fix>3d</fix>
</trkpt>
<trkpt lat="40.0728161" lon="-105.2308554">
  <ele>1591.05</ele>
  <time>2026-08-28T19:12:03Z</time>
  <course>79.83</course>
  <speed>0.0</speed>
  <fix>3d</fix>
</trkpt>
<trkpt lat="40.0728162" lon="-105.2308555">
  <ele>1590.95</ele>
  <time>2026-08-28T19:12:03Z</time>
  <course>340.51</course>
  <speed>0.01414213562373095</speed>
  <fix>3d</fix>
</trkpt>
<trkpt lat="40.0728161" lon="-105.2308554">
  <ele>1590.95</ele>
  <time>2026-08-28T19:12:03Z</time>
  <course>80.04</course>
  <speed>0.0</speed>
  <fix>3d</fix>
</trkpt>
<trkpt lat="40.0728162" lon="-105.2308555">
  <ele>1590.85</ele>
  <time>2026-08-28T19:12:03Z</time>
  <course>340.51</course>
  <speed>0.01414213562373095</speed>
  <fix>3d</fix>
</trkpt>
<trkpt lat="40.0728161" lon="-105.2308554">
  <ele>1590.85</ele>
  <time>2026-08-28T19:12:03Z</time>
  <course>80.72</course>
  <speed>0.0</speed>
  <fix>3d</fix>
</trkpt>
<trkpt lat="40.0728162" lon="-105.2308555">
  <ele>1590.75</ele>
  <time>2026-08-28T19:12:03Z</time>
  <course>340.51</course>
  <speed>0.01414213562373095</speed>
  <fix>3d</fix>
</trkpt>
<trkpt lat="40.0728161" lon="-105.2308554">
  <ele>1590.75</ele>
  <time>2026-08-28T19:12:03Z</time>
  <course>81.41</course>
  <speed>0.0</speed>
  <fix>3d</fix>
</trkpt>
<trkpt lat="40.0728162" lon="-105.2308555">
  <ele>1590.65</ele>
  <time>2026-08-28T19:12:03Z</time>
  <course>340.5</course>
  <speed>0.01414213562373095</speed>
  <fix>3d</fix>
</trkpt>
<trkpt lat="40.0728161" lon="-105.2308554">
  <ele>1590.64</ele>
  <time>2026-08-28T19:12:03Z</time>
  <course>81.37</course>
  <speed>0.0</speed>
  <fix>3d</fix>
</trkpt>
<trkpt lat="40.0728162" lon="-105.2308555">
  <ele>1590.55</ele>
  <time>2026-08-28T19:12:03Z</time>
  <course>340.47</course>
  <speed>0.01414213562373095</speed>
  <fix>3d</fix>
</trkpt>
<trkpt lat="40.0728161" lon="-105.2308554">
  <ele>1590.55</ele>
  <time>2026-08-28T19:12:03Z</time>
  <course>80.94</course>
  <speed>0.0</speed>
  <fix>3d</fix>
</trkpt>
<trkpt lat="40.0728162" lon="-105.2308555">
  <ele>1590.45</ele>
  <time>2026-08-28T19:12:03Z</time>
  <course>340.49</course>
  <speed>0.01</speed>
  <fix>3d</fix>
</trkpt>
<trkpt lat="40.0728161" lon="-105.2308553">
  <ele>1590.45</ele>
  <time>2026-08-28T19:12:03Z</time>
  <course>82.06</course>
  <speed>0.0</speed>
  <fix>3d</fix>
</trkpt>
<trkpt lat="40.0728162" lon="-105.2308555">
  <ele>1590.35</ele>
  <time>2026-08-28T19:12:03Z</time>
  <course>340.49</course>
  <speed>0.01</speed>
  <fix>3d</fix>
</trkpt>
<trkpt lat="40.0728161" lon="-105.2308553">
  <ele>1590.35</ele>
  <time>2026-08-28T19:12:03Z</time>
  <course>83.95</course>
  <speed>0.0</speed>
  <fix>3d</fix>
</trkpt>
<trkpt lat="40.0728162" lon="-105.2308555">
  <ele>1590.25</ele>
  <time>2026-08-28T19:12:03Z</time>
  <course>340.49</course>
  <speed>0.01414213562373095</speed>
  <fix>3d</fix>
</trkpt>
<trkpt lat="40.0728161" lon="-105.2308553">
  <ele>1590.25</ele>
  <time>2026-08-28T19:12:03Z</time>
  <course>83.11</course>
  <speed>0.0</speed>
  <fix>3d</fix>
</trkpt>
<trkpt lat="40.0728162" lon="-105.2308555">
  <ele>1590.15</ele>
  <time>2026-08-28T19:12:03Z</time>
  <course>340.45</course>
  <speed>0.01414213562373095</speed>
  <fix>3d</fix>
</trkpt>
<trkpt lat="40.0728161" lon="-105.2308553">
  <ele>1590.14</ele>
  <time>2026-08-28T19:12:03Z</time>
  <course>79.86</course>
  <speed>0.0</speed>
  <fix>3d</fix>
</trkpt>
<trkpt lat="40.0728162" lon="-105.2308555">
  <ele>1590.05</ele>
  <time>2026-08-28T19:12:03Z</time>
  <course>340.45</course>
  <speed>0.022360679774997897</speed>
  <fix>3d</fix>
</trkpt>
<trkpt lat="40.0728161" lon="-105.2308553">
  <ele>1590.05</ele>
  <time>2026-08-28T19:12:03Z</time>
  <course>77.29</course>
  <speed>0.0</speed>
  <fix>3d</fix>
</trkpt>
<trkpt lat="40.0728162" lon="-105.2308555">
  <ele>1589.96</ele>
  <time>2026-08-28T19:12:03Z</time>
  <course>340.47</course>
  <speed>0.022360679774997897</speed>
  <fix>3d</fix>
</trkpt>
<trkpt lat="40.0728161" lon="-105.2308553">
  <ele>1589.95</ele>
  <time>2026-08-28T19:12:03Z</time>
  <course>76.69</course>
  <speed>0.0</speed>
  <fix>3d</fix>
</trkpt>
<trkpt lat="40.0728162" lon="-105.2308555">
  <ele>1589.86</ele>
  <time>2026-08-28T19:12:03Z</time>
  <course>340.46</course>
  <speed>0.02</speed>
  <fix>3d</fix>
</trkpt>
<trkpt lat="40.0728161" lon="-105.2308553">
  <ele>1589.85</ele>
  <time>2026-08-28T19:12:03Z</time>
  <course>77.46</course>
  <speed>0.0</speed>
  <fix>3d</fix>
</trkpt>
<trkpt lat="40.0728162" lon="-105.2308555">
  <ele>1589.75</ele>
  <time>2026-08-28T19:12:03Z</time>
  <course>340.45</course>
  <speed>0.022360679774997897</speed>
  <fix>3d</fix>
</trkpt>
<trkpt lat="40.0728161" lon="-105.2308552">
  <ele>1589.75</ele>
  <time>2026-08-28T19:12:03Z</time>
  <course>77.02</course>
  <speed>0.0</speed>
  <fix>3d</fix>
</trkpt>
<trkpt lat="40.0728162" lon="-105.2308555">
  <ele>1589.65</ele>
  <time>2026-08-28T19:12:03Z</time>
  <course>340.45</course>
  <speed>0.022360679774997897</speed>
  <fix>3d</fix>
</trkpt>
<trkpt lat="40.0728161" lon="-105.2308551">
  <ele>1589.64</ele>
  <time>2026-08-28T19:12:03Z</time>
  <course>72.88</course>
  <speed>0.0</speed>
  <fix>3d</fix>
</trkpt>
<trkpt lat="40.0728162" lon="-105.2308555">
  <ele>1589.55</ele>
  <time>2026-08-28T19:12:03Z</time>
  <course>340.44</course>
  <speed>0.022360679774997897</speed>
  <fix>3d</fix>
</trkpt>
<trkpt lat="40.0728161" lon="-105.2308551">
  <ele>1589.55</ele>
  <time>2026-08-28T19:12:03Z</time>
  <course>63.67</course>
  <speed>0.0</speed>
  <fix>3d</fix>
</trkpt>
<trkpt lat="40.0728162" lon="-105.2308555">
  <ele>1589.45</ele>
  <time>2026-08-28T19:12:03Z</time>
  <course>340.44</course>
  <speed>0.022360679774997897</speed>
  <fix>3d</fix>
</trkpt>
<trkpt lat="40.0728161" lon="-105.2308551">
  <ele>1589.45</ele>
  <time>2026-08-28T19:12:03Z</time>
  <course>52.19</course>
  <speed>0.0</speed>
  <fix>3d</fix>
</trkpt>
<trkpt lat="40.0728162" lon="-105.2308555">
  <ele>1589.35</ele>
  <time>2026-08-28T19:12:03Z</time>
  <course>340.43</course>
  <speed>0.022360679774997897</speed>
  <fix>3d</fix>
</trkpt>
<trkpt lat="40.0728161" lon="-105.2308551">
  <ele>1589.35</ele>
  <time>2026-08-28T19:12:03Z</time>
  <course>36.15</course>
  <speed>0.0</speed>
  <fix>3d</fix>
</trkpt>
<trkpt lat="40.0728162" lon="-105.2308554">
  <ele>1589.25</ele>
  <time>2026-08-28T19:12:03Z</time>
  <course>340.43</course>
  <speed>0.022360679774997897</speed>
  <fix>3d</fix>
</trkpt>
<trkpt lat="40.0728161" lon="-105.2308551">
  <ele>1589.25</ele>
  <time>2026-08-28T19:12:03Z</time>
  <course>8.63</course>
  <speed>0.0</speed>
  <fix>3d</fix>
</trkpt>
<trkpt lat="40.0728162" lon="-105.2308554">
  <ele>1589.15</ele>
  <time>2026-08-28T19:12:03Z</time>
  <course>340.42</course>
  <speed>0.022360679774997897</speed>
  <fix>3d</fix>
</trkpt>
<trkpt lat="40.0728161" lon="-105.2308551">
  <ele>1589.14</ele>
  <time>2026-08-28T19:12:03Z</time>
  <course>335.6</course>
  <speed>0.0</speed>
  <fix>3d</fix>
</trkpt>
<trkpt lat="40.0728162" lon="-105.2308554">
  <ele>1589.05</ele>
  <time>2026-08-28T19:12:03Z</time>
  <course>340.41</course>
  <speed>0.022360679774997897</speed>
  <fix>3d</fix>
</trkpt>
<trkpt lat="40.0728161" lon="-105.2308551">
  <ele>1589.05</ele>
  <time>2026-08-28T19:12:03Z</time>
  <course>315.47</course>
  <speed>0.0</speed>
  <fix>3d</fix>
</trkpt>
<trkpt lat="40.0728162" lon="-105.2308554">
  <ele>1588.95</ele>
  <time>2026-08-28T19:12:03Z</time>
  <course>340.4</course>
  <speed>0.022360679774997897</speed>
  <fix>3d</fix>
</trkpt>
<trkpt lat="40.0728161" lon="-105.2308551">
  <ele>1588.95</ele>
  <time>2026-08-28T19:12:03Z</time>
  <course>304.08</course>
  <speed>0.0</speed>
  <fix>3d</fix>
</trkpt>
<trkpt lat="40.0728162" lon="-105.2308554">
  <ele>1588.84</ele>
  <time>2026-08-28T19:12:03Z</time>
  <course>340.38</course>
  <speed>0.022360679774997897</speed>
  <fix>3d</fix>
</trkpt>
<trkpt lat="40.0728161" lon="-105.2308551">
  <ele>1588.85</ele>
  <time>2026-08-28T19:12:03Z</time>
  <course>294.98</course>
  <speed>0.0</speed>
  <fix>3d</fix>
</trkpt>
<trkpt lat="40.0728162" lon="-105.2308554">
  <ele>1588.74</ele>
  <time>2026-08-28T19:12:03Z</time>
  <course>340.39</course>
  <speed>0.022360679774997897</speed>
  <fix>3d</fix>
</trkpt>
<trkpt lat="40.0728161" lon="-105.2308551">
  <ele>1588.75</ele>
  <time>2026-08-28T19:12:03Z</time>
  <course>288.0</course>
  <speed>0.0</speed>
  <fix>3d</fix>
</trkpt>
<trkpt lat="40.0728162" lon="-105.2308554">
  <ele>1588.64</ele>
  <time>2026-08-28T19:12:03Z</time>
  <course>340.4</course>
  <speed>0.022360679774997897</speed>
  <fix>3d</fix>
</trkpt>
<trkpt lat="40.0728161" lon="-105.2308551">
  <ele>1588.64</ele>
  <time>2026-08-28T19:12:03Z</time>
  <course>284.55</course>
  <speed>0.0</speed>
  <fix>3d</fix>
</trkpt>
<trkpt lat="40.0728162" lon="-105.2308554">
  <ele>1588.54</ele>
  <time>2026-08-28T19:12:03Z</time>
  <course>340.37</course>
  <speed>0.022360679774997897</speed>
  <fix>3d</fix>
</trkpt>
<trkpt lat="40.0728161" lon="-105.2308551">
  <ele>1588.55</ele>
  <time>2026-08-28T19:12:03Z</time>
  <course>281.93</course>
  <speed>0.0</speed>
  <fix>3d</fix>
</trkpt>
<trkpt lat="40.0728162" lon="-105.2308554">
  <ele>1588.44</ele>
  <time>2026-08-28T19:12:03Z</time>
  <course>340.39</course>
  <speed>0.0316227766016838</speed>
  <fix>3d</fix>
</trkpt>
<trkpt lat="40.0728161" lon="-105.2308551">
  <ele>1588.45</ele>
  <time>2026-08-28T19:12:03Z</time>
  <course>280.07</course>
  <speed>0.0</speed>
  <fix>3d</fix>
</trkpt>
<trkpt lat="40.0728162" lon="-105.2308554">
  <ele>1588.34</ele>
  <time>2026-08-28T19:12:03Z</time>
  <course>340.4</course>
  <speed>0.0316227766016838</speed>
  <fix>3d</fix>
</trkpt>
<trkpt lat="40.0728161" lon="-105.2308551">
  <ele>1588.35</ele>
  <time>2026-08-28T19:12:03Z</time>
  <course>280.21</course>
  <speed>0.0</speed>
  <fix>3d</fix>
</trkpt>
<trkpt lat="40.0728162" lon="-105.2308554">
  <ele>1588.24</ele>
  <time>2026-08-28T19:12:03Z</time>
  <course>340.38</course>
  <speed>0.0316227766016838</speed>
  <fix>3d</fix>
</trkpt>
<trkpt lat="40.0728161" lon="-105.2308551">
  <ele>1588.25</ele>
  <time>2026-08-28T19:12:03Z</time>
  <course>281.4</course>
  <speed>0.0</speed>
  <fix>3d</fix>
</trkpt>
<trkpt lat="40.0728162" lon="-105.2308554">
  <ele>1588.14</ele>
  <time>2026-08-28T19:12:03Z</time>
  <course>340.35</course>
  <speed>0.022360679774997897</speed>
  <fix>3d</fix>
</trkpt>
<trkpt lat="40.0728161" lon="-105.2308552">
  <ele>1588.15</ele>
  <time>2026-08-28T19:12:03Z</time>
  <course>282.0</course>
  <speed>0.0</speed>
  <fix>3d</fix>
</trkpt>
<trkpt lat="40.0728162" lon="-105.2308554">
  <ele>1588.04</ele>
  <time>2026-08-28T19:12:03Z</time>
  <course>340.34</course>
  <speed>0.0316227766016838</speed>
  <fix>3d</fix>
</trkpt>
<trkpt lat="40.0728161" lon="-105.2308553">
  <ele>1588.06</ele>
  <time>2026-08-28T19:12:03Z</time>
  <course>281.4</course>
  <speed>0.0</speed>
  <fix>3d</fix>
</trkpt>
<trkpt lat="40.0728162" lon="-105.2308554">
  <ele>1587.94</ele>
  <time>2026-08-28T19:12:03Z</time>
  <course>340.34</course>
  <speed>0.0316227766016838</speed>
  <fix>3d</fix>
</trkpt>
<trkpt lat="40.0728161" lon="-105.2308553">
  <ele>1587.96</ele>
  <time>2026-08-28T19:12:03Z</time>
  <course>281.41</course>
  <speed>0.0</speed>
  <fix>3d</fix>
</trkpt>
<trkpt lat="40.0728162" lon="-105.2308555">
  <ele>1587.84</ele>
  <time>2026-08-28T19:12:03Z</time>
  <course>340.36</course>
  <speed>0.02</speed>
  <fix>3d</fix>
</trkpt>
<trkpt lat="40.0728161" lon="-105.2308553">
  <ele>1587.86</ele>
  <time>2026-08-28T19:12:03Z</time>
  <course>281.71</course>
  <speed>0.0</speed>
  <fix>3d</fix>
</trkpt>
<trkpt lat="40.0728162" lon="-105.2308555">
  <ele>1587.74</ele>
  <time>2026-08-28T19:12:03Z</time>
  <course>340.37</course>
  <speed>0.02</speed>
  <fix>3d</fix>
</trkpt>
<trkpt lat="40.0728161" lon="-105.2308553">
  <ele>1587.77</ele>
  <time>2026-08-28T19:12:03Z</time>
  <course>281.72</course>
  <speed>0.0</speed>
  <fix>3d</fix>
</trkpt>
<trkpt lat="40.0728162" lon="-105.2308555">
  <ele>1587.64</ele>
  <time>2026-08-28T19:12:03Z</time>
  <course>340.34</course>
  <speed>0.022360679774997897</speed>
  <fix>3d</fix>
</trkpt>
<trkpt lat="40.0728161" lon="-105.2308554">
  <ele>1587.66</ele>
  <time>2026-08-28T19:12:03Z</time>
  <course>285.29</course>
  <speed>0.0</speed>
  <fix>3d</fix>
</trkpt>
<trkpt lat="40.0728162" lon="-105.2308555">
  <ele>1587.54</ele>
  <time>2026-08-28T19:12:03Z</time>
  <course>340.33</course>
  <speed>0.02</speed>
  <fix>3d</fix>
</trkpt>
<trkpt lat="40.0728161" lon="-105.2308554">
  <ele>1587.57</ele>
  <time>2026-08-28T19:12:03Z</time>
  <course>289.5</course>
  <speed>0.0</speed>
  <fix>3d</fix>
</trkpt>
<trkpt lat="40.0728162" lon="-105.2308555">
  <ele>1587.44</ele>
  <time>2026-08-28T19:12:03Z</time>
  <course>340.35</course>
  <speed>0.022360679774997897</speed>
  <fix>3d</fix>
</trkpt>
<trkpt lat="40.0728161" lon="-105.2308554">
  <ele>1587.47</ele>
  <time>2026-08-28T19:12:03Z</time>
  <course>293.29</course>
  <speed>0.0</speed>
  <fix>3d</fix>
</trkpt>
<trkpt lat="40.0728162" lon="-105.2308555">
  <ele>1587.34</ele>
  <time>2026-08-28T19:12:03Z</time>
  <course>340.34</course>
  <speed>0.022360679774997897</speed>
  <fix>3d</fix>
</trkpt>
<trkpt lat="40.0728161" lon="-105.2308554">
  <ele>1587.38</ele>
  <time>2026-08-28T19:12:03Z</time>
  <course>305.31</course>
  <speed>0.0</speed>
  <fix>3d</fix>
</trkpt>
<trkpt lat="40.0728162" lon="-105.2308556">
  <ele>1587.25</ele>
  <time>2026-08-28T19:12:03Z</time>
  <course>340.32</course>
  <speed>0.02</speed>
  <fix>3d</fix>
</trkpt>
<trkpt lat="40.0728161" lon="-105.2308554">
  <ele>1587.28</ele>
  <time>2026-08-28T19:12:03Z</time>
  <course>325.67</course>
  <speed>0.0</speed>
  <fix>3d</fix>
</trkpt>
<trkpt lat="40.0728162" lon="-105.2308556">
  <ele>1587.15</ele>
  <time>2026-08-28T19:12:03Z</time>
  <course>340.34</course>
  <speed>0.02</speed>
  <fix>3d</fix>
</trkpt>
<trkpt lat="40.0728161" lon="-105.2308554">
  <ele>1587.17</ele>
  <time>2026-08-28T19:12:03Z</time>
  <course>355.08</course>
  <speed>0.0</speed>
  <fix>3d</fix>
</trkpt>
<trkpt lat="40.0728162" lon="-105.2308556">
  <ele>1587.05</ele>
  <time>2026-08-28T19:12:03Z</time>
  <course>340.34</course>
  <speed>0.02</speed>
  <fix>3d</fix>
</trkpt>
<trkpt lat="40.0728161" lon="-105.2308554">
  <ele>1587.08</ele>
  <time>2026-08-28T19:12:03Z</time>
  <course>35.97</course>
  <speed>0.0</speed>
  <fix>3d</fix>
</trkpt>
<trkpt lat="40.0728162" lon="-105.2308556">
  <ele>1586.95</ele>
  <time>2026-08-28T19:12:03Z</time>
  <course>340.33</course>
  <speed>0.02</speed>
  <fix>3d</fix>
</trkpt>
<trkpt lat="40.0728161" lon="-105.2308554">
  <ele>1586.99</ele>
  <time>2026-08-28T19:12:03Z</time>
  <course>55.78</course>
  <speed>0.0</speed>
  <fix>3d</fix>
</trkpt>
<trkpt lat="40.0728162" lon="-105.2308555">
  <ele>1586.85</ele>
  <time>2026-08-28T19:12:03Z</time>
  <course>340.33</course>
  <speed>0.01</speed>
  <fix>3d</fix>
</trkpt>
<trkpt lat="40.0728161" lon="-105.2308554">
  <ele>1586.88</ele>
  <time>2026-08-28T19:12:03Z</time>
  <course>62.13</course>
  <speed>0.0</speed>
  <fix>3d</fix>
</trkpt>
<trkpt lat="40.0728162" lon="-105.2308555">
  <ele>1586.75</ele>
  <time>2026-08-28T19:12:03Z</time>
  <course>340.33</course>
  <speed>0.01414213562373095</speed>
  <fix>3d</fix>
</trkpt>
<trkpt lat="40.0728161" lon="-105.2308554">
  <ele>1586.79</ele>
  <time>2026-08-28T19:12:03Z</time>
  <course>63.57</course>
  <speed>0.0</speed>
  <fix>3d</fix>
</trkpt>
<trkpt lat="40.0728162" lon="-105.2308555">
  <ele>1586.65</ele>
  <time>2026-08-28T19:12:03Z</time>
  <course>340.34</course>
  <speed>0.01</speed>
  <fix>3d</fix>
</trkpt>
<trkpt lat="40.0728161" lon="-105.2308554">
  <ele>1586.69</ele>
  <time>2026-08-28T19:12:03Z</time>
  <course>64.98</course>
  <speed>0.0</speed>
  <fix>3d</fix>
</trkpt>
<trkpt lat="40.0728162" lon="-105.2308555">
  <ele>1586.55</ele>
  <time>2026-08-28T19:12:03Z</time>
  <course>340.31</course>
  <speed>0.01</speed>
  <fix>3d</fix>
</trkpt>
<trkpt lat="40.0728161" lon="-105.2308554">
  <ele>1586.59</ele>
  <time>2026-08-28T19:12:03Z</time>
  <course>68.17</course>
  <speed>0.0</speed>
  <fix>3d</fix>
</trkpt>
<trkpt lat="40.0728162" lon="-105.2308555">
  <ele>1586.45</ele>
  <time>2026-08-28T19:12:03Z</time>
  <course>340.32</course>
  <speed>0.01</speed>
  <fix>3d</fix>
</trkpt>
<trkpt lat="40.0728162" lon="-105.2308554">
  <ele>1586.49</ele>
  <time>2026-08-28T19:12:03Z</time>
  <course>70.89</course>
  <speed>0.0</speed>
  <fix>3d</fix>
</trkpt>
<trkpt lat="40.0728162" lon="-105.2308555">
  <ele>1586.35</ele>
  <time>2026-08-28T19:12:03Z</time>
  <course>340.33</course>
  <speed>0.01414213562373095</speed>
  <fix>3d</fix>
</trkpt>
<trkpt lat="40.0728162" lon="-105.2308554">
  <ele>1586.38</ele>
  <time>2026-08-28T19:12:03Z</time>
  <course>73.56</course>
  <speed>0.0</speed>
  <fix>3d</fix>
</trkpt>
<trkpt lat="40.0728162" lon="-105.2308555">
  <ele>1586.25</ele>
  <time>2026-08-28T19:12:03Z</time>
  <course>340.3</course>
  <speed>0.01</speed>
  <fix>3d</fix>
</trkpt>
<trkpt lat="40.0728162" lon="-105.2308554">
  <ele>1586.29</ele>
  <time>2026-08-28T19:12:03Z</time>
  <course>76.33</course>
  <speed>0.0</speed>
  <fix>3d</fix>
</trkpt>
<trkpt lat="40.0728162" lon="-105.2308555">
  <ele>1586.15</ele>
  <time>2026-08-28T19:12:03Z</time>
  <course>340.32</course>
  <speed>0.01</speed>
  <fix>3d</fix>
</trkpt>
<trkpt lat="40.0728162" lon="-105.2308554">
  <ele>1586.19</ele>
  <time>2026-08-28T19:12:03Z</time>
  <course>81.93</course>
  <speed>0.0</speed>
  <fix>3d</fix>
</trkpt>
<trkpt lat="40.0728162" lon="-105.2308555">
  <ele>1586.05</ele>
  <time>2026-08-28T19:12:03Z</time>
  <course>340.31</course>
  <speed>0.01</speed>
  <fix>3d</fix>
</trkpt>
<trkpt lat="40.0728162" lon="-105.2308554">
  <ele>1586.09</ele>
  <time>2026-08-28T19:12:03Z</time>
  <course>89.38</course>
  <speed>0.0</speed>
  <fix>3d</fix>
</trkpt>
<trkpt lat="40.0728162" lon="-105.2308555">
  <ele>1585.96</ele>
  <time>2026-08-28T19:12:04Z</time>
  <course>340.31</course>
  <speed>0.04</speed>
  <fix>3d</fix>
</trkpt>
<trkpt lat="40.0728162" lon="-105.2308554">
  <ele>1585.99</ele>
  <time>2026-08-28T19:12:04Z</time>
  <course>122.43</course>
  <speed>0.0</speed>
  <fix>3d</fix>
</trkpt>
<trkpt lat="40.0728162" lon="-105.2308556">
  <ele>1585.98</ele>
  <time>2026-08-28T19:12:04Z</time>
  <course>340.34</course>
  <speed>0.0316227766016838</speed>
  <fix>3d</fix>
</trkpt>
<trkpt lat="40.0728162" lon="-105.2308554">
  <ele>1585.93</ele>
  <time>2026-08-28T19:12:04Z</time>
  <course>248.48</course>
  <speed>0.0</speed>
  <fix>3d</fix>
</trkpt>
<trkpt lat="40.0728162" lon="-105.2308556">
  <ele>1585.98</ele>
  <time>2026-08-28T19:12:04Z</time>
  <course>340.37</course>
  <speed>0.022360679774997897</speed>
  <fix>3d</fix>
</trkpt>
<trkpt lat="40.0728162" lon="-105.2308554">
  <ele>1585.94</ele>
  <time>2026-08-28T19:12:04Z</time>
  <course>276.69</course>
  <speed>0.0</speed>
  <fix>3d</fix>
</trkpt>
<trkpt lat="40.0728162" lon="-105.2308556">
  <ele>1585.98</ele>
  <time>2026-08-28T19:12:04Z</time>
  <course>340.4</course>
  <speed>0.022360679774997897</speed>
  <fix>3d</fix>
</trkpt>
<trkpt lat="40.0728162" lon="-105.2308554">
  <ele>1585.95</ele>
  <time>2026-08-28T19:12:04Z</time>
  <course>44.26</course>
  <speed>0.0</speed>
  <fix>3d</fix>
</trkpt>
<trkpt lat="40.0728162" lon="-105.2308556">
  <ele>1585.98</ele>
  <time>2026-08-28T19:12:04Z</time>
  <course>340.44</course>
  <speed>0.022360679774997897</speed>
  <fix>3d</fix>
</trkpt>
<trkpt lat="40.0728162" lon="-105.2308554">
  <ele>1585.95</ele>
  <time>2026-08-28T19:12:04Z</time>
  <course>76.31</course>
  <speed>0.0</speed>
  <fix>3d</fix>
</trkpt>
<trkpt lat="40.0728162" lon="-105.2308556">
  <ele>1585.98</ele>
  <time>2026-08-28T19:12:04Z</time>
  <course>340.46</course>
  <speed>0.022360679774997897</speed>
  <fix>3d</fix>
</trkpt>
<trkpt lat="40.0728162" lon="-105.2308554">
  <ele>1585.95</ele>
  <time>2026-08-28T19:12:04Z</time>
  <course>332.3</course>
  <speed>0.0</speed>
  <fix>3d</fix>
</trkpt>
<trkpt lat="40.0728162" lon="-105.2308556">
  <ele>1585.98</ele>
  <time>2026-08-28T19:12:04Z</time>
  <course>340.49</course>
  <speed>0.022360679774997897</speed>
  <fix>3d</fix>
</trkpt>
<trkpt lat="40.0728162" lon="-105.2308554">
  <ele>1585.95</ele>
  <time>2026-08-28T19:12:04Z</time>
  <course>4.14</course>
  <speed>0.0</speed>
  <fix>3d</fix>
</trkpt>
<trkpt lat="40.0728162" lon="-105.2308556">
  <ele>1585.99</ele>
  <time>2026-08-28T19:12:04Z</time>
  <course>340.51</course>
  <speed>0.022360679774997897</speed>
  <fix>3d</fix>
</trkpt>
<trkpt lat="40.0728162" lon="-105.2308554">
  <ele>1585.95</ele>
  <time>2026-08-28T19:12:04Z</time>
  <course>10.08</course>
  <speed>0.0</speed>
  <fix>3d</fix>
</trkpt>
<trkpt lat="40.0728162" lon="-105.2308556">
  <ele>1585.99</ele>
  <time>2026-08-28T19:12:04Z</time>
  <course>340.54</course>
  <speed>0.022360679774997897</speed>
  <fix>3d</fix>
</trkpt>
<trkpt lat="40.0728162" lon="-105.2308554">
  <ele>1585.95</ele>
  <time>2026-08-28T19:12:04Z</time>
  <course>28.73</course>
  <speed>0.0</speed>
  <fix>3d</fix>
</trkpt>
<trkpt lat="40.0728162" lon="-105.2308556">
  <ele>1585.99</ele>
  <time>2026-08-28T19:12:04Z</time>
  <course>340.56</course>
  <speed>0.022360679774997897</speed>
  <fix>3d</fix>
</trkpt>
<trkpt lat="40.0728162" lon="-105.2308554">
  <ele>1585.95</ele>
  <time>2026-08-28T19:12:04Z</time>
  <course>26.43</course>
  <speed>0.0</speed>
  <fix>3d</fix>
</trkpt>
<trkpt lat="40.0728162" lon="-105.2308556">
  <ele>1585.99</ele>
  <time>2026-08-28T19:12:04Z</time>
  <course>340.59</course>
  <speed>0.022360679774997897</speed>
  <fix>3d</fix>
</trkpt>
<trkpt lat="40.0728162" lon="-105.2308554">
  <ele>1585.95</ele>
  <time>2026-08-28T19:12:04Z</time>
  <course>16.69</course>
  <speed>0.0</speed>
  <fix>3d</fix>
</trkpt>
<trkpt lat="40.0728162" lon="-105.2308556">
  <ele>1585.99</ele>
  <time>2026-08-28T19:12:04Z</time>
  <course>340.59</course>
  <speed>0.01414213562373095</speed>
  <fix>3d</fix>
</trkpt>
<trkpt lat="40.0728162" lon="-105.2308554">
  <ele>1585.95</ele>
  <time>2026-08-28T19:12:04Z</time>
  <course>71.87</course>
  <speed>0.0</speed>
  <fix>3d</fix>
</trkpt>
<trkpt lat="40.0728162" lon="-105.2308556">
  <ele>1585.99</ele>
  <time>2026-08-28T19:12:04Z</time>
  <course>340.57</course>
  <speed>0.022360679774997897</speed>
  <fix>3d</fix>
</trkpt>
<trkpt lat="40.0728162" lon="-105.2308554">
  <ele>1585.95</ele>
  <time>2026-08-28T19:12:04Z</time>
  <course>77.58</course>
  <speed>0.0</speed>
  <fix>3d</fix>
</trkpt>
<trkpt lat="40.0728162" lon="-105.2308556">
  <ele>1586.0</ele>
  <time>2026-08-28T19:12:04Z</time>
  <course>340.55</course>
  <speed>0.02</speed>
  <fix>3d</fix>
</trkpt>
<trkpt lat="40.0728162" lon="-105.2308554">
  <ele>1585.95</ele>
  <time>2026-08-28T19:12:04Z</time>
  <course>105.35</course>
  <speed>0.0</speed>
  <fix>3d</fix>
</trkpt>
<trkpt lat="40.0728162" lon="-105.2308556">
  <ele>1586.0</ele>
  <time>2026-08-28T19:12:04Z</time>
  <course>340.55</course>
  <speed>0.022360679774997897</speed>
  <fix>3d</fix>
</trkpt>
<trkpt lat="40.0728162" lon="-105.2308554">
  <ele>1585.95</ele>
  <time>2026-08-28T19:12:04Z</time>
  <course>224.41</course>
  <speed>0.0</speed>
  <fix>3d</fix>
</trkpt>
<trkpt lat="40.0728162" lon="-105.2308556">
  <ele>1586.0</ele>
  <time>2026-08-28T19:12:04Z</time>
  <course>340.54</course>
  <speed>0.022360679774997897</speed>
  <fix>3d</fix>
</trkpt>
<trkpt lat="40.0728162" lon="-105.2308554">
  <ele>1585.95</ele>
  <time>2026-08-28T19:12:04Z</time>
  <course>214.03</course>
  <speed>0.0</speed>
  <fix>3d</fix>
</trkpt>
<trkpt lat="40.0728162" lon="-105.2308556">
  <ele>1586.0</ele>
  <time>2026-08-28T19:12:04Z</time>
  <course>340.54</course>
  <speed>0.022360679774997897</speed>
  <fix>3d</fix>
</trkpt>
<trkpt lat="40.0728162" lon="-105.2308554">
  <ele>1585.95</ele>
  <time>2026-08-28T19:12:04Z</time>
  <course>204.48</course>
  <speed>0.0</speed>
  <fix>3d</fix>
</trkpt>
<trkpt lat="40.0728162" lon="-105.2308556">
  <ele>1586.0</ele>
  <time>2026-08-28T19:12:04Z</time>
  <course>340.54</course>
  <speed>0.022360679774997897</speed>
  <fix>3d</fix>
</trkpt>
<trkpt lat="40.0728162" lon="-105.2308554">
  <ele>1585.95</ele>
  <time>2026-08-28T19:12:04Z</time>
  <course>208.1</course>
  <speed>0.0</speed>
  <fix>3d</fix>
</trkpt>
<trkpt lat="40.0728162" lon="-105.2308556">
  <ele>1586.0</ele>
  <time>2026-08-28T19:12:04Z</time>
  <course>340.54</course>
  <speed>0.022360679774997897</speed>
  <fix>3d</fix>
</trkpt>
<trkpt lat="40.0728162" lon="-105.2308554">
  <ele>1585.95</ele>
  <time>2026-08-28T19:12:04Z</time>
  <course>206.02</course>
  <speed>0.0</speed>
  <fix>3d</fix>
</trkpt>
<trkpt lat="40.0728162" lon="-105.2308556">
  <ele>1586.0</ele>
  <time>2026-08-28T19:12:04Z</time>
  <course>340.54</course>
  <speed>0.022360679774997897</speed>
  <fix>3d</fix>
</trkpt>
<trkpt lat="40.0728162" lon="-105.2308554">
  <ele>1585.95</ele>
  <time>2026-08-28T19:12:04Z</time>
  <course>214.7</course>
  <speed>0.0</speed>
  <fix>3d</fix>
</trkpt>
<trkpt lat="40.0728162" lon="-105.2308556">
  <ele>1586.0</ele>
  <time>2026-08-28T19:12:04Z</time>
  <course>340.54</course>
  <speed>0.022360679774997897</speed>
  <fix>3d</fix>
</trkpt>
<trkpt lat="40.0728162" lon="-105.2308554">
  <ele>1585.95</ele>
  <time>2026-08-28T19:12:04Z</time>
  <course>243.04</course>
  <speed>0.0</speed>
  <fix>3d</fix>
</trkpt>
<trkpt lat="40.0728162" lon="-105.2308556">
  <ele>1586.0</ele>
  <time>2026-08-28T19:12:04Z</time>
  <course>340.55</course>
  <speed>0.022360679774997897</speed>
  <fix>3d</fix>
</trkpt>
<trkpt lat="40.0728162" lon="-105.2308554">
  <ele>1585.95</ele>
  <time>2026-08-28T19:12:04Z</time>
  <course>260.99</course>
  <speed>0.0</speed>
  <fix>3d</fix>
</trkpt>
<trkpt lat="40.0728162" lon="-105.2308556">
  <ele>1586.0</ele>
  <time>2026-08-28T19:12:04Z</time>
  <course>340.55</course>
  <speed>0.022360679774997897</speed>
  <fix>3d</fix>
</trkpt>
<trkpt lat="40.0728162" lon="-105.2308554">
  <ele>1585.95</ele>
  <time>2026-08-28T19:12:04Z</time>
  <course>250.47</course>
  <speed>0.0</speed>
  <fix>3d</fix>
</trkpt>
<trkpt lat="40.0728162" lon="-105.2308556">
  <ele>1586.0</ele>
  <time>2026-08-28T19:12:04Z</time>
  <course>340.55</course>
  <speed>0.022360679774997897</speed>
  <fix>3d</fix>
</trkpt>
<trkpt lat="40.0728162" lon="-105.2308554">
  <ele>1585.95</ele>
  <time>2026-08-28T19:12:04Z</time>
  <course>247.71</course>
  <speed>0.0</speed>
  <fix>3d</fix>
</trkpt>
<trkpt lat="40.0728162" lon="-105.2308556">
  <ele>1586.0</ele>
  <time>2026-08-28T19:12:04Z</time>
  <course>340.55</course>
  <speed>0.022360679774997897</speed>
  <fix>3d</fix>
</trkpt>
<trkpt lat="40.0728162" lon="-105.2308554">
  <ele>1585.95</ele>
  <time>2026-08-28T19:12:04Z</time>
  <course>249.4</course>
  <speed>0.0</speed>
  <fix>3d</fix>
</trkpt>
<trkpt lat="40.0728162" lon="-105.2308556">
  <ele>1586.0</ele>
  <time>2026-08-28T19:12:04Z</time>
  <course>340.55</course>
  <speed>0.022360679774997897</speed>
  <fix>3d</fix>
</trkpt>
<trkpt lat="40.0728162" lon="-105.2308554">
  <ele>1585.95</ele>
  <time>2026-08-28T19:12:04Z</time>
  <course>249.78</course>
  <speed>0.0</speed>
  <fix>3d</fix>
</trkpt>
<trkpt lat="40.0728162" lon="-105.2308556">
  <ele>1586.0</ele>
  <time>2026-08-28T19:12:04Z</time>
  <course>340.55</course>
  <speed>0.022360679774997897</speed>
  <fix>3d</fix>
</trkpt>
<trkpt lat="40.0728162" lon="-105.2308554">
  <ele>1585.95</ele>
  <time>2026-08-28T19:12:04Z</time>
  <course>249.5</course>
  <speed>0.0</speed>
  <fix>3d</fix>
</trkpt>
<trkpt lat="40.0728162" lon="-105.2308556">
  <ele>1586.01</ele>
  <time>2026-08-28T19:12:04Z</time>
  <course>340.55</course>
  <speed>0.022360679774997897</speed>
  <fix>3d</fix>
</trkpt>
<trkpt lat="40.0728162" lon="-105.2308554">
  <ele>1585.95</ele>
  <time>2026-08-28T19:12:04Z</time>
  <course>249.61</course>
  <speed>0.0</speed>
  <fix>3d</fix>
</trkpt>
<trkpt lat="40.0728162" lon="-105.2308556">
  <ele>1586.01</ele>
  <time>2026-08-28T19:12:04Z</time>
  <course>340.55</course>
  <speed>0.022360679774997897</speed>
  <fix>3d</fix>
</trkpt>
<trkpt lat="40.0728162" lon="-105.2308554">
  <ele>1585.95</ele>
  <time>2026-08-28T19:12:04Z</time>
  <course>249.79</course>
  <speed>0.0</speed>
  <fix>3d</fix>
</trkpt>
<trkpt lat="40.0728162" lon="-105.2308556">
  <ele>1586.01</ele>
  <time>2026-08-28T19:12:04Z</time>
  <course>340.55</course>
  <speed>0.022360679774997897</speed>
  <fix>3d</fix>
</trkpt>
<trkpt lat="40.0728162" lon="-105.2308554">
  <ele>1585.95</ele>
  <time>2026-08-28T19:12:04Z</time>
  <course>249.91</course>
  <speed>0.0</speed>
  <fix>3d</fix>
</trkpt>
<trkpt lat="40.0728162" lon="-105.2308556">
  <ele>1586.02</ele>
  <time>2026-08-28T19:12:04Z</time>
  <course>340.55</course>
  <speed>0.022360679774997897</speed>
  <fix>3d</fix>
</trkpt>
<trkpt lat="40.0728162" lon="-105.2308554">
  <ele>1585.95</ele>
  <time>2026-08-28T19:12:04Z</time>
  <course>250.06</course>
  <speed>0.0</speed>
  <fix>3d</fix>
</trkpt>
<trkpt lat="40.0728162" lon="-105.2308556">
  <ele>1586.02</ele>
  <time>2026-08-28T19:12:04Z</time>
  <course>340.55</course>
  <speed>0.022360679774997897</speed>
  <fix>3d</fix>
</trkpt>
<trkpt lat="40.0728162" lon="-105.2308554">
  <ele>1585.95</ele>
  <time>2026-08-28T19:12:04Z</time>
  <course>250.26</course>
  <speed>0.0</speed>
  <fix>3d</fix>
</trkpt>
<trkpt lat="40.0728162" lon="-105.2308556">
  <ele>1586.02</ele>
  <time>2026-08-28T19:12:04Z</time>
  <course>340.55</course>
  <speed>0.022360679774997897</speed>
  <fix>3d</fix>
</trkpt>
<trkpt lat="40.0728162" lon="-105.2308554">
  <ele>1585.95</ele>
  <time>2026-08-28T19:12:04Z</time>
  <course>250.48</course>
  <speed>0.0</speed>
  <fix>3d</fix>
</trkpt>
<trkpt lat="40.0728162" lon="-105.2308556">
  <ele>1586.02</ele>
  <time>2026-08-28T19:12:04Z</time>
  <course>340.55</course>
  <speed>0.022360679774997897</speed>
  <fix>3d</fix>
</trkpt>
<trkpt lat="40.0728162" lon="-105.2308554">
  <ele>1585.95</ele>
  <time>2026-08-28T19:12:04Z</time>
  <course>250.75</course>
  <speed>0.0</speed>
  <fix>3d</fix>
</trkpt>
<trkpt lat="40.0728162" lon="-105.2308556">
  <ele>1586.02</ele>
  <time>2026-08-28T19:12:04Z</time>
  <course>340.55</course>
  <speed>0.022360679774997897</speed>
  <fix>3d</fix>
</trkpt>
<trkpt lat="40.0728162" lon="-105.2308554">
  <ele>1585.95</ele>
  <time>2026-08-28T19:12:04Z</time>
  <course>251.07</course>
  <speed>0.0</speed>
  <fix>3d</fix>
</trkpt>
<trkpt lat="40.0728162" lon="-105.2308556">
  <ele>1586.02</ele>
  <time>2026-08-28T19:12:04Z</time>
  <course>340.55</course>
  <speed>0.022360679774997897</speed>
  <fix>3d</fix>
</trkpt>
<trkpt lat="40.0728162" lon="-105.2308554">
  <ele>1585.95</ele>
  <time>2026-08-28T19:12:04Z</time>
  <course>251.46</course>
  <speed>0.0</speed>
  <fix>3d</fix>
</trkpt>
<trkpt lat="40.0728162" lon="-105.2308556">
  <ele>1586.02</ele>
  <time>2026-08-28T19:12:04Z</time>
  <course>340.55</course>
  <speed>0.022360679774997897</speed>
  <fix>3d</fix>
</trkpt>
<trkpt lat="40.0728162" lon="-105.2308554">
  <ele>1585.95</ele>
  <time>2026-08-28T19:12:04Z</time>
  <course>251.93</course>
  <speed>0.0</speed>
  <fix>3d</fix>
</trkpt>
<trkpt lat="40.0728162" lon="-105.2308556">
  <ele>1586.02</ele>
  <time>2026-08-28T19:12:04Z</time>
  <course>340.55</course>
  <speed>0.022360679774997897</speed>
  <fix>3d</fix>
</trkpt>
<trkpt lat="40.0728162" lon="-105.2308554">
  <ele>1585.95</ele>
  <time>2026-08-28T19:12:04Z</time>
  <course>252.53</course>
  <speed>0.0</speed>
  <fix>3d</fix>
</trkpt>
<trkpt lat="40.0728162" lon="-105.2308556">
  <ele>1586.02</ele>
  <time>2026-08-28T19:12:04Z</time>
  <course>340.55</course>
  <speed>0.022360679774997897</speed>
  <fix>3d</fix>
</trkpt>
<trkpt lat="40.0728162" lon="-105.2308554">
  <ele>1585.95</ele>
  <time>2026-08-28T19:12:04Z</time>
  <course>253.3</course>
  <speed>0.0</speed>
  <fix>3d</fix>
</trkpt>
<trkpt lat="40.0728162" lon="-105.2308556">
  <ele>1586.02</ele>
  <time>2026-08-28T19:12:04Z</time>
  <course>340.55</course>
  <speed>0.022360679774997897</speed>
  <fix>3d</fix>
</trkpt>
<trkpt lat="40.0728162" lon="-105.2308554">
  <ele>1585.95</ele>
  <time>2026-08-28T19:12:04Z</time>
  <course>254.32</course>
  <speed>0.0</speed>
  <fix>3d</fix>
</trkpt>
<trkpt lat="40.0728162" lon="-105.2308556">
  <ele>1586.02</ele>
  <time>2026-08-28T19:12:04Z</time>
  <course>340.55</course>
  <speed>0.022360679774997897</speed>
  <fix>3d</fix>
</trkpt>
<trkpt lat="40.0728162" lon="-105.2308554">
  <ele>1585.95</ele>
  <time>2026-08-28T19:12:04Z</time>
  <course>255.72</course>
  <speed>0.0</speed>
  <fix>3d</fix>
</trkpt>
<trkpt lat="40.0728162" lon="-105.2308556">
  <ele>1586.02</ele>
  <time>2026-08-28T19:12:04Z</time>
  <course>340.55</course>
  <speed>0.022360679774997897</speed>
  <fix>3d</fix>
</trkpt>
<trkpt lat="40.0728162" lon="-105.2308554">
  <ele>1585.95</ele>
  <time>2026-08-28T19:12:04Z</time>
  <course>257.78</course>
  <speed>0.0</speed>
  <fix>3d</fix>
</trkpt>
<trkpt lat="40.0728162" lon="-105.2308556">
  <ele>1586.03</ele>
  <time>2026-08-28T19:12:04Z</time>
  <course>340.55</course>
  <speed>0.022360679774997897</speed>
  <fix>3d</fix>
</trkpt>
<trkpt lat="40.0728162" lon="-105.2308554">
  <ele>1585.95</ele>
  <time>2026-08-28T19:12:04Z</time>
  <course>261.04</course>
  <speed>0.0</speed>
  <fix>3d</fix>
</trkpt>
<trkpt lat="40.0728162" lon="-105.2308556">
  <ele>1586.02</ele>
  <time>2026-08-28T19:12:04Z</time>
  <course>340.54</course>
  <speed>0.022360679774997897</speed>
  <fix>3d</fix>
</trkpt>
<trkpt lat="40.0728162" lon="-105.2308554">
  <ele>1585.95</ele>
  <time>2026-08-28T19:12:04Z</time>
  <course>266.92</course>
  <speed>0.0</speed>
  <fix>3d</fix>
</trkpt>
<trkpt lat="40.0728162" lon="-105.2308556">
  <ele>1586.02</ele>
  <time>2026-08-28T19:12:04Z</time>
  <course>340.54</course>
  <speed>0.022360679774997897</speed>
  <fix>3d</fix>
</trkpt>
<trkpt lat="40.0728162" lon="-105.2308554">
  <ele>1585.95</ele>
  <time>2026-08-28T19:12:04Z</time>
  <course>280.03</course>
  <speed>0.0</speed>
  <fix>3d</fix>
</trkpt>
<trkpt lat="40.0728162" lon="-105.2308556">
  <ele>1586.02</ele>
  <time>2026-08-28T19:12:04Z</time>
  <course>340.54</course>
  <speed>0.022360679774997897</speed>
  <fix>3d</fix>
</trkpt>
<trkpt lat="40.0728162" lon="-105.2308554">
  <ele>1585.95</ele>
  <time>2026-08-28T19:12:04Z</time>
  <course>318.4</course>
  <speed>0.0</speed>
  <fix>3d</fix>
</trkpt>
<trkpt lat="40.0728162" lon="-105.2308556">
  <ele>1586.02</ele>
  <time>2026-08-28T19:12:04Z</time>
  <course>340.54</course>
  <speed>0.022360679774997897</speed>
  <fix>3d</fix>
</trkpt>
<trkpt lat="40.0728162" lon="-105.2308554">
  <ele>1585.95</ele>
  <time>2026-08-28T19:12:04Z</time>
  <course>17.14</course>
  <speed>0.0</speed>
  <fix>3d</fix>
</trkpt>
<trkpt lat="40.0728162" lon="-105.2308556">
  <ele>1586.02</ele>
  <time>2026-08-28T19:12:04Z</time>
  <course>340.53</course>
  <speed>0.022360679774997897</speed>
  <fix>3d</fix>
</trkpt>
<trkpt lat="40.0728162" lon="-105.2308554">
  <ele>1585.95</ele>
  <time>2026-08-28T19:12:04Z</time>
  <course>40.4</course>
  <speed>0.0</speed>
  <fix>3d</fix>
</trkpt>
<trkpt lat="40.0728162" lon="-105.2308556">
  <ele>1586.02</ele>
  <time>2026-08-28T19:12:04Z</time>
  <course>340.53</course>
  <speed>0.022360679774997897</speed>
  <fix>3d</fix>
</trkpt>
<trkpt lat="40.0728162" lon="-105.2308554">
  <ele>1585.95</ele>
  <time>2026-08-28T19:12:04Z</time>
  <course>49.23</course>
  <speed>0.0</speed>
  <fix>3d</fix>
</trkpt>
<trkpt lat="40.0728162" lon="-105.2308556">
  <ele>1586.02</ele>
  <time>2026-08-28T19:12:04Z</time>
  <course>340.53</course>
  <speed>0.022360679774997897</speed>
  <fix>3d</fix>
</trkpt>
<trkpt lat="40.0728162" lon="-105.2308554">
  <ele>1585.95</ele>
  <time>2026-08-28T19:12:04Z</time>
  <course>53.64</course>
  <speed>0.0</speed>
  <fix>3d</fix>
</trkpt>
<trkpt lat="40.0728162" lon="-105.2308556">
  <ele>1586.02</ele>
  <time>2026-08-28T19:12:04Z</time>
  <course>340.53</course>
  <speed>0.022360679774997897</speed>
  <fix>3d</fix>
</trkpt>
<trkpt lat="40.0728162" lon="-105.2308554">
  <ele>1585.95</ele>
  <time>2026-08-28T19:12:04Z</time>
  <course>56.26</course>
  <speed>0.0</speed>
  <fix>3d</fix>
</trkpt>
<trkpt lat="40.0728162" lon="-105.2308556">
  <ele>1586.02</ele>
  <time>2026-08-28T19:12:04Z</time>
  <course>340.52</course>
  <speed>0.022360679774997897</speed>
  <fix>3d</fix>
</trkpt>
<trkpt lat="40.0728162" lon="-105.2308554">
  <ele>1585.95</ele>
  <time>2026-08-28T19:12:04Z</time>
  <course>57.98</course>
  <speed>0.0</speed>
  <fix>3d</fix>
</trkpt>
<trkpt lat="40.0728162" lon="-105.2308556">
  <ele>1586.02</ele>
  <time>2026-08-28T19:12:04Z</time>
  <course>340.52</course>
  <speed>0.022360679774997897</speed>
  <fix>3d</fix>
</trkpt>
<trkpt lat="40.0728162" lon="-105.2308554">
  <ele>1585.95</ele>
  <time>2026-08-28T19:12:04Z</time>
  <course>59.19</course>
  <speed>0.0</speed>
  <fix>3d</fix>
</trkpt>
<trkpt lat="40.0728162" lon="-105.2308556">
  <ele>1586.03</ele>
  <time>2026-08-28T19:12:04Z</time>
  <course>340.52</course>
  <speed>0.022360679774997897</speed>
  <fix>3d</fix>
</trkpt>
<trkpt lat="40.0728162" lon="-105.2308554">
  <ele>1585.95</ele>
  <time>2026-08-28T19:12:04Z</time>
  <course>60.09</course>
  <speed>0.0</speed>
  <fix>3d</fix>
</trkpt>
<trkpt lat="40.0728162" lon="-105.2308556">
  <ele>1586.03</ele>
  <time>2026-08-28T19:12:04Z</time>
  <course>340.52</course>
  <speed>0.022360679774997897</speed>
  <fix>3d</fix>
</trkpt>
<trkpt lat="40.0728162" lon="-105.2308554">
  <ele>1585.95</ele>
  <time>2026-08-28T19:12:04Z</time>
  <course>60.78</course>
  <speed>0.0</speed>
  <fix>3d</fix>
</trkpt>
<trkpt lat="40.0728162" lon="-105.2308556">
  <ele>1586.03</ele>
  <time>2026-08-28T19:12:04Z</time>
  <course>340.51</course>
  <speed>0.022360679774997897</speed>
  <fix>3d</fix>
</trkpt>
<trkpt lat="40.0728162" lon="-105.2308554">
  <ele>1585.95</ele>
  <time>2026-08-28T19:12:04Z</time>
  <course>61.33</course>
  <speed>0.0</speed>
  <fix>3d</fix>
</trkpt>
<trkpt lat="40.0728162" lon="-105.2308556">
  <ele>1586.03</ele>
  <time>2026-08-28T19:12:04Z</time>
  <course>340.51</course>
  <speed>0.022360679774997897</speed>
  <fix>3d</fix>
</trkpt>
<trkpt lat="40.0728162" lon="-105.2308554">
  <ele>1585.95</ele>
  <time>2026-08-28T19:12:04Z</time>
  <course>61.77</course>
  <speed>0.0</speed>
  <fix>3d</fix>
</trkpt>
<trkpt lat="40.0728162" lon="-105.2308556">
  <ele>1586.03</ele>
  <time>2026-08-28T19:12:04Z</time>
  <course>340.51</course>
  <speed>0.022360679774997897</speed>
  <fix>3d</fix>
</trkpt>
<trkpt lat="40.0728162" lon="-105.2308554">
  <ele>1585.95</ele>
  <time>2026-08-28T19:12:04Z</time>
  <course>60.83</course>
  <speed>0.0</speed>
  <fix>3d</fix>
</trkpt>
<trkpt lat="40.0728162" lon="-105.2308556">
  <ele>1586.04</ele>
  <time>2026-08-28T19:12:04Z</time>
  <course>340.5</course>
  <speed>0.022360679774997897</speed>
  <fix>3d</fix>
</trkpt>
<trkpt lat="40.0728162" lon="-105.2308554">
  <ele>1585.95</ele>
  <time>2026-08-28T19:12:04Z</time>
  <course>55.72</course>
  <speed>0.0</speed>
  <fix>3d</fix>
</trkpt>
<trkpt lat="40.0728162" lon="-105.2308556">
  <ele>1586.03</ele>
  <time>2026-08-28T19:12:04Z</time>
  <course>340.5</course>
  <speed>0.022360679774997897</speed>
  <fix>3d</fix>
</trkpt>
<trkpt lat="40.0728162" lon="-105.2308554">
  <ele>1585.95</ele>
  <time>2026-08-28T19:12:04Z</time>
  <course>251.27</course>
  <speed>0.0</speed>
  <fix>3d</fix>
</trkpt>
<trkpt lat="40.0728162" lon="-105.2308556">
  <ele>1586.03</ele>
  <time>2026-08-28T19:12:04Z</time>
  <course>340.63</course>
  <speed>0.022360679774997897</speed>
  <fix>3d</fix>
</trkpt>
<trkpt lat="40.0728162" lon="-105.2308554">
  <ele>1585.95</ele>
  <time>2026-08-28T19:12:04Z</time>
  <course>249.59</course>
  <speed>0.0</speed>
  <fix>3d</fix>
</trkpt>
<trkpt lat="40.0728162" lon="-105.2308556">
  <ele>1586.02</ele>
  <time>2026-08-28T19:12:04Z</time>
  <course>341.47</course>
  <speed>0.022360679774997897</speed>
  <fix>3d</fix>
</trkpt>
<trkpt lat="40.0728162" lon="-105.2308554">
  <ele>1585.95</ele>
  <time>2026-08-28T19:12:04Z</time>
  <course>249.45</course>
  <speed>0.0</speed>
  <fix>3d</fix>
</trkpt>
<trkpt lat="40.0728162" lon="-105.2308556">
  <ele>1586.02</ele>
  <time>2026-08-28T19:12:04Z</time>
  <course>342.28</course>
  <speed>0.022360679774997897</speed>
  <fix>3d</fix>
</trkpt>
<trkpt lat="40.0728162" lon="-105.2308554">
  <ele>1585.95</ele>
  <time>2026-08-28T19:12:04Z</time>
  <course>251.38</course>
  <speed>0.0</speed>
  <fix>3d</fix>
</trkpt>
<trkpt lat="40.0728162" lon="-105.2308556">
  <ele>1586.02</ele>
  <time>2026-08-28T19:12:04Z</time>
  <course>342.86</course>
  <speed>0.022360679774997897</speed>
  <fix>3d</fix>
</trkpt>
<trkpt lat="40.0728162" lon="-105.2308554">
  <ele>1585.95</ele>
  <time>2026-08-28T19:12:04Z</time>
  <course>67.23</course>
  <speed>0.0</speed>
  <fix>3d</fix>
</trkpt>
<trkpt lat="40.0728162" lon="-105.2308556">
  <ele>1586.02</ele>
  <time>2026-08-28T19:12:04Z</time>
  <course>343.33</course>
  <speed>0.022360679774997897</speed>
  <fix>3d</fix>
</trkpt>
<trkpt lat="40.0728162" lon="-105.2308554">
  <ele>1585.95</ele>
  <time>2026-08-28T19:12:04Z</time>
  <course>65.54</course>
  <speed>0.0</speed>
  <fix>3d</fix>
</trkpt>
<trkpt lat="40.0728162" lon="-105.2308556">
  <ele>1586.04</ele>
  <time>2026-08-28T19:12:04Z</time>
  <course>343.71</course>
  <speed>0.022360679774997897</speed>
  <fix>3d</fix>
</trkpt>
<trkpt lat="40.0728162" lon="-105.2308554">
  <ele>1585.95</ele>
  <time>2026-08-28T19:12:04Z</time>
  <course>63.9</course>
  <speed>0.0</speed>
  <fix>3d</fix>
</trkpt>
<trkpt lat="40.0728162" lon="-105.2308556">
  <ele>1586.05</ele>
  <time>2026-08-28T19:12:04Z</time>
  <course>344.04</course>
  <speed>0.022360679774997897</speed>
  <fix>3d</fix>
</trkpt>
<trkpt lat="40.0728162" lon="-105.2308554">
  <ele>1585.95</ele>
  <time>2026-08-28T19:12:04Z</time>
  <course>64.93</course>
  <speed>0.0</speed>
  <fix>3d</fix>
</trkpt>
<trkpt lat="40.0728162" lon="-105.2308556">
  <ele>1586.05</ele>
  <time>2026-08-28T19:12:04Z</time>
  <course>344.31</course>
  <speed>0.022360679774997897</speed>
  <fix>3d</fix>
</trkpt>
<trkpt lat="40.0728162" lon="-105.2308554">
  <ele>1585.95</ele>
  <time>2026-08-28T19:12:04Z</time>
  <course>65.04</course>
  <speed>0.0</speed>
  <fix>3d</fix>
</trkpt>
<trkpt lat="40.0728162" lon="-105.2308556">
  <ele>1586.05</ele>
  <time>2026-08-28T19:12:04Z</time>
  <course>344.54</course>
  <speed>0.01414213562373095</speed>
  <fix>3d</fix>
</trkpt>
<trkpt lat="40.0728162" lon="-105.2308554">
  <ele>1585.95</ele>
  <time>2026-08-28T19:12:04Z</time>
  <course>216.42</course>
  <speed>0.0</speed>
  <fix>3d</fix>
</trkpt>
<trkpt lat="40.0728162" lon="-105.2308556">
  <ele>1586.06</ele>
  <time>2026-08-28T19:12:04Z</time>
  <course>344.74</course>
  <speed>0.01414213562373095</speed>
  <fix>3d</fix>
</trkpt>
<trkpt lat="40.0728162" lon="-105.2308554">
  <ele>1585.95</ele>
  <time>2026-08-28T19:12:04Z</time>
  <course>178.57</course>
  <speed>0.0</speed>
  <fix>3d</fix>
</trkpt>
<trkpt lat="40.0728162" lon="-105.2308556">
  <ele>1586.05</ele>
  <time>2026-08-28T19:12:04Z</time>
  <course>344.91</course>
  <speed>0.01414213562373095</speed>
  <fix>3d</fix>
</trkpt>
<trkpt lat="40.0728162" lon="-105.2308554">
  <ele>1585.95</ele>
  <time>2026-08-28T19:12:04Z</time>
  <course>159.23</course>
  <speed>0.0</speed>
  <fix>3d</fix>
</trkpt>
<trkpt lat="40.0728162" lon="-105.2308556">
  <ele>1586.05</ele>
  <time>2026-08-28T19:12:04Z</time>
  <course>345.44</course>
  <speed>0.01</speed>
  <fix>3d</fix>
</trkpt>
<trkpt lat="40.0728162" lon="-105.2308554">
  <ele>1585.95</ele>
  <time>2026-08-28T19:12:04Z</time>
  <course>123.86</course>
  <speed>0.0</speed>
  <fix>3d</fix>
</trkpt>
<trkpt lat="40.0728162" lon="-105.2308556">
  <ele>1586.05</ele>
  <time>2026-08-28T19:12:04Z</time>
  <course>345.54</course>
  <speed>0.01</speed>
  <fix>3d</fix>
</trkpt>
<trkpt lat="40.0728162" lon="-105.2308554">
  <ele>1585.95</ele>
  <time>2026-08-28T19:12:04Z</time>
  <course>116.11</course>
  <speed>0.0</speed>
  <fix>3d</fix>
</trkpt>
<trkpt lat="40.0728162" lon="-105.2308556">
  <ele>1586.05</ele>
  <time>2026-08-28T19:12:04Z</time>
  <course>345.64</course>
  <speed>0.01</speed>
  <fix>3d</fix>
</trkpt>
<trkpt lat="40.0728162" lon="-105.2308554">
  <ele>1585.95</ele>
  <time>2026-08-28T19:12:04Z</time>
  <course>125.23</course>
  <speed>0.0</speed>
  <fix>3d</fix>
</trkpt>
<trkpt lat="40.0728162" lon="-105.2308556">
  <ele>1586.05</ele>
  <time>2026-08-28T19:12:04Z</time>
  <course>345.72</course>
  <speed>0.01</speed>
  <fix>3d</fix>
</trkpt>
<trkpt lat="40.0728162" lon="-105.2308554">
  <ele>1585.95</ele>
  <time>2026-08-28T19:12:04Z</time>
  <course>125.14</course>
  <speed>0.0</speed>
  <fix>3d</fix>
</trkpt>
<trkpt lat="40.0728162" lon="-105.2308556">
  <ele>1586.04</ele>
  <time>2026-08-28T19:12:04Z</time>
  <course>345.79</course>
  <speed>0.01</speed>
  <fix>3d</fix>
</trkpt>
<trkpt lat="40.0728162" lon="-105.2308554">
  <ele>1585.95</ele>
  <time>2026-08-28T19:12:04Z</time>
  <course>124.04</course>
  <speed>0.0</speed>
  <fix>3d</fix>
</trkpt>
<trkpt lat="40.0728162" lon="-105.2308556">
  <ele>1586.03</ele>
  <time>2026-08-28T19:12:04Z</time>
  <course>345.86</course>
  <speed>0.01</speed>
  <fix>3d</fix>
</trkpt>
<trkpt lat="40.0728162" lon="-105.2308554">
  <ele>1585.95</ele>
  <time>2026-08-28T19:12:04Z</time>
  <course>124.19</course>
  <speed>0.0</speed>
  <fix>3d</fix>
</trkpt>
<trkpt lat="40.0728162" lon="-105.2308556">
  <ele>1586.03</ele>
  <time>2026-08-28T19:12:04Z</time>
  <course>345.93</course>
  <speed>0.01</speed>
  <fix>3d</fix>
</trkpt>
<trkpt lat="40.0728162" lon="-105.2308554">
  <ele>1585.95</ele>
  <time>2026-08-28T19:12:04Z</time>
  <course>124.32</course>
  <speed>0.0</speed>
  <fix>3d</fix>
</trkpt>
<trkpt lat="39.6566745" lon="-104.1377265">
  <ele>1569.61</ele>
  <time>2026-08-28T19:12:05Z</time>
  <course>247.54</course>
  <speed>0.0</speed>
  <fix>3d</fix>
</trkpt>
<trkpt lat="40.072842" lon="-105.230575">
  <ele>1586.09</ele>
  <time>2026-08-28T19:12:05Z</time>
  <course>4.22</course>
  <speed>0.0</speed>
  <fix>3d</fix>
</trkpt>
<trkpt lat="40.072842" lon="-105.230575">
  <ele>1586.09</ele>
  <time>2026-08-28T19:12:05Z</time>
  <course>201.62</course>
  <speed>0.0</speed>
  <fix>3d</fix>
</trkpt>
<trkpt lat="40.072842" lon="-105.230575">
  <ele>1586.09</ele>
  <time>2026-08-28T19:12:05Z</time>
  <course>4.68</course>
  <speed>0.0</speed>
  <fix>3d</fix>
</trkpt>
<trkpt lat="40.072842" lon="-105.230575">
  <ele>1586.09</ele>
  <time>2026-08-28T19:12:05Z</time>
  <course>309.16</course>
  <speed>0.0</speed>
  <fix>3d</fix>
</trkpt>
<trkpt lat="40.072842" lon="-105.230575">
  <ele>1586.09</ele>
  <time>2026-08-28T19:12:05Z</time>
  <course>5.47</course>
  <speed>0.0</speed>
  <fix>3d</fix>
</trkpt>
<trkpt lat="40.072842" lon="-105.230575">
  <ele>1586.09</ele>
  <time>2026-08-28T19:12:05Z</time>
  <course>17.18</course>
  <speed>0.0</speed>
  <fix>3d</fix>
</trkpt>
<trkpt lat="40.072842" lon="-105.230575">
  <ele>1586.09</ele>
  <time>2026-08-28T19:12:05Z</time>
  <course>6.2</course>
  <speed>0.0</speed>
  <fix>3d</fix>
</trkpt>
<trkpt lat="40.072842" lon="-105.230575">
  <ele>1586.09</ele>
  <time>2026-08-28T19:12:05Z</time>
  <course>45.49</course>
  <speed>0.0</speed>
  <fix>3d</fix>
</trkpt>
<trkpt lat="40.072842" lon="-105.230575">
  <ele>1586.09</ele>
  <time>2026-08-28T19:12:05Z</time>
  <course>6.89</course>
  <speed>0.0</speed>
  <fix>3d</fix>
</trkpt>
<trkpt lat="40.072842" lon="-105.230575">
  <ele>1586.09</ele>
  <time>2026-08-28T19:12:05Z</time>
  <course>343.37</course>
  <speed>0.0</speed>
  <fix>3d</fix>
</trkpt>
<trkpt lat="40.072842" lon="-105.230575">
  <ele>1586.09</ele>
  <time>2026-08-28T19:12:05Z</time>
  <course>7.56</course>
  <speed>0.0</speed>
  <fix>3d</fix>
</trkpt>
<trkpt lat="40.072842" lon="-105.230575">
  <ele>1586.09</ele>
  <time>2026-08-28T19:12:05Z</time>
  <course>330.72</course>
  <speed>0.0</speed>
  <fix>3d</fix>
</trkpt>
<trkpt lat="40.072842" lon="-105.230575">
  <ele>1586.09</ele>
  <time>2026-08-28T19:12:05Z</time>
  <course>8.2</course>
  <speed>0.0</speed>
  <fix>3d</fix>
</trkpt>
<trkpt lat="40.072842" lon="-105.230575">
  <ele>1586.09</ele>
  <time>2026-08-28T19:12:05Z</time>
  <course>241.18</course>
  <speed>0.0</speed>
  <fix>3d</fix>
</trkpt>
<trkpt lat="40.072842" lon="-105.230575">
  <ele>1586.09</ele>
  <time>2026-08-28T19:12:05Z</time>
  <course>8.82</course>
  <speed>0.0</speed>
  <fix>3d</fix>
</trkpt>
<trkpt lat="40.072842" lon="-105.230575">
  <ele>1586.09</ele>
  <time>2026-08-28T19:12:05Z</time>
  <course>243.85</course>
  <speed>0.0</speed>
  <fix>3d</fix>
</trkpt>
<trkpt lat="40.072842" lon="-105.230575">
  <ele>1586.09</ele>
  <time>2026-08-28T19:12:05Z</time>
  <course>9.41</course>
  <speed>0.0</speed>
  <fix>3d</fix>
</trkpt>
<trkpt lat="40.072842" lon="-105.230575">
  <ele>1586.09</ele>
  <time>2026-08-28T19:12:05Z</time>
  <course>220.29</course>
  <speed>0.0</speed>
  <fix>3d</fix>
</trkpt>
<trkpt lat="40.072842" lon="-105.230575">
  <ele>1586.09</ele>
  <time>2026-08-28T19:12:05Z</time>
  <course>9.97</course>
  <speed>0.0</speed>
  <fix>3d</fix>
</trkpt>
<trkpt lat="40.072842" lon="-105.230575">
  <ele>1586.09</ele>
  <time>2026-08-28T19:12:05Z</time>
  <course>185.56</course>
  <speed>0.0</speed>
  <fix>3d</fix>
</trkpt>
<trkpt lat="40.072842" lon="-105.230575">
  <ele>1586.09</ele>
  <time>2026-08-28T19:12:05Z</time>
  <course>10.51</course>
  <speed>0.0</speed>
  <fix>3d</fix>
</trkpt>
<trkpt lat="40.072842" lon="-105.230575">
  <ele>1586.09</ele>
  <time>2026-08-28T19:12:05Z</time>
  <course>1.38</course>
  <speed>0.0</speed>
  <fix>3d</fix>
</trkpt>
<trkpt lat="40.072842" lon="-105.230575">
  <ele>1586.09</ele>
  <time>2026-08-28T19:12:05Z</time>
  <course>11.01</course>
  <speed>0.0</speed>
  <fix>3d</fix>
</trkpt>
<trkpt lat="40.072842" lon="-105.230575">
  <ele>1586.09</ele>
  <time>2026-08-28T19:12:05Z</time>
  <course>23.38</course>
  <speed>0.0</speed>
  <fix>3d</fix>
</trkpt>
<trkpt lat="40.072842" lon="-105.230575">
  <ele>1586.09</ele>
  <time>2026-08-28T19:12:05Z</time>
  <course>11.48</course>
  <speed>0.0</speed>
  <fix>3d</fix>
</trkpt>
<trkpt lat="40.072842" lon="-105.230575">
  <ele>1586.09</ele>
  <time>2026-08-28T19:12:05Z</time>
  <course>158.04</course>
  <speed>0.0</speed>
  <fix>3d</fix>
</trkpt>
<trkpt lat="40.072842" lon="-105.230575">
  <ele>1586.09</ele>
  <time>2026-08-28T19:12:05Z</time>
  <course>11.93</course>
  <speed>0.0</speed>
  <fix>3d</fix>
</trkpt>
<trkpt lat="40.072842" lon="-105.230575">
  <ele>1586.09</ele>
  <time>2026-08-28T19:12:05Z</time>
  <course>197.14</course>
  <speed>0.0</speed>
  <fix>3d</fix>
</trkpt>
<trkpt lat="40.072842" lon="-105.230575">
  <ele>1586.09</ele>
  <time>2026-08-28T19:12:05Z</time>
  <course>12.35</course>
  <speed>0.0</speed>
  <fix>3d</fix>
</trkpt>
<trkpt lat="40.072842" lon="-105.230575">
  <ele>1586.09</ele>
  <time>2026-08-28T19:12:05Z</time>
  <course>170.99</course>
  <speed>0.0</speed>
  <fix>3d</fix>
</trkpt>
<trkpt lat="40.072842" lon="-105.230575">
  <ele>1586.09</ele>
  <time>2026-08-28T19:12:05Z</time>
  <course>12.75</course>
  <speed>0.0</speed>
  <fix>3d</fix>
</trkpt>
<trkpt lat="40.072842" lon="-105.230575">
  <ele>1586.09</ele>
  <time>2026-08-28T19:12:05Z</time>
  <course>133.82</course>
  <speed>0.0</speed>
  <fix>3d</fix>
</trkpt>
<trkpt lat="40.072842" lon="-105.230575">
  <ele>1586.09</ele>
  <time>2026-08-28T19:12:05Z</time>
  <course>13.12</course>
  <speed>0.0</speed>
  <fix>3d</fix>
</trkpt>
<trkpt lat="40.072842" lon="-105.230575">
  <ele>1586.09</ele>
  <time>2026-08-28T19:12:05Z</time>
  <course>324.53</course>
  <speed>0.0</speed>
  <fix>3d</fix>
</trkpt>
<trkpt lat="40.072842" lon="-105.230575">
  <ele>1586.09</ele>
  <time>2026-08-28T19:12:05Z</time>
  <course>13.47</course>
  <speed>0.0</speed>
  <fix>3d</fix>
</trkpt>
<trkpt lat="40.072842" lon="-105.230575">
  <ele>1586.09</ele>
  <time>2026-08-28T19:12:05Z</time>
  <course>244.44</course>
  <speed>0.0</speed>
  <fix>3d</fix>
</trkpt>
<trkpt lat="40.072842" lon="-105.230575">
  <ele>1586.09</ele>
  <time>2026-08-28T19:12:05Z</time>
  <course>13.8</course>
  <speed>0.0</speed>
  <fix>3d</fix>
</trkpt>
<trkpt lat="40.072842" lon="-105.230575">
  <ele>1586.09</ele>
  <time>2026-08-28T19:12:05Z</time>
  <course>344.93</course>
  <speed>0.0</speed>
  <fix>3d</fix>
</trkpt>
<trkpt lat="40.072842" lon="-105.230575">
  <ele>1586.09</ele>
  <time>2026-08-28T19:12:05Z</time>
  <course>14.1</course>
  <speed>0.0</speed>
  <fix>3d</fix>
</trkpt>
<trkpt lat="40.072842" lon="-105.230575">
  <ele>1586.09</ele>
  <time>2026-08-28T19:12:05Z</time>
  <course>332.41</course>
  <speed>0.0</speed>
  <fix>3d</fix>
</trkpt>
<trkpt lat="40.072842" lon="-105.230575">
  <ele>1586.09</ele>
  <time>2026-08-28T19:12:05Z</time>
  <course>14.39</course>
  <speed>0.0</speed>
  <fix>3d</fix>
</trkpt>
<trkpt lat="40.072842" lon="-105.230575">
  <ele>1586.09</ele>
  <time>2026-08-28T19:12:05Z</time>
  <course>309.21</course>
  <speed>0.0</speed>
  <fix>3d</fix>
</trkpt>
<trkpt lat="40.072842" lon="-105.230575">
  <ele>1586.09</ele>
  <time>2026-08-28T19:12:05Z</time>
  <course>14.66</course>
  <speed>0.0</speed>
  <fix>3d</fix>
</trkpt>
<trkpt lat="40.072842" lon="-105.230575">
  <ele>1586.09</ele>
  <time>2026-08-28T19:12:05Z</time>
  <course>170.04</course>
  <speed>0.0</speed>
  <fix>3d</fix>
</trkpt>
<trkpt lat="40.072842" lon="-105.230575">
  <ele>1586.09</ele>
  <time>2026-08-28T19:12:05Z</time>
  <course>14.91</course>
  <speed>0.0</speed>
  <fix>3d</fix>
</trkpt>
<trkpt lat="40.072842" lon="-105.230575">
  <ele>1586.09</ele>
  <time>2026-08-28T19:12:05Z</time>
  <course>140.18</course>
  <speed>0.0</speed>
  <fix>3d</fix>
</trkpt>
<trkpt lat="40.072842" lon="-105.230575">
  <ele>1586.09</ele>
  <time>2026-08-28T19:12:05Z</time>
  <course>15.15</course>
  <speed>0.0</speed>
  <fix>3d</fix>
</trkpt>
<trkpt lat="40.072842" lon="-105.230575">
  <ele>1586.09</ele>
  <time>2026-08-28T19:12:05Z</time>
  <course>303.33</course>
  <speed>0.0</speed>
  <fix>3d</fix>
</trkpt>
<trkpt lat="40.072842" lon="-105.230575">
  <ele>1586.09</ele>
  <time>2026-08-28T19:12:05Z</time>
  <course>15.37</course>
  <speed>0.0</speed>
  <fix>3d</fix>
</trkpt>
<trkpt lat="40.072842" lon="-105.230575">
  <ele>1586.09</ele>
  <time>2026-08-28T19:12:05Z</time>
  <course>271.91</course>
  <speed>0.0</speed>
  <fix>3d</fix>
</trkpt>
<trkpt lat="40.072842" lon="-105.230575">
  <ele>1586.09</ele>
  <time>2026-08-28T19:12:05Z</time>
  <course>15.57</course>
  <speed>0.0</speed>
  <fix>3d</fix>
</trkpt>
<trkpt lat="40.072842" lon="-105.230575">
  <ele>1586.09</ele>
  <time>2026-08-28T19:12:05Z</time>
  <course>265.83</course>
  <speed>0.0</speed>
  <fix>3d</fix>
</trkpt>
<trkpt lat="40.072842" lon="-105.230575">
  <ele>1586.09</ele>
  <time>2026-08-28T19:12:05Z</time>
  <course>15.76</course>
  <speed>0.0</speed>
  <fix>3d</fix>
</trkpt>
<trkpt lat="40.072842" lon="-105.230575">
  <ele>1586.09</ele>
  <time>2026-08-28T19:12:05Z</time>
  <course>274.0</course>
  <speed>0.0</speed>
  <fix>3d</fix>
</trkpt>
<trkpt lat="40.072842" lon="-105.230575">
  <ele>1586.09</ele>
  <time>2026-08-28T19:12:05Z</time>
  <course>15.94</course>
  <speed>0.0</speed>
  <fix>3d</fix>
</trkpt>
<trkpt lat="40.072842" lon="-105.230575">
  <ele>1586.09</ele>
  <time>2026-08-28T19:12:05Z</time>
  <course>273.8</course>
  <speed>0.0</speed>
  <fix>3d</fix>
</trkpt>
<trkpt lat="40.072842" lon="-105.230575">
  <ele>1586.09</ele>
  <time>2026-08-28T19:12:05Z</time>
  <course>16.1</course>
  <speed>0.0</speed>
  <fix>3d</fix>
</trkpt>
<trkpt lat="40.072842" lon="-105.230575">
  <ele>1586.09</ele>
  <time>2026-08-28T19:12:05Z</time>
  <course>272.81</course>
  <speed>0.0</speed>
  <fix>3d</fix>
</trkpt>
<trkpt lat="40.072842" lon="-105.230575">
  <ele>1586.09</ele>
  <time>2026-08-28T19:12:05Z</time>
  <course>16.26</course>
  <speed>0.0</speed>
  <fix>3d</fix>
</trkpt>
<trkpt lat="40.072842" lon="-105.230575">
  <ele>1586.09</ele>
  <time>2026-08-28T19:12:05Z</time>
  <course>272.96</course>
  <speed>0.0</speed>
  <fix>3d</fix>
</trkpt>
<trkpt lat="40.072842" lon="-105.230575">
  <ele>1586.09</ele>
  <time>2026-08-28T19:12:05Z</time>
  <course>16.4</course>
  <speed>0.0</speed>
  <fix>3d</fix>
</trkpt>
<trkpt lat="40.072842" lon="-105.230575">
  <ele>1586.09</ele>
  <time>2026-08-28T19:12:05Z</time>
  <course>273.08</course>
  <speed>0.0</speed>
  <fix>3d</fix>
</trkpt>
<trkpt lat="40.072842" lon="-105.230575">
  <ele>1586.09</ele>
  <time>2026-08-28T19:12:05Z</time>
  <course>16.54</course>
  <speed>0.0</speed>
  <fix>3d</fix>
</trkpt>
<trkpt lat="40.072842" lon="-105.230575">
  <ele>1586.09</ele>
  <time>2026-08-28T19:12:05Z</time>
  <course>273.04</course>
  <speed>0.0</speed>
  <fix>3d</fix>
</trkpt>
<trkpt lat="40.072842" lon="-105.230575">
  <ele>1586.09</ele>
  <time>2026-08-28T19:12:05Z</time>
  <course>16.66</course>
  <speed>0.0</speed>
  <fix>3d</fix>
</trkpt>
<trkpt lat="40.072842" lon="-105.230575">
  <ele>1586.09</ele>
  <time>2026-08-28T19:12:05Z</time>
  <course>273.03</course>
  <speed>0.0</speed>
  <fix>3d</fix>
</trkpt>
<trkpt lat="40.072842" lon="-105.230575">
  <ele>1586.09</ele>
  <time>2026-08-28T19:12:05Z</time>
  <course>16.78</course>
  <speed>0.0</speed>
  <fix>3d</fix>
</trkpt>
<trkpt lat="40.072842" lon="-105.230575">
  <ele>1586.09</ele>
  <time>2026-08-28T19:12:05Z</time>
  <course>273.04</course>
  <speed>0.0</speed>
  <fix>3d</fix>
</trkpt>
<trkpt lat="40.072842" lon="-105.230575">
  <ele>1586.09</ele>
  <time>2026-08-28T19:12:05Z</time>
  <course>16.89</course>
  <speed>0.0</speed>
  <fix>3d</fix>
</trkpt>
<trkpt lat="40.072842" lon="-105.230575">
  <ele>1586.09</ele>
  <time>2026-08-28T19:12:05Z</time>
  <course>273.04</course>
  <speed>0.0</speed>
  <fix>3d</fix>
</trkpt>
<trkpt lat="40.072842" lon="-105.230575">
  <ele>1586.09</ele>
  <time>2026-08-28T19:12:05Z</time>
  <course>16.99</course>
  <speed>0.0</speed>
  <fix>3d</fix>
</trkpt>
<trkpt lat="40.072842" lon="-105.230575">
  <ele>1586.09</ele>
  <time>2026-08-28T19:12:05Z</time>
  <course>273.04</course>
  <speed>0.0</speed>
  <fix>3d</fix>
</trkpt>
<trkpt lat="40.072842" lon="-105.230575">
  <ele>1586.09</ele>
  <time>2026-08-28T19:12:05Z</time>
  <course>17.09</course>
  <speed>0.0</speed>
  <fix>3d</fix>
</trkpt>
<trkpt lat="40.072842" lon="-105.230575">
  <ele>1586.09</ele>
  <time>2026-08-28T19:12:05Z</time>
  <course>273.04</course>
  <speed>0.0</speed>
  <fix>3d</fix>
</trkpt>
<trkpt lat="40.072842" lon="-105.230575">
  <ele>1586.09</ele>
  <time>2026-08-28T19:12:05Z</time>
  <course>17.18</course>
  <speed>0.0</speed>
  <fix>3d</fix>
</trkpt>
<trkpt lat="40.072842" lon="-105.230575">
  <ele>1586.09</ele>
  <time>2026-08-28T19:12:05Z</time>
  <course>273.04</course>
  <speed>0.0</speed>
  <fix>3d</fix>
</trkpt>
<trkpt lat="40.072842" lon="-105.230575">
  <ele>1586.09</ele>
  <time>2026-08-28T19:12:05Z</time>
  <course>17.26</course>
  <speed>0.0</speed>
  <fix>3d</fix>
</trkpt>
<trkpt lat="40.072842" lon="-105.230575">
  <ele>1586.09</ele>
  <time>2026-08-28T19:12:05Z</time>
  <course>273.04</course>
  <speed>0.0</speed>
  <fix>3d</fix>
</trkpt>
<trkpt lat="40.072842" lon="-105.230575">
  <ele>1586.09</ele>
  <time>2026-08-28T19:12:05Z</time>
  <course>17.34</course>
  <speed>0.0</speed>
  <fix>3d</fix>
</trkpt>
<trkpt lat="40.072842" lon="-105.230575">
  <ele>1586.09</ele>
  <time>2026-08-28T19:12:05Z</time>
  <course>273.04</course>
  <speed>0.0</speed>
  <fix>3d</fix>
</trkpt>
<trkpt lat="40.072842" lon="-105.230575">
  <ele>1586.09</ele>
  <time>2026-08-28T19:12:05Z</time>
  <course>17.41</course>
  <speed>0.0</speed>
  <fix>3d</fix>
</trkpt>
<trkpt lat="40.072842" lon="-105.230575">
  <ele>1586.09</ele>
  <time>2026-08-28T19:12:05Z</time>
  <course>273.04</course>
  <speed>0.0</speed>
  <fix>3d</fix>
</trkpt>
<trkpt lat="40.072842" lon="-105.230575">
  <ele>1586.09</ele>
  <time>2026-08-28T19:12:05Z</time>
  <course>17.48</course>
  <speed>0.0</speed>
  <fix>3d</fix>
</trkpt>
<trkpt lat="40.072842" lon="-105.230575">
  <ele>1586.09</ele>
  <time>2026-08-28T19:12:05Z</time>
  <course>273.04</course>
  <speed>0.0</speed>
  <fix>3d</fix>
</trkpt>
<trkpt lat="40.072842" lon="-105.230575">
  <ele>1586.09</ele>
  <time>2026-08-28T19:12:05Z</time>
  <course>17.54</course>
  <speed>0.0</speed>
  <fix>3d</fix>
</trkpt>
<trkpt lat="40.072842" lon="-105.230575">
  <ele>1586.09</ele>
  <time>2026-08-28T19:12:05Z</time>
  <course>273.04</course>
  <speed>0.0</speed>
  <fix>3d</fix>
</trkpt>
<trkpt lat="40.072842" lon="-105.230575">
  <ele>1586.09</ele>
  <time>2026-08-28T19:12:05Z</time>
  <course>17.6</course>
  <speed>0.0</speed>
  <fix>3d</fix>
</trkpt>
<trkpt lat="40.072842" lon="-105.230575">
  <ele>1586.09</ele>
  <time>2026-08-28T19:12:05Z</time>
  <course>273.04</course>
  <speed>0.0</speed>
  <fix>3d</fix>
</trkpt>
<trkpt lat="40.072842" lon="-105.230575">
  <ele>1586.09</ele>
  <time>2026-08-28T19:12:05Z</time>
  <course>17.65</course>
  <speed>0.0</speed>
  <fix>3d</fix>
</trkpt>
<trkpt lat="40.072842" lon="-105.230575">
  <ele>1586.09</ele>
  <time>2026-08-28T19:12:05Z</time>
  <course>273.04</course>
  <speed>0.0</speed>
  <fix>3d</fix>
</trkpt>
<trkpt lat="40.072842" lon="-105.230575">
  <ele>1586.09</ele>
  <time>2026-08-28T19:12:05Z</time>
  <course>17.71</course>
  <speed>0.0</speed>
  <fix>3d</fix>
</trkpt>
<trkpt lat="40.072842" lon="-105.230575">
  <ele>1586.09</ele>
  <time>2026-08-28T19:12:05Z</time>
  <course>273.04</course>
  <speed>0.0</speed>
  <fix>3d</fix>
</trkpt>
<trkpt lat="40.072842" lon="-105.230575">
  <ele>1586.09</ele>
  <time>2026-08-28T19:12:05Z</time>
  <course>17.75</course>
  <speed>0.0</speed>
  <fix>3d</fix>
</trkpt>
<trkpt lat="40.072842" lon="-105.230575">
  <ele>1586.09</ele>
  <time>2026-08-28T19:12:05Z</time>
  <course>273.04</course>
  <speed>0.0</speed>
  <fix>3d</fix>
</trkpt>
<trkpt lat="40.072842" lon="-105.230575">
  <ele>1586.09</ele>
  <time>2026-08-28T19:12:05Z</time>
  <course>17.8</course>
  <speed>0.0</speed>
  <fix>3d</fix>
</trkpt>
<trkpt lat="40.072842" lon="-105.230575">
  <ele>1586.09</ele>
  <time>2026-08-28T19:12:05Z</time>
  <course>273.04</course>
  <speed>0.0</speed>
  <fix>3d</fix>
</trkpt>
<trkpt lat="40.072842" lon="-105.230575">
  <ele>1586.09</ele>
  <time>2026-08-28T19:12:05Z</time>
  <course>17.84</course>
  <speed>0.0</speed>
  <fix>3d</fix>
</trkpt>
<trkpt lat="40.072842" lon="-105.230575">
  <ele>1586.09</ele>
  <time>2026-08-28T19:12:05Z</time>
  <course>273.04</course>
  <speed>0.0</speed>
  <fix>3d</fix>
</trkpt>
<trkpt lat="40.072842" lon="-105.230575">
  <ele>1586.09</ele>
  <time>2026-08-28T19:12:05Z</time>
  <course>17.88</course>
  <speed>0.0</speed>
  <fix>3d</fix>
</trkpt>
<trkpt lat="40.072842" lon="-105.230575">
  <ele>1586.09</ele>
  <time>2026-08-28T19:12:05Z</time>
  <course>273.04</course>
  <speed>0.0</speed>
  <fix>3d</fix>
</trkpt>
<trkpt lat="40.072842" lon="-105.230575">
  <ele>1586.09</ele>
  <time>2026-08-28T19:12:05Z</time>
  <course>17.92</course>
  <speed>0.0</speed>
  <fix>3d</fix>
</trkpt>
<trkpt lat="40.072842" lon="-105.230575">
  <ele>1586.09</ele>
  <time>2026-08-28T19:12:05Z</time>
  <course>273.04</course>
  <speed>0.0</speed>
  <fix>3d</fix>
</trkpt>
<trkpt lat="40.072842" lon="-105.230575">
  <ele>1586.09</ele>
  <time>2026-08-28T19:12:05Z</time>
  <course>17.95</course>
  <speed>0.0</speed>
  <fix>3d</fix>
</trkpt>
<trkpt lat="40.072842" lon="-105.230575">
  <ele>1586.09</ele>
  <time>2026-08-28T19:12:05Z</time>
  <course>273.04</course>
  <speed>0.0</speed>
  <fix>3d</fix>
</trkpt>
<trkpt lat="40.072842" lon="-105.230575">
  <ele>1586.09</ele>
  <time>2026-08-28T19:12:05Z</time>
  <course>17.98</course>
  <speed>0.0</speed>
  <fix>3d</fix>
</trkpt>
<trkpt lat="40.072842" lon="-105.230575">
  <ele>1586.09</ele>
  <time>2026-08-28T19:12:05Z</time>
  <course>273.04</course>
  <speed>0.0</speed>
  <fix>3d</fix>
</trkpt>
<trkpt lat="40.072842" lon="-105.230575">
  <ele>1586.09</ele>
  <time>2026-08-28T19:12:05Z</time>
  <course>18.01</course>
  <speed>0.0</speed>
  <fix>3d</fix>
</trkpt>
<trkpt lat="40.072842" lon="-105.230575">
  <ele>1586.09</ele>
  <time>2026-08-28T19:12:05Z</time>
  <course>273.04</course>
  <speed>0.0</speed>
  <fix>3d</fix>
</trkpt>
<trkpt lat="40.072842" lon="-105.230575">
  <ele>1586.09</ele>
  <time>2026-08-28T19:12:05Z</time>
  <course>18.04</course>
  <speed>0.0</speed>
  <fix>3d</fix>
</trkpt>
<trkpt lat="40.072842" lon="-105.230575">
  <ele>1586.09</ele>
  <time>2026-08-28T19:12:05Z</time>
  <course>273.04</course>
  <speed>0.0</speed>
  <fix>3d</fix>
</trkpt>
<trkpt lat="40.072842" lon="-105.230575">
  <ele>1586.09</ele>
  <time>2026-08-28T19:12:05Z</time>
  <course>18.07</course>
  <speed>0.01</speed>
  <fix>3d</fix>
</trkpt>
<trkpt lat="40.072842" lon="-105.230575">
  <ele>1586.09</ele>
  <time>2026-08-28T19:12:05Z</time>
  <course>273.04</course>
  <speed>0.0</speed>
  <fix>3d</fix>
</trkpt>
<trkpt lat="40.072842" lon="-105.230575">
  <ele>1586.09</ele>
  <time>2026-08-28T19:12:05Z</time>
  <course>18.09</course>
  <speed>0.01</speed>
  <fix>3d</fix>
</trkpt>
<trkpt lat="40.072842" lon="-105.230575">
  <ele>1586.09</ele>
  <time>2026-08-28T19:12:05Z</time>
  <course>273.04</course>
  <speed>0.0</speed>
  <fix>3d</fix>
</trkpt>
<trkpt lat="40.072842" lon="-105.230575">
  <ele>1586.09</ele>
  <time>2026-08-28T19:12:05Z</time>
  <course>18.11</course>
  <speed>0.01</speed>
  <fix>3d</fix>
</trkpt>
<trkpt lat="40.072842" lon="-105.230575">
  <ele>1586.09</ele>
  <time>2026-08-28T19:12:05Z</time>
  <course>273.04</course>
  <speed>0.0</speed>
  <fix>3d</fix>
</trkpt>
<trkpt lat="40.072842" lon="-105.230575">
  <ele>1586.09</ele>
  <time>2026-08-28T19:12:05Z</time>
  <course>18.13</course>
  <speed>0.01</speed>
  <fix>3d</fix>
</trkpt>
<trkpt lat="40.072842" lon="-105.230575">
  <ele>1586.09</ele>
  <time>2026-08-28T19:12:05Z</time>
  <course>273.04</course>
  <speed>0.0</speed>
  <fix>3d</fix>
</trkpt>
<trkpt lat="40.072842" lon="-105.230575">
  <ele>1586.09</ele>
  <time>2026-08-28T19:12:05Z</time>
  <course>18.15</course>
  <speed>0.01</speed>
  <fix>3d</fix>
</trkpt>
<trkpt lat="40.072842" lon="-105.230575">
  <ele>1586.09</ele>
  <time>2026-08-28T19:12:05Z</time>
  <course>273.04</course>
  <speed>0.0</speed>
  <fix>3d</fix>
</trkpt>
<trkpt lat="40.072842" lon="-105.230575">
  <ele>1586.09</ele>
  <time>2026-08-28T19:12:05Z</time>
  <course>18.17</course>
  <speed>0.01</speed>
  <fix>3d</fix>
</trkpt>
<trkpt lat="40.072842" lon="-105.230575">
  <ele>1586.09</ele>
  <time>2026-08-28T19:12:05Z</time>
  <course>273.04</course>
  <speed>0.0</speed>
  <fix>3d</fix>
</trkpt>
<trkpt lat="40.072842" lon="-105.230575">
  <ele>1586.09</ele>
  <time>2026-08-28T19:12:05Z</time>
  <course>18.19</course>
  <speed>0.01</speed>
  <fix>3d</fix>
</trkpt>
<trkpt lat="40.072842" lon="-105.230575">
  <ele>1586.09</ele>
  <time>2026-08-28T19:12:05Z</time>
  <course>273.04</course>
  <speed>0.0</speed>
  <fix>3d</fix>
</trkpt>
<trkpt lat="40.072842" lon="-105.230575">
  <ele>1586.09</ele>
  <time>2026-08-28T19:12:05Z</time>
  <course>18.2</course>
  <speed>0.01</speed>
  <fix>3d</fix>
</trkpt>
<trkpt lat="40.072842" lon="-105.230575">
  <ele>1586.09</ele>
  <time>2026-08-28T19:12:05Z</time>
  <course>273.04</course>
  <speed>0.0</speed>
  <fix>3d</fix>
</trkpt>
<trkpt lat="40.072842" lon="-105.230575">
  <ele>1586.09</ele>
  <time>2026-08-28T19:12:05Z</time>
  <course>18.22</course>
  <speed>0.01</speed>
  <fix>3d</fix>
</trkpt>
<trkpt lat="40.072842" lon="-105.230575">
  <ele>1586.09</ele>
  <time>2026-08-28T19:12:05Z</time>
  <course>273.04</course>
  <speed>0.0</speed>
  <fix>3d</fix>
</trkpt>
<trkpt lat="40.072842" lon="-105.230575">
  <ele>1586.09</ele>
  <time>2026-08-28T19:12:05Z</time>
  <course>18.24</course>
  <speed>0.01</speed>
  <fix>3d</fix>
</trkpt>
<trkpt lat="40.072842" lon="-105.230575">
  <ele>1586.09</ele>
  <time>2026-08-28T19:12:05Z</time>
  <course>273.04</course>
  <speed>0.0</speed>
  <fix>3d</fix>
</trkpt>
<trkpt lat="40.072842" lon="-105.230575">
  <ele>1586.09</ele>
  <time>2026-08-28T19:12:05Z</time>
  <course>18.25</course>
  <speed>0.01</speed>
  <fix>3d</fix>
</trkpt>
<trkpt lat="40.072842" lon="-105.230575">
  <ele>1586.09</ele>
  <time>2026-08-28T19:12:05Z</time>
  <course>273.04</course>
  <speed>0.0</speed>
  <fix>3d</fix>
</trkpt>
<trkpt lat="40.072842" lon="-105.230575">
  <ele>1586.09</ele>
  <time>2026-08-28T19:12:05Z</time>
  <course>18.26</course>
  <speed>0.01</speed>
  <fix>3d</fix>
</trkpt>
<trkpt lat="40.072842" lon="-105.230575">
  <ele>1586.09</ele>
  <time>2026-08-28T19:12:05Z</time>
  <course>273.04</course>
  <speed>0.0</speed>
  <fix>3d</fix>
</trkpt>
<trkpt lat="40.072842" lon="-105.230575">
  <ele>1586.09</ele>
  <time>2026-08-28T19:12:05Z</time>
  <course>18.27</course>
  <speed>0.01</speed>
  <fix>3d</fix>
</trkpt>
<trkpt lat="40.072842" lon="-105.230575">
  <ele>1586.09</ele>
  <time>2026-08-28T19:12:05Z</time>
  <course>273.04</course>
  <speed>0.0</speed>
  <fix>3d</fix>
</trkpt>
<trkpt lat="40.072842" lon="-105.230575">
  <ele>1586.09</ele>
  <time>2026-08-28T19:12:05Z</time>
  <course>18.28</course>
  <speed>0.01</speed>
  <fix>3d</fix>
</trkpt>
<trkpt lat="40.072842" lon="-105.230575">
  <ele>1586.09</ele>
  <time>2026-08-28T19:12:05Z</time>
  <course>273.04</course>
  <speed>0.0</speed>
  <fix>3d</fix>
</trkpt>
<trkpt lat="40.072842" lon="-105.230575">
  <ele>1586.09</ele>
  <time>2026-08-28T19:12:05Z</time>
  <course>18.29</course>
  <speed>0.01</speed>
  <fix>3d</fix>
</trkpt>
<trkpt lat="40.072842" lon="-105.230575">
  <ele>1586.09</ele>
  <time>2026-08-28T19:12:05Z</time>
  <course>273.04</course>
  <speed>0.0</speed>
  <fix>3d</fix>
</trkpt>
<trkpt lat="40.072842" lon="-105.230575">
  <ele>1586.09</ele>
  <time>2026-08-28T19:12:05Z</time>
  <course>18.3</course>
  <speed>0.01</speed>
  <fix>3d</fix>
</trkpt>
<trkpt lat="40.072842" lon="-105.230575">
  <ele>1586.09</ele>
  <time>2026-08-28T19:12:05Z</time>
  <course>273.04</course>
  <speed>0.0</speed>
  <fix>3d</fix>
</trkpt>
<trkpt lat="40.072842" lon="-105.230575">
  <ele>1586.09</ele>
  <time>2026-08-28T19:12:05Z</time>
  <course>18.31</course>
  <speed>0.01</speed>
  <fix>3d</fix>
</trkpt>
<trkpt lat="40.072842" lon="-105.230575">
  <ele>1586.09</ele>
  <time>2026-08-28T19:12:05Z</time>
  <course>273.04</course>
  <speed>0.0</speed>
  <fix>3d</fix>
</trkpt>
<trkpt lat="40.072842" lon="-105.230575">
  <ele>1586.09</ele>
  <time>2026-08-28T19:12:05Z</time>
  <course>18.32</course>
  <speed>0.01414213562373095</speed>
  <fix>3d</fix>
</trkpt>
<trkpt lat="40.072842" lon="-105.230575">
  <ele>1586.09</ele>
  <time>2026-08-28T19:12:05Z</time>
  <course>273.04</course>
  <speed>0.0</speed>
  <fix>3d</fix>
</trkpt>
<trkpt lat="40.072842" lon="-105.230575">
  <ele>1586.09</ele>
  <time>2026-08-28T19:12:05Z</time>
  <course>18.33</course>
  <speed>0.01414213562373095</speed>
  <fix>3d</fix>
</trkpt>
<trkpt lat="40.072842" lon="-105.230575">
  <ele>1586.09</ele>
  <time>2026-08-28T19:12:05Z</time>
  <course>273.04</course>
  <speed>0.0</speed>
  <fix>3d</fix>
</trkpt>
<trkpt lat="40.072842" lon="-105.230575">
  <ele>1586.09</ele>
  <time>2026-08-28T19:12:05Z</time>
  <course>18.33</course>
  <speed>0.01414213562373095</speed>
  <fix>3d</fix>
</trkpt>
<trkpt lat="40.072842" lon="-105.230575">
  <ele>1586.09</ele>
  <time>2026-08-28T19:12:05Z</time>
  <course>273.04</course>
  <speed>0.0</speed>
  <fix>3d</fix>
</trkpt>
<trkpt lat="40.072842" lon="-105.230575">
  <ele>1586.09</ele>
  <time>2026-08-28T19:12:05Z</time>
  <course>18.34</course>
  <speed>0.01414213562373095</speed>
  <fix>3d</fix>
</trkpt>
<trkpt lat="40.072842" lon="-105.230575">
  <ele>1586.09</ele>
  <time>2026-08-28T19:12:05Z</time>
  <course>273.04</course>
  <speed>0.0</speed>
  <fix>3d</fix>
</trkpt>
<trkpt lat="40.072842" lon="-105.230575">
  <ele>1586.09</ele>
  <time>2026-08-28T19:12:05Z</time>
  <course>18.35</course>
  <speed>0.01414213562373095</speed>
  <fix>3d</fix>
</trkpt>
<trkpt lat="40.072842" lon="-105.230575">
  <ele>1586.09</ele>
  <time>2026-08-28T19:12:05Z</time>
  <course>273.04</course>
  <speed>0.0</speed>
  <fix>3d</fix>
</trkpt>
<trkpt lat="40.072842" lon="-105.230575">
  <ele>1586.09</ele>
  <time>2026-08-28T19:12:05Z</time>
  <course>18.35</course>
  <speed>0.01414213562373095</speed>
  <fix>3d</fix>
</trkpt>
<trkpt lat="40.072842" lon="-105.230575">
  <ele>1586.09</ele>
  <time>2026-08-28T19:12:05Z</time>
  <course>273.04</course>
  <speed>0.0</speed>
  <fix>3d</fix>
</trkpt>
<trkpt lat="40.072842" lon="-105.230575">
  <ele>1586.09</ele>
  <time>2026-08-28T19:12:05Z</time>
  <course>18.36</course>
  <speed>0.01414213562373095</speed>
  <fix>3d</fix>
</trkpt>
<trkpt lat="40.072842" lon="-105.230575">
  <ele>1586.09</ele>
  <time>2026-08-28T19:12:05Z</time>
  <course>273.04</course>
  <speed>0.0</speed>
  <fix>3d</fix>
</trkpt>
<trkpt lat="40.072842" lon="-105.230575">
  <ele>1586.09</ele>
  <time>2026-08-28T19:12:05Z</time>
  <course>18.36</course>
  <speed>0.022360679774997897</speed>
  <fix>3d</fix>
</trkpt>
<trkpt lat="40.072842" lon="-105.230575">
  <ele>1586.09</ele>
  <time>2026-08-28T19:12:05Z</time>
  <course>273.04</course>
  <speed>0.0</speed>
  <fix>3d</fix>
</trkpt>
<trkpt lat="40.072842" lon="-105.230575">
  <ele>1586.09</ele>
  <time>2026-08-28T19:12:05Z</time>
  <course>18.36</course>
  <speed>0.022360679774997897</speed>
  <fix>3d</fix>
</trkpt>
<trkpt lat="40.072842" lon="-105.230575">
  <ele>1586.09</ele>
  <time>2026-08-28T19:12:05Z</time>
  <course>273.04</course>
  <speed>0.0</speed>
  <fix>3d</fix>
</trkpt>
<trkpt lat="40.072842" lon="-105.230575">
  <ele>1586.09</ele>
  <time>2026-08-28T19:12:05Z</time>
  <course>18.37</course>
  <speed>0.022360679774997897</speed>
  <fix>3d</fix>
</trkpt>
<trkpt lat="40.072842" lon="-105.230575">
  <ele>1586.09</ele>
  <time>2026-08-28T19:12:05Z</time>
  <course>273.04</course>
  <speed>0.0</speed>
  <fix>3d</fix>
</trkpt>
<trkpt lat="40.072842" lon="-105.230575">
  <ele>1586.09</ele>
  <time>2026-08-28T19:12:05Z</time>
  <course>18.37</course>
  <speed>0.022360679774997897</speed>
  <fix>3d</fix>
</trkpt>
<trkpt lat="40.072842" lon="-105.230575">
  <ele>1586.09</ele>
  <time>2026-08-28T19:12:05Z</time>
  <course>273.04</course>
  <speed>0.0</speed>
  <fix>3d</fix>
</trkpt>
<trkpt lat="40.072842" lon="-105.230575">
  <ele>1586.09</ele>
  <time>2026-08-28T19:12:05Z</time>
  <course>18.37</course>
  <speed>0.022360679774997897</speed>
  <fix>3d</fix>
</trkpt>
<trkpt lat="40.072842" lon="-105.230575">
  <ele>1586.09</ele>
  <time>2026-08-28T19:12:05Z</time>
  <course>273.04</course>
  <speed>0.0</speed>
  <fix>3d</fix>
</trkpt>
<trkpt lat="40.072842" lon="-105.230575">
  <ele>1586.09</ele>
  <time>2026-08-28T19:12:05Z</time>
  <course>18.37</course>
  <speed>0.022360679774997897</speed>
  <fix>3d</fix>
</trkpt>
<trkpt lat="40.072842" lon="-105.230575">
  <ele>1586.09</ele>
  <time>2026-08-28T19:12:05Z</time>
  <course>273.04</course>
  <speed>0.0</speed>
  <fix>3d</fix>
</trkpt>
<trkpt lat="40.072842" lon="-105.230575">
  <ele>1586.09</ele>
  <time>2026-08-28T19:12:05Z</time>
  <course>18.38</course>
  <speed>0.022360679774997897</speed>
  <fix>3d</fix>
</trkpt>
<trkpt lat="40.072842" lon="-105.230575">
  <ele>1586.09</ele>
  <time>2026-08-28T19:12:05Z</time>
  <course>273.04</course>
  <speed>0.0</speed>
  <fix>3d</fix>
</trkpt>
<trkpt lat="40.072842" lon="-105.230575">
  <ele>1586.09</ele>
  <time>2026-08-28T19:12:05Z</time>
  <course>18.38</course>
  <speed>0.022360679774997897</speed>
  <fix>3d</fix>
</trkpt>
<trkpt lat="40.072842" lon="-105.230575">
  <ele>1586.09</ele>
  <time>2026-08-28T19:12:05Z</time>
  <course>273.04</course>
  <speed>0.0</speed>
  <fix>3d</fix>
</trkpt>
<trkpt lat="40.072842" lon="-105.230575">
  <ele>1586.09</ele>
  <time>2026-08-28T19:12:05Z</time>
  <course>18.38</course>
  <speed>0.022360679774997897</speed>
  <fix>3d</fix>
</trkpt>
<trkpt lat="40.072842" lon="-105.230575">
  <ele>1586.09</ele>
  <time>2026-08-28T19:12:05Z</time>
  <course>273.04</course>
  <speed>0.0</speed>
  <fix>3d</fix>
</trkpt>
<trkpt lat="40.072842" lon="-105.230575">
  <ele>1586.09</ele>
  <time>2026-08-28T19:12:05Z</time>
  <course>18.38</course>
  <speed>0.022360679774997897</speed>
  <fix>3d</fix>
</trkpt>
<trkpt lat="40.072842" lon="-105.230575">
  <ele>1586.09</ele>
  <time>2026-08-28T19:12:05Z</time>
  <course>273.04</course>
  <speed>0.0</speed>
  <fix>3d</fix>
</trkpt>
<trkpt lat="40.072842" lon="-105.230575">
  <ele>1586.09</ele>
  <time>2026-08-28T19:12:05Z</time>
  <course>18.38</course>
  <speed>0.022360679774997897</speed>
  <fix>3d</fix>
</trkpt>
<trkpt lat="40.072842" lon="-105.230575">
  <ele>1586.09</ele>
  <time>2026-08-28T19:12:05Z</time>
  <course>273.04</course>
  <speed>0.0</speed>
  <fix>3d</fix>
</trkpt>
<trkpt lat="40.072842" lon="-105.230575">
  <ele>1586.09</ele>
  <time>2026-08-28T19:12:05Z</time>
  <course>18.38</course>
  <speed>0.022360679774997897</speed>
  <fix>3d</fix>
</trkpt>
<trkpt lat="40.072842" lon="-105.230575">
  <ele>1586.09</ele>
  <time>2026-08-28T19:12:06Z</time>
  <course>273.04</course>
  <speed>0.0</speed>
  <fix>3d</fix>
</trkpt>
<trkpt lat="40.072842" lon="-105.230575">
  <ele>1586.09</ele>
  <time>2026-08-28T19:12:06Z</time>
  <course>18.38</course>
  <speed>0.022360679774997897</speed>
  <fix>3d</fix>
</trkpt>
<trkpt lat="40.072842" lon="-105.230575">
  <ele>1586.09</ele>
  <time>2026-08-28T19:12:06Z</time>
  <course>273.04</course>
  <speed>0.0</speed>
  <fix>3d</fix>
</trkpt>
<trkpt lat="40.072842" lon="-105.230575">
  <ele>1586.09</ele>
  <time>2026-08-28T19:12:06Z</time>
  <course>18.38</course>
  <speed>0.022360679774997897</speed>
  <fix>3d</fix>
</trkpt>
<trkpt lat="40.072842" lon="-105.230575">
  <ele>1586.09</ele>
  <time>2026-08-28T19:12:06Z</time>
  <course>273.04</course>
  <speed>0.0</speed>
  <fix>3d</fix>
</trkpt>
<trkpt lat="40.072842" lon="-105.230575">
  <ele>1586.09</ele>
  <time>2026-08-28T19:12:06Z</time>
  <course>18.38</course>
  <speed>0.022360679774997897</speed>
  <fix>3d</fix>
</trkpt>
<trkpt lat="40.072842" lon="-105.230575">
  <ele>1586.09</ele>
  <time>2026-08-28T19:12:06Z</time>
  <course>273.04</course>
  <speed>0.0</speed>
  <fix>3d</fix>
</trkpt>
<trkpt lat="40.072842" lon="-105.230575">
  <ele>1586.09</ele>
  <time>2026-08-28T19:12:06Z</time>
  <course>18.38</course>
  <speed>0.022360679774997897</speed>
  <fix>3d</fix>
</trkpt>
<trkpt lat="40.072842" lon="-105.230575">
  <ele>1586.09</ele>
  <time>2026-08-28T19:12:06Z</time>
  <course>273.04</course>
  <speed>0.0</speed>
  <fix>3d</fix>
</trkpt>
<trkpt lat="40.072842" lon="-105.230575">
  <ele>1586.09</ele>
  <time>2026-08-28T19:12:06Z</time>
  <course>18.38</course>
  <speed>0.022360679774997897</speed>
  <fix>3d</fix>
</trkpt>
<trkpt lat="40.072842" lon="-105.230575">
  <ele>1586.09</ele>
  <time>2026-08-28T19:12:06Z</time>
  <course>273.04</course>
  <speed>0.0</speed>
  <fix>3d</fix>
</trkpt>
<trkpt lat="40.072842" lon="-105.230575">
  <ele>1586.09</ele>
  <time>2026-08-28T19:12:06Z</time>
  <course>18.38</course>
  <speed>0.022360679774997897</speed>
  <fix>3d</fix>
</trkpt>
<trkpt lat="40.072842" lon="-105.230575">
  <ele>1586.09</ele>
  <time>2026-08-28T19:12:06Z</time>
  <course>273.04</course>
  <speed>0.0</speed>
  <fix>3d</fix>
</trkpt>
<trkpt lat="40.072842" lon="-105.230575">
  <ele>1586.09</ele>
  <time>2026-08-28T19:12:06Z</time>
  <course>18.38</course>
  <speed>0.022360679774997897</speed>
  <fix>3d</fix>
</trkpt>
<trkpt lat="40.072842" lon="-105.230575">
  <ele>1586.09</ele>
  <time>2026-08-28T19:12:06Z</time>
  <course>273.04</course>
  <speed>0.0</speed>
  <fix>3d</fix>
</trkpt>
<trkpt lat="40.072842" lon="-105.230575">
  <ele>1586.09</ele>
  <time>2026-08-28T19:12:06Z</time>
  <course>18.38</course>
  <speed>0.022360679774997897</speed>
  <fix>3d</fix>
</trkpt>
<trkpt lat="40.072842" lon="-105.230575">
  <ele>1586.09</ele>
  <time>2026-08-28T19:12:06Z</time>
  <course>273.04</course>
  <speed>0.0</speed>
  <fix>3d</fix>
</trkpt>
<trkpt lat="40.072842" lon="-105.230575">
  <ele>1586.09</ele>
  <time>2026-08-28T19:12:06Z</time>
  <course>18.37</course>
  <speed>0.022360679774997897</speed>
  <fix>3d</fix>
</trkpt>
<trkpt lat="40.072842" lon="-105.230575">
  <ele>1586.09</ele>
  <time>2026-08-28T19:12:06Z</time>
  <course>273.04</course>
  <speed>0.0</speed>
  <fix>3d</fix>
</trkpt>
<trkpt lat="40.072842" lon="-105.230575">
  <ele>1586.09</ele>
  <time>2026-08-28T19:12:06Z</time>
  <course>18.37</course>
  <speed>0.022360679774997897</speed>
  <fix>3d</fix>
</trkpt>
<trkpt lat="40.072842" lon="-105.230575">
  <ele>1586.09</ele>
  <time>2026-08-28T19:12:06Z</time>
  <course>273.04</course>
  <speed>0.0</speed>
  <fix>3d</fix>
</trkpt>
<trkpt lat="40.072842" lon="-105.230575">
  <ele>1586.09</ele>
  <time>2026-08-28T19:12:06Z</time>
  <course>18.37</course>
  <speed>0.022360679774997897</speed>
  <fix>3d</fix>
</trkpt>
<trkpt lat="40.072842" lon="-105.230575">
  <ele>1586.09</ele>
  <time>2026-08-28T19:12:06Z</time>
  <course>273.04</course>
  <speed>0.0</speed>
  <fix>3d</fix>
</trkpt>
<trkpt lat="40.072842" lon="-105.230575">
  <ele>1586.09</ele>
  <time>2026-08-28T19:12:06Z</time>
  <course>18.37</course>
  <speed>0.022360679774997897</speed>
  <fix>3d</fix>
</trkpt>
<trkpt lat="40.072842" lon="-105.230575">
  <ele>1586.09</ele>
  <time>2026-08-28T19:12:06Z</time>
  <course>273.04</course>
  <speed>0.0</speed>
  <fix>3d</fix>
</trkpt>
<trkpt lat="40.072842" lon="-105.230575">
  <ele>1586.09</ele>
  <time>2026-08-28T19:12:06Z</time>
  <course>18.37</course>
  <speed>0.0316227766016838</speed>
  <fix>3d</fix>
</trkpt>
<trkpt lat="40.072842" lon="-105.230575">
  <ele>1586.09</ele>
  <time>2026-08-28T19:12:06Z</time>
  <course>273.04</course>
  <speed>0.0</speed>
  <fix>3d</fix>
</trkpt>
<trkpt lat="40.072842" lon="-105.230575">
  <ele>1586.09</ele>
  <time>2026-08-28T19:12:06Z</time>
  <course>18.36</course>
  <speed>0.0316227766016838</speed>
  <fix>3d</fix>
</trkpt>
<trkpt lat="40.072842" lon="-105.230575">
  <ele>1586.09</ele>
  <time>2026-08-28T19:12:06Z</time>
  <course>273.04</course>
  <speed>0.0</speed>
  <fix>3d</fix>
</trkpt>
<trkpt lat="40.072842" lon="-105.230575">
  <ele>1586.09</ele>
  <time>2026-08-28T19:12:06Z</time>
  <course>18.36</course>
  <speed>0.0316227766016838</speed>
  <fix>3d</fix>
</trkpt>
<trkpt lat="40.072842" lon="-105.230575">
  <ele>1586.09</ele>
  <time>2026-08-28T19:12:06Z</time>
  <course>273.04</course>
  <speed>0.0</speed>
  <fix>3d</fix>
</trkpt>
<trkpt lat="40.072842" lon="-105.230575">
  <ele>1586.09</ele>
  <time>2026-08-28T19:12:06Z</time>
  <course>18.36</course>
  <speed>0.0316227766016838</speed>
  <fix>3d</fix>
</trkpt>
<trkpt lat="40.072842" lon="-105.230575">
  <ele>1586.09</ele>
  <time>2026-08-28T19:12:06Z</time>
  <course>273.04</course>
  <speed>0.0</speed>
  <fix>3d</fix>
</trkpt>
<trkpt lat="40.072842" lon="-105.230575">
  <ele>1586.09</ele>
  <time>2026-08-28T19:12:06Z</time>
  <course>18.36</course>
  <speed>0.0316227766016838</speed>
  <fix>3d</fix>
</trkpt>
<trkpt lat="40.072842" lon="-105.230575">
  <ele>1586.09</ele>
  <time>2026-08-28T19:12:06Z</time>
  <course>273.04</course>
  <speed>0.0</speed>
  <fix>3d</fix>
</trkpt>
<trkpt lat="40.072842" lon="-105.230575">
  <ele>1586.09</ele>
  <time>2026-08-28T19:12:06Z</time>
  <course>18.36</course>
  <speed>0.0316227766016838</speed>
  <fix>3d</fix>
</trkpt>
<trkpt lat="40.072842" lon="-105.230575">
  <ele>1586.09</ele>
  <time>2026-08-28T19:12:06Z</time>
  <course>273.04</course>
  <speed>0.0</speed>
  <fix>3d</fix>
</trkpt>
<trkpt lat="40.072842" lon="-105.230575">
  <ele>1586.09</ele>
  <time>2026-08-28T19:12:06Z</time>
  <course>18.36</course>
  <speed>0.0316227766016838</speed>
  <fix>3d</fix>
</trkpt>
<trkpt lat="40.072842" lon="-105.230575">
  <ele>1586.09</ele>
  <time>2026-08-28T19:12:06Z</time>
  <course>273.04</course>
  <speed>0.0</speed>
  <fix>3d</fix>
</trkpt>
<trkpt lat="40.072842" lon="-105.230575">
  <ele>1586.09</ele>
  <time>2026-08-28T19:12:06Z</time>
  <course>18.36</course>
  <speed>0.0316227766016838</speed>
  <fix>3d</fix>
</trkpt>
<trkpt lat="40.072842" lon="-105.230575">
  <ele>1586.09</ele>
  <time>2026-08-28T19:12:06Z</time>
  <course>273.04</course>
  <speed>0.0</speed>
  <fix>3d</fix>
</trkpt>
<trkpt lat="40.072842" lon="-105.230575">
  <ele>1586.09</ele>
  <time>2026-08-28T19:12:06Z</time>
  <course>18.35</course>
  <speed>0.0316227766016838</speed>
  <fix>3d</fix>
</trkpt>
<trkpt lat="40.072842" lon="-105.230575">
  <ele>1586.09</ele>
  <time>2026-08-28T19:12:06Z</time>
  <course>273.04</course>
  <speed>0.0</speed>
  <fix>3d</fix>
</trkpt>
<trkpt lat="40.072842" lon="-105.230575">
  <ele>1586.09</ele>
  <time>2026-08-28T19:12:06Z</time>
  <course>18.35</course>
  <speed>0.0316227766016838</speed>
  <fix>3d</fix>
</trkpt>
<trkpt lat="40.072842" lon="-105.230575">
  <ele>1586.09</ele>
  <time>2026-08-28T19:12:06Z</time>
  <course>273.04</course>
  <speed>0.0</speed>
  <fix>3d</fix>
</trkpt>
<trkpt lat="40.072842" lon="-105.230575">
  <ele>1586.09</ele>
  <time>2026-08-28T19:12:06Z</time>
  <course>18.35</course>
  <speed>0.0316227766016838</speed>
  <fix>3d</fix>
</trkpt>
<trkpt lat="40.072842" lon="-105.230575">
  <ele>1586.09</ele>
  <time>2026-08-28T19:12:06Z</time>
  <course>273.04</course>
  <speed>0.0</speed>
  <fix>3d</fix>
</trkpt>
<trkpt lat="40.072842" lon="-105.230575">
  <ele>1586.09</ele>
  <time>2026-08-28T19:12:06Z</time>
  <course>18.35</course>
  <speed>0.0316227766016838</speed>
  <fix>3d</fix>
</trkpt>
<trkpt lat="40.072842" lon="-105.230575">
  <ele>1586.09</ele>
  <time>2026-08-28T19:12:06Z</time>
  <course>273.04</course>
  <speed>0.0</speed>
  <fix>3d</fix>
</trkpt>
<trkpt lat="40.072842" lon="-105.230575">
  <ele>1586.09</ele>
  <time>2026-08-28T19:12:06Z</time>
  <course>18.34</course>
  <speed>0.0316227766016838</speed>
  <fix>3d</fix>
</trkpt>
<trkpt lat="40.072842" lon="-105.230575">
  <ele>1586.09</ele>
  <time>2026-08-28T19:12:06Z</time>
  <course>273.04</course>
  <speed>0.0</speed>
  <fix>3d</fix>
</trkpt>
<trkpt lat="40.072842" lon="-105.230575">
  <ele>1586.09</ele>
  <time>2026-08-28T19:12:06Z</time>
  <course>18.34</course>
  <speed>0.0316227766016838</speed>
  <fix>3d</fix>
</trkpt>
<trkpt lat="40.072842" lon="-105.230575">
  <ele>1586.09</ele>
  <time>2026-08-28T19:12:06Z</time>
  <course>273.04</course>
  <speed>0.0</speed>
  <fix>3d</fix>
</trkpt>
<trkpt lat="40.072842" lon="-105.230575">
  <ele>1586.09</ele>
  <time>2026-08-28T19:12:06Z</time>
  <course>18.34</course>
  <speed>0.0316227766016838</speed>
  <fix>3d</fix>
</trkpt>
<trkpt lat="40.072842" lon="-105.230575">
  <ele>1586.09</ele>
  <time>2026-08-28T19:12:06Z</time>
  <course>273.04</course>
  <speed>0.0</speed>
  <fix>3d</fix>
</trkpt>
<trkpt lat="40.072842" lon="-105.230575">
  <ele>1586.09</ele>
  <time>2026-08-28T19:12:06Z</time>
  <course>18.34</course>
  <speed>0.0316227766016838</speed>
  <fix>3d</fix>
</trkpt>
<trkpt lat="40.072842" lon="-105.230575">
  <ele>1586.09</ele>
  <time>2026-08-28T19:12:06Z</time>
  <course>273.04</course>
  <speed>0.0</speed>
  <fix>3d</fix>
</trkpt>
<trkpt lat="40.072842" lon="-105.230575">
  <ele>1586.09</ele>
  <time>2026-08-28T19:12:06Z</time>
  <course>18.34</course>
  <speed>0.0316227766016838</speed>
  <fix>3d</fix>
</trkpt>
<trkpt lat="40.072842" lon="-105.230575">
  <ele>1586.09</ele>
  <time>2026-08-28T19:12:06Z</time>
  <course>273.04</course>
  <speed>0.0</speed>
  <fix>3d</fix>
</trkpt>
<trkpt lat="40.072842" lon="-105.230575">
  <ele>1586.09</ele>
  <time>2026-08-28T19:12:06Z</time>
  <course>18.33</course>
  <speed>0.0316227766016838</speed>
  <fix>3d</fix>
</trkpt>
<trkpt lat="40.072842" lon="-105.230575">
  <ele>1586.09</ele>
  <time>2026-08-28T19:12:06Z</time>
  <course>273.04</course>
  <speed>0.0</speed>
  <fix>3d</fix>
</trkpt>
<trkpt lat="40.072842" lon="-105.230575">
  <ele>1586.09</ele>
  <time>2026-08-28T19:12:06Z</time>
  <course>18.33</course>
  <speed>0.0316227766016838</speed>
  <fix>3d</fix>
</trkpt>
<trkpt lat="40.072842" lon="-105.230575">
  <ele>1586.09</ele>
  <time>2026-08-28T19:12:06Z</time>
  <course>273.04</course>
  <speed>0.0</speed>
  <fix>3d</fix>
</trkpt>
<trkpt lat="40.072842" lon="-105.230575">
  <ele>1586.09</ele>
  <time>2026-08-28T19:12:06Z</time>
  <course>18.33</course>
  <speed>0.0316227766016838</speed>
  <fix>3d</fix>
</trkpt>
<trkpt lat="40.072842" lon="-105.230575">
  <ele>1586.09</ele>
  <time>2026-08-28T19:12:06Z</time>
  <course>273.04</course>
  <speed>0.0</speed>
  <fix>3d</fix>
</trkpt>
<trkpt lat="40.072842" lon="-105.230575">
  <ele>1586.09</ele>
  <time>2026-08-28T19:12:06Z</time>
  <course>18.32</course>
  <speed>0.0316227766016838</speed>
  <fix>3d</fix>
</trkpt>
<trkpt lat="40.072842" lon="-105.230575">
  <ele>1586.09</ele>
  <time>2026-08-28T19:12:06Z</time>
  <course>273.04</course>
  <speed>0.0</speed>
  <fix>3d</fix>
</trkpt>
<trkpt lat="40.072842" lon="-105.230575">
  <ele>1586.09</ele>
  <time>2026-08-28T19:12:06Z</time>
  <course>18.32</course>
  <speed>0.0316227766016838</speed>
  <fix>3d</fix>
</trkpt>
<trkpt lat="40.072842" lon="-105.230575">
  <ele>1586.09</ele>
  <time>2026-08-28T19:12:06Z</time>
  <course>273.04</course>
  <speed>0.0</speed>
  <fix>3d</fix>
</trkpt>
<trkpt lat="40.072842" lon="-105.230575">
  <ele>1586.09</ele>
  <time>2026-08-28T19:12:06Z</time>
  <course>18.32</course>
  <speed>0.0316227766016838</speed>
  <fix>3d</fix>
</trkpt>
<trkpt lat="40.072842" lon="-105.230575">
  <ele>1586.09</ele>
  <time>2026-08-28T19:12:06Z</time>
  <course>273.04</course>
  <speed>0.0</speed>
  <fix>3d</fix>
</trkpt>
<trkpt lat="40.072842" lon="-105.230575">
  <ele>1586.09</ele>
  <time>2026-08-28T19:12:06Z</time>
  <course>18.31</course>
  <speed>0.0316227766016838</speed>
  <fix>3d</fix>
</trkpt>
<trkpt lat="40.072842" lon="-105.230575">
  <ele>1586.09</ele>
  <time>2026-08-28T19:12:06Z</time>
  <course>273.04</course>
  <speed>0.0</speed>
  <fix>3d</fix>
</trkpt>
<trkpt lat="40.072842" lon="-105.230575">
  <ele>1586.09</ele>
  <time>2026-08-28T19:12:06Z</time>
  <course>18.31</course>
  <speed>0.03605551275463989</speed>
  <fix>3d</fix>
</trkpt>
<trkpt lat="40.072842" lon="-105.230575">
  <ele>1586.09</ele>
  <time>2026-08-28T19:12:06Z</time>
  <course>273.04</course>
  <speed>0.0</speed>
  <fix>3d</fix>
</trkpt>
<trkpt lat="40.072842" lon="-105.230575">
  <ele>1586.09</ele>
  <time>2026-08-28T19:12:06Z</time>
  <course>18.31</course>
  <speed>0.03605551275463989</speed>
  <fix>3d</fix>
</trkpt>
<trkpt lat="40.072842" lon="-105.230575">
  <ele>1586.09</ele>
  <time>2026-08-28T19:12:06Z</time>
  <course>273.04</course>
  <speed>0.0</speed>
  <fix>3d</fix>
</trkpt>
<trkpt lat="40.072842" lon="-105.230575">
  <ele>1586.09</ele>
  <time>2026-08-28T19:12:06Z</time>
  <course>18.31</course>
  <speed>0.03605551275463989</speed>
  <fix>3d</fix>
</trkpt>
<trkpt lat="40.072842" lon="-105.230575">
  <ele>1586.09</ele>
  <time>2026-08-28T19:12:06Z</time>
  <course>273.04</course>
  <speed>0.0</speed>
  <fix>3d</fix>
</trkpt>
<trkpt lat="40.072842" lon="-105.230575">
  <ele>1586.09</ele>
  <time>2026-08-28T19:12:06Z</time>
  <course>18.3</course>
  <speed>0.03605551275463989</speed>
  <fix>3d</fix>
</trkpt>
<trkpt lat="40.072842" lon="-105.230575">
  <ele>1586.09</ele>
  <time>2026-08-28T19:12:06Z</time>
  <course>273.04</course>
  <speed>0.0</speed>
  <fix>3d</fix>
</trkpt>
<trkpt lat="40.072842" lon="-105.230575">
  <ele>1586.09</ele>
  <time>2026-08-28T19:12:06Z</time>
  <course>18.3</course>
  <speed>0.03605551275463989</speed>
  <fix>3d</fix>
</trkpt>
<trkpt lat="40.072842" lon="-105.230575">
  <ele>1586.09</ele>
  <time>2026-08-28T19:12:06Z</time>
  <course>273.04</course>
  <speed>0.0</speed>
  <fix>3d</fix>
</trkpt>
<trkpt lat="40.072842" lon="-105.230575">
  <ele>1586.09</ele>
  <time>2026-08-28T19:12:06Z</time>
  <course>18.3</course>
  <speed>0.03605551275463989</speed>
  <fix>3d</fix>
</trkpt>
<trkpt lat="40.072842" lon="-105.230575">
  <ele>1586.09</ele>
  <time>2026-08-28T19:12:06Z</time>
  <course>273.04</course>
  <speed>0.0</speed>
  <fix>3d</fix>
</trkpt>
<trkpt lat="40.072842" lon="-105.230575">
  <ele>1586.09</ele>
  <time>2026-08-28T19:12:06Z</time>
  <course>18.29</course>
  <speed>0.03605551275463989</speed>
  <fix>3d</fix>
</trkpt>
<trkpt lat="40.072842" lon="-105.230575">
  <ele>1586.09</ele>
  <time>2026-08-28T19:12:06Z</time>
  <course>273.04</course>
  <speed>0.0</speed>
  <fix>3d</fix>
</trkpt>
<trkpt lat="40.072842" lon="-105.230575">
  <ele>1586.09</ele>
  <time>2026-08-28T19:12:06Z</time>
  <course>18.29</course>
  <speed>0.03605551275463989</speed>
  <fix>3d</fix>
</trkpt>
<trkpt lat="40.072842" lon="-105.230575">
  <ele>1586.09</ele>
  <time>2026-08-28T19:12:06Z</time>
  <course>273.04</course>
  <speed>0.0</speed>
  <fix>3d</fix>
</trkpt>
<trkpt lat="40.072842" lon="-105.230575">
  <ele>1586.09</ele>
  <time>2026-08-28T19:12:06Z</time>
  <course>18.29</course>
  <speed>0.03605551275463989</speed>
  <fix>3d</fix>
</trkpt>
<trkpt lat="40.072842" lon="-105.230575">
  <ele>1586.09</ele>
  <time>2026-08-28T19:12:06Z</time>
  <course>273.04</course>
  <speed>0.0</speed>
  <fix>3d</fix>
</trkpt>
<trkpt lat="40.072842" lon="-105.230575">
  <ele>1586.09</ele>
  <time>2026-08-28T19:12:06Z</time>
  <course>18.28</course>
  <speed>0.03605551275463989</speed>
  <fix>3d</fix>
</trkpt>
<trkpt lat="40.072842" lon="-105.230575">
  <ele>1586.09</ele>
  <time>2026-08-28T19:12:06Z</time>
  <course>273.04</course>
  <speed>0.0</speed>
  <fix>3d</fix>
</trkpt>
<trkpt lat="40.072842" lon="-105.230575">
  <ele>1586.09</ele>
  <time>2026-08-28T19:12:06Z</time>
  <course>18.28</course>
  <speed>0.03605551275463989</speed>
  <fix>3d</fix>
</trkpt>
<trkpt lat="40.072842" lon="-105.230575">
  <ele>1586.09</ele>
  <time>2026-08-28T19:12:06Z</time>
  <course>273.04</course>
  <speed>0.0</speed>
  <fix>3d</fix>
</trkpt>
<trkpt lat="40.072842" lon="-105.230575">
  <ele>1586.09</ele>
  <time>2026-08-28T19:12:06Z</time>
  <course>18.27</course>
  <speed>0.044721359549995794</speed>
  <fix>3d</fix>
</trkpt>
<trkpt lat="40.072842" lon="-105.230575">
  <ele>1586.09</ele>
  <time>2026-08-28T19:12:06Z</time>
  <course>273.04</course>
  <speed>0.0</speed>
  <fix>3d</fix>
</trkpt>
<trkpt lat="40.072842" lon="-105.230575">
  <ele>1586.09</ele>
  <time>2026-08-28T19:12:06Z</time>
  <course>18.27</course>
  <speed>0.044721359549995794</speed>
  <fix>3d</fix>
</trkpt>
<trkpt lat="40.072842" lon="-105.230575">
  <ele>1586.09</ele>
  <time>2026-08-28T19:12:06Z</time>
  <course>273.04</course>
  <speed>0.0</speed>
  <fix>3d</fix>
</trkpt>
<trkpt lat="40.072842" lon="-105.230575">
  <ele>1586.09</ele>
  <time>2026-08-28T19:12:06Z</time>
  <course>18.27</course>
  <speed>0.044721359549995794</speed>
  <fix>3d</fix>
</trkpt>
<trkpt lat="40.072842" lon="-105.230575">
  <ele>1586.09</ele>
  <time>2026-08-28T19:12:06Z</time>
  <course>273.04</course>
  <speed>0.0</speed>
  <fix>3d</fix>
</trkpt>
<trkpt lat="40.072842" lon="-105.230575">
  <ele>1586.09</ele>
  <time>2026-08-28T19:12:06Z</time>
  <course>18.26</course>
  <speed>0.044721359549995794</speed>
  <fix>3d</fix>
</trkpt>
<trkpt lat="40.072842" lon="-105.230575">
  <ele>1586.09</ele>
  <time>2026-08-28T19:12:06Z</time>
  <course>273.04</course>
  <speed>0.0</speed>
  <fix>3d</fix>
</trkpt>
<trkpt lat="40.072842" lon="-105.230575">
  <ele>1586.09</ele>
  <time>2026-08-28T19:12:06Z</time>
  <course>18.26</course>
  <speed>0.044721359549995794</speed>
  <fix>3d</fix>
</trkpt>
<trkpt lat="40.072842" lon="-105.230575">
  <ele>1586.09</ele>
  <time>2026-08-28T19:12:06Z</time>
  <course>273.04</course>
  <speed>0.0</speed>
  <fix>3d</fix>
</trkpt>
<trkpt lat="40.072842" lon="-105.230575">
  <ele>1586.09</ele>
  <time>2026-08-28T19:12:06Z</time>
  <course>18.26</course>
  <speed>0.044721359549995794</speed>
  <fix>3d</fix>
</trkpt>
<trkpt lat="40.072842" lon="-105.230575">
  <ele>1586.09</ele>
  <time>2026-08-28T19:12:06Z</time>
  <course>273.04</course>
  <speed>0.0</speed>
  <fix>3d</fix>
</trkpt>
<trkpt lat="40.072842" lon="-105.230575">
  <ele>1586.09</ele>
  <time>2026-08-28T19:12:06Z</time>
  <course>18.25</course>
  <speed>0.044721359549995794</speed>
  <fix>3d</fix>
</trkpt>
<trkpt lat="40.072842" lon="-105.230575">
  <ele>1586.09</ele>
  <time>2026-08-28T19:12:06Z</time>
  <course>273.04</course>
  <speed>0.0</speed>
  <fix>3d</fix>
</trkpt>
<trkpt lat="40.072842" lon="-105.230575">
  <ele>1586.09</ele>
  <time>2026-08-28T19:12:06Z</time>
  <course>18.25</course>
  <speed>0.044721359549995794</speed>
  <fix>3d</fix>
</trkpt>
<trkpt lat="40.072842" lon="-105.230575">
  <ele>1586.09</ele>
  <time>2026-08-28T19:12:06Z</time>
  <course>273.04</course>
  <speed>0.0</speed>
  <fix>3d</fix>
</trkpt>
<trkpt lat="40.072842" lon="-105.230575">
  <ele>1586.09</ele>
  <time>2026-08-28T19:12:06Z</time>
  <course>18.25</course>
  <speed>0.044721359549995794</speed>
  <fix>3d</fix>
</trkpt>
<trkpt lat="40.072842" lon="-105.230575">
  <ele>1586.09</ele>
  <time>2026-08-28T19:12:06Z</time>
  <course>273.04</course>
  <speed>0.0</speed>
  <fix>3d</fix>
</trkpt>
<trkpt lat="40.072842" lon="-105.230575">
  <ele>1586.09</ele>
  <time>2026-08-28T19:12:06Z</time>
  <course>18.24</course>
  <speed>0.044721359549995794</speed>
  <fix>3d</fix>
</trkpt>
<trkpt lat="40.072842" lon="-105.230575">
  <ele>1586.09</ele>
  <time>2026-08-28T19:12:06Z</time>
  <course>273.04</course>
  <speed>0.0</speed>
  <fix>3d</fix>
</trkpt>
<trkpt lat="40.072842" lon="-105.230575">
  <ele>1586.09</ele>
  <time>2026-08-28T19:12:06Z</time>
  <course>18.24</course>
  <speed>0.044721359549995794</speed>
  <fix>3d</fix>
</trkpt>
<trkpt lat="40.072842" lon="-105.230575">
  <ele>1586.09</ele>
  <time>2026-08-28T19:12:06Z</time>
  <course>273.04</course>
  <speed>0.0</speed>
  <fix>3d</fix>
</trkpt>
<trkpt lat="40.072842" lon="-105.230575">
  <ele>1586.09</ele>
  <time>2026-08-28T19:12:06Z</time>
  <course>18.24</course>
  <speed>0.044721359549995794</speed>
  <fix>3d</fix>
</trkpt>
<trkpt lat="40.072842" lon="-105.230575">
  <ele>1586.09</ele>
  <time>2026-08-28T19:12:06Z</time>
  <course>273.04</course>
  <speed>0.0</speed>
  <fix>3d</fix>
</trkpt>
<trkpt lat="40.072842" lon="-105.230575">
  <ele>1586.09</ele>
  <time>2026-08-28T19:12:06Z</time>
  <course>18.24</course>
  <speed>0.044721359549995794</speed>
  <fix>3d</fix>
</trkpt>
<trkpt lat="40.072842" lon="-105.230575">
  <ele>1586.09</ele>
  <time>2026-08-28T19:12:06Z</time>
  <course>273.04</course>
  <speed>0.0</speed>
  <fix>3d</fix>
</trkpt>
<trkpt lat="40.072842" lon="-105.230575">
  <ele>1586.09</ele>
  <time>2026-08-28T19:12:06Z</time>
  <course>18.23</course>
  <speed>0.044721359549995794</speed>
  <fix>3d</fix>
</trkpt>
<trkpt lat="40.072842" lon="-105.230575">
  <ele>1586.09</ele>
  <time>2026-08-28T19:12:06Z</time>
  <course>273.04</course>
  <speed>0.0</speed>
  <fix>3d</fix>
</trkpt>
<trkpt lat="40.072842" lon="-105.230575">
  <ele>1586.09</ele>
  <time>2026-08-28T19:12:06Z</time>
  <course>18.23</course>
  <speed>0.044721359549995794</speed>
  <fix>3d</fix>
</trkpt>
<trkpt lat="40.072842" lon="-105.230575">
  <ele>1586.09</ele>
  <time>2026-08-28T19:12:06Z</time>
  <course>273.04</course>
  <speed>0.0</speed>
  <fix>3d</fix>
</trkpt>
<trkpt lat="40.072842" lon="-105.230575">
  <ele>1586.09</ele>
  <time>2026-08-28T19:12:06Z</time>
  <course>18.23</course>
  <speed>0.044721359549995794</speed>
  <fix>3d</fix>
</trkpt>
<trkpt lat="40.072842" lon="-105.230575">
  <ele>1586.09</ele>
  <time>2026-08-28T19:12:06Z</time>
  <course>273.04</course>
  <speed>0.0</speed>
  <fix>3d</fix>
</trkpt>
<trkpt lat="40.072842" lon="-105.230575">
  <ele>1586.09</ele>
  <time>2026-08-28T19:12:06Z</time>
  <course>18.22</course>
  <speed>0.044721359549995794</speed>
  <fix>3d</fix>
</trkpt>
<trkpt lat="40.072842" lon="-105.230575">
  <ele>1586.09</ele>
  <time>2026-08-28T19:12:06Z</time>
  <course>273.04</course>
  <speed>0.0</speed>
  <fix>3d</fix>
</trkpt>
<trkpt lat="40.072842" lon="-105.230575">
  <ele>1586.09</ele>
  <time>2026-08-28T19:12:06Z</time>
  <course>18.22</course>
  <speed>0.044721359549995794</speed>
  <fix>3d</fix>
</trkpt>
<trkpt lat="40.072842" lon="-105.230575">
  <ele>1586.09</ele>
  <time>2026-08-28T19:12:06Z</time>
  <course>273.04</course>
  <speed>0.0</speed>
  <fix>3d</fix>
</trkpt>
<trkpt lat="40.072842" lon="-105.230575">
  <ele>1586.09</ele>
  <time>2026-08-28T19:12:06Z</time>
  <course>18.22</course>
  <speed>0.044721359549995794</speed>
  <fix>3d</fix>
</trkpt>
<trkpt lat="40.072842" lon="-105.230575">
  <ele>1586.09</ele>
  <time>2026-08-28T19:12:06Z</time>
  <course>273.04</course>
  <speed>0.0</speed>
  <fix>3d</fix>
</trkpt>
<trkpt lat="40.072842" lon="-105.230575">
  <ele>1586.17</ele>
  <time>2026-08-28T19:12:06Z</time>
  <course>18.21</course>
  <speed>0.0</speed>
  <fix>3d</fix>
</trkpt>
<trkpt lat="40.072842" lon="-105.230575">
  <ele>1586.09</ele>
  <time>2026-08-28T19:12:06Z</time>
  <course>273.04</course>
  <speed>0.0</speed>
  <fix>3d</fix>
</trkpt>
<trkpt lat="40.072842" lon="-105.230575">
  <ele>1586.17</ele>
  <time>2026-08-28T19:12:06Z</time>
  <course>18.21</course>
  <speed>0.0</speed>
  <fix>3d</fix>
</trkpt>
<trkpt lat="40.072842" lon="-105.230575">
  <ele>1586.09</ele>
  <time>2026-08-28T19:12:06Z</time>
  <course>273.04</course>
  <speed>0.0</speed>
  <fix>3d</fix>
</trkpt>
<trkpt lat="40.072842" lon="-105.230575">
  <ele>1586.18</ele>
  <time>2026-08-28T19:12:06Z</time>
  <course>18.21</course>
  <speed>0.0</speed>
  <fix>3d</fix>
</trkpt>
<trkpt lat="40.072842" lon="-105.230575">
  <ele>1586.09</ele>
  <time>2026-08-28T19:12:06Z</time>
  <course>284.79</course>
  <speed>0.0</speed>
  <fix>3d</fix>
</trkpt>
<trkpt lat="40.072842" lon="-105.230575">
  <ele>1586.18</ele>
  <time>2026-08-28T19:12:06Z</time>
  <course>18.21</course>
  <speed>0.0</speed>
  <fix>3d</fix>
</trkpt>
<trkpt lat="40.072842" lon="-105.230575">
  <ele>1586.09</ele>
  <time>2026-08-28T19:12:06Z</time>
  <course>274.56</course>
  <speed>0.0</speed>
  <fix>3d</fix>
</trkpt>
<trkpt lat="40.072842" lon="-105.230575">
  <ele>1586.18</ele>
  <time>2026-08-28T19:12:06Z</time>
  <course>18.21</course>
  <speed>0.0</speed>
  <fix>3d</fix>
</trkpt>
<trkpt lat="40.072842" lon="-105.230575">
  <ele>1586.09</ele>
  <time>2026-08-28T19:12:06Z</time>
  <course>205.11</course>
  <speed>0.0</speed>
  <fix>3d</fix>
</trkpt>
<trkpt lat="40.072842" lon="-105.230575">
  <ele>1586.17</ele>
  <time>2026-08-28T19:12:06Z</time>
  <course>18.2</course>
  <speed>0.01</speed>
  <fix>3d</fix>
</trkpt>
<trkpt lat="40.072842" lon="-105.230575">
  <ele>1586.09</ele>
  <time>2026-08-28T19:12:06Z</time>
  <course>79.54</course>
  <speed>0.0</speed>
  <fix>3d</fix>
</trkpt>
<trkpt lat="40.072842" lon="-105.230575">
  <ele>1586.17</ele>
  <time>2026-08-28T19:12:06Z</time>
  <course>18.2</course>
  <speed>0.01</speed>
  <fix>3d</fix>
</trkpt>
<trkpt lat="40.072842" lon="-105.230575">
  <ele>1586.09</ele>
  <time>2026-08-28T19:12:06Z</time>
  <course>286.98</course>
  <speed>0.0</speed>
  <fix>3d</fix>
</trkpt>
<trkpt lat="40.072842" lon="-105.230575">
  <ele>1586.17</ele>
  <time>2026-08-28T19:12:06Z</time>
  <course>18.2</course>
  <speed>0.01</speed>
  <fix>3d</fix>
</trkpt>
<trkpt lat="40.072842" lon="-105.230575">
  <ele>1586.09</ele>
  <time>2026-08-28T19:12:06Z</time>
  <course>268.78</course>
  <speed>0.0</speed>
  <fix>3d</fix>
</trkpt>
<trkpt lat="40.072842" lon="-105.230575">
  <ele>1586.17</ele>
  <time>2026-08-28T19:12:06Z</time>
  <course>18.19</course>
  <speed>0.01</speed>
  <fix>3d</fix>
</trkpt>
<trkpt lat="40.072842" lon="-105.230575">
  <ele>1586.09</ele>
  <time>2026-08-28T19:12:06Z</time>
  <course>271.02</course>
  <speed>0.0</speed>
  <fix>3d</fix>
</trkpt>
<trkpt lat="40.072842" lon="-105.230575">
  <ele>1586.17</ele>
  <time>2026-08-28T19:12:06Z</time>
  <course>18.19</course>
  <speed>0.01</speed>
  <fix>3d</fix>
</trkpt>
<trkpt lat="40.072842" lon="-105.230575">
  <ele>1586.09</ele>
  <time>2026-08-28T19:12:06Z</time>
  <course>274.07</course>
  <speed>0.0</speed>
  <fix>3d</fix>
</trkpt>
<trkpt lat="40.072842" lon="-105.230575">
  <ele>1586.18</ele>
  <time>2026-08-28T19:12:06Z</time>
  <course>18.19</course>
  <speed>0.022360679774997897</speed>
  <fix>3d</fix>
</trkpt>
<trkpt lat="40.072842" lon="-105.230575">
  <ele>1586.09</ele>
  <time>2026-08-28T19:12:06Z</time>
  <course>273.17</course>
  <speed>0.0</speed>
  <fix>3d</fix>
</trkpt>
<trkpt lat="40.072842" lon="-105.230575">
  <ele>1586.18</ele>
  <time>2026-08-28T19:12:06Z</time>
  <course>18.19</course>
  <speed>0.022360679774997897</speed>
  <fix>3d</fix>
</trkpt>
<trkpt lat="40.072842" lon="-105.230575">
  <ele>1586.09</ele>
  <time>2026-08-28T19:12:06Z</time>
  <course>272.89</course>
  <speed>0.0</speed>
  <fix>3d</fix>
</trkpt>
<trkpt lat="40.072842" lon="-105.230575">
  <ele>1586.18</ele>
  <time>2026-08-28T19:12:06Z</time>
  <course>18.19</course>
  <speed>0.022360679774997897</speed>
  <fix>3d</fix>
</trkpt>
<trkpt lat="40.072842" lon="-105.230575">
  <ele>1586.09</ele>
  <time>2026-08-28T19:12:06Z</time>
  <course>265.5</course>
  <speed>0.0</speed>
  <fix>3d</fix>
</trkpt>
<trkpt lat="40.072842" lon="-105.230575">
  <ele>1586.18</ele>
  <time>2026-08-28T19:12:06Z</time>
  <course>18.19</course>
  <speed>0.022360679774997897</speed>
  <fix>3d</fix>
</trkpt>
<trkpt lat="40.072842" lon="-105.230575">
  <ele>1586.09</ele>
  <time>2026-08-28T19:12:06Z</time>
  <course>271.06</course>
  <speed>0.0</speed>
  <fix>3d</fix>
</trkpt>
<trkpt lat="40.0728419" lon="-105.230575">
  <ele>1586.18</ele>
  <time>2026-08-28T19:12:06Z</time>
  <course>18.19</course>
  <speed>0.022360679774997897</speed>
  <fix>3d</fix>
</trkpt>
<trkpt lat="40.072842" lon="-105.230575">
  <ele>1586.09</ele>
  <time>2026-08-28T19:12:06Z</time>
  <course>275.41</course>
  <speed>0.0</speed>
  <fix>3d</fix>
</trkpt>
<trkpt lat="40.0728419" lon="-105.230575">
  <ele>1586.17</ele>
  <time>2026-08-28T19:12:06Z</time>
  <course>18.18</course>
  <speed>0.022360679774997897</speed>
  <fix>3d</fix>
</trkpt>
<trkpt lat="40.072842" lon="-105.230575">
  <ele>1586.09</ele>
  <time>2026-08-28T19:12:06Z</time>
  <course>271.13</course>
  <speed>0.0</speed>
  <fix>3d</fix>
</trkpt>
<trkpt lat="40.0728419" lon="-105.230575">
  <ele>1586.17</ele>
  <time>2026-08-28T19:12:06Z</time>
  <course>18.18</course>
  <speed>0.01</speed>
  <fix>3d</fix>
</trkpt>
<trkpt lat="40.072842" lon="-105.230575">
  <ele>1586.09</ele>
  <time>2026-08-28T19:12:06Z</time>
  <course>273.1</course>
  <speed>0.0</speed>
  <fix>3d</fix>
</trkpt>
<trkpt lat="40.072842" lon="-105.230575">
  <ele>1586.17</ele>
  <time>2026-08-28T19:12:06Z</time>
  <course>18.18</course>
  <speed>0.01</speed>
  <fix>3d</fix>
</trkpt>
<trkpt lat="40.072842" lon="-105.230575">
  <ele>1586.09</ele>
  <time>2026-08-28T19:12:06Z</time>
  <course>273.29</course>
  <speed>0.0</speed>
  <fix>3d</fix>
</trkpt>
<trkpt lat="40.072842" lon="-105.230575">
  <ele>1586.17</ele>
  <time>2026-08-28T19:12:06Z</time>
  <course>18.17</course>
  <speed>0.0</speed>
  <fix>3d</fix>
</trkpt>
<trkpt lat="40.072842" lon="-105.230575">
  <ele>1586.09</ele>
  <time>2026-08-28T19:12:06Z</time>
  <course>273.0</course>
  <speed>0.0</speed>
  <fix>3d</fix>
</trkpt>
<trkpt lat="40.072842" lon="-105.230575">
  <ele>1586.17</ele>
  <time>2026-08-28T19:12:06Z</time>
  <course>18.17</course>
  <speed>0.0</speed>
  <fix>3d</fix>
</trkpt>
<trkpt lat="40.072842" lon="-105.230575">
  <ele>1586.09</ele>
  <time>2026-08-28T19:12:06Z</time>
  <course>273.01</course>
  <speed>0.0</speed>
  <fix>3d</fix>
</trkpt>
<trkpt lat="40.072842" lon="-105.230575">
  <ele>1586.17</ele>
  <time>2026-08-28T19:12:06Z</time>
  <course>18.17</course>
  <speed>0.0</speed>
  <fix>3d</fix>
</trkpt>
<trkpt lat="40.072842" lon="-105.230575">
  <ele>1586.09</ele>
  <time>2026-08-28T19:12:06Z</time>
  <course>273.05</course>
  <speed>0.0</speed>
  <fix>3d</fix>
</trkpt>
<trkpt lat="40.072842" lon="-105.230575">
  <ele>1586.17</ele>
  <time>2026-08-28T19:12:06Z</time>
  <course>18.17</course>
  <speed>0.0</speed>
  <fix>3d</fix>
</trkpt>
<trkpt lat="40.072842" lon="-105.230575">
  <ele>1586.09</ele>
  <time>2026-08-28T19:12:06Z</time>
  <course>273.04</course>
  <speed>0.0</speed>
  <fix>3d</fix>
</trkpt>
<trkpt lat="40.072842" lon="-105.230575">
  <ele>1586.17</ele>
  <time>2026-08-28T19:12:06Z</time>
  <course>18.16</course>
  <speed>0.0</speed>
  <fix>3d</fix>
</trkpt>
<trkpt lat="40.072842" lon="-105.230575">
  <ele>1586.09</ele>
  <time>2026-08-28T19:12:06Z</time>
  <course>327.99</course>
  <speed>0.0</speed>
  <fix>3d</fix>
</trkpt>
<trkpt lat="40.072842" lon="-105.230575">
  <ele>1586.17</ele>
  <time>2026-08-28T19:12:06Z</time>
  <course>18.16</course>
  <speed>0.0</speed>
  <fix>3d</fix>
</trkpt>
<trkpt lat="40.072842" lon="-105.230575">
  <ele>1586.09</ele>
  <time>2026-08-28T19:12:06Z</time>
  <course>321.08</course>
  <speed>0.0</speed>
  <fix>3d</fix>
</trkpt>
<trkpt lat="40.072842" lon="-105.230575">
  <ele>1586.17</ele>
  <time>2026-08-28T19:12:06Z</time>
  <course>18.16</course>
  <speed>0.0</speed>
  <fix>3d</fix>
</trkpt>
<trkpt lat="40.072842" lon="-105.230575">
  <ele>1586.09</ele>
  <time>2026-08-28T19:12:06Z</time>
  <course>202.92</course>
  <speed>0.0</speed>
  <fix>3d</fix>
</trkpt>
<trkpt lat="40.072842" lon="-105.230575">
  <ele>1586.17</ele>
  <time>2026-08-28T19:12:06Z</time>
  <course>18.15</course>
  <speed>0.0</speed>
  <fix>3d</fix>
</trkpt>
<trkpt lat="40.072842" lon="-105.230575">
  <ele>1586.09</ele>
  <time>2026-08-28T19:12:06Z</time>
  <course>164.07</course>
  <speed>0.0</speed>
  <fix>3d</fix>
</trkpt>
<trkpt lat="40.072842" lon="-105.230575">
  <ele>1586.17</ele>
  <time>2026-08-28T19:12:06Z</time>
  <course>18.15</course>
  <speed>0.0</speed>
  <fix>3d</fix>
</trkpt>
<trkpt lat="40.072842" lon="-105.230575">
  <ele>1586.09</ele>
  <time>2026-08-28T19:12:06Z</time>
  <course>309.26</course>
  <speed>0.0</speed>
  <fix>3d</fix>
</trkpt>
<trkpt lat="40.072842" lon="-105.230575">
  <ele>1586.17</ele>
  <time>2026-08-28T19:12:06Z</time>
  <course>18.14</course>
  <speed>0.0</speed>
  <fix>3d</fix>
</trkpt>
<trkpt lat="40.072842" lon="-105.230575">
  <ele>1586.09</ele>
  <time>2026-08-28T19:12:06Z</time>
  <course>276.05</course>
  <speed>0.0</speed>
  <fix>3d</fix>
</trkpt>
<trkpt lat="40.072842" lon="-105.230575">
  <ele>1586.17</ele>
  <time>2026-08-28T19:12:06Z</time>
  <course>18.13</course>
  <speed>0.0</speed>
  <fix>3d</fix>
</trkpt>
<trkpt lat="40.072842" lon="-105.230575">
  <ele>1586.09</ele>
  <time>2026-08-28T19:12:06Z</time>
  <course>268.43</course>
  <speed>0.0</speed>
  <fix>3d</fix>
</trkpt>
<trkpt lat="40.072842" lon="-105.230575">
  <ele>1586.18</ele>
  <time>2026-08-28T19:12:06Z</time>
  <course>18.12</course>
  <speed>0.0</speed>
  <fix>3d</fix>
</trkpt>
<trkpt lat="40.072842" lon="-105.230575">
  <ele>1586.09</ele>
  <time>2026-08-28T19:12:06Z</time>
  <course>162.1</course>
  <speed>0.0</speed>
  <fix>3d</fix>
</trkpt>
<trkpt lat="40.072842" lon="-105.230575">
  <ele>1586.18</ele>
  <time>2026-08-28T19:12:06Z</time>
  <course>18.11</course>
  <speed>0.0</speed>
  <fix>3d</fix>
</trkpt>
<trkpt lat="40.072842" lon="-105.230575">
  <ele>1586.09</ele>
  <time>2026-08-28T19:12:06Z</time>
  <course>354.47</course>
  <speed>0.0</speed>
  <fix>3d</fix>
</trkpt>
<trkpt lat="40.072842" lon="-105.230575">
  <ele>1586.18</ele>
  <time>2026-08-28T19:12:06Z</time>
  <course>18.1</course>
  <speed>0.0</speed>
  <fix>3d</fix>
</trkpt>
<trkpt lat="40.072842" lon="-105.230575">
  <ele>1586.09</ele>
  <time>2026-08-28T19:12:06Z</time>
  <course>332.91</course>
  <speed>0.0</speed>
  <fix>3d</fix>
</trkpt>
<trkpt lat="40.072842" lon="-105.230575">
  <ele>1586.18</ele>
  <time>2026-08-28T19:12:06Z</time>
  <course>18.09</course>
  <speed>0.0</speed>
  <fix>3d</fix>
</trkpt>
<trkpt lat="40.072842" lon="-105.230575">
  <ele>1586.09</ele>
  <time>2026-08-28T19:12:06Z</time>
  <course>289.78</course>
  <speed>0.0</speed>
  <fix>3d</fix>
</trkpt>
<trkpt lat="40.072842" lon="-105.230575">
  <ele>1586.18</ele>
  <time>2026-08-28T19:12:06Z</time>
  <course>18.08</course>
  <speed>0.0</speed>
  <fix>3d</fix>
</trkpt>
<trkpt lat="40.072842" lon="-105.230575">
  <ele>1586.09</ele>
  <time>2026-08-28T19:12:06Z</time>
  <course>261.11</course>
  <speed>0.0</speed>
  <fix>3d</fix>
</trkpt>
<trkpt lat="40.072842" lon="-105.230575">
  <ele>1586.18</ele>
  <time>2026-08-28T19:12:06Z</time>
  <course>18.06</course>
  <speed>0.0</speed>
  <fix>3d</fix>
</trkpt>
<trkpt lat="40.072842" lon="-105.230575">
  <ele>1586.09</ele>
  <time>2026-08-28T19:12:06Z</time>
  <course>265.1</course>
  <speed>0.0</speed>
  <fix>3d</fix>
</trkpt>
<trkpt lat="40.072842" lon="-105.230575">
  <ele>1586.18</ele>
  <time>2026-08-28T19:12:06Z</time>
  <course>18.04</course>
  <speed>0.0</speed>
  <fix>3d</fix>
</trkpt>
<trkpt lat="40.072842" lon="-105.230575">
  <ele>1586.09</ele>
  <time>2026-08-28T19:12:06Z</time>
  <course>70.18</course>
  <speed>0.0</speed>
  <fix>3d</fix>
</trkpt>
<trkpt lat="40.072842" lon="-105.230575">
  <ele>1586.18</ele>
  <time>2026-08-28T19:12:06Z</time>
  <course>18.02</course>
  <speed>0.0</speed>
  <fix>3d</fix>
</trkpt>
<trkpt lat="40.072842" lon="-105.230575">
  <ele>1586.09</ele>
  <time>2026-08-28T19:12:06Z</time>
  <course>319.25</course>
  <speed>0.0</speed>
  <fix>3d</fix>
</trkpt>
<trkpt lat="40.072842" lon="-105.230575">
  <ele>1586.18</ele>
  <time>2026-08-28T19:12:06Z</time>
  <course>18.0</course>
  <speed>0.0</speed>
  <fix>3d</fix>
</trkpt>
<trkpt lat="40.072842" lon="-105.230575">
  <ele>1586.09</ele>
  <time>2026-08-28T19:12:06Z</time>
  <course>324.11</course>
  <speed>0.0</speed>
  <fix>3d</fix>
</trkpt>
<trkpt lat="40.072842" lon="-105.230575">
  <ele>1586.18</ele>
  <time>2026-08-28T19:12:06Z</time>
  <course>17.98</course>
  <speed>0.0</speed>
  <fix>3d</fix>
</trkpt>
<trkpt lat="40.072842" lon="-105.230575">
  <ele>1586.09</ele>
  <time>2026-08-28T19:12:06Z</time>
  <course>298.12</course>
  <speed>0.0</speed>
  <fix>3d</fix>
</trkpt>
<trkpt lat="40.072842" lon="-105.230575">
  <ele>1586.18</ele>
  <time>2026-08-28T19:12:06Z</time>
  <course>17.96</course>
  <speed>0.0</speed>
  <fix>3d</fix>
</trkpt>
<trkpt lat="40.072842" lon="-105.230575">
  <ele>1586.09</ele>
  <time>2026-08-28T19:12:06Z</time>
  <course>261.51</course>
  <speed>0.0</speed>
  <fix>3d</fix>
</trkpt>
<trkpt lat="40.072842" lon="-105.230575">
  <ele>1586.18</ele>
  <time>2026-08-28T19:12:06Z</time>
  <course>17.93</course>
  <speed>0.01</speed>
  <fix>3d</fix>
</trkpt>
<trkpt lat="40.072842" lon="-105.230575">
  <ele>1586.09</ele>
  <time>2026-08-28T19:12:06Z</time>
  <course>175.81</course>
  <speed>0.0</speed>
  <fix>3d</fix>
</trkpt>
<trkpt lat="40.072842" lon="-105.230575">
  <ele>1586.18</ele>
  <time>2026-08-28T19:12:06Z</time>
  <course>17.9</course>
  <speed>0.01</speed>
  <fix>3d</fix>
</trkpt>
<trkpt lat="40.072842" lon="-105.230575">
  <ele>1586.09</ele>
  <time>2026-08-28T19:12:06Z</time>
  <course>324.52</course>
  <speed>0.0</speed>
  <fix>3d</fix>
</trkpt>
<trkpt lat="40.072842" lon="-105.230575">
  <ele>1586.18</ele>
  <time>2026-08-28T19:12:06Z</time>
  <course>17.87</course>
  <speed>0.01</speed>
  <fix>3d</fix>
</trkpt>
<trkpt lat="40.072842" lon="-105.230575">
  <ele>1586.09</ele>
  <time>2026-08-28T19:12:06Z</time>
  <course>309.43</course>
  <speed>0.0</speed>
  <fix>3d</fix>
</trkpt>
<trkpt lat="40.072842" lon="-105.230575">
  <ele>1586.18</ele>
  <time>2026-08-28T19:12:06Z</time>
  <course>17.85</course>
  <speed>0.01</speed>
  <fix>3d</fix>
</trkpt>
<trkpt lat="40.072842" lon="-105.230575">
  <ele>1586.09</ele>
  <time>2026-08-28T19:12:06Z</time>
  <course>270.09</course>
  <speed>0.0</speed>
  <fix>3d</fix>
</trkpt>
<trkpt lat="40.072842" lon="-105.230575">
  <ele>1586.18</ele>
  <time>2026-08-28T19:12:06Z</time>
  <course>17.82</course>
  <speed>0.01</speed>
  <fix>3d</fix>
</trkpt>
<trkpt lat="40.072842" lon="-105.230575">
  <ele>1586.09</ele>
  <time>2026-08-28T19:12:06Z</time>
  <course>257.85</course>
  <speed>0.0</speed>
  <fix>3d</fix>
</trkpt>
<trkpt lat="40.072842" lon="-105.230575">
  <ele>1586.18</ele>
  <time>2026-08-28T19:12:06Z</time>
  <course>17.78</course>
  <speed>0.01</speed>
  <fix>3d</fix>
</trkpt>
<trkpt lat="40.072842" lon="-105.230575">
  <ele>1586.09</ele>
  <time>2026-08-28T19:12:06Z</time>
  <course>150.9</course>
  <speed>0.0</speed>
  <fix>3d</fix>
</trkpt>
<trkpt lat="40.072842" lon="-105.230575">
  <ele>1586.18</ele>
  <time>2026-08-28T19:12:06Z</time>
  <course>17.75</course>
  <speed>0.01</speed>
  <fix>3d</fix>
</trkpt>
<trkpt lat="40.072842" lon="-105.230575">
  <ele>1586.09</ele>
  <time>2026-08-28T19:12:06Z</time>
  <course>328.18</course>
  <speed>0.0</speed>
  <fix>3d</fix>
</trkpt>
<trkpt lat="40.072842" lon="-105.230575">
  <ele>1586.18</ele>
  <time>2026-08-28T19:12:06Z</time>
  <course>17.71</course>
  <speed>0.01</speed>
  <fix>3d</fix>
</trkpt>
<trkpt lat="40.072842" lon="-105.230575">
  <ele>1586.09</ele>
  <time>2026-08-28T19:12:06Z</time>
  <course>294.22</course>
  <speed>0.0</speed>
  <fix>3d</fix>
</trkpt>
<trkpt lat="40.072842" lon="-105.230575">
  <ele>1586.18</ele>
  <time>2026-08-28T19:12:06Z</time>
  <course>17.67</course>
  <speed>0.01</speed>
  <fix>3d</fix>
</trkpt>
<trkpt lat="40.072842" lon="-105.230575">
  <ele>1586.09</ele>
  <time>2026-08-28T19:12:06Z</time>
  <course>306.59</course>
  <speed>0.0</speed>
  <fix>3d</fix>
</trkpt>
<trkpt lat="40.072842" lon="-105.230575">
  <ele>1586.17</ele>
  <time>2026-08-28T19:12:06Z</time>
  <course>17.64</course>
  <speed>0.01</speed>
  <fix>3d</fix>
</trkpt>
<trkpt lat="40.072842" lon="-105.230575">
  <ele>1586.09</ele>
  <time>2026-08-28T19:12:06Z</time>
  <course>311.33</course>
  <speed>0.0</speed>
  <fix>3d</fix>
</trkpt>
<trkpt lat="40.072842" lon="-105.230575">
  <ele>1586.17</ele>
  <time>2026-08-28T19:12:06Z</time>
  <course>17.59</course>
  <speed>0.01414213562373095</speed>
  <fix>3d</fix>
</trkpt>
<trkpt lat="40.072842" lon="-105.230575">
  <ele>1586.09</ele>
  <time>2026-08-28T19:12:06Z</time>
  <course>287.65</course>
  <speed>0.0</speed>
  <fix>3d</fix>
</trkpt>
<trkpt lat="40.0728419" lon="-105.230575">
  <ele>1586.17</ele>
  <time>2026-08-28T19:12:06Z</time>
  <course>17.55</course>
  <speed>0.022360679774997897</speed>
  <fix>3d</fix>
</trkpt>
<trkpt lat="40.072842" lon="-105.230575">
  <ele>1586.09</ele>
  <time>2026-08-28T19:12:06Z</time>
  <course>263.86</course>
  <speed>0.0</speed>
  <fix>3d</fix>
</trkpt>
<trkpt lat="40.0728419" lon="-105.230575">
  <ele>1586.17</ele>
  <time>2026-08-28T19:12:06Z</time>
  <course>17.51</course>
  <speed>0.022360679774997897</speed>
  <fix>3d</fix>
</trkpt>
<trkpt lat="40.072842" lon="-105.230575">
  <ele>1586.09</ele>
  <time>2026-08-28T19:12:06Z</time>
  <course>284.12</course>
  <speed>0.0</speed>
  <fix>3d</fix>
</trkpt>
<trkpt lat="40.0728419" lon="-105.230575">
  <ele>1586.17</ele>
  <time>2026-08-28T19:12:06Z</time>
  <course>17.46</course>
  <speed>0.022360679774997897</speed>
  <fix>3d</fix>
</trkpt>
<trkpt lat="40.072842" lon="-105.230575">
  <ele>1586.09</ele>
  <time>2026-08-28T19:12:06Z</time>
  <course>277.01</course>
  <speed>0.0</speed>
  <fix>3d</fix>
</trkpt>
<trkpt lat="40.0728419" lon="-105.230575">
  <ele>1586.17</ele>
  <time>2026-08-28T19:12:06Z</time>
  <course>17.42</course>
  <speed>0.022360679774997897</speed>
  <fix>3d</fix>
</trkpt>
<trkpt lat="40.072842" lon="-105.230575">
  <ele>1586.09</ele>
  <time>2026-08-28T19:12:06Z</time>
  <course>312.77</course>
  <speed>0.0</speed>
  <fix>3d</fix>
</trkpt>
<trkpt lat="40.0728419" lon="-105.230575">
  <ele>1586.17</ele>
  <time>2026-08-28T19:12:06Z</time>
  <course>17.37</course>
  <speed>0.022360679774997897</speed>
  <fix>3d</fix>
</trkpt>
<trkpt lat="40.072842" lon="-105.230575">
  <ele>1586.09</ele>
  <time>2026-08-28T19:12:06Z</time>
  <course>316.49</course>
  <speed>0.0</speed>
  <fix>3d</fix>
</trkpt>
<trkpt lat="40.0728419" lon="-105.230575">
  <ele>1586.17</ele>
  <time>2026-08-28T19:12:06Z</time>
  <course>17.32</course>
  <speed>0.022360679774997897</speed>
  <fix>3d</fix>
</trkpt>
<trkpt lat="40.072842" lon="-105.230575">
  <ele>1586.09</ele>
  <time>2026-08-28T19:12:06Z</time>
  <course>267.26</course>
  <speed>0.0</speed>
  <fix>3d</fix>
</trkpt>
<trkpt lat="40.0728419" lon="-105.230575">
  <ele>1586.18</ele>
  <time>2026-08-28T19:12:06Z</time>
  <course>17.27</course>
  <speed>0.022360679774997897</speed>
  <fix>3d</fix>
</trkpt>
<trkpt lat="40.072842" lon="-105.230575">
  <ele>1586.09</ele>
  <time>2026-08-28T19:12:06Z</time>
  <course>275.62</course>
  <speed>0.0</speed>
  <fix>3d</fix>
</trkpt>
<trkpt lat="40.0728419" lon="-105.230575">
  <ele>1586.18</ele>
  <time>2026-08-28T19:12:06Z</time>
  <course>17.22</course>
  <speed>0.022360679774997897</speed>
  <fix>3d</fix>
</trkpt>
<trkpt lat="40.072842" lon="-105.230575">
  <ele>1586.09</ele>
  <time>2026-08-28T19:12:06Z</time>
  <course>274.67</course>
  <speed>0.0</speed>
  <fix>3d</fix>
</trkpt>
<trkpt lat="40.0728419" lon="-105.2305749">
  <ele>1586.18</ele>
  <time>2026-08-28T19:12:06Z</time>
  <course>17.16</course>
  <speed>0.022360679774997897</speed>
  <fix>3d</fix>
</trkpt>
<trkpt lat="40.072842" lon="-105.230575">
  <ele>1586.09</ele>
  <time>2026-08-28T19:12:06Z</time>
  <course>274.54</course>
  <speed>0.0</speed>
  <fix>3d</fix>
</trkpt>
<trkpt lat="40.0728419" lon="-105.2305749">
  <ele>1586.18</ele>
  <time>2026-08-28T19:12:06Z</time>
  <course>17.1</course>
  <speed>0.022360679774997897</speed>
  <fix>3d</fix>
</trkpt>
<trkpt lat="40.072842" lon="-105.230575">
  <ele>1586.09</ele>
  <time>2026-08-28T19:12:06Z</time>
  <course>314.41</course>
  <speed>0.0</speed>
  <fix>3d</fix>
</trkpt>
<trkpt lat="40.0728419" lon="-105.2305749">
  <ele>1586.18</ele>
  <time>2026-08-28T19:12:06Z</time>
  <course>17.05</course>
  <speed>0.022360679774997897</speed>
  <fix>3d</fix>
</trkpt>
<trkpt lat="40.072842" lon="-105.230575">
  <ele>1586.09</ele>
  <time>2026-08-28T19:12:06Z</time>
  <course>304.61</course>
  <speed>0.0</speed>
  <fix>3d</fix>
</trkpt>
<trkpt lat="40.0728419" lon="-105.2305749">
  <ele>1586.18</ele>
  <time>2026-08-28T19:12:06Z</time>
  <course>16.99</course>
  <speed>0.022360679774997897</speed>
  <fix>3d</fix>
</trkpt>
<trkpt lat="40.072842" lon="-105.230575">
  <ele>1586.09</ele>
  <time>2026-08-28T19:12:06Z</time>
  <course>278.28</course>
  <speed>0.0</speed>
  <fix>3d</fix>
</trkpt>
<trkpt lat="40.0728419" lon="-105.2305749">
  <ele>1586.18</ele>
  <time>2026-08-28T19:12:06Z</time>
  <course>16.93</course>
  <speed>0.022360679774997897</speed>
  <fix>3d</fix>
</trkpt>
<trkpt lat="40.072842" lon="-105.230575">
  <ele>1586.09</ele>
  <time>2026-08-28T19:12:06Z</time>
  <course>276.66</course>
  <speed>0.0</speed>
  <fix>3d</fix>
</trkpt>
<trkpt lat="40.0728419" lon="-105.2305749">
  <ele>1586.18</ele>
  <time>2026-08-28T19:12:06Z</time>
  <course>16.86</course>
  <speed>0.022360679774997897</speed>
  <fix>3d</fix>
</trkpt>
<trkpt lat="40.072842" lon="-105.230575">
  <ele>1586.09</ele>
  <time>2026-08-28T19:12:06Z</time>
  <course>272.45</course>
  <speed>0.0</speed>
  <fix>3d</fix>
</trkpt>
<trkpt lat="40.0728419" lon="-105.2305749">
  <ele>1586.18</ele>
  <time>2026-08-28T19:12:06Z</time>
  <course>16.8</course>
  <speed>0.022360679774997897</speed>
  <fix>3d</fix>
</trkpt>
<trkpt lat="40.072842" lon="-105.230575">
  <ele>1586.09</ele>
  <time>2026-08-28T19:12:06Z</time>
  <course>287.1</course>
  <speed>0.0</speed>
  <fix>3d</fix>
</trkpt>
<trkpt lat="40.0728419" lon="-105.2305749">
  <ele>1586.17</ele>
  <time>2026-08-28T19:12:06Z</time>
  <course>16.73</course>
  <speed>0.022360679774997897</speed>
  <fix>3d</fix>
</trkpt>
<trkpt lat="40.072842" lon="-105.230575">
  <ele>1586.09</ele>
  <time>2026-08-28T19:12:06Z</time>
  <course>317.17</course>
  <speed>0.0</speed>
  <fix>3d</fix>
</trkpt>
<trkpt lat="40.0728419" lon="-105.2305749">
  <ele>1586.17</ele>
  <time>2026-08-28T19:12:07Z</time>
  <course>16.67</course>
  <speed>0.022360679774997897</speed>
  <fix>3d</fix>
</trkpt>
<trkpt lat="40.072842" lon="-105.230575">
  <ele>1586.09</ele>
  <time>2026-08-28T19:12:07Z</time>
  <course>312.58</course>
  <speed>0.0</speed>
  <fix>3d</fix>
</trkpt>
<trkpt lat="40.0728419" lon="-105.2305749">
  <ele>1586.17</ele>
  <time>2026-08-28T19:12:07Z</time>
  <course>16.61</course>
  <speed>0.022360679774997897</speed>
  <fix>3d</fix>
</trkpt>
<trkpt lat="40.072842" lon="-105.230575">
  <ele>1586.09</ele>
  <time>2026-08-28T19:12:07Z</time>
  <course>281.12</course>
  <speed>0.0</speed>
  <fix>3d</fix>
</trkpt>
<trkpt lat="40.0728419" lon="-105.2305749">
  <ele>1586.17</ele>
  <time>2026-08-28T19:12:07Z</time>
  <course>16.54</course>
  <speed>0.022360679774997897</speed>
  <fix>3d</fix>
</trkpt>
<trkpt lat="40.072842" lon="-105.230575">
  <ele>1586.09</ele>
  <time>2026-08-28T19:12:07Z</time>
  <course>271.49</course>
  <speed>0.0</speed>
  <fix>3d</fix>
</trkpt>
<trkpt lat="40.0728419" lon="-105.2305749">
  <ele>1586.17</ele>
  <time>2026-08-28T19:12:07Z</time>
  <course>16.48</course>
  <speed>0.022360679774997897</speed>
  <fix>3d</fix>
</trkpt>
<trkpt lat="40.072842" lon="-105.230575">
  <ele>1586.09</ele>
  <time>2026-08-28T19:12:07Z</time>
  <course>274.7</course>
  <speed>0.0</speed>
  <fix>3d</fix>
</trkpt>
<trkpt lat="40.0728419" lon="-105.2305749">
  <ele>1586.17</ele>
  <time>2026-08-28T19:12:07Z</time>
  <course>16.41</course>
  <speed>0.022360679774997897</speed>
  <fix>3d</fix>
</trkpt>
<trkpt lat="40.072842" lon="-105.230575">
  <ele>1586.09</ele>
  <time>2026-08-28T19:12:07Z</time>
  <course>286.65</course>
  <speed>0.0</speed>
  <fix>3d</fix>
</trkpt>
<trkpt lat="40.0728419" lon="-105.2305749">
  <ele>1586.17</ele>
  <time>2026-08-28T19:12:07Z</time>
  <course>16.35</course>
  <speed>0.022360679774997897</speed>
  <fix>3d</fix>
</trkpt>
<trkpt lat="40.072842" lon="-105.230575">
  <ele>1586.09</ele>
  <time>2026-08-28T19:12:07Z</time>
  <course>281.88</course>
  <speed>0.0</speed>
  <fix>3d</fix>
</trkpt>
<trkpt lat="40.0728419" lon="-105.2305749">
  <ele>1586.18</ele>
  <time>2026-08-28T19:12:07Z</time>
  <course>16.29</course>
  <speed>0.022360679774997897</speed>
  <fix>3d</fix>
</trkpt>
<trkpt lat="40.072842" lon="-105.230575">
  <ele>1586.09</ele>
  <time>2026-08-28T19:12:07Z</time>
  <course>297.47</course>
  <speed>0.0</speed>
  <fix>3d</fix>
</trkpt>
<trkpt lat="40.0728419" lon="-105.2305749">
  <ele>1586.18</ele>
  <time>2026-08-28T19:12:07Z</time>
  <course>16.23</course>
  <speed>0.022360679774997897</speed>
  <fix>3d</fix>
</trkpt>
<trkpt lat="40.072842" lon="-105.230575">
  <ele>1586.09</ele>
  <time>2026-08-28T19:12:07Z</time>
  <course>302.98</course>
  <speed>0.0</speed>
  <fix>3d</fix>
</trkpt>
<trkpt lat="40.0728419" lon="-105.2305749">
  <ele>1586.18</ele>
  <time>2026-08-28T19:12:07Z</time>
  <course>16.17</course>
  <speed>0.022360679774997897</speed>
  <fix>3d</fix>
</trkpt>
<trkpt lat="40.072842" lon="-105.230575">
  <ele>1586.09</ele>
  <time>2026-08-28T19:12:07Z</time>
  <course>281.95</course>
  <speed>0.0</speed>
  <fix>3d</fix>
</trkpt>
<trkpt lat="40.0728419" lon="-105.2305749">
  <ele>1586.18</ele>
  <time>2026-08-28T19:12:07Z</time>
  <course>16.1</course>
  <speed>0.022360679774997897</speed>
  <fix>3d</fix>
</trkpt>
<trkpt lat="40.072842" lon="-105.230575">
  <ele>1586.09</ele>
  <time>2026-08-28T19:12:07Z</time>
  <course>266.3</course>
  <speed>0.0</speed>
  <fix>3d</fix>
</trkpt>
<trkpt lat="40.0728419" lon="-105.2305749">
  <ele>1586.18</ele>
  <time>2026-08-28T19:12:07Z</time>
  <course>16.04</course>
  <speed>0.022360679774997897</speed>
  <fix>3d</fix>
</trkpt>
<trkpt lat="40.072842" lon="-105.230575">
  <ele>1586.09</ele>
  <time>2026-08-28T19:12:07Z</time>
  <course>278.4</course>
  <speed>0.0</speed>
  <fix>3d</fix>
</trkpt>
<trkpt lat="40.0728419" lon="-105.2305749">
  <ele>1586.17</ele>
  <time>2026-08-28T19:12:07Z</time>
  <course>15.98</course>
  <speed>0.022360679774997897</speed>
  <fix>3d</fix>
</trkpt>
<trkpt lat="40.072842" lon="-105.230575">
  <ele>1586.09</ele>
  <time>2026-08-28T19:12:07Z</time>
  <course>281.72</course>
  <speed>0.0</speed>
  <fix>3d</fix>
</trkpt>
<trkpt lat="40.0728419" lon="-105.2305749">
  <ele>1586.17</ele>
  <time>2026-08-28T19:12:07Z</time>
  <course>15.92</course>
  <speed>0.022360679774997897</speed>
  <fix>3d</fix>
</trkpt>
<trkpt lat="40.072842" lon="-105.230575">
  <ele>1586.09</ele>
  <time>2026-08-28T19:12:07Z</time>
  <course>278.86</course>
  <speed>0.0</speed>
  <fix>3d</fix>
</trkpt>
<trkpt lat="40.0728419" lon="-105.2305749">
  <ele>1586.17</ele>
  <time>2026-08-28T19:12:07Z</time>
  <course>15.85</course>
  <speed>0.022360679774997897</speed>
  <fix>3d</fix>
</trkpt>
<trkpt lat="40.072842" lon="-105.230575">
  <ele>1586.09</ele>
  <time>2026-08-28T19:12:07Z</time>
  <course>278.44</course>
  <speed>0.0</speed>
  <fix>3d</fix>
</trkpt>
<trkpt lat="40.0728419" lon="-105.2305749">
  <ele>1586.17</ele>
  <time>2026-08-28T19:12:07Z</time>
  <course>15.79</course>
  <speed>0.022360679774997897</speed>
  <fix>3d</fix>
</trkpt>
<trkpt lat="40.072842" lon="-105.230575">
  <ele>1586.09</ele>
  <time>2026-08-28T19:12:07Z</time>
  <course>278.47</course>
  <speed>0.0</speed>
  <fix>3d</fix>
</trkpt>
<trkpt lat="40.0728419" lon="-105.2305749">
  <ele>1586.17</ele>
  <time>2026-08-28T19:12:07Z</time>
  <course>15.73</course>
  <speed>0.022360679774997897</speed>
  <fix>3d</fix>
</trkpt>
<trkpt lat="40.072842" lon="-105.230575">
  <ele>1586.09</ele>
  <time>2026-08-28T19:12:07Z</time>
  <course>290.03</course>
  <speed>0.0</speed>
  <fix>3d</fix>
</trkpt>
<trkpt lat="40.0728419" lon="-105.2305749">
  <ele>1586.17</ele>
  <time>2026-08-28T19:12:07Z</time>
  <course>15.67</course>
  <speed>0.022360679774997897</speed>
  <fix>3d</fix>
</trkpt>
<trkpt lat="40.072842" lon="-105.230575">
  <ele>1586.09</ele>
  <time>2026-08-28T19:12:07Z</time>
  <course>285.56</course>
  <speed>0.0</speed>
  <fix>3d</fix>
</trkpt>
<trkpt lat="40.0728419" lon="-105.2305749">
  <ele>1586.17</ele>
  <time>2026-08-28T19:12:07Z</time>
  <course>15.61</course>
  <speed>0.022360679774997897</speed>
  <fix>3d</fix>
</trkpt>
<trkpt lat="40.072842" lon="-105.230575">
  <ele>1586.09</ele>
  <time>2026-08-28T19:12:07Z</time>
  <course>250.81</course>
  <speed>0.0</speed>
  <fix>3d</fix>
</trkpt>
<trkpt lat="40.0728419" lon="-105.2305749">
  <ele>1586.17</ele>
  <time>2026-08-28T19:12:07Z</time>
  <course>15.55</course>
  <speed>0.022360679774997897</speed>
  <fix>3d</fix>
</trkpt>
<trkpt lat="40.072842" lon="-105.230575">
  <ele>1586.09</ele>
  <time>2026-08-28T19:12:07Z</time>
  <course>253.69</course>
  <speed>0.0</speed>
  <fix>3d</fix>
</trkpt>
<trkpt lat="40.0728419" lon="-105.2305749">
  <ele>1586.17</ele>
  <time>2026-08-28T19:12:07Z</time>
  <course>15.49</course>
  <speed>0.022360679774997897</speed>
  <fix>3d</fix>
</trkpt>
<trkpt lat="40.072842" lon="-105.230575">
  <ele>1586.09</ele>
  <time>2026-08-28T19:12:07Z</time>
  <course>280.03</course>
  <speed>0.0</speed>
  <fix>3d</fix>
</trkpt>
<trkpt lat="40.0728419" lon="-105.2305749">
  <ele>1586.17</ele>
  <time>2026-08-28T19:12:07Z</time>
  <course>15.43</course>
  <speed>0.022360679774997897</speed>
  <fix>3d</fix>
</trkpt>
<trkpt lat="40.072842" lon="-105.230575">
  <ele>1586.09</ele>
  <time>2026-08-28T19:12:07Z</time>
  <course>279.86</course>
  <speed>0.0</speed>
  <fix>3d</fix>
</trkpt>
<trkpt lat="40.0728419" lon="-105.2305749">
  <ele>1586.17</ele>
  <time>2026-08-28T19:12:07Z</time>
  <course>15.37</course>
  <speed>0.022360679774997897</speed>
  <fix>3d</fix>
</trkpt>
<trkpt lat="40.072842" lon="-105.230575">
  <ele>1586.09</ele>
  <time>2026-08-28T19:12:07Z</time>
  <course>276.13</course>
  <speed>0.0</speed>
  <fix>3d</fix>
</trkpt>
<trkpt lat="40.0728419" lon="-105.2305749">
  <ele>1586.17</ele>
  <time>2026-08-28T19:12:07Z</time>
  <course>15.31</course>
  <speed>0.022360679774997897</speed>
  <fix>3d</fix>
</trkpt>
<trkpt lat="40.072842" lon="-105.230575">
  <ele>1586.09</ele>
  <time>2026-08-28T19:12:07Z</time>
  <course>276.32</course>
  <speed>0.0</speed>
  <fix>3d</fix>
</trkpt>
<trkpt lat="40.0728419" lon="-105.2305749">
  <ele>1586.17</ele>
  <time>2026-08-28T19:12:07Z</time>
  <course>15.26</course>
  <speed>0.022360679774997897</speed>
  <fix>3d</fix>
</trkpt>
<trkpt lat="40.072842" lon="-105.230575">
  <ele>1586.09</ele>
  <time>2026-08-28T19:12:07Z</time>
  <course>278.64</course>
  <speed>0.0</speed>
  <fix>3d</fix>
</trkpt>
<trkpt lat="40.0728419" lon="-105.2305749">
  <ele>1586.18</ele>
  <time>2026-08-28T19:12:07Z</time>
  <course>15.2</course>
  <speed>0.022360679774997897</speed>
  <fix>3d</fix>
</trkpt>
<trkpt lat="40.072842" lon="-105.230575">
  <ele>1586.09</ele>
  <time>2026-08-28T19:12:07Z</time>
  <course>287.31</course>
  <speed>0.0</speed>
  <fix>3d</fix>
</trkpt>
<trkpt lat="40.0728419" lon="-105.2305749">
  <ele>1586.18</ele>
  <time>2026-08-28T19:12:07Z</time>
  <course>15.14</course>
  <speed>0.022360679774997897</speed>
  <fix>3d</fix>
</trkpt>
<trkpt lat="40.072842" lon="-105.230575">
  <ele>1586.09</ele>
  <time>2026-08-28T19:12:07Z</time>
  <course>287.36</course>
  <speed>0.0</speed>
  <fix>3d</fix>
</trkpt>
<trkpt lat="40.0728419" lon="-105.2305749">
  <ele>1586.18</ele>
  <time>2026-08-28T19:12:07Z</time>
  <course>15.08</course>
  <speed>0.022360679774997897</speed>
  <fix>3d</fix>
</trkpt>
<trkpt lat="40.072842" lon="-105.230575">
  <ele>1586.09</ele>
  <time>2026-08-28T19:12:07Z</time>
  <course>274.44</course>
  <speed>0.0</speed>
  <fix>3d</fix>
</trkpt>
<trkpt lat="40.0728419" lon="-105.2305749">
  <ele>1586.18</ele>
  <time>2026-08-28T19:12:07Z</time>
  <course>15.03</course>
  <speed>0.022360679774997897</speed>
  <fix>3d</fix>
</trkpt>
<trkpt lat="40.072842" lon="-105.230575">
  <ele>1586.09</ele>
  <time>2026-08-28T19:12:07Z</time>
  <course>274.6</course>
  <speed>0.0</speed>
  <fix>3d</fix>
</trkpt>
<trkpt lat="40.0728419" lon="-105.2305749">
  <ele>1586.18</ele>
  <time>2026-08-28T19:12:07Z</time>
  <course>14.97</course>
  <speed>0.022360679774997897</speed>
  <fix>3d</fix>
</trkpt>
<trkpt lat="40.072842" lon="-105.230575">
  <ele>1586.09</ele>
  <time>2026-08-28T19:12:07Z</time>
  <course>276.49</course>
  <speed>0.0</speed>
  <fix>3d</fix>
</trkpt>
<trkpt lat="40.0728419" lon="-105.2305749">
  <ele>1586.18</ele>
  <time>2026-08-28T19:12:07Z</time>
  <course>14.92</course>
  <speed>0.022360679774997897</speed>
  <fix>3d</fix>
</trkpt>
<trkpt lat="40.072842" lon="-105.230575">
  <ele>1586.09</ele>
  <time>2026-08-28T19:12:07Z</time>
  <course>276.11</course>
  <speed>0.0</speed>
  <fix>3d</fix>
</trkpt>
<trkpt lat="40.0728419" lon="-105.2305749">
  <ele>1586.18</ele>
  <time>2026-08-28T19:12:07Z</time>
  <course>14.86</course>
  <speed>0.022360679774997897</speed>
  <fix>3d</fix>
</trkpt>
<trkpt lat="40.072842" lon="-105.230575">
  <ele>1586.09</ele>
  <time>2026-08-28T19:12:07Z</time>
  <course>275.72</course>
  <speed>0.0</speed>
  <fix>3d</fix>
</trkpt>
<trkpt lat="40.0728419" lon="-105.2305749">
  <ele>1586.18</ele>
  <time>2026-08-28T19:12:07Z</time>
  <course>14.81</course>
  <speed>0.022360679774997897</speed>
  <fix>3d</fix>
</trkpt>
<trkpt lat="40.072842" lon="-105.230575">
  <ele>1586.09</ele>
  <time>2026-08-28T19:12:07Z</time>
  <course>275.62</course>
  <speed>0.0</speed>
  <fix>3d</fix>
</trkpt>
<trkpt lat="40.0728419" lon="-105.2305749">
  <ele>1586.18</ele>
  <time>2026-08-28T19:12:07Z</time>
  <course>14.75</course>
  <speed>0.022360679774997897</speed>
  <fix>3d</fix>
</trkpt>
<trkpt lat="40.072842" lon="-105.230575">
  <ele>1586.09</ele>
  <time>2026-08-28T19:12:07Z</time>
  <course>275.92</course>
  <speed>0.0</speed>
  <fix>3d</fix>
</trkpt>
<trkpt lat="40.0728419" lon="-105.2305749">
  <ele>1586.17</ele>
  <time>2026-08-28T19:12:07Z</time>
  <course>14.7</course>
  <speed>0.022360679774997897</speed>
  <fix>3d</fix>
</trkpt>
<trkpt lat="40.072842" lon="-105.230575">
  <ele>1586.09</ele>
  <time>2026-08-28T19:12:07Z</time>
  <course>273.87</course>
  <speed>0.0</speed>
  <fix>3d</fix>
</trkpt>
<trkpt lat="40.0728419" lon="-105.2305749">
  <ele>1586.17</ele>
  <time>2026-08-28T19:12:07Z</time>
  <course>14.65</course>
  <speed>0.022360679774997897</speed>
  <fix>3d</fix>
</trkpt>
<trkpt lat="40.072842" lon="-105.230575">
  <ele>1586.09</ele>
  <time>2026-08-28T19:12:07Z</time>
  <course>285.69</course>
  <speed>0.0</speed>
  <fix>3d</fix>
</trkpt>
<trkpt lat="40.0728419" lon="-105.2305749">
  <ele>1586.17</ele>
  <time>2026-08-28T19:12:07Z</time>
  <course>14.59</course>
  <speed>0.022360679774997897</speed>
  <fix>3d</fix>
</trkpt>
<trkpt lat="40.072842" lon="-105.230575">
  <ele>1586.09</ele>
  <time>2026-08-28T19:12:07Z</time>
  <course>287.39</course>
  <speed>0.0</speed>
  <fix>3d</fix>
</trkpt>
<trkpt lat="40.0728419" lon="-105.2305749">
  <ele>1586.17</ele>
  <time>2026-08-28T19:12:07Z</time>
  <course>14.54</course>
  <speed>0.022360679774997897</speed>
  <fix>3d</fix>
</trkpt>
<trkpt lat="40.072842" lon="-105.230575">
  <ele>1586.09</ele>
  <time>2026-08-28T19:12:07Z</time>
  <course>273.85</course>
  <speed>0.0</speed>
  <fix>3d</fix>
</trkpt>
<trkpt lat="40.0728419" lon="-105.2305749">
  <ele>1586.17</ele>
  <time>2026-08-28T19:12:07Z</time>
  <course>14.49</course>
  <speed>0.022360679774997897</speed>
  <fix>3d</fix>
</trkpt>
<trkpt lat="40.072842" lon="-105.230575">
  <ele>1586.09</ele>
  <time>2026-08-28T19:12:07Z</time>
  <course>273.54</course>
  <speed>0.0</speed>
  <fix>3d</fix>
</trkpt>
<trkpt lat="40.0728419" lon="-105.2305749">
  <ele>1586.17</ele>
  <time>2026-08-28T19:12:07Z</time>
  <course>14.44</course>
  <speed>0.022360679774997897</speed>
  <fix>3d</fix>
</trkpt>
<trkpt lat="40.072842" lon="-105.230575">
  <ele>1586.09</ele>
  <time>2026-08-28T19:12:07Z</time>
  <course>275.46</course>
  <speed>0.0</speed>
  <fix>3d</fix>
</trkpt>
<trkpt lat="40.0728419" lon="-105.2305749">
  <ele>1586.16</ele>
  <time>2026-08-28T19:12:07Z</time>
  <course>14.39</course>
  <speed>0.022360679774997897</speed>
  <fix>3d</fix>
</trkpt>
<trkpt lat="40.072842" lon="-105.230575">
  <ele>1586.09</ele>
  <time>2026-08-28T19:12:07Z</time>
  <course>275.16</course>
  <speed>0.0</speed>
  <fix>3d</fix>
</trkpt>
<trkpt lat="40.0728419" lon="-105.2305749">
  <ele>1586.16</ele>
  <time>2026-08-28T19:12:07Z</time>
  <course>14.34</course>
  <speed>0.022360679774997897</speed>
  <fix>3d</fix>
</trkpt>
<trkpt lat="40.072842" lon="-105.230575">
  <ele>1586.09</ele>
  <time>2026-08-28T19:12:07Z</time>
  <course>274.82</course>
  <speed>0.0</speed>
  <fix>3d</fix>
</trkpt>
<trkpt lat="40.0728419" lon="-105.2305749">
  <ele>1586.16</ele>
  <time>2026-08-28T19:12:07Z</time>
  <course>14.29</course>
  <speed>0.022360679774997897</speed>
  <fix>3d</fix>
</trkpt>
<trkpt lat="40.072842" lon="-105.2305751">
  <ele>1586.09</ele>
  <time>2026-08-28T19:12:07Z</time>
  <course>276.88</course>
  <speed>0.0</speed>
  <fix>3d</fix>
</trkpt>
<trkpt lat="40.0728419" lon="-105.230575">
  <ele>1586.16</ele>
  <time>2026-08-28T19:12:07Z</time>
  <course>14.25</course>
  <speed>0.022360679774997897</speed>
  <fix>3d</fix>
</trkpt>
<trkpt lat="40.072842" lon="-105.2305751">
  <ele>1586.09</ele>
  <time>2026-08-28T19:12:07Z</time>
  <course>274.31</course>
  <speed>0.0</speed>
  <fix>3d</fix>
</trkpt>
<trkpt lat="40.0728419" lon="-105.230575">
  <ele>1586.17</ele>
  <time>2026-08-28T19:12:07Z</time>
  <course>14.2</course>
  <speed>0.022360679774997897</speed>
  <fix>3d</fix>
</trkpt>
<trkpt lat="40.072842" lon="-105.2305751">
  <ele>1586.09</ele>
  <time>2026-08-28T19:12:07Z</time>
  <course>271.79</course>
  <speed>0.0</speed>
  <fix>3d</fix>
</trkpt>
<trkpt lat="40.0728419" lon="-105.230575">
  <ele>1586.17</ele>
  <time>2026-08-28T19:12:07Z</time>
  <course>14.15</course>
  <speed>0.022360679774997897</speed>
  <fix>3d</fix>
</trkpt>
<trkpt lat="40.072842" lon="-105.2305751">
  <ele>1586.09</ele>
  <time>2026-08-28T19:12:07Z</time>
  <course>274.43</course>
  <speed>0.0</speed>
  <fix>3d</fix>
</trkpt>
<trkpt lat="40.0728419" lon="-105.230575">
  <ele>1586.17</ele>
  <time>2026-08-28T19:12:07Z</time>
  <course>14.11</course>
  <speed>0.022360679774997897</speed>
  <fix>3d</fix>
</trkpt>
<trkpt lat="40.072842" lon="-105.2305751">
  <ele>1586.09</ele>
  <time>2026-08-28T19:12:07Z</time>
  <course>282.45</course>
  <speed>0.0</speed>
  <fix>3d</fix>
</trkpt>
<trkpt lat="40.0728419" lon="-105.230575">
  <ele>1586.17</ele>
  <time>2026-08-28T19:12:07Z</time>
  <course>14.06</course>
  <speed>0.022360679774997897</speed>
  <fix>3d</fix>
</trkpt>
<trkpt lat="40.072842" lon="-105.2305751">
  <ele>1586.09</ele>
  <time>2026-08-28T19:12:07Z</time>
  <course>280.75</course>
  <speed>0.0</speed>
  <fix>3d</fix>
</trkpt>
<trkpt lat="40.0728419" lon="-105.230575">
  <ele>1586.16</ele>
  <time>2026-08-28T19:12:07Z</time>
  <course>14.02</course>
  <speed>0.022360679774997897</speed>
  <fix>3d</fix>
</trkpt>
<trkpt lat="40.072842" lon="-105.2305751">
  <ele>1586.09</ele>
  <time>2026-08-28T19:12:07Z</time>
  <course>272.34</course>
  <speed>0.0</speed>
  <fix>3d</fix>
</trkpt>
<trkpt lat="40.0728419" lon="-105.230575">
  <ele>1586.16</ele>
  <time>2026-08-28T19:12:07Z</time>
  <course>13.98</course>
  <speed>0.022360679774997897</speed>
  <fix>3d</fix>
</trkpt>
<trkpt lat="40.072842" lon="-105.2305751">
  <ele>1586.09</ele>
  <time>2026-08-28T19:12:07Z</time>
  <course>273.83</course>
  <speed>0.0</speed>
  <fix>3d</fix>
</trkpt>
<trkpt lat="40.0728419" lon="-105.230575">
  <ele>1586.16</ele>
  <time>2026-08-28T19:12:07Z</time>
  <course>13.94</course>
  <speed>0.02</speed>
  <fix>3d</fix>
</trkpt>
<trkpt lat="40.072842" lon="-105.2305751">
  <ele>1586.09</ele>
  <time>2026-08-28T19:12:07Z</time>
  <course>274.73</course>
  <speed>0.0</speed>
  <fix>3d</fix>
</trkpt>
<trkpt lat="40.0728419" lon="-105.230575">
  <ele>1586.17</ele>
  <time>2026-08-28T19:12:07Z</time>
  <course>13.9</course>
  <speed>0.02</speed>
  <fix>3d</fix>
</trkpt>
<trkpt lat="40.072842" lon="-105.2305751">
  <ele>1586.09</ele>
  <time>2026-08-28T19:12:07Z</time>
  <course>274.35</course>
  <speed>0.0</speed>
  <fix>3d</fix>
</trkpt>
<trkpt lat="40.0728419" lon="-105.230575">
  <ele>1586.17</ele>
  <time>2026-08-28T19:12:07Z</time>
  <course>13.86</course>
  <speed>0.02</speed>
  <fix>3d</fix>
</trkpt>
<trkpt lat="40.072842" lon="-105.2305751">
  <ele>1586.09</ele>
  <time>2026-08-28T19:12:07Z</time>
  <course>274.17</course>
  <speed>0.0</speed>
  <fix>3d</fix>
</trkpt>
<trkpt lat="40.0728419" lon="-105.230575">
  <ele>1586.17</ele>
  <time>2026-08-28T19:12:07Z</time>
  <course>13.82</course>
  <speed>0.02</speed>
  <fix>3d</fix>
</trkpt>
<trkpt lat="40.072842" lon="-105.2305751">
  <ele>1586.09</ele>
  <time>2026-08-28T19:12:07Z</time>
  <course>273.93</course>
  <speed>0.0</speed>
  <fix>3d</fix>
</trkpt>
<trkpt lat="40.0728419" lon="-105.230575">
  <ele>1586.17</ele>
  <time>2026-08-28T19:12:07Z</time>
  <course>13.78</course>
  <speed>0.02</speed>
  <fix>3d</fix>
</trkpt>
<trkpt lat="40.072842" lon="-105.2305751">
  <ele>1586.09</ele>
  <time>2026-08-28T19:12:07Z</time>
  <course>272.72</course>
  <speed>0.0</speed>
  <fix>3d</fix>
</trkpt>
<trkpt lat="40.0728419" lon="-105.230575">
  <ele>1586.17</ele>
  <time>2026-08-28T19:12:07Z</time>
  <course>13.74</course>
  <speed>0.01414213562373095</speed>
  <fix>3d</fix>
</trkpt>
<trkpt lat="40.072842" lon="-105.2305751">
  <ele>1586.09</ele>
  <time>2026-08-28T19:12:07Z</time>
  <course>272.95</course>
  <speed>0.0</speed>
  <fix>3d</fix>
</trkpt>
<trkpt lat="40.0728419" lon="-105.230575">
  <ele>1586.16</ele>
  <time>2026-08-28T19:12:07Z</time>
  <course>13.7</course>
  <speed>0.01414213562373095</speed>
  <fix>3d</fix>
</trkpt>
<trkpt lat="40.072842" lon="-105.2305751">
  <ele>1586.09</ele>
  <time>2026-08-28T19:12:07Z</time>
  <course>274.37</course>
  <speed>0.0</speed>
  <fix>3d</fix>
</trkpt>
<trkpt lat="40.0728419" lon="-105.230575">
  <ele>1586.16</ele>
  <time>2026-08-28T19:12:07Z</time>
  <course>13.67</course>
  <speed>0.01414213562373095</speed>
  <fix>3d</fix>
</trkpt>
<trkpt lat="40.072842" lon="-105.2305751">
  <ele>1586.09</ele>
  <time>2026-08-28T19:12:07Z</time>
  <course>278.94</course>
  <speed>0.0</speed>
  <fix>3d</fix>
</trkpt>
<trkpt lat="40.0728419" lon="-105.230575">
  <ele>1586.16</ele>
  <time>2026-08-28T19:12:07Z</time>
  <course>13.63</course>
  <speed>0.01414213562373095</speed>
  <fix>3d</fix>
</trkpt>
<trkpt lat="40.072842" lon="-105.2305751">
  <ele>1586.09</ele>
  <time>2026-08-28T19:12:07Z</time>
  <course>281.34</course>
  <speed>0.0</speed>
  <fix>3d</fix>
</trkpt>
<trkpt lat="40.0728419" lon="-105.230575">
  <ele>1586.17</ele>
  <time>2026-08-28T19:12:07Z</time>
  <course>13.6</course>
  <speed>0.022360679774997897</speed>
  <fix>3d</fix>
</trkpt>
<trkpt lat="40.072842" lon="-105.2305751">
  <ele>1586.09</ele>
  <time>2026-08-28T19:12:07Z</time>
  <course>275.53</course>
  <speed>0.0</speed>
  <fix>3d</fix>
</trkpt>
<trkpt lat="40.0728419" lon="-105.230575">
  <ele>1586.17</ele>
  <time>2026-08-28T19:12:07Z</time>
  <course>13.57</course>
  <speed>0.022360679774997897</speed>
  <fix>3d</fix>
</trkpt>
<trkpt lat="40.072842" lon="-105.2305751">
  <ele>1586.09</ele>
  <time>2026-08-28T19:12:07Z</time>
  <course>272.3</course>
  <speed>0.0</speed>
  <fix>3d</fix>
</trkpt>
<trkpt lat="40.0728419" lon="-105.230575">
  <ele>1586.17</ele>
  <time>2026-08-28T19:12:07Z</time>
  <course>13.54</course>
  <speed>0.022360679774997897</speed>
  <fix>3d</fix>
</trkpt>
<trkpt lat="40.072842" lon="-105.2305751">
  <ele>1586.09</ele>
  <time>2026-08-28T19:12:07Z</time>
  <course>273.94</course>
  <speed>0.0</speed>
  <fix>3d</fix>
</trkpt>
<trkpt lat="40.0728419" lon="-105.230575">
  <ele>1586.17</ele>
  <time>2026-08-28T19:12:07Z</time>
  <course>13.51</course>
  <speed>0.022360679774997897</speed>
  <fix>3d</fix>
</trkpt>
<trkpt lat="40.072842" lon="-105.2305751">
  <ele>1586.09</ele>
  <time>2026-08-28T19:12:07Z</time>
  <course>274.1</course>
  <speed>0.0</speed>
  <fix>3d</fix>
</trkpt>
<trkpt lat="40.0728419" lon="-105.230575">
  <ele>1586.2</ele>
  <time>2026-08-28T19:12:07Z</time>
  <course>13.46</course>
  <speed>0.022360679774997897</speed>
  <fix>3d</fix>
</trkpt>
<trkpt lat="40.072842" lon="-105.2305751">
  <ele>1586.09</ele>
  <time>2026-08-28T19:12:07Z</time>
  <course>274.47</course>
  <speed>0.0</speed>
  <fix>3d</fix>
</trkpt>
<trkpt lat="40.0728419" lon="-105.230575">
  <ele>1586.3</ele>
  <time>2026-08-28T19:12:07Z</time>
  <course>13.36</course>
  <speed>0.022360679774997897</speed>
  <fix>3d</fix>
</trkpt>
<trkpt lat="40.072842" lon="-105.2305751">
  <ele>1586.14</ele>
  <time>2026-08-28T19:12:07Z</time>
  <course>278.56</course>
  <speed>0.0</speed>
  <fix>3d</fix>
</trkpt>
<trkpt lat="40.0728419" lon="-105.230575">
  <ele>1586.43</ele>
  <time>2026-08-28T19:12:07Z</time>
  <course>8.22</course>
  <speed>0.1019803902718557</speed>
  <fix>3d</fix>
</trkpt>
<trkpt lat="40.072842" lon="-105.2305751">
  <ele>1586.22</ele>
  <time>2026-08-28T19:12:07Z</time>
  <course>278.93</course>
  <speed>0.02</speed>
  <fix>3d</fix>
</trkpt>
<trkpt lat="40.072842" lon="-105.2305755">
  <ele>1586.79</ele>
  <time>2026-08-28T19:12:07Z</time>
  <course>3.34</course>
  <speed>0.26248809496813374</speed>
  <fix>3d</fix>
</trkpt>
<trkpt lat="40.072842" lon="-105.2305752">
  <ele>1586.4</ele>
  <time>2026-08-28T19:12:07Z</time>
  <course>280.51</course>
  <speed>0.13</speed>
  <fix>3d</fix>
</trkpt>
<trkpt lat="40.072842" lon="-105.2305756">
  <ele>1586.85</ele>
  <time>2026-08-28T19:12:07Z</time>
  <course>2.77</course>
  <speed>0.29120439557122074</speed>
  <fix>3d</fix>
</trkpt>
<trkpt lat="40.0728421" lon="-105.2305763">
  <ele>1587.21</ele>
  <time>2026-08-28T19:12:07Z</time>
  <course>0.55</course>
  <speed>0.3956008088970496</speed>
  <fix>3d</fix>
</trkpt>
<trkpt lat="40.072842" lon="-105.2305757">
  <ele>1586.74</ele>
  <time>2026-08-28T19:12:07Z</time>
  <course>279.91</course>
  <speed>0.29</speed>
  <fix>3d</fix>
</trkpt>
<trkpt lat="40.0728422" lon="-105.2305764">
  <ele>1587.27</ele>
  <time>2026-08-28T19:12:07Z</time>
  <course>0.25</course>
  <speed>0.4052159917870962</speed>
  <fix>3d</fix>
</trkpt>
<trkpt lat="40.0728423" lon="-105.2305773">
  <ele>1587.64</ele>
  <time>2026-08-28T19:12:07Z</time>
  <course>359.03</course>
  <speed>0.4827007354458868</speed>
  <fix>3d</fix>
</trkpt>
<trkpt lat="40.0728421" lon="-105.2305765">
  <ele>1587.15</ele>
  <time>2026-08-28T19:12:07Z</time>
  <course>278.21</course>
  <speed>0.42</speed>
  <fix>3d</fix>
</trkpt>
<trkpt lat="40.0728423" lon="-105.2305775">
  <ele>1587.71</ele>
  <time>2026-08-28T19:12:07Z</time>
  <course>358.88</course>
  <speed>0.49244289008980524</speed>
  <fix>3d</fix>
</trkpt>
<trkpt lat="40.0728425" lon="-105.2305786">
  <ele>1588.09</ele>
  <time>2026-08-28T19:12:07Z</time>
  <course>358.26</course>
  <speed>0.5491812087098392</speed>
  <fix>3d</fix>
</trkpt>
<trkpt lat="40.0728422" lon="-105.2305777">
  <ele>1587.58</ele>
  <time>2026-08-28T19:12:07Z</time>
  <course>276.15</course>
  <speed>0.51</speed>
  <fix>3d</fix>
</trkpt>
<trkpt lat="40.0728425" lon="-105.2305786">
  <ele>1588.09</ele>
  <time>2026-08-28T19:12:07Z</time>
  <course>358.25</course>
  <speed>0.5491812087098392</speed>
  <fix>3d</fix>
</trkpt>
<trkpt lat="40.0728426" lon="-105.2305799">
  <ele>1588.55</ele>
  <time>2026-08-28T19:12:07Z</time>
  <course>357.98</course>
  <speed>0.5953990258641678</speed>
  <fix>3d</fix>
</trkpt>
<trkpt lat="40.0728423" lon="-105.2305789">
  <ele>1588.02</ele>
  <time>2026-08-28T19:12:07Z</time>
  <course>274.07</course>
  <speed>0.57</speed>
  <fix>3d</fix>
</trkpt>
<trkpt lat="40.0728426" lon="-105.2305802">
  <ele>1588.61</ele>
  <time>2026-08-28T19:12:07Z</time>
  <course>357.97</course>
  <speed>0.6053098380168622</speed>
  <fix>3d</fix>
</trkpt>
<trkpt lat="40.0728426" lon="-105.2305814">
  <ele>1589.01</ele>
  <time>2026-08-28T19:12:07Z</time>
  <course>358.03</course>
  <speed>0.6328506932918696</speed>
  <fix>3d</fix>
</trkpt>
<trkpt lat="40.0728424" lon="-105.2305803">
  <ele>1588.48</ele>
  <time>2026-08-28T19:12:07Z</time>
  <course>272.21</course>
  <speed>0.62</speed>
  <fix>3d</fix>
</trkpt>
<trkpt lat="40.0728426" lon="-105.2305817">
  <ele>1589.08</ele>
  <time>2026-08-28T19:12:07Z</time>
  <course>356.6</course>
  <speed>0.6328506932918696</speed>
  <fix>3d</fix>
</trkpt>
<trkpt lat="40.0728426" lon="-105.230583">
  <ele>1589.48</ele>
  <time>2026-08-28T19:12:07Z</time>
  <course>356.73</course>
  <speed>0.6612110101926616</speed>
  <fix>3d</fix>
</trkpt>
<trkpt lat="40.0728424" lon="-105.2305818">
  <ele>1588.94</ele>
  <time>2026-08-28T19:12:07Z</time>
  <course>270.62</course>
  <speed>0.65</speed>
  <fix>3d</fix>
</trkpt>
<trkpt lat="40.0728426" lon="-105.2305832">
  <ele>1589.56</ele>
  <time>2026-08-28T19:12:07Z</time>
  <course>356.75</course>
  <speed>0.6612110101926616</speed>
  <fix>3d</fix>
</trkpt>
<trkpt lat="40.0728426" lon="-105.2305846">
  <ele>1589.96</ele>
  <time>2026-08-28T19:12:07Z</time>
  <course>357.04</course>
  <speed>0.6800735254367721</speed>
  <fix>3d</fix>
</trkpt>
<trkpt lat="40.0728424" lon="-105.2305834">
  <ele>1589.41</ele>
  <time>2026-08-28T19:12:07Z</time>
  <course>269.25</course>
  <speed>0.68</speed>
  <fix>3d</fix>
</trkpt>
<trkpt lat="40.0728426" lon="-105.2305848">
  <ele>1590.04</ele>
  <time>2026-08-28T19:12:07Z</time>
  <course>357.1</course>
  <speed>0.6800735254367721</speed>
  <fix>3d</fix>
</trkpt>
<trkpt lat="40.0728425" lon="-105.2305862">
  <ele>1590.45</ele>
  <time>2026-08-28T19:12:07Z</time>
  <course>357.55</course>
  <speed>0.7</speed>
  <fix>3d</fix>
</trkpt>
<trkpt lat="40.0728424" lon="-105.230585">
  <ele>1589.89</ele>
  <time>2026-08-28T19:12:07Z</time>
  <course>268.04</course>
  <speed>0.7</speed>
  <fix>3d</fix>
</trkpt>
<trkpt lat="40.0728425" lon="-105.2305863">
  <ele>1590.45</ele>
  <time>2026-08-28T19:12:07Z</time>
  <course>357.56</course>
  <speed>0.7</speed>
  <fix>3d</fix>
</trkpt>
<trkpt lat="40.0728424" lon="-105.2305879">
  <ele>1590.93</ele>
  <time>2026-08-28T19:12:07Z</time>
  <course>358.11</course>
  <speed>0.7206247289678588</speed>
  <fix>3d</fix>
</trkpt>
<trkpt lat="40.0728424" lon="-105.2305867">
  <ele>1590.37</ele>
  <time>2026-08-28T19:12:07Z</time>
  <course>266.98</course>
  <speed>0.71</speed>
  <fix>3d</fix>
</trkpt>
<trkpt lat="40.0728424" lon="-105.2305882">
  <ele>1591.01</ele>
  <time>2026-08-28T19:12:07Z</time>
  <course>358.19</course>
  <speed>0.7206247289678588</speed>
  <fix>3d</fix>
</trkpt>
<trkpt lat="40.0728424" lon="-105.2305897">
  <ele>1591.42</ele>
  <time>2026-08-28T19:12:07Z</time>
  <course>358.73</course>
  <speed>0.7317103251970687</speed>
  <fix>3d</fix>
</trkpt>
<trkpt lat="40.0728423" lon="-105.2305884">
  <ele>1590.85</ele>
  <time>2026-08-28T19:12:07Z</time>
  <course>266.09</course>
  <speed>0.73</speed>
  <fix>3d</fix>
</trkpt>
<trkpt lat="40.0728424" lon="-105.2305899">
  <ele>1591.5</ele>
  <time>2026-08-28T19:12:07Z</time>
  <course>358.84</course>
  <speed>0.7317103251970687</speed>
  <fix>3d</fix>
</trkpt>
<trkpt lat="40.0728422" lon="-105.2305914">
  <ele>1591.9</ele>
  <time>2026-08-28T19:12:07Z</time>
  <course>359.41</course>
  <speed>0.7433034373659253</speed>
  <fix>3d</fix>
</trkpt>
<trkpt lat="40.0728422" lon="-105.2305901">
  <ele>1591.33</ele>
  <time>2026-08-28T19:12:07Z</time>
  <course>265.34</course>
  <speed>0.74</speed>
  <fix>3d</fix>
</trkpt>
<trkpt lat="40.0728422" lon="-105.2305917">
  <ele>1591.98</ele>
  <time>2026-08-28T19:12:07Z</time>
  <course>359.51</course>
  <speed>0.7433034373659253</speed>
  <fix>3d</fix>
</trkpt>
<trkpt lat="40.0728421" lon="-105.2305932">
  <ele>1592.39</ele>
  <time>2026-08-28T19:12:07Z</time>
  <course>0.08</course>
  <speed>0.7454528824815153</speed>
  <fix>3d</fix>
</trkpt>
<trkpt lat="40.0728421" lon="-105.2305918">
  <ele>1591.81</ele>
  <time>2026-08-28T19:12:07Z</time>
  <course>264.72</course>
  <speed>0.75</speed>
  <fix>3d</fix>
</trkpt>
<trkpt lat="40.072842" lon="-105.2305935">
  <ele>1592.47</ele>
  <time>2026-08-28T19:12:07Z</time>
  <course>0.2</course>
  <speed>0.7454528824815153</speed>
  <fix>3d</fix>
</trkpt>
<trkpt lat="40.0728419" lon="-105.230595">
  <ele>1592.87</ele>
  <time>2026-08-28T19:12:07Z</time>
  <course>0.73</course>
  <speed>0.7566372975210779</speed>
  <fix>3d</fix>
</trkpt>
<trkpt lat="40.072842" lon="-105.2305936">
  <ele>1592.29</ele>
  <time>2026-08-28T19:12:07Z</time>
  <course>264.16</course>
  <speed>0.75</speed>
  <fix>3d</fix>
</trkpt>
<trkpt lat="40.0728419" lon="-105.230595">
  <ele>1592.88</ele>
  <time>2026-08-28T19:12:07Z</time>
  <course>0.74</course>
  <speed>0.7566372975210779</speed>
  <fix>3d</fix>
</trkpt>
<trkpt lat="40.0728417" lon="-105.2305967">
  <ele>1593.36</ele>
  <time>2026-08-28T19:12:07Z</time>
  <course>1.34</course>
  <speed>0.758023746329889</speed>
  <fix>3d</fix>
</trkpt>
<trkpt lat="40.0728419" lon="-105.2305954">
  <ele>1592.77</ele>
  <time>2026-08-28T19:12:07Z</time>
  <course>263.65</course>
  <speed>0.76</speed>
  <fix>3d</fix>
</trkpt>
<trkpt lat="40.0728417" lon="-105.230597">
  <ele>1593.44</ele>
  <time>2026-08-28T19:12:07Z</time>
  <course>1.44</course>
  <speed>0.7595393340703298</speed>
  <fix>3d</fix>
</trkpt>
<trkpt lat="40.0728415" lon="-105.2305985">
  <ele>1593.85</ele>
  <time>2026-08-28T19:12:07Z</time>
  <course>1.92</course>
  <speed>0.7595393340703298</speed>
  <fix>3d</fix>
</trkpt>
<trkpt lat="40.0728417" lon="-105.2305972">
  <ele>1593.25</ele>
  <time>2026-08-28T19:12:07Z</time>
  <course>263.15</course>
  <speed>0.76</speed>
  <fix>3d</fix>
</trkpt>
<trkpt lat="40.0728415" lon="-105.2305988">
  <ele>1593.92</ele>
  <time>2026-08-28T19:12:07Z</time>
  <course>2.0</course>
  <speed>0.7611832893594026</speed>
  <fix>3d</fix>
</trkpt>
<trkpt lat="40.0728413" lon="-105.2306003">
  <ele>1594.34</ele>
  <time>2026-08-28T19:12:07Z</time>
  <course>2.45</course>
  <speed>0.7611832893594026</speed>
  <fix>3d</fix>
</trkpt>
<trkpt lat="40.0728415" lon="-105.230599">
  <ele>1593.73</ele>
  <time>2026-08-28T19:12:07Z</time>
  <course>262.65</course>
  <speed>0.76</speed>
  <fix>3d</fix>
</trkpt>
<trkpt lat="40.0728413" lon="-105.2306006">
  <ele>1594.42</ele>
  <time>2026-08-28T19:12:07Z</time>
  <course>2.53</course>
  <speed>0.7611832893594026</speed>
  <fix>3d</fix>
</trkpt>
<trkpt lat="40.0728411" lon="-105.2306021">
  <ele>1594.82</ele>
  <time>2026-08-28T19:12:07Z</time>
  <course>2.95</course>
  <speed>0.762954782408499</speed>
  <fix>3d</fix>
</trkpt>
<trkpt lat="40.0728414" lon="-105.2306007">
  <ele>1594.21</ele>
  <time>2026-08-28T19:12:07Z</time>
  <course>262.16</course>
  <speed>0.76</speed>
  <fix>3d</fix>
</trkpt>
<trkpt lat="40.0728411" lon="-105.2306024">
  <ele>1594.89</ele>
  <time>2026-08-28T19:12:07Z</time>
  <course>3.02</course>
  <speed>0.762954782408499</speed>
  <fix>3d</fix>
</trkpt>
<trkpt lat="40.0728409" lon="-105.2306039">
  <ele>1595.31</ele>
  <time>2026-08-28T19:12:07Z</time>
  <course>3.42</course>
  <speed>0.7648529270389177</speed>
  <fix>3d</fix>
</trkpt>
<trkpt lat="40.0728412" lon="-105.2306026">
  <ele>1594.69</ele>
  <time>2026-08-28T19:12:07Z</time>
  <course>261.66</course>
  <speed>0.76</speed>
  <fix>3d</fix>
</trkpt>
<trkpt lat="40.0728409" lon="-105.2306042">
  <ele>1595.38</ele>
  <time>2026-08-28T19:12:07Z</time>
  <course>3.5</course>
  <speed>0.7648529270389177</speed>
  <fix>3d</fix>
</trkpt>
<trkpt lat="40.0728407" lon="-105.2306057">
  <ele>1595.76</ele>
  <time>2026-08-28T19:12:07Z</time>
  <course>4.62</course>
  <speed>0.7746612162745725</speed>
  <fix>3d</fix>
</trkpt>
<trkpt lat="40.0728409" lon="-105.2306044">
  <ele>1595.17</ele>
  <time>2026-08-28T19:12:07Z</time>
  <course>261.16</course>
  <speed>0.76</speed>
  <fix>3d</fix>
</trkpt>
<trkpt lat="40.0728405" lon="-105.2306075">
  <ele>1596.08</ele>
  <time>2026-08-28T19:12:07Z</time>
  <course>7.48</course>
  <speed>0.7550496672405067</speed>
  <fix>3d</fix>
</trkpt>
<trkpt lat="40.0728407" lon="-105.2306062">
  <ele>1595.61</ele>
  <time>2026-08-28T19:12:07Z</time>
  <course>260.86</course>
  <speed>0.76</speed>
  <fix>3d</fix>
</trkpt>
<trkpt lat="40.0728403" lon="-105.2306092">
  <ele>1596.28</ele>
  <time>2026-08-28T19:12:07Z</time>
  <course>9.3</course>
  <speed>0.7256721022610694</speed>
  <fix>3d</fix>
</trkpt>
<trkpt lat="40.0728405" lon="-105.2306079">
  <ele>1595.91</ele>
  <time>2026-08-28T19:12:07Z</time>
  <course>260.72</course>
  <speed>0.75</speed>
  <fix>3d</fix>
</trkpt>
<trkpt lat="40.07284" lon="-105.2306109">
  <ele>1596.42</ele>
  <time>2026-08-28T19:12:07Z</time>
  <course>10.18</course>
  <speed>0.6963476143421474</speed>
  <fix>3d</fix>
</trkpt>
<trkpt lat="40.0728402" lon="-105.2306096">
  <ele>1596.1</ele>
  <time>2026-08-28T19:12:07Z</time>
  <course>260.59</course>
  <speed>0.72</speed>
  <fix>3d</fix>
</trkpt>
<trkpt lat="40.0728398" lon="-105.2306124">
  <ele>1596.5</ele>
  <time>2026-08-28T19:12:07Z</time>
  <course>10.58</course>
  <speed>0.6670832032063168</speed>
  <fix>3d</fix>
</trkpt>
<trkpt lat="40.0728401" lon="-105.2306112">
  <ele>1596.22</ele>
  <time>2026-08-28T19:12:07Z</time>
  <course>260.49</course>
  <speed>0.69</speed>
  <fix>3d</fix>
</trkpt>
<trkpt lat="40.0728396" lon="-105.2306139">
  <ele>1596.54</ele>
  <time>2026-08-28T19:12:07Z</time>
  <course>10.77</course>
  <speed>0.6281719509815764</speed>
  <fix>3d</fix>
</trkpt>
<trkpt lat="40.0728399" lon="-105.2306128">
  <ele>1596.29</ele>
  <time>2026-08-28T19:12:07Z</time>
  <course>260.38</course>
  <speed>0.66</speed>
  <fix>3d</fix>
</trkpt>
<trkpt lat="40.0728394" lon="-105.2306153">
  <ele>1596.58</ele>
  <time>2026-08-28T19:12:07Z</time>
  <course>10.73</course>
  <speed>0.5869412236331676</speed>
  <fix>3d</fix>
</trkpt>
<trkpt lat="40.0728396" lon="-105.2306143">
  <ele>1596.34</ele>
  <time>2026-08-28T19:12:07Z</time>
  <course>260.29</course>
  <speed>0.62</speed>
  <fix>3d</fix>
</trkpt>
<trkpt lat="40.0728392" lon="-105.2306166">
  <ele>1596.62</ele>
  <time>2026-08-28T19:12:07Z</time>
  <course>10.73</course>
  <speed>0.5166236541235796</speed>
  <fix>3d</fix>
</trkpt>
<trkpt lat="40.0728395" lon="-105.2306157">
  <ele>1596.38</ele>
  <time>2026-08-28T19:12:07Z</time>
  <course>260.46</course>
  <speed>0.58</speed>
  <fix>3d</fix>
</trkpt>
<trkpt lat="40.0728391" lon="-105.2306178">
  <ele>1596.66</ele>
  <time>2026-08-28T19:12:07Z</time>
  <course>10.71</course>
  <speed>0.4341658669218482</speed>
  <fix>3d</fix>
</trkpt>
<trkpt lat="40.0728393" lon="-105.230617">
  <ele>1596.41</ele>
  <time>2026-08-28T19:12:07Z</time>
  <course>261.34</course>
  <speed>0.51</speed>
  <fix>3d</fix>
</trkpt>
<trkpt lat="40.072839" lon="-105.2306187">
  <ele>1596.71</ele>
  <time>2026-08-28T19:12:07Z</time>
  <course>10.64</course>
  <speed>0.35171010790137947</speed>
  <fix>3d</fix>
</trkpt>
<trkpt lat="40.0728392" lon="-105.2306181">
  <ele>1596.45</ele>
  <time>2026-08-28T19:12:07Z</time>
  <course>263.35</course>
  <speed>0.43</speed>
  <fix>3d</fix>
</trkpt>
<trkpt lat="40.0728389" lon="-105.2306195">
  <ele>1596.77</ele>
  <time>2026-08-28T19:12:07Z</time>
  <course>10.56</course>
  <speed>0.2765863337187866</speed>
  <fix>3d</fix>
</trkpt>
<trkpt lat="40.0728392" lon="-105.230619">
  <ele>1596.51</ele>
  <time>2026-08-28T19:12:07Z</time>
  <course>266.83</course>
  <speed>0.35</speed>
  <fix>3d</fix>
</trkpt>
<trkpt lat="40.072839" lon="-105.2306201">
  <ele>1596.85</ele>
  <time>2026-08-28T19:12:07Z</time>
  <course>10.51</course>
  <speed>0.2039607805437114</speed>
  <fix>3d</fix>
</trkpt>
<trkpt lat="40.0728392" lon="-105.2306198">
  <ele>1596.57</ele>
  <time>2026-08-28T19:12:07Z</time>
  <course>271.88</course>
  <speed>0.28</speed>
  <fix>3d</fix>
</trkpt>
<trkpt lat="40.072839" lon="-105.2306206">
  <ele>1596.94</ele>
  <time>2026-08-28T19:12:07Z</time>
  <course>10.52</course>
  <speed>0.15132745950421556</speed>
  <fix>3d</fix>
</trkpt>
<trkpt lat="40.0728392" lon="-105.2306204">
  <ele>1596.65</ele>
  <time>2026-08-28T19:12:07Z</time>
  <course>278.34</course>
  <speed>0.22</speed>
  <fix>3d</fix>
</trkpt>
<trkpt lat="40.0728391" lon="-105.2306209">
  <ele>1597.04</ele>
  <time>2026-08-28T19:12:07Z</time>
  <course>10.6</course>
  <speed>0.1004987562112089</speed>
  <fix>3d</fix>
</trkpt>
<trkpt lat="40.0728392" lon="-105.2306208">
  <ele>1596.75</ele>
  <time>2026-08-28T19:12:07Z</time>
  <course>286.21</course>
  <speed>0.17</speed>
  <fix>3d</fix>
</trkpt>
<trkpt lat="40.0728391" lon="-105.2306211">
  <ele>1597.15</ele>
  <time>2026-08-28T19:12:07Z</time>
  <course>10.78</course>
  <speed>0.05</speed>
  <fix>3d</fix>
</trkpt>
<trkpt lat="40.0728393" lon="-105.2306212">
  <ele>1596.86</ele>
  <time>2026-08-28T19:12:07Z</time>
  <course>296.11</course>
  <speed>0.12</speed>
  <fix>3d</fix>
</trkpt>
<trkpt lat="40.0728392" lon="-105.2306213">
  <ele>1597.27</ele>
  <time>2026-08-28T19:12:07Z</time>
  <course>11.03</course>
  <speed>0.01</speed>
  <fix>3d</fix>
</trkpt>
<trkpt lat="40.0728393" lon="-105.2306214">
  <ele>1596.98</ele>
  <time>2026-08-28T19:12:07Z</time>
  <course>310.02</course>
  <speed>0.09</speed>
  <fix>3d</fix>
</trkpt>
<trkpt lat="40.0728393" lon="-105.2306213">
  <ele>1597.38</ele>
  <time>2026-08-28T19:12:07Z</time>
  <course>11.29</course>
  <speed>0.01</speed>
  <fix>3d</fix>
</trkpt>
<trkpt lat="40.0728394" lon="-105.2306215">
  <ele>1597.1</ele>
  <time>2026-08-28T19:12:07Z</time>
  <course>332.95</course>
  <speed>0.06</speed>
  <fix>3d</fix>
</trkpt>
<trkpt lat="40.0728394" lon="-105.2306213">
  <ele>1597.49</ele>
  <time>2026-08-28T19:12:07Z</time>
  <course>11.54</course>
  <speed>0.04</speed>
  <fix>3d</fix>
</trkpt>
<trkpt lat="40.0728395" lon="-105.2306215">
  <ele>1597.21</ele>
  <time>2026-08-28T19:12:07Z</time>
  <course>9.58</course>
  <speed>0.04</speed>
  <fix>3d</fix>
</trkpt>
<trkpt lat="40.0728394" lon="-105.2306213">
  <ele>1597.6</ele>
  <time>2026-08-28T19:12:07Z</time>
  <course>11.79</course>
  <speed>0.08062257748298549</speed>
  <fix>3d</fix>
</trkpt>
<trkpt lat="40.0728396" lon="-105.2306215">
  <ele>1597.32</ele>
  <time>2026-08-28T19:12:07Z</time>
  <course>45.61</course>
  <speed>0.05</speed>
  <fix>3d</fix>
</trkpt>
<trkpt lat="40.0728395" lon="-105.2306211">
  <ele>1597.69</ele>
  <time>2026-08-28T19:12:07Z</time>
  <course>12.08</course>
  <speed>0.13152946437965907</speed>
  <fix>3d</fix>
</trkpt>
<trkpt lat="40.0728397" lon="-105.2306214">
  <ele>1597.42</ele>
  <time>2026-08-28T19:12:07Z</time>
  <course>68.84</course>
  <speed>0.08</speed>
  <fix>3d</fix>
</trkpt>
<trkpt lat="40.0728395" lon="-105.2306207">
  <ele>1597.77</ele>
  <time>2026-08-28T19:12:07Z</time>
  <course>12.37</course>
  <speed>0.2109502310972899</speed>
  <fix>3d</fix>
</trkpt>
<trkpt lat="40.0728397" lon="-105.2306212">
  <ele>1597.52</ele>
  <time>2026-08-28T19:12:07Z</time>
  <course>81.1</course>
  <speed>0.13</speed>
  <fix>3d</fix>
</trkpt>
<trkpt lat="40.0728395" lon="-105.2306201">
  <ele>1597.82</ele>
  <time>2026-08-28T19:12:07Z</time>
  <course>9.65</course>
  <speed>0.36124783736376886</speed>
  <fix>3d</fix>
</trkpt>
<trkpt lat="40.0728397" lon="-105.2306208">
  <ele>1597.6</ele>
  <time>2026-08-28T19:12:07Z</time>
  <course>86.32</course>
  <speed>0.23</speed>
  <fix>3d</fix>
</trkpt>
<trkpt lat="40.0728395" lon="-105.2306192">
  <ele>1597.85</ele>
  <time>2026-08-28T19:12:07Z</time>
  <course>8.22</course>
  <speed>0.49040799340956914</speed>
  <fix>3d</fix>
</trkpt>
<trkpt lat="40.0728397" lon="-105.2306201">
  <ele>1597.65</ele>
  <time>2026-08-28T19:12:07Z</time>
  <course>87.6</course>
  <speed>0.36</speed>
  <fix>3d</fix>
</trkpt>
<trkpt lat="40.0728396" lon="-105.2306178">
  <ele>1597.85</ele>
  <time>2026-08-28T19:12:07Z</time>
  <course>8.52</course>
  <speed>0.6800735254367721</speed>
  <fix>3d</fix>
</trkpt>
<trkpt lat="40.0728398" lon="-105.230619">
  <ele>1597.67</ele>
  <time>2026-08-28T19:12:07Z</time>
  <course>87.3</course>
  <speed>0.51</speed>
  <fix>3d</fix>
</trkpt>
<trkpt lat="40.0728396" lon="-105.230616">
  <ele>1597.84</ele>
  <time>2026-08-28T19:12:07Z</time>
  <course>8.57</course>
  <speed>0.89</speed>
  <fix>3d</fix>
</trkpt>
<trkpt lat="40.0728399" lon="-105.2306176">
  <ele>1597.69</ele>
  <time>2026-08-28T19:12:07Z</time>
  <course>86.54</course>
  <speed>0.69</speed>
  <fix>3d</fix>
</trkpt>
<trkpt lat="40.0728398" lon="-105.2306138">
  <ele>1597.83</ele>
  <time>2026-08-28T19:12:07Z</time>
  <course>9.28</course>
  <speed>1.0707474025184465</speed>
  <fix>3d</fix>
</trkpt>
<trkpt lat="40.07284" lon="-105.2306157">
  <ele>1597.68</ele>
  <time>2026-08-28T19:12:07Z</time>
  <course>85.6</course>
  <speed>0.9</speed>
  <fix>3d</fix>
</trkpt>
<trkpt lat="40.07284" lon="-105.2306112">
  <ele>1597.81</ele>
  <time>2026-08-28T19:12:07Z</time>
  <course>20.24</course>
  <speed>1.2240914998479484</speed>
  <fix>3d</fix>
</trkpt>
<trkpt lat="40.0728402" lon="-105.2306134">
  <ele>1597.67</ele>
  <time>2026-08-28T19:12:07Z</time>
  <course>84.19</course>
  <speed>1.08</speed>
  <fix>3d</fix>
</trkpt>
<trkpt lat="40.0728403" lon="-105.2306081">
  <ele>1597.8</ele>
  <time>2026-08-28T19:12:07Z</time>
  <course>33.32</course>
  <speed>1.4003570973148243</speed>
  <fix>3d</fix>
</trkpt>
<trkpt lat="40.0728404" lon="-105.2306107">
  <ele>1597.66</ele>
  <time>2026-08-28T19:12:07Z</time>
  <course>82.29</course>
  <speed>1.24</speed>
  <fix>3d</fix>
</trkpt>
<trkpt lat="40.0728408" lon="-105.2306048">
  <ele>1597.79</ele>
  <time>2026-08-28T19:12:07Z</time>
  <course>45.93</course>
  <speed>1.5519342769589182</speed>
  <fix>3d</fix>
</trkpt>
<trkpt lat="40.0728407" lon="-105.2306076">
  <ele>1597.65</ele>
  <time>2026-08-28T19:12:07Z</time>
  <course>80.27</course>
  <speed>1.41</speed>
  <fix>3d</fix>
</trkpt>
<trkpt lat="40.0728415" lon="-105.2306011">
  <ele>1597.79</ele>
  <time>2026-08-28T19:12:07Z</time>
  <course>58.19</course>
  <speed>1.663069451345914</speed>
  <fix>3d</fix>
</trkpt>
<trkpt lat="40.0728412" lon="-105.2306041">
  <ele>1597.64</ele>
  <time>2026-08-28T19:12:07Z</time>
  <course>78.33</course>
  <speed>1.56</speed>
  <fix>3d</fix>
</trkpt>
<trkpt lat="40.0728422" lon="-105.2305973">
  <ele>1597.78</ele>
  <time>2026-08-28T19:12:07Z</time>
  <course>70.54</course>
  <speed>1.7300289014926888</speed>
  <fix>3d</fix>
</trkpt>
<trkpt lat="40.0728419" lon="-105.2306005">
  <ele>1597.64</ele>
  <time>2026-08-28T19:12:07Z</time>
  <course>76.9</course>
  <speed>1.66</speed>
  <fix>3d</fix>
</trkpt>
<trkpt lat="40.0728429" lon="-105.2305933">
  <ele>1597.78</ele>
  <time>2026-08-28T19:12:07Z</time>
  <course>77.23</course>
  <speed>1.7513708916160504</speed>
  <fix>3d</fix>
</trkpt>
<trkpt lat="40.0728426" lon="-105.2305965">
  <ele>1597.64</ele>
  <time>2026-08-28T19:12:07Z</time>
  <course>76.85</course>
  <speed>1.73</speed>
  <fix>3d</fix>
</trkpt>
<trkpt lat="40.0728435" lon="-105.2305894">
  <ele>1597.79</ele>
  <time>2026-08-28T19:12:07Z</time>
  <course>77.31</course>
  <speed>1.7262676501632068</speed>
  <fix>3d</fix>
</trkpt>
<trkpt lat="40.0728433" lon="-105.2305926">
  <ele>1597.65</ele>
  <time>2026-08-28T19:12:07Z</time>
  <course>78.01</course>
  <speed>1.74</speed>
  <fix>3d</fix>
</trkpt>
<trkpt lat="40.0728441" lon="-105.2305855">
  <ele>1597.79</ele>
  <time>2026-08-28T19:12:07Z</time>
  <course>77.45</course>
  <speed>1.6620770138594663</speed>
  <fix>3d</fix>
</trkpt>
<trkpt lat="40.0728438" lon="-105.2305886">
  <ele>1597.66</ele>
  <time>2026-08-28T19:12:07Z</time>
  <course>79.13</course>
  <speed>1.71</speed>
  <fix>3d</fix>
</trkpt>
<trkpt lat="40.0728446" lon="-105.2305817">
  <ele>1597.8</ele>
  <time>2026-08-28T19:12:07Z</time>
  <course>78.57</course>
  <speed>1.5754364474646383</speed>
  <fix>3d</fix>
</trkpt>
<trkpt lat="40.0728444" lon="-105.2305847">
  <ele>1597.67</ele>
  <time>2026-08-28T19:12:07Z</time>
  <course>80.14</course>
  <speed>1.65</speed>
  <fix>3d</fix>
</trkpt>
<trkpt lat="40.072845" lon="-105.2305782">
  <ele>1597.8</ele>
  <time>2026-08-28T19:12:07Z</time>
  <course>80.24</course>
  <speed>1.438923208513922</speed>
  <fix>3d</fix>
</trkpt>
<trkpt lat="40.0728448" lon="-105.230581">
  <ele>1597.68</ele>
  <time>2026-08-28T19:12:07Z</time>
  <course>81.47</course>
  <speed>1.55</speed>
  <fix>3d</fix>
</trkpt>
<trkpt lat="40.0728453" lon="-105.230575">
  <ele>1597.8</ele>
  <time>2026-08-28T19:12:07Z</time>
  <course>82.22</course>
  <speed>1.2639620247459968</speed>
  <fix>3d</fix>
</trkpt>
<trkpt lat="40.0728453" lon="-105.2305775">
  <ele>1597.69</ele>
  <time>2026-08-28T19:12:07Z</time>
  <course>83.1</course>
  <speed>1.41</speed>
  <fix>3d</fix>
</trkpt>
<trkpt lat="40.0728454" lon="-105.2305723">
  <ele>1597.81</ele>
  <time>2026-08-28T19:12:07Z</time>
  <course>84.56</course>
  <speed>1.0407689465006151</speed>
  <fix>3d</fix>
</trkpt>
<trkpt lat="40.0728455" lon="-105.2305744">
  <ele>1597.7</ele>
  <time>2026-08-28T19:12:07Z</time>
  <course>85.03</course>
  <speed>1.23</speed>
  <fix>3d</fix>
</trkpt>
<trkpt lat="40.0728455" lon="-105.2305702">
  <ele>1597.81</ele>
  <time>2026-08-28T19:12:07Z</time>
  <course>86.41</course>
  <speed>0.7805767098754611</speed>
  <fix>3d</fix>
</trkpt>
<trkpt lat="40.0728456" lon="-105.2305717">
  <ele>1597.7</ele>
  <time>2026-08-28T19:12:07Z</time>
  <course>87.7</course>
  <speed>1.0</speed>
  <fix>3d</fix>
</trkpt>
<trkpt lat="40.0728454" lon="-105.2305686">
  <ele>1597.81</ele>
  <time>2026-08-28T19:12:07Z</time>
  <course>86.29</course>
  <speed>0.498196748283246</speed>
  <fix>3d</fix>
</trkpt>
<trkpt lat="40.0728456" lon="-105.2305697">
  <ele>1597.71</ele>
  <time>2026-08-28T19:12:07Z</time>
  <course>92.41</course>
  <speed>0.73</speed>
  <fix>3d</fix>
</trkpt>
<trkpt lat="40.0728452" lon="-105.2305678">
  <ele>1597.81</ele>
  <time>2026-08-28T19:12:08Z</time>
  <course>86.19</course>
  <speed>0.24413111231467405</speed>
  <fix>3d</fix>
</trkpt>
<trkpt lat="40.0728456" lon="-105.2305683">
  <ele>1597.71</ele>
  <time>2026-08-28T19:12:08Z</time>
  <course>102.39</course>
  <speed>0.45</speed>
  <fix>3d</fix>
</trkpt>
<trkpt lat="40.072845" lon="-105.2305676">
  <ele>1597.81</ele>
  <time>2026-08-28T19:12:08Z</time>
  <course>86.15</course>
  <speed>0.20615528128088303</speed>
  <fix>3d</fix>
</trkpt>
<trkpt lat="40.0728454" lon="-105.2305676">
  <ele>1597.71</ele>
  <time>2026-08-28T19:12:08Z</time>
  <course>135.53</course>
  <speed>0.22</speed>
  <fix>3d</fix>
</trkpt>
<trkpt lat="40.0728446" lon="-105.2305679">
  <ele>1597.8</ele>
  <time>2026-08-28T19:12:08Z</time>
  <course>86.07</course>
  <speed>0.36069377593742863</speed>
  <fix>3d</fix>
</trkpt>
<trkpt lat="40.072845" lon="-105.2305676">
  <ele>1597.7</ele>
  <time>2026-08-28T19:12:08Z</time>
  <course>206.91</course>
  <speed>0.23</speed>
  <fix>3d</fix>
</trkpt>
<trkpt lat="40.0728442" lon="-105.2305687">
  <ele>1597.8</ele>
  <time>2026-08-28T19:12:08Z</time>
  <course>86.0</course>
  <speed>0.4882622246293481</speed>
  <fix>3d</fix>
</trkpt>
<trkpt lat="40.0728446" lon="-105.230568">
  <ele>1597.7</ele>
  <time>2026-08-28T19:12:08Z</time>
  <course>230.3</course>
  <speed>0.41</speed>
  <fix>3d</fix>
</trkpt>
<trkpt lat="40.0728436" lon="-105.2305697">
  <ele>1597.8</ele>
  <time>2026-08-28T19:12:08Z</time>
  <course>85.96</course>
  <speed>0.5575840743780259</speed>
  <fix>3d</fix>
</trkpt>
<trkpt lat="40.0728441" lon="-105.2305689">
  <ele>1597.69</ele>
  <time>2026-08-28T19:12:08Z</time>
  <course>236.76</course>
  <speed>0.54</speed>
  <fix>3d</fix>
</trkpt>
<trkpt lat="40.0728431" lon="-105.2305709">
  <ele>1597.8</ele>
  <time>2026-08-28T19:12:08Z</time>
  <course>85.93</course>
  <speed>0.5660388679233962</speed>
  <fix>3d</fix>
</trkpt>
<trkpt lat="40.0728436" lon="-105.2305701">
  <ele>1597.69</ele>
  <time>2026-08-28T19:12:08Z</time>
  <course>238.93</course>
  <speed>0.61</speed>
  <fix>3d</fix>
</trkpt>
<trkpt lat="40.0728425" lon="-105.2305721">
  <ele>1597.8</ele>
  <time>2026-08-28T19:12:08Z</time>
  <course>79.46</course>
  <speed>0.5560575509783138</speed>
  <fix>3d</fix>
</trkpt>
<trkpt lat="40.0728429" lon="-105.2305713">
  <ele>1597.69</ele>
  <time>2026-08-28T19:12:08Z</time>
  <course>237.99</course>
  <speed>0.62</speed>
  <fix>3d</fix>
</trkpt>
<trkpt lat="40.0728419" lon="-105.2305731">
  <ele>1597.8</ele>
  <time>2026-08-28T19:12:08Z</time>
  <course>65.67</course>
  <speed>0.5080354318352215</speed>
  <fix>3d</fix>
</trkpt>
<trkpt lat="40.0728424" lon="-105.2305725">
  <ele>1597.69</ele>
  <time>2026-08-28T19:12:08Z</time>
  <course>235.63</course>
  <speed>0.59</speed>
  <fix>3d</fix>
</trkpt>
<trkpt lat="40.0728414" lon="-105.2305742">
  <ele>1597.81</ele>
  <time>2026-08-28T19:12:08Z</time>
  <course>52.92</course>
  <speed>0.4632493928760188</speed>
  <fix>3d</fix>
</trkpt>
<trkpt lat="40.0728418" lon="-105.2305736">
  <ele>1597.69</ele>
  <time>2026-08-28T19:12:08Z</time>
  <course>236.21</course>
  <speed>0.54</speed>
  <fix>3d</fix>
</trkpt>
<trkpt lat="40.072841" lon="-105.2305752">
  <ele>1597.81</ele>
  <time>2026-08-28T19:12:08Z</time>
  <course>40.87</course>
  <speed>0.425440947723653</speed>
  <fix>3d</fix>
</trkpt>
<trkpt lat="40.0728413" lon="-105.2305746">
  <ele>1597.69</ele>
  <time>2026-08-28T19:12:08Z</time>
  <course>239.52</course>
  <speed>0.49</speed>
  <fix>3d</fix>
</trkpt>
<trkpt lat="40.0728406" lon="-105.2305761">
  <ele>1597.81</ele>
  <time>2026-08-28T19:12:08Z</time>
  <course>29.02</course>
  <speed>0.40311288741492746</speed>
  <fix>3d</fix>
</trkpt>
<trkpt lat="40.0728409" lon="-105.2305757">
  <ele>1597.69</ele>
  <time>2026-08-28T19:12:08Z</time>
  <course>242.05</course>
  <speed>0.46</speed>
  <fix>3d</fix>
</trkpt>
<trkpt lat="40.0728402" lon="-105.230577">
  <ele>1597.81</ele>
  <time>2026-08-28T19:12:08Z</time>
  <course>17.21</course>
  <speed>0.38078865529319544</speed>
  <fix>3d</fix>
</trkpt>
<trkpt lat="40.0728405" lon="-105.2305766">
  <ele>1597.7</ele>
  <time>2026-08-28T19:12:08Z</time>
  <course>242.58</course>
  <speed>0.42</speed>
  <fix>3d</fix>
</trkpt>
<trkpt lat="40.0728399" lon="-105.2305779">
  <ele>1597.81</ele>
  <time>2026-08-28T19:12:08Z</time>
  <course>14.57</course>
  <speed>0.3712142238654117</speed>
  <fix>3d</fix>
</trkpt>
<trkpt lat="40.0728402" lon="-105.2305775">
  <ele>1597.7</ele>
  <time>2026-08-28T19:12:08Z</time>
  <course>243.61</course>
  <speed>0.4</speed>
  <fix>3d</fix>
</trkpt>
<trkpt lat="40.0728396" lon="-105.2305786">
  <ele>1597.81</ele>
  <time>2026-08-28T19:12:08Z</time>
  <course>15.83</course>
  <speed>0.2968164415931166</speed>
  <fix>3d</fix>
</trkpt>
<trkpt lat="40.0728399" lon="-105.2305782">
  <ele>1597.7</ele>
  <time>2026-08-28T19:12:08Z</time>
  <course>244.19</course>
  <speed>0.37</speed>
  <fix>3d</fix>
</trkpt>
<trkpt lat="40.0728394" lon="-105.2305792">
  <ele>1597.81</ele>
  <time>2026-08-28T19:12:08Z</time>
  <course>16.24</course>
  <speed>0.21400934559032694</speed>
  <fix>3d</fix>
</trkpt>
<trkpt lat="40.0728396" lon="-105.230579">
  <ele>1597.69</ele>
  <time>2026-08-28T19:12:08Z</time>
  <course>241.85</course>
  <speed>0.29</speed>
  <fix>3d</fix>
</trkpt>
<trkpt lat="40.0728392" lon="-105.2305796">
  <ele>1597.81</ele>
  <time>2026-08-28T19:12:08Z</time>
  <course>16.28</course>
  <speed>0.1345362404707371</speed>
  <fix>3d</fix>
</trkpt>
<trkpt lat="40.0728394" lon="-105.2305795">
  <ele>1597.69</ele>
  <time>2026-08-28T19:12:08Z</time>
  <course>238.98</course>
  <speed>0.2</speed>
  <fix>3d</fix>
</trkpt>
<trkpt lat="40.0728391" lon="-105.2305798">
  <ele>1597.8</ele>
  <time>2026-08-28T19:12:08Z</time>
  <course>16.28</course>
  <speed>0.05</speed>
  <fix>3d</fix>
</trkpt>
<trkpt lat="40.0728392" lon="-105.2305798">
  <ele>1597.69</ele>
  <time>2026-08-28T19:12:08Z</time>
  <course>237.84</course>
  <speed>0.11</speed>
  <fix>3d</fix>
</trkpt>
<trkpt lat="40.0728391" lon="-105.2305798">
  <ele>1597.8</ele>
  <time>2026-08-28T19:12:08Z</time>
  <course>16.3</course>
  <speed>0.01</speed>
  <fix>3d</fix>
</trkpt>
<trkpt lat="40.0728392" lon="-105.2305799">
  <ele>1597.69</ele>
  <time>2026-08-28T19:12:08Z</time>
  <course>246.09</course>
  <speed>0.03</speed>
  <fix>3d</fix>
</trkpt>
<trkpt lat="40.0728392" lon="-105.2305797">
  <ele>1597.8</ele>
  <time>2026-08-28T19:12:08Z</time>
  <course>16.33</course>
  <speed>0.0670820393249937</speed>
  <fix>3d</fix>
</trkpt>
<trkpt lat="40.0728392" lon="-105.2305799">
  <ele>1597.69</ele>
  <time>2026-08-28T19:12:08Z</time>
  <course>37.11</course>
  <speed>0.04</speed>
  <fix>3d</fix>
</trkpt>
<trkpt lat="40.0728392" lon="-105.2305795">
  <ele>1597.8</ele>
  <time>2026-08-28T19:12:08Z</time>
  <course>16.36</course>
  <speed>0.12206555615733702</speed>
  <fix>3d</fix>
</trkpt>
<trkpt lat="40.0728392" lon="-105.2305799">
  <ele>1597.69</ele>
  <time>2026-08-28T19:12:08Z</time>
  <course>44.59</course>
  <speed>0.1</speed>
  <fix>3d</fix>
</trkpt>
<trkpt lat="40.0728394" lon="-105.2305794">
  <ele>1597.8</ele>
  <time>2026-08-28T19:12:08Z</time>
  <course>16.4</course>
  <speed>0.17204650534085253</speed>
  <fix>3d</fix>
</trkpt>
<trkpt lat="40.0728394" lon="-105.2305797">
  <ele>1597.69</ele>
  <time>2026-08-28T19:12:08Z</time>
  <course>46.02</course>
  <speed>0.16</speed>
  <fix>3d</fix>
</trkpt>
<trkpt lat="40.0728396" lon="-105.230579">
  <ele>1597.8</ele>
  <time>2026-08-28T19:12:08Z</time>
  <course>16.44</course>
  <speed>0.20808652046684814</speed>
  <fix>3d</fix>
</trkpt>
<trkpt lat="40.0728395" lon="-105.2305794">
  <ele>1597.69</ele>
  <time>2026-08-28T19:12:08Z</time>
  <course>46.53</course>
  <speed>0.21</speed>
  <fix>3d</fix>
</trkpt>
<trkpt lat="40.0728399" lon="-105.2305786">
  <ele>1597.8</ele>
  <time>2026-08-28T19:12:08Z</time>
  <course>16.48</course>
  <speed>0.22803508501982758</speed>
  <fix>3d</fix>
</trkpt>
<trkpt lat="40.0728399" lon="-105.230579">
  <ele>1597.69</ele>
  <time>2026-08-28T19:12:08Z</time>
  <course>46.71</course>
  <speed>0.25</speed>
  <fix>3d</fix>
</trkpt>
<trkpt lat="40.0728403" lon="-105.2305781">
  <ele>1597.8</ele>
  <time>2026-08-28T19:12:08Z</time>
  <course>16.52</course>
  <speed>0.25</speed>
  <fix>3d</fix>
</trkpt>
<trkpt lat="40.0728402" lon="-105.2305786">
  <ele>1597.69</ele>
  <time>2026-08-28T19:12:08Z</time>
  <course>46.71</course>
  <speed>0.27</speed>
  <fix>3d</fix>
</trkpt>
<trkpt lat="40.0728406" lon="-105.2305776">
  <ele>1597.8</ele>
  <time>2026-08-28T19:12:08Z</time>
  <course>16.56</course>
  <speed>0.25612496949731395</speed>
  <fix>3d</fix>
</trkpt>
<trkpt lat="40.0728406" lon="-105.2305781">
  <ele>1597.69</ele>
  <time>2026-08-28T19:12:08Z</time>
  <course>46.75</course>
  <speed>0.29</speed>
  <fix>3d</fix>
</trkpt>
<trkpt lat="40.072841" lon="-105.2305772">
  <ele>1597.8</ele>
  <time>2026-08-28T19:12:08Z</time>
  <course>16.61</course>
  <speed>0.25612496949731395</speed>
  <fix>3d</fix>
</trkpt>
<trkpt lat="40.0728409" lon="-105.2305776">
  <ele>1597.69</ele>
  <time>2026-08-28T19:12:08Z</time>
  <course>46.93</course>
  <speed>0.3</speed>
  <fix>3d</fix>
</trkpt>
<trkpt lat="40.0728413" lon="-105.2305767">
  <ele>1597.8</ele>
  <time>2026-08-28T19:12:08Z</time>
  <course>16.65</course>
  <speed>0.25</speed>
  <fix>3d</fix>
</trkpt>
<trkpt lat="40.0728412" lon="-105.230577">
  <ele>1597.69</ele>
  <time>2026-08-28T19:12:08Z</time>
  <course>47.21</course>
  <speed>0.3</speed>
  <fix>3d</fix>
</trkpt>
<trkpt lat="40.0728416" lon="-105.2305762">
  <ele>1597.8</ele>
  <time>2026-08-28T19:12:08Z</time>
  <course>16.69</course>
  <speed>0.23600847442411893</speed>
  <fix>3d</fix>
</trkpt>
<trkpt lat="40.0728417" lon="-105.2305765">
  <ele>1597.7</ele>
  <time>2026-08-28T19:12:08Z</time>
  <course>47.6</course>
  <speed>0.29</speed>
  <fix>3d</fix>
</trkpt>
<trkpt lat="40.072842" lon="-105.2305757">
  <ele>1597.8</ele>
  <time>2026-08-28T19:12:08Z</time>
  <course>16.73</course>
  <speed>0.20808652046684814</speed>
  <fix>3d</fix>
</trkpt>
<trkpt lat="40.072842" lon="-105.230576">
  <ele>1597.7</ele>
  <time>2026-08-28T19:12:08Z</time>
  <course>48.22</course>
  <speed>0.27</speed>
  <fix>3d</fix>
</trkpt>
<trkpt lat="40.0728422" lon="-105.2305753">
  <ele>1597.8</ele>
  <time>2026-08-28T19:12:08Z</time>
  <course>16.78</course>
  <speed>0.18027756377319945</speed>
  <fix>3d</fix>
</trkpt>
<trkpt lat="40.0728423" lon="-105.2305756">
  <ele>1597.7</ele>
  <time>2026-08-28T19:12:08Z</time>
  <course>49.27</course>
  <speed>0.24</speed>
  <fix>3d</fix>
</trkpt>
<trkpt lat="40.0728425" lon="-105.2305749">
  <ele>1597.8</ele>
  <time>2026-08-28T19:12:08Z</time>
  <course>16.81</course>
  <speed>0.147648230602334</speed>
  <fix>3d</fix>
</trkpt>
<trkpt lat="40.0728426" lon="-105.2305752">
  <ele>1597.7</ele>
  <time>2026-08-28T19:12:08Z</time>
  <course>50.8</course>
  <speed>0.21</speed>
  <fix>3d</fix>
</trkpt>
<trkpt lat="40.0728426" lon="-105.2305746">
  <ele>1597.79</ele>
  <time>2026-08-28T19:12:08Z</time>
  <course>16.87</course>
  <speed>0.12083045973594572</speed>
  <fix>3d</fix>
</trkpt>
<trkpt lat="40.0728427" lon="-105.2305748">
  <ele>1597.7</ele>
  <time>2026-08-28T19:12:08Z</time>
  <course>52.77</course>
  <speed>0.18</speed>
  <fix>3d</fix>
</trkpt>
<trkpt lat="40.0728428" lon="-105.2305743">
  <ele>1597.77</ele>
  <time>2026-08-28T19:12:08Z</time>
  <course>17.17</course>
  <speed>0.09219544457292887</speed>
  <fix>3d</fix>
</trkpt>
<trkpt lat="40.072843" lon="-105.2305744">
  <ele>1597.69</ele>
  <time>2026-08-28T19:12:08Z</time>
  <course>55.1</course>
  <speed>0.15</speed>
  <fix>3d</fix>
</trkpt>
<trkpt lat="40.0728429" lon="-105.2305741">
  <ele>1597.72</ele>
  <time>2026-08-28T19:12:08Z</time>
  <course>17.54</course>
  <speed>0.07</speed>
  <fix>3d</fix>
</trkpt>
<trkpt lat="40.0728431" lon="-105.2305742">
  <ele>1597.67</ele>
  <time>2026-08-28T19:12:08Z</time>
  <course>58.48</course>
  <speed>0.11</speed>
  <fix>3d</fix>
</trkpt>
<trkpt lat="40.0728429" lon="-105.230574">
  <ele>1597.63</ele>
  <time>2026-08-28T19:12:08Z</time>
  <course>17.87</course>
  <speed>0.05099019513592785</speed>
  <fix>3d</fix>
</trkpt>
<trkpt lat="40.0728432" lon="-105.2305739">
  <ele>1597.62</ele>
  <time>2026-08-28T19:12:08Z</time>
  <course>64.86</course>
  <speed>0.08</speed>
  <fix>3d</fix>
</trkpt>
<trkpt lat="40.072843" lon="-105.2305738">
  <ele>1597.5</ele>
  <time>2026-08-28T19:12:08Z</time>
  <course>18.16</course>
  <speed>0.04242640687119285</speed>
  <fix>3d</fix>
</trkpt>
<trkpt lat="40.0728432" lon="-105.2305738">
  <ele>1597.52</ele>
  <time>2026-08-28T19:12:08Z</time>
  <course>77.48</course>
  <speed>0.05</speed>
  <fix>3d</fix>
</trkpt>
<trkpt lat="40.072843" lon="-105.2305737">
  <ele>1597.31</ele>
  <time>2026-08-28T19:12:08Z</time>
  <course>18.43</course>
  <speed>0.053851648071345036</speed>
  <fix>3d</fix>
</trkpt>
<trkpt lat="40.0728432" lon="-105.2305737">
  <ele>1597.38</ele>
  <time>2026-08-28T19:12:08Z</time>
  <course>102.02</course>
  <speed>0.04</speed>
  <fix>3d</fix>
</trkpt>
<trkpt lat="40.072843" lon="-105.2305737">
  <ele>1597.09</ele>
  <time>2026-08-28T19:12:08Z</time>
  <course>18.56</course>
  <speed>0.07071067811865475</speed>
  <fix>3d</fix>
</trkpt>
<trkpt lat="40.0728432" lon="-105.2305736">
  <ele>1597.19</ele>
  <time>2026-08-28T19:12:08Z</time>
  <course>136.56</course>
  <speed>0.04</speed>
  <fix>3d</fix>
</trkpt>
<trkpt lat="40.0728429" lon="-105.2305736">
  <ele>1596.85</ele>
  <time>2026-08-28T19:12:08Z</time>
  <course>18.34</course>
  <speed>0.08</speed>
  <fix>3d</fix>
</trkpt>
<trkpt lat="40.0728432" lon="-105.2305736">
  <ele>1596.97</ele>
  <time>2026-08-28T19:12:08Z</time>
  <course>161.44</course>
  <speed>0.05</speed>
  <fix>3d</fix>
</trkpt>
<trkpt lat="40.0728428" lon="-105.2305736">
  <ele>1596.63</ele>
  <time>2026-08-28T19:12:08Z</time>
  <course>17.89</course>
  <speed>0.1</speed>
  <fix>3d</fix>
</trkpt>
<trkpt lat="40.0728431" lon="-105.2305736">
  <ele>1596.74</ele>
  <time>2026-08-28T19:12:08Z</time>
  <course>174.98</course>
  <speed>0.06</speed>
  <fix>3d</fix>
</trkpt>
<trkpt lat="40.0728426" lon="-105.2305736">
  <ele>1596.45</ele>
  <time>2026-08-28T19:12:08Z</time>
  <course>17.49</course>
  <speed>0.11045361017187261</speed>
  <fix>3d</fix>
</trkpt>
<trkpt lat="40.072843" lon="-105.2305736">
  <ele>1596.53</ele>
  <time>2026-08-28T19:12:08Z</time>
  <course>185.09</course>
  <speed>0.08</speed>
  <fix>3d</fix>
</trkpt>
<trkpt lat="40.0728425" lon="-105.2305736">
  <ele>1596.31</ele>
  <time>2026-08-28T19:12:08Z</time>
  <course>17.31</course>
  <speed>0.11401754250991379</speed>
  <fix>3d</fix>
</trkpt>
<trkpt lat="40.0728429" lon="-105.2305736">
  <ele>1596.35</ele>
  <time>2026-08-28T19:12:08Z</time>
  <course>194.76</course>
  <speed>0.09</speed>
  <fix>3d</fix>
</trkpt>
<trkpt lat="40.0728423" lon="-105.2305737">
  <ele>1596.2</ele>
  <time>2026-08-28T19:12:08Z</time>
  <course>17.29</course>
  <speed>0.11704699910719625</speed>
  <fix>3d</fix>
</trkpt>
<trkpt lat="40.0728426" lon="-105.2305736">
  <ele>1596.21</ele>
  <time>2026-08-28T19:12:08Z</time>
  <course>203.95</course>
  <speed>0.1</speed>
  <fix>3d</fix>
</trkpt>
<trkpt lat="40.0728422" lon="-105.2305738">
  <ele>1596.1</ele>
  <time>2026-08-28T19:12:08Z</time>
  <course>17.32</course>
  <speed>0.1118033988749895</speed>
  <fix>3d</fix>
</trkpt>
<trkpt lat="40.0728425" lon="-105.2305737">
  <ele>1596.1</ele>
  <time>2026-08-28T19:12:08Z</time>
  <course>211.74</course>
  <speed>0.1</speed>
  <fix>3d</fix>
</trkpt>
<trkpt lat="40.0728421" lon="-105.230574">
  <ele>1596.01</ele>
  <time>2026-08-28T19:12:08Z</time>
  <course>17.37</course>
  <speed>0.10816653826391968</speed>
  <fix>3d</fix>
</trkpt>
<trkpt lat="40.0728424" lon="-105.2305738">
  <ele>1596.0</ele>
  <time>2026-08-28T19:12:08Z</time>
  <course>218.35</course>
  <speed>0.1</speed>
  <fix>3d</fix>
</trkpt>
<trkpt lat="40.0728419" lon="-105.2305741">
  <ele>1595.92</ele>
  <time>2026-08-28T19:12:08Z</time>
  <course>17.41</course>
  <speed>0.1</speed>
  <fix>3d</fix>
</trkpt>
<trkpt lat="40.0728422" lon="-105.2305739">
  <ele>1595.91</ele>
  <time>2026-08-28T19:12:08Z</time>
  <course>224.55</course>
  <speed>0.1</speed>
  <fix>3d</fix>
</trkpt>
<trkpt lat="40.0728418" lon="-105.2305743">
  <ele>1595.83</ele>
  <time>2026-08-28T19:12:08Z</time>
  <course>17.47</course>
  <speed>0.09899494936611665</speed>
  <fix>3d</fix>
</trkpt>
<trkpt lat="40.0728421" lon="-105.2305742">
  <ele>1595.82</ele>
  <time>2026-08-28T19:12:08Z</time>
  <course>230.63</course>
  <speed>0.1</speed>
  <fix>3d</fix>
</trkpt>
<trkpt lat="40.0728418" lon="-105.2305745">
  <ele>1595.74</ele>
  <time>2026-08-28T19:12:08Z</time>
  <course>17.5</course>
  <speed>0.09219544457292887</speed>
  <fix>3d</fix>
</trkpt>
<trkpt lat="40.072842" lon="-105.2305744">
  <ele>1595.73</ele>
  <time>2026-08-28T19:12:08Z</time>
  <course>236.84</course>
  <speed>0.1</speed>
  <fix>3d</fix>
</trkpt>
<trkpt lat="40.0728417" lon="-105.2305746">
  <ele>1595.65</ele>
  <time>2026-08-28T19:12:08Z</time>
  <course>17.53</course>
  <speed>0.07810249675906654</speed>
  <fix>3d</fix>
</trkpt>
<trkpt lat="40.0728419" lon="-105.2305745">
  <ele>1595.64</ele>
  <time>2026-08-28T19:12:08Z</time>
  <course>243.21</course>
  <speed>0.09</speed>
  <fix>3d</fix>
</trkpt>
<trkpt lat="40.0728417" lon="-105.2305748">
  <ele>1595.55</ele>
  <time>2026-08-28T19:12:08Z</time>
  <course>17.56</course>
  <speed>0.0670820393249937</speed>
  <fix>3d</fix>
</trkpt>
<trkpt lat="40.0728418" lon="-105.2305748">
  <ele>1595.55</ele>
  <time>2026-08-28T19:12:08Z</time>
  <course>249.66</course>
  <speed>0.09</speed>
  <fix>3d</fix>
</trkpt>
<trkpt lat="40.0728416" lon="-105.230575">
  <ele>1595.45</ele>
  <time>2026-08-28T19:12:08Z</time>
  <course>17.57</course>
  <speed>0.053851648071345036</speed>
  <fix>3d</fix>
</trkpt>
<trkpt lat="40.0728418" lon="-105.2305749">
  <ele>1595.46</ele>
  <time>2026-08-28T19:12:08Z</time>
  <course>256.65</course>
  <speed>0.08</speed>
  <fix>3d</fix>
</trkpt>
<trkpt lat="40.0728416" lon="-105.2305751">
  <ele>1595.36</ele>
  <time>2026-08-28T19:12:08Z</time>
  <course>17.58</course>
  <speed>0.0412310562561766</speed>
  <fix>3d</fix>
</trkpt>
<trkpt lat="40.0728418" lon="-105.2305752">
  <ele>1595.36</ele>
  <time>2026-08-28T19:12:08Z</time>
  <course>264.82</course>
  <speed>0.07</speed>
  <fix>3d</fix>
</trkpt>
<trkpt lat="40.0728416" lon="-105.2305753">
  <ele>1595.26</ele>
  <time>2026-08-28T19:12:08Z</time>
  <course>17.6</course>
  <speed>0.03</speed>
  <fix>3d</fix>
</trkpt>
<trkpt lat="40.0728418" lon="-105.2305753">
  <ele>1595.26</ele>
  <time>2026-08-28T19:12:08Z</time>
  <course>274.48</course>
  <speed>0.06</speed>
  <fix>3d</fix>
</trkpt>
<trkpt lat="40.0728416" lon="-105.2305754">
  <ele>1595.16</ele>
  <time>2026-08-28T19:12:08Z</time>
  <course>17.61</course>
  <speed>0.02</speed>
  <fix>3d</fix>
</trkpt>
<trkpt lat="40.0728418" lon="-105.2305754">
  <ele>1595.15</ele>
  <time>2026-08-28T19:12:08Z</time>
  <course>285.31</course>
  <speed>0.06</speed>
  <fix>3d</fix>
</trkpt>
<trkpt lat="40.0728417" lon="-105.2305755">
  <ele>1595.06</ele>
  <time>2026-08-28T19:12:08Z</time>
  <course>17.62</course>
  <speed>0.01414213562373095</speed>
  <fix>3d</fix>
</trkpt>
<trkpt lat="40.0728418" lon="-105.2305756">
  <ele>1595.06</ele>
  <time>2026-08-28T19:12:08Z</time>
  <course>296.68</course>
  <speed>0.05</speed>
  <fix>3d</fix>
</trkpt>
<trkpt lat="40.0728417" lon="-105.2305755">
  <ele>1594.96</ele>
  <time>2026-08-28T19:12:08Z</time>
  <course>17.63</course>
  <speed>0.01</speed>
  <fix>3d</fix>
</trkpt>
<trkpt lat="40.0728418" lon="-105.2305757">
  <ele>1594.96</ele>
  <time>2026-08-28T19:12:08Z</time>
  <course>308.23</course>
  <speed>0.05</speed>
  <fix>3d</fix>
</trkpt>
<trkpt lat="40.0728418" lon="-105.2305756">
  <ele>1594.85</ele>
  <time>2026-08-28T19:12:08Z</time>
  <course>17.64</course>
  <speed>0.01</speed>
  <fix>3d</fix>
</trkpt>
<trkpt lat="40.0728418" lon="-105.2305758">
  <ele>1594.86</ele>
  <time>2026-08-28T19:12:08Z</time>
  <course>320.36</course>
  <speed>0.04</speed>
  <fix>3d</fix>
</trkpt>
<trkpt lat="40.0728418" lon="-105.2305756">
  <ele>1594.75</ele>
  <time>2026-08-28T19:12:08Z</time>
  <course>17.65</course>
  <speed>0.02</speed>
  <fix>3d</fix>
</trkpt>
<trkpt lat="40.0728419" lon="-105.2305758">
  <ele>1594.76</ele>
  <time>2026-08-28T19:12:08Z</time>
  <course>333.11</course>
  <speed>0.04</speed>
  <fix>3d</fix>
</trkpt>
<trkpt lat="40.0728419" lon="-105.2305757">
  <ele>1594.65</ele>
  <time>2026-08-28T19:12:08Z</time>
  <course>17.66</course>
  <speed>0.022360679774997897</speed>
  <fix>3d</fix>
</trkpt>
<trkpt lat="40.072842" lon="-105.2305758">
  <ele>1594.65</ele>
  <time>2026-08-28T19:12:08Z</time>
  <course>345.47</course>
  <speed>0.04</speed>
  <fix>3d</fix>
</trkpt>
<trkpt lat="40.072842" lon="-105.2305756">
  <ele>1594.55</ele>
  <time>2026-08-28T19:12:08Z</time>
  <course>17.67</course>
  <speed>0.0282842712474619</speed>
  <fix>3d</fix>
</trkpt>
<trkpt lat="40.072842" lon="-105.2305758">
  <ele>1594.56</ele>
  <time>2026-08-28T19:12:08Z</time>
  <course>356.56</course>
  <speed>0.04</speed>
  <fix>3d</fix>
</trkpt>
<trkpt lat="40.072842" lon="-105.2305756">
  <ele>1594.45</ele>
  <time>2026-08-28T19:12:08Z</time>
  <course>17.68</course>
  <speed>0.0316227766016838</speed>
  <fix>3d</fix>
</trkpt>
<trkpt lat="40.0728421" lon="-105.2305758">
  <ele>1594.46</ele>
  <time>2026-08-28T19:12:08Z</time>
  <course>5.78</course>
  <speed>0.04</speed>
  <fix>3d</fix>
</trkpt>
<trkpt lat="40.0728421" lon="-105.2305756">
  <ele>1594.35</ele>
  <time>2026-08-28T19:12:08Z</time>
  <course>17.69</course>
  <speed>0.0316227766016838</speed>
  <fix>3d</fix>
</trkpt>
<trkpt lat="40.0728422" lon="-105.2305758">
  <ele>1594.36</ele>
  <time>2026-08-28T19:12:08Z</time>
  <course>13.14</course>
  <speed>0.04</speed>
  <fix>3d</fix>
</trkpt>
<trkpt lat="40.0728422" lon="-105.2305756">
  <ele>1594.25</ele>
  <time>2026-08-28T19:12:08Z</time>
  <course>17.71</course>
  <speed>0.0316227766016838</speed>
  <fix>3d</fix>
</trkpt>
<trkpt lat="40.0728423" lon="-105.2305758">
  <ele>1594.26</ele>
  <time>2026-08-28T19:12:08Z</time>
  <course>19.44</course>
  <speed>0.04</speed>
  <fix>3d</fix>
</trkpt>
<trkpt lat="40.0728422" lon="-105.2305756">
  <ele>1594.15</ele>
  <time>2026-08-28T19:12:08Z</time>
  <course>17.7</course>
  <speed>0.0412310562561766</speed>
  <fix>3d</fix>
</trkpt>
<trkpt lat="40.0728423" lon="-105.2305758">
  <ele>1594.16</ele>
  <time>2026-08-28T19:12:08Z</time>
  <course>25.3</course>
  <speed>0.04</speed>
  <fix>3d</fix>
</trkpt>
<trkpt lat="40.0728423" lon="-105.2305755">
  <ele>1594.05</ele>
  <time>2026-08-28T19:12:08Z</time>
  <course>17.71</course>
  <speed>0.04</speed>
  <fix>3d</fix>
</trkpt>
<trkpt lat="40.0728424" lon="-105.2305758">
  <ele>1594.07</ele>
  <time>2026-08-28T19:12:08Z</time>
  <course>30.64</course>
  <speed>0.04</speed>
  <fix>3d</fix>
</trkpt>
<trkpt lat="40.0728423" lon="-105.2305755">
  <ele>1593.95</ele>
  <time>2026-08-28T19:12:08Z</time>
  <course>17.73</course>
  <speed>0.04</speed>
  <fix>3d</fix>
</trkpt>
<trkpt lat="40.0728425" lon="-105.2305758">
  <ele>1593.97</ele>
  <time>2026-08-28T19:12:08Z</time>
  <course>36.24</course>
  <speed>0.03</speed>
  <fix>3d</fix>
</trkpt>
<trkpt lat="40.0728424" lon="-105.2305755">
  <ele>1593.86</ele>
  <time>2026-08-28T19:12:08Z</time>
  <course>17.75</course>
  <speed>0.04</speed>
  <fix>3d</fix>
</trkpt>
<trkpt lat="40.0728425" lon="-105.2305758">
  <ele>1593.87</ele>
  <time>2026-08-28T19:12:08Z</time>
  <course>42.86</course>
  <speed>0.03</speed>
  <fix>3d</fix>
</trkpt>
<trkpt lat="40.0728424" lon="-105.2305754">
  <ele>1593.76</ele>
  <time>2026-08-28T19:12:08Z</time>
  <course>17.76</course>
  <speed>0.0412310562561766</speed>
  <fix>3d</fix>
</trkpt>
<trkpt lat="40.0728426" lon="-105.2305757">
  <ele>1593.77</ele>
  <time>2026-08-28T19:12:08Z</time>
  <course>50.51</course>
  <speed>0.03</speed>
  <fix>3d</fix>
</trkpt>
<trkpt lat="40.0728424" lon="-105.2305754">
  <ele>1593.65</ele>
  <time>2026-08-28T19:12:08Z</time>
  <course>17.76</course>
  <speed>0.0316227766016838</speed>
  <fix>3d</fix>
</trkpt>
<trkpt lat="40.0728426" lon="-105.2305756">
  <ele>1593.66</ele>
  <time>2026-08-28T19:12:08Z</time>
  <course>59.66</course>
  <speed>0.02</speed>
  <fix>3d</fix>
</trkpt>
<trkpt lat="40.0728424" lon="-105.2305753">
  <ele>1593.55</ele>
  <time>2026-08-28T19:12:08Z</time>
  <course>17.77</course>
  <speed>0.03605551275463989</speed>
  <fix>3d</fix>
</trkpt>
<trkpt lat="40.0728426" lon="-105.2305756">
  <ele>1593.57</ele>
  <time>2026-08-28T19:12:08Z</time>
  <course>70.85</course>
  <speed>0.02</speed>
  <fix>3d</fix>
</trkpt>
<trkpt lat="40.0728424" lon="-105.2305753">
  <ele>1593.45</ele>
  <time>2026-08-28T19:12:08Z</time>
  <course>17.78</course>
  <speed>0.03605551275463989</speed>
  <fix>3d</fix>
</trkpt>
<trkpt lat="40.0728426" lon="-105.2305756">
  <ele>1593.47</ele>
  <time>2026-08-28T19:12:08Z</time>
  <course>83.74</course>
  <speed>0.02</speed>
  <fix>3d</fix>
</trkpt>
<trkpt lat="40.0728424" lon="-105.2305753">
  <ele>1593.35</ele>
  <time>2026-08-28T19:12:08Z</time>
  <course>17.79</course>
  <speed>0.04242640687119285</speed>
  <fix>3d</fix>
</trkpt>
<trkpt lat="40.0728426" lon="-105.2305755">
  <ele>1593.37</ele>
  <time>2026-08-28T19:12:08Z</time>
  <course>97.15</course>
  <speed>0.02</speed>
  <fix>3d</fix>
</trkpt>
<trkpt lat="40.0728424" lon="-105.2305752">
  <ele>1593.25</ele>
  <time>2026-08-28T19:12:08Z</time>
  <course>17.78</course>
  <speed>0.04242640687119285</speed>
  <fix>3d</fix>
</trkpt>
<trkpt lat="40.0728426" lon="-105.2305755">
  <ele>1593.27</ele>
  <time>2026-08-28T19:12:08Z</time>
  <course>109.99</course>
  <speed>0.02</speed>
  <fix>3d</fix>
</trkpt>
<trkpt lat="40.0728424" lon="-105.2305752">
  <ele>1593.15</ele>
  <time>2026-08-28T19:12:08Z</time>
  <course>17.78</course>
  <speed>0.04242640687119285</speed>
  <fix>3d</fix>
</trkpt>
<trkpt lat="40.0728426" lon="-105.2305754">
  <ele>1593.16</ele>
  <time>2026-08-28T19:12:08Z</time>
  <course>121.71</course>
  <speed>0.02</speed>
  <fix>3d</fix>
</trkpt>
<trkpt lat="40.0728424" lon="-105.2305752">
  <ele>1593.05</ele>
  <time>2026-08-28T19:12:08Z</time>
  <course>17.79</course>
  <speed>0.03605551275463989</speed>
  <fix>3d</fix>
</trkpt>
<trkpt lat="40.0728426" lon="-105.2305753">
  <ele>1593.07</ele>
  <time>2026-08-28T19:12:08Z</time>
  <course>131.74</course>
  <speed>0.02</speed>
  <fix>3d</fix>
</trkpt>
<trkpt lat="40.0728424" lon="-105.2305752">
  <ele>1592.95</ele>
  <time>2026-08-28T19:12:08Z</time>
  <course>17.8</course>
  <speed>0.03605551275463989</speed>
  <fix>3d</fix>
</trkpt>
<trkpt lat="40.0728426" lon="-105.2305753">
  <ele>1592.97</ele>
  <time>2026-08-28T19:12:08Z</time>
  <course>140.79</course>
  <speed>0.02</speed>
  <fix>3d</fix>
</trkpt>
<trkpt lat="40.0728424" lon="-105.2305752">
  <ele>1592.86</ele>
  <time>2026-08-28T19:12:08Z</time>
  <course>17.82</course>
  <speed>0.044721359549995794</speed>
  <fix>3d</fix>
</trkpt>
<trkpt lat="40.0728426" lon="-105.2305753">
  <ele>1592.88</ele>
  <time>2026-08-28T19:12:08Z</time>
  <course>149.68</course>
  <speed>0.02</speed>
  <fix>3d</fix>
</trkpt>
<trkpt lat="40.0728424" lon="-105.2305751">
  <ele>1592.76</ele>
  <time>2026-08-28T19:12:08Z</time>
  <course>17.83</course>
  <speed>0.044721359549995794</speed>
  <fix>3d</fix>
</trkpt>
<trkpt lat="40.0728426" lon="-105.2305753">
  <ele>1592.78</ele>
  <time>2026-08-28T19:12:08Z</time>
  <course>157.42</course>
  <speed>0.02</speed>
  <fix>3d</fix>
</trkpt>
<trkpt lat="40.0728423" lon="-105.2305751">
  <ele>1592.66</ele>
  <time>2026-08-28T19:12:08Z</time>
  <course>17.84</course>
  <speed>0.0412310562561766</speed>
  <fix>3d</fix>
</trkpt>
<trkpt lat="40.0728426" lon="-105.2305753">
  <ele>1592.67</ele>
  <time>2026-08-28T19:12:08Z</time>
  <course>164.56</course>
  <speed>0.02</speed>
  <fix>3d</fix>
</trkpt>
<trkpt lat="40.0728423" lon="-105.2305751">
  <ele>1592.56</ele>
  <time>2026-08-28T19:12:08Z</time>
  <course>17.85</course>
  <speed>0.0412310562561766</speed>
  <fix>3d</fix>
</trkpt>
<trkpt lat="40.0728425" lon="-105.2305753">
  <ele>1592.58</ele>
  <time>2026-08-28T19:12:08Z</time>
  <course>171.05</course>
  <speed>0.02</speed>
  <fix>3d</fix>
</trkpt>
<trkpt lat="40.0728423" lon="-105.2305751">
  <ele>1592.45</ele>
  <time>2026-08-28T19:12:08Z</time>
  <course>17.85</course>
  <speed>0.0316227766016838</speed>
  <fix>3d</fix>
</trkpt>
<trkpt lat="40.0728425" lon="-105.2305753">
  <ele>1592.48</ele>
  <time>2026-08-28T19:12:08Z</time>
  <course>176.2</course>
  <speed>0.02</speed>
  <fix>3d</fix>
</trkpt>
<trkpt lat="40.0728423" lon="-105.2305751">
  <ele>1592.35</ele>
  <time>2026-08-28T19:12:08Z</time>
  <course>17.85</course>
  <speed>0.0316227766016838</speed>
  <fix>3d</fix>
</trkpt>
<trkpt lat="40.0728424" lon="-105.2305753">
  <ele>1592.38</ele>
  <time>2026-08-28T19:12:08Z</time>
  <course>180.23</course>
  <speed>0.02</speed>
  <fix>3d</fix>
</trkpt>
<trkpt lat="40.0728422" lon="-105.2305751">
  <ele>1592.25</ele>
  <time>2026-08-28T19:12:08Z</time>
  <course>17.85</course>
  <speed>0.0316227766016838</speed>
  <fix>3d</fix>
</trkpt>
<trkpt lat="40.0728424" lon="-105.2305753">
  <ele>1592.28</ele>
  <time>2026-08-28T19:12:08Z</time>
  <course>183.36</course>
  <speed>0.02</speed>
  <fix>3d</fix>
</trkpt>
<trkpt lat="40.0728422" lon="-105.2305751">
  <ele>1592.15</ele>
  <time>2026-08-28T19:12:08Z</time>
  <course>17.86</course>
  <speed>0.0316227766016838</speed>
  <fix>3d</fix>
</trkpt>
<trkpt lat="40.0728424" lon="-105.2305753">
  <ele>1592.17</ele>
  <time>2026-08-28T19:12:08Z</time>
  <course>186.34</course>
  <speed>0.01</speed>
  <fix>3d</fix>
</trkpt>
<trkpt lat="40.0728422" lon="-105.2305751">
  <ele>1592.06</ele>
  <time>2026-08-28T19:12:08Z</time>
  <course>17.87</course>
  <speed>0.0316227766016838</speed>
  <fix>3d</fix>
</trkpt>
<trkpt lat="40.0728423" lon="-105.2305753">
  <ele>1592.08</ele>
  <time>2026-08-28T19:12:08Z</time>
  <course>189.6</course>
  <speed>0.01</speed>
  <fix>3d</fix>
</trkpt>
<trkpt lat="40.0728422" lon="-105.2305751">
  <ele>1591.96</ele>
  <time>2026-08-28T19:12:08Z</time>
  <course>17.88</course>
  <speed>0.0316227766016838</speed>
  <fix>3d</fix>
</trkpt>
<trkpt lat="40.0728423" lon="-105.2305753">
  <ele>1591.98</ele>
  <time>2026-08-28T19:12:08Z</time>
  <course>193.31</course>
  <speed>0.01</speed>
  <fix>3d</fix>
</trkpt>
<trkpt lat="40.0728422" lon="-105.2305751">
  <ele>1591.86</ele>
  <time>2026-08-28T19:12:08Z</time>
  <course>17.88</course>
  <speed>0.022360679774997897</speed>
  <fix>3d</fix>
</trkpt>
<trkpt lat="40.0728423" lon="-105.2305753">
  <ele>1591.88</ele>
  <time>2026-08-28T19:12:08Z</time>
  <course>197.32</course>
  <speed>0.01</speed>
  <fix>3d</fix>
</trkpt>
<trkpt lat="40.0728421" lon="-105.2305751">
  <ele>1591.76</ele>
  <time>2026-08-28T19:12:08Z</time>
  <course>17.89</course>
  <speed>0.022360679774997897</speed>
  <fix>3d</fix>
</trkpt>
<trkpt lat="40.0728423" lon="-105.2305753">
  <ele>1591.78</ele>
  <time>2026-08-28T19:12:08Z</time>
  <course>202.58</course>
  <speed>0.01</speed>
  <fix>3d</fix>
</trkpt>
<trkpt lat="40.0728421" lon="-105.2305751">
  <ele>1591.66</ele>
  <time>2026-08-28T19:12:08Z</time>
  <course>17.89</course>
  <speed>0.022360679774997897</speed>
  <fix>3d</fix>
</trkpt>
<trkpt lat="40.0728423" lon="-105.2305753">
  <ele>1591.67</ele>
  <time>2026-08-28T19:12:08Z</time>
  <course>208.94</course>
  <speed>0.0</speed>
  <fix>3d</fix>
</trkpt>
<trkpt lat="40.0728421" lon="-105.2305751">
  <ele>1591.56</ele>
  <time>2026-08-28T19:12:08Z</time>
  <course>17.9</course>
  <speed>0.022360679774997897</speed>
  <fix>3d</fix>
</trkpt>
<trkpt lat="40.0728423" lon="-105.2305753">
  <ele>1591.58</ele>
  <time>2026-08-28T19:12:08Z</time>
  <course>216.5</course>
  <speed>0.0</speed>
  <fix>3d</fix>
</trkpt>
<trkpt lat="40.0728421" lon="-105.2305751">
  <ele>1591.46</ele>
  <time>2026-08-28T19:12:08Z</time>
  <course>17.9</course>
  <speed>0.022360679774997897</speed>
  <fix>3d</fix>
</trkpt>
<trkpt lat="40.0728422" lon="-105.2305753">
  <ele>1591.48</ele>
  <time>2026-08-28T19:12:08Z</time>
  <course>227.13</course>
  <speed>0.0</speed>
  <fix>3d</fix>
</trkpt>
<trkpt lat="40.0728421" lon="-105.2305751">
  <ele>1591.36</ele>
  <time>2026-08-28T19:12:08Z</time>
  <course>17.91</course>
  <speed>0.01414213562373095</speed>
  <fix>3d</fix>
</trkpt>
<trkpt lat="40.0728421" lon="-105.2305753">
  <ele>1591.38</ele>
  <time>2026-08-28T19:12:08Z</time>
  <course>240.54</course>
  <speed>0.0</speed>
  <fix>3d</fix>
</trkpt>
<trkpt lat="40.0728421" lon="-105.2305751">
  <ele>1591.25</ele>
  <time>2026-08-28T19:12:08Z</time>
  <course>17.91</course>
  <speed>0.01414213562373095</speed>
  <fix>3d</fix>
</trkpt>
<trkpt lat="40.0728421" lon="-105.2305753">
  <ele>1591.28</ele>
  <time>2026-08-28T19:12:08Z</time>
  <course>259.21</course>
  <speed>0.0</speed>
  <fix>3d</fix>
</trkpt>
<trkpt lat="40.0728421" lon="-105.2305751">
  <ele>1591.15</ele>
  <time>2026-08-28T19:12:08Z</time>
  <course>17.9</course>
  <speed>0.01414213562373095</speed>
  <fix>3d</fix>
</trkpt>
<trkpt lat="40.0728421" lon="-105.2305753">
  <ele>1591.17</ele>
  <time>2026-08-28T19:12:08Z</time>
  <course>282.0</course>
  <speed>0.0</speed>
  <fix>3d</fix>
</trkpt>
<trkpt lat="40.0728421" lon="-105.2305751">
  <ele>1591.05</ele>
  <time>2026-08-28T19:12:08Z</time>
  <course>17.9</course>
  <speed>0.01414213562373095</speed>
  <fix>3d</fix>
</trkpt>
<trkpt lat="40.0728421" lon="-105.2305753">
  <ele>1591.08</ele>
  <time>2026-08-28T19:12:08Z</time>
  <course>305.2</course>
  <speed>0.0</speed>
  <fix>3d</fix>
</trkpt>
<trkpt lat="40.0728421" lon="-105.2305751">
  <ele>1590.95</ele>
  <time>2026-08-28T19:12:08Z</time>
  <course>17.9</course>
  <speed>0.01414213562373095</speed>
  <fix>3d</fix>
</trkpt>
<trkpt lat="40.0728421" lon="-105.2305753">
  <ele>1590.98</ele>
  <time>2026-08-28T19:12:08Z</time>
  <course>322.02</course>
  <speed>0.0</speed>
  <fix>3d</fix>
</trkpt>
<trkpt lat="40.0728421" lon="-105.2305752">
  <ele>1590.85</ele>
  <time>2026-08-28T19:12:08Z</time>
  <course>17.92</course>
  <speed>0.01414213562373095</speed>
  <fix>3d</fix>
</trkpt>
<trkpt lat="40.0728421" lon="-105.2305753">
  <ele>1590.88</ele>
  <time>2026-08-28T19:12:08Z</time>
  <course>330.54</course>
  <speed>0.0</speed>
  <fix>3d</fix>
</trkpt>
<trkpt lat="40.0728421" lon="-105.2305752">
  <ele>1590.75</ele>
  <time>2026-08-28T19:12:08Z</time>
  <course>17.93</course>
  <speed>0.01414213562373095</speed>
  <fix>3d</fix>
</trkpt>
<trkpt lat="40.0728421" lon="-105.2305753">
  <ele>1590.78</ele>
  <time>2026-08-28T19:12:08Z</time>
  <course>335.15</course>
  <speed>0.0</speed>
  <fix>3d</fix>
</trkpt>
<trkpt lat="40.0728421" lon="-105.2305752">
  <ele>1590.65</ele>
  <time>2026-08-28T19:12:08Z</time>
  <course>17.93</course>
  <speed>0.01414213562373095</speed>
  <fix>3d</fix>
</trkpt>
<trkpt lat="40.0728421" lon="-105.2305753">
  <ele>1590.67</ele>
  <time>2026-08-28T19:12:08Z</time>
  <course>339.16</course>
  <speed>0.01</speed>
  <fix>3d</fix>
</trkpt>
<trkpt lat="40.0728421" lon="-105.2305752">
  <ele>1590.56</ele>
  <time>2026-08-28T19:12:08Z</time>
  <course>17.94</course>
  <speed>0.01</speed>
  <fix>3d</fix>
</trkpt>
<trkpt lat="40.0728421" lon="-105.2305753">
  <ele>1590.58</ele>
  <time>2026-08-28T19:12:08Z</time>
  <course>341.33</course>
  <speed>0.01</speed>
  <fix>3d</fix>
</trkpt>
<trkpt lat="40.0728421" lon="-105.2305752">
  <ele>1590.46</ele>
  <time>2026-08-28T19:12:08Z</time>
  <course>17.95</course>
  <speed>0.01</speed>
  <fix>3d</fix>
</trkpt>
<trkpt lat="40.0728422" lon="-105.2305753">
  <ele>1590.48</ele>
  <time>2026-08-28T19:12:08Z</time>
  <course>342.81</course>
  <speed>0.01</speed>
  <fix>3d</fix>
</trkpt>
<trkpt lat="40.0728421" lon="-105.2305752">
  <ele>1590.36</ele>
  <time>2026-08-28T19:12:08Z</time>
  <course>17.96</course>
  <speed>0.01</speed>
  <fix>3d</fix>
</trkpt>
<trkpt lat="40.0728423" lon="-105.2305753">
  <ele>1590.38</ele>
  <time>2026-08-28T19:12:08Z</time>
  <course>344.54</course>
  <speed>0.01</speed>
  <fix>3d</fix>
</trkpt>
<trkpt lat="40.0728421" lon="-105.2305752">
  <ele>1590.26</ele>
  <time>2026-08-28T19:12:08Z</time>
  <course>17.97</course>
  <speed>0.01</speed>
  <fix>3d</fix>
</trkpt>
<trkpt lat="40.0728423" lon="-105.2305753">
  <ele>1590.28</ele>
  <time>2026-08-28T19:12:08Z</time>
  <course>345.54</course>
  <speed>0.01</speed>
  <fix>3d</fix>
</trkpt>
<trkpt lat="40.0728421" lon="-105.2305752">
  <ele>1590.16</ele>
  <time>2026-08-28T19:12:08Z</time>
  <course>17.96</course>
  <speed>0.01</speed>
  <fix>3d</fix>
</trkpt>
<trkpt lat="40.0728423" lon="-105.2305753">
  <ele>1590.17</ele>
  <time>2026-08-28T19:12:08Z</time>
  <course>345.63</course>
  <speed>0.01</speed>
  <fix>3d</fix>
</trkpt>
<trkpt lat="40.0728421" lon="-105.2305752">
  <ele>1590.06</ele>
  <time>2026-08-28T19:12:08Z</time>
  <course>17.97</course>
  <speed>0.01</speed>
  <fix>3d</fix>
</trkpt>
<trkpt lat="40.0728423" lon="-105.2305753">
  <ele>1590.08</ele>
  <time>2026-08-28T19:12:08Z</time>
  <course>344.67</course>
  <speed>0.01</speed>
  <fix>3d</fix>
</trkpt>
<trkpt lat="40.0728422" lon="-105.2305752">
  <ele>1589.96</ele>
  <time>2026-08-28T19:12:08Z</time>
  <course>17.98</course>
  <speed>0.01414213562373095</speed>
  <fix>3d</fix>
</trkpt>
<trkpt lat="40.0728424" lon="-105.2305753">
  <ele>1589.98</ele>
  <time>2026-08-28T19:12:08Z</time>
  <course>343.51</course>
  <speed>0.01</speed>
  <fix>3d</fix>
</trkpt>
<trkpt lat="40.0728422" lon="-105.2305752">
  <ele>1589.86</ele>
  <time>2026-08-28T19:12:08Z</time>
  <course>17.98</course>
  <speed>0.01414213562373095</speed>
  <fix>3d</fix>
</trkpt>
<trkpt lat="40.0728424" lon="-105.2305753">
  <ele>1589.88</ele>
  <time>2026-08-28T19:12:08Z</time>
  <course>341.68</course>
  <speed>0.01</speed>
  <fix>3d</fix>
</trkpt>
<trkpt lat="40.0728422" lon="-105.2305752">
  <ele>1589.76</ele>
  <time>2026-08-28T19:12:08Z</time>
  <course>17.99</course>
  <speed>0.01414213562373095</speed>
  <fix>3d</fix>
</trkpt>
<trkpt lat="40.0728424" lon="-105.2305753">
  <ele>1589.78</ele>
  <time>2026-08-28T19:12:08Z</time>
  <course>337.36</course>
  <speed>0.0</speed>
  <fix>3d</fix>
</trkpt>
<trkpt lat="40.0728422" lon="-105.2305752">
  <ele>1589.66</ele>
  <time>2026-08-28T19:12:08Z</time>
  <course>17.99</course>
  <speed>0.01414213562373095</speed>
  <fix>3d</fix>
</trkpt>
<trkpt lat="40.0728424" lon="-105.2305753">
  <ele>1589.67</ele>
  <time>2026-08-28T19:12:08Z</time>
  <course>330.98</course>
  <speed>0.0</speed>
  <fix>3d</fix>
</trkpt>
<trkpt lat="40.0728422" lon="-105.2305752">
  <ele>1589.56</ele>
  <time>2026-08-28T19:12:08Z</time>
  <course>17.99</course>
  <speed>0.01414213562373095</speed>
  <fix>3d</fix>
</trkpt>
<trkpt lat="40.0728424" lon="-105.2305753">
  <ele>1589.58</ele>
  <time>2026-08-28T19:12:08Z</time>
  <course>321.81</course>
  <speed>0.0</speed>
  <fix>3d</fix>
</trkpt>
<trkpt lat="40.0728422" lon="-105.2305752">
  <ele>1589.45</ele>
  <time>2026-08-28T19:12:08Z</time>
  <course>17.99</course>
  <speed>0.022360679774997897</speed>
  <fix>3d</fix>
</trkpt>
<trkpt lat="40.0728424" lon="-105.2305753">
  <ele>1589.48</ele>
  <time>2026-08-28T19:12:08Z</time>
  <course>307.24</course>
  <speed>0.0</speed>
  <fix>3d</fix>
</trkpt>
<trkpt lat="40.0728422" lon="-105.2305752">
  <ele>1589.35</ele>
  <time>2026-08-28T19:12:08Z</time>
  <course>18.0</course>
  <speed>0.022360679774997897</speed>
  <fix>3d</fix>
</trkpt>
<trkpt lat="40.0728424" lon="-105.2305754">
  <ele>1589.38</ele>
  <time>2026-08-28T19:12:08Z</time>
  <course>285.39</course>
  <speed>0.0</speed>
  <fix>3d</fix>
</trkpt>
<trkpt lat="40.0728422" lon="-105.2305752">
  <ele>1589.25</ele>
  <time>2026-08-28T19:12:08Z</time>
  <course>18.0</course>
  <speed>0.022360679774997897</speed>
  <fix>3d</fix>
</trkpt>
<trkpt lat="40.0728424" lon="-105.2305755">
  <ele>1589.28</ele>
  <time>2026-08-28T19:12:08Z</time>
  <course>263.16</course>
  <speed>0.0</speed>
  <fix>3d</fix>
</trkpt>
<trkpt lat="40.0728422" lon="-105.2305752">
  <ele>1589.16</ele>
  <time>2026-08-28T19:12:08Z</time>
  <course>18.0</course>
  <speed>0.022360679774997897</speed>
  <fix>3d</fix>
</trkpt>
<trkpt lat="40.0728424" lon="-105.2305755">
  <ele>1589.17</ele>
  <time>2026-08-28T19:12:08Z</time>
  <course>247.5</course>
  <speed>0.0</speed>
  <fix>3d</fix>
</trkpt>
<trkpt lat="40.0728422" lon="-105.2305752">
  <ele>1589.06</ele>
  <time>2026-08-28T19:12:08Z</time>
  <course>17.99</course>
  <speed>0.022360679774997897</speed>
  <fix>3d</fix>
</trkpt>
<trkpt lat="40.0728424" lon="-105.2305755">
  <ele>1589.08</ele>
  <time>2026-08-28T19:12:08Z</time>
  <course>235.55</course>
  <speed>0.0</speed>
  <fix>3d</fix>
</trkpt>
<trkpt lat="40.0728422" lon="-105.2305752">
  <ele>1588.95</ele>
  <time>2026-08-28T19:12:08Z</time>
  <course>18.0</course>
  <speed>0.022360679774997897</speed>
  <fix>3d</fix>
</trkpt>
<trkpt lat="40.0728424" lon="-105.2305755">
  <ele>1588.98</ele>
  <time>2026-08-28T19:12:08Z</time>
  <course>223.94</course>
  <speed>0.0</speed>
  <fix>3d</fix>
</trkpt>
<trkpt lat="40.0728422" lon="-105.2305753">
  <ele>1588.85</ele>
  <time>2026-08-28T19:12:08Z</time>
  <course>18.01</course>
  <speed>0.022360679774997897</speed>
  <fix>3d</fix>
</trkpt>
<trkpt lat="40.0728424" lon="-105.2305755">
  <ele>1588.88</ele>
  <time>2026-08-28T19:12:08Z</time>
  <course>210.99</course>
  <speed>0.0</speed>
  <fix>3d</fix>
</trkpt>
<trkpt lat="40.0728422" lon="-105.2305753">
  <ele>1588.75</ele>
  <time>2026-08-28T19:12:09Z</time>
  <course>18.01</course>
  <speed>0.022360679774997897</speed>
  <fix>3d</fix>
</trkpt>
<trkpt lat="40.0728424" lon="-105.2305755">
  <ele>1588.78</ele>
  <time>2026-08-28T19:12:09Z</time>
  <course>195.77</course>
  <speed>0.0</speed>
  <fix>3d</fix>
</trkpt>
<trkpt lat="40.0728422" lon="-105.2305753">
  <ele>1588.65</ele>
  <time>2026-08-28T19:12:09Z</time>
  <course>18.0</course>
  <speed>0.022360679774997897</speed>
  <fix>3d</fix>
</trkpt>
<trkpt lat="40.0728424" lon="-105.2305755">
  <ele>1588.67</ele>
  <time>2026-08-28T19:12:09Z</time>
  <course>182.01</course>
  <speed>0.0</speed>
  <fix>3d</fix>
</trkpt>
<trkpt lat="40.0728422" lon="-105.2305753">
  <ele>1588.55</ele>
  <time>2026-08-28T19:12:09Z</time>
  <course>18.0</course>
  <speed>0.022360679774997897</speed>
  <fix>3d</fix>
</trkpt>
<trkpt lat="40.0728424" lon="-105.2305755">
  <ele>1588.58</ele>
  <time>2026-08-28T19:12:09Z</time>
  <course>171.47</course>
  <speed>0.0</speed>
  <fix>3d</fix>
</trkpt>
<trkpt lat="40.0728422" lon="-105.2305753">
  <ele>1588.45</ele>
  <time>2026-08-28T19:12:09Z</time>
  <course>18.0</course>
  <speed>0.022360679774997897</speed>
  <fix>3d</fix>
</trkpt>
<trkpt lat="40.0728424" lon="-105.2305755">
  <ele>1588.48</ele>
  <time>2026-08-28T19:12:09Z</time>
  <course>160.27</course>
  <speed>0.0</speed>
  <fix>3d</fix>
</trkpt>
<trkpt lat="40.0728422" lon="-105.2305753">
  <ele>1588.35</ele>
  <time>2026-08-28T19:12:09Z</time>
  <course>18.0</course>
  <speed>0.022360679774997897</speed>
  <fix>3d</fix>
</trkpt>
<trkpt lat="40.0728424" lon="-105.2305755">
  <ele>1588.38</ele>
  <time>2026-08-28T19:12:09Z</time>
  <course>151.61</course>
  <speed>0.0</speed>
  <fix>3d</fix>
</trkpt>
<trkpt lat="40.0728422" lon="-105.2305753">
  <ele>1588.25</ele>
  <time>2026-08-28T19:12:09Z</time>
  <course>18.01</course>
  <speed>0.022360679774997897</speed>
  <fix>3d</fix>
</trkpt>
<trkpt lat="40.0728424" lon="-105.2305755">
  <ele>1588.28</ele>
  <time>2026-08-28T19:12:09Z</time>
  <course>148.44</course>
  <speed>0.0</speed>
  <fix>3d</fix>
</trkpt>
<trkpt lat="40.0728422" lon="-105.2305753">
  <ele>1588.15</ele>
  <time>2026-08-28T19:12:09Z</time>
  <course>18.02</course>
  <speed>0.022360679774997897</speed>
  <fix>3d</fix>
</trkpt>
<trkpt lat="40.0728424" lon="-105.2305755">
  <ele>1588.18</ele>
  <time>2026-08-28T19:12:09Z</time>
  <course>145.49</course>
  <speed>0.0</speed>
  <fix>3d</fix>
</trkpt>
<trkpt lat="40.0728422" lon="-105.2305753">
  <ele>1588.05</ele>
  <time>2026-08-28T19:12:09Z</time>
  <course>18.03</course>
  <speed>0.0282842712474619</speed>
  <fix>3d</fix>
</trkpt>
<trkpt lat="40.0728424" lon="-105.2305755">
  <ele>1588.09</ele>
  <time>2026-08-28T19:12:09Z</time>
  <course>139.96</course>
  <speed>0.0</speed>
  <fix>3d</fix>
</trkpt>
<trkpt lat="40.0728422" lon="-105.2305753">
  <ele>1587.95</ele>
  <time>2026-08-28T19:12:09Z</time>
  <course>18.03</course>
  <speed>0.0282842712474619</speed>
  <fix>3d</fix>
</trkpt>
<trkpt lat="40.0728424" lon="-105.2305755">
  <ele>1587.99</ele>
  <time>2026-08-28T19:12:09Z</time>
  <course>133.76</course>
  <speed>0.0</speed>
  <fix>3d</fix>
</trkpt>
<trkpt lat="40.0728422" lon="-105.2305753">
  <ele>1587.85</ele>
  <time>2026-08-28T19:12:09Z</time>
  <course>18.03</course>
  <speed>0.0282842712474619</speed>
  <fix>3d</fix>
</trkpt>
<trkpt lat="40.0728424" lon="-105.2305755">
  <ele>1587.88</ele>
  <time>2026-08-28T19:12:09Z</time>
  <course>129.07</course>
  <speed>0.0</speed>
  <fix>3d</fix>
</trkpt>
<trkpt lat="40.0728422" lon="-105.2305753">
  <ele>1587.75</ele>
  <time>2026-08-28T19:12:09Z</time>
  <course>18.04</course>
  <speed>0.0282842712474619</speed>
  <fix>3d</fix>
</trkpt>
<trkpt lat="40.0728424" lon="-105.2305755">
  <ele>1587.79</ele>
  <time>2026-08-28T19:12:09Z</time>
  <course>127.51</course>
  <speed>0.0</speed>
  <fix>3d</fix>
</trkpt>
<trkpt lat="40.0728422" lon="-105.2305753">
  <ele>1587.66</ele>
  <time>2026-08-28T19:12:09Z</time>
  <course>18.04</course>
  <speed>0.0282842712474619</speed>
  <fix>3d</fix>
</trkpt>
<trkpt lat="40.0728424" lon="-105.2305755">
  <ele>1587.69</ele>
  <time>2026-08-28T19:12:09Z</time>
  <course>126.83</course>
  <speed>0.0</speed>
  <fix>3d</fix>
</trkpt>
<trkpt lat="40.0728422" lon="-105.2305753">
  <ele>1587.56</ele>
  <time>2026-08-28T19:12:09Z</time>
  <course>18.04</course>
  <speed>0.0282842712474619</speed>
  <fix>3d</fix>
</trkpt>
<trkpt lat="40.0728424" lon="-105.2305755">
  <ele>1587.59</ele>
  <time>2026-08-28T19:12:09Z</time>
  <course>125.96</course>
  <speed>0.0</speed>
  <fix>3d</fix>
</trkpt>
<trkpt lat="40.0728422" lon="-105.2305753">
  <ele>1587.45</ele>
  <time>2026-08-28T19:12:09Z</time>
  <course>18.05</course>
  <speed>0.0282842712474619</speed>
  <fix>3d</fix>
</trkpt>
<trkpt lat="40.0728424" lon="-105.2305755">
  <ele>1587.49</ele>
  <time>2026-08-28T19:12:09Z</time>
  <course>125.5</course>
  <speed>0.0</speed>
  <fix>3d</fix>
</trkpt>
<trkpt lat="40.0728422" lon="-105.2305753">
  <ele>1587.35</ele>
  <time>2026-08-28T19:12:09Z</time>
  <course>18.05</course>
  <speed>0.0282842712474619</speed>
  <fix>3d</fix>
</trkpt>
<trkpt lat="40.0728424" lon="-105.2305755">
  <ele>1587.38</ele>
  <time>2026-08-28T19:12:09Z</time>
  <course>125.74</course>
  <speed>0.0</speed>
  <fix>3d</fix>
</trkpt>
<trkpt lat="40.0728422" lon="-105.2305753">
  <ele>1587.25</ele>
  <time>2026-08-28T19:12:09Z</time>
  <course>18.05</course>
  <speed>0.0282842712474619</speed>
  <fix>3d</fix>
</trkpt>
<trkpt lat="40.0728424" lon="-105.2305754">
  <ele>1587.29</ele>
  <time>2026-08-28T19:12:09Z</time>
  <course>126.35</course>
  <speed>0.0</speed>
  <fix>3d</fix>
</trkpt>
<trkpt lat="40.0728422" lon="-105.2305753">
  <ele>1587.15</ele>
  <time>2026-08-28T19:12:09Z</time>
  <course>18.05</course>
  <speed>0.0282842712474619</speed>
  <fix>3d</fix>
</trkpt>
<trkpt lat="40.0728424" lon="-105.2305753">
  <ele>1587.19</ele>
  <time>2026-08-28T19:12:09Z</time>
  <course>126.74</course>
  <speed>0.0</speed>
  <fix>3d</fix>
</trkpt>
<trkpt lat="40.0728422" lon="-105.2305753">
  <ele>1587.05</ele>
  <time>2026-08-28T19:12:09Z</time>
  <course>18.04</course>
  <speed>0.0282842712474619</speed>
  <fix>3d</fix>
</trkpt>
<trkpt lat="40.0728424" lon="-105.2305753">
  <ele>1587.09</ele>
  <time>2026-08-28T19:12:09Z</time>
  <course>126.64</course>
  <speed>0.0</speed>
  <fix>3d</fix>
</trkpt>
<trkpt lat="40.0728422" lon="-105.2305752">
  <ele>1586.95</ele>
  <time>2026-08-28T19:12:09Z</time>
  <course>18.05</course>
  <speed>0.0282842712474619</speed>
  <fix>3d</fix>
</trkpt>
<trkpt lat="40.0728424" lon="-105.2305753">
  <ele>1586.99</ele>
  <time>2026-08-28T19:12:09Z</time>
  <course>127.64</course>
  <speed>0.0</speed>
  <fix>3d</fix>
</trkpt>
<trkpt lat="40.0728422" lon="-105.2305752">
  <ele>1586.85</ele>
  <time>2026-08-28T19:12:09Z</time>
  <course>18.05</course>
  <speed>0.022360679774997897</speed>
  <fix>3d</fix>
</trkpt>
<trkpt lat="40.0728423" lon="-105.2305753">
  <ele>1586.88</ele>
  <time>2026-08-28T19:12:09Z</time>
  <course>131.46</course>
  <speed>0.0</speed>
  <fix>3d</fix>
</trkpt>
<trkpt lat="40.0728422" lon="-105.2305752">
  <ele>1586.76</ele>
  <time>2026-08-28T19:12:09Z</time>
  <course>18.06</course>
  <speed>0.022360679774997897</speed>
  <fix>3d</fix>
</trkpt>
<trkpt lat="40.0728423" lon="-105.2305753">
  <ele>1586.79</ele>
  <time>2026-08-28T19:12:09Z</time>
  <course>139.09</course>
  <speed>0.0</speed>
  <fix>3d</fix>
</trkpt>
<trkpt lat="40.0728422" lon="-105.2305752">
  <ele>1586.66</ele>
  <time>2026-08-28T19:12:09Z</time>
  <course>18.06</course>
  <speed>0.022360679774997897</speed>
  <fix>3d</fix>
</trkpt>
<trkpt lat="40.0728423" lon="-105.2305753">
  <ele>1586.69</ele>
  <time>2026-08-28T19:12:09Z</time>
  <course>147.56</course>
  <speed>0.0</speed>
  <fix>3d</fix>
</trkpt>
<trkpt lat="40.0728422" lon="-105.2305752">
  <ele>1586.56</ele>
  <time>2026-08-28T19:12:09Z</time>
  <course>18.07</course>
  <speed>0.022360679774997897</speed>
  <fix>3d</fix>
</trkpt>
<trkpt lat="40.0728423" lon="-105.2305753">
  <ele>1586.59</ele>
  <time>2026-08-28T19:12:09Z</time>
  <course>153.97</course>
  <speed>0.0</speed>
  <fix>3d</fix>
</trkpt>
<trkpt lat="40.0728422" lon="-105.2305752">
  <ele>1586.45</ele>
  <time>2026-08-28T19:12:09Z</time>
  <course>18.07</course>
  <speed>0.022360679774997897</speed>
  <fix>3d</fix>
</trkpt>
<trkpt lat="40.0728423" lon="-105.2305753">
  <ele>1586.49</ele>
  <time>2026-08-28T19:12:09Z</time>
  <course>161.41</course>
  <speed>0.0</speed>
  <fix>3d</fix>
</trkpt>
<trkpt lat="40.0728422" lon="-105.2305752">
  <ele>1586.35</ele>
  <time>2026-08-28T19:12:09Z</time>
  <course>18.07</course>
  <speed>0.022360679774997897</speed>
  <fix>3d</fix>
</trkpt>
<trkpt lat="40.0728423" lon="-105.2305753">
  <ele>1586.38</ele>
  <time>2026-08-28T19:12:09Z</time>
  <course>171.73</course>
  <speed>0.0</speed>
  <fix>3d</fix>
</trkpt>
<trkpt lat="40.0728422" lon="-105.2305752">
  <ele>1586.25</ele>
  <time>2026-08-28T19:12:09Z</time>
  <course>18.06</course>
  <speed>0.022360679774997897</speed>
  <fix>3d</fix>
</trkpt>
<trkpt lat="40.0728423" lon="-105.2305753">
  <ele>1586.29</ele>
  <time>2026-08-28T19:12:09Z</time>
  <course>185.1</course>
  <speed>0.0</speed>
  <fix>3d</fix>
</trkpt>
<trkpt lat="40.0728422" lon="-105.2305752">
  <ele>1586.15</ele>
  <time>2026-08-28T19:12:09Z</time>
  <course>18.07</course>
  <speed>0.01414213562373095</speed>
  <fix>3d</fix>
</trkpt>
<trkpt lat="40.0728423" lon="-105.2305753">
  <ele>1586.19</ele>
  <time>2026-08-28T19:12:09Z</time>
  <course>201.52</course>
  <speed>0.0</speed>
  <fix>3d</fix>
</trkpt>
<trkpt lat="40.0728422" lon="-105.2305752">
  <ele>1586.13</ele>
  <time>2026-08-28T19:12:09Z</time>
  <course>18.08</course>
  <speed>0.01</speed>
  <fix>3d</fix>
</trkpt>
<trkpt lat="40.0728423" lon="-105.2305753">
  <ele>1586.1</ele>
  <time>2026-08-28T19:12:09Z</time>
  <course>282.25</course>
  <speed>0.01</speed>
  <fix>3d</fix>
</trkpt>
<trkpt lat="40.0728422" lon="-105.2305752">
  <ele>1586.15</ele>
  <time>2026-08-28T19:12:09Z</time>
  <course>18.13</course>
  <speed>0.01414213562373095</speed>
  <fix>3d</fix>
</trkpt>
<trkpt lat="40.0728423" lon="-105.2305753">
  <ele>1586.08</ele>
  <time>2026-08-28T19:12:09Z</time>
  <course>293.32</course>
  <speed>0.01</speed>
  <fix>3d</fix>
</trkpt>
<trkpt lat="40.0728422" lon="-105.2305752">
  <ele>1586.15</ele>
  <time>2026-08-28T19:12:09Z</time>
  <course>18.17</course>
  <speed>0.022360679774997897</speed>
  <fix>3d</fix>
</trkpt>
<trkpt lat="40.0728423" lon="-105.2305753">
  <ele>1586.09</ele>
  <time>2026-08-28T19:12:09Z</time>
  <course>32.25</course>
  <speed>0.0</speed>
  <fix>3d</fix>
</trkpt>
<trkpt lat="40.0728422" lon="-105.2305752">
  <ele>1586.14</ele>
  <time>2026-08-28T19:12:09Z</time>
  <course>18.21</course>
  <speed>0.01414213562373095</speed>
  <fix>3d</fix>
</trkpt>
<trkpt lat="40.0728423" lon="-105.2305753">
  <ele>1586.09</ele>
  <time>2026-08-28T19:12:09Z</time>
  <course>103.72</course>
  <speed>0.0</speed>
  <fix>3d</fix>
</trkpt>
<trkpt lat="40.0728422" lon="-105.2305752">
  <ele>1586.14</ele>
  <time>2026-08-28T19:12:09Z</time>
  <course>18.24</course>
  <speed>0.01414213562373095</speed>
  <fix>3d</fix>
</trkpt>
<trkpt lat="40.0728423" lon="-105.2305753">
  <ele>1586.09</ele>
  <time>2026-08-28T19:12:09Z</time>
  <course>311.92</course>
  <speed>0.0</speed>
  <fix>3d</fix>
</trkpt>
<trkpt lat="40.0728422" lon="-105.2305752">
  <ele>1586.14</ele>
  <time>2026-08-28T19:12:09Z</time>
  <course>18.27</course>
  <speed>0.01414213562373095</speed>
  <fix>3d</fix>
</trkpt>
<trkpt lat="40.0728423" lon="-105.2305753">
  <ele>1586.09</ele>
  <time>2026-08-28T19:12:09Z</time>
  <course>357.45</course>
  <speed>0.0</speed>
  <fix>3d</fix>
</trkpt>
<trkpt lat="40.0728422" lon="-105.2305752">
  <ele>1586.14</ele>
  <time>2026-08-28T19:12:09Z</time>
  <course>18.3</course>
  <speed>0.01414213562373095</speed>
  <fix>3d</fix>
</trkpt>
<trkpt lat="40.0728423" lon="-105.2305753">
  <ele>1586.09</ele>
  <time>2026-08-28T19:12:09Z</time>
  <course>25.91</course>
  <speed>0.0</speed>
  <fix>3d</fix>
</trkpt>
<trkpt lat="40.0728422" lon="-105.2305752">
  <ele>1586.14</ele>
  <time>2026-08-28T19:12:09Z</time>
  <course>18.32</course>
  <speed>0.01414213562373095</speed>
  <fix>3d</fix>
</trkpt>
<trkpt lat="40.0728423" lon="-105.2305753">
  <ele>1586.09</ele>
  <time>2026-08-28T19:12:09Z</time>
  <course>356.25</course>
  <speed>0.0</speed>
  <fix>3d</fix>
</trkpt>
<trkpt lat="40.0728422" lon="-105.2305752">
  <ele>1586.15</ele>
  <time>2026-08-28T19:12:09Z</time>
  <course>18.34</course>
  <speed>0.022360679774997897</speed>
  <fix>3d</fix>
</trkpt>
<trkpt lat="40.0728423" lon="-105.2305753">
  <ele>1586.09</ele>
  <time>2026-08-28T19:12:09Z</time>
  <course>355.37</course>
  <speed>0.0</speed>
  <fix>3d</fix>
</trkpt>
<trkpt lat="40.0728422" lon="-105.2305752">
  <ele>1586.14</ele>
  <time>2026-08-28T19:12:09Z</time>
  <course>18.36</course>
  <speed>0.03605551275463989</speed>
  <fix>3d</fix>
</trkpt>
<trkpt lat="40.0728423" lon="-105.2305753">
  <ele>1586.09</ele>
  <time>2026-08-28T19:12:09Z</time>
  <course>31.65</course>
  <speed>0.0</speed>
  <fix>3d</fix>
</trkpt>
<trkpt lat="40.0728422" lon="-105.2305752">
  <ele>1586.14</ele>
  <time>2026-08-28T19:12:09Z</time>
  <course>18.33</course>
  <speed>0.0282842712474619</speed>
  <fix>3d</fix>
</trkpt>
<trkpt lat="40.0728423" lon="-105.2305753">
  <ele>1586.09</ele>
  <time>2026-08-28T19:12:09Z</time>
  <course>106.29</course>
  <speed>0.01</speed>
  <fix>3d</fix>
</trkpt>
<trkpt lat="40.0728422" lon="-105.2305752">
  <ele>1586.14</ele>
  <time>2026-08-28T19:12:09Z</time>
  <course>18.29</course>
  <speed>0.01414213562373095</speed>
  <fix>3d</fix>
</trkpt>
<trkpt lat="40.0728423" lon="-105.2305753">
  <ele>1586.09</ele>
  <time>2026-08-28T19:12:09Z</time>
  <course>110.42</course>
  <speed>0.01</speed>
  <fix>3d</fix>
</trkpt>
<trkpt lat="40.0728422" lon="-105.2305752">
  <ele>1586.14</ele>
  <time>2026-08-28T19:12:09Z</time>
  <course>18.26</course>
  <speed>0.022360679774997897</speed>
  <fix>3d</fix>
</trkpt>
<trkpt lat="40.0728423" lon="-105.2305753">
  <ele>1586.09</ele>
  <time>2026-08-28T19:12:09Z</time>
  <course>265.51</course>
  <speed>0.0</speed>
  <fix>3d</fix>
</trkpt>
<trkpt lat="40.0728422" lon="-105.2305752">
  <ele>1586.15</ele>
  <time>2026-08-28T19:12:09Z</time>
  <course>18.25</course>
  <speed>0.022360679774997897</speed>
  <fix>3d</fix>
</trkpt>
<trkpt lat="40.0728423" lon="-105.2305753">
  <ele>1586.09</ele>
  <time>2026-08-28T19:12:09Z</time>
  <course>269.88</course>
  <speed>0.0</speed>
  <fix>3d</fix>
</trkpt>
<trkpt lat="40.0728422" lon="-105.2305752">
  <ele>1586.15</ele>
  <time>2026-08-28T19:12:09Z</time>
  <course>18.24</course>
  <speed>0.022360679774997897</speed>
  <fix>3d</fix>
</trkpt>
<trkpt lat="40.0728423" lon="-105.2305753">
  <ele>1586.09</ele>
  <time>2026-08-28T19:12:09Z</time>
  <course>224.05</course>
  <speed>0.0</speed>
  <fix>3d</fix>
</trkpt>
<trkpt lat="40.0728422" lon="-105.2305752">
  <ele>1586.15</ele>
  <time>2026-08-28T19:12:09Z</time>
  <course>18.24</course>
  <speed>0.022360679774997897</speed>
  <fix>3d</fix>
</trkpt>
<trkpt lat="40.0728423" lon="-105.2305753">
  <ele>1586.09</ele>
  <time>2026-08-28T19:12:09Z</time>
  <course>238.85</course>
  <speed>0.0</speed>
  <fix>3d</fix>
</trkpt>
<trkpt lat="40.0728422" lon="-105.2305752">
  <ele>1586.15</ele>
  <time>2026-08-28T19:12:09Z</time>
  <course>18.24</course>
  <speed>0.022360679774997897</speed>
  <fix>3d</fix>
</trkpt>
<trkpt lat="40.0728423" lon="-105.2305753">
  <ele>1586.09</ele>
  <time>2026-08-28T19:12:09Z</time>
  <course>248.48</course>
  <speed>0.0</speed>
  <fix>3d</fix>
</trkpt>
<trkpt lat="40.0728422" lon="-105.2305752">
  <ele>1586.15</ele>
  <time>2026-08-28T19:12:09Z</time>
  <course>18.24</course>
  <speed>0.022360679774997897</speed>
  <fix>3d</fix>
</trkpt>
<trkpt lat="40.0728423" lon="-105.2305753">
  <ele>1586.09</ele>
  <time>2026-08-28T19:12:09Z</time>
  <course>238.41</course>
  <speed>0.0</speed>
  <fix>3d</fix>
</trkpt>
<trkpt lat="40.0728422" lon="-105.2305752">
  <ele>1586.15</ele>
  <time>2026-08-28T19:12:09Z</time>
  <course>18.24</course>
  <speed>0.022360679774997897</speed>
  <fix>3d</fix>
</trkpt>
<trkpt lat="40.0728423" lon="-105.2305753">
  <ele>1586.09</ele>
  <time>2026-08-28T19:12:09Z</time>
  <course>208.08</course>
  <speed>0.0</speed>
  <fix>3d</fix>
</trkpt>
<trkpt lat="40.0728422" lon="-105.2305752">
  <ele>1586.15</ele>
  <time>2026-08-28T19:12:09Z</time>
  <course>18.23</course>
  <speed>0.022360679774997897</speed>
  <fix>3d</fix>
</trkpt>
<trkpt lat="40.0728423" lon="-105.2305753">
  <ele>1586.09</ele>
  <time>2026-08-28T19:12:09Z</time>
  <course>67.27</course>
  <speed>0.0</speed>
  <fix>3d</fix>
</trkpt>
<trkpt lat="40.0728422" lon="-105.2305752">
  <ele>1586.15</ele>
  <time>2026-08-28T19:12:09Z</time>
  <course>18.23</course>
  <speed>0.022360679774997897</speed>
  <fix>3d</fix>
</trkpt>
<trkpt lat="40.0728423" lon="-105.2305753">
  <ele>1586.09</ele>
  <time>2026-08-28T19:12:09Z</time>
  <course>313.17</course>
  <speed>0.0</speed>
  <fix>3d</fix>
</trkpt>
<trkpt lat="40.0728422" lon="-105.2305752">
  <ele>1586.15</ele>
  <time>2026-08-28T19:12:09Z</time>
  <course>18.23</course>
  <speed>0.022360679774997897</speed>
  <fix>3d</fix>
</trkpt>
<trkpt lat="40.0728423" lon="-105.2305753">
  <ele>1586.09</ele>
  <time>2026-08-28T19:12:09Z</time>
  <course>265.33</course>
  <speed>0.0</speed>
  <fix>3d</fix>
</trkpt>
<trkpt lat="40.0728422" lon="-105.2305752">
  <ele>1586.15</ele>
  <time>2026-08-28T19:12:09Z</time>
  <course>18.23</course>
  <speed>0.022360679774997897</speed>
  <fix>3d</fix>
</trkpt>
<trkpt lat="40.0728423" lon="-105.2305753">
  <ele>1586.09</ele>
  <time>2026-08-28T19:12:09Z</time>
  <course>279.2</course>
  <speed>0.0</speed>
  <fix>3d</fix>
</trkpt>
<trkpt lat="40.0728422" lon="-105.2305752">
  <ele>1586.15</ele>
  <time>2026-08-28T19:12:09Z</time>
  <course>18.23</course>
  <speed>0.022360679774997897</speed>
  <fix>3d</fix>
</trkpt>
<trkpt lat="40.0728423" lon="-105.2305753">
  <ele>1586.09</ele>
  <time>2026-08-28T19:12:09Z</time>
  <course>287.86</course>
  <speed>0.0</speed>
  <fix>3d</fix>
</trkpt>
<trkpt lat="40.0728422" lon="-105.2305752">
  <ele>1586.16</ele>
  <time>2026-08-28T19:12:09Z</time>
  <course>18.22</course>
  <speed>0.022360679774997897</speed>
  <fix>3d</fix>
</trkpt>
<trkpt lat="40.0728423" lon="-105.2305753">
  <ele>1586.09</ele>
  <time>2026-08-28T19:12:09Z</time>
  <course>283.08</course>
  <speed>0.0</speed>
  <fix>3d</fix>
</trkpt>
<trkpt lat="40.0728422" lon="-105.2305752">
  <ele>1586.16</ele>
  <time>2026-08-28T19:12:09Z</time>
  <course>18.22</course>
  <speed>0.022360679774997897</speed>
  <fix>3d</fix>
</trkpt>
<trkpt lat="40.0728423" lon="-105.2305753">
  <ele>1586.09</ele>
  <time>2026-08-28T19:12:09Z</time>
  <course>282.57</course>
  <speed>0.0</speed>
  <fix>3d</fix>
</trkpt>
<trkpt lat="40.0728422" lon="-105.2305752">
  <ele>1586.16</ele>
  <time>2026-08-28T19:12:09Z</time>
  <course>18.22</course>
  <speed>0.022360679774997897</speed>
  <fix>3d</fix>
</trkpt>
<trkpt lat="40.0728423" lon="-105.2305753">
  <ele>1586.09</ele>
  <time>2026-08-28T19:12:09Z</time>
  <course>283.23</course>
  <speed>0.0</speed>
  <fix>3d</fix>
</trkpt>
<trkpt lat="40.0728422" lon="-105.2305752">
  <ele>1586.16</ele>
  <time>2026-08-28T19:12:09Z</time>
  <course>18.22</course>
  <speed>0.022360679774997897</speed>
  <fix>3d</fix>
</trkpt>
<trkpt lat="40.0728423" lon="-105.2305753">
  <ele>1586.09</ele>
  <time>2026-08-28T19:12:09Z</time>
  <course>283.22</course>
  <speed>0.0</speed>
  <fix>3d</fix>
</trkpt>
<trkpt lat="40.0728422" lon="-105.2305752">
  <ele>1586.16</ele>
  <time>2026-08-28T19:12:09Z</time>
  <course>18.21</course>
  <speed>0.022360679774997897</speed>
  <fix>3d</fix>
</trkpt>
<trkpt lat="40.0728423" lon="-105.2305753">
  <ele>1586.09</ele>
  <time>2026-08-28T19:12:09Z</time>
  <course>283.13</course>
  <speed>0.0</speed>
  <fix>3d</fix>
</trkpt>
<trkpt lat="40.0728422" lon="-105.2305752">
  <ele>1586.16</ele>
  <time>2026-08-28T19:12:09Z</time>
  <course>18.21</course>
  <speed>0.022360679774997897</speed>
  <fix>3d</fix>
</trkpt>
<trkpt lat="40.0728423" lon="-105.2305753">
  <ele>1586.09</ele>
  <time>2026-08-28T19:12:09Z</time>
  <course>283.14</course>
  <speed>0.0</speed>
  <fix>3d</fix>
</trkpt>
<trkpt lat="40.0728422" lon="-105.2305752">
  <ele>1586.16</ele>
  <time>2026-08-28T19:12:09Z</time>
  <course>18.21</course>
  <speed>0.022360679774997897</speed>
  <fix>3d</fix>
</trkpt>
<trkpt lat="40.0728423" lon="-105.2305753">
  <ele>1586.09</ele>
  <time>2026-08-28T19:12:09Z</time>
  <course>283.15</course>
  <speed>0.0</speed>
  <fix>3d</fix>
</trkpt>
<trkpt lat="40.0728422" lon="-105.2305752">
  <ele>1586.16</ele>
  <time>2026-08-28T19:12:09Z</time>
  <course>18.21</course>
  <speed>0.022360679774997897</speed>
  <fix>3d</fix>
</trkpt>
<trkpt lat="40.0728423" lon="-105.2305753">
  <ele>1586.09</ele>
  <time>2026-08-28T19:12:09Z</time>
  <course>283.15</course>
  <speed>0.0</speed>
  <fix>3d</fix>
</trkpt>
<trkpt lat="40.0728422" lon="-105.2305752">
  <ele>1586.16</ele>
  <time>2026-08-28T19:12:09Z</time>
  <course>18.21</course>
  <speed>0.022360679774997897</speed>
  <fix>3d</fix>
</trkpt>
<trkpt lat="40.0728423" lon="-105.2305753">
  <ele>1586.09</ele>
  <time>2026-08-28T19:12:09Z</time>
  <course>283.15</course>
  <speed>0.0</speed>
  <fix>3d</fix>
</trkpt>
<trkpt lat="40.0728422" lon="-105.2305752">
  <ele>1586.16</ele>
  <time>2026-08-28T19:12:09Z</time>
  <course>18.21</course>
  <speed>0.022360679774997897</speed>
  <fix>3d</fix>
</trkpt>
<trkpt lat="40.0728423" lon="-105.2305753">
  <ele>1586.09</ele>
  <time>2026-08-28T19:12:09Z</time>
  <course>283.15</course>
  <speed>0.0</speed>
  <fix>3d</fix>
</trkpt>
<trkpt lat="40.0728422" lon="-105.2305752">
  <ele>1586.16</ele>
  <time>2026-08-28T19:12:09Z</time>
  <course>18.21</course>
  <speed>0.022360679774997897</speed>
  <fix>3d</fix>
</trkpt>
<trkpt lat="40.0728423" lon="-105.2305753">
  <ele>1586.09</ele>
  <time>2026-08-28T19:12:09Z</time>
  <course>283.15</course>
  <speed>0.0</speed>
  <fix>3d</fix>
</trkpt>
<trkpt lat="40.0728422" lon="-105.2305752">
  <ele>1586.17</ele>
  <time>2026-08-28T19:12:09Z</time>
  <course>18.2</course>
  <speed>0.022360679774997897</speed>
  <fix>3d</fix>
</trkpt>
<trkpt lat="40.0728423" lon="-105.2305753">
  <ele>1586.09</ele>
  <time>2026-08-28T19:12:09Z</time>
  <course>283.15</course>
  <speed>0.0</speed>
  <fix>3d</fix>
</trkpt>
<trkpt lat="40.0728422" lon="-105.2305752">
  <ele>1586.17</ele>
  <time>2026-08-28T19:12:09Z</time>
  <course>18.2</course>
  <speed>0.022360679774997897</speed>
  <fix>3d</fix>
</trkpt>
<trkpt lat="40.0728423" lon="-105.2305753">
  <ele>1586.09</ele>
  <time>2026-08-28T19:12:09Z</time>
  <course>283.15</course>
  <speed>0.0</speed>
  <fix>3d</fix>
</trkpt>
<trkpt lat="40.0728422" lon="-105.2305752">
  <ele>1586.17</ele>
  <time>2026-08-28T19:12:09Z</time>
  <course>18.2</course>
  <speed>0.022360679774997897</speed>
  <fix>3d</fix>
</trkpt>
<trkpt lat="40.0728423" lon="-105.2305753">
  <ele>1586.09</ele>
  <time>2026-08-28T19:12:09Z</time>
  <course>283.15</course>
  <speed>0.0</speed>
  <fix>3d</fix>
</trkpt>
<trkpt lat="40.0728422" lon="-105.2305752">
  <ele>1586.17</ele>
  <time>2026-08-28T19:12:09Z</time>
  <course>18.2</course>
  <speed>0.022360679774997897</speed>
  <fix>3d</fix>
</trkpt>
<trkpt lat="40.0728423" lon="-105.2305753">
  <ele>1586.09</ele>
  <time>2026-08-28T19:12:09Z</time>
  <course>283.15</course>
  <speed>0.0</speed>
  <fix>3d</fix>
</trkpt>
<trkpt lat="40.0728422" lon="-105.2305752">
  <ele>1586.17</ele>
  <time>2026-08-28T19:12:09Z</time>
  <course>18.2</course>
  <speed>0.022360679774997897</speed>
  <fix>3d</fix>
</trkpt>
<trkpt lat="40.0728423" lon="-105.2305753">
  <ele>1586.09</ele>
  <time>2026-08-28T19:12:09Z</time>
  <course>283.15</course>
  <speed>0.0</speed>
  <fix>3d</fix>
</trkpt>
<trkpt lat="40.0728422" lon="-105.2305752">
  <ele>1586.17</ele>
  <time>2026-08-28T19:12:09Z</time>
  <course>18.19</course>
  <speed>0.022360679774997897</speed>
  <fix>3d</fix>
</trkpt>
<trkpt lat="40.0728423" lon="-105.2305753">
  <ele>1586.09</ele>
  <time>2026-08-28T19:12:09Z</time>
  <course>283.15</course>
  <speed>0.0</speed>
  <fix>3d</fix>
</trkpt>
<trkpt lat="40.0728422" lon="-105.2305752">
  <ele>1586.16</ele>
  <time>2026-08-28T19:12:09Z</time>
  <course>18.19</course>
  <speed>0.022360679774997897</speed>
  <fix>3d</fix>
</trkpt>
<trkpt lat="40.0728423" lon="-105.2305753">
  <ele>1586.09</ele>
  <time>2026-08-28T19:12:09Z</time>
  <course>283.15</course>
  <speed>0.0</speed>
  <fix>3d</fix>
</trkpt>
<trkpt lat="40.0728422" lon="-105.2305752">
  <ele>1586.17</ele>
  <time>2026-08-28T19:12:09Z</time>
  <course>18.19</course>
  <speed>0.022360679774997897</speed>
  <fix>3d</fix>
</trkpt>
<trkpt lat="40.0728423" lon="-105.2305753">
  <ele>1586.09</ele>
  <time>2026-08-28T19:12:09Z</time>
  <course>283.15</course>
  <speed>0.0</speed>
  <fix>3d</fix>
</trkpt>
<trkpt lat="40.0728422" lon="-105.2305752">
  <ele>1586.17</ele>
  <time>2026-08-28T19:12:09Z</time>
  <course>18.19</course>
  <speed>0.022360679774997897</speed>
  <fix>3d</fix>
</trkpt>
<trkpt lat="40.0728423" lon="-105.2305753">
  <ele>1586.09</ele>
  <time>2026-08-28T19:12:09Z</time>
  <course>283.15</course>
  <speed>0.0</speed>
  <fix>3d</fix>
</trkpt>
<trkpt lat="40.0728422" lon="-105.2305752">
  <ele>1586.17</ele>
  <time>2026-08-28T19:12:09Z</time>
  <course>18.19</course>
  <speed>0.022360679774997897</speed>
  <fix>3d</fix>
</trkpt>
<trkpt lat="40.0728423" lon="-105.2305753">
  <ele>1586.09</ele>
  <time>2026-08-28T19:12:09Z</time>
  <course>283.15</course>
  <speed>0.0</speed>
  <fix>3d</fix>
</trkpt>
<trkpt lat="40.0728422" lon="-105.2305752">
  <ele>1586.17</ele>
  <time>2026-08-28T19:12:09Z</time>
  <course>18.19</course>
  <speed>0.022360679774997897</speed>
  <fix>3d</fix>
</trkpt>
<trkpt lat="40.0728423" lon="-105.2305753">
  <ele>1586.09</ele>
  <time>2026-08-28T19:12:09Z</time>
  <course>283.15</course>
  <speed>0.0</speed>
  <fix>3d</fix>
</trkpt>
<trkpt lat="40.0728422" lon="-105.2305752">
  <ele>1586.17</ele>
  <time>2026-08-28T19:12:09Z</time>
  <course>18.18</course>
  <speed>0.022360679774997897</speed>
  <fix>3d</fix>
</trkpt>
<trkpt lat="40.0728423" lon="-105.2305753">
  <ele>1586.09</ele>
  <time>2026-08-28T19:12:09Z</time>
  <course>283.15</course>
  <speed>0.0</speed>
  <fix>3d</fix>
</trkpt>
<trkpt lat="40.0728422" lon="-105.2305752">
  <ele>1586.17</ele>
  <time>2026-08-28T19:12:09Z</time>
  <course>18.18</course>
  <speed>0.022360679774997897</speed>
  <fix>3d</fix>
</trkpt>
<trkpt lat="40.0728423" lon="-105.2305753">
  <ele>1586.09</ele>
  <time>2026-08-28T19:12:09Z</time>
  <course>283.15</course>
  <speed>0.0</speed>
  <fix>3d</fix>
</trkpt>
<trkpt lat="40.0728422" lon="-105.2305752">
  <ele>1586.17</ele>
  <time>2026-08-28T19:12:09Z</time>
  <course>18.18</course>
  <speed>0.022360679774997897</speed>
  <fix>3d</fix>
</trkpt>
<trkpt lat="40.0728423" lon="-105.2305753">
  <ele>1586.09</ele>
  <time>2026-08-28T19:12:09Z</time>
  <course>283.15</course>
  <speed>0.0</speed>
  <fix>3d</fix>
</trkpt>
<trkpt lat="40.0728422" lon="-105.2305752">
  <ele>1586.17</ele>
  <time>2026-08-28T19:12:09Z</time>
  <course>18.18</course>
  <speed>0.022360679774997897</speed>
  <fix>3d</fix>
</trkpt>
<trkpt lat="40.0728423" lon="-105.2305753">
  <ele>1586.09</ele>
  <time>2026-08-28T19:12:09Z</time>
  <course>283.15</course>
  <speed>0.0</speed>
  <fix>3d</fix>
</trkpt>
<trkpt lat="40.0728422" lon="-105.2305752">
  <ele>1586.17</ele>
  <time>2026-08-28T19:12:09Z</time>
  <course>18.18</course>
  <speed>0.022360679774997897</speed>
  <fix>3d</fix>
</trkpt>
<trkpt lat="40.0728423" lon="-105.2305753">
  <ele>1586.09</ele>
  <time>2026-08-28T19:12:09Z</time>
  <course>283.15</course>
  <speed>0.0</speed>
  <fix>3d</fix>
</trkpt>
<trkpt lat="40.0728422" lon="-105.2305752">
  <ele>1586.17</ele>
  <time>2026-08-28T19:12:09Z</time>
  <course>18.18</course>
  <speed>0.022360679774997897</speed>
  <fix>3d</fix>
</trkpt>
<trkpt lat="40.0728423" lon="-105.2305753">
  <ele>1586.09</ele>
  <time>2026-08-28T19:12:09Z</time>
  <course>283.15</course>
  <speed>0.0</speed>
  <fix>3d</fix>
</trkpt>
<trkpt lat="40.0728422" lon="-105.2305752">
  <ele>1586.17</ele>
  <time>2026-08-28T19:12:09Z</time>
  <course>18.18</course>
  <speed>0.022360679774997897</speed>
  <fix>3d</fix>
</trkpt>
<trkpt lat="40.0728423" lon="-105.2305753">
  <ele>1586.09</ele>
  <time>2026-08-28T19:12:09Z</time>
  <course>283.15</course>
  <speed>0.0</speed>
  <fix>3d</fix>
</trkpt>
<trkpt lat="40.0728422" lon="-105.2305752">
  <ele>1586.17</ele>
  <time>2026-08-28T19:12:09Z</time>
  <course>18.17</course>
  <speed>0.022360679774997897</speed>
  <fix>3d</fix>
</trkpt>
<trkpt lat="40.0728423" lon="-105.2305753">
  <ele>1586.09</ele>
  <time>2026-08-28T19:12:09Z</time>
  <course>283.15</course>
  <speed>0.0</speed>
  <fix>3d</fix>
</trkpt>
<trkpt lat="40.0728422" lon="-105.2305752">
  <ele>1586.18</ele>
  <time>2026-08-28T19:12:09Z</time>
  <course>18.17</course>
  <speed>0.022360679774997897</speed>
  <fix>3d</fix>
</trkpt>
<trkpt lat="40.0728423" lon="-105.2305753">
  <ele>1586.09</ele>
  <time>2026-08-28T19:12:09Z</time>
  <course>283.15</course>
  <speed>0.0</speed>
  <fix>3d</fix>
</trkpt>
<trkpt lat="40.0728422" lon="-105.2305752">
  <ele>1586.18</ele>
  <time>2026-08-28T19:12:09Z</time>
  <course>18.17</course>
  <speed>0.022360679774997897</speed>
  <fix>3d</fix>
</trkpt>
<trkpt lat="40.0728423" lon="-105.2305753">
  <ele>1586.09</ele>
  <time>2026-08-28T19:12:09Z</time>
  <course>283.15</course>
  <speed>0.0</speed>
  <fix>3d</fix>
</trkpt>
<trkpt lat="40.0728422" lon="-105.2305752">
  <ele>1586.18</ele>
  <time>2026-08-28T19:12:09Z</time>
  <course>18.17</course>
  <speed>0.022360679774997897</speed>
  <fix>3d</fix>
</trkpt>
<trkpt lat="40.0728423" lon="-105.2305753">
  <ele>1586.09</ele>
  <time>2026-08-28T19:12:09Z</time>
  <course>283.15</course>
  <speed>0.0</speed>
  <fix>3d</fix>
</trkpt>
<trkpt lat="40.0728422" lon="-105.2305752">
  <ele>1586.18</ele>
  <time>2026-08-28T19:12:09Z</time>
  <course>18.17</course>
  <speed>0.022360679774997897</speed>
  <fix>3d</fix>
</trkpt>
<trkpt lat="40.0728423" lon="-105.2305753">
  <ele>1586.09</ele>
  <time>2026-08-28T19:12:09Z</time>
  <course>283.15</course>
  <speed>0.0</speed>
  <fix>3d</fix>
</trkpt>
<trkpt lat="40.0728422" lon="-105.2305752">
  <ele>1586.19</ele>
  <time>2026-08-28T19:12:09Z</time>
  <course>18.16</course>
  <speed>0.022360679774997897</speed>
  <fix>3d</fix>
</trkpt>
<trkpt lat="40.0728423" lon="-105.2305753">
  <ele>1586.09</ele>
  <time>2026-08-28T19:12:09Z</time>
  <course>283.15</course>
  <speed>0.0</speed>
  <fix>3d</fix>
</trkpt>
<trkpt lat="40.0728422" lon="-105.2305752">
  <ele>1586.19</ele>
  <time>2026-08-28T19:12:09Z</time>
  <course>18.16</course>
  <speed>0.022360679774997897</speed>
  <fix>3d</fix>
</trkpt>
<trkpt lat="40.0728423" lon="-105.2305753">
  <ele>1586.09</ele>
  <time>2026-08-28T19:12:09Z</time>
  <course>283.15</course>
  <speed>0.0</speed>
  <fix>3d</fix>
</trkpt>
<trkpt lat="40.0728422" lon="-105.2305752">
  <ele>1586.18</ele>
  <time>2026-08-28T19:12:09Z</time>
  <course>18.22</course>
  <speed>0.022360679774997897</speed>
  <fix>3d</fix>
</trkpt>
<trkpt lat="40.0728423" lon="-105.2305753">
  <ele>1586.09</ele>
  <time>2026-08-28T19:12:09Z</time>
  <course>283.15</course>
  <speed>0.0</speed>
  <fix>3d</fix>
</trkpt>
<trkpt lat="40.0728422" lon="-105.2305752">
  <ele>1586.17</ele>
  <time>2026-08-28T19:12:09Z</time>
  <course>18.34</course>
  <speed>0.022360679774997897</speed>
  <fix>3d</fix>
</trkpt>
<trkpt lat="40.0728423" lon="-105.2305753">
  <ele>1586.09</ele>
  <time>2026-08-28T19:12:09Z</time>
  <course>338.1</course>
  <speed>0.0</speed>
  <fix>3d</fix>
</trkpt>
<trkpt lat="40.0728422" lon="-105.2305752">
  <ele>1586.17</ele>
  <time>2026-08-28T19:12:09Z</time>
  <course>18.45</course>
  <speed>0.022360679774997897</speed>
  <fix>3d</fix>
</trkpt>
<trkpt lat="40.0728423" lon="-105.2305753">
  <ele>1586.09</ele>
  <time>2026-08-28T19:12:09Z</time>
  <course>331.19</course>
  <speed>0.0</speed>
  <fix>3d</fix>
</trkpt>
<trkpt lat="40.0728422" lon="-105.2305752">
  <ele>1586.16</ele>
  <time>2026-08-28T19:12:09Z</time>
  <course>18.56</course>
  <speed>0.022360679774997897</speed>
  <fix>3d</fix>
</trkpt>
<trkpt lat="40.0728423" lon="-105.2305753">
  <ele>1586.09</ele>
  <time>2026-08-28T19:12:09Z</time>
  <course>213.03</course>
  <speed>0.0</speed>
  <fix>3d</fix>
</trkpt>
<trkpt lat="40.0728422" lon="-105.2305752">
  <ele>1586.16</ele>
  <time>2026-08-28T19:12:09Z</time>
  <course>18.67</course>
  <speed>0.022360679774997897</speed>
  <fix>3d</fix>
</trkpt>
<trkpt lat="40.0728423" lon="-105.2305753">
  <ele>1586.09</ele>
  <time>2026-08-28T19:12:09Z</time>
  <course>174.18</course>
  <speed>0.0</speed>
  <fix>3d</fix>
</trkpt>
<trkpt lat="40.0728422" lon="-105.2305752">
  <ele>1586.16</ele>
  <time>2026-08-28T19:12:09Z</time>
  <course>18.77</course>
  <speed>0.022360679774997897</speed>
  <fix>3d</fix>
</trkpt>
<trkpt lat="40.0728423" lon="-105.2305753">
  <ele>1586.09</ele>
  <time>2026-08-28T19:12:09Z</time>
  <course>317.44</course>
  <speed>0.0</speed>
  <fix>3d</fix>
</trkpt>
<trkpt lat="40.0728422" lon="-105.2305752">
  <ele>1586.16</ele>
  <time>2026-08-28T19:12:09Z</time>
  <course>18.87</course>
  <speed>0.022360679774997897</speed>
  <fix>3d</fix>
</trkpt>
<trkpt lat="40.0728423" lon="-105.2305753">
  <ele>1586.09</ele>
  <time>2026-08-28T19:12:09Z</time>
  <course>288.19</course>
  <speed>0.0</speed>
  <fix>3d</fix>
</trkpt>
<trkpt lat="40.0728422" lon="-105.2305752">
  <ele>1586.16</ele>
  <time>2026-08-28T19:12:09Z</time>
  <course>18.97</course>
  <speed>0.022360679774997897</speed>
  <fix>3d</fix>
</trkpt>
<trkpt lat="40.0728423" lon="-105.2305753">
  <ele>1586.09</ele>
  <time>2026-08-28T19:12:09Z</time>
  <course>262.65</course>
  <speed>0.0</speed>
  <fix>3d</fix>
</trkpt>
<trkpt lat="40.0728422" lon="-105.2305752">
  <ele>1586.16</ele>
  <time>2026-08-28T19:12:09Z</time>
  <course>19.07</course>
  <speed>0.022360679774997897</speed>
  <fix>3d</fix>
</trkpt>
<trkpt lat="40.0728423" lon="-105.2305753">
  <ele>1586.09</ele>
  <time>2026-08-28T19:12:09Z</time>
  <course>100.52</course>
  <speed>0.0</speed>
  <fix>3d</fix>
</trkpt>
<trkpt lat="40.0728422" lon="-105.2305752">
  <ele>1586.16</ele>
  <time>2026-08-28T19:12:09Z</time>
  <course>19.17</course>
  <speed>0.022360679774997897</speed>
  <fix>3d</fix>
</trkpt>
<trkpt lat="40.0728423" lon="-105.2305753">
  <ele>1586.09</ele>
  <time>2026-08-28T19:12:09Z</time>
  <course>324.51</course>
  <speed>0.0</speed>
  <fix>3d</fix>
</trkpt>
<trkpt lat="40.0728422" lon="-105.2305752">
  <ele>1586.16</ele>
  <time>2026-08-28T19:12:09Z</time>
  <course>19.26</course>
  <speed>0.022360679774997897</speed>
  <fix>3d</fix>
</trkpt>
<trkpt lat="40.0728423" lon="-105.2305753">
  <ele>1586.09</ele>
  <time>2026-08-28T19:12:09Z</time>
  <course>176.49</course>
  <speed>0.0</speed>
  <fix>3d</fix>
</trkpt>
<trkpt lat="40.0728422" lon="-105.2305752">
  <ele>1586.16</ele>
  <time>2026-08-28T19:12:09Z</time>
  <course>19.36</course>
  <speed>0.02</speed>
  <fix>3d</fix>
</trkpt>
<trkpt lat="40.0728423" lon="-105.2305753">
  <ele>1586.09</ele>
  <time>2026-08-28T19:12:09Z</time>
  <course>139.21</course>
  <speed>0.0</speed>
  <fix>3d</fix>
</trkpt>
<trkpt lat="40.0728422" lon="-105.2305752">
  <ele>1586.17</ele>
  <time>2026-08-28T19:12:09Z</time>
  <course>19.46</course>
  <speed>0.02</speed>
  <fix>3d</fix>
</trkpt>
<trkpt lat="40.0728423" lon="-105.2305753">
  <ele>1586.09</ele>
  <time>2026-08-28T19:12:09Z</time>
  <course>107.82</course>
  <speed>0.0</speed>
  <fix>3d</fix>
</trkpt>
<trkpt lat="40.0728422" lon="-105.2305752">
  <ele>1586.16</ele>
  <time>2026-08-28T19:12:09Z</time>
  <course>19.55</course>
  <speed>0.02</speed>
  <fix>3d</fix>
</trkpt>
<trkpt lat="40.0728423" lon="-105.2305753">
  <ele>1586.09</ele>
  <time>2026-08-28T19:12:09Z</time>
  <course>315.54</course>
  <speed>0.0</speed>
  <fix>3d</fix>
</trkpt>
<trkpt lat="40.0728422" lon="-105.2305752">
  <ele>1586.16</ele>
  <time>2026-08-28T19:12:09Z</time>
  <course>19.64</course>
  <speed>0.02</speed>
  <fix>3d</fix>
</trkpt>
<trkpt lat="40.0728423" lon="-105.2305753">
  <ele>1586.09</ele>
  <time>2026-08-28T19:12:09Z</time>
  <course>274.3</course>
  <speed>0.0</speed>
  <fix>3d</fix>
</trkpt>
<trkpt lat="40.0728422" lon="-105.2305752">
  <ele>1586.16</ele>
  <time>2026-08-28T19:12:09Z</time>
  <course>19.73</course>
  <speed>0.02</speed>
  <fix>3d</fix>
</trkpt>
<trkpt lat="40.0728423" lon="-105.2305753">
  <ele>1586.09</ele>
  <time>2026-08-28T19:12:09Z</time>
  <course>203.97</course>
  <speed>0.0</speed>
  <fix>3d</fix>
</trkpt>
<trkpt lat="40.0728422" lon="-105.2305752">
  <ele>1586.15</ele>
  <time>2026-08-28T19:12:09Z</time>
  <course>19.82</course>
  <speed>0.02</speed>
  <fix>3d</fix>
</trkpt>
<trkpt lat="40.0728423" lon="-105.2305753">
  <ele>1586.09</ele>
  <time>2026-08-28T19:12:09Z</time>
  <course>290.07</course>
  <speed>0.0</speed>
  <fix>3d</fix>
</trkpt>
<trkpt lat="40.0728422" lon="-105.2305752">
  <ele>1586.15</ele>
  <time>2026-08-28T19:12:09Z</time>
  <course>19.9</course>
  <speed>0.02</speed>
  <fix>3d</fix>
</trkpt>
<trkpt lat="40.0728423" lon="-105.2305753">
  <ele>1586.09</ele>
  <time>2026-08-28T19:12:09Z</time>
  <course>285.9</course>
  <speed>0.0</speed>
  <fix>3d</fix>
</trkpt>
<trkpt lat="40.0728422" lon="-105.2305752">
  <ele>1586.15</ele>
  <time>2026-08-28T19:12:09Z</time>
  <course>19.99</course>
  <speed>0.02</speed>
  <fix>3d</fix>
</trkpt>
<trkpt lat="40.0728423" lon="-105.2305753">
  <ele>1586.09</ele>
  <time>2026-08-28T19:12:09Z</time>
  <course>281.91</course>
  <speed>0.0</speed>
  <fix>3d</fix>
</trkpt>
<trkpt lat="40.0728422" lon="-105.2305752">
  <ele>1586.15</ele>
  <time>2026-08-28T19:12:09Z</time>
  <course>20.07</course>
  <speed>0.02</speed>
  <fix>3d</fix>
</trkpt>
<trkpt lat="40.0728423" lon="-105.2305753">
  <ele>1586.09</ele>
  <time>2026-08-28T19:12:09Z</time>
  <course>282.87</course>
  <speed>0.0</speed>
  <fix>3d</fix>
</trkpt>
<trkpt lat="40.0728422" lon="-105.2305752">
  <ele>1586.15</ele>
  <time>2026-08-28T19:12:09Z</time>
  <course>20.16</course>
  <speed>0.02</speed>
  <fix>3d</fix>
</trkpt>
<trkpt lat="40.0728423" lon="-105.2305753">
  <ele>1586.09</ele>
  <time>2026-08-28T19:12:09Z</time>
  <course>283.34</course>
  <speed>0.0</speed>
  <fix>3d</fix>
</trkpt>
<trkpt lat="40.0728422" lon="-105.2305752">
  <ele>1586.15</ele>
  <time>2026-08-28T19:12:09Z</time>
  <course>20.24</course>
  <speed>0.02</speed>
  <fix>3d</fix>
</trkpt>
<trkpt lat="40.0728423" lon="-105.2305753">
  <ele>1586.09</ele>
  <time>2026-08-28T19:12:09Z</time>
  <course>283.16</course>
  <speed>0.0</speed>
  <fix>3d</fix>
</trkpt>
<trkpt lat="40.0728422" lon="-105.2305752">
  <ele>1586.15</ele>
  <time>2026-08-28T19:12:09Z</time>
  <course>20.33</course>
  <speed>0.02</speed>
  <fix>3d</fix>
</trkpt>
<trkpt lat="40.0728423" lon="-105.2305753">
  <ele>1586.09</ele>
  <time>2026-08-28T19:12:09Z</time>
  <course>283.12</course>
  <speed>0.0</speed>
  <fix>3d</fix>
</trkpt>
<trkpt lat="40.0728422" lon="-105.2305752">
  <ele>1586.16</ele>
  <time>2026-08-28T19:12:09Z</time>
  <course>20.41</course>
  <speed>0.02</speed>
  <fix>3d</fix>
</trkpt>
<trkpt lat="40.0728423" lon="-105.2305753">
  <ele>1586.09</ele>
  <time>2026-08-28T19:12:09Z</time>
  <course>283.15</course>
  <speed>0.0</speed>
  <fix>3d</fix>
</trkpt>
<trkpt lat="40.0728422" lon="-105.2305752">
  <ele>1586.16</ele>
  <time>2026-08-28T19:12:09Z</time>
  <course>20.49</course>
  <speed>0.02</speed>
  <fix>3d</fix>
</trkpt>
<trkpt lat="40.0728423" lon="-105.2305753">
  <ele>1586.09</ele>
  <time>2026-08-28T19:12:09Z</time>
  <course>283.15</course>
  <speed>0.0</speed>
  <fix>3d</fix>
</trkpt>
<trkpt lat="40.0728422" lon="-105.2305752">
  <ele>1586.16</ele>
  <time>2026-08-28T19:12:09Z</time>
  <course>20.57</course>
  <speed>0.02</speed>
  <fix>3d</fix>
</trkpt>
<trkpt lat="40.0728423" lon="-105.2305753">
  <ele>1586.09</ele>
  <time>2026-08-28T19:12:09Z</time>
  <course>283.15</course>
  <speed>0.0</speed>
  <fix>3d</fix>
</trkpt>
<trkpt lat="40.0728422" lon="-105.2305752">
  <ele>1586.16</ele>
  <time>2026-08-28T19:12:09Z</time>
  <course>20.65</course>
  <speed>0.02</speed>
  <fix>3d</fix>
</trkpt>
<trkpt lat="40.0728423" lon="-105.2305753">
  <ele>1586.09</ele>
  <time>2026-08-28T19:12:09Z</time>
  <course>283.15</course>
  <speed>0.0</speed>
  <fix>3d</fix>
</trkpt>
<trkpt lat="40.0728422" lon="-105.2305752">
  <ele>1586.16</ele>
  <time>2026-08-28T19:12:09Z</time>
  <course>20.73</course>
  <speed>0.02</speed>
  <fix>3d</fix>
</trkpt>
<trkpt lat="40.0728423" lon="-105.2305753">
  <ele>1586.09</ele>
  <time>2026-08-28T19:12:09Z</time>
  <course>283.15</course>
  <speed>0.0</speed>
  <fix>3d</fix>
</trkpt>
<trkpt lat="40.0728422" lon="-105.2305752">
  <ele>1586.16</ele>
  <time>2026-08-28T19:12:09Z</time>
  <course>20.8</course>
  <speed>0.02</speed>
  <fix>3d</fix>
</trkpt>
<trkpt lat="40.0728423" lon="-105.2305753">
  <ele>1586.09</ele>
  <time>2026-08-28T19:12:09Z</time>
  <course>227.07</course>
  <speed>0.0</speed>
  <fix>3d</fix>
</trkpt>
<trkpt lat="40.0728422" lon="-105.2305752">
  <ele>1586.16</ele>
  <time>2026-08-28T19:12:09Z</time>
  <course>20.88</course>
  <speed>0.02</speed>
  <fix>3d</fix>
</trkpt>
<trkpt lat="40.0728423" lon="-105.2305753">
  <ele>1586.09</ele>
  <time>2026-08-28T19:12:09Z</time>
  <course>263.56</course>
  <speed>0.0</speed>
  <fix>3d</fix>
</trkpt>
<trkpt lat="40.0728422" lon="-105.2305752">
  <ele>1586.16</ele>
  <time>2026-08-28T19:12:09Z</time>
  <course>20.95</course>
  <speed>0.02</speed>
  <fix>3d</fix>
</trkpt>
<trkpt lat="40.0728423" lon="-105.2305753">
  <ele>1586.09</ele>
  <time>2026-08-28T19:12:09Z</time>
  <course>285.94</course>
  <speed>0.0</speed>
  <fix>3d</fix>
</trkpt>
<trkpt lat="40.0728422" lon="-105.2305752">
  <ele>1586.16</ele>
  <time>2026-08-28T19:12:09Z</time>
  <course>21.03</course>
  <speed>0.02</speed>
  <fix>3d</fix>
</trkpt>
<trkpt lat="40.0728423" lon="-105.2305753">
  <ele>1586.09</ele>
  <time>2026-08-28T19:12:09Z</time>
  <course>278.14</course>
  <speed>0.0</speed>
  <fix>3d</fix>
</trkpt>
<trkpt lat="40.0728422" lon="-105.2305752">
  <ele>1586.16</ele>
  <time>2026-08-28T19:12:09Z</time>
  <course>21.1</course>
  <speed>0.02</speed>
  <fix>3d</fix>
</trkpt>
<trkpt lat="40.0728423" lon="-105.2305753">
  <ele>1586.09</ele>
  <time>2026-08-28T19:12:09Z</time>
  <course>283.67</course>
  <speed>0.0</speed>
  <fix>3d</fix>
</trkpt>
<trkpt lat="40.0728422" lon="-105.2305752">
  <ele>1586.16</ele>
  <time>2026-08-28T19:12:09Z</time>
  <course>21.18</course>
  <speed>0.02</speed>
  <fix>3d</fix>
</trkpt>
<trkpt lat="40.0728423" lon="-105.2305753">
  <ele>1586.09</ele>
  <time>2026-08-28T19:12:09Z</time>
  <course>337.22</course>
  <speed>0.0</speed>
  <fix>3d</fix>
</trkpt>
<trkpt lat="40.0728422" lon="-105.2305752">
  <ele>1586.16</ele>
  <time>2026-08-28T19:12:09Z</time>
  <course>21.25</course>
  <speed>0.02</speed>
  <fix>3d</fix>
</trkpt>
<trkpt lat="40.0728423" lon="-105.2305753">
  <ele>1586.09</ele>
  <time>2026-08-28T19:12:09Z</time>
  <course>297.69</course>
  <speed>0.0</speed>
  <fix>3d</fix>
</trkpt>
<trkpt lat="40.0728422" lon="-105.2305752">
  <ele>1586.16</ele>
  <time>2026-08-28T19:12:10Z</time>
  <course>21.32</course>
  <speed>0.02</speed>
  <fix>3d</fix>
</trkpt>
<trkpt lat="40.0728423" lon="-105.2305753">
  <ele>1586.09</ele>
  <time>2026-08-28T19:12:10Z</time>
  <course>337.56</course>
  <speed>0.0</speed>
  <fix>3d</fix>
</trkpt>
<trkpt lat="40.0728422" lon="-105.2305752">
  <ele>1586.16</ele>
  <time>2026-08-28T19:12:10Z</time>
  <course>21.39</course>
  <speed>0.02</speed>
  <fix>3d</fix>
</trkpt>
<trkpt lat="40.0728423" lon="-105.2305753">
  <ele>1586.09</ele>
  <time>2026-08-28T19:12:10Z</time>
  <course>347.55</course>
  <speed>0.0</speed>
  <fix>3d</fix>
</trkpt>
<trkpt lat="40.0728422" lon="-105.2305752">
  <ele>1586.16</ele>
  <time>2026-08-28T19:12:10Z</time>
  <course>21.46</course>
  <speed>0.02</speed>
  <fix>3d</fix>
</trkpt>
<trkpt lat="40.0728423" lon="-105.2305753">
  <ele>1586.09</ele>
  <time>2026-08-28T19:12:10Z</time>
  <course>291.08</course>
  <speed>0.0</speed>
  <fix>3d</fix>
</trkpt>
<trkpt lat="40.0728422" lon="-105.2305752">
  <ele>1586.15</ele>
  <time>2026-08-28T19:12:10Z</time>
  <course>21.53</course>
  <speed>0.02</speed>
  <fix>3d</fix>
</trkpt>
<trkpt lat="40.0728423" lon="-105.2305753">
  <ele>1586.09</ele>
  <time>2026-08-28T19:12:10Z</time>
  <course>191.39</course>
  <speed>0.0</speed>
  <fix>3d</fix>
</trkpt>
<trkpt lat="40.0728422" lon="-105.2305752">
  <ele>1586.15</ele>
  <time>2026-08-28T19:12:10Z</time>
  <course>21.6</course>
  <speed>0.02</speed>
  <fix>3d</fix>
</trkpt>
<trkpt lat="40.0728423" lon="-105.2305753">
  <ele>1586.09</ele>
  <time>2026-08-28T19:12:10Z</time>
  <course>315.57</course>
  <speed>0.0</speed>
  <fix>3d</fix>
</trkpt>
<trkpt lat="40.0728422" lon="-105.2305752">
  <ele>1586.15</ele>
  <time>2026-08-28T19:12:10Z</time>
  <course>21.67</course>
  <speed>0.01</speed>
  <fix>3d</fix>
</trkpt>
<trkpt lat="40.0728423" lon="-105.2305753">
  <ele>1586.09</ele>
  <time>2026-08-28T19:12:10Z</time>
  <course>308.43</course>
  <speed>0.0</speed>
  <fix>3d</fix>
</trkpt>
<trkpt lat="40.0728422" lon="-105.2305752">
  <ele>1586.15</ele>
  <time>2026-08-28T19:12:10Z</time>
  <course>21.73</course>
  <speed>0.01</speed>
  <fix>3d</fix>
</trkpt>
<trkpt lat="40.0728423" lon="-105.2305753">
  <ele>1586.09</ele>
  <time>2026-08-28T19:12:10Z</time>
  <course>300.98</course>
  <speed>0.0</speed>
  <fix>3d</fix>
</trkpt>
<trkpt lat="40.0728422" lon="-105.2305752">
  <ele>1586.15</ele>
  <time>2026-08-28T19:12:10Z</time>
  <course>21.8</course>
  <speed>0.01</speed>
  <fix>3d</fix>
</trkpt>
<trkpt lat="40.0728423" lon="-105.2305753">
  <ele>1586.09</ele>
  <time>2026-08-28T19:12:10Z</time>
  <course>302.59</course>
  <speed>0.0</speed>
  <fix>3d</fix>
</trkpt>
<trkpt lat="40.0728422" lon="-105.2305752">
  <ele>1586.15</ele>
  <time>2026-08-28T19:12:10Z</time>
  <course>21.86</course>
  <speed>0.01</speed>
  <fix>3d</fix>
</trkpt>
<trkpt lat="40.0728423" lon="-105.2305753">
  <ele>1586.09</ele>
  <time>2026-08-28T19:12:10Z</time>
  <course>298.19</course>
  <speed>0.0</speed>
  <fix>3d</fix>
</trkpt>
<trkpt lat="40.0728422" lon="-105.2305752">
  <ele>1586.15</ele>
  <time>2026-08-28T19:12:10Z</time>
  <course>21.92</course>
  <speed>0.01</speed>
  <fix>3d</fix>
</trkpt>
<trkpt lat="40.0728423" lon="-105.2305753">
  <ele>1586.09</ele>
  <time>2026-08-28T19:12:10Z</time>
  <course>287.07</course>
  <speed>0.0</speed>
  <fix>3d</fix>
</trkpt>
<trkpt lat="40.0728422" lon="-105.2305752">
  <ele>1586.15</ele>
  <time>2026-08-28T19:12:10Z</time>
  <course>21.98</course>
  <speed>0.01</speed>
  <fix>3d</fix>
</trkpt>
<trkpt lat="40.0728423" lon="-105.2305753">
  <ele>1586.09</ele>
  <time>2026-08-28T19:12:10Z</time>
  <course>238.13</course>
  <speed>0.0</speed>
  <fix>3d</fix>
</trkpt>
<trkpt lat="40.0728422" lon="-105.2305752">
  <ele>1586.15</ele>
  <time>2026-08-28T19:12:10Z</time>
  <course>22.03</course>
  <speed>0.01</speed>
  <fix>3d</fix>
</trkpt>
<trkpt lat="40.0728423" lon="-105.2305753">
  <ele>1586.09</ele>
  <time>2026-08-28T19:12:10Z</time>
  <course>70.19</course>
  <speed>0.0</speed>
  <fix>3d</fix>
</trkpt>
<trkpt lat="40.0728422" lon="-105.2305752">
  <ele>1586.15</ele>
  <time>2026-08-28T19:12:10Z</time>
  <course>22.08</course>
  <speed>0.01</speed>
  <fix>3d</fix>
</trkpt>
<trkpt lat="40.0728423" lon="-105.2305753">
  <ele>1586.09</ele>
  <time>2026-08-28T19:12:10Z</time>
  <course>305.15</course>
  <speed>0.0</speed>
  <fix>3d</fix>
</trkpt>
<trkpt lat="40.0728422" lon="-105.2305752">
  <ele>1586.15</ele>
  <time>2026-08-28T19:12:10Z</time>
  <course>22.13</course>
  <speed>0.01</speed>
  <fix>3d</fix>
</trkpt>
<trkpt lat="40.0728423" lon="-105.2305753">
  <ele>1586.09</ele>
  <time>2026-08-28T19:12:10Z</time>
  <course>356.88</course>
  <speed>0.0</speed>
  <fix>3d</fix>
</trkpt>
<trkpt lat="40.0728422" lon="-105.2305752">
  <ele>1586.15</ele>
  <time>2026-08-28T19:12:10Z</time>
  <course>22.18</course>
  <speed>0.01</speed>
  <fix>3d</fix>
</trkpt>
<trkpt lat="40.0728423" lon="-105.2305753">
  <ele>1586.09</ele>
  <time>2026-08-28T19:12:10Z</time>
  <course>344.31</course>
  <speed>0.0</speed>
  <fix>3d</fix>
</trkpt>
<trkpt lat="40.0728422" lon="-105.2305752">
  <ele>1586.15</ele>
  <time>2026-08-28T19:12:10Z</time>
  <course>22.22</course>
  <speed>0.01</speed>
  <fix>3d</fix>
</trkpt>
<trkpt lat="40.0728423" lon="-105.2305753">
  <ele>1586.09</ele>
  <time>2026-08-28T19:12:10Z</time>
  <course>307.04</course>
  <speed>0.0</speed>
  <fix>3d</fix>
</trkpt>
<trkpt lat="40.0728422" lon="-105.2305752">
  <ele>1586.15</ele>
  <time>2026-08-28T19:12:10Z</time>
  <course>22.27</course>
  <speed>0.01</speed>
  <fix>3d</fix>
</trkpt>
<trkpt lat="40.0728423" lon="-105.2305753">
  <ele>1586.09</ele>
  <time>2026-08-28T19:12:10Z</time>
  <course>280.88</course>
  <speed>0.0</speed>
  <fix>3d</fix>
</trkpt>
<trkpt lat="40.0728422" lon="-105.2305752">
  <ele>1586.15</ele>
  <time>2026-08-28T19:12:10Z</time>
  <course>22.31</course>
  <speed>0.01</speed>
  <fix>3d</fix>
</trkpt>
<trkpt lat="40.0728423" lon="-105.2305753">
  <ele>1586.09</ele>
  <time>2026-08-28T19:12:10Z</time>
  <course>263.88</course>
  <speed>0.0</speed>
  <fix>3d</fix>
</trkpt>
<trkpt lat="40.0728422" lon="-105.2305752">
  <ele>1586.15</ele>
  <time>2026-08-28T19:12:10Z</time>
  <course>22.35</course>
  <speed>0.01</speed>
  <fix>3d</fix>
</trkpt>
<trkpt lat="40.0728423" lon="-105.2305753">
  <ele>1586.09</ele>
  <time>2026-08-28T19:12:10Z</time>
  <course>48.42</course>
  <speed>0.0</speed>
  <fix>3d</fix>
</trkpt>
<trkpt lat="40.0728422" lon="-105.2305752">
  <ele>1586.15</ele>
  <time>2026-08-28T19:12:10Z</time>
  <course>22.39</course>
  <speed>0.01</speed>
  <fix>3d</fix>
</trkpt>
<trkpt lat="40.0728423" lon="-105.2305753">
  <ele>1586.09</ele>
  <time>2026-08-28T19:12:10Z</time>
  <course>314.02</course>
  <speed>0.0</speed>
  <fix>3d</fix>
</trkpt>
<trkpt lat="40.0728422" lon="-105.2305752">
  <ele>1586.15</ele>
  <time>2026-08-28T19:12:10Z</time>
  <course>22.43</course>
  <speed>0.01</speed>
  <fix>3d</fix>
</trkpt>
<trkpt lat="40.0728423" lon="-105.2305753">
  <ele>1586.09</ele>
  <time>2026-08-28T19:12:10Z</time>
  <course>297.41</course>
  <speed>0.0</speed>
  <fix>3d</fix>
</trkpt>
<trkpt lat="40.0728422" lon="-105.2305752">
  <ele>1586.15</ele>
  <time>2026-08-28T19:12:10Z</time>
  <course>22.46</course>
  <speed>0.01</speed>
  <fix>3d</fix>
</trkpt>
<trkpt lat="40.0728423" lon="-105.2305753">
  <ele>1586.09</ele>
  <time>2026-08-28T19:12:10Z</time>
  <course>300.7</course>
  <speed>0.0</speed>
  <fix>3d</fix>
</trkpt>
<trkpt lat="40.0728422" lon="-105.2305752">
  <ele>1586.15</ele>
  <time>2026-08-28T19:12:10Z</time>
  <course>22.49</course>
  <speed>0.01</speed>
  <fix>3d</fix>
</trkpt>
<trkpt lat="40.0728423" lon="-105.2305753">
  <ele>1586.09</ele>
  <time>2026-08-28T19:12:10Z</time>
  <course>328.75</course>
  <speed>0.0</speed>
  <fix>3d</fix>
</trkpt>
<trkpt lat="40.0728422" lon="-105.2305752">
  <ele>1586.15</ele>
  <time>2026-08-28T19:12:10Z</time>
  <course>22.52</course>
  <speed>0.02</speed>
  <fix>3d</fix>
</trkpt>
<trkpt lat="40.0728423" lon="-105.2305753">
  <ele>1586.09</ele>
  <time>2026-08-28T19:12:10Z</time>
  <course>290.59</course>
  <speed>0.0</speed>
  <fix>3d</fix>
</trkpt>
<trkpt lat="40.0728422" lon="-105.2305752">
  <ele>1586.14</ele>
  <time>2026-08-28T19:12:10Z</time>
  <course>22.55</course>
  <speed>0.02</speed>
  <fix>3d</fix>
</trkpt>
<trkpt lat="40.0728423" lon="-105.2305753">
  <ele>1586.09</ele>
  <time>2026-08-28T19:12:10Z</time>
  <course>228.99</course>
  <speed>0.0</speed>
  <fix>3d</fix>
</trkpt>
<trkpt lat="40.0728422" lon="-105.2305752">
  <ele>1586.14</ele>
  <time>2026-08-28T19:12:10Z</time>
  <course>22.57</course>
  <speed>0.022360679774997897</speed>
  <fix>3d</fix>
</trkpt>
<trkpt lat="40.0728423" lon="-105.2305753">
  <ele>1586.09</ele>
  <time>2026-08-28T19:12:10Z</time>
  <course>114.85</course>
  <speed>0.0</speed>
  <fix>3d</fix>
</trkpt>
<trkpt lat="40.0728422" lon="-105.2305752">
  <ele>1586.15</ele>
  <time>2026-08-28T19:12:10Z</time>
  <course>22.59</course>
  <speed>0.022360679774997897</speed>
  <fix>3d</fix>
</trkpt>
<trkpt lat="40.0728423" lon="-105.2305753">
  <ele>1586.09</ele>
  <time>2026-08-28T19:12:10Z</time>
  <course>337.25</course>
  <speed>0.0</speed>
  <fix>3d</fix>
</trkpt>
<trkpt lat="40.0728422" lon="-105.2305752">
  <ele>1586.15</ele>
  <time>2026-08-28T19:12:10Z</time>
  <course>22.61</course>
  <speed>0.022360679774997897</speed>
  <fix>3d</fix>
</trkpt>
<trkpt lat="40.0728423" lon="-105.2305753">
  <ele>1586.09</ele>
  <time>2026-08-28T19:12:10Z</time>
  <course>290.57</course>
  <speed>0.0</speed>
  <fix>3d</fix>
</trkpt>
<trkpt lat="40.0728422" lon="-105.2305752">
  <ele>1586.15</ele>
  <time>2026-08-28T19:12:10Z</time>
  <course>22.63</course>
  <speed>0.022360679774997897</speed>
  <fix>3d</fix>
</trkpt>
<trkpt lat="40.0728423" lon="-105.2305753">
  <ele>1586.09</ele>
  <time>2026-08-28T19:12:10Z</time>
  <course>288.65</course>
  <speed>0.0</speed>
  <fix>3d</fix>
</trkpt>
<trkpt lat="40.0728422" lon="-105.2305752">
  <ele>1586.15</ele>
  <time>2026-08-28T19:12:10Z</time>
  <course>22.65</course>
  <speed>0.022360679774997897</speed>
  <fix>3d</fix>
</trkpt>
<trkpt lat="40.0728423" lon="-105.2305753">
  <ele>1586.09</ele>
  <time>2026-08-28T19:12:10Z</time>
  <course>284.48</course>
  <speed>0.0</speed>
  <fix>3d</fix>
</trkpt>
<trkpt lat="40.0728422" lon="-105.2305752">
  <ele>1586.15</ele>
  <time>2026-08-28T19:12:10Z</time>
  <course>22.67</course>
  <speed>0.022360679774997897</speed>
  <fix>3d</fix>
</trkpt>
<trkpt lat="40.0728423" lon="-105.2305753">
  <ele>1586.09</ele>
  <time>2026-08-28T19:12:10Z</time>
  <course>309.26</course>
  <speed>0.0</speed>
  <fix>3d</fix>
</trkpt>
<trkpt lat="40.0728422" lon="-105.2305752">
  <ele>1586.15</ele>
  <time>2026-08-28T19:12:10Z</time>
  <course>22.68</course>
  <speed>0.022360679774997897</speed>
  <fix>3d</fix>
</trkpt>
<trkpt lat="40.0728423" lon="-105.2305753">
  <ele>1586.09</ele>
  <time>2026-08-28T19:12:10Z</time>
  <course>342.52</course>
  <speed>0.0</speed>
  <fix>3d</fix>
</trkpt>
<trkpt lat="40.0728422" lon="-105.2305752">
  <ele>1586.15</ele>
  <time>2026-08-28T19:12:10Z</time>
  <course>22.69</course>
  <speed>0.022360679774997897</speed>
  <fix>3d</fix>
</trkpt>
<trkpt lat="40.0728423" lon="-105.2305753">
  <ele>1586.09</ele>
  <time>2026-08-28T19:12:10Z</time>
  <course>310.6</course>
  <speed>0.0</speed>
  <fix>3d</fix>
</trkpt>
<trkpt lat="40.0728422" lon="-105.2305752">
  <ele>1586.15</ele>
  <time>2026-08-28T19:12:10Z</time>
  <course>22.7</course>
  <speed>0.022360679774997897</speed>
  <fix>3d</fix>
</trkpt>
<trkpt lat="40.0728423" lon="-105.2305753">
  <ele>1586.09</ele>
  <time>2026-08-28T19:12:10Z</time>
  <course>247.24</course>
  <speed>0.0</speed>
  <fix>3d</fix>
</trkpt>
<trkpt lat="40.0728422" lon="-105.2305752">
  <ele>1586.15</ele>
  <time>2026-08-28T19:12:10Z</time>
  <course>22.71</course>
  <speed>0.022360679774997897</speed>
  <fix>3d</fix>
</trkpt>
<trkpt lat="40.0728423" lon="-105.2305753">
  <ele>1586.09</ele>
  <time>2026-08-28T19:12:10Z</time>
  <course>298.63</course>
  <speed>0.0</speed>
  <fix>3d</fix>
</trkpt>
<trkpt lat="40.0728422" lon="-105.2305752">
  <ele>1586.15</ele>
  <time>2026-08-28T19:12:10Z</time>
  <course>22.71</course>
  <speed>0.022360679774997897</speed>
  <fix>3d</fix>
</trkpt>
<trkpt lat="40.0728423" lon="-105.2305753">
  <ele>1586.09</ele>
  <time>2026-08-28T19:12:10Z</time>
  <course>309.68</course>
  <speed>0.0</speed>
  <fix>3d</fix>
</trkpt>
<trkpt lat="40.0728422" lon="-105.2305752">
  <ele>1586.15</ele>
  <time>2026-08-28T19:12:10Z</time>
  <course>22.71</course>
  <speed>0.022360679774997897</speed>
  <fix>3d</fix>
</trkpt>
<trkpt lat="40.0728423" lon="-105.2305753">
  <ele>1586.09</ele>
  <time>2026-08-28T19:12:10Z</time>
  <course>288.95</course>
  <speed>0.0</speed>
  <fix>3d</fix>
</trkpt>
<trkpt lat="40.0728422" lon="-105.2305752">
  <ele>1586.16</ele>
  <time>2026-08-28T19:12:10Z</time>
  <course>22.71</course>
  <speed>0.022360679774997897</speed>
  <fix>3d</fix>
</trkpt>
<trkpt lat="40.0728423" lon="-105.2305753">
  <ele>1586.09</ele>
  <time>2026-08-28T19:12:10Z</time>
  <course>268.7</course>
  <speed>0.0</speed>
  <fix>3d</fix>
</trkpt>
<trkpt lat="40.0728422" lon="-105.2305752">
  <ele>1586.16</ele>
  <time>2026-08-28T19:12:10Z</time>
  <course>22.71</course>
  <speed>0.022360679774997897</speed>
  <fix>3d</fix>
</trkpt>
<trkpt lat="40.0728423" lon="-105.2305753">
  <ele>1586.09</ele>
  <time>2026-08-28T19:12:10Z</time>
  <course>349.6</course>
  <speed>0.0</speed>
  <fix>3d</fix>
</trkpt>
<trkpt lat="40.0728422" lon="-105.2305752">
  <ele>1586.16</ele>
  <time>2026-08-28T19:12:10Z</time>
  <course>22.71</course>
  <speed>0.022360679774997897</speed>
  <fix>3d</fix>
</trkpt>
<trkpt lat="40.0728423" lon="-105.2305753">
  <ele>1586.09</ele>
  <time>2026-08-28T19:12:10Z</time>
  <course>330.76</course>
  <speed>0.0</speed>
  <fix>3d</fix>
</trkpt>
<trkpt lat="40.0728422" lon="-105.2305752">
  <ele>1586.16</ele>
  <time>2026-08-28T19:12:10Z</time>
  <course>22.71</course>
  <speed>0.022360679774997897</speed>
  <fix>3d</fix>
</trkpt>
<trkpt lat="40.0728423" lon="-105.2305753">
  <ele>1586.09</ele>
  <time>2026-08-28T19:12:10Z</time>
  <course>318.63</course>
  <speed>0.0</speed>
  <fix>3d</fix>
</trkpt>
<trkpt lat="40.0728422" lon="-105.2305752">
  <ele>1586.16</ele>
  <time>2026-08-28T19:12:10Z</time>
  <course>22.7</course>
  <speed>0.022360679774997897</speed>
  <fix>3d</fix>
</trkpt>
<trkpt lat="40.0728423" lon="-105.2305753">
  <ele>1586.09</ele>
  <time>2026-08-28T19:12:10Z</time>
  <course>253.9</course>
  <speed>0.0</speed>
  <fix>3d</fix>
</trkpt>
<trkpt lat="40.0728422" lon="-105.2305752">
  <ele>1586.16</ele>
  <time>2026-08-28T19:12:10Z</time>
  <course>22.69</course>
  <speed>0.022360679774997897</speed>
  <fix>3d</fix>
</trkpt>
<trkpt lat="40.0728423" lon="-105.2305753">
  <ele>1586.09</ele>
  <time>2026-08-28T19:12:10Z</time>
  <course>302.13</course>
  <speed>0.0</speed>
  <fix>3d</fix>
</trkpt>
<trkpt lat="40.0728422" lon="-105.2305752">
  <ele>1586.16</ele>
  <time>2026-08-28T19:12:10Z</time>
  <course>22.68</course>
  <speed>0.022360679774997897</speed>
  <fix>3d</fix>
</trkpt>
<trkpt lat="40.0728423" lon="-105.2305753">
  <ele>1586.09</ele>
  <time>2026-08-28T19:12:10Z</time>
  <course>291.18</course>
  <speed>0.0</speed>
  <fix>3d</fix>
</trkpt>
<trkpt lat="40.0728422" lon="-105.2305752">
  <ele>1586.16</ele>
  <time>2026-08-28T19:12:10Z</time>
  <course>22.66</course>
  <speed>0.022360679774997897</speed>
  <fix>3d</fix>
</trkpt>
<trkpt lat="40.0728423" lon="-105.2305753">
  <ele>1586.09</ele>
  <time>2026-08-28T19:12:10Z</time>
  <course>269.02</course>
  <speed>0.0</speed>
  <fix>3d</fix>
</trkpt>
<trkpt lat="40.0728422" lon="-105.2305752">
  <ele>1586.16</ele>
  <time>2026-08-28T19:12:10Z</time>
  <course>22.65</course>
  <speed>0.022360679774997897</speed>
  <fix>3d</fix>
</trkpt>
<trkpt lat="40.0728423" lon="-105.2305753">
  <ele>1586.09</ele>
  <time>2026-08-28T19:12:10Z</time>
  <course>317.2</course>
  <speed>0.0</speed>
  <fix>3d</fix>
</trkpt>
<trkpt lat="40.0728422" lon="-105.2305752">
  <ele>1586.16</ele>
  <time>2026-08-28T19:12:10Z</time>
  <course>22.63</course>
  <speed>0.022360679774997897</speed>
  <fix>3d</fix>
</trkpt>
<trkpt lat="40.0728423" lon="-105.2305753">
  <ele>1586.09</ele>
  <time>2026-08-28T19:12:10Z</time>
  <course>301.08</course>
  <speed>0.0</speed>
  <fix>3d</fix>
</trkpt>
<trkpt lat="40.0728422" lon="-105.2305752">
  <ele>1586.16</ele>
  <time>2026-08-28T19:12:10Z</time>
  <course>22.62</course>
  <speed>0.022360679774997897</speed>
  <fix>3d</fix>
</trkpt>
<trkpt lat="40.0728423" lon="-105.2305753">
  <ele>1586.09</ele>
  <time>2026-08-28T19:12:10Z</time>
  <course>342.21</course>
  <speed>0.0</speed>
  <fix>3d</fix>
</trkpt>
<trkpt lat="40.0728422" lon="-105.2305752">
  <ele>1586.16</ele>
  <time>2026-08-28T19:12:10Z</time>
  <course>22.6</course>
  <speed>0.022360679774997897</speed>
  <fix>3d</fix>
</trkpt>
<trkpt lat="40.0728423" lon="-105.2305753">
  <ele>1586.09</ele>
  <time>2026-08-28T19:12:10Z</time>
  <course>335.32</course>
  <speed>0.0</speed>
  <fix>3d</fix>
</trkpt>
<trkpt lat="40.0728422" lon="-105.2305752">
  <ele>1586.16</ele>
  <time>2026-08-28T19:12:10Z</time>
  <course>22.58</course>
  <speed>0.022360679774997897</speed>
  <fix>3d</fix>
</trkpt>
<trkpt lat="40.0728423" lon="-105.2305753">
  <ele>1586.09</ele>
  <time>2026-08-28T19:12:10Z</time>
  <course>300.54</course>
  <speed>0.0</speed>
  <fix>3d</fix>
</trkpt>
<trkpt lat="40.0728422" lon="-105.2305752">
  <ele>1586.16</ele>
  <time>2026-08-28T19:12:10Z</time>
  <course>22.56</course>
  <speed>0.022360679774997897</speed>
  <fix>3d</fix>
</trkpt>
<trkpt lat="40.0728423" lon="-105.2305753">
  <ele>1586.09</ele>
  <time>2026-08-28T19:12:10Z</time>
  <course>283.78</course>
  <speed>0.0</speed>
  <fix>3d</fix>
</trkpt>
<trkpt lat="40.0728422" lon="-105.2305752">
  <ele>1586.16</ele>
  <time>2026-08-28T19:12:10Z</time>
  <course>22.54</course>
  <speed>0.022360679774997897</speed>
  <fix>3d</fix>
</trkpt>
<trkpt lat="40.0728423" lon="-105.2305753">
  <ele>1586.09</ele>
  <time>2026-08-28T19:12:10Z</time>
  <course>273.48</course>
  <speed>0.0</speed>
  <fix>3d</fix>
</trkpt>
<trkpt lat="40.0728422" lon="-105.2305752">
  <ele>1586.16</ele>
  <time>2026-08-28T19:12:10Z</time>
  <course>22.53</course>
  <speed>0.022360679774997897</speed>
  <fix>3d</fix>
</trkpt>
<trkpt lat="40.0728423" lon="-105.2305753">
  <ele>1586.09</ele>
  <time>2026-08-28T19:12:10Z</time>
  <course>315.86</course>
  <speed>0.0</speed>
  <fix>3d</fix>
</trkpt>
<trkpt lat="40.0728422" lon="-105.2305752">
  <ele>1586.16</ele>
  <time>2026-08-28T19:12:10Z</time>
  <course>22.51</course>
  <speed>0.022360679774997897</speed>
  <fix>3d</fix>
</trkpt>
<trkpt lat="40.0728423" lon="-105.2305753">
  <ele>1586.09</ele>
  <time>2026-08-28T19:12:10Z</time>
  <course>301.85</course>
  <speed>0.0</speed>
  <fix>3d</fix>
</trkpt>
<trkpt lat="40.0728422" lon="-105.2305752">
  <ele>1586.16</ele>
  <time>2026-08-28T19:12:10Z</time>
  <course>22.49</course>
  <speed>0.022360679774997897</speed>
  <fix>3d</fix>
</trkpt>
<trkpt lat="40.0728423" lon="-105.2305753">
  <ele>1586.09</ele>
  <time>2026-08-28T19:12:10Z</time>
  <course>295.95</course>
  <speed>0.0</speed>
  <fix>3d</fix>
</trkpt>
<trkpt lat="40.0728422" lon="-105.2305752">
  <ele>1586.16</ele>
  <time>2026-08-28T19:12:10Z</time>
  <course>22.47</course>
  <speed>0.022360679774997897</speed>
  <fix>3d</fix>
</trkpt>
<trkpt lat="40.0728423" lon="-105.2305753">
  <ele>1586.09</ele>
  <time>2026-08-28T19:12:10Z</time>
  <course>297.26</course>
  <speed>0.0</speed>
  <fix>3d</fix>
</trkpt>
<trkpt lat="40.0728422" lon="-105.2305752">
  <ele>1586.16</ele>
  <time>2026-08-28T19:12:10Z</time>
  <course>22.45</course>
  <speed>0.022360679774997897</speed>
  <fix>3d</fix>
</trkpt>
<trkpt lat="40.0728423" lon="-105.2305753">
  <ele>1586.09</ele>
  <time>2026-08-28T19:12:10Z</time>
  <course>340.48</course>
  <speed>0.0</speed>
  <fix>3d</fix>
</trkpt>
<trkpt lat="40.0728422" lon="-105.2305752">
  <ele>1586.16</ele>
  <time>2026-08-28T19:12:10Z</time>
  <course>22.42</course>
  <speed>0.022360679774997897</speed>
  <fix>3d</fix>
</trkpt>
<trkpt lat="40.0728423" lon="-105.2305753">
  <ele>1586.09</ele>
  <time>2026-08-28T19:12:10Z</time>
  <course>313.35</course>
  <speed>0.0</speed>
  <fix>3d</fix>
</trkpt>
<trkpt lat="40.0728422" lon="-105.2305752">
  <ele>1586.16</ele>
  <time>2026-08-28T19:12:10Z</time>
  <course>22.4</course>
  <speed>0.022360679774997897</speed>
  <fix>3d</fix>
</trkpt>
<trkpt lat="40.0728423" lon="-105.2305753">
  <ele>1586.09</ele>
  <time>2026-08-28T19:12:10Z</time>
  <course>277.57</course>
  <speed>0.0</speed>
  <fix>3d</fix>
</trkpt>
<trkpt lat="40.0728422" lon="-105.2305752">
  <ele>1586.16</ele>
  <time>2026-08-28T19:12:10Z</time>
  <course>22.38</course>
  <speed>0.022360679774997897</speed>
  <fix>3d</fix>
</trkpt>
<trkpt lat="40.0728423" lon="-105.2305753">
  <ele>1586.09</ele>
  <time>2026-08-28T19:12:10Z</time>
  <course>226.55</course>
  <speed>0.0</speed>
  <fix>3d</fix>
</trkpt>
<trkpt lat="40.0728422" lon="-105.2305752">
  <ele>1586.16</ele>
  <time>2026-08-28T19:12:10Z</time>
  <course>22.36</course>
  <speed>0.022360679774997897</speed>
  <fix>3d</fix>
</trkpt>
<trkpt lat="40.0728423" lon="-105.2305753">
  <ele>1586.09</ele>
  <time>2026-08-28T19:12:10Z</time>
  <course>234.02</course>
  <speed>0.0</speed>
  <fix>3d</fix>
</trkpt>
<trkpt lat="40.0728422" lon="-105.2305752">
  <ele>1586.16</ele>
  <time>2026-08-28T19:12:10Z</time>
  <course>22.34</course>
  <speed>0.022360679774997897</speed>
  <fix>3d</fix>
</trkpt>
<trkpt lat="40.0728423" lon="-105.2305753">
  <ele>1586.09</ele>
  <time>2026-08-28T19:12:10Z</time>
  <course>298.8</course>
  <speed>0.0</speed>
  <fix>3d</fix>
</trkpt>
<trkpt lat="40.0728422" lon="-105.2305752">
  <ele>1586.16</ele>
  <time>2026-08-28T19:12:10Z</time>
  <course>22.32</course>
  <speed>0.022360679774997897</speed>
  <fix>3d</fix>
</trkpt>
<trkpt lat="40.0728423" lon="-105.2305753">
  <ele>1586.09</ele>
  <time>2026-08-28T19:12:10Z</time>
  <course>312.81</course>
  <speed>0.0</speed>
  <fix>3d</fix>
</trkpt>
<trkpt lat="40.0728422" lon="-105.2305752">
  <ele>1586.16</ele>
  <time>2026-08-28T19:12:10Z</time>
  <course>22.3</course>
  <speed>0.022360679774997897</speed>
  <fix>3d</fix>
</trkpt>
<trkpt lat="40.0728423" lon="-105.2305753">
  <ele>1586.09</ele>
  <time>2026-08-28T19:12:10Z</time>
  <course>291.93</course>
  <speed>0.0</speed>
  <fix>3d</fix>
</trkpt>
<trkpt lat="40.0728422" lon="-105.2305752">
  <ele>1586.16</ele>
  <time>2026-08-28T19:12:10Z</time>
  <course>22.28</course>
  <speed>0.02</speed>
  <fix>3d</fix>
</trkpt>
<trkpt lat="40.0728423" lon="-105.2305753">
  <ele>1586.09</ele>
  <time>2026-08-28T19:12:10Z</time>
  <course>299.31</course>
  <speed>0.0</speed>
  <fix>3d</fix>
</trkpt>
<trkpt lat="40.0728422" lon="-105.2305752">
  <ele>1586.16</ele>
  <time>2026-08-28T19:12:10Z</time>
  <course>22.26</course>
  <speed>0.02</speed>
  <fix>3d</fix>
</trkpt>
<trkpt lat="40.0728423" lon="-105.2305753">
  <ele>1586.09</ele>
  <time>2026-08-28T19:12:10Z</time>
  <course>301.25</course>
  <speed>0.0</speed>
  <fix>3d</fix>
</trkpt>
<trkpt lat="40.0728422" lon="-105.2305752">
  <ele>1586.16</ele>
  <time>2026-08-28T19:12:10Z</time>
  <course>22.23</course>
  <speed>0.02</speed>
  <fix>3d</fix>
</trkpt>
<trkpt lat="40.0728423" lon="-105.2305753">
  <ele>1586.09</ele>
  <time>2026-08-28T19:12:10Z</time>
  <course>314.76</course>
  <speed>0.0</speed>
  <fix>3d</fix>
</trkpt>
<trkpt lat="40.0728422" lon="-105.2305752">
  <ele>1586.16</ele>
  <time>2026-08-28T19:12:10Z</time>
  <course>22.21</course>
  <speed>0.02</speed>
  <fix>3d</fix>
</trkpt>
<trkpt lat="40.0728423" lon="-105.2305753">
  <ele>1586.09</ele>
  <time>2026-08-28T19:12:10Z</time>
  <course>313.57</course>
  <speed>0.0</speed>
  <fix>3d</fix>
</trkpt>
<trkpt lat="40.0728422" lon="-105.2305752">
  <ele>1586.16</ele>
  <time>2026-08-28T19:12:10Z</time>
  <course>22.19</course>
  <speed>0.02</speed>
  <fix>3d</fix>
</trkpt>
<trkpt lat="40.0728423" lon="-105.2305753">
  <ele>1586.09</ele>
  <time>2026-08-28T19:12:10Z</time>
  <course>271.38</course>
  <speed>0.0</speed>
  <fix>3d</fix>
</trkpt>
<trkpt lat="40.0728422" lon="-105.2305752">
  <ele>1586.16</ele>
  <time>2026-08-28T19:12:10Z</time>
  <course>22.16</course>
  <speed>0.02</speed>
  <fix>3d</fix>
</trkpt>
<trkpt lat="40.0728423" lon="-105.2305753">
  <ele>1586.09</ele>
  <time>2026-08-28T19:12:10Z</time>
  <course>293.6</course>
  <speed>0.0</speed>
  <fix>3d</fix>
</trkpt>
<trkpt lat="40.0728422" lon="-105.2305752">
  <ele>1586.16</ele>
  <time>2026-08-28T19:12:10Z</time>
  <course>22.14</course>
  <speed>0.02</speed>
  <fix>3d</fix>
</trkpt>
<trkpt lat="40.0728423" lon="-105.2305753">
  <ele>1586.09</ele>
  <time>2026-08-28T19:12:10Z</time>
  <course>298.08</course>
  <speed>0.0</speed>
  <fix>3d</fix>
</trkpt>
<trkpt lat="40.0728422" lon="-105.2305752">
  <ele>1586.16</ele>
  <time>2026-08-28T19:12:10Z</time>
  <course>22.12</course>
  <speed>0.02</speed>
  <fix>3d</fix>
</trkpt>
<trkpt lat="40.0728423" lon="-105.2305753">
  <ele>1586.09</ele>
  <time>2026-08-28T19:12:10Z</time>
  <course>295.36</course>
  <speed>0.0</speed>
  <fix>3d</fix>
</trkpt>
<trkpt lat="40.0728422" lon="-105.2305752">
  <ele>1586.16</ele>
  <time>2026-08-28T19:12:10Z</time>
  <course>22.09</course>
  <speed>0.02</speed>
  <fix>3d</fix>
</trkpt>
<trkpt lat="40.0728423" lon="-105.2305753">
  <ele>1586.09</ele>
  <time>2026-08-28T19:12:10Z</time>
  <course>290.65</course>
  <speed>0.0</speed>
  <fix>3d</fix>
</trkpt>
<trkpt lat="40.0728422" lon="-105.2305752">
  <ele>1586.16</ele>
  <time>2026-08-28T19:12:10Z</time>
  <course>22.07</course>
  <speed>0.02</speed>
  <fix>3d</fix>
</trkpt>
<trkpt lat="40.0728423" lon="-105.2305753">
  <ele>1586.09</ele>
  <time>2026-08-28T19:12:10Z</time>
  <course>284.22</course>
  <speed>0.0</speed>
  <fix>3d</fix>
</trkpt>
<trkpt lat="40.0728422" lon="-105.2305752">
  <ele>1586.17</ele>
  <time>2026-08-28T19:12:10Z</time>
  <course>22.05</course>
  <speed>0.02</speed>
  <fix>3d</fix>
</trkpt>
<trkpt lat="40.0728423" lon="-105.2305753">
  <ele>1586.09</ele>
  <time>2026-08-28T19:12:10Z</time>
  <course>277.18</course>
  <speed>0.0</speed>
  <fix>3d</fix>
</trkpt>
<trkpt lat="40.0728422" lon="-105.2305752">
  <ele>1586.17</ele>
  <time>2026-08-28T19:12:10Z</time>
  <course>22.02</course>
  <speed>0.02</speed>
  <fix>3d</fix>
</trkpt>
<trkpt lat="40.0728423" lon="-105.2305753">
  <ele>1586.09</ele>
  <time>2026-08-28T19:12:10Z</time>
  <course>341.34</course>
  <speed>0.0</speed>
  <fix>3d</fix>
</trkpt>
<trkpt lat="40.0728422" lon="-105.2305752">
  <ele>1586.18</ele>
  <time>2026-08-28T19:12:10Z</time>
  <course>21.99</course>
  <speed>0.02</speed>
  <fix>3d</fix>
</trkpt>
<trkpt lat="40.0728423" lon="-105.2305753">
  <ele>1586.09</ele>
  <time>2026-08-28T19:12:10Z</time>
  <course>328.78</course>
  <speed>0.0</speed>
  <fix>3d</fix>
</trkpt>
<trkpt lat="40.0728422" lon="-105.2305752">
  <ele>1586.18</ele>
  <time>2026-08-28T19:12:10Z</time>
  <course>21.97</course>
  <speed>0.02</speed>
  <fix>3d</fix>
</trkpt>
<trkpt lat="40.0728423" lon="-105.2305753">
  <ele>1586.09</ele>
  <time>2026-08-28T19:12:10Z</time>
  <course>288.59</course>
  <speed>0.0</speed>
  <fix>3d</fix>
</trkpt>
<trkpt lat="40.0728422" lon="-105.2305752">
  <ele>1586.18</ele>
  <time>2026-08-28T19:12:10Z</time>
  <course>21.94</course>
  <speed>0.02</speed>
  <fix>3d</fix>
</trkpt>
<trkpt lat="40.0728423" lon="-105.2305753">
  <ele>1586.09</ele>
  <time>2026-08-28T19:12:10Z</time>
  <course>278.79</course>
  <speed>0.0</speed>
  <fix>3d</fix>
</trkpt>
<trkpt lat="40.0728422" lon="-105.2305752">
  <ele>1586.18</ele>
  <time>2026-08-28T19:12:10Z</time>
  <course>21.92</course>
  <speed>0.02</speed>
  <fix>3d</fix>
</trkpt>
<trkpt lat="40.0728423" lon="-105.2305753">
  <ele>1586.09</ele>
  <time>2026-08-28T19:12:10Z</time>
  <course>298.97</course>
  <speed>0.0</speed>
  <fix>3d</fix>
</trkpt>
<trkpt lat="40.0728422" lon="-105.2305752">
  <ele>1586.18</ele>
  <time>2026-08-28T19:12:10Z</time>
  <course>21.89</course>
  <speed>0.02</speed>
  <fix>3d</fix>
</trkpt>
<trkpt lat="40.0728423" lon="-105.2305753">
  <ele>1586.09</ele>
  <time>2026-08-28T19:12:10Z</time>
  <course>289.08</course>
  <speed>0.0</speed>
  <fix>3d</fix>
</trkpt>
<trkpt lat="40.0728422" lon="-105.2305752">
  <ele>1586.18</ele>
  <time>2026-08-28T19:12:10Z</time>
  <course>21.86</course>
  <speed>0.02</speed>
  <fix>3d</fix>
</trkpt>
<trkpt lat="40.0728423" lon="-105.2305753">
  <ele>1586.09</ele>
  <time>2026-08-28T19:12:10Z</time>
  <course>282.66</course>
  <speed>0.0</speed>
  <fix>3d</fix>
</trkpt>
<trkpt lat="40.0728422" lon="-105.2305752">
  <ele>1586.18</ele>
  <time>2026-08-28T19:12:10Z</time>
  <course>21.84</course>
  <speed>0.02</speed>
  <fix>3d</fix>
</trkpt>
<trkpt lat="40.0728423" lon="-105.2305753">
  <ele>1586.09</ele>
  <time>2026-08-28T19:12:10Z</time>
  <course>281.85</course>
  <speed>0.0</speed>
  <fix>3d</fix>
</trkpt>
<trkpt lat="40.0728422" lon="-105.2305752">
  <ele>1586.18</ele>
  <time>2026-08-28T19:12:10Z</time>
  <course>21.81</course>
  <speed>0.02</speed>
  <fix>3d</fix>
</trkpt>
<trkpt lat="40.0728423" lon="-105.2305753">
  <ele>1586.09</ele>
  <time>2026-08-28T19:12:10Z</time>
  <course>303.38</course>
  <speed>0.0</speed>
  <fix>3d</fix>
</trkpt>
<trkpt lat="40.0728422" lon="-105.2305752">
  <ele>1586.18</ele>
  <time>2026-08-28T19:12:10Z</time>
  <course>21.78</course>
  <speed>0.02</speed>
  <fix>3d</fix>
</trkpt>
<trkpt lat="40.0728423" lon="-105.2305753">
  <ele>1586.09</ele>
  <time>2026-08-28T19:12:10Z</time>
  <course>295.25</course>
  <speed>0.0</speed>
  <fix>3d</fix>
</trkpt>
<trkpt lat="40.0728422" lon="-105.2305752">
  <ele>1586.18</ele>
  <time>2026-08-28T19:12:10Z</time>
  <course>21.76</course>
  <speed>0.02</speed>
  <fix>3d</fix>
</trkpt>
<trkpt lat="40.0728423" lon="-105.2305753">
  <ele>1586.09</ele>
  <time>2026-08-28T19:12:10Z</time>
  <course>331.21</course>
  <speed>0.0</speed>
  <fix>3d</fix>
</trkpt>
<trkpt lat="40.0728422" lon="-105.2305752">
  <ele>1586.18</ele>
  <time>2026-08-28T19:12:10Z</time>
  <course>21.73</course>
  <speed>0.02</speed>
  <fix>3d</fix>
</trkpt>
<trkpt lat="40.0728423" lon="-105.2305753">
  <ele>1586.09</ele>
  <time>2026-08-28T19:12:10Z</time>
  <course>326.47</course>
  <speed>0.0</speed>
  <fix>3d</fix>
</trkpt>
<trkpt lat="40.0728422" lon="-105.2305752">
  <ele>1586.18</ele>
  <time>2026-08-28T19:12:10Z</time>
  <course>21.7</course>
  <speed>0.02</speed>
  <fix>3d</fix>
</trkpt>
<trkpt lat="40.0728423" lon="-105.2305753">
  <ele>1586.09</ele>
  <time>2026-08-28T19:12:10Z</time>
  <course>286.54</course>
  <speed>0.0</speed>
  <fix>3d</fix>
</trkpt>
<trkpt lat="40.0728422" lon="-105.2305752">
  <ele>1586.18</ele>
  <time>2026-08-28T19:12:10Z</time>
  <course>21.67</course>
  <speed>0.02</speed>
  <fix>3d</fix>
</trkpt>
<trkpt lat="40.0728423" lon="-105.2305753">
  <ele>1586.09</ele>
  <time>2026-08-28T19:12:10Z</time>
  <course>284.66</course>
  <speed>0.0</speed>
  <fix>3d</fix>
</trkpt>
<trkpt lat="40.0728422" lon="-105.2305752">
  <ele>1586.18</ele>
  <time>2026-08-28T19:12:10Z</time>
  <course>21.64</course>
  <speed>0.02</speed>
  <fix>3d</fix>
</trkpt>
<trkpt lat="40.0728423" lon="-105.2305753">
  <ele>1586.09</ele>
  <time>2026-08-28T19:12:10Z</time>
  <course>284.54</course>
  <speed>0.0</speed>
  <fix>3d</fix>
</trkpt>
<trkpt lat="40.0728422" lon="-105.2305752">
  <ele>1586.18</ele>
  <time>2026-08-28T19:12:10Z</time>
  <course>21.61</course>
  <speed>0.02</speed>
  <fix>3d</fix>
</trkpt>
<trkpt lat="40.0728423" lon="-105.2305753">
  <ele>1586.09</ele>
  <time>2026-08-28T19:12:10Z</time>
  <course>284.68</course>
  <speed>0.0</speed>
  <fix>3d</fix>
</trkpt>
<trkpt lat="40.0728422" lon="-105.2305752">
  <ele>1586.18</ele>
  <time>2026-08-28T19:12:10Z</time>
  <course>21.58</course>
  <speed>0.02</speed>
  <fix>3d</fix>
</trkpt>
<trkpt lat="40.0728423" lon="-105.2305753">
  <ele>1586.09</ele>
  <time>2026-08-28T19:12:10Z</time>
  <course>302.74</course>
  <speed>0.0</speed>
  <fix>3d</fix>
</trkpt>
<trkpt lat="40.0728422" lon="-105.2305752">
  <ele>1586.18</ele>
  <time>2026-08-28T19:12:10Z</time>
  <course>21.55</course>
  <speed>0.02</speed>
  <fix>3d</fix>
</trkpt>
<trkpt lat="40.0728423" lon="-105.2305753">
  <ele>1586.09</ele>
  <time>2026-08-28T19:12:10Z</time>
  <course>295.67</course>
  <speed>0.0</speed>
  <fix>3d</fix>
</trkpt>
<trkpt lat="40.0728422" lon="-105.2305752">
  <ele>1586.18</ele>
  <time>2026-08-28T19:12:10Z</time>
  <course>21.52</course>
  <speed>0.02</speed>
  <fix>3d</fix>
</trkpt>
<trkpt lat="40.0728423" lon="-105.2305753">
  <ele>1586.09</ele>
  <time>2026-08-28T19:12:10Z</time>
  <course>294.32</course>
  <speed>0.0</speed>
  <fix>3d</fix>
</trkpt>
<trkpt lat="40.0728422" lon="-105.2305752">
  <ele>1586.17</ele>
  <time>2026-08-28T19:12:10Z</time>
  <course>21.49</course>
  <speed>0.02</speed>
  <fix>3d</fix>
</trkpt>
<trkpt lat="40.0728423" lon="-105.2305753">
  <ele>1586.09</ele>
  <time>2026-08-28T19:12:10Z</time>
  <course>295.13</course>
  <speed>0.0</speed>
  <fix>3d</fix>
</trkpt>
<trkpt lat="40.0728422" lon="-105.2305752">
  <ele>1586.17</ele>
  <time>2026-08-28T19:12:10Z</time>
  <course>21.46</course>
  <speed>0.02</speed>
  <fix>3d</fix>
</trkpt>
<trkpt lat="40.0728423" lon="-105.2305753">
  <ele>1586.09</ele>
  <time>2026-08-28T19:12:10Z</time>
  <course>330.96</course>
  <speed>0.0</speed>
  <fix>3d</fix>
</trkpt>
<trkpt lat="40.0728422" lon="-105.2305752">
  <ele>1586.17</ele>
  <time>2026-08-28T19:12:10Z</time>
  <course>21.43</course>
  <speed>0.02</speed>
  <fix>3d</fix>
</trkpt>
<trkpt lat="40.0728423" lon="-105.2305753">
  <ele>1586.09</ele>
  <time>2026-08-28T19:12:10Z</time>
  <course>313.75</course>
  <speed>0.0</speed>
  <fix>3d</fix>
</trkpt>
<trkpt lat="40.0728422" lon="-105.2305752">
  <ele>1586.17</ele>
  <time>2026-08-28T19:12:10Z</time>
  <course>21.4</course>
  <speed>0.02</speed>
  <fix>3d</fix>
</trkpt>
<trkpt lat="40.0728423" lon="-105.2305753">
  <ele>1586.09</ele>
  <time>2026-08-28T19:12:10Z</time>
  <course>283.78</course>
  <speed>0.0</speed>
  <fix>3d</fix>
</trkpt>
<trkpt lat="40.0728422" lon="-105.2305752">
  <ele>1586.18</ele>
  <time>2026-08-28T19:12:10Z</time>
  <course>21.37</course>
  <speed>0.02</speed>
  <fix>3d</fix>
</trkpt>
<trkpt lat="40.0728423" lon="-105.2305753">
  <ele>1586.09</ele>
  <time>2026-08-28T19:12:10Z</time>
  <course>266.18</course>
  <speed>0.0</speed>
  <fix>3d</fix>
</trkpt>
<trkpt lat="40.0728422" lon="-105.2305752">
  <ele>1586.18</ele>
  <time>2026-08-28T19:12:10Z</time>
  <course>21.34</course>
  <speed>0.02</speed>
  <fix>3d</fix>
</trkpt>
<trkpt lat="40.0728423" lon="-105.2305753">
  <ele>1586.09</ele>
  <time>2026-08-28T19:12:10Z</time>
  <course>305.92</course>
  <speed>0.0</speed>
  <fix>3d</fix>
</trkpt>
<trkpt lat="40.0728422" lon="-105.2305752">
  <ele>1586.18</ele>
  <time>2026-08-28T19:12:10Z</time>
  <course>21.31</course>
  <speed>0.02</speed>
  <fix>3d</fix>
</trkpt>
<trkpt lat="40.0728423" lon="-105.2305753">
  <ele>1586.09</ele>
  <time>2026-08-28T19:12:10Z</time>
  <course>250.59</course>
  <speed>0.0</speed>
  <fix>3d</fix>
</trkpt>
<trkpt lat="40.0728422" lon="-105.2305752">
  <ele>1586.18</ele>
  <time>2026-08-28T19:12:10Z</time>
  <course>21.28</course>
  <speed>0.02</speed>
  <fix>3d</fix>
</trkpt>
<trkpt lat="40.0728423" lon="-105.2305753">
  <ele>1586.09</ele>
  <time>2026-08-28T19:12:10Z</time>
  <course>241.32</course>
  <speed>0.0</speed>
  <fix>3d</fix>
</trkpt>
<trkpt lat="40.0728422" lon="-105.2305752">
  <ele>1586.18</ele>
  <time>2026-08-28T19:12:10Z</time>
  <course>21.25</course>
  <speed>0.02</speed>
  <fix>3d</fix>
</trkpt>
<trkpt lat="40.0728423" lon="-105.2305753">
  <ele>1586.09</ele>
  <time>2026-08-28T19:12:10Z</time>
  <course>296.96</course>
  <speed>0.0</speed>
  <fix>3d</fix>
</trkpt>
<trkpt lat="40.0728422" lon="-105.2305752">
  <ele>1586.17</ele>
  <time>2026-08-28T19:12:10Z</time>
  <course>21.22</course>
  <speed>0.02</speed>
  <fix>3d</fix>
</trkpt>
<trkpt lat="40.0728423" lon="-105.2305753">
  <ele>1586.09</ele>
  <time>2026-08-28T19:12:10Z</time>
  <course>304.86</course>
  <speed>0.0</speed>
  <fix>3d</fix>
</trkpt>
<trkpt lat="40.0728422" lon="-105.2305752">
  <ele>1586.18</ele>
  <time>2026-08-28T19:12:10Z</time>
  <course>21.19</course>
  <speed>0.02</speed>
  <fix>3d</fix>
</trkpt>
<trkpt lat="40.0728423" lon="-105.2305753">
  <ele>1586.09</ele>
  <time>2026-08-28T19:12:10Z</time>
  <course>297.95</course>
  <speed>0.0</speed>
  <fix>3d</fix>
</trkpt>
<trkpt lat="40.0728422" lon="-105.2305752">
  <ele>1586.18</ele>
  <time>2026-08-28T19:12:10Z</time>
  <course>21.16</course>
  <speed>0.02</speed>
  <fix>3d</fix>
</trkpt>
<trkpt lat="40.0728423" lon="-105.2305753">
  <ele>1586.09</ele>
  <time>2026-08-28T19:12:10Z</time>
  <course>304.0</course>
  <speed>0.0</speed>
  <fix>3d</fix>
</trkpt>
<trkpt lat="40.0728422" lon="-105.2305752">
  <ele>1586.18</ele>
  <time>2026-08-28T19:12:10Z</time>
  <course>21.12</course>
  <speed>0.02</speed>
  <fix>3d</fix>
</trkpt>
<trkpt lat="40.0728423" lon="-105.2305753">
  <ele>1586.09</ele>
  <time>2026-08-28T19:12:10Z</time>
  <course>309.47</course>
  <speed>0.0</speed>
  <fix>3d</fix>
</trkpt>
<trkpt lat="40.0728422" lon="-105.2305752">
  <ele>1586.18</ele>
  <time>2026-08-28T19:12:10Z</time>
  <course>21.09</course>
  <speed>0.02</speed>
  <fix>3d</fix>
</trkpt>
<trkpt lat="40.0728423" lon="-105.2305753">
  <ele>1586.09</ele>
  <time>2026-08-28T19:12:10Z</time>
  <course>301.26</course>
  <speed>0.0</speed>
  <fix>3d</fix>
</trkpt>
<trkpt lat="40.0728422" lon="-105.2305752">
  <ele>1586.18</ele>
  <time>2026-08-28T19:12:10Z</time>
  <course>21.06</course>
  <speed>0.02</speed>
  <fix>3d</fix>
</trkpt>
<trkpt lat="40.0728423" lon="-105.2305753">
  <ele>1586.09</ele>
  <time>2026-08-28T19:12:10Z</time>
  <course>279.96</course>
  <speed>0.0</speed>
  <fix>3d</fix>
</trkpt>
<trkpt lat="40.0728422" lon="-105.2305752">
  <ele>1586.18</ele>
  <time>2026-08-28T19:12:10Z</time>
  <course>21.02</course>
  <speed>0.02</speed>
  <fix>3d</fix>
</trkpt>
<trkpt lat="40.0728423" lon="-105.2305753">
  <ele>1586.09</ele>
  <time>2026-08-28T19:12:10Z</time>
  <course>292.16</course>
  <speed>0.0</speed>
  <fix>3d</fix>
</trkpt>
<trkpt lat="40.0728422" lon="-105.2305752">
  <ele>1586.22</ele>
  <time>2026-08-28T19:12:10Z</time>
  <course>20.97</course>
  <speed>0.022360679774997897</speed>
  <fix>3d</fix>
</trkpt>
<trkpt lat="40.0728423" lon="-105.2305753">
  <ele>1586.09</ele>
  <time>2026-08-28T19:12:10Z</time>
  <course>292.52</course>
  <speed>0.0</speed>
  <fix>3d</fix>
</trkpt>
<trkpt lat="40.0728422" lon="-105.2305752">
  <ele>1586.32</ele>
  <time>2026-08-28T19:12:10Z</time>
  <course>20.82</course>
  <speed>0.022360679774997897</speed>
  <fix>3d</fix>
</trkpt>
<trkpt lat="40.0728423" lon="-105.2305753">
  <ele>1586.14</ele>
  <time>2026-08-28T19:12:10Z</time>
  <course>51.54</course>
  <speed>0.0</speed>
  <fix>3d</fix>
</trkpt>
<trkpt lat="40.0728422" lon="-105.2305753">
  <ele>1586.48</ele>
  <time>2026-08-28T19:12:10Z</time>
  <course>10.55</course>
  <speed>0.1044030650891055</speed>
  <fix>3d</fix>
</trkpt>
<trkpt lat="40.0728423" lon="-105.2305753">
  <ele>1586.24</ele>
  <time>2026-08-28T19:12:10Z</time>
  <course>288.54</course>
  <speed>0.02</speed>
  <fix>3d</fix>
</trkpt>
<trkpt lat="40.0728423" lon="-105.2305757">
  <ele>1586.85</ele>
  <time>2026-08-28T19:12:10Z</time>
  <course>1.7</course>
  <speed>0.26248809496813374</speed>
  <fix>3d</fix>
</trkpt>
<trkpt lat="40.0728423" lon="-105.2305754">
  <ele>1586.43</ele>
  <time>2026-08-28T19:12:10Z</time>
  <course>285.68</course>
  <speed>0.13</speed>
  <fix>3d</fix>
</trkpt>
<trkpt lat="40.0728423" lon="-105.2305758">
  <ele>1586.91</ele>
  <time>2026-08-28T19:12:10Z</time>
  <course>0.76</course>
  <speed>0.2816025568065745</speed>
  <fix>3d</fix>
</trkpt>
<trkpt lat="40.0728424" lon="-105.2305765">
  <ele>1587.27</ele>
  <time>2026-08-28T19:12:10Z</time>
  <course>355.92</course>
  <speed>0.38078865529319544</speed>
  <fix>3d</fix>
</trkpt>
<trkpt lat="40.0728423" lon="-105.2305759">
  <ele>1586.78</ele>
  <time>2026-08-28T19:12:10Z</time>
  <course>282.28</course>
  <speed>0.28</speed>
  <fix>3d</fix>
</trkpt>
<trkpt lat="40.0728425" lon="-105.2305766">
  <ele>1587.32</ele>
  <time>2026-08-28T19:12:10Z</time>
  <course>355.28</course>
  <speed>0.3905124837953327</speed>
  <fix>3d</fix>
</trkpt>
<trkpt lat="40.0728426" lon="-105.2305775">
  <ele>1587.69</ele>
  <time>2026-08-28T19:12:10Z</time>
  <course>351.88</course>
  <speed>0.4751841748206689</speed>
  <fix>3d</fix>
</trkpt>
<trkpt lat="40.0728424" lon="-105.2305767">
  <ele>1587.2</ele>
  <time>2026-08-28T19:12:10Z</time>
  <course>277.88</course>
  <speed>0.4</speed>
  <fix>3d</fix>
</trkpt>
<trkpt lat="40.0728426" lon="-105.2305775">
  <ele>1587.7</ele>
  <time>2026-08-28T19:12:10Z</time>
  <course>351.86</course>
  <speed>0.4751841748206689</speed>
  <fix>3d</fix>
</trkpt>
<trkpt lat="40.0728426" lon="-105.2305787">
  <ele>1588.14</ele>
  <time>2026-08-28T19:12:10Z</time>
  <course>348.91</course>
  <speed>0.5408326913195984</speed>
  <fix>3d</fix>
</trkpt>
<trkpt lat="40.0728425" lon="-105.2305777">
  <ele>1587.62</ele>
  <time>2026-08-28T19:12:10Z</time>
  <course>273.16</course>
  <speed>0.49</speed>
  <fix>3d</fix>
</trkpt>
<trkpt lat="40.0728426" lon="-105.2305789">
  <ele>1588.2</ele>
  <time>2026-08-28T19:12:10Z</time>
  <course>348.57</course>
  <speed>0.5503635162326805</speed>
  <fix>3d</fix>
</trkpt>
<trkpt lat="40.0728426" lon="-105.2305801">
  <ele>1588.6</ele>
  <time>2026-08-28T19:12:10Z</time>
  <course>346.7</course>
  <speed>0.5900847396772771</speed>
  <fix>3d</fix>
</trkpt>
<trkpt lat="40.0728425" lon="-105.230579">
  <ele>1588.06</ele>
  <time>2026-08-28T19:12:10Z</time>
  <course>268.32</course>
  <speed>0.55</speed>
  <fix>3d</fix>
</trkpt>
<trkpt lat="40.0728426" lon="-105.2305802">
  <ele>1588.66</ele>
  <time>2026-08-28T19:12:10Z</time>
  <course>346.44</course>
  <speed>0.6003332407921453</speed>
  <fix>3d</fix>
</trkpt>
<trkpt lat="40.0728424" lon="-105.2305815">
  <ele>1589.07</ele>
  <time>2026-08-28T19:12:10Z</time>
  <course>344.37</course>
  <speed>0.6338769596696191</speed>
  <fix>3d</fix>
</trkpt>
<trkpt lat="40.0728424" lon="-105.2305803">
  <ele>1588.52</ele>
  <time>2026-08-28T19:12:10Z</time>
  <course>263.56</course>
  <speed>0.6</speed>
  <fix>3d</fix>
</trkpt>
<trkpt lat="40.0728424" lon="-105.2305815">
  <ele>1589.07</ele>
  <time>2026-08-28T19:12:10Z</time>
  <course>344.35</course>
  <speed>0.6338769596696191</speed>
  <fix>3d</fix>
</trkpt>
<trkpt lat="40.0728423" lon="-105.230583">
  <ele>1589.55</ele>
  <time>2026-08-28T19:12:10Z</time>
  <course>339.93</course>
  <speed>0.6746851117373199</speed>
  <fix>3d</fix>
</trkpt>
<trkpt lat="40.0728423" lon="-105.2305818">
  <ele>1588.99</ele>
  <time>2026-08-28T19:12:10Z</time>
  <course>258.96</course>
  <speed>0.64</speed>
  <fix>3d</fix>
</trkpt>
<trkpt lat="40.0728422" lon="-105.2305833">
  <ele>1589.62</ele>
  <time>2026-08-28T19:12:10Z</time>
  <course>339.41</course>
  <speed>0.6768308503607087</speed>
  <fix>3d</fix>
</trkpt>
<trkpt lat="40.0728419" lon="-105.2305846">
  <ele>1590.04</ele>
  <time>2026-08-28T19:12:10Z</time>
  <course>338.1</course>
  <speed>0.7147027354082255</speed>
  <fix>3d</fix>
</trkpt>
<trkpt lat="40.0728421" lon="-105.2305834">
  <ele>1589.46</ele>
  <time>2026-08-28T19:12:10Z</time>
  <course>254.55</course>
  <speed>0.68</speed>
  <fix>3d</fix>
</trkpt>
<trkpt lat="40.0728418" lon="-105.2305848">
  <ele>1590.1</ele>
  <time>2026-08-28T19:12:10Z</time>
  <course>338.08</course>
  <speed>0.7178439941937245</speed>
  <fix>3d</fix>
</trkpt>
<trkpt lat="40.0728414" lon="-105.2305862">
  <ele>1590.52</ele>
  <time>2026-08-28T19:12:10Z</time>
  <course>338.19</course>
  <speed>0.7484650960465692</speed>
  <fix>3d</fix>
</trkpt>
<trkpt lat="40.0728417" lon="-105.2305849">
  <ele>1589.93</ele>
  <time>2026-08-28T19:12:10Z</time>
  <course>250.46</course>
  <speed>0.71</speed>
  <fix>3d</fix>
</trkpt>
<trkpt lat="40.0728414" lon="-105.2305862">
  <ele>1590.52</ele>
  <time>2026-08-28T19:12:10Z</time>
  <course>338.19</course>
  <speed>0.7484650960465692</speed>
  <fix>3d</fix>
</trkpt>
<trkpt lat="40.0728408" lon="-105.2305878">
  <ele>1591.0</ele>
  <time>2026-08-28T19:12:10Z</time>
  <course>338.34</course>
  <speed>0.7871467461661772</speed>
  <fix>3d</fix>
</trkpt>
<trkpt lat="40.0728412" lon="-105.2305865">
  <ele>1590.41</ele>
  <time>2026-08-28T19:12:10Z</time>
  <course>246.71</course>
  <speed>0.74</speed>
  <fix>3d</fix>
</trkpt>
<trkpt lat="40.0728407" lon="-105.2305881">
  <ele>1591.06</ele>
  <time>2026-08-28T19:12:10Z</time>
  <course>338.36</course>
  <speed>0.7871467461661772</speed>
  <fix>3d</fix>
</trkpt>
<trkpt lat="40.0728401" lon="-105.2305895">
  <ele>1591.47</ele>
  <time>2026-08-28T19:12:10Z</time>
  <course>338.47</course>
  <speed>0.8249242389456137</speed>
  <fix>3d</fix>
</trkpt>
<trkpt lat="40.0728407" lon="-105.2305882">
  <ele>1590.88</ele>
  <time>2026-08-28T19:12:10Z</time>
  <course>243.23</course>
  <speed>0.77</speed>
  <fix>3d</fix>
</trkpt>
<trkpt lat="40.07284" lon="-105.2305897">
  <ele>1591.54</ele>
  <time>2026-08-28T19:12:10Z</time>
  <course>338.5</course>
  <speed>0.8300602387778854</speed>
  <fix>3d</fix>
</trkpt>
<trkpt lat="40.0728393" lon="-105.2305911">
  <ele>1591.95</ele>
  <time>2026-08-28T19:12:11Z</time>
  <course>338.62</course>
  <speed>0.8570297544426332</speed>
  <fix>3d</fix>
</trkpt>
<trkpt lat="40.07284" lon="-105.2305897">
  <ele>1591.36</ele>
  <time>2026-08-28T19:12:11Z</time>
  <course>239.98</course>
  <speed>0.8</speed>
  <fix>3d</fix>
</trkpt>
<trkpt lat="40.0728392" lon="-105.2305913">
  <ele>1592.02</ele>
  <time>2026-08-28T19:12:11Z</time>
  <course>338.65</course>
  <speed>0.862670273047588</speed>
  <fix>3d</fix>
</trkpt>
<trkpt lat="40.0728384" lon="-105.2305928">
  <ele>1592.42</ele>
  <time>2026-08-28T19:12:11Z</time>
  <course>338.76</course>
  <speed>0.8860022573334675</speed>
  <fix>3d</fix>
</trkpt>
<trkpt lat="40.0728392" lon="-105.2305914">
  <ele>1591.84</ele>
  <time>2026-08-28T19:12:11Z</time>
  <course>236.91</course>
  <speed>0.83</speed>
  <fix>3d</fix>
</trkpt>
<trkpt lat="40.0728383" lon="-105.230593">
  <ele>1592.49</ele>
  <time>2026-08-28T19:12:11Z</time>
  <course>338.78</course>
  <speed>0.8920201791439475</speed>
  <fix>3d</fix>
</trkpt>
<trkpt lat="40.0728375" lon="-105.2305944">
  <ele>1592.9</ele>
  <time>2026-08-28T19:12:11Z</time>
  <course>338.86</course>
  <speed>0.9231467922275417</speed>
  <fix>3d</fix>
</trkpt>
<trkpt lat="40.0728383" lon="-105.230593">
  <ele>1592.32</ele>
  <time>2026-08-28T19:12:11Z</time>
  <course>233.98</course>
  <speed>0.86</speed>
  <fix>3d</fix>
</trkpt>
<trkpt lat="40.0728375" lon="-105.2305944">
  <ele>1592.9</ele>
  <time>2026-08-28T19:12:11Z</time>
  <course>338.86</course>
  <speed>0.9231467922275417</speed>
  <fix>3d</fix>
</trkpt>
<trkpt lat="40.0728364" lon="-105.230596">
  <ele>1593.37</ele>
  <time>2026-08-28T19:12:11Z</time>
  <course>338.92</course>
  <speed>0.94847245611035</speed>
  <fix>3d</fix>
</trkpt>
<trkpt lat="40.0728374" lon="-105.2305946">
  <ele>1592.8</ele>
  <time>2026-08-28T19:12:11Z</time>
  <course>231.16</course>
  <speed>0.89</speed>
  <fix>3d</fix>
</trkpt>
<trkpt lat="40.0728363" lon="-105.2305962">
  <ele>1593.44</ele>
  <time>2026-08-28T19:12:11Z</time>
  <course>338.93</course>
  <speed>0.95524865872714</speed>
  <fix>3d</fix>
</trkpt>
<trkpt lat="40.0728353" lon="-105.2305976">
  <ele>1593.86</ele>
  <time>2026-08-28T19:12:11Z</time>
  <course>338.96</course>
  <speed>0.9758073580374357</speed>
  <fix>3d</fix>
</trkpt>
<trkpt lat="40.0728363" lon="-105.2305963">
  <ele>1593.28</ele>
  <time>2026-08-28T19:12:11Z</time>
  <course>228.45</course>
  <speed>0.92</speed>
  <fix>3d</fix>
</trkpt>
<trkpt lat="40.0728351" lon="-105.2305978">
  <ele>1593.92</ele>
  <time>2026-08-28T19:12:11Z</time>
  <course>338.96</course>
  <speed>0.9829038610159185</speed>
  <fix>3d</fix>
</trkpt>
<trkpt lat="40.0728341" lon="-105.2305992">
  <ele>1594.34</ele>
  <time>2026-08-28T19:12:11Z</time>
  <course>338.97</course>
  <speed>1.004987562112089</speed>
  <fix>3d</fix>
</trkpt>
<trkpt lat="40.0728352" lon="-105.2305979">
  <ele>1593.76</ele>
  <time>2026-08-28T19:12:11Z</time>
  <course>225.88</course>
  <speed>0.95</speed>
  <fix>3d</fix>
</trkpt>
<trkpt lat="40.0728339" lon="-105.2305994">
  <ele>1594.4</ele>
  <time>2026-08-28T19:12:11Z</time>
  <course>338.97</course>
  <speed>1.004987562112089</speed>
  <fix>3d</fix>
</trkpt>
<trkpt lat="40.0728328" lon="-105.2306008">
  <ele>1594.82</ele>
  <time>2026-08-28T19:12:11Z</time>
  <course>338.97</course>
  <speed>1.035857133006285</speed>
  <fix>3d</fix>
</trkpt>
<trkpt lat="40.0728339" lon="-105.2305996">
  <ele>1594.24</ele>
  <time>2026-08-28T19:12:11Z</time>
  <course>223.44</course>
  <speed>0.98</speed>
  <fix>3d</fix>
</trkpt>
<trkpt lat="40.0728328" lon="-105.2306008">
  <ele>1594.83</ele>
  <time>2026-08-28T19:12:11Z</time>
  <course>338.97</course>
  <speed>1.035857133006285</speed>
  <fix>3d</fix>
</trkpt>
<trkpt lat="40.0728314" lon="-105.2306024">
  <ele>1595.31</ele>
  <time>2026-08-28T19:12:11Z</time>
  <course>338.97</course>
  <speed>1.0604244433244643</speed>
  <fix>3d</fix>
</trkpt>
<trkpt lat="40.0728326" lon="-105.2306011">
  <ele>1594.72</ele>
  <time>2026-08-28T19:12:11Z</time>
  <course>221.13</course>
  <speed>1.01</speed>
  <fix>3d</fix>
</trkpt>
<trkpt lat="40.0728312" lon="-105.2306026">
  <ele>1595.37</ele>
  <time>2026-08-28T19:12:11Z</time>
  <course>338.97</course>
  <speed>1.0682696288858913</speed>
  <fix>3d</fix>
</trkpt>
<trkpt lat="40.0728299" lon="-105.2306039">
  <ele>1595.77</ele>
  <time>2026-08-28T19:12:11Z</time>
  <course>339.75</course>
  <speed>1.0920164833920778</speed>
  <fix>3d</fix>
</trkpt>
<trkpt lat="40.0728311" lon="-105.2306026">
  <ele>1595.2</ele>
  <time>2026-08-28T19:12:11Z</time>
  <course>219.01</course>
  <speed>1.04</speed>
  <fix>3d</fix>
</trkpt>
<trkpt lat="40.0728284" lon="-105.2306054">
  <ele>1596.08</ele>
  <time>2026-08-28T19:12:11Z</time>
  <course>342.51</course>
  <speed>1.0881176406988355</speed>
  <fix>3d</fix>
</trkpt>
<trkpt lat="40.0728297" lon="-105.2306042">
  <ele>1595.62</ele>
  <time>2026-08-28T19:12:11Z</time>
  <course>217.57</course>
  <speed>1.06</speed>
  <fix>3d</fix>
</trkpt>
<trkpt lat="40.0728268" lon="-105.2306069">
  <ele>1596.28</ele>
  <time>2026-08-28T19:12:11Z</time>
  <course>344.85</course>
  <speed>1.0816653826391969</speed>
  <fix>3d</fix>
</trkpt>
<trkpt lat="40.0728282" lon="-105.2306057">
  <ele>1595.92</ele>
  <time>2026-08-28T19:12:11Z</time>
  <course>216.28</course>
  <speed>1.07</speed>
  <fix>3d</fix>
</trkpt>
<trkpt lat="40.0728253" lon="-105.2306082">
  <ele>1596.4</ele>
  <time>2026-08-28T19:12:11Z</time>
  <course>346.56</course>
  <speed>1.082266141020775</speed>
  <fix>3d</fix>
</trkpt>
<trkpt lat="40.0728266" lon="-105.2306072">
  <ele>1596.11</ele>
  <time>2026-08-28T19:12:11Z</time>
  <course>214.47</course>
  <speed>1.06</speed>
  <fix>3d</fix>
</trkpt>
<trkpt lat="40.0728237" lon="-105.2306095">
  <ele>1596.48</ele>
  <time>2026-08-28T19:12:11Z</time>
  <course>347.6</course>
  <speed>1.034456378974</speed>
  <fix>3d</fix>
</trkpt>
<trkpt lat="40.0728249" lon="-105.2306086">
  <ele>1596.23</ele>
  <time>2026-08-28T19:12:11Z</time>
  <course>212.5</course>
  <speed>1.05</speed>
  <fix>3d</fix>
</trkpt>
<trkpt lat="40.0728221" lon="-105.2306106">
  <ele>1596.53</ele>
  <time>2026-08-28T19:12:11Z</time>
  <course>348.22</course>
  <speed>0.9123595782365634</speed>
  <fix>3d</fix>
</trkpt>
<trkpt lat="40.0728234" lon="-105.2306098">
  <ele>1596.31</ele>
  <time>2026-08-28T19:12:11Z</time>
  <course>210.39</course>
  <speed>1.0</speed>
  <fix>3d</fix>
</trkpt>
<trkpt lat="40.0728208" lon="-105.2306114">
  <ele>1596.56</ele>
  <time>2026-08-28T19:12:11Z</time>
  <course>348.64</course>
  <speed>0.7261542535852834</speed>
  <fix>3d</fix>
</trkpt>
<trkpt lat="40.0728218" lon="-105.2306109">
  <ele>1596.36</ele>
  <time>2026-08-28T19:12:11Z</time>
  <course>208.24</course>
  <speed>0.87</speed>
  <fix>3d</fix>
</trkpt>
<trkpt lat="40.0728198" lon="-105.2306121">
  <ele>1596.59</ele>
  <time>2026-08-28T19:12:11Z</time>
  <course>348.93</course>
  <speed>0.5442425929675111</speed>
  <fix>3d</fix>
</trkpt>
<trkpt lat="40.0728206" lon="-105.2306117">
  <ele>1596.4</ele>
  <time>2026-08-28T19:12:11Z</time>
  <course>206.74</course>
  <speed>0.7</speed>
  <fix>3d</fix>
</trkpt>
<trkpt lat="40.072819" lon="-105.2306125">
  <ele>1596.6</ele>
  <time>2026-08-28T19:12:11Z</time>
  <course>349.15</course>
  <speed>0.3956008088970496</speed>
  <fix>3d</fix>
</trkpt>
<trkpt lat="40.0728196" lon="-105.2306124">
  <ele>1596.42</ele>
  <time>2026-08-28T19:12:11Z</time>
  <course>207.03</course>
  <speed>0.52</speed>
  <fix>3d</fix>
</trkpt>
<trkpt lat="40.0728185" lon="-105.2306129">
  <ele>1596.61</ele>
  <time>2026-08-28T19:12:11Z</time>
  <course>349.29</course>
  <speed>0.2823118842698621</speed>
  <fix>3d</fix>
</trkpt>
<trkpt lat="40.0728189" lon="-105.2306129">
  <ele>1596.44</ele>
  <time>2026-08-28T19:12:11Z</time>
  <course>210.0</course>
  <speed>0.38</speed>
  <fix>3d</fix>
</trkpt>
<trkpt lat="40.0728181" lon="-105.2306133">
  <ele>1596.61</ele>
  <time>2026-08-28T19:12:11Z</time>
  <course>349.43</course>
  <speed>0.21470910553583888</speed>
  <fix>3d</fix>
</trkpt>
<trkpt lat="40.0728184" lon="-105.2306134">
  <ele>1596.45</ele>
  <time>2026-08-28T19:12:11Z</time>
  <course>215.44</course>
  <speed>0.28</speed>
  <fix>3d</fix>
</trkpt>
<trkpt lat="40.0728178" lon="-105.2306136">
  <ele>1596.61</ele>
  <time>2026-08-28T19:12:11Z</time>
  <course>349.57</course>
  <speed>0.16124515496597097</speed>
  <fix>3d</fix>
</trkpt>
<trkpt lat="40.0728181" lon="-105.2306137">
  <ele>1596.46</ele>
  <time>2026-08-28T19:12:11Z</time>
  <course>221.5</course>
  <speed>0.21</speed>
  <fix>3d</fix>
</trkpt>
<trkpt lat="40.0728176" lon="-105.2306139">
  <ele>1596.62</ele>
  <time>2026-08-28T19:12:11Z</time>
  <course>349.71</course>
  <speed>0.12529964086141668</speed>
  <fix>3d</fix>
</trkpt>
<trkpt lat="40.0728178" lon="-105.230614">
  <ele>1596.47</ele>
  <time>2026-08-28T19:12:11Z</time>
  <course>225.97</course>
  <speed>0.16</speed>
  <fix>3d</fix>
</trkpt>
<trkpt lat="40.0728175" lon="-105.2306141">
  <ele>1596.62</ele>
  <time>2026-08-28T19:12:11Z</time>
  <course>349.86</course>
  <speed>0.09848857801796104</speed>
  <fix>3d</fix>
</trkpt>
<trkpt lat="40.0728177" lon="-105.2306142">
  <ele>1596.47</ele>
  <time>2026-08-28T19:12:11Z</time>
  <course>227.41</course>
  <speed>0.12</speed>
  <fix>3d</fix>
</trkpt>
<trkpt lat="40.0728174" lon="-105.2306143">
  <ele>1596.62</ele>
  <time>2026-08-28T19:12:11Z</time>
  <course>350.02</course>
  <speed>0.08062257748298549</speed>
  <fix>3d</fix>
</trkpt>
<trkpt lat="40.0728176" lon="-105.2306144">
  <ele>1596.48</ele>
  <time>2026-08-28T19:12:11Z</time>
  <course>224.65</course>
  <speed>0.09</speed>
  <fix>3d</fix>
</trkpt>
<trkpt lat="40.0728173" lon="-105.2306144">
  <ele>1596.63</ele>
  <time>2026-08-28T19:12:11Z</time>
  <course>350.17</course>
  <speed>0.07</speed>
  <fix>3d</fix>
</trkpt>
<trkpt lat="40.0728174" lon="-105.2306145">
  <ele>1596.48</ele>
  <time>2026-08-28T19:12:11Z</time>
  <course>215.72</course>
  <speed>0.06</speed>
  <fix>3d</fix>
</trkpt>
<trkpt lat="40.0728172" lon="-105.2306145">
  <ele>1596.63</ele>
  <time>2026-08-28T19:12:11Z</time>
  <course>350.32</course>
  <speed>0.07071067811865475</speed>
  <fix>3d</fix>
</trkpt>
<trkpt lat="40.0728173" lon="-105.2306146">
  <ele>1596.49</ele>
  <time>2026-08-28T19:12:11Z</time>
  <course>199.66</course>
  <speed>0.05</speed>
  <fix>3d</fix>
</trkpt>
<trkpt lat="40.0728171" lon="-105.2306145">
  <ele>1596.63</ele>
  <time>2026-08-28T19:12:11Z</time>
  <course>350.45</course>
  <speed>0.0824621125123532</speed>
  <fix>3d</fix>
</trkpt>
<trkpt lat="40.0728172" lon="-105.2306146">
  <ele>1596.49</ele>
  <time>2026-08-28T19:12:11Z</time>
  <course>183.06</course>
  <speed>0.05</speed>
  <fix>3d</fix>
</trkpt>
<trkpt lat="40.072817" lon="-105.2306145">
  <ele>1596.63</ele>
  <time>2026-08-28T19:12:11Z</time>
  <course>350.56</course>
  <speed>0.1019803902718557</speed>
  <fix>3d</fix>
</trkpt>
<trkpt lat="40.0728171" lon="-105.2306146">
  <ele>1596.49</ele>
  <time>2026-08-28T19:12:11Z</time>
  <course>172.96</course>
  <speed>0.07</speed>
  <fix>3d</fix>
</trkpt>
<trkpt lat="40.0728168" lon="-105.2306145">
  <ele>1596.63</ele>
  <time>2026-08-28T19:12:11Z</time>
  <course>350.65</course>
  <speed>0.11401754250991379</speed>
  <fix>3d</fix>
</trkpt>
<trkpt lat="40.072817" lon="-105.2306146">
  <ele>1596.5</ele>
  <time>2026-08-28T19:12:11Z</time>
  <course>168.57</course>
  <speed>0.08</speed>
  <fix>3d</fix>
</trkpt>
<trkpt lat="40.0728166" lon="-105.2306144">
  <ele>1596.63</ele>
  <time>2026-08-28T19:12:11Z</time>
  <course>350.73</course>
  <speed>0.12369316876852982</speed>
  <fix>3d</fix>
</trkpt>
<trkpt lat="40.0728169" lon="-105.2306146">
  <ele>1596.5</ele>
  <time>2026-08-28T19:12:11Z</time>
  <course>167.29</course>
  <speed>0.1</speed>
  <fix>3d</fix>
</trkpt>
<trkpt lat="40.0728164" lon="-105.2306144">
  <ele>1596.62</ele>
  <time>2026-08-28T19:12:11Z</time>
  <course>350.79</course>
  <speed>0.13341664064126335</speed>
  <fix>3d</fix>
</trkpt>
<trkpt lat="40.0728167" lon="-105.2306146">
  <ele>1596.5</ele>
  <time>2026-08-28T19:12:11Z</time>
  <course>167.56</course>
  <speed>0.11</speed>
  <fix>3d</fix>
</trkpt>
<trkpt lat="40.0728162" lon="-105.2306143">
  <ele>1596.62</ele>
  <time>2026-08-28T19:12:11Z</time>
  <course>350.84</course>
  <speed>0.15297058540778355</speed>
  <fix>3d</fix>
</trkpt>
<trkpt lat="40.0728165" lon="-105.2306145">
  <ele>1596.51</ele>
  <time>2026-08-28T19:12:11Z</time>
  <course>168.89</course>
  <speed>0.12</speed>
  <fix>3d</fix>
</trkpt>
<trkpt lat="40.0728159" lon="-105.2306143">
  <ele>1596.62</ele>
  <time>2026-08-28T19:12:11Z</time>
  <course>350.87</course>
  <speed>0.15297058540778355</speed>
  <fix>3d</fix>
</trkpt>
<trkpt lat="40.0728162" lon="-105.2306145">
  <ele>1596.51</ele>
  <time>2026-08-28T19:12:11Z</time>
  <course>170.91</course>
  <speed>0.14</speed>
  <fix>3d</fix>
</trkpt>
<trkpt lat="40.0728157" lon="-105.2306143">
  <ele>1596.62</ele>
  <time>2026-08-28T19:12:11Z</time>
  <course>350.89</course>
  <speed>0.16124515496597097</speed>
  <fix>3d</fix>
</trkpt>
<trkpt lat="40.0728159" lon="-105.2306144">
  <ele>1596.52</ele>
  <time>2026-08-28T19:12:11Z</time>
  <course>173.25</course>
  <speed>0.15</speed>
  <fix>3d</fix>
</trkpt>
<trkpt lat="40.0728154" lon="-105.2306143">
  <ele>1596.63</ele>
  <time>2026-08-28T19:12:11Z</time>
  <course>350.91</course>
  <speed>0.16124515496597097</speed>
  <fix>3d</fix>
</trkpt>
<trkpt lat="40.0728157" lon="-105.2306143">
  <ele>1596.52</ele>
  <time>2026-08-28T19:12:11Z</time>
  <course>175.65</course>
  <speed>0.15</speed>
  <fix>3d</fix>
</trkpt>
<trkpt lat="40.0728151" lon="-105.2306142">
  <ele>1596.63</ele>
  <time>2026-08-28T19:12:11Z</time>
  <course>350.94</course>
  <speed>0.16031219541881397</speed>
  <fix>3d</fix>
</trkpt>
<trkpt lat="40.0728154" lon="-105.2306143">
  <ele>1596.53</ele>
  <time>2026-08-28T19:12:11Z</time>
  <course>178.12</course>
  <speed>0.16</speed>
  <fix>3d</fix>
</trkpt>
<trkpt lat="40.0728149" lon="-105.2306142">
  <ele>1596.63</ele>
  <time>2026-08-28T19:12:11Z</time>
  <course>350.96</course>
  <speed>0.16</speed>
  <fix>3d</fix>
</trkpt>
<trkpt lat="40.0728151" lon="-105.2306143">
  <ele>1596.53</ele>
  <time>2026-08-28T19:12:11Z</time>
  <course>180.7</course>
  <speed>0.16</speed>
  <fix>3d</fix>
</trkpt>
<trkpt lat="40.0728146" lon="-105.2306143">
  <ele>1596.63</ele>
  <time>2026-08-28T19:12:11Z</time>
  <course>350.97</course>
  <speed>0.15</speed>
  <fix>3d</fix>
</trkpt>
<trkpt lat="40.0728148" lon="-105.2306143">
  <ele>1596.54</ele>
  <time>2026-08-28T19:12:11Z</time>
  <course>183.47</course>
  <speed>0.15</speed>
  <fix>3d</fix>
</trkpt>
<trkpt lat="40.0728143" lon="-105.2306143">
  <ele>1596.62</ele>
  <time>2026-08-28T19:12:11Z</time>
  <course>350.98</course>
  <speed>0.14</speed>
  <fix>3d</fix>
</trkpt>
<trkpt lat="40.0728145" lon="-105.2306143">
  <ele>1596.54</ele>
  <time>2026-08-28T19:12:11Z</time>
  <course>186.51</course>
  <speed>0.14</speed>
  <fix>3d</fix>
</trkpt>
<trkpt lat="40.0728141" lon="-105.2306143">
  <ele>1596.63</ele>
  <time>2026-08-28T19:12:11Z</time>
  <course>350.99</course>
  <speed>0.13</speed>
  <fix>3d</fix>
</trkpt>
<trkpt lat="40.0728143" lon="-105.2306143">
  <ele>1596.55</ele>
  <time>2026-08-28T19:12:11Z</time>
  <course>189.92</course>
  <speed>0.14</speed>
  <fix>3d</fix>
</trkpt>
<trkpt lat="40.0728139" lon="-105.2306143">
  <ele>1596.64</ele>
  <time>2026-08-28T19:12:11Z</time>
  <course>351.0</course>
  <speed>0.11045361017187261</speed>
  <fix>3d</fix>
</trkpt>
<trkpt lat="40.0728141" lon="-105.2306144">
  <ele>1596.55</ele>
  <time>2026-08-28T19:12:11Z</time>
  <course>194.06</course>
  <speed>0.12</speed>
  <fix>3d</fix>
</trkpt>
<trkpt lat="40.0728137" lon="-105.2306144">
  <ele>1596.64</ele>
  <time>2026-08-28T19:12:11Z</time>
  <course>351.0</course>
  <speed>0.09055385138137417</speed>
  <fix>3d</fix>
</trkpt>
<trkpt lat="40.0728139" lon="-105.2306145">
  <ele>1596.56</ele>
  <time>2026-08-28T19:12:11Z</time>
  <course>199.13</course>
  <speed>0.11</speed>
  <fix>3d</fix>
</trkpt>
<trkpt lat="40.0728135" lon="-105.2306145">
  <ele>1596.65</ele>
  <time>2026-08-28T19:12:11Z</time>
  <course>351.04</course>
  <speed>0.0824621125123532</speed>
  <fix>3d</fix>
</trkpt>
<trkpt lat="40.0728137" lon="-105.2306146">
  <ele>1596.56</ele>
  <time>2026-08-28T19:12:11Z</time>
  <course>205.19</course>
  <speed>0.1</speed>
  <fix>3d</fix>
</trkpt>
<trkpt lat="40.0728134" lon="-105.2306146">
  <ele>1596.65</ele>
  <time>2026-08-28T19:12:11Z</time>
  <course>351.06</course>
  <speed>0.0632455532033676</speed>
  <fix>3d</fix>
</trkpt>
<trkpt lat="40.0728135" lon="-105.2306147">
  <ele>1596.57</ele>
  <time>2026-08-28T19:12:11Z</time>
  <course>212.4</course>
  <speed>0.09</speed>
  <fix>3d</fix>
</trkpt>
<trkpt lat="40.0728133" lon="-105.2306147">
  <ele>1596.64</ele>
  <time>2026-08-28T19:12:11Z</time>
  <course>351.08</course>
  <speed>0.053851648071345036</speed>
  <fix>3d</fix>
</trkpt>
<trkpt lat="40.0728134" lon="-105.2306148">
  <ele>1596.57</ele>
  <time>2026-08-28T19:12:11Z</time>
  <course>220.84</course>
  <speed>0.07</speed>
  <fix>3d</fix>
</trkpt>
<trkpt lat="40.0728133" lon="-105.2306148">
  <ele>1596.64</ele>
  <time>2026-08-28T19:12:11Z</time>
  <course>351.07</course>
  <speed>0.03605551275463989</speed>
  <fix>3d</fix>
</trkpt>
<trkpt lat="40.0728133" lon="-105.230615">
  <ele>1596.58</ele>
  <time>2026-08-28T19:12:11Z</time>
  <course>230.6</course>
  <speed>0.06</speed>
  <fix>3d</fix>
</trkpt>
<trkpt lat="40.0728132" lon="-105.2306149">
  <ele>1596.64</ele>
  <time>2026-08-28T19:12:11Z</time>
  <course>351.07</course>
  <speed>0.0282842712474619</speed>
  <fix>3d</fix>
</trkpt>
<trkpt lat="40.0728132" lon="-105.2306151">
  <ele>1596.58</ele>
  <time>2026-08-28T19:12:11Z</time>
  <course>241.99</course>
  <speed>0.06</speed>
  <fix>3d</fix>
</trkpt>
<trkpt lat="40.0728132" lon="-105.230615">
  <ele>1596.64</ele>
  <time>2026-08-28T19:12:11Z</time>
  <course>351.06</course>
  <speed>0.01</speed>
  <fix>3d</fix>
</trkpt>
<trkpt lat="40.0728132" lon="-105.2306152">
  <ele>1596.58</ele>
  <time>2026-08-28T19:12:11Z</time>
  <course>254.99</course>
  <speed>0.05</speed>
  <fix>3d</fix>
</trkpt>
<trkpt lat="40.0728132" lon="-105.2306151">
  <ele>1596.64</ele>
  <time>2026-08-28T19:12:11Z</time>
  <course>351.06</course>
  <speed>0.01</speed>
  <fix>3d</fix>
</trkpt>
<trkpt lat="40.0728132" lon="-105.2306153">
  <ele>1596.58</ele>
  <time>2026-08-28T19:12:11Z</time>
  <course>268.93</course>
  <speed>0.04</speed>
  <fix>3d</fix>
</trkpt>
<trkpt lat="40.0728132" lon="-105.2306152">
  <ele>1596.64</ele>
  <time>2026-08-28T19:12:11Z</time>
  <course>351.06</course>
  <speed>0.01414213562373095</speed>
  <fix>3d</fix>
</trkpt>
<trkpt lat="40.0728132" lon="-105.2306154">
  <ele>1596.59</ele>
  <time>2026-08-28T19:12:11Z</time>
  <course>283.12</course>
  <speed>0.04</speed>
  <fix>3d</fix>
</trkpt>
<trkpt lat="40.0728132" lon="-105.2306153">
  <ele>1596.64</ele>
  <time>2026-08-28T19:12:11Z</time>
  <course>351.06</course>
  <speed>0.02</speed>
  <fix>3d</fix>
</trkpt>
<trkpt lat="40.0728132" lon="-105.2306155">
  <ele>1596.59</ele>
  <time>2026-08-28T19:12:11Z</time>
  <course>296.74</course>
  <speed>0.04</speed>
  <fix>3d</fix>
</trkpt>
<trkpt lat="40.0728132" lon="-105.2306154">
  <ele>1596.65</ele>
  <time>2026-08-28T19:12:11Z</time>
  <course>351.07</course>
  <speed>0.02</speed>
  <fix>3d</fix>
</trkpt>
<trkpt lat="40.0728132" lon="-105.2306156">
  <ele>1596.59</ele>
  <time>2026-08-28T19:12:11Z</time>
  <course>308.95</course>
  <speed>0.04</speed>
  <fix>3d</fix>
</trkpt>
<trkpt lat="40.0728133" lon="-105.2306154">
  <ele>1596.65</ele>
  <time>2026-08-28T19:12:11Z</time>
  <course>351.08</course>
  <speed>0.03</speed>
  <fix>3d</fix>
</trkpt>
<trkpt lat="40.0728132" lon="-105.2306157">
  <ele>1596.6</ele>
  <time>2026-08-28T19:12:11Z</time>
  <course>319.22</course>
  <speed>0.04</speed>
  <fix>3d</fix>
</trkpt>
<trkpt lat="40.0728133" lon="-105.2306155">
  <ele>1596.66</ele>
  <time>2026-08-28T19:12:11Z</time>
  <course>351.1</course>
  <speed>0.0316227766016838</speed>
  <fix>3d</fix>
</trkpt>
<trkpt lat="40.0728133" lon="-105.2306158">
  <ele>1596.6</ele>
  <time>2026-08-28T19:12:11Z</time>
  <course>327.5</course>
  <speed>0.04</speed>
  <fix>3d</fix>
</trkpt>
<trkpt lat="40.0728134" lon="-105.2306155">
  <ele>1596.66</ele>
  <time>2026-08-28T19:12:11Z</time>
  <course>351.13</course>
  <speed>0.0316227766016838</speed>
  <fix>3d</fix>
</trkpt>
<trkpt lat="40.0728133" lon="-105.2306158">
  <ele>1596.6</ele>
  <time>2026-08-28T19:12:11Z</time>
  <course>334.29</course>
  <speed>0.04</speed>
  <fix>3d</fix>
</trkpt>
<trkpt lat="40.0728135" lon="-105.2306156">
  <ele>1596.66</ele>
  <time>2026-08-28T19:12:11Z</time>
  <course>351.16</course>
  <speed>0.0316227766016838</speed>
  <fix>3d</fix>
</trkpt>
<trkpt lat="40.0728134" lon="-105.2306158">
  <ele>1596.6</ele>
  <time>2026-08-28T19:12:11Z</time>
  <course>340.51</course>
  <speed>0.04</speed>
  <fix>3d</fix>
</trkpt>
<trkpt lat="40.0728135" lon="-105.2306156">
  <ele>1596.66</ele>
  <time>2026-08-28T19:12:11Z</time>
  <course>351.18</course>
  <speed>0.03605551275463989</speed>
  <fix>3d</fix>
</trkpt>
<trkpt lat="40.0728135" lon="-105.2306159">
  <ele>1596.6</ele>
  <time>2026-08-28T19:12:11Z</time>
  <course>346.7</course>
  <speed>0.04</speed>
  <fix>3d</fix>
</trkpt>
<trkpt lat="40.0728136" lon="-105.2306156">
  <ele>1596.66</ele>
  <time>2026-08-28T19:12:11Z</time>
  <course>351.19</course>
  <speed>0.0282842712474619</speed>
  <fix>3d</fix>
</trkpt>
<trkpt lat="40.0728135" lon="-105.230616">
  <ele>1596.6</ele>
  <time>2026-08-28T19:12:11Z</time>
  <course>353.44</course>
  <speed>0.04</speed>
  <fix>3d</fix>
</trkpt>
<trkpt lat="40.0728136" lon="-105.2306156">
  <ele>1596.66</ele>
  <time>2026-08-28T19:12:11Z</time>
  <course>351.2</course>
  <speed>0.03605551275463989</speed>
  <fix>3d</fix>
</trkpt>
<trkpt lat="40.0728136" lon="-105.230616">
  <ele>1596.6</ele>
  <time>2026-08-28T19:12:11Z</time>
  <course>0.85</course>
  <speed>0.03</speed>
  <fix>3d</fix>
</trkpt>
<trkpt lat="40.0728137" lon="-105.2306156">
  <ele>1596.66</ele>
  <time>2026-08-28T19:12:11Z</time>
  <course>351.21</course>
  <speed>0.0316227766016838</speed>
  <fix>3d</fix>
</trkpt>
<trkpt lat="40.0728137" lon="-105.2306159">
  <ele>1596.6</ele>
  <time>2026-08-28T19:12:11Z</time>
  <course>8.69</course>
  <speed>0.03</speed>
  <fix>3d</fix>
</trkpt>
<trkpt lat="40.0728137" lon="-105.2306156">
  <ele>1596.65</ele>
  <time>2026-08-28T19:12:11Z</time>
  <course>351.22</course>
  <speed>0.0412310562561766</speed>
  <fix>3d</fix>
</trkpt>
<trkpt lat="40.0728138" lon="-105.2306158">
  <ele>1596.6</ele>
  <time>2026-08-28T19:12:11Z</time>
  <course>17.66</course>
  <speed>0.03</speed>
  <fix>3d</fix>
</trkpt>
<trkpt lat="40.0728137" lon="-105.2306156">
  <ele>1596.66</ele>
  <time>2026-08-28T19:12:11Z</time>
  <course>351.22</course>
  <speed>0.04</speed>
  <fix>3d</fix>
</trkpt>
<trkpt lat="40.0728138" lon="-105.2306158">
  <ele>1596.6</ele>
  <time>2026-08-28T19:12:11Z</time>
  <course>28.08</course>
  <speed>0.02</speed>
  <fix>3d</fix>
</trkpt>
<trkpt lat="40.0728138" lon="-105.2306156">
  <ele>1596.66</ele>
  <time>2026-08-28T19:12:11Z</time>
  <course>351.24</course>
  <speed>0.04</speed>
  <fix>3d</fix>
</trkpt>
<trkpt lat="40.0728139" lon="-105.2306158">
  <ele>1596.6</ele>
  <time>2026-08-28T19:12:11Z</time>
  <course>39.26</course>
  <speed>0.02</speed>
  <fix>3d</fix>
</trkpt>
<trkpt lat="40.0728138" lon="-105.2306155">
  <ele>1596.65</ele>
  <time>2026-08-28T19:12:11Z</time>
  <course>351.24</course>
  <speed>0.04</speed>
  <fix>3d</fix>
</trkpt>
<trkpt lat="40.0728139" lon="-105.2306158">
  <ele>1596.6</ele>
  <time>2026-08-28T19:12:11Z</time>
  <course>50.82</course>
  <speed>0.02</speed>
  <fix>3d</fix>
</trkpt>
<trkpt lat="40.0728138" lon="-105.2306155">
  <ele>1596.65</ele>
  <time>2026-08-28T19:12:11Z</time>
  <course>351.24</course>
  <speed>0.04</speed>
  <fix>3d</fix>
</trkpt>
<trkpt lat="40.0728139" lon="-105.2306158">
  <ele>1596.6</ele>
  <time>2026-08-28T19:12:11Z</time>
  <course>63.92</course>
  <speed>0.02</speed>
  <fix>3d</fix>
</trkpt>
<trkpt lat="40.0728138" lon="-105.2306154">
  <ele>1596.66</ele>
  <time>2026-08-28T19:12:11Z</time>
  <course>351.23</course>
  <speed>0.0412310562561766</speed>
  <fix>3d</fix>
</trkpt>
<trkpt lat="40.072814" lon="-105.2306158">
  <ele>1596.6</ele>
  <time>2026-08-28T19:12:11Z</time>
  <course>78.56</course>
  <speed>0.02</speed>
  <fix>3d</fix>
</trkpt>
<trkpt lat="40.0728138" lon="-105.2306154">
  <ele>1596.66</ele>
  <time>2026-08-28T19:12:11Z</time>
  <course>351.22</course>
  <speed>0.0412310562561766</speed>
  <fix>3d</fix>
</trkpt>
<trkpt lat="40.072814" lon="-105.2306158">
  <ele>1596.6</ele>
  <time>2026-08-28T19:12:11Z</time>
  <course>93.64</course>
  <speed>0.02</speed>
  <fix>3d</fix>
</trkpt>
<trkpt lat="40.0728138" lon="-105.2306154">
  <ele>1596.66</ele>
  <time>2026-08-28T19:12:11Z</time>
  <course>351.23</course>
  <speed>0.044721359549995794</speed>
  <fix>3d</fix>
</trkpt>
<trkpt lat="40.072814" lon="-105.2306157">
  <ele>1596.59</ele>
  <time>2026-08-28T19:12:11Z</time>
  <course>107.51</course>
  <speed>0.02</speed>
  <fix>3d</fix>
</trkpt>
<trkpt lat="40.0728138" lon="-105.2306153">
  <ele>1596.66</ele>
  <time>2026-08-28T19:12:11Z</time>
  <course>351.24</course>
  <speed>0.044721359549995794</speed>
  <fix>3d</fix>
</trkpt>
<trkpt lat="40.072814" lon="-105.2306157">
  <ele>1596.59</ele>
  <time>2026-08-28T19:12:11Z</time>
  <course>119.68</course>
  <speed>0.02</speed>
  <fix>3d</fix>
</trkpt>
<trkpt lat="40.0728138" lon="-105.2306153">
  <ele>1596.66</ele>
  <time>2026-08-28T19:12:11Z</time>
  <course>351.25</course>
  <speed>0.044721359549995794</speed>
  <fix>3d</fix>
</trkpt>
<trkpt lat="40.072814" lon="-105.2306156">
  <ele>1596.59</ele>
  <time>2026-08-28T19:12:11Z</time>
  <course>130.29</course>
  <speed>0.02</speed>
  <fix>3d</fix>
</trkpt>
<trkpt lat="40.0728138" lon="-105.2306153">
  <ele>1596.66</ele>
  <time>2026-08-28T19:12:11Z</time>
  <course>351.26</course>
  <speed>0.03605551275463989</speed>
  <fix>3d</fix>
</trkpt>
<trkpt lat="40.072814" lon="-105.2306155">
  <ele>1596.59</ele>
  <time>2026-08-28T19:12:11Z</time>
  <course>138.27</course>
  <speed>0.02</speed>
  <fix>3d</fix>
</trkpt>
<trkpt lat="40.0728138" lon="-105.2306153">
  <ele>1596.66</ele>
  <time>2026-08-28T19:12:11Z</time>
  <course>351.26</course>
  <speed>0.03605551275463989</speed>
  <fix>3d</fix>
</trkpt>
<trkpt lat="40.0728139" lon="-105.2306155">
  <ele>1596.59</ele>
  <time>2026-08-28T19:12:11Z</time>
  <course>144.79</course>
  <speed>0.02</speed>
  <fix>3d</fix>
</trkpt>
<trkpt lat="40.0728138" lon="-105.2306152">
  <ele>1596.66</ele>
  <time>2026-08-28T19:12:11Z</time>
  <course>351.25</course>
  <speed>0.03605551275463989</speed>
  <fix>3d</fix>
</trkpt>
<trkpt lat="40.0728139" lon="-105.2306155">
  <ele>1596.58</ele>
  <time>2026-08-28T19:12:11Z</time>
  <course>150.55</course>
  <speed>0.02</speed>
  <fix>3d</fix>
</trkpt>
<trkpt lat="40.0728138" lon="-105.2306152">
  <ele>1596.66</ele>
  <time>2026-08-28T19:12:11Z</time>
  <course>351.24</course>
  <speed>0.03605551275463989</speed>
  <fix>3d</fix>
</trkpt>
<trkpt lat="40.0728139" lon="-105.2306155">
  <ele>1596.58</ele>
  <time>2026-08-28T19:12:11Z</time>
  <course>155.68</course>
  <speed>0.02</speed>
  <fix>3d</fix>
</trkpt>
<trkpt lat="40.0728137" lon="-105.2306152">
  <ele>1596.65</ele>
  <time>2026-08-28T19:12:11Z</time>
  <course>351.23</course>
  <speed>0.03605551275463989</speed>
  <fix>3d</fix>
</trkpt>
<trkpt lat="40.0728138" lon="-105.2306155">
  <ele>1596.58</ele>
  <time>2026-08-28T19:12:11Z</time>
  <course>160.68</course>
  <speed>0.02</speed>
  <fix>3d</fix>
</trkpt>
<trkpt lat="40.0728137" lon="-105.2306152">
  <ele>1596.65</ele>
  <time>2026-08-28T19:12:11Z</time>
  <course>351.22</course>
  <speed>0.0282842712474619</speed>
  <fix>3d</fix>
</trkpt>
<trkpt lat="40.0728138" lon="-105.2306155">
  <ele>1596.58</ele>
  <time>2026-08-28T19:12:11Z</time>
  <course>165.44</course>
  <speed>0.02</speed>
  <fix>3d</fix>
</trkpt>
<trkpt lat="40.0728137" lon="-105.2306152">
  <ele>1596.65</ele>
  <time>2026-08-28T19:12:11Z</time>
  <course>351.2</course>
  <speed>0.0282842712474619</speed>
  <fix>3d</fix>
</trkpt>
<trkpt lat="40.0728137" lon="-105.2306155">
  <ele>1596.58</ele>
  <time>2026-08-28T19:12:11Z</time>
  <course>169.63</course>
  <speed>0.02</speed>
  <fix>3d</fix>
</trkpt>
<trkpt lat="40.0728136" lon="-105.2306152">
  <ele>1596.65</ele>
  <time>2026-08-28T19:12:11Z</time>
  <course>351.19</course>
  <speed>0.0282842712474619</speed>
  <fix>3d</fix>
</trkpt>
<trkpt lat="40.0728137" lon="-105.2306155">
  <ele>1596.58</ele>
  <time>2026-08-28T19:12:11Z</time>
  <course>173.22</course>
  <speed>0.02</speed>
  <fix>3d</fix>
</trkpt>
<trkpt lat="40.0728136" lon="-105.2306152">
  <ele>1596.65</ele>
  <time>2026-08-28T19:12:11Z</time>
  <course>351.17</course>
  <speed>0.0282842712474619</speed>
  <fix>3d</fix>
</trkpt>
<trkpt lat="40.0728136" lon="-105.2306155">
  <ele>1596.58</ele>
  <time>2026-08-28T19:12:11Z</time>
  <course>176.14</course>
  <speed>0.02</speed>
  <fix>3d</fix>
</trkpt>
<trkpt lat="40.0728136" lon="-105.2306152">
  <ele>1596.65</ele>
  <time>2026-08-28T19:12:11Z</time>
  <course>351.16</course>
  <speed>0.0282842712474619</speed>
  <fix>3d</fix>
</trkpt>
<trkpt lat="40.0728135" lon="-105.2306155">
  <ele>1596.58</ele>
  <time>2026-08-28T19:12:11Z</time>
  <course>178.79</course>
  <speed>0.01</speed>
  <fix>3d</fix>
</trkpt>
<trkpt lat="40.0728135" lon="-105.2306152">
  <ele>1596.66</ele>
  <time>2026-08-28T19:12:11Z</time>
  <course>351.16</course>
  <speed>0.022360679774997897</speed>
  <fix>3d</fix>
</trkpt>
<trkpt lat="40.0728135" lon="-105.2306155">
  <ele>1596.58</ele>
  <time>2026-08-28T19:12:11Z</time>
  <course>182.95</course>
  <speed>0.01</speed>
  <fix>3d</fix>
</trkpt>
<trkpt lat="40.0728135" lon="-105.2306152">
  <ele>1596.66</ele>
  <time>2026-08-28T19:12:11Z</time>
  <course>351.15</course>
  <speed>0.022360679774997897</speed>
  <fix>3d</fix>
</trkpt>
<trkpt lat="40.0728135" lon="-105.2306155">
  <ele>1596.57</ele>
  <time>2026-08-28T19:12:11Z</time>
  <course>188.91</course>
  <speed>0.01</speed>
  <fix>3d</fix>
</trkpt>
<trkpt lat="40.0728135" lon="-105.2306153">
  <ele>1596.66</ele>
  <time>2026-08-28T19:12:11Z</time>
  <course>351.15</course>
  <speed>0.022360679774997897</speed>
  <fix>3d</fix>
</trkpt>
<trkpt lat="40.0728135" lon="-105.2306155">
  <ele>1596.57</ele>
  <time>2026-08-28T19:12:11Z</time>
  <course>198.3</course>
  <speed>0.0</speed>
  <fix>3d</fix>
</trkpt>
<trkpt lat="40.0728135" lon="-105.2306153">
  <ele>1596.66</ele>
  <time>2026-08-28T19:12:11Z</time>
  <course>351.15</course>
  <speed>0.02</speed>
  <fix>3d</fix>
</trkpt>
<trkpt lat="40.0728134" lon="-105.2306155">
  <ele>1596.57</ele>
  <time>2026-08-28T19:12:11Z</time>
  <course>221.6</course>
  <speed>0.0</speed>
  <fix>3d</fix>
</trkpt>
<trkpt lat="40.0728135" lon="-105.2306153">
  <ele>1596.66</ele>
  <time>2026-08-28T19:12:11Z</time>
  <course>351.16</course>
  <speed>0.02</speed>
  <fix>3d</fix>
</trkpt>
<trkpt lat="40.0728134" lon="-105.2306155">
  <ele>1596.57</ele>
  <time>2026-08-28T19:12:11Z</time>
  <course>272.8</course>
  <speed>0.0</speed>
  <fix>3d</fix>
</trkpt>
<trkpt lat="40.0728135" lon="-105.2306153">
  <ele>1596.66</ele>
  <time>2026-08-28T19:12:11Z</time>
  <course>351.18</course>
  <speed>0.02</speed>
  <fix>3d</fix>
</trkpt>
<trkpt lat="40.0728134" lon="-105.2306155">
  <ele>1596.57</ele>
  <time>2026-08-28T19:12:11Z</time>
  <course>309.74</course>
  <speed>0.0</speed>
  <fix>3d</fix>
</trkpt>
<trkpt lat="40.0728135" lon="-105.2306153">
  <ele>1596.66</ele>
  <time>2026-08-28T19:12:11Z</time>
  <course>351.18</course>
  <speed>0.02</speed>
  <fix>3d</fix>
</trkpt>
<trkpt lat="40.0728135" lon="-105.2306155">
  <ele>1596.57</ele>
  <time>2026-08-28T19:12:11Z</time>
  <course>324.5</course>
  <speed>0.0</speed>
  <fix>3d</fix>
</trkpt>
<trkpt lat="40.0728135" lon="-105.2306153">
  <ele>1596.66</ele>
  <time>2026-08-28T19:12:11Z</time>
  <course>351.18</course>
  <speed>0.02</speed>
  <fix>3d</fix>
</trkpt>
<trkpt lat="40.0728135" lon="-105.2306155">
  <ele>1596.56</ele>
  <time>2026-08-28T19:12:11Z</time>
  <course>331.83</course>
  <speed>0.01</speed>
  <fix>3d</fix>
</trkpt>
<trkpt lat="40.0728135" lon="-105.2306153">
  <ele>1596.66</ele>
  <time>2026-08-28T19:12:11Z</time>
  <course>351.17</course>
  <speed>0.02</speed>
  <fix>3d</fix>
</trkpt>
<trkpt lat="40.0728135" lon="-105.2306155">
  <ele>1596.56</ele>
  <time>2026-08-28T19:12:11Z</time>
  <course>337.27</course>
  <speed>0.01</speed>
  <fix>3d</fix>
</trkpt>
<trkpt lat="40.0728135" lon="-105.2306153">
  <ele>1596.66</ele>
  <time>2026-08-28T19:12:11Z</time>
  <course>351.18</course>
  <speed>0.02</speed>
  <fix>3d</fix>
</trkpt>
<trkpt lat="40.0728135" lon="-105.2306155">
  <ele>1596.56</ele>
  <time>2026-08-28T19:12:11Z</time>
  <course>340.35</course>
  <speed>0.01</speed>
  <fix>3d</fix>
</trkpt>
<trkpt lat="40.0728135" lon="-105.2306153">
  <ele>1596.66</ele>
  <time>2026-08-28T19:12:11Z</time>
  <course>351.19</course>
  <speed>0.02</speed>
  <fix>3d</fix>
</trkpt>
<trkpt lat="40.0728135" lon="-105.2306155">
  <ele>1596.56</ele>
  <time>2026-08-28T19:12:11Z</time>
  <course>341.54</course>
  <speed>0.01</speed>
  <fix>3d</fix>
</trkpt>
<trkpt lat="40.0728135" lon="-105.2306153">
  <ele>1596.66</ele>
  <time>2026-08-28T19:12:11Z</time>
  <course>351.19</course>
  <speed>0.02</speed>
  <fix>3d</fix>
</trkpt>
<trkpt lat="40.0728135" lon="-105.2306155">
  <ele>1596.55</ele>
  <time>2026-08-28T19:12:11Z</time>
  <course>342.16</course>
  <speed>0.01</speed>
  <fix>3d</fix>
</trkpt>
<trkpt lat="40.0728135" lon="-105.2306153">
  <ele>1596.65</ele>
  <time>2026-08-28T19:12:11Z</time>
  <course>351.17</course>
  <speed>0.02</speed>
  <fix>3d</fix>
</trkpt>
<trkpt lat="40.0728135" lon="-105.2306155">
  <ele>1596.55</ele>
  <time>2026-08-28T19:12:11Z</time>
  <course>342.81</course>
  <speed>0.01</speed>
  <fix>3d</fix>
</trkpt>
<trkpt lat="40.0728135" lon="-105.2306153">
  <ele>1596.65</ele>
  <time>2026-08-28T19:12:11Z</time>
  <course>351.16</course>
  <speed>0.02</speed>
  <fix>3d</fix>
</trkpt>
<trkpt lat="40.0728136" lon="-105.2306155">
  <ele>1596.55</ele>
  <time>2026-08-28T19:12:11Z</time>
  <course>343.85</course>
  <speed>0.01</speed>
  <fix>3d</fix>
</trkpt>
<trkpt lat="40.0728136" lon="-105.2306153">
  <ele>1596.65</ele>
  <time>2026-08-28T19:12:11Z</time>
  <course>351.15</course>
  <speed>0.02</speed>
  <fix>3d</fix>
</trkpt>
<trkpt lat="40.0728137" lon="-105.2306155">
  <ele>1596.55</ele>
  <time>2026-08-28T19:12:11Z</time>
  <course>344.4</course>
  <speed>0.01</speed>
  <fix>3d</fix>
</trkpt>
<trkpt lat="40.0728136" lon="-105.2306153">
  <ele>1596.65</ele>
  <time>2026-08-28T19:12:11Z</time>
  <course>351.14</course>
  <speed>0.02</speed>
  <fix>3d</fix>
</trkpt>
<trkpt lat="40.0728137" lon="-105.2306155">
  <ele>1596.55</ele>
  <time>2026-08-28T19:12:11Z</time>
  <course>345.0</course>
  <speed>0.01</speed>
  <fix>3d</fix>
</trkpt>
<trkpt lat="40.0728136" lon="-105.2306153">
  <ele>1596.65</ele>
  <time>2026-08-28T19:12:11Z</time>
  <course>351.14</course>
  <speed>0.02</speed>
  <fix>3d</fix>
</trkpt>
<trkpt lat="40.0728137" lon="-105.2306155">
  <ele>1596.54</ele>
  <time>2026-08-28T19:12:11Z</time>
  <course>345.89</course>
  <speed>0.01</speed>
  <fix>3d</fix>
</trkpt>
<trkpt lat="40.0728136" lon="-105.2306153">
  <ele>1596.65</ele>
  <time>2026-08-28T19:12:11Z</time>
  <course>351.13</course>
  <speed>0.02</speed>
  <fix>3d</fix>
</trkpt>
<trkpt lat="40.0728137" lon="-105.2306155">
  <ele>1596.54</ele>
  <time>2026-08-28T19:12:11Z</time>
  <course>345.76</course>
  <speed>0.01</speed>
  <fix>3d</fix>
</trkpt>
<trkpt lat="40.0728136" lon="-105.2306153">
  <ele>1596.65</ele>
  <time>2026-08-28T19:12:11Z</time>
  <course>351.13</course>
  <speed>0.02</speed>
  <fix>3d</fix>
</trkpt>
<trkpt lat="40.0728138" lon="-105.2306155">
  <ele>1596.54</ele>
  <time>2026-08-28T19:12:11Z</time>
  <course>344.7</course>
  <speed>0.01</speed>
  <fix>3d</fix>
</trkpt>
<trkpt lat="40.0728137" lon="-105.2306153">
  <ele>1596.65</ele>
  <time>2026-08-28T19:12:11Z</time>
  <course>351.13</course>
  <speed>0.02</speed>
  <fix>3d</fix>
</trkpt>
<trkpt lat="40.0728138" lon="-105.2306155">
  <ele>1596.54</ele>
  <time>2026-08-28T19:12:11Z</time>
  <course>343.09</course>
  <speed>0.01</speed>
  <fix>3d</fix>
</trkpt>
<trkpt lat="40.0728137" lon="-105.2306153">
  <ele>1596.64</ele>
  <time>2026-08-28T19:12:11Z</time>
  <course>351.13</course>
  <speed>0.02</speed>
  <fix>3d</fix>
</trkpt>
<trkpt lat="40.0728138" lon="-105.2306155">
  <ele>1596.54</ele>
  <time>2026-08-28T19:12:11Z</time>
  <course>339.66</course>
  <speed>0.0</speed>
  <fix>3d</fix>
</trkpt>
<trkpt lat="40.0728137" lon="-105.2306153">
  <ele>1596.64</ele>
  <time>2026-08-28T19:12:11Z</time>
  <course>351.13</course>
  <speed>0.02</speed>
  <fix>3d</fix>
</trkpt>
<trkpt lat="40.0728138" lon="-105.2306155">
  <ele>1596.54</ele>
  <time>2026-08-28T19:12:11Z</time>
  <course>332.71</course>
  <speed>0.0</speed>
  <fix>3d</fix>
</trkpt>
<trkpt lat="40.0728137" lon="-105.2306153">
  <ele>1596.65</ele>
  <time>2026-08-28T19:12:11Z</time>
  <course>351.13</course>
  <speed>0.022360679774997897</speed>
  <fix>3d</fix>
</trkpt>
<trkpt lat="40.0728138" lon="-105.2306155">
  <ele>1596.54</ele>
  <time>2026-08-28T19:12:11Z</time>
  <course>317.17</course>
  <speed>0.0</speed>
  <fix>3d</fix>
</trkpt>
<trkpt lat="40.0728137" lon="-105.2306153">
  <ele>1596.65</ele>
  <time>2026-08-28T19:12:11Z</time>
  <course>351.13</course>
  <speed>0.022360679774997897</speed>
  <fix>3d</fix>
</trkpt>
<trkpt lat="40.0728138" lon="-105.2306155">
  <ele>1596.54</ele>
  <time>2026-08-28T19:12:11Z</time>
  <course>276.31</course>
  <speed>0.0</speed>
  <fix>3d</fix>
</trkpt>
<trkpt lat="40.0728137" lon="-105.2306153">
  <ele>1596.65</ele>
  <time>2026-08-28T19:12:11Z</time>
  <course>351.13</course>
  <speed>0.022360679774997897</speed>
  <fix>3d</fix>
</trkpt>
<trkpt lat="40.0728138" lon="-105.2306155">
  <ele>1596.54</ele>
  <time>2026-08-28T19:12:11Z</time>
  <course>235.8</course>
  <speed>0.0</speed>
  <fix>3d</fix>
</trkpt>
<trkpt lat="40.0728137" lon="-105.2306153">
  <ele>1596.65</ele>
  <time>2026-08-28T19:12:11Z</time>
  <course>351.13</course>
  <speed>0.022360679774997897</speed>
  <fix>3d</fix>
</trkpt>
<trkpt lat="40.0728138" lon="-105.2306155">
  <ele>1596.54</ele>
  <time>2026-08-28T19:12:11Z</time>
  <course>224.8</course>
  <speed>0.0</speed>
  <fix>3d</fix>
</trkpt>
<trkpt lat="40.0728137" lon="-105.2306153">
  <ele>1596.65</ele>
  <time>2026-08-28T19:12:11Z</time>
  <course>351.13</course>
  <speed>0.022360679774997897</speed>
  <fix>3d</fix>
</trkpt>
<trkpt lat="40.0728138" lon="-105.2306155">
  <ele>1596.54</ele>
  <time>2026-08-28T19:12:11Z</time>
  <course>223.32</course>
  <speed>0.0</speed>
  <fix>3d</fix>
</trkpt>
<trkpt lat="40.0728137" lon="-105.2306153">
  <ele>1596.64</ele>
  <time>2026-08-28T19:12:11Z</time>
  <course>351.13</course>
  <speed>0.022360679774997897</speed>
  <fix>3d</fix>
</trkpt>
<trkpt lat="40.0728138" lon="-105.2306155">
  <ele>1596.54</ele>
  <time>2026-08-28T19:12:11Z</time>
  <course>222.77</course>
  <speed>0.0</speed>
  <fix>3d</fix>
</trkpt>
<trkpt lat="40.0728137" lon="-105.2306153">
  <ele>1596.64</ele>
  <time>2026-08-28T19:12:11Z</time>
  <course>351.13</course>
  <speed>0.022360679774997897</speed>
  <fix>3d</fix>
</trkpt>
<trkpt lat="40.0728138" lon="-105.2306155">
  <ele>1596.54</ele>
  <time>2026-08-28T19:12:11Z</time>
  <course>221.44</course>
  <speed>0.0</speed>
  <fix>3d</fix>
</trkpt>
<trkpt lat="40.0728137" lon="-105.2306153">
  <ele>1596.64</ele>
  <time>2026-08-28T19:12:11Z</time>
  <course>351.14</course>
  <speed>0.022360679774997897</speed>
  <fix>3d</fix>
</trkpt>
<trkpt lat="40.0728138" lon="-105.2306156">
  <ele>1596.54</ele>
  <time>2026-08-28T19:12:11Z</time>
  <course>220.11</course>
  <speed>0.0</speed>
  <fix>3d</fix>
</trkpt>
<trkpt lat="40.0728137" lon="-105.2306153">
  <ele>1596.64</ele>
  <time>2026-08-28T19:12:11Z</time>
  <course>351.12</course>
  <speed>0.022360679774997897</speed>
  <fix>3d</fix>
</trkpt>
<trkpt lat="40.0728138" lon="-105.2306157">
  <ele>1596.54</ele>
  <time>2026-08-28T19:12:11Z</time>
  <course>218.69</course>
  <speed>0.0</speed>
  <fix>3d</fix>
</trkpt>
<trkpt lat="40.0728137" lon="-105.2306153">
  <ele>1596.64</ele>
  <time>2026-08-28T19:12:11Z</time>
  <course>351.1</course>
  <speed>0.022360679774997897</speed>
  <fix>3d</fix>
</trkpt>
<trkpt lat="40.0728138" lon="-105.2306157">
  <ele>1596.54</ele>
  <time>2026-08-28T19:12:11Z</time>
  <course>218.92</course>
  <speed>0.0</speed>
  <fix>3d</fix>
</trkpt>
<trkpt lat="40.0728137" lon="-105.2306153">
  <ele>1596.64</ele>
  <time>2026-08-28T19:12:11Z</time>
  <course>351.08</course>
  <speed>0.022360679774997897</speed>
  <fix>3d</fix>
</trkpt>
<trkpt lat="40.0728138" lon="-105.2306157">
  <ele>1596.54</ele>
  <time>2026-08-28T19:12:11Z</time>
  <course>219.0</course>
  <speed>0.0</speed>
  <fix>3d</fix>
</trkpt>
<trkpt lat="40.0728137" lon="-105.2306153">
  <ele>1596.65</ele>
  <time>2026-08-28T19:12:11Z</time>
  <course>351.07</course>
  <speed>0.022360679774997897</speed>
  <fix>3d</fix>
</trkpt>
<trkpt lat="40.0728138" lon="-105.2306157">
  <ele>1596.55</ele>
  <time>2026-08-28T19:12:11Z</time>
  <course>216.18</course>
  <speed>0.0</speed>
  <fix>3d</fix>
</trkpt>
<trkpt lat="40.0728137" lon="-105.2306153">
  <ele>1596.65</ele>
  <time>2026-08-28T19:12:11Z</time>
  <course>351.07</course>
  <speed>0.022360679774997897</speed>
  <fix>3d</fix>
</trkpt>
<trkpt lat="40.0728138" lon="-105.2306157">
  <ele>1596.55</ele>
  <time>2026-08-28T19:12:11Z</time>
  <course>211.3</course>
  <speed>0.0</speed>
  <fix>3d</fix>
</trkpt>
<trkpt lat="40.0728137" lon="-105.2306153">
  <ele>1596.65</ele>
  <time>2026-08-28T19:12:11Z</time>
  <course>351.07</course>
  <speed>0.022360679774997897</speed>
  <fix>3d</fix>
</trkpt>
<trkpt lat="40.0728138" lon="-105.2306157">
  <ele>1596.55</ele>
  <time>2026-08-28T19:12:11Z</time>
  <course>205.18</course>
  <speed>0.0</speed>
  <fix>3d</fix>
</trkpt>
<trkpt lat="40.0728137" lon="-105.2306154">
  <ele>1596.65</ele>
  <time>2026-08-28T19:12:11Z</time>
  <course>351.07</course>
  <speed>0.022360679774997897</speed>
  <fix>3d</fix>
</trkpt>
<trkpt lat="40.0728138" lon="-105.2306157">
  <ele>1596.55</ele>
  <time>2026-08-28T19:12:11Z</time>
  <course>198.59</course>
  <speed>0.0</speed>
  <fix>3d</fix>
</trkpt>
<trkpt lat="40.0728137" lon="-105.2306154">
  <ele>1596.65</ele>
  <time>2026-08-28T19:12:11Z</time>
  <course>351.08</course>
  <speed>0.022360679774997897</speed>
  <fix>3d</fix>
</trkpt>
<trkpt lat="40.0728138" lon="-105.2306157">
  <ele>1596.55</ele>
  <time>2026-08-28T19:12:11Z</time>
  <course>189.57</course>
  <speed>0.0</speed>
  <fix>3d</fix>
</trkpt>
<trkpt lat="40.0728137" lon="-105.2306154">
  <ele>1596.65</ele>
  <time>2026-08-28T19:12:11Z</time>
  <course>351.1</course>
  <speed>0.0316227766016838</speed>
  <fix>3d</fix>
</trkpt>
<trkpt lat="40.0728138" lon="-105.2306157">
  <ele>1596.55</ele>
  <time>2026-08-28T19:12:11Z</time>
  <course>177.18</course>
  <speed>0.0</speed>
  <fix>3d</fix>
</trkpt>
<trkpt lat="40.0728137" lon="-105.2306154">
  <ele>1596.65</ele>
  <time>2026-08-28T19:12:11Z</time>
  <course>351.1</course>
  <speed>0.0316227766016838</speed>
  <fix>3d</fix>
</trkpt>
<trkpt lat="40.0728138" lon="-105.2306157">
  <ele>1596.55</ele>
  <time>2026-08-28T19:12:12Z</time>
  <course>165.49</course>
  <speed>0.0</speed>
  <fix>3d</fix>
</trkpt>
<trkpt lat="40.0728137" lon="-105.2306154">
  <ele>1596.64</ele>
  <time>2026-08-28T19:12:12Z</time>
  <course>351.1</course>
  <speed>0.0316227766016838</speed>
  <fix>3d</fix>
</trkpt>
<trkpt lat="40.0728138" lon="-105.2306157">
  <ele>1596.55</ele>
  <time>2026-08-28T19:12:12Z</time>
  <course>152.11</course>
  <speed>0.0</speed>
  <fix>3d</fix>
</trkpt>
<trkpt lat="40.0728137" lon="-105.2306154">
  <ele>1596.64</ele>
  <time>2026-08-28T19:12:12Z</time>
  <course>351.09</course>
  <speed>0.0316227766016838</speed>
  <fix>3d</fix>
</trkpt>
<trkpt lat="40.0728137" lon="-105.2306157">
  <ele>1596.55</ele>
  <time>2026-08-28T19:12:12Z</time>
  <course>136.12</course>
  <speed>0.0</speed>
  <fix>3d</fix>
</trkpt>
<trkpt lat="40.0728137" lon="-105.2306154">
  <ele>1596.63</ele>
  <time>2026-08-28T19:12:12Z</time>
  <course>351.07</course>
  <speed>0.0316227766016838</speed>
  <fix>3d</fix>
</trkpt>
<trkpt lat="40.0728137" lon="-105.2306157">
  <ele>1596.55</ele>
  <time>2026-08-28T19:12:12Z</time>
  <course>123.79</course>
  <speed>0.0</speed>
  <fix>3d</fix>
</trkpt>
<trkpt lat="40.0728137" lon="-105.2306154">
  <ele>1596.63</ele>
  <time>2026-08-28T19:12:12Z</time>
  <course>351.05</course>
  <speed>0.0316227766016838</speed>
  <fix>3d</fix>
</trkpt>
<trkpt lat="40.0728137" lon="-105.2306157">
  <ele>1596.55</ele>
  <time>2026-08-28T19:12:12Z</time>
  <course>118.2</course>
  <speed>0.0</speed>
  <fix>3d</fix>
</trkpt>
<trkpt lat="40.0728137" lon="-105.2306154">
  <ele>1596.64</ele>
  <time>2026-08-28T19:12:12Z</time>
  <course>351.03</course>
  <speed>0.0316227766016838</speed>
  <fix>3d</fix>
</trkpt>
<trkpt lat="40.0728137" lon="-105.2306157">
  <ele>1596.55</ele>
  <time>2026-08-28T19:12:12Z</time>
  <course>116.33</course>
  <speed>0.0</speed>
  <fix>3d</fix>
</trkpt>
<trkpt lat="40.0728137" lon="-105.2306154">
  <ele>1596.64</ele>
  <time>2026-08-28T19:12:12Z</time>
  <course>351.03</course>
  <speed>0.0316227766016838</speed>
  <fix>3d</fix>
</trkpt>
<trkpt lat="40.0728137" lon="-105.2306157">
  <ele>1596.55</ele>
  <time>2026-08-28T19:12:12Z</time>
  <course>114.59</course>
  <speed>0.0</speed>
  <fix>3d</fix>
</trkpt>
<trkpt lat="40.0728137" lon="-105.2306154">
  <ele>1596.64</ele>
  <time>2026-08-28T19:12:12Z</time>
  <course>351.02</course>
  <speed>0.0316227766016838</speed>
  <fix>3d</fix>
</trkpt>
<trkpt lat="40.0728137" lon="-105.2306157">
  <ele>1596.56</ele>
  <time>2026-08-28T19:12:12Z</time>
  <course>111.92</course>
  <speed>0.0</speed>
  <fix>3d</fix>
</trkpt>
<trkpt lat="40.0728137" lon="-105.2306154">
  <ele>1596.65</ele>
  <time>2026-08-28T19:12:12Z</time>
  <course>351.02</course>
  <speed>0.0316227766016838</speed>
  <fix>3d</fix>
</trkpt>
<trkpt lat="40.0728137" lon="-105.2306157">
  <ele>1596.56</ele>
  <time>2026-08-28T19:12:12Z</time>
  <course>108.63</course>
  <speed>0.0</speed>
  <fix>3d</fix>
</trkpt>
<trkpt lat="40.0728137" lon="-105.2306154">
  <ele>1596.65</ele>
  <time>2026-08-28T19:12:12Z</time>
  <course>351.03</course>
  <speed>0.0316227766016838</speed>
  <fix>3d</fix>
</trkpt>
<trkpt lat="40.0728137" lon="-105.2306157">
  <ele>1596.56</ele>
  <time>2026-08-28T19:12:12Z</time>
  <course>105.58</course>
  <speed>0.0</speed>
  <fix>3d</fix>
</trkpt>
<trkpt lat="40.0728137" lon="-105.2306154">
  <ele>1596.65</ele>
  <time>2026-08-28T19:12:12Z</time>
  <course>351.03</course>
  <speed>0.0316227766016838</speed>
  <fix>3d</fix>
</trkpt>
<trkpt lat="40.0728137" lon="-105.2306157">
  <ele>1596.57</ele>
  <time>2026-08-28T19:12:12Z</time>
  <course>103.46</course>
  <speed>0.0</speed>
  <fix>3d</fix>
</trkpt>
<trkpt lat="40.0728137" lon="-105.2306154">
  <ele>1596.66</ele>
  <time>2026-08-28T19:12:12Z</time>
  <course>351.03</course>
  <speed>0.0316227766016838</speed>
  <fix>3d</fix>
</trkpt>
<trkpt lat="40.0728137" lon="-105.2306157">
  <ele>1596.57</ele>
  <time>2026-08-28T19:12:12Z</time>
  <course>102.57</course>
  <speed>0.0</speed>
  <fix>3d</fix>
</trkpt>
<trkpt lat="40.0728137" lon="-105.2306154">
  <ele>1596.66</ele>
  <time>2026-08-28T19:12:12Z</time>
  <course>351.05</course>
  <speed>0.0316227766016838</speed>
  <fix>3d</fix>
</trkpt>
<trkpt lat="40.0728137" lon="-105.2306157">
  <ele>1596.57</ele>
  <time>2026-08-28T19:12:12Z</time>
  <course>99.67</course>
  <speed>0.0</speed>
  <fix>3d</fix>
</trkpt>
<trkpt lat="40.0728137" lon="-105.2306154">
  <ele>1596.66</ele>
  <time>2026-08-28T19:12:12Z</time>
  <course>351.08</course>
  <speed>0.03</speed>
  <fix>3d</fix>
</trkpt>
<trkpt lat="40.0728137" lon="-105.2306157">
  <ele>1596.57</ele>
  <time>2026-08-28T19:12:12Z</time>
  <course>90.07</course>
  <speed>0.0</speed>
  <fix>3d</fix>
</trkpt>
<trkpt lat="40.0728137" lon="-105.2306154">
  <ele>1596.66</ele>
  <time>2026-08-28T19:12:12Z</time>
  <course>351.1</course>
  <speed>0.03</speed>
  <fix>3d</fix>
</trkpt>
<trkpt lat="40.0728137" lon="-105.2306157">
  <ele>1596.57</ele>
  <time>2026-08-28T19:12:12Z</time>
  <course>78.38</course>
  <speed>0.0</speed>
  <fix>3d</fix>
</trkpt>
<trkpt lat="40.0728137" lon="-105.2306154">
  <ele>1596.66</ele>
  <time>2026-08-28T19:12:12Z</time>
  <course>351.11</course>
  <speed>0.03</speed>
  <fix>3d</fix>
</trkpt>
<trkpt lat="40.0728137" lon="-105.2306157">
  <ele>1596.57</ele>
  <time>2026-08-28T19:12:12Z</time>
  <course>71.58</course>
  <speed>0.0</speed>
  <fix>3d</fix>
</trkpt>
<trkpt lat="40.0728137" lon="-105.2306154">
  <ele>1596.66</ele>
  <time>2026-08-28T19:12:12Z</time>
  <course>351.12</course>
  <speed>0.03</speed>
  <fix>3d</fix>
</trkpt>
<trkpt lat="40.0728137" lon="-105.2306157">
  <ele>1596.56</ele>
  <time>2026-08-28T19:12:12Z</time>
  <course>67.21</course>
  <speed>0.0</speed>
  <fix>3d</fix>
</trkpt>
<trkpt lat="40.0728137" lon="-105.2306154">
  <ele>1596.65</ele>
  <time>2026-08-28T19:12:12Z</time>
  <course>351.1</course>
  <speed>0.03</speed>
  <fix>3d</fix>
</trkpt>
<trkpt lat="40.0728137" lon="-105.2306157">
  <ele>1596.56</ele>
  <time>2026-08-28T19:12:12Z</time>
  <course>62.25</course>
  <speed>0.0</speed>
  <fix>3d</fix>
</trkpt>
<trkpt lat="40.0728137" lon="-105.2306154">
  <ele>1596.65</ele>
  <time>2026-08-28T19:12:12Z</time>
  <course>351.08</course>
  <speed>0.03</speed>
  <fix>3d</fix>
</trkpt>
<trkpt lat="40.0728137" lon="-105.2306156">
  <ele>1596.56</ele>
  <time>2026-08-28T19:12:12Z</time>
  <course>58.27</course>
  <speed>0.0</speed>
  <fix>3d</fix>
</trkpt>
<trkpt lat="40.0728137" lon="-105.2306154">
  <ele>1596.65</ele>
  <time>2026-08-28T19:12:12Z</time>
  <course>351.08</course>
  <speed>0.03</speed>
  <fix>3d</fix>
</trkpt>
<trkpt lat="40.0728137" lon="-105.2306155">
  <ele>1596.56</ele>
  <time>2026-08-28T19:12:12Z</time>
  <course>56.19</course>
  <speed>0.0</speed>
  <fix>3d</fix>
</trkpt>
<trkpt lat="40.0728137" lon="-105.2306153">
  <ele>1596.65</ele>
  <time>2026-08-28T19:12:12Z</time>
  <course>351.07</course>
  <speed>0.03</speed>
  <fix>3d</fix>
</trkpt>
<trkpt lat="40.0728137" lon="-105.2306155">
  <ele>1596.56</ele>
  <time>2026-08-28T19:12:12Z</time>
  <course>55.02</course>
  <speed>0.0</speed>
  <fix>3d</fix>
</trkpt>
<trkpt lat="40.0728137" lon="-105.2306153">
  <ele>1596.65</ele>
  <time>2026-08-28T19:12:12Z</time>
  <course>351.06</course>
  <speed>0.03</speed>
  <fix>3d</fix>
</trkpt>
<trkpt lat="40.0728137" lon="-105.2306155">
  <ele>1596.56</ele>
  <time>2026-08-28T19:12:12Z</time>
  <course>52.4</course>
  <speed>0.0</speed>
  <fix>3d</fix>
</trkpt>
<trkpt lat="40.0728137" lon="-105.2306153">
  <ele>1596.65</ele>
  <time>2026-08-28T19:12:12Z</time>
  <course>351.06</course>
  <speed>0.03</speed>
  <fix>3d</fix>
</trkpt>
<trkpt lat="40.0728137" lon="-105.2306155">
  <ele>1596.56</ele>
  <time>2026-08-28T19:12:12Z</time>
  <course>46.1</course>
  <speed>0.0</speed>
  <fix>3d</fix>
</trkpt>
<trkpt lat="40.0728137" lon="-105.2306153">
  <ele>1596.65</ele>
  <time>2026-08-28T19:12:12Z</time>
  <course>351.05</course>
  <speed>0.03</speed>
  <fix>3d</fix>
</trkpt>
<trkpt lat="40.0728137" lon="-105.2306155">
  <ele>1596.56</ele>
  <time>2026-08-28T19:12:12Z</time>
  <course>37.33</course>
  <speed>0.0</speed>
  <fix>3d</fix>
</trkpt>
<trkpt lat="40.0728137" lon="-105.2306153">
  <ele>1596.65</ele>
  <time>2026-08-28T19:12:12Z</time>
  <course>351.05</course>
  <speed>0.03</speed>
  <fix>3d</fix>
</trkpt>
<trkpt lat="40.0728137" lon="-105.2306155">
  <ele>1596.56</ele>
  <time>2026-08-28T19:12:12Z</time>
  <course>27.5</course>
  <speed>0.0</speed>
  <fix>3d</fix>
</trkpt>
<trkpt lat="40.0728137" lon="-105.2306153">
  <ele>1596.65</ele>
  <time>2026-08-28T19:12:12Z</time>
  <course>351.04</course>
  <speed>0.02</speed>
  <fix>3d</fix>
</trkpt>
<trkpt lat="40.0728137" lon="-105.2306155">
  <ele>1596.56</ele>
  <time>2026-08-28T19:12:12Z</time>
  <course>16.45</course>
  <speed>0.0</speed>
  <fix>3d</fix>
</trkpt>
<trkpt lat="40.0728137" lon="-105.2306153">
  <ele>1596.65</ele>
  <time>2026-08-28T19:12:12Z</time>
  <course>351.04</course>
  <speed>0.02</speed>
  <fix>3d</fix>
</trkpt>
<trkpt lat="40.0728137" lon="-105.2306155">
  <ele>1596.56</ele>
  <time>2026-08-28T19:12:12Z</time>
  <course>2.94</course>
  <speed>0.0</speed>
  <fix>3d</fix>
</trkpt>
<trkpt lat="40.0728137" lon="-105.2306153">
  <ele>1596.65</ele>
  <time>2026-08-28T19:12:12Z</time>
  <course>351.05</course>
  <speed>0.022360679774997897</speed>
  <fix>3d</fix>
</trkpt>
<trkpt lat="40.0728137" lon="-105.2306155">
  <ele>1596.56</ele>
  <time>2026-08-28T19:12:12Z</time>
  <course>346.59</course>
  <speed>0.0</speed>
  <fix>3d</fix>
</trkpt>
<trkpt lat="40.0728137" lon="-105.2306153">
  <ele>1596.66</ele>
  <time>2026-08-28T19:12:12Z</time>
  <course>351.05</course>
  <speed>0.022360679774997897</speed>
  <fix>3d</fix>
</trkpt>
<trkpt lat="40.0728137" lon="-105.2306155">
  <ele>1596.56</ele>
  <time>2026-08-28T19:12:12Z</time>
  <course>326.85</course>
  <speed>0.0</speed>
  <fix>3d</fix>
</trkpt>
<trkpt lat="40.0728137" lon="-105.2306153">
  <ele>1596.65</ele>
  <time>2026-08-28T19:12:12Z</time>
  <course>351.05</course>
  <speed>0.022360679774997897</speed>
  <fix>3d</fix>
</trkpt>
<trkpt lat="40.0728137" lon="-105.2306155">
  <ele>1596.56</ele>
  <time>2026-08-28T19:12:12Z</time>
  <course>306.21</course>
  <speed>0.0</speed>
  <fix>3d</fix>
</trkpt>
<trkpt lat="40.0728137" lon="-105.2306153">
  <ele>1596.65</ele>
  <time>2026-08-28T19:12:12Z</time>
  <course>351.05</course>
  <speed>0.022360679774997897</speed>
  <fix>3d</fix>
</trkpt>
<trkpt lat="40.0728137" lon="-105.2306155">
  <ele>1596.56</ele>
  <time>2026-08-28T19:12:12Z</time>
  <course>292.51</course>
  <speed>0.0</speed>
  <fix>3d</fix>
</trkpt>
<trkpt lat="40.0728137" lon="-105.2306153">
  <ele>1596.65</ele>
  <time>2026-08-28T19:12:12Z</time>
  <course>351.05</course>
  <speed>0.022360679774997897</speed>
  <fix>3d</fix>
</trkpt>
<trkpt lat="40.0728137" lon="-105.2306155">
  <ele>1596.55</ele>
  <time>2026-08-28T19:12:12Z</time>
  <course>284.71</course>
  <speed>0.0</speed>
  <fix>3d</fix>
</trkpt>
<trkpt lat="40.0728137" lon="-105.2306153">
  <ele>1596.65</ele>
  <time>2026-08-28T19:12:12Z</time>
  <course>351.04</course>
  <speed>0.022360679774997897</speed>
  <fix>3d</fix>
</trkpt>
<trkpt lat="40.0728137" lon="-105.2306155">
  <ele>1596.55</ele>
  <time>2026-08-28T19:12:12Z</time>
  <course>279.58</course>
  <speed>0.0</speed>
  <fix>3d</fix>
</trkpt>
<trkpt lat="40.0728137" lon="-105.2306153">
  <ele>1596.65</ele>
  <time>2026-08-28T19:12:12Z</time>
  <course>351.04</course>
  <speed>0.022360679774997897</speed>
  <fix>3d</fix>
</trkpt>
<trkpt lat="40.0728137" lon="-105.2306155">
  <ele>1596.55</ele>
  <time>2026-08-28T19:12:12Z</time>
  <course>274.65</course>
  <speed>0.0</speed>
  <fix>3d</fix>
</trkpt>
<trkpt lat="40.0728137" lon="-105.2306153">
  <ele>1596.64</ele>
  <time>2026-08-28T19:12:12Z</time>
  <course>351.04</course>
  <speed>0.022360679774997897</speed>
  <fix>3d</fix>
</trkpt>
<trkpt lat="40.0728137" lon="-105.2306155">
  <ele>1596.55</ele>
  <time>2026-08-28T19:12:12Z</time>
  <course>272.38</course>
  <speed>0.0</speed>
  <fix>3d</fix>
</trkpt>
<trkpt lat="40.0728137" lon="-105.2306153">
  <ele>1596.64</ele>
  <time>2026-08-28T19:12:12Z</time>
  <course>351.03</course>
  <speed>0.022360679774997897</speed>
  <fix>3d</fix>
</trkpt>
<trkpt lat="40.0728137" lon="-105.2306155">
  <ele>1596.55</ele>
  <time>2026-08-28T19:12:12Z</time>
  <course>272.09</course>
  <speed>0.0</speed>
  <fix>3d</fix>
</trkpt>
<trkpt lat="40.0728137" lon="-105.2306153">
  <ele>1596.64</ele>
  <time>2026-08-28T19:12:12Z</time>
  <course>351.03</course>
  <speed>0.022360679774997897</speed>
  <fix>3d</fix>
</trkpt>
<trkpt lat="40.0728137" lon="-105.2306155">
  <ele>1596.55</ele>
  <time>2026-08-28T19:12:12Z</time>
  <course>274.44</course>
  <speed>0.0</speed>
  <fix>3d</fix>
</trkpt>
<trkpt lat="40.0728137" lon="-105.2306153">
  <ele>1596.64</ele>
  <time>2026-08-28T19:12:12Z</time>
  <course>351.01</course>
  <speed>0.022360679774997897</speed>
  <fix>3d</fix>
</trkpt>
<trkpt lat="40.0728137" lon="-105.2306155">
  <ele>1596.55</ele>
  <time>2026-08-28T19:12:12Z</time>
  <course>279.34</course>
  <speed>0.0</speed>
  <fix>3d</fix>
</trkpt>
<trkpt lat="40.0728137" lon="-105.2306153">
  <ele>1596.63</ele>
  <time>2026-08-28T19:12:12Z</time>
  <course>350.98</course>
  <speed>0.022360679774997897</speed>
  <fix>3d</fix>
</trkpt>
<trkpt lat="40.0728137" lon="-105.2306155">
  <ele>1596.56</ele>
  <time>2026-08-28T19:12:12Z</time>
  <course>285.48</course>
  <speed>0.0</speed>
  <fix>3d</fix>
</trkpt>
<trkpt lat="40.0728137" lon="-105.2306153">
  <ele>1596.63</ele>
  <time>2026-08-28T19:12:12Z</time>
  <course>350.96</course>
  <speed>0.022360679774997897</speed>
  <fix>3d</fix>
</trkpt>
<trkpt lat="40.0728137" lon="-105.2306156">
  <ele>1596.56</ele>
  <time>2026-08-28T19:12:12Z</time>
  <course>291.84</course>
  <speed>0.0</speed>
  <fix>3d</fix>
</trkpt>
<trkpt lat="40.0728137" lon="-105.2306153">
  <ele>1596.63</ele>
  <time>2026-08-28T19:12:12Z</time>
  <course>350.95</course>
  <speed>0.022360679774997897</speed>
  <fix>3d</fix>
</trkpt>
<trkpt lat="40.0728137" lon="-105.2306157">
  <ele>1596.56</ele>
  <time>2026-08-28T19:12:12Z</time>
  <course>296.46</course>
  <speed>0.0</speed>
  <fix>3d</fix>
</trkpt>
<trkpt lat="40.0728137" lon="-105.2306153">
  <ele>1596.64</ele>
  <time>2026-08-28T19:12:12Z</time>
  <course>350.94</course>
  <speed>0.022360679774997897</speed>
  <fix>3d</fix>
</trkpt>
<trkpt lat="40.0728137" lon="-105.2306157">
  <ele>1596.56</ele>
  <time>2026-08-28T19:12:12Z</time>
  <course>299.08</course>
  <speed>0.0</speed>
  <fix>3d</fix>
</trkpt>
<trkpt lat="40.0728137" lon="-105.2306153">
  <ele>1596.64</ele>
  <time>2026-08-28T19:12:12Z</time>
  <course>350.93</course>
  <speed>0.022360679774997897</speed>
  <fix>3d</fix>
</trkpt>
<trkpt lat="40.0728137" lon="-105.2306157">
  <ele>1596.57</ele>
  <time>2026-08-28T19:12:12Z</time>
  <course>301.54</course>
  <speed>0.0</speed>
  <fix>3d</fix>
</trkpt>
<trkpt lat="40.0728137" lon="-105.2306153">
  <ele>1596.65</ele>
  <time>2026-08-28T19:12:12Z</time>
  <course>350.94</course>
  <speed>0.022360679774997897</speed>
  <fix>3d</fix>
</trkpt>
<trkpt lat="40.0728137" lon="-105.2306157">
  <ele>1596.57</ele>
  <time>2026-08-28T19:12:12Z</time>
  <course>305.16</course>
  <speed>0.0</speed>
  <fix>3d</fix>
</trkpt>
<trkpt lat="40.0728137" lon="-105.2306153">
  <ele>1596.65</ele>
  <time>2026-08-28T19:12:12Z</time>
  <course>350.97</course>
  <speed>0.022360679774997897</speed>
  <fix>3d</fix>
</trkpt>
<trkpt lat="40.0728137" lon="-105.2306157">
  <ele>1596.58</ele>
  <time>2026-08-28T19:12:12Z</time>
  <course>309.36</course>
  <speed>0.0</speed>
  <fix>3d</fix>
</trkpt>
<trkpt lat="40.0728137" lon="-105.2306153">
  <ele>1596.66</ele>
  <time>2026-08-28T19:12:12Z</time>
  <course>350.98</course>
  <speed>0.022360679774997897</speed>
  <fix>3d</fix>
</trkpt>
<trkpt lat="40.0728138" lon="-105.2306157">
  <ele>1596.58</ele>
  <time>2026-08-28T19:12:12Z</time>
  <course>315.13</course>
  <speed>0.0</speed>
  <fix>3d</fix>
</trkpt>
<trkpt lat="40.0728137" lon="-105.2306153">
  <ele>1596.66</ele>
  <time>2026-08-28T19:12:12Z</time>
  <course>351.0</course>
  <speed>0.022360679774997897</speed>
  <fix>3d</fix>
</trkpt>
<trkpt lat="40.0728138" lon="-105.2306157">
  <ele>1596.58</ele>
  <time>2026-08-28T19:12:12Z</time>
  <course>326.37</course>
  <speed>0.0</speed>
  <fix>3d</fix>
</trkpt>
<trkpt lat="40.0728137" lon="-105.2306154">
  <ele>1596.67</ele>
  <time>2026-08-28T19:12:12Z</time>
  <course>351.02</course>
  <speed>0.0316227766016838</speed>
  <fix>3d</fix>
</trkpt>
<trkpt lat="40.0728138" lon="-105.2306157">
  <ele>1596.58</ele>
  <time>2026-08-28T19:12:12Z</time>
  <course>345.86</course>
  <speed>0.0</speed>
  <fix>3d</fix>
</trkpt>
<trkpt lat="40.0728137" lon="-105.2306154">
  <ele>1596.67</ele>
  <time>2026-08-28T19:12:12Z</time>
  <course>351.05</course>
  <speed>0.0316227766016838</speed>
  <fix>3d</fix>
</trkpt>
<trkpt lat="40.0728138" lon="-105.2306158">
  <ele>1596.58</ele>
  <time>2026-08-28T19:12:12Z</time>
  <course>2.52</course>
  <speed>0.0</speed>
  <fix>3d</fix>
</trkpt>
<trkpt lat="40.0728137" lon="-105.2306154">
  <ele>1596.66</ele>
  <time>2026-08-28T19:12:12Z</time>
  <course>351.06</course>
  <speed>0.0316227766016838</speed>
  <fix>3d</fix>
</trkpt>
<trkpt lat="40.0728138" lon="-105.2306158">
  <ele>1596.58</ele>
  <time>2026-08-28T19:12:12Z</time>
  <course>17.12</course>
  <speed>0.0</speed>
  <fix>3d</fix>
</trkpt>
<trkpt lat="40.0728137" lon="-105.2306154">
  <ele>1596.66</ele>
  <time>2026-08-28T19:12:12Z</time>
  <course>351.06</course>
  <speed>0.0316227766016838</speed>
  <fix>3d</fix>
</trkpt>
<trkpt lat="40.0728138" lon="-105.2306158">
  <ele>1596.57</ele>
  <time>2026-08-28T19:12:12Z</time>
  <course>33.25</course>
  <speed>0.0</speed>
  <fix>3d</fix>
</trkpt>
<trkpt lat="40.0728137" lon="-105.2306154">
  <ele>1596.65</ele>
  <time>2026-08-28T19:12:12Z</time>
  <course>351.05</course>
  <speed>0.0316227766016838</speed>
  <fix>3d</fix>
</trkpt>
<trkpt lat="40.0728138" lon="-105.2306158">
  <ele>1596.57</ele>
  <time>2026-08-28T19:12:12Z</time>
  <course>49.52</course>
  <speed>0.0</speed>
  <fix>3d</fix>
</trkpt>
<trkpt lat="40.0728137" lon="-105.2306154">
  <ele>1596.66</ele>
  <time>2026-08-28T19:12:12Z</time>
  <course>351.05</course>
  <speed>0.0316227766016838</speed>
  <fix>3d</fix>
</trkpt>
<trkpt lat="40.0728138" lon="-105.2306158">
  <ele>1596.57</ele>
  <time>2026-08-28T19:12:12Z</time>
  <course>66.4</course>
  <speed>0.0</speed>
  <fix>3d</fix>
</trkpt>
<trkpt lat="40.0728137" lon="-105.2306154">
  <ele>1596.66</ele>
  <time>2026-08-28T19:12:12Z</time>
  <course>351.05</course>
  <speed>0.0316227766016838</speed>
  <fix>3d</fix>
</trkpt>
<trkpt lat="40.0728138" lon="-105.2306158">
  <ele>1596.57</ele>
  <time>2026-08-28T19:12:12Z</time>
  <course>80.86</course>
  <speed>0.0</speed>
  <fix>3d</fix>
</trkpt>
<trkpt lat="40.0728137" lon="-105.2306154">
  <ele>1596.66</ele>
  <time>2026-08-28T19:12:12Z</time>
  <course>351.05</course>
  <speed>0.0316227766016838</speed>
  <fix>3d</fix>
</trkpt>
<trkpt lat="40.0728138" lon="-105.2306158">
  <ele>1596.57</ele>
  <time>2026-08-28T19:12:12Z</time>
  <course>89.81</course>
  <speed>0.0</speed>
  <fix>3d</fix>
</trkpt>
<trkpt lat="40.0728137" lon="-105.2306154">
  <ele>1596.65</ele>
  <time>2026-08-28T19:12:12Z</time>
  <course>351.05</course>
  <speed>0.0316227766016838</speed>
  <fix>3d</fix>
</trkpt>
<trkpt lat="40.0728138" lon="-105.2306158">
  <ele>1596.57</ele>
  <time>2026-08-28T19:12:12Z</time>
  <course>93.7</course>
  <speed>0.0</speed>
  <fix>3d</fix>
</trkpt>
<trkpt lat="40.0728137" lon="-105.2306154">
  <ele>1596.65</ele>
  <time>2026-08-28T19:12:12Z</time>
  <course>351.04</course>
  <speed>0.0316227766016838</speed>
  <fix>3d</fix>
</trkpt>
<trkpt lat="40.0728138" lon="-105.2306158">
  <ele>1596.57</ele>
  <time>2026-08-28T19:12:12Z</time>
  <course>96.95</course>
  <speed>0.0</speed>
  <fix>3d</fix>
</trkpt>
<trkpt lat="40.0728137" lon="-105.2306154">
  <ele>1596.65</ele>
  <time>2026-08-28T19:12:12Z</time>
  <course>351.04</course>
  <speed>0.0316227766016838</speed>
  <fix>3d</fix>
</trkpt>
<trkpt lat="40.0728138" lon="-105.2306158">
  <ele>1596.56</ele>
  <time>2026-08-28T19:12:12Z</time>
  <course>101.01</course>
  <speed>0.0</speed>
  <fix>3d</fix>
</trkpt>
<trkpt lat="40.0728137" lon="-105.2306154">
  <ele>1596.64</ele>
  <time>2026-08-28T19:12:12Z</time>
  <course>351.03</course>
  <speed>0.0316227766016838</speed>
  <fix>3d</fix>
</trkpt>
<trkpt lat="40.0728138" lon="-105.2306157">
  <ele>1596.56</ele>
  <time>2026-08-28T19:12:12Z</time>
  <course>104.44</course>
  <speed>0.0</speed>
  <fix>3d</fix>
</trkpt>
<trkpt lat="40.0728137" lon="-105.2306154">
  <ele>1596.64</ele>
  <time>2026-08-28T19:12:12Z</time>
  <course>351.02</course>
  <speed>0.0316227766016838</speed>
  <fix>3d</fix>
</trkpt>
<trkpt lat="40.0728138" lon="-105.2306157">
  <ele>1596.56</ele>
  <time>2026-08-28T19:12:12Z</time>
  <course>107.84</course>
  <speed>0.0</speed>
  <fix>3d</fix>
</trkpt>
<trkpt lat="40.0728137" lon="-105.2306154">
  <ele>1596.65</ele>
  <time>2026-08-28T19:12:12Z</time>
  <course>351.0</course>
  <speed>0.0316227766016838</speed>
  <fix>3d</fix>
</trkpt>
<trkpt lat="40.0728138" lon="-105.2306157">
  <ele>1596.56</ele>
  <time>2026-08-28T19:12:12Z</time>
  <course>110.56</course>
  <speed>0.0</speed>
  <fix>3d</fix>
</trkpt>
<trkpt lat="40.0728137" lon="-105.2306154">
  <ele>1596.65</ele>
  <time>2026-08-28T19:12:12Z</time>
  <course>350.98</course>
  <speed>0.0316227766016838</speed>
  <fix>3d</fix>
</trkpt>
<trkpt lat="40.0728138" lon="-105.2306157">
  <ele>1596.56</ele>
  <time>2026-08-28T19:12:12Z</time>
  <course>110.94</course>
  <speed>0.0</speed>
  <fix>3d</fix>
</trkpt>
<trkpt lat="40.0728137" lon="-105.2306154">
  <ele>1596.65</ele>
  <time>2026-08-28T19:12:12Z</time>
  <course>350.97</course>
  <speed>0.0316227766016838</speed>
  <fix>3d</fix>
</trkpt>
<trkpt lat="40.0728138" lon="-105.2306157">
  <ele>1596.57</ele>
  <time>2026-08-28T19:12:12Z</time>
  <course>111.71</course>
  <speed>0.0</speed>
  <fix>3d</fix>
</trkpt>
<trkpt lat="40.0728137" lon="-105.2306154">
  <ele>1596.65</ele>
  <time>2026-08-28T19:12:12Z</time>
  <course>350.96</course>
  <speed>0.0316227766016838</speed>
  <fix>3d</fix>
</trkpt>
<trkpt lat="40.0728138" lon="-105.2306156">
  <ele>1596.57</ele>
  <time>2026-08-28T19:12:12Z</time>
  <course>114.56</course>
  <speed>0.0</speed>
  <fix>3d</fix>
</trkpt>
<trkpt lat="40.0728137" lon="-105.2306154">
  <ele>1596.65</ele>
  <time>2026-08-28T19:12:12Z</time>
  <course>350.95</course>
  <speed>0.0316227766016838</speed>
  <fix>3d</fix>
</trkpt>
<trkpt lat="40.0728138" lon="-105.2306155">
  <ele>1596.57</ele>
  <time>2026-08-28T19:12:12Z</time>
  <course>117.47</course>
  <speed>0.0</speed>
  <fix>3d</fix>
</trkpt>
<trkpt lat="40.0728137" lon="-105.2306153">
  <ele>1596.65</ele>
  <time>2026-08-28T19:12:12Z</time>
  <course>350.94</course>
  <speed>0.0316227766016838</speed>
  <fix>3d</fix>
</trkpt>
<trkpt lat="40.0728138" lon="-105.2306155">
  <ele>1596.57</ele>
  <time>2026-08-28T19:12:12Z</time>
  <course>121.83</course>
  <speed>0.0</speed>
  <fix>3d</fix>
</trkpt>
<trkpt lat="40.0728137" lon="-105.2306153">
  <ele>1596.65</ele>
  <time>2026-08-28T19:12:12Z</time>
  <course>350.94</course>
  <speed>0.0316227766016838</speed>
  <fix>3d</fix>
</trkpt>
<trkpt lat="40.0728138" lon="-105.2306155">
  <ele>1596.57</ele>
  <time>2026-08-28T19:12:12Z</time>
  <course>125.44</course>
  <speed>0.0</speed>
  <fix>3d</fix>
</trkpt>
<trkpt lat="40.0728137" lon="-105.2306153">
  <ele>1596.65</ele>
  <time>2026-08-28T19:12:12Z</time>
  <course>350.94</course>
  <speed>0.0316227766016838</speed>
  <fix>3d</fix>
</trkpt>
<trkpt lat="40.0728138" lon="-105.2306155">
  <ele>1596.57</ele>
  <time>2026-08-28T19:12:12Z</time>
  <course>128.94</course>
  <speed>0.0</speed>
  <fix>3d</fix>
</trkpt>
<trkpt lat="40.0728137" lon="-105.2306153">
  <ele>1596.65</ele>
  <time>2026-08-28T19:12:12Z</time>
  <course>350.94</course>
  <speed>0.0316227766016838</speed>
  <fix>3d</fix>
</trkpt>
<trkpt lat="40.0728138" lon="-105.2306155">
  <ele>1596.57</ele>
  <time>2026-08-28T19:12:12Z</time>
  <course>135.26</course>
  <speed>0.0</speed>
  <fix>3d</fix>
</trkpt>
<trkpt lat="40.0728137" lon="-105.2306153">
  <ele>1596.65</ele>
  <time>2026-08-28T19:12:12Z</time>
  <course>350.94</course>
  <speed>0.0316227766016838</speed>
  <fix>3d</fix>
</trkpt>
<trkpt lat="40.0728138" lon="-105.2306155">
  <ele>1596.57</ele>
  <time>2026-08-28T19:12:12Z</time>
  <course>143.15</course>
  <speed>0.0</speed>
  <fix>3d</fix>
</trkpt>
<trkpt lat="40.0728137" lon="-105.2306152">
  <ele>1596.65</ele>
  <time>2026-08-28T19:12:12Z</time>
  <course>350.94</course>
  <speed>0.0316227766016838</speed>
  <fix>3d</fix>
</trkpt>
<trkpt lat="40.0728138" lon="-105.2306155">
  <ele>1596.57</ele>
  <time>2026-08-28T19:12:12Z</time>
  <course>152.47</course>
  <speed>0.0</speed>
  <fix>3d</fix>
</trkpt>
<trkpt lat="40.0728137" lon="-105.2306152">
  <ele>1596.66</ele>
  <time>2026-08-28T19:12:12Z</time>
  <course>350.94</course>
  <speed>0.022360679774997897</speed>
  <fix>3d</fix>
</trkpt>
<trkpt lat="40.0728138" lon="-105.2306155">
  <ele>1596.57</ele>
  <time>2026-08-28T19:12:12Z</time>
  <course>163.67</course>
  <speed>0.0</speed>
  <fix>3d</fix>
</trkpt>
<trkpt lat="40.0728137" lon="-105.2306152">
  <ele>1596.66</ele>
  <time>2026-08-28T19:12:12Z</time>
  <course>350.94</course>
  <speed>0.022360679774997897</speed>
  <fix>3d</fix>
</trkpt>
<trkpt lat="40.0728138" lon="-105.2306155">
  <ele>1596.57</ele>
  <time>2026-08-28T19:12:12Z</time>
  <course>177.81</course>
  <speed>0.0</speed>
  <fix>3d</fix>
</trkpt>
<trkpt lat="40.0728137" lon="-105.2306152">
  <ele>1596.66</ele>
  <time>2026-08-28T19:12:12Z</time>
  <course>350.94</course>
  <speed>0.022360679774997897</speed>
  <fix>3d</fix>
</trkpt>
<trkpt lat="40.0728138" lon="-105.2306155">
  <ele>1596.57</ele>
  <time>2026-08-28T19:12:12Z</time>
  <course>196.68</course>
  <speed>0.0</speed>
  <fix>3d</fix>
</trkpt>
<trkpt lat="40.0728137" lon="-105.2306152">
  <ele>1596.66</ele>
  <time>2026-08-28T19:12:12Z</time>
  <course>350.96</course>
  <speed>0.022360679774997897</speed>
  <fix>3d</fix>
</trkpt>
<trkpt lat="40.0728138" lon="-105.2306155">
  <ele>1596.57</ele>
  <time>2026-08-28T19:12:12Z</time>
  <course>214.35</course>
  <speed>0.0</speed>
  <fix>3d</fix>
</trkpt>
<trkpt lat="40.0728137" lon="-105.2306153">
  <ele>1596.66</ele>
  <time>2026-08-28T19:12:12Z</time>
  <course>350.98</course>
  <speed>0.022360679774997897</speed>
  <fix>3d</fix>
</trkpt>
<trkpt lat="40.0728138" lon="-105.2306155">
  <ele>1596.57</ele>
  <time>2026-08-28T19:12:12Z</time>
  <course>224.91</course>
  <speed>0.0</speed>
  <fix>3d</fix>
</trkpt>
<trkpt lat="40.0728137" lon="-105.2306153">
  <ele>1596.66</ele>
  <time>2026-08-28T19:12:12Z</time>
  <course>351.0</course>
  <speed>0.022360679774997897</speed>
  <fix>3d</fix>
</trkpt>
<trkpt lat="40.0728138" lon="-105.2306155">
  <ele>1596.57</ele>
  <time>2026-08-28T19:12:12Z</time>
  <course>232.37</course>
  <speed>0.0</speed>
  <fix>3d</fix>
</trkpt>
<trkpt lat="40.0728137" lon="-105.2306153">
  <ele>1596.67</ele>
  <time>2026-08-28T19:12:12Z</time>
  <course>351.01</course>
  <speed>0.022360679774997897</speed>
  <fix>3d</fix>
</trkpt>
<trkpt lat="40.0728138" lon="-105.2306155">
  <ele>1596.57</ele>
  <time>2026-08-28T19:12:12Z</time>
  <course>237.63</course>
  <speed>0.0</speed>
  <fix>3d</fix>
</trkpt>
<trkpt lat="40.0728137" lon="-105.2306153">
  <ele>1596.66</ele>
  <time>2026-08-28T19:12:12Z</time>
  <course>351.03</course>
  <speed>0.022360679774997897</speed>
  <fix>3d</fix>
</trkpt>
<trkpt lat="40.0728137" lon="-105.2306155">
  <ele>1596.56</ele>
  <time>2026-08-28T19:12:12Z</time>
  <course>240.77</course>
  <speed>0.0</speed>
  <fix>3d</fix>
</trkpt>
<trkpt lat="40.0728137" lon="-105.2306153">
  <ele>1596.66</ele>
  <time>2026-08-28T19:12:12Z</time>
  <course>351.04</course>
  <speed>0.022360679774997897</speed>
  <fix>3d</fix>
</trkpt>
<trkpt lat="40.0728137" lon="-105.2306155">
  <ele>1596.56</ele>
  <time>2026-08-28T19:12:12Z</time>
  <course>242.66</course>
  <speed>0.0</speed>
  <fix>3d</fix>
</trkpt>
<trkpt lat="40.0728137" lon="-105.2306153">
  <ele>1596.65</ele>
  <time>2026-08-28T19:12:12Z</time>
  <course>351.03</course>
  <speed>0.022360679774997897</speed>
  <fix>3d</fix>
</trkpt>
<trkpt lat="40.0728137" lon="-105.2306155">
  <ele>1596.56</ele>
  <time>2026-08-28T19:12:12Z</time>
  <course>244.1</course>
  <speed>0.0</speed>
  <fix>3d</fix>
</trkpt>
<trkpt lat="40.0728137" lon="-105.2306153">
  <ele>1596.65</ele>
  <time>2026-08-28T19:12:12Z</time>
  <course>351.01</course>
  <speed>0.022360679774997897</speed>
  <fix>3d</fix>
</trkpt>
<trkpt lat="40.0728137" lon="-105.2306155">
  <ele>1596.56</ele>
  <time>2026-08-28T19:12:12Z</time>
  <course>247.09</course>
  <speed>0.0</speed>
  <fix>3d</fix>
</trkpt>
<trkpt lat="40.0728137" lon="-105.2306153">
  <ele>1596.65</ele>
  <time>2026-08-28T19:12:12Z</time>
  <course>350.99</course>
  <speed>0.022360679774997897</speed>
  <fix>3d</fix>
</trkpt>
<trkpt lat="40.0728137" lon="-105.2306155">
  <ele>1596.55</ele>
  <time>2026-08-28T19:12:12Z</time>
  <course>253.81</course>
  <speed>0.0</speed>
  <fix>3d</fix>
</trkpt>
<trkpt lat="40.0728137" lon="-105.2306153">
  <ele>1596.65</ele>
  <time>2026-08-28T19:12:12Z</time>
  <course>350.97</course>
  <speed>0.022360679774997897</speed>
  <fix>3d</fix>
</trkpt>
<trkpt lat="40.0728137" lon="-105.2306155">
  <ele>1596.55</ele>
  <time>2026-08-28T19:12:12Z</time>
  <course>262.05</course>
  <speed>0.0</speed>
  <fix>3d</fix>
</trkpt>
<trkpt lat="40.0728137" lon="-105.2306153">
  <ele>1596.65</ele>
  <time>2026-08-28T19:12:12Z</time>
  <course>350.97</course>
  <speed>0.022360679774997897</speed>
  <fix>3d</fix>
</trkpt>
<trkpt lat="40.0728137" lon="-105.2306155">
  <ele>1596.55</ele>
  <time>2026-08-28T19:12:12Z</time>
  <course>267.84</course>
  <speed>0.0</speed>
  <fix>3d</fix>
</trkpt>
<trkpt lat="40.0728137" lon="-105.2306153">
  <ele>1596.65</ele>
  <time>2026-08-28T19:12:12Z</time>
  <course>350.96</course>
  <speed>0.022360679774997897</speed>
  <fix>3d</fix>
</trkpt>
<trkpt lat="40.0728137" lon="-105.2306155">
  <ele>1596.55</ele>
  <time>2026-08-28T19:12:12Z</time>
  <course>271.73</course>
  <speed>0.0</speed>
  <fix>3d</fix>
</trkpt>
<trkpt lat="40.0728137" lon="-105.2306153">
  <ele>1596.65</ele>
  <time>2026-08-28T19:12:12Z</time>
  <course>350.95</course>
  <speed>0.022360679774997897</speed>
  <fix>3d</fix>
</trkpt>
<trkpt lat="40.0728137" lon="-105.2306156">
  <ele>1596.55</ele>
  <time>2026-08-28T19:12:12Z</time>
  <course>276.01</course>
  <speed>0.0</speed>
  <fix>3d</fix>
</trkpt>
<trkpt lat="40.0728137" lon="-105.2306153">
  <ele>1596.64</ele>
  <time>2026-08-28T19:12:12Z</time>
  <course>350.95</course>
  <speed>0.022360679774997897</speed>
  <fix>3d</fix>
</trkpt>
<trkpt lat="40.0728137" lon="-105.2306157">
  <ele>1596.55</ele>
  <time>2026-08-28T19:12:12Z</time>
  <course>279.59</course>
  <speed>0.0</speed>
  <fix>3d</fix>
</trkpt>
<trkpt lat="40.0728137" lon="-105.2306153">
  <ele>1596.64</ele>
  <time>2026-08-28T19:12:12Z</time>
  <course>350.94</course>
  <speed>0.022360679774997897</speed>
  <fix>3d</fix>
</trkpt>
<trkpt lat="40.0728137" lon="-105.2306157">
  <ele>1596.55</ele>
  <time>2026-08-28T19:12:12Z</time>
  <course>283.69</course>
  <speed>0.0</speed>
  <fix>3d</fix>
</trkpt>
<trkpt lat="40.0728137" lon="-105.2306153">
  <ele>1596.64</ele>
  <time>2026-08-28T19:12:12Z</time>
  <course>350.93</course>
  <speed>0.022360679774997897</speed>
  <fix>3d</fix>
</trkpt>
<trkpt lat="40.0728137" lon="-105.2306157">
  <ele>1596.55</ele>
  <time>2026-08-28T19:12:12Z</time>
  <course>289.27</course>
  <speed>0.0</speed>
  <fix>3d</fix>
</trkpt>
<trkpt lat="40.0728137" lon="-105.2306153">
  <ele>1596.64</ele>
  <time>2026-08-28T19:12:12Z</time>
  <course>350.9</course>
  <speed>0.022360679774997897</speed>
  <fix>3d</fix>
</trkpt>
<trkpt lat="40.0728137" lon="-105.2306157">
  <ele>1596.55</ele>
  <time>2026-08-28T19:12:12Z</time>
  <course>295.89</course>
  <speed>0.0</speed>
  <fix>3d</fix>
</trkpt>
<trkpt lat="40.0728137" lon="-105.2306153">
  <ele>1596.64</ele>
  <time>2026-08-28T19:12:12Z</time>
  <course>350.88</course>
  <speed>0.022360679774997897</speed>
  <fix>3d</fix>
</trkpt>
<trkpt lat="40.0728137" lon="-105.2306157">
  <ele>1596.55</ele>
  <time>2026-08-28T19:12:12Z</time>
  <course>304.56</course>
  <speed>0.0</speed>
  <fix>3d</fix>
</trkpt>
<trkpt lat="40.0728137" lon="-105.2306153">
  <ele>1596.64</ele>
  <time>2026-08-28T19:12:12Z</time>
  <course>350.89</course>
  <speed>0.022360679774997897</speed>
  <fix>3d</fix>
</trkpt>
<trkpt lat="40.0728137" lon="-105.2306157">
  <ele>1596.55</ele>
  <time>2026-08-28T19:12:12Z</time>
  <course>316.38</course>
  <speed>0.0</speed>
  <fix>3d</fix>
</trkpt>
<trkpt lat="40.0728137" lon="-105.2306153">
  <ele>1596.64</ele>
  <time>2026-08-28T19:12:12Z</time>
  <course>350.89</course>
  <speed>0.0316227766016838</speed>
  <fix>3d</fix>
</trkpt>
<trkpt lat="40.0728137" lon="-105.2306157">
  <ele>1596.56</ele>
  <time>2026-08-28T19:12:12Z</time>
  <course>335.22</course>
  <speed>0.0</speed>
  <fix>3d</fix>
</trkpt>
<trkpt lat="40.0728137" lon="-105.2306153">
  <ele>1596.65</ele>
  <time>2026-08-28T19:12:12Z</time>
  <course>350.89</course>
  <speed>0.0316227766016838</speed>
  <fix>3d</fix>
</trkpt>
<trkpt lat="40.0728137" lon="-105.2306157">
  <ele>1596.56</ele>
  <time>2026-08-28T19:12:12Z</time>
  <course>352.82</course>
  <speed>0.0</speed>
  <fix>3d</fix>
</trkpt>
<trkpt lat="40.0728137" lon="-105.2306153">
  <ele>1596.65</ele>
  <time>2026-08-28T19:12:12Z</time>
  <course>350.9</course>
  <speed>0.0316227766016838</speed>
  <fix>3d</fix>
</trkpt>
<trkpt lat="40.0728137" lon="-105.2306157">
  <ele>1596.56</ele>
  <time>2026-08-28T19:12:12Z</time>
  <course>4.84</course>
  <speed>0.0</speed>
  <fix>3d</fix>
</trkpt>
<trkpt lat="40.0728137" lon="-105.2306153">
  <ele>1596.65</ele>
  <time>2026-08-28T19:12:12Z</time>
  <course>350.91</course>
  <speed>0.0316227766016838</speed>
  <fix>3d</fix>
</trkpt>
<trkpt lat="40.0728137" lon="-105.2306157">
  <ele>1596.56</ele>
  <time>2026-08-28T19:12:12Z</time>
  <course>14.78</course>
  <speed>0.0</speed>
  <fix>3d</fix>
</trkpt>
<trkpt lat="40.0728137" lon="-105.2306153">
  <ele>1596.65</ele>
  <time>2026-08-28T19:12:12Z</time>
  <course>350.91</course>
  <speed>0.0316227766016838</speed>
  <fix>3d</fix>
</trkpt>
<trkpt lat="40.0728137" lon="-105.2306157">
  <ele>1596.56</ele>
  <time>2026-08-28T19:12:12Z</time>
  <course>23.29</course>
  <speed>0.0</speed>
  <fix>3d</fix>
</trkpt>
<trkpt lat="40.0728137" lon="-105.2306153">
  <ele>1596.65</ele>
  <time>2026-08-28T19:12:12Z</time>
  <course>350.92</course>
  <speed>0.0316227766016838</speed>
  <fix>3d</fix>
</trkpt>
<trkpt lat="40.0728137" lon="-105.2306157">
  <ele>1596.57</ele>
  <time>2026-08-28T19:12:12Z</time>
  <course>30.28</course>
  <speed>0.0</speed>
  <fix>3d</fix>
</trkpt>
<trkpt lat="40.0728137" lon="-105.2306153">
  <ele>1596.65</ele>
  <time>2026-08-28T19:12:12Z</time>
  <course>350.92</course>
  <speed>0.0316227766016838</speed>
  <fix>3d</fix>
</trkpt>
<trkpt lat="40.0728137" lon="-105.2306157">
  <ele>1596.57</ele>
  <time>2026-08-28T19:12:12Z</time>
  <course>35.69</course>
  <speed>0.0</speed>
  <fix>3d</fix>
</trkpt>
<trkpt lat="40.0728137" lon="-105.2306153">
  <ele>1596.66</ele>
  <time>2026-08-28T19:12:12Z</time>
  <course>350.92</course>
  <speed>0.0316227766016838</speed>
  <fix>3d</fix>
</trkpt>
<trkpt lat="40.0728137" lon="-105.2306157">
  <ele>1596.57</ele>
  <time>2026-08-28T19:12:12Z</time>
  <course>39.83</course>
  <speed>0.0</speed>
  <fix>3d</fix>
</trkpt>
<trkpt lat="40.0728137" lon="-105.2306153">
  <ele>1596.66</ele>
  <time>2026-08-28T19:12:12Z</time>
  <course>350.93</course>
  <speed>0.0316227766016838</speed>
  <fix>3d</fix>
</trkpt>
<trkpt lat="40.0728137" lon="-105.2306157">
  <ele>1596.57</ele>
  <time>2026-08-28T19:12:12Z</time>
  <course>43.06</course>
  <speed>0.0</speed>
  <fix>3d</fix>
</trkpt>
<trkpt lat="40.0728137" lon="-105.2306153">
  <ele>1596.66</ele>
  <time>2026-08-28T19:12:12Z</time>
  <course>350.94</course>
  <speed>0.0316227766016838</speed>
  <fix>3d</fix>
</trkpt>
<trkpt lat="40.0728137" lon="-105.2306157">
  <ele>1596.57</ele>
  <time>2026-08-28T19:12:12Z</time>
  <course>43.17</course>
  <speed>0.0</speed>
  <fix>3d</fix>
</trkpt>
<trkpt lat="40.0728137" lon="-105.2306153">
  <ele>1596.66</ele>
  <time>2026-08-28T19:12:12Z</time>
  <course>350.95</course>
  <speed>0.0316227766016838</speed>
  <fix>3d</fix>
</trkpt>
<trkpt lat="40.0728137" lon="-105.2306157">
  <ele>1596.57</ele>
  <time>2026-08-28T19:12:12Z</time>
  <course>41.31</course>
  <speed>0.0</speed>
  <fix>3d</fix>
</trkpt>
<trkpt lat="40.0728137" lon="-105.2306153">
  <ele>1596.65</ele>
  <time>2026-08-28T19:12:12Z</time>
  <course>350.95</course>
  <speed>0.0316227766016838</speed>
  <fix>3d</fix>
</trkpt>
<trkpt lat="40.0728137" lon="-105.2306157">
  <ele>1596.56</ele>
  <time>2026-08-28T19:12:12Z</time>
  <course>40.97</course>
  <speed>0.0</speed>
  <fix>3d</fix>
</trkpt>
<trkpt lat="40.0728137" lon="-105.2306153">
  <ele>1596.65</ele>
  <time>2026-08-28T19:12:12Z</time>
  <course>350.94</course>
  <speed>0.0316227766016838</speed>
  <fix>3d</fix>
</trkpt>
<trkpt lat="40.0728137" lon="-105.2306157">
  <ele>1596.56</ele>
  <time>2026-08-28T19:12:12Z</time>
  <course>41.16</course>
  <speed>0.0</speed>
  <fix>3d</fix>
</trkpt>
<trkpt lat="40.0728137" lon="-105.2306153">
  <ele>1596.64</ele>
  <time>2026-08-28T19:12:12Z</time>
  <course>350.94</course>
  <speed>0.0316227766016838</speed>
  <fix>3d</fix>
</trkpt>
<trkpt lat="40.0728138" lon="-105.2306157">
  <ele>1596.56</ele>
  <time>2026-08-28T19:12:12Z</time>
  <course>41.31</course>
  <speed>0.0</speed>
  <fix>3d</fix>
</trkpt>
<trkpt lat="40.0728137" lon="-105.2306153">
  <ele>1596.64</ele>
  <time>2026-08-28T19:12:12Z</time>
  <course>350.94</course>
  <speed>0.0316227766016838</speed>
  <fix>3d</fix>
</trkpt>
<trkpt lat="40.0728138" lon="-105.2306157">
  <ele>1596.56</ele>
  <time>2026-08-28T19:12:12Z</time>
  <course>41.46</course>
  <speed>0.0</speed>
  <fix>3d</fix>
</trkpt>
<trkpt lat="40.0728137" lon="-105.2306153">
  <ele>1596.64</ele>
  <time>2026-08-28T19:12:12Z</time>
  <course>350.92</course>
  <speed>0.0316227766016838</speed>
  <fix>3d</fix>
</trkpt>
<trkpt lat="40.0728138" lon="-105.2306157">
  <ele>1596.56</ele>
  <time>2026-08-28T19:12:12Z</time>
  <course>41.52</course>
  <speed>0.0</speed>
  <fix>3d</fix>
</trkpt>
<trkpt lat="40.0728137" lon="-105.2306153">
  <ele>1596.64</ele>
  <time>2026-08-28T19:12:12Z</time>
  <course>350.89</course>
  <speed>0.0316227766016838</speed>
  <fix>3d</fix>
</trkpt>
<trkpt lat="40.0728138" lon="-105.2306157">
  <ele>1596.56</ele>
  <time>2026-08-28T19:12:12Z</time>
  <course>43.86</course>
  <speed>0.0</speed>
  <fix>3d</fix>
</trkpt>
<trkpt lat="40.0728137" lon="-105.2306153">
  <ele>1596.64</ele>
  <time>2026-08-28T19:12:12Z</time>
  <course>350.88</course>
  <speed>0.0316227766016838</speed>
  <fix>3d</fix>
</trkpt>
<trkpt lat="40.0728138" lon="-105.2306157">
  <ele>1596.56</ele>
  <time>2026-08-28T19:12:12Z</time>
  <course>52.92</course>
  <speed>0.0</speed>
  <fix>3d</fix>
</trkpt>
<trkpt lat="40.0728137" lon="-105.2306153">
  <ele>1596.65</ele>
  <time>2026-08-28T19:12:12Z</time>
  <course>350.87</course>
  <speed>0.0316227766016838</speed>
  <fix>3d</fix>
</trkpt>
<trkpt lat="40.0728138" lon="-105.2306157">
  <ele>1596.56</ele>
  <time>2026-08-28T19:12:12Z</time>
  <course>66.4</course>
  <speed>0.0</speed>
  <fix>3d</fix>
</trkpt>
<trkpt lat="40.0728137" lon="-105.2306153">
  <ele>1596.65</ele>
  <time>2026-08-28T19:12:12Z</time>
  <course>350.87</course>
  <speed>0.0316227766016838</speed>
  <fix>3d</fix>
</trkpt>
<trkpt lat="40.0728138" lon="-105.2306157">
  <ele>1596.57</ele>
  <time>2026-08-28T19:12:12Z</time>
  <course>79.41</course>
  <speed>0.0</speed>
  <fix>3d</fix>
</trkpt>
<trkpt lat="40.0728137" lon="-105.2306153">
  <ele>1596.65</ele>
  <time>2026-08-28T19:12:12Z</time>
  <course>350.88</course>
  <speed>0.0316227766016838</speed>
  <fix>3d</fix>
</trkpt>
<trkpt lat="40.0728138" lon="-105.2306156">
  <ele>1596.57</ele>
  <time>2026-08-28T19:12:12Z</time>
  <course>92.79</course>
  <speed>0.0</speed>
  <fix>3d</fix>
</trkpt>
<trkpt lat="40.0728137" lon="-105.2306153">
  <ele>1596.65</ele>
  <time>2026-08-28T19:12:12Z</time>
  <course>350.9</course>
  <speed>0.0316227766016838</speed>
  <fix>3d</fix>
</trkpt>
<trkpt lat="40.0728138" lon="-105.2306155">
  <ele>1596.57</ele>
  <time>2026-08-28T19:12:12Z</time>
  <course>104.57</course>
  <speed>0.0</speed>
  <fix>3d</fix>
</trkpt>
<trkpt lat="40.0728137" lon="-105.2306153">
  <ele>1596.65</ele>
  <time>2026-08-28T19:12:12Z</time>
  <course>350.9</course>
  <speed>0.0316227766016838</speed>
  <fix>3d</fix>
</trkpt>
<trkpt lat="40.0728138" lon="-105.2306155">
  <ele>1596.57</ele>
  <time>2026-08-28T19:12:12Z</time>
  <course>113.26</course>
  <speed>0.0</speed>
  <fix>3d</fix>
</trkpt>
<trkpt lat="40.0728137" lon="-105.2306153">
  <ele>1596.66</ele>
  <time>2026-08-28T19:12:12Z</time>
  <course>350.92</course>
  <speed>0.0316227766016838</speed>
  <fix>3d</fix>
</trkpt>
<trkpt lat="40.0728138" lon="-105.2306155">
  <ele>1596.57</ele>
  <time>2026-08-28T19:12:12Z</time>
  <course>118.04</course>
  <speed>0.0</speed>
  <fix>3d</fix>
</trkpt>
<trkpt lat="40.0728137" lon="-105.2306153">
  <ele>1596.66</ele>
  <time>2026-08-28T19:12:12Z</time>
  <course>350.92</course>
  <speed>0.0316227766016838</speed>
  <fix>3d</fix>
</trkpt>
<trkpt lat="40.0728138" lon="-105.2306155">
  <ele>1596.57</ele>
  <time>2026-08-28T19:12:12Z</time>
  <course>120.76</course>
  <speed>0.0</speed>
  <fix>3d</fix>
</trkpt>
<trkpt lat="40.0728137" lon="-105.2306153">
  <ele>1596.66</ele>
  <time>2026-08-28T19:12:12Z</time>
  <course>350.93</course>
  <speed>0.0316227766016838</speed>
  <fix>3d</fix>
</trkpt>
<trkpt lat="40.0728138" lon="-105.2306155">
  <ele>1596.57</ele>
  <time>2026-08-28T19:12:12Z</time>
  <course>123.23</course>
  <speed>0.0</speed>
  <fix>3d</fix>
</trkpt>
<trkpt lat="40.0728137" lon="-105.2306153">
  <ele>1596.67</ele>
  <time>2026-08-28T19:12:13Z</time>
  <course>350.95</course>
  <speed>0.022360679774997897</speed>
  <fix>3d</fix>
</trkpt>
<trkpt lat="40.0728138" lon="-105.2306155">
  <ele>1596.57</ele>
  <time>2026-08-28T19:12:13Z</time>
  <course>127.28</course>
  <speed>0.0</speed>
  <fix>3d</fix>
</trkpt>
<trkpt lat="40.0728137" lon="-105.2306153">
  <ele>1596.66</ele>
  <time>2026-08-28T19:12:13Z</time>
  <course>350.96</course>
  <speed>0.022360679774997897</speed>
  <fix>3d</fix>
</trkpt>
<trkpt lat="40.0728138" lon="-105.2306155">
  <ele>1596.57</ele>
  <time>2026-08-28T19:12:13Z</time>
  <course>140.82</course>
  <speed>0.0</speed>
  <fix>3d</fix>
</trkpt>
<trkpt lat="40.0728137" lon="-105.2306153">
  <ele>1596.66</ele>
  <time>2026-08-28T19:12:13Z</time>
  <course>350.96</course>
  <speed>0.022360679774997897</speed>
  <fix>3d</fix>
</trkpt>
<trkpt lat="40.0728138" lon="-105.2306155">
  <ele>1596.57</ele>
  <time>2026-08-28T19:12:13Z</time>
  <course>165.63</course>
  <speed>0.0</speed>
  <fix>3d</fix>
</trkpt>
<trkpt lat="40.0728137" lon="-105.2306153">
  <ele>1596.66</ele>
  <time>2026-08-28T19:12:13Z</time>
  <course>350.96</course>
  <speed>0.022360679774997897</speed>
  <fix>3d</fix>
</trkpt>
<trkpt lat="40.0728138" lon="-105.2306155">
  <ele>1596.56</ele>
  <time>2026-08-28T19:12:13Z</time>
  <course>184.46</course>
  <speed>0.0</speed>
  <fix>3d</fix>
</trkpt>
<trkpt lat="40.0728137" lon="-105.2306153">
  <ele>1596.65</ele>
  <time>2026-08-28T19:12:13Z</time>
  <course>350.96</course>
  <speed>0.022360679774997897</speed>
  <fix>3d</fix>
</trkpt>
<trkpt lat="40.0728138" lon="-105.2306155">
  <ele>1596.56</ele>
  <time>2026-08-28T19:12:13Z</time>
  <course>200.04</course>
  <speed>0.0</speed>
  <fix>3d</fix>
</trkpt>
<trkpt lat="40.0728137" lon="-105.2306153">
  <ele>1596.65</ele>
  <time>2026-08-28T19:12:13Z</time>
  <course>350.96</course>
  <speed>0.022360679774997897</speed>
  <fix>3d</fix>
</trkpt>
<trkpt lat="40.0728138" lon="-105.2306155">
  <ele>1596.56</ele>
  <time>2026-08-28T19:12:13Z</time>
  <course>214.61</course>
  <speed>0.0</speed>
  <fix>3d</fix>
</trkpt>
<trkpt lat="40.0728137" lon="-105.2306153">
  <ele>1596.65</ele>
  <time>2026-08-28T19:12:13Z</time>
  <course>350.95</course>
  <speed>0.022360679774997897</speed>
  <fix>3d</fix>
</trkpt>
<trkpt lat="40.0728138" lon="-105.2306155">
  <ele>1596.56</ele>
  <time>2026-08-28T19:12:13Z</time>
  <course>224.7</course>
  <speed>0.0</speed>
  <fix>3d</fix>
</trkpt>
<trkpt lat="40.0728137" lon="-105.2306153">
  <ele>1596.65</ele>
  <time>2026-08-28T19:12:13Z</time>
  <course>350.95</course>
  <speed>0.022360679774997897</speed>
  <fix>3d</fix>
</trkpt>
<trkpt lat="40.0728138" lon="-105.2306155">
  <ele>1596.56</ele>
  <time>2026-08-28T19:12:13Z</time>
  <course>233.05</course>
  <speed>0.0</speed>
  <fix>3d</fix>
</trkpt>
<trkpt lat="40.0728137" lon="-105.2306153">
  <ele>1596.65</ele>
  <time>2026-08-28T19:12:13Z</time>
  <course>350.96</course>
  <speed>0.022360679774997897</speed>
  <fix>3d</fix>
</trkpt>
<trkpt lat="40.0728138" lon="-105.2306155">
  <ele>1596.56</ele>
  <time>2026-08-28T19:12:13Z</time>
  <course>238.35</course>
  <speed>0.0</speed>
  <fix>3d</fix>
</trkpt>
<trkpt lat="40.0728137" lon="-105.2306153">
  <ele>1596.65</ele>
  <time>2026-08-28T19:12:13Z</time>
  <course>350.96</course>
  <speed>0.022360679774997897</speed>
  <fix>3d</fix>
</trkpt>
<trkpt lat="40.0728138" lon="-105.2306155">
  <ele>1596.56</ele>
  <time>2026-08-28T19:12:13Z</time>
  <course>238.19</course>
  <speed>0.0</speed>
  <fix>3d</fix>
</trkpt>
<trkpt lat="40.0728137" lon="-105.2306153">
  <ele>1596.65</ele>
  <time>2026-08-28T19:12:13Z</time>
  <course>350.96</course>
  <speed>0.022360679774997897</speed>
  <fix>3d</fix>
</trkpt>
<trkpt lat="40.0728138" lon="-105.2306155">
  <ele>1596.56</ele>
  <time>2026-08-28T19:12:13Z</time>
  <course>235.7</course>
  <speed>0.0</speed>
  <fix>3d</fix>
</trkpt>
<trkpt lat="40.0728137" lon="-105.2306153">
  <ele>1596.65</ele>
  <time>2026-08-28T19:12:13Z</time>
  <course>350.95</course>
  <speed>0.022360679774997897</speed>
  <fix>3d</fix>
</trkpt>
<trkpt lat="40.0728138" lon="-105.2306155">
  <ele>1596.56</ele>
  <time>2026-08-28T19:12:13Z</time>
  <course>233.58</course>
  <speed>0.0</speed>
  <fix>3d</fix>
</trkpt>
<trkpt lat="40.0728137" lon="-105.2306153">
  <ele>1596.66</ele>
  <time>2026-08-28T19:12:13Z</time>
  <course>350.95</course>
  <speed>0.022360679774997897</speed>
  <fix>3d</fix>
</trkpt>
<trkpt lat="40.0728138" lon="-105.2306155">
  <ele>1596.56</ele>
  <time>2026-08-28T19:12:13Z</time>
  <course>231.23</course>
  <speed>0.0</speed>
  <fix>3d</fix>
</trkpt>
<trkpt lat="40.0728137" lon="-105.2306153">
  <ele>1596.66</ele>
  <time>2026-08-28T19:12:13Z</time>
  <course>350.96</course>
  <speed>0.022360679774997897</speed>
  <fix>3d</fix>
</trkpt>
<trkpt lat="40.0728138" lon="-105.2306155">
  <ele>1596.56</ele>
  <time>2026-08-28T19:12:13Z</time>
  <course>229.32</course>
  <speed>0.0</speed>
  <fix>3d</fix>
</trkpt>
<trkpt lat="40.0728137" lon="-105.2306153">
  <ele>1596.66</ele>
  <time>2026-08-28T19:12:13Z</time>
  <course>350.96</course>
  <speed>0.022360679774997897</speed>
  <fix>3d</fix>
</trkpt>
<trkpt lat="40.0728138" lon="-105.2306155">
  <ele>1596.56</ele>
  <time>2026-08-28T19:12:13Z</time>
  <course>227.63</course>
  <speed>0.0</speed>
  <fix>3d</fix>
</trkpt>
<trkpt lat="40.0728137" lon="-105.2306153">
  <ele>1596.66</ele>
  <time>2026-08-28T19:12:13Z</time>
  <course>350.96</course>
  <speed>0.022360679774997897</speed>
  <fix>3d</fix>
</trkpt>
<trkpt lat="40.0728138" lon="-105.2306155">
  <ele>1596.56</ele>
  <time>2026-08-28T19:12:13Z</time>
  <course>226.39</course>
  <speed>0.0</speed>
  <fix>3d</fix>
</trkpt>
<trkpt lat="40.0728137" lon="-105.2306153">
  <ele>1596.65</ele>
  <time>2026-08-28T19:12:13Z</time>
  <course>350.95</course>
  <speed>0.022360679774997897</speed>
  <fix>3d</fix>
</trkpt>
<trkpt lat="40.0728138" lon="-105.2306155">
  <ele>1596.55</ele>
  <time>2026-08-28T19:12:13Z</time>
  <course>226.49</course>
  <speed>0.0</speed>
  <fix>3d</fix>
</trkpt>
<trkpt lat="40.0728137" lon="-105.2306153">
  <ele>1596.65</ele>
  <time>2026-08-28T19:12:13Z</time>
  <course>350.96</course>
  <speed>0.022360679774997897</speed>
  <fix>3d</fix>
</trkpt>
<trkpt lat="40.0728138" lon="-105.2306155">
  <ele>1596.55</ele>
  <time>2026-08-28T19:12:13Z</time>
  <course>225.72</course>
  <speed>0.0</speed>
  <fix>3d</fix>
</trkpt>
<trkpt lat="40.0728137" lon="-105.2306153">
  <ele>1596.65</ele>
  <time>2026-08-28T19:12:13Z</time>
  <course>350.95</course>
  <speed>0.022360679774997897</speed>
  <fix>3d</fix>
</trkpt>
<trkpt lat="40.0728138" lon="-105.2306155">
  <ele>1596.55</ele>
  <time>2026-08-28T19:12:13Z</time>
  <course>222.03</course>
  <speed>0.0</speed>
  <fix>3d</fix>
</trkpt>
<trkpt lat="40.0728137" lon="-105.2306153">
  <ele>1596.64</ele>
  <time>2026-08-28T19:12:13Z</time>
  <course>350.94</course>
  <speed>0.022360679774997897</speed>
  <fix>3d</fix>
</trkpt>
<trkpt lat="40.0728138" lon="-105.2306155">
  <ele>1596.55</ele>
  <time>2026-08-28T19:12:13Z</time>
  <course>216.5</course>
  <speed>0.0</speed>
  <fix>3d</fix>
</trkpt>
<trkpt lat="40.0728137" lon="-105.2306153">
  <ele>1596.64</ele>
  <time>2026-08-28T19:12:13Z</time>
  <course>350.93</course>
  <speed>0.022360679774997897</speed>
  <fix>3d</fix>
</trkpt>
<trkpt lat="40.0728138" lon="-105.2306155">
  <ele>1596.55</ele>
  <time>2026-08-28T19:12:13Z</time>
  <course>210.55</course>
  <speed>0.0</speed>
  <fix>3d</fix>
</trkpt>
<trkpt lat="40.0728137" lon="-105.2306153">
  <ele>1596.64</ele>
  <time>2026-08-28T19:12:13Z</time>
  <course>350.9</course>
  <speed>0.022360679774997897</speed>
  <fix>3d</fix>
</trkpt>
<trkpt lat="40.0728138" lon="-105.2306155">
  <ele>1596.55</ele>
  <time>2026-08-28T19:12:13Z</time>
  <course>205.95</course>
  <speed>0.0</speed>
  <fix>3d</fix>
</trkpt>
<trkpt lat="40.0728137" lon="-105.2306153">
  <ele>1596.64</ele>
  <time>2026-08-28T19:12:13Z</time>
  <course>350.88</course>
  <speed>0.022360679774997897</speed>
  <fix>3d</fix>
</trkpt>
<trkpt lat="40.0728137" lon="-105.2306155">
  <ele>1596.55</ele>
  <time>2026-08-28T19:12:13Z</time>
  <course>209.09</course>
  <speed>0.0</speed>
  <fix>3d</fix>
</trkpt>
<trkpt lat="40.0728137" lon="-105.2306153">
  <ele>1596.64</ele>
  <time>2026-08-28T19:12:13Z</time>
  <course>350.87</course>
  <speed>0.022360679774997897</speed>
  <fix>3d</fix>
</trkpt>
<trkpt lat="40.0728137" lon="-105.2306155">
  <ele>1596.55</ele>
  <time>2026-08-28T19:12:13Z</time>
  <course>218.27</course>
  <speed>0.0</speed>
  <fix>3d</fix>
</trkpt>
<trkpt lat="40.0728137" lon="-105.2306153">
  <ele>1596.64</ele>
  <time>2026-08-28T19:12:13Z</time>
  <course>350.86</course>
  <speed>0.022360679774997897</speed>
  <fix>3d</fix>
</trkpt>
<trkpt lat="40.0728137" lon="-105.2306155">
  <ele>1596.56</ele>
  <time>2026-08-28T19:12:13Z</time>
  <course>224.92</course>
  <speed>0.0</speed>
  <fix>3d</fix>
</trkpt>
<trkpt lat="40.0728137" lon="-105.2306153">
  <ele>1596.64</ele>
  <time>2026-08-28T19:12:13Z</time>
  <course>350.86</course>
  <speed>0.022360679774997897</speed>
  <fix>3d</fix>
</trkpt>
<trkpt lat="40.0728137" lon="-105.2306155">
  <ele>1596.56</ele>
  <time>2026-08-28T19:12:13Z</time>
  <course>229.9</course>
  <speed>0.0</speed>
  <fix>3d</fix>
</trkpt>
<trkpt lat="40.0728137" lon="-105.2306153">
  <ele>1596.65</ele>
  <time>2026-08-28T19:12:13Z</time>
  <course>350.85</course>
  <speed>0.022360679774997897</speed>
  <fix>3d</fix>
</trkpt>
<trkpt lat="40.0728137" lon="-105.2306156">
  <ele>1596.56</ele>
  <time>2026-08-28T19:12:13Z</time>
  <course>237.49</course>
  <speed>0.0</speed>
  <fix>3d</fix>
</trkpt>
<trkpt lat="40.0728137" lon="-105.2306153">
  <ele>1596.65</ele>
  <time>2026-08-28T19:12:13Z</time>
  <course>350.85</course>
  <speed>0.022360679774997897</speed>
  <fix>3d</fix>
</trkpt>
<trkpt lat="40.0728137" lon="-105.2306157">
  <ele>1596.56</ele>
  <time>2026-08-28T19:12:13Z</time>
  <course>251.03</course>
  <speed>0.0</speed>
  <fix>3d</fix>
</trkpt>
<trkpt lat="40.0728137" lon="-105.2306153">
  <ele>1596.65</ele>
  <time>2026-08-28T19:12:13Z</time>
  <course>350.85</course>
  <speed>0.022360679774997897</speed>
  <fix>3d</fix>
</trkpt>
<trkpt lat="40.0728137" lon="-105.2306157">
  <ele>1596.56</ele>
  <time>2026-08-28T19:12:13Z</time>
  <course>266.28</course>
  <speed>0.0</speed>
  <fix>3d</fix>
</trkpt>
<trkpt lat="40.0728137" lon="-105.2306153">
  <ele>1596.65</ele>
  <time>2026-08-28T19:12:13Z</time>
  <course>350.85</course>
  <speed>0.022360679774997897</speed>
  <fix>3d</fix>
</trkpt>
<trkpt lat="40.0728137" lon="-105.2306157">
  <ele>1596.56</ele>
  <time>2026-08-28T19:12:13Z</time>
  <course>277.1</course>
  <speed>0.0</speed>
  <fix>3d</fix>
</trkpt>
<trkpt lat="40.0728137" lon="-105.2306153">
  <ele>1596.65</ele>
  <time>2026-08-28T19:12:13Z</time>
  <course>350.86</course>
  <speed>0.022360679774997897</speed>
  <fix>3d</fix>
</trkpt>
<trkpt lat="40.0728137" lon="-105.2306157">
  <ele>1596.57</ele>
  <time>2026-08-28T19:12:13Z</time>
  <course>286.54</course>
  <speed>0.0</speed>
  <fix>3d</fix>
</trkpt>
<trkpt lat="40.0728137" lon="-105.2306153">
  <ele>1596.65</ele>
  <time>2026-08-28T19:12:13Z</time>
  <course>350.87</course>
  <speed>0.022360679774997897</speed>
  <fix>3d</fix>
</trkpt>
<trkpt lat="40.0728137" lon="-105.2306157">
  <ele>1596.57</ele>
  <time>2026-08-28T19:12:13Z</time>
  <course>296.9</course>
  <speed>0.0</speed>
  <fix>3d</fix>
</trkpt>
<trkpt lat="40.0728137" lon="-105.2306153">
  <ele>1596.65</ele>
  <time>2026-08-28T19:12:13Z</time>
  <course>350.86</course>
  <speed>0.022360679774997897</speed>
  <fix>3d</fix>
</trkpt>
<trkpt lat="40.0728137" lon="-105.2306157">
  <ele>1596.57</ele>
  <time>2026-08-28T19:12:13Z</time>
  <course>308.32</course>
  <speed>0.0</speed>
  <fix>3d</fix>
</trkpt>
<trkpt lat="40.0728137" lon="-105.2306153">
  <ele>1596.64</ele>
  <time>2026-08-28T19:12:13Z</time>
  <course>350.86</course>
  <speed>0.022360679774997897</speed>
  <fix>3d</fix>
</trkpt>
<trkpt lat="40.0728137" lon="-105.2306157">
  <ele>1596.57</ele>
  <time>2026-08-28T19:12:13Z</time>
  <course>326.24</course>
  <speed>0.0</speed>
  <fix>3d</fix>
</trkpt>
<trkpt lat="40.0728137" lon="-105.2306153">
  <ele>1596.64</ele>
  <time>2026-08-28T19:12:13Z</time>
  <course>350.86</course>
  <speed>0.022360679774997897</speed>
  <fix>3d</fix>
</trkpt>
<trkpt lat="40.0728137" lon="-105.2306157">
  <ele>1596.57</ele>
  <time>2026-08-28T19:12:13Z</time>
  <course>356.83</course>
  <speed>0.0</speed>
  <fix>3d</fix>
</trkpt>
<trkpt lat="40.0728137" lon="-105.2306153">
  <ele>1596.64</ele>
  <time>2026-08-28T19:12:13Z</time>
  <course>350.85</course>
  <speed>0.0316227766016838</speed>
  <fix>3d</fix>
</trkpt>
<trkpt lat="40.0728137" lon="-105.2306157">
  <ele>1596.57</ele>
  <time>2026-08-28T19:12:13Z</time>
  <course>24.55</course>
  <speed>0.0</speed>
  <fix>3d</fix>
</trkpt>
<trkpt lat="40.0728137" lon="-105.2306153">
  <ele>1596.64</ele>
  <time>2026-08-28T19:12:13Z</time>
  <course>350.84</course>
  <speed>0.0316227766016838</speed>
  <fix>3d</fix>
</trkpt>
<trkpt lat="40.0728137" lon="-105.2306157">
  <ele>1596.57</ele>
  <time>2026-08-28T19:12:13Z</time>
  <course>40.85</course>
  <speed>0.0</speed>
  <fix>3d</fix>
</trkpt>
<trkpt lat="40.0728137" lon="-105.2306153">
  <ele>1596.63</ele>
  <time>2026-08-28T19:12:13Z</time>
  <course>350.84</course>
  <speed>0.0316227766016838</speed>
  <fix>3d</fix>
</trkpt>
<trkpt lat="40.0728137" lon="-105.2306157">
  <ele>1596.57</ele>
  <time>2026-08-28T19:12:13Z</time>
  <course>49.75</course>
  <speed>0.0</speed>
  <fix>3d</fix>
</trkpt>
<trkpt lat="40.0728137" lon="-105.2306153">
  <ele>1596.63</ele>
  <time>2026-08-28T19:12:13Z</time>
  <course>350.82</course>
  <speed>0.0316227766016838</speed>
  <fix>3d</fix>
</trkpt>
<trkpt lat="40.0728137" lon="-105.2306157">
  <ele>1596.57</ele>
  <time>2026-08-28T19:12:13Z</time>
  <course>54.94</course>
  <speed>0.0</speed>
  <fix>3d</fix>
</trkpt>
<trkpt lat="40.0728137" lon="-105.2306153">
  <ele>1596.64</ele>
  <time>2026-08-28T19:12:13Z</time>
  <course>350.81</course>
  <speed>0.0316227766016838</speed>
  <fix>3d</fix>
</trkpt>
<trkpt lat="40.0728137" lon="-105.2306157">
  <ele>1596.58</ele>
  <time>2026-08-28T19:12:13Z</time>
  <course>58.3</course>
  <speed>0.0</speed>
  <fix>3d</fix>
</trkpt>
<trkpt lat="40.0728137" lon="-105.2306153">
  <ele>1596.64</ele>
  <time>2026-08-28T19:12:13Z</time>
  <course>350.82</course>
  <speed>0.0316227766016838</speed>
  <fix>3d</fix>
</trkpt>
<trkpt lat="40.0728137" lon="-105.2306157">
  <ele>1596.58</ele>
  <time>2026-08-28T19:12:13Z</time>
  <course>59.52</course>
  <speed>0.0</speed>
  <fix>3d</fix>
</trkpt>
<trkpt lat="40.0728137" lon="-105.2306153">
  <ele>1596.64</ele>
  <time>2026-08-28T19:12:13Z</time>
  <course>350.83</course>
  <speed>0.0316227766016838</speed>
  <fix>3d</fix>
</trkpt>
<trkpt lat="40.0728137" lon="-105.2306157">
  <ele>1596.58</ele>
  <time>2026-08-28T19:12:13Z</time>
  <course>60.37</course>
  <speed>0.0</speed>
  <fix>3d</fix>
</trkpt>
<trkpt lat="40.0728137" lon="-105.2306153">
  <ele>1596.65</ele>
  <time>2026-08-28T19:12:13Z</time>
  <course>350.83</course>
  <speed>0.0316227766016838</speed>
  <fix>3d</fix>
</trkpt>
<trkpt lat="40.0728137" lon="-105.2306157">
  <ele>1596.59</ele>
  <time>2026-08-28T19:12:13Z</time>
  <course>63.76</course>
  <speed>0.0</speed>
  <fix>3d</fix>
</trkpt>
<trkpt lat="40.0728137" lon="-105.2306153">
  <ele>1596.65</ele>
  <time>2026-08-28T19:12:13Z</time>
  <course>350.84</course>
  <speed>0.0316227766016838</speed>
  <fix>3d</fix>
</trkpt>
<trkpt lat="40.0728137" lon="-105.2306157">
  <ele>1596.59</ele>
  <time>2026-08-28T19:12:13Z</time>
  <course>66.59</course>
  <speed>0.0</speed>
  <fix>3d</fix>
</trkpt>
<trkpt lat="40.0728137" lon="-105.2306153">
  <ele>1596.65</ele>
  <time>2026-08-28T19:12:13Z</time>
  <course>350.85</course>
  <speed>0.0316227766016838</speed>
  <fix>3d</fix>
</trkpt>
<trkpt lat="40.0728137" lon="-105.2306157">
  <ele>1596.59</ele>
  <time>2026-08-28T19:12:13Z</time>
  <course>66.84</course>
  <speed>0.0</speed>
  <fix>3d</fix>
</trkpt>
<trkpt lat="40.0728137" lon="-105.2306153">
  <ele>1596.66</ele>
  <time>2026-08-28T19:12:13Z</time>
  <course>350.85</course>
  <speed>0.0316227766016838</speed>
  <fix>3d</fix>
</trkpt>
<trkpt lat="40.0728137" lon="-105.2306157">
  <ele>1596.6</ele>
  <time>2026-08-28T19:12:13Z</time>
  <course>66.41</course>
  <speed>0.0</speed>
  <fix>3d</fix>
</trkpt>
<trkpt lat="40.0728137" lon="-105.2306153">
  <ele>1596.67</ele>
  <time>2026-08-28T19:12:13Z</time>
  <course>350.87</course>
  <speed>0.0316227766016838</speed>
  <fix>3d</fix>
</trkpt>
<trkpt lat="40.0728137" lon="-105.2306156">
  <ele>1596.6</ele>
  <time>2026-08-28T19:12:13Z</time>
  <course>65.81</course>
  <speed>0.0</speed>
  <fix>3d</fix>
</trkpt>
<trkpt lat="40.0728137" lon="-105.2306153">
  <ele>1596.67</ele>
  <time>2026-08-28T19:12:13Z</time>
  <course>350.9</course>
  <speed>0.0316227766016838</speed>
  <fix>3d</fix>
</trkpt>
<trkpt lat="40.0728137" lon="-105.2306155">
  <ele>1596.6</ele>
  <time>2026-08-28T19:12:13Z</time>
  <course>64.68</course>
  <speed>0.0</speed>
  <fix>3d</fix>
</trkpt>
<trkpt lat="40.0728137" lon="-105.2306153">
  <ele>1596.67</ele>
  <time>2026-08-28T19:12:13Z</time>
  <course>350.93</course>
  <speed>0.0316227766016838</speed>
  <fix>3d</fix>
</trkpt>
<trkpt lat="40.0728137" lon="-105.2306155">
  <ele>1596.6</ele>
  <time>2026-08-28T19:12:13Z</time>
  <course>63.06</course>
  <speed>0.0</speed>
  <fix>3d</fix>
</trkpt>
<trkpt lat="40.0728137" lon="-105.2306153">
  <ele>1596.67</ele>
  <time>2026-08-28T19:12:13Z</time>
  <course>350.96</course>
  <speed>0.0316227766016838</speed>
  <fix>3d</fix>
</trkpt>
<trkpt lat="40.0728137" lon="-105.2306155">
  <ele>1596.59</ele>
  <time>2026-08-28T19:12:13Z</time>
  <course>61.7</course>
  <speed>0.0</speed>
  <fix>3d</fix>
</trkpt>
<trkpt lat="40.0728137" lon="-105.2306153">
  <ele>1596.67</ele>
  <time>2026-08-28T19:12:13Z</time>
  <course>350.97</course>
  <speed>0.0316227766016838</speed>
  <fix>3d</fix>
</trkpt>
<trkpt lat="40.0728137" lon="-105.2306155">
  <ele>1596.59</ele>
  <time>2026-08-28T19:12:13Z</time>
  <course>58.8</course>
  <speed>0.0</speed>
  <fix>3d</fix>
</trkpt>
<trkpt lat="40.0728137" lon="-105.2306153">
  <ele>1596.66</ele>
  <time>2026-08-28T19:12:13Z</time>
  <course>350.97</course>
  <speed>0.0316227766016838</speed>
  <fix>3d</fix>
</trkpt>
<trkpt lat="40.0728138" lon="-105.2306155">
  <ele>1596.58</ele>
  <time>2026-08-28T19:12:13Z</time>
  <course>54.21</course>
  <speed>0.0</speed>
  <fix>3d</fix>
</trkpt>
<trkpt lat="40.0728137" lon="-105.2306153">
  <ele>1596.66</ele>
  <time>2026-08-28T19:12:13Z</time>
  <course>350.97</course>
  <speed>0.022360679774997897</speed>
  <fix>3d</fix>
</trkpt>
<trkpt lat="40.0728138" lon="-105.2306155">
  <ele>1596.58</ele>
  <time>2026-08-28T19:12:13Z</time>
  <course>49.33</course>
  <speed>0.0</speed>
  <fix>3d</fix>
</trkpt>
<trkpt lat="40.0728137" lon="-105.2306153">
  <ele>1596.66</ele>
  <time>2026-08-28T19:12:13Z</time>
  <course>350.96</course>
  <speed>0.022360679774997897</speed>
  <fix>3d</fix>
</trkpt>
<trkpt lat="40.0728138" lon="-105.2306155">
  <ele>1596.58</ele>
  <time>2026-08-28T19:12:13Z</time>
  <course>43.29</course>
  <speed>0.0</speed>
  <fix>3d</fix>
</trkpt>
<trkpt lat="40.0728137" lon="-105.2306152">
  <ele>1596.66</ele>
  <time>2026-08-28T19:12:13Z</time>
  <course>350.95</course>
  <speed>0.022360679774997897</speed>
  <fix>3d</fix>
</trkpt>
<trkpt lat="40.0728138" lon="-105.2306155">
  <ele>1596.58</ele>
  <time>2026-08-28T19:12:13Z</time>
  <course>38.09</course>
  <speed>0.0</speed>
  <fix>3d</fix>
</trkpt>
<trkpt lat="40.0728137" lon="-105.2306152">
  <ele>1596.66</ele>
  <time>2026-08-28T19:12:13Z</time>
  <course>350.95</course>
  <speed>0.022360679774997897</speed>
  <fix>3d</fix>
</trkpt>
<trkpt lat="40.0728138" lon="-105.2306155">
  <ele>1596.57</ele>
  <time>2026-08-28T19:12:13Z</time>
  <course>35.65</course>
  <speed>0.0</speed>
  <fix>3d</fix>
</trkpt>
<trkpt lat="40.0728137" lon="-105.2306152">
  <ele>1596.67</ele>
  <time>2026-08-28T19:12:13Z</time>
  <course>350.96</course>
  <speed>0.022360679774997897</speed>
  <fix>3d</fix>
</trkpt>
<trkpt lat="40.0728138" lon="-105.2306155">
  <ele>1596.57</ele>
  <time>2026-08-28T19:12:13Z</time>
  <course>35.98</course>
  <speed>0.0</speed>
  <fix>3d</fix>
</trkpt>
<trkpt lat="40.0728137" lon="-105.2306152">
  <ele>1596.67</ele>
  <time>2026-08-28T19:12:13Z</time>
  <course>350.98</course>
  <speed>0.022360679774997897</speed>
  <fix>3d</fix>
</trkpt>
<trkpt lat="40.0728138" lon="-105.2306155">
  <ele>1596.57</ele>
  <time>2026-08-28T19:12:13Z</time>
  <course>43.77</course>
  <speed>0.0</speed>
  <fix>3d</fix>
</trkpt>
<trkpt lat="40.0728137" lon="-105.2306153">
  <ele>1596.66</ele>
  <time>2026-08-28T19:12:13Z</time>
  <course>350.99</course>
  <speed>0.022360679774997897</speed>
  <fix>3d</fix>
</trkpt>
<trkpt lat="40.0728138" lon="-105.2306155">
  <ele>1596.56</ele>
  <time>2026-08-28T19:12:13Z</time>
  <course>89.23</course>
  <speed>0.0</speed>
  <fix>3d</fix>
</trkpt>
<trkpt lat="40.0728137" lon="-105.2306153">
  <ele>1596.66</ele>
  <time>2026-08-28T19:12:13Z</time>
  <course>350.98</course>
  <speed>0.022360679774997897</speed>
  <fix>3d</fix>
</trkpt>
<trkpt lat="40.0728138" lon="-105.2306155">
  <ele>1596.56</ele>
  <time>2026-08-28T19:12:13Z</time>
  <course>146.83</course>
  <speed>0.0</speed>
  <fix>3d</fix>
</trkpt>
<trkpt lat="40.0728137" lon="-105.2306153">
  <ele>1596.65</ele>
  <time>2026-08-28T19:12:13Z</time>
  <course>350.96</course>
  <speed>0.022360679774997897</speed>
  <fix>3d</fix>
</trkpt>
<trkpt lat="40.0728138" lon="-105.2306155">
  <ele>1596.56</ele>
  <time>2026-08-28T19:12:13Z</time>
  <course>160.79</course>
  <speed>0.0</speed>
  <fix>3d</fix>
</trkpt>
<trkpt lat="40.0728137" lon="-105.2306153">
  <ele>1596.65</ele>
  <time>2026-08-28T19:12:13Z</time>
  <course>350.94</course>
  <speed>0.022360679774997897</speed>
  <fix>3d</fix>
</trkpt>
<trkpt lat="40.0728138" lon="-105.2306155">
  <ele>1596.56</ele>
  <time>2026-08-28T19:12:13Z</time>
  <course>172.61</course>
  <speed>0.0</speed>
  <fix>3d</fix>
</trkpt>
<trkpt lat="40.0728137" lon="-105.2306153">
  <ele>1596.65</ele>
  <time>2026-08-28T19:12:13Z</time>
  <course>350.93</course>
  <speed>0.022360679774997897</speed>
  <fix>3d</fix>
</trkpt>
<trkpt lat="40.0728138" lon="-105.2306155">
  <ele>1596.56</ele>
  <time>2026-08-28T19:12:13Z</time>
  <course>184.12</course>
  <speed>0.0</speed>
  <fix>3d</fix>
</trkpt>
<trkpt lat="40.0728137" lon="-105.2306153">
  <ele>1596.65</ele>
  <time>2026-08-28T19:12:13Z</time>
  <course>350.92</course>
  <speed>0.022360679774997897</speed>
  <fix>3d</fix>
</trkpt>
<trkpt lat="40.0728138" lon="-105.2306155">
  <ele>1596.56</ele>
  <time>2026-08-28T19:12:13Z</time>
  <course>192.39</course>
  <speed>0.0</speed>
  <fix>3d</fix>
</trkpt>
<trkpt lat="40.0728137" lon="-105.2306153">
  <ele>1596.65</ele>
  <time>2026-08-28T19:12:13Z</time>
  <course>350.91</course>
  <speed>0.022360679774997897</speed>
  <fix>3d</fix>
</trkpt>
<trkpt lat="40.0728138" lon="-105.2306155">
  <ele>1596.56</ele>
  <time>2026-08-28T19:12:13Z</time>
  <course>198.32</course>
  <speed>0.0</speed>
  <fix>3d</fix>
</trkpt>
<trkpt lat="40.0728137" lon="-105.2306153">
  <ele>1596.65</ele>
  <time>2026-08-28T19:12:13Z</time>
  <course>350.91</course>
  <speed>0.022360679774997897</speed>
  <fix>3d</fix>
</trkpt>
<trkpt lat="40.0728138" lon="-105.2306155">
  <ele>1596.55</ele>
  <time>2026-08-28T19:12:13Z</time>
  <course>199.0</course>
  <speed>0.0</speed>
  <fix>3d</fix>
</trkpt>
<trkpt lat="40.0728137" lon="-105.2306153">
  <ele>1596.64</ele>
  <time>2026-08-28T19:12:13Z</time>
  <course>350.9</course>
  <speed>0.022360679774997897</speed>
  <fix>3d</fix>
</trkpt>
<trkpt lat="40.0728138" lon="-105.2306155">
  <ele>1596.55</ele>
  <time>2026-08-28T19:12:13Z</time>
  <course>195.06</course>
  <speed>0.0</speed>
  <fix>3d</fix>
</trkpt>
<trkpt lat="40.0728137" lon="-105.2306153">
  <ele>1596.65</ele>
  <time>2026-08-28T19:12:13Z</time>
  <course>350.9</course>
  <speed>0.022360679774997897</speed>
  <fix>3d</fix>
</trkpt>
<trkpt lat="40.0728138" lon="-105.2306155">
  <ele>1596.55</ele>
  <time>2026-08-28T19:12:13Z</time>
  <course>190.77</course>
  <speed>0.0</speed>
  <fix>3d</fix>
</trkpt>
<trkpt lat="40.0728137" lon="-105.2306153">
  <ele>1596.64</ele>
  <time>2026-08-28T19:12:13Z</time>
  <course>350.9</course>
  <speed>0.022360679774997897</speed>
  <fix>3d</fix>
</trkpt>
<trkpt lat="40.0728138" lon="-105.2306155">
  <ele>1596.55</ele>
  <time>2026-08-28T19:12:13Z</time>
  <course>187.18</course>
  <speed>0.0</speed>
  <fix>3d</fix>
</trkpt>
<trkpt lat="40.0728137" lon="-105.2306153">
  <ele>1596.64</ele>
  <time>2026-08-28T19:12:13Z</time>
  <course>350.9</course>
  <speed>0.022360679774997897</speed>
  <fix>3d</fix>
</trkpt>
<trkpt lat="40.0728138" lon="-105.2306155">
  <ele>1596.56</ele>
  <time>2026-08-28T19:12:13Z</time>
  <course>184.1</course>
  <speed>0.0</speed>
  <fix>3d</fix>
</trkpt>
<trkpt lat="40.0728137" lon="-105.2306153">
  <ele>1596.64</ele>
  <time>2026-08-28T19:12:13Z</time>
  <course>350.89</course>
  <speed>0.022360679774997897</speed>
  <fix>3d</fix>
</trkpt>
<trkpt lat="40.0728138" lon="-105.2306155">
  <ele>1596.56</ele>
  <time>2026-08-28T19:12:13Z</time>
  <course>181.45</course>
  <speed>0.0</speed>
  <fix>3d</fix>
</trkpt>
<trkpt lat="40.0728137" lon="-105.2306153">
  <ele>1596.63</ele>
  <time>2026-08-28T19:12:13Z</time>
  <course>350.88</course>
  <speed>0.022360679774997897</speed>
  <fix>3d</fix>
</trkpt>
<trkpt lat="40.0728138" lon="-105.2306155">
  <ele>1596.56</ele>
  <time>2026-08-28T19:12:13Z</time>
  <course>184.94</course>
  <speed>0.0</speed>
  <fix>3d</fix>
</trkpt>
<trkpt lat="40.0728137" lon="-105.2306153">
  <ele>1596.64</ele>
  <time>2026-08-28T19:12:13Z</time>
  <course>350.85</course>
  <speed>0.022360679774997897</speed>
  <fix>3d</fix>
</trkpt>
<trkpt lat="40.0728138" lon="-105.2306155">
  <ele>1596.56</ele>
  <time>2026-08-28T19:12:13Z</time>
  <course>193.84</course>
  <speed>0.0</speed>
  <fix>3d</fix>
</trkpt>
<trkpt lat="40.0728137" lon="-105.2306153">
  <ele>1596.64</ele>
  <time>2026-08-28T19:12:13Z</time>
  <course>350.83</course>
  <speed>0.022360679774997897</speed>
  <fix>3d</fix>
</trkpt>
<trkpt lat="40.0728138" lon="-105.2306155">
  <ele>1596.56</ele>
  <time>2026-08-28T19:12:13Z</time>
  <course>201.11</course>
  <speed>0.0</speed>
  <fix>3d</fix>
</trkpt>
<trkpt lat="40.0728137" lon="-105.2306153">
  <ele>1596.64</ele>
  <time>2026-08-28T19:12:13Z</time>
  <course>350.84</course>
  <speed>0.022360679774997897</speed>
  <fix>3d</fix>
</trkpt>
<trkpt lat="40.0728138" lon="-105.2306155">
  <ele>1596.56</ele>
  <time>2026-08-28T19:12:13Z</time>
  <course>207.03</course>
  <speed>0.0</speed>
  <fix>3d</fix>
</trkpt>
<trkpt lat="40.0728137" lon="-105.2306153">
  <ele>1596.65</ele>
  <time>2026-08-28T19:12:13Z</time>
  <course>350.86</course>
  <speed>0.022360679774997897</speed>
  <fix>3d</fix>
</trkpt>
<trkpt lat="40.0728138" lon="-105.2306155">
  <ele>1596.57</ele>
  <time>2026-08-28T19:12:13Z</time>
  <course>209.6</course>
  <speed>0.0</speed>
  <fix>3d</fix>
</trkpt>
<trkpt lat="40.0728137" lon="-105.2306153">
  <ele>1596.65</ele>
  <time>2026-08-28T19:12:13Z</time>
  <course>350.87</course>
  <speed>0.022360679774997897</speed>
  <fix>3d</fix>
</trkpt>
<trkpt lat="40.0728138" lon="-105.2306155">
  <ele>1596.57</ele>
  <time>2026-08-28T19:12:13Z</time>
  <course>209.27</course>
  <speed>0.0</speed>
  <fix>3d</fix>
</trkpt>
<trkpt lat="40.0728137" lon="-105.2306153">
  <ele>1596.65</ele>
  <time>2026-08-28T19:12:13Z</time>
  <course>350.87</course>
  <speed>0.022360679774997897</speed>
  <fix>3d</fix>
</trkpt>
<trkpt lat="40.0728138" lon="-105.2306155">
  <ele>1596.57</ele>
  <time>2026-08-28T19:12:13Z</time>
  <course>208.41</course>
  <speed>0.0</speed>
  <fix>3d</fix>
</trkpt>
<trkpt lat="40.0728137" lon="-105.2306153">
  <ele>1596.65</ele>
  <time>2026-08-28T19:12:13Z</time>
  <course>350.88</course>
  <speed>0.022360679774997897</speed>
  <fix>3d</fix>
</trkpt>
<trkpt lat="40.0728138" lon="-105.2306155">
  <ele>1596.57</ele>
  <time>2026-08-28T19:12:13Z</time>
  <course>207.64</course>
  <speed>0.0</speed>
  <fix>3d</fix>
</trkpt>
<trkpt lat="40.0728137" lon="-105.2306153">
  <ele>1596.66</ele>
  <time>2026-08-28T19:12:13Z</time>
  <course>350.88</course>
  <speed>0.022360679774997897</speed>
  <fix>3d</fix>
</trkpt>
<trkpt lat="40.0728138" lon="-105.2306155">
  <ele>1596.57</ele>
  <time>2026-08-28T19:12:13Z</time>
  <course>207.01</course>
  <speed>0.0</speed>
  <fix>3d</fix>
</trkpt>
<trkpt lat="40.0728137" lon="-105.2306153">
  <ele>1596.66</ele>
  <time>2026-08-28T19:12:13Z</time>
  <course>350.9</course>
  <speed>0.022360679774997897</speed>
  <fix>3d</fix>
</trkpt>
<trkpt lat="40.0728138" lon="-105.2306155">
  <ele>1596.57</ele>
  <time>2026-08-28T19:12:13Z</time>
  <course>206.85</course>
  <speed>0.0</speed>
  <fix>3d</fix>
</trkpt>
<trkpt lat="40.0728137" lon="-105.2306153">
  <ele>1596.66</ele>
  <time>2026-08-28T19:12:13Z</time>
  <course>350.91</course>
  <speed>0.022360679774997897</speed>
  <fix>3d</fix>
</trkpt>
<trkpt lat="40.0728138" lon="-105.2306155">
  <ele>1596.57</ele>
  <time>2026-08-28T19:12:13Z</time>
  <course>208.82</course>
  <speed>0.0</speed>
  <fix>3d</fix>
</trkpt>
<trkpt lat="40.0728137" lon="-105.2306153">
  <ele>1596.66</ele>
  <time>2026-08-28T19:12:13Z</time>
  <course>350.92</course>
  <speed>0.022360679774997897</speed>
  <fix>3d</fix>
</trkpt>
<trkpt lat="40.0728137" lon="-105.2306155">
  <ele>1596.57</ele>
  <time>2026-08-28T19:12:13Z</time>
  <course>211.99</course>
  <speed>0.0</speed>
  <fix>3d</fix>
</trkpt>
<trkpt lat="40.0728137" lon="-105.2306153">
  <ele>1596.66</ele>
  <time>2026-08-28T19:12:13Z</time>
  <course>350.95</course>
  <speed>0.022360679774997897</speed>
  <fix>3d</fix>
</trkpt>
<trkpt lat="40.0728137" lon="-105.2306155">
  <ele>1596.57</ele>
  <time>2026-08-28T19:12:13Z</time>
  <course>213.33</course>
  <speed>0.0</speed>
  <fix>3d</fix>
</trkpt>
<trkpt lat="40.0728137" lon="-105.2306153">
  <ele>1596.65</ele>
  <time>2026-08-28T19:12:13Z</time>
  <course>350.96</course>
  <speed>0.022360679774997897</speed>
  <fix>3d</fix>
</trkpt>
<trkpt lat="40.0728137" lon="-105.2306155">
  <ele>1596.57</ele>
  <time>2026-08-28T19:12:13Z</time>
  <course>212.88</course>
  <speed>0.0</speed>
  <fix>3d</fix>
</trkpt>
<trkpt lat="40.0728137" lon="-105.2306153">
  <ele>1596.65</ele>
  <time>2026-08-28T19:12:13Z</time>
  <course>350.95</course>
  <speed>0.022360679774997897</speed>
  <fix>3d</fix>
</trkpt>
<trkpt lat="40.0728137" lon="-105.2306155">
  <ele>1596.57</ele>
  <time>2026-08-28T19:12:13Z</time>
  <course>214.51</course>
  <speed>0.0</speed>
  <fix>3d</fix>
</trkpt>
<trkpt lat="40.0728137" lon="-105.2306153">
  <ele>1596.64</ele>
  <time>2026-08-28T19:12:13Z</time>
  <course>350.94</course>
  <speed>0.022360679774997897</speed>
  <fix>3d</fix>
</trkpt>
<trkpt lat="40.0728137" lon="-105.2306155">
  <ele>1596.56</ele>
  <time>2026-08-28T19:12:13Z</time>
  <course>220.9</course>
  <speed>0.0</speed>
  <fix>3d</fix>
</trkpt>
<trkpt lat="40.0728137" lon="-105.2306153">
  <ele>1596.64</ele>
  <time>2026-08-28T19:12:13Z</time>
  <course>350.92</course>
  <speed>0.022360679774997897</speed>
  <fix>3d</fix>
</trkpt>
<trkpt lat="40.0728137" lon="-105.2306155">
  <ele>1596.56</ele>
  <time>2026-08-28T19:12:13Z</time>
  <course>232.54</course>
  <speed>0.0</speed>
  <fix>3d</fix>
</trkpt>
<trkpt lat="40.0728137" lon="-105.2306153">
  <ele>1596.64</ele>
  <time>2026-08-28T19:12:13Z</time>
  <course>350.9</course>
  <speed>0.022360679774997897</speed>
  <fix>3d</fix>
</trkpt>
<trkpt lat="40.0728137" lon="-105.2306155">
  <ele>1596.56</ele>
  <time>2026-08-28T19:12:13Z</time>
  <course>255.58</course>
  <speed>0.0</speed>
  <fix>3d</fix>
</trkpt>
<trkpt lat="40.0728137" lon="-105.2306153">
  <ele>1596.64</ele>
  <time>2026-08-28T19:12:13Z</time>
  <course>350.88</course>
  <speed>0.022360679774997897</speed>
  <fix>3d</fix>
</trkpt>
<trkpt lat="40.0728137" lon="-105.2306155">
  <ele>1596.56</ele>
  <time>2026-08-28T19:12:13Z</time>
  <course>277.68</course>
  <speed>0.0</speed>
  <fix>3d</fix>
</trkpt>
<trkpt lat="40.0728137" lon="-105.2306153">
  <ele>1596.64</ele>
  <time>2026-08-28T19:12:13Z</time>
  <course>350.85</course>
  <speed>0.022360679774997897</speed>
  <fix>3d</fix>
</trkpt>
<trkpt lat="40.0728137" lon="-105.2306155">
  <ele>1596.57</ele>
  <time>2026-08-28T19:12:13Z</time>
  <course>287.03</course>
  <speed>0.0</speed>
  <fix>3d</fix>
</trkpt>
<trkpt lat="40.0728137" lon="-105.2306153">
  <ele>1596.64</ele>
  <time>2026-08-28T19:12:13Z</time>
  <course>350.84</course>
  <speed>0.022360679774997897</speed>
  <fix>3d</fix>
</trkpt>
<trkpt lat="40.0728137" lon="-105.2306155">
  <ele>1596.57</ele>
  <time>2026-08-28T19:12:13Z</time>
  <course>288.12</course>
  <speed>0.0</speed>
  <fix>3d</fix>
</trkpt>
<trkpt lat="40.0728137" lon="-105.2306153">
  <ele>1596.65</ele>
  <time>2026-08-28T19:12:13Z</time>
  <course>350.83</course>
  <speed>0.022360679774997897</speed>
  <fix>3d</fix>
</trkpt>
<trkpt lat="40.0728137" lon="-105.2306155">
  <ele>1596.57</ele>
  <time>2026-08-28T19:12:13Z</time>
  <course>291.94</course>
  <speed>0.0</speed>
  <fix>3d</fix>
</trkpt>
<trkpt lat="40.0728137" lon="-105.2306153">
  <ele>1596.65</ele>
  <time>2026-08-28T19:12:13Z</time>
  <course>350.85</course>
  <speed>0.022360679774997897</speed>
  <fix>3d</fix>
</trkpt>
<trkpt lat="40.0728137" lon="-105.2306155">
  <ele>1596.57</ele>
  <time>2026-08-28T19:12:13Z</time>
  <course>302.38</course>
  <speed>0.0</speed>
  <fix>3d</fix>
</trkpt>
<trkpt lat="40.0728137" lon="-105.2306153">
  <ele>1596.65</ele>
  <time>2026-08-28T19:12:13Z</time>
  <course>350.86</course>
  <speed>0.022360679774997897</speed>
  <fix>3d</fix>
</trkpt>
<trkpt lat="40.0728137" lon="-105.2306155">
  <ele>1596.58</ele>
  <time>2026-08-28T19:12:13Z</time>
  <course>310.67</course>
  <speed>0.0</speed>
  <fix>3d</fix>
</trkpt>
<trkpt lat="40.0728137" lon="-105.2306153">
  <ele>1596.66</ele>
  <time>2026-08-28T19:12:13Z</time>
  <course>350.88</course>
  <speed>0.02</speed>
  <fix>3d</fix>
</trkpt>
<trkpt lat="40.0728137" lon="-105.2306155">
  <ele>1596.58</ele>
  <time>2026-08-28T19:12:13Z</time>
  <course>315.23</course>
  <speed>0.0</speed>
  <fix>3d</fix>
</trkpt>
<trkpt lat="40.0728137" lon="-105.2306153">
  <ele>1596.66</ele>
  <time>2026-08-28T19:12:13Z</time>
  <course>350.89</course>
  <speed>0.02</speed>
  <fix>3d</fix>
</trkpt>
<trkpt lat="40.0728137" lon="-105.2306155">
  <ele>1596.58</ele>
  <time>2026-08-28T19:12:13Z</time>
  <course>317.93</course>
  <speed>0.0</speed>
  <fix>3d</fix>
</trkpt>
<trkpt lat="40.0728137" lon="-105.2306153">
  <ele>1596.66</ele>
  <time>2026-08-28T19:12:13Z</time>
  <course>350.9</course>
  <speed>0.022360679774997897</speed>
  <fix>3d</fix>
</trkpt>
<trkpt lat="40.0728137" lon="-105.2306155">
  <ele>1596.58</ele>
  <time>2026-08-28T19:12:13Z</time>
  <course>318.44</course>
  <speed>0.0</speed>
  <fix>3d</fix>
</trkpt>
<trkpt lat="40.0728137" lon="-105.2306153">
  <ele>1596.66</ele>
  <time>2026-08-28T19:12:13Z</time>
  <course>350.92</course>
  <speed>0.022360679774997897</speed>
  <fix>3d</fix>
</trkpt>
<trkpt lat="40.0728137" lon="-105.2306155">
  <ele>1596.58</ele>
  <time>2026-08-28T19:12:13Z</time>
  <course>320.18</course>
  <speed>0.0</speed>
  <fix>3d</fix>
</trkpt>
<trkpt lat="40.0728137" lon="-105.2306153">
  <ele>1596.66</ele>
  <time>2026-08-28T19:12:13Z</time>
  <course>350.93</course>
  <speed>0.022360679774997897</speed>
  <fix>3d</fix>
</trkpt>
<trkpt lat="40.0728137" lon="-105.2306155">
  <ele>1596.58</ele>
  <time>2026-08-28T19:12:13Z</time>
  <course>332.39</course>
  <speed>0.0</speed>
  <fix>3d</fix>
</trkpt>
<trkpt lat="40.0728137" lon="-105.2306153">
  <ele>1596.66</ele>
  <time>2026-08-28T19:12:13Z</time>
  <course>350.94</course>
  <speed>0.022360679774997897</speed>
  <fix>3d</fix>
</trkpt>
<trkpt lat="40.0728137" lon="-105.2306155">
  <ele>1596.57</ele>
  <time>2026-08-28T19:12:13Z</time>
  <course>350.06</course>
  <speed>0.0</speed>
  <fix>3d</fix>
</trkpt>
<trkpt lat="40.0728137" lon="-105.2306153">
  <ele>1596.66</ele>
  <time>2026-08-28T19:12:13Z</time>
  <course>350.94</course>
  <speed>0.022360679774997897</speed>
  <fix>3d</fix>
</trkpt>
<trkpt lat="40.0728137" lon="-105.2306155">
  <ele>1596.57</ele>
  <time>2026-08-28T19:12:13Z</time>
  <course>0.03</course>
  <speed>0.0</speed>
  <fix>3d</fix>
</trkpt>
<trkpt lat="40.0728137" lon="-105.2306153">
  <ele>1596.66</ele>
  <time>2026-08-28T19:12:13Z</time>
  <course>350.94</course>
  <speed>0.022360679774997897</speed>
  <fix>3d</fix>
</trkpt>
<trkpt lat="40.0728137" lon="-105.2306155">
  <ele>1596.57</ele>
  <time>2026-08-28T19:12:13Z</time>
  <course>3.7</course>
  <speed>0.0</speed>
  <fix>3d</fix>
</trkpt>
<trkpt lat="40.0728137" lon="-105.2306153">
  <ele>1596.66</ele>
  <time>2026-08-28T19:12:13Z</time>
  <course>350.94</course>
  <speed>0.022360679774997897</speed>
  <fix>3d</fix>
</trkpt>
<trkpt lat="40.0728137" lon="-105.2306155">
  <ele>1596.57</ele>
  <time>2026-08-28T19:12:13Z</time>
  <course>2.09</course>
  <speed>0.0</speed>
  <fix>3d</fix>
</trkpt>
<trkpt lat="40.0728137" lon="-105.2306153">
  <ele>1596.66</ele>
  <time>2026-08-28T19:12:13Z</time>
  <course>350.94</course>
  <speed>0.022360679774997897</speed>
  <fix>3d</fix>
</trkpt>
<trkpt lat="40.0728137" lon="-105.2306155">
  <ele>1596.57</ele>
  <time>2026-08-28T19:12:13Z</time>
  <course>4.32</course>
  <speed>0.0</speed>
  <fix>3d</fix>
</trkpt>
<trkpt lat="40.0728137" lon="-105.2306153">
  <ele>1596.66</ele>
  <time>2026-08-28T19:12:13Z</time>
  <course>350.94</course>
  <speed>0.022360679774997897</speed>
  <fix>3d</fix>
</trkpt>
<trkpt lat="40.0728137" lon="-105.2306155">
  <ele>1596.56</ele>
  <time>2026-08-28T19:12:13Z</time>
  <course>14.0</course>
  <speed>0.0</speed>
  <fix>3d</fix>
</trkpt>
<trkpt lat="40.0728137" lon="-105.2306153">
  <ele>1596.66</ele>
  <time>2026-08-28T19:12:13Z</time>
  <course>350.93</course>
  <speed>0.022360679774997897</speed>
  <fix>3d</fix>
</trkpt>
<trkpt lat="40.0728137" lon="-105.2306155">
  <ele>1596.56</ele>
  <time>2026-08-28T19:12:13Z</time>
  <course>19.29</course>
  <speed>0.0</speed>
  <fix>3d</fix>
</trkpt>
<trkpt lat="40.0728137" lon="-105.2306153">
  <ele>1596.66</ele>
  <time>2026-08-28T19:12:13Z</time>
  <course>350.94</course>
  <speed>0.022360679774997897</speed>
  <fix>3d</fix>
</trkpt>
<trkpt lat="40.0728137" lon="-105.2306155">
  <ele>1596.56</ele>
  <time>2026-08-28T19:12:13Z</time>
  <course>15.64</course>
  <speed>0.0</speed>
  <fix>3d</fix>
</trkpt>
<trkpt lat="40.0728137" lon="-105.2306153">
  <ele>1596.66</ele>
  <time>2026-08-28T19:12:13Z</time>
  <course>350.94</course>
  <speed>0.022360679774997897</speed>
  <fix>3d</fix>
</trkpt>
<trkpt lat="40.0728137" lon="-105.2306155">
  <ele>1596.56</ele>
  <time>2026-08-28T19:12:13Z</time>
  <course>9.54</course>
  <speed>0.0</speed>
  <fix>3d</fix>
</trkpt>
<trkpt lat="40.0728137" lon="-105.2306153">
  <ele>1596.66</ele>
  <time>2026-08-28T19:12:13Z</time>
  <course>350.95</course>
  <speed>0.022360679774997897</speed>
  <fix>3d</fix>
</trkpt>
<trkpt lat="40.0728137" lon="-105.2306155">
  <ele>1596.56</ele>
  <time>2026-08-28T19:12:13Z</time>
  <course>6.28</course>
  <speed>0.0</speed>
  <fix>3d</fix>
</trkpt>
<trkpt lat="40.0728137" lon="-105.2306153">
  <ele>1596.66</ele>
  <time>2026-08-28T19:12:14Z</time>
  <course>350.95</course>
  <speed>0.022360679774997897</speed>
  <fix>3d</fix>
</trkpt>
<trkpt lat="40.0728137" lon="-105.2306155">
  <ele>1596.55</ele>
  <time>2026-08-28T19:12:14Z</time>
  <course>9.29</course>
  <speed>0.0</speed>
  <fix>3d</fix>
</trkpt>
<trkpt lat="40.0728137" lon="-105.2306153">
  <ele>1596.65</ele>
  <time>2026-08-28T19:12:14Z</time>
  <course>350.95</course>
  <speed>0.022360679774997897</speed>
  <fix>3d</fix>
</trkpt>
<trkpt lat="40.0728137" lon="-105.2306155">
  <ele>1596.55</ele>
  <time>2026-08-28T19:12:14Z</time>
  <course>15.3</course>
  <speed>0.0</speed>
  <fix>3d</fix>
</trkpt>
<trkpt lat="40.0728137" lon="-105.2306153">
  <ele>1596.65</ele>
  <time>2026-08-28T19:12:14Z</time>
  <course>350.94</course>
  <speed>0.022360679774997897</speed>
  <fix>3d</fix>
</trkpt>
<trkpt lat="40.0728137" lon="-105.2306155">
  <ele>1596.55</ele>
  <time>2026-08-28T19:12:14Z</time>
  <course>16.9</course>
  <speed>0.0</speed>
  <fix>3d</fix>
</trkpt>
<trkpt lat="40.0728137" lon="-105.2306153">
  <ele>1596.64</ele>
  <time>2026-08-28T19:12:14Z</time>
  <course>350.94</course>
  <speed>0.022360679774997897</speed>
  <fix>3d</fix>
</trkpt>
<trkpt lat="40.0728137" lon="-105.2306155">
  <ele>1596.55</ele>
  <time>2026-08-28T19:12:14Z</time>
  <course>14.9</course>
  <speed>0.0</speed>
  <fix>3d</fix>
</trkpt>
<trkpt lat="40.0728137" lon="-105.2306153">
  <ele>1596.64</ele>
  <time>2026-08-28T19:12:14Z</time>
  <course>350.94</course>
  <speed>0.022360679774997897</speed>
  <fix>3d</fix>
</trkpt>
<trkpt lat="40.0728137" lon="-105.2306155">
  <ele>1596.55</ele>
  <time>2026-08-28T19:12:14Z</time>
  <course>12.18</course>
  <speed>0.0</speed>
  <fix>3d</fix>
</trkpt>
<trkpt lat="40.0728137" lon="-105.2306153">
  <ele>1596.64</ele>
  <time>2026-08-28T19:12:14Z</time>
  <course>350.94</course>
  <speed>0.022360679774997897</speed>
  <fix>3d</fix>
</trkpt>
<trkpt lat="40.0728138" lon="-105.2306155">
  <ele>1596.55</ele>
  <time>2026-08-28T19:12:14Z</time>
  <course>9.08</course>
  <speed>0.0</speed>
  <fix>3d</fix>
</trkpt>
<trkpt lat="40.0728137" lon="-105.2306153">
  <ele>1596.63</ele>
  <time>2026-08-28T19:12:14Z</time>
  <course>350.92</course>
  <speed>0.022360679774997897</speed>
  <fix>3d</fix>
</trkpt>
<trkpt lat="40.0728138" lon="-105.2306155">
  <ele>1596.55</ele>
  <time>2026-08-28T19:12:14Z</time>
  <course>6.84</course>
  <speed>0.0</speed>
  <fix>3d</fix>
</trkpt>
<trkpt lat="40.0728137" lon="-105.2306153">
  <ele>1596.64</ele>
  <time>2026-08-28T19:12:14Z</time>
  <course>350.9</course>
  <speed>0.022360679774997897</speed>
  <fix>3d</fix>
</trkpt>
<trkpt lat="40.0728138" lon="-105.2306155">
  <ele>1596.55</ele>
  <time>2026-08-28T19:12:14Z</time>
  <course>8.53</course>
  <speed>0.0</speed>
  <fix>3d</fix>
</trkpt>
<trkpt lat="40.0728137" lon="-105.2306153">
  <ele>1596.64</ele>
  <time>2026-08-28T19:12:14Z</time>
  <course>350.87</course>
  <speed>0.022360679774997897</speed>
  <fix>3d</fix>
</trkpt>
<trkpt lat="40.0728138" lon="-105.2306155">
  <ele>1596.55</ele>
  <time>2026-08-28T19:12:14Z</time>
  <course>15.01</course>
  <speed>0.0</speed>
  <fix>3d</fix>
</trkpt>
<trkpt lat="40.0728137" lon="-105.2306153">
  <ele>1596.65</ele>
  <time>2026-08-28T19:12:14Z</time>
  <course>350.87</course>
  <speed>0.022360679774997897</speed>
  <fix>3d</fix>
</trkpt>
<trkpt lat="40.0728138" lon="-105.2306155">
  <ele>1596.55</ele>
  <time>2026-08-28T19:12:14Z</time>
  <course>26.26</course>
  <speed>0.0</speed>
  <fix>3d</fix>
</trkpt>
<trkpt lat="40.0728137" lon="-105.2306153">
  <ele>1596.65</ele>
  <time>2026-08-28T19:12:14Z</time>
  <course>350.87</course>
  <speed>0.022360679774997897</speed>
  <fix>3d</fix>
</trkpt>
<trkpt lat="40.0728138" lon="-105.2306155">
  <ele>1596.55</ele>
  <time>2026-08-28T19:12:14Z</time>
  <course>48.07</course>
  <speed>0.0</speed>
  <fix>3d</fix>
</trkpt>
<trkpt lat="40.0728137" lon="-105.2306153">
  <ele>1596.65</ele>
  <time>2026-08-28T19:12:14Z</time>
  <course>350.87</course>
  <speed>0.022360679774997897</speed>
  <fix>3d</fix>
</trkpt>
<trkpt lat="40.0728138" lon="-105.2306155">
  <ele>1596.55</ele>
  <time>2026-08-28T19:12:14Z</time>
  <course>97.3</course>
  <speed>0.0</speed>
  <fix>3d</fix>
</trkpt>
<trkpt lat="40.0728137" lon="-105.2306153">
  <ele>1596.65</ele>
  <time>2026-08-28T19:12:14Z</time>
  <course>350.89</course>
  <speed>0.022360679774997897</speed>
  <fix>3d</fix>
</trkpt>
<trkpt lat="40.0728138" lon="-105.2306155">
  <ele>1596.56</ele>
  <time>2026-08-28T19:12:14Z</time>
  <course>134.08</course>
  <speed>0.0</speed>
  <fix>3d</fix>
</trkpt>
<trkpt lat="40.0728137" lon="-105.2306153">
  <ele>1596.66</ele>
  <time>2026-08-28T19:12:14Z</time>
  <course>350.91</course>
  <speed>0.022360679774997897</speed>
  <fix>3d</fix>
</trkpt>
<trkpt lat="40.0728138" lon="-105.2306155">
  <ele>1596.56</ele>
  <time>2026-08-28T19:12:14Z</time>
  <course>148.11</course>
  <speed>0.0</speed>
  <fix>3d</fix>
</trkpt>
<trkpt lat="40.0728137" lon="-105.2306153">
  <ele>1596.66</ele>
  <time>2026-08-28T19:12:14Z</time>
  <course>350.92</course>
  <speed>0.022360679774997897</speed>
  <fix>3d</fix>
</trkpt>
<trkpt lat="40.0728138" lon="-105.2306155">
  <ele>1596.56</ele>
  <time>2026-08-28T19:12:14Z</time>
  <course>152.0</course>
  <speed>0.0</speed>
  <fix>3d</fix>
</trkpt>
<trkpt lat="40.0728137" lon="-105.2306153">
  <ele>1596.65</ele>
  <time>2026-08-28T19:12:14Z</time>
  <course>350.92</course>
  <speed>0.022360679774997897</speed>
  <fix>3d</fix>
</trkpt>
<trkpt lat="40.0728138" lon="-105.2306155">
  <ele>1596.56</ele>
  <time>2026-08-28T19:12:14Z</time>
  <course>151.54</course>
  <speed>0.0</speed>
  <fix>3d</fix>
</trkpt>
<trkpt lat="40.0728137" lon="-105.2306153">
  <ele>1596.65</ele>
  <time>2026-08-28T19:12:14Z</time>
  <course>350.93</course>
  <speed>0.022360679774997897</speed>
  <fix>3d</fix>
</trkpt>
<trkpt lat="40.0728138" lon="-105.2306155">
  <ele>1596.56</ele>
  <time>2026-08-28T19:12:14Z</time>
  <course>146.24</course>
  <speed>0.0</speed>
  <fix>3d</fix>
</trkpt>
<trkpt lat="40.0728137" lon="-105.2306153">
  <ele>1596.66</ele>
  <time>2026-08-28T19:12:14Z</time>
  <course>350.94</course>
  <speed>0.022360679774997897</speed>
  <fix>3d</fix>
</trkpt>
<trkpt lat="40.0728138" lon="-105.2306155">
  <ele>1596.56</ele>
  <time>2026-08-28T19:12:14Z</time>
  <course>139.2</course>
  <speed>0.0</speed>
  <fix>3d</fix>
</trkpt>
<trkpt lat="40.0728137" lon="-105.2306153">
  <ele>1596.66</ele>
  <time>2026-08-28T19:12:14Z</time>
  <course>350.94</course>
  <speed>0.022360679774997897</speed>
  <fix>3d</fix>
</trkpt>
<trkpt lat="40.0728138" lon="-105.2306155">
  <ele>1596.55</ele>
  <time>2026-08-28T19:12:14Z</time>
  <course>138.89</course>
  <speed>0.0</speed>
  <fix>3d</fix>
</trkpt>
<trkpt lat="40.0728137" lon="-105.2306153">
  <ele>1596.66</ele>
  <time>2026-08-28T19:12:14Z</time>
  <course>350.95</course>
  <speed>0.022360679774997897</speed>
  <fix>3d</fix>
</trkpt>
<trkpt lat="40.0728138" lon="-105.2306155">
  <ele>1596.55</ele>
  <time>2026-08-28T19:12:14Z</time>
  <course>140.11</course>
  <speed>0.0</speed>
  <fix>3d</fix>
</trkpt>
<trkpt lat="40.0728137" lon="-105.2306153">
  <ele>1596.66</ele>
  <time>2026-08-28T19:12:14Z</time>
  <course>350.95</course>
  <speed>0.022360679774997897</speed>
  <fix>3d</fix>
</trkpt>
<trkpt lat="40.0728138" lon="-105.2306155">
  <ele>1596.55</ele>
  <time>2026-08-28T19:12:14Z</time>
  <course>141.23</course>
  <speed>0.0</speed>
  <fix>3d</fix>
</trkpt>
<trkpt lat="40.0728137" lon="-105.2306153">
  <ele>1596.65</ele>
  <time>2026-08-28T19:12:14Z</time>
  <course>350.95</course>
  <speed>0.022360679774997897</speed>
  <fix>3d</fix>
</trkpt>
<trkpt lat="40.0728138" lon="-105.2306155">
  <ele>1596.55</ele>
  <time>2026-08-28T19:12:14Z</time>
  <course>143.32</course>
  <speed>0.0</speed>
  <fix>3d</fix>
</trkpt>
<trkpt lat="40.0728137" lon="-105.2306153">
  <ele>1596.65</ele>
  <time>2026-08-28T19:12:14Z</time>
  <course>350.95</course>
  <speed>0.022360679774997897</speed>
  <fix>3d</fix>
</trkpt>
<trkpt lat="40.0728138" lon="-105.2306155">
  <ele>1596.55</ele>
  <time>2026-08-28T19:12:14Z</time>
  <course>147.44</course>
  <speed>0.0</speed>
  <fix>3d</fix>
</trkpt>
<trkpt lat="40.0728137" lon="-105.2306153">
  <ele>1596.64</ele>
  <time>2026-08-28T19:12:14Z</time>
  <course>350.95</course>
  <speed>0.022360679774997897</speed>
  <fix>3d</fix>
</trkpt>
<trkpt lat="40.0728138" lon="-105.2306155">
  <ele>1596.55</ele>
  <time>2026-08-28T19:12:14Z</time>
  <course>151.36</course>
  <speed>0.0</speed>
  <fix>3d</fix>
</trkpt>
<trkpt lat="40.0728137" lon="-105.2306153">
  <ele>1596.64</ele>
  <time>2026-08-28T19:12:14Z</time>
  <course>350.93</course>
  <speed>0.022360679774997897</speed>
  <fix>3d</fix>
</trkpt>
<trkpt lat="40.0728138" lon="-105.2306155">
  <ele>1596.55</ele>
  <time>2026-08-28T19:12:14Z</time>
  <course>149.46</course>
  <speed>0.0</speed>
  <fix>3d</fix>
</trkpt>
<trkpt lat="40.0728137" lon="-105.2306153">
  <ele>1596.64</ele>
  <time>2026-08-28T19:12:14Z</time>
  <course>350.91</course>
  <speed>0.022360679774997897</speed>
  <fix>3d</fix>
</trkpt>
<trkpt lat="40.0728138" lon="-105.2306155">
  <ele>1596.55</ele>
  <time>2026-08-28T19:12:14Z</time>
  <course>151.66</course>
  <speed>0.0</speed>
  <fix>3d</fix>
</trkpt>
<trkpt lat="40.0728137" lon="-105.2306153">
  <ele>1596.65</ele>
  <time>2026-08-28T19:12:14Z</time>
  <course>350.89</course>
  <speed>0.022360679774997897</speed>
  <fix>3d</fix>
</trkpt>
<trkpt lat="40.0728138" lon="-105.2306155">
  <ele>1596.55</ele>
  <time>2026-08-28T19:12:14Z</time>
  <course>156.89</course>
  <speed>0.0</speed>
  <fix>3d</fix>
</trkpt>
<trkpt lat="40.0728137" lon="-105.2306153">
  <ele>1596.65</ele>
  <time>2026-08-28T19:12:14Z</time>
  <course>350.88</course>
  <speed>0.022360679774997897</speed>
  <fix>3d</fix>
</trkpt>
<trkpt lat="40.0728138" lon="-105.2306155">
  <ele>1596.55</ele>
  <time>2026-08-28T19:12:14Z</time>
  <course>158.52</course>
  <speed>0.0</speed>
  <fix>3d</fix>
</trkpt>
<trkpt lat="40.0728137" lon="-105.2306153">
  <ele>1596.65</ele>
  <time>2026-08-28T19:12:14Z</time>
  <course>350.87</course>
  <speed>0.022360679774997897</speed>
  <fix>3d</fix>
</trkpt>
<trkpt lat="40.0728138" lon="-105.2306155">
  <ele>1596.55</ele>
  <time>2026-08-28T19:12:14Z</time>
  <course>158.41</course>
  <speed>0.0</speed>
  <fix>3d</fix>
</trkpt>
<trkpt lat="40.0728137" lon="-105.2306153">
  <ele>1596.65</ele>
  <time>2026-08-28T19:12:14Z</time>
  <course>350.86</course>
  <speed>0.022360679774997897</speed>
  <fix>3d</fix>
</trkpt>
<trkpt lat="40.0728138" lon="-105.2306155">
  <ele>1596.55</ele>
  <time>2026-08-28T19:12:14Z</time>
  <course>157.03</course>
  <speed>0.0</speed>
  <fix>3d</fix>
</trkpt>
<trkpt lat="40.0728137" lon="-105.2306153">
  <ele>1596.65</ele>
  <time>2026-08-28T19:12:14Z</time>
  <course>350.86</course>
  <speed>0.022360679774997897</speed>
  <fix>3d</fix>
</trkpt>
<trkpt lat="40.0728138" lon="-105.2306155">
  <ele>1596.55</ele>
  <time>2026-08-28T19:12:14Z</time>
  <course>155.84</course>
  <speed>0.0</speed>
  <fix>3d</fix>
</trkpt>
<trkpt lat="40.0728137" lon="-105.2306153">
  <ele>1596.65</ele>
  <time>2026-08-28T19:12:14Z</time>
  <course>350.86</course>
  <speed>0.022360679774997897</speed>
  <fix>3d</fix>
</trkpt>
<trkpt lat="40.0728138" lon="-105.2306155">
  <ele>1596.55</ele>
  <time>2026-08-28T19:12:14Z</time>
  <course>155.67</course>
  <speed>0.0</speed>
  <fix>3d</fix>
</trkpt>
<trkpt lat="40.0728137" lon="-105.2306153">
  <ele>1596.64</ele>
  <time>2026-08-28T19:12:14Z</time>
  <course>350.86</course>
  <speed>0.022360679774997897</speed>
  <fix>3d</fix>
</trkpt>
<trkpt lat="40.0728137" lon="-105.2306155">
  <ele>1596.55</ele>
  <time>2026-08-28T19:12:14Z</time>
  <course>156.3</course>
  <speed>0.0</speed>
  <fix>3d</fix>
</trkpt>
<trkpt lat="40.0728137" lon="-105.2306153">
  <ele>1596.64</ele>
  <time>2026-08-28T19:12:14Z</time>
  <course>350.86</course>
  <speed>0.022360679774997897</speed>
  <fix>3d</fix>
</trkpt>
<trkpt lat="40.0728137" lon="-105.2306155">
  <ele>1596.55</ele>
  <time>2026-08-28T19:12:14Z</time>
  <course>157.18</course>
  <speed>0.0</speed>
  <fix>3d</fix>
</trkpt>
<trkpt lat="40.0728137" lon="-105.2306153">
  <ele>1596.65</ele>
  <time>2026-08-28T19:12:14Z</time>
  <course>350.85</course>
  <speed>0.022360679774997897</speed>
  <fix>3d</fix>
</trkpt>
<trkpt lat="40.0728137" lon="-105.2306155">
  <ele>1596.55</ele>
  <time>2026-08-28T19:12:14Z</time>
  <course>157.86</course>
  <speed>0.0</speed>
  <fix>3d</fix>
</trkpt>
<trkpt lat="40.0728137" lon="-105.2306153">
  <ele>1596.64</ele>
  <time>2026-08-28T19:12:14Z</time>
  <course>350.85</course>
  <speed>0.022360679774997897</speed>
  <fix>3d</fix>
</trkpt>
<trkpt lat="40.0728137" lon="-105.2306155">
  <ele>1596.55</ele>
  <time>2026-08-28T19:12:14Z</time>
  <course>156.97</course>
  <speed>0.0</speed>
  <fix>3d</fix>
</trkpt>
<trkpt lat="40.0728137" lon="-105.2306153">
  <ele>1596.64</ele>
  <time>2026-08-28T19:12:14Z</time>
  <course>350.85</course>
  <speed>0.022360679774997897</speed>
  <fix>3d</fix>
</trkpt>
<trkpt lat="40.0728137" lon="-105.2306155">
  <ele>1596.56</ele>
  <time>2026-08-28T19:12:14Z</time>
  <course>153.4</course>
  <speed>0.0</speed>
  <fix>3d</fix>
</trkpt>
<trkpt lat="40.0728137" lon="-105.2306153">
  <ele>1596.64</ele>
  <time>2026-08-28T19:12:14Z</time>
  <course>350.84</course>
  <speed>0.022360679774997897</speed>
  <fix>3d</fix>
</trkpt>
<trkpt lat="40.0728137" lon="-105.2306155">
  <ele>1596.56</ele>
  <time>2026-08-28T19:12:14Z</time>
  <course>147.23</course>
  <speed>0.0</speed>
  <fix>3d</fix>
</trkpt>
<trkpt lat="40.0728137" lon="-105.2306153">
  <ele>1596.64</ele>
  <time>2026-08-28T19:12:14Z</time>
  <course>350.84</course>
  <speed>0.022360679774997897</speed>
  <fix>3d</fix>
</trkpt>
<trkpt lat="40.0728137" lon="-105.2306155">
  <ele>1596.56</ele>
  <time>2026-08-28T19:12:14Z</time>
  <course>140.06</course>
  <speed>0.0</speed>
  <fix>3d</fix>
</trkpt>
<trkpt lat="40.0728137" lon="-105.2306153">
  <ele>1596.64</ele>
  <time>2026-08-28T19:12:14Z</time>
  <course>350.84</course>
  <speed>0.022360679774997897</speed>
  <fix>3d</fix>
</trkpt>
<trkpt lat="40.0728137" lon="-105.2306155">
  <ele>1596.56</ele>
  <time>2026-08-28T19:12:14Z</time>
  <course>133.65</course>
  <speed>0.0</speed>
  <fix>3d</fix>
</trkpt>
<trkpt lat="40.0728137" lon="-105.2306153">
  <ele>1596.64</ele>
  <time>2026-08-28T19:12:14Z</time>
  <course>350.84</course>
  <speed>0.022360679774997897</speed>
  <fix>3d</fix>
</trkpt>
<trkpt lat="40.0728137" lon="-105.2306155">
  <ele>1596.56</ele>
  <time>2026-08-28T19:12:14Z</time>
  <course>111.59</course>
  <speed>0.0</speed>
  <fix>3d</fix>
</trkpt>
<trkpt lat="40.0728137" lon="-105.2306153">
  <ele>1596.64</ele>
  <time>2026-08-28T19:12:14Z</time>
  <course>350.84</course>
  <speed>0.022360679774997897</speed>
  <fix>3d</fix>
</trkpt>
<trkpt lat="40.0728137" lon="-105.2306155">
  <ele>1596.57</ele>
  <time>2026-08-28T19:12:14Z</time>
  <course>56.74</course>
  <speed>0.0</speed>
  <fix>3d</fix>
</trkpt>
<trkpt lat="40.0728137" lon="-105.2306153">
  <ele>1596.64</ele>
  <time>2026-08-28T19:12:14Z</time>
  <course>350.83</course>
  <speed>0.022360679774997897</speed>
  <fix>3d</fix>
</trkpt>
<trkpt lat="40.0728137" lon="-105.2306155">
  <ele>1596.57</ele>
  <time>2026-08-28T19:12:14Z</time>
  <course>33.62</course>
  <speed>0.0</speed>
  <fix>3d</fix>
</trkpt>
<trkpt lat="40.0728137" lon="-105.2306153">
  <ele>1596.64</ele>
  <time>2026-08-28T19:12:14Z</time>
  <course>350.83</course>
  <speed>0.02</speed>
  <fix>3d</fix>
</trkpt>
<trkpt lat="40.0728137" lon="-105.2306155">
  <ele>1596.57</ele>
  <time>2026-08-28T19:12:14Z</time>
  <course>21.44</course>
  <speed>0.0</speed>
  <fix>3d</fix>
</trkpt>
<trkpt lat="40.0728137" lon="-105.2306153">
  <ele>1596.65</ele>
  <time>2026-08-28T19:12:14Z</time>
  <course>350.84</course>
  <speed>0.02</speed>
  <fix>3d</fix>
</trkpt>
<trkpt lat="40.0728137" lon="-105.2306155">
  <ele>1596.58</ele>
  <time>2026-08-28T19:12:14Z</time>
  <course>15.79</course>
  <speed>0.0</speed>
  <fix>3d</fix>
</trkpt>
<trkpt lat="40.0728137" lon="-105.2306153">
  <ele>1596.65</ele>
  <time>2026-08-28T19:12:14Z</time>
  <course>350.84</course>
  <speed>0.02</speed>
  <fix>3d</fix>
</trkpt>
<trkpt lat="40.0728137" lon="-105.2306155">
  <ele>1596.58</ele>
  <time>2026-08-28T19:12:14Z</time>
  <course>17.48</course>
  <speed>0.0</speed>
  <fix>3d</fix>
</trkpt>
<trkpt lat="40.0728137" lon="-105.2306153">
  <ele>1596.66</ele>
  <time>2026-08-28T19:12:14Z</time>
  <course>350.85</course>
  <speed>0.02</speed>
  <fix>3d</fix>
</trkpt>
<trkpt lat="40.0728137" lon="-105.2306155">
  <ele>1596.58</ele>
  <time>2026-08-28T19:12:14Z</time>
  <course>21.91</course>
  <speed>0.0</speed>
  <fix>3d</fix>
</trkpt>
<trkpt lat="40.0728137" lon="-105.2306153">
  <ele>1596.66</ele>
  <time>2026-08-28T19:12:14Z</time>
  <course>350.85</course>
  <speed>0.02</speed>
  <fix>3d</fix>
</trkpt>
<trkpt lat="40.0728137" lon="-105.2306155">
  <ele>1596.58</ele>
  <time>2026-08-28T19:12:14Z</time>
  <course>25.61</course>
  <speed>0.0</speed>
  <fix>3d</fix>
</trkpt>
<trkpt lat="40.0728137" lon="-105.2306153">
  <ele>1596.66</ele>
  <time>2026-08-28T19:12:14Z</time>
  <course>350.86</course>
  <speed>0.02</speed>
  <fix>3d</fix>
</trkpt>
<trkpt lat="40.0728137" lon="-105.2306155">
  <ele>1596.59</ele>
  <time>2026-08-28T19:12:14Z</time>
  <course>25.44</course>
  <speed>0.0</speed>
  <fix>3d</fix>
</trkpt>
<trkpt lat="40.0728137" lon="-105.2306153">
  <ele>1596.65</ele>
  <time>2026-08-28T19:12:14Z</time>
  <course>350.87</course>
  <speed>0.02</speed>
  <fix>3d</fix>
</trkpt>
<trkpt lat="40.0728137" lon="-105.2306155">
  <ele>1596.59</ele>
  <time>2026-08-28T19:12:14Z</time>
  <course>22.25</course>
  <speed>0.0</speed>
  <fix>3d</fix>
</trkpt>
<trkpt lat="40.0728137" lon="-105.2306153">
  <ele>1596.66</ele>
  <time>2026-08-28T19:12:14Z</time>
  <course>350.87</course>
  <speed>0.02</speed>
  <fix>3d</fix>
</trkpt>
<trkpt lat="40.0728137" lon="-105.2306155">
  <ele>1596.59</ele>
  <time>2026-08-28T19:12:14Z</time>
  <course>21.13</course>
  <speed>0.0</speed>
  <fix>3d</fix>
</trkpt>
<trkpt lat="40.0728137" lon="-105.2306153">
  <ele>1596.66</ele>
  <time>2026-08-28T19:12:14Z</time>
  <course>350.87</course>
  <speed>0.02</speed>
  <fix>3d</fix>
</trkpt>
<trkpt lat="40.0728137" lon="-105.2306155">
  <ele>1596.59</ele>
  <time>2026-08-28T19:12:14Z</time>
  <course>23.41</course>
  <speed>0.0</speed>
  <fix>3d</fix>
</trkpt>
<trkpt lat="40.0728137" lon="-105.2306153">
  <ele>1596.66</ele>
  <time>2026-08-28T19:12:14Z</time>
  <course>350.88</course>
  <speed>0.02</speed>
  <fix>3d</fix>
</trkpt>
<trkpt lat="40.0728137" lon="-105.2306155">
  <ele>1596.59</ele>
  <time>2026-08-28T19:12:14Z</time>
  <course>22.8</course>
  <speed>0.0</speed>
  <fix>3d</fix>
</trkpt>
<trkpt lat="40.0728137" lon="-105.2306153">
  <ele>1596.65</ele>
  <time>2026-08-28T19:12:14Z</time>
  <course>350.88</course>
  <speed>0.022360679774997897</speed>
  <fix>3d</fix>
</trkpt>
<trkpt lat="40.0728137" lon="-105.2306155">
  <ele>1596.59</ele>
  <time>2026-08-28T19:12:14Z</time>
  <course>19.85</course>
  <speed>0.0</speed>
  <fix>3d</fix>
</trkpt>
<trkpt lat="40.0728137" lon="-105.2306153">
  <ele>1596.65</ele>
  <time>2026-08-28T19:12:14Z</time>
  <course>350.88</course>
  <speed>0.022360679774997897</speed>
  <fix>3d</fix>
</trkpt>
<trkpt lat="40.0728137" lon="-105.2306155">
  <ele>1596.58</ele>
  <time>2026-08-28T19:12:14Z</time>
  <course>21.75</course>
  <speed>0.0</speed>
  <fix>3d</fix>
</trkpt>
<trkpt lat="40.0728137" lon="-105.2306153">
  <ele>1596.66</ele>
  <time>2026-08-28T19:12:14Z</time>
  <course>350.88</course>
  <speed>0.022360679774997897</speed>
  <fix>3d</fix>
</trkpt>
<trkpt lat="40.0728137" lon="-105.2306155">
  <ele>1596.58</ele>
  <time>2026-08-28T19:12:14Z</time>
  <course>28.29</course>
  <speed>0.0</speed>
  <fix>3d</fix>
</trkpt>
<trkpt lat="40.0728137" lon="-105.2306153">
  <ele>1596.65</ele>
  <time>2026-08-28T19:12:14Z</time>
  <course>350.88</course>
  <speed>0.022360679774997897</speed>
  <fix>3d</fix>
</trkpt>
<trkpt lat="40.0728137" lon="-105.2306155">
  <ele>1596.58</ele>
  <time>2026-08-28T19:12:14Z</time>
  <course>31.22</course>
  <speed>0.0</speed>
  <fix>3d</fix>
</trkpt>
<trkpt lat="40.0728137" lon="-105.2306153">
  <ele>1596.65</ele>
  <time>2026-08-28T19:12:14Z</time>
  <course>350.88</course>
  <speed>0.022360679774997897</speed>
  <fix>3d</fix>
</trkpt>
<trkpt lat="40.0728137" lon="-105.2306154">
  <ele>1596.58</ele>
  <time>2026-08-28T19:12:14Z</time>
  <course>28.54</course>
  <speed>0.0</speed>
  <fix>3d</fix>
</trkpt>
<trkpt lat="40.0728137" lon="-105.2306153">
  <ele>1596.66</ele>
  <time>2026-08-28T19:12:14Z</time>
  <course>350.88</course>
  <speed>0.022360679774997897</speed>
  <fix>3d</fix>
</trkpt>
<trkpt lat="40.0728137" lon="-105.2306153">
  <ele>1596.58</ele>
  <time>2026-08-28T19:12:14Z</time>
  <course>25.32</course>
  <speed>0.0</speed>
  <fix>3d</fix>
</trkpt>
<trkpt lat="40.0728137" lon="-105.2306153">
  <ele>1596.66</ele>
  <time>2026-08-28T19:12:14Z</time>
  <course>350.88</course>
  <speed>0.022360679774997897</speed>
  <fix>3d</fix>
</trkpt>
<trkpt lat="40.0728137" lon="-105.2306153">
  <ele>1596.58</ele>
  <time>2026-08-28T19:12:14Z</time>
  <course>24.6</course>
  <speed>0.0</speed>
  <fix>3d</fix>
</trkpt>
<trkpt lat="40.0728137" lon="-105.2306152">
  <ele>1596.66</ele>
  <time>2026-08-28T19:12:14Z</time>
  <course>350.9</course>
  <speed>0.022360679774997897</speed>
  <fix>3d</fix>
</trkpt>
<trkpt lat="40.0728137" lon="-105.2306153">
  <ele>1596.58</ele>
  <time>2026-08-28T19:12:14Z</time>
  <course>20.54</course>
  <speed>0.0</speed>
  <fix>3d</fix>
</trkpt>
<trkpt lat="40.0728137" lon="-105.2306152">
  <ele>1596.65</ele>
  <time>2026-08-28T19:12:14Z</time>
  <course>350.9</course>
  <speed>0.022360679774997897</speed>
  <fix>3d</fix>
</trkpt>
<trkpt lat="40.0728137" lon="-105.2306153">
  <ele>1596.58</ele>
  <time>2026-08-28T19:12:14Z</time>
  <course>10.22</course>
  <speed>0.0</speed>
  <fix>3d</fix>
</trkpt>
<trkpt lat="40.0728137" lon="-105.2306152">
  <ele>1596.65</ele>
  <time>2026-08-28T19:12:14Z</time>
  <course>350.9</course>
  <speed>0.022360679774997897</speed>
  <fix>3d</fix>
</trkpt>
<trkpt lat="40.0728137" lon="-105.2306153">
  <ele>1596.58</ele>
  <time>2026-08-28T19:12:14Z</time>
  <course>358.38</course>
  <speed>0.0</speed>
  <fix>3d</fix>
</trkpt>
<trkpt lat="40.0728137" lon="-105.2306152">
  <ele>1596.65</ele>
  <time>2026-08-28T19:12:14Z</time>
  <course>350.9</course>
  <speed>0.022360679774997897</speed>
  <fix>3d</fix>
</trkpt>
<trkpt lat="40.0728137" lon="-105.2306153">
  <ele>1596.58</ele>
  <time>2026-08-28T19:12:14Z</time>
  <course>341.88</course>
  <speed>0.0</speed>
  <fix>3d</fix>
</trkpt>
<trkpt lat="40.0728137" lon="-105.2306152">
  <ele>1596.66</ele>
  <time>2026-08-28T19:12:14Z</time>
  <course>350.89</course>
  <speed>0.022360679774997897</speed>
  <fix>3d</fix>
</trkpt>
<trkpt lat="40.0728137" lon="-105.2306153">
  <ele>1596.58</ele>
  <time>2026-08-28T19:12:14Z</time>
  <course>323.62</course>
  <speed>0.0</speed>
  <fix>3d</fix>
</trkpt>
<trkpt lat="40.0728137" lon="-105.2306152">
  <ele>1596.66</ele>
  <time>2026-08-28T19:12:14Z</time>
  <course>350.89</course>
  <speed>0.022360679774997897</speed>
  <fix>3d</fix>
</trkpt>
<trkpt lat="40.0728137" lon="-105.2306153">
  <ele>1596.58</ele>
  <time>2026-08-28T19:12:14Z</time>
  <course>308.96</course>
  <speed>0.0</speed>
  <fix>3d</fix>
</trkpt>
<trkpt lat="40.0728137" lon="-105.2306152">
  <ele>1596.66</ele>
  <time>2026-08-28T19:12:14Z</time>
  <course>350.9</course>
  <speed>0.022360679774997897</speed>
  <fix>3d</fix>
</trkpt>
<trkpt lat="40.0728137" lon="-105.2306153">
  <ele>1596.58</ele>
  <time>2026-08-28T19:12:14Z</time>
  <course>301.53</course>
  <speed>0.0</speed>
  <fix>3d</fix>
</trkpt>
<trkpt lat="40.0728137" lon="-105.2306152">
  <ele>1596.66</ele>
  <time>2026-08-28T19:12:14Z</time>
  <course>350.92</course>
  <speed>0.01414213562373095</speed>
  <fix>3d</fix>
</trkpt>
<trkpt lat="40.0728137" lon="-105.2306153">
  <ele>1596.58</ele>
  <time>2026-08-28T19:12:14Z</time>
  <course>296.91</course>
  <speed>0.0</speed>
  <fix>3d</fix>
</trkpt>
<trkpt lat="40.0728137" lon="-105.2306152">
  <ele>1596.67</ele>
  <time>2026-08-28T19:12:14Z</time>
  <course>350.93</course>
  <speed>0.01414213562373095</speed>
  <fix>3d</fix>
</trkpt>
<trkpt lat="40.0728137" lon="-105.2306153">
  <ele>1596.57</ele>
  <time>2026-08-28T19:12:14Z</time>
  <course>292.92</course>
  <speed>0.0</speed>
  <fix>3d</fix>
</trkpt>
<trkpt lat="40.0728137" lon="-105.2306152">
  <ele>1596.66</ele>
  <time>2026-08-28T19:12:14Z</time>
  <course>350.95</course>
  <speed>0.01414213562373095</speed>
  <fix>3d</fix>
</trkpt>
<trkpt lat="40.0728138" lon="-105.2306153">
  <ele>1596.57</ele>
  <time>2026-08-28T19:12:14Z</time>
  <course>291.92</course>
  <speed>0.0</speed>
  <fix>3d</fix>
</trkpt>
<trkpt lat="40.0728137" lon="-105.2306152">
  <ele>1596.66</ele>
  <time>2026-08-28T19:12:14Z</time>
  <course>350.96</course>
  <speed>0.01414213562373095</speed>
  <fix>3d</fix>
</trkpt>
<trkpt lat="40.0728138" lon="-105.2306153">
  <ele>1596.57</ele>
  <time>2026-08-28T19:12:14Z</time>
  <course>292.91</course>
  <speed>0.0</speed>
  <fix>3d</fix>
</trkpt>
<trkpt lat="40.0728137" lon="-105.2306152">
  <ele>1596.66</ele>
  <time>2026-08-28T19:12:14Z</time>
  <course>350.95</course>
  <speed>0.01414213562373095</speed>
  <fix>3d</fix>
</trkpt>
<trkpt lat="40.0728138" lon="-105.2306153">
  <ele>1596.56</ele>
  <time>2026-08-28T19:12:14Z</time>
  <course>294.93</course>
  <speed>0.0</speed>
  <fix>3d</fix>
</trkpt>
<trkpt lat="40.0728137" lon="-105.2306152">
  <ele>1596.65</ele>
  <time>2026-08-28T19:12:14Z</time>
  <course>350.94</course>
  <speed>0.01414213562373095</speed>
  <fix>3d</fix>
</trkpt>
<trkpt lat="40.0728138" lon="-105.2306154">
  <ele>1596.56</ele>
  <time>2026-08-28T19:12:14Z</time>
  <course>294.44</course>
  <speed>0.0</speed>
  <fix>3d</fix>
</trkpt>
<trkpt lat="40.0728137" lon="-105.2306152">
  <ele>1596.65</ele>
  <time>2026-08-28T19:12:14Z</time>
  <course>350.93</course>
  <speed>0.01414213562373095</speed>
  <fix>3d</fix>
</trkpt>
<trkpt lat="40.0728138" lon="-105.2306155">
  <ele>1596.56</ele>
  <time>2026-08-28T19:12:14Z</time>
  <course>290.18</course>
  <speed>0.0</speed>
  <fix>3d</fix>
</trkpt>
<trkpt lat="40.0728137" lon="-105.2306152">
  <ele>1596.64</ele>
  <time>2026-08-28T19:12:14Z</time>
  <course>350.92</course>
  <speed>0.01414213562373095</speed>
  <fix>3d</fix>
</trkpt>
<trkpt lat="40.0728138" lon="-105.2306155">
  <ele>1596.56</ele>
  <time>2026-08-28T19:12:14Z</time>
  <course>283.19</course>
  <speed>0.0</speed>
  <fix>3d</fix>
</trkpt>
<trkpt lat="40.0728137" lon="-105.2306152">
  <ele>1596.64</ele>
  <time>2026-08-28T19:12:14Z</time>
  <course>350.91</course>
  <speed>0.01414213562373095</speed>
  <fix>3d</fix>
</trkpt>
<trkpt lat="40.0728138" lon="-105.2306155">
  <ele>1596.56</ele>
  <time>2026-08-28T19:12:14Z</time>
  <course>274.85</course>
  <speed>0.0</speed>
  <fix>3d</fix>
</trkpt>
<trkpt lat="40.0728137" lon="-105.2306152">
  <ele>1596.64</ele>
  <time>2026-08-28T19:12:14Z</time>
  <course>350.88</course>
  <speed>0.01414213562373095</speed>
  <fix>3d</fix>
</trkpt>
<trkpt lat="40.0728138" lon="-105.2306155">
  <ele>1596.56</ele>
  <time>2026-08-28T19:12:14Z</time>
  <course>265.79</course>
  <speed>0.0</speed>
  <fix>3d</fix>
</trkpt>
<trkpt lat="40.0728137" lon="-105.2306152">
  <ele>1596.64</ele>
  <time>2026-08-28T19:12:14Z</time>
  <course>350.85</course>
  <speed>0.01414213562373095</speed>
  <fix>3d</fix>
</trkpt>
<trkpt lat="40.0728138" lon="-105.2306155">
  <ele>1596.56</ele>
  <time>2026-08-28T19:12:14Z</time>
  <course>256.01</course>
  <speed>0.0</speed>
  <fix>3d</fix>
</trkpt>
<trkpt lat="40.0728137" lon="-105.2306152">
  <ele>1596.64</ele>
  <time>2026-08-28T19:12:14Z</time>
  <course>350.83</course>
  <speed>0.022360679774997897</speed>
  <fix>3d</fix>
</trkpt>
<trkpt lat="40.0728138" lon="-105.2306155">
  <ele>1596.56</ele>
  <time>2026-08-28T19:12:14Z</time>
  <course>246.88</course>
  <speed>0.0</speed>
  <fix>3d</fix>
</trkpt>
<trkpt lat="40.0728137" lon="-105.2306152">
  <ele>1596.64</ele>
  <time>2026-08-28T19:12:14Z</time>
  <course>350.82</course>
  <speed>0.022360679774997897</speed>
  <fix>3d</fix>
</trkpt>
<trkpt lat="40.0728138" lon="-105.2306155">
  <ele>1596.56</ele>
  <time>2026-08-28T19:12:14Z</time>
  <course>236.6</course>
  <speed>0.0</speed>
  <fix>3d</fix>
</trkpt>
<trkpt lat="40.0728137" lon="-105.2306152">
  <ele>1596.64</ele>
  <time>2026-08-28T19:12:14Z</time>
  <course>350.82</course>
  <speed>0.022360679774997897</speed>
  <fix>3d</fix>
</trkpt>
<trkpt lat="40.0728138" lon="-105.2306155">
  <ele>1596.56</ele>
  <time>2026-08-28T19:12:14Z</time>
  <course>223.28</course>
  <speed>0.0</speed>
  <fix>3d</fix>
</trkpt>
<trkpt lat="40.0728137" lon="-105.2306152">
  <ele>1596.64</ele>
  <time>2026-08-28T19:12:14Z</time>
  <course>350.81</course>
  <speed>0.022360679774997897</speed>
  <fix>3d</fix>
</trkpt>
<trkpt lat="40.0728138" lon="-105.2306155">
  <ele>1596.57</ele>
  <time>2026-08-28T19:12:14Z</time>
  <course>207.41</course>
  <speed>0.0</speed>
  <fix>3d</fix>
</trkpt>
<trkpt lat="40.0728137" lon="-105.2306152">
  <ele>1596.64</ele>
  <time>2026-08-28T19:12:14Z</time>
  <course>350.8</course>
  <speed>0.022360679774997897</speed>
  <fix>3d</fix>
</trkpt>
<trkpt lat="40.0728138" lon="-105.2306155">
  <ele>1596.57</ele>
  <time>2026-08-28T19:12:14Z</time>
  <course>192.92</course>
  <speed>0.0</speed>
  <fix>3d</fix>
</trkpt>
<trkpt lat="40.0728137" lon="-105.2306152">
  <ele>1596.64</ele>
  <time>2026-08-28T19:12:14Z</time>
  <course>350.8</course>
  <speed>0.022360679774997897</speed>
  <fix>3d</fix>
</trkpt>
<trkpt lat="40.0728138" lon="-105.2306155">
  <ele>1596.57</ele>
  <time>2026-08-28T19:12:14Z</time>
  <course>181.39</course>
  <speed>0.0</speed>
  <fix>3d</fix>
</trkpt>
<trkpt lat="40.0728137" lon="-105.2306152">
  <ele>1596.64</ele>
  <time>2026-08-28T19:12:14Z</time>
  <course>350.8</course>
  <speed>0.022360679774997897</speed>
  <fix>3d</fix>
</trkpt>
<trkpt lat="40.0728138" lon="-105.2306155">
  <ele>1596.58</ele>
  <time>2026-08-28T19:12:14Z</time>
  <course>175.0</course>
  <speed>0.0</speed>
  <fix>3d</fix>
</trkpt>
<trkpt lat="40.0728137" lon="-105.2306152">
  <ele>1596.65</ele>
  <time>2026-08-28T19:12:14Z</time>
  <course>350.79</course>
  <speed>0.022360679774997897</speed>
  <fix>3d</fix>
</trkpt>
<trkpt lat="40.0728138" lon="-105.2306155">
  <ele>1596.58</ele>
  <time>2026-08-28T19:12:14Z</time>
  <course>172.86</course>
  <speed>0.0</speed>
  <fix>3d</fix>
</trkpt>
<trkpt lat="40.0728137" lon="-105.2306152">
  <ele>1596.65</ele>
  <time>2026-08-28T19:12:14Z</time>
  <course>350.8</course>
  <speed>0.022360679774997897</speed>
  <fix>3d</fix>
</trkpt>
<trkpt lat="40.0728138" lon="-105.2306155">
  <ele>1596.58</ele>
  <time>2026-08-28T19:12:14Z</time>
  <course>172.51</course>
  <speed>0.0</speed>
  <fix>3d</fix>
</trkpt>
<trkpt lat="40.0728137" lon="-105.2306152">
  <ele>1596.65</ele>
  <time>2026-08-28T19:12:14Z</time>
  <course>350.8</course>
  <speed>0.022360679774997897</speed>
  <fix>3d</fix>
</trkpt>
<trkpt lat="40.0728138" lon="-105.2306155">
  <ele>1596.58</ele>
  <time>2026-08-28T19:12:14Z</time>
  <course>173.52</course>
  <speed>0.0</speed>
  <fix>3d</fix>
</trkpt>
<trkpt lat="40.0728137" lon="-105.2306152">
  <ele>1596.66</ele>
  <time>2026-08-28T19:12:14Z</time>
  <course>350.8</course>
  <speed>0.022360679774997897</speed>
  <fix>3d</fix>
</trkpt>
<trkpt lat="40.0728138" lon="-105.2306155">
  <ele>1596.59</ele>
  <time>2026-08-28T19:12:14Z</time>
  <course>173.68</course>
  <speed>0.0</speed>
  <fix>3d</fix>
</trkpt>
<trkpt lat="40.0728137" lon="-105.2306152">
  <ele>1596.66</ele>
  <time>2026-08-28T19:12:14Z</time>
  <course>350.81</course>
  <speed>0.022360679774997897</speed>
  <fix>3d</fix>
</trkpt>
<trkpt lat="40.0728138" lon="-105.2306155">
  <ele>1596.59</ele>
  <time>2026-08-28T19:12:14Z</time>
  <course>173.6</course>
  <speed>0.0</speed>
  <fix>3d</fix>
</trkpt>
<trkpt lat="40.0728137" lon="-105.2306152">
  <ele>1596.66</ele>
  <time>2026-08-28T19:12:14Z</time>
  <course>350.84</course>
  <speed>0.022360679774997897</speed>
  <fix>3d</fix>
</trkpt>
<trkpt lat="40.0728138" lon="-105.2306155">
  <ele>1596.59</ele>
  <time>2026-08-28T19:12:14Z</time>
  <course>169.44</course>
  <speed>0.0</speed>
  <fix>3d</fix>
</trkpt>
<trkpt lat="40.0728137" lon="-105.2306152">
  <ele>1596.66</ele>
  <time>2026-08-28T19:12:14Z</time>
  <course>350.86</course>
  <speed>0.022360679774997897</speed>
  <fix>3d</fix>
</trkpt>
<trkpt lat="40.0728138" lon="-105.2306155">
  <ele>1596.59</ele>
  <time>2026-08-28T19:12:14Z</time>
  <course>160.18</course>
  <speed>0.0</speed>
  <fix>3d</fix>
</trkpt>
<trkpt lat="40.0728137" lon="-105.2306152">
  <ele>1596.66</ele>
  <time>2026-08-28T19:12:14Z</time>
  <course>350.88</course>
  <speed>0.022360679774997897</speed>
  <fix>3d</fix>
</trkpt>
<trkpt lat="40.0728138" lon="-105.2306155">
  <ele>1596.59</ele>
  <time>2026-08-28T19:12:14Z</time>
  <course>150.36</course>
  <speed>0.0</speed>
  <fix>3d</fix>
</trkpt>
<trkpt lat="40.0728137" lon="-105.2306152">
  <ele>1596.66</ele>
  <time>2026-08-28T19:12:14Z</time>
  <course>350.89</course>
  <speed>0.022360679774997897</speed>
  <fix>3d</fix>
</trkpt>
<trkpt lat="40.0728138" lon="-105.2306155">
  <ele>1596.58</ele>
  <time>2026-08-28T19:12:14Z</time>
  <course>142.99</course>
  <speed>0.0</speed>
  <fix>3d</fix>
</trkpt>
<trkpt lat="40.0728137" lon="-105.2306152">
  <ele>1596.66</ele>
  <time>2026-08-28T19:12:14Z</time>
  <course>350.89</course>
  <speed>0.022360679774997897</speed>
  <fix>3d</fix>
</trkpt>
<trkpt lat="40.0728138" lon="-105.2306155">
  <ele>1596.58</ele>
  <time>2026-08-28T19:12:14Z</time>
  <course>139.9</course>
  <speed>0.0</speed>
  <fix>3d</fix>
</trkpt>
<trkpt lat="40.0728137" lon="-105.2306152">
  <ele>1596.66</ele>
  <time>2026-08-28T19:12:14Z</time>
  <course>350.89</course>
  <speed>0.022360679774997897</speed>
  <fix>3d</fix>
</trkpt>
<trkpt lat="40.0728137" lon="-105.2306155">
  <ele>1596.58</ele>
  <time>2026-08-28T19:12:14Z</time>
  <course>141.91</course>
  <speed>0.0</speed>
  <fix>3d</fix>
</trkpt>
<trkpt lat="40.0728137" lon="-105.2306152">
  <ele>1596.66</ele>
  <time>2026-08-28T19:12:14Z</time>
  <course>350.89</course>
  <speed>0.022360679774997897</speed>
  <fix>3d</fix>
</trkpt>
<trkpt lat="40.0728137" lon="-105.2306155">
  <ele>1596.58</ele>
  <time>2026-08-28T19:12:14Z</time>
  <course>142.21</course>
  <speed>0.0</speed>
  <fix>3d</fix>
</trkpt>
<trkpt lat="40.0728137" lon="-105.2306152">
  <ele>1596.65</ele>
  <time>2026-08-28T19:12:14Z</time>
  <course>350.89</course>
  <speed>0.022360679774997897</speed>
  <fix>3d</fix>
</trkpt>
<trkpt lat="40.0728137" lon="-105.2306155">
  <ele>1596.58</ele>
  <time>2026-08-28T19:12:14Z</time>
  <course>138.83</course>
  <speed>0.0</speed>
  <fix>3d</fix>
</trkpt>
<trkpt lat="40.0728137" lon="-105.2306152">
  <ele>1596.65</ele>
  <time>2026-08-28T19:12:14Z</time>
  <course>350.88</course>
  <speed>0.022360679774997897</speed>
  <fix>3d</fix>
</trkpt>
<trkpt lat="40.0728137" lon="-105.2306155">
  <ele>1596.58</ele>
  <time>2026-08-28T19:12:14Z</time>
  <course>133.13</course>
  <speed>0.0</speed>
  <fix>3d</fix>
</trkpt>
<trkpt lat="40.0728137" lon="-105.2306152">
  <ele>1596.65</ele>
  <time>2026-08-28T19:12:14Z</time>
  <course>350.87</course>
  <speed>0.022360679774997897</speed>
  <fix>3d</fix>
</trkpt>
<trkpt lat="40.0728137" lon="-105.2306155">
  <ele>1596.58</ele>
  <time>2026-08-28T19:12:14Z</time>
  <course>126.13</course>
  <speed>0.0</speed>
  <fix>3d</fix>
</trkpt>
<trkpt lat="40.0728137" lon="-105.2306152">
  <ele>1596.65</ele>
  <time>2026-08-28T19:12:14Z</time>
  <course>350.85</course>
  <speed>0.022360679774997897</speed>
  <fix>3d</fix>
</trkpt>
<trkpt lat="40.0728137" lon="-105.2306155">
  <ele>1596.57</ele>
  <time>2026-08-28T19:12:14Z</time>
  <course>122.4</course>
  <speed>0.0</speed>
  <fix>3d</fix>
</trkpt>
<trkpt lat="40.0728137" lon="-105.2306152">
  <ele>1596.64</ele>
  <time>2026-08-28T19:12:14Z</time>
  <course>350.85</course>
  <speed>0.022360679774997897</speed>
  <fix>3d</fix>
</trkpt>
<trkpt lat="40.0728137" lon="-105.2306155">
  <ele>1596.57</ele>
  <time>2026-08-28T19:12:14Z</time>
  <course>120.01</course>
  <speed>0.0</speed>
  <fix>3d</fix>
</trkpt>
<trkpt lat="40.0728137" lon="-105.2306152">
  <ele>1596.64</ele>
  <time>2026-08-28T19:12:14Z</time>
  <course>350.84</course>
  <speed>0.022360679774997897</speed>
  <fix>3d</fix>
</trkpt>
<trkpt lat="40.0728137" lon="-105.2306155">
  <ele>1596.57</ele>
  <time>2026-08-28T19:12:14Z</time>
  <course>116.7</course>
  <speed>0.0</speed>
  <fix>3d</fix>
</trkpt>
<trkpt lat="40.0728137" lon="-105.2306152">
  <ele>1596.64</ele>
  <time>2026-08-28T19:12:14Z</time>
  <course>350.83</course>
  <speed>0.022360679774997897</speed>
  <fix>3d</fix>
</trkpt>
<trkpt lat="40.0728137" lon="-105.2306155">
  <ele>1596.57</ele>
  <time>2026-08-28T19:12:14Z</time>
  <course>111.69</course>
  <speed>0.0</speed>
  <fix>3d</fix>
</trkpt>
<trkpt lat="40.0728137" lon="-105.2306152">
  <ele>1596.64</ele>
  <time>2026-08-28T19:12:14Z</time>
  <course>350.82</course>
  <speed>0.022360679774997897</speed>
  <fix>3d</fix>
</trkpt>
<trkpt lat="40.0728137" lon="-105.2306155">
  <ele>1596.57</ele>
  <time>2026-08-28T19:12:14Z</time>
  <course>101.16</course>
  <speed>0.0</speed>
  <fix>3d</fix>
</trkpt>
<trkpt lat="40.0728137" lon="-105.2306152">
  <ele>1596.65</ele>
  <time>2026-08-28T19:12:14Z</time>
  <course>350.82</course>
  <speed>0.022360679774997897</speed>
  <fix>3d</fix>
</trkpt>
<trkpt lat="40.0728137" lon="-105.2306155">
  <ele>1596.58</ele>
  <time>2026-08-28T19:12:14Z</time>
  <course>84.12</course>
  <speed>0.0</speed>
  <fix>3d</fix>
</trkpt>
<trkpt lat="40.0728137" lon="-105.2306152">
  <ele>1596.65</ele>
  <time>2026-08-28T19:12:14Z</time>
  <course>350.82</course>
  <speed>0.022360679774997897</speed>
  <fix>3d</fix>
</trkpt>
<trkpt lat="40.0728137" lon="-105.2306155">
  <ele>1596.58</ele>
  <time>2026-08-28T19:12:14Z</time>
  <course>65.76</course>
  <speed>0.0</speed>
  <fix>3d</fix>
</trkpt>
<trkpt lat="40.0728137" lon="-105.2306152">
  <ele>1596.66</ele>
  <time>2026-08-28T19:12:14Z</time>
  <course>350.82</course>
  <speed>0.02</speed>
  <fix>3d</fix>
</trkpt>
<trkpt lat="40.0728137" lon="-105.2306155">
  <ele>1596.58</ele>
  <time>2026-08-28T19:12:14Z</time>
  <course>52.23</course>
  <speed>0.0</speed>
  <fix>3d</fix>
</trkpt>
<trkpt lat="40.0728137" lon="-105.2306152">
  <ele>1596.66</ele>
  <time>2026-08-28T19:12:14Z</time>
  <course>350.83</course>
  <speed>0.022360679774997897</speed>
  <fix>3d</fix>
</trkpt>
<trkpt lat="40.0728137" lon="-105.2306155">
  <ele>1596.58</ele>
  <time>2026-08-28T19:12:14Z</time>
  <course>45.13</course>
  <speed>0.0</speed>
  <fix>3d</fix>
</trkpt>
<trkpt lat="40.0728137" lon="-105.2306152">
  <ele>1596.66</ele>
  <time>2026-08-28T19:12:14Z</time>
  <course>350.85</course>
  <speed>0.022360679774997897</speed>
  <fix>3d</fix>
</trkpt>
<trkpt lat="40.0728137" lon="-105.2306155">
  <ele>1596.58</ele>
  <time>2026-08-28T19:12:14Z</time>
  <course>45.62</course>
  <speed>0.0</speed>
  <fix>3d</fix>
</trkpt>
<trkpt lat="40.0728137" lon="-105.2306152">
  <ele>1596.66</ele>
  <time>2026-08-28T19:12:14Z</time>
  <course>350.88</course>
  <speed>0.022360679774997897</speed>
  <fix>3d</fix>
</trkpt>
<trkpt lat="40.0728137" lon="-105.2306155">
  <ele>1596.58</ele>
  <time>2026-08-28T19:12:14Z</time>
  <course>50.51</course>
  <speed>0.0</speed>
  <fix>3d</fix>
</trkpt>
<trkpt lat="40.0728137" lon="-105.2306152">
  <ele>1596.66</ele>
  <time>2026-08-28T19:12:14Z</time>
  <course>350.88</course>
  <speed>0.022360679774997897</speed>
  <fix>3d</fix>
</trkpt>
<trkpt lat="40.0728137" lon="-105.2306155">
  <ele>1596.58</ele>
  <time>2026-08-28T19:12:14Z</time>
  <course>54.18</course>
  <speed>0.0</speed>
  <fix>3d</fix>
</trkpt>
<trkpt lat="40.0728137" lon="-105.2306152">
  <ele>1596.66</ele>
  <time>2026-08-28T19:12:14Z</time>
  <course>350.87</course>
  <speed>0.022360679774997897</speed>
  <fix>3d</fix>
</trkpt>
<trkpt lat="40.0728137" lon="-105.2306155">
  <ele>1596.57</ele>
  <time>2026-08-28T19:12:14Z</time>
  <course>55.35</course>
  <speed>0.0</speed>
  <fix>3d</fix>
</trkpt>
<trkpt lat="40.0728137" lon="-105.2306152">
  <ele>1596.66</ele>
  <time>2026-08-28T19:12:14Z</time>
  <course>350.86</course>
  <speed>0.022360679774997897</speed>
  <fix>3d</fix>
</trkpt>
<trkpt lat="40.0728137" lon="-105.2306155">
  <ele>1596.57</ele>
  <time>2026-08-28T19:12:14Z</time>
  <course>54.8</course>
  <speed>0.0</speed>
  <fix>3d</fix>
</trkpt>
<trkpt lat="40.0728137" lon="-105.2306152">
  <ele>1596.66</ele>
  <time>2026-08-28T19:12:14Z</time>
  <course>350.86</course>
  <speed>0.022360679774997897</speed>
  <fix>3d</fix>
</trkpt>
<trkpt lat="40.0728137" lon="-105.2306155">
  <ele>1596.57</ele>
  <time>2026-08-28T19:12:14Z</time>
  <course>54.2</course>
  <speed>0.0</speed>
  <fix>3d</fix>
</trkpt>
<trkpt lat="40.0728137" lon="-105.2306152">
  <ele>1596.66</ele>
  <time>2026-08-28T19:12:14Z</time>
  <course>350.86</course>
  <speed>0.022360679774997897</speed>
  <fix>3d</fix>
</trkpt>
<trkpt lat="40.0728137" lon="-105.2306155">
  <ele>1596.57</ele>
  <time>2026-08-28T19:12:14Z</time>
  <course>54.64</course>
  <speed>0.0</speed>
  <fix>3d</fix>
</trkpt>
<trkpt lat="40.0728137" lon="-105.2306152">
  <ele>1596.65</ele>
  <time>2026-08-28T19:12:14Z</time>
  <course>350.87</course>
  <speed>0.022360679774997897</speed>
  <fix>3d</fix>
</trkpt>
<trkpt lat="40.0728137" lon="-105.2306155">
  <ele>1596.57</ele>
  <time>2026-08-28T19:12:14Z</time>
  <course>55.15</course>
  <speed>0.0</speed>
  <fix>3d</fix>
</trkpt>
<trkpt lat="40.0728137" lon="-105.2306152">
  <ele>1596.65</ele>
  <time>2026-08-28T19:12:14Z</time>
  <course>350.86</course>
  <speed>0.022360679774997897</speed>
  <fix>3d</fix>
</trkpt>
<trkpt lat="40.0728137" lon="-105.2306155">
  <ele>1596.56</ele>
  <time>2026-08-28T19:12:14Z</time>
  <course>54.66</course>
  <speed>0.0</speed>
  <fix>3d</fix>
</trkpt>
<trkpt lat="40.0728137" lon="-105.2306152">
  <ele>1596.65</ele>
  <time>2026-08-28T19:12:15Z</time>
  <course>350.86</course>
  <speed>0.022360679774997897</speed>
  <fix>3d</fix>
</trkpt>
<trkpt lat="40.0728137" lon="-105.2306155">
  <ele>1596.56</ele>
  <time>2026-08-28T19:12:15Z</time>
  <course>50.77</course>
  <speed>0.0</speed>
  <fix>3d</fix>
</trkpt>
<trkpt lat="40.0728137" lon="-105.2306152">
  <ele>1596.65</ele>
  <time>2026-08-28T19:12:15Z</time>
  <course>350.85</course>
  <speed>0.022360679774997897</speed>
  <fix>3d</fix>
</trkpt>
<trkpt lat="40.0728137" lon="-105.2306155">
  <ele>1596.56</ele>
  <time>2026-08-28T19:12:15Z</time>
  <course>44.08</course>
  <speed>0.0</speed>
  <fix>3d</fix>
</trkpt>
<trkpt lat="40.0728137" lon="-105.2306152">
  <ele>1596.65</ele>
  <time>2026-08-28T19:12:15Z</time>
  <course>350.85</course>
  <speed>0.022360679774997897</speed>
  <fix>3d</fix>
</trkpt>
<trkpt lat="40.0728137" lon="-105.2306155">
  <ele>1596.56</ele>
  <time>2026-08-28T19:12:15Z</time>
  <course>40.08</course>
  <speed>0.0</speed>
  <fix>3d</fix>
</trkpt>
<trkpt lat="40.0728137" lon="-105.2306152">
  <ele>1596.65</ele>
  <time>2026-08-28T19:12:15Z</time>
  <course>350.85</course>
  <speed>0.022360679774997897</speed>
  <fix>3d</fix>
</trkpt>
<trkpt lat="40.0728137" lon="-105.2306155">
  <ele>1596.56</ele>
  <time>2026-08-28T19:12:15Z</time>
  <course>40.09</course>
  <speed>0.0</speed>
  <fix>3d</fix>
</trkpt>
<trkpt lat="40.0728137" lon="-105.2306152">
  <ele>1596.65</ele>
  <time>2026-08-28T19:12:15Z</time>
  <course>350.85</course>
  <speed>0.022360679774997897</speed>
  <fix>3d</fix>
</trkpt>
<trkpt lat="40.0728137" lon="-105.2306154">
  <ele>1596.56</ele>
  <time>2026-08-28T19:12:15Z</time>
  <course>42.61</course>
  <speed>0.0</speed>
  <fix>3d</fix>
</trkpt>
<trkpt lat="40.0728137" lon="-105.2306152">
  <ele>1596.65</ele>
  <time>2026-08-28T19:12:15Z</time>
  <course>350.85</course>
  <speed>0.022360679774997897</speed>
  <fix>3d</fix>
</trkpt>
<trkpt lat="40.0728137" lon="-105.2306153">
  <ele>1596.56</ele>
  <time>2026-08-28T19:12:15Z</time>
  <course>45.47</course>
  <speed>0.0</speed>
  <fix>3d</fix>
</trkpt>
<trkpt lat="40.0728137" lon="-105.2306152">
  <ele>1596.65</ele>
  <time>2026-08-28T19:12:15Z</time>
  <course>350.85</course>
  <speed>0.022360679774997897</speed>
  <fix>3d</fix>
</trkpt>
<trkpt lat="40.0728137" lon="-105.2306153">
  <ele>1596.56</ele>
  <time>2026-08-28T19:12:15Z</time>
  <course>45.44</course>
  <speed>0.0</speed>
  <fix>3d</fix>
</trkpt>
<trkpt lat="40.0728137" lon="-105.2306152">
  <ele>1596.65</ele>
  <time>2026-08-28T19:12:15Z</time>
  <course>350.85</course>
  <speed>0.022360679774997897</speed>
  <fix>3d</fix>
</trkpt>
<trkpt lat="40.0728137" lon="-105.2306153">
  <ele>1596.56</ele>
  <time>2026-08-28T19:12:15Z</time>
  <course>41.96</course>
  <speed>0.0</speed>
  <fix>3d</fix>
</trkpt>
<trkpt lat="40.0728137" lon="-105.2306152">
  <ele>1596.65</ele>
  <time>2026-08-28T19:12:15Z</time>
  <course>350.85</course>
  <speed>0.022360679774997897</speed>
  <fix>3d</fix>
</trkpt>
<trkpt lat="40.0728137" lon="-105.2306153">
  <ele>1596.56</ele>
  <time>2026-08-28T19:12:15Z</time>
  <course>34.18</course>
  <speed>0.0</speed>
  <fix>3d</fix>
</trkpt>
<trkpt lat="40.0728137" lon="-105.2306152">
  <ele>1596.65</ele>
  <time>2026-08-28T19:12:15Z</time>
  <course>350.85</course>
  <speed>0.022360679774997897</speed>
  <fix>3d</fix>
</trkpt>
<trkpt lat="40.0728137" lon="-105.2306153">
  <ele>1596.56</ele>
  <time>2026-08-28T19:12:15Z</time>
  <course>19.12</course>
  <speed>0.0</speed>
  <fix>3d</fix>
</trkpt>
<trkpt lat="40.0728137" lon="-105.2306152">
  <ele>1596.65</ele>
  <time>2026-08-28T19:12:15Z</time>
  <course>350.85</course>
  <speed>0.022360679774997897</speed>
  <fix>3d</fix>
</trkpt>
<trkpt lat="40.0728137" lon="-105.2306153">
  <ele>1596.56</ele>
  <time>2026-08-28T19:12:15Z</time>
  <course>358.81</course>
  <speed>0.0</speed>
  <fix>3d</fix>
</trkpt>
<trkpt lat="40.0728137" lon="-105.2306152">
  <ele>1596.65</ele>
  <time>2026-08-28T19:12:15Z</time>
  <course>350.86</course>
  <speed>0.022360679774997897</speed>
  <fix>3d</fix>
</trkpt>
<trkpt lat="40.0728137" lon="-105.2306153">
  <ele>1596.56</ele>
  <time>2026-08-28T19:12:15Z</time>
  <course>337.4</course>
  <speed>0.0</speed>
  <fix>3d</fix>
</trkpt>
<trkpt lat="40.0728137" lon="-105.2306152">
  <ele>1596.65</ele>
  <time>2026-08-28T19:12:15Z</time>
  <course>350.85</course>
  <speed>0.01414213562373095</speed>
  <fix>3d</fix>
</trkpt>
<trkpt lat="40.0728137" lon="-105.2306153">
  <ele>1596.56</ele>
  <time>2026-08-28T19:12:15Z</time>
  <course>317.86</course>
  <speed>0.0</speed>
  <fix>3d</fix>
</trkpt>
<trkpt lat="40.0728137" lon="-105.2306152">
  <ele>1596.65</ele>
  <time>2026-08-28T19:12:15Z</time>
  <course>350.85</course>
  <speed>0.01414213562373095</speed>
  <fix>3d</fix>
</trkpt>
<trkpt lat="40.0728137" lon="-105.2306153">
  <ele>1596.56</ele>
  <time>2026-08-28T19:12:15Z</time>
  <course>305.1</course>
  <speed>0.0</speed>
  <fix>3d</fix>
</trkpt>
<trkpt lat="40.0728137" lon="-105.2306152">
  <ele>1596.66</ele>
  <time>2026-08-28T19:12:15Z</time>
  <course>350.85</course>
  <speed>0.01414213562373095</speed>
  <fix>3d</fix>
</trkpt>
<trkpt lat="40.0728137" lon="-105.2306153">
  <ele>1596.56</ele>
  <time>2026-08-28T19:12:15Z</time>
  <course>297.95</course>
  <speed>0.0</speed>
  <fix>3d</fix>
</trkpt>
<trkpt lat="40.0728137" lon="-105.2306152">
  <ele>1596.66</ele>
  <time>2026-08-28T19:12:15Z</time>
  <course>350.86</course>
  <speed>0.01414213562373095</speed>
  <fix>3d</fix>
</trkpt>
<trkpt lat="40.0728137" lon="-105.2306153">
  <ele>1596.55</ele>
  <time>2026-08-28T19:12:15Z</time>
  <course>294.4</course>
  <speed>0.0</speed>
  <fix>3d</fix>
</trkpt>
<trkpt lat="40.0728137" lon="-105.2306152">
  <ele>1596.66</ele>
  <time>2026-08-28T19:12:15Z</time>
  <course>350.86</course>
  <speed>0.01414213562373095</speed>
  <fix>3d</fix>
</trkpt>
<trkpt lat="40.0728138" lon="-105.2306153">
  <ele>1596.55</ele>
  <time>2026-08-28T19:12:15Z</time>
  <course>292.76</course>
  <speed>0.0</speed>
  <fix>3d</fix>
</trkpt>
<trkpt lat="40.0728137" lon="-105.2306152">
  <ele>1596.66</ele>
  <time>2026-08-28T19:12:15Z</time>
  <course>350.87</course>
  <speed>0.01414213562373095</speed>
  <fix>3d</fix>
</trkpt>
<trkpt lat="40.0728138" lon="-105.2306153">
  <ele>1596.55</ele>
  <time>2026-08-28T19:12:15Z</time>
  <course>290.97</course>
  <speed>0.0</speed>
  <fix>3d</fix>
</trkpt>
<trkpt lat="40.0728137" lon="-105.2306152">
  <ele>1596.66</ele>
  <time>2026-08-28T19:12:15Z</time>
  <course>350.88</course>
  <speed>0.01414213562373095</speed>
  <fix>3d</fix>
</trkpt>
<trkpt lat="40.0728138" lon="-105.2306153">
  <ele>1596.55</ele>
  <time>2026-08-28T19:12:15Z</time>
  <course>289.74</course>
  <speed>0.0</speed>
  <fix>3d</fix>
</trkpt>
<trkpt lat="40.0728137" lon="-105.2306152">
  <ele>1596.66</ele>
  <time>2026-08-28T19:12:15Z</time>
  <course>350.88</course>
  <speed>0.01414213562373095</speed>
  <fix>3d</fix>
</trkpt>
<trkpt lat="40.0728138" lon="-105.2306153">
  <ele>1596.54</ele>
  <time>2026-08-28T19:12:15Z</time>
  <course>288.68</course>
  <speed>0.0</speed>
  <fix>3d</fix>
</trkpt>
<trkpt lat="40.0728137" lon="-105.2306152">
  <ele>1596.65</ele>
  <time>2026-08-28T19:12:15Z</time>
  <course>350.88</course>
  <speed>0.01414213562373095</speed>
  <fix>3d</fix>
</trkpt>
<trkpt lat="40.0728138" lon="-105.2306153">
  <ele>1596.54</ele>
  <time>2026-08-28T19:12:15Z</time>
  <course>284.93</course>
  <speed>0.0</speed>
  <fix>3d</fix>
</trkpt>
<trkpt lat="40.0728137" lon="-105.2306152">
  <ele>1596.65</ele>
  <time>2026-08-28T19:12:15Z</time>
  <course>350.86</course>
  <speed>0.01414213562373095</speed>
  <fix>3d</fix>
</trkpt>
<trkpt lat="40.0728138" lon="-105.2306154">
  <ele>1596.54</ele>
  <time>2026-08-28T19:12:15Z</time>
  <course>279.73</course>
  <speed>0.0</speed>
  <fix>3d</fix>
</trkpt>
<trkpt lat="40.0728137" lon="-105.2306152">
  <ele>1596.64</ele>
  <time>2026-08-28T19:12:15Z</time>
  <course>350.84</course>
  <speed>0.01414213562373095</speed>
  <fix>3d</fix>
</trkpt>
<trkpt lat="40.0728138" lon="-105.2306155">
  <ele>1596.54</ele>
  <time>2026-08-28T19:12:15Z</time>
  <course>276.19</course>
  <speed>0.0</speed>
  <fix>3d</fix>
</trkpt>
<trkpt lat="40.0728137" lon="-105.2306152">
  <ele>1596.65</ele>
  <time>2026-08-28T19:12:15Z</time>
  <course>350.82</course>
  <speed>0.01414213562373095</speed>
  <fix>3d</fix>
</trkpt>
<trkpt lat="40.0728138" lon="-105.2306155">
  <ele>1596.54</ele>
  <time>2026-08-28T19:12:15Z</time>
  <course>272.52</course>
  <speed>0.0</speed>
  <fix>3d</fix>
</trkpt>
<trkpt lat="40.0728137" lon="-105.2306152">
  <ele>1596.65</ele>
  <time>2026-08-28T19:12:15Z</time>
  <course>350.8</course>
  <speed>0.01414213562373095</speed>
  <fix>3d</fix>
</trkpt>
<trkpt lat="40.0728138" lon="-105.2306155">
  <ele>1596.54</ele>
  <time>2026-08-28T19:12:15Z</time>
  <course>268.37</course>
  <speed>0.0</speed>
  <fix>3d</fix>
</trkpt>
<trkpt lat="40.0728137" lon="-105.2306152">
  <ele>1596.65</ele>
  <time>2026-08-28T19:12:15Z</time>
  <course>350.79</course>
  <speed>0.01414213562373095</speed>
  <fix>3d</fix>
</trkpt>
<trkpt lat="40.0728138" lon="-105.2306155">
  <ele>1596.54</ele>
  <time>2026-08-28T19:12:15Z</time>
  <course>263.93</course>
  <speed>0.0</speed>
  <fix>3d</fix>
</trkpt>
<trkpt lat="40.0728137" lon="-105.2306152">
  <ele>1596.66</ele>
  <time>2026-08-28T19:12:15Z</time>
  <course>350.8</course>
  <speed>0.01414213562373095</speed>
  <fix>3d</fix>
</trkpt>
<trkpt lat="40.0728138" lon="-105.2306155">
  <ele>1596.54</ele>
  <time>2026-08-28T19:12:15Z</time>
  <course>259.14</course>
  <speed>0.0</speed>
  <fix>3d</fix>
</trkpt>
<trkpt lat="40.0728137" lon="-105.2306152">
  <ele>1596.65</ele>
  <time>2026-08-28T19:12:15Z</time>
  <course>350.81</course>
  <speed>0.01414213562373095</speed>
  <fix>3d</fix>
</trkpt>
<trkpt lat="40.0728138" lon="-105.2306155">
  <ele>1596.54</ele>
  <time>2026-08-28T19:12:15Z</time>
  <course>250.95</course>
  <speed>0.0</speed>
  <fix>3d</fix>
</trkpt>
<trkpt lat="40.0728137" lon="-105.2306152">
  <ele>1596.65</ele>
  <time>2026-08-28T19:12:15Z</time>
  <course>350.81</course>
  <speed>0.022360679774997897</speed>
  <fix>3d</fix>
</trkpt>
<trkpt lat="40.0728138" lon="-105.2306155">
  <ele>1596.54</ele>
  <time>2026-08-28T19:12:15Z</time>
  <course>237.48</course>
  <speed>0.0</speed>
  <fix>3d</fix>
</trkpt>
<trkpt lat="40.0728137" lon="-105.2306152">
  <ele>1596.65</ele>
  <time>2026-08-28T19:12:15Z</time>
  <course>350.81</course>
  <speed>0.022360679774997897</speed>
  <fix>3d</fix>
</trkpt>
<trkpt lat="40.0728138" lon="-105.2306155">
  <ele>1596.54</ele>
  <time>2026-08-28T19:12:15Z</time>
  <course>218.69</course>
  <speed>0.0</speed>
  <fix>3d</fix>
</trkpt>
<trkpt lat="40.0728137" lon="-105.2306152">
  <ele>1596.65</ele>
  <time>2026-08-28T19:12:15Z</time>
  <course>350.82</course>
  <speed>0.022360679774997897</speed>
  <fix>3d</fix>
</trkpt>
<trkpt lat="40.0728138" lon="-105.2306155">
  <ele>1596.53</ele>
  <time>2026-08-28T19:12:15Z</time>
  <course>197.99</course>
  <speed>0.0</speed>
  <fix>3d</fix>
</trkpt>
<trkpt lat="40.0728137" lon="-105.2306152">
  <ele>1596.65</ele>
  <time>2026-08-28T19:12:15Z</time>
  <course>350.82</course>
  <speed>0.022360679774997897</speed>
  <fix>3d</fix>
</trkpt>
<trkpt lat="40.0728138" lon="-105.2306155">
  <ele>1596.53</ele>
  <time>2026-08-28T19:12:15Z</time>
  <course>178.73</course>
  <speed>0.0</speed>
  <fix>3d</fix>
</trkpt>
<trkpt lat="40.0728137" lon="-105.2306152">
  <ele>1596.65</ele>
  <time>2026-08-28T19:12:15Z</time>
  <course>350.82</course>
  <speed>0.022360679774997897</speed>
  <fix>3d</fix>
</trkpt>
<trkpt lat="40.0728138" lon="-105.2306155">
  <ele>1596.53</ele>
  <time>2026-08-28T19:12:15Z</time>
  <course>166.44</course>
  <speed>0.0</speed>
  <fix>3d</fix>
</trkpt>
<trkpt lat="40.0728137" lon="-105.2306152">
  <ele>1596.65</ele>
  <time>2026-08-28T19:12:15Z</time>
  <course>350.81</course>
  <speed>0.022360679774997897</speed>
  <fix>3d</fix>
</trkpt>
<trkpt lat="40.0728138" lon="-105.2306155">
  <ele>1596.53</ele>
  <time>2026-08-28T19:12:15Z</time>
  <course>159.21</course>
  <speed>0.0</speed>
  <fix>3d</fix>
</trkpt>
<trkpt lat="40.0728137" lon="-105.2306152">
  <ele>1596.65</ele>
  <time>2026-08-28T19:12:15Z</time>
  <course>350.81</course>
  <speed>0.022360679774997897</speed>
  <fix>3d</fix>
</trkpt>
<trkpt lat="40.0728138" lon="-105.2306155">
  <ele>1596.53</ele>
  <time>2026-08-28T19:12:15Z</time>
  <course>153.91</course>
  <speed>0.0</speed>
  <fix>3d</fix>
</trkpt>
<trkpt lat="40.0728137" lon="-105.2306152">
  <ele>1596.65</ele>
  <time>2026-08-28T19:12:15Z</time>
  <course>350.8</course>
  <speed>0.022360679774997897</speed>
  <fix>3d</fix>
</trkpt>
<trkpt lat="40.0728138" lon="-105.2306155">
  <ele>1596.53</ele>
  <time>2026-08-28T19:12:15Z</time>
  <course>148.88</course>
  <speed>0.0</speed>
  <fix>3d</fix>
</trkpt>
<trkpt lat="40.0728137" lon="-105.2306152">
  <ele>1596.66</ele>
  <time>2026-08-28T19:12:15Z</time>
  <course>350.79</course>
  <speed>0.022360679774997897</speed>
  <fix>3d</fix>
</trkpt>
<trkpt lat="40.0728138" lon="-105.2306155">
  <ele>1596.53</ele>
  <time>2026-08-28T19:12:15Z</time>
  <course>145.5</course>
  <speed>0.0</speed>
  <fix>3d</fix>
</trkpt>
<trkpt lat="40.0728137" lon="-105.2306152">
  <ele>1596.65</ele>
  <time>2026-08-28T19:12:15Z</time>
  <course>350.81</course>
  <speed>0.022360679774997897</speed>
  <fix>3d</fix>
</trkpt>
<trkpt lat="40.0728138" lon="-105.2306155">
  <ele>1596.53</ele>
  <time>2026-08-28T19:12:15Z</time>
  <course>147.31</course>
  <speed>0.0</speed>
  <fix>3d</fix>
</trkpt>
<trkpt lat="40.0728137" lon="-105.2306152">
  <ele>1596.65</ele>
  <time>2026-08-28T19:12:15Z</time>
  <course>350.8</course>
  <speed>0.022360679774997897</speed>
  <fix>3d</fix>
</trkpt>
<trkpt lat="40.0728138" lon="-105.2306155">
  <ele>1596.53</ele>
  <time>2026-08-28T19:12:15Z</time>
  <course>148.13</course>
  <speed>0.0</speed>
  <fix>3d</fix>
</trkpt>
<trkpt lat="40.0728137" lon="-105.2306152">
  <ele>1596.64</ele>
  <time>2026-08-28T19:12:15Z</time>
  <course>350.8</course>
  <speed>0.022360679774997897</speed>
  <fix>3d</fix>
</trkpt>
<trkpt lat="40.0728138" lon="-105.2306155">
  <ele>1596.52</ele>
  <time>2026-08-28T19:12:15Z</time>
  <course>147.41</course>
  <speed>0.0</speed>
  <fix>3d</fix>
</trkpt>
<trkpt lat="40.0728137" lon="-105.2306152">
  <ele>1596.64</ele>
  <time>2026-08-28T19:12:15Z</time>
  <course>350.79</course>
  <speed>0.022360679774997897</speed>
  <fix>3d</fix>
</trkpt>
<trkpt lat="40.0728138" lon="-105.2306155">
  <ele>1596.52</ele>
  <time>2026-08-28T19:12:15Z</time>
  <course>146.33</course>
  <speed>0.0</speed>
  <fix>3d</fix>
</trkpt>
<trkpt lat="40.0728137" lon="-105.2306152">
  <ele>1596.64</ele>
  <time>2026-08-28T19:12:15Z</time>
  <course>350.78</course>
  <speed>0.022360679774997897</speed>
  <fix>3d</fix>
</trkpt>
<trkpt lat="40.0728138" lon="-105.2306155">
  <ele>1596.52</ele>
  <time>2026-08-28T19:12:15Z</time>
  <course>142.59</course>
  <speed>0.0</speed>
  <fix>3d</fix>
</trkpt>
<trkpt lat="40.0728137" lon="-105.2306152">
  <ele>1596.64</ele>
  <time>2026-08-28T19:12:15Z</time>
  <course>350.77</course>
  <speed>0.022360679774997897</speed>
  <fix>3d</fix>
</trkpt>
<trkpt lat="40.0728137" lon="-105.2306155">
  <ele>1596.52</ele>
  <time>2026-08-28T19:12:15Z</time>
  <course>139.11</course>
  <speed>0.0</speed>
  <fix>3d</fix>
</trkpt>
<trkpt lat="40.0728137" lon="-105.2306152">
  <ele>1596.64</ele>
  <time>2026-08-28T19:12:15Z</time>
  <course>350.75</course>
  <speed>0.022360679774997897</speed>
  <fix>3d</fix>
</trkpt>
<trkpt lat="40.0728137" lon="-105.2306155">
  <ele>1596.52</ele>
  <time>2026-08-28T19:12:15Z</time>
  <course>140.35</course>
  <speed>0.0</speed>
  <fix>3d</fix>
</trkpt>
<trkpt lat="40.0728137" lon="-105.2306152">
  <ele>1596.64</ele>
  <time>2026-08-28T19:12:15Z</time>
  <course>350.74</course>
  <speed>0.022360679774997897</speed>
  <fix>3d</fix>
</trkpt>
<trkpt lat="40.0728137" lon="-105.2306155">
  <ele>1596.52</ele>
  <time>2026-08-28T19:12:15Z</time>
  <course>145.91</course>
  <speed>0.0</speed>
  <fix>3d</fix>
</trkpt>
<trkpt lat="40.0728137" lon="-105.2306152">
  <ele>1596.64</ele>
  <time>2026-08-28T19:12:15Z</time>
  <course>350.75</course>
  <speed>0.022360679774997897</speed>
  <fix>3d</fix>
</trkpt>
<trkpt lat="40.0728137" lon="-105.2306155">
  <ele>1596.53</ele>
  <time>2026-08-28T19:12:15Z</time>
  <course>147.92</course>
  <speed>0.0</speed>
  <fix>3d</fix>
</trkpt>
<trkpt lat="40.0728137" lon="-105.2306152">
  <ele>1596.64</ele>
  <time>2026-08-28T19:12:15Z</time>
  <course>350.75</course>
  <speed>0.022360679774997897</speed>
  <fix>3d</fix>
</trkpt>
<trkpt lat="40.0728137" lon="-105.2306155">
  <ele>1596.53</ele>
  <time>2026-08-28T19:12:15Z</time>
  <course>143.8</course>
  <speed>0.0</speed>
  <fix>3d</fix>
</trkpt>
<trkpt lat="40.0728137" lon="-105.2306152">
  <ele>1596.63</ele>
  <time>2026-08-28T19:12:15Z</time>
  <course>350.73</course>
  <speed>0.022360679774997897</speed>
  <fix>3d</fix>
</trkpt>
<trkpt lat="40.0728137" lon="-105.2306155">
  <ele>1596.53</ele>
  <time>2026-08-28T19:12:15Z</time>
  <course>137.38</course>
  <speed>0.0</speed>
  <fix>3d</fix>
</trkpt>
<trkpt lat="40.0728137" lon="-105.2306152">
  <ele>1596.63</ele>
  <time>2026-08-28T19:12:15Z</time>
  <course>350.71</course>
  <speed>0.022360679774997897</speed>
  <fix>3d</fix>
</trkpt>
<trkpt lat="40.0728137" lon="-105.2306155">
  <ele>1596.53</ele>
  <time>2026-08-28T19:12:15Z</time>
  <course>131.86</course>
  <speed>0.0</speed>
  <fix>3d</fix>
</trkpt>
<trkpt lat="40.0728137" lon="-105.2306152">
  <ele>1596.64</ele>
  <time>2026-08-28T19:12:15Z</time>
  <course>350.7</course>
  <speed>0.022360679774997897</speed>
  <fix>3d</fix>
</trkpt>
<trkpt lat="40.0728137" lon="-105.2306155">
  <ele>1596.53</ele>
  <time>2026-08-28T19:12:15Z</time>
  <course>125.95</course>
  <speed>0.0</speed>
  <fix>3d</fix>
</trkpt>
<trkpt lat="40.0728137" lon="-105.2306152">
  <ele>1596.64</ele>
  <time>2026-08-28T19:12:15Z</time>
  <course>350.69</course>
  <speed>0.022360679774997897</speed>
  <fix>3d</fix>
</trkpt>
<trkpt lat="40.0728137" lon="-105.2306155">
  <ele>1596.54</ele>
  <time>2026-08-28T19:12:15Z</time>
  <course>117.71</course>
  <speed>0.0</speed>
  <fix>3d</fix>
</trkpt>
<trkpt lat="40.0728137" lon="-105.2306152">
  <ele>1596.64</ele>
  <time>2026-08-28T19:12:15Z</time>
  <course>350.68</course>
  <speed>0.022360679774997897</speed>
  <fix>3d</fix>
</trkpt>
<trkpt lat="40.0728137" lon="-105.2306155">
  <ele>1596.54</ele>
  <time>2026-08-28T19:12:15Z</time>
  <course>104.53</course>
  <speed>0.0</speed>
  <fix>3d</fix>
</trkpt>
<trkpt lat="40.0728137" lon="-105.2306152">
  <ele>1596.64</ele>
  <time>2026-08-28T19:12:15Z</time>
  <course>350.69</course>
  <speed>0.022360679774997897</speed>
  <fix>3d</fix>
</trkpt>
<trkpt lat="40.0728137" lon="-105.2306155">
  <ele>1596.55</ele>
  <time>2026-08-28T19:12:15Z</time>
  <course>92.48</course>
  <speed>0.0</speed>
  <fix>3d</fix>
</trkpt>
<trkpt lat="40.0728137" lon="-105.2306152">
  <ele>1596.65</ele>
  <time>2026-08-28T19:12:15Z</time>
  <course>350.7</course>
  <speed>0.022360679774997897</speed>
  <fix>3d</fix>
</trkpt>
<trkpt lat="40.0728137" lon="-105.2306155">
  <ele>1596.55</ele>
  <time>2026-08-28T19:12:15Z</time>
  <course>82.4</course>
  <speed>0.0</speed>
  <fix>3d</fix>
</trkpt>
<trkpt lat="40.0728137" lon="-105.2306152">
  <ele>1596.65</ele>
  <time>2026-08-28T19:12:15Z</time>
  <course>350.72</course>
  <speed>0.02</speed>
  <fix>3d</fix>
</trkpt>
<trkpt lat="40.0728137" lon="-105.2306155">
  <ele>1596.55</ele>
  <time>2026-08-28T19:12:15Z</time>
  <course>67.95</course>
  <speed>0.0</speed>
  <fix>3d</fix>
</trkpt>
<trkpt lat="40.0728137" lon="-105.2306152">
  <ele>1596.65</ele>
  <time>2026-08-28T19:12:15Z</time>
  <course>350.74</course>
  <speed>0.02</speed>
  <fix>3d</fix>
</trkpt>
<trkpt lat="40.0728137" lon="-105.2306155">
  <ele>1596.55</ele>
  <time>2026-08-28T19:12:15Z</time>
  <course>50.32</course>
  <speed>0.0</speed>
  <fix>3d</fix>
</trkpt>
<trkpt lat="40.0728137" lon="-105.2306152">
  <ele>1596.65</ele>
  <time>2026-08-28T19:12:15Z</time>
  <course>350.75</course>
  <speed>0.02</speed>
  <fix>3d</fix>
</trkpt>
<trkpt lat="40.0728137" lon="-105.2306155">
  <ele>1596.56</ele>
  <time>2026-08-28T19:12:15Z</time>
  <course>35.81</course>
  <speed>0.0</speed>
  <fix>3d</fix>
</trkpt>
<trkpt lat="40.0728137" lon="-105.2306152">
  <ele>1596.65</ele>
  <time>2026-08-28T19:12:15Z</time>
  <course>350.76</course>
  <speed>0.02</speed>
  <fix>3d</fix>
</trkpt>
<trkpt lat="40.0728137" lon="-105.2306155">
  <ele>1596.56</ele>
  <time>2026-08-28T19:12:15Z</time>
  <course>25.81</course>
  <speed>0.0</speed>
  <fix>3d</fix>
</trkpt>
<trkpt lat="40.0728137" lon="-105.2306152">
  <ele>1596.65</ele>
  <time>2026-08-28T19:12:15Z</time>
  <course>350.77</course>
  <speed>0.02</speed>
  <fix>3d</fix>
</trkpt>
<trkpt lat="40.0728137" lon="-105.2306155">
  <ele>1596.56</ele>
  <time>2026-08-28T19:12:15Z</time>
  <course>20.88</course>
  <speed>0.0</speed>
  <fix>3d</fix>
</trkpt>
<trkpt lat="40.0728137" lon="-105.2306152">
  <ele>1596.65</ele>
  <time>2026-08-28T19:12:15Z</time>
  <course>350.77</course>
  <speed>0.02</speed>
  <fix>3d</fix>
</trkpt>
<trkpt lat="40.0728137" lon="-105.2306155">
  <ele>1596.56</ele>
  <time>2026-08-28T19:12:15Z</time>
  <course>18.28</course>
  <speed>0.0</speed>
  <fix>3d</fix>
</trkpt>
<trkpt lat="40.0728137" lon="-105.2306152">
  <ele>1596.65</ele>
  <time>2026-08-28T19:12:15Z</time>
  <course>350.76</course>
  <speed>0.02</speed>
  <fix>3d</fix>
</trkpt>
<trkpt lat="40.0728137" lon="-105.2306155">
  <ele>1596.56</ele>
  <time>2026-08-28T19:12:15Z</time>
  <course>20.85</course>
  <speed>0.0</speed>
  <fix>3d</fix>
</trkpt>
<trkpt lat="40.0728137" lon="-105.2306152">
  <ele>1596.64</ele>
  <time>2026-08-28T19:12:15Z</time>
  <course>350.76</course>
  <speed>0.022360679774997897</speed>
  <fix>3d</fix>
</trkpt>
<trkpt lat="40.0728137" lon="-105.2306155">
  <ele>1596.56</ele>
  <time>2026-08-28T19:12:15Z</time>
  <course>29.99</course>
  <speed>0.0</speed>
  <fix>3d</fix>
</trkpt>
<trkpt lat="40.0728137" lon="-105.2306152">
  <ele>1596.64</ele>
  <time>2026-08-28T19:12:15Z</time>
  <course>350.74</course>
  <speed>0.022360679774997897</speed>
  <fix>3d</fix>
</trkpt>
<trkpt lat="40.0728137" lon="-105.2306155">
  <ele>1596.56</ele>
  <time>2026-08-28T19:12:15Z</time>
  <course>45.27</course>
  <speed>0.0</speed>
  <fix>3d</fix>
</trkpt>
<trkpt lat="40.0728137" lon="-105.2306152">
  <ele>1596.64</ele>
  <time>2026-08-28T19:12:15Z</time>
  <course>350.73</course>
  <speed>0.022360679774997897</speed>
  <fix>3d</fix>
</trkpt>
<trkpt lat="40.0728137" lon="-105.2306155">
  <ele>1596.56</ele>
  <time>2026-08-28T19:12:15Z</time>
  <course>60.4</course>
  <speed>0.0</speed>
  <fix>3d</fix>
</trkpt>
<trkpt lat="40.0728137" lon="-105.2306152">
  <ele>1596.64</ele>
  <time>2026-08-28T19:12:15Z</time>
  <course>350.71</course>
  <speed>0.022360679774997897</speed>
  <fix>3d</fix>
</trkpt>
<trkpt lat="40.0728137" lon="-105.2306155">
  <ele>1596.56</ele>
  <time>2026-08-28T19:12:15Z</time>
  <course>64.8</course>
  <speed>0.0</speed>
  <fix>3d</fix>
</trkpt>
<trkpt lat="40.0728137" lon="-105.2306152">
  <ele>1596.64</ele>
  <time>2026-08-28T19:12:15Z</time>
  <course>350.7</course>
  <speed>0.022360679774997897</speed>
  <fix>3d</fix>
</trkpt>
<trkpt lat="40.0728137" lon="-105.2306154">
  <ele>1596.56</ele>
  <time>2026-08-28T19:12:15Z</time>
  <course>65.2</course>
  <speed>0.0</speed>
  <fix>3d</fix>
</trkpt>
<trkpt lat="40.0728137" lon="-105.2306152">
  <ele>1596.64</ele>
  <time>2026-08-28T19:12:15Z</time>
  <course>350.7</course>
  <speed>0.022360679774997897</speed>
  <fix>3d</fix>
</trkpt>
<trkpt lat="40.0728137" lon="-105.2306153">
  <ele>1596.57</ele>
  <time>2026-08-28T19:12:15Z</time>
  <course>66.16</course>
  <speed>0.0</speed>
  <fix>3d</fix>
</trkpt>
<trkpt lat="40.0728137" lon="-105.2306152">
  <ele>1596.64</ele>
  <time>2026-08-28T19:12:15Z</time>
  <course>350.69</course>
  <speed>0.022360679774997897</speed>
  <fix>3d</fix>
</trkpt>
<trkpt lat="40.0728137" lon="-105.2306153">
  <ele>1596.57</ele>
  <time>2026-08-28T19:12:15Z</time>
  <course>64.83</course>
  <speed>0.0</speed>
  <fix>3d</fix>
</trkpt>
<trkpt lat="40.0728137" lon="-105.2306152">
  <ele>1596.64</ele>
  <time>2026-08-28T19:12:15Z</time>
  <course>350.69</course>
  <speed>0.022360679774997897</speed>
  <fix>3d</fix>
</trkpt>
<trkpt lat="40.0728137" lon="-105.2306153">
  <ele>1596.57</ele>
  <time>2026-08-28T19:12:15Z</time>
  <course>61.93</course>
  <speed>0.0</speed>
  <fix>3d</fix>
</trkpt>
<trkpt lat="40.0728137" lon="-105.2306152">
  <ele>1596.64</ele>
  <time>2026-08-28T19:12:15Z</time>
  <course>350.69</course>
  <speed>0.022360679774997897</speed>
  <fix>3d</fix>
</trkpt>
<trkpt lat="40.0728137" lon="-105.2306153">
  <ele>1596.58</ele>
  <time>2026-08-28T19:12:15Z</time>
  <course>55.11</course>
  <speed>0.0</speed>
  <fix>3d</fix>
</trkpt>
<trkpt lat="40.0728137" lon="-105.2306152">
  <ele>1596.65</ele>
  <time>2026-08-28T19:12:15Z</time>
  <course>350.69</course>
  <speed>0.022360679774997897</speed>
  <fix>3d</fix>
</trkpt>
<trkpt lat="40.0728137" lon="-105.2306153">
  <ele>1596.58</ele>
  <time>2026-08-28T19:12:15Z</time>
  <course>41.65</course>
  <speed>0.0</speed>
  <fix>3d</fix>
</trkpt>
<trkpt lat="40.0728137" lon="-105.2306152">
  <ele>1596.65</ele>
  <time>2026-08-28T19:12:15Z</time>
  <course>350.69</course>
  <speed>0.022360679774997897</speed>
  <fix>3d</fix>
</trkpt>
<trkpt lat="40.0728137" lon="-105.2306153">
  <ele>1596.58</ele>
  <time>2026-08-28T19:12:15Z</time>
  <course>19.41</course>
  <speed>0.0</speed>
  <fix>3d</fix>
</trkpt>
<trkpt lat="40.0728137" lon="-105.2306152">
  <ele>1596.65</ele>
  <time>2026-08-28T19:12:15Z</time>
  <course>350.69</course>
  <speed>0.022360679774997897</speed>
  <fix>3d</fix>
</trkpt>
<trkpt lat="40.0728137" lon="-105.2306153">
  <ele>1596.58</ele>
  <time>2026-08-28T19:12:15Z</time>
  <course>339.79</course>
  <speed>0.0</speed>
  <fix>3d</fix>
</trkpt>
<trkpt lat="40.0728137" lon="-105.2306152">
  <ele>1596.65</ele>
  <time>2026-08-28T19:12:15Z</time>
  <course>350.7</course>
  <speed>0.022360679774997897</speed>
  <fix>3d</fix>
</trkpt>
<trkpt lat="40.0728137" lon="-105.2306153">
  <ele>1596.59</ele>
  <time>2026-08-28T19:12:15Z</time>
  <course>310.15</course>
  <speed>0.0</speed>
  <fix>3d</fix>
</trkpt>
<trkpt lat="40.0728137" lon="-105.2306152">
  <ele>1596.66</ele>
  <time>2026-08-28T19:12:15Z</time>
  <course>350.69</course>
  <speed>0.01414213562373095</speed>
  <fix>3d</fix>
</trkpt>
<trkpt lat="40.0728137" lon="-105.2306153">
  <ele>1596.59</ele>
  <time>2026-08-28T19:12:15Z</time>
  <course>302.46</course>
  <speed>0.0</speed>
  <fix>3d</fix>
</trkpt>
<trkpt lat="40.0728137" lon="-105.2306152">
  <ele>1596.66</ele>
  <time>2026-08-28T19:12:15Z</time>
  <course>350.7</course>
  <speed>0.01414213562373095</speed>
  <fix>3d</fix>
</trkpt>
<trkpt lat="40.0728137" lon="-105.2306153">
  <ele>1596.59</ele>
  <time>2026-08-28T19:12:15Z</time>
  <course>304.55</course>
  <speed>0.0</speed>
  <fix>3d</fix>
</trkpt>
<trkpt lat="40.0728137" lon="-105.2306152">
  <ele>1596.66</ele>
  <time>2026-08-28T19:12:15Z</time>
  <course>350.7</course>
  <speed>0.01414213562373095</speed>
  <fix>3d</fix>
</trkpt>
<trkpt lat="40.0728137" lon="-105.2306153">
  <ele>1596.59</ele>
  <time>2026-08-28T19:12:15Z</time>
  <course>307.15</course>
  <speed>0.0</speed>
  <fix>3d</fix>
</trkpt>
<trkpt lat="40.0728137" lon="-105.2306152">
  <ele>1596.66</ele>
  <time>2026-08-28T19:12:15Z</time>
  <course>350.71</course>
  <speed>0.01414213562373095</speed>
  <fix>3d</fix>
</trkpt>
<trkpt lat="40.0728137" lon="-105.2306153">
  <ele>1596.59</ele>
  <time>2026-08-28T19:12:15Z</time>
  <course>307.34</course>
  <speed>0.0</speed>
  <fix>3d</fix>
</trkpt>
<trkpt lat="40.0728137" lon="-105.2306152">
  <ele>1596.66</ele>
  <time>2026-08-28T19:12:15Z</time>
  <course>350.72</course>
  <speed>0.01414213562373095</speed>
  <fix>3d</fix>
</trkpt>
<trkpt lat="40.0728137" lon="-105.2306153">
  <ele>1596.59</ele>
  <time>2026-08-28T19:12:15Z</time>
  <course>303.7</course>
  <speed>0.0</speed>
  <fix>3d</fix>
</trkpt>
<trkpt lat="40.0728137" lon="-105.2306152">
  <ele>1596.66</ele>
  <time>2026-08-28T19:12:15Z</time>
  <course>350.75</course>
  <speed>0.01414213562373095</speed>
  <fix>3d</fix>
</trkpt>
<trkpt lat="40.0728137" lon="-105.2306153">
  <ele>1596.59</ele>
  <time>2026-08-28T19:12:15Z</time>
  <course>298.43</course>
  <speed>0.0</speed>
  <fix>3d</fix>
</trkpt>
<trkpt lat="40.0728137" lon="-105.2306152">
  <ele>1596.66</ele>
  <time>2026-08-28T19:12:15Z</time>
  <course>350.76</course>
  <speed>0.01414213562373095</speed>
  <fix>3d</fix>
</trkpt>
<trkpt lat="40.0728137" lon="-105.2306153">
  <ele>1596.59</ele>
  <time>2026-08-28T19:12:15Z</time>
  <course>297.71</course>
  <speed>0.0</speed>
  <fix>3d</fix>
</trkpt>
<trkpt lat="40.0728137" lon="-105.2306152">
  <ele>1596.66</ele>
  <time>2026-08-28T19:12:15Z</time>
  <course>350.78</course>
  <speed>0.01414213562373095</speed>
  <fix>3d</fix>
</trkpt>
<trkpt lat="40.0728137" lon="-105.2306153">
  <ele>1596.59</ele>
  <time>2026-08-28T19:12:15Z</time>
  <course>297.56</course>
  <speed>0.0</speed>
  <fix>3d</fix>
</trkpt>
<trkpt lat="40.0728137" lon="-105.2306152">
  <ele>1596.66</ele>
  <time>2026-08-28T19:12:15Z</time>
  <course>350.77</course>
  <speed>0.01414213562373095</speed>
  <fix>3d</fix>
</trkpt>
<trkpt lat="40.0728137" lon="-105.2306153">
  <ele>1596.59</ele>
  <time>2026-08-28T19:12:15Z</time>
  <course>296.51</course>
  <speed>0.0</speed>
  <fix>3d</fix>
</trkpt>
<trkpt lat="40.0728137" lon="-105.2306152">
  <ele>1596.66</ele>
  <time>2026-08-28T19:12:15Z</time>
  <course>350.77</course>
  <speed>0.01414213562373095</speed>
  <fix>3d</fix>
</trkpt>
<trkpt lat="40.0728137" lon="-105.2306153">
  <ele>1596.59</ele>
  <time>2026-08-28T19:12:15Z</time>
  <course>296.45</course>
  <speed>0.0</speed>
  <fix>3d</fix>
</trkpt>
<trkpt lat="40.0728137" lon="-105.2306152">
  <ele>1596.67</ele>
  <time>2026-08-28T19:12:15Z</time>
  <course>350.78</course>
  <speed>0.01414213562373095</speed>
  <fix>3d</fix>
</trkpt>
<trkpt lat="40.0728137" lon="-105.2306154">
  <ele>1596.58</ele>
  <time>2026-08-28T19:12:15Z</time>
  <course>296.34</course>
  <speed>0.0</speed>
  <fix>3d</fix>
</trkpt>
<trkpt lat="40.0728137" lon="-105.2306152">
  <ele>1596.67</ele>
  <time>2026-08-28T19:12:15Z</time>
  <course>350.79</course>
  <speed>0.01414213562373095</speed>
  <fix>3d</fix>
</trkpt>
<trkpt lat="40.0728138" lon="-105.2306155">
  <ele>1596.58</ele>
  <time>2026-08-28T19:12:15Z</time>
  <course>296.43</course>
  <speed>0.0</speed>
  <fix>3d</fix>
</trkpt>
<trkpt lat="40.0728137" lon="-105.2306152">
  <ele>1596.67</ele>
  <time>2026-08-28T19:12:15Z</time>
  <course>350.8</course>
  <speed>0.01414213562373095</speed>
  <fix>3d</fix>
</trkpt>
<trkpt lat="40.0728138" lon="-105.2306155">
  <ele>1596.58</ele>
  <time>2026-08-28T19:12:15Z</time>
  <course>296.34</course>
  <speed>0.0</speed>
  <fix>3d</fix>
</trkpt>
<trkpt lat="40.0728137" lon="-105.2306152">
  <ele>1596.67</ele>
  <time>2026-08-28T19:12:15Z</time>
  <course>350.81</course>
  <speed>0.01414213562373095</speed>
  <fix>3d</fix>
</trkpt>
<trkpt lat="40.0728138" lon="-105.2306155">
  <ele>1596.58</ele>
  <time>2026-08-28T19:12:15Z</time>
  <course>297.36</course>
  <speed>0.0</speed>
  <fix>3d</fix>
</trkpt>
<trkpt lat="40.0728137" lon="-105.2306152">
  <ele>1596.67</ele>
  <time>2026-08-28T19:12:15Z</time>
  <course>350.82</course>
  <speed>0.01414213562373095</speed>
  <fix>3d</fix>
</trkpt>
<trkpt lat="40.0728138" lon="-105.2306155">
  <ele>1596.57</ele>
  <time>2026-08-28T19:12:15Z</time>
  <course>299.13</course>
  <speed>0.0</speed>
  <fix>3d</fix>
</trkpt>
<trkpt lat="40.0728137" lon="-105.2306152">
  <ele>1596.66</ele>
  <time>2026-08-28T19:12:15Z</time>
  <course>350.82</course>
  <speed>0.022360679774997897</speed>
  <fix>3d</fix>
</trkpt>
<trkpt lat="40.0728138" lon="-105.2306155">
  <ele>1596.57</ele>
  <time>2026-08-28T19:12:15Z</time>
  <course>301.63</course>
  <speed>0.0</speed>
  <fix>3d</fix>
</trkpt>
<trkpt lat="40.0728137" lon="-105.2306152">
  <ele>1596.66</ele>
  <time>2026-08-28T19:12:15Z</time>
  <course>350.81</course>
  <speed>0.022360679774997897</speed>
  <fix>3d</fix>
</trkpt>
<trkpt lat="40.0728138" lon="-105.2306155">
  <ele>1596.56</ele>
  <time>2026-08-28T19:12:15Z</time>
  <course>305.53</course>
  <speed>0.0</speed>
  <fix>3d</fix>
</trkpt>
<trkpt lat="40.0728137" lon="-105.2306152">
  <ele>1596.65</ele>
  <time>2026-08-28T19:12:15Z</time>
  <course>350.79</course>
  <speed>0.022360679774997897</speed>
  <fix>3d</fix>
</trkpt>
<trkpt lat="40.0728138" lon="-105.2306155">
  <ele>1596.56</ele>
  <time>2026-08-28T19:12:15Z</time>
  <course>306.35</course>
  <speed>0.0</speed>
  <fix>3d</fix>
</trkpt>
<trkpt lat="40.0728137" lon="-105.2306152">
  <ele>1596.65</ele>
  <time>2026-08-28T19:12:15Z</time>
  <course>350.78</course>
  <speed>0.022360679774997897</speed>
  <fix>3d</fix>
</trkpt>
<trkpt lat="40.0728138" lon="-105.2306155">
  <ele>1596.56</ele>
  <time>2026-08-28T19:12:15Z</time>
  <course>285.46</course>
  <speed>0.0</speed>
  <fix>3d</fix>
</trkpt>
<trkpt lat="40.0728137" lon="-105.2306152">
  <ele>1596.65</ele>
  <time>2026-08-28T19:12:15Z</time>
  <course>350.76</course>
  <speed>0.022360679774997897</speed>
  <fix>3d</fix>
</trkpt>
<trkpt lat="40.0728138" lon="-105.2306155">
  <ele>1596.56</ele>
  <time>2026-08-28T19:12:15Z</time>
  <course>185.05</course>
  <speed>0.0</speed>
  <fix>3d</fix>
</trkpt>
<trkpt lat="40.0728137" lon="-105.2306152">
  <ele>1596.66</ele>
  <time>2026-08-28T19:12:15Z</time>
  <course>350.75</course>
  <speed>0.022360679774997897</speed>
  <fix>3d</fix>
</trkpt>
<trkpt lat="40.0728138" lon="-105.2306155">
  <ele>1596.55</ele>
  <time>2026-08-28T19:12:15Z</time>
  <course>164.27</course>
  <speed>0.0</speed>
  <fix>3d</fix>
</trkpt>
<trkpt lat="40.0728137" lon="-105.2306152">
  <ele>1596.66</ele>
  <time>2026-08-28T19:12:15Z</time>
  <course>350.75</course>
  <speed>0.022360679774997897</speed>
  <fix>3d</fix>
</trkpt>
<trkpt lat="40.0728138" lon="-105.2306155">
  <ele>1596.55</ele>
  <time>2026-08-28T19:12:15Z</time>
  <course>160.57</course>
  <speed>0.0</speed>
  <fix>3d</fix>
</trkpt>
<trkpt lat="40.0728137" lon="-105.2306153">
  <ele>1596.66</ele>
  <time>2026-08-28T19:12:15Z</time>
  <course>350.76</course>
  <speed>0.022360679774997897</speed>
  <fix>3d</fix>
</trkpt>
<trkpt lat="40.0728138" lon="-105.2306155">
  <ele>1596.55</ele>
  <time>2026-08-28T19:12:15Z</time>
  <course>159.41</course>
  <speed>0.0</speed>
  <fix>3d</fix>
</trkpt>
<trkpt lat="40.0728137" lon="-105.2306153">
  <ele>1596.66</ele>
  <time>2026-08-28T19:12:15Z</time>
  <course>350.77</course>
  <speed>0.022360679774997897</speed>
  <fix>3d</fix>
</trkpt>
<trkpt lat="40.0728138" lon="-105.2306155">
  <ele>1596.55</ele>
  <time>2026-08-28T19:12:15Z</time>
  <course>155.37</course>
  <speed>0.0</speed>
  <fix>3d</fix>
</trkpt>
<trkpt lat="40.0728137" lon="-105.2306153">
  <ele>1596.66</ele>
  <time>2026-08-28T19:12:15Z</time>
  <course>350.77</course>
  <speed>0.022360679774997897</speed>
  <fix>3d</fix>
</trkpt>
<trkpt lat="40.0728138" lon="-105.2306155">
  <ele>1596.55</ele>
  <time>2026-08-28T19:12:15Z</time>
  <course>148.76</course>
  <speed>0.0</speed>
  <fix>3d</fix>
</trkpt>
<trkpt lat="40.0728137" lon="-105.2306153">
  <ele>1596.66</ele>
  <time>2026-08-28T19:12:15Z</time>
  <course>350.76</course>
  <speed>0.022360679774997897</speed>
  <fix>3d</fix>
</trkpt>
<trkpt lat="40.0728138" lon="-105.2306155">
  <ele>1596.55</ele>
  <time>2026-08-28T19:12:15Z</time>
  <course>142.36</course>
  <speed>0.0</speed>
  <fix>3d</fix>
</trkpt>
<trkpt lat="40.0728137" lon="-105.2306153">
  <ele>1596.65</ele>
  <time>2026-08-28T19:12:15Z</time>
  <course>350.76</course>
  <speed>0.022360679774997897</speed>
  <fix>3d</fix>
</trkpt>
<trkpt lat="40.0728138" lon="-105.2306155">
  <ele>1596.54</ele>
  <time>2026-08-28T19:12:15Z</time>
  <course>139.9</course>
  <speed>0.0</speed>
  <fix>3d</fix>
</trkpt>
<trkpt lat="40.0728137" lon="-105.2306153">
  <ele>1596.65</ele>
  <time>2026-08-28T19:12:15Z</time>
  <course>350.75</course>
  <speed>0.022360679774997897</speed>
  <fix>3d</fix>
</trkpt>
<trkpt lat="40.0728138" lon="-105.2306155">
  <ele>1596.54</ele>
  <time>2026-08-28T19:12:15Z</time>
  <course>141.75</course>
  <speed>0.0</speed>
  <fix>3d</fix>
</trkpt>
<trkpt lat="40.0728137" lon="-105.2306153">
  <ele>1596.65</ele>
  <time>2026-08-28T19:12:15Z</time>
  <course>350.75</course>
  <speed>0.022360679774997897</speed>
  <fix>3d</fix>
</trkpt>
<trkpt lat="40.0728138" lon="-105.2306155">
  <ele>1596.54</ele>
  <time>2026-08-28T19:12:15Z</time>
  <course>141.53</course>
  <speed>0.0</speed>
  <fix>3d</fix>
</trkpt>
<trkpt lat="40.0728137" lon="-105.2306153">
  <ele>1596.65</ele>
  <time>2026-08-28T19:12:15Z</time>
  <course>350.74</course>
  <speed>0.022360679774997897</speed>
  <fix>3d</fix>
</trkpt>
<trkpt lat="40.0728138" lon="-105.2306155">
  <ele>1596.54</ele>
  <time>2026-08-28T19:12:15Z</time>
  <course>140.86</course>
  <speed>0.0</speed>
  <fix>3d</fix>
</trkpt>
<trkpt lat="40.0728137" lon="-105.2306153">
  <ele>1596.65</ele>
  <time>2026-08-28T19:12:15Z</time>
  <course>350.74</course>
  <speed>0.022360679774997897</speed>
  <fix>3d</fix>
</trkpt>
<trkpt lat="40.0728138" lon="-105.2306155">
  <ele>1596.54</ele>
  <time>2026-08-28T19:12:15Z</time>
  <course>143.23</course>
  <speed>0.0</speed>
  <fix>3d</fix>
</trkpt>
<trkpt lat="40.0728137" lon="-105.2306153">
  <ele>1596.65</ele>
  <time>2026-08-28T19:12:15Z</time>
  <course>350.73</course>
  <speed>0.022360679774997897</speed>
  <fix>3d</fix>
</trkpt>
<trkpt lat="40.0728138" lon="-105.2306155">
  <ele>1596.54</ele>
  <time>2026-08-28T19:12:16Z</time>
  <course>146.12</course>
  <speed>0.0</speed>
  <fix>3d</fix>
</trkpt>
<trkpt lat="40.0728137" lon="-105.2306153">
  <ele>1596.64</ele>
  <time>2026-08-28T19:12:16Z</time>
  <course>350.72</course>
  <speed>0.022360679774997897</speed>
  <fix>3d</fix>
</trkpt>
<trkpt lat="40.0728138" lon="-105.2306155">
  <ele>1596.54</ele>
  <time>2026-08-28T19:12:16Z</time>
  <course>148.58</course>
  <speed>0.0</speed>
  <fix>3d</fix>
</trkpt>
<trkpt lat="40.0728137" lon="-105.2306153">
  <ele>1596.65</ele>
  <time>2026-08-28T19:12:16Z</time>
  <course>350.7</course>
  <speed>0.022360679774997897</speed>
  <fix>3d</fix>
</trkpt>
<trkpt lat="40.0728138" lon="-105.2306155">
  <ele>1596.54</ele>
  <time>2026-08-28T19:12:16Z</time>
  <course>150.7</course>
  <speed>0.0</speed>
  <fix>3d</fix>
</trkpt>
<trkpt lat="40.0728137" lon="-105.2306153">
  <ele>1596.65</ele>
  <time>2026-08-28T19:12:16Z</time>
  <course>350.69</course>
  <speed>0.022360679774997897</speed>
  <fix>3d</fix>
</trkpt>
<trkpt lat="40.0728138" lon="-105.2306155">
  <ele>1596.54</ele>
  <time>2026-08-28T19:12:16Z</time>
  <course>152.85</course>
  <speed>0.0</speed>
  <fix>3d</fix>
</trkpt>
<trkpt lat="40.0728137" lon="-105.2306153">
  <ele>1596.65</ele>
  <time>2026-08-28T19:12:16Z</time>
  <course>350.67</course>
  <speed>0.022360679774997897</speed>
  <fix>3d</fix>
</trkpt>
<trkpt lat="40.0728138" lon="-105.2306155">
  <ele>1596.54</ele>
  <time>2026-08-28T19:12:16Z</time>
  <course>154.94</course>
  <speed>0.0</speed>
  <fix>3d</fix>
</trkpt>
<trkpt lat="40.0728137" lon="-105.2306153">
  <ele>1596.65</ele>
  <time>2026-08-28T19:12:16Z</time>
  <course>350.67</course>
  <speed>0.022360679774997897</speed>
  <fix>3d</fix>
</trkpt>
<trkpt lat="40.0728137" lon="-105.2306155">
  <ele>1596.54</ele>
  <time>2026-08-28T19:12:16Z</time>
  <course>155.87</course>
  <speed>0.0</speed>
  <fix>3d</fix>
</trkpt>
<trkpt lat="40.0728137" lon="-105.2306153">
  <ele>1596.65</ele>
  <time>2026-08-28T19:12:16Z</time>
  <course>350.68</course>
  <speed>0.022360679774997897</speed>
  <fix>3d</fix>
</trkpt>
<trkpt lat="40.0728137" lon="-105.2306155">
  <ele>1596.54</ele>
  <time>2026-08-28T19:12:16Z</time>
  <course>155.46</course>
  <speed>0.0</speed>
  <fix>3d</fix>
</trkpt>
<trkpt lat="40.0728137" lon="-105.2306153">
  <ele>1596.65</ele>
  <time>2026-08-28T19:12:16Z</time>
  <course>350.68</course>
  <speed>0.022360679774997897</speed>
  <fix>3d</fix>
</trkpt>
<trkpt lat="40.0728137" lon="-105.2306155">
  <ele>1596.54</ele>
  <time>2026-08-28T19:12:16Z</time>
  <course>151.5</course>
  <speed>0.0</speed>
  <fix>3d</fix>
</trkpt>
<trkpt lat="40.0728137" lon="-105.2306153">
  <ele>1596.65</ele>
  <time>2026-08-28T19:12:16Z</time>
  <course>350.67</course>
  <speed>0.022360679774997897</speed>
  <fix>3d</fix>
</trkpt>
<trkpt lat="40.0728137" lon="-105.2306155">
  <ele>1596.54</ele>
  <time>2026-08-28T19:12:16Z</time>
  <course>144.54</course>
  <speed>0.0</speed>
  <fix>3d</fix>
</trkpt>
<trkpt lat="40.0728136" lon="-105.2306153">
  <ele>1596.65</ele>
  <time>2026-08-28T19:12:16Z</time>
  <course>350.66</course>
  <speed>0.022360679774997897</speed>
  <fix>3d</fix>
</trkpt>
<trkpt lat="40.0728137" lon="-105.2306155">
  <ele>1596.54</ele>
  <time>2026-08-28T19:12:16Z</time>
  <course>136.46</course>
  <speed>0.0</speed>
  <fix>3d</fix>
</trkpt>
<trkpt lat="40.0728136" lon="-105.2306153">
  <ele>1596.65</ele>
  <time>2026-08-28T19:12:16Z</time>
  <course>350.66</course>
  <speed>0.022360679774997897</speed>
  <fix>3d</fix>
</trkpt>
<trkpt lat="40.0728137" lon="-105.2306155">
  <ele>1596.54</ele>
  <time>2026-08-28T19:12:16Z</time>
  <course>126.15</course>
  <speed>0.0</speed>
  <fix>3d</fix>
</trkpt>
<trkpt lat="40.0728136" lon="-105.2306153">
  <ele>1596.66</ele>
  <time>2026-08-28T19:12:16Z</time>
  <course>350.66</course>
  <speed>0.022360679774997897</speed>
  <fix>3d</fix>
</trkpt>
<trkpt lat="40.0728137" lon="-105.2306155">
  <ele>1596.54</ele>
  <time>2026-08-28T19:12:16Z</time>
  <course>114.55</course>
  <speed>0.0</speed>
  <fix>3d</fix>
</trkpt>
<trkpt lat="40.0728136" lon="-105.2306153">
  <ele>1596.65</ele>
  <time>2026-08-28T19:12:16Z</time>
  <course>350.66</course>
  <speed>0.02</speed>
  <fix>3d</fix>
</trkpt>
<trkpt lat="40.0728137" lon="-105.2306155">
  <ele>1596.54</ele>
  <time>2026-08-28T19:12:16Z</time>
  <course>97.52</course>
  <speed>0.0</speed>
  <fix>3d</fix>
</trkpt>
<trkpt lat="40.0728137" lon="-105.2306153">
  <ele>1596.65</ele>
  <time>2026-08-28T19:12:16Z</time>
  <course>350.67</course>
  <speed>0.02</speed>
  <fix>3d</fix>
</trkpt>
<trkpt lat="40.0728137" lon="-105.2306154">
  <ele>1596.54</ele>
  <time>2026-08-28T19:12:16Z</time>
  <course>76.09</course>
  <speed>0.0</speed>
  <fix>3d</fix>
</trkpt>
<trkpt lat="40.0728137" lon="-105.2306153">
  <ele>1596.65</ele>
  <time>2026-08-28T19:12:16Z</time>
  <course>350.66</course>
  <speed>0.02</speed>
  <fix>3d</fix>
</trkpt>
<trkpt lat="40.0728137" lon="-105.2306153">
  <ele>1596.54</ele>
  <time>2026-08-28T19:12:16Z</time>
  <course>52.86</course>
  <speed>0.0</speed>
  <fix>3d</fix>
</trkpt>
<trkpt lat="40.0728137" lon="-105.2306152">
  <ele>1596.65</ele>
  <time>2026-08-28T19:12:16Z</time>
  <course>350.66</course>
  <speed>0.02</speed>
  <fix>3d</fix>
</trkpt>
<trkpt lat="40.0728137" lon="-105.2306153">
  <ele>1596.54</ele>
  <time>2026-08-28T19:12:16Z</time>
  <course>29.6</course>
  <speed>0.0</speed>
  <fix>3d</fix>
</trkpt>
<trkpt lat="40.0728137" lon="-105.2306152">
  <ele>1596.65</ele>
  <time>2026-08-28T19:12:16Z</time>
  <course>350.66</course>
  <speed>0.02</speed>
  <fix>3d</fix>
</trkpt>
<trkpt lat="40.0728137" lon="-105.2306153">
  <ele>1596.54</ele>
  <time>2026-08-28T19:12:16Z</time>
  <course>11.87</course>
  <speed>0.0</speed>
  <fix>3d</fix>
</trkpt>
<trkpt lat="40.0728137" lon="-105.2306152">
  <ele>1596.65</ele>
  <time>2026-08-28T19:12:16Z</time>
  <course>350.66</course>
  <speed>0.02</speed>
  <fix>3d</fix>
</trkpt>
<trkpt lat="40.0728137" lon="-105.2306153">
  <ele>1596.54</ele>
  <time>2026-08-28T19:12:16Z</time>
  <course>0.12</course>
  <speed>0.0</speed>
  <fix>3d</fix>
</trkpt>
<trkpt lat="40.0728137" lon="-105.2306152">
  <ele>1596.65</ele>
  <time>2026-08-28T19:12:16Z</time>
  <course>350.65</course>
  <speed>0.02</speed>
  <fix>3d</fix>
</trkpt>
<trkpt lat="40.0728137" lon="-105.2306153">
  <ele>1596.54</ele>
  <time>2026-08-28T19:12:16Z</time>
  <course>352.4</course>
  <speed>0.0</speed>
  <fix>3d</fix>
</trkpt>
<trkpt lat="40.0728137" lon="-105.2306152">
  <ele>1596.66</ele>
  <time>2026-08-28T19:12:16Z</time>
  <course>350.66</course>
  <speed>0.02</speed>
  <fix>3d</fix>
</trkpt>
<trkpt lat="40.0728137" lon="-105.2306153">
  <ele>1596.54</ele>
  <time>2026-08-28T19:12:16Z</time>
  <course>346.66</course>
  <speed>0.0</speed>
  <fix>3d</fix>
</trkpt>
<trkpt lat="40.0728137" lon="-105.2306152">
  <ele>1596.66</ele>
  <time>2026-08-28T19:12:16Z</time>
  <course>350.66</course>
  <speed>0.02</speed>
  <fix>3d</fix>
</trkpt>
<trkpt lat="40.0728137" lon="-105.2306153">
  <ele>1596.54</ele>
  <time>2026-08-28T19:12:16Z</time>
  <course>337.74</course>
  <speed>0.0</speed>
  <fix>3d</fix>
</trkpt>
<trkpt lat="40.0728137" lon="-105.2306152">
  <ele>1596.65</ele>
  <time>2026-08-28T19:12:16Z</time>
  <course>350.67</course>
  <speed>0.01</speed>
  <fix>3d</fix>
</trkpt>
<trkpt lat="40.0728137" lon="-105.2306153">
  <ele>1596.53</ele>
  <time>2026-08-28T19:12:16Z</time>
  <course>325.36</course>
  <speed>0.0</speed>
  <fix>3d</fix>
</trkpt>
<trkpt lat="40.0728137" lon="-105.2306152">
  <ele>1596.65</ele>
  <time>2026-08-28T19:12:16Z</time>
  <course>350.66</course>
  <speed>0.01</speed>
  <fix>3d</fix>
</trkpt>
<trkpt lat="40.0728137" lon="-105.2306153">
  <ele>1596.53</ele>
  <time>2026-08-28T19:12:16Z</time>
  <course>313.39</course>
  <speed>0.0</speed>
  <fix>3d</fix>
</trkpt>
<trkpt lat="40.0728137" lon="-105.2306152">
  <ele>1596.64</ele>
  <time>2026-08-28T19:12:16Z</time>
  <course>350.66</course>
  <speed>0.01414213562373095</speed>
  <fix>3d</fix>
</trkpt>
<trkpt lat="40.0728137" lon="-105.2306153">
  <ele>1596.53</ele>
  <time>2026-08-28T19:12:16Z</time>
  <course>303.53</course>
  <speed>0.0</speed>
  <fix>3d</fix>
</trkpt>
<trkpt lat="40.0728137" lon="-105.2306152">
  <ele>1596.64</ele>
  <time>2026-08-28T19:12:16Z</time>
  <course>350.66</course>
  <speed>0.01414213562373095</speed>
  <fix>3d</fix>
</trkpt>
<trkpt lat="40.0728137" lon="-105.2306153">
  <ele>1596.53</ele>
  <time>2026-08-28T19:12:16Z</time>
  <course>297.29</course>
  <speed>0.0</speed>
  <fix>3d</fix>
</trkpt>
<trkpt lat="40.0728137" lon="-105.2306152">
  <ele>1596.64</ele>
  <time>2026-08-28T19:12:16Z</time>
  <course>350.66</course>
  <speed>0.01414213562373095</speed>
  <fix>3d</fix>
</trkpt>
<trkpt lat="40.0728137" lon="-105.2306153">
  <ele>1596.53</ele>
  <time>2026-08-28T19:12:16Z</time>
  <course>291.87</course>
  <speed>0.0</speed>
  <fix>3d</fix>
</trkpt>
<trkpt lat="40.0728137" lon="-105.2306152">
  <ele>1596.64</ele>
  <time>2026-08-28T19:12:16Z</time>
  <course>350.65</course>
  <speed>0.01414213562373095</speed>
  <fix>3d</fix>
</trkpt>
<trkpt lat="40.0728137" lon="-105.2306153">
  <ele>1596.53</ele>
  <time>2026-08-28T19:12:16Z</time>
  <course>289.69</course>
  <speed>0.0</speed>
  <fix>3d</fix>
</trkpt>
<trkpt lat="40.0728137" lon="-105.2306152">
  <ele>1596.64</ele>
  <time>2026-08-28T19:12:16Z</time>
  <course>350.63</course>
  <speed>0.01414213562373095</speed>
  <fix>3d</fix>
</trkpt>
<trkpt lat="40.0728137" lon="-105.2306153">
  <ele>1596.53</ele>
  <time>2026-08-28T19:12:16Z</time>
  <course>291.16</course>
  <speed>0.0</speed>
  <fix>3d</fix>
</trkpt>
<trkpt lat="40.0728137" lon="-105.2306152">
  <ele>1596.64</ele>
  <time>2026-08-28T19:12:16Z</time>
  <course>350.61</course>
  <speed>0.01414213562373095</speed>
  <fix>3d</fix>
</trkpt>
<trkpt lat="40.0728137" lon="-105.2306153">
  <ele>1596.53</ele>
  <time>2026-08-28T19:12:16Z</time>
  <course>291.57</course>
  <speed>0.0</speed>
  <fix>3d</fix>
</trkpt>
<trkpt lat="40.0728137" lon="-105.2306152">
  <ele>1596.64</ele>
  <time>2026-08-28T19:12:16Z</time>
  <course>350.59</course>
  <speed>0.01414213562373095</speed>
  <fix>3d</fix>
</trkpt>
<trkpt lat="40.0728137" lon="-105.2306153">
  <ele>1596.53</ele>
  <time>2026-08-28T19:12:16Z</time>
  <course>290.07</course>
  <speed>0.0</speed>
  <fix>3d</fix>
</trkpt>
<trkpt lat="40.0728137" lon="-105.2306152">
  <ele>1596.64</ele>
  <time>2026-08-28T19:12:16Z</time>
  <course>350.58</course>
  <speed>0.01414213562373095</speed>
  <fix>3d</fix>
</trkpt>
<trkpt lat="40.0728137" lon="-105.2306154">
  <ele>1596.54</ele>
  <time>2026-08-28T19:12:16Z</time>
  <course>289.09</course>
  <speed>0.0</speed>
  <fix>3d</fix>
</trkpt>
<trkpt lat="40.0728137" lon="-105.2306152">
  <ele>1596.64</ele>
  <time>2026-08-28T19:12:16Z</time>
  <course>350.58</course>
  <speed>0.01414213562373095</speed>
  <fix>3d</fix>
</trkpt>
<trkpt lat="40.0728137" lon="-105.2306155">
  <ele>1596.54</ele>
  <time>2026-08-28T19:12:16Z</time>
  <course>289.02</course>
  <speed>0.0</speed>
  <fix>3d</fix>
</trkpt>
<trkpt lat="40.0728137" lon="-105.2306152">
  <ele>1596.65</ele>
  <time>2026-08-28T19:12:16Z</time>
  <course>350.57</course>
  <speed>0.01414213562373095</speed>
  <fix>3d</fix>
</trkpt>
<trkpt lat="40.0728137" lon="-105.2306155">
  <ele>1596.54</ele>
  <time>2026-08-28T19:12:16Z</time>
  <course>288.96</course>
  <speed>0.0</speed>
  <fix>3d</fix>
</trkpt>
<trkpt lat="40.0728137" lon="-105.2306152">
  <ele>1596.65</ele>
  <time>2026-08-28T19:12:16Z</time>
  <course>350.57</course>
  <speed>0.01414213562373095</speed>
  <fix>3d</fix>
</trkpt>
<trkpt lat="40.0728137" lon="-105.2306155">
  <ele>1596.54</ele>
  <time>2026-08-28T19:12:16Z</time>
  <course>288.43</course>
  <speed>0.0</speed>
  <fix>3d</fix>
</trkpt>
<trkpt lat="40.0728137" lon="-105.2306152">
  <ele>1596.65</ele>
  <time>2026-08-28T19:12:16Z</time>
  <course>350.57</course>
  <speed>0.01414213562373095</speed>
  <fix>3d</fix>
</trkpt>
<trkpt lat="40.0728137" lon="-105.2306155">
  <ele>1596.54</ele>
  <time>2026-08-28T19:12:16Z</time>
  <course>288.54</course>
  <speed>0.0</speed>
  <fix>3d</fix>
</trkpt>
<trkpt lat="40.0728137" lon="-105.2306152">
  <ele>1596.65</ele>
  <time>2026-08-28T19:12:16Z</time>
  <course>350.57</course>
  <speed>0.01414213562373095</speed>
  <fix>3d</fix>
</trkpt>
<trkpt lat="40.0728137" lon="-105.2306155">
  <ele>1596.55</ele>
  <time>2026-08-28T19:12:16Z</time>
  <course>290.36</course>
  <speed>0.0</speed>
  <fix>3d</fix>
</trkpt>
<trkpt lat="40.0728137" lon="-105.2306153">
  <ele>1596.65</ele>
  <time>2026-08-28T19:12:16Z</time>
  <course>350.57</course>
  <speed>0.022360679774997897</speed>
  <fix>3d</fix>
</trkpt>
<trkpt lat="40.0728137" lon="-105.2306155">
  <ele>1596.55</ele>
  <time>2026-08-28T19:12:16Z</time>
  <course>292.09</course>
  <speed>0.0</speed>
  <fix>3d</fix>
</trkpt>
<trkpt lat="40.0728137" lon="-105.2306153">
  <ele>1596.64</ele>
  <time>2026-08-28T19:12:16Z</time>
  <course>350.57</course>
  <speed>0.022360679774997897</speed>
  <fix>3d</fix>
</trkpt>
<trkpt lat="40.0728137" lon="-105.2306155">
  <ele>1596.55</ele>
  <time>2026-08-28T19:12:16Z</time>
  <course>292.76</course>
  <speed>0.0</speed>
  <fix>3d</fix>
</trkpt>
<trkpt lat="40.0728137" lon="-105.2306153">
  <ele>1596.64</ele>
  <time>2026-08-28T19:12:16Z</time>
  <course>350.57</course>
  <speed>0.022360679774997897</speed>
  <fix>3d</fix>
</trkpt>
<trkpt lat="40.0728137" lon="-105.2306155">
  <ele>1596.55</ele>
  <time>2026-08-28T19:12:16Z</time>
  <course>298.49</course>
  <speed>0.0</speed>
  <fix>3d</fix>
</trkpt>
<trkpt lat="40.0728137" lon="-105.2306153">
  <ele>1596.64</ele>
  <time>2026-08-28T19:12:16Z</time>
  <course>350.56</course>
  <speed>0.022360679774997897</speed>
  <fix>3d</fix>
</trkpt>
<trkpt lat="40.0728137" lon="-105.2306155">
  <ele>1596.55</ele>
  <time>2026-08-28T19:12:16Z</time>
  <course>325.79</course>
  <speed>0.0</speed>
  <fix>3d</fix>
</trkpt>
<trkpt lat="40.0728137" lon="-105.2306153">
  <ele>1596.64</ele>
  <time>2026-08-28T19:12:16Z</time>
  <course>350.57</course>
  <speed>0.022360679774997897</speed>
  <fix>3d</fix>
</trkpt>
<trkpt lat="40.0728137" lon="-105.2306155">
  <ele>1596.55</ele>
  <time>2026-08-28T19:12:16Z</time>
  <course>1.91</course>
  <speed>0.0</speed>
  <fix>3d</fix>
</trkpt>
<trkpt lat="40.0728137" lon="-105.2306153">
  <ele>1596.64</ele>
  <time>2026-08-28T19:12:16Z</time>
  <course>350.56</course>
  <speed>0.022360679774997897</speed>
  <fix>3d</fix>
</trkpt>
<trkpt lat="40.0728137" lon="-105.2306155">
  <ele>1596.55</ele>
  <time>2026-08-28T19:12:16Z</time>
  <course>19.92</course>
  <speed>0.0</speed>
  <fix>3d</fix>
</trkpt>
<trkpt lat="40.0728137" lon="-105.2306153">
  <ele>1596.64</ele>
  <time>2026-08-28T19:12:16Z</time>
  <course>350.56</course>
  <speed>0.022360679774997897</speed>
  <fix>3d</fix>
</trkpt>
<trkpt lat="40.0728137" lon="-105.2306155">
  <ele>1596.56</ele>
  <time>2026-08-28T19:12:16Z</time>
  <course>27.68</course>
  <speed>0.0</speed>
  <fix>3d</fix>
</trkpt>
<trkpt lat="40.0728137" lon="-105.2306153">
  <ele>1596.64</ele>
  <time>2026-08-28T19:12:16Z</time>
  <course>350.54</course>
  <speed>0.022360679774997897</speed>
  <fix>3d</fix>
</trkpt>
<trkpt lat="40.0728137" lon="-105.2306155">
  <ele>1596.56</ele>
  <time>2026-08-28T19:12:16Z</time>
  <course>32.13</course>
  <speed>0.0</speed>
  <fix>3d</fix>
</trkpt>
<trkpt lat="40.0728137" lon="-105.2306153">
  <ele>1596.65</ele>
  <time>2026-08-28T19:12:16Z</time>
  <course>350.55</course>
  <speed>0.022360679774997897</speed>
  <fix>3d</fix>
</trkpt>
<trkpt lat="40.0728137" lon="-105.2306155">
  <ele>1596.56</ele>
  <time>2026-08-28T19:12:16Z</time>
  <course>36.04</course>
  <speed>0.0</speed>
  <fix>3d</fix>
</trkpt>
<trkpt lat="40.0728137" lon="-105.2306153">
  <ele>1596.65</ele>
  <time>2026-08-28T19:12:16Z</time>
  <course>350.55</course>
  <speed>0.022360679774997897</speed>
  <fix>3d</fix>
</trkpt>
<trkpt lat="40.0728137" lon="-105.2306155">
  <ele>1596.56</ele>
  <time>2026-08-28T19:12:16Z</time>
  <course>39.65</course>
  <speed>0.0</speed>
  <fix>3d</fix>
</trkpt>
<trkpt lat="40.0728137" lon="-105.2306153">
  <ele>1596.65</ele>
  <time>2026-08-28T19:12:16Z</time>
  <course>350.56</course>
  <speed>0.022360679774997897</speed>
  <fix>3d</fix>
</trkpt>
<trkpt lat="40.0728138" lon="-105.2306155">
  <ele>1596.57</ele>
  <time>2026-08-28T19:12:16Z</time>
  <course>43.49</course>
  <speed>0.0</speed>
  <fix>3d</fix>
</trkpt>
<trkpt lat="40.0728137" lon="-105.2306153">
  <ele>1596.66</ele>
  <time>2026-08-28T19:12:16Z</time>
  <course>350.57</course>
  <speed>0.022360679774997897</speed>
  <fix>3d</fix>
</trkpt>
<trkpt lat="40.0728138" lon="-105.2306155">
  <ele>1596.57</ele>
  <time>2026-08-28T19:12:16Z</time>
  <course>47.83</course>
  <speed>0.0</speed>
  <fix>3d</fix>
</trkpt>
<trkpt lat="40.0728137" lon="-105.2306153">
  <ele>1596.66</ele>
  <time>2026-08-28T19:12:16Z</time>
  <course>350.57</course>
  <speed>0.022360679774997897</speed>
  <fix>3d</fix>
</trkpt>
<trkpt lat="40.0728138" lon="-105.2306155">
  <ele>1596.57</ele>
  <time>2026-08-28T19:12:16Z</time>
  <course>52.24</course>
  <speed>0.0</speed>
  <fix>3d</fix>
</trkpt>
<trkpt lat="40.0728137" lon="-105.2306153">
  <ele>1596.66</ele>
  <time>2026-08-28T19:12:16Z</time>
  <course>350.59</course>
  <speed>0.022360679774997897</speed>
  <fix>3d</fix>
</trkpt>
<trkpt lat="40.0728138" lon="-105.2306155">
  <ele>1596.57</ele>
  <time>2026-08-28T19:12:16Z</time>
  <course>54.96</course>
  <speed>0.0</speed>
  <fix>3d</fix>
</trkpt>
<trkpt lat="40.0728137" lon="-105.2306153">
  <ele>1596.66</ele>
  <time>2026-08-28T19:12:16Z</time>
  <course>350.6</course>
  <speed>0.022360679774997897</speed>
  <fix>3d</fix>
</trkpt>
<trkpt lat="40.0728138" lon="-105.2306155">
  <ele>1596.57</ele>
  <time>2026-08-28T19:12:16Z</time>
  <course>60.45</course>
  <speed>0.0</speed>
  <fix>3d</fix>
</trkpt>
<trkpt lat="40.0728137" lon="-105.2306153">
  <ele>1596.65</ele>
  <time>2026-08-28T19:12:16Z</time>
  <course>350.61</course>
  <speed>0.022360679774997897</speed>
  <fix>3d</fix>
</trkpt>
<trkpt lat="40.0728138" lon="-105.2306155">
  <ele>1596.57</ele>
  <time>2026-08-28T19:12:16Z</time>
  <course>71.59</course>
  <speed>0.0</speed>
  <fix>3d</fix>
</trkpt>
<trkpt lat="40.0728137" lon="-105.2306153">
  <ele>1596.65</ele>
  <time>2026-08-28T19:12:16Z</time>
  <course>350.61</course>
  <speed>0.022360679774997897</speed>
  <fix>3d</fix>
</trkpt>
<trkpt lat="40.0728138" lon="-105.2306155">
  <ele>1596.57</ele>
  <time>2026-08-28T19:12:16Z</time>
  <course>81.65</course>
  <speed>0.0</speed>
  <fix>3d</fix>
</trkpt>
<trkpt lat="40.0728137" lon="-105.2306153">
  <ele>1596.65</ele>
  <time>2026-08-28T19:12:16Z</time>
  <course>350.6</course>
  <speed>0.022360679774997897</speed>
  <fix>3d</fix>
</trkpt>
<trkpt lat="40.0728138" lon="-105.2306155">
  <ele>1596.57</ele>
  <time>2026-08-28T19:12:16Z</time>
  <course>88.36</course>
  <speed>0.0</speed>
  <fix>3d</fix>
</trkpt>
<trkpt lat="40.0728137" lon="-105.2306153">
  <ele>1596.64</ele>
  <time>2026-08-28T19:12:16Z</time>
  <course>350.6</course>
  <speed>0.022360679774997897</speed>
  <fix>3d</fix>
</trkpt>
<trkpt lat="40.0728138" lon="-105.2306155">
  <ele>1596.56</ele>
  <time>2026-08-28T19:12:16Z</time>
  <course>94.25</course>
  <speed>0.0</speed>
  <fix>3d</fix>
</trkpt>
<trkpt lat="40.0728137" lon="-105.2306153">
  <ele>1596.65</ele>
  <time>2026-08-28T19:12:16Z</time>
  <course>350.59</course>
  <speed>0.022360679774997897</speed>
  <fix>3d</fix>
</trkpt>
<trkpt lat="40.0728138" lon="-105.2306155">
  <ele>1596.56</ele>
  <time>2026-08-28T19:12:16Z</time>
  <course>100.46</course>
  <speed>0.0</speed>
  <fix>3d</fix>
</trkpt>
<trkpt lat="40.0728137" lon="-105.2306153">
  <ele>1596.65</ele>
  <time>2026-08-28T19:12:16Z</time>
  <course>350.58</course>
  <speed>0.022360679774997897</speed>
  <fix>3d</fix>
</trkpt>
<trkpt lat="40.0728138" lon="-105.2306155">
  <ele>1596.57</ele>
  <time>2026-08-28T19:12:16Z</time>
  <course>110.24</course>
  <speed>0.0</speed>
  <fix>3d</fix>
</trkpt>
<trkpt lat="40.0728137" lon="-105.2306153">
  <ele>1596.65</ele>
  <time>2026-08-28T19:12:16Z</time>
  <course>350.57</course>
  <speed>0.022360679774997897</speed>
  <fix>3d</fix>
</trkpt>
<trkpt lat="40.0728138" lon="-105.2306155">
  <ele>1596.57</ele>
  <time>2026-08-28T19:12:16Z</time>
  <course>122.34</course>
  <speed>0.0</speed>
  <fix>3d</fix>
</trkpt>
<trkpt lat="40.0728137" lon="-105.2306153">
  <ele>1596.65</ele>
  <time>2026-08-28T19:12:16Z</time>
  <course>350.56</course>
  <speed>0.022360679774997897</speed>
  <fix>3d</fix>
</trkpt>
<trkpt lat="40.0728138" lon="-105.2306155">
  <ele>1596.57</ele>
  <time>2026-08-28T19:12:16Z</time>
  <course>130.5</course>
  <speed>0.0</speed>
  <fix>3d</fix>
</trkpt>
<trkpt lat="40.0728137" lon="-105.2306153">
  <ele>1596.64</ele>
  <time>2026-08-28T19:12:16Z</time>
  <course>350.54</course>
  <speed>0.022360679774997897</speed>
  <fix>3d</fix>
</trkpt>
<trkpt lat="40.0728138" lon="-105.2306155">
  <ele>1596.57</ele>
  <time>2026-08-28T19:12:16Z</time>
  <course>135.37</course>
  <speed>0.0</speed>
  <fix>3d</fix>
</trkpt>
<trkpt lat="40.0728137" lon="-105.2306153">
  <ele>1596.65</ele>
  <time>2026-08-28T19:12:16Z</time>
  <course>350.53</course>
  <speed>0.022360679774997897</speed>
  <fix>3d</fix>
</trkpt>
<trkpt lat="40.0728138" lon="-105.2306155">
  <ele>1596.57</ele>
  <time>2026-08-28T19:12:16Z</time>
  <course>138.62</course>
  <speed>0.0</speed>
  <fix>3d</fix>
</trkpt>
<trkpt lat="40.0728137" lon="-105.2306153">
  <ele>1596.65</ele>
  <time>2026-08-28T19:12:16Z</time>
  <course>350.51</course>
  <speed>0.022360679774997897</speed>
  <fix>3d</fix>
</trkpt>
<trkpt lat="40.0728138" lon="-105.2306155">
  <ele>1596.57</ele>
  <time>2026-08-28T19:12:16Z</time>
  <course>142.49</course>
  <speed>0.0</speed>
  <fix>3d</fix>
</trkpt>
<trkpt lat="40.0728137" lon="-105.2306153">
  <ele>1596.65</ele>
  <time>2026-08-28T19:12:16Z</time>
  <course>350.51</course>
  <speed>0.022360679774997897</speed>
  <fix>3d</fix>
</trkpt>
<trkpt lat="40.0728138" lon="-105.2306155">
  <ele>1596.57</ele>
  <time>2026-08-28T19:12:16Z</time>
  <course>145.79</course>
  <speed>0.0</speed>
  <fix>3d</fix>
</trkpt>
<trkpt lat="40.0728137" lon="-105.2306153">
  <ele>1596.64</ele>
  <time>2026-08-28T19:12:16Z</time>
  <course>350.51</course>
  <speed>0.022360679774997897</speed>
  <fix>3d</fix>
</trkpt>
<trkpt lat="40.0728138" lon="-105.2306155">
  <ele>1596.57</ele>
  <time>2026-08-28T19:12:16Z</time>
  <course>145.61</course>
  <speed>0.0</speed>
  <fix>3d</fix>
</trkpt>
<trkpt lat="40.0728137" lon="-105.2306153">
  <ele>1596.64</ele>
  <time>2026-08-28T19:12:16Z</time>
  <course>350.5</course>
  <speed>0.022360679774997897</speed>
  <fix>3d</fix>
</trkpt>
<trkpt lat="40.0728138" lon="-105.2306155">
  <ele>1596.57</ele>
  <time>2026-08-28T19:12:16Z</time>
  <course>145.44</course>
  <speed>0.0</speed>
  <fix>3d</fix>
</trkpt>
<trkpt lat="40.0728137" lon="-105.2306153">
  <ele>1596.64</ele>
  <time>2026-08-28T19:12:16Z</time>
  <course>350.49</course>
  <speed>0.022360679774997897</speed>
  <fix>3d</fix>
</trkpt>
<trkpt lat="40.0728138" lon="-105.2306155">
  <ele>1596.58</ele>
  <time>2026-08-28T19:12:16Z</time>
  <course>145.82</course>
  <speed>0.0</speed>
  <fix>3d</fix>
</trkpt>
<trkpt lat="40.0728137" lon="-105.2306153">
  <ele>1596.64</ele>
  <time>2026-08-28T19:12:16Z</time>
  <course>350.47</course>
  <speed>0.022360679774997897</speed>
  <fix>3d</fix>
</trkpt>
<trkpt lat="40.0728138" lon="-105.2306154">
  <ele>1596.58</ele>
  <time>2026-08-28T19:12:16Z</time>
  <course>145.68</course>
  <speed>0.0</speed>
  <fix>3d</fix>
</trkpt>
<trkpt lat="40.0728137" lon="-105.2306153">
  <ele>1596.65</ele>
  <time>2026-08-28T19:12:16Z</time>
  <course>350.48</course>
  <speed>0.022360679774997897</speed>
  <fix>3d</fix>
</trkpt>
<trkpt lat="40.0728138" lon="-105.2306153">
  <ele>1596.58</ele>
  <time>2026-08-28T19:12:16Z</time>
  <course>145.55</course>
  <speed>0.0</speed>
  <fix>3d</fix>
</trkpt>
<trkpt lat="40.0728137" lon="-105.2306152">
  <ele>1596.65</ele>
  <time>2026-08-28T19:12:16Z</time>
  <course>350.49</course>
  <speed>0.022360679774997897</speed>
  <fix>3d</fix>
</trkpt>
<trkpt lat="40.0728138" lon="-105.2306153">
  <ele>1596.58</ele>
  <time>2026-08-28T19:12:16Z</time>
  <course>144.6</course>
  <speed>0.0</speed>
  <fix>3d</fix>
</trkpt>
<trkpt lat="40.0728137" lon="-105.2306152">
  <ele>1596.66</ele>
  <time>2026-08-28T19:12:16Z</time>
  <course>350.49</course>
  <speed>0.022360679774997897</speed>
  <fix>3d</fix>
</trkpt>
<trkpt lat="40.0728138" lon="-105.2306153">
  <ele>1596.59</ele>
  <time>2026-08-28T19:12:16Z</time>
  <course>144.8</course>
  <speed>0.0</speed>
  <fix>3d</fix>
</trkpt>
<trkpt lat="40.0728137" lon="-105.2306152">
  <ele>1596.66</ele>
  <time>2026-08-28T19:12:16Z</time>
  <course>350.5</course>
  <speed>0.022360679774997897</speed>
  <fix>3d</fix>
</trkpt>
<trkpt lat="40.0728138" lon="-105.2306153">
  <ele>1596.59</ele>
  <time>2026-08-28T19:12:16Z</time>
  <course>146.94</course>
  <speed>0.0</speed>
  <fix>3d</fix>
</trkpt>
<trkpt lat="40.0728137" lon="-105.2306152">
  <ele>1596.67</ele>
  <time>2026-08-28T19:12:16Z</time>
  <course>350.52</course>
  <speed>0.022360679774997897</speed>
  <fix>3d</fix>
</trkpt>
<trkpt lat="40.0728137" lon="-105.2306153">
  <ele>1596.59</ele>
  <time>2026-08-28T19:12:16Z</time>
  <course>151.41</course>
  <speed>0.0</speed>
  <fix>3d</fix>
</trkpt>
<trkpt lat="40.0728137" lon="-105.2306152">
  <ele>1596.67</ele>
  <time>2026-08-28T19:12:16Z</time>
  <course>350.55</course>
  <speed>0.022360679774997897</speed>
  <fix>3d</fix>
</trkpt>
<trkpt lat="40.0728137" lon="-105.2306153">
  <ele>1596.59</ele>
  <time>2026-08-28T19:12:16Z</time>
  <course>163.36</course>
  <speed>0.0</speed>
  <fix>3d</fix>
</trkpt>
<trkpt lat="40.0728137" lon="-105.2306152">
  <ele>1596.67</ele>
  <time>2026-08-28T19:12:16Z</time>
  <course>350.57</course>
  <speed>0.022360679774997897</speed>
  <fix>3d</fix>
</trkpt>
<trkpt lat="40.0728137" lon="-105.2306153">
  <ele>1596.59</ele>
  <time>2026-08-28T19:12:16Z</time>
  <course>182.04</course>
  <speed>0.0</speed>
  <fix>3d</fix>
</trkpt>
<trkpt lat="40.0728137" lon="-105.2306152">
  <ele>1596.67</ele>
  <time>2026-08-28T19:12:16Z</time>
  <course>350.59</course>
  <speed>0.01414213562373095</speed>
  <fix>3d</fix>
</trkpt>
<trkpt lat="40.0728137" lon="-105.2306153">
  <ele>1596.58</ele>
  <time>2026-08-28T19:12:16Z</time>
  <course>199.43</course>
  <speed>0.0</speed>
  <fix>3d</fix>
</trkpt>
<trkpt lat="40.0728137" lon="-105.2306152">
  <ele>1596.67</ele>
  <time>2026-08-28T19:12:16Z</time>
  <course>350.61</course>
  <speed>0.01414213562373095</speed>
  <fix>3d</fix>
</trkpt>
<trkpt lat="40.0728137" lon="-105.2306153">
  <ele>1596.58</ele>
  <time>2026-08-28T19:12:16Z</time>
  <course>212.49</course>
  <speed>0.0</speed>
  <fix>3d</fix>
</trkpt>
<trkpt lat="40.0728137" lon="-105.2306152">
  <ele>1596.66</ele>
  <time>2026-08-28T19:12:16Z</time>
  <course>350.61</course>
  <speed>0.01414213562373095</speed>
  <fix>3d</fix>
</trkpt>
<trkpt lat="40.0728137" lon="-105.2306153">
  <ele>1596.58</ele>
  <time>2026-08-28T19:12:16Z</time>
  <course>227.23</course>
  <speed>0.0</speed>
  <fix>3d</fix>
</trkpt>
<trkpt lat="40.0728137" lon="-105.2306152">
  <ele>1596.65</ele>
  <time>2026-08-28T19:12:16Z</time>
  <course>350.59</course>
  <speed>0.01414213562373095</speed>
  <fix>3d</fix>
</trkpt>
<trkpt lat="40.0728137" lon="-105.2306153">
  <ele>1596.57</ele>
  <time>2026-08-28T19:12:16Z</time>
  <course>245.31</course>
  <speed>0.0</speed>
  <fix>3d</fix>
</trkpt>
<trkpt lat="40.0728137" lon="-105.2306152">
  <ele>1596.65</ele>
  <time>2026-08-28T19:12:16Z</time>
  <course>350.57</course>
  <speed>0.01414213562373095</speed>
  <fix>3d</fix>
</trkpt>
<trkpt lat="40.0728137" lon="-105.2306153">
  <ele>1596.57</ele>
  <time>2026-08-28T19:12:16Z</time>
  <course>262.45</course>
  <speed>0.0</speed>
  <fix>3d</fix>
</trkpt>
<trkpt lat="40.0728137" lon="-105.2306152">
  <ele>1596.65</ele>
  <time>2026-08-28T19:12:16Z</time>
  <course>350.56</course>
  <speed>0.01</speed>
  <fix>3d</fix>
</trkpt>
<trkpt lat="40.0728137" lon="-105.2306153">
  <ele>1596.57</ele>
  <time>2026-08-28T19:12:16Z</time>
  <course>276.87</course>
  <speed>0.0</speed>
  <fix>3d</fix>
</trkpt>
<trkpt lat="40.0728137" lon="-105.2306152">
  <ele>1596.64</ele>
  <time>2026-08-28T19:12:16Z</time>
  <course>350.53</course>
  <speed>0.01</speed>
  <fix>3d</fix>
</trkpt>
<trkpt lat="40.0728137" lon="-105.2306153">
  <ele>1596.57</ele>
  <time>2026-08-28T19:12:16Z</time>
  <course>286.95</course>
  <speed>0.0</speed>
  <fix>3d</fix>
</trkpt>
<trkpt lat="40.0728137" lon="-105.2306152">
  <ele>1596.64</ele>
  <time>2026-08-28T19:12:16Z</time>
  <course>350.51</course>
  <speed>0.01</speed>
  <fix>3d</fix>
</trkpt>
<trkpt lat="40.0728137" lon="-105.2306153">
  <ele>1596.57</ele>
  <time>2026-08-28T19:12:16Z</time>
  <course>290.91</course>
  <speed>0.0</speed>
  <fix>3d</fix>
</trkpt>
<trkpt lat="40.0728137" lon="-105.2306152">
  <ele>1596.65</ele>
  <time>2026-08-28T19:12:16Z</time>
  <course>350.49</course>
  <speed>0.01</speed>
  <fix>3d</fix>
</trkpt>
<trkpt lat="40.0728137" lon="-105.2306153">
  <ele>1596.57</ele>
  <time>2026-08-28T19:12:16Z</time>
  <course>289.23</course>
  <speed>0.0</speed>
  <fix>3d</fix>
</trkpt>
<trkpt lat="40.0728137" lon="-105.2306152">
  <ele>1596.65</ele>
  <time>2026-08-28T19:12:16Z</time>
  <course>350.49</course>
  <speed>0.01414213562373095</speed>
  <fix>3d</fix>
</trkpt>
<trkpt lat="40.0728137" lon="-105.2306153">
  <ele>1596.57</ele>
  <time>2026-08-28T19:12:16Z</time>
  <course>284.06</course>
  <speed>0.0</speed>
  <fix>3d</fix>
</trkpt>
<trkpt lat="40.0728137" lon="-105.2306152">
  <ele>1596.66</ele>
  <time>2026-08-28T19:12:16Z</time>
  <course>350.5</course>
  <speed>0.01414213562373095</speed>
  <fix>3d</fix>
</trkpt>
<trkpt lat="40.0728137" lon="-105.2306153">
  <ele>1596.57</ele>
  <time>2026-08-28T19:12:16Z</time>
  <course>277.98</course>
  <speed>0.0</speed>
  <fix>3d</fix>
</trkpt>
<trkpt lat="40.0728137" lon="-105.2306152">
  <ele>1596.66</ele>
  <time>2026-08-28T19:12:16Z</time>
  <course>350.51</course>
  <speed>0.01414213562373095</speed>
  <fix>3d</fix>
</trkpt>
<trkpt lat="40.0728137" lon="-105.2306154">
  <ele>1596.57</ele>
  <time>2026-08-28T19:12:16Z</time>
  <course>274.41</course>
  <speed>0.0</speed>
  <fix>3d</fix>
</trkpt>
<trkpt lat="40.0728137" lon="-105.2306152">
  <ele>1596.66</ele>
  <time>2026-08-28T19:12:16Z</time>
  <course>350.52</course>
  <speed>0.01414213562373095</speed>
  <fix>3d</fix>
</trkpt>
<trkpt lat="40.0728137" lon="-105.2306155">
  <ele>1596.57</ele>
  <time>2026-08-28T19:12:16Z</time>
  <course>274.4</course>
  <speed>0.0</speed>
  <fix>3d</fix>
</trkpt>
<trkpt lat="40.0728137" lon="-105.2306152">
  <ele>1596.66</ele>
  <time>2026-08-28T19:12:16Z</time>
  <course>350.52</course>
  <speed>0.01414213562373095</speed>
  <fix>3d</fix>
</trkpt>
<trkpt lat="40.0728137" lon="-105.2306155">
  <ele>1596.57</ele>
  <time>2026-08-28T19:12:16Z</time>
  <course>277.8</course>
  <speed>0.0</speed>
  <fix>3d</fix>
</trkpt>
<trkpt lat="40.0728137" lon="-105.2306152">
  <ele>1596.66</ele>
  <time>2026-08-28T19:12:16Z</time>
  <course>350.53</course>
  <speed>0.01414213562373095</speed>
  <fix>3d</fix>
</trkpt>
<trkpt lat="40.0728137" lon="-105.2306155">
  <ele>1596.57</ele>
  <time>2026-08-28T19:12:16Z</time>
  <course>283.01</course>
  <speed>0.0</speed>
  <fix>3d</fix>
</trkpt>
<trkpt lat="40.0728137" lon="-105.2306152">
  <ele>1596.66</ele>
  <time>2026-08-28T19:12:16Z</time>
  <course>350.53</course>
  <speed>0.01414213562373095</speed>
  <fix>3d</fix>
</trkpt>
<trkpt lat="40.0728137" lon="-105.2306155">
  <ele>1596.57</ele>
  <time>2026-08-28T19:12:16Z</time>
  <course>290.15</course>
  <speed>0.0</speed>
  <fix>3d</fix>
</trkpt>
<trkpt lat="40.0728137" lon="-105.2306152">
  <ele>1596.66</ele>
  <time>2026-08-28T19:12:16Z</time>
  <course>350.54</course>
  <speed>0.022360679774997897</speed>
  <fix>3d</fix>
</trkpt>
<trkpt lat="40.0728137" lon="-105.2306155">
  <ele>1596.56</ele>
  <time>2026-08-28T19:12:16Z</time>
  <course>298.64</course>
  <speed>0.0</speed>
  <fix>3d</fix>
</trkpt>
<trkpt lat="40.0728137" lon="-105.2306152">
  <ele>1596.65</ele>
  <time>2026-08-28T19:12:16Z</time>
  <course>350.53</course>
  <speed>0.022360679774997897</speed>
  <fix>3d</fix>
</trkpt>
<trkpt lat="40.0728137" lon="-105.2306155">
  <ele>1596.56</ele>
  <time>2026-08-28T19:12:16Z</time>
  <course>310.11</course>
  <speed>0.0</speed>
  <fix>3d</fix>
</trkpt>
<trkpt lat="40.0728137" lon="-105.2306153">
  <ele>1596.66</ele>
  <time>2026-08-28T19:12:16Z</time>
  <course>350.54</course>
  <speed>0.022360679774997897</speed>
  <fix>3d</fix>
</trkpt>
<trkpt lat="40.0728137" lon="-105.2306155">
  <ele>1596.56</ele>
  <time>2026-08-28T19:12:16Z</time>
  <course>330.18</course>
  <speed>0.0</speed>
  <fix>3d</fix>
</trkpt>
<trkpt lat="40.0728137" lon="-105.2306153">
  <ele>1596.66</ele>
  <time>2026-08-28T19:12:16Z</time>
  <course>350.53</course>
  <speed>0.022360679774997897</speed>
  <fix>3d</fix>
</trkpt>
<trkpt lat="40.0728137" lon="-105.2306155">
  <ele>1596.56</ele>
  <time>2026-08-28T19:12:16Z</time>
  <course>349.96</course>
  <speed>0.0</speed>
  <fix>3d</fix>
</trkpt>
<trkpt lat="40.0728137" lon="-105.2306153">
  <ele>1596.66</ele>
  <time>2026-08-28T19:12:16Z</time>
  <course>350.54</course>
  <speed>0.022360679774997897</speed>
  <fix>3d</fix>
</trkpt>
<trkpt lat="40.0728137" lon="-105.2306155">
  <ele>1596.56</ele>
  <time>2026-08-28T19:12:16Z</time>
  <course>3.61</course>
  <speed>0.0</speed>
  <fix>3d</fix>
</trkpt>
<trkpt lat="40.0728137" lon="-105.2306153">
  <ele>1596.66</ele>
  <time>2026-08-28T19:12:16Z</time>
  <course>350.54</course>
  <speed>0.022360679774997897</speed>
  <fix>3d</fix>
</trkpt>
<trkpt lat="40.0728137" lon="-105.2306155">
  <ele>1596.56</ele>
  <time>2026-08-28T19:12:16Z</time>
  <course>13.12</course>
  <speed>0.0</speed>
  <fix>3d</fix>
</trkpt>
<trkpt lat="40.0728137" lon="-105.2306153">
  <ele>1596.66</ele>
  <time>2026-08-28T19:12:16Z</time>
  <course>350.54</course>
  <speed>0.022360679774997897</speed>
  <fix>3d</fix>
</trkpt>
<trkpt lat="40.0728137" lon="-105.2306155">
  <ele>1596.56</ele>
  <time>2026-08-28T19:12:16Z</time>
  <course>20.95</course>
  <speed>0.0</speed>
  <fix>3d</fix>
</trkpt>
<trkpt lat="40.0728137" lon="-105.2306153">
  <ele>1596.66</ele>
  <time>2026-08-28T19:12:16Z</time>
  <course>350.54</course>
  <speed>0.022360679774997897</speed>
  <fix>3d</fix>
</trkpt>
<trkpt lat="40.0728137" lon="-105.2306155">
  <ele>1596.55</ele>
  <time>2026-08-28T19:12:16Z</time>
  <course>28.35</course>
  <speed>0.0</speed>
  <fix>3d</fix>
</trkpt>
<trkpt lat="40.0728137" lon="-105.2306153">
  <ele>1596.66</ele>
  <time>2026-08-28T19:12:16Z</time>
  <course>350.55</course>
  <speed>0.022360679774997897</speed>
  <fix>3d</fix>
</trkpt>
<trkpt lat="40.0728137" lon="-105.2306155">
  <ele>1596.55</ele>
  <time>2026-08-28T19:12:16Z</time>
  <course>35.95</course>
  <speed>0.0</speed>
  <fix>3d</fix>
</trkpt>
<trkpt lat="40.0728137" lon="-105.2306153">
  <ele>1596.66</ele>
  <time>2026-08-28T19:12:16Z</time>
  <course>350.55</course>
  <speed>0.022360679774997897</speed>
  <fix>3d</fix>
</trkpt>
<trkpt lat="40.0728137" lon="-105.2306155">
  <ele>1596.55</ele>
  <time>2026-08-28T19:12:16Z</time>
  <course>41.35</course>
  <speed>0.0</speed>
  <fix>3d</fix>
</trkpt>
<trkpt lat="40.0728137" lon="-105.2306153">
  <ele>1596.65</ele>
  <time>2026-08-28T19:12:16Z</time>
  <course>350.55</course>
  <speed>0.022360679774997897</speed>
  <fix>3d</fix>
</trkpt>
<trkpt lat="40.0728137" lon="-105.2306155">
  <ele>1596.54</ele>
  <time>2026-08-28T19:12:16Z</time>
  <course>45.0</course>
  <speed>0.0</speed>
  <fix>3d</fix>
</trkpt>
<trkpt lat="40.0728137" lon="-105.2306153">
  <ele>1596.65</ele>
  <time>2026-08-28T19:12:16Z</time>
  <course>350.52</course>
  <speed>0.022360679774997897</speed>
  <fix>3d</fix>
</trkpt>
<trkpt lat="40.0728137" lon="-105.2306155">
  <ele>1596.54</ele>
  <time>2026-08-28T19:12:16Z</time>
  <course>47.02</course>
  <speed>0.0</speed>
  <fix>3d</fix>
</trkpt>
<trkpt lat="40.0728137" lon="-105.2306153">
  <ele>1596.65</ele>
  <time>2026-08-28T19:12:16Z</time>
  <course>350.51</course>
  <speed>0.022360679774997897</speed>
  <fix>3d</fix>
</trkpt>
<trkpt lat="40.0728137" lon="-105.2306155">
  <ele>1596.54</ele>
  <time>2026-08-28T19:12:16Z</time>
  <course>47.06</course>
  <speed>0.0</speed>
  <fix>3d</fix>
</trkpt>
<trkpt lat="40.0728137" lon="-105.2306153">
  <ele>1596.65</ele>
  <time>2026-08-28T19:12:16Z</time>
  <course>350.5</course>
  <speed>0.022360679774997897</speed>
  <fix>3d</fix>
</trkpt>
<trkpt lat="40.0728137" lon="-105.2306155">
  <ele>1596.54</ele>
  <time>2026-08-28T19:12:16Z</time>
  <course>47.45</course>
  <speed>0.0</speed>
  <fix>3d</fix>
</trkpt>
<trkpt lat="40.0728137" lon="-105.2306153">
  <ele>1596.65</ele>
  <time>2026-08-28T19:12:16Z</time>
  <course>350.49</course>
  <speed>0.022360679774997897</speed>
  <fix>3d</fix>
</trkpt>
<trkpt lat="40.0728137" lon="-105.2306155">
  <ele>1596.54</ele>
  <time>2026-08-28T19:12:16Z</time>
  <course>51.37</course>
  <speed>0.0</speed>
  <fix>3d</fix>
</trkpt>
<trkpt lat="40.0728137" lon="-105.2306153">
  <ele>1596.65</ele>
  <time>2026-08-28T19:12:16Z</time>
  <course>350.48</course>
  <speed>0.022360679774997897</speed>
  <fix>3d</fix>
</trkpt>
<trkpt lat="40.0728137" lon="-105.2306155">
  <ele>1596.54</ele>
  <time>2026-08-28T19:12:16Z</time>
  <course>53.54</course>
  <speed>0.0</speed>
  <fix>3d</fix>
</trkpt>
<trkpt lat="40.0728137" lon="-105.2306153">
  <ele>1596.64</ele>
  <time>2026-08-28T19:12:16Z</time>
  <course>350.47</course>
  <speed>0.022360679774997897</speed>
  <fix>3d</fix>
</trkpt>
<trkpt lat="40.0728137" lon="-105.2306155">
  <ele>1596.54</ele>
  <time>2026-08-28T19:12:16Z</time>
  <course>52.71</course>
  <speed>0.0</speed>
  <fix>3d</fix>
</trkpt>
<trkpt lat="40.0728137" lon="-105.2306153">
  <ele>1596.64</ele>
  <time>2026-08-28T19:12:16Z</time>
  <course>350.46</course>
  <speed>0.022360679774997897</speed>
  <fix>3d</fix>
</trkpt>
<trkpt lat="40.0728137" lon="-105.2306155">
  <ele>1596.54</ele>
  <time>2026-08-28T19:12:16Z</time>
  <course>51.99</course>
  <speed>0.0</speed>
  <fix>3d</fix>
</trkpt>
<trkpt lat="40.0728137" lon="-105.2306153">
  <ele>1596.64</ele>
  <time>2026-08-28T19:12:16Z</time>
  <course>350.46</course>
  <speed>0.022360679774997897</speed>
  <fix>3d</fix>
</trkpt>
<trkpt lat="40.0728137" lon="-105.2306155">
  <ele>1596.54</ele>
  <time>2026-08-28T19:12:16Z</time>
  <course>51.22</course>
  <speed>0.0</speed>
  <fix>3d</fix>
</trkpt>
<trkpt lat="40.0728137" lon="-105.2306153">
  <ele>1596.64</ele>
  <time>2026-08-28T19:12:16Z</time>
  <course>350.45</course>
  <speed>0.022360679774997897</speed>
  <fix>3d</fix>
</trkpt>
<trkpt lat="40.0728137" lon="-105.2306155">
  <ele>1596.54</ele>
  <time>2026-08-28T19:12:16Z</time>
  <course>50.43</course>
  <speed>0.0</speed>
  <fix>3d</fix>
</trkpt>
<trkpt lat="40.0728137" lon="-105.2306153">
  <ele>1596.64</ele>
  <time>2026-08-28T19:12:16Z</time>
  <course>350.42</course>
  <speed>0.022360679774997897</speed>
  <fix>3d</fix>
</trkpt>
<trkpt lat="40.0728137" lon="-105.2306155">
  <ele>1596.54</ele>
  <time>2026-08-28T19:12:16Z</time>
  <course>51.69</course>
  <speed>0.0</speed>
  <fix>3d</fix>
</trkpt>
<trkpt lat="40.0728137" lon="-105.2306153">
  <ele>1596.64</ele>
  <time>2026-08-28T19:12:16Z</time>
  <course>350.4</course>
  <speed>0.022360679774997897</speed>
  <fix>3d</fix>
</trkpt>
<trkpt lat="40.0728137" lon="-105.2306155">
  <ele>1596.54</ele>
  <time>2026-08-28T19:12:16Z</time>
  <course>55.12</course>
  <speed>0.0</speed>
  <fix>3d</fix>
</trkpt>
<trkpt lat="40.0728137" lon="-105.2306153">
  <ele>1596.63</ele>
  <time>2026-08-28T19:12:16Z</time>
  <course>350.38</course>
  <speed>0.022360679774997897</speed>
  <fix>3d</fix>
</trkpt>
<trkpt lat="40.0728138" lon="-105.2306155">
  <ele>1596.54</ele>
  <time>2026-08-28T19:12:16Z</time>
  <course>58.86</course>
  <speed>0.0</speed>
  <fix>3d</fix>
</trkpt>
<trkpt lat="40.0728137" lon="-105.2306153">
  <ele>1596.64</ele>
  <time>2026-08-28T19:12:16Z</time>
  <course>350.37</course>
  <speed>0.022360679774997897</speed>
  <fix>3d</fix>
</trkpt>
<trkpt lat="40.0728138" lon="-105.2306155">
  <ele>1596.54</ele>
  <time>2026-08-28T19:12:16Z</time>
  <course>62.06</course>
  <speed>0.0</speed>
  <fix>3d</fix>
</trkpt>
<trkpt lat="40.0728137" lon="-105.2306153">
  <ele>1596.64</ele>
  <time>2026-08-28T19:12:16Z</time>
  <course>350.37</course>
  <speed>0.022360679774997897</speed>
  <fix>3d</fix>
</trkpt>
<trkpt lat="40.0728138" lon="-105.2306155">
  <ele>1596.55</ele>
  <time>2026-08-28T19:12:16Z</time>
  <course>63.75</course>
  <speed>0.0</speed>
  <fix>3d</fix>
</trkpt>
<trkpt lat="40.0728137" lon="-105.2306153">
  <ele>1596.65</ele>
  <time>2026-08-28T19:12:16Z</time>
  <course>350.37</course>
  <speed>0.022360679774997897</speed>
  <fix>3d</fix>
</trkpt>
<trkpt lat="40.0728138" lon="-105.2306155">
  <ele>1596.55</ele>
  <time>2026-08-28T19:12:16Z</time>
  <course>65.46</course>
  <speed>0.0</speed>
  <fix>3d</fix>
</trkpt>
<trkpt lat="40.0728137" lon="-105.2306153">
  <ele>1596.65</ele>
  <time>2026-08-28T19:12:16Z</time>
  <course>350.38</course>
  <speed>0.022360679774997897</speed>
  <fix>3d</fix>
</trkpt>
<trkpt lat="40.0728138" lon="-105.2306155">
  <ele>1596.55</ele>
  <time>2026-08-28T19:12:16Z</time>
  <course>72.35</course>
  <speed>0.0</speed>
  <fix>3d</fix>
</trkpt>
<trkpt lat="40.0728137" lon="-105.2306153">
  <ele>1596.66</ele>
  <time>2026-08-28T19:12:16Z</time>
  <course>350.4</course>
  <speed>0.022360679774997897</speed>
  <fix>3d</fix>
</trkpt>
<trkpt lat="40.0728138" lon="-105.2306155">
  <ele>1596.55</ele>
  <time>2026-08-28T19:12:16Z</time>
  <course>83.49</course>
  <speed>0.0</speed>
  <fix>3d</fix>
</trkpt>
<trkpt lat="40.0728137" lon="-105.2306153">
  <ele>1596.66</ele>
  <time>2026-08-28T19:12:17Z</time>
  <course>350.41</course>
  <speed>0.022360679774997897</speed>
  <fix>3d</fix>
</trkpt>
<trkpt lat="40.0728138" lon="-105.2306155">
  <ele>1596.56</ele>
  <time>2026-08-28T19:12:17Z</time>
  <course>93.78</course>
  <speed>0.0</speed>
  <fix>3d</fix>
</trkpt>
<trkpt lat="40.0728137" lon="-105.2306153">
  <ele>1596.66</ele>
  <time>2026-08-28T19:12:17Z</time>
  <course>350.44</course>
  <speed>0.022360679774997897</speed>
  <fix>3d</fix>
</trkpt>
<trkpt lat="40.0728138" lon="-105.2306154">
  <ele>1596.56</ele>
  <time>2026-08-28T19:12:17Z</time>
  <course>103.79</course>
  <speed>0.0</speed>
  <fix>3d</fix>
</trkpt>
<trkpt lat="40.0728137" lon="-105.2306153">
  <ele>1596.66</ele>
  <time>2026-08-28T19:12:17Z</time>
  <course>350.46</course>
  <speed>0.022360679774997897</speed>
  <fix>3d</fix>
</trkpt>
<trkpt lat="40.0728138" lon="-105.2306153">
  <ele>1596.56</ele>
  <time>2026-08-28T19:12:17Z</time>
  <course>113.2</course>
  <speed>0.0</speed>
  <fix>3d</fix>
</trkpt>
<trkpt lat="40.0728137" lon="-105.2306152">
  <ele>1596.66</ele>
  <time>2026-08-28T19:12:17Z</time>
  <course>350.46</course>
  <speed>0.022360679774997897</speed>
  <fix>3d</fix>
</trkpt>
<trkpt lat="40.0728138" lon="-105.2306153">
  <ele>1596.55</ele>
  <time>2026-08-28T19:12:17Z</time>
  <course>117.92</course>
  <speed>0.0</speed>
  <fix>3d</fix>
</trkpt>
<trkpt lat="40.0728137" lon="-105.2306152">
  <ele>1596.65</ele>
  <time>2026-08-28T19:12:17Z</time>
  <course>350.47</course>
  <speed>0.022360679774997897</speed>
  <fix>3d</fix>
</trkpt>
<trkpt lat="40.0728138" lon="-105.2306153">
  <ele>1596.55</ele>
  <time>2026-08-28T19:12:17Z</time>
  <course>120.71</course>
  <speed>0.0</speed>
  <fix>3d</fix>
</trkpt>
<trkpt lat="40.0728137" lon="-105.2306152">
  <ele>1596.65</ele>
  <time>2026-08-28T19:12:17Z</time>
  <course>350.46</course>
  <speed>0.022360679774997897</speed>
  <fix>3d</fix>
</trkpt>
<trkpt lat="40.0728138" lon="-105.2306153">
  <ele>1596.55</ele>
  <time>2026-08-28T19:12:17Z</time>
  <course>128.68</course>
  <speed>0.0</speed>
  <fix>3d</fix>
</trkpt>
<trkpt lat="40.0728137" lon="-105.2306152">
  <ele>1596.65</ele>
  <time>2026-08-28T19:12:17Z</time>
  <course>350.45</course>
  <speed>0.022360679774997897</speed>
  <fix>3d</fix>
</trkpt>
<trkpt lat="40.0728138" lon="-105.2306153">
  <ele>1596.55</ele>
  <time>2026-08-28T19:12:17Z</time>
  <course>142.07</course>
  <speed>0.0</speed>
  <fix>3d</fix>
</trkpt>
<trkpt lat="40.0728137" lon="-105.2306152">
  <ele>1596.64</ele>
  <time>2026-08-28T19:12:17Z</time>
  <course>350.43</course>
  <speed>0.022360679774997897</speed>
  <fix>3d</fix>
</trkpt>
<trkpt lat="40.0728138" lon="-105.2306153">
  <ele>1596.55</ele>
  <time>2026-08-28T19:12:17Z</time>
  <course>158.47</course>
  <speed>0.0</speed>
  <fix>3d</fix>
</trkpt>
<trkpt lat="40.0728137" lon="-105.2306152">
  <ele>1596.64</ele>
  <time>2026-08-28T19:12:17Z</time>
  <course>350.41</course>
  <speed>0.022360679774997897</speed>
  <fix>3d</fix>
</trkpt>
<trkpt lat="40.0728138" lon="-105.2306153">
  <ele>1596.55</ele>
  <time>2026-08-28T19:12:17Z</time>
  <course>175.91</course>
  <speed>0.0</speed>
  <fix>3d</fix>
</trkpt>
<trkpt lat="40.0728137" lon="-105.2306152">
  <ele>1596.64</ele>
  <time>2026-08-28T19:12:17Z</time>
  <course>350.38</course>
  <speed>0.022360679774997897</speed>
  <fix>3d</fix>
</trkpt>
<trkpt lat="40.0728138" lon="-105.2306153">
  <ele>1596.55</ele>
  <time>2026-08-28T19:12:17Z</time>
  <course>191.95</course>
  <speed>0.0</speed>
  <fix>3d</fix>
</trkpt>
<trkpt lat="40.0728137" lon="-105.2306152">
  <ele>1596.64</ele>
  <time>2026-08-28T19:12:17Z</time>
  <course>350.38</course>
  <speed>0.01414213562373095</speed>
  <fix>3d</fix>
</trkpt>
<trkpt lat="40.0728138" lon="-105.2306153">
  <ele>1596.55</ele>
  <time>2026-08-28T19:12:17Z</time>
  <course>204.53</course>
  <speed>0.0</speed>
  <fix>3d</fix>
</trkpt>
<trkpt lat="40.0728137" lon="-105.2306152">
  <ele>1596.65</ele>
  <time>2026-08-28T19:12:17Z</time>
  <course>350.37</course>
  <speed>0.01414213562373095</speed>
  <fix>3d</fix>
</trkpt>
<trkpt lat="40.0728138" lon="-105.2306153">
  <ele>1596.55</ele>
  <time>2026-08-28T19:12:17Z</time>
  <course>212.87</course>
  <speed>0.0</speed>
  <fix>3d</fix>
</trkpt>
<trkpt lat="40.0728137" lon="-105.2306152">
  <ele>1596.65</ele>
  <time>2026-08-28T19:12:17Z</time>
  <course>350.37</course>
  <speed>0.01414213562373095</speed>
  <fix>3d</fix>
</trkpt>
<trkpt lat="40.0728138" lon="-105.2306153">
  <ele>1596.56</ele>
  <time>2026-08-28T19:12:17Z</time>
  <course>218.33</course>
  <speed>0.0</speed>
  <fix>3d</fix>
</trkpt>
<trkpt lat="40.0728137" lon="-105.2306152">
  <ele>1596.65</ele>
  <time>2026-08-28T19:12:17Z</time>
  <course>350.37</course>
  <speed>0.01414213562373095</speed>
  <fix>3d</fix>
</trkpt>
<trkpt lat="40.0728138" lon="-105.2306153">
  <ele>1596.56</ele>
  <time>2026-08-28T19:12:17Z</time>
  <course>220.69</course>
  <speed>0.0</speed>
  <fix>3d</fix>
</trkpt>
<trkpt lat="40.0728137" lon="-105.2306152">
  <ele>1596.65</ele>
  <time>2026-08-28T19:12:17Z</time>
  <course>350.37</course>
  <speed>0.01414213562373095</speed>
  <fix>3d</fix>
</trkpt>
<trkpt lat="40.0728138" lon="-105.2306153">
  <ele>1596.56</ele>
  <time>2026-08-28T19:12:17Z</time>
  <course>222.39</course>
  <speed>0.0</speed>
  <fix>3d</fix>
</trkpt>
<trkpt lat="40.0728137" lon="-105.2306152">
  <ele>1596.65</ele>
  <time>2026-08-28T19:12:17Z</time>
  <course>350.37</course>
  <speed>0.01414213562373095</speed>
  <fix>3d</fix>
</trkpt>
<trkpt lat="40.0728138" lon="-105.2306153">
  <ele>1596.56</ele>
  <time>2026-08-28T19:12:17Z</time>
  <course>225.26</course>
  <speed>0.01</speed>
  <fix>3d</fix>
</trkpt>
<trkpt lat="40.0728137" lon="-105.2306152">
  <ele>1596.66</ele>
  <time>2026-08-28T19:12:17Z</time>
  <course>350.37</course>
  <speed>0.01414213562373095</speed>
  <fix>3d</fix>
</trkpt>
<trkpt lat="40.0728137" lon="-105.2306153">
  <ele>1596.56</ele>
  <time>2026-08-28T19:12:17Z</time>
  <course>227.92</course>
  <speed>0.01</speed>
  <fix>3d</fix>
</trkpt>
<trkpt lat="40.0728137" lon="-105.2306152">
  <ele>1596.66</ele>
  <time>2026-08-28T19:12:17Z</time>
  <course>350.37</course>
  <speed>0.01414213562373095</speed>
  <fix>3d</fix>
</trkpt>
<trkpt lat="40.0728137" lon="-105.2306153">
  <ele>1596.56</ele>
  <time>2026-08-28T19:12:17Z</time>
  <course>229.82</course>
  <speed>0.0</speed>
  <fix>3d</fix>
</trkpt>
<trkpt lat="40.0728137" lon="-105.2306152">
  <ele>1596.66</ele>
  <time>2026-08-28T19:12:17Z</time>
  <course>350.38</course>
  <speed>0.01414213562373095</speed>
  <fix>3d</fix>
</trkpt>
<trkpt lat="40.0728137" lon="-105.2306153">
  <ele>1596.56</ele>
  <time>2026-08-28T19:12:17Z</time>
  <course>233.35</course>
  <speed>0.0</speed>
  <fix>3d</fix>
</trkpt>
<trkpt lat="40.0728137" lon="-105.2306152">
  <ele>1596.66</ele>
  <time>2026-08-28T19:12:17Z</time>
  <course>350.4</course>
  <speed>0.01414213562373095</speed>
  <fix>3d</fix>
</trkpt>
<trkpt lat="40.0728137" lon="-105.2306153">
  <ele>1596.56</ele>
  <time>2026-08-28T19:12:17Z</time>
  <course>239.78</course>
  <speed>0.0</speed>
  <fix>3d</fix>
</trkpt>
<trkpt lat="40.0728137" lon="-105.2306152">
  <ele>1596.66</ele>
  <time>2026-08-28T19:12:17Z</time>
  <course>350.43</course>
  <speed>0.01414213562373095</speed>
  <fix>3d</fix>
</trkpt>
<trkpt lat="40.0728137" lon="-105.2306154">
  <ele>1596.56</ele>
  <time>2026-08-28T19:12:17Z</time>
  <course>246.97</course>
  <speed>0.0</speed>
  <fix>3d</fix>
</trkpt>
<trkpt lat="40.0728137" lon="-105.2306152">
  <ele>1596.66</ele>
  <time>2026-08-28T19:12:17Z</time>
  <course>350.44</course>
  <speed>0.01414213562373095</speed>
  <fix>3d</fix>
</trkpt>
<trkpt lat="40.0728137" lon="-105.2306155">
  <ele>1596.56</ele>
  <time>2026-08-28T19:12:17Z</time>
  <course>254.3</course>
  <speed>0.0</speed>
  <fix>3d</fix>
</trkpt>
<trkpt lat="40.0728137" lon="-105.2306152">
  <ele>1596.65</ele>
  <time>2026-08-28T19:12:17Z</time>
  <course>350.44</course>
  <speed>0.01414213562373095</speed>
  <fix>3d</fix>
</trkpt>
<trkpt lat="40.0728137" lon="-105.2306155">
  <ele>1596.55</ele>
  <time>2026-08-28T19:12:17Z</time>
  <course>261.96</course>
  <speed>0.0</speed>
  <fix>3d</fix>
</trkpt>
<trkpt lat="40.0728137" lon="-105.2306152">
  <ele>1596.64</ele>
  <time>2026-08-28T19:12:17Z</time>
  <course>350.43</course>
  <speed>0.01</speed>
  <fix>3d</fix>
</trkpt>
<trkpt lat="40.0728137" lon="-105.2306155">
  <ele>1596.55</ele>
  <time>2026-08-28T19:12:17Z</time>
  <course>271.04</course>
  <speed>0.0</speed>
  <fix>3d</fix>
</trkpt>
<trkpt lat="40.0728137" lon="-105.2306152">
  <ele>1596.64</ele>
  <time>2026-08-28T19:12:17Z</time>
  <course>350.41</course>
  <speed>0.02</speed>
  <fix>3d</fix>
</trkpt>
<trkpt lat="40.0728137" lon="-105.2306155">
  <ele>1596.55</ele>
  <time>2026-08-28T19:12:17Z</time>
  <course>283.75</course>
  <speed>0.0</speed>
  <fix>3d</fix>
</trkpt>
<trkpt lat="40.0728137" lon="-105.2306152">
  <ele>1596.64</ele>
  <time>2026-08-28T19:12:17Z</time>
  <course>350.38</course>
  <speed>0.02</speed>
  <fix>3d</fix>
</trkpt>
<trkpt lat="40.0728137" lon="-105.2306155">
  <ele>1596.55</ele>
  <time>2026-08-28T19:12:17Z</time>
  <course>299.45</course>
  <speed>0.0</speed>
  <fix>3d</fix>
</trkpt>
<trkpt lat="40.0728137" lon="-105.2306152">
  <ele>1596.64</ele>
  <time>2026-08-28T19:12:17Z</time>
  <course>350.35</course>
  <speed>0.02</speed>
  <fix>3d</fix>
</trkpt>
<trkpt lat="40.0728137" lon="-105.2306155">
  <ele>1596.55</ele>
  <time>2026-08-28T19:12:17Z</time>
  <course>309.25</course>
  <speed>0.0</speed>
  <fix>3d</fix>
</trkpt>
<trkpt lat="40.0728137" lon="-105.2306152">
  <ele>1596.64</ele>
  <time>2026-08-28T19:12:17Z</time>
  <course>350.34</course>
  <speed>0.022360679774997897</speed>
  <fix>3d</fix>
</trkpt>
<trkpt lat="40.0728137" lon="-105.2306155">
  <ele>1596.55</ele>
  <time>2026-08-28T19:12:17Z</time>
  <course>312.19</course>
  <speed>0.0</speed>
  <fix>3d</fix>
</trkpt>
<trkpt lat="40.0728137" lon="-105.2306152">
  <ele>1596.64</ele>
  <time>2026-08-28T19:12:17Z</time>
  <course>350.33</course>
  <speed>0.022360679774997897</speed>
  <fix>3d</fix>
</trkpt>
<trkpt lat="40.0728137" lon="-105.2306155">
  <ele>1596.55</ele>
  <time>2026-08-28T19:12:17Z</time>
  <course>321.3</course>
  <speed>0.0</speed>
  <fix>3d</fix>
</trkpt>
<trkpt lat="40.0728137" lon="-105.2306152">
  <ele>1596.64</ele>
  <time>2026-08-28T19:12:17Z</time>
  <course>350.33</course>
  <speed>0.022360679774997897</speed>
  <fix>3d</fix>
</trkpt>
<trkpt lat="40.0728137" lon="-105.2306155">
  <ele>1596.55</ele>
  <time>2026-08-28T19:12:17Z</time>
  <course>350.29</course>
  <speed>0.0</speed>
  <fix>3d</fix>
</trkpt>
<trkpt lat="40.0728137" lon="-105.2306152">
  <ele>1596.64</ele>
  <time>2026-08-28T19:12:17Z</time>
  <course>350.32</course>
  <speed>0.022360679774997897</speed>
  <fix>3d</fix>
</trkpt>
<trkpt lat="40.0728137" lon="-105.2306155">
  <ele>1596.55</ele>
  <time>2026-08-28T19:12:17Z</time>
  <course>22.01</course>
  <speed>0.0</speed>
  <fix>3d</fix>
</trkpt>
<trkpt lat="40.0728137" lon="-105.2306152">
  <ele>1596.64</ele>
  <time>2026-08-28T19:12:17Z</time>
  <course>350.31</course>
  <speed>0.022360679774997897</speed>
  <fix>3d</fix>
</trkpt>
<trkpt lat="40.0728137" lon="-105.2306155">
  <ele>1596.56</ele>
  <time>2026-08-28T19:12:17Z</time>
  <course>32.64</course>
  <speed>0.0</speed>
  <fix>3d</fix>
</trkpt>
<trkpt lat="40.0728137" lon="-105.2306152">
  <ele>1596.64</ele>
  <time>2026-08-28T19:12:17Z</time>
  <course>350.3</course>
  <speed>0.022360679774997897</speed>
  <fix>3d</fix>
</trkpt>
<trkpt lat="40.0728137" lon="-105.2306155">
  <ele>1596.56</ele>
  <time>2026-08-28T19:12:17Z</time>
  <course>40.68</course>
  <speed>0.0</speed>
  <fix>3d</fix>
</trkpt>
<trkpt lat="40.0728137" lon="-105.2306152">
  <ele>1596.64</ele>
  <time>2026-08-28T19:12:17Z</time>
  <course>350.29</course>
  <speed>0.022360679774997897</speed>
  <fix>3d</fix>
</trkpt>
<trkpt lat="40.0728137" lon="-105.2306155">
  <ele>1596.56</ele>
  <time>2026-08-28T19:12:17Z</time>
  <course>45.14</course>
  <speed>0.0</speed>
  <fix>3d</fix>
</trkpt>
<trkpt lat="40.0728137" lon="-105.2306152">
  <ele>1596.65</ele>
  <time>2026-08-28T19:12:17Z</time>
  <course>350.29</course>
  <speed>0.022360679774997897</speed>
  <fix>3d</fix>
</trkpt>
<trkpt lat="40.0728137" lon="-105.2306155">
  <ele>1596.56</ele>
  <time>2026-08-28T19:12:17Z</time>
  <course>46.25</course>
  <speed>0.0</speed>
  <fix>3d</fix>
</trkpt>
<trkpt lat="40.0728137" lon="-105.2306152">
  <ele>1596.65</ele>
  <time>2026-08-28T19:12:17Z</time>
  <course>350.29</course>
  <speed>0.022360679774997897</speed>
  <fix>3d</fix>
</trkpt>
<trkpt lat="40.0728137" lon="-105.2306155">
  <ele>1596.56</ele>
  <time>2026-08-28T19:12:17Z</time>
  <course>51.71</course>
  <speed>0.0</speed>
  <fix>3d</fix>
</trkpt>
<trkpt lat="40.0728137" lon="-105.2306152">
  <ele>1596.65</ele>
  <time>2026-08-28T19:12:17Z</time>
  <course>350.29</course>
  <speed>0.022360679774997897</speed>
  <fix>3d</fix>
</trkpt>
<trkpt lat="40.0728137" lon="-105.2306155">
  <ele>1596.57</ele>
  <time>2026-08-28T19:12:17Z</time>
  <course>58.1</course>
  <speed>0.0</speed>
  <fix>3d</fix>
</trkpt>
<trkpt lat="40.0728137" lon="-105.2306152">
  <ele>1596.66</ele>
  <time>2026-08-28T19:12:17Z</time>
  <course>350.29</course>
  <speed>0.022360679774997897</speed>
  <fix>3d</fix>
</trkpt>
<trkpt lat="40.0728137" lon="-105.2306155">
  <ele>1596.57</ele>
  <time>2026-08-28T19:12:17Z</time>
  <course>63.01</course>
  <speed>0.0</speed>
  <fix>3d</fix>
</trkpt>
<trkpt lat="40.0728137" lon="-105.2306152">
  <ele>1596.66</ele>
  <time>2026-08-28T19:12:17Z</time>
  <course>350.3</course>
  <speed>0.022360679774997897</speed>
  <fix>3d</fix>
</trkpt>
<trkpt lat="40.0728137" lon="-105.2306155">
  <ele>1596.57</ele>
  <time>2026-08-28T19:12:17Z</time>
  <course>66.33</course>
  <speed>0.0</speed>
  <fix>3d</fix>
</trkpt>
<trkpt lat="40.0728137" lon="-105.2306152">
  <ele>1596.66</ele>
  <time>2026-08-28T19:12:17Z</time>
  <course>350.32</course>
  <speed>0.022360679774997897</speed>
  <fix>3d</fix>
</trkpt>
<trkpt lat="40.0728137" lon="-105.2306155">
  <ele>1596.57</ele>
  <time>2026-08-28T19:12:17Z</time>
  <course>63.0</course>
  <speed>0.0</speed>
  <fix>3d</fix>
</trkpt>
<trkpt lat="40.0728137" lon="-105.2306152">
  <ele>1596.66</ele>
  <time>2026-08-28T19:12:17Z</time>
  <course>350.35</course>
  <speed>0.022360679774997897</speed>
  <fix>3d</fix>
</trkpt>
<trkpt lat="40.0728137" lon="-105.2306155">
  <ele>1596.57</ele>
  <time>2026-08-28T19:12:17Z</time>
  <course>55.34</course>
  <speed>0.0</speed>
  <fix>3d</fix>
</trkpt>
<trkpt lat="40.0728137" lon="-105.2306152">
  <ele>1596.65</ele>
  <time>2026-08-28T19:12:17Z</time>
  <course>350.35</course>
  <speed>0.022360679774997897</speed>
  <fix>3d</fix>
</trkpt>
<trkpt lat="40.0728137" lon="-105.2306155">
  <ele>1596.57</ele>
  <time>2026-08-28T19:12:17Z</time>
  <course>49.06</course>
  <speed>0.0</speed>
  <fix>3d</fix>
</trkpt>
<trkpt lat="40.0728137" lon="-105.2306152">
  <ele>1596.65</ele>
  <time>2026-08-28T19:12:17Z</time>
  <course>350.34</course>
  <speed>0.022360679774997897</speed>
  <fix>3d</fix>
</trkpt>
<trkpt lat="40.0728137" lon="-105.2306155">
  <ele>1596.57</ele>
  <time>2026-08-28T19:12:17Z</time>
  <course>46.37</course>
  <speed>0.0</speed>
  <fix>3d</fix>
</trkpt>
<trkpt lat="40.0728137" lon="-105.2306152">
  <ele>1596.66</ele>
  <time>2026-08-28T19:12:17Z</time>
  <course>350.33</course>
  <speed>0.022360679774997897</speed>
  <fix>3d</fix>
</trkpt>
<trkpt lat="40.0728137" lon="-105.2306155">
  <ele>1596.57</ele>
  <time>2026-08-28T19:12:17Z</time>
  <course>46.29</course>
  <speed>0.0</speed>
  <fix>3d</fix>
</trkpt>
<trkpt lat="40.0728137" lon="-105.2306152">
  <ele>1596.66</ele>
  <time>2026-08-28T19:12:17Z</time>
  <course>350.34</course>
  <speed>0.022360679774997897</speed>
  <fix>3d</fix>
</trkpt>
<trkpt lat="40.0728137" lon="-105.2306155">
  <ele>1596.57</ele>
  <time>2026-08-28T19:12:17Z</time>
  <course>44.82</course>
  <speed>0.0</speed>
  <fix>3d</fix>
</trkpt>
<trkpt lat="40.0728137" lon="-105.2306152">
  <ele>1596.66</ele>
  <time>2026-08-28T19:12:17Z</time>
  <course>350.36</course>
  <speed>0.022360679774997897</speed>
  <fix>3d</fix>
</trkpt>
<trkpt lat="40.0728137" lon="-105.2306155">
  <ele>1596.56</ele>
  <time>2026-08-28T19:12:17Z</time>
  <course>43.65</course>
  <speed>0.0</speed>
  <fix>3d</fix>
</trkpt>
<trkpt lat="40.0728137" lon="-105.2306152">
  <ele>1596.66</ele>
  <time>2026-08-28T19:12:17Z</time>
  <course>350.38</course>
  <speed>0.022360679774997897</speed>
  <fix>3d</fix>
</trkpt>
<trkpt lat="40.0728137" lon="-105.2306155">
  <ele>1596.56</ele>
  <time>2026-08-28T19:12:17Z</time>
  <course>44.45</course>
  <speed>0.0</speed>
  <fix>3d</fix>
</trkpt>
<trkpt lat="40.0728137" lon="-105.2306152">
  <ele>1596.66</ele>
  <time>2026-08-28T19:12:17Z</time>
  <course>350.39</course>
  <speed>0.022360679774997897</speed>
  <fix>3d</fix>
</trkpt>
<trkpt lat="40.0728137" lon="-105.2306155">
  <ele>1596.56</ele>
  <time>2026-08-28T19:12:17Z</time>
  <course>45.44</course>
  <speed>0.0</speed>
  <fix>3d</fix>
</trkpt>
<trkpt lat="40.0728137" lon="-105.2306152">
  <ele>1596.66</ele>
  <time>2026-08-28T19:12:17Z</time>
  <course>350.39</course>
  <speed>0.022360679774997897</speed>
  <fix>3d</fix>
</trkpt>
<trkpt lat="40.0728137" lon="-105.2306155">
  <ele>1596.56</ele>
  <time>2026-08-28T19:12:17Z</time>
  <course>46.74</course>
  <speed>0.0</speed>
  <fix>3d</fix>
</trkpt>
<trkpt lat="40.0728137" lon="-105.2306152">
  <ele>1596.66</ele>
  <time>2026-08-28T19:12:17Z</time>
  <course>350.4</course>
  <speed>0.022360679774997897</speed>
  <fix>3d</fix>
</trkpt>
<trkpt lat="40.0728137" lon="-105.2306155">
  <ele>1596.55</ele>
  <time>2026-08-28T19:12:17Z</time>
  <course>48.24</course>
  <speed>0.0</speed>
  <fix>3d</fix>
</trkpt>
<trkpt lat="40.0728137" lon="-105.2306152">
  <ele>1596.66</ele>
  <time>2026-08-28T19:12:17Z</time>
  <course>350.4</course>
  <speed>0.022360679774997897</speed>
  <fix>3d</fix>
</trkpt>
<trkpt lat="40.0728137" lon="-105.2306155">
  <ele>1596.55</ele>
  <time>2026-08-28T19:12:17Z</time>
  <course>49.06</course>
  <speed>0.0</speed>
  <fix>3d</fix>
</trkpt>
<trkpt lat="40.0728137" lon="-105.2306152">
  <ele>1596.66</ele>
  <time>2026-08-28T19:12:17Z</time>
  <course>350.41</course>
  <speed>0.022360679774997897</speed>
  <fix>3d</fix>
</trkpt>
<trkpt lat="40.0728137" lon="-105.2306155">
  <ele>1596.55</ele>
  <time>2026-08-28T19:12:17Z</time>
  <course>48.91</course>
  <speed>0.0</speed>
  <fix>3d</fix>
</trkpt>
<trkpt lat="40.0728137" lon="-105.2306152">
  <ele>1596.65</ele>
  <time>2026-08-28T19:12:17Z</time>
  <course>350.4</course>
  <speed>0.022360679774997897</speed>
  <fix>3d</fix>
</trkpt>
<trkpt lat="40.0728137" lon="-105.2306155">
  <ele>1596.54</ele>
  <time>2026-08-28T19:12:17Z</time>
  <course>48.92</course>
  <speed>0.0</speed>
  <fix>3d</fix>
</trkpt>
<trkpt lat="40.0728137" lon="-105.2306152">
  <ele>1596.65</ele>
  <time>2026-08-28T19:12:17Z</time>
  <course>350.38</course>
  <speed>0.022360679774997897</speed>
  <fix>3d</fix>
</trkpt>
<trkpt lat="40.0728137" lon="-105.2306154">
  <ele>1596.54</ele>
  <time>2026-08-28T19:12:17Z</time>
  <course>49.45</course>
  <speed>0.0</speed>
  <fix>3d</fix>
</trkpt>
<trkpt lat="40.0728137" lon="-105.2306152">
  <ele>1596.65</ele>
  <time>2026-08-28T19:12:17Z</time>
  <course>350.36</course>
  <speed>0.022360679774997897</speed>
  <fix>3d</fix>
</trkpt>
<trkpt lat="40.0728138" lon="-105.2306153">
  <ele>1596.54</ele>
  <time>2026-08-28T19:12:17Z</time>
  <course>49.44</course>
  <speed>0.0</speed>
  <fix>3d</fix>
</trkpt>
<trkpt lat="40.0728137" lon="-105.2306152">
  <ele>1596.64</ele>
  <time>2026-08-28T19:12:17Z</time>
  <course>350.35</course>
  <speed>0.022360679774997897</speed>
  <fix>3d</fix>
</trkpt>
<trkpt lat="40.0728138" lon="-105.2306153">
  <ele>1596.54</ele>
  <time>2026-08-28T19:12:17Z</time>
  <course>48.74</course>
  <speed>0.0</speed>
  <fix>3d</fix>
</trkpt>
<trkpt lat="40.0728137" lon="-105.2306152">
  <ele>1596.64</ele>
  <time>2026-08-28T19:12:17Z</time>
  <course>350.33</course>
  <speed>0.022360679774997897</speed>
  <fix>3d</fix>
</trkpt>
<trkpt lat="40.0728138" lon="-105.2306153">
  <ele>1596.54</ele>
  <time>2026-08-28T19:12:17Z</time>
  <course>48.03</course>
  <speed>0.0</speed>
  <fix>3d</fix>
</trkpt>
<trkpt lat="40.0728137" lon="-105.2306152">
  <ele>1596.64</ele>
  <time>2026-08-28T19:12:17Z</time>
  <course>350.3</course>
  <speed>0.022360679774997897</speed>
  <fix>3d</fix>
</trkpt>
<trkpt lat="40.0728138" lon="-105.2306153">
  <ele>1596.54</ele>
  <time>2026-08-28T19:12:17Z</time>
  <course>46.63</course>
  <speed>0.0</speed>
  <fix>3d</fix>
</trkpt>
<trkpt lat="40.0728137" lon="-105.2306152">
  <ele>1596.64</ele>
  <time>2026-08-28T19:12:17Z</time>
  <course>350.27</course>
  <speed>0.022360679774997897</speed>
  <fix>3d</fix>
</trkpt>
<trkpt lat="40.0728138" lon="-105.2306153">
  <ele>1596.54</ele>
  <time>2026-08-28T19:12:17Z</time>
  <course>43.32</course>
  <speed>0.0</speed>
  <fix>3d</fix>
</trkpt>
<trkpt lat="40.0728137" lon="-105.2306152">
  <ele>1596.64</ele>
  <time>2026-08-28T19:12:17Z</time>
  <course>350.25</course>
  <speed>0.022360679774997897</speed>
  <fix>3d</fix>
</trkpt>
<trkpt lat="40.0728138" lon="-105.2306153">
  <ele>1596.54</ele>
  <time>2026-08-28T19:12:17Z</time>
  <course>27.74</course>
  <speed>0.0</speed>
  <fix>3d</fix>
</trkpt>
<trkpt lat="40.0728137" lon="-105.2306152">
  <ele>1596.65</ele>
  <time>2026-08-28T19:12:17Z</time>
  <course>350.25</course>
  <speed>0.01414213562373095</speed>
  <fix>3d</fix>
</trkpt>
<trkpt lat="40.0728138" lon="-105.2306153">
  <ele>1596.54</ele>
  <time>2026-08-28T19:12:17Z</time>
  <course>238.22</course>
  <speed>0.0</speed>
  <fix>3d</fix>
</trkpt>
<trkpt lat="40.0728137" lon="-105.2306152">
  <ele>1596.65</ele>
  <time>2026-08-28T19:12:17Z</time>
  <course>350.27</course>
  <speed>0.01414213562373095</speed>
  <fix>3d</fix>
</trkpt>
<trkpt lat="40.0728138" lon="-105.2306153">
  <ele>1596.55</ele>
  <time>2026-08-28T19:12:17Z</time>
  <course>232.61</course>
  <speed>0.0</speed>
  <fix>3d</fix>
</trkpt>
<trkpt lat="40.0728137" lon="-105.2306152">
  <ele>1596.65</ele>
  <time>2026-08-28T19:12:17Z</time>
  <course>350.28</course>
  <speed>0.01414213562373095</speed>
  <fix>3d</fix>
</trkpt>
<trkpt lat="40.0728138" lon="-105.2306153">
  <ele>1596.55</ele>
  <time>2026-08-28T19:12:17Z</time>
  <course>230.16</course>
  <speed>0.0</speed>
  <fix>3d</fix>
</trkpt>
<trkpt lat="40.0728137" lon="-105.2306152">
  <ele>1596.65</ele>
  <time>2026-08-28T19:12:17Z</time>
  <course>350.29</course>
  <speed>0.01414213562373095</speed>
  <fix>3d</fix>
</trkpt>
<trkpt lat="40.0728138" lon="-105.2306153">
  <ele>1596.55</ele>
  <time>2026-08-28T19:12:17Z</time>
  <course>228.35</course>
  <speed>0.0</speed>
  <fix>3d</fix>
</trkpt>
<trkpt lat="40.0728137" lon="-105.2306152">
  <ele>1596.65</ele>
  <time>2026-08-28T19:12:17Z</time>
  <course>350.3</course>
  <speed>0.01414213562373095</speed>
  <fix>3d</fix>
</trkpt>
<trkpt lat="40.0728138" lon="-105.2306153">
  <ele>1596.55</ele>
  <time>2026-08-28T19:12:17Z</time>
  <course>226.97</course>
  <speed>0.0</speed>
  <fix>3d</fix>
</trkpt>
<trkpt lat="40.0728137" lon="-105.2306152">
  <ele>1596.64</ele>
  <time>2026-08-28T19:12:17Z</time>
  <course>350.31</course>
  <speed>0.01414213562373095</speed>
  <fix>3d</fix>
</trkpt>
<trkpt lat="40.0728138" lon="-105.2306153">
  <ele>1596.55</ele>
  <time>2026-08-28T19:12:17Z</time>
  <course>225.91</course>
  <speed>0.0</speed>
  <fix>3d</fix>
</trkpt>
<trkpt lat="40.0728137" lon="-105.2306152">
  <ele>1596.64</ele>
  <time>2026-08-28T19:12:17Z</time>
  <course>350.31</course>
  <speed>0.01414213562373095</speed>
  <fix>3d</fix>
</trkpt>
<trkpt lat="40.0728138" lon="-105.2306153">
  <ele>1596.55</ele>
  <time>2026-08-28T19:12:17Z</time>
  <course>225.05</course>
  <speed>0.0</speed>
  <fix>3d</fix>
</trkpt>
<trkpt lat="40.0728137" lon="-105.2306152">
  <ele>1596.64</ele>
  <time>2026-08-28T19:12:17Z</time>
  <course>350.29</course>
  <speed>0.01414213562373095</speed>
  <fix>3d</fix>
</trkpt>
<trkpt lat="40.0728138" lon="-105.2306153">
  <ele>1596.55</ele>
  <time>2026-08-28T19:12:17Z</time>
  <course>222.67</course>
  <speed>0.0</speed>
  <fix>3d</fix>
</trkpt>
<trkpt lat="40.0728137" lon="-105.2306152">
  <ele>1596.64</ele>
  <time>2026-08-28T19:12:17Z</time>
  <course>350.27</course>
  <speed>0.01414213562373095</speed>
  <fix>3d</fix>
</trkpt>
<trkpt lat="40.0728138" lon="-105.2306153">
  <ele>1596.55</ele>
  <time>2026-08-28T19:12:17Z</time>
  <course>218.95</course>
  <speed>0.0</speed>
  <fix>3d</fix>
</trkpt>
<trkpt lat="40.0728137" lon="-105.2306152">
  <ele>1596.64</ele>
  <time>2026-08-28T19:12:17Z</time>
  <course>350.25</course>
  <speed>0.01414213562373095</speed>
  <fix>3d</fix>
</trkpt>
<trkpt lat="40.0728138" lon="-105.2306153">
  <ele>1596.56</ele>
  <time>2026-08-28T19:12:17Z</time>
  <course>216.64</course>
  <speed>0.0</speed>
  <fix>3d</fix>
</trkpt>
<trkpt lat="40.0728137" lon="-105.2306152">
  <ele>1596.64</ele>
  <time>2026-08-28T19:12:17Z</time>
  <course>350.24</course>
  <speed>0.01414213562373095</speed>
  <fix>3d</fix>
</trkpt>
<trkpt lat="40.0728138" lon="-105.2306153">
  <ele>1596.56</ele>
  <time>2026-08-28T19:12:17Z</time>
  <course>214.65</course>
  <speed>0.0</speed>
  <fix>3d</fix>
</trkpt>
<trkpt lat="40.0728137" lon="-105.2306152">
  <ele>1596.64</ele>
  <time>2026-08-28T19:12:17Z</time>
  <course>350.23</course>
  <speed>0.01414213562373095</speed>
  <fix>3d</fix>
</trkpt>
<trkpt lat="40.0728138" lon="-105.2306153">
  <ele>1596.56</ele>
  <time>2026-08-28T19:12:17Z</time>
  <course>211.45</course>
  <speed>0.0</speed>
  <fix>3d</fix>
</trkpt>
<trkpt lat="40.0728137" lon="-105.2306152">
  <ele>1596.64</ele>
  <time>2026-08-28T19:12:17Z</time>
  <course>350.23</course>
  <speed>0.01414213562373095</speed>
  <fix>3d</fix>
</trkpt>
<trkpt lat="40.0728138" lon="-105.2306153">
  <ele>1596.56</ele>
  <time>2026-08-28T19:12:17Z</time>
  <course>209.07</course>
  <speed>0.0</speed>
  <fix>3d</fix>
</trkpt>
<trkpt lat="40.0728137" lon="-105.2306152">
  <ele>1596.64</ele>
  <time>2026-08-28T19:12:17Z</time>
  <course>350.22</course>
  <speed>0.01414213562373095</speed>
  <fix>3d</fix>
</trkpt>
<trkpt lat="40.0728138" lon="-105.2306153">
  <ele>1596.56</ele>
  <time>2026-08-28T19:12:17Z</time>
  <course>207.72</course>
  <speed>0.0</speed>
  <fix>3d</fix>
</trkpt>
<trkpt lat="40.0728137" lon="-105.2306152">
  <ele>1596.65</ele>
  <time>2026-08-28T19:12:17Z</time>
  <course>350.22</course>
  <speed>0.01414213562373095</speed>
  <fix>3d</fix>
</trkpt>
<trkpt lat="40.0728138" lon="-105.2306153">
  <ele>1596.57</ele>
  <time>2026-08-28T19:12:17Z</time>
  <course>207.45</course>
  <speed>0.0</speed>
  <fix>3d</fix>
</trkpt>
<trkpt lat="40.0728137" lon="-105.2306152">
  <ele>1596.65</ele>
  <time>2026-08-28T19:12:17Z</time>
  <course>350.22</course>
  <speed>0.01414213562373095</speed>
  <fix>3d</fix>
</trkpt>
<trkpt lat="40.0728137" lon="-105.2306153">
  <ele>1596.57</ele>
  <time>2026-08-28T19:12:17Z</time>
  <course>208.2</course>
  <speed>0.0</speed>
  <fix>3d</fix>
</trkpt>
<trkpt lat="40.0728137" lon="-105.2306152">
  <ele>1596.66</ele>
  <time>2026-08-28T19:12:17Z</time>
  <course>350.22</course>
  <speed>0.01414213562373095</speed>
  <fix>3d</fix>
</trkpt>
<trkpt lat="40.0728137" lon="-105.2306154">
  <ele>1596.57</ele>
  <time>2026-08-28T19:12:17Z</time>
  <course>209.5</course>
  <speed>0.0</speed>
  <fix>3d</fix>
</trkpt>
<trkpt lat="40.0728137" lon="-105.2306152">
  <ele>1596.66</ele>
  <time>2026-08-28T19:12:17Z</time>
  <course>350.23</course>
  <speed>0.01414213562373095</speed>
  <fix>3d</fix>
</trkpt>
<trkpt lat="40.0728137" lon="-105.2306155">
  <ele>1596.57</ele>
  <time>2026-08-28T19:12:17Z</time>
  <course>211.39</course>
  <speed>0.0</speed>
  <fix>3d</fix>
</trkpt>
<trkpt lat="40.0728137" lon="-105.2306152">
  <ele>1596.67</ele>
  <time>2026-08-28T19:12:17Z</time>
  <course>350.24</course>
  <speed>0.01414213562373095</speed>
  <fix>3d</fix>
</trkpt>
<trkpt lat="40.0728137" lon="-105.2306155">
  <ele>1596.58</ele>
  <time>2026-08-28T19:12:17Z</time>
  <course>211.08</course>
  <speed>0.0</speed>
  <fix>3d</fix>
</trkpt>
<trkpt lat="40.0728137" lon="-105.2306152">
  <ele>1596.67</ele>
  <time>2026-08-28T19:12:17Z</time>
  <course>350.27</course>
  <speed>0.01414213562373095</speed>
  <fix>3d</fix>
</trkpt>
<trkpt lat="40.0728137" lon="-105.2306155">
  <ele>1596.57</ele>
  <time>2026-08-28T19:12:17Z</time>
  <course>206.53</course>
  <speed>0.0</speed>
  <fix>3d</fix>
</trkpt>
<trkpt lat="40.0728137" lon="-105.2306152">
  <ele>1596.67</ele>
  <time>2026-08-28T19:12:17Z</time>
  <course>350.29</course>
  <speed>0.01414213562373095</speed>
  <fix>3d</fix>
</trkpt>
<trkpt lat="40.0728137" lon="-105.2306155">
  <ele>1596.57</ele>
  <time>2026-08-28T19:12:17Z</time>
  <course>197.18</course>
  <speed>0.0</speed>
  <fix>3d</fix>
</trkpt>
<trkpt lat="40.0728136" lon="-105.2306152">
  <ele>1596.66</ele>
  <time>2026-08-28T19:12:17Z</time>
  <course>350.31</course>
  <speed>0.01414213562373095</speed>
  <fix>3d</fix>
</trkpt>
<trkpt lat="40.0728137" lon="-105.2306155">
  <ele>1596.57</ele>
  <time>2026-08-28T19:12:17Z</time>
  <course>181.21</course>
  <speed>0.0</speed>
  <fix>3d</fix>
</trkpt>
<trkpt lat="40.0728136" lon="-105.2306152">
  <ele>1596.66</ele>
  <time>2026-08-28T19:12:17Z</time>
  <course>350.31</course>
  <speed>0.022360679774997897</speed>
  <fix>3d</fix>
</trkpt>
<trkpt lat="40.0728137" lon="-105.2306155">
  <ele>1596.57</ele>
  <time>2026-08-28T19:12:17Z</time>
  <course>158.86</course>
  <speed>0.0</speed>
  <fix>3d</fix>
</trkpt>
<trkpt lat="40.0728136" lon="-105.2306152">
  <ele>1596.66</ele>
  <time>2026-08-28T19:12:17Z</time>
  <course>350.32</course>
  <speed>0.022360679774997897</speed>
  <fix>3d</fix>
</trkpt>
<trkpt lat="40.0728137" lon="-105.2306155">
  <ele>1596.56</ele>
  <time>2026-08-28T19:12:17Z</time>
  <course>138.08</course>
  <speed>0.0</speed>
  <fix>3d</fix>
</trkpt>
<trkpt lat="40.0728136" lon="-105.2306152">
  <ele>1596.65</ele>
  <time>2026-08-28T19:12:17Z</time>
  <course>350.31</course>
  <speed>0.02</speed>
  <fix>3d</fix>
</trkpt>
<trkpt lat="40.0728137" lon="-105.2306155">
  <ele>1596.56</ele>
  <time>2026-08-28T19:12:17Z</time>
  <course>124.86</course>
  <speed>0.0</speed>
  <fix>3d</fix>
</trkpt>
<trkpt lat="40.0728136" lon="-105.2306152">
  <ele>1596.65</ele>
  <time>2026-08-28T19:12:17Z</time>
  <course>350.29</course>
  <speed>0.02</speed>
  <fix>3d</fix>
</trkpt>
<trkpt lat="40.0728136" lon="-105.2306155">
  <ele>1596.56</ele>
  <time>2026-08-28T19:12:17Z</time>
  <course>115.31</course>
  <speed>0.0</speed>
  <fix>3d</fix>
</trkpt>
<trkpt lat="40.0728136" lon="-105.2306152">
  <ele>1596.64</ele>
  <time>2026-08-28T19:12:17Z</time>
  <course>350.27</course>
  <speed>0.02</speed>
  <fix>3d</fix>
</trkpt>
<trkpt lat="40.0728135" lon="-105.2306155">
  <ele>1596.56</ele>
  <time>2026-08-28T19:12:17Z</time>
  <course>107.5</course>
  <speed>0.0</speed>
  <fix>3d</fix>
</trkpt>
<trkpt lat="40.0728136" lon="-105.2306152">
  <ele>1596.64</ele>
  <time>2026-08-28T19:12:17Z</time>
  <course>350.25</course>
  <speed>0.02</speed>
  <fix>3d</fix>
</trkpt>
<trkpt lat="40.0728135" lon="-105.2306155">
  <ele>1596.56</ele>
  <time>2026-08-28T19:12:17Z</time>
  <course>102.78</course>
  <speed>0.0</speed>
  <fix>3d</fix>
</trkpt>
<trkpt lat="40.0728136" lon="-105.2306152">
  <ele>1596.64</ele>
  <time>2026-08-28T19:12:17Z</time>
  <course>350.23</course>
  <speed>0.02</speed>
  <fix>3d</fix>
</trkpt>
<trkpt lat="40.0728135" lon="-105.2306155">
  <ele>1596.56</ele>
  <time>2026-08-28T19:12:17Z</time>
  <course>99.97</course>
  <speed>0.0</speed>
  <fix>3d</fix>
</trkpt>
<trkpt lat="40.0728136" lon="-105.2306152">
  <ele>1596.64</ele>
  <time>2026-08-28T19:12:17Z</time>
  <course>350.2</course>
  <speed>0.02</speed>
  <fix>3d</fix>
</trkpt>
<trkpt lat="40.0728135" lon="-105.2306155">
  <ele>1596.56</ele>
  <time>2026-08-28T19:12:17Z</time>
  <course>95.9</course>
  <speed>0.01</speed>
  <fix>3d</fix>
</trkpt>
<trkpt lat="40.0728136" lon="-105.2306152">
  <ele>1596.65</ele>
  <time>2026-08-28T19:12:17Z</time>
  <course>350.18</course>
  <speed>0.02</speed>
  <fix>3d</fix>
</trkpt>
<trkpt lat="40.0728135" lon="-105.2306154">
  <ele>1596.56</ele>
  <time>2026-08-28T19:12:17Z</time>
  <course>90.33</course>
  <speed>0.01</speed>
  <fix>3d</fix>
</trkpt>
<trkpt lat="40.0728136" lon="-105.2306152">
  <ele>1596.65</ele>
  <time>2026-08-28T19:12:17Z</time>
  <course>350.19</course>
  <speed>0.02</speed>
  <fix>3d</fix>
</trkpt>
<trkpt lat="40.0728135" lon="-105.2306153">
  <ele>1596.56</ele>
  <time>2026-08-28T19:12:17Z</time>
  <course>85.83</course>
  <speed>0.01</speed>
  <fix>3d</fix>
</trkpt>
<trkpt lat="40.0728136" lon="-105.2306152">
  <ele>1596.65</ele>
  <time>2026-08-28T19:12:17Z</time>
  <course>350.2</course>
  <speed>0.02</speed>
  <fix>3d</fix>
</trkpt>
<trkpt lat="40.0728135" lon="-105.2306153">
  <ele>1596.57</ele>
  <time>2026-08-28T19:12:17Z</time>
  <course>82.76</course>
  <speed>0.01</speed>
  <fix>3d</fix>
</trkpt>
<trkpt lat="40.0728136" lon="-105.2306152">
  <ele>1596.66</ele>
  <time>2026-08-28T19:12:17Z</time>
  <course>350.21</course>
  <speed>0.02</speed>
  <fix>3d</fix>
</trkpt>
<trkpt lat="40.0728135" lon="-105.2306153">
  <ele>1596.57</ele>
  <time>2026-08-28T19:12:17Z</time>
  <course>80.05</course>
  <speed>0.01</speed>
  <fix>3d</fix>
</trkpt>
<trkpt lat="40.0728136" lon="-105.2306152">
  <ele>1596.66</ele>
  <time>2026-08-28T19:12:17Z</time>
  <course>350.22</course>
  <speed>0.02</speed>
  <fix>3d</fix>
</trkpt>
<trkpt lat="40.0728135" lon="-105.2306153">
  <ele>1596.57</ele>
  <time>2026-08-28T19:12:17Z</time>
  <course>76.13</course>
  <speed>0.01</speed>
  <fix>3d</fix>
</trkpt>
<trkpt lat="40.0728136" lon="-105.2306152">
  <ele>1596.66</ele>
  <time>2026-08-28T19:12:17Z</time>
  <course>350.23</course>
  <speed>0.01</speed>
  <fix>3d</fix>
</trkpt>
<trkpt lat="40.0728135" lon="-105.2306153">
  <ele>1596.57</ele>
  <time>2026-08-28T19:12:17Z</time>
  <course>68.66</course>
  <speed>0.01</speed>
  <fix>3d</fix>
</trkpt>
<trkpt lat="40.0728136" lon="-105.2306151">
  <ele>1596.65</ele>
  <time>2026-08-28T19:12:17Z</time>
  <course>350.24</course>
  <speed>0.01</speed>
  <fix>3d</fix>
</trkpt>
<trkpt lat="40.0728135" lon="-105.2306153">
  <ele>1596.57</ele>
  <time>2026-08-28T19:12:17Z</time>
  <course>58.98</course>
  <speed>0.01</speed>
  <fix>3d</fix>
</trkpt>
<trkpt lat="40.0728136" lon="-105.2306151">
  <ele>1596.65</ele>
  <time>2026-08-28T19:12:17Z</time>
  <course>350.24</course>
  <speed>0.01</speed>
  <fix>3d</fix>
</trkpt>
<trkpt lat="40.0728135" lon="-105.2306153">
  <ele>1596.57</ele>
  <time>2026-08-28T19:12:17Z</time>
  <course>51.25</course>
  <speed>0.01</speed>
  <fix>3d</fix>
</trkpt>
<trkpt lat="40.0728136" lon="-105.2306151">
  <ele>1596.64</ele>
  <time>2026-08-28T19:12:17Z</time>
  <course>350.24</course>
  <speed>0.01</speed>
  <fix>3d</fix>
</trkpt>
<trkpt lat="40.0728135" lon="-105.2306152">
  <ele>1596.57</ele>
  <time>2026-08-28T19:12:17Z</time>
  <course>45.73</course>
  <speed>0.01</speed>
  <fix>3d</fix>
</trkpt>
<trkpt lat="40.0728136" lon="-105.2306151">
  <ele>1596.64</ele>
  <time>2026-08-28T19:12:17Z</time>
  <course>350.24</course>
  <speed>0.01</speed>
  <fix>3d</fix>
</trkpt>
<trkpt lat="40.0728135" lon="-105.2306151">
  <ele>1596.57</ele>
  <time>2026-08-28T19:12:17Z</time>
  <course>41.0</course>
  <speed>0.01</speed>
  <fix>3d</fix>
</trkpt>
<trkpt lat="40.0728136" lon="-105.2306151">
  <ele>1596.65</ele>
  <time>2026-08-28T19:12:17Z</time>
  <course>350.21</course>
  <speed>0.01</speed>
  <fix>3d</fix>
</trkpt>
<trkpt lat="40.0728135" lon="-105.2306151">
  <ele>1596.57</ele>
  <time>2026-08-28T19:12:17Z</time>
  <course>38.82</course>
  <speed>0.01</speed>
  <fix>3d</fix>
</trkpt>
<trkpt lat="40.0728136" lon="-105.2306151">
  <ele>1596.66</ele>
  <time>2026-08-28T19:12:17Z</time>
  <course>350.2</course>
  <speed>0.01</speed>
  <fix>3d</fix>
</trkpt>
<trkpt lat="40.0728135" lon="-105.2306151">
  <ele>1596.57</ele>
  <time>2026-08-28T19:12:17Z</time>
  <course>37.47</course>
  <speed>0.01</speed>
  <fix>3d</fix>
</trkpt>
<trkpt lat="40.0728136" lon="-105.2306151">
  <ele>1596.66</ele>
  <time>2026-08-28T19:12:17Z</time>
  <course>350.2</course>
  <speed>0.01</speed>
  <fix>3d</fix>
</trkpt>
<trkpt lat="40.0728136" lon="-105.2306151">
  <ele>1596.57</ele>
  <time>2026-08-28T19:12:17Z</time>
  <course>33.75</course>
  <speed>0.01</speed>
  <fix>3d</fix>
</trkpt>
<trkpt lat="40.0728136" lon="-105.2306151">
  <ele>1596.66</ele>
  <time>2026-08-28T19:12:17Z</time>
  <course>350.22</course>
  <speed>0.01</speed>
  <fix>3d</fix>
</trkpt>
<trkpt lat="40.0728137" lon="-105.2306151">
  <ele>1596.57</ele>
  <time>2026-08-28T19:12:17Z</time>
  <course>29.35</course>
  <speed>0.0</speed>
  <fix>3d</fix>
</trkpt>
<trkpt lat="40.0728136" lon="-105.230615">
  <ele>1596.65</ele>
  <time>2026-08-28T19:12:17Z</time>
  <course>350.23</course>
  <speed>0.01</speed>
  <fix>3d</fix>
</trkpt>
<trkpt lat="40.0728137" lon="-105.2306151">
  <ele>1596.57</ele>
  <time>2026-08-28T19:12:17Z</time>
  <course>25.62</course>
  <speed>0.0</speed>
  <fix>3d</fix>
</trkpt>
<trkpt lat="40.0728136" lon="-105.230615">
  <ele>1596.65</ele>
  <time>2026-08-28T19:12:17Z</time>
  <course>350.24</course>
  <speed>0.0</speed>
  <fix>3d</fix>
</trkpt>
<trkpt lat="40.0728137" lon="-105.2306151">
  <ele>1596.57</ele>
  <time>2026-08-28T19:12:17Z</time>
  <course>23.98</course>
  <speed>0.0</speed>
  <fix>3d</fix>
</trkpt>
<trkpt lat="40.0728136" lon="-105.230615">
  <ele>1596.65</ele>
  <time>2026-08-28T19:12:17Z</time>
  <course>350.23</course>
  <speed>0.0</speed>
  <fix>3d</fix>
</trkpt>
<trkpt lat="40.0728137" lon="-105.2306151">
  <ele>1596.57</ele>
  <time>2026-08-28T19:12:17Z</time>
  <course>26.01</course>
  <speed>0.0</speed>
  <fix>3d</fix>
</trkpt>
<trkpt lat="40.0728136" lon="-105.230615">
  <ele>1596.65</ele>
  <time>2026-08-28T19:12:17Z</time>
  <course>350.21</course>
  <speed>0.0</speed>
  <fix>3d</fix>
</trkpt>
<trkpt lat="40.0728137" lon="-105.2306151">
  <ele>1596.57</ele>
  <time>2026-08-28T19:12:17Z</time>
  <course>32.48</course>
  <speed>0.0</speed>
  <fix>3d</fix>
</trkpt>
<trkpt lat="40.0728136" lon="-105.230615">
  <ele>1596.65</ele>
  <time>2026-08-28T19:12:17Z</time>
  <course>350.2</course>
  <speed>0.0</speed>
  <fix>3d</fix>
</trkpt>
<trkpt lat="40.0728137" lon="-105.2306151">
  <ele>1596.57</ele>
  <time>2026-08-28T19:12:17Z</time>
  <course>46.19</course>
  <speed>0.0</speed>
  <fix>3d</fix>
</trkpt>
<trkpt lat="40.0728136" lon="-105.230615">
  <ele>1596.65</ele>
  <time>2026-08-28T19:12:17Z</time>
  <course>350.19</course>
  <speed>0.0</speed>
  <fix>3d</fix>
</trkpt>
<trkpt lat="40.0728137" lon="-105.2306151">
  <ele>1596.57</ele>
  <time>2026-08-28T19:12:17Z</time>
  <course>90.46</course>
  <speed>0.0</speed>
  <fix>3d</fix>
</trkpt>
<trkpt lat="40.0728136" lon="-105.230615">
  <ele>1596.65</ele>
  <time>2026-08-28T19:12:17Z</time>
  <course>350.18</course>
  <speed>0.0</speed>
  <fix>3d</fix>
</trkpt>
<trkpt lat="40.0728137" lon="-105.2306151">
  <ele>1596.57</ele>
  <time>2026-08-28T19:12:17Z</time>
  <course>144.02</course>
  <speed>0.0</speed>
  <fix>3d</fix>
</trkpt>
<trkpt lat="40.0728136" lon="-105.230615">
  <ele>1596.66</ele>
  <time>2026-08-28T19:12:17Z</time>
  <course>350.18</course>
  <speed>0.0</speed>
  <fix>3d</fix>
</trkpt>
<trkpt lat="40.0728137" lon="-105.2306151">
  <ele>1596.57</ele>
  <time>2026-08-28T19:12:17Z</time>
  <course>162.02</course>
  <speed>0.0</speed>
  <fix>3d</fix>
</trkpt>
<trkpt lat="40.0728136" lon="-105.230615">
  <ele>1596.66</ele>
  <time>2026-08-28T19:12:17Z</time>
  <course>350.17</course>
  <speed>0.0</speed>
  <fix>3d</fix>
</trkpt>
<trkpt lat="40.0728137" lon="-105.2306151">
  <ele>1596.57</ele>
  <time>2026-08-28T19:12:17Z</time>
  <course>168.65</course>
  <speed>0.0</speed>
  <fix>3d</fix>
</trkpt>
<trkpt lat="40.0728136" lon="-105.230615">
  <ele>1596.66</ele>
  <time>2026-08-28T19:12:17Z</time>
  <course>350.18</course>
  <speed>0.0</speed>
  <fix>3d</fix>
</trkpt>
<trkpt lat="40.0728137" lon="-105.2306151">
  <ele>1596.57</ele>
  <time>2026-08-28T19:12:17Z</time>
  <course>170.74</course>
  <speed>0.0</speed>
  <fix>3d</fix>
</trkpt>
<trkpt lat="40.0728136" lon="-105.230615">
  <ele>1596.66</ele>
  <time>2026-08-28T19:12:17Z</time>
  <course>350.19</course>
  <speed>0.01</speed>
  <fix>3d</fix>
</trkpt>
<trkpt lat="40.0728137" lon="-105.2306151">
  <ele>1596.57</ele>
  <time>2026-08-28T19:12:17Z</time>
  <course>169.81</course>
  <speed>0.0</speed>
  <fix>3d</fix>
</trkpt>
<trkpt lat="40.0728136" lon="-105.230615">
  <ele>1596.66</ele>
  <time>2026-08-28T19:12:17Z</time>
  <course>350.19</course>
  <speed>0.01</speed>
  <fix>3d</fix>
</trkpt>
<trkpt lat="40.0728137" lon="-105.2306151">
  <ele>1596.57</ele>
  <time>2026-08-28T19:12:17Z</time>
  <course>169.04</course>
  <speed>0.0</speed>
  <fix>3d</fix>
</trkpt>
<trkpt lat="40.0728136" lon="-105.230615">
  <ele>1596.66</ele>
  <time>2026-08-28T19:12:17Z</time>
  <course>350.21</course>
  <speed>0.01</speed>
  <fix>3d</fix>
</trkpt>
<trkpt lat="40.0728137" lon="-105.2306151">
  <ele>1596.56</ele>
  <time>2026-08-28T19:12:17Z</time>
  <course>169.44</course>
  <speed>0.01</speed>
  <fix>3d</fix>
</trkpt>
<trkpt lat="40.0728136" lon="-105.230615">
  <ele>1596.66</ele>
  <time>2026-08-28T19:12:17Z</time>
  <course>350.22</course>
  <speed>0.01</speed>
  <fix>3d</fix>
</trkpt>
<trkpt lat="40.0728137" lon="-105.2306151">
  <ele>1596.56</ele>
  <time>2026-08-28T19:12:17Z</time>
  <course>168.58</course>
  <speed>0.01</speed>
  <fix>3d</fix>
</trkpt>
<trkpt lat="40.0728136" lon="-105.230615">
  <ele>1596.66</ele>
  <time>2026-08-28T19:12:17Z</time>
  <course>350.22</course>
  <speed>0.01</speed>
  <fix>3d</fix>
</trkpt>
<trkpt lat="40.0728137" lon="-105.2306151">
  <ele>1596.56</ele>
  <time>2026-08-28T19:12:17Z</time>
  <course>166.0</course>
  <speed>0.01</speed>
  <fix>3d</fix>
</trkpt>
<trkpt lat="40.0728136" lon="-105.230615">
  <ele>1596.66</ele>
  <time>2026-08-28T19:12:18Z</time>
  <course>350.22</course>
  <speed>0.0</speed>
  <fix>3d</fix>
</trkpt>
<trkpt lat="40.0728137" lon="-105.2306151">
  <ele>1596.56</ele>
  <time>2026-08-28T19:12:18Z</time>
  <course>164.05</course>
  <speed>0.01</speed>
  <fix>3d</fix>
</trkpt>
<trkpt lat="40.0728136" lon="-105.230615">
  <ele>1596.65</ele>
  <time>2026-08-28T19:12:18Z</time>
  <course>350.21</course>
  <speed>0.0</speed>
  <fix>3d</fix>
</trkpt>
<trkpt lat="40.0728136" lon="-105.2306151">
  <ele>1596.56</ele>
  <time>2026-08-28T19:12:18Z</time>
  <course>163.02</course>
  <speed>0.01</speed>
  <fix>3d</fix>
</trkpt>
<trkpt lat="40.0728136" lon="-105.230615">
  <ele>1596.65</ele>
  <time>2026-08-28T19:12:18Z</time>
  <course>350.2</course>
  <speed>0.0</speed>
  <fix>3d</fix>
</trkpt>
<trkpt lat="40.0728135" lon="-105.2306151">
  <ele>1596.56</ele>
  <time>2026-08-28T19:12:18Z</time>
  <course>161.74</course>
  <speed>0.01</speed>
  <fix>3d</fix>
</trkpt>
<trkpt lat="40.0728136" lon="-105.230615">
  <ele>1596.65</ele>
  <time>2026-08-28T19:12:18Z</time>
  <course>350.19</course>
  <speed>0.0</speed>
  <fix>3d</fix>
</trkpt>
<trkpt lat="40.0728135" lon="-105.2306151">
  <ele>1596.56</ele>
  <time>2026-08-28T19:12:18Z</time>
  <course>160.26</course>
  <speed>0.01</speed>
  <fix>3d</fix>
</trkpt>
<trkpt lat="40.0728136" lon="-105.230615">
  <ele>1596.65</ele>
  <time>2026-08-28T19:12:18Z</time>
  <course>350.19</course>
  <speed>0.0</speed>
  <fix>3d</fix>
</trkpt>
<trkpt lat="40.0728135" lon="-105.2306151">
  <ele>1596.56</ele>
  <time>2026-08-28T19:12:18Z</time>
  <course>158.52</course>
  <speed>0.01</speed>
  <fix>3d</fix>
</trkpt>
<trkpt lat="40.0728135" lon="-105.230615">
  <ele>1596.65</ele>
  <time>2026-08-28T19:12:18Z</time>
  <course>350.19</course>
  <speed>0.0</speed>
  <fix>3d</fix>
</trkpt>
<trkpt lat="40.0728135" lon="-105.230615">
  <ele>1596.55</ele>
  <time>2026-08-28T19:12:18Z</time>
  <course>156.71</course>
  <speed>0.01</speed>
  <fix>3d</fix>
</trkpt>
<trkpt lat="40.0728135" lon="-105.230615">
  <ele>1596.65</ele>
  <time>2026-08-28T19:12:18Z</time>
  <course>350.18</course>
  <speed>0.0</speed>
  <fix>3d</fix>
</trkpt>
<trkpt lat="40.0728135" lon="-105.230615">
  <ele>1596.55</ele>
  <time>2026-08-28T19:12:18Z</time>
  <course>153.86</course>
  <speed>0.01</speed>
  <fix>3d</fix>
</trkpt>
<trkpt lat="40.0728135" lon="-105.230615">
  <ele>1596.65</ele>
  <time>2026-08-28T19:12:18Z</time>
  <course>350.18</course>
  <speed>0.0</speed>
  <fix>3d</fix>
</trkpt>
<trkpt lat="40.0728134" lon="-105.230615">
  <ele>1596.55</ele>
  <time>2026-08-28T19:12:18Z</time>
  <course>150.22</course>
  <speed>0.01</speed>
  <fix>3d</fix>
</trkpt>
<trkpt lat="40.0728135" lon="-105.230615">
  <ele>1596.66</ele>
  <time>2026-08-28T19:12:18Z</time>
  <course>350.18</course>
  <speed>0.0</speed>
  <fix>3d</fix>
</trkpt>
<trkpt lat="40.0728134" lon="-105.230615">
  <ele>1596.55</ele>
  <time>2026-08-28T19:12:18Z</time>
  <course>145.57</course>
  <speed>0.0</speed>
  <fix>3d</fix>
</trkpt>
<trkpt lat="40.0728135" lon="-105.230615">
  <ele>1596.66</ele>
  <time>2026-08-28T19:12:18Z</time>
  <course>350.18</course>
  <speed>0.0</speed>
  <fix>3d</fix>
</trkpt>
<trkpt lat="40.0728134" lon="-105.230615">
  <ele>1596.55</ele>
  <time>2026-08-28T19:12:18Z</time>
  <course>137.9</course>
  <speed>0.0</speed>
  <fix>3d</fix>
</trkpt>
<trkpt lat="40.0728135" lon="-105.230615">
  <ele>1596.66</ele>
  <time>2026-08-28T19:12:18Z</time>
  <course>350.18</course>
  <speed>0.0</speed>
  <fix>3d</fix>
</trkpt>
<trkpt lat="40.0728134" lon="-105.230615">
  <ele>1596.55</ele>
  <time>2026-08-28T19:12:18Z</time>
  <course>124.21</course>
  <speed>0.0</speed>
  <fix>3d</fix>
</trkpt>
<trkpt lat="40.0728135" lon="-105.230615">
  <ele>1596.65</ele>
  <time>2026-08-28T19:12:18Z</time>
  <course>350.19</course>
  <speed>0.0</speed>
  <fix>3d</fix>
</trkpt>
<trkpt lat="40.0728134" lon="-105.230615">
  <ele>1596.55</ele>
  <time>2026-08-28T19:12:18Z</time>
  <course>97.31</course>
  <speed>0.0</speed>
  <fix>3d</fix>
</trkpt>
<trkpt lat="40.0728135" lon="-105.230615">
  <ele>1596.65</ele>
  <time>2026-08-28T19:12:18Z</time>
  <course>350.19</course>
  <speed>0.0</speed>
  <fix>3d</fix>
</trkpt>
<trkpt lat="40.0728134" lon="-105.230615">
  <ele>1596.55</ele>
  <time>2026-08-28T19:12:18Z</time>
  <course>58.38</course>
  <speed>0.0</speed>
  <fix>3d</fix>
</trkpt>
<trkpt lat="40.0728135" lon="-105.230615">
  <ele>1596.64</ele>
  <time>2026-08-28T19:12:18Z</time>
  <course>350.18</course>
  <speed>0.0</speed>
  <fix>3d</fix>
</trkpt>
<trkpt lat="40.0728134" lon="-105.230615">
  <ele>1596.55</ele>
  <time>2026-08-28T19:12:18Z</time>
  <course>27.8</course>
  <speed>0.0</speed>
  <fix>3d</fix>
</trkpt>
<trkpt lat="40.0728135" lon="-105.230615">
  <ele>1596.64</ele>
  <time>2026-08-28T19:12:18Z</time>
  <course>350.17</course>
  <speed>0.0</speed>
  <fix>3d</fix>
</trkpt>
<trkpt lat="40.0728134" lon="-105.230615">
  <ele>1596.55</ele>
  <time>2026-08-28T19:12:18Z</time>
  <course>13.38</course>
  <speed>0.0</speed>
  <fix>3d</fix>
</trkpt>
<trkpt lat="40.0728135" lon="-105.230615">
  <ele>1596.64</ele>
  <time>2026-08-28T19:12:18Z</time>
  <course>350.15</course>
  <speed>0.0</speed>
  <fix>3d</fix>
</trkpt>
<trkpt lat="40.0728134" lon="-105.230615">
  <ele>1596.55</ele>
  <time>2026-08-28T19:12:18Z</time>
  <course>8.48</course>
  <speed>0.0</speed>
  <fix>3d</fix>
</trkpt>
<trkpt lat="40.0728135" lon="-105.230615">
  <ele>1596.65</ele>
  <time>2026-08-28T19:12:18Z</time>
  <course>350.13</course>
  <speed>0.0</speed>
  <fix>3d</fix>
</trkpt>
<trkpt lat="40.0728134" lon="-105.230615">
  <ele>1596.55</ele>
  <time>2026-08-28T19:12:18Z</time>
  <course>8.25</course>
  <speed>0.0</speed>
  <fix>3d</fix>
</trkpt>
<trkpt lat="40.0728135" lon="-105.230615">
  <ele>1596.65</ele>
  <time>2026-08-28T19:12:18Z</time>
  <course>350.12</course>
  <speed>0.0</speed>
  <fix>3d</fix>
</trkpt>
<trkpt lat="40.0728134" lon="-105.230615">
  <ele>1596.55</ele>
  <time>2026-08-28T19:12:18Z</time>
  <course>9.57</course>
  <speed>0.0</speed>
  <fix>3d</fix>
</trkpt>
<trkpt lat="40.0728135" lon="-105.230615">
  <ele>1596.65</ele>
  <time>2026-08-28T19:12:18Z</time>
  <course>350.12</course>
  <speed>0.0</speed>
  <fix>3d</fix>
</trkpt>
<trkpt lat="40.0728134" lon="-105.230615">
  <ele>1596.55</ele>
  <time>2026-08-28T19:12:18Z</time>
  <course>11.19</course>
  <speed>0.0</speed>
  <fix>3d</fix>
</trkpt>
<trkpt lat="40.0728135" lon="-105.230615">
  <ele>1596.65</ele>
  <time>2026-08-28T19:12:18Z</time>
  <course>350.11</course>
  <speed>0.0</speed>
  <fix>3d</fix>
</trkpt>
<trkpt lat="40.0728134" lon="-105.2306149">
  <ele>1596.55</ele>
  <time>2026-08-28T19:12:18Z</time>
  <course>13.02</course>
  <speed>0.0</speed>
  <fix>3d</fix>
</trkpt>
<trkpt lat="40.0728135" lon="-105.230615">
  <ele>1596.66</ele>
  <time>2026-08-28T19:12:18Z</time>
  <course>350.1</course>
  <speed>0.0</speed>
  <fix>3d</fix>
</trkpt>
<trkpt lat="40.0728134" lon="-105.2306148">
  <ele>1596.55</ele>
  <time>2026-08-28T19:12:18Z</time>
  <course>14.83</course>
  <speed>0.0</speed>
  <fix>3d</fix>
</trkpt>
<trkpt lat="40.0728135" lon="-105.230615">
  <ele>1596.66</ele>
  <time>2026-08-28T19:12:18Z</time>
  <course>350.1</course>
  <speed>0.0</speed>
  <fix>3d</fix>
</trkpt>
<trkpt lat="40.0728134" lon="-105.2306148">
  <ele>1596.55</ele>
  <time>2026-08-28T19:12:18Z</time>
  <course>16.6</course>
  <speed>0.0</speed>
  <fix>3d</fix>
</trkpt>
<trkpt lat="40.0728135" lon="-105.230615">
  <ele>1596.66</ele>
  <time>2026-08-28T19:12:18Z</time>
  <course>350.13</course>
  <speed>0.0</speed>
  <fix>3d</fix>
</trkpt>
<trkpt lat="40.0728134" lon="-105.2306148">
  <ele>1596.55</ele>
  <time>2026-08-28T19:12:18Z</time>
  <course>17.05</course>
  <speed>0.0</speed>
  <fix>3d</fix>
</trkpt>
<trkpt lat="40.0728135" lon="-105.230615">
  <ele>1596.66</ele>
  <time>2026-08-28T19:12:18Z</time>
  <course>350.15</course>
  <speed>0.0</speed>
  <fix>3d</fix>
</trkpt>
<trkpt lat="40.0728134" lon="-105.2306148">
  <ele>1596.55</ele>
  <time>2026-08-28T19:12:18Z</time>
  <course>16.0</course>
  <speed>0.0</speed>
  <fix>3d</fix>
</trkpt>
<trkpt lat="40.0728135" lon="-105.2306149">
  <ele>1596.66</ele>
  <time>2026-08-28T19:12:18Z</time>
  <course>350.17</course>
  <speed>0.0</speed>
  <fix>3d</fix>
</trkpt>
<trkpt lat="40.0728134" lon="-105.2306148">
  <ele>1596.55</ele>
  <time>2026-08-28T19:12:18Z</time>
  <course>13.67</course>
  <speed>0.0</speed>
  <fix>3d</fix>
</trkpt>
<trkpt lat="40.0728135" lon="-105.2306149">
  <ele>1596.66</ele>
  <time>2026-08-28T19:12:18Z</time>
  <course>350.18</course>
  <speed>0.0</speed>
  <fix>3d</fix>
</trkpt>
<trkpt lat="40.0728135" lon="-105.2306148">
  <ele>1596.55</ele>
  <time>2026-08-28T19:12:18Z</time>
  <course>9.3</course>
  <speed>0.0</speed>
  <fix>3d</fix>
</trkpt>
<trkpt lat="40.0728135" lon="-105.2306149">
  <ele>1596.66</ele>
  <time>2026-08-28T19:12:18Z</time>
  <course>350.19</course>
  <speed>0.0</speed>
  <fix>3d</fix>
</trkpt>
<trkpt lat="40.0728135" lon="-105.2306148">
  <ele>1596.54</ele>
  <time>2026-08-28T19:12:18Z</time>
  <course>3.85</course>
  <speed>0.0</speed>
  <fix>3d</fix>
</trkpt>
<trkpt lat="40.0728135" lon="-105.2306149">
  <ele>1596.65</ele>
  <time>2026-08-28T19:12:18Z</time>
  <course>350.19</course>
  <speed>0.0</speed>
  <fix>3d</fix>
</trkpt>
<trkpt lat="40.0728135" lon="-105.2306148">
  <ele>1596.54</ele>
  <time>2026-08-28T19:12:18Z</time>
  <course>357.41</course>
  <speed>0.0</speed>
  <fix>3d</fix>
</trkpt>
<trkpt lat="40.0728135" lon="-105.2306149">
  <ele>1596.65</ele>
  <time>2026-08-28T19:12:18Z</time>
  <course>350.18</course>
  <speed>0.0</speed>
  <fix>3d</fix>
</trkpt>
<trkpt lat="40.0728135" lon="-105.2306148">
  <ele>1596.54</ele>
  <time>2026-08-28T19:12:18Z</time>
  <course>347.34</course>
  <speed>0.0</speed>
  <fix>3d</fix>
</trkpt>
<trkpt lat="40.0728135" lon="-105.2306149">
  <ele>1596.65</ele>
  <time>2026-08-28T19:12:18Z</time>
  <course>350.16</course>
  <speed>0.0</speed>
  <fix>3d</fix>
</trkpt>
<trkpt lat="40.0728135" lon="-105.2306148">
  <ele>1596.54</ele>
  <time>2026-08-28T19:12:18Z</time>
  <course>331.6</course>
  <speed>0.0</speed>
  <fix>3d</fix>
</trkpt>
<trkpt lat="40.0728135" lon="-105.2306149">
  <ele>1596.64</ele>
  <time>2026-08-28T19:12:18Z</time>
  <course>350.15</course>
  <speed>0.0</speed>
  <fix>3d</fix>
</trkpt>
<trkpt lat="40.0728135" lon="-105.2306148">
  <ele>1596.53</ele>
  <time>2026-08-28T19:12:18Z</time>
  <course>313.35</course>
  <speed>0.0</speed>
  <fix>3d</fix>
</trkpt>
<trkpt lat="40.0728135" lon="-105.2306149">
  <ele>1596.64</ele>
  <time>2026-08-28T19:12:18Z</time>
  <course>350.13</course>
  <speed>0.0</speed>
  <fix>3d</fix>
</trkpt>
<trkpt lat="40.0728135" lon="-105.2306148">
  <ele>1596.53</ele>
  <time>2026-08-28T19:12:18Z</time>
  <course>293.13</course>
  <speed>0.0</speed>
  <fix>3d</fix>
</trkpt>
<trkpt lat="40.0728135" lon="-105.2306149">
  <ele>1596.64</ele>
  <time>2026-08-28T19:12:18Z</time>
  <course>350.11</course>
  <speed>0.0</speed>
  <fix>3d</fix>
</trkpt>
<trkpt lat="40.0728135" lon="-105.2306148">
  <ele>1596.53</ele>
  <time>2026-08-28T19:12:18Z</time>
  <course>277.56</course>
  <speed>0.0</speed>
  <fix>3d</fix>
</trkpt>
<trkpt lat="40.0728135" lon="-105.2306149">
  <ele>1596.64</ele>
  <time>2026-08-28T19:12:18Z</time>
  <course>350.09</course>
  <speed>0.0</speed>
  <fix>3d</fix>
</trkpt>
<trkpt lat="40.0728135" lon="-105.2306148">
  <ele>1596.53</ele>
  <time>2026-08-28T19:12:18Z</time>
  <course>267.78</course>
  <speed>0.0</speed>
  <fix>3d</fix>
</trkpt>
<trkpt lat="40.0728135" lon="-105.2306149">
  <ele>1596.64</ele>
  <time>2026-08-28T19:12:18Z</time>
  <course>350.09</course>
  <speed>0.0</speed>
  <fix>3d</fix>
</trkpt>
<trkpt lat="40.0728135" lon="-105.2306148">
  <ele>1596.54</ele>
  <time>2026-08-28T19:12:18Z</time>
  <course>254.52</course>
  <speed>0.0</speed>
  <fix>3d</fix>
</trkpt>
<trkpt lat="40.0728135" lon="-105.2306149">
  <ele>1596.64</ele>
  <time>2026-08-28T19:12:18Z</time>
  <course>350.09</course>
  <speed>0.0</speed>
  <fix>3d</fix>
</trkpt>
<trkpt lat="40.0728135" lon="-105.2306148">
  <ele>1596.54</ele>
  <time>2026-08-28T19:12:18Z</time>
  <course>242.78</course>
  <speed>0.0</speed>
  <fix>3d</fix>
</trkpt>
<trkpt lat="40.0728135" lon="-105.2306149">
  <ele>1596.64</ele>
  <time>2026-08-28T19:12:18Z</time>
  <course>350.09</course>
  <speed>0.0</speed>
  <fix>3d</fix>
</trkpt>
<trkpt lat="40.0728135" lon="-105.2306148">
  <ele>1596.54</ele>
  <time>2026-08-28T19:12:18Z</time>
  <course>236.69</course>
  <speed>0.0</speed>
  <fix>3d</fix>
</trkpt>
<trkpt lat="40.0728135" lon="-105.2306149">
  <ele>1596.64</ele>
  <time>2026-08-28T19:12:18Z</time>
  <course>350.09</course>
  <speed>0.0</speed>
  <fix>3d</fix>
</trkpt>
<trkpt lat="40.0728135" lon="-105.2306148">
  <ele>1596.54</ele>
  <time>2026-08-28T19:12:18Z</time>
  <course>234.04</course>
  <speed>0.0</speed>
  <fix>3d</fix>
</trkpt>
<trkpt lat="40.0728135" lon="-105.2306149">
  <ele>1596.64</ele>
  <time>2026-08-28T19:12:18Z</time>
  <course>350.09</course>
  <speed>0.0</speed>
  <fix>3d</fix>
</trkpt>
<trkpt lat="40.0728135" lon="-105.2306148">
  <ele>1596.54</ele>
  <time>2026-08-28T19:12:18Z</time>
  <course>231.66</course>
  <speed>0.0</speed>
  <fix>3d</fix>
</trkpt>
<trkpt lat="40.0728135" lon="-105.2306149">
  <ele>1596.65</ele>
  <time>2026-08-28T19:12:18Z</time>
  <course>350.08</course>
  <speed>0.0</speed>
  <fix>3d</fix>
</trkpt>
<trkpt lat="40.0728135" lon="-105.2306148">
  <ele>1596.55</ele>
  <time>2026-08-28T19:12:18Z</time>
  <course>227.28</course>
  <speed>0.0</speed>
  <fix>3d</fix>
</trkpt>
<trkpt lat="40.0728135" lon="-105.2306149">
  <ele>1596.65</ele>
  <time>2026-08-28T19:12:18Z</time>
  <course>350.09</course>
  <speed>0.0</speed>
  <fix>3d</fix>
</trkpt>
<trkpt lat="40.0728135" lon="-105.2306148">
  <ele>1596.55</ele>
  <time>2026-08-28T19:12:18Z</time>
  <course>221.39</course>
  <speed>0.0</speed>
  <fix>3d</fix>
</trkpt>
<trkpt lat="40.0728135" lon="-105.2306149">
  <ele>1596.65</ele>
  <time>2026-08-28T19:12:18Z</time>
  <course>350.09</course>
  <speed>0.0</speed>
  <fix>3d</fix>
</trkpt>
<trkpt lat="40.0728135" lon="-105.2306148">
  <ele>1596.55</ele>
  <time>2026-08-28T19:12:18Z</time>
  <course>218.51</course>
  <speed>0.0</speed>
  <fix>3d</fix>
</trkpt>
<trkpt lat="40.0728135" lon="-105.2306149">
  <ele>1596.65</ele>
  <time>2026-08-28T19:12:18Z</time>
  <course>350.09</course>
  <speed>0.0</speed>
  <fix>3d</fix>
</trkpt>
<trkpt lat="40.0728135" lon="-105.2306148">
  <ele>1596.55</ele>
  <time>2026-08-28T19:12:18Z</time>
  <course>217.58</course>
  <speed>0.0</speed>
  <fix>3d</fix>
</trkpt>
<trkpt lat="40.0728135" lon="-105.2306149">
  <ele>1596.65</ele>
  <time>2026-08-28T19:12:18Z</time>
  <course>350.1</course>
  <speed>0.0</speed>
  <fix>3d</fix>
</trkpt>
<trkpt lat="40.0728135" lon="-105.2306148">
  <ele>1596.55</ele>
  <time>2026-08-28T19:12:18Z</time>
  <course>216.82</course>
  <speed>0.0</speed>
  <fix>3d</fix>
</trkpt>
<trkpt lat="40.0728135" lon="-105.2306149">
  <ele>1596.65</ele>
  <time>2026-08-28T19:12:18Z</time>
  <course>350.11</course>
  <speed>0.0</speed>
  <fix>3d</fix>
</trkpt>
<trkpt lat="40.0728135" lon="-105.2306148">
  <ele>1596.55</ele>
  <time>2026-08-28T19:12:18Z</time>
  <course>215.18</course>
  <speed>0.0</speed>
  <fix>3d</fix>
</trkpt>
<trkpt lat="40.0728135" lon="-105.2306149">
  <ele>1596.65</ele>
  <time>2026-08-28T19:12:18Z</time>
  <course>350.11</course>
  <speed>0.0</speed>
  <fix>3d</fix>
</trkpt>
<trkpt lat="40.0728135" lon="-105.2306148">
  <ele>1596.56</ele>
  <time>2026-08-28T19:12:18Z</time>
  <course>211.46</course>
  <speed>0.0</speed>
  <fix>3d</fix>
</trkpt>
<trkpt lat="40.0728135" lon="-105.2306149">
  <ele>1596.65</ele>
  <time>2026-08-28T19:12:18Z</time>
  <course>350.11</course>
  <speed>0.0</speed>
  <fix>3d</fix>
</trkpt>
<trkpt lat="40.0728135" lon="-105.2306148">
  <ele>1596.56</ele>
  <time>2026-08-28T19:12:18Z</time>
  <course>207.22</course>
  <speed>0.0</speed>
  <fix>3d</fix>
</trkpt>
<trkpt lat="40.0728135" lon="-105.2306149">
  <ele>1596.65</ele>
  <time>2026-08-28T19:12:18Z</time>
  <course>350.11</course>
  <speed>0.0</speed>
  <fix>3d</fix>
</trkpt>
<trkpt lat="40.0728135" lon="-105.2306148">
  <ele>1596.56</ele>
  <time>2026-08-28T19:12:18Z</time>
  <course>202.24</course>
  <speed>0.0</speed>
  <fix>3d</fix>
</trkpt>
<trkpt lat="40.0728135" lon="-105.2306149">
  <ele>1596.66</ele>
  <time>2026-08-28T19:12:18Z</time>
  <course>350.12</course>
  <speed>0.0</speed>
  <fix>3d</fix>
</trkpt>
<trkpt lat="40.0728135" lon="-105.2306148">
  <ele>1596.55</ele>
  <time>2026-08-28T19:12:18Z</time>
  <course>197.71</course>
  <speed>0.0</speed>
  <fix>3d</fix>
</trkpt>
<trkpt lat="40.0728135" lon="-105.2306149">
  <ele>1596.66</ele>
  <time>2026-08-28T19:12:18Z</time>
  <course>350.12</course>
  <speed>0.0</speed>
  <fix>3d</fix>
</trkpt>
<trkpt lat="40.0728135" lon="-105.2306148">
  <ele>1596.55</ele>
  <time>2026-08-28T19:12:18Z</time>
  <course>192.39</course>
  <speed>0.0</speed>
  <fix>3d</fix>
</trkpt>
<trkpt lat="40.0728135" lon="-105.2306149">
  <ele>1596.66</ele>
  <time>2026-08-28T19:12:18Z</time>
  <course>350.12</course>
  <speed>0.0</speed>
  <fix>3d</fix>
</trkpt>
<trkpt lat="40.0728135" lon="-105.2306148">
  <ele>1596.55</ele>
  <time>2026-08-28T19:12:18Z</time>
  <course>187.2</course>
  <speed>0.0</speed>
  <fix>3d</fix>
</trkpt>
<trkpt lat="40.0728135" lon="-105.2306149">
  <ele>1596.66</ele>
  <time>2026-08-28T19:12:18Z</time>
  <course>350.13</course>
  <speed>0.0</speed>
  <fix>3d</fix>
</trkpt>
<trkpt lat="40.0728135" lon="-105.2306148">
  <ele>1596.55</ele>
  <time>2026-08-28T19:12:18Z</time>
  <course>184.1</course>
  <speed>0.0</speed>
  <fix>3d</fix>
</trkpt>
<trkpt lat="40.0728135" lon="-105.2306149">
  <ele>1596.66</ele>
  <time>2026-08-28T19:12:18Z</time>
  <course>350.13</course>
  <speed>0.0</speed>
  <fix>3d</fix>
</trkpt>
<trkpt lat="40.0728135" lon="-105.2306149">
  <ele>1596.55</ele>
  <time>2026-08-28T19:12:18Z</time>
  <course>182.18</course>
  <speed>0.0</speed>
  <fix>3d</fix>
</trkpt>
<trkpt lat="40.0728135" lon="-105.2306149">
  <ele>1596.65</ele>
  <time>2026-08-28T19:12:18Z</time>
  <course>350.13</course>
  <speed>0.0</speed>
  <fix>3d</fix>
</trkpt>
<trkpt lat="40.0728135" lon="-105.230615">
  <ele>1596.55</ele>
  <time>2026-08-28T19:12:18Z</time>
  <course>180.74</course>
  <speed>0.0</speed>
  <fix>3d</fix>
</trkpt>
<trkpt lat="40.0728135" lon="-105.2306149">
  <ele>1596.65</ele>
  <time>2026-08-28T19:12:18Z</time>
  <course>350.13</course>
  <speed>0.0</speed>
  <fix>3d</fix>
</trkpt>
<trkpt lat="40.0728135" lon="-105.230615">
  <ele>1596.55</ele>
  <time>2026-08-28T19:12:18Z</time>
  <course>175.58</course>
  <speed>0.0</speed>
  <fix>3d</fix>
</trkpt>
<trkpt lat="40.0728135" lon="-105.2306149">
  <ele>1596.65</ele>
  <time>2026-08-28T19:12:18Z</time>
  <course>350.12</course>
  <speed>0.0</speed>
  <fix>3d</fix>
</trkpt>
<trkpt lat="40.0728135" lon="-105.230615">
  <ele>1596.55</ele>
  <time>2026-08-28T19:12:18Z</time>
  <course>169.65</course>
  <speed>0.0</speed>
  <fix>3d</fix>
</trkpt>
<trkpt lat="40.0728135" lon="-105.2306149">
  <ele>1596.65</ele>
  <time>2026-08-28T19:12:18Z</time>
  <course>350.12</course>
  <speed>0.0</speed>
  <fix>3d</fix>
</trkpt>
<trkpt lat="40.0728135" lon="-105.230615">
  <ele>1596.55</ele>
  <time>2026-08-28T19:12:18Z</time>
  <course>165.01</course>
  <speed>0.0</speed>
  <fix>3d</fix>
</trkpt>
<trkpt lat="40.0728135" lon="-105.2306149">
  <ele>1596.66</ele>
  <time>2026-08-28T19:12:18Z</time>
  <course>350.12</course>
  <speed>0.0</speed>
  <fix>3d</fix>
</trkpt>
<trkpt lat="40.0728135" lon="-105.230615">
  <ele>1596.54</ele>
  <time>2026-08-28T19:12:18Z</time>
  <course>156.2</course>
  <speed>0.0</speed>
  <fix>3d</fix>
</trkpt>
<trkpt lat="40.0728135" lon="-105.2306149">
  <ele>1596.65</ele>
  <time>2026-08-28T19:12:18Z</time>
  <course>350.12</course>
  <speed>0.0</speed>
  <fix>3d</fix>
</trkpt>
<trkpt lat="40.0728134" lon="-105.230615">
  <ele>1596.54</ele>
  <time>2026-08-28T19:12:18Z</time>
  <course>143.83</course>
  <speed>0.0</speed>
  <fix>3d</fix>
</trkpt>
<trkpt lat="40.0728135" lon="-105.2306149">
  <ele>1596.65</ele>
  <time>2026-08-28T19:12:18Z</time>
  <course>350.1</course>
  <speed>0.0</speed>
  <fix>3d</fix>
</trkpt>
<trkpt lat="40.0728134" lon="-105.230615">
  <ele>1596.54</ele>
  <time>2026-08-28T19:12:18Z</time>
  <course>134.93</course>
  <speed>0.0</speed>
  <fix>3d</fix>
</trkpt>
<trkpt lat="40.0728135" lon="-105.2306149">
  <ele>1596.65</ele>
  <time>2026-08-28T19:12:18Z</time>
  <course>350.08</course>
  <speed>0.0</speed>
  <fix>3d</fix>
</trkpt>
<trkpt lat="40.0728134" lon="-105.230615">
  <ele>1596.54</ele>
  <time>2026-08-28T19:12:18Z</time>
  <course>129.74</course>
  <speed>0.0</speed>
  <fix>3d</fix>
</trkpt>
<trkpt lat="40.0728135" lon="-105.2306149">
  <ele>1596.64</ele>
  <time>2026-08-28T19:12:18Z</time>
  <course>350.07</course>
  <speed>0.0</speed>
  <fix>3d</fix>
</trkpt>
<trkpt lat="40.0728134" lon="-105.230615">
  <ele>1596.54</ele>
  <time>2026-08-28T19:12:18Z</time>
  <course>126.59</course>
  <speed>0.01</speed>
  <fix>3d</fix>
</trkpt>
<trkpt lat="40.0728135" lon="-105.2306149">
  <ele>1596.64</ele>
  <time>2026-08-28T19:12:18Z</time>
  <course>350.06</course>
  <speed>0.0</speed>
  <fix>3d</fix>
</trkpt>
<trkpt lat="40.0728134" lon="-105.230615">
  <ele>1596.54</ele>
  <time>2026-08-28T19:12:18Z</time>
  <course>123.35</course>
  <speed>0.01</speed>
  <fix>3d</fix>
</trkpt>
<trkpt lat="40.0728135" lon="-105.2306149">
  <ele>1596.64</ele>
  <time>2026-08-28T19:12:18Z</time>
  <course>350.05</course>
  <speed>0.0</speed>
  <fix>3d</fix>
</trkpt>
<trkpt lat="40.0728134" lon="-105.2306149">
  <ele>1596.54</ele>
  <time>2026-08-28T19:12:18Z</time>
  <course>118.08</course>
  <speed>0.01</speed>
  <fix>3d</fix>
</trkpt>
<trkpt lat="40.0728135" lon="-105.2306149">
  <ele>1596.64</ele>
  <time>2026-08-28T19:12:18Z</time>
  <course>350.04</course>
  <speed>0.0</speed>
  <fix>3d</fix>
</trkpt>
<trkpt lat="40.0728134" lon="-105.2306148">
  <ele>1596.54</ele>
  <time>2026-08-28T19:12:18Z</time>
  <course>111.21</course>
  <speed>0.01</speed>
  <fix>3d</fix>
</trkpt>
<trkpt lat="40.0728135" lon="-105.2306149">
  <ele>1596.64</ele>
  <time>2026-08-28T19:12:18Z</time>
  <course>350.03</course>
  <speed>0.0</speed>
  <fix>3d</fix>
</trkpt>
<trkpt lat="40.0728134" lon="-105.2306148">
  <ele>1596.55</ele>
  <time>2026-08-28T19:12:18Z</time>
  <course>104.92</course>
  <speed>0.01</speed>
  <fix>3d</fix>
</trkpt>
<trkpt lat="40.0728135" lon="-105.2306149">
  <ele>1596.65</ele>
  <time>2026-08-28T19:12:18Z</time>
  <course>350.03</course>
  <speed>0.0</speed>
  <fix>3d</fix>
</trkpt>
<trkpt lat="40.0728134" lon="-105.2306148">
  <ele>1596.55</ele>
  <time>2026-08-28T19:12:18Z</time>
  <course>100.08</course>
  <speed>0.01</speed>
  <fix>3d</fix>
</trkpt>
<trkpt lat="40.0728135" lon="-105.2306149">
  <ele>1596.65</ele>
  <time>2026-08-28T19:12:18Z</time>
  <course>350.03</course>
  <speed>0.0</speed>
  <fix>3d</fix>
</trkpt>
<trkpt lat="40.0728134" lon="-105.2306148">
  <ele>1596.55</ele>
  <time>2026-08-28T19:12:18Z</time>
  <course>96.25</course>
  <speed>0.01</speed>
  <fix>3d</fix>
</trkpt>
<trkpt lat="40.0728135" lon="-105.2306149">
  <ele>1596.65</ele>
  <time>2026-08-28T19:12:18Z</time>
  <course>350.03</course>
  <speed>0.0</speed>
  <fix>3d</fix>
</trkpt>
<trkpt lat="40.0728134" lon="-105.2306148">
  <ele>1596.55</ele>
  <time>2026-08-28T19:12:18Z</time>
  <course>92.54</course>
  <speed>0.0</speed>
  <fix>3d</fix>
</trkpt>
<trkpt lat="40.0728135" lon="-105.2306149">
  <ele>1596.65</ele>
  <time>2026-08-28T19:12:18Z</time>
  <course>350.03</course>
  <speed>0.0</speed>
  <fix>3d</fix>
</trkpt>
<trkpt lat="40.0728134" lon="-105.2306148">
  <ele>1596.55</ele>
  <time>2026-08-28T19:12:18Z</time>
  <course>87.4</course>
  <speed>0.0</speed>
  <fix>3d</fix>
</trkpt>
<trkpt lat="40.0728135" lon="-105.2306148">
  <ele>1596.65</ele>
  <time>2026-08-28T19:12:18Z</time>
  <course>350.03</course>
  <speed>0.01</speed>
  <fix>3d</fix>
</trkpt>
<trkpt lat="40.0728134" lon="-105.2306148">
  <ele>1596.55</ele>
  <time>2026-08-28T19:12:18Z</time>
  <course>79.98</course>
  <speed>0.0</speed>
  <fix>3d</fix>
</trkpt>
<trkpt lat="40.0728135" lon="-105.2306148">
  <ele>1596.65</ele>
  <time>2026-08-28T19:12:18Z</time>
  <course>350.03</course>
  <speed>0.01</speed>
  <fix>3d</fix>
</trkpt>
<trkpt lat="40.0728134" lon="-105.2306148">
  <ele>1596.55</ele>
  <time>2026-08-28T19:12:18Z</time>
  <course>69.8</course>
  <speed>0.0</speed>
  <fix>3d</fix>
</trkpt>
<trkpt lat="40.0728135" lon="-105.2306148">
  <ele>1596.65</ele>
  <time>2026-08-28T19:12:18Z</time>
  <course>350.03</course>
  <speed>0.01</speed>
  <fix>3d</fix>
</trkpt>
<trkpt lat="40.0728134" lon="-105.2306148">
  <ele>1596.55</ele>
  <time>2026-08-28T19:12:18Z</time>
  <course>59.01</course>
  <speed>0.0</speed>
  <fix>3d</fix>
</trkpt>
<trkpt lat="40.0728135" lon="-105.2306148">
  <ele>1596.65</ele>
  <time>2026-08-28T19:12:18Z</time>
  <course>350.04</course>
  <speed>0.01</speed>
  <fix>3d</fix>
</trkpt>
<trkpt lat="40.0728134" lon="-105.2306147">
  <ele>1596.55</ele>
  <time>2026-08-28T19:12:18Z</time>
  <course>53.18</course>
  <speed>0.0</speed>
  <fix>3d</fix>
</trkpt>
<trkpt lat="40.0728135" lon="-105.2306148">
  <ele>1596.65</ele>
  <time>2026-08-28T19:12:18Z</time>
  <course>350.04</course>
  <speed>0.01</speed>
  <fix>3d</fix>
</trkpt>
<trkpt lat="40.0728134" lon="-105.2306146">
  <ele>1596.56</ele>
  <time>2026-08-28T19:12:18Z</time>
  <course>52.05</course>
  <speed>0.0</speed>
  <fix>3d</fix>
</trkpt>
<trkpt lat="40.0728135" lon="-105.2306148">
  <ele>1596.65</ele>
  <time>2026-08-28T19:12:18Z</time>
  <course>350.04</course>
  <speed>0.01</speed>
  <fix>3d</fix>
</trkpt>
<trkpt lat="40.0728134" lon="-105.2306146">
  <ele>1596.56</ele>
  <time>2026-08-28T19:12:18Z</time>
  <course>50.68</course>
  <speed>0.0</speed>
  <fix>3d</fix>
</trkpt>
<trkpt lat="40.0728135" lon="-105.2306148">
  <ele>1596.65</ele>
  <time>2026-08-28T19:12:18Z</time>
  <course>350.04</course>
  <speed>0.01</speed>
  <fix>3d</fix>
</trkpt>
<trkpt lat="40.0728134" lon="-105.2306146">
  <ele>1596.56</ele>
  <time>2026-08-28T19:12:18Z</time>
  <course>48.08</course>
  <speed>0.0</speed>
  <fix>3d</fix>
</trkpt>
<trkpt lat="40.0728135" lon="-105.2306148">
  <ele>1596.65</ele>
  <time>2026-08-28T19:12:18Z</time>
  <course>350.04</course>
  <speed>0.0</speed>
  <fix>3d</fix>
</trkpt>
<trkpt lat="40.0728134" lon="-105.2306146">
  <ele>1596.56</ele>
  <time>2026-08-28T19:12:18Z</time>
  <course>44.78</course>
  <speed>0.0</speed>
  <fix>3d</fix>
</trkpt>
<trkpt lat="40.0728135" lon="-105.2306148">
  <ele>1596.65</ele>
  <time>2026-08-28T19:12:18Z</time>
  <course>350.04</course>
  <speed>0.0</speed>
  <fix>3d</fix>
</trkpt>
<trkpt lat="40.0728134" lon="-105.2306146">
  <ele>1596.56</ele>
  <time>2026-08-28T19:12:18Z</time>
  <course>40.67</course>
  <speed>0.0</speed>
  <fix>3d</fix>
</trkpt>
<trkpt lat="40.0728135" lon="-105.2306148">
  <ele>1596.65</ele>
  <time>2026-08-28T19:12:18Z</time>
  <course>350.05</course>
  <speed>0.01</speed>
  <fix>3d</fix>
</trkpt>
<trkpt lat="40.0728134" lon="-105.2306146">
  <ele>1596.56</ele>
  <time>2026-08-28T19:12:18Z</time>
  <course>35.59</course>
  <speed>0.0</speed>
  <fix>3d</fix>
</trkpt>
<trkpt lat="40.0728135" lon="-105.2306148">
  <ele>1596.65</ele>
  <time>2026-08-28T19:12:18Z</time>
  <course>350.05</course>
  <speed>0.01</speed>
  <fix>3d</fix>
</trkpt>
<trkpt lat="40.0728134" lon="-105.2306146">
  <ele>1596.56</ele>
  <time>2026-08-28T19:12:18Z</time>
  <course>31.66</course>
  <speed>0.0</speed>
  <fix>3d</fix>
</trkpt>
<trkpt lat="40.0728135" lon="-105.2306148">
  <ele>1596.65</ele>
  <time>2026-08-28T19:12:18Z</time>
  <course>350.05</course>
  <speed>0.01</speed>
  <fix>3d</fix>
</trkpt>
<trkpt lat="40.0728134" lon="-105.2306146">
  <ele>1596.56</ele>
  <time>2026-08-28T19:12:18Z</time>
  <course>22.8</course>
  <speed>0.0</speed>
  <fix>3d</fix>
</trkpt>
<trkpt lat="40.0728135" lon="-105.2306148">
  <ele>1596.65</ele>
  <time>2026-08-28T19:12:18Z</time>
  <course>350.05</course>
  <speed>0.01</speed>
  <fix>3d</fix>
</trkpt>
<trkpt lat="40.0728134" lon="-105.2306146">
  <ele>1596.56</ele>
  <time>2026-08-28T19:12:18Z</time>
  <course>338.35</course>
  <speed>0.0</speed>
  <fix>3d</fix>
</trkpt>
<trkpt lat="40.0728135" lon="-105.2306148">
  <ele>1596.65</ele>
  <time>2026-08-28T19:12:18Z</time>
  <course>350.05</course>
  <speed>0.01</speed>
  <fix>3d</fix>
</trkpt>
<trkpt lat="40.0728134" lon="-105.2306146">
  <ele>1596.56</ele>
  <time>2026-08-28T19:12:18Z</time>
  <course>280.78</course>
  <speed>0.0</speed>
  <fix>3d</fix>
</trkpt>
<trkpt lat="40.0728135" lon="-105.2306148">
  <ele>1596.65</ele>
  <time>2026-08-28T19:12:18Z</time>
  <course>350.05</course>
  <speed>0.01</speed>
  <fix>3d</fix>
</trkpt>
<trkpt lat="40.0728134" lon="-105.2306146">
  <ele>1596.56</ele>
  <time>2026-08-28T19:12:18Z</time>
  <course>257.86</course>
  <speed>0.0</speed>
  <fix>3d</fix>
</trkpt>
<trkpt lat="40.0728135" lon="-105.2306148">
  <ele>1596.65</ele>
  <time>2026-08-28T19:12:18Z</time>
  <course>350.05</course>
  <speed>0.01</speed>
  <fix>3d</fix>
</trkpt>
<trkpt lat="40.0728134" lon="-105.2306146">
  <ele>1596.56</ele>
  <time>2026-08-28T19:12:18Z</time>
  <course>250.17</course>
  <speed>0.0</speed>
  <fix>3d</fix>
</trkpt>
<trkpt lat="40.0728135" lon="-105.2306148">
  <ele>1596.65</ele>
  <time>2026-08-28T19:12:18Z</time>
  <course>350.05</course>
  <speed>0.01</speed>
  <fix>3d</fix>
</trkpt>
<trkpt lat="40.0728134" lon="-105.2306146">
  <ele>1596.56</ele>
  <time>2026-08-28T19:12:18Z</time>
  <course>246.94</course>
  <speed>0.0</speed>
  <fix>3d</fix>
</trkpt>
<trkpt lat="40.0728135" lon="-105.2306148">
  <ele>1596.64</ele>
  <time>2026-08-28T19:12:18Z</time>
  <course>350.03</course>
  <speed>0.01</speed>
  <fix>3d</fix>
</trkpt>
<trkpt lat="40.0728134" lon="-105.2306146">
  <ele>1596.56</ele>
  <time>2026-08-28T19:12:18Z</time>
  <course>247.66</course>
  <speed>0.0</speed>
  <fix>3d</fix>
</trkpt>
<trkpt lat="40.0728135" lon="-105.2306148">
  <ele>1596.64</ele>
  <time>2026-08-28T19:12:18Z</time>
  <course>350.01</course>
  <speed>0.01</speed>
  <fix>3d</fix>
</trkpt>
<trkpt lat="40.0728134" lon="-105.2306146">
  <ele>1596.56</ele>
  <time>2026-08-28T19:12:18Z</time>
  <course>251.49</course>
  <speed>0.0</speed>
  <fix>3d</fix>
</trkpt>
<trkpt lat="40.0728135" lon="-105.2306148">
  <ele>1596.64</ele>
  <time>2026-08-28T19:12:18Z</time>
  <course>350.0</course>
  <speed>0.01</speed>
  <fix>3d</fix>
</trkpt>
<trkpt lat="40.0728134" lon="-105.2306146">
  <ele>1596.56</ele>
  <time>2026-08-28T19:12:18Z</time>
  <course>254.86</course>
  <speed>0.0</speed>
  <fix>3d</fix>
</trkpt>
<trkpt lat="40.0728135" lon="-105.2306148">
  <ele>1596.65</ele>
  <time>2026-08-28T19:12:18Z</time>
  <course>349.98</course>
  <speed>0.01</speed>
  <fix>3d</fix>
</trkpt>
<trkpt lat="40.0728134" lon="-105.2306146">
  <ele>1596.57</ele>
  <time>2026-08-28T19:12:18Z</time>
  <course>256.2</course>
  <speed>0.0</speed>
  <fix>3d</fix>
</trkpt>
<trkpt lat="40.0728135" lon="-105.2306148">
  <ele>1596.65</ele>
  <time>2026-08-28T19:12:18Z</time>
  <course>349.97</course>
  <speed>0.01</speed>
  <fix>3d</fix>
</trkpt>
<trkpt lat="40.0728134" lon="-105.2306146">
  <ele>1596.57</ele>
  <time>2026-08-28T19:12:18Z</time>
  <course>257.6</course>
  <speed>0.0</speed>
  <fix>3d</fix>
</trkpt>
<trkpt lat="40.0728135" lon="-105.2306148">
  <ele>1596.64</ele>
  <time>2026-08-28T19:12:18Z</time>
  <course>349.97</course>
  <speed>0.01</speed>
  <fix>3d</fix>
</trkpt>
<trkpt lat="40.0728134" lon="-105.2306146">
  <ele>1596.57</ele>
  <time>2026-08-28T19:12:18Z</time>
  <course>257.98</course>
  <speed>0.0</speed>
  <fix>3d</fix>
</trkpt>
<trkpt lat="40.0728135" lon="-105.2306148">
  <ele>1596.65</ele>
  <time>2026-08-28T19:12:18Z</time>
  <course>349.96</course>
  <speed>0.01</speed>
  <fix>3d</fix>
</trkpt>
<trkpt lat="40.0728134" lon="-105.2306146">
  <ele>1596.57</ele>
  <time>2026-08-28T19:12:18Z</time>
  <course>257.02</course>
  <speed>0.0</speed>
  <fix>3d</fix>
</trkpt>
<trkpt lat="40.0728135" lon="-105.2306148">
  <ele>1596.65</ele>
  <time>2026-08-28T19:12:18Z</time>
  <course>349.96</course>
  <speed>0.01</speed>
  <fix>3d</fix>
</trkpt>
<trkpt lat="40.0728134" lon="-105.2306147">
  <ele>1596.57</ele>
  <time>2026-08-28T19:12:18Z</time>
  <course>257.55</course>
  <speed>0.0</speed>
  <fix>3d</fix>
</trkpt>
<trkpt lat="40.0728135" lon="-105.2306148">
  <ele>1596.65</ele>
  <time>2026-08-28T19:12:18Z</time>
  <course>349.96</course>
  <speed>0.01</speed>
  <fix>3d</fix>
</trkpt>
<trkpt lat="40.0728134" lon="-105.2306148">
  <ele>1596.58</ele>
  <time>2026-08-28T19:12:18Z</time>
  <course>258.85</course>
  <speed>0.0</speed>
  <fix>3d</fix>
</trkpt>
<trkpt lat="40.0728135" lon="-105.2306148">
  <ele>1596.65</ele>
  <time>2026-08-28T19:12:18Z</time>
  <course>349.96</course>
  <speed>0.01</speed>
  <fix>3d</fix>
</trkpt>
<trkpt lat="40.0728134" lon="-105.2306148">
  <ele>1596.58</ele>
  <time>2026-08-28T19:12:18Z</time>
  <course>260.45</course>
  <speed>0.0</speed>
  <fix>3d</fix>
</trkpt>
<trkpt lat="40.0728135" lon="-105.2306148">
  <ele>1596.64</ele>
  <time>2026-08-28T19:12:18Z</time>
  <course>349.96</course>
  <speed>0.01</speed>
  <fix>3d</fix>
</trkpt>
<trkpt lat="40.0728134" lon="-105.2306148">
  <ele>1596.58</ele>
  <time>2026-08-28T19:12:18Z</time>
  <course>262.59</course>
  <speed>0.0</speed>
  <fix>3d</fix>
</trkpt>
<trkpt lat="40.0728135" lon="-105.2306148">
  <ele>1596.64</ele>
  <time>2026-08-28T19:12:18Z</time>
  <course>349.96</course>
  <speed>0.01</speed>
  <fix>3d</fix>
</trkpt>
<trkpt lat="40.0728134" lon="-105.2306148">
  <ele>1596.58</ele>
  <time>2026-08-28T19:12:18Z</time>
  <course>262.07</course>
  <speed>0.0</speed>
  <fix>3d</fix>
</trkpt>
<trkpt lat="40.0728135" lon="-105.2306148">
  <ele>1596.64</ele>
  <time>2026-08-28T19:12:18Z</time>
  <course>349.95</course>
  <speed>0.01</speed>
  <fix>3d</fix>
</trkpt>
<trkpt lat="40.0728134" lon="-105.2306148">
  <ele>1596.58</ele>
  <time>2026-08-28T19:12:18Z</time>
  <course>256.85</course>
  <speed>0.0</speed>
  <fix>3d</fix>
</trkpt>
<trkpt lat="40.0728135" lon="-105.2306148">
  <ele>1596.64</ele>
  <time>2026-08-28T19:12:18Z</time>
  <course>349.93</course>
  <speed>0.01</speed>
  <fix>3d</fix>
</trkpt>
<trkpt lat="40.0728134" lon="-105.2306148">
  <ele>1596.58</ele>
  <time>2026-08-28T19:12:18Z</time>
  <course>243.32</course>
  <speed>0.0</speed>
  <fix>3d</fix>
</trkpt>
<trkpt lat="40.0728135" lon="-105.2306148">
  <ele>1596.64</ele>
  <time>2026-08-28T19:12:18Z</time>
  <course>349.93</course>
  <speed>0.01</speed>
  <fix>3d</fix>
</trkpt>
<trkpt lat="40.0728134" lon="-105.2306148">
  <ele>1596.58</ele>
  <time>2026-08-28T19:12:18Z</time>
  <course>176.1</course>
  <speed>0.0</speed>
  <fix>3d</fix>
</trkpt>
<trkpt lat="40.0728135" lon="-105.2306148">
  <ele>1596.65</ele>
  <time>2026-08-28T19:12:18Z</time>
  <course>349.94</course>
  <speed>0.01</speed>
  <fix>3d</fix>
</trkpt>
<trkpt lat="40.0728134" lon="-105.2306148">
  <ele>1596.59</ele>
  <time>2026-08-28T19:12:18Z</time>
  <course>124.43</course>
  <speed>0.0</speed>
  <fix>3d</fix>
</trkpt>
<trkpt lat="40.0728135" lon="-105.2306148">
  <ele>1596.65</ele>
  <time>2026-08-28T19:12:18Z</time>
  <course>349.94</course>
  <speed>0.0</speed>
  <fix>3d</fix>
</trkpt>
<trkpt lat="40.0728134" lon="-105.2306148">
  <ele>1596.59</ele>
  <time>2026-08-28T19:12:18Z</time>
  <course>119.81</course>
  <speed>0.0</speed>
  <fix>3d</fix>
</trkpt>
<trkpt lat="40.0728135" lon="-105.2306148">
  <ele>1596.66</ele>
  <time>2026-08-28T19:12:18Z</time>
  <course>349.95</course>
  <speed>0.0</speed>
  <fix>3d</fix>
</trkpt>
<trkpt lat="40.0728134" lon="-105.2306148">
  <ele>1596.59</ele>
  <time>2026-08-28T19:12:18Z</time>
  <course>121.53</course>
  <speed>0.0</speed>
  <fix>3d</fix>
</trkpt>
<trkpt lat="40.0728135" lon="-105.2306148">
  <ele>1596.67</ele>
  <time>2026-08-28T19:12:18Z</time>
  <course>349.97</course>
  <speed>0.0</speed>
  <fix>3d</fix>
</trkpt>
<trkpt lat="40.0728134" lon="-105.2306148">
  <ele>1596.6</ele>
  <time>2026-08-28T19:12:18Z</time>
  <course>120.83</course>
  <speed>0.0</speed>
  <fix>3d</fix>
</trkpt>
<trkpt lat="40.0728135" lon="-105.2306148">
  <ele>1596.67</ele>
  <time>2026-08-28T19:12:18Z</time>
  <course>350.0</course>
  <speed>0.0</speed>
  <fix>3d</fix>
</trkpt>
<trkpt lat="40.0728134" lon="-105.2306148">
  <ele>1596.6</ele>
  <time>2026-08-28T19:12:18Z</time>
  <course>117.4</course>
  <speed>0.0</speed>
  <fix>3d</fix>
</trkpt>
<trkpt lat="40.0728135" lon="-105.2306148">
  <ele>1596.67</ele>
  <time>2026-08-28T19:12:18Z</time>
  <course>350.03</course>
  <speed>0.0</speed>
  <fix>3d</fix>
</trkpt>
<trkpt lat="40.0728134" lon="-105.2306148">
  <ele>1596.6</ele>
  <time>2026-08-28T19:12:18Z</time>
  <course>111.26</course>
  <speed>0.0</speed>
  <fix>3d</fix>
</trkpt>
<trkpt lat="40.0728135" lon="-105.2306148">
  <ele>1596.67</ele>
  <time>2026-08-28T19:12:18Z</time>
  <course>350.05</course>
  <speed>0.0</speed>
  <fix>3d</fix>
</trkpt>
<trkpt lat="40.0728134" lon="-105.2306148">
  <ele>1596.59</ele>
  <time>2026-08-28T19:12:18Z</time>
  <course>106.28</course>
  <speed>0.0</speed>
  <fix>3d</fix>
</trkpt>
<trkpt lat="40.0728135" lon="-105.2306148">
  <ele>1596.66</ele>
  <time>2026-08-28T19:12:18Z</time>
  <course>350.06</course>
  <speed>0.0</speed>
  <fix>3d</fix>
</trkpt>
<trkpt lat="40.0728134" lon="-105.2306148">
  <ele>1596.59</ele>
  <time>2026-08-28T19:12:18Z</time>
  <course>103.46</course>
  <speed>0.0</speed>
  <fix>3d</fix>
</trkpt>
<trkpt lat="40.0728135" lon="-105.2306148">
  <ele>1596.66</ele>
  <time>2026-08-28T19:12:18Z</time>
  <course>350.05</course>
  <speed>0.0</speed>
  <fix>3d</fix>
</trkpt>
<trkpt lat="40.0728134" lon="-105.2306148">
  <ele>1596.59</ele>
  <time>2026-08-28T19:12:18Z</time>
  <course>100.79</course>
  <speed>0.0</speed>
  <fix>3d</fix>
</trkpt>
<trkpt lat="40.0728135" lon="-105.2306148">
  <ele>1596.66</ele>
  <time>2026-08-28T19:12:18Z</time>
  <course>350.03</course>
  <speed>0.0</speed>
  <fix>3d</fix>
</trkpt>
<trkpt lat="40.0728134" lon="-105.2306148">
  <ele>1596.59</ele>
  <time>2026-08-28T19:12:18Z</time>
  <course>97.96</course>
  <speed>0.0</speed>
  <fix>3d</fix>
</trkpt>
<trkpt lat="40.0728135" lon="-105.2306148">
  <ele>1596.65</ele>
  <time>2026-08-28T19:12:18Z</time>
  <course>350.02</course>
  <speed>0.0</speed>
  <fix>3d</fix>
</trkpt>
<trkpt lat="40.0728134" lon="-105.2306148">
  <ele>1596.58</ele>
  <time>2026-08-28T19:12:18Z</time>
  <course>96.9</course>
  <speed>0.0</speed>
  <fix>3d</fix>
</trkpt>
<trkpt lat="40.0728135" lon="-105.2306148">
  <ele>1596.65</ele>
  <time>2026-08-28T19:12:18Z</time>
  <course>350.01</course>
  <speed>0.0</speed>
  <fix>3d</fix>
</trkpt>
<trkpt lat="40.0728134" lon="-105.2306148">
  <ele>1596.58</ele>
  <time>2026-08-28T19:12:18Z</time>
  <course>96.97</course>
  <speed>0.0</speed>
  <fix>3d</fix>
</trkpt>
<trkpt lat="40.0728135" lon="-105.2306148">
  <ele>1596.66</ele>
  <time>2026-08-28T19:12:18Z</time>
  <course>350.01</course>
  <speed>0.0</speed>
  <fix>3d</fix>
</trkpt>
<trkpt lat="40.0728134" lon="-105.2306147">
  <ele>1596.58</ele>
  <time>2026-08-28T19:12:18Z</time>
  <course>97.77</course>
  <speed>0.0</speed>
  <fix>3d</fix>
</trkpt>
<trkpt lat="40.0728135" lon="-105.2306148">
  <ele>1596.66</ele>
  <time>2026-08-28T19:12:18Z</time>
  <course>350.01</course>
  <speed>0.0</speed>
  <fix>3d</fix>
</trkpt>
<trkpt lat="40.0728134" lon="-105.2306146">
  <ele>1596.58</ele>
  <time>2026-08-28T19:12:18Z</time>
  <course>100.82</course>
  <speed>0.0</speed>
  <fix>3d</fix>
</trkpt>
<trkpt lat="40.0728135" lon="-105.2306148">
  <ele>1596.66</ele>
  <time>2026-08-28T19:12:18Z</time>
  <course>350.01</course>
  <speed>0.0</speed>
  <fix>3d</fix>
</trkpt>
<trkpt lat="40.0728134" lon="-105.2306146">
  <ele>1596.58</ele>
  <time>2026-08-28T19:12:18Z</time>
  <course>105.09</course>
  <speed>0.0</speed>
  <fix>3d</fix>
</trkpt>
<trkpt lat="40.0728135" lon="-105.2306148">
  <ele>1596.66</ele>
  <time>2026-08-28T19:12:18Z</time>
  <course>350.01</course>
  <speed>0.0</speed>
  <fix>3d</fix>
</trkpt>
<trkpt lat="40.0728134" lon="-105.2306146">
  <ele>1596.58</ele>
  <time>2026-08-28T19:12:18Z</time>
  <course>109.5</course>
  <speed>0.0</speed>
  <fix>3d</fix>
</trkpt>
<trkpt lat="40.0728135" lon="-105.2306148">
  <ele>1596.67</ele>
  <time>2026-08-28T19:12:19Z</time>
  <course>350.02</course>
  <speed>0.01</speed>
  <fix>3d</fix>
</trkpt>
<trkpt lat="40.0728134" lon="-105.2306146">
  <ele>1596.58</ele>
  <time>2026-08-28T19:12:19Z</time>
  <course>112.65</course>
  <speed>0.0</speed>
  <fix>3d</fix>
</trkpt>
<trkpt lat="40.0728135" lon="-105.2306148">
  <ele>1596.67</ele>
  <time>2026-08-28T19:12:19Z</time>
  <course>350.04</course>
  <speed>0.01</speed>
  <fix>3d</fix>
</trkpt>
<trkpt lat="40.0728134" lon="-105.2306146">
  <ele>1596.58</ele>
  <time>2026-08-28T19:12:19Z</time>
  <course>115.74</course>
  <speed>0.0</speed>
  <fix>3d</fix>
</trkpt>
<trkpt lat="40.0728135" lon="-105.2306147">
  <ele>1596.67</ele>
  <time>2026-08-28T19:12:19Z</time>
  <course>350.06</course>
  <speed>0.01</speed>
  <fix>3d</fix>
</trkpt>
<trkpt lat="40.0728134" lon="-105.2306146">
  <ele>1596.57</ele>
  <time>2026-08-28T19:12:19Z</time>
  <course>119.99</course>
  <speed>0.0</speed>
  <fix>3d</fix>
</trkpt>
<trkpt lat="40.0728135" lon="-105.2306147">
  <ele>1596.67</ele>
  <time>2026-08-28T19:12:19Z</time>
  <course>350.07</course>
  <speed>0.01</speed>
  <fix>3d</fix>
</trkpt>
<trkpt lat="40.0728134" lon="-105.2306146">
  <ele>1596.57</ele>
  <time>2026-08-28T19:12:19Z</time>
  <course>124.96</course>
  <speed>0.0</speed>
  <fix>3d</fix>
</trkpt>
<trkpt lat="40.0728135" lon="-105.2306147">
  <ele>1596.66</ele>
  <time>2026-08-28T19:12:19Z</time>
  <course>350.07</course>
  <speed>0.01</speed>
  <fix>3d</fix>
</trkpt>
<trkpt lat="40.0728134" lon="-105.2306146">
  <ele>1596.57</ele>
  <time>2026-08-28T19:12:19Z</time>
  <course>133.43</course>
  <speed>0.0</speed>
  <fix>3d</fix>
</trkpt>
<trkpt lat="40.0728135" lon="-105.2306147">
  <ele>1596.66</ele>
  <time>2026-08-28T19:12:19Z</time>
  <course>350.06</course>
  <speed>0.01</speed>
  <fix>3d</fix>
</trkpt>
<trkpt lat="40.0728134" lon="-105.2306146">
  <ele>1596.56</ele>
  <time>2026-08-28T19:12:19Z</time>
  <course>146.81</course>
  <speed>0.0</speed>
  <fix>3d</fix>
</trkpt>
<trkpt lat="40.0728135" lon="-105.2306147">
  <ele>1596.67</ele>
  <time>2026-08-28T19:12:19Z</time>
  <course>350.06</course>
  <speed>0.01</speed>
  <fix>3d</fix>
</trkpt>
<trkpt lat="40.0728134" lon="-105.2306146">
  <ele>1596.56</ele>
  <time>2026-08-28T19:12:19Z</time>
  <course>160.54</course>
  <speed>0.0</speed>
  <fix>3d</fix>
</trkpt>
<trkpt lat="40.0728135" lon="-105.2306147">
  <ele>1596.66</ele>
  <time>2026-08-28T19:12:19Z</time>
  <course>350.06</course>
  <speed>0.01</speed>
  <fix>3d</fix>
</trkpt>
<trkpt lat="40.0728134" lon="-105.2306146">
  <ele>1596.55</ele>
  <time>2026-08-28T19:12:19Z</time>
  <course>171.71</course>
  <speed>0.0</speed>
  <fix>3d</fix>
</trkpt>
<trkpt lat="40.0728135" lon="-105.2306147">
  <ele>1596.66</ele>
  <time>2026-08-28T19:12:19Z</time>
  <course>350.05</course>
  <speed>0.01</speed>
  <fix>3d</fix>
</trkpt>
<trkpt lat="40.0728134" lon="-105.2306146">
  <ele>1596.55</ele>
  <time>2026-08-28T19:12:19Z</time>
  <course>180.39</course>
  <speed>0.0</speed>
  <fix>3d</fix>
</trkpt>
<trkpt lat="40.0728135" lon="-105.2306147">
  <ele>1596.65</ele>
  <time>2026-08-28T19:12:19Z</time>
  <course>350.04</course>
  <speed>0.01</speed>
  <fix>3d</fix>
</trkpt>
<trkpt lat="40.0728134" lon="-105.2306146">
  <ele>1596.55</ele>
  <time>2026-08-28T19:12:19Z</time>
  <course>186.9</course>
  <speed>0.0</speed>
  <fix>3d</fix>
</trkpt>
<trkpt lat="40.0728135" lon="-105.2306147">
  <ele>1596.65</ele>
  <time>2026-08-28T19:12:19Z</time>
  <course>350.03</course>
  <speed>0.01</speed>
  <fix>3d</fix>
</trkpt>
<trkpt lat="40.0728134" lon="-105.2306146">
  <ele>1596.55</ele>
  <time>2026-08-28T19:12:19Z</time>
  <course>196.28</course>
  <speed>0.0</speed>
  <fix>3d</fix>
</trkpt>
<trkpt lat="40.0728135" lon="-105.2306147">
  <ele>1596.65</ele>
  <time>2026-08-28T19:12:19Z</time>
  <course>350.03</course>
  <speed>0.01</speed>
  <fix>3d</fix>
</trkpt>
<trkpt lat="40.0728134" lon="-105.2306146">
  <ele>1596.54</ele>
  <time>2026-08-28T19:12:19Z</time>
  <course>205.97</course>
  <speed>0.0</speed>
  <fix>3d</fix>
</trkpt>
<trkpt lat="40.0728135" lon="-105.2306147">
  <ele>1596.65</ele>
  <time>2026-08-28T19:12:19Z</time>
  <course>350.02</course>
  <speed>0.01</speed>
  <fix>3d</fix>
</trkpt>
<trkpt lat="40.0728134" lon="-105.2306146">
  <ele>1596.54</ele>
  <time>2026-08-28T19:12:19Z</time>
  <course>210.57</course>
  <speed>0.0</speed>
  <fix>3d</fix>
</trkpt>
<trkpt lat="40.0728135" lon="-105.2306147">
  <ele>1596.65</ele>
  <time>2026-08-28T19:12:19Z</time>
  <course>350.02</course>
  <speed>0.01</speed>
  <fix>3d</fix>
</trkpt>
<trkpt lat="40.0728134" lon="-105.2306146">
  <ele>1596.54</ele>
  <time>2026-08-28T19:12:19Z</time>
  <course>214.69</course>
  <speed>0.0</speed>
  <fix>3d</fix>
</trkpt>
<trkpt lat="40.0728135" lon="-105.2306147">
  <ele>1596.66</ele>
  <time>2026-08-28T19:12:19Z</time>
  <course>350.02</course>
  <speed>0.01</speed>
  <fix>3d</fix>
</trkpt>
<trkpt lat="40.0728134" lon="-105.2306146">
  <ele>1596.54</ele>
  <time>2026-08-28T19:12:19Z</time>
  <course>212.28</course>
  <speed>0.0</speed>
  <fix>3d</fix>
</trkpt>
<trkpt lat="40.0728135" lon="-105.2306147">
  <ele>1596.65</ele>
  <time>2026-08-28T19:12:19Z</time>
  <course>350.02</course>
  <speed>0.01</speed>
  <fix>3d</fix>
</trkpt>
<trkpt lat="40.0728134" lon="-105.2306146">
  <ele>1596.54</ele>
  <time>2026-08-28T19:12:19Z</time>
  <course>205.8</course>
  <speed>0.0</speed>
  <fix>3d</fix>
</trkpt>
<trkpt lat="40.0728135" lon="-105.2306147">
  <ele>1596.65</ele>
  <time>2026-08-28T19:12:19Z</time>
  <course>350.02</course>
  <speed>0.01</speed>
  <fix>3d</fix>
</trkpt>
<trkpt lat="40.0728133" lon="-105.2306146">
  <ele>1596.54</ele>
  <time>2026-08-28T19:12:19Z</time>
  <course>203.93</course>
  <speed>0.0</speed>
  <fix>3d</fix>
</trkpt>
<trkpt lat="40.0728135" lon="-105.2306147">
  <ele>1596.65</ele>
  <time>2026-08-28T19:12:19Z</time>
  <course>350.01</course>
  <speed>0.01</speed>
  <fix>3d</fix>
</trkpt>
<trkpt lat="40.0728133" lon="-105.2306146">
  <ele>1596.54</ele>
  <time>2026-08-28T19:12:19Z</time>
  <course>203.0</course>
  <speed>0.0</speed>
  <fix>3d</fix>
</trkpt>
<trkpt lat="40.0728135" lon="-105.2306147">
  <ele>1596.65</ele>
  <time>2026-08-28T19:12:19Z</time>
  <course>350.01</course>
  <speed>0.01</speed>
  <fix>3d</fix>
</trkpt>
<trkpt lat="40.0728133" lon="-105.2306146">
  <ele>1596.54</ele>
  <time>2026-08-28T19:12:19Z</time>
  <course>200.1</course>
  <speed>0.0</speed>
  <fix>3d</fix>
</trkpt>
<trkpt lat="40.0728135" lon="-105.2306147">
  <ele>1596.65</ele>
  <time>2026-08-28T19:12:19Z</time>
  <course>350.01</course>
  <speed>0.01</speed>
  <fix>3d</fix>
</trkpt>
<trkpt lat="40.0728133" lon="-105.2306146">
  <ele>1596.53</ele>
  <time>2026-08-28T19:12:19Z</time>
  <course>198.88</course>
  <speed>0.0</speed>
  <fix>3d</fix>
</trkpt>
<trkpt lat="40.0728135" lon="-105.2306147">
  <ele>1596.65</ele>
  <time>2026-08-28T19:12:19Z</time>
  <course>350.0</course>
  <speed>0.01</speed>
  <fix>3d</fix>
</trkpt>
<trkpt lat="40.0728133" lon="-105.2306146">
  <ele>1596.53</ele>
  <time>2026-08-28T19:12:19Z</time>
  <course>206.93</course>
  <speed>0.0</speed>
  <fix>3d</fix>
</trkpt>
<trkpt lat="40.0728135" lon="-105.2306147">
  <ele>1596.65</ele>
  <time>2026-08-28T19:12:19Z</time>
  <course>349.99</course>
  <speed>0.01414213562373095</speed>
  <fix>3d</fix>
</trkpt>
<trkpt lat="40.0728133" lon="-105.2306146">
  <ele>1596.53</ele>
  <time>2026-08-28T19:12:19Z</time>
  <course>230.81</course>
  <speed>0.0</speed>
  <fix>3d</fix>
</trkpt>
<trkpt lat="40.0728135" lon="-105.2306147">
  <ele>1596.65</ele>
  <time>2026-08-28T19:12:19Z</time>
  <course>349.97</course>
  <speed>0.01414213562373095</speed>
  <fix>3d</fix>
</trkpt>
<trkpt lat="40.0728133" lon="-105.2306146">
  <ele>1596.53</ele>
  <time>2026-08-28T19:12:19Z</time>
  <course>278.27</course>
  <speed>0.0</speed>
  <fix>3d</fix>
</trkpt>
<trkpt lat="40.0728134" lon="-105.2306147">
  <ele>1596.65</ele>
  <time>2026-08-28T19:12:19Z</time>
  <course>349.95</course>
  <speed>0.01414213562373095</speed>
  <fix>3d</fix>
</trkpt>
<trkpt lat="40.0728133" lon="-105.2306146">
  <ele>1596.53</ele>
  <time>2026-08-28T19:12:19Z</time>
  <course>311.95</course>
  <speed>0.0</speed>
  <fix>3d</fix>
</trkpt>
<trkpt lat="40.0728134" lon="-105.2306147">
  <ele>1596.65</ele>
  <time>2026-08-28T19:12:19Z</time>
  <course>349.94</course>
  <speed>0.01414213562373095</speed>
  <fix>3d</fix>
</trkpt>
<trkpt lat="40.0728133" lon="-105.2306146">
  <ele>1596.53</ele>
  <time>2026-08-28T19:12:19Z</time>
  <course>323.97</course>
  <speed>0.0</speed>
  <fix>3d</fix>
</trkpt>
<trkpt lat="40.0728134" lon="-105.2306147">
  <ele>1596.65</ele>
  <time>2026-08-28T19:12:19Z</time>
  <course>349.93</course>
  <speed>0.01414213562373095</speed>
  <fix>3d</fix>
</trkpt>
<trkpt lat="40.0728133" lon="-105.2306146">
  <ele>1596.53</ele>
  <time>2026-08-28T19:12:19Z</time>
  <course>327.62</course>
  <speed>0.0</speed>
  <fix>3d</fix>
</trkpt>
<trkpt lat="40.0728134" lon="-105.2306147">
  <ele>1596.64</ele>
  <time>2026-08-28T19:12:19Z</time>
  <course>349.93</course>
  <speed>0.01414213562373095</speed>
  <fix>3d</fix>
</trkpt>
<trkpt lat="40.0728133" lon="-105.2306146">
  <ele>1596.53</ele>
  <time>2026-08-28T19:12:19Z</time>
  <course>327.57</course>
  <speed>0.0</speed>
  <fix>3d</fix>
</trkpt>
<trkpt lat="40.0728134" lon="-105.2306147">
  <ele>1596.64</ele>
  <time>2026-08-28T19:12:19Z</time>
  <course>349.92</course>
  <speed>0.01414213562373095</speed>
  <fix>3d</fix>
</trkpt>
<trkpt lat="40.0728133" lon="-105.2306146">
  <ele>1596.53</ele>
  <time>2026-08-28T19:12:19Z</time>
  <course>326.62</course>
  <speed>0.0</speed>
  <fix>3d</fix>
</trkpt>
<trkpt lat="40.0728134" lon="-105.2306147">
  <ele>1596.64</ele>
  <time>2026-08-28T19:12:19Z</time>
  <course>349.92</course>
  <speed>0.01414213562373095</speed>
  <fix>3d</fix>
</trkpt>
<trkpt lat="40.0728133" lon="-105.2306146">
  <ele>1596.53</ele>
  <time>2026-08-28T19:12:19Z</time>
  <course>326.01</course>
  <speed>0.0</speed>
  <fix>3d</fix>
</trkpt>
<trkpt lat="40.0728134" lon="-105.2306147">
  <ele>1596.64</ele>
  <time>2026-08-28T19:12:19Z</time>
  <course>349.92</course>
  <speed>0.01414213562373095</speed>
  <fix>3d</fix>
</trkpt>
<trkpt lat="40.0728133" lon="-105.2306146">
  <ele>1596.53</ele>
  <time>2026-08-28T19:12:19Z</time>
  <course>328.44</course>
  <speed>0.0</speed>
  <fix>3d</fix>
</trkpt>
<trkpt lat="40.0728134" lon="-105.2306147">
  <ele>1596.64</ele>
  <time>2026-08-28T19:12:19Z</time>
  <course>349.9</course>
  <speed>0.01414213562373095</speed>
  <fix>3d</fix>
</trkpt>
<trkpt lat="40.0728133" lon="-105.2306146">
  <ele>1596.53</ele>
  <time>2026-08-28T19:12:19Z</time>
  <course>338.68</course>
  <speed>0.0</speed>
  <fix>3d</fix>
</trkpt>
<trkpt lat="40.0728134" lon="-105.2306147">
  <ele>1596.65</ele>
  <time>2026-08-28T19:12:19Z</time>
  <course>349.89</course>
  <speed>0.01414213562373095</speed>
  <fix>3d</fix>
</trkpt>
<trkpt lat="40.0728133" lon="-105.2306146">
  <ele>1596.53</ele>
  <time>2026-08-28T19:12:19Z</time>
  <course>348.76</course>
  <speed>0.0</speed>
  <fix>3d</fix>
</trkpt>
<trkpt lat="40.0728134" lon="-105.2306147">
  <ele>1596.65</ele>
  <time>2026-08-28T19:12:19Z</time>
  <course>349.9</course>
  <speed>0.01414213562373095</speed>
  <fix>3d</fix>
</trkpt>
<trkpt lat="40.0728133" lon="-105.2306146">
  <ele>1596.54</ele>
  <time>2026-08-28T19:12:19Z</time>
  <course>351.44</course>
  <speed>0.0</speed>
  <fix>3d</fix>
</trkpt>
<trkpt lat="40.0728134" lon="-105.2306147">
  <ele>1596.65</ele>
  <time>2026-08-28T19:12:19Z</time>
  <course>349.9</course>
  <speed>0.01414213562373095</speed>
  <fix>3d</fix>
</trkpt>
<trkpt lat="40.0728133" lon="-105.2306146">
  <ele>1596.54</ele>
  <time>2026-08-28T19:12:19Z</time>
  <course>348.16</course>
  <speed>0.0</speed>
  <fix>3d</fix>
</trkpt>
<trkpt lat="40.0728134" lon="-105.2306147">
  <ele>1596.66</ele>
  <time>2026-08-28T19:12:19Z</time>
  <course>349.92</course>
  <speed>0.01414213562373095</speed>
  <fix>3d</fix>
</trkpt>
<trkpt lat="40.0728133" lon="-105.2306146">
  <ele>1596.54</ele>
  <time>2026-08-28T19:12:19Z</time>
  <course>341.75</course>
  <speed>0.0</speed>
  <fix>3d</fix>
</trkpt>
<trkpt lat="40.0728134" lon="-105.2306147">
  <ele>1596.66</ele>
  <time>2026-08-28T19:12:19Z</time>
  <course>349.94</course>
  <speed>0.01414213562373095</speed>
  <fix>3d</fix>
</trkpt>
<trkpt lat="40.0728133" lon="-105.2306146">
  <ele>1596.54</ele>
  <time>2026-08-28T19:12:19Z</time>
  <course>341.65</course>
  <speed>0.0</speed>
  <fix>3d</fix>
</trkpt>
<trkpt lat="40.0728134" lon="-105.2306147">
  <ele>1596.65</ele>
  <time>2026-08-28T19:12:19Z</time>
  <course>349.96</course>
  <speed>0.01414213562373095</speed>
  <fix>3d</fix>
</trkpt>
<trkpt lat="40.0728133" lon="-105.2306146">
  <ele>1596.54</ele>
  <time>2026-08-28T19:12:19Z</time>
  <course>348.34</course>
  <speed>0.0</speed>
  <fix>3d</fix>
</trkpt>
<trkpt lat="40.0728134" lon="-105.2306147">
  <ele>1596.65</ele>
  <time>2026-08-28T19:12:19Z</time>
  <course>349.95</course>
  <speed>0.01414213562373095</speed>
  <fix>3d</fix>
</trkpt>
<trkpt lat="40.0728133" lon="-105.2306146">
  <ele>1596.54</ele>
  <time>2026-08-28T19:12:19Z</time>
  <course>352.58</course>
  <speed>0.0</speed>
  <fix>3d</fix>
</trkpt>
<trkpt lat="40.0728134" lon="-105.2306147">
  <ele>1596.65</ele>
  <time>2026-08-28T19:12:19Z</time>
  <course>349.95</course>
  <speed>0.01414213562373095</speed>
  <fix>3d</fix>
</trkpt>
<trkpt lat="40.0728133" lon="-105.2306146">
  <ele>1596.54</ele>
  <time>2026-08-28T19:12:19Z</time>
  <course>352.66</course>
  <speed>0.0</speed>
  <fix>3d</fix>
</trkpt>
<trkpt lat="40.0728134" lon="-105.2306147">
  <ele>1596.65</ele>
  <time>2026-08-28T19:12:19Z</time>
  <course>349.94</course>
  <speed>0.01414213562373095</speed>
  <fix>3d</fix>
</trkpt>
<trkpt lat="40.0728133" lon="-105.2306146">
  <ele>1596.54</ele>
  <time>2026-08-28T19:12:19Z</time>
  <course>351.57</course>
  <speed>0.0</speed>
  <fix>3d</fix>
</trkpt>
<trkpt lat="40.0728134" lon="-105.2306147">
  <ele>1596.65</ele>
  <time>2026-08-28T19:12:19Z</time>
  <course>349.94</course>
  <speed>0.01414213562373095</speed>
  <fix>3d</fix>
</trkpt>
<trkpt lat="40.0728133" lon="-105.2306146">
  <ele>1596.54</ele>
  <time>2026-08-28T19:12:19Z</time>
  <course>350.64</course>
  <speed>0.0</speed>
  <fix>3d</fix>
</trkpt>
<trkpt lat="40.0728134" lon="-105.2306147">
  <ele>1596.65</ele>
  <time>2026-08-28T19:12:19Z</time>
  <course>349.94</course>
  <speed>0.01414213562373095</speed>
  <fix>3d</fix>
</trkpt>
<trkpt lat="40.0728133" lon="-105.2306146">
  <ele>1596.54</ele>
  <time>2026-08-28T19:12:19Z</time>
  <course>355.1</course>
  <speed>0.0</speed>
  <fix>3d</fix>
</trkpt>
<trkpt lat="40.0728134" lon="-105.2306147">
  <ele>1596.65</ele>
  <time>2026-08-28T19:12:19Z</time>
  <course>349.94</course>
  <speed>0.01414213562373095</speed>
  <fix>3d</fix>
</trkpt>
<trkpt lat="40.0728133" lon="-105.2306146">
  <ele>1596.54</ele>
  <time>2026-08-28T19:12:19Z</time>
  <course>2.57</course>
  <speed>0.0</speed>
  <fix>3d</fix>
</trkpt>
<trkpt lat="40.0728134" lon="-105.2306147">
  <ele>1596.65</ele>
  <time>2026-08-28T19:12:19Z</time>
  <course>349.94</course>
  <speed>0.01414213562373095</speed>
  <fix>3d</fix>
</trkpt>
<trkpt lat="40.0728133" lon="-105.2306146">
  <ele>1596.54</ele>
  <time>2026-08-28T19:12:19Z</time>
  <course>7.25</course>
  <speed>0.0</speed>
  <fix>3d</fix>
</trkpt>
<trkpt lat="40.0728134" lon="-105.2306147">
  <ele>1596.65</ele>
  <time>2026-08-28T19:12:19Z</time>
  <course>349.94</course>
  <speed>0.01414213562373095</speed>
  <fix>3d</fix>
</trkpt>
<trkpt lat="40.0728134" lon="-105.2306146">
  <ele>1596.54</ele>
  <time>2026-08-28T19:12:19Z</time>
  <course>11.01</course>
  <speed>0.0</speed>
  <fix>3d</fix>
</trkpt>
<trkpt lat="40.0728134" lon="-105.2306147">
  <ele>1596.65</ele>
  <time>2026-08-28T19:12:19Z</time>
  <course>349.93</course>
  <speed>0.01414213562373095</speed>
  <fix>3d</fix>
</trkpt>
<trkpt lat="40.0728134" lon="-105.2306146">
  <ele>1596.53</ele>
  <time>2026-08-28T19:12:19Z</time>
  <course>15.2</course>
  <speed>0.0</speed>
  <fix>3d</fix>
</trkpt>
<trkpt lat="40.0728134" lon="-105.2306147">
  <ele>1596.65</ele>
  <time>2026-08-28T19:12:19Z</time>
  <course>349.94</course>
  <speed>0.01414213562373095</speed>
  <fix>3d</fix>
</trkpt>
<trkpt lat="40.0728134" lon="-105.2306146">
  <ele>1596.53</ele>
  <time>2026-08-28T19:12:19Z</time>
  <course>18.55</course>
  <speed>0.0</speed>
  <fix>3d</fix>
</trkpt>
<trkpt lat="40.0728134" lon="-105.2306147">
  <ele>1596.64</ele>
  <time>2026-08-28T19:12:19Z</time>
  <course>349.94</course>
  <speed>0.01414213562373095</speed>
  <fix>3d</fix>
</trkpt>
<trkpt lat="40.0728134" lon="-105.2306146">
  <ele>1596.53</ele>
  <time>2026-08-28T19:12:19Z</time>
  <course>18.24</course>
  <speed>0.0</speed>
  <fix>3d</fix>
</trkpt>
<trkpt lat="40.0728134" lon="-105.2306147">
  <ele>1596.64</ele>
  <time>2026-08-28T19:12:19Z</time>
  <course>349.94</course>
  <speed>0.01414213562373095</speed>
  <fix>3d</fix>
</trkpt>
<trkpt lat="40.0728134" lon="-105.2306146">
  <ele>1596.53</ele>
  <time>2026-08-28T19:12:19Z</time>
  <course>16.4</course>
  <speed>0.0</speed>
  <fix>3d</fix>
</trkpt>
<trkpt lat="40.0728134" lon="-105.2306147">
  <ele>1596.64</ele>
  <time>2026-08-28T19:12:19Z</time>
  <course>349.92</course>
  <speed>0.01414213562373095</speed>
  <fix>3d</fix>
</trkpt>
<trkpt lat="40.0728134" lon="-105.2306146">
  <ele>1596.53</ele>
  <time>2026-08-28T19:12:19Z</time>
  <course>19.61</course>
  <speed>0.0</speed>
  <fix>3d</fix>
</trkpt>
<trkpt lat="40.0728134" lon="-105.2306147">
  <ele>1596.64</ele>
  <time>2026-08-28T19:12:19Z</time>
  <course>349.9</course>
  <speed>0.01414213562373095</speed>
  <fix>3d</fix>
</trkpt>
<trkpt lat="40.0728134" lon="-105.2306146">
  <ele>1596.53</ele>
  <time>2026-08-28T19:12:19Z</time>
  <course>25.31</course>
  <speed>0.0</speed>
  <fix>3d</fix>
</trkpt>
<trkpt lat="40.0728134" lon="-105.2306147">
  <ele>1596.64</ele>
  <time>2026-08-28T19:12:19Z</time>
  <course>349.89</course>
  <speed>0.01</speed>
  <fix>3d</fix>
</trkpt>
<trkpt lat="40.0728134" lon="-105.2306146">
  <ele>1596.53</ele>
  <time>2026-08-28T19:12:19Z</time>
  <course>42.43</course>
  <speed>0.0</speed>
  <fix>3d</fix>
</trkpt>
<trkpt lat="40.0728134" lon="-105.2306147">
  <ele>1596.64</ele>
  <time>2026-08-28T19:12:19Z</time>
  <course>349.87</course>
  <speed>0.01</speed>
  <fix>3d</fix>
</trkpt>
<trkpt lat="40.0728134" lon="-105.2306146">
  <ele>1596.53</ele>
  <time>2026-08-28T19:12:19Z</time>
  <course>140.56</course>
  <speed>0.0</speed>
  <fix>3d</fix>
</trkpt>
<trkpt lat="40.0728134" lon="-105.2306147">
  <ele>1596.64</ele>
  <time>2026-08-28T19:12:19Z</time>
  <course>349.86</course>
  <speed>0.01</speed>
  <fix>3d</fix>
</trkpt>
<trkpt lat="40.0728134" lon="-105.2306146">
  <ele>1596.54</ele>
  <time>2026-08-28T19:12:19Z</time>
  <course>149.58</course>
  <speed>0.0</speed>
  <fix>3d</fix>
</trkpt>
<trkpt lat="40.0728134" lon="-105.2306147">
  <ele>1596.64</ele>
  <time>2026-08-28T19:12:19Z</time>
  <course>349.85</course>
  <speed>0.01</speed>
  <fix>3d</fix>
</trkpt>
<trkpt lat="40.0728134" lon="-105.2306146">
  <ele>1596.54</ele>
  <time>2026-08-28T19:12:19Z</time>
  <course>149.94</course>
  <speed>0.0</speed>
  <fix>3d</fix>
</trkpt>
<trkpt lat="40.0728134" lon="-105.2306147">
  <ele>1596.65</ele>
  <time>2026-08-28T19:12:19Z</time>
  <course>349.85</course>
  <speed>0.01</speed>
  <fix>3d</fix>
</trkpt>
<trkpt lat="40.0728134" lon="-105.2306146">
  <ele>1596.54</ele>
  <time>2026-08-28T19:12:19Z</time>
  <course>149.69</course>
  <speed>0.0</speed>
  <fix>3d</fix>
</trkpt>
<trkpt lat="40.0728134" lon="-105.2306147">
  <ele>1596.65</ele>
  <time>2026-08-28T19:12:19Z</time>
  <course>349.85</course>
  <speed>0.01</speed>
  <fix>3d</fix>
</trkpt>
<trkpt lat="40.0728134" lon="-105.2306146">
  <ele>1596.54</ele>
  <time>2026-08-28T19:12:19Z</time>
  <course>148.65</course>
  <speed>0.0</speed>
  <fix>3d</fix>
</trkpt>
<trkpt lat="40.0728134" lon="-105.2306147">
  <ele>1596.65</ele>
  <time>2026-08-28T19:12:19Z</time>
  <course>349.84</course>
  <speed>0.01</speed>
  <fix>3d</fix>
</trkpt>
<trkpt lat="40.0728134" lon="-105.2306146">
  <ele>1596.54</ele>
  <time>2026-08-28T19:12:19Z</time>
  <course>146.9</course>
  <speed>0.0</speed>
  <fix>3d</fix>
</trkpt>
<trkpt lat="40.0728134" lon="-105.2306147">
  <ele>1596.65</ele>
  <time>2026-08-28T19:12:19Z</time>
  <course>349.84</course>
  <speed>0.01</speed>
  <fix>3d</fix>
</trkpt>
<trkpt lat="40.0728134" lon="-105.2306146">
  <ele>1596.54</ele>
  <time>2026-08-28T19:12:19Z</time>
  <course>143.87</course>
  <speed>0.0</speed>
  <fix>3d</fix>
</trkpt>
<trkpt lat="40.0728134" lon="-105.2306147">
  <ele>1596.66</ele>
  <time>2026-08-28T19:12:19Z</time>
  <course>349.84</course>
  <speed>0.01</speed>
  <fix>3d</fix>
</trkpt>
<trkpt lat="40.0728134" lon="-105.2306146">
  <ele>1596.54</ele>
  <time>2026-08-28T19:12:19Z</time>
  <course>140.59</course>
  <speed>0.0</speed>
  <fix>3d</fix>
</trkpt>
<trkpt lat="40.0728134" lon="-105.2306147">
  <ele>1596.66</ele>
  <time>2026-08-28T19:12:19Z</time>
  <course>349.85</course>
  <speed>0.01</speed>
  <fix>3d</fix>
</trkpt>
<trkpt lat="40.0728134" lon="-105.2306146">
  <ele>1596.55</ele>
  <time>2026-08-28T19:12:19Z</time>
  <course>138.95</course>
  <speed>0.0</speed>
  <fix>3d</fix>
</trkpt>
<trkpt lat="40.0728134" lon="-105.2306147">
  <ele>1596.65</ele>
  <time>2026-08-28T19:12:19Z</time>
  <course>349.86</course>
  <speed>0.01</speed>
  <fix>3d</fix>
</trkpt>
<trkpt lat="40.0728134" lon="-105.2306146">
  <ele>1596.55</ele>
  <time>2026-08-28T19:12:19Z</time>
  <course>137.99</course>
  <speed>0.0</speed>
  <fix>3d</fix>
</trkpt>
<trkpt lat="40.0728134" lon="-105.2306147">
  <ele>1596.65</ele>
  <time>2026-08-28T19:12:19Z</time>
  <course>349.87</course>
  <speed>0.01</speed>
  <fix>3d</fix>
</trkpt>
<trkpt lat="40.0728134" lon="-105.2306146">
  <ele>1596.55</ele>
  <time>2026-08-28T19:12:19Z</time>
  <course>139.07</course>
  <speed>0.0</speed>
  <fix>3d</fix>
</trkpt>
<trkpt lat="40.0728134" lon="-105.2306147">
  <ele>1596.64</ele>
  <time>2026-08-28T19:12:19Z</time>
  <course>349.87</course>
  <speed>0.01</speed>
  <fix>3d</fix>
</trkpt>
<trkpt lat="40.0728134" lon="-105.2306146">
  <ele>1596.55</ele>
  <time>2026-08-28T19:12:19Z</time>
  <course>143.75</course>
  <speed>0.0</speed>
  <fix>3d</fix>
</trkpt>
<trkpt lat="40.0728134" lon="-105.2306147">
  <ele>1596.64</ele>
  <time>2026-08-28T19:12:19Z</time>
  <course>349.86</course>
  <speed>0.01</speed>
  <fix>3d</fix>
</trkpt>
<trkpt lat="40.0728134" lon="-105.2306146">
  <ele>1596.55</ele>
  <time>2026-08-28T19:12:19Z</time>
  <course>149.92</course>
  <speed>0.0</speed>
  <fix>3d</fix>
</trkpt>
<trkpt lat="40.0728134" lon="-105.2306147">
  <ele>1596.64</ele>
  <time>2026-08-28T19:12:19Z</time>
  <course>349.86</course>
  <speed>0.01</speed>
  <fix>3d</fix>
</trkpt>
<trkpt lat="40.0728134" lon="-105.2306146">
  <ele>1596.55</ele>
  <time>2026-08-28T19:12:19Z</time>
  <course>155.77</course>
  <speed>0.0</speed>
  <fix>3d</fix>
</trkpt>
<trkpt lat="40.0728134" lon="-105.2306147">
  <ele>1596.64</ele>
  <time>2026-08-28T19:12:19Z</time>
  <course>349.85</course>
  <speed>0.01</speed>
  <fix>3d</fix>
</trkpt>
<trkpt lat="40.0728134" lon="-105.2306146">
  <ele>1596.55</ele>
  <time>2026-08-28T19:12:19Z</time>
  <course>157.99</course>
  <speed>0.0</speed>
  <fix>3d</fix>
</trkpt>
<trkpt lat="40.0728134" lon="-105.2306147">
  <ele>1596.65</ele>
  <time>2026-08-28T19:12:19Z</time>
  <course>349.84</course>
  <speed>0.01</speed>
  <fix>3d</fix>
</trkpt>
<trkpt lat="40.0728134" lon="-105.2306146">
  <ele>1596.55</ele>
  <time>2026-08-28T19:12:19Z</time>
  <course>160.29</course>
  <speed>0.0</speed>
  <fix>3d</fix>
</trkpt>
<trkpt lat="40.0728134" lon="-105.2306147">
  <ele>1596.65</ele>
  <time>2026-08-28T19:12:19Z</time>
  <course>349.85</course>
  <speed>0.01</speed>
  <fix>3d</fix>
</trkpt>
<trkpt lat="40.0728134" lon="-105.2306146">
  <ele>1596.55</ele>
  <time>2026-08-28T19:12:19Z</time>
  <course>162.39</course>
  <speed>0.0</speed>
  <fix>3d</fix>
</trkpt>
<trkpt lat="40.0728134" lon="-105.2306147">
  <ele>1596.65</ele>
  <time>2026-08-28T19:12:19Z</time>
  <course>349.85</course>
  <speed>0.01</speed>
  <fix>3d</fix>
</trkpt>
<trkpt lat="40.0728134" lon="-105.2306146">
  <ele>1596.55</ele>
  <time>2026-08-28T19:12:19Z</time>
  <course>162.37</course>
  <speed>0.0</speed>
  <fix>3d</fix>
</trkpt>
<trkpt lat="40.0728134" lon="-105.2306147">
  <ele>1596.65</ele>
  <time>2026-08-28T19:12:19Z</time>
  <course>349.85</course>
  <speed>0.01</speed>
  <fix>3d</fix>
</trkpt>
<trkpt lat="40.0728134" lon="-105.2306146">
  <ele>1596.55</ele>
  <time>2026-08-28T19:12:19Z</time>
  <course>162.32</course>
  <speed>0.0</speed>
  <fix>3d</fix>
</trkpt>
<trkpt lat="40.0728134" lon="-105.2306147">
  <ele>1596.65</ele>
  <time>2026-08-28T19:12:19Z</time>
  <course>349.85</course>
  <speed>0.01</speed>
  <fix>3d</fix>
</trkpt>
<trkpt lat="40.0728133" lon="-105.2306146">
  <ele>1596.55</ele>
  <time>2026-08-28T19:12:19Z</time>
  <course>161.85</course>
  <speed>0.0</speed>
  <fix>3d</fix>
</trkpt>
<trkpt lat="40.0728134" lon="-105.2306147">
  <ele>1596.65</ele>
  <time>2026-08-28T19:12:19Z</time>
  <course>349.85</course>
  <speed>0.01</speed>
  <fix>3d</fix>
</trkpt>
<trkpt lat="40.0728133" lon="-105.2306146">
  <ele>1596.55</ele>
  <time>2026-08-28T19:12:19Z</time>
  <course>160.59</course>
  <speed>0.0</speed>
  <fix>3d</fix>
</trkpt>
<trkpt lat="40.0728134" lon="-105.2306147">
  <ele>1596.66</ele>
  <time>2026-08-28T19:12:19Z</time>
  <course>349.85</course>
  <speed>0.01</speed>
  <fix>3d</fix>
</trkpt>
<trkpt lat="40.0728133" lon="-105.2306146">
  <ele>1596.55</ele>
  <time>2026-08-28T19:12:19Z</time>
  <course>157.87</course>
  <speed>0.0</speed>
  <fix>3d</fix>
</trkpt>
<trkpt lat="40.0728134" lon="-105.2306147">
  <ele>1596.66</ele>
  <time>2026-08-28T19:12:19Z</time>
  <course>349.85</course>
  <speed>0.01414213562373095</speed>
  <fix>3d</fix>
</trkpt>
<trkpt lat="40.0728133" lon="-105.2306146">
  <ele>1596.56</ele>
  <time>2026-08-28T19:12:19Z</time>
  <course>153.71</course>
  <speed>0.0</speed>
  <fix>3d</fix>
</trkpt>
<trkpt lat="40.0728134" lon="-105.2306147">
  <ele>1596.66</ele>
  <time>2026-08-28T19:12:19Z</time>
  <course>349.86</course>
  <speed>0.01414213562373095</speed>
  <fix>3d</fix>
</trkpt>
<trkpt lat="40.0728133" lon="-105.2306146">
  <ele>1596.56</ele>
  <time>2026-08-28T19:12:19Z</time>
  <course>148.78</course>
  <speed>0.0</speed>
  <fix>3d</fix>
</trkpt>
<trkpt lat="40.0728134" lon="-105.2306147">
  <ele>1596.66</ele>
  <time>2026-08-28T19:12:19Z</time>
  <course>349.88</course>
  <speed>0.01414213562373095</speed>
  <fix>3d</fix>
</trkpt>
<trkpt lat="40.0728133" lon="-105.2306146">
  <ele>1596.56</ele>
  <time>2026-08-28T19:12:19Z</time>
  <course>141.81</course>
  <speed>0.0</speed>
  <fix>3d</fix>
</trkpt>
<trkpt lat="40.0728134" lon="-105.2306147">
  <ele>1596.66</ele>
  <time>2026-08-28T19:12:19Z</time>
  <course>349.89</course>
  <speed>0.01414213562373095</speed>
  <fix>3d</fix>
</trkpt>
<trkpt lat="40.0728133" lon="-105.2306146">
  <ele>1596.55</ele>
  <time>2026-08-28T19:12:19Z</time>
  <course>130.75</course>
  <speed>0.0</speed>
  <fix>3d</fix>
</trkpt>
<trkpt lat="40.0728134" lon="-105.2306147">
  <ele>1596.66</ele>
  <time>2026-08-28T19:12:19Z</time>
  <course>349.89</course>
  <speed>0.01414213562373095</speed>
  <fix>3d</fix>
</trkpt>
<trkpt lat="40.0728133" lon="-105.2306146">
  <ele>1596.55</ele>
  <time>2026-08-28T19:12:19Z</time>
  <course>115.55</course>
  <speed>0.0</speed>
  <fix>3d</fix>
</trkpt>
<trkpt lat="40.0728134" lon="-105.2306147">
  <ele>1596.66</ele>
  <time>2026-08-28T19:12:19Z</time>
  <course>349.91</course>
  <speed>0.01414213562373095</speed>
  <fix>3d</fix>
</trkpt>
<trkpt lat="40.0728133" lon="-105.2306145">
  <ele>1596.55</ele>
  <time>2026-08-28T19:12:19Z</time>
  <course>98.19</course>
  <speed>0.0</speed>
  <fix>3d</fix>
</trkpt>
<trkpt lat="40.0728134" lon="-105.2306147">
  <ele>1596.66</ele>
  <time>2026-08-28T19:12:19Z</time>
  <course>349.92</course>
  <speed>0.01414213562373095</speed>
  <fix>3d</fix>
</trkpt>
<trkpt lat="40.0728133" lon="-105.2306145">
  <ele>1596.55</ele>
  <time>2026-08-28T19:12:19Z</time>
  <course>81.57</course>
  <speed>0.0</speed>
  <fix>3d</fix>
</trkpt>
<trkpt lat="40.0728134" lon="-105.2306147">
  <ele>1596.65</ele>
  <time>2026-08-28T19:12:19Z</time>
  <course>349.91</course>
  <speed>0.01414213562373095</speed>
  <fix>3d</fix>
</trkpt>
<trkpt lat="40.0728133" lon="-105.2306145">
  <ele>1596.55</ele>
  <time>2026-08-28T19:12:19Z</time>
  <course>69.48</course>
  <speed>0.0</speed>
  <fix>3d</fix>
</trkpt>
<trkpt lat="40.0728134" lon="-105.2306147">
  <ele>1596.65</ele>
  <time>2026-08-28T19:12:19Z</time>
  <course>349.9</course>
  <speed>0.01414213562373095</speed>
  <fix>3d</fix>
</trkpt>
<trkpt lat="40.0728133" lon="-105.2306145">
  <ele>1596.54</ele>
  <time>2026-08-28T19:12:19Z</time>
  <course>60.13</course>
  <speed>0.0</speed>
  <fix>3d</fix>
</trkpt>
<trkpt lat="40.0728134" lon="-105.2306147">
  <ele>1596.64</ele>
  <time>2026-08-28T19:12:19Z</time>
  <course>349.89</course>
  <speed>0.01414213562373095</speed>
  <fix>3d</fix>
</trkpt>
<trkpt lat="40.0728133" lon="-105.2306145">
  <ele>1596.54</ele>
  <time>2026-08-28T19:12:19Z</time>
  <course>51.08</course>
  <speed>0.0</speed>
  <fix>3d</fix>
</trkpt>
<trkpt lat="40.0728134" lon="-105.2306147">
  <ele>1596.64</ele>
  <time>2026-08-28T19:12:19Z</time>
  <course>349.89</course>
  <speed>0.01414213562373095</speed>
  <fix>3d</fix>
</trkpt>
<trkpt lat="40.0728133" lon="-105.2306145">
  <ele>1596.54</ele>
  <time>2026-08-28T19:12:19Z</time>
  <course>41.17</course>
  <speed>0.0</speed>
  <fix>3d</fix>
</trkpt>
<trkpt lat="40.0728134" lon="-105.2306147">
  <ele>1596.64</ele>
  <time>2026-08-28T19:12:19Z</time>
  <course>349.86</course>
  <speed>0.01414213562373095</speed>
  <fix>3d</fix>
</trkpt>
<trkpt lat="40.0728133" lon="-105.2306145">
  <ele>1596.54</ele>
  <time>2026-08-28T19:12:19Z</time>
  <course>31.14</course>
  <speed>0.0</speed>
  <fix>3d</fix>
</trkpt>
<trkpt lat="40.0728134" lon="-105.2306147">
  <ele>1596.64</ele>
  <time>2026-08-28T19:12:19Z</time>
  <course>349.83</course>
  <speed>0.01414213562373095</speed>
  <fix>3d</fix>
</trkpt>
<trkpt lat="40.0728133" lon="-105.2306145">
  <ele>1596.54</ele>
  <time>2026-08-28T19:12:19Z</time>
  <course>18.64</course>
  <speed>0.0</speed>
  <fix>3d</fix>
</trkpt>
<trkpt lat="40.0728134" lon="-105.2306147">
  <ele>1596.64</ele>
  <time>2026-08-28T19:12:19Z</time>
  <course>349.81</course>
  <speed>0.01414213562373095</speed>
  <fix>3d</fix>
</trkpt>
<trkpt lat="40.0728133" lon="-105.2306145">
  <ele>1596.54</ele>
  <time>2026-08-28T19:12:19Z</time>
  <course>0.84</course>
  <speed>0.0</speed>
  <fix>3d</fix>
</trkpt>
<trkpt lat="40.0728134" lon="-105.2306147">
  <ele>1596.64</ele>
  <time>2026-08-28T19:12:19Z</time>
  <course>349.79</course>
  <speed>0.01414213562373095</speed>
  <fix>3d</fix>
</trkpt>
<trkpt lat="40.0728133" lon="-105.2306145">
  <ele>1596.55</ele>
  <time>2026-08-28T19:12:19Z</time>
  <course>343.75</course>
  <speed>0.0</speed>
  <fix>3d</fix>
</trkpt>
<trkpt lat="40.0728134" lon="-105.2306147">
  <ele>1596.64</ele>
  <time>2026-08-28T19:12:19Z</time>
  <course>349.79</course>
  <speed>0.022360679774997897</speed>
  <fix>3d</fix>
</trkpt>
<trkpt lat="40.0728133" lon="-105.2306145">
  <ele>1596.55</ele>
  <time>2026-08-28T19:12:19Z</time>
  <course>333.61</course>
  <speed>0.0</speed>
  <fix>3d</fix>
</trkpt>
<trkpt lat="40.0728134" lon="-105.2306147">
  <ele>1596.65</ele>
  <time>2026-08-28T19:12:19Z</time>
  <course>349.79</course>
  <speed>0.022360679774997897</speed>
  <fix>3d</fix>
</trkpt>
<trkpt lat="40.0728133" lon="-105.2306145">
  <ele>1596.55</ele>
  <time>2026-08-28T19:12:19Z</time>
  <course>321.58</course>
  <speed>0.0</speed>
  <fix>3d</fix>
</trkpt>
<trkpt lat="40.0728134" lon="-105.2306147">
  <ele>1596.65</ele>
  <time>2026-08-28T19:12:19Z</time>
  <course>349.79</course>
  <speed>0.022360679774997897</speed>
  <fix>3d</fix>
</trkpt>
<trkpt lat="40.0728133" lon="-105.2306145">
  <ele>1596.56</ele>
  <time>2026-08-28T19:12:19Z</time>
  <course>310.56</course>
  <speed>0.0</speed>
  <fix>3d</fix>
</trkpt>
<trkpt lat="40.0728134" lon="-105.2306147">
  <ele>1596.65</ele>
  <time>2026-08-28T19:12:19Z</time>
  <course>349.79</course>
  <speed>0.022360679774997897</speed>
  <fix>3d</fix>
</trkpt>
<trkpt lat="40.0728133" lon="-105.2306145">
  <ele>1596.56</ele>
  <time>2026-08-28T19:12:19Z</time>
  <course>308.6</course>
  <speed>0.0</speed>
  <fix>3d</fix>
</trkpt>
<trkpt lat="40.0728134" lon="-105.2306147">
  <ele>1596.65</ele>
  <time>2026-08-28T19:12:19Z</time>
  <course>349.8</course>
  <speed>0.022360679774997897</speed>
  <fix>3d</fix>
</trkpt>
<trkpt lat="40.0728133" lon="-105.2306145">
  <ele>1596.56</ele>
  <time>2026-08-28T19:12:19Z</time>
  <course>307.46</course>
  <speed>0.0</speed>
  <fix>3d</fix>
</trkpt>
<trkpt lat="40.0728134" lon="-105.2306147">
  <ele>1596.66</ele>
  <time>2026-08-28T19:12:19Z</time>
  <course>349.81</course>
  <speed>0.022360679774997897</speed>
  <fix>3d</fix>
</trkpt>
<trkpt lat="40.0728133" lon="-105.2306145">
  <ele>1596.56</ele>
  <time>2026-08-28T19:12:19Z</time>
  <course>305.07</course>
  <speed>0.0</speed>
  <fix>3d</fix>
</trkpt>
<trkpt lat="40.0728134" lon="-105.2306147">
  <ele>1596.66</ele>
  <time>2026-08-28T19:12:19Z</time>
  <course>349.82</course>
  <speed>0.022360679774997897</speed>
  <fix>3d</fix>
</trkpt>
<trkpt lat="40.0728133" lon="-105.2306145">
  <ele>1596.56</ele>
  <time>2026-08-28T19:12:19Z</time>
  <course>303.65</course>
  <speed>0.0</speed>
  <fix>3d</fix>
</trkpt>
<trkpt lat="40.0728134" lon="-105.2306147">
  <ele>1596.66</ele>
  <time>2026-08-28T19:12:19Z</time>
  <course>349.84</course>
  <speed>0.022360679774997897</speed>
  <fix>3d</fix>
</trkpt>
<trkpt lat="40.0728133" lon="-105.2306145">
  <ele>1596.56</ele>
  <time>2026-08-28T19:12:19Z</time>
  <course>305.01</course>
  <speed>0.0</speed>
  <fix>3d</fix>
</trkpt>
<trkpt lat="40.0728134" lon="-105.2306147">
  <ele>1596.66</ele>
  <time>2026-08-28T19:12:19Z</time>
  <course>349.85</course>
  <speed>0.022360679774997897</speed>
  <fix>3d</fix>
</trkpt>
<trkpt lat="40.0728133" lon="-105.2306145">
  <ele>1596.56</ele>
  <time>2026-08-28T19:12:19Z</time>
  <course>315.53</course>
  <speed>0.0</speed>
  <fix>3d</fix>
</trkpt>
<trkpt lat="40.0728134" lon="-105.2306147">
  <ele>1596.66</ele>
  <time>2026-08-28T19:12:19Z</time>
  <course>349.87</course>
  <speed>0.022360679774997897</speed>
  <fix>3d</fix>
</trkpt>
<trkpt lat="40.0728133" lon="-105.2306145">
  <ele>1596.56</ele>
  <time>2026-08-28T19:12:19Z</time>
  <course>325.77</course>
  <speed>0.0</speed>
  <fix>3d</fix>
</trkpt>
<trkpt lat="40.0728134" lon="-105.2306147">
  <ele>1596.66</ele>
  <time>2026-08-28T19:12:19Z</time>
  <course>349.88</course>
  <speed>0.022360679774997897</speed>
  <fix>3d</fix>
</trkpt>
<trkpt lat="40.0728133" lon="-105.2306145">
  <ele>1596.56</ele>
  <time>2026-08-28T19:12:19Z</time>
  <course>329.15</course>
  <speed>0.0</speed>
  <fix>3d</fix>
</trkpt>
<trkpt lat="40.0728134" lon="-105.2306147">
  <ele>1596.66</ele>
  <time>2026-08-28T19:12:19Z</time>
  <course>349.88</course>
  <speed>0.022360679774997897</speed>
  <fix>3d</fix>
</trkpt>
<trkpt lat="40.0728133" lon="-105.2306145">
  <ele>1596.56</ele>
  <time>2026-08-28T19:12:19Z</time>
  <course>329.91</course>
  <speed>0.0</speed>
  <fix>3d</fix>
</trkpt>
<trkpt lat="40.0728134" lon="-105.2306147">
  <ele>1596.66</ele>
  <time>2026-08-28T19:12:19Z</time>
  <course>349.88</course>
  <speed>0.022360679774997897</speed>
  <fix>3d</fix>
</trkpt>
<trkpt lat="40.0728133" lon="-105.2306145">
  <ele>1596.55</ele>
  <time>2026-08-28T19:12:19Z</time>
  <course>330.47</course>
  <speed>0.0</speed>
  <fix>3d</fix>
</trkpt>
<trkpt lat="40.0728134" lon="-105.2306147">
  <ele>1596.66</ele>
  <time>2026-08-28T19:12:19Z</time>
  <course>349.89</course>
  <speed>0.01414213562373095</speed>
  <fix>3d</fix>
</trkpt>
<trkpt lat="40.0728133" lon="-105.2306145">
  <ele>1596.55</ele>
  <time>2026-08-28T19:12:19Z</time>
  <course>333.07</course>
  <speed>0.0</speed>
  <fix>3d</fix>
</trkpt>
<trkpt lat="40.0728134" lon="-105.2306147">
  <ele>1596.66</ele>
  <time>2026-08-28T19:12:19Z</time>
  <course>349.89</course>
  <speed>0.01414213562373095</speed>
  <fix>3d</fix>
</trkpt>
<trkpt lat="40.0728133" lon="-105.2306145">
  <ele>1596.55</ele>
  <time>2026-08-28T19:12:19Z</time>
  <course>335.2</course>
  <speed>0.0</speed>
  <fix>3d</fix>
</trkpt>
<trkpt lat="40.0728134" lon="-105.2306147">
  <ele>1596.66</ele>
  <time>2026-08-28T19:12:19Z</time>
  <course>349.89</course>
  <speed>0.01414213562373095</speed>
  <fix>3d</fix>
</trkpt>
<trkpt lat="40.0728133" lon="-105.2306145">
  <ele>1596.55</ele>
  <time>2026-08-28T19:12:19Z</time>
  <course>334.23</course>
  <speed>0.0</speed>
  <fix>3d</fix>
</trkpt>
<trkpt lat="40.0728134" lon="-105.2306147">
  <ele>1596.65</ele>
  <time>2026-08-28T19:12:19Z</time>
  <course>349.9</course>
  <speed>0.01414213562373095</speed>
  <fix>3d</fix>
</trkpt>
<trkpt lat="40.0728133" lon="-105.2306145">
  <ele>1596.55</ele>
  <time>2026-08-28T19:12:19Z</time>
  <course>333.28</course>
  <speed>0.0</speed>
  <fix>3d</fix>
</trkpt>
<trkpt lat="40.0728134" lon="-105.2306147">
  <ele>1596.65</ele>
  <time>2026-08-28T19:12:19Z</time>
  <course>349.88</course>
  <speed>0.01414213562373095</speed>
  <fix>3d</fix>
</trkpt>
<trkpt lat="40.0728133" lon="-105.2306145">
  <ele>1596.54</ele>
  <time>2026-08-28T19:12:19Z</time>
  <course>336.11</course>
  <speed>0.0</speed>
  <fix>3d</fix>
</trkpt>
<trkpt lat="40.0728134" lon="-105.2306147">
  <ele>1596.65</ele>
  <time>2026-08-28T19:12:19Z</time>
  <course>349.86</course>
  <speed>0.01414213562373095</speed>
  <fix>3d</fix>
</trkpt>
<trkpt lat="40.0728133" lon="-105.2306145">
  <ele>1596.54</ele>
  <time>2026-08-28T19:12:19Z</time>
  <course>338.87</course>
  <speed>0.0</speed>
  <fix>3d</fix>
</trkpt>
<trkpt lat="40.0728134" lon="-105.2306147">
  <ele>1596.65</ele>
  <time>2026-08-28T19:12:19Z</time>
  <course>349.84</course>
  <speed>0.01414213562373095</speed>
  <fix>3d</fix>
</trkpt>
<trkpt lat="40.0728133" lon="-105.2306145">
  <ele>1596.54</ele>
  <time>2026-08-28T19:12:19Z</time>
  <course>335.28</course>
  <speed>0.0</speed>
  <fix>3d</fix>
</trkpt>
<trkpt lat="40.0728134" lon="-105.2306147">
  <ele>1596.65</ele>
  <time>2026-08-28T19:12:19Z</time>
  <course>349.83</course>
  <speed>0.01414213562373095</speed>
  <fix>3d</fix>
</trkpt>
<trkpt lat="40.0728133" lon="-105.2306145">
  <ele>1596.54</ele>
  <time>2026-08-28T19:12:19Z</time>
  <course>328.8</course>
  <speed>0.0</speed>
  <fix>3d</fix>
</trkpt>
<trkpt lat="40.0728134" lon="-105.2306147">
  <ele>1596.65</ele>
  <time>2026-08-28T19:12:19Z</time>
  <course>349.82</course>
  <speed>0.01414213562373095</speed>
  <fix>3d</fix>
</trkpt>
<trkpt lat="40.0728133" lon="-105.2306145">
  <ele>1596.54</ele>
  <time>2026-08-28T19:12:19Z</time>
  <course>324.12</course>
  <speed>0.0</speed>
  <fix>3d</fix>
</trkpt>
<trkpt lat="40.0728134" lon="-105.2306147">
  <ele>1596.64</ele>
  <time>2026-08-28T19:12:19Z</time>
  <course>349.81</course>
  <speed>0.01414213562373095</speed>
  <fix>3d</fix>
</trkpt>
<trkpt lat="40.0728133" lon="-105.2306145">
  <ele>1596.54</ele>
  <time>2026-08-28T19:12:19Z</time>
  <course>321.96</course>
  <speed>0.0</speed>
  <fix>3d</fix>
</trkpt>
<trkpt lat="40.0728134" lon="-105.2306147">
  <ele>1596.65</ele>
  <time>2026-08-28T19:12:19Z</time>
  <course>349.81</course>
  <speed>0.01414213562373095</speed>
  <fix>3d</fix>
</trkpt>
<trkpt lat="40.0728134" lon="-105.2306145">
  <ele>1596.54</ele>
  <time>2026-08-28T19:12:19Z</time>
  <course>320.42</course>
  <speed>0.0</speed>
  <fix>3d</fix>
</trkpt>
<trkpt lat="40.0728134" lon="-105.2306147">
  <ele>1596.65</ele>
  <time>2026-08-28T19:12:19Z</time>
  <course>349.8</course>
  <speed>0.01414213562373095</speed>
  <fix>3d</fix>
</trkpt>
<trkpt lat="40.0728134" lon="-105.2306145">
  <ele>1596.54</ele>
  <time>2026-08-28T19:12:19Z</time>
  <course>318.72</course>
  <speed>0.0</speed>
  <fix>3d</fix>
</trkpt>
<trkpt lat="40.0728134" lon="-105.2306147">
  <ele>1596.65</ele>
  <time>2026-08-28T19:12:19Z</time>
  <course>349.8</course>
  <speed>0.022360679774997897</speed>
  <fix>3d</fix>
</trkpt>
<trkpt lat="40.0728134" lon="-105.2306145">
  <ele>1596.54</ele>
  <time>2026-08-28T19:12:19Z</time>
  <course>317.05</course>
  <speed>0.0</speed>
  <fix>3d</fix>
</trkpt>
<trkpt lat="40.0728134" lon="-105.2306147">
  <ele>1596.65</ele>
  <time>2026-08-28T19:12:20Z</time>
  <course>349.8</course>
  <speed>0.022360679774997897</speed>
  <fix>3d</fix>
</trkpt>
<trkpt lat="40.0728134" lon="-105.2306145">
  <ele>1596.54</ele>
  <time>2026-08-28T19:12:20Z</time>
  <course>315.55</course>
  <speed>0.0</speed>
  <fix>3d</fix>
</trkpt>
<trkpt lat="40.0728134" lon="-105.2306147">
  <ele>1596.65</ele>
  <time>2026-08-28T19:12:20Z</time>
  <course>349.81</course>
  <speed>0.022360679774997897</speed>
  <fix>3d</fix>
</trkpt>
<trkpt lat="40.0728134" lon="-105.2306145">
  <ele>1596.54</ele>
  <time>2026-08-28T19:12:20Z</time>
  <course>309.83</course>
  <speed>0.0</speed>
  <fix>3d</fix>
</trkpt>
<trkpt lat="40.0728134" lon="-105.2306147">
  <ele>1596.65</ele>
  <time>2026-08-28T19:12:20Z</time>
  <course>349.81</course>
  <speed>0.022360679774997897</speed>
  <fix>3d</fix>
</trkpt>
<trkpt lat="40.0728134" lon="-105.2306145">
  <ele>1596.54</ele>
  <time>2026-08-28T19:12:20Z</time>
  <course>288.67</course>
  <speed>0.0</speed>
  <fix>3d</fix>
</trkpt>
<trkpt lat="40.0728134" lon="-105.2306147">
  <ele>1596.65</ele>
  <time>2026-08-28T19:12:20Z</time>
  <course>349.8</course>
  <speed>0.01414213562373095</speed>
  <fix>3d</fix>
</trkpt>
<trkpt lat="40.0728134" lon="-105.2306145">
  <ele>1596.54</ele>
  <time>2026-08-28T19:12:20Z</time>
  <course>252.43</course>
  <speed>0.0</speed>
  <fix>3d</fix>
</trkpt>
<trkpt lat="40.0728134" lon="-105.2306147">
  <ele>1596.65</ele>
  <time>2026-08-28T19:12:20Z</time>
  <course>349.8</course>
  <speed>0.01</speed>
  <fix>3d</fix>
</trkpt>
<trkpt lat="40.0728134" lon="-105.2306145">
  <ele>1596.54</ele>
  <time>2026-08-28T19:12:20Z</time>
  <course>216.4</course>
  <speed>0.0</speed>
  <fix>3d</fix>
</trkpt>
<trkpt lat="40.0728134" lon="-105.2306147">
  <ele>1596.66</ele>
  <time>2026-08-28T19:12:20Z</time>
  <course>349.8</course>
  <speed>0.01</speed>
  <fix>3d</fix>
</trkpt>
<trkpt lat="40.0728134" lon="-105.2306145">
  <ele>1596.54</ele>
  <time>2026-08-28T19:12:20Z</time>
  <course>197.46</course>
  <speed>0.0</speed>
  <fix>3d</fix>
</trkpt>
<trkpt lat="40.0728134" lon="-105.2306147">
  <ele>1596.66</ele>
  <time>2026-08-28T19:12:20Z</time>
  <course>349.81</course>
  <speed>0.01</speed>
  <fix>3d</fix>
</trkpt>
<trkpt lat="40.0728134" lon="-105.2306145">
  <ele>1596.54</ele>
  <time>2026-08-28T19:12:20Z</time>
  <course>193.02</course>
  <speed>0.0</speed>
  <fix>3d</fix>
</trkpt>
<trkpt lat="40.0728134" lon="-105.2306147">
  <ele>1596.66</ele>
  <time>2026-08-28T19:12:20Z</time>
  <course>349.82</course>
  <speed>0.01</speed>
  <fix>3d</fix>
</trkpt>
<trkpt lat="40.0728134" lon="-105.2306145">
  <ele>1596.54</ele>
  <time>2026-08-28T19:12:20Z</time>
  <course>191.76</course>
  <speed>0.0</speed>
  <fix>3d</fix>
</trkpt>
<trkpt lat="40.0728134" lon="-105.2306147">
  <ele>1596.65</ele>
  <time>2026-08-28T19:12:20Z</time>
  <course>349.82</course>
  <speed>0.01</speed>
  <fix>3d</fix>
</trkpt>
<trkpt lat="40.0728134" lon="-105.2306146">
  <ele>1596.54</ele>
  <time>2026-08-28T19:12:20Z</time>
  <course>188.6</course>
  <speed>0.0</speed>
  <fix>3d</fix>
</trkpt>
<trkpt lat="40.0728134" lon="-105.2306147">
  <ele>1596.64</ele>
  <time>2026-08-28T19:12:20Z</time>
  <course>349.82</course>
  <speed>0.01</speed>
  <fix>3d</fix>
</trkpt>
<trkpt lat="40.0728134" lon="-105.2306146">
  <ele>1596.54</ele>
  <time>2026-08-28T19:12:20Z</time>
  <course>186.91</course>
  <speed>0.0</speed>
  <fix>3d</fix>
</trkpt>
<trkpt lat="40.0728134" lon="-105.2306147">
  <ele>1596.64</ele>
  <time>2026-08-28T19:12:20Z</time>
  <course>349.81</course>
  <speed>0.02</speed>
  <fix>3d</fix>
</trkpt>
<trkpt lat="40.0728134" lon="-105.2306146">
  <ele>1596.54</ele>
  <time>2026-08-28T19:12:20Z</time>
  <course>187.26</course>
  <speed>0.0</speed>
  <fix>3d</fix>
</trkpt>
<trkpt lat="40.0728134" lon="-105.2306147">
  <ele>1596.65</ele>
  <time>2026-08-28T19:12:20Z</time>
  <course>349.8</course>
  <speed>0.02</speed>
  <fix>3d</fix>
</trkpt>
<trkpt lat="40.0728134" lon="-105.2306146">
  <ele>1596.54</ele>
  <time>2026-08-28T19:12:20Z</time>
  <course>187.64</course>
  <speed>0.0</speed>
  <fix>3d</fix>
</trkpt>
<trkpt lat="40.0728134" lon="-105.2306147">
  <ele>1596.65</ele>
  <time>2026-08-28T19:12:20Z</time>
  <course>349.8</course>
  <speed>0.02</speed>
  <fix>3d</fix>
</trkpt>
<trkpt lat="40.0728134" lon="-105.2306146">
  <ele>1596.54</ele>
  <time>2026-08-28T19:12:20Z</time>
  <course>188.83</course>
  <speed>0.0</speed>
  <fix>3d</fix>
</trkpt>
<trkpt lat="40.0728134" lon="-105.2306147">
  <ele>1596.65</ele>
  <time>2026-08-28T19:12:20Z</time>
  <course>349.81</course>
  <speed>0.02</speed>
  <fix>3d</fix>
</trkpt>
<trkpt lat="40.0728134" lon="-105.2306146">
  <ele>1596.54</ele>
  <time>2026-08-28T19:12:20Z</time>
  <course>190.38</course>
  <speed>0.0</speed>
  <fix>3d</fix>
</trkpt>
<trkpt lat="40.0728134" lon="-105.2306147">
  <ele>1596.65</ele>
  <time>2026-08-28T19:12:20Z</time>
  <course>349.81</course>
  <speed>0.02</speed>
  <fix>3d</fix>
</trkpt>
<trkpt lat="40.0728134" lon="-105.2306146">
  <ele>1596.54</ele>
  <time>2026-08-28T19:12:20Z</time>
  <course>191.39</course>
  <speed>0.0</speed>
  <fix>3d</fix>
</trkpt>
<trkpt lat="40.0728134" lon="-105.2306147">
  <ele>1596.65</ele>
  <time>2026-08-28T19:12:20Z</time>
  <course>349.81</course>
  <speed>0.02</speed>
  <fix>3d</fix>
</trkpt>
<trkpt lat="40.0728134" lon="-105.2306146">
  <ele>1596.54</ele>
  <time>2026-08-28T19:12:20Z</time>
  <course>189.82</course>
  <speed>0.0</speed>
  <fix>3d</fix>
</trkpt>
<trkpt lat="40.0728134" lon="-105.2306147">
  <ele>1596.65</ele>
  <time>2026-08-28T19:12:20Z</time>
  <course>349.81</course>
  <speed>0.02</speed>
  <fix>3d</fix>
</trkpt>
<trkpt lat="40.0728133" lon="-105.2306146">
  <ele>1596.54</ele>
  <time>2026-08-28T19:12:20Z</time>
  <course>183.29</course>
  <speed>0.0</speed>
  <fix>3d</fix>
</trkpt>
<trkpt lat="40.0728134" lon="-105.2306147">
  <ele>1596.65</ele>
  <time>2026-08-28T19:12:20Z</time>
  <course>349.81</course>
  <speed>0.01</speed>
  <fix>3d</fix>
</trkpt>
<trkpt lat="40.0728133" lon="-105.2306146">
  <ele>1596.54</ele>
  <time>2026-08-28T19:12:20Z</time>
  <course>173.57</course>
  <speed>0.0</speed>
  <fix>3d</fix>
</trkpt>
<trkpt lat="40.0728134" lon="-105.2306147">
  <ele>1596.65</ele>
  <time>2026-08-28T19:12:20Z</time>
  <course>349.81</course>
  <speed>0.01</speed>
  <fix>3d</fix>
</trkpt>
<trkpt lat="40.0728133" lon="-105.2306146">
  <ele>1596.54</ele>
  <time>2026-08-28T19:12:20Z</time>
  <course>162.65</course>
  <speed>0.0</speed>
  <fix>3d</fix>
</trkpt>
<trkpt lat="40.0728134" lon="-105.2306147">
  <ele>1596.65</ele>
  <time>2026-08-28T19:12:20Z</time>
  <course>349.81</course>
  <speed>0.01</speed>
  <fix>3d</fix>
</trkpt>
<trkpt lat="40.0728133" lon="-105.2306146">
  <ele>1596.54</ele>
  <time>2026-08-28T19:12:20Z</time>
  <course>152.22</course>
  <speed>0.0</speed>
  <fix>3d</fix>
</trkpt>
<trkpt lat="40.0728134" lon="-105.2306147">
  <ele>1596.65</ele>
  <time>2026-08-28T19:12:20Z</time>
  <course>349.81</course>
  <speed>0.01414213562373095</speed>
  <fix>3d</fix>
</trkpt>
<trkpt lat="40.0728133" lon="-105.2306146">
  <ele>1596.54</ele>
  <time>2026-08-28T19:12:20Z</time>
  <course>141.64</course>
  <speed>0.0</speed>
  <fix>3d</fix>
</trkpt>
<trkpt lat="40.0728134" lon="-105.2306147">
  <ele>1596.65</ele>
  <time>2026-08-28T19:12:20Z</time>
  <course>349.81</course>
  <speed>0.01414213562373095</speed>
  <fix>3d</fix>
</trkpt>
<trkpt lat="40.0728133" lon="-105.2306146">
  <ele>1596.54</ele>
  <time>2026-08-28T19:12:20Z</time>
  <course>130.26</course>
  <speed>0.0</speed>
  <fix>3d</fix>
</trkpt>
<trkpt lat="40.0728134" lon="-105.2306147">
  <ele>1596.65</ele>
  <time>2026-08-28T19:12:20Z</time>
  <course>349.82</course>
  <speed>0.01414213562373095</speed>
  <fix>3d</fix>
</trkpt>
<trkpt lat="40.0728133" lon="-105.2306146">
  <ele>1596.54</ele>
  <time>2026-08-28T19:12:20Z</time>
  <course>120.38</course>
  <speed>0.0</speed>
  <fix>3d</fix>
</trkpt>
<trkpt lat="40.0728134" lon="-105.2306147">
  <ele>1596.65</ele>
  <time>2026-08-28T19:12:20Z</time>
  <course>349.82</course>
  <speed>0.01414213562373095</speed>
  <fix>3d</fix>
</trkpt>
<trkpt lat="40.0728133" lon="-105.2306146">
  <ele>1596.54</ele>
  <time>2026-08-28T19:12:20Z</time>
  <course>111.9</course>
  <speed>0.0</speed>
  <fix>3d</fix>
</trkpt>
<trkpt lat="40.0728134" lon="-105.2306147">
  <ele>1596.65</ele>
  <time>2026-08-28T19:12:20Z</time>
  <course>349.82</course>
  <speed>0.01414213562373095</speed>
  <fix>3d</fix>
</trkpt>
<trkpt lat="40.0728133" lon="-105.2306146">
  <ele>1596.54</ele>
  <time>2026-08-28T19:12:20Z</time>
  <course>103.02</course>
  <speed>0.0</speed>
  <fix>3d</fix>
</trkpt>
<trkpt lat="40.0728134" lon="-105.2306147">
  <ele>1596.66</ele>
  <time>2026-08-28T19:12:20Z</time>
  <course>349.82</course>
  <speed>0.01414213562373095</speed>
  <fix>3d</fix>
</trkpt>
<trkpt lat="40.0728133" lon="-105.2306146">
  <ele>1596.54</ele>
  <time>2026-08-28T19:12:20Z</time>
  <course>94.48</course>
  <speed>0.0</speed>
  <fix>3d</fix>
</trkpt>
<trkpt lat="40.0728134" lon="-105.2306147">
  <ele>1596.66</ele>
  <time>2026-08-28T19:12:20Z</time>
  <course>349.81</course>
  <speed>0.01414213562373095</speed>
  <fix>3d</fix>
</trkpt>
<trkpt lat="40.0728133" lon="-105.2306146">
  <ele>1596.54</ele>
  <time>2026-08-28T19:12:20Z</time>
  <course>85.61</course>
  <speed>0.0</speed>
  <fix>3d</fix>
</trkpt>
<trkpt lat="40.0728134" lon="-105.2306147">
  <ele>1596.66</ele>
  <time>2026-08-28T19:12:20Z</time>
  <course>349.82</course>
  <speed>0.01414213562373095</speed>
  <fix>3d</fix>
</trkpt>
<trkpt lat="40.0728133" lon="-105.2306145">
  <ele>1596.54</ele>
  <time>2026-08-28T19:12:20Z</time>
  <course>75.28</course>
  <speed>0.0</speed>
  <fix>3d</fix>
</trkpt>
<trkpt lat="40.0728134" lon="-105.2306147">
  <ele>1596.66</ele>
  <time>2026-08-28T19:12:20Z</time>
  <course>349.83</course>
  <speed>0.01414213562373095</speed>
  <fix>3d</fix>
</trkpt>
<trkpt lat="40.0728133" lon="-105.2306145">
  <ele>1596.54</ele>
  <time>2026-08-28T19:12:20Z</time>
  <course>66.3</course>
  <speed>0.0</speed>
  <fix>3d</fix>
</trkpt>
<trkpt lat="40.0728134" lon="-105.2306147">
  <ele>1596.65</ele>
  <time>2026-08-28T19:12:20Z</time>
  <course>349.83</course>
  <speed>0.01414213562373095</speed>
  <fix>3d</fix>
</trkpt>
<trkpt lat="40.0728133" lon="-105.2306145">
  <ele>1596.54</ele>
  <time>2026-08-28T19:12:20Z</time>
  <course>59.79</course>
  <speed>0.0</speed>
  <fix>3d</fix>
</trkpt>
<trkpt lat="40.0728134" lon="-105.2306147">
  <ele>1596.65</ele>
  <time>2026-08-28T19:12:20Z</time>
  <course>349.83</course>
  <speed>0.01414213562373095</speed>
  <fix>3d</fix>
</trkpt>
<trkpt lat="40.0728133" lon="-105.2306145">
  <ele>1596.54</ele>
  <time>2026-08-28T19:12:20Z</time>
  <course>54.61</course>
  <speed>0.0</speed>
  <fix>3d</fix>
</trkpt>
<trkpt lat="40.0728134" lon="-105.2306147">
  <ele>1596.64</ele>
  <time>2026-08-28T19:12:20Z</time>
  <course>349.82</course>
  <speed>0.01414213562373095</speed>
  <fix>3d</fix>
</trkpt>
<trkpt lat="40.0728133" lon="-105.2306145">
  <ele>1596.54</ele>
  <time>2026-08-28T19:12:20Z</time>
  <course>51.33</course>
  <speed>0.0</speed>
  <fix>3d</fix>
</trkpt>
<trkpt lat="40.0728134" lon="-105.2306147">
  <ele>1596.64</ele>
  <time>2026-08-28T19:12:20Z</time>
  <course>349.8</course>
  <speed>0.01414213562373095</speed>
  <fix>3d</fix>
</trkpt>
<trkpt lat="40.0728133" lon="-105.2306145">
  <ele>1596.53</ele>
  <time>2026-08-28T19:12:20Z</time>
  <course>48.57</course>
  <speed>0.0</speed>
  <fix>3d</fix>
</trkpt>
<trkpt lat="40.0728134" lon="-105.2306147">
  <ele>1596.63</ele>
  <time>2026-08-28T19:12:20Z</time>
  <course>349.76</course>
  <speed>0.022360679774997897</speed>
  <fix>3d</fix>
</trkpt>
<trkpt lat="40.0728133" lon="-105.2306145">
  <ele>1596.53</ele>
  <time>2026-08-28T19:12:20Z</time>
  <course>43.89</course>
  <speed>0.0</speed>
  <fix>3d</fix>
</trkpt>
<trkpt lat="40.0728134" lon="-105.2306147">
  <ele>1596.63</ele>
  <time>2026-08-28T19:12:20Z</time>
  <course>349.73</course>
  <speed>0.022360679774997897</speed>
  <fix>3d</fix>
</trkpt>
<trkpt lat="40.0728133" lon="-105.2306145">
  <ele>1596.54</ele>
  <time>2026-08-28T19:12:20Z</time>
  <course>36.68</course>
  <speed>0.0</speed>
  <fix>3d</fix>
</trkpt>
<trkpt lat="40.0728134" lon="-105.2306147">
  <ele>1596.63</ele>
  <time>2026-08-28T19:12:20Z</time>
  <course>349.69</course>
  <speed>0.022360679774997897</speed>
  <fix>3d</fix>
</trkpt>
<trkpt lat="40.0728133" lon="-105.2306145">
  <ele>1596.54</ele>
  <time>2026-08-28T19:12:20Z</time>
  <course>29.72</course>
  <speed>0.0</speed>
  <fix>3d</fix>
</trkpt>
<trkpt lat="40.0728134" lon="-105.2306147">
  <ele>1596.63</ele>
  <time>2026-08-28T19:12:20Z</time>
  <course>349.66</course>
  <speed>0.022360679774997897</speed>
  <fix>3d</fix>
</trkpt>
<trkpt lat="40.0728133" lon="-105.2306145">
  <ele>1596.54</ele>
  <time>2026-08-28T19:12:20Z</time>
  <course>21.71</course>
  <speed>0.0</speed>
  <fix>3d</fix>
</trkpt>
<trkpt lat="40.0728134" lon="-105.2306147">
  <ele>1596.64</ele>
  <time>2026-08-28T19:12:20Z</time>
  <course>349.67</course>
  <speed>0.022360679774997897</speed>
  <fix>3d</fix>
</trkpt>
<trkpt lat="40.0728133" lon="-105.2306145">
  <ele>1596.55</ele>
  <time>2026-08-28T19:12:20Z</time>
  <course>4.45</course>
  <speed>0.0</speed>
  <fix>3d</fix>
</trkpt>
<trkpt lat="40.0728134" lon="-105.2306147">
  <ele>1596.65</ele>
  <time>2026-08-28T19:12:20Z</time>
  <course>349.68</course>
  <speed>0.022360679774997897</speed>
  <fix>3d</fix>
</trkpt>
<trkpt lat="40.0728133" lon="-105.2306145">
  <ele>1596.55</ele>
  <time>2026-08-28T19:12:20Z</time>
  <course>339.66</course>
  <speed>0.0</speed>
  <fix>3d</fix>
</trkpt>
<trkpt lat="40.0728134" lon="-105.2306147">
  <ele>1596.65</ele>
  <time>2026-08-28T19:12:20Z</time>
  <course>349.69</course>
  <speed>0.022360679774997897</speed>
  <fix>3d</fix>
</trkpt>
<trkpt lat="40.0728133" lon="-105.2306145">
  <ele>1596.56</ele>
  <time>2026-08-28T19:12:20Z</time>
  <course>326.14</course>
  <speed>0.0</speed>
  <fix>3d</fix>
</trkpt>
<trkpt lat="40.0728134" lon="-105.2306147">
  <ele>1596.66</ele>
  <time>2026-08-28T19:12:20Z</time>
  <course>349.7</course>
  <speed>0.022360679774997897</speed>
  <fix>3d</fix>
</trkpt>
<trkpt lat="40.0728133" lon="-105.2306145">
  <ele>1596.56</ele>
  <time>2026-08-28T19:12:20Z</time>
  <course>325.56</course>
  <speed>0.0</speed>
  <fix>3d</fix>
</trkpt>
<trkpt lat="40.0728134" lon="-105.2306147">
  <ele>1596.66</ele>
  <time>2026-08-28T19:12:20Z</time>
  <course>349.72</course>
  <speed>0.022360679774997897</speed>
  <fix>3d</fix>
</trkpt>
<trkpt lat="40.0728133" lon="-105.2306145">
  <ele>1596.56</ele>
  <time>2026-08-28T19:12:20Z</time>
  <course>327.38</course>
  <speed>0.0</speed>
  <fix>3d</fix>
</trkpt>
<trkpt lat="40.0728134" lon="-105.2306147">
  <ele>1596.66</ele>
  <time>2026-08-28T19:12:20Z</time>
  <course>349.75</course>
  <speed>0.022360679774997897</speed>
  <fix>3d</fix>
</trkpt>
<trkpt lat="40.0728133" lon="-105.2306145">
  <ele>1596.56</ele>
  <time>2026-08-28T19:12:20Z</time>
  <course>337.03</course>
  <speed>0.0</speed>
  <fix>3d</fix>
</trkpt>
<trkpt lat="40.0728134" lon="-105.2306147">
  <ele>1596.66</ele>
  <time>2026-08-28T19:12:20Z</time>
  <course>349.77</course>
  <speed>0.022360679774997897</speed>
  <fix>3d</fix>
</trkpt>
<trkpt lat="40.0728133" lon="-105.2306145">
  <ele>1596.56</ele>
  <time>2026-08-28T19:12:20Z</time>
  <course>349.83</course>
  <speed>0.0</speed>
  <fix>3d</fix>
</trkpt>
<trkpt lat="40.0728134" lon="-105.2306147">
  <ele>1596.66</ele>
  <time>2026-08-28T19:12:20Z</time>
  <course>349.78</course>
  <speed>0.022360679774997897</speed>
  <fix>3d</fix>
</trkpt>
<trkpt lat="40.0728133" lon="-105.2306145">
  <ele>1596.56</ele>
  <time>2026-08-28T19:12:20Z</time>
  <course>358.25</course>
  <speed>0.0</speed>
  <fix>3d</fix>
</trkpt>
<trkpt lat="40.0728134" lon="-105.2306147">
  <ele>1596.65</ele>
  <time>2026-08-28T19:12:20Z</time>
  <course>349.79</course>
  <speed>0.022360679774997897</speed>
  <fix>3d</fix>
</trkpt>
<trkpt lat="40.0728133" lon="-105.2306145">
  <ele>1596.56</ele>
  <time>2026-08-28T19:12:20Z</time>
  <course>356.89</course>
  <speed>0.0</speed>
  <fix>3d</fix>
</trkpt>
<trkpt lat="40.0728134" lon="-105.2306147">
  <ele>1596.65</ele>
  <time>2026-08-28T19:12:20Z</time>
  <course>349.78</course>
  <speed>0.022360679774997897</speed>
  <fix>3d</fix>
</trkpt>
<trkpt lat="40.0728133" lon="-105.2306145">
  <ele>1596.56</ele>
  <time>2026-08-28T19:12:20Z</time>
  <course>356.7</course>
  <speed>0.0</speed>
  <fix>3d</fix>
</trkpt>
<trkpt lat="40.0728134" lon="-105.2306147">
  <ele>1596.64</ele>
  <time>2026-08-28T19:12:20Z</time>
  <course>349.76</course>
  <speed>0.022360679774997897</speed>
  <fix>3d</fix>
</trkpt>
<trkpt lat="40.0728133" lon="-105.2306145">
  <ele>1596.56</ele>
  <time>2026-08-28T19:12:20Z</time>
  <course>359.71</course>
  <speed>0.0</speed>
  <fix>3d</fix>
</trkpt>
<trkpt lat="40.0728134" lon="-105.2306147">
  <ele>1596.64</ele>
  <time>2026-08-28T19:12:20Z</time>
  <course>349.75</course>
  <speed>0.022360679774997897</speed>
  <fix>3d</fix>
</trkpt>
<trkpt lat="40.0728133" lon="-105.2306145">
  <ele>1596.56</ele>
  <time>2026-08-28T19:12:20Z</time>
  <course>0.95</course>
  <speed>0.0</speed>
  <fix>3d</fix>
</trkpt>
<trkpt lat="40.0728134" lon="-105.2306147">
  <ele>1596.64</ele>
  <time>2026-08-28T19:12:20Z</time>
  <course>349.72</course>
  <speed>0.022360679774997897</speed>
  <fix>3d</fix>
</trkpt>
<trkpt lat="40.0728133" lon="-105.2306145">
  <ele>1596.56</ele>
  <time>2026-08-28T19:12:20Z</time>
  <course>2.42</course>
  <speed>0.0</speed>
  <fix>3d</fix>
</trkpt>
<trkpt lat="40.0728134" lon="-105.2306147">
  <ele>1596.64</ele>
  <time>2026-08-28T19:12:20Z</time>
  <course>349.72</course>
  <speed>0.022360679774997897</speed>
  <fix>3d</fix>
</trkpt>
<trkpt lat="40.0728133" lon="-105.2306145">
  <ele>1596.56</ele>
  <time>2026-08-28T19:12:20Z</time>
  <course>1.76</course>
  <speed>0.0</speed>
  <fix>3d</fix>
</trkpt>
<trkpt lat="40.0728134" lon="-105.2306147">
  <ele>1596.63</ele>
  <time>2026-08-28T19:12:20Z</time>
  <course>349.7</course>
  <speed>0.022360679774997897</speed>
  <fix>3d</fix>
</trkpt>
<trkpt lat="40.0728133" lon="-105.2306145">
  <ele>1596.56</ele>
  <time>2026-08-28T19:12:20Z</time>
  <course>1.14</course>
  <speed>0.0</speed>
  <fix>3d</fix>
</trkpt>
<trkpt lat="40.0728134" lon="-105.2306147">
  <ele>1596.63</ele>
  <time>2026-08-28T19:12:20Z</time>
  <course>349.68</course>
  <speed>0.022360679774997897</speed>
  <fix>3d</fix>
</trkpt>
<trkpt lat="40.0728133" lon="-105.2306145">
  <ele>1596.56</ele>
  <time>2026-08-28T19:12:20Z</time>
  <course>3.8</course>
  <speed>0.0</speed>
  <fix>3d</fix>
</trkpt>
<trkpt lat="40.0728134" lon="-105.2306147">
  <ele>1596.63</ele>
  <time>2026-08-28T19:12:20Z</time>
  <course>349.66</course>
  <speed>0.022360679774997897</speed>
  <fix>3d</fix>
</trkpt>
<trkpt lat="40.0728133" lon="-105.2306145">
  <ele>1596.57</ele>
  <time>2026-08-28T19:12:20Z</time>
  <course>6.18</course>
  <speed>0.0</speed>
  <fix>3d</fix>
</trkpt>
<trkpt lat="40.0728134" lon="-105.2306147">
  <ele>1596.64</ele>
  <time>2026-08-28T19:12:20Z</time>
  <course>349.65</course>
  <speed>0.022360679774997897</speed>
  <fix>3d</fix>
</trkpt>
<trkpt lat="40.0728133" lon="-105.2306145">
  <ele>1596.57</ele>
  <time>2026-08-28T19:12:20Z</time>
  <course>1.02</course>
  <speed>0.0</speed>
  <fix>3d</fix>
</trkpt>
<trkpt lat="40.0728134" lon="-105.2306147">
  <ele>1596.64</ele>
  <time>2026-08-28T19:12:20Z</time>
  <course>349.66</course>
  <speed>0.022360679774997897</speed>
  <fix>3d</fix>
</trkpt>
<trkpt lat="40.0728133" lon="-105.2306145">
  <ele>1596.58</ele>
  <time>2026-08-28T19:12:20Z</time>
  <course>347.83</course>
  <speed>0.0</speed>
  <fix>3d</fix>
</trkpt>
<trkpt lat="40.0728134" lon="-105.2306147">
  <ele>1596.65</ele>
  <time>2026-08-28T19:12:20Z</time>
  <course>349.68</course>
  <speed>0.022360679774997897</speed>
  <fix>3d</fix>
</trkpt>
<trkpt lat="40.0728133" lon="-105.2306145">
  <ele>1596.58</ele>
  <time>2026-08-28T19:12:20Z</time>
  <course>345.01</course>
  <speed>0.0</speed>
  <fix>3d</fix>
</trkpt>
<trkpt lat="40.0728134" lon="-105.2306147">
  <ele>1596.65</ele>
  <time>2026-08-28T19:12:20Z</time>
  <course>349.69</course>
  <speed>0.022360679774997897</speed>
  <fix>3d</fix>
</trkpt>
<trkpt lat="40.0728133" lon="-105.2306145">
  <ele>1596.59</ele>
  <time>2026-08-28T19:12:20Z</time>
  <course>357.55</course>
  <speed>0.0</speed>
  <fix>3d</fix>
</trkpt>
<trkpt lat="40.0728134" lon="-105.2306147">
  <ele>1596.66</ele>
  <time>2026-08-28T19:12:20Z</time>
  <course>349.71</course>
  <speed>0.01414213562373095</speed>
  <fix>3d</fix>
</trkpt>
<trkpt lat="40.0728133" lon="-105.2306145">
  <ele>1596.59</ele>
  <time>2026-08-28T19:12:20Z</time>
  <course>17.33</course>
  <speed>0.0</speed>
  <fix>3d</fix>
</trkpt>
<trkpt lat="40.0728134" lon="-105.2306147">
  <ele>1596.66</ele>
  <time>2026-08-28T19:12:20Z</time>
  <course>349.72</course>
  <speed>0.01414213562373095</speed>
  <fix>3d</fix>
</trkpt>
<trkpt lat="40.0728133" lon="-105.2306145">
  <ele>1596.59</ele>
  <time>2026-08-28T19:12:20Z</time>
  <course>37.8</course>
  <speed>0.0</speed>
  <fix>3d</fix>
</trkpt>
<trkpt lat="40.0728134" lon="-105.2306147">
  <ele>1596.67</ele>
  <time>2026-08-28T19:12:20Z</time>
  <course>349.72</course>
  <speed>0.022360679774997897</speed>
  <fix>3d</fix>
</trkpt>
<trkpt lat="40.0728133" lon="-105.2306145">
  <ele>1596.59</ele>
  <time>2026-08-28T19:12:20Z</time>
  <course>41.12</course>
  <speed>0.0</speed>
  <fix>3d</fix>
</trkpt>
<trkpt lat="40.0728134" lon="-105.2306147">
  <ele>1596.67</ele>
  <time>2026-08-28T19:12:20Z</time>
  <course>349.76</course>
  <speed>0.022360679774997897</speed>
  <fix>3d</fix>
</trkpt>
<trkpt lat="40.0728133" lon="-105.2306145">
  <ele>1596.59</ele>
  <time>2026-08-28T19:12:20Z</time>
  <course>18.26</course>
  <speed>0.0</speed>
  <fix>3d</fix>
</trkpt>
<trkpt lat="40.0728134" lon="-105.2306147">
  <ele>1596.67</ele>
  <time>2026-08-28T19:12:20Z</time>
  <course>349.78</course>
  <speed>0.022360679774997897</speed>
  <fix>3d</fix>
</trkpt>
<trkpt lat="40.0728133" lon="-105.2306145">
  <ele>1596.59</ele>
  <time>2026-08-28T19:12:20Z</time>
  <course>3.41</course>
  <speed>0.0</speed>
  <fix>3d</fix>
</trkpt>
<trkpt lat="40.0728134" lon="-105.2306147">
  <ele>1596.66</ele>
  <time>2026-08-28T19:12:20Z</time>
  <course>349.81</course>
  <speed>0.022360679774997897</speed>
  <fix>3d</fix>
</trkpt>
<trkpt lat="40.0728133" lon="-105.2306145">
  <ele>1596.59</ele>
  <time>2026-08-28T19:12:20Z</time>
  <course>5.3</course>
  <speed>0.0</speed>
  <fix>3d</fix>
</trkpt>
<trkpt lat="40.0728134" lon="-105.2306147">
  <ele>1596.66</ele>
  <time>2026-08-28T19:12:20Z</time>
  <course>349.82</course>
  <speed>0.022360679774997897</speed>
  <fix>3d</fix>
</trkpt>
<trkpt lat="40.0728133" lon="-105.2306145">
  <ele>1596.59</ele>
  <time>2026-08-28T19:12:20Z</time>
  <course>8.13</course>
  <speed>0.0</speed>
  <fix>3d</fix>
</trkpt>
<trkpt lat="40.0728134" lon="-105.2306147">
  <ele>1596.66</ele>
  <time>2026-08-28T19:12:20Z</time>
  <course>349.8</course>
  <speed>0.022360679774997897</speed>
  <fix>3d</fix>
</trkpt>
<trkpt lat="40.0728133" lon="-105.2306145">
  <ele>1596.58</ele>
  <time>2026-08-28T19:12:20Z</time>
  <course>8.01</course>
  <speed>0.0</speed>
  <fix>3d</fix>
</trkpt>
<trkpt lat="40.0728134" lon="-105.2306147">
  <ele>1596.66</ele>
  <time>2026-08-28T19:12:20Z</time>
  <course>349.79</course>
  <speed>0.022360679774997897</speed>
  <fix>3d</fix>
</trkpt>
<trkpt lat="40.0728133" lon="-105.2306145">
  <ele>1596.58</ele>
  <time>2026-08-28T19:12:20Z</time>
  <course>9.31</course>
  <speed>0.0</speed>
  <fix>3d</fix>
</trkpt>
<trkpt lat="40.0728134" lon="-105.2306147">
  <ele>1596.66</ele>
  <time>2026-08-28T19:12:20Z</time>
  <course>349.78</course>
  <speed>0.022360679774997897</speed>
  <fix>3d</fix>
</trkpt>
<trkpt lat="40.0728134" lon="-105.2306145">
  <ele>1596.58</ele>
  <time>2026-08-28T19:12:20Z</time>
  <course>11.76</course>
  <speed>0.0</speed>
  <fix>3d</fix>
</trkpt>
<trkpt lat="40.0728134" lon="-105.2306147">
  <ele>1596.65</ele>
  <time>2026-08-28T19:12:20Z</time>
  <course>349.78</course>
  <speed>0.022360679774997897</speed>
  <fix>3d</fix>
</trkpt>
<trkpt lat="40.0728134" lon="-105.2306145">
  <ele>1596.58</ele>
  <time>2026-08-28T19:12:20Z</time>
  <course>11.79</course>
  <speed>0.0</speed>
  <fix>3d</fix>
</trkpt>
<trkpt lat="40.0728134" lon="-105.2306147">
  <ele>1596.65</ele>
  <time>2026-08-28T19:12:20Z</time>
  <course>349.77</course>
  <speed>0.022360679774997897</speed>
  <fix>3d</fix>
</trkpt>
<trkpt lat="40.0728134" lon="-105.2306145">
  <ele>1596.58</ele>
  <time>2026-08-28T19:12:20Z</time>
  <course>10.51</course>
  <speed>0.0</speed>
  <fix>3d</fix>
</trkpt>
<trkpt lat="40.0728134" lon="-105.2306147">
  <ele>1596.65</ele>
  <time>2026-08-28T19:12:20Z</time>
  <course>349.77</course>
  <speed>0.022360679774997897</speed>
  <fix>3d</fix>
</trkpt>
<trkpt lat="40.0728134" lon="-105.2306145">
  <ele>1596.58</ele>
  <time>2026-08-28T19:12:20Z</time>
  <course>8.93</course>
  <speed>0.0</speed>
  <fix>3d</fix>
</trkpt>
<trkpt lat="40.0728134" lon="-105.2306147">
  <ele>1596.65</ele>
  <time>2026-08-28T19:12:20Z</time>
  <course>349.76</course>
  <speed>0.022360679774997897</speed>
  <fix>3d</fix>
</trkpt>
<trkpt lat="40.0728134" lon="-105.2306145">
  <ele>1596.58</ele>
  <time>2026-08-28T19:12:20Z</time>
  <course>4.91</course>
  <speed>0.0</speed>
  <fix>3d</fix>
</trkpt>
<trkpt lat="40.0728134" lon="-105.2306147">
  <ele>1596.65</ele>
  <time>2026-08-28T19:12:20Z</time>
  <course>349.76</course>
  <speed>0.022360679774997897</speed>
  <fix>3d</fix>
</trkpt>
<trkpt lat="40.0728134" lon="-105.2306145">
  <ele>1596.58</ele>
  <time>2026-08-28T19:12:20Z</time>
  <course>8.44</course>
  <speed>0.0</speed>
  <fix>3d</fix>
</trkpt>
<trkpt lat="40.0728134" lon="-105.2306147">
  <ele>1596.65</ele>
  <time>2026-08-28T19:12:20Z</time>
  <course>349.76</course>
  <speed>0.022360679774997897</speed>
  <fix>3d</fix>
</trkpt>
<trkpt lat="40.0728134" lon="-105.2306145">
  <ele>1596.58</ele>
  <time>2026-08-28T19:12:20Z</time>
  <course>54.59</course>
  <speed>0.0</speed>
  <fix>3d</fix>
</trkpt>
<trkpt lat="40.0728134" lon="-105.2306147">
  <ele>1596.65</ele>
  <time>2026-08-28T19:12:20Z</time>
  <course>349.76</course>
  <speed>0.022360679774997897</speed>
  <fix>3d</fix>
</trkpt>
<trkpt lat="40.0728134" lon="-105.2306144">
  <ele>1596.58</ele>
  <time>2026-08-28T19:12:20Z</time>
  <course>139.35</course>
  <speed>0.0</speed>
  <fix>3d</fix>
</trkpt>
<trkpt lat="40.0728134" lon="-105.2306147">
  <ele>1596.65</ele>
  <time>2026-08-28T19:12:20Z</time>
  <course>349.76</course>
  <speed>0.01</speed>
  <fix>3d</fix>
</trkpt>
<trkpt lat="40.0728134" lon="-105.2306143">
  <ele>1596.58</ele>
  <time>2026-08-28T19:12:20Z</time>
  <course>153.34</course>
  <speed>0.0</speed>
  <fix>3d</fix>
</trkpt>
<trkpt lat="40.0728134" lon="-105.2306147">
  <ele>1596.65</ele>
  <time>2026-08-28T19:12:20Z</time>
  <course>349.76</course>
  <speed>0.01</speed>
  <fix>3d</fix>
</trkpt>
<trkpt lat="40.0728134" lon="-105.2306143">
  <ele>1596.58</ele>
  <time>2026-08-28T19:12:20Z</time>
  <course>157.88</course>
  <speed>0.0</speed>
  <fix>3d</fix>
</trkpt>
<trkpt lat="40.0728134" lon="-105.2306147">
  <ele>1596.65</ele>
  <time>2026-08-28T19:12:20Z</time>
  <course>349.75</course>
  <speed>0.01</speed>
  <fix>3d</fix>
</trkpt>
<trkpt lat="40.0728134" lon="-105.2306143">
  <ele>1596.58</ele>
  <time>2026-08-28T19:12:20Z</time>
  <course>160.06</course>
  <speed>0.0</speed>
  <fix>3d</fix>
</trkpt>
<trkpt lat="40.0728134" lon="-105.2306146">
  <ele>1596.65</ele>
  <time>2026-08-28T19:12:20Z</time>
  <course>349.75</course>
  <speed>0.01</speed>
  <fix>3d</fix>
</trkpt>
<trkpt lat="40.0728134" lon="-105.2306143">
  <ele>1596.58</ele>
  <time>2026-08-28T19:12:20Z</time>
  <course>162.3</course>
  <speed>0.0</speed>
  <fix>3d</fix>
</trkpt>
<trkpt lat="40.0728134" lon="-105.2306146">
  <ele>1596.65</ele>
  <time>2026-08-28T19:12:20Z</time>
  <course>349.74</course>
  <speed>0.01</speed>
  <fix>3d</fix>
</trkpt>
<trkpt lat="40.0728134" lon="-105.2306143">
  <ele>1596.58</ele>
  <time>2026-08-28T19:12:20Z</time>
  <course>166.96</course>
  <speed>0.0</speed>
  <fix>3d</fix>
</trkpt>
<trkpt lat="40.0728134" lon="-105.2306146">
  <ele>1596.64</ele>
  <time>2026-08-28T19:12:20Z</time>
  <course>349.74</course>
  <speed>0.02</speed>
  <fix>3d</fix>
</trkpt>
<trkpt lat="40.0728134" lon="-105.2306143">
  <ele>1596.58</ele>
  <time>2026-08-28T19:12:20Z</time>
  <course>176.69</course>
  <speed>0.0</speed>
  <fix>3d</fix>
</trkpt>
<trkpt lat="40.0728134" lon="-105.2306146">
  <ele>1596.65</ele>
  <time>2026-08-28T19:12:20Z</time>
  <course>349.73</course>
  <speed>0.02</speed>
  <fix>3d</fix>
</trkpt>
<trkpt lat="40.0728134" lon="-105.2306143">
  <ele>1596.58</ele>
  <time>2026-08-28T19:12:20Z</time>
  <course>191.32</course>
  <speed>0.0</speed>
  <fix>3d</fix>
</trkpt>
<trkpt lat="40.0728134" lon="-105.2306146">
  <ele>1596.65</ele>
  <time>2026-08-28T19:12:20Z</time>
  <course>349.72</course>
  <speed>0.02</speed>
  <fix>3d</fix>
</trkpt>
<trkpt lat="40.0728134" lon="-105.2306143">
  <ele>1596.58</ele>
  <time>2026-08-28T19:12:20Z</time>
  <course>206.2</course>
  <speed>0.0</speed>
  <fix>3d</fix>
</trkpt>
<trkpt lat="40.0728134" lon="-105.2306146">
  <ele>1596.65</ele>
  <time>2026-08-28T19:12:20Z</time>
  <course>349.71</course>
  <speed>0.02</speed>
  <fix>3d</fix>
</trkpt>
<trkpt lat="40.0728134" lon="-105.2306143">
  <ele>1596.58</ele>
  <time>2026-08-28T19:12:20Z</time>
  <course>220.03</course>
  <speed>0.0</speed>
  <fix>3d</fix>
</trkpt>
<trkpt lat="40.0728134" lon="-105.2306146">
  <ele>1596.65</ele>
  <time>2026-08-28T19:12:20Z</time>
  <course>349.71</course>
  <speed>0.02</speed>
  <fix>3d</fix>
</trkpt>
<trkpt lat="40.0728134" lon="-105.2306143">
  <ele>1596.59</ele>
  <time>2026-08-28T19:12:20Z</time>
  <course>229.43</course>
  <speed>0.0</speed>
  <fix>3d</fix>
</trkpt>
<trkpt lat="40.0728134" lon="-105.2306146">
  <ele>1596.66</ele>
  <time>2026-08-28T19:12:20Z</time>
  <course>349.72</course>
  <speed>0.02</speed>
  <fix>3d</fix>
</trkpt>
<trkpt lat="40.0728134" lon="-105.2306143">
  <ele>1596.59</ele>
  <time>2026-08-28T19:12:20Z</time>
  <course>233.91</course>
  <speed>0.01</speed>
  <fix>3d</fix>
</trkpt>
<trkpt lat="40.0728134" lon="-105.2306146">
  <ele>1596.66</ele>
  <time>2026-08-28T19:12:20Z</time>
  <course>349.73</course>
  <speed>0.02</speed>
  <fix>3d</fix>
</trkpt>
<trkpt lat="40.0728134" lon="-105.2306143">
  <ele>1596.59</ele>
  <time>2026-08-28T19:12:20Z</time>
  <course>235.53</course>
  <speed>0.01</speed>
  <fix>3d</fix>
</trkpt>
<trkpt lat="40.0728134" lon="-105.2306146">
  <ele>1596.66</ele>
  <time>2026-08-28T19:12:20Z</time>
  <course>349.74</course>
  <speed>0.02</speed>
  <fix>3d</fix>
</trkpt>
<trkpt lat="40.0728134" lon="-105.2306143">
  <ele>1596.59</ele>
  <time>2026-08-28T19:12:20Z</time>
  <course>235.99</course>
  <speed>0.01</speed>
  <fix>3d</fix>
</trkpt>
<trkpt lat="40.0728134" lon="-105.2306146">
  <ele>1596.67</ele>
  <time>2026-08-28T19:12:20Z</time>
  <course>349.75</course>
  <speed>0.02</speed>
  <fix>3d</fix>
</trkpt>
<trkpt lat="40.0728133" lon="-105.2306144">
  <ele>1596.59</ele>
  <time>2026-08-28T19:12:20Z</time>
  <course>236.34</course>
  <speed>0.01</speed>
  <fix>3d</fix>
</trkpt>
<trkpt lat="40.0728134" lon="-105.2306146">
  <ele>1596.67</ele>
  <time>2026-08-28T19:12:20Z</time>
  <course>349.76</course>
  <speed>0.02</speed>
  <fix>3d</fix>
</trkpt>
<trkpt lat="40.0728133" lon="-105.2306145">
  <ele>1596.59</ele>
  <time>2026-08-28T19:12:20Z</time>
  <course>238.15</course>
  <speed>0.01</speed>
  <fix>3d</fix>
</trkpt>
<trkpt lat="40.0728134" lon="-105.2306146">
  <ele>1596.67</ele>
  <time>2026-08-28T19:12:20Z</time>
  <course>349.78</course>
  <speed>0.022360679774997897</speed>
  <fix>3d</fix>
</trkpt>
<trkpt lat="40.0728133" lon="-105.2306145">
  <ele>1596.59</ele>
  <time>2026-08-28T19:12:20Z</time>
  <course>241.01</course>
  <speed>0.01</speed>
  <fix>3d</fix>
</trkpt>
<trkpt lat="40.0728134" lon="-105.2306146">
  <ele>1596.66</ele>
  <time>2026-08-28T19:12:20Z</time>
  <course>349.78</course>
  <speed>0.022360679774997897</speed>
  <fix>3d</fix>
</trkpt>
<trkpt lat="40.0728133" lon="-105.2306145">
  <ele>1596.58</ele>
  <time>2026-08-28T19:12:20Z</time>
  <course>243.42</course>
  <speed>0.01</speed>
  <fix>3d</fix>
</trkpt>
<trkpt lat="40.0728134" lon="-105.2306147">
  <ele>1596.66</ele>
  <time>2026-08-28T19:12:20Z</time>
  <course>349.78</course>
  <speed>0.022360679774997897</speed>
  <fix>3d</fix>
</trkpt>
<trkpt lat="40.0728133" lon="-105.2306145">
  <ele>1596.58</ele>
  <time>2026-08-28T19:12:20Z</time>
  <course>246.47</course>
  <speed>0.0</speed>
  <fix>3d</fix>
</trkpt>
<trkpt lat="40.0728134" lon="-105.2306147">
  <ele>1596.66</ele>
  <time>2026-08-28T19:12:20Z</time>
  <course>349.78</course>
  <speed>0.022360679774997897</speed>
  <fix>3d</fix>
</trkpt>
<trkpt lat="40.0728133" lon="-105.2306145">
  <ele>1596.58</ele>
  <time>2026-08-28T19:12:20Z</time>
  <course>251.02</course>
  <speed>0.0</speed>
  <fix>3d</fix>
</trkpt>
<trkpt lat="40.0728134" lon="-105.2306147">
  <ele>1596.65</ele>
  <time>2026-08-28T19:12:20Z</time>
  <course>349.78</course>
  <speed>0.022360679774997897</speed>
  <fix>3d</fix>
</trkpt>
<trkpt lat="40.0728133" lon="-105.2306146">
  <ele>1596.58</ele>
  <time>2026-08-28T19:12:20Z</time>
  <course>257.42</course>
  <speed>0.0</speed>
  <fix>3d</fix>
</trkpt>
<trkpt lat="40.0728134" lon="-105.2306147">
  <ele>1596.65</ele>
  <time>2026-08-28T19:12:20Z</time>
  <course>349.78</course>
  <speed>0.022360679774997897</speed>
  <fix>3d</fix>
</trkpt>
<trkpt lat="40.0728133" lon="-105.2306146">
  <ele>1596.57</ele>
  <time>2026-08-28T19:12:20Z</time>
  <course>264.59</course>
  <speed>0.0</speed>
  <fix>3d</fix>
</trkpt>
<trkpt lat="40.0728134" lon="-105.2306147">
  <ele>1596.64</ele>
  <time>2026-08-28T19:12:20Z</time>
  <course>349.77</course>
  <speed>0.022360679774997897</speed>
  <fix>3d</fix>
</trkpt>
<trkpt lat="40.0728133" lon="-105.2306146">
  <ele>1596.57</ele>
  <time>2026-08-28T19:12:20Z</time>
  <course>274.53</course>
  <speed>0.0</speed>
  <fix>3d</fix>
</trkpt>
<trkpt lat="40.0728134" lon="-105.2306147">
  <ele>1596.65</ele>
  <time>2026-08-28T19:12:20Z</time>
  <course>349.76</course>
  <speed>0.022360679774997897</speed>
  <fix>3d</fix>
</trkpt>
<trkpt lat="40.0728133" lon="-105.2306146">
  <ele>1596.57</ele>
  <time>2026-08-28T19:12:20Z</time>
  <course>300.42</course>
  <speed>0.0</speed>
  <fix>3d</fix>
</trkpt>
<trkpt lat="40.0728134" lon="-105.2306147">
  <ele>1596.65</ele>
  <time>2026-08-28T19:12:20Z</time>
  <course>349.75</course>
  <speed>0.01414213562373095</speed>
  <fix>3d</fix>
</trkpt>
<trkpt lat="40.0728133" lon="-105.2306146">
  <ele>1596.57</ele>
  <time>2026-08-28T19:12:20Z</time>
  <course>351.5</course>
  <speed>0.0</speed>
  <fix>3d</fix>
</trkpt>
<trkpt lat="40.0728134" lon="-105.2306147">
  <ele>1596.65</ele>
  <time>2026-08-28T19:12:20Z</time>
  <course>349.73</course>
  <speed>0.01414213562373095</speed>
  <fix>3d</fix>
</trkpt>
<trkpt lat="40.0728133" lon="-105.2306146">
  <ele>1596.57</ele>
  <time>2026-08-28T19:12:20Z</time>
  <course>25.15</course>
  <speed>0.0</speed>
  <fix>3d</fix>
</trkpt>
<trkpt lat="40.0728134" lon="-105.2306147">
  <ele>1596.65</ele>
  <time>2026-08-28T19:12:20Z</time>
  <course>349.72</course>
  <speed>0.01414213562373095</speed>
  <fix>3d</fix>
</trkpt>
<trkpt lat="40.0728133" lon="-105.2306146">
  <ele>1596.57</ele>
  <time>2026-08-28T19:12:20Z</time>
  <course>38.62</course>
  <speed>0.0</speed>
  <fix>3d</fix>
</trkpt>
<trkpt lat="40.0728134" lon="-105.2306147">
  <ele>1596.65</ele>
  <time>2026-08-28T19:12:20Z</time>
  <course>349.71</course>
  <speed>0.01414213562373095</speed>
  <fix>3d</fix>
</trkpt>
<trkpt lat="40.0728133" lon="-105.2306146">
  <ele>1596.57</ele>
  <time>2026-08-28T19:12:20Z</time>
  <course>45.19</course>
  <speed>0.0</speed>
  <fix>3d</fix>
</trkpt>
<trkpt lat="40.0728134" lon="-105.2306147">
  <ele>1596.65</ele>
  <time>2026-08-28T19:12:20Z</time>
  <course>349.7</course>
  <speed>0.01414213562373095</speed>
  <fix>3d</fix>
</trkpt>
<trkpt lat="40.0728133" lon="-105.2306146">
  <ele>1596.57</ele>
  <time>2026-08-28T19:12:20Z</time>
  <course>49.07</course>
  <speed>0.0</speed>
  <fix>3d</fix>
</trkpt>
<trkpt lat="40.0728134" lon="-105.2306147">
  <ele>1596.65</ele>
  <time>2026-08-28T19:12:20Z</time>
  <course>349.7</course>
  <speed>0.01414213562373095</speed>
  <fix>3d</fix>
</trkpt>
<trkpt lat="40.0728133" lon="-105.2306146">
  <ele>1596.57</ele>
  <time>2026-08-28T19:12:20Z</time>
  <course>52.35</course>
  <speed>0.0</speed>
  <fix>3d</fix>
</trkpt>
<trkpt lat="40.0728134" lon="-105.2306147">
  <ele>1596.64</ele>
  <time>2026-08-28T19:12:20Z</time>
  <course>349.69</course>
  <speed>0.01414213562373095</speed>
  <fix>3d</fix>
</trkpt>
<trkpt lat="40.0728133" lon="-105.2306146">
  <ele>1596.57</ele>
  <time>2026-08-28T19:12:20Z</time>
  <course>56.5</course>
  <speed>0.0</speed>
  <fix>3d</fix>
</trkpt>
<trkpt lat="40.0728134" lon="-105.2306147">
  <ele>1596.64</ele>
  <time>2026-08-28T19:12:20Z</time>
  <course>349.69</course>
  <speed>0.01414213562373095</speed>
  <fix>3d</fix>
</trkpt>
<trkpt lat="40.0728133" lon="-105.2306146">
  <ele>1596.57</ele>
  <time>2026-08-28T19:12:20Z</time>
  <course>60.83</course>
  <speed>0.0</speed>
  <fix>3d</fix>
</trkpt>
<trkpt lat="40.0728134" lon="-105.2306147">
  <ele>1596.64</ele>
  <time>2026-08-28T19:12:20Z</time>
  <course>349.68</course>
  <speed>0.01414213562373095</speed>
  <fix>3d</fix>
</trkpt>
<trkpt lat="40.0728133" lon="-105.2306146">
  <ele>1596.57</ele>
  <time>2026-08-28T19:12:20Z</time>
  <course>65.13</course>
  <speed>0.0</speed>
  <fix>3d</fix>
</trkpt>
<trkpt lat="40.0728134" lon="-105.2306147">
  <ele>1596.65</ele>
  <time>2026-08-28T19:12:20Z</time>
  <course>349.68</course>
  <speed>0.01414213562373095</speed>
  <fix>3d</fix>
</trkpt>
<trkpt lat="40.0728133" lon="-105.2306146">
  <ele>1596.58</ele>
  <time>2026-08-28T19:12:20Z</time>
  <course>72.68</course>
  <speed>0.0</speed>
  <fix>3d</fix>
</trkpt>
<trkpt lat="40.0728134" lon="-105.2306147">
  <ele>1596.65</ele>
  <time>2026-08-28T19:12:20Z</time>
  <course>349.68</course>
  <speed>0.01414213562373095</speed>
  <fix>3d</fix>
</trkpt>
<trkpt lat="40.0728133" lon="-105.2306146">
  <ele>1596.58</ele>
  <time>2026-08-28T19:12:20Z</time>
  <course>79.73</course>
  <speed>0.0</speed>
  <fix>3d</fix>
</trkpt>
<trkpt lat="40.0728134" lon="-105.2306147">
  <ele>1596.65</ele>
  <time>2026-08-28T19:12:20Z</time>
  <course>349.68</course>
  <speed>0.01414213562373095</speed>
  <fix>3d</fix>
</trkpt>
<trkpt lat="40.0728133" lon="-105.2306146">
  <ele>1596.58</ele>
  <time>2026-08-28T19:12:20Z</time>
  <course>82.59</course>
  <speed>0.0</speed>
  <fix>3d</fix>
</trkpt>
<trkpt lat="40.0728134" lon="-105.2306147">
  <ele>1596.65</ele>
  <time>2026-08-28T19:12:20Z</time>
  <course>349.68</course>
  <speed>0.01414213562373095</speed>
  <fix>3d</fix>
</trkpt>
<trkpt lat="40.0728133" lon="-105.2306146">
  <ele>1596.58</ele>
  <time>2026-08-28T19:12:20Z</time>
  <course>84.74</course>
  <speed>0.0</speed>
  <fix>3d</fix>
</trkpt>
<trkpt lat="40.0728134" lon="-105.2306147">
  <ele>1596.65</ele>
  <time>2026-08-28T19:12:20Z</time>
  <course>349.68</course>
  <speed>0.01414213562373095</speed>
  <fix>3d</fix>
</trkpt>
<trkpt lat="40.0728133" lon="-105.2306146">
  <ele>1596.58</ele>
  <time>2026-08-28T19:12:20Z</time>
  <course>86.59</course>
  <speed>0.0</speed>
  <fix>3d</fix>
</trkpt>
<trkpt lat="40.0728134" lon="-105.2306147">
  <ele>1596.65</ele>
  <time>2026-08-28T19:12:20Z</time>
  <course>349.68</course>
  <speed>0.01414213562373095</speed>
  <fix>3d</fix>
</trkpt>
<trkpt lat="40.0728133" lon="-105.2306145">
  <ele>1596.58</ele>
  <time>2026-08-28T19:12:20Z</time>
  <course>88.27</course>
  <speed>0.0</speed>
  <fix>3d</fix>
</trkpt>
<trkpt lat="40.0728134" lon="-105.2306147">
  <ele>1596.65</ele>
  <time>2026-08-28T19:12:20Z</time>
  <course>349.68</course>
  <speed>0.01414213562373095</speed>
  <fix>3d</fix>
</trkpt>
<trkpt lat="40.0728133" lon="-105.2306145">
  <ele>1596.58</ele>
  <time>2026-08-28T19:12:20Z</time>
  <course>89.77</course>
  <speed>0.0</speed>
  <fix>3d</fix>
</trkpt>
<trkpt lat="40.0728134" lon="-105.2306147">
  <ele>1596.65</ele>
  <time>2026-08-28T19:12:20Z</time>
  <course>349.68</course>
  <speed>0.01414213562373095</speed>
  <fix>3d</fix>
</trkpt>
<trkpt lat="40.0728133" lon="-105.2306145">
  <ele>1596.58</ele>
  <time>2026-08-28T19:12:20Z</time>
  <course>91.1</course>
  <speed>0.0</speed>
  <fix>3d</fix>
</trkpt>
<trkpt lat="40.0728134" lon="-105.2306147">
  <ele>1596.65</ele>
  <time>2026-08-28T19:12:20Z</time>
  <course>349.68</course>
  <speed>0.01414213562373095</speed>
  <fix>3d</fix>
</trkpt>
<trkpt lat="40.0728133" lon="-105.2306145">
  <ele>1596.58</ele>
  <time>2026-08-28T19:12:20Z</time>
  <course>90.13</course>
  <speed>0.0</speed>
  <fix>3d</fix>
</trkpt>
<trkpt lat="40.0728134" lon="-105.2306147">
  <ele>1596.65</ele>
  <time>2026-08-28T19:12:20Z</time>
  <course>349.68</course>
  <speed>0.01414213562373095</speed>
  <fix>3d</fix>
</trkpt>
<trkpt lat="40.0728133" lon="-105.2306145">
  <ele>1596.58</ele>
  <time>2026-08-28T19:12:20Z</time>
  <course>86.68</course>
  <speed>0.0</speed>
  <fix>3d</fix>
</trkpt>
<trkpt lat="40.0728134" lon="-105.2306147">
  <ele>1596.66</ele>
  <time>2026-08-28T19:12:20Z</time>
  <course>349.68</course>
  <speed>0.01414213562373095</speed>
  <fix>3d</fix>
</trkpt>
<trkpt lat="40.0728133" lon="-105.2306145">
  <ele>1596.58</ele>
  <time>2026-08-28T19:12:20Z</time>
  <course>83.38</course>
  <speed>0.0</speed>
  <fix>3d</fix>
</trkpt>
<trkpt lat="40.0728134" lon="-105.2306147">
  <ele>1596.66</ele>
  <time>2026-08-28T19:12:20Z</time>
  <course>349.69</course>
  <speed>0.01414213562373095</speed>
  <fix>3d</fix>
</trkpt>
<trkpt lat="40.0728133" lon="-105.2306144">
  <ele>1596.58</ele>
  <time>2026-08-28T19:12:20Z</time>
  <course>80.23</course>
  <speed>0.0</speed>
  <fix>3d</fix>
</trkpt>
<trkpt lat="40.0728134" lon="-105.2306147">
  <ele>1596.66</ele>
  <time>2026-08-28T19:12:21Z</time>
  <course>349.71</course>
  <speed>0.022360679774997897</speed>
  <fix>3d</fix>
</trkpt>
<trkpt lat="40.0728133" lon="-105.2306143">
  <ele>1596.59</ele>
  <time>2026-08-28T19:12:21Z</time>
  <course>73.77</course>
  <speed>0.0</speed>
  <fix>3d</fix>
</trkpt>
<trkpt lat="40.0728134" lon="-105.2306147">
  <ele>1596.67</ele>
  <time>2026-08-28T19:12:21Z</time>
  <course>349.73</course>
  <speed>0.022360679774997897</speed>
  <fix>3d</fix>
</trkpt>
<trkpt lat="40.0728133" lon="-105.2306143">
  <ele>1596.58</ele>
  <time>2026-08-28T19:12:21Z</time>
  <course>61.54</course>
  <speed>0.0</speed>
  <fix>3d</fix>
</trkpt>
<trkpt lat="40.0728134" lon="-105.2306147">
  <ele>1596.67</ele>
  <time>2026-08-28T19:12:21Z</time>
  <course>349.76</course>
  <speed>0.022360679774997897</speed>
  <fix>3d</fix>
</trkpt>
<trkpt lat="40.0728133" lon="-105.2306143">
  <ele>1596.58</ele>
  <time>2026-08-28T19:12:21Z</time>
  <course>43.67</course>
  <speed>0.0</speed>
  <fix>3d</fix>
</trkpt>
<trkpt lat="40.0728134" lon="-105.2306147">
  <ele>1596.67</ele>
  <time>2026-08-28T19:12:21Z</time>
  <course>349.77</course>
  <speed>0.022360679774997897</speed>
  <fix>3d</fix>
</trkpt>
<trkpt lat="40.0728133" lon="-105.2306143">
  <ele>1596.58</ele>
  <time>2026-08-28T19:12:21Z</time>
  <course>19.07</course>
  <speed>0.0</speed>
  <fix>3d</fix>
</trkpt>
<trkpt lat="40.0728134" lon="-105.2306146">
  <ele>1596.66</ele>
  <time>2026-08-28T19:12:21Z</time>
  <course>349.79</course>
  <speed>0.022360679774997897</speed>
  <fix>3d</fix>
</trkpt>
<trkpt lat="40.0728133" lon="-105.2306143">
  <ele>1596.58</ele>
  <time>2026-08-28T19:12:21Z</time>
  <course>349.92</course>
  <speed>0.0</speed>
  <fix>3d</fix>
</trkpt>
<trkpt lat="40.0728134" lon="-105.2306146">
  <ele>1596.65</ele>
  <time>2026-08-28T19:12:21Z</time>
  <course>349.79</course>
  <speed>0.022360679774997897</speed>
  <fix>3d</fix>
</trkpt>
<trkpt lat="40.0728133" lon="-105.2306143">
  <ele>1596.57</ele>
  <time>2026-08-28T19:12:21Z</time>
  <course>329.08</course>
  <speed>0.0</speed>
  <fix>3d</fix>
</trkpt>
<trkpt lat="40.0728134" lon="-105.2306146">
  <ele>1596.65</ele>
  <time>2026-08-28T19:12:21Z</time>
  <course>349.77</course>
  <speed>0.022360679774997897</speed>
  <fix>3d</fix>
</trkpt>
<trkpt lat="40.0728133" lon="-105.2306143">
  <ele>1596.57</ele>
  <time>2026-08-28T19:12:21Z</time>
  <course>321.93</course>
  <speed>0.0</speed>
  <fix>3d</fix>
</trkpt>
<trkpt lat="40.0728134" lon="-105.2306146">
  <ele>1596.65</ele>
  <time>2026-08-28T19:12:21Z</time>
  <course>349.75</course>
  <speed>0.022360679774997897</speed>
  <fix>3d</fix>
</trkpt>
<trkpt lat="40.0728133" lon="-105.2306143">
  <ele>1596.57</ele>
  <time>2026-08-28T19:12:21Z</time>
  <course>318.62</course>
  <speed>0.0</speed>
  <fix>3d</fix>
</trkpt>
<trkpt lat="40.0728134" lon="-105.2306146">
  <ele>1596.64</ele>
  <time>2026-08-28T19:12:21Z</time>
  <course>349.73</course>
  <speed>0.022360679774997897</speed>
  <fix>3d</fix>
</trkpt>
<trkpt lat="40.0728133" lon="-105.2306143">
  <ele>1596.57</ele>
  <time>2026-08-28T19:12:21Z</time>
  <course>314.0</course>
  <speed>0.0</speed>
  <fix>3d</fix>
</trkpt>
<trkpt lat="40.0728134" lon="-105.2306146">
  <ele>1596.64</ele>
  <time>2026-08-28T19:12:21Z</time>
  <course>349.72</course>
  <speed>0.022360679774997897</speed>
  <fix>3d</fix>
</trkpt>
<trkpt lat="40.0728133" lon="-105.2306143">
  <ele>1596.57</ele>
  <time>2026-08-28T19:12:21Z</time>
  <course>310.5</course>
  <speed>0.0</speed>
  <fix>3d</fix>
</trkpt>
<trkpt lat="40.0728134" lon="-105.2306146">
  <ele>1596.65</ele>
  <time>2026-08-28T19:12:21Z</time>
  <course>349.71</course>
  <speed>0.022360679774997897</speed>
  <fix>3d</fix>
</trkpt>
<trkpt lat="40.0728133" lon="-105.2306143">
  <ele>1596.57</ele>
  <time>2026-08-28T19:12:21Z</time>
  <course>306.47</course>
  <speed>0.0</speed>
  <fix>3d</fix>
</trkpt>
<trkpt lat="40.0728134" lon="-105.2306146">
  <ele>1596.65</ele>
  <time>2026-08-28T19:12:21Z</time>
  <course>349.71</course>
  <speed>0.022360679774997897</speed>
  <fix>3d</fix>
</trkpt>
<trkpt lat="40.0728133" lon="-105.2306143">
  <ele>1596.57</ele>
  <time>2026-08-28T19:12:21Z</time>
  <course>300.62</course>
  <speed>0.0</speed>
  <fix>3d</fix>
</trkpt>
<trkpt lat="40.0728134" lon="-105.2306146">
  <ele>1596.64</ele>
  <time>2026-08-28T19:12:21Z</time>
  <course>349.7</course>
  <speed>0.022360679774997897</speed>
  <fix>3d</fix>
</trkpt>
<trkpt lat="40.0728133" lon="-105.2306143">
  <ele>1596.57</ele>
  <time>2026-08-28T19:12:21Z</time>
  <course>295.32</course>
  <speed>0.0</speed>
  <fix>3d</fix>
</trkpt>
<trkpt lat="40.0728134" lon="-105.2306146">
  <ele>1596.64</ele>
  <time>2026-08-28T19:12:21Z</time>
  <course>349.7</course>
  <speed>0.022360679774997897</speed>
  <fix>3d</fix>
</trkpt>
<trkpt lat="40.0728133" lon="-105.2306143">
  <ele>1596.57</ele>
  <time>2026-08-28T19:12:21Z</time>
  <course>290.48</course>
  <speed>0.01</speed>
  <fix>3d</fix>
</trkpt>
<trkpt lat="40.0728134" lon="-105.2306146">
  <ele>1596.64</ele>
  <time>2026-08-28T19:12:21Z</time>
  <course>349.7</course>
  <speed>0.022360679774997897</speed>
  <fix>3d</fix>
</trkpt>
<trkpt lat="40.0728133" lon="-105.2306144">
  <ele>1596.57</ele>
  <time>2026-08-28T19:12:21Z</time>
  <course>285.32</course>
  <speed>0.01</speed>
  <fix>3d</fix>
</trkpt>
<trkpt lat="40.0728134" lon="-105.2306146">
  <ele>1596.64</ele>
  <time>2026-08-28T19:12:21Z</time>
  <course>349.68</course>
  <speed>0.022360679774997897</speed>
  <fix>3d</fix>
</trkpt>
<trkpt lat="40.0728133" lon="-105.2306145">
  <ele>1596.57</ele>
  <time>2026-08-28T19:12:21Z</time>
  <course>279.42</course>
  <speed>0.01</speed>
  <fix>3d</fix>
</trkpt>
<trkpt lat="40.0728134" lon="-105.2306146">
  <ele>1596.64</ele>
  <time>2026-08-28T19:12:21Z</time>
  <course>349.67</course>
  <speed>0.022360679774997897</speed>
  <fix>3d</fix>
</trkpt>
<trkpt lat="40.0728133" lon="-105.2306145">
  <ele>1596.57</ele>
  <time>2026-08-28T19:12:21Z</time>
  <course>272.94</course>
  <speed>0.0</speed>
  <fix>3d</fix>
</trkpt>
<trkpt lat="40.0728134" lon="-105.2306146">
  <ele>1596.64</ele>
  <time>2026-08-28T19:12:21Z</time>
  <course>349.65</course>
  <speed>0.022360679774997897</speed>
  <fix>3d</fix>
</trkpt>
<trkpt lat="40.0728133" lon="-105.2306145">
  <ele>1596.57</ele>
  <time>2026-08-28T19:12:21Z</time>
  <course>269.94</course>
  <speed>0.0</speed>
  <fix>3d</fix>
</trkpt>
<trkpt lat="40.0728134" lon="-105.2306147">
  <ele>1596.64</ele>
  <time>2026-08-28T19:12:21Z</time>
  <course>349.64</course>
  <speed>0.02</speed>
  <fix>3d</fix>
</trkpt>
<trkpt lat="40.0728133" lon="-105.2306145">
  <ele>1596.58</ele>
  <time>2026-08-28T19:12:21Z</time>
  <course>267.81</course>
  <speed>0.0</speed>
  <fix>3d</fix>
</trkpt>
<trkpt lat="40.0728134" lon="-105.2306147">
  <ele>1596.65</ele>
  <time>2026-08-28T19:12:21Z</time>
  <course>349.64</course>
  <speed>0.02</speed>
  <fix>3d</fix>
</trkpt>
<trkpt lat="40.0728133" lon="-105.2306145">
  <ele>1596.58</ele>
  <time>2026-08-28T19:12:21Z</time>
  <course>263.23</course>
  <speed>0.0</speed>
  <fix>3d</fix>
</trkpt>
<trkpt lat="40.0728134" lon="-105.2306147">
  <ele>1596.65</ele>
  <time>2026-08-28T19:12:21Z</time>
  <course>349.66</course>
  <speed>0.02</speed>
  <fix>3d</fix>
</trkpt>
<trkpt lat="40.0728133" lon="-105.2306146">
  <ele>1596.58</ele>
  <time>2026-08-28T19:12:21Z</time>
  <course>259.85</course>
  <speed>0.0</speed>
  <fix>3d</fix>
</trkpt>
<trkpt lat="40.0728134" lon="-105.2306147">
  <ele>1596.65</ele>
  <time>2026-08-28T19:12:21Z</time>
  <course>349.67</course>
  <speed>0.022360679774997897</speed>
  <fix>3d</fix>
</trkpt>
<trkpt lat="40.0728133" lon="-105.2306146">
  <ele>1596.58</ele>
  <time>2026-08-28T19:12:21Z</time>
  <course>257.75</course>
  <speed>0.0</speed>
  <fix>3d</fix>
</trkpt>
<trkpt lat="40.0728134" lon="-105.2306147">
  <ele>1596.65</ele>
  <time>2026-08-28T19:12:21Z</time>
  <course>349.68</course>
  <speed>0.022360679774997897</speed>
  <fix>3d</fix>
</trkpt>
<trkpt lat="40.0728133" lon="-105.2306146">
  <ele>1596.58</ele>
  <time>2026-08-28T19:12:21Z</time>
  <course>254.71</course>
  <speed>0.0</speed>
  <fix>3d</fix>
</trkpt>
<trkpt lat="40.0728134" lon="-105.2306147">
  <ele>1596.65</ele>
  <time>2026-08-28T19:12:21Z</time>
  <course>349.69</course>
  <speed>0.022360679774997897</speed>
  <fix>3d</fix>
</trkpt>
<trkpt lat="40.0728133" lon="-105.2306146">
  <ele>1596.59</ele>
  <time>2026-08-28T19:12:21Z</time>
  <course>251.23</course>
  <speed>0.0</speed>
  <fix>3d</fix>
</trkpt>
<trkpt lat="40.0728134" lon="-105.2306147">
  <ele>1596.64</ele>
  <time>2026-08-28T19:12:21Z</time>
  <course>349.69</course>
  <speed>0.022360679774997897</speed>
  <fix>3d</fix>
</trkpt>
<trkpt lat="40.0728133" lon="-105.2306146">
  <ele>1596.59</ele>
  <time>2026-08-28T19:12:21Z</time>
  <course>243.61</course>
  <speed>0.0</speed>
  <fix>3d</fix>
</trkpt>
<trkpt lat="40.0728134" lon="-105.2306147">
  <ele>1596.64</ele>
  <time>2026-08-28T19:12:21Z</time>
  <course>349.69</course>
  <speed>0.01414213562373095</speed>
  <fix>3d</fix>
</trkpt>
<trkpt lat="40.0728133" lon="-105.2306146">
  <ele>1596.59</ele>
  <time>2026-08-28T19:12:21Z</time>
  <course>90.97</course>
  <speed>0.0</speed>
  <fix>3d</fix>
</trkpt>
<trkpt lat="40.0728134" lon="-105.2306147">
  <ele>1596.64</ele>
  <time>2026-08-28T19:12:21Z</time>
  <course>349.68</course>
  <speed>0.01414213562373095</speed>
  <fix>3d</fix>
</trkpt>
<trkpt lat="40.0728133" lon="-105.2306146">
  <ele>1596.59</ele>
  <time>2026-08-28T19:12:21Z</time>
  <course>79.18</course>
  <speed>0.0</speed>
  <fix>3d</fix>
</trkpt>
<trkpt lat="40.0728134" lon="-105.2306147">
  <ele>1596.65</ele>
  <time>2026-08-28T19:12:21Z</time>
  <course>349.66</course>
  <speed>0.01414213562373095</speed>
  <fix>3d</fix>
</trkpt>
<trkpt lat="40.0728133" lon="-105.2306146">
  <ele>1596.59</ele>
  <time>2026-08-28T19:12:21Z</time>
  <course>78.99</course>
  <speed>0.0</speed>
  <fix>3d</fix>
</trkpt>
<trkpt lat="40.0728134" lon="-105.2306147">
  <ele>1596.65</ele>
  <time>2026-08-28T19:12:21Z</time>
  <course>349.65</course>
  <speed>0.01414213562373095</speed>
  <fix>3d</fix>
</trkpt>
<trkpt lat="40.0728133" lon="-105.2306146">
  <ele>1596.59</ele>
  <time>2026-08-28T19:12:21Z</time>
  <course>77.91</course>
  <speed>0.0</speed>
  <fix>3d</fix>
</trkpt>
<trkpt lat="40.0728134" lon="-105.2306147">
  <ele>1596.65</ele>
  <time>2026-08-28T19:12:21Z</time>
  <course>349.67</course>
  <speed>0.01414213562373095</speed>
  <fix>3d</fix>
</trkpt>
<trkpt lat="40.0728133" lon="-105.2306146">
  <ele>1596.59</ele>
  <time>2026-08-28T19:12:21Z</time>
  <course>73.3</course>
  <speed>0.0</speed>
  <fix>3d</fix>
</trkpt>
<trkpt lat="40.0728134" lon="-105.2306147">
  <ele>1596.65</ele>
  <time>2026-08-28T19:12:21Z</time>
  <course>349.68</course>
  <speed>0.01414213562373095</speed>
  <fix>3d</fix>
</trkpt>
<trkpt lat="40.0728133" lon="-105.2306146">
  <ele>1596.59</ele>
  <time>2026-08-28T19:12:21Z</time>
  <course>68.86</course>
  <speed>0.0</speed>
  <fix>3d</fix>
</trkpt>
<trkpt lat="40.0728134" lon="-105.2306147">
  <ele>1596.65</ele>
  <time>2026-08-28T19:12:21Z</time>
  <course>349.69</course>
  <speed>0.01414213562373095</speed>
  <fix>3d</fix>
</trkpt>
<trkpt lat="40.0728133" lon="-105.2306146">
  <ele>1596.59</ele>
  <time>2026-08-28T19:12:21Z</time>
  <course>65.77</course>
  <speed>0.0</speed>
  <fix>3d</fix>
</trkpt>
<trkpt lat="40.0728134" lon="-105.2306147">
  <ele>1596.66</ele>
  <time>2026-08-28T19:12:21Z</time>
  <course>349.7</course>
  <speed>0.01414213562373095</speed>
  <fix>3d</fix>
</trkpt>
<trkpt lat="40.0728134" lon="-105.2306146">
  <ele>1596.59</ele>
  <time>2026-08-28T19:12:21Z</time>
  <course>64.09</course>
  <speed>0.0</speed>
  <fix>3d</fix>
</trkpt>
<trkpt lat="40.0728134" lon="-105.2306147">
  <ele>1596.66</ele>
  <time>2026-08-28T19:12:21Z</time>
  <course>349.7</course>
  <speed>0.01414213562373095</speed>
  <fix>3d</fix>
</trkpt>
<trkpt lat="40.0728134" lon="-105.2306146">
  <ele>1596.59</ele>
  <time>2026-08-28T19:12:21Z</time>
  <course>65.71</course>
  <speed>0.0</speed>
  <fix>3d</fix>
</trkpt>
<trkpt lat="40.0728134" lon="-105.2306147">
  <ele>1596.66</ele>
  <time>2026-08-28T19:12:21Z</time>
  <course>349.71</course>
  <speed>0.01414213562373095</speed>
  <fix>3d</fix>
</trkpt>
<trkpt lat="40.0728134" lon="-105.2306146">
  <ele>1596.59</ele>
  <time>2026-08-28T19:12:21Z</time>
  <course>69.83</course>
  <speed>0.0</speed>
  <fix>3d</fix>
</trkpt>
<trkpt lat="40.0728134" lon="-105.2306147">
  <ele>1596.66</ele>
  <time>2026-08-28T19:12:21Z</time>
  <course>349.72</course>
  <speed>0.01414213562373095</speed>
  <fix>3d</fix>
</trkpt>
<trkpt lat="40.0728134" lon="-105.2306146">
  <ele>1596.59</ele>
  <time>2026-08-28T19:12:21Z</time>
  <course>76.12</course>
  <speed>0.0</speed>
  <fix>3d</fix>
</trkpt>
<trkpt lat="40.0728134" lon="-105.2306147">
  <ele>1596.66</ele>
  <time>2026-08-28T19:12:21Z</time>
  <course>349.72</course>
  <speed>0.01414213562373095</speed>
  <fix>3d</fix>
</trkpt>
<trkpt lat="40.0728134" lon="-105.2306146">
  <ele>1596.59</ele>
  <time>2026-08-28T19:12:21Z</time>
  <course>85.66</course>
  <speed>0.0</speed>
  <fix>3d</fix>
</trkpt>
<trkpt lat="40.0728134" lon="-105.2306147">
  <ele>1596.65</ele>
  <time>2026-08-28T19:12:21Z</time>
  <course>349.72</course>
  <speed>0.01414213562373095</speed>
  <fix>3d</fix>
</trkpt>
<trkpt lat="40.0728134" lon="-105.2306145">
  <ele>1596.59</ele>
  <time>2026-08-28T19:12:21Z</time>
  <course>94.31</course>
  <speed>0.0</speed>
  <fix>3d</fix>
</trkpt>
<trkpt lat="40.0728134" lon="-105.2306147">
  <ele>1596.65</ele>
  <time>2026-08-28T19:12:21Z</time>
  <course>349.73</course>
  <speed>0.01414213562373095</speed>
  <fix>3d</fix>
</trkpt>
<trkpt lat="40.0728134" lon="-105.2306145">
  <ele>1596.59</ele>
  <time>2026-08-28T19:12:21Z</time>
  <course>103.42</course>
  <speed>0.0</speed>
  <fix>3d</fix>
</trkpt>
<trkpt lat="40.0728134" lon="-105.2306147">
  <ele>1596.65</ele>
  <time>2026-08-28T19:12:21Z</time>
  <course>349.73</course>
  <speed>0.01414213562373095</speed>
  <fix>3d</fix>
</trkpt>
<trkpt lat="40.0728134" lon="-105.2306145">
  <ele>1596.59</ele>
  <time>2026-08-28T19:12:21Z</time>
  <course>113.03</course>
  <speed>0.0</speed>
  <fix>3d</fix>
</trkpt>
<trkpt lat="40.0728134" lon="-105.2306147">
  <ele>1596.65</ele>
  <time>2026-08-28T19:12:21Z</time>
  <course>349.72</course>
  <speed>0.01</speed>
  <fix>3d</fix>
</trkpt>
<trkpt lat="40.0728134" lon="-105.2306145">
  <ele>1596.59</ele>
  <time>2026-08-28T19:12:21Z</time>
  <course>119.74</course>
  <speed>0.0</speed>
  <fix>3d</fix>
</trkpt>
<trkpt lat="40.0728134" lon="-105.2306147">
  <ele>1596.65</ele>
  <time>2026-08-28T19:12:21Z</time>
  <course>349.72</course>
  <speed>0.01</speed>
  <fix>3d</fix>
</trkpt>
<trkpt lat="40.0728134" lon="-105.2306145">
  <ele>1596.59</ele>
  <time>2026-08-28T19:12:21Z</time>
  <course>125.19</course>
  <speed>0.0</speed>
  <fix>3d</fix>
</trkpt>
<trkpt lat="40.0728134" lon="-105.2306147">
  <ele>1596.65</ele>
  <time>2026-08-28T19:12:21Z</time>
  <course>349.72</course>
  <speed>0.01</speed>
  <fix>3d</fix>
</trkpt>
<trkpt lat="40.0728134" lon="-105.2306145">
  <ele>1596.59</ele>
  <time>2026-08-28T19:12:21Z</time>
  <course>130.3</course>
  <speed>0.0</speed>
  <fix>3d</fix>
</trkpt>
<trkpt lat="40.0728134" lon="-105.2306147">
  <ele>1596.65</ele>
  <time>2026-08-28T19:12:21Z</time>
  <course>349.72</course>
  <speed>0.01</speed>
  <fix>3d</fix>
</trkpt>
<trkpt lat="40.0728134" lon="-105.2306144">
  <ele>1596.59</ele>
  <time>2026-08-28T19:12:21Z</time>
  <course>135.67</course>
  <speed>0.0</speed>
  <fix>3d</fix>
</trkpt>
<trkpt lat="40.0728134" lon="-105.2306147">
  <ele>1596.65</ele>
  <time>2026-08-28T19:12:21Z</time>
  <course>349.72</course>
  <speed>0.02</speed>
  <fix>3d</fix>
</trkpt>
<trkpt lat="40.0728134" lon="-105.2306143">
  <ele>1596.58</ele>
  <time>2026-08-28T19:12:21Z</time>
  <course>141.06</course>
  <speed>0.0</speed>
  <fix>3d</fix>
</trkpt>
<trkpt lat="40.0728134" lon="-105.2306146">
  <ele>1596.66</ele>
  <time>2026-08-28T19:12:21Z</time>
  <course>349.72</course>
  <speed>0.02</speed>
  <fix>3d</fix>
</trkpt>
<trkpt lat="40.0728134" lon="-105.2306143">
  <ele>1596.58</ele>
  <time>2026-08-28T19:12:21Z</time>
  <course>146.69</course>
  <speed>0.0</speed>
  <fix>3d</fix>
</trkpt>
<trkpt lat="40.0728134" lon="-105.2306146">
  <ele>1596.66</ele>
  <time>2026-08-28T19:12:21Z</time>
  <course>349.72</course>
  <speed>0.02</speed>
  <fix>3d</fix>
</trkpt>
<trkpt lat="40.0728134" lon="-105.2306143">
  <ele>1596.58</ele>
  <time>2026-08-28T19:12:21Z</time>
  <course>155.36</course>
  <speed>0.0</speed>
  <fix>3d</fix>
</trkpt>
<trkpt lat="40.0728134" lon="-105.2306146">
  <ele>1596.66</ele>
  <time>2026-08-28T19:12:21Z</time>
  <course>349.73</course>
  <speed>0.02</speed>
  <fix>3d</fix>
</trkpt>
<trkpt lat="40.0728134" lon="-105.2306143">
  <ele>1596.58</ele>
  <time>2026-08-28T19:12:21Z</time>
  <course>170.48</course>
  <speed>0.0</speed>
  <fix>3d</fix>
</trkpt>
<trkpt lat="40.0728134" lon="-105.2306146">
  <ele>1596.66</ele>
  <time>2026-08-28T19:12:21Z</time>
  <course>349.73</course>
  <speed>0.02</speed>
  <fix>3d</fix>
</trkpt>
<trkpt lat="40.0728134" lon="-105.2306143">
  <ele>1596.58</ele>
  <time>2026-08-28T19:12:21Z</time>
  <course>186.29</course>
  <speed>0.0</speed>
  <fix>3d</fix>
</trkpt>
<trkpt lat="40.0728134" lon="-105.2306146">
  <ele>1596.66</ele>
  <time>2026-08-28T19:12:21Z</time>
  <course>349.74</course>
  <speed>0.02</speed>
  <fix>3d</fix>
</trkpt>
<trkpt lat="40.0728134" lon="-105.2306143">
  <ele>1596.58</ele>
  <time>2026-08-28T19:12:21Z</time>
  <course>197.81</course>
  <speed>0.0</speed>
  <fix>3d</fix>
</trkpt>
<trkpt lat="40.0728134" lon="-105.2306146">
  <ele>1596.66</ele>
  <time>2026-08-28T19:12:21Z</time>
  <course>349.74</course>
  <speed>0.02</speed>
  <fix>3d</fix>
</trkpt>
<trkpt lat="40.0728134" lon="-105.2306143">
  <ele>1596.58</ele>
  <time>2026-08-28T19:12:21Z</time>
  <course>205.65</course>
  <speed>0.0</speed>
  <fix>3d</fix>
</trkpt>
<trkpt lat="40.0728134" lon="-105.2306146">
  <ele>1596.66</ele>
  <time>2026-08-28T19:12:21Z</time>
  <course>349.74</course>
  <speed>0.022360679774997897</speed>
  <fix>3d</fix>
</trkpt>
<trkpt lat="40.0728133" lon="-105.2306143">
  <ele>1596.57</ele>
  <time>2026-08-28T19:12:21Z</time>
  <course>211.32</course>
  <speed>0.0</speed>
  <fix>3d</fix>
</trkpt>
<trkpt lat="40.0728134" lon="-105.2306146">
  <ele>1596.66</ele>
  <time>2026-08-28T19:12:21Z</time>
  <course>349.74</course>
  <speed>0.02</speed>
  <fix>3d</fix>
</trkpt>
<trkpt lat="40.0728133" lon="-105.2306143">
  <ele>1596.57</ele>
  <time>2026-08-28T19:12:21Z</time>
  <course>216.25</course>
  <speed>0.0</speed>
  <fix>3d</fix>
</trkpt>
<trkpt lat="40.0728134" lon="-105.2306146">
  <ele>1596.66</ele>
  <time>2026-08-28T19:12:21Z</time>
  <course>349.74</course>
  <speed>0.022360679774997897</speed>
  <fix>3d</fix>
</trkpt>
<trkpt lat="40.0728133" lon="-105.2306143">
  <ele>1596.57</ele>
  <time>2026-08-28T19:12:21Z</time>
  <course>220.92</course>
  <speed>0.0</speed>
  <fix>3d</fix>
</trkpt>
<trkpt lat="40.0728134" lon="-105.2306146">
  <ele>1596.67</ele>
  <time>2026-08-28T19:12:21Z</time>
  <course>349.75</course>
  <speed>0.022360679774997897</speed>
  <fix>3d</fix>
</trkpt>
<trkpt lat="40.0728133" lon="-105.2306143">
  <ele>1596.57</ele>
  <time>2026-08-28T19:12:21Z</time>
  <course>226.08</course>
  <speed>0.0</speed>
  <fix>3d</fix>
</trkpt>
<trkpt lat="40.0728134" lon="-105.2306146">
  <ele>1596.67</ele>
  <time>2026-08-28T19:12:21Z</time>
  <course>349.75</course>
  <speed>0.022360679774997897</speed>
  <fix>3d</fix>
</trkpt>
<trkpt lat="40.0728133" lon="-105.2306143">
  <ele>1596.56</ele>
  <time>2026-08-28T19:12:21Z</time>
  <course>231.88</course>
  <speed>0.0</speed>
  <fix>3d</fix>
</trkpt>
<trkpt lat="40.0728134" lon="-105.2306146">
  <ele>1596.67</ele>
  <time>2026-08-28T19:12:21Z</time>
  <course>349.76</course>
  <speed>0.022360679774997897</speed>
  <fix>3d</fix>
</trkpt>
<trkpt lat="40.0728133" lon="-105.2306143">
  <ele>1596.56</ele>
  <time>2026-08-28T19:12:21Z</time>
  <course>239.4</course>
  <speed>0.0</speed>
  <fix>3d</fix>
</trkpt>
<trkpt lat="40.0728134" lon="-105.2306146">
  <ele>1596.67</ele>
  <time>2026-08-28T19:12:21Z</time>
  <course>349.76</course>
  <speed>0.022360679774997897</speed>
  <fix>3d</fix>
</trkpt>
<trkpt lat="40.0728133" lon="-105.2306143">
  <ele>1596.56</ele>
  <time>2026-08-28T19:12:21Z</time>
  <course>247.02</course>
  <speed>0.0</speed>
  <fix>3d</fix>
</trkpt>
<trkpt lat="40.0728134" lon="-105.2306146">
  <ele>1596.66</ele>
  <time>2026-08-28T19:12:21Z</time>
  <course>349.76</course>
  <speed>0.022360679774997897</speed>
  <fix>3d</fix>
</trkpt>
<trkpt lat="40.0728133" lon="-105.2306143">
  <ele>1596.55</ele>
  <time>2026-08-28T19:12:21Z</time>
  <course>254.31</course>
  <speed>0.0</speed>
  <fix>3d</fix>
</trkpt>
<trkpt lat="40.0728134" lon="-105.2306146">
  <ele>1596.66</ele>
  <time>2026-08-28T19:12:21Z</time>
  <course>349.76</course>
  <speed>0.022360679774997897</speed>
  <fix>3d</fix>
</trkpt>
<trkpt lat="40.0728133" lon="-105.2306144">
  <ele>1596.55</ele>
  <time>2026-08-28T19:12:21Z</time>
  <course>261.14</course>
  <speed>0.0</speed>
  <fix>3d</fix>
</trkpt>
<trkpt lat="40.0728134" lon="-105.2306146">
  <ele>1596.66</ele>
  <time>2026-08-28T19:12:21Z</time>
  <course>349.76</course>
  <speed>0.022360679774997897</speed>
  <fix>3d</fix>
</trkpt>
<trkpt lat="40.0728133" lon="-105.2306145">
  <ele>1596.54</ele>
  <time>2026-08-28T19:12:21Z</time>
  <course>266.32</course>
  <speed>0.0</speed>
  <fix>3d</fix>
</trkpt>
<trkpt lat="40.0728134" lon="-105.2306146">
  <ele>1596.66</ele>
  <time>2026-08-28T19:12:21Z</time>
  <course>349.76</course>
  <speed>0.022360679774997897</speed>
  <fix>3d</fix>
</trkpt>
<trkpt lat="40.0728133" lon="-105.2306145">
  <ele>1596.54</ele>
  <time>2026-08-28T19:12:21Z</time>
  <course>270.31</course>
  <speed>0.0</speed>
  <fix>3d</fix>
</trkpt>
<trkpt lat="40.0728134" lon="-105.2306146">
  <ele>1596.66</ele>
  <time>2026-08-28T19:12:21Z</time>
  <course>349.76</course>
  <speed>0.022360679774997897</speed>
  <fix>3d</fix>
</trkpt>
<trkpt lat="40.0728133" lon="-105.2306145">
  <ele>1596.54</ele>
  <time>2026-08-28T19:12:21Z</time>
  <course>273.9</course>
  <speed>0.0</speed>
  <fix>3d</fix>
</trkpt>
<trkpt lat="40.0728134" lon="-105.2306146">
  <ele>1596.65</ele>
  <time>2026-08-28T19:12:21Z</time>
  <course>349.75</course>
  <speed>0.022360679774997897</speed>
  <fix>3d</fix>
</trkpt>
<trkpt lat="40.0728133" lon="-105.2306145">
  <ele>1596.53</ele>
  <time>2026-08-28T19:12:21Z</time>
  <course>277.45</course>
  <speed>0.0</speed>
  <fix>3d</fix>
</trkpt>
<trkpt lat="40.0728134" lon="-105.2306147">
  <ele>1596.65</ele>
  <time>2026-08-28T19:12:21Z</time>
  <course>349.73</course>
  <speed>0.022360679774997897</speed>
  <fix>3d</fix>
</trkpt>
<trkpt lat="40.0728133" lon="-105.2306145">
  <ele>1596.53</ele>
  <time>2026-08-28T19:12:21Z</time>
  <course>282.32</course>
  <speed>0.0</speed>
  <fix>3d</fix>
</trkpt>
<trkpt lat="40.0728134" lon="-105.2306147">
  <ele>1596.64</ele>
  <time>2026-08-28T19:12:21Z</time>
  <course>349.71</course>
  <speed>0.022360679774997897</speed>
  <fix>3d</fix>
</trkpt>
<trkpt lat="40.0728133" lon="-105.2306145">
  <ele>1596.53</ele>
  <time>2026-08-28T19:12:21Z</time>
  <course>291.51</course>
  <speed>0.0</speed>
  <fix>3d</fix>
</trkpt>
<trkpt lat="40.0728134" lon="-105.2306147">
  <ele>1596.64</ele>
  <time>2026-08-28T19:12:21Z</time>
  <course>349.69</course>
  <speed>0.022360679774997897</speed>
  <fix>3d</fix>
</trkpt>
<trkpt lat="40.0728133" lon="-105.2306146">
  <ele>1596.53</ele>
  <time>2026-08-28T19:12:21Z</time>
  <course>306.72</course>
  <speed>0.0</speed>
  <fix>3d</fix>
</trkpt>
<trkpt lat="40.0728134" lon="-105.2306147">
  <ele>1596.64</ele>
  <time>2026-08-28T19:12:21Z</time>
  <course>349.68</course>
  <speed>0.022360679774997897</speed>
  <fix>3d</fix>
</trkpt>
<trkpt lat="40.0728133" lon="-105.2306146">
  <ele>1596.53</ele>
  <time>2026-08-28T19:12:21Z</time>
  <course>328.75</course>
  <speed>0.0</speed>
  <fix>3d</fix>
</trkpt>
<trkpt lat="40.0728134" lon="-105.2306147">
  <ele>1596.64</ele>
  <time>2026-08-28T19:12:21Z</time>
  <course>349.67</course>
  <speed>0.022360679774997897</speed>
  <fix>3d</fix>
</trkpt>
<trkpt lat="40.0728133" lon="-105.2306146">
  <ele>1596.53</ele>
  <time>2026-08-28T19:12:21Z</time>
  <course>355.62</course>
  <speed>0.0</speed>
  <fix>3d</fix>
</trkpt>
<trkpt lat="40.0728134" lon="-105.2306147">
  <ele>1596.64</ele>
  <time>2026-08-28T19:12:21Z</time>
  <course>349.66</course>
  <speed>0.022360679774997897</speed>
  <fix>3d</fix>
</trkpt>
<trkpt lat="40.0728133" lon="-105.2306146">
  <ele>1596.53</ele>
  <time>2026-08-28T19:12:21Z</time>
  <course>18.1</course>
  <speed>0.0</speed>
  <fix>3d</fix>
</trkpt>
<trkpt lat="40.0728134" lon="-105.2306147">
  <ele>1596.64</ele>
  <time>2026-08-28T19:12:21Z</time>
  <course>349.65</course>
  <speed>0.01414213562373095</speed>
  <fix>3d</fix>
</trkpt>
<trkpt lat="40.0728133" lon="-105.2306146">
  <ele>1596.53</ele>
  <time>2026-08-28T19:12:21Z</time>
  <course>33.17</course>
  <speed>0.0</speed>
  <fix>3d</fix>
</trkpt>
<trkpt lat="40.0728134" lon="-105.2306147">
  <ele>1596.63</ele>
  <time>2026-08-28T19:12:21Z</time>
  <course>349.65</course>
  <speed>0.01414213562373095</speed>
  <fix>3d</fix>
</trkpt>
<trkpt lat="40.0728133" lon="-105.2306146">
  <ele>1596.53</ele>
  <time>2026-08-28T19:12:21Z</time>
  <course>41.37</course>
  <speed>0.0</speed>
  <fix>3d</fix>
</trkpt>
<trkpt lat="40.0728134" lon="-105.2306147">
  <ele>1596.63</ele>
  <time>2026-08-28T19:12:21Z</time>
  <course>349.62</course>
  <speed>0.01414213562373095</speed>
  <fix>3d</fix>
</trkpt>
<trkpt lat="40.0728133" lon="-105.2306146">
  <ele>1596.53</ele>
  <time>2026-08-28T19:12:21Z</time>
  <course>50.68</course>
  <speed>0.0</speed>
  <fix>3d</fix>
</trkpt>
<trkpt lat="40.0728134" lon="-105.2306147">
  <ele>1596.63</ele>
  <time>2026-08-28T19:12:21Z</time>
  <course>349.59</course>
  <speed>0.01414213562373095</speed>
  <fix>3d</fix>
</trkpt>
<trkpt lat="40.0728133" lon="-105.2306146">
  <ele>1596.53</ele>
  <time>2026-08-28T19:12:21Z</time>
  <course>63.36</course>
  <speed>0.0</speed>
  <fix>3d</fix>
</trkpt>
<trkpt lat="40.0728134" lon="-105.2306147">
  <ele>1596.63</ele>
  <time>2026-08-28T19:12:21Z</time>
  <course>349.57</course>
  <speed>0.01414213562373095</speed>
  <fix>3d</fix>
</trkpt>
<trkpt lat="40.0728133" lon="-105.2306146">
  <ele>1596.53</ele>
  <time>2026-08-28T19:12:21Z</time>
  <course>73.89</course>
  <speed>0.0</speed>
  <fix>3d</fix>
</trkpt>
<trkpt lat="40.0728134" lon="-105.2306147">
  <ele>1596.63</ele>
  <time>2026-08-28T19:12:21Z</time>
  <course>349.56</course>
  <speed>0.01414213562373095</speed>
  <fix>3d</fix>
</trkpt>
<trkpt lat="40.0728133" lon="-105.2306146">
  <ele>1596.53</ele>
  <time>2026-08-28T19:12:21Z</time>
  <course>80.34</course>
  <speed>0.0</speed>
  <fix>3d</fix>
</trkpt>
<trkpt lat="40.0728134" lon="-105.2306147">
  <ele>1596.63</ele>
  <time>2026-08-28T19:12:21Z</time>
  <course>349.55</course>
  <speed>0.01414213562373095</speed>
  <fix>3d</fix>
</trkpt>
<trkpt lat="40.0728133" lon="-105.2306146">
  <ele>1596.54</ele>
  <time>2026-08-28T19:12:21Z</time>
  <course>82.33</course>
  <speed>0.0</speed>
  <fix>3d</fix>
</trkpt>
<trkpt lat="40.0728134" lon="-105.2306147">
  <ele>1596.64</ele>
  <time>2026-08-28T19:12:21Z</time>
  <course>349.55</course>
  <speed>0.01414213562373095</speed>
  <fix>3d</fix>
</trkpt>
<trkpt lat="40.0728133" lon="-105.2306146">
  <ele>1596.54</ele>
  <time>2026-08-28T19:12:21Z</time>
  <course>83.9</course>
  <speed>0.0</speed>
  <fix>3d</fix>
</trkpt>
<trkpt lat="40.0728134" lon="-105.2306147">
  <ele>1596.64</ele>
  <time>2026-08-28T19:12:21Z</time>
  <course>349.55</course>
  <speed>0.01414213562373095</speed>
  <fix>3d</fix>
</trkpt>
<trkpt lat="40.0728133" lon="-105.2306146">
  <ele>1596.55</ele>
  <time>2026-08-28T19:12:21Z</time>
  <course>85.53</course>
  <speed>0.0</speed>
  <fix>3d</fix>
</trkpt>
<trkpt lat="40.0728134" lon="-105.2306147">
  <ele>1596.64</ele>
  <time>2026-08-28T19:12:21Z</time>
  <course>349.56</course>
  <speed>0.01414213562373095</speed>
  <fix>3d</fix>
</trkpt>
<trkpt lat="40.0728133" lon="-105.2306146">
  <ele>1596.55</ele>
  <time>2026-08-28T19:12:21Z</time>
  <course>83.49</course>
  <speed>0.0</speed>
  <fix>3d</fix>
</trkpt>
<trkpt lat="40.0728134" lon="-105.2306147">
  <ele>1596.64</ele>
  <time>2026-08-28T19:12:21Z</time>
  <course>349.57</course>
  <speed>0.01414213562373095</speed>
  <fix>3d</fix>
</trkpt>
<trkpt lat="40.0728133" lon="-105.2306146">
  <ele>1596.55</ele>
  <time>2026-08-28T19:12:21Z</time>
  <course>77.87</course>
  <speed>0.0</speed>
  <fix>3d</fix>
</trkpt>
<trkpt lat="40.0728134" lon="-105.2306147">
  <ele>1596.65</ele>
  <time>2026-08-28T19:12:21Z</time>
  <course>349.57</course>
  <speed>0.01414213562373095</speed>
  <fix>3d</fix>
</trkpt>
<trkpt lat="40.0728133" lon="-105.2306145">
  <ele>1596.56</ele>
  <time>2026-08-28T19:12:21Z</time>
  <course>73.57</course>
  <speed>0.0</speed>
  <fix>3d</fix>
</trkpt>
<trkpt lat="40.0728134" lon="-105.2306147">
  <ele>1596.65</ele>
  <time>2026-08-28T19:12:21Z</time>
  <course>349.57</course>
  <speed>0.01414213562373095</speed>
  <fix>3d</fix>
</trkpt>
<trkpt lat="40.0728133" lon="-105.2306145">
  <ele>1596.56</ele>
  <time>2026-08-28T19:12:21Z</time>
  <course>74.28</course>
  <speed>0.0</speed>
  <fix>3d</fix>
</trkpt>
<trkpt lat="40.0728134" lon="-105.2306147">
  <ele>1596.65</ele>
  <time>2026-08-28T19:12:21Z</time>
  <course>349.58</course>
  <speed>0.01414213562373095</speed>
  <fix>3d</fix>
</trkpt>
<trkpt lat="40.0728133" lon="-105.2306145">
  <ele>1596.56</ele>
  <time>2026-08-28T19:12:21Z</time>
  <course>77.68</course>
  <speed>0.0</speed>
  <fix>3d</fix>
</trkpt>
<trkpt lat="40.0728134" lon="-105.2306147">
  <ele>1596.64</ele>
  <time>2026-08-28T19:12:21Z</time>
  <course>349.59</course>
  <speed>0.01414213562373095</speed>
  <fix>3d</fix>
</trkpt>
<trkpt lat="40.0728133" lon="-105.2306145">
  <ele>1596.56</ele>
  <time>2026-08-28T19:12:21Z</time>
  <course>80.27</course>
  <speed>0.0</speed>
  <fix>3d</fix>
</trkpt>
<trkpt lat="40.0728134" lon="-105.2306147">
  <ele>1596.65</ele>
  <time>2026-08-28T19:12:21Z</time>
  <course>349.59</course>
  <speed>0.01414213562373095</speed>
  <fix>3d</fix>
</trkpt>
<trkpt lat="40.0728133" lon="-105.2306145">
  <ele>1596.56</ele>
  <time>2026-08-28T19:12:21Z</time>
  <course>78.58</course>
  <speed>0.0</speed>
  <fix>3d</fix>
</trkpt>
<trkpt lat="40.0728134" lon="-105.2306147">
  <ele>1596.65</ele>
  <time>2026-08-28T19:12:21Z</time>
  <course>349.58</course>
  <speed>0.01414213562373095</speed>
  <fix>3d</fix>
</trkpt>
<trkpt lat="40.0728133" lon="-105.2306145">
  <ele>1596.57</ele>
  <time>2026-08-28T19:12:21Z</time>
  <course>74.11</course>
  <speed>0.0</speed>
  <fix>3d</fix>
</trkpt>
<trkpt lat="40.0728134" lon="-105.2306147">
  <ele>1596.65</ele>
  <time>2026-08-28T19:12:21Z</time>
  <course>349.59</course>
  <speed>0.01414213562373095</speed>
  <fix>3d</fix>
</trkpt>
<trkpt lat="40.0728133" lon="-105.2306145">
  <ele>1596.57</ele>
  <time>2026-08-28T19:12:21Z</time>
  <course>69.78</course>
  <speed>0.0</speed>
  <fix>3d</fix>
</trkpt>
<trkpt lat="40.0728134" lon="-105.2306147">
  <ele>1596.65</ele>
  <time>2026-08-28T19:12:21Z</time>
  <course>349.59</course>
  <speed>0.01414213562373095</speed>
  <fix>3d</fix>
</trkpt>
<trkpt lat="40.0728133" lon="-105.2306144">
  <ele>1596.57</ele>
  <time>2026-08-28T19:12:21Z</time>
  <course>64.95</course>
  <speed>0.0</speed>
  <fix>3d</fix>
</trkpt>
<trkpt lat="40.0728134" lon="-105.2306147">
  <ele>1596.66</ele>
  <time>2026-08-28T19:12:21Z</time>
  <course>349.6</course>
  <speed>0.022360679774997897</speed>
  <fix>3d</fix>
</trkpt>
<trkpt lat="40.0728133" lon="-105.2306143">
  <ele>1596.57</ele>
  <time>2026-08-28T19:12:21Z</time>
  <course>59.71</course>
  <speed>0.0</speed>
  <fix>3d</fix>
</trkpt>
<trkpt lat="40.0728134" lon="-105.2306147">
  <ele>1596.66</ele>
  <time>2026-08-28T19:12:21Z</time>
  <course>349.6</course>
  <speed>0.022360679774997897</speed>
  <fix>3d</fix>
</trkpt>
<trkpt lat="40.0728133" lon="-105.2306143">
  <ele>1596.57</ele>
  <time>2026-08-28T19:12:21Z</time>
  <course>54.14</course>
  <speed>0.0</speed>
  <fix>3d</fix>
</trkpt>
<trkpt lat="40.0728134" lon="-105.2306147">
  <ele>1596.66</ele>
  <time>2026-08-28T19:12:21Z</time>
  <course>349.61</course>
  <speed>0.022360679774997897</speed>
  <fix>3d</fix>
</trkpt>
<trkpt lat="40.0728133" lon="-105.2306143">
  <ele>1596.57</ele>
  <time>2026-08-28T19:12:21Z</time>
  <course>47.06</course>
  <speed>0.0</speed>
  <fix>3d</fix>
</trkpt>
<trkpt lat="40.0728134" lon="-105.2306147">
  <ele>1596.66</ele>
  <time>2026-08-28T19:12:21Z</time>
  <course>349.63</course>
  <speed>0.022360679774997897</speed>
  <fix>3d</fix>
</trkpt>
<trkpt lat="40.0728133" lon="-105.2306143">
  <ele>1596.57</ele>
  <time>2026-08-28T19:12:21Z</time>
  <course>34.9</course>
  <speed>0.0</speed>
  <fix>3d</fix>
</trkpt>
<trkpt lat="40.0728134" lon="-105.2306146">
  <ele>1596.66</ele>
  <time>2026-08-28T19:12:21Z</time>
  <course>349.64</course>
  <speed>0.022360679774997897</speed>
  <fix>3d</fix>
</trkpt>
<trkpt lat="40.0728133" lon="-105.2306143">
  <ele>1596.57</ele>
  <time>2026-08-28T19:12:21Z</time>
  <course>15.19</course>
  <speed>0.0</speed>
  <fix>3d</fix>
</trkpt>
<trkpt lat="40.0728134" lon="-105.2306146">
  <ele>1596.65</ele>
  <time>2026-08-28T19:12:21Z</time>
  <course>349.64</course>
  <speed>0.022360679774997897</speed>
  <fix>3d</fix>
</trkpt>
<trkpt lat="40.0728133" lon="-105.2306143">
  <ele>1596.57</ele>
  <time>2026-08-28T19:12:21Z</time>
  <course>351.33</course>
  <speed>0.0</speed>
  <fix>3d</fix>
</trkpt>
<trkpt lat="40.0728134" lon="-105.2306146">
  <ele>1596.65</ele>
  <time>2026-08-28T19:12:21Z</time>
  <course>349.63</course>
  <speed>0.022360679774997897</speed>
  <fix>3d</fix>
</trkpt>
<trkpt lat="40.0728133" lon="-105.2306143">
  <ele>1596.57</ele>
  <time>2026-08-28T19:12:21Z</time>
  <course>333.23</course>
  <speed>0.0</speed>
  <fix>3d</fix>
</trkpt>
<trkpt lat="40.0728134" lon="-105.2306146">
  <ele>1596.65</ele>
  <time>2026-08-28T19:12:21Z</time>
  <course>349.64</course>
  <speed>0.022360679774997897</speed>
  <fix>3d</fix>
</trkpt>
<trkpt lat="40.0728133" lon="-105.2306143">
  <ele>1596.57</ele>
  <time>2026-08-28T19:12:21Z</time>
  <course>319.79</course>
  <speed>0.0</speed>
  <fix>3d</fix>
</trkpt>
<trkpt lat="40.0728134" lon="-105.2306146">
  <ele>1596.65</ele>
  <time>2026-08-28T19:12:21Z</time>
  <course>349.63</course>
  <speed>0.022360679774997897</speed>
  <fix>3d</fix>
</trkpt>
<trkpt lat="40.0728133" lon="-105.2306143">
  <ele>1596.57</ele>
  <time>2026-08-28T19:12:21Z</time>
  <course>306.83</course>
  <speed>0.0</speed>
  <fix>3d</fix>
</trkpt>
<trkpt lat="40.0728134" lon="-105.2306146">
  <ele>1596.64</ele>
  <time>2026-08-28T19:12:21Z</time>
  <course>349.61</course>
  <speed>0.022360679774997897</speed>
  <fix>3d</fix>
</trkpt>
<trkpt lat="40.0728133" lon="-105.2306143">
  <ele>1596.57</ele>
  <time>2026-08-28T19:12:21Z</time>
  <course>297.52</course>
  <speed>0.0</speed>
  <fix>3d</fix>
</trkpt>
<trkpt lat="40.0728134" lon="-105.2306146">
  <ele>1596.64</ele>
  <time>2026-08-28T19:12:21Z</time>
  <course>349.6</course>
  <speed>0.022360679774997897</speed>
  <fix>3d</fix>
</trkpt>
<trkpt lat="40.0728133" lon="-105.2306143">
  <ele>1596.57</ele>
  <time>2026-08-28T19:12:21Z</time>
  <course>290.69</course>
  <speed>0.0</speed>
  <fix>3d</fix>
</trkpt>
<trkpt lat="40.0728134" lon="-105.2306146">
  <ele>1596.64</ele>
  <time>2026-08-28T19:12:21Z</time>
  <course>349.59</course>
  <speed>0.022360679774997897</speed>
  <fix>3d</fix>
</trkpt>
<trkpt lat="40.0728133" lon="-105.2306143">
  <ele>1596.57</ele>
  <time>2026-08-28T19:12:21Z</time>
  <course>285.52</course>
  <speed>0.0</speed>
  <fix>3d</fix>
</trkpt>
<trkpt lat="40.0728134" lon="-105.2306146">
  <ele>1596.64</ele>
  <time>2026-08-28T19:12:21Z</time>
  <course>349.57</course>
  <speed>0.022360679774997897</speed>
  <fix>3d</fix>
</trkpt>
<trkpt lat="40.0728133" lon="-105.2306143">
  <ele>1596.57</ele>
  <time>2026-08-28T19:12:21Z</time>
  <course>282.29</course>
  <speed>0.0</speed>
  <fix>3d</fix>
</trkpt>
<trkpt lat="40.0728134" lon="-105.2306146">
  <ele>1596.64</ele>
  <time>2026-08-28T19:12:21Z</time>
  <course>349.55</course>
  <speed>0.022360679774997897</speed>
  <fix>3d</fix>
</trkpt>
<trkpt lat="40.0728133" lon="-105.2306143">
  <ele>1596.57</ele>
  <time>2026-08-28T19:12:21Z</time>
  <course>281.98</course>
  <speed>0.0</speed>
  <fix>3d</fix>
</trkpt>
<trkpt lat="40.0728134" lon="-105.2306146">
  <ele>1596.64</ele>
  <time>2026-08-28T19:12:21Z</time>
  <course>349.54</course>
  <speed>0.022360679774997897</speed>
  <fix>3d</fix>
</trkpt>
<trkpt lat="40.0728133" lon="-105.2306143">
  <ele>1596.57</ele>
  <time>2026-08-28T19:12:21Z</time>
  <course>282.5</course>
  <speed>0.0</speed>
  <fix>3d</fix>
</trkpt>
<trkpt lat="40.0728134" lon="-105.2306146">
  <ele>1596.64</ele>
  <time>2026-08-28T19:12:21Z</time>
  <course>349.54</course>
  <speed>0.022360679774997897</speed>
  <fix>3d</fix>
</trkpt>
<trkpt lat="40.0728133" lon="-105.2306143">
  <ele>1596.57</ele>
  <time>2026-08-28T19:12:21Z</time>
  <course>282.63</course>
  <speed>0.0</speed>
  <fix>3d</fix>
</trkpt>
<trkpt lat="40.0728134" lon="-105.2306146">
  <ele>1596.64</ele>
  <time>2026-08-28T19:12:21Z</time>
  <course>349.55</course>
  <speed>0.022360679774997897</speed>
  <fix>3d</fix>
</trkpt>
<trkpt lat="40.0728133" lon="-105.2306144">
  <ele>1596.58</ele>
  <time>2026-08-28T19:12:21Z</time>
  <course>282.86</course>
  <speed>0.0</speed>
  <fix>3d</fix>
</trkpt>
<trkpt lat="40.0728134" lon="-105.2306146">
  <ele>1596.65</ele>
  <time>2026-08-28T19:12:21Z</time>
  <course>349.55</course>
  <speed>0.022360679774997897</speed>
  <fix>3d</fix>
</trkpt>
<trkpt lat="40.0728133" lon="-105.2306145">
  <ele>1596.58</ele>
  <time>2026-08-28T19:12:21Z</time>
  <course>282.18</course>
  <speed>0.0</speed>
  <fix>3d</fix>
</trkpt>
<trkpt lat="40.0728134" lon="-105.2306146">
  <ele>1596.66</ele>
  <time>2026-08-28T19:12:21Z</time>
  <course>349.56</course>
  <speed>0.022360679774997897</speed>
  <fix>3d</fix>
</trkpt>
<trkpt lat="40.0728133" lon="-105.2306145">
  <ele>1596.58</ele>
  <time>2026-08-28T19:12:21Z</time>
  <course>279.8</course>
  <speed>0.0</speed>
  <fix>3d</fix>
</trkpt>
<trkpt lat="40.0728134" lon="-105.2306146">
  <ele>1596.66</ele>
  <time>2026-08-28T19:12:21Z</time>
  <course>349.57</course>
  <speed>0.022360679774997897</speed>
  <fix>3d</fix>
</trkpt>
<trkpt lat="40.0728133" lon="-105.2306145">
  <ele>1596.59</ele>
  <time>2026-08-28T19:12:21Z</time>
  <course>277.15</course>
  <speed>0.0</speed>
  <fix>3d</fix>
</trkpt>
<trkpt lat="40.0728134" lon="-105.2306147">
  <ele>1596.66</ele>
  <time>2026-08-28T19:12:21Z</time>
  <course>349.57</course>
  <speed>0.022360679774997897</speed>
  <fix>3d</fix>
</trkpt>
<trkpt lat="40.0728134" lon="-105.2306145">
  <ele>1596.59</ele>
  <time>2026-08-28T19:12:21Z</time>
  <course>277.7</course>
  <speed>0.0</speed>
  <fix>3d</fix>
</trkpt>
<trkpt lat="40.0728134" lon="-105.2306147">
  <ele>1596.66</ele>
  <time>2026-08-28T19:12:21Z</time>
  <course>349.58</course>
  <speed>0.022360679774997897</speed>
  <fix>3d</fix>
</trkpt>
<trkpt lat="40.0728134" lon="-105.2306145">
  <ele>1596.59</ele>
  <time>2026-08-28T19:12:21Z</time>
  <course>282.17</course>
  <speed>0.0</speed>
  <fix>3d</fix>
</trkpt>
<trkpt lat="40.0728134" lon="-105.2306147">
  <ele>1596.67</ele>
  <time>2026-08-28T19:12:21Z</time>
  <course>349.61</course>
  <speed>0.022360679774997897</speed>
  <fix>3d</fix>
</trkpt>
<trkpt lat="40.0728134" lon="-105.2306146">
  <ele>1596.59</ele>
  <time>2026-08-28T19:12:21Z</time>
  <course>287.11</course>
  <speed>0.0</speed>
  <fix>3d</fix>
</trkpt>
<trkpt lat="40.0728134" lon="-105.2306147">
  <ele>1596.66</ele>
  <time>2026-08-28T19:12:21Z</time>
  <course>349.63</course>
  <speed>0.022360679774997897</speed>
  <fix>3d</fix>
</trkpt>
<trkpt lat="40.0728134" lon="-105.2306146">
  <ele>1596.58</ele>
  <time>2026-08-28T19:12:21Z</time>
  <course>291.96</course>
  <speed>0.0</speed>
  <fix>3d</fix>
</trkpt>
<trkpt lat="40.0728134" lon="-105.2306147">
  <ele>1596.66</ele>
  <time>2026-08-28T19:12:21Z</time>
  <course>349.65</course>
  <speed>0.022360679774997897</speed>
  <fix>3d</fix>
</trkpt>
<trkpt lat="40.0728134" lon="-105.2306146">
  <ele>1596.58</ele>
  <time>2026-08-28T19:12:21Z</time>
  <course>301.29</course>
  <speed>0.0</speed>
  <fix>3d</fix>
</trkpt>
<trkpt lat="40.0728134" lon="-105.2306147">
  <ele>1596.66</ele>
  <time>2026-08-28T19:12:21Z</time>
  <course>349.65</course>
  <speed>0.022360679774997897</speed>
  <fix>3d</fix>
</trkpt>
<trkpt lat="40.0728134" lon="-105.2306146">
  <ele>1596.58</ele>
  <time>2026-08-28T19:12:21Z</time>
  <course>325.5</course>
  <speed>0.0</speed>
  <fix>3d</fix>
</trkpt>
<trkpt lat="40.0728134" lon="-105.2306147">
  <ele>1596.66</ele>
  <time>2026-08-28T19:12:22Z</time>
  <course>349.64</course>
  <speed>0.01414213562373095</speed>
  <fix>3d</fix>
</trkpt>
<trkpt lat="40.0728134" lon="-105.2306146">
  <ele>1596.58</ele>
  <time>2026-08-28T19:12:22Z</time>
  <course>98.38</course>
  <speed>0.0</speed>
  <fix>3d</fix>
</trkpt>
<trkpt lat="40.0728134" lon="-105.2306147">
  <ele>1596.65</ele>
  <time>2026-08-28T19:12:22Z</time>
  <course>349.62</course>
  <speed>0.01414213562373095</speed>
  <fix>3d</fix>
</trkpt>
<trkpt lat="40.0728134" lon="-105.2306146">
  <ele>1596.57</ele>
  <time>2026-08-28T19:12:22Z</time>
  <course>112.67</course>
  <speed>0.0</speed>
  <fix>3d</fix>
</trkpt>
<trkpt lat="40.0728134" lon="-105.2306147">
  <ele>1596.65</ele>
  <time>2026-08-28T19:12:22Z</time>
  <course>349.61</course>
  <speed>0.01414213562373095</speed>
  <fix>3d</fix>
</trkpt>
<trkpt lat="40.0728134" lon="-105.2306146">
  <ele>1596.57</ele>
  <time>2026-08-28T19:12:22Z</time>
  <course>116.43</course>
  <speed>0.0</speed>
  <fix>3d</fix>
</trkpt>
<trkpt lat="40.0728134" lon="-105.2306147">
  <ele>1596.65</ele>
  <time>2026-08-28T19:12:22Z</time>
  <course>349.61</course>
  <speed>0.01</speed>
  <fix>3d</fix>
</trkpt>
<trkpt lat="40.0728134" lon="-105.2306146">
  <ele>1596.57</ele>
  <time>2026-08-28T19:12:22Z</time>
  <course>120.15</course>
  <speed>0.0</speed>
  <fix>3d</fix>
</trkpt>
<trkpt lat="40.0728134" lon="-105.2306147">
  <ele>1596.65</ele>
  <time>2026-08-28T19:12:22Z</time>
  <course>349.6</course>
  <speed>0.01</speed>
  <fix>3d</fix>
</trkpt>
<trkpt lat="40.0728134" lon="-105.2306146">
  <ele>1596.57</ele>
  <time>2026-08-28T19:12:22Z</time>
  <course>122.98</course>
  <speed>0.0</speed>
  <fix>3d</fix>
</trkpt>
<trkpt lat="40.0728134" lon="-105.2306147">
  <ele>1596.65</ele>
  <time>2026-08-28T19:12:22Z</time>
  <course>349.6</course>
  <speed>0.01</speed>
  <fix>3d</fix>
</trkpt>
<trkpt lat="40.0728134" lon="-105.2306146">
  <ele>1596.57</ele>
  <time>2026-08-28T19:12:22Z</time>
  <course>125.25</course>
  <speed>0.0</speed>
  <fix>3d</fix>
</trkpt>
<trkpt lat="40.0728134" lon="-105.2306147">
  <ele>1596.65</ele>
  <time>2026-08-28T19:12:22Z</time>
  <course>349.59</course>
  <speed>0.01</speed>
  <fix>3d</fix>
</trkpt>
<trkpt lat="40.0728134" lon="-105.2306146">
  <ele>1596.57</ele>
  <time>2026-08-28T19:12:22Z</time>
  <course>126.89</course>
  <speed>0.0</speed>
  <fix>3d</fix>
</trkpt>
<trkpt lat="40.0728134" lon="-105.2306147">
  <ele>1596.65</ele>
  <time>2026-08-28T19:12:22Z</time>
  <course>349.58</course>
  <speed>0.01</speed>
  <fix>3d</fix>
</trkpt>
<trkpt lat="40.0728134" lon="-105.2306146">
  <ele>1596.57</ele>
  <time>2026-08-28T19:12:22Z</time>
  <course>126.92</course>
  <speed>0.01</speed>
  <fix>3d</fix>
</trkpt>
<trkpt lat="40.0728134" lon="-105.2306147">
  <ele>1596.65</ele>
  <time>2026-08-28T19:12:22Z</time>
  <course>349.58</course>
  <speed>0.01</speed>
  <fix>3d</fix>
</trkpt>
<trkpt lat="40.0728134" lon="-105.2306146">
  <ele>1596.57</ele>
  <time>2026-08-28T19:12:22Z</time>
  <course>125.27</course>
  <speed>0.01</speed>
  <fix>3d</fix>
</trkpt>
<trkpt lat="40.0728134" lon="-105.2306147">
  <ele>1596.66</ele>
  <time>2026-08-28T19:12:22Z</time>
  <course>349.58</course>
  <speed>0.01</speed>
  <fix>3d</fix>
</trkpt>
<trkpt lat="40.0728134" lon="-105.2306146">
  <ele>1596.57</ele>
  <time>2026-08-28T19:12:22Z</time>
  <course>123.5</course>
  <speed>0.01</speed>
  <fix>3d</fix>
</trkpt>
<trkpt lat="40.0728134" lon="-105.2306147">
  <ele>1596.66</ele>
  <time>2026-08-28T19:12:22Z</time>
  <course>349.59</course>
  <speed>0.01414213562373095</speed>
  <fix>3d</fix>
</trkpt>
<trkpt lat="40.0728134" lon="-105.2306145">
  <ele>1596.57</ele>
  <time>2026-08-28T19:12:22Z</time>
  <course>121.73</course>
  <speed>0.01</speed>
  <fix>3d</fix>
</trkpt>
<trkpt lat="40.0728134" lon="-105.2306147">
  <ele>1596.66</ele>
  <time>2026-08-28T19:12:22Z</time>
  <course>349.59</course>
  <speed>0.01414213562373095</speed>
  <fix>3d</fix>
</trkpt>
<trkpt lat="40.0728134" lon="-105.2306145">
  <ele>1596.57</ele>
  <time>2026-08-28T19:12:22Z</time>
  <course>121.0</course>
  <speed>0.0</speed>
  <fix>3d</fix>
</trkpt>
<trkpt lat="40.0728134" lon="-105.2306147">
  <ele>1596.66</ele>
  <time>2026-08-28T19:12:22Z</time>
  <course>349.59</course>
  <speed>0.01414213562373095</speed>
  <fix>3d</fix>
</trkpt>
<trkpt lat="40.0728134" lon="-105.2306145">
  <ele>1596.57</ele>
  <time>2026-08-28T19:12:22Z</time>
  <course>123.58</course>
  <speed>0.0</speed>
  <fix>3d</fix>
</trkpt>
<trkpt lat="40.0728134" lon="-105.2306147">
  <ele>1596.66</ele>
  <time>2026-08-28T19:12:22Z</time>
  <course>349.6</course>
  <speed>0.01414213562373095</speed>
  <fix>3d</fix>
</trkpt>
<trkpt lat="40.0728134" lon="-105.2306145">
  <ele>1596.57</ele>
  <time>2026-08-28T19:12:22Z</time>
  <course>127.91</course>
  <speed>0.0</speed>
  <fix>3d</fix>
</trkpt>
<trkpt lat="40.0728134" lon="-105.2306147">
  <ele>1596.66</ele>
  <time>2026-08-28T19:12:22Z</time>
  <course>349.61</course>
  <speed>0.022360679774997897</speed>
  <fix>3d</fix>
</trkpt>
<trkpt lat="40.0728133" lon="-105.2306145">
  <ele>1596.57</ele>
  <time>2026-08-28T19:12:22Z</time>
  <course>133.37</course>
  <speed>0.0</speed>
  <fix>3d</fix>
</trkpt>
<trkpt lat="40.0728134" lon="-105.2306147">
  <ele>1596.66</ele>
  <time>2026-08-28T19:12:22Z</time>
  <course>349.6</course>
  <speed>0.02</speed>
  <fix>3d</fix>
</trkpt>
<trkpt lat="40.0728133" lon="-105.2306145">
  <ele>1596.57</ele>
  <time>2026-08-28T19:12:22Z</time>
  <course>140.0</course>
  <speed>0.0</speed>
  <fix>3d</fix>
</trkpt>
<trkpt lat="40.0728134" lon="-105.2306147">
  <ele>1596.66</ele>
  <time>2026-08-28T19:12:22Z</time>
  <course>349.61</course>
  <speed>0.02</speed>
  <fix>3d</fix>
</trkpt>
<trkpt lat="40.0728133" lon="-105.2306144">
  <ele>1596.57</ele>
  <time>2026-08-28T19:12:22Z</time>
  <course>144.37</course>
  <speed>0.0</speed>
  <fix>3d</fix>
</trkpt>
<trkpt lat="40.0728134" lon="-105.2306147">
  <ele>1596.66</ele>
  <time>2026-08-28T19:12:22Z</time>
  <course>349.61</course>
  <speed>0.022360679774997897</speed>
  <fix>3d</fix>
</trkpt>
<trkpt lat="40.0728133" lon="-105.2306143">
  <ele>1596.56</ele>
  <time>2026-08-28T19:12:22Z</time>
  <course>145.27</course>
  <speed>0.0</speed>
  <fix>3d</fix>
</trkpt>
<trkpt lat="40.0728134" lon="-105.2306147">
  <ele>1596.65</ele>
  <time>2026-08-28T19:12:22Z</time>
  <course>349.61</course>
  <speed>0.022360679774997897</speed>
  <fix>3d</fix>
</trkpt>
<trkpt lat="40.0728133" lon="-105.2306143">
  <ele>1596.56</ele>
  <time>2026-08-28T19:12:22Z</time>
  <course>145.2</course>
  <speed>0.0</speed>
  <fix>3d</fix>
</trkpt>
<trkpt lat="40.0728134" lon="-105.2306147">
  <ele>1596.65</ele>
  <time>2026-08-28T19:12:22Z</time>
  <course>349.6</course>
  <speed>0.022360679774997897</speed>
  <fix>3d</fix>
</trkpt>
<trkpt lat="40.0728133" lon="-105.2306143">
  <ele>1596.56</ele>
  <time>2026-08-28T19:12:22Z</time>
  <course>143.08</course>
  <speed>0.0</speed>
  <fix>3d</fix>
</trkpt>
<trkpt lat="40.0728134" lon="-105.2306146">
  <ele>1596.65</ele>
  <time>2026-08-28T19:12:22Z</time>
  <course>349.6</course>
  <speed>0.022360679774997897</speed>
  <fix>3d</fix>
</trkpt>
<trkpt lat="40.0728133" lon="-105.2306143">
  <ele>1596.56</ele>
  <time>2026-08-28T19:12:22Z</time>
  <course>138.47</course>
  <speed>0.0</speed>
  <fix>3d</fix>
</trkpt>
<trkpt lat="40.0728134" lon="-105.2306146">
  <ele>1596.65</ele>
  <time>2026-08-28T19:12:22Z</time>
  <course>349.58</course>
  <speed>0.022360679774997897</speed>
  <fix>3d</fix>
</trkpt>
<trkpt lat="40.0728133" lon="-105.2306143">
  <ele>1596.56</ele>
  <time>2026-08-28T19:12:22Z</time>
  <course>138.04</course>
  <speed>0.0</speed>
  <fix>3d</fix>
</trkpt>
<trkpt lat="40.0728134" lon="-105.2306146">
  <ele>1596.64</ele>
  <time>2026-08-28T19:12:22Z</time>
  <course>349.56</course>
  <speed>0.022360679774997897</speed>
  <fix>3d</fix>
</trkpt>
<trkpt lat="40.0728133" lon="-105.2306143">
  <ele>1596.56</ele>
  <time>2026-08-28T19:12:22Z</time>
  <course>146.14</course>
  <speed>0.0</speed>
  <fix>3d</fix>
</trkpt>
<trkpt lat="40.0728134" lon="-105.2306146">
  <ele>1596.65</ele>
  <time>2026-08-28T19:12:22Z</time>
  <course>349.54</course>
  <speed>0.022360679774997897</speed>
  <fix>3d</fix>
</trkpt>
<trkpt lat="40.0728133" lon="-105.2306143">
  <ele>1596.56</ele>
  <time>2026-08-28T19:12:22Z</time>
  <course>214.92</course>
  <speed>0.0</speed>
  <fix>3d</fix>
</trkpt>
<trkpt lat="40.0728134" lon="-105.2306146">
  <ele>1596.65</ele>
  <time>2026-08-28T19:12:22Z</time>
  <course>349.53</course>
  <speed>0.022360679774997897</speed>
  <fix>3d</fix>
</trkpt>
<trkpt lat="40.0728133" lon="-105.2306143">
  <ele>1596.56</ele>
  <time>2026-08-28T19:12:22Z</time>
  <course>257.81</course>
  <speed>0.0</speed>
  <fix>3d</fix>
</trkpt>
<trkpt lat="40.0728134" lon="-105.2306146">
  <ele>1596.65</ele>
  <time>2026-08-28T19:12:22Z</time>
  <course>349.52</course>
  <speed>0.022360679774997897</speed>
  <fix>3d</fix>
</trkpt>
<trkpt lat="40.0728133" lon="-105.2306143">
  <ele>1596.56</ele>
  <time>2026-08-28T19:12:22Z</time>
  <course>264.73</course>
  <speed>0.0</speed>
  <fix>3d</fix>
</trkpt>
<trkpt lat="40.0728134" lon="-105.2306146">
  <ele>1596.65</ele>
  <time>2026-08-28T19:12:22Z</time>
  <course>349.52</course>
  <speed>0.022360679774997897</speed>
  <fix>3d</fix>
</trkpt>
<trkpt lat="40.0728133" lon="-105.2306143">
  <ele>1596.56</ele>
  <time>2026-08-28T19:12:22Z</time>
  <course>267.32</course>
  <speed>0.0</speed>
  <fix>3d</fix>
</trkpt>
<trkpt lat="40.0728134" lon="-105.2306146">
  <ele>1596.65</ele>
  <time>2026-08-28T19:12:22Z</time>
  <course>349.51</course>
  <speed>0.022360679774997897</speed>
  <fix>3d</fix>
</trkpt>
<trkpt lat="40.0728133" lon="-105.2306143">
  <ele>1596.56</ele>
  <time>2026-08-28T19:12:22Z</time>
  <course>268.71</course>
  <speed>0.0</speed>
  <fix>3d</fix>
</trkpt>
<trkpt lat="40.0728134" lon="-105.2306146">
  <ele>1596.65</ele>
  <time>2026-08-28T19:12:22Z</time>
  <course>349.51</course>
  <speed>0.022360679774997897</speed>
  <fix>3d</fix>
</trkpt>
<trkpt lat="40.0728133" lon="-105.2306143">
  <ele>1596.56</ele>
  <time>2026-08-28T19:12:22Z</time>
  <course>269.64</course>
  <speed>0.0</speed>
  <fix>3d</fix>
</trkpt>
<trkpt lat="40.0728134" lon="-105.2306146">
  <ele>1596.64</ele>
  <time>2026-08-28T19:12:22Z</time>
  <course>349.51</course>
  <speed>0.022360679774997897</speed>
  <fix>3d</fix>
</trkpt>
<trkpt lat="40.0728133" lon="-105.2306143">
  <ele>1596.56</ele>
  <time>2026-08-28T19:12:22Z</time>
  <course>270.33</course>
  <speed>0.0</speed>
  <fix>3d</fix>
</trkpt>
<trkpt lat="40.0728134" lon="-105.2306146">
  <ele>1596.64</ele>
  <time>2026-08-28T19:12:22Z</time>
  <course>349.51</course>
  <speed>0.022360679774997897</speed>
  <fix>3d</fix>
</trkpt>
<trkpt lat="40.0728133" lon="-105.2306143">
  <ele>1596.56</ele>
  <time>2026-08-28T19:12:22Z</time>
  <course>270.88</course>
  <speed>0.0</speed>
  <fix>3d</fix>
</trkpt>
<trkpt lat="40.0728134" lon="-105.2306146">
  <ele>1596.64</ele>
  <time>2026-08-28T19:12:22Z</time>
  <course>349.49</course>
  <speed>0.022360679774997897</speed>
  <fix>3d</fix>
</trkpt>
<trkpt lat="40.0728133" lon="-105.2306143">
  <ele>1596.56</ele>
  <time>2026-08-28T19:12:22Z</time>
  <course>271.13</course>
  <speed>0.0</speed>
  <fix>3d</fix>
</trkpt>
<trkpt lat="40.0728134" lon="-105.2306146">
  <ele>1596.64</ele>
  <time>2026-08-28T19:12:22Z</time>
  <course>349.49</course>
  <speed>0.022360679774997897</speed>
  <fix>3d</fix>
</trkpt>
<trkpt lat="40.0728133" lon="-105.2306143">
  <ele>1596.56</ele>
  <time>2026-08-28T19:12:22Z</time>
  <course>272.26</course>
  <speed>0.0</speed>
  <fix>3d</fix>
</trkpt>
<trkpt lat="40.0728134" lon="-105.2306146">
  <ele>1596.64</ele>
  <time>2026-08-28T19:12:22Z</time>
  <course>349.49</course>
  <speed>0.022360679774997897</speed>
  <fix>3d</fix>
</trkpt>
<trkpt lat="40.0728133" lon="-105.2306144">
  <ele>1596.56</ele>
  <time>2026-08-28T19:12:22Z</time>
  <course>274.36</course>
  <speed>0.0</speed>
  <fix>3d</fix>
</trkpt>
<trkpt lat="40.0728134" lon="-105.2306146">
  <ele>1596.65</ele>
  <time>2026-08-28T19:12:22Z</time>
  <course>349.49</course>
  <speed>0.022360679774997897</speed>
  <fix>3d</fix>
</trkpt>
<trkpt lat="40.0728133" lon="-105.2306145">
  <ele>1596.57</ele>
  <time>2026-08-28T19:12:22Z</time>
  <course>275.87</course>
  <speed>0.0</speed>
  <fix>3d</fix>
</trkpt>
<trkpt lat="40.0728134" lon="-105.2306146">
  <ele>1596.65</ele>
  <time>2026-08-28T19:12:22Z</time>
  <course>349.49</course>
  <speed>0.022360679774997897</speed>
  <fix>3d</fix>
</trkpt>
<trkpt lat="40.0728133" lon="-105.2306145">
  <ele>1596.57</ele>
  <time>2026-08-28T19:12:22Z</time>
  <course>277.15</course>
  <speed>0.0</speed>
  <fix>3d</fix>
</trkpt>
<trkpt lat="40.0728134" lon="-105.2306147">
  <ele>1596.65</ele>
  <time>2026-08-28T19:12:22Z</time>
  <course>349.5</course>
  <speed>0.022360679774997897</speed>
  <fix>3d</fix>
</trkpt>
<trkpt lat="40.0728133" lon="-105.2306145">
  <ele>1596.57</ele>
  <time>2026-08-28T19:12:22Z</time>
  <course>278.71</course>
  <speed>0.0</speed>
  <fix>3d</fix>
</trkpt>
<trkpt lat="40.0728134" lon="-105.2306147">
  <ele>1596.65</ele>
  <time>2026-08-28T19:12:22Z</time>
  <course>349.5</course>
  <speed>0.022360679774997897</speed>
  <fix>3d</fix>
</trkpt>
<trkpt lat="40.0728133" lon="-105.2306145">
  <ele>1596.57</ele>
  <time>2026-08-28T19:12:22Z</time>
  <course>280.41</course>
  <speed>0.0</speed>
  <fix>3d</fix>
</trkpt>
<trkpt lat="40.0728134" lon="-105.2306147">
  <ele>1596.66</ele>
  <time>2026-08-28T19:12:22Z</time>
  <course>349.51</course>
  <speed>0.022360679774997897</speed>
  <fix>3d</fix>
</trkpt>
<trkpt lat="40.0728133" lon="-105.2306145">
  <ele>1596.57</ele>
  <time>2026-08-28T19:12:22Z</time>
  <course>283.3</course>
  <speed>0.0</speed>
  <fix>3d</fix>
</trkpt>
<trkpt lat="40.0728134" lon="-105.2306147">
  <ele>1596.66</ele>
  <time>2026-08-28T19:12:22Z</time>
  <course>349.52</course>
  <speed>0.022360679774997897</speed>
  <fix>3d</fix>
</trkpt>
<trkpt lat="40.0728133" lon="-105.2306146">
  <ele>1596.57</ele>
  <time>2026-08-28T19:12:22Z</time>
  <course>288.39</course>
  <speed>0.0</speed>
  <fix>3d</fix>
</trkpt>
<trkpt lat="40.0728134" lon="-105.2306147">
  <ele>1596.65</ele>
  <time>2026-08-28T19:12:22Z</time>
  <course>349.52</course>
  <speed>0.022360679774997897</speed>
  <fix>3d</fix>
</trkpt>
<trkpt lat="40.0728133" lon="-105.2306146">
  <ele>1596.57</ele>
  <time>2026-08-28T19:12:22Z</time>
  <course>295.09</course>
  <speed>0.0</speed>
  <fix>3d</fix>
</trkpt>
<trkpt lat="40.0728134" lon="-105.2306147">
  <ele>1596.66</ele>
  <time>2026-08-28T19:12:22Z</time>
  <course>349.52</course>
  <speed>0.022360679774997897</speed>
  <fix>3d</fix>
</trkpt>
<trkpt lat="40.0728133" lon="-105.2306146">
  <ele>1596.57</ele>
  <time>2026-08-28T19:12:22Z</time>
  <course>306.96</course>
  <speed>0.0</speed>
  <fix>3d</fix>
</trkpt>
<trkpt lat="40.0728134" lon="-105.2306147">
  <ele>1596.65</ele>
  <time>2026-08-28T19:12:22Z</time>
  <course>349.52</course>
  <speed>0.022360679774997897</speed>
  <fix>3d</fix>
</trkpt>
<trkpt lat="40.0728133" lon="-105.2306146">
  <ele>1596.57</ele>
  <time>2026-08-28T19:12:22Z</time>
  <course>328.78</course>
  <speed>0.0</speed>
  <fix>3d</fix>
</trkpt>
<trkpt lat="40.0728134" lon="-105.2306147">
  <ele>1596.66</ele>
  <time>2026-08-28T19:12:22Z</time>
  <course>349.52</course>
  <speed>0.01414213562373095</speed>
  <fix>3d</fix>
</trkpt>
<trkpt lat="40.0728133" lon="-105.2306146">
  <ele>1596.57</ele>
  <time>2026-08-28T19:12:22Z</time>
  <course>8.91</course>
  <speed>0.0</speed>
  <fix>3d</fix>
</trkpt>
<trkpt lat="40.0728134" lon="-105.2306147">
  <ele>1596.66</ele>
  <time>2026-08-28T19:12:22Z</time>
  <course>349.52</course>
  <speed>0.01414213562373095</speed>
  <fix>3d</fix>
</trkpt>
<trkpt lat="40.0728133" lon="-105.2306146">
  <ele>1596.57</ele>
  <time>2026-08-28T19:12:22Z</time>
  <course>46.44</course>
  <speed>0.0</speed>
  <fix>3d</fix>
</trkpt>
<trkpt lat="40.0728134" lon="-105.2306147">
  <ele>1596.66</ele>
  <time>2026-08-28T19:12:22Z</time>
  <course>349.53</course>
  <speed>0.01414213562373095</speed>
  <fix>3d</fix>
</trkpt>
<trkpt lat="40.0728133" lon="-105.2306146">
  <ele>1596.57</ele>
  <time>2026-08-28T19:12:22Z</time>
  <course>57.42</course>
  <speed>0.0</speed>
  <fix>3d</fix>
</trkpt>
<trkpt lat="40.0728134" lon="-105.2306147">
  <ele>1596.66</ele>
  <time>2026-08-28T19:12:22Z</time>
  <course>349.53</course>
  <speed>0.01414213562373095</speed>
  <fix>3d</fix>
</trkpt>
<trkpt lat="40.0728133" lon="-105.2306146">
  <ele>1596.57</ele>
  <time>2026-08-28T19:12:22Z</time>
  <course>61.5</course>
  <speed>0.0</speed>
  <fix>3d</fix>
</trkpt>
<trkpt lat="40.0728134" lon="-105.2306147">
  <ele>1596.65</ele>
  <time>2026-08-28T19:12:22Z</time>
  <course>349.53</course>
  <speed>0.01414213562373095</speed>
  <fix>3d</fix>
</trkpt>
<trkpt lat="40.0728133" lon="-105.2306146">
  <ele>1596.57</ele>
  <time>2026-08-28T19:12:22Z</time>
  <course>67.44</course>
  <speed>0.0</speed>
  <fix>3d</fix>
</trkpt>
<trkpt lat="40.0728134" lon="-105.2306147">
  <ele>1596.65</ele>
  <time>2026-08-28T19:12:22Z</time>
  <course>349.53</course>
  <speed>0.01414213562373095</speed>
  <fix>3d</fix>
</trkpt>
<trkpt lat="40.0728133" lon="-105.2306146">
  <ele>1596.57</ele>
  <time>2026-08-28T19:12:22Z</time>
  <course>72.21</course>
  <speed>0.0</speed>
  <fix>3d</fix>
</trkpt>
<trkpt lat="40.0728134" lon="-105.2306147">
  <ele>1596.65</ele>
  <time>2026-08-28T19:12:22Z</time>
  <course>349.53</course>
  <speed>0.01414213562373095</speed>
  <fix>3d</fix>
</trkpt>
<trkpt lat="40.0728133" lon="-105.2306146">
  <ele>1596.57</ele>
  <time>2026-08-28T19:12:22Z</time>
  <course>72.17</course>
  <speed>0.0</speed>
  <fix>3d</fix>
</trkpt>
<trkpt lat="40.0728134" lon="-105.2306147">
  <ele>1596.65</ele>
  <time>2026-08-28T19:12:22Z</time>
  <course>349.53</course>
  <speed>0.01414213562373095</speed>
  <fix>3d</fix>
</trkpt>
<trkpt lat="40.0728133" lon="-105.2306146">
  <ele>1596.57</ele>
  <time>2026-08-28T19:12:22Z</time>
  <course>70.06</course>
  <speed>0.0</speed>
  <fix>3d</fix>
</trkpt>
<trkpt lat="40.0728134" lon="-105.2306147">
  <ele>1596.65</ele>
  <time>2026-08-28T19:12:22Z</time>
  <course>349.53</course>
  <speed>0.01414213562373095</speed>
  <fix>3d</fix>
</trkpt>
<trkpt lat="40.0728133" lon="-105.2306146">
  <ele>1596.57</ele>
  <time>2026-08-28T19:12:22Z</time>
  <course>69.32</course>
  <speed>0.0</speed>
  <fix>3d</fix>
</trkpt>
<trkpt lat="40.0728134" lon="-105.2306147">
  <ele>1596.65</ele>
  <time>2026-08-28T19:12:22Z</time>
  <course>349.53</course>
  <speed>0.01414213562373095</speed>
  <fix>3d</fix>
</trkpt>
<trkpt lat="40.0728133" lon="-105.2306146">
  <ele>1596.57</ele>
  <time>2026-08-28T19:12:22Z</time>
  <course>70.21</course>
  <speed>0.0</speed>
  <fix>3d</fix>
</trkpt>
<trkpt lat="40.0728134" lon="-105.2306147">
  <ele>1596.65</ele>
  <time>2026-08-28T19:12:22Z</time>
  <course>349.53</course>
  <speed>0.01414213562373095</speed>
  <fix>3d</fix>
</trkpt>
<trkpt lat="40.0728133" lon="-105.2306146">
  <ele>1596.56</ele>
  <time>2026-08-28T19:12:22Z</time>
  <course>72.1</course>
  <speed>0.0</speed>
  <fix>3d</fix>
</trkpt>
<trkpt lat="40.0728134" lon="-105.2306147">
  <ele>1596.65</ele>
  <time>2026-08-28T19:12:22Z</time>
  <course>349.53</course>
  <speed>0.01414213562373095</speed>
  <fix>3d</fix>
</trkpt>
<trkpt lat="40.0728133" lon="-105.2306145">
  <ele>1596.56</ele>
  <time>2026-08-28T19:12:22Z</time>
  <course>74.89</course>
  <speed>0.0</speed>
  <fix>3d</fix>
</trkpt>
<trkpt lat="40.0728134" lon="-105.2306147">
  <ele>1596.64</ele>
  <time>2026-08-28T19:12:22Z</time>
  <course>349.53</course>
  <speed>0.01414213562373095</speed>
  <fix>3d</fix>
</trkpt>
<trkpt lat="40.0728133" lon="-105.2306145">
  <ele>1596.56</ele>
  <time>2026-08-28T19:12:22Z</time>
  <course>77.49</course>
  <speed>0.0</speed>
  <fix>3d</fix>
</trkpt>
<trkpt lat="40.0728134" lon="-105.2306147">
  <ele>1596.65</ele>
  <time>2026-08-28T19:12:22Z</time>
  <course>349.53</course>
  <speed>0.01414213562373095</speed>
  <fix>3d</fix>
</trkpt>
<trkpt lat="40.0728133" lon="-105.2306145">
  <ele>1596.56</ele>
  <time>2026-08-28T19:12:22Z</time>
  <course>79.53</course>
  <speed>0.0</speed>
  <fix>3d</fix>
</trkpt>
<trkpt lat="40.0728134" lon="-105.2306147">
  <ele>1596.64</ele>
  <time>2026-08-28T19:12:22Z</time>
  <course>349.51</course>
  <speed>0.01414213562373095</speed>
  <fix>3d</fix>
</trkpt>
<trkpt lat="40.0728133" lon="-105.2306145">
  <ele>1596.56</ele>
  <time>2026-08-28T19:12:22Z</time>
  <course>81.28</course>
  <speed>0.0</speed>
  <fix>3d</fix>
</trkpt>
<trkpt lat="40.0728134" lon="-105.2306147">
  <ele>1596.65</ele>
  <time>2026-08-28T19:12:22Z</time>
  <course>349.49</course>
  <speed>0.01414213562373095</speed>
  <fix>3d</fix>
</trkpt>
<trkpt lat="40.0728133" lon="-105.2306145">
  <ele>1596.56</ele>
  <time>2026-08-28T19:12:22Z</time>
  <course>81.35</course>
  <speed>0.0</speed>
  <fix>3d</fix>
</trkpt>
<trkpt lat="40.0728134" lon="-105.2306147">
  <ele>1596.65</ele>
  <time>2026-08-28T19:12:22Z</time>
  <course>349.47</course>
  <speed>0.01414213562373095</speed>
  <fix>3d</fix>
</trkpt>
<trkpt lat="40.0728133" lon="-105.2306144">
  <ele>1596.56</ele>
  <time>2026-08-28T19:12:22Z</time>
  <course>80.03</course>
  <speed>0.0</speed>
  <fix>3d</fix>
</trkpt>
<trkpt lat="40.0728134" lon="-105.2306147">
  <ele>1596.66</ele>
  <time>2026-08-28T19:12:22Z</time>
  <course>349.46</course>
  <speed>0.01414213562373095</speed>
  <fix>3d</fix>
</trkpt>
<trkpt lat="40.0728133" lon="-105.2306143">
  <ele>1596.56</ele>
  <time>2026-08-28T19:12:22Z</time>
  <course>79.14</course>
  <speed>0.0</speed>
  <fix>3d</fix>
</trkpt>
<trkpt lat="40.0728134" lon="-105.2306147">
  <ele>1596.66</ele>
  <time>2026-08-28T19:12:22Z</time>
  <course>349.48</course>
  <speed>0.022360679774997897</speed>
  <fix>3d</fix>
</trkpt>
<trkpt lat="40.0728133" lon="-105.2306143">
  <ele>1596.57</ele>
  <time>2026-08-28T19:12:22Z</time>
  <course>76.22</course>
  <speed>0.0</speed>
  <fix>3d</fix>
</trkpt>
<trkpt lat="40.0728134" lon="-105.2306146">
  <ele>1596.66</ele>
  <time>2026-08-28T19:12:22Z</time>
  <course>349.5</course>
  <speed>0.022360679774997897</speed>
  <fix>3d</fix>
</trkpt>
<trkpt lat="40.0728133" lon="-105.2306143">
  <ele>1596.57</ele>
  <time>2026-08-28T19:12:22Z</time>
  <course>66.05</course>
  <speed>0.0</speed>
  <fix>3d</fix>
</trkpt>
<trkpt lat="40.0728134" lon="-105.2306146">
  <ele>1596.66</ele>
  <time>2026-08-28T19:12:22Z</time>
  <course>349.52</course>
  <speed>0.022360679774997897</speed>
  <fix>3d</fix>
</trkpt>
<trkpt lat="40.0728133" lon="-105.2306143">
  <ele>1596.56</ele>
  <time>2026-08-28T19:12:22Z</time>
  <course>46.31</course>
  <speed>0.0</speed>
  <fix>3d</fix>
</trkpt>
<trkpt lat="40.0728134" lon="-105.2306146">
  <ele>1596.65</ele>
  <time>2026-08-28T19:12:22Z</time>
  <course>349.53</course>
  <speed>0.022360679774997897</speed>
  <fix>3d</fix>
</trkpt>
<trkpt lat="40.0728133" lon="-105.2306143">
  <ele>1596.56</ele>
  <time>2026-08-28T19:12:22Z</time>
  <course>13.6</course>
  <speed>0.0</speed>
  <fix>3d</fix>
</trkpt>
<trkpt lat="40.0728134" lon="-105.2306146">
  <ele>1596.65</ele>
  <time>2026-08-28T19:12:22Z</time>
  <course>349.52</course>
  <speed>0.022360679774997897</speed>
  <fix>3d</fix>
</trkpt>
<trkpt lat="40.0728133" lon="-105.2306143">
  <ele>1596.56</ele>
  <time>2026-08-28T19:12:22Z</time>
  <course>338.46</course>
  <speed>0.0</speed>
  <fix>3d</fix>
</trkpt>
<trkpt lat="40.0728134" lon="-105.2306146">
  <ele>1596.65</ele>
  <time>2026-08-28T19:12:22Z</time>
  <course>349.5</course>
  <speed>0.022360679774997897</speed>
  <fix>3d</fix>
</trkpt>
<trkpt lat="40.0728133" lon="-105.2306143">
  <ele>1596.56</ele>
  <time>2026-08-28T19:12:22Z</time>
  <course>316.39</course>
  <speed>0.0</speed>
  <fix>3d</fix>
</trkpt>
<trkpt lat="40.0728134" lon="-105.2306146">
  <ele>1596.65</ele>
  <time>2026-08-28T19:12:22Z</time>
  <course>349.48</course>
  <speed>0.022360679774997897</speed>
  <fix>3d</fix>
</trkpt>
<trkpt lat="40.0728133" lon="-105.2306143">
  <ele>1596.56</ele>
  <time>2026-08-28T19:12:22Z</time>
  <course>304.31</course>
  <speed>0.0</speed>
  <fix>3d</fix>
</trkpt>
<trkpt lat="40.0728134" lon="-105.2306146">
  <ele>1596.65</ele>
  <time>2026-08-28T19:12:22Z</time>
  <course>349.47</course>
  <speed>0.022360679774997897</speed>
  <fix>3d</fix>
</trkpt>
<trkpt lat="40.0728133" lon="-105.2306143">
  <ele>1596.56</ele>
  <time>2026-08-28T19:12:22Z</time>
  <course>297.1</course>
  <speed>0.0</speed>
  <fix>3d</fix>
</trkpt>
<trkpt lat="40.0728134" lon="-105.2306146">
  <ele>1596.65</ele>
  <time>2026-08-28T19:12:22Z</time>
  <course>349.47</course>
  <speed>0.0316227766016838</speed>
  <fix>3d</fix>
</trkpt>
<trkpt lat="40.0728133" lon="-105.2306143">
  <ele>1596.56</ele>
  <time>2026-08-28T19:12:22Z</time>
  <course>292.57</course>
  <speed>0.0</speed>
  <fix>3d</fix>
</trkpt>
<trkpt lat="40.0728134" lon="-105.2306146">
  <ele>1596.65</ele>
  <time>2026-08-28T19:12:22Z</time>
  <course>349.48</course>
  <speed>0.0316227766016838</speed>
  <fix>3d</fix>
</trkpt>
<trkpt lat="40.0728133" lon="-105.2306143">
  <ele>1596.55</ele>
  <time>2026-08-28T19:12:22Z</time>
  <course>289.37</course>
  <speed>0.0</speed>
  <fix>3d</fix>
</trkpt>
<trkpt lat="40.0728134" lon="-105.2306146">
  <ele>1596.65</ele>
  <time>2026-08-28T19:12:22Z</time>
  <course>349.48</course>
  <speed>0.022360679774997897</speed>
  <fix>3d</fix>
</trkpt>
<trkpt lat="40.0728133" lon="-105.2306143">
  <ele>1596.55</ele>
  <time>2026-08-28T19:12:22Z</time>
  <course>287.32</course>
  <speed>0.0</speed>
  <fix>3d</fix>
</trkpt>
<trkpt lat="40.0728134" lon="-105.2306146">
  <ele>1596.65</ele>
  <time>2026-08-28T19:12:22Z</time>
  <course>349.47</course>
  <speed>0.022360679774997897</speed>
  <fix>3d</fix>
</trkpt>
<trkpt lat="40.0728134" lon="-105.2306143">
  <ele>1596.55</ele>
  <time>2026-08-28T19:12:22Z</time>
  <course>286.78</course>
  <speed>0.0</speed>
  <fix>3d</fix>
</trkpt>
<trkpt lat="40.0728134" lon="-105.2306146">
  <ele>1596.65</ele>
  <time>2026-08-28T19:12:22Z</time>
  <course>349.46</course>
  <speed>0.022360679774997897</speed>
  <fix>3d</fix>
</trkpt>
<trkpt lat="40.0728134" lon="-105.2306143">
  <ele>1596.55</ele>
  <time>2026-08-28T19:12:22Z</time>
  <course>286.82</course>
  <speed>0.0</speed>
  <fix>3d</fix>
</trkpt>
<trkpt lat="40.0728134" lon="-105.2306146">
  <ele>1596.65</ele>
  <time>2026-08-28T19:12:22Z</time>
  <course>349.46</course>
  <speed>0.022360679774997897</speed>
  <fix>3d</fix>
</trkpt>
<trkpt lat="40.0728134" lon="-105.2306143">
  <ele>1596.55</ele>
  <time>2026-08-28T19:12:22Z</time>
  <course>285.61</course>
  <speed>0.0</speed>
  <fix>3d</fix>
</trkpt>
<trkpt lat="40.0728134" lon="-105.2306146">
  <ele>1596.65</ele>
  <time>2026-08-28T19:12:22Z</time>
  <course>349.45</course>
  <speed>0.022360679774997897</speed>
  <fix>3d</fix>
</trkpt>
<trkpt lat="40.0728134" lon="-105.2306144">
  <ele>1596.55</ele>
  <time>2026-08-28T19:12:22Z</time>
  <course>282.17</course>
  <speed>0.0</speed>
  <fix>3d</fix>
</trkpt>
<trkpt lat="40.0728134" lon="-105.2306146">
  <ele>1596.65</ele>
  <time>2026-08-28T19:12:22Z</time>
  <course>349.45</course>
  <speed>0.022360679774997897</speed>
  <fix>3d</fix>
</trkpt>
<trkpt lat="40.0728134" lon="-105.2306145">
  <ele>1596.55</ele>
  <time>2026-08-28T19:12:22Z</time>
  <course>277.56</course>
  <speed>0.0</speed>
  <fix>3d</fix>
</trkpt>
<trkpt lat="40.0728134" lon="-105.2306146">
  <ele>1596.65</ele>
  <time>2026-08-28T19:12:22Z</time>
  <course>349.45</course>
  <speed>0.022360679774997897</speed>
  <fix>3d</fix>
</trkpt>
<trkpt lat="40.0728134" lon="-105.2306145">
  <ele>1596.55</ele>
  <time>2026-08-28T19:12:22Z</time>
  <course>271.88</course>
  <speed>0.0</speed>
  <fix>3d</fix>
</trkpt>
<trkpt lat="40.0728134" lon="-105.2306146">
  <ele>1596.65</ele>
  <time>2026-08-28T19:12:22Z</time>
  <course>349.45</course>
  <speed>0.022360679774997897</speed>
  <fix>3d</fix>
</trkpt>
<trkpt lat="40.0728134" lon="-105.2306145">
  <ele>1596.55</ele>
  <time>2026-08-28T19:12:22Z</time>
  <course>264.8</course>
  <speed>0.0</speed>
  <fix>3d</fix>
</trkpt>
<trkpt lat="40.0728134" lon="-105.2306147">
  <ele>1596.65</ele>
  <time>2026-08-28T19:12:22Z</time>
  <course>349.45</course>
  <speed>0.022360679774997897</speed>
  <fix>3d</fix>
</trkpt>
<trkpt lat="40.0728134" lon="-105.2306145">
  <ele>1596.55</ele>
  <time>2026-08-28T19:12:22Z</time>
  <course>256.87</course>
  <speed>0.0</speed>
  <fix>3d</fix>
</trkpt>
<trkpt lat="40.0728134" lon="-105.2306147">
  <ele>1596.65</ele>
  <time>2026-08-28T19:12:22Z</time>
  <course>349.45</course>
  <speed>0.02</speed>
  <fix>3d</fix>
</trkpt>
<trkpt lat="40.0728134" lon="-105.2306145">
  <ele>1596.56</ele>
  <time>2026-08-28T19:12:22Z</time>
  <course>246.22</course>
  <speed>0.0</speed>
  <fix>3d</fix>
</trkpt>
<trkpt lat="40.0728134" lon="-105.2306147">
  <ele>1596.64</ele>
  <time>2026-08-28T19:12:22Z</time>
  <course>349.45</course>
  <speed>0.02</speed>
  <fix>3d</fix>
</trkpt>
<trkpt lat="40.0728134" lon="-105.2306145">
  <ele>1596.56</ele>
  <time>2026-08-28T19:12:22Z</time>
  <course>231.74</course>
  <speed>0.0</speed>
  <fix>3d</fix>
</trkpt>
<trkpt lat="40.0728134" lon="-105.2306147">
  <ele>1596.65</ele>
  <time>2026-08-28T19:12:22Z</time>
  <course>349.45</course>
  <speed>0.02</speed>
  <fix>3d</fix>
</trkpt>
<trkpt lat="40.0728134" lon="-105.2306146">
  <ele>1596.56</ele>
  <time>2026-08-28T19:12:22Z</time>
  <course>215.27</course>
  <speed>0.0</speed>
  <fix>3d</fix>
</trkpt>
<trkpt lat="40.0728134" lon="-105.2306147">
  <ele>1596.64</ele>
  <time>2026-08-28T19:12:22Z</time>
  <course>349.45</course>
  <speed>0.02</speed>
  <fix>3d</fix>
</trkpt>
<trkpt lat="40.0728134" lon="-105.2306146">
  <ele>1596.56</ele>
  <time>2026-08-28T19:12:22Z</time>
  <course>199.53</course>
  <speed>0.0</speed>
  <fix>3d</fix>
</trkpt>
<trkpt lat="40.0728134" lon="-105.2306147">
  <ele>1596.64</ele>
  <time>2026-08-28T19:12:22Z</time>
  <course>349.45</course>
  <speed>0.02</speed>
  <fix>3d</fix>
</trkpt>
<trkpt lat="40.0728134" lon="-105.2306146">
  <ele>1596.56</ele>
  <time>2026-08-28T19:12:22Z</time>
  <course>186.71</course>
  <speed>0.0</speed>
  <fix>3d</fix>
</trkpt>
<trkpt lat="40.0728134" lon="-105.2306147">
  <ele>1596.64</ele>
  <time>2026-08-28T19:12:22Z</time>
  <course>349.43</course>
  <speed>0.01</speed>
  <fix>3d</fix>
</trkpt>
<trkpt lat="40.0728134" lon="-105.2306146">
  <ele>1596.56</ele>
  <time>2026-08-28T19:12:22Z</time>
  <course>175.37</course>
  <speed>0.0</speed>
  <fix>3d</fix>
</trkpt>
<trkpt lat="40.0728134" lon="-105.2306147">
  <ele>1596.64</ele>
  <time>2026-08-28T19:12:22Z</time>
  <course>349.41</course>
  <speed>0.01</speed>
  <fix>3d</fix>
</trkpt>
<trkpt lat="40.0728134" lon="-105.2306146">
  <ele>1596.56</ele>
  <time>2026-08-28T19:12:22Z</time>
  <course>163.78</course>
  <speed>0.0</speed>
  <fix>3d</fix>
</trkpt>
<trkpt lat="40.0728134" lon="-105.2306147">
  <ele>1596.65</ele>
  <time>2026-08-28T19:12:22Z</time>
  <course>349.4</course>
  <speed>0.01</speed>
  <fix>3d</fix>
</trkpt>
<trkpt lat="40.0728134" lon="-105.2306146">
  <ele>1596.56</ele>
  <time>2026-08-28T19:12:22Z</time>
  <course>152.0</course>
  <speed>0.0</speed>
  <fix>3d</fix>
</trkpt>
<trkpt lat="40.0728134" lon="-105.2306147">
  <ele>1596.65</ele>
  <time>2026-08-28T19:12:22Z</time>
  <course>349.41</course>
  <speed>0.01</speed>
  <fix>3d</fix>
</trkpt>
<trkpt lat="40.0728134" lon="-105.2306146">
  <ele>1596.56</ele>
  <time>2026-08-28T19:12:22Z</time>
  <course>144.26</course>
  <speed>0.0</speed>
  <fix>3d</fix>
</trkpt>
<trkpt lat="40.0728134" lon="-105.2306147">
  <ele>1596.65</ele>
  <time>2026-08-28T19:12:22Z</time>
  <course>349.42</course>
  <speed>0.01</speed>
  <fix>3d</fix>
</trkpt>
<trkpt lat="40.0728134" lon="-105.2306146">
  <ele>1596.56</ele>
  <time>2026-08-28T19:12:22Z</time>
  <course>140.07</course>
  <speed>0.0</speed>
  <fix>3d</fix>
</trkpt>
<trkpt lat="40.0728134" lon="-105.2306147">
  <ele>1596.65</ele>
  <time>2026-08-28T19:12:22Z</time>
  <course>349.43</course>
  <speed>0.01</speed>
  <fix>3d</fix>
</trkpt>
<trkpt lat="40.0728133" lon="-105.2306146">
  <ele>1596.56</ele>
  <time>2026-08-28T19:12:22Z</time>
  <course>135.93</course>
  <speed>0.01</speed>
  <fix>3d</fix>
</trkpt>
<trkpt lat="40.0728134" lon="-105.2306147">
  <ele>1596.65</ele>
  <time>2026-08-28T19:12:22Z</time>
  <course>349.44</course>
  <speed>0.01</speed>
  <fix>3d</fix>
</trkpt>
<trkpt lat="40.0728133" lon="-105.2306146">
  <ele>1596.57</ele>
  <time>2026-08-28T19:12:22Z</time>
  <course>132.5</course>
  <speed>0.01</speed>
  <fix>3d</fix>
</trkpt>
<trkpt lat="40.0728134" lon="-105.2306147">
  <ele>1596.66</ele>
  <time>2026-08-28T19:12:22Z</time>
  <course>349.44</course>
  <speed>0.01</speed>
  <fix>3d</fix>
</trkpt>
<trkpt lat="40.0728133" lon="-105.2306146">
  <ele>1596.57</ele>
  <time>2026-08-28T19:12:22Z</time>
  <course>129.82</course>
  <speed>0.01</speed>
  <fix>3d</fix>
</trkpt>
<trkpt lat="40.0728134" lon="-105.2306147">
  <ele>1596.66</ele>
  <time>2026-08-28T19:12:22Z</time>
  <course>349.45</course>
  <speed>0.01</speed>
  <fix>3d</fix>
</trkpt>
<trkpt lat="40.0728133" lon="-105.2306146">
  <ele>1596.57</ele>
  <time>2026-08-28T19:12:22Z</time>
  <course>127.8</course>
  <speed>0.01</speed>
  <fix>3d</fix>
</trkpt>
<trkpt lat="40.0728134" lon="-105.2306147">
  <ele>1596.67</ele>
  <time>2026-08-28T19:12:22Z</time>
  <course>349.46</course>
  <speed>0.01414213562373095</speed>
  <fix>3d</fix>
</trkpt>
<trkpt lat="40.0728133" lon="-105.2306145">
  <ele>1596.57</ele>
  <time>2026-08-28T19:12:22Z</time>
  <course>124.83</course>
  <speed>0.01</speed>
  <fix>3d</fix>
</trkpt>
<trkpt lat="40.0728134" lon="-105.2306147">
  <ele>1596.67</ele>
  <time>2026-08-28T19:12:22Z</time>
  <course>349.49</course>
  <speed>0.01414213562373095</speed>
  <fix>3d</fix>
</trkpt>
<trkpt lat="40.0728133" lon="-105.2306145">
  <ele>1596.56</ele>
  <time>2026-08-28T19:12:22Z</time>
  <course>118.93</course>
  <speed>0.0</speed>
  <fix>3d</fix>
</trkpt>
<trkpt lat="40.0728134" lon="-105.2306147">
  <ele>1596.67</ele>
  <time>2026-08-28T19:12:22Z</time>
  <course>349.52</course>
  <speed>0.01414213562373095</speed>
  <fix>3d</fix>
</trkpt>
<trkpt lat="40.0728133" lon="-105.2306145">
  <ele>1596.56</ele>
  <time>2026-08-28T19:12:22Z</time>
  <course>111.52</course>
  <speed>0.0</speed>
  <fix>3d</fix>
</trkpt>
<trkpt lat="40.0728134" lon="-105.2306147">
  <ele>1596.66</ele>
  <time>2026-08-28T19:12:22Z</time>
  <course>349.52</course>
  <speed>0.01414213562373095</speed>
  <fix>3d</fix>
</trkpt>
<trkpt lat="40.0728133" lon="-105.2306145">
  <ele>1596.56</ele>
  <time>2026-08-28T19:12:22Z</time>
  <course>103.29</course>
  <speed>0.0</speed>
  <fix>3d</fix>
</trkpt>
<trkpt lat="40.0728134" lon="-105.2306147">
  <ele>1596.66</ele>
  <time>2026-08-28T19:12:22Z</time>
  <course>349.51</course>
  <speed>0.01414213562373095</speed>
  <fix>3d</fix>
</trkpt>
<trkpt lat="40.0728133" lon="-105.2306145">
  <ele>1596.55</ele>
  <time>2026-08-28T19:12:22Z</time>
  <course>93.07</course>
  <speed>0.0</speed>
  <fix>3d</fix>
</trkpt>
<trkpt lat="40.0728134" lon="-105.2306147">
  <ele>1596.66</ele>
  <time>2026-08-28T19:12:22Z</time>
  <course>349.5</course>
  <speed>0.022360679774997897</speed>
  <fix>3d</fix>
</trkpt>
<trkpt lat="40.0728133" lon="-105.2306144">
  <ele>1596.55</ele>
  <time>2026-08-28T19:12:22Z</time>
  <course>83.18</course>
  <speed>0.0</speed>
  <fix>3d</fix>
</trkpt>
<trkpt lat="40.0728134" lon="-105.2306147">
  <ele>1596.65</ele>
  <time>2026-08-28T19:12:22Z</time>
  <course>349.49</course>
  <speed>0.022360679774997897</speed>
  <fix>3d</fix>
</trkpt>
<trkpt lat="40.0728133" lon="-105.2306143">
  <ele>1596.55</ele>
  <time>2026-08-28T19:12:22Z</time>
  <course>75.83</course>
  <speed>0.0</speed>
  <fix>3d</fix>
</trkpt>
<trkpt lat="40.0728134" lon="-105.2306147">
  <ele>1596.65</ele>
  <time>2026-08-28T19:12:22Z</time>
  <course>349.48</course>
  <speed>0.022360679774997897</speed>
  <fix>3d</fix>
</trkpt>
<trkpt lat="40.0728133" lon="-105.2306143">
  <ele>1596.55</ele>
  <time>2026-08-28T19:12:22Z</time>
  <course>69.36</course>
  <speed>0.0</speed>
  <fix>3d</fix>
</trkpt>
<trkpt lat="40.0728134" lon="-105.2306147">
  <ele>1596.65</ele>
  <time>2026-08-28T19:12:22Z</time>
  <course>349.48</course>
  <speed>0.022360679774997897</speed>
  <fix>3d</fix>
</trkpt>
<trkpt lat="40.0728133" lon="-105.2306143">
  <ele>1596.55</ele>
  <time>2026-08-28T19:12:22Z</time>
  <course>60.01</course>
  <speed>0.0</speed>
  <fix>3d</fix>
</trkpt>
<trkpt lat="40.0728134" lon="-105.2306147">
  <ele>1596.66</ele>
  <time>2026-08-28T19:12:22Z</time>
  <course>349.48</course>
  <speed>0.022360679774997897</speed>
  <fix>3d</fix>
</trkpt>
<trkpt lat="40.0728133" lon="-105.2306143">
  <ele>1596.54</ele>
  <time>2026-08-28T19:12:22Z</time>
  <course>45.24</course>
  <speed>0.0</speed>
  <fix>3d</fix>
</trkpt>
<trkpt lat="40.0728134" lon="-105.2306146">
  <ele>1596.65</ele>
  <time>2026-08-28T19:12:22Z</time>
  <course>349.48</course>
  <speed>0.022360679774997897</speed>
  <fix>3d</fix>
</trkpt>
<trkpt lat="40.0728133" lon="-105.2306143">
  <ele>1596.54</ele>
  <time>2026-08-28T19:12:22Z</time>
  <course>20.86</course>
  <speed>0.0</speed>
  <fix>3d</fix>
</trkpt>
<trkpt lat="40.0728134" lon="-105.2306146">
  <ele>1596.65</ele>
  <time>2026-08-28T19:12:22Z</time>
  <course>349.48</course>
  <speed>0.022360679774997897</speed>
  <fix>3d</fix>
</trkpt>
<trkpt lat="40.0728133" lon="-105.2306143">
  <ele>1596.54</ele>
  <time>2026-08-28T19:12:22Z</time>
  <course>346.13</course>
  <speed>0.0</speed>
  <fix>3d</fix>
</trkpt>
<trkpt lat="40.0728134" lon="-105.2306146">
  <ele>1596.65</ele>
  <time>2026-08-28T19:12:22Z</time>
  <course>349.47</course>
  <speed>0.022360679774997897</speed>
  <fix>3d</fix>
</trkpt>
<trkpt lat="40.0728133" lon="-105.2306143">
  <ele>1596.54</ele>
  <time>2026-08-28T19:12:22Z</time>
  <course>321.91</course>
  <speed>0.0</speed>
  <fix>3d</fix>
</trkpt>
<trkpt lat="40.0728134" lon="-105.2306146">
  <ele>1596.64</ele>
  <time>2026-08-28T19:12:22Z</time>
  <course>349.45</course>
  <speed>0.022360679774997897</speed>
  <fix>3d</fix>
</trkpt>
<trkpt lat="40.0728133" lon="-105.2306143">
  <ele>1596.54</ele>
  <time>2026-08-28T19:12:22Z</time>
  <course>310.87</course>
  <speed>0.0</speed>
  <fix>3d</fix>
</trkpt>
<trkpt lat="40.0728134" lon="-105.2306146">
  <ele>1596.64</ele>
  <time>2026-08-28T19:12:22Z</time>
  <course>349.43</course>
  <speed>0.022360679774997897</speed>
  <fix>3d</fix>
</trkpt>
<trkpt lat="40.0728133" lon="-105.2306143">
  <ele>1596.54</ele>
  <time>2026-08-28T19:12:22Z</time>
  <course>303.13</course>
  <speed>0.0</speed>
  <fix>3d</fix>
</trkpt>
<trkpt lat="40.0728134" lon="-105.2306146">
  <ele>1596.64</ele>
  <time>2026-08-28T19:12:22Z</time>
  <course>349.42</course>
  <speed>0.022360679774997897</speed>
  <fix>3d</fix>
</trkpt>
<trkpt lat="40.0728133" lon="-105.2306143">
  <ele>1596.54</ele>
  <time>2026-08-28T19:12:22Z</time>
  <course>296.08</course>
  <speed>0.0</speed>
  <fix>3d</fix>
</trkpt>
<trkpt lat="40.0728134" lon="-105.2306146">
  <ele>1596.64</ele>
  <time>2026-08-28T19:12:22Z</time>
  <course>349.4</course>
  <speed>0.022360679774997897</speed>
  <fix>3d</fix>
</trkpt>
<trkpt lat="40.0728133" lon="-105.2306143">
  <ele>1596.54</ele>
  <time>2026-08-28T19:12:22Z</time>
  <course>287.12</course>
  <speed>0.0</speed>
  <fix>3d</fix>
</trkpt>
<trkpt lat="40.0728134" lon="-105.2306146">
  <ele>1596.64</ele>
  <time>2026-08-28T19:12:22Z</time>
  <course>349.39</course>
  <speed>0.022360679774997897</speed>
  <fix>3d</fix>
</trkpt>
<trkpt lat="40.0728133" lon="-105.2306143">
  <ele>1596.54</ele>
  <time>2026-08-28T19:12:22Z</time>
  <course>281.14</course>
  <speed>0.0</speed>
  <fix>3d</fix>
</trkpt>
<trkpt lat="40.0728134" lon="-105.2306146">
  <ele>1596.64</ele>
  <time>2026-08-28T19:12:22Z</time>
  <course>349.38</course>
  <speed>0.022360679774997897</speed>
  <fix>3d</fix>
</trkpt>
<trkpt lat="40.0728133" lon="-105.2306143">
  <ele>1596.54</ele>
  <time>2026-08-28T19:12:22Z</time>
  <course>278.8</course>
  <speed>0.0</speed>
  <fix>3d</fix>
</trkpt>
<trkpt lat="40.0728134" lon="-105.2306146">
  <ele>1596.64</ele>
  <time>2026-08-28T19:12:22Z</time>
  <course>349.37</course>
  <speed>0.022360679774997897</speed>
  <fix>3d</fix>
</trkpt>
<trkpt lat="40.0728133" lon="-105.2306143">
  <ele>1596.54</ele>
  <time>2026-08-28T19:12:22Z</time>
  <course>277.43</course>
  <speed>0.0</speed>
  <fix>3d</fix>
</trkpt>
<trkpt lat="40.0728134" lon="-105.2306146">
  <ele>1596.64</ele>
  <time>2026-08-28T19:12:22Z</time>
  <course>349.36</course>
  <speed>0.022360679774997897</speed>
  <fix>3d</fix>
</trkpt>
<trkpt lat="40.0728133" lon="-105.2306143">
  <ele>1596.55</ele>
  <time>2026-08-28T19:12:22Z</time>
  <course>277.24</course>
  <speed>0.0</speed>
  <fix>3d</fix>
</trkpt>
<trkpt lat="40.0728134" lon="-105.2306146">
  <ele>1596.64</ele>
  <time>2026-08-28T19:12:23Z</time>
  <course>349.36</course>
  <speed>0.022360679774997897</speed>
  <fix>3d</fix>
</trkpt>
<trkpt lat="40.0728133" lon="-105.2306143">
  <ele>1596.55</ele>
  <time>2026-08-28T19:12:23Z</time>
  <course>277.42</course>
  <speed>0.0</speed>
  <fix>3d</fix>
</trkpt>
<trkpt lat="40.0728134" lon="-105.2306146">
  <ele>1596.64</ele>
  <time>2026-08-28T19:12:23Z</time>
  <course>349.36</course>
  <speed>0.022360679774997897</speed>
  <fix>3d</fix>
</trkpt>
<trkpt lat="40.0728133" lon="-105.2306144">
  <ele>1596.55</ele>
  <time>2026-08-28T19:12:23Z</time>
  <course>277.8</course>
  <speed>0.0</speed>
  <fix>3d</fix>
</trkpt>
<trkpt lat="40.0728134" lon="-105.2306146">
  <ele>1596.64</ele>
  <time>2026-08-28T19:12:23Z</time>
  <course>349.36</course>
  <speed>0.022360679774997897</speed>
  <fix>3d</fix>
</trkpt>
<trkpt lat="40.0728133" lon="-105.2306145">
  <ele>1596.55</ele>
  <time>2026-08-28T19:12:23Z</time>
  <course>278.84</course>
  <speed>0.0</speed>
  <fix>3d</fix>
</trkpt>
<trkpt lat="40.0728134" lon="-105.2306146">
  <ele>1596.64</ele>
  <time>2026-08-28T19:12:23Z</time>
  <course>349.36</course>
  <speed>0.022360679774997897</speed>
  <fix>3d</fix>
</trkpt>
<trkpt lat="40.0728133" lon="-105.2306145">
  <ele>1596.56</ele>
  <time>2026-08-28T19:12:23Z</time>
  <course>281.24</course>
  <speed>0.0</speed>
  <fix>3d</fix>
</trkpt>
<trkpt lat="40.0728134" lon="-105.2306146">
  <ele>1596.63</ele>
  <time>2026-08-28T19:12:23Z</time>
  <course>349.36</course>
  <speed>0.022360679774997897</speed>
  <fix>3d</fix>
</trkpt>
<trkpt lat="40.0728133" lon="-105.2306145">
  <ele>1596.56</ele>
  <time>2026-08-28T19:12:23Z</time>
  <course>281.89</course>
  <speed>0.0</speed>
  <fix>3d</fix>
</trkpt>
<trkpt lat="40.0728134" lon="-105.2306147">
  <ele>1596.63</ele>
  <time>2026-08-28T19:12:23Z</time>
  <course>349.34</course>
  <speed>0.022360679774997897</speed>
  <fix>3d</fix>
</trkpt>
<trkpt lat="40.0728133" lon="-105.2306145">
  <ele>1596.56</ele>
  <time>2026-08-28T19:12:23Z</time>
  <course>281.93</course>
  <speed>0.0</speed>
  <fix>3d</fix>
</trkpt>
<trkpt lat="40.0728134" lon="-105.2306147">
  <ele>1596.63</ele>
  <time>2026-08-28T19:12:23Z</time>
  <course>349.32</course>
  <speed>0.022360679774997897</speed>
  <fix>3d</fix>
</trkpt>
<trkpt lat="40.0728133" lon="-105.2306145">
  <ele>1596.56</ele>
  <time>2026-08-28T19:12:23Z</time>
  <course>284.76</course>
  <speed>0.0</speed>
  <fix>3d</fix>
</trkpt>
<trkpt lat="40.0728134" lon="-105.2306147">
  <ele>1596.64</ele>
  <time>2026-08-28T19:12:23Z</time>
  <course>349.3</course>
  <speed>0.022360679774997897</speed>
  <fix>3d</fix>
</trkpt>
<trkpt lat="40.0728133" lon="-105.2306146">
  <ele>1596.57</ele>
  <time>2026-08-28T19:12:23Z</time>
  <course>288.65</course>
  <speed>0.0</speed>
  <fix>3d</fix>
</trkpt>
<trkpt lat="40.0728134" lon="-105.2306147">
  <ele>1596.64</ele>
  <time>2026-08-28T19:12:23Z</time>
  <course>349.3</course>
  <speed>0.022360679774997897</speed>
  <fix>3d</fix>
</trkpt>
<trkpt lat="40.0728133" lon="-105.2306146">
  <ele>1596.57</ele>
  <time>2026-08-28T19:12:23Z</time>
  <course>293.26</course>
  <speed>0.0</speed>
  <fix>3d</fix>
</trkpt>
<trkpt lat="40.0728134" lon="-105.2306147">
  <ele>1596.65</ele>
  <time>2026-08-28T19:12:23Z</time>
  <course>349.32</course>
  <speed>0.022360679774997897</speed>
  <fix>3d</fix>
</trkpt>
<trkpt lat="40.0728133" lon="-105.2306146">
  <ele>1596.58</ele>
  <time>2026-08-28T19:12:23Z</time>
  <course>295.87</course>
  <speed>0.0</speed>
  <fix>3d</fix>
</trkpt>
<trkpt lat="40.0728134" lon="-105.2306147">
  <ele>1596.65</ele>
  <time>2026-08-28T19:12:23Z</time>
  <course>349.33</course>
  <speed>0.022360679774997897</speed>
  <fix>3d</fix>
</trkpt>
<trkpt lat="40.0728133" lon="-105.2306146">
  <ele>1596.58</ele>
  <time>2026-08-28T19:12:23Z</time>
  <course>296.19</course>
  <speed>0.0</speed>
  <fix>3d</fix>
</trkpt>
<trkpt lat="40.0728134" lon="-105.2306147">
  <ele>1596.66</ele>
  <time>2026-08-28T19:12:23Z</time>
  <course>349.35</course>
  <speed>0.022360679774997897</speed>
  <fix>3d</fix>
</trkpt>
<trkpt lat="40.0728133" lon="-105.2306146">
  <ele>1596.58</ele>
  <time>2026-08-28T19:12:23Z</time>
  <course>301.15</course>
  <speed>0.0</speed>
  <fix>3d</fix>
</trkpt>
<trkpt lat="40.0728134" lon="-105.2306147">
  <ele>1596.66</ele>
  <time>2026-08-28T19:12:23Z</time>
  <course>349.37</course>
  <speed>0.022360679774997897</speed>
  <fix>3d</fix>
</trkpt>
<trkpt lat="40.0728133" lon="-105.2306146">
  <ele>1596.59</ele>
  <time>2026-08-28T19:12:23Z</time>
  <course>76.18</course>
  <speed>0.0</speed>
  <fix>3d</fix>
</trkpt>
<trkpt lat="40.0728134" lon="-105.2306147">
  <ele>1596.67</ele>
  <time>2026-08-28T19:12:23Z</time>
  <course>349.39</course>
  <speed>0.01414213562373095</speed>
  <fix>3d</fix>
</trkpt>
<trkpt lat="40.0728133" lon="-105.2306146">
  <ele>1596.59</ele>
  <time>2026-08-28T19:12:23Z</time>
  <course>78.5</course>
  <speed>0.0</speed>
  <fix>3d</fix>
</trkpt>
<trkpt lat="40.0728134" lon="-105.2306147">
  <ele>1596.67</ele>
  <time>2026-08-28T19:12:23Z</time>
  <course>349.42</course>
  <speed>0.01414213562373095</speed>
  <fix>3d</fix>
</trkpt>
<trkpt lat="40.0728133" lon="-105.2306146">
  <ele>1596.59</ele>
  <time>2026-08-28T19:12:23Z</time>
  <course>68.86</course>
  <speed>0.0</speed>
  <fix>3d</fix>
</trkpt>
<trkpt lat="40.0728134" lon="-105.2306147">
  <ele>1596.67</ele>
  <time>2026-08-28T19:12:23Z</time>
  <course>349.44</course>
  <speed>0.01414213562373095</speed>
  <fix>3d</fix>
</trkpt>
<trkpt lat="40.0728133" lon="-105.2306146">
  <ele>1596.58</ele>
  <time>2026-08-28T19:12:23Z</time>
  <course>63.45</course>
  <speed>0.0</speed>
  <fix>3d</fix>
</trkpt>
<trkpt lat="40.0728134" lon="-105.2306147">
  <ele>1596.67</ele>
  <time>2026-08-28T19:12:23Z</time>
  <course>349.46</course>
  <speed>0.01414213562373095</speed>
  <fix>3d</fix>
</trkpt>
<trkpt lat="40.0728133" lon="-105.2306146">
  <ele>1596.58</ele>
  <time>2026-08-28T19:12:23Z</time>
  <course>61.83</course>
  <speed>0.0</speed>
  <fix>3d</fix>
</trkpt>
<trkpt lat="40.0728134" lon="-105.2306147">
  <ele>1596.67</ele>
  <time>2026-08-28T19:12:23Z</time>
  <course>349.47</course>
  <speed>0.01414213562373095</speed>
  <fix>3d</fix>
</trkpt>
<trkpt lat="40.0728133" lon="-105.2306146">
  <ele>1596.58</ele>
  <time>2026-08-28T19:12:23Z</time>
  <course>61.43</course>
  <speed>0.0</speed>
  <fix>3d</fix>
</trkpt>
<trkpt lat="40.0728134" lon="-105.2306147">
  <ele>1596.67</ele>
  <time>2026-08-28T19:12:23Z</time>
  <course>349.48</course>
  <speed>0.01414213562373095</speed>
  <fix>3d</fix>
</trkpt>
<trkpt lat="40.0728133" lon="-105.2306146">
  <ele>1596.57</ele>
  <time>2026-08-28T19:12:23Z</time>
  <course>61.38</course>
  <speed>0.0</speed>
  <fix>3d</fix>
</trkpt>
<trkpt lat="40.0728134" lon="-105.2306147">
  <ele>1596.66</ele>
  <time>2026-08-28T19:12:23Z</time>
  <course>349.48</course>
  <speed>0.01414213562373095</speed>
  <fix>3d</fix>
</trkpt>
<trkpt lat="40.0728133" lon="-105.2306146">
  <ele>1596.57</ele>
  <time>2026-08-28T19:12:23Z</time>
  <course>61.86</course>
  <speed>0.0</speed>
  <fix>3d</fix>
</trkpt>
<trkpt lat="40.0728134" lon="-105.2306147">
  <ele>1596.66</ele>
  <time>2026-08-28T19:12:23Z</time>
  <course>349.47</course>
  <speed>0.01414213562373095</speed>
  <fix>3d</fix>
</trkpt>
<trkpt lat="40.0728133" lon="-105.2306146">
  <ele>1596.57</ele>
  <time>2026-08-28T19:12:23Z</time>
  <course>63.46</course>
  <speed>0.0</speed>
  <fix>3d</fix>
</trkpt>
<trkpt lat="40.0728134" lon="-105.2306147">
  <ele>1596.65</ele>
  <time>2026-08-28T19:12:23Z</time>
  <course>349.45</course>
  <speed>0.01414213562373095</speed>
  <fix>3d</fix>
</trkpt>
<trkpt lat="40.0728133" lon="-105.2306146">
  <ele>1596.57</ele>
  <time>2026-08-28T19:12:23Z</time>
  <course>64.82</course>
  <speed>0.0</speed>
  <fix>3d</fix>
</trkpt>
<trkpt lat="40.0728134" lon="-105.2306147">
  <ele>1596.65</ele>
  <time>2026-08-28T19:12:23Z</time>
  <course>349.44</course>
  <speed>0.01414213562373095</speed>
  <fix>3d</fix>
</trkpt>
<trkpt lat="40.0728133" lon="-105.2306145">
  <ele>1596.56</ele>
  <time>2026-08-28T19:12:23Z</time>
  <course>64.43</course>
  <speed>0.0</speed>
  <fix>3d</fix>
</trkpt>
<trkpt lat="40.0728134" lon="-105.2306147">
  <ele>1596.65</ele>
  <time>2026-08-28T19:12:23Z</time>
  <course>349.42</course>
  <speed>0.01414213562373095</speed>
  <fix>3d</fix>
</trkpt>
<trkpt lat="40.0728133" lon="-105.2306145">
  <ele>1596.56</ele>
  <time>2026-08-28T19:12:23Z</time>
  <course>65.12</course>
  <speed>0.0</speed>
  <fix>3d</fix>
</trkpt>
<trkpt lat="40.0728134" lon="-105.2306147">
  <ele>1596.64</ele>
  <time>2026-08-28T19:12:23Z</time>
  <course>349.42</course>
  <speed>0.01414213562373095</speed>
  <fix>3d</fix>
</trkpt>
<trkpt lat="40.0728133" lon="-105.2306145">
  <ele>1596.56</ele>
  <time>2026-08-28T19:12:23Z</time>
  <course>67.88</course>
  <speed>0.0</speed>
  <fix>3d</fix>
</trkpt>
<trkpt lat="40.0728134" lon="-105.2306147">
  <ele>1596.64</ele>
  <time>2026-08-28T19:12:23Z</time>
  <course>349.39</course>
  <speed>0.01414213562373095</speed>
  <fix>3d</fix>
</trkpt>
<trkpt lat="40.0728133" lon="-105.2306145">
  <ele>1596.56</ele>
  <time>2026-08-28T19:12:23Z</time>
  <course>70.55</course>
  <speed>0.0</speed>
  <fix>3d</fix>
</trkpt>
<trkpt lat="40.0728134" lon="-105.2306147">
  <ele>1596.64</ele>
  <time>2026-08-28T19:12:23Z</time>
  <course>349.36</course>
  <speed>0.01414213562373095</speed>
  <fix>3d</fix>
</trkpt>
<trkpt lat="40.0728133" lon="-105.2306145">
  <ele>1596.56</ele>
  <time>2026-08-28T19:12:23Z</time>
  <course>71.13</course>
  <speed>0.0</speed>
  <fix>3d</fix>
</trkpt>
<trkpt lat="40.0728134" lon="-105.2306147">
  <ele>1596.64</ele>
  <time>2026-08-28T19:12:23Z</time>
  <course>349.34</course>
  <speed>0.022360679774997897</speed>
  <fix>3d</fix>
</trkpt>
<trkpt lat="40.0728133" lon="-105.2306144">
  <ele>1596.56</ele>
  <time>2026-08-28T19:12:23Z</time>
  <course>69.24</course>
  <speed>0.0</speed>
  <fix>3d</fix>
</trkpt>
<trkpt lat="40.0728134" lon="-105.2306147">
  <ele>1596.64</ele>
  <time>2026-08-28T19:12:23Z</time>
  <course>349.33</course>
  <speed>0.022360679774997897</speed>
  <fix>3d</fix>
</trkpt>
<trkpt lat="40.0728133" lon="-105.2306143">
  <ele>1596.56</ele>
  <time>2026-08-28T19:12:23Z</time>
  <course>70.08</course>
  <speed>0.0</speed>
  <fix>3d</fix>
</trkpt>
<trkpt lat="40.0728134" lon="-105.2306147">
  <ele>1596.63</ele>
  <time>2026-08-28T19:12:23Z</time>
  <course>349.31</course>
  <speed>0.022360679774997897</speed>
  <fix>3d</fix>
</trkpt>
<trkpt lat="40.0728133" lon="-105.2306143">
  <ele>1596.57</ele>
  <time>2026-08-28T19:12:23Z</time>
  <course>73.8</course>
  <speed>0.0</speed>
  <fix>3d</fix>
</trkpt>
<trkpt lat="40.0728134" lon="-105.2306146">
  <ele>1596.63</ele>
  <time>2026-08-28T19:12:23Z</time>
  <course>349.3</course>
  <speed>0.022360679774997897</speed>
  <fix>3d</fix>
</trkpt>
<trkpt lat="40.0728133" lon="-105.2306143">
  <ele>1596.57</ele>
  <time>2026-08-28T19:12:23Z</time>
  <course>73.24</course>
  <speed>0.0</speed>
  <fix>3d</fix>
</trkpt>
<trkpt lat="40.0728134" lon="-105.2306146">
  <ele>1596.64</ele>
  <time>2026-08-28T19:12:23Z</time>
  <course>349.29</course>
  <speed>0.022360679774997897</speed>
  <fix>3d</fix>
</trkpt>
<trkpt lat="40.0728133" lon="-105.2306143">
  <ele>1596.57</ele>
  <time>2026-08-28T19:12:23Z</time>
  <course>65.75</course>
  <speed>0.0</speed>
  <fix>3d</fix>
</trkpt>
<trkpt lat="40.0728134" lon="-105.2306146">
  <ele>1596.64</ele>
  <time>2026-08-28T19:12:23Z</time>
  <course>349.29</course>
  <speed>0.022360679774997897</speed>
  <fix>3d</fix>
</trkpt>
<trkpt lat="40.0728134" lon="-105.2306143">
  <ele>1596.58</ele>
  <time>2026-08-28T19:12:23Z</time>
  <course>38.34</course>
  <speed>0.0</speed>
  <fix>3d</fix>
</trkpt>
<trkpt lat="40.0728134" lon="-105.2306146">
  <ele>1596.64</ele>
  <time>2026-08-28T19:12:23Z</time>
  <course>349.28</course>
  <speed>0.022360679774997897</speed>
  <fix>3d</fix>
</trkpt>
<trkpt lat="40.0728134" lon="-105.2306143">
  <ele>1596.58</ele>
  <time>2026-08-28T19:12:23Z</time>
  <course>321.07</course>
  <speed>0.0</speed>
  <fix>3d</fix>
</trkpt>
<trkpt lat="40.0728134" lon="-105.2306146">
  <ele>1596.64</ele>
  <time>2026-08-28T19:12:23Z</time>
  <course>349.3</course>
  <speed>0.022360679774997897</speed>
  <fix>3d</fix>
</trkpt>
<trkpt lat="40.0728134" lon="-105.2306143">
  <ele>1596.59</ele>
  <time>2026-08-28T19:12:23Z</time>
  <course>288.91</course>
  <speed>0.0</speed>
  <fix>3d</fix>
</trkpt>
<trkpt lat="40.0728134" lon="-105.2306146">
  <ele>1596.65</ele>
  <time>2026-08-28T19:12:23Z</time>
  <course>349.3</course>
  <speed>0.022360679774997897</speed>
  <fix>3d</fix>
</trkpt>
<trkpt lat="40.0728134" lon="-105.2306143">
  <ele>1596.59</ele>
  <time>2026-08-28T19:12:23Z</time>
  <course>274.81</course>
  <speed>0.0</speed>
  <fix>3d</fix>
</trkpt>
<trkpt lat="40.0728134" lon="-105.2306146">
  <ele>1596.65</ele>
  <time>2026-08-28T19:12:23Z</time>
  <course>349.31</course>
  <speed>0.022360679774997897</speed>
  <fix>3d</fix>
</trkpt>
<trkpt lat="40.0728134" lon="-105.2306143">
  <ele>1596.59</ele>
  <time>2026-08-28T19:12:23Z</time>
  <course>264.49</course>
  <speed>0.0</speed>
  <fix>3d</fix>
</trkpt>
<trkpt lat="40.0728134" lon="-105.2306146">
  <ele>1596.66</ele>
  <time>2026-08-28T19:12:23Z</time>
  <course>349.33</course>
  <speed>0.022360679774997897</speed>
  <fix>3d</fix>
</trkpt>
<trkpt lat="40.0728134" lon="-105.2306143">
  <ele>1596.59</ele>
  <time>2026-08-28T19:12:23Z</time>
  <course>260.38</course>
  <speed>0.0</speed>
  <fix>3d</fix>
</trkpt>
<trkpt lat="40.0728134" lon="-105.2306146">
  <ele>1596.66</ele>
  <time>2026-08-28T19:12:23Z</time>
  <course>349.35</course>
  <speed>0.022360679774997897</speed>
  <fix>3d</fix>
</trkpt>
<trkpt lat="40.0728134" lon="-105.2306143">
  <ele>1596.6</ele>
  <time>2026-08-28T19:12:23Z</time>
  <course>259.36</course>
  <speed>0.0</speed>
  <fix>3d</fix>
</trkpt>
<trkpt lat="40.0728134" lon="-105.2306146">
  <ele>1596.66</ele>
  <time>2026-08-28T19:12:23Z</time>
  <course>349.36</course>
  <speed>0.022360679774997897</speed>
  <fix>3d</fix>
</trkpt>
<trkpt lat="40.0728134" lon="-105.2306143">
  <ele>1596.6</ele>
  <time>2026-08-28T19:12:23Z</time>
  <course>255.9</course>
  <speed>0.0</speed>
  <fix>3d</fix>
</trkpt>
<trkpt lat="40.0728134" lon="-105.2306146">
  <ele>1596.66</ele>
  <time>2026-08-28T19:12:23Z</time>
  <course>349.38</course>
  <speed>0.022360679774997897</speed>
  <fix>3d</fix>
</trkpt>
<trkpt lat="40.0728134" lon="-105.2306143">
  <ele>1596.6</ele>
  <time>2026-08-28T19:12:23Z</time>
  <course>249.55</course>
  <speed>0.0</speed>
  <fix>3d</fix>
</trkpt>
<trkpt lat="40.0728134" lon="-105.2306146">
  <ele>1596.66</ele>
  <time>2026-08-28T19:12:23Z</time>
  <course>349.39</course>
  <speed>0.022360679774997897</speed>
  <fix>3d</fix>
</trkpt>
<trkpt lat="40.0728134" lon="-105.2306143">
  <ele>1596.6</ele>
  <time>2026-08-28T19:12:23Z</time>
  <course>244.74</course>
  <speed>0.0</speed>
  <fix>3d</fix>
</trkpt>
<trkpt lat="40.0728134" lon="-105.2306146">
  <ele>1596.67</ele>
  <time>2026-08-28T19:12:23Z</time>
  <course>349.41</course>
  <speed>0.022360679774997897</speed>
  <fix>3d</fix>
</trkpt>
<trkpt lat="40.0728134" lon="-105.2306143">
  <ele>1596.6</ele>
  <time>2026-08-28T19:12:23Z</time>
  <course>242.95</course>
  <speed>0.0</speed>
  <fix>3d</fix>
</trkpt>
<trkpt lat="40.0728134" lon="-105.2306146">
  <ele>1596.67</ele>
  <time>2026-08-28T19:12:23Z</time>
  <course>349.43</course>
  <speed>0.022360679774997897</speed>
  <fix>3d</fix>
</trkpt>
<trkpt lat="40.0728134" lon="-105.2306143">
  <ele>1596.59</ele>
  <time>2026-08-28T19:12:23Z</time>
  <course>241.97</course>
  <speed>0.0</speed>
  <fix>3d</fix>
</trkpt>
<trkpt lat="40.0728134" lon="-105.2306146">
  <ele>1596.67</ele>
  <time>2026-08-28T19:12:23Z</time>
  <course>349.45</course>
  <speed>0.022360679774997897</speed>
  <fix>3d</fix>
</trkpt>
<trkpt lat="40.0728134" lon="-105.2306144">
  <ele>1596.59</ele>
  <time>2026-08-28T19:12:23Z</time>
  <course>240.54</course>
  <speed>0.0</speed>
  <fix>3d</fix>
</trkpt>
<trkpt lat="40.0728134" lon="-105.2306146">
  <ele>1596.67</ele>
  <time>2026-08-28T19:12:23Z</time>
  <course>349.47</course>
  <speed>0.022360679774997897</speed>
  <fix>3d</fix>
</trkpt>
<trkpt lat="40.0728134" lon="-105.2306145">
  <ele>1596.59</ele>
  <time>2026-08-28T19:12:23Z</time>
  <course>239.34</course>
  <speed>0.0</speed>
  <fix>3d</fix>
</trkpt>
<trkpt lat="40.0728134" lon="-105.2306146">
  <ele>1596.67</ele>
  <time>2026-08-28T19:12:23Z</time>
  <course>349.48</course>
  <speed>0.02</speed>
  <fix>3d</fix>
</trkpt>
<trkpt lat="40.0728134" lon="-105.2306145">
  <ele>1596.58</ele>
  <time>2026-08-28T19:12:23Z</time>
  <course>237.82</course>
  <speed>0.0</speed>
  <fix>3d</fix>
</trkpt>
<trkpt lat="40.0728134" lon="-105.2306146">
  <ele>1596.66</ele>
  <time>2026-08-28T19:12:23Z</time>
  <course>349.48</course>
  <speed>0.02</speed>
  <fix>3d</fix>
</trkpt>
<trkpt lat="40.0728134" lon="-105.2306145">
  <ele>1596.58</ele>
  <time>2026-08-28T19:12:23Z</time>
  <course>234.71</course>
  <speed>0.0</speed>
  <fix>3d</fix>
</trkpt>
<trkpt lat="40.0728134" lon="-105.2306146">
  <ele>1596.67</ele>
  <time>2026-08-28T19:12:23Z</time>
  <course>349.46</course>
  <speed>0.02</speed>
  <fix>3d</fix>
</trkpt>
<trkpt lat="40.0728134" lon="-105.2306145">
  <ele>1596.57</ele>
  <time>2026-08-28T19:12:23Z</time>
  <course>230.27</course>
  <speed>0.0</speed>
  <fix>3d</fix>
</trkpt>
<trkpt lat="40.0728134" lon="-105.2306147">
  <ele>1596.66</ele>
  <time>2026-08-28T19:12:23Z</time>
  <course>349.46</course>
  <speed>0.02</speed>
  <fix>3d</fix>
</trkpt>
<trkpt lat="40.0728134" lon="-105.2306145">
  <ele>1596.57</ele>
  <time>2026-08-28T19:12:23Z</time>
  <course>224.2</course>
  <speed>0.0</speed>
  <fix>3d</fix>
</trkpt>
<trkpt lat="40.0728134" lon="-105.2306147">
  <ele>1596.66</ele>
  <time>2026-08-28T19:12:23Z</time>
  <course>349.45</course>
  <speed>0.02</speed>
  <fix>3d</fix>
</trkpt>
<trkpt lat="40.0728134" lon="-105.2306145">
  <ele>1596.57</ele>
  <time>2026-08-28T19:12:23Z</time>
  <course>215.94</course>
  <speed>0.0</speed>
  <fix>3d</fix>
</trkpt>
<trkpt lat="40.0728134" lon="-105.2306147">
  <ele>1596.66</ele>
  <time>2026-08-28T19:12:23Z</time>
  <course>349.44</course>
  <speed>0.02</speed>
  <fix>3d</fix>
</trkpt>
<trkpt lat="40.0728134" lon="-105.2306145">
  <ele>1596.56</ele>
  <time>2026-08-28T19:12:23Z</time>
  <course>206.14</course>
  <speed>0.0</speed>
  <fix>3d</fix>
</trkpt>
<trkpt lat="40.0728134" lon="-105.2306147">
  <ele>1596.66</ele>
  <time>2026-08-28T19:12:23Z</time>
  <course>349.44</course>
  <speed>0.022360679774997897</speed>
  <fix>3d</fix>
</trkpt>
<trkpt lat="40.0728133" lon="-105.2306145">
  <ele>1596.56</ele>
  <time>2026-08-28T19:12:23Z</time>
  <course>196.11</course>
  <speed>0.0</speed>
  <fix>3d</fix>
</trkpt>
<trkpt lat="40.0728134" lon="-105.2306147">
  <ele>1596.66</ele>
  <time>2026-08-28T19:12:23Z</time>
  <course>349.44</course>
  <speed>0.02</speed>
  <fix>3d</fix>
</trkpt>
<trkpt lat="40.0728133" lon="-105.2306146">
  <ele>1596.56</ele>
  <time>2026-08-28T19:12:23Z</time>
  <course>187.16</course>
  <speed>0.0</speed>
  <fix>3d</fix>
</trkpt>
<trkpt lat="40.0728134" lon="-105.2306147">
  <ele>1596.65</ele>
  <time>2026-08-28T19:12:23Z</time>
  <course>349.43</course>
  <speed>0.02</speed>
  <fix>3d</fix>
</trkpt>
<trkpt lat="40.0728133" lon="-105.2306146">
  <ele>1596.56</ele>
  <time>2026-08-28T19:12:23Z</time>
  <course>181.5</course>
  <speed>0.0</speed>
  <fix>3d</fix>
</trkpt>
<trkpt lat="40.0728134" lon="-105.2306147">
  <ele>1596.65</ele>
  <time>2026-08-28T19:12:23Z</time>
  <course>349.42</course>
  <speed>0.02</speed>
  <fix>3d</fix>
</trkpt>
<trkpt lat="40.0728133" lon="-105.2306146">
  <ele>1596.56</ele>
  <time>2026-08-28T19:12:23Z</time>
  <course>174.62</course>
  <speed>0.0</speed>
  <fix>3d</fix>
</trkpt>
<trkpt lat="40.0728134" lon="-105.2306147">
  <ele>1596.65</ele>
  <time>2026-08-28T19:12:23Z</time>
  <course>349.41</course>
  <speed>0.02</speed>
  <fix>3d</fix>
</trkpt>
<trkpt lat="40.0728133" lon="-105.2306146">
  <ele>1596.55</ele>
  <time>2026-08-28T19:12:23Z</time>
  <course>164.77</course>
  <speed>0.0</speed>
  <fix>3d</fix>
</trkpt>
<trkpt lat="40.0728134" lon="-105.2306147">
  <ele>1596.65</ele>
  <time>2026-08-28T19:12:23Z</time>
  <course>349.4</course>
  <speed>0.01</speed>
  <fix>3d</fix>
</trkpt>
<trkpt lat="40.0728133" lon="-105.2306146">
  <ele>1596.55</ele>
  <time>2026-08-28T19:12:23Z</time>
  <course>156.56</course>
  <speed>0.0</speed>
  <fix>3d</fix>
</trkpt>
<trkpt lat="40.0728134" lon="-105.2306147">
  <ele>1596.65</ele>
  <time>2026-08-28T19:12:23Z</time>
  <course>349.41</course>
  <speed>0.01414213562373095</speed>
  <fix>3d</fix>
</trkpt>
<trkpt lat="40.0728133" lon="-105.2306146">
  <ele>1596.55</ele>
  <time>2026-08-28T19:12:23Z</time>
  <course>147.33</course>
  <speed>0.0</speed>
  <fix>3d</fix>
</trkpt>
<trkpt lat="40.0728134" lon="-105.2306147">
  <ele>1596.65</ele>
  <time>2026-08-28T19:12:23Z</time>
  <course>349.4</course>
  <speed>0.01414213562373095</speed>
  <fix>3d</fix>
</trkpt>
<trkpt lat="40.0728133" lon="-105.2306146">
  <ele>1596.55</ele>
  <time>2026-08-28T19:12:23Z</time>
  <course>134.47</course>
  <speed>0.0</speed>
  <fix>3d</fix>
</trkpt>
<trkpt lat="40.0728134" lon="-105.2306147">
  <ele>1596.65</ele>
  <time>2026-08-28T19:12:23Z</time>
  <course>349.39</course>
  <speed>0.01414213562373095</speed>
  <fix>3d</fix>
</trkpt>
<trkpt lat="40.0728133" lon="-105.2306146">
  <ele>1596.55</ele>
  <time>2026-08-28T19:12:23Z</time>
  <course>117.65</course>
  <speed>0.0</speed>
  <fix>3d</fix>
</trkpt>
<trkpt lat="40.0728134" lon="-105.2306147">
  <ele>1596.65</ele>
  <time>2026-08-28T19:12:23Z</time>
  <course>349.38</course>
  <speed>0.01414213562373095</speed>
  <fix>3d</fix>
</trkpt>
<trkpt lat="40.0728133" lon="-105.2306146">
  <ele>1596.55</ele>
  <time>2026-08-28T19:12:23Z</time>
  <course>99.93</course>
  <speed>0.0</speed>
  <fix>3d</fix>
</trkpt>
<trkpt lat="40.0728134" lon="-105.2306147">
  <ele>1596.65</ele>
  <time>2026-08-28T19:12:23Z</time>
  <course>349.37</course>
  <speed>0.01414213562373095</speed>
  <fix>3d</fix>
</trkpt>
<trkpt lat="40.0728133" lon="-105.2306146">
  <ele>1596.55</ele>
  <time>2026-08-28T19:12:23Z</time>
  <course>86.36</course>
  <speed>0.0</speed>
  <fix>3d</fix>
</trkpt>
<trkpt lat="40.0728134" lon="-105.2306147">
  <ele>1596.64</ele>
  <time>2026-08-28T19:12:23Z</time>
  <course>349.35</course>
  <speed>0.01414213562373095</speed>
  <fix>3d</fix>
</trkpt>
<trkpt lat="40.0728133" lon="-105.2306146">
  <ele>1596.55</ele>
  <time>2026-08-28T19:12:23Z</time>
  <course>79.33</course>
  <speed>0.0</speed>
  <fix>3d</fix>
</trkpt>
<trkpt lat="40.0728134" lon="-105.2306147">
  <ele>1596.64</ele>
  <time>2026-08-28T19:12:23Z</time>
  <course>349.34</course>
  <speed>0.01414213562373095</speed>
  <fix>3d</fix>
</trkpt>
<trkpt lat="40.0728133" lon="-105.2306146">
  <ele>1596.55</ele>
  <time>2026-08-28T19:12:23Z</time>
  <course>75.82</course>
  <speed>0.0</speed>
  <fix>3d</fix>
</trkpt>
<trkpt lat="40.0728134" lon="-105.2306147">
  <ele>1596.64</ele>
  <time>2026-08-28T19:12:23Z</time>
  <course>349.33</course>
  <speed>0.01414213562373095</speed>
  <fix>3d</fix>
</trkpt>
<trkpt lat="40.0728133" lon="-105.2306145">
  <ele>1596.55</ele>
  <time>2026-08-28T19:12:23Z</time>
  <course>73.21</course>
  <speed>0.0</speed>
  <fix>3d</fix>
</trkpt>
<trkpt lat="40.0728134" lon="-105.2306147">
  <ele>1596.64</ele>
  <time>2026-08-28T19:12:23Z</time>
  <course>349.31</course>
  <speed>0.01414213562373095</speed>
  <fix>3d</fix>
</trkpt>
<trkpt lat="40.0728133" lon="-105.2306145">
  <ele>1596.55</ele>
  <time>2026-08-28T19:12:23Z</time>
  <course>72.72</course>
  <speed>0.0</speed>
  <fix>3d</fix>
</trkpt>
<trkpt lat="40.0728134" lon="-105.2306147">
  <ele>1596.64</ele>
  <time>2026-08-28T19:12:23Z</time>
  <course>349.29</course>
  <speed>0.01414213562373095</speed>
  <fix>3d</fix>
</trkpt>
<trkpt lat="40.0728133" lon="-105.2306145">
  <ele>1596.55</ele>
  <time>2026-08-28T19:12:23Z</time>
  <course>74.92</course>
  <speed>0.0</speed>
  <fix>3d</fix>
</trkpt>
<trkpt lat="40.0728134" lon="-105.2306147">
  <ele>1596.64</ele>
  <time>2026-08-28T19:12:23Z</time>
  <course>349.29</course>
  <speed>0.01414213562373095</speed>
  <fix>3d</fix>
</trkpt>
<trkpt lat="40.0728133" lon="-105.2306145">
  <ele>1596.56</ele>
  <time>2026-08-28T19:12:23Z</time>
  <course>76.76</course>
  <speed>0.0</speed>
  <fix>3d</fix>
</trkpt>
<trkpt lat="40.0728134" lon="-105.2306147">
  <ele>1596.64</ele>
  <time>2026-08-28T19:12:23Z</time>
  <course>349.29</course>
  <speed>0.01414213562373095</speed>
  <fix>3d</fix>
</trkpt>
<trkpt lat="40.0728133" lon="-105.2306145">
  <ele>1596.56</ele>
  <time>2026-08-28T19:12:23Z</time>
  <course>75.44</course>
  <speed>0.0</speed>
  <fix>3d</fix>
</trkpt>
<trkpt lat="40.0728134" lon="-105.2306147">
  <ele>1596.64</ele>
  <time>2026-08-28T19:12:23Z</time>
  <course>349.29</course>
  <speed>0.022360679774997897</speed>
  <fix>3d</fix>
</trkpt>
<trkpt lat="40.0728133" lon="-105.2306145">
  <ele>1596.56</ele>
  <time>2026-08-28T19:12:23Z</time>
  <course>73.58</course>
  <speed>0.0</speed>
  <fix>3d</fix>
</trkpt>
<trkpt lat="40.0728134" lon="-105.2306147">
  <ele>1596.64</ele>
  <time>2026-08-28T19:12:23Z</time>
  <course>349.3</course>
  <speed>0.022360679774997897</speed>
  <fix>3d</fix>
</trkpt>
<trkpt lat="40.0728133" lon="-105.2306145">
  <ele>1596.56</ele>
  <time>2026-08-28T19:12:23Z</time>
  <course>75.45</course>
  <speed>0.0</speed>
  <fix>3d</fix>
</trkpt>
<trkpt lat="40.0728134" lon="-105.2306147">
  <ele>1596.65</ele>
  <time>2026-08-28T19:12:23Z</time>
  <course>349.3</course>
  <speed>0.022360679774997897</speed>
  <fix>3d</fix>
</trkpt>
<trkpt lat="40.0728133" lon="-105.2306145">
  <ele>1596.57</ele>
  <time>2026-08-28T19:12:23Z</time>
  <course>76.5</course>
  <speed>0.0</speed>
  <fix>3d</fix>
</trkpt>
<trkpt lat="40.0728134" lon="-105.2306147">
  <ele>1596.65</ele>
  <time>2026-08-28T19:12:23Z</time>
  <course>349.3</course>
  <speed>0.022360679774997897</speed>
  <fix>3d</fix>
</trkpt>
<trkpt lat="40.0728133" lon="-105.2306144">
  <ele>1596.57</ele>
  <time>2026-08-28T19:12:23Z</time>
  <course>76.41</course>
  <speed>0.0</speed>
  <fix>3d</fix>
</trkpt>
<trkpt lat="40.0728134" lon="-105.2306147">
  <ele>1596.65</ele>
  <time>2026-08-28T19:12:23Z</time>
  <course>349.31</course>
  <speed>0.022360679774997897</speed>
  <fix>3d</fix>
</trkpt>
<trkpt lat="40.0728133" lon="-105.2306143">
  <ele>1596.57</ele>
  <time>2026-08-28T19:12:23Z</time>
  <course>79.09</course>
  <speed>0.0</speed>
  <fix>3d</fix>
</trkpt>
<trkpt lat="40.0728134" lon="-105.2306146">
  <ele>1596.65</ele>
  <time>2026-08-28T19:12:23Z</time>
  <course>349.31</course>
  <speed>0.022360679774997897</speed>
  <fix>3d</fix>
</trkpt>
<trkpt lat="40.0728133" lon="-105.2306143">
  <ele>1596.57</ele>
  <time>2026-08-28T19:12:23Z</time>
  <course>79.81</course>
  <speed>0.0</speed>
  <fix>3d</fix>
</trkpt>
<trkpt lat="40.0728134" lon="-105.2306146">
  <ele>1596.65</ele>
  <time>2026-08-28T19:12:23Z</time>
  <course>349.31</course>
  <speed>0.022360679774997897</speed>
  <fix>3d</fix>
</trkpt>
<trkpt lat="40.0728133" lon="-105.2306143">
  <ele>1596.58</ele>
  <time>2026-08-28T19:12:23Z</time>
  <course>72.73</course>
  <speed>0.0</speed>
  <fix>3d</fix>
</trkpt>
<trkpt lat="40.0728134" lon="-105.2306146">
  <ele>1596.66</ele>
  <time>2026-08-28T19:12:23Z</time>
  <course>349.32</course>
  <speed>0.022360679774997897</speed>
  <fix>3d</fix>
</trkpt>
<trkpt lat="40.0728133" lon="-105.2306143">
  <ele>1596.58</ele>
  <time>2026-08-28T19:12:23Z</time>
  <course>61.63</course>
  <speed>0.0</speed>
  <fix>3d</fix>
</trkpt>
<trkpt lat="40.0728134" lon="-105.2306146">
  <ele>1596.66</ele>
  <time>2026-08-28T19:12:23Z</time>
  <course>349.33</course>
  <speed>0.022360679774997897</speed>
  <fix>3d</fix>
</trkpt>
<trkpt lat="40.0728133" lon="-105.2306143">
  <ele>1596.58</ele>
  <time>2026-08-28T19:12:23Z</time>
  <course>45.16</course>
  <speed>0.0</speed>
  <fix>3d</fix>
</trkpt>
<trkpt lat="40.0728134" lon="-105.2306146">
  <ele>1596.66</ele>
  <time>2026-08-28T19:12:23Z</time>
  <course>349.35</course>
  <speed>0.022360679774997897</speed>
  <fix>3d</fix>
</trkpt>
<trkpt lat="40.0728133" lon="-105.2306143">
  <ele>1596.58</ele>
  <time>2026-08-28T19:12:23Z</time>
  <course>17.45</course>
  <speed>0.0</speed>
  <fix>3d</fix>
</trkpt>
<trkpt lat="40.0728134" lon="-105.2306146">
  <ele>1596.65</ele>
  <time>2026-08-28T19:12:23Z</time>
  <course>349.37</course>
  <speed>0.022360679774997897</speed>
  <fix>3d</fix>
</trkpt>
<trkpt lat="40.0728133" lon="-105.2306143">
  <ele>1596.58</ele>
  <time>2026-08-28T19:12:23Z</time>
  <course>347.42</course>
  <speed>0.0</speed>
  <fix>3d</fix>
</trkpt>
<trkpt lat="40.0728134" lon="-105.2306146">
  <ele>1596.65</ele>
  <time>2026-08-28T19:12:23Z</time>
  <course>349.37</course>
  <speed>0.022360679774997897</speed>
  <fix>3d</fix>
</trkpt>
<trkpt lat="40.0728133" lon="-105.2306143">
  <ele>1596.57</ele>
  <time>2026-08-28T19:12:23Z</time>
  <course>322.95</course>
  <speed>0.0</speed>
  <fix>3d</fix>
</trkpt>
<trkpt lat="40.0728134" lon="-105.2306146">
  <ele>1596.64</ele>
  <time>2026-08-28T19:12:23Z</time>
  <course>349.36</course>
  <speed>0.022360679774997897</speed>
  <fix>3d</fix>
</trkpt>
<trkpt lat="40.0728133" lon="-105.2306143">
  <ele>1596.57</ele>
  <time>2026-08-28T19:12:23Z</time>
  <course>307.85</course>
  <speed>0.0</speed>
  <fix>3d</fix>
</trkpt>
<trkpt lat="40.0728134" lon="-105.2306146">
  <ele>1596.65</ele>
  <time>2026-08-28T19:12:23Z</time>
  <course>349.35</course>
  <speed>0.022360679774997897</speed>
  <fix>3d</fix>
</trkpt>
<trkpt lat="40.0728133" lon="-105.2306143">
  <ele>1596.57</ele>
  <time>2026-08-28T19:12:23Z</time>
  <course>299.35</course>
  <speed>0.0</speed>
  <fix>3d</fix>
</trkpt>
<trkpt lat="40.0728134" lon="-105.2306146">
  <ele>1596.65</ele>
  <time>2026-08-28T19:12:23Z</time>
  <course>349.34</course>
  <speed>0.022360679774997897</speed>
  <fix>3d</fix>
</trkpt>
<trkpt lat="40.0728133" lon="-105.2306143">
  <ele>1596.57</ele>
  <time>2026-08-28T19:12:23Z</time>
  <course>292.8</course>
  <speed>0.0</speed>
  <fix>3d</fix>
</trkpt>
<trkpt lat="40.0728134" lon="-105.2306146">
  <ele>1596.66</ele>
  <time>2026-08-28T19:12:23Z</time>
  <course>349.34</course>
  <speed>0.022360679774997897</speed>
  <fix>3d</fix>
</trkpt>
<trkpt lat="40.0728133" lon="-105.2306143">
  <ele>1596.57</ele>
  <time>2026-08-28T19:12:23Z</time>
  <course>286.55</course>
  <speed>0.0</speed>
  <fix>3d</fix>
</trkpt>
<trkpt lat="40.0728134" lon="-105.2306146">
  <ele>1596.66</ele>
  <time>2026-08-28T19:12:23Z</time>
  <course>349.34</course>
  <speed>0.022360679774997897</speed>
  <fix>3d</fix>
</trkpt>
<trkpt lat="40.0728133" lon="-105.2306143">
  <ele>1596.57</ele>
  <time>2026-08-28T19:12:23Z</time>
  <course>282.4</course>
  <speed>0.0</speed>
  <fix>3d</fix>
</trkpt>
<trkpt lat="40.0728134" lon="-105.2306146">
  <ele>1596.66</ele>
  <time>2026-08-28T19:12:23Z</time>
  <course>349.34</course>
  <speed>0.022360679774997897</speed>
  <fix>3d</fix>
</trkpt>
<trkpt lat="40.0728133" lon="-105.2306143">
  <ele>1596.58</ele>
  <time>2026-08-28T19:12:23Z</time>
  <course>281.07</course>
  <speed>0.0</speed>
  <fix>3d</fix>
</trkpt>
<trkpt lat="40.0728134" lon="-105.2306146">
  <ele>1596.66</ele>
  <time>2026-08-28T19:12:23Z</time>
  <course>349.35</course>
  <speed>0.022360679774997897</speed>
  <fix>3d</fix>
</trkpt>
<trkpt lat="40.0728133" lon="-105.2306143">
  <ele>1596.57</ele>
  <time>2026-08-28T19:12:23Z</time>
  <course>283.53</course>
  <speed>0.0</speed>
  <fix>3d</fix>
</trkpt>
<trkpt lat="40.0728134" lon="-105.2306146">
  <ele>1596.66</ele>
  <time>2026-08-28T19:12:23Z</time>
  <course>349.35</course>
  <speed>0.022360679774997897</speed>
  <fix>3d</fix>
</trkpt>
<trkpt lat="40.0728133" lon="-105.2306143">
  <ele>1596.57</ele>
  <time>2026-08-28T19:12:23Z</time>
  <course>287.62</course>
  <speed>0.0</speed>
  <fix>3d</fix>
</trkpt>
<trkpt lat="40.0728134" lon="-105.2306146">
  <ele>1596.65</ele>
  <time>2026-08-28T19:12:23Z</time>
  <course>349.35</course>
  <speed>0.022360679774997897</speed>
  <fix>3d</fix>
</trkpt>
<trkpt lat="40.0728133" lon="-105.2306144">
  <ele>1596.57</ele>
  <time>2026-08-28T19:12:23Z</time>
  <course>289.41</course>
  <speed>0.0</speed>
  <fix>3d</fix>
</trkpt>
<trkpt lat="40.0728134" lon="-105.2306146">
  <ele>1596.65</ele>
  <time>2026-08-28T19:12:23Z</time>
  <course>349.34</course>
  <speed>0.022360679774997897</speed>
  <fix>3d</fix>
</trkpt>
<trkpt lat="40.0728133" lon="-105.2306145">
  <ele>1596.57</ele>
  <time>2026-08-28T19:12:23Z</time>
  <course>290.62</course>
  <speed>0.0</speed>
  <fix>3d</fix>
</trkpt>
<trkpt lat="40.0728134" lon="-105.2306146">
  <ele>1596.65</ele>
  <time>2026-08-28T19:12:23Z</time>
  <course>349.34</course>
  <speed>0.022360679774997897</speed>
  <fix>3d</fix>
</trkpt>
<trkpt lat="40.0728133" lon="-105.2306145">
  <ele>1596.57</ele>
  <time>2026-08-28T19:12:23Z</time>
  <course>293.48</course>
  <speed>0.0</speed>
  <fix>3d</fix>
</trkpt>
<trkpt lat="40.0728134" lon="-105.2306146">
  <ele>1596.64</ele>
  <time>2026-08-28T19:12:23Z</time>
  <course>349.34</course>
  <speed>0.022360679774997897</speed>
  <fix>3d</fix>
</trkpt>
<trkpt lat="40.0728133" lon="-105.2306145">
  <ele>1596.57</ele>
  <time>2026-08-28T19:12:23Z</time>
  <course>296.9</course>
  <speed>0.0</speed>
  <fix>3d</fix>
</trkpt>
<trkpt lat="40.0728134" lon="-105.2306147">
  <ele>1596.64</ele>
  <time>2026-08-28T19:12:23Z</time>
  <course>349.33</course>
  <speed>0.022360679774997897</speed>
  <fix>3d</fix>
</trkpt>
<trkpt lat="40.0728133" lon="-105.2306145">
  <ele>1596.57</ele>
  <time>2026-08-28T19:12:23Z</time>
  <course>300.37</course>
  <speed>0.0</speed>
  <fix>3d</fix>
</trkpt>
<trkpt lat="40.0728134" lon="-105.2306147">
  <ele>1596.64</ele>
  <time>2026-08-28T19:12:23Z</time>
  <course>349.32</course>
  <speed>0.022360679774997897</speed>
  <fix>3d</fix>
</trkpt>
<trkpt lat="40.0728133" lon="-105.2306145">
  <ele>1596.57</ele>
  <time>2026-08-28T19:12:23Z</time>
  <course>304.1</course>
  <speed>0.0</speed>
  <fix>3d</fix>
</trkpt>
<trkpt lat="40.0728134" lon="-105.2306147">
  <ele>1596.64</ele>
  <time>2026-08-28T19:12:23Z</time>
  <course>349.3</course>
  <speed>0.022360679774997897</speed>
  <fix>3d</fix>
</trkpt>
<trkpt lat="40.0728133" lon="-105.2306145">
  <ele>1596.57</ele>
  <time>2026-08-28T19:12:23Z</time>
  <course>306.41</course>
  <speed>0.0</speed>
  <fix>3d</fix>
</trkpt>
<trkpt lat="40.0728134" lon="-105.2306147">
  <ele>1596.64</ele>
  <time>2026-08-28T19:12:23Z</time>
  <course>349.28</course>
  <speed>0.022360679774997897</speed>
  <fix>3d</fix>
</trkpt>
<trkpt lat="40.0728133" lon="-105.2306146">
  <ele>1596.57</ele>
  <time>2026-08-28T19:12:23Z</time>
  <course>310.07</course>
  <speed>0.0</speed>
  <fix>3d</fix>
</trkpt>
<trkpt lat="40.0728134" lon="-105.2306147">
  <ele>1596.64</ele>
  <time>2026-08-28T19:12:23Z</time>
  <course>349.27</course>
  <speed>0.022360679774997897</speed>
  <fix>3d</fix>
</trkpt>
<trkpt lat="40.0728133" lon="-105.2306146">
  <ele>1596.57</ele>
  <time>2026-08-28T19:12:23Z</time>
  <course>319.38</course>
  <speed>0.0</speed>
  <fix>3d</fix>
</trkpt>
<trkpt lat="40.0728134" lon="-105.2306147">
  <ele>1596.64</ele>
  <time>2026-08-28T19:12:23Z</time>
  <course>349.27</course>
  <speed>0.022360679774997897</speed>
  <fix>3d</fix>
</trkpt>
<trkpt lat="40.0728133" lon="-105.2306146">
  <ele>1596.58</ele>
  <time>2026-08-28T19:12:23Z</time>
  <course>333.87</course>
  <speed>0.0</speed>
  <fix>3d</fix>
</trkpt>
<trkpt lat="40.0728134" lon="-105.2306147">
  <ele>1596.65</ele>
  <time>2026-08-28T19:12:23Z</time>
  <course>349.27</course>
  <speed>0.022360679774997897</speed>
  <fix>3d</fix>
</trkpt>
<trkpt lat="40.0728133" lon="-105.2306146">
  <ele>1596.58</ele>
  <time>2026-08-28T19:12:23Z</time>
  <course>4.41</course>
  <speed>0.0</speed>
  <fix>3d</fix>
</trkpt>
<trkpt lat="40.0728134" lon="-105.2306147">
  <ele>1596.64</ele>
  <time>2026-08-28T19:12:23Z</time>
  <course>349.29</course>
  <speed>0.022360679774997897</speed>
  <fix>3d</fix>
</trkpt>
<trkpt lat="40.0728133" lon="-105.2306146">
  <ele>1596.58</ele>
  <time>2026-08-28T19:12:23Z</time>
  <course>35.52</course>
  <speed>0.0</speed>
  <fix>3d</fix>
</trkpt>
<trkpt lat="40.0728134" lon="-105.2306147">
  <ele>1596.64</ele>
  <time>2026-08-28T19:12:23Z</time>
  <course>349.29</course>
  <speed>0.01414213562373095</speed>
  <fix>3d</fix>
</trkpt>
<trkpt lat="40.0728133" lon="-105.2306146">
  <ele>1596.58</ele>
  <time>2026-08-28T19:12:23Z</time>
  <course>47.27</course>
  <speed>0.0</speed>
  <fix>3d</fix>
</trkpt>
<trkpt lat="40.0728134" lon="-105.2306147">
  <ele>1596.65</ele>
  <time>2026-08-28T19:12:23Z</time>
  <course>349.29</course>
  <speed>0.01414213562373095</speed>
  <fix>3d</fix>
</trkpt>
<trkpt lat="40.0728133" lon="-105.2306146">
  <ele>1596.59</ele>
  <time>2026-08-28T19:12:23Z</time>
  <course>59.16</course>
  <speed>0.0</speed>
  <fix>3d</fix>
</trkpt>
<trkpt lat="40.0728134" lon="-105.2306147">
  <ele>1596.65</ele>
  <time>2026-08-28T19:12:23Z</time>
  <course>349.29</course>
  <speed>0.01414213562373095</speed>
  <fix>3d</fix>
</trkpt>
<trkpt lat="40.0728133" lon="-105.2306146">
  <ele>1596.59</ele>
  <time>2026-08-28T19:12:23Z</time>
  <course>65.53</course>
  <speed>0.0</speed>
  <fix>3d</fix>
</trkpt>
<trkpt lat="40.0728134" lon="-105.2306147">
  <ele>1596.65</ele>
  <time>2026-08-28T19:12:23Z</time>
  <course>349.3</course>
  <speed>0.01414213562373095</speed>
  <fix>3d</fix>
</trkpt>
<trkpt lat="40.0728133" lon="-105.2306146">
  <ele>1596.59</ele>
  <time>2026-08-28T19:12:23Z</time>
  <course>65.61</course>
  <speed>0.0</speed>
  <fix>3d</fix>
</trkpt>
<trkpt lat="40.0728134" lon="-105.2306147">
  <ele>1596.65</ele>
  <time>2026-08-28T19:12:23Z</time>
  <course>349.31</course>
  <speed>0.01414213562373095</speed>
  <fix>3d</fix>
</trkpt>
<trkpt lat="40.0728133" lon="-105.2306146">
  <ele>1596.59</ele>
  <time>2026-08-28T19:12:23Z</time>
  <course>65.36</course>
  <speed>0.0</speed>
  <fix>3d</fix>
</trkpt>
<trkpt lat="40.0728134" lon="-105.2306147">
  <ele>1596.65</ele>
  <time>2026-08-28T19:12:23Z</time>
  <course>349.32</course>
  <speed>0.01414213562373095</speed>
  <fix>3d</fix>
</trkpt>
<trkpt lat="40.0728133" lon="-105.2306146">
  <ele>1596.59</ele>
  <time>2026-08-28T19:12:23Z</time>
  <course>65.05</course>
  <speed>0.0</speed>
  <fix>3d</fix>
</trkpt>
<trkpt lat="40.0728134" lon="-105.2306147">
  <ele>1596.65</ele>
  <time>2026-08-28T19:12:23Z</time>
  <course>349.33</course>
  <speed>0.01414213562373095</speed>
  <fix>3d</fix>
</trkpt>
<trkpt lat="40.0728133" lon="-105.2306146">
  <ele>1596.59</ele>
  <time>2026-08-28T19:12:23Z</time>
  <course>64.68</course>
  <speed>0.0</speed>
  <fix>3d</fix>
</trkpt>
<trkpt lat="40.0728134" lon="-105.2306147">
  <ele>1596.65</ele>
  <time>2026-08-28T19:12:23Z</time>
  <course>349.33</course>
  <speed>0.01414213562373095</speed>
  <fix>3d</fix>
</trkpt>
<trkpt lat="40.0728134" lon="-105.2306146">
  <ele>1596.59</ele>
  <time>2026-08-28T19:12:23Z</time>
  <course>64.24</course>
  <speed>0.0</speed>
  <fix>3d</fix>
</trkpt>
<trkpt lat="40.0728134" lon="-105.2306147">
  <ele>1596.65</ele>
  <time>2026-08-28T19:12:23Z</time>
  <course>349.34</course>
  <speed>0.01414213562373095</speed>
  <fix>3d</fix>
</trkpt>
<trkpt lat="40.0728134" lon="-105.2306146">
  <ele>1596.6</ele>
  <time>2026-08-28T19:12:23Z</time>
  <course>63.73</course>
  <speed>0.0</speed>
  <fix>3d</fix>
</trkpt>
<trkpt lat="40.0728134" lon="-105.2306147">
  <ele>1596.66</ele>
  <time>2026-08-28T19:12:23Z</time>
  <course>349.34</course>
  <speed>0.01414213562373095</speed>
  <fix>3d</fix>
</trkpt>
<trkpt lat="40.0728134" lon="-105.2306146">
  <ele>1596.6</ele>
  <time>2026-08-28T19:12:23Z</time>
  <course>64.12</course>
  <speed>0.0</speed>
  <fix>3d</fix>
</trkpt>
<trkpt lat="40.0728134" lon="-105.2306147">
  <ele>1596.66</ele>
  <time>2026-08-28T19:12:23Z</time>
  <course>349.35</course>
  <speed>0.01414213562373095</speed>
  <fix>3d</fix>
</trkpt>
<trkpt lat="40.0728134" lon="-105.2306145">
  <ele>1596.6</ele>
  <time>2026-08-28T19:12:23Z</time>
  <course>68.05</course>
  <speed>0.0</speed>
  <fix>3d</fix>
</trkpt>
<trkpt lat="40.0728134" lon="-105.2306147">
  <ele>1596.66</ele>
  <time>2026-08-28T19:12:23Z</time>
  <course>349.35</course>
  <speed>0.01414213562373095</speed>
  <fix>3d</fix>
</trkpt>
<trkpt lat="40.0728134" lon="-105.2306145">
  <ele>1596.6</ele>
  <time>2026-08-28T19:12:23Z</time>
  <course>77.32</course>
  <speed>0.0</speed>
  <fix>3d</fix>
</trkpt>
<trkpt lat="40.0728134" lon="-105.2306147">
  <ele>1596.66</ele>
  <time>2026-08-28T19:12:23Z</time>
  <course>349.35</course>
  <speed>0.01414213562373095</speed>
  <fix>3d</fix>
</trkpt>
<trkpt lat="40.0728134" lon="-105.2306145">
  <ele>1596.6</ele>
  <time>2026-08-28T19:12:23Z</time>
  <course>90.06</course>
  <speed>0.0</speed>
  <fix>3d</fix>
</trkpt>
<trkpt lat="40.0728134" lon="-105.2306147">
  <ele>1596.66</ele>
  <time>2026-08-28T19:12:23Z</time>
  <course>349.36</course>
  <speed>0.01414213562373095</speed>
  <fix>3d</fix>
</trkpt>
<trkpt lat="40.0728134" lon="-105.2306145">
  <ele>1596.59</ele>
  <time>2026-08-28T19:12:23Z</time>
  <course>101.08</course>
  <speed>0.0</speed>
  <fix>3d</fix>
</trkpt>
<trkpt lat="40.0728134" lon="-105.2306147">
  <ele>1596.66</ele>
  <time>2026-08-28T19:12:23Z</time>
  <course>349.36</course>
  <speed>0.01</speed>
  <fix>3d</fix>
</trkpt>
<trkpt lat="40.0728134" lon="-105.2306145">
  <ele>1596.59</ele>
  <time>2026-08-28T19:12:23Z</time>
  <course>108.96</course>
  <speed>0.0</speed>
  <fix>3d</fix>
</trkpt>
<trkpt lat="40.0728134" lon="-105.2306147">
  <ele>1596.66</ele>
  <time>2026-08-28T19:12:23Z</time>
  <course>349.37</course>
  <speed>0.01</speed>
  <fix>3d</fix>
</trkpt>
<trkpt lat="40.0728134" lon="-105.2306144">
  <ele>1596.59</ele>
  <time>2026-08-28T19:12:23Z</time>
  <course>114.5</course>
  <speed>0.0</speed>
  <fix>3d</fix>
</trkpt>
<trkpt lat="40.0728134" lon="-105.2306147">
  <ele>1596.66</ele>
  <time>2026-08-28T19:12:24Z</time>
  <course>349.37</course>
  <speed>0.01</speed>
  <fix>3d</fix>
</trkpt>
<trkpt lat="40.0728134" lon="-105.2306143">
  <ele>1596.59</ele>
  <time>2026-08-28T19:12:24Z</time>
  <course>119.76</course>
  <speed>0.0</speed>
  <fix>3d</fix>
</trkpt>
<trkpt lat="40.0728134" lon="-105.2306147">
  <ele>1596.66</ele>
  <time>2026-08-28T19:12:24Z</time>
  <course>349.37</course>
  <speed>0.01</speed>
  <fix>3d</fix>
</trkpt>
<trkpt lat="40.0728134" lon="-105.2306143">
  <ele>1596.58</ele>
  <time>2026-08-28T19:12:24Z</time>
  <course>125.81</course>
  <speed>0.0</speed>
  <fix>3d</fix>
</trkpt>
<trkpt lat="40.0728134" lon="-105.2306147">
  <ele>1596.67</ele>
  <time>2026-08-28T19:12:24Z</time>
  <course>349.37</course>
  <speed>0.01</speed>
  <fix>3d</fix>
</trkpt>
<trkpt lat="40.0728134" lon="-105.2306143">
  <ele>1596.58</ele>
  <time>2026-08-28T19:12:24Z</time>
  <course>131.86</course>
  <speed>0.0</speed>
  <fix>3d</fix>
</trkpt>
<trkpt lat="40.0728134" lon="-105.2306146">
  <ele>1596.66</ele>
  <time>2026-08-28T19:12:24Z</time>
  <course>349.38</course>
  <speed>0.01</speed>
  <fix>3d</fix>
</trkpt>
<trkpt lat="40.0728134" lon="-105.2306143">
  <ele>1596.58</ele>
  <time>2026-08-28T19:12:24Z</time>
  <course>140.48</course>
  <speed>0.0</speed>
  <fix>3d</fix>
</trkpt>
<trkpt lat="40.0728134" lon="-105.2306146">
  <ele>1596.66</ele>
  <time>2026-08-28T19:12:24Z</time>
  <course>349.38</course>
  <speed>0.02</speed>
  <fix>3d</fix>
</trkpt>
<trkpt lat="40.0728134" lon="-105.2306143">
  <ele>1596.58</ele>
  <time>2026-08-28T19:12:24Z</time>
  <course>153.04</course>
  <speed>0.0</speed>
  <fix>3d</fix>
</trkpt>
<trkpt lat="40.0728134" lon="-105.2306146">
  <ele>1596.65</ele>
  <time>2026-08-28T19:12:24Z</time>
  <course>349.38</course>
  <speed>0.02</speed>
  <fix>3d</fix>
</trkpt>
<trkpt lat="40.0728134" lon="-105.2306143">
  <ele>1596.57</ele>
  <time>2026-08-28T19:12:24Z</time>
  <course>167.04</course>
  <speed>0.0</speed>
  <fix>3d</fix>
</trkpt>
<trkpt lat="40.0728134" lon="-105.2306146">
  <ele>1596.65</ele>
  <time>2026-08-28T19:12:24Z</time>
  <course>349.36</course>
  <speed>0.02</speed>
  <fix>3d</fix>
</trkpt>
<trkpt lat="40.0728134" lon="-105.2306143">
  <ele>1596.57</ele>
  <time>2026-08-28T19:12:24Z</time>
  <course>180.98</course>
  <speed>0.0</speed>
  <fix>3d</fix>
</trkpt>
<trkpt lat="40.0728134" lon="-105.2306146">
  <ele>1596.65</ele>
  <time>2026-08-28T19:12:24Z</time>
  <course>349.34</course>
  <speed>0.02</speed>
  <fix>3d</fix>
</trkpt>
<trkpt lat="40.0728134" lon="-105.2306143">
  <ele>1596.57</ele>
  <time>2026-08-28T19:12:24Z</time>
  <course>193.88</course>
  <speed>0.0</speed>
  <fix>3d</fix>
</trkpt>
<trkpt lat="40.0728134" lon="-105.2306146">
  <ele>1596.66</ele>
  <time>2026-08-28T19:12:24Z</time>
  <course>349.33</course>
  <speed>0.02</speed>
  <fix>3d</fix>
</trkpt>
<trkpt lat="40.0728134" lon="-105.2306143">
  <ele>1596.57</ele>
  <time>2026-08-28T19:12:24Z</time>
  <course>205.55</course>
  <speed>0.0</speed>
  <fix>3d</fix>
</trkpt>
<trkpt lat="40.0728134" lon="-105.2306146">
  <ele>1596.66</ele>
  <time>2026-08-28T19:12:24Z</time>
  <course>349.34</course>
  <speed>0.02</speed>
  <fix>3d</fix>
</trkpt>
<trkpt lat="40.0728134" lon="-105.2306143">
  <ele>1596.57</ele>
  <time>2026-08-28T19:12:24Z</time>
  <course>214.61</course>
  <speed>0.0</speed>
  <fix>3d</fix>
</trkpt>
<trkpt lat="40.0728134" lon="-105.2306146">
  <ele>1596.66</ele>
  <time>2026-08-28T19:12:24Z</time>
  <course>349.35</course>
  <speed>0.02</speed>
  <fix>3d</fix>
</trkpt>
<trkpt lat="40.0728134" lon="-105.2306143">
  <ele>1596.56</ele>
  <time>2026-08-28T19:12:24Z</time>
  <course>219.11</course>
  <speed>0.0</speed>
  <fix>3d</fix>
</trkpt>
<trkpt lat="40.0728134" lon="-105.2306146">
  <ele>1596.66</ele>
  <time>2026-08-28T19:12:24Z</time>
  <course>349.36</course>
  <speed>0.022360679774997897</speed>
  <fix>3d</fix>
</trkpt>
<trkpt lat="40.0728133" lon="-105.2306143">
  <ele>1596.56</ele>
  <time>2026-08-28T19:12:24Z</time>
  <course>222.79</course>
  <speed>0.0</speed>
  <fix>3d</fix>
</trkpt>
<trkpt lat="40.0728134" lon="-105.2306146">
  <ele>1596.65</ele>
  <time>2026-08-28T19:12:24Z</time>
  <course>349.36</course>
  <speed>0.022360679774997897</speed>
  <fix>3d</fix>
</trkpt>
<trkpt lat="40.0728133" lon="-105.2306143">
  <ele>1596.56</ele>
  <time>2026-08-28T19:12:24Z</time>
  <course>227.21</course>
  <speed>0.0</speed>
  <fix>3d</fix>
</trkpt>
<trkpt lat="40.0728134" lon="-105.2306146">
  <ele>1596.65</ele>
  <time>2026-08-28T19:12:24Z</time>
  <course>349.35</course>
  <speed>0.022360679774997897</speed>
  <fix>3d</fix>
</trkpt>
<trkpt lat="40.0728133" lon="-105.2306143">
  <ele>1596.56</ele>
  <time>2026-08-28T19:12:24Z</time>
  <course>230.25</course>
  <speed>0.0</speed>
  <fix>3d</fix>
</trkpt>
<trkpt lat="40.0728134" lon="-105.2306146">
  <ele>1596.64</ele>
  <time>2026-08-28T19:12:24Z</time>
  <course>349.33</course>
  <speed>0.022360679774997897</speed>
  <fix>3d</fix>
</trkpt>
<trkpt lat="40.0728133" lon="-105.2306143">
  <ele>1596.56</ele>
  <time>2026-08-28T19:12:24Z</time>
  <course>231.96</course>
  <speed>0.0</speed>
  <fix>3d</fix>
</trkpt>
<trkpt lat="40.0728134" lon="-105.2306146">
  <ele>1596.64</ele>
  <time>2026-08-28T19:12:24Z</time>
  <course>349.31</course>
  <speed>0.022360679774997897</speed>
  <fix>3d</fix>
</trkpt>
<trkpt lat="40.0728133" lon="-105.2306143">
  <ele>1596.56</ele>
  <time>2026-08-28T19:12:24Z</time>
  <course>233.56</course>
  <speed>0.0</speed>
  <fix>3d</fix>
</trkpt>
<trkpt lat="40.0728134" lon="-105.2306146">
  <ele>1596.65</ele>
  <time>2026-08-28T19:12:24Z</time>
  <course>349.3</course>
  <speed>0.022360679774997897</speed>
  <fix>3d</fix>
</trkpt>
<trkpt lat="40.0728133" lon="-105.2306143">
  <ele>1596.56</ele>
  <time>2026-08-28T19:12:24Z</time>
  <course>235.69</course>
  <speed>0.0</speed>
  <fix>3d</fix>
</trkpt>
<trkpt lat="40.0728134" lon="-105.2306146">
  <ele>1596.65</ele>
  <time>2026-08-28T19:12:24Z</time>
  <course>349.29</course>
  <speed>0.022360679774997897</speed>
  <fix>3d</fix>
</trkpt>
<trkpt lat="40.0728133" lon="-105.2306143">
  <ele>1596.56</ele>
  <time>2026-08-28T19:12:24Z</time>
  <course>239.51</course>
  <speed>0.0</speed>
  <fix>3d</fix>
</trkpt>
<trkpt lat="40.0728134" lon="-105.2306146">
  <ele>1596.65</ele>
  <time>2026-08-28T19:12:24Z</time>
  <course>349.29</course>
  <speed>0.022360679774997897</speed>
  <fix>3d</fix>
</trkpt>
<trkpt lat="40.0728133" lon="-105.2306143">
  <ele>1596.56</ele>
  <time>2026-08-28T19:12:24Z</time>
  <course>244.5</course>
  <speed>0.0</speed>
  <fix>3d</fix>
</trkpt>
<trkpt lat="40.0728134" lon="-105.2306146">
  <ele>1596.65</ele>
  <time>2026-08-28T19:12:24Z</time>
  <course>349.3</course>
  <speed>0.022360679774997897</speed>
  <fix>3d</fix>
</trkpt>
<trkpt lat="40.0728133" lon="-105.2306144">
  <ele>1596.56</ele>
  <time>2026-08-28T19:12:24Z</time>
  <course>251.5</course>
  <speed>0.0</speed>
  <fix>3d</fix>
</trkpt>
<trkpt lat="40.0728134" lon="-105.2306146">
  <ele>1596.65</ele>
  <time>2026-08-28T19:12:24Z</time>
  <course>349.29</course>
  <speed>0.022360679774997897</speed>
  <fix>3d</fix>
</trkpt>
<trkpt lat="40.0728133" lon="-105.2306145">
  <ele>1596.56</ele>
  <time>2026-08-28T19:12:24Z</time>
  <course>261.95</course>
  <speed>0.0</speed>
  <fix>3d</fix>
</trkpt>
<trkpt lat="40.0728134" lon="-105.2306146">
  <ele>1596.65</ele>
  <time>2026-08-28T19:12:24Z</time>
  <course>349.29</course>
  <speed>0.022360679774997897</speed>
  <fix>3d</fix>
</trkpt>
<trkpt lat="40.0728133" lon="-105.2306145">
  <ele>1596.56</ele>
  <time>2026-08-28T19:12:24Z</time>
  <course>274.04</course>
  <speed>0.0</speed>
  <fix>3d</fix>
</trkpt>
<trkpt lat="40.0728134" lon="-105.2306146">
  <ele>1596.65</ele>
  <time>2026-08-28T19:12:24Z</time>
  <course>349.28</course>
  <speed>0.022360679774997897</speed>
  <fix>3d</fix>
</trkpt>
<trkpt lat="40.0728133" lon="-105.2306145">
  <ele>1596.56</ele>
  <time>2026-08-28T19:12:24Z</time>
  <course>283.15</course>
  <speed>0.0</speed>
  <fix>3d</fix>
</trkpt>
<trkpt lat="40.0728134" lon="-105.2306147">
  <ele>1596.64</ele>
  <time>2026-08-28T19:12:24Z</time>
  <course>349.28</course>
  <speed>0.022360679774997897</speed>
  <fix>3d</fix>
</trkpt>
<trkpt lat="40.0728133" lon="-105.2306145">
  <ele>1596.56</ele>
  <time>2026-08-28T19:12:24Z</time>
  <course>287.69</course>
  <speed>0.0</speed>
  <fix>3d</fix>
</trkpt>
<trkpt lat="40.0728134" lon="-105.2306147">
  <ele>1596.64</ele>
  <time>2026-08-28T19:12:24Z</time>
  <course>349.28</course>
  <speed>0.022360679774997897</speed>
  <fix>3d</fix>
</trkpt>
<trkpt lat="40.0728133" lon="-105.2306145">
  <ele>1596.56</ele>
  <time>2026-08-28T19:12:24Z</time>
  <course>289.21</course>
  <speed>0.0</speed>
  <fix>3d</fix>
</trkpt>
<trkpt lat="40.0728134" lon="-105.2306147">
  <ele>1596.64</ele>
  <time>2026-08-28T19:12:24Z</time>
  <course>349.27</course>
  <speed>0.022360679774997897</speed>
  <fix>3d</fix>
</trkpt>
<trkpt lat="40.0728133" lon="-105.2306146">
  <ele>1596.56</ele>
  <time>2026-08-28T19:12:24Z</time>
  <course>289.73</course>
  <speed>0.0</speed>
  <fix>3d</fix>
</trkpt>
<trkpt lat="40.0728134" lon="-105.2306147">
  <ele>1596.64</ele>
  <time>2026-08-28T19:12:24Z</time>
  <course>349.27</course>
  <speed>0.022360679774997897</speed>
  <fix>3d</fix>
</trkpt>
<trkpt lat="40.0728133" lon="-105.2306146">
  <ele>1596.56</ele>
  <time>2026-08-28T19:12:24Z</time>
  <course>288.81</course>
  <speed>0.0</speed>
  <fix>3d</fix>
</trkpt>
<trkpt lat="40.0728134" lon="-105.2306147">
  <ele>1596.65</ele>
  <time>2026-08-28T19:12:24Z</time>
  <course>349.27</course>
  <speed>0.022360679774997897</speed>
  <fix>3d</fix>
</trkpt>
<trkpt lat="40.0728133" lon="-105.2306146">
  <ele>1596.56</ele>
  <time>2026-08-28T19:12:24Z</time>
  <course>288.37</course>
  <speed>0.0</speed>
  <fix>3d</fix>
</trkpt>
<trkpt lat="40.0728134" lon="-105.2306147">
  <ele>1596.65</ele>
  <time>2026-08-28T19:12:24Z</time>
  <course>349.27</course>
  <speed>0.022360679774997897</speed>
  <fix>3d</fix>
</trkpt>
<trkpt lat="40.0728133" lon="-105.2306146">
  <ele>1596.56</ele>
  <time>2026-08-28T19:12:24Z</time>
  <course>298.64</course>
  <speed>0.0</speed>
  <fix>3d</fix>
</trkpt>
<trkpt lat="40.0728134" lon="-105.2306147">
  <ele>1596.65</ele>
  <time>2026-08-28T19:12:24Z</time>
  <course>349.27</course>
  <speed>0.022360679774997897</speed>
  <fix>3d</fix>
</trkpt>
<trkpt lat="40.0728133" lon="-105.2306146">
  <ele>1596.56</ele>
  <time>2026-08-28T19:12:24Z</time>
  <course>337.8</course>
  <speed>0.0</speed>
  <fix>3d</fix>
</trkpt>
<trkpt lat="40.0728134" lon="-105.2306147">
  <ele>1596.66</ele>
  <time>2026-08-28T19:12:24Z</time>
  <course>349.27</course>
  <speed>0.01414213562373095</speed>
  <fix>3d</fix>
</trkpt>
<trkpt lat="40.0728133" lon="-105.2306146">
  <ele>1596.56</ele>
  <time>2026-08-28T19:12:24Z</time>
  <course>36.13</course>
  <speed>0.0</speed>
  <fix>3d</fix>
</trkpt>
<trkpt lat="40.0728134" lon="-105.2306147">
  <ele>1596.66</ele>
  <time>2026-08-28T19:12:24Z</time>
  <course>349.27</course>
  <speed>0.01414213562373095</speed>
  <fix>3d</fix>
</trkpt>
<trkpt lat="40.0728133" lon="-105.2306146">
  <ele>1596.56</ele>
  <time>2026-08-28T19:12:24Z</time>
  <course>59.62</course>
  <speed>0.0</speed>
  <fix>3d</fix>
</trkpt>
<trkpt lat="40.0728134" lon="-105.2306147">
  <ele>1596.66</ele>
  <time>2026-08-28T19:12:24Z</time>
  <course>349.29</course>
  <speed>0.01414213562373095</speed>
  <fix>3d</fix>
</trkpt>
<trkpt lat="40.0728133" lon="-105.2306146">
  <ele>1596.57</ele>
  <time>2026-08-28T19:12:24Z</time>
  <course>67.54</course>
  <speed>0.0</speed>
  <fix>3d</fix>
</trkpt>
<trkpt lat="40.0728134" lon="-105.2306147">
  <ele>1596.65</ele>
  <time>2026-08-28T19:12:24Z</time>
  <course>349.31</course>
  <speed>0.01414213562373095</speed>
  <fix>3d</fix>
</trkpt>
<trkpt lat="40.0728133" lon="-105.2306146">
  <ele>1596.56</ele>
  <time>2026-08-28T19:12:24Z</time>
  <course>70.03</course>
  <speed>0.0</speed>
  <fix>3d</fix>
</trkpt>
<trkpt lat="40.0728134" lon="-105.2306147">
  <ele>1596.65</ele>
  <time>2026-08-28T19:12:24Z</time>
  <course>349.3</course>
  <speed>0.01414213562373095</speed>
  <fix>3d</fix>
</trkpt>
<trkpt lat="40.0728133" lon="-105.2306146">
  <ele>1596.56</ele>
  <time>2026-08-28T19:12:24Z</time>
  <course>69.99</course>
  <speed>0.0</speed>
  <fix>3d</fix>
</trkpt>
<trkpt lat="40.0728134" lon="-105.2306147">
  <ele>1596.65</ele>
  <time>2026-08-28T19:12:24Z</time>
  <course>349.3</course>
  <speed>0.01414213562373095</speed>
  <fix>3d</fix>
</trkpt>
<trkpt lat="40.0728133" lon="-105.2306146">
  <ele>1596.56</ele>
  <time>2026-08-28T19:12:24Z</time>
  <course>69.28</course>
  <speed>0.0</speed>
  <fix>3d</fix>
</trkpt>
<trkpt lat="40.0728134" lon="-105.2306147">
  <ele>1596.65</ele>
  <time>2026-08-28T19:12:24Z</time>
  <course>349.29</course>
  <speed>0.01414213562373095</speed>
  <fix>3d</fix>
</trkpt>
<trkpt lat="40.0728133" lon="-105.2306146">
  <ele>1596.56</ele>
  <time>2026-08-28T19:12:24Z</time>
  <course>69.29</course>
  <speed>0.0</speed>
  <fix>3d</fix>
</trkpt>
<trkpt lat="40.0728134" lon="-105.2306147">
  <ele>1596.65</ele>
  <time>2026-08-28T19:12:24Z</time>
  <course>349.29</course>
  <speed>0.01414213562373095</speed>
  <fix>3d</fix>
</trkpt>
<trkpt lat="40.0728133" lon="-105.2306146">
  <ele>1596.56</ele>
  <time>2026-08-28T19:12:24Z</time>
  <course>69.78</course>
  <speed>0.0</speed>
  <fix>3d</fix>
</trkpt>
<trkpt lat="40.0728134" lon="-105.2306147">
  <ele>1596.64</ele>
  <time>2026-08-28T19:12:24Z</time>
  <course>349.29</course>
  <speed>0.01414213562373095</speed>
  <fix>3d</fix>
</trkpt>
<trkpt lat="40.0728133" lon="-105.2306146">
  <ele>1596.56</ele>
  <time>2026-08-28T19:12:24Z</time>
  <course>70.17</course>
  <speed>0.0</speed>
  <fix>3d</fix>
</trkpt>
<trkpt lat="40.0728134" lon="-105.2306147">
  <ele>1596.64</ele>
  <time>2026-08-28T19:12:24Z</time>
  <course>349.28</course>
  <speed>0.01414213562373095</speed>
  <fix>3d</fix>
</trkpt>
<trkpt lat="40.0728133" lon="-105.2306146">
  <ele>1596.56</ele>
  <time>2026-08-28T19:12:24Z</time>
  <course>70.72</course>
  <speed>0.0</speed>
  <fix>3d</fix>
</trkpt>
<trkpt lat="40.0728134" lon="-105.2306147">
  <ele>1596.64</ele>
  <time>2026-08-28T19:12:24Z</time>
  <course>349.28</course>
  <speed>0.01414213562373095</speed>
  <fix>3d</fix>
</trkpt>
<trkpt lat="40.0728133" lon="-105.2306145">
  <ele>1596.56</ele>
  <time>2026-08-28T19:12:24Z</time>
  <course>71.68</course>
  <speed>0.0</speed>
  <fix>3d</fix>
</trkpt>
<trkpt lat="40.0728134" lon="-105.2306147">
  <ele>1596.64</ele>
  <time>2026-08-28T19:12:24Z</time>
  <course>349.25</course>
  <speed>0.01414213562373095</speed>
  <fix>3d</fix>
</trkpt>
<trkpt lat="40.0728133" lon="-105.2306145">
  <ele>1596.56</ele>
  <time>2026-08-28T19:12:24Z</time>
  <course>73.66</course>
  <speed>0.0</speed>
  <fix>3d</fix>
</trkpt>
<trkpt lat="40.0728134" lon="-105.2306147">
  <ele>1596.65</ele>
  <time>2026-08-28T19:12:24Z</time>
  <course>349.24</course>
  <speed>0.01414213562373095</speed>
  <fix>3d</fix>
</trkpt>
<trkpt lat="40.0728133" lon="-105.2306145">
  <ele>1596.56</ele>
  <time>2026-08-28T19:12:24Z</time>
  <course>75.3</course>
  <speed>0.0</speed>
  <fix>3d</fix>
</trkpt>
<trkpt lat="40.0728134" lon="-105.2306147">
  <ele>1596.65</ele>
  <time>2026-08-28T19:12:24Z</time>
  <course>349.23</course>
  <speed>0.01414213562373095</speed>
  <fix>3d</fix>
</trkpt>
<trkpt lat="40.0728133" lon="-105.2306145">
  <ele>1596.56</ele>
  <time>2026-08-28T19:12:24Z</time>
  <course>74.36</course>
  <speed>0.0</speed>
  <fix>3d</fix>
</trkpt>
<trkpt lat="40.0728134" lon="-105.2306147">
  <ele>1596.65</ele>
  <time>2026-08-28T19:12:24Z</time>
  <course>349.24</course>
  <speed>0.01414213562373095</speed>
  <fix>3d</fix>
</trkpt>
<trkpt lat="40.0728133" lon="-105.2306145">
  <ele>1596.57</ele>
  <time>2026-08-28T19:12:24Z</time>
  <course>72.21</course>
  <speed>0.0</speed>
  <fix>3d</fix>
</trkpt>
<trkpt lat="40.0728134" lon="-105.2306147">
  <ele>1596.66</ele>
  <time>2026-08-28T19:12:24Z</time>
  <course>349.25</course>
  <speed>0.022360679774997897</speed>
  <fix>3d</fix>
</trkpt>
<trkpt lat="40.0728133" lon="-105.2306145">
  <ele>1596.57</ele>
  <time>2026-08-28T19:12:24Z</time>
  <course>69.84</course>
  <speed>0.0</speed>
  <fix>3d</fix>
</trkpt>
<trkpt lat="40.0728134" lon="-105.2306147">
  <ele>1596.66</ele>
  <time>2026-08-28T19:12:24Z</time>
  <course>349.26</course>
  <speed>0.022360679774997897</speed>
  <fix>3d</fix>
</trkpt>
<trkpt lat="40.0728133" lon="-105.2306145">
  <ele>1596.57</ele>
  <time>2026-08-28T19:12:24Z</time>
  <course>67.2</course>
  <speed>0.0</speed>
  <fix>3d</fix>
</trkpt>
<trkpt lat="40.0728134" lon="-105.2306147">
  <ele>1596.66</ele>
  <time>2026-08-28T19:12:24Z</time>
  <course>349.27</course>
  <speed>0.022360679774997897</speed>
  <fix>3d</fix>
</trkpt>
<trkpt lat="40.0728133" lon="-105.2306144">
  <ele>1596.57</ele>
  <time>2026-08-28T19:12:24Z</time>
  <course>64.86</course>
  <speed>0.0</speed>
  <fix>3d</fix>
</trkpt>
<trkpt lat="40.0728134" lon="-105.2306147">
  <ele>1596.66</ele>
  <time>2026-08-28T19:12:24Z</time>
  <course>349.28</course>
  <speed>0.022360679774997897</speed>
  <fix>3d</fix>
</trkpt>
<trkpt lat="40.0728133" lon="-105.2306143">
  <ele>1596.57</ele>
  <time>2026-08-28T19:12:24Z</time>
  <course>60.1</course>
  <speed>0.0</speed>
  <fix>3d</fix>
</trkpt>
<trkpt lat="40.0728134" lon="-105.2306147">
  <ele>1596.66</ele>
  <time>2026-08-28T19:12:24Z</time>
  <course>349.29</course>
  <speed>0.022360679774997897</speed>
  <fix>3d</fix>
</trkpt>
<trkpt lat="40.0728133" lon="-105.2306143">
  <ele>1596.56</ele>
  <time>2026-08-28T19:12:24Z</time>
  <course>54.19</course>
  <speed>0.0</speed>
  <fix>3d</fix>
</trkpt>
<trkpt lat="40.0728134" lon="-105.2306147">
  <ele>1596.66</ele>
  <time>2026-08-28T19:12:24Z</time>
  <course>349.29</course>
  <speed>0.022360679774997897</speed>
  <fix>3d</fix>
</trkpt>
<trkpt lat="40.0728133" lon="-105.2306143">
  <ele>1596.56</ele>
  <time>2026-08-28T19:12:24Z</time>
  <course>48.23</course>
  <speed>0.0</speed>
  <fix>3d</fix>
</trkpt>
<trkpt lat="40.0728134" lon="-105.2306147">
  <ele>1596.65</ele>
  <time>2026-08-28T19:12:24Z</time>
  <course>349.3</course>
  <speed>0.022360679774997897</speed>
  <fix>3d</fix>
</trkpt>
<trkpt lat="40.0728133" lon="-105.2306143">
  <ele>1596.56</ele>
  <time>2026-08-28T19:12:24Z</time>
  <course>38.52</course>
  <speed>0.0</speed>
  <fix>3d</fix>
</trkpt>
<trkpt lat="40.0728134" lon="-105.2306146">
  <ele>1596.65</ele>
  <time>2026-08-28T19:12:24Z</time>
  <course>349.29</course>
  <speed>0.022360679774997897</speed>
  <fix>3d</fix>
</trkpt>
<trkpt lat="40.0728133" lon="-105.2306143">
  <ele>1596.56</ele>
  <time>2026-08-28T19:12:24Z</time>
  <course>20.79</course>
  <speed>0.0</speed>
  <fix>3d</fix>
</trkpt>
<trkpt lat="40.0728134" lon="-105.2306146">
  <ele>1596.65</ele>
  <time>2026-08-28T19:12:24Z</time>
  <course>349.3</course>
  <speed>0.022360679774997897</speed>
  <fix>3d</fix>
</trkpt>
<trkpt lat="40.0728133" lon="-105.2306143">
  <ele>1596.56</ele>
  <time>2026-08-28T19:12:24Z</time>
  <course>358.02</course>
  <speed>0.0</speed>
  <fix>3d</fix>
</trkpt>
<trkpt lat="40.0728134" lon="-105.2306146">
  <ele>1596.65</ele>
  <time>2026-08-28T19:12:24Z</time>
  <course>349.3</course>
  <speed>0.022360679774997897</speed>
  <fix>3d</fix>
</trkpt>
<trkpt lat="40.0728133" lon="-105.2306143">
  <ele>1596.56</ele>
  <time>2026-08-28T19:12:24Z</time>
  <course>332.48</course>
  <speed>0.0</speed>
  <fix>3d</fix>
</trkpt>
<trkpt lat="40.0728134" lon="-105.2306146">
  <ele>1596.65</ele>
  <time>2026-08-28T19:12:24Z</time>
  <course>349.29</course>
  <speed>0.022360679774997897</speed>
  <fix>3d</fix>
</trkpt>
<trkpt lat="40.0728133" lon="-105.2306143">
  <ele>1596.55</ele>
  <time>2026-08-28T19:12:24Z</time>
  <course>316.98</course>
  <speed>0.0</speed>
  <fix>3d</fix>
</trkpt>
<trkpt lat="40.0728134" lon="-105.2306146">
  <ele>1596.65</ele>
  <time>2026-08-28T19:12:24Z</time>
  <course>349.29</course>
  <speed>0.022360679774997897</speed>
  <fix>3d</fix>
</trkpt>
<trkpt lat="40.0728133" lon="-105.2306143">
  <ele>1596.55</ele>
  <time>2026-08-28T19:12:24Z</time>
  <course>310.74</course>
  <speed>0.0</speed>
  <fix>3d</fix>
</trkpt>
<trkpt lat="40.0728134" lon="-105.2306146">
  <ele>1596.65</ele>
  <time>2026-08-28T19:12:24Z</time>
  <course>349.29</course>
  <speed>0.022360679774997897</speed>
  <fix>3d</fix>
</trkpt>
<trkpt lat="40.0728133" lon="-105.2306143">
  <ele>1596.55</ele>
  <time>2026-08-28T19:12:24Z</time>
  <course>301.62</course>
  <speed>0.0</speed>
  <fix>3d</fix>
</trkpt>
<trkpt lat="40.0728134" lon="-105.2306146">
  <ele>1596.65</ele>
  <time>2026-08-28T19:12:24Z</time>
  <course>349.27</course>
  <speed>0.022360679774997897</speed>
  <fix>3d</fix>
</trkpt>
<trkpt lat="40.0728133" lon="-105.2306143">
  <ele>1596.55</ele>
  <time>2026-08-28T19:12:24Z</time>
  <course>297.51</course>
  <speed>0.0</speed>
  <fix>3d</fix>
</trkpt>
<trkpt lat="40.0728134" lon="-105.2306146">
  <ele>1596.65</ele>
  <time>2026-08-28T19:12:24Z</time>
  <course>349.25</course>
  <speed>0.022360679774997897</speed>
  <fix>3d</fix>
</trkpt>
<trkpt lat="40.0728133" lon="-105.2306143">
  <ele>1596.55</ele>
  <time>2026-08-28T19:12:24Z</time>
  <course>297.61</course>
  <speed>0.0</speed>
  <fix>3d</fix>
</trkpt>
<trkpt lat="40.0728134" lon="-105.2306146">
  <ele>1596.65</ele>
  <time>2026-08-28T19:12:24Z</time>
  <course>349.24</course>
  <speed>0.022360679774997897</speed>
  <fix>3d</fix>
</trkpt>
<trkpt lat="40.0728133" lon="-105.2306143">
  <ele>1596.55</ele>
  <time>2026-08-28T19:12:24Z</time>
  <course>296.42</course>
  <speed>0.0</speed>
  <fix>3d</fix>
</trkpt>
<trkpt lat="40.0728134" lon="-105.2306146">
  <ele>1596.65</ele>
  <time>2026-08-28T19:12:24Z</time>
  <course>349.23</course>
  <speed>0.022360679774997897</speed>
  <fix>3d</fix>
</trkpt>
<trkpt lat="40.0728133" lon="-105.2306143">
  <ele>1596.55</ele>
  <time>2026-08-28T19:12:24Z</time>
  <course>293.85</course>
  <speed>0.0</speed>
  <fix>3d</fix>
</trkpt>
<trkpt lat="40.0728134" lon="-105.2306146">
  <ele>1596.64</ele>
  <time>2026-08-28T19:12:24Z</time>
  <course>349.22</course>
  <speed>0.022360679774997897</speed>
  <fix>3d</fix>
</trkpt>
<trkpt lat="40.0728133" lon="-105.2306143">
  <ele>1596.55</ele>
  <time>2026-08-28T19:12:24Z</time>
  <course>290.62</course>
  <speed>0.0</speed>
  <fix>3d</fix>
</trkpt>
<trkpt lat="40.0728134" lon="-105.2306146">
  <ele>1596.64</ele>
  <time>2026-08-28T19:12:24Z</time>
  <course>349.22</course>
  <speed>0.022360679774997897</speed>
  <fix>3d</fix>
</trkpt>
<trkpt lat="40.0728133" lon="-105.2306143">
  <ele>1596.55</ele>
  <time>2026-08-28T19:12:24Z</time>
  <course>287.71</course>
  <speed>0.0</speed>
  <fix>3d</fix>
</trkpt>
<trkpt lat="40.0728134" lon="-105.2306146">
  <ele>1596.63</ele>
  <time>2026-08-28T19:12:24Z</time>
  <course>349.2</course>
  <speed>0.022360679774997897</speed>
  <fix>3d</fix>
</trkpt>
<trkpt lat="40.0728133" lon="-105.2306143">
  <ele>1596.55</ele>
  <time>2026-08-28T19:12:24Z</time>
  <course>285.24</course>
  <speed>0.0</speed>
  <fix>3d</fix>
</trkpt>
<trkpt lat="40.0728134" lon="-105.2306146">
  <ele>1596.63</ele>
  <time>2026-08-28T19:12:24Z</time>
  <course>349.18</course>
  <speed>0.022360679774997897</speed>
  <fix>3d</fix>
</trkpt>
<trkpt lat="40.0728134" lon="-105.2306144">
  <ele>1596.55</ele>
  <time>2026-08-28T19:12:24Z</time>
  <course>283.84</course>
  <speed>0.0</speed>
  <fix>3d</fix>
</trkpt>
<trkpt lat="40.0728134" lon="-105.2306146">
  <ele>1596.63</ele>
  <time>2026-08-28T19:12:24Z</time>
  <course>349.15</course>
  <speed>0.022360679774997897</speed>
  <fix>3d</fix>
</trkpt>
<trkpt lat="40.0728134" lon="-105.2306145">
  <ele>1596.55</ele>
  <time>2026-08-28T19:12:24Z</time>
  <course>283.41</course>
  <speed>0.0</speed>
  <fix>3d</fix>
</trkpt>
<trkpt lat="40.0728134" lon="-105.2306146">
  <ele>1596.63</ele>
  <time>2026-08-28T19:12:24Z</time>
  <course>349.13</course>
  <speed>0.022360679774997897</speed>
  <fix>3d</fix>
</trkpt>
<trkpt lat="40.0728134" lon="-105.2306145">
  <ele>1596.56</ele>
  <time>2026-08-28T19:12:24Z</time>
  <course>282.98</course>
  <speed>0.0</speed>
  <fix>3d</fix>
</trkpt>
<trkpt lat="40.0728134" lon="-105.2306146">
  <ele>1596.63</ele>
  <time>2026-08-28T19:12:24Z</time>
  <course>349.11</course>
  <speed>0.022360679774997897</speed>
  <fix>3d</fix>
</trkpt>
<trkpt lat="40.0728134" lon="-105.2306145">
  <ele>1596.56</ele>
  <time>2026-08-28T19:12:24Z</time>
  <course>279.46</course>
  <speed>0.0</speed>
  <fix>3d</fix>
</trkpt>
<trkpt lat="40.0728134" lon="-105.2306147">
  <ele>1596.64</ele>
  <time>2026-08-28T19:12:24Z</time>
  <course>349.11</course>
  <speed>0.022360679774997897</speed>
  <fix>3d</fix>
</trkpt>
<trkpt lat="40.0728134" lon="-105.2306145">
  <ele>1596.57</ele>
  <time>2026-08-28T19:12:24Z</time>
  <course>272.72</course>
  <speed>0.0</speed>
  <fix>3d</fix>
</trkpt>
<trkpt lat="40.0728134" lon="-105.2306147">
  <ele>1596.65</ele>
  <time>2026-08-28T19:12:24Z</time>
  <course>349.11</course>
  <speed>0.022360679774997897</speed>
  <fix>3d</fix>
</trkpt>
<trkpt lat="40.0728134" lon="-105.2306145">
  <ele>1596.57</ele>
  <time>2026-08-28T19:12:24Z</time>
  <course>264.41</course>
  <speed>0.0</speed>
  <fix>3d</fix>
</trkpt>
<trkpt lat="40.0728134" lon="-105.2306147">
  <ele>1596.65</ele>
  <time>2026-08-28T19:12:24Z</time>
  <course>349.13</course>
  <speed>0.02</speed>
  <fix>3d</fix>
</trkpt>
<trkpt lat="40.0728134" lon="-105.2306146">
  <ele>1596.58</ele>
  <time>2026-08-28T19:12:24Z</time>
  <course>252.74</course>
  <speed>0.0</speed>
  <fix>3d</fix>
</trkpt>
<trkpt lat="40.0728134" lon="-105.2306147">
  <ele>1596.66</ele>
  <time>2026-08-28T19:12:24Z</time>
  <course>349.15</course>
  <speed>0.02</speed>
  <fix>3d</fix>
</trkpt>
<trkpt lat="40.0728134" lon="-105.2306146">
  <ele>1596.58</ele>
  <time>2026-08-28T19:12:24Z</time>
  <course>236.15</course>
  <speed>0.0</speed>
  <fix>3d</fix>
</trkpt>
<trkpt lat="40.0728134" lon="-105.2306147">
  <ele>1596.66</ele>
  <time>2026-08-28T19:12:24Z</time>
  <course>349.17</course>
  <speed>0.02</speed>
  <fix>3d</fix>
</trkpt>
<trkpt lat="40.0728134" lon="-105.2306146">
  <ele>1596.58</ele>
  <time>2026-08-28T19:12:24Z</time>
  <course>215.79</course>
  <speed>0.0</speed>
  <fix>3d</fix>
</trkpt>
<trkpt lat="40.0728134" lon="-105.2306147">
  <ele>1596.66</ele>
  <time>2026-08-28T19:12:24Z</time>
  <course>349.21</course>
  <speed>0.02</speed>
  <fix>3d</fix>
</trkpt>
<trkpt lat="40.0728134" lon="-105.2306146">
  <ele>1596.58</ele>
  <time>2026-08-28T19:12:24Z</time>
  <course>193.03</course>
  <speed>0.0</speed>
  <fix>3d</fix>
</trkpt>
<trkpt lat="40.0728134" lon="-105.2306147">
  <ele>1596.66</ele>
  <time>2026-08-28T19:12:24Z</time>
  <course>349.24</course>
  <speed>0.01</speed>
  <fix>3d</fix>
</trkpt>
<trkpt lat="40.0728134" lon="-105.2306146">
  <ele>1596.58</ele>
  <time>2026-08-28T19:12:24Z</time>
  <course>169.79</course>
  <speed>0.0</speed>
  <fix>3d</fix>
</trkpt>
<trkpt lat="40.0728134" lon="-105.2306147">
  <ele>1596.66</ele>
  <time>2026-08-28T19:12:24Z</time>
  <course>349.24</course>
  <speed>0.01</speed>
  <fix>3d</fix>
</trkpt>
<trkpt lat="40.0728134" lon="-105.2306146">
  <ele>1596.58</ele>
  <time>2026-08-28T19:12:24Z</time>
  <course>150.55</course>
  <speed>0.0</speed>
  <fix>3d</fix>
</trkpt>
<trkpt lat="40.0728134" lon="-105.2306147">
  <ele>1596.66</ele>
  <time>2026-08-28T19:12:24Z</time>
  <course>349.24</course>
  <speed>0.01</speed>
  <fix>3d</fix>
</trkpt>
<trkpt lat="40.0728134" lon="-105.2306146">
  <ele>1596.58</ele>
  <time>2026-08-28T19:12:24Z</time>
  <course>139.95</course>
  <speed>0.0</speed>
  <fix>3d</fix>
</trkpt>
<trkpt lat="40.0728134" lon="-105.2306147">
  <ele>1596.66</ele>
  <time>2026-08-28T19:12:24Z</time>
  <course>349.25</course>
  <speed>0.01</speed>
  <fix>3d</fix>
</trkpt>
<trkpt lat="40.0728134" lon="-105.2306146">
  <ele>1596.58</ele>
  <time>2026-08-28T19:12:24Z</time>
  <course>134.36</course>
  <speed>0.0</speed>
  <fix>3d</fix>
</trkpt>
<trkpt lat="40.0728134" lon="-105.2306147">
  <ele>1596.66</ele>
  <time>2026-08-28T19:12:24Z</time>
  <course>349.25</course>
  <speed>0.01</speed>
  <fix>3d</fix>
</trkpt>
<trkpt lat="40.0728134" lon="-105.2306146">
  <ele>1596.58</ele>
  <time>2026-08-28T19:12:24Z</time>
  <course>131.1</course>
  <speed>0.0</speed>
  <fix>3d</fix>
</trkpt>
<trkpt lat="40.0728134" lon="-105.2306147">
  <ele>1596.66</ele>
  <time>2026-08-28T19:12:24Z</time>
  <course>349.26</course>
  <speed>0.01</speed>
  <fix>3d</fix>
</trkpt>
<trkpt lat="40.0728134" lon="-105.2306146">
  <ele>1596.57</ele>
  <time>2026-08-28T19:12:24Z</time>
  <course>129.37</course>
  <speed>0.0</speed>
  <fix>3d</fix>
</trkpt>
<trkpt lat="40.0728134" lon="-105.2306147">
  <ele>1596.66</ele>
  <time>2026-08-28T19:12:24Z</time>
  <course>349.26</course>
  <speed>0.01</speed>
  <fix>3d</fix>
</trkpt>
<trkpt lat="40.0728134" lon="-105.2306146">
  <ele>1596.57</ele>
  <time>2026-08-28T19:12:24Z</time>
  <course>127.05</course>
  <speed>0.0</speed>
  <fix>3d</fix>
</trkpt>
<trkpt lat="40.0728134" lon="-105.2306147">
  <ele>1596.66</ele>
  <time>2026-08-28T19:12:24Z</time>
  <course>349.25</course>
  <speed>0.01</speed>
  <fix>3d</fix>
</trkpt>
<trkpt lat="40.0728134" lon="-105.2306146">
  <ele>1596.57</ele>
  <time>2026-08-28T19:12:24Z</time>
  <course>124.75</course>
  <speed>0.0</speed>
  <fix>3d</fix>
</trkpt>
<trkpt lat="40.0728134" lon="-105.2306147">
  <ele>1596.65</ele>
  <time>2026-08-28T19:12:24Z</time>
  <course>349.25</course>
  <speed>0.01</speed>
  <fix>3d</fix>
</trkpt>
<trkpt lat="40.0728134" lon="-105.2306146">
  <ele>1596.57</ele>
  <time>2026-08-28T19:12:24Z</time>
  <course>124.29</course>
  <speed>0.0</speed>
  <fix>3d</fix>
</trkpt>
<trkpt lat="40.0728134" lon="-105.2306147">
  <ele>1596.65</ele>
  <time>2026-08-28T19:12:24Z</time>
  <course>349.24</course>
  <speed>0.01</speed>
  <fix>3d</fix>
</trkpt>
<trkpt lat="40.0728134" lon="-105.2306146">
  <ele>1596.56</ele>
  <time>2026-08-28T19:12:24Z</time>
  <course>125.74</course>
  <speed>0.0</speed>
  <fix>3d</fix>
</trkpt>
<trkpt lat="40.0728134" lon="-105.2306147">
  <ele>1596.65</ele>
  <time>2026-08-28T19:12:24Z</time>
  <course>349.23</course>
  <speed>0.01</speed>
  <fix>3d</fix>
</trkpt>
<trkpt lat="40.0728133" lon="-105.2306145">
  <ele>1596.56</ele>
  <time>2026-08-28T19:12:24Z</time>
  <course>127.66</course>
  <speed>0.0</speed>
  <fix>3d</fix>
</trkpt>
<trkpt lat="40.0728134" lon="-105.2306147">
  <ele>1596.65</ele>
  <time>2026-08-28T19:12:24Z</time>
  <course>349.23</course>
  <speed>0.01</speed>
  <fix>3d</fix>
</trkpt>
<trkpt lat="40.0728133" lon="-105.2306145">
  <ele>1596.56</ele>
  <time>2026-08-28T19:12:24Z</time>
  <course>129.38</course>
  <speed>0.0</speed>
  <fix>3d</fix>
</trkpt>
<trkpt lat="40.0728134" lon="-105.2306147">
  <ele>1596.64</ele>
  <time>2026-08-28T19:12:24Z</time>
  <course>349.23</course>
  <speed>0.01</speed>
  <fix>3d</fix>
</trkpt>
<trkpt lat="40.0728133" lon="-105.2306145">
  <ele>1596.56</ele>
  <time>2026-08-28T19:12:24Z</time>
  <course>130.49</course>
  <speed>0.0</speed>
  <fix>3d</fix>
</trkpt>
<trkpt lat="40.0728134" lon="-105.2306147">
  <ele>1596.65</ele>
  <time>2026-08-28T19:12:24Z</time>
  <course>349.22</course>
  <speed>0.01</speed>
  <fix>3d</fix>
</trkpt>
<trkpt lat="40.0728133" lon="-105.2306145">
  <ele>1596.56</ele>
  <time>2026-08-28T19:12:24Z</time>
  <course>131.38</course>
  <speed>0.0</speed>
  <fix>3d</fix>
</trkpt>
<trkpt lat="40.0728134" lon="-105.2306147">
  <ele>1596.64</ele>
  <time>2026-08-28T19:12:24Z</time>
  <course>349.2</course>
  <speed>0.01</speed>
  <fix>3d</fix>
</trkpt>
<trkpt lat="40.0728133" lon="-105.2306145">
  <ele>1596.56</ele>
  <time>2026-08-28T19:12:24Z</time>
  <course>131.14</course>
  <speed>0.0</speed>
  <fix>3d</fix>
</trkpt>
<trkpt lat="40.0728134" lon="-105.2306147">
  <ele>1596.65</ele>
  <time>2026-08-28T19:12:24Z</time>
  <course>349.18</course>
  <speed>0.01414213562373095</speed>
  <fix>3d</fix>
</trkpt>
<trkpt lat="40.0728133" lon="-105.2306145">
  <ele>1596.56</ele>
  <time>2026-08-28T19:12:24Z</time>
  <course>127.66</course>
  <speed>0.0</speed>
  <fix>3d</fix>
</trkpt>
<trkpt lat="40.0728134" lon="-105.2306147">
  <ele>1596.65</ele>
  <time>2026-08-28T19:12:24Z</time>
  <course>349.17</course>
  <speed>0.01414213562373095</speed>
  <fix>3d</fix>
</trkpt>
<trkpt lat="40.0728133" lon="-105.2306144">
  <ele>1596.56</ele>
  <time>2026-08-28T19:12:24Z</time>
  <course>119.96</course>
  <speed>0.0</speed>
  <fix>3d</fix>
</trkpt>
<trkpt lat="40.0728134" lon="-105.2306147">
  <ele>1596.65</ele>
  <time>2026-08-28T19:12:24Z</time>
  <course>349.16</course>
  <speed>0.01414213562373095</speed>
  <fix>3d</fix>
</trkpt>
<trkpt lat="40.0728133" lon="-105.2306143">
  <ele>1596.56</ele>
  <time>2026-08-28T19:12:24Z</time>
  <course>110.86</course>
  <speed>0.0</speed>
  <fix>3d</fix>
</trkpt>
<trkpt lat="40.0728134" lon="-105.2306147">
  <ele>1596.65</ele>
  <time>2026-08-28T19:12:24Z</time>
  <course>349.16</course>
  <speed>0.01414213562373095</speed>
  <fix>3d</fix>
</trkpt>
<trkpt lat="40.0728133" lon="-105.2306143">
  <ele>1596.57</ele>
  <time>2026-08-28T19:12:24Z</time>
  <course>101.5</course>
  <speed>0.0</speed>
  <fix>3d</fix>
</trkpt>
<trkpt lat="40.0728134" lon="-105.2306146">
  <ele>1596.66</ele>
  <time>2026-08-28T19:12:24Z</time>
  <course>349.18</course>
  <speed>0.022360679774997897</speed>
  <fix>3d</fix>
</trkpt>
<trkpt lat="40.0728133" lon="-105.2306143">
  <ele>1596.57</ele>
  <time>2026-08-28T19:12:24Z</time>
  <course>86.25</course>
  <speed>0.0</speed>
  <fix>3d</fix>
</trkpt>
<trkpt lat="40.0728134" lon="-105.2306146">
  <ele>1596.66</ele>
  <time>2026-08-28T19:12:24Z</time>
  <course>349.2</course>
  <speed>0.022360679774997897</speed>
  <fix>3d</fix>
</trkpt>
<trkpt lat="40.0728133" lon="-105.2306143">
  <ele>1596.57</ele>
  <time>2026-08-28T19:12:24Z</time>
  <course>62.01</course>
  <speed>0.0</speed>
  <fix>3d</fix>
</trkpt>
<trkpt lat="40.0728134" lon="-105.2306146">
  <ele>1596.65</ele>
  <time>2026-08-28T19:12:24Z</time>
  <course>349.2</course>
  <speed>0.022360679774997897</speed>
  <fix>3d</fix>
</trkpt>
<trkpt lat="40.0728133" lon="-105.2306143">
  <ele>1596.57</ele>
  <time>2026-08-28T19:12:24Z</time>
  <course>29.88</course>
  <speed>0.0</speed>
  <fix>3d</fix>
</trkpt>
<trkpt lat="40.0728134" lon="-105.2306146">
  <ele>1596.65</ele>
  <time>2026-08-28T19:12:24Z</time>
  <course>349.2</course>
  <speed>0.022360679774997897</speed>
  <fix>3d</fix>
</trkpt>
<trkpt lat="40.0728133" lon="-105.2306143">
  <ele>1596.56</ele>
  <time>2026-08-28T19:12:24Z</time>
  <course>348.03</course>
  <speed>0.0</speed>
  <fix>3d</fix>
</trkpt>
<trkpt lat="40.0728134" lon="-105.2306146">
  <ele>1596.65</ele>
  <time>2026-08-28T19:12:24Z</time>
  <course>349.19</course>
  <speed>0.022360679774997897</speed>
  <fix>3d</fix>
</trkpt>
<trkpt lat="40.0728133" lon="-105.2306143">
  <ele>1596.56</ele>
  <time>2026-08-28T19:12:24Z</time>
  <course>316.38</course>
  <speed>0.0</speed>
  <fix>3d</fix>
</trkpt>
<trkpt lat="40.0728134" lon="-105.2306146">
  <ele>1596.64</ele>
  <time>2026-08-28T19:12:24Z</time>
  <course>349.17</course>
  <speed>0.022360679774997897</speed>
  <fix>3d</fix>
</trkpt>
<trkpt lat="40.0728133" lon="-105.2306143">
  <ele>1596.56</ele>
  <time>2026-08-28T19:12:24Z</time>
  <course>302.17</course>
  <speed>0.0</speed>
  <fix>3d</fix>
</trkpt>
<trkpt lat="40.0728134" lon="-105.2306146">
  <ele>1596.63</ele>
  <time>2026-08-28T19:12:24Z</time>
  <course>349.16</course>
  <speed>0.0316227766016838</speed>
  <fix>3d</fix>
</trkpt>
<trkpt lat="40.0728133" lon="-105.2306143">
  <ele>1596.56</ele>
  <time>2026-08-28T19:12:24Z</time>
  <course>294.96</course>
  <speed>0.0</speed>
  <fix>3d</fix>
</trkpt>
<trkpt lat="40.0728134" lon="-105.2306146">
  <ele>1596.63</ele>
  <time>2026-08-28T19:12:24Z</time>
  <course>349.14</course>
  <speed>0.022360679774997897</speed>
  <fix>3d</fix>
</trkpt>
<trkpt lat="40.0728133" lon="-105.2306143">
  <ele>1596.56</ele>
  <time>2026-08-28T19:12:24Z</time>
  <course>289.15</course>
  <speed>0.0</speed>
  <fix>3d</fix>
</trkpt>
<trkpt lat="40.0728134" lon="-105.2306146">
  <ele>1596.63</ele>
  <time>2026-08-28T19:12:24Z</time>
  <course>349.1</course>
  <speed>0.022360679774997897</speed>
  <fix>3d</fix>
</trkpt>
<trkpt lat="40.0728133" lon="-105.2306143">
  <ele>1596.57</ele>
  <time>2026-08-28T19:12:24Z</time>
  <course>283.29</course>
  <speed>0.0</speed>
  <fix>3d</fix>
</trkpt>
<trkpt lat="40.0728134" lon="-105.2306146">
  <ele>1596.64</ele>
  <time>2026-08-28T19:12:24Z</time>
  <course>349.08</course>
  <speed>0.022360679774997897</speed>
  <fix>3d</fix>
</trkpt>
<trkpt lat="40.0728133" lon="-105.2306143">
  <ele>1596.57</ele>
  <time>2026-08-28T19:12:24Z</time>
  <course>280.6</course>
  <speed>0.0</speed>
  <fix>3d</fix>
</trkpt>
<trkpt lat="40.0728134" lon="-105.2306146">
  <ele>1596.65</ele>
  <time>2026-08-28T19:12:24Z</time>
  <course>349.09</course>
  <speed>0.022360679774997897</speed>
  <fix>3d</fix>
</trkpt>
<trkpt lat="40.0728133" lon="-105.2306143">
  <ele>1596.57</ele>
  <time>2026-08-28T19:12:24Z</time>
  <course>279.77</course>
  <speed>0.0</speed>
  <fix>3d</fix>
</trkpt>
<trkpt lat="40.0728134" lon="-105.2306146">
  <ele>1596.65</ele>
  <time>2026-08-28T19:12:24Z</time>
  <course>349.1</course>
  <speed>0.022360679774997897</speed>
  <fix>3d</fix>
</trkpt>
<trkpt lat="40.0728133" lon="-105.2306143">
  <ele>1596.58</ele>
  <time>2026-08-28T19:12:24Z</time>
  <course>278.68</course>
  <speed>0.0</speed>
  <fix>3d</fix>
</trkpt>
<trkpt lat="40.0728134" lon="-105.2306146">
  <ele>1596.65</ele>
  <time>2026-08-28T19:12:24Z</time>
  <course>349.11</course>
  <speed>0.022360679774997897</speed>
  <fix>3d</fix>
</trkpt>
<trkpt lat="40.0728133" lon="-105.2306143">
  <ele>1596.58</ele>
  <time>2026-08-28T19:12:24Z</time>
  <course>278.12</course>
  <speed>0.0</speed>
  <fix>3d</fix>
</trkpt>
<trkpt lat="40.0728134" lon="-105.2306146">
  <ele>1596.66</ele>
  <time>2026-08-28T19:12:24Z</time>
  <course>349.11</course>
  <speed>0.022360679774997897</speed>
  <fix>3d</fix>
</trkpt>
<trkpt lat="40.0728133" lon="-105.2306144">
  <ele>1596.58</ele>
  <time>2026-08-28T19:12:24Z</time>
  <course>277.65</course>
  <speed>0.0</speed>
  <fix>3d</fix>
</trkpt>
<trkpt lat="40.0728134" lon="-105.2306146">
  <ele>1596.66</ele>
  <time>2026-08-28T19:12:24Z</time>
  <course>349.12</course>
  <speed>0.022360679774997897</speed>
  <fix>3d</fix>
</trkpt>
<trkpt lat="40.0728133" lon="-105.2306145">
  <ele>1596.58</ele>
  <time>2026-08-28T19:12:24Z</time>
  <course>277.38</course>
  <speed>0.0</speed>
  <fix>3d</fix>
</trkpt>
<trkpt lat="40.0728134" lon="-105.2306146">
  <ele>1596.66</ele>
  <time>2026-08-28T19:12:24Z</time>
  <course>349.14</course>
  <speed>0.022360679774997897</speed>
  <fix>3d</fix>
</trkpt>
<trkpt lat="40.0728133" lon="-105.2306145">
  <ele>1596.58</ele>
  <time>2026-08-28T19:12:24Z</time>
  <course>278.32</course>
  <speed>0.0</speed>
  <fix>3d</fix>
</trkpt>
<trkpt lat="40.0728134" lon="-105.2306146">
  <ele>1596.66</ele>
  <time>2026-08-28T19:12:24Z</time>
  <course>349.16</course>
  <speed>0.022360679774997897</speed>
  <fix>3d</fix>
</trkpt>
<trkpt lat="40.0728133" lon="-105.2306145">
  <ele>1596.58</ele>
  <time>2026-08-28T19:12:24Z</time>
  <course>282.06</course>
  <speed>0.0</speed>
  <fix>3d</fix>
</trkpt>
<trkpt lat="40.0728134" lon="-105.2306147">
  <ele>1596.66</ele>
  <time>2026-08-28T19:12:24Z</time>
  <course>349.18</course>
  <speed>0.022360679774997897</speed>
  <fix>3d</fix>
</trkpt>
<trkpt lat="40.0728133" lon="-105.2306145">
  <ele>1596.58</ele>
  <time>2026-08-28T19:12:24Z</time>
  <course>287.92</course>
  <speed>0.0</speed>
  <fix>3d</fix>
</trkpt>
<trkpt lat="40.0728134" lon="-105.2306147">
  <ele>1596.66</ele>
  <time>2026-08-28T19:12:24Z</time>
  <course>349.19</course>
  <speed>0.022360679774997897</speed>
  <fix>3d</fix>
</trkpt>
<trkpt lat="40.0728133" lon="-105.2306145">
  <ele>1596.58</ele>
  <time>2026-08-28T19:12:24Z</time>
  <course>297.58</course>
  <speed>0.0</speed>
  <fix>3d</fix>
</trkpt>
<trkpt lat="40.0728134" lon="-105.2306147">
  <ele>1596.66</ele>
  <time>2026-08-28T19:12:24Z</time>
  <course>349.18</course>
  <speed>0.022360679774997897</speed>
  <fix>3d</fix>
</trkpt>
<trkpt lat="40.0728133" lon="-105.2306145">
  <ele>1596.58</ele>
  <time>2026-08-28T19:12:24Z</time>
  <course>308.25</course>
  <speed>0.0</speed>
  <fix>3d</fix>
</trkpt>
<trkpt lat="40.0728134" lon="-105.2306147">
  <ele>1596.66</ele>
  <time>2026-08-28T19:12:24Z</time>
  <course>349.17</course>
  <speed>0.022360679774997897</speed>
  <fix>3d</fix>
</trkpt>
<trkpt lat="40.0728133" lon="-105.2306145">
  <ele>1596.58</ele>
  <time>2026-08-28T19:12:24Z</time>
  <course>319.11</course>
  <speed>0.0</speed>
  <fix>3d</fix>
</trkpt>
<trkpt lat="40.0728134" lon="-105.2306147">
  <ele>1596.66</ele>
  <time>2026-08-28T19:12:24Z</time>
  <course>349.17</course>
  <speed>0.022360679774997897</speed>
  <fix>3d</fix>
</trkpt>
<trkpt lat="40.0728133" lon="-105.2306145">
  <ele>1596.58</ele>
  <time>2026-08-28T19:12:24Z</time>
  <course>331.79</course>
  <speed>0.0</speed>
  <fix>3d</fix>
</trkpt>
<trkpt lat="40.0728134" lon="-105.2306147">
  <ele>1596.66</ele>
  <time>2026-08-28T19:12:24Z</time>
  <course>349.17</course>
  <speed>0.022360679774997897</speed>
  <fix>3d</fix>
</trkpt>
<trkpt lat="40.0728133" lon="-105.2306145">
  <ele>1596.58</ele>
  <time>2026-08-28T19:12:24Z</time>
  <course>339.34</course>
  <speed>0.0</speed>
  <fix>3d</fix>
</trkpt>
<trkpt lat="40.0728134" lon="-105.2306147">
  <ele>1596.66</ele>
  <time>2026-08-28T19:12:24Z</time>
  <course>349.19</course>
  <speed>0.022360679774997897</speed>
  <fix>3d</fix>
</trkpt>
<trkpt lat="40.0728133" lon="-105.2306145">
  <ele>1596.58</ele>
  <time>2026-08-28T19:12:24Z</time>
  <course>347.36</course>
  <speed>0.0</speed>
  <fix>3d</fix>
</trkpt>
<trkpt lat="40.0728134" lon="-105.2306147">
  <ele>1596.66</ele>
  <time>2026-08-28T19:12:25Z</time>
  <course>349.2</course>
  <speed>0.022360679774997897</speed>
  <fix>3d</fix>
</trkpt>
<trkpt lat="40.0728133" lon="-105.2306146">
  <ele>1596.57</ele>
  <time>2026-08-28T19:12:25Z</time>
  <course>357.6</course>
  <speed>0.0</speed>
  <fix>3d</fix>
</trkpt>
<trkpt lat="40.0728134" lon="-105.2306147">
  <ele>1596.67</ele>
  <time>2026-08-28T19:12:25Z</time>
  <course>349.21</course>
  <speed>0.022360679774997897</speed>
  <fix>3d</fix>
</trkpt>
<trkpt lat="40.0728133" lon="-105.2306146">
  <ele>1596.57</ele>
  <time>2026-08-28T19:12:25Z</time>
  <course>8.19</course>
  <speed>0.0</speed>
  <fix>3d</fix>
</trkpt>
<trkpt lat="40.0728134" lon="-105.2306147">
  <ele>1596.67</ele>
  <time>2026-08-28T19:12:25Z</time>
  <course>349.22</course>
  <speed>0.022360679774997897</speed>
  <fix>3d</fix>
</trkpt>
<trkpt lat="40.0728133" lon="-105.2306146">
  <ele>1596.57</ele>
  <time>2026-08-28T19:12:25Z</time>
  <course>19.7</course>
  <speed>0.0</speed>
  <fix>3d</fix>
</trkpt>
<trkpt lat="40.0728134" lon="-105.2306147">
  <ele>1596.66</ele>
  <time>2026-08-28T19:12:25Z</time>
  <course>349.23</course>
  <speed>0.01414213562373095</speed>
  <fix>3d</fix>
</trkpt>
<trkpt lat="40.0728133" lon="-105.2306146">
  <ele>1596.56</ele>
  <time>2026-08-28T19:12:25Z</time>
  <course>34.27</course>
  <speed>0.0</speed>
  <fix>3d</fix>
</trkpt>
<trkpt lat="40.0728134" lon="-105.2306147">
  <ele>1596.65</ele>
  <time>2026-08-28T19:12:25Z</time>
  <course>349.22</course>
  <speed>0.01414213562373095</speed>
  <fix>3d</fix>
</trkpt>
<trkpt lat="40.0728133" lon="-105.2306146">
  <ele>1596.56</ele>
  <time>2026-08-28T19:12:25Z</time>
  <course>48.23</course>
  <speed>0.0</speed>
  <fix>3d</fix>
</trkpt>
<trkpt lat="40.0728134" lon="-105.2306147">
  <ele>1596.65</ele>
  <time>2026-08-28T19:12:25Z</time>
  <course>349.2</course>
  <speed>0.01414213562373095</speed>
  <fix>3d</fix>
</trkpt>
<trkpt lat="40.0728133" lon="-105.2306146">
  <ele>1596.56</ele>
  <time>2026-08-28T19:12:25Z</time>
  <course>58.66</course>
  <speed>0.0</speed>
  <fix>3d</fix>
</trkpt>
<trkpt lat="40.0728134" lon="-105.2306147">
  <ele>1596.64</ele>
  <time>2026-08-28T19:12:25Z</time>
  <course>349.19</course>
  <speed>0.01414213562373095</speed>
  <fix>3d</fix>
</trkpt>
<trkpt lat="40.0728133" lon="-105.2306146">
  <ele>1596.56</ele>
  <time>2026-08-28T19:12:25Z</time>
  <course>66.4</course>
  <speed>0.0</speed>
  <fix>3d</fix>
</trkpt>
<trkpt lat="40.0728134" lon="-105.2306147">
  <ele>1596.64</ele>
  <time>2026-08-28T19:12:25Z</time>
  <course>349.18</course>
  <speed>0.01414213562373095</speed>
  <fix>3d</fix>
</trkpt>
<trkpt lat="40.0728133" lon="-105.2306146">
  <ele>1596.56</ele>
  <time>2026-08-28T19:12:25Z</time>
  <course>72.14</course>
  <speed>0.0</speed>
  <fix>3d</fix>
</trkpt>
<trkpt lat="40.0728134" lon="-105.2306147">
  <ele>1596.64</ele>
  <time>2026-08-28T19:12:25Z</time>
  <course>349.16</course>
  <speed>0.01414213562373095</speed>
  <fix>3d</fix>
</trkpt>
<trkpt lat="40.0728133" lon="-105.2306146">
  <ele>1596.56</ele>
  <time>2026-08-28T19:12:25Z</time>
  <course>74.73</course>
  <speed>0.0</speed>
  <fix>3d</fix>
</trkpt>
<trkpt lat="40.0728134" lon="-105.2306147">
  <ele>1596.64</ele>
  <time>2026-08-28T19:12:25Z</time>
  <course>349.13</course>
  <speed>0.01414213562373095</speed>
  <fix>3d</fix>
</trkpt>
<trkpt lat="40.0728133" lon="-105.2306146">
  <ele>1596.56</ele>
  <time>2026-08-28T19:12:25Z</time>
  <course>73.52</course>
  <speed>0.0</speed>
  <fix>3d</fix>
</trkpt>
<trkpt lat="40.0728134" lon="-105.2306147">
  <ele>1596.64</ele>
  <time>2026-08-28T19:12:25Z</time>
  <course>349.11</course>
  <speed>0.01414213562373095</speed>
  <fix>3d</fix>
</trkpt>
<trkpt lat="40.0728133" lon="-105.2306146">
  <ele>1596.56</ele>
  <time>2026-08-28T19:12:25Z</time>
  <course>72.21</course>
  <speed>0.0</speed>
  <fix>3d</fix>
</trkpt>
<trkpt lat="40.0728134" lon="-105.2306147">
  <ele>1596.64</ele>
  <time>2026-08-28T19:12:25Z</time>
  <course>349.09</course>
  <speed>0.01414213562373095</speed>
  <fix>3d</fix>
</trkpt>
<trkpt lat="40.0728133" lon="-105.2306145">
  <ele>1596.56</ele>
  <time>2026-08-28T19:12:25Z</time>
  <course>72.47</course>
  <speed>0.0</speed>
  <fix>3d</fix>
</trkpt>
<trkpt lat="40.0728134" lon="-105.2306147">
  <ele>1596.64</ele>
  <time>2026-08-28T19:12:25Z</time>
  <course>349.08</course>
  <speed>0.01414213562373095</speed>
  <fix>3d</fix>
</trkpt>
<trkpt lat="40.0728133" lon="-105.2306145">
  <ele>1596.56</ele>
  <time>2026-08-28T19:12:25Z</time>
  <course>73.26</course>
  <speed>0.0</speed>
  <fix>3d</fix>
</trkpt>
<trkpt lat="40.0728134" lon="-105.2306147">
  <ele>1596.64</ele>
  <time>2026-08-28T19:12:25Z</time>
  <course>349.07</course>
  <speed>0.01414213562373095</speed>
  <fix>3d</fix>
</trkpt>
<trkpt lat="40.0728133" lon="-105.2306145">
  <ele>1596.56</ele>
  <time>2026-08-28T19:12:25Z</time>
  <course>73.63</course>
  <speed>0.0</speed>
  <fix>3d</fix>
</trkpt>
<trkpt lat="40.0728134" lon="-105.2306147">
  <ele>1596.64</ele>
  <time>2026-08-28T19:12:25Z</time>
  <course>349.08</course>
  <speed>0.01414213562373095</speed>
  <fix>3d</fix>
</trkpt>
<trkpt lat="40.0728133" lon="-105.2306145">
  <ele>1596.56</ele>
  <time>2026-08-28T19:12:25Z</time>
  <course>74.19</course>
  <speed>0.0</speed>
  <fix>3d</fix>
</trkpt>
<trkpt lat="40.0728134" lon="-105.2306147">
  <ele>1596.64</ele>
  <time>2026-08-28T19:12:25Z</time>
  <course>349.07</course>
  <speed>0.01414213562373095</speed>
  <fix>3d</fix>
</trkpt>
<trkpt lat="40.0728133" lon="-105.2306145">
  <ele>1596.57</ele>
  <time>2026-08-28T19:12:25Z</time>
  <course>74.59</course>
  <speed>0.0</speed>
  <fix>3d</fix>
</trkpt>
<trkpt lat="40.0728134" lon="-105.2306147">
  <ele>1596.63</ele>
  <time>2026-08-28T19:12:25Z</time>
  <course>349.05</course>
  <speed>0.01414213562373095</speed>
  <fix>3d</fix>
</trkpt>
<trkpt lat="40.0728133" lon="-105.2306145">
  <ele>1596.57</ele>
  <time>2026-08-28T19:12:25Z</time>
  <course>72.49</course>
  <speed>0.0</speed>
  <fix>3d</fix>
</trkpt>
<trkpt lat="40.0728134" lon="-105.2306147">
  <ele>1596.64</ele>
  <time>2026-08-28T19:12:25Z</time>
  <course>349.04</course>
  <speed>0.022360679774997897</speed>
  <fix>3d</fix>
</trkpt>
<trkpt lat="40.0728133" lon="-105.2306144">
  <ele>1596.57</ele>
  <time>2026-08-28T19:12:25Z</time>
  <course>68.46</course>
  <speed>0.0</speed>
  <fix>3d</fix>
</trkpt>
<trkpt lat="40.0728134" lon="-105.2306147">
  <ele>1596.64</ele>
  <time>2026-08-28T19:12:25Z</time>
  <course>349.04</course>
  <speed>0.022360679774997897</speed>
  <fix>3d</fix>
</trkpt>
<trkpt lat="40.0728133" lon="-105.2306143">
  <ele>1596.57</ele>
  <time>2026-08-28T19:12:25Z</time>
  <course>64.61</course>
  <speed>0.0</speed>
  <fix>3d</fix>
</trkpt>
<trkpt lat="40.0728134" lon="-105.2306147">
  <ele>1596.64</ele>
  <time>2026-08-28T19:12:25Z</time>
  <course>349.04</course>
  <speed>0.022360679774997897</speed>
  <fix>3d</fix>
</trkpt>
<trkpt lat="40.0728133" lon="-105.2306143">
  <ele>1596.58</ele>
  <time>2026-08-28T19:12:25Z</time>
  <course>59.89</course>
  <speed>0.0</speed>
  <fix>3d</fix>
</trkpt>
<trkpt lat="40.0728134" lon="-105.2306147">
  <ele>1596.64</ele>
  <time>2026-08-28T19:12:25Z</time>
  <course>349.04</course>
  <speed>0.022360679774997897</speed>
  <fix>3d</fix>
</trkpt>
<trkpt lat="40.0728134" lon="-105.2306143">
  <ele>1596.58</ele>
  <time>2026-08-28T19:12:25Z</time>
  <course>51.57</course>
  <speed>0.0</speed>
  <fix>3d</fix>
</trkpt>
<trkpt lat="40.0728134" lon="-105.2306147">
  <ele>1596.65</ele>
  <time>2026-08-28T19:12:25Z</time>
  <course>349.05</course>
  <speed>0.022360679774997897</speed>
  <fix>3d</fix>
</trkpt>
<trkpt lat="40.0728134" lon="-105.2306143">
  <ele>1596.58</ele>
  <time>2026-08-28T19:12:25Z</time>
  <course>39.46</course>
  <speed>0.0</speed>
  <fix>3d</fix>
</trkpt>
<trkpt lat="40.0728134" lon="-105.2306146">
  <ele>1596.66</ele>
  <time>2026-08-28T19:12:25Z</time>
  <course>349.05</course>
  <speed>0.022360679774997897</speed>
  <fix>3d</fix>
</trkpt>
<trkpt lat="40.0728134" lon="-105.2306143">
  <ele>1596.59</ele>
  <time>2026-08-28T19:12:25Z</time>
  <course>19.79</course>
  <speed>0.0</speed>
  <fix>3d</fix>
</trkpt>
<trkpt lat="40.0728134" lon="-105.2306146">
  <ele>1596.66</ele>
  <time>2026-08-28T19:12:25Z</time>
  <course>349.05</course>
  <speed>0.022360679774997897</speed>
  <fix>3d</fix>
</trkpt>
<trkpt lat="40.0728134" lon="-105.2306143">
  <ele>1596.59</ele>
  <time>2026-08-28T19:12:25Z</time>
  <course>331.44</course>
  <speed>0.0</speed>
  <fix>3d</fix>
</trkpt>
<trkpt lat="40.0728134" lon="-105.2306146">
  <ele>1596.66</ele>
  <time>2026-08-28T19:12:25Z</time>
  <course>349.05</course>
  <speed>0.022360679774997897</speed>
  <fix>3d</fix>
</trkpt>
<trkpt lat="40.0728134" lon="-105.2306143">
  <ele>1596.59</ele>
  <time>2026-08-28T19:12:25Z</time>
  <course>287.71</course>
  <speed>0.0</speed>
  <fix>3d</fix>
</trkpt>
<trkpt lat="40.0728134" lon="-105.2306146">
  <ele>1596.66</ele>
  <time>2026-08-28T19:12:25Z</time>
  <course>349.09</course>
  <speed>0.022360679774997897</speed>
  <fix>3d</fix>
</trkpt>
<trkpt lat="40.0728134" lon="-105.2306143">
  <ele>1596.59</ele>
  <time>2026-08-28T19:12:25Z</time>
  <course>267.39</course>
  <speed>0.0</speed>
  <fix>3d</fix>
</trkpt>
<trkpt lat="40.0728134" lon="-105.2306146">
  <ele>1596.66</ele>
  <time>2026-08-28T19:12:25Z</time>
  <course>349.11</course>
  <speed>0.022360679774997897</speed>
  <fix>3d</fix>
</trkpt>
<trkpt lat="40.0728134" lon="-105.2306143">
  <ele>1596.59</ele>
  <time>2026-08-28T19:12:25Z</time>
  <course>255.7</course>
  <speed>0.0</speed>
  <fix>3d</fix>
</trkpt>
<trkpt lat="40.0728134" lon="-105.2306146">
  <ele>1596.65</ele>
  <time>2026-08-28T19:12:25Z</time>
  <course>349.11</course>
  <speed>0.022360679774997897</speed>
  <fix>3d</fix>
</trkpt>
<trkpt lat="40.0728134" lon="-105.2306143">
  <ele>1596.59</ele>
  <time>2026-08-28T19:12:25Z</time>
  <course>249.49</course>
  <speed>0.0</speed>
  <fix>3d</fix>
</trkpt>
<trkpt lat="40.0728134" lon="-105.2306146">
  <ele>1596.65</ele>
  <time>2026-08-28T19:12:25Z</time>
  <course>349.1</course>
  <speed>0.022360679774997897</speed>
  <fix>3d</fix>
</trkpt>
<trkpt lat="40.0728134" lon="-105.2306143">
  <ele>1596.59</ele>
  <time>2026-08-28T19:12:25Z</time>
  <course>246.14</course>
  <speed>0.0</speed>
  <fix>3d</fix>
</trkpt>
<trkpt lat="40.0728134" lon="-105.2306146">
  <ele>1596.66</ele>
  <time>2026-08-28T19:12:25Z</time>
  <course>349.09</course>
  <speed>0.022360679774997897</speed>
  <fix>3d</fix>
</trkpt>
<trkpt lat="40.0728134" lon="-105.2306143">
  <ele>1596.59</ele>
  <time>2026-08-28T19:12:25Z</time>
  <course>244.05</course>
  <speed>0.0</speed>
  <fix>3d</fix>
</trkpt>
<trkpt lat="40.0728134" lon="-105.2306146">
  <ele>1596.66</ele>
  <time>2026-08-28T19:12:25Z</time>
  <course>349.11</course>
  <speed>0.02</speed>
  <fix>3d</fix>
</trkpt>
<trkpt lat="40.0728134" lon="-105.2306143">
  <ele>1596.59</ele>
  <time>2026-08-28T19:12:25Z</time>
  <course>240.91</course>
  <speed>0.0</speed>
  <fix>3d</fix>
</trkpt>
<trkpt lat="40.0728134" lon="-105.2306146">
  <ele>1596.66</ele>
  <time>2026-08-28T19:12:25Z</time>
  <course>349.13</course>
  <speed>0.02</speed>
  <fix>3d</fix>
</trkpt>
<trkpt lat="40.0728134" lon="-105.2306143">
  <ele>1596.59</ele>
  <time>2026-08-28T19:12:25Z</time>
  <course>237.87</course>
  <speed>0.0</speed>
  <fix>3d</fix>
</trkpt>
<trkpt lat="40.0728134" lon="-105.2306146">
  <ele>1596.66</ele>
  <time>2026-08-28T19:12:25Z</time>
  <course>349.15</course>
  <speed>0.02</speed>
  <fix>3d</fix>
</trkpt>
<trkpt lat="40.0728134" lon="-105.2306143">
  <ele>1596.58</ele>
  <time>2026-08-28T19:12:25Z</time>
  <course>236.29</course>
  <speed>0.0</speed>
  <fix>3d</fix>
</trkpt>
<trkpt lat="40.0728134" lon="-105.2306146">
  <ele>1596.66</ele>
  <time>2026-08-28T19:12:25Z</time>
  <course>349.15</course>
  <speed>0.02</speed>
  <fix>3d</fix>
</trkpt>
<trkpt lat="40.0728134" lon="-105.2306143">
  <ele>1596.58</ele>
  <time>2026-08-28T19:12:25Z</time>
  <course>234.71</course>
  <speed>0.0</speed>
  <fix>3d</fix>
</trkpt>
<trkpt lat="40.0728134" lon="-105.2306146">
  <ele>1596.66</ele>
  <time>2026-08-28T19:12:25Z</time>
  <course>349.15</course>
  <speed>0.02</speed>
  <fix>3d</fix>
</trkpt>
<trkpt lat="40.0728134" lon="-105.2306143">
  <ele>1596.58</ele>
  <time>2026-08-28T19:12:25Z</time>
  <course>234.04</course>
  <speed>0.0</speed>
  <fix>3d</fix>
</trkpt>
<trkpt lat="40.0728134" lon="-105.2306146">
  <ele>1596.66</ele>
  <time>2026-08-28T19:12:25Z</time>
  <course>349.15</course>
  <speed>0.02</speed>
  <fix>3d</fix>
</trkpt>
<trkpt lat="40.0728134" lon="-105.2306144">
  <ele>1596.58</ele>
  <time>2026-08-28T19:12:25Z</time>
  <course>233.68</course>
  <speed>0.0</speed>
  <fix>3d</fix>
</trkpt>
<trkpt lat="40.0728134" lon="-105.2306146">
  <ele>1596.65</ele>
  <time>2026-08-28T19:12:25Z</time>
  <course>349.14</course>
  <speed>0.02</speed>
  <fix>3d</fix>
</trkpt>
<trkpt lat="40.0728134" lon="-105.2306145">
  <ele>1596.58</ele>
  <time>2026-08-28T19:12:25Z</time>
  <course>233.07</course>
  <speed>0.0</speed>
  <fix>3d</fix>
</trkpt>
<trkpt lat="40.0728134" lon="-105.2306146">
  <ele>1596.65</ele>
  <time>2026-08-28T19:12:25Z</time>
  <course>349.12</course>
  <speed>0.02</speed>
  <fix>3d</fix>
</trkpt>
<trkpt lat="40.0728134" lon="-105.2306145">
  <ele>1596.58</ele>
  <time>2026-08-28T19:12:25Z</time>
  <course>233.19</course>
  <speed>0.0</speed>
  <fix>3d</fix>
</trkpt>
<trkpt lat="40.0728134" lon="-105.2306146">
  <ele>1596.64</ele>
  <time>2026-08-28T19:12:25Z</time>
  <course>349.11</course>
  <speed>0.02</speed>
  <fix>3d</fix>
</trkpt>
<trkpt lat="40.0728134" lon="-105.2306145">
  <ele>1596.58</ele>
  <time>2026-08-28T19:12:25Z</time>
  <course>233.53</course>
  <speed>0.0</speed>
  <fix>3d</fix>
</trkpt>
<trkpt lat="40.0728134" lon="-105.2306147">
  <ele>1596.65</ele>
  <time>2026-08-28T19:12:25Z</time>
  <course>349.1</course>
  <speed>0.02</speed>
  <fix>3d</fix>
</trkpt>
<trkpt lat="40.0728134" lon="-105.2306145">
  <ele>1596.58</ele>
  <time>2026-08-28T19:12:25Z</time>
  <course>233.11</course>
  <speed>0.0</speed>
  <fix>3d</fix>
</trkpt>
<trkpt lat="40.0728134" lon="-105.2306147">
  <ele>1596.65</ele>
  <time>2026-08-28T19:12:25Z</time>
  <course>349.09</course>
  <speed>0.02</speed>
  <fix>3d</fix>
</trkpt>
<trkpt lat="40.0728134" lon="-105.2306145">
  <ele>1596.58</ele>
  <time>2026-08-28T19:12:25Z</time>
  <course>229.53</course>
  <speed>0.0</speed>
  <fix>3d</fix>
</trkpt>
<trkpt lat="40.0728134" lon="-105.2306147">
  <ele>1596.65</ele>
  <time>2026-08-28T19:12:25Z</time>
  <course>349.09</course>
  <speed>0.02</speed>
  <fix>3d</fix>
</trkpt>
<trkpt lat="40.0728133" lon="-105.2306145">
  <ele>1596.58</ele>
  <time>2026-08-28T19:12:25Z</time>
  <course>223.65</course>
  <speed>0.0</speed>
  <fix>3d</fix>
</trkpt>
<trkpt lat="40.0728134" lon="-105.2306147">
  <ele>1596.65</ele>
  <time>2026-08-28T19:12:25Z</time>
  <course>349.09</course>
  <speed>0.02</speed>
  <fix>3d</fix>
</trkpt>
<trkpt lat="40.0728133" lon="-105.2306146">
  <ele>1596.58</ele>
  <time>2026-08-28T19:12:25Z</time>
  <course>217.47</course>
  <speed>0.0</speed>
  <fix>3d</fix>
</trkpt>
<trkpt lat="40.0728134" lon="-105.2306147">
  <ele>1596.65</ele>
  <time>2026-08-28T19:12:25Z</time>
  <course>349.08</course>
  <speed>0.02</speed>
  <fix>3d</fix>
</trkpt>
<trkpt lat="40.0728133" lon="-105.2306146">
  <ele>1596.58</ele>
  <time>2026-08-28T19:12:25Z</time>
  <course>209.67</course>
  <speed>0.0</speed>
  <fix>3d</fix>
</trkpt>
<trkpt lat="40.0728134" lon="-105.2306147">
  <ele>1596.66</ele>
  <time>2026-08-28T19:12:25Z</time>
  <course>349.08</course>
  <speed>0.02</speed>
  <fix>3d</fix>
</trkpt>
<trkpt lat="40.0728133" lon="-105.2306146">
  <ele>1596.58</ele>
  <time>2026-08-28T19:12:25Z</time>
  <course>199.11</course>
  <speed>0.0</speed>
  <fix>3d</fix>
</trkpt>
<trkpt lat="40.0728134" lon="-105.2306147">
  <ele>1596.66</ele>
  <time>2026-08-28T19:12:25Z</time>
  <course>349.08</course>
  <speed>0.02</speed>
  <fix>3d</fix>
</trkpt>
<trkpt lat="40.0728133" lon="-105.2306146">
  <ele>1596.58</ele>
  <time>2026-08-28T19:12:25Z</time>
  <course>183.61</course>
  <speed>0.0</speed>
  <fix>3d</fix>
</trkpt>
<trkpt lat="40.0728134" lon="-105.2306147">
  <ele>1596.66</ele>
  <time>2026-08-28T19:12:25Z</time>
  <course>349.08</course>
  <speed>0.01414213562373095</speed>
  <fix>3d</fix>
</trkpt>
<trkpt lat="40.0728133" lon="-105.2306146">
  <ele>1596.58</ele>
  <time>2026-08-28T19:12:25Z</time>
  <course>159.79</course>
  <speed>0.0</speed>
  <fix>3d</fix>
</trkpt>
<trkpt lat="40.0728134" lon="-105.2306147">
  <ele>1596.66</ele>
  <time>2026-08-28T19:12:25Z</time>
  <course>349.09</course>
  <speed>0.01414213562373095</speed>
  <fix>3d</fix>
</trkpt>
<trkpt lat="40.0728133" lon="-105.2306146">
  <ele>1596.58</ele>
  <time>2026-08-28T19:12:25Z</time>
  <course>128.65</course>
  <speed>0.0</speed>
  <fix>3d</fix>
</trkpt>
<trkpt lat="40.0728134" lon="-105.2306147">
  <ele>1596.66</ele>
  <time>2026-08-28T19:12:25Z</time>
  <course>349.1</course>
  <speed>0.01414213562373095</speed>
  <fix>3d</fix>
</trkpt>
<trkpt lat="40.0728133" lon="-105.2306146">
  <ele>1596.57</ele>
  <time>2026-08-28T19:12:25Z</time>
  <course>103.4</course>
  <speed>0.0</speed>
  <fix>3d</fix>
</trkpt>
<trkpt lat="40.0728134" lon="-105.2306147">
  <ele>1596.66</ele>
  <time>2026-08-28T19:12:25Z</time>
  <course>349.1</course>
  <speed>0.01414213562373095</speed>
  <fix>3d</fix>
</trkpt>
<trkpt lat="40.0728133" lon="-105.2306146">
  <ele>1596.57</ele>
  <time>2026-08-28T19:12:25Z</time>
  <course>91.49</course>
  <speed>0.0</speed>
  <fix>3d</fix>
</trkpt>
<trkpt lat="40.0728134" lon="-105.2306147">
  <ele>1596.65</ele>
  <time>2026-08-28T19:12:25Z</time>
  <course>349.09</course>
  <speed>0.01414213562373095</speed>
  <fix>3d</fix>
</trkpt>
<trkpt lat="40.0728133" lon="-105.2306146">
  <ele>1596.57</ele>
  <time>2026-08-28T19:12:25Z</time>
  <course>85.41</course>
  <speed>0.0</speed>
  <fix>3d</fix>
</trkpt>
<trkpt lat="40.0728134" lon="-105.2306147">
  <ele>1596.65</ele>
  <time>2026-08-28T19:12:25Z</time>
  <course>349.09</course>
  <speed>0.01414213562373095</speed>
  <fix>3d</fix>
</trkpt>
<trkpt lat="40.0728133" lon="-105.2306146">
  <ele>1596.57</ele>
  <time>2026-08-28T19:12:25Z</time>
  <course>80.03</course>
  <speed>0.0</speed>
  <fix>3d</fix>
</trkpt>
<trkpt lat="40.0728134" lon="-105.2306147">
  <ele>1596.65</ele>
  <time>2026-08-28T19:12:25Z</time>
  <course>349.09</course>
  <speed>0.01414213562373095</speed>
  <fix>3d</fix>
</trkpt>
<trkpt lat="40.0728133" lon="-105.2306146">
  <ele>1596.57</ele>
  <time>2026-08-28T19:12:25Z</time>
  <course>74.77</course>
  <speed>0.0</speed>
  <fix>3d</fix>
</trkpt>
<trkpt lat="40.0728134" lon="-105.2306147">
  <ele>1596.65</ele>
  <time>2026-08-28T19:12:25Z</time>
  <course>349.08</course>
  <speed>0.01414213562373095</speed>
  <fix>3d</fix>
</trkpt>
<trkpt lat="40.0728133" lon="-105.2306146">
  <ele>1596.57</ele>
  <time>2026-08-28T19:12:25Z</time>
  <course>70.63</course>
  <speed>0.01</speed>
  <fix>3d</fix>
</trkpt>
<trkpt lat="40.0728134" lon="-105.2306147">
  <ele>1596.64</ele>
  <time>2026-08-28T19:12:25Z</time>
  <course>349.07</course>
  <speed>0.01414213562373095</speed>
  <fix>3d</fix>
</trkpt>
<trkpt lat="40.0728133" lon="-105.2306146">
  <ele>1596.57</ele>
  <time>2026-08-28T19:12:25Z</time>
  <course>67.63</course>
  <speed>0.01</speed>
  <fix>3d</fix>
</trkpt>
<trkpt lat="40.0728134" lon="-105.2306147">
  <ele>1596.64</ele>
  <time>2026-08-28T19:12:25Z</time>
  <course>349.05</course>
  <speed>0.01414213562373095</speed>
  <fix>3d</fix>
</trkpt>
<trkpt lat="40.0728133" lon="-105.2306145">
  <ele>1596.57</ele>
  <time>2026-08-28T19:12:25Z</time>
  <course>65.32</course>
  <speed>0.01</speed>
  <fix>3d</fix>
</trkpt>
<trkpt lat="40.0728134" lon="-105.2306147">
  <ele>1596.63</ele>
  <time>2026-08-28T19:12:25Z</time>
  <course>349.03</course>
  <speed>0.01414213562373095</speed>
  <fix>3d</fix>
</trkpt>
<trkpt lat="40.0728133" lon="-105.2306145">
  <ele>1596.57</ele>
  <time>2026-08-28T19:12:25Z</time>
  <course>63.63</course>
  <speed>0.01</speed>
  <fix>3d</fix>
</trkpt>
<trkpt lat="40.0728134" lon="-105.2306147">
  <ele>1596.64</ele>
  <time>2026-08-28T19:12:25Z</time>
  <course>349.01</course>
  <speed>0.01414213562373095</speed>
  <fix>3d</fix>
</trkpt>
<trkpt lat="40.0728133" lon="-105.2306145">
  <ele>1596.57</ele>
  <time>2026-08-28T19:12:25Z</time>
  <course>65.09</course>
  <speed>0.0</speed>
  <fix>3d</fix>
</trkpt>
<trkpt lat="40.0728134" lon="-105.2306147">
  <ele>1596.64</ele>
  <time>2026-08-28T19:12:25Z</time>
  <course>349.0</course>
  <speed>0.01414213562373095</speed>
  <fix>3d</fix>
</trkpt>
<trkpt lat="40.0728133" lon="-105.2306145">
  <ele>1596.57</ele>
  <time>2026-08-28T19:12:25Z</time>
  <course>70.46</course>
  <speed>0.0</speed>
  <fix>3d</fix>
</trkpt>
<trkpt lat="40.0728134" lon="-105.2306147">
  <ele>1596.64</ele>
  <time>2026-08-28T19:12:25Z</time>
  <course>348.99</course>
  <speed>0.01414213562373095</speed>
  <fix>3d</fix>
</trkpt>
<trkpt lat="40.0728133" lon="-105.2306145">
  <ele>1596.57</ele>
  <time>2026-08-28T19:12:25Z</time>
  <course>75.59</course>
  <speed>0.0</speed>
  <fix>3d</fix>
</trkpt>
<trkpt lat="40.0728134" lon="-105.2306147">
  <ele>1596.64</ele>
  <time>2026-08-28T19:12:25Z</time>
  <course>348.99</course>
  <speed>0.022360679774997897</speed>
  <fix>3d</fix>
</trkpt>
<trkpt lat="40.0728133" lon="-105.2306144">
  <ele>1596.58</ele>
  <time>2026-08-28T19:12:25Z</time>
  <course>79.04</course>
  <speed>0.0</speed>
  <fix>3d</fix>
</trkpt>
<trkpt lat="40.0728134" lon="-105.2306147">
  <ele>1596.64</ele>
  <time>2026-08-28T19:12:25Z</time>
  <course>348.99</course>
  <speed>0.022360679774997897</speed>
  <fix>3d</fix>
</trkpt>
<trkpt lat="40.0728133" lon="-105.2306143">
  <ele>1596.58</ele>
  <time>2026-08-28T19:12:25Z</time>
  <course>79.78</course>
  <speed>0.0</speed>
  <fix>3d</fix>
</trkpt>
<trkpt lat="40.0728134" lon="-105.2306147">
  <ele>1596.65</ele>
  <time>2026-08-28T19:12:25Z</time>
  <course>348.99</course>
  <speed>0.022360679774997897</speed>
  <fix>3d</fix>
</trkpt>
<trkpt lat="40.0728133" lon="-105.2306143">
  <ele>1596.58</ele>
  <time>2026-08-28T19:12:25Z</time>
  <course>77.4</course>
  <speed>0.0</speed>
  <fix>3d</fix>
</trkpt>
<trkpt lat="40.0728134" lon="-105.2306147">
  <ele>1596.65</ele>
  <time>2026-08-28T19:12:25Z</time>
  <course>348.99</course>
  <speed>0.022360679774997897</speed>
  <fix>3d</fix>
</trkpt>
<trkpt lat="40.0728133" lon="-105.2306143">
  <ele>1596.59</ele>
  <time>2026-08-28T19:12:25Z</time>
  <course>72.51</course>
  <speed>0.0</speed>
  <fix>3d</fix>
</trkpt>
<trkpt lat="40.0728134" lon="-105.2306147">
  <ele>1596.65</ele>
  <time>2026-08-28T19:12:25Z</time>
  <course>348.99</course>
  <speed>0.022360679774997897</speed>
  <fix>3d</fix>
</trkpt>
<trkpt lat="40.0728133" lon="-105.2306143">
  <ele>1596.59</ele>
  <time>2026-08-28T19:12:25Z</time>
  <course>63.21</course>
  <speed>0.0</speed>
  <fix>3d</fix>
</trkpt>
<trkpt lat="40.0728134" lon="-105.2306146">
  <ele>1596.65</ele>
  <time>2026-08-28T19:12:25Z</time>
  <course>348.99</course>
  <speed>0.022360679774997897</speed>
  <fix>3d</fix>
</trkpt>
<trkpt lat="40.0728133" lon="-105.2306143">
  <ele>1596.59</ele>
  <time>2026-08-28T19:12:25Z</time>
  <course>46.88</course>
  <speed>0.0</speed>
  <fix>3d</fix>
</trkpt>
<trkpt lat="40.0728134" lon="-105.2306146">
  <ele>1596.65</ele>
  <time>2026-08-28T19:12:25Z</time>
  <course>348.99</course>
  <speed>0.022360679774997897</speed>
  <fix>3d</fix>
</trkpt>
<trkpt lat="40.0728133" lon="-105.2306143">
  <ele>1596.59</ele>
  <time>2026-08-28T19:12:25Z</time>
  <course>0.29</course>
  <speed>0.0</speed>
  <fix>3d</fix>
</trkpt>
<trkpt lat="40.0728134" lon="-105.2306146">
  <ele>1596.65</ele>
  <time>2026-08-28T19:12:25Z</time>
  <course>348.99</course>
  <speed>0.022360679774997897</speed>
  <fix>3d</fix>
</trkpt>
<trkpt lat="40.0728133" lon="-105.2306143">
  <ele>1596.59</ele>
  <time>2026-08-28T19:12:25Z</time>
  <course>299.32</course>
  <speed>0.0</speed>
  <fix>3d</fix>
</trkpt>
<trkpt lat="40.0728134" lon="-105.2306146">
  <ele>1596.65</ele>
  <time>2026-08-28T19:12:25Z</time>
  <course>348.99</course>
  <speed>0.022360679774997897</speed>
  <fix>3d</fix>
</trkpt>
<trkpt lat="40.0728133" lon="-105.2306143">
  <ele>1596.59</ele>
  <time>2026-08-28T19:12:25Z</time>
  <course>282.91</course>
  <speed>0.0</speed>
  <fix>3d</fix>
</trkpt>
<trkpt lat="40.0728134" lon="-105.2306146">
  <ele>1596.65</ele>
  <time>2026-08-28T19:12:25Z</time>
  <course>348.99</course>
  <speed>0.022360679774997897</speed>
  <fix>3d</fix>
</trkpt>
<trkpt lat="40.0728133" lon="-105.2306143">
  <ele>1596.59</ele>
  <time>2026-08-28T19:12:25Z</time>
  <course>276.9</course>
  <speed>0.0</speed>
  <fix>3d</fix>
</trkpt>
<trkpt lat="40.0728134" lon="-105.2306146">
  <ele>1596.65</ele>
  <time>2026-08-28T19:12:25Z</time>
  <course>348.99</course>
  <speed>0.022360679774997897</speed>
  <fix>3d</fix>
</trkpt>
<trkpt lat="40.0728133" lon="-105.2306143">
  <ele>1596.59</ele>
  <time>2026-08-28T19:12:25Z</time>
  <course>273.94</course>
  <speed>0.0</speed>
  <fix>3d</fix>
</trkpt>
<trkpt lat="40.0728134" lon="-105.2306146">
  <ele>1596.65</ele>
  <time>2026-08-28T19:12:25Z</time>
  <course>348.99</course>
  <speed>0.022360679774997897</speed>
  <fix>3d</fix>
</trkpt>
<trkpt lat="40.0728133" lon="-105.2306143">
  <ele>1596.59</ele>
  <time>2026-08-28T19:12:25Z</time>
  <course>274.23</course>
  <speed>0.0</speed>
  <fix>3d</fix>
</trkpt>
<trkpt lat="40.0728134" lon="-105.2306146">
  <ele>1596.65</ele>
  <time>2026-08-28T19:12:25Z</time>
  <course>348.99</course>
  <speed>0.022360679774997897</speed>
  <fix>3d</fix>
</trkpt>
<trkpt lat="40.0728133" lon="-105.2306143">
  <ele>1596.6</ele>
  <time>2026-08-28T19:12:25Z</time>
  <course>277.73</course>
  <speed>0.0</speed>
  <fix>3d</fix>
</trkpt>
<trkpt lat="40.0728134" lon="-105.2306146">
  <ele>1596.65</ele>
  <time>2026-08-28T19:12:25Z</time>
  <course>348.99</course>
  <speed>0.022360679774997897</speed>
  <fix>3d</fix>
</trkpt>
<trkpt lat="40.0728133" lon="-105.2306143">
  <ele>1596.6</ele>
  <time>2026-08-28T19:12:25Z</time>
  <course>281.59</course>
  <speed>0.0</speed>
  <fix>3d</fix>
</trkpt>
<trkpt lat="40.0728134" lon="-105.2306146">
  <ele>1596.65</ele>
  <time>2026-08-28T19:12:25Z</time>
  <course>348.99</course>
  <speed>0.022360679774997897</speed>
  <fix>3d</fix>
</trkpt>
<trkpt lat="40.0728133" lon="-105.2306143">
  <ele>1596.6</ele>
  <time>2026-08-28T19:12:25Z</time>
  <course>284.51</course>
  <speed>0.0</speed>
  <fix>3d</fix>
</trkpt>
<trkpt lat="40.0728134" lon="-105.2306146">
  <ele>1596.65</ele>
  <time>2026-08-28T19:12:25Z</time>
  <course>348.99</course>
  <speed>0.022360679774997897</speed>
  <fix>3d</fix>
</trkpt>
<trkpt lat="40.0728133" lon="-105.2306143">
  <ele>1596.6</ele>
  <time>2026-08-28T19:12:25Z</time>
  <course>286.92</course>
  <speed>0.0</speed>
  <fix>3d</fix>
</trkpt>
<trkpt lat="40.0728134" lon="-105.2306146">
  <ele>1596.65</ele>
  <time>2026-08-28T19:12:25Z</time>
  <course>348.99</course>
  <speed>0.022360679774997897</speed>
  <fix>3d</fix>
</trkpt>
<trkpt lat="40.0728133" lon="-105.2306144">
  <ele>1596.6</ele>
  <time>2026-08-28T19:12:25Z</time>
  <course>289.04</course>
  <speed>0.0</speed>
  <fix>3d</fix>
</trkpt>
<trkpt lat="40.0728134" lon="-105.2306146">
  <ele>1596.65</ele>
  <time>2026-08-28T19:12:25Z</time>
  <course>348.99</course>
  <speed>0.022360679774997897</speed>
  <fix>3d</fix>
</trkpt>
<trkpt lat="40.0728133" lon="-105.2306145">
  <ele>1596.6</ele>
  <time>2026-08-28T19:12:25Z</time>
  <course>290.19</course>
  <speed>0.0</speed>
  <fix>3d</fix>
</trkpt>
<trkpt lat="40.0728134" lon="-105.2306146">
  <ele>1596.65</ele>
  <time>2026-08-28T19:12:25Z</time>
  <course>348.99</course>
  <speed>0.022360679774997897</speed>
  <fix>3d</fix>
</trkpt>
<trkpt lat="40.0728133" lon="-105.2306145">
  <ele>1596.6</ele>
  <time>2026-08-28T19:12:25Z</time>
  <course>290.39</course>
  <speed>0.0</speed>
  <fix>3d</fix>
</trkpt>
<trkpt lat="40.0728134" lon="-105.2306147">
  <ele>1596.65</ele>
  <time>2026-08-28T19:12:25Z</time>
  <course>349.0</course>
  <speed>0.022360679774997897</speed>
  <fix>3d</fix>
</trkpt>
<trkpt lat="40.0728133" lon="-105.2306145">
  <ele>1596.6</ele>
  <time>2026-08-28T19:12:25Z</time>
  <course>290.26</course>
  <speed>0.0</speed>
  <fix>3d</fix>
</trkpt>
<trkpt lat="40.0728134" lon="-105.2306147">
  <ele>1596.65</ele>
  <time>2026-08-28T19:12:25Z</time>
  <course>349.0</course>
  <speed>0.022360679774997897</speed>
  <fix>3d</fix>
</trkpt>
<trkpt lat="40.0728133" lon="-105.2306145">
  <ele>1596.6</ele>
  <time>2026-08-28T19:12:25Z</time>
  <course>291.85</course>
  <speed>0.0</speed>
  <fix>3d</fix>
</trkpt>
<trkpt lat="40.0728134" lon="-105.2306147">
  <ele>1596.66</ele>
  <time>2026-08-28T19:12:25Z</time>
  <course>349.0</course>
  <speed>0.022360679774997897</speed>
  <fix>3d</fix>
</trkpt>
<trkpt lat="40.0728133" lon="-105.2306145">
  <ele>1596.6</ele>
  <time>2026-08-28T19:12:25Z</time>
  <course>295.85</course>
  <speed>0.0</speed>
  <fix>3d</fix>
</trkpt>
<trkpt lat="40.0728134" lon="-105.2306147">
  <ele>1596.66</ele>
  <time>2026-08-28T19:12:25Z</time>
  <course>349.0</course>
  <speed>0.022360679774997897</speed>
  <fix>3d</fix>
</trkpt>
<trkpt lat="40.0728133" lon="-105.2306146">
  <ele>1596.6</ele>
  <time>2026-08-28T19:12:25Z</time>
  <course>301.24</course>
  <speed>0.0</speed>
  <fix>3d</fix>
</trkpt>
<trkpt lat="40.0728134" lon="-105.2306147">
  <ele>1596.67</ele>
  <time>2026-08-28T19:12:25Z</time>
  <course>349.01</course>
  <speed>0.022360679774997897</speed>
  <fix>3d</fix>
</trkpt>
<trkpt lat="40.0728133" lon="-105.2306146">
  <ele>1596.6</ele>
  <time>2026-08-28T19:12:25Z</time>
  <course>315.29</course>
  <speed>0.0</speed>
  <fix>3d</fix>
</trkpt>
<trkpt lat="40.0728134" lon="-105.2306147">
  <ele>1596.67</ele>
  <time>2026-08-28T19:12:25Z</time>
  <course>349.05</course>
  <speed>0.022360679774997897</speed>
  <fix>3d</fix>
</trkpt>
<trkpt lat="40.0728133" lon="-105.2306146">
  <ele>1596.6</ele>
  <time>2026-08-28T19:12:25Z</time>
  <course>349.86</course>
  <speed>0.0</speed>
  <fix>3d</fix>
</trkpt>
<trkpt lat="40.0728134" lon="-105.2306147">
  <ele>1596.68</ele>
  <time>2026-08-28T19:12:25Z</time>
  <course>349.08</course>
  <speed>0.01414213562373095</speed>
  <fix>3d</fix>
</trkpt>
<trkpt lat="40.0728133" lon="-105.2306146">
  <ele>1596.6</ele>
  <time>2026-08-28T19:12:25Z</time>
  <course>16.78</course>
  <speed>0.0</speed>
  <fix>3d</fix>
</trkpt>
<trkpt lat="40.0728134" lon="-105.2306147">
  <ele>1596.68</ele>
  <time>2026-08-28T19:12:25Z</time>
  <course>349.11</course>
  <speed>0.01414213562373095</speed>
  <fix>3d</fix>
</trkpt>
<trkpt lat="40.0728133" lon="-105.2306146">
  <ele>1596.6</ele>
  <time>2026-08-28T19:12:25Z</time>
  <course>29.71</course>
  <speed>0.0</speed>
  <fix>3d</fix>
</trkpt>
<trkpt lat="40.0728134" lon="-105.2306147">
  <ele>1596.67</ele>
  <time>2026-08-28T19:12:25Z</time>
  <course>349.14</course>
  <speed>0.01414213562373095</speed>
  <fix>3d</fix>
</trkpt>
<trkpt lat="40.0728133" lon="-105.2306146">
  <ele>1596.59</ele>
  <time>2026-08-28T19:12:25Z</time>
  <course>38.33</course>
  <speed>0.0</speed>
  <fix>3d</fix>
</trkpt>
<trkpt lat="40.0728134" lon="-105.2306147">
  <ele>1596.66</ele>
  <time>2026-08-28T19:12:25Z</time>
  <course>349.14</course>
  <speed>0.01414213562373095</speed>
  <fix>3d</fix>
</trkpt>
<trkpt lat="40.0728133" lon="-105.2306146">
  <ele>1596.58</ele>
  <time>2026-08-28T19:12:25Z</time>
  <course>45.22</course>
  <speed>0.0</speed>
  <fix>3d</fix>
</trkpt>
<trkpt lat="40.0728134" lon="-105.2306147">
  <ele>1596.66</ele>
  <time>2026-08-28T19:12:25Z</time>
  <course>349.13</course>
  <speed>0.01414213562373095</speed>
  <fix>3d</fix>
</trkpt>
<trkpt lat="40.0728133" lon="-105.2306146">
  <ele>1596.58</ele>
  <time>2026-08-28T19:12:25Z</time>
  <course>50.34</course>
  <speed>0.0</speed>
  <fix>3d</fix>
</trkpt>
<trkpt lat="40.0728134" lon="-105.2306147">
  <ele>1596.65</ele>
  <time>2026-08-28T19:12:25Z</time>
  <course>349.1</course>
  <speed>0.01414213562373095</speed>
  <fix>3d</fix>
</trkpt>
<trkpt lat="40.0728134" lon="-105.2306146">
  <ele>1596.58</ele>
  <time>2026-08-28T19:12:25Z</time>
  <course>54.73</course>
  <speed>0.0</speed>
  <fix>3d</fix>
</trkpt>
<trkpt lat="40.0728134" lon="-105.2306147">
  <ele>1596.65</ele>
  <time>2026-08-28T19:12:25Z</time>
  <course>349.08</course>
  <speed>0.01414213562373095</speed>
  <fix>3d</fix>
</trkpt>
<trkpt lat="40.0728134" lon="-105.2306146">
  <ele>1596.57</ele>
  <time>2026-08-28T19:12:25Z</time>
  <course>57.92</course>
  <speed>0.0</speed>
  <fix>3d</fix>
</trkpt>
<trkpt lat="40.0728134" lon="-105.2306147">
  <ele>1596.65</ele>
  <time>2026-08-28T19:12:25Z</time>
  <course>349.06</course>
  <speed>0.01414213562373095</speed>
  <fix>3d</fix>
</trkpt>
<trkpt lat="40.0728134" lon="-105.2306146">
  <ele>1596.57</ele>
  <time>2026-08-28T19:12:25Z</time>
  <course>60.56</course>
  <speed>0.0</speed>
  <fix>3d</fix>
</trkpt>
<trkpt lat="40.0728134" lon="-105.2306147">
  <ele>1596.65</ele>
  <time>2026-08-28T19:12:25Z</time>
  <course>349.05</course>
  <speed>0.01414213562373095</speed>
  <fix>3d</fix>
</trkpt>
<trkpt lat="40.0728134" lon="-105.2306146">
  <ele>1596.57</ele>
  <time>2026-08-28T19:12:25Z</time>
  <course>63.28</course>
  <speed>0.0</speed>
  <fix>3d</fix>
</trkpt>
<trkpt lat="40.0728134" lon="-105.2306147">
  <ele>1596.65</ele>
  <time>2026-08-28T19:12:25Z</time>
  <course>349.04</course>
  <speed>0.01414213562373095</speed>
  <fix>3d</fix>
</trkpt>
<trkpt lat="40.0728134" lon="-105.2306145">
  <ele>1596.57</ele>
  <time>2026-08-28T19:12:25Z</time>
  <course>66.15</course>
  <speed>0.0</speed>
  <fix>3d</fix>
</trkpt>
<trkpt lat="40.0728134" lon="-105.2306147">
  <ele>1596.65</ele>
  <time>2026-08-28T19:12:25Z</time>
  <course>349.04</course>
  <speed>0.01414213562373095</speed>
  <fix>3d</fix>
</trkpt>
<trkpt lat="40.0728134" lon="-105.2306145">
  <ele>1596.57</ele>
  <time>2026-08-28T19:12:25Z</time>
  <course>70.77</course>
  <speed>0.0</speed>
  <fix>3d</fix>
</trkpt>
<trkpt lat="40.0728134" lon="-105.2306147">
  <ele>1596.65</ele>
  <time>2026-08-28T19:12:25Z</time>
  <course>349.03</course>
  <speed>0.01414213562373095</speed>
  <fix>3d</fix>
</trkpt>
<trkpt lat="40.0728134" lon="-105.2306145">
  <ele>1596.57</ele>
  <time>2026-08-28T19:12:25Z</time>
  <course>79.3</course>
  <speed>0.0</speed>
  <fix>3d</fix>
</trkpt>
<trkpt lat="40.0728134" lon="-105.2306147">
  <ele>1596.65</ele>
  <time>2026-08-28T19:12:25Z</time>
  <course>349.03</course>
  <speed>0.01414213562373095</speed>
  <fix>3d</fix>
</trkpt>
<trkpt lat="40.0728134" lon="-105.2306145">
  <ele>1596.57</ele>
  <time>2026-08-28T19:12:25Z</time>
  <course>90.42</course>
  <speed>0.0</speed>
  <fix>3d</fix>
</trkpt>
<trkpt lat="40.0728134" lon="-105.2306147">
  <ele>1596.65</ele>
  <time>2026-08-28T19:12:25Z</time>
  <course>349.03</course>
  <speed>0.01</speed>
  <fix>3d</fix>
</trkpt>
<trkpt lat="40.0728134" lon="-105.2306145">
  <ele>1596.57</ele>
  <time>2026-08-28T19:12:25Z</time>
  <course>102.2</course>
  <speed>0.0</speed>
  <fix>3d</fix>
</trkpt>
<trkpt lat="40.0728134" lon="-105.2306147">
  <ele>1596.65</ele>
  <time>2026-08-28T19:12:25Z</time>
  <course>349.03</course>
  <speed>0.01</speed>
  <fix>3d</fix>
</trkpt>
<trkpt lat="40.0728134" lon="-105.2306144">
  <ele>1596.57</ele>
  <time>2026-08-28T19:12:25Z</time>
  <course>115.44</course>
  <speed>0.0</speed>
  <fix>3d</fix>
</trkpt>
<trkpt lat="40.0728134" lon="-105.2306146">
  <ele>1596.66</ele>
  <time>2026-08-28T19:12:25Z</time>
  <course>349.03</course>
  <speed>0.01</speed>
  <fix>3d</fix>
</trkpt>
<trkpt lat="40.0728134" lon="-105.2306143">
  <ele>1596.57</ele>
  <time>2026-08-28T19:12:25Z</time>
  <course>128.33</course>
  <speed>0.0</speed>
  <fix>3d</fix>
</trkpt>
<trkpt lat="40.0728134" lon="-105.2306146">
  <ele>1596.66</ele>
  <time>2026-08-28T19:12:25Z</time>
  <course>349.04</course>
  <speed>0.02</speed>
  <fix>3d</fix>
</trkpt>
<trkpt lat="40.0728134" lon="-105.2306143">
  <ele>1596.57</ele>
  <time>2026-08-28T19:12:25Z</time>
  <course>137.36</course>
  <speed>0.0</speed>
  <fix>3d</fix>
</trkpt>
<trkpt lat="40.0728134" lon="-105.2306146">
  <ele>1596.65</ele>
  <time>2026-08-28T19:12:25Z</time>
  <course>349.04</course>
  <speed>0.02</speed>
  <fix>3d</fix>
</trkpt>
<trkpt lat="40.0728134" lon="-105.2306143">
  <ele>1596.57</ele>
  <time>2026-08-28T19:12:25Z</time>
  <course>144.74</course>
  <speed>0.0</speed>
  <fix>3d</fix>
</trkpt>
<trkpt lat="40.0728134" lon="-105.2306146">
  <ele>1596.65</ele>
  <time>2026-08-28T19:12:25Z</time>
  <course>349.04</course>
  <speed>0.02</speed>
  <fix>3d</fix>
</trkpt>
<trkpt lat="40.0728134" lon="-105.2306143">
  <ele>1596.56</ele>
  <time>2026-08-28T19:12:25Z</time>
  <course>153.72</course>
  <speed>0.0</speed>
  <fix>3d</fix>
</trkpt>
<trkpt lat="40.0728134" lon="-105.2306146">
  <ele>1596.66</ele>
  <time>2026-08-28T19:12:25Z</time>
  <course>349.04</course>
  <speed>0.02</speed>
  <fix>3d</fix>
</trkpt>
<trkpt lat="40.0728134" lon="-105.2306143">
  <ele>1596.56</ele>
  <time>2026-08-28T19:12:25Z</time>
  <course>163.55</course>
  <speed>0.0</speed>
  <fix>3d</fix>
</trkpt>
<trkpt lat="40.0728134" lon="-105.2306146">
  <ele>1596.66</ele>
  <time>2026-08-28T19:12:25Z</time>
  <course>349.04</course>
  <speed>0.02</speed>
  <fix>3d</fix>
</trkpt>
<trkpt lat="40.0728134" lon="-105.2306143">
  <ele>1596.56</ele>
  <time>2026-08-28T19:12:25Z</time>
  <course>175.5</course>
  <speed>0.0</speed>
  <fix>3d</fix>
</trkpt>
<trkpt lat="40.0728134" lon="-105.2306146">
  <ele>1596.66</ele>
  <time>2026-08-28T19:12:25Z</time>
  <course>349.05</course>
  <speed>0.02</speed>
  <fix>3d</fix>
</trkpt>
<trkpt lat="40.0728134" lon="-105.2306143">
  <ele>1596.56</ele>
  <time>2026-08-28T19:12:25Z</time>
  <course>189.09</course>
  <speed>0.0</speed>
  <fix>3d</fix>
</trkpt>
<trkpt lat="40.0728134" lon="-105.2306146">
  <ele>1596.66</ele>
  <time>2026-08-28T19:12:25Z</time>
  <course>349.07</course>
  <speed>0.02</speed>
  <fix>3d</fix>
</trkpt>
<trkpt lat="40.0728134" lon="-105.2306143">
  <ele>1596.56</ele>
  <time>2026-08-28T19:12:25Z</time>
  <course>199.61</course>
  <speed>0.0</speed>
  <fix>3d</fix>
</trkpt>
<trkpt lat="40.0728134" lon="-105.2306146">
  <ele>1596.66</ele>
  <time>2026-08-28T19:12:25Z</time>
  <course>349.08</course>
  <speed>0.02</speed>
  <fix>3d</fix>
</trkpt>
<trkpt lat="40.0728134" lon="-105.2306143">
  <ele>1596.55</ele>
  <time>2026-08-28T19:12:25Z</time>
  <course>206.45</course>
  <speed>0.0</speed>
  <fix>3d</fix>
</trkpt>
<trkpt lat="40.0728134" lon="-105.2306146">
  <ele>1596.66</ele>
  <time>2026-08-28T19:12:25Z</time>
  <course>349.08</course>
  <speed>0.02</speed>
  <fix>3d</fix>
</trkpt>
<trkpt lat="40.0728134" lon="-105.2306143">
  <ele>1596.55</ele>
  <time>2026-08-28T19:12:25Z</time>
  <course>212.06</course>
  <speed>0.0</speed>
  <fix>3d</fix>
</trkpt>
<trkpt lat="40.0728134" lon="-105.2306146">
  <ele>1596.66</ele>
  <time>2026-08-28T19:12:25Z</time>
  <course>349.07</course>
  <speed>0.02</speed>
  <fix>3d</fix>
</trkpt>
<trkpt lat="40.0728134" lon="-105.2306143">
  <ele>1596.55</ele>
  <time>2026-08-28T19:12:25Z</time>
  <course>217.89</course>
  <speed>0.0</speed>
  <fix>3d</fix>
</trkpt>
<trkpt lat="40.0728134" lon="-105.2306146">
  <ele>1596.66</ele>
  <time>2026-08-28T19:12:25Z</time>
  <course>349.07</course>
  <speed>0.02</speed>
  <fix>3d</fix>
</trkpt>
<trkpt lat="40.0728134" lon="-105.2306143">
  <ele>1596.55</ele>
  <time>2026-08-28T19:12:25Z</time>
  <course>223.05</course>
  <speed>0.0</speed>
  <fix>3d</fix>
</trkpt>
<trkpt lat="40.0728134" lon="-105.2306146">
  <ele>1596.66</ele>
  <time>2026-08-28T19:12:25Z</time>
  <course>349.07</course>
  <speed>0.02</speed>
  <fix>3d</fix>
</trkpt>
<trkpt lat="40.0728133" lon="-105.2306143">
  <ele>1596.54</ele>
  <time>2026-08-28T19:12:25Z</time>
  <course>227.18</course>
  <speed>0.0</speed>
  <fix>3d</fix>
</trkpt>
<trkpt lat="40.0728134" lon="-105.2306146">
  <ele>1596.65</ele>
  <time>2026-08-28T19:12:25Z</time>
  <course>349.06</course>
  <speed>0.02</speed>
  <fix>3d</fix>
</trkpt>
<trkpt lat="40.0728133" lon="-105.2306143">
  <ele>1596.54</ele>
  <time>2026-08-28T19:12:25Z</time>
  <course>229.2</course>
  <speed>0.0</speed>
  <fix>3d</fix>
</trkpt>
<trkpt lat="40.0728134" lon="-105.2306146">
  <ele>1596.65</ele>
  <time>2026-08-28T19:12:25Z</time>
  <course>349.05</course>
  <speed>0.02</speed>
  <fix>3d</fix>
</trkpt>
<trkpt lat="40.0728133" lon="-105.2306143">
  <ele>1596.54</ele>
  <time>2026-08-28T19:12:25Z</time>
  <course>229.58</course>
  <speed>0.0</speed>
  <fix>3d</fix>
</trkpt>
<trkpt lat="40.0728134" lon="-105.2306146">
  <ele>1596.65</ele>
  <time>2026-08-28T19:12:25Z</time>
  <course>349.04</course>
  <speed>0.022360679774997897</speed>
  <fix>3d</fix>
</trkpt>
<trkpt lat="40.0728133" lon="-105.2306143">
  <ele>1596.54</ele>
  <time>2026-08-28T19:12:25Z</time>
  <course>231.19</course>
  <speed>0.0</speed>
  <fix>3d</fix>
</trkpt>
<trkpt lat="40.0728134" lon="-105.2306146">
  <ele>1596.64</ele>
  <time>2026-08-28T19:12:25Z</time>
  <course>349.04</course>
  <speed>0.022360679774997897</speed>
  <fix>3d</fix>
</trkpt>
<trkpt lat="40.0728133" lon="-105.2306143">
  <ele>1596.54</ele>
  <time>2026-08-28T19:12:25Z</time>
  <course>234.33</course>
  <speed>0.0</speed>
  <fix>3d</fix>
</trkpt>
<trkpt lat="40.0728134" lon="-105.2306146">
  <ele>1596.64</ele>
  <time>2026-08-28T19:12:25Z</time>
  <course>349.04</course>
  <speed>0.022360679774997897</speed>
  <fix>3d</fix>
</trkpt>
<trkpt lat="40.0728133" lon="-105.2306143">
  <ele>1596.54</ele>
  <time>2026-08-28T19:12:25Z</time>
  <course>237.6</course>
  <speed>0.0</speed>
  <fix>3d</fix>
</trkpt>
<trkpt lat="40.0728134" lon="-105.2306146">
  <ele>1596.64</ele>
  <time>2026-08-28T19:12:26Z</time>
  <course>349.03</course>
  <speed>0.022360679774997897</speed>
  <fix>3d</fix>
</trkpt>
<trkpt lat="40.0728133" lon="-105.2306144">
  <ele>1596.54</ele>
  <time>2026-08-28T19:12:26Z</time>
  <course>240.93</course>
  <speed>0.0</speed>
  <fix>3d</fix>
</trkpt>
<trkpt lat="40.0728134" lon="-105.2306146">
  <ele>1596.64</ele>
  <time>2026-08-28T19:12:26Z</time>
  <course>349.03</course>
  <speed>0.022360679774997897</speed>
  <fix>3d</fix>
</trkpt>
<trkpt lat="40.0728133" lon="-105.2306145">
  <ele>1596.54</ele>
  <time>2026-08-28T19:12:26Z</time>
  <course>244.24</course>
  <speed>0.0</speed>
  <fix>3d</fix>
</trkpt>
<trkpt lat="40.0728134" lon="-105.2306146">
  <ele>1596.65</ele>
  <time>2026-08-28T19:12:26Z</time>
  <course>349.03</course>
  <speed>0.022360679774997897</speed>
  <fix>3d</fix>
</trkpt>
<trkpt lat="40.0728133" lon="-105.2306145">
  <ele>1596.54</ele>
  <time>2026-08-28T19:12:26Z</time>
  <course>247.52</course>
  <speed>0.0</speed>
  <fix>3d</fix>
</trkpt>
<trkpt lat="40.0728134" lon="-105.2306146">
  <ele>1596.65</ele>
  <time>2026-08-28T19:12:26Z</time>
  <course>349.03</course>
  <speed>0.022360679774997897</speed>
  <fix>3d</fix>
</trkpt>
<trkpt lat="40.0728133" lon="-105.2306145">
  <ele>1596.54</ele>
  <time>2026-08-28T19:12:26Z</time>
  <course>251.33</course>
  <speed>0.0</speed>
  <fix>3d</fix>
</trkpt>
<trkpt lat="40.0728134" lon="-105.2306147">
  <ele>1596.64</ele>
  <time>2026-08-28T19:12:26Z</time>
  <course>349.03</course>
  <speed>0.022360679774997897</speed>
  <fix>3d</fix>
</trkpt>
<trkpt lat="40.0728133" lon="-105.2306145">
  <ele>1596.54</ele>
  <time>2026-08-28T19:12:26Z</time>
  <course>256.1</course>
  <speed>0.0</speed>
  <fix>3d</fix>
</trkpt>
<trkpt lat="40.0728134" lon="-105.2306147">
  <ele>1596.64</ele>
  <time>2026-08-28T19:12:26Z</time>
  <course>349.03</course>
  <speed>0.022360679774997897</speed>
  <fix>3d</fix>
</trkpt>
<trkpt lat="40.0728133" lon="-105.2306145">
  <ele>1596.54</ele>
  <time>2026-08-28T19:12:26Z</time>
  <course>262.03</course>
  <speed>0.0</speed>
  <fix>3d</fix>
</trkpt>
<trkpt lat="40.0728134" lon="-105.2306147">
  <ele>1596.64</ele>
  <time>2026-08-28T19:12:26Z</time>
  <course>349.01</course>
  <speed>0.022360679774997897</speed>
  <fix>3d</fix>
</trkpt>
<trkpt lat="40.0728133" lon="-105.2306145">
  <ele>1596.54</ele>
  <time>2026-08-28T19:12:26Z</time>
  <course>268.73</course>
  <speed>0.0</speed>
  <fix>3d</fix>
</trkpt>
<trkpt lat="40.0728134" lon="-105.2306147">
  <ele>1596.64</ele>
  <time>2026-08-28T19:12:26Z</time>
  <course>348.99</course>
  <speed>0.022360679774997897</speed>
  <fix>3d</fix>
</trkpt>
<trkpt lat="40.0728133" lon="-105.2306146">
  <ele>1596.54</ele>
  <time>2026-08-28T19:12:26Z</time>
  <course>275.63</course>
  <speed>0.0</speed>
  <fix>3d</fix>
</trkpt>
<trkpt lat="40.0728134" lon="-105.2306147">
  <ele>1596.64</ele>
  <time>2026-08-28T19:12:26Z</time>
  <course>348.97</course>
  <speed>0.022360679774997897</speed>
  <fix>3d</fix>
</trkpt>
<trkpt lat="40.0728133" lon="-105.2306146">
  <ele>1596.54</ele>
  <time>2026-08-28T19:12:26Z</time>
  <course>287.06</course>
  <speed>0.0</speed>
  <fix>3d</fix>
</trkpt>
<trkpt lat="40.0728134" lon="-105.2306147">
  <ele>1596.64</ele>
  <time>2026-08-28T19:12:26Z</time>
  <course>348.96</course>
  <speed>0.022360679774997897</speed>
  <fix>3d</fix>
</trkpt>
<trkpt lat="40.0728133" lon="-105.2306146">
  <ele>1596.54</ele>
  <time>2026-08-28T19:12:26Z</time>
  <course>315.6</course>
  <speed>0.0</speed>
  <fix>3d</fix>
</trkpt>
<trkpt lat="40.0728134" lon="-105.2306147">
  <ele>1596.63</ele>
  <time>2026-08-28T19:12:26Z</time>
  <course>348.95</course>
  <speed>0.022360679774997897</speed>
  <fix>3d</fix>
</trkpt>
<trkpt lat="40.0728133" lon="-105.2306146">
  <ele>1596.54</ele>
  <time>2026-08-28T19:12:26Z</time>
  <course>354.25</course>
  <speed>0.0</speed>
  <fix>3d</fix>
</trkpt>
<trkpt lat="40.0728134" lon="-105.2306147">
  <ele>1596.63</ele>
  <time>2026-08-28T19:12:26Z</time>
  <course>348.94</course>
  <speed>0.022360679774997897</speed>
  <fix>3d</fix>
</trkpt>
<trkpt lat="40.0728133" lon="-105.2306146">
  <ele>1596.54</ele>
  <time>2026-08-28T19:12:26Z</time>
  <course>19.25</course>
  <speed>0.0</speed>
  <fix>3d</fix>
</trkpt>
<trkpt lat="40.0728134" lon="-105.2306147">
  <ele>1596.64</ele>
  <time>2026-08-28T19:12:26Z</time>
  <course>348.93</course>
  <speed>0.01414213562373095</speed>
  <fix>3d</fix>
</trkpt>
<trkpt lat="40.0728133" lon="-105.2306146">
  <ele>1596.55</ele>
  <time>2026-08-28T19:12:26Z</time>
  <course>33.81</course>
  <speed>0.0</speed>
  <fix>3d</fix>
</trkpt>
<trkpt lat="40.0728134" lon="-105.2306147">
  <ele>1596.64</ele>
  <time>2026-08-28T19:12:26Z</time>
  <course>348.92</course>
  <speed>0.01414213562373095</speed>
  <fix>3d</fix>
</trkpt>
<trkpt lat="40.0728133" lon="-105.2306146">
  <ele>1596.55</ele>
  <time>2026-08-28T19:12:26Z</time>
  <course>43.84</course>
  <speed>0.0</speed>
  <fix>3d</fix>
</trkpt>
<trkpt lat="40.0728134" lon="-105.2306147">
  <ele>1596.65</ele>
  <time>2026-08-28T19:12:26Z</time>
  <course>348.92</course>
  <speed>0.01414213562373095</speed>
  <fix>3d</fix>
</trkpt>
<trkpt lat="40.0728133" lon="-105.2306146">
  <ele>1596.55</ele>
  <time>2026-08-28T19:12:26Z</time>
  <course>52.0</course>
  <speed>0.0</speed>
  <fix>3d</fix>
</trkpt>
<trkpt lat="40.0728134" lon="-105.2306147">
  <ele>1596.65</ele>
  <time>2026-08-28T19:12:26Z</time>
  <course>348.93</course>
  <speed>0.01414213562373095</speed>
  <fix>3d</fix>
</trkpt>
<trkpt lat="40.0728133" lon="-105.2306146">
  <ele>1596.56</ele>
  <time>2026-08-28T19:12:26Z</time>
  <course>59.54</course>
  <speed>0.0</speed>
  <fix>3d</fix>
</trkpt>
<trkpt lat="40.0728134" lon="-105.2306147">
  <ele>1596.65</ele>
  <time>2026-08-28T19:12:26Z</time>
  <course>348.93</course>
  <speed>0.01414213562373095</speed>
  <fix>3d</fix>
</trkpt>
<trkpt lat="40.0728133" lon="-105.2306146">
  <ele>1596.56</ele>
  <time>2026-08-28T19:12:26Z</time>
  <course>65.97</course>
  <speed>0.0</speed>
  <fix>3d</fix>
</trkpt>
<trkpt lat="40.0728134" lon="-105.2306147">
  <ele>1596.65</ele>
  <time>2026-08-28T19:12:26Z</time>
  <course>348.93</course>
  <speed>0.01414213562373095</speed>
  <fix>3d</fix>
</trkpt>
<trkpt lat="40.0728133" lon="-105.2306146">
  <ele>1596.56</ele>
  <time>2026-08-28T19:12:26Z</time>
  <course>70.86</course>
  <speed>0.0</speed>
  <fix>3d</fix>
</trkpt>
<trkpt lat="40.0728134" lon="-105.2306147">
  <ele>1596.65</ele>
  <time>2026-08-28T19:12:26Z</time>
  <course>348.93</course>
  <speed>0.01414213562373095</speed>
  <fix>3d</fix>
</trkpt>
<trkpt lat="40.0728133" lon="-105.2306146">
  <ele>1596.56</ele>
  <time>2026-08-28T19:12:26Z</time>
  <course>74.71</course>
  <speed>0.0</speed>
  <fix>3d</fix>
</trkpt>
<trkpt lat="40.0728134" lon="-105.2306147">
  <ele>1596.65</ele>
  <time>2026-08-28T19:12:26Z</time>
  <course>348.93</course>
  <speed>0.01414213562373095</speed>
  <fix>3d</fix>
</trkpt>
<trkpt lat="40.0728133" lon="-105.2306146">
  <ele>1596.56</ele>
  <time>2026-08-28T19:12:26Z</time>
  <course>78.49</course>
  <speed>0.0</speed>
  <fix>3d</fix>
</trkpt>
<trkpt lat="40.0728134" lon="-105.2306147">
  <ele>1596.65</ele>
  <time>2026-08-28T19:12:26Z</time>
  <course>348.93</course>
  <speed>0.01414213562373095</speed>
  <fix>3d</fix>
</trkpt>
<trkpt lat="40.0728133" lon="-105.2306146">
  <ele>1596.56</ele>
  <time>2026-08-28T19:12:26Z</time>
  <course>82.19</course>
  <speed>0.0</speed>
  <fix>3d</fix>
</trkpt>
<trkpt lat="40.0728134" lon="-105.2306147">
  <ele>1596.65</ele>
  <time>2026-08-28T19:12:26Z</time>
  <course>348.94</course>
  <speed>0.01414213562373095</speed>
  <fix>3d</fix>
</trkpt>
<trkpt lat="40.0728133" lon="-105.2306145">
  <ele>1596.56</ele>
  <time>2026-08-28T19:12:26Z</time>
  <course>82.77</course>
  <speed>0.0</speed>
  <fix>3d</fix>
</trkpt>
<trkpt lat="40.0728134" lon="-105.2306147">
  <ele>1596.65</ele>
  <time>2026-08-28T19:12:26Z</time>
  <course>348.95</course>
  <speed>0.01414213562373095</speed>
  <fix>3d</fix>
</trkpt>
<trkpt lat="40.0728133" lon="-105.2306145">
  <ele>1596.56</ele>
  <time>2026-08-28T19:12:26Z</time>
  <course>79.39</course>
  <speed>0.0</speed>
  <fix>3d</fix>
</trkpt>
<trkpt lat="40.0728134" lon="-105.2306147">
  <ele>1596.65</ele>
  <time>2026-08-28T19:12:26Z</time>
  <course>348.96</course>
  <speed>0.01414213562373095</speed>
  <fix>3d</fix>
</trkpt>
<trkpt lat="40.0728133" lon="-105.2306145">
  <ele>1596.56</ele>
  <time>2026-08-28T19:12:26Z</time>
  <course>74.2</course>
  <speed>0.0</speed>
  <fix>3d</fix>
</trkpt>
<trkpt lat="40.0728134" lon="-105.2306147">
  <ele>1596.65</ele>
  <time>2026-08-28T19:12:26Z</time>
  <course>348.97</course>
  <speed>0.01414213562373095</speed>
  <fix>3d</fix>
</trkpt>
<trkpt lat="40.0728133" lon="-105.2306145">
  <ele>1596.56</ele>
  <time>2026-08-28T19:12:26Z</time>
  <course>70.05</course>
  <speed>0.0</speed>
  <fix>3d</fix>
</trkpt>
<trkpt lat="40.0728134" lon="-105.2306147">
  <ele>1596.65</ele>
  <time>2026-08-28T19:12:26Z</time>
  <course>348.97</course>
  <speed>0.01414213562373095</speed>
  <fix>3d</fix>
</trkpt>
<trkpt lat="40.0728133" lon="-105.2306145">
  <ele>1596.56</ele>
  <time>2026-08-28T19:12:26Z</time>
  <course>65.59</course>
  <speed>0.0</speed>
  <fix>3d</fix>
</trkpt>
<trkpt lat="40.0728134" lon="-105.2306147">
  <ele>1596.65</ele>
  <time>2026-08-28T19:12:26Z</time>
  <course>348.96</course>
  <speed>0.01414213562373095</speed>
  <fix>3d</fix>
</trkpt>
<trkpt lat="40.0728133" lon="-105.2306145">
  <ele>1596.56</ele>
  <time>2026-08-28T19:12:26Z</time>
  <course>59.25</course>
  <speed>0.0</speed>
  <fix>3d</fix>
</trkpt>
<trkpt lat="40.0728134" lon="-105.2306147">
  <ele>1596.65</ele>
  <time>2026-08-28T19:12:26Z</time>
  <course>348.96</course>
  <speed>0.022360679774997897</speed>
  <fix>3d</fix>
</trkpt>
<trkpt lat="40.0728133" lon="-105.2306144">
  <ele>1596.56</ele>
  <time>2026-08-28T19:12:26Z</time>
  <course>52.44</course>
  <speed>0.0</speed>
  <fix>3d</fix>
</trkpt>
<trkpt lat="40.0728134" lon="-105.2306147">
  <ele>1596.64</ele>
  <time>2026-08-28T19:12:26Z</time>
  <course>348.95</course>
  <speed>0.022360679774997897</speed>
  <fix>3d</fix>
</trkpt>
<trkpt lat="40.0728133" lon="-105.2306143">
  <ele>1596.56</ele>
  <time>2026-08-28T19:12:26Z</time>
  <course>45.49</course>
  <speed>0.0</speed>
  <fix>3d</fix>
</trkpt>
<trkpt lat="40.0728134" lon="-105.2306147">
  <ele>1596.64</ele>
  <time>2026-08-28T19:12:26Z</time>
  <course>348.95</course>
  <speed>0.022360679774997897</speed>
  <fix>3d</fix>
</trkpt>
<trkpt lat="40.0728133" lon="-105.2306143">
  <ele>1596.57</ele>
  <time>2026-08-28T19:12:26Z</time>
  <course>37.96</course>
  <speed>0.0</speed>
  <fix>3d</fix>
</trkpt>
<trkpt lat="40.0728134" lon="-105.2306147">
  <ele>1596.64</ele>
  <time>2026-08-28T19:12:26Z</time>
  <course>348.94</course>
  <speed>0.022360679774997897</speed>
  <fix>3d</fix>
</trkpt>
<trkpt lat="40.0728133" lon="-105.2306143">
  <ele>1596.57</ele>
  <time>2026-08-28T19:12:26Z</time>
  <course>29.75</course>
  <speed>0.0</speed>
  <fix>3d</fix>
</trkpt>
<trkpt lat="40.0728134" lon="-105.2306147">
  <ele>1596.63</ele>
  <time>2026-08-28T19:12:26Z</time>
  <course>348.93</course>
  <speed>0.022360679774997897</speed>
  <fix>3d</fix>
</trkpt>
<trkpt lat="40.0728133" lon="-105.2306143">
  <ele>1596.57</ele>
  <time>2026-08-28T19:12:26Z</time>
  <course>16.42</course>
  <speed>0.0</speed>
  <fix>3d</fix>
</trkpt>
<trkpt lat="40.0728134" lon="-105.2306146">
  <ele>1596.63</ele>
  <time>2026-08-28T19:12:26Z</time>
  <course>348.91</course>
  <speed>0.022360679774997897</speed>
  <fix>3d</fix>
</trkpt>
<trkpt lat="40.0728133" lon="-105.2306143">
  <ele>1596.57</ele>
  <time>2026-08-28T19:12:26Z</time>
  <course>341.68</course>
  <speed>0.0</speed>
  <fix>3d</fix>
</trkpt>
<trkpt lat="40.0728134" lon="-105.2306146">
  <ele>1596.64</ele>
  <time>2026-08-28T19:12:26Z</time>
  <course>348.88</course>
  <speed>0.022360679774997897</speed>
  <fix>3d</fix>
</trkpt>
<trkpt lat="40.0728133" lon="-105.2306143">
  <ele>1596.57</ele>
  <time>2026-08-28T19:12:26Z</time>
  <course>297.04</course>
  <speed>0.0</speed>
  <fix>3d</fix>
</trkpt>
<trkpt lat="40.0728134" lon="-105.2306146">
  <ele>1596.64</ele>
  <time>2026-08-28T19:12:26Z</time>
  <course>348.87</course>
  <speed>0.022360679774997897</speed>
  <fix>3d</fix>
</trkpt>
<trkpt lat="40.0728133" lon="-105.2306143">
  <ele>1596.58</ele>
  <time>2026-08-28T19:12:26Z</time>
  <course>278.89</course>
  <speed>0.0</speed>
  <fix>3d</fix>
</trkpt>
<trkpt lat="40.0728134" lon="-105.2306146">
  <ele>1596.65</ele>
  <time>2026-08-28T19:12:26Z</time>
  <course>348.87</course>
  <speed>0.022360679774997897</speed>
  <fix>3d</fix>
</trkpt>
<trkpt lat="40.0728133" lon="-105.2306143">
  <ele>1596.58</ele>
  <time>2026-08-28T19:12:26Z</time>
  <course>272.81</course>
  <speed>0.0</speed>
  <fix>3d</fix>
</trkpt>
<trkpt lat="40.0728134" lon="-105.2306146">
  <ele>1596.65</ele>
  <time>2026-08-28T19:12:26Z</time>
  <course>348.89</course>
  <speed>0.022360679774997897</speed>
  <fix>3d</fix>
</trkpt>
<trkpt lat="40.0728133" lon="-105.2306143">
  <ele>1596.58</ele>
  <time>2026-08-28T19:12:26Z</time>
  <course>271.15</course>
  <speed>0.0</speed>
  <fix>3d</fix>
</trkpt>
<trkpt lat="40.0728134" lon="-105.2306146">
  <ele>1596.65</ele>
  <time>2026-08-28T19:12:26Z</time>
  <course>348.91</course>
  <speed>0.022360679774997897</speed>
  <fix>3d</fix>
</trkpt>
<trkpt lat="40.0728133" lon="-105.2306143">
  <ele>1596.59</ele>
  <time>2026-08-28T19:12:26Z</time>
  <course>271.04</course>
  <speed>0.0</speed>
  <fix>3d</fix>
</trkpt>
<trkpt lat="40.0728134" lon="-105.2306146">
  <ele>1596.65</ele>
  <time>2026-08-28T19:12:26Z</time>
  <course>348.92</course>
  <speed>0.022360679774997897</speed>
  <fix>3d</fix>
</trkpt>
<trkpt lat="40.0728133" lon="-105.2306143">
  <ele>1596.59</ele>
  <time>2026-08-28T19:12:26Z</time>
  <course>271.14</course>
  <speed>0.0</speed>
  <fix>3d</fix>
</trkpt>
<trkpt lat="40.0728134" lon="-105.2306146">
  <ele>1596.66</ele>
  <time>2026-08-28T19:12:26Z</time>
  <course>348.93</course>
  <speed>0.022360679774997897</speed>
  <fix>3d</fix>
</trkpt>
<trkpt lat="40.0728133" lon="-105.2306143">
  <ele>1596.59</ele>
  <time>2026-08-28T19:12:26Z</time>
  <course>271.57</course>
  <speed>0.0</speed>
  <fix>3d</fix>
</trkpt>
<trkpt lat="40.0728134" lon="-105.2306146">
  <ele>1596.66</ele>
  <time>2026-08-28T19:12:26Z</time>
  <course>348.93</course>
  <speed>0.022360679774997897</speed>
  <fix>3d</fix>
</trkpt>
<trkpt lat="40.0728133" lon="-105.2306143">
  <ele>1596.59</ele>
  <time>2026-08-28T19:12:26Z</time>
  <course>272.18</course>
  <speed>0.0</speed>
  <fix>3d</fix>
</trkpt>
<trkpt lat="40.0728134" lon="-105.2306146">
  <ele>1596.67</ele>
  <time>2026-08-28T19:12:26Z</time>
  <course>348.95</course>
  <speed>0.022360679774997897</speed>
  <fix>3d</fix>
</trkpt>
<trkpt lat="40.0728133" lon="-105.2306143">
  <ele>1596.59</ele>
  <time>2026-08-28T19:12:26Z</time>
  <course>273.65</course>
  <speed>0.0</speed>
  <fix>3d</fix>
</trkpt>
<trkpt lat="40.0728134" lon="-105.2306146">
  <ele>1596.67</ele>
  <time>2026-08-28T19:12:26Z</time>
  <course>348.98</course>
  <speed>0.022360679774997897</speed>
  <fix>3d</fix>
</trkpt>
<trkpt lat="40.0728133" lon="-105.2306144">
  <ele>1596.59</ele>
  <time>2026-08-28T19:12:26Z</time>
  <course>277.99</course>
  <speed>0.0</speed>
  <fix>3d</fix>
</trkpt>
<trkpt lat="40.0728134" lon="-105.2306146">
  <ele>1596.67</ele>
  <time>2026-08-28T19:12:26Z</time>
  <course>349.01</course>
  <speed>0.022360679774997897</speed>
  <fix>3d</fix>
</trkpt>
<trkpt lat="40.0728133" lon="-105.2306145">
  <ele>1596.59</ele>
  <time>2026-08-28T19:12:26Z</time>
  <course>284.54</course>
  <speed>0.0</speed>
  <fix>3d</fix>
</trkpt>
<trkpt lat="40.0728134" lon="-105.2306146">
  <ele>1596.66</ele>
  <time>2026-08-28T19:12:26Z</time>
  <course>349.02</course>
  <speed>0.022360679774997897</speed>
  <fix>3d</fix>
</trkpt>
<trkpt lat="40.0728133" lon="-105.2306145">
  <ele>1596.59</ele>
  <time>2026-08-28T19:12:26Z</time>
  <course>290.27</course>
  <speed>0.0</speed>
  <fix>3d</fix>
</trkpt>
<trkpt lat="40.0728134" lon="-105.2306146">
  <ele>1596.66</ele>
  <time>2026-08-28T19:12:26Z</time>
  <course>349.03</course>
  <speed>0.022360679774997897</speed>
  <fix>3d</fix>
</trkpt>
<trkpt lat="40.0728133" lon="-105.2306145">
  <ele>1596.59</ele>
  <time>2026-08-28T19:12:26Z</time>
  <course>294.58</course>
  <speed>0.0</speed>
  <fix>3d</fix>
</trkpt>
<trkpt lat="40.0728134" lon="-105.2306146">
  <ele>1596.66</ele>
  <time>2026-08-28T19:12:26Z</time>
  <course>349.03</course>
  <speed>0.022360679774997897</speed>
  <fix>3d</fix>
</trkpt>
<trkpt lat="40.0728133" lon="-105.2306145">
  <ele>1596.58</ele>
  <time>2026-08-28T19:12:26Z</time>
  <course>299.71</course>
  <speed>0.0</speed>
  <fix>3d</fix>
</trkpt>
<trkpt lat="40.0728134" lon="-105.2306147">
  <ele>1596.66</ele>
  <time>2026-08-28T19:12:26Z</time>
  <course>349.02</course>
  <speed>0.022360679774997897</speed>
  <fix>3d</fix>
</trkpt>
<trkpt lat="40.0728133" lon="-105.2306145">
  <ele>1596.58</ele>
  <time>2026-08-28T19:12:26Z</time>
  <course>305.96</course>
  <speed>0.0</speed>
  <fix>3d</fix>
</trkpt>
<trkpt lat="40.0728134" lon="-105.2306147">
  <ele>1596.66</ele>
  <time>2026-08-28T19:12:26Z</time>
  <course>349.02</course>
  <speed>0.022360679774997897</speed>
  <fix>3d</fix>
</trkpt>
<trkpt lat="40.0728133" lon="-105.2306145">
  <ele>1596.58</ele>
  <time>2026-08-28T19:12:26Z</time>
  <course>314.11</course>
  <speed>0.0</speed>
  <fix>3d</fix>
</trkpt>
<trkpt lat="40.0728134" lon="-105.2306147">
  <ele>1596.67</ele>
  <time>2026-08-28T19:12:26Z</time>
  <course>349.02</course>
  <speed>0.022360679774997897</speed>
  <fix>3d</fix>
</trkpt>
<trkpt lat="40.0728133" lon="-105.2306145">
  <ele>1596.58</ele>
  <time>2026-08-28T19:12:26Z</time>
  <course>324.74</course>
  <speed>0.0</speed>
  <fix>3d</fix>
</trkpt>
<trkpt lat="40.0728134" lon="-105.2306147">
  <ele>1596.66</ele>
  <time>2026-08-28T19:12:26Z</time>
  <course>349.04</course>
  <speed>0.022360679774997897</speed>
  <fix>3d</fix>
</trkpt>
<trkpt lat="40.0728133" lon="-105.2306146">
  <ele>1596.58</ele>
  <time>2026-08-28T19:12:26Z</time>
  <course>336.0</course>
  <speed>0.0</speed>
  <fix>3d</fix>
</trkpt>
<trkpt lat="40.0728134" lon="-105.2306147">
  <ele>1596.66</ele>
  <time>2026-08-28T19:12:26Z</time>
  <course>349.04</course>
  <speed>0.022360679774997897</speed>
  <fix>3d</fix>
</trkpt>
<trkpt lat="40.0728133" lon="-105.2306146">
  <ele>1596.57</ele>
  <time>2026-08-28T19:12:26Z</time>
  <course>350.97</course>
  <speed>0.0</speed>
  <fix>3d</fix>
</trkpt>
<trkpt lat="40.0728134" lon="-105.2306147">
  <ele>1596.67</ele>
  <time>2026-08-28T19:12:26Z</time>
  <course>349.04</course>
  <speed>0.022360679774997897</speed>
  <fix>3d</fix>
</trkpt>
<trkpt lat="40.0728133" lon="-105.2306146">
  <ele>1596.57</ele>
  <time>2026-08-28T19:12:26Z</time>
  <course>6.05</course>
  <speed>0.0</speed>
  <fix>3d</fix>
</trkpt>
<trkpt lat="40.0728134" lon="-105.2306147">
  <ele>1596.67</ele>
  <time>2026-08-28T19:12:26Z</time>
  <course>349.05</course>
  <speed>0.022360679774997897</speed>
  <fix>3d</fix>
</trkpt>
<trkpt lat="40.0728134" lon="-105.2306146">
  <ele>1596.57</ele>
  <time>2026-08-28T19:12:26Z</time>
  <course>17.1</course>
  <speed>0.0</speed>
  <fix>3d</fix>
</trkpt>
<trkpt lat="40.0728134" lon="-105.2306147">
  <ele>1596.66</ele>
  <time>2026-08-28T19:12:26Z</time>
  <course>349.06</course>
  <speed>0.01414213562373095</speed>
  <fix>3d</fix>
</trkpt>
<trkpt lat="40.0728134" lon="-105.2306146">
  <ele>1596.56</ele>
  <time>2026-08-28T19:12:26Z</time>
  <course>29.65</course>
  <speed>0.0</speed>
  <fix>3d</fix>
</trkpt>
<trkpt lat="40.0728134" lon="-105.2306147">
  <ele>1596.66</ele>
  <time>2026-08-28T19:12:26Z</time>
  <course>349.05</course>
  <speed>0.01414213562373095</speed>
  <fix>3d</fix>
</trkpt>
<trkpt lat="40.0728134" lon="-105.2306146">
  <ele>1596.56</ele>
  <time>2026-08-28T19:12:26Z</time>
  <course>46.34</course>
  <speed>0.0</speed>
  <fix>3d</fix>
</trkpt>
<trkpt lat="40.0728134" lon="-105.2306147">
  <ele>1596.66</ele>
  <time>2026-08-28T19:12:26Z</time>
  <course>349.04</course>
  <speed>0.01414213562373095</speed>
  <fix>3d</fix>
</trkpt>
<trkpt lat="40.0728134" lon="-105.2306146">
  <ele>1596.56</ele>
  <time>2026-08-28T19:12:26Z</time>
  <course>60.33</course>
  <speed>0.0</speed>
  <fix>3d</fix>
</trkpt>
<trkpt lat="40.0728134" lon="-105.2306147">
  <ele>1596.66</ele>
  <time>2026-08-28T19:12:26Z</time>
  <course>349.02</course>
  <speed>0.01414213562373095</speed>
  <fix>3d</fix>
</trkpt>
<trkpt lat="40.0728134" lon="-105.2306146">
  <ele>1596.56</ele>
  <time>2026-08-28T19:12:26Z</time>
  <course>72.55</course>
  <speed>0.0</speed>
  <fix>3d</fix>
</trkpt>
<trkpt lat="40.0728134" lon="-105.2306147">
  <ele>1596.66</ele>
  <time>2026-08-28T19:12:26Z</time>
  <course>349.01</course>
  <speed>0.01414213562373095</speed>
  <fix>3d</fix>
</trkpt>
<trkpt lat="40.0728134" lon="-105.2306146">
  <ele>1596.55</ele>
  <time>2026-08-28T19:12:26Z</time>
  <course>83.01</course>
  <speed>0.0</speed>
  <fix>3d</fix>
</trkpt>
<trkpt lat="40.0728134" lon="-105.2306147">
  <ele>1596.65</ele>
  <time>2026-08-28T19:12:26Z</time>
  <course>349.0</course>
  <speed>0.01414213562373095</speed>
  <fix>3d</fix>
</trkpt>
<trkpt lat="40.0728134" lon="-105.2306146">
  <ele>1596.55</ele>
  <time>2026-08-28T19:12:26Z</time>
  <course>91.48</course>
  <speed>0.0</speed>
  <fix>3d</fix>
</trkpt>
<trkpt lat="40.0728134" lon="-105.2306147">
  <ele>1596.65</ele>
  <time>2026-08-28T19:12:26Z</time>
  <course>348.99</course>
  <speed>0.01414213562373095</speed>
  <fix>3d</fix>
</trkpt>
<trkpt lat="40.0728134" lon="-105.2306146">
  <ele>1596.55</ele>
  <time>2026-08-28T19:12:26Z</time>
  <course>101.4</course>
  <speed>0.0</speed>
  <fix>3d</fix>
</trkpt>
<trkpt lat="40.0728134" lon="-105.2306147">
  <ele>1596.65</ele>
  <time>2026-08-28T19:12:26Z</time>
  <course>348.99</course>
  <speed>0.01</speed>
  <fix>3d</fix>
</trkpt>
<trkpt lat="40.0728134" lon="-105.2306146">
  <ele>1596.55</ele>
  <time>2026-08-28T19:12:26Z</time>
  <course>109.39</course>
  <speed>0.0</speed>
  <fix>3d</fix>
</trkpt>
<trkpt lat="40.0728134" lon="-105.2306147">
  <ele>1596.64</ele>
  <time>2026-08-28T19:12:26Z</time>
  <course>348.98</course>
  <speed>0.01</speed>
  <fix>3d</fix>
</trkpt>
<trkpt lat="40.0728134" lon="-105.2306145">
  <ele>1596.55</ele>
  <time>2026-08-28T19:12:26Z</time>
  <course>114.52</course>
  <speed>0.0</speed>
  <fix>3d</fix>
</trkpt>
<trkpt lat="40.0728134" lon="-105.2306147">
  <ele>1596.64</ele>
  <time>2026-08-28T19:12:26Z</time>
  <course>348.98</course>
  <speed>0.01</speed>
  <fix>3d</fix>
</trkpt>
<trkpt lat="40.0728134" lon="-105.2306145">
  <ele>1596.55</ele>
  <time>2026-08-28T19:12:26Z</time>
  <course>119.03</course>
  <speed>0.0</speed>
  <fix>3d</fix>
</trkpt>
<trkpt lat="40.0728134" lon="-105.2306147">
  <ele>1596.63</ele>
  <time>2026-08-28T19:12:26Z</time>
  <course>348.96</course>
  <speed>0.01</speed>
  <fix>3d</fix>
</trkpt>
<trkpt lat="40.0728134" lon="-105.2306145">
  <ele>1596.55</ele>
  <time>2026-08-28T19:12:26Z</time>
  <course>121.68</course>
  <speed>0.01</speed>
  <fix>3d</fix>
</trkpt>
<trkpt lat="40.0728134" lon="-105.2306147">
  <ele>1596.63</ele>
  <time>2026-08-28T19:12:26Z</time>
  <course>348.93</course>
  <speed>0.01</speed>
  <fix>3d</fix>
</trkpt>
<trkpt lat="40.0728134" lon="-105.2306145">
  <ele>1596.55</ele>
  <time>2026-08-28T19:12:26Z</time>
  <course>123.5</course>
  <speed>0.01</speed>
  <fix>3d</fix>
</trkpt>
<trkpt lat="40.0728134" lon="-105.2306147">
  <ele>1596.64</ele>
  <time>2026-08-28T19:12:26Z</time>
  <course>348.91</course>
  <speed>0.01</speed>
  <fix>3d</fix>
</trkpt>
<trkpt lat="40.0728134" lon="-105.2306145">
  <ele>1596.55</ele>
  <time>2026-08-28T19:12:26Z</time>
  <course>126.8</course>
  <speed>0.0</speed>
  <fix>3d</fix>
</trkpt>
<trkpt lat="40.0728134" lon="-105.2306147">
  <ele>1596.64</ele>
  <time>2026-08-28T19:12:26Z</time>
  <course>348.89</course>
  <speed>0.01</speed>
  <fix>3d</fix>
</trkpt>
<trkpt lat="40.0728134" lon="-105.2306144">
  <ele>1596.55</ele>
  <time>2026-08-28T19:12:26Z</time>
  <course>132.07</course>
  <speed>0.0</speed>
  <fix>3d</fix>
</trkpt>
<trkpt lat="40.0728134" lon="-105.2306147">
  <ele>1596.64</ele>
  <time>2026-08-28T19:12:26Z</time>
  <course>348.89</course>
  <speed>0.02</speed>
  <fix>3d</fix>
</trkpt>
<trkpt lat="40.0728134" lon="-105.2306143">
  <ele>1596.56</ele>
  <time>2026-08-28T19:12:26Z</time>
  <course>139.82</course>
  <speed>0.0</speed>
  <fix>3d</fix>
</trkpt>
<trkpt lat="40.0728134" lon="-105.2306147">
  <ele>1596.64</ele>
  <time>2026-08-28T19:12:26Z</time>
  <course>348.88</course>
  <speed>0.02</speed>
  <fix>3d</fix>
</trkpt>
<trkpt lat="40.0728134" lon="-105.2306143">
  <ele>1596.56</ele>
  <time>2026-08-28T19:12:26Z</time>
  <course>146.47</course>
  <speed>0.0</speed>
  <fix>3d</fix>
</trkpt>
<trkpt lat="40.0728134" lon="-105.2306147">
  <ele>1596.64</ele>
  <time>2026-08-28T19:12:26Z</time>
  <course>348.88</course>
  <speed>0.02</speed>
  <fix>3d</fix>
</trkpt>
<trkpt lat="40.0728134" lon="-105.2306143">
  <ele>1596.56</ele>
  <time>2026-08-28T19:12:26Z</time>
  <course>151.34</course>
  <speed>0.0</speed>
  <fix>3d</fix>
</trkpt>
<trkpt lat="40.0728134" lon="-105.2306147">
  <ele>1596.64</ele>
  <time>2026-08-28T19:12:26Z</time>
  <course>348.87</course>
  <speed>0.02</speed>
  <fix>3d</fix>
</trkpt>
<trkpt lat="40.0728134" lon="-105.2306143">
  <ele>1596.57</ele>
  <time>2026-08-28T19:12:26Z</time>
  <course>161.83</course>
  <speed>0.0</speed>
  <fix>3d</fix>
</trkpt>
<trkpt lat="40.0728134" lon="-105.2306146">
  <ele>1596.64</ele>
  <time>2026-08-28T19:12:26Z</time>
  <course>348.87</course>
  <speed>0.02</speed>
  <fix>3d</fix>
</trkpt>
<trkpt lat="40.0728134" lon="-105.2306143">
  <ele>1596.57</ele>
  <time>2026-08-28T19:12:26Z</time>
  <course>177.21</course>
  <speed>0.0</speed>
  <fix>3d</fix>
</trkpt>
<trkpt lat="40.0728134" lon="-105.2306146">
  <ele>1596.64</ele>
  <time>2026-08-28T19:12:26Z</time>
  <course>348.87</course>
  <speed>0.02</speed>
  <fix>3d</fix>
</trkpt>
<trkpt lat="40.0728134" lon="-105.2306143">
  <ele>1596.57</ele>
  <time>2026-08-28T19:12:26Z</time>
  <course>189.9</course>
  <speed>0.0</speed>
  <fix>3d</fix>
</trkpt>
<trkpt lat="40.0728134" lon="-105.2306146">
  <ele>1596.64</ele>
  <time>2026-08-28T19:12:26Z</time>
  <course>348.87</course>
  <speed>0.02</speed>
  <fix>3d</fix>
</trkpt>
<trkpt lat="40.0728133" lon="-105.2306143">
  <ele>1596.57</ele>
  <time>2026-08-28T19:12:26Z</time>
  <course>199.39</course>
  <speed>0.0</speed>
  <fix>3d</fix>
</trkpt>
<trkpt lat="40.0728134" lon="-105.2306146">
  <ele>1596.65</ele>
  <time>2026-08-28T19:12:26Z</time>
  <course>348.88</course>
  <speed>0.02</speed>
  <fix>3d</fix>
</trkpt>
<trkpt lat="40.0728133" lon="-105.2306143">
  <ele>1596.58</ele>
  <time>2026-08-28T19:12:26Z</time>
  <course>207.87</course>
  <speed>0.0</speed>
  <fix>3d</fix>
</trkpt>
<trkpt lat="40.0728134" lon="-105.2306146">
  <ele>1596.65</ele>
  <time>2026-08-28T19:12:26Z</time>
  <course>348.89</course>
  <speed>0.02</speed>
  <fix>3d</fix>
</trkpt>
<trkpt lat="40.0728133" lon="-105.2306143">
  <ele>1596.58</ele>
  <time>2026-08-28T19:12:26Z</time>
  <course>218.18</course>
  <speed>0.0</speed>
  <fix>3d</fix>
</trkpt>
<trkpt lat="40.0728134" lon="-105.2306146">
  <ele>1596.65</ele>
  <time>2026-08-28T19:12:26Z</time>
  <course>348.91</course>
  <speed>0.022360679774997897</speed>
  <fix>3d</fix>
</trkpt>
<trkpt lat="40.0728133" lon="-105.2306143">
  <ele>1596.58</ele>
  <time>2026-08-28T19:12:26Z</time>
  <course>227.78</course>
  <speed>0.0</speed>
  <fix>3d</fix>
</trkpt>
<trkpt lat="40.0728134" lon="-105.2306146">
  <ele>1596.66</ele>
  <time>2026-08-28T19:12:26Z</time>
  <course>348.93</course>
  <speed>0.022360679774997897</speed>
  <fix>3d</fix>
</trkpt>
<trkpt lat="40.0728133" lon="-105.2306143">
  <ele>1596.58</ele>
  <time>2026-08-28T19:12:26Z</time>
  <course>235.82</course>
  <speed>0.0</speed>
  <fix>3d</fix>
</trkpt>
<trkpt lat="40.0728134" lon="-105.2306146">
  <ele>1596.66</ele>
  <time>2026-08-28T19:12:26Z</time>
  <course>348.94</course>
  <speed>0.022360679774997897</speed>
  <fix>3d</fix>
</trkpt>
<trkpt lat="40.0728133" lon="-105.2306143">
  <ele>1596.58</ele>
  <time>2026-08-28T19:12:26Z</time>
  <course>242.69</course>
  <speed>0.0</speed>
  <fix>3d</fix>
</trkpt>
<trkpt lat="40.0728134" lon="-105.2306146">
  <ele>1596.65</ele>
  <time>2026-08-28T19:12:26Z</time>
  <course>348.95</course>
  <speed>0.022360679774997897</speed>
  <fix>3d</fix>
</trkpt>
<trkpt lat="40.0728133" lon="-105.2306143">
  <ele>1596.58</ele>
  <time>2026-08-28T19:12:26Z</time>
  <course>249.78</course>
  <speed>0.0</speed>
  <fix>3d</fix>
</trkpt>
<trkpt lat="40.0728134" lon="-105.2306146">
  <ele>1596.65</ele>
  <time>2026-08-28T19:12:26Z</time>
  <course>348.96</course>
  <speed>0.022360679774997897</speed>
  <fix>3d</fix>
</trkpt>
<trkpt lat="40.0728133" lon="-105.2306143">
  <ele>1596.58</ele>
  <time>2026-08-28T19:12:26Z</time>
  <course>258.41</course>
  <speed>0.0</speed>
  <fix>3d</fix>
</trkpt>
<trkpt lat="40.0728134" lon="-105.2306146">
  <ele>1596.65</ele>
  <time>2026-08-28T19:12:26Z</time>
  <course>348.97</course>
  <speed>0.022360679774997897</speed>
  <fix>3d</fix>
</trkpt>
<trkpt lat="40.0728133" lon="-105.2306143">
  <ele>1596.58</ele>
  <time>2026-08-28T19:12:26Z</time>
  <course>267.95</course>
  <speed>0.0</speed>
  <fix>3d</fix>
</trkpt>
<trkpt lat="40.0728134" lon="-105.2306146">
  <ele>1596.65</ele>
  <time>2026-08-28T19:12:26Z</time>
  <course>348.97</course>
  <speed>0.022360679774997897</speed>
  <fix>3d</fix>
</trkpt>
<trkpt lat="40.0728133" lon="-105.2306144">
  <ele>1596.58</ele>
  <time>2026-08-28T19:12:26Z</time>
  <course>275.24</course>
  <speed>0.0</speed>
  <fix>3d</fix>
</trkpt>
<trkpt lat="40.0728134" lon="-105.2306146">
  <ele>1596.65</ele>
  <time>2026-08-28T19:12:26Z</time>
  <course>348.97</course>
  <speed>0.022360679774997897</speed>
  <fix>3d</fix>
</trkpt>
<trkpt lat="40.0728133" lon="-105.2306145">
  <ele>1596.58</ele>
  <time>2026-08-28T19:12:26Z</time>
  <course>280.63</course>
  <speed>0.0</speed>
  <fix>3d</fix>
</trkpt>
<trkpt lat="40.0728134" lon="-105.2306146">
  <ele>1596.65</ele>
  <time>2026-08-28T19:12:26Z</time>
  <course>348.98</course>
  <speed>0.022360679774997897</speed>
  <fix>3d</fix>
</trkpt>
<trkpt lat="40.0728133" lon="-105.2306145">
  <ele>1596.58</ele>
  <time>2026-08-28T19:12:26Z</time>
  <course>285.17</course>
  <speed>0.0</speed>
  <fix>3d</fix>
</trkpt>
<trkpt lat="40.0728134" lon="-105.2306146">
  <ele>1596.66</ele>
  <time>2026-08-28T19:12:26Z</time>
  <course>348.98</course>
  <speed>0.022360679774997897</speed>
  <fix>3d</fix>
</trkpt>
<trkpt lat="40.0728133" lon="-105.2306145">
  <ele>1596.58</ele>
  <time>2026-08-28T19:12:26Z</time>
  <course>287.59</course>
  <speed>0.0</speed>
  <fix>3d</fix>
</trkpt>
<trkpt lat="40.0728134" lon="-105.2306146">
  <ele>1596.66</ele>
  <time>2026-08-28T19:12:26Z</time>
  <course>348.99</course>
  <speed>0.022360679774997897</speed>
  <fix>3d</fix>
</trkpt>
<trkpt lat="40.0728133" lon="-105.2306145">
  <ele>1596.58</ele>
  <time>2026-08-28T19:12:26Z</time>
  <course>290.01</course>
  <speed>0.0</speed>
  <fix>3d</fix>
</trkpt>
<trkpt lat="40.0728134" lon="-105.2306147">
  <ele>1596.66</ele>
  <time>2026-08-28T19:12:26Z</time>
  <course>348.99</course>
  <speed>0.022360679774997897</speed>
  <fix>3d</fix>
</trkpt>
<trkpt lat="40.0728133" lon="-105.2306145">
  <ele>1596.58</ele>
  <time>2026-08-28T19:12:26Z</time>
  <course>294.19</course>
  <speed>0.0</speed>
  <fix>3d</fix>
</trkpt>
<trkpt lat="40.0728134" lon="-105.2306147">
  <ele>1596.66</ele>
  <time>2026-08-28T19:12:26Z</time>
  <course>349.0</course>
  <speed>0.022360679774997897</speed>
  <fix>3d</fix>
</trkpt>
<trkpt lat="40.0728133" lon="-105.2306145">
  <ele>1596.58</ele>
  <time>2026-08-28T19:12:26Z</time>
  <course>301.13</course>
  <speed>0.0</speed>
  <fix>3d</fix>
</trkpt>
<trkpt lat="40.0728134" lon="-105.2306147">
  <ele>1596.66</ele>
  <time>2026-08-28T19:12:26Z</time>
  <course>349.0</course>
  <speed>0.022360679774997897</speed>
  <fix>3d</fix>
</trkpt>
<trkpt lat="40.0728133" lon="-105.2306145">
  <ele>1596.58</ele>
  <time>2026-08-28T19:12:26Z</time>
  <course>314.34</course>
  <speed>0.0</speed>
  <fix>3d</fix>
</trkpt>
<trkpt lat="40.0728134" lon="-105.2306147">
  <ele>1596.66</ele>
  <time>2026-08-28T19:12:26Z</time>
  <course>349.0</course>
  <speed>0.022360679774997897</speed>
  <fix>3d</fix>
</trkpt>
<trkpt lat="40.0728133" lon="-105.2306145">
  <ele>1596.57</ele>
  <time>2026-08-28T19:12:26Z</time>
  <course>334.68</course>
  <speed>0.0</speed>
  <fix>3d</fix>
</trkpt>
<trkpt lat="40.0728134" lon="-105.2306147">
  <ele>1596.66</ele>
  <time>2026-08-28T19:12:26Z</time>
  <course>349.0</course>
  <speed>0.022360679774997897</speed>
  <fix>3d</fix>
</trkpt>
<trkpt lat="40.0728133" lon="-105.2306146">
  <ele>1596.57</ele>
  <time>2026-08-28T19:12:26Z</time>
  <course>357.29</course>
  <speed>0.0</speed>
  <fix>3d</fix>
</trkpt>
<trkpt lat="40.0728134" lon="-105.2306147">
  <ele>1596.65</ele>
  <time>2026-08-28T19:12:26Z</time>
  <course>349.0</course>
  <speed>0.022360679774997897</speed>
  <fix>3d</fix>
</trkpt>
<trkpt lat="40.0728133" lon="-105.2306146">
  <ele>1596.57</ele>
  <time>2026-08-28T19:12:26Z</time>
  <course>13.19</course>
  <speed>0.0</speed>
  <fix>3d</fix>
</trkpt>
<trkpt lat="40.0728134" lon="-105.2306147">
  <ele>1596.65</ele>
  <time>2026-08-28T19:12:26Z</time>
  <course>348.99</course>
  <speed>0.022360679774997897</speed>
  <fix>3d</fix>
</trkpt>
<trkpt lat="40.0728133" lon="-105.2306146">
  <ele>1596.57</ele>
  <time>2026-08-28T19:12:26Z</time>
  <course>26.67</course>
  <speed>0.0</speed>
  <fix>3d</fix>
</trkpt>
<trkpt lat="40.0728134" lon="-105.2306147">
  <ele>1596.65</ele>
  <time>2026-08-28T19:12:26Z</time>
  <course>348.97</course>
  <speed>0.022360679774997897</speed>
  <fix>3d</fix>
</trkpt>
<trkpt lat="40.0728133" lon="-105.2306146">
  <ele>1596.57</ele>
  <time>2026-08-28T19:12:26Z</time>
  <course>41.57</course>
  <speed>0.0</speed>
  <fix>3d</fix>
</trkpt>
<trkpt lat="40.0728134" lon="-105.2306147">
  <ele>1596.65</ele>
  <time>2026-08-28T19:12:26Z</time>
  <course>348.95</course>
  <speed>0.01414213562373095</speed>
  <fix>3d</fix>
</trkpt>
<trkpt lat="40.0728133" lon="-105.2306146">
  <ele>1596.57</ele>
  <time>2026-08-28T19:12:26Z</time>
  <course>52.97</course>
  <speed>0.0</speed>
  <fix>3d</fix>
</trkpt>
<trkpt lat="40.0728134" lon="-105.2306147">
  <ele>1596.65</ele>
  <time>2026-08-28T19:12:26Z</time>
  <course>348.94</course>
  <speed>0.01414213562373095</speed>
  <fix>3d</fix>
</trkpt>
<trkpt lat="40.0728133" lon="-105.2306146">
  <ele>1596.57</ele>
  <time>2026-08-28T19:12:26Z</time>
  <course>61.0</course>
  <speed>0.0</speed>
  <fix>3d</fix>
</trkpt>
<trkpt lat="40.0728134" lon="-105.2306147">
  <ele>1596.65</ele>
  <time>2026-08-28T19:12:26Z</time>
  <course>348.93</course>
  <speed>0.01414213562373095</speed>
  <fix>3d</fix>
</trkpt>
<trkpt lat="40.0728133" lon="-105.2306146">
  <ele>1596.57</ele>
  <time>2026-08-28T19:12:26Z</time>
  <course>66.85</course>
  <speed>0.0</speed>
  <fix>3d</fix>
</trkpt>
<trkpt lat="40.0728134" lon="-105.2306147">
  <ele>1596.66</ele>
  <time>2026-08-28T19:12:26Z</time>
  <course>348.94</course>
  <speed>0.01414213562373095</speed>
  <fix>3d</fix>
</trkpt>
<trkpt lat="40.0728133" lon="-105.2306146">
  <ele>1596.57</ele>
  <time>2026-08-28T19:12:26Z</time>
  <course>69.32</course>
  <speed>0.0</speed>
  <fix>3d</fix>
</trkpt>
<trkpt lat="40.0728134" lon="-105.2306147">
  <ele>1596.66</ele>
  <time>2026-08-28T19:12:26Z</time>
  <course>348.95</course>
  <speed>0.01414213562373095</speed>
  <fix>3d</fix>
</trkpt>
<trkpt lat="40.0728133" lon="-105.2306146">
  <ele>1596.56</ele>
  <time>2026-08-28T19:12:26Z</time>
  <course>68.53</course>
  <speed>0.0</speed>
  <fix>3d</fix>
</trkpt>
<trkpt lat="40.0728134" lon="-105.2306147">
  <ele>1596.66</ele>
  <time>2026-08-28T19:12:26Z</time>
  <course>348.97</course>
  <speed>0.01414213562373095</speed>
  <fix>3d</fix>
</trkpt>
<trkpt lat="40.0728133" lon="-105.2306146">
  <ele>1596.56</ele>
  <time>2026-08-28T19:12:26Z</time>
  <course>67.34</course>
  <speed>0.0</speed>
  <fix>3d</fix>
</trkpt>
<trkpt lat="40.0728134" lon="-105.2306147">
  <ele>1596.66</ele>
  <time>2026-08-28T19:12:26Z</time>
  <course>348.98</course>
  <speed>0.01414213562373095</speed>
  <fix>3d</fix>
</trkpt>
<trkpt lat="40.0728133" lon="-105.2306146">
  <ele>1596.56</ele>
  <time>2026-08-28T19:12:26Z</time>
  <course>67.24</course>
  <speed>0.0</speed>
  <fix>3d</fix>
</trkpt>
<trkpt lat="40.0728134" lon="-105.2306147">
  <ele>1596.66</ele>
  <time>2026-08-28T19:12:26Z</time>
  <course>348.99</course>
  <speed>0.01414213562373095</speed>
  <fix>3d</fix>
</trkpt>
<trkpt lat="40.0728133" lon="-105.2306145">
  <ele>1596.56</ele>
  <time>2026-08-28T19:12:26Z</time>
  <course>67.7</course>
  <speed>0.0</speed>
  <fix>3d</fix>
</trkpt>
<trkpt lat="40.0728134" lon="-105.2306147">
  <ele>1596.66</ele>
  <time>2026-08-28T19:12:26Z</time>
  <course>348.99</course>
  <speed>0.01414213562373095</speed>
  <fix>3d</fix>
</trkpt>
<trkpt lat="40.0728133" lon="-105.2306145">
  <ele>1596.56</ele>
  <time>2026-08-28T19:12:26Z</time>
  <course>68.02</course>
  <speed>0.0</speed>
  <fix>3d</fix>
</trkpt>
<trkpt lat="40.0728134" lon="-105.2306147">
  <ele>1596.66</ele>
  <time>2026-08-28T19:12:26Z</time>
  <course>349.0</course>
  <speed>0.01414213562373095</speed>
  <fix>3d</fix>
</trkpt>
<trkpt lat="40.0728133" lon="-105.2306145">
  <ele>1596.55</ele>
  <time>2026-08-28T19:12:26Z</time>
  <course>67.37</course>
  <speed>0.0</speed>
  <fix>3d</fix>
</trkpt>
<trkpt lat="40.0728134" lon="-105.2306147">
  <ele>1596.66</ele>
  <time>2026-08-28T19:12:26Z</time>
  <course>349.0</course>
  <speed>0.01414213562373095</speed>
  <fix>3d</fix>
</trkpt>
<trkpt lat="40.0728133" lon="-105.2306145">
  <ele>1596.55</ele>
  <time>2026-08-28T19:12:26Z</time>
  <course>66.25</course>
  <speed>0.0</speed>
  <fix>3d</fix>
</trkpt>
<trkpt lat="40.0728134" lon="-105.2306147">
  <ele>1596.66</ele>
  <time>2026-08-28T19:12:26Z</time>
  <course>349.01</course>
  <speed>0.01414213562373095</speed>
  <fix>3d</fix>
</trkpt>
<trkpt lat="40.0728133" lon="-105.2306145">
  <ele>1596.55</ele>
  <time>2026-08-28T19:12:26Z</time>
  <course>65.74</course>
  <speed>0.0</speed>
  <fix>3d</fix>
</trkpt>
<trkpt lat="40.0728134" lon="-105.2306147">
  <ele>1596.65</ele>
  <time>2026-08-28T19:12:26Z</time>
  <course>348.99</course>
  <speed>0.01414213562373095</speed>
  <fix>3d</fix>
</trkpt>
<trkpt lat="40.0728133" lon="-105.2306145">
  <ele>1596.54</ele>
  <time>2026-08-28T19:12:26Z</time>
  <course>65.61</course>
  <speed>0.0</speed>
  <fix>3d</fix>
</trkpt>
<trkpt lat="40.0728134" lon="-105.2306147">
  <ele>1596.64</ele>
  <time>2026-08-28T19:12:26Z</time>
  <course>348.97</course>
  <speed>0.01414213562373095</speed>
  <fix>3d</fix>
</trkpt>
<trkpt lat="40.0728133" lon="-105.2306144">
  <ele>1596.54</ele>
  <time>2026-08-28T19:12:26Z</time>
  <course>64.79</course>
  <speed>0.0</speed>
  <fix>3d</fix>
</trkpt>
<trkpt lat="40.0728134" lon="-105.2306147">
  <ele>1596.64</ele>
  <time>2026-08-28T19:12:26Z</time>
  <course>348.95</course>
  <speed>0.01414213562373095</speed>
  <fix>3d</fix>
</trkpt>
<trkpt lat="40.0728133" lon="-105.2306143">
  <ele>1596.54</ele>
  <time>2026-08-28T19:12:26Z</time>
  <course>63.49</course>
  <speed>0.0</speed>
  <fix>3d</fix>
</trkpt>
<trkpt lat="40.0728134" lon="-105.2306147">
  <ele>1596.64</ele>
  <time>2026-08-28T19:12:26Z</time>
  <course>348.94</course>
  <speed>0.022360679774997897</speed>
  <fix>3d</fix>
</trkpt>
<trkpt lat="40.0728133" lon="-105.2306143">
  <ele>1596.54</ele>
  <time>2026-08-28T19:12:26Z</time>
  <course>62.36</course>
  <speed>0.0</speed>
  <fix>3d</fix>
</trkpt>
<trkpt lat="40.0728134" lon="-105.2306147">
  <ele>1596.63</ele>
  <time>2026-08-28T19:12:26Z</time>
  <course>348.91</course>
  <speed>0.022360679774997897</speed>
  <fix>3d</fix>
</trkpt>
<trkpt lat="40.0728133" lon="-105.2306143">
  <ele>1596.54</ele>
  <time>2026-08-28T19:12:26Z</time>
  <course>61.02</course>
  <speed>0.0</speed>
  <fix>3d</fix>
</trkpt>
<trkpt lat="40.0728134" lon="-105.2306146">
  <ele>1596.64</ele>
  <time>2026-08-28T19:12:26Z</time>
  <course>348.88</course>
  <speed>0.022360679774997897</speed>
  <fix>3d</fix>
</trkpt>
<trkpt lat="40.0728133" lon="-105.2306143">
  <ele>1596.54</ele>
  <time>2026-08-28T19:12:26Z</time>
  <course>57.99</course>
  <speed>0.0</speed>
  <fix>3d</fix>
</trkpt>
<trkpt lat="40.0728134" lon="-105.2306146">
  <ele>1596.64</ele>
  <time>2026-08-28T19:12:26Z</time>
  <course>348.86</course>
  <speed>0.022360679774997897</speed>
  <fix>3d</fix>
</trkpt>
<trkpt lat="40.0728133" lon="-105.2306143">
  <ele>1596.54</ele>
  <time>2026-08-28T19:12:26Z</time>
  <course>48.83</course>
  <speed>0.0</speed>
  <fix>3d</fix>
</trkpt>
<trkpt lat="40.0728134" lon="-105.2306146">
  <ele>1596.64</ele>
  <time>2026-08-28T19:12:26Z</time>
  <course>348.86</course>
  <speed>0.022360679774997897</speed>
  <fix>3d</fix>
</trkpt>
<trkpt lat="40.0728133" lon="-105.2306143">
  <ele>1596.55</ele>
  <time>2026-08-28T19:12:26Z</time>
  <course>16.04</course>
  <speed>0.0</speed>
  <fix>3d</fix>
</trkpt>
<trkpt lat="40.0728134" lon="-105.2306146">
  <ele>1596.64</ele>
  <time>2026-08-28T19:12:26Z</time>
  <course>348.87</course>
  <speed>0.022360679774997897</speed>
  <fix>3d</fix>
</trkpt>
<trkpt lat="40.0728133" lon="-105.2306143">
  <ele>1596.55</ele>
  <time>2026-08-28T19:12:26Z</time>
  <course>320.53</course>
  <speed>0.0</speed>
  <fix>3d</fix>
</trkpt>
<trkpt lat="40.0728134" lon="-105.2306146">
  <ele>1596.64</ele>
  <time>2026-08-28T19:12:26Z</time>
  <course>348.86</course>
  <speed>0.022360679774997897</speed>
  <fix>3d</fix>
</trkpt>
<trkpt lat="40.0728133" lon="-105.2306143">
  <ele>1596.55</ele>
  <time>2026-08-28T19:12:26Z</time>
  <course>298.39</course>
  <speed>0.0</speed>
  <fix>3d</fix>
</trkpt>
<trkpt lat="40.0728134" lon="-105.2306146">
  <ele>1596.64</ele>
  <time>2026-08-28T19:12:27Z</time>
  <course>348.84</course>
  <speed>0.022360679774997897</speed>
  <fix>3d</fix>
</trkpt>
<trkpt lat="40.0728133" lon="-105.2306143">
  <ele>1596.55</ele>
  <time>2026-08-28T19:12:27Z</time>
  <course>291.33</course>
  <speed>0.0</speed>
  <fix>3d</fix>
</trkpt>
<trkpt lat="40.0728134" lon="-105.2306146">
  <ele>1596.64</ele>
  <time>2026-08-28T19:12:27Z</time>
  <course>348.83</course>
  <speed>0.022360679774997897</speed>
  <fix>3d</fix>
</trkpt>
<trkpt lat="40.0728133" lon="-105.2306143">
  <ele>1596.56</ele>
  <time>2026-08-28T19:12:27Z</time>
  <course>289.56</course>
  <speed>0.0</speed>
  <fix>3d</fix>
</trkpt>
<trkpt lat="40.0728134" lon="-105.2306146">
  <ele>1596.64</ele>
  <time>2026-08-28T19:12:27Z</time>
  <course>348.83</course>
  <speed>0.022360679774997897</speed>
  <fix>3d</fix>
</trkpt>
<trkpt lat="40.0728133" lon="-105.2306143">
  <ele>1596.56</ele>
  <time>2026-08-28T19:12:27Z</time>
  <course>288.11</course>
  <speed>0.0</speed>
  <fix>3d</fix>
</trkpt>
<trkpt lat="40.0728134" lon="-105.2306146">
  <ele>1596.64</ele>
  <time>2026-08-28T19:12:27Z</time>
  <course>348.83</course>
  <speed>0.022360679774997897</speed>
  <fix>3d</fix>
</trkpt>
<trkpt lat="40.0728133" lon="-105.2306143">
  <ele>1596.56</ele>
  <time>2026-08-28T19:12:27Z</time>
  <course>284.35</course>
  <speed>0.0</speed>
  <fix>3d</fix>
</trkpt>
<trkpt lat="40.0728134" lon="-105.2306146">
  <ele>1596.65</ele>
  <time>2026-08-28T19:12:27Z</time>
  <course>348.84</course>
  <speed>0.022360679774997897</speed>
  <fix>3d</fix>
</trkpt>
<trkpt lat="40.0728133" lon="-105.2306143">
  <ele>1596.56</ele>
  <time>2026-08-28T19:12:27Z</time>
  <course>281.86</course>
  <speed>0.0</speed>
  <fix>3d</fix>
</trkpt>
<trkpt lat="40.0728134" lon="-105.2306146">
  <ele>1596.65</ele>
  <time>2026-08-28T19:12:27Z</time>
  <course>348.86</course>
  <speed>0.022360679774997897</speed>
  <fix>3d</fix>
</trkpt>
<trkpt lat="40.0728133" lon="-105.2306143">
  <ele>1596.57</ele>
  <time>2026-08-28T19:12:27Z</time>
  <course>281.4</course>
  <speed>0.0</speed>
  <fix>3d</fix>
</trkpt>
<trkpt lat="40.0728134" lon="-105.2306146">
  <ele>1596.65</ele>
  <time>2026-08-28T19:12:27Z</time>
  <course>348.87</course>
  <speed>0.022360679774997897</speed>
  <fix>3d</fix>
</trkpt>
<trkpt lat="40.0728134" lon="-105.2306143">
  <ele>1596.57</ele>
  <time>2026-08-28T19:12:27Z</time>
  <course>280.4</course>
  <speed>0.0</speed>
  <fix>3d</fix>
</trkpt>
<trkpt lat="40.0728134" lon="-105.2306146">
  <ele>1596.65</ele>
  <time>2026-08-28T19:12:27Z</time>
  <course>348.88</course>
  <speed>0.022360679774997897</speed>
  <fix>3d</fix>
</trkpt>
<trkpt lat="40.0728134" lon="-105.2306143">
  <ele>1596.57</ele>
  <time>2026-08-28T19:12:27Z</time>
  <course>279.14</course>
  <speed>0.0</speed>
  <fix>3d</fix>
</trkpt>
<trkpt lat="40.0728134" lon="-105.2306146">
  <ele>1596.65</ele>
  <time>2026-08-28T19:12:27Z</time>
  <course>348.89</course>
  <speed>0.022360679774997897</speed>
  <fix>3d</fix>
</trkpt>
<trkpt lat="40.0728134" lon="-105.2306143">
  <ele>1596.57</ele>
  <time>2026-08-28T19:12:27Z</time>
  <course>278.32</course>
  <speed>0.0</speed>
  <fix>3d</fix>
</trkpt>
<trkpt lat="40.0728134" lon="-105.2306146">
  <ele>1596.65</ele>
  <time>2026-08-28T19:12:27Z</time>
  <course>348.9</course>
  <speed>0.022360679774997897</speed>
  <fix>3d</fix>
</trkpt>
<trkpt lat="40.0728134" lon="-105.2306144">
  <ele>1596.57</ele>
  <time>2026-08-28T19:12:27Z</time>
  <course>277.7</course>
  <speed>0.0</speed>
  <fix>3d</fix>
</trkpt>
<trkpt lat="40.0728134" lon="-105.2306146">
  <ele>1596.64</ele>
  <time>2026-08-28T19:12:27Z</time>
  <course>348.9</course>
  <speed>0.022360679774997897</speed>
  <fix>3d</fix>
</trkpt>
<trkpt lat="40.0728134" lon="-105.2306145">
  <ele>1596.57</ele>
  <time>2026-08-28T19:12:27Z</time>
  <course>277.22</course>
  <speed>0.0</speed>
  <fix>3d</fix>
</trkpt>
<trkpt lat="40.0728134" lon="-105.2306146">
  <ele>1596.64</ele>
  <time>2026-08-28T19:12:27Z</time>
  <course>348.88</course>
  <speed>0.022360679774997897</speed>
  <fix>3d</fix>
</trkpt>
<trkpt lat="40.0728134" lon="-105.2306145">
  <ele>1596.57</ele>
  <time>2026-08-28T19:12:27Z</time>
  <course>276.52</course>
  <speed>0.0</speed>
  <fix>3d</fix>
</trkpt>
<trkpt lat="40.0728134" lon="-105.2306146">
  <ele>1596.64</ele>
  <time>2026-08-28T19:12:27Z</time>
  <course>348.86</course>
  <speed>0.022360679774997897</speed>
  <fix>3d</fix>
</trkpt>
<trkpt lat="40.0728134" lon="-105.2306145">
  <ele>1596.57</ele>
  <time>2026-08-28T19:12:27Z</time>
  <course>272.9</course>
  <speed>0.0</speed>
  <fix>3d</fix>
</trkpt>
<trkpt lat="40.0728134" lon="-105.2306147">
  <ele>1596.65</ele>
  <time>2026-08-28T19:12:27Z</time>
  <course>348.85</course>
  <speed>0.022360679774997897</speed>
  <fix>3d</fix>
</trkpt>
<trkpt lat="40.0728134" lon="-105.2306145">
  <ele>1596.58</ele>
  <time>2026-08-28T19:12:27Z</time>
  <course>264.25</course>
  <speed>0.0</speed>
  <fix>3d</fix>
</trkpt>
<trkpt lat="40.0728134" lon="-105.2306147">
  <ele>1596.66</ele>
  <time>2026-08-28T19:12:27Z</time>
  <course>348.84</course>
  <speed>0.022360679774997897</speed>
  <fix>3d</fix>
</trkpt>
<trkpt lat="40.0728134" lon="-105.2306145">
  <ele>1596.58</ele>
  <time>2026-08-28T19:12:27Z</time>
  <course>253.16</course>
  <speed>0.0</speed>
  <fix>3d</fix>
</trkpt>
<trkpt lat="40.0728134" lon="-105.2306147">
  <ele>1596.67</ele>
  <time>2026-08-28T19:12:27Z</time>
  <course>348.85</course>
  <speed>0.022360679774997897</speed>
  <fix>3d</fix>
</trkpt>
<trkpt lat="40.0728134" lon="-105.2306145">
  <ele>1596.58</ele>
  <time>2026-08-28T19:12:27Z</time>
  <course>237.24</course>
  <speed>0.0</speed>
  <fix>3d</fix>
</trkpt>
<trkpt lat="40.0728134" lon="-105.2306147">
  <ele>1596.67</ele>
  <time>2026-08-28T19:12:27Z</time>
  <course>348.88</course>
  <speed>0.02</speed>
  <fix>3d</fix>
</trkpt>
<trkpt lat="40.0728134" lon="-105.2306146">
  <ele>1596.58</ele>
  <time>2026-08-28T19:12:27Z</time>
  <course>216.67</course>
  <speed>0.0</speed>
  <fix>3d</fix>
</trkpt>
<trkpt lat="40.0728134" lon="-105.2306147">
  <ele>1596.67</ele>
  <time>2026-08-28T19:12:27Z</time>
  <course>348.92</course>
  <speed>0.022360679774997897</speed>
  <fix>3d</fix>
</trkpt>
<trkpt lat="40.0728134" lon="-105.2306146">
  <ele>1596.58</ele>
  <time>2026-08-28T19:12:27Z</time>
  <course>197.57</course>
  <speed>0.0</speed>
  <fix>3d</fix>
</trkpt>
<trkpt lat="40.0728134" lon="-105.2306147">
  <ele>1596.66</ele>
  <time>2026-08-28T19:12:27Z</time>
  <course>348.93</course>
  <speed>0.02</speed>
  <fix>3d</fix>
</trkpt>
<trkpt lat="40.0728134" lon="-105.2306146">
  <ele>1596.58</ele>
  <time>2026-08-28T19:12:27Z</time>
  <course>179.56</course>
  <speed>0.0</speed>
  <fix>3d</fix>
</trkpt>
<trkpt lat="40.0728134" lon="-105.2306147">
  <ele>1596.65</ele>
  <time>2026-08-28T19:12:27Z</time>
  <course>348.93</course>
  <speed>0.01</speed>
  <fix>3d</fix>
</trkpt>
<trkpt lat="40.0728134" lon="-105.2306146">
  <ele>1596.57</ele>
  <time>2026-08-28T19:12:27Z</time>
  <course>160.06</course>
  <speed>0.0</speed>
  <fix>3d</fix>
</trkpt>
<trkpt lat="40.0728134" lon="-105.2306147">
  <ele>1596.66</ele>
  <time>2026-08-28T19:12:27Z</time>
  <course>348.91</course>
  <speed>0.01</speed>
  <fix>3d</fix>
</trkpt>
<trkpt lat="40.0728134" lon="-105.2306146">
  <ele>1596.57</ele>
  <time>2026-08-28T19:12:27Z</time>
  <course>148.28</course>
  <speed>0.0</speed>
  <fix>3d</fix>
</trkpt>
<trkpt lat="40.0728134" lon="-105.2306147">
  <ele>1596.66</ele>
  <time>2026-08-28T19:12:27Z</time>
  <course>348.89</course>
  <speed>0.01</speed>
  <fix>3d</fix>
</trkpt>
<trkpt lat="40.0728134" lon="-105.2306146">
  <ele>1596.57</ele>
  <time>2026-08-28T19:12:27Z</time>
  <course>142.54</course>
  <speed>0.0</speed>
  <fix>3d</fix>
</trkpt>
<trkpt lat="40.0728134" lon="-105.2306147">
  <ele>1596.66</ele>
  <time>2026-08-28T19:12:27Z</time>
  <course>348.89</course>
  <speed>0.01</speed>
  <fix>3d</fix>
</trkpt>
<trkpt lat="40.0728134" lon="-105.2306146">
  <ele>1596.57</ele>
  <time>2026-08-28T19:12:27Z</time>
  <course>140.09</course>
  <speed>0.0</speed>
  <fix>3d</fix>
</trkpt>
<trkpt lat="40.0728134" lon="-105.2306147">
  <ele>1596.66</ele>
  <time>2026-08-28T19:12:27Z</time>
  <course>348.91</course>
  <speed>0.01</speed>
  <fix>3d</fix>
</trkpt>
<trkpt lat="40.0728134" lon="-105.2306146">
  <ele>1596.57</ele>
  <time>2026-08-28T19:12:27Z</time>
  <course>136.95</course>
  <speed>0.0</speed>
  <fix>3d</fix>
</trkpt>
<trkpt lat="40.0728134" lon="-105.2306147">
  <ele>1596.66</ele>
  <time>2026-08-28T19:12:27Z</time>
  <course>348.92</course>
  <speed>0.01</speed>
  <fix>3d</fix>
</trkpt>
<trkpt lat="40.0728134" lon="-105.2306146">
  <ele>1596.56</ele>
  <time>2026-08-28T19:12:27Z</time>
  <course>133.32</course>
  <speed>0.0</speed>
  <fix>3d</fix>
</trkpt>
<trkpt lat="40.0728134" lon="-105.2306147">
  <ele>1596.66</ele>
  <time>2026-08-28T19:12:27Z</time>
  <course>348.93</course>
  <speed>0.01</speed>
  <fix>3d</fix>
</trkpt>
<trkpt lat="40.0728134" lon="-105.2306146">
  <ele>1596.56</ele>
  <time>2026-08-28T19:12:27Z</time>
  <course>130.57</course>
  <speed>0.0</speed>
  <fix>3d</fix>
</trkpt>
<trkpt lat="40.0728134" lon="-105.2306147">
  <ele>1596.66</ele>
  <time>2026-08-28T19:12:27Z</time>
  <course>348.93</course>
  <speed>0.01</speed>
  <fix>3d</fix>
</trkpt>
<trkpt lat="40.0728134" lon="-105.2306146">
  <ele>1596.56</ele>
  <time>2026-08-28T19:12:27Z</time>
  <course>127.38</course>
  <speed>0.0</speed>
  <fix>3d</fix>
</trkpt>
<trkpt lat="40.0728134" lon="-105.2306147">
  <ele>1596.65</ele>
  <time>2026-08-28T19:12:27Z</time>
  <course>348.92</course>
  <speed>0.01</speed>
  <fix>3d</fix>
</trkpt>
<trkpt lat="40.0728134" lon="-105.2306146">
  <ele>1596.56</ele>
  <time>2026-08-28T19:12:27Z</time>
  <course>124.32</course>
  <speed>0.0</speed>
  <fix>3d</fix>
</trkpt>
<trkpt lat="40.0728134" lon="-105.2306147">
  <ele>1596.65</ele>
  <time>2026-08-28T19:12:27Z</time>
  <course>348.9</course>
  <speed>0.01414213562373095</speed>
  <fix>3d</fix>
</trkpt>
<trkpt lat="40.0728133" lon="-105.2306145">
  <ele>1596.55</ele>
  <time>2026-08-28T19:12:27Z</time>
  <course>122.71</course>
  <speed>0.0</speed>
  <fix>3d</fix>
</trkpt>
<trkpt lat="40.0728134" lon="-105.2306147">
  <ele>1596.65</ele>
  <time>2026-08-28T19:12:27Z</time>
  <course>348.88</course>
  <speed>0.01414213562373095</speed>
  <fix>3d</fix>
</trkpt>
<trkpt lat="40.0728133" lon="-105.2306145">
  <ele>1596.55</ele>
  <time>2026-08-28T19:12:27Z</time>
  <course>121.94</course>
  <speed>0.0</speed>
  <fix>3d</fix>
</trkpt>
<trkpt lat="40.0728134" lon="-105.2306147">
  <ele>1596.64</ele>
  <time>2026-08-28T19:12:27Z</time>
  <course>348.87</course>
  <speed>0.01</speed>
  <fix>3d</fix>
</trkpt>
<trkpt lat="40.0728133" lon="-105.2306145">
  <ele>1596.55</ele>
  <time>2026-08-28T19:12:27Z</time>
  <course>120.85</course>
  <speed>0.0</speed>
  <fix>3d</fix>
</trkpt>
<trkpt lat="40.0728134" lon="-105.2306147">
  <ele>1596.64</ele>
  <time>2026-08-28T19:12:27Z</time>
  <course>348.86</course>
  <speed>0.01</speed>
  <fix>3d</fix>
</trkpt>
<trkpt lat="40.0728133" lon="-105.2306145">
  <ele>1596.55</ele>
  <time>2026-08-28T19:12:27Z</time>
  <course>120.05</course>
  <speed>0.0</speed>
  <fix>3d</fix>
</trkpt>
<trkpt lat="40.0728134" lon="-105.2306147">
  <ele>1596.64</ele>
  <time>2026-08-28T19:12:27Z</time>
  <course>348.83</course>
  <speed>0.01414213562373095</speed>
  <fix>3d</fix>
</trkpt>
<trkpt lat="40.0728133" lon="-105.2306145">
  <ele>1596.55</ele>
  <time>2026-08-28T19:12:27Z</time>
  <course>118.69</course>
  <speed>0.0</speed>
  <fix>3d</fix>
</trkpt>
<trkpt lat="40.0728134" lon="-105.2306147">
  <ele>1596.64</ele>
  <time>2026-08-28T19:12:27Z</time>
  <course>348.82</course>
  <speed>0.01414213562373095</speed>
  <fix>3d</fix>
</trkpt>
<trkpt lat="40.0728133" lon="-105.2306144">
  <ele>1596.55</ele>
  <time>2026-08-28T19:12:27Z</time>
  <course>116.93</course>
  <speed>0.0</speed>
  <fix>3d</fix>
</trkpt>
<trkpt lat="40.0728134" lon="-105.2306147">
  <ele>1596.64</ele>
  <time>2026-08-28T19:12:27Z</time>
  <course>348.81</course>
  <speed>0.01414213562373095</speed>
  <fix>3d</fix>
</trkpt>
<trkpt lat="40.0728133" lon="-105.2306143">
  <ele>1596.55</ele>
  <time>2026-08-28T19:12:27Z</time>
  <course>115.93</course>
  <speed>0.0</speed>
  <fix>3d</fix>
</trkpt>
<trkpt lat="40.0728134" lon="-105.2306147">
  <ele>1596.64</ele>
  <time>2026-08-28T19:12:27Z</time>
  <course>348.79</course>
  <speed>0.022360679774997897</speed>
  <fix>3d</fix>
</trkpt>
<trkpt lat="40.0728133" lon="-105.2306143">
  <ele>1596.55</ele>
  <time>2026-08-28T19:12:27Z</time>
  <course>114.04</course>
  <speed>0.0</speed>
  <fix>3d</fix>
</trkpt>
<trkpt lat="40.0728134" lon="-105.2306147">
  <ele>1596.64</ele>
  <time>2026-08-28T19:12:27Z</time>
  <course>348.77</course>
  <speed>0.022360679774997897</speed>
  <fix>3d</fix>
</trkpt>
<trkpt lat="40.0728133" lon="-105.2306143">
  <ele>1596.56</ele>
  <time>2026-08-28T19:12:27Z</time>
  <course>112.61</course>
  <speed>0.0</speed>
  <fix>3d</fix>
</trkpt>
<trkpt lat="40.0728134" lon="-105.2306146">
  <ele>1596.65</ele>
  <time>2026-08-28T19:12:27Z</time>
  <course>348.77</course>
  <speed>0.022360679774997897</speed>
  <fix>3d</fix>
</trkpt>
<trkpt lat="40.0728133" lon="-105.2306143">
  <ele>1596.56</ele>
  <time>2026-08-28T19:12:27Z</time>
  <course>129.49</course>
  <speed>0.0</speed>
  <fix>3d</fix>
</trkpt>
<trkpt lat="40.0728134" lon="-105.2306146">
  <ele>1596.65</ele>
  <time>2026-08-28T19:12:27Z</time>
  <course>348.79</course>
  <speed>0.022360679774997897</speed>
  <fix>3d</fix>
</trkpt>
<trkpt lat="40.0728133" lon="-105.2306143">
  <ele>1596.56</ele>
  <time>2026-08-28T19:12:27Z</time>
  <course>217.0</course>
  <speed>0.0</speed>
  <fix>3d</fix>
</trkpt>
<trkpt lat="40.0728134" lon="-105.2306146">
  <ele>1596.66</ele>
  <time>2026-08-28T19:12:27Z</time>
  <course>348.8</course>
  <speed>0.022360679774997897</speed>
  <fix>3d</fix>
</trkpt>
<trkpt lat="40.0728133" lon="-105.2306143">
  <ele>1596.56</ele>
  <time>2026-08-28T19:12:27Z</time>
  <course>254.72</course>
  <speed>0.0</speed>
  <fix>3d</fix>
</trkpt>
<trkpt lat="40.0728134" lon="-105.2306146">
  <ele>1596.66</ele>
  <time>2026-08-28T19:12:27Z</time>
  <course>348.81</course>
  <speed>0.022360679774997897</speed>
  <fix>3d</fix>
</trkpt>
<trkpt lat="40.0728133" lon="-105.2306143">
  <ele>1596.56</ele>
  <time>2026-08-28T19:12:27Z</time>
  <course>265.93</course>
  <speed>0.0</speed>
  <fix>3d</fix>
</trkpt>
<trkpt lat="40.0728134" lon="-105.2306146">
  <ele>1596.66</ele>
  <time>2026-08-28T19:12:27Z</time>
  <course>348.84</course>
  <speed>0.022360679774997897</speed>
  <fix>3d</fix>
</trkpt>
<trkpt lat="40.0728133" lon="-105.2306143">
  <ele>1596.57</ele>
  <time>2026-08-28T19:12:27Z</time>
  <course>274.69</course>
  <speed>0.0</speed>
  <fix>3d</fix>
</trkpt>
<trkpt lat="40.0728134" lon="-105.2306146">
  <ele>1596.67</ele>
  <time>2026-08-28T19:12:27Z</time>
  <course>348.86</course>
  <speed>0.022360679774997897</speed>
  <fix>3d</fix>
</trkpt>
<trkpt lat="40.0728133" lon="-105.2306143">
  <ele>1596.56</ele>
  <time>2026-08-28T19:12:27Z</time>
  <course>282.09</course>
  <speed>0.0</speed>
  <fix>3d</fix>
</trkpt>
<trkpt lat="40.0728134" lon="-105.2306146">
  <ele>1596.66</ele>
  <time>2026-08-28T19:12:27Z</time>
  <course>348.89</course>
  <speed>0.022360679774997897</speed>
  <fix>3d</fix>
</trkpt>
<trkpt lat="40.0728133" lon="-105.2306143">
  <ele>1596.56</ele>
  <time>2026-08-28T19:12:27Z</time>
  <course>285.53</course>
  <speed>0.0</speed>
  <fix>3d</fix>
</trkpt>
<trkpt lat="40.0728134" lon="-105.2306146">
  <ele>1596.66</ele>
  <time>2026-08-28T19:12:27Z</time>
  <course>348.9</course>
  <speed>0.022360679774997897</speed>
  <fix>3d</fix>
</trkpt>
<trkpt lat="40.0728133" lon="-105.2306143">
  <ele>1596.56</ele>
  <time>2026-08-28T19:12:27Z</time>
  <course>288.0</course>
  <speed>0.0</speed>
  <fix>3d</fix>
</trkpt>
<trkpt lat="40.0728134" lon="-105.2306146">
  <ele>1596.65</ele>
  <time>2026-08-28T19:12:27Z</time>
  <course>348.89</course>
  <speed>0.022360679774997897</speed>
  <fix>3d</fix>
</trkpt>
<trkpt lat="40.0728133" lon="-105.2306143">
  <ele>1596.56</ele>
  <time>2026-08-28T19:12:27Z</time>
  <course>291.49</course>
  <speed>0.0</speed>
  <fix>3d</fix>
</trkpt>
<trkpt lat="40.0728134" lon="-105.2306146">
  <ele>1596.64</ele>
  <time>2026-08-28T19:12:27Z</time>
  <course>348.87</course>
  <speed>0.022360679774997897</speed>
  <fix>3d</fix>
</trkpt>
<trkpt lat="40.0728133" lon="-105.2306143">
  <ele>1596.55</ele>
  <time>2026-08-28T19:12:27Z</time>
  <course>297.04</course>
  <speed>0.0</speed>
  <fix>3d</fix>
</trkpt>
<trkpt lat="40.0728134" lon="-105.2306146">
  <ele>1596.64</ele>
  <time>2026-08-28T19:12:27Z</time>
  <course>348.84</course>
  <speed>0.022360679774997897</speed>
  <fix>3d</fix>
</trkpt>
<trkpt lat="40.0728133" lon="-105.2306143">
  <ele>1596.55</ele>
  <time>2026-08-28T19:12:27Z</time>
  <course>302.37</course>
  <speed>0.0</speed>
  <fix>3d</fix>
</trkpt>
<trkpt lat="40.0728134" lon="-105.2306146">
  <ele>1596.64</ele>
  <time>2026-08-28T19:12:27Z</time>
  <course>348.81</course>
  <speed>0.022360679774997897</speed>
  <fix>3d</fix>
</trkpt>
<trkpt lat="40.0728133" lon="-105.2306143">
  <ele>1596.55</ele>
  <time>2026-08-28T19:12:27Z</time>
  <course>301.78</course>
  <speed>0.0</speed>
  <fix>3d</fix>
</trkpt>
<trkpt lat="40.0728134" lon="-105.2306146">
  <ele>1596.64</ele>
  <time>2026-08-28T19:12:27Z</time>
  <course>348.79</course>
  <speed>0.022360679774997897</speed>
  <fix>3d</fix>
</trkpt>
<trkpt lat="40.0728133" lon="-105.2306144">
  <ele>1596.55</ele>
  <time>2026-08-28T19:12:27Z</time>
  <course>296.55</course>
  <speed>0.0</speed>
  <fix>3d</fix>
</trkpt>
<trkpt lat="40.0728134" lon="-105.2306146">
  <ele>1596.65</ele>
  <time>2026-08-28T19:12:27Z</time>
  <course>348.78</course>
  <speed>0.022360679774997897</speed>
  <fix>3d</fix>
</trkpt>
<trkpt lat="40.0728133" lon="-105.2306145">
  <ele>1596.55</ele>
  <time>2026-08-28T19:12:27Z</time>
  <course>292.39</course>
  <speed>0.0</speed>
  <fix>3d</fix>
</trkpt>
<trkpt lat="40.0728134" lon="-105.2306146">
  <ele>1596.65</ele>
  <time>2026-08-28T19:12:27Z</time>
  <course>348.77</course>
  <speed>0.022360679774997897</speed>
  <fix>3d</fix>
</trkpt>
<trkpt lat="40.0728133" lon="-105.2306145">
  <ele>1596.56</ele>
  <time>2026-08-28T19:12:27Z</time>
  <course>289.12</course>
  <speed>0.0</speed>
  <fix>3d</fix>
</trkpt>
<trkpt lat="40.0728134" lon="-105.2306146">
  <ele>1596.65</ele>
  <time>2026-08-28T19:12:27Z</time>
  <course>348.77</course>
  <speed>0.022360679774997897</speed>
  <fix>3d</fix>
</trkpt>
<trkpt lat="40.0728133" lon="-105.2306145">
  <ele>1596.56</ele>
  <time>2026-08-28T19:12:27Z</time>
  <course>284.69</course>
  <speed>0.0</speed>
  <fix>3d</fix>
</trkpt>
<trkpt lat="40.0728134" lon="-105.2306147">
  <ele>1596.65</ele>
  <time>2026-08-28T19:12:27Z</time>
  <course>348.77</course>
  <speed>0.022360679774997897</speed>
  <fix>3d</fix>
</trkpt>
<trkpt lat="40.0728133" lon="-105.2306145">
  <ele>1596.56</ele>
  <time>2026-08-28T19:12:27Z</time>
  <course>282.03</course>
  <speed>0.0</speed>
  <fix>3d</fix>
</trkpt>
<trkpt lat="40.0728134" lon="-105.2306147">
  <ele>1596.66</ele>
  <time>2026-08-28T19:12:27Z</time>
  <course>348.77</course>
  <speed>0.022360679774997897</speed>
  <fix>3d</fix>
</trkpt>
<trkpt lat="40.0728133" lon="-105.2306145">
  <ele>1596.56</ele>
  <time>2026-08-28T19:12:27Z</time>
  <course>282.05</course>
  <speed>0.0</speed>
  <fix>3d</fix>
</trkpt>
<trkpt lat="40.0728134" lon="-105.2306147">
  <ele>1596.65</ele>
  <time>2026-08-28T19:12:27Z</time>
  <course>348.78</course>
  <speed>0.022360679774997897</speed>
  <fix>3d</fix>
</trkpt>
<trkpt lat="40.0728133" lon="-105.2306145">
  <ele>1596.56</ele>
  <time>2026-08-28T19:12:27Z</time>
  <course>284.2</course>
  <speed>0.0</speed>
  <fix>3d</fix>
</trkpt>
<trkpt lat="40.0728134" lon="-105.2306147">
  <ele>1596.65</ele>
  <time>2026-08-28T19:12:27Z</time>
  <course>348.79</course>
  <speed>0.022360679774997897</speed>
  <fix>3d</fix>
</trkpt>
<trkpt lat="40.0728133" lon="-105.2306146">
  <ele>1596.56</ele>
  <time>2026-08-28T19:12:27Z</time>
  <course>288.53</course>
  <speed>0.0</speed>
  <fix>3d</fix>
</trkpt>
<trkpt lat="40.0728134" lon="-105.2306147">
  <ele>1596.65</ele>
  <time>2026-08-28T19:12:27Z</time>
  <course>348.78</course>
  <speed>0.022360679774997897</speed>
  <fix>3d</fix>
</trkpt>
<trkpt lat="40.0728133" lon="-105.2306146">
  <ele>1596.56</ele>
  <time>2026-08-28T19:12:27Z</time>
  <course>304.01</course>
  <speed>0.0</speed>
  <fix>3d</fix>
</trkpt>
<trkpt lat="40.0728134" lon="-105.2306147">
  <ele>1596.65</ele>
  <time>2026-08-28T19:12:27Z</time>
  <course>348.77</course>
  <speed>0.022360679774997897</speed>
  <fix>3d</fix>
</trkpt>
<trkpt lat="40.0728133" lon="-105.2306146">
  <ele>1596.56</ele>
  <time>2026-08-28T19:12:27Z</time>
  <course>357.16</course>
  <speed>0.0</speed>
  <fix>3d</fix>
</trkpt>
<trkpt lat="40.0728134" lon="-105.2306147">
  <ele>1596.65</ele>
  <time>2026-08-28T19:12:27Z</time>
  <course>348.77</course>
  <speed>0.01414213562373095</speed>
  <fix>3d</fix>
</trkpt>
<trkpt lat="40.0728133" lon="-105.2306146">
  <ele>1596.56</ele>
  <time>2026-08-28T19:12:27Z</time>
  <course>39.68</course>
  <speed>0.0</speed>
  <fix>3d</fix>
</trkpt>
<trkpt lat="40.0728134" lon="-105.2306147">
  <ele>1596.65</ele>
  <time>2026-08-28T19:12:27Z</time>
  <course>348.77</course>
  <speed>0.01414213562373095</speed>
  <fix>3d</fix>
</trkpt>
<trkpt lat="40.0728133" lon="-105.2306146">
  <ele>1596.56</ele>
  <time>2026-08-28T19:12:27Z</time>
  <course>54.92</course>
  <speed>0.0</speed>
  <fix>3d</fix>
</trkpt>
<trkpt lat="40.0728134" lon="-105.2306147">
  <ele>1596.65</ele>
  <time>2026-08-28T19:12:27Z</time>
  <course>348.76</course>
  <speed>0.01414213562373095</speed>
  <fix>3d</fix>
</trkpt>
<trkpt lat="40.0728133" lon="-105.2306146">
  <ele>1596.56</ele>
  <time>2026-08-28T19:12:27Z</time>
  <course>61.8</course>
  <speed>0.0</speed>
  <fix>3d</fix>
</trkpt>
<trkpt lat="40.0728134" lon="-105.2306147">
  <ele>1596.65</ele>
  <time>2026-08-28T19:12:27Z</time>
  <course>348.76</course>
  <speed>0.01414213562373095</speed>
  <fix>3d</fix>
</trkpt>
<trkpt lat="40.0728133" lon="-105.2306146">
  <ele>1596.56</ele>
  <time>2026-08-28T19:12:27Z</time>
  <course>65.2</course>
  <speed>0.0</speed>
  <fix>3d</fix>
</trkpt>
<trkpt lat="40.0728134" lon="-105.2306147">
  <ele>1596.64</ele>
  <time>2026-08-28T19:12:27Z</time>
  <course>348.76</course>
  <speed>0.01414213562373095</speed>
  <fix>3d</fix>
</trkpt>
<trkpt lat="40.0728133" lon="-105.2306146">
  <ele>1596.56</ele>
  <time>2026-08-28T19:12:27Z</time>
  <course>64.39</course>
  <speed>0.0</speed>
  <fix>3d</fix>
</trkpt>
<trkpt lat="40.0728134" lon="-105.2306147">
  <ele>1596.64</ele>
  <time>2026-08-28T19:12:27Z</time>
  <course>348.76</course>
  <speed>0.01414213562373095</speed>
  <fix>3d</fix>
</trkpt>
<trkpt lat="40.0728133" lon="-105.2306146">
  <ele>1596.56</ele>
  <time>2026-08-28T19:12:27Z</time>
  <course>61.04</course>
  <speed>0.0</speed>
  <fix>3d</fix>
</trkpt>
<trkpt lat="40.0728134" lon="-105.2306147">
  <ele>1596.64</ele>
  <time>2026-08-28T19:12:27Z</time>
  <course>348.74</course>
  <speed>0.01414213562373095</speed>
  <fix>3d</fix>
</trkpt>
<trkpt lat="40.0728133" lon="-105.2306146">
  <ele>1596.56</ele>
  <time>2026-08-28T19:12:27Z</time>
  <course>58.51</course>
  <speed>0.0</speed>
  <fix>3d</fix>
</trkpt>
<trkpt lat="40.0728134" lon="-105.2306147">
  <ele>1596.64</ele>
  <time>2026-08-28T19:12:27Z</time>
  <course>348.72</course>
  <speed>0.01414213562373095</speed>
  <fix>3d</fix>
</trkpt>
<trkpt lat="40.0728133" lon="-105.2306146">
  <ele>1596.56</ele>
  <time>2026-08-28T19:12:27Z</time>
  <course>59.05</course>
  <speed>0.0</speed>
  <fix>3d</fix>
</trkpt>
<trkpt lat="40.0728134" lon="-105.2306147">
  <ele>1596.64</ele>
  <time>2026-08-28T19:12:27Z</time>
  <course>348.7</course>
  <speed>0.01414213562373095</speed>
  <fix>3d</fix>
</trkpt>
<trkpt lat="40.0728133" lon="-105.2306146">
  <ele>1596.56</ele>
  <time>2026-08-28T19:12:27Z</time>
  <course>64.22</course>
  <speed>0.0</speed>
  <fix>3d</fix>
</trkpt>
<trkpt lat="40.0728134" lon="-105.2306147">
  <ele>1596.64</ele>
  <time>2026-08-28T19:12:27Z</time>
  <course>348.69</course>
  <speed>0.01414213562373095</speed>
  <fix>3d</fix>
</trkpt>
<trkpt lat="40.0728133" lon="-105.2306145">
  <ele>1596.56</ele>
  <time>2026-08-28T19:12:27Z</time>
  <course>70.54</course>
  <speed>0.0</speed>
  <fix>3d</fix>
</trkpt>
<trkpt lat="40.0728134" lon="-105.2306147">
  <ele>1596.64</ele>
  <time>2026-08-28T19:12:27Z</time>
  <course>348.68</course>
  <speed>0.01414213562373095</speed>
  <fix>3d</fix>
</trkpt>
<trkpt lat="40.0728133" lon="-105.2306145">
  <ele>1596.57</ele>
  <time>2026-08-28T19:12:27Z</time>
  <course>74.65</course>
  <speed>0.0</speed>
  <fix>3d</fix>
</trkpt>
<trkpt lat="40.0728134" lon="-105.2306147">
  <ele>1596.64</ele>
  <time>2026-08-28T19:12:27Z</time>
  <course>348.67</course>
  <speed>0.01414213562373095</speed>
  <fix>3d</fix>
</trkpt>
<trkpt lat="40.0728133" lon="-105.2306145">
  <ele>1596.57</ele>
  <time>2026-08-28T19:12:27Z</time>
  <course>76.86</course>
  <speed>0.0</speed>
  <fix>3d</fix>
</trkpt>
<trkpt lat="40.0728134" lon="-105.2306147">
  <ele>1596.64</ele>
  <time>2026-08-28T19:12:27Z</time>
  <course>348.67</course>
  <speed>0.01414213562373095</speed>
  <fix>3d</fix>
</trkpt>
<trkpt lat="40.0728133" lon="-105.2306145">
  <ele>1596.57</ele>
  <time>2026-08-28T19:12:27Z</time>
  <course>77.32</course>
  <speed>0.0</speed>
  <fix>3d</fix>
</trkpt>
<trkpt lat="40.0728134" lon="-105.2306147">
  <ele>1596.65</ele>
  <time>2026-08-28T19:12:27Z</time>
  <course>348.67</course>
  <speed>0.01414213562373095</speed>
  <fix>3d</fix>
</trkpt>
<trkpt lat="40.0728133" lon="-105.2306145">
  <ele>1596.57</ele>
  <time>2026-08-28T19:12:27Z</time>
  <course>78.04</course>
  <speed>0.0</speed>
  <fix>3d</fix>
</trkpt>
<trkpt lat="40.0728134" lon="-105.2306147">
  <ele>1596.66</ele>
  <time>2026-08-28T19:12:27Z</time>
  <course>348.68</course>
  <speed>0.01414213562373095</speed>
  <fix>3d</fix>
</trkpt>
<trkpt lat="40.0728133" lon="-105.2306145">
  <ele>1596.58</ele>
  <time>2026-08-28T19:12:27Z</time>
  <course>78.02</course>
  <speed>0.0</speed>
  <fix>3d</fix>
</trkpt>
<trkpt lat="40.0728134" lon="-105.2306147">
  <ele>1596.66</ele>
  <time>2026-08-28T19:12:27Z</time>
  <course>348.69</course>
  <speed>0.01414213562373095</speed>
  <fix>3d</fix>
</trkpt>
<trkpt lat="40.0728133" lon="-105.2306145">
  <ele>1596.58</ele>
  <time>2026-08-28T19:12:27Z</time>
  <course>76.41</course>
  <speed>0.0</speed>
  <fix>3d</fix>
</trkpt>
<trkpt lat="40.0728134" lon="-105.2306147">
  <ele>1596.66</ele>
  <time>2026-08-28T19:12:27Z</time>
  <course>348.72</course>
  <speed>0.022360679774997897</speed>
  <fix>3d</fix>
</trkpt>
<trkpt lat="40.0728133" lon="-105.2306144">
  <ele>1596.58</ele>
  <time>2026-08-28T19:12:27Z</time>
  <course>73.55</course>
  <speed>0.0</speed>
  <fix>3d</fix>
</trkpt>
<trkpt lat="40.0728134" lon="-105.2306147">
  <ele>1596.67</ele>
  <time>2026-08-28T19:12:27Z</time>
  <course>348.74</course>
  <speed>0.022360679774997897</speed>
  <fix>3d</fix>
</trkpt>
<trkpt lat="40.0728133" lon="-105.2306143">
  <ele>1596.58</ele>
  <time>2026-08-28T19:12:27Z</time>
  <course>67.44</course>
  <speed>0.0</speed>
  <fix>3d</fix>
</trkpt>
<trkpt lat="40.0728134" lon="-105.2306147">
  <ele>1596.67</ele>
  <time>2026-08-28T19:12:27Z</time>
  <course>348.75</course>
  <speed>0.022360679774997897</speed>
  <fix>3d</fix>
</trkpt>
<trkpt lat="40.0728133" lon="-105.2306143">
  <ele>1596.58</ele>
  <time>2026-08-28T19:12:27Z</time>
  <course>59.84</course>
  <speed>0.0</speed>
  <fix>3d</fix>
</trkpt>
<trkpt lat="40.0728134" lon="-105.2306147">
  <ele>1596.67</ele>
  <time>2026-08-28T19:12:27Z</time>
  <course>348.77</course>
  <speed>0.022360679774997897</speed>
  <fix>3d</fix>
</trkpt>
<trkpt lat="40.0728133" lon="-105.2306143">
  <ele>1596.58</ele>
  <time>2026-08-28T19:12:27Z</time>
  <course>51.63</course>
  <speed>0.0</speed>
  <fix>3d</fix>
</trkpt>
<trkpt lat="40.0728134" lon="-105.2306147">
  <ele>1596.66</ele>
  <time>2026-08-28T19:12:27Z</time>
  <course>348.77</course>
  <speed>0.022360679774997897</speed>
  <fix>3d</fix>
</trkpt>
<trkpt lat="40.0728133" lon="-105.2306143">
  <ele>1596.58</ele>
  <time>2026-08-28T19:12:27Z</time>
  <course>40.15</course>
  <speed>0.0</speed>
  <fix>3d</fix>
</trkpt>
<trkpt lat="40.0728134" lon="-105.2306146">
  <ele>1596.67</ele>
  <time>2026-08-28T19:12:27Z</time>
  <course>348.78</course>
  <speed>0.022360679774997897</speed>
  <fix>3d</fix>
</trkpt>
<trkpt lat="40.0728134" lon="-105.2306143">
  <ele>1596.57</ele>
  <time>2026-08-28T19:12:27Z</time>
  <course>23.35</course>
  <speed>0.0</speed>
  <fix>3d</fix>
</trkpt>
<trkpt lat="40.0728134" lon="-105.2306146">
  <ele>1596.67</ele>
  <time>2026-08-28T19:12:27Z</time>
  <course>348.79</course>
  <speed>0.022360679774997897</speed>
  <fix>3d</fix>
</trkpt>
<trkpt lat="40.0728134" lon="-105.2306143">
  <ele>1596.57</ele>
  <time>2026-08-28T19:12:27Z</time>
  <course>1.1</course>
  <speed>0.0</speed>
  <fix>3d</fix>
</trkpt>
<trkpt lat="40.0728134" lon="-105.2306146">
  <ele>1596.66</ele>
  <time>2026-08-28T19:12:27Z</time>
  <course>348.79</course>
  <speed>0.022360679774997897</speed>
  <fix>3d</fix>
</trkpt>
<trkpt lat="40.0728134" lon="-105.2306143">
  <ele>1596.57</ele>
  <time>2026-08-28T19:12:27Z</time>
  <course>339.03</course>
  <speed>0.0</speed>
  <fix>3d</fix>
</trkpt>
<trkpt lat="40.0728134" lon="-105.2306146">
  <ele>1596.66</ele>
  <time>2026-08-28T19:12:27Z</time>
  <course>348.79</course>
  <speed>0.022360679774997897</speed>
  <fix>3d</fix>
</trkpt>
<trkpt lat="40.0728134" lon="-105.2306143">
  <ele>1596.56</ele>
  <time>2026-08-28T19:12:27Z</time>
  <course>318.86</course>
  <speed>0.0</speed>
  <fix>3d</fix>
</trkpt>
<trkpt lat="40.0728134" lon="-105.2306146">
  <ele>1596.65</ele>
  <time>2026-08-28T19:12:27Z</time>
  <course>348.79</course>
  <speed>0.022360679774997897</speed>
  <fix>3d</fix>
</trkpt>
<trkpt lat="40.0728134" lon="-105.2306143">
  <ele>1596.56</ele>
  <time>2026-08-28T19:12:27Z</time>
  <course>299.99</course>
  <speed>0.0</speed>
  <fix>3d</fix>
</trkpt>
<trkpt lat="40.0728134" lon="-105.2306146">
  <ele>1596.65</ele>
  <time>2026-08-28T19:12:27Z</time>
  <course>348.77</course>
  <speed>0.022360679774997897</speed>
  <fix>3d</fix>
</trkpt>
<trkpt lat="40.0728134" lon="-105.2306143">
  <ele>1596.56</ele>
  <time>2026-08-28T19:12:27Z</time>
  <course>287.75</course>
  <speed>0.0</speed>
  <fix>3d</fix>
</trkpt>
<trkpt lat="40.0728134" lon="-105.2306146">
  <ele>1596.65</ele>
  <time>2026-08-28T19:12:27Z</time>
  <course>348.75</course>
  <speed>0.022360679774997897</speed>
  <fix>3d</fix>
</trkpt>
<trkpt lat="40.0728134" lon="-105.2306143">
  <ele>1596.56</ele>
  <time>2026-08-28T19:12:27Z</time>
  <course>279.7</course>
  <speed>0.0</speed>
  <fix>3d</fix>
</trkpt>
<trkpt lat="40.0728134" lon="-105.2306146">
  <ele>1596.65</ele>
  <time>2026-08-28T19:12:27Z</time>
  <course>348.73</course>
  <speed>0.022360679774997897</speed>
  <fix>3d</fix>
</trkpt>
<trkpt lat="40.0728134" lon="-105.2306143">
  <ele>1596.56</ele>
  <time>2026-08-28T19:12:27Z</time>
  <course>271.88</course>
  <speed>0.0</speed>
  <fix>3d</fix>
</trkpt>
<trkpt lat="40.0728134" lon="-105.2306146">
  <ele>1596.66</ele>
  <time>2026-08-28T19:12:27Z</time>
  <course>348.72</course>
  <speed>0.022360679774997897</speed>
  <fix>3d</fix>
</trkpt>
<trkpt lat="40.0728134" lon="-105.2306143">
  <ele>1596.56</ele>
  <time>2026-08-28T19:12:27Z</time>
  <course>265.04</course>
  <speed>0.0</speed>
  <fix>3d</fix>
</trkpt>
<trkpt lat="40.0728134" lon="-105.2306146">
  <ele>1596.66</ele>
  <time>2026-08-28T19:12:27Z</time>
  <course>348.72</course>
  <speed>0.022360679774997897</speed>
  <fix>3d</fix>
</trkpt>
<trkpt lat="40.0728134" lon="-105.2306143">
  <ele>1596.56</ele>
  <time>2026-08-28T19:12:27Z</time>
  <course>256.29</course>
  <speed>0.0</speed>
  <fix>3d</fix>
</trkpt>
<trkpt lat="40.0728134" lon="-105.2306146">
  <ele>1596.65</ele>
  <time>2026-08-28T19:12:27Z</time>
  <course>348.71</course>
  <speed>0.022360679774997897</speed>
  <fix>3d</fix>
</trkpt>
<trkpt lat="40.0728134" lon="-105.2306143">
  <ele>1596.56</ele>
  <time>2026-08-28T19:12:27Z</time>
  <course>247.69</course>
  <speed>0.0</speed>
  <fix>3d</fix>
</trkpt>
<trkpt lat="40.0728134" lon="-105.2306146">
  <ele>1596.65</ele>
  <time>2026-08-28T19:12:27Z</time>
  <course>348.71</course>
  <speed>0.02</speed>
  <fix>3d</fix>
</trkpt>
<trkpt lat="40.0728134" lon="-105.2306143">
  <ele>1596.55</ele>
  <time>2026-08-28T19:12:27Z</time>
  <course>242.42</course>
  <speed>0.0</speed>
  <fix>3d</fix>
</trkpt>
<trkpt lat="40.0728134" lon="-105.2306146">
  <ele>1596.65</ele>
  <time>2026-08-28T19:12:27Z</time>
  <course>348.71</course>
  <speed>0.02</speed>
  <fix>3d</fix>
</trkpt>
<trkpt lat="40.0728134" lon="-105.2306143">
  <ele>1596.55</ele>
  <time>2026-08-28T19:12:27Z</time>
  <course>236.41</course>
  <speed>0.0</speed>
  <fix>3d</fix>
</trkpt>
<trkpt lat="40.0728134" lon="-105.2306146">
  <ele>1596.65</ele>
  <time>2026-08-28T19:12:27Z</time>
  <course>348.7</course>
  <speed>0.02</speed>
  <fix>3d</fix>
</trkpt>
<trkpt lat="40.0728134" lon="-105.2306143">
  <ele>1596.55</ele>
  <time>2026-08-28T19:12:27Z</time>
  <course>230.43</course>
  <speed>0.0</speed>
  <fix>3d</fix>
</trkpt>
<trkpt lat="40.0728134" lon="-105.2306146">
  <ele>1596.65</ele>
  <time>2026-08-28T19:12:27Z</time>
  <course>348.71</course>
  <speed>0.02</speed>
  <fix>3d</fix>
</trkpt>
<trkpt lat="40.0728134" lon="-105.2306144">
  <ele>1596.55</ele>
  <time>2026-08-28T19:12:27Z</time>
  <course>227.54</course>
  <speed>0.01</speed>
  <fix>3d</fix>
</trkpt>
<trkpt lat="40.0728134" lon="-105.2306146">
  <ele>1596.65</ele>
  <time>2026-08-28T19:12:27Z</time>
  <course>348.7</course>
  <speed>0.02</speed>
  <fix>3d</fix>
</trkpt>
<trkpt lat="40.0728134" lon="-105.2306145">
  <ele>1596.55</ele>
  <time>2026-08-28T19:12:27Z</time>
  <course>227.12</course>
  <speed>0.01</speed>
  <fix>3d</fix>
</trkpt>
<trkpt lat="40.0728134" lon="-105.2306146">
  <ele>1596.65</ele>
  <time>2026-08-28T19:12:27Z</time>
  <course>348.7</course>
  <speed>0.02</speed>
  <fix>3d</fix>
</trkpt>
<trkpt lat="40.0728134" lon="-105.2306145">
  <ele>1596.55</ele>
  <time>2026-08-28T19:12:27Z</time>
  <course>227.46</course>
  <speed>0.01</speed>
  <fix>3d</fix>
</trkpt>
<trkpt lat="40.0728134" lon="-105.2306146">
  <ele>1596.65</ele>
  <time>2026-08-28T19:12:27Z</time>
  <course>348.7</course>
  <speed>0.02</speed>
  <fix>3d</fix>
</trkpt>
<trkpt lat="40.0728134" lon="-105.2306145">
  <ele>1596.55</ele>
  <time>2026-08-28T19:12:27Z</time>
  <course>227.69</course>
  <speed>0.0</speed>
  <fix>3d</fix>
</trkpt>
<trkpt lat="40.0728134" lon="-105.2306147">
  <ele>1596.65</ele>
  <time>2026-08-28T19:12:27Z</time>
  <course>348.7</course>
  <speed>0.02</speed>
  <fix>3d</fix>
</trkpt>
<trkpt lat="40.0728134" lon="-105.2306145">
  <ele>1596.55</ele>
  <time>2026-08-28T19:12:27Z</time>
  <course>226.64</course>
  <speed>0.0</speed>
  <fix>3d</fix>
</trkpt>
<trkpt lat="40.0728134" lon="-105.2306147">
  <ele>1596.65</ele>
  <time>2026-08-28T19:12:27Z</time>
  <course>348.69</course>
  <speed>0.02</speed>
  <fix>3d</fix>
</trkpt>
<trkpt lat="40.0728134" lon="-105.2306145">
  <ele>1596.55</ele>
  <time>2026-08-28T19:12:27Z</time>
  <course>224.56</course>
  <speed>0.0</speed>
  <fix>3d</fix>
</trkpt>
<trkpt lat="40.0728134" lon="-105.2306147">
  <ele>1596.65</ele>
  <time>2026-08-28T19:12:27Z</time>
  <course>348.69</course>
  <speed>0.02</speed>
  <fix>3d</fix>
</trkpt>
<trkpt lat="40.0728134" lon="-105.2306145">
  <ele>1596.55</ele>
  <time>2026-08-28T19:12:27Z</time>
  <course>222.39</course>
  <speed>0.0</speed>
  <fix>3d</fix>
</trkpt>
<trkpt lat="40.0728134" lon="-105.2306147">
  <ele>1596.64</ele>
  <time>2026-08-28T19:12:27Z</time>
  <course>348.69</course>
  <speed>0.02</speed>
  <fix>3d</fix>
</trkpt>
<trkpt lat="40.0728134" lon="-105.2306146">
  <ele>1596.55</ele>
  <time>2026-08-28T19:12:27Z</time>
  <course>220.16</course>
  <speed>0.0</speed>
  <fix>3d</fix>
</trkpt>
<trkpt lat="40.0728134" lon="-105.2306147">
  <ele>1596.65</ele>
  <time>2026-08-28T19:12:27Z</time>
  <course>348.69</course>
  <speed>0.022360679774997897</speed>
  <fix>3d</fix>
</trkpt>
<trkpt lat="40.0728133" lon="-105.2306146">
  <ele>1596.55</ele>
  <time>2026-08-28T19:12:27Z</time>
  <course>217.03</course>
  <speed>0.0</speed>
  <fix>3d</fix>
</trkpt>
<trkpt lat="40.0728134" lon="-105.2306147">
  <ele>1596.65</ele>
  <time>2026-08-28T19:12:27Z</time>
  <course>348.69</course>
  <speed>0.02</speed>
  <fix>3d</fix>
</trkpt>
<trkpt lat="40.0728133" lon="-105.2306146">
  <ele>1596.55</ele>
  <time>2026-08-28T19:12:27Z</time>
  <course>209.7</course>
  <speed>0.0</speed>
  <fix>3d</fix>
</trkpt>
<trkpt lat="40.0728134" lon="-105.2306147">
  <ele>1596.65</ele>
  <time>2026-08-28T19:12:27Z</time>
  <course>348.69</course>
  <speed>0.02</speed>
  <fix>3d</fix>
</trkpt>
<trkpt lat="40.0728133" lon="-105.2306146">
  <ele>1596.55</ele>
  <time>2026-08-28T19:12:27Z</time>
  <course>198.71</course>
  <speed>0.0</speed>
  <fix>3d</fix>
</trkpt>
<trkpt lat="40.0728134" lon="-105.2306147">
  <ele>1596.65</ele>
  <time>2026-08-28T19:12:27Z</time>
  <course>348.69</course>
  <speed>0.02</speed>
  <fix>3d</fix>
</trkpt>
<trkpt lat="40.0728133" lon="-105.2306146">
  <ele>1596.55</ele>
  <time>2026-08-28T19:12:27Z</time>
  <course>187.27</course>
  <speed>0.0</speed>
  <fix>3d</fix>
</trkpt>
<trkpt lat="40.0728134" lon="-105.2306147">
  <ele>1596.64</ele>
  <time>2026-08-28T19:12:27Z</time>
  <course>348.67</course>
  <speed>0.02</speed>
  <fix>3d</fix>
</trkpt>
<trkpt lat="40.0728133" lon="-105.2306146">
  <ele>1596.55</ele>
  <time>2026-08-28T19:12:27Z</time>
  <course>172.86</course>
  <speed>0.0</speed>
  <fix>3d</fix>
</trkpt>
<trkpt lat="40.0728134" lon="-105.2306147">
  <ele>1596.64</ele>
  <time>2026-08-28T19:12:27Z</time>
  <course>348.66</course>
  <speed>0.01414213562373095</speed>
  <fix>3d</fix>
</trkpt>
<trkpt lat="40.0728133" lon="-105.2306146">
  <ele>1596.55</ele>
  <time>2026-08-28T19:12:27Z</time>
  <course>153.16</course>
  <speed>0.0</speed>
  <fix>3d</fix>
</trkpt>
<trkpt lat="40.0728134" lon="-105.2306147">
  <ele>1596.64</ele>
  <time>2026-08-28T19:12:27Z</time>
  <course>348.65</course>
  <speed>0.01414213562373095</speed>
  <fix>3d</fix>
</trkpt>
<trkpt lat="40.0728133" lon="-105.2306146">
  <ele>1596.56</ele>
  <time>2026-08-28T19:12:27Z</time>
  <course>132.27</course>
  <speed>0.0</speed>
  <fix>3d</fix>
</trkpt>
<trkpt lat="40.0728134" lon="-105.2306147">
  <ele>1596.64</ele>
  <time>2026-08-28T19:12:27Z</time>
  <course>348.63</course>
  <speed>0.01414213562373095</speed>
  <fix>3d</fix>
</trkpt>
<trkpt lat="40.0728133" lon="-105.2306146">
  <ele>1596.56</ele>
  <time>2026-08-28T19:12:27Z</time>
  <course>112.51</course>
  <speed>0.0</speed>
  <fix>3d</fix>
</trkpt>
<trkpt lat="40.0728134" lon="-105.2306147">
  <ele>1596.65</ele>
  <time>2026-08-28T19:12:27Z</time>
  <course>348.62</course>
  <speed>0.01414213562373095</speed>
  <fix>3d</fix>
</trkpt>
<trkpt lat="40.0728133" lon="-105.2306146">
  <ele>1596.56</ele>
  <time>2026-08-28T19:12:27Z</time>
  <course>97.41</course>
  <speed>0.0</speed>
  <fix>3d</fix>
</trkpt>
<trkpt lat="40.0728134" lon="-105.2306147">
  <ele>1596.65</ele>
  <time>2026-08-28T19:12:27Z</time>
  <course>348.62</course>
  <speed>0.01414213562373095</speed>
  <fix>3d</fix>
</trkpt>
<trkpt lat="40.0728133" lon="-105.2306146">
  <ele>1596.56</ele>
  <time>2026-08-28T19:12:27Z</time>
  <course>90.26</course>
  <speed>0.0</speed>
  <fix>3d</fix>
</trkpt>
<trkpt lat="40.0728134" lon="-105.2306147">
  <ele>1596.65</ele>
  <time>2026-08-28T19:12:27Z</time>
  <course>348.61</course>
  <speed>0.01414213562373095</speed>
  <fix>3d</fix>
</trkpt>
<trkpt lat="40.0728133" lon="-105.2306146">
  <ele>1596.56</ele>
  <time>2026-08-28T19:12:27Z</time>
  <course>87.33</course>
  <speed>0.0</speed>
  <fix>3d</fix>
</trkpt>
<trkpt lat="40.0728134" lon="-105.2306147">
  <ele>1596.65</ele>
  <time>2026-08-28T19:12:27Z</time>
  <course>348.61</course>
  <speed>0.01414213562373095</speed>
  <fix>3d</fix>
</trkpt>
<trkpt lat="40.0728133" lon="-105.2306146">
  <ele>1596.56</ele>
  <time>2026-08-28T19:12:27Z</time>
  <course>85.17</course>
  <speed>0.0</speed>
  <fix>3d</fix>
</trkpt>
<trkpt lat="40.0728134" lon="-105.2306147">
  <ele>1596.65</ele>
  <time>2026-08-28T19:12:27Z</time>
  <course>348.6</course>
  <speed>0.01414213562373095</speed>
  <fix>3d</fix>
</trkpt>
<trkpt lat="40.0728133" lon="-105.2306146">
  <ele>1596.56</ele>
  <time>2026-08-28T19:12:27Z</time>
  <course>81.59</course>
  <speed>0.0</speed>
  <fix>3d</fix>
</trkpt>
<trkpt lat="40.0728134" lon="-105.2306147">
  <ele>1596.65</ele>
  <time>2026-08-28T19:12:27Z</time>
  <course>348.6</course>
  <speed>0.01414213562373095</speed>
  <fix>3d</fix>
</trkpt>
<trkpt lat="40.0728133" lon="-105.2306146">
  <ele>1596.56</ele>
  <time>2026-08-28T19:12:27Z</time>
  <course>78.01</course>
  <speed>0.0</speed>
  <fix>3d</fix>
</trkpt>
<trkpt lat="40.0728134" lon="-105.2306147">
  <ele>1596.66</ele>
  <time>2026-08-28T19:12:27Z</time>
  <course>348.6</course>
  <speed>0.01414213562373095</speed>
  <fix>3d</fix>
</trkpt>
<trkpt lat="40.0728133" lon="-105.2306145">
  <ele>1596.57</ele>
  <time>2026-08-28T19:12:27Z</time>
  <course>76.6</course>
  <speed>0.0</speed>
  <fix>3d</fix>
</trkpt>
<trkpt lat="40.0728134" lon="-105.2306147">
  <ele>1596.66</ele>
  <time>2026-08-28T19:12:27Z</time>
  <course>348.61</course>
  <speed>0.01414213562373095</speed>
  <fix>3d</fix>
</trkpt>
<trkpt lat="40.0728133" lon="-105.2306145">
  <ele>1596.57</ele>
  <time>2026-08-28T19:12:27Z</time>
  <course>76.09</course>
  <speed>0.0</speed>
  <fix>3d</fix>
</trkpt>
<trkpt lat="40.0728134" lon="-105.2306147">
  <ele>1596.67</ele>
  <time>2026-08-28T19:12:28Z</time>
  <course>348.64</course>
  <speed>0.01414213562373095</speed>
  <fix>3d</fix>
</trkpt>
<trkpt lat="40.0728133" lon="-105.2306145">
  <ele>1596.57</ele>
  <time>2026-08-28T19:12:28Z</time>
  <course>74.51</course>
  <speed>0.0</speed>
  <fix>3d</fix>
</trkpt>
<trkpt lat="40.0728134" lon="-105.2306147">
  <ele>1596.66</ele>
  <time>2026-08-28T19:12:28Z</time>
  <course>348.66</course>
  <speed>0.01414213562373095</speed>
  <fix>3d</fix>
</trkpt>
<trkpt lat="40.0728133" lon="-105.2306145">
  <ele>1596.57</ele>
  <time>2026-08-28T19:12:28Z</time>
  <course>71.92</course>
  <speed>0.0</speed>
  <fix>3d</fix>
</trkpt>
<trkpt lat="40.0728134" lon="-105.2306147">
  <ele>1596.66</ele>
  <time>2026-08-28T19:12:28Z</time>
  <course>348.68</course>
  <speed>0.01414213562373095</speed>
  <fix>3d</fix>
</trkpt>
<trkpt lat="40.0728133" lon="-105.2306145">
  <ele>1596.56</ele>
  <time>2026-08-28T19:12:28Z</time>
  <course>69.79</course>
  <speed>0.0</speed>
  <fix>3d</fix>
</trkpt>
<trkpt lat="40.0728134" lon="-105.2306147">
  <ele>1596.67</ele>
  <time>2026-08-28T19:12:28Z</time>
  <course>348.69</course>
  <speed>0.01414213562373095</speed>
  <fix>3d</fix>
</trkpt>
<trkpt lat="40.0728133" lon="-105.2306144">
  <ele>1596.56</ele>
  <time>2026-08-28T19:12:28Z</time>
  <course>67.06</course>
  <speed>0.0</speed>
  <fix>3d</fix>
</trkpt>
<trkpt lat="40.0728134" lon="-105.2306147">
  <ele>1596.67</ele>
  <time>2026-08-28T19:12:28Z</time>
  <course>348.7</course>
  <speed>0.01414213562373095</speed>
  <fix>3d</fix>
</trkpt>
<trkpt lat="40.0728133" lon="-105.2306143">
  <ele>1596.56</ele>
  <time>2026-08-28T19:12:28Z</time>
  <course>63.88</course>
  <speed>0.0</speed>
  <fix>3d</fix>
</trkpt>
<trkpt lat="40.0728134" lon="-105.2306147">
  <ele>1596.66</ele>
  <time>2026-08-28T19:12:28Z</time>
  <course>348.71</course>
  <speed>0.01414213562373095</speed>
  <fix>3d</fix>
</trkpt>
<trkpt lat="40.0728133" lon="-105.2306143">
  <ele>1596.55</ele>
  <time>2026-08-28T19:12:28Z</time>
  <course>61.0</course>
  <speed>0.0</speed>
  <fix>3d</fix>
</trkpt>
<trkpt lat="40.0728134" lon="-105.2306147">
  <ele>1596.66</ele>
  <time>2026-08-28T19:12:28Z</time>
  <course>348.7</course>
  <speed>0.01414213562373095</speed>
  <fix>3d</fix>
</trkpt>
<trkpt lat="40.0728133" lon="-105.2306143">
  <ele>1596.55</ele>
  <time>2026-08-28T19:12:28Z</time>
  <course>56.73</course>
  <speed>0.0</speed>
  <fix>3d</fix>
</trkpt>
<trkpt lat="40.0728134" lon="-105.2306146">
  <ele>1596.65</ele>
  <time>2026-08-28T19:12:28Z</time>
  <course>348.69</course>
  <speed>0.022360679774997897</speed>
  <fix>3d</fix>
</trkpt>
<trkpt lat="40.0728133" lon="-105.2306143">
  <ele>1596.55</ele>
  <time>2026-08-28T19:12:28Z</time>
  <course>48.22</course>
  <speed>0.0</speed>
  <fix>3d</fix>
</trkpt>
<trkpt lat="40.0728134" lon="-105.2306146">
  <ele>1596.64</ele>
  <time>2026-08-28T19:12:28Z</time>
  <course>348.67</course>
  <speed>0.022360679774997897</speed>
  <fix>3d</fix>
</trkpt>
<trkpt lat="40.0728133" lon="-105.2306143">
  <ele>1596.55</ele>
  <time>2026-08-28T19:12:28Z</time>
  <course>30.69</course>
  <speed>0.0</speed>
  <fix>3d</fix>
</trkpt>
<trkpt lat="40.0728134" lon="-105.2306146">
  <ele>1596.64</ele>
  <time>2026-08-28T19:12:28Z</time>
  <course>348.66</course>
  <speed>0.022360679774997897</speed>
  <fix>3d</fix>
</trkpt>
<trkpt lat="40.0728133" lon="-105.2306143">
  <ele>1596.54</ele>
  <time>2026-08-28T19:12:28Z</time>
  <course>2.49</course>
  <speed>0.0</speed>
  <fix>3d</fix>
</trkpt>
<trkpt lat="40.0728134" lon="-105.2306146">
  <ele>1596.63</ele>
  <time>2026-08-28T19:12:28Z</time>
  <course>348.64</course>
  <speed>0.022360679774997897</speed>
  <fix>3d</fix>
</trkpt>
<trkpt lat="40.0728133" lon="-105.2306143">
  <ele>1596.54</ele>
  <time>2026-08-28T19:12:28Z</time>
  <course>334.98</course>
  <speed>0.0</speed>
  <fix>3d</fix>
</trkpt>
<trkpt lat="40.0728134" lon="-105.2306146">
  <ele>1596.63</ele>
  <time>2026-08-28T19:12:28Z</time>
  <course>348.6</course>
  <speed>0.022360679774997897</speed>
  <fix>3d</fix>
</trkpt>
<trkpt lat="40.0728133" lon="-105.2306143">
  <ele>1596.54</ele>
  <time>2026-08-28T19:12:28Z</time>
  <course>315.87</course>
  <speed>0.0</speed>
  <fix>3d</fix>
</trkpt>
<trkpt lat="40.0728134" lon="-105.2306146">
  <ele>1596.63</ele>
  <time>2026-08-28T19:12:28Z</time>
  <course>348.57</course>
  <speed>0.022360679774997897</speed>
  <fix>3d</fix>
</trkpt>
<trkpt lat="40.0728133" lon="-105.2306143">
  <ele>1596.55</ele>
  <time>2026-08-28T19:12:28Z</time>
  <course>302.67</course>
  <speed>0.0</speed>
  <fix>3d</fix>
</trkpt>
<trkpt lat="40.0728134" lon="-105.2306146">
  <ele>1596.64</ele>
  <time>2026-08-28T19:12:28Z</time>
  <course>348.55</course>
  <speed>0.022360679774997897</speed>
  <fix>3d</fix>
</trkpt>
<trkpt lat="40.0728133" lon="-105.2306143">
  <ele>1596.55</ele>
  <time>2026-08-28T19:12:28Z</time>
  <course>294.92</course>
  <speed>0.0</speed>
  <fix>3d</fix>
</trkpt>
<trkpt lat="40.0728134" lon="-105.2306146">
  <ele>1596.65</ele>
  <time>2026-08-28T19:12:28Z</time>
  <course>348.55</course>
  <speed>0.022360679774997897</speed>
  <fix>3d</fix>
</trkpt>
<trkpt lat="40.0728133" lon="-105.2306143">
  <ele>1596.55</ele>
  <time>2026-08-28T19:12:28Z</time>
  <course>288.59</course>
  <speed>0.0</speed>
  <fix>3d</fix>
</trkpt>
<trkpt lat="40.0728134" lon="-105.2306146">
  <ele>1596.65</ele>
  <time>2026-08-28T19:12:28Z</time>
  <course>348.56</course>
  <speed>0.022360679774997897</speed>
  <fix>3d</fix>
</trkpt>
<trkpt lat="40.0728133" lon="-105.2306143">
  <ele>1596.56</ele>
  <time>2026-08-28T19:12:28Z</time>
  <course>284.45</course>
  <speed>0.0</speed>
  <fix>3d</fix>
</trkpt>
<trkpt lat="40.0728134" lon="-105.2306146">
  <ele>1596.65</ele>
  <time>2026-08-28T19:12:28Z</time>
  <course>348.57</course>
  <speed>0.022360679774997897</speed>
  <fix>3d</fix>
</trkpt>
<trkpt lat="40.0728133" lon="-105.2306143">
  <ele>1596.56</ele>
  <time>2026-08-28T19:12:28Z</time>
  <course>284.95</course>
  <speed>0.0</speed>
  <fix>3d</fix>
</trkpt>
<trkpt lat="40.0728134" lon="-105.2306146">
  <ele>1596.65</ele>
  <time>2026-08-28T19:12:28Z</time>
  <course>348.59</course>
  <speed>0.022360679774997897</speed>
  <fix>3d</fix>
</trkpt>
<trkpt lat="40.0728133" lon="-105.2306143">
  <ele>1596.56</ele>
  <time>2026-08-28T19:12:28Z</time>
  <course>287.51</course>
  <speed>0.0</speed>
  <fix>3d</fix>
</trkpt>
<trkpt lat="40.0728134" lon="-105.2306146">
  <ele>1596.66</ele>
  <time>2026-08-28T19:12:28Z</time>
  <course>348.6</course>
  <speed>0.022360679774997897</speed>
  <fix>3d</fix>
</trkpt>
<trkpt lat="40.0728133" lon="-105.2306143">
  <ele>1596.56</ele>
  <time>2026-08-28T19:12:28Z</time>
  <course>290.0</course>
  <speed>0.0</speed>
  <fix>3d</fix>
</trkpt>
<trkpt lat="40.0728134" lon="-105.2306146">
  <ele>1596.66</ele>
  <time>2026-08-28T19:12:28Z</time>
  <course>348.61</course>
  <speed>0.022360679774997897</speed>
  <fix>3d</fix>
</trkpt>
<trkpt lat="40.0728133" lon="-105.2306143">
  <ele>1596.56</ele>
  <time>2026-08-28T19:12:28Z</time>
  <course>291.58</course>
  <speed>0.0</speed>
  <fix>3d</fix>
</trkpt>
<trkpt lat="40.0728134" lon="-105.2306146">
  <ele>1596.66</ele>
  <time>2026-08-28T19:12:28Z</time>
  <course>348.62</course>
  <speed>0.022360679774997897</speed>
  <fix>3d</fix>
</trkpt>
<trkpt lat="40.0728133" lon="-105.2306143">
  <ele>1596.56</ele>
  <time>2026-08-28T19:12:28Z</time>
  <course>290.4</course>
  <speed>0.0</speed>
  <fix>3d</fix>
</trkpt>
<trkpt lat="40.0728134" lon="-105.2306146">
  <ele>1596.66</ele>
  <time>2026-08-28T19:12:28Z</time>
  <course>348.62</course>
  <speed>0.022360679774997897</speed>
  <fix>3d</fix>
</trkpt>
<trkpt lat="40.0728133" lon="-105.2306144">
  <ele>1596.56</ele>
  <time>2026-08-28T19:12:28Z</time>
  <course>288.57</course>
  <speed>0.0</speed>
  <fix>3d</fix>
</trkpt>
<trkpt lat="40.0728134" lon="-105.2306146">
  <ele>1596.66</ele>
  <time>2026-08-28T19:12:28Z</time>
  <course>348.63</course>
  <speed>0.022360679774997897</speed>
  <fix>3d</fix>
</trkpt>
<trkpt lat="40.0728133" lon="-105.2306145">
  <ele>1596.56</ele>
  <time>2026-08-28T19:12:28Z</time>
  <course>289.29</course>
  <speed>0.0</speed>
  <fix>3d</fix>
</trkpt>
<trkpt lat="40.0728134" lon="-105.2306146">
  <ele>1596.66</ele>
  <time>2026-08-28T19:12:28Z</time>
  <course>348.63</course>
  <speed>0.022360679774997897</speed>
  <fix>3d</fix>
</trkpt>
<trkpt lat="40.0728133" lon="-105.2306145">
  <ele>1596.56</ele>
  <time>2026-08-28T19:12:28Z</time>
  <course>291.03</course>
  <speed>0.0</speed>
  <fix>3d</fix>
</trkpt>
<trkpt lat="40.0728134" lon="-105.2306146">
  <ele>1596.66</ele>
  <time>2026-08-28T19:12:28Z</time>
  <course>348.63</course>
  <speed>0.022360679774997897</speed>
  <fix>3d</fix>
</trkpt>
<trkpt lat="40.0728133" lon="-105.2306145">
  <ele>1596.56</ele>
  <time>2026-08-28T19:12:28Z</time>
  <course>292.47</course>
  <speed>0.0</speed>
  <fix>3d</fix>
</trkpt>
<trkpt lat="40.0728134" lon="-105.2306147">
  <ele>1596.65</ele>
  <time>2026-08-28T19:12:28Z</time>
  <course>348.63</course>
  <speed>0.022360679774997897</speed>
  <fix>3d</fix>
</trkpt>
<trkpt lat="40.0728133" lon="-105.2306145">
  <ele>1596.55</ele>
  <time>2026-08-28T19:12:28Z</time>
  <course>295.68</course>
  <speed>0.0</speed>
  <fix>3d</fix>
</trkpt>
<trkpt lat="40.0728134" lon="-105.2306147">
  <ele>1596.65</ele>
  <time>2026-08-28T19:12:28Z</time>
  <course>348.62</course>
  <speed>0.022360679774997897</speed>
  <fix>3d</fix>
</trkpt>
<trkpt lat="40.0728133" lon="-105.2306145">
  <ele>1596.55</ele>
  <time>2026-08-28T19:12:28Z</time>
  <course>301.44</course>
  <speed>0.0</speed>
  <fix>3d</fix>
</trkpt>
<trkpt lat="40.0728134" lon="-105.2306147">
  <ele>1596.65</ele>
  <time>2026-08-28T19:12:28Z</time>
  <course>348.6</course>
  <speed>0.022360679774997897</speed>
  <fix>3d</fix>
</trkpt>
<trkpt lat="40.0728133" lon="-105.2306145">
  <ele>1596.55</ele>
  <time>2026-08-28T19:12:28Z</time>
  <course>311.38</course>
  <speed>0.0</speed>
  <fix>3d</fix>
</trkpt>
<trkpt lat="40.0728134" lon="-105.2306147">
  <ele>1596.65</ele>
  <time>2026-08-28T19:12:28Z</time>
  <course>348.58</course>
  <speed>0.022360679774997897</speed>
  <fix>3d</fix>
</trkpt>
<trkpt lat="40.0728133" lon="-105.2306145">
  <ele>1596.55</ele>
  <time>2026-08-28T19:12:28Z</time>
  <course>327.38</course>
  <speed>0.0</speed>
  <fix>3d</fix>
</trkpt>
<trkpt lat="40.0728134" lon="-105.2306147">
  <ele>1596.65</ele>
  <time>2026-08-28T19:12:28Z</time>
  <course>348.57</course>
  <speed>0.022360679774997897</speed>
  <fix>3d</fix>
</trkpt>
<trkpt lat="40.0728133" lon="-105.2306145">
  <ele>1596.55</ele>
  <time>2026-08-28T19:12:28Z</time>
  <course>347.0</course>
  <speed>0.0</speed>
  <fix>3d</fix>
</trkpt>
<trkpt lat="40.0728134" lon="-105.2306147">
  <ele>1596.65</ele>
  <time>2026-08-28T19:12:28Z</time>
  <course>348.56</course>
  <speed>0.022360679774997897</speed>
  <fix>3d</fix>
</trkpt>
<trkpt lat="40.0728133" lon="-105.2306145">
  <ele>1596.55</ele>
  <time>2026-08-28T19:12:28Z</time>
  <course>8.46</course>
  <speed>0.0</speed>
  <fix>3d</fix>
</trkpt>
<trkpt lat="40.0728134" lon="-105.2306147">
  <ele>1596.64</ele>
  <time>2026-08-28T19:12:28Z</time>
  <course>348.55</course>
  <speed>0.01414213562373095</speed>
  <fix>3d</fix>
</trkpt>
<trkpt lat="40.0728134" lon="-105.2306145">
  <ele>1596.55</ele>
  <time>2026-08-28T19:12:28Z</time>
  <course>27.55</course>
  <speed>0.0</speed>
  <fix>3d</fix>
</trkpt>
<trkpt lat="40.0728134" lon="-105.2306147">
  <ele>1596.64</ele>
  <time>2026-08-28T19:12:28Z</time>
  <course>348.55</course>
  <speed>0.01414213562373095</speed>
  <fix>3d</fix>
</trkpt>
<trkpt lat="40.0728134" lon="-105.2306145">
  <ele>1596.55</ele>
  <time>2026-08-28T19:12:28Z</time>
  <course>40.65</course>
  <speed>0.0</speed>
  <fix>3d</fix>
</trkpt>
<trkpt lat="40.0728134" lon="-105.2306147">
  <ele>1596.64</ele>
  <time>2026-08-28T19:12:28Z</time>
  <course>348.52</course>
  <speed>0.01414213562373095</speed>
  <fix>3d</fix>
</trkpt>
<trkpt lat="40.0728134" lon="-105.2306145">
  <ele>1596.55</ele>
  <time>2026-08-28T19:12:28Z</time>
  <course>49.53</course>
  <speed>0.0</speed>
  <fix>3d</fix>
</trkpt>
<trkpt lat="40.0728134" lon="-105.2306147">
  <ele>1596.64</ele>
  <time>2026-08-28T19:12:28Z</time>
  <course>348.51</course>
  <speed>0.022360679774997897</speed>
  <fix>3d</fix>
</trkpt>
<trkpt lat="40.0728134" lon="-105.2306145">
  <ele>1596.55</ele>
  <time>2026-08-28T19:12:28Z</time>
  <course>55.93</course>
  <speed>0.0</speed>
  <fix>3d</fix>
</trkpt>
<trkpt lat="40.0728134" lon="-105.2306147">
  <ele>1596.64</ele>
  <time>2026-08-28T19:12:28Z</time>
  <course>348.48</course>
  <speed>0.022360679774997897</speed>
  <fix>3d</fix>
</trkpt>
<trkpt lat="40.0728134" lon="-105.2306145">
  <ele>1596.56</ele>
  <time>2026-08-28T19:12:28Z</time>
  <course>69.31</course>
  <speed>0.0</speed>
  <fix>3d</fix>
</trkpt>
<trkpt lat="40.0728134" lon="-105.2306147">
  <ele>1596.64</ele>
  <time>2026-08-28T19:12:28Z</time>
  <course>348.47</course>
  <speed>0.022360679774997897</speed>
  <fix>3d</fix>
</trkpt>
<trkpt lat="40.0728134" lon="-105.2306145">
  <ele>1596.56</ele>
  <time>2026-08-28T19:12:28Z</time>
  <course>101.33</course>
  <speed>0.0</speed>
  <fix>3d</fix>
</trkpt>
<trkpt lat="40.0728134" lon="-105.2306147">
  <ele>1596.64</ele>
  <time>2026-08-28T19:12:28Z</time>
  <course>348.47</course>
  <speed>0.02</speed>
  <fix>3d</fix>
</trkpt>
<trkpt lat="40.0728134" lon="-105.2306145">
  <ele>1596.56</ele>
  <time>2026-08-28T19:12:28Z</time>
  <course>130.06</course>
  <speed>0.0</speed>
  <fix>3d</fix>
</trkpt>
<trkpt lat="40.0728134" lon="-105.2306147">
  <ele>1596.64</ele>
  <time>2026-08-28T19:12:28Z</time>
  <course>348.48</course>
  <speed>0.02</speed>
  <fix>3d</fix>
</trkpt>
<trkpt lat="40.0728134" lon="-105.2306145">
  <ele>1596.56</ele>
  <time>2026-08-28T19:12:28Z</time>
  <course>142.8</course>
  <speed>0.0</speed>
  <fix>3d</fix>
</trkpt>
<trkpt lat="40.0728134" lon="-105.2306147">
  <ele>1596.64</ele>
  <time>2026-08-28T19:12:28Z</time>
  <course>348.49</course>
  <speed>0.02</speed>
  <fix>3d</fix>
</trkpt>
<trkpt lat="40.0728134" lon="-105.2306145">
  <ele>1596.57</ele>
  <time>2026-08-28T19:12:28Z</time>
  <course>146.62</course>
  <speed>0.0</speed>
  <fix>3d</fix>
</trkpt>
<trkpt lat="40.0728134" lon="-105.2306146">
  <ele>1596.65</ele>
  <time>2026-08-28T19:12:28Z</time>
  <course>348.5</course>
  <speed>0.02</speed>
  <fix>3d</fix>
</trkpt>
<trkpt lat="40.0728134" lon="-105.2306145">
  <ele>1596.57</ele>
  <time>2026-08-28T19:12:28Z</time>
  <course>147.68</course>
  <speed>0.0</speed>
  <fix>3d</fix>
</trkpt>
<trkpt lat="40.0728134" lon="-105.2306146">
  <ele>1596.65</ele>
  <time>2026-08-28T19:12:28Z</time>
  <course>348.51</course>
  <speed>0.02</speed>
  <fix>3d</fix>
</trkpt>
<trkpt lat="40.0728134" lon="-105.2306145">
  <ele>1596.57</ele>
  <time>2026-08-28T19:12:28Z</time>
  <course>152.28</course>
  <speed>0.0</speed>
  <fix>3d</fix>
</trkpt>
<trkpt lat="40.0728134" lon="-105.2306146">
  <ele>1596.66</ele>
  <time>2026-08-28T19:12:28Z</time>
  <course>348.52</course>
  <speed>0.02</speed>
  <fix>3d</fix>
</trkpt>
<trkpt lat="40.0728134" lon="-105.2306145">
  <ele>1596.58</ele>
  <time>2026-08-28T19:12:28Z</time>
  <course>157.84</course>
  <speed>0.0</speed>
  <fix>3d</fix>
</trkpt>
<trkpt lat="40.0728134" lon="-105.2306146">
  <ele>1596.66</ele>
  <time>2026-08-28T19:12:28Z</time>
  <course>348.52</course>
  <speed>0.02</speed>
  <fix>3d</fix>
</trkpt>
<trkpt lat="40.0728134" lon="-105.2306145">
  <ele>1596.58</ele>
  <time>2026-08-28T19:12:28Z</time>
  <course>161.14</course>
  <speed>0.0</speed>
  <fix>3d</fix>
</trkpt>
<trkpt lat="40.0728134" lon="-105.2306146">
  <ele>1596.66</ele>
  <time>2026-08-28T19:12:28Z</time>
  <course>348.53</course>
  <speed>0.02</speed>
  <fix>3d</fix>
</trkpt>
<trkpt lat="40.0728134" lon="-105.2306145">
  <ele>1596.58</ele>
  <time>2026-08-28T19:12:28Z</time>
  <course>162.12</course>
  <speed>0.0</speed>
  <fix>3d</fix>
</trkpt>
<trkpt lat="40.0728134" lon="-105.2306146">
  <ele>1596.66</ele>
  <time>2026-08-28T19:12:28Z</time>
  <course>348.53</course>
  <speed>0.02</speed>
  <fix>3d</fix>
</trkpt>
<trkpt lat="40.0728134" lon="-105.2306145">
  <ele>1596.58</ele>
  <time>2026-08-28T19:12:28Z</time>
  <course>159.54</course>
  <speed>0.0</speed>
  <fix>3d</fix>
</trkpt>
<trkpt lat="40.0728134" lon="-105.2306146">
  <ele>1596.65</ele>
  <time>2026-08-28T19:12:28Z</time>
  <course>348.54</course>
  <speed>0.02</speed>
  <fix>3d</fix>
</trkpt>
<trkpt lat="40.0728134" lon="-105.2306145">
  <ele>1596.58</ele>
  <time>2026-08-28T19:12:28Z</time>
  <course>153.75</course>
  <speed>0.0</speed>
  <fix>3d</fix>
</trkpt>
<trkpt lat="40.0728134" lon="-105.2306146">
  <ele>1596.65</ele>
  <time>2026-08-28T19:12:28Z</time>
  <course>348.54</course>
  <speed>0.02</speed>
  <fix>3d</fix>
</trkpt>
<trkpt lat="40.0728134" lon="-105.2306145">
  <ele>1596.58</ele>
  <time>2026-08-28T19:12:28Z</time>
  <course>148.24</course>
  <speed>0.0</speed>
  <fix>3d</fix>
</trkpt>
<trkpt lat="40.0728134" lon="-105.2306146">
  <ele>1596.65</ele>
  <time>2026-08-28T19:12:28Z</time>
  <course>348.54</course>
  <speed>0.022360679774997897</speed>
  <fix>3d</fix>
</trkpt>
<trkpt lat="40.0728134" lon="-105.2306145">
  <ele>1596.58</ele>
  <time>2026-08-28T19:12:28Z</time>
  <course>145.07</course>
  <speed>0.0</speed>
  <fix>3d</fix>
</trkpt>
<trkpt lat="40.0728134" lon="-105.2306146">
  <ele>1596.65</ele>
  <time>2026-08-28T19:12:28Z</time>
  <course>348.54</course>
  <speed>0.022360679774997897</speed>
  <fix>3d</fix>
</trkpt>
<trkpt lat="40.0728134" lon="-105.2306145">
  <ele>1596.58</ele>
  <time>2026-08-28T19:12:28Z</time>
  <course>142.6</course>
  <speed>0.0</speed>
  <fix>3d</fix>
</trkpt>
<trkpt lat="40.0728134" lon="-105.2306146">
  <ele>1596.65</ele>
  <time>2026-08-28T19:12:28Z</time>
  <course>348.54</course>
  <speed>0.022360679774997897</speed>
  <fix>3d</fix>
</trkpt>
<trkpt lat="40.0728134" lon="-105.2306145">
  <ele>1596.58</ele>
  <time>2026-08-28T19:12:28Z</time>
  <course>140.62</course>
  <speed>0.0</speed>
  <fix>3d</fix>
</trkpt>
<trkpt lat="40.0728134" lon="-105.2306146">
  <ele>1596.65</ele>
  <time>2026-08-28T19:12:28Z</time>
  <course>348.54</course>
  <speed>0.022360679774997897</speed>
  <fix>3d</fix>
</trkpt>
<trkpt lat="40.0728133" lon="-105.2306145">
  <ele>1596.58</ele>
  <time>2026-08-28T19:12:28Z</time>
  <course>138.82</course>
  <speed>0.0</speed>
  <fix>3d</fix>
</trkpt>
<trkpt lat="40.0728134" lon="-105.2306146">
  <ele>1596.65</ele>
  <time>2026-08-28T19:12:28Z</time>
  <course>348.55</course>
  <speed>0.022360679774997897</speed>
  <fix>3d</fix>
</trkpt>
<trkpt lat="40.0728133" lon="-105.2306145">
  <ele>1596.58</ele>
  <time>2026-08-28T19:12:28Z</time>
  <course>137.08</course>
  <speed>0.0</speed>
  <fix>3d</fix>
</trkpt>
<trkpt lat="40.0728134" lon="-105.2306146">
  <ele>1596.65</ele>
  <time>2026-08-28T19:12:28Z</time>
  <course>348.55</course>
  <speed>0.022360679774997897</speed>
  <fix>3d</fix>
</trkpt>
<trkpt lat="40.0728133" lon="-105.2306145">
  <ele>1596.58</ele>
  <time>2026-08-28T19:12:28Z</time>
  <course>135.54</course>
  <speed>0.0</speed>
  <fix>3d</fix>
</trkpt>
<trkpt lat="40.0728134" lon="-105.2306146">
  <ele>1596.65</ele>
  <time>2026-08-28T19:12:28Z</time>
  <course>348.55</course>
  <speed>0.022360679774997897</speed>
  <fix>3d</fix>
</trkpt>
<trkpt lat="40.0728133" lon="-105.2306145">
  <ele>1596.58</ele>
  <time>2026-08-28T19:12:28Z</time>
  <course>134.13</course>
  <speed>0.0</speed>
  <fix>3d</fix>
</trkpt>
<trkpt lat="40.0728134" lon="-105.2306146">
  <ele>1596.66</ele>
  <time>2026-08-28T19:12:28Z</time>
  <course>348.55</course>
  <speed>0.022360679774997897</speed>
  <fix>3d</fix>
</trkpt>
<trkpt lat="40.0728133" lon="-105.2306145">
  <ele>1596.58</ele>
  <time>2026-08-28T19:12:28Z</time>
  <course>132.78</course>
  <speed>0.0</speed>
  <fix>3d</fix>
</trkpt>
<trkpt lat="40.0728134" lon="-105.2306146">
  <ele>1596.66</ele>
  <time>2026-08-28T19:12:28Z</time>
  <course>348.55</course>
  <speed>0.022360679774997897</speed>
  <fix>3d</fix>
</trkpt>
<trkpt lat="40.0728133" lon="-105.2306145">
  <ele>1596.58</ele>
  <time>2026-08-28T19:12:28Z</time>
  <course>131.76</course>
  <speed>0.0</speed>
  <fix>3d</fix>
</trkpt>
<trkpt lat="40.0728134" lon="-105.2306146">
  <ele>1596.66</ele>
  <time>2026-08-28T19:12:28Z</time>
  <course>348.55</course>
  <speed>0.022360679774997897</speed>
  <fix>3d</fix>
</trkpt>
<trkpt lat="40.0728133" lon="-105.2306145">
  <ele>1596.58</ele>
  <time>2026-08-28T19:12:28Z</time>
  <course>131.43</course>
  <speed>0.0</speed>
  <fix>3d</fix>
</trkpt>
<trkpt lat="40.0728134" lon="-105.2306146">
  <ele>1596.66</ele>
  <time>2026-08-28T19:12:28Z</time>
  <course>348.55</course>
  <speed>0.022360679774997897</speed>
  <fix>3d</fix>
</trkpt>
<trkpt lat="40.0728133" lon="-105.2306145">
  <ele>1596.58</ele>
  <time>2026-08-28T19:12:28Z</time>
  <course>129.48</course>
  <speed>0.0</speed>
  <fix>3d</fix>
</trkpt>
<trkpt lat="40.0728134" lon="-105.2306146">
  <ele>1596.66</ele>
  <time>2026-08-28T19:12:28Z</time>
  <course>348.56</course>
  <speed>0.022360679774997897</speed>
  <fix>3d</fix>
</trkpt>
<trkpt lat="40.0728133" lon="-105.2306144">
  <ele>1596.58</ele>
  <time>2026-08-28T19:12:28Z</time>
  <course>115.3</course>
  <speed>0.0</speed>
  <fix>3d</fix>
</trkpt>
<trkpt lat="40.0728134" lon="-105.2306146">
  <ele>1596.65</ele>
  <time>2026-08-28T19:12:28Z</time>
  <course>348.56</course>
  <speed>0.022360679774997897</speed>
  <fix>3d</fix>
</trkpt>
<trkpt lat="40.0728133" lon="-105.2306143">
  <ele>1596.58</ele>
  <time>2026-08-28T19:12:28Z</time>
  <course>87.53</course>
  <speed>0.0</speed>
  <fix>3d</fix>
</trkpt>
<trkpt lat="40.0728134" lon="-105.2306146">
  <ele>1596.65</ele>
  <time>2026-08-28T19:12:28Z</time>
  <course>348.56</course>
  <speed>0.022360679774997897</speed>
  <fix>3d</fix>
</trkpt>
<trkpt lat="40.0728133" lon="-105.2306143">
  <ele>1596.57</ele>
  <time>2026-08-28T19:12:28Z</time>
  <course>59.56</course>
  <speed>0.0</speed>
  <fix>3d</fix>
</trkpt>
<trkpt lat="40.0728134" lon="-105.2306146">
  <ele>1596.65</ele>
  <time>2026-08-28T19:12:28Z</time>
  <course>348.56</course>
  <speed>0.022360679774997897</speed>
  <fix>3d</fix>
</trkpt>
<trkpt lat="40.0728133" lon="-105.2306143">
  <ele>1596.57</ele>
  <time>2026-08-28T19:12:28Z</time>
  <course>41.23</course>
  <speed>0.0</speed>
  <fix>3d</fix>
</trkpt>
<trkpt lat="40.0728134" lon="-105.2306146">
  <ele>1596.65</ele>
  <time>2026-08-28T19:12:28Z</time>
  <course>348.56</course>
  <speed>0.022360679774997897</speed>
  <fix>3d</fix>
</trkpt>
<trkpt lat="40.0728133" lon="-105.2306143">
  <ele>1596.57</ele>
  <time>2026-08-28T19:12:28Z</time>
  <course>21.87</course>
  <speed>0.0</speed>
  <fix>3d</fix>
</trkpt>
<trkpt lat="40.0728134" lon="-105.2306146">
  <ele>1596.65</ele>
  <time>2026-08-28T19:12:28Z</time>
  <course>348.56</course>
  <speed>0.022360679774997897</speed>
  <fix>3d</fix>
</trkpt>
<trkpt lat="40.0728133" lon="-105.2306143">
  <ele>1596.57</ele>
  <time>2026-08-28T19:12:28Z</time>
  <course>3.59</course>
  <speed>0.0</speed>
  <fix>3d</fix>
</trkpt>
<trkpt lat="40.0728134" lon="-105.2306146">
  <ele>1596.65</ele>
  <time>2026-08-28T19:12:28Z</time>
  <course>348.54</course>
  <speed>0.022360679774997897</speed>
  <fix>3d</fix>
</trkpt>
<trkpt lat="40.0728133" lon="-105.2306143">
  <ele>1596.57</ele>
  <time>2026-08-28T19:12:28Z</time>
  <course>350.92</course>
  <speed>0.0</speed>
  <fix>3d</fix>
</trkpt>
<trkpt lat="40.0728134" lon="-105.2306146">
  <ele>1596.64</ele>
  <time>2026-08-28T19:12:28Z</time>
  <course>348.52</course>
  <speed>0.022360679774997897</speed>
  <fix>3d</fix>
</trkpt>
<trkpt lat="40.0728133" lon="-105.2306143">
  <ele>1596.57</ele>
  <time>2026-08-28T19:12:28Z</time>
  <course>336.74</course>
  <speed>0.0</speed>
  <fix>3d</fix>
</trkpt>
<trkpt lat="40.0728134" lon="-105.2306146">
  <ele>1596.65</ele>
  <time>2026-08-28T19:12:28Z</time>
  <course>348.5</course>
  <speed>0.022360679774997897</speed>
  <fix>3d</fix>
</trkpt>
<trkpt lat="40.0728133" lon="-105.2306143">
  <ele>1596.57</ele>
  <time>2026-08-28T19:12:28Z</time>
  <course>321.93</course>
  <speed>0.0</speed>
  <fix>3d</fix>
</trkpt>
<trkpt lat="40.0728134" lon="-105.2306146">
  <ele>1596.65</ele>
  <time>2026-08-28T19:12:28Z</time>
  <course>348.49</course>
  <speed>0.022360679774997897</speed>
  <fix>3d</fix>
</trkpt>
<trkpt lat="40.0728133" lon="-105.2306143">
  <ele>1596.57</ele>
  <time>2026-08-28T19:12:28Z</time>
  <course>308.21</course>
  <speed>0.0</speed>
  <fix>3d</fix>
</trkpt>
<trkpt lat="40.0728134" lon="-105.2306146">
  <ele>1596.65</ele>
  <time>2026-08-28T19:12:28Z</time>
  <course>348.48</course>
  <speed>0.022360679774997897</speed>
  <fix>3d</fix>
</trkpt>
<trkpt lat="40.0728133" lon="-105.2306143">
  <ele>1596.57</ele>
  <time>2026-08-28T19:12:28Z</time>
  <course>294.38</course>
  <speed>0.0</speed>
  <fix>3d</fix>
</trkpt>
<trkpt lat="40.0728134" lon="-105.2306146">
  <ele>1596.65</ele>
  <time>2026-08-28T19:12:28Z</time>
  <course>348.48</course>
  <speed>0.022360679774997897</speed>
  <fix>3d</fix>
</trkpt>
<trkpt lat="40.0728133" lon="-105.2306143">
  <ele>1596.58</ele>
  <time>2026-08-28T19:12:28Z</time>
  <course>281.4</course>
  <speed>0.0</speed>
  <fix>3d</fix>
</trkpt>
<trkpt lat="40.0728134" lon="-105.2306146">
  <ele>1596.65</ele>
  <time>2026-08-28T19:12:28Z</time>
  <course>348.48</course>
  <speed>0.022360679774997897</speed>
  <fix>3d</fix>
</trkpt>
<trkpt lat="40.0728133" lon="-105.2306143">
  <ele>1596.58</ele>
  <time>2026-08-28T19:12:28Z</time>
  <course>270.35</course>
  <speed>0.0</speed>
  <fix>3d</fix>
</trkpt>
<trkpt lat="40.0728134" lon="-105.2306146">
  <ele>1596.65</ele>
  <time>2026-08-28T19:12:28Z</time>
  <course>348.48</course>
  <speed>0.02</speed>
  <fix>3d</fix>
</trkpt>
<trkpt lat="40.0728133" lon="-105.2306143">
  <ele>1596.58</ele>
  <time>2026-08-28T19:12:28Z</time>
  <course>262.86</course>
  <speed>0.0</speed>
  <fix>3d</fix>
</trkpt>
<trkpt lat="40.0728134" lon="-105.2306146">
  <ele>1596.65</ele>
  <time>2026-08-28T19:12:28Z</time>
  <course>348.48</course>
  <speed>0.02</speed>
  <fix>3d</fix>
</trkpt>
<trkpt lat="40.0728133" lon="-105.2306143">
  <ele>1596.58</ele>
  <time>2026-08-28T19:12:28Z</time>
  <course>258.34</course>
  <speed>0.0</speed>
  <fix>3d</fix>
</trkpt>
<trkpt lat="40.0728134" lon="-105.2306146">
  <ele>1596.65</ele>
  <time>2026-08-28T19:12:28Z</time>
  <course>348.5</course>
  <speed>0.022360679774997897</speed>
  <fix>3d</fix>
</trkpt>
<trkpt lat="40.0728133" lon="-105.2306144">
  <ele>1596.58</ele>
  <time>2026-08-28T19:12:28Z</time>
  <course>258.59</course>
  <speed>0.0</speed>
  <fix>3d</fix>
</trkpt>
<trkpt lat="40.0728134" lon="-105.2306146">
  <ele>1596.65</ele>
  <time>2026-08-28T19:12:28Z</time>
  <course>348.49</course>
  <speed>0.022360679774997897</speed>
  <fix>3d</fix>
</trkpt>
<trkpt lat="40.0728133" lon="-105.2306145">
  <ele>1596.58</ele>
  <time>2026-08-28T19:12:28Z</time>
  <course>263.03</course>
  <speed>0.0</speed>
  <fix>3d</fix>
</trkpt>
<trkpt lat="40.0728134" lon="-105.2306146">
  <ele>1596.65</ele>
  <time>2026-08-28T19:12:28Z</time>
  <course>348.48</course>
  <speed>0.022360679774997897</speed>
  <fix>3d</fix>
</trkpt>
<trkpt lat="40.0728133" lon="-105.2306145">
  <ele>1596.58</ele>
  <time>2026-08-28T19:12:28Z</time>
  <course>268.7</course>
  <speed>0.0</speed>
  <fix>3d</fix>
</trkpt>
<trkpt lat="40.0728134" lon="-105.2306146">
  <ele>1596.65</ele>
  <time>2026-08-28T19:12:28Z</time>
  <course>348.48</course>
  <speed>0.022360679774997897</speed>
  <fix>3d</fix>
</trkpt>
<trkpt lat="40.0728133" lon="-105.2306145">
  <ele>1596.58</ele>
  <time>2026-08-28T19:12:28Z</time>
  <course>274.52</course>
  <speed>0.0</speed>
  <fix>3d</fix>
</trkpt>
<trkpt lat="40.0728134" lon="-105.2306146">
  <ele>1596.66</ele>
  <time>2026-08-28T19:12:28Z</time>
  <course>348.47</course>
  <speed>0.022360679774997897</speed>
  <fix>3d</fix>
</trkpt>
<trkpt lat="40.0728133" lon="-105.2306145">
  <ele>1596.58</ele>
  <time>2026-08-28T19:12:28Z</time>
  <course>280.4</course>
  <speed>0.0</speed>
  <fix>3d</fix>
</trkpt>
<trkpt lat="40.0728134" lon="-105.2306147">
  <ele>1596.66</ele>
  <time>2026-08-28T19:12:28Z</time>
  <course>348.48</course>
  <speed>0.022360679774997897</speed>
  <fix>3d</fix>
</trkpt>
<trkpt lat="40.0728133" lon="-105.2306145">
  <ele>1596.58</ele>
  <time>2026-08-28T19:12:28Z</time>
  <course>286.39</course>
  <speed>0.0</speed>
  <fix>3d</fix>
</trkpt>
<trkpt lat="40.0728134" lon="-105.2306147">
  <ele>1596.66</ele>
  <time>2026-08-28T19:12:28Z</time>
  <course>348.5</course>
  <speed>0.022360679774997897</speed>
  <fix>3d</fix>
</trkpt>
<trkpt lat="40.0728133" lon="-105.2306145">
  <ele>1596.58</ele>
  <time>2026-08-28T19:12:28Z</time>
  <course>295.24</course>
  <speed>0.0</speed>
  <fix>3d</fix>
</trkpt>
<trkpt lat="40.0728134" lon="-105.2306147">
  <ele>1596.66</ele>
  <time>2026-08-28T19:12:28Z</time>
  <course>348.52</course>
  <speed>0.022360679774997897</speed>
  <fix>3d</fix>
</trkpt>
<trkpt lat="40.0728133" lon="-105.2306145">
  <ele>1596.58</ele>
  <time>2026-08-28T19:12:28Z</time>
  <course>309.09</course>
  <speed>0.0</speed>
  <fix>3d</fix>
</trkpt>
<trkpt lat="40.0728134" lon="-105.2306147">
  <ele>1596.66</ele>
  <time>2026-08-28T19:12:28Z</time>
  <course>348.52</course>
  <speed>0.022360679774997897</speed>
  <fix>3d</fix>
</trkpt>
<trkpt lat="40.0728133" lon="-105.2306146">
  <ele>1596.58</ele>
  <time>2026-08-28T19:12:28Z</time>
  <course>327.18</course>
  <speed>0.0</speed>
  <fix>3d</fix>
</trkpt>
<trkpt lat="40.0728134" lon="-105.2306147">
  <ele>1596.66</ele>
  <time>2026-08-28T19:12:28Z</time>
  <course>348.54</course>
  <speed>0.022360679774997897</speed>
  <fix>3d</fix>
</trkpt>
<trkpt lat="40.0728133" lon="-105.2306146">
  <ele>1596.57</ele>
  <time>2026-08-28T19:12:28Z</time>
  <course>342.25</course>
  <speed>0.0</speed>
  <fix>3d</fix>
</trkpt>
<trkpt lat="40.0728134" lon="-105.2306147">
  <ele>1596.66</ele>
  <time>2026-08-28T19:12:28Z</time>
  <course>348.54</course>
  <speed>0.022360679774997897</speed>
  <fix>3d</fix>
</trkpt>
<trkpt lat="40.0728133" lon="-105.2306146">
  <ele>1596.57</ele>
  <time>2026-08-28T19:12:28Z</time>
  <course>352.93</course>
  <speed>0.0</speed>
  <fix>3d</fix>
</trkpt>
<trkpt lat="40.0728134" lon="-105.2306147">
  <ele>1596.66</ele>
  <time>2026-08-28T19:12:28Z</time>
  <course>348.54</course>
  <speed>0.022360679774997897</speed>
  <fix>3d</fix>
</trkpt>
<trkpt lat="40.0728133" lon="-105.2306146">
  <ele>1596.57</ele>
  <time>2026-08-28T19:12:28Z</time>
  <course>8.36</course>
  <speed>0.0</speed>
  <fix>3d</fix>
</trkpt>
<trkpt lat="40.0728134" lon="-105.2306147">
  <ele>1596.66</ele>
  <time>2026-08-28T19:12:28Z</time>
  <course>348.54</course>
  <speed>0.01414213562373095</speed>
  <fix>3d</fix>
</trkpt>
<trkpt lat="40.0728133" lon="-105.2306146">
  <ele>1596.57</ele>
  <time>2026-08-28T19:12:28Z</time>
  <course>25.96</course>
  <speed>0.0</speed>
  <fix>3d</fix>
</trkpt>
<trkpt lat="40.0728134" lon="-105.2306147">
  <ele>1596.66</ele>
  <time>2026-08-28T19:12:28Z</time>
  <course>348.55</course>
  <speed>0.01414213562373095</speed>
  <fix>3d</fix>
</trkpt>
<trkpt lat="40.0728133" lon="-105.2306146">
  <ele>1596.56</ele>
  <time>2026-08-28T19:12:28Z</time>
  <course>36.58</course>
  <speed>0.0</speed>
  <fix>3d</fix>
</trkpt>
<trkpt lat="40.0728134" lon="-105.2306147">
  <ele>1596.65</ele>
  <time>2026-08-28T19:12:28Z</time>
  <course>348.55</course>
  <speed>0.01414213562373095</speed>
  <fix>3d</fix>
</trkpt>
<trkpt lat="40.0728133" lon="-105.2306146">
  <ele>1596.56</ele>
  <time>2026-08-28T19:12:28Z</time>
  <course>45.52</course>
  <speed>0.0</speed>
  <fix>3d</fix>
</trkpt>
<trkpt lat="40.0728134" lon="-105.2306147">
  <ele>1596.65</ele>
  <time>2026-08-28T19:12:28Z</time>
  <course>348.53</course>
  <speed>0.01414213562373095</speed>
  <fix>3d</fix>
</trkpt>
<trkpt lat="40.0728133" lon="-105.2306146">
  <ele>1596.56</ele>
  <time>2026-08-28T19:12:28Z</time>
  <course>54.18</course>
  <speed>0.0</speed>
  <fix>3d</fix>
</trkpt>
<trkpt lat="40.0728134" lon="-105.2306147">
  <ele>1596.64</ele>
  <time>2026-08-28T19:12:28Z</time>
  <course>348.52</course>
  <speed>0.01414213562373095</speed>
  <fix>3d</fix>
</trkpt>
<trkpt lat="40.0728133" lon="-105.2306146">
  <ele>1596.56</ele>
  <time>2026-08-28T19:12:28Z</time>
  <course>59.72</course>
  <speed>0.0</speed>
  <fix>3d</fix>
</trkpt>
<trkpt lat="40.0728134" lon="-105.2306147">
  <ele>1596.64</ele>
  <time>2026-08-28T19:12:28Z</time>
  <course>348.51</course>
  <speed>0.01414213562373095</speed>
  <fix>3d</fix>
</trkpt>
<trkpt lat="40.0728133" lon="-105.2306146">
  <ele>1596.56</ele>
  <time>2026-08-28T19:12:28Z</time>
  <course>62.85</course>
  <speed>0.0</speed>
  <fix>3d</fix>
</trkpt>
<trkpt lat="40.0728134" lon="-105.2306147">
  <ele>1596.64</ele>
  <time>2026-08-28T19:12:28Z</time>
  <course>348.5</course>
  <speed>0.01414213562373095</speed>
  <fix>3d</fix>
</trkpt>
<trkpt lat="40.0728133" lon="-105.2306146">
  <ele>1596.56</ele>
  <time>2026-08-28T19:12:28Z</time>
  <course>65.42</course>
  <speed>0.0</speed>
  <fix>3d</fix>
</trkpt>
<trkpt lat="40.0728134" lon="-105.2306147">
  <ele>1596.64</ele>
  <time>2026-08-28T19:12:28Z</time>
  <course>348.49</course>
  <speed>0.01414213562373095</speed>
  <fix>3d</fix>
</trkpt>
<trkpt lat="40.0728133" lon="-105.2306146">
  <ele>1596.56</ele>
  <time>2026-08-28T19:12:28Z</time>
  <course>67.82</course>
  <speed>0.0</speed>
  <fix>3d</fix>
</trkpt>
<trkpt lat="40.0728134" lon="-105.2306147">
  <ele>1596.63</ele>
  <time>2026-08-28T19:12:28Z</time>
  <course>348.46</course>
  <speed>0.01414213562373095</speed>
  <fix>3d</fix>
</trkpt>
<trkpt lat="40.0728133" lon="-105.2306145">
  <ele>1596.56</ele>
  <time>2026-08-28T19:12:28Z</time>
  <course>70.91</course>
  <speed>0.0</speed>
  <fix>3d</fix>
</trkpt>
<trkpt lat="40.0728134" lon="-105.2306147">
  <ele>1596.63</ele>
  <time>2026-08-28T19:12:28Z</time>
  <course>348.43</course>
  <speed>0.01414213562373095</speed>
  <fix>3d</fix>
</trkpt>
<trkpt lat="40.0728133" lon="-105.2306145">
  <ele>1596.56</ele>
  <time>2026-08-28T19:12:28Z</time>
  <course>74.24</course>
  <speed>0.0</speed>
  <fix>3d</fix>
</trkpt>
<trkpt lat="40.0728134" lon="-105.2306147">
  <ele>1596.63</ele>
  <time>2026-08-28T19:12:28Z</time>
  <course>348.41</course>
  <speed>0.01414213562373095</speed>
  <fix>3d</fix>
</trkpt>
<trkpt lat="40.0728134" lon="-105.2306145">
  <ele>1596.56</ele>
  <time>2026-08-28T19:12:28Z</time>
  <course>76.63</course>
  <speed>0.0</speed>
  <fix>3d</fix>
</trkpt>
<trkpt lat="40.0728134" lon="-105.2306147">
  <ele>1596.64</ele>
  <time>2026-08-28T19:12:28Z</time>
  <course>348.4</course>
  <speed>0.01414213562373095</speed>
  <fix>3d</fix>
</trkpt>
<trkpt lat="40.0728134" lon="-105.2306145">
  <ele>1596.56</ele>
  <time>2026-08-28T19:12:28Z</time>
  <course>78.14</course>
  <speed>0.0</speed>
  <fix>3d</fix>
</trkpt>
<trkpt lat="40.0728134" lon="-105.2306147">
  <ele>1596.63</ele>
  <time>2026-08-28T19:12:28Z</time>
  <course>348.38</course>
  <speed>0.01414213562373095</speed>
  <fix>3d</fix>
</trkpt>
<trkpt lat="40.0728134" lon="-105.2306145">
  <ele>1596.57</ele>
  <time>2026-08-28T19:12:28Z</time>
  <course>79.4</course>
  <speed>0.0</speed>
  <fix>3d</fix>
</trkpt>
<trkpt lat="40.0728134" lon="-105.2306147">
  <ele>1596.63</ele>
  <time>2026-08-28T19:12:28Z</time>
  <course>348.38</course>
  <speed>0.01414213562373095</speed>
  <fix>3d</fix>
</trkpt>
<trkpt lat="40.0728134" lon="-105.2306145">
  <ele>1596.57</ele>
  <time>2026-08-28T19:12:28Z</time>
  <course>81.92</course>
  <speed>0.0</speed>
  <fix>3d</fix>
</trkpt>
<trkpt lat="40.0728134" lon="-105.2306147">
  <ele>1596.64</ele>
  <time>2026-08-28T19:12:28Z</time>
  <course>348.37</course>
  <speed>0.022360679774997897</speed>
  <fix>3d</fix>
</trkpt>
<trkpt lat="40.0728134" lon="-105.2306144">
  <ele>1596.57</ele>
  <time>2026-08-28T19:12:28Z</time>
  <course>88.22</course>
  <speed>0.0</speed>
  <fix>3d</fix>
</trkpt>
<trkpt lat="40.0728134" lon="-105.2306147">
  <ele>1596.64</ele>
  <time>2026-08-28T19:12:28Z</time>
  <course>348.37</course>
  <speed>0.02</speed>
  <fix>3d</fix>
</trkpt>
<trkpt lat="40.0728134" lon="-105.2306143">
  <ele>1596.58</ele>
  <time>2026-08-28T19:12:28Z</time>
  <course>100.27</course>
  <speed>0.0</speed>
  <fix>3d</fix>
</trkpt>
<trkpt lat="40.0728134" lon="-105.2306147">
  <ele>1596.65</ele>
  <time>2026-08-28T19:12:28Z</time>
  <course>348.37</course>
  <speed>0.02</speed>
  <fix>3d</fix>
</trkpt>
<trkpt lat="40.0728134" lon="-105.2306143">
  <ele>1596.58</ele>
  <time>2026-08-28T19:12:28Z</time>
  <course>114.66</course>
  <speed>0.0</speed>
  <fix>3d</fix>
</trkpt>
<trkpt lat="40.0728134" lon="-105.2306146">
  <ele>1596.66</ele>
  <time>2026-08-28T19:12:28Z</time>
  <course>348.38</course>
  <speed>0.022360679774997897</speed>
  <fix>3d</fix>
</trkpt>
<trkpt lat="40.0728134" lon="-105.2306143">
  <ele>1596.58</ele>
  <time>2026-08-28T19:12:28Z</time>
  <course>123.85</course>
  <speed>0.0</speed>
  <fix>3d</fix>
</trkpt>
<trkpt lat="40.0728134" lon="-105.2306146">
  <ele>1596.66</ele>
  <time>2026-08-28T19:12:28Z</time>
  <course>348.4</course>
  <speed>0.022360679774997897</speed>
  <fix>3d</fix>
</trkpt>
<trkpt lat="40.0728134" lon="-105.2306143">
  <ele>1596.59</ele>
  <time>2026-08-28T19:12:28Z</time>
  <course>135.39</course>
  <speed>0.0</speed>
  <fix>3d</fix>
</trkpt>
<trkpt lat="40.0728134" lon="-105.2306146">
  <ele>1596.66</ele>
  <time>2026-08-28T19:12:28Z</time>
  <course>348.42</course>
  <speed>0.02</speed>
  <fix>3d</fix>
</trkpt>
<trkpt lat="40.0728134" lon="-105.2306143">
  <ele>1596.59</ele>
  <time>2026-08-28T19:12:28Z</time>
  <course>162.45</course>
  <speed>0.0</speed>
  <fix>3d</fix>
</trkpt>
<trkpt lat="40.0728134" lon="-105.2306146">
  <ele>1596.66</ele>
  <time>2026-08-28T19:12:28Z</time>
  <course>348.45</course>
  <speed>0.02</speed>
  <fix>3d</fix>
</trkpt>
<trkpt lat="40.0728134" lon="-105.2306143">
  <ele>1596.59</ele>
  <time>2026-08-28T19:12:28Z</time>
  <course>183.97</course>
  <speed>0.0</speed>
  <fix>3d</fix>
</trkpt>
<trkpt lat="40.0728134" lon="-105.2306146">
  <ele>1596.66</ele>
  <time>2026-08-28T19:12:28Z</time>
  <course>348.46</course>
  <speed>0.02</speed>
  <fix>3d</fix>
</trkpt>
<trkpt lat="40.0728134" lon="-105.2306143">
  <ele>1596.59</ele>
  <time>2026-08-28T19:12:28Z</time>
  <course>194.01</course>
  <speed>0.0</speed>
  <fix>3d</fix>
</trkpt>
<trkpt lat="40.0728134" lon="-105.2306146">
  <ele>1596.66</ele>
  <time>2026-08-28T19:12:28Z</time>
  <course>348.47</course>
  <speed>0.02</speed>
  <fix>3d</fix>
</trkpt>
<trkpt lat="40.0728134" lon="-105.2306143">
  <ele>1596.59</ele>
  <time>2026-08-28T19:12:28Z</time>
  <course>202.65</course>
  <speed>0.0</speed>
  <fix>3d</fix>
</trkpt>
<trkpt lat="40.0728134" lon="-105.2306146">
  <ele>1596.66</ele>
  <time>2026-08-28T19:12:28Z</time>
  <course>348.48</course>
  <speed>0.02</speed>
  <fix>3d</fix>
</trkpt>
<trkpt lat="40.0728134" lon="-105.2306143">
  <ele>1596.59</ele>
  <time>2026-08-28T19:12:28Z</time>
  <course>210.52</course>
  <speed>0.0</speed>
  <fix>3d</fix>
</trkpt>
<trkpt lat="40.0728134" lon="-105.2306146">
  <ele>1596.66</ele>
  <time>2026-08-28T19:12:28Z</time>
  <course>348.48</course>
  <speed>0.02</speed>
  <fix>3d</fix>
</trkpt>
<trkpt lat="40.0728134" lon="-105.2306143">
  <ele>1596.58</ele>
  <time>2026-08-28T19:12:28Z</time>
  <course>215.1</course>
  <speed>0.0</speed>
  <fix>3d</fix>
</trkpt>
<trkpt lat="40.0728134" lon="-105.2306146">
  <ele>1596.66</ele>
  <time>2026-08-28T19:12:28Z</time>
  <course>348.48</course>
  <speed>0.02</speed>
  <fix>3d</fix>
</trkpt>
<trkpt lat="40.0728134" lon="-105.2306143">
  <ele>1596.58</ele>
  <time>2026-08-28T19:12:28Z</time>
  <course>220.06</course>
  <speed>0.0</speed>
  <fix>3d</fix>
</trkpt>
<trkpt lat="40.0728134" lon="-105.2306146">
  <ele>1596.66</ele>
  <time>2026-08-28T19:12:28Z</time>
  <course>348.49</course>
  <speed>0.02</speed>
  <fix>3d</fix>
</trkpt>
<trkpt lat="40.0728134" lon="-105.2306143">
  <ele>1596.58</ele>
  <time>2026-08-28T19:12:28Z</time>
  <course>223.41</course>
  <speed>0.0</speed>
  <fix>3d</fix>
</trkpt>
<trkpt lat="40.0728134" lon="-105.2306146">
  <ele>1596.66</ele>
  <time>2026-08-28T19:12:28Z</time>
  <course>348.5</course>
  <speed>0.02</speed>
  <fix>3d</fix>
</trkpt>
<trkpt lat="40.0728134" lon="-105.2306143">
  <ele>1596.58</ele>
  <time>2026-08-28T19:12:28Z</time>
  <course>225.33</course>
  <speed>0.0</speed>
  <fix>3d</fix>
</trkpt>
<trkpt lat="40.0728134" lon="-105.2306146">
  <ele>1596.67</ele>
  <time>2026-08-28T19:12:28Z</time>
  <course>348.5</course>
  <speed>0.02</speed>
  <fix>3d</fix>
</trkpt>
<trkpt lat="40.0728134" lon="-105.2306143">
  <ele>1596.58</ele>
  <time>2026-08-28T19:12:28Z</time>
  <course>227.67</course>
  <speed>0.0</speed>
  <fix>3d</fix>
</trkpt>
<trkpt lat="40.0728134" lon="-105.2306146">
  <ele>1596.66</ele>
  <time>2026-08-28T19:12:28Z</time>
  <course>348.51</course>
  <speed>0.02</speed>
  <fix>3d</fix>
</trkpt>
<trkpt lat="40.0728134" lon="-105.2306143">
  <ele>1596.58</ele>
  <time>2026-08-28T19:12:28Z</time>
  <course>230.2</course>
  <speed>0.0</speed>
  <fix>3d</fix>
</trkpt>
<trkpt lat="40.0728134" lon="-105.2306146">
  <ele>1596.66</ele>
  <time>2026-08-28T19:12:28Z</time>
  <course>348.51</course>
  <speed>0.022360679774997897</speed>
  <fix>3d</fix>
</trkpt>
<trkpt lat="40.0728133" lon="-105.2306143">
  <ele>1596.57</ele>
  <time>2026-08-28T19:12:28Z</time>
  <course>232.73</course>
  <speed>0.0</speed>
  <fix>3d</fix>
</trkpt>
<trkpt lat="40.0728134" lon="-105.2306146">
  <ele>1596.66</ele>
  <time>2026-08-28T19:12:28Z</time>
  <course>348.51</course>
  <speed>0.022360679774997897</speed>
  <fix>3d</fix>
</trkpt>
<trkpt lat="40.0728133" lon="-105.2306143">
  <ele>1596.57</ele>
  <time>2026-08-28T19:12:28Z</time>
  <course>234.69</course>
  <speed>0.0</speed>
  <fix>3d</fix>
</trkpt>
<trkpt lat="40.0728134" lon="-105.2306146">
  <ele>1596.66</ele>
  <time>2026-08-28T19:12:28Z</time>
  <course>348.51</course>
  <speed>0.022360679774997897</speed>
  <fix>3d</fix>
</trkpt>
<trkpt lat="40.0728133" lon="-105.2306143">
  <ele>1596.57</ele>
  <time>2026-08-28T19:12:28Z</time>
  <course>236.86</course>
  <speed>0.0</speed>
  <fix>3d</fix>
</trkpt>
<trkpt lat="40.0728134" lon="-105.2306146">
  <ele>1596.66</ele>
  <time>2026-08-28T19:12:29Z</time>
  <course>348.51</course>
  <speed>0.022360679774997897</speed>
  <fix>3d</fix>
</trkpt>
<trkpt lat="40.0728133" lon="-105.2306144">
  <ele>1596.56</ele>
  <time>2026-08-28T19:12:29Z</time>
  <course>240.67</course>
  <speed>0.0</speed>
  <fix>3d</fix>
</trkpt>
<trkpt lat="40.0728134" lon="-105.2306146">
  <ele>1596.66</ele>
  <time>2026-08-28T19:12:29Z</time>
  <course>348.51</course>
  <speed>0.022360679774997897</speed>
  <fix>3d</fix>
</trkpt>
<trkpt lat="40.0728133" lon="-105.2306145">
  <ele>1596.56</ele>
  <time>2026-08-28T19:12:29Z</time>
  <course>246.2</course>
  <speed>0.0</speed>
  <fix>3d</fix>
</trkpt>
<trkpt lat="40.0728134" lon="-105.2306146">
  <ele>1596.66</ele>
  <time>2026-08-28T19:12:29Z</time>
  <course>348.51</course>
  <speed>0.022360679774997897</speed>
  <fix>3d</fix>
</trkpt>
<trkpt lat="40.0728133" lon="-105.2306145">
  <ele>1596.56</ele>
  <time>2026-08-28T19:12:29Z</time>
  <course>252.02</course>
  <speed>0.0</speed>
  <fix>3d</fix>
</trkpt>
<trkpt lat="40.0728134" lon="-105.2306146">
  <ele>1596.66</ele>
  <time>2026-08-28T19:12:29Z</time>
  <course>348.51</course>
  <speed>0.022360679774997897</speed>
  <fix>3d</fix>
</trkpt>
<trkpt lat="40.0728133" lon="-105.2306145">
  <ele>1596.56</ele>
  <time>2026-08-28T19:12:29Z</time>
  <course>256.1</course>
  <speed>0.0</speed>
  <fix>3d</fix>
</trkpt>
<trkpt lat="40.0728134" lon="-105.2306146">
  <ele>1596.66</ele>
  <time>2026-08-28T19:12:29Z</time>
  <course>348.51</course>
  <speed>0.022360679774997897</speed>
  <fix>3d</fix>
</trkpt>
<trkpt lat="40.0728133" lon="-105.2306145">
  <ele>1596.55</ele>
  <time>2026-08-28T19:12:29Z</time>
  <course>259.73</course>
  <speed>0.0</speed>
  <fix>3d</fix>
</trkpt>
<trkpt lat="40.0728134" lon="-105.2306147">
  <ele>1596.66</ele>
  <time>2026-08-28T19:12:29Z</time>
  <course>348.51</course>
  <speed>0.022360679774997897</speed>
  <fix>3d</fix>
</trkpt>
<trkpt lat="40.0728133" lon="-105.2306145">
  <ele>1596.55</ele>
  <time>2026-08-28T19:12:29Z</time>
  <course>264.87</course>
  <speed>0.0</speed>
  <fix>3d</fix>
</trkpt>
<trkpt lat="40.0728134" lon="-105.2306147">
  <ele>1596.66</ele>
  <time>2026-08-28T19:12:29Z</time>
  <course>348.51</course>
  <speed>0.022360679774997897</speed>
  <fix>3d</fix>
</trkpt>
<trkpt lat="40.0728133" lon="-105.2306145">
  <ele>1596.55</ele>
  <time>2026-08-28T19:12:29Z</time>
  <course>271.39</course>
  <speed>0.0</speed>
  <fix>3d</fix>
</trkpt>
<trkpt lat="40.0728134" lon="-105.2306147">
  <ele>1596.66</ele>
  <time>2026-08-28T19:12:29Z</time>
  <course>348.51</course>
  <speed>0.022360679774997897</speed>
  <fix>3d</fix>
</trkpt>
<trkpt lat="40.0728133" lon="-105.2306146">
  <ele>1596.55</ele>
  <time>2026-08-28T19:12:29Z</time>
  <course>281.71</course>
  <speed>0.0</speed>
  <fix>3d</fix>
</trkpt>
<trkpt lat="40.0728134" lon="-105.2306147">
  <ele>1596.65</ele>
  <time>2026-08-28T19:12:29Z</time>
  <course>348.51</course>
  <speed>0.022360679774997897</speed>
  <fix>3d</fix>
</trkpt>
<trkpt lat="40.0728133" lon="-105.2306146">
  <ele>1596.54</ele>
  <time>2026-08-28T19:12:29Z</time>
  <course>296.04</course>
  <speed>0.0</speed>
  <fix>3d</fix>
</trkpt>
<trkpt lat="40.0728134" lon="-105.2306147">
  <ele>1596.65</ele>
  <time>2026-08-28T19:12:29Z</time>
  <course>348.49</course>
  <speed>0.022360679774997897</speed>
  <fix>3d</fix>
</trkpt>
<trkpt lat="40.0728133" lon="-105.2306146">
  <ele>1596.54</ele>
  <time>2026-08-28T19:12:29Z</time>
  <course>336.18</course>
  <speed>0.0</speed>
  <fix>3d</fix>
</trkpt>
<trkpt lat="40.0728134" lon="-105.2306147">
  <ele>1596.65</ele>
  <time>2026-08-28T19:12:29Z</time>
  <course>348.47</course>
  <speed>0.022360679774997897</speed>
  <fix>3d</fix>
</trkpt>
<trkpt lat="40.0728133" lon="-105.2306146">
  <ele>1596.54</ele>
  <time>2026-08-28T19:12:29Z</time>
  <course>19.69</course>
  <speed>0.0</speed>
  <fix>3d</fix>
</trkpt>
<trkpt lat="40.0728134" lon="-105.2306147">
  <ele>1596.65</ele>
  <time>2026-08-28T19:12:29Z</time>
  <course>348.45</course>
  <speed>0.022360679774997897</speed>
  <fix>3d</fix>
</trkpt>
<trkpt lat="40.0728133" lon="-105.2306146">
  <ele>1596.54</ele>
  <time>2026-08-28T19:12:29Z</time>
  <course>41.32</course>
  <speed>0.0</speed>
  <fix>3d</fix>
</trkpt>
<trkpt lat="40.0728134" lon="-105.2306147">
  <ele>1596.64</ele>
  <time>2026-08-28T19:12:29Z</time>
  <course>348.44</course>
  <speed>0.01414213562373095</speed>
  <fix>3d</fix>
</trkpt>
<trkpt lat="40.0728133" lon="-105.2306146">
  <ele>1596.54</ele>
  <time>2026-08-28T19:12:29Z</time>
  <course>55.24</course>
  <speed>0.0</speed>
  <fix>3d</fix>
</trkpt>
<trkpt lat="40.0728134" lon="-105.2306147">
  <ele>1596.64</ele>
  <time>2026-08-28T19:12:29Z</time>
  <course>348.43</course>
  <speed>0.01414213562373095</speed>
  <fix>3d</fix>
</trkpt>
<trkpt lat="40.0728133" lon="-105.2306146">
  <ele>1596.54</ele>
  <time>2026-08-28T19:12:29Z</time>
  <course>64.34</course>
  <speed>0.0</speed>
  <fix>3d</fix>
</trkpt>
<trkpt lat="40.0728134" lon="-105.2306147">
  <ele>1596.63</ele>
  <time>2026-08-28T19:12:29Z</time>
  <course>348.42</course>
  <speed>0.01414213562373095</speed>
  <fix>3d</fix>
</trkpt>
<trkpt lat="40.0728133" lon="-105.2306146">
  <ele>1596.54</ele>
  <time>2026-08-28T19:12:29Z</time>
  <course>70.75</course>
  <speed>0.0</speed>
  <fix>3d</fix>
</trkpt>
<trkpt lat="40.0728134" lon="-105.2306147">
  <ele>1596.63</ele>
  <time>2026-08-28T19:12:29Z</time>
  <course>348.4</course>
  <speed>0.01414213562373095</speed>
  <fix>3d</fix>
</trkpt>
<trkpt lat="40.0728133" lon="-105.2306146">
  <ele>1596.54</ele>
  <time>2026-08-28T19:12:29Z</time>
  <course>72.82</course>
  <speed>0.0</speed>
  <fix>3d</fix>
</trkpt>
<trkpt lat="40.0728134" lon="-105.2306147">
  <ele>1596.63</ele>
  <time>2026-08-28T19:12:29Z</time>
  <course>348.37</course>
  <speed>0.01414213562373095</speed>
  <fix>3d</fix>
</trkpt>
<trkpt lat="40.0728133" lon="-105.2306146">
  <ele>1596.54</ele>
  <time>2026-08-28T19:12:29Z</time>
  <course>71.92</course>
  <speed>0.0</speed>
  <fix>3d</fix>
</trkpt>
<trkpt lat="40.0728134" lon="-105.2306147">
  <ele>1596.64</ele>
  <time>2026-08-28T19:12:29Z</time>
  <course>348.35</course>
  <speed>0.01414213562373095</speed>
  <fix>3d</fix>
</trkpt>
<trkpt lat="40.0728133" lon="-105.2306146">
  <ele>1596.54</ele>
  <time>2026-08-28T19:12:29Z</time>
  <course>71.48</course>
  <speed>0.0</speed>
  <fix>3d</fix>
</trkpt>
<trkpt lat="40.0728134" lon="-105.2306147">
  <ele>1596.64</ele>
  <time>2026-08-28T19:12:29Z</time>
  <course>348.34</course>
  <speed>0.01414213562373095</speed>
  <fix>3d</fix>
</trkpt>
<trkpt lat="40.0728133" lon="-105.2306146">
  <ele>1596.55</ele>
  <time>2026-08-28T19:12:29Z</time>
  <course>72.41</course>
  <speed>0.0</speed>
  <fix>3d</fix>
</trkpt>
<trkpt lat="40.0728134" lon="-105.2306147">
  <ele>1596.64</ele>
  <time>2026-08-28T19:12:29Z</time>
  <course>348.34</course>
  <speed>0.01414213562373095</speed>
  <fix>3d</fix>
</trkpt>
<trkpt lat="40.0728133" lon="-105.2306146">
  <ele>1596.55</ele>
  <time>2026-08-28T19:12:29Z</time>
  <course>75.73</course>
  <speed>0.0</speed>
  <fix>3d</fix>
</trkpt>
<trkpt lat="40.0728134" lon="-105.2306147">
  <ele>1596.64</ele>
  <time>2026-08-28T19:12:29Z</time>
  <course>348.34</course>
  <speed>0.01414213562373095</speed>
  <fix>3d</fix>
</trkpt>
<trkpt lat="40.0728133" lon="-105.2306145">
  <ele>1596.55</ele>
  <time>2026-08-28T19:12:29Z</time>
  <course>78.44</course>
  <speed>0.0</speed>
  <fix>3d</fix>
</trkpt>
<trkpt lat="40.0728134" lon="-105.2306147">
  <ele>1596.64</ele>
  <time>2026-08-28T19:12:29Z</time>
  <course>348.34</course>
  <speed>0.01414213562373095</speed>
  <fix>3d</fix>
</trkpt>
<trkpt lat="40.0728133" lon="-105.2306145">
  <ele>1596.56</ele>
  <time>2026-08-28T19:12:29Z</time>
  <course>77.36</course>
  <speed>0.0</speed>
  <fix>3d</fix>
</trkpt>
<trkpt lat="40.0728134" lon="-105.2306147">
  <ele>1596.64</ele>
  <time>2026-08-28T19:12:29Z</time>
  <course>348.34</course>
  <speed>0.01414213562373095</speed>
  <fix>3d</fix>
</trkpt>
<trkpt lat="40.0728133" lon="-105.2306145">
  <ele>1596.56</ele>
  <time>2026-08-28T19:12:29Z</time>
  <course>74.8</course>
  <speed>0.0</speed>
  <fix>3d</fix>
</trkpt>
<trkpt lat="40.0728134" lon="-105.2306147">
  <ele>1596.64</ele>
  <time>2026-08-28T19:12:29Z</time>
  <course>348.33</course>
  <speed>0.01414213562373095</speed>
  <fix>3d</fix>
</trkpt>
<trkpt lat="40.0728133" lon="-105.2306145">
  <ele>1596.56</ele>
  <time>2026-08-28T19:12:29Z</time>
  <course>72.54</course>
  <speed>0.0</speed>
  <fix>3d</fix>
</trkpt>
<trkpt lat="40.0728134" lon="-105.2306147">
  <ele>1596.64</ele>
  <time>2026-08-28T19:12:29Z</time>
  <course>348.32</course>
  <speed>0.01414213562373095</speed>
  <fix>3d</fix>
</trkpt>
<trkpt lat="40.0728133" lon="-105.2306145">
  <ele>1596.56</ele>
  <time>2026-08-28T19:12:29Z</time>
  <course>71.38</course>
  <speed>0.0</speed>
  <fix>3d</fix>
</trkpt>
<trkpt lat="40.0728134" lon="-105.2306147">
  <ele>1596.65</ele>
  <time>2026-08-28T19:12:29Z</time>
  <course>348.32</course>
  <speed>0.01414213562373095</speed>
  <fix>3d</fix>
</trkpt>
<trkpt lat="40.0728133" lon="-105.2306145">
  <ele>1596.57</ele>
  <time>2026-08-28T19:12:29Z</time>
  <course>70.73</course>
  <speed>0.0</speed>
  <fix>3d</fix>
</trkpt>
<trkpt lat="40.0728134" lon="-105.2306147">
  <ele>1596.65</ele>
  <time>2026-08-28T19:12:29Z</time>
  <course>348.33</course>
  <speed>0.022360679774997897</speed>
  <fix>3d</fix>
</trkpt>
<trkpt lat="40.0728133" lon="-105.2306144">
  <ele>1596.57</ele>
  <time>2026-08-28T19:12:29Z</time>
  <course>68.31</course>
  <speed>0.0</speed>
  <fix>3d</fix>
</trkpt>
<trkpt lat="40.0728134" lon="-105.2306147">
  <ele>1596.65</ele>
  <time>2026-08-28T19:12:29Z</time>
  <course>348.35</course>
  <speed>0.022360679774997897</speed>
  <fix>3d</fix>
</trkpt>
<trkpt lat="40.0728133" lon="-105.2306143">
  <ele>1596.57</ele>
  <time>2026-08-28T19:12:29Z</time>
  <course>63.95</course>
  <speed>0.0</speed>
  <fix>3d</fix>
</trkpt>
<trkpt lat="40.0728134" lon="-105.2306147">
  <ele>1596.64</ele>
  <time>2026-08-28T19:12:29Z</time>
  <course>348.36</course>
  <speed>0.022360679774997897</speed>
  <fix>3d</fix>
</trkpt>
<trkpt lat="40.0728133" lon="-105.2306143">
  <ele>1596.57</ele>
  <time>2026-08-28T19:12:29Z</time>
  <course>58.95</course>
  <speed>0.0</speed>
  <fix>3d</fix>
</trkpt>
<trkpt lat="40.0728134" lon="-105.2306147">
  <ele>1596.64</ele>
  <time>2026-08-28T19:12:29Z</time>
  <course>348.35</course>
  <speed>0.022360679774997897</speed>
  <fix>3d</fix>
</trkpt>
<trkpt lat="40.0728133" lon="-105.2306143">
  <ele>1596.57</ele>
  <time>2026-08-28T19:12:29Z</time>
  <course>53.58</course>
  <speed>0.0</speed>
  <fix>3d</fix>
</trkpt>
<trkpt lat="40.0728134" lon="-105.2306147">
  <ele>1596.65</ele>
  <time>2026-08-28T19:12:29Z</time>
  <course>348.34</course>
  <speed>0.022360679774997897</speed>
  <fix>3d</fix>
</trkpt>
<trkpt lat="40.0728133" lon="-105.2306143">
  <ele>1596.57</ele>
  <time>2026-08-28T19:12:29Z</time>
  <course>43.35</course>
  <speed>0.0</speed>
  <fix>3d</fix>
</trkpt>
<trkpt lat="40.0728134" lon="-105.2306146">
  <ele>1596.65</ele>
  <time>2026-08-28T19:12:29Z</time>
  <course>348.34</course>
  <speed>0.022360679774997897</speed>
  <fix>3d</fix>
</trkpt>
<trkpt lat="40.0728133" lon="-105.2306143">
  <ele>1596.58</ele>
  <time>2026-08-28T19:12:29Z</time>
  <course>20.01</course>
  <speed>0.0</speed>
  <fix>3d</fix>
</trkpt>
<trkpt lat="40.0728134" lon="-105.2306146">
  <ele>1596.65</ele>
  <time>2026-08-28T19:12:29Z</time>
  <course>348.34</course>
  <speed>0.022360679774997897</speed>
  <fix>3d</fix>
</trkpt>
<trkpt lat="40.0728133" lon="-105.2306143">
  <ele>1596.58</ele>
  <time>2026-08-28T19:12:29Z</time>
  <course>347.2</course>
  <speed>0.0</speed>
  <fix>3d</fix>
</trkpt>
<trkpt lat="40.0728134" lon="-105.2306146">
  <ele>1596.65</ele>
  <time>2026-08-28T19:12:29Z</time>
  <course>348.35</course>
  <speed>0.022360679774997897</speed>
  <fix>3d</fix>
</trkpt>
<trkpt lat="40.0728133" lon="-105.2306143">
  <ele>1596.58</ele>
  <time>2026-08-28T19:12:29Z</time>
  <course>320.87</course>
  <speed>0.0</speed>
  <fix>3d</fix>
</trkpt>
<trkpt lat="40.0728134" lon="-105.2306146">
  <ele>1596.65</ele>
  <time>2026-08-28T19:12:29Z</time>
  <course>348.34</course>
  <speed>0.022360679774997897</speed>
  <fix>3d</fix>
</trkpt>
<trkpt lat="40.0728133" lon="-105.2306143">
  <ele>1596.58</ele>
  <time>2026-08-28T19:12:29Z</time>
  <course>308.27</course>
  <speed>0.0</speed>
  <fix>3d</fix>
</trkpt>
<trkpt lat="40.0728134" lon="-105.2306146">
  <ele>1596.65</ele>
  <time>2026-08-28T19:12:29Z</time>
  <course>348.34</course>
  <speed>0.022360679774997897</speed>
  <fix>3d</fix>
</trkpt>
<trkpt lat="40.0728133" lon="-105.2306143">
  <ele>1596.58</ele>
  <time>2026-08-28T19:12:29Z</time>
  <course>300.42</course>
  <speed>0.0</speed>
  <fix>3d</fix>
</trkpt>
<trkpt lat="40.0728134" lon="-105.2306146">
  <ele>1596.66</ele>
  <time>2026-08-28T19:12:29Z</time>
  <course>348.34</course>
  <speed>0.022360679774997897</speed>
  <fix>3d</fix>
</trkpt>
<trkpt lat="40.0728133" lon="-105.2306143">
  <ele>1596.58</ele>
  <time>2026-08-28T19:12:29Z</time>
  <course>293.57</course>
  <speed>0.0</speed>
  <fix>3d</fix>
</trkpt>
<trkpt lat="40.0728134" lon="-105.2306146">
  <ele>1596.65</ele>
  <time>2026-08-28T19:12:29Z</time>
  <course>348.35</course>
  <speed>0.022360679774997897</speed>
  <fix>3d</fix>
</trkpt>
<trkpt lat="40.0728133" lon="-105.2306143">
  <ele>1596.58</ele>
  <time>2026-08-28T19:12:29Z</time>
  <course>289.08</course>
  <speed>0.0</speed>
  <fix>3d</fix>
</trkpt>
<trkpt lat="40.0728134" lon="-105.2306146">
  <ele>1596.66</ele>
  <time>2026-08-28T19:12:29Z</time>
  <course>348.36</course>
  <speed>0.022360679774997897</speed>
  <fix>3d</fix>
</trkpt>
<trkpt lat="40.0728133" lon="-105.2306143">
  <ele>1596.59</ele>
  <time>2026-08-28T19:12:29Z</time>
  <course>287.81</course>
  <speed>0.0</speed>
  <fix>3d</fix>
</trkpt>
<trkpt lat="40.0728134" lon="-105.2306146">
  <ele>1596.66</ele>
  <time>2026-08-28T19:12:29Z</time>
  <course>348.37</course>
  <speed>0.022360679774997897</speed>
  <fix>3d</fix>
</trkpt>
<trkpt lat="40.0728133" lon="-105.2306143">
  <ele>1596.59</ele>
  <time>2026-08-28T19:12:29Z</time>
  <course>289.87</course>
  <speed>0.0</speed>
  <fix>3d</fix>
</trkpt>
<trkpt lat="40.0728134" lon="-105.2306146">
  <ele>1596.66</ele>
  <time>2026-08-28T19:12:29Z</time>
  <course>348.39</course>
  <speed>0.022360679774997897</speed>
  <fix>3d</fix>
</trkpt>
<trkpt lat="40.0728133" lon="-105.2306143">
  <ele>1596.59</ele>
  <time>2026-08-28T19:12:29Z</time>
  <course>294.94</course>
  <speed>0.0</speed>
  <fix>3d</fix>
</trkpt>
<trkpt lat="40.0728134" lon="-105.2306146">
  <ele>1596.65</ele>
  <time>2026-08-28T19:12:29Z</time>
  <course>348.39</course>
  <speed>0.022360679774997897</speed>
  <fix>3d</fix>
</trkpt>
<trkpt lat="40.0728133" lon="-105.2306143">
  <ele>1596.58</ele>
  <time>2026-08-28T19:12:29Z</time>
  <course>300.93</course>
  <speed>0.0</speed>
  <fix>3d</fix>
</trkpt>
<trkpt lat="40.0728134" lon="-105.2306146">
  <ele>1596.65</ele>
  <time>2026-08-28T19:12:29Z</time>
  <course>348.4</course>
  <speed>0.022360679774997897</speed>
  <fix>3d</fix>
</trkpt>
<trkpt lat="40.0728133" lon="-105.2306143">
  <ele>1596.58</ele>
  <time>2026-08-28T19:12:29Z</time>
  <course>305.58</course>
  <speed>0.0</speed>
  <fix>3d</fix>
</trkpt>
<trkpt lat="40.0728134" lon="-105.2306146">
  <ele>1596.65</ele>
  <time>2026-08-28T19:12:29Z</time>
  <course>348.39</course>
  <speed>0.022360679774997897</speed>
  <fix>3d</fix>
</trkpt>
<trkpt lat="40.0728134" lon="-105.2306143">
  <ele>1596.58</ele>
  <time>2026-08-28T19:12:29Z</time>
  <course>307.12</course>
  <speed>0.0</speed>
  <fix>3d</fix>
</trkpt>
<trkpt lat="40.0728134" lon="-105.2306146">
  <ele>1596.65</ele>
  <time>2026-08-28T19:12:29Z</time>
  <course>348.37</course>
  <speed>0.022360679774997897</speed>
  <fix>3d</fix>
</trkpt>
<trkpt lat="40.0728134" lon="-105.2306144">
  <ele>1596.58</ele>
  <time>2026-08-28T19:12:29Z</time>
  <course>306.41</course>
  <speed>0.0</speed>
  <fix>3d</fix>
</trkpt>
<trkpt lat="40.0728134" lon="-105.2306146">
  <ele>1596.65</ele>
  <time>2026-08-28T19:12:29Z</time>
  <course>348.37</course>
  <speed>0.022360679774997897</speed>
  <fix>3d</fix>
</trkpt>
<trkpt lat="40.0728134" lon="-105.2306145">
  <ele>1596.58</ele>
  <time>2026-08-28T19:12:29Z</time>
  <course>303.6</course>
  <speed>0.0</speed>
  <fix>3d</fix>
</trkpt>
<trkpt lat="40.0728134" lon="-105.2306146">
  <ele>1596.65</ele>
  <time>2026-08-28T19:12:29Z</time>
  <course>348.36</course>
  <speed>0.022360679774997897</speed>
  <fix>3d</fix>
</trkpt>
<trkpt lat="40.0728134" lon="-105.2306145">
  <ele>1596.58</ele>
  <time>2026-08-28T19:12:29Z</time>
  <course>296.82</course>
  <speed>0.0</speed>
  <fix>3d</fix>
</trkpt>
<trkpt lat="40.0728134" lon="-105.2306146">
  <ele>1596.64</ele>
  <time>2026-08-28T19:12:29Z</time>
  <course>348.35</course>
  <speed>0.022360679774997897</speed>
  <fix>3d</fix>
</trkpt>
<trkpt lat="40.0728134" lon="-105.2306145">
  <ele>1596.58</ele>
  <time>2026-08-28T19:12:29Z</time>
  <course>288.04</course>
  <speed>0.0</speed>
  <fix>3d</fix>
</trkpt>
<trkpt lat="40.0728134" lon="-105.2306146">
  <ele>1596.64</ele>
  <time>2026-08-28T19:12:29Z</time>
  <course>348.35</course>
  <speed>0.022360679774997897</speed>
  <fix>3d</fix>
</trkpt>
<trkpt lat="40.0728134" lon="-105.2306145">
  <ele>1596.58</ele>
  <time>2026-08-28T19:12:29Z</time>
  <course>279.5</course>
  <speed>0.0</speed>
  <fix>3d</fix>
</trkpt>
<trkpt lat="40.0728134" lon="-105.2306147">
  <ele>1596.64</ele>
  <time>2026-08-28T19:12:29Z</time>
  <course>348.34</course>
  <speed>0.022360679774997897</speed>
  <fix>3d</fix>
</trkpt>
<trkpt lat="40.0728134" lon="-105.2306145">
  <ele>1596.58</ele>
  <time>2026-08-28T19:12:29Z</time>
  <course>268.49</course>
  <speed>0.0</speed>
  <fix>3d</fix>
</trkpt>
<trkpt lat="40.0728134" lon="-105.2306147">
  <ele>1596.64</ele>
  <time>2026-08-28T19:12:29Z</time>
  <course>348.33</course>
  <speed>0.02</speed>
  <fix>3d</fix>
</trkpt>
<trkpt lat="40.0728134" lon="-105.2306145">
  <ele>1596.58</ele>
  <time>2026-08-28T19:12:29Z</time>
  <course>252.52</course>
  <speed>0.0</speed>
  <fix>3d</fix>
</trkpt>
<trkpt lat="40.0728134" lon="-105.2306147">
  <ele>1596.65</ele>
  <time>2026-08-28T19:12:29Z</time>
  <course>348.33</course>
  <speed>0.02</speed>
  <fix>3d</fix>
</trkpt>
<trkpt lat="40.0728134" lon="-105.2306145">
  <ele>1596.59</ele>
  <time>2026-08-28T19:12:29Z</time>
  <course>234.96</course>
  <speed>0.0</speed>
  <fix>3d</fix>
</trkpt>
<trkpt lat="40.0728134" lon="-105.2306147">
  <ele>1596.65</ele>
  <time>2026-08-28T19:12:29Z</time>
  <course>348.33</course>
  <speed>0.02</speed>
  <fix>3d</fix>
</trkpt>
<trkpt lat="40.0728134" lon="-105.2306145">
  <ele>1596.59</ele>
  <time>2026-08-28T19:12:29Z</time>
  <course>218.43</course>
  <speed>0.0</speed>
  <fix>3d</fix>
</trkpt>
<trkpt lat="40.0728134" lon="-105.2306147">
  <ele>1596.66</ele>
  <time>2026-08-28T19:12:29Z</time>
  <course>348.33</course>
  <speed>0.02</speed>
  <fix>3d</fix>
</trkpt>
<trkpt lat="40.0728134" lon="-105.2306146">
  <ele>1596.59</ele>
  <time>2026-08-28T19:12:29Z</time>
  <course>202.9</course>
  <speed>0.0</speed>
  <fix>3d</fix>
</trkpt>
<trkpt lat="40.0728134" lon="-105.2306147">
  <ele>1596.66</ele>
  <time>2026-08-28T19:12:29Z</time>
  <course>348.33</course>
  <speed>0.02</speed>
  <fix>3d</fix>
</trkpt>
<trkpt lat="40.0728134" lon="-105.2306146">
  <ele>1596.59</ele>
  <time>2026-08-28T19:12:29Z</time>
  <course>190.63</course>
  <speed>0.0</speed>
  <fix>3d</fix>
</trkpt>
<trkpt lat="40.0728134" lon="-105.2306147">
  <ele>1596.66</ele>
  <time>2026-08-28T19:12:29Z</time>
  <course>348.34</course>
  <speed>0.02</speed>
  <fix>3d</fix>
</trkpt>
<trkpt lat="40.0728134" lon="-105.2306146">
  <ele>1596.59</ele>
  <time>2026-08-28T19:12:29Z</time>
  <course>180.1</course>
  <speed>0.0</speed>
  <fix>3d</fix>
</trkpt>
<trkpt lat="40.0728134" lon="-105.2306147">
  <ele>1596.66</ele>
  <time>2026-08-28T19:12:29Z</time>
  <course>348.36</course>
  <speed>0.02</speed>
  <fix>3d</fix>
</trkpt>
<trkpt lat="40.0728134" lon="-105.2306146">
  <ele>1596.59</ele>
  <time>2026-08-28T19:12:29Z</time>
  <course>167.96</course>
  <speed>0.0</speed>
  <fix>3d</fix>
</trkpt>
<trkpt lat="40.0728134" lon="-105.2306147">
  <ele>1596.66</ele>
  <time>2026-08-28T19:12:29Z</time>
  <course>348.38</course>
  <speed>0.01</speed>
  <fix>3d</fix>
</trkpt>
<trkpt lat="40.0728134" lon="-105.2306146">
  <ele>1596.59</ele>
  <time>2026-08-28T19:12:29Z</time>
  <course>155.63</course>
  <speed>0.0</speed>
  <fix>3d</fix>
</trkpt>
<trkpt lat="40.0728134" lon="-105.2306147">
  <ele>1596.66</ele>
  <time>2026-08-28T19:12:29Z</time>
  <course>348.38</course>
  <speed>0.01</speed>
  <fix>3d</fix>
</trkpt>
<trkpt lat="40.0728134" lon="-105.2306146">
  <ele>1596.59</ele>
  <time>2026-08-28T19:12:29Z</time>
  <course>143.91</course>
  <speed>0.0</speed>
  <fix>3d</fix>
</trkpt>
<trkpt lat="40.0728134" lon="-105.2306147">
  <ele>1596.66</ele>
  <time>2026-08-28T19:12:29Z</time>
  <course>348.37</course>
  <speed>0.01</speed>
  <fix>3d</fix>
</trkpt>
<trkpt lat="40.0728134" lon="-105.2306146">
  <ele>1596.59</ele>
  <time>2026-08-28T19:12:29Z</time>
  <course>133.98</course>
  <speed>0.0</speed>
  <fix>3d</fix>
</trkpt>
<trkpt lat="40.0728134" lon="-105.2306147">
  <ele>1596.66</ele>
  <time>2026-08-28T19:12:29Z</time>
  <course>348.38</course>
  <speed>0.01</speed>
  <fix>3d</fix>
</trkpt>
<trkpt lat="40.0728134" lon="-105.2306146">
  <ele>1596.59</ele>
  <time>2026-08-28T19:12:29Z</time>
  <course>130.45</course>
  <speed>0.0</speed>
  <fix>3d</fix>
</trkpt>
<trkpt lat="40.0728134" lon="-105.2306147">
  <ele>1596.66</ele>
  <time>2026-08-28T19:12:29Z</time>
  <course>348.37</course>
  <speed>0.01</speed>
  <fix>3d</fix>
</trkpt>
<trkpt lat="40.0728134" lon="-105.2306146">
  <ele>1596.59</ele>
  <time>2026-08-28T19:12:29Z</time>
  <course>129.18</course>
  <speed>0.0</speed>
  <fix>3d</fix>
</trkpt>
<trkpt lat="40.0728134" lon="-105.2306147">
  <ele>1596.66</ele>
  <time>2026-08-28T19:12:29Z</time>
  <course>348.37</course>
  <speed>0.01</speed>
  <fix>3d</fix>
</trkpt>
<trkpt lat="40.0728134" lon="-105.2306146">
  <ele>1596.59</ele>
  <time>2026-08-28T19:12:29Z</time>
  <course>127.61</course>
  <speed>0.0</speed>
  <fix>3d</fix>
</trkpt>
<trkpt lat="40.0728134" lon="-105.2306147">
  <ele>1596.65</ele>
  <time>2026-08-28T19:12:29Z</time>
  <course>348.36</course>
  <speed>0.01</speed>
  <fix>3d</fix>
</trkpt>
<trkpt lat="40.0728134" lon="-105.2306146">
  <ele>1596.58</ele>
  <time>2026-08-28T19:12:29Z</time>
  <course>126.04</course>
  <speed>0.0</speed>
  <fix>3d</fix>
</trkpt>
<trkpt lat="40.0728134" lon="-105.2306147">
  <ele>1596.65</ele>
  <time>2026-08-28T19:12:29Z</time>
  <course>348.36</course>
  <speed>0.01414213562373095</speed>
  <fix>3d</fix>
</trkpt>
<trkpt lat="40.0728134" lon="-105.2306146">
  <ele>1596.58</ele>
  <time>2026-08-28T19:12:29Z</time>
  <course>123.46</course>
  <speed>0.0</speed>
  <fix>3d</fix>
</trkpt>
<trkpt lat="40.0728134" lon="-105.2306147">
  <ele>1596.65</ele>
  <time>2026-08-28T19:12:29Z</time>
  <course>348.36</course>
  <speed>0.01414213562373095</speed>
  <fix>3d</fix>
</trkpt>
<trkpt lat="40.0728134" lon="-105.2306145">
  <ele>1596.58</ele>
  <time>2026-08-28T19:12:29Z</time>
  <course>120.52</course>
  <speed>0.0</speed>
  <fix>3d</fix>
</trkpt>
<trkpt lat="40.0728134" lon="-105.2306147">
  <ele>1596.65</ele>
  <time>2026-08-28T19:12:29Z</time>
  <course>348.35</course>
  <speed>0.01414213562373095</speed>
  <fix>3d</fix>
</trkpt>
<trkpt lat="40.0728134" lon="-105.2306145">
  <ele>1596.58</ele>
  <time>2026-08-28T19:12:29Z</time>
  <course>119.06</course>
  <speed>0.0</speed>
  <fix>3d</fix>
</trkpt>
<trkpt lat="40.0728134" lon="-105.2306147">
  <ele>1596.65</ele>
  <time>2026-08-28T19:12:29Z</time>
  <course>348.35</course>
  <speed>0.01414213562373095</speed>
  <fix>3d</fix>
</trkpt>
<trkpt lat="40.0728133" lon="-105.2306145">
  <ele>1596.58</ele>
  <time>2026-08-28T19:12:29Z</time>
  <course>118.31</course>
  <speed>0.0</speed>
  <fix>3d</fix>
</trkpt>
<trkpt lat="40.0728134" lon="-105.2306147">
  <ele>1596.64</ele>
  <time>2026-08-28T19:12:29Z</time>
  <course>348.35</course>
  <speed>0.01414213562373095</speed>
  <fix>3d</fix>
</trkpt>
<trkpt lat="40.0728133" lon="-105.2306145">
  <ele>1596.58</ele>
  <time>2026-08-28T19:12:29Z</time>
  <course>118.32</course>
  <speed>0.0</speed>
  <fix>3d</fix>
</trkpt>
<trkpt lat="40.0728134" lon="-105.2306147">
  <ele>1596.64</ele>
  <time>2026-08-28T19:12:29Z</time>
  <course>348.35</course>
  <speed>0.01414213562373095</speed>
  <fix>3d</fix>
</trkpt>
<trkpt lat="40.0728133" lon="-105.2306145">
  <ele>1596.58</ele>
  <time>2026-08-28T19:12:29Z</time>
  <course>120.53</course>
  <speed>0.0</speed>
  <fix>3d</fix>
</trkpt>
<trkpt lat="40.0728134" lon="-105.2306147">
  <ele>1596.64</ele>
  <time>2026-08-28T19:12:29Z</time>
  <course>348.33</course>
  <speed>0.01414213562373095</speed>
  <fix>3d</fix>
</trkpt>
<trkpt lat="40.0728133" lon="-105.2306144">
  <ele>1596.58</ele>
  <time>2026-08-28T19:12:29Z</time>
  <course>123.96</course>
  <speed>0.0</speed>
  <fix>3d</fix>
</trkpt>
<trkpt lat="40.0728134" lon="-105.2306147">
  <ele>1596.64</ele>
  <time>2026-08-28T19:12:29Z</time>
  <course>348.3</course>
  <speed>0.01414213562373095</speed>
  <fix>3d</fix>
</trkpt>
<trkpt lat="40.0728133" lon="-105.2306143">
  <ele>1596.58</ele>
  <time>2026-08-28T19:12:29Z</time>
  <course>126.28</course>
  <speed>0.0</speed>
  <fix>3d</fix>
</trkpt>
<trkpt lat="40.0728134" lon="-105.2306147">
  <ele>1596.64</ele>
  <time>2026-08-28T19:12:29Z</time>
  <course>348.29</course>
  <speed>0.022360679774997897</speed>
  <fix>3d</fix>
</trkpt>
<trkpt lat="40.0728133" lon="-105.2306143">
  <ele>1596.59</ele>
  <time>2026-08-28T19:12:29Z</time>
  <course>130.02</course>
  <speed>0.0</speed>
  <fix>3d</fix>
</trkpt>
<trkpt lat="40.0728134" lon="-105.2306147">
  <ele>1596.64</ele>
  <time>2026-08-28T19:12:29Z</time>
  <course>348.27</course>
  <speed>0.022360679774997897</speed>
  <fix>3d</fix>
</trkpt>
<trkpt lat="40.0728133" lon="-105.2306143">
  <ele>1596.59</ele>
  <time>2026-08-28T19:12:29Z</time>
  <course>136.58</course>
  <speed>0.0</speed>
  <fix>3d</fix>
</trkpt>
<trkpt lat="40.0728134" lon="-105.2306146">
  <ele>1596.64</ele>
  <time>2026-08-28T19:12:29Z</time>
  <course>348.26</course>
  <speed>0.022360679774997897</speed>
  <fix>3d</fix>
</trkpt>
<trkpt lat="40.0728133" lon="-105.2306143">
  <ele>1596.59</ele>
  <time>2026-08-28T19:12:29Z</time>
  <course>147.41</course>
  <speed>0.0</speed>
  <fix>3d</fix>
</trkpt>
<trkpt lat="40.0728134" lon="-105.2306146">
  <ele>1596.64</ele>
  <time>2026-08-28T19:12:29Z</time>
  <course>348.26</course>
  <speed>0.022360679774997897</speed>
  <fix>3d</fix>
</trkpt>
<trkpt lat="40.0728133" lon="-105.2306143">
  <ele>1596.59</ele>
  <time>2026-08-28T19:12:29Z</time>
  <course>177.22</course>
  <speed>0.0</speed>
  <fix>3d</fix>
</trkpt>
<trkpt lat="40.0728134" lon="-105.2306146">
  <ele>1596.65</ele>
  <time>2026-08-28T19:12:29Z</time>
  <course>348.25</course>
  <speed>0.022360679774997897</speed>
  <fix>3d</fix>
</trkpt>
<trkpt lat="40.0728133" lon="-105.2306143">
  <ele>1596.59</ele>
  <time>2026-08-28T19:12:29Z</time>
  <course>214.78</course>
  <speed>0.0</speed>
  <fix>3d</fix>
</trkpt>
<trkpt lat="40.0728134" lon="-105.2306146">
  <ele>1596.65</ele>
  <time>2026-08-28T19:12:29Z</time>
  <course>348.25</course>
  <speed>0.022360679774997897</speed>
  <fix>3d</fix>
</trkpt>
<trkpt lat="40.0728133" lon="-105.2306143">
  <ele>1596.6</ele>
  <time>2026-08-28T19:12:29Z</time>
  <course>237.01</course>
  <speed>0.0</speed>
  <fix>3d</fix>
</trkpt>
<trkpt lat="40.0728134" lon="-105.2306146">
  <ele>1596.65</ele>
  <time>2026-08-28T19:12:29Z</time>
  <course>348.25</course>
  <speed>0.022360679774997897</speed>
  <fix>3d</fix>
</trkpt>
<trkpt lat="40.0728133" lon="-105.2306143">
  <ele>1596.6</ele>
  <time>2026-08-28T19:12:29Z</time>
  <course>247.82</course>
  <speed>0.0</speed>
  <fix>3d</fix>
</trkpt>
<trkpt lat="40.0728134" lon="-105.2306146">
  <ele>1596.65</ele>
  <time>2026-08-28T19:12:29Z</time>
  <course>348.26</course>
  <speed>0.022360679774997897</speed>
  <fix>3d</fix>
</trkpt>
<trkpt lat="40.0728133" lon="-105.2306143">
  <ele>1596.6</ele>
  <time>2026-08-28T19:12:29Z</time>
  <course>254.14</course>
  <speed>0.0</speed>
  <fix>3d</fix>
</trkpt>
<trkpt lat="40.0728134" lon="-105.2306146">
  <ele>1596.65</ele>
  <time>2026-08-28T19:12:29Z</time>
  <course>348.27</course>
  <speed>0.022360679774997897</speed>
  <fix>3d</fix>
</trkpt>
<trkpt lat="40.0728133" lon="-105.2306143">
  <ele>1596.6</ele>
  <time>2026-08-28T19:12:29Z</time>
  <course>259.71</course>
  <speed>0.0</speed>
  <fix>3d</fix>
</trkpt>
<trkpt lat="40.0728134" lon="-105.2306146">
  <ele>1596.65</ele>
  <time>2026-08-28T19:12:29Z</time>
  <course>348.26</course>
  <speed>0.022360679774997897</speed>
  <fix>3d</fix>
</trkpt>
<trkpt lat="40.0728133" lon="-105.2306143">
  <ele>1596.6</ele>
  <time>2026-08-28T19:12:29Z</time>
  <course>266.03</course>
  <speed>0.0</speed>
  <fix>3d</fix>
</trkpt>
<trkpt lat="40.0728134" lon="-105.2306146">
  <ele>1596.65</ele>
  <time>2026-08-28T19:12:29Z</time>
  <course>348.26</course>
  <speed>0.022360679774997897</speed>
  <fix>3d</fix>
</trkpt>
<trkpt lat="40.0728133" lon="-105.2306143">
  <ele>1596.6</ele>
  <time>2026-08-28T19:12:29Z</time>
  <course>272.01</course>
  <speed>0.0</speed>
  <fix>3d</fix>
</trkpt>
<trkpt lat="40.0728134" lon="-105.2306146">
  <ele>1596.65</ele>
  <time>2026-08-28T19:12:29Z</time>
  <course>348.26</course>
  <speed>0.022360679774997897</speed>
  <fix>3d</fix>
</trkpt>
<trkpt lat="40.0728133" lon="-105.2306143">
  <ele>1596.6</ele>
  <time>2026-08-28T19:12:29Z</time>
  <course>277.51</course>
  <speed>0.0</speed>
  <fix>3d</fix>
</trkpt>
<trkpt lat="40.0728134" lon="-105.2306146">
  <ele>1596.66</ele>
  <time>2026-08-28T19:12:29Z</time>
  <course>348.26</course>
  <speed>0.022360679774997897</speed>
  <fix>3d</fix>
</trkpt>
<trkpt lat="40.0728133" lon="-105.2306143">
  <ele>1596.6</ele>
  <time>2026-08-28T19:12:29Z</time>
  <course>282.53</course>
  <speed>0.0</speed>
  <fix>3d</fix>
</trkpt>
<trkpt lat="40.0728134" lon="-105.2306146">
  <ele>1596.66</ele>
  <time>2026-08-28T19:12:29Z</time>
  <course>348.26</course>
  <speed>0.022360679774997897</speed>
  <fix>3d</fix>
</trkpt>
<trkpt lat="40.0728133" lon="-105.2306143">
  <ele>1596.6</ele>
  <time>2026-08-28T19:12:29Z</time>
  <course>287.01</course>
  <speed>0.0</speed>
  <fix>3d</fix>
</trkpt>
<trkpt lat="40.0728134" lon="-105.2306146">
  <ele>1596.67</ele>
  <time>2026-08-28T19:12:29Z</time>
  <course>348.29</course>
  <speed>0.022360679774997897</speed>
  <fix>3d</fix>
</trkpt>
<trkpt lat="40.0728133" lon="-105.2306143">
  <ele>1596.6</ele>
  <time>2026-08-28T19:12:29Z</time>
  <course>290.17</course>
  <speed>0.0</speed>
  <fix>3d</fix>
</trkpt>
<trkpt lat="40.0728134" lon="-105.2306146">
  <ele>1596.67</ele>
  <time>2026-08-28T19:12:29Z</time>
  <course>348.32</course>
  <speed>0.022360679774997897</speed>
  <fix>3d</fix>
</trkpt>
<trkpt lat="40.0728133" lon="-105.2306143">
  <ele>1596.6</ele>
  <time>2026-08-28T19:12:29Z</time>
  <course>288.95</course>
  <speed>0.0</speed>
  <fix>3d</fix>
</trkpt>
<trkpt lat="40.0728134" lon="-105.2306146">
  <ele>1596.67</ele>
  <time>2026-08-28T19:12:29Z</time>
  <course>348.34</course>
  <speed>0.022360679774997897</speed>
  <fix>3d</fix>
</trkpt>
<trkpt lat="40.0728133" lon="-105.2306143">
  <ele>1596.6</ele>
  <time>2026-08-28T19:12:29Z</time>
  <course>287.15</course>
  <speed>0.0</speed>
  <fix>3d</fix>
</trkpt>
<trkpt lat="40.0728134" lon="-105.2306146">
  <ele>1596.66</ele>
  <time>2026-08-28T19:12:29Z</time>
  <course>348.35</course>
  <speed>0.022360679774997897</speed>
  <fix>3d</fix>
</trkpt>
<trkpt lat="40.0728133" lon="-105.2306144">
  <ele>1596.6</ele>
  <time>2026-08-28T19:12:29Z</time>
  <course>289.26</course>
  <speed>0.0</speed>
  <fix>3d</fix>
</trkpt>
<trkpt lat="40.0728134" lon="-105.2306146">
  <ele>1596.66</ele>
  <time>2026-08-28T19:12:29Z</time>
  <course>348.35</course>
  <speed>0.022360679774997897</speed>
  <fix>3d</fix>
</trkpt>
<trkpt lat="40.0728133" lon="-105.2306145">
  <ele>1596.59</ele>
  <time>2026-08-28T19:12:29Z</time>
  <course>292.2</course>
  <speed>0.0</speed>
  <fix>3d</fix>
</trkpt>
<trkpt lat="40.0728134" lon="-105.2306146">
  <ele>1596.66</ele>
  <time>2026-08-28T19:12:29Z</time>
  <course>348.35</course>
  <speed>0.022360679774997897</speed>
  <fix>3d</fix>
</trkpt>
<trkpt lat="40.0728133" lon="-105.2306145">
  <ele>1596.59</ele>
  <time>2026-08-28T19:12:29Z</time>
  <course>293.86</course>
  <speed>0.0</speed>
  <fix>3d</fix>
</trkpt>
<trkpt lat="40.0728134" lon="-105.2306146">
  <ele>1596.66</ele>
  <time>2026-08-28T19:12:29Z</time>
  <course>348.34</course>
  <speed>0.022360679774997897</speed>
  <fix>3d</fix>
</trkpt>
<trkpt lat="40.0728133" lon="-105.2306145">
  <ele>1596.59</ele>
  <time>2026-08-28T19:12:29Z</time>
  <course>295.1</course>
  <speed>0.0</speed>
  <fix>3d</fix>
</trkpt>
<trkpt lat="40.0728134" lon="-105.2306146">
  <ele>1596.66</ele>
  <time>2026-08-28T19:12:29Z</time>
  <course>348.32</course>
  <speed>0.022360679774997897</speed>
  <fix>3d</fix>
</trkpt>
<trkpt lat="40.0728133" lon="-105.2306145">
  <ele>1596.59</ele>
  <time>2026-08-28T19:12:29Z</time>
  <course>297.24</course>
  <speed>0.0</speed>
  <fix>3d</fix>
</trkpt>
<trkpt lat="40.0728134" lon="-105.2306147">
  <ele>1596.66</ele>
  <time>2026-08-28T19:12:29Z</time>
  <course>348.31</course>
  <speed>0.022360679774997897</speed>
  <fix>3d</fix>
</trkpt>
<trkpt lat="40.0728133" lon="-105.2306145">
  <ele>1596.58</ele>
  <time>2026-08-28T19:12:29Z</time>
  <course>303.61</course>
  <speed>0.0</speed>
  <fix>3d</fix>
</trkpt>
<trkpt lat="40.0728134" lon="-105.2306147">
  <ele>1596.66</ele>
  <time>2026-08-28T19:12:29Z</time>
  <course>348.32</course>
  <speed>0.022360679774997897</speed>
  <fix>3d</fix>
</trkpt>
<trkpt lat="40.0728133" lon="-105.2306145">
  <ele>1596.58</ele>
  <time>2026-08-28T19:12:29Z</time>
  <course>312.35</course>
  <speed>0.0</speed>
  <fix>3d</fix>
</trkpt>
<trkpt lat="40.0728134" lon="-105.2306147">
  <ele>1596.66</ele>
  <time>2026-08-28T19:12:29Z</time>
  <course>348.33</course>
  <speed>0.022360679774997897</speed>
  <fix>3d</fix>
</trkpt>
<trkpt lat="40.0728133" lon="-105.2306146">
  <ele>1596.58</ele>
  <time>2026-08-28T19:12:29Z</time>
  <course>320.11</course>
  <speed>0.0</speed>
  <fix>3d</fix>
</trkpt>
<trkpt lat="40.0728134" lon="-105.2306147">
  <ele>1596.66</ele>
  <time>2026-08-28T19:12:29Z</time>
  <course>348.34</course>
  <speed>0.022360679774997897</speed>
  <fix>3d</fix>
</trkpt>
<trkpt lat="40.0728133" lon="-105.2306146">
  <ele>1596.58</ele>
  <time>2026-08-28T19:12:29Z</time>
  <course>327.86</course>
  <speed>0.0</speed>
  <fix>3d</fix>
</trkpt>
<trkpt lat="40.0728134" lon="-105.2306147">
  <ele>1596.66</ele>
  <time>2026-08-28T19:12:29Z</time>
  <course>348.35</course>
  <speed>0.022360679774997897</speed>
  <fix>3d</fix>
</trkpt>
<trkpt lat="40.0728133" lon="-105.2306146">
  <ele>1596.58</ele>
  <time>2026-08-28T19:12:29Z</time>
  <course>338.14</course>
  <speed>0.0</speed>
  <fix>3d</fix>
</trkpt>
<trkpt lat="40.0728134" lon="-105.2306147">
  <ele>1596.66</ele>
  <time>2026-08-28T19:12:29Z</time>
  <course>348.35</course>
  <speed>0.022360679774997897</speed>
  <fix>3d</fix>
</trkpt>
<trkpt lat="40.0728133" lon="-105.2306146">
  <ele>1596.57</ele>
  <time>2026-08-28T19:12:29Z</time>
  <course>359.31</course>
  <speed>0.0</speed>
  <fix>3d</fix>
</trkpt>
<trkpt lat="40.0728134" lon="-105.2306147">
  <ele>1596.66</ele>
  <time>2026-08-28T19:12:29Z</time>
  <course>348.35</course>
  <speed>0.022360679774997897</speed>
  <fix>3d</fix>
</trkpt>
<trkpt lat="40.0728133" lon="-105.2306146">
  <ele>1596.57</ele>
  <time>2026-08-28T19:12:29Z</time>
  <course>25.77</course>
  <speed>0.0</speed>
  <fix>3d</fix>
</trkpt>
<trkpt lat="40.0728134" lon="-105.2306147">
  <ele>1596.66</ele>
  <time>2026-08-28T19:12:29Z</time>
  <course>348.34</course>
  <speed>0.01414213562373095</speed>
  <fix>3d</fix>
</trkpt>
<trkpt lat="40.0728133" lon="-105.2306146">
  <ele>1596.57</ele>
  <time>2026-08-28T19:12:29Z</time>
  <course>42.8</course>
  <speed>0.0</speed>
  <fix>3d</fix>
</trkpt>
<trkpt lat="40.0728134" lon="-105.2306147">
  <ele>1596.66</ele>
  <time>2026-08-28T19:12:29Z</time>
  <course>348.33</course>
  <speed>0.01414213562373095</speed>
  <fix>3d</fix>
</trkpt>
<trkpt lat="40.0728133" lon="-105.2306146">
  <ele>1596.56</ele>
  <time>2026-08-28T19:12:29Z</time>
  <course>51.98</course>
  <speed>0.0</speed>
  <fix>3d</fix>
</trkpt>
<trkpt lat="40.0728134" lon="-105.2306147">
  <ele>1596.66</ele>
  <time>2026-08-28T19:12:29Z</time>
  <course>348.32</course>
  <speed>0.01414213562373095</speed>
  <fix>3d</fix>
</trkpt>
<trkpt lat="40.0728133" lon="-105.2306146">
  <ele>1596.56</ele>
  <time>2026-08-28T19:12:29Z</time>
  <course>57.72</course>
  <speed>0.0</speed>
  <fix>3d</fix>
</trkpt>
<trkpt lat="40.0728134" lon="-105.2306147">
  <ele>1596.65</ele>
  <time>2026-08-28T19:12:29Z</time>
  <course>348.32</course>
  <speed>0.01414213562373095</speed>
  <fix>3d</fix>
</trkpt>
<trkpt lat="40.0728133" lon="-105.2306146">
  <ele>1596.56</ele>
  <time>2026-08-28T19:12:29Z</time>
  <course>62.93</course>
  <speed>0.0</speed>
  <fix>3d</fix>
</trkpt>
<trkpt lat="40.0728134" lon="-105.2306147">
  <ele>1596.65</ele>
  <time>2026-08-28T19:12:29Z</time>
  <course>348.31</course>
  <speed>0.01414213562373095</speed>
  <fix>3d</fix>
</trkpt>
<trkpt lat="40.0728133" lon="-105.2306146">
  <ele>1596.56</ele>
  <time>2026-08-28T19:12:29Z</time>
  <course>67.47</course>
  <speed>0.0</speed>
  <fix>3d</fix>
</trkpt>
<trkpt lat="40.0728134" lon="-105.2306147">
  <ele>1596.66</ele>
  <time>2026-08-28T19:12:29Z</time>
  <course>348.31</course>
  <speed>0.01414213562373095</speed>
  <fix>3d</fix>
</trkpt>
<trkpt lat="40.0728133" lon="-105.2306146">
  <ele>1596.55</ele>
  <time>2026-08-28T19:12:29Z</time>
  <course>68.59</course>
  <speed>0.0</speed>
  <fix>3d</fix>
</trkpt>
<trkpt lat="40.0728134" lon="-105.2306147">
  <ele>1596.65</ele>
  <time>2026-08-28T19:12:29Z</time>
  <course>348.3</course>
  <speed>0.01414213562373095</speed>
  <fix>3d</fix>
</trkpt>
<trkpt lat="40.0728133" lon="-105.2306146">
  <ele>1596.55</ele>
  <time>2026-08-28T19:12:29Z</time>
  <course>67.62</course>
  <speed>0.0</speed>
  <fix>3d</fix>
</trkpt>
<trkpt lat="40.0728134" lon="-105.2306147">
  <ele>1596.65</ele>
  <time>2026-08-28T19:12:29Z</time>
  <course>348.3</course>
  <speed>0.01414213562373095</speed>
  <fix>3d</fix>
</trkpt>
<trkpt lat="40.0728133" lon="-105.2306146">
  <ele>1596.55</ele>
  <time>2026-08-28T19:12:29Z</time>
  <course>67.6</course>
  <speed>0.0</speed>
  <fix>3d</fix>
</trkpt>
<trkpt lat="40.0728134" lon="-105.2306147">
  <ele>1596.65</ele>
  <time>2026-08-28T19:12:29Z</time>
  <course>348.3</course>
  <speed>0.01414213562373095</speed>
  <fix>3d</fix>
</trkpt>
<trkpt lat="40.0728133" lon="-105.2306145">
  <ele>1596.55</ele>
  <time>2026-08-28T19:12:29Z</time>
  <course>67.68</course>
  <speed>0.0</speed>
  <fix>3d</fix>
</trkpt>
<trkpt lat="40.0728134" lon="-105.2306147">
  <ele>1596.65</ele>
  <time>2026-08-28T19:12:29Z</time>
  <course>348.29</course>
  <speed>0.01414213562373095</speed>
  <fix>3d</fix>
</trkpt>
<trkpt lat="40.0728133" lon="-105.2306145">
  <ele>1596.55</ele>
  <time>2026-08-28T19:12:29Z</time>
  <course>67.34</course>
  <speed>0.0</speed>
  <fix>3d</fix>
</trkpt>
<trkpt lat="40.0728134" lon="-105.2306147">
  <ele>1596.65</ele>
  <time>2026-08-28T19:12:29Z</time>
  <course>348.29</course>
  <speed>0.01414213562373095</speed>
  <fix>3d</fix>
</trkpt>
<trkpt lat="40.0728133" lon="-105.2306145">
  <ele>1596.55</ele>
  <time>2026-08-28T19:12:29Z</time>
  <course>65.37</course>
  <speed>0.0</speed>
  <fix>3d</fix>
</trkpt>
<trkpt lat="40.0728134" lon="-105.2306147">
  <ele>1596.65</ele>
  <time>2026-08-28T19:12:29Z</time>
  <course>348.28</course>
  <speed>0.01414213562373095</speed>
  <fix>3d</fix>
</trkpt>
<trkpt lat="40.0728133" lon="-105.2306145">
  <ele>1596.55</ele>
  <time>2026-08-28T19:12:29Z</time>
  <course>61.73</course>
  <speed>0.0</speed>
  <fix>3d</fix>
</trkpt>
<trkpt lat="40.0728134" lon="-105.2306147">
  <ele>1596.64</ele>
  <time>2026-08-28T19:12:29Z</time>
  <course>348.28</course>
  <speed>0.01414213562373095</speed>
  <fix>3d</fix>
</trkpt>
<trkpt lat="40.0728133" lon="-105.2306145">
  <ele>1596.55</ele>
  <time>2026-08-28T19:12:29Z</time>
  <course>59.13</course>
  <speed>0.0</speed>
  <fix>3d</fix>
</trkpt>
<trkpt lat="40.0728134" lon="-105.2306147">
  <ele>1596.65</ele>
  <time>2026-08-28T19:12:29Z</time>
  <course>348.27</course>
  <speed>0.01414213562373095</speed>
  <fix>3d</fix>
</trkpt>
<trkpt lat="40.0728133" lon="-105.2306145">
  <ele>1596.55</ele>
  <time>2026-08-28T19:12:29Z</time>
  <course>59.53</course>
  <speed>0.0</speed>
  <fix>3d</fix>
</trkpt>
<trkpt lat="40.0728134" lon="-105.2306147">
  <ele>1596.65</ele>
  <time>2026-08-28T19:12:29Z</time>
  <course>348.25</course>
  <speed>0.01414213562373095</speed>
  <fix>3d</fix>
</trkpt>
<trkpt lat="40.0728133" lon="-105.2306144">
  <ele>1596.55</ele>
  <time>2026-08-28T19:12:29Z</time>
  <course>62.18</course>
  <speed>0.0</speed>
  <fix>3d</fix>
</trkpt>
<trkpt lat="40.0728134" lon="-105.2306147">
  <ele>1596.65</ele>
  <time>2026-08-28T19:12:29Z</time>
  <course>348.23</course>
  <speed>0.01414213562373095</speed>
  <fix>3d</fix>
</trkpt>
<trkpt lat="40.0728133" lon="-105.2306143">
  <ele>1596.55</ele>
  <time>2026-08-28T19:12:29Z</time>
  <course>65.36</course>
  <speed>0.0</speed>
  <fix>3d</fix>
</trkpt>
<trkpt lat="40.0728134" lon="-105.2306147">
  <ele>1596.65</ele>
  <time>2026-08-28T19:12:29Z</time>
  <course>348.23</course>
  <speed>0.01414213562373095</speed>
  <fix>3d</fix>
</trkpt>
<trkpt lat="40.0728134" lon="-105.2306143">
  <ele>1596.55</ele>
  <time>2026-08-28T19:12:29Z</time>
  <course>68.36</course>
  <speed>0.0</speed>
  <fix>3d</fix>
</trkpt>
<trkpt lat="40.0728134" lon="-105.2306147">
  <ele>1596.65</ele>
  <time>2026-08-28T19:12:30Z</time>
  <course>348.22</course>
  <speed>0.022360679774997897</speed>
  <fix>3d</fix>
</trkpt>
<trkpt lat="40.0728134" lon="-105.2306143">
  <ele>1596.55</ele>
  <time>2026-08-28T19:12:30Z</time>
  <course>67.3</course>
  <speed>0.0</speed>
  <fix>3d</fix>
</trkpt>
<trkpt lat="40.0728134" lon="-105.2306146">
  <ele>1596.65</ele>
  <time>2026-08-28T19:12:30Z</time>
  <course>348.23</course>
  <speed>0.022360679774997897</speed>
  <fix>3d</fix>
</trkpt>
<trkpt lat="40.0728134" lon="-105.2306143">
  <ele>1596.55</ele>
  <time>2026-08-28T19:12:30Z</time>
  <course>56.68</course>
  <speed>0.0</speed>
  <fix>3d</fix>
</trkpt>
<trkpt lat="40.0728134" lon="-105.2306146">
  <ele>1596.65</ele>
  <time>2026-08-28T19:12:30Z</time>
  <course>348.22</course>
  <speed>0.022360679774997897</speed>
  <fix>3d</fix>
</trkpt>
<trkpt lat="40.0728134" lon="-105.2306143">
  <ele>1596.54</ele>
  <time>2026-08-28T19:12:30Z</time>
  <course>37.45</course>
  <speed>0.0</speed>
  <fix>3d</fix>
</trkpt>
<trkpt lat="40.0728134" lon="-105.2306146">
  <ele>1596.65</ele>
  <time>2026-08-28T19:12:30Z</time>
  <course>348.22</course>
  <speed>0.022360679774997897</speed>
  <fix>3d</fix>
</trkpt>
<trkpt lat="40.0728134" lon="-105.2306143">
  <ele>1596.54</ele>
  <time>2026-08-28T19:12:30Z</time>
  <course>348.07</course>
  <speed>0.0</speed>
  <fix>3d</fix>
</trkpt>
<trkpt lat="40.0728134" lon="-105.2306146">
  <ele>1596.66</ele>
  <time>2026-08-28T19:12:30Z</time>
  <course>348.22</course>
  <speed>0.022360679774997897</speed>
  <fix>3d</fix>
</trkpt>
<trkpt lat="40.0728134" lon="-105.2306143">
  <ele>1596.54</ele>
  <time>2026-08-28T19:12:30Z</time>
  <course>265.69</course>
  <speed>0.0</speed>
  <fix>3d</fix>
</trkpt>
<trkpt lat="40.0728134" lon="-105.2306146">
  <ele>1596.66</ele>
  <time>2026-08-28T19:12:30Z</time>
  <course>348.24</course>
  <speed>0.022360679774997897</speed>
  <fix>3d</fix>
</trkpt>
<trkpt lat="40.0728134" lon="-105.2306143">
  <ele>1596.54</ele>
  <time>2026-08-28T19:12:30Z</time>
  <course>253.05</course>
  <speed>0.0</speed>
  <fix>3d</fix>
</trkpt>
<trkpt lat="40.0728134" lon="-105.2306146">
  <ele>1596.66</ele>
  <time>2026-08-28T19:12:30Z</time>
  <course>348.26</course>
  <speed>0.02</speed>
  <fix>3d</fix>
</trkpt>
<trkpt lat="40.0728134" lon="-105.2306143">
  <ele>1596.54</ele>
  <time>2026-08-28T19:12:30Z</time>
  <course>249.64</course>
  <speed>0.0</speed>
  <fix>3d</fix>
</trkpt>
<trkpt lat="40.0728134" lon="-105.2306146">
  <ele>1596.66</ele>
  <time>2026-08-28T19:12:30Z</time>
  <course>348.27</course>
  <speed>0.02</speed>
  <fix>3d</fix>
</trkpt>
<trkpt lat="40.0728134" lon="-105.2306143">
  <ele>1596.54</ele>
  <time>2026-08-28T19:12:30Z</time>
  <course>247.39</course>
  <speed>0.0</speed>
  <fix>3d</fix>
</trkpt>
<trkpt lat="40.0728134" lon="-105.2306146">
  <ele>1596.66</ele>
  <time>2026-08-28T19:12:30Z</time>
  <course>348.28</course>
  <speed>0.02</speed>
  <fix>3d</fix>
</trkpt>
<trkpt lat="40.0728134" lon="-105.2306143">
  <ele>1596.54</ele>
  <time>2026-08-28T19:12:30Z</time>
  <course>245.46</course>
  <speed>0.0</speed>
  <fix>3d</fix>
</trkpt>
<trkpt lat="40.0728134" lon="-105.2306146">
  <ele>1596.66</ele>
  <time>2026-08-28T19:12:30Z</time>
  <course>348.27</course>
  <speed>0.02</speed>
  <fix>3d</fix>
</trkpt>
<trkpt lat="40.0728134" lon="-105.2306143">
  <ele>1596.53</ele>
  <time>2026-08-28T19:12:30Z</time>
  <course>242.79</course>
  <speed>0.0</speed>
  <fix>3d</fix>
</trkpt>
<trkpt lat="40.0728134" lon="-105.2306146">
  <ele>1596.65</ele>
  <time>2026-08-28T19:12:30Z</time>
  <course>348.26</course>
  <speed>0.02</speed>
  <fix>3d</fix>
</trkpt>
<trkpt lat="40.0728134" lon="-105.2306143">
  <ele>1596.53</ele>
  <time>2026-08-28T19:12:30Z</time>
  <course>239.79</course>
  <speed>0.0</speed>
  <fix>3d</fix>
</trkpt>
<trkpt lat="40.0728134" lon="-105.2306146">
  <ele>1596.64</ele>
  <time>2026-08-28T19:12:30Z</time>
  <course>348.25</course>
  <speed>0.02</speed>
  <fix>3d</fix>
</trkpt>
<trkpt lat="40.0728134" lon="-105.2306143">
  <ele>1596.53</ele>
  <time>2026-08-28T19:12:30Z</time>
  <course>238.87</course>
  <speed>0.0</speed>
  <fix>3d</fix>
</trkpt>
<trkpt lat="40.0728134" lon="-105.2306146">
  <ele>1596.64</ele>
  <time>2026-08-28T19:12:30Z</time>
  <course>348.24</course>
  <speed>0.02</speed>
  <fix>3d</fix>
</trkpt>
<trkpt lat="40.0728134" lon="-105.2306143">
  <ele>1596.53</ele>
  <time>2026-08-28T19:12:30Z</time>
  <course>237.47</course>
  <speed>0.0</speed>
  <fix>3d</fix>
</trkpt>
<trkpt lat="40.0728134" lon="-105.2306146">
  <ele>1596.64</ele>
  <time>2026-08-28T19:12:30Z</time>
  <course>348.22</course>
  <speed>0.02</speed>
  <fix>3d</fix>
</trkpt>
<trkpt lat="40.0728134" lon="-105.2306143">
  <ele>1596.53</ele>
  <time>2026-08-28T19:12:30Z</time>
  <course>234.12</course>
  <speed>0.0</speed>
  <fix>3d</fix>
</trkpt>
<trkpt lat="40.0728134" lon="-105.2306146">
  <ele>1596.64</ele>
  <time>2026-08-28T19:12:30Z</time>
  <course>348.2</course>
  <speed>0.02</speed>
  <fix>3d</fix>
</trkpt>
<trkpt lat="40.0728134" lon="-105.2306143">
  <ele>1596.53</ele>
  <time>2026-08-28T19:12:30Z</time>
  <course>232.82</course>
  <speed>0.0</speed>
  <fix>3d</fix>
</trkpt>
<trkpt lat="40.0728134" lon="-105.2306146">
  <ele>1596.63</ele>
  <time>2026-08-28T19:12:30Z</time>
  <course>348.17</course>
  <speed>0.02</speed>
  <fix>3d</fix>
</trkpt>
<trkpt lat="40.0728134" lon="-105.2306144">
  <ele>1596.53</ele>
  <time>2026-08-28T19:12:30Z</time>
  <course>232.72</course>
  <speed>0.0</speed>
  <fix>3d</fix>
</trkpt>
<trkpt lat="40.0728134" lon="-105.2306146">
  <ele>1596.63</ele>
  <time>2026-08-28T19:12:30Z</time>
  <course>348.15</course>
  <speed>0.02</speed>
  <fix>3d</fix>
</trkpt>
<trkpt lat="40.0728134" lon="-105.2306145">
  <ele>1596.53</ele>
  <time>2026-08-28T19:12:30Z</time>
  <course>233.04</course>
  <speed>0.0</speed>
  <fix>3d</fix>
</trkpt>
<trkpt lat="40.0728134" lon="-105.2306146">
  <ele>1596.64</ele>
  <time>2026-08-28T19:12:30Z</time>
  <course>348.13</course>
  <speed>0.02</speed>
  <fix>3d</fix>
</trkpt>
<trkpt lat="40.0728134" lon="-105.2306145">
  <ele>1596.53</ele>
  <time>2026-08-28T19:12:30Z</time>
  <course>233.92</course>
  <speed>0.0</speed>
  <fix>3d</fix>
</trkpt>
<trkpt lat="40.0728134" lon="-105.2306146">
  <ele>1596.64</ele>
  <time>2026-08-28T19:12:30Z</time>
  <course>348.13</course>
  <speed>0.02</speed>
  <fix>3d</fix>
</trkpt>
<trkpt lat="40.0728134" lon="-105.2306145">
  <ele>1596.54</ele>
  <time>2026-08-28T19:12:30Z</time>
  <course>233.82</course>
  <speed>0.0</speed>
  <fix>3d</fix>
</trkpt>
<trkpt lat="40.0728134" lon="-105.2306147">
  <ele>1596.64</ele>
  <time>2026-08-28T19:12:30Z</time>
  <course>348.13</course>
  <speed>0.02</speed>
  <fix>3d</fix>
</trkpt>
<trkpt lat="40.0728134" lon="-105.2306145">
  <ele>1596.54</ele>
  <time>2026-08-28T19:12:30Z</time>
  <course>230.72</course>
  <speed>0.0</speed>
  <fix>3d</fix>
</trkpt>
<trkpt lat="40.0728134" lon="-105.2306147">
  <ele>1596.64</ele>
  <time>2026-08-28T19:12:30Z</time>
  <course>348.13</course>
  <speed>0.02</speed>
  <fix>3d</fix>
</trkpt>
<trkpt lat="40.0728133" lon="-105.2306145">
  <ele>1596.54</ele>
  <time>2026-08-28T19:12:30Z</time>
  <course>223.15</course>
  <speed>0.0</speed>
  <fix>3d</fix>
</trkpt>
<trkpt lat="40.0728134" lon="-105.2306147">
  <ele>1596.65</ele>
  <time>2026-08-28T19:12:30Z</time>
  <course>348.14</course>
  <speed>0.02</speed>
  <fix>3d</fix>
</trkpt>
<trkpt lat="40.0728133" lon="-105.2306145">
  <ele>1596.54</ele>
  <time>2026-08-28T19:12:30Z</time>
  <course>214.33</course>
  <speed>0.0</speed>
  <fix>3d</fix>
</trkpt>
<trkpt lat="40.0728134" lon="-105.2306147">
  <ele>1596.65</ele>
  <time>2026-08-28T19:12:30Z</time>
  <course>348.14</course>
  <speed>0.02</speed>
  <fix>3d</fix>
</trkpt>
<trkpt lat="40.0728133" lon="-105.2306145">
  <ele>1596.55</ele>
  <time>2026-08-28T19:12:30Z</time>
  <course>206.65</course>
  <speed>0.0</speed>
  <fix>3d</fix>
</trkpt>
<trkpt lat="40.0728134" lon="-105.2306147">
  <ele>1596.65</ele>
  <time>2026-08-28T19:12:30Z</time>
  <course>348.15</course>
  <speed>0.02</speed>
  <fix>3d</fix>
</trkpt>
<trkpt lat="40.0728133" lon="-105.2306146">
  <ele>1596.55</ele>
  <time>2026-08-28T19:12:30Z</time>
  <course>198.38</course>
  <speed>0.0</speed>
  <fix>3d</fix>
</trkpt>
<trkpt lat="40.0728134" lon="-105.2306147">
  <ele>1596.65</ele>
  <time>2026-08-28T19:12:30Z</time>
  <course>348.16</course>
  <speed>0.022360679774997897</speed>
  <fix>3d</fix>
</trkpt>
<trkpt lat="40.0728133" lon="-105.2306146">
  <ele>1596.55</ele>
  <time>2026-08-28T19:12:30Z</time>
  <course>186.31</course>
  <speed>0.0</speed>
  <fix>3d</fix>
</trkpt>
<trkpt lat="40.0728134" lon="-105.2306147">
  <ele>1596.66</ele>
  <time>2026-08-28T19:12:30Z</time>
  <course>348.17</course>
  <speed>0.022360679774997897</speed>
  <fix>3d</fix>
</trkpt>
<trkpt lat="40.0728133" lon="-105.2306146">
  <ele>1596.55</ele>
  <time>2026-08-28T19:12:30Z</time>
  <course>171.02</course>
  <speed>0.0</speed>
  <fix>3d</fix>
</trkpt>
<trkpt lat="40.0728134" lon="-105.2306147">
  <ele>1596.65</ele>
  <time>2026-08-28T19:12:30Z</time>
  <course>348.19</course>
  <speed>0.022360679774997897</speed>
  <fix>3d</fix>
</trkpt>
<trkpt lat="40.0728133" lon="-105.2306146">
  <ele>1596.55</ele>
  <time>2026-08-28T19:12:30Z</time>
  <course>150.07</course>
  <speed>0.0</speed>
  <fix>3d</fix>
</trkpt>
<trkpt lat="40.0728134" lon="-105.2306147">
  <ele>1596.65</ele>
  <time>2026-08-28T19:12:30Z</time>
  <course>348.19</course>
  <speed>0.022360679774997897</speed>
  <fix>3d</fix>
</trkpt>
<trkpt lat="40.0728133" lon="-105.2306146">
  <ele>1596.55</ele>
  <time>2026-08-28T19:12:30Z</time>
  <course>119.53</course>
  <speed>0.0</speed>
  <fix>3d</fix>
</trkpt>
<trkpt lat="40.0728134" lon="-105.2306147">
  <ele>1596.65</ele>
  <time>2026-08-28T19:12:30Z</time>
  <course>348.2</course>
  <speed>0.01414213562373095</speed>
  <fix>3d</fix>
</trkpt>
<trkpt lat="40.0728133" lon="-105.2306146">
  <ele>1596.55</ele>
  <time>2026-08-28T19:12:30Z</time>
  <course>90.13</course>
  <speed>0.0</speed>
  <fix>3d</fix>
</trkpt>
<trkpt lat="40.0728134" lon="-105.2306147">
  <ele>1596.65</ele>
  <time>2026-08-28T19:12:30Z</time>
  <course>348.19</course>
  <speed>0.01414213562373095</speed>
  <fix>3d</fix>
</trkpt>
<trkpt lat="40.0728133" lon="-105.2306146">
  <ele>1596.55</ele>
  <time>2026-08-28T19:12:30Z</time>
  <course>77.3</course>
  <speed>0.0</speed>
  <fix>3d</fix>
</trkpt>
<trkpt lat="40.0728134" lon="-105.2306147">
  <ele>1596.65</ele>
  <time>2026-08-28T19:12:30Z</time>
  <course>348.18</course>
  <speed>0.01414213562373095</speed>
  <fix>3d</fix>
</trkpt>
<trkpt lat="40.0728133" lon="-105.2306146">
  <ele>1596.55</ele>
  <time>2026-08-28T19:12:30Z</time>
  <course>74.35</course>
  <speed>0.0</speed>
  <fix>3d</fix>
</trkpt>
<trkpt lat="40.0728134" lon="-105.2306147">
  <ele>1596.65</ele>
  <time>2026-08-28T19:12:30Z</time>
  <course>348.16</course>
  <speed>0.01414213562373095</speed>
  <fix>3d</fix>
</trkpt>
<trkpt lat="40.0728133" lon="-105.2306146">
  <ele>1596.55</ele>
  <time>2026-08-28T19:12:30Z</time>
  <course>73.04</course>
  <speed>0.0</speed>
  <fix>3d</fix>
</trkpt>
<trkpt lat="40.0728134" lon="-105.2306147">
  <ele>1596.65</ele>
  <time>2026-08-28T19:12:30Z</time>
  <course>348.15</course>
  <speed>0.01414213562373095</speed>
  <fix>3d</fix>
</trkpt>
<trkpt lat="40.0728133" lon="-105.2306146">
  <ele>1596.55</ele>
  <time>2026-08-28T19:12:30Z</time>
  <course>71.92</course>
  <speed>0.0</speed>
  <fix>3d</fix>
</trkpt>
<trkpt lat="40.0728134" lon="-105.2306147">
  <ele>1596.65</ele>
  <time>2026-08-28T19:12:30Z</time>
  <course>348.14</course>
  <speed>0.01414213562373095</speed>
  <fix>3d</fix>
</trkpt>
<trkpt lat="40.0728133" lon="-105.2306146">
  <ele>1596.55</ele>
  <time>2026-08-28T19:12:30Z</time>
  <course>71.12</course>
  <speed>0.0</speed>
  <fix>3d</fix>
</trkpt>
<trkpt lat="40.0728134" lon="-105.2306147">
  <ele>1596.65</ele>
  <time>2026-08-28T19:12:30Z</time>
  <course>348.13</course>
  <speed>0.01414213562373095</speed>
  <fix>3d</fix>
</trkpt>
<trkpt lat="40.0728133" lon="-105.2306146">
  <ele>1596.55</ele>
  <time>2026-08-28T19:12:30Z</time>
  <course>70.67</course>
  <speed>0.0</speed>
  <fix>3d</fix>
</trkpt>
<trkpt lat="40.0728134" lon="-105.2306147">
  <ele>1596.64</ele>
  <time>2026-08-28T19:12:30Z</time>
  <course>348.13</course>
  <speed>0.01414213562373095</speed>
  <fix>3d</fix>
</trkpt>
<trkpt lat="40.0728133" lon="-105.2306146">
  <ele>1596.55</ele>
  <time>2026-08-28T19:12:30Z</time>
  <course>70.4</course>
  <speed>0.0</speed>
  <fix>3d</fix>
</trkpt>
<trkpt lat="40.0728134" lon="-105.2306147">
  <ele>1596.64</ele>
  <time>2026-08-28T19:12:30Z</time>
  <course>348.12</course>
  <speed>0.01414213562373095</speed>
  <fix>3d</fix>
</trkpt>
<trkpt lat="40.0728133" lon="-105.2306145">
  <ele>1596.55</ele>
  <time>2026-08-28T19:12:30Z</time>
  <course>70.24</course>
  <speed>0.0</speed>
  <fix>3d</fix>
</trkpt>
<trkpt lat="40.0728134" lon="-105.2306147">
  <ele>1596.64</ele>
  <time>2026-08-28T19:12:30Z</time>
  <course>348.12</course>
  <speed>0.01414213562373095</speed>
  <fix>3d</fix>
</trkpt>
<trkpt lat="40.0728133" lon="-105.2306145">
  <ele>1596.55</ele>
  <time>2026-08-28T19:12:30Z</time>
  <course>70.39</course>
  <speed>0.0</speed>
  <fix>3d</fix>
</trkpt>
<trkpt lat="40.0728134" lon="-105.2306147">
  <ele>1596.64</ele>
  <time>2026-08-28T19:12:30Z</time>
  <course>348.11</course>
  <speed>0.01414213562373095</speed>
  <fix>3d</fix>
</trkpt>
<trkpt lat="40.0728133" lon="-105.2306145">
  <ele>1596.55</ele>
  <time>2026-08-28T19:12:30Z</time>
  <course>68.47</course>
  <speed>0.0</speed>
  <fix>3d</fix>
</trkpt>
<trkpt lat="40.0728134" lon="-105.2306147">
  <ele>1596.64</ele>
  <time>2026-08-28T19:12:30Z</time>
  <course>348.09</course>
  <speed>0.01414213562373095</speed>
  <fix>3d</fix>
</trkpt>
<trkpt lat="40.0728133" lon="-105.2306145">
  <ele>1596.55</ele>
  <time>2026-08-28T19:12:30Z</time>
  <course>63.57</course>
  <speed>0.0</speed>
  <fix>3d</fix>
</trkpt>
<trkpt lat="40.0728134" lon="-105.2306147">
  <ele>1596.64</ele>
  <time>2026-08-28T19:12:30Z</time>
  <course>348.1</course>
  <speed>0.01414213562373095</speed>
  <fix>3d</fix>
</trkpt>
<trkpt lat="40.0728133" lon="-105.2306145">
  <ele>1596.55</ele>
  <time>2026-08-28T19:12:30Z</time>
  <course>58.09</course>
  <speed>0.0</speed>
  <fix>3d</fix>
</trkpt>
<trkpt lat="40.0728134" lon="-105.2306147">
  <ele>1596.64</ele>
  <time>2026-08-28T19:12:30Z</time>
  <course>348.1</course>
  <speed>0.01414213562373095</speed>
  <fix>3d</fix>
</trkpt>
<trkpt lat="40.0728133" lon="-105.2306145">
  <ele>1596.56</ele>
  <time>2026-08-28T19:12:30Z</time>
  <course>52.86</course>
  <speed>0.0</speed>
  <fix>3d</fix>
</trkpt>
<trkpt lat="40.0728134" lon="-105.2306147">
  <ele>1596.64</ele>
  <time>2026-08-28T19:12:30Z</time>
  <course>348.1</course>
  <speed>0.01414213562373095</speed>
  <fix>3d</fix>
</trkpt>
<trkpt lat="40.0728133" lon="-105.2306145">
  <ele>1596.56</ele>
  <time>2026-08-28T19:12:30Z</time>
  <course>45.94</course>
  <speed>0.0</speed>
  <fix>3d</fix>
</trkpt>
<trkpt lat="40.0728134" lon="-105.2306147">
  <ele>1596.65</ele>
  <time>2026-08-28T19:12:30Z</time>
  <course>348.1</course>
  <speed>0.022360679774997897</speed>
  <fix>3d</fix>
</trkpt>
<trkpt lat="40.0728133" lon="-105.2306144">
  <ele>1596.56</ele>
  <time>2026-08-28T19:12:30Z</time>
  <course>36.98</course>
  <speed>0.0</speed>
  <fix>3d</fix>
</trkpt>
<trkpt lat="40.0728134" lon="-105.2306147">
  <ele>1596.65</ele>
  <time>2026-08-28T19:12:30Z</time>
  <course>348.11</course>
  <speed>0.022360679774997897</speed>
  <fix>3d</fix>
</trkpt>
<trkpt lat="40.0728133" lon="-105.2306143">
  <ele>1596.56</ele>
  <time>2026-08-28T19:12:30Z</time>
  <course>27.37</course>
  <speed>0.0</speed>
  <fix>3d</fix>
</trkpt>
<trkpt lat="40.0728134" lon="-105.2306147">
  <ele>1596.65</ele>
  <time>2026-08-28T19:12:30Z</time>
  <course>348.11</course>
  <speed>0.022360679774997897</speed>
  <fix>3d</fix>
</trkpt>
<trkpt lat="40.0728133" lon="-105.2306143">
  <ele>1596.56</ele>
  <time>2026-08-28T19:12:30Z</time>
  <course>16.91</course>
  <speed>0.0</speed>
  <fix>3d</fix>
</trkpt>
<trkpt lat="40.0728134" lon="-105.2306146">
  <ele>1596.65</ele>
  <time>2026-08-28T19:12:30Z</time>
  <course>348.11</course>
  <speed>0.022360679774997897</speed>
  <fix>3d</fix>
</trkpt>
<trkpt lat="40.0728133" lon="-105.2306143">
  <ele>1596.56</ele>
  <time>2026-08-28T19:12:30Z</time>
  <course>7.06</course>
  <speed>0.0</speed>
  <fix>3d</fix>
</trkpt>
<trkpt lat="40.0728134" lon="-105.2306146">
  <ele>1596.65</ele>
  <time>2026-08-28T19:12:30Z</time>
  <course>348.11</course>
  <speed>0.022360679774997897</speed>
  <fix>3d</fix>
</trkpt>
<trkpt lat="40.0728133" lon="-105.2306143">
  <ele>1596.57</ele>
  <time>2026-08-28T19:12:30Z</time>
  <course>354.41</course>
  <speed>0.0</speed>
  <fix>3d</fix>
</trkpt>
<trkpt lat="40.0728134" lon="-105.2306146">
  <ele>1596.65</ele>
  <time>2026-08-28T19:12:30Z</time>
  <course>348.11</course>
  <speed>0.022360679774997897</speed>
  <fix>3d</fix>
</trkpt>
<trkpt lat="40.0728133" lon="-105.2306143">
  <ele>1596.57</ele>
  <time>2026-08-28T19:12:30Z</time>
  <course>337.55</course>
  <speed>0.0</speed>
  <fix>3d</fix>
</trkpt>
<trkpt lat="40.0728134" lon="-105.2306146">
  <ele>1596.65</ele>
  <time>2026-08-28T19:12:30Z</time>
  <course>348.11</course>
  <speed>0.022360679774997897</speed>
  <fix>3d</fix>
</trkpt>
<trkpt lat="40.0728133" lon="-105.2306143">
  <ele>1596.57</ele>
  <time>2026-08-28T19:12:30Z</time>
  <course>325.12</course>
  <speed>0.0</speed>
  <fix>3d</fix>
</trkpt>
<trkpt lat="40.0728134" lon="-105.2306146">
  <ele>1596.65</ele>
  <time>2026-08-28T19:12:30Z</time>
  <course>348.1</course>
  <speed>0.022360679774997897</speed>
  <fix>3d</fix>
</trkpt>
<trkpt lat="40.0728133" lon="-105.2306143">
  <ele>1596.57</ele>
  <time>2026-08-28T19:12:30Z</time>
  <course>317.04</course>
  <speed>0.0</speed>
  <fix>3d</fix>
</trkpt>
<trkpt lat="40.0728134" lon="-105.2306146">
  <ele>1596.66</ele>
  <time>2026-08-28T19:12:30Z</time>
  <course>348.11</course>
  <speed>0.022360679774997897</speed>
  <fix>3d</fix>
</trkpt>
<trkpt lat="40.0728133" lon="-105.2306143">
  <ele>1596.57</ele>
  <time>2026-08-28T19:12:30Z</time>
  <course>311.56</course>
  <speed>0.0</speed>
  <fix>3d</fix>
</trkpt>
<trkpt lat="40.0728134" lon="-105.2306146">
  <ele>1596.65</ele>
  <time>2026-08-28T19:12:30Z</time>
  <course>348.11</course>
  <speed>0.022360679774997897</speed>
  <fix>3d</fix>
</trkpt>
<trkpt lat="40.0728133" lon="-105.2306143">
  <ele>1596.57</ele>
  <time>2026-08-28T19:12:30Z</time>
  <course>308.77</course>
  <speed>0.0</speed>
  <fix>3d</fix>
</trkpt>
<trkpt lat="40.0728134" lon="-105.2306146">
  <ele>1596.65</ele>
  <time>2026-08-28T19:12:30Z</time>
  <course>348.12</course>
  <speed>0.022360679774997897</speed>
  <fix>3d</fix>
</trkpt>
<trkpt lat="40.0728133" lon="-105.2306143">
  <ele>1596.57</ele>
  <time>2026-08-28T19:12:30Z</time>
  <course>306.54</course>
  <speed>0.01</speed>
  <fix>3d</fix>
</trkpt>
<trkpt lat="40.0728134" lon="-105.2306146">
  <ele>1596.66</ele>
  <time>2026-08-28T19:12:30Z</time>
  <course>348.13</course>
  <speed>0.022360679774997897</speed>
  <fix>3d</fix>
</trkpt>
<trkpt lat="40.0728133" lon="-105.2306143">
  <ele>1596.57</ele>
  <time>2026-08-28T19:12:30Z</time>
  <course>303.06</course>
  <speed>0.01</speed>
  <fix>3d</fix>
</trkpt>
<trkpt lat="40.0728134" lon="-105.2306146">
  <ele>1596.66</ele>
  <time>2026-08-28T19:12:30Z</time>
  <course>348.13</course>
  <speed>0.022360679774997897</speed>
  <fix>3d</fix>
</trkpt>
<trkpt lat="40.0728134" lon="-105.2306144">
  <ele>1596.57</ele>
  <time>2026-08-28T19:12:30Z</time>
  <course>300.11</course>
  <speed>0.01</speed>
  <fix>3d</fix>
</trkpt>
<trkpt lat="40.0728134" lon="-105.2306146">
  <ele>1596.67</ele>
  <time>2026-08-28T19:12:30Z</time>
  <course>348.14</course>
  <speed>0.022360679774997897</speed>
  <fix>3d</fix>
</trkpt>
<trkpt lat="40.0728134" lon="-105.2306145">
  <ele>1596.57</ele>
  <time>2026-08-28T19:12:30Z</time>
  <course>299.18</course>
  <speed>0.01</speed>
  <fix>3d</fix>
</trkpt>
<trkpt lat="40.0728134" lon="-105.2306146">
  <ele>1596.67</ele>
  <time>2026-08-28T19:12:30Z</time>
  <course>348.16</course>
  <speed>0.022360679774997897</speed>
  <fix>3d</fix>
</trkpt>
<trkpt lat="40.0728134" lon="-105.2306145">
  <ele>1596.57</ele>
  <time>2026-08-28T19:12:30Z</time>
  <course>298.55</course>
  <speed>0.01</speed>
  <fix>3d</fix>
</trkpt>
<trkpt lat="40.0728134" lon="-105.2306146">
  <ele>1596.66</ele>
  <time>2026-08-28T19:12:30Z</time>
  <course>348.17</course>
  <speed>0.022360679774997897</speed>
  <fix>3d</fix>
</trkpt>
<trkpt lat="40.0728134" lon="-105.2306145">
  <ele>1596.57</ele>
  <time>2026-08-28T19:12:30Z</time>
  <course>297.39</course>
  <speed>0.01</speed>
  <fix>3d</fix>
</trkpt>
<trkpt lat="40.0728134" lon="-105.2306147">
  <ele>1596.66</ele>
  <time>2026-08-28T19:12:30Z</time>
  <course>348.16</course>
  <speed>0.022360679774997897</speed>
  <fix>3d</fix>
</trkpt>
<trkpt lat="40.0728134" lon="-105.2306145">
  <ele>1596.57</ele>
  <time>2026-08-28T19:12:30Z</time>
  <course>295.81</course>
  <speed>0.01</speed>
  <fix>3d</fix>
</trkpt>
<trkpt lat="40.0728134" lon="-105.2306147">
  <ele>1596.66</ele>
  <time>2026-08-28T19:12:30Z</time>
  <course>348.16</course>
  <speed>0.022360679774997897</speed>
  <fix>3d</fix>
</trkpt>
<trkpt lat="40.0728134" lon="-105.2306146">
  <ele>1596.56</ele>
  <time>2026-08-28T19:12:30Z</time>
  <course>294.7</course>
  <speed>0.01</speed>
  <fix>3d</fix>
</trkpt>
<trkpt lat="40.0728134" lon="-105.2306147">
  <ele>1596.66</ele>
  <time>2026-08-28T19:12:30Z</time>
  <course>348.16</course>
  <speed>0.02</speed>
  <fix>3d</fix>
</trkpt>
<trkpt lat="40.0728134" lon="-105.2306146">
  <ele>1596.56</ele>
  <time>2026-08-28T19:12:30Z</time>
  <course>294.12</course>
  <speed>0.01</speed>
  <fix>3d</fix>
</trkpt>
<trkpt lat="40.0728134" lon="-105.2306147">
  <ele>1596.65</ele>
  <time>2026-08-28T19:12:30Z</time>
  <course>348.16</course>
  <speed>0.02</speed>
  <fix>3d</fix>
</trkpt>
<trkpt lat="40.0728134" lon="-105.2306146">
  <ele>1596.56</ele>
  <time>2026-08-28T19:12:30Z</time>
  <course>293.79</course>
  <speed>0.01</speed>
  <fix>3d</fix>
</trkpt>
<trkpt lat="40.0728134" lon="-105.2306148">
  <ele>1596.65</ele>
  <time>2026-08-28T19:12:30Z</time>
  <course>348.14</course>
  <speed>0.01</speed>
  <fix>3d</fix>
</trkpt>
<trkpt lat="40.0728134" lon="-105.2306146">
  <ele>1596.56</ele>
  <time>2026-08-28T19:12:30Z</time>
  <course>294.69</course>
  <speed>0.01</speed>
  <fix>3d</fix>
</trkpt>
<trkpt lat="40.0728134" lon="-105.2306148">
  <ele>1596.65</ele>
  <time>2026-08-28T19:12:30Z</time>
  <course>348.12</course>
  <speed>0.01</speed>
  <fix>3d</fix>
</trkpt>
<trkpt lat="40.0728134" lon="-105.2306146">
  <ele>1596.56</ele>
  <time>2026-08-28T19:12:30Z</time>
  <course>295.75</course>
  <speed>0.0</speed>
  <fix>3d</fix>
</trkpt>
<trkpt lat="40.0728134" lon="-105.2306148">
  <ele>1596.65</ele>
  <time>2026-08-28T19:12:30Z</time>
  <course>348.1</course>
  <speed>0.01</speed>
  <fix>3d</fix>
</trkpt>
<trkpt lat="40.0728134" lon="-105.2306146">
  <ele>1596.56</ele>
  <time>2026-08-28T19:12:30Z</time>
  <course>295.42</course>
  <speed>0.0</speed>
  <fix>3d</fix>
</trkpt>
<trkpt lat="40.0728134" lon="-105.2306148">
  <ele>1596.65</ele>
  <time>2026-08-28T19:12:30Z</time>
  <course>348.08</course>
  <speed>0.01</speed>
  <fix>3d</fix>
</trkpt>
<trkpt lat="40.0728134" lon="-105.2306146">
  <ele>1596.56</ele>
  <time>2026-08-28T19:12:30Z</time>
  <course>293.91</course>
  <speed>0.0</speed>
  <fix>3d</fix>
</trkpt>
<trkpt lat="40.0728134" lon="-105.2306148">
  <ele>1596.65</ele>
  <time>2026-08-28T19:12:30Z</time>
  <course>348.07</course>
  <speed>0.01</speed>
  <fix>3d</fix>
</trkpt>
<trkpt lat="40.0728134" lon="-105.2306146">
  <ele>1596.56</ele>
  <time>2026-08-28T19:12:30Z</time>
  <course>291.43</course>
  <speed>0.0</speed>
  <fix>3d</fix>
</trkpt>
<trkpt lat="40.0728134" lon="-105.2306148">
  <ele>1596.64</ele>
  <time>2026-08-28T19:12:30Z</time>
  <course>348.06</course>
  <speed>0.01</speed>
  <fix>3d</fix>
</trkpt>
<trkpt lat="40.0728134" lon="-105.2306147">
  <ele>1596.56</ele>
  <time>2026-08-28T19:12:30Z</time>
  <course>291.9</course>
  <speed>0.0</speed>
  <fix>3d</fix>
</trkpt>
<trkpt lat="40.0728134" lon="-105.2306148">
  <ele>1596.64</ele>
  <time>2026-08-28T19:12:30Z</time>
  <course>348.05</course>
  <speed>0.01</speed>
  <fix>3d</fix>
</trkpt>
<trkpt lat="40.0728134" lon="-105.2306148">
  <ele>1596.56</ele>
  <time>2026-08-28T19:12:30Z</time>
  <course>298.35</course>
  <speed>0.0</speed>
  <fix>3d</fix>
</trkpt>
<trkpt lat="40.0728134" lon="-105.2306148">
  <ele>1596.64</ele>
  <time>2026-08-28T19:12:30Z</time>
  <course>348.05</course>
  <speed>0.01</speed>
  <fix>3d</fix>
</trkpt>
<trkpt lat="40.0728134" lon="-105.2306148">
  <ele>1596.56</ele>
  <time>2026-08-28T19:12:30Z</time>
  <course>304.16</course>
  <speed>0.0</speed>
  <fix>3d</fix>
</trkpt>
<trkpt lat="40.0728134" lon="-105.2306148">
  <ele>1596.64</ele>
  <time>2026-08-28T19:12:30Z</time>
  <course>348.04</course>
  <speed>0.01</speed>
  <fix>3d</fix>
</trkpt>
<trkpt lat="40.0728134" lon="-105.2306148">
  <ele>1596.56</ele>
  <time>2026-08-28T19:12:30Z</time>
  <course>307.63</course>
  <speed>0.0</speed>
  <fix>3d</fix>
</trkpt>
<trkpt lat="40.0728134" lon="-105.2306148">
  <ele>1596.64</ele>
  <time>2026-08-28T19:12:30Z</time>
  <course>348.02</course>
  <speed>0.01</speed>
  <fix>3d</fix>
</trkpt>
<trkpt lat="40.0728134" lon="-105.2306148">
  <ele>1596.56</ele>
  <time>2026-08-28T19:12:30Z</time>
  <course>313.14</course>
  <speed>0.0</speed>
  <fix>3d</fix>
</trkpt>
<trkpt lat="40.0728134" lon="-105.2306148">
  <ele>1596.64</ele>
  <time>2026-08-28T19:12:30Z</time>
  <course>348.01</course>
  <speed>0.01</speed>
  <fix>3d</fix>
</trkpt>
<trkpt lat="40.0728134" lon="-105.2306148">
  <ele>1596.56</ele>
  <time>2026-08-28T19:12:30Z</time>
  <course>318.31</course>
  <speed>0.0</speed>
  <fix>3d</fix>
</trkpt>
<trkpt lat="40.0728134" lon="-105.2306148">
  <ele>1596.64</ele>
  <time>2026-08-28T19:12:30Z</time>
  <course>348.0</course>
  <speed>0.01</speed>
  <fix>3d</fix>
</trkpt>
<trkpt lat="40.0728134" lon="-105.2306148">
  <ele>1596.56</ele>
  <time>2026-08-28T19:12:30Z</time>
  <course>325.19</course>
  <speed>0.0</speed>
  <fix>3d</fix>
</trkpt>
<trkpt lat="40.0728134" lon="-105.2306148">
  <ele>1596.65</ele>
  <time>2026-08-28T19:12:30Z</time>
  <course>347.99</course>
  <speed>0.01</speed>
  <fix>3d</fix>
</trkpt>
<trkpt lat="40.0728134" lon="-105.2306148">
  <ele>1596.57</ele>
  <time>2026-08-28T19:12:30Z</time>
  <course>336.94</course>
  <speed>0.0</speed>
  <fix>3d</fix>
</trkpt>
<trkpt lat="40.0728134" lon="-105.2306148">
  <ele>1596.65</ele>
  <time>2026-08-28T19:12:30Z</time>
  <course>348.0</course>
  <speed>0.01</speed>
  <fix>3d</fix>
</trkpt>
<trkpt lat="40.0728134" lon="-105.2306148">
  <ele>1596.57</ele>
  <time>2026-08-28T19:12:30Z</time>
  <course>344.12</course>
  <speed>0.0</speed>
  <fix>3d</fix>
</trkpt>
<trkpt lat="40.0728134" lon="-105.2306148">
  <ele>1596.65</ele>
  <time>2026-08-28T19:12:30Z</time>
  <course>348.01</course>
  <speed>0.0</speed>
  <fix>3d</fix>
</trkpt>
<trkpt lat="40.0728134" lon="-105.2306148">
  <ele>1596.57</ele>
  <time>2026-08-28T19:12:30Z</time>
  <course>347.04</course>
  <speed>0.0</speed>
  <fix>3d</fix>
</trkpt>
<trkpt lat="40.0728134" lon="-105.2306148">
  <ele>1596.66</ele>
  <time>2026-08-28T19:12:30Z</time>
  <course>348.02</course>
  <speed>0.0</speed>
  <fix>3d</fix>
</trkpt>
<trkpt lat="40.0728134" lon="-105.2306148">
  <ele>1596.57</ele>
  <time>2026-08-28T19:12:30Z</time>
  <course>351.5</course>
  <speed>0.0</speed>
  <fix>3d</fix>
</trkpt>
<trkpt lat="40.0728134" lon="-105.2306148">
  <ele>1596.66</ele>
  <time>2026-08-28T19:12:30Z</time>
  <course>348.03</course>
  <speed>0.0</speed>
  <fix>3d</fix>
</trkpt>
<trkpt lat="40.0728134" lon="-105.2306148">
  <ele>1596.58</ele>
  <time>2026-08-28T19:12:30Z</time>
  <course>355.86</course>
  <speed>0.0</speed>
  <fix>3d</fix>
</trkpt>
<trkpt lat="40.0728134" lon="-105.2306148">
  <ele>1596.67</ele>
  <time>2026-08-28T19:12:30Z</time>
  <course>348.07</course>
  <speed>0.0</speed>
  <fix>3d</fix>
</trkpt>
<trkpt lat="40.0728135" lon="-105.2306148">
  <ele>1596.58</ele>
  <time>2026-08-28T19:12:30Z</time>
  <course>359.18</course>
  <speed>0.0</speed>
  <fix>3d</fix>
</trkpt>
<trkpt lat="40.0728134" lon="-105.2306148">
  <ele>1596.66</ele>
  <time>2026-08-28T19:12:30Z</time>
  <course>348.09</course>
  <speed>0.0</speed>
  <fix>3d</fix>
</trkpt>
<trkpt lat="40.0728135" lon="-105.2306148">
  <ele>1596.57</ele>
  <time>2026-08-28T19:12:30Z</time>
  <course>0.72</course>
  <speed>0.0</speed>
  <fix>3d</fix>
</trkpt>
<trkpt lat="40.0728134" lon="-105.2306148">
  <ele>1596.66</ele>
  <time>2026-08-28T19:12:30Z</time>
  <course>348.1</course>
  <speed>0.0</speed>
  <fix>3d</fix>
</trkpt>
<trkpt lat="40.0728135" lon="-105.2306148">
  <ele>1596.57</ele>
  <time>2026-08-28T19:12:30Z</time>
  <course>2.27</course>
  <speed>0.0</speed>
  <fix>3d</fix>
</trkpt>
<trkpt lat="40.0728135" lon="-105.2306148">
  <ele>1596.65</ele>
  <time>2026-08-28T19:12:30Z</time>
  <course>348.09</course>
  <speed>0.0</speed>
  <fix>3d</fix>
</trkpt>
<trkpt lat="40.0728135" lon="-105.2306148">
  <ele>1596.57</ele>
  <time>2026-08-28T19:12:30Z</time>
  <course>3.76</course>
  <speed>0.0</speed>
  <fix>3d</fix>
</trkpt>
<trkpt lat="40.0728135" lon="-105.2306148">
  <ele>1596.64</ele>
  <time>2026-08-28T19:12:30Z</time>
  <course>348.08</course>
  <speed>0.0</speed>
  <fix>3d</fix>
</trkpt>
<trkpt lat="40.0728135" lon="-105.2306148">
  <ele>1596.57</ele>
  <time>2026-08-28T19:12:30Z</time>
  <course>6.03</course>
  <speed>0.0</speed>
  <fix>3d</fix>
</trkpt>
<trkpt lat="40.0728135" lon="-105.2306148">
  <ele>1596.64</ele>
  <time>2026-08-28T19:12:30Z</time>
  <course>348.07</course>
  <speed>0.0</speed>
  <fix>3d</fix>
</trkpt>
<trkpt lat="40.0728135" lon="-105.2306148">
  <ele>1596.57</ele>
  <time>2026-08-28T19:12:30Z</time>
  <course>10.22</course>
  <speed>0.0</speed>
  <fix>3d</fix>
</trkpt>
<trkpt lat="40.0728135" lon="-105.2306148">
  <ele>1596.64</ele>
  <time>2026-08-28T19:12:30Z</time>
  <course>348.04</course>
  <speed>0.0</speed>
  <fix>3d</fix>
</trkpt>
<trkpt lat="40.0728135" lon="-105.2306148">
  <ele>1596.57</ele>
  <time>2026-08-28T19:12:30Z</time>
  <course>12.5</course>
  <speed>0.0</speed>
  <fix>3d</fix>
</trkpt>
<trkpt lat="40.0728135" lon="-105.2306148">
  <ele>1596.65</ele>
  <time>2026-08-28T19:12:30Z</time>
  <course>348.02</course>
  <speed>0.0</speed>
  <fix>3d</fix>
</trkpt>
<trkpt lat="40.0728135" lon="-105.2306148">
  <ele>1596.57</ele>
  <time>2026-08-28T19:12:30Z</time>
  <course>9.8</course>
  <speed>0.0</speed>
  <fix>3d</fix>
</trkpt>
<trkpt lat="40.0728135" lon="-105.2306148">
  <ele>1596.64</ele>
  <time>2026-08-28T19:12:30Z</time>
  <course>348.0</course>
  <speed>0.0</speed>
  <fix>3d</fix>
</trkpt>
<trkpt lat="40.0728135" lon="-105.2306148">
  <ele>1596.57</ele>
  <time>2026-08-28T19:12:30Z</time>
  <course>3.52</course>
  <speed>0.0</speed>
  <fix>3d</fix>
</trkpt>
<trkpt lat="40.0728135" lon="-105.2306148">
  <ele>1596.65</ele>
  <time>2026-08-28T19:12:30Z</time>
  <course>347.99</course>
  <speed>0.0</speed>
  <fix>3d</fix>
</trkpt>
<trkpt lat="40.0728135" lon="-105.2306148">
  <ele>1596.57</ele>
  <time>2026-08-28T19:12:30Z</time>
  <course>353.9</course>
  <speed>0.0</speed>
  <fix>3d</fix>
</trkpt>
<trkpt lat="40.0728135" lon="-105.2306148">
  <ele>1596.65</ele>
  <time>2026-08-28T19:12:30Z</time>
  <course>347.99</course>
  <speed>0.0</speed>
  <fix>3d</fix>
</trkpt>
<trkpt lat="40.0728135" lon="-105.2306148">
  <ele>1596.57</ele>
  <time>2026-08-28T19:12:30Z</time>
  <course>329.81</course>
  <speed>0.0</speed>
  <fix>3d</fix>
</trkpt>
<trkpt lat="40.0728135" lon="-105.2306148">
  <ele>1596.65</ele>
  <time>2026-08-28T19:12:30Z</time>
  <course>347.99</course>
  <speed>0.0</speed>
  <fix>3d</fix>
</trkpt>
<trkpt lat="40.0728135" lon="-105.2306148">
  <ele>1596.57</ele>
  <time>2026-08-28T19:12:30Z</time>
  <course>296.45</course>
  <speed>0.0</speed>
  <fix>3d</fix>
</trkpt>
<trkpt lat="40.0728135" lon="-105.2306148">
  <ele>1596.65</ele>
  <time>2026-08-28T19:12:30Z</time>
  <course>348.0</course>
  <speed>0.0</speed>
  <fix>3d</fix>
</trkpt>
<trkpt lat="40.0728135" lon="-105.2306148">
  <ele>1596.58</ele>
  <time>2026-08-28T19:12:30Z</time>
  <course>277.12</course>
  <speed>0.0</speed>
  <fix>3d</fix>
</trkpt>
<trkpt lat="40.0728135" lon="-105.2306148">
  <ele>1596.66</ele>
  <time>2026-08-28T19:12:30Z</time>
  <course>348.02</course>
  <speed>0.0</speed>
  <fix>3d</fix>
</trkpt>
<trkpt lat="40.0728135" lon="-105.2306148">
  <ele>1596.58</ele>
  <time>2026-08-28T19:12:30Z</time>
  <course>267.89</course>
  <speed>0.0</speed>
  <fix>3d</fix>
</trkpt>
<trkpt lat="40.0728135" lon="-105.2306148">
  <ele>1596.66</ele>
  <time>2026-08-28T19:12:30Z</time>
  <course>348.03</course>
  <speed>0.0</speed>
  <fix>3d</fix>
</trkpt>
<trkpt lat="40.0728135" lon="-105.2306148">
  <ele>1596.58</ele>
  <time>2026-08-28T19:12:30Z</time>
  <course>265.06</course>
  <speed>0.0</speed>
  <fix>3d</fix>
</trkpt>
<trkpt lat="40.0728135" lon="-105.2306148">
  <ele>1596.66</ele>
  <time>2026-08-28T19:12:30Z</time>
  <course>348.04</course>
  <speed>0.0</speed>
  <fix>3d</fix>
</trkpt>
<trkpt lat="40.0728135" lon="-105.2306148">
  <ele>1596.58</ele>
  <time>2026-08-28T19:12:30Z</time>
  <course>272.31</course>
  <speed>0.0</speed>
  <fix>3d</fix>
</trkpt>
<trkpt lat="40.0728135" lon="-105.2306148">
  <ele>1596.66</ele>
  <time>2026-08-28T19:12:30Z</time>
  <course>348.04</course>
  <speed>0.0</speed>
  <fix>3d</fix>
</trkpt>
<trkpt lat="40.0728135" lon="-105.2306148">
  <ele>1596.58</ele>
  <time>2026-08-28T19:12:30Z</time>
  <course>289.91</course>
  <speed>0.0</speed>
  <fix>3d</fix>
</trkpt>
<trkpt lat="40.0728135" lon="-105.2306148">
  <ele>1596.66</ele>
  <time>2026-08-28T19:12:30Z</time>
  <course>348.05</course>
  <speed>0.0</speed>
  <fix>3d</fix>
</trkpt>
<trkpt lat="40.0728135" lon="-105.2306148">
  <ele>1596.58</ele>
  <time>2026-08-28T19:12:30Z</time>
  <course>302.89</course>
  <speed>0.0</speed>
  <fix>3d</fix>
</trkpt>
<trkpt lat="40.0728135" lon="-105.2306148">
  <ele>1596.66</ele>
  <time>2026-08-28T19:12:30Z</time>
  <course>348.06</course>
  <speed>0.0</speed>
  <fix>3d</fix>
</trkpt>
<trkpt lat="40.0728135" lon="-105.2306148">
  <ele>1596.57</ele>
  <time>2026-08-28T19:12:30Z</time>
  <course>307.03</course>
  <speed>0.0</speed>
  <fix>3d</fix>
</trkpt>
<trkpt lat="40.0728135" lon="-105.2306148">
  <ele>1596.65</ele>
  <time>2026-08-28T19:12:30Z</time>
  <course>348.05</course>
  <speed>0.0</speed>
  <fix>3d</fix>
</trkpt>
<trkpt lat="40.0728135" lon="-105.2306148">
  <ele>1596.57</ele>
  <time>2026-08-28T19:12:30Z</time>
  <course>308.45</course>
  <speed>0.0</speed>
  <fix>3d</fix>
</trkpt>
<trkpt lat="40.0728135" lon="-105.2306148">
  <ele>1596.65</ele>
  <time>2026-08-28T19:12:30Z</time>
  <course>348.03</course>
  <speed>0.0</speed>
  <fix>3d</fix>
</trkpt>
<trkpt lat="40.0728135" lon="-105.2306148">
  <ele>1596.57</ele>
  <time>2026-08-28T19:12:30Z</time>
  <course>310.35</course>
  <speed>0.0</speed>
  <fix>3d</fix>
</trkpt>
<trkpt lat="40.0728135" lon="-105.2306148">
  <ele>1596.66</ele>
  <time>2026-08-28T19:12:30Z</time>
  <course>348.02</course>
  <speed>0.0</speed>
  <fix>3d</fix>
</trkpt>
<trkpt lat="40.0728135" lon="-105.2306148">
  <ele>1596.57</ele>
  <time>2026-08-28T19:12:30Z</time>
  <course>311.2</course>
  <speed>0.0</speed>
  <fix>3d</fix>
</trkpt>
<trkpt lat="40.0728135" lon="-105.2306148">
  <ele>1596.66</ele>
  <time>2026-08-28T19:12:30Z</time>
  <course>348.03</course>
  <speed>0.0</speed>
  <fix>3d</fix>
</trkpt>
<trkpt lat="40.0728136" lon="-105.2306148">
  <ele>1596.57</ele>
  <time>2026-08-28T19:12:30Z</time>
  <course>308.66</course>
  <speed>0.0</speed>
  <fix>3d</fix>
</trkpt>
<trkpt lat="40.0728135" lon="-105.2306148">
  <ele>1596.66</ele>
  <time>2026-08-28T19:12:30Z</time>
  <course>348.03</course>
  <speed>0.0</speed>
  <fix>3d</fix>
</trkpt>
<trkpt lat="40.0728137" lon="-105.2306148">
  <ele>1596.57</ele>
  <time>2026-08-28T19:12:30Z</time>
  <course>305.53</course>
  <speed>0.0</speed>
  <fix>3d</fix>
</trkpt>
<trkpt lat="40.0728135" lon="-105.2306148">
  <ele>1596.65</ele>
  <time>2026-08-28T19:12:30Z</time>
  <course>348.04</course>
  <speed>0.0</speed>
  <fix>3d</fix>
</trkpt>
<trkpt lat="40.0728137" lon="-105.2306148">
  <ele>1596.57</ele>
  <time>2026-08-28T19:12:30Z</time>
  <course>303.68</course>
  <speed>0.0</speed>
  <fix>3d</fix>
</trkpt>
<trkpt lat="40.0728135" lon="-105.2306148">
  <ele>1596.65</ele>
  <time>2026-08-28T19:12:30Z</time>
  <course>348.03</course>
  <speed>0.0</speed>
  <fix>3d</fix>
</trkpt>
<trkpt lat="40.0728137" lon="-105.2306148">
  <ele>1596.57</ele>
  <time>2026-08-28T19:12:30Z</time>
  <course>298.33</course>
  <speed>0.0</speed>
  <fix>3d</fix>
</trkpt>
<trkpt lat="40.0728135" lon="-105.2306148">
  <ele>1596.65</ele>
  <time>2026-08-28T19:12:30Z</time>
  <course>348.02</course>
  <speed>0.0</speed>
  <fix>3d</fix>
</trkpt>
<trkpt lat="40.0728137" lon="-105.2306148">
  <ele>1596.57</ele>
  <time>2026-08-28T19:12:30Z</time>
  <course>285.68</course>
  <speed>0.0</speed>
  <fix>3d</fix>
</trkpt>
<trkpt lat="40.0728136" lon="-105.2306148">
  <ele>1596.65</ele>
  <time>2026-08-28T19:12:30Z</time>
  <course>348.01</course>
  <speed>0.0</speed>
  <fix>3d</fix>
</trkpt>
<trkpt lat="40.0728137" lon="-105.2306148">
  <ele>1596.57</ele>
  <time>2026-08-28T19:12:30Z</time>
  <course>268.91</course>
  <speed>0.0</speed>
  <fix>3d</fix>
</trkpt>
<trkpt lat="40.0728136" lon="-105.2306148">
  <ele>1596.65</ele>
  <time>2026-08-28T19:12:30Z</time>
  <course>348.0</course>
  <speed>0.0</speed>
  <fix>3d</fix>
</trkpt>
<trkpt lat="40.0728137" lon="-105.2306149">
  <ele>1596.56</ele>
  <time>2026-08-28T19:12:30Z</time>
  <course>254.76</course>
  <speed>0.0</speed>
  <fix>3d</fix>
</trkpt>
<trkpt lat="40.0728136" lon="-105.2306149">
  <ele>1596.65</ele>
  <time>2026-08-28T19:12:30Z</time>
  <course>347.99</course>
  <speed>0.0</speed>
  <fix>3d</fix>
</trkpt>
<trkpt lat="40.0728137" lon="-105.230615">
  <ele>1596.56</ele>
  <time>2026-08-28T19:12:30Z</time>
  <course>244.43</course>
  <speed>0.0</speed>
  <fix>3d</fix>
</trkpt>
<trkpt lat="40.0728136" lon="-105.2306149">
  <ele>1596.65</ele>
  <time>2026-08-28T19:12:30Z</time>
  <course>347.99</course>
  <speed>0.0</speed>
  <fix>3d</fix>
</trkpt>
<trkpt lat="40.0728137" lon="-105.230615">
  <ele>1596.57</ele>
  <time>2026-08-28T19:12:30Z</time>
  <course>236.82</course>
  <speed>0.0</speed>
  <fix>3d</fix>
</trkpt>
<trkpt lat="40.0728136" lon="-105.2306149">
  <ele>1596.65</ele>
  <time>2026-08-28T19:12:30Z</time>
  <course>347.98</course>
  <speed>0.0</speed>
  <fix>3d</fix>
</trkpt>
<trkpt lat="40.0728137" lon="-105.230615">
  <ele>1596.57</ele>
  <time>2026-08-28T19:12:30Z</time>
  <course>230.46</course>
  <speed>0.0</speed>
  <fix>3d</fix>
</trkpt>
<trkpt lat="40.0728136" lon="-105.2306149">
  <ele>1596.64</ele>
  <time>2026-08-28T19:12:30Z</time>
  <course>347.98</course>
  <speed>0.0</speed>
  <fix>3d</fix>
</trkpt>
<trkpt lat="40.0728137" lon="-105.230615">
  <ele>1596.57</ele>
  <time>2026-08-28T19:12:30Z</time>
  <course>224.67</course>
  <speed>0.0</speed>
  <fix>3d</fix>
</trkpt>
<trkpt lat="40.0728136" lon="-105.2306149">
  <ele>1596.64</ele>
  <time>2026-08-28T19:12:30Z</time>
  <course>347.97</course>
  <speed>0.0</speed>
  <fix>3d</fix>
</trkpt>
<trkpt lat="40.0728137" lon="-105.230615">
  <ele>1596.57</ele>
  <time>2026-08-28T19:12:30Z</time>
  <course>219.3</course>
  <speed>0.01</speed>
  <fix>3d</fix>
</trkpt>
<trkpt lat="40.0728136" lon="-105.230615">
  <ele>1596.64</ele>
  <time>2026-08-28T19:12:30Z</time>
  <course>347.96</course>
  <speed>0.0</speed>
  <fix>3d</fix>
</trkpt>
<trkpt lat="40.0728137" lon="-105.230615">
  <ele>1596.57</ele>
  <time>2026-08-28T19:12:30Z</time>
  <course>212.33</course>
  <speed>0.01</speed>
  <fix>3d</fix>
</trkpt>
<trkpt lat="40.0728136" lon="-105.230615">
  <ele>1596.64</ele>
  <time>2026-08-28T19:12:30Z</time>
  <course>347.94</course>
  <speed>0.01</speed>
  <fix>3d</fix>
</trkpt>
<trkpt lat="40.0728137" lon="-105.2306151">
  <ele>1596.57</ele>
  <time>2026-08-28T19:12:30Z</time>
  <course>203.4</course>
  <speed>0.01</speed>
  <fix>3d</fix>
</trkpt>
<trkpt lat="40.0728136" lon="-105.230615">
  <ele>1596.64</ele>
  <time>2026-08-28T19:12:30Z</time>
  <course>347.92</course>
  <speed>0.0</speed>
  <fix>3d</fix>
</trkpt>
<trkpt lat="40.0728137" lon="-105.2306151">
  <ele>1596.57</ele>
  <time>2026-08-28T19:12:30Z</time>
  <course>195.21</course>
  <speed>0.01</speed>
  <fix>3d</fix>
</trkpt>
<trkpt lat="40.0728136" lon="-105.230615">
  <ele>1596.64</ele>
  <time>2026-08-28T19:12:30Z</time>
  <course>347.91</course>
  <speed>0.0</speed>
  <fix>3d</fix>
</trkpt>
<trkpt lat="40.0728136" lon="-105.2306151">
  <ele>1596.57</ele>
  <time>2026-08-28T19:12:30Z</time>
  <course>187.03</course>
  <speed>0.01</speed>
  <fix>3d</fix>
</trkpt>
<trkpt lat="40.0728136" lon="-105.230615">
  <ele>1596.64</ele>
  <time>2026-08-28T19:12:30Z</time>
  <course>347.89</course>
  <speed>0.0</speed>
  <fix>3d</fix>
</trkpt>
<trkpt lat="40.0728135" lon="-105.2306151">
  <ele>1596.57</ele>
  <time>2026-08-28T19:12:30Z</time>
  <course>178.61</course>
  <speed>0.01</speed>
  <fix>3d</fix>
</trkpt>
<trkpt lat="40.0728136" lon="-105.230615">
  <ele>1596.64</ele>
  <time>2026-08-28T19:12:31Z</time>
  <course>347.89</course>
  <speed>0.0</speed>
  <fix>3d</fix>
</trkpt>
<trkpt lat="40.0728135" lon="-105.2306151">
  <ele>1596.58</ele>
  <time>2026-08-28T19:12:31Z</time>
  <course>171.9</course>
  <speed>0.01</speed>
  <fix>3d</fix>
</trkpt>
<trkpt lat="40.0728136" lon="-105.230615">
  <ele>1596.65</ele>
  <time>2026-08-28T19:12:31Z</time>
  <course>347.88</course>
  <speed>0.0</speed>
  <fix>3d</fix>
</trkpt>
<trkpt lat="40.0728135" lon="-105.2306151">
  <ele>1596.58</ele>
  <time>2026-08-28T19:12:31Z</time>
  <course>165.4</course>
  <speed>0.01</speed>
  <fix>3d</fix>
</trkpt>
<trkpt lat="40.0728136" lon="-105.230615">
  <ele>1596.65</ele>
  <time>2026-08-28T19:12:31Z</time>
  <course>347.88</course>
  <speed>0.0</speed>
  <fix>3d</fix>
</trkpt>
<trkpt lat="40.0728135" lon="-105.2306151">
  <ele>1596.58</ele>
  <time>2026-08-28T19:12:31Z</time>
  <course>157.5</course>
  <speed>0.0</speed>
  <fix>3d</fix>
</trkpt>
<trkpt lat="40.0728135" lon="-105.230615">
  <ele>1596.65</ele>
  <time>2026-08-28T19:12:31Z</time>
  <course>347.88</course>
  <speed>0.0</speed>
  <fix>3d</fix>
</trkpt>
<trkpt lat="40.0728135" lon="-105.2306151">
  <ele>1596.58</ele>
  <time>2026-08-28T19:12:31Z</time>
  <course>146.34</course>
  <speed>0.0</speed>
  <fix>3d</fix>
</trkpt>
<trkpt lat="40.0728135" lon="-105.230615">
  <ele>1596.65</ele>
  <time>2026-08-28T19:12:31Z</time>
  <course>347.87</course>
  <speed>0.0</speed>
  <fix>3d</fix>
</trkpt>
<trkpt lat="40.0728135" lon="-105.2306151">
  <ele>1596.58</ele>
  <time>2026-08-28T19:12:31Z</time>
  <course>131.8</course>
  <speed>0.0</speed>
  <fix>3d</fix>
</trkpt>
<trkpt lat="40.0728135" lon="-105.230615">
  <ele>1596.66</ele>
  <time>2026-08-28T19:12:31Z</time>
  <course>347.88</course>
  <speed>0.0</speed>
  <fix>3d</fix>
</trkpt>
<trkpt lat="40.0728134" lon="-105.2306151">
  <ele>1596.59</ele>
  <time>2026-08-28T19:12:31Z</time>
  <course>115.8</course>
  <speed>0.0</speed>
  <fix>3d</fix>
</trkpt>
<trkpt lat="40.0728135" lon="-105.230615">
  <ele>1596.66</ele>
  <time>2026-08-28T19:12:31Z</time>
  <course>347.9</course>
  <speed>0.0</speed>
  <fix>3d</fix>
</trkpt>
<trkpt lat="40.0728134" lon="-105.2306151">
  <ele>1596.59</ele>
  <time>2026-08-28T19:12:31Z</time>
  <course>99.72</course>
  <speed>0.0</speed>
  <fix>3d</fix>
</trkpt>
<trkpt lat="40.0728135" lon="-105.230615">
  <ele>1596.66</ele>
  <time>2026-08-28T19:12:31Z</time>
  <course>347.91</course>
  <speed>0.0</speed>
  <fix>3d</fix>
</trkpt>
<trkpt lat="40.0728134" lon="-105.2306151">
  <ele>1596.59</ele>
  <time>2026-08-28T19:12:31Z</time>
  <course>80.26</course>
  <speed>0.0</speed>
  <fix>3d</fix>
</trkpt>
<trkpt lat="40.0728135" lon="-105.230615">
  <ele>1596.66</ele>
  <time>2026-08-28T19:12:31Z</time>
  <course>347.92</course>
  <speed>0.0</speed>
  <fix>3d</fix>
</trkpt>
<trkpt lat="40.0728134" lon="-105.2306151">
  <ele>1596.59</ele>
  <time>2026-08-28T19:12:31Z</time>
  <course>58.96</course>
  <speed>0.0</speed>
  <fix>3d</fix>
</trkpt>
<trkpt lat="40.0728135" lon="-105.230615">
  <ele>1596.66</ele>
  <time>2026-08-28T19:12:31Z</time>
  <course>347.92</course>
  <speed>0.0</speed>
  <fix>3d</fix>
</trkpt>
<trkpt lat="40.0728134" lon="-105.2306151">
  <ele>1596.59</ele>
  <time>2026-08-28T19:12:31Z</time>
  <course>43.23</course>
  <speed>0.0</speed>
  <fix>3d</fix>
</trkpt>
<trkpt lat="40.0728135" lon="-105.230615">
  <ele>1596.66</ele>
  <time>2026-08-28T19:12:31Z</time>
  <course>347.92</course>
  <speed>0.0</speed>
  <fix>3d</fix>
</trkpt>
<trkpt lat="40.0728134" lon="-105.230615">
  <ele>1596.59</ele>
  <time>2026-08-28T19:12:31Z</time>
  <course>32.43</course>
  <speed>0.0</speed>
  <fix>3d</fix>
</trkpt>
<trkpt lat="40.0728135" lon="-105.230615">
  <ele>1596.66</ele>
  <time>2026-08-28T19:12:31Z</time>
  <course>347.94</course>
  <speed>0.0</speed>
  <fix>3d</fix>
</trkpt>
<trkpt lat="40.0728134" lon="-105.230615">
  <ele>1596.58</ele>
  <time>2026-08-28T19:12:31Z</time>
  <course>24.4</course>
  <speed>0.0</speed>
  <fix>3d</fix>
</trkpt>
<trkpt lat="40.0728135" lon="-105.230615">
  <ele>1596.66</ele>
  <time>2026-08-28T19:12:31Z</time>
  <course>347.96</course>
  <speed>0.0</speed>
  <fix>3d</fix>
</trkpt>
<trkpt lat="40.0728134" lon="-105.230615">
  <ele>1596.58</ele>
  <time>2026-08-28T19:12:31Z</time>
  <course>17.97</course>
  <speed>0.01</speed>
  <fix>3d</fix>
</trkpt>
<trkpt lat="40.0728135" lon="-105.230615">
  <ele>1596.66</ele>
  <time>2026-08-28T19:12:31Z</time>
  <course>347.97</course>
  <speed>0.0</speed>
  <fix>3d</fix>
</trkpt>
<trkpt lat="40.0728134" lon="-105.230615">
  <ele>1596.58</ele>
  <time>2026-08-28T19:12:31Z</time>
  <course>12.03</course>
  <speed>0.01</speed>
  <fix>3d</fix>
</trkpt>
<trkpt lat="40.0728135" lon="-105.230615">
  <ele>1596.66</ele>
  <time>2026-08-28T19:12:31Z</time>
  <course>347.96</course>
  <speed>0.0</speed>
  <fix>3d</fix>
</trkpt>
<trkpt lat="40.0728134" lon="-105.230615">
  <ele>1596.58</ele>
  <time>2026-08-28T19:12:31Z</time>
  <course>7.76</course>
  <speed>0.01</speed>
  <fix>3d</fix>
</trkpt>
<trkpt lat="40.0728135" lon="-105.230615">
  <ele>1596.66</ele>
  <time>2026-08-28T19:12:31Z</time>
  <course>347.95</course>
  <speed>0.0</speed>
  <fix>3d</fix>
</trkpt>
<trkpt lat="40.0728135" lon="-105.230615">
  <ele>1596.58</ele>
  <time>2026-08-28T19:12:31Z</time>
  <course>4.01</course>
  <speed>0.01</speed>
  <fix>3d</fix>
</trkpt>
<trkpt lat="40.0728135" lon="-105.230615">
  <ele>1596.66</ele>
  <time>2026-08-28T19:12:31Z</time>
  <course>347.94</course>
  <speed>0.0</speed>
  <fix>3d</fix>
</trkpt>
<trkpt lat="40.0728135" lon="-105.230615">
  <ele>1596.57</ele>
  <time>2026-08-28T19:12:31Z</time>
  <course>359.45</course>
  <speed>0.01</speed>
  <fix>3d</fix>
</trkpt>
<trkpt lat="40.0728135" lon="-105.230615">
  <ele>1596.66</ele>
  <time>2026-08-28T19:12:31Z</time>
  <course>347.95</course>
  <speed>0.0</speed>
  <fix>3d</fix>
</trkpt>
<trkpt lat="40.0728135" lon="-105.230615">
  <ele>1596.57</ele>
  <time>2026-08-28T19:12:31Z</time>
  <course>355.58</course>
  <speed>0.01</speed>
  <fix>3d</fix>
</trkpt>
<trkpt lat="40.0728135" lon="-105.230615">
  <ele>1596.66</ele>
  <time>2026-08-28T19:12:31Z</time>
  <course>347.94</course>
  <speed>0.0</speed>
  <fix>3d</fix>
</trkpt>
<trkpt lat="40.0728135" lon="-105.230615">
  <ele>1596.57</ele>
  <time>2026-08-28T19:12:31Z</time>
  <course>353.07</course>
  <speed>0.01</speed>
  <fix>3d</fix>
</trkpt>
<trkpt lat="40.0728135" lon="-105.230615">
  <ele>1596.66</ele>
  <time>2026-08-28T19:12:31Z</time>
  <course>347.93</course>
  <speed>0.0</speed>
  <fix>3d</fix>
</trkpt>
<trkpt lat="40.0728136" lon="-105.230615">
  <ele>1596.57</ele>
  <time>2026-08-28T19:12:31Z</time>
  <course>351.72</course>
  <speed>0.01</speed>
  <fix>3d</fix>
</trkpt>
<trkpt lat="40.0728135" lon="-105.230615">
  <ele>1596.66</ele>
  <time>2026-08-28T19:12:31Z</time>
  <course>347.94</course>
  <speed>0.0</speed>
  <fix>3d</fix>
</trkpt>
<trkpt lat="40.0728137" lon="-105.230615">
  <ele>1596.57</ele>
  <time>2026-08-28T19:12:31Z</time>
  <course>349.3</course>
  <speed>0.01</speed>
  <fix>3d</fix>
</trkpt>
<trkpt lat="40.0728136" lon="-105.230615">
  <ele>1596.65</ele>
  <time>2026-08-28T19:12:31Z</time>
  <course>347.93</course>
  <speed>0.0</speed>
  <fix>3d</fix>
</trkpt>
<trkpt lat="40.0728137" lon="-105.230615">
  <ele>1596.56</ele>
  <time>2026-08-28T19:12:31Z</time>
  <course>346.12</course>
  <speed>0.01</speed>
  <fix>3d</fix>
</trkpt>
<trkpt lat="40.0728136" lon="-105.230615">
  <ele>1596.65</ele>
  <time>2026-08-28T19:12:31Z</time>
  <course>347.92</course>
  <speed>0.0</speed>
  <fix>3d</fix>
</trkpt>
<trkpt lat="40.0728137" lon="-105.230615">
  <ele>1596.56</ele>
  <time>2026-08-28T19:12:31Z</time>
  <course>343.55</course>
  <speed>0.01</speed>
  <fix>3d</fix>
</trkpt>
<trkpt lat="40.0728136" lon="-105.230615">
  <ele>1596.65</ele>
  <time>2026-08-28T19:12:31Z</time>
  <course>347.92</course>
  <speed>0.0</speed>
  <fix>3d</fix>
</trkpt>
<trkpt lat="40.0728137" lon="-105.230615">
  <ele>1596.56</ele>
  <time>2026-08-28T19:12:31Z</time>
  <course>339.04</course>
  <speed>0.0</speed>
  <fix>3d</fix>
</trkpt>
<trkpt lat="40.0728136" lon="-105.230615">
  <ele>1596.65</ele>
  <time>2026-08-28T19:12:31Z</time>
  <course>347.92</course>
  <speed>0.0</speed>
  <fix>3d</fix>
</trkpt>
<trkpt lat="40.0728137" lon="-105.230615">
  <ele>1596.56</ele>
  <time>2026-08-28T19:12:31Z</time>
  <course>330.82</course>
  <speed>0.0</speed>
  <fix>3d</fix>
</trkpt>
<trkpt lat="40.0728136" lon="-105.230615">
  <ele>1596.64</ele>
  <time>2026-08-28T19:12:31Z</time>
  <course>347.91</course>
  <speed>0.0</speed>
  <fix>3d</fix>
</trkpt>
<trkpt lat="40.0728138" lon="-105.230615">
  <ele>1596.56</ele>
  <time>2026-08-28T19:12:31Z</time>
  <course>321.01</course>
  <speed>0.0</speed>
  <fix>3d</fix>
</trkpt>
<trkpt lat="40.0728136" lon="-105.230615">
  <ele>1596.64</ele>
  <time>2026-08-28T19:12:31Z</time>
  <course>347.91</course>
  <speed>0.0</speed>
  <fix>3d</fix>
</trkpt>
<trkpt lat="40.0728138" lon="-105.230615">
  <ele>1596.56</ele>
  <time>2026-08-28T19:12:31Z</time>
  <course>308.65</course>
  <speed>0.0</speed>
  <fix>3d</fix>
</trkpt>
<trkpt lat="40.0728136" lon="-105.230615">
  <ele>1596.64</ele>
  <time>2026-08-28T19:12:31Z</time>
  <course>347.91</course>
  <speed>0.0</speed>
  <fix>3d</fix>
</trkpt>
<trkpt lat="40.0728138" lon="-105.230615">
  <ele>1596.56</ele>
  <time>2026-08-28T19:12:31Z</time>
  <course>291.12</course>
  <speed>0.0</speed>
  <fix>3d</fix>
</trkpt>
<trkpt lat="40.0728137" lon="-105.230615">
  <ele>1596.64</ele>
  <time>2026-08-28T19:12:31Z</time>
  <course>347.89</course>
  <speed>0.0</speed>
  <fix>3d</fix>
</trkpt>
<trkpt lat="40.0728138" lon="-105.230615">
  <ele>1596.56</ele>
  <time>2026-08-28T19:12:31Z</time>
  <course>269.32</course>
  <speed>0.0</speed>
  <fix>3d</fix>
</trkpt>
<trkpt lat="40.0728137" lon="-105.230615">
  <ele>1596.64</ele>
  <time>2026-08-28T19:12:31Z</time>
  <course>347.87</course>
  <speed>0.01</speed>
  <fix>3d</fix>
</trkpt>
<trkpt lat="40.0728138" lon="-105.230615">
  <ele>1596.56</ele>
  <time>2026-08-28T19:12:31Z</time>
  <course>243.72</course>
  <speed>0.0</speed>
  <fix>3d</fix>
</trkpt>
<trkpt lat="40.0728137" lon="-105.230615">
  <ele>1596.65</ele>
  <time>2026-08-28T19:12:31Z</time>
  <course>347.85</course>
  <speed>0.01</speed>
  <fix>3d</fix>
</trkpt>
<trkpt lat="40.0728138" lon="-105.230615">
  <ele>1596.56</ele>
  <time>2026-08-28T19:12:31Z</time>
  <course>224.5</course>
  <speed>0.0</speed>
  <fix>3d</fix>
</trkpt>
<trkpt lat="40.0728137" lon="-105.230615">
  <ele>1596.65</ele>
  <time>2026-08-28T19:12:31Z</time>
  <course>347.84</course>
  <speed>0.01</speed>
  <fix>3d</fix>
</trkpt>
<trkpt lat="40.0728138" lon="-105.230615">
  <ele>1596.56</ele>
  <time>2026-08-28T19:12:31Z</time>
  <course>214.9</course>
  <speed>0.0</speed>
  <fix>3d</fix>
</trkpt>
<trkpt lat="40.0728137" lon="-105.230615">
  <ele>1596.65</ele>
  <time>2026-08-28T19:12:31Z</time>
  <course>347.83</course>
  <speed>0.01</speed>
  <fix>3d</fix>
</trkpt>
<trkpt lat="40.0728138" lon="-105.230615">
  <ele>1596.56</ele>
  <time>2026-08-28T19:12:31Z</time>
  <course>209.03</course>
  <speed>0.0</speed>
  <fix>3d</fix>
</trkpt>
<trkpt lat="40.0728137" lon="-105.230615">
  <ele>1596.64</ele>
  <time>2026-08-28T19:12:31Z</time>
  <course>347.82</course>
  <speed>0.01</speed>
  <fix>3d</fix>
</trkpt>
<trkpt lat="40.0728138" lon="-105.2306151">
  <ele>1596.56</ele>
  <time>2026-08-28T19:12:31Z</time>
  <course>204.53</course>
  <speed>0.01</speed>
  <fix>3d</fix>
</trkpt>
<trkpt lat="40.0728137" lon="-105.230615">
  <ele>1596.64</ele>
  <time>2026-08-28T19:12:31Z</time>
  <course>347.81</course>
  <speed>0.01</speed>
  <fix>3d</fix>
</trkpt>
<trkpt lat="40.0728138" lon="-105.2306151">
  <ele>1596.57</ele>
  <time>2026-08-28T19:12:31Z</time>
  <course>200.98</course>
  <speed>0.01</speed>
  <fix>3d</fix>
</trkpt>
<trkpt lat="40.0728137" lon="-105.230615">
  <ele>1596.65</ele>
  <time>2026-08-28T19:12:31Z</time>
  <course>347.81</course>
  <speed>0.01</speed>
  <fix>3d</fix>
</trkpt>
<trkpt lat="40.0728138" lon="-105.2306151">
  <ele>1596.57</ele>
  <time>2026-08-28T19:12:31Z</time>
  <course>198.95</course>
  <speed>0.01</speed>
  <fix>3d</fix>
</trkpt>
<trkpt lat="40.0728137" lon="-105.230615">
  <ele>1596.64</ele>
  <time>2026-08-28T19:12:31Z</time>
  <course>347.81</course>
  <speed>0.01</speed>
  <fix>3d</fix>
</trkpt>
<trkpt lat="40.0728137" lon="-105.2306151">
  <ele>1596.57</ele>
  <time>2026-08-28T19:12:31Z</time>
  <course>197.76</course>
  <speed>0.01</speed>
  <fix>3d</fix>
</trkpt>
<trkpt lat="40.0728137" lon="-105.230615">
  <ele>1596.65</ele>
  <time>2026-08-28T19:12:31Z</time>
  <course>347.8</course>
  <speed>0.01</speed>
  <fix>3d</fix>
</trkpt>
<trkpt lat="40.0728137" lon="-105.2306151">
  <ele>1596.57</ele>
  <time>2026-08-28T19:12:31Z</time>
  <course>196.7</course>
  <speed>0.01</speed>
  <fix>3d</fix>
</trkpt>
<trkpt lat="40.0728136" lon="-105.230615">
  <ele>1596.65</ele>
  <time>2026-08-28T19:12:31Z</time>
  <course>347.8</course>
  <speed>0.01</speed>
  <fix>3d</fix>
</trkpt>
<trkpt lat="40.0728137" lon="-105.2306151">
  <ele>1596.57</ele>
  <time>2026-08-28T19:12:31Z</time>
  <course>196.23</course>
  <speed>0.01</speed>
  <fix>3d</fix>
</trkpt>
<trkpt lat="40.0728136" lon="-105.230615">
  <ele>1596.65</ele>
  <time>2026-08-28T19:12:31Z</time>
  <course>347.8</course>
  <speed>0.01</speed>
  <fix>3d</fix>
</trkpt>
<trkpt lat="40.0728137" lon="-105.2306151">
  <ele>1596.57</ele>
  <time>2026-08-28T19:12:31Z</time>
  <course>196.62</course>
  <speed>0.01</speed>
  <fix>3d</fix>
</trkpt>
<trkpt lat="40.0728136" lon="-105.230615">
  <ele>1596.65</ele>
  <time>2026-08-28T19:12:31Z</time>
  <course>347.8</course>
  <speed>0.01</speed>
  <fix>3d</fix>
</trkpt>
<trkpt lat="40.0728137" lon="-105.2306151">
  <ele>1596.57</ele>
  <time>2026-08-28T19:12:31Z</time>
  <course>197.82</course>
  <speed>0.01</speed>
  <fix>3d</fix>
</trkpt>
<trkpt lat="40.0728136" lon="-105.230615">
  <ele>1596.66</ele>
  <time>2026-08-28T19:12:31Z</time>
  <course>347.8</course>
  <speed>0.01</speed>
  <fix>3d</fix>
</trkpt>
<trkpt lat="40.0728136" lon="-105.2306151">
  <ele>1596.57</ele>
  <time>2026-08-28T19:12:31Z</time>
  <course>199.59</course>
  <speed>0.01</speed>
  <fix>3d</fix>
</trkpt>
<trkpt lat="40.0728136" lon="-105.230615">
  <ele>1596.66</ele>
  <time>2026-08-28T19:12:31Z</time>
  <course>347.82</course>
  <speed>0.01</speed>
  <fix>3d</fix>
</trkpt>
<trkpt lat="40.0728135" lon="-105.2306151">
  <ele>1596.57</ele>
  <time>2026-08-28T19:12:31Z</time>
  <course>202.8</course>
  <speed>0.0</speed>
  <fix>3d</fix>
</trkpt>
<trkpt lat="40.0728136" lon="-105.230615">
  <ele>1596.66</ele>
  <time>2026-08-28T19:12:31Z</time>
  <course>347.84</course>
  <speed>0.01</speed>
  <fix>3d</fix>
</trkpt>
<trkpt lat="40.0728135" lon="-105.2306151">
  <ele>1596.57</ele>
  <time>2026-08-28T19:12:31Z</time>
  <course>208.01</course>
  <speed>0.0</speed>
  <fix>3d</fix>
</trkpt>
<trkpt lat="40.0728136" lon="-105.230615">
  <ele>1596.65</ele>
  <time>2026-08-28T19:12:31Z</time>
  <course>347.85</course>
  <speed>0.0</speed>
  <fix>3d</fix>
</trkpt>
<trkpt lat="40.0728135" lon="-105.2306151">
  <ele>1596.57</ele>
  <time>2026-08-28T19:12:31Z</time>
  <course>215.1</course>
  <speed>0.0</speed>
  <fix>3d</fix>
</trkpt>
<trkpt lat="40.0728136" lon="-105.230615">
  <ele>1596.65</ele>
  <time>2026-08-28T19:12:31Z</time>
  <course>347.84</course>
  <speed>0.0</speed>
  <fix>3d</fix>
</trkpt>
<trkpt lat="40.0728135" lon="-105.2306151">
  <ele>1596.57</ele>
  <time>2026-08-28T19:12:31Z</time>
  <course>227.21</course>
  <speed>0.0</speed>
  <fix>3d</fix>
</trkpt>
<trkpt lat="40.0728135" lon="-105.230615">
  <ele>1596.65</ele>
  <time>2026-08-28T19:12:31Z</time>
  <course>347.83</course>
  <speed>0.0</speed>
  <fix>3d</fix>
</trkpt>
<trkpt lat="40.0728135" lon="-105.2306151">
  <ele>1596.57</ele>
  <time>2026-08-28T19:12:31Z</time>
  <course>248.1</course>
  <speed>0.0</speed>
  <fix>3d</fix>
</trkpt>
<trkpt lat="40.0728135" lon="-105.230615">
  <ele>1596.65</ele>
  <time>2026-08-28T19:12:31Z</time>
  <course>347.82</course>
  <speed>0.0</speed>
  <fix>3d</fix>
</trkpt>
<trkpt lat="40.0728135" lon="-105.2306151">
  <ele>1596.57</ele>
  <time>2026-08-28T19:12:31Z</time>
  <course>276.0</course>
  <speed>0.0</speed>
  <fix>3d</fix>
</trkpt>
<trkpt lat="40.0728135" lon="-105.230615">
  <ele>1596.65</ele>
  <time>2026-08-28T19:12:31Z</time>
  <course>347.82</course>
  <speed>0.0</speed>
  <fix>3d</fix>
</trkpt>
<trkpt lat="40.0728135" lon="-105.2306151">
  <ele>1596.57</ele>
  <time>2026-08-28T19:12:31Z</time>
  <course>301.02</course>
  <speed>0.0</speed>
  <fix>3d</fix>
</trkpt>
<trkpt lat="40.0728135" lon="-105.230615">
  <ele>1596.65</ele>
  <time>2026-08-28T19:12:31Z</time>
  <course>347.82</course>
  <speed>0.0</speed>
  <fix>3d</fix>
</trkpt>
<trkpt lat="40.0728135" lon="-105.2306151">
  <ele>1596.57</ele>
  <time>2026-08-28T19:12:31Z</time>
  <course>317.05</course>
  <speed>0.0</speed>
  <fix>3d</fix>
</trkpt>
<trkpt lat="40.0728135" lon="-105.230615">
  <ele>1596.66</ele>
  <time>2026-08-28T19:12:31Z</time>
  <course>347.82</course>
  <speed>0.0</speed>
  <fix>3d</fix>
</trkpt>
<trkpt lat="40.0728135" lon="-105.2306151">
  <ele>1596.57</ele>
  <time>2026-08-28T19:12:31Z</time>
  <course>326.6</course>
  <speed>0.0</speed>
  <fix>3d</fix>
</trkpt>
<trkpt lat="40.0728135" lon="-105.230615">
  <ele>1596.66</ele>
  <time>2026-08-28T19:12:31Z</time>
  <course>347.82</course>
  <speed>0.0</speed>
  <fix>3d</fix>
</trkpt>
<trkpt lat="40.0728135" lon="-105.2306151">
  <ele>1596.57</ele>
  <time>2026-08-28T19:12:31Z</time>
  <course>332.24</course>
  <speed>0.0</speed>
  <fix>3d</fix>
</trkpt>
<trkpt lat="40.0728135" lon="-105.230615">
  <ele>1596.67</ele>
  <time>2026-08-28T19:12:31Z</time>
  <course>347.83</course>
  <speed>0.0</speed>
  <fix>3d</fix>
</trkpt>
<trkpt lat="40.0728135" lon="-105.2306151">
  <ele>1596.57</ele>
  <time>2026-08-28T19:12:31Z</time>
  <course>334.47</course>
  <speed>0.01</speed>
  <fix>3d</fix>
</trkpt>
<trkpt lat="40.0728135" lon="-105.230615">
  <ele>1596.67</ele>
  <time>2026-08-28T19:12:31Z</time>
  <course>347.86</course>
  <speed>0.0</speed>
  <fix>3d</fix>
</trkpt>
<trkpt lat="40.0728135" lon="-105.2306152">
  <ele>1596.57</ele>
  <time>2026-08-28T19:12:31Z</time>
  <course>334.41</course>
  <speed>0.01</speed>
  <fix>3d</fix>
</trkpt>
<trkpt lat="40.0728135" lon="-105.230615">
  <ele>1596.66</ele>
  <time>2026-08-28T19:12:31Z</time>
  <course>347.87</course>
  <speed>0.0</speed>
  <fix>3d</fix>
</trkpt>
<trkpt lat="40.0728135" lon="-105.2306153">
  <ele>1596.57</ele>
  <time>2026-08-28T19:12:31Z</time>
  <course>334.99</course>
  <speed>0.01</speed>
  <fix>3d</fix>
</trkpt>
<trkpt lat="40.0728135" lon="-105.230615">
  <ele>1596.65</ele>
  <time>2026-08-28T19:12:31Z</time>
  <course>347.86</course>
  <speed>0.0</speed>
  <fix>3d</fix>
</trkpt>
<trkpt lat="40.0728135" lon="-105.2306153">
  <ele>1596.56</ele>
  <time>2026-08-28T19:12:31Z</time>
  <course>337.08</course>
  <speed>0.01</speed>
  <fix>3d</fix>
</trkpt>
<trkpt lat="40.0728135" lon="-105.2306151">
  <ele>1596.64</ele>
  <time>2026-08-28T19:12:31Z</time>
  <course>347.85</course>
  <speed>0.0</speed>
  <fix>3d</fix>
</trkpt>
<trkpt lat="40.0728135" lon="-105.2306153">
  <ele>1596.56</ele>
  <time>2026-08-28T19:12:31Z</time>
  <course>339.11</course>
  <speed>0.01</speed>
  <fix>3d</fix>
</trkpt>
<trkpt lat="40.0728135" lon="-105.2306151">
  <ele>1596.64</ele>
  <time>2026-08-28T19:12:31Z</time>
  <course>347.84</course>
  <speed>0.0</speed>
  <fix>3d</fix>
</trkpt>
<trkpt lat="40.0728135" lon="-105.2306153">
  <ele>1596.56</ele>
  <time>2026-08-28T19:12:31Z</time>
  <course>342.04</course>
  <speed>0.01</speed>
  <fix>3d</fix>
</trkpt>
<trkpt lat="40.0728135" lon="-105.2306151">
  <ele>1596.64</ele>
  <time>2026-08-28T19:12:31Z</time>
  <course>347.8</course>
  <speed>0.01</speed>
  <fix>3d</fix>
</trkpt>
<trkpt lat="40.0728136" lon="-105.2306153">
  <ele>1596.56</ele>
  <time>2026-08-28T19:12:31Z</time>
  <course>347.72</course>
  <speed>0.01</speed>
  <fix>3d</fix>
</trkpt>
<trkpt lat="40.0728135" lon="-105.2306151">
  <ele>1596.64</ele>
  <time>2026-08-28T19:12:31Z</time>
  <course>347.77</course>
  <speed>0.01</speed>
  <fix>3d</fix>
</trkpt>
<trkpt lat="40.0728137" lon="-105.2306153">
  <ele>1596.56</ele>
  <time>2026-08-28T19:12:31Z</time>
  <course>355.34</course>
  <speed>0.01</speed>
  <fix>3d</fix>
</trkpt>
<trkpt lat="40.0728135" lon="-105.2306151">
  <ele>1596.63</ele>
  <time>2026-08-28T19:12:31Z</time>
  <course>347.75</course>
  <speed>0.01</speed>
  <fix>3d</fix>
</trkpt>
<trkpt lat="40.0728137" lon="-105.2306153">
  <ele>1596.56</ele>
  <time>2026-08-28T19:12:31Z</time>
  <course>2.45</course>
  <speed>0.0</speed>
  <fix>3d</fix>
</trkpt>
<trkpt lat="40.0728136" lon="-105.2306151">
  <ele>1596.64</ele>
  <time>2026-08-28T19:12:31Z</time>
  <course>347.73</course>
  <speed>0.01</speed>
  <fix>3d</fix>
</trkpt>
<trkpt lat="40.0728137" lon="-105.2306153">
  <ele>1596.56</ele>
  <time>2026-08-28T19:12:31Z</time>
  <course>7.59</course>
  <speed>0.0</speed>
  <fix>3d</fix>
</trkpt>
<trkpt lat="40.0728136" lon="-105.2306151">
  <ele>1596.64</ele>
  <time>2026-08-28T19:12:31Z</time>
  <course>347.72</course>
  <speed>0.01</speed>
  <fix>3d</fix>
</trkpt>
<trkpt lat="40.0728137" lon="-105.2306153">
  <ele>1596.57</ele>
  <time>2026-08-28T19:12:31Z</time>
  <course>12.63</course>
  <speed>0.0</speed>
  <fix>3d</fix>
</trkpt>
<trkpt lat="40.0728136" lon="-105.2306151">
  <ele>1596.64</ele>
  <time>2026-08-28T19:12:31Z</time>
  <course>347.72</course>
  <speed>0.01</speed>
  <fix>3d</fix>
</trkpt>
<trkpt lat="40.0728137" lon="-105.2306153">
  <ele>1596.57</ele>
  <time>2026-08-28T19:12:31Z</time>
  <course>20.19</course>
  <speed>0.0</speed>
  <fix>3d</fix>
</trkpt>
<trkpt lat="40.0728136" lon="-105.2306151">
  <ele>1596.64</ele>
  <time>2026-08-28T19:12:31Z</time>
  <course>347.72</course>
  <speed>0.01</speed>
  <fix>3d</fix>
</trkpt>
<trkpt lat="40.0728137" lon="-105.2306153">
  <ele>1596.57</ele>
  <time>2026-08-28T19:12:31Z</time>
  <course>32.64</course>
  <speed>0.0</speed>
  <fix>3d</fix>
</trkpt>
<trkpt lat="40.0728136" lon="-105.2306151">
  <ele>1596.64</ele>
  <time>2026-08-28T19:12:31Z</time>
  <course>347.72</course>
  <speed>0.01</speed>
  <fix>3d</fix>
</trkpt>
<trkpt lat="40.0728137" lon="-105.2306153">
  <ele>1596.58</ele>
  <time>2026-08-28T19:12:31Z</time>
  <course>50.36</course>
  <speed>0.0</speed>
  <fix>3d</fix>
</trkpt>
<trkpt lat="40.0728136" lon="-105.2306151">
  <ele>1596.64</ele>
  <time>2026-08-28T19:12:31Z</time>
  <course>347.72</course>
  <speed>0.01</speed>
  <fix>3d</fix>
</trkpt>
<trkpt lat="40.0728137" lon="-105.2306153">
  <ele>1596.58</ele>
  <time>2026-08-28T19:12:31Z</time>
  <course>66.12</course>
  <speed>0.0</speed>
  <fix>3d</fix>
</trkpt>
<trkpt lat="40.0728136" lon="-105.2306151">
  <ele>1596.64</ele>
  <time>2026-08-28T19:12:31Z</time>
  <course>347.71</course>
  <speed>0.01</speed>
  <fix>3d</fix>
</trkpt>
<trkpt lat="40.0728138" lon="-105.2306153">
  <ele>1596.58</ele>
  <time>2026-08-28T19:12:31Z</time>
  <course>79.3</course>
  <speed>0.0</speed>
  <fix>3d</fix>
</trkpt>
<trkpt lat="40.0728136" lon="-105.2306151">
  <ele>1596.65</ele>
  <time>2026-08-28T19:12:31Z</time>
  <course>347.71</course>
  <speed>0.01414213562373095</speed>
  <fix>3d</fix>
</trkpt>
<trkpt lat="40.0728138" lon="-105.2306153">
  <ele>1596.58</ele>
  <time>2026-08-28T19:12:31Z</time>
  <course>93.11</course>
  <speed>0.0</speed>
  <fix>3d</fix>
</trkpt>
<trkpt lat="40.0728136" lon="-105.2306151">
  <ele>1596.65</ele>
  <time>2026-08-28T19:12:31Z</time>
  <course>347.71</course>
  <speed>0.01414213562373095</speed>
  <fix>3d</fix>
</trkpt>
<trkpt lat="40.0728137" lon="-105.2306153">
  <ele>1596.59</ele>
  <time>2026-08-28T19:12:31Z</time>
  <course>104.38</course>
  <speed>0.0</speed>
  <fix>3d</fix>
</trkpt>
<trkpt lat="40.0728136" lon="-105.2306151">
  <ele>1596.65</ele>
  <time>2026-08-28T19:12:31Z</time>
  <course>347.72</course>
  <speed>0.01414213562373095</speed>
  <fix>3d</fix>
</trkpt>
<trkpt lat="40.0728137" lon="-105.2306153">
  <ele>1596.59</ele>
  <time>2026-08-28T19:12:31Z</time>
  <course>113.35</course>
  <speed>0.0</speed>
  <fix>3d</fix>
</trkpt>
<trkpt lat="40.0728136" lon="-105.2306151">
  <ele>1596.66</ele>
  <time>2026-08-28T19:12:31Z</time>
  <course>347.72</course>
  <speed>0.01414213562373095</speed>
  <fix>3d</fix>
</trkpt>
<trkpt lat="40.0728137" lon="-105.2306153">
  <ele>1596.59</ele>
  <time>2026-08-28T19:12:31Z</time>
  <course>121.0</course>
  <speed>0.0</speed>
  <fix>3d</fix>
</trkpt>
<trkpt lat="40.0728136" lon="-105.2306151">
  <ele>1596.67</ele>
  <time>2026-08-28T19:12:31Z</time>
  <course>347.73</course>
  <speed>0.01414213562373095</speed>
  <fix>3d</fix>
</trkpt>
<trkpt lat="40.0728137" lon="-105.2306153">
  <ele>1596.59</ele>
  <time>2026-08-28T19:12:31Z</time>
  <course>127.21</course>
  <speed>0.0</speed>
  <fix>3d</fix>
</trkpt>
<trkpt lat="40.0728136" lon="-105.2306151">
  <ele>1596.67</ele>
  <time>2026-08-28T19:12:31Z</time>
  <course>347.76</course>
  <speed>0.01414213562373095</speed>
  <fix>3d</fix>
</trkpt>
<trkpt lat="40.0728137" lon="-105.2306153">
  <ele>1596.59</ele>
  <time>2026-08-28T19:12:31Z</time>
  <course>130.46</course>
  <speed>0.0</speed>
  <fix>3d</fix>
</trkpt>
<trkpt lat="40.0728136" lon="-105.2306151">
  <ele>1596.67</ele>
  <time>2026-08-28T19:12:31Z</time>
  <course>347.79</course>
  <speed>0.01414213562373095</speed>
  <fix>3d</fix>
</trkpt>
<trkpt lat="40.0728137" lon="-105.2306153">
  <ele>1596.59</ele>
  <time>2026-08-28T19:12:31Z</time>
  <course>129.31</course>
  <speed>0.0</speed>
  <fix>3d</fix>
</trkpt>
<trkpt lat="40.0728136" lon="-105.2306151">
  <ele>1596.67</ele>
  <time>2026-08-28T19:12:31Z</time>
  <course>347.8</course>
  <speed>0.01414213562373095</speed>
  <fix>3d</fix>
</trkpt>
<trkpt lat="40.0728137" lon="-105.2306152">
  <ele>1596.58</ele>
  <time>2026-08-28T19:12:31Z</time>
  <course>125.24</course>
  <speed>0.0</speed>
  <fix>3d</fix>
</trkpt>
<trkpt lat="40.0728136" lon="-105.2306151">
  <ele>1596.66</ele>
  <time>2026-08-28T19:12:31Z</time>
  <course>347.82</course>
  <speed>0.01414213562373095</speed>
  <fix>3d</fix>
</trkpt>
<trkpt lat="40.0728137" lon="-105.2306151">
  <ele>1596.58</ele>
  <time>2026-08-28T19:12:31Z</time>
  <course>120.49</course>
  <speed>0.0</speed>
  <fix>3d</fix>
</trkpt>
<trkpt lat="40.0728136" lon="-105.2306151">
  <ele>1596.66</ele>
  <time>2026-08-28T19:12:31Z</time>
  <course>347.8</course>
  <speed>0.01414213562373095</speed>
  <fix>3d</fix>
</trkpt>
<trkpt lat="40.0728137" lon="-105.2306151">
  <ele>1596.58</ele>
  <time>2026-08-28T19:12:31Z</time>
  <course>116.75</course>
  <speed>0.0</speed>
  <fix>3d</fix>
</trkpt>
<trkpt lat="40.0728136" lon="-105.2306151">
  <ele>1596.66</ele>
  <time>2026-08-28T19:12:31Z</time>
  <course>347.79</course>
  <speed>0.01414213562373095</speed>
  <fix>3d</fix>
</trkpt>
<trkpt lat="40.0728137" lon="-105.2306151">
  <ele>1596.58</ele>
  <time>2026-08-28T19:12:31Z</time>
  <course>115.25</course>
  <speed>0.0</speed>
  <fix>3d</fix>
</trkpt>
<trkpt lat="40.0728136" lon="-105.2306151">
  <ele>1596.66</ele>
  <time>2026-08-28T19:12:31Z</time>
  <course>347.78</course>
  <speed>0.01414213562373095</speed>
  <fix>3d</fix>
</trkpt>
<trkpt lat="40.0728137" lon="-105.2306151">
  <ele>1596.57</ele>
  <time>2026-08-28T19:12:31Z</time>
  <course>117.61</course>
  <speed>0.0</speed>
  <fix>3d</fix>
</trkpt>
<trkpt lat="40.0728136" lon="-105.2306151">
  <ele>1596.65</ele>
  <time>2026-08-28T19:12:31Z</time>
  <course>347.77</course>
  <speed>0.01414213562373095</speed>
  <fix>3d</fix>
</trkpt>
<trkpt lat="40.0728137" lon="-105.2306151">
  <ele>1596.57</ele>
  <time>2026-08-28T19:12:31Z</time>
  <course>125.92</course>
  <speed>0.0</speed>
  <fix>3d</fix>
</trkpt>
<trkpt lat="40.0728136" lon="-105.2306151">
  <ele>1596.65</ele>
  <time>2026-08-28T19:12:31Z</time>
  <course>347.76</course>
  <speed>0.01</speed>
  <fix>3d</fix>
</trkpt>
<trkpt lat="40.0728137" lon="-105.2306151">
  <ele>1596.57</ele>
  <time>2026-08-28T19:12:31Z</time>
  <course>146.17</course>
  <speed>0.0</speed>
  <fix>3d</fix>
</trkpt>
<trkpt lat="40.0728136" lon="-105.2306151">
  <ele>1596.65</ele>
  <time>2026-08-28T19:12:31Z</time>
  <course>347.76</course>
  <speed>0.01</speed>
  <fix>3d</fix>
</trkpt>
<trkpt lat="40.0728137" lon="-105.2306151">
  <ele>1596.57</ele>
  <time>2026-08-28T19:12:31Z</time>
  <course>178.36</course>
  <speed>0.0</speed>
  <fix>3d</fix>
</trkpt>
<trkpt lat="40.0728136" lon="-105.2306151">
  <ele>1596.65</ele>
  <time>2026-08-28T19:12:31Z</time>
  <course>347.75</course>
  <speed>0.01</speed>
  <fix>3d</fix>
</trkpt>
<trkpt lat="40.0728137" lon="-105.2306151">
  <ele>1596.57</ele>
  <time>2026-08-28T19:12:31Z</time>
  <course>210.93</course>
  <speed>0.0</speed>
  <fix>3d</fix>
</trkpt>
<trkpt lat="40.0728136" lon="-105.2306151">
  <ele>1596.66</ele>
  <time>2026-08-28T19:12:31Z</time>
  <course>347.75</course>
  <speed>0.01</speed>
  <fix>3d</fix>
</trkpt>
<trkpt lat="40.0728137" lon="-105.2306151">
  <ele>1596.57</ele>
  <time>2026-08-28T19:12:31Z</time>
  <course>234.66</course>
  <speed>0.0</speed>
  <fix>3d</fix>
</trkpt>
<trkpt lat="40.0728136" lon="-105.2306151">
  <ele>1596.66</ele>
  <time>2026-08-28T19:12:31Z</time>
  <course>347.75</course>
  <speed>0.01</speed>
  <fix>3d</fix>
</trkpt>
<trkpt lat="40.0728137" lon="-105.2306151">
  <ele>1596.57</ele>
  <time>2026-08-28T19:12:31Z</time>
  <course>247.57</course>
  <speed>0.0</speed>
  <fix>3d</fix>
</trkpt>
<trkpt lat="40.0728136" lon="-105.2306151">
  <ele>1596.66</ele>
  <time>2026-08-28T19:12:31Z</time>
  <course>347.76</course>
  <speed>0.0</speed>
  <fix>3d</fix>
</trkpt>
<trkpt lat="40.0728137" lon="-105.2306151">
  <ele>1596.57</ele>
  <time>2026-08-28T19:12:31Z</time>
  <course>252.09</course>
  <speed>0.0</speed>
  <fix>3d</fix>
</trkpt>
<trkpt lat="40.0728136" lon="-105.2306151">
  <ele>1596.66</ele>
  <time>2026-08-28T19:12:31Z</time>
  <course>347.77</course>
  <speed>0.0</speed>
  <fix>3d</fix>
</trkpt>
<trkpt lat="40.0728137" lon="-105.2306151">
  <ele>1596.57</ele>
  <time>2026-08-28T19:12:31Z</time>
  <course>251.3</course>
  <speed>0.0</speed>
  <fix>3d</fix>
</trkpt>
<trkpt lat="40.0728136" lon="-105.2306151">
  <ele>1596.66</ele>
  <time>2026-08-28T19:12:31Z</time>
  <course>347.76</course>
  <speed>0.0</speed>
  <fix>3d</fix>
</trkpt>
<trkpt lat="40.0728137" lon="-105.2306151">
  <ele>1596.56</ele>
  <time>2026-08-28T19:12:31Z</time>
  <course>250.0</course>
  <speed>0.0</speed>
  <fix>3d</fix>
</trkpt>
<trkpt lat="40.0728136" lon="-105.2306151">
  <ele>1596.65</ele>
  <time>2026-08-28T19:12:31Z</time>
  <course>347.76</course>
  <speed>0.0</speed>
  <fix>3d</fix>
</trkpt>
<trkpt lat="40.0728137" lon="-105.2306151">
  <ele>1596.56</ele>
  <time>2026-08-28T19:12:31Z</time>
  <course>251.49</course>
  <speed>0.0</speed>
  <fix>3d</fix>
</trkpt>
<trkpt lat="40.0728136" lon="-105.2306151">
  <ele>1596.65</ele>
  <time>2026-08-28T19:12:31Z</time>
  <course>347.75</course>
  <speed>0.0</speed>
  <fix>3d</fix>
</trkpt>
<trkpt lat="40.0728137" lon="-105.2306151">
  <ele>1596.56</ele>
  <time>2026-08-28T19:12:31Z</time>
  <course>252.51</course>
  <speed>0.0</speed>
  <fix>3d</fix>
</trkpt>
<trkpt lat="40.0728136" lon="-105.2306151">
  <ele>1596.65</ele>
  <time>2026-08-28T19:12:31Z</time>
  <course>347.74</course>
  <speed>0.0</speed>
  <fix>3d</fix>
</trkpt>
<trkpt lat="40.0728137" lon="-105.2306151">
  <ele>1596.56</ele>
  <time>2026-08-28T19:12:31Z</time>
  <course>251.28</course>
  <speed>0.0</speed>
  <fix>3d</fix>
</trkpt>
<trkpt lat="40.0728136" lon="-105.2306151">
  <ele>1596.65</ele>
  <time>2026-08-28T19:12:31Z</time>
  <course>347.73</course>
  <speed>0.0</speed>
  <fix>3d</fix>
</trkpt>
<trkpt lat="40.0728137" lon="-105.2306151">
  <ele>1596.56</ele>
  <time>2026-08-28T19:12:31Z</time>
  <course>251.66</course>
  <speed>0.0</speed>
  <fix>3d</fix>
</trkpt>
<trkpt lat="40.0728136" lon="-105.2306151">
  <ele>1596.64</ele>
  <time>2026-08-28T19:12:31Z</time>
  <course>347.71</course>
  <speed>0.0</speed>
  <fix>3d</fix>
</trkpt>
<trkpt lat="40.0728137" lon="-105.2306151">
  <ele>1596.56</ele>
  <time>2026-08-28T19:12:31Z</time>
  <course>254.02</course>
  <speed>0.0</speed>
  <fix>3d</fix>
</trkpt>
<trkpt lat="40.0728136" lon="-105.2306151">
  <ele>1596.64</ele>
  <time>2026-08-28T19:12:31Z</time>
  <course>347.69</course>
  <speed>0.0</speed>
  <fix>3d</fix>
</trkpt>
<trkpt lat="40.0728137" lon="-105.2306151">
  <ele>1596.56</ele>
  <time>2026-08-28T19:12:31Z</time>
  <course>256.55</course>
  <speed>0.0</speed>
  <fix>3d</fix>
</trkpt>
<trkpt lat="40.0728136" lon="-105.2306151">
  <ele>1596.64</ele>
  <time>2026-08-28T19:12:31Z</time>
  <course>347.68</course>
  <speed>0.0</speed>
  <fix>3d</fix>
</trkpt>
<trkpt lat="40.0728137" lon="-105.2306152">
  <ele>1596.56</ele>
  <time>2026-08-28T19:12:31Z</time>
  <course>258.47</course>
  <speed>0.0</speed>
  <fix>3d</fix>
</trkpt>
<trkpt lat="40.0728136" lon="-105.2306151">
  <ele>1596.64</ele>
  <time>2026-08-28T19:12:31Z</time>
  <course>347.67</course>
  <speed>0.0</speed>
  <fix>3d</fix>
</trkpt>
<trkpt lat="40.0728137" lon="-105.2306153">
  <ele>1596.56</ele>
  <time>2026-08-28T19:12:31Z</time>
  <course>259.62</course>
  <speed>0.0</speed>
  <fix>3d</fix>
</trkpt>
<trkpt lat="40.0728136" lon="-105.2306151">
  <ele>1596.64</ele>
  <time>2026-08-28T19:12:31Z</time>
  <course>347.66</course>
  <speed>0.0</speed>
  <fix>3d</fix>
</trkpt>
<trkpt lat="40.0728137" lon="-105.2306153">
  <ele>1596.56</ele>
  <time>2026-08-28T19:12:31Z</time>
  <course>258.22</course>
  <speed>0.0</speed>
  <fix>3d</fix>
</trkpt>
<trkpt lat="40.0728136" lon="-105.2306151">
  <ele>1596.65</ele>
  <time>2026-08-28T19:12:31Z</time>
  <course>347.65</course>
  <speed>0.01</speed>
  <fix>3d</fix>
</trkpt>
<trkpt lat="40.0728137" lon="-105.2306153">
  <ele>1596.56</ele>
  <time>2026-08-28T19:12:31Z</time>
  <course>254.53</course>
  <speed>0.0</speed>
  <fix>3d</fix>
</trkpt>
<trkpt lat="40.0728136" lon="-105.2306151">
  <ele>1596.65</ele>
  <time>2026-08-28T19:12:31Z</time>
  <course>347.65</course>
  <speed>0.01414213562373095</speed>
  <fix>3d</fix>
</trkpt>
<trkpt lat="40.0728137" lon="-105.2306153">
  <ele>1596.56</ele>
  <time>2026-08-28T19:12:31Z</time>
  <course>250.42</course>
  <speed>0.0</speed>
  <fix>3d</fix>
</trkpt>
<trkpt lat="40.0728136" lon="-105.2306151">
  <ele>1596.65</ele>
  <time>2026-08-28T19:12:31Z</time>
  <course>347.65</course>
  <speed>0.01414213562373095</speed>
  <fix>3d</fix>
</trkpt>
<trkpt lat="40.0728137" lon="-105.2306153">
  <ele>1596.56</ele>
  <time>2026-08-28T19:12:31Z</time>
  <course>244.13</course>
  <speed>0.0</speed>
  <fix>3d</fix>
</trkpt>
<trkpt lat="40.0728136" lon="-105.2306151">
  <ele>1596.65</ele>
  <time>2026-08-28T19:12:31Z</time>
  <course>347.65</course>
  <speed>0.01414213562373095</speed>
  <fix>3d</fix>
</trkpt>
<trkpt lat="40.0728137" lon="-105.2306153">
  <ele>1596.56</ele>
  <time>2026-08-28T19:12:31Z</time>
  <course>235.15</course>
  <speed>0.0</speed>
  <fix>3d</fix>
</trkpt>
<trkpt lat="40.0728136" lon="-105.2306151">
  <ele>1596.65</ele>
  <time>2026-08-28T19:12:31Z</time>
  <course>347.65</course>
  <speed>0.01414213562373095</speed>
  <fix>3d</fix>
</trkpt>
<trkpt lat="40.0728137" lon="-105.2306153">
  <ele>1596.56</ele>
  <time>2026-08-28T19:12:31Z</time>
  <course>224.7</course>
  <speed>0.0</speed>
  <fix>3d</fix>
</trkpt>
<trkpt lat="40.0728136" lon="-105.2306151">
  <ele>1596.65</ele>
  <time>2026-08-28T19:12:31Z</time>
  <course>347.65</course>
  <speed>0.01414213562373095</speed>
  <fix>3d</fix>
</trkpt>
<trkpt lat="40.0728137" lon="-105.2306153">
  <ele>1596.56</ele>
  <time>2026-08-28T19:12:31Z</time>
  <course>211.22</course>
  <speed>0.0</speed>
  <fix>3d</fix>
</trkpt>
<trkpt lat="40.0728136" lon="-105.2306151">
  <ele>1596.65</ele>
  <time>2026-08-28T19:12:31Z</time>
  <course>347.65</course>
  <speed>0.01414213562373095</speed>
  <fix>3d</fix>
</trkpt>
<trkpt lat="40.0728137" lon="-105.2306153">
  <ele>1596.56</ele>
  <time>2026-08-28T19:12:31Z</time>
  <course>197.17</course>
  <speed>0.0</speed>
  <fix>3d</fix>
</trkpt>
<trkpt lat="40.0728136" lon="-105.2306151">
  <ele>1596.66</ele>
  <time>2026-08-28T19:12:31Z</time>
  <course>347.65</course>
  <speed>0.01414213562373095</speed>
  <fix>3d</fix>
</trkpt>
<trkpt lat="40.0728137" lon="-105.2306153">
  <ele>1596.56</ele>
  <time>2026-08-28T19:12:31Z</time>
  <course>186.98</course>
  <speed>0.0</speed>
  <fix>3d</fix>
</trkpt>
<trkpt lat="40.0728136" lon="-105.2306151">
  <ele>1596.66</ele>
  <time>2026-08-28T19:12:31Z</time>
  <course>347.66</course>
  <speed>0.01414213562373095</speed>
  <fix>3d</fix>
</trkpt>
<trkpt lat="40.0728137" lon="-105.2306153">
  <ele>1596.56</ele>
  <time>2026-08-28T19:12:31Z</time>
  <course>180.76</course>
  <speed>0.0</speed>
  <fix>3d</fix>
</trkpt>
<trkpt lat="40.0728136" lon="-105.2306151">
  <ele>1596.66</ele>
  <time>2026-08-28T19:12:31Z</time>
  <course>347.67</course>
  <speed>0.01</speed>
  <fix>3d</fix>
</trkpt>
<trkpt lat="40.0728137" lon="-105.2306153">
  <ele>1596.56</ele>
  <time>2026-08-28T19:12:31Z</time>
  <course>174.78</course>
  <speed>0.0</speed>
  <fix>3d</fix>
</trkpt>
<trkpt lat="40.0728136" lon="-105.2306151">
  <ele>1596.65</ele>
  <time>2026-08-28T19:12:31Z</time>
  <course>347.67</course>
  <speed>0.01</speed>
  <fix>3d</fix>
</trkpt>
<trkpt lat="40.0728137" lon="-105.2306153">
  <ele>1596.56</ele>
  <time>2026-08-28T19:12:31Z</time>
  <course>152.37</course>
  <speed>0.0</speed>
  <fix>3d</fix>
</trkpt>
<trkpt lat="40.0728136" lon="-105.2306151">
  <ele>1596.65</ele>
  <time>2026-08-28T19:12:31Z</time>
  <course>347.67</course>
  <speed>0.01</speed>
  <fix>3d</fix>
</trkpt>
<trkpt lat="40.0728137" lon="-105.2306153">
  <ele>1596.56</ele>
  <time>2026-08-28T19:12:31Z</time>
  <course>126.15</course>
  <speed>0.0</speed>
  <fix>3d</fix>
</trkpt>
<trkpt lat="40.0728136" lon="-105.2306151">
  <ele>1596.64</ele>
  <time>2026-08-28T19:12:31Z</time>
  <course>347.66</course>
  <speed>0.01</speed>
  <fix>3d</fix>
</trkpt>
<trkpt lat="40.0728137" lon="-105.2306153">
  <ele>1596.56</ele>
  <time>2026-08-28T19:12:31Z</time>
  <course>112.11</course>
  <speed>0.0</speed>
  <fix>3d</fix>
</trkpt>
<trkpt lat="40.0728136" lon="-105.2306151">
  <ele>1596.65</ele>
  <time>2026-08-28T19:12:31Z</time>
  <course>347.66</course>
  <speed>0.01</speed>
  <fix>3d</fix>
</trkpt>
<trkpt lat="40.0728137" lon="-105.2306153">
  <ele>1596.56</ele>
  <time>2026-08-28T19:12:31Z</time>
  <course>97.57</course>
  <speed>0.0</speed>
  <fix>3d</fix>
</trkpt>
<trkpt lat="40.0728136" lon="-105.2306151">
  <ele>1596.65</ele>
  <time>2026-08-28T19:12:31Z</time>
  <course>347.66</course>
  <speed>0.01</speed>
  <fix>3d</fix>
</trkpt>
<trkpt lat="40.0728137" lon="-105.2306153">
  <ele>1596.56</ele>
  <time>2026-08-28T19:12:31Z</time>
  <course>86.81</course>
  <speed>0.0</speed>
  <fix>3d</fix>
</trkpt>
<trkpt lat="40.0728136" lon="-105.2306151">
  <ele>1596.65</ele>
  <time>2026-08-28T19:12:31Z</time>
  <course>347.66</course>
  <speed>0.01</speed>
  <fix>3d</fix>
</trkpt>
<trkpt lat="40.0728137" lon="-105.2306153">
  <ele>1596.56</ele>
  <time>2026-08-28T19:12:31Z</time>
  <course>78.8</course>
  <speed>0.0</speed>
  <fix>3d</fix>
</trkpt>
<trkpt lat="40.0728136" lon="-105.2306151">
  <ele>1596.65</ele>
  <time>2026-08-28T19:12:31Z</time>
  <course>347.65</course>
  <speed>0.01</speed>
  <fix>3d</fix>
</trkpt>
<trkpt lat="40.0728137" lon="-105.2306153">
  <ele>1596.56</ele>
  <time>2026-08-28T19:12:31Z</time>
  <course>72.95</course>
  <speed>0.0</speed>
  <fix>3d</fix>
</trkpt>
<trkpt lat="40.0728136" lon="-105.2306151">
  <ele>1596.65</ele>
  <time>2026-08-28T19:12:31Z</time>
  <course>347.62</course>
  <speed>0.01</speed>
  <fix>3d</fix>
</trkpt>
<trkpt lat="40.0728137" lon="-105.2306153">
  <ele>1596.56</ele>
  <time>2026-08-28T19:12:31Z</time>
  <course>70.24</course>
  <speed>0.0</speed>
  <fix>3d</fix>
</trkpt>
<trkpt lat="40.0728136" lon="-105.2306151">
  <ele>1596.65</ele>
  <time>2026-08-28T19:12:31Z</time>
  <course>347.6</course>
  <speed>0.01</speed>
  <fix>3d</fix>
</trkpt>
<trkpt lat="40.0728137" lon="-105.2306153">
  <ele>1596.56</ele>
  <time>2026-08-28T19:12:31Z</time>
  <course>69.83</course>
  <speed>0.0</speed>
  <fix>3d</fix>
</trkpt>
<trkpt lat="40.0728136" lon="-105.2306151">
  <ele>1596.65</ele>
  <time>2026-08-28T19:12:31Z</time>
  <course>347.59</course>
  <speed>0.01</speed>
  <fix>3d</fix>
</trkpt>
<trkpt lat="40.0728137" lon="-105.2306153">
  <ele>1596.56</ele>
  <time>2026-08-28T19:12:31Z</time>
  <course>71.81</course>
  <speed>0.0</speed>
  <fix>3d</fix>
</trkpt>
<trkpt lat="40.0728136" lon="-105.2306151">
  <ele>1596.65</ele>
  <time>2026-08-28T19:12:32Z</time>
  <course>347.58</course>
  <speed>0.01</speed>
  <fix>3d</fix>
</trkpt>
<trkpt lat="40.0728137" lon="-105.2306153">
  <ele>1596.56</ele>
  <time>2026-08-28T19:12:32Z</time>
  <course>85.52</course>
  <speed>0.0</speed>
  <fix>3d</fix>
</trkpt>
<trkpt lat="40.0728136" lon="-105.2306151">
  <ele>1596.65</ele>
  <time>2026-08-28T19:12:32Z</time>
  <course>347.58</course>
  <speed>0.01414213562373095</speed>
  <fix>3d</fix>
</trkpt>
<trkpt lat="40.0728137" lon="-105.2306153">
  <ele>1596.56</ele>
  <time>2026-08-28T19:12:32Z</time>
  <course>200.04</course>
  <speed>0.0</speed>
  <fix>3d</fix>
</trkpt>
<trkpt lat="40.0728136" lon="-105.2306151">
  <ele>1596.65</ele>
  <time>2026-08-28T19:12:32Z</time>
  <course>347.57</course>
  <speed>0.01414213562373095</speed>
  <fix>3d</fix>
</trkpt>
<trkpt lat="40.0728137" lon="-105.2306153">
  <ele>1596.56</ele>
  <time>2026-08-28T19:12:32Z</time>
  <course>224.12</course>
  <speed>0.0</speed>
  <fix>3d</fix>
</trkpt>
<trkpt lat="40.0728136" lon="-105.2306151">
  <ele>1596.66</ele>
  <time>2026-08-28T19:12:32Z</time>
  <course>347.57</course>
  <speed>0.01414213562373095</speed>
  <fix>3d</fix>
</trkpt>
<trkpt lat="40.0728137" lon="-105.2306153">
  <ele>1596.56</ele>
  <time>2026-08-28T19:12:32Z</time>
  <course>227.8</course>
  <speed>0.0</speed>
  <fix>3d</fix>
</trkpt>
<trkpt lat="40.0728136" lon="-105.2306151">
  <ele>1596.66</ele>
  <time>2026-08-28T19:12:32Z</time>
  <course>347.57</course>
  <speed>0.01414213562373095</speed>
  <fix>3d</fix>
</trkpt>
<trkpt lat="40.0728137" lon="-105.2306153">
  <ele>1596.56</ele>
  <time>2026-08-28T19:12:32Z</time>
  <course>227.77</course>
  <speed>0.0</speed>
  <fix>3d</fix>
</trkpt>
<trkpt lat="40.0728136" lon="-105.2306151">
  <ele>1596.65</ele>
  <time>2026-08-28T19:12:32Z</time>
  <course>347.58</course>
  <speed>0.01414213562373095</speed>
  <fix>3d</fix>
</trkpt>
<trkpt lat="40.0728137" lon="-105.2306153">
  <ele>1596.56</ele>
  <time>2026-08-28T19:12:32Z</time>
  <course>223.44</course>
  <speed>0.0</speed>
  <fix>3d</fix>
</trkpt>
<trkpt lat="40.0728136" lon="-105.2306151">
  <ele>1596.65</ele>
  <time>2026-08-28T19:12:32Z</time>
  <course>347.58</course>
  <speed>0.01414213562373095</speed>
  <fix>3d</fix>
</trkpt>
<trkpt lat="40.0728137" lon="-105.2306153">
  <ele>1596.56</ele>
  <time>2026-08-28T19:12:32Z</time>
  <course>206.53</course>
  <speed>0.0</speed>
  <fix>3d</fix>
</trkpt>
<trkpt lat="40.0728136" lon="-105.2306151">
  <ele>1596.65</ele>
  <time>2026-08-28T19:12:32Z</time>
  <course>347.58</course>
  <speed>0.01</speed>
  <fix>3d</fix>
</trkpt>
<trkpt lat="40.0728137" lon="-105.2306153">
  <ele>1596.56</ele>
  <time>2026-08-28T19:12:32Z</time>
  <course>146.86</course>
  <speed>0.0</speed>
  <fix>3d</fix>
</trkpt>
<trkpt lat="40.0728136" lon="-105.2306151">
  <ele>1596.65</ele>
  <time>2026-08-28T19:12:32Z</time>
  <course>347.57</course>
  <speed>0.01</speed>
  <fix>3d</fix>
</trkpt>
<trkpt lat="40.0728137" lon="-105.2306153">
  <ele>1596.56</ele>
  <time>2026-08-28T19:12:32Z</time>
  <course>90.7</course>
  <speed>0.0</speed>
  <fix>3d</fix>
</trkpt>
<trkpt lat="40.0728136" lon="-105.2306151">
  <ele>1596.65</ele>
  <time>2026-08-28T19:12:32Z</time>
  <course>347.57</course>
  <speed>0.01</speed>
  <fix>3d</fix>
</trkpt>
<trkpt lat="40.0728137" lon="-105.2306153">
  <ele>1596.56</ele>
  <time>2026-08-28T19:12:32Z</time>
  <course>75.39</course>
  <speed>0.0</speed>
  <fix>3d</fix>
</trkpt>
<trkpt lat="40.0728136" lon="-105.2306151">
  <ele>1596.65</ele>
  <time>2026-08-28T19:12:32Z</time>
  <course>347.57</course>
  <speed>0.01</speed>
  <fix>3d</fix>
</trkpt>
<trkpt lat="40.0728137" lon="-105.2306153">
  <ele>1596.56</ele>
  <time>2026-08-28T19:12:32Z</time>
  <course>70.06</course>
  <speed>0.0</speed>
  <fix>3d</fix>
</trkpt>
<trkpt lat="40.0728136" lon="-105.2306151">
  <ele>1596.65</ele>
  <time>2026-08-28T19:12:32Z</time>
  <course>347.57</course>
  <speed>0.01</speed>
  <fix>3d</fix>
</trkpt>
<trkpt lat="40.0728137" lon="-105.2306153">
  <ele>1596.56</ele>
  <time>2026-08-28T19:12:32Z</time>
  <course>67.9</course>
  <speed>0.0</speed>
  <fix>3d</fix>
</trkpt>
<trkpt lat="40.0728136" lon="-105.2306151">
  <ele>1596.65</ele>
  <time>2026-08-28T19:12:32Z</time>
  <course>347.57</course>
  <speed>0.01414213562373095</speed>
  <fix>3d</fix>
</trkpt>
<trkpt lat="40.0728137" lon="-105.2306153">
  <ele>1596.56</ele>
  <time>2026-08-28T19:12:32Z</time>
  <course>67.11</course>
  <speed>0.0</speed>
  <fix>3d</fix>
</trkpt>
<trkpt lat="40.0728136" lon="-105.2306151">
  <ele>1596.65</ele>
  <time>2026-08-28T19:12:32Z</time>
  <course>347.57</course>
  <speed>0.01414213562373095</speed>
  <fix>3d</fix>
</trkpt>
<trkpt lat="40.0728137" lon="-105.2306153">
  <ele>1596.56</ele>
  <time>2026-08-28T19:12:32Z</time>
  <course>66.96</course>
  <speed>0.0</speed>
  <fix>3d</fix>
</trkpt>
<trkpt lat="40.0728136" lon="-105.2306151">
  <ele>1596.64</ele>
  <time>2026-08-28T19:12:32Z</time>
  <course>347.57</course>
  <speed>0.01414213562373095</speed>
  <fix>3d</fix>
</trkpt>
<trkpt lat="40.0728137" lon="-105.2306153">
  <ele>1596.56</ele>
  <time>2026-08-28T19:12:32Z</time>
  <course>67.01</course>
  <speed>0.0</speed>
  <fix>3d</fix>
</trkpt>
<trkpt lat="40.0728136" lon="-105.2306151">
  <ele>1596.65</ele>
  <time>2026-08-28T19:12:32Z</time>
  <course>347.57</course>
  <speed>0.01414213562373095</speed>
  <fix>3d</fix>
</trkpt>
<trkpt lat="40.0728137" lon="-105.2306153">
  <ele>1596.56</ele>
  <time>2026-08-28T19:12:32Z</time>
  <course>71.52</course>
  <speed>0.0</speed>
  <fix>3d</fix>
</trkpt>
<trkpt lat="40.0728136" lon="-105.2306151">
  <ele>1596.65</ele>
  <time>2026-08-28T19:12:32Z</time>
  <course>347.55</course>
  <speed>0.01414213562373095</speed>
  <fix>3d</fix>
</trkpt>
<trkpt lat="40.0728137" lon="-105.2306153">
  <ele>1596.56</ele>
  <time>2026-08-28T19:12:32Z</time>
  <course>150.79</course>
  <speed>0.0</speed>
  <fix>3d</fix>
</trkpt>
<trkpt lat="40.0728136" lon="-105.2306151">
  <ele>1596.65</ele>
  <time>2026-08-28T19:12:32Z</time>
  <course>347.53</course>
  <speed>0.01414213562373095</speed>
  <fix>3d</fix>
</trkpt>
<trkpt lat="40.0728137" lon="-105.2306153">
  <ele>1596.57</ele>
  <time>2026-08-28T19:12:32Z</time>
  <course>186.33</course>
  <speed>0.0</speed>
  <fix>3d</fix>
</trkpt>
<trkpt lat="40.0728136" lon="-105.2306151">
  <ele>1596.65</ele>
  <time>2026-08-28T19:12:32Z</time>
  <course>347.53</course>
  <speed>0.01414213562373095</speed>
  <fix>3d</fix>
</trkpt>
<trkpt lat="40.0728137" lon="-105.2306153">
  <ele>1596.57</ele>
  <time>2026-08-28T19:12:32Z</time>
  <course>195.84</course>
  <speed>0.0</speed>
  <fix>3d</fix>
</trkpt>
<trkpt lat="40.0728136" lon="-105.2306151">
  <ele>1596.65</ele>
  <time>2026-08-28T19:12:32Z</time>
  <course>347.54</course>
  <speed>0.01414213562373095</speed>
  <fix>3d</fix>
</trkpt>
<trkpt lat="40.0728137" lon="-105.2306153">
  <ele>1596.57</ele>
  <time>2026-08-28T19:12:32Z</time>
  <course>202.43</course>
  <speed>0.0</speed>
  <fix>3d</fix>
</trkpt>
<trkpt lat="40.0728136" lon="-105.2306151">
  <ele>1596.64</ele>
  <time>2026-08-28T19:12:32Z</time>
  <course>347.55</course>
  <speed>0.01414213562373095</speed>
  <fix>3d</fix>
</trkpt>
<trkpt lat="40.0728137" lon="-105.2306153">
  <ele>1596.57</ele>
  <time>2026-08-28T19:12:32Z</time>
  <course>206.8</course>
  <speed>0.0</speed>
  <fix>3d</fix>
</trkpt>
<trkpt lat="40.0728136" lon="-105.2306151">
  <ele>1596.64</ele>
  <time>2026-08-28T19:12:32Z</time>
  <course>347.54</course>
  <speed>0.01414213562373095</speed>
  <fix>3d</fix>
</trkpt>
<trkpt lat="40.0728137" lon="-105.2306153">
  <ele>1596.57</ele>
  <time>2026-08-28T19:12:32Z</time>
  <course>208.85</course>
  <speed>0.0</speed>
  <fix>3d</fix>
</trkpt>
<trkpt lat="40.0728136" lon="-105.2306151">
  <ele>1596.64</ele>
  <time>2026-08-28T19:12:32Z</time>
  <course>347.52</course>
  <speed>0.01414213562373095</speed>
  <fix>3d</fix>
</trkpt>
<trkpt lat="40.0728137" lon="-105.2306153">
  <ele>1596.57</ele>
  <time>2026-08-28T19:12:32Z</time>
  <course>211.74</course>
  <speed>0.0</speed>
  <fix>3d</fix>
</trkpt>
<trkpt lat="40.0728136" lon="-105.2306151">
  <ele>1596.64</ele>
  <time>2026-08-28T19:12:32Z</time>
  <course>347.5</course>
  <speed>0.01414213562373095</speed>
  <fix>3d</fix>
</trkpt>
<trkpt lat="40.0728137" lon="-105.2306153">
  <ele>1596.57</ele>
  <time>2026-08-28T19:12:32Z</time>
  <course>218.35</course>
  <speed>0.0</speed>
  <fix>3d</fix>
</trkpt>
<trkpt lat="40.0728136" lon="-105.2306151">
  <ele>1596.65</ele>
  <time>2026-08-28T19:12:32Z</time>
  <course>347.49</course>
  <speed>0.01414213562373095</speed>
  <fix>3d</fix>
</trkpt>
<trkpt lat="40.0728137" lon="-105.2306153">
  <ele>1596.57</ele>
  <time>2026-08-28T19:12:32Z</time>
  <course>224.09</course>
  <speed>0.0</speed>
  <fix>3d</fix>
</trkpt>
<trkpt lat="40.0728136" lon="-105.2306151">
  <ele>1596.65</ele>
  <time>2026-08-28T19:12:32Z</time>
  <course>347.49</course>
  <speed>0.01414213562373095</speed>
  <fix>3d</fix>
</trkpt>
<trkpt lat="40.0728137" lon="-105.2306153">
  <ele>1596.58</ele>
  <time>2026-08-28T19:12:32Z</time>
  <course>229.59</course>
  <speed>0.0</speed>
  <fix>3d</fix>
</trkpt>
<trkpt lat="40.0728136" lon="-105.2306151">
  <ele>1596.65</ele>
  <time>2026-08-28T19:12:32Z</time>
  <course>347.48</course>
  <speed>0.01414213562373095</speed>
  <fix>3d</fix>
</trkpt>
<trkpt lat="40.0728136" lon="-105.2306153">
  <ele>1596.58</ele>
  <time>2026-08-28T19:12:32Z</time>
  <course>235.79</course>
  <speed>0.0</speed>
  <fix>3d</fix>
</trkpt>
<trkpt lat="40.0728136" lon="-105.2306151">
  <ele>1596.65</ele>
  <time>2026-08-28T19:12:32Z</time>
  <course>347.48</course>
  <speed>0.01414213562373095</speed>
  <fix>3d</fix>
</trkpt>
<trkpt lat="40.0728135" lon="-105.2306153">
  <ele>1596.58</ele>
  <time>2026-08-28T19:12:32Z</time>
  <course>239.54</course>
  <speed>0.0</speed>
  <fix>3d</fix>
</trkpt>
<trkpt lat="40.0728136" lon="-105.2306151">
  <ele>1596.65</ele>
  <time>2026-08-28T19:12:32Z</time>
  <course>347.48</course>
  <speed>0.01414213562373095</speed>
  <fix>3d</fix>
</trkpt>
<trkpt lat="40.0728135" lon="-105.2306153">
  <ele>1596.58</ele>
  <time>2026-08-28T19:12:32Z</time>
  <course>242.05</course>
  <speed>0.0</speed>
  <fix>3d</fix>
</trkpt>
<trkpt lat="40.0728136" lon="-105.2306151">
  <ele>1596.65</ele>
  <time>2026-08-28T19:12:32Z</time>
  <course>347.48</course>
  <speed>0.01414213562373095</speed>
  <fix>3d</fix>
</trkpt>
<trkpt lat="40.0728135" lon="-105.2306153">
  <ele>1596.58</ele>
  <time>2026-08-28T19:12:32Z</time>
  <course>243.73</course>
  <speed>0.0</speed>
  <fix>3d</fix>
</trkpt>
<trkpt lat="40.0728136" lon="-105.2306151">
  <ele>1596.65</ele>
  <time>2026-08-28T19:12:32Z</time>
  <course>347.48</course>
  <speed>0.01414213562373095</speed>
  <fix>3d</fix>
</trkpt>
<trkpt lat="40.0728135" lon="-105.2306153">
  <ele>1596.58</ele>
  <time>2026-08-28T19:12:32Z</time>
  <course>251.73</course>
  <speed>0.0</speed>
  <fix>3d</fix>
</trkpt>
<trkpt lat="40.0728136" lon="-105.2306151">
  <ele>1596.65</ele>
  <time>2026-08-28T19:12:32Z</time>
  <course>347.48</course>
  <speed>0.01414213562373095</speed>
  <fix>3d</fix>
</trkpt>
<trkpt lat="40.0728135" lon="-105.2306153">
  <ele>1596.58</ele>
  <time>2026-08-28T19:12:32Z</time>
  <course>291.1</course>
  <speed>0.0</speed>
  <fix>3d</fix>
</trkpt>
<trkpt lat="40.0728136" lon="-105.2306151">
  <ele>1596.65</ele>
  <time>2026-08-28T19:12:32Z</time>
  <course>347.48</course>
  <speed>0.01</speed>
  <fix>3d</fix>
</trkpt>
<trkpt lat="40.0728135" lon="-105.2306153">
  <ele>1596.58</ele>
  <time>2026-08-28T19:12:32Z</time>
  <course>333.34</course>
  <speed>0.0</speed>
  <fix>3d</fix>
</trkpt>
<trkpt lat="40.0728136" lon="-105.2306151">
  <ele>1596.66</ele>
  <time>2026-08-28T19:12:32Z</time>
  <course>347.48</course>
  <speed>0.01</speed>
  <fix>3d</fix>
</trkpt>
<trkpt lat="40.0728135" lon="-105.2306153">
  <ele>1596.58</ele>
  <time>2026-08-28T19:12:32Z</time>
  <course>345.01</course>
  <speed>0.0</speed>
  <fix>3d</fix>
</trkpt>
<trkpt lat="40.0728136" lon="-105.2306151">
  <ele>1596.66</ele>
  <time>2026-08-28T19:12:32Z</time>
  <course>347.48</course>
  <speed>0.01</speed>
  <fix>3d</fix>
</trkpt>
<trkpt lat="40.0728135" lon="-105.2306153">
  <ele>1596.58</ele>
  <time>2026-08-28T19:12:32Z</time>
  <course>349.87</course>
  <speed>0.0</speed>
  <fix>3d</fix>
</trkpt>
<trkpt lat="40.0728136" lon="-105.2306151">
  <ele>1596.66</ele>
  <time>2026-08-28T19:12:32Z</time>
  <course>347.49</course>
  <speed>0.01</speed>
  <fix>3d</fix>
</trkpt>
<trkpt lat="40.0728135" lon="-105.2306153">
  <ele>1596.58</ele>
  <time>2026-08-28T19:12:32Z</time>
  <course>351.84</course>
  <speed>0.0</speed>
  <fix>3d</fix>
</trkpt>
<trkpt lat="40.0728136" lon="-105.2306151">
  <ele>1596.66</ele>
  <time>2026-08-28T19:12:32Z</time>
  <course>347.51</course>
  <speed>0.01</speed>
  <fix>3d</fix>
</trkpt>
<trkpt lat="40.0728135" lon="-105.2306153">
  <ele>1596.58</ele>
  <time>2026-08-28T19:12:32Z</time>
  <course>351.95</course>
  <speed>0.01</speed>
  <fix>3d</fix>
</trkpt>
<trkpt lat="40.0728136" lon="-105.2306151">
  <ele>1596.66</ele>
  <time>2026-08-28T19:12:32Z</time>
  <course>347.52</course>
  <speed>0.01</speed>
  <fix>3d</fix>
</trkpt>
<trkpt lat="40.0728135" lon="-105.2306153">
  <ele>1596.58</ele>
  <time>2026-08-28T19:12:32Z</time>
  <course>352.04</course>
  <speed>0.01</speed>
  <fix>3d</fix>
</trkpt>
<trkpt lat="40.0728136" lon="-105.2306151">
  <ele>1596.66</ele>
  <time>2026-08-28T19:12:32Z</time>
  <course>347.52</course>
  <speed>0.01</speed>
  <fix>3d</fix>
</trkpt>
<trkpt lat="40.0728136" lon="-105.2306153">
  <ele>1596.58</ele>
  <time>2026-08-28T19:12:32Z</time>
  <course>352.31</course>
  <speed>0.01</speed>
  <fix>3d</fix>
</trkpt>
<trkpt lat="40.0728136" lon="-105.2306151">
  <ele>1596.66</ele>
  <time>2026-08-28T19:12:32Z</time>
  <course>347.51</course>
  <speed>0.01</speed>
  <fix>3d</fix>
</trkpt>
<trkpt lat="40.0728137" lon="-105.2306153">
  <ele>1596.58</ele>
  <time>2026-08-28T19:12:32Z</time>
  <course>352.16</course>
  <speed>0.01</speed>
  <fix>3d</fix>
</trkpt>
<trkpt lat="40.0728136" lon="-105.2306151">
  <ele>1596.65</ele>
  <time>2026-08-28T19:12:32Z</time>
  <course>347.51</course>
  <speed>0.01</speed>
  <fix>3d</fix>
</trkpt>
<trkpt lat="40.0728137" lon="-105.2306153">
  <ele>1596.58</ele>
  <time>2026-08-28T19:12:32Z</time>
  <course>352.34</course>
  <speed>0.01</speed>
  <fix>3d</fix>
</trkpt>
<trkpt lat="40.0728136" lon="-105.2306151">
  <ele>1596.65</ele>
  <time>2026-08-28T19:12:32Z</time>
  <course>347.51</course>
  <speed>0.01</speed>
  <fix>3d</fix>
</trkpt>
<trkpt lat="40.0728137" lon="-105.2306153">
  <ele>1596.57</ele>
  <time>2026-08-28T19:12:32Z</time>
  <course>352.42</course>
  <speed>0.01</speed>
  <fix>3d</fix>
</trkpt>
<trkpt lat="40.0728136" lon="-105.2306151">
  <ele>1596.65</ele>
  <time>2026-08-28T19:12:32Z</time>
  <course>347.51</course>
  <speed>0.01</speed>
  <fix>3d</fix>
</trkpt>
<trkpt lat="40.0728137" lon="-105.2306153">
  <ele>1596.57</ele>
  <time>2026-08-28T19:12:32Z</time>
  <course>351.58</course>
  <speed>0.01</speed>
  <fix>3d</fix>
</trkpt>
<trkpt lat="40.0728136" lon="-105.2306151">
  <ele>1596.65</ele>
  <time>2026-08-28T19:12:32Z</time>
  <course>347.5</course>
  <speed>0.01</speed>
  <fix>3d</fix>
</trkpt>
<trkpt lat="40.0728138" lon="-105.2306153">
  <ele>1596.57</ele>
  <time>2026-08-28T19:12:32Z</time>
  <course>350.25</course>
  <speed>0.01</speed>
  <fix>3d</fix>
</trkpt>
<trkpt lat="40.0728136" lon="-105.2306151">
  <ele>1596.64</ele>
  <time>2026-08-28T19:12:32Z</time>
  <course>347.5</course>
  <speed>0.01</speed>
  <fix>3d</fix>
</trkpt>
<trkpt lat="40.0728138" lon="-105.2306153">
  <ele>1596.57</ele>
  <time>2026-08-28T19:12:32Z</time>
  <course>348.35</course>
  <speed>0.01</speed>
  <fix>3d</fix>
</trkpt>
<trkpt lat="40.0728137" lon="-105.2306151">
  <ele>1596.64</ele>
  <time>2026-08-28T19:12:32Z</time>
  <course>347.49</course>
  <speed>0.01</speed>
  <fix>3d</fix>
</trkpt>
<trkpt lat="40.0728138" lon="-105.2306153">
  <ele>1596.57</ele>
  <time>2026-08-28T19:12:32Z</time>
  <course>345.37</course>
  <speed>0.01</speed>
  <fix>3d</fix>
</trkpt>
<trkpt lat="40.0728137" lon="-105.2306151">
  <ele>1596.65</ele>
  <time>2026-08-28T19:12:32Z</time>
  <course>347.47</course>
  <speed>0.01</speed>
  <fix>3d</fix>
</trkpt>
<trkpt lat="40.0728138" lon="-105.2306153">
  <ele>1596.57</ele>
  <time>2026-08-28T19:12:32Z</time>
  <course>342.06</course>
  <speed>0.0</speed>
  <fix>3d</fix>
</trkpt>
<trkpt lat="40.0728137" lon="-105.2306151">
  <ele>1596.65</ele>
  <time>2026-08-28T19:12:32Z</time>
  <course>347.45</course>
  <speed>0.01414213562373095</speed>
  <fix>3d</fix>
</trkpt>
<trkpt lat="40.0728138" lon="-105.2306153">
  <ele>1596.57</ele>
  <time>2026-08-28T19:12:32Z</time>
  <course>333.12</course>
  <speed>0.0</speed>
  <fix>3d</fix>
</trkpt>
<trkpt lat="40.0728137" lon="-105.2306151">
  <ele>1596.65</ele>
  <time>2026-08-28T19:12:32Z</time>
  <course>347.43</course>
  <speed>0.01414213562373095</speed>
  <fix>3d</fix>
</trkpt>
<trkpt lat="40.0728138" lon="-105.2306153">
  <ele>1596.57</ele>
  <time>2026-08-28T19:12:32Z</time>
  <course>301.72</course>
  <speed>0.0</speed>
  <fix>3d</fix>
</trkpt>
<trkpt lat="40.0728137" lon="-105.2306151">
  <ele>1596.65</ele>
  <time>2026-08-28T19:12:32Z</time>
  <course>347.42</course>
  <speed>0.01414213562373095</speed>
  <fix>3d</fix>
</trkpt>
<trkpt lat="40.0728138" lon="-105.2306153">
  <ele>1596.57</ele>
  <time>2026-08-28T19:12:32Z</time>
  <course>245.49</course>
  <speed>0.0</speed>
  <fix>3d</fix>
</trkpt>
<trkpt lat="40.0728137" lon="-105.2306151">
  <ele>1596.65</ele>
  <time>2026-08-28T19:12:32Z</time>
  <course>347.42</course>
  <speed>0.01414213562373095</speed>
  <fix>3d</fix>
</trkpt>
<trkpt lat="40.0728138" lon="-105.2306153">
  <ele>1596.58</ele>
  <time>2026-08-28T19:12:32Z</time>
  <course>218.97</course>
  <speed>0.0</speed>
  <fix>3d</fix>
</trkpt>
<trkpt lat="40.0728137" lon="-105.2306151">
  <ele>1596.65</ele>
  <time>2026-08-28T19:12:32Z</time>
  <course>347.41</course>
  <speed>0.01414213562373095</speed>
  <fix>3d</fix>
</trkpt>
<trkpt lat="40.0728138" lon="-105.2306153">
  <ele>1596.58</ele>
  <time>2026-08-28T19:12:32Z</time>
  <course>208.38</course>
  <speed>0.0</speed>
  <fix>3d</fix>
</trkpt>
<trkpt lat="40.0728137" lon="-105.2306151">
  <ele>1596.65</ele>
  <time>2026-08-28T19:12:32Z</time>
  <course>347.41</course>
  <speed>0.022360679774997897</speed>
  <fix>3d</fix>
</trkpt>
<trkpt lat="40.0728138" lon="-105.2306154">
  <ele>1596.58</ele>
  <time>2026-08-28T19:12:32Z</time>
  <course>202.01</course>
  <speed>0.0</speed>
  <fix>3d</fix>
</trkpt>
<trkpt lat="40.0728137" lon="-105.2306151">
  <ele>1596.65</ele>
  <time>2026-08-28T19:12:32Z</time>
  <course>347.41</course>
  <speed>0.022360679774997897</speed>
  <fix>3d</fix>
</trkpt>
<trkpt lat="40.0728138" lon="-105.2306155">
  <ele>1596.58</ele>
  <time>2026-08-28T19:12:32Z</time>
  <course>195.8</course>
  <speed>0.0</speed>
  <fix>3d</fix>
</trkpt>
<trkpt lat="40.0728137" lon="-105.2306151">
  <ele>1596.65</ele>
  <time>2026-08-28T19:12:32Z</time>
  <course>347.43</course>
  <speed>0.022360679774997897</speed>
  <fix>3d</fix>
</trkpt>
<trkpt lat="40.0728138" lon="-105.2306155">
  <ele>1596.58</ele>
  <time>2026-08-28T19:12:32Z</time>
  <course>189.39</course>
  <speed>0.0</speed>
  <fix>3d</fix>
</trkpt>
<trkpt lat="40.0728137" lon="-105.2306152">
  <ele>1596.65</ele>
  <time>2026-08-28T19:12:32Z</time>
  <course>347.42</course>
  <speed>0.022360679774997897</speed>
  <fix>3d</fix>
</trkpt>
<trkpt lat="40.0728138" lon="-105.2306155">
  <ele>1596.58</ele>
  <time>2026-08-28T19:12:32Z</time>
  <course>183.53</course>
  <speed>0.01</speed>
  <fix>3d</fix>
</trkpt>
<trkpt lat="40.0728137" lon="-105.2306152">
  <ele>1596.65</ele>
  <time>2026-08-28T19:12:32Z</time>
  <course>347.42</course>
  <speed>0.0282842712474619</speed>
  <fix>3d</fix>
</trkpt>
<trkpt lat="40.0728138" lon="-105.2306155">
  <ele>1596.58</ele>
  <time>2026-08-28T19:12:32Z</time>
  <course>177.01</course>
  <speed>0.0</speed>
  <fix>3d</fix>
</trkpt>
<trkpt lat="40.0728137" lon="-105.2306152">
  <ele>1596.64</ele>
  <time>2026-08-28T19:12:32Z</time>
  <course>347.41</course>
  <speed>0.022360679774997897</speed>
  <fix>3d</fix>
</trkpt>
<trkpt lat="40.0728138" lon="-105.2306155">
  <ele>1596.58</ele>
  <time>2026-08-28T19:12:32Z</time>
  <course>170.03</course>
  <speed>0.0</speed>
  <fix>3d</fix>
</trkpt>
<trkpt lat="40.0728137" lon="-105.2306152">
  <ele>1596.64</ele>
  <time>2026-08-28T19:12:32Z</time>
  <course>347.4</course>
  <speed>0.022360679774997897</speed>
  <fix>3d</fix>
</trkpt>
<trkpt lat="40.0728138" lon="-105.2306155">
  <ele>1596.58</ele>
  <time>2026-08-28T19:12:32Z</time>
  <course>163.06</course>
  <speed>0.0</speed>
  <fix>3d</fix>
</trkpt>
<trkpt lat="40.0728137" lon="-105.2306152">
  <ele>1596.64</ele>
  <time>2026-08-28T19:12:32Z</time>
  <course>347.4</course>
  <speed>0.022360679774997897</speed>
  <fix>3d</fix>
</trkpt>
<trkpt lat="40.0728138" lon="-105.2306155">
  <ele>1596.58</ele>
  <time>2026-08-28T19:12:32Z</time>
  <course>155.24</course>
  <speed>0.0</speed>
  <fix>3d</fix>
</trkpt>
<trkpt lat="40.0728137" lon="-105.2306152">
  <ele>1596.64</ele>
  <time>2026-08-28T19:12:32Z</time>
  <course>347.39</course>
  <speed>0.022360679774997897</speed>
  <fix>3d</fix>
</trkpt>
<trkpt lat="40.0728138" lon="-105.2306155">
  <ele>1596.58</ele>
  <time>2026-08-28T19:12:32Z</time>
  <course>146.61</course>
  <speed>0.0</speed>
  <fix>3d</fix>
</trkpt>
<trkpt lat="40.0728137" lon="-105.2306152">
  <ele>1596.65</ele>
  <time>2026-08-28T19:12:32Z</time>
  <course>347.38</course>
  <speed>0.022360679774997897</speed>
  <fix>3d</fix>
</trkpt>
<trkpt lat="40.0728138" lon="-105.2306155">
  <ele>1596.58</ele>
  <time>2026-08-28T19:12:32Z</time>
  <course>138.41</course>
  <speed>0.0</speed>
  <fix>3d</fix>
</trkpt>
<trkpt lat="40.0728137" lon="-105.2306152">
  <ele>1596.65</ele>
  <time>2026-08-28T19:12:32Z</time>
  <course>347.37</course>
  <speed>0.022360679774997897</speed>
  <fix>3d</fix>
</trkpt>
<trkpt lat="40.0728138" lon="-105.2306155">
  <ele>1596.58</ele>
  <time>2026-08-28T19:12:32Z</time>
  <course>132.6</course>
  <speed>0.0</speed>
  <fix>3d</fix>
</trkpt>
<trkpt lat="40.0728137" lon="-105.2306152">
  <ele>1596.66</ele>
  <time>2026-08-28T19:12:32Z</time>
  <course>347.38</course>
  <speed>0.022360679774997897</speed>
  <fix>3d</fix>
</trkpt>
<trkpt lat="40.0728138" lon="-105.2306155">
  <ele>1596.58</ele>
  <time>2026-08-28T19:12:32Z</time>
  <course>130.38</course>
  <speed>0.0</speed>
  <fix>3d</fix>
</trkpt>
<trkpt lat="40.0728137" lon="-105.2306152">
  <ele>1596.67</ele>
  <time>2026-08-28T19:12:32Z</time>
  <course>347.91</course>
  <speed>0.01414213562373095</speed>
  <fix>3d</fix>
</trkpt>
<trkpt lat="40.0728137" lon="-105.2306155">
  <ele>1596.58</ele>
  <time>2026-08-28T19:12:32Z</time>
  <course>136.26</course>
  <speed>0.0</speed>
  <fix>3d</fix>
</trkpt>
<trkpt lat="40.0728137" lon="-105.2306152">
  <ele>1596.67</ele>
  <time>2026-08-28T19:12:32Z</time>
  <course>350.38</course>
  <speed>0.01</speed>
  <fix>3d</fix>
</trkpt>
<trkpt lat="40.0728137" lon="-105.2306155">
  <ele>1596.58</ele>
  <time>2026-08-28T19:12:32Z</time>
  <course>181.89</course>
  <speed>0.0</speed>
  <fix>3d</fix>
</trkpt>
<trkpt lat="40.0728137" lon="-105.2306152">
  <ele>1596.67</ele>
  <time>2026-08-28T19:12:32Z</time>
  <course>354.31</course>
  <speed>0.0</speed>
  <fix>3d</fix>
</trkpt>
<trkpt lat="40.0728137" lon="-105.2306155">
  <ele>1596.58</ele>
  <time>2026-08-28T19:12:32Z</time>
  <course>239.49</course>
  <speed>0.0</speed>
  <fix>3d</fix>
</trkpt>
<trkpt lat="40.0728137" lon="-105.2306153">
  <ele>1596.67</ele>
  <time>2026-08-28T19:12:32Z</time>
  <course>358.9</course>
  <speed>0.01414213562373095</speed>
  <fix>3d</fix>
</trkpt>
<trkpt lat="40.0728137" lon="-105.2306155">
  <ele>1596.58</ele>
  <time>2026-08-28T19:12:32Z</time>
  <course>302.54</course>
  <speed>0.0</speed>
  <fix>3d</fix>
</trkpt>
<trkpt lat="40.0728137" lon="-105.2306153">
  <ele>1596.67</ele>
  <time>2026-08-28T19:12:32Z</time>
  <course>3.46</course>
  <speed>0.0316227766016838</speed>
  <fix>3d</fix>
</trkpt>
<trkpt lat="40.0728137" lon="-105.2306155">
  <ele>1596.58</ele>
  <time>2026-08-28T19:12:32Z</time>
  <course>347.39</course>
  <speed>0.02</speed>
  <fix>3d</fix>
</trkpt>
<trkpt lat="40.0728137" lon="-105.2306153">
  <ele>1596.68</ele>
  <time>2026-08-28T19:12:32Z</time>
  <course>7.6</course>
  <speed>0.053851648071345036</speed>
  <fix>3d</fix>
</trkpt>
<trkpt lat="40.0728137" lon="-105.2306155">
  <ele>1596.58</ele>
  <time>2026-08-28T19:12:32Z</time>
  <course>2.19</course>
  <speed>0.04</speed>
  <fix>3d</fix>
</trkpt>
<trkpt lat="40.0728139" lon="-105.2306153">
  <ele>1596.7</ele>
  <time>2026-08-28T19:12:32Z</time>
  <course>10.99</course>
  <speed>0.07615773105863909</speed>
  <fix>3d</fix>
</trkpt>
<trkpt lat="40.0728138" lon="-105.2306155">
  <ele>1596.59</ele>
  <time>2026-08-28T19:12:32Z</time>
  <course>7.32</course>
  <speed>0.06</speed>
  <fix>3d</fix>
</trkpt>
<trkpt lat="40.072814" lon="-105.2306153">
  <ele>1596.74</ele>
  <time>2026-08-28T19:12:32Z</time>
  <course>13.52</course>
  <speed>0.09486832980505139</speed>
  <fix>3d</fix>
</trkpt>
<trkpt lat="40.0728139" lon="-105.2306155">
  <ele>1596.61</ele>
  <time>2026-08-28T19:12:32Z</time>
  <course>8.85</course>
  <speed>0.08</speed>
  <fix>3d</fix>
</trkpt>
<trkpt lat="40.0728142" lon="-105.2306153">
  <ele>1596.81</ele>
  <time>2026-08-28T19:12:32Z</time>
  <course>15.23</course>
  <speed>0.1044030650891055</speed>
  <fix>3d</fix>
</trkpt>
<trkpt lat="40.0728141" lon="-105.2306154">
  <ele>1596.65</ele>
  <time>2026-08-28T19:12:32Z</time>
  <course>8.78</course>
  <speed>0.09</speed>
  <fix>3d</fix>
</trkpt>
<trkpt lat="40.0728144" lon="-105.2306152">
  <ele>1596.91</ele>
  <time>2026-08-28T19:12:32Z</time>
  <course>16.3</course>
  <speed>0.1044030650891055</speed>
  <fix>3d</fix>
</trkpt>
<trkpt lat="40.0728143" lon="-105.2306153">
  <ele>1596.73</ele>
  <time>2026-08-28T19:12:32Z</time>
  <course>7.75</course>
  <speed>0.11</speed>
  <fix>3d</fix>
</trkpt>
<trkpt lat="40.0728146" lon="-105.2306152">
  <ele>1597.03</ele>
  <time>2026-08-28T19:12:32Z</time>
  <course>16.96</course>
  <speed>0.1019803902718557</speed>
  <fix>3d</fix>
</trkpt>
<trkpt lat="40.0728145" lon="-105.2306153">
  <ele>1596.82</ele>
  <time>2026-08-28T19:12:32Z</time>
  <course>5.89</course>
  <speed>0.11</speed>
  <fix>3d</fix>
</trkpt>
<trkpt lat="40.0728148" lon="-105.2306152">
  <ele>1597.19</ele>
  <time>2026-08-28T19:12:32Z</time>
  <course>17.42</course>
  <speed>0.09219544457292887</speed>
  <fix>3d</fix>
</trkpt>
<trkpt lat="40.0728146" lon="-105.2306153">
  <ele>1596.95</ele>
  <time>2026-08-28T19:12:32Z</time>
  <course>3.3</course>
  <speed>0.11</speed>
  <fix>3d</fix>
</trkpt>
<trkpt lat="40.0728149" lon="-105.2306152">
  <ele>1597.37</ele>
  <time>2026-08-28T19:12:32Z</time>
  <course>17.79</course>
  <speed>0.08062257748298549</speed>
  <fix>3d</fix>
</trkpt>
<trkpt lat="40.0728149" lon="-105.2306153">
  <ele>1597.1</ele>
  <time>2026-08-28T19:12:32Z</time>
  <course>359.94</course>
  <speed>0.1</speed>
  <fix>3d</fix>
</trkpt>
<trkpt lat="40.0728151" lon="-105.2306152">
  <ele>1597.58</ele>
  <time>2026-08-28T19:12:32Z</time>
  <course>18.16</course>
  <speed>0.06</speed>
  <fix>3d</fix>
</trkpt>
<trkpt lat="40.072815" lon="-105.2306153">
  <ele>1597.29</ele>
  <time>2026-08-28T19:12:32Z</time>
  <course>355.56</course>
  <speed>0.08</speed>
  <fix>3d</fix>
</trkpt>
<trkpt lat="40.0728152" lon="-105.2306152">
  <ele>1597.81</ele>
  <time>2026-08-28T19:12:32Z</time>
  <course>18.51</course>
  <speed>0.05</speed>
  <fix>3d</fix>
</trkpt>
<trkpt lat="40.0728151" lon="-105.2306153">
  <ele>1597.5</ele>
  <time>2026-08-28T19:12:32Z</time>
  <course>349.89</course>
  <speed>0.07</speed>
  <fix>3d</fix>
</trkpt>
<trkpt lat="40.0728153" lon="-105.2306152">
  <ele>1598.04</ele>
  <time>2026-08-28T19:12:32Z</time>
  <course>18.86</course>
  <speed>0.03</speed>
  <fix>3d</fix>
</trkpt>
<trkpt lat="40.0728153" lon="-105.2306153">
  <ele>1597.72</ele>
  <time>2026-08-28T19:12:32Z</time>
  <course>342.15</course>
  <speed>0.05</speed>
  <fix>3d</fix>
</trkpt>
<trkpt lat="40.0728153" lon="-105.2306152">
  <ele>1598.28</ele>
  <time>2026-08-28T19:12:32Z</time>
  <course>19.2</course>
  <speed>0.01</speed>
  <fix>3d</fix>
</trkpt>
<trkpt lat="40.0728153" lon="-105.2306153">
  <ele>1597.96</ele>
  <time>2026-08-28T19:12:32Z</time>
  <course>329.93</course>
  <speed>0.04</speed>
  <fix>3d</fix>
</trkpt>
<trkpt lat="40.0728154" lon="-105.2306153">
  <ele>1598.52</ele>
  <time>2026-08-28T19:12:32Z</time>
  <course>19.49</course>
  <speed>0.0</speed>
  <fix>3d</fix>
</trkpt>
<trkpt lat="40.0728154" lon="-105.2306154">
  <ele>1598.2</ele>
  <time>2026-08-28T19:12:32Z</time>
  <course>307.46</course>
  <speed>0.02</speed>
  <fix>3d</fix>
</trkpt>
<trkpt lat="40.0728153" lon="-105.2306153">
  <ele>1598.76</ele>
  <time>2026-08-28T19:12:32Z</time>
  <course>19.73</course>
  <speed>0.02</speed>
  <fix>3d</fix>
</trkpt>
<trkpt lat="40.0728155" lon="-105.2306155">
  <ele>1598.44</ele>
  <time>2026-08-28T19:12:32Z</time>
  <course>267.36</course>
  <speed>0.02</speed>
  <fix>3d</fix>
</trkpt>
<trkpt lat="40.0728153" lon="-105.2306154">
  <ele>1599.0</ele>
  <time>2026-08-28T19:12:32Z</time>
  <course>19.9</course>
  <speed>0.03</speed>
  <fix>3d</fix>
</trkpt>
<trkpt lat="40.0728155" lon="-105.2306155">
  <ele>1598.68</ele>
  <time>2026-08-28T19:12:32Z</time>
  <course>228.51</course>
  <speed>0.02</speed>
  <fix>3d</fix>
</trkpt>
<trkpt lat="40.0728153" lon="-105.2306154">
  <ele>1599.23</ele>
  <time>2026-08-28T19:12:32Z</time>
  <course>20.07</course>
  <speed>0.04</speed>
  <fix>3d</fix>
</trkpt>
<trkpt lat="40.0728155" lon="-105.2306155">
  <ele>1598.91</ele>
  <time>2026-08-28T19:12:32Z</time>
  <course>206.95</course>
  <speed>0.03</speed>
  <fix>3d</fix>
</trkpt>
<trkpt lat="40.0728153" lon="-105.2306154">
  <ele>1599.45</ele>
  <time>2026-08-28T19:12:32Z</time>
  <course>20.21</course>
  <speed>0.05</speed>
  <fix>3d</fix>
</trkpt>
<trkpt lat="40.0728154" lon="-105.2306155">
  <ele>1599.14</ele>
  <time>2026-08-28T19:12:32Z</time>
  <course>185.12</course>
  <speed>0.03</speed>
  <fix>3d</fix>
</trkpt>
<trkpt lat="40.0728153" lon="-105.2306153">
  <ele>1599.66</ele>
  <time>2026-08-28T19:12:32Z</time>
  <course>20.33</course>
  <speed>0.1</speed>
  <fix>3d</fix>
</trkpt>
<trkpt lat="40.0728153" lon="-105.2306155">
  <ele>1599.36</ele>
  <time>2026-08-28T19:12:32Z</time>
  <course>131.09</course>
  <speed>0.04</speed>
  <fix>3d</fix>
</trkpt>
<trkpt lat="40.0728153" lon="-105.230615">
  <ele>1599.84</ele>
  <time>2026-08-28T19:12:32Z</time>
  <course>20.42</course>
  <speed>0.19924858845171275</speed>
  <fix>3d</fix>
</trkpt>
<trkpt lat="40.0728152" lon="-105.2306154">
  <ele>1599.56</ele>
  <time>2026-08-28T19:12:32Z</time>
  <course>82.06</course>
  <speed>0.09</speed>
  <fix>3d</fix>
</trkpt>
<trkpt lat="40.0728155" lon="-105.2306145">
  <ele>1600.0</ele>
  <time>2026-08-28T19:12:32Z</time>
  <course>20.49</course>
  <speed>0.36235341863986875</speed>
  <fix>3d</fix>
</trkpt>
<trkpt lat="40.0728153" lon="-105.2306151">
  <ele>1599.74</ele>
  <time>2026-08-28T19:12:32Z</time>
  <course>65.23</course>
  <speed>0.21</speed>
  <fix>3d</fix>
</trkpt>
<trkpt lat="40.0728159" lon="-105.2306136">
  <ele>1600.11</ele>
  <time>2026-08-28T19:12:32Z</time>
  <course>20.57</course>
  <speed>0.5491812087098392</speed>
  <fix>3d</fix>
</trkpt>
<trkpt lat="40.0728156" lon="-105.2306146">
  <ele>1599.89</ele>
  <time>2026-08-28T19:12:32Z</time>
  <course>57.74</course>
  <speed>0.37</speed>
  <fix>3d</fix>
</trkpt>
<trkpt lat="40.0728166" lon="-105.2306124">
  <ele>1600.19</ele>
  <time>2026-08-28T19:12:32Z</time>
  <course>20.57</course>
  <speed>0.7860025445251434</speed>
  <fix>3d</fix>
</trkpt>
<trkpt lat="40.0728161" lon="-105.2306136">
  <ele>1600.0</ele>
  <time>2026-08-28T19:12:32Z</time>
  <course>53.5</course>
  <speed>0.57</speed>
  <fix>3d</fix>
</trkpt>
<trkpt lat="40.0728176" lon="-105.2306108">
  <ele>1600.24</ele>
  <time>2026-08-28T19:12:32Z</time>
  <course>20.51</course>
  <speed>1.0230347012687302</speed>
  <fix>3d</fix>
</trkpt>
<trkpt lat="40.0728168" lon="-105.2306124">
  <ele>1600.08</ele>
  <time>2026-08-28T19:12:32Z</time>
  <course>50.75</course>
  <speed>0.8</speed>
  <fix>3d</fix>
</trkpt>
<trkpt lat="40.072819" lon="-105.2306089">
  <ele>1600.25</ele>
  <time>2026-08-28T19:12:32Z</time>
  <course>28.0</course>
  <speed>1.2448293055676347</speed>
  <fix>3d</fix>
</trkpt>
<trkpt lat="40.0728178" lon="-105.2306107">
  <ele>1600.12</ele>
  <time>2026-08-28T19:12:32Z</time>
  <course>47.7</course>
  <speed>1.04</speed>
  <fix>3d</fix>
</trkpt>
<trkpt lat="40.0728206" lon="-105.2306067">
  <ele>1600.24</ele>
  <time>2026-08-28T19:12:32Z</time>
  <course>41.86</course>
  <speed>1.4924141516348604</speed>
  <fix>3d</fix>
</trkpt>
<trkpt lat="40.0728193" lon="-105.2306087">
  <ele>1600.13</ele>
  <time>2026-08-28T19:12:32Z</time>
  <course>45.31</course>
  <speed>1.28</speed>
  <fix>3d</fix>
</trkpt>
<trkpt lat="40.0728226" lon="-105.230604">
  <ele>1600.21</ele>
  <time>2026-08-28T19:12:32Z</time>
  <course>50.32</course>
  <speed>1.706604816587601</speed>
  <fix>3d</fix>
</trkpt>
<trkpt lat="40.0728211" lon="-105.2306064">
  <ele>1600.12</ele>
  <time>2026-08-28T19:12:32Z</time>
  <course>45.35</course>
  <speed>1.52</speed>
  <fix>3d</fix>
</trkpt>
<trkpt lat="40.0728248" lon="-105.2306009">
  <ele>1600.19</ele>
  <time>2026-08-28T19:12:32Z</time>
  <course>49.78</course>
  <speed>1.8627130750601393</speed>
  <fix>3d</fix>
</trkpt>
<trkpt lat="40.0728232" lon="-105.2306036">
  <ele>1600.09</ele>
  <time>2026-08-28T19:12:32Z</time>
  <course>46.6</course>
  <speed>1.73</speed>
  <fix>3d</fix>
</trkpt>
<trkpt lat="40.0728271" lon="-105.2305977">
  <ele>1600.17</ele>
  <time>2026-08-28T19:12:32Z</time>
  <course>47.97</course>
  <speed>1.9325889371514058</speed>
  <fix>3d</fix>
</trkpt>
<trkpt lat="40.0728254" lon="-105.2306005">
  <ele>1600.07</ele>
  <time>2026-08-28T19:12:32Z</time>
  <course>47.06</course>
  <speed>1.88</speed>
  <fix>3d</fix>
</trkpt>
<trkpt lat="40.0728295" lon="-105.2305944">
  <ele>1600.16</ele>
  <time>2026-08-28T19:12:32Z</time>
  <course>47.0</course>
  <speed>1.9246298345396187</speed>
  <fix>3d</fix>
</trkpt>
<trkpt lat="40.0728278" lon="-105.2305972">
  <ele>1600.05</ele>
  <time>2026-08-28T19:12:32Z</time>
  <course>46.64</course>
  <speed>1.95</speed>
  <fix>3d</fix>
</trkpt>
<trkpt lat="40.0728319" lon="-105.2305912">
  <ele>1600.15</ele>
  <time>2026-08-28T19:12:32Z</time>
  <course>46.83</course>
  <speed>1.8607794065928394</speed>
  <fix>3d</fix>
</trkpt>
<trkpt lat="40.0728302" lon="-105.2305939">
  <ele>1600.03</ele>
  <time>2026-08-28T19:12:32Z</time>
  <course>46.27</course>
  <speed>1.94</speed>
  <fix>3d</fix>
</trkpt>
<trkpt lat="40.0728341" lon="-105.2305881">
  <ele>1600.15</ele>
  <time>2026-08-28T19:12:32Z</time>
  <course>47.18</course>
  <speed>1.7833115263464205</speed>
  <fix>3d</fix>
</trkpt>
<trkpt lat="40.0728326" lon="-105.2305906">
  <ele>1600.03</ele>
  <time>2026-08-28T19:12:32Z</time>
  <course>46.33</course>
  <speed>1.88</speed>
  <fix>3d</fix>
</trkpt>
<trkpt lat="40.0728363" lon="-105.2305851">
  <ele>1600.15</ele>
  <time>2026-08-28T19:12:32Z</time>
  <course>47.95</course>
  <speed>1.6924833824885843</speed>
  <fix>3d</fix>
</trkpt>
<trkpt lat="40.0728348" lon="-105.2305875">
  <ele>1600.03</ele>
  <time>2026-08-28T19:12:32Z</time>
  <course>46.87</course>
  <speed>1.8</speed>
  <fix>3d</fix>
</trkpt>
<trkpt lat="40.0728383" lon="-105.2305822">
  <ele>1600.15</ele>
  <time>2026-08-28T19:12:32Z</time>
  <course>48.94</course>
  <speed>1.5738487856207788</speed>
  <fix>3d</fix>
</trkpt>
<trkpt lat="40.0728369" lon="-105.2305844">
  <ele>1600.02</ele>
  <time>2026-08-28T19:12:32Z</time>
  <course>47.76</course>
  <speed>1.7</speed>
  <fix>3d</fix>
</trkpt>
<trkpt lat="40.0728401" lon="-105.2305795">
  <ele>1600.15</ele>
  <time>2026-08-28T19:12:32Z</time>
  <course>49.89</course>
  <speed>1.4263590010933433</speed>
  <fix>3d</fix>
</trkpt>
<trkpt lat="40.0728389" lon="-105.2305815">
  <ele>1600.02</ele>
  <time>2026-08-28T19:12:32Z</time>
  <course>48.74</course>
  <speed>1.58</speed>
  <fix>3d</fix>
</trkpt>
<trkpt lat="40.0728417" lon="-105.2305771">
  <ele>1600.15</ele>
  <time>2026-08-28T19:12:32Z</time>
  <course>50.67</course>
  <speed>1.229186723000212</speed>
  <fix>3d</fix>
</trkpt>
<trkpt lat="40.0728407" lon="-105.2305788">
  <ele>1600.02</ele>
  <time>2026-08-28T19:12:32Z</time>
  <course>49.63</course>
  <speed>1.42</speed>
  <fix>3d</fix>
</trkpt>
<trkpt lat="40.072843" lon="-105.230575">
  <ele>1600.14</ele>
  <time>2026-08-28T19:12:32Z</time>
  <course>51.43</course>
  <speed>0.982344135219425</speed>
  <fix>3d</fix>
</trkpt>
<trkpt lat="40.0728423" lon="-105.2305764">
  <ele>1600.02</ele>
  <time>2026-08-28T19:12:32Z</time>
  <course>50.49</course>
  <speed>1.22</speed>
  <fix>3d</fix>
</trkpt>
<trkpt lat="40.072844" lon="-105.2305734">
  <ele>1600.14</ele>
  <time>2026-08-28T19:12:32Z</time>
  <course>51.85</course>
  <speed>0.7080254232723568</speed>
  <fix>3d</fix>
</trkpt>
<trkpt lat="40.0728435" lon="-105.2305744">
  <ele>1600.01</ele>
  <time>2026-08-28T19:12:32Z</time>
  <course>51.65</course>
  <speed>0.97</speed>
  <fix>3d</fix>
</trkpt>
<trkpt lat="40.0728447" lon="-105.2305722">
  <ele>1600.13</ele>
  <time>2026-08-28T19:12:32Z</time>
  <course>51.75</course>
  <speed>0.41340053217188777</speed>
  <fix>3d</fix>
</trkpt>
<trkpt lat="40.0728444" lon="-105.2305729">
  <ele>1600.01</ele>
  <time>2026-08-28T19:12:32Z</time>
  <course>53.85</course>
  <speed>0.69</speed>
  <fix>3d</fix>
</trkpt>
<trkpt lat="40.0728449" lon="-105.2305716">
  <ele>1600.12</ele>
  <time>2026-08-28T19:12:32Z</time>
  <course>51.67</course>
  <speed>0.1414213562373095</speed>
  <fix>3d</fix>
</trkpt>
<trkpt lat="40.072845" lon="-105.2305719">
  <ele>1600.01</ele>
  <time>2026-08-28T19:12:32Z</time>
  <course>59.44</course>
  <speed>0.4</speed>
  <fix>3d</fix>
</trkpt>
<trkpt lat="40.0728449" lon="-105.2305714">
  <ele>1600.12</ele>
  <time>2026-08-28T19:12:32Z</time>
  <course>51.58</course>
  <speed>0.15524174696260024</speed>
  <fix>3d</fix>
</trkpt>
<trkpt lat="40.0728451" lon="-105.2305713">
  <ele>1600.0</ele>
  <time>2026-08-28T19:12:32Z</time>
  <course>89.72</course>
  <speed>0.13</speed>
  <fix>3d</fix>
</trkpt>
<trkpt lat="40.0728445" lon="-105.2305716">
  <ele>1600.11</ele>
  <time>2026-08-28T19:12:32Z</time>
  <course>51.47</course>
  <speed>0.34985711369071804</speed>
  <fix>3d</fix>
</trkpt>
<trkpt lat="40.072845" lon="-105.2305712">
  <ele>1599.99</ele>
  <time>2026-08-28T19:12:32Z</time>
  <course>195.54</course>
  <speed>0.18</speed>
  <fix>3d</fix>
</trkpt>
<trkpt lat="40.072844" lon="-105.230572">
  <ele>1600.1</ele>
  <time>2026-08-28T19:12:32Z</time>
  <course>51.37</course>
  <speed>0.4743416490252569</speed>
  <fix>3d</fix>
</trkpt>
<trkpt lat="40.0728447" lon="-105.2305715">
  <ele>1599.99</ele>
  <time>2026-08-28T19:12:32Z</time>
  <course>210.45</course>
  <speed>0.37</speed>
  <fix>3d</fix>
</trkpt>
<trkpt lat="40.0728433" lon="-105.2305727">
  <ele>1600.1</ele>
  <time>2026-08-28T19:12:32Z</time>
  <course>51.31</course>
  <speed>0.5300943312279428</speed>
  <fix>3d</fix>
</trkpt>
<trkpt lat="40.072844" lon="-105.230572">
  <ele>1599.99</ele>
  <time>2026-08-28T19:12:32Z</time>
  <course>213.98</course>
  <speed>0.5</speed>
  <fix>3d</fix>
</trkpt>
<trkpt lat="40.0728425" lon="-105.2305734">
  <ele>1600.1</ele>
  <time>2026-08-28T19:12:32Z</time>
  <course>51.28</course>
  <speed>0.5220153254455275</speed>
  <fix>3d</fix>
</trkpt>
<trkpt lat="40.0728431" lon="-105.2305727">
  <ele>1599.99</ele>
  <time>2026-08-28T19:12:32Z</time>
  <course>215.41</course>
  <speed>0.55</speed>
  <fix>3d</fix>
</trkpt>
<trkpt lat="40.0728418" lon="-105.2305741">
  <ele>1600.11</ele>
  <time>2026-08-28T19:12:32Z</time>
  <course>51.07</course>
  <speed>0.4661544808322666</speed>
  <fix>3d</fix>
</trkpt>
<trkpt lat="40.0728424" lon="-105.2305734">
  <ele>1599.99</ele>
  <time>2026-08-28T19:12:32Z</time>
  <course>216.31</course>
  <speed>0.54</speed>
  <fix>3d</fix>
</trkpt>
<trkpt lat="40.0728411" lon="-105.2305746">
  <ele>1600.11</ele>
  <time>2026-08-28T19:12:33Z</time>
  <course>41.87</course>
  <speed>0.3944616584663204</speed>
  <fix>3d</fix>
</trkpt>
<trkpt lat="40.0728416" lon="-105.2305741">
  <ele>1599.99</ele>
  <time>2026-08-28T19:12:33Z</time>
  <course>214.59</course>
  <speed>0.49</speed>
  <fix>3d</fix>
</trkpt>
<trkpt lat="40.0728405" lon="-105.2305751">
  <ele>1600.11</ele>
  <time>2026-08-28T19:12:33Z</time>
  <course>27.36</course>
  <speed>0.32449961479175904</speed>
  <fix>3d</fix>
</trkpt>
<trkpt lat="40.0728409" lon="-105.2305747">
  <ele>1600.0</ele>
  <time>2026-08-28T19:12:33Z</time>
  <course>212.49</course>
  <speed>0.41</speed>
  <fix>3d</fix>
</trkpt>
<trkpt lat="40.0728401" lon="-105.2305756">
  <ele>1600.11</ele>
  <time>2026-08-28T19:12:33Z</time>
  <course>18.17</course>
  <speed>0.29832867780352595</speed>
  <fix>3d</fix>
</trkpt>
<trkpt lat="40.0728403" lon="-105.2305752">
  <ele>1600.0</ele>
  <time>2026-08-28T19:12:33Z</time>
  <course>217.48</course>
  <speed>0.34</speed>
  <fix>3d</fix>
</trkpt>
<trkpt lat="40.0728397" lon="-105.2305761">
  <ele>1600.11</ele>
  <time>2026-08-28T19:12:33Z</time>
  <course>19.42</course>
  <speed>0.25553864678361277</speed>
  <fix>3d</fix>
</trkpt>
<trkpt lat="40.0728399" lon="-105.2305758">
  <ele>1600.0</ele>
  <time>2026-08-28T19:12:33Z</time>
  <course>229.79</course>
  <speed>0.3</speed>
  <fix>3d</fix>
</trkpt>
<trkpt lat="40.0728395" lon="-105.2305766">
  <ele>1600.12</ele>
  <time>2026-08-28T19:12:33Z</time>
  <course>20.54</course>
  <speed>0.19235384061671343</speed>
  <fix>3d</fix>
</trkpt>
<trkpt lat="40.0728396" lon="-105.2305763">
  <ele>1600.01</ele>
  <time>2026-08-28T19:12:33Z</time>
  <course>239.43</course>
  <speed>0.27</speed>
  <fix>3d</fix>
</trkpt>
<trkpt lat="40.0728394" lon="-105.230577">
  <ele>1600.12</ele>
  <time>2026-08-28T19:12:33Z</time>
  <course>20.67</course>
  <speed>0.1264911064067352</speed>
  <fix>3d</fix>
</trkpt>
<trkpt lat="40.0728394" lon="-105.2305768">
  <ele>1600.01</ele>
  <time>2026-08-28T19:12:33Z</time>
  <course>245.43</course>
  <speed>0.2</speed>
  <fix>3d</fix>
</trkpt>
<trkpt lat="40.0728393" lon="-105.2305772">
  <ele>1600.12</ele>
  <time>2026-08-28T19:12:33Z</time>
  <course>20.62</course>
  <speed>0.07071067811865475</speed>
  <fix>3d</fix>
</trkpt>
<trkpt lat="40.0728393" lon="-105.2305772">
  <ele>1600.01</ele>
  <time>2026-08-28T19:12:33Z</time>
  <course>258.39</course>
  <speed>0.13</speed>
  <fix>3d</fix>
</trkpt>
<trkpt lat="40.0728393" lon="-105.2305774">
  <ele>1600.12</ele>
  <time>2026-08-28T19:12:33Z</time>
  <course>20.6</course>
  <speed>0.0670820393249937</speed>
  <fix>3d</fix>
</trkpt>
<trkpt lat="40.0728393" lon="-105.2305775">
  <ele>1600.01</ele>
  <time>2026-08-28T19:12:33Z</time>
  <course>291.19</course>
  <speed>0.09</speed>
  <fix>3d</fix>
</trkpt>
<trkpt lat="40.0728395" lon="-105.2305775">
  <ele>1600.12</ele>
  <time>2026-08-28T19:12:33Z</time>
  <course>20.61</course>
  <speed>0.11</speed>
  <fix>3d</fix>
</trkpt>
<trkpt lat="40.0728394" lon="-105.2305776">
  <ele>1600.01</ele>
  <time>2026-08-28T19:12:33Z</time>
  <course>333.21</course>
  <speed>0.1</speed>
  <fix>3d</fix>
</trkpt>
<trkpt lat="40.0728397" lon="-105.2305775">
  <ele>1600.12</ele>
  <time>2026-08-28T19:12:33Z</time>
  <course>20.62</course>
  <speed>0.1414213562373095</speed>
  <fix>3d</fix>
</trkpt>
<trkpt lat="40.0728395" lon="-105.2305777">
  <ele>1600.01</ele>
  <time>2026-08-28T19:12:33Z</time>
  <course>355.08</course>
  <speed>0.14</speed>
  <fix>3d</fix>
</trkpt>
<trkpt lat="40.07284" lon="-105.2305774">
  <ele>1600.11</ele>
  <time>2026-08-28T19:12:33Z</time>
  <course>20.63</course>
  <speed>0.1772004514666935</speed>
  <fix>3d</fix>
</trkpt>
<trkpt lat="40.0728398" lon="-105.2305777">
  <ele>1600.01</ele>
  <time>2026-08-28T19:12:33Z</time>
  <course>5.62</course>
  <speed>0.18</speed>
  <fix>3d</fix>
</trkpt>
<trkpt lat="40.0728404" lon="-105.2305774">
  <ele>1600.1</ele>
  <time>2026-08-28T19:12:33Z</time>
  <course>20.63</course>
  <speed>0.20248456731316586</speed>
  <fix>3d</fix>
</trkpt>
<trkpt lat="40.0728402" lon="-105.2305777">
  <ele>1600.02</ele>
  <time>2026-08-28T19:12:33Z</time>
  <course>12.02</course>
  <speed>0.21</speed>
  <fix>3d</fix>
</trkpt>
<trkpt lat="40.0728408" lon="-105.2305773">
  <ele>1600.1</ele>
  <time>2026-08-28T19:12:33Z</time>
  <course>20.64</course>
  <speed>0.2193171219946131</speed>
  <fix>3d</fix>
</trkpt>
<trkpt lat="40.0728406" lon="-105.2305776">
  <ele>1600.02</ele>
  <time>2026-08-28T19:12:33Z</time>
  <course>16.46</course>
  <speed>0.24</speed>
  <fix>3d</fix>
</trkpt>
<trkpt lat="40.0728412" lon="-105.2305771">
  <ele>1600.1</ele>
  <time>2026-08-28T19:12:33Z</time>
  <course>20.66</course>
  <speed>0.223606797749979</speed>
  <fix>3d</fix>
</trkpt>
<trkpt lat="40.072841" lon="-105.2305773">
  <ele>1600.02</ele>
  <time>2026-08-28T19:12:33Z</time>
  <course>19.87</course>
  <speed>0.25</speed>
  <fix>3d</fix>
</trkpt>
<trkpt lat="40.0728416" lon="-105.2305768">
  <ele>1600.11</ele>
  <time>2026-08-28T19:12:33Z</time>
  <course>20.68</course>
  <speed>0.2195449840010015</speed>
  <fix>3d</fix>
</trkpt>
<trkpt lat="40.0728414" lon="-105.2305772">
  <ele>1600.02</ele>
  <time>2026-08-28T19:12:33Z</time>
  <course>22.81</course>
  <speed>0.26</speed>
  <fix>3d</fix>
</trkpt>
<trkpt lat="40.072842" lon="-105.2305766">
  <ele>1600.11</ele>
  <time>2026-08-28T19:12:33Z</time>
  <course>20.69</course>
  <speed>0.21633307652783937</speed>
  <fix>3d</fix>
</trkpt>
<trkpt lat="40.0728419" lon="-105.2305769">
  <ele>1600.03</ele>
  <time>2026-08-28T19:12:33Z</time>
  <course>25.47</course>
  <speed>0.26</speed>
  <fix>3d</fix>
</trkpt>
<trkpt lat="40.0728424" lon="-105.2305763">
  <ele>1600.12</ele>
  <time>2026-08-28T19:12:33Z</time>
  <course>20.71</course>
  <speed>0.2</speed>
  <fix>3d</fix>
</trkpt>
<trkpt lat="40.0728423" lon="-105.2305766">
  <ele>1600.03</ele>
  <time>2026-08-28T19:12:33Z</time>
  <course>28.06</course>
  <speed>0.25</speed>
  <fix>3d</fix>
</trkpt>
<trkpt lat="40.0728427" lon="-105.2305761">
  <ele>1600.13</ele>
  <time>2026-08-28T19:12:33Z</time>
  <course>20.73</course>
  <speed>0.1769180601295413</speed>
  <fix>3d</fix>
</trkpt>
<trkpt lat="40.0728426" lon="-105.2305763">
  <ele>1600.04</ele>
  <time>2026-08-28T19:12:33Z</time>
  <course>30.8</course>
  <speed>0.23</speed>
  <fix>3d</fix>
</trkpt>
<trkpt lat="40.072843" lon="-105.2305758">
  <ele>1600.13</ele>
  <time>2026-08-28T19:12:33Z</time>
  <course>20.75</course>
  <speed>0.14866068747318506</speed>
  <fix>3d</fix>
</trkpt>
<trkpt lat="40.072843" lon="-105.2305761">
  <ele>1600.04</ele>
  <time>2026-08-28T19:12:33Z</time>
  <course>33.88</course>
  <speed>0.21</speed>
  <fix>3d</fix>
</trkpt>
<trkpt lat="40.0728432" lon="-105.2305756">
  <ele>1600.13</ele>
  <time>2026-08-28T19:12:33Z</time>
  <course>20.76</course>
  <speed>0.12206555615733702</speed>
  <fix>3d</fix>
</trkpt>
<trkpt lat="40.0728433" lon="-105.2305758">
  <ele>1600.04</ele>
  <time>2026-08-28T19:12:33Z</time>
  <course>37.58</course>
  <speed>0.18</speed>
  <fix>3d</fix>
</trkpt>
<trkpt lat="40.0728434" lon="-105.2305753">
  <ele>1600.13</ele>
  <time>2026-08-28T19:12:33Z</time>
  <course>20.77</course>
  <speed>0.09848857801796104</speed>
  <fix>3d</fix>
</trkpt>
<trkpt lat="40.0728436" lon="-105.2305756">
  <ele>1600.05</ele>
  <time>2026-08-28T19:12:33Z</time>
  <course>42.34</course>
  <speed>0.15</speed>
  <fix>3d</fix>
</trkpt>
<trkpt lat="40.0728435" lon="-105.2305751">
  <ele>1600.13</ele>
  <time>2026-08-28T19:12:33Z</time>
  <course>20.75</course>
  <speed>0.08062257748298549</speed>
  <fix>3d</fix>
</trkpt>
<trkpt lat="40.0728437" lon="-105.2305753">
  <ele>1600.05</ele>
  <time>2026-08-28T19:12:33Z</time>
  <course>48.99</course>
  <speed>0.12</speed>
  <fix>3d</fix>
</trkpt>
<trkpt lat="40.0728436" lon="-105.2305749">
  <ele>1600.13</ele>
  <time>2026-08-28T19:12:33Z</time>
  <course>20.76</course>
  <speed>0.07071067811865475</speed>
  <fix>3d</fix>
</trkpt>
<trkpt lat="40.0728438" lon="-105.2305751">
  <ele>1600.05</ele>
  <time>2026-08-28T19:12:33Z</time>
  <course>58.73</course>
  <speed>0.09</speed>
  <fix>3d</fix>
</trkpt>
<trkpt lat="40.0728436" lon="-105.2305748">
  <ele>1600.12</ele>
  <time>2026-08-28T19:12:33Z</time>
  <course>20.77</course>
  <speed>0.06403124237432849</speed>
  <fix>3d</fix>
</trkpt>
<trkpt lat="40.0728439" lon="-105.2305749">
  <ele>1600.05</ele>
  <time>2026-08-28T19:12:33Z</time>
  <course>73.84</course>
  <speed>0.07</speed>
  <fix>3d</fix>
</trkpt>
<trkpt lat="40.0728436" lon="-105.2305747">
  <ele>1600.12</ele>
  <time>2026-08-28T19:12:33Z</time>
  <course>20.75</course>
  <speed>0.07211102550927978</speed>
  <fix>3d</fix>
</trkpt>
<trkpt lat="40.0728439" lon="-105.2305748">
  <ele>1600.05</ele>
  <time>2026-08-28T19:12:33Z</time>
  <course>97.3</course>
  <speed>0.05</speed>
  <fix>3d</fix>
</trkpt>
<trkpt lat="40.0728436" lon="-105.2305746">
  <ele>1600.12</ele>
  <time>2026-08-28T19:12:33Z</time>
  <course>20.81</course>
  <speed>0.0854400374531753</speed>
  <fix>3d</fix>
</trkpt>
<trkpt lat="40.0728439" lon="-105.2305746">
  <ele>1600.05</ele>
  <time>2026-08-28T19:12:33Z</time>
  <course>126.15</course>
  <speed>0.05</speed>
  <fix>3d</fix>
</trkpt>
<trkpt lat="40.0728435" lon="-105.2305745">
  <ele>1600.1</ele>
  <time>2026-08-28T19:12:33Z</time>
  <course>21.14</course>
  <speed>0.09055385138137417</speed>
  <fix>3d</fix>
</trkpt>
<trkpt lat="40.0728439" lon="-105.2305746">
  <ele>1600.04</ele>
  <time>2026-08-28T19:12:33Z</time>
  <course>150.53</course>
  <speed>0.06</speed>
  <fix>3d</fix>
</trkpt>
<trkpt lat="40.0728434" lon="-105.2305745">
  <ele>1600.04</ele>
  <time>2026-08-28T19:12:33Z</time>
  <course>21.45</course>
  <speed>0.1</speed>
  <fix>3d</fix>
</trkpt>
<trkpt lat="40.0728438" lon="-105.2305745">
  <ele>1600.01</ele>
  <time>2026-08-28T19:12:33Z</time>
  <course>166.24</course>
  <speed>0.07</speed>
  <fix>3d</fix>
</trkpt>
<trkpt lat="40.0728433" lon="-105.2305745">
  <ele>1599.94</ele>
  <time>2026-08-28T19:12:33Z</time>
  <course>21.66</course>
  <speed>0.11</speed>
  <fix>3d</fix>
</trkpt>
<trkpt lat="40.0728437" lon="-105.2305744">
  <ele>1599.95</ele>
  <time>2026-08-28T19:12:33Z</time>
  <course>174.9</course>
  <speed>0.08</speed>
  <fix>3d</fix>
</trkpt>
<trkpt lat="40.0728431" lon="-105.2305745">
  <ele>1599.79</ele>
  <time>2026-08-28T19:12:33Z</time>
  <course>21.8</course>
  <speed>0.12</speed>
  <fix>3d</fix>
</trkpt>
<trkpt lat="40.0728435" lon="-105.2305744">
  <ele>1599.84</ele>
  <time>2026-08-28T19:12:33Z</time>
  <course>179.7</course>
  <speed>0.09</speed>
  <fix>3d</fix>
</trkpt>
<trkpt lat="40.072843" lon="-105.2305745">
  <ele>1599.59</ele>
  <time>2026-08-28T19:12:33Z</time>
  <course>21.9</course>
  <speed>0.12</speed>
  <fix>3d</fix>
</trkpt>
<trkpt lat="40.0728433" lon="-105.2305744">
  <ele>1599.69</ele>
  <time>2026-08-28T19:12:33Z</time>
  <course>182.31</course>
  <speed>0.09</speed>
  <fix>3d</fix>
</trkpt>
<trkpt lat="40.0728428" lon="-105.2305745">
  <ele>1599.35</ele>
  <time>2026-08-28T19:12:33Z</time>
  <course>21.96</course>
  <speed>0.12</speed>
  <fix>3d</fix>
</trkpt>
<trkpt lat="40.0728431" lon="-105.2305744">
  <ele>1599.49</ele>
  <time>2026-08-28T19:12:33Z</time>
  <course>183.62</course>
  <speed>0.1</speed>
  <fix>3d</fix>
</trkpt>
<trkpt lat="40.0728426" lon="-105.2305745">
  <ele>1599.07</ele>
  <time>2026-08-28T19:12:33Z</time>
  <course>21.95</course>
  <speed>0.12</speed>
  <fix>3d</fix>
</trkpt>
<trkpt lat="40.072843" lon="-105.2305744">
  <ele>1599.24</ele>
  <time>2026-08-28T19:12:33Z</time>
  <course>184.04</course>
  <speed>0.1</speed>
  <fix>3d</fix>
</trkpt>
<trkpt lat="40.0728425" lon="-105.2305745">
  <ele>1598.75</ele>
  <time>2026-08-28T19:12:33Z</time>
  <course>21.76</course>
  <speed>0.12</speed>
  <fix>3d</fix>
</trkpt>
<trkpt lat="40.0728427" lon="-105.2305744">
  <ele>1598.96</ele>
  <time>2026-08-28T19:12:33Z</time>
  <course>183.47</course>
  <speed>0.1</speed>
  <fix>3d</fix>
</trkpt>
<trkpt lat="40.0728423" lon="-105.2305745">
  <ele>1598.42</ele>
  <time>2026-08-28T19:12:33Z</time>
  <course>21.51</course>
  <speed>0.11</speed>
  <fix>3d</fix>
</trkpt>
<trkpt lat="40.0728426" lon="-105.2305744">
  <ele>1598.65</ele>
  <time>2026-08-28T19:12:33Z</time>
  <course>182.5</course>
  <speed>0.1</speed>
  <fix>3d</fix>
</trkpt>
<trkpt lat="40.0728421" lon="-105.2305745">
  <ele>1598.09</ele>
  <time>2026-08-28T19:12:33Z</time>
  <course>21.29</course>
  <speed>0.1</speed>
  <fix>3d</fix>
</trkpt>
<trkpt lat="40.0728424" lon="-105.2305744">
  <ele>1598.32</ele>
  <time>2026-08-28T19:12:33Z</time>
  <course>182.19</course>
  <speed>0.09</speed>
  <fix>3d</fix>
</trkpt>
<trkpt lat="40.072842" lon="-105.2305745">
  <ele>1597.76</ele>
  <time>2026-08-28T19:12:33Z</time>
  <course>21.13</course>
  <speed>0.09</speed>
  <fix>3d</fix>
</trkpt>
<trkpt lat="40.0728423" lon="-105.2305744">
  <ele>1598.0</ele>
  <time>2026-08-28T19:12:33Z</time>
  <course>183.03</course>
  <speed>0.08</speed>
  <fix>3d</fix>
</trkpt>
<trkpt lat="40.0728419" lon="-105.2305745">
  <ele>1597.44</ele>
  <time>2026-08-28T19:12:33Z</time>
  <course>20.99</course>
  <speed>0.07</speed>
  <fix>3d</fix>
</trkpt>
<trkpt lat="40.0728421" lon="-105.2305744">
  <ele>1597.67</ele>
  <time>2026-08-28T19:12:33Z</time>
  <course>185.49</course>
  <speed>0.07</speed>
  <fix>3d</fix>
</trkpt>
<trkpt lat="40.0728418" lon="-105.2305745">
  <ele>1597.14</ele>
  <time>2026-08-28T19:12:33Z</time>
  <course>20.67</course>
  <speed>0.06</speed>
  <fix>3d</fix>
</trkpt>
<trkpt lat="40.072842" lon="-105.2305744">
  <ele>1597.36</ele>
  <time>2026-08-28T19:12:33Z</time>
  <course>189.69</course>
  <speed>0.05</speed>
  <fix>3d</fix>
</trkpt>
<trkpt lat="40.0728417" lon="-105.2305745">
  <ele>1596.88</ele>
  <time>2026-08-28T19:12:33Z</time>
  <course>20.29</course>
  <speed>0.05</speed>
  <fix>3d</fix>
</trkpt>
<trkpt lat="40.0728419" lon="-105.2305745">
  <ele>1597.07</ele>
  <time>2026-08-28T19:12:33Z</time>
  <course>198.17</course>
  <speed>0.04</speed>
  <fix>3d</fix>
</trkpt>
<trkpt lat="40.0728417" lon="-105.2305745">
  <ele>1596.67</ele>
  <time>2026-08-28T19:12:33Z</time>
  <course>20.01</course>
  <speed>0.0316227766016838</speed>
  <fix>3d</fix>
</trkpt>
<trkpt lat="40.0728419" lon="-105.2305746">
  <ele>1596.81</ele>
  <time>2026-08-28T19:12:33Z</time>
  <course>217.97</course>
  <speed>0.03</speed>
  <fix>3d</fix>
</trkpt>
<trkpt lat="40.0728417" lon="-105.2305745">
  <ele>1596.5</ele>
  <time>2026-08-28T19:12:33Z</time>
  <course>19.81</course>
  <speed>0.0282842712474619</speed>
  <fix>3d</fix>
</trkpt>
<trkpt lat="40.0728418" lon="-105.2305746">
  <ele>1596.6</ele>
  <time>2026-08-28T19:12:33Z</time>
  <course>249.24</course>
  <speed>0.03</speed>
  <fix>3d</fix>
</trkpt>
<trkpt lat="40.0728417" lon="-105.2305746">
  <ele>1596.37</ele>
  <time>2026-08-28T19:12:33Z</time>
  <course>19.75</course>
  <speed>0.03</speed>
  <fix>3d</fix>
</trkpt>
<trkpt lat="40.0728418" lon="-105.2305747">
  <ele>1596.44</ele>
  <time>2026-08-28T19:12:33Z</time>
  <course>274.21</course>
  <speed>0.04</speed>
  <fix>3d</fix>
</trkpt>
<trkpt lat="40.0728417" lon="-105.2305748">
  <ele>1596.27</ele>
  <time>2026-08-28T19:12:33Z</time>
  <course>19.89</course>
  <speed>0.04</speed>
  <fix>3d</fix>
</trkpt>
<trkpt lat="40.0728418" lon="-105.2305748">
  <ele>1596.32</ele>
  <time>2026-08-28T19:12:33Z</time>
  <course>287.59</course>
  <speed>0.05</speed>
  <fix>3d</fix>
</trkpt>
<trkpt lat="40.0728417" lon="-105.2305749">
  <ele>1596.19</ele>
  <time>2026-08-28T19:12:33Z</time>
  <course>20.09</course>
  <speed>0.0412310562561766</speed>
  <fix>3d</fix>
</trkpt>
<trkpt lat="40.0728419" lon="-105.2305749">
  <ele>1596.23</ele>
  <time>2026-08-28T19:12:33Z</time>
  <course>295.08</course>
  <speed>0.06</speed>
  <fix>3d</fix>
</trkpt>
<trkpt lat="40.0728418" lon="-105.230575">
  <ele>1596.12</ele>
  <time>2026-08-28T19:12:33Z</time>
  <course>20.26</course>
  <speed>0.044721359549995794</speed>
  <fix>3d</fix>
</trkpt>
<trkpt lat="40.0728419" lon="-105.2305751">
  <ele>1596.14</ele>
  <time>2026-08-28T19:12:33Z</time>
  <course>300.46</course>
  <speed>0.07</speed>
  <fix>3d</fix>
</trkpt>
<trkpt lat="40.0728419" lon="-105.2305752">
  <ele>1596.04</ele>
  <time>2026-08-28T19:12:33Z</time>
  <course>20.39</course>
  <speed>0.044721359549995794</speed>
  <fix>3d</fix>
</trkpt>
<trkpt lat="40.0728419" lon="-105.2305752">
  <ele>1596.07</ele>
  <time>2026-08-28T19:12:33Z</time>
  <course>305.09</course>
  <speed>0.07</speed>
  <fix>3d</fix>
</trkpt>
<trkpt lat="40.0728419" lon="-105.2305753">
  <ele>1595.96</ele>
  <time>2026-08-28T19:12:33Z</time>
  <course>20.49</course>
  <speed>0.05</speed>
  <fix>3d</fix>
</trkpt>
<trkpt lat="40.072842" lon="-105.2305753">
  <ele>1596.0</ele>
  <time>2026-08-28T19:12:33Z</time>
  <course>309.42</course>
  <speed>0.08</speed>
  <fix>3d</fix>
</trkpt>
<trkpt lat="40.072842" lon="-105.2305754">
  <ele>1595.88</ele>
  <time>2026-08-28T19:12:33Z</time>
  <course>20.56</course>
  <speed>0.04242640687119285</speed>
  <fix>3d</fix>
</trkpt>
<trkpt lat="40.0728421" lon="-105.2305755">
  <ele>1595.91</ele>
  <time>2026-08-28T19:12:33Z</time>
  <course>313.62</course>
  <speed>0.08</speed>
  <fix>3d</fix>
</trkpt>
<trkpt lat="40.0728421" lon="-105.2305755">
  <ele>1595.79</ele>
  <time>2026-08-28T19:12:33Z</time>
  <course>20.62</course>
  <speed>0.03605551275463989</speed>
  <fix>3d</fix>
</trkpt>
<trkpt lat="40.0728422" lon="-105.2305757">
  <ele>1595.83</ele>
  <time>2026-08-28T19:12:33Z</time>
  <course>317.99</course>
  <speed>0.07</speed>
  <fix>3d</fix>
</trkpt>
<trkpt lat="40.0728422" lon="-105.2305756">
  <ele>1595.69</ele>
  <time>2026-08-28T19:12:33Z</time>
  <course>20.65</course>
  <speed>0.03605551275463989</speed>
  <fix>3d</fix>
</trkpt>
<trkpt lat="40.0728423" lon="-105.2305758">
  <ele>1595.74</ele>
  <time>2026-08-28T19:12:33Z</time>
  <course>322.69</course>
  <speed>0.07</speed>
  <fix>3d</fix>
</trkpt>
<trkpt lat="40.0728423" lon="-105.2305757">
  <ele>1595.6</ele>
  <time>2026-08-28T19:12:33Z</time>
  <course>20.65</course>
  <speed>0.022360679774997897</speed>
  <fix>3d</fix>
</trkpt>
<trkpt lat="40.0728424" lon="-105.2305758">
  <ele>1595.64</ele>
  <time>2026-08-28T19:12:33Z</time>
  <course>327.74</course>
  <speed>0.06</speed>
  <fix>3d</fix>
</trkpt>
<trkpt lat="40.0728424" lon="-105.2305758">
  <ele>1595.5</ele>
  <time>2026-08-28T19:12:33Z</time>
  <course>20.66</course>
  <speed>0.02</speed>
  <fix>3d</fix>
</trkpt>
<trkpt lat="40.0728425" lon="-105.2305759">
  <ele>1595.55</ele>
  <time>2026-08-28T19:12:33Z</time>
  <course>333.51</course>
  <speed>0.05</speed>
  <fix>3d</fix>
</trkpt>
<trkpt lat="40.0728425" lon="-105.2305758">
  <ele>1595.41</ele>
  <time>2026-08-28T19:12:33Z</time>
  <course>20.67</course>
  <speed>0.01</speed>
  <fix>3d</fix>
</trkpt>
<trkpt lat="40.0728426" lon="-105.230576">
  <ele>1595.46</ele>
  <time>2026-08-28T19:12:33Z</time>
  <course>340.09</course>
  <speed>0.05</speed>
  <fix>3d</fix>
</trkpt>
<trkpt lat="40.0728425" lon="-105.2305758">
  <ele>1595.31</ele>
  <time>2026-08-28T19:12:33Z</time>
  <course>20.69</course>
  <speed>0.01414213562373095</speed>
  <fix>3d</fix>
</trkpt>
<trkpt lat="40.0728426" lon="-105.230576">
  <ele>1595.36</ele>
  <time>2026-08-28T19:12:33Z</time>
  <course>347.77</course>
  <speed>0.04</speed>
  <fix>3d</fix>
</trkpt>
<trkpt lat="40.0728426" lon="-105.2305758">
  <ele>1595.21</ele>
  <time>2026-08-28T19:12:33Z</time>
  <course>20.71</course>
  <speed>0.01</speed>
  <fix>3d</fix>
</trkpt>
<trkpt lat="40.0728427" lon="-105.230576">
  <ele>1595.26</ele>
  <time>2026-08-28T19:12:33Z</time>
  <course>357.99</course>
  <speed>0.03</speed>
  <fix>3d</fix>
</trkpt>
<trkpt lat="40.0728426" lon="-105.2305758">
  <ele>1595.11</ele>
  <time>2026-08-28T19:12:33Z</time>
  <course>20.71</course>
  <speed>0.02</speed>
  <fix>3d</fix>
</trkpt>
<trkpt lat="40.0728427" lon="-105.230576">
  <ele>1595.15</ele>
  <time>2026-08-28T19:12:33Z</time>
  <course>11.85</course>
  <speed>0.02</speed>
  <fix>3d</fix>
</trkpt>
<trkpt lat="40.0728426" lon="-105.2305758">
  <ele>1595.01</ele>
  <time>2026-08-28T19:12:33Z</time>
  <course>20.7</course>
  <speed>0.022360679774997897</speed>
  <fix>3d</fix>
</trkpt>
<trkpt lat="40.0728428" lon="-105.230576">
  <ele>1595.05</ele>
  <time>2026-08-28T19:12:33Z</time>
  <course>29.46</course>
  <speed>0.02</speed>
  <fix>3d</fix>
</trkpt>
<trkpt lat="40.0728427" lon="-105.2305758">
  <ele>1594.91</ele>
  <time>2026-08-28T19:12:33Z</time>
  <course>20.7</course>
  <speed>0.0316227766016838</speed>
  <fix>3d</fix>
</trkpt>
<trkpt lat="40.0728429" lon="-105.230576">
  <ele>1594.95</ele>
  <time>2026-08-28T19:12:33Z</time>
  <course>49.62</course>
  <speed>0.02</speed>
  <fix>3d</fix>
</trkpt>
<trkpt lat="40.0728427" lon="-105.2305758">
  <ele>1594.81</ele>
  <time>2026-08-28T19:12:33Z</time>
  <course>20.7</course>
  <speed>0.03605551275463989</speed>
  <fix>3d</fix>
</trkpt>
<trkpt lat="40.0728429" lon="-105.230576">
  <ele>1594.85</ele>
  <time>2026-08-28T19:12:33Z</time>
  <course>68.99</course>
  <speed>0.02</speed>
  <fix>3d</fix>
</trkpt>
<trkpt lat="40.0728427" lon="-105.2305758">
  <ele>1594.71</ele>
  <time>2026-08-28T19:12:33Z</time>
  <course>20.7</course>
  <speed>0.03605551275463989</speed>
  <fix>3d</fix>
</trkpt>
<trkpt lat="40.0728429" lon="-105.230576">
  <ele>1594.75</ele>
  <time>2026-08-28T19:12:33Z</time>
  <course>84.95</course>
  <speed>0.02</speed>
  <fix>3d</fix>
</trkpt>
<trkpt lat="40.0728427" lon="-105.2305757">
  <ele>1594.61</ele>
  <time>2026-08-28T19:12:33Z</time>
  <course>20.7</course>
  <speed>0.04242640687119285</speed>
  <fix>3d</fix>
</trkpt>
<trkpt lat="40.0728429" lon="-105.2305759">
  <ele>1594.64</ele>
  <time>2026-08-28T19:12:33Z</time>
  <course>98.42</course>
  <speed>0.02</speed>
  <fix>3d</fix>
</trkpt>
<trkpt lat="40.0728427" lon="-105.2305757">
  <ele>1594.51</ele>
  <time>2026-08-28T19:12:33Z</time>
  <course>20.71</course>
  <speed>0.04242640687119285</speed>
  <fix>3d</fix>
</trkpt>
<trkpt lat="40.0728429" lon="-105.2305758">
  <ele>1594.54</ele>
  <time>2026-08-28T19:12:33Z</time>
  <course>108.96</course>
  <speed>0.02</speed>
  <fix>3d</fix>
</trkpt>
<trkpt lat="40.0728427" lon="-105.2305756">
  <ele>1594.41</ele>
  <time>2026-08-28T19:12:33Z</time>
  <course>20.71</course>
  <speed>0.04242640687119285</speed>
  <fix>3d</fix>
</trkpt>
<trkpt lat="40.0728429" lon="-105.2305758">
  <ele>1594.44</ele>
  <time>2026-08-28T19:12:33Z</time>
  <course>116.68</course>
  <speed>0.03</speed>
  <fix>3d</fix>
</trkpt>
<trkpt lat="40.0728427" lon="-105.2305756">
  <ele>1594.31</ele>
  <time>2026-08-28T19:12:33Z</time>
  <course>20.71</course>
  <speed>0.05</speed>
  <fix>3d</fix>
</trkpt>
<trkpt lat="40.0728429" lon="-105.2305757">
  <ele>1594.34</ele>
  <time>2026-08-28T19:12:33Z</time>
  <course>122.69</course>
  <speed>0.03</speed>
  <fix>3d</fix>
</trkpt>
<trkpt lat="40.0728427" lon="-105.2305755">
  <ele>1594.2</ele>
  <time>2026-08-28T19:12:33Z</time>
  <course>20.71</course>
  <speed>0.05</speed>
  <fix>3d</fix>
</trkpt>
<trkpt lat="40.0728429" lon="-105.2305756">
  <ele>1594.24</ele>
  <time>2026-08-28T19:12:33Z</time>
  <course>127.42</course>
  <speed>0.03</speed>
  <fix>3d</fix>
</trkpt>
<trkpt lat="40.0728426" lon="-105.2305754">
  <ele>1594.1</ele>
  <time>2026-08-28T19:12:33Z</time>
  <course>20.71</course>
  <speed>0.05</speed>
  <fix>3d</fix>
</trkpt>
<trkpt lat="40.0728429" lon="-105.2305756">
  <ele>1594.13</ele>
  <time>2026-08-28T19:12:33Z</time>
  <course>131.61</course>
  <speed>0.03</speed>
  <fix>3d</fix>
</trkpt>
<trkpt lat="40.0728426" lon="-105.2305754">
  <ele>1594.0</ele>
  <time>2026-08-28T19:12:33Z</time>
  <course>20.71</course>
  <speed>0.05</speed>
  <fix>3d</fix>
</trkpt>
<trkpt lat="40.0728428" lon="-105.2305756">
  <ele>1594.03</ele>
  <time>2026-08-28T19:12:33Z</time>
  <course>135.89</course>
  <speed>0.03</speed>
  <fix>3d</fix>
</trkpt>
<trkpt lat="40.0728426" lon="-105.2305754">
  <ele>1593.9</ele>
  <time>2026-08-28T19:12:33Z</time>
  <course>20.71</course>
  <speed>0.044721359549995794</speed>
  <fix>3d</fix>
</trkpt>
<trkpt lat="40.0728427" lon="-105.2305755">
  <ele>1593.92</ele>
  <time>2026-08-28T19:12:33Z</time>
  <course>140.57</course>
  <speed>0.03</speed>
  <fix>3d</fix>
</trkpt>
<trkpt lat="40.0728425" lon="-105.2305753">
  <ele>1593.8</ele>
  <time>2026-08-28T19:12:33Z</time>
  <course>20.71</course>
  <speed>0.044721359549995794</speed>
  <fix>3d</fix>
</trkpt>
<trkpt lat="40.0728427" lon="-105.2305755">
  <ele>1593.83</ele>
  <time>2026-08-28T19:12:33Z</time>
  <course>145.16</course>
  <speed>0.03</speed>
  <fix>3d</fix>
</trkpt>
<trkpt lat="40.0728425" lon="-105.2305753">
  <ele>1593.7</ele>
  <time>2026-08-28T19:12:33Z</time>
  <course>20.71</course>
  <speed>0.044721359549995794</speed>
  <fix>3d</fix>
</trkpt>
<trkpt lat="40.0728426" lon="-105.2305754">
  <ele>1593.73</ele>
  <time>2026-08-28T19:12:33Z</time>
  <course>149.21</course>
  <speed>0.02</speed>
  <fix>3d</fix>
</trkpt>
<trkpt lat="40.0728425" lon="-105.2305753">
  <ele>1593.6</ele>
  <time>2026-08-28T19:12:33Z</time>
  <course>20.71</course>
  <speed>0.0412310562561766</speed>
  <fix>3d</fix>
</trkpt>
<trkpt lat="40.0728426" lon="-105.2305753">
  <ele>1593.63</ele>
  <time>2026-08-28T19:12:33Z</time>
  <course>152.91</course>
  <speed>0.02</speed>
  <fix>3d</fix>
</trkpt>
<trkpt lat="40.0728424" lon="-105.2305753">
  <ele>1593.5</ele>
  <time>2026-08-28T19:12:33Z</time>
  <course>20.71</course>
  <speed>0.0316227766016838</speed>
  <fix>3d</fix>
</trkpt>
<trkpt lat="40.0728426" lon="-105.2305753">
  <ele>1593.53</ele>
  <time>2026-08-28T19:12:33Z</time>
  <course>156.33</course>
  <speed>0.02</speed>
  <fix>3d</fix>
</trkpt>
<trkpt lat="40.0728424" lon="-105.2305752">
  <ele>1593.4</ele>
  <time>2026-08-28T19:12:33Z</time>
  <course>20.7</course>
  <speed>0.0316227766016838</speed>
  <fix>3d</fix>
</trkpt>
<trkpt lat="40.0728426" lon="-105.2305753">
  <ele>1593.42</ele>
  <time>2026-08-28T19:12:33Z</time>
  <course>159.97</course>
  <speed>0.02</speed>
  <fix>3d</fix>
</trkpt>
<trkpt lat="40.0728424" lon="-105.2305752">
  <ele>1593.29</ele>
  <time>2026-08-28T19:12:33Z</time>
  <course>20.7</course>
  <speed>0.0316227766016838</speed>
  <fix>3d</fix>
</trkpt>
<trkpt lat="40.0728425" lon="-105.2305753">
  <ele>1593.33</ele>
  <time>2026-08-28T19:12:33Z</time>
  <course>164.91</course>
  <speed>0.01</speed>
  <fix>3d</fix>
</trkpt>
<trkpt lat="40.0728424" lon="-105.2305752">
  <ele>1593.19</ele>
  <time>2026-08-28T19:12:33Z</time>
  <course>20.7</course>
  <speed>0.03</speed>
  <fix>3d</fix>
</trkpt>
<trkpt lat="40.0728425" lon="-105.2305753">
  <ele>1593.23</ele>
  <time>2026-08-28T19:12:33Z</time>
  <course>172.62</course>
  <speed>0.01</speed>
  <fix>3d</fix>
</trkpt>
<trkpt lat="40.0728423" lon="-105.2305752">
  <ele>1593.09</ele>
  <time>2026-08-28T19:12:33Z</time>
  <course>20.7</course>
  <speed>0.02</speed>
  <fix>3d</fix>
</trkpt>
<trkpt lat="40.0728425" lon="-105.2305753">
  <ele>1593.13</ele>
  <time>2026-08-28T19:12:33Z</time>
  <course>183.32</course>
  <speed>0.01</speed>
  <fix>3d</fix>
</trkpt>
<trkpt lat="40.0728423" lon="-105.2305752">
  <ele>1592.99</ele>
  <time>2026-08-28T19:12:33Z</time>
  <course>20.7</course>
  <speed>0.02</speed>
  <fix>3d</fix>
</trkpt>
<trkpt lat="40.0728425" lon="-105.2305753">
  <ele>1593.03</ele>
  <time>2026-08-28T19:12:33Z</time>
  <course>196.29</course>
  <speed>0.01</speed>
  <fix>3d</fix>
</trkpt>
<trkpt lat="40.0728423" lon="-105.2305752">
  <ele>1592.89</ele>
  <time>2026-08-28T19:12:33Z</time>
  <course>20.7</course>
  <speed>0.02</speed>
  <fix>3d</fix>
</trkpt>
<trkpt lat="40.0728424" lon="-105.2305753">
  <ele>1592.92</ele>
  <time>2026-08-28T19:12:33Z</time>
  <course>211.78</course>
  <speed>0.0</speed>
  <fix>3d</fix>
</trkpt>
<trkpt lat="40.0728423" lon="-105.2305752">
  <ele>1592.79</ele>
  <time>2026-08-28T19:12:33Z</time>
  <course>20.7</course>
  <speed>0.02</speed>
  <fix>3d</fix>
</trkpt>
<trkpt lat="40.0728424" lon="-105.2305753">
  <ele>1592.83</ele>
  <time>2026-08-28T19:12:33Z</time>
  <course>230.21</course>
  <speed>0.0</speed>
  <fix>3d</fix>
</trkpt>
<trkpt lat="40.0728423" lon="-105.2305752">
  <ele>1592.7</ele>
  <time>2026-08-28T19:12:33Z</time>
  <course>20.71</course>
  <speed>0.01</speed>
  <fix>3d</fix>
</trkpt>
<trkpt lat="40.0728424" lon="-105.2305753">
  <ele>1592.73</ele>
  <time>2026-08-28T19:12:33Z</time>
  <course>248.66</course>
  <speed>0.0</speed>
  <fix>3d</fix>
</trkpt>
<trkpt lat="40.0728423" lon="-105.2305752">
  <ele>1592.6</ele>
  <time>2026-08-28T19:12:33Z</time>
  <course>20.71</course>
  <speed>0.01</speed>
  <fix>3d</fix>
</trkpt>
<trkpt lat="40.0728424" lon="-105.2305753">
  <ele>1592.63</ele>
  <time>2026-08-28T19:12:33Z</time>
  <course>263.93</course>
  <speed>0.0</speed>
  <fix>3d</fix>
</trkpt>
<trkpt lat="40.0728423" lon="-105.2305752">
  <ele>1592.5</ele>
  <time>2026-08-28T19:12:33Z</time>
  <course>20.71</course>
  <speed>0.01</speed>
  <fix>3d</fix>
</trkpt>
<trkpt lat="40.0728424" lon="-105.2305753">
  <ele>1592.53</ele>
  <time>2026-08-28T19:12:33Z</time>
  <course>277.86</course>
  <speed>0.0</speed>
  <fix>3d</fix>
</trkpt>
<trkpt lat="40.0728423" lon="-105.2305752">
  <ele>1592.4</ele>
  <time>2026-08-28T19:12:33Z</time>
  <course>20.71</course>
  <speed>0.01</speed>
  <fix>3d</fix>
</trkpt>
<trkpt lat="40.0728424" lon="-105.2305753">
  <ele>1592.42</ele>
  <time>2026-08-28T19:12:33Z</time>
  <course>288.93</course>
  <speed>0.0</speed>
  <fix>3d</fix>
</trkpt>
<trkpt lat="40.0728423" lon="-105.2305752">
  <ele>1592.3</ele>
  <time>2026-08-28T19:12:33Z</time>
  <course>20.72</course>
  <speed>0.01</speed>
  <fix>3d</fix>
</trkpt>
<trkpt lat="40.0728424" lon="-105.2305753">
  <ele>1592.33</ele>
  <time>2026-08-28T19:12:33Z</time>
  <course>296.92</course>
  <speed>0.0</speed>
  <fix>3d</fix>
</trkpt>
<trkpt lat="40.0728423" lon="-105.2305752">
  <ele>1592.2</ele>
  <time>2026-08-28T19:12:33Z</time>
  <course>20.72</course>
  <speed>0.01</speed>
  <fix>3d</fix>
</trkpt>
<trkpt lat="40.0728424" lon="-105.2305753">
  <ele>1592.23</ele>
  <time>2026-08-28T19:12:33Z</time>
  <course>303.31</course>
  <speed>0.01</speed>
  <fix>3d</fix>
</trkpt>
<trkpt lat="40.0728423" lon="-105.2305752">
  <ele>1592.1</ele>
  <time>2026-08-28T19:12:33Z</time>
  <course>20.72</course>
  <speed>0.01</speed>
  <fix>3d</fix>
</trkpt>
<trkpt lat="40.0728424" lon="-105.2305753">
  <ele>1592.13</ele>
  <time>2026-08-28T19:12:33Z</time>
  <course>307.71</course>
  <speed>0.01</speed>
  <fix>3d</fix>
</trkpt>
<trkpt lat="40.0728423" lon="-105.2305752">
  <ele>1592.0</ele>
  <time>2026-08-28T19:12:33Z</time>
  <course>20.72</course>
  <speed>0.01</speed>
  <fix>3d</fix>
</trkpt>
<trkpt lat="40.0728424" lon="-105.2305753">
  <ele>1592.03</ele>
  <time>2026-08-28T19:12:33Z</time>
  <course>310.1</course>
  <speed>0.01</speed>
  <fix>3d</fix>
</trkpt>
<trkpt lat="40.0728423" lon="-105.2305753">
  <ele>1591.9</ele>
  <time>2026-08-28T19:12:33Z</time>
  <course>20.71</course>
  <speed>0.01</speed>
  <fix>3d</fix>
</trkpt>
<trkpt lat="40.0728424" lon="-105.2305754">
  <ele>1591.92</ele>
  <time>2026-08-28T19:12:33Z</time>
  <course>311.93</course>
  <speed>0.01</speed>
  <fix>3d</fix>
</trkpt>
<trkpt lat="40.0728423" lon="-105.2305753">
  <ele>1591.8</ele>
  <time>2026-08-28T19:12:33Z</time>
  <course>20.71</course>
  <speed>0.01</speed>
  <fix>3d</fix>
</trkpt>
<trkpt lat="40.0728424" lon="-105.2305755">
  <ele>1591.82</ele>
  <time>2026-08-28T19:12:33Z</time>
  <course>313.69</course>
  <speed>0.01</speed>
  <fix>3d</fix>
</trkpt>
<trkpt lat="40.0728423" lon="-105.2305753">
  <ele>1591.7</ele>
  <time>2026-08-28T19:12:33Z</time>
  <course>20.71</course>
  <speed>0.01</speed>
  <fix>3d</fix>
</trkpt>
<trkpt lat="40.0728424" lon="-105.2305755">
  <ele>1591.72</ele>
  <time>2026-08-28T19:12:33Z</time>
  <course>315.58</course>
  <speed>0.01</speed>
  <fix>3d</fix>
</trkpt>
<trkpt lat="40.0728423" lon="-105.2305753">
  <ele>1591.6</ele>
  <time>2026-08-28T19:12:33Z</time>
  <course>20.71</course>
  <speed>0.01</speed>
  <fix>3d</fix>
</trkpt>
<trkpt lat="40.0728424" lon="-105.2305755">
  <ele>1591.62</ele>
  <time>2026-08-28T19:12:33Z</time>
  <course>317.8</course>
  <speed>0.01</speed>
  <fix>3d</fix>
</trkpt>
<trkpt lat="40.0728423" lon="-105.2305753">
  <ele>1591.5</ele>
  <time>2026-08-28T19:12:33Z</time>
  <course>20.71</course>
  <speed>0.01</speed>
  <fix>3d</fix>
</trkpt>
<trkpt lat="40.0728424" lon="-105.2305755">
  <ele>1591.52</ele>
  <time>2026-08-28T19:12:33Z</time>
  <course>321.09</course>
  <speed>0.01</speed>
  <fix>3d</fix>
</trkpt>
<trkpt lat="40.0728423" lon="-105.2305753">
  <ele>1591.39</ele>
  <time>2026-08-28T19:12:33Z</time>
  <course>20.71</course>
  <speed>0.01</speed>
  <fix>3d</fix>
</trkpt>
<trkpt lat="40.0728425" lon="-105.2305755">
  <ele>1591.41</ele>
  <time>2026-08-28T19:12:33Z</time>
  <course>326.39</course>
  <speed>0.01</speed>
  <fix>3d</fix>
</trkpt>
<trkpt lat="40.0728423" lon="-105.2305753">
  <ele>1591.29</ele>
  <time>2026-08-28T19:12:33Z</time>
  <course>20.71</course>
  <speed>0.01414213562373095</speed>
  <fix>3d</fix>
</trkpt>
<trkpt lat="40.0728425" lon="-105.2305755">
  <ele>1591.32</ele>
  <time>2026-08-28T19:12:33Z</time>
  <course>332.6</course>
  <speed>0.01</speed>
  <fix>3d</fix>
</trkpt>
<trkpt lat="40.0728423" lon="-105.2305754">
  <ele>1591.19</ele>
  <time>2026-08-28T19:12:33Z</time>
  <course>20.7</course>
  <speed>0.01414213562373095</speed>
  <fix>3d</fix>
</trkpt>
<trkpt lat="40.0728425" lon="-105.2305756">
  <ele>1591.22</ele>
  <time>2026-08-28T19:12:33Z</time>
  <course>338.63</course>
  <speed>0.01</speed>
  <fix>3d</fix>
</trkpt>
<trkpt lat="40.0728423" lon="-105.2305754">
  <ele>1591.09</ele>
  <time>2026-08-28T19:12:33Z</time>
  <course>20.7</course>
  <speed>0.01414213562373095</speed>
  <fix>3d</fix>
</trkpt>
<trkpt lat="40.0728425" lon="-105.2305756">
  <ele>1591.12</ele>
  <time>2026-08-28T19:12:33Z</time>
  <course>342.36</course>
  <speed>0.0</speed>
  <fix>3d</fix>
</trkpt>
<trkpt lat="40.0728424" lon="-105.2305754">
  <ele>1590.99</ele>
  <time>2026-08-28T19:12:33Z</time>
  <course>20.7</course>
  <speed>0.01414213562373095</speed>
  <fix>3d</fix>
</trkpt>
<trkpt lat="40.0728425" lon="-105.2305756">
  <ele>1591.02</ele>
  <time>2026-08-28T19:12:33Z</time>
  <course>345.7</course>
  <speed>0.0</speed>
  <fix>3d</fix>
</trkpt>
<trkpt lat="40.0728424" lon="-105.2305754">
  <ele>1590.89</ele>
  <time>2026-08-28T19:12:33Z</time>
  <course>20.7</course>
  <speed>0.01414213562373095</speed>
  <fix>3d</fix>
</trkpt>
<trkpt lat="40.0728425" lon="-105.2305756">
  <ele>1590.92</ele>
  <time>2026-08-28T19:12:33Z</time>
  <course>351.52</course>
  <speed>0.0</speed>
  <fix>3d</fix>
</trkpt>
<trkpt lat="40.0728424" lon="-105.2305754">
  <ele>1590.79</ele>
  <time>2026-08-28T19:12:33Z</time>
  <course>20.71</course>
  <speed>0.01414213562373095</speed>
  <fix>3d</fix>
</trkpt>
<trkpt lat="40.0728425" lon="-105.2305756">
  <ele>1590.83</ele>
  <time>2026-08-28T19:12:33Z</time>
  <course>358.61</course>
  <speed>0.0</speed>
  <fix>3d</fix>
</trkpt>
<trkpt lat="40.0728424" lon="-105.2305754">
  <ele>1590.7</ele>
  <time>2026-08-28T19:12:33Z</time>
  <course>20.71</course>
  <speed>0.01414213562373095</speed>
  <fix>3d</fix>
</trkpt>
<trkpt lat="40.0728426" lon="-105.2305756">
  <ele>1590.73</ele>
  <time>2026-08-28T19:12:33Z</time>
  <course>6.46</course>
  <speed>0.0</speed>
  <fix>3d</fix>
</trkpt>
<trkpt lat="40.0728424" lon="-105.2305754">
  <ele>1590.6</ele>
  <time>2026-08-28T19:12:33Z</time>
  <course>20.71</course>
  <speed>0.01414213562373095</speed>
  <fix>3d</fix>
</trkpt>
<trkpt lat="40.0728426" lon="-105.2305756">
  <ele>1590.63</ele>
  <time>2026-08-28T19:12:33Z</time>
  <course>17.51</course>
  <speed>0.0</speed>
  <fix>3d</fix>
</trkpt>
<trkpt lat="40.0728424" lon="-105.2305754">
  <ele>1590.5</ele>
  <time>2026-08-28T19:12:33Z</time>
  <course>20.73</course>
  <speed>0.01414213562373095</speed>
  <fix>3d</fix>
</trkpt>
<trkpt lat="40.0728426" lon="-105.2305756">
  <ele>1590.53</ele>
  <time>2026-08-28T19:12:33Z</time>
  <course>33.15</course>
  <speed>0.0</speed>
  <fix>3d</fix>
</trkpt>
<trkpt lat="40.0728424" lon="-105.2305754">
  <ele>1590.4</ele>
  <time>2026-08-28T19:12:33Z</time>
  <course>20.73</course>
  <speed>0.022360679774997897</speed>
  <fix>3d</fix>
</trkpt>
<trkpt lat="40.0728426" lon="-105.2305756">
  <ele>1590.42</ele>
  <time>2026-08-28T19:12:33Z</time>
  <course>50.03</course>
  <speed>0.0</speed>
  <fix>3d</fix>
</trkpt>
<trkpt lat="40.0728424" lon="-105.2305754">
  <ele>1590.3</ele>
  <time>2026-08-28T19:12:33Z</time>
  <course>20.72</course>
  <speed>0.022360679774997897</speed>
  <fix>3d</fix>
</trkpt>
<trkpt lat="40.0728426" lon="-105.2305756">
  <ele>1590.33</ele>
  <time>2026-08-28T19:12:33Z</time>
  <course>65.87</course>
  <speed>0.0</speed>
  <fix>3d</fix>
</trkpt>
<trkpt lat="40.0728424" lon="-105.2305754">
  <ele>1590.2</ele>
  <time>2026-08-28T19:12:33Z</time>
  <course>20.72</course>
  <speed>0.022360679774997897</speed>
  <fix>3d</fix>
</trkpt>
<trkpt lat="40.0728426" lon="-105.2305756">
  <ele>1590.23</ele>
  <time>2026-08-28T19:12:33Z</time>
  <course>78.72</course>
  <speed>0.0</speed>
  <fix>3d</fix>
</trkpt>
<trkpt lat="40.0728424" lon="-105.2305754">
  <ele>1590.1</ele>
  <time>2026-08-28T19:12:33Z</time>
  <course>20.71</course>
  <speed>0.022360679774997897</speed>
  <fix>3d</fix>
</trkpt>
<trkpt lat="40.0728426" lon="-105.2305756">
  <ele>1590.12</ele>
  <time>2026-08-28T19:12:33Z</time>
  <course>89.51</course>
  <speed>0.0</speed>
  <fix>3d</fix>
</trkpt>
<trkpt lat="40.0728424" lon="-105.2305754">
  <ele>1590.0</ele>
  <time>2026-08-28T19:12:33Z</time>
  <course>20.71</course>
  <speed>0.022360679774997897</speed>
  <fix>3d</fix>
</trkpt>
<trkpt lat="40.0728426" lon="-105.2305756">
  <ele>1590.02</ele>
  <time>2026-08-28T19:12:33Z</time>
  <course>98.87</course>
  <speed>0.0</speed>
  <fix>3d</fix>
</trkpt>
<trkpt lat="40.0728424" lon="-105.2305754">
  <ele>1589.9</ele>
  <time>2026-08-28T19:12:33Z</time>
  <course>20.71</course>
  <speed>0.022360679774997897</speed>
  <fix>3d</fix>
</trkpt>
<trkpt lat="40.0728426" lon="-105.2305756">
  <ele>1589.91</ele>
  <time>2026-08-28T19:12:33Z</time>
  <course>107.46</course>
  <speed>0.0</speed>
  <fix>3d</fix>
</trkpt>
<trkpt lat="40.0728424" lon="-105.2305754">
  <ele>1589.8</ele>
  <time>2026-08-28T19:12:33Z</time>
  <course>20.71</course>
  <speed>0.022360679774997897</speed>
  <fix>3d</fix>
</trkpt>
<trkpt lat="40.0728426" lon="-105.2305756">
  <ele>1589.82</ele>
  <time>2026-08-28T19:12:33Z</time>
  <course>113.6</course>
  <speed>0.0</speed>
  <fix>3d</fix>
</trkpt>
<trkpt lat="40.0728424" lon="-105.2305754">
  <ele>1589.7</ele>
  <time>2026-08-28T19:12:33Z</time>
  <course>20.71</course>
  <speed>0.022360679774997897</speed>
  <fix>3d</fix>
</trkpt>
<trkpt lat="40.0728426" lon="-105.2305756">
  <ele>1589.72</ele>
  <time>2026-08-28T19:12:33Z</time>
  <course>117.85</course>
  <speed>0.0</speed>
  <fix>3d</fix>
</trkpt>
<trkpt lat="40.0728424" lon="-105.2305754">
  <ele>1589.6</ele>
  <time>2026-08-28T19:12:33Z</time>
  <course>20.71</course>
  <speed>0.022360679774997897</speed>
  <fix>3d</fix>
</trkpt>
<trkpt lat="40.0728426" lon="-105.2305755">
  <ele>1589.62</ele>
  <time>2026-08-28T19:12:33Z</time>
  <course>121.35</course>
  <speed>0.0</speed>
  <fix>3d</fix>
</trkpt>
<trkpt lat="40.0728424" lon="-105.2305754">
  <ele>1589.49</ele>
  <time>2026-08-28T19:12:33Z</time>
  <course>20.71</course>
  <speed>0.022360679774997897</speed>
  <fix>3d</fix>
</trkpt>
<trkpt lat="40.0728426" lon="-105.2305755">
  <ele>1589.52</ele>
  <time>2026-08-28T19:12:33Z</time>
  <course>124.44</course>
  <speed>0.0</speed>
  <fix>3d</fix>
</trkpt>
<trkpt lat="40.0728424" lon="-105.2305754">
  <ele>1589.39</ele>
  <time>2026-08-28T19:12:33Z</time>
  <course>20.71</course>
  <speed>0.022360679774997897</speed>
  <fix>3d</fix>
</trkpt>
<trkpt lat="40.0728426" lon="-105.2305755">
  <ele>1589.41</ele>
  <time>2026-08-28T19:12:33Z</time>
  <course>127.3</course>
  <speed>0.0</speed>
  <fix>3d</fix>
</trkpt>
<trkpt lat="40.0728424" lon="-105.2305754">
  <ele>1589.29</ele>
  <time>2026-08-28T19:12:33Z</time>
  <course>20.7</course>
  <speed>0.022360679774997897</speed>
  <fix>3d</fix>
</trkpt>
<trkpt lat="40.0728426" lon="-105.2305755">
  <ele>1589.32</ele>
  <time>2026-08-28T19:12:33Z</time>
  <course>130.48</course>
  <speed>0.0</speed>
  <fix>3d</fix>
</trkpt>
<trkpt lat="40.0728424" lon="-105.2305754">
  <ele>1589.19</ele>
  <time>2026-08-28T19:12:33Z</time>
  <course>20.69</course>
  <speed>0.022360679774997897</speed>
  <fix>3d</fix>
</trkpt>
<trkpt lat="40.0728426" lon="-105.2305755">
  <ele>1589.22</ele>
  <time>2026-08-28T19:12:33Z</time>
  <course>137.05</course>
  <speed>0.0</speed>
  <fix>3d</fix>
</trkpt>
<trkpt lat="40.0728424" lon="-105.2305754">
  <ele>1589.09</ele>
  <time>2026-08-28T19:12:33Z</time>
  <course>20.71</course>
  <speed>0.022360679774997897</speed>
  <fix>3d</fix>
</trkpt>
<trkpt lat="40.0728426" lon="-105.2305755">
  <ele>1589.12</ele>
  <time>2026-08-28T19:12:33Z</time>
  <course>144.14</course>
  <speed>0.0</speed>
  <fix>3d</fix>
</trkpt>
<trkpt lat="40.0728424" lon="-105.2305754">
  <ele>1588.99</ele>
  <time>2026-08-28T19:12:33Z</time>
  <course>20.72</course>
  <speed>0.022360679774997897</speed>
  <fix>3d</fix>
</trkpt>
<trkpt lat="40.0728426" lon="-105.2305755">
  <ele>1589.02</ele>
  <time>2026-08-28T19:12:33Z</time>
  <course>147.77</course>
  <speed>0.0</speed>
  <fix>3d</fix>
</trkpt>
<trkpt lat="40.0728424" lon="-105.2305754">
  <ele>1588.89</ele>
  <time>2026-08-28T19:12:33Z</time>
  <course>20.71</course>
  <speed>0.022360679774997897</speed>
  <fix>3d</fix>
</trkpt>
<trkpt lat="40.0728426" lon="-105.2305755">
  <ele>1588.92</ele>
  <time>2026-08-28T19:12:33Z</time>
  <course>150.69</course>
  <speed>0.0</speed>
  <fix>3d</fix>
</trkpt>
<trkpt lat="40.0728424" lon="-105.2305754">
  <ele>1588.79</ele>
  <time>2026-08-28T19:12:33Z</time>
  <course>20.7</course>
  <speed>0.022360679774997897</speed>
  <fix>3d</fix>
</trkpt>
<trkpt lat="40.0728426" lon="-105.2305755">
  <ele>1588.83</ele>
  <time>2026-08-28T19:12:33Z</time>
  <course>154.83</course>
  <speed>0.0</speed>
  <fix>3d</fix>
</trkpt>
<trkpt lat="40.0728424" lon="-105.2305754">
  <ele>1588.69</ele>
  <time>2026-08-28T19:12:34Z</time>
  <course>20.7</course>
  <speed>0.022360679774997897</speed>
  <fix>3d</fix>
</trkpt>
<trkpt lat="40.0728426" lon="-105.2305755">
  <ele>1588.73</ele>
  <time>2026-08-28T19:12:34Z</time>
  <course>158.47</course>
  <speed>0.0</speed>
  <fix>3d</fix>
</trkpt>
<trkpt lat="40.0728424" lon="-105.2305754">
  <ele>1588.59</ele>
  <time>2026-08-28T19:12:34Z</time>
  <course>20.71</course>
  <speed>0.022360679774997897</speed>
  <fix>3d</fix>
</trkpt>
<trkpt lat="40.0728426" lon="-105.2305755">
  <ele>1588.63</ele>
  <time>2026-08-28T19:12:34Z</time>
  <course>161.88</course>
  <speed>0.0</speed>
  <fix>3d</fix>
</trkpt>
<trkpt lat="40.0728424" lon="-105.2305754">
  <ele>1588.49</ele>
  <time>2026-08-28T19:12:34Z</time>
  <course>20.71</course>
  <speed>0.022360679774997897</speed>
  <fix>3d</fix>
</trkpt>
<trkpt lat="40.0728426" lon="-105.2305755">
  <ele>1588.53</ele>
  <time>2026-08-28T19:12:34Z</time>
  <course>165.79</course>
  <speed>0.0</speed>
  <fix>3d</fix>
</trkpt>
<trkpt lat="40.0728424" lon="-105.2305754">
  <ele>1588.39</ele>
  <time>2026-08-28T19:12:34Z</time>
  <course>20.72</course>
  <speed>0.022360679774997897</speed>
  <fix>3d</fix>
</trkpt>
<trkpt lat="40.0728426" lon="-105.2305755">
  <ele>1588.42</ele>
  <time>2026-08-28T19:12:34Z</time>
  <course>168.82</course>
  <speed>0.0</speed>
  <fix>3d</fix>
</trkpt>
<trkpt lat="40.0728424" lon="-105.2305754">
  <ele>1588.3</ele>
  <time>2026-08-28T19:12:34Z</time>
  <course>20.71</course>
  <speed>0.022360679774997897</speed>
  <fix>3d</fix>
</trkpt>
<trkpt lat="40.0728426" lon="-105.2305755">
  <ele>1588.33</ele>
  <time>2026-08-28T19:12:34Z</time>
  <course>169.59</course>
  <speed>0.0</speed>
  <fix>3d</fix>
</trkpt>
<trkpt lat="40.0728424" lon="-105.2305754">
  <ele>1588.2</ele>
  <time>2026-08-28T19:12:34Z</time>
  <course>20.72</course>
  <speed>0.022360679774997897</speed>
  <fix>3d</fix>
</trkpt>
<trkpt lat="40.0728425" lon="-105.2305754">
  <ele>1588.23</ele>
  <time>2026-08-28T19:12:34Z</time>
  <course>168.57</course>
  <speed>0.0</speed>
  <fix>3d</fix>
</trkpt>
<trkpt lat="40.0728424" lon="-105.2305754">
  <ele>1588.1</ele>
  <time>2026-08-28T19:12:34Z</time>
  <course>20.71</course>
  <speed>0.022360679774997897</speed>
  <fix>3d</fix>
</trkpt>
<trkpt lat="40.0728425" lon="-105.2305753">
  <ele>1588.13</ele>
  <time>2026-08-28T19:12:34Z</time>
  <course>167.94</course>
  <speed>0.0</speed>
  <fix>3d</fix>
</trkpt>
<trkpt lat="40.0728424" lon="-105.2305754">
  <ele>1588.0</ele>
  <time>2026-08-28T19:12:34Z</time>
  <course>20.71</course>
  <speed>0.022360679774997897</speed>
  <fix>3d</fix>
</trkpt>
<trkpt lat="40.0728425" lon="-105.2305753">
  <ele>1588.03</ele>
  <time>2026-08-28T19:12:34Z</time>
  <course>167.85</course>
  <speed>0.0</speed>
  <fix>3d</fix>
</trkpt>
<trkpt lat="40.0728424" lon="-105.2305754">
  <ele>1587.9</ele>
  <time>2026-08-28T19:12:34Z</time>
  <course>20.71</course>
  <speed>0.022360679774997897</speed>
  <fix>3d</fix>
</trkpt>
<trkpt lat="40.0728425" lon="-105.2305753">
  <ele>1587.92</ele>
  <time>2026-08-28T19:12:34Z</time>
  <course>168.83</course>
  <speed>0.0</speed>
  <fix>3d</fix>
</trkpt>
<trkpt lat="40.0728424" lon="-105.2305753">
  <ele>1587.8</ele>
  <time>2026-08-28T19:12:34Z</time>
  <course>20.71</course>
  <speed>0.022360679774997897</speed>
  <fix>3d</fix>
</trkpt>
<trkpt lat="40.0728425" lon="-105.2305753">
  <ele>1587.83</ele>
  <time>2026-08-28T19:12:34Z</time>
  <course>175.82</course>
  <speed>0.0</speed>
  <fix>3d</fix>
</trkpt>
<trkpt lat="40.0728424" lon="-105.2305753">
  <ele>1587.7</ele>
  <time>2026-08-28T19:12:34Z</time>
  <course>20.71</course>
  <speed>0.022360679774997897</speed>
  <fix>3d</fix>
</trkpt>
<trkpt lat="40.0728425" lon="-105.2305753">
  <ele>1587.73</ele>
  <time>2026-08-28T19:12:34Z</time>
  <course>196.88</course>
  <speed>0.0</speed>
  <fix>3d</fix>
</trkpt>
<trkpt lat="40.0728424" lon="-105.2305753">
  <ele>1587.6</ele>
  <time>2026-08-28T19:12:34Z</time>
  <course>20.71</course>
  <speed>0.022360679774997897</speed>
  <fix>3d</fix>
</trkpt>
<trkpt lat="40.0728425" lon="-105.2305753">
  <ele>1587.63</ele>
  <time>2026-08-28T19:12:34Z</time>
  <course>226.1</course>
  <speed>0.0</speed>
  <fix>3d</fix>
</trkpt>
<trkpt lat="40.0728424" lon="-105.2305753">
  <ele>1587.5</ele>
  <time>2026-08-28T19:12:34Z</time>
  <course>20.72</course>
  <speed>0.022360679774997897</speed>
  <fix>3d</fix>
</trkpt>
<trkpt lat="40.0728425" lon="-105.2305753">
  <ele>1587.53</ele>
  <time>2026-08-28T19:12:34Z</time>
  <course>246.66</course>
  <speed>0.0</speed>
  <fix>3d</fix>
</trkpt>
<trkpt lat="40.0728424" lon="-105.2305753">
  <ele>1587.4</ele>
  <time>2026-08-28T19:12:34Z</time>
  <course>20.71</course>
  <speed>0.01</speed>
  <fix>3d</fix>
</trkpt>
<trkpt lat="40.0728425" lon="-105.2305753">
  <ele>1587.42</ele>
  <time>2026-08-28T19:12:34Z</time>
  <course>258.64</course>
  <speed>0.0</speed>
  <fix>3d</fix>
</trkpt>
<trkpt lat="40.0728424" lon="-105.2305753">
  <ele>1587.3</ele>
  <time>2026-08-28T19:12:34Z</time>
  <course>20.71</course>
  <speed>0.01</speed>
  <fix>3d</fix>
</trkpt>
<trkpt lat="40.0728425" lon="-105.2305753">
  <ele>1587.33</ele>
  <time>2026-08-28T19:12:34Z</time>
  <course>266.15</course>
  <speed>0.0</speed>
  <fix>3d</fix>
</trkpt>
<trkpt lat="40.0728424" lon="-105.2305753">
  <ele>1587.2</ele>
  <time>2026-08-28T19:12:34Z</time>
  <course>20.71</course>
  <speed>0.01</speed>
  <fix>3d</fix>
</trkpt>
<trkpt lat="40.0728425" lon="-105.2305753">
  <ele>1587.23</ele>
  <time>2026-08-28T19:12:34Z</time>
  <course>270.37</course>
  <speed>0.0</speed>
  <fix>3d</fix>
</trkpt>
<trkpt lat="40.0728424" lon="-105.2305753">
  <ele>1587.09</ele>
  <time>2026-08-28T19:12:34Z</time>
  <course>20.71</course>
  <speed>0.01</speed>
  <fix>3d</fix>
</trkpt>
<trkpt lat="40.0728425" lon="-105.2305753">
  <ele>1587.13</ele>
  <time>2026-08-28T19:12:34Z</time>
  <course>272.23</course>
  <speed>0.0</speed>
  <fix>3d</fix>
</trkpt>
<trkpt lat="40.0728424" lon="-105.2305753">
  <ele>1586.99</ele>
  <time>2026-08-28T19:12:34Z</time>
  <course>20.71</course>
  <speed>0.01</speed>
  <fix>3d</fix>
</trkpt>
<trkpt lat="40.0728425" lon="-105.2305753">
  <ele>1587.03</ele>
  <time>2026-08-28T19:12:34Z</time>
  <course>274.27</course>
  <speed>0.0</speed>
  <fix>3d</fix>
</trkpt>
<trkpt lat="40.0728424" lon="-105.2305753">
  <ele>1586.9</ele>
  <time>2026-08-28T19:12:34Z</time>
  <course>20.71</course>
  <speed>0.01</speed>
  <fix>3d</fix>
</trkpt>
<trkpt lat="40.0728425" lon="-105.2305754">
  <ele>1586.92</ele>
  <time>2026-08-28T19:12:34Z</time>
  <course>277.08</course>
  <speed>0.0</speed>
  <fix>3d</fix>
</trkpt>
<trkpt lat="40.0728424" lon="-105.2305753">
  <ele>1586.8</ele>
  <time>2026-08-28T19:12:34Z</time>
  <course>20.72</course>
  <speed>0.01</speed>
  <fix>3d</fix>
</trkpt>
<trkpt lat="40.0728425" lon="-105.2305755">
  <ele>1586.83</ele>
  <time>2026-08-28T19:12:34Z</time>
  <course>279.46</course>
  <speed>0.0</speed>
  <fix>3d</fix>
</trkpt>
<trkpt lat="40.0728424" lon="-105.2305753">
  <ele>1586.7</ele>
  <time>2026-08-28T19:12:34Z</time>
  <course>20.72</course>
  <speed>0.01</speed>
  <fix>3d</fix>
</trkpt>
<trkpt lat="40.0728425" lon="-105.2305755">
  <ele>1586.73</ele>
  <time>2026-08-28T19:12:34Z</time>
  <course>280.69</course>
  <speed>0.0</speed>
  <fix>3d</fix>
</trkpt>
<trkpt lat="40.0728424" lon="-105.2305753">
  <ele>1586.59</ele>
  <time>2026-08-28T19:12:34Z</time>
  <course>20.71</course>
  <speed>0.01</speed>
  <fix>3d</fix>
</trkpt>
<trkpt lat="40.0728425" lon="-105.2305755">
  <ele>1586.63</ele>
  <time>2026-08-28T19:12:34Z</time>
  <course>280.89</course>
  <speed>0.0</speed>
  <fix>3d</fix>
</trkpt>
<trkpt lat="40.0728424" lon="-105.2305753">
  <ele>1586.49</ele>
  <time>2026-08-28T19:12:34Z</time>
  <course>20.7</course>
  <speed>0.01</speed>
  <fix>3d</fix>
</trkpt>
<trkpt lat="40.0728425" lon="-105.2305755">
  <ele>1586.53</ele>
  <time>2026-08-28T19:12:34Z</time>
  <course>280.85</course>
  <speed>0.0</speed>
  <fix>3d</fix>
</trkpt>
<trkpt lat="40.0728424" lon="-105.2305753">
  <ele>1586.39</ele>
  <time>2026-08-28T19:12:34Z</time>
  <course>20.7</course>
  <speed>0.01</speed>
  <fix>3d</fix>
</trkpt>
<trkpt lat="40.0728425" lon="-105.2305755">
  <ele>1586.42</ele>
  <time>2026-08-28T19:12:34Z</time>
  <course>283.0</course>
  <speed>0.0</speed>
  <fix>3d</fix>
</trkpt>
<trkpt lat="40.0728424" lon="-105.2305753">
  <ele>1586.29</ele>
  <time>2026-08-28T19:12:34Z</time>
  <course>20.7</course>
  <speed>0.01</speed>
  <fix>3d</fix>
</trkpt>
<trkpt lat="40.0728425" lon="-105.2305756">
  <ele>1586.33</ele>
  <time>2026-08-28T19:12:34Z</time>
  <course>289.05</course>
  <speed>0.0</speed>
  <fix>3d</fix>
</trkpt>
<trkpt lat="40.0728424" lon="-105.2305754">
  <ele>1586.19</ele>
  <time>2026-08-28T19:12:34Z</time>
  <course>20.7</course>
  <speed>0.01414213562373095</speed>
  <fix>3d</fix>
</trkpt>
<trkpt lat="40.0728425" lon="-105.2305756">
  <ele>1586.23</ele>
  <time>2026-08-28T19:12:34Z</time>
  <course>296.92</course>
  <speed>0.0</speed>
  <fix>3d</fix>
</trkpt>
<trkpt lat="40.0728424" lon="-105.2305754">
  <ele>1586.11</ele>
  <time>2026-08-28T19:12:34Z</time>
  <course>20.7</course>
  <speed>0.01414213562373095</speed>
  <fix>3d</fix>
</trkpt>
<trkpt lat="40.0728425" lon="-105.2305756">
  <ele>1586.13</ele>
  <time>2026-08-28T19:12:34Z</time>
  <course>298.7</course>
  <speed>0.0</speed>
  <fix>3d</fix>
</trkpt>
<trkpt lat="40.0728424" lon="-105.2305754">
  <ele>1586.12</ele>
  <time>2026-08-28T19:12:34Z</time>
  <course>20.73</course>
  <speed>0.01414213562373095</speed>
  <fix>3d</fix>
</trkpt>
<trkpt lat="40.0728425" lon="-105.2305756">
  <ele>1586.08</ele>
  <time>2026-08-28T19:12:34Z</time>
  <course>296.64</course>
  <speed>0.01</speed>
  <fix>3d</fix>
</trkpt>
<trkpt lat="40.0728424" lon="-105.2305754">
  <ele>1586.12</ele>
  <time>2026-08-28T19:12:34Z</time>
  <course>20.78</course>
  <speed>0.022360679774997897</speed>
  <fix>3d</fix>
</trkpt>
<trkpt lat="40.0728425" lon="-105.2305756">
  <ele>1586.08</ele>
  <time>2026-08-28T19:12:34Z</time>
  <course>308.98</course>
  <speed>0.0</speed>
  <fix>3d</fix>
</trkpt>
<trkpt lat="40.0728424" lon="-105.2305754">
  <ele>1586.12</ele>
  <time>2026-08-28T19:12:34Z</time>
  <course>20.81</course>
  <speed>0.022360679774997897</speed>
  <fix>3d</fix>
</trkpt>
<trkpt lat="40.0728425" lon="-105.2305756">
  <ele>1586.09</ele>
  <time>2026-08-28T19:12:34Z</time>
  <course>94.07</course>
  <speed>0.0</speed>
  <fix>3d</fix>
</trkpt>
<trkpt lat="40.0728424" lon="-105.2305754">
  <ele>1586.12</ele>
  <time>2026-08-28T19:12:34Z</time>
  <course>20.85</course>
  <speed>0.022360679774997897</speed>
  <fix>3d</fix>
</trkpt>
<trkpt lat="40.0728425" lon="-105.2305756">
  <ele>1586.09</ele>
  <time>2026-08-28T19:12:34Z</time>
  <course>109.76</course>
  <speed>0.0</speed>
  <fix>3d</fix>
</trkpt>
<trkpt lat="40.0728424" lon="-105.2305754">
  <ele>1586.12</ele>
  <time>2026-08-28T19:12:34Z</time>
  <course>20.88</course>
  <speed>0.022360679774997897</speed>
  <fix>3d</fix>
</trkpt>
<trkpt lat="40.0728425" lon="-105.2305756">
  <ele>1586.09</ele>
  <time>2026-08-28T19:12:34Z</time>
  <course>350.46</course>
  <speed>0.0</speed>
  <fix>3d</fix>
</trkpt>
<trkpt lat="40.0728424" lon="-105.2305754">
  <ele>1586.12</ele>
  <time>2026-08-28T19:12:34Z</time>
  <course>20.9</course>
  <speed>0.022360679774997897</speed>
  <fix>3d</fix>
</trkpt>
<trkpt lat="40.0728425" lon="-105.2305756">
  <ele>1586.09</ele>
  <time>2026-08-28T19:12:34Z</time>
  <course>46.07</course>
  <speed>0.0</speed>
  <fix>3d</fix>
</trkpt>
<trkpt lat="40.0728424" lon="-105.2305754">
  <ele>1586.13</ele>
  <time>2026-08-28T19:12:34Z</time>
  <course>20.92</course>
  <speed>0.022360679774997897</speed>
  <fix>3d</fix>
</trkpt>
<trkpt lat="40.0728425" lon="-105.2305756">
  <ele>1586.09</ele>
  <time>2026-08-28T19:12:34Z</time>
  <course>31.06</course>
  <speed>0.0</speed>
  <fix>3d</fix>
</trkpt>
<trkpt lat="40.0728424" lon="-105.2305754">
  <ele>1586.13</ele>
  <time>2026-08-28T19:12:34Z</time>
  <course>20.95</course>
  <speed>0.022360679774997897</speed>
  <fix>3d</fix>
</trkpt>
<trkpt lat="40.0728425" lon="-105.2305756">
  <ele>1586.09</ele>
  <time>2026-08-28T19:12:34Z</time>
  <course>357.52</course>
  <speed>0.0</speed>
  <fix>3d</fix>
</trkpt>
<trkpt lat="40.0728424" lon="-105.2305754">
  <ele>1586.13</ele>
  <time>2026-08-28T19:12:34Z</time>
  <course>20.97</course>
  <speed>0.022360679774997897</speed>
  <fix>3d</fix>
</trkpt>
<trkpt lat="40.0728425" lon="-105.2305756">
  <ele>1586.09</ele>
  <time>2026-08-28T19:12:34Z</time>
  <course>27.06</course>
  <speed>0.0</speed>
  <fix>3d</fix>
</trkpt>
<trkpt lat="40.0728424" lon="-105.2305754">
  <ele>1586.14</ele>
  <time>2026-08-28T19:12:34Z</time>
  <course>20.97</course>
  <speed>0.04242640687119285</speed>
  <fix>3d</fix>
</trkpt>
<trkpt lat="40.0728425" lon="-105.2305756">
  <ele>1586.09</ele>
  <time>2026-08-28T19:12:34Z</time>
  <course>107.54</course>
  <speed>0.0</speed>
  <fix>3d</fix>
</trkpt>
<trkpt lat="40.0728424" lon="-105.2305754">
  <ele>1586.13</ele>
  <time>2026-08-28T19:12:34Z</time>
  <course>20.93</course>
  <speed>0.022360679774997897</speed>
  <fix>3d</fix>
</trkpt>
<trkpt lat="40.0728425" lon="-105.2305756">
  <ele>1586.09</ele>
  <time>2026-08-28T19:12:34Z</time>
  <course>111.13</course>
  <speed>0.01</speed>
  <fix>3d</fix>
</trkpt>
<trkpt lat="40.0728424" lon="-105.2305754">
  <ele>1586.13</ele>
  <time>2026-08-28T19:12:34Z</time>
  <course>20.89</course>
  <speed>0.02</speed>
  <fix>3d</fix>
</trkpt>
<trkpt lat="40.0728425" lon="-105.2305756">
  <ele>1586.09</ele>
  <time>2026-08-28T19:12:34Z</time>
  <course>127.83</course>
  <speed>0.0</speed>
  <fix>3d</fix>
</trkpt>
<trkpt lat="40.0728424" lon="-105.2305754">
  <ele>1586.14</ele>
  <time>2026-08-28T19:12:34Z</time>
  <course>20.87</course>
  <speed>0.022360679774997897</speed>
  <fix>3d</fix>
</trkpt>
<trkpt lat="40.0728425" lon="-105.2305756">
  <ele>1586.09</ele>
  <time>2026-08-28T19:12:34Z</time>
  <course>274.61</course>
  <speed>0.0</speed>
  <fix>3d</fix>
</trkpt>
<trkpt lat="40.0728424" lon="-105.2305754">
  <ele>1586.14</ele>
  <time>2026-08-28T19:12:34Z</time>
  <course>20.86</course>
  <speed>0.022360679774997897</speed>
  <fix>3d</fix>
</trkpt>
<trkpt lat="40.0728425" lon="-105.2305756">
  <ele>1586.09</ele>
  <time>2026-08-28T19:12:34Z</time>
  <course>260.05</course>
  <speed>0.0</speed>
  <fix>3d</fix>
</trkpt>
<trkpt lat="40.0728424" lon="-105.2305754">
  <ele>1586.14</ele>
  <time>2026-08-28T19:12:34Z</time>
  <course>20.86</course>
  <speed>0.022360679774997897</speed>
  <fix>3d</fix>
</trkpt>
<trkpt lat="40.0728425" lon="-105.2305756">
  <ele>1586.09</ele>
  <time>2026-08-28T19:12:34Z</time>
  <course>227.94</course>
  <speed>0.0</speed>
  <fix>3d</fix>
</trkpt>
<trkpt lat="40.0728424" lon="-105.2305754">
  <ele>1586.14</ele>
  <time>2026-08-28T19:12:34Z</time>
  <course>20.86</course>
  <speed>0.022360679774997897</speed>
  <fix>3d</fix>
</trkpt>
<trkpt lat="40.0728425" lon="-105.2305756">
  <ele>1586.09</ele>
  <time>2026-08-28T19:12:34Z</time>
  <course>248.58</course>
  <speed>0.0</speed>
  <fix>3d</fix>
</trkpt>
<trkpt lat="40.0728424" lon="-105.2305754">
  <ele>1586.14</ele>
  <time>2026-08-28T19:12:34Z</time>
  <course>20.86</course>
  <speed>0.022360679774997897</speed>
  <fix>3d</fix>
</trkpt>
<trkpt lat="40.0728425" lon="-105.2305756">
  <ele>1586.09</ele>
  <time>2026-08-28T19:12:34Z</time>
  <course>249.33</course>
  <speed>0.0</speed>
  <fix>3d</fix>
</trkpt>
<trkpt lat="40.0728424" lon="-105.2305754">
  <ele>1586.15</ele>
  <time>2026-08-28T19:12:34Z</time>
  <course>20.86</course>
  <speed>0.022360679774997897</speed>
  <fix>3d</fix>
</trkpt>
<trkpt lat="40.0728425" lon="-105.2305756">
  <ele>1586.09</ele>
  <time>2026-08-28T19:12:34Z</time>
  <course>225.11</course>
  <speed>0.0</speed>
  <fix>3d</fix>
</trkpt>
<trkpt lat="40.0728424" lon="-105.2305754">
  <ele>1586.15</ele>
  <time>2026-08-28T19:12:34Z</time>
  <course>20.86</course>
  <speed>0.022360679774997897</speed>
  <fix>3d</fix>
</trkpt>
<trkpt lat="40.0728425" lon="-105.2305756">
  <ele>1586.09</ele>
  <time>2026-08-28T19:12:34Z</time>
  <course>120.98</course>
  <speed>0.0</speed>
  <fix>3d</fix>
</trkpt>
<trkpt lat="40.0728424" lon="-105.2305754">
  <ele>1586.15</ele>
  <time>2026-08-28T19:12:34Z</time>
  <course>20.85</course>
  <speed>0.022360679774997897</speed>
  <fix>3d</fix>
</trkpt>
<trkpt lat="40.0728425" lon="-105.2305756">
  <ele>1586.09</ele>
  <time>2026-08-28T19:12:34Z</time>
  <course>38.51</course>
  <speed>0.0</speed>
  <fix>3d</fix>
</trkpt>
<trkpt lat="40.0728424" lon="-105.2305754">
  <ele>1586.14</ele>
  <time>2026-08-28T19:12:34Z</time>
  <course>20.85</course>
  <speed>0.022360679774997897</speed>
  <fix>3d</fix>
</trkpt>
<trkpt lat="40.0728425" lon="-105.2305756">
  <ele>1586.09</ele>
  <time>2026-08-28T19:12:34Z</time>
  <course>279.91</course>
  <speed>0.0</speed>
  <fix>3d</fix>
</trkpt>
<trkpt lat="40.0728424" lon="-105.2305754">
  <ele>1586.14</ele>
  <time>2026-08-28T19:12:34Z</time>
  <course>20.85</course>
  <speed>0.022360679774997897</speed>
  <fix>3d</fix>
</trkpt>
<trkpt lat="40.0728425" lon="-105.2305756">
  <ele>1586.09</ele>
  <time>2026-08-28T19:12:34Z</time>
  <course>270.5</course>
  <speed>0.0</speed>
  <fix>3d</fix>
</trkpt>
<trkpt lat="40.0728424" lon="-105.2305754">
  <ele>1586.14</ele>
  <time>2026-08-28T19:12:34Z</time>
  <course>20.85</course>
  <speed>0.022360679774997897</speed>
  <fix>3d</fix>
</trkpt>
<trkpt lat="40.0728425" lon="-105.2305756">
  <ele>1586.09</ele>
  <time>2026-08-28T19:12:34Z</time>
  <course>290.38</course>
  <speed>0.0</speed>
  <fix>3d</fix>
</trkpt>
<trkpt lat="40.0728424" lon="-105.2305754">
  <ele>1586.14</ele>
  <time>2026-08-28T19:12:34Z</time>
  <course>20.85</course>
  <speed>0.022360679774997897</speed>
  <fix>3d</fix>
</trkpt>
<trkpt lat="40.0728425" lon="-105.2305756">
  <ele>1586.09</ele>
  <time>2026-08-28T19:12:34Z</time>
  <course>288.07</course>
  <speed>0.0</speed>
  <fix>3d</fix>
</trkpt>
<trkpt lat="40.0728424" lon="-105.2305754">
  <ele>1586.14</ele>
  <time>2026-08-28T19:12:34Z</time>
  <course>20.85</course>
  <speed>0.022360679774997897</speed>
  <fix>3d</fix>
</trkpt>
<trkpt lat="40.0728425" lon="-105.2305756">
  <ele>1586.09</ele>
  <time>2026-08-28T19:12:34Z</time>
  <course>285.26</course>
  <speed>0.0</speed>
  <fix>3d</fix>
</trkpt>
<trkpt lat="40.0728424" lon="-105.2305754">
  <ele>1586.14</ele>
  <time>2026-08-28T19:12:34Z</time>
  <course>20.85</course>
  <speed>0.022360679774997897</speed>
  <fix>3d</fix>
</trkpt>
<trkpt lat="40.0728425" lon="-105.2305756">
  <ele>1586.09</ele>
  <time>2026-08-28T19:12:34Z</time>
  <course>285.81</course>
  <speed>0.0</speed>
  <fix>3d</fix>
</trkpt>
<trkpt lat="40.0728424" lon="-105.2305754">
  <ele>1586.14</ele>
  <time>2026-08-28T19:12:34Z</time>
  <course>20.85</course>
  <speed>0.022360679774997897</speed>
  <fix>3d</fix>
</trkpt>
<trkpt lat="40.0728425" lon="-105.2305756">
  <ele>1586.09</ele>
  <time>2026-08-28T19:12:34Z</time>
  <course>286.12</course>
  <speed>0.0</speed>
  <fix>3d</fix>
</trkpt>
<trkpt lat="40.0728424" lon="-105.2305754">
  <ele>1586.14</ele>
  <time>2026-08-28T19:12:34Z</time>
  <course>20.85</course>
  <speed>0.022360679774997897</speed>
  <fix>3d</fix>
</trkpt>
<trkpt lat="40.0728425" lon="-105.2305756">
  <ele>1586.09</ele>
  <time>2026-08-28T19:12:34Z</time>
  <course>286.01</course>
  <speed>0.0</speed>
  <fix>3d</fix>
</trkpt>
<trkpt lat="40.0728424" lon="-105.2305754">
  <ele>1586.14</ele>
  <time>2026-08-28T19:12:34Z</time>
  <course>20.85</course>
  <speed>0.022360679774997897</speed>
  <fix>3d</fix>
</trkpt>
<trkpt lat="40.0728425" lon="-105.2305756">
  <ele>1586.09</ele>
  <time>2026-08-28T19:12:34Z</time>
  <course>285.98</course>
  <speed>0.0</speed>
  <fix>3d</fix>
</trkpt>
<trkpt lat="40.0728424" lon="-105.2305754">
  <ele>1586.14</ele>
  <time>2026-08-28T19:12:34Z</time>
  <course>20.85</course>
  <speed>0.022360679774997897</speed>
  <fix>3d</fix>
</trkpt>
<trkpt lat="40.0728425" lon="-105.2305756">
  <ele>1586.09</ele>
  <time>2026-08-28T19:12:34Z</time>
  <course>286.0</course>
  <speed>0.0</speed>
  <fix>3d</fix>
</trkpt>
<trkpt lat="40.0728424" lon="-105.2305754">
  <ele>1586.14</ele>
  <time>2026-08-28T19:12:34Z</time>
  <course>20.85</course>
  <speed>0.022360679774997897</speed>
  <fix>3d</fix>
</trkpt>
<trkpt lat="40.0728425" lon="-105.2305756">
  <ele>1586.09</ele>
  <time>2026-08-28T19:12:34Z</time>
  <course>286.0</course>
  <speed>0.0</speed>
  <fix>3d</fix>
</trkpt>
<trkpt lat="40.0728424" lon="-105.2305754">
  <ele>1586.14</ele>
  <time>2026-08-28T19:12:34Z</time>
  <course>20.85</course>
  <speed>0.022360679774997897</speed>
  <fix>3d</fix>
</trkpt>
<trkpt lat="40.0728425" lon="-105.2305756">
  <ele>1586.09</ele>
  <time>2026-08-28T19:12:34Z</time>
  <course>286.0</course>
  <speed>0.0</speed>
  <fix>3d</fix>
</trkpt>
<trkpt lat="40.0728424" lon="-105.2305754">
  <ele>1586.14</ele>
  <time>2026-08-28T19:12:34Z</time>
  <course>20.84</course>
  <speed>0.022360679774997897</speed>
  <fix>3d</fix>
</trkpt>
<trkpt lat="40.0728425" lon="-105.2305756">
  <ele>1586.09</ele>
  <time>2026-08-28T19:12:34Z</time>
  <course>286.0</course>
  <speed>0.0</speed>
  <fix>3d</fix>
</trkpt>
<trkpt lat="40.0728424" lon="-105.2305754">
  <ele>1586.14</ele>
  <time>2026-08-28T19:12:34Z</time>
  <course>20.84</course>
  <speed>0.022360679774997897</speed>
  <fix>3d</fix>
</trkpt>
<trkpt lat="40.0728425" lon="-105.2305756">
  <ele>1586.09</ele>
  <time>2026-08-28T19:12:34Z</time>
  <course>286.0</course>
  <speed>0.0</speed>
  <fix>3d</fix>
</trkpt>
<trkpt lat="40.0728424" lon="-105.2305754">
  <ele>1586.14</ele>
  <time>2026-08-28T19:12:34Z</time>
  <course>20.84</course>
  <speed>0.022360679774997897</speed>
  <fix>3d</fix>
</trkpt>
<trkpt lat="40.0728425" lon="-105.2305756">
  <ele>1586.09</ele>
  <time>2026-08-28T19:12:34Z</time>
  <course>286.0</course>
  <speed>0.0</speed>
  <fix>3d</fix>
</trkpt>
<trkpt lat="40.0728424" lon="-105.2305754">
  <ele>1586.14</ele>
  <time>2026-08-28T19:12:34Z</time>
  <course>20.84</course>
  <speed>0.022360679774997897</speed>
  <fix>3d</fix>
</trkpt>
<trkpt lat="40.0728425" lon="-105.2305756">
  <ele>1586.09</ele>
  <time>2026-08-28T19:12:34Z</time>
  <course>286.0</course>
  <speed>0.0</speed>
  <fix>3d</fix>
</trkpt>
<trkpt lat="40.0728424" lon="-105.2305754">
  <ele>1586.14</ele>
  <time>2026-08-28T19:12:34Z</time>
  <course>20.84</course>
  <speed>0.022360679774997897</speed>
  <fix>3d</fix>
</trkpt>
<trkpt lat="40.0728425" lon="-105.2305756">
  <ele>1586.09</ele>
  <time>2026-08-28T19:12:34Z</time>
  <course>286.0</course>
  <speed>0.0</speed>
  <fix>3d</fix>
</trkpt>
<trkpt lat="40.0728424" lon="-105.2305754">
  <ele>1586.14</ele>
  <time>2026-08-28T19:12:34Z</time>
  <course>20.84</course>
  <speed>0.022360679774997897</speed>
  <fix>3d</fix>
</trkpt>
<trkpt lat="40.0728425" lon="-105.2305756">
  <ele>1586.09</ele>
  <time>2026-08-28T19:12:34Z</time>
  <course>286.0</course>
  <speed>0.0</speed>
  <fix>3d</fix>
</trkpt>
<trkpt lat="40.0728424" lon="-105.2305754">
  <ele>1586.14</ele>
  <time>2026-08-28T19:12:34Z</time>
  <course>20.84</course>
  <speed>0.022360679774997897</speed>
  <fix>3d</fix>
</trkpt>
<trkpt lat="40.0728425" lon="-105.2305756">
  <ele>1586.09</ele>
  <time>2026-08-28T19:12:34Z</time>
  <course>286.0</course>
  <speed>0.0</speed>
  <fix>3d</fix>
</trkpt>
<trkpt lat="40.0728424" lon="-105.2305754">
  <ele>1586.14</ele>
  <time>2026-08-28T19:12:34Z</time>
  <course>20.84</course>
  <speed>0.022360679774997897</speed>
  <fix>3d</fix>
</trkpt>
<trkpt lat="40.0728425" lon="-105.2305756">
  <ele>1586.09</ele>
  <time>2026-08-28T19:12:34Z</time>
  <course>286.0</course>
  <speed>0.0</speed>
  <fix>3d</fix>
</trkpt>
<trkpt lat="40.0728424" lon="-105.2305754">
  <ele>1586.14</ele>
  <time>2026-08-28T19:12:34Z</time>
  <course>20.84</course>
  <speed>0.022360679774997897</speed>
  <fix>3d</fix>
</trkpt>
<trkpt lat="40.0728425" lon="-105.2305756">
  <ele>1586.09</ele>
  <time>2026-08-28T19:12:34Z</time>
  <course>286.0</course>
  <speed>0.0</speed>
  <fix>3d</fix>
</trkpt>
<trkpt lat="40.0728424" lon="-105.2305754">
  <ele>1586.13</ele>
  <time>2026-08-28T19:12:34Z</time>
  <course>20.84</course>
  <speed>0.022360679774997897</speed>
  <fix>3d</fix>
</trkpt>
<trkpt lat="40.0728425" lon="-105.2305756">
  <ele>1586.09</ele>
  <time>2026-08-28T19:12:34Z</time>
  <course>286.0</course>
  <speed>0.0</speed>
  <fix>3d</fix>
</trkpt>
<trkpt lat="40.0728424" lon="-105.2305754">
  <ele>1586.13</ele>
  <time>2026-08-28T19:12:34Z</time>
  <course>20.84</course>
  <speed>0.022360679774997897</speed>
  <fix>3d</fix>
</trkpt>
<trkpt lat="40.0728425" lon="-105.2305756">
  <ele>1586.09</ele>
  <time>2026-08-28T19:12:34Z</time>
  <course>286.0</course>
  <speed>0.0</speed>
  <fix>3d</fix>
</trkpt>
<trkpt lat="40.0728424" lon="-105.2305754">
  <ele>1586.14</ele>
  <time>2026-08-28T19:12:34Z</time>
  <course>20.83</course>
  <speed>0.022360679774997897</speed>
  <fix>3d</fix>
</trkpt>
<trkpt lat="40.0728425" lon="-105.2305756">
  <ele>1586.09</ele>
  <time>2026-08-28T19:12:34Z</time>
  <course>286.0</course>
  <speed>0.0</speed>
  <fix>3d</fix>
</trkpt>
<trkpt lat="40.0728424" lon="-105.2305754">
  <ele>1586.14</ele>
  <time>2026-08-28T19:12:34Z</time>
  <course>20.83</course>
  <speed>0.022360679774997897</speed>
  <fix>3d</fix>
</trkpt>
<trkpt lat="40.0728425" lon="-105.2305756">
  <ele>1586.09</ele>
  <time>2026-08-28T19:12:34Z</time>
  <course>286.0</course>
  <speed>0.0</speed>
  <fix>3d</fix>
</trkpt>
<trkpt lat="40.0728424" lon="-105.2305754">
  <ele>1586.15</ele>
  <time>2026-08-28T19:12:34Z</time>
  <course>20.83</course>
  <speed>0.022360679774997897</speed>
  <fix>3d</fix>
</trkpt>
<trkpt lat="40.0728425" lon="-105.2305756">
  <ele>1586.09</ele>
  <time>2026-08-28T19:12:34Z</time>
  <course>286.0</course>
  <speed>0.0</speed>
  <fix>3d</fix>
</trkpt>
<trkpt lat="40.0728424" lon="-105.2305754">
  <ele>1586.15</ele>
  <time>2026-08-28T19:12:34Z</time>
  <course>20.83</course>
  <speed>0.022360679774997897</speed>
  <fix>3d</fix>
</trkpt>
<trkpt lat="40.0728425" lon="-105.2305756">
  <ele>1586.09</ele>
  <time>2026-08-28T19:12:34Z</time>
  <course>286.0</course>
  <speed>0.0</speed>
  <fix>3d</fix>
</trkpt>
<trkpt lat="40.0728424" lon="-105.2305754">
  <ele>1586.15</ele>
  <time>2026-08-28T19:12:34Z</time>
  <course>20.83</course>
  <speed>0.022360679774997897</speed>
  <fix>3d</fix>
</trkpt>
<trkpt lat="40.0728425" lon="-105.2305756">
  <ele>1586.09</ele>
  <time>2026-08-28T19:12:34Z</time>
  <course>286.0</course>
  <speed>0.0</speed>
  <fix>3d</fix>
</trkpt>
<trkpt lat="40.0728424" lon="-105.2305754">
  <ele>1586.15</ele>
  <time>2026-08-28T19:12:34Z</time>
  <course>20.83</course>
  <speed>0.022360679774997897</speed>
  <fix>3d</fix>
</trkpt>
<trkpt lat="40.0728425" lon="-105.2305756">
  <ele>1586.09</ele>
  <time>2026-08-28T19:12:34Z</time>
  <course>286.0</course>
  <speed>0.0</speed>
  <fix>3d</fix>
</trkpt>
<trkpt lat="40.0728424" lon="-105.2305754">
  <ele>1586.15</ele>
  <time>2026-08-28T19:12:34Z</time>
  <course>20.82</course>
  <speed>0.022360679774997897</speed>
  <fix>3d</fix>
</trkpt>
<trkpt lat="40.0728425" lon="-105.2305756">
  <ele>1586.09</ele>
  <time>2026-08-28T19:12:34Z</time>
  <course>286.0</course>
  <speed>0.0</speed>
  <fix>3d</fix>
</trkpt>
<trkpt lat="40.0728424" lon="-105.2305754">
  <ele>1586.16</ele>
  <time>2026-08-28T19:12:34Z</time>
  <course>20.82</course>
  <speed>0.022360679774997897</speed>
  <fix>3d</fix>
</trkpt>
<trkpt lat="40.0728425" lon="-105.2305756">
  <ele>1586.09</ele>
  <time>2026-08-28T19:12:34Z</time>
  <course>286.0</course>
  <speed>0.0</speed>
  <fix>3d</fix>
</trkpt>
<trkpt lat="40.0728424" lon="-105.2305754">
  <ele>1586.16</ele>
  <time>2026-08-28T19:12:34Z</time>
  <course>20.82</course>
  <speed>0.022360679774997897</speed>
  <fix>3d</fix>
</trkpt>
<trkpt lat="40.0728425" lon="-105.2305756">
  <ele>1586.09</ele>
  <time>2026-08-28T19:12:34Z</time>
  <course>286.0</course>
  <speed>0.0</speed>
  <fix>3d</fix>
</trkpt>
<trkpt lat="40.0728424" lon="-105.2305754">
  <ele>1586.16</ele>
  <time>2026-08-28T19:12:34Z</time>
  <course>20.82</course>
  <speed>0.022360679774997897</speed>
  <fix>3d</fix>
</trkpt>
<trkpt lat="40.0728425" lon="-105.2305756">
  <ele>1586.09</ele>
  <time>2026-08-28T19:12:34Z</time>
  <course>286.0</course>
  <speed>0.0</speed>
  <fix>3d</fix>
</trkpt>
<trkpt lat="40.0728424" lon="-105.2305754">
  <ele>1586.16</ele>
  <time>2026-08-28T19:12:34Z</time>
  <course>20.82</course>
  <speed>0.022360679774997897</speed>
  <fix>3d</fix>
</trkpt>
<trkpt lat="40.0728425" lon="-105.2305756">
  <ele>1586.09</ele>
  <time>2026-08-28T19:12:34Z</time>
  <course>286.0</course>
  <speed>0.0</speed>
  <fix>3d</fix>
</trkpt>
<trkpt lat="40.0728424" lon="-105.2305754">
  <ele>1586.16</ele>
  <time>2026-08-28T19:12:34Z</time>
  <course>20.82</course>
  <speed>0.022360679774997897</speed>
  <fix>3d</fix>
</trkpt>
<trkpt lat="40.0728425" lon="-105.2305756">
  <ele>1586.09</ele>
  <time>2026-08-28T19:12:34Z</time>
  <course>286.0</course>
  <speed>0.0</speed>
  <fix>3d</fix>
</trkpt>
<trkpt lat="40.0728424" lon="-105.2305754">
  <ele>1586.16</ele>
  <time>2026-08-28T19:12:34Z</time>
  <course>20.82</course>
  <speed>0.022360679774997897</speed>
  <fix>3d</fix>
</trkpt>
<trkpt lat="40.0728425" lon="-105.2305756">
  <ele>1586.09</ele>
  <time>2026-08-28T19:12:34Z</time>
  <course>286.0</course>
  <speed>0.0</speed>
  <fix>3d</fix>
</trkpt>
<trkpt lat="40.0728424" lon="-105.2305754">
  <ele>1586.16</ele>
  <time>2026-08-28T19:12:34Z</time>
  <course>20.82</course>
  <speed>0.022360679774997897</speed>
  <fix>3d</fix>
</trkpt>
<trkpt lat="40.0728425" lon="-105.2305756">
  <ele>1586.09</ele>
  <time>2026-08-28T19:12:34Z</time>
  <course>286.0</course>
  <speed>0.0</speed>
  <fix>3d</fix>
</trkpt>
<trkpt lat="40.0728424" lon="-105.2305754">
  <ele>1586.16</ele>
  <time>2026-08-28T19:12:34Z</time>
  <course>20.82</course>
  <speed>0.022360679774997897</speed>
  <fix>3d</fix>
</trkpt>
<trkpt lat="40.0728425" lon="-105.2305756">
  <ele>1586.09</ele>
  <time>2026-08-28T19:12:34Z</time>
  <course>286.0</course>
  <speed>0.0</speed>
  <fix>3d</fix>
</trkpt>
<trkpt lat="40.0728424" lon="-105.2305754">
  <ele>1586.16</ele>
  <time>2026-08-28T19:12:34Z</time>
  <course>20.82</course>
  <speed>0.022360679774997897</speed>
  <fix>3d</fix>
</trkpt>
<trkpt lat="40.0728425" lon="-105.2305756">
  <ele>1586.09</ele>
  <time>2026-08-28T19:12:34Z</time>
  <course>286.0</course>
  <speed>0.0</speed>
  <fix>3d</fix>
</trkpt>
<trkpt lat="40.0728424" lon="-105.2305754">
  <ele>1586.16</ele>
  <time>2026-08-28T19:12:34Z</time>
  <course>20.83</course>
  <speed>0.022360679774997897</speed>
  <fix>3d</fix>
</trkpt>
<trkpt lat="40.0728425" lon="-105.2305756">
  <ele>1586.09</ele>
  <time>2026-08-28T19:12:34Z</time>
  <course>286.0</course>
  <speed>0.0</speed>
  <fix>3d</fix>
</trkpt>
<trkpt lat="40.0728424" lon="-105.2305754">
  <ele>1586.17</ele>
  <time>2026-08-28T19:12:34Z</time>
  <course>20.89</course>
  <speed>0.022360679774997897</speed>
  <fix>3d</fix>
</trkpt>
<trkpt lat="40.0728425" lon="-105.2305756">
  <ele>1586.09</ele>
  <time>2026-08-28T19:12:34Z</time>
  <course>288.96</course>
  <speed>0.0</speed>
  <fix>3d</fix>
</trkpt>
<trkpt lat="40.0728424" lon="-105.2305754">
  <ele>1586.17</ele>
  <time>2026-08-28T19:12:34Z</time>
  <course>20.96</course>
  <speed>0.022360679774997897</speed>
  <fix>3d</fix>
</trkpt>
<trkpt lat="40.0728425" lon="-105.2305756">
  <ele>1586.09</ele>
  <time>2026-08-28T19:12:34Z</time>
  <course>339.46</course>
  <speed>0.0</speed>
  <fix>3d</fix>
</trkpt>
<trkpt lat="40.0728424" lon="-105.2305754">
  <ele>1586.18</ele>
  <time>2026-08-28T19:12:34Z</time>
  <course>21.03</course>
  <speed>0.022360679774997897</speed>
  <fix>3d</fix>
</trkpt>
<trkpt lat="40.0728425" lon="-105.2305756">
  <ele>1586.09</ele>
  <time>2026-08-28T19:12:34Z</time>
  <course>332.41</course>
  <speed>0.0</speed>
  <fix>3d</fix>
</trkpt>
<trkpt lat="40.0728424" lon="-105.2305754">
  <ele>1586.19</ele>
  <time>2026-08-28T19:12:34Z</time>
  <course>21.1</course>
  <speed>0.022360679774997897</speed>
  <fix>3d</fix>
</trkpt>
<trkpt lat="40.0728425" lon="-105.2305756">
  <ele>1586.09</ele>
  <time>2026-08-28T19:12:34Z</time>
  <course>210.87</course>
  <speed>0.0</speed>
  <fix>3d</fix>
</trkpt>
<trkpt lat="40.0728424" lon="-105.2305754">
  <ele>1586.19</ele>
  <time>2026-08-28T19:12:34Z</time>
  <course>21.17</course>
  <speed>0.022360679774997897</speed>
  <fix>3d</fix>
</trkpt>
<trkpt lat="40.0728425" lon="-105.2305756">
  <ele>1586.09</ele>
  <time>2026-08-28T19:12:34Z</time>
  <course>319.99</course>
  <speed>0.0</speed>
  <fix>3d</fix>
</trkpt>
<trkpt lat="40.0728424" lon="-105.2305754">
  <ele>1586.2</ele>
  <time>2026-08-28T19:12:34Z</time>
  <course>21.24</course>
  <speed>0.022360679774997897</speed>
  <fix>3d</fix>
</trkpt>
<trkpt lat="40.0728425" lon="-105.2305756">
  <ele>1586.09</ele>
  <time>2026-08-28T19:12:34Z</time>
  <course>288.15</course>
  <speed>0.0</speed>
  <fix>3d</fix>
</trkpt>
<trkpt lat="40.0728424" lon="-105.2305754">
  <ele>1586.19</ele>
  <time>2026-08-28T19:12:34Z</time>
  <course>21.31</course>
  <speed>0.022360679774997897</speed>
  <fix>3d</fix>
</trkpt>
<trkpt lat="40.0728425" lon="-105.2305756">
  <ele>1586.09</ele>
  <time>2026-08-28T19:12:34Z</time>
  <course>272.72</course>
  <speed>0.0</speed>
  <fix>3d</fix>
</trkpt>
<trkpt lat="40.0728424" lon="-105.2305754">
  <ele>1586.19</ele>
  <time>2026-08-28T19:12:34Z</time>
  <course>21.38</course>
  <speed>0.01414213562373095</speed>
  <fix>3d</fix>
</trkpt>
<trkpt lat="40.0728425" lon="-105.2305756">
  <ele>1586.09</ele>
  <time>2026-08-28T19:12:34Z</time>
  <course>120.36</course>
  <speed>0.0</speed>
  <fix>3d</fix>
</trkpt>
<trkpt lat="40.0728424" lon="-105.2305754">
  <ele>1586.19</ele>
  <time>2026-08-28T19:12:34Z</time>
  <course>21.44</course>
  <speed>0.01414213562373095</speed>
  <fix>3d</fix>
</trkpt>
<trkpt lat="40.0728425" lon="-105.2305756">
  <ele>1586.09</ele>
  <time>2026-08-28T19:12:34Z</time>
  <course>342.99</course>
  <speed>0.0</speed>
  <fix>3d</fix>
</trkpt>
<trkpt lat="40.0728424" lon="-105.2305754">
  <ele>1586.19</ele>
  <time>2026-08-28T19:12:34Z</time>
  <course>21.51</course>
  <speed>0.01414213562373095</speed>
  <fix>3d</fix>
</trkpt>
<trkpt lat="40.0728425" lon="-105.2305756">
  <ele>1586.09</ele>
  <time>2026-08-28T19:12:34Z</time>
  <course>298.29</course>
  <speed>0.0</speed>
  <fix>3d</fix>
</trkpt>
<trkpt lat="40.0728424" lon="-105.2305754">
  <ele>1586.18</ele>
  <time>2026-08-28T19:12:34Z</time>
  <course>21.57</course>
  <speed>0.01414213562373095</speed>
  <fix>3d</fix>
</trkpt>
<trkpt lat="40.0728425" lon="-105.2305756">
  <ele>1586.09</ele>
  <time>2026-08-28T19:12:34Z</time>
  <course>297.54</course>
  <speed>0.0</speed>
  <fix>3d</fix>
</trkpt>
<trkpt lat="39.6562421" lon="-104.1365912">
  <ele>1569.6</ele>
  <time>2026-08-28T19:12:35Z</time>
  <course>14.17</course>
  <speed>0.0</speed>
  <fix>3d</fix>
</trkpt>
<trkpt lat="40.072842" lon="-105.230575">
  <ele>1586.09</ele>
  <time>2026-08-28T19:12:35Z</time>
  <course>2.03</course>
  <speed>0.0</speed>
  <fix>3d</fix>
</trkpt>
<trkpt lat="40.072842" lon="-105.230575">
  <ele>1586.09</ele>
  <time>2026-08-28T19:12:35Z</time>
  <course>344.04</course>
  <speed>0.0</speed>
  <fix>3d</fix>
</trkpt>
<trkpt lat="40.072842" lon="-105.230575">
  <ele>1586.09</ele>
  <time>2026-08-28T19:12:35Z</time>
  <course>2.51</course>
  <speed>0.0</speed>
  <fix>3d</fix>
</trkpt>
<trkpt lat="40.072842" lon="-105.230575">
  <ele>1586.09</ele>
  <time>2026-08-28T19:12:35Z</time>
  <course>236.53</course>
  <speed>0.0</speed>
  <fix>3d</fix>
</trkpt>
<trkpt lat="40.072842" lon="-105.230575">
  <ele>1586.09</ele>
  <time>2026-08-28T19:12:35Z</time>
  <course>3.26</course>
  <speed>0.0</speed>
  <fix>3d</fix>
</trkpt>
<trkpt lat="40.072842" lon="-105.230575">
  <ele>1586.09</ele>
  <time>2026-08-28T19:12:35Z</time>
  <course>181.85</course>
  <speed>0.0</speed>
  <fix>3d</fix>
</trkpt>
<trkpt lat="40.072842" lon="-105.230575">
  <ele>1586.09</ele>
  <time>2026-08-28T19:12:35Z</time>
  <course>3.93</course>
  <speed>0.0</speed>
  <fix>3d</fix>
</trkpt>
<trkpt lat="40.072842" lon="-105.230575">
  <ele>1586.09</ele>
  <time>2026-08-28T19:12:35Z</time>
  <course>38.5</course>
  <speed>0.0</speed>
  <fix>3d</fix>
</trkpt>
<trkpt lat="40.072842" lon="-105.230575">
  <ele>1586.09</ele>
  <time>2026-08-28T19:12:35Z</time>
  <course>4.55</course>
  <speed>0.0</speed>
  <fix>3d</fix>
</trkpt>
<trkpt lat="40.072842" lon="-105.230575">
  <ele>1586.09</ele>
  <time>2026-08-28T19:12:35Z</time>
  <course>341.08</course>
  <speed>0.0</speed>
  <fix>3d</fix>
</trkpt>
<trkpt lat="40.072842" lon="-105.230575">
  <ele>1586.09</ele>
  <time>2026-08-28T19:12:35Z</time>
  <course>5.14</course>
  <speed>0.0</speed>
  <fix>3d</fix>
</trkpt>
<trkpt lat="40.072842" lon="-105.230575">
  <ele>1586.09</ele>
  <time>2026-08-28T19:12:35Z</time>
  <course>79.87</course>
  <speed>0.0</speed>
  <fix>3d</fix>
</trkpt>
<trkpt lat="40.072842" lon="-105.230575">
  <ele>1586.09</ele>
  <time>2026-08-28T19:12:35Z</time>
  <course>5.69</course>
  <speed>0.0</speed>
  <fix>3d</fix>
</trkpt>
<trkpt lat="40.072842" lon="-105.230575">
  <ele>1586.09</ele>
  <time>2026-08-28T19:12:35Z</time>
  <course>78.75</course>
  <speed>0.0</speed>
  <fix>3d</fix>
</trkpt>
<trkpt lat="40.072842" lon="-105.230575">
  <ele>1586.09</ele>
  <time>2026-08-28T19:12:35Z</time>
  <course>6.21</course>
  <speed>0.0</speed>
  <fix>3d</fix>
</trkpt>
<trkpt lat="40.072842" lon="-105.230575">
  <ele>1586.09</ele>
  <time>2026-08-28T19:12:35Z</time>
  <course>198.3</course>
  <speed>0.0</speed>
  <fix>3d</fix>
</trkpt>
<trkpt lat="40.072842" lon="-105.230575">
  <ele>1586.09</ele>
  <time>2026-08-28T19:12:36Z</time>
  <course>6.7</course>
  <speed>0.0</speed>
  <fix>3d</fix>
</trkpt>
<trkpt lat="40.072842" lon="-105.230575">
  <ele>1586.09</ele>
  <time>2026-08-28T19:12:36Z</time>
  <course>208.9</course>
  <speed>0.0</speed>
  <fix>3d</fix>
</trkpt>
<trkpt lat="40.072842" lon="-105.230575">
  <ele>1586.09</ele>
  <time>2026-08-28T19:12:36Z</time>
  <course>7.16</course>
  <speed>0.0</speed>
  <fix>3d</fix>
</trkpt>
<trkpt lat="40.072842" lon="-105.230575">
  <ele>1586.09</ele>
  <time>2026-08-28T19:12:36Z</time>
  <course>59.22</course>
  <speed>0.0</speed>
  <fix>3d</fix>
</trkpt>
<trkpt lat="40.072842" lon="-105.230575">
  <ele>1586.09</ele>
  <time>2026-08-28T19:12:36Z</time>
  <course>7.58</course>
  <speed>0.0</speed>
  <fix>3d</fix>
</trkpt>
<trkpt lat="40.072842" lon="-105.230575">
  <ele>1586.09</ele>
  <time>2026-08-28T19:12:36Z</time>
  <course>78.2</course>
  <speed>0.0</speed>
  <fix>3d</fix>
</trkpt>
<trkpt lat="40.072842" lon="-105.230575">
  <ele>1586.09</ele>
  <time>2026-08-28T19:12:36Z</time>
  <course>7.97</course>
  <speed>0.0</speed>
  <fix>3d</fix>
</trkpt>
<trkpt lat="40.072842" lon="-105.230575">
  <ele>1586.09</ele>
  <time>2026-08-28T19:12:36Z</time>
  <course>275.97</course>
  <speed>0.0</speed>
  <fix>3d</fix>
</trkpt>
<trkpt lat="40.072842" lon="-105.230575">
  <ele>1586.09</ele>
  <time>2026-08-28T19:12:36Z</time>
  <course>8.33</course>
  <speed>0.0</speed>
  <fix>3d</fix>
</trkpt>
<trkpt lat="40.072842" lon="-105.230575">
  <ele>1586.09</ele>
  <time>2026-08-28T19:12:36Z</time>
  <course>272.6</course>
  <speed>0.0</speed>
  <fix>3d</fix>
</trkpt>
<trkpt lat="40.072842" lon="-105.230575">
  <ele>1586.09</ele>
  <time>2026-08-28T19:12:36Z</time>
  <course>8.66</course>
  <speed>0.0</speed>
  <fix>3d</fix>
</trkpt>
<trkpt lat="40.072842" lon="-105.230575">
  <ele>1586.09</ele>
  <time>2026-08-28T19:12:36Z</time>
  <course>135.8</course>
  <speed>0.0</speed>
  <fix>3d</fix>
</trkpt>
<trkpt lat="40.072842" lon="-105.230575">
  <ele>1586.09</ele>
  <time>2026-08-28T19:12:36Z</time>
  <course>8.97</course>
  <speed>0.0</speed>
  <fix>3d</fix>
</trkpt>
<trkpt lat="40.072842" lon="-105.230575">
  <ele>1586.09</ele>
  <time>2026-08-28T19:12:36Z</time>
  <course>4.81</course>
  <speed>0.0</speed>
  <fix>3d</fix>
</trkpt>
<trkpt lat="40.072842" lon="-105.230575">
  <ele>1586.09</ele>
  <time>2026-08-28T19:12:36Z</time>
  <course>9.25</course>
  <speed>0.0</speed>
  <fix>3d</fix>
</trkpt>
<trkpt lat="40.072842" lon="-105.230575">
  <ele>1586.09</ele>
  <time>2026-08-28T19:12:36Z</time>
  <course>333.21</course>
  <speed>0.0</speed>
  <fix>3d</fix>
</trkpt>
<trkpt lat="40.072842" lon="-105.230575">
  <ele>1586.09</ele>
  <time>2026-08-28T19:12:36Z</time>
  <course>9.52</course>
  <speed>0.0</speed>
  <fix>3d</fix>
</trkpt>
<trkpt lat="40.072842" lon="-105.230575">
  <ele>1586.09</ele>
  <time>2026-08-28T19:12:36Z</time>
  <course>207.41</course>
  <speed>0.0</speed>
  <fix>3d</fix>
</trkpt>
<trkpt lat="40.072842" lon="-105.230575">
  <ele>1586.09</ele>
  <time>2026-08-28T19:12:36Z</time>
  <course>9.76</course>
  <speed>0.0</speed>
  <fix>3d</fix>
</trkpt>
<trkpt lat="40.072842" lon="-105.230575">
  <ele>1586.09</ele>
  <time>2026-08-28T19:12:36Z</time>
  <course>250.02</course>
  <speed>0.0</speed>
  <fix>3d</fix>
</trkpt>
<trkpt lat="40.072842" lon="-105.230575">
  <ele>1586.09</ele>
  <time>2026-08-28T19:12:36Z</time>
  <course>9.98</course>
  <speed>0.0</speed>
  <fix>3d</fix>
</trkpt>
<trkpt lat="40.072842" lon="-105.230575">
  <ele>1586.09</ele>
  <time>2026-08-28T19:12:36Z</time>
  <course>260.86</course>
  <speed>0.0</speed>
  <fix>3d</fix>
</trkpt>
<trkpt lat="40.072842" lon="-105.230575">
  <ele>1586.09</ele>
  <time>2026-08-28T19:12:36Z</time>
  <course>10.18</course>
  <speed>0.0</speed>
  <fix>3d</fix>
</trkpt>
<trkpt lat="40.072842" lon="-105.230575">
  <ele>1586.09</ele>
  <time>2026-08-28T19:12:36Z</time>
  <course>291.3</course>
  <speed>0.0</speed>
  <fix>3d</fix>
</trkpt>
<trkpt lat="40.072842" lon="-105.230575">
  <ele>1586.09</ele>
  <time>2026-08-28T19:12:36Z</time>
  <course>10.37</course>
  <speed>0.0</speed>
  <fix>3d</fix>
</trkpt>
<trkpt lat="40.072842" lon="-105.230575">
  <ele>1586.09</ele>
  <time>2026-08-28T19:12:36Z</time>
  <course>266.59</course>
  <speed>0.0</speed>
  <fix>3d</fix>
</trkpt>
<trkpt lat="40.072842" lon="-105.230575">
  <ele>1586.09</ele>
  <time>2026-08-28T19:12:36Z</time>
  <course>10.54</course>
  <speed>0.0</speed>
  <fix>3d</fix>
</trkpt>
<trkpt lat="40.072842" lon="-105.230575">
  <ele>1586.09</ele>
  <time>2026-08-28T19:12:36Z</time>
  <course>264.88</course>
  <speed>0.0</speed>
  <fix>3d</fix>
</trkpt>
<trkpt lat="40.072842" lon="-105.230575">
  <ele>1586.09</ele>
  <time>2026-08-28T19:12:36Z</time>
  <course>10.69</course>
  <speed>0.0</speed>
  <fix>3d</fix>
</trkpt>
<trkpt lat="40.072842" lon="-105.230575">
  <ele>1586.09</ele>
  <time>2026-08-28T19:12:36Z</time>
  <course>266.12</course>
  <speed>0.0</speed>
  <fix>3d</fix>
</trkpt>
<trkpt lat="40.072842" lon="-105.230575">
  <ele>1586.09</ele>
  <time>2026-08-28T19:12:36Z</time>
  <course>10.83</course>
  <speed>0.0</speed>
  <fix>3d</fix>
</trkpt>
<trkpt lat="40.072842" lon="-105.230575">
  <ele>1586.09</ele>
  <time>2026-08-28T19:12:36Z</time>
  <course>266.2</course>
  <speed>0.0</speed>
  <fix>3d</fix>
</trkpt>
<trkpt lat="40.072842" lon="-105.230575">
  <ele>1586.09</ele>
  <time>2026-08-28T19:12:36Z</time>
  <course>10.96</course>
  <speed>0.0</speed>
  <fix>3d</fix>
</trkpt>
<trkpt lat="40.072842" lon="-105.230575">
  <ele>1586.09</ele>
  <time>2026-08-28T19:12:36Z</time>
  <course>266.0</course>
  <speed>0.0</speed>
  <fix>3d</fix>
</trkpt>
<trkpt lat="40.072842" lon="-105.230575">
  <ele>1586.09</ele>
  <time>2026-08-28T19:12:36Z</time>
  <course>11.08</course>
  <speed>0.0</speed>
  <fix>3d</fix>
</trkpt>
<trkpt lat="40.072842" lon="-105.230575">
  <ele>1586.09</ele>
  <time>2026-08-28T19:12:36Z</time>
  <course>266.02</course>
  <speed>0.0</speed>
  <fix>3d</fix>
</trkpt>
<trkpt lat="40.072842" lon="-105.230575">
  <ele>1586.09</ele>
  <time>2026-08-28T19:12:36Z</time>
  <course>11.19</course>
  <speed>0.0</speed>
  <fix>3d</fix>
</trkpt>
<trkpt lat="40.072842" lon="-105.230575">
  <ele>1586.09</ele>
  <time>2026-08-28T19:12:36Z</time>
  <course>266.04</course>
  <speed>0.0</speed>
  <fix>3d</fix>
</trkpt>
<trkpt lat="40.072842" lon="-105.230575">
  <ele>1586.09</ele>
  <time>2026-08-28T19:12:36Z</time>
  <course>11.29</course>
  <speed>0.0</speed>
  <fix>3d</fix>
</trkpt>
<trkpt lat="40.072842" lon="-105.230575">
  <ele>1586.09</ele>
  <time>2026-08-28T19:12:36Z</time>
  <course>266.04</course>
  <speed>0.0</speed>
  <fix>3d</fix>
</trkpt>
<trkpt lat="40.072842" lon="-105.230575">
  <ele>1586.09</ele>
  <time>2026-08-28T19:12:36Z</time>
  <course>11.38</course>
  <speed>0.0</speed>
  <fix>3d</fix>
</trkpt>
<trkpt lat="40.072842" lon="-105.230575">
  <ele>1586.09</ele>
  <time>2026-08-28T19:12:36Z</time>
  <course>266.03</course>
  <speed>0.0</speed>
  <fix>3d</fix>
</trkpt>
<trkpt lat="40.072842" lon="-105.230575">
  <ele>1586.09</ele>
  <time>2026-08-28T19:12:36Z</time>
  <course>11.46</course>
  <speed>0.0</speed>
  <fix>3d</fix>
</trkpt>
<trkpt lat="40.072842" lon="-105.230575">
  <ele>1586.09</ele>
  <time>2026-08-28T19:12:36Z</time>
  <course>266.03</course>
  <speed>0.0</speed>
  <fix>3d</fix>
</trkpt>
<trkpt lat="40.072842" lon="-105.230575">
  <ele>1586.09</ele>
  <time>2026-08-28T19:12:36Z</time>
  <course>11.53</course>
  <speed>0.0</speed>
  <fix>3d</fix>
</trkpt>
<trkpt lat="40.072842" lon="-105.230575">
  <ele>1586.09</ele>
  <time>2026-08-28T19:12:36Z</time>
  <course>266.03</course>
  <speed>0.0</speed>
  <fix>3d</fix>
</trkpt>
<trkpt lat="40.072842" lon="-105.230575">
  <ele>1586.09</ele>
  <time>2026-08-28T19:12:36Z</time>
  <course>11.6</course>
  <speed>0.0</speed>
  <fix>3d</fix>
</trkpt>
<trkpt lat="40.072842" lon="-105.230575">
  <ele>1586.09</ele>
  <time>2026-08-28T19:12:36Z</time>
  <course>266.03</course>
  <speed>0.0</speed>
  <fix>3d</fix>
</trkpt>
<trkpt lat="40.072842" lon="-105.230575">
  <ele>1586.09</ele>
  <time>2026-08-28T19:12:36Z</time>
  <course>11.66</course>
  <speed>0.0</speed>
  <fix>3d</fix>
</trkpt>
<trkpt lat="40.072842" lon="-105.230575">
  <ele>1586.09</ele>
  <time>2026-08-28T19:12:36Z</time>
  <course>266.03</course>
  <speed>0.0</speed>
  <fix>3d</fix>
</trkpt>
<trkpt lat="40.072842" lon="-105.230575">
  <ele>1586.09</ele>
  <time>2026-08-28T19:12:36Z</time>
  <course>11.72</course>
  <speed>0.0</speed>
  <fix>3d</fix>
</trkpt>
<trkpt lat="40.072842" lon="-105.230575">
  <ele>1586.09</ele>
  <time>2026-08-28T19:12:36Z</time>
  <course>266.03</course>
  <speed>0.0</speed>
  <fix>3d</fix>
</trkpt>
<trkpt lat="40.072842" lon="-105.230575">
  <ele>1586.09</ele>
  <time>2026-08-28T19:12:36Z</time>
  <course>11.77</course>
  <speed>0.0</speed>
  <fix>3d</fix>
</trkpt>
<trkpt lat="40.072842" lon="-105.230575">
  <ele>1586.09</ele>
  <time>2026-08-28T19:12:36Z</time>
  <course>266.03</course>
  <speed>0.0</speed>
  <fix>3d</fix>
</trkpt>
<trkpt lat="40.072842" lon="-105.230575">
  <ele>1586.09</ele>
  <time>2026-08-28T19:12:36Z</time>
  <course>11.82</course>
  <speed>0.0</speed>
  <fix>3d</fix>
</trkpt>
<trkpt lat="40.072842" lon="-105.230575">
  <ele>1586.09</ele>
  <time>2026-08-28T19:12:36Z</time>
  <course>266.03</course>
  <speed>0.0</speed>
  <fix>3d</fix>
</trkpt>
<trkpt lat="40.072842" lon="-105.230575">
  <ele>1586.09</ele>
  <time>2026-08-28T19:12:36Z</time>
  <course>11.86</course>
  <speed>0.0</speed>
  <fix>3d</fix>
</trkpt>
<trkpt lat="40.072842" lon="-105.230575">
  <ele>1586.09</ele>
  <time>2026-08-28T19:12:36Z</time>
  <course>266.03</course>
  <speed>0.0</speed>
  <fix>3d</fix>
</trkpt>
<trkpt lat="40.072842" lon="-105.230575">
  <ele>1586.09</ele>
  <time>2026-08-28T19:12:36Z</time>
  <course>11.89</course>
  <speed>0.0</speed>
  <fix>3d</fix>
</trkpt>
<trkpt lat="40.072842" lon="-105.230575">
  <ele>1586.09</ele>
  <time>2026-08-28T19:12:36Z</time>
  <course>266.03</course>
  <speed>0.0</speed>
  <fix>3d</fix>
</trkpt>
<trkpt lat="40.072842" lon="-105.230575">
  <ele>1586.09</ele>
  <time>2026-08-28T19:12:36Z</time>
  <course>11.93</course>
  <speed>0.0</speed>
  <fix>3d</fix>
</trkpt>
<trkpt lat="40.072842" lon="-105.230575">
  <ele>1586.09</ele>
  <time>2026-08-28T19:12:36Z</time>
  <course>266.03</course>
  <speed>0.0</speed>
  <fix>3d</fix>
</trkpt>
<trkpt lat="40.072842" lon="-105.230575">
  <ele>1586.09</ele>
  <time>2026-08-28T19:12:36Z</time>
  <course>11.96</course>
  <speed>0.0</speed>
  <fix>3d</fix>
</trkpt>
<trkpt lat="40.072842" lon="-105.230575">
  <ele>1586.09</ele>
  <time>2026-08-28T19:12:36Z</time>
  <course>266.03</course>
  <speed>0.0</speed>
  <fix>3d</fix>
</trkpt>
<trkpt lat="40.072842" lon="-105.230575">
  <ele>1586.09</ele>
  <time>2026-08-28T19:12:36Z</time>
  <course>11.98</course>
  <speed>0.0</speed>
  <fix>3d</fix>
</trkpt>
<trkpt lat="40.072842" lon="-105.230575">
  <ele>1586.09</ele>
  <time>2026-08-28T19:12:36Z</time>
  <course>266.03</course>
  <speed>0.0</speed>
  <fix>3d</fix>
</trkpt>
<trkpt lat="40.072842" lon="-105.230575">
  <ele>1586.09</ele>
  <time>2026-08-28T19:12:36Z</time>
  <course>12.0</course>
  <speed>0.0</speed>
  <fix>3d</fix>
</trkpt>
<trkpt lat="40.072842" lon="-105.230575">
  <ele>1586.09</ele>
  <time>2026-08-28T19:12:36Z</time>
  <course>266.03</course>
  <speed>0.0</speed>
  <fix>3d</fix>
</trkpt>
<trkpt lat="40.072842" lon="-105.230575">
  <ele>1586.09</ele>
  <time>2026-08-28T19:12:36Z</time>
  <course>12.02</course>
  <speed>0.0</speed>
  <fix>3d</fix>
</trkpt>
<trkpt lat="40.072842" lon="-105.230575">
  <ele>1586.09</ele>
  <time>2026-08-28T19:12:36Z</time>
  <course>266.03</course>
  <speed>0.0</speed>
  <fix>3d</fix>
</trkpt>
<trkpt lat="40.072842" lon="-105.230575">
  <ele>1586.09</ele>
  <time>2026-08-28T19:12:36Z</time>
  <course>12.04</course>
  <speed>0.0</speed>
  <fix>3d</fix>
</trkpt>
<trkpt lat="40.072842" lon="-105.230575">
  <ele>1586.09</ele>
  <time>2026-08-28T19:12:36Z</time>
  <course>266.03</course>
  <speed>0.0</speed>
  <fix>3d</fix>
</trkpt>
<trkpt lat="40.072842" lon="-105.230575">
  <ele>1586.09</ele>
  <time>2026-08-28T19:12:36Z</time>
  <course>12.06</course>
  <speed>0.0</speed>
  <fix>3d</fix>
</trkpt>
<trkpt lat="40.072842" lon="-105.230575">
  <ele>1586.09</ele>
  <time>2026-08-28T19:12:36Z</time>
  <course>266.03</course>
  <speed>0.0</speed>
  <fix>3d</fix>
</trkpt>
<trkpt lat="40.072842" lon="-105.230575">
  <ele>1586.09</ele>
  <time>2026-08-28T19:12:36Z</time>
  <course>12.07</course>
  <speed>0.0</speed>
  <fix>3d</fix>
</trkpt>
<trkpt lat="40.072842" lon="-105.230575">
  <ele>1586.09</ele>
  <time>2026-08-28T19:12:36Z</time>
  <course>266.03</course>
  <speed>0.0</speed>
  <fix>3d</fix>
</trkpt>
<trkpt lat="40.072842" lon="-105.230575">
  <ele>1586.09</ele>
  <time>2026-08-28T19:12:36Z</time>
  <course>12.08</course>
  <speed>0.0</speed>
  <fix>3d</fix>
</trkpt>
<trkpt lat="40.072842" lon="-105.230575">
  <ele>1586.09</ele>
  <time>2026-08-28T19:12:36Z</time>
  <course>266.03</course>
  <speed>0.0</speed>
  <fix>3d</fix>
</trkpt>
<trkpt lat="40.072842" lon="-105.230575">
  <ele>1586.09</ele>
  <time>2026-08-28T19:12:36Z</time>
  <course>12.09</course>
  <speed>0.0</speed>
  <fix>3d</fix>
</trkpt>
<trkpt lat="40.072842" lon="-105.230575">
  <ele>1586.09</ele>
  <time>2026-08-28T19:12:36Z</time>
  <course>266.03</course>
  <speed>0.0</speed>
  <fix>3d</fix>
</trkpt>
<trkpt lat="40.072842" lon="-105.230575">
  <ele>1586.09</ele>
  <time>2026-08-28T19:12:36Z</time>
  <course>12.1</course>
  <speed>0.0</speed>
  <fix>3d</fix>
</trkpt>
<trkpt lat="40.072842" lon="-105.230575">
  <ele>1586.09</ele>
  <time>2026-08-28T19:12:36Z</time>
  <course>266.03</course>
  <speed>0.0</speed>
  <fix>3d</fix>
</trkpt>
<trkpt lat="40.072842" lon="-105.230575">
  <ele>1586.09</ele>
  <time>2026-08-28T19:12:36Z</time>
  <course>12.11</course>
  <speed>0.0</speed>
  <fix>3d</fix>
</trkpt>
<trkpt lat="40.072842" lon="-105.230575">
  <ele>1586.09</ele>
  <time>2026-08-28T19:12:36Z</time>
  <course>266.03</course>
  <speed>0.0</speed>
  <fix>3d</fix>
</trkpt>
<trkpt lat="40.072842" lon="-105.230575">
  <ele>1586.09</ele>
  <time>2026-08-28T19:12:36Z</time>
  <course>12.11</course>
  <speed>0.0</speed>
  <fix>3d</fix>
</trkpt>
<trkpt lat="40.072842" lon="-105.230575">
  <ele>1586.09</ele>
  <time>2026-08-28T19:12:36Z</time>
  <course>266.03</course>
  <speed>0.0</speed>
  <fix>3d</fix>
</trkpt>
<trkpt lat="40.072842" lon="-105.230575">
  <ele>1586.09</ele>
  <time>2026-08-28T19:12:36Z</time>
  <course>12.12</course>
  <speed>0.0</speed>
  <fix>3d</fix>
</trkpt>
<trkpt lat="40.072842" lon="-105.230575">
  <ele>1586.09</ele>
  <time>2026-08-28T19:12:36Z</time>
  <course>266.03</course>
  <speed>0.0</speed>
  <fix>3d</fix>
</trkpt>
<trkpt lat="40.072842" lon="-105.230575">
  <ele>1586.09</ele>
  <time>2026-08-28T19:12:36Z</time>
  <course>12.12</course>
  <speed>0.0</speed>
  <fix>3d</fix>
</trkpt>
<trkpt lat="40.072842" lon="-105.230575">
  <ele>1586.09</ele>
  <time>2026-08-28T19:12:36Z</time>
  <course>266.03</course>
  <speed>0.0</speed>
  <fix>3d</fix>
</trkpt>
<trkpt lat="40.072842" lon="-105.230575">
  <ele>1586.09</ele>
  <time>2026-08-28T19:12:36Z</time>
  <course>12.12</course>
  <speed>0.0</speed>
  <fix>3d</fix>
</trkpt>
<trkpt lat="40.072842" lon="-105.230575">
  <ele>1586.09</ele>
  <time>2026-08-28T19:12:36Z</time>
  <course>266.03</course>
  <speed>0.0</speed>
  <fix>3d</fix>
</trkpt>
<trkpt lat="40.072842" lon="-105.230575">
  <ele>1586.09</ele>
  <time>2026-08-28T19:12:36Z</time>
  <course>12.12</course>
  <speed>0.0</speed>
  <fix>3d</fix>
</trkpt>
<trkpt lat="40.072842" lon="-105.230575">
  <ele>1586.09</ele>
  <time>2026-08-28T19:12:36Z</time>
  <course>266.03</course>
  <speed>0.0</speed>
  <fix>3d</fix>
</trkpt>
<trkpt lat="40.072842" lon="-105.230575">
  <ele>1586.09</ele>
  <time>2026-08-28T19:12:36Z</time>
  <course>12.12</course>
  <speed>0.0</speed>
  <fix>3d</fix>
</trkpt>
<trkpt lat="40.072842" lon="-105.230575">
  <ele>1586.09</ele>
  <time>2026-08-28T19:12:36Z</time>
  <course>266.03</course>
  <speed>0.0</speed>
  <fix>3d</fix>
</trkpt>
<trkpt lat="40.072842" lon="-105.230575">
  <ele>1586.09</ele>
  <time>2026-08-28T19:12:36Z</time>
  <course>12.12</course>
  <speed>0.01</speed>
  <fix>3d</fix>
</trkpt>
<trkpt lat="40.072842" lon="-105.230575">
  <ele>1586.09</ele>
  <time>2026-08-28T19:12:36Z</time>
  <course>266.03</course>
  <speed>0.0</speed>
  <fix>3d</fix>
</trkpt>
<trkpt lat="40.072842" lon="-105.230575">
  <ele>1586.09</ele>
  <time>2026-08-28T19:12:36Z</time>
  <course>12.12</course>
  <speed>0.01</speed>
  <fix>3d</fix>
</trkpt>
<trkpt lat="40.072842" lon="-105.230575">
  <ele>1586.09</ele>
  <time>2026-08-28T19:12:36Z</time>
  <course>266.03</course>
  <speed>0.0</speed>
  <fix>3d</fix>
</trkpt>
<trkpt lat="40.072842" lon="-105.230575">
  <ele>1586.09</ele>
  <time>2026-08-28T19:12:36Z</time>
  <course>12.12</course>
  <speed>0.01</speed>
  <fix>3d</fix>
</trkpt>
<trkpt lat="40.072842" lon="-105.230575">
  <ele>1586.09</ele>
  <time>2026-08-28T19:12:36Z</time>
  <course>266.03</course>
  <speed>0.0</speed>
  <fix>3d</fix>
</trkpt>
<trkpt lat="40.072842" lon="-105.230575">
  <ele>1586.09</ele>
  <time>2026-08-28T19:12:36Z</time>
  <course>12.12</course>
  <speed>0.01</speed>
  <fix>3d</fix>
</trkpt>
<trkpt lat="40.072842" lon="-105.230575">
  <ele>1586.09</ele>
  <time>2026-08-28T19:12:36Z</time>
  <course>266.03</course>
  <speed>0.0</speed>
  <fix>3d</fix>
</trkpt>
<trkpt lat="40.072842" lon="-105.230575">
  <ele>1586.09</ele>
  <time>2026-08-28T19:12:36Z</time>
  <course>12.11</course>
  <speed>0.01</speed>
  <fix>3d</fix>
</trkpt>
<trkpt lat="40.072842" lon="-105.230575">
  <ele>1586.09</ele>
  <time>2026-08-28T19:12:36Z</time>
  <course>266.03</course>
  <speed>0.0</speed>
  <fix>3d</fix>
</trkpt>
<trkpt lat="40.072842" lon="-105.230575">
  <ele>1586.09</ele>
  <time>2026-08-28T19:12:36Z</time>
  <course>12.11</course>
  <speed>0.01</speed>
  <fix>3d</fix>
</trkpt>
<trkpt lat="40.072842" lon="-105.230575">
  <ele>1586.09</ele>
  <time>2026-08-28T19:12:36Z</time>
  <course>266.03</course>
  <speed>0.0</speed>
  <fix>3d</fix>
</trkpt>
<trkpt lat="40.072842" lon="-105.230575">
  <ele>1586.09</ele>
  <time>2026-08-28T19:12:36Z</time>
  <course>12.11</course>
  <speed>0.01</speed>
  <fix>3d</fix>
</trkpt>
<trkpt lat="40.072842" lon="-105.230575">
  <ele>1586.09</ele>
  <time>2026-08-28T19:12:36Z</time>
  <course>266.03</course>
  <speed>0.0</speed>
  <fix>3d</fix>
</trkpt>
<trkpt lat="40.072842" lon="-105.230575">
  <ele>1586.09</ele>
  <time>2026-08-28T19:12:36Z</time>
  <course>12.1</course>
  <speed>0.01</speed>
  <fix>3d</fix>
</trkpt>
<trkpt lat="40.072842" lon="-105.230575">
  <ele>1586.09</ele>
  <time>2026-08-28T19:12:36Z</time>
  <course>266.03</course>
  <speed>0.0</speed>
  <fix>3d</fix>
</trkpt>
<trkpt lat="40.072842" lon="-105.230575">
  <ele>1586.09</ele>
  <time>2026-08-28T19:12:36Z</time>
  <course>12.1</course>
  <speed>0.01</speed>
  <fix>3d</fix>
</trkpt>
<trkpt lat="40.072842" lon="-105.230575">
  <ele>1586.09</ele>
  <time>2026-08-28T19:12:36Z</time>
  <course>266.03</course>
  <speed>0.0</speed>
  <fix>3d</fix>
</trkpt>
<trkpt lat="40.072842" lon="-105.230575">
  <ele>1586.09</ele>
  <time>2026-08-28T19:12:36Z</time>
  <course>12.09</course>
  <speed>0.01</speed>
  <fix>3d</fix>
</trkpt>
<trkpt lat="40.072842" lon="-105.230575">
  <ele>1586.09</ele>
  <time>2026-08-28T19:12:36Z</time>
  <course>266.03</course>
  <speed>0.0</speed>
  <fix>3d</fix>
</trkpt>
<trkpt lat="40.072842" lon="-105.230575">
  <ele>1586.09</ele>
  <time>2026-08-28T19:12:36Z</time>
  <course>12.09</course>
  <speed>0.01</speed>
  <fix>3d</fix>
</trkpt>
<trkpt lat="40.072842" lon="-105.230575">
  <ele>1586.09</ele>
  <time>2026-08-28T19:12:36Z</time>
  <course>266.03</course>
  <speed>0.0</speed>
  <fix>3d</fix>
</trkpt>
<trkpt lat="40.072842" lon="-105.230575">
  <ele>1586.09</ele>
  <time>2026-08-28T19:12:36Z</time>
  <course>12.08</course>
  <speed>0.01414213562373095</speed>
  <fix>3d</fix>
</trkpt>
<trkpt lat="40.072842" lon="-105.230575">
  <ele>1586.09</ele>
  <time>2026-08-28T19:12:36Z</time>
  <course>266.03</course>
  <speed>0.0</speed>
  <fix>3d</fix>
</trkpt>
<trkpt lat="40.072842" lon="-105.230575">
  <ele>1586.09</ele>
  <time>2026-08-28T19:12:36Z</time>
  <course>12.07</course>
  <speed>0.01414213562373095</speed>
  <fix>3d</fix>
</trkpt>
<trkpt lat="40.072842" lon="-105.230575">
  <ele>1586.09</ele>
  <time>2026-08-28T19:12:36Z</time>
  <course>266.03</course>
  <speed>0.0</speed>
  <fix>3d</fix>
</trkpt>
<trkpt lat="40.072842" lon="-105.230575">
  <ele>1586.09</ele>
  <time>2026-08-28T19:12:36Z</time>
  <course>12.07</course>
  <speed>0.01414213562373095</speed>
  <fix>3d</fix>
</trkpt>
<trkpt lat="40.072842" lon="-105.230575">
  <ele>1586.09</ele>
  <time>2026-08-28T19:12:36Z</time>
  <course>266.03</course>
  <speed>0.0</speed>
  <fix>3d</fix>
</trkpt>
<trkpt lat="40.072842" lon="-105.230575">
  <ele>1586.09</ele>
  <time>2026-08-28T19:12:36Z</time>
  <course>12.06</course>
  <speed>0.01414213562373095</speed>
  <fix>3d</fix>
</trkpt>
<trkpt lat="40.072842" lon="-105.230575">
  <ele>1586.09</ele>
  <time>2026-08-28T19:12:36Z</time>
  <course>266.03</course>
  <speed>0.0</speed>
  <fix>3d</fix>
</trkpt>
<trkpt lat="40.072842" lon="-105.230575">
  <ele>1586.09</ele>
  <time>2026-08-28T19:12:36Z</time>
  <course>12.05</course>
  <speed>0.01414213562373095</speed>
  <fix>3d</fix>
</trkpt>
<trkpt lat="40.072842" lon="-105.230575">
  <ele>1586.09</ele>
  <time>2026-08-28T19:12:36Z</time>
  <course>266.03</course>
  <speed>0.0</speed>
  <fix>3d</fix>
</trkpt>
<trkpt lat="40.072842" lon="-105.230575">
  <ele>1586.09</ele>
  <time>2026-08-28T19:12:36Z</time>
  <course>12.05</course>
  <speed>0.01414213562373095</speed>
  <fix>3d</fix>
</trkpt>
<trkpt lat="40.072842" lon="-105.230575">
  <ele>1586.09</ele>
  <time>2026-08-28T19:12:36Z</time>
  <course>266.03</course>
  <speed>0.0</speed>
  <fix>3d</fix>
</trkpt>
<trkpt lat="40.072842" lon="-105.230575">
  <ele>1586.09</ele>
  <time>2026-08-28T19:12:36Z</time>
  <course>12.04</course>
  <speed>0.01414213562373095</speed>
  <fix>3d</fix>
</trkpt>
<trkpt lat="40.072842" lon="-105.230575">
  <ele>1586.09</ele>
  <time>2026-08-28T19:12:36Z</time>
  <course>266.03</course>
  <speed>0.0</speed>
  <fix>3d</fix>
</trkpt>
<trkpt lat="40.072842" lon="-105.230575">
  <ele>1586.09</ele>
  <time>2026-08-28T19:12:36Z</time>
  <course>12.03</course>
  <speed>0.01414213562373095</speed>
  <fix>3d</fix>
</trkpt>
<trkpt lat="40.072842" lon="-105.230575">
  <ele>1586.09</ele>
  <time>2026-08-28T19:12:36Z</time>
  <course>266.03</course>
  <speed>0.0</speed>
  <fix>3d</fix>
</trkpt>
<trkpt lat="40.072842" lon="-105.230575">
  <ele>1586.09</ele>
  <time>2026-08-28T19:12:36Z</time>
  <course>12.03</course>
  <speed>0.01414213562373095</speed>
  <fix>3d</fix>
</trkpt>
<trkpt lat="40.072842" lon="-105.230575">
  <ele>1586.09</ele>
  <time>2026-08-28T19:12:36Z</time>
  <course>266.03</course>
  <speed>0.0</speed>
  <fix>3d</fix>
</trkpt>
<trkpt lat="40.072842" lon="-105.230575">
  <ele>1586.09</ele>
  <time>2026-08-28T19:12:36Z</time>
  <course>12.02</course>
  <speed>0.01414213562373095</speed>
  <fix>3d</fix>
</trkpt>
<trkpt lat="40.072842" lon="-105.230575">
  <ele>1586.09</ele>
  <time>2026-08-28T19:12:36Z</time>
  <course>266.03</course>
  <speed>0.0</speed>
  <fix>3d</fix>
</trkpt>
<trkpt lat="40.072842" lon="-105.230575">
  <ele>1586.09</ele>
  <time>2026-08-28T19:12:36Z</time>
  <course>12.01</course>
  <speed>0.01414213562373095</speed>
  <fix>3d</fix>
</trkpt>
<trkpt lat="40.072842" lon="-105.230575">
  <ele>1586.09</ele>
  <time>2026-08-28T19:12:36Z</time>
  <course>266.03</course>
  <speed>0.0</speed>
  <fix>3d</fix>
</trkpt>
<trkpt lat="40.072842" lon="-105.230575">
  <ele>1586.09</ele>
  <time>2026-08-28T19:12:36Z</time>
  <course>12.0</course>
  <speed>0.01414213562373095</speed>
  <fix>3d</fix>
</trkpt>
<trkpt lat="40.072842" lon="-105.230575">
  <ele>1586.09</ele>
  <time>2026-08-28T19:12:36Z</time>
  <course>266.03</course>
  <speed>0.0</speed>
  <fix>3d</fix>
</trkpt>
<trkpt lat="40.072842" lon="-105.230575">
  <ele>1586.09</ele>
  <time>2026-08-28T19:12:36Z</time>
  <course>11.99</course>
  <speed>0.01414213562373095</speed>
  <fix>3d</fix>
</trkpt>
<trkpt lat="40.072842" lon="-105.230575">
  <ele>1586.09</ele>
  <time>2026-08-28T19:12:36Z</time>
  <course>266.03</course>
  <speed>0.0</speed>
  <fix>3d</fix>
</trkpt>
<trkpt lat="40.072842" lon="-105.230575">
  <ele>1586.09</ele>
  <time>2026-08-28T19:12:36Z</time>
  <course>11.99</course>
  <speed>0.01414213562373095</speed>
  <fix>3d</fix>
</trkpt>
<trkpt lat="40.072842" lon="-105.230575">
  <ele>1586.09</ele>
  <time>2026-08-28T19:12:36Z</time>
  <course>266.03</course>
  <speed>0.0</speed>
  <fix>3d</fix>
</trkpt>
<trkpt lat="40.072842" lon="-105.230575">
  <ele>1586.09</ele>
  <time>2026-08-28T19:12:36Z</time>
  <course>11.98</course>
  <speed>0.01414213562373095</speed>
  <fix>3d</fix>
</trkpt>
<trkpt lat="40.072842" lon="-105.230575">
  <ele>1586.09</ele>
  <time>2026-08-28T19:12:36Z</time>
  <course>266.03</course>
  <speed>0.0</speed>
  <fix>3d</fix>
</trkpt>
<trkpt lat="40.072842" lon="-105.230575">
  <ele>1586.09</ele>
  <time>2026-08-28T19:12:36Z</time>
  <course>11.97</course>
  <speed>0.01414213562373095</speed>
  <fix>3d</fix>
</trkpt>
<trkpt lat="40.072842" lon="-105.230575">
  <ele>1586.09</ele>
  <time>2026-08-28T19:12:36Z</time>
  <course>266.03</course>
  <speed>0.0</speed>
  <fix>3d</fix>
</trkpt>
<trkpt lat="40.072842" lon="-105.230575">
  <ele>1586.09</ele>
  <time>2026-08-28T19:12:36Z</time>
  <course>11.96</course>
  <speed>0.022360679774997897</speed>
  <fix>3d</fix>
</trkpt>
<trkpt lat="40.072842" lon="-105.230575">
  <ele>1586.09</ele>
  <time>2026-08-28T19:12:36Z</time>
  <course>266.03</course>
  <speed>0.0</speed>
  <fix>3d</fix>
</trkpt>
<trkpt lat="40.072842" lon="-105.230575">
  <ele>1586.09</ele>
  <time>2026-08-28T19:12:36Z</time>
  <course>11.95</course>
  <speed>0.022360679774997897</speed>
  <fix>3d</fix>
</trkpt>
<trkpt lat="40.072842" lon="-105.230575">
  <ele>1586.09</ele>
  <time>2026-08-28T19:12:36Z</time>
  <course>266.03</course>
  <speed>0.0</speed>
  <fix>3d</fix>
</trkpt>
<trkpt lat="40.072842" lon="-105.230575">
  <ele>1586.09</ele>
  <time>2026-08-28T19:12:36Z</time>
  <course>11.95</course>
  <speed>0.022360679774997897</speed>
  <fix>3d</fix>
</trkpt>
<trkpt lat="40.072842" lon="-105.230575">
  <ele>1586.09</ele>
  <time>2026-08-28T19:12:36Z</time>
  <course>266.03</course>
  <speed>0.0</speed>
  <fix>3d</fix>
</trkpt>
<trkpt lat="40.072842" lon="-105.230575">
  <ele>1586.09</ele>
  <time>2026-08-28T19:12:36Z</time>
  <course>11.94</course>
  <speed>0.022360679774997897</speed>
  <fix>3d</fix>
</trkpt>
<trkpt lat="40.072842" lon="-105.230575">
  <ele>1586.09</ele>
  <time>2026-08-28T19:12:36Z</time>
  <course>266.03</course>
  <speed>0.0</speed>
  <fix>3d</fix>
</trkpt>
<trkpt lat="40.072842" lon="-105.230575">
  <ele>1586.09</ele>
  <time>2026-08-28T19:12:36Z</time>
  <course>11.93</course>
  <speed>0.022360679774997897</speed>
  <fix>3d</fix>
</trkpt>
<trkpt lat="40.072842" lon="-105.230575">
  <ele>1586.09</ele>
  <time>2026-08-28T19:12:36Z</time>
  <course>266.03</course>
  <speed>0.0</speed>
  <fix>3d</fix>
</trkpt>
<trkpt lat="40.072842" lon="-105.230575">
  <ele>1586.09</ele>
  <time>2026-08-28T19:12:36Z</time>
  <course>11.92</course>
  <speed>0.022360679774997897</speed>
  <fix>3d</fix>
</trkpt>
<trkpt lat="40.072842" lon="-105.230575">
  <ele>1586.09</ele>
  <time>2026-08-28T19:12:36Z</time>
  <course>266.03</course>
  <speed>0.0</speed>
  <fix>3d</fix>
</trkpt>
<trkpt lat="40.072842" lon="-105.230575">
  <ele>1586.09</ele>
  <time>2026-08-28T19:12:36Z</time>
  <course>11.91</course>
  <speed>0.022360679774997897</speed>
  <fix>3d</fix>
</trkpt>
<trkpt lat="40.072842" lon="-105.230575">
  <ele>1586.09</ele>
  <time>2026-08-28T19:12:36Z</time>
  <course>266.03</course>
  <speed>0.0</speed>
  <fix>3d</fix>
</trkpt>
<trkpt lat="40.072842" lon="-105.230575">
  <ele>1586.09</ele>
  <time>2026-08-28T19:12:36Z</time>
  <course>11.91</course>
  <speed>0.022360679774997897</speed>
  <fix>3d</fix>
</trkpt>
<trkpt lat="40.072842" lon="-105.230575">
  <ele>1586.09</ele>
  <time>2026-08-28T19:12:36Z</time>
  <course>266.03</course>
  <speed>0.0</speed>
  <fix>3d</fix>
</trkpt>
<trkpt lat="40.072842" lon="-105.230575">
  <ele>1586.09</ele>
  <time>2026-08-28T19:12:36Z</time>
  <course>11.9</course>
  <speed>0.022360679774997897</speed>
  <fix>3d</fix>
</trkpt>
<trkpt lat="40.072842" lon="-105.230575">
  <ele>1586.09</ele>
  <time>2026-08-28T19:12:36Z</time>
  <course>266.03</course>
  <speed>0.0</speed>
  <fix>3d</fix>
</trkpt>
<trkpt lat="40.072842" lon="-105.230575">
  <ele>1586.09</ele>
  <time>2026-08-28T19:12:36Z</time>
  <course>11.89</course>
  <speed>0.022360679774997897</speed>
  <fix>3d</fix>
</trkpt>
<trkpt lat="40.072842" lon="-105.230575">
  <ele>1586.09</ele>
  <time>2026-08-28T19:12:36Z</time>
  <course>266.03</course>
  <speed>0.0</speed>
  <fix>3d</fix>
</trkpt>
<trkpt lat="40.072842" lon="-105.230575">
  <ele>1586.09</ele>
  <time>2026-08-28T19:12:36Z</time>
  <course>11.88</course>
  <speed>0.022360679774997897</speed>
  <fix>3d</fix>
</trkpt>
<trkpt lat="40.072842" lon="-105.230575">
  <ele>1586.09</ele>
  <time>2026-08-28T19:12:36Z</time>
  <course>266.03</course>
  <speed>0.0</speed>
  <fix>3d</fix>
</trkpt>
<trkpt lat="40.072842" lon="-105.230575">
  <ele>1586.09</ele>
  <time>2026-08-28T19:12:36Z</time>
  <course>11.87</course>
  <speed>0.022360679774997897</speed>
  <fix>3d</fix>
</trkpt>
<trkpt lat="40.072842" lon="-105.230575">
  <ele>1586.09</ele>
  <time>2026-08-28T19:12:36Z</time>
  <course>266.03</course>
  <speed>0.0</speed>
  <fix>3d</fix>
</trkpt>
<trkpt lat="40.072842" lon="-105.230575">
  <ele>1586.09</ele>
  <time>2026-08-28T19:12:36Z</time>
  <course>11.86</course>
  <speed>0.022360679774997897</speed>
  <fix>3d</fix>
</trkpt>
<trkpt lat="40.072842" lon="-105.230575">
  <ele>1586.09</ele>
  <time>2026-08-28T19:12:36Z</time>
  <course>266.03</course>
  <speed>0.0</speed>
  <fix>3d</fix>
</trkpt>
<trkpt lat="40.072842" lon="-105.230575">
  <ele>1586.09</ele>
  <time>2026-08-28T19:12:36Z</time>
  <course>11.86</course>
  <speed>0.022360679774997897</speed>
  <fix>3d</fix>
</trkpt>
<trkpt lat="40.072842" lon="-105.230575">
  <ele>1586.09</ele>
  <time>2026-08-28T19:12:36Z</time>
  <course>266.03</course>
  <speed>0.0</speed>
  <fix>3d</fix>
</trkpt>
<trkpt lat="40.072842" lon="-105.230575">
  <ele>1586.09</ele>
  <time>2026-08-28T19:12:36Z</time>
  <course>11.85</course>
  <speed>0.022360679774997897</speed>
  <fix>3d</fix>
</trkpt>
<trkpt lat="40.072842" lon="-105.230575">
  <ele>1586.09</ele>
  <time>2026-08-28T19:12:36Z</time>
  <course>266.03</course>
  <speed>0.0</speed>
  <fix>3d</fix>
</trkpt>
<trkpt lat="40.072842" lon="-105.230575">
  <ele>1586.09</ele>
  <time>2026-08-28T19:12:36Z</time>
  <course>11.84</course>
  <speed>0.022360679774997897</speed>
  <fix>3d</fix>
</trkpt>
<trkpt lat="40.072842" lon="-105.230575">
  <ele>1586.09</ele>
  <time>2026-08-28T19:12:36Z</time>
  <course>266.03</course>
  <speed>0.0</speed>
  <fix>3d</fix>
</trkpt>
<trkpt lat="40.072842" lon="-105.230575">
  <ele>1586.09</ele>
  <time>2026-08-28T19:12:36Z</time>
  <course>11.83</course>
  <speed>0.022360679774997897</speed>
  <fix>3d</fix>
</trkpt>
<trkpt lat="40.072842" lon="-105.230575">
  <ele>1586.09</ele>
  <time>2026-08-28T19:12:36Z</time>
  <course>266.03</course>
  <speed>0.0</speed>
  <fix>3d</fix>
</trkpt>
<trkpt lat="40.072842" lon="-105.230575">
  <ele>1586.09</ele>
  <time>2026-08-28T19:12:36Z</time>
  <course>11.82</course>
  <speed>0.0282842712474619</speed>
  <fix>3d</fix>
</trkpt>
<trkpt lat="40.072842" lon="-105.230575">
  <ele>1586.09</ele>
  <time>2026-08-28T19:12:36Z</time>
  <course>266.03</course>
  <speed>0.0</speed>
  <fix>3d</fix>
</trkpt>
<trkpt lat="40.072842" lon="-105.230575">
  <ele>1586.09</ele>
  <time>2026-08-28T19:12:36Z</time>
  <course>11.82</course>
  <speed>0.0282842712474619</speed>
  <fix>3d</fix>
</trkpt>
<trkpt lat="40.072842" lon="-105.230575">
  <ele>1586.09</ele>
  <time>2026-08-28T19:12:36Z</time>
  <course>266.03</course>
  <speed>0.0</speed>
  <fix>3d</fix>
</trkpt>
<trkpt lat="40.072842" lon="-105.230575">
  <ele>1586.09</ele>
  <time>2026-08-28T19:12:36Z</time>
  <course>11.81</course>
  <speed>0.0282842712474619</speed>
  <fix>3d</fix>
</trkpt>
<trkpt lat="40.072842" lon="-105.230575">
  <ele>1586.09</ele>
  <time>2026-08-28T19:12:36Z</time>
  <course>266.03</course>
  <speed>0.0</speed>
  <fix>3d</fix>
</trkpt>
<trkpt lat="40.072842" lon="-105.230575">
  <ele>1586.09</ele>
  <time>2026-08-28T19:12:36Z</time>
  <course>11.8</course>
  <speed>0.0282842712474619</speed>
  <fix>3d</fix>
</trkpt>
<trkpt lat="40.072842" lon="-105.230575">
  <ele>1586.09</ele>
  <time>2026-08-28T19:12:36Z</time>
  <course>266.03</course>
  <speed>0.0</speed>
  <fix>3d</fix>
</trkpt>
<trkpt lat="40.072842" lon="-105.230575">
  <ele>1586.09</ele>
  <time>2026-08-28T19:12:36Z</time>
  <course>11.79</course>
  <speed>0.0282842712474619</speed>
  <fix>3d</fix>
</trkpt>
<trkpt lat="40.072842" lon="-105.230575">
  <ele>1586.09</ele>
  <time>2026-08-28T19:12:36Z</time>
  <course>266.03</course>
  <speed>0.0</speed>
  <fix>3d</fix>
</trkpt>
<trkpt lat="40.072842" lon="-105.230575">
  <ele>1586.09</ele>
  <time>2026-08-28T19:12:36Z</time>
  <course>11.78</course>
  <speed>0.0282842712474619</speed>
  <fix>3d</fix>
</trkpt>
<trkpt lat="40.072842" lon="-105.230575">
  <ele>1586.09</ele>
  <time>2026-08-28T19:12:36Z</time>
  <course>266.03</course>
  <speed>0.0</speed>
  <fix>3d</fix>
</trkpt>
<trkpt lat="40.072842" lon="-105.230575">
  <ele>1586.09</ele>
  <time>2026-08-28T19:12:36Z</time>
  <course>11.78</course>
  <speed>0.0282842712474619</speed>
  <fix>3d</fix>
</trkpt>
<trkpt lat="40.072842" lon="-105.230575">
  <ele>1586.09</ele>
  <time>2026-08-28T19:12:36Z</time>
  <course>266.03</course>
  <speed>0.0</speed>
  <fix>3d</fix>
</trkpt>
<trkpt lat="40.072842" lon="-105.230575">
  <ele>1586.09</ele>
  <time>2026-08-28T19:12:36Z</time>
  <course>11.77</course>
  <speed>0.0282842712474619</speed>
  <fix>3d</fix>
</trkpt>
<trkpt lat="40.072842" lon="-105.230575">
  <ele>1586.09</ele>
  <time>2026-08-28T19:12:36Z</time>
  <course>266.03</course>
  <speed>0.0</speed>
  <fix>3d</fix>
</trkpt>
<trkpt lat="40.072842" lon="-105.230575">
  <ele>1586.09</ele>
  <time>2026-08-28T19:12:36Z</time>
  <course>11.76</course>
  <speed>0.0282842712474619</speed>
  <fix>3d</fix>
</trkpt>
<trkpt lat="40.072842" lon="-105.230575">
  <ele>1586.09</ele>
  <time>2026-08-28T19:12:36Z</time>
  <course>266.03</course>
  <speed>0.0</speed>
  <fix>3d</fix>
</trkpt>
<trkpt lat="40.072842" lon="-105.230575">
  <ele>1586.09</ele>
  <time>2026-08-28T19:12:36Z</time>
  <course>11.76</course>
  <speed>0.0282842712474619</speed>
  <fix>3d</fix>
</trkpt>
<trkpt lat="40.072842" lon="-105.230575">
  <ele>1586.09</ele>
  <time>2026-08-28T19:12:36Z</time>
  <course>266.03</course>
  <speed>0.0</speed>
  <fix>3d</fix>
</trkpt>
<trkpt lat="40.072842" lon="-105.230575">
  <ele>1586.09</ele>
  <time>2026-08-28T19:12:36Z</time>
  <course>11.75</course>
  <speed>0.0282842712474619</speed>
  <fix>3d</fix>
</trkpt>
<trkpt lat="40.072842" lon="-105.230575">
  <ele>1586.09</ele>
  <time>2026-08-28T19:12:36Z</time>
  <course>266.03</course>
  <speed>0.0</speed>
  <fix>3d</fix>
</trkpt>
<trkpt lat="40.072842" lon="-105.230575">
  <ele>1586.09</ele>
  <time>2026-08-28T19:12:36Z</time>
  <course>11.74</course>
  <speed>0.03605551275463989</speed>
  <fix>3d</fix>
</trkpt>
<trkpt lat="40.072842" lon="-105.230575">
  <ele>1586.09</ele>
  <time>2026-08-28T19:12:36Z</time>
  <course>266.03</course>
  <speed>0.0</speed>
  <fix>3d</fix>
</trkpt>
<trkpt lat="40.072842" lon="-105.230575">
  <ele>1586.09</ele>
  <time>2026-08-28T19:12:36Z</time>
  <course>11.73</course>
  <speed>0.03605551275463989</speed>
  <fix>3d</fix>
</trkpt>
<trkpt lat="40.072842" lon="-105.230575">
  <ele>1586.09</ele>
  <time>2026-08-28T19:12:36Z</time>
  <course>266.03</course>
  <speed>0.0</speed>
  <fix>3d</fix>
</trkpt>
<trkpt lat="40.072842" lon="-105.230575">
  <ele>1586.09</ele>
  <time>2026-08-28T19:12:36Z</time>
  <course>11.73</course>
  <speed>0.03605551275463989</speed>
  <fix>3d</fix>
</trkpt>
<trkpt lat="40.072842" lon="-105.230575">
  <ele>1586.09</ele>
  <time>2026-08-28T19:12:36Z</time>
  <course>266.03</course>
  <speed>0.0</speed>
  <fix>3d</fix>
</trkpt>
<trkpt lat="40.072842" lon="-105.230575">
  <ele>1586.09</ele>
  <time>2026-08-28T19:12:36Z</time>
  <course>11.72</course>
  <speed>0.03605551275463989</speed>
  <fix>3d</fix>
</trkpt>
<trkpt lat="40.072842" lon="-105.230575">
  <ele>1586.09</ele>
  <time>2026-08-28T19:12:36Z</time>
  <course>266.03</course>
  <speed>0.0</speed>
  <fix>3d</fix>
</trkpt>
<trkpt lat="40.072842" lon="-105.230575">
  <ele>1586.09</ele>
  <time>2026-08-28T19:12:36Z</time>
  <course>11.71</course>
  <speed>0.03605551275463989</speed>
  <fix>3d</fix>
</trkpt>
<trkpt lat="40.072842" lon="-105.230575">
  <ele>1586.09</ele>
  <time>2026-08-28T19:12:36Z</time>
  <course>266.03</course>
  <speed>0.0</speed>
  <fix>3d</fix>
</trkpt>
<trkpt lat="40.072842" lon="-105.230575">
  <ele>1586.09</ele>
  <time>2026-08-28T19:12:36Z</time>
  <course>11.7</course>
  <speed>0.03605551275463989</speed>
  <fix>3d</fix>
</trkpt>
<trkpt lat="40.072842" lon="-105.230575">
  <ele>1586.09</ele>
  <time>2026-08-28T19:12:36Z</time>
  <course>266.03</course>
  <speed>0.0</speed>
  <fix>3d</fix>
</trkpt>
<trkpt lat="40.072842" lon="-105.230575">
  <ele>1586.09</ele>
  <time>2026-08-28T19:12:36Z</time>
  <course>11.69</course>
  <speed>0.03605551275463989</speed>
  <fix>3d</fix>
</trkpt>
<trkpt lat="40.072842" lon="-105.230575">
  <ele>1586.09</ele>
  <time>2026-08-28T19:12:36Z</time>
  <course>266.03</course>
  <speed>0.0</speed>
  <fix>3d</fix>
</trkpt>
<trkpt lat="40.072842" lon="-105.230575">
  <ele>1586.09</ele>
  <time>2026-08-28T19:12:36Z</time>
  <course>11.69</course>
  <speed>0.03605551275463989</speed>
  <fix>3d</fix>
</trkpt>
<trkpt lat="40.072842" lon="-105.230575">
  <ele>1586.09</ele>
  <time>2026-08-28T19:12:36Z</time>
  <course>266.03</course>
  <speed>0.0</speed>
  <fix>3d</fix>
</trkpt>
<trkpt lat="40.072842" lon="-105.230575">
  <ele>1586.09</ele>
  <time>2026-08-28T19:12:36Z</time>
  <course>11.68</course>
  <speed>0.03605551275463989</speed>
  <fix>3d</fix>
</trkpt>
<trkpt lat="40.072842" lon="-105.230575">
  <ele>1586.09</ele>
  <time>2026-08-28T19:12:36Z</time>
  <course>266.03</course>
  <speed>0.0</speed>
  <fix>3d</fix>
</trkpt>
<trkpt lat="40.072842" lon="-105.230575">
  <ele>1586.09</ele>
  <time>2026-08-28T19:12:36Z</time>
  <course>11.67</course>
  <speed>0.03605551275463989</speed>
  <fix>3d</fix>
</trkpt>
<trkpt lat="40.072842" lon="-105.230575">
  <ele>1586.09</ele>
  <time>2026-08-28T19:12:36Z</time>
  <course>266.03</course>
  <speed>0.0</speed>
  <fix>3d</fix>
</trkpt>
<trkpt lat="40.072842" lon="-105.230575">
  <ele>1586.09</ele>
  <time>2026-08-28T19:12:36Z</time>
  <course>11.67</course>
  <speed>0.03605551275463989</speed>
  <fix>3d</fix>
</trkpt>
<trkpt lat="40.072842" lon="-105.230575">
  <ele>1586.09</ele>
  <time>2026-08-28T19:12:36Z</time>
  <course>266.03</course>
  <speed>0.0</speed>
  <fix>3d</fix>
</trkpt>
<trkpt lat="40.072842" lon="-105.230575">
  <ele>1586.09</ele>
  <time>2026-08-28T19:12:36Z</time>
  <course>11.66</course>
  <speed>0.03605551275463989</speed>
  <fix>3d</fix>
</trkpt>
<trkpt lat="40.072842" lon="-105.230575">
  <ele>1586.09</ele>
  <time>2026-08-28T19:12:36Z</time>
  <course>266.03</course>
  <speed>0.0</speed>
  <fix>3d</fix>
</trkpt>
<trkpt lat="40.072842" lon="-105.230575">
  <ele>1586.09</ele>
  <time>2026-08-28T19:12:36Z</time>
  <course>11.65</course>
  <speed>0.03605551275463989</speed>
  <fix>3d</fix>
</trkpt>
<trkpt lat="40.072842" lon="-105.230575">
  <ele>1586.09</ele>
  <time>2026-08-28T19:12:36Z</time>
  <course>266.03</course>
  <speed>0.0</speed>
  <fix>3d</fix>
</trkpt>
<trkpt lat="40.072842" lon="-105.230575">
  <ele>1586.09</ele>
  <time>2026-08-28T19:12:36Z</time>
  <course>11.65</course>
  <speed>0.03605551275463989</speed>
  <fix>3d</fix>
</trkpt>
<trkpt lat="40.072842" lon="-105.230575">
  <ele>1586.09</ele>
  <time>2026-08-28T19:12:36Z</time>
  <course>266.03</course>
  <speed>0.0</speed>
  <fix>3d</fix>
</trkpt>
<trkpt lat="40.072842" lon="-105.230575">
  <ele>1586.09</ele>
  <time>2026-08-28T19:12:36Z</time>
  <course>11.64</course>
  <speed>0.03605551275463989</speed>
  <fix>3d</fix>
</trkpt>
<trkpt lat="40.072842" lon="-105.230575">
  <ele>1586.09</ele>
  <time>2026-08-28T19:12:36Z</time>
  <course>266.03</course>
  <speed>0.0</speed>
  <fix>3d</fix>
</trkpt>
<trkpt lat="40.072842" lon="-105.230575">
  <ele>1586.09</ele>
  <time>2026-08-28T19:12:36Z</time>
  <course>11.63</course>
  <speed>0.03605551275463989</speed>
  <fix>3d</fix>
</trkpt>
<trkpt lat="40.072842" lon="-105.230575">
  <ele>1586.09</ele>
  <time>2026-08-28T19:12:36Z</time>
  <course>266.03</course>
  <speed>0.0</speed>
  <fix>3d</fix>
</trkpt>
<trkpt lat="40.072842" lon="-105.230575">
  <ele>1586.09</ele>
  <time>2026-08-28T19:12:36Z</time>
  <course>11.62</course>
  <speed>0.03605551275463989</speed>
  <fix>3d</fix>
</trkpt>
<trkpt lat="40.072842" lon="-105.230575">
  <ele>1586.09</ele>
  <time>2026-08-28T19:12:36Z</time>
  <course>266.03</course>
  <speed>0.0</speed>
  <fix>3d</fix>
</trkpt>
<trkpt lat="40.072842" lon="-105.230575">
  <ele>1586.09</ele>
  <time>2026-08-28T19:12:36Z</time>
  <course>11.62</course>
  <speed>0.03605551275463989</speed>
  <fix>3d</fix>
</trkpt>
<trkpt lat="40.072842" lon="-105.230575">
  <ele>1586.09</ele>
  <time>2026-08-28T19:12:36Z</time>
  <course>266.03</course>
  <speed>0.0</speed>
  <fix>3d</fix>
</trkpt>
<trkpt lat="40.072842" lon="-105.230575">
  <ele>1586.09</ele>
  <time>2026-08-28T19:12:36Z</time>
  <course>11.61</course>
  <speed>0.03605551275463989</speed>
  <fix>3d</fix>
</trkpt>
<trkpt lat="40.072842" lon="-105.230575">
  <ele>1586.09</ele>
  <time>2026-08-28T19:12:36Z</time>
  <course>266.03</course>
  <speed>0.0</speed>
  <fix>3d</fix>
</trkpt>
<trkpt lat="40.072842" lon="-105.230575">
  <ele>1586.09</ele>
  <time>2026-08-28T19:12:36Z</time>
  <course>11.61</course>
  <speed>0.03605551275463989</speed>
  <fix>3d</fix>
</trkpt>
<trkpt lat="40.072842" lon="-105.230575">
  <ele>1586.09</ele>
  <time>2026-08-28T19:12:36Z</time>
  <course>266.03</course>
  <speed>0.0</speed>
  <fix>3d</fix>
</trkpt>
<trkpt lat="40.072842" lon="-105.230575">
  <ele>1586.09</ele>
  <time>2026-08-28T19:12:36Z</time>
  <course>11.6</course>
  <speed>0.03605551275463989</speed>
  <fix>3d</fix>
</trkpt>
<trkpt lat="40.072842" lon="-105.230575">
  <ele>1586.09</ele>
  <time>2026-08-28T19:12:36Z</time>
  <course>266.03</course>
  <speed>0.0</speed>
  <fix>3d</fix>
</trkpt>
<trkpt lat="40.072842" lon="-105.230575">
  <ele>1586.09</ele>
  <time>2026-08-28T19:12:36Z</time>
  <course>11.59</course>
  <speed>0.03605551275463989</speed>
  <fix>3d</fix>
</trkpt>
<trkpt lat="40.072842" lon="-105.230575">
  <ele>1586.09</ele>
  <time>2026-08-28T19:12:36Z</time>
  <course>266.03</course>
  <speed>0.0</speed>
  <fix>3d</fix>
</trkpt>
<trkpt lat="40.072842" lon="-105.230575">
  <ele>1586.09</ele>
  <time>2026-08-28T19:12:36Z</time>
  <course>11.59</course>
  <speed>0.03605551275463989</speed>
  <fix>3d</fix>
</trkpt>
<trkpt lat="40.072842" lon="-105.230575">
  <ele>1586.09</ele>
  <time>2026-08-28T19:12:36Z</time>
  <course>266.03</course>
  <speed>0.0</speed>
  <fix>3d</fix>
</trkpt>
<trkpt lat="40.072842" lon="-105.230575">
  <ele>1586.09</ele>
  <time>2026-08-28T19:12:36Z</time>
  <course>11.58</course>
  <speed>0.03605551275463989</speed>
  <fix>3d</fix>
</trkpt>
<trkpt lat="40.072842" lon="-105.230575">
  <ele>1586.09</ele>
  <time>2026-08-28T19:12:36Z</time>
  <course>266.03</course>
  <speed>0.0</speed>
  <fix>3d</fix>
</trkpt>
<trkpt lat="40.072842" lon="-105.230575">
  <ele>1586.09</ele>
  <time>2026-08-28T19:12:36Z</time>
  <course>11.57</course>
  <speed>0.03605551275463989</speed>
  <fix>3d</fix>
</trkpt>
<trkpt lat="40.072842" lon="-105.230575">
  <ele>1586.09</ele>
  <time>2026-08-28T19:12:36Z</time>
  <course>266.03</course>
  <speed>0.0</speed>
  <fix>3d</fix>
</trkpt>
<trkpt lat="40.072842" lon="-105.230575">
  <ele>1586.09</ele>
  <time>2026-08-28T19:12:36Z</time>
  <course>11.57</course>
  <speed>0.03605551275463989</speed>
  <fix>3d</fix>
</trkpt>
<trkpt lat="40.072842" lon="-105.230575">
  <ele>1586.09</ele>
  <time>2026-08-28T19:12:36Z</time>
  <course>266.03</course>
  <speed>0.0</speed>
  <fix>3d</fix>
</trkpt>
<trkpt lat="40.072842" lon="-105.230575">
  <ele>1586.09</ele>
  <time>2026-08-28T19:12:36Z</time>
  <course>11.56</course>
  <speed>0.03605551275463989</speed>
  <fix>3d</fix>
</trkpt>
<trkpt lat="40.072842" lon="-105.230575">
  <ele>1586.09</ele>
  <time>2026-08-28T19:12:36Z</time>
  <course>266.03</course>
  <speed>0.0</speed>
  <fix>3d</fix>
</trkpt>
<trkpt lat="40.072842" lon="-105.230575">
  <ele>1586.09</ele>
  <time>2026-08-28T19:12:36Z</time>
  <course>11.56</course>
  <speed>0.03605551275463989</speed>
  <fix>3d</fix>
</trkpt>
<trkpt lat="40.072842" lon="-105.230575">
  <ele>1586.09</ele>
  <time>2026-08-28T19:12:36Z</time>
  <course>266.03</course>
  <speed>0.0</speed>
  <fix>3d</fix>
</trkpt>
<trkpt lat="40.072842" lon="-105.230575">
  <ele>1586.09</ele>
  <time>2026-08-28T19:12:36Z</time>
  <course>11.55</course>
  <speed>0.03605551275463989</speed>
  <fix>3d</fix>
</trkpt>
<trkpt lat="40.072842" lon="-105.230575">
  <ele>1586.09</ele>
  <time>2026-08-28T19:12:36Z</time>
  <course>266.03</course>
  <speed>0.0</speed>
  <fix>3d</fix>
</trkpt>
<trkpt lat="40.072842" lon="-105.230575">
  <ele>1586.09</ele>
  <time>2026-08-28T19:12:36Z</time>
  <course>11.54</course>
  <speed>0.03605551275463989</speed>
  <fix>3d</fix>
</trkpt>
<trkpt lat="40.072842" lon="-105.230575">
  <ele>1586.09</ele>
  <time>2026-08-28T19:12:36Z</time>
  <course>266.03</course>
  <speed>0.0</speed>
  <fix>3d</fix>
</trkpt>
<trkpt lat="40.072842" lon="-105.230575">
  <ele>1586.09</ele>
  <time>2026-08-28T19:12:36Z</time>
  <course>11.54</course>
  <speed>0.03605551275463989</speed>
  <fix>3d</fix>
</trkpt>
<trkpt lat="40.072842" lon="-105.230575">
  <ele>1586.09</ele>
  <time>2026-08-28T19:12:36Z</time>
  <course>266.03</course>
  <speed>0.0</speed>
  <fix>3d</fix>
</trkpt>
<trkpt lat="40.072842" lon="-105.230575">
  <ele>1586.09</ele>
  <time>2026-08-28T19:12:36Z</time>
  <course>11.53</course>
  <speed>0.03605551275463989</speed>
  <fix>3d</fix>
</trkpt>
<trkpt lat="40.072842" lon="-105.230575">
  <ele>1586.09</ele>
  <time>2026-08-28T19:12:36Z</time>
  <course>266.03</course>
  <speed>0.0</speed>
  <fix>3d</fix>
</trkpt>
<trkpt lat="40.072842" lon="-105.230575">
  <ele>1586.09</ele>
  <time>2026-08-28T19:12:37Z</time>
  <course>11.53</course>
  <speed>0.03605551275463989</speed>
  <fix>3d</fix>
</trkpt>
<trkpt lat="40.072842" lon="-105.230575">
  <ele>1586.09</ele>
  <time>2026-08-28T19:12:37Z</time>
  <course>266.03</course>
  <speed>0.0</speed>
  <fix>3d</fix>
</trkpt>
<trkpt lat="40.072842" lon="-105.230575">
  <ele>1586.09</ele>
  <time>2026-08-28T19:12:37Z</time>
  <course>11.52</course>
  <speed>0.03605551275463989</speed>
  <fix>3d</fix>
</trkpt>
<trkpt lat="40.072842" lon="-105.230575">
  <ele>1586.09</ele>
  <time>2026-08-28T19:12:37Z</time>
  <course>266.03</course>
  <speed>0.0</speed>
  <fix>3d</fix>
</trkpt>
<trkpt lat="40.072842" lon="-105.230575">
  <ele>1586.09</ele>
  <time>2026-08-28T19:12:37Z</time>
  <course>11.51</course>
  <speed>0.03605551275463989</speed>
  <fix>3d</fix>
</trkpt>
<trkpt lat="40.072842" lon="-105.230575">
  <ele>1586.09</ele>
  <time>2026-08-28T19:12:37Z</time>
  <course>266.03</course>
  <speed>0.0</speed>
  <fix>3d</fix>
</trkpt>
<trkpt lat="40.072842" lon="-105.230575">
  <ele>1586.09</ele>
  <time>2026-08-28T19:12:37Z</time>
  <course>11.51</course>
  <speed>0.03605551275463989</speed>
  <fix>3d</fix>
</trkpt>
<trkpt lat="40.072842" lon="-105.230575">
  <ele>1586.09</ele>
  <time>2026-08-28T19:12:37Z</time>
  <course>266.03</course>
  <speed>0.0</speed>
  <fix>3d</fix>
</trkpt>
<trkpt lat="40.072842" lon="-105.230575">
  <ele>1586.09</ele>
  <time>2026-08-28T19:12:37Z</time>
  <course>11.5</course>
  <speed>0.03605551275463989</speed>
  <fix>3d</fix>
</trkpt>
<trkpt lat="40.072842" lon="-105.230575">
  <ele>1586.09</ele>
  <time>2026-08-28T19:12:37Z</time>
  <course>266.03</course>
  <speed>0.0</speed>
  <fix>3d</fix>
</trkpt>
<trkpt lat="40.072842" lon="-105.230575">
  <ele>1586.09</ele>
  <time>2026-08-28T19:12:37Z</time>
  <course>11.5</course>
  <speed>0.03605551275463989</speed>
  <fix>3d</fix>
</trkpt>
<trkpt lat="40.072842" lon="-105.230575">
  <ele>1586.09</ele>
  <time>2026-08-28T19:12:37Z</time>
  <course>266.03</course>
  <speed>0.0</speed>
  <fix>3d</fix>
</trkpt>
<trkpt lat="40.072842" lon="-105.230575">
  <ele>1586.09</ele>
  <time>2026-08-28T19:12:37Z</time>
  <course>11.49</course>
  <speed>0.044721359549995794</speed>
  <fix>3d</fix>
</trkpt>
<trkpt lat="40.072842" lon="-105.230575">
  <ele>1586.09</ele>
  <time>2026-08-28T19:12:37Z</time>
  <course>266.03</course>
  <speed>0.0</speed>
  <fix>3d</fix>
</trkpt>
<trkpt lat="40.072842" lon="-105.230575">
  <ele>1586.09</ele>
  <time>2026-08-28T19:12:37Z</time>
  <course>11.49</course>
  <speed>0.044721359549995794</speed>
  <fix>3d</fix>
</trkpt>
<trkpt lat="40.072842" lon="-105.230575">
  <ele>1586.09</ele>
  <time>2026-08-28T19:12:37Z</time>
  <course>266.03</course>
  <speed>0.0</speed>
  <fix>3d</fix>
</trkpt>
<trkpt lat="40.072842" lon="-105.230575">
  <ele>1586.09</ele>
  <time>2026-08-28T19:12:37Z</time>
  <course>11.48</course>
  <speed>0.044721359549995794</speed>
  <fix>3d</fix>
</trkpt>
<trkpt lat="40.072842" lon="-105.230575">
  <ele>1586.09</ele>
  <time>2026-08-28T19:12:37Z</time>
  <course>266.03</course>
  <speed>0.0</speed>
  <fix>3d</fix>
</trkpt>
<trkpt lat="40.072842" lon="-105.230575">
  <ele>1586.09</ele>
  <time>2026-08-28T19:12:37Z</time>
  <course>11.48</course>
  <speed>0.044721359549995794</speed>
  <fix>3d</fix>
</trkpt>
<trkpt lat="40.072842" lon="-105.230575">
  <ele>1586.09</ele>
  <time>2026-08-28T19:12:37Z</time>
  <course>266.03</course>
  <speed>0.0</speed>
  <fix>3d</fix>
</trkpt>
<trkpt lat="40.072842" lon="-105.230575">
  <ele>1586.09</ele>
  <time>2026-08-28T19:12:37Z</time>
  <course>11.47</course>
  <speed>0.044721359549995794</speed>
  <fix>3d</fix>
</trkpt>
<trkpt lat="40.072842" lon="-105.230575">
  <ele>1586.09</ele>
  <time>2026-08-28T19:12:37Z</time>
  <course>266.03</course>
  <speed>0.0</speed>
  <fix>3d</fix>
</trkpt>
<trkpt lat="40.072842" lon="-105.230575">
  <ele>1586.09</ele>
  <time>2026-08-28T19:12:37Z</time>
  <course>11.47</course>
  <speed>0.044721359549995794</speed>
  <fix>3d</fix>
</trkpt>
<trkpt lat="40.072842" lon="-105.230575">
  <ele>1586.09</ele>
  <time>2026-08-28T19:12:37Z</time>
  <course>266.03</course>
  <speed>0.0</speed>
  <fix>3d</fix>
</trkpt>
<trkpt lat="40.072842" lon="-105.230575">
  <ele>1586.09</ele>
  <time>2026-08-28T19:12:37Z</time>
  <course>11.46</course>
  <speed>0.044721359549995794</speed>
  <fix>3d</fix>
</trkpt>
<trkpt lat="40.072842" lon="-105.230575">
  <ele>1586.09</ele>
  <time>2026-08-28T19:12:37Z</time>
  <course>266.03</course>
  <speed>0.0</speed>
  <fix>3d</fix>
</trkpt>
<trkpt lat="40.072842" lon="-105.230575">
  <ele>1586.09</ele>
  <time>2026-08-28T19:12:37Z</time>
  <course>11.46</course>
  <speed>0.044721359549995794</speed>
  <fix>3d</fix>
</trkpt>
<trkpt lat="40.072842" lon="-105.230575">
  <ele>1586.09</ele>
  <time>2026-08-28T19:12:37Z</time>
  <course>266.03</course>
  <speed>0.0</speed>
  <fix>3d</fix>
</trkpt>
<trkpt lat="40.072842" lon="-105.230575">
  <ele>1586.15</ele>
  <time>2026-08-28T19:12:37Z</time>
  <course>11.45</course>
  <speed>0.0</speed>
  <fix>3d</fix>
</trkpt>
<trkpt lat="40.072842" lon="-105.230575">
  <ele>1586.09</ele>
  <time>2026-08-28T19:12:37Z</time>
  <course>266.03</course>
  <speed>0.0</speed>
  <fix>3d</fix>
</trkpt>
<trkpt lat="40.072842" lon="-105.230575">
  <ele>1586.15</ele>
  <time>2026-08-28T19:12:37Z</time>
  <course>11.45</course>
  <speed>0.0</speed>
  <fix>3d</fix>
</trkpt>
<trkpt lat="40.072842" lon="-105.230575">
  <ele>1586.09</ele>
  <time>2026-08-28T19:12:37Z</time>
  <course>266.03</course>
  <speed>0.0</speed>
  <fix>3d</fix>
</trkpt>
<trkpt lat="40.072842" lon="-105.230575">
  <ele>1586.14</ele>
  <time>2026-08-28T19:12:37Z</time>
  <course>11.44</course>
  <speed>0.0</speed>
  <fix>3d</fix>
</trkpt>
<trkpt lat="40.072842" lon="-105.230575">
  <ele>1586.09</ele>
  <time>2026-08-28T19:12:37Z</time>
  <course>281.49</course>
  <speed>0.0</speed>
  <fix>3d</fix>
</trkpt>
<trkpt lat="40.072842" lon="-105.230575">
  <ele>1586.14</ele>
  <time>2026-08-28T19:12:37Z</time>
  <course>11.44</course>
  <speed>0.0</speed>
  <fix>3d</fix>
</trkpt>
<trkpt lat="40.072842" lon="-105.230575">
  <ele>1586.09</ele>
  <time>2026-08-28T19:12:37Z</time>
  <course>269.42</course>
  <speed>0.0</speed>
  <fix>3d</fix>
</trkpt>
<trkpt lat="40.072842" lon="-105.230575">
  <ele>1586.14</ele>
  <time>2026-08-28T19:12:37Z</time>
  <course>11.43</course>
  <speed>0.0</speed>
  <fix>3d</fix>
</trkpt>
<trkpt lat="40.072842" lon="-105.230575">
  <ele>1586.09</ele>
  <time>2026-08-28T19:12:37Z</time>
  <course>211.84</course>
  <speed>0.0</speed>
  <fix>3d</fix>
</trkpt>
<trkpt lat="40.072842" lon="-105.230575">
  <ele>1586.14</ele>
  <time>2026-08-28T19:12:37Z</time>
  <course>11.43</course>
  <speed>0.01</speed>
  <fix>3d</fix>
</trkpt>
<trkpt lat="40.072842" lon="-105.230575">
  <ele>1586.09</ele>
  <time>2026-08-28T19:12:37Z</time>
  <course>76.8</course>
  <speed>0.0</speed>
  <fix>3d</fix>
</trkpt>
<trkpt lat="40.072842" lon="-105.230575">
  <ele>1586.14</ele>
  <time>2026-08-28T19:12:37Z</time>
  <course>11.42</course>
  <speed>0.01</speed>
  <fix>3d</fix>
</trkpt>
<trkpt lat="40.072842" lon="-105.230575">
  <ele>1586.09</ele>
  <time>2026-08-28T19:12:37Z</time>
  <course>283.66</course>
  <speed>0.0</speed>
  <fix>3d</fix>
</trkpt>
<trkpt lat="40.072842" lon="-105.230575">
  <ele>1586.14</ele>
  <time>2026-08-28T19:12:37Z</time>
  <course>11.42</course>
  <speed>0.01</speed>
  <fix>3d</fix>
</trkpt>
<trkpt lat="40.072842" lon="-105.230575">
  <ele>1586.09</ele>
  <time>2026-08-28T19:12:37Z</time>
  <course>262.24</course>
  <speed>0.0</speed>
  <fix>3d</fix>
</trkpt>
<trkpt lat="40.072842" lon="-105.230575">
  <ele>1586.14</ele>
  <time>2026-08-28T19:12:37Z</time>
  <course>11.42</course>
  <speed>0.01414213562373095</speed>
  <fix>3d</fix>
</trkpt>
<trkpt lat="40.072842" lon="-105.230575">
  <ele>1586.09</ele>
  <time>2026-08-28T19:12:37Z</time>
  <course>263.53</course>
  <speed>0.0</speed>
  <fix>3d</fix>
</trkpt>
<trkpt lat="40.072842" lon="-105.230575">
  <ele>1586.15</ele>
  <time>2026-08-28T19:12:37Z</time>
  <course>11.41</course>
  <speed>0.01414213562373095</speed>
  <fix>3d</fix>
</trkpt>
<trkpt lat="40.072842" lon="-105.230575">
  <ele>1586.09</ele>
  <time>2026-08-28T19:12:37Z</time>
  <course>267.07</course>
  <speed>0.0</speed>
  <fix>3d</fix>
</trkpt>
<trkpt lat="40.072842" lon="-105.230575">
  <ele>1586.15</ele>
  <time>2026-08-28T19:12:37Z</time>
  <course>11.41</course>
  <speed>0.01414213562373095</speed>
  <fix>3d</fix>
</trkpt>
<trkpt lat="40.072842" lon="-105.230575">
  <ele>1586.09</ele>
  <time>2026-08-28T19:12:37Z</time>
  <course>266.23</course>
  <speed>0.0</speed>
  <fix>3d</fix>
</trkpt>
<trkpt lat="40.072842" lon="-105.230575">
  <ele>1586.15</ele>
  <time>2026-08-28T19:12:37Z</time>
  <course>11.4</course>
  <speed>0.022360679774997897</speed>
  <fix>3d</fix>
</trkpt>
<trkpt lat="40.072842" lon="-105.230575">
  <ele>1586.09</ele>
  <time>2026-08-28T19:12:37Z</time>
  <course>265.88</course>
  <speed>0.0</speed>
  <fix>3d</fix>
</trkpt>
<trkpt lat="40.072842" lon="-105.230575">
  <ele>1586.15</ele>
  <time>2026-08-28T19:12:37Z</time>
  <course>11.4</course>
  <speed>0.022360679774997897</speed>
  <fix>3d</fix>
</trkpt>
<trkpt lat="40.072842" lon="-105.230575">
  <ele>1586.09</ele>
  <time>2026-08-28T19:12:37Z</time>
  <course>259.35</course>
  <speed>0.0</speed>
  <fix>3d</fix>
</trkpt>
<trkpt lat="40.072842" lon="-105.230575">
  <ele>1586.16</ele>
  <time>2026-08-28T19:12:37Z</time>
  <course>11.4</course>
  <speed>0.022360679774997897</speed>
  <fix>3d</fix>
</trkpt>
<trkpt lat="40.072842" lon="-105.230575">
  <ele>1586.09</ele>
  <time>2026-08-28T19:12:37Z</time>
  <course>264.89</course>
  <speed>0.0</speed>
  <fix>3d</fix>
</trkpt>
<trkpt lat="40.072842" lon="-105.230575">
  <ele>1586.16</ele>
  <time>2026-08-28T19:12:37Z</time>
  <course>11.39</course>
  <speed>0.022360679774997897</speed>
  <fix>3d</fix>
</trkpt>
<trkpt lat="40.072842" lon="-105.230575">
  <ele>1586.09</ele>
  <time>2026-08-28T19:12:37Z</time>
  <course>268.54</course>
  <speed>0.0</speed>
  <fix>3d</fix>
</trkpt>
<trkpt lat="40.072842" lon="-105.230575">
  <ele>1586.16</ele>
  <time>2026-08-28T19:12:37Z</time>
  <course>11.39</course>
  <speed>0.01414213562373095</speed>
  <fix>3d</fix>
</trkpt>
<trkpt lat="40.072842" lon="-105.230575">
  <ele>1586.09</ele>
  <time>2026-08-28T19:12:37Z</time>
  <course>264.11</course>
  <speed>0.0</speed>
  <fix>3d</fix>
</trkpt>
<trkpt lat="40.072842" lon="-105.230575">
  <ele>1586.16</ele>
  <time>2026-08-28T19:12:37Z</time>
  <course>11.39</course>
  <speed>0.01414213562373095</speed>
  <fix>3d</fix>
</trkpt>
<trkpt lat="40.072842" lon="-105.230575">
  <ele>1586.09</ele>
  <time>2026-08-28T19:12:37Z</time>
  <course>266.08</course>
  <speed>0.0</speed>
  <fix>3d</fix>
</trkpt>
<trkpt lat="40.072842" lon="-105.230575">
  <ele>1586.16</ele>
  <time>2026-08-28T19:12:37Z</time>
  <course>11.38</course>
  <speed>0.01</speed>
  <fix>3d</fix>
</trkpt>
<trkpt lat="40.072842" lon="-105.230575">
  <ele>1586.09</ele>
  <time>2026-08-28T19:12:37Z</time>
  <course>266.29</course>
  <speed>0.0</speed>
  <fix>3d</fix>
</trkpt>
<trkpt lat="40.072842" lon="-105.230575">
  <ele>1586.16</ele>
  <time>2026-08-28T19:12:37Z</time>
  <course>11.38</course>
  <speed>0.0</speed>
  <fix>3d</fix>
</trkpt>
<trkpt lat="40.072842" lon="-105.230575">
  <ele>1586.09</ele>
  <time>2026-08-28T19:12:37Z</time>
  <course>266.0</course>
  <speed>0.0</speed>
  <fix>3d</fix>
</trkpt>
<trkpt lat="40.072842" lon="-105.230575">
  <ele>1586.16</ele>
  <time>2026-08-28T19:12:37Z</time>
  <course>11.37</course>
  <speed>0.0</speed>
  <fix>3d</fix>
</trkpt>
<trkpt lat="40.072842" lon="-105.230575">
  <ele>1586.09</ele>
  <time>2026-08-28T19:12:37Z</time>
  <course>266.01</course>
  <speed>0.0</speed>
  <fix>3d</fix>
</trkpt>
<trkpt lat="40.072842" lon="-105.230575">
  <ele>1586.16</ele>
  <time>2026-08-28T19:12:37Z</time>
  <course>11.37</course>
  <speed>0.0</speed>
  <fix>3d</fix>
</trkpt>
<trkpt lat="40.072842" lon="-105.230575">
  <ele>1586.09</ele>
  <time>2026-08-28T19:12:37Z</time>
  <course>266.04</course>
  <speed>0.0</speed>
  <fix>3d</fix>
</trkpt>
<trkpt lat="40.072842" lon="-105.230575">
  <ele>1586.16</ele>
  <time>2026-08-28T19:12:37Z</time>
  <course>11.37</course>
  <speed>0.0</speed>
  <fix>3d</fix>
</trkpt>
<trkpt lat="40.072842" lon="-105.230575">
  <ele>1586.09</ele>
  <time>2026-08-28T19:12:37Z</time>
  <course>315.89</course>
  <speed>0.0</speed>
  <fix>3d</fix>
</trkpt>
<trkpt lat="40.072842" lon="-105.230575">
  <ele>1586.16</ele>
  <time>2026-08-28T19:12:37Z</time>
  <course>11.36</course>
  <speed>0.0</speed>
  <fix>3d</fix>
</trkpt>
<trkpt lat="40.072842" lon="-105.230575">
  <ele>1586.09</ele>
  <time>2026-08-28T19:12:37Z</time>
  <course>322.06</course>
  <speed>0.0</speed>
  <fix>3d</fix>
</trkpt>
<trkpt lat="40.072842" lon="-105.230575">
  <ele>1586.16</ele>
  <time>2026-08-28T19:12:37Z</time>
  <course>11.36</course>
  <speed>0.0</speed>
  <fix>3d</fix>
</trkpt>
<trkpt lat="40.072842" lon="-105.230575">
  <ele>1586.09</ele>
  <time>2026-08-28T19:12:37Z</time>
  <course>312.76</course>
  <speed>0.0</speed>
  <fix>3d</fix>
</trkpt>
<trkpt lat="40.072842" lon="-105.230575">
  <ele>1586.16</ele>
  <time>2026-08-28T19:12:37Z</time>
  <course>11.36</course>
  <speed>0.0</speed>
  <fix>3d</fix>
</trkpt>
<trkpt lat="40.072842" lon="-105.230575">
  <ele>1586.09</ele>
  <time>2026-08-28T19:12:37Z</time>
  <course>195.16</course>
  <speed>0.0</speed>
  <fix>3d</fix>
</trkpt>
<trkpt lat="40.072842" lon="-105.230575">
  <ele>1586.16</ele>
  <time>2026-08-28T19:12:37Z</time>
  <course>11.35</course>
  <speed>0.0</speed>
  <fix>3d</fix>
</trkpt>
<trkpt lat="40.072842" lon="-105.230575">
  <ele>1586.09</ele>
  <time>2026-08-28T19:12:37Z</time>
  <course>162.38</course>
  <speed>0.0</speed>
  <fix>3d</fix>
</trkpt>
<trkpt lat="40.072842" lon="-105.230575">
  <ele>1586.16</ele>
  <time>2026-08-28T19:12:37Z</time>
  <course>11.35</course>
  <speed>0.0</speed>
  <fix>3d</fix>
</trkpt>
<trkpt lat="40.072842" lon="-105.230575">
  <ele>1586.09</ele>
  <time>2026-08-28T19:12:37Z</time>
  <course>301.46</course>
  <speed>0.0</speed>
  <fix>3d</fix>
</trkpt>
<trkpt lat="40.072842" lon="-105.230575">
  <ele>1586.16</ele>
  <time>2026-08-28T19:12:37Z</time>
  <course>11.34</course>
  <speed>0.0</speed>
  <fix>3d</fix>
</trkpt>
<trkpt lat="40.072842" lon="-105.230575">
  <ele>1586.09</ele>
  <time>2026-08-28T19:12:37Z</time>
  <course>267.99</course>
  <speed>0.0</speed>
  <fix>3d</fix>
</trkpt>
<trkpt lat="40.072842" lon="-105.230575">
  <ele>1586.16</ele>
  <time>2026-08-28T19:12:37Z</time>
  <course>11.33</course>
  <speed>0.0</speed>
  <fix>3d</fix>
</trkpt>
<trkpt lat="40.072842" lon="-105.230575">
  <ele>1586.09</ele>
  <time>2026-08-28T19:12:37Z</time>
  <course>260.56</course>
  <speed>0.0</speed>
  <fix>3d</fix>
</trkpt>
<trkpt lat="40.072842" lon="-105.230575">
  <ele>1586.16</ele>
  <time>2026-08-28T19:12:37Z</time>
  <course>11.32</course>
  <speed>0.0</speed>
  <fix>3d</fix>
</trkpt>
<trkpt lat="40.072842" lon="-105.230575">
  <ele>1586.09</ele>
  <time>2026-08-28T19:12:37Z</time>
  <course>146.89</course>
  <speed>0.0</speed>
  <fix>3d</fix>
</trkpt>
<trkpt lat="40.072842" lon="-105.230575">
  <ele>1586.16</ele>
  <time>2026-08-28T19:12:37Z</time>
  <course>11.31</course>
  <speed>0.0</speed>
  <fix>3d</fix>
</trkpt>
<trkpt lat="40.072842" lon="-105.230575">
  <ele>1586.09</ele>
  <time>2026-08-28T19:12:37Z</time>
  <course>342.13</course>
  <speed>0.0</speed>
  <fix>3d</fix>
</trkpt>
<trkpt lat="40.072842" lon="-105.230575">
  <ele>1586.16</ele>
  <time>2026-08-28T19:12:37Z</time>
  <course>11.3</course>
  <speed>0.0</speed>
  <fix>3d</fix>
</trkpt>
<trkpt lat="40.072842" lon="-105.230575">
  <ele>1586.09</ele>
  <time>2026-08-28T19:12:37Z</time>
  <course>324.46</course>
  <speed>0.0</speed>
  <fix>3d</fix>
</trkpt>
<trkpt lat="40.072842" lon="-105.230575">
  <ele>1586.16</ele>
  <time>2026-08-28T19:12:37Z</time>
  <course>11.28</course>
  <speed>0.0</speed>
  <fix>3d</fix>
</trkpt>
<trkpt lat="40.072842" lon="-105.230575">
  <ele>1586.09</ele>
  <time>2026-08-28T19:12:37Z</time>
  <course>279.76</course>
  <speed>0.0</speed>
  <fix>3d</fix>
</trkpt>
<trkpt lat="40.072842" lon="-105.230575">
  <ele>1586.16</ele>
  <time>2026-08-28T19:12:37Z</time>
  <course>11.27</course>
  <speed>0.0</speed>
  <fix>3d</fix>
</trkpt>
<trkpt lat="40.072842" lon="-105.230575">
  <ele>1586.09</ele>
  <time>2026-08-28T19:12:37Z</time>
  <course>257.04</course>
  <speed>0.0</speed>
  <fix>3d</fix>
</trkpt>
<trkpt lat="40.072842" lon="-105.230575">
  <ele>1586.16</ele>
  <time>2026-08-28T19:12:37Z</time>
  <course>11.25</course>
  <speed>0.0</speed>
  <fix>3d</fix>
</trkpt>
<trkpt lat="40.072842" lon="-105.230575">
  <ele>1586.09</ele>
  <time>2026-08-28T19:12:37Z</time>
  <course>256.57</course>
  <speed>0.0</speed>
  <fix>3d</fix>
</trkpt>
<trkpt lat="40.072842" lon="-105.230575">
  <ele>1586.16</ele>
  <time>2026-08-28T19:12:37Z</time>
  <course>11.23</course>
  <speed>0.0</speed>
  <fix>3d</fix>
</trkpt>
<trkpt lat="40.072842" lon="-105.230575">
  <ele>1586.09</ele>
  <time>2026-08-28T19:12:37Z</time>
  <course>275.54</course>
  <speed>0.0</speed>
  <fix>3d</fix>
</trkpt>
<trkpt lat="40.072842" lon="-105.230575">
  <ele>1586.16</ele>
  <time>2026-08-28T19:12:37Z</time>
  <course>11.21</course>
  <speed>0.0</speed>
  <fix>3d</fix>
</trkpt>
<trkpt lat="40.072842" lon="-105.230575">
  <ele>1586.09</ele>
  <time>2026-08-28T19:12:37Z</time>
  <course>279.85</course>
  <speed>0.0</speed>
  <fix>3d</fix>
</trkpt>
<trkpt lat="40.072842" lon="-105.230575">
  <ele>1586.16</ele>
  <time>2026-08-28T19:12:37Z</time>
  <course>11.19</course>
  <speed>0.0</speed>
  <fix>3d</fix>
</trkpt>
<trkpt lat="40.072842" lon="-105.230575">
  <ele>1586.09</ele>
  <time>2026-08-28T19:12:37Z</time>
  <course>310.57</course>
  <speed>0.0</speed>
  <fix>3d</fix>
</trkpt>
<trkpt lat="40.072842" lon="-105.230575">
  <ele>1586.16</ele>
  <time>2026-08-28T19:12:37Z</time>
  <course>11.17</course>
  <speed>0.0</speed>
  <fix>3d</fix>
</trkpt>
<trkpt lat="40.072842" lon="-105.230575">
  <ele>1586.09</ele>
  <time>2026-08-28T19:12:37Z</time>
  <course>288.5</course>
  <speed>0.0</speed>
  <fix>3d</fix>
</trkpt>
<trkpt lat="40.072842" lon="-105.230575">
  <ele>1586.17</ele>
  <time>2026-08-28T19:12:37Z</time>
  <course>11.14</course>
  <speed>0.0</speed>
  <fix>3d</fix>
</trkpt>
<trkpt lat="40.072842" lon="-105.230575">
  <ele>1586.09</ele>
  <time>2026-08-28T19:12:37Z</time>
  <course>258.35</course>
  <speed>0.0</speed>
  <fix>3d</fix>
</trkpt>
<trkpt lat="40.072842" lon="-105.230575">
  <ele>1586.17</ele>
  <time>2026-08-28T19:12:37Z</time>
  <course>11.11</course>
  <speed>0.0</speed>
  <fix>3d</fix>
</trkpt>
<trkpt lat="40.072842" lon="-105.230575">
  <ele>1586.09</ele>
  <time>2026-08-28T19:12:37Z</time>
  <course>263.96</course>
  <speed>0.0</speed>
  <fix>3d</fix>
</trkpt>
<trkpt lat="40.072842" lon="-105.230575">
  <ele>1586.17</ele>
  <time>2026-08-28T19:12:37Z</time>
  <course>11.09</course>
  <speed>0.01</speed>
  <fix>3d</fix>
</trkpt>
<trkpt lat="40.072842" lon="-105.230575">
  <ele>1586.09</ele>
  <time>2026-08-28T19:12:37Z</time>
  <course>280.25</course>
  <speed>0.0</speed>
  <fix>3d</fix>
</trkpt>
<trkpt lat="40.072842" lon="-105.230575">
  <ele>1586.17</ele>
  <time>2026-08-28T19:12:37Z</time>
  <course>11.06</course>
  <speed>0.01</speed>
  <fix>3d</fix>
</trkpt>
<trkpt lat="40.072842" lon="-105.230575">
  <ele>1586.09</ele>
  <time>2026-08-28T19:12:37Z</time>
  <course>288.6</course>
  <speed>0.0</speed>
  <fix>3d</fix>
</trkpt>
<trkpt lat="40.072842" lon="-105.230575">
  <ele>1586.18</ele>
  <time>2026-08-28T19:12:37Z</time>
  <course>11.03</course>
  <speed>0.01</speed>
  <fix>3d</fix>
</trkpt>
<trkpt lat="40.072842" lon="-105.230575">
  <ele>1586.09</ele>
  <time>2026-08-28T19:12:37Z</time>
  <course>266.15</course>
  <speed>0.0</speed>
  <fix>3d</fix>
</trkpt>
<trkpt lat="40.072842" lon="-105.230575">
  <ele>1586.18</ele>
  <time>2026-08-28T19:12:37Z</time>
  <course>11.0</course>
  <speed>0.01</speed>
  <fix>3d</fix>
</trkpt>
<trkpt lat="40.072842" lon="-105.230575">
  <ele>1586.09</ele>
  <time>2026-08-28T19:12:37Z</time>
  <course>260.57</course>
  <speed>0.0</speed>
  <fix>3d</fix>
</trkpt>
<trkpt lat="40.072842" lon="-105.230575">
  <ele>1586.18</ele>
  <time>2026-08-28T19:12:37Z</time>
  <course>10.97</course>
  <speed>0.01</speed>
  <fix>3d</fix>
</trkpt>
<trkpt lat="40.072842" lon="-105.230575">
  <ele>1586.09</ele>
  <time>2026-08-28T19:12:37Z</time>
  <course>259.77</course>
  <speed>0.0</speed>
  <fix>3d</fix>
</trkpt>
<trkpt lat="40.072842" lon="-105.230575">
  <ele>1586.18</ele>
  <time>2026-08-28T19:12:37Z</time>
  <course>10.94</course>
  <speed>0.01414213562373095</speed>
  <fix>3d</fix>
</trkpt>
<trkpt lat="40.072842" lon="-105.230575">
  <ele>1586.09</ele>
  <time>2026-08-28T19:12:37Z</time>
  <course>274.38</course>
  <speed>0.0</speed>
  <fix>3d</fix>
</trkpt>
<trkpt lat="40.072842" lon="-105.230575">
  <ele>1586.18</ele>
  <time>2026-08-28T19:12:37Z</time>
  <course>10.9</course>
  <speed>0.01414213562373095</speed>
  <fix>3d</fix>
</trkpt>
<trkpt lat="40.072842" lon="-105.230575">
  <ele>1586.09</ele>
  <time>2026-08-28T19:12:37Z</time>
  <course>275.31</course>
  <speed>0.0</speed>
  <fix>3d</fix>
</trkpt>
<trkpt lat="40.072842" lon="-105.230575">
  <ele>1586.18</ele>
  <time>2026-08-28T19:12:37Z</time>
  <course>10.86</course>
  <speed>0.01414213562373095</speed>
  <fix>3d</fix>
</trkpt>
<trkpt lat="40.072842" lon="-105.230575">
  <ele>1586.09</ele>
  <time>2026-08-28T19:12:37Z</time>
  <course>291.77</course>
  <speed>0.0</speed>
  <fix>3d</fix>
</trkpt>
<trkpt lat="40.072842" lon="-105.230575">
  <ele>1586.18</ele>
  <time>2026-08-28T19:12:37Z</time>
  <course>10.83</course>
  <speed>0.01414213562373095</speed>
  <fix>3d</fix>
</trkpt>
<trkpt lat="40.072842" lon="-105.230575">
  <ele>1586.09</ele>
  <time>2026-08-28T19:12:37Z</time>
  <course>285.03</course>
  <speed>0.0</speed>
  <fix>3d</fix>
</trkpt>
<trkpt lat="40.072842" lon="-105.230575">
  <ele>1586.18</ele>
  <time>2026-08-28T19:12:37Z</time>
  <course>10.79</course>
  <speed>0.01414213562373095</speed>
  <fix>3d</fix>
</trkpt>
<trkpt lat="40.072842" lon="-105.230575">
  <ele>1586.09</ele>
  <time>2026-08-28T19:12:37Z</time>
  <course>270.99</course>
  <speed>0.0</speed>
  <fix>3d</fix>
</trkpt>
<trkpt lat="40.072842" lon="-105.230575">
  <ele>1586.18</ele>
  <time>2026-08-28T19:12:37Z</time>
  <course>10.75</course>
  <speed>0.01414213562373095</speed>
  <fix>3d</fix>
</trkpt>
<trkpt lat="40.072842" lon="-105.230575">
  <ele>1586.09</ele>
  <time>2026-08-28T19:12:37Z</time>
  <course>267.19</course>
  <speed>0.0</speed>
  <fix>3d</fix>
</trkpt>
<trkpt lat="40.0728419" lon="-105.230575">
  <ele>1586.17</ele>
  <time>2026-08-28T19:12:37Z</time>
  <course>10.71</course>
  <speed>0.01414213562373095</speed>
  <fix>3d</fix>
</trkpt>
<trkpt lat="40.072842" lon="-105.230575">
  <ele>1586.09</ele>
  <time>2026-08-28T19:12:37Z</time>
  <course>272.1</course>
  <speed>0.0</speed>
  <fix>3d</fix>
</trkpt>
<trkpt lat="40.0728419" lon="-105.230575">
  <ele>1586.17</ele>
  <time>2026-08-28T19:12:37Z</time>
  <course>10.67</course>
  <speed>0.022360679774997897</speed>
  <fix>3d</fix>
</trkpt>
<trkpt lat="40.072842" lon="-105.230575">
  <ele>1586.09</ele>
  <time>2026-08-28T19:12:37Z</time>
  <course>269.38</course>
  <speed>0.0</speed>
  <fix>3d</fix>
</trkpt>
<trkpt lat="40.0728419" lon="-105.2305749">
  <ele>1586.17</ele>
  <time>2026-08-28T19:12:37Z</time>
  <course>10.63</course>
  <speed>0.022360679774997897</speed>
  <fix>3d</fix>
</trkpt>
<trkpt lat="40.072842" lon="-105.230575">
  <ele>1586.09</ele>
  <time>2026-08-28T19:12:37Z</time>
  <course>281.36</course>
  <speed>0.0</speed>
  <fix>3d</fix>
</trkpt>
<trkpt lat="40.0728419" lon="-105.2305749">
  <ele>1586.17</ele>
  <time>2026-08-28T19:12:37Z</time>
  <course>10.58</course>
  <speed>0.022360679774997897</speed>
  <fix>3d</fix>
</trkpt>
<trkpt lat="40.072842" lon="-105.230575">
  <ele>1586.09</ele>
  <time>2026-08-28T19:12:37Z</time>
  <course>281.73</course>
  <speed>0.0</speed>
  <fix>3d</fix>
</trkpt>
<trkpt lat="40.0728419" lon="-105.2305749">
  <ele>1586.17</ele>
  <time>2026-08-28T19:12:37Z</time>
  <course>10.54</course>
  <speed>0.022360679774997897</speed>
  <fix>3d</fix>
</trkpt>
<trkpt lat="40.072842" lon="-105.230575">
  <ele>1586.09</ele>
  <time>2026-08-28T19:12:37Z</time>
  <course>267.52</course>
  <speed>0.0</speed>
  <fix>3d</fix>
</trkpt>
<trkpt lat="40.0728419" lon="-105.2305749">
  <ele>1586.17</ele>
  <time>2026-08-28T19:12:37Z</time>
  <course>10.49</course>
  <speed>0.022360679774997897</speed>
  <fix>3d</fix>
</trkpt>
<trkpt lat="40.072842" lon="-105.230575">
  <ele>1586.09</ele>
  <time>2026-08-28T19:12:37Z</time>
  <course>269.34</course>
  <speed>0.0</speed>
  <fix>3d</fix>
</trkpt>
<trkpt lat="40.0728419" lon="-105.2305749">
  <ele>1586.17</ele>
  <time>2026-08-28T19:12:37Z</time>
  <course>10.45</course>
  <speed>0.022360679774997897</speed>
  <fix>3d</fix>
</trkpt>
<trkpt lat="40.072842" lon="-105.230575">
  <ele>1586.09</ele>
  <time>2026-08-28T19:12:37Z</time>
  <course>268.72</course>
  <speed>0.0</speed>
  <fix>3d</fix>
</trkpt>
<trkpt lat="40.0728419" lon="-105.2305749">
  <ele>1586.18</ele>
  <time>2026-08-28T19:12:37Z</time>
  <course>10.4</course>
  <speed>0.022360679774997897</speed>
  <fix>3d</fix>
</trkpt>
<trkpt lat="40.072842" lon="-105.230575">
  <ele>1586.09</ele>
  <time>2026-08-28T19:12:37Z</time>
  <course>268.35</course>
  <speed>0.0</speed>
  <fix>3d</fix>
</trkpt>
<trkpt lat="40.0728419" lon="-105.2305749">
  <ele>1586.18</ele>
  <time>2026-08-28T19:12:37Z</time>
  <course>10.35</course>
  <speed>0.022360679774997897</speed>
  <fix>3d</fix>
</trkpt>
<trkpt lat="40.072842" lon="-105.230575">
  <ele>1586.09</ele>
  <time>2026-08-28T19:12:37Z</time>
  <course>279.69</course>
  <speed>0.0</speed>
  <fix>3d</fix>
</trkpt>
<trkpt lat="40.0728419" lon="-105.2305749">
  <ele>1586.18</ele>
  <time>2026-08-28T19:12:37Z</time>
  <course>10.3</course>
  <speed>0.022360679774997897</speed>
  <fix>3d</fix>
</trkpt>
<trkpt lat="40.072842" lon="-105.230575">
  <ele>1586.09</ele>
  <time>2026-08-28T19:12:37Z</time>
  <course>277.51</course>
  <speed>0.0</speed>
  <fix>3d</fix>
</trkpt>
<trkpt lat="40.0728419" lon="-105.2305749">
  <ele>1586.18</ele>
  <time>2026-08-28T19:12:37Z</time>
  <course>10.25</course>
  <speed>0.022360679774997897</speed>
  <fix>3d</fix>
</trkpt>
<trkpt lat="40.072842" lon="-105.230575">
  <ele>1586.09</ele>
  <time>2026-08-28T19:12:37Z</time>
  <course>269.98</course>
  <speed>0.0</speed>
  <fix>3d</fix>
</trkpt>
<trkpt lat="40.0728419" lon="-105.2305749">
  <ele>1586.18</ele>
  <time>2026-08-28T19:12:37Z</time>
  <course>10.2</course>
  <speed>0.022360679774997897</speed>
  <fix>3d</fix>
</trkpt>
<trkpt lat="40.072842" lon="-105.230575">
  <ele>1586.09</ele>
  <time>2026-08-28T19:12:37Z</time>
  <course>269.19</course>
  <speed>0.0</speed>
  <fix>3d</fix>
</trkpt>
<trkpt lat="40.0728419" lon="-105.2305749">
  <ele>1586.18</ele>
  <time>2026-08-28T19:12:37Z</time>
  <course>10.15</course>
  <speed>0.022360679774997897</speed>
  <fix>3d</fix>
</trkpt>
<trkpt lat="40.072842" lon="-105.230575">
  <ele>1586.09</ele>
  <time>2026-08-28T19:12:37Z</time>
  <course>267.76</course>
  <speed>0.0</speed>
  <fix>3d</fix>
</trkpt>
<trkpt lat="40.0728419" lon="-105.2305749">
  <ele>1586.18</ele>
  <time>2026-08-28T19:12:37Z</time>
  <course>10.1</course>
  <speed>0.022360679774997897</speed>
  <fix>3d</fix>
</trkpt>
<trkpt lat="40.072842" lon="-105.230575">
  <ele>1586.09</ele>
  <time>2026-08-28T19:12:37Z</time>
  <course>269.81</course>
  <speed>0.0</speed>
  <fix>3d</fix>
</trkpt>
<trkpt lat="40.0728419" lon="-105.2305749">
  <ele>1586.18</ele>
  <time>2026-08-28T19:12:37Z</time>
  <course>10.05</course>
  <speed>0.022360679774997897</speed>
  <fix>3d</fix>
</trkpt>
<trkpt lat="40.072842" lon="-105.230575">
  <ele>1586.09</ele>
  <time>2026-08-28T19:12:37Z</time>
  <course>278.91</course>
  <speed>0.0</speed>
  <fix>3d</fix>
</trkpt>
<trkpt lat="40.0728419" lon="-105.2305749">
  <ele>1586.18</ele>
  <time>2026-08-28T19:12:37Z</time>
  <course>10.0</course>
  <speed>0.022360679774997897</speed>
  <fix>3d</fix>
</trkpt>
<trkpt lat="40.072842" lon="-105.230575">
  <ele>1586.09</ele>
  <time>2026-08-28T19:12:37Z</time>
  <course>280.77</course>
  <speed>0.0</speed>
  <fix>3d</fix>
</trkpt>
<trkpt lat="40.0728419" lon="-105.2305749">
  <ele>1586.18</ele>
  <time>2026-08-28T19:12:37Z</time>
  <course>9.95</course>
  <speed>0.022360679774997897</speed>
  <fix>3d</fix>
</trkpt>
<trkpt lat="40.072842" lon="-105.230575">
  <ele>1586.09</ele>
  <time>2026-08-28T19:12:37Z</time>
  <course>271.08</course>
  <speed>0.0</speed>
  <fix>3d</fix>
</trkpt>
<trkpt lat="40.0728419" lon="-105.2305749">
  <ele>1586.18</ele>
  <time>2026-08-28T19:12:37Z</time>
  <course>9.9</course>
  <speed>0.022360679774997897</speed>
  <fix>3d</fix>
</trkpt>
<trkpt lat="40.072842" lon="-105.230575">
  <ele>1586.09</ele>
  <time>2026-08-28T19:12:37Z</time>
  <course>267.04</course>
  <speed>0.0</speed>
  <fix>3d</fix>
</trkpt>
<trkpt lat="40.0728419" lon="-105.2305749">
  <ele>1586.18</ele>
  <time>2026-08-28T19:12:37Z</time>
  <course>9.85</course>
  <speed>0.022360679774997897</speed>
  <fix>3d</fix>
</trkpt>
<trkpt lat="40.072842" lon="-105.230575">
  <ele>1586.09</ele>
  <time>2026-08-28T19:12:37Z</time>
  <course>267.68</course>
  <speed>0.0</speed>
  <fix>3d</fix>
</trkpt>
<trkpt lat="40.0728419" lon="-105.2305749">
  <ele>1586.18</ele>
  <time>2026-08-28T19:12:37Z</time>
  <course>9.81</course>
  <speed>0.022360679774997897</speed>
  <fix>3d</fix>
</trkpt>
<trkpt lat="40.072842" lon="-105.230575">
  <ele>1586.09</ele>
  <time>2026-08-28T19:12:37Z</time>
  <course>270.2</course>
  <speed>0.0</speed>
  <fix>3d</fix>
</trkpt>
<trkpt lat="40.0728419" lon="-105.2305749">
  <ele>1586.18</ele>
  <time>2026-08-28T19:12:37Z</time>
  <course>9.76</course>
  <speed>0.022360679774997897</speed>
  <fix>3d</fix>
</trkpt>
<trkpt lat="40.072842" lon="-105.230575">
  <ele>1586.09</ele>
  <time>2026-08-28T19:12:37Z</time>
  <course>269.56</course>
  <speed>0.0</speed>
  <fix>3d</fix>
</trkpt>
<trkpt lat="40.0728419" lon="-105.2305749">
  <ele>1586.18</ele>
  <time>2026-08-28T19:12:37Z</time>
  <course>9.71</course>
  <speed>0.022360679774997897</speed>
  <fix>3d</fix>
</trkpt>
<trkpt lat="40.072842" lon="-105.230575">
  <ele>1586.09</ele>
  <time>2026-08-28T19:12:37Z</time>
  <course>269.39</course>
  <speed>0.0</speed>
  <fix>3d</fix>
</trkpt>
<trkpt lat="40.0728419" lon="-105.2305749">
  <ele>1586.18</ele>
  <time>2026-08-28T19:12:37Z</time>
  <course>9.67</course>
  <speed>0.022360679774997897</speed>
  <fix>3d</fix>
</trkpt>
<trkpt lat="40.072842" lon="-105.230575">
  <ele>1586.09</ele>
  <time>2026-08-28T19:12:37Z</time>
  <course>277.09</course>
  <speed>0.0</speed>
  <fix>3d</fix>
</trkpt>
<trkpt lat="40.0728419" lon="-105.2305749">
  <ele>1586.18</ele>
  <time>2026-08-28T19:12:37Z</time>
  <course>9.62</course>
  <speed>0.022360679774997897</speed>
  <fix>3d</fix>
</trkpt>
<trkpt lat="40.072842" lon="-105.230575">
  <ele>1586.09</ele>
  <time>2026-08-28T19:12:37Z</time>
  <course>272.51</course>
  <speed>0.0</speed>
  <fix>3d</fix>
</trkpt>
<trkpt lat="40.0728419" lon="-105.2305749">
  <ele>1586.18</ele>
  <time>2026-08-28T19:12:37Z</time>
  <course>9.58</course>
  <speed>0.022360679774997897</speed>
  <fix>3d</fix>
</trkpt>
<trkpt lat="40.072842" lon="-105.230575">
  <ele>1586.09</ele>
  <time>2026-08-28T19:12:37Z</time>
  <course>265.61</course>
  <speed>0.0</speed>
  <fix>3d</fix>
</trkpt>
<trkpt lat="40.0728419" lon="-105.2305749">
  <ele>1586.18</ele>
  <time>2026-08-28T19:12:37Z</time>
  <course>9.54</course>
  <speed>0.022360679774997897</speed>
  <fix>3d</fix>
</trkpt>
<trkpt lat="40.072842" lon="-105.230575">
  <ele>1586.09</ele>
  <time>2026-08-28T19:12:37Z</time>
  <course>268.18</course>
  <speed>0.0</speed>
  <fix>3d</fix>
</trkpt>
<trkpt lat="40.0728419" lon="-105.2305749">
  <ele>1586.18</ele>
  <time>2026-08-28T19:12:37Z</time>
  <course>9.5</course>
  <speed>0.022360679774997897</speed>
  <fix>3d</fix>
</trkpt>
<trkpt lat="40.072842" lon="-105.230575">
  <ele>1586.09</ele>
  <time>2026-08-28T19:12:37Z</time>
  <course>270.07</course>
  <speed>0.0</speed>
  <fix>3d</fix>
</trkpt>
<trkpt lat="40.0728419" lon="-105.2305749">
  <ele>1586.18</ele>
  <time>2026-08-28T19:12:37Z</time>
  <course>9.45</course>
  <speed>0.022360679774997897</speed>
  <fix>3d</fix>
</trkpt>
<trkpt lat="40.072842" lon="-105.230575">
  <ele>1586.09</ele>
  <time>2026-08-28T19:12:37Z</time>
  <course>269.07</course>
  <speed>0.0</speed>
  <fix>3d</fix>
</trkpt>
<trkpt lat="40.0728419" lon="-105.2305749">
  <ele>1586.18</ele>
  <time>2026-08-28T19:12:37Z</time>
  <course>9.41</course>
  <speed>0.022360679774997897</speed>
  <fix>3d</fix>
</trkpt>
<trkpt lat="40.072842" lon="-105.230575">
  <ele>1586.09</ele>
  <time>2026-08-28T19:12:37Z</time>
  <course>268.76</course>
  <speed>0.0</speed>
  <fix>3d</fix>
</trkpt>
<trkpt lat="40.0728419" lon="-105.2305749">
  <ele>1586.17</ele>
  <time>2026-08-28T19:12:37Z</time>
  <course>9.37</course>
  <speed>0.022360679774997897</speed>
  <fix>3d</fix>
</trkpt>
<trkpt lat="40.072842" lon="-105.230575">
  <ele>1586.09</ele>
  <time>2026-08-28T19:12:37Z</time>
  <course>268.79</course>
  <speed>0.0</speed>
  <fix>3d</fix>
</trkpt>
<trkpt lat="40.0728419" lon="-105.2305749">
  <ele>1586.17</ele>
  <time>2026-08-28T19:12:37Z</time>
  <course>9.34</course>
  <speed>0.022360679774997897</speed>
  <fix>3d</fix>
</trkpt>
<trkpt lat="40.072842" lon="-105.230575">
  <ele>1586.09</ele>
  <time>2026-08-28T19:12:37Z</time>
  <course>268.69</course>
  <speed>0.0</speed>
  <fix>3d</fix>
</trkpt>
<trkpt lat="40.0728419" lon="-105.2305749">
  <ele>1586.17</ele>
  <time>2026-08-28T19:12:37Z</time>
  <course>9.3</course>
  <speed>0.022360679774997897</speed>
  <fix>3d</fix>
</trkpt>
<trkpt lat="40.072842" lon="-105.230575">
  <ele>1586.09</ele>
  <time>2026-08-28T19:12:37Z</time>
  <course>267.33</course>
  <speed>0.0</speed>
  <fix>3d</fix>
</trkpt>
<trkpt lat="40.0728419" lon="-105.2305749">
  <ele>1586.17</ele>
  <time>2026-08-28T19:12:37Z</time>
  <course>9.26</course>
  <speed>0.022360679774997897</speed>
  <fix>3d</fix>
</trkpt>
<trkpt lat="40.072842" lon="-105.230575">
  <ele>1586.09</ele>
  <time>2026-08-28T19:12:37Z</time>
  <course>267.52</course>
  <speed>0.0</speed>
  <fix>3d</fix>
</trkpt>
<trkpt lat="40.0728419" lon="-105.2305749">
  <ele>1586.17</ele>
  <time>2026-08-28T19:12:37Z</time>
  <course>9.23</course>
  <speed>0.022360679774997897</speed>
  <fix>3d</fix>
</trkpt>
<trkpt lat="40.072842" lon="-105.230575">
  <ele>1586.09</ele>
  <time>2026-08-28T19:12:37Z</time>
  <course>269.01</course>
  <speed>0.0</speed>
  <fix>3d</fix>
</trkpt>
<trkpt lat="40.0728419" lon="-105.2305749">
  <ele>1586.18</ele>
  <time>2026-08-28T19:12:37Z</time>
  <course>9.19</course>
  <speed>0.022360679774997897</speed>
  <fix>3d</fix>
</trkpt>
<trkpt lat="40.072842" lon="-105.230575">
  <ele>1586.09</ele>
  <time>2026-08-28T19:12:37Z</time>
  <course>268.78</course>
  <speed>0.0</speed>
  <fix>3d</fix>
</trkpt>
<trkpt lat="40.0728419" lon="-105.2305749">
  <ele>1586.18</ele>
  <time>2026-08-28T19:12:37Z</time>
  <course>9.16</course>
  <speed>0.022360679774997897</speed>
  <fix>3d</fix>
</trkpt>
<trkpt lat="40.072842" lon="-105.230575">
  <ele>1586.09</ele>
  <time>2026-08-28T19:12:37Z</time>
  <course>268.68</course>
  <speed>0.0</speed>
  <fix>3d</fix>
</trkpt>
<trkpt lat="40.0728419" lon="-105.2305749">
  <ele>1586.18</ele>
  <time>2026-08-28T19:12:37Z</time>
  <course>9.13</course>
  <speed>0.022360679774997897</speed>
  <fix>3d</fix>
</trkpt>
<trkpt lat="40.072842" lon="-105.230575">
  <ele>1586.09</ele>
  <time>2026-08-28T19:12:37Z</time>
  <course>268.59</course>
  <speed>0.0</speed>
  <fix>3d</fix>
</trkpt>
<trkpt lat="40.0728419" lon="-105.2305749">
  <ele>1586.18</ele>
  <time>2026-08-28T19:12:37Z</time>
  <course>9.1</course>
  <speed>0.022360679774997897</speed>
  <fix>3d</fix>
</trkpt>
<trkpt lat="40.072842" lon="-105.230575">
  <ele>1586.09</ele>
  <time>2026-08-28T19:12:37Z</time>
  <course>268.51</course>
  <speed>0.0</speed>
  <fix>3d</fix>
</trkpt>
<trkpt lat="40.0728419" lon="-105.2305749">
  <ele>1586.18</ele>
  <time>2026-08-28T19:12:37Z</time>
  <course>9.06</course>
  <speed>0.022360679774997897</speed>
  <fix>3d</fix>
</trkpt>
<trkpt lat="40.072842" lon="-105.230575">
  <ele>1586.09</ele>
  <time>2026-08-28T19:12:37Z</time>
  <course>268.48</course>
  <speed>0.0</speed>
  <fix>3d</fix>
</trkpt>
<trkpt lat="40.0728419" lon="-105.2305749">
  <ele>1586.18</ele>
  <time>2026-08-28T19:12:37Z</time>
  <course>9.04</course>
  <speed>0.022360679774997897</speed>
  <fix>3d</fix>
</trkpt>
<trkpt lat="40.072842" lon="-105.230575">
  <ele>1586.09</ele>
  <time>2026-08-28T19:12:37Z</time>
  <course>274.88</course>
  <speed>0.0</speed>
  <fix>3d</fix>
</trkpt>
<trkpt lat="40.0728419" lon="-105.2305749">
  <ele>1586.18</ele>
  <time>2026-08-28T19:12:37Z</time>
  <course>9.01</course>
  <speed>0.022360679774997897</speed>
  <fix>3d</fix>
</trkpt>
<trkpt lat="40.072842" lon="-105.230575">
  <ele>1586.09</ele>
  <time>2026-08-28T19:12:37Z</time>
  <course>275.69</course>
  <speed>0.0</speed>
  <fix>3d</fix>
</trkpt>
<trkpt lat="40.0728419" lon="-105.2305749">
  <ele>1586.19</ele>
  <time>2026-08-28T19:12:37Z</time>
  <course>8.98</course>
  <speed>0.022360679774997897</speed>
  <fix>3d</fix>
</trkpt>
<trkpt lat="40.072842" lon="-105.230575">
  <ele>1586.09</ele>
  <time>2026-08-28T19:12:37Z</time>
  <course>268.26</course>
  <speed>0.0</speed>
  <fix>3d</fix>
</trkpt>
<trkpt lat="40.0728419" lon="-105.2305749">
  <ele>1586.19</ele>
  <time>2026-08-28T19:12:37Z</time>
  <course>8.95</course>
  <speed>0.022360679774997897</speed>
  <fix>3d</fix>
</trkpt>
<trkpt lat="40.072842" lon="-105.230575">
  <ele>1586.09</ele>
  <time>2026-08-28T19:12:37Z</time>
  <course>267.58</course>
  <speed>0.0</speed>
  <fix>3d</fix>
</trkpt>
<trkpt lat="40.0728419" lon="-105.2305749">
  <ele>1586.19</ele>
  <time>2026-08-28T19:12:37Z</time>
  <course>8.92</course>
  <speed>0.022360679774997897</speed>
  <fix>3d</fix>
</trkpt>
<trkpt lat="40.072842" lon="-105.230575">
  <ele>1586.09</ele>
  <time>2026-08-28T19:12:37Z</time>
  <course>268.98</course>
  <speed>0.0</speed>
  <fix>3d</fix>
</trkpt>
<trkpt lat="40.0728419" lon="-105.2305749">
  <ele>1586.19</ele>
  <time>2026-08-28T19:12:37Z</time>
  <course>8.9</course>
  <speed>0.022360679774997897</speed>
  <fix>3d</fix>
</trkpt>
<trkpt lat="40.072842" lon="-105.230575">
  <ele>1586.09</ele>
  <time>2026-08-28T19:12:37Z</time>
  <course>268.69</course>
  <speed>0.0</speed>
  <fix>3d</fix>
</trkpt>
<trkpt lat="40.0728419" lon="-105.2305749">
  <ele>1586.19</ele>
  <time>2026-08-28T19:12:37Z</time>
  <course>8.87</course>
  <speed>0.022360679774997897</speed>
  <fix>3d</fix>
</trkpt>
<trkpt lat="40.072842" lon="-105.230575">
  <ele>1586.09</ele>
  <time>2026-08-28T19:12:37Z</time>
  <course>268.42</course>
  <speed>0.0</speed>
  <fix>3d</fix>
</trkpt>
<trkpt lat="40.0728419" lon="-105.2305749">
  <ele>1586.19</ele>
  <time>2026-08-28T19:12:37Z</time>
  <course>8.85</course>
  <speed>0.022360679774997897</speed>
  <fix>3d</fix>
</trkpt>
<trkpt lat="40.072842" lon="-105.230575">
  <ele>1586.09</ele>
  <time>2026-08-28T19:12:37Z</time>
  <course>269.21</course>
  <speed>0.0</speed>
  <fix>3d</fix>
</trkpt>
<trkpt lat="40.0728419" lon="-105.2305749">
  <ele>1586.18</ele>
  <time>2026-08-28T19:12:37Z</time>
  <course>8.83</course>
  <speed>0.022360679774997897</speed>
  <fix>3d</fix>
</trkpt>
<trkpt lat="40.072842" lon="-105.230575">
  <ele>1586.09</ele>
  <time>2026-08-28T19:12:37Z</time>
  <course>267.81</course>
  <speed>0.0</speed>
  <fix>3d</fix>
</trkpt>
<trkpt lat="40.0728419" lon="-105.2305749">
  <ele>1586.18</ele>
  <time>2026-08-28T19:12:37Z</time>
  <course>8.8</course>
  <speed>0.01414213562373095</speed>
  <fix>3d</fix>
</trkpt>
<trkpt lat="40.072842" lon="-105.230575">
  <ele>1586.09</ele>
  <time>2026-08-28T19:12:37Z</time>
  <course>266.65</course>
  <speed>0.0</speed>
  <fix>3d</fix>
</trkpt>
<trkpt lat="40.0728419" lon="-105.2305749">
  <ele>1586.18</ele>
  <time>2026-08-28T19:12:37Z</time>
  <course>8.78</course>
  <speed>0.01414213562373095</speed>
  <fix>3d</fix>
</trkpt>
<trkpt lat="40.072842" lon="-105.230575">
  <ele>1586.09</ele>
  <time>2026-08-28T19:12:37Z</time>
  <course>271.23</course>
  <speed>0.0</speed>
  <fix>3d</fix>
</trkpt>
<trkpt lat="40.0728419" lon="-105.2305749">
  <ele>1586.18</ele>
  <time>2026-08-28T19:12:37Z</time>
  <course>8.76</course>
  <speed>0.01414213562373095</speed>
  <fix>3d</fix>
</trkpt>
<trkpt lat="40.072842" lon="-105.230575">
  <ele>1586.09</ele>
  <time>2026-08-28T19:12:37Z</time>
  <course>275.69</course>
  <speed>0.0</speed>
  <fix>3d</fix>
</trkpt>
<trkpt lat="40.0728419" lon="-105.2305749">
  <ele>1586.18</ele>
  <time>2026-08-28T19:12:37Z</time>
  <course>8.74</course>
  <speed>0.01414213562373095</speed>
  <fix>3d</fix>
</trkpt>
<trkpt lat="40.072842" lon="-105.230575">
  <ele>1586.09</ele>
  <time>2026-08-28T19:12:37Z</time>
  <course>270.91</course>
  <speed>0.0</speed>
  <fix>3d</fix>
</trkpt>
<trkpt lat="40.0728419" lon="-105.2305749">
  <ele>1586.18</ele>
  <time>2026-08-28T19:12:37Z</time>
  <course>8.73</course>
  <speed>0.01414213562373095</speed>
  <fix>3d</fix>
</trkpt>
<trkpt lat="40.072842" lon="-105.230575">
  <ele>1586.09</ele>
  <time>2026-08-28T19:12:37Z</time>
  <course>267.11</course>
  <speed>0.0</speed>
  <fix>3d</fix>
</trkpt>
<trkpt lat="40.0728419" lon="-105.2305749">
  <ele>1586.18</ele>
  <time>2026-08-28T19:12:37Z</time>
  <course>8.71</course>
  <speed>0.01414213562373095</speed>
  <fix>3d</fix>
</trkpt>
<trkpt lat="40.072842" lon="-105.230575">
  <ele>1586.09</ele>
  <time>2026-08-28T19:12:37Z</time>
  <course>268.72</course>
  <speed>0.0</speed>
  <fix>3d</fix>
</trkpt>
<trkpt lat="40.0728419" lon="-105.2305749">
  <ele>1586.18</ele>
  <time>2026-08-28T19:12:37Z</time>
  <course>8.69</course>
  <speed>0.01414213562373095</speed>
  <fix>3d</fix>
</trkpt>
<trkpt lat="40.072842" lon="-105.230575">
  <ele>1586.09</ele>
  <time>2026-08-28T19:12:37Z</time>
  <course>269.21</course>
  <speed>0.0</speed>
  <fix>3d</fix>
</trkpt>
<trkpt lat="40.0728419" lon="-105.2305749">
  <ele>1586.19</ele>
  <time>2026-08-28T19:12:37Z</time>
  <course>8.68</course>
  <speed>0.01414213562373095</speed>
  <fix>3d</fix>
</trkpt>
<trkpt lat="40.072842" lon="-105.230575">
  <ele>1586.09</ele>
  <time>2026-08-28T19:12:37Z</time>
  <course>268.56</course>
  <speed>0.0</speed>
  <fix>3d</fix>
</trkpt>
<trkpt lat="40.0728419" lon="-105.2305749">
  <ele>1586.19</ele>
  <time>2026-08-28T19:12:37Z</time>
  <course>8.66</course>
  <speed>0.01414213562373095</speed>
  <fix>3d</fix>
</trkpt>
<trkpt lat="40.072842" lon="-105.230575">
  <ele>1586.09</ele>
  <time>2026-08-28T19:12:37Z</time>
  <course>269.09</course>
  <speed>0.0</speed>
  <fix>3d</fix>
</trkpt>
<trkpt lat="40.0728419" lon="-105.2305749">
  <ele>1586.19</ele>
  <time>2026-08-28T19:12:37Z</time>
  <course>8.64</course>
  <speed>0.01414213562373095</speed>
  <fix>3d</fix>
</trkpt>
<trkpt lat="40.072842" lon="-105.230575">
  <ele>1586.09</ele>
  <time>2026-08-28T19:12:37Z</time>
  <course>268.08</course>
  <speed>0.0</speed>
  <fix>3d</fix>
</trkpt>
<trkpt lat="40.0728419" lon="-105.2305749">
  <ele>1586.19</ele>
  <time>2026-08-28T19:12:37Z</time>
  <course>8.63</course>
  <speed>0.01414213562373095</speed>
  <fix>3d</fix>
</trkpt>
<trkpt lat="40.072842" lon="-105.230575">
  <ele>1586.09</ele>
  <time>2026-08-28T19:12:37Z</time>
  <course>267.53</course>
  <speed>0.0</speed>
  <fix>3d</fix>
</trkpt>
<trkpt lat="40.0728419" lon="-105.2305749">
  <ele>1586.19</ele>
  <time>2026-08-28T19:12:37Z</time>
  <course>8.62</course>
  <speed>0.01414213562373095</speed>
  <fix>3d</fix>
</trkpt>
<trkpt lat="40.072842" lon="-105.230575">
  <ele>1586.09</ele>
  <time>2026-08-28T19:12:37Z</time>
  <course>269.01</course>
  <speed>0.0</speed>
  <fix>3d</fix>
</trkpt>
<trkpt lat="40.0728419" lon="-105.2305749">
  <ele>1586.19</ele>
  <time>2026-08-28T19:12:37Z</time>
  <course>8.61</course>
  <speed>0.01414213562373095</speed>
  <fix>3d</fix>
</trkpt>
<trkpt lat="40.072842" lon="-105.230575">
  <ele>1586.09</ele>
  <time>2026-08-28T19:12:37Z</time>
  <course>268.97</course>
  <speed>0.0</speed>
  <fix>3d</fix>
</trkpt>
<trkpt lat="40.0728419" lon="-105.2305749">
  <ele>1586.19</ele>
  <time>2026-08-28T19:12:37Z</time>
  <course>8.6</course>
  <speed>0.01414213562373095</speed>
  <fix>3d</fix>
</trkpt>
<trkpt lat="40.072842" lon="-105.230575">
  <ele>1586.09</ele>
  <time>2026-08-28T19:12:37Z</time>
  <course>273.65</course>
  <speed>0.0</speed>
  <fix>3d</fix>
</trkpt>
<trkpt lat="40.0728419" lon="-105.2305749">
  <ele>1586.19</ele>
  <time>2026-08-28T19:12:37Z</time>
  <course>8.58</course>
  <speed>0.01414213562373095</speed>
  <fix>3d</fix>
</trkpt>
<trkpt lat="40.072842" lon="-105.230575">
  <ele>1586.09</ele>
  <time>2026-08-28T19:12:37Z</time>
  <course>273.06</course>
  <speed>0.0</speed>
  <fix>3d</fix>
</trkpt>
<trkpt lat="40.0728419" lon="-105.2305749">
  <ele>1586.19</ele>
  <time>2026-08-28T19:12:37Z</time>
  <course>8.58</course>
  <speed>0.01414213562373095</speed>
  <fix>3d</fix>
</trkpt>
<trkpt lat="40.072842" lon="-105.230575">
  <ele>1586.09</ele>
  <time>2026-08-28T19:12:37Z</time>
  <course>267.43</course>
  <speed>0.0</speed>
  <fix>3d</fix>
</trkpt>
<trkpt lat="40.0728419" lon="-105.2305749">
  <ele>1586.19</ele>
  <time>2026-08-28T19:12:37Z</time>
  <course>8.57</course>
  <speed>0.01414213562373095</speed>
  <fix>3d</fix>
</trkpt>
<trkpt lat="40.072842" lon="-105.230575">
  <ele>1586.09</ele>
  <time>2026-08-28T19:12:37Z</time>
  <course>268.41</course>
  <speed>0.0</speed>
  <fix>3d</fix>
</trkpt>
<trkpt lat="40.0728419" lon="-105.2305749">
  <ele>1586.19</ele>
  <time>2026-08-28T19:12:37Z</time>
  <course>8.56</course>
  <speed>0.01414213562373095</speed>
  <fix>3d</fix>
</trkpt>
<trkpt lat="40.072842" lon="-105.230575">
  <ele>1586.09</ele>
  <time>2026-08-28T19:12:37Z</time>
  <course>269.3</course>
  <speed>0.0</speed>
  <fix>3d</fix>
</trkpt>
<trkpt lat="40.0728419" lon="-105.2305749">
  <ele>1586.19</ele>
  <time>2026-08-28T19:12:37Z</time>
  <course>8.55</course>
  <speed>0.01414213562373095</speed>
  <fix>3d</fix>
</trkpt>
<trkpt lat="40.072842" lon="-105.230575">
  <ele>1586.09</ele>
  <time>2026-08-28T19:12:37Z</time>
  <course>270.93</course>
  <speed>0.0</speed>
  <fix>3d</fix>
</trkpt>
<trkpt lat="40.0728419" lon="-105.2305749">
  <ele>1586.18</ele>
  <time>2026-08-28T19:12:37Z</time>
  <course>8.55</course>
  <speed>0.01414213562373095</speed>
  <fix>3d</fix>
</trkpt>
<trkpt lat="40.072842" lon="-105.230575">
  <ele>1586.09</ele>
  <time>2026-08-28T19:12:37Z</time>
  <course>268.79</course>
  <speed>0.0</speed>
  <fix>3d</fix>
</trkpt>
<trkpt lat="40.0728419" lon="-105.2305749">
  <ele>1586.18</ele>
  <time>2026-08-28T19:12:37Z</time>
  <course>8.54</course>
  <speed>0.01414213562373095</speed>
  <fix>3d</fix>
</trkpt>
<trkpt lat="40.072842" lon="-105.230575">
  <ele>1586.09</ele>
  <time>2026-08-28T19:12:37Z</time>
  <course>267.25</course>
  <speed>0.0</speed>
  <fix>3d</fix>
</trkpt>
<trkpt lat="40.0728419" lon="-105.2305749">
  <ele>1586.18</ele>
  <time>2026-08-28T19:12:37Z</time>
  <course>8.54</course>
  <speed>0.01414213562373095</speed>
  <fix>3d</fix>
</trkpt>
<trkpt lat="40.072842" lon="-105.230575">
  <ele>1586.09</ele>
  <time>2026-08-28T19:12:37Z</time>
  <course>269.13</course>
  <speed>0.0</speed>
  <fix>3d</fix>
</trkpt>
<trkpt lat="40.0728419" lon="-105.2305749">
  <ele>1586.18</ele>
  <time>2026-08-28T19:12:38Z</time>
  <course>8.53</course>
  <speed>0.01414213562373095</speed>
  <fix>3d</fix>
</trkpt>
<trkpt lat="40.072842" lon="-105.230575">
  <ele>1586.09</ele>
  <time>2026-08-28T19:12:38Z</time>
  <course>269.12</course>
  <speed>0.0</speed>
  <fix>3d</fix>
</trkpt>
<trkpt lat="40.0728419" lon="-105.2305749">
  <ele>1586.18</ele>
  <time>2026-08-28T19:12:38Z</time>
  <course>8.53</course>
  <speed>0.01414213562373095</speed>
  <fix>3d</fix>
</trkpt>
<trkpt lat="40.072842" lon="-105.230575">
  <ele>1586.09</ele>
  <time>2026-08-28T19:12:38Z</time>
  <course>269.07</course>
  <speed>0.0</speed>
  <fix>3d</fix>
</trkpt>
<trkpt lat="40.0728419" lon="-105.2305749">
  <ele>1586.18</ele>
  <time>2026-08-28T19:12:38Z</time>
  <course>8.52</course>
  <speed>0.01414213562373095</speed>
  <fix>3d</fix>
</trkpt>
<trkpt lat="40.072842" lon="-105.230575">
  <ele>1586.09</ele>
  <time>2026-08-28T19:12:38Z</time>
  <course>268.95</course>
  <speed>0.0</speed>
  <fix>3d</fix>
</trkpt>
<trkpt lat="40.0728419" lon="-105.2305749">
  <ele>1586.18</ele>
  <time>2026-08-28T19:12:38Z</time>
  <course>8.52</course>
  <speed>0.01414213562373095</speed>
  <fix>3d</fix>
</trkpt>
<trkpt lat="40.072842" lon="-105.230575">
  <ele>1586.09</ele>
  <time>2026-08-28T19:12:38Z</time>
  <course>275.27</course>
  <speed>0.0</speed>
  <fix>3d</fix>
</trkpt>
<trkpt lat="40.0728419" lon="-105.2305749">
  <ele>1586.18</ele>
  <time>2026-08-28T19:12:38Z</time>
  <course>8.52</course>
  <speed>0.01414213562373095</speed>
  <fix>3d</fix>
</trkpt>
<trkpt lat="40.072842" lon="-105.230575">
  <ele>1586.09</ele>
  <time>2026-08-28T19:12:38Z</time>
  <course>275.44</course>
  <speed>0.0</speed>
  <fix>3d</fix>
</trkpt>
<trkpt lat="40.0728419" lon="-105.2305749">
  <ele>1586.17</ele>
  <time>2026-08-28T19:12:38Z</time>
  <course>8.52</course>
  <speed>0.01414213562373095</speed>
  <fix>3d</fix>
</trkpt>
<trkpt lat="40.072842" lon="-105.230575">
  <ele>1586.09</ele>
  <time>2026-08-28T19:12:38Z</time>
  <course>269.12</course>
  <speed>0.0</speed>
  <fix>3d</fix>
</trkpt>
<trkpt lat="40.0728419" lon="-105.2305749">
  <ele>1586.17</ele>
  <time>2026-08-28T19:12:38Z</time>
  <course>8.52</course>
  <speed>0.01414213562373095</speed>
  <fix>3d</fix>
</trkpt>
<trkpt lat="40.072842" lon="-105.230575">
  <ele>1586.09</ele>
  <time>2026-08-28T19:12:38Z</time>
  <course>268.37</course>
  <speed>0.0</speed>
  <fix>3d</fix>
</trkpt>
<trkpt lat="40.0728419" lon="-105.2305749">
  <ele>1586.2</ele>
  <time>2026-08-28T19:12:38Z</time>
  <course>8.5</course>
  <speed>0.01414213562373095</speed>
  <fix>3d</fix>
</trkpt>
<trkpt lat="40.072842" lon="-105.230575">
  <ele>1586.09</ele>
  <time>2026-08-28T19:12:38Z</time>
  <course>270.73</course>
  <speed>0.0</speed>
  <fix>3d</fix>
</trkpt>
<trkpt lat="40.0728419" lon="-105.2305749">
  <ele>1586.29</ele>
  <time>2026-08-28T19:12:38Z</time>
  <course>8.44</course>
  <speed>0.01414213562373095</speed>
  <fix>3d</fix>
</trkpt>
<trkpt lat="40.072842" lon="-105.230575">
  <ele>1586.14</ele>
  <time>2026-08-28T19:12:38Z</time>
  <course>271.26</course>
  <speed>0.0</speed>
  <fix>3d</fix>
</trkpt>
<trkpt lat="40.0728419" lon="-105.2305749">
  <ele>1586.43</ele>
  <time>2026-08-28T19:12:38Z</time>
  <course>4.0</course>
  <speed>0.1004987562112089</speed>
  <fix>3d</fix>
</trkpt>
<trkpt lat="40.072842" lon="-105.230575">
  <ele>1586.22</ele>
  <time>2026-08-28T19:12:38Z</time>
  <course>275.74</course>
  <speed>0.01</speed>
  <fix>3d</fix>
</trkpt>
<trkpt lat="40.0728419" lon="-105.2305754">
  <ele>1586.78</ele>
  <time>2026-08-28T19:12:38Z</time>
  <course>1.73</course>
  <speed>0.2765863337187866</speed>
  <fix>3d</fix>
</trkpt>
<trkpt lat="40.072842" lon="-105.2305752">
  <ele>1586.39</ele>
  <time>2026-08-28T19:12:38Z</time>
  <course>276.09</course>
  <speed>0.12</speed>
  <fix>3d</fix>
</trkpt>
<trkpt lat="40.072842" lon="-105.2305755">
  <ele>1586.84</ele>
  <time>2026-08-28T19:12:38Z</time>
  <course>1.51</course>
  <speed>0.28861739379323625</speed>
  <fix>3d</fix>
</trkpt>
<trkpt lat="40.0728421" lon="-105.2305762">
  <ele>1587.21</ele>
  <time>2026-08-28T19:12:38Z</time>
  <course>0.53</course>
  <speed>0.4026164427839479</speed>
  <fix>3d</fix>
</trkpt>
<trkpt lat="40.072842" lon="-105.2305757">
  <ele>1586.72</ele>
  <time>2026-08-28T19:12:38Z</time>
  <course>276.2</course>
  <speed>0.29</speed>
  <fix>3d</fix>
</trkpt>
<trkpt lat="40.0728421" lon="-105.2305764">
  <ele>1587.26</ele>
  <time>2026-08-28T19:12:38Z</time>
  <course>0.42</course>
  <speed>0.41231056256176607</speed>
  <fix>3d</fix>
</trkpt>
<trkpt lat="40.0728423" lon="-105.2305773">
  <ele>1587.63</ele>
  <time>2026-08-28T19:12:38Z</time>
  <course>359.97</course>
  <speed>0.4827007354458868</speed>
  <fix>3d</fix>
</trkpt>
<trkpt lat="40.072842" lon="-105.2305765">
  <ele>1587.14</ele>
  <time>2026-08-28T19:12:38Z</time>
  <course>275.99</course>
  <speed>0.42</speed>
  <fix>3d</fix>
</trkpt>
<trkpt lat="40.0728423" lon="-105.2305775">
  <ele>1587.69</ele>
  <time>2026-08-28T19:12:38Z</time>
  <course>359.93</course>
  <speed>0.49244289008980524</speed>
  <fix>3d</fix>
</trkpt>
<trkpt lat="40.0728424" lon="-105.2305785">
  <ele>1588.09</ele>
  <time>2026-08-28T19:12:38Z</time>
  <course>359.79</course>
  <speed>0.5510898293381942</speed>
  <fix>3d</fix>
</trkpt>
<trkpt lat="40.0728421" lon="-105.2305777">
  <ele>1587.56</ele>
  <time>2026-08-28T19:12:38Z</time>
  <course>275.46</course>
  <speed>0.51</speed>
  <fix>3d</fix>
</trkpt>
<trkpt lat="40.0728424" lon="-105.2305786">
  <ele>1588.09</ele>
  <time>2026-08-28T19:12:38Z</time>
  <course>359.79</course>
  <speed>0.5510898293381942</speed>
  <fix>3d</fix>
</trkpt>
<trkpt lat="40.0728425" lon="-105.2305799">
  <ele>1588.56</ele>
  <time>2026-08-28T19:12:38Z</time>
  <course>359.82</course>
  <speed>0.6001666435249463</speed>
  <fix>3d</fix>
</trkpt>
<trkpt lat="40.0728422" lon="-105.2305789">
  <ele>1588.0</ele>
  <time>2026-08-28T19:12:38Z</time>
  <course>274.89</course>
  <speed>0.57</speed>
  <fix>3d</fix>
</trkpt>
<trkpt lat="40.0728425" lon="-105.2305801">
  <ele>1588.62</ele>
  <time>2026-08-28T19:12:38Z</time>
  <course>359.83</course>
  <speed>0.6001666435249463</speed>
  <fix>3d</fix>
</trkpt>
<trkpt lat="40.0728426" lon="-105.2305814">
  <ele>1589.04</ele>
  <time>2026-08-28T19:12:38Z</time>
  <course>359.98</course>
  <speed>0.6296824596572467</speed>
  <fix>3d</fix>
</trkpt>
<trkpt lat="40.0728423" lon="-105.2305803">
  <ele>1588.46</ele>
  <time>2026-08-28T19:12:38Z</time>
  <course>274.5</course>
  <speed>0.62</speed>
  <fix>3d</fix>
</trkpt>
<trkpt lat="40.0728426" lon="-105.2305816">
  <ele>1589.11</ele>
  <time>2026-08-28T19:12:38Z</time>
  <course>358.53</course>
  <speed>0.6280127387243033</speed>
  <fix>3d</fix>
</trkpt>
<trkpt lat="40.0728427" lon="-105.230583">
  <ele>1589.51</ele>
  <time>2026-08-28T19:12:38Z</time>
  <course>358.65</course>
  <speed>0.6576473218982953</speed>
  <fix>3d</fix>
</trkpt>
<trkpt lat="40.0728424" lon="-105.2305818">
  <ele>1588.92</ele>
  <time>2026-08-28T19:12:38Z</time>
  <course>274.32</course>
  <speed>0.65</speed>
  <fix>3d</fix>
</trkpt>
<trkpt lat="40.0728427" lon="-105.2305832">
  <ele>1589.58</ele>
  <time>2026-08-28T19:12:38Z</time>
  <course>358.65</course>
  <speed>0.6576473218982953</speed>
  <fix>3d</fix>
</trkpt>
<trkpt lat="40.0728428" lon="-105.2305846">
  <ele>1589.99</ele>
  <time>2026-08-28T19:12:38Z</time>
  <course>358.86</course>
  <speed>0.6760177512462228</speed>
  <fix>3d</fix>
</trkpt>
<trkpt lat="40.0728425" lon="-105.2305834">
  <ele>1589.39</ele>
  <time>2026-08-28T19:12:38Z</time>
  <course>274.23</course>
  <speed>0.68</speed>
  <fix>3d</fix>
</trkpt>
<trkpt lat="40.0728428" lon="-105.2305847">
  <ele>1590.04</ele>
  <time>2026-08-28T19:12:38Z</time>
  <course>358.89</course>
  <speed>0.6760177512462228</speed>
  <fix>3d</fix>
</trkpt>
<trkpt lat="40.0728429" lon="-105.2305862">
  <ele>1590.47</ele>
  <time>2026-08-28T19:12:38Z</time>
  <course>359.18</course>
  <speed>0.6846897107449476</speed>
  <fix>3d</fix>
</trkpt>
<trkpt lat="40.0728426" lon="-105.230585">
  <ele>1589.87</ele>
  <time>2026-08-28T19:12:38Z</time>
  <course>274.21</course>
  <speed>0.7</speed>
  <fix>3d</fix>
</trkpt>
<trkpt lat="40.0728429" lon="-105.2305862">
  <ele>1590.47</ele>
  <time>2026-08-28T19:12:38Z</time>
  <course>359.19</course>
  <speed>0.6846897107449476</speed>
  <fix>3d</fix>
</trkpt>
<trkpt lat="40.0728429" lon="-105.2305879">
  <ele>1590.95</ele>
  <time>2026-08-28T19:12:38Z</time>
  <course>359.52</course>
  <speed>0.7034912934784623</speed>
  <fix>3d</fix>
</trkpt>
<trkpt lat="40.0728427" lon="-105.2305867">
  <ele>1590.34</ele>
  <time>2026-08-28T19:12:38Z</time>
  <course>274.26</course>
  <speed>0.72</speed>
  <fix>3d</fix>
</trkpt>
<trkpt lat="40.0728429" lon="-105.2305881">
  <ele>1591.01</ele>
  <time>2026-08-28T19:12:38Z</time>
  <course>359.56</course>
  <speed>0.7034912934784623</speed>
  <fix>3d</fix>
</trkpt>
<trkpt lat="40.072843" lon="-105.2305896">
  <ele>1591.43</ele>
  <time>2026-08-28T19:12:38Z</time>
  <course>359.9</course>
  <speed>0.7125307010929425</speed>
  <fix>3d</fix>
</trkpt>
<trkpt lat="40.0728428" lon="-105.2305884">
  <ele>1590.82</ele>
  <time>2026-08-28T19:12:38Z</time>
  <course>274.39</course>
  <speed>0.73</speed>
  <fix>3d</fix>
</trkpt>
<trkpt lat="40.072843" lon="-105.2305899">
  <ele>1591.49</ele>
  <time>2026-08-28T19:12:38Z</time>
  <course>359.96</course>
  <speed>0.7117583859709699</speed>
  <fix>3d</fix>
</trkpt>
<trkpt lat="40.072843" lon="-105.2305914">
  <ele>1591.91</ele>
  <time>2026-08-28T19:12:38Z</time>
  <course>0.3</course>
  <speed>0.7217340230306452</speed>
  <fix>3d</fix>
</trkpt>
<trkpt lat="40.0728429" lon="-105.2305901">
  <ele>1591.3</ele>
  <time>2026-08-28T19:12:38Z</time>
  <course>274.59</course>
  <speed>0.74</speed>
  <fix>3d</fix>
</trkpt>
<trkpt lat="40.0728431" lon="-105.2305916">
  <ele>1591.98</ele>
  <time>2026-08-28T19:12:38Z</time>
  <course>0.36</course>
  <speed>0.7217340230306452</speed>
  <fix>3d</fix>
</trkpt>
<trkpt lat="40.0728431" lon="-105.2305931">
  <ele>1592.4</ele>
  <time>2026-08-28T19:12:38Z</time>
  <course>0.72</course>
  <speed>0.7310950690573697</speed>
  <fix>3d</fix>
</trkpt>
<trkpt lat="40.072843" lon="-105.2305918">
  <ele>1591.78</ele>
  <time>2026-08-28T19:12:38Z</time>
  <course>274.85</course>
  <speed>0.75</speed>
  <fix>3d</fix>
</trkpt>
<trkpt lat="40.0728431" lon="-105.2305934">
  <ele>1592.46</ele>
  <time>2026-08-28T19:12:38Z</time>
  <course>0.76</course>
  <speed>0.7310950690573697</speed>
  <fix>3d</fix>
</trkpt>
<trkpt lat="40.0728432" lon="-105.2305949">
  <ele>1592.88</ele>
  <time>2026-08-28T19:12:38Z</time>
  <course>1.07</course>
  <speed>0.7310950690573697</speed>
  <fix>3d</fix>
</trkpt>
<trkpt lat="40.0728431" lon="-105.2305936">
  <ele>1592.26</ele>
  <time>2026-08-28T19:12:38Z</time>
  <course>275.12</course>
  <speed>0.75</speed>
  <fix>3d</fix>
</trkpt>
<trkpt lat="40.0728432" lon="-105.2305949">
  <ele>1592.89</ele>
  <time>2026-08-28T19:12:38Z</time>
  <course>1.07</course>
  <speed>0.7310950690573697</speed>
  <fix>3d</fix>
</trkpt>
<trkpt lat="40.0728433" lon="-105.2305967">
  <ele>1593.36</ele>
  <time>2026-08-28T19:12:38Z</time>
  <course>1.38</course>
  <speed>0.740607858451421</speed>
  <fix>3d</fix>
</trkpt>
<trkpt lat="40.0728432" lon="-105.2305954">
  <ele>1592.74</ele>
  <time>2026-08-28T19:12:38Z</time>
  <course>275.38</course>
  <speed>0.76</speed>
  <fix>3d</fix>
</trkpt>
<trkpt lat="40.0728433" lon="-105.2305969">
  <ele>1593.43</ele>
  <time>2026-08-28T19:12:38Z</time>
  <course>1.42</course>
  <speed>0.740607858451421</speed>
  <fix>3d</fix>
</trkpt>
<trkpt lat="40.0728434" lon="-105.2305985">
  <ele>1593.85</ele>
  <time>2026-08-28T19:12:38Z</time>
  <course>1.66</course>
  <speed>0.740607858451421</speed>
  <fix>3d</fix>
</trkpt>
<trkpt lat="40.0728433" lon="-105.2305972">
  <ele>1593.23</ele>
  <time>2026-08-28T19:12:38Z</time>
  <course>275.6</course>
  <speed>0.76</speed>
  <fix>3d</fix>
</trkpt>
<trkpt lat="40.0728434" lon="-105.2305987">
  <ele>1593.92</ele>
  <time>2026-08-28T19:12:38Z</time>
  <course>1.7</course>
  <speed>0.740607858451421</speed>
  <fix>3d</fix>
</trkpt>
<trkpt lat="40.0728435" lon="-105.2306003">
  <ele>1594.33</ele>
  <time>2026-08-28T19:12:38Z</time>
  <course>1.91</course>
  <speed>0.7505997601918082</speed>
  <fix>3d</fix>
</trkpt>
<trkpt lat="40.0728435" lon="-105.230599">
  <ele>1593.71</ele>
  <time>2026-08-28T19:12:38Z</time>
  <course>275.77</course>
  <speed>0.76</speed>
  <fix>3d</fix>
</trkpt>
<trkpt lat="40.0728435" lon="-105.2306005">
  <ele>1594.39</ele>
  <time>2026-08-28T19:12:38Z</time>
  <course>1.94</course>
  <speed>0.7505997601918082</speed>
  <fix>3d</fix>
</trkpt>
<trkpt lat="40.0728436" lon="-105.2306021">
  <ele>1594.81</ele>
  <time>2026-08-28T19:12:38Z</time>
  <course>2.16</course>
  <speed>0.7505997601918082</speed>
  <fix>3d</fix>
</trkpt>
<trkpt lat="40.0728436" lon="-105.2306007">
  <ele>1594.19</ele>
  <time>2026-08-28T19:12:38Z</time>
  <course>275.88</course>
  <speed>0.76</speed>
  <fix>3d</fix>
</trkpt>
<trkpt lat="40.0728436" lon="-105.2306023">
  <ele>1594.88</ele>
  <time>2026-08-28T19:12:38Z</time>
  <course>2.2</course>
  <speed>0.7505997601918082</speed>
  <fix>3d</fix>
</trkpt>
<trkpt lat="40.0728437" lon="-105.2306039">
  <ele>1595.29</ele>
  <time>2026-08-28T19:12:38Z</time>
  <course>2.41</course>
  <speed>0.7505997601918082</speed>
  <fix>3d</fix>
</trkpt>
<trkpt lat="40.0728438" lon="-105.2306026">
  <ele>1594.67</ele>
  <time>2026-08-28T19:12:38Z</time>
  <course>275.96</course>
  <speed>0.76</speed>
  <fix>3d</fix>
</trkpt>
<trkpt lat="40.0728438" lon="-105.2306041">
  <ele>1595.36</ele>
  <time>2026-08-28T19:12:38Z</time>
  <course>2.44</course>
  <speed>0.7505997601918082</speed>
  <fix>3d</fix>
</trkpt>
<trkpt lat="40.0728439" lon="-105.2306057">
  <ele>1595.75</ele>
  <time>2026-08-28T19:12:38Z</time>
  <course>3.68</course>
  <speed>0.7605918747922567</speed>
  <fix>3d</fix>
</trkpt>
<trkpt lat="40.0728439" lon="-105.2306044">
  <ele>1595.15</ele>
  <time>2026-08-28T19:12:38Z</time>
  <course>276.0</course>
  <speed>0.75</speed>
  <fix>3d</fix>
</trkpt>
<trkpt lat="40.072844" lon="-105.2306075">
  <ele>1596.07</ele>
  <time>2026-08-28T19:12:38Z</time>
  <course>6.68</course>
  <speed>0.7410802925459562</speed>
  <fix>3d</fix>
</trkpt>
<trkpt lat="40.0728441" lon="-105.2306062">
  <ele>1595.59</ele>
  <time>2026-08-28T19:12:38Z</time>
  <course>275.95</course>
  <speed>0.75</speed>
  <fix>3d</fix>
</trkpt>
<trkpt lat="40.0728442" lon="-105.2306092">
  <ele>1596.27</ele>
  <time>2026-08-28T19:12:38Z</time>
  <course>7.46</course>
  <speed>0.711125867902441</speed>
  <fix>3d</fix>
</trkpt>
<trkpt lat="40.0728442" lon="-105.2306079">
  <ele>1595.9</ele>
  <time>2026-08-28T19:12:38Z</time>
  <course>276.25</course>
  <speed>0.74</speed>
  <fix>3d</fix>
</trkpt>
<trkpt lat="40.0728443" lon="-105.2306109">
  <ele>1596.39</ele>
  <time>2026-08-28T19:12:38Z</time>
  <course>7.6</course>
  <speed>0.6818357573492314</speed>
  <fix>3d</fix>
</trkpt>
<trkpt lat="40.0728443" lon="-105.2306096">
  <ele>1596.09</ele>
  <time>2026-08-28T19:12:38Z</time>
  <course>277.04</course>
  <speed>0.71</speed>
  <fix>3d</fix>
</trkpt>
<trkpt lat="40.0728445" lon="-105.2306124">
  <ele>1596.47</ele>
  <time>2026-08-28T19:12:38Z</time>
  <course>7.64</course>
  <speed>0.6419501538281613</speed>
  <fix>3d</fix>
</trkpt>
<trkpt lat="40.0728445" lon="-105.2306112">
  <ele>1596.22</ele>
  <time>2026-08-28T19:12:38Z</time>
  <course>277.96</course>
  <speed>0.68</speed>
  <fix>3d</fix>
</trkpt>
<trkpt lat="40.0728446" lon="-105.2306139">
  <ele>1596.52</ele>
  <time>2026-08-28T19:12:38Z</time>
  <course>7.6</course>
  <speed>0.6120457499239742</speed>
  <fix>3d</fix>
</trkpt>
<trkpt lat="40.0728447" lon="-105.2306128">
  <ele>1596.29</ele>
  <time>2026-08-28T19:12:38Z</time>
  <course>278.96</course>
  <speed>0.65</speed>
  <fix>3d</fix>
</trkpt>
<trkpt lat="40.0728448" lon="-105.2306153">
  <ele>1596.56</ele>
  <time>2026-08-28T19:12:38Z</time>
  <course>7.44</course>
  <speed>0.5721887800367987</speed>
  <fix>3d</fix>
</trkpt>
<trkpt lat="40.0728449" lon="-105.2306143">
  <ele>1596.34</ele>
  <time>2026-08-28T19:12:38Z</time>
  <course>280.05</course>
  <speed>0.62</speed>
  <fix>3d</fix>
</trkpt>
<trkpt lat="40.072845" lon="-105.2306166">
  <ele>1596.6</ele>
  <time>2026-08-28T19:12:38Z</time>
  <course>7.39</course>
  <speed>0.5024937810560445</speed>
  <fix>3d</fix>
</trkpt>
<trkpt lat="40.072845" lon="-105.2306156">
  <ele>1596.37</ele>
  <time>2026-08-28T19:12:38Z</time>
  <course>281.25</course>
  <speed>0.57</speed>
  <fix>3d</fix>
</trkpt>
<trkpt lat="40.0728452" lon="-105.2306177">
  <ele>1596.63</ele>
  <time>2026-08-28T19:12:38Z</time>
  <course>7.29</course>
  <speed>0.43185645763378366</speed>
  <fix>3d</fix>
</trkpt>
<trkpt lat="40.0728453" lon="-105.2306169">
  <ele>1596.41</ele>
  <time>2026-08-28T19:12:38Z</time>
  <course>282.64</course>
  <speed>0.51</speed>
  <fix>3d</fix>
</trkpt>
<trkpt lat="40.0728453" lon="-105.2306187">
  <ele>1596.68</ele>
  <time>2026-08-28T19:12:38Z</time>
  <course>7.13</course>
  <speed>0.35128336140500593</speed>
  <fix>3d</fix>
</trkpt>
<trkpt lat="40.0728455" lon="-105.2306179">
  <ele>1596.45</ele>
  <time>2026-08-28T19:12:38Z</time>
  <course>284.62</course>
  <speed>0.44</speed>
  <fix>3d</fix>
</trkpt>
<trkpt lat="40.0728455" lon="-105.2306194">
  <ele>1596.74</ele>
  <time>2026-08-28T19:12:38Z</time>
  <course>6.94</course>
  <speed>0.2707397274136177</speed>
  <fix>3d</fix>
</trkpt>
<trkpt lat="40.0728457" lon="-105.2306189">
  <ele>1596.51</ele>
  <time>2026-08-28T19:12:38Z</time>
  <course>287.57</course>
  <speed>0.36</speed>
  <fix>3d</fix>
</trkpt>
<trkpt lat="40.0728457" lon="-105.23062">
  <ele>1596.82</ele>
  <time>2026-08-28T19:12:38Z</time>
  <course>6.83</course>
  <speed>0.2002498439450079</speed>
  <fix>3d</fix>
</trkpt>
<trkpt lat="40.0728459" lon="-105.2306196">
  <ele>1596.57</ele>
  <time>2026-08-28T19:12:38Z</time>
  <course>291.6</course>
  <speed>0.28</speed>
  <fix>3d</fix>
</trkpt>
<trkpt lat="40.0728458" lon="-105.2306204">
  <ele>1596.91</ele>
  <time>2026-08-28T19:12:38Z</time>
  <course>6.76</course>
  <speed>0.140356688476182</speed>
  <fix>3d</fix>
</trkpt>
<trkpt lat="40.0728461" lon="-105.2306202">
  <ele>1596.65</ele>
  <time>2026-08-28T19:12:38Z</time>
  <course>296.56</course>
  <speed>0.22</speed>
  <fix>3d</fix>
</trkpt>
<trkpt lat="40.072846" lon="-105.2306207">
  <ele>1597.02</ele>
  <time>2026-08-28T19:12:38Z</time>
  <course>6.79</course>
  <speed>0.09</speed>
  <fix>3d</fix>
</trkpt>
<trkpt lat="40.0728462" lon="-105.2306206">
  <ele>1596.75</ele>
  <time>2026-08-28T19:12:38Z</time>
  <course>302.47</course>
  <speed>0.16</speed>
  <fix>3d</fix>
</trkpt>
<trkpt lat="40.0728461" lon="-105.2306209">
  <ele>1597.13</ele>
  <time>2026-08-28T19:12:38Z</time>
  <course>6.91</course>
  <speed>0.05099019513592785</speed>
  <fix>3d</fix>
</trkpt>
<trkpt lat="40.0728463" lon="-105.2306208">
  <ele>1596.86</ele>
  <time>2026-08-28T19:12:38Z</time>
  <course>309.81</course>
  <speed>0.11</speed>
  <fix>3d</fix>
</trkpt>
<trkpt lat="40.0728462" lon="-105.230621">
  <ele>1597.24</ele>
  <time>2026-08-28T19:12:38Z</time>
  <course>7.08</course>
  <speed>0.0316227766016838</speed>
  <fix>3d</fix>
</trkpt>
<trkpt lat="40.0728465" lon="-105.230621">
  <ele>1596.97</ele>
  <time>2026-08-28T19:12:38Z</time>
  <course>321.32</course>
  <speed>0.06</speed>
  <fix>3d</fix>
</trkpt>
<trkpt lat="40.0728463" lon="-105.230621">
  <ele>1597.35</ele>
  <time>2026-08-28T19:12:38Z</time>
  <course>7.23</course>
  <speed>0.0412310562561766</speed>
  <fix>3d</fix>
</trkpt>
<trkpt lat="40.0728466" lon="-105.230621">
  <ele>1597.09</ele>
  <time>2026-08-28T19:12:38Z</time>
  <course>352.46</course>
  <speed>0.03</speed>
  <fix>3d</fix>
</trkpt>
<trkpt lat="40.0728463" lon="-105.2306209">
  <ele>1597.45</ele>
  <time>2026-08-28T19:12:38Z</time>
  <course>7.35</course>
  <speed>0.07211102550927978</speed>
  <fix>3d</fix>
</trkpt>
<trkpt lat="40.0728466" lon="-105.230621">
  <ele>1597.2</ele>
  <time>2026-08-28T19:12:38Z</time>
  <course>70.16</course>
  <speed>0.03</speed>
  <fix>3d</fix>
</trkpt>
<trkpt lat="40.0728463" lon="-105.2306208">
  <ele>1597.55</ele>
  <time>2026-08-28T19:12:38Z</time>
  <course>7.54</course>
  <speed>0.09899494936611665</speed>
  <fix>3d</fix>
</trkpt>
<trkpt lat="40.0728466" lon="-105.2306209">
  <ele>1597.31</ele>
  <time>2026-08-28T19:12:38Z</time>
  <course>101.31</course>
  <speed>0.05</speed>
  <fix>3d</fix>
</trkpt>
<trkpt lat="40.0728463" lon="-105.2306206">
  <ele>1597.64</ele>
  <time>2026-08-28T19:12:38Z</time>
  <course>7.76</course>
  <speed>0.16401219466856726</speed>
  <fix>3d</fix>
</trkpt>
<trkpt lat="40.0728466" lon="-105.2306208">
  <ele>1597.41</ele>
  <time>2026-08-28T19:12:38Z</time>
  <course>110.18</course>
  <speed>0.09</speed>
  <fix>3d</fix>
</trkpt>
<trkpt lat="40.0728462" lon="-105.2306202">
  <ele>1597.71</ele>
  <time>2026-08-28T19:12:38Z</time>
  <course>8.01</course>
  <speed>0.24186773244895649</speed>
  <fix>3d</fix>
</trkpt>
<trkpt lat="40.0728466" lon="-105.2306206">
  <ele>1597.5</ele>
  <time>2026-08-28T19:12:38Z</time>
  <course>111.14</course>
  <speed>0.15</speed>
  <fix>3d</fix>
</trkpt>
<trkpt lat="40.072846" lon="-105.2306195">
  <ele>1597.76</ele>
  <time>2026-08-28T19:12:38Z</time>
  <course>6.03</course>
  <speed>0.3769615364994153</speed>
  <fix>3d</fix>
</trkpt>
<trkpt lat="40.0728465" lon="-105.2306201">
  <ele>1597.58</ele>
  <time>2026-08-28T19:12:38Z</time>
  <course>108.28</course>
  <speed>0.25</speed>
  <fix>3d</fix>
</trkpt>
<trkpt lat="40.0728458" lon="-105.2306185">
  <ele>1597.79</ele>
  <time>2026-08-28T19:12:38Z</time>
  <course>6.46</course>
  <speed>0.5154609587543949</speed>
  <fix>3d</fix>
</trkpt>
<trkpt lat="40.0728462" lon="-105.2306194">
  <ele>1597.62</ele>
  <time>2026-08-28T19:12:38Z</time>
  <course>105.56</course>
  <speed>0.37</speed>
  <fix>3d</fix>
</trkpt>
<trkpt lat="40.0728456" lon="-105.2306171">
  <ele>1597.8</ele>
  <time>2026-08-28T19:12:38Z</time>
  <course>6.49</course>
  <speed>0.7130918594402827</speed>
  <fix>3d</fix>
</trkpt>
<trkpt lat="40.0728461" lon="-105.2306184">
  <ele>1597.65</ele>
  <time>2026-08-28T19:12:38Z</time>
  <course>102.97</course>
  <speed>0.52</speed>
  <fix>3d</fix>
</trkpt>
<trkpt lat="40.0728454" lon="-105.2306153">
  <ele>1597.79</ele>
  <time>2026-08-28T19:12:38Z</time>
  <course>6.37</course>
  <speed>0.9100549433962765</speed>
  <fix>3d</fix>
</trkpt>
<trkpt lat="40.0728459" lon="-105.230617">
  <ele>1597.66</ele>
  <time>2026-08-28T19:12:38Z</time>
  <course>100.48</course>
  <speed>0.71</speed>
  <fix>3d</fix>
</trkpt>
<trkpt lat="40.0728451" lon="-105.2306129">
  <ele>1597.77</ele>
  <time>2026-08-28T19:12:38Z</time>
  <course>6.47</course>
  <speed>1.0965856099730653</speed>
  <fix>3d</fix>
</trkpt>
<trkpt lat="40.0728456" lon="-105.2306151">
  <ele>1597.65</ele>
  <time>2026-08-28T19:12:38Z</time>
  <course>98.51</course>
  <speed>0.91</speed>
  <fix>3d</fix>
</trkpt>
<trkpt lat="40.0728449" lon="-105.2306103">
  <ele>1597.75</ele>
  <time>2026-08-28T19:12:38Z</time>
  <course>17.98</course>
  <speed>1.2205326705991937</speed>
  <fix>3d</fix>
</trkpt>
<trkpt lat="40.0728454" lon="-105.2306127">
  <ele>1597.63</ele>
  <time>2026-08-28T19:12:38Z</time>
  <course>96.97</course>
  <speed>1.08</speed>
  <fix>3d</fix>
</trkpt>
<trkpt lat="40.0728447" lon="-105.2306073">
  <ele>1597.74</ele>
  <time>2026-08-28T19:12:38Z</time>
  <course>30.54</course>
  <speed>1.3744089638822936</speed>
  <fix>3d</fix>
</trkpt>
<trkpt lat="40.0728451" lon="-105.23061">
  <ele>1597.62</ele>
  <time>2026-08-28T19:12:38Z</time>
  <course>95.0</course>
  <speed>1.22</speed>
  <fix>3d</fix>
</trkpt>
<trkpt lat="40.0728447" lon="-105.2306039">
  <ele>1597.73</ele>
  <time>2026-08-28T19:12:38Z</time>
  <course>42.87</course>
  <speed>1.500133327407934</speed>
  <fix>3d</fix>
</trkpt>
<trkpt lat="40.072845" lon="-105.2306069">
  <ele>1597.6</ele>
  <time>2026-08-28T19:12:38Z</time>
  <course>92.24</course>
  <speed>1.37</speed>
  <fix>3d</fix>
</trkpt>
<trkpt lat="40.0728449" lon="-105.2306004">
  <ele>1597.72</ele>
  <time>2026-08-28T19:12:38Z</time>
  <course>55.08</course>
  <speed>1.5807909412695913</speed>
  <fix>3d</fix>
</trkpt>
<trkpt lat="40.072845" lon="-105.2306036">
  <ele>1597.6</ele>
  <time>2026-08-28T19:12:38Z</time>
  <course>89.23</course>
  <speed>1.48</speed>
  <fix>3d</fix>
</trkpt>
<trkpt lat="40.0728451" lon="-105.2305967">
  <ele>1597.72</ele>
  <time>2026-08-28T19:12:38Z</time>
  <course>67.41</course>
  <speed>1.6344112089679268</speed>
  <fix>3d</fix>
</trkpt>
<trkpt lat="40.072845" lon="-105.2306">
  <ele>1597.59</ele>
  <time>2026-08-28T19:12:38Z</time>
  <course>86.64</course>
  <speed>1.57</speed>
  <fix>3d</fix>
</trkpt>
<trkpt lat="40.0728453" lon="-105.2305929">
  <ele>1597.73</ele>
  <time>2026-08-28T19:12:38Z</time>
  <course>79.75</course>
  <speed>1.6559287424282483</speed>
  <fix>3d</fix>
</trkpt>
<trkpt lat="40.0728452" lon="-105.2305963">
  <ele>1597.59</ele>
  <time>2026-08-28T19:12:38Z</time>
  <course>84.95</course>
  <speed>1.62</speed>
  <fix>3d</fix>
</trkpt>
<trkpt lat="40.0728456" lon="-105.230589">
  <ele>1597.73</ele>
  <time>2026-08-28T19:12:38Z</time>
  <course>86.1</course>
  <speed>1.6614752480852673</speed>
  <fix>3d</fix>
</trkpt>
<trkpt lat="40.0728455" lon="-105.2305924">
  <ele>1597.6</ele>
  <time>2026-08-28T19:12:38Z</time>
  <course>84.98</course>
  <speed>1.64</speed>
  <fix>3d</fix>
</trkpt>
<trkpt lat="40.0728457" lon="-105.2305852">
  <ele>1597.74</ele>
  <time>2026-08-28T19:12:38Z</time>
  <course>87.07</course>
  <speed>1.6404877323527902</speed>
  <fix>3d</fix>
</trkpt>
<trkpt lat="40.0728457" lon="-105.2305885">
  <ele>1597.6</ele>
  <time>2026-08-28T19:12:38Z</time>
  <course>86.45</course>
  <speed>1.64</speed>
  <fix>3d</fix>
</trkpt>
<trkpt lat="40.0728458" lon="-105.2305814">
  <ele>1597.74</ele>
  <time>2026-08-28T19:12:38Z</time>
  <course>88.13</course>
  <speed>1.5800316452527143</speed>
  <fix>3d</fix>
</trkpt>
<trkpt lat="40.0728458" lon="-105.2305848">
  <ele>1597.61</ele>
  <time>2026-08-28T19:12:38Z</time>
  <course>87.99</course>
  <speed>1.61</speed>
  <fix>3d</fix>
</trkpt>
<trkpt lat="40.0728458" lon="-105.2305779">
  <ele>1597.74</ele>
  <time>2026-08-28T19:12:38Z</time>
  <course>89.48</course>
  <speed>1.4601369798755184</speed>
  <fix>3d</fix>
</trkpt>
<trkpt lat="40.0728459" lon="-105.230581">
  <ele>1597.62</ele>
  <time>2026-08-28T19:12:38Z</time>
  <course>89.33</course>
  <speed>1.54</speed>
  <fix>3d</fix>
</trkpt>
<trkpt lat="40.0728458" lon="-105.2305747">
  <ele>1597.74</ele>
  <time>2026-08-28T19:12:38Z</time>
  <course>91.01</course>
  <speed>1.2909686285886268</speed>
  <fix>3d</fix>
</trkpt>
<trkpt lat="40.0728459" lon="-105.2305775">
  <ele>1597.62</ele>
  <time>2026-08-28T19:12:38Z</time>
  <course>90.75</course>
  <speed>1.43</speed>
  <fix>3d</fix>
</trkpt>
<trkpt lat="40.0728458" lon="-105.230572">
  <ele>1597.74</ele>
  <time>2026-08-28T19:12:38Z</time>
  <course>92.84</course>
  <speed>1.0630145812734648</speed>
  <fix>3d</fix>
</trkpt>
<trkpt lat="40.0728458" lon="-105.2305744">
  <ele>1597.63</ele>
  <time>2026-08-28T19:12:38Z</time>
  <course>92.41</course>
  <speed>1.25</speed>
  <fix>3d</fix>
</trkpt>
<trkpt lat="40.0728456" lon="-105.2305698">
  <ele>1597.74</ele>
  <time>2026-08-28T19:12:38Z</time>
  <course>95.0</course>
  <speed>0.8075270893288967</speed>
  <fix>3d</fix>
</trkpt>
<trkpt lat="40.0728457" lon="-105.2305717">
  <ele>1597.63</ele>
  <time>2026-08-28T19:12:38Z</time>
  <course>94.57</course>
  <speed>1.03</speed>
  <fix>3d</fix>
</trkpt>
<trkpt lat="40.0728454" lon="-105.2305683">
  <ele>1597.74</ele>
  <time>2026-08-28T19:12:38Z</time>
  <course>94.75</course>
  <speed>0.5263078946776306</speed>
  <fix>3d</fix>
</trkpt>
<trkpt lat="40.0728457" lon="-105.2305696">
  <ele>1597.63</ele>
  <time>2026-08-28T19:12:38Z</time>
  <course>98.67</course>
  <speed>0.76</speed>
  <fix>3d</fix>
</trkpt>
<trkpt lat="40.0728451" lon="-105.2305674">
  <ele>1597.74</ele>
  <time>2026-08-28T19:12:38Z</time>
  <course>94.77</course>
  <speed>0.266270539113887</speed>
  <fix>3d</fix>
</trkpt>
<trkpt lat="40.0728454" lon="-105.2305681">
  <ele>1597.63</ele>
  <time>2026-08-28T19:12:38Z</time>
  <course>107.28</course>
  <speed>0.49</speed>
  <fix>3d</fix>
</trkpt>
<trkpt lat="40.0728448" lon="-105.2305672">
  <ele>1597.74</ele>
  <time>2026-08-28T19:12:38Z</time>
  <course>94.69</course>
  <speed>0.17262676501632068</speed>
  <fix>3d</fix>
</trkpt>
<trkpt lat="40.0728451" lon="-105.2305674">
  <ele>1597.63</ele>
  <time>2026-08-28T19:12:38Z</time>
  <course>133.1</course>
  <speed>0.24</speed>
  <fix>3d</fix>
</trkpt>
<trkpt lat="40.0728445" lon="-105.2305675">
  <ele>1597.73</ele>
  <time>2026-08-28T19:12:38Z</time>
  <course>94.57</course>
  <speed>0.31240998703626616</speed>
  <fix>3d</fix>
</trkpt>
<trkpt lat="40.0728448" lon="-105.2305672">
  <ele>1597.62</ele>
  <time>2026-08-28T19:12:38Z</time>
  <course>203.79</course>
  <speed>0.2</speed>
  <fix>3d</fix>
</trkpt>
<trkpt lat="40.0728441" lon="-105.2305682">
  <ele>1597.73</ele>
  <time>2026-08-28T19:12:38Z</time>
  <course>94.47</course>
  <speed>0.439089968002003</speed>
  <fix>3d</fix>
</trkpt>
<trkpt lat="40.0728445" lon="-105.2305677">
  <ele>1597.62</ele>
  <time>2026-08-28T19:12:38Z</time>
  <course>233.74</course>
  <speed>0.36</speed>
  <fix>3d</fix>
</trkpt>
<trkpt lat="40.0728437" lon="-105.2305693">
  <ele>1597.72</ele>
  <time>2026-08-28T19:12:38Z</time>
  <course>94.39</course>
  <speed>0.51</speed>
  <fix>3d</fix>
</trkpt>
<trkpt lat="40.0728441" lon="-105.2305684">
  <ele>1597.61</ele>
  <time>2026-08-28T19:12:38Z</time>
  <course>241.49</course>
  <speed>0.49</speed>
  <fix>3d</fix>
</trkpt>
<trkpt lat="40.0728433" lon="-105.2305704">
  <ele>1597.72</ele>
  <time>2026-08-28T19:12:38Z</time>
  <course>94.31</course>
  <speed>0.5188448708429139</speed>
  <fix>3d</fix>
</trkpt>
<trkpt lat="40.0728436" lon="-105.2305696">
  <ele>1597.61</ele>
  <time>2026-08-28T19:12:38Z</time>
  <course>243.75</course>
  <speed>0.56</speed>
  <fix>3d</fix>
</trkpt>
<trkpt lat="40.0728427" lon="-105.2305715">
  <ele>1597.71</ele>
  <time>2026-08-28T19:12:38Z</time>
  <course>85.79</course>
  <speed>0.5243090691567331</speed>
  <fix>3d</fix>
</trkpt>
<trkpt lat="40.0728431" lon="-105.2305708">
  <ele>1597.61</ele>
  <time>2026-08-28T19:12:38Z</time>
  <course>242.02</course>
  <speed>0.58</speed>
  <fix>3d</fix>
</trkpt>
<trkpt lat="40.0728422" lon="-105.2305726">
  <ele>1597.72</ele>
  <time>2026-08-28T19:12:38Z</time>
  <course>72.49</course>
  <speed>0.4802082881417188</speed>
  <fix>3d</fix>
</trkpt>
<trkpt lat="40.0728426" lon="-105.230572">
  <ele>1597.61</ele>
  <time>2026-08-28T19:12:38Z</time>
  <course>239.52</course>
  <speed>0.56</speed>
  <fix>3d</fix>
</trkpt>
<trkpt lat="40.0728418" lon="-105.2305737">
  <ele>1597.72</ele>
  <time>2026-08-28T19:12:38Z</time>
  <course>60.35</course>
  <speed>0.4477722635447622</speed>
  <fix>3d</fix>
</trkpt>
<trkpt lat="40.0728421" lon="-105.2305731">
  <ele>1597.61</ele>
  <time>2026-08-28T19:12:38Z</time>
  <course>240.48</course>
  <speed>0.52</speed>
  <fix>3d</fix>
</trkpt>
<trkpt lat="40.0728414" lon="-105.2305747">
  <ele>1597.72</ele>
  <time>2026-08-28T19:12:38Z</time>
  <course>48.3</course>
  <speed>0.4338202392696773</speed>
  <fix>3d</fix>
</trkpt>
<trkpt lat="40.0728417" lon="-105.2305741">
  <ele>1597.62</ele>
  <time>2026-08-28T19:12:38Z</time>
  <course>243.36</course>
  <speed>0.49</speed>
  <fix>3d</fix>
</trkpt>
<trkpt lat="40.0728411" lon="-105.2305757">
  <ele>1597.73</ele>
  <time>2026-08-28T19:12:38Z</time>
  <course>36.37</course>
  <speed>0.4114608122288197</speed>
  <fix>3d</fix>
</trkpt>
<trkpt lat="40.0728413" lon="-105.2305751">
  <ele>1597.62</ele>
  <time>2026-08-28T19:12:38Z</time>
  <course>245.53</course>
  <speed>0.46</speed>
  <fix>3d</fix>
</trkpt>
<trkpt lat="40.0728407" lon="-105.2305766">
  <ele>1597.73</ele>
  <time>2026-08-28T19:12:38Z</time>
  <course>24.33</course>
  <speed>0.39824615503479754</speed>
  <fix>3d</fix>
</trkpt>
<trkpt lat="40.072841" lon="-105.2305761">
  <ele>1597.63</ele>
  <time>2026-08-28T19:12:38Z</time>
  <course>245.83</course>
  <speed>0.44</speed>
  <fix>3d</fix>
</trkpt>
<trkpt lat="40.0728404" lon="-105.2305775">
  <ele>1597.73</ele>
  <time>2026-08-28T19:12:38Z</time>
  <course>12.33</course>
  <speed>0.36359317925395684</speed>
  <fix>3d</fix>
</trkpt>
<trkpt lat="40.0728407" lon="-105.230577">
  <ele>1597.63</ele>
  <time>2026-08-28T19:12:38Z</time>
  <course>244.18</course>
  <speed>0.41</speed>
  <fix>3d</fix>
</trkpt>
<trkpt lat="40.0728401" lon="-105.2305783">
  <ele>1597.73</ele>
  <time>2026-08-28T19:12:38Z</time>
  <course>9.33</course>
  <speed>0.38078865529319544</speed>
  <fix>3d</fix>
</trkpt>
<trkpt lat="40.0728404" lon="-105.2305778">
  <ele>1597.63</ele>
  <time>2026-08-28T19:12:38Z</time>
  <course>242.97</course>
  <speed>0.39</speed>
  <fix>3d</fix>
</trkpt>
<trkpt lat="40.0728397" lon="-105.2305791">
  <ele>1597.73</ele>
  <time>2026-08-28T19:12:38Z</time>
  <course>10.46</course>
  <speed>0.3080584360149873</speed>
  <fix>3d</fix>
</trkpt>
<trkpt lat="40.07284" lon="-105.2305787">
  <ele>1597.64</ele>
  <time>2026-08-28T19:12:38Z</time>
  <course>241.41</course>
  <speed>0.36</speed>
  <fix>3d</fix>
</trkpt>
<trkpt lat="40.0728394" lon="-105.2305796">
  <ele>1597.74</ele>
  <time>2026-08-28T19:12:38Z</time>
  <course>10.59</course>
  <speed>0.23345235059857505</speed>
  <fix>3d</fix>
</trkpt>
<trkpt lat="40.0728397" lon="-105.2305793">
  <ele>1597.64</ele>
  <time>2026-08-28T19:12:38Z</time>
  <course>236.87</course>
  <speed>0.29</speed>
  <fix>3d</fix>
</trkpt>
<trkpt lat="40.0728392" lon="-105.2305799">
  <ele>1597.74</ele>
  <time>2026-08-28T19:12:38Z</time>
  <course>10.62</course>
  <speed>0.15</speed>
  <fix>3d</fix>
</trkpt>
<trkpt lat="40.0728395" lon="-105.2305797">
  <ele>1597.64</ele>
  <time>2026-08-28T19:12:38Z</time>
  <course>230.54</course>
  <speed>0.21</speed>
  <fix>3d</fix>
</trkpt>
<trkpt lat="40.0728391" lon="-105.2305801">
  <ele>1597.74</ele>
  <time>2026-08-28T19:12:38Z</time>
  <course>10.61</course>
  <speed>0.0824621125123532</speed>
  <fix>3d</fix>
</trkpt>
<trkpt lat="40.0728393" lon="-105.2305801">
  <ele>1597.64</ele>
  <time>2026-08-28T19:12:38Z</time>
  <course>221.89</course>
  <speed>0.13</speed>
  <fix>3d</fix>
</trkpt>
<trkpt lat="40.072839" lon="-105.2305801">
  <ele>1597.75</ele>
  <time>2026-08-28T19:12:38Z</time>
  <course>10.62</course>
  <speed>0.044721359549995794</speed>
  <fix>3d</fix>
</trkpt>
<trkpt lat="40.0728391" lon="-105.2305802">
  <ele>1597.64</ele>
  <time>2026-08-28T19:12:38Z</time>
  <course>200.69</course>
  <speed>0.05</speed>
  <fix>3d</fix>
</trkpt>
<trkpt lat="40.072839" lon="-105.23058">
  <ele>1597.75</ele>
  <time>2026-08-28T19:12:38Z</time>
  <course>10.65</course>
  <speed>0.07</speed>
  <fix>3d</fix>
</trkpt>
<trkpt lat="40.072839" lon="-105.2305803">
  <ele>1597.64</ele>
  <time>2026-08-28T19:12:38Z</time>
  <course>98.07</course>
  <speed>0.03</speed>
  <fix>3d</fix>
</trkpt>
<trkpt lat="40.0728391" lon="-105.2305798">
  <ele>1597.75</ele>
  <time>2026-08-28T19:12:38Z</time>
  <course>10.65</course>
  <speed>0.11401754250991379</speed>
  <fix>3d</fix>
</trkpt>
<trkpt lat="40.072839" lon="-105.2305801">
  <ele>1597.64</ele>
  <time>2026-08-28T19:12:38Z</time>
  <course>65.88</course>
  <speed>0.09</speed>
  <fix>3d</fix>
</trkpt>
<trkpt lat="40.0728391" lon="-105.2305796">
  <ele>1597.74</ele>
  <time>2026-08-28T19:12:38Z</time>
  <course>10.67</course>
  <speed>0.15652475842498528</speed>
  <fix>3d</fix>
</trkpt>
<trkpt lat="40.0728391" lon="-105.2305799">
  <ele>1597.63</ele>
  <time>2026-08-28T19:12:38Z</time>
  <course>58.52</course>
  <speed>0.15</speed>
  <fix>3d</fix>
</trkpt>
<trkpt lat="40.0728393" lon="-105.2305792">
  <ele>1597.73</ele>
  <time>2026-08-28T19:12:38Z</time>
  <course>10.68</course>
  <speed>0.1972308292331602</speed>
  <fix>3d</fix>
</trkpt>
<trkpt lat="40.0728393" lon="-105.2305796">
  <ele>1597.63</ele>
  <time>2026-08-28T19:12:38Z</time>
  <course>55.05</course>
  <speed>0.2</speed>
  <fix>3d</fix>
</trkpt>
<trkpt lat="40.0728396" lon="-105.2305788">
  <ele>1597.73</ele>
  <time>2026-08-28T19:12:38Z</time>
  <course>10.69</course>
  <speed>0.22472205054244232</speed>
  <fix>3d</fix>
</trkpt>
<trkpt lat="40.0728395" lon="-105.2305791">
  <ele>1597.63</ele>
  <time>2026-08-28T19:12:38Z</time>
  <course>52.79</course>
  <speed>0.24</speed>
  <fix>3d</fix>
</trkpt>
<trkpt lat="40.0728399" lon="-105.2305783">
  <ele>1597.72</ele>
  <time>2026-08-28T19:12:38Z</time>
  <course>10.68</course>
  <speed>0.24413111231467405</speed>
  <fix>3d</fix>
</trkpt>
<trkpt lat="40.0728398" lon="-105.2305786">
  <ele>1597.62</ele>
  <time>2026-08-28T19:12:38Z</time>
  <course>51.1</course>
  <speed>0.27</speed>
  <fix>3d</fix>
</trkpt>
<trkpt lat="40.0728402" lon="-105.2305778">
  <ele>1597.72</ele>
  <time>2026-08-28T19:12:38Z</time>
  <course>10.72</course>
  <speed>0.25</speed>
  <fix>3d</fix>
</trkpt>
<trkpt lat="40.0728401" lon="-105.2305781">
  <ele>1597.62</ele>
  <time>2026-08-28T19:12:38Z</time>
  <course>49.74</course>
  <speed>0.29</speed>
  <fix>3d</fix>
</trkpt>
<trkpt lat="40.0728405" lon="-105.2305772">
  <ele>1597.71</ele>
  <time>2026-08-28T19:12:38Z</time>
  <course>10.72</course>
  <speed>0.25612496949731395</speed>
  <fix>3d</fix>
</trkpt>
<trkpt lat="40.0728405" lon="-105.2305776">
  <ele>1597.62</ele>
  <time>2026-08-28T19:12:38Z</time>
  <course>48.63</course>
  <speed>0.3</speed>
  <fix>3d</fix>
</trkpt>
<trkpt lat="40.0728409" lon="-105.2305767">
  <ele>1597.72</ele>
  <time>2026-08-28T19:12:38Z</time>
  <course>10.74</course>
  <speed>0.25612496949731395</speed>
  <fix>3d</fix>
</trkpt>
<trkpt lat="40.0728409" lon="-105.2305771">
  <ele>1597.63</ele>
  <time>2026-08-28T19:12:38Z</time>
  <course>47.73</course>
  <speed>0.3</speed>
  <fix>3d</fix>
</trkpt>
<trkpt lat="40.0728413" lon="-105.2305762">
  <ele>1597.72</ele>
  <time>2026-08-28T19:12:38Z</time>
  <course>10.74</course>
  <speed>0.23430749027719963</speed>
  <fix>3d</fix>
</trkpt>
<trkpt lat="40.0728412" lon="-105.2305765">
  <ele>1597.63</ele>
  <time>2026-08-28T19:12:38Z</time>
  <course>47.13</course>
  <speed>0.29</speed>
  <fix>3d</fix>
</trkpt>
<trkpt lat="40.0728416" lon="-105.2305758">
  <ele>1597.73</ele>
  <time>2026-08-28T19:12:38Z</time>
  <course>10.77</course>
  <speed>0.21400934559032694</speed>
  <fix>3d</fix>
</trkpt>
<trkpt lat="40.0728416" lon="-105.230576">
  <ele>1597.63</ele>
  <time>2026-08-28T19:12:38Z</time>
  <course>46.87</course>
  <speed>0.28</speed>
  <fix>3d</fix>
</trkpt>
<trkpt lat="40.0728419" lon="-105.2305754">
  <ele>1597.73</ele>
  <time>2026-08-28T19:12:38Z</time>
  <course>10.85</course>
  <speed>0.18601075237738274</speed>
  <fix>3d</fix>
</trkpt>
<trkpt lat="40.0728419" lon="-105.2305756">
  <ele>1597.64</ele>
  <time>2026-08-28T19:12:38Z</time>
  <course>46.86</course>
  <speed>0.25</speed>
  <fix>3d</fix>
</trkpt>
<trkpt lat="40.0728421" lon="-105.230575">
  <ele>1597.72</ele>
  <time>2026-08-28T19:12:38Z</time>
  <course>10.95</course>
  <speed>0.15811388300841897</speed>
  <fix>3d</fix>
</trkpt>
<trkpt lat="40.0728422" lon="-105.2305752">
  <ele>1597.64</ele>
  <time>2026-08-28T19:12:38Z</time>
  <course>47.13</course>
  <speed>0.22</speed>
  <fix>3d</fix>
</trkpt>
<trkpt lat="40.0728424" lon="-105.2305747">
  <ele>1597.7</ele>
  <time>2026-08-28T19:12:38Z</time>
  <course>11.38</course>
  <speed>0.130384048104053</speed>
  <fix>3d</fix>
</trkpt>
<trkpt lat="40.0728425" lon="-105.2305748">
  <ele>1597.63</ele>
  <time>2026-08-28T19:12:38Z</time>
  <course>47.37</course>
  <speed>0.19</speed>
  <fix>3d</fix>
</trkpt>
<trkpt lat="40.0728426" lon="-105.2305744">
  <ele>1597.64</ele>
  <time>2026-08-28T19:12:38Z</time>
  <course>11.74</course>
  <speed>0.10295630140987001</speed>
  <fix>3d</fix>
</trkpt>
<trkpt lat="40.0728426" lon="-105.2305745">
  <ele>1597.61</ele>
  <time>2026-08-28T19:12:38Z</time>
  <course>47.89</course>
  <speed>0.16</speed>
  <fix>3d</fix>
</trkpt>
<trkpt lat="40.0728427" lon="-105.2305742">
  <ele>1597.54</ele>
  <time>2026-08-28T19:12:38Z</time>
  <course>12.08</course>
  <speed>0.07615773105863909</speed>
  <fix>3d</fix>
</trkpt>
<trkpt lat="40.0728429" lon="-105.2305742">
  <ele>1597.55</ele>
  <time>2026-08-28T19:12:38Z</time>
  <course>49.59</course>
  <speed>0.13</speed>
  <fix>3d</fix>
</trkpt>
<trkpt lat="40.0728428" lon="-105.230574">
  <ele>1597.39</ele>
  <time>2026-08-28T19:12:38Z</time>
  <course>12.37</course>
  <speed>0.05099019513592785</speed>
  <fix>3d</fix>
</trkpt>
<trkpt lat="40.072843" lon="-105.230574">
  <ele>1597.44</ele>
  <time>2026-08-28T19:12:38Z</time>
  <course>53.05</course>
  <speed>0.1</speed>
  <fix>3d</fix>
</trkpt>
<trkpt lat="40.0728429" lon="-105.2305738">
  <ele>1597.2</ele>
  <time>2026-08-28T19:12:38Z</time>
  <course>12.62</course>
  <speed>0.04</speed>
  <fix>3d</fix>
</trkpt>
<trkpt lat="40.0728431" lon="-105.2305739">
  <ele>1597.29</ele>
  <time>2026-08-28T19:12:38Z</time>
  <course>59.88</course>
  <speed>0.07</speed>
  <fix>3d</fix>
</trkpt>
<trkpt lat="40.0728429" lon="-105.2305737">
  <ele>1596.97</ele>
  <time>2026-08-28T19:12:38Z</time>
  <course>12.59</course>
  <speed>0.04242640687119285</speed>
  <fix>3d</fix>
</trkpt>
<trkpt lat="40.0728431" lon="-105.2305737">
  <ele>1597.1</ele>
  <time>2026-08-28T19:12:38Z</time>
  <course>74.4</course>
  <speed>0.05</speed>
  <fix>3d</fix>
</trkpt>
<trkpt lat="40.0728429" lon="-105.2305736">
  <ele>1596.74</ele>
  <time>2026-08-28T19:12:38Z</time>
  <course>12.19</course>
  <speed>0.053851648071345036</speed>
  <fix>3d</fix>
</trkpt>
<trkpt lat="40.0728432" lon="-105.2305736">
  <ele>1596.87</ele>
  <time>2026-08-28T19:12:38Z</time>
  <course>104.08</course>
  <speed>0.04</speed>
  <fix>3d</fix>
</trkpt>
<trkpt lat="40.0728428" lon="-105.2305736">
  <ele>1596.53</ele>
  <time>2026-08-28T19:12:38Z</time>
  <course>11.71</course>
  <speed>0.07071067811865475</speed>
  <fix>3d</fix>
</trkpt>
<trkpt lat="40.0728432" lon="-105.2305735">
  <ele>1596.65</ele>
  <time>2026-08-28T19:12:38Z</time>
  <course>142.1</course>
  <speed>0.04</speed>
  <fix>3d</fix>
</trkpt>
<trkpt lat="40.0728428" lon="-105.2305736">
  <ele>1596.37</ele>
  <time>2026-08-28T19:12:38Z</time>
  <course>11.36</course>
  <speed>0.09</speed>
  <fix>3d</fix>
</trkpt>
<trkpt lat="40.0728431" lon="-105.2305734">
  <ele>1596.45</ele>
  <time>2026-08-28T19:12:38Z</time>
  <course>170.21</course>
  <speed>0.05</speed>
  <fix>3d</fix>
</trkpt>
<trkpt lat="40.0728427" lon="-105.2305736">
  <ele>1596.24</ele>
  <time>2026-08-28T19:12:38Z</time>
  <course>11.25</course>
  <speed>0.09219544457292887</speed>
  <fix>3d</fix>
</trkpt>
<trkpt lat="40.072843" lon="-105.2305734">
  <ele>1596.29</ele>
  <time>2026-08-28T19:12:38Z</time>
  <course>188.68</course>
  <speed>0.07</speed>
  <fix>3d</fix>
</trkpt>
<trkpt lat="40.0728426" lon="-105.2305736">
  <ele>1596.13</ele>
  <time>2026-08-28T19:12:38Z</time>
  <course>11.25</course>
  <speed>0.10770329614269007</speed>
  <fix>3d</fix>
</trkpt>
<trkpt lat="40.0728429" lon="-105.2305735">
  <ele>1596.15</ele>
  <time>2026-08-28T19:12:38Z</time>
  <course>201.21</course>
  <speed>0.08</speed>
  <fix>3d</fix>
</trkpt>
<trkpt lat="40.0728424" lon="-105.2305737">
  <ele>1596.03</ele>
  <time>2026-08-28T19:12:38Z</time>
  <course>11.26</course>
  <speed>0.1118033988749895</speed>
  <fix>3d</fix>
</trkpt>
<trkpt lat="40.0728427" lon="-105.2305736">
  <ele>1596.05</ele>
  <time>2026-08-28T19:12:38Z</time>
  <course>209.86</course>
  <speed>0.09</speed>
  <fix>3d</fix>
</trkpt>
<trkpt lat="40.0728423" lon="-105.2305738">
  <ele>1595.94</ele>
  <time>2026-08-28T19:12:38Z</time>
  <course>11.29</course>
  <speed>0.11661903789690602</speed>
  <fix>3d</fix>
</trkpt>
<trkpt lat="40.0728426" lon="-105.2305737">
  <ele>1595.95</ele>
  <time>2026-08-28T19:12:38Z</time>
  <course>216.46</course>
  <speed>0.1</speed>
  <fix>3d</fix>
</trkpt>
<trkpt lat="40.0728421" lon="-105.230574">
  <ele>1595.85</ele>
  <time>2026-08-28T19:12:38Z</time>
  <course>11.32</course>
  <speed>0.11401754250991379</speed>
  <fix>3d</fix>
</trkpt>
<trkpt lat="40.0728424" lon="-105.2305738">
  <ele>1595.86</ele>
  <time>2026-08-28T19:12:38Z</time>
  <course>222.0</course>
  <speed>0.11</speed>
  <fix>3d</fix>
</trkpt>
<trkpt lat="40.072842" lon="-105.2305741">
  <ele>1595.76</ele>
  <time>2026-08-28T19:12:38Z</time>
  <course>11.37</course>
  <speed>0.1063014581273465</speed>
  <fix>3d</fix>
</trkpt>
<trkpt lat="40.0728423" lon="-105.2305739">
  <ele>1595.77</ele>
  <time>2026-08-28T19:12:39Z</time>
  <course>226.9</course>
  <speed>0.11</speed>
  <fix>3d</fix>
</trkpt>
<trkpt lat="40.0728419" lon="-105.2305743">
  <ele>1595.67</ele>
  <time>2026-08-28T19:12:39Z</time>
  <course>11.37</course>
  <speed>0.09899494936611665</speed>
  <fix>3d</fix>
</trkpt>
<trkpt lat="40.0728421" lon="-105.2305742">
  <ele>1595.69</ele>
  <time>2026-08-28T19:12:39Z</time>
  <course>231.48</course>
  <speed>0.11</speed>
  <fix>3d</fix>
</trkpt>
<trkpt lat="40.0728418" lon="-105.2305745">
  <ele>1595.58</ele>
  <time>2026-08-28T19:12:39Z</time>
  <course>11.41</course>
  <speed>0.09219544457292887</speed>
  <fix>3d</fix>
</trkpt>
<trkpt lat="40.072842" lon="-105.2305744">
  <ele>1595.6</ele>
  <time>2026-08-28T19:12:39Z</time>
  <course>236.06</course>
  <speed>0.1</speed>
  <fix>3d</fix>
</trkpt>
<trkpt lat="40.0728417" lon="-105.2305747">
  <ele>1595.48</ele>
  <time>2026-08-28T19:12:39Z</time>
  <course>11.41</course>
  <speed>0.07810249675906654</speed>
  <fix>3d</fix>
</trkpt>
<trkpt lat="40.0728419" lon="-105.2305747">
  <ele>1595.5</ele>
  <time>2026-08-28T19:12:39Z</time>
  <course>240.8</course>
  <speed>0.1</speed>
  <fix>3d</fix>
</trkpt>
<trkpt lat="40.0728417" lon="-105.2305749">
  <ele>1595.39</ele>
  <time>2026-08-28T19:12:39Z</time>
  <course>11.42</course>
  <speed>0.07211102550927978</speed>
  <fix>3d</fix>
</trkpt>
<trkpt lat="40.0728418" lon="-105.2305748">
  <ele>1595.4</ele>
  <time>2026-08-28T19:12:39Z</time>
  <course>246.17</course>
  <speed>0.09</speed>
  <fix>3d</fix>
</trkpt>
<trkpt lat="40.0728417" lon="-105.230575">
  <ele>1595.29</ele>
  <time>2026-08-28T19:12:39Z</time>
  <course>11.42</course>
  <speed>0.05830951894845301</speed>
  <fix>3d</fix>
</trkpt>
<trkpt lat="40.0728418" lon="-105.2305751">
  <ele>1595.31</ele>
  <time>2026-08-28T19:12:39Z</time>
  <course>252.63</course>
  <speed>0.08</speed>
  <fix>3d</fix>
</trkpt>
<trkpt lat="40.0728416" lon="-105.2305752">
  <ele>1595.19</ele>
  <time>2026-08-28T19:12:39Z</time>
  <course>11.42</course>
  <speed>0.0412310562561766</speed>
  <fix>3d</fix>
</trkpt>
<trkpt lat="40.0728418" lon="-105.2305752">
  <ele>1595.22</ele>
  <time>2026-08-28T19:12:39Z</time>
  <course>260.21</course>
  <speed>0.07</speed>
  <fix>3d</fix>
</trkpt>
<trkpt lat="40.0728416" lon="-105.2305753">
  <ele>1595.09</ele>
  <time>2026-08-28T19:12:39Z</time>
  <course>11.41</course>
  <speed>0.03</speed>
  <fix>3d</fix>
</trkpt>
<trkpt lat="40.0728417" lon="-105.2305753">
  <ele>1595.12</ele>
  <time>2026-08-28T19:12:39Z</time>
  <course>269.12</course>
  <speed>0.06</speed>
  <fix>3d</fix>
</trkpt>
<trkpt lat="40.0728417" lon="-105.2305754">
  <ele>1594.99</ele>
  <time>2026-08-28T19:12:39Z</time>
  <course>11.41</course>
  <speed>0.02</speed>
  <fix>3d</fix>
</trkpt>
<trkpt lat="40.0728417" lon="-105.2305755">
  <ele>1595.02</ele>
  <time>2026-08-28T19:12:39Z</time>
  <course>279.73</course>
  <speed>0.05</speed>
  <fix>3d</fix>
</trkpt>
<trkpt lat="40.0728417" lon="-105.2305755">
  <ele>1594.9</ele>
  <time>2026-08-28T19:12:39Z</time>
  <course>11.43</course>
  <speed>0.01</speed>
  <fix>3d</fix>
</trkpt>
<trkpt lat="40.0728417" lon="-105.2305757">
  <ele>1594.91</ele>
  <time>2026-08-28T19:12:39Z</time>
  <course>291.83</course>
  <speed>0.05</speed>
  <fix>3d</fix>
</trkpt>
<trkpt lat="40.0728417" lon="-105.2305756">
  <ele>1594.8</ele>
  <time>2026-08-28T19:12:39Z</time>
  <course>11.42</course>
  <speed>0.01</speed>
  <fix>3d</fix>
</trkpt>
<trkpt lat="40.0728417" lon="-105.2305758">
  <ele>1594.82</ele>
  <time>2026-08-28T19:12:39Z</time>
  <course>305.52</course>
  <speed>0.04</speed>
  <fix>3d</fix>
</trkpt>
<trkpt lat="40.0728417" lon="-105.2305757">
  <ele>1594.69</ele>
  <time>2026-08-28T19:12:39Z</time>
  <course>11.42</course>
  <speed>0.01</speed>
  <fix>3d</fix>
</trkpt>
<trkpt lat="40.0728418" lon="-105.2305758">
  <ele>1594.72</ele>
  <time>2026-08-28T19:12:39Z</time>
  <course>320.3</course>
  <speed>0.04</speed>
  <fix>3d</fix>
</trkpt>
<trkpt lat="40.0728418" lon="-105.2305757">
  <ele>1594.59</ele>
  <time>2026-08-28T19:12:39Z</time>
  <course>11.41</course>
  <speed>0.022360679774997897</speed>
  <fix>3d</fix>
</trkpt>
<trkpt lat="40.0728418" lon="-105.2305759">
  <ele>1594.62</ele>
  <time>2026-08-28T19:12:39Z</time>
  <course>334.51</course>
  <speed>0.04</speed>
  <fix>3d</fix>
</trkpt>
<trkpt lat="40.0728418" lon="-105.2305757">
  <ele>1594.49</ele>
  <time>2026-08-28T19:12:39Z</time>
  <course>11.42</course>
  <speed>0.0282842712474619</speed>
  <fix>3d</fix>
</trkpt>
<trkpt lat="40.0728419" lon="-105.230576">
  <ele>1594.52</ele>
  <time>2026-08-28T19:12:39Z</time>
  <course>346.77</course>
  <speed>0.04</speed>
  <fix>3d</fix>
</trkpt>
<trkpt lat="40.0728419" lon="-105.2305757">
  <ele>1594.39</ele>
  <time>2026-08-28T19:12:39Z</time>
  <course>11.4</course>
  <speed>0.0282842712474619</speed>
  <fix>3d</fix>
</trkpt>
<trkpt lat="40.072842" lon="-105.230576">
  <ele>1594.41</ele>
  <time>2026-08-28T19:12:39Z</time>
  <course>356.72</course>
  <speed>0.04</speed>
  <fix>3d</fix>
</trkpt>
<trkpt lat="40.072842" lon="-105.2305757">
  <ele>1594.29</ele>
  <time>2026-08-28T19:12:39Z</time>
  <course>11.41</course>
  <speed>0.03605551275463989</speed>
  <fix>3d</fix>
</trkpt>
<trkpt lat="40.072842" lon="-105.230576">
  <ele>1594.32</ele>
  <time>2026-08-28T19:12:39Z</time>
  <course>4.89</course>
  <speed>0.04</speed>
  <fix>3d</fix>
</trkpt>
<trkpt lat="40.0728421" lon="-105.2305757">
  <ele>1594.19</ele>
  <time>2026-08-28T19:12:39Z</time>
  <course>11.41</course>
  <speed>0.0316227766016838</speed>
  <fix>3d</fix>
</trkpt>
<trkpt lat="40.0728421" lon="-105.230576">
  <ele>1594.22</ele>
  <time>2026-08-28T19:12:39Z</time>
  <course>11.98</course>
  <speed>0.04</speed>
  <fix>3d</fix>
</trkpt>
<trkpt lat="40.0728421" lon="-105.2305757">
  <ele>1594.08</ele>
  <time>2026-08-28T19:12:39Z</time>
  <course>11.41</course>
  <speed>0.0412310562561766</speed>
  <fix>3d</fix>
</trkpt>
<trkpt lat="40.0728422" lon="-105.230576">
  <ele>1594.12</ele>
  <time>2026-08-28T19:12:39Z</time>
  <course>18.7</course>
  <speed>0.04</speed>
  <fix>3d</fix>
</trkpt>
<trkpt lat="40.0728422" lon="-105.2305757">
  <ele>1593.98</ele>
  <time>2026-08-28T19:12:39Z</time>
  <course>11.38</course>
  <speed>0.0412310562561766</speed>
  <fix>3d</fix>
</trkpt>
<trkpt lat="40.0728423" lon="-105.230576">
  <ele>1594.02</ele>
  <time>2026-08-28T19:12:39Z</time>
  <course>25.26</course>
  <speed>0.04</speed>
  <fix>3d</fix>
</trkpt>
<trkpt lat="40.0728422" lon="-105.2305757">
  <ele>1593.88</ele>
  <time>2026-08-28T19:12:39Z</time>
  <course>11.39</course>
  <speed>0.04</speed>
  <fix>3d</fix>
</trkpt>
<trkpt lat="40.0728424" lon="-105.2305759">
  <ele>1593.91</ele>
  <time>2026-08-28T19:12:39Z</time>
  <course>31.56</course>
  <speed>0.04</speed>
  <fix>3d</fix>
</trkpt>
<trkpt lat="40.0728423" lon="-105.2305756">
  <ele>1593.78</ele>
  <time>2026-08-28T19:12:39Z</time>
  <course>11.41</course>
  <speed>0.04</speed>
  <fix>3d</fix>
</trkpt>
<trkpt lat="40.0728424" lon="-105.2305758">
  <ele>1593.82</ele>
  <time>2026-08-28T19:12:39Z</time>
  <course>37.46</course>
  <speed>0.04</speed>
  <fix>3d</fix>
</trkpt>
<trkpt lat="40.0728423" lon="-105.2305755">
  <ele>1593.69</ele>
  <time>2026-08-28T19:12:39Z</time>
  <course>11.43</course>
  <speed>0.04</speed>
  <fix>3d</fix>
</trkpt>
<trkpt lat="40.0728425" lon="-105.2305758">
  <ele>1593.72</ele>
  <time>2026-08-28T19:12:39Z</time>
  <course>43.85</course>
  <speed>0.03</speed>
  <fix>3d</fix>
</trkpt>
<trkpt lat="40.0728424" lon="-105.2305755">
  <ele>1593.59</ele>
  <time>2026-08-28T19:12:39Z</time>
  <course>11.42</course>
  <speed>0.04</speed>
  <fix>3d</fix>
</trkpt>
<trkpt lat="40.0728425" lon="-105.2305757">
  <ele>1593.62</ele>
  <time>2026-08-28T19:12:39Z</time>
  <course>51.31</course>
  <speed>0.03</speed>
  <fix>3d</fix>
</trkpt>
<trkpt lat="40.0728424" lon="-105.2305754">
  <ele>1593.49</ele>
  <time>2026-08-28T19:12:39Z</time>
  <course>11.42</course>
  <speed>0.0412310562561766</speed>
  <fix>3d</fix>
</trkpt>
<trkpt lat="40.0728426" lon="-105.2305756">
  <ele>1593.52</ele>
  <time>2026-08-28T19:12:39Z</time>
  <course>60.1</course>
  <speed>0.03</speed>
  <fix>3d</fix>
</trkpt>
<trkpt lat="40.0728424" lon="-105.2305754">
  <ele>1593.39</ele>
  <time>2026-08-28T19:12:39Z</time>
  <course>11.43</course>
  <speed>0.0412310562561766</speed>
  <fix>3d</fix>
</trkpt>
<trkpt lat="40.0728426" lon="-105.2305756">
  <ele>1593.41</ele>
  <time>2026-08-28T19:12:39Z</time>
  <course>70.26</course>
  <speed>0.02</speed>
  <fix>3d</fix>
</trkpt>
<trkpt lat="40.0728424" lon="-105.2305753">
  <ele>1593.29</ele>
  <time>2026-08-28T19:12:39Z</time>
  <course>11.44</course>
  <speed>0.044721359549995794</speed>
  <fix>3d</fix>
</trkpt>
<trkpt lat="40.0728426" lon="-105.2305756">
  <ele>1593.32</ele>
  <time>2026-08-28T19:12:39Z</time>
  <course>81.74</course>
  <speed>0.02</speed>
  <fix>3d</fix>
</trkpt>
<trkpt lat="40.0728424" lon="-105.2305753">
  <ele>1593.2</ele>
  <time>2026-08-28T19:12:39Z</time>
  <course>11.43</course>
  <speed>0.03605551275463989</speed>
  <fix>3d</fix>
</trkpt>
<trkpt lat="40.0728426" lon="-105.2305755">
  <ele>1593.22</ele>
  <time>2026-08-28T19:12:39Z</time>
  <course>94.57</course>
  <speed>0.02</speed>
  <fix>3d</fix>
</trkpt>
<trkpt lat="40.0728424" lon="-105.2305752">
  <ele>1593.1</ele>
  <time>2026-08-28T19:12:39Z</time>
  <course>11.43</course>
  <speed>0.04242640687119285</speed>
  <fix>3d</fix>
</trkpt>
<trkpt lat="40.0728426" lon="-105.2305755">
  <ele>1593.12</ele>
  <time>2026-08-28T19:12:39Z</time>
  <course>108.48</course>
  <speed>0.02</speed>
  <fix>3d</fix>
</trkpt>
<trkpt lat="40.0728424" lon="-105.2305752">
  <ele>1593.0</ele>
  <time>2026-08-28T19:12:39Z</time>
  <course>11.42</course>
  <speed>0.04242640687119285</speed>
  <fix>3d</fix>
</trkpt>
<trkpt lat="40.0728426" lon="-105.2305754">
  <ele>1593.02</ele>
  <time>2026-08-28T19:12:39Z</time>
  <course>121.9</course>
  <speed>0.02</speed>
  <fix>3d</fix>
</trkpt>
<trkpt lat="40.0728424" lon="-105.2305752">
  <ele>1592.9</ele>
  <time>2026-08-28T19:12:39Z</time>
  <course>11.44</course>
  <speed>0.04242640687119285</speed>
  <fix>3d</fix>
</trkpt>
<trkpt lat="40.0728426" lon="-105.2305753">
  <ele>1592.91</ele>
  <time>2026-08-28T19:12:39Z</time>
  <course>134.07</course>
  <speed>0.02</speed>
  <fix>3d</fix>
</trkpt>
<trkpt lat="40.0728424" lon="-105.2305752">
  <ele>1592.79</ele>
  <time>2026-08-28T19:12:39Z</time>
  <course>11.43</course>
  <speed>0.044721359549995794</speed>
  <fix>3d</fix>
</trkpt>
<trkpt lat="40.0728426" lon="-105.2305753">
  <ele>1592.82</ele>
  <time>2026-08-28T19:12:39Z</time>
  <course>144.33</course>
  <speed>0.02</speed>
  <fix>3d</fix>
</trkpt>
<trkpt lat="40.0728424" lon="-105.2305751">
  <ele>1592.69</ele>
  <time>2026-08-28T19:12:39Z</time>
  <course>11.41</course>
  <speed>0.044721359549995794</speed>
  <fix>3d</fix>
</trkpt>
<trkpt lat="40.0728426" lon="-105.2305753">
  <ele>1592.72</ele>
  <time>2026-08-28T19:12:39Z</time>
  <course>152.4</course>
  <speed>0.02</speed>
  <fix>3d</fix>
</trkpt>
<trkpt lat="40.0728424" lon="-105.2305751">
  <ele>1592.59</ele>
  <time>2026-08-28T19:12:39Z</time>
  <course>11.41</course>
  <speed>0.044721359549995794</speed>
  <fix>3d</fix>
</trkpt>
<trkpt lat="40.0728426" lon="-105.2305753">
  <ele>1592.61</ele>
  <time>2026-08-28T19:12:39Z</time>
  <course>159.91</course>
  <speed>0.02</speed>
  <fix>3d</fix>
</trkpt>
<trkpt lat="40.0728423" lon="-105.2305751">
  <ele>1592.48</ele>
  <time>2026-08-28T19:12:39Z</time>
  <course>11.4</course>
  <speed>0.0412310562561766</speed>
  <fix>3d</fix>
</trkpt>
<trkpt lat="40.0728425" lon="-105.2305753">
  <ele>1592.51</ele>
  <time>2026-08-28T19:12:39Z</time>
  <course>167.83</course>
  <speed>0.02</speed>
  <fix>3d</fix>
</trkpt>
<trkpt lat="40.0728423" lon="-105.2305751">
  <ele>1592.38</ele>
  <time>2026-08-28T19:12:39Z</time>
  <course>11.42</course>
  <speed>0.0412310562561766</speed>
  <fix>3d</fix>
</trkpt>
<trkpt lat="40.0728425" lon="-105.2305753">
  <ele>1592.4</ele>
  <time>2026-08-28T19:12:39Z</time>
  <course>175.51</course>
  <speed>0.02</speed>
  <fix>3d</fix>
</trkpt>
<trkpt lat="40.0728423" lon="-105.2305751">
  <ele>1592.28</ele>
  <time>2026-08-28T19:12:39Z</time>
  <course>11.39</course>
  <speed>0.0316227766016838</speed>
  <fix>3d</fix>
</trkpt>
<trkpt lat="40.0728424" lon="-105.2305753">
  <ele>1592.31</ele>
  <time>2026-08-28T19:12:39Z</time>
  <course>181.5</course>
  <speed>0.02</speed>
  <fix>3d</fix>
</trkpt>
<trkpt lat="40.0728422" lon="-105.2305751">
  <ele>1592.18</ele>
  <time>2026-08-28T19:12:39Z</time>
  <course>11.41</course>
  <speed>0.0316227766016838</speed>
  <fix>3d</fix>
</trkpt>
<trkpt lat="40.0728424" lon="-105.2305753">
  <ele>1592.22</ele>
  <time>2026-08-28T19:12:39Z</time>
  <course>186.54</course>
  <speed>0.02</speed>
  <fix>3d</fix>
</trkpt>
<trkpt lat="40.0728422" lon="-105.2305751">
  <ele>1592.09</ele>
  <time>2026-08-28T19:12:39Z</time>
  <course>11.39</course>
  <speed>0.0316227766016838</speed>
  <fix>3d</fix>
</trkpt>
<trkpt lat="40.0728424" lon="-105.2305753">
  <ele>1592.12</ele>
  <time>2026-08-28T19:12:39Z</time>
  <course>191.09</course>
  <speed>0.02</speed>
  <fix>3d</fix>
</trkpt>
<trkpt lat="40.0728422" lon="-105.2305751">
  <ele>1591.99</ele>
  <time>2026-08-28T19:12:39Z</time>
  <course>11.41</course>
  <speed>0.0316227766016838</speed>
  <fix>3d</fix>
</trkpt>
<trkpt lat="40.0728423" lon="-105.2305753">
  <ele>1592.02</ele>
  <time>2026-08-28T19:12:39Z</time>
  <course>195.53</course>
  <speed>0.01</speed>
  <fix>3d</fix>
</trkpt>
<trkpt lat="40.0728422" lon="-105.2305751">
  <ele>1591.89</ele>
  <time>2026-08-28T19:12:39Z</time>
  <course>11.39</course>
  <speed>0.0316227766016838</speed>
  <fix>3d</fix>
</trkpt>
<trkpt lat="40.0728423" lon="-105.2305753">
  <ele>1591.91</ele>
  <time>2026-08-28T19:12:39Z</time>
  <course>200.17</course>
  <speed>0.01</speed>
  <fix>3d</fix>
</trkpt>
<trkpt lat="40.0728421" lon="-105.2305751">
  <ele>1591.79</ele>
  <time>2026-08-28T19:12:39Z</time>
  <course>11.4</course>
  <speed>0.022360679774997897</speed>
  <fix>3d</fix>
</trkpt>
<trkpt lat="40.0728423" lon="-105.2305753">
  <ele>1591.82</ele>
  <time>2026-08-28T19:12:39Z</time>
  <course>205.05</course>
  <speed>0.01</speed>
  <fix>3d</fix>
</trkpt>
<trkpt lat="40.0728421" lon="-105.2305751">
  <ele>1591.69</ele>
  <time>2026-08-28T19:12:39Z</time>
  <course>11.41</course>
  <speed>0.022360679774997897</speed>
  <fix>3d</fix>
</trkpt>
<trkpt lat="40.0728423" lon="-105.2305753">
  <ele>1591.72</ele>
  <time>2026-08-28T19:12:39Z</time>
  <course>210.9</course>
  <speed>0.01</speed>
  <fix>3d</fix>
</trkpt>
<trkpt lat="40.0728421" lon="-105.2305751">
  <ele>1591.59</ele>
  <time>2026-08-28T19:12:39Z</time>
  <course>11.41</course>
  <speed>0.022360679774997897</speed>
  <fix>3d</fix>
</trkpt>
<trkpt lat="40.0728422" lon="-105.2305753">
  <ele>1591.62</ele>
  <time>2026-08-28T19:12:39Z</time>
  <course>216.86</course>
  <speed>0.01</speed>
  <fix>3d</fix>
</trkpt>
<trkpt lat="40.0728421" lon="-105.2305751">
  <ele>1591.49</ele>
  <time>2026-08-28T19:12:39Z</time>
  <course>11.4</course>
  <speed>0.022360679774997897</speed>
  <fix>3d</fix>
</trkpt>
<trkpt lat="40.0728421" lon="-105.2305753">
  <ele>1591.52</ele>
  <time>2026-08-28T19:12:39Z</time>
  <course>224.22</course>
  <speed>0.0</speed>
  <fix>3d</fix>
</trkpt>
<trkpt lat="40.0728421" lon="-105.2305751">
  <ele>1591.39</ele>
  <time>2026-08-28T19:12:39Z</time>
  <course>11.41</course>
  <speed>0.01414213562373095</speed>
  <fix>3d</fix>
</trkpt>
<trkpt lat="40.0728421" lon="-105.2305753">
  <ele>1591.41</ele>
  <time>2026-08-28T19:12:39Z</time>
  <course>235.09</course>
  <speed>0.0</speed>
  <fix>3d</fix>
</trkpt>
<trkpt lat="40.0728421" lon="-105.2305752">
  <ele>1591.29</ele>
  <time>2026-08-28T19:12:39Z</time>
  <course>11.41</course>
  <speed>0.01414213562373095</speed>
  <fix>3d</fix>
</trkpt>
<trkpt lat="40.0728421" lon="-105.2305753">
  <ele>1591.32</ele>
  <time>2026-08-28T19:12:39Z</time>
  <course>250.22</course>
  <speed>0.0</speed>
  <fix>3d</fix>
</trkpt>
<trkpt lat="40.0728421" lon="-105.2305752">
  <ele>1591.19</ele>
  <time>2026-08-28T19:12:39Z</time>
  <course>11.4</course>
  <speed>0.01414213562373095</speed>
  <fix>3d</fix>
</trkpt>
<trkpt lat="40.0728421" lon="-105.2305753">
  <ele>1591.22</ele>
  <time>2026-08-28T19:12:39Z</time>
  <course>269.55</course>
  <speed>0.0</speed>
  <fix>3d</fix>
</trkpt>
<trkpt lat="40.0728421" lon="-105.2305752">
  <ele>1591.1</ele>
  <time>2026-08-28T19:12:39Z</time>
  <course>11.41</course>
  <speed>0.01414213562373095</speed>
  <fix>3d</fix>
</trkpt>
<trkpt lat="40.0728421" lon="-105.2305753">
  <ele>1591.12</ele>
  <time>2026-08-28T19:12:39Z</time>
  <course>289.94</course>
  <speed>0.0</speed>
  <fix>3d</fix>
</trkpt>
<trkpt lat="40.0728421" lon="-105.2305752">
  <ele>1591.0</ele>
  <time>2026-08-28T19:12:39Z</time>
  <course>11.42</course>
  <speed>0.01414213562373095</speed>
  <fix>3d</fix>
</trkpt>
<trkpt lat="40.0728421" lon="-105.2305753">
  <ele>1591.02</ele>
  <time>2026-08-28T19:12:39Z</time>
  <course>304.71</course>
  <speed>0.0</speed>
  <fix>3d</fix>
</trkpt>
<trkpt lat="40.0728421" lon="-105.2305752">
  <ele>1590.89</ele>
  <time>2026-08-28T19:12:39Z</time>
  <course>11.42</course>
  <speed>0.01414213562373095</speed>
  <fix>3d</fix>
</trkpt>
<trkpt lat="40.0728421" lon="-105.2305753">
  <ele>1590.91</ele>
  <time>2026-08-28T19:12:39Z</time>
  <course>314.56</course>
  <speed>0.0</speed>
  <fix>3d</fix>
</trkpt>
<trkpt lat="40.0728421" lon="-105.2305752">
  <ele>1590.79</ele>
  <time>2026-08-28T19:12:39Z</time>
  <course>11.41</course>
  <speed>0.01</speed>
  <fix>3d</fix>
</trkpt>
<trkpt lat="40.0728421" lon="-105.2305753">
  <ele>1590.81</ele>
  <time>2026-08-28T19:12:39Z</time>
  <course>322.33</course>
  <speed>0.01</speed>
  <fix>3d</fix>
</trkpt>
<trkpt lat="40.0728421" lon="-105.2305752">
  <ele>1590.69</ele>
  <time>2026-08-28T19:12:39Z</time>
  <course>11.4</course>
  <speed>0.01</speed>
  <fix>3d</fix>
</trkpt>
<trkpt lat="40.0728421" lon="-105.2305753">
  <ele>1590.71</ele>
  <time>2026-08-28T19:12:39Z</time>
  <course>328.04</course>
  <speed>0.01</speed>
  <fix>3d</fix>
</trkpt>
<trkpt lat="40.0728421" lon="-105.2305752">
  <ele>1590.58</ele>
  <time>2026-08-28T19:12:39Z</time>
  <course>11.41</course>
  <speed>0.01</speed>
  <fix>3d</fix>
</trkpt>
<trkpt lat="40.0728421" lon="-105.2305753">
  <ele>1590.61</ele>
  <time>2026-08-28T19:12:39Z</time>
  <course>331.09</course>
  <speed>0.01</speed>
  <fix>3d</fix>
</trkpt>
<trkpt lat="40.0728421" lon="-105.2305752">
  <ele>1590.48</ele>
  <time>2026-08-28T19:12:39Z</time>
  <course>11.37</course>
  <speed>0.01</speed>
  <fix>3d</fix>
</trkpt>
<trkpt lat="40.0728421" lon="-105.2305754">
  <ele>1590.51</ele>
  <time>2026-08-28T19:12:39Z</time>
  <course>333.5</course>
  <speed>0.01</speed>
  <fix>3d</fix>
</trkpt>
<trkpt lat="40.0728421" lon="-105.2305752">
  <ele>1590.38</ele>
  <time>2026-08-28T19:12:39Z</time>
  <course>11.36</course>
  <speed>0.01</speed>
  <fix>3d</fix>
</trkpt>
<trkpt lat="40.0728421" lon="-105.2305755">
  <ele>1590.4</ele>
  <time>2026-08-28T19:12:39Z</time>
  <course>335.02</course>
  <speed>0.01</speed>
  <fix>3d</fix>
</trkpt>
<trkpt lat="40.0728421" lon="-105.2305752">
  <ele>1590.28</ele>
  <time>2026-08-28T19:12:39Z</time>
  <course>11.38</course>
  <speed>0.01</speed>
  <fix>3d</fix>
</trkpt>
<trkpt lat="40.0728422" lon="-105.2305755">
  <ele>1590.31</ele>
  <time>2026-08-28T19:12:39Z</time>
  <course>335.36</course>
  <speed>0.01</speed>
  <fix>3d</fix>
</trkpt>
<trkpt lat="40.0728421" lon="-105.2305752">
  <ele>1590.19</ele>
  <time>2026-08-28T19:12:39Z</time>
  <course>11.41</course>
  <speed>0.01</speed>
  <fix>3d</fix>
</trkpt>
<trkpt lat="40.0728423" lon="-105.2305755">
  <ele>1590.22</ele>
  <time>2026-08-28T19:12:39Z</time>
  <course>336.56</course>
  <speed>0.01</speed>
  <fix>3d</fix>
</trkpt>
<trkpt lat="40.0728421" lon="-105.2305752">
  <ele>1590.09</ele>
  <time>2026-08-28T19:12:39Z</time>
  <course>11.39</course>
  <speed>0.01</speed>
  <fix>3d</fix>
</trkpt>
<trkpt lat="40.0728423" lon="-105.2305755">
  <ele>1590.12</ele>
  <time>2026-08-28T19:12:39Z</time>
  <course>339.6</course>
  <speed>0.01</speed>
  <fix>3d</fix>
</trkpt>
<trkpt lat="40.0728421" lon="-105.2305752">
  <ele>1589.99</ele>
  <time>2026-08-28T19:12:39Z</time>
  <course>11.4</course>
  <speed>0.01</speed>
  <fix>3d</fix>
</trkpt>
<trkpt lat="40.0728423" lon="-105.2305755">
  <ele>1590.02</ele>
  <time>2026-08-28T19:12:39Z</time>
  <course>342.63</course>
  <speed>0.01</speed>
  <fix>3d</fix>
</trkpt>
<trkpt lat="40.0728421" lon="-105.2305752">
  <ele>1589.89</ele>
  <time>2026-08-28T19:12:39Z</time>
  <course>11.42</course>
  <speed>0.01414213562373095</speed>
  <fix>3d</fix>
</trkpt>
<trkpt lat="40.0728423" lon="-105.2305755">
  <ele>1589.91</ele>
  <time>2026-08-28T19:12:39Z</time>
  <course>345.04</course>
  <speed>0.01</speed>
  <fix>3d</fix>
</trkpt>
<trkpt lat="40.0728422" lon="-105.2305753">
  <ele>1589.79</ele>
  <time>2026-08-28T19:12:39Z</time>
  <course>11.4</course>
  <speed>0.01414213562373095</speed>
  <fix>3d</fix>
</trkpt>
<trkpt lat="40.0728424" lon="-105.2305755">
  <ele>1589.82</ele>
  <time>2026-08-28T19:12:39Z</time>
  <course>349.07</course>
  <speed>0.01</speed>
  <fix>3d</fix>
</trkpt>
<trkpt lat="40.0728422" lon="-105.2305753">
  <ele>1589.69</ele>
  <time>2026-08-28T19:12:39Z</time>
  <course>11.4</course>
  <speed>0.022360679774997897</speed>
  <fix>3d</fix>
</trkpt>
<trkpt lat="40.0728424" lon="-105.2305755">
  <ele>1589.72</ele>
  <time>2026-08-28T19:12:39Z</time>
  <course>355.25</course>
  <speed>0.0</speed>
  <fix>3d</fix>
</trkpt>
<trkpt lat="40.0728422" lon="-105.2305753">
  <ele>1589.59</ele>
  <time>2026-08-28T19:12:39Z</time>
  <course>11.42</course>
  <speed>0.022360679774997897</speed>
  <fix>3d</fix>
</trkpt>
<trkpt lat="40.0728424" lon="-105.2305755">
  <ele>1589.62</ele>
  <time>2026-08-28T19:12:39Z</time>
  <course>2.75</course>
  <speed>0.0</speed>
  <fix>3d</fix>
</trkpt>
<trkpt lat="40.0728422" lon="-105.2305753">
  <ele>1589.49</ele>
  <time>2026-08-28T19:12:39Z</time>
  <course>11.39</course>
  <speed>0.022360679774997897</speed>
  <fix>3d</fix>
</trkpt>
<trkpt lat="40.0728424" lon="-105.2305755">
  <ele>1589.52</ele>
  <time>2026-08-28T19:12:39Z</time>
  <course>13.41</course>
  <speed>0.0</speed>
  <fix>3d</fix>
</trkpt>
<trkpt lat="40.0728422" lon="-105.2305753">
  <ele>1589.39</ele>
  <time>2026-08-28T19:12:39Z</time>
  <course>11.41</course>
  <speed>0.022360679774997897</speed>
  <fix>3d</fix>
</trkpt>
<trkpt lat="40.0728424" lon="-105.2305755">
  <ele>1589.41</ele>
  <time>2026-08-28T19:12:39Z</time>
  <course>29.3</course>
  <speed>0.0</speed>
  <fix>3d</fix>
</trkpt>
<trkpt lat="40.0728422" lon="-105.2305753">
  <ele>1589.29</ele>
  <time>2026-08-28T19:12:39Z</time>
  <course>11.4</course>
  <speed>0.0282842712474619</speed>
  <fix>3d</fix>
</trkpt>
<trkpt lat="40.0728424" lon="-105.2305755">
  <ele>1589.32</ele>
  <time>2026-08-28T19:12:39Z</time>
  <course>61.08</course>
  <speed>0.0</speed>
  <fix>3d</fix>
</trkpt>
<trkpt lat="40.0728422" lon="-105.2305753">
  <ele>1589.19</ele>
  <time>2026-08-28T19:12:39Z</time>
  <course>11.4</course>
  <speed>0.0282842712474619</speed>
  <fix>3d</fix>
</trkpt>
<trkpt lat="40.0728424" lon="-105.2305755">
  <ele>1589.22</ele>
  <time>2026-08-28T19:12:39Z</time>
  <course>98.56</course>
  <speed>0.0</speed>
  <fix>3d</fix>
</trkpt>
<trkpt lat="40.0728422" lon="-105.2305753">
  <ele>1589.09</ele>
  <time>2026-08-28T19:12:39Z</time>
  <course>11.41</course>
  <speed>0.0282842712474619</speed>
  <fix>3d</fix>
</trkpt>
<trkpt lat="40.0728424" lon="-105.2305755">
  <ele>1589.12</ele>
  <time>2026-08-28T19:12:39Z</time>
  <course>120.05</course>
  <speed>0.0</speed>
  <fix>3d</fix>
</trkpt>
<trkpt lat="40.0728422" lon="-105.2305753">
  <ele>1588.99</ele>
  <time>2026-08-28T19:12:39Z</time>
  <course>11.4</course>
  <speed>0.0282842712474619</speed>
  <fix>3d</fix>
</trkpt>
<trkpt lat="40.0728424" lon="-105.2305755">
  <ele>1589.02</ele>
  <time>2026-08-28T19:12:39Z</time>
  <course>131.74</course>
  <speed>0.0</speed>
  <fix>3d</fix>
</trkpt>
<trkpt lat="40.0728422" lon="-105.2305753">
  <ele>1588.89</ele>
  <time>2026-08-28T19:12:39Z</time>
  <course>11.39</course>
  <speed>0.0282842712474619</speed>
  <fix>3d</fix>
</trkpt>
<trkpt lat="40.0728424" lon="-105.2305755">
  <ele>1588.91</ele>
  <time>2026-08-28T19:12:39Z</time>
  <course>138.03</course>
  <speed>0.0</speed>
  <fix>3d</fix>
</trkpt>
<trkpt lat="40.0728422" lon="-105.2305753">
  <ele>1588.79</ele>
  <time>2026-08-28T19:12:39Z</time>
  <course>11.4</course>
  <speed>0.0282842712474619</speed>
  <fix>3d</fix>
</trkpt>
<trkpt lat="40.0728424" lon="-105.2305755">
  <ele>1588.81</ele>
  <time>2026-08-28T19:12:39Z</time>
  <course>141.64</course>
  <speed>0.0</speed>
  <fix>3d</fix>
</trkpt>
<trkpt lat="40.0728422" lon="-105.2305753">
  <ele>1588.69</ele>
  <time>2026-08-28T19:12:39Z</time>
  <course>11.4</course>
  <speed>0.0282842712474619</speed>
  <fix>3d</fix>
</trkpt>
<trkpt lat="40.0728424" lon="-105.2305755">
  <ele>1588.71</ele>
  <time>2026-08-28T19:12:39Z</time>
  <course>144.43</course>
  <speed>0.0</speed>
  <fix>3d</fix>
</trkpt>
<trkpt lat="40.0728422" lon="-105.2305753">
  <ele>1588.59</ele>
  <time>2026-08-28T19:12:39Z</time>
  <course>11.39</course>
  <speed>0.0282842712474619</speed>
  <fix>3d</fix>
</trkpt>
<trkpt lat="40.0728424" lon="-105.2305755">
  <ele>1588.61</ele>
  <time>2026-08-28T19:12:39Z</time>
  <course>145.68</course>
  <speed>0.0</speed>
  <fix>3d</fix>
</trkpt>
<trkpt lat="40.0728422" lon="-105.2305753">
  <ele>1588.49</ele>
  <time>2026-08-28T19:12:39Z</time>
  <course>11.4</course>
  <speed>0.0282842712474619</speed>
  <fix>3d</fix>
</trkpt>
<trkpt lat="40.0728424" lon="-105.2305755">
  <ele>1588.51</ele>
  <time>2026-08-28T19:12:39Z</time>
  <course>147.03</course>
  <speed>0.0</speed>
  <fix>3d</fix>
</trkpt>
<trkpt lat="40.0728422" lon="-105.2305753">
  <ele>1588.39</ele>
  <time>2026-08-28T19:12:39Z</time>
  <course>11.4</course>
  <speed>0.0282842712474619</speed>
  <fix>3d</fix>
</trkpt>
<trkpt lat="40.0728424" lon="-105.2305755">
  <ele>1588.4</ele>
  <time>2026-08-28T19:12:39Z</time>
  <course>147.59</course>
  <speed>0.0</speed>
  <fix>3d</fix>
</trkpt>
<trkpt lat="40.0728422" lon="-105.2305753">
  <ele>1588.29</ele>
  <time>2026-08-28T19:12:39Z</time>
  <course>11.39</course>
  <speed>0.0282842712474619</speed>
  <fix>3d</fix>
</trkpt>
<trkpt lat="40.0728424" lon="-105.2305755">
  <ele>1588.31</ele>
  <time>2026-08-28T19:12:39Z</time>
  <course>146.39</course>
  <speed>0.0</speed>
  <fix>3d</fix>
</trkpt>
<trkpt lat="40.0728422" lon="-105.2305753">
  <ele>1588.19</ele>
  <time>2026-08-28T19:12:39Z</time>
  <course>11.41</course>
  <speed>0.0282842712474619</speed>
  <fix>3d</fix>
</trkpt>
<trkpt lat="40.0728424" lon="-105.2305755">
  <ele>1588.21</ele>
  <time>2026-08-28T19:12:39Z</time>
  <course>146.71</course>
  <speed>0.0</speed>
  <fix>3d</fix>
</trkpt>
<trkpt lat="40.0728422" lon="-105.2305753">
  <ele>1588.09</ele>
  <time>2026-08-28T19:12:39Z</time>
  <course>11.39</course>
  <speed>0.0282842712474619</speed>
  <fix>3d</fix>
</trkpt>
<trkpt lat="40.0728424" lon="-105.2305755">
  <ele>1588.11</ele>
  <time>2026-08-28T19:12:39Z</time>
  <course>147.43</course>
  <speed>0.0</speed>
  <fix>3d</fix>
</trkpt>
<trkpt lat="40.0728422" lon="-105.2305753">
  <ele>1587.99</ele>
  <time>2026-08-28T19:12:39Z</time>
  <course>11.39</course>
  <speed>0.0282842712474619</speed>
  <fix>3d</fix>
</trkpt>
<trkpt lat="40.0728424" lon="-105.2305755">
  <ele>1588.01</ele>
  <time>2026-08-28T19:12:39Z</time>
  <course>147.5</course>
  <speed>0.0</speed>
  <fix>3d</fix>
</trkpt>
<trkpt lat="40.0728422" lon="-105.2305753">
  <ele>1587.89</ele>
  <time>2026-08-28T19:12:39Z</time>
  <course>11.39</course>
  <speed>0.0282842712474619</speed>
  <fix>3d</fix>
</trkpt>
<trkpt lat="40.0728424" lon="-105.2305755">
  <ele>1587.9</ele>
  <time>2026-08-28T19:12:39Z</time>
  <course>147.94</course>
  <speed>0.0</speed>
  <fix>3d</fix>
</trkpt>
<trkpt lat="40.0728422" lon="-105.2305753">
  <ele>1587.79</ele>
  <time>2026-08-28T19:12:39Z</time>
  <course>11.4</course>
  <speed>0.0282842712474619</speed>
  <fix>3d</fix>
</trkpt>
<trkpt lat="40.0728424" lon="-105.2305755">
  <ele>1587.81</ele>
  <time>2026-08-28T19:12:39Z</time>
  <course>147.82</course>
  <speed>0.0</speed>
  <fix>3d</fix>
</trkpt>
<trkpt lat="40.0728422" lon="-105.2305753">
  <ele>1587.69</ele>
  <time>2026-08-28T19:12:39Z</time>
  <course>11.4</course>
  <speed>0.0282842712474619</speed>
  <fix>3d</fix>
</trkpt>
<trkpt lat="40.0728424" lon="-105.2305755">
  <ele>1587.71</ele>
  <time>2026-08-28T19:12:39Z</time>
  <course>145.86</course>
  <speed>0.0</speed>
  <fix>3d</fix>
</trkpt>
<trkpt lat="40.0728422" lon="-105.2305753">
  <ele>1587.59</ele>
  <time>2026-08-28T19:12:39Z</time>
  <course>11.4</course>
  <speed>0.0282842712474619</speed>
  <fix>3d</fix>
</trkpt>
<trkpt lat="40.0728424" lon="-105.2305755">
  <ele>1587.61</ele>
  <time>2026-08-28T19:12:39Z</time>
  <course>143.49</course>
  <speed>0.0</speed>
  <fix>3d</fix>
</trkpt>
<trkpt lat="40.0728422" lon="-105.2305753">
  <ele>1587.49</ele>
  <time>2026-08-28T19:12:39Z</time>
  <course>11.38</course>
  <speed>0.0282842712474619</speed>
  <fix>3d</fix>
</trkpt>
<trkpt lat="40.0728423" lon="-105.2305754">
  <ele>1587.51</ele>
  <time>2026-08-28T19:12:39Z</time>
  <course>142.22</course>
  <speed>0.0</speed>
  <fix>3d</fix>
</trkpt>
<trkpt lat="40.0728422" lon="-105.2305753">
  <ele>1587.38</ele>
  <time>2026-08-28T19:12:39Z</time>
  <course>11.4</course>
  <speed>0.0282842712474619</speed>
  <fix>3d</fix>
</trkpt>
<trkpt lat="40.0728423" lon="-105.2305753">
  <ele>1587.4</ele>
  <time>2026-08-28T19:12:39Z</time>
  <course>142.87</course>
  <speed>0.0</speed>
  <fix>3d</fix>
</trkpt>
<trkpt lat="40.0728422" lon="-105.2305753">
  <ele>1587.28</ele>
  <time>2026-08-28T19:12:39Z</time>
  <course>11.37</course>
  <speed>0.0282842712474619</speed>
  <fix>3d</fix>
</trkpt>
<trkpt lat="40.0728423" lon="-105.2305753">
  <ele>1587.31</ele>
  <time>2026-08-28T19:12:39Z</time>
  <course>143.17</course>
  <speed>0.0</speed>
  <fix>3d</fix>
</trkpt>
<trkpt lat="40.0728422" lon="-105.2305752">
  <ele>1587.18</ele>
  <time>2026-08-28T19:12:39Z</time>
  <course>11.37</course>
  <speed>0.0282842712474619</speed>
  <fix>3d</fix>
</trkpt>
<trkpt lat="40.0728423" lon="-105.2305753">
  <ele>1587.21</ele>
  <time>2026-08-28T19:12:39Z</time>
  <course>142.21</course>
  <speed>0.0</speed>
  <fix>3d</fix>
</trkpt>
<trkpt lat="40.0728422" lon="-105.2305752">
  <ele>1587.08</ele>
  <time>2026-08-28T19:12:39Z</time>
  <course>11.38</course>
  <speed>0.022360679774997897</speed>
  <fix>3d</fix>
</trkpt>
<trkpt lat="40.0728423" lon="-105.2305753">
  <ele>1587.11</ele>
  <time>2026-08-28T19:12:39Z</time>
  <course>144.42</course>
  <speed>0.0</speed>
  <fix>3d</fix>
</trkpt>
<trkpt lat="40.0728422" lon="-105.2305752">
  <ele>1586.98</ele>
  <time>2026-08-28T19:12:39Z</time>
  <course>11.38</course>
  <speed>0.022360679774997897</speed>
  <fix>3d</fix>
</trkpt>
<trkpt lat="40.0728423" lon="-105.2305753">
  <ele>1587.01</ele>
  <time>2026-08-28T19:12:39Z</time>
  <course>153.27</course>
  <speed>0.0</speed>
  <fix>3d</fix>
</trkpt>
<trkpt lat="40.0728422" lon="-105.2305752">
  <ele>1586.88</ele>
  <time>2026-08-28T19:12:39Z</time>
  <course>11.4</course>
  <speed>0.01414213562373095</speed>
  <fix>3d</fix>
</trkpt>
<trkpt lat="40.0728423" lon="-105.2305753">
  <ele>1586.9</ele>
  <time>2026-08-28T19:12:39Z</time>
  <course>168.0</course>
  <speed>0.0</speed>
  <fix>3d</fix>
</trkpt>
<trkpt lat="40.0728422" lon="-105.2305752">
  <ele>1586.78</ele>
  <time>2026-08-28T19:12:39Z</time>
  <course>11.38</course>
  <speed>0.01414213562373095</speed>
  <fix>3d</fix>
</trkpt>
<trkpt lat="40.0728423" lon="-105.2305753">
  <ele>1586.81</ele>
  <time>2026-08-28T19:12:39Z</time>
  <course>183.21</course>
  <speed>0.0</speed>
  <fix>3d</fix>
</trkpt>
<trkpt lat="40.0728422" lon="-105.2305752">
  <ele>1586.69</ele>
  <time>2026-08-28T19:12:39Z</time>
  <course>11.39</course>
  <speed>0.01414213562373095</speed>
  <fix>3d</fix>
</trkpt>
<trkpt lat="40.0728423" lon="-105.2305753">
  <ele>1586.71</ele>
  <time>2026-08-28T19:12:39Z</time>
  <course>202.06</course>
  <speed>0.0</speed>
  <fix>3d</fix>
</trkpt>
<trkpt lat="40.0728422" lon="-105.2305752">
  <ele>1586.59</ele>
  <time>2026-08-28T19:12:39Z</time>
  <course>11.4</course>
  <speed>0.01414213562373095</speed>
  <fix>3d</fix>
</trkpt>
<trkpt lat="40.0728423" lon="-105.2305753">
  <ele>1586.61</ele>
  <time>2026-08-28T19:12:39Z</time>
  <course>226.37</course>
  <speed>0.0</speed>
  <fix>3d</fix>
</trkpt>
<trkpt lat="40.0728422" lon="-105.2305752">
  <ele>1586.49</ele>
  <time>2026-08-28T19:12:39Z</time>
  <course>11.4</course>
  <speed>0.01414213562373095</speed>
  <fix>3d</fix>
</trkpt>
<trkpt lat="40.0728423" lon="-105.2305753">
  <ele>1586.51</ele>
  <time>2026-08-28T19:12:39Z</time>
  <course>243.12</course>
  <speed>0.0</speed>
  <fix>3d</fix>
</trkpt>
<trkpt lat="40.0728422" lon="-105.2305752">
  <ele>1586.39</ele>
  <time>2026-08-28T19:12:39Z</time>
  <course>11.38</course>
  <speed>0.01414213562373095</speed>
  <fix>3d</fix>
</trkpt>
<trkpt lat="40.0728423" lon="-105.2305753">
  <ele>1586.41</ele>
  <time>2026-08-28T19:12:39Z</time>
  <course>251.04</course>
  <speed>0.0</speed>
  <fix>3d</fix>
</trkpt>
<trkpt lat="40.0728422" lon="-105.2305752">
  <ele>1586.29</ele>
  <time>2026-08-28T19:12:39Z</time>
  <course>11.39</course>
  <speed>0.01414213562373095</speed>
  <fix>3d</fix>
</trkpt>
<trkpt lat="40.0728423" lon="-105.2305753">
  <ele>1586.32</ele>
  <time>2026-08-28T19:12:39Z</time>
  <course>256.22</course>
  <speed>0.0</speed>
  <fix>3d</fix>
</trkpt>
<trkpt lat="40.0728422" lon="-105.2305752">
  <ele>1586.19</ele>
  <time>2026-08-28T19:12:39Z</time>
  <course>11.4</course>
  <speed>0.01414213562373095</speed>
  <fix>3d</fix>
</trkpt>
<trkpt lat="40.0728423" lon="-105.2305753">
  <ele>1586.22</ele>
  <time>2026-08-28T19:12:39Z</time>
  <course>259.77</course>
  <speed>0.0</speed>
  <fix>3d</fix>
</trkpt>
<trkpt lat="40.0728422" lon="-105.2305752">
  <ele>1586.15</ele>
  <time>2026-08-28T19:12:39Z</time>
  <course>11.39</course>
  <speed>0.01</speed>
  <fix>3d</fix>
</trkpt>
<trkpt lat="40.0728423" lon="-105.2305753">
  <ele>1586.12</ele>
  <time>2026-08-28T19:12:39Z</time>
  <course>275.78</course>
  <speed>0.01</speed>
  <fix>3d</fix>
</trkpt>
<trkpt lat="40.0728422" lon="-105.2305752">
  <ele>1586.17</ele>
  <time>2026-08-28T19:12:39Z</time>
  <course>11.44</course>
  <speed>0.022360679774997897</speed>
  <fix>3d</fix>
</trkpt>
<trkpt lat="40.0728423" lon="-105.2305753">
  <ele>1586.07</ele>
  <time>2026-08-28T19:12:39Z</time>
  <course>284.89</course>
  <speed>0.01</speed>
  <fix>3d</fix>
</trkpt>
<trkpt lat="40.0728422" lon="-105.2305752">
  <ele>1586.18</ele>
  <time>2026-08-28T19:12:39Z</time>
  <course>11.49</course>
  <speed>0.01414213562373095</speed>
  <fix>3d</fix>
</trkpt>
<trkpt lat="40.0728423" lon="-105.2305753">
  <ele>1586.09</ele>
  <time>2026-08-28T19:12:39Z</time>
  <course>335.6</course>
  <speed>0.0</speed>
  <fix>3d</fix>
</trkpt>
<trkpt lat="40.0728422" lon="-105.2305752">
  <ele>1586.17</ele>
  <time>2026-08-28T19:12:39Z</time>
  <course>11.52</course>
  <speed>0.01414213562373095</speed>
  <fix>3d</fix>
</trkpt>
<trkpt lat="40.0728423" lon="-105.2305753">
  <ele>1586.1</ele>
  <time>2026-08-28T19:12:39Z</time>
  <course>91.01</course>
  <speed>0.0</speed>
  <fix>3d</fix>
</trkpt>
<trkpt lat="40.0728422" lon="-105.2305752">
  <ele>1586.18</ele>
  <time>2026-08-28T19:12:39Z</time>
  <course>11.56</course>
  <speed>0.01414213562373095</speed>
  <fix>3d</fix>
</trkpt>
<trkpt lat="40.0728423" lon="-105.2305753">
  <ele>1586.09</ele>
  <time>2026-08-28T19:12:39Z</time>
  <course>119.93</course>
  <speed>0.0</speed>
  <fix>3d</fix>
</trkpt>
<trkpt lat="40.0728422" lon="-105.2305752">
  <ele>1586.18</ele>
  <time>2026-08-28T19:12:39Z</time>
  <course>11.59</course>
  <speed>0.01414213562373095</speed>
  <fix>3d</fix>
</trkpt>
<trkpt lat="40.0728423" lon="-105.2305753">
  <ele>1586.09</ele>
  <time>2026-08-28T19:12:39Z</time>
  <course>330.32</course>
  <speed>0.0</speed>
  <fix>3d</fix>
</trkpt>
<trkpt lat="40.0728422" lon="-105.2305752">
  <ele>1586.18</ele>
  <time>2026-08-28T19:12:39Z</time>
  <course>11.61</course>
  <speed>0.01414213562373095</speed>
  <fix>3d</fix>
</trkpt>
<trkpt lat="40.0728423" lon="-105.2305753">
  <ele>1586.09</ele>
  <time>2026-08-28T19:12:39Z</time>
  <course>36.29</course>
  <speed>0.0</speed>
  <fix>3d</fix>
</trkpt>
<trkpt lat="40.0728422" lon="-105.2305752">
  <ele>1586.18</ele>
  <time>2026-08-28T19:12:39Z</time>
  <course>11.64</course>
  <speed>0.01414213562373095</speed>
  <fix>3d</fix>
</trkpt>
<trkpt lat="40.0728423" lon="-105.2305753">
  <ele>1586.09</ele>
  <time>2026-08-28T19:12:39Z</time>
  <course>4.33</course>
  <speed>0.0</speed>
  <fix>3d</fix>
</trkpt>
<trkpt lat="40.0728422" lon="-105.2305752">
  <ele>1586.18</ele>
  <time>2026-08-28T19:12:39Z</time>
  <course>11.66</course>
  <speed>0.01414213562373095</speed>
  <fix>3d</fix>
</trkpt>
<trkpt lat="40.0728423" lon="-105.2305753">
  <ele>1586.09</ele>
  <time>2026-08-28T19:12:39Z</time>
  <course>324.9</course>
  <speed>0.0</speed>
  <fix>3d</fix>
</trkpt>
<trkpt lat="40.0728422" lon="-105.2305752">
  <ele>1586.18</ele>
  <time>2026-08-28T19:12:39Z</time>
  <course>11.69</course>
  <speed>0.0282842712474619</speed>
  <fix>3d</fix>
</trkpt>
<trkpt lat="40.0728423" lon="-105.2305753">
  <ele>1586.09</ele>
  <time>2026-08-28T19:12:39Z</time>
  <course>30.15</course>
  <speed>0.0</speed>
  <fix>3d</fix>
</trkpt>
<trkpt lat="40.0728422" lon="-105.2305752">
  <ele>1586.18</ele>
  <time>2026-08-28T19:12:39Z</time>
  <course>11.66</course>
  <speed>0.03605551275463989</speed>
  <fix>3d</fix>
</trkpt>
<trkpt lat="40.0728423" lon="-105.2305753">
  <ele>1586.09</ele>
  <time>2026-08-28T19:12:39Z</time>
  <course>99.37</course>
  <speed>0.01</speed>
  <fix>3d</fix>
</trkpt>
<trkpt lat="40.0728422" lon="-105.2305752">
  <ele>1586.18</ele>
  <time>2026-08-28T19:12:39Z</time>
  <course>11.61</course>
  <speed>0.01414213562373095</speed>
  <fix>3d</fix>
</trkpt>
<trkpt lat="40.0728423" lon="-105.2305753">
  <ele>1586.09</ele>
  <time>2026-08-28T19:12:39Z</time>
  <course>102.75</course>
  <speed>0.01</speed>
  <fix>3d</fix>
</trkpt>
<trkpt lat="40.0728422" lon="-105.2305752">
  <ele>1586.19</ele>
  <time>2026-08-28T19:12:39Z</time>
  <course>11.58</course>
  <speed>0.01414213562373095</speed>
  <fix>3d</fix>
</trkpt>
<trkpt lat="40.0728423" lon="-105.2305753">
  <ele>1586.09</ele>
  <time>2026-08-28T19:12:39Z</time>
  <course>251.45</course>
  <speed>0.0</speed>
  <fix>3d</fix>
</trkpt>
<trkpt lat="40.0728422" lon="-105.2305752">
  <ele>1586.19</ele>
  <time>2026-08-28T19:12:39Z</time>
  <course>11.57</course>
  <speed>0.01414213562373095</speed>
  <fix>3d</fix>
</trkpt>
<trkpt lat="40.0728423" lon="-105.2305753">
  <ele>1586.09</ele>
  <time>2026-08-28T19:12:39Z</time>
  <course>264.56</course>
  <speed>0.0</speed>
  <fix>3d</fix>
</trkpt>
<trkpt lat="40.0728422" lon="-105.2305752">
  <ele>1586.19</ele>
  <time>2026-08-28T19:12:39Z</time>
  <course>11.57</course>
  <speed>0.01414213562373095</speed>
  <fix>3d</fix>
</trkpt>
<trkpt lat="40.0728423" lon="-105.2305753">
  <ele>1586.09</ele>
  <time>2026-08-28T19:12:39Z</time>
  <course>227.79</course>
  <speed>0.0</speed>
  <fix>3d</fix>
</trkpt>
<trkpt lat="40.0728422" lon="-105.2305752">
  <ele>1586.19</ele>
  <time>2026-08-28T19:12:39Z</time>
  <course>11.57</course>
  <speed>0.01414213562373095</speed>
  <fix>3d</fix>
</trkpt>
<trkpt lat="40.0728423" lon="-105.2305753">
  <ele>1586.09</ele>
  <time>2026-08-28T19:12:39Z</time>
  <course>235.01</course>
  <speed>0.0</speed>
  <fix>3d</fix>
</trkpt>
<trkpt lat="40.0728422" lon="-105.2305752">
  <ele>1586.19</ele>
  <time>2026-08-28T19:12:39Z</time>
  <course>11.56</course>
  <speed>0.01414213562373095</speed>
  <fix>3d</fix>
</trkpt>
<trkpt lat="40.0728423" lon="-105.2305753">
  <ele>1586.09</ele>
  <time>2026-08-28T19:12:39Z</time>
  <course>242.37</course>
  <speed>0.0</speed>
  <fix>3d</fix>
</trkpt>
<trkpt lat="40.0728422" lon="-105.2305752">
  <ele>1586.19</ele>
  <time>2026-08-28T19:12:39Z</time>
  <course>11.56</course>
  <speed>0.01414213562373095</speed>
  <fix>3d</fix>
</trkpt>
<trkpt lat="40.0728423" lon="-105.2305753">
  <ele>1586.09</ele>
  <time>2026-08-28T19:12:39Z</time>
  <course>237.34</course>
  <speed>0.0</speed>
  <fix>3d</fix>
</trkpt>
<trkpt lat="40.0728422" lon="-105.2305752">
  <ele>1586.19</ele>
  <time>2026-08-28T19:12:39Z</time>
  <course>11.56</course>
  <speed>0.01414213562373095</speed>
  <fix>3d</fix>
</trkpt>
<trkpt lat="40.0728423" lon="-105.2305753">
  <ele>1586.09</ele>
  <time>2026-08-28T19:12:39Z</time>
  <course>227.25</course>
  <speed>0.0</speed>
  <fix>3d</fix>
</trkpt>
<trkpt lat="40.0728422" lon="-105.2305752">
  <ele>1586.19</ele>
  <time>2026-08-28T19:12:39Z</time>
  <course>11.56</course>
  <speed>0.022360679774997897</speed>
  <fix>3d</fix>
</trkpt>
<trkpt lat="40.0728423" lon="-105.2305753">
  <ele>1586.09</ele>
  <time>2026-08-28T19:12:39Z</time>
  <course>102.83</course>
  <speed>0.0</speed>
  <fix>3d</fix>
</trkpt>
<trkpt lat="40.0728422" lon="-105.2305752">
  <ele>1586.19</ele>
  <time>2026-08-28T19:12:39Z</time>
  <course>11.56</course>
  <speed>0.022360679774997897</speed>
  <fix>3d</fix>
</trkpt>
<trkpt lat="40.0728423" lon="-105.2305753">
  <ele>1586.09</ele>
  <time>2026-08-28T19:12:39Z</time>
  <course>353.49</course>
  <speed>0.0</speed>
  <fix>3d</fix>
</trkpt>
<trkpt lat="40.0728422" lon="-105.2305752">
  <ele>1586.19</ele>
  <time>2026-08-28T19:12:39Z</time>
  <course>11.56</course>
  <speed>0.022360679774997897</speed>
  <fix>3d</fix>
</trkpt>
<trkpt lat="40.0728423" lon="-105.2305753">
  <ele>1586.09</ele>
  <time>2026-08-28T19:12:39Z</time>
  <course>285.49</course>
  <speed>0.0</speed>
  <fix>3d</fix>
</trkpt>
<trkpt lat="40.0728422" lon="-105.2305752">
  <ele>1586.19</ele>
  <time>2026-08-28T19:12:39Z</time>
  <course>11.56</course>
  <speed>0.022360679774997897</speed>
  <fix>3d</fix>
</trkpt>
<trkpt lat="40.0728423" lon="-105.2305753">
  <ele>1586.09</ele>
  <time>2026-08-28T19:12:39Z</time>
  <course>286.49</course>
  <speed>0.0</speed>
  <fix>3d</fix>
</trkpt>
<trkpt lat="40.0728422" lon="-105.2305752">
  <ele>1586.19</ele>
  <time>2026-08-28T19:12:39Z</time>
  <course>11.56</course>
  <speed>0.022360679774997897</speed>
  <fix>3d</fix>
</trkpt>
<trkpt lat="40.0728423" lon="-105.2305753">
  <ele>1586.09</ele>
  <time>2026-08-28T19:12:39Z</time>
  <course>300.03</course>
  <speed>0.0</speed>
  <fix>3d</fix>
</trkpt>
<trkpt lat="40.0728422" lon="-105.2305752">
  <ele>1586.19</ele>
  <time>2026-08-28T19:12:39Z</time>
  <course>11.56</course>
  <speed>0.022360679774997897</speed>
  <fix>3d</fix>
</trkpt>
<trkpt lat="40.0728423" lon="-105.2305753">
  <ele>1586.09</ele>
  <time>2026-08-28T19:12:39Z</time>
  <course>297.43</course>
  <speed>0.0</speed>
  <fix>3d</fix>
</trkpt>
<trkpt lat="40.0728422" lon="-105.2305752">
  <ele>1586.19</ele>
  <time>2026-08-28T19:12:39Z</time>
  <course>11.56</course>
  <speed>0.022360679774997897</speed>
  <fix>3d</fix>
</trkpt>
<trkpt lat="40.0728423" lon="-105.2305753">
  <ele>1586.09</ele>
  <time>2026-08-28T19:12:39Z</time>
  <course>295.99</course>
  <speed>0.0</speed>
  <fix>3d</fix>
</trkpt>
<trkpt lat="40.0728422" lon="-105.2305752">
  <ele>1586.19</ele>
  <time>2026-08-28T19:12:39Z</time>
  <course>11.56</course>
  <speed>0.022360679774997897</speed>
  <fix>3d</fix>
</trkpt>
<trkpt lat="40.0728423" lon="-105.2305753">
  <ele>1586.09</ele>
  <time>2026-08-28T19:12:39Z</time>
  <course>296.48</course>
  <speed>0.0</speed>
  <fix>3d</fix>
</trkpt>
<trkpt lat="40.0728422" lon="-105.2305752">
  <ele>1586.19</ele>
  <time>2026-08-28T19:12:39Z</time>
  <course>11.55</course>
  <speed>0.022360679774997897</speed>
  <fix>3d</fix>
</trkpt>
<trkpt lat="40.0728423" lon="-105.2305753">
  <ele>1586.09</ele>
  <time>2026-08-28T19:12:39Z</time>
  <course>296.62</course>
  <speed>0.0</speed>
  <fix>3d</fix>
</trkpt>
<trkpt lat="40.0728422" lon="-105.2305752">
  <ele>1586.19</ele>
  <time>2026-08-28T19:12:40Z</time>
  <course>11.55</course>
  <speed>0.022360679774997897</speed>
  <fix>3d</fix>
</trkpt>
<trkpt lat="40.0728423" lon="-105.2305753">
  <ele>1586.09</ele>
  <time>2026-08-28T19:12:40Z</time>
  <course>296.54</course>
  <speed>0.0</speed>
  <fix>3d</fix>
</trkpt>
<trkpt lat="40.0728422" lon="-105.2305752">
  <ele>1586.19</ele>
  <time>2026-08-28T19:12:40Z</time>
  <course>11.55</course>
  <speed>0.022360679774997897</speed>
  <fix>3d</fix>
</trkpt>
<trkpt lat="40.0728423" lon="-105.2305753">
  <ele>1586.09</ele>
  <time>2026-08-28T19:12:40Z</time>
  <course>296.53</course>
  <speed>0.0</speed>
  <fix>3d</fix>
</trkpt>
<trkpt lat="40.0728422" lon="-105.2305752">
  <ele>1586.18</ele>
  <time>2026-08-28T19:12:40Z</time>
  <course>11.55</course>
  <speed>0.022360679774997897</speed>
  <fix>3d</fix>
</trkpt>
<trkpt lat="40.0728423" lon="-105.2305753">
  <ele>1586.09</ele>
  <time>2026-08-28T19:12:40Z</time>
  <course>296.54</course>
  <speed>0.0</speed>
  <fix>3d</fix>
</trkpt>
<trkpt lat="40.0728422" lon="-105.2305752">
  <ele>1586.18</ele>
  <time>2026-08-28T19:12:40Z</time>
  <course>11.55</course>
  <speed>0.022360679774997897</speed>
  <fix>3d</fix>
</trkpt>
<trkpt lat="40.0728423" lon="-105.2305753">
  <ele>1586.09</ele>
  <time>2026-08-28T19:12:40Z</time>
  <course>296.54</course>
  <speed>0.0</speed>
  <fix>3d</fix>
</trkpt>
<trkpt lat="40.0728422" lon="-105.2305752">
  <ele>1586.18</ele>
  <time>2026-08-28T19:12:40Z</time>
  <course>11.55</course>
  <speed>0.022360679774997897</speed>
  <fix>3d</fix>
</trkpt>
<trkpt lat="40.0728423" lon="-105.2305753">
  <ele>1586.09</ele>
  <time>2026-08-28T19:12:40Z</time>
  <course>296.54</course>
  <speed>0.0</speed>
  <fix>3d</fix>
</trkpt>
<trkpt lat="40.0728422" lon="-105.2305752">
  <ele>1586.18</ele>
  <time>2026-08-28T19:12:40Z</time>
  <course>11.55</course>
  <speed>0.022360679774997897</speed>
  <fix>3d</fix>
</trkpt>
<trkpt lat="40.0728423" lon="-105.2305753">
  <ele>1586.09</ele>
  <time>2026-08-28T19:12:40Z</time>
  <course>296.54</course>
  <speed>0.0</speed>
  <fix>3d</fix>
</trkpt>
<trkpt lat="40.0728422" lon="-105.2305752">
  <ele>1586.18</ele>
  <time>2026-08-28T19:12:40Z</time>
  <course>11.55</course>
  <speed>0.022360679774997897</speed>
  <fix>3d</fix>
</trkpt>
<trkpt lat="40.0728423" lon="-105.2305753">
  <ele>1586.09</ele>
  <time>2026-08-28T19:12:40Z</time>
  <course>296.54</course>
  <speed>0.0</speed>
  <fix>3d</fix>
</trkpt>
<trkpt lat="40.0728422" lon="-105.2305752">
  <ele>1586.18</ele>
  <time>2026-08-28T19:12:40Z</time>
  <course>11.54</course>
  <speed>0.022360679774997897</speed>
  <fix>3d</fix>
</trkpt>
<trkpt lat="40.0728423" lon="-105.2305753">
  <ele>1586.09</ele>
  <time>2026-08-28T19:12:40Z</time>
  <course>296.54</course>
  <speed>0.0</speed>
  <fix>3d</fix>
</trkpt>
<trkpt lat="40.0728422" lon="-105.2305752">
  <ele>1586.18</ele>
  <time>2026-08-28T19:12:40Z</time>
  <course>11.54</course>
  <speed>0.022360679774997897</speed>
  <fix>3d</fix>
</trkpt>
<trkpt lat="40.0728423" lon="-105.2305753">
  <ele>1586.09</ele>
  <time>2026-08-28T19:12:40Z</time>
  <course>296.54</course>
  <speed>0.0</speed>
  <fix>3d</fix>
</trkpt>
<trkpt lat="40.0728422" lon="-105.2305752">
  <ele>1586.19</ele>
  <time>2026-08-28T19:12:40Z</time>
  <course>11.54</course>
  <speed>0.022360679774997897</speed>
  <fix>3d</fix>
</trkpt>
<trkpt lat="40.0728423" lon="-105.2305753">
  <ele>1586.09</ele>
  <time>2026-08-28T19:12:40Z</time>
  <course>296.54</course>
  <speed>0.0</speed>
  <fix>3d</fix>
</trkpt>
<trkpt lat="40.0728422" lon="-105.2305752">
  <ele>1586.19</ele>
  <time>2026-08-28T19:12:40Z</time>
  <course>11.54</course>
  <speed>0.022360679774997897</speed>
  <fix>3d</fix>
</trkpt>
<trkpt lat="40.0728423" lon="-105.2305753">
  <ele>1586.09</ele>
  <time>2026-08-28T19:12:40Z</time>
  <course>296.54</course>
  <speed>0.0</speed>
  <fix>3d</fix>
</trkpt>
<trkpt lat="40.0728422" lon="-105.2305752">
  <ele>1586.19</ele>
  <time>2026-08-28T19:12:40Z</time>
  <course>11.54</course>
  <speed>0.022360679774997897</speed>
  <fix>3d</fix>
</trkpt>
<trkpt lat="40.0728423" lon="-105.2305753">
  <ele>1586.09</ele>
  <time>2026-08-28T19:12:40Z</time>
  <course>296.54</course>
  <speed>0.0</speed>
  <fix>3d</fix>
</trkpt>
<trkpt lat="40.0728422" lon="-105.2305752">
  <ele>1586.19</ele>
  <time>2026-08-28T19:12:40Z</time>
  <course>11.54</course>
  <speed>0.022360679774997897</speed>
  <fix>3d</fix>
</trkpt>
<trkpt lat="40.0728423" lon="-105.2305753">
  <ele>1586.09</ele>
  <time>2026-08-28T19:12:40Z</time>
  <course>296.54</course>
  <speed>0.0</speed>
  <fix>3d</fix>
</trkpt>
<trkpt lat="40.0728422" lon="-105.2305752">
  <ele>1586.19</ele>
  <time>2026-08-28T19:12:40Z</time>
  <course>11.54</course>
  <speed>0.022360679774997897</speed>
  <fix>3d</fix>
</trkpt>
<trkpt lat="40.0728423" lon="-105.2305753">
  <ele>1586.09</ele>
  <time>2026-08-28T19:12:40Z</time>
  <course>296.54</course>
  <speed>0.0</speed>
  <fix>3d</fix>
</trkpt>
<trkpt lat="40.0728422" lon="-105.2305752">
  <ele>1586.19</ele>
  <time>2026-08-28T19:12:40Z</time>
  <course>11.53</course>
  <speed>0.022360679774997897</speed>
  <fix>3d</fix>
</trkpt>
<trkpt lat="40.0728423" lon="-105.2305753">
  <ele>1586.09</ele>
  <time>2026-08-28T19:12:40Z</time>
  <course>296.54</course>
  <speed>0.0</speed>
  <fix>3d</fix>
</trkpt>
<trkpt lat="40.0728422" lon="-105.2305752">
  <ele>1586.19</ele>
  <time>2026-08-28T19:12:40Z</time>
  <course>11.53</course>
  <speed>0.022360679774997897</speed>
  <fix>3d</fix>
</trkpt>
<trkpt lat="40.0728423" lon="-105.2305753">
  <ele>1586.09</ele>
  <time>2026-08-28T19:12:40Z</time>
  <course>296.54</course>
  <speed>0.0</speed>
  <fix>3d</fix>
</trkpt>
<trkpt lat="40.0728422" lon="-105.2305752">
  <ele>1586.19</ele>
  <time>2026-08-28T19:12:40Z</time>
  <course>11.53</course>
  <speed>0.022360679774997897</speed>
  <fix>3d</fix>
</trkpt>
<trkpt lat="40.0728423" lon="-105.2305753">
  <ele>1586.09</ele>
  <time>2026-08-28T19:12:40Z</time>
  <course>296.54</course>
  <speed>0.0</speed>
  <fix>3d</fix>
</trkpt>
<trkpt lat="40.0728422" lon="-105.2305752">
  <ele>1586.19</ele>
  <time>2026-08-28T19:12:40Z</time>
  <course>11.53</course>
  <speed>0.022360679774997897</speed>
  <fix>3d</fix>
</trkpt>
<trkpt lat="40.0728423" lon="-105.2305753">
  <ele>1586.09</ele>
  <time>2026-08-28T19:12:40Z</time>
  <course>296.54</course>
  <speed>0.0</speed>
  <fix>3d</fix>
</trkpt>
<trkpt lat="40.0728422" lon="-105.2305752">
  <ele>1586.19</ele>
  <time>2026-08-28T19:12:40Z</time>
  <course>11.53</course>
  <speed>0.022360679774997897</speed>
  <fix>3d</fix>
</trkpt>
<trkpt lat="40.0728423" lon="-105.2305753">
  <ele>1586.09</ele>
  <time>2026-08-28T19:12:40Z</time>
  <course>296.54</course>
  <speed>0.0</speed>
  <fix>3d</fix>
</trkpt>
<trkpt lat="40.0728422" lon="-105.2305752">
  <ele>1586.2</ele>
  <time>2026-08-28T19:12:40Z</time>
  <course>11.53</course>
  <speed>0.022360679774997897</speed>
  <fix>3d</fix>
</trkpt>
<trkpt lat="40.0728423" lon="-105.2305753">
  <ele>1586.09</ele>
  <time>2026-08-28T19:12:40Z</time>
  <course>296.54</course>
  <speed>0.0</speed>
  <fix>3d</fix>
</trkpt>
<trkpt lat="40.0728422" lon="-105.2305752">
  <ele>1586.19</ele>
  <time>2026-08-28T19:12:40Z</time>
  <course>11.53</course>
  <speed>0.022360679774997897</speed>
  <fix>3d</fix>
</trkpt>
<trkpt lat="40.0728423" lon="-105.2305753">
  <ele>1586.09</ele>
  <time>2026-08-28T19:12:40Z</time>
  <course>296.54</course>
  <speed>0.0</speed>
  <fix>3d</fix>
</trkpt>
<trkpt lat="40.0728422" lon="-105.2305752">
  <ele>1586.19</ele>
  <time>2026-08-28T19:12:40Z</time>
  <course>11.52</course>
  <speed>0.022360679774997897</speed>
  <fix>3d</fix>
</trkpt>
<trkpt lat="40.0728423" lon="-105.2305753">
  <ele>1586.09</ele>
  <time>2026-08-28T19:12:40Z</time>
  <course>296.54</course>
  <speed>0.0</speed>
  <fix>3d</fix>
</trkpt>
<trkpt lat="40.0728422" lon="-105.2305752">
  <ele>1586.19</ele>
  <time>2026-08-28T19:12:40Z</time>
  <course>11.52</course>
  <speed>0.022360679774997897</speed>
  <fix>3d</fix>
</trkpt>
<trkpt lat="40.0728423" lon="-105.2305753">
  <ele>1586.09</ele>
  <time>2026-08-28T19:12:40Z</time>
  <course>296.54</course>
  <speed>0.0</speed>
  <fix>3d</fix>
</trkpt>
<trkpt lat="40.0728422" lon="-105.2305752">
  <ele>1586.19</ele>
  <time>2026-08-28T19:12:40Z</time>
  <course>11.52</course>
  <speed>0.022360679774997897</speed>
  <fix>3d</fix>
</trkpt>
<trkpt lat="40.0728423" lon="-105.2305753">
  <ele>1586.09</ele>
  <time>2026-08-28T19:12:40Z</time>
  <course>296.54</course>
  <speed>0.0</speed>
  <fix>3d</fix>
</trkpt>
<trkpt lat="40.0728422" lon="-105.2305752">
  <ele>1586.19</ele>
  <time>2026-08-28T19:12:40Z</time>
  <course>11.52</course>
  <speed>0.022360679774997897</speed>
  <fix>3d</fix>
</trkpt>
<trkpt lat="40.0728423" lon="-105.2305753">
  <ele>1586.09</ele>
  <time>2026-08-28T19:12:40Z</time>
  <course>296.54</course>
  <speed>0.0</speed>
  <fix>3d</fix>
</trkpt>
<trkpt lat="40.0728422" lon="-105.2305752">
  <ele>1586.19</ele>
  <time>2026-08-28T19:12:40Z</time>
  <course>11.52</course>
  <speed>0.022360679774997897</speed>
  <fix>3d</fix>
</trkpt>
<trkpt lat="40.0728423" lon="-105.2305753">
  <ele>1586.09</ele>
  <time>2026-08-28T19:12:40Z</time>
  <course>296.54</course>
  <speed>0.0</speed>
  <fix>3d</fix>
</trkpt>
<trkpt lat="40.0728422" lon="-105.2305752">
  <ele>1586.19</ele>
  <time>2026-08-28T19:12:40Z</time>
  <course>11.52</course>
  <speed>0.022360679774997897</speed>
  <fix>3d</fix>
</trkpt>
<trkpt lat="40.0728423" lon="-105.2305753">
  <ele>1586.09</ele>
  <time>2026-08-28T19:12:40Z</time>
  <course>296.54</course>
  <speed>0.0</speed>
  <fix>3d</fix>
</trkpt>
<trkpt lat="40.0728422" lon="-105.2305752">
  <ele>1586.19</ele>
  <time>2026-08-28T19:12:40Z</time>
  <course>11.52</course>
  <speed>0.022360679774997897</speed>
  <fix>3d</fix>
</trkpt>
<trkpt lat="40.0728423" lon="-105.2305753">
  <ele>1586.09</ele>
  <time>2026-08-28T19:12:40Z</time>
  <course>296.54</course>
  <speed>0.0</speed>
  <fix>3d</fix>
</trkpt>
<trkpt lat="40.0728422" lon="-105.2305752">
  <ele>1586.19</ele>
  <time>2026-08-28T19:12:40Z</time>
  <course>11.51</course>
  <speed>0.022360679774997897</speed>
  <fix>3d</fix>
</trkpt>
<trkpt lat="40.0728423" lon="-105.2305753">
  <ele>1586.09</ele>
  <time>2026-08-28T19:12:40Z</time>
  <course>296.54</course>
  <speed>0.0</speed>
  <fix>3d</fix>
</trkpt>
<trkpt lat="40.0728422" lon="-105.2305752">
  <ele>1586.19</ele>
  <time>2026-08-28T19:12:40Z</time>
  <course>11.51</course>
  <speed>0.022360679774997897</speed>
  <fix>3d</fix>
</trkpt>
<trkpt lat="40.0728423" lon="-105.2305753">
  <ele>1586.09</ele>
  <time>2026-08-28T19:12:40Z</time>
  <course>296.54</course>
  <speed>0.0</speed>
  <fix>3d</fix>
</trkpt>
<trkpt lat="40.0728422" lon="-105.2305752">
  <ele>1586.19</ele>
  <time>2026-08-28T19:12:40Z</time>
  <course>11.51</course>
  <speed>0.022360679774997897</speed>
  <fix>3d</fix>
</trkpt>
<trkpt lat="40.0728423" lon="-105.2305753">
  <ele>1586.09</ele>
  <time>2026-08-28T19:12:40Z</time>
  <course>296.54</course>
  <speed>0.0</speed>
  <fix>3d</fix>
</trkpt>
<trkpt lat="40.0728422" lon="-105.2305752">
  <ele>1586.19</ele>
  <time>2026-08-28T19:12:40Z</time>
  <course>11.51</course>
  <speed>0.022360679774997897</speed>
  <fix>3d</fix>
</trkpt>
<trkpt lat="40.0728423" lon="-105.2305753">
  <ele>1586.09</ele>
  <time>2026-08-28T19:12:40Z</time>
  <course>296.54</course>
  <speed>0.0</speed>
  <fix>3d</fix>
</trkpt>
<trkpt lat="40.0728422" lon="-105.2305752">
  <ele>1586.19</ele>
  <time>2026-08-28T19:12:40Z</time>
  <course>11.58</course>
  <speed>0.022360679774997897</speed>
  <fix>3d</fix>
</trkpt>
<trkpt lat="40.0728423" lon="-105.2305753">
  <ele>1586.09</ele>
  <time>2026-08-28T19:12:40Z</time>
  <course>296.54</course>
  <speed>0.0</speed>
  <fix>3d</fix>
</trkpt>
<trkpt lat="40.0728422" lon="-105.2305752">
  <ele>1586.2</ele>
  <time>2026-08-28T19:12:40Z</time>
  <course>11.69</course>
  <speed>0.022360679774997897</speed>
  <fix>3d</fix>
</trkpt>
<trkpt lat="40.0728423" lon="-105.2305753">
  <ele>1586.09</ele>
  <time>2026-08-28T19:12:40Z</time>
  <course>296.54</course>
  <speed>0.0</speed>
  <fix>3d</fix>
</trkpt>
<trkpt lat="40.0728422" lon="-105.2305752">
  <ele>1586.2</ele>
  <time>2026-08-28T19:12:40Z</time>
  <course>11.8</course>
  <speed>0.022360679774997897</speed>
  <fix>3d</fix>
</trkpt>
<trkpt lat="40.0728423" lon="-105.2305753">
  <ele>1586.09</ele>
  <time>2026-08-28T19:12:40Z</time>
  <course>296.54</course>
  <speed>0.0</speed>
  <fix>3d</fix>
</trkpt>
<trkpt lat="40.0728422" lon="-105.2305752">
  <ele>1586.21</ele>
  <time>2026-08-28T19:12:40Z</time>
  <course>11.9</course>
  <speed>0.022360679774997897</speed>
  <fix>3d</fix>
</trkpt>
<trkpt lat="40.0728423" lon="-105.2305753">
  <ele>1586.09</ele>
  <time>2026-08-28T19:12:40Z</time>
  <course>296.54</course>
  <speed>0.0</speed>
  <fix>3d</fix>
</trkpt>
<trkpt lat="40.0728422" lon="-105.2305752">
  <ele>1586.22</ele>
  <time>2026-08-28T19:12:40Z</time>
  <course>12.0</course>
  <speed>0.022360679774997897</speed>
  <fix>3d</fix>
</trkpt>
<trkpt lat="40.0728423" lon="-105.2305753">
  <ele>1586.09</ele>
  <time>2026-08-28T19:12:40Z</time>
  <course>296.54</course>
  <speed>0.0</speed>
  <fix>3d</fix>
</trkpt>
<trkpt lat="40.0728422" lon="-105.2305752">
  <ele>1586.23</ele>
  <time>2026-08-28T19:12:40Z</time>
  <course>12.1</course>
  <speed>0.022360679774997897</speed>
  <fix>3d</fix>
</trkpt>
<trkpt lat="40.0728423" lon="-105.2305753">
  <ele>1586.09</ele>
  <time>2026-08-28T19:12:40Z</time>
  <course>307.53</course>
  <speed>0.0</speed>
  <fix>3d</fix>
</trkpt>
<trkpt lat="40.0728422" lon="-105.2305752">
  <ele>1586.23</ele>
  <time>2026-08-28T19:12:40Z</time>
  <course>12.2</course>
  <speed>0.022360679774997897</speed>
  <fix>3d</fix>
</trkpt>
<trkpt lat="40.0728423" lon="-105.2305753">
  <ele>1586.09</ele>
  <time>2026-08-28T19:12:40Z</time>
  <course>281.49</course>
  <speed>0.0</speed>
  <fix>3d</fix>
</trkpt>
<trkpt lat="40.0728422" lon="-105.2305752">
  <ele>1586.23</ele>
  <time>2026-08-28T19:12:40Z</time>
  <course>12.3</course>
  <speed>0.022360679774997897</speed>
  <fix>3d</fix>
</trkpt>
<trkpt lat="40.0728423" lon="-105.2305753">
  <ele>1586.09</ele>
  <time>2026-08-28T19:12:40Z</time>
  <course>255.66</course>
  <speed>0.0</speed>
  <fix>3d</fix>
</trkpt>
<trkpt lat="40.0728422" lon="-105.2305752">
  <ele>1586.22</ele>
  <time>2026-08-28T19:12:40Z</time>
  <course>12.4</course>
  <speed>0.022360679774997897</speed>
  <fix>3d</fix>
</trkpt>
<trkpt lat="40.0728423" lon="-105.2305753">
  <ele>1586.09</ele>
  <time>2026-08-28T19:12:40Z</time>
  <course>92.21</course>
  <speed>0.0</speed>
  <fix>3d</fix>
</trkpt>
<trkpt lat="40.0728422" lon="-105.2305752">
  <ele>1586.22</ele>
  <time>2026-08-28T19:12:40Z</time>
  <course>12.5</course>
  <speed>0.022360679774997897</speed>
  <fix>3d</fix>
</trkpt>
<trkpt lat="40.0728423" lon="-105.2305753">
  <ele>1586.09</ele>
  <time>2026-08-28T19:12:40Z</time>
  <course>316.2</course>
  <speed>0.0</speed>
  <fix>3d</fix>
</trkpt>
<trkpt lat="39.6562421" lon="-104.1365912">
  <ele>1569.6</ele>
  <time>2026-08-28T19:12:41Z</time>
  <course>0.0</course>
  <speed>0.0</speed>
  <fix>3d</fix>
</trkpt>
<trkpt lat="40.072842" lon="-105.230575">
  <ele>1586.09</ele>
  <time>2026-08-28T19:12:41Z</time>
  <course>2.03</course>
  <speed>0.0</speed>
  <fix>3d</fix>
</trkpt>
<trkpt lat="40.072842" lon="-105.230575">
  <ele>1586.09</ele>
  <time>2026-08-28T19:12:41Z</time>
  <course>0.0</course>
  <speed>0.0</speed>
  <fix>3d</fix>
</trkpt>
<trkpt lat="40.072842" lon="-105.230575">
  <ele>1586.09</ele>
  <time>2026-08-28T19:12:41Z</time>
  <course>2.44</course>
  <speed>0.0</speed>
  <fix>3d</fix>
</trkpt>
<trkpt lat="40.072842" lon="-105.230575">
  <ele>1586.09</ele>
  <time>2026-08-28T19:12:41Z</time>
  <course>0.0</course>
  <speed>0.0</speed>
  <fix>3d</fix>
</trkpt>
<trkpt lat="40.072842" lon="-105.230575">
  <ele>1586.09</ele>
  <time>2026-08-28T19:12:41Z</time>
  <course>3.19</course>
  <speed>0.0</speed>
  <fix>3d</fix>
</trkpt>
<trkpt lat="40.072842" lon="-105.230575">
  <ele>1586.09</ele>
  <time>2026-08-28T19:12:41Z</time>
  <course>0.0</course>
  <speed>0.0</speed>
  <fix>3d</fix>
</trkpt>
<trkpt lat="40.072842" lon="-105.230575">
  <ele>1586.09</ele>
  <time>2026-08-28T19:12:41Z</time>
  <course>3.87</course>
  <speed>0.0</speed>
  <fix>3d</fix>
</trkpt>
<trkpt lat="40.072842" lon="-105.230575">
  <ele>1586.09</ele>
  <time>2026-08-28T19:12:41Z</time>
  <course>0.0</course>
  <speed>0.0</speed>
  <fix>3d</fix>
</trkpt>
<trkpt lat="40.072842" lon="-105.230575">
  <ele>1586.09</ele>
  <time>2026-08-28T19:12:41Z</time>
  <course>4.49</course>
  <speed>0.0</speed>
  <fix>3d</fix>
</trkpt>
<trkpt lat="40.072842" lon="-105.230575">
  <ele>1586.09</ele>
  <time>2026-08-28T19:12:41Z</time>
  <course>0.0</course>
  <speed>0.0</speed>
  <fix>3d</fix>
</trkpt>
<trkpt lat="40.072842" lon="-105.230575">
  <ele>1586.09</ele>
  <time>2026-08-28T19:12:41Z</time>
  <course>5.09</course>
  <speed>0.0</speed>
  <fix>3d</fix>
</trkpt>
<trkpt lat="40.072842" lon="-105.230575">
  <ele>1586.09</ele>
  <time>2026-08-28T19:12:41Z</time>
  <course>0.0</course>
  <speed>0.0</speed>
  <fix>3d</fix>
</trkpt>
<trkpt lat="40.072842" lon="-105.230575">
  <ele>1586.09</ele>
  <time>2026-08-28T19:12:41Z</time>
  <course>5.65</course>
  <speed>0.0</speed>
  <fix>3d</fix>
</trkpt>
<trkpt lat="40.072842" lon="-105.230575">
  <ele>1586.09</ele>
  <time>2026-08-28T19:12:41Z</time>
  <course>0.0</course>
  <speed>0.0</speed>
  <fix>3d</fix>
</trkpt>
<trkpt lat="40.072842" lon="-105.230575">
  <ele>1586.09</ele>
  <time>2026-08-28T19:12:41Z</time>
  <course>6.17</course>
  <speed>0.0</speed>
  <fix>3d</fix>
</trkpt>
<trkpt lat="40.072842" lon="-105.230575">
  <ele>1586.09</ele>
  <time>2026-08-28T19:12:41Z</time>
  <course>0.0</course>
  <speed>0.0</speed>
  <fix>3d</fix>
</trkpt>
<trkpt lat="40.072842" lon="-105.230575">
  <ele>1586.09</ele>
  <time>2026-08-28T19:12:41Z</time>
  <course>6.66</course>
  <speed>0.0</speed>
  <fix>3d</fix>
</trkpt>
<trkpt lat="40.072842" lon="-105.230575">
  <ele>1586.09</ele>
  <time>2026-08-28T19:12:41Z</time>
  <course>0.0</course>
  <speed>0.0</speed>
  <fix>3d</fix>
</trkpt>
<trkpt lat="40.072842" lon="-105.230575">
  <ele>1586.09</ele>
  <time>2026-08-28T19:12:41Z</time>
  <course>7.11</course>
  <speed>0.0</speed>
  <fix>3d</fix>
</trkpt>
<trkpt lat="40.072842" lon="-105.230575">
  <ele>1586.09</ele>
  <time>2026-08-28T19:12:41Z</time>
  <course>0.0</course>
  <speed>0.0</speed>
  <fix>3d</fix>
</trkpt>
<trkpt lat="40.072842" lon="-105.230575">
  <ele>1586.09</ele>
  <time>2026-08-28T19:12:41Z</time>
  <course>7.54</course>
  <speed>0.0</speed>
  <fix>3d</fix>
</trkpt>
<trkpt lat="40.072842" lon="-105.230575">
  <ele>1586.09</ele>
  <time>2026-08-28T19:12:41Z</time>
  <course>0.0</course>
  <speed>0.0</speed>
  <fix>3d</fix>
</trkpt>
<trkpt lat="40.072842" lon="-105.230575">
  <ele>1586.09</ele>
  <time>2026-08-28T19:12:41Z</time>
  <course>7.93</course>
  <speed>0.0</speed>
  <fix>3d</fix>
</trkpt>
<trkpt lat="40.072842" lon="-105.230575">
  <ele>1586.09</ele>
  <time>2026-08-28T19:12:41Z</time>
  <course>0.0</course>
  <speed>0.0</speed>
  <fix>3d</fix>
</trkpt>
<trkpt lat="40.072842" lon="-105.230575">
  <ele>1586.09</ele>
  <time>2026-08-28T19:12:41Z</time>
  <course>8.29</course>
  <speed>0.0</speed>
  <fix>3d</fix>
</trkpt>
<trkpt lat="40.072842" lon="-105.230575">
  <ele>1586.09</ele>
  <time>2026-08-28T19:12:41Z</time>
  <course>0.0</course>
  <speed>0.0</speed>
  <fix>3d</fix>
</trkpt>
<trkpt lat="40.072842" lon="-105.230575">
  <ele>1586.09</ele>
  <time>2026-08-28T19:12:41Z</time>
  <course>8.63</course>
  <speed>0.0</speed>
  <fix>3d</fix>
</trkpt>
<trkpt lat="40.072842" lon="-105.230575">
  <ele>1586.09</ele>
  <time>2026-08-28T19:12:41Z</time>
  <course>0.0</course>
  <speed>0.0</speed>
  <fix>3d</fix>
</trkpt>
<trkpt lat="40.072842" lon="-105.230575">
  <ele>1586.09</ele>
  <time>2026-08-28T19:12:41Z</time>
  <course>8.94</course>
  <speed>0.0</speed>
  <fix>3d</fix>
</trkpt>
<trkpt lat="40.072842" lon="-105.230575">
  <ele>1586.09</ele>
  <time>2026-08-28T19:12:41Z</time>
  <course>0.0</course>
  <speed>0.0</speed>
  <fix>3d</fix>
</trkpt>
<trkpt lat="40.072842" lon="-105.230575">
  <ele>1586.09</ele>
  <time>2026-08-28T19:12:41Z</time>
  <course>9.23</course>
  <speed>0.0</speed>
  <fix>3d</fix>
</trkpt>
<trkpt lat="40.072842" lon="-105.230575">
  <ele>1586.09</ele>
  <time>2026-08-28T19:12:41Z</time>
  <course>0.0</course>
  <speed>0.0</speed>
  <fix>3d</fix>
</trkpt>
<trkpt lat="40.072842" lon="-105.230575">
  <ele>1586.09</ele>
  <time>2026-08-28T19:12:41Z</time>
  <course>9.49</course>
  <speed>0.0</speed>
  <fix>3d</fix>
</trkpt>
<trkpt lat="40.072842" lon="-105.230575">
  <ele>1586.09</ele>
  <time>2026-08-28T19:12:41Z</time>
  <course>0.0</course>
  <speed>0.0</speed>
  <fix>3d</fix>
</trkpt>
<trkpt lat="40.072842" lon="-105.230575">
  <ele>1586.09</ele>
  <time>2026-08-28T19:12:41Z</time>
  <course>9.73</course>
  <speed>0.0</speed>
  <fix>3d</fix>
</trkpt>
<trkpt lat="40.072842" lon="-105.230575">
  <ele>1586.09</ele>
  <time>2026-08-28T19:12:41Z</time>
  <course>0.0</course>
  <speed>0.0</speed>
  <fix>3d</fix>
</trkpt>
<trkpt lat="40.072842" lon="-105.230575">
  <ele>1586.09</ele>
  <time>2026-08-28T19:12:41Z</time>
  <course>9.96</course>
  <speed>0.0</speed>
  <fix>3d</fix>
</trkpt>
<trkpt lat="40.072842" lon="-105.230575">
  <ele>1586.09</ele>
  <time>2026-08-28T19:12:41Z</time>
  <course>0.0</course>
  <speed>0.0</speed>
  <fix>3d</fix>
</trkpt>
<trkpt lat="40.072842" lon="-105.230575">
  <ele>1586.09</ele>
  <time>2026-08-28T19:12:41Z</time>
  <course>10.16</course>
  <speed>0.0</speed>
  <fix>3d</fix>
</trkpt>
<trkpt lat="40.072842" lon="-105.230575">
  <ele>1586.09</ele>
  <time>2026-08-28T19:12:41Z</time>
  <course>0.0</course>
  <speed>0.0</speed>
  <fix>3d</fix>
</trkpt>
<trkpt lat="40.072842" lon="-105.230575">
  <ele>1586.09</ele>
  <time>2026-08-28T19:12:41Z</time>
  <course>10.35</course>
  <speed>0.0</speed>
  <fix>3d</fix>
</trkpt>
<trkpt lat="40.072842" lon="-105.230575">
  <ele>1586.09</ele>
  <time>2026-08-28T19:12:41Z</time>
  <course>0.0</course>
  <speed>0.0</speed>
  <fix>3d</fix>
</trkpt>
<trkpt lat="40.072842" lon="-105.230575">
  <ele>1586.09</ele>
  <time>2026-08-28T19:12:41Z</time>
  <course>10.52</course>
  <speed>0.0</speed>
  <fix>3d</fix>
</trkpt>
<trkpt lat="40.072842" lon="-105.230575">
  <ele>1586.09</ele>
  <time>2026-08-28T19:12:41Z</time>
  <course>0.0</course>
  <speed>0.0</speed>
  <fix>3d</fix>
</trkpt>
<trkpt lat="40.072842" lon="-105.230575">
  <ele>1586.09</ele>
  <time>2026-08-28T19:12:41Z</time>
  <course>10.67</course>
  <speed>0.0</speed>
  <fix>3d</fix>
</trkpt>
<trkpt lat="40.072842" lon="-105.230575">
  <ele>1586.09</ele>
  <time>2026-08-28T19:12:41Z</time>
  <course>0.0</course>
  <speed>0.0</speed>
  <fix>3d</fix>
</trkpt>
<trkpt lat="40.072842" lon="-105.230575">
  <ele>1586.09</ele>
  <time>2026-08-28T19:12:41Z</time>
  <course>10.82</course>
  <speed>0.0</speed>
  <fix>3d</fix>
</trkpt>
<trkpt lat="40.072842" lon="-105.230575">
  <ele>1586.09</ele>
  <time>2026-08-28T19:12:41Z</time>
  <course>0.0</course>
  <speed>0.0</speed>
  <fix>3d</fix>
</trkpt>
<trkpt lat="40.072842" lon="-105.230575">
  <ele>1586.09</ele>
  <time>2026-08-28T19:12:41Z</time>
  <course>10.95</course>
  <speed>0.0</speed>
  <fix>3d</fix>
</trkpt>
<trkpt lat="40.072842" lon="-105.230575">
  <ele>1586.09</ele>
  <time>2026-08-28T19:12:41Z</time>
  <course>0.0</course>
  <speed>0.0</speed>
  <fix>3d</fix>
</trkpt>
<trkpt lat="40.072842" lon="-105.230575">
  <ele>1586.09</ele>
  <time>2026-08-28T19:12:41Z</time>
  <course>11.07</course>
  <speed>0.0</speed>
  <fix>3d</fix>
</trkpt>
<trkpt lat="40.072842" lon="-105.230575">
  <ele>1586.09</ele>
  <time>2026-08-28T19:12:41Z</time>
  <course>0.0</course>
  <speed>0.0</speed>
  <fix>3d</fix>
</trkpt>
<trkpt lat="40.072842" lon="-105.230575">
  <ele>1586.09</ele>
  <time>2026-08-28T19:12:41Z</time>
  <course>11.18</course>
  <speed>0.0</speed>
  <fix>3d</fix>
</trkpt>
<trkpt lat="40.072842" lon="-105.230575">
  <ele>1586.09</ele>
  <time>2026-08-28T19:12:41Z</time>
  <course>0.0</course>
  <speed>0.0</speed>
  <fix>3d</fix>
</trkpt>
<trkpt lat="40.072842" lon="-105.230575">
  <ele>1586.09</ele>
  <time>2026-08-28T19:12:41Z</time>
  <course>11.28</course>
  <speed>0.0</speed>
  <fix>3d</fix>
</trkpt>
<trkpt lat="40.072842" lon="-105.230575">
  <ele>1586.09</ele>
  <time>2026-08-28T19:12:41Z</time>
  <course>0.0</course>
  <speed>0.0</speed>
  <fix>3d</fix>
</trkpt>
<trkpt lat="40.072842" lon="-105.230575">
  <ele>1586.09</ele>
  <time>2026-08-28T19:12:41Z</time>
  <course>11.37</course>
  <speed>0.0</speed>
  <fix>3d</fix>
</trkpt>
<trkpt lat="40.072842" lon="-105.230575">
  <ele>1586.09</ele>
  <time>2026-08-28T19:12:41Z</time>
  <course>0.0</course>
  <speed>0.0</speed>
  <fix>3d</fix>
</trkpt>
<trkpt lat="40.072842" lon="-105.230575">
  <ele>1586.09</ele>
  <time>2026-08-28T19:12:41Z</time>
  <course>11.45</course>
  <speed>0.0</speed>
  <fix>3d</fix>
</trkpt>
<trkpt lat="40.072842" lon="-105.230575">
  <ele>1586.09</ele>
  <time>2026-08-28T19:12:41Z</time>
  <course>0.0</course>
  <speed>0.0</speed>
  <fix>3d</fix>
</trkpt>
<trkpt lat="40.072842" lon="-105.230575">
  <ele>1586.09</ele>
  <time>2026-08-28T19:12:41Z</time>
  <course>11.53</course>
  <speed>0.0</speed>
  <fix>3d</fix>
</trkpt>
<trkpt lat="40.072842" lon="-105.230575">
  <ele>1586.09</ele>
  <time>2026-08-28T19:12:41Z</time>
  <course>0.0</course>
  <speed>0.0</speed>
  <fix>3d</fix>
</trkpt>
<trkpt lat="40.072842" lon="-105.230575">
  <ele>1586.09</ele>
  <time>2026-08-28T19:12:41Z</time>
  <course>11.59</course>
  <speed>0.0</speed>
  <fix>3d</fix>
</trkpt>
<trkpt lat="40.072842" lon="-105.230575">
  <ele>1586.09</ele>
  <time>2026-08-28T19:12:41Z</time>
  <course>0.0</course>
  <speed>0.0</speed>
  <fix>3d</fix>
</trkpt>
<trkpt lat="40.072842" lon="-105.230575">
  <ele>1586.09</ele>
  <time>2026-08-28T19:12:41Z</time>
  <course>11.65</course>
  <speed>0.0</speed>
  <fix>3d</fix>
</trkpt>
<trkpt lat="40.072842" lon="-105.230575">
  <ele>1586.09</ele>
  <time>2026-08-28T19:12:41Z</time>
  <course>0.0</course>
  <speed>0.0</speed>
  <fix>3d</fix>
</trkpt>
<trkpt lat="40.072842" lon="-105.230575">
  <ele>1586.09</ele>
  <time>2026-08-28T19:12:41Z</time>
  <course>11.71</course>
  <speed>0.0</speed>
  <fix>3d</fix>
</trkpt>
<trkpt lat="40.072842" lon="-105.230575">
  <ele>1586.09</ele>
  <time>2026-08-28T19:12:41Z</time>
  <course>0.0</course>
  <speed>0.0</speed>
  <fix>3d</fix>
</trkpt>
<trkpt lat="40.072842" lon="-105.230575">
  <ele>1586.09</ele>
  <time>2026-08-28T19:12:41Z</time>
  <course>11.77</course>
  <speed>0.0</speed>
  <fix>3d</fix>
</trkpt>
<trkpt lat="40.072842" lon="-105.230575">
  <ele>1586.09</ele>
  <time>2026-08-28T19:12:41Z</time>
  <course>0.0</course>
  <speed>0.0</speed>
  <fix>3d</fix>
</trkpt>
<trkpt lat="40.072842" lon="-105.230575">
  <ele>1586.09</ele>
  <time>2026-08-28T19:12:41Z</time>
  <course>11.81</course>
  <speed>0.0</speed>
  <fix>3d</fix>
</trkpt>
<trkpt lat="40.072842" lon="-105.230575">
  <ele>1586.09</ele>
  <time>2026-08-28T19:12:41Z</time>
  <course>0.0</course>
  <speed>0.0</speed>
  <fix>3d</fix>
</trkpt>
<trkpt lat="40.072842" lon="-105.230575">
  <ele>1586.09</ele>
  <time>2026-08-28T19:12:41Z</time>
  <course>11.85</course>
  <speed>0.0</speed>
  <fix>3d</fix>
</trkpt>
<trkpt lat="40.072842" lon="-105.230575">
  <ele>1586.09</ele>
  <time>2026-08-28T19:12:41Z</time>
  <course>0.0</course>
  <speed>0.0</speed>
  <fix>3d</fix>
</trkpt>
<trkpt lat="40.072842" lon="-105.230575">
  <ele>1586.09</ele>
  <time>2026-08-28T19:12:41Z</time>
  <course>11.89</course>
  <speed>0.0</speed>
  <fix>3d</fix>
</trkpt>
<trkpt lat="40.072842" lon="-105.230575">
  <ele>1586.09</ele>
  <time>2026-08-28T19:12:41Z</time>
  <course>0.0</course>
  <speed>0.0</speed>
  <fix>3d</fix>
</trkpt>
<trkpt lat="40.072842" lon="-105.230575">
  <ele>1586.09</ele>
  <time>2026-08-28T19:12:41Z</time>
  <course>11.92</course>
  <speed>0.0</speed>
  <fix>3d</fix>
</trkpt>
<trkpt lat="40.072842" lon="-105.230575">
  <ele>1586.09</ele>
  <time>2026-08-28T19:12:41Z</time>
  <course>0.0</course>
  <speed>0.0</speed>
  <fix>3d</fix>
</trkpt>
<trkpt lat="40.072842" lon="-105.230575">
  <ele>1586.09</ele>
  <time>2026-08-28T19:12:41Z</time>
  <course>11.95</course>
  <speed>0.0</speed>
  <fix>3d</fix>
</trkpt>
<trkpt lat="40.072842" lon="-105.230575">
  <ele>1586.09</ele>
  <time>2026-08-28T19:12:41Z</time>
  <course>0.0</course>
  <speed>0.0</speed>
  <fix>3d</fix>
</trkpt>
<trkpt lat="40.072842" lon="-105.230575">
  <ele>1586.09</ele>
  <time>2026-08-28T19:12:41Z</time>
  <course>11.98</course>
  <speed>0.0</speed>
  <fix>3d</fix>
</trkpt>
<trkpt lat="40.072842" lon="-105.230575">
  <ele>1586.09</ele>
  <time>2026-08-28T19:12:41Z</time>
  <course>0.0</course>
  <speed>0.0</speed>
  <fix>3d</fix>
</trkpt>
<trkpt lat="40.072842" lon="-105.230575">
  <ele>1586.09</ele>
  <time>2026-08-28T19:12:41Z</time>
  <course>12.0</course>
  <speed>0.0</speed>
  <fix>3d</fix>
</trkpt>
<trkpt lat="40.072842" lon="-105.230575">
  <ele>1586.09</ele>
  <time>2026-08-28T19:12:41Z</time>
  <course>0.0</course>
  <speed>0.0</speed>
  <fix>3d</fix>
</trkpt>
<trkpt lat="40.072842" lon="-105.230575">
  <ele>1586.09</ele>
  <time>2026-08-28T19:12:41Z</time>
  <course>12.02</course>
  <speed>0.0</speed>
  <fix>3d</fix>
</trkpt>
<trkpt lat="40.072842" lon="-105.230575">
  <ele>1586.09</ele>
  <time>2026-08-28T19:12:41Z</time>
  <course>0.0</course>
  <speed>0.0</speed>
  <fix>3d</fix>
</trkpt>
<trkpt lat="40.072842" lon="-105.230575">
  <ele>1586.09</ele>
  <time>2026-08-28T19:12:41Z</time>
  <course>12.04</course>
  <speed>0.0</speed>
  <fix>3d</fix>
</trkpt>
<trkpt lat="40.072842" lon="-105.230575">
  <ele>1586.09</ele>
  <time>2026-08-28T19:12:41Z</time>
  <course>0.0</course>
  <speed>0.0</speed>
  <fix>3d</fix>
</trkpt>
<trkpt lat="40.072842" lon="-105.230575">
  <ele>1586.09</ele>
  <time>2026-08-28T19:12:41Z</time>
  <course>12.05</course>
  <speed>0.0</speed>
  <fix>3d</fix>
</trkpt>
<trkpt lat="40.072842" lon="-105.230575">
  <ele>1586.09</ele>
  <time>2026-08-28T19:12:41Z</time>
  <course>0.0</course>
  <speed>0.0</speed>
  <fix>3d</fix>
</trkpt>
<trkpt lat="40.072842" lon="-105.230575">
  <ele>1586.09</ele>
  <time>2026-08-28T19:12:41Z</time>
  <course>12.07</course>
  <speed>0.0</speed>
  <fix>3d</fix>
</trkpt>
<trkpt lat="40.072842" lon="-105.230575">
  <ele>1586.09</ele>
  <time>2026-08-28T19:12:41Z</time>
  <course>0.0</course>
  <speed>0.0</speed>
  <fix>3d</fix>
</trkpt>
<trkpt lat="40.072842" lon="-105.230575">
  <ele>1586.09</ele>
  <time>2026-08-28T19:12:41Z</time>
  <course>12.08</course>
  <speed>0.0</speed>
  <fix>3d</fix>
</trkpt>
<trkpt lat="40.072842" lon="-105.230575">
  <ele>1586.09</ele>
  <time>2026-08-28T19:12:41Z</time>
  <course>0.0</course>
  <speed>0.0</speed>
  <fix>3d</fix>
</trkpt>
<trkpt lat="40.072842" lon="-105.230575">
  <ele>1586.09</ele>
  <time>2026-08-28T19:12:41Z</time>
  <course>12.09</course>
  <speed>0.0</speed>
  <fix>3d</fix>
</trkpt>
<trkpt lat="40.072842" lon="-105.230575">
  <ele>1586.09</ele>
  <time>2026-08-28T19:12:41Z</time>
  <course>0.0</course>
  <speed>0.0</speed>
  <fix>3d</fix>
</trkpt>
<trkpt lat="40.072842" lon="-105.230575">
  <ele>1586.09</ele>
  <time>2026-08-28T19:12:41Z</time>
  <course>12.1</course>
  <speed>0.0</speed>
  <fix>3d</fix>
</trkpt>
<trkpt lat="40.072842" lon="-105.230575">
  <ele>1586.09</ele>
  <time>2026-08-28T19:12:41Z</time>
  <course>0.0</course>
  <speed>0.0</speed>
  <fix>3d</fix>
</trkpt>
<trkpt lat="40.072842" lon="-105.230575">
  <ele>1586.09</ele>
  <time>2026-08-28T19:12:41Z</time>
  <course>12.1</course>
  <speed>0.0</speed>
  <fix>3d</fix>
</trkpt>
<trkpt lat="40.072842" lon="-105.230575">
  <ele>1586.09</ele>
  <time>2026-08-28T19:12:41Z</time>
  <course>0.0</course>
  <speed>0.0</speed>
  <fix>3d</fix>
</trkpt>
<trkpt lat="40.072842" lon="-105.230575">
  <ele>1586.09</ele>
  <time>2026-08-28T19:12:41Z</time>
  <course>12.11</course>
  <speed>0.0</speed>
  <fix>3d</fix>
</trkpt>
<trkpt lat="40.072842" lon="-105.230575">
  <ele>1586.09</ele>
  <time>2026-08-28T19:12:41Z</time>
  <course>0.0</course>
  <speed>0.0</speed>
  <fix>3d</fix>
</trkpt>
<trkpt lat="40.072842" lon="-105.230575">
  <ele>1586.09</ele>
  <time>2026-08-28T19:12:41Z</time>
  <course>12.11</course>
  <speed>0.0</speed>
  <fix>3d</fix>
</trkpt>
<trkpt lat="40.072842" lon="-105.230575">
  <ele>1586.09</ele>
  <time>2026-08-28T19:12:41Z</time>
  <course>0.0</course>
  <speed>0.0</speed>
  <fix>3d</fix>
</trkpt>
<trkpt lat="40.072842" lon="-105.230575">
  <ele>1586.09</ele>
  <time>2026-08-28T19:12:41Z</time>
  <course>12.12</course>
  <speed>0.0</speed>
  <fix>3d</fix>
</trkpt>
<trkpt lat="40.072842" lon="-105.230575">
  <ele>1586.09</ele>
  <time>2026-08-28T19:12:41Z</time>
  <course>0.0</course>
  <speed>0.0</speed>
  <fix>3d</fix>
</trkpt>
<trkpt lat="40.072842" lon="-105.230575">
  <ele>1586.09</ele>
  <time>2026-08-28T19:12:41Z</time>
  <course>12.12</course>
  <speed>0.0</speed>
  <fix>3d</fix>
</trkpt>
<trkpt lat="40.072842" lon="-105.230575">
  <ele>1586.09</ele>
  <time>2026-08-28T19:12:41Z</time>
  <course>0.0</course>
  <speed>0.0</speed>
  <fix>3d</fix>
</trkpt>
<trkpt lat="40.072842" lon="-105.230575">
  <ele>1586.09</ele>
  <time>2026-08-28T19:12:41Z</time>
  <course>12.12</course>
  <speed>0.0</speed>
  <fix>3d</fix>
</trkpt>
<trkpt lat="40.072842" lon="-105.230575">
  <ele>1586.09</ele>
  <time>2026-08-28T19:12:41Z</time>
  <course>0.0</course>
  <speed>0.0</speed>
  <fix>3d</fix>
</trkpt>
<trkpt lat="40.072842" lon="-105.230575">
  <ele>1586.09</ele>
  <time>2026-08-28T19:12:42Z</time>
  <course>12.12</course>
  <speed>0.0</speed>
  <fix>3d</fix>
</trkpt>
<trkpt lat="40.072842" lon="-105.230575">
  <ele>1586.09</ele>
  <time>2026-08-28T19:12:42Z</time>
  <course>0.0</course>
  <speed>0.0</speed>
  <fix>3d</fix>
</trkpt>
<trkpt lat="40.072842" lon="-105.230575">
  <ele>1586.09</ele>
  <time>2026-08-28T19:12:42Z</time>
  <course>12.12</course>
  <speed>0.0</speed>
  <fix>3d</fix>
</trkpt>
<trkpt lat="40.072842" lon="-105.230575">
  <ele>1586.09</ele>
  <time>2026-08-28T19:12:42Z</time>
  <course>0.0</course>
  <speed>0.0</speed>
  <fix>3d</fix>
</trkpt>
<trkpt lat="40.072842" lon="-105.230575">
  <ele>1586.09</ele>
  <time>2026-08-28T19:12:42Z</time>
  <course>12.12</course>
  <speed>0.01</speed>
  <fix>3d</fix>
</trkpt>
<trkpt lat="40.072842" lon="-105.230575">
  <ele>1586.09</ele>
  <time>2026-08-28T19:12:42Z</time>
  <course>0.0</course>
  <speed>0.0</speed>
  <fix>3d</fix>
</trkpt>
<trkpt lat="40.072842" lon="-105.230575">
  <ele>1586.09</ele>
  <time>2026-08-28T19:12:42Z</time>
  <course>12.12</course>
  <speed>0.01</speed>
  <fix>3d</fix>
</trkpt>
<trkpt lat="40.072842" lon="-105.230575">
  <ele>1586.09</ele>
  <time>2026-08-28T19:12:42Z</time>
  <course>0.0</course>
  <speed>0.0</speed>
  <fix>3d</fix>
</trkpt>
<trkpt lat="40.072842" lon="-105.230575">
  <ele>1586.09</ele>
  <time>2026-08-28T19:12:42Z</time>
  <course>12.12</course>
  <speed>0.01</speed>
  <fix>3d</fix>
</trkpt>
<trkpt lat="40.072842" lon="-105.230575">
  <ele>1586.09</ele>
  <time>2026-08-28T19:12:42Z</time>
  <course>0.0</course>
  <speed>0.0</speed>
  <fix>3d</fix>
</trkpt>
<trkpt lat="40.072842" lon="-105.230575">
  <ele>1586.09</ele>
  <time>2026-08-28T19:12:42Z</time>
  <course>12.11</course>
  <speed>0.01</speed>
  <fix>3d</fix>
</trkpt>
<trkpt lat="40.072842" lon="-105.230575">
  <ele>1586.09</ele>
  <time>2026-08-28T19:12:42Z</time>
  <course>0.0</course>
  <speed>0.0</speed>
  <fix>3d</fix>
</trkpt>
<trkpt lat="40.072842" lon="-105.230575">
  <ele>1586.09</ele>
  <time>2026-08-28T19:12:42Z</time>
  <course>12.11</course>
  <speed>0.01</speed>
  <fix>3d</fix>
</trkpt>
<trkpt lat="40.072842" lon="-105.230575">
  <ele>1586.09</ele>
  <time>2026-08-28T19:12:42Z</time>
  <course>0.0</course>
  <speed>0.0</speed>
  <fix>3d</fix>
</trkpt>
<trkpt lat="40.072842" lon="-105.230575">
  <ele>1586.09</ele>
  <time>2026-08-28T19:12:42Z</time>
  <course>12.11</course>
  <speed>0.01</speed>
  <fix>3d</fix>
</trkpt>
<trkpt lat="40.072842" lon="-105.230575">
  <ele>1586.09</ele>
  <time>2026-08-28T19:12:42Z</time>
  <course>0.0</course>
  <speed>0.0</speed>
  <fix>3d</fix>
</trkpt>
<trkpt lat="40.072842" lon="-105.230575">
  <ele>1586.09</ele>
  <time>2026-08-28T19:12:42Z</time>
  <course>12.1</course>
  <speed>0.01</speed>
  <fix>3d</fix>
</trkpt>
<trkpt lat="40.072842" lon="-105.230575">
  <ele>1586.09</ele>
  <time>2026-08-28T19:12:42Z</time>
  <course>0.0</course>
  <speed>0.0</speed>
  <fix>3d</fix>
</trkpt>
<trkpt lat="40.072842" lon="-105.230575">
  <ele>1586.09</ele>
  <time>2026-08-28T19:12:42Z</time>
  <course>12.1</course>
  <speed>0.01</speed>
  <fix>3d</fix>
</trkpt>
<trkpt lat="40.072842" lon="-105.230575">
  <ele>1586.09</ele>
  <time>2026-08-28T19:12:42Z</time>
  <course>0.0</course>
  <speed>0.0</speed>
  <fix>3d</fix>
</trkpt>
<trkpt lat="40.072842" lon="-105.230575">
  <ele>1586.09</ele>
  <time>2026-08-28T19:12:42Z</time>
  <course>12.09</course>
  <speed>0.01</speed>
  <fix>3d</fix>
</trkpt>
<trkpt lat="40.072842" lon="-105.230575">
  <ele>1586.09</ele>
  <time>2026-08-28T19:12:42Z</time>
  <course>0.0</course>
  <speed>0.0</speed>
  <fix>3d</fix>
</trkpt>
<trkpt lat="40.072842" lon="-105.230575">
  <ele>1586.09</ele>
  <time>2026-08-28T19:12:42Z</time>
  <course>12.09</course>
  <speed>0.01</speed>
  <fix>3d</fix>
</trkpt>
<trkpt lat="40.072842" lon="-105.230575">
  <ele>1586.09</ele>
  <time>2026-08-28T19:12:42Z</time>
  <course>0.0</course>
  <speed>0.0</speed>
  <fix>3d</fix>
</trkpt>
<trkpt lat="40.072842" lon="-105.230575">
  <ele>1586.09</ele>
  <time>2026-08-28T19:12:42Z</time>
  <course>12.08</course>
  <speed>0.01414213562373095</speed>
  <fix>3d</fix>
</trkpt>
<trkpt lat="40.072842" lon="-105.230575">
  <ele>1586.09</ele>
  <time>2026-08-28T19:12:42Z</time>
  <course>0.0</course>
  <speed>0.0</speed>
  <fix>3d</fix>
</trkpt>
<trkpt lat="40.072842" lon="-105.230575">
  <ele>1586.09</ele>
  <time>2026-08-28T19:12:42Z</time>
  <course>12.07</course>
  <speed>0.01414213562373095</speed>
  <fix>3d</fix>
</trkpt>
<trkpt lat="40.072842" lon="-105.230575">
  <ele>1586.09</ele>
  <time>2026-08-28T19:12:42Z</time>
  <course>0.0</course>
  <speed>0.0</speed>
  <fix>3d</fix>
</trkpt>
<trkpt lat="40.072842" lon="-105.230575">
  <ele>1586.09</ele>
  <time>2026-08-28T19:12:42Z</time>
  <course>12.07</course>
  <speed>0.01414213562373095</speed>
  <fix>3d</fix>
</trkpt>
<trkpt lat="40.072842" lon="-105.230575">
  <ele>1586.09</ele>
  <time>2026-08-28T19:12:42Z</time>
  <course>0.0</course>
  <speed>0.0</speed>
  <fix>3d</fix>
</trkpt>
<trkpt lat="40.072842" lon="-105.230575">
  <ele>1586.09</ele>
  <time>2026-08-28T19:12:42Z</time>
  <course>12.06</course>
  <speed>0.01414213562373095</speed>
  <fix>3d</fix>
</trkpt>
<trkpt lat="40.072842" lon="-105.230575">
  <ele>1586.09</ele>
  <time>2026-08-28T19:12:42Z</time>
  <course>0.0</course>
  <speed>0.0</speed>
  <fix>3d</fix>
</trkpt>
<trkpt lat="40.072842" lon="-105.230575">
  <ele>1586.09</ele>
  <time>2026-08-28T19:12:42Z</time>
  <course>12.05</course>
  <speed>0.01414213562373095</speed>
  <fix>3d</fix>
</trkpt>
<trkpt lat="40.072842" lon="-105.230575">
  <ele>1586.09</ele>
  <time>2026-08-28T19:12:42Z</time>
  <course>0.0</course>
  <speed>0.0</speed>
  <fix>3d</fix>
</trkpt>
<trkpt lat="40.072842" lon="-105.230575">
  <ele>1586.09</ele>
  <time>2026-08-28T19:12:42Z</time>
  <course>12.05</course>
  <speed>0.01414213562373095</speed>
  <fix>3d</fix>
</trkpt>
<trkpt lat="40.072842" lon="-105.230575">
  <ele>1586.09</ele>
  <time>2026-08-28T19:12:42Z</time>
  <course>0.0</course>
  <speed>0.0</speed>
  <fix>3d</fix>
</trkpt>
<trkpt lat="40.072842" lon="-105.230575">
  <ele>1586.09</ele>
  <time>2026-08-28T19:12:42Z</time>
  <course>12.04</course>
  <speed>0.01414213562373095</speed>
  <fix>3d</fix>
</trkpt>
<trkpt lat="40.072842" lon="-105.230575">
  <ele>1586.09</ele>
  <time>2026-08-28T19:12:42Z</time>
  <course>0.0</course>
  <speed>0.0</speed>
  <fix>3d</fix>
</trkpt>
<trkpt lat="40.072842" lon="-105.230575">
  <ele>1586.09</ele>
  <time>2026-08-28T19:12:42Z</time>
  <course>12.03</course>
  <speed>0.01414213562373095</speed>
  <fix>3d</fix>
</trkpt>
<trkpt lat="40.072842" lon="-105.230575">
  <ele>1586.09</ele>
  <time>2026-08-28T19:12:42Z</time>
  <course>0.0</course>
  <speed>0.0</speed>
  <fix>3d</fix>
</trkpt>
<trkpt lat="40.072842" lon="-105.230575">
  <ele>1586.09</ele>
  <time>2026-08-28T19:12:42Z</time>
  <course>12.02</course>
  <speed>0.01414213562373095</speed>
  <fix>3d</fix>
</trkpt>
<trkpt lat="40.072842" lon="-105.230575">
  <ele>1586.09</ele>
  <time>2026-08-28T19:12:42Z</time>
  <course>0.0</course>
  <speed>0.0</speed>
  <fix>3d</fix>
</trkpt>
<trkpt lat="40.072842" lon="-105.230575">
  <ele>1586.09</ele>
  <time>2026-08-28T19:12:42Z</time>
  <course>12.02</course>
  <speed>0.01414213562373095</speed>
  <fix>3d</fix>
</trkpt>
<trkpt lat="40.072842" lon="-105.230575">
  <ele>1586.09</ele>
  <time>2026-08-28T19:12:42Z</time>
  <course>0.0</course>
  <speed>0.0</speed>
  <fix>3d</fix>
</trkpt>
<trkpt lat="40.072842" lon="-105.230575">
  <ele>1586.09</ele>
  <time>2026-08-28T19:12:42Z</time>
  <course>12.01</course>
  <speed>0.01414213562373095</speed>
  <fix>3d</fix>
</trkpt>
<trkpt lat="40.072842" lon="-105.230575">
  <ele>1586.09</ele>
  <time>2026-08-28T19:12:42Z</time>
  <course>0.0</course>
  <speed>0.0</speed>
  <fix>3d</fix>
</trkpt>
<trkpt lat="40.072842" lon="-105.230575">
  <ele>1586.09</ele>
  <time>2026-08-28T19:12:42Z</time>
  <course>12.0</course>
  <speed>0.01414213562373095</speed>
  <fix>3d</fix>
</trkpt>
<trkpt lat="40.072842" lon="-105.230575">
  <ele>1586.09</ele>
  <time>2026-08-28T19:12:42Z</time>
  <course>0.0</course>
  <speed>0.0</speed>
  <fix>3d</fix>
</trkpt>
<trkpt lat="40.072842" lon="-105.230575">
  <ele>1586.09</ele>
  <time>2026-08-28T19:12:42Z</time>
  <course>11.99</course>
  <speed>0.01414213562373095</speed>
  <fix>3d</fix>
</trkpt>
<trkpt lat="40.072842" lon="-105.230575">
  <ele>1586.09</ele>
  <time>2026-08-28T19:12:42Z</time>
  <course>0.0</course>
  <speed>0.0</speed>
  <fix>3d</fix>
</trkpt>
<trkpt lat="40.072842" lon="-105.230575">
  <ele>1586.09</ele>
  <time>2026-08-28T19:12:42Z</time>
  <course>11.99</course>
  <speed>0.01414213562373095</speed>
  <fix>3d</fix>
</trkpt>
<trkpt lat="40.072842" lon="-105.230575">
  <ele>1586.09</ele>
  <time>2026-08-28T19:12:42Z</time>
  <course>0.0</course>
  <speed>0.0</speed>
  <fix>3d</fix>
</trkpt>
<trkpt lat="40.072842" lon="-105.230575">
  <ele>1586.09</ele>
  <time>2026-08-28T19:12:42Z</time>
  <course>11.98</course>
  <speed>0.01414213562373095</speed>
  <fix>3d</fix>
</trkpt>
<trkpt lat="40.072842" lon="-105.230575">
  <ele>1586.09</ele>
  <time>2026-08-28T19:12:42Z</time>
  <course>0.0</course>
  <speed>0.0</speed>
  <fix>3d</fix>
</trkpt>
<trkpt lat="40.072842" lon="-105.230575">
  <ele>1586.09</ele>
  <time>2026-08-28T19:12:42Z</time>
  <course>11.97</course>
  <speed>0.01414213562373095</speed>
  <fix>3d</fix>
</trkpt>
<trkpt lat="40.072842" lon="-105.230575">
  <ele>1586.09</ele>
  <time>2026-08-28T19:12:42Z</time>
  <course>0.0</course>
  <speed>0.0</speed>
  <fix>3d</fix>
</trkpt>
<trkpt lat="40.072842" lon="-105.230575">
  <ele>1586.09</ele>
  <time>2026-08-28T19:12:42Z</time>
  <course>11.96</course>
  <speed>0.01414213562373095</speed>
  <fix>3d</fix>
</trkpt>
<trkpt lat="40.072842" lon="-105.230575">
  <ele>1586.09</ele>
  <time>2026-08-28T19:12:42Z</time>
  <course>0.0</course>
  <speed>0.0</speed>
  <fix>3d</fix>
</trkpt>
<trkpt lat="40.072842" lon="-105.230575">
  <ele>1586.09</ele>
  <time>2026-08-28T19:12:42Z</time>
  <course>11.95</course>
  <speed>0.022360679774997897</speed>
  <fix>3d</fix>
</trkpt>
<trkpt lat="40.072842" lon="-105.230575">
  <ele>1586.09</ele>
  <time>2026-08-28T19:12:42Z</time>
  <course>0.0</course>
  <speed>0.0</speed>
  <fix>3d</fix>
</trkpt>
<trkpt lat="40.072842" lon="-105.230575">
  <ele>1586.09</ele>
  <time>2026-08-28T19:12:42Z</time>
  <course>11.95</course>
  <speed>0.022360679774997897</speed>
  <fix>3d</fix>
</trkpt>
<trkpt lat="40.072842" lon="-105.230575">
  <ele>1586.09</ele>
  <time>2026-08-28T19:12:42Z</time>
  <course>0.0</course>
  <speed>0.0</speed>
  <fix>3d</fix>
</trkpt>
<trkpt lat="40.072842" lon="-105.230575">
  <ele>1586.09</ele>
  <time>2026-08-28T19:12:42Z</time>
  <course>11.94</course>
  <speed>0.022360679774997897</speed>
  <fix>3d</fix>
</trkpt>
<trkpt lat="40.072842" lon="-105.230575">
  <ele>1586.09</ele>
  <time>2026-08-28T19:12:42Z</time>
  <course>0.0</course>
  <speed>0.0</speed>
  <fix>3d</fix>
</trkpt>
<trkpt lat="40.072842" lon="-105.230575">
  <ele>1586.09</ele>
  <time>2026-08-28T19:12:42Z</time>
  <course>11.93</course>
  <speed>0.022360679774997897</speed>
  <fix>3d</fix>
</trkpt>
<trkpt lat="40.072842" lon="-105.230575">
  <ele>1586.09</ele>
  <time>2026-08-28T19:12:42Z</time>
  <course>0.0</course>
  <speed>0.0</speed>
  <fix>3d</fix>
</trkpt>
<trkpt lat="40.072842" lon="-105.230575">
  <ele>1586.09</ele>
  <time>2026-08-28T19:12:42Z</time>
  <course>11.92</course>
  <speed>0.022360679774997897</speed>
  <fix>3d</fix>
</trkpt>
<trkpt lat="40.072842" lon="-105.230575">
  <ele>1586.09</ele>
  <time>2026-08-28T19:12:42Z</time>
  <course>0.0</course>
  <speed>0.0</speed>
  <fix>3d</fix>
</trkpt>
<trkpt lat="40.072842" lon="-105.230575">
  <ele>1586.09</ele>
  <time>2026-08-28T19:12:42Z</time>
  <course>11.91</course>
  <speed>0.022360679774997897</speed>
  <fix>3d</fix>
</trkpt>
<trkpt lat="40.072842" lon="-105.230575">
  <ele>1586.09</ele>
  <time>2026-08-28T19:12:42Z</time>
  <course>0.0</course>
  <speed>0.0</speed>
  <fix>3d</fix>
</trkpt>
<trkpt lat="40.072842" lon="-105.230575">
  <ele>1586.09</ele>
  <time>2026-08-28T19:12:42Z</time>
  <course>11.91</course>
  <speed>0.022360679774997897</speed>
  <fix>3d</fix>
</trkpt>
<trkpt lat="40.072842" lon="-105.230575">
  <ele>1586.09</ele>
  <time>2026-08-28T19:12:42Z</time>
  <course>0.0</course>
  <speed>0.0</speed>
  <fix>3d</fix>
</trkpt>
<trkpt lat="40.072842" lon="-105.230575">
  <ele>1586.09</ele>
  <time>2026-08-28T19:12:42Z</time>
  <course>11.9</course>
  <speed>0.022360679774997897</speed>
  <fix>3d</fix>
</trkpt>
<trkpt lat="40.072842" lon="-105.230575">
  <ele>1586.09</ele>
  <time>2026-08-28T19:12:42Z</time>
  <course>0.0</course>
  <speed>0.0</speed>
  <fix>3d</fix>
</trkpt>
<trkpt lat="40.072842" lon="-105.230575">
  <ele>1586.09</ele>
  <time>2026-08-28T19:12:42Z</time>
  <course>11.89</course>
  <speed>0.022360679774997897</speed>
  <fix>3d</fix>
</trkpt>
<trkpt lat="40.072842" lon="-105.230575">
  <ele>1586.09</ele>
  <time>2026-08-28T19:12:42Z</time>
  <course>0.0</course>
  <speed>0.0</speed>
  <fix>3d</fix>
</trkpt>
<trkpt lat="40.072842" lon="-105.230575">
  <ele>1586.09</ele>
  <time>2026-08-28T19:12:42Z</time>
  <course>11.88</course>
  <speed>0.022360679774997897</speed>
  <fix>3d</fix>
</trkpt>
<trkpt lat="40.072842" lon="-105.230575">
  <ele>1586.09</ele>
  <time>2026-08-28T19:12:42Z</time>
  <course>0.0</course>
  <speed>0.0</speed>
  <fix>3d</fix>
</trkpt>
<trkpt lat="40.072842" lon="-105.230575">
  <ele>1586.09</ele>
  <time>2026-08-28T19:12:42Z</time>
  <course>11.87</course>
  <speed>0.022360679774997897</speed>
  <fix>3d</fix>
</trkpt>
<trkpt lat="40.072842" lon="-105.230575">
  <ele>1586.09</ele>
  <time>2026-08-28T19:12:42Z</time>
  <course>0.0</course>
  <speed>0.0</speed>
  <fix>3d</fix>
</trkpt>
<trkpt lat="40.072842" lon="-105.230575">
  <ele>1586.09</ele>
  <time>2026-08-28T19:12:42Z</time>
  <course>11.86</course>
  <speed>0.022360679774997897</speed>
  <fix>3d</fix>
</trkpt>
<trkpt lat="40.072842" lon="-105.230575">
  <ele>1586.09</ele>
  <time>2026-08-28T19:12:42Z</time>
  <course>0.0</course>
  <speed>0.0</speed>
  <fix>3d</fix>
</trkpt>
<trkpt lat="40.072842" lon="-105.230575">
  <ele>1586.09</ele>
  <time>2026-08-28T19:12:42Z</time>
  <course>11.86</course>
  <speed>0.022360679774997897</speed>
  <fix>3d</fix>
</trkpt>
<trkpt lat="40.072842" lon="-105.230575">
  <ele>1586.09</ele>
  <time>2026-08-28T19:12:42Z</time>
  <course>0.0</course>
  <speed>0.0</speed>
  <fix>3d</fix>
</trkpt>
<trkpt lat="40.072842" lon="-105.230575">
  <ele>1586.09</ele>
  <time>2026-08-28T19:12:42Z</time>
  <course>11.85</course>
  <speed>0.022360679774997897</speed>
  <fix>3d</fix>
</trkpt>
<trkpt lat="40.072842" lon="-105.230575">
  <ele>1586.09</ele>
  <time>2026-08-28T19:12:42Z</time>
  <course>0.0</course>
  <speed>0.0</speed>
  <fix>3d</fix>
</trkpt>
<trkpt lat="40.072842" lon="-105.230575">
  <ele>1586.09</ele>
  <time>2026-08-28T19:12:42Z</time>
  <course>11.84</course>
  <speed>0.022360679774997897</speed>
  <fix>3d</fix>
</trkpt>
<trkpt lat="40.072842" lon="-105.230575">
  <ele>1586.09</ele>
  <time>2026-08-28T19:12:42Z</time>
  <course>0.0</course>
  <speed>0.0</speed>
  <fix>3d</fix>
</trkpt>
<trkpt lat="40.072842" lon="-105.230575">
  <ele>1586.09</ele>
  <time>2026-08-28T19:12:42Z</time>
  <course>11.83</course>
  <speed>0.022360679774997897</speed>
  <fix>3d</fix>
</trkpt>
<trkpt lat="40.072842" lon="-105.230575">
  <ele>1586.09</ele>
  <time>2026-08-28T19:12:42Z</time>
  <course>0.0</course>
  <speed>0.0</speed>
  <fix>3d</fix>
</trkpt>
<trkpt lat="40.072842" lon="-105.230575">
  <ele>1586.09</ele>
  <time>2026-08-28T19:12:42Z</time>
  <course>11.82</course>
  <speed>0.022360679774997897</speed>
  <fix>3d</fix>
</trkpt>
<trkpt lat="40.072842" lon="-105.230575">
  <ele>1586.09</ele>
  <time>2026-08-28T19:12:42Z</time>
  <course>0.0</course>
  <speed>0.0</speed>
  <fix>3d</fix>
</trkpt>
<trkpt lat="40.072842" lon="-105.230575">
  <ele>1586.09</ele>
  <time>2026-08-28T19:12:42Z</time>
  <course>11.82</course>
  <speed>0.0282842712474619</speed>
  <fix>3d</fix>
</trkpt>
<trkpt lat="40.072842" lon="-105.230575">
  <ele>1586.09</ele>
  <time>2026-08-28T19:12:42Z</time>
  <course>0.0</course>
  <speed>0.0</speed>
  <fix>3d</fix>
</trkpt>
<trkpt lat="40.072842" lon="-105.230575">
  <ele>1586.09</ele>
  <time>2026-08-28T19:12:42Z</time>
  <course>11.81</course>
  <speed>0.0282842712474619</speed>
  <fix>3d</fix>
</trkpt>
<trkpt lat="40.072842" lon="-105.230575">
  <ele>1586.09</ele>
  <time>2026-08-28T19:12:42Z</time>
  <course>0.0</course>
  <speed>0.0</speed>
  <fix>3d</fix>
</trkpt>
<trkpt lat="40.072842" lon="-105.230575">
  <ele>1586.09</ele>
  <time>2026-08-28T19:12:42Z</time>
  <course>11.8</course>
  <speed>0.0282842712474619</speed>
  <fix>3d</fix>
</trkpt>
<trkpt lat="40.072842" lon="-105.230575">
  <ele>1586.09</ele>
  <time>2026-08-28T19:12:42Z</time>
  <course>0.0</course>
  <speed>0.0</speed>
  <fix>3d</fix>
</trkpt>
<trkpt lat="40.072842" lon="-105.230575">
  <ele>1586.09</ele>
  <time>2026-08-28T19:12:42Z</time>
  <course>11.79</course>
  <speed>0.0282842712474619</speed>
  <fix>3d</fix>
</trkpt>
<trkpt lat="40.072842" lon="-105.230575">
  <ele>1586.09</ele>
  <time>2026-08-28T19:12:42Z</time>
  <course>0.0</course>
  <speed>0.0</speed>
  <fix>3d</fix>
</trkpt>
<trkpt lat="40.072842" lon="-105.230575">
  <ele>1586.09</ele>
  <time>2026-08-28T19:12:42Z</time>
  <course>11.78</course>
  <speed>0.0282842712474619</speed>
  <fix>3d</fix>
</trkpt>
<trkpt lat="40.072842" lon="-105.230575">
  <ele>1586.09</ele>
  <time>2026-08-28T19:12:42Z</time>
  <course>0.0</course>
  <speed>0.0</speed>
  <fix>3d</fix>
</trkpt>
<trkpt lat="40.072842" lon="-105.230575">
  <ele>1586.09</ele>
  <time>2026-08-28T19:12:42Z</time>
  <course>11.78</course>
  <speed>0.0282842712474619</speed>
  <fix>3d</fix>
</trkpt>
<trkpt lat="40.072842" lon="-105.230575">
  <ele>1586.09</ele>
  <time>2026-08-28T19:12:42Z</time>
  <course>0.0</course>
  <speed>0.0</speed>
  <fix>3d</fix>
</trkpt>
<trkpt lat="40.072842" lon="-105.230575">
  <ele>1586.09</ele>
  <time>2026-08-28T19:12:42Z</time>
  <course>11.77</course>
  <speed>0.0282842712474619</speed>
  <fix>3d</fix>
</trkpt>
<trkpt lat="40.072842" lon="-105.230575">
  <ele>1586.09</ele>
  <time>2026-08-28T19:12:42Z</time>
  <course>0.0</course>
  <speed>0.0</speed>
  <fix>3d</fix>
</trkpt>
<trkpt lat="40.072842" lon="-105.230575">
  <ele>1586.09</ele>
  <time>2026-08-28T19:12:42Z</time>
  <course>11.76</course>
  <speed>0.0282842712474619</speed>
  <fix>3d</fix>
</trkpt>
<trkpt lat="40.072842" lon="-105.230575">
  <ele>1586.09</ele>
  <time>2026-08-28T19:12:42Z</time>
  <course>0.0</course>
  <speed>0.0</speed>
  <fix>3d</fix>
</trkpt>
<trkpt lat="40.072842" lon="-105.230575">
  <ele>1586.09</ele>
  <time>2026-08-28T19:12:42Z</time>
  <course>11.76</course>
  <speed>0.0282842712474619</speed>
  <fix>3d</fix>
</trkpt>
<trkpt lat="40.072842" lon="-105.230575">
  <ele>1586.09</ele>
  <time>2026-08-28T19:12:42Z</time>
  <course>0.0</course>
  <speed>0.0</speed>
  <fix>3d</fix>
</trkpt>
<trkpt lat="40.072842" lon="-105.230575">
  <ele>1586.09</ele>
  <time>2026-08-28T19:12:42Z</time>
  <course>11.75</course>
  <speed>0.0282842712474619</speed>
  <fix>3d</fix>
</trkpt>
<trkpt lat="40.072842" lon="-105.230575">
  <ele>1586.09</ele>
  <time>2026-08-28T19:12:42Z</time>
  <course>0.0</course>
  <speed>0.0</speed>
  <fix>3d</fix>
</trkpt>
<trkpt lat="40.072842" lon="-105.230575">
  <ele>1586.09</ele>
  <time>2026-08-28T19:12:42Z</time>
  <course>11.74</course>
  <speed>0.03605551275463989</speed>
  <fix>3d</fix>
</trkpt>
<trkpt lat="40.072842" lon="-105.230575">
  <ele>1586.09</ele>
  <time>2026-08-28T19:12:42Z</time>
  <course>0.0</course>
  <speed>0.0</speed>
  <fix>3d</fix>
</trkpt>
<trkpt lat="40.072842" lon="-105.230575">
  <ele>1586.09</ele>
  <time>2026-08-28T19:12:42Z</time>
  <course>11.73</course>
  <speed>0.03605551275463989</speed>
  <fix>3d</fix>
</trkpt>
<trkpt lat="40.072842" lon="-105.230575">
  <ele>1586.09</ele>
  <time>2026-08-28T19:12:42Z</time>
  <course>0.0</course>
  <speed>0.0</speed>
  <fix>3d</fix>
</trkpt>
<trkpt lat="40.072842" lon="-105.230575">
  <ele>1586.09</ele>
  <time>2026-08-28T19:12:42Z</time>
  <course>11.73</course>
  <speed>0.03605551275463989</speed>
  <fix>3d</fix>
</trkpt>
<trkpt lat="40.072842" lon="-105.230575">
  <ele>1586.09</ele>
  <time>2026-08-28T19:12:42Z</time>
  <course>0.0</course>
  <speed>0.0</speed>
  <fix>3d</fix>
</trkpt>
<trkpt lat="40.072842" lon="-105.230575">
  <ele>1586.09</ele>
  <time>2026-08-28T19:12:42Z</time>
  <course>11.72</course>
  <speed>0.03605551275463989</speed>
  <fix>3d</fix>
</trkpt>
<trkpt lat="40.072842" lon="-105.230575">
  <ele>1586.09</ele>
  <time>2026-08-28T19:12:42Z</time>
  <course>0.0</course>
  <speed>0.0</speed>
  <fix>3d</fix>
</trkpt>
<trkpt lat="40.072842" lon="-105.230575">
  <ele>1586.09</ele>
  <time>2026-08-28T19:12:42Z</time>
  <course>11.71</course>
  <speed>0.03605551275463989</speed>
  <fix>3d</fix>
</trkpt>
<trkpt lat="40.072842" lon="-105.230575">
  <ele>1586.09</ele>
  <time>2026-08-28T19:12:42Z</time>
  <course>0.0</course>
  <speed>0.0</speed>
  <fix>3d</fix>
</trkpt>
<trkpt lat="40.072842" lon="-105.230575">
  <ele>1586.09</ele>
  <time>2026-08-28T19:12:42Z</time>
  <course>11.7</course>
  <speed>0.03605551275463989</speed>
  <fix>3d</fix>
</trkpt>
<trkpt lat="40.072842" lon="-105.230575">
  <ele>1586.09</ele>
  <time>2026-08-28T19:12:42Z</time>
  <course>0.0</course>
  <speed>0.0</speed>
  <fix>3d</fix>
</trkpt>
<trkpt lat="40.072842" lon="-105.230575">
  <ele>1586.09</ele>
  <time>2026-08-28T19:12:42Z</time>
  <course>11.69</course>
  <speed>0.03605551275463989</speed>
  <fix>3d</fix>
</trkpt>
<trkpt lat="40.072842" lon="-105.230575">
  <ele>1586.09</ele>
  <time>2026-08-28T19:12:42Z</time>
  <course>0.0</course>
  <speed>0.0</speed>
  <fix>3d</fix>
</trkpt>
<trkpt lat="40.072842" lon="-105.230575">
  <ele>1586.09</ele>
  <time>2026-08-28T19:12:42Z</time>
  <course>11.69</course>
  <speed>0.03605551275463989</speed>
  <fix>3d</fix>
</trkpt>
<trkpt lat="40.072842" lon="-105.230575">
  <ele>1586.09</ele>
  <time>2026-08-28T19:12:42Z</time>
  <course>0.0</course>
  <speed>0.0</speed>
  <fix>3d</fix>
</trkpt>
<trkpt lat="40.072842" lon="-105.230575">
  <ele>1586.09</ele>
  <time>2026-08-28T19:12:42Z</time>
  <course>11.68</course>
  <speed>0.03605551275463989</speed>
  <fix>3d</fix>
</trkpt>
<trkpt lat="40.072842" lon="-105.230575">
  <ele>1586.09</ele>
  <time>2026-08-28T19:12:42Z</time>
  <course>0.0</course>
  <speed>0.0</speed>
  <fix>3d</fix>
</trkpt>
<trkpt lat="40.072842" lon="-105.230575">
  <ele>1586.09</ele>
  <time>2026-08-28T19:12:42Z</time>
  <course>11.67</course>
  <speed>0.03605551275463989</speed>
  <fix>3d</fix>
</trkpt>
<trkpt lat="40.072842" lon="-105.230575">
  <ele>1586.09</ele>
  <time>2026-08-28T19:12:42Z</time>
  <course>0.0</course>
  <speed>0.0</speed>
  <fix>3d</fix>
</trkpt>
<trkpt lat="40.072842" lon="-105.230575">
  <ele>1586.09</ele>
  <time>2026-08-28T19:12:42Z</time>
  <course>11.67</course>
  <speed>0.03605551275463989</speed>
  <fix>3d</fix>
</trkpt>
<trkpt lat="40.072842" lon="-105.230575">
  <ele>1586.09</ele>
  <time>2026-08-28T19:12:42Z</time>
  <course>0.0</course>
  <speed>0.0</speed>
  <fix>3d</fix>
</trkpt>
<trkpt lat="40.072842" lon="-105.230575">
  <ele>1586.09</ele>
  <time>2026-08-28T19:12:42Z</time>
  <course>11.66</course>
  <speed>0.03605551275463989</speed>
  <fix>3d</fix>
</trkpt>
<trkpt lat="40.072842" lon="-105.230575">
  <ele>1586.09</ele>
  <time>2026-08-28T19:12:42Z</time>
  <course>0.0</course>
  <speed>0.0</speed>
  <fix>3d</fix>
</trkpt>
<trkpt lat="40.072842" lon="-105.230575">
  <ele>1586.09</ele>
  <time>2026-08-28T19:12:42Z</time>
  <course>11.65</course>
  <speed>0.03605551275463989</speed>
  <fix>3d</fix>
</trkpt>
<trkpt lat="40.072842" lon="-105.230575">
  <ele>1586.09</ele>
  <time>2026-08-28T19:12:42Z</time>
  <course>0.0</course>
  <speed>0.0</speed>
  <fix>3d</fix>
</trkpt>
<trkpt lat="40.072842" lon="-105.230575">
  <ele>1586.09</ele>
  <time>2026-08-28T19:12:42Z</time>
  <course>11.65</course>
  <speed>0.03605551275463989</speed>
  <fix>3d</fix>
</trkpt>
<trkpt lat="40.072842" lon="-105.230575">
  <ele>1586.09</ele>
  <time>2026-08-28T19:12:42Z</time>
  <course>0.0</course>
  <speed>0.0</speed>
  <fix>3d</fix>
</trkpt>
<trkpt lat="40.072842" lon="-105.230575">
  <ele>1586.09</ele>
  <time>2026-08-28T19:12:42Z</time>
  <course>11.64</course>
  <speed>0.03605551275463989</speed>
  <fix>3d</fix>
</trkpt>
<trkpt lat="40.072842" lon="-105.230575">
  <ele>1586.09</ele>
  <time>2026-08-28T19:12:42Z</time>
  <course>0.0</course>
  <speed>0.0</speed>
  <fix>3d</fix>
</trkpt>
<trkpt lat="40.072842" lon="-105.230575">
  <ele>1586.09</ele>
  <time>2026-08-28T19:12:42Z</time>
  <course>11.63</course>
  <speed>0.03605551275463989</speed>
  <fix>3d</fix>
</trkpt>
<trkpt lat="40.072842" lon="-105.230575">
  <ele>1586.09</ele>
  <time>2026-08-28T19:12:42Z</time>
  <course>0.0</course>
  <speed>0.0</speed>
  <fix>3d</fix>
</trkpt>
<trkpt lat="40.072842" lon="-105.230575">
  <ele>1586.09</ele>
  <time>2026-08-28T19:12:42Z</time>
  <course>11.62</course>
  <speed>0.03605551275463989</speed>
  <fix>3d</fix>
</trkpt>
<trkpt lat="40.072842" lon="-105.230575">
  <ele>1586.09</ele>
  <time>2026-08-28T19:12:42Z</time>
  <course>0.0</course>
  <speed>0.0</speed>
  <fix>3d</fix>
</trkpt>
<trkpt lat="40.072842" lon="-105.230575">
  <ele>1586.09</ele>
  <time>2026-08-28T19:12:42Z</time>
  <course>11.62</course>
  <speed>0.03605551275463989</speed>
  <fix>3d</fix>
</trkpt>
<trkpt lat="40.072842" lon="-105.230575">
  <ele>1586.09</ele>
  <time>2026-08-28T19:12:42Z</time>
  <course>0.0</course>
  <speed>0.0</speed>
  <fix>3d</fix>
</trkpt>
<trkpt lat="40.072842" lon="-105.230575">
  <ele>1586.09</ele>
  <time>2026-08-28T19:12:42Z</time>
  <course>11.61</course>
  <speed>0.03605551275463989</speed>
  <fix>3d</fix>
</trkpt>
<trkpt lat="40.072842" lon="-105.230575">
  <ele>1586.09</ele>
  <time>2026-08-28T19:12:42Z</time>
  <course>0.0</course>
  <speed>0.0</speed>
  <fix>3d</fix>
</trkpt>
<trkpt lat="40.072842" lon="-105.230575">
  <ele>1586.09</ele>
  <time>2026-08-28T19:12:42Z</time>
  <course>11.61</course>
  <speed>0.03605551275463989</speed>
  <fix>3d</fix>
</trkpt>
<trkpt lat="40.072842" lon="-105.230575">
  <ele>1586.09</ele>
  <time>2026-08-28T19:12:42Z</time>
  <course>0.0</course>
  <speed>0.0</speed>
  <fix>3d</fix>
</trkpt>
<trkpt lat="40.072842" lon="-105.230575">
  <ele>1586.09</ele>
  <time>2026-08-28T19:12:42Z</time>
  <course>11.6</course>
  <speed>0.03605551275463989</speed>
  <fix>3d</fix>
</trkpt>
<trkpt lat="40.072842" lon="-105.230575">
  <ele>1586.09</ele>
  <time>2026-08-28T19:12:42Z</time>
  <course>0.0</course>
  <speed>0.0</speed>
  <fix>3d</fix>
</trkpt>
<trkpt lat="40.072842" lon="-105.230575">
  <ele>1586.09</ele>
  <time>2026-08-28T19:12:42Z</time>
  <course>11.59</course>
  <speed>0.03605551275463989</speed>
  <fix>3d</fix>
</trkpt>
<trkpt lat="40.072842" lon="-105.230575">
  <ele>1586.09</ele>
  <time>2026-08-28T19:12:42Z</time>
  <course>0.0</course>
  <speed>0.0</speed>
  <fix>3d</fix>
</trkpt>
<trkpt lat="40.072842" lon="-105.230575">
  <ele>1586.09</ele>
  <time>2026-08-28T19:12:42Z</time>
  <course>11.59</course>
  <speed>0.03605551275463989</speed>
  <fix>3d</fix>
</trkpt>
<trkpt lat="40.072842" lon="-105.230575">
  <ele>1586.09</ele>
  <time>2026-08-28T19:12:42Z</time>
  <course>0.0</course>
  <speed>0.0</speed>
  <fix>3d</fix>
</trkpt>
<trkpt lat="40.072842" lon="-105.230575">
  <ele>1586.09</ele>
  <time>2026-08-28T19:12:42Z</time>
  <course>11.58</course>
  <speed>0.03605551275463989</speed>
  <fix>3d</fix>
</trkpt>
<trkpt lat="40.072842" lon="-105.230575">
  <ele>1586.09</ele>
  <time>2026-08-28T19:12:42Z</time>
  <course>0.0</course>
  <speed>0.0</speed>
  <fix>3d</fix>
</trkpt>
<trkpt lat="40.072842" lon="-105.230575">
  <ele>1586.09</ele>
  <time>2026-08-28T19:12:42Z</time>
  <course>11.57</course>
  <speed>0.03605551275463989</speed>
  <fix>3d</fix>
</trkpt>
<trkpt lat="40.072842" lon="-105.230575">
  <ele>1586.09</ele>
  <time>2026-08-28T19:12:42Z</time>
  <course>0.0</course>
  <speed>0.0</speed>
  <fix>3d</fix>
</trkpt>
<trkpt lat="40.072842" lon="-105.230575">
  <ele>1586.09</ele>
  <time>2026-08-28T19:12:42Z</time>
  <course>11.57</course>
  <speed>0.03605551275463989</speed>
  <fix>3d</fix>
</trkpt>
<trkpt lat="40.072842" lon="-105.230575">
  <ele>1586.09</ele>
  <time>2026-08-28T19:12:42Z</time>
  <course>0.0</course>
  <speed>0.0</speed>
  <fix>3d</fix>
</trkpt>
<trkpt lat="40.072842" lon="-105.230575">
  <ele>1586.09</ele>
  <time>2026-08-28T19:12:42Z</time>
  <course>11.56</course>
  <speed>0.03605551275463989</speed>
  <fix>3d</fix>
</trkpt>
<trkpt lat="40.072842" lon="-105.230575">
  <ele>1586.09</ele>
  <time>2026-08-28T19:12:42Z</time>
  <course>0.0</course>
  <speed>0.0</speed>
  <fix>3d</fix>
</trkpt>
<trkpt lat="40.072842" lon="-105.230575">
  <ele>1586.09</ele>
  <time>2026-08-28T19:12:42Z</time>
  <course>11.56</course>
  <speed>0.03605551275463989</speed>
  <fix>3d</fix>
</trkpt>
<trkpt lat="40.072842" lon="-105.230575">
  <ele>1586.09</ele>
  <time>2026-08-28T19:12:42Z</time>
  <course>0.0</course>
  <speed>0.0</speed>
  <fix>3d</fix>
</trkpt>
<trkpt lat="40.072842" lon="-105.230575">
  <ele>1586.09</ele>
  <time>2026-08-28T19:12:42Z</time>
  <course>11.55</course>
  <speed>0.03605551275463989</speed>
  <fix>3d</fix>
</trkpt>
<trkpt lat="40.072842" lon="-105.230575">
  <ele>1586.09</ele>
  <time>2026-08-28T19:12:42Z</time>
  <course>0.0</course>
  <speed>0.0</speed>
  <fix>3d</fix>
</trkpt>
<trkpt lat="40.072842" lon="-105.230575">
  <ele>1586.09</ele>
  <time>2026-08-28T19:12:42Z</time>
  <course>11.54</course>
  <speed>0.03605551275463989</speed>
  <fix>3d</fix>
</trkpt>
<trkpt lat="40.072842" lon="-105.230575">
  <ele>1586.09</ele>
  <time>2026-08-28T19:12:42Z</time>
  <course>0.0</course>
  <speed>0.0</speed>
  <fix>3d</fix>
</trkpt>
<trkpt lat="40.072842" lon="-105.230575">
  <ele>1586.09</ele>
  <time>2026-08-28T19:12:42Z</time>
  <course>11.54</course>
  <speed>0.03605551275463989</speed>
  <fix>3d</fix>
</trkpt>
<trkpt lat="40.072842" lon="-105.230575">
  <ele>1586.09</ele>
  <time>2026-08-28T19:12:42Z</time>
  <course>0.0</course>
  <speed>0.0</speed>
  <fix>3d</fix>
</trkpt>
<trkpt lat="40.072842" lon="-105.230575">
  <ele>1586.09</ele>
  <time>2026-08-28T19:12:42Z</time>
  <course>11.53</course>
  <speed>0.03605551275463989</speed>
  <fix>3d</fix>
</trkpt>
<trkpt lat="40.072842" lon="-105.230575">
  <ele>1586.09</ele>
  <time>2026-08-28T19:12:42Z</time>
  <course>0.0</course>
  <speed>0.0</speed>
  <fix>3d</fix>
</trkpt>
<trkpt lat="40.072842" lon="-105.230575">
  <ele>1586.09</ele>
  <time>2026-08-28T19:12:42Z</time>
  <course>11.53</course>
  <speed>0.03605551275463989</speed>
  <fix>3d</fix>
</trkpt>
<trkpt lat="40.072842" lon="-105.230575">
  <ele>1586.09</ele>
  <time>2026-08-28T19:12:42Z</time>
  <course>0.0</course>
  <speed>0.0</speed>
  <fix>3d</fix>
</trkpt>
<trkpt lat="40.072842" lon="-105.230575">
  <ele>1586.09</ele>
  <time>2026-08-28T19:12:42Z</time>
  <course>11.52</course>
  <speed>0.03605551275463989</speed>
  <fix>3d</fix>
</trkpt>
<trkpt lat="40.072842" lon="-105.230575">
  <ele>1586.09</ele>
  <time>2026-08-28T19:12:42Z</time>
  <course>0.0</course>
  <speed>0.0</speed>
  <fix>3d</fix>
</trkpt>
<trkpt lat="40.072842" lon="-105.230575">
  <ele>1586.09</ele>
  <time>2026-08-28T19:12:42Z</time>
  <course>11.51</course>
  <speed>0.03605551275463989</speed>
  <fix>3d</fix>
</trkpt>
<trkpt lat="40.072842" lon="-105.230575">
  <ele>1586.09</ele>
  <time>2026-08-28T19:12:42Z</time>
  <course>0.0</course>
  <speed>0.0</speed>
  <fix>3d</fix>
</trkpt>
<trkpt lat="40.072842" lon="-105.230575">
  <ele>1586.09</ele>
  <time>2026-08-28T19:12:42Z</time>
  <course>11.51</course>
  <speed>0.03605551275463989</speed>
  <fix>3d</fix>
</trkpt>
<trkpt lat="40.072842" lon="-105.230575">
  <ele>1586.09</ele>
  <time>2026-08-28T19:12:42Z</time>
  <course>0.0</course>
  <speed>0.0</speed>
  <fix>3d</fix>
</trkpt>
<trkpt lat="40.072842" lon="-105.230575">
  <ele>1586.09</ele>
  <time>2026-08-28T19:12:42Z</time>
  <course>11.5</course>
  <speed>0.03605551275463989</speed>
  <fix>3d</fix>
</trkpt>
<trkpt lat="40.072842" lon="-105.230575">
  <ele>1586.09</ele>
  <time>2026-08-28T19:12:42Z</time>
  <course>0.0</course>
  <speed>0.0</speed>
  <fix>3d</fix>
</trkpt>
<trkpt lat="40.072842" lon="-105.230575">
  <ele>1586.09</ele>
  <time>2026-08-28T19:12:42Z</time>
  <course>11.5</course>
  <speed>0.03605551275463989</speed>
  <fix>3d</fix>
</trkpt>
<trkpt lat="40.072842" lon="-105.230575">
  <ele>1586.09</ele>
  <time>2026-08-28T19:12:42Z</time>
  <course>0.0</course>
  <speed>0.0</speed>
  <fix>3d</fix>
</trkpt>
<trkpt lat="40.072842" lon="-105.230575">
  <ele>1586.09</ele>
  <time>2026-08-28T19:12:42Z</time>
  <course>11.49</course>
  <speed>0.044721359549995794</speed>
  <fix>3d</fix>
</trkpt>
<trkpt lat="40.072842" lon="-105.230575">
  <ele>1586.09</ele>
  <time>2026-08-28T19:12:42Z</time>
  <course>0.0</course>
  <speed>0.0</speed>
  <fix>3d</fix>
</trkpt>
<trkpt lat="40.072842" lon="-105.230575">
  <ele>1586.09</ele>
  <time>2026-08-28T19:12:42Z</time>
  <course>11.49</course>
  <speed>0.044721359549995794</speed>
  <fix>3d</fix>
</trkpt>
<trkpt lat="40.072842" lon="-105.230575">
  <ele>1586.09</ele>
  <time>2026-08-28T19:12:42Z</time>
  <course>0.0</course>
  <speed>0.0</speed>
  <fix>3d</fix>
</trkpt>
<trkpt lat="40.072842" lon="-105.230575">
  <ele>1586.09</ele>
  <time>2026-08-28T19:12:42Z</time>
  <course>11.48</course>
  <speed>0.044721359549995794</speed>
  <fix>3d</fix>
</trkpt>
<trkpt lat="40.072842" lon="-105.230575">
  <ele>1586.09</ele>
  <time>2026-08-28T19:12:42Z</time>
  <course>0.0</course>
  <speed>0.0</speed>
  <fix>3d</fix>
</trkpt>
<trkpt lat="40.072842" lon="-105.230575">
  <ele>1586.09</ele>
  <time>2026-08-28T19:12:42Z</time>
  <course>11.48</course>
  <speed>0.044721359549995794</speed>
  <fix>3d</fix>
</trkpt>
<trkpt lat="40.072842" lon="-105.230575">
  <ele>1586.09</ele>
  <time>2026-08-28T19:12:42Z</time>
  <course>0.0</course>
  <speed>0.0</speed>
  <fix>3d</fix>
</trkpt>
<trkpt lat="40.072842" lon="-105.230575">
  <ele>1586.09</ele>
  <time>2026-08-28T19:12:42Z</time>
  <course>11.47</course>
  <speed>0.044721359549995794</speed>
  <fix>3d</fix>
</trkpt>
<trkpt lat="40.072842" lon="-105.230575">
  <ele>1586.09</ele>
  <time>2026-08-28T19:12:42Z</time>
  <course>0.0</course>
  <speed>0.0</speed>
  <fix>3d</fix>
</trkpt>
<trkpt lat="40.072842" lon="-105.230575">
  <ele>1586.09</ele>
  <time>2026-08-28T19:12:42Z</time>
  <course>11.47</course>
  <speed>0.044721359549995794</speed>
  <fix>3d</fix>
</trkpt>
<trkpt lat="40.072842" lon="-105.230575">
  <ele>1586.09</ele>
  <time>2026-08-28T19:12:42Z</time>
  <course>0.0</course>
  <speed>0.0</speed>
  <fix>3d</fix>
</trkpt>
<trkpt lat="40.072842" lon="-105.230575">
  <ele>1586.09</ele>
  <time>2026-08-28T19:12:42Z</time>
  <course>11.46</course>
  <speed>0.044721359549995794</speed>
  <fix>3d</fix>
</trkpt>
<trkpt lat="40.072842" lon="-105.230575">
  <ele>1586.09</ele>
  <time>2026-08-28T19:12:42Z</time>
  <course>0.0</course>
  <speed>0.0</speed>
  <fix>3d</fix>
</trkpt>
<trkpt lat="40.072842" lon="-105.230575">
  <ele>1586.09</ele>
  <time>2026-08-28T19:12:42Z</time>
  <course>11.46</course>
  <speed>0.044721359549995794</speed>
  <fix>3d</fix>
</trkpt>
<trkpt lat="40.072842" lon="-105.230575">
  <ele>1586.09</ele>
  <time>2026-08-28T19:12:42Z</time>
  <course>0.0</course>
  <speed>0.0</speed>
  <fix>3d</fix>
</trkpt>
<trkpt lat="40.072842" lon="-105.230575">
  <ele>1586.15</ele>
  <time>2026-08-28T19:12:42Z</time>
  <course>11.45</course>
  <speed>0.0</speed>
  <fix>3d</fix>
</trkpt>
<trkpt lat="40.072842" lon="-105.230575">
  <ele>1586.09</ele>
  <time>2026-08-28T19:12:42Z</time>
  <course>0.0</course>
  <speed>0.0</speed>
  <fix>3d</fix>
</trkpt>
<trkpt lat="40.072842" lon="-105.230575">
  <ele>1586.15</ele>
  <time>2026-08-28T19:12:42Z</time>
  <course>11.45</course>
  <speed>0.0</speed>
  <fix>3d</fix>
</trkpt>
<trkpt lat="40.072842" lon="-105.230575">
  <ele>1586.09</ele>
  <time>2026-08-28T19:12:42Z</time>
  <course>0.0</course>
  <speed>0.0</speed>
  <fix>3d</fix>
</trkpt>
<trkpt lat="40.072842" lon="-105.230575">
  <ele>1586.14</ele>
  <time>2026-08-28T19:12:42Z</time>
  <course>11.44</course>
  <speed>0.0</speed>
  <fix>3d</fix>
</trkpt>
<trkpt lat="40.072842" lon="-105.230575">
  <ele>1586.09</ele>
  <time>2026-08-28T19:12:42Z</time>
  <course>0.0</course>
  <speed>0.0</speed>
  <fix>3d</fix>
</trkpt>
<trkpt lat="40.072842" lon="-105.230575">
  <ele>1586.14</ele>
  <time>2026-08-28T19:12:42Z</time>
  <course>11.44</course>
  <speed>0.0</speed>
  <fix>3d</fix>
</trkpt>
<trkpt lat="40.072842" lon="-105.230575">
  <ele>1586.09</ele>
  <time>2026-08-28T19:12:42Z</time>
  <course>0.0</course>
  <speed>0.0</speed>
  <fix>3d</fix>
</trkpt>
<trkpt lat="40.072842" lon="-105.230575">
  <ele>1586.14</ele>
  <time>2026-08-28T19:12:42Z</time>
  <course>11.43</course>
  <speed>0.0</speed>
  <fix>3d</fix>
</trkpt>
<trkpt lat="40.072842" lon="-105.230575">
  <ele>1586.09</ele>
  <time>2026-08-28T19:12:42Z</time>
  <course>0.0</course>
  <speed>0.0</speed>
  <fix>3d</fix>
</trkpt>
<trkpt lat="40.072842" lon="-105.230575">
  <ele>1586.14</ele>
  <time>2026-08-28T19:12:42Z</time>
  <course>11.43</course>
  <speed>0.01</speed>
  <fix>3d</fix>
</trkpt>
<trkpt lat="40.072842" lon="-105.230575">
  <ele>1586.09</ele>
  <time>2026-08-28T19:12:42Z</time>
  <course>0.0</course>
  <speed>0.0</speed>
  <fix>3d</fix>
</trkpt>
<trkpt lat="40.072842" lon="-105.230575">
  <ele>1586.14</ele>
  <time>2026-08-28T19:12:42Z</time>
  <course>11.42</course>
  <speed>0.01</speed>
  <fix>3d</fix>
</trkpt>
<trkpt lat="40.072842" lon="-105.230575">
  <ele>1586.09</ele>
  <time>2026-08-28T19:12:42Z</time>
  <course>0.0</course>
  <speed>0.0</speed>
  <fix>3d</fix>
</trkpt>
<trkpt lat="40.072842" lon="-105.230575">
  <ele>1586.14</ele>
  <time>2026-08-28T19:12:42Z</time>
  <course>11.42</course>
  <speed>0.01</speed>
  <fix>3d</fix>
</trkpt>
<trkpt lat="40.072842" lon="-105.230575">
  <ele>1586.09</ele>
  <time>2026-08-28T19:12:42Z</time>
  <course>0.0</course>
  <speed>0.0</speed>
  <fix>3d</fix>
</trkpt>
<trkpt lat="40.072842" lon="-105.230575">
  <ele>1586.14</ele>
  <time>2026-08-28T19:12:42Z</time>
  <course>11.41</course>
  <speed>0.01414213562373095</speed>
  <fix>3d</fix>
</trkpt>
<trkpt lat="40.072842" lon="-105.230575">
  <ele>1586.09</ele>
  <time>2026-08-28T19:12:42Z</time>
  <course>0.0</course>
  <speed>0.0</speed>
  <fix>3d</fix>
</trkpt>
<trkpt lat="40.072842" lon="-105.230575">
  <ele>1586.14</ele>
  <time>2026-08-28T19:12:42Z</time>
  <course>11.41</course>
  <speed>0.01414213562373095</speed>
  <fix>3d</fix>
</trkpt>
<trkpt lat="40.072842" lon="-105.230575">
  <ele>1586.09</ele>
  <time>2026-08-28T19:12:42Z</time>
  <course>0.0</course>
  <speed>0.0</speed>
  <fix>3d</fix>
</trkpt>
<trkpt lat="40.072842" lon="-105.230575">
  <ele>1586.15</ele>
  <time>2026-08-28T19:12:42Z</time>
  <course>11.41</course>
  <speed>0.01414213562373095</speed>
  <fix>3d</fix>
</trkpt>
<trkpt lat="40.072842" lon="-105.230575">
  <ele>1586.09</ele>
  <time>2026-08-28T19:12:42Z</time>
  <course>0.0</course>
  <speed>0.0</speed>
  <fix>3d</fix>
</trkpt>
<trkpt lat="40.072842" lon="-105.230575">
  <ele>1586.15</ele>
  <time>2026-08-28T19:12:42Z</time>
  <course>11.4</course>
  <speed>0.022360679774997897</speed>
  <fix>3d</fix>
</trkpt>
<trkpt lat="40.072842" lon="-105.230575">
  <ele>1586.09</ele>
  <time>2026-08-28T19:12:42Z</time>
  <course>0.0</course>
  <speed>0.0</speed>
  <fix>3d</fix>
</trkpt>
<trkpt lat="40.072842" lon="-105.230575">
  <ele>1586.15</ele>
  <time>2026-08-28T19:12:42Z</time>
  <course>11.4</course>
  <speed>0.022360679774997897</speed>
  <fix>3d</fix>
</trkpt>
<trkpt lat="40.072842" lon="-105.230575">
  <ele>1586.09</ele>
  <time>2026-08-28T19:12:42Z</time>
  <course>0.0</course>
  <speed>0.0</speed>
  <fix>3d</fix>
</trkpt>
<trkpt lat="40.072842" lon="-105.230575">
  <ele>1586.16</ele>
  <time>2026-08-28T19:12:42Z</time>
  <course>11.4</course>
  <speed>0.022360679774997897</speed>
  <fix>3d</fix>
</trkpt>
<trkpt lat="40.072842" lon="-105.230575">
  <ele>1586.09</ele>
  <time>2026-08-28T19:12:42Z</time>
  <course>0.0</course>
  <speed>0.0</speed>
  <fix>3d</fix>
</trkpt>
<trkpt lat="40.072842" lon="-105.230575">
  <ele>1586.16</ele>
  <time>2026-08-28T19:12:42Z</time>
  <course>11.39</course>
  <speed>0.022360679774997897</speed>
  <fix>3d</fix>
</trkpt>
<trkpt lat="40.072842" lon="-105.230575">
  <ele>1586.09</ele>
  <time>2026-08-28T19:12:42Z</time>
  <course>0.0</course>
  <speed>0.0</speed>
  <fix>3d</fix>
</trkpt>
<trkpt lat="40.072842" lon="-105.230575">
  <ele>1586.16</ele>
  <time>2026-08-28T19:12:42Z</time>
  <course>11.39</course>
  <speed>0.01414213562373095</speed>
  <fix>3d</fix>
</trkpt>
<trkpt lat="40.072842" lon="-105.230575">
  <ele>1586.09</ele>
  <time>2026-08-28T19:12:42Z</time>
  <course>0.0</course>
  <speed>0.0</speed>
  <fix>3d</fix>
</trkpt>
<trkpt lat="40.072842" lon="-105.230575">
  <ele>1586.16</ele>
  <time>2026-08-28T19:12:42Z</time>
  <course>11.39</course>
  <speed>0.01414213562373095</speed>
  <fix>3d</fix>
</trkpt>
<trkpt lat="40.072842" lon="-105.230575">
  <ele>1586.09</ele>
  <time>2026-08-28T19:12:42Z</time>
  <course>0.0</course>
  <speed>0.0</speed>
  <fix>3d</fix>
</trkpt>
<trkpt lat="40.072842" lon="-105.230575">
  <ele>1586.16</ele>
  <time>2026-08-28T19:12:42Z</time>
  <course>11.38</course>
  <speed>0.01</speed>
  <fix>3d</fix>
</trkpt>
<trkpt lat="40.072842" lon="-105.230575">
  <ele>1586.09</ele>
  <time>2026-08-28T19:12:42Z</time>
  <course>0.0</course>
  <speed>0.0</speed>
  <fix>3d</fix>
</trkpt>
<trkpt lat="40.072842" lon="-105.230575">
  <ele>1586.16</ele>
  <time>2026-08-28T19:12:42Z</time>
  <course>11.38</course>
  <speed>0.0</speed>
  <fix>3d</fix>
</trkpt>
<trkpt lat="40.072842" lon="-105.230575">
  <ele>1586.09</ele>
  <time>2026-08-28T19:12:42Z</time>
  <course>0.0</course>
  <speed>0.0</speed>
  <fix>3d</fix>
</trkpt>
<trkpt lat="40.072842" lon="-105.230575">
  <ele>1586.16</ele>
  <time>2026-08-28T19:12:42Z</time>
  <course>11.37</course>
  <speed>0.0</speed>
  <fix>3d</fix>
</trkpt>
<trkpt lat="40.072842" lon="-105.230575">
  <ele>1586.09</ele>
  <time>2026-08-28T19:12:42Z</time>
  <course>0.0</course>
  <speed>0.0</speed>
  <fix>3d</fix>
</trkpt>
<trkpt lat="40.072842" lon="-105.230575">
  <ele>1586.16</ele>
  <time>2026-08-28T19:12:42Z</time>
  <course>11.37</course>
  <speed>0.0</speed>
  <fix>3d</fix>
</trkpt>
<trkpt lat="40.072842" lon="-105.230575">
  <ele>1586.09</ele>
  <time>2026-08-28T19:12:42Z</time>
  <course>0.0</course>
  <speed>0.0</speed>
  <fix>3d</fix>
</trkpt>
<trkpt lat="40.072842" lon="-105.230575">
  <ele>1586.16</ele>
  <time>2026-08-28T19:12:42Z</time>
  <course>11.37</course>
  <speed>0.0</speed>
  <fix>3d</fix>
</trkpt>
<trkpt lat="40.072842" lon="-105.230575">
  <ele>1586.09</ele>
  <time>2026-08-28T19:12:42Z</time>
  <course>0.0</course>
  <speed>0.0</speed>
  <fix>3d</fix>
</trkpt>
<trkpt lat="40.072842" lon="-105.230575">
  <ele>1586.16</ele>
  <time>2026-08-28T19:12:42Z</time>
  <course>11.36</course>
  <speed>0.0</speed>
  <fix>3d</fix>
</trkpt>
<trkpt lat="40.072842" lon="-105.230575">
  <ele>1586.09</ele>
  <time>2026-08-28T19:12:42Z</time>
  <course>135.0</course>
  <speed>0.0</speed>
  <fix>3d</fix>
</trkpt>
<trkpt lat="40.072842" lon="-105.230575">
  <ele>1586.16</ele>
  <time>2026-08-28T19:12:42Z</time>
  <course>11.36</course>
  <speed>0.0</speed>
  <fix>3d</fix>
</trkpt>
<trkpt lat="40.072842" lon="-105.230575">
  <ele>1586.09</ele>
  <time>2026-08-28T19:12:42Z</time>
  <course>135.0</course>
  <speed>0.0</speed>
  <fix>3d</fix>
</trkpt>
<trkpt lat="40.072842" lon="-105.230575">
  <ele>1586.16</ele>
  <time>2026-08-28T19:12:42Z</time>
  <course>11.36</course>
  <speed>0.0</speed>
  <fix>3d</fix>
</trkpt>
<trkpt lat="40.072842" lon="-105.230575">
  <ele>1586.09</ele>
  <time>2026-08-28T19:12:42Z</time>
  <course>135.0</course>
  <speed>0.0</speed>
  <fix>3d</fix>
</trkpt>
<trkpt lat="40.072842" lon="-105.230575">
  <ele>1586.16</ele>
  <time>2026-08-28T19:12:42Z</time>
  <course>11.35</course>
  <speed>0.0</speed>
  <fix>3d</fix>
</trkpt>
<trkpt lat="40.072842" lon="-105.230575">
  <ele>1586.09</ele>
  <time>2026-08-28T19:12:42Z</time>
  <course>135.0</course>
  <speed>0.0</speed>
  <fix>3d</fix>
</trkpt>
<trkpt lat="40.072842" lon="-105.230575">
  <ele>1586.16</ele>
  <time>2026-08-28T19:12:43Z</time>
  <course>11.35</course>
  <speed>0.0</speed>
  <fix>3d</fix>
</trkpt>
<trkpt lat="40.072842" lon="-105.230575">
  <ele>1586.09</ele>
  <time>2026-08-28T19:12:43Z</time>
  <course>162.99</course>
  <speed>0.0</speed>
  <fix>3d</fix>
</trkpt>
<trkpt lat="40.072842" lon="-105.230575">
  <ele>1586.16</ele>
  <time>2026-08-28T19:12:43Z</time>
  <course>11.35</course>
  <speed>0.0</speed>
  <fix>3d</fix>
</trkpt>
<trkpt lat="40.072842" lon="-105.230575">
  <ele>1586.09</ele>
  <time>2026-08-28T19:12:43Z</time>
  <course>184.14</course>
  <speed>0.0</speed>
  <fix>3d</fix>
</trkpt>
<trkpt lat="40.072842" lon="-105.230575">
  <ele>1586.16</ele>
  <time>2026-08-28T19:12:43Z</time>
  <course>11.35</course>
  <speed>0.0</speed>
  <fix>3d</fix>
</trkpt>
<trkpt lat="40.072842" lon="-105.230575">
  <ele>1586.09</ele>
  <time>2026-08-28T19:12:43Z</time>
  <course>331.12</course>
  <speed>0.0</speed>
  <fix>3d</fix>
</trkpt>
<trkpt lat="40.072842" lon="-105.230575">
  <ele>1586.16</ele>
  <time>2026-08-28T19:12:43Z</time>
  <course>11.35</course>
  <speed>0.0</speed>
  <fix>3d</fix>
</trkpt>
<trkpt lat="40.072842" lon="-105.230575">
  <ele>1586.09</ele>
  <time>2026-08-28T19:12:43Z</time>
  <course>26.02</course>
  <speed>0.0</speed>
  <fix>3d</fix>
</trkpt>
<trkpt lat="40.072842" lon="-105.230575">
  <ele>1586.16</ele>
  <time>2026-08-28T19:12:43Z</time>
  <course>11.34</course>
  <speed>0.0</speed>
  <fix>3d</fix>
</trkpt>
<trkpt lat="40.072842" lon="-105.230575">
  <ele>1586.09</ele>
  <time>2026-08-28T19:12:43Z</time>
  <course>163.59</course>
  <speed>0.0</speed>
  <fix>3d</fix>
</trkpt>
<trkpt lat="40.072842" lon="-105.230575">
  <ele>1586.16</ele>
  <time>2026-08-28T19:12:43Z</time>
  <course>11.34</course>
  <speed>0.0</speed>
  <fix>3d</fix>
</trkpt>
<trkpt lat="40.072842" lon="-105.230575">
  <ele>1586.09</ele>
  <time>2026-08-28T19:12:43Z</time>
  <course>169.98</course>
  <speed>0.0</speed>
  <fix>3d</fix>
</trkpt>
<trkpt lat="40.072842" lon="-105.230575">
  <ele>1586.16</ele>
  <time>2026-08-28T19:12:43Z</time>
  <course>11.34</course>
  <speed>0.0</speed>
  <fix>3d</fix>
</trkpt>
<trkpt lat="40.072842" lon="-105.230575">
  <ele>1586.09</ele>
  <time>2026-08-28T19:12:43Z</time>
  <course>136.13</course>
  <speed>0.0</speed>
  <fix>3d</fix>
</trkpt>
<trkpt lat="40.072842" lon="-105.230575">
  <ele>1586.16</ele>
  <time>2026-08-28T19:12:43Z</time>
  <course>11.34</course>
  <speed>0.0</speed>
  <fix>3d</fix>
</trkpt>
<trkpt lat="40.072842" lon="-105.230575">
  <ele>1586.09</ele>
  <time>2026-08-28T19:12:43Z</time>
  <course>136.42</course>
  <speed>0.0</speed>
  <fix>3d</fix>
</trkpt>
<trkpt lat="40.072842" lon="-105.230575">
  <ele>1586.16</ele>
  <time>2026-08-28T19:12:43Z</time>
  <course>11.34</course>
  <speed>0.0</speed>
  <fix>3d</fix>
</trkpt>
<trkpt lat="40.072842" lon="-105.230575">
  <ele>1586.09</ele>
  <time>2026-08-28T19:12:43Z</time>
  <course>298.83</course>
  <speed>0.0</speed>
  <fix>3d</fix>
</trkpt>
<trkpt lat="40.072842" lon="-105.230575">
  <ele>1586.16</ele>
  <time>2026-08-28T19:12:43Z</time>
  <course>11.34</course>
  <speed>0.0</speed>
  <fix>3d</fix>
</trkpt>
<trkpt lat="40.072842" lon="-105.230575">
  <ele>1586.09</ele>
  <time>2026-08-28T19:12:43Z</time>
  <course>265.66</course>
  <speed>0.0</speed>
  <fix>3d</fix>
</trkpt>
<trkpt lat="40.072842" lon="-105.230575">
  <ele>1586.16</ele>
  <time>2026-08-28T19:12:43Z</time>
  <course>11.34</course>
  <speed>0.0</speed>
  <fix>3d</fix>
</trkpt>
<trkpt lat="40.072842" lon="-105.230575">
  <ele>1586.09</ele>
  <time>2026-08-28T19:12:43Z</time>
  <course>147.96</course>
  <speed>0.0</speed>
  <fix>3d</fix>
</trkpt>
<trkpt lat="40.072842" lon="-105.230575">
  <ele>1586.16</ele>
  <time>2026-08-28T19:12:43Z</time>
  <course>11.34</course>
  <speed>0.0</speed>
  <fix>3d</fix>
</trkpt>
<trkpt lat="40.072842" lon="-105.230575">
  <ele>1586.09</ele>
  <time>2026-08-28T19:12:43Z</time>
  <course>151.68</course>
  <speed>0.0</speed>
  <fix>3d</fix>
</trkpt>
<trkpt lat="40.072842" lon="-105.230575">
  <ele>1586.16</ele>
  <time>2026-08-28T19:12:43Z</time>
  <course>11.34</course>
  <speed>0.0</speed>
  <fix>3d</fix>
</trkpt>
<trkpt lat="40.072842" lon="-105.230575">
  <ele>1586.09</ele>
  <time>2026-08-28T19:12:43Z</time>
  <course>154.9</course>
  <speed>0.0</speed>
  <fix>3d</fix>
</trkpt>
<trkpt lat="40.072842" lon="-105.230575">
  <ele>1586.17</ele>
  <time>2026-08-28T19:12:43Z</time>
  <course>11.34</course>
  <speed>0.0</speed>
  <fix>3d</fix>
</trkpt>
<trkpt lat="40.072842" lon="-105.230575">
  <ele>1586.09</ele>
  <time>2026-08-28T19:12:43Z</time>
  <course>136.22</course>
  <speed>0.0</speed>
  <fix>3d</fix>
</trkpt>
<trkpt lat="40.072842" lon="-105.230575">
  <ele>1586.17</ele>
  <time>2026-08-28T19:12:43Z</time>
  <course>11.34</course>
  <speed>0.0</speed>
  <fix>3d</fix>
</trkpt>
<trkpt lat="40.072842" lon="-105.230575">
  <ele>1586.09</ele>
  <time>2026-08-28T19:12:43Z</time>
  <course>136.07</course>
  <speed>0.0</speed>
  <fix>3d</fix>
</trkpt>
<trkpt lat="40.072842" lon="-105.230575">
  <ele>1586.17</ele>
  <time>2026-08-28T19:12:43Z</time>
  <course>11.34</course>
  <speed>0.01</speed>
  <fix>3d</fix>
</trkpt>
<trkpt lat="40.072842" lon="-105.230575">
  <ele>1586.09</ele>
  <time>2026-08-28T19:12:43Z</time>
  <course>150.73</course>
  <speed>0.0</speed>
  <fix>3d</fix>
</trkpt>
<trkpt lat="40.072842" lon="-105.230575">
  <ele>1586.17</ele>
  <time>2026-08-28T19:12:43Z</time>
  <course>11.34</course>
  <speed>0.01</speed>
  <fix>3d</fix>
</trkpt>
<trkpt lat="40.072842" lon="-105.230575">
  <ele>1586.09</ele>
  <time>2026-08-28T19:12:43Z</time>
  <course>293.2</course>
  <speed>0.0</speed>
  <fix>3d</fix>
</trkpt>
<trkpt lat="40.072842" lon="-105.230575">
  <ele>1586.18</ele>
  <time>2026-08-28T19:12:43Z</time>
  <course>11.34</course>
  <speed>0.01</speed>
  <fix>3d</fix>
</trkpt>
<trkpt lat="40.072842" lon="-105.230575">
  <ele>1586.09</ele>
  <time>2026-08-28T19:12:43Z</time>
  <course>146.79</course>
  <speed>0.0</speed>
  <fix>3d</fix>
</trkpt>
<trkpt lat="40.072842" lon="-105.230575">
  <ele>1586.18</ele>
  <time>2026-08-28T19:12:43Z</time>
  <course>11.34</course>
  <speed>0.01</speed>
  <fix>3d</fix>
</trkpt>
<trkpt lat="40.072842" lon="-105.230575">
  <ele>1586.09</ele>
  <time>2026-08-28T19:12:43Z</time>
  <course>146.92</course>
  <speed>0.0</speed>
  <fix>3d</fix>
</trkpt>
<trkpt lat="40.072842" lon="-105.230575">
  <ele>1586.18</ele>
  <time>2026-08-28T19:12:43Z</time>
  <course>11.34</course>
  <speed>0.01414213562373095</speed>
  <fix>3d</fix>
</trkpt>
<trkpt lat="40.072842" lon="-105.230575">
  <ele>1586.09</ele>
  <time>2026-08-28T19:12:43Z</time>
  <course>149.89</course>
  <speed>0.0</speed>
  <fix>3d</fix>
</trkpt>
<trkpt lat="40.072842" lon="-105.230575">
  <ele>1586.18</ele>
  <time>2026-08-28T19:12:43Z</time>
  <course>11.34</course>
  <speed>0.01414213562373095</speed>
  <fix>3d</fix>
</trkpt>
<trkpt lat="40.072842" lon="-105.230575">
  <ele>1586.09</ele>
  <time>2026-08-28T19:12:43Z</time>
  <course>149.44</course>
  <speed>0.0</speed>
  <fix>3d</fix>
</trkpt>
<trkpt lat="40.072842" lon="-105.230575">
  <ele>1586.18</ele>
  <time>2026-08-28T19:12:43Z</time>
  <course>11.35</course>
  <speed>0.01414213562373095</speed>
  <fix>3d</fix>
</trkpt>
<trkpt lat="40.072842" lon="-105.230575">
  <ele>1586.09</ele>
  <time>2026-08-28T19:12:43Z</time>
  <course>136.35</course>
  <speed>0.0</speed>
  <fix>3d</fix>
</trkpt>
<trkpt lat="40.072842" lon="-105.230575">
  <ele>1586.18</ele>
  <time>2026-08-28T19:12:43Z</time>
  <course>11.35</course>
  <speed>0.01414213562373095</speed>
  <fix>3d</fix>
</trkpt>
<trkpt lat="40.072842" lon="-105.230575">
  <ele>1586.09</ele>
  <time>2026-08-28T19:12:43Z</time>
  <course>136.38</course>
  <speed>0.0</speed>
  <fix>3d</fix>
</trkpt>
<trkpt lat="40.072842" lon="-105.230575">
  <ele>1586.18</ele>
  <time>2026-08-28T19:12:43Z</time>
  <course>11.35</course>
  <speed>0.01414213562373095</speed>
  <fix>3d</fix>
</trkpt>
<trkpt lat="40.072842" lon="-105.230575">
  <ele>1586.09</ele>
  <time>2026-08-28T19:12:43Z</time>
  <course>274.96</course>
  <speed>0.0</speed>
  <fix>3d</fix>
</trkpt>
<trkpt lat="40.072842" lon="-105.230575">
  <ele>1586.18</ele>
  <time>2026-08-28T19:12:43Z</time>
  <course>11.35</course>
  <speed>0.01414213562373095</speed>
  <fix>3d</fix>
</trkpt>
<trkpt lat="40.072842" lon="-105.230575">
  <ele>1586.09</ele>
  <time>2026-08-28T19:12:43Z</time>
  <course>186.84</course>
  <speed>0.0</speed>
  <fix>3d</fix>
</trkpt>
<trkpt lat="40.072842" lon="-105.230575">
  <ele>1586.18</ele>
  <time>2026-08-28T19:12:43Z</time>
  <course>11.35</course>
  <speed>0.01414213562373095</speed>
  <fix>3d</fix>
</trkpt>
<trkpt lat="40.072842" lon="-105.230575">
  <ele>1586.09</ele>
  <time>2026-08-28T19:12:43Z</time>
  <course>144.1</course>
  <speed>0.0</speed>
  <fix>3d</fix>
</trkpt>
<trkpt lat="40.0728419" lon="-105.230575">
  <ele>1586.17</ele>
  <time>2026-08-28T19:12:43Z</time>
  <course>11.35</course>
  <speed>0.01414213562373095</speed>
  <fix>3d</fix>
</trkpt>
<trkpt lat="40.072842" lon="-105.230575">
  <ele>1586.09</ele>
  <time>2026-08-28T19:12:43Z</time>
  <course>145.63</course>
  <speed>0.0</speed>
  <fix>3d</fix>
</trkpt>
<trkpt lat="40.0728419" lon="-105.2305749">
  <ele>1586.17</ele>
  <time>2026-08-28T19:12:43Z</time>
  <course>11.35</course>
  <speed>0.022360679774997897</speed>
  <fix>3d</fix>
</trkpt>
<trkpt lat="40.072842" lon="-105.230575">
  <ele>1586.09</ele>
  <time>2026-08-28T19:12:43Z</time>
  <course>147.01</course>
  <speed>0.0</speed>
  <fix>3d</fix>
</trkpt>
<trkpt lat="40.0728419" lon="-105.2305749">
  <ele>1586.17</ele>
  <time>2026-08-28T19:12:43Z</time>
  <course>11.36</course>
  <speed>0.022360679774997897</speed>
  <fix>3d</fix>
</trkpt>
<trkpt lat="40.072842" lon="-105.230575">
  <ele>1586.09</ele>
  <time>2026-08-28T19:12:43Z</time>
  <course>136.2</course>
  <speed>0.0</speed>
  <fix>3d</fix>
</trkpt>
<trkpt lat="40.0728419" lon="-105.2305749">
  <ele>1586.17</ele>
  <time>2026-08-28T19:12:43Z</time>
  <course>11.36</course>
  <speed>0.022360679774997897</speed>
  <fix>3d</fix>
</trkpt>
<trkpt lat="40.072842" lon="-105.230575">
  <ele>1586.09</ele>
  <time>2026-08-28T19:12:43Z</time>
  <course>136.08</course>
  <speed>0.0</speed>
  <fix>3d</fix>
</trkpt>
<trkpt lat="40.0728419" lon="-105.2305749">
  <ele>1586.17</ele>
  <time>2026-08-28T19:12:43Z</time>
  <course>11.36</course>
  <speed>0.022360679774997897</speed>
  <fix>3d</fix>
</trkpt>
<trkpt lat="40.072842" lon="-105.230575">
  <ele>1586.09</ele>
  <time>2026-08-28T19:12:43Z</time>
  <course>146.94</course>
  <speed>0.0</speed>
  <fix>3d</fix>
</trkpt>
<trkpt lat="40.0728419" lon="-105.2305749">
  <ele>1586.17</ele>
  <time>2026-08-28T19:12:43Z</time>
  <course>11.36</course>
  <speed>0.022360679774997897</speed>
  <fix>3d</fix>
</trkpt>
<trkpt lat="40.072842" lon="-105.230575">
  <ele>1586.09</ele>
  <time>2026-08-28T19:12:43Z</time>
  <course>240.41</course>
  <speed>0.0</speed>
  <fix>3d</fix>
</trkpt>
<trkpt lat="40.0728419" lon="-105.2305749">
  <ele>1586.17</ele>
  <time>2026-08-28T19:12:43Z</time>
  <course>11.36</course>
  <speed>0.022360679774997897</speed>
  <fix>3d</fix>
</trkpt>
<trkpt lat="40.072842" lon="-105.230575">
  <ele>1586.09</ele>
  <time>2026-08-28T19:12:43Z</time>
  <course>143.4</course>
  <speed>0.0</speed>
  <fix>3d</fix>
</trkpt>
<trkpt lat="40.0728419" lon="-105.2305749">
  <ele>1586.18</ele>
  <time>2026-08-28T19:12:43Z</time>
  <course>11.37</course>
  <speed>0.022360679774997897</speed>
  <fix>3d</fix>
</trkpt>
<trkpt lat="40.072842" lon="-105.230575">
  <ele>1586.09</ele>
  <time>2026-08-28T19:12:43Z</time>
  <course>143.63</course>
  <speed>0.0</speed>
  <fix>3d</fix>
</trkpt>
<trkpt lat="40.0728419" lon="-105.2305749">
  <ele>1586.18</ele>
  <time>2026-08-28T19:12:43Z</time>
  <course>11.37</course>
  <speed>0.022360679774997897</speed>
  <fix>3d</fix>
</trkpt>
<trkpt lat="40.072842" lon="-105.230575">
  <ele>1586.09</ele>
  <time>2026-08-28T19:12:43Z</time>
  <course>145.01</course>
  <speed>0.0</speed>
  <fix>3d</fix>
</trkpt>
<trkpt lat="40.0728419" lon="-105.2305749">
  <ele>1586.18</ele>
  <time>2026-08-28T19:12:43Z</time>
  <course>11.37</course>
  <speed>0.022360679774997897</speed>
  <fix>3d</fix>
</trkpt>
<trkpt lat="40.072842" lon="-105.230575">
  <ele>1586.09</ele>
  <time>2026-08-28T19:12:43Z</time>
  <course>144.79</course>
  <speed>0.0</speed>
  <fix>3d</fix>
</trkpt>
<trkpt lat="40.0728419" lon="-105.2305749">
  <ele>1586.18</ele>
  <time>2026-08-28T19:12:43Z</time>
  <course>11.37</course>
  <speed>0.022360679774997897</speed>
  <fix>3d</fix>
</trkpt>
<trkpt lat="40.072842" lon="-105.230575">
  <ele>1586.09</ele>
  <time>2026-08-28T19:12:43Z</time>
  <course>136.28</course>
  <speed>0.0</speed>
  <fix>3d</fix>
</trkpt>
<trkpt lat="40.0728419" lon="-105.2305749">
  <ele>1586.18</ele>
  <time>2026-08-28T19:12:43Z</time>
  <course>11.37</course>
  <speed>0.022360679774997897</speed>
  <fix>3d</fix>
</trkpt>
<trkpt lat="40.072842" lon="-105.230575">
  <ele>1586.09</ele>
  <time>2026-08-28T19:12:43Z</time>
  <course>135.99</course>
  <speed>0.0</speed>
  <fix>3d</fix>
</trkpt>
<trkpt lat="40.0728419" lon="-105.2305749">
  <ele>1586.18</ele>
  <time>2026-08-28T19:12:43Z</time>
  <course>11.37</course>
  <speed>0.022360679774997897</speed>
  <fix>3d</fix>
</trkpt>
<trkpt lat="40.072842" lon="-105.230575">
  <ele>1586.09</ele>
  <time>2026-08-28T19:12:43Z</time>
  <course>139.38</course>
  <speed>0.0</speed>
  <fix>3d</fix>
</trkpt>
<trkpt lat="40.0728419" lon="-105.2305749">
  <ele>1586.18</ele>
  <time>2026-08-28T19:12:43Z</time>
  <course>11.38</course>
  <speed>0.022360679774997897</speed>
  <fix>3d</fix>
</trkpt>
<trkpt lat="40.072842" lon="-105.230575">
  <ele>1586.09</ele>
  <time>2026-08-28T19:12:43Z</time>
  <course>266.68</course>
  <speed>0.0</speed>
  <fix>3d</fix>
</trkpt>
<trkpt lat="40.0728419" lon="-105.2305749">
  <ele>1586.18</ele>
  <time>2026-08-28T19:12:43Z</time>
  <course>11.38</course>
  <speed>0.022360679774997897</speed>
  <fix>3d</fix>
</trkpt>
<trkpt lat="40.072842" lon="-105.230575">
  <ele>1586.09</ele>
  <time>2026-08-28T19:12:43Z</time>
  <course>143.3</course>
  <speed>0.0</speed>
  <fix>3d</fix>
</trkpt>
<trkpt lat="40.0728419" lon="-105.2305749">
  <ele>1586.18</ele>
  <time>2026-08-28T19:12:43Z</time>
  <course>11.38</course>
  <speed>0.022360679774997897</speed>
  <fix>3d</fix>
</trkpt>
<trkpt lat="40.072842" lon="-105.230575">
  <ele>1586.09</ele>
  <time>2026-08-28T19:12:43Z</time>
  <course>142.3</course>
  <speed>0.0</speed>
  <fix>3d</fix>
</trkpt>
<trkpt lat="40.0728419" lon="-105.2305749">
  <ele>1586.18</ele>
  <time>2026-08-28T19:12:43Z</time>
  <course>11.38</course>
  <speed>0.022360679774997897</speed>
  <fix>3d</fix>
</trkpt>
<trkpt lat="40.072842" lon="-105.230575">
  <ele>1586.09</ele>
  <time>2026-08-28T19:12:43Z</time>
  <course>143.55</course>
  <speed>0.0</speed>
  <fix>3d</fix>
</trkpt>
<trkpt lat="40.0728419" lon="-105.2305749">
  <ele>1586.18</ele>
  <time>2026-08-28T19:12:43Z</time>
  <course>11.38</course>
  <speed>0.022360679774997897</speed>
  <fix>3d</fix>
</trkpt>
<trkpt lat="40.072842" lon="-105.230575">
  <ele>1586.09</ele>
  <time>2026-08-28T19:12:43Z</time>
  <course>143.54</course>
  <speed>0.0</speed>
  <fix>3d</fix>
</trkpt>
<trkpt lat="40.0728419" lon="-105.2305749">
  <ele>1586.18</ele>
  <time>2026-08-28T19:12:43Z</time>
  <course>11.38</course>
  <speed>0.022360679774997897</speed>
  <fix>3d</fix>
</trkpt>
<trkpt lat="40.072842" lon="-105.230575">
  <ele>1586.09</ele>
  <time>2026-08-28T19:12:43Z</time>
  <course>143.35</course>
  <speed>0.0</speed>
  <fix>3d</fix>
</trkpt>
<trkpt lat="40.0728419" lon="-105.2305749">
  <ele>1586.18</ele>
  <time>2026-08-28T19:12:43Z</time>
  <course>11.39</course>
  <speed>0.022360679774997897</speed>
  <fix>3d</fix>
</trkpt>
<trkpt lat="40.072842" lon="-105.230575">
  <ele>1586.09</ele>
  <time>2026-08-28T19:12:43Z</time>
  <course>143.38</course>
  <speed>0.0</speed>
  <fix>3d</fix>
</trkpt>
<trkpt lat="40.0728419" lon="-105.2305749">
  <ele>1586.18</ele>
  <time>2026-08-28T19:12:43Z</time>
  <course>11.39</course>
  <speed>0.022360679774997897</speed>
  <fix>3d</fix>
</trkpt>
<trkpt lat="40.072842" lon="-105.230575">
  <ele>1586.09</ele>
  <time>2026-08-28T19:12:43Z</time>
  <course>136.37</course>
  <speed>0.0</speed>
  <fix>3d</fix>
</trkpt>
<trkpt lat="40.0728419" lon="-105.2305749">
  <ele>1586.18</ele>
  <time>2026-08-28T19:12:43Z</time>
  <course>11.39</course>
  <speed>0.022360679774997897</speed>
  <fix>3d</fix>
</trkpt>
<trkpt lat="40.072842" lon="-105.230575">
  <ele>1586.09</ele>
  <time>2026-08-28T19:12:43Z</time>
  <course>136.43</course>
  <speed>0.0</speed>
  <fix>3d</fix>
</trkpt>
<trkpt lat="40.0728419" lon="-105.2305749">
  <ele>1586.18</ele>
  <time>2026-08-28T19:12:43Z</time>
  <course>11.39</course>
  <speed>0.022360679774997897</speed>
  <fix>3d</fix>
</trkpt>
<trkpt lat="40.072842" lon="-105.230575">
  <ele>1586.09</ele>
  <time>2026-08-28T19:12:43Z</time>
  <course>173.71</course>
  <speed>0.0</speed>
  <fix>3d</fix>
</trkpt>
<trkpt lat="40.0728419" lon="-105.2305749">
  <ele>1586.18</ele>
  <time>2026-08-28T19:12:43Z</time>
  <course>11.39</course>
  <speed>0.022360679774997897</speed>
  <fix>3d</fix>
</trkpt>
<trkpt lat="40.072842" lon="-105.230575">
  <ele>1586.09</ele>
  <time>2026-08-28T19:12:43Z</time>
  <course>149.06</course>
  <speed>0.0</speed>
  <fix>3d</fix>
</trkpt>
<trkpt lat="40.0728419" lon="-105.2305749">
  <ele>1586.18</ele>
  <time>2026-08-28T19:12:43Z</time>
  <course>11.39</course>
  <speed>0.022360679774997897</speed>
  <fix>3d</fix>
</trkpt>
<trkpt lat="40.072842" lon="-105.230575">
  <ele>1586.09</ele>
  <time>2026-08-28T19:12:43Z</time>
  <course>141.36</course>
  <speed>0.0</speed>
  <fix>3d</fix>
</trkpt>
<trkpt lat="40.0728419" lon="-105.2305749">
  <ele>1586.18</ele>
  <time>2026-08-28T19:12:43Z</time>
  <course>11.39</course>
  <speed>0.022360679774997897</speed>
  <fix>3d</fix>
</trkpt>
<trkpt lat="40.072842" lon="-105.230575">
  <ele>1586.09</ele>
  <time>2026-08-28T19:12:43Z</time>
  <course>142.12</course>
  <speed>0.0</speed>
  <fix>3d</fix>
</trkpt>
<trkpt lat="40.0728419" lon="-105.2305749">
  <ele>1586.18</ele>
  <time>2026-08-28T19:12:43Z</time>
  <course>11.4</course>
  <speed>0.022360679774997897</speed>
  <fix>3d</fix>
</trkpt>
<trkpt lat="40.072842" lon="-105.230575">
  <ele>1586.09</ele>
  <time>2026-08-28T19:12:43Z</time>
  <course>154.47</course>
  <speed>0.0</speed>
  <fix>3d</fix>
</trkpt>
<trkpt lat="40.0728419" lon="-105.2305749">
  <ele>1586.18</ele>
  <time>2026-08-28T19:12:43Z</time>
  <course>11.4</course>
  <speed>0.022360679774997897</speed>
  <fix>3d</fix>
</trkpt>
<trkpt lat="40.072842" lon="-105.230575">
  <ele>1586.09</ele>
  <time>2026-08-28T19:12:43Z</time>
  <course>214.11</course>
  <speed>0.0</speed>
  <fix>3d</fix>
</trkpt>
<trkpt lat="40.0728419" lon="-105.2305749">
  <ele>1586.18</ele>
  <time>2026-08-28T19:12:43Z</time>
  <course>11.4</course>
  <speed>0.022360679774997897</speed>
  <fix>3d</fix>
</trkpt>
<trkpt lat="40.072842" lon="-105.230575">
  <ele>1586.09</ele>
  <time>2026-08-28T19:12:43Z</time>
  <course>216.1</course>
  <speed>0.0</speed>
  <fix>3d</fix>
</trkpt>
<trkpt lat="40.0728419" lon="-105.2305749">
  <ele>1586.17</ele>
  <time>2026-08-28T19:12:43Z</time>
  <course>11.4</course>
  <speed>0.022360679774997897</speed>
  <fix>3d</fix>
</trkpt>
<trkpt lat="40.072842" lon="-105.230575">
  <ele>1586.09</ele>
  <time>2026-08-28T19:12:43Z</time>
  <course>173.19</course>
  <speed>0.0</speed>
  <fix>3d</fix>
</trkpt>
<trkpt lat="40.0728419" lon="-105.2305749">
  <ele>1586.17</ele>
  <time>2026-08-28T19:12:43Z</time>
  <course>11.4</course>
  <speed>0.022360679774997897</speed>
  <fix>3d</fix>
</trkpt>
<trkpt lat="40.072842" lon="-105.230575">
  <ele>1586.09</ele>
  <time>2026-08-28T19:12:43Z</time>
  <course>103.85</course>
  <speed>0.0</speed>
  <fix>3d</fix>
</trkpt>
<trkpt lat="40.0728419" lon="-105.2305749">
  <ele>1586.17</ele>
  <time>2026-08-28T19:12:43Z</time>
  <course>11.4</course>
  <speed>0.022360679774997897</speed>
  <fix>3d</fix>
</trkpt>
<trkpt lat="40.072842" lon="-105.230575">
  <ele>1586.09</ele>
  <time>2026-08-28T19:12:43Z</time>
  <course>151.03</course>
  <speed>0.0</speed>
  <fix>3d</fix>
</trkpt>
<trkpt lat="40.0728419" lon="-105.2305749">
  <ele>1586.17</ele>
  <time>2026-08-28T19:12:43Z</time>
  <course>11.4</course>
  <speed>0.022360679774997897</speed>
  <fix>3d</fix>
</trkpt>
<trkpt lat="40.072842" lon="-105.230575">
  <ele>1586.09</ele>
  <time>2026-08-28T19:12:43Z</time>
  <course>143.04</course>
  <speed>0.0</speed>
  <fix>3d</fix>
</trkpt>
<trkpt lat="40.0728419" lon="-105.2305749">
  <ele>1586.17</ele>
  <time>2026-08-28T19:12:43Z</time>
  <course>11.4</course>
  <speed>0.022360679774997897</speed>
  <fix>3d</fix>
</trkpt>
<trkpt lat="40.072842" lon="-105.230575">
  <ele>1586.09</ele>
  <time>2026-08-28T19:12:43Z</time>
  <course>137.21</course>
  <speed>0.0</speed>
  <fix>3d</fix>
</trkpt>
<trkpt lat="40.0728419" lon="-105.2305749">
  <ele>1586.18</ele>
  <time>2026-08-28T19:12:43Z</time>
  <course>11.4</course>
  <speed>0.022360679774997897</speed>
  <fix>3d</fix>
</trkpt>
<trkpt lat="40.072842" lon="-105.230575">
  <ele>1586.09</ele>
  <time>2026-08-28T19:12:43Z</time>
  <course>138.44</course>
  <speed>0.0</speed>
  <fix>3d</fix>
</trkpt>
<trkpt lat="40.0728419" lon="-105.2305749">
  <ele>1586.18</ele>
  <time>2026-08-28T19:12:43Z</time>
  <course>11.4</course>
  <speed>0.022360679774997897</speed>
  <fix>3d</fix>
</trkpt>
<trkpt lat="40.072842" lon="-105.230575">
  <ele>1586.09</ele>
  <time>2026-08-28T19:12:43Z</time>
  <course>207.88</course>
  <speed>0.0</speed>
  <fix>3d</fix>
</trkpt>
<trkpt lat="40.0728419" lon="-105.2305749">
  <ele>1586.18</ele>
  <time>2026-08-28T19:12:43Z</time>
  <course>11.4</course>
  <speed>0.022360679774997897</speed>
  <fix>3d</fix>
</trkpt>
<trkpt lat="40.072842" lon="-105.230575">
  <ele>1586.09</ele>
  <time>2026-08-28T19:12:43Z</time>
  <course>151.88</course>
  <speed>0.0</speed>
  <fix>3d</fix>
</trkpt>
<trkpt lat="40.0728419" lon="-105.2305749">
  <ele>1586.18</ele>
  <time>2026-08-28T19:12:43Z</time>
  <course>11.4</course>
  <speed>0.022360679774997897</speed>
  <fix>3d</fix>
</trkpt>
<trkpt lat="40.072842" lon="-105.230575">
  <ele>1586.09</ele>
  <time>2026-08-28T19:12:43Z</time>
  <course>146.19</course>
  <speed>0.0</speed>
  <fix>3d</fix>
</trkpt>
<trkpt lat="40.0728419" lon="-105.2305749">
  <ele>1586.18</ele>
  <time>2026-08-28T19:12:43Z</time>
  <course>11.4</course>
  <speed>0.022360679774997897</speed>
  <fix>3d</fix>
</trkpt>
<trkpt lat="40.072842" lon="-105.230575">
  <ele>1586.09</ele>
  <time>2026-08-28T19:12:43Z</time>
  <course>147.71</course>
  <speed>0.0</speed>
  <fix>3d</fix>
</trkpt>
<trkpt lat="40.0728419" lon="-105.2305749">
  <ele>1586.18</ele>
  <time>2026-08-28T19:12:43Z</time>
  <course>11.41</course>
  <speed>0.022360679774997897</speed>
  <fix>3d</fix>
</trkpt>
<trkpt lat="40.072842" lon="-105.230575">
  <ele>1586.09</ele>
  <time>2026-08-28T19:12:43Z</time>
  <course>148.17</course>
  <speed>0.0</speed>
  <fix>3d</fix>
</trkpt>
<trkpt lat="40.0728419" lon="-105.2305749">
  <ele>1586.18</ele>
  <time>2026-08-28T19:12:43Z</time>
  <course>11.41</course>
  <speed>0.022360679774997897</speed>
  <fix>3d</fix>
</trkpt>
<trkpt lat="40.072842" lon="-105.230575">
  <ele>1586.09</ele>
  <time>2026-08-28T19:12:43Z</time>
  <course>147.88</course>
  <speed>0.0</speed>
  <fix>3d</fix>
</trkpt>
<trkpt lat="40.0728419" lon="-105.2305749">
  <ele>1586.19</ele>
  <time>2026-08-28T19:12:43Z</time>
  <course>11.41</course>
  <speed>0.022360679774997897</speed>
  <fix>3d</fix>
</trkpt>
<trkpt lat="40.072842" lon="-105.230575">
  <ele>1586.09</ele>
  <time>2026-08-28T19:12:43Z</time>
  <course>147.86</course>
  <speed>0.0</speed>
  <fix>3d</fix>
</trkpt>
<trkpt lat="40.0728419" lon="-105.2305749">
  <ele>1586.19</ele>
  <time>2026-08-28T19:12:43Z</time>
  <course>11.41</course>
  <speed>0.022360679774997897</speed>
  <fix>3d</fix>
</trkpt>
<trkpt lat="40.072842" lon="-105.230575">
  <ele>1586.09</ele>
  <time>2026-08-28T19:12:43Z</time>
  <course>147.9</course>
  <speed>0.0</speed>
  <fix>3d</fix>
</trkpt>
<trkpt lat="40.0728419" lon="-105.2305749">
  <ele>1586.19</ele>
  <time>2026-08-28T19:12:43Z</time>
  <course>11.41</course>
  <speed>0.022360679774997897</speed>
  <fix>3d</fix>
</trkpt>
<trkpt lat="40.072842" lon="-105.230575">
  <ele>1586.09</ele>
  <time>2026-08-28T19:12:43Z</time>
  <course>147.9</course>
  <speed>0.0</speed>
  <fix>3d</fix>
</trkpt>
<trkpt lat="40.0728419" lon="-105.2305749">
  <ele>1586.19</ele>
  <time>2026-08-28T19:12:43Z</time>
  <course>11.41</course>
  <speed>0.022360679774997897</speed>
  <fix>3d</fix>
</trkpt>
<trkpt lat="40.072842" lon="-105.230575">
  <ele>1586.09</ele>
  <time>2026-08-28T19:12:43Z</time>
  <course>147.9</course>
  <speed>0.0</speed>
  <fix>3d</fix>
</trkpt>
<trkpt lat="40.0728419" lon="-105.2305749">
  <ele>1586.19</ele>
  <time>2026-08-28T19:12:43Z</time>
  <course>11.41</course>
  <speed>0.022360679774997897</speed>
  <fix>3d</fix>
</trkpt>
<trkpt lat="40.072842" lon="-105.230575">
  <ele>1586.09</ele>
  <time>2026-08-28T19:12:43Z</time>
  <course>147.9</course>
  <speed>0.0</speed>
  <fix>3d</fix>
</trkpt>
<trkpt lat="40.0728419" lon="-105.2305749">
  <ele>1586.19</ele>
  <time>2026-08-28T19:12:43Z</time>
  <course>11.41</course>
  <speed>0.022360679774997897</speed>
  <fix>3d</fix>
</trkpt>
<trkpt lat="40.072842" lon="-105.230575">
  <ele>1586.09</ele>
  <time>2026-08-28T19:12:43Z</time>
  <course>138.0</course>
  <speed>0.0</speed>
  <fix>3d</fix>
</trkpt>
<trkpt lat="40.0728419" lon="-105.2305749">
  <ele>1586.18</ele>
  <time>2026-08-28T19:12:43Z</time>
  <course>11.41</course>
  <speed>0.022360679774997897</speed>
  <fix>3d</fix>
</trkpt>
<trkpt lat="40.072842" lon="-105.230575">
  <ele>1586.09</ele>
  <time>2026-08-28T19:12:43Z</time>
  <course>136.99</course>
  <speed>0.0</speed>
  <fix>3d</fix>
</trkpt>
<trkpt lat="40.0728419" lon="-105.2305749">
  <ele>1586.18</ele>
  <time>2026-08-28T19:12:43Z</time>
  <course>11.41</course>
  <speed>0.022360679774997897</speed>
  <fix>3d</fix>
</trkpt>
<trkpt lat="40.072842" lon="-105.230575">
  <ele>1586.09</ele>
  <time>2026-08-28T19:12:43Z</time>
  <course>139.96</course>
  <speed>0.0</speed>
  <fix>3d</fix>
</trkpt>
<trkpt lat="40.0728419" lon="-105.2305749">
  <ele>1586.18</ele>
  <time>2026-08-28T19:12:43Z</time>
  <course>11.41</course>
  <speed>0.022360679774997897</speed>
  <fix>3d</fix>
</trkpt>
<trkpt lat="40.072842" lon="-105.230575">
  <ele>1586.09</ele>
  <time>2026-08-28T19:12:43Z</time>
  <course>190.38</course>
  <speed>0.0</speed>
  <fix>3d</fix>
</trkpt>
<trkpt lat="40.0728419" lon="-105.2305749">
  <ele>1586.18</ele>
  <time>2026-08-28T19:12:43Z</time>
  <course>11.41</course>
  <speed>0.022360679774997897</speed>
  <fix>3d</fix>
</trkpt>
<trkpt lat="40.072842" lon="-105.230575">
  <ele>1586.09</ele>
  <time>2026-08-28T19:12:43Z</time>
  <course>147.81</course>
  <speed>0.0</speed>
  <fix>3d</fix>
</trkpt>
<trkpt lat="40.0728419" lon="-105.2305749">
  <ele>1586.18</ele>
  <time>2026-08-28T19:12:43Z</time>
  <course>11.41</course>
  <speed>0.022360679774997897</speed>
  <fix>3d</fix>
</trkpt>
<trkpt lat="40.072842" lon="-105.230575">
  <ele>1586.09</ele>
  <time>2026-08-28T19:12:43Z</time>
  <course>145.46</course>
  <speed>0.0</speed>
  <fix>3d</fix>
</trkpt>
<trkpt lat="40.0728419" lon="-105.2305749">
  <ele>1586.18</ele>
  <time>2026-08-28T19:12:43Z</time>
  <course>11.41</course>
  <speed>0.01414213562373095</speed>
  <fix>3d</fix>
</trkpt>
<trkpt lat="40.072842" lon="-105.230575">
  <ele>1586.09</ele>
  <time>2026-08-28T19:12:43Z</time>
  <course>146.77</course>
  <speed>0.0</speed>
  <fix>3d</fix>
</trkpt>
<trkpt lat="40.0728419" lon="-105.2305749">
  <ele>1586.18</ele>
  <time>2026-08-28T19:12:43Z</time>
  <course>11.41</course>
  <speed>0.01414213562373095</speed>
  <fix>3d</fix>
</trkpt>
<trkpt lat="40.072842" lon="-105.230575">
  <ele>1586.09</ele>
  <time>2026-08-28T19:12:43Z</time>
  <course>146.93</course>
  <speed>0.0</speed>
  <fix>3d</fix>
</trkpt>
<trkpt lat="40.0728419" lon="-105.2305749">
  <ele>1586.18</ele>
  <time>2026-08-28T19:12:43Z</time>
  <course>11.41</course>
  <speed>0.01414213562373095</speed>
  <fix>3d</fix>
</trkpt>
<trkpt lat="40.072842" lon="-105.230575">
  <ele>1586.09</ele>
  <time>2026-08-28T19:12:43Z</time>
  <course>146.71</course>
  <speed>0.0</speed>
  <fix>3d</fix>
</trkpt>
<trkpt lat="40.0728419" lon="-105.2305749">
  <ele>1586.18</ele>
  <time>2026-08-28T19:12:43Z</time>
  <course>11.41</course>
  <speed>0.01414213562373095</speed>
  <fix>3d</fix>
</trkpt>
<trkpt lat="40.072842" lon="-105.230575">
  <ele>1586.09</ele>
  <time>2026-08-28T19:12:43Z</time>
  <course>146.72</course>
  <speed>0.0</speed>
  <fix>3d</fix>
</trkpt>
<trkpt lat="40.0728419" lon="-105.2305749">
  <ele>1586.19</ele>
  <time>2026-08-28T19:12:43Z</time>
  <course>11.42</course>
  <speed>0.01414213562373095</speed>
  <fix>3d</fix>
</trkpt>
<trkpt lat="40.072842" lon="-105.230575">
  <ele>1586.09</ele>
  <time>2026-08-28T19:12:43Z</time>
  <course>146.75</course>
  <speed>0.0</speed>
  <fix>3d</fix>
</trkpt>
<trkpt lat="40.0728419" lon="-105.2305749">
  <ele>1586.19</ele>
  <time>2026-08-28T19:12:43Z</time>
  <course>11.42</course>
  <speed>0.01414213562373095</speed>
  <fix>3d</fix>
</trkpt>
<trkpt lat="40.072842" lon="-105.230575">
  <ele>1586.09</ele>
  <time>2026-08-28T19:12:43Z</time>
  <course>146.75</course>
  <speed>0.0</speed>
  <fix>3d</fix>
</trkpt>
<trkpt lat="40.0728419" lon="-105.2305749">
  <ele>1586.19</ele>
  <time>2026-08-28T19:12:43Z</time>
  <course>11.42</course>
  <speed>0.01414213562373095</speed>
  <fix>3d</fix>
</trkpt>
<trkpt lat="40.072842" lon="-105.230575">
  <ele>1586.09</ele>
  <time>2026-08-28T19:12:43Z</time>
  <course>146.75</course>
  <speed>0.0</speed>
  <fix>3d</fix>
</trkpt>
<trkpt lat="40.0728419" lon="-105.2305749">
  <ele>1586.19</ele>
  <time>2026-08-28T19:12:43Z</time>
  <course>11.42</course>
  <speed>0.01414213562373095</speed>
  <fix>3d</fix>
</trkpt>
<trkpt lat="40.072842" lon="-105.230575">
  <ele>1586.09</ele>
  <time>2026-08-28T19:12:43Z</time>
  <course>146.76</course>
  <speed>0.0</speed>
  <fix>3d</fix>
</trkpt>
<trkpt lat="40.0728419" lon="-105.2305749">
  <ele>1586.19</ele>
  <time>2026-08-28T19:12:43Z</time>
  <course>11.42</course>
  <speed>0.01414213562373095</speed>
  <fix>3d</fix>
</trkpt>
<trkpt lat="40.072842" lon="-105.230575">
  <ele>1586.09</ele>
  <time>2026-08-28T19:12:43Z</time>
  <course>146.76</course>
  <speed>0.0</speed>
  <fix>3d</fix>
</trkpt>
<trkpt lat="40.0728419" lon="-105.2305749">
  <ele>1586.19</ele>
  <time>2026-08-28T19:12:43Z</time>
  <course>11.42</course>
  <speed>0.01414213562373095</speed>
  <fix>3d</fix>
</trkpt>
<trkpt lat="40.072842" lon="-105.230575">
  <ele>1586.09</ele>
  <time>2026-08-28T19:12:43Z</time>
  <course>146.76</course>
  <speed>0.0</speed>
  <fix>3d</fix>
</trkpt>
<trkpt lat="40.0728419" lon="-105.2305749">
  <ele>1586.19</ele>
  <time>2026-08-28T19:12:43Z</time>
  <course>11.42</course>
  <speed>0.01414213562373095</speed>
  <fix>3d</fix>
</trkpt>
<trkpt lat="40.072842" lon="-105.230575">
  <ele>1586.09</ele>
  <time>2026-08-28T19:12:43Z</time>
  <course>146.77</course>
  <speed>0.0</speed>
  <fix>3d</fix>
</trkpt>
<trkpt lat="40.0728419" lon="-105.2305749">
  <ele>1586.19</ele>
  <time>2026-08-28T19:12:43Z</time>
  <course>11.42</course>
  <speed>0.01414213562373095</speed>
  <fix>3d</fix>
</trkpt>
<trkpt lat="40.072842" lon="-105.230575">
  <ele>1586.09</ele>
  <time>2026-08-28T19:12:43Z</time>
  <course>137.74</course>
  <speed>0.0</speed>
  <fix>3d</fix>
</trkpt>
<trkpt lat="40.0728419" lon="-105.2305749">
  <ele>1586.19</ele>
  <time>2026-08-28T19:12:43Z</time>
  <course>11.42</course>
  <speed>0.01414213562373095</speed>
  <fix>3d</fix>
</trkpt>
<trkpt lat="40.072842" lon="-105.230575">
  <ele>1586.09</ele>
  <time>2026-08-28T19:12:43Z</time>
  <course>137.9</course>
  <speed>0.0</speed>
  <fix>3d</fix>
</trkpt>
<trkpt lat="40.0728419" lon="-105.2305749">
  <ele>1586.19</ele>
  <time>2026-08-28T19:12:43Z</time>
  <course>11.42</course>
  <speed>0.01414213562373095</speed>
  <fix>3d</fix>
</trkpt>
<trkpt lat="40.072842" lon="-105.230575">
  <ele>1586.09</ele>
  <time>2026-08-28T19:12:43Z</time>
  <course>164.65</course>
  <speed>0.0</speed>
  <fix>3d</fix>
</trkpt>
<trkpt lat="40.0728419" lon="-105.2305749">
  <ele>1586.19</ele>
  <time>2026-08-28T19:12:43Z</time>
  <course>11.42</course>
  <speed>0.01414213562373095</speed>
  <fix>3d</fix>
</trkpt>
<trkpt lat="40.072842" lon="-105.230575">
  <ele>1586.09</ele>
  <time>2026-08-28T19:12:43Z</time>
  <course>150.35</course>
  <speed>0.0</speed>
  <fix>3d</fix>
</trkpt>
<trkpt lat="40.0728419" lon="-105.2305749">
  <ele>1586.18</ele>
  <time>2026-08-28T19:12:43Z</time>
  <course>11.42</course>
  <speed>0.01414213562373095</speed>
  <fix>3d</fix>
</trkpt>
<trkpt lat="40.072842" lon="-105.230575">
  <ele>1586.09</ele>
  <time>2026-08-28T19:12:43Z</time>
  <course>144.64</course>
  <speed>0.0</speed>
  <fix>3d</fix>
</trkpt>
<trkpt lat="40.0728419" lon="-105.2305749">
  <ele>1586.18</ele>
  <time>2026-08-28T19:12:43Z</time>
  <course>11.43</course>
  <speed>0.01414213562373095</speed>
  <fix>3d</fix>
</trkpt>
<trkpt lat="40.072842" lon="-105.230575">
  <ele>1586.09</ele>
  <time>2026-08-28T19:12:43Z</time>
  <course>145.55</course>
  <speed>0.0</speed>
  <fix>3d</fix>
</trkpt>
<trkpt lat="40.0728419" lon="-105.2305749">
  <ele>1586.18</ele>
  <time>2026-08-28T19:12:43Z</time>
  <course>11.43</course>
  <speed>0.01414213562373095</speed>
  <fix>3d</fix>
</trkpt>
<trkpt lat="40.072842" lon="-105.230575">
  <ele>1586.09</ele>
  <time>2026-08-28T19:12:43Z</time>
  <course>146.03</course>
  <speed>0.0</speed>
  <fix>3d</fix>
</trkpt>
<trkpt lat="40.0728419" lon="-105.2305749">
  <ele>1586.18</ele>
  <time>2026-08-28T19:12:43Z</time>
  <course>11.43</course>
  <speed>0.01414213562373095</speed>
  <fix>3d</fix>
</trkpt>
<trkpt lat="40.072842" lon="-105.230575">
  <ele>1586.09</ele>
  <time>2026-08-28T19:12:43Z</time>
  <course>145.83</course>
  <speed>0.0</speed>
  <fix>3d</fix>
</trkpt>
<trkpt lat="40.0728419" lon="-105.2305749">
  <ele>1586.18</ele>
  <time>2026-08-28T19:12:43Z</time>
  <course>11.43</course>
  <speed>0.01414213562373095</speed>
  <fix>3d</fix>
</trkpt>
<trkpt lat="40.072842" lon="-105.230575">
  <ele>1586.09</ele>
  <time>2026-08-28T19:12:43Z</time>
  <course>145.79</course>
  <speed>0.0</speed>
  <fix>3d</fix>
</trkpt>
<trkpt lat="40.0728419" lon="-105.2305749">
  <ele>1586.18</ele>
  <time>2026-08-28T19:12:43Z</time>
  <course>11.43</course>
  <speed>0.01414213562373095</speed>
  <fix>3d</fix>
</trkpt>
<trkpt lat="40.072842" lon="-105.230575">
  <ele>1586.09</ele>
  <time>2026-08-28T19:12:43Z</time>
  <course>145.83</course>
  <speed>0.0</speed>
  <fix>3d</fix>
</trkpt>
<trkpt lat="40.0728419" lon="-105.2305749">
  <ele>1586.18</ele>
  <time>2026-08-28T19:12:43Z</time>
  <course>11.43</course>
  <speed>0.01414213562373095</speed>
  <fix>3d</fix>
</trkpt>
<trkpt lat="40.072842" lon="-105.230575">
  <ele>1586.09</ele>
  <time>2026-08-28T19:12:43Z</time>
  <course>145.83</course>
  <speed>0.0</speed>
  <fix>3d</fix>
</trkpt>
<trkpt lat="40.0728419" lon="-105.2305749">
  <ele>1586.18</ele>
  <time>2026-08-28T19:12:43Z</time>
  <course>11.43</course>
  <speed>0.01414213562373095</speed>
  <fix>3d</fix>
</trkpt>
<trkpt lat="40.072842" lon="-105.230575">
  <ele>1586.09</ele>
  <time>2026-08-28T19:12:43Z</time>
  <course>145.83</course>
  <speed>0.0</speed>
  <fix>3d</fix>
</trkpt>
<trkpt lat="40.0728419" lon="-105.2305749">
  <ele>1586.17</ele>
  <time>2026-08-28T19:12:43Z</time>
  <course>11.43</course>
  <speed>0.01414213562373095</speed>
  <fix>3d</fix>
</trkpt>
<trkpt lat="40.072842" lon="-105.230575">
  <ele>1586.09</ele>
  <time>2026-08-28T19:12:43Z</time>
  <course>145.83</course>
  <speed>0.0</speed>
  <fix>3d</fix>
</trkpt>
<trkpt lat="40.0728419" lon="-105.2305749">
  <ele>1586.17</ele>
  <time>2026-08-28T19:12:43Z</time>
  <course>11.43</course>
  <speed>0.01414213562373095</speed>
  <fix>3d</fix>
</trkpt>
<trkpt lat="40.072842" lon="-105.230575">
  <ele>1586.09</ele>
  <time>2026-08-28T19:12:43Z</time>
  <course>145.84</course>
  <speed>0.0</speed>
  <fix>3d</fix>
</trkpt>
<trkpt lat="40.0728419" lon="-105.2305749">
  <ele>1586.18</ele>
  <time>2026-08-28T19:12:43Z</time>
  <course>11.43</course>
  <speed>0.01414213562373095</speed>
  <fix>3d</fix>
</trkpt>
<trkpt lat="40.072842" lon="-105.230575">
  <ele>1586.09</ele>
  <time>2026-08-28T19:12:43Z</time>
  <course>325.56</course>
  <speed>0.0</speed>
  <fix>3d</fix>
</trkpt>
<trkpt lat="40.0728419" lon="-105.2305749">
  <ele>1586.2</ele>
  <time>2026-08-28T19:12:43Z</time>
  <course>11.43</course>
  <speed>0.01414213562373095</speed>
  <fix>3d</fix>
</trkpt>
<trkpt lat="40.072842" lon="-105.230575">
  <ele>1586.11</ele>
  <time>2026-08-28T19:12:43Z</time>
  <course>325.52</course>
  <speed>0.0</speed>
  <fix>3d</fix>
</trkpt>
<trkpt lat="40.0728419" lon="-105.2305749">
  <ele>1586.22</ele>
  <time>2026-08-28T19:12:43Z</time>
  <course>11.43</course>
  <speed>0.01414213562373095</speed>
  <fix>3d</fix>
</trkpt>
<trkpt lat="40.072842" lon="-105.230575">
  <ele>1586.13</ele>
  <time>2026-08-28T19:12:43Z</time>
  <course>325.08</course>
  <speed>0.0</speed>
  <fix>3d</fix>
</trkpt>
<trkpt lat="40.0728419" lon="-105.2305749">
  <ele>1586.24</ele>
  <time>2026-08-28T19:12:43Z</time>
  <course>11.42</course>
  <speed>0.01414213562373095</speed>
  <fix>3d</fix>
</trkpt>
<trkpt lat="40.072842" lon="-105.230575">
  <ele>1586.15</ele>
  <time>2026-08-28T19:12:43Z</time>
  <course>146.06</course>
  <speed>0.0</speed>
  <fix>3d</fix>
</trkpt>
<trkpt lat="40.0728419" lon="-105.2305749">
  <ele>1586.24</ele>
  <time>2026-08-28T19:12:43Z</time>
  <course>11.42</course>
  <speed>0.01414213562373095</speed>
  <fix>3d</fix>
</trkpt>
<trkpt lat="40.0728419" lon="-105.2305749">
  <ele>1586.25</ele>
  <time>2026-08-28T19:12:43Z</time>
  <course>11.42</course>
  <speed>0.01414213562373095</speed>
  <fix>3d</fix>
</trkpt>
<trkpt lat="40.072842" lon="-105.230575">
  <ele>1586.16</ele>
  <time>2026-08-28T19:12:43Z</time>
  <course>318.66</course>
  <speed>0.0</speed>
  <fix>3d</fix>
</trkpt>
<trkpt lat="40.0728419" lon="-105.2305749">
  <ele>1586.26</ele>
  <time>2026-08-28T19:12:43Z</time>
  <course>11.42</course>
  <speed>0.01414213562373095</speed>
  <fix>3d</fix>
</trkpt>
<trkpt lat="40.0728419" lon="-105.2305749">
  <ele>1586.27</ele>
  <time>2026-08-28T19:12:43Z</time>
  <course>11.42</course>
  <speed>0.01414213562373095</speed>
  <fix>3d</fix>
</trkpt>
<trkpt lat="40.072842" lon="-105.230575">
  <ele>1586.17</ele>
  <time>2026-08-28T19:12:43Z</time>
  <course>323.67</course>
  <speed>0.0</speed>
  <fix>3d</fix>
</trkpt>
<trkpt lat="40.0728419" lon="-105.2305749">
  <ele>1586.27</ele>
  <time>2026-08-28T19:12:43Z</time>
  <course>11.42</course>
  <speed>0.01414213562373095</speed>
  <fix>3d</fix>
</trkpt>
<trkpt lat="40.0728419" lon="-105.2305749">
  <ele>1586.28</ele>
  <time>2026-08-28T19:12:43Z</time>
  <course>11.42</course>
  <speed>0.01414213562373095</speed>
  <fix>3d</fix>
</trkpt>
<trkpt lat="40.072842" lon="-105.230575">
  <ele>1586.19</ele>
  <time>2026-08-28T19:12:43Z</time>
  <course>318.56</course>
  <speed>0.0</speed>
  <fix>3d</fix>
</trkpt>
<trkpt lat="40.0728419" lon="-105.2305749">
  <ele>1586.28</ele>
  <time>2026-08-28T19:12:43Z</time>
  <course>11.42</course>
  <speed>0.01414213562373095</speed>
  <fix>3d</fix>
</trkpt>
<trkpt lat="40.0728419" lon="-105.2305749">
  <ele>1586.29</ele>
  <time>2026-08-28T19:12:43Z</time>
  <course>11.41</course>
  <speed>0.01414213562373095</speed>
  <fix>3d</fix>
</trkpt>
<trkpt lat="40.072842" lon="-105.230575">
  <ele>1586.2</ele>
  <time>2026-08-28T19:12:43Z</time>
  <course>318.26</course>
  <speed>0.0</speed>
  <fix>3d</fix>
</trkpt>
<trkpt lat="40.0728419" lon="-105.2305749">
  <ele>1586.3</ele>
  <time>2026-08-28T19:12:43Z</time>
  <course>11.41</course>
  <speed>0.01414213562373095</speed>
  <fix>3d</fix>
</trkpt>
<trkpt lat="40.0728419" lon="-105.2305749">
  <ele>1586.34</ele>
  <time>2026-08-28T19:12:43Z</time>
  <course>11.42</course>
  <speed>0.0</speed>
  <fix>3d</fix>
</trkpt>
<trkpt lat="40.072842" lon="-105.230575">
  <ele>1586.21</ele>
  <time>2026-08-28T19:12:43Z</time>
  <course>315.03</course>
  <speed>0.0</speed>
  <fix>3d</fix>
</trkpt>
<trkpt lat="40.0728419" lon="-105.2305749">
  <ele>1586.36</ele>
  <time>2026-08-28T19:12:43Z</time>
  <course>11.42</course>
  <speed>0.01</speed>
  <fix>3d</fix>
</trkpt>
<trkpt lat="40.0728419" lon="-105.2305749">
  <ele>1586.58</ele>
  <time>2026-08-28T19:12:43Z</time>
  <course>11.35</course>
  <speed>0.0670820393249937</speed>
  <fix>3d</fix>
</trkpt>
<trkpt lat="40.072842" lon="-105.230575">
  <ele>1586.3</ele>
  <time>2026-08-28T19:12:43Z</time>
  <course>320.44</course>
  <speed>0.04</speed>
  <fix>3d</fix>
</trkpt>
<trkpt lat="40.0728419" lon="-105.2305749">
  <ele>1586.62</ele>
  <time>2026-08-28T19:12:43Z</time>
  <course>11.34</course>
  <speed>0.0670820393249937</speed>
  <fix>3d</fix>
</trkpt>
<trkpt lat="40.0728421" lon="-105.2305751">
  <ele>1586.89</ele>
  <time>2026-08-28T19:12:43Z</time>
  <course>11.3</course>
  <speed>0.11661903789690602</speed>
  <fix>3d</fix>
</trkpt>
<trkpt lat="40.072842" lon="-105.2305751">
  <ele>1586.54</ele>
  <time>2026-08-28T19:12:43Z</time>
  <course>318.22</course>
  <speed>0.1</speed>
  <fix>3d</fix>
</trkpt>
<trkpt lat="40.0728421" lon="-105.2305751">
  <ele>1586.93</ele>
  <time>2026-08-28T19:12:43Z</time>
  <course>11.3</course>
  <speed>0.130384048104053</speed>
  <fix>3d</fix>
</trkpt>
<trkpt lat="40.0728423" lon="-105.2305753">
  <ele>1587.19</ele>
  <time>2026-08-28T19:12:43Z</time>
  <course>11.27</course>
  <speed>0.1664331697709324</speed>
  <fix>3d</fix>
</trkpt>
<trkpt lat="40.0728422" lon="-105.2305753">
  <ele>1586.85</ele>
  <time>2026-08-28T19:12:43Z</time>
  <course>316.45</course>
  <speed>0.15</speed>
  <fix>3d</fix>
</trkpt>
<trkpt lat="40.0728423" lon="-105.2305753">
  <ele>1587.19</ele>
  <time>2026-08-28T19:12:43Z</time>
  <course>11.27</course>
  <speed>0.1664331697709324</speed>
  <fix>3d</fix>
</trkpt>
<trkpt lat="40.0728426" lon="-105.2305756">
  <ele>1587.5</ele>
  <time>2026-08-28T19:12:43Z</time>
  <course>11.26</course>
  <speed>0.20808652046684814</speed>
  <fix>3d</fix>
</trkpt>
<trkpt lat="40.0728425" lon="-105.2305756">
  <ele>1587.16</ele>
  <time>2026-08-28T19:12:43Z</time>
  <course>316.01</course>
  <speed>0.2</speed>
  <fix>3d</fix>
</trkpt>
<trkpt lat="40.0728427" lon="-105.2305757">
  <ele>1587.54</ele>
  <time>2026-08-28T19:12:43Z</time>
  <course>11.26</course>
  <speed>0.20808652046684814</speed>
  <fix>3d</fix>
</trkpt>
<trkpt lat="40.072843" lon="-105.230576">
  <ele>1587.84</ele>
  <time>2026-08-28T19:12:43Z</time>
  <course>11.25</course>
  <speed>0.24413111231467405</speed>
  <fix>3d</fix>
</trkpt>
<trkpt lat="40.0728427" lon="-105.230576">
  <ele>1587.47</ele>
  <time>2026-08-28T19:12:43Z</time>
  <course>315.67</course>
  <speed>0.24</speed>
  <fix>3d</fix>
</trkpt>
<trkpt lat="40.072843" lon="-105.2305761">
  <ele>1587.88</ele>
  <time>2026-08-28T19:12:43Z</time>
  <course>11.25</course>
  <speed>0.24413111231467405</speed>
  <fix>3d</fix>
</trkpt>
<trkpt lat="40.0728433" lon="-105.2305765">
  <ele>1588.19</ele>
  <time>2026-08-28T19:12:43Z</time>
  <course>11.25</course>
  <speed>0.2720294101747089</speed>
  <fix>3d</fix>
</trkpt>
<trkpt lat="40.0728431" lon="-105.2305763">
  <ele>1587.8</ele>
  <time>2026-08-28T19:12:43Z</time>
  <course>315.46</course>
  <speed>0.28</speed>
  <fix>3d</fix>
</trkpt>
<trkpt lat="40.0728434" lon="-105.2305765">
  <ele>1588.24</ele>
  <time>2026-08-28T19:12:43Z</time>
  <course>11.25</course>
  <speed>0.2780287754891569</speed>
  <fix>3d</fix>
</trkpt>
<trkpt lat="40.0728438" lon="-105.230577">
  <ele>1588.54</ele>
  <time>2026-08-28T19:12:43Z</time>
  <course>11.25</course>
  <speed>0.3</speed>
  <fix>3d</fix>
</trkpt>
<trkpt lat="40.0728435" lon="-105.2305768">
  <ele>1588.14</ele>
  <time>2026-08-28T19:12:43Z</time>
  <course>315.3</course>
  <speed>0.31</speed>
  <fix>3d</fix>
</trkpt>
<trkpt lat="40.0728438" lon="-105.230577">
  <ele>1588.6</ele>
  <time>2026-08-28T19:12:43Z</time>
  <course>11.25</course>
  <speed>0.30610455730027936</speed>
  <fix>3d</fix>
</trkpt>
<trkpt lat="40.0728442" lon="-105.2305775">
  <ele>1588.91</ele>
  <time>2026-08-28T19:12:43Z</time>
  <course>11.25</course>
  <speed>0.32015621187164245</speed>
  <fix>3d</fix>
</trkpt>
<trkpt lat="40.0728438" lon="-105.2305774">
  <ele>1588.5</ele>
  <time>2026-08-28T19:12:43Z</time>
  <course>315.22</course>
  <speed>0.33</speed>
  <fix>3d</fix>
</trkpt>
<trkpt lat="40.0728442" lon="-105.2305775">
  <ele>1588.91</ele>
  <time>2026-08-28T19:12:43Z</time>
  <course>11.25</course>
  <speed>0.32015621187164245</speed>
  <fix>3d</fix>
</trkpt>
<trkpt lat="40.0728447" lon="-105.2305781">
  <ele>1589.28</ele>
  <time>2026-08-28T19:12:43Z</time>
  <course>9.89</course>
  <speed>0.33421549934136807</speed>
  <fix>3d</fix>
</trkpt>
<trkpt lat="40.0728443" lon="-105.230578">
  <ele>1588.86</ele>
  <time>2026-08-28T19:12:43Z</time>
  <course>315.22</course>
  <speed>0.36</speed>
  <fix>3d</fix>
</trkpt>
<trkpt lat="40.0728447" lon="-105.2305781">
  <ele>1589.28</ele>
  <time>2026-08-28T19:12:43Z</time>
  <course>9.89</course>
  <speed>0.33421549934136807</speed>
  <fix>3d</fix>
</trkpt>
<trkpt lat="40.0728451" lon="-105.2305787">
  <ele>1589.66</ele>
  <time>2026-08-28T19:12:43Z</time>
  <course>9.92</course>
  <speed>0.354682957019364</speed>
  <fix>3d</fix>
</trkpt>
<trkpt lat="40.0728448" lon="-105.2305786">
  <ele>1589.22</ele>
  <time>2026-08-28T19:12:43Z</time>
  <course>315.29</course>
  <speed>0.37</speed>
  <fix>3d</fix>
</trkpt>
<trkpt lat="40.0728452" lon="-105.2305788">
  <ele>1589.71</ele>
  <time>2026-08-28T19:12:43Z</time>
  <course>9.93</course>
  <speed>0.354682957019364</speed>
  <fix>3d</fix>
</trkpt>
<trkpt lat="40.0728456" lon="-105.2305794">
  <ele>1590.05</ele>
  <time>2026-08-28T19:12:43Z</time>
  <course>9.95</course>
  <speed>0.3687817782917155</speed>
  <fix>3d</fix>
</trkpt>
<trkpt lat="40.0728453" lon="-105.2305792">
  <ele>1589.6</ele>
  <time>2026-08-28T19:12:43Z</time>
  <course>315.39</course>
  <speed>0.39</speed>
  <fix>3d</fix>
</trkpt>
<trkpt lat="40.0728457" lon="-105.2305795">
  <ele>1590.11</ele>
  <time>2026-08-28T19:12:43Z</time>
  <course>9.96</course>
  <speed>0.3687817782917155</speed>
  <fix>3d</fix>
</trkpt>
<trkpt lat="40.0728461" lon="-105.23058">
  <ele>1590.44</ele>
  <time>2026-08-28T19:12:43Z</time>
  <course>9.97</course>
  <speed>0.3753664875824692</speed>
  <fix>3d</fix>
</trkpt>
<trkpt lat="40.0728458" lon="-105.2305799">
  <ele>1589.98</ele>
  <time>2026-08-28T19:12:43Z</time>
  <course>315.5</course>
  <speed>0.4</speed>
  <fix>3d</fix>
</trkpt>
<trkpt lat="40.0728462" lon="-105.2305801">
  <ele>1590.48</ele>
  <time>2026-08-28T19:12:43Z</time>
  <course>9.98</course>
  <speed>0.3753664875824692</speed>
  <fix>3d</fix>
</trkpt>
<trkpt lat="40.0728467" lon="-105.2305807">
  <ele>1590.83</ele>
  <time>2026-08-28T19:12:43Z</time>
  <course>9.98</course>
  <speed>0.38948684188300897</speed>
  <fix>3d</fix>
</trkpt>
<trkpt lat="40.0728463" lon="-105.2305805">
  <ele>1590.37</ele>
  <time>2026-08-28T19:12:43Z</time>
  <course>315.6</course>
  <speed>0.41</speed>
  <fix>3d</fix>
</trkpt>
<trkpt lat="40.0728467" lon="-105.2305808">
  <ele>1590.88</ele>
  <time>2026-08-28T19:12:43Z</time>
  <course>9.98</course>
  <speed>0.38948684188300897</speed>
  <fix>3d</fix>
</trkpt>
<trkpt lat="40.0728472" lon="-105.2305814">
  <ele>1591.23</ele>
  <time>2026-08-28T19:12:43Z</time>
  <course>9.97</course>
  <speed>0.396232255123179</speed>
  <fix>3d</fix>
</trkpt>
<trkpt lat="40.0728469" lon="-105.2305812">
  <ele>1590.76</ele>
  <time>2026-08-28T19:12:43Z</time>
  <course>315.7</course>
  <speed>0.42</speed>
  <fix>3d</fix>
</trkpt>
<trkpt lat="40.0728472" lon="-105.2305814">
  <ele>1591.23</ele>
  <time>2026-08-28T19:12:43Z</time>
  <course>9.97</course>
  <speed>0.396232255123179</speed>
  <fix>3d</fix>
</trkpt>
<trkpt lat="40.0728477" lon="-105.2305821">
  <ele>1591.63</ele>
  <time>2026-08-28T19:12:43Z</time>
  <course>9.97</course>
  <speed>0.396232255123179</speed>
  <fix>3d</fix>
</trkpt>
<trkpt lat="40.0728474" lon="-105.2305819">
  <ele>1591.15</ele>
  <time>2026-08-28T19:12:43Z</time>
  <course>315.8</course>
  <speed>0.42</speed>
  <fix>3d</fix>
</trkpt>
<trkpt lat="40.0728478" lon="-105.2305822">
  <ele>1591.68</ele>
  <time>2026-08-28T19:12:43Z</time>
  <course>9.96</course>
  <speed>0.396232255123179</speed>
  <fix>3d</fix>
</trkpt>
<trkpt lat="40.0728483" lon="-105.2305828">
  <ele>1592.03</ele>
  <time>2026-08-28T19:12:43Z</time>
  <course>9.96</course>
  <speed>0.40311288741492746</speed>
  <fix>3d</fix>
</trkpt>
<trkpt lat="40.0728479" lon="-105.2305826">
  <ele>1591.56</ele>
  <time>2026-08-28T19:12:43Z</time>
  <course>315.89</course>
  <speed>0.42</speed>
  <fix>3d</fix>
</trkpt>
<trkpt lat="40.0728483" lon="-105.230583">
  <ele>1592.09</ele>
  <time>2026-08-28T19:12:43Z</time>
  <course>9.96</course>
  <speed>0.40311288741492746</speed>
  <fix>3d</fix>
</trkpt>
<trkpt lat="40.0728488" lon="-105.2305836">
  <ele>1592.44</ele>
  <time>2026-08-28T19:12:44Z</time>
  <course>9.96</course>
  <speed>0.41012193308819755</speed>
  <fix>3d</fix>
</trkpt>
<trkpt lat="40.0728485" lon="-105.2305833">
  <ele>1591.97</ele>
  <time>2026-08-28T19:12:44Z</time>
  <course>315.99</course>
  <speed>0.42</speed>
  <fix>3d</fix>
</trkpt>
<trkpt lat="40.0728489" lon="-105.2305837">
  <ele>1592.5</ele>
  <time>2026-08-28T19:12:44Z</time>
  <course>9.96</course>
  <speed>0.41012193308819755</speed>
  <fix>3d</fix>
</trkpt>
<trkpt lat="40.0728493" lon="-105.2305843">
  <ele>1592.85</ele>
  <time>2026-08-28T19:12:44Z</time>
  <course>9.95</course>
  <speed>0.40311288741492746</speed>
  <fix>3d</fix>
</trkpt>
<trkpt lat="40.0728491" lon="-105.230584">
  <ele>1592.37</ele>
  <time>2026-08-28T19:12:44Z</time>
  <course>316.08</course>
  <speed>0.42</speed>
  <fix>3d</fix>
</trkpt>
<trkpt lat="40.0728494" lon="-105.2305843">
  <ele>1592.86</ele>
  <time>2026-08-28T19:12:44Z</time>
  <course>9.95</course>
  <speed>0.40311288741492746</speed>
  <fix>3d</fix>
</trkpt>
<trkpt lat="40.0728499" lon="-105.230585">
  <ele>1593.27</ele>
  <time>2026-08-28T19:12:44Z</time>
  <course>9.93</course>
  <speed>0.40311288741492746</speed>
  <fix>3d</fix>
</trkpt>
<trkpt lat="40.0728496" lon="-105.2305847">
  <ele>1592.79</ele>
  <time>2026-08-28T19:12:44Z</time>
  <course>316.17</course>
  <speed>0.42</speed>
  <fix>3d</fix>
</trkpt>
<trkpt lat="40.07285" lon="-105.2305851">
  <ele>1593.33</ele>
  <time>2026-08-28T19:12:44Z</time>
  <course>9.93</course>
  <speed>0.40311288741492746</speed>
  <fix>3d</fix>
</trkpt>
<trkpt lat="40.0728504" lon="-105.2305858">
  <ele>1593.69</ele>
  <time>2026-08-28T19:12:44Z</time>
  <course>9.91</course>
  <speed>0.40311288741492746</speed>
  <fix>3d</fix>
</trkpt>
<trkpt lat="40.0728502" lon="-105.2305854">
  <ele>1593.2</ele>
  <time>2026-08-28T19:12:44Z</time>
  <course>316.26</course>
  <speed>0.42</speed>
  <fix>3d</fix>
</trkpt>
<trkpt lat="40.0728504" lon="-105.2305858">
  <ele>1593.7</ele>
  <time>2026-08-28T19:12:44Z</time>
  <course>9.91</course>
  <speed>0.40311288741492746</speed>
  <fix>3d</fix>
</trkpt>
<trkpt lat="40.072851" lon="-105.2305865">
  <ele>1594.12</ele>
  <time>2026-08-28T19:12:44Z</time>
  <course>9.89</course>
  <speed>0.40311288741492746</speed>
  <fix>3d</fix>
</trkpt>
<trkpt lat="40.0728507" lon="-105.2305861">
  <ele>1593.62</ele>
  <time>2026-08-28T19:12:44Z</time>
  <course>316.36</course>
  <speed>0.42</speed>
  <fix>3d</fix>
</trkpt>
<trkpt lat="40.0728511" lon="-105.2305866">
  <ele>1594.17</ele>
  <time>2026-08-28T19:12:44Z</time>
  <course>9.89</course>
  <speed>0.40311288741492746</speed>
  <fix>3d</fix>
</trkpt>
<trkpt lat="40.0728515" lon="-105.2305872">
  <ele>1594.54</ele>
  <time>2026-08-28T19:12:44Z</time>
  <course>9.87</course>
  <speed>0.396232255123179</speed>
  <fix>3d</fix>
</trkpt>
<trkpt lat="40.0728512" lon="-105.2305868">
  <ele>1594.03</ele>
  <time>2026-08-28T19:12:44Z</time>
  <course>316.56</course>
  <speed>0.41</speed>
  <fix>3d</fix>
</trkpt>
<trkpt lat="40.0728516" lon="-105.2305872">
  <ele>1594.57</ele>
  <time>2026-08-28T19:12:44Z</time>
  <course>9.87</course>
  <speed>0.396232255123179</speed>
  <fix>3d</fix>
</trkpt>
<trkpt lat="40.0728521" lon="-105.2305879">
  <ele>1594.96</ele>
  <time>2026-08-28T19:12:44Z</time>
  <course>9.86</course>
  <speed>0.396232255123179</speed>
  <fix>3d</fix>
</trkpt>
<trkpt lat="40.0728518" lon="-105.2305875">
  <ele>1594.45</ele>
  <time>2026-08-28T19:12:44Z</time>
  <course>316.83</course>
  <speed>0.41</speed>
  <fix>3d</fix>
</trkpt>
<trkpt lat="40.0728521" lon="-105.2305879">
  <ele>1594.96</ele>
  <time>2026-08-28T19:12:44Z</time>
  <course>9.86</course>
  <speed>0.396232255123179</speed>
  <fix>3d</fix>
</trkpt>
<trkpt lat="40.0728526" lon="-105.2305885">
  <ele>1595.38</ele>
  <time>2026-08-28T19:12:44Z</time>
  <course>9.86</course>
  <speed>0.396232255123179</speed>
  <fix>3d</fix>
</trkpt>
<trkpt lat="40.0728523" lon="-105.2305881">
  <ele>1594.87</ele>
  <time>2026-08-28T19:12:44Z</time>
  <course>317.09</course>
  <speed>0.4</speed>
  <fix>3d</fix>
</trkpt>
<trkpt lat="40.0728527" lon="-105.2305886">
  <ele>1595.44</ele>
  <time>2026-08-28T19:12:44Z</time>
  <course>9.86</course>
  <speed>0.3889730067755345</speed>
  <fix>3d</fix>
</trkpt>
<trkpt lat="40.0728531" lon="-105.2305892">
  <ele>1595.71</ele>
  <time>2026-08-28T19:12:44Z</time>
  <course>9.86</course>
  <speed>0.3889730067755345</speed>
  <fix>3d</fix>
</trkpt>
<trkpt lat="40.0728529" lon="-105.2305887">
  <ele>1595.29</ele>
  <time>2026-08-28T19:12:44Z</time>
  <course>317.28</course>
  <speed>0.4</speed>
  <fix>3d</fix>
</trkpt>
<trkpt lat="40.0728537" lon="-105.2305898">
  <ele>1595.66</ele>
  <time>2026-08-28T19:12:44Z</time>
  <course>9.86</course>
  <speed>0.3889730067755345</speed>
  <fix>3d</fix>
</trkpt>
<trkpt lat="40.0728534" lon="-105.2305893">
  <ele>1595.54</ele>
  <time>2026-08-28T19:12:44Z</time>
  <course>317.35</course>
  <speed>0.39</speed>
  <fix>3d</fix>
</trkpt>
<trkpt lat="40.0728542" lon="-105.2305905">
  <ele>1595.23</ele>
  <time>2026-08-28T19:12:44Z</time>
  <course>9.87</course>
  <speed>0.3889730067755345</speed>
  <fix>3d</fix>
</trkpt>
<trkpt lat="40.0728539" lon="-105.23059">
  <ele>1595.44</ele>
  <time>2026-08-28T19:12:44Z</time>
  <course>317.34</course>
  <speed>0.39</speed>
  <fix>3d</fix>
</trkpt>
<trkpt lat="40.0728547" lon="-105.2305911">
  <ele>1594.57</ele>
  <time>2026-08-28T19:12:44Z</time>
  <course>9.89</course>
  <speed>0.3818376618407357</speed>
  <fix>3d</fix>
</trkpt>
<trkpt lat="40.0728544" lon="-105.2305906">
  <ele>1594.96</ele>
  <time>2026-08-28T19:12:44Z</time>
  <course>317.39</course>
  <speed>0.38</speed>
  <fix>3d</fix>
</trkpt>
<trkpt lat="40.0728552" lon="-105.2305917">
  <ele>1594.07</ele>
  <time>2026-08-28T19:12:44Z</time>
  <course>9.91</course>
  <speed>0.3394112549695428</speed>
  <fix>3d</fix>
</trkpt>
<trkpt lat="40.0728549" lon="-105.2305912">
  <ele>1594.35</ele>
  <time>2026-08-28T19:12:44Z</time>
  <course>317.91</course>
  <speed>0.37</speed>
  <fix>3d</fix>
</trkpt>
<trkpt lat="40.0728556" lon="-105.2305922">
  <ele>1593.74</ele>
  <time>2026-08-28T19:12:44Z</time>
  <course>9.9</course>
  <speed>0.29</speed>
  <fix>3d</fix>
</trkpt>
<trkpt lat="40.0728554" lon="-105.2305918">
  <ele>1593.86</ele>
  <time>2026-08-28T19:12:44Z</time>
  <course>319.29</course>
  <speed>0.34</speed>
  <fix>3d</fix>
</trkpt>
<trkpt lat="40.072856" lon="-105.2305926">
  <ele>1593.54</ele>
  <time>2026-08-28T19:12:44Z</time>
  <course>9.85</course>
  <speed>0.24758836806279894</speed>
  <fix>3d</fix>
</trkpt>
<trkpt lat="40.0728558" lon="-105.2305923">
  <ele>1593.55</ele>
  <time>2026-08-28T19:12:44Z</time>
  <course>321.27</course>
  <speed>0.29</speed>
  <fix>3d</fix>
</trkpt>
<trkpt lat="40.0728563" lon="-105.230593">
  <ele>1593.44</ele>
  <time>2026-08-28T19:12:44Z</time>
  <course>9.78</course>
  <speed>0.20518284528683192</speed>
  <fix>3d</fix>
</trkpt>
<trkpt lat="40.0728563" lon="-105.2305926">
  <ele>1593.37</ele>
  <time>2026-08-28T19:12:44Z</time>
  <course>323.48</course>
  <speed>0.25</speed>
  <fix>3d</fix>
</trkpt>
<trkpt lat="40.0728566" lon="-105.2305932">
  <ele>1593.42</ele>
  <time>2026-08-28T19:12:44Z</time>
  <course>9.71</course>
  <speed>0.16278820596099705</speed>
  <fix>3d</fix>
</trkpt>
<trkpt lat="40.0728566" lon="-105.230593">
  <ele>1593.3</ele>
  <time>2026-08-28T19:12:44Z</time>
  <course>325.96</course>
  <speed>0.22</speed>
  <fix>3d</fix>
</trkpt>
<trkpt lat="40.0728569" lon="-105.2305935">
  <ele>1593.45</ele>
  <time>2026-08-28T19:12:44Z</time>
  <course>9.66</course>
  <speed>0.1345362404707371</speed>
  <fix>3d</fix>
</trkpt>
<trkpt lat="40.0728569" lon="-105.2305933">
  <ele>1593.29</ele>
  <time>2026-08-28T19:12:44Z</time>
  <course>328.8</course>
  <speed>0.18</speed>
  <fix>3d</fix>
</trkpt>
<trkpt lat="40.0728571" lon="-105.2305936">
  <ele>1593.51</ele>
  <time>2026-08-28T19:12:44Z</time>
  <course>9.63</course>
  <speed>0.1</speed>
  <fix>3d</fix>
</trkpt>
<trkpt lat="40.0728572" lon="-105.2305935">
  <ele>1593.33</ele>
  <time>2026-08-28T19:12:44Z</time>
  <course>332.04</course>
  <speed>0.14</speed>
  <fix>3d</fix>
</trkpt>
<trkpt lat="40.0728572" lon="-105.2305937">
  <ele>1593.6</ele>
  <time>2026-08-28T19:12:44Z</time>
  <course>9.61</course>
  <speed>0.07211102550927978</speed>
  <fix>3d</fix>
</trkpt>
<trkpt lat="40.0728573" lon="-105.2305936">
  <ele>1593.4</ele>
  <time>2026-08-28T19:12:44Z</time>
  <course>336.21</course>
  <speed>0.11</speed>
  <fix>3d</fix>
</trkpt>
<trkpt lat="40.0728574" lon="-105.2305938">
  <ele>1593.71</ele>
  <time>2026-08-28T19:12:44Z</time>
  <course>9.62</course>
  <speed>0.0412310562561766</speed>
  <fix>3d</fix>
</trkpt>
<trkpt lat="40.0728576" lon="-105.2305937">
  <ele>1593.5</ele>
  <time>2026-08-28T19:12:44Z</time>
  <course>341.84</course>
  <speed>0.08</speed>
  <fix>3d</fix>
</trkpt>
<trkpt lat="40.0728575" lon="-105.2305938">
  <ele>1593.84</ele>
  <time>2026-08-28T19:12:44Z</time>
  <course>9.63</course>
  <speed>0.02</speed>
  <fix>3d</fix>
</trkpt>
<trkpt lat="40.0728577" lon="-105.2305937">
  <ele>1593.62</ele>
  <time>2026-08-28T19:12:44Z</time>
  <course>350.57</course>
  <speed>0.05</speed>
  <fix>3d</fix>
</trkpt>
<trkpt lat="40.0728575" lon="-105.2305938">
  <ele>1593.97</ele>
  <time>2026-08-28T19:12:44Z</time>
  <course>9.67</course>
  <speed>0.022360679774997897</speed>
  <fix>3d</fix>
</trkpt>
<trkpt lat="40.0728578" lon="-105.2305937">
  <ele>1593.74</ele>
  <time>2026-08-28T19:12:44Z</time>
  <course>7.83</course>
  <speed>0.03</speed>
  <fix>3d</fix>
</trkpt>
<trkpt lat="40.0728576" lon="-105.2305938">
  <ele>1594.11</ele>
  <time>2026-08-28T19:12:44Z</time>
  <course>9.71</course>
  <speed>0.03</speed>
  <fix>3d</fix>
</trkpt>
<trkpt lat="40.0728578" lon="-105.2305937">
  <ele>1593.88</ele>
  <time>2026-08-28T19:12:44Z</time>
  <course>52.88</course>
  <speed>0.01</speed>
  <fix>3d</fix>
</trkpt>
<trkpt lat="40.0728576" lon="-105.2305937">
  <ele>1594.25</ele>
  <time>2026-08-28T19:12:44Z</time>
  <course>9.76</course>
  <speed>0.05</speed>
  <fix>3d</fix>
</trkpt>
<trkpt lat="40.0728578" lon="-105.2305937">
  <ele>1594.02</ele>
  <time>2026-08-28T19:12:44Z</time>
  <course>110.9</course>
  <speed>0.02</speed>
  <fix>3d</fix>
</trkpt>
<trkpt lat="40.0728576" lon="-105.2305937">
  <ele>1594.4</ele>
  <time>2026-08-28T19:12:44Z</time>
  <course>9.8</course>
  <speed>0.06</speed>
  <fix>3d</fix>
</trkpt>
<trkpt lat="40.0728578" lon="-105.2305937">
  <ele>1594.15</ele>
  <time>2026-08-28T19:12:44Z</time>
  <course>133.98</course>
  <speed>0.03</speed>
  <fix>3d</fix>
</trkpt>
<trkpt lat="40.0728575" lon="-105.2305937">
  <ele>1594.54</ele>
  <time>2026-08-28T19:12:44Z</time>
  <course>9.84</course>
  <speed>0.07071067811865475</speed>
  <fix>3d</fix>
</trkpt>
<trkpt lat="40.0728578" lon="-105.2305936">
  <ele>1594.3</ele>
  <time>2026-08-28T19:12:44Z</time>
  <course>144.89</course>
  <speed>0.04</speed>
  <fix>3d</fix>
</trkpt>
<trkpt lat="40.0728574" lon="-105.2305936">
  <ele>1594.68</ele>
  <time>2026-08-28T19:12:44Z</time>
  <course>9.87</course>
  <speed>0.09219544457292887</speed>
  <fix>3d</fix>
</trkpt>
<trkpt lat="40.0728577" lon="-105.2305935">
  <ele>1594.44</ele>
  <time>2026-08-28T19:12:44Z</time>
  <course>150.5</course>
  <speed>0.06</speed>
  <fix>3d</fix>
</trkpt>
<trkpt lat="40.0728573" lon="-105.2305935">
  <ele>1594.81</ele>
  <time>2026-08-28T19:12:44Z</time>
  <course>9.91</course>
  <speed>0.13</speed>
  <fix>3d</fix>
</trkpt>
<trkpt lat="40.0728576" lon="-105.2305935">
  <ele>1594.58</ele>
  <time>2026-08-28T19:12:44Z</time>
  <course>148.95</course>
  <speed>0.08</speed>
  <fix>3d</fix>
</trkpt>
<trkpt lat="40.0728571" lon="-105.2305932">
  <ele>1594.93</ele>
  <time>2026-08-28T19:12:44Z</time>
  <course>9.95</course>
  <speed>0.2109502310972899</speed>
  <fix>3d</fix>
</trkpt>
<trkpt lat="40.0728575" lon="-105.2305934">
  <ele>1594.71</ele>
  <time>2026-08-28T19:12:44Z</time>
  <course>143.6</course>
  <speed>0.13</speed>
  <fix>3d</fix>
</trkpt>
<trkpt lat="40.0728567" lon="-105.2305929">
  <ele>1595.03</ele>
  <time>2026-08-28T19:12:44Z</time>
  <course>9.96</course>
  <speed>0.31400636936215165</speed>
  <fix>3d</fix>
</trkpt>
<trkpt lat="40.0728572" lon="-105.230593">
  <ele>1594.82</ele>
  <time>2026-08-28T19:12:44Z</time>
  <course>139.02</course>
  <speed>0.21</speed>
  <fix>3d</fix>
</trkpt>
<trkpt lat="40.0728563" lon="-105.2305923">
  <ele>1595.09</ele>
  <time>2026-08-28T19:12:44Z</time>
  <course>9.92</course>
  <speed>0.4482186966202994</speed>
  <fix>3d</fix>
</trkpt>
<trkpt lat="40.0728569" lon="-105.2305926">
  <ele>1594.9</ele>
  <time>2026-08-28T19:12:44Z</time>
  <course>136.0</course>
  <speed>0.32</speed>
  <fix>3d</fix>
</trkpt>
<trkpt lat="40.0728556" lon="-105.2305915">
  <ele>1595.14</ele>
  <time>2026-08-28T19:12:44Z</time>
  <course>9.79</course>
  <speed>0.5889821729050889</speed>
  <fix>3d</fix>
</trkpt>
<trkpt lat="40.0728563" lon="-105.230592">
  <ele>1594.97</ele>
  <time>2026-08-28T19:12:44Z</time>
  <course>134.28</course>
  <speed>0.46</speed>
  <fix>3d</fix>
</trkpt>
<trkpt lat="40.0728548" lon="-105.2305904">
  <ele>1595.16</ele>
  <time>2026-08-28T19:12:44Z</time>
  <course>9.6</course>
  <speed>0.73</speed>
  <fix>3d</fix>
</trkpt>
<trkpt lat="40.0728557" lon="-105.2305911">
  <ele>1595.01</ele>
  <time>2026-08-28T19:12:44Z</time>
  <course>133.46</course>
  <speed>0.6</speed>
  <fix>3d</fix>
</trkpt>
<trkpt lat="40.0728538" lon="-105.2305891">
  <ele>1595.15</ele>
  <time>2026-08-28T19:12:44Z</time>
  <course>9.38</course>
  <speed>0.8429116205154606</speed>
  <fix>3d</fix>
</trkpt>
<trkpt lat="40.0728548" lon="-105.2305899">
  <ele>1595.03</ele>
  <time>2026-08-28T19:12:44Z</time>
  <course>133.24</course>
  <speed>0.73</speed>
  <fix>3d</fix>
</trkpt>
<trkpt lat="40.0728528" lon="-105.2305877">
  <ele>1595.14</ele>
  <time>2026-08-28T19:12:44Z</time>
  <course>9.23</course>
  <speed>0.9276313923105448</speed>
  <fix>3d</fix>
</trkpt>
<trkpt lat="40.0728539" lon="-105.2305885">
  <ele>1595.03</ele>
  <time>2026-08-28T19:12:44Z</time>
  <course>133.47</course>
  <speed>0.84</speed>
  <fix>3d</fix>
</trkpt>
<trkpt lat="40.0728516" lon="-105.2305861">
  <ele>1595.14</ele>
  <time>2026-08-28T19:12:44Z</time>
  <course>9.2</course>
  <speed>0.9633275663033837</speed>
  <fix>3d</fix>
</trkpt>
<trkpt lat="40.0728528" lon="-105.230587">
  <ele>1595.02</ele>
  <time>2026-08-28T19:12:44Z</time>
  <course>134.04</course>
  <speed>0.92</speed>
  <fix>3d</fix>
</trkpt>
<trkpt lat="40.0728504" lon="-105.2305845">
  <ele>1595.13</ele>
  <time>2026-08-28T19:12:44Z</time>
  <course>9.3</course>
  <speed>0.97082439194738</speed>
  <fix>3d</fix>
</trkpt>
<trkpt lat="40.0728516" lon="-105.2305854">
  <ele>1595.01</ele>
  <time>2026-08-28T19:12:44Z</time>
  <course>134.88</course>
  <speed>0.96</speed>
  <fix>3d</fix>
</trkpt>
<trkpt lat="40.0728492" lon="-105.2305829">
  <ele>1595.12</ele>
  <time>2026-08-28T19:12:44Z</time>
  <course>9.49</course>
  <speed>0.9567131231461183</speed>
  <fix>3d</fix>
</trkpt>
<trkpt lat="40.0728503" lon="-105.2305839">
  <ele>1595.0</ele>
  <time>2026-08-28T19:12:44Z</time>
  <course>135.91</course>
  <speed>0.96</speed>
  <fix>3d</fix>
</trkpt>
<trkpt lat="40.072848" lon="-105.2305814">
  <ele>1595.12</ele>
  <time>2026-08-28T19:12:44Z</time>
  <course>9.69</course>
  <speed>0.9360555539069249</speed>
  <fix>3d</fix>
</trkpt>
<trkpt lat="40.0728491" lon="-105.2305823">
  <ele>1595.0</ele>
  <time>2026-08-28T19:12:44Z</time>
  <course>137.0</course>
  <speed>0.95</speed>
  <fix>3d</fix>
</trkpt>
<trkpt lat="40.0728468" lon="-105.2305799">
  <ele>1595.12</ele>
  <time>2026-08-28T19:12:44Z</time>
  <course>9.85</course>
  <speed>0.9078546139112804</speed>
  <fix>3d</fix>
</trkpt>
<trkpt lat="40.0728478" lon="-105.2305808">
  <ele>1595.0</ele>
  <time>2026-08-28T19:12:44Z</time>
  <course>138.02</course>
  <speed>0.93</speed>
  <fix>3d</fix>
</trkpt>
<trkpt lat="40.0728456" lon="-105.2305785">
  <ele>1595.12</ele>
  <time>2026-08-28T19:12:44Z</time>
  <course>9.96</course>
  <speed>0.8514693182963201</speed>
  <fix>3d</fix>
</trkpt>
<trkpt lat="40.0728466" lon="-105.2305794">
  <ele>1595.0</ele>
  <time>2026-08-28T19:12:44Z</time>
  <course>139.05</course>
  <speed>0.89</speed>
  <fix>3d</fix>
</trkpt>
<trkpt lat="40.0728445" lon="-105.2305773">
  <ele>1595.12</ele>
  <time>2026-08-28T19:12:44Z</time>
  <course>10.04</course>
  <speed>0.7528612089887484</speed>
  <fix>3d</fix>
</trkpt>
<trkpt lat="40.0728454" lon="-105.2305781">
  <ele>1595.0</ele>
  <time>2026-08-28T19:12:44Z</time>
  <course>140.38</course>
  <speed>0.83</speed>
  <fix>3d</fix>
</trkpt>
<trkpt lat="40.0728436" lon="-105.2305763">
  <ele>1595.12</ele>
  <time>2026-08-28T19:12:44Z</time>
  <course>10.06</course>
  <speed>0.6200806399170998</speed>
  <fix>3d</fix>
</trkpt>
<trkpt lat="40.0728443" lon="-105.2305769">
  <ele>1595.01</ele>
  <time>2026-08-28T19:12:44Z</time>
  <course>142.38</course>
  <speed>0.73</speed>
  <fix>3d</fix>
</trkpt>
<trkpt lat="40.0728428" lon="-105.2305755">
  <ele>1595.13</ele>
  <time>2026-08-28T19:12:44Z</time>
  <course>10.03</course>
  <speed>0.47201694884823786</speed>
  <fix>3d</fix>
</trkpt>
<trkpt lat="40.0728433" lon="-105.2305759">
  <ele>1595.01</ele>
  <time>2026-08-28T19:12:44Z</time>
  <course>145.48</course>
  <speed>0.6</speed>
  <fix>3d</fix>
</trkpt>
<trkpt lat="40.0728422" lon="-105.230575">
  <ele>1595.13</ele>
  <time>2026-08-28T19:12:44Z</time>
  <course>9.9</course>
  <speed>0.31064449134018135</speed>
  <fix>3d</fix>
</trkpt>
<trkpt lat="40.0728425" lon="-105.2305753">
  <ele>1595.02</ele>
  <time>2026-08-28T19:12:44Z</time>
  <course>150.72</course>
  <speed>0.45</speed>
  <fix>3d</fix>
</trkpt>
<trkpt lat="40.0728418" lon="-105.2305747">
  <ele>1595.13</ele>
  <time>2026-08-28T19:12:44Z</time>
  <course>9.72</course>
  <speed>0.1615549442140351</speed>
  <fix>3d</fix>
</trkpt>
<trkpt lat="40.0728419" lon="-105.2305749">
  <ele>1595.02</ele>
  <time>2026-08-28T19:12:44Z</time>
  <course>160.62</course>
  <speed>0.3</speed>
  <fix>3d</fix>
</trkpt>
<trkpt lat="40.0728415" lon="-105.2305747">
  <ele>1595.14</ele>
  <time>2026-08-28T19:12:44Z</time>
  <course>9.53</course>
  <speed>0.07</speed>
  <fix>3d</fix>
</trkpt>
<trkpt lat="40.0728415" lon="-105.2305748">
  <ele>1595.03</ele>
  <time>2026-08-28T19:12:44Z</time>
  <course>181.87</course>
  <speed>0.18</speed>
  <fix>3d</fix>
</trkpt>
<trkpt lat="40.0728414" lon="-105.2305749">
  <ele>1595.14</ele>
  <time>2026-08-28T19:12:44Z</time>
  <course>9.41</course>
  <speed>0.05099019513592785</speed>
  <fix>3d</fix>
</trkpt>
<trkpt lat="40.0728413" lon="-105.2305749">
  <ele>1595.03</ele>
  <time>2026-08-28T19:12:44Z</time>
  <course>220.7</course>
  <speed>0.12</speed>
  <fix>3d</fix>
</trkpt>
<trkpt lat="40.0728413" lon="-105.230575">
  <ele>1595.14</ele>
  <time>2026-08-28T19:12:44Z</time>
  <course>9.39</course>
  <speed>0.06082762530298219</speed>
  <fix>3d</fix>
</trkpt>
<trkpt lat="40.0728412" lon="-105.2305752">
  <ele>1595.03</ele>
  <time>2026-08-28T19:12:44Z</time>
  <course>254.33</course>
  <speed>0.12</speed>
  <fix>3d</fix>
</trkpt>
<trkpt lat="40.0728413" lon="-105.2305753">
  <ele>1595.14</ele>
  <time>2026-08-28T19:12:44Z</time>
  <course>9.46</course>
  <speed>0.053851648071345036</speed>
  <fix>3d</fix>
</trkpt>
<trkpt lat="40.0728412" lon="-105.2305754">
  <ele>1595.03</ele>
  <time>2026-08-28T19:12:44Z</time>
  <course>270.62</course>
  <speed>0.13</speed>
  <fix>3d</fix>
</trkpt>
<trkpt lat="40.0728413" lon="-105.2305755">
  <ele>1595.14</ele>
  <time>2026-08-28T19:12:44Z</time>
  <course>10.14</course>
  <speed>0.03605551275463989</speed>
  <fix>3d</fix>
</trkpt>
<trkpt lat="40.0728412" lon="-105.2305757">
  <ele>1595.04</ele>
  <time>2026-08-28T19:12:44Z</time>
  <course>278.69</course>
  <speed>0.11</speed>
  <fix>3d</fix>
</trkpt>
<trkpt lat="40.0728413" lon="-105.2305757">
  <ele>1595.14</ele>
  <time>2026-08-28T19:12:44Z</time>
  <course>10.87</course>
  <speed>0.022360679774997897</speed>
  <fix>3d</fix>
</trkpt>
<trkpt lat="40.0728412" lon="-105.2305759">
  <ele>1595.04</ele>
  <time>2026-08-28T19:12:44Z</time>
  <course>285.48</course>
  <speed>0.09</speed>
  <fix>3d</fix>
</trkpt>
<trkpt lat="40.0728413" lon="-105.2305759">
  <ele>1595.14</ele>
  <time>2026-08-28T19:12:44Z</time>
  <course>11.33</course>
  <speed>0.02</speed>
  <fix>3d</fix>
</trkpt>
<trkpt lat="40.0728412" lon="-105.2305762">
  <ele>1595.04</ele>
  <time>2026-08-28T19:12:44Z</time>
  <course>294.89</course>
  <speed>0.07</speed>
  <fix>3d</fix>
</trkpt>
<trkpt lat="40.0728413" lon="-105.230576">
  <ele>1595.15</ele>
  <time>2026-08-28T19:12:44Z</time>
  <course>11.52</course>
  <speed>0.0282842712474619</speed>
  <fix>3d</fix>
</trkpt>
<trkpt lat="40.0728412" lon="-105.2305763">
  <ele>1595.04</ele>
  <time>2026-08-28T19:12:44Z</time>
  <course>309.83</course>
  <speed>0.05</speed>
  <fix>3d</fix>
</trkpt>
<trkpt lat="40.0728413" lon="-105.230576">
  <ele>1595.15</ele>
  <time>2026-08-28T19:12:44Z</time>
  <course>11.53</course>
  <speed>0.03605551275463989</speed>
  <fix>3d</fix>
</trkpt>
<trkpt lat="40.0728413" lon="-105.2305763">
  <ele>1595.04</ele>
  <time>2026-08-28T19:12:44Z</time>
  <course>332.49</course>
  <speed>0.04</speed>
  <fix>3d</fix>
</trkpt>
<trkpt lat="40.0728414" lon="-105.230576">
  <ele>1595.15</ele>
  <time>2026-08-28T19:12:44Z</time>
  <course>11.48</course>
  <speed>0.053851648071345036</speed>
  <fix>3d</fix>
</trkpt>
<trkpt lat="40.0728413" lon="-105.2305763">
  <ele>1595.04</ele>
  <time>2026-08-28T19:12:44Z</time>
  <course>358.59</course>
  <speed>0.04</speed>
  <fix>3d</fix>
</trkpt>
<trkpt lat="40.0728414" lon="-105.230576">
  <ele>1595.15</ele>
  <time>2026-08-28T19:12:44Z</time>
  <course>11.42</course>
  <speed>0.0632455532033676</speed>
  <fix>3d</fix>
</trkpt>
<trkpt lat="40.0728414" lon="-105.2305763">
  <ele>1595.04</ele>
  <time>2026-08-28T19:12:44Z</time>
  <course>18.75</course>
  <speed>0.04</speed>
  <fix>3d</fix>
</trkpt>
<trkpt lat="40.0728415" lon="-105.230576">
  <ele>1595.15</ele>
  <time>2026-08-28T19:12:44Z</time>
  <course>11.39</course>
  <speed>0.07280109889280519</speed>
  <fix>3d</fix>
</trkpt>
<trkpt lat="40.0728415" lon="-105.2305763">
  <ele>1595.03</ele>
  <time>2026-08-28T19:12:44Z</time>
  <course>31.45</course>
  <speed>0.05</speed>
  <fix>3d</fix>
</trkpt>
<trkpt lat="40.0728415" lon="-105.2305759">
  <ele>1595.14</ele>
  <time>2026-08-28T19:12:44Z</time>
  <course>11.38</course>
  <speed>0.07280109889280519</speed>
  <fix>3d</fix>
</trkpt>
<trkpt lat="40.0728416" lon="-105.2305763">
  <ele>1595.03</ele>
  <time>2026-08-28T19:12:44Z</time>
  <course>39.25</course>
  <speed>0.06</speed>
  <fix>3d</fix>
</trkpt>
<trkpt lat="40.0728416" lon="-105.2305758">
  <ele>1595.14</ele>
  <time>2026-08-28T19:12:44Z</time>
  <course>11.37</course>
  <speed>0.0824621125123532</speed>
  <fix>3d</fix>
</trkpt>
<trkpt lat="40.0728417" lon="-105.2305762">
  <ele>1595.03</ele>
  <time>2026-08-28T19:12:44Z</time>
  <course>44.31</course>
  <speed>0.07</speed>
  <fix>3d</fix>
</trkpt>
<trkpt lat="40.0728417" lon="-105.2305757">
  <ele>1595.13</ele>
  <time>2026-08-28T19:12:44Z</time>
  <course>11.36</course>
  <speed>0.08062257748298549</speed>
  <fix>3d</fix>
</trkpt>
<trkpt lat="40.0728418" lon="-105.2305761">
  <ele>1595.03</ele>
  <time>2026-08-28T19:12:44Z</time>
  <course>47.97</course>
  <speed>0.07</speed>
  <fix>3d</fix>
</trkpt>
<trkpt lat="40.0728418" lon="-105.2305755">
  <ele>1595.13</ele>
  <time>2026-08-28T19:12:44Z</time>
  <course>11.36</course>
  <speed>0.08062257748298549</speed>
  <fix>3d</fix>
</trkpt>
<trkpt lat="40.0728419" lon="-105.2305759">
  <ele>1595.03</ele>
  <time>2026-08-28T19:12:44Z</time>
  <course>50.46</course>
  <speed>0.07</speed>
  <fix>3d</fix>
</trkpt>
<trkpt lat="40.0728418" lon="-105.2305754">
  <ele>1595.12</ele>
  <time>2026-08-28T19:12:44Z</time>
  <course>11.37</course>
  <speed>0.08062257748298549</speed>
  <fix>3d</fix>
</trkpt>
<trkpt lat="40.072842" lon="-105.2305758">
  <ele>1595.03</ele>
  <time>2026-08-28T19:12:44Z</time>
  <course>52.59</course>
  <speed>0.07</speed>
  <fix>3d</fix>
</trkpt>
<trkpt lat="40.0728419" lon="-105.2305753">
  <ele>1595.12</ele>
  <time>2026-08-28T19:12:44Z</time>
  <course>11.38</course>
  <speed>0.07071067811865475</speed>
  <fix>3d</fix>
</trkpt>
<trkpt lat="40.072842" lon="-105.2305757">
  <ele>1595.03</ele>
  <time>2026-08-28T19:12:44Z</time>
  <course>54.45</course>
  <speed>0.07</speed>
  <fix>3d</fix>
</trkpt>
<trkpt lat="40.072842" lon="-105.2305752">
  <ele>1595.13</ele>
  <time>2026-08-28T19:12:44Z</time>
  <course>11.39</course>
  <speed>0.07</speed>
  <fix>3d</fix>
</trkpt>
<trkpt lat="40.0728421" lon="-105.2305755">
  <ele>1595.03</ele>
  <time>2026-08-28T19:12:44Z</time>
  <course>55.51</course>
  <speed>0.07</speed>
  <fix>3d</fix>
</trkpt>
<trkpt lat="40.072842" lon="-105.2305751">
  <ele>1595.14</ele>
  <time>2026-08-28T19:12:44Z</time>
  <course>11.42</course>
  <speed>0.06</speed>
  <fix>3d</fix>
</trkpt>
<trkpt lat="40.0728422" lon="-105.2305753">
  <ele>1595.04</ele>
  <time>2026-08-28T19:12:44Z</time>
  <course>56.85</course>
  <speed>0.06</speed>
  <fix>3d</fix>
</trkpt>
<trkpt lat="40.0728421" lon="-105.230575">
  <ele>1595.13</ele>
  <time>2026-08-28T19:12:44Z</time>
  <course>11.44</course>
  <speed>0.06</speed>
  <fix>3d</fix>
</trkpt>
<trkpt lat="40.0728423" lon="-105.2305752">
  <ele>1595.04</ele>
  <time>2026-08-28T19:12:44Z</time>
  <course>58.41</course>
  <speed>0.06</speed>
  <fix>3d</fix>
</trkpt>
<trkpt lat="40.0728421" lon="-105.2305749">
  <ele>1595.13</ele>
  <time>2026-08-28T19:12:44Z</time>
  <course>11.44</course>
  <speed>0.05</speed>
  <fix>3d</fix>
</trkpt>
<trkpt lat="40.0728423" lon="-105.2305751">
  <ele>1595.04</ele>
  <time>2026-08-28T19:12:44Z</time>
  <course>59.73</course>
  <speed>0.05</speed>
  <fix>3d</fix>
</trkpt>
<trkpt lat="40.0728422" lon="-105.2305748">
  <ele>1595.13</ele>
  <time>2026-08-28T19:12:44Z</time>
  <course>11.45</course>
  <speed>0.04</speed>
  <fix>3d</fix>
</trkpt>
<trkpt lat="40.0728424" lon="-105.230575">
  <ele>1595.04</ele>
  <time>2026-08-28T19:12:44Z</time>
  <course>60.9</course>
  <speed>0.04</speed>
  <fix>3d</fix>
</trkpt>
<trkpt lat="40.0728422" lon="-105.2305747">
  <ele>1595.13</ele>
  <time>2026-08-28T19:12:44Z</time>
  <course>11.45</course>
  <speed>0.0316227766016838</speed>
  <fix>3d</fix>
</trkpt>
<trkpt lat="40.0728424" lon="-105.2305749">
  <ele>1595.04</ele>
  <time>2026-08-28T19:12:44Z</time>
  <course>62.27</course>
  <speed>0.03</speed>
  <fix>3d</fix>
</trkpt>
<trkpt lat="40.0728422" lon="-105.2305747">
  <ele>1595.13</ele>
  <time>2026-08-28T19:12:44Z</time>
  <course>11.45</course>
  <speed>0.0316227766016838</speed>
  <fix>3d</fix>
</trkpt>
<trkpt lat="40.0728424" lon="-105.2305748">
  <ele>1595.05</ele>
  <time>2026-08-28T19:12:44Z</time>
  <course>64.41</course>
  <speed>0.02</speed>
  <fix>3d</fix>
</trkpt>
<trkpt lat="40.0728422" lon="-105.2305746">
  <ele>1595.13</ele>
  <time>2026-08-28T19:12:44Z</time>
  <course>11.45</course>
  <speed>0.0282842712474619</speed>
  <fix>3d</fix>
</trkpt>
<trkpt lat="40.0728425" lon="-105.2305748">
  <ele>1595.05</ele>
  <time>2026-08-28T19:12:44Z</time>
  <course>67.54</course>
  <speed>0.02</speed>
  <fix>3d</fix>
</trkpt>
<trkpt lat="40.0728423" lon="-105.2305746">
  <ele>1595.13</ele>
  <time>2026-08-28T19:12:44Z</time>
  <course>11.45</course>
  <speed>0.022360679774997897</speed>
  <fix>3d</fix>
</trkpt>
<trkpt lat="40.0728425" lon="-105.2305748">
  <ele>1595.05</ele>
  <time>2026-08-28T19:12:44Z</time>
  <course>73.0</course>
  <speed>0.01</speed>
  <fix>3d</fix>
</trkpt>
<trkpt lat="40.0728423" lon="-105.2305746">
  <ele>1595.13</ele>
  <time>2026-08-28T19:12:44Z</time>
  <course>11.45</course>
  <speed>0.022360679774997897</speed>
  <fix>3d</fix>
</trkpt>
<trkpt lat="40.0728425" lon="-105.2305748">
  <ele>1595.05</ele>
  <time>2026-08-28T19:12:44Z</time>
  <course>91.15</course>
  <speed>0.0</speed>
  <fix>3d</fix>
</trkpt>
<trkpt lat="40.0728423" lon="-105.2305746">
  <ele>1595.13</ele>
  <time>2026-08-28T19:12:44Z</time>
  <course>11.45</course>
  <speed>0.02</speed>
  <fix>3d</fix>
</trkpt>
<trkpt lat="40.0728425" lon="-105.2305748">
  <ele>1595.05</ele>
  <time>2026-08-28T19:12:44Z</time>
  <course>195.98</course>
  <speed>0.0</speed>
  <fix>3d</fix>
</trkpt>
<trkpt lat="40.0728423" lon="-105.2305746">
  <ele>1595.13</ele>
  <time>2026-08-28T19:12:44Z</time>
  <course>11.45</course>
  <speed>0.03</speed>
  <fix>3d</fix>
</trkpt>
<trkpt lat="40.0728425" lon="-105.2305748">
  <ele>1595.05</ele>
  <time>2026-08-28T19:12:44Z</time>
  <course>224.22</course>
  <speed>0.0</speed>
  <fix>3d</fix>
</trkpt>
<trkpt lat="40.0728423" lon="-105.2305746">
  <ele>1595.09</ele>
  <time>2026-08-28T19:12:44Z</time>
  <course>11.45</course>
  <speed>0.03</speed>
  <fix>3d</fix>
</trkpt>
<trkpt lat="40.0728425" lon="-105.2305748">
  <ele>1595.04</ele>
  <time>2026-08-28T19:12:44Z</time>
  <course>230.33</course>
  <speed>0.01</speed>
  <fix>3d</fix>
</trkpt>
<trkpt lat="40.0728423" lon="-105.2305747">
  <ele>1595.02</ele>
  <time>2026-08-28T19:12:44Z</time>
  <course>11.45</course>
  <speed>0.03</speed>
  <fix>3d</fix>
</trkpt>
<trkpt lat="40.0728425" lon="-105.2305748">
  <ele>1595.0</ele>
  <time>2026-08-28T19:12:44Z</time>
  <course>232.69</course>
  <speed>0.01</speed>
  <fix>3d</fix>
</trkpt>
<trkpt lat="40.0728423" lon="-105.2305747">
  <ele>1594.92</ele>
  <time>2026-08-28T19:12:44Z</time>
  <course>11.45</course>
  <speed>0.03</speed>
  <fix>3d</fix>
</trkpt>
<trkpt lat="40.0728425" lon="-105.2305748">
  <ele>1594.92</ele>
  <time>2026-08-28T19:12:44Z</time>
  <course>233.87</course>
  <speed>0.02</speed>
  <fix>3d</fix>
</trkpt>
<trkpt lat="40.0728423" lon="-105.2305747">
  <ele>1594.82</ele>
  <time>2026-08-28T19:12:44Z</time>
  <course>11.45</course>
  <speed>0.03</speed>
  <fix>3d</fix>
</trkpt>
<trkpt lat="40.0728425" lon="-105.2305748">
  <ele>1594.83</ele>
  <time>2026-08-28T19:12:44Z</time>
  <course>234.69</course>
  <speed>0.02</speed>
  <fix>3d</fix>
</trkpt>
<trkpt lat="40.0728423" lon="-105.2305748">
  <ele>1594.71</ele>
  <time>2026-08-28T19:12:44Z</time>
  <course>11.45</course>
  <speed>0.0316227766016838</speed>
  <fix>3d</fix>
</trkpt>
<trkpt lat="40.0728425" lon="-105.2305748">
  <ele>1594.72</ele>
  <time>2026-08-28T19:12:44Z</time>
  <course>236.12</course>
  <speed>0.02</speed>
  <fix>3d</fix>
</trkpt>
<trkpt lat="40.0728423" lon="-105.2305748">
  <ele>1594.61</ele>
  <time>2026-08-28T19:12:44Z</time>
  <course>11.45</course>
  <speed>0.0316227766016838</speed>
  <fix>3d</fix>
</trkpt>
<trkpt lat="40.0728424" lon="-105.2305748">
  <ele>1594.61</ele>
  <time>2026-08-28T19:12:44Z</time>
  <course>237.46</course>
  <speed>0.02</speed>
  <fix>3d</fix>
</trkpt>
<trkpt lat="40.0728422" lon="-105.2305749">
  <ele>1594.5</ele>
  <time>2026-08-28T19:12:44Z</time>
  <course>11.45</course>
  <speed>0.0316227766016838</speed>
  <fix>3d</fix>
</trkpt>
<trkpt lat="40.0728424" lon="-105.2305749">
  <ele>1594.51</ele>
  <time>2026-08-28T19:12:44Z</time>
  <course>238.24</course>
  <speed>0.02</speed>
  <fix>3d</fix>
</trkpt>
<trkpt lat="40.0728422" lon="-105.2305749">
  <ele>1594.4</ele>
  <time>2026-08-28T19:12:44Z</time>
  <course>11.45</course>
  <speed>0.0316227766016838</speed>
  <fix>3d</fix>
</trkpt>
<trkpt lat="40.0728424" lon="-105.230575">
  <ele>1594.4</ele>
  <time>2026-08-28T19:12:44Z</time>
  <course>239.31</course>
  <speed>0.02</speed>
  <fix>3d</fix>
</trkpt>
<trkpt lat="40.0728422" lon="-105.2305749">
  <ele>1594.3</ele>
  <time>2026-08-28T19:12:44Z</time>
  <course>11.44</course>
  <speed>0.03</speed>
  <fix>3d</fix>
</trkpt>
<trkpt lat="40.0728424" lon="-105.230575">
  <ele>1594.3</ele>
  <time>2026-08-28T19:12:44Z</time>
  <course>240.8</course>
  <speed>0.02</speed>
  <fix>3d</fix>
</trkpt>
<trkpt lat="40.0728422" lon="-105.230575">
  <ele>1594.2</ele>
  <time>2026-08-28T19:12:44Z</time>
  <course>11.44</course>
  <speed>0.03</speed>
  <fix>3d</fix>
</trkpt>
<trkpt lat="40.0728423" lon="-105.2305751">
  <ele>1594.2</ele>
  <time>2026-08-28T19:12:44Z</time>
  <course>242.17</course>
  <speed>0.02</speed>
  <fix>3d</fix>
</trkpt>
<trkpt lat="40.0728422" lon="-105.230575">
  <ele>1594.1</ele>
  <time>2026-08-28T19:12:44Z</time>
  <course>11.44</course>
  <speed>0.02</speed>
  <fix>3d</fix>
</trkpt>
<trkpt lat="40.0728423" lon="-105.2305751">
  <ele>1594.1</ele>
  <time>2026-08-28T19:12:44Z</time>
  <course>243.44</course>
  <speed>0.02</speed>
  <fix>3d</fix>
</trkpt>
<trkpt lat="40.0728422" lon="-105.2305751">
  <ele>1594.0</ele>
  <time>2026-08-28T19:12:44Z</time>
  <course>11.44</course>
  <speed>0.02</speed>
  <fix>3d</fix>
</trkpt>
<trkpt lat="40.0728423" lon="-105.2305752">
  <ele>1594.0</ele>
  <time>2026-08-28T19:12:44Z</time>
  <course>244.78</course>
  <speed>0.02</speed>
  <fix>3d</fix>
</trkpt>
<trkpt lat="40.0728422" lon="-105.2305751">
  <ele>1593.9</ele>
  <time>2026-08-28T19:12:44Z</time>
  <course>11.45</course>
  <speed>0.02</speed>
  <fix>3d</fix>
</trkpt>
<trkpt lat="40.0728423" lon="-105.2305753">
  <ele>1593.9</ele>
  <time>2026-08-28T19:12:44Z</time>
  <course>246.49</course>
  <speed>0.02</speed>
  <fix>3d</fix>
</trkpt>
<trkpt lat="40.0728422" lon="-105.2305751">
  <ele>1593.8</ele>
  <time>2026-08-28T19:12:44Z</time>
  <course>11.45</course>
  <speed>0.02</speed>
  <fix>3d</fix>
</trkpt>
<trkpt lat="40.0728423" lon="-105.2305753">
  <ele>1593.81</ele>
  <time>2026-08-28T19:12:44Z</time>
  <course>248.72</course>
  <speed>0.02</speed>
  <fix>3d</fix>
</trkpt>
<trkpt lat="40.0728422" lon="-105.2305752">
  <ele>1593.7</ele>
  <time>2026-08-28T19:12:44Z</time>
  <course>11.45</course>
  <speed>0.02</speed>
  <fix>3d</fix>
</trkpt>
<trkpt lat="40.0728423" lon="-105.2305753">
  <ele>1593.71</ele>
  <time>2026-08-28T19:12:44Z</time>
  <course>251.93</course>
  <speed>0.01</speed>
  <fix>3d</fix>
</trkpt>
<trkpt lat="40.0728422" lon="-105.2305752">
  <ele>1593.6</ele>
  <time>2026-08-28T19:12:44Z</time>
  <course>11.45</course>
  <speed>0.02</speed>
  <fix>3d</fix>
</trkpt>
<trkpt lat="40.0728423" lon="-105.2305753">
  <ele>1593.61</ele>
  <time>2026-08-28T19:12:44Z</time>
  <course>256.25</course>
  <speed>0.01</speed>
  <fix>3d</fix>
</trkpt>
<trkpt lat="40.0728422" lon="-105.2305752">
  <ele>1593.51</ele>
  <time>2026-08-28T19:12:44Z</time>
  <course>11.44</course>
  <speed>0.02</speed>
  <fix>3d</fix>
</trkpt>
<trkpt lat="40.0728422" lon="-105.2305754">
  <ele>1593.51</ele>
  <time>2026-08-28T19:12:44Z</time>
  <course>258.61</course>
  <speed>0.01</speed>
  <fix>3d</fix>
</trkpt>
<trkpt lat="40.0728422" lon="-105.2305752">
  <ele>1593.4</ele>
  <time>2026-08-28T19:12:44Z</time>
  <course>11.43</course>
  <speed>0.01</speed>
  <fix>3d</fix>
</trkpt>
<trkpt lat="40.0728421" lon="-105.2305755">
  <ele>1593.4</ele>
  <time>2026-08-28T19:12:44Z</time>
  <course>260.16</course>
  <speed>0.0</speed>
  <fix>3d</fix>
</trkpt>
<trkpt lat="40.0728421" lon="-105.2305752">
  <ele>1593.3</ele>
  <time>2026-08-28T19:12:44Z</time>
  <course>11.43</course>
  <speed>0.01414213562373095</speed>
  <fix>3d</fix>
</trkpt>
<trkpt lat="40.0728421" lon="-105.2305755">
  <ele>1593.31</ele>
  <time>2026-08-28T19:12:44Z</time>
  <course>266.11</course>
  <speed>0.0</speed>
  <fix>3d</fix>
</trkpt>
<trkpt lat="40.0728421" lon="-105.2305753">
  <ele>1593.2</ele>
  <time>2026-08-28T19:12:44Z</time>
  <course>11.43</course>
  <speed>0.01414213562373095</speed>
  <fix>3d</fix>
</trkpt>
<trkpt lat="40.0728421" lon="-105.2305755">
  <ele>1593.21</ele>
  <time>2026-08-28T19:12:44Z</time>
  <course>278.9</course>
  <speed>0.0</speed>
  <fix>3d</fix>
</trkpt>
<trkpt lat="40.0728421" lon="-105.2305753">
  <ele>1593.1</ele>
  <time>2026-08-28T19:12:44Z</time>
  <course>11.43</course>
  <speed>0.01414213562373095</speed>
  <fix>3d</fix>
</trkpt>
<trkpt lat="40.0728421" lon="-105.2305755">
  <ele>1593.11</ele>
  <time>2026-08-28T19:12:44Z</time>
  <course>298.71</course>
  <speed>0.0</speed>
  <fix>3d</fix>
</trkpt>
<trkpt lat="40.0728421" lon="-105.2305753">
  <ele>1593.0</ele>
  <time>2026-08-28T19:12:44Z</time>
  <course>11.43</course>
  <speed>0.01414213562373095</speed>
  <fix>3d</fix>
</trkpt>
<trkpt lat="40.0728421" lon="-105.2305755">
  <ele>1593.01</ele>
  <time>2026-08-28T19:12:44Z</time>
  <course>331.83</course>
  <speed>0.0</speed>
  <fix>3d</fix>
</trkpt>
<trkpt lat="40.0728421" lon="-105.2305753">
  <ele>1592.89</ele>
  <time>2026-08-28T19:12:44Z</time>
  <course>11.43</course>
  <speed>0.01414213562373095</speed>
  <fix>3d</fix>
</trkpt>
<trkpt lat="40.0728421" lon="-105.2305755">
  <ele>1592.9</ele>
  <time>2026-08-28T19:12:44Z</time>
  <course>0.15</course>
  <speed>0.0</speed>
  <fix>3d</fix>
</trkpt>
<trkpt lat="40.0728421" lon="-105.2305753">
  <ele>1592.79</ele>
  <time>2026-08-28T19:12:44Z</time>
  <course>11.43</course>
  <speed>0.022360679774997897</speed>
  <fix>3d</fix>
</trkpt>
<trkpt lat="40.0728421" lon="-105.2305755">
  <ele>1592.81</ele>
  <time>2026-08-28T19:12:44Z</time>
  <course>13.1</course>
  <speed>0.0</speed>
  <fix>3d</fix>
</trkpt>
<trkpt lat="40.0728421" lon="-105.2305753">
  <ele>1592.69</ele>
  <time>2026-08-28T19:12:44Z</time>
  <course>11.43</course>
  <speed>0.022360679774997897</speed>
  <fix>3d</fix>
</trkpt>
<trkpt lat="40.0728421" lon="-105.2305755">
  <ele>1592.71</ele>
  <time>2026-08-28T19:12:44Z</time>
  <course>19.76</course>
  <speed>0.01</speed>
  <fix>3d</fix>
</trkpt>
<trkpt lat="40.0728421" lon="-105.2305753">
  <ele>1592.59</ele>
  <time>2026-08-28T19:12:44Z</time>
  <course>11.42</course>
  <speed>0.022360679774997897</speed>
  <fix>3d</fix>
</trkpt>
<trkpt lat="40.0728421" lon="-105.2305755">
  <ele>1592.61</ele>
  <time>2026-08-28T19:12:44Z</time>
  <course>23.72</course>
  <speed>0.01</speed>
  <fix>3d</fix>
</trkpt>
<trkpt lat="40.0728421" lon="-105.2305753">
  <ele>1592.49</ele>
  <time>2026-08-28T19:12:44Z</time>
  <course>11.42</course>
  <speed>0.022360679774997897</speed>
  <fix>3d</fix>
</trkpt>
<trkpt lat="40.0728421" lon="-105.2305755">
  <ele>1592.51</ele>
  <time>2026-08-28T19:12:44Z</time>
  <course>25.99</course>
  <speed>0.01</speed>
  <fix>3d</fix>
</trkpt>
<trkpt lat="40.0728421" lon="-105.2305753">
  <ele>1592.4</ele>
  <time>2026-08-28T19:12:44Z</time>
  <course>11.43</course>
  <speed>0.022360679774997897</speed>
  <fix>3d</fix>
</trkpt>
<trkpt lat="40.0728422" lon="-105.2305755">
  <ele>1592.4</ele>
  <time>2026-08-28T19:12:44Z</time>
  <course>26.41</course>
  <speed>0.01</speed>
  <fix>3d</fix>
</trkpt>
<trkpt lat="40.0728421" lon="-105.2305753">
  <ele>1592.3</ele>
  <time>2026-08-28T19:12:44Z</time>
  <course>11.43</course>
  <speed>0.022360679774997897</speed>
  <fix>3d</fix>
</trkpt>
<trkpt lat="40.0728423" lon="-105.2305755">
  <ele>1592.31</ele>
  <time>2026-08-28T19:12:44Z</time>
  <course>24.96</course>
  <speed>0.01</speed>
  <fix>3d</fix>
</trkpt>
<trkpt lat="40.0728421" lon="-105.2305753">
  <ele>1592.2</ele>
  <time>2026-08-28T19:12:44Z</time>
  <course>11.43</course>
  <speed>0.022360679774997897</speed>
  <fix>3d</fix>
</trkpt>
<trkpt lat="40.0728423" lon="-105.2305755">
  <ele>1592.22</ele>
  <time>2026-08-28T19:12:44Z</time>
  <course>25.99</course>
  <speed>0.01</speed>
  <fix>3d</fix>
</trkpt>
<trkpt lat="40.0728421" lon="-105.2305753">
  <ele>1592.1</ele>
  <time>2026-08-28T19:12:44Z</time>
  <course>11.43</course>
  <speed>0.022360679774997897</speed>
  <fix>3d</fix>
</trkpt>
<trkpt lat="40.0728423" lon="-105.2305755">
  <ele>1592.12</ele>
  <time>2026-08-28T19:12:44Z</time>
  <course>29.32</course>
  <speed>0.01</speed>
  <fix>3d</fix>
</trkpt>
<trkpt lat="40.0728421" lon="-105.2305753">
  <ele>1592.01</ele>
  <time>2026-08-28T19:12:45Z</time>
  <course>11.43</course>
  <speed>0.022360679774997897</speed>
  <fix>3d</fix>
</trkpt>
<trkpt lat="40.0728423" lon="-105.2305755">
  <ele>1592.02</ele>
  <time>2026-08-28T19:12:45Z</time>
  <course>32.81</course>
  <speed>0.01</speed>
  <fix>3d</fix>
</trkpt>
<trkpt lat="40.0728421" lon="-105.2305753">
  <ele>1591.91</ele>
  <time>2026-08-28T19:12:45Z</time>
  <course>11.43</course>
  <speed>0.022360679774997897</speed>
  <fix>3d</fix>
</trkpt>
<trkpt lat="40.0728424" lon="-105.2305755">
  <ele>1591.91</ele>
  <time>2026-08-28T19:12:45Z</time>
  <course>36.56</course>
  <speed>0.01</speed>
  <fix>3d</fix>
</trkpt>
<trkpt lat="40.0728422" lon="-105.2305753">
  <ele>1591.81</ele>
  <time>2026-08-28T19:12:45Z</time>
  <course>11.42</course>
  <speed>0.022360679774997897</speed>
  <fix>3d</fix>
</trkpt>
<trkpt lat="40.0728424" lon="-105.2305755">
  <ele>1591.82</ele>
  <time>2026-08-28T19:12:45Z</time>
  <course>41.26</course>
  <speed>0.01</speed>
  <fix>3d</fix>
</trkpt>
<trkpt lat="40.0728422" lon="-105.2305753">
  <ele>1591.71</ele>
  <time>2026-08-28T19:12:45Z</time>
  <course>11.42</course>
  <speed>0.022360679774997897</speed>
  <fix>3d</fix>
</trkpt>
<trkpt lat="40.0728424" lon="-105.2305755">
  <ele>1591.71</ele>
  <time>2026-08-28T19:12:45Z</time>
  <course>48.04</course>
  <speed>0.01</speed>
  <fix>3d</fix>
</trkpt>
<trkpt lat="40.0728422" lon="-105.2305753">
  <ele>1591.61</ele>
  <time>2026-08-28T19:12:45Z</time>
  <course>11.42</course>
  <speed>0.022360679774997897</speed>
  <fix>3d</fix>
</trkpt>
<trkpt lat="40.0728424" lon="-105.2305754">
  <ele>1591.61</ele>
  <time>2026-08-28T19:12:45Z</time>
  <course>56.79</course>
  <speed>0.01</speed>
  <fix>3d</fix>
</trkpt>
<trkpt lat="40.0728422" lon="-105.2305752">
  <ele>1591.5</ele>
  <time>2026-08-28T19:12:45Z</time>
  <course>11.42</course>
  <speed>0.022360679774997897</speed>
  <fix>3d</fix>
</trkpt>
<trkpt lat="40.0728424" lon="-105.2305753">
  <ele>1591.51</ele>
  <time>2026-08-28T19:12:45Z</time>
  <course>64.19</course>
  <speed>0.0</speed>
  <fix>3d</fix>
</trkpt>
<trkpt lat="40.0728422" lon="-105.2305752">
  <ele>1591.4</ele>
  <time>2026-08-28T19:12:45Z</time>
  <course>11.42</course>
  <speed>0.022360679774997897</speed>
  <fix>3d</fix>
</trkpt>
<trkpt lat="40.0728424" lon="-105.2305753">
  <ele>1591.4</ele>
  <time>2026-08-28T19:12:45Z</time>
  <course>69.83</course>
  <speed>0.0</speed>
  <fix>3d</fix>
</trkpt>
<trkpt lat="40.0728422" lon="-105.2305752">
  <ele>1591.3</ele>
  <time>2026-08-28T19:12:45Z</time>
  <course>11.42</course>
  <speed>0.0282842712474619</speed>
  <fix>3d</fix>
</trkpt>
<trkpt lat="40.0728424" lon="-105.2305753">
  <ele>1591.31</ele>
  <time>2026-08-28T19:12:45Z</time>
  <course>80.83</course>
  <speed>0.0</speed>
  <fix>3d</fix>
</trkpt>
<trkpt lat="40.0728422" lon="-105.2305752">
  <ele>1591.2</ele>
  <time>2026-08-28T19:12:45Z</time>
  <course>11.42</course>
  <speed>0.0282842712474619</speed>
  <fix>3d</fix>
</trkpt>
<trkpt lat="40.0728424" lon="-105.2305753">
  <ele>1591.21</ele>
  <time>2026-08-28T19:12:45Z</time>
  <course>95.73</course>
  <speed>0.0</speed>
  <fix>3d</fix>
</trkpt>
<trkpt lat="40.0728422" lon="-105.2305752">
  <ele>1591.1</ele>
  <time>2026-08-28T19:12:45Z</time>
  <course>11.42</course>
  <speed>0.022360679774997897</speed>
  <fix>3d</fix>
</trkpt>
<trkpt lat="40.0728424" lon="-105.2305753">
  <ele>1591.11</ele>
  <time>2026-08-28T19:12:45Z</time>
  <course>110.99</course>
  <speed>0.0</speed>
  <fix>3d</fix>
</trkpt>
<trkpt lat="40.0728422" lon="-105.2305752">
  <ele>1591.0</ele>
  <time>2026-08-28T19:12:45Z</time>
  <course>11.42</course>
  <speed>0.022360679774997897</speed>
  <fix>3d</fix>
</trkpt>
<trkpt lat="40.0728424" lon="-105.2305753">
  <ele>1591.01</ele>
  <time>2026-08-28T19:12:45Z</time>
  <course>127.53</course>
  <speed>0.0</speed>
  <fix>3d</fix>
</trkpt>
<trkpt lat="40.0728422" lon="-105.2305752">
  <ele>1590.9</ele>
  <time>2026-08-28T19:12:45Z</time>
  <course>11.42</course>
  <speed>0.022360679774997897</speed>
  <fix>3d</fix>
</trkpt>
<trkpt lat="40.0728424" lon="-105.2305753">
  <ele>1590.9</ele>
  <time>2026-08-28T19:12:45Z</time>
  <course>147.89</course>
  <speed>0.0</speed>
  <fix>3d</fix>
</trkpt>
<trkpt lat="40.0728422" lon="-105.2305752">
  <ele>1590.8</ele>
  <time>2026-08-28T19:12:45Z</time>
  <course>11.42</course>
  <speed>0.022360679774997897</speed>
  <fix>3d</fix>
</trkpt>
<trkpt lat="40.0728424" lon="-105.2305753">
  <ele>1590.81</ele>
  <time>2026-08-28T19:12:45Z</time>
  <course>164.91</course>
  <speed>0.0</speed>
  <fix>3d</fix>
</trkpt>
<trkpt lat="40.0728422" lon="-105.2305752">
  <ele>1590.7</ele>
  <time>2026-08-28T19:12:45Z</time>
  <course>11.43</course>
  <speed>0.022360679774997897</speed>
  <fix>3d</fix>
</trkpt>
<trkpt lat="40.0728424" lon="-105.2305753">
  <ele>1590.71</ele>
  <time>2026-08-28T19:12:45Z</time>
  <course>170.03</course>
  <speed>0.0</speed>
  <fix>3d</fix>
</trkpt>
<trkpt lat="40.0728422" lon="-105.2305752">
  <ele>1590.6</ele>
  <time>2026-08-28T19:12:45Z</time>
  <course>11.43</course>
  <speed>0.022360679774997897</speed>
  <fix>3d</fix>
</trkpt>
<trkpt lat="40.0728424" lon="-105.2305753">
  <ele>1590.61</ele>
  <time>2026-08-28T19:12:45Z</time>
  <course>172.93</course>
  <speed>0.0</speed>
  <fix>3d</fix>
</trkpt>
<trkpt lat="40.0728422" lon="-105.2305752">
  <ele>1590.5</ele>
  <time>2026-08-28T19:12:45Z</time>
  <course>11.42</course>
  <speed>0.022360679774997897</speed>
  <fix>3d</fix>
</trkpt>
<trkpt lat="40.0728424" lon="-105.2305753">
  <ele>1590.51</ele>
  <time>2026-08-28T19:12:45Z</time>
  <course>179.73</course>
  <speed>0.0</speed>
  <fix>3d</fix>
</trkpt>
<trkpt lat="40.0728422" lon="-105.2305752">
  <ele>1590.4</ele>
  <time>2026-08-28T19:12:45Z</time>
  <course>11.42</course>
  <speed>0.022360679774997897</speed>
  <fix>3d</fix>
</trkpt>
<trkpt lat="40.0728424" lon="-105.2305753">
  <ele>1590.4</ele>
  <time>2026-08-28T19:12:45Z</time>
  <course>187.32</course>
  <speed>0.0</speed>
  <fix>3d</fix>
</trkpt>
<trkpt lat="40.0728422" lon="-105.2305752">
  <ele>1590.3</ele>
  <time>2026-08-28T19:12:45Z</time>
  <course>11.41</course>
  <speed>0.022360679774997897</speed>
  <fix>3d</fix>
</trkpt>
<trkpt lat="40.0728424" lon="-105.2305753">
  <ele>1590.31</ele>
  <time>2026-08-28T19:12:45Z</time>
  <course>193.52</course>
  <speed>0.0</speed>
  <fix>3d</fix>
</trkpt>
<trkpt lat="40.0728422" lon="-105.2305752">
  <ele>1590.2</ele>
  <time>2026-08-28T19:12:45Z</time>
  <course>11.41</course>
  <speed>0.022360679774997897</speed>
  <fix>3d</fix>
</trkpt>
<trkpt lat="40.0728424" lon="-105.2305753">
  <ele>1590.21</ele>
  <time>2026-08-28T19:12:45Z</time>
  <course>196.59</course>
  <speed>0.0</speed>
  <fix>3d</fix>
</trkpt>
<trkpt lat="40.0728422" lon="-105.2305752">
  <ele>1590.1</ele>
  <time>2026-08-28T19:12:45Z</time>
  <course>11.41</course>
  <speed>0.022360679774997897</speed>
  <fix>3d</fix>
</trkpt>
<trkpt lat="40.0728424" lon="-105.2305753">
  <ele>1590.11</ele>
  <time>2026-08-28T19:12:45Z</time>
  <course>199.17</course>
  <speed>0.0</speed>
  <fix>3d</fix>
</trkpt>
<trkpt lat="40.0728422" lon="-105.2305752">
  <ele>1590.0</ele>
  <time>2026-08-28T19:12:45Z</time>
  <course>11.42</course>
  <speed>0.022360679774997897</speed>
  <fix>3d</fix>
</trkpt>
<trkpt lat="40.0728424" lon="-105.2305753">
  <ele>1590.01</ele>
  <time>2026-08-28T19:12:45Z</time>
  <course>202.87</course>
  <speed>0.0</speed>
  <fix>3d</fix>
</trkpt>
<trkpt lat="40.0728422" lon="-105.2305752">
  <ele>1589.9</ele>
  <time>2026-08-28T19:12:45Z</time>
  <course>11.42</course>
  <speed>0.022360679774997897</speed>
  <fix>3d</fix>
</trkpt>
<trkpt lat="40.0728424" lon="-105.2305753">
  <ele>1589.9</ele>
  <time>2026-08-28T19:12:45Z</time>
  <course>204.44</course>
  <speed>0.0</speed>
  <fix>3d</fix>
</trkpt>
<trkpt lat="40.0728422" lon="-105.2305752">
  <ele>1589.8</ele>
  <time>2026-08-28T19:12:45Z</time>
  <course>11.42</course>
  <speed>0.022360679774997897</speed>
  <fix>3d</fix>
</trkpt>
<trkpt lat="40.0728424" lon="-105.2305753">
  <ele>1589.81</ele>
  <time>2026-08-28T19:12:45Z</time>
  <course>204.51</course>
  <speed>0.0</speed>
  <fix>3d</fix>
</trkpt>
<trkpt lat="40.0728422" lon="-105.2305752">
  <ele>1589.7</ele>
  <time>2026-08-28T19:12:45Z</time>
  <course>11.42</course>
  <speed>0.022360679774997897</speed>
  <fix>3d</fix>
</trkpt>
<trkpt lat="40.0728424" lon="-105.2305753">
  <ele>1589.71</ele>
  <time>2026-08-28T19:12:45Z</time>
  <course>206.78</course>
  <speed>0.0</speed>
  <fix>3d</fix>
</trkpt>
<trkpt lat="40.0728422" lon="-105.2305752">
  <ele>1589.6</ele>
  <time>2026-08-28T19:12:45Z</time>
  <course>11.41</course>
  <speed>0.022360679774997897</speed>
  <fix>3d</fix>
</trkpt>
<trkpt lat="40.0728424" lon="-105.2305753">
  <ele>1589.61</ele>
  <time>2026-08-28T19:12:45Z</time>
  <course>209.61</course>
  <speed>0.0</speed>
  <fix>3d</fix>
</trkpt>
<trkpt lat="40.0728422" lon="-105.2305752">
  <ele>1589.5</ele>
  <time>2026-08-28T19:12:45Z</time>
  <course>11.41</course>
  <speed>0.022360679774997897</speed>
  <fix>3d</fix>
</trkpt>
<trkpt lat="40.0728423" lon="-105.2305753">
  <ele>1589.51</ele>
  <time>2026-08-28T19:12:45Z</time>
  <course>212.88</course>
  <speed>0.0</speed>
  <fix>3d</fix>
</trkpt>
<trkpt lat="40.0728422" lon="-105.2305752">
  <ele>1589.4</ele>
  <time>2026-08-28T19:12:45Z</time>
  <course>11.41</course>
  <speed>0.022360679774997897</speed>
  <fix>3d</fix>
</trkpt>
<trkpt lat="40.0728423" lon="-105.2305753">
  <ele>1589.4</ele>
  <time>2026-08-28T19:12:45Z</time>
  <course>220.59</course>
  <speed>0.0</speed>
  <fix>3d</fix>
</trkpt>
<trkpt lat="40.0728422" lon="-105.2305752">
  <ele>1589.29</ele>
  <time>2026-08-28T19:12:45Z</time>
  <course>11.41</course>
  <speed>0.022360679774997897</speed>
  <fix>3d</fix>
</trkpt>
<trkpt lat="40.0728423" lon="-105.2305753">
  <ele>1589.31</ele>
  <time>2026-08-28T19:12:45Z</time>
  <course>225.15</course>
  <speed>0.0</speed>
  <fix>3d</fix>
</trkpt>
<trkpt lat="40.0728422" lon="-105.2305752">
  <ele>1589.19</ele>
  <time>2026-08-28T19:12:45Z</time>
  <course>11.41</course>
  <speed>0.022360679774997897</speed>
  <fix>3d</fix>
</trkpt>
<trkpt lat="40.0728423" lon="-105.2305753">
  <ele>1589.21</ele>
  <time>2026-08-28T19:12:45Z</time>
  <course>224.24</course>
  <speed>0.0</speed>
  <fix>3d</fix>
</trkpt>
<trkpt lat="40.0728422" lon="-105.2305752">
  <ele>1589.09</ele>
  <time>2026-08-28T19:12:45Z</time>
  <course>11.41</course>
  <speed>0.022360679774997897</speed>
  <fix>3d</fix>
</trkpt>
<trkpt lat="40.0728423" lon="-105.2305753">
  <ele>1589.11</ele>
  <time>2026-08-28T19:12:45Z</time>
  <course>225.32</course>
  <speed>0.0</speed>
  <fix>3d</fix>
</trkpt>
<trkpt lat="40.0728422" lon="-105.2305752">
  <ele>1588.99</ele>
  <time>2026-08-28T19:12:45Z</time>
  <course>11.41</course>
  <speed>0.022360679774997897</speed>
  <fix>3d</fix>
</trkpt>
<trkpt lat="40.0728423" lon="-105.2305753">
  <ele>1589.01</ele>
  <time>2026-08-28T19:12:45Z</time>
  <course>229.29</course>
  <speed>0.0</speed>
  <fix>3d</fix>
</trkpt>
<trkpt lat="40.0728422" lon="-105.2305752">
  <ele>1588.9</ele>
  <time>2026-08-28T19:12:45Z</time>
  <course>11.41</course>
  <speed>0.01414213562373095</speed>
  <fix>3d</fix>
</trkpt>
<trkpt lat="40.0728423" lon="-105.2305753">
  <ele>1588.9</ele>
  <time>2026-08-28T19:12:45Z</time>
  <course>236.13</course>
  <speed>0.0</speed>
  <fix>3d</fix>
</trkpt>
<trkpt lat="40.0728422" lon="-105.2305752">
  <ele>1588.8</ele>
  <time>2026-08-28T19:12:45Z</time>
  <course>11.41</course>
  <speed>0.01414213562373095</speed>
  <fix>3d</fix>
</trkpt>
<trkpt lat="40.0728423" lon="-105.2305753">
  <ele>1588.81</ele>
  <time>2026-08-28T19:12:45Z</time>
  <course>245.98</course>
  <speed>0.0</speed>
  <fix>3d</fix>
</trkpt>
<trkpt lat="40.0728422" lon="-105.2305752">
  <ele>1588.7</ele>
  <time>2026-08-28T19:12:45Z</time>
  <course>11.41</course>
  <speed>0.01414213562373095</speed>
  <fix>3d</fix>
</trkpt>
<trkpt lat="40.0728423" lon="-105.2305753">
  <ele>1588.71</ele>
  <time>2026-08-28T19:12:45Z</time>
  <course>251.35</course>
  <speed>0.0</speed>
  <fix>3d</fix>
</trkpt>
<trkpt lat="40.0728422" lon="-105.2305752">
  <ele>1588.6</ele>
  <time>2026-08-28T19:12:45Z</time>
  <course>11.41</course>
  <speed>0.01414213562373095</speed>
  <fix>3d</fix>
</trkpt>
<trkpt lat="40.0728423" lon="-105.2305753">
  <ele>1588.62</ele>
  <time>2026-08-28T19:12:45Z</time>
  <course>251.64</course>
  <speed>0.0</speed>
  <fix>3d</fix>
</trkpt>
<trkpt lat="40.0728422" lon="-105.2305752">
  <ele>1588.5</ele>
  <time>2026-08-28T19:12:45Z</time>
  <course>11.41</course>
  <speed>0.01414213562373095</speed>
  <fix>3d</fix>
</trkpt>
<trkpt lat="40.0728423" lon="-105.2305753">
  <ele>1588.52</ele>
  <time>2026-08-28T19:12:45Z</time>
  <course>252.93</course>
  <speed>0.0</speed>
  <fix>3d</fix>
</trkpt>
<trkpt lat="40.0728422" lon="-105.2305752">
  <ele>1588.4</ele>
  <time>2026-08-28T19:12:45Z</time>
  <course>11.4</course>
  <speed>0.01414213562373095</speed>
  <fix>3d</fix>
</trkpt>
<trkpt lat="40.0728423" lon="-105.2305753">
  <ele>1588.41</ele>
  <time>2026-08-28T19:12:45Z</time>
  <course>256.91</course>
  <speed>0.0</speed>
  <fix>3d</fix>
</trkpt>
<trkpt lat="40.0728422" lon="-105.2305752">
  <ele>1588.3</ele>
  <time>2026-08-28T19:12:45Z</time>
  <course>11.4</course>
  <speed>0.01414213562373095</speed>
  <fix>3d</fix>
</trkpt>
<trkpt lat="40.0728423" lon="-105.2305753">
  <ele>1588.31</ele>
  <time>2026-08-28T19:12:45Z</time>
  <course>261.24</course>
  <speed>0.0</speed>
  <fix>3d</fix>
</trkpt>
<trkpt lat="40.0728422" lon="-105.2305752">
  <ele>1588.2</ele>
  <time>2026-08-28T19:12:45Z</time>
  <course>11.41</course>
  <speed>0.01414213562373095</speed>
  <fix>3d</fix>
</trkpt>
<trkpt lat="40.0728423" lon="-105.2305753">
  <ele>1588.21</ele>
  <time>2026-08-28T19:12:45Z</time>
  <course>260.52</course>
  <speed>0.0</speed>
  <fix>3d</fix>
</trkpt>
<trkpt lat="40.0728422" lon="-105.2305752">
  <ele>1588.1</ele>
  <time>2026-08-28T19:12:45Z</time>
  <course>11.41</course>
  <speed>0.01414213562373095</speed>
  <fix>3d</fix>
</trkpt>
<trkpt lat="40.0728423" lon="-105.2305753">
  <ele>1588.11</ele>
  <time>2026-08-28T19:12:45Z</time>
  <course>261.99</course>
  <speed>0.0</speed>
  <fix>3d</fix>
</trkpt>
<trkpt lat="40.0728422" lon="-105.2305752">
  <ele>1588.0</ele>
  <time>2026-08-28T19:12:45Z</time>
  <course>11.41</course>
  <speed>0.01414213562373095</speed>
  <fix>3d</fix>
</trkpt>
<trkpt lat="40.0728423" lon="-105.2305754">
  <ele>1588.01</ele>
  <time>2026-08-28T19:12:45Z</time>
  <course>272.81</course>
  <speed>0.0</speed>
  <fix>3d</fix>
</trkpt>
<trkpt lat="40.0728422" lon="-105.2305752">
  <ele>1587.9</ele>
  <time>2026-08-28T19:12:45Z</time>
  <course>11.41</course>
  <speed>0.01414213562373095</speed>
  <fix>3d</fix>
</trkpt>
<trkpt lat="40.0728423" lon="-105.2305755">
  <ele>1587.9</ele>
  <time>2026-08-28T19:12:45Z</time>
  <course>269.65</course>
  <speed>0.0</speed>
  <fix>3d</fix>
</trkpt>
<trkpt lat="40.0728422" lon="-105.2305752">
  <ele>1587.8</ele>
  <time>2026-08-28T19:12:45Z</time>
  <course>11.41</course>
  <speed>0.01414213562373095</speed>
  <fix>3d</fix>
</trkpt>
<trkpt lat="40.0728423" lon="-105.2305755">
  <ele>1587.81</ele>
  <time>2026-08-28T19:12:45Z</time>
  <course>252.92</course>
  <speed>0.0</speed>
  <fix>3d</fix>
</trkpt>
<trkpt lat="40.0728422" lon="-105.2305752">
  <ele>1587.7</ele>
  <time>2026-08-28T19:12:45Z</time>
  <course>11.41</course>
  <speed>0.01414213562373095</speed>
  <fix>3d</fix>
</trkpt>
<trkpt lat="40.0728423" lon="-105.2305755">
  <ele>1587.71</ele>
  <time>2026-08-28T19:12:45Z</time>
  <course>253.0</course>
  <speed>0.0</speed>
  <fix>3d</fix>
</trkpt>
<trkpt lat="40.0728422" lon="-105.2305752">
  <ele>1587.6</ele>
  <time>2026-08-28T19:12:45Z</time>
  <course>11.4</course>
  <speed>0.01414213562373095</speed>
  <fix>3d</fix>
</trkpt>
<trkpt lat="40.0728423" lon="-105.2305755">
  <ele>1587.61</ele>
  <time>2026-08-28T19:12:45Z</time>
  <course>264.63</course>
  <speed>0.0</speed>
  <fix>3d</fix>
</trkpt>
<trkpt lat="40.0728422" lon="-105.2305752">
  <ele>1587.5</ele>
  <time>2026-08-28T19:12:45Z</time>
  <course>11.4</course>
  <speed>0.01414213562373095</speed>
  <fix>3d</fix>
</trkpt>
<trkpt lat="40.0728423" lon="-105.2305755">
  <ele>1587.51</ele>
  <time>2026-08-28T19:12:45Z</time>
  <course>281.36</course>
  <speed>0.0</speed>
  <fix>3d</fix>
</trkpt>
<trkpt lat="40.0728422" lon="-105.2305752">
  <ele>1587.4</ele>
  <time>2026-08-28T19:12:45Z</time>
  <course>11.4</course>
  <speed>0.01414213562373095</speed>
  <fix>3d</fix>
</trkpt>
<trkpt lat="40.0728423" lon="-105.2305755">
  <ele>1587.4</ele>
  <time>2026-08-28T19:12:45Z</time>
  <course>327.6</course>
  <speed>0.0</speed>
  <fix>3d</fix>
</trkpt>
<trkpt lat="40.0728422" lon="-105.2305752">
  <ele>1587.3</ele>
  <time>2026-08-28T19:12:45Z</time>
  <course>11.4</course>
  <speed>0.01414213562373095</speed>
  <fix>3d</fix>
</trkpt>
<trkpt lat="40.0728423" lon="-105.2305755">
  <ele>1587.31</ele>
  <time>2026-08-28T19:12:45Z</time>
  <course>4.47</course>
  <speed>0.0</speed>
  <fix>3d</fix>
</trkpt>
<trkpt lat="40.0728422" lon="-105.2305752">
  <ele>1587.2</ele>
  <time>2026-08-28T19:12:45Z</time>
  <course>11.4</course>
  <speed>0.01414213562373095</speed>
  <fix>3d</fix>
</trkpt>
<trkpt lat="40.0728423" lon="-105.2305755">
  <ele>1587.21</ele>
  <time>2026-08-28T19:12:45Z</time>
  <course>28.97</course>
  <speed>0.0</speed>
  <fix>3d</fix>
</trkpt>
<trkpt lat="40.0728422" lon="-105.2305752">
  <ele>1587.1</ele>
  <time>2026-08-28T19:12:45Z</time>
  <course>11.4</course>
  <speed>0.022360679774997897</speed>
  <fix>3d</fix>
</trkpt>
<trkpt lat="40.0728423" lon="-105.2305755">
  <ele>1587.11</ele>
  <time>2026-08-28T19:12:45Z</time>
  <course>54.37</course>
  <speed>0.0</speed>
  <fix>3d</fix>
</trkpt>
<trkpt lat="40.0728422" lon="-105.2305753">
  <ele>1587.0</ele>
  <time>2026-08-28T19:12:45Z</time>
  <course>11.4</course>
  <speed>0.022360679774997897</speed>
  <fix>3d</fix>
</trkpt>
<trkpt lat="40.0728423" lon="-105.2305755">
  <ele>1587.01</ele>
  <time>2026-08-28T19:12:45Z</time>
  <course>67.4</course>
  <speed>0.0</speed>
  <fix>3d</fix>
</trkpt>
<trkpt lat="40.0728422" lon="-105.2305753">
  <ele>1586.9</ele>
  <time>2026-08-28T19:12:45Z</time>
  <course>11.4</course>
  <speed>0.022360679774997897</speed>
  <fix>3d</fix>
</trkpt>
<trkpt lat="40.0728423" lon="-105.2305755">
  <ele>1586.9</ele>
  <time>2026-08-28T19:12:45Z</time>
  <course>74.57</course>
  <speed>0.0</speed>
  <fix>3d</fix>
</trkpt>
<trkpt lat="40.0728422" lon="-105.2305753">
  <ele>1586.8</ele>
  <time>2026-08-28T19:12:45Z</time>
  <course>11.4</course>
  <speed>0.022360679774997897</speed>
  <fix>3d</fix>
</trkpt>
<trkpt lat="40.0728423" lon="-105.2305755">
  <ele>1586.81</ele>
  <time>2026-08-28T19:12:45Z</time>
  <course>76.68</course>
  <speed>0.0</speed>
  <fix>3d</fix>
</trkpt>
<trkpt lat="40.0728422" lon="-105.2305753">
  <ele>1586.7</ele>
  <time>2026-08-28T19:12:45Z</time>
  <course>11.4</course>
  <speed>0.022360679774997897</speed>
  <fix>3d</fix>
</trkpt>
<trkpt lat="40.0728423" lon="-105.2305755">
  <ele>1586.71</ele>
  <time>2026-08-28T19:12:45Z</time>
  <course>76.92</course>
  <speed>0.0</speed>
  <fix>3d</fix>
</trkpt>
<trkpt lat="40.0728422" lon="-105.2305753">
  <ele>1586.6</ele>
  <time>2026-08-28T19:12:45Z</time>
  <course>11.4</course>
  <speed>0.022360679774997897</speed>
  <fix>3d</fix>
</trkpt>
<trkpt lat="40.0728423" lon="-105.2305755">
  <ele>1586.61</ele>
  <time>2026-08-28T19:12:45Z</time>
  <course>78.54</course>
  <speed>0.0</speed>
  <fix>3d</fix>
</trkpt>
<trkpt lat="40.0728422" lon="-105.2305753">
  <ele>1586.5</ele>
  <time>2026-08-28T19:12:45Z</time>
  <course>11.4</course>
  <speed>0.022360679774997897</speed>
  <fix>3d</fix>
</trkpt>
<trkpt lat="40.0728423" lon="-105.2305755">
  <ele>1586.51</ele>
  <time>2026-08-28T19:12:45Z</time>
  <course>78.89</course>
  <speed>0.0</speed>
  <fix>3d</fix>
</trkpt>
<trkpt lat="40.0728422" lon="-105.2305753">
  <ele>1586.4</ele>
  <time>2026-08-28T19:12:45Z</time>
  <course>11.4</course>
  <speed>0.022360679774997897</speed>
  <fix>3d</fix>
</trkpt>
<trkpt lat="40.0728423" lon="-105.2305755">
  <ele>1586.4</ele>
  <time>2026-08-28T19:12:45Z</time>
  <course>80.22</course>
  <speed>0.0</speed>
  <fix>3d</fix>
</trkpt>
<trkpt lat="40.0728422" lon="-105.2305753">
  <ele>1586.3</ele>
  <time>2026-08-28T19:12:45Z</time>
  <course>11.39</course>
  <speed>0.022360679774997897</speed>
  <fix>3d</fix>
</trkpt>
<trkpt lat="40.0728423" lon="-105.2305755">
  <ele>1586.31</ele>
  <time>2026-08-28T19:12:45Z</time>
  <course>79.89</course>
  <speed>0.0</speed>
  <fix>3d</fix>
</trkpt>
<trkpt lat="40.0728422" lon="-105.2305753">
  <ele>1586.2</ele>
  <time>2026-08-28T19:12:45Z</time>
  <course>11.39</course>
  <speed>0.022360679774997897</speed>
  <fix>3d</fix>
</trkpt>
<trkpt lat="40.0728423" lon="-105.2305755">
  <ele>1586.21</ele>
  <time>2026-08-28T19:12:45Z</time>
  <course>79.84</course>
  <speed>0.0</speed>
  <fix>3d</fix>
</trkpt>
<trkpt lat="40.0728422" lon="-105.2305753">
  <ele>1586.15</ele>
  <time>2026-08-28T19:12:45Z</time>
  <course>11.38</course>
  <speed>0.022360679774997897</speed>
  <fix>3d</fix>
</trkpt>
<trkpt lat="40.0728423" lon="-105.2305755">
  <ele>1586.11</ele>
  <time>2026-08-28T19:12:45Z</time>
  <course>81.13</course>
  <speed>0.0</speed>
  <fix>3d</fix>
</trkpt>
<trkpt lat="40.0728422" lon="-105.2305753">
  <ele>1586.17</ele>
  <time>2026-08-28T19:12:45Z</time>
  <course>11.38</course>
  <speed>0.022360679774997897</speed>
  <fix>3d</fix>
</trkpt>
<trkpt lat="40.0728423" lon="-105.2305755">
  <ele>1586.07</ele>
  <time>2026-08-28T19:12:45Z</time>
  <course>80.76</course>
  <speed>0.0</speed>
  <fix>3d</fix>
</trkpt>
<trkpt lat="40.0728422" lon="-105.2305753">
  <ele>1586.18</ele>
  <time>2026-08-28T19:12:45Z</time>
  <course>11.38</course>
  <speed>0.022360679774997897</speed>
  <fix>3d</fix>
</trkpt>
<trkpt lat="40.0728423" lon="-105.2305755">
  <ele>1586.09</ele>
  <time>2026-08-28T19:12:45Z</time>
  <course>260.96</course>
  <speed>0.0</speed>
  <fix>3d</fix>
</trkpt>
<trkpt lat="40.0728422" lon="-105.2305753">
  <ele>1586.17</ele>
  <time>2026-08-28T19:12:45Z</time>
  <course>11.38</course>
  <speed>0.022360679774997897</speed>
  <fix>3d</fix>
</trkpt>
<trkpt lat="40.0728423" lon="-105.2305755">
  <ele>1586.09</ele>
  <time>2026-08-28T19:12:45Z</time>
  <course>80.9</course>
  <speed>0.0</speed>
  <fix>3d</fix>
</trkpt>
<trkpt lat="40.0728422" lon="-105.2305753">
  <ele>1586.18</ele>
  <time>2026-08-28T19:12:45Z</time>
  <course>11.38</course>
  <speed>0.022360679774997897</speed>
  <fix>3d</fix>
</trkpt>
<trkpt lat="40.0728423" lon="-105.2305755">
  <ele>1586.09</ele>
  <time>2026-08-28T19:12:45Z</time>
  <course>81.0</course>
  <speed>0.0</speed>
  <fix>3d</fix>
</trkpt>
<trkpt lat="40.0728422" lon="-105.2305753">
  <ele>1586.17</ele>
  <time>2026-08-28T19:12:45Z</time>
  <course>11.38</course>
  <speed>0.022360679774997897</speed>
  <fix>3d</fix>
</trkpt>
<trkpt lat="40.0728423" lon="-105.2305755">
  <ele>1586.09</ele>
  <time>2026-08-28T19:12:45Z</time>
  <course>259.02</course>
  <speed>0.0</speed>
  <fix>3d</fix>
</trkpt>
<trkpt lat="40.0728422" lon="-105.2305753">
  <ele>1586.17</ele>
  <time>2026-08-28T19:12:45Z</time>
  <course>11.38</course>
  <speed>0.022360679774997897</speed>
  <fix>3d</fix>
</trkpt>
<trkpt lat="40.0728423" lon="-105.2305755">
  <ele>1586.09</ele>
  <time>2026-08-28T19:12:45Z</time>
  <course>257.39</course>
  <speed>0.0</speed>
  <fix>3d</fix>
</trkpt>
<trkpt lat="40.0728422" lon="-105.2305753">
  <ele>1586.18</ele>
  <time>2026-08-28T19:12:45Z</time>
  <course>11.38</course>
  <speed>0.022360679774997897</speed>
  <fix>3d</fix>
</trkpt>
<trkpt lat="40.0728423" lon="-105.2305755">
  <ele>1586.09</ele>
  <time>2026-08-28T19:12:45Z</time>
  <course>80.91</course>
  <speed>0.0</speed>
  <fix>3d</fix>
</trkpt>
<trkpt lat="40.0728422" lon="-105.2305753">
  <ele>1586.18</ele>
  <time>2026-08-28T19:12:45Z</time>
  <course>11.38</course>
  <speed>0.022360679774997897</speed>
  <fix>3d</fix>
</trkpt>
<trkpt lat="40.0728423" lon="-105.2305755">
  <ele>1586.09</ele>
  <time>2026-08-28T19:12:45Z</time>
  <course>34.42</course>
  <speed>0.0</speed>
  <fix>3d</fix>
</trkpt>
<trkpt lat="40.0728422" lon="-105.2305753">
  <ele>1586.18</ele>
  <time>2026-08-28T19:12:45Z</time>
  <course>11.37</course>
  <speed>0.022360679774997897</speed>
  <fix>3d</fix>
</trkpt>
<trkpt lat="40.0728423" lon="-105.2305755">
  <ele>1586.09</ele>
  <time>2026-08-28T19:12:45Z</time>
  <course>306.88</course>
  <speed>0.0</speed>
  <fix>3d</fix>
</trkpt>
<trkpt lat="40.0728422" lon="-105.2305753">
  <ele>1586.18</ele>
  <time>2026-08-28T19:12:45Z</time>
  <course>11.37</course>
  <speed>0.022360679774997897</speed>
  <fix>3d</fix>
</trkpt>
<trkpt lat="40.0728423" lon="-105.2305755">
  <ele>1586.09</ele>
  <time>2026-08-28T19:12:45Z</time>
  <course>303.37</course>
  <speed>0.0</speed>
  <fix>3d</fix>
</trkpt>
<trkpt lat="40.0728422" lon="-105.2305753">
  <ele>1586.18</ele>
  <time>2026-08-28T19:12:45Z</time>
  <course>11.37</course>
  <speed>0.022360679774997897</speed>
  <fix>3d</fix>
</trkpt>
<trkpt lat="40.0728423" lon="-105.2305755">
  <ele>1586.09</ele>
  <time>2026-08-28T19:12:45Z</time>
  <course>126.76</course>
  <speed>0.0</speed>
  <fix>3d</fix>
</trkpt>
<trkpt lat="40.0728422" lon="-105.2305753">
  <ele>1586.18</ele>
  <time>2026-08-28T19:12:45Z</time>
  <course>11.37</course>
  <speed>0.022360679774997897</speed>
  <fix>3d</fix>
</trkpt>
<trkpt lat="40.0728423" lon="-105.2305755">
  <ele>1586.09</ele>
  <time>2026-08-28T19:12:45Z</time>
  <course>308.47</course>
  <speed>0.0</speed>
  <fix>3d</fix>
</trkpt>
<trkpt lat="40.0728422" lon="-105.2305753">
  <ele>1586.18</ele>
  <time>2026-08-28T19:12:45Z</time>
  <course>11.37</course>
  <speed>0.022360679774997897</speed>
  <fix>3d</fix>
</trkpt>
<trkpt lat="40.0728423" lon="-105.2305755">
  <ele>1586.09</ele>
  <time>2026-08-28T19:12:45Z</time>
  <course>306.63</course>
  <speed>0.0</speed>
  <fix>3d</fix>
</trkpt>
<trkpt lat="40.0728422" lon="-105.2305753">
  <ele>1586.18</ele>
  <time>2026-08-28T19:12:45Z</time>
  <course>11.36</course>
  <speed>0.01414213562373095</speed>
  <fix>3d</fix>
</trkpt>
<trkpt lat="40.0728423" lon="-105.2305755">
  <ele>1586.09</ele>
  <time>2026-08-28T19:12:45Z</time>
  <course>127.39</course>
  <speed>0.0</speed>
  <fix>3d</fix>
</trkpt>
<trkpt lat="40.0728422" lon="-105.2305753">
  <ele>1586.18</ele>
  <time>2026-08-28T19:12:45Z</time>
  <course>11.36</course>
  <speed>0.01414213562373095</speed>
  <fix>3d</fix>
</trkpt>
<trkpt lat="40.0728423" lon="-105.2305755">
  <ele>1586.09</ele>
  <time>2026-08-28T19:12:45Z</time>
  <course>126.46</course>
  <speed>0.0</speed>
  <fix>3d</fix>
</trkpt>
<trkpt lat="40.0728422" lon="-105.2305753">
  <ele>1586.19</ele>
  <time>2026-08-28T19:12:45Z</time>
  <course>11.36</course>
  <speed>0.01414213562373095</speed>
  <fix>3d</fix>
</trkpt>
<trkpt lat="40.0728423" lon="-105.2305755">
  <ele>1586.09</ele>
  <time>2026-08-28T19:12:45Z</time>
  <course>307.09</course>
  <speed>0.0</speed>
  <fix>3d</fix>
</trkpt>
<trkpt lat="40.0728422" lon="-105.2305753">
  <ele>1586.19</ele>
  <time>2026-08-28T19:12:45Z</time>
  <course>11.36</course>
  <speed>0.01414213562373095</speed>
  <fix>3d</fix>
</trkpt>
<trkpt lat="40.0728423" lon="-105.2305755">
  <ele>1586.09</ele>
  <time>2026-08-28T19:12:45Z</time>
  <course>306.15</course>
  <speed>0.0</speed>
  <fix>3d</fix>
</trkpt>
<trkpt lat="40.0728422" lon="-105.2305753">
  <ele>1586.19</ele>
  <time>2026-08-28T19:12:45Z</time>
  <course>11.36</course>
  <speed>0.01414213562373095</speed>
  <fix>3d</fix>
</trkpt>
<trkpt lat="40.0728423" lon="-105.2305755">
  <ele>1586.09</ele>
  <time>2026-08-28T19:12:45Z</time>
  <course>126.92</course>
  <speed>0.0</speed>
  <fix>3d</fix>
</trkpt>
<trkpt lat="40.0728422" lon="-105.2305753">
  <ele>1586.19</ele>
  <time>2026-08-28T19:12:45Z</time>
  <course>11.35</course>
  <speed>0.01414213562373095</speed>
  <fix>3d</fix>
</trkpt>
<trkpt lat="40.0728423" lon="-105.2305755">
  <ele>1586.09</ele>
  <time>2026-08-28T19:12:45Z</time>
  <course>124.99</course>
  <speed>0.0</speed>
  <fix>3d</fix>
</trkpt>
<trkpt lat="40.0728422" lon="-105.2305753">
  <ele>1586.19</ele>
  <time>2026-08-28T19:12:45Z</time>
  <course>11.35</course>
  <speed>0.01414213562373095</speed>
  <fix>3d</fix>
</trkpt>
<trkpt lat="40.0728423" lon="-105.2305755">
  <ele>1586.09</ele>
  <time>2026-08-28T19:12:45Z</time>
  <course>306.79</course>
  <speed>0.0</speed>
  <fix>3d</fix>
</trkpt>
<trkpt lat="40.0728422" lon="-105.2305753">
  <ele>1586.19</ele>
  <time>2026-08-28T19:12:45Z</time>
  <course>11.35</course>
  <speed>0.01414213562373095</speed>
  <fix>3d</fix>
</trkpt>
<trkpt lat="40.0728423" lon="-105.2305755">
  <ele>1586.09</ele>
  <time>2026-08-28T19:12:45Z</time>
  <course>129.86</course>
  <speed>0.0</speed>
  <fix>3d</fix>
</trkpt>
<trkpt lat="40.0728422" lon="-105.2305753">
  <ele>1586.19</ele>
  <time>2026-08-28T19:12:45Z</time>
  <course>11.35</course>
  <speed>0.01414213562373095</speed>
  <fix>3d</fix>
</trkpt>
<trkpt lat="40.0728423" lon="-105.2305755">
  <ele>1586.09</ele>
  <time>2026-08-28T19:12:45Z</time>
  <course>126.67</course>
  <speed>0.0</speed>
  <fix>3d</fix>
</trkpt>
<trkpt lat="40.0728422" lon="-105.2305753">
  <ele>1586.19</ele>
  <time>2026-08-28T19:12:45Z</time>
  <course>11.34</course>
  <speed>0.01414213562373095</speed>
  <fix>3d</fix>
</trkpt>
<trkpt lat="40.0728423" lon="-105.2305755">
  <ele>1586.09</ele>
  <time>2026-08-28T19:12:45Z</time>
  <course>307.55</course>
  <speed>0.0</speed>
  <fix>3d</fix>
</trkpt>
<trkpt lat="40.0728422" lon="-105.2305753">
  <ele>1586.19</ele>
  <time>2026-08-28T19:12:45Z</time>
  <course>11.34</course>
  <speed>0.01414213562373095</speed>
  <fix>3d</fix>
</trkpt>
<trkpt lat="40.0728423" lon="-105.2305755">
  <ele>1586.09</ele>
  <time>2026-08-28T19:12:45Z</time>
  <course>306.51</course>
  <speed>0.0</speed>
  <fix>3d</fix>
</trkpt>
<trkpt lat="40.0728422" lon="-105.2305753">
  <ele>1586.19</ele>
  <time>2026-08-28T19:12:45Z</time>
  <course>11.34</course>
  <speed>0.01414213562373095</speed>
  <fix>3d</fix>
</trkpt>
<trkpt lat="40.0728423" lon="-105.2305755">
  <ele>1586.09</ele>
  <time>2026-08-28T19:12:45Z</time>
  <course>127.15</course>
  <speed>0.0</speed>
  <fix>3d</fix>
</trkpt>
<trkpt lat="40.0728422" lon="-105.2305753">
  <ele>1586.19</ele>
  <time>2026-08-28T19:12:45Z</time>
  <course>11.33</course>
  <speed>0.01414213562373095</speed>
  <fix>3d</fix>
</trkpt>
<trkpt lat="40.0728423" lon="-105.2305755">
  <ele>1586.09</ele>
  <time>2026-08-28T19:12:45Z</time>
  <course>126.27</course>
  <speed>0.0</speed>
  <fix>3d</fix>
</trkpt>
<trkpt lat="40.0728422" lon="-105.2305753">
  <ele>1586.19</ele>
  <time>2026-08-28T19:12:45Z</time>
  <course>11.33</course>
  <speed>0.01414213562373095</speed>
  <fix>3d</fix>
</trkpt>
<trkpt lat="40.0728423" lon="-105.2305755">
  <ele>1586.09</ele>
  <time>2026-08-28T19:12:45Z</time>
  <course>307.04</course>
  <speed>0.0</speed>
  <fix>3d</fix>
</trkpt>
<trkpt lat="40.0728422" lon="-105.2305753">
  <ele>1586.19</ele>
  <time>2026-08-28T19:12:45Z</time>
  <course>11.33</course>
  <speed>0.01414213562373095</speed>
  <fix>3d</fix>
</trkpt>
<trkpt lat="40.0728423" lon="-105.2305755">
  <ele>1586.09</ele>
  <time>2026-08-28T19:12:45Z</time>
  <course>305.93</course>
  <speed>0.0</speed>
  <fix>3d</fix>
</trkpt>
<trkpt lat="40.0728422" lon="-105.2305753">
  <ele>1586.19</ele>
  <time>2026-08-28T19:12:45Z</time>
  <course>11.32</course>
  <speed>0.01414213562373095</speed>
  <fix>3d</fix>
</trkpt>
<trkpt lat="40.0728423" lon="-105.2305755">
  <ele>1586.09</ele>
  <time>2026-08-28T19:12:45Z</time>
  <course>128.15</course>
  <speed>0.0</speed>
  <fix>3d</fix>
</trkpt>
<trkpt lat="40.0728422" lon="-105.2305753">
  <ele>1586.19</ele>
  <time>2026-08-28T19:12:45Z</time>
  <course>11.32</course>
  <speed>0.01414213562373095</speed>
  <fix>3d</fix>
</trkpt>
<trkpt lat="40.0728423" lon="-105.2305755">
  <ele>1586.09</ele>
  <time>2026-08-28T19:12:45Z</time>
  <course>327.24</course>
  <speed>0.0</speed>
  <fix>3d</fix>
</trkpt>
<trkpt lat="40.0728422" lon="-105.2305753">
  <ele>1586.19</ele>
  <time>2026-08-28T19:12:45Z</time>
  <course>11.32</course>
  <speed>0.01414213562373095</speed>
  <fix>3d</fix>
</trkpt>
<trkpt lat="40.0728423" lon="-105.2305755">
  <ele>1586.09</ele>
  <time>2026-08-28T19:12:45Z</time>
  <course>321.73</course>
  <speed>0.0</speed>
  <fix>3d</fix>
</trkpt>
<trkpt lat="40.0728422" lon="-105.2305753">
  <ele>1586.19</ele>
  <time>2026-08-28T19:12:45Z</time>
  <course>11.31</course>
  <speed>0.01414213562373095</speed>
  <fix>3d</fix>
</trkpt>
<trkpt lat="40.0728423" lon="-105.2305755">
  <ele>1586.09</ele>
  <time>2026-08-28T19:12:45Z</time>
  <course>330.81</course>
  <speed>0.0</speed>
  <fix>3d</fix>
</trkpt>
<trkpt lat="40.0728422" lon="-105.2305753">
  <ele>1586.19</ele>
  <time>2026-08-28T19:12:45Z</time>
  <course>11.31</course>
  <speed>0.01414213562373095</speed>
  <fix>3d</fix>
</trkpt>
<trkpt lat="40.0728423" lon="-105.2305755">
  <ele>1586.09</ele>
  <time>2026-08-28T19:12:45Z</time>
  <course>332.21</course>
  <speed>0.0</speed>
  <fix>3d</fix>
</trkpt>
<trkpt lat="40.0728422" lon="-105.2305753">
  <ele>1586.19</ele>
  <time>2026-08-28T19:12:45Z</time>
  <course>11.31</course>
  <speed>0.01414213562373095</speed>
  <fix>3d</fix>
</trkpt>
<trkpt lat="40.0728423" lon="-105.2305755">
  <ele>1586.09</ele>
  <time>2026-08-28T19:12:45Z</time>
  <course>332.41</course>
  <speed>0.0</speed>
  <fix>3d</fix>
</trkpt>
<trkpt lat="40.0728422" lon="-105.2305753">
  <ele>1586.19</ele>
  <time>2026-08-28T19:12:45Z</time>
  <course>11.3</course>
  <speed>0.01414213562373095</speed>
  <fix>3d</fix>
</trkpt>
<trkpt lat="40.0728423" lon="-105.2305755">
  <ele>1586.09</ele>
  <time>2026-08-28T19:12:45Z</time>
  <course>332.44</course>
  <speed>0.0</speed>
  <fix>3d</fix>
</trkpt>
<trkpt lat="40.0728422" lon="-105.2305753">
  <ele>1586.19</ele>
  <time>2026-08-28T19:12:45Z</time>
  <course>11.3</course>
  <speed>0.01414213562373095</speed>
  <fix>3d</fix>
</trkpt>
<trkpt lat="40.0728423" lon="-105.2305755">
  <ele>1586.09</ele>
  <time>2026-08-28T19:12:45Z</time>
  <course>332.44</course>
  <speed>0.0</speed>
  <fix>3d</fix>
</trkpt>
<trkpt lat="40.0728422" lon="-105.2305753">
  <ele>1586.19</ele>
  <time>2026-08-28T19:12:45Z</time>
  <course>11.3</course>
  <speed>0.01414213562373095</speed>
  <fix>3d</fix>
</trkpt>
<trkpt lat="40.0728423" lon="-105.2305755">
  <ele>1586.09</ele>
  <time>2026-08-28T19:12:45Z</time>
  <course>332.44</course>
  <speed>0.0</speed>
  <fix>3d</fix>
</trkpt>
<trkpt lat="40.0728422" lon="-105.2305753">
  <ele>1586.19</ele>
  <time>2026-08-28T19:12:45Z</time>
  <course>11.29</course>
  <speed>0.01414213562373095</speed>
  <fix>3d</fix>
</trkpt>
<trkpt lat="40.0728423" lon="-105.2305755">
  <ele>1586.09</ele>
  <time>2026-08-28T19:12:45Z</time>
  <course>332.44</course>
  <speed>0.0</speed>
  <fix>3d</fix>
</trkpt>
<trkpt lat="40.0728422" lon="-105.2305753">
  <ele>1586.19</ele>
  <time>2026-08-28T19:12:45Z</time>
  <course>11.29</course>
  <speed>0.01414213562373095</speed>
  <fix>3d</fix>
</trkpt>
<trkpt lat="40.0728423" lon="-105.2305755">
  <ele>1586.09</ele>
  <time>2026-08-28T19:12:45Z</time>
  <course>332.44</course>
  <speed>0.0</speed>
  <fix>3d</fix>
</trkpt>
<trkpt lat="40.0728422" lon="-105.2305753">
  <ele>1586.19</ele>
  <time>2026-08-28T19:12:45Z</time>
  <course>11.29</course>
  <speed>0.01414213562373095</speed>
  <fix>3d</fix>
</trkpt>
<trkpt lat="40.0728423" lon="-105.2305755">
  <ele>1586.09</ele>
  <time>2026-08-28T19:12:45Z</time>
  <course>332.44</course>
  <speed>0.0</speed>
  <fix>3d</fix>
</trkpt>
<trkpt lat="40.0728422" lon="-105.2305753">
  <ele>1586.19</ele>
  <time>2026-08-28T19:12:45Z</time>
  <course>11.28</course>
  <speed>0.01414213562373095</speed>
  <fix>3d</fix>
</trkpt>
<trkpt lat="40.0728423" lon="-105.2305755">
  <ele>1586.09</ele>
  <time>2026-08-28T19:12:45Z</time>
  <course>332.44</course>
  <speed>0.0</speed>
  <fix>3d</fix>
</trkpt>
<trkpt lat="40.0728422" lon="-105.2305753">
  <ele>1586.19</ele>
  <time>2026-08-28T19:12:45Z</time>
  <course>11.28</course>
  <speed>0.01414213562373095</speed>
  <fix>3d</fix>
</trkpt>
<trkpt lat="40.0728423" lon="-105.2305755">
  <ele>1586.09</ele>
  <time>2026-08-28T19:12:45Z</time>
  <course>332.44</course>
  <speed>0.0</speed>
  <fix>3d</fix>
</trkpt>
<trkpt lat="40.0728422" lon="-105.2305753">
  <ele>1586.19</ele>
  <time>2026-08-28T19:12:45Z</time>
  <course>11.27</course>
  <speed>0.01414213562373095</speed>
  <fix>3d</fix>
</trkpt>
<trkpt lat="40.0728423" lon="-105.2305755">
  <ele>1586.09</ele>
  <time>2026-08-28T19:12:45Z</time>
  <course>332.44</course>
  <speed>0.0</speed>
  <fix>3d</fix>
</trkpt>
<trkpt lat="40.0728422" lon="-105.2305753">
  <ele>1586.19</ele>
  <time>2026-08-28T19:12:45Z</time>
  <course>11.27</course>
  <speed>0.01414213562373095</speed>
  <fix>3d</fix>
</trkpt>
<trkpt lat="40.0728423" lon="-105.2305755">
  <ele>1586.09</ele>
  <time>2026-08-28T19:12:45Z</time>
  <course>332.44</course>
  <speed>0.0</speed>
  <fix>3d</fix>
</trkpt>
<trkpt lat="40.0728422" lon="-105.2305753">
  <ele>1586.18</ele>
  <time>2026-08-28T19:12:45Z</time>
  <course>11.27</course>
  <speed>0.01414213562373095</speed>
  <fix>3d</fix>
</trkpt>
<trkpt lat="40.0728423" lon="-105.2305755">
  <ele>1586.09</ele>
  <time>2026-08-28T19:12:45Z</time>
  <course>332.44</course>
  <speed>0.0</speed>
  <fix>3d</fix>
</trkpt>
<trkpt lat="40.0728422" lon="-105.2305753">
  <ele>1586.18</ele>
  <time>2026-08-28T19:12:45Z</time>
  <course>11.26</course>
  <speed>0.01414213562373095</speed>
  <fix>3d</fix>
</trkpt>
<trkpt lat="40.0728423" lon="-105.2305755">
  <ele>1586.09</ele>
  <time>2026-08-28T19:12:45Z</time>
  <course>332.44</course>
  <speed>0.0</speed>
  <fix>3d</fix>
</trkpt>
<trkpt lat="40.0728422" lon="-105.2305753">
  <ele>1586.19</ele>
  <time>2026-08-28T19:12:45Z</time>
  <course>11.26</course>
  <speed>0.01414213562373095</speed>
  <fix>3d</fix>
</trkpt>
<trkpt lat="40.0728423" lon="-105.2305755">
  <ele>1586.09</ele>
  <time>2026-08-28T19:12:45Z</time>
  <course>332.44</course>
  <speed>0.0</speed>
  <fix>3d</fix>
</trkpt>
<trkpt lat="40.0728422" lon="-105.2305753">
  <ele>1586.19</ele>
  <time>2026-08-28T19:12:45Z</time>
  <course>11.25</course>
  <speed>0.01414213562373095</speed>
  <fix>3d</fix>
</trkpt>
<trkpt lat="40.0728423" lon="-105.2305755">
  <ele>1586.09</ele>
  <time>2026-08-28T19:12:45Z</time>
  <course>332.44</course>
  <speed>0.0</speed>
  <fix>3d</fix>
</trkpt>
<trkpt lat="40.0728422" lon="-105.2305753">
  <ele>1586.19</ele>
  <time>2026-08-28T19:12:45Z</time>
  <course>11.25</course>
  <speed>0.01414213562373095</speed>
  <fix>3d</fix>
</trkpt>
<trkpt lat="40.0728423" lon="-105.2305755">
  <ele>1586.09</ele>
  <time>2026-08-28T19:12:45Z</time>
  <course>332.44</course>
  <speed>0.0</speed>
  <fix>3d</fix>
</trkpt>
<trkpt lat="40.0728422" lon="-105.2305753">
  <ele>1586.19</ele>
  <time>2026-08-28T19:12:45Z</time>
  <course>11.24</course>
  <speed>0.01414213562373095</speed>
  <fix>3d</fix>
</trkpt>
<trkpt lat="40.0728423" lon="-105.2305755">
  <ele>1586.09</ele>
  <time>2026-08-28T19:12:45Z</time>
  <course>332.44</course>
  <speed>0.0</speed>
  <fix>3d</fix>
</trkpt>
<trkpt lat="40.0728422" lon="-105.2305753">
  <ele>1586.19</ele>
  <time>2026-08-28T19:12:45Z</time>
  <course>11.24</course>
  <speed>0.01414213562373095</speed>
  <fix>3d</fix>
</trkpt>
<trkpt lat="40.0728423" lon="-105.2305755">
  <ele>1586.09</ele>
  <time>2026-08-28T19:12:45Z</time>
  <course>332.44</course>
  <speed>0.0</speed>
  <fix>3d</fix>
</trkpt>
<trkpt lat="40.0728422" lon="-105.2305753">
  <ele>1586.19</ele>
  <time>2026-08-28T19:12:45Z</time>
  <course>11.24</course>
  <speed>0.01414213562373095</speed>
  <fix>3d</fix>
</trkpt>
<trkpt lat="40.0728423" lon="-105.2305755">
  <ele>1586.09</ele>
  <time>2026-08-28T19:12:45Z</time>
  <course>332.44</course>
  <speed>0.0</speed>
  <fix>3d</fix>
</trkpt>
<trkpt lat="40.0728422" lon="-105.2305753">
  <ele>1586.19</ele>
  <time>2026-08-28T19:12:45Z</time>
  <course>11.23</course>
  <speed>0.01414213562373095</speed>
  <fix>3d</fix>
</trkpt>
<trkpt lat="40.0728423" lon="-105.2305755">
  <ele>1586.09</ele>
  <time>2026-08-28T19:12:45Z</time>
  <course>332.44</course>
  <speed>0.0</speed>
  <fix>3d</fix>
</trkpt>
<trkpt lat="40.0728422" lon="-105.2305753">
  <ele>1586.2</ele>
  <time>2026-08-28T19:12:45Z</time>
  <course>11.23</course>
  <speed>0.01414213562373095</speed>
  <fix>3d</fix>
</trkpt>
<trkpt lat="40.0728423" lon="-105.2305755">
  <ele>1586.09</ele>
  <time>2026-08-28T19:12:45Z</time>
  <course>332.44</course>
  <speed>0.0</speed>
  <fix>3d</fix>
</trkpt>
<trkpt lat="40.0728422" lon="-105.2305753">
  <ele>1586.2</ele>
  <time>2026-08-28T19:12:45Z</time>
  <course>11.22</course>
  <speed>0.01414213562373095</speed>
  <fix>3d</fix>
</trkpt>
<trkpt lat="40.0728423" lon="-105.2305755">
  <ele>1586.09</ele>
  <time>2026-08-28T19:12:45Z</time>
  <course>332.44</course>
  <speed>0.0</speed>
  <fix>3d</fix>
</trkpt>
<trkpt lat="40.0728422" lon="-105.2305753">
  <ele>1586.2</ele>
  <time>2026-08-28T19:12:45Z</time>
  <course>11.22</course>
  <speed>0.01414213562373095</speed>
  <fix>3d</fix>
</trkpt>
<trkpt lat="40.0728423" lon="-105.2305755">
  <ele>1586.09</ele>
  <time>2026-08-28T19:12:45Z</time>
  <course>332.44</course>
  <speed>0.0</speed>
  <fix>3d</fix>
</trkpt>
<trkpt lat="40.0728422" lon="-105.2305753">
  <ele>1586.19</ele>
  <time>2026-08-28T19:12:45Z</time>
  <course>11.21</course>
  <speed>0.01414213562373095</speed>
  <fix>3d</fix>
</trkpt>
<trkpt lat="40.0728423" lon="-105.2305755">
  <ele>1586.09</ele>
  <time>2026-08-28T19:12:45Z</time>
  <course>332.44</course>
  <speed>0.0</speed>
  <fix>3d</fix>
</trkpt>
<trkpt lat="40.0728422" lon="-105.2305753">
  <ele>1586.2</ele>
  <time>2026-08-28T19:12:45Z</time>
  <course>11.43</course>
  <speed>0.01414213562373095</speed>
  <fix>3d</fix>
</trkpt>
<trkpt lat="40.0728423" lon="-105.2305755">
  <ele>1586.09</ele>
  <time>2026-08-28T19:12:45Z</time>
  <course>332.44</course>
  <speed>0.0</speed>
  <fix>3d</fix>
</trkpt>
<trkpt lat="40.0728422" lon="-105.2305753">
  <ele>1586.2</ele>
  <time>2026-08-28T19:12:46Z</time>
  <course>11.81</course>
  <speed>0.01414213562373095</speed>
  <fix>3d</fix>
</trkpt>
<trkpt lat="40.0728423" lon="-105.2305755">
  <ele>1586.09</ele>
  <time>2026-08-28T19:12:46Z</time>
  <course>332.44</course>
  <speed>0.0</speed>
  <fix>3d</fix>
</trkpt>
<trkpt lat="40.0728422" lon="-105.2305753">
  <ele>1586.2</ele>
  <time>2026-08-28T19:12:46Z</time>
  <course>12.15</course>
  <speed>0.01414213562373095</speed>
  <fix>3d</fix>
</trkpt>
<trkpt lat="40.0728423" lon="-105.2305755">
  <ele>1586.09</ele>
  <time>2026-08-28T19:12:46Z</time>
  <course>332.44</course>
  <speed>0.0</speed>
  <fix>3d</fix>
</trkpt>
<trkpt lat="40.0728422" lon="-105.2305753">
  <ele>1586.2</ele>
  <time>2026-08-28T19:12:46Z</time>
  <course>12.45</course>
  <speed>0.01414213562373095</speed>
  <fix>3d</fix>
</trkpt>
<trkpt lat="40.0728423" lon="-105.2305755">
  <ele>1586.09</ele>
  <time>2026-08-28T19:12:46Z</time>
  <course>332.44</course>
  <speed>0.0</speed>
  <fix>3d</fix>
</trkpt>
<trkpt lat="40.0728422" lon="-105.2305753">
  <ele>1586.19</ele>
  <time>2026-08-28T19:12:46Z</time>
  <course>12.74</course>
  <speed>0.01414213562373095</speed>
  <fix>3d</fix>
</trkpt>
<trkpt lat="40.0728423" lon="-105.2305755">
  <ele>1586.09</ele>
  <time>2026-08-28T19:12:46Z</time>
  <course>332.44</course>
  <speed>0.0</speed>
  <fix>3d</fix>
</trkpt>
<trkpt lat="40.0728422" lon="-105.2305753">
  <ele>1586.18</ele>
  <time>2026-08-28T19:12:46Z</time>
  <course>13.0</course>
  <speed>0.01414213562373095</speed>
  <fix>3d</fix>
</trkpt>
<trkpt lat="40.0728423" lon="-105.2305755">
  <ele>1586.09</ele>
  <time>2026-08-28T19:12:46Z</time>
  <course>332.44</course>
  <speed>0.0</speed>
  <fix>3d</fix>
</trkpt>
<trkpt lat="40.0728422" lon="-105.2305753">
  <ele>1586.18</ele>
  <time>2026-08-28T19:12:46Z</time>
  <course>13.24</course>
  <speed>0.01414213562373095</speed>
  <fix>3d</fix>
</trkpt>
<trkpt lat="40.0728423" lon="-105.2305755">
  <ele>1586.09</ele>
  <time>2026-08-28T19:12:46Z</time>
  <course>332.44</course>
  <speed>0.0</speed>
  <fix>3d</fix>
</trkpt>
<trkpt lat="40.0728422" lon="-105.2305753">
  <ele>1586.18</ele>
  <time>2026-08-28T19:12:46Z</time>
  <course>13.46</course>
  <speed>0.01414213562373095</speed>
  <fix>3d</fix>
</trkpt>
<trkpt lat="40.0728423" lon="-105.2305755">
  <ele>1586.09</ele>
  <time>2026-08-28T19:12:46Z</time>
  <course>332.44</course>
  <speed>0.0</speed>
  <fix>3d</fix>
</trkpt>
<trkpt lat="40.0728422" lon="-105.2305753">
  <ele>1586.18</ele>
  <time>2026-08-28T19:12:46Z</time>
  <course>13.67</course>
  <speed>0.01414213562373095</speed>
  <fix>3d</fix>
</trkpt>
<trkpt lat="40.0728423" lon="-105.2305755">
  <ele>1586.09</ele>
  <time>2026-08-28T19:12:46Z</time>
  <course>332.44</course>
  <speed>0.0</speed>
  <fix>3d</fix>
</trkpt>
<trkpt lat="40.0728422" lon="-105.2305753">
  <ele>1586.18</ele>
  <time>2026-08-28T19:12:46Z</time>
  <course>13.86</course>
  <speed>0.01414213562373095</speed>
  <fix>3d</fix>
</trkpt>
<trkpt lat="40.0728423" lon="-105.2305755">
  <ele>1586.09</ele>
  <time>2026-08-28T19:12:46Z</time>
  <course>332.44</course>
  <speed>0.0</speed>
  <fix>3d</fix>
</trkpt>
<trkpt lat="39.6562421" lon="-104.1365912">
  <ele>1569.6</ele>
  <time>2026-08-28T19:12:47Z</time>
  <course>0.0</course>
  <speed>0.0</speed>
  <fix>3d</fix>
</trkpt>
<trkpt lat="40.072842" lon="-105.230575">
  <ele>1586.09</ele>
  <time>2026-08-28T19:12:47Z</time>
  <course>2.03</course>
  <speed>0.0</speed>
  <fix>3d</fix>
</trkpt>
<trkpt lat="40.072842" lon="-105.230575">
  <ele>1586.09</ele>
  <time>2026-08-28T19:12:47Z</time>
  <course>0.0</course>
  <speed>0.0</speed>
  <fix>3d</fix>
</trkpt>
<trkpt lat="40.072842" lon="-105.230575">
  <ele>1586.09</ele>
  <time>2026-08-28T19:12:47Z</time>
  <course>2.37</course>
  <speed>0.0</speed>
  <fix>3d</fix>
</trkpt>
<trkpt lat="40.072842" lon="-105.230575">
  <ele>1586.09</ele>
  <time>2026-08-28T19:12:47Z</time>
  <course>0.0</course>
  <speed>0.0</speed>
  <fix>3d</fix>
</trkpt>
<trkpt lat="40.072842" lon="-105.230575">
  <ele>1586.09</ele>
  <time>2026-08-28T19:12:47Z</time>
  <course>3.11</course>
  <speed>0.0</speed>
  <fix>3d</fix>
</trkpt>
<trkpt lat="40.072842" lon="-105.230575">
  <ele>1586.09</ele>
  <time>2026-08-28T19:12:47Z</time>
  <course>0.0</course>
  <speed>0.0</speed>
  <fix>3d</fix>
</trkpt>
<trkpt lat="40.072842" lon="-105.230575">
  <ele>1586.09</ele>
  <time>2026-08-28T19:12:47Z</time>
  <course>3.8</course>
  <speed>0.0</speed>
  <fix>3d</fix>
</trkpt>
<trkpt lat="40.072842" lon="-105.230575">
  <ele>1586.09</ele>
  <time>2026-08-28T19:12:47Z</time>
  <course>0.0</course>
  <speed>0.0</speed>
  <fix>3d</fix>
</trkpt>
<trkpt lat="40.072842" lon="-105.230575">
  <ele>1586.09</ele>
  <time>2026-08-28T19:12:47Z</time>
  <course>4.43</course>
  <speed>0.0</speed>
  <fix>3d</fix>
</trkpt>
<trkpt lat="40.072842" lon="-105.230575">
  <ele>1586.09</ele>
  <time>2026-08-28T19:12:47Z</time>
  <course>0.0</course>
  <speed>0.0</speed>
  <fix>3d</fix>
</trkpt>
<trkpt lat="40.072842" lon="-105.230575">
  <ele>1586.09</ele>
  <time>2026-08-28T19:12:47Z</time>
  <course>5.03</course>
  <speed>0.0</speed>
  <fix>3d</fix>
</trkpt>
<trkpt lat="40.072842" lon="-105.230575">
  <ele>1586.09</ele>
  <time>2026-08-28T19:12:47Z</time>
  <course>0.0</course>
  <speed>0.0</speed>
  <fix>3d</fix>
</trkpt>
<trkpt lat="40.072842" lon="-105.230575">
  <ele>1586.09</ele>
  <time>2026-08-28T19:12:47Z</time>
  <course>5.59</course>
  <speed>0.0</speed>
  <fix>3d</fix>
</trkpt>
<trkpt lat="40.072842" lon="-105.230575">
  <ele>1586.09</ele>
  <time>2026-08-28T19:12:47Z</time>
  <course>0.0</course>
  <speed>0.0</speed>
  <fix>3d</fix>
</trkpt>
<trkpt lat="40.072842" lon="-105.230575">
  <ele>1586.09</ele>
  <time>2026-08-28T19:12:47Z</time>
  <course>6.11</course>
  <speed>0.0</speed>
  <fix>3d</fix>
</trkpt>
<trkpt lat="40.072842" lon="-105.230575">
  <ele>1586.09</ele>
  <time>2026-08-28T19:12:47Z</time>
  <course>0.0</course>
  <speed>0.0</speed>
  <fix>3d</fix>
</trkpt>
<trkpt lat="40.072842" lon="-105.230575">
  <ele>1586.09</ele>
  <time>2026-08-28T19:12:47Z</time>
  <course>6.61</course>
  <speed>0.0</speed>
  <fix>3d</fix>
</trkpt>
<trkpt lat="40.072842" lon="-105.230575">
  <ele>1586.09</ele>
  <time>2026-08-28T19:12:47Z</time>
  <course>0.0</course>
  <speed>0.0</speed>
  <fix>3d</fix>
</trkpt>
<trkpt lat="40.072842" lon="-105.230575">
  <ele>1586.09</ele>
  <time>2026-08-28T19:12:47Z</time>
  <course>7.07</course>
  <speed>0.0</speed>
  <fix>3d</fix>
</trkpt>
<trkpt lat="40.072842" lon="-105.230575">
  <ele>1586.09</ele>
  <time>2026-08-28T19:12:47Z</time>
  <course>0.0</course>
  <speed>0.0</speed>
  <fix>3d</fix>
</trkpt>
<trkpt lat="40.072842" lon="-105.230575">
  <ele>1586.09</ele>
  <time>2026-08-28T19:12:47Z</time>
  <course>7.49</course>
  <speed>0.0</speed>
  <fix>3d</fix>
</trkpt>
<trkpt lat="40.072842" lon="-105.230575">
  <ele>1586.09</ele>
  <time>2026-08-28T19:12:47Z</time>
  <course>0.0</course>
  <speed>0.0</speed>
  <fix>3d</fix>
</trkpt>
<trkpt lat="40.072842" lon="-105.230575">
  <ele>1586.09</ele>
  <time>2026-08-28T19:12:47Z</time>
  <course>7.89</course>
  <speed>0.0</speed>
  <fix>3d</fix>
</trkpt>
<trkpt lat="40.072842" lon="-105.230575">
  <ele>1586.09</ele>
  <time>2026-08-28T19:12:47Z</time>
  <course>0.0</course>
  <speed>0.0</speed>
  <fix>3d</fix>
</trkpt>
<trkpt lat="40.072842" lon="-105.230575">
  <ele>1586.09</ele>
  <time>2026-08-28T19:12:47Z</time>
  <course>8.26</course>
  <speed>0.0</speed>
  <fix>3d</fix>
</trkpt>
<trkpt lat="40.072842" lon="-105.230575">
  <ele>1586.09</ele>
  <time>2026-08-28T19:12:47Z</time>
  <course>0.0</course>
  <speed>0.0</speed>
  <fix>3d</fix>
</trkpt>
<trkpt lat="40.072842" lon="-105.230575">
  <ele>1586.09</ele>
  <time>2026-08-28T19:12:47Z</time>
  <course>8.6</course>
  <speed>0.0</speed>
  <fix>3d</fix>
</trkpt>
<trkpt lat="40.072842" lon="-105.230575">
  <ele>1586.09</ele>
  <time>2026-08-28T19:12:47Z</time>
  <course>0.0</course>
  <speed>0.0</speed>
  <fix>3d</fix>
</trkpt>
<trkpt lat="40.072842" lon="-105.230575">
  <ele>1586.09</ele>
  <time>2026-08-28T19:12:47Z</time>
  <course>8.91</course>
  <speed>0.0</speed>
  <fix>3d</fix>
</trkpt>
<trkpt lat="40.072842" lon="-105.230575">
  <ele>1586.09</ele>
  <time>2026-08-28T19:12:47Z</time>
  <course>0.0</course>
  <speed>0.0</speed>
  <fix>3d</fix>
</trkpt>
<trkpt lat="40.072842" lon="-105.230575">
  <ele>1586.09</ele>
  <time>2026-08-28T19:12:47Z</time>
  <course>9.2</course>
  <speed>0.0</speed>
  <fix>3d</fix>
</trkpt>
<trkpt lat="40.072842" lon="-105.230575">
  <ele>1586.09</ele>
  <time>2026-08-28T19:12:47Z</time>
  <course>0.0</course>
  <speed>0.0</speed>
  <fix>3d</fix>
</trkpt>
<trkpt lat="40.072842" lon="-105.230575">
  <ele>1586.09</ele>
  <time>2026-08-28T19:12:47Z</time>
  <course>9.46</course>
  <speed>0.0</speed>
  <fix>3d</fix>
</trkpt>
<trkpt lat="40.072842" lon="-105.230575">
  <ele>1586.09</ele>
  <time>2026-08-28T19:12:47Z</time>
  <course>0.0</course>
  <speed>0.0</speed>
  <fix>3d</fix>
</trkpt>
<trkpt lat="40.072842" lon="-105.230575">
  <ele>1586.09</ele>
  <time>2026-08-28T19:12:47Z</time>
  <course>9.71</course>
  <speed>0.0</speed>
  <fix>3d</fix>
</trkpt>
<trkpt lat="40.072842" lon="-105.230575">
  <ele>1586.09</ele>
  <time>2026-08-28T19:12:47Z</time>
  <course>0.0</course>
  <speed>0.0</speed>
  <fix>3d</fix>
</trkpt>
<trkpt lat="40.072842" lon="-105.230575">
  <ele>1586.09</ele>
  <time>2026-08-28T19:12:47Z</time>
  <course>9.93</course>
  <speed>0.0</speed>
  <fix>3d</fix>
</trkpt>
<trkpt lat="40.072842" lon="-105.230575">
  <ele>1586.09</ele>
  <time>2026-08-28T19:12:47Z</time>
  <course>0.0</course>
  <speed>0.0</speed>
  <fix>3d</fix>
</trkpt>
<trkpt lat="40.072842" lon="-105.230575">
  <ele>1586.09</ele>
  <time>2026-08-28T19:12:47Z</time>
  <course>10.14</course>
  <speed>0.0</speed>
  <fix>3d</fix>
</trkpt>
<trkpt lat="40.072842" lon="-105.230575">
  <ele>1586.09</ele>
  <time>2026-08-28T19:12:47Z</time>
  <course>0.0</course>
  <speed>0.0</speed>
  <fix>3d</fix>
</trkpt>
<trkpt lat="40.072842" lon="-105.230575">
  <ele>1586.09</ele>
  <time>2026-08-28T19:12:47Z</time>
  <course>10.33</course>
  <speed>0.0</speed>
  <fix>3d</fix>
</trkpt>
<trkpt lat="40.072842" lon="-105.230575">
  <ele>1586.09</ele>
  <time>2026-08-28T19:12:47Z</time>
  <course>0.0</course>
  <speed>0.0</speed>
  <fix>3d</fix>
</trkpt>
<trkpt lat="40.072842" lon="-105.230575">
  <ele>1586.09</ele>
  <time>2026-08-28T19:12:47Z</time>
  <course>10.5</course>
  <speed>0.0</speed>
  <fix>3d</fix>
</trkpt>
<trkpt lat="40.072842" lon="-105.230575">
  <ele>1586.09</ele>
  <time>2026-08-28T19:12:47Z</time>
  <course>0.0</course>
  <speed>0.0</speed>
  <fix>3d</fix>
</trkpt>
<trkpt lat="40.072842" lon="-105.230575">
  <ele>1586.09</ele>
  <time>2026-08-28T19:12:47Z</time>
  <course>10.66</course>
  <speed>0.0</speed>
  <fix>3d</fix>
</trkpt>
<trkpt lat="40.072842" lon="-105.230575">
  <ele>1586.09</ele>
  <time>2026-08-28T19:12:47Z</time>
  <course>0.0</course>
  <speed>0.0</speed>
  <fix>3d</fix>
</trkpt>
<trkpt lat="40.072842" lon="-105.230575">
  <ele>1586.09</ele>
  <time>2026-08-28T19:12:47Z</time>
  <course>10.8</course>
  <speed>0.0</speed>
  <fix>3d</fix>
</trkpt>
<trkpt lat="40.072842" lon="-105.230575">
  <ele>1586.09</ele>
  <time>2026-08-28T19:12:47Z</time>
  <course>0.0</course>
  <speed>0.0</speed>
  <fix>3d</fix>
</trkpt>
<trkpt lat="40.072842" lon="-105.230575">
  <ele>1586.09</ele>
  <time>2026-08-28T19:12:47Z</time>
  <course>10.93</course>
  <speed>0.0</speed>
  <fix>3d</fix>
</trkpt>
<trkpt lat="40.072842" lon="-105.230575">
  <ele>1586.09</ele>
  <time>2026-08-28T19:12:47Z</time>
  <course>0.0</course>
  <speed>0.0</speed>
  <fix>3d</fix>
</trkpt>
<trkpt lat="40.072842" lon="-105.230575">
  <ele>1586.09</ele>
  <time>2026-08-28T19:12:47Z</time>
  <course>11.06</course>
  <speed>0.0</speed>
  <fix>3d</fix>
</trkpt>
<trkpt lat="40.072842" lon="-105.230575">
  <ele>1586.09</ele>
  <time>2026-08-28T19:12:47Z</time>
  <course>0.0</course>
  <speed>0.0</speed>
  <fix>3d</fix>
</trkpt>
<trkpt lat="40.072842" lon="-105.230575">
  <ele>1586.09</ele>
  <time>2026-08-28T19:12:47Z</time>
  <course>11.16</course>
  <speed>0.0</speed>
  <fix>3d</fix>
</trkpt>
<trkpt lat="40.072842" lon="-105.230575">
  <ele>1586.09</ele>
  <time>2026-08-28T19:12:47Z</time>
  <course>0.0</course>
  <speed>0.0</speed>
  <fix>3d</fix>
</trkpt>
<trkpt lat="40.072842" lon="-105.230575">
  <ele>1586.09</ele>
  <time>2026-08-28T19:12:47Z</time>
  <course>11.27</course>
  <speed>0.0</speed>
  <fix>3d</fix>
</trkpt>
<trkpt lat="40.072842" lon="-105.230575">
  <ele>1586.09</ele>
  <time>2026-08-28T19:12:47Z</time>
  <course>0.0</course>
  <speed>0.0</speed>
  <fix>3d</fix>
</trkpt>
<trkpt lat="40.072842" lon="-105.230575">
  <ele>1586.09</ele>
  <time>2026-08-28T19:12:47Z</time>
  <course>11.36</course>
  <speed>0.0</speed>
  <fix>3d</fix>
</trkpt>
<trkpt lat="40.072842" lon="-105.230575">
  <ele>1586.09</ele>
  <time>2026-08-28T19:12:47Z</time>
  <course>0.0</course>
  <speed>0.0</speed>
  <fix>3d</fix>
</trkpt>
<trkpt lat="40.072842" lon="-105.230575">
  <ele>1586.09</ele>
  <time>2026-08-28T19:12:47Z</time>
  <course>11.44</course>
  <speed>0.0</speed>
  <fix>3d</fix>
</trkpt>
<trkpt lat="40.072842" lon="-105.230575">
  <ele>1586.09</ele>
  <time>2026-08-28T19:12:47Z</time>
  <course>0.0</course>
  <speed>0.0</speed>
  <fix>3d</fix>
</trkpt>
<trkpt lat="40.072842" lon="-105.230575">
  <ele>1586.09</ele>
  <time>2026-08-28T19:12:47Z</time>
  <course>11.52</course>
  <speed>0.0</speed>
  <fix>3d</fix>
</trkpt>
<trkpt lat="40.072842" lon="-105.230575">
  <ele>1586.09</ele>
  <time>2026-08-28T19:12:47Z</time>
  <course>0.0</course>
  <speed>0.0</speed>
  <fix>3d</fix>
</trkpt>
<trkpt lat="40.072842" lon="-105.230575">
  <ele>1586.09</ele>
  <time>2026-08-28T19:12:47Z</time>
  <course>11.58</course>
  <speed>0.0</speed>
  <fix>3d</fix>
</trkpt>
<trkpt lat="40.072842" lon="-105.230575">
  <ele>1586.09</ele>
  <time>2026-08-28T19:12:47Z</time>
  <course>0.0</course>
  <speed>0.0</speed>
  <fix>3d</fix>
</trkpt>
<trkpt lat="40.072842" lon="-105.230575">
  <ele>1586.09</ele>
  <time>2026-08-28T19:12:47Z</time>
  <course>11.65</course>
  <speed>0.0</speed>
  <fix>3d</fix>
</trkpt>
<trkpt lat="40.072842" lon="-105.230575">
  <ele>1586.09</ele>
  <time>2026-08-28T19:12:47Z</time>
  <course>0.0</course>
  <speed>0.0</speed>
  <fix>3d</fix>
</trkpt>
<trkpt lat="40.072842" lon="-105.230575">
  <ele>1586.09</ele>
  <time>2026-08-28T19:12:47Z</time>
  <course>11.71</course>
  <speed>0.0</speed>
  <fix>3d</fix>
</trkpt>
<trkpt lat="40.072842" lon="-105.230575">
  <ele>1586.09</ele>
  <time>2026-08-28T19:12:47Z</time>
  <course>0.0</course>
  <speed>0.0</speed>
  <fix>3d</fix>
</trkpt>
<trkpt lat="40.072842" lon="-105.230575">
  <ele>1586.09</ele>
  <time>2026-08-28T19:12:47Z</time>
  <course>11.76</course>
  <speed>0.0</speed>
  <fix>3d</fix>
</trkpt>
<trkpt lat="40.072842" lon="-105.230575">
  <ele>1586.09</ele>
  <time>2026-08-28T19:12:47Z</time>
  <course>0.0</course>
  <speed>0.0</speed>
  <fix>3d</fix>
</trkpt>
<trkpt lat="40.072842" lon="-105.230575">
  <ele>1586.09</ele>
  <time>2026-08-28T19:12:47Z</time>
  <course>11.81</course>
  <speed>0.0</speed>
  <fix>3d</fix>
</trkpt>
<trkpt lat="40.072842" lon="-105.230575">
  <ele>1586.09</ele>
  <time>2026-08-28T19:12:47Z</time>
  <course>0.0</course>
  <speed>0.0</speed>
  <fix>3d</fix>
</trkpt>
<trkpt lat="40.072842" lon="-105.230575">
  <ele>1586.09</ele>
  <time>2026-08-28T19:12:47Z</time>
  <course>11.85</course>
  <speed>0.0</speed>
  <fix>3d</fix>
</trkpt>
<trkpt lat="40.072842" lon="-105.230575">
  <ele>1586.09</ele>
  <time>2026-08-28T19:12:47Z</time>
  <course>0.0</course>
  <speed>0.0</speed>
  <fix>3d</fix>
</trkpt>
<trkpt lat="40.072842" lon="-105.230575">
  <ele>1586.09</ele>
  <time>2026-08-28T19:12:47Z</time>
  <course>11.89</course>
  <speed>0.0</speed>
  <fix>3d</fix>
</trkpt>
<trkpt lat="40.072842" lon="-105.230575">
  <ele>1586.09</ele>
  <time>2026-08-28T19:12:47Z</time>
  <course>0.0</course>
  <speed>0.0</speed>
  <fix>3d</fix>
</trkpt>
<trkpt lat="40.072842" lon="-105.230575">
  <ele>1586.09</ele>
  <time>2026-08-28T19:12:47Z</time>
  <course>11.92</course>
  <speed>0.0</speed>
  <fix>3d</fix>
</trkpt>
<trkpt lat="40.072842" lon="-105.230575">
  <ele>1586.09</ele>
  <time>2026-08-28T19:12:47Z</time>
  <course>0.0</course>
  <speed>0.0</speed>
  <fix>3d</fix>
</trkpt>
<trkpt lat="40.072842" lon="-105.230575">
  <ele>1586.09</ele>
  <time>2026-08-28T19:12:47Z</time>
  <course>11.95</course>
  <speed>0.0</speed>
  <fix>3d</fix>
</trkpt>
<trkpt lat="40.072842" lon="-105.230575">
  <ele>1586.09</ele>
  <time>2026-08-28T19:12:47Z</time>
  <course>0.0</course>
  <speed>0.0</speed>
  <fix>3d</fix>
</trkpt>
<trkpt lat="40.072842" lon="-105.230575">
  <ele>1586.09</ele>
  <time>2026-08-28T19:12:47Z</time>
  <course>11.97</course>
  <speed>0.0</speed>
  <fix>3d</fix>
</trkpt>
<trkpt lat="40.072842" lon="-105.230575">
  <ele>1586.09</ele>
  <time>2026-08-28T19:12:47Z</time>
  <course>0.0</course>
  <speed>0.0</speed>
  <fix>3d</fix>
</trkpt>
<trkpt lat="40.072842" lon="-105.230575">
  <ele>1586.09</ele>
  <time>2026-08-28T19:12:47Z</time>
  <course>12.0</course>
  <speed>0.0</speed>
  <fix>3d</fix>
</trkpt>
<trkpt lat="40.072842" lon="-105.230575">
  <ele>1586.09</ele>
  <time>2026-08-28T19:12:47Z</time>
  <course>0.0</course>
  <speed>0.0</speed>
  <fix>3d</fix>
</trkpt>
<trkpt lat="40.072842" lon="-105.230575">
  <ele>1586.09</ele>
  <time>2026-08-28T19:12:47Z</time>
  <course>12.02</course>
  <speed>0.0</speed>
  <fix>3d</fix>
</trkpt>
<trkpt lat="40.072842" lon="-105.230575">
  <ele>1586.09</ele>
  <time>2026-08-28T19:12:47Z</time>
  <course>0.0</course>
  <speed>0.0</speed>
  <fix>3d</fix>
</trkpt>
<trkpt lat="40.072842" lon="-105.230575">
  <ele>1586.09</ele>
  <time>2026-08-28T19:12:47Z</time>
  <course>12.04</course>
  <speed>0.0</speed>
  <fix>3d</fix>
</trkpt>
<trkpt lat="40.072842" lon="-105.230575">
  <ele>1586.09</ele>
  <time>2026-08-28T19:12:47Z</time>
  <course>0.0</course>
  <speed>0.0</speed>
  <fix>3d</fix>
</trkpt>
<trkpt lat="40.072842" lon="-105.230575">
  <ele>1586.09</ele>
  <time>2026-08-28T19:12:47Z</time>
  <course>12.05</course>
  <speed>0.0</speed>
  <fix>3d</fix>
</trkpt>
<trkpt lat="40.072842" lon="-105.230575">
  <ele>1586.09</ele>
  <time>2026-08-28T19:12:47Z</time>
  <course>0.0</course>
  <speed>0.0</speed>
  <fix>3d</fix>
</trkpt>
<trkpt lat="40.072842" lon="-105.230575">
  <ele>1586.09</ele>
  <time>2026-08-28T19:12:47Z</time>
  <course>12.07</course>
  <speed>0.0</speed>
  <fix>3d</fix>
</trkpt>
<trkpt lat="40.072842" lon="-105.230575">
  <ele>1586.09</ele>
  <time>2026-08-28T19:12:47Z</time>
  <course>0.0</course>
  <speed>0.0</speed>
  <fix>3d</fix>
</trkpt>
<trkpt lat="40.072842" lon="-105.230575">
  <ele>1586.09</ele>
  <time>2026-08-28T19:12:47Z</time>
  <course>12.08</course>
  <speed>0.0</speed>
  <fix>3d</fix>
</trkpt>
<trkpt lat="40.072842" lon="-105.230575">
  <ele>1586.09</ele>
  <time>2026-08-28T19:12:47Z</time>
  <course>0.0</course>
  <speed>0.0</speed>
  <fix>3d</fix>
</trkpt>
<trkpt lat="40.072842" lon="-105.230575">
  <ele>1586.09</ele>
  <time>2026-08-28T19:12:47Z</time>
  <course>12.09</course>
  <speed>0.0</speed>
  <fix>3d</fix>
</trkpt>
<trkpt lat="40.072842" lon="-105.230575">
  <ele>1586.09</ele>
  <time>2026-08-28T19:12:47Z</time>
  <course>0.0</course>
  <speed>0.0</speed>
  <fix>3d</fix>
</trkpt>
<trkpt lat="40.072842" lon="-105.230575">
  <ele>1586.09</ele>
  <time>2026-08-28T19:12:47Z</time>
  <course>12.1</course>
  <speed>0.0</speed>
  <fix>3d</fix>
</trkpt>
<trkpt lat="40.072842" lon="-105.230575">
  <ele>1586.09</ele>
  <time>2026-08-28T19:12:47Z</time>
  <course>0.0</course>
  <speed>0.0</speed>
  <fix>3d</fix>
</trkpt>
<trkpt lat="40.072842" lon="-105.230575">
  <ele>1586.09</ele>
  <time>2026-08-28T19:12:47Z</time>
  <course>12.1</course>
  <speed>0.0</speed>
  <fix>3d</fix>
</trkpt>
<trkpt lat="40.072842" lon="-105.230575">
  <ele>1586.09</ele>
  <time>2026-08-28T19:12:47Z</time>
  <course>0.0</course>
  <speed>0.0</speed>
  <fix>3d</fix>
</trkpt>
<trkpt lat="40.072842" lon="-105.230575">
  <ele>1586.09</ele>
  <time>2026-08-28T19:12:47Z</time>
  <course>12.11</course>
  <speed>0.0</speed>
  <fix>3d</fix>
</trkpt>
<trkpt lat="40.072842" lon="-105.230575">
  <ele>1586.09</ele>
  <time>2026-08-28T19:12:47Z</time>
  <course>0.0</course>
  <speed>0.0</speed>
  <fix>3d</fix>
</trkpt>
<trkpt lat="40.072842" lon="-105.230575">
  <ele>1586.09</ele>
  <time>2026-08-28T19:12:47Z</time>
  <course>12.11</course>
  <speed>0.0</speed>
  <fix>3d</fix>
</trkpt>
<trkpt lat="40.072842" lon="-105.230575">
  <ele>1586.09</ele>
  <time>2026-08-28T19:12:47Z</time>
  <course>0.0</course>
  <speed>0.0</speed>
  <fix>3d</fix>
</trkpt>
<trkpt lat="40.072842" lon="-105.230575">
  <ele>1586.09</ele>
  <time>2026-08-28T19:12:47Z</time>
  <course>12.12</course>
  <speed>0.0</speed>
  <fix>3d</fix>
</trkpt>
<trkpt lat="40.072842" lon="-105.230575">
  <ele>1586.09</ele>
  <time>2026-08-28T19:12:47Z</time>
  <course>0.0</course>
  <speed>0.0</speed>
  <fix>3d</fix>
</trkpt>
<trkpt lat="40.072842" lon="-105.230575">
  <ele>1586.09</ele>
  <time>2026-08-28T19:12:47Z</time>
  <course>12.12</course>
  <speed>0.0</speed>
  <fix>3d</fix>
</trkpt>
<trkpt lat="40.072842" lon="-105.230575">
  <ele>1586.09</ele>
  <time>2026-08-28T19:12:47Z</time>
  <course>0.0</course>
  <speed>0.0</speed>
  <fix>3d</fix>
</trkpt>
<trkpt lat="40.072842" lon="-105.230575">
  <ele>1586.09</ele>
  <time>2026-08-28T19:12:47Z</time>
  <course>12.12</course>
  <speed>0.0</speed>
  <fix>3d</fix>
</trkpt>
<trkpt lat="40.072842" lon="-105.230575">
  <ele>1586.09</ele>
  <time>2026-08-28T19:12:47Z</time>
  <course>0.0</course>
  <speed>0.0</speed>
  <fix>3d</fix>
</trkpt>
<trkpt lat="40.072842" lon="-105.230575">
  <ele>1586.09</ele>
  <time>2026-08-28T19:12:47Z</time>
  <course>12.12</course>
  <speed>0.0</speed>
  <fix>3d</fix>
</trkpt>
<trkpt lat="40.072842" lon="-105.230575">
  <ele>1586.09</ele>
  <time>2026-08-28T19:12:47Z</time>
  <course>0.0</course>
  <speed>0.0</speed>
  <fix>3d</fix>
</trkpt>
<trkpt lat="40.072842" lon="-105.230575">
  <ele>1586.09</ele>
  <time>2026-08-28T19:12:47Z</time>
  <course>12.12</course>
  <speed>0.0</speed>
  <fix>3d</fix>
</trkpt>
<trkpt lat="40.072842" lon="-105.230575">
  <ele>1586.09</ele>
  <time>2026-08-28T19:12:47Z</time>
  <course>0.0</course>
  <speed>0.0</speed>
  <fix>3d</fix>
</trkpt>
<trkpt lat="40.072842" lon="-105.230575">
  <ele>1586.09</ele>
  <time>2026-08-28T19:12:47Z</time>
  <course>12.12</course>
  <speed>0.01</speed>
  <fix>3d</fix>
</trkpt>
<trkpt lat="40.072842" lon="-105.230575">
  <ele>1586.09</ele>
  <time>2026-08-28T19:12:47Z</time>
  <course>0.0</course>
  <speed>0.0</speed>
  <fix>3d</fix>
</trkpt>
<trkpt lat="40.072842" lon="-105.230575">
  <ele>1586.09</ele>
  <time>2026-08-28T19:12:47Z</time>
  <course>12.12</course>
  <speed>0.01</speed>
  <fix>3d</fix>
</trkpt>
<trkpt lat="40.072842" lon="-105.230575">
  <ele>1586.09</ele>
  <time>2026-08-28T19:12:47Z</time>
  <course>0.0</course>
  <speed>0.0</speed>
  <fix>3d</fix>
</trkpt>
<trkpt lat="40.072842" lon="-105.230575">
  <ele>1586.09</ele>
  <time>2026-08-28T19:12:47Z</time>
  <course>12.12</course>
  <speed>0.01</speed>
  <fix>3d</fix>
</trkpt>
<trkpt lat="40.072842" lon="-105.230575">
  <ele>1586.09</ele>
  <time>2026-08-28T19:12:47Z</time>
  <course>0.0</course>
  <speed>0.0</speed>
  <fix>3d</fix>
</trkpt>
<trkpt lat="40.072842" lon="-105.230575">
  <ele>1586.09</ele>
  <time>2026-08-28T19:12:47Z</time>
  <course>12.11</course>
  <speed>0.01</speed>
  <fix>3d</fix>
</trkpt>
<trkpt lat="40.072842" lon="-105.230575">
  <ele>1586.09</ele>
  <time>2026-08-28T19:12:47Z</time>
  <course>0.0</course>
  <speed>0.0</speed>
  <fix>3d</fix>
</trkpt>
<trkpt lat="40.072842" lon="-105.230575">
  <ele>1586.09</ele>
  <time>2026-08-28T19:12:47Z</time>
  <course>12.11</course>
  <speed>0.01</speed>
  <fix>3d</fix>
</trkpt>
<trkpt lat="40.072842" lon="-105.230575">
  <ele>1586.09</ele>
  <time>2026-08-28T19:12:47Z</time>
  <course>0.0</course>
  <speed>0.0</speed>
  <fix>3d</fix>
</trkpt>
<trkpt lat="40.072842" lon="-105.230575">
  <ele>1586.09</ele>
  <time>2026-08-28T19:12:47Z</time>
  <course>12.11</course>
  <speed>0.01</speed>
  <fix>3d</fix>
</trkpt>
<trkpt lat="40.072842" lon="-105.230575">
  <ele>1586.09</ele>
  <time>2026-08-28T19:12:47Z</time>
  <course>0.0</course>
  <speed>0.0</speed>
  <fix>3d</fix>
</trkpt>
<trkpt lat="40.072842" lon="-105.230575">
  <ele>1586.09</ele>
  <time>2026-08-28T19:12:47Z</time>
  <course>12.1</course>
  <speed>0.01</speed>
  <fix>3d</fix>
</trkpt>
<trkpt lat="40.072842" lon="-105.230575">
  <ele>1586.09</ele>
  <time>2026-08-28T19:12:47Z</time>
  <course>0.0</course>
  <speed>0.0</speed>
  <fix>3d</fix>
</trkpt>
<trkpt lat="40.072842" lon="-105.230575">
  <ele>1586.09</ele>
  <time>2026-08-28T19:12:47Z</time>
  <course>12.1</course>
  <speed>0.01</speed>
  <fix>3d</fix>
</trkpt>
<trkpt lat="40.072842" lon="-105.230575">
  <ele>1586.09</ele>
  <time>2026-08-28T19:12:47Z</time>
  <course>0.0</course>
  <speed>0.0</speed>
  <fix>3d</fix>
</trkpt>
<trkpt lat="40.072842" lon="-105.230575">
  <ele>1586.09</ele>
  <time>2026-08-28T19:12:47Z</time>
  <course>12.09</course>
  <speed>0.01</speed>
  <fix>3d</fix>
</trkpt>
<trkpt lat="40.072842" lon="-105.230575">
  <ele>1586.09</ele>
  <time>2026-08-28T19:12:47Z</time>
  <course>0.0</course>
  <speed>0.0</speed>
  <fix>3d</fix>
</trkpt>
<trkpt lat="40.072842" lon="-105.230575">
  <ele>1586.09</ele>
  <time>2026-08-28T19:12:47Z</time>
  <course>12.09</course>
  <speed>0.01</speed>
  <fix>3d</fix>
</trkpt>
<trkpt lat="40.072842" lon="-105.230575">
  <ele>1586.09</ele>
  <time>2026-08-28T19:12:47Z</time>
  <course>0.0</course>
  <speed>0.0</speed>
  <fix>3d</fix>
</trkpt>
<trkpt lat="40.072842" lon="-105.230575">
  <ele>1586.09</ele>
  <time>2026-08-28T19:12:47Z</time>
  <course>12.08</course>
  <speed>0.01414213562373095</speed>
  <fix>3d</fix>
</trkpt>
<trkpt lat="40.072842" lon="-105.230575">
  <ele>1586.09</ele>
  <time>2026-08-28T19:12:47Z</time>
  <course>0.0</course>
  <speed>0.0</speed>
  <fix>3d</fix>
</trkpt>
<trkpt lat="40.072842" lon="-105.230575">
  <ele>1586.09</ele>
  <time>2026-08-28T19:12:47Z</time>
  <course>12.07</course>
  <speed>0.01414213562373095</speed>
  <fix>3d</fix>
</trkpt>
<trkpt lat="40.072842" lon="-105.230575">
  <ele>1586.09</ele>
  <time>2026-08-28T19:12:47Z</time>
  <course>0.0</course>
  <speed>0.0</speed>
  <fix>3d</fix>
</trkpt>
<trkpt lat="40.072842" lon="-105.230575">
  <ele>1586.09</ele>
  <time>2026-08-28T19:12:47Z</time>
  <course>12.07</course>
  <speed>0.01414213562373095</speed>
  <fix>3d</fix>
</trkpt>
<trkpt lat="40.072842" lon="-105.230575">
  <ele>1586.09</ele>
  <time>2026-08-28T19:12:47Z</time>
  <course>0.0</course>
  <speed>0.0</speed>
  <fix>3d</fix>
</trkpt>
<trkpt lat="40.072842" lon="-105.230575">
  <ele>1586.09</ele>
  <time>2026-08-28T19:12:47Z</time>
  <course>12.06</course>
  <speed>0.01414213562373095</speed>
  <fix>3d</fix>
</trkpt>
<trkpt lat="40.072842" lon="-105.230575">
  <ele>1586.09</ele>
  <time>2026-08-28T19:12:47Z</time>
  <course>0.0</course>
  <speed>0.0</speed>
  <fix>3d</fix>
</trkpt>
<trkpt lat="40.072842" lon="-105.230575">
  <ele>1586.09</ele>
  <time>2026-08-28T19:12:47Z</time>
  <course>12.05</course>
  <speed>0.01414213562373095</speed>
  <fix>3d</fix>
</trkpt>
<trkpt lat="40.072842" lon="-105.230575">
  <ele>1586.09</ele>
  <time>2026-08-28T19:12:47Z</time>
  <course>0.0</course>
  <speed>0.0</speed>
  <fix>3d</fix>
</trkpt>
<trkpt lat="40.072842" lon="-105.230575">
  <ele>1586.09</ele>
  <time>2026-08-28T19:12:47Z</time>
  <course>12.05</course>
  <speed>0.01414213562373095</speed>
  <fix>3d</fix>
</trkpt>
<trkpt lat="40.072842" lon="-105.230575">
  <ele>1586.09</ele>
  <time>2026-08-28T19:12:47Z</time>
  <course>0.0</course>
  <speed>0.0</speed>
  <fix>3d</fix>
</trkpt>
<trkpt lat="40.072842" lon="-105.230575">
  <ele>1586.09</ele>
  <time>2026-08-28T19:12:47Z</time>
  <course>12.04</course>
  <speed>0.01414213562373095</speed>
  <fix>3d</fix>
</trkpt>
<trkpt lat="40.072842" lon="-105.230575">
  <ele>1586.09</ele>
  <time>2026-08-28T19:12:47Z</time>
  <course>0.0</course>
  <speed>0.0</speed>
  <fix>3d</fix>
</trkpt>
<trkpt lat="40.072842" lon="-105.230575">
  <ele>1586.09</ele>
  <time>2026-08-28T19:12:47Z</time>
  <course>12.03</course>
  <speed>0.01414213562373095</speed>
  <fix>3d</fix>
</trkpt>
<trkpt lat="40.072842" lon="-105.230575">
  <ele>1586.09</ele>
  <time>2026-08-28T19:12:47Z</time>
  <course>0.0</course>
  <speed>0.0</speed>
  <fix>3d</fix>
</trkpt>
<trkpt lat="40.072842" lon="-105.230575">
  <ele>1586.09</ele>
  <time>2026-08-28T19:12:47Z</time>
  <course>12.02</course>
  <speed>0.01414213562373095</speed>
  <fix>3d</fix>
</trkpt>
<trkpt lat="40.072842" lon="-105.230575">
  <ele>1586.09</ele>
  <time>2026-08-28T19:12:47Z</time>
  <course>0.0</course>
  <speed>0.0</speed>
  <fix>3d</fix>
</trkpt>
<trkpt lat="40.072842" lon="-105.230575">
  <ele>1586.09</ele>
  <time>2026-08-28T19:12:47Z</time>
  <course>12.02</course>
  <speed>0.01414213562373095</speed>
  <fix>3d</fix>
</trkpt>
<trkpt lat="40.072842" lon="-105.230575">
  <ele>1586.09</ele>
  <time>2026-08-28T19:12:47Z</time>
  <course>0.0</course>
  <speed>0.0</speed>
  <fix>3d</fix>
</trkpt>
<trkpt lat="40.072842" lon="-105.230575">
  <ele>1586.09</ele>
  <time>2026-08-28T19:12:47Z</time>
  <course>12.01</course>
  <speed>0.01414213562373095</speed>
  <fix>3d</fix>
</trkpt>
<trkpt lat="40.072842" lon="-105.230575">
  <ele>1586.09</ele>
  <time>2026-08-28T19:12:47Z</time>
  <course>0.0</course>
  <speed>0.0</speed>
  <fix>3d</fix>
</trkpt>
<trkpt lat="40.072842" lon="-105.230575">
  <ele>1586.09</ele>
  <time>2026-08-28T19:12:47Z</time>
  <course>12.0</course>
  <speed>0.01414213562373095</speed>
  <fix>3d</fix>
</trkpt>
<trkpt lat="40.072842" lon="-105.230575">
  <ele>1586.09</ele>
  <time>2026-08-28T19:12:47Z</time>
  <course>0.0</course>
  <speed>0.0</speed>
  <fix>3d</fix>
</trkpt>
<trkpt lat="40.072842" lon="-105.230575">
  <ele>1586.09</ele>
  <time>2026-08-28T19:12:47Z</time>
  <course>11.99</course>
  <speed>0.01414213562373095</speed>
  <fix>3d</fix>
</trkpt>
<trkpt lat="40.072842" lon="-105.230575">
  <ele>1586.09</ele>
  <time>2026-08-28T19:12:47Z</time>
  <course>0.0</course>
  <speed>0.0</speed>
  <fix>3d</fix>
</trkpt>
<trkpt lat="40.072842" lon="-105.230575">
  <ele>1586.09</ele>
  <time>2026-08-28T19:12:47Z</time>
  <course>11.99</course>
  <speed>0.01414213562373095</speed>
  <fix>3d</fix>
</trkpt>
<trkpt lat="40.072842" lon="-105.230575">
  <ele>1586.09</ele>
  <time>2026-08-28T19:12:47Z</time>
  <course>0.0</course>
  <speed>0.0</speed>
  <fix>3d</fix>
</trkpt>
<trkpt lat="40.072842" lon="-105.230575">
  <ele>1586.09</ele>
  <time>2026-08-28T19:12:47Z</time>
  <course>11.98</course>
  <speed>0.01414213562373095</speed>
  <fix>3d</fix>
</trkpt>
<trkpt lat="40.072842" lon="-105.230575">
  <ele>1586.09</ele>
  <time>2026-08-28T19:12:47Z</time>
  <course>0.0</course>
  <speed>0.0</speed>
  <fix>3d</fix>
</trkpt>
<trkpt lat="40.072842" lon="-105.230575">
  <ele>1586.09</ele>
  <time>2026-08-28T19:12:47Z</time>
  <course>11.97</course>
  <speed>0.01414213562373095</speed>
  <fix>3d</fix>
</trkpt>
<trkpt lat="40.072842" lon="-105.230575">
  <ele>1586.09</ele>
  <time>2026-08-28T19:12:47Z</time>
  <course>0.0</course>
  <speed>0.0</speed>
  <fix>3d</fix>
</trkpt>
<trkpt lat="40.072842" lon="-105.230575">
  <ele>1586.09</ele>
  <time>2026-08-28T19:12:47Z</time>
  <course>11.96</course>
  <speed>0.01414213562373095</speed>
  <fix>3d</fix>
</trkpt>
<trkpt lat="40.072842" lon="-105.230575">
  <ele>1586.09</ele>
  <time>2026-08-28T19:12:47Z</time>
  <course>0.0</course>
  <speed>0.0</speed>
  <fix>3d</fix>
</trkpt>
<trkpt lat="40.072842" lon="-105.230575">
  <ele>1586.09</ele>
  <time>2026-08-28T19:12:47Z</time>
  <course>11.95</course>
  <speed>0.022360679774997897</speed>
  <fix>3d</fix>
</trkpt>
<trkpt lat="40.072842" lon="-105.230575">
  <ele>1586.09</ele>
  <time>2026-08-28T19:12:47Z</time>
  <course>0.0</course>
  <speed>0.0</speed>
  <fix>3d</fix>
</trkpt>
<trkpt lat="40.072842" lon="-105.230575">
  <ele>1586.09</ele>
  <time>2026-08-28T19:12:47Z</time>
  <course>11.95</course>
  <speed>0.022360679774997897</speed>
  <fix>3d</fix>
</trkpt>
<trkpt lat="40.072842" lon="-105.230575">
  <ele>1586.09</ele>
  <time>2026-08-28T19:12:47Z</time>
  <course>0.0</course>
  <speed>0.0</speed>
  <fix>3d</fix>
</trkpt>
<trkpt lat="40.072842" lon="-105.230575">
  <ele>1586.09</ele>
  <time>2026-08-28T19:12:47Z</time>
  <course>11.94</course>
  <speed>0.022360679774997897</speed>
  <fix>3d</fix>
</trkpt>
<trkpt lat="40.072842" lon="-105.230575">
  <ele>1586.09</ele>
  <time>2026-08-28T19:12:47Z</time>
  <course>0.0</course>
  <speed>0.0</speed>
  <fix>3d</fix>
</trkpt>
<trkpt lat="40.072842" lon="-105.230575">
  <ele>1586.09</ele>
  <time>2026-08-28T19:12:47Z</time>
  <course>11.93</course>
  <speed>0.022360679774997897</speed>
  <fix>3d</fix>
</trkpt>
<trkpt lat="40.072842" lon="-105.230575">
  <ele>1586.09</ele>
  <time>2026-08-28T19:12:47Z</time>
  <course>0.0</course>
  <speed>0.0</speed>
  <fix>3d</fix>
</trkpt>
<trkpt lat="40.072842" lon="-105.230575">
  <ele>1586.09</ele>
  <time>2026-08-28T19:12:47Z</time>
  <course>11.92</course>
  <speed>0.022360679774997897</speed>
  <fix>3d</fix>
</trkpt>
<trkpt lat="40.072842" lon="-105.230575">
  <ele>1586.09</ele>
  <time>2026-08-28T19:12:47Z</time>
  <course>0.0</course>
  <speed>0.0</speed>
  <fix>3d</fix>
</trkpt>
<trkpt lat="40.072842" lon="-105.230575">
  <ele>1586.09</ele>
  <time>2026-08-28T19:12:47Z</time>
  <course>11.91</course>
  <speed>0.022360679774997897</speed>
  <fix>3d</fix>
</trkpt>
<trkpt lat="40.072842" lon="-105.230575">
  <ele>1586.09</ele>
  <time>2026-08-28T19:12:47Z</time>
  <course>0.0</course>
  <speed>0.0</speed>
  <fix>3d</fix>
</trkpt>
<trkpt lat="40.072842" lon="-105.230575">
  <ele>1586.09</ele>
  <time>2026-08-28T19:12:47Z</time>
  <course>11.91</course>
  <speed>0.022360679774997897</speed>
  <fix>3d</fix>
</trkpt>
<trkpt lat="40.072842" lon="-105.230575">
  <ele>1586.09</ele>
  <time>2026-08-28T19:12:47Z</time>
  <course>0.0</course>
  <speed>0.0</speed>
  <fix>3d</fix>
</trkpt>
<trkpt lat="40.072842" lon="-105.230575">
  <ele>1586.09</ele>
  <time>2026-08-28T19:12:47Z</time>
  <course>11.9</course>
  <speed>0.022360679774997897</speed>
  <fix>3d</fix>
</trkpt>
<trkpt lat="40.072842" lon="-105.230575">
  <ele>1586.09</ele>
  <time>2026-08-28T19:12:47Z</time>
  <course>0.0</course>
  <speed>0.0</speed>
  <fix>3d</fix>
</trkpt>
<trkpt lat="40.072842" lon="-105.230575">
  <ele>1586.09</ele>
  <time>2026-08-28T19:12:48Z</time>
  <course>11.89</course>
  <speed>0.022360679774997897</speed>
  <fix>3d</fix>
</trkpt>
<trkpt lat="40.072842" lon="-105.230575">
  <ele>1586.09</ele>
  <time>2026-08-28T19:12:48Z</time>
  <course>0.0</course>
  <speed>0.0</speed>
  <fix>3d</fix>
</trkpt>
<trkpt lat="40.072842" lon="-105.230575">
  <ele>1586.09</ele>
  <time>2026-08-28T19:12:48Z</time>
  <course>11.88</course>
  <speed>0.022360679774997897</speed>
  <fix>3d</fix>
</trkpt>
<trkpt lat="40.072842" lon="-105.230575">
  <ele>1586.09</ele>
  <time>2026-08-28T19:12:48Z</time>
  <course>0.0</course>
  <speed>0.0</speed>
  <fix>3d</fix>
</trkpt>
<trkpt lat="40.072842" lon="-105.230575">
  <ele>1586.09</ele>
  <time>2026-08-28T19:12:48Z</time>
  <course>11.87</course>
  <speed>0.022360679774997897</speed>
  <fix>3d</fix>
</trkpt>
<trkpt lat="40.072842" lon="-105.230575">
  <ele>1586.09</ele>
  <time>2026-08-28T19:12:48Z</time>
  <course>0.0</course>
  <speed>0.0</speed>
  <fix>3d</fix>
</trkpt>
<trkpt lat="40.072842" lon="-105.230575">
  <ele>1586.09</ele>
  <time>2026-08-28T19:12:48Z</time>
  <course>11.86</course>
  <speed>0.022360679774997897</speed>
  <fix>3d</fix>
</trkpt>
<trkpt lat="40.072842" lon="-105.230575">
  <ele>1586.09</ele>
  <time>2026-08-28T19:12:48Z</time>
  <course>0.0</course>
  <speed>0.0</speed>
  <fix>3d</fix>
</trkpt>
<trkpt lat="40.072842" lon="-105.230575">
  <ele>1586.09</ele>
  <time>2026-08-28T19:12:48Z</time>
  <course>11.86</course>
  <speed>0.022360679774997897</speed>
  <fix>3d</fix>
</trkpt>
<trkpt lat="40.072842" lon="-105.230575">
  <ele>1586.09</ele>
  <time>2026-08-28T19:12:48Z</time>
  <course>0.0</course>
  <speed>0.0</speed>
  <fix>3d</fix>
</trkpt>
<trkpt lat="40.072842" lon="-105.230575">
  <ele>1586.09</ele>
  <time>2026-08-28T19:12:48Z</time>
  <course>11.85</course>
  <speed>0.022360679774997897</speed>
  <fix>3d</fix>
</trkpt>
<trkpt lat="40.072842" lon="-105.230575">
  <ele>1586.09</ele>
  <time>2026-08-28T19:12:48Z</time>
  <course>0.0</course>
  <speed>0.0</speed>
  <fix>3d</fix>
</trkpt>
<trkpt lat="40.072842" lon="-105.230575">
  <ele>1586.09</ele>
  <time>2026-08-28T19:12:48Z</time>
  <course>11.84</course>
  <speed>0.022360679774997897</speed>
  <fix>3d</fix>
</trkpt>
<trkpt lat="40.072842" lon="-105.230575">
  <ele>1586.09</ele>
  <time>2026-08-28T19:12:48Z</time>
  <course>0.0</course>
  <speed>0.0</speed>
  <fix>3d</fix>
</trkpt>
<trkpt lat="40.072842" lon="-105.230575">
  <ele>1586.09</ele>
  <time>2026-08-28T19:12:48Z</time>
  <course>11.83</course>
  <speed>0.022360679774997897</speed>
  <fix>3d</fix>
</trkpt>
<trkpt lat="40.072842" lon="-105.230575">
  <ele>1586.09</ele>
  <time>2026-08-28T19:12:48Z</time>
  <course>0.0</course>
  <speed>0.0</speed>
  <fix>3d</fix>
</trkpt>
<trkpt lat="40.072842" lon="-105.230575">
  <ele>1586.09</ele>
  <time>2026-08-28T19:12:48Z</time>
  <course>11.82</course>
  <speed>0.022360679774997897</speed>
  <fix>3d</fix>
</trkpt>
<trkpt lat="40.072842" lon="-105.230575">
  <ele>1586.09</ele>
  <time>2026-08-28T19:12:48Z</time>
  <course>0.0</course>
  <speed>0.0</speed>
  <fix>3d</fix>
</trkpt>
<trkpt lat="40.072842" lon="-105.230575">
  <ele>1586.09</ele>
  <time>2026-08-28T19:12:48Z</time>
  <course>11.82</course>
  <speed>0.0282842712474619</speed>
  <fix>3d</fix>
</trkpt>
<trkpt lat="40.072842" lon="-105.230575">
  <ele>1586.09</ele>
  <time>2026-08-28T19:12:48Z</time>
  <course>0.0</course>
  <speed>0.0</speed>
  <fix>3d</fix>
</trkpt>
<trkpt lat="40.072842" lon="-105.230575">
  <ele>1586.09</ele>
  <time>2026-08-28T19:12:48Z</time>
  <course>11.81</course>
  <speed>0.0282842712474619</speed>
  <fix>3d</fix>
</trkpt>
<trkpt lat="40.072842" lon="-105.230575">
  <ele>1586.09</ele>
  <time>2026-08-28T19:12:48Z</time>
  <course>0.0</course>
  <speed>0.0</speed>
  <fix>3d</fix>
</trkpt>
<trkpt lat="40.072842" lon="-105.230575">
  <ele>1586.09</ele>
  <time>2026-08-28T19:12:48Z</time>
  <course>11.8</course>
  <speed>0.0282842712474619</speed>
  <fix>3d</fix>
</trkpt>
<trkpt lat="40.072842" lon="-105.230575">
  <ele>1586.09</ele>
  <time>2026-08-28T19:12:48Z</time>
  <course>0.0</course>
  <speed>0.0</speed>
  <fix>3d</fix>
</trkpt>
<trkpt lat="40.072842" lon="-105.230575">
  <ele>1586.09</ele>
  <time>2026-08-28T19:12:48Z</time>
  <course>11.79</course>
  <speed>0.0282842712474619</speed>
  <fix>3d</fix>
</trkpt>
<trkpt lat="40.072842" lon="-105.230575">
  <ele>1586.09</ele>
  <time>2026-08-28T19:12:48Z</time>
  <course>0.0</course>
  <speed>0.0</speed>
  <fix>3d</fix>
</trkpt>
<trkpt lat="40.072842" lon="-105.230575">
  <ele>1586.09</ele>
  <time>2026-08-28T19:12:48Z</time>
  <course>11.78</course>
  <speed>0.0282842712474619</speed>
  <fix>3d</fix>
</trkpt>
<trkpt lat="40.072842" lon="-105.230575">
  <ele>1586.09</ele>
  <time>2026-08-28T19:12:48Z</time>
  <course>0.0</course>
  <speed>0.0</speed>
  <fix>3d</fix>
</trkpt>
<trkpt lat="40.072842" lon="-105.230575">
  <ele>1586.09</ele>
  <time>2026-08-28T19:12:48Z</time>
  <course>11.78</course>
  <speed>0.0282842712474619</speed>
  <fix>3d</fix>
</trkpt>
<trkpt lat="40.072842" lon="-105.230575">
  <ele>1586.09</ele>
  <time>2026-08-28T19:12:48Z</time>
  <course>0.0</course>
  <speed>0.0</speed>
  <fix>3d</fix>
</trkpt>
<trkpt lat="40.072842" lon="-105.230575">
  <ele>1586.09</ele>
  <time>2026-08-28T19:12:48Z</time>
  <course>11.77</course>
  <speed>0.0282842712474619</speed>
  <fix>3d</fix>
</trkpt>
<trkpt lat="40.072842" lon="-105.230575">
  <ele>1586.09</ele>
  <time>2026-08-28T19:12:48Z</time>
  <course>0.0</course>
  <speed>0.0</speed>
  <fix>3d</fix>
</trkpt>
<trkpt lat="40.072842" lon="-105.230575">
  <ele>1586.09</ele>
  <time>2026-08-28T19:12:48Z</time>
  <course>11.76</course>
  <speed>0.0282842712474619</speed>
  <fix>3d</fix>
</trkpt>
<trkpt lat="40.072842" lon="-105.230575">
  <ele>1586.09</ele>
  <time>2026-08-28T19:12:48Z</time>
  <course>0.0</course>
  <speed>0.0</speed>
  <fix>3d</fix>
</trkpt>
<trkpt lat="40.072842" lon="-105.230575">
  <ele>1586.09</ele>
  <time>2026-08-28T19:12:48Z</time>
  <course>11.76</course>
  <speed>0.0282842712474619</speed>
  <fix>3d</fix>
</trkpt>
<trkpt lat="40.072842" lon="-105.230575">
  <ele>1586.09</ele>
  <time>2026-08-28T19:12:48Z</time>
  <course>0.0</course>
  <speed>0.0</speed>
  <fix>3d</fix>
</trkpt>
<trkpt lat="40.072842" lon="-105.230575">
  <ele>1586.09</ele>
  <time>2026-08-28T19:12:48Z</time>
  <course>11.75</course>
  <speed>0.0282842712474619</speed>
  <fix>3d</fix>
</trkpt>
<trkpt lat="40.072842" lon="-105.230575">
  <ele>1586.09</ele>
  <time>2026-08-28T19:12:48Z</time>
  <course>0.0</course>
  <speed>0.0</speed>
  <fix>3d</fix>
</trkpt>
<trkpt lat="40.072842" lon="-105.230575">
  <ele>1586.09</ele>
  <time>2026-08-28T19:12:48Z</time>
  <course>11.74</course>
  <speed>0.0282842712474619</speed>
  <fix>3d</fix>
</trkpt>
<trkpt lat="40.072842" lon="-105.230575">
  <ele>1586.09</ele>
  <time>2026-08-28T19:12:48Z</time>
  <course>0.0</course>
  <speed>0.0</speed>
  <fix>3d</fix>
</trkpt>
<trkpt lat="40.072842" lon="-105.230575">
  <ele>1586.09</ele>
  <time>2026-08-28T19:12:48Z</time>
  <course>11.73</course>
  <speed>0.03605551275463989</speed>
  <fix>3d</fix>
</trkpt>
<trkpt lat="40.072842" lon="-105.230575">
  <ele>1586.09</ele>
  <time>2026-08-28T19:12:48Z</time>
  <course>0.0</course>
  <speed>0.0</speed>
  <fix>3d</fix>
</trkpt>
<trkpt lat="40.072842" lon="-105.230575">
  <ele>1586.09</ele>
  <time>2026-08-28T19:12:48Z</time>
  <course>11.73</course>
  <speed>0.03605551275463989</speed>
  <fix>3d</fix>
</trkpt>
<trkpt lat="40.072842" lon="-105.230575">
  <ele>1586.09</ele>
  <time>2026-08-28T19:12:48Z</time>
  <course>0.0</course>
  <speed>0.0</speed>
  <fix>3d</fix>
</trkpt>
<trkpt lat="40.072842" lon="-105.230575">
  <ele>1586.09</ele>
  <time>2026-08-28T19:12:48Z</time>
  <course>11.72</course>
  <speed>0.03605551275463989</speed>
  <fix>3d</fix>
</trkpt>
<trkpt lat="40.072842" lon="-105.230575">
  <ele>1586.09</ele>
  <time>2026-08-28T19:12:48Z</time>
  <course>0.0</course>
  <speed>0.0</speed>
  <fix>3d</fix>
</trkpt>
<trkpt lat="40.072842" lon="-105.230575">
  <ele>1586.09</ele>
  <time>2026-08-28T19:12:48Z</time>
  <course>11.71</course>
  <speed>0.03605551275463989</speed>
  <fix>3d</fix>
</trkpt>
<trkpt lat="40.072842" lon="-105.230575">
  <ele>1586.09</ele>
  <time>2026-08-28T19:12:48Z</time>
  <course>0.0</course>
  <speed>0.0</speed>
  <fix>3d</fix>
</trkpt>
<trkpt lat="40.072842" lon="-105.230575">
  <ele>1586.09</ele>
  <time>2026-08-28T19:12:48Z</time>
  <course>11.7</course>
  <speed>0.03605551275463989</speed>
  <fix>3d</fix>
</trkpt>
<trkpt lat="40.072842" lon="-105.230575">
  <ele>1586.09</ele>
  <time>2026-08-28T19:12:48Z</time>
  <course>0.0</course>
  <speed>0.0</speed>
  <fix>3d</fix>
</trkpt>
<trkpt lat="40.072842" lon="-105.230575">
  <ele>1586.09</ele>
  <time>2026-08-28T19:12:48Z</time>
  <course>11.7</course>
  <speed>0.03605551275463989</speed>
  <fix>3d</fix>
</trkpt>
<trkpt lat="40.072842" lon="-105.230575">
  <ele>1586.09</ele>
  <time>2026-08-28T19:12:48Z</time>
  <course>0.0</course>
  <speed>0.0</speed>
  <fix>3d</fix>
</trkpt>
<trkpt lat="40.072842" lon="-105.230575">
  <ele>1586.09</ele>
  <time>2026-08-28T19:12:48Z</time>
  <course>11.69</course>
  <speed>0.03605551275463989</speed>
  <fix>3d</fix>
</trkpt>
<trkpt lat="40.072842" lon="-105.230575">
  <ele>1586.09</ele>
  <time>2026-08-28T19:12:48Z</time>
  <course>0.0</course>
  <speed>0.0</speed>
  <fix>3d</fix>
</trkpt>
<trkpt lat="40.072842" lon="-105.230575">
  <ele>1586.09</ele>
  <time>2026-08-28T19:12:48Z</time>
  <course>11.68</course>
  <speed>0.03605551275463989</speed>
  <fix>3d</fix>
</trkpt>
<trkpt lat="40.072842" lon="-105.230575">
  <ele>1586.09</ele>
  <time>2026-08-28T19:12:48Z</time>
  <course>0.0</course>
  <speed>0.0</speed>
  <fix>3d</fix>
</trkpt>
<trkpt lat="40.072842" lon="-105.230575">
  <ele>1586.09</ele>
  <time>2026-08-28T19:12:48Z</time>
  <course>11.67</course>
  <speed>0.03605551275463989</speed>
  <fix>3d</fix>
</trkpt>
<trkpt lat="40.072842" lon="-105.230575">
  <ele>1586.09</ele>
  <time>2026-08-28T19:12:48Z</time>
  <course>0.0</course>
  <speed>0.0</speed>
  <fix>3d</fix>
</trkpt>
<trkpt lat="40.072842" lon="-105.230575">
  <ele>1586.09</ele>
  <time>2026-08-28T19:12:48Z</time>
  <course>11.67</course>
  <speed>0.03605551275463989</speed>
  <fix>3d</fix>
</trkpt>
<trkpt lat="40.072842" lon="-105.230575">
  <ele>1586.09</ele>
  <time>2026-08-28T19:12:48Z</time>
  <course>0.0</course>
  <speed>0.0</speed>
  <fix>3d</fix>
</trkpt>
<trkpt lat="40.072842" lon="-105.230575">
  <ele>1586.09</ele>
  <time>2026-08-28T19:12:48Z</time>
  <course>11.66</course>
  <speed>0.03605551275463989</speed>
  <fix>3d</fix>
</trkpt>
<trkpt lat="40.072842" lon="-105.230575">
  <ele>1586.09</ele>
  <time>2026-08-28T19:12:48Z</time>
  <course>0.0</course>
  <speed>0.0</speed>
  <fix>3d</fix>
</trkpt>
<trkpt lat="40.072842" lon="-105.230575">
  <ele>1586.09</ele>
  <time>2026-08-28T19:12:48Z</time>
  <course>11.65</course>
  <speed>0.03605551275463989</speed>
  <fix>3d</fix>
</trkpt>
<trkpt lat="40.072842" lon="-105.230575">
  <ele>1586.09</ele>
  <time>2026-08-28T19:12:48Z</time>
  <course>0.0</course>
  <speed>0.0</speed>
  <fix>3d</fix>
</trkpt>
<trkpt lat="40.072842" lon="-105.230575">
  <ele>1586.09</ele>
  <time>2026-08-28T19:12:48Z</time>
  <course>11.65</course>
  <speed>0.03605551275463989</speed>
  <fix>3d</fix>
</trkpt>
<trkpt lat="40.072842" lon="-105.230575">
  <ele>1586.09</ele>
  <time>2026-08-28T19:12:48Z</time>
  <course>0.0</course>
  <speed>0.0</speed>
  <fix>3d</fix>
</trkpt>
<trkpt lat="40.072842" lon="-105.230575">
  <ele>1586.09</ele>
  <time>2026-08-28T19:12:48Z</time>
  <course>11.64</course>
  <speed>0.03605551275463989</speed>
  <fix>3d</fix>
</trkpt>
<trkpt lat="40.072842" lon="-105.230575">
  <ele>1586.09</ele>
  <time>2026-08-28T19:12:48Z</time>
  <course>0.0</course>
  <speed>0.0</speed>
  <fix>3d</fix>
</trkpt>
<trkpt lat="40.072842" lon="-105.230575">
  <ele>1586.09</ele>
  <time>2026-08-28T19:12:48Z</time>
  <course>11.63</course>
  <speed>0.03605551275463989</speed>
  <fix>3d</fix>
</trkpt>
<trkpt lat="40.072842" lon="-105.230575">
  <ele>1586.09</ele>
  <time>2026-08-28T19:12:48Z</time>
  <course>0.0</course>
  <speed>0.0</speed>
  <fix>3d</fix>
</trkpt>
<trkpt lat="40.072842" lon="-105.230575">
  <ele>1586.09</ele>
  <time>2026-08-28T19:12:48Z</time>
  <course>11.63</course>
  <speed>0.03605551275463989</speed>
  <fix>3d</fix>
</trkpt>
<trkpt lat="40.072842" lon="-105.230575">
  <ele>1586.09</ele>
  <time>2026-08-28T19:12:48Z</time>
  <course>0.0</course>
  <speed>0.0</speed>
  <fix>3d</fix>
</trkpt>
<trkpt lat="40.072842" lon="-105.230575">
  <ele>1586.09</ele>
  <time>2026-08-28T19:12:48Z</time>
  <course>11.62</course>
  <speed>0.03605551275463989</speed>
  <fix>3d</fix>
</trkpt>
<trkpt lat="40.072842" lon="-105.230575">
  <ele>1586.09</ele>
  <time>2026-08-28T19:12:48Z</time>
  <course>0.0</course>
  <speed>0.0</speed>
  <fix>3d</fix>
</trkpt>
<trkpt lat="40.072842" lon="-105.230575">
  <ele>1586.09</ele>
  <time>2026-08-28T19:12:48Z</time>
  <course>11.61</course>
  <speed>0.03605551275463989</speed>
  <fix>3d</fix>
</trkpt>
<trkpt lat="40.072842" lon="-105.230575">
  <ele>1586.09</ele>
  <time>2026-08-28T19:12:48Z</time>
  <course>0.0</course>
  <speed>0.0</speed>
  <fix>3d</fix>
</trkpt>
<trkpt lat="40.072842" lon="-105.230575">
  <ele>1586.09</ele>
  <time>2026-08-28T19:12:48Z</time>
  <course>11.61</course>
  <speed>0.03605551275463989</speed>
  <fix>3d</fix>
</trkpt>
<trkpt lat="40.072842" lon="-105.230575">
  <ele>1586.09</ele>
  <time>2026-08-28T19:12:48Z</time>
  <course>0.0</course>
  <speed>0.0</speed>
  <fix>3d</fix>
</trkpt>
<trkpt lat="40.072842" lon="-105.230575">
  <ele>1586.09</ele>
  <time>2026-08-28T19:12:48Z</time>
  <course>11.6</course>
  <speed>0.03605551275463989</speed>
  <fix>3d</fix>
</trkpt>
<trkpt lat="40.072842" lon="-105.230575">
  <ele>1586.09</ele>
  <time>2026-08-28T19:12:48Z</time>
  <course>0.0</course>
  <speed>0.0</speed>
  <fix>3d</fix>
</trkpt>
<trkpt lat="40.072842" lon="-105.230575">
  <ele>1586.09</ele>
  <time>2026-08-28T19:12:48Z</time>
  <course>11.59</course>
  <speed>0.03605551275463989</speed>
  <fix>3d</fix>
</trkpt>
<trkpt lat="40.072842" lon="-105.230575">
  <ele>1586.09</ele>
  <time>2026-08-28T19:12:48Z</time>
  <course>0.0</course>
  <speed>0.0</speed>
  <fix>3d</fix>
</trkpt>
<trkpt lat="40.072842" lon="-105.230575">
  <ele>1586.09</ele>
  <time>2026-08-28T19:12:48Z</time>
  <course>11.59</course>
  <speed>0.03605551275463989</speed>
  <fix>3d</fix>
</trkpt>
<trkpt lat="40.072842" lon="-105.230575">
  <ele>1586.09</ele>
  <time>2026-08-28T19:12:48Z</time>
  <course>0.0</course>
  <speed>0.0</speed>
  <fix>3d</fix>
</trkpt>
<trkpt lat="40.072842" lon="-105.230575">
  <ele>1586.09</ele>
  <time>2026-08-28T19:12:48Z</time>
  <course>11.58</course>
  <speed>0.03605551275463989</speed>
  <fix>3d</fix>
</trkpt>
<trkpt lat="40.072842" lon="-105.230575">
  <ele>1586.09</ele>
  <time>2026-08-28T19:12:48Z</time>
  <course>0.0</course>
  <speed>0.0</speed>
  <fix>3d</fix>
</trkpt>
<trkpt lat="40.072842" lon="-105.230575">
  <ele>1586.09</ele>
  <time>2026-08-28T19:12:48Z</time>
  <course>11.57</course>
  <speed>0.03605551275463989</speed>
  <fix>3d</fix>
</trkpt>
<trkpt lat="40.072842" lon="-105.230575">
  <ele>1586.09</ele>
  <time>2026-08-28T19:12:48Z</time>
  <course>0.0</course>
  <speed>0.0</speed>
  <fix>3d</fix>
</trkpt>
<trkpt lat="40.072842" lon="-105.230575">
  <ele>1586.09</ele>
  <time>2026-08-28T19:12:48Z</time>
  <course>11.57</course>
  <speed>0.03605551275463989</speed>
  <fix>3d</fix>
</trkpt>
<trkpt lat="40.072842" lon="-105.230575">
  <ele>1586.09</ele>
  <time>2026-08-28T19:12:48Z</time>
  <course>0.0</course>
  <speed>0.0</speed>
  <fix>3d</fix>
</trkpt>
<trkpt lat="40.072842" lon="-105.230575">
  <ele>1586.09</ele>
  <time>2026-08-28T19:12:48Z</time>
  <course>11.56</course>
  <speed>0.03605551275463989</speed>
  <fix>3d</fix>
</trkpt>
<trkpt lat="40.072842" lon="-105.230575">
  <ele>1586.09</ele>
  <time>2026-08-28T19:12:48Z</time>
  <course>0.0</course>
  <speed>0.0</speed>
  <fix>3d</fix>
</trkpt>
<trkpt lat="40.072842" lon="-105.230575">
  <ele>1586.09</ele>
  <time>2026-08-28T19:12:48Z</time>
  <course>11.56</course>
  <speed>0.03605551275463989</speed>
  <fix>3d</fix>
</trkpt>
<trkpt lat="40.072842" lon="-105.230575">
  <ele>1586.09</ele>
  <time>2026-08-28T19:12:48Z</time>
  <course>0.0</course>
  <speed>0.0</speed>
  <fix>3d</fix>
</trkpt>
<trkpt lat="40.072842" lon="-105.230575">
  <ele>1586.09</ele>
  <time>2026-08-28T19:12:48Z</time>
  <course>11.55</course>
  <speed>0.03605551275463989</speed>
  <fix>3d</fix>
</trkpt>
<trkpt lat="40.072842" lon="-105.230575">
  <ele>1586.09</ele>
  <time>2026-08-28T19:12:48Z</time>
  <course>0.0</course>
  <speed>0.0</speed>
  <fix>3d</fix>
</trkpt>
<trkpt lat="40.072842" lon="-105.230575">
  <ele>1586.09</ele>
  <time>2026-08-28T19:12:48Z</time>
  <course>11.54</course>
  <speed>0.03605551275463989</speed>
  <fix>3d</fix>
</trkpt>
<trkpt lat="40.072842" lon="-105.230575">
  <ele>1586.09</ele>
  <time>2026-08-28T19:12:48Z</time>
  <course>0.0</course>
  <speed>0.0</speed>
  <fix>3d</fix>
</trkpt>
<trkpt lat="40.072842" lon="-105.230575">
  <ele>1586.09</ele>
  <time>2026-08-28T19:12:48Z</time>
  <course>11.54</course>
  <speed>0.03605551275463989</speed>
  <fix>3d</fix>
</trkpt>
<trkpt lat="40.072842" lon="-105.230575">
  <ele>1586.09</ele>
  <time>2026-08-28T19:12:48Z</time>
  <course>0.0</course>
  <speed>0.0</speed>
  <fix>3d</fix>
</trkpt>
<trkpt lat="40.072842" lon="-105.230575">
  <ele>1586.09</ele>
  <time>2026-08-28T19:12:48Z</time>
  <course>11.53</course>
  <speed>0.03605551275463989</speed>
  <fix>3d</fix>
</trkpt>
<trkpt lat="40.072842" lon="-105.230575">
  <ele>1586.09</ele>
  <time>2026-08-28T19:12:48Z</time>
  <course>0.0</course>
  <speed>0.0</speed>
  <fix>3d</fix>
</trkpt>
<trkpt lat="40.072842" lon="-105.230575">
  <ele>1586.09</ele>
  <time>2026-08-28T19:12:48Z</time>
  <course>11.53</course>
  <speed>0.03605551275463989</speed>
  <fix>3d</fix>
</trkpt>
<trkpt lat="40.072842" lon="-105.230575">
  <ele>1586.09</ele>
  <time>2026-08-28T19:12:48Z</time>
  <course>0.0</course>
  <speed>0.0</speed>
  <fix>3d</fix>
</trkpt>
<trkpt lat="40.072842" lon="-105.230575">
  <ele>1586.09</ele>
  <time>2026-08-28T19:12:48Z</time>
  <course>11.52</course>
  <speed>0.03605551275463989</speed>
  <fix>3d</fix>
</trkpt>
<trkpt lat="40.072842" lon="-105.230575">
  <ele>1586.09</ele>
  <time>2026-08-28T19:12:48Z</time>
  <course>0.0</course>
  <speed>0.0</speed>
  <fix>3d</fix>
</trkpt>
<trkpt lat="40.072842" lon="-105.230575">
  <ele>1586.09</ele>
  <time>2026-08-28T19:12:48Z</time>
  <course>11.52</course>
  <speed>0.03605551275463989</speed>
  <fix>3d</fix>
</trkpt>
<trkpt lat="40.072842" lon="-105.230575">
  <ele>1586.09</ele>
  <time>2026-08-28T19:12:48Z</time>
  <course>0.0</course>
  <speed>0.0</speed>
  <fix>3d</fix>
</trkpt>
<trkpt lat="40.072842" lon="-105.230575">
  <ele>1586.09</ele>
  <time>2026-08-28T19:12:48Z</time>
  <course>11.51</course>
  <speed>0.03605551275463989</speed>
  <fix>3d</fix>
</trkpt>
<trkpt lat="40.072842" lon="-105.230575">
  <ele>1586.09</ele>
  <time>2026-08-28T19:12:48Z</time>
  <course>0.0</course>
  <speed>0.0</speed>
  <fix>3d</fix>
</trkpt>
<trkpt lat="40.072842" lon="-105.230575">
  <ele>1586.09</ele>
  <time>2026-08-28T19:12:48Z</time>
  <course>11.5</course>
  <speed>0.03605551275463989</speed>
  <fix>3d</fix>
</trkpt>
<trkpt lat="40.072842" lon="-105.230575">
  <ele>1586.09</ele>
  <time>2026-08-28T19:12:48Z</time>
  <course>0.0</course>
  <speed>0.0</speed>
  <fix>3d</fix>
</trkpt>
<trkpt lat="40.072842" lon="-105.230575">
  <ele>1586.09</ele>
  <time>2026-08-28T19:12:48Z</time>
  <course>11.5</course>
  <speed>0.03605551275463989</speed>
  <fix>3d</fix>
</trkpt>
<trkpt lat="40.072842" lon="-105.230575">
  <ele>1586.09</ele>
  <time>2026-08-28T19:12:48Z</time>
  <course>0.0</course>
  <speed>0.0</speed>
  <fix>3d</fix>
</trkpt>
<trkpt lat="40.072842" lon="-105.230575">
  <ele>1586.09</ele>
  <time>2026-08-28T19:12:48Z</time>
  <course>11.49</course>
  <speed>0.044721359549995794</speed>
  <fix>3d</fix>
</trkpt>
<trkpt lat="40.072842" lon="-105.230575">
  <ele>1586.09</ele>
  <time>2026-08-28T19:12:48Z</time>
  <course>0.0</course>
  <speed>0.0</speed>
  <fix>3d</fix>
</trkpt>
<trkpt lat="40.072842" lon="-105.230575">
  <ele>1586.09</ele>
  <time>2026-08-28T19:12:48Z</time>
  <course>11.49</course>
  <speed>0.044721359549995794</speed>
  <fix>3d</fix>
</trkpt>
<trkpt lat="40.072842" lon="-105.230575">
  <ele>1586.09</ele>
  <time>2026-08-28T19:12:48Z</time>
  <course>0.0</course>
  <speed>0.0</speed>
  <fix>3d</fix>
</trkpt>
<trkpt lat="40.072842" lon="-105.230575">
  <ele>1586.09</ele>
  <time>2026-08-28T19:12:48Z</time>
  <course>11.48</course>
  <speed>0.044721359549995794</speed>
  <fix>3d</fix>
</trkpt>
<trkpt lat="40.072842" lon="-105.230575">
  <ele>1586.09</ele>
  <time>2026-08-28T19:12:48Z</time>
  <course>0.0</course>
  <speed>0.0</speed>
  <fix>3d</fix>
</trkpt>
<trkpt lat="40.072842" lon="-105.230575">
  <ele>1586.09</ele>
  <time>2026-08-28T19:12:48Z</time>
  <course>11.48</course>
  <speed>0.044721359549995794</speed>
  <fix>3d</fix>
</trkpt>
<trkpt lat="40.072842" lon="-105.230575">
  <ele>1586.09</ele>
  <time>2026-08-28T19:12:48Z</time>
  <course>0.0</course>
  <speed>0.0</speed>
  <fix>3d</fix>
</trkpt>
<trkpt lat="40.072842" lon="-105.230575">
  <ele>1586.09</ele>
  <time>2026-08-28T19:12:48Z</time>
  <course>11.47</course>
  <speed>0.044721359549995794</speed>
  <fix>3d</fix>
</trkpt>
<trkpt lat="40.072842" lon="-105.230575">
  <ele>1586.09</ele>
  <time>2026-08-28T19:12:48Z</time>
  <course>0.0</course>
  <speed>0.0</speed>
  <fix>3d</fix>
</trkpt>
<trkpt lat="40.072842" lon="-105.230575">
  <ele>1586.09</ele>
  <time>2026-08-28T19:12:48Z</time>
  <course>11.47</course>
  <speed>0.044721359549995794</speed>
  <fix>3d</fix>
</trkpt>
<trkpt lat="40.072842" lon="-105.230575">
  <ele>1586.09</ele>
  <time>2026-08-28T19:12:48Z</time>
  <course>0.0</course>
  <speed>0.0</speed>
  <fix>3d</fix>
</trkpt>
<trkpt lat="40.072842" lon="-105.230575">
  <ele>1586.09</ele>
  <time>2026-08-28T19:12:48Z</time>
  <course>11.46</course>
  <speed>0.044721359549995794</speed>
  <fix>3d</fix>
</trkpt>
<trkpt lat="40.072842" lon="-105.230575">
  <ele>1586.09</ele>
  <time>2026-08-28T19:12:48Z</time>
  <course>0.0</course>
  <speed>0.0</speed>
  <fix>3d</fix>
</trkpt>
<trkpt lat="40.072842" lon="-105.230575">
  <ele>1586.09</ele>
  <time>2026-08-28T19:12:48Z</time>
  <course>11.46</course>
  <speed>0.044721359549995794</speed>
  <fix>3d</fix>
</trkpt>
<trkpt lat="40.072842" lon="-105.230575">
  <ele>1586.09</ele>
  <time>2026-08-28T19:12:48Z</time>
  <course>0.0</course>
  <speed>0.0</speed>
  <fix>3d</fix>
</trkpt>
<trkpt lat="40.072842" lon="-105.230575">
  <ele>1586.15</ele>
  <time>2026-08-28T19:12:48Z</time>
  <course>11.45</course>
  <speed>0.0</speed>
  <fix>3d</fix>
</trkpt>
<trkpt lat="40.072842" lon="-105.230575">
  <ele>1586.09</ele>
  <time>2026-08-28T19:12:48Z</time>
  <course>0.0</course>
  <speed>0.0</speed>
  <fix>3d</fix>
</trkpt>
<trkpt lat="40.072842" lon="-105.230575">
  <ele>1586.15</ele>
  <time>2026-08-28T19:12:48Z</time>
  <course>11.45</course>
  <speed>0.0</speed>
  <fix>3d</fix>
</trkpt>
<trkpt lat="40.072842" lon="-105.230575">
  <ele>1586.09</ele>
  <time>2026-08-28T19:12:48Z</time>
  <course>0.0</course>
  <speed>0.0</speed>
  <fix>3d</fix>
</trkpt>
<trkpt lat="40.072842" lon="-105.230575">
  <ele>1586.14</ele>
  <time>2026-08-28T19:12:48Z</time>
  <course>11.44</course>
  <speed>0.0</speed>
  <fix>3d</fix>
</trkpt>
<trkpt lat="40.072842" lon="-105.230575">
  <ele>1586.09</ele>
  <time>2026-08-28T19:12:48Z</time>
  <course>0.0</course>
  <speed>0.0</speed>
  <fix>3d</fix>
</trkpt>
<trkpt lat="40.072842" lon="-105.230575">
  <ele>1586.14</ele>
  <time>2026-08-28T19:12:48Z</time>
  <course>11.44</course>
  <speed>0.0</speed>
  <fix>3d</fix>
</trkpt>
<trkpt lat="40.072842" lon="-105.230575">
  <ele>1586.09</ele>
  <time>2026-08-28T19:12:48Z</time>
  <course>0.0</course>
  <speed>0.0</speed>
  <fix>3d</fix>
</trkpt>
<trkpt lat="40.072842" lon="-105.230575">
  <ele>1586.14</ele>
  <time>2026-08-28T19:12:48Z</time>
  <course>11.43</course>
  <speed>0.0</speed>
  <fix>3d</fix>
</trkpt>
<trkpt lat="40.072842" lon="-105.230575">
  <ele>1586.09</ele>
  <time>2026-08-28T19:12:48Z</time>
  <course>0.0</course>
  <speed>0.0</speed>
  <fix>3d</fix>
</trkpt>
<trkpt lat="40.072842" lon="-105.230575">
  <ele>1586.14</ele>
  <time>2026-08-28T19:12:48Z</time>
  <course>11.43</course>
  <speed>0.01</speed>
  <fix>3d</fix>
</trkpt>
<trkpt lat="40.072842" lon="-105.230575">
  <ele>1586.09</ele>
  <time>2026-08-28T19:12:48Z</time>
  <course>0.0</course>
  <speed>0.0</speed>
  <fix>3d</fix>
</trkpt>
<trkpt lat="40.072842" lon="-105.230575">
  <ele>1586.14</ele>
  <time>2026-08-28T19:12:48Z</time>
  <course>11.42</course>
  <speed>0.01</speed>
  <fix>3d</fix>
</trkpt>
<trkpt lat="40.072842" lon="-105.230575">
  <ele>1586.09</ele>
  <time>2026-08-28T19:12:48Z</time>
  <course>0.0</course>
  <speed>0.0</speed>
  <fix>3d</fix>
</trkpt>
<trkpt lat="40.072842" lon="-105.230575">
  <ele>1586.14</ele>
  <time>2026-08-28T19:12:48Z</time>
  <course>11.42</course>
  <speed>0.01</speed>
  <fix>3d</fix>
</trkpt>
<trkpt lat="40.072842" lon="-105.230575">
  <ele>1586.09</ele>
  <time>2026-08-28T19:12:48Z</time>
  <course>0.0</course>
  <speed>0.0</speed>
  <fix>3d</fix>
</trkpt>
<trkpt lat="40.072842" lon="-105.230575">
  <ele>1586.14</ele>
  <time>2026-08-28T19:12:48Z</time>
  <course>11.42</course>
  <speed>0.01414213562373095</speed>
  <fix>3d</fix>
</trkpt>
<trkpt lat="40.072842" lon="-105.230575">
  <ele>1586.09</ele>
  <time>2026-08-28T19:12:48Z</time>
  <course>0.0</course>
  <speed>0.0</speed>
  <fix>3d</fix>
</trkpt>
<trkpt lat="40.072842" lon="-105.230575">
  <ele>1586.14</ele>
  <time>2026-08-28T19:12:48Z</time>
  <course>11.41</course>
  <speed>0.01414213562373095</speed>
  <fix>3d</fix>
</trkpt>
<trkpt lat="40.072842" lon="-105.230575">
  <ele>1586.09</ele>
  <time>2026-08-28T19:12:48Z</time>
  <course>0.0</course>
  <speed>0.0</speed>
  <fix>3d</fix>
</trkpt>
<trkpt lat="40.072842" lon="-105.230575">
  <ele>1586.15</ele>
  <time>2026-08-28T19:12:48Z</time>
  <course>11.41</course>
  <speed>0.01414213562373095</speed>
  <fix>3d</fix>
</trkpt>
<trkpt lat="40.072842" lon="-105.230575">
  <ele>1586.09</ele>
  <time>2026-08-28T19:12:48Z</time>
  <course>0.0</course>
  <speed>0.0</speed>
  <fix>3d</fix>
</trkpt>
<trkpt lat="40.072842" lon="-105.230575">
  <ele>1586.15</ele>
  <time>2026-08-28T19:12:48Z</time>
  <course>11.4</course>
  <speed>0.022360679774997897</speed>
  <fix>3d</fix>
</trkpt>
<trkpt lat="40.072842" lon="-105.230575">
  <ele>1586.09</ele>
  <time>2026-08-28T19:12:48Z</time>
  <course>0.0</course>
  <speed>0.0</speed>
  <fix>3d</fix>
</trkpt>
<trkpt lat="40.072842" lon="-105.230575">
  <ele>1586.15</ele>
  <time>2026-08-28T19:12:48Z</time>
  <course>11.4</course>
  <speed>0.022360679774997897</speed>
  <fix>3d</fix>
</trkpt>
<trkpt lat="40.072842" lon="-105.230575">
  <ele>1586.09</ele>
  <time>2026-08-28T19:12:48Z</time>
  <course>0.0</course>
  <speed>0.0</speed>
  <fix>3d</fix>
</trkpt>
<trkpt lat="40.072842" lon="-105.230575">
  <ele>1586.16</ele>
  <time>2026-08-28T19:12:48Z</time>
  <course>11.4</course>
  <speed>0.022360679774997897</speed>
  <fix>3d</fix>
</trkpt>
<trkpt lat="40.072842" lon="-105.230575">
  <ele>1586.09</ele>
  <time>2026-08-28T19:12:48Z</time>
  <course>0.0</course>
  <speed>0.0</speed>
  <fix>3d</fix>
</trkpt>
<trkpt lat="40.072842" lon="-105.230575">
  <ele>1586.16</ele>
  <time>2026-08-28T19:12:48Z</time>
  <course>11.39</course>
  <speed>0.022360679774997897</speed>
  <fix>3d</fix>
</trkpt>
<trkpt lat="40.072842" lon="-105.230575">
  <ele>1586.09</ele>
  <time>2026-08-28T19:12:48Z</time>
  <course>0.0</course>
  <speed>0.0</speed>
  <fix>3d</fix>
</trkpt>
<trkpt lat="40.072842" lon="-105.230575">
  <ele>1586.16</ele>
  <time>2026-08-28T19:12:48Z</time>
  <course>11.39</course>
  <speed>0.01414213562373095</speed>
  <fix>3d</fix>
</trkpt>
<trkpt lat="40.072842" lon="-105.230575">
  <ele>1586.09</ele>
  <time>2026-08-28T19:12:48Z</time>
  <course>0.0</course>
  <speed>0.0</speed>
  <fix>3d</fix>
</trkpt>
<trkpt lat="40.072842" lon="-105.230575">
  <ele>1586.16</ele>
  <time>2026-08-28T19:12:48Z</time>
  <course>11.39</course>
  <speed>0.01414213562373095</speed>
  <fix>3d</fix>
</trkpt>
<trkpt lat="40.072842" lon="-105.230575">
  <ele>1586.09</ele>
  <time>2026-08-28T19:12:48Z</time>
  <course>0.0</course>
  <speed>0.0</speed>
  <fix>3d</fix>
</trkpt>
<trkpt lat="40.072842" lon="-105.230575">
  <ele>1586.17</ele>
  <time>2026-08-28T19:12:48Z</time>
  <course>11.38</course>
  <speed>0.01</speed>
  <fix>3d</fix>
</trkpt>
<trkpt lat="40.072842" lon="-105.230575">
  <ele>1586.09</ele>
  <time>2026-08-28T19:12:48Z</time>
  <course>0.0</course>
  <speed>0.0</speed>
  <fix>3d</fix>
</trkpt>
<trkpt lat="40.072842" lon="-105.230575">
  <ele>1586.17</ele>
  <time>2026-08-28T19:12:48Z</time>
  <course>11.38</course>
  <speed>0.0</speed>
  <fix>3d</fix>
</trkpt>
<trkpt lat="40.072842" lon="-105.230575">
  <ele>1586.09</ele>
  <time>2026-08-28T19:12:48Z</time>
  <course>0.0</course>
  <speed>0.0</speed>
  <fix>3d</fix>
</trkpt>
<trkpt lat="40.072842" lon="-105.230575">
  <ele>1586.17</ele>
  <time>2026-08-28T19:12:48Z</time>
  <course>11.37</course>
  <speed>0.0</speed>
  <fix>3d</fix>
</trkpt>
<trkpt lat="40.072842" lon="-105.230575">
  <ele>1586.09</ele>
  <time>2026-08-28T19:12:48Z</time>
  <course>0.0</course>
  <speed>0.0</speed>
  <fix>3d</fix>
</trkpt>
<trkpt lat="40.072842" lon="-105.230575">
  <ele>1586.17</ele>
  <time>2026-08-28T19:12:48Z</time>
  <course>11.37</course>
  <speed>0.0</speed>
  <fix>3d</fix>
</trkpt>
<trkpt lat="40.072842" lon="-105.230575">
  <ele>1586.09</ele>
  <time>2026-08-28T19:12:48Z</time>
  <course>0.0</course>
  <speed>0.0</speed>
  <fix>3d</fix>
</trkpt>
<trkpt lat="40.072842" lon="-105.230575">
  <ele>1586.17</ele>
  <time>2026-08-28T19:12:48Z</time>
  <course>11.37</course>
  <speed>0.0</speed>
  <fix>3d</fix>
</trkpt>
<trkpt lat="40.072842" lon="-105.230575">
  <ele>1586.09</ele>
  <time>2026-08-28T19:12:48Z</time>
  <course>0.0</course>
  <speed>0.0</speed>
  <fix>3d</fix>
</trkpt>
<trkpt lat="40.072842" lon="-105.230575">
  <ele>1586.16</ele>
  <time>2026-08-28T19:12:48Z</time>
  <course>11.36</course>
  <speed>0.0</speed>
  <fix>3d</fix>
</trkpt>
<trkpt lat="40.072842" lon="-105.230575">
  <ele>1586.09</ele>
  <time>2026-08-28T19:12:48Z</time>
  <course>135.0</course>
  <speed>0.0</speed>
  <fix>3d</fix>
</trkpt>
<trkpt lat="40.072842" lon="-105.230575">
  <ele>1586.16</ele>
  <time>2026-08-28T19:12:48Z</time>
  <course>11.36</course>
  <speed>0.0</speed>
  <fix>3d</fix>
</trkpt>
<trkpt lat="40.072842" lon="-105.230575">
  <ele>1586.09</ele>
  <time>2026-08-28T19:12:48Z</time>
  <course>135.0</course>
  <speed>0.0</speed>
  <fix>3d</fix>
</trkpt>
<trkpt lat="40.072842" lon="-105.230575">
  <ele>1586.17</ele>
  <time>2026-08-28T19:12:48Z</time>
  <course>11.36</course>
  <speed>0.0</speed>
  <fix>3d</fix>
</trkpt>
<trkpt lat="40.072842" lon="-105.230575">
  <ele>1586.09</ele>
  <time>2026-08-28T19:12:48Z</time>
  <course>135.0</course>
  <speed>0.0</speed>
  <fix>3d</fix>
</trkpt>
<trkpt lat="40.072842" lon="-105.230575">
  <ele>1586.17</ele>
  <time>2026-08-28T19:12:48Z</time>
  <course>11.35</course>
  <speed>0.0</speed>
  <fix>3d</fix>
</trkpt>
<trkpt lat="40.072842" lon="-105.230575">
  <ele>1586.09</ele>
  <time>2026-08-28T19:12:48Z</time>
  <course>134.99</course>
  <speed>0.0</speed>
  <fix>3d</fix>
</trkpt>
<trkpt lat="40.072842" lon="-105.230575">
  <ele>1586.17</ele>
  <time>2026-08-28T19:12:48Z</time>
  <course>11.35</course>
  <speed>0.0</speed>
  <fix>3d</fix>
</trkpt>
<trkpt lat="40.072842" lon="-105.230575">
  <ele>1586.09</ele>
  <time>2026-08-28T19:12:48Z</time>
  <course>134.99</course>
  <speed>0.0</speed>
  <fix>3d</fix>
</trkpt>
<trkpt lat="40.072842" lon="-105.230575">
  <ele>1586.17</ele>
  <time>2026-08-28T19:12:48Z</time>
  <course>11.35</course>
  <speed>0.0</speed>
  <fix>3d</fix>
</trkpt>
<trkpt lat="40.072842" lon="-105.230575">
  <ele>1586.09</ele>
  <time>2026-08-28T19:12:48Z</time>
  <course>156.64</course>
  <speed>0.0</speed>
  <fix>3d</fix>
</trkpt>
<trkpt lat="40.072842" lon="-105.230575">
  <ele>1586.16</ele>
  <time>2026-08-28T19:12:48Z</time>
  <course>11.35</course>
  <speed>0.0</speed>
  <fix>3d</fix>
</trkpt>
<trkpt lat="40.072842" lon="-105.230575">
  <ele>1586.09</ele>
  <time>2026-08-28T19:12:48Z</time>
  <course>197.26</course>
  <speed>0.0</speed>
  <fix>3d</fix>
</trkpt>
<trkpt lat="40.072842" lon="-105.230575">
  <ele>1586.16</ele>
  <time>2026-08-28T19:12:48Z</time>
  <course>11.34</course>
  <speed>0.0</speed>
  <fix>3d</fix>
</trkpt>
<trkpt lat="40.072842" lon="-105.230575">
  <ele>1586.09</ele>
  <time>2026-08-28T19:12:48Z</time>
  <course>313.42</course>
  <speed>0.0</speed>
  <fix>3d</fix>
</trkpt>
<trkpt lat="40.072842" lon="-105.230575">
  <ele>1586.16</ele>
  <time>2026-08-28T19:12:48Z</time>
  <course>11.34</course>
  <speed>0.0</speed>
  <fix>3d</fix>
</trkpt>
<trkpt lat="40.072842" lon="-105.230575">
  <ele>1586.09</ele>
  <time>2026-08-28T19:12:48Z</time>
  <course>46.66</course>
  <speed>0.0</speed>
  <fix>3d</fix>
</trkpt>
<trkpt lat="40.072842" lon="-105.230575">
  <ele>1586.16</ele>
  <time>2026-08-28T19:12:48Z</time>
  <course>11.34</course>
  <speed>0.0</speed>
  <fix>3d</fix>
</trkpt>
<trkpt lat="40.072842" lon="-105.230575">
  <ele>1586.09</ele>
  <time>2026-08-28T19:12:48Z</time>
  <course>153.02</course>
  <speed>0.0</speed>
  <fix>3d</fix>
</trkpt>
<trkpt lat="40.072842" lon="-105.230575">
  <ele>1586.16</ele>
  <time>2026-08-28T19:12:48Z</time>
  <course>11.34</course>
  <speed>0.0</speed>
  <fix>3d</fix>
</trkpt>
<trkpt lat="40.072842" lon="-105.230575">
  <ele>1586.09</ele>
  <time>2026-08-28T19:12:48Z</time>
  <course>179.02</course>
  <speed>0.0</speed>
  <fix>3d</fix>
</trkpt>
<trkpt lat="40.072842" lon="-105.230575">
  <ele>1586.16</ele>
  <time>2026-08-28T19:12:48Z</time>
  <course>11.34</course>
  <speed>0.0</speed>
  <fix>3d</fix>
</trkpt>
<trkpt lat="40.072842" lon="-105.230575">
  <ele>1586.09</ele>
  <time>2026-08-28T19:12:48Z</time>
  <course>54.56</course>
  <speed>0.0</speed>
  <fix>3d</fix>
</trkpt>
<trkpt lat="40.072842" lon="-105.230575">
  <ele>1586.17</ele>
  <time>2026-08-28T19:12:48Z</time>
  <course>11.34</course>
  <speed>0.0</speed>
  <fix>3d</fix>
</trkpt>
<trkpt lat="40.072842" lon="-105.230575">
  <ele>1586.09</ele>
  <time>2026-08-28T19:12:48Z</time>
  <course>47.74</course>
  <speed>0.0</speed>
  <fix>3d</fix>
</trkpt>
<trkpt lat="40.072842" lon="-105.230575">
  <ele>1586.17</ele>
  <time>2026-08-28T19:12:48Z</time>
  <course>11.33</course>
  <speed>0.0</speed>
  <fix>3d</fix>
</trkpt>
<trkpt lat="40.072842" lon="-105.230575">
  <ele>1586.09</ele>
  <time>2026-08-28T19:12:48Z</time>
  <course>47.95</course>
  <speed>0.0</speed>
  <fix>3d</fix>
</trkpt>
<trkpt lat="40.072842" lon="-105.230575">
  <ele>1586.16</ele>
  <time>2026-08-28T19:12:48Z</time>
  <course>11.33</course>
  <speed>0.0</speed>
  <fix>3d</fix>
</trkpt>
<trkpt lat="40.072842" lon="-105.230575">
  <ele>1586.09</ele>
  <time>2026-08-28T19:12:48Z</time>
  <course>108.13</course>
  <speed>0.0</speed>
  <fix>3d</fix>
</trkpt>
<trkpt lat="40.072842" lon="-105.230575">
  <ele>1586.16</ele>
  <time>2026-08-28T19:12:48Z</time>
  <course>11.33</course>
  <speed>0.0</speed>
  <fix>3d</fix>
</trkpt>
<trkpt lat="40.072842" lon="-105.230575">
  <ele>1586.09</ele>
  <time>2026-08-28T19:12:48Z</time>
  <course>202.24</course>
  <speed>0.0</speed>
  <fix>3d</fix>
</trkpt>
<trkpt lat="40.072842" lon="-105.230575">
  <ele>1586.16</ele>
  <time>2026-08-28T19:12:48Z</time>
  <course>11.33</course>
  <speed>0.0</speed>
  <fix>3d</fix>
</trkpt>
<trkpt lat="40.072842" lon="-105.230575">
  <ele>1586.09</ele>
  <time>2026-08-28T19:12:48Z</time>
  <course>122.61</course>
  <speed>0.0</speed>
  <fix>3d</fix>
</trkpt>
<trkpt lat="40.072842" lon="-105.230575">
  <ele>1586.17</ele>
  <time>2026-08-28T19:12:48Z</time>
  <course>11.33</course>
  <speed>0.0</speed>
  <fix>3d</fix>
</trkpt>
<trkpt lat="40.072842" lon="-105.230575">
  <ele>1586.09</ele>
  <time>2026-08-28T19:12:48Z</time>
  <course>118.81</course>
  <speed>0.0</speed>
  <fix>3d</fix>
</trkpt>
<trkpt lat="40.072842" lon="-105.230575">
  <ele>1586.17</ele>
  <time>2026-08-28T19:12:48Z</time>
  <course>11.33</course>
  <speed>0.0</speed>
  <fix>3d</fix>
</trkpt>
<trkpt lat="40.072842" lon="-105.230575">
  <ele>1586.09</ele>
  <time>2026-08-28T19:12:48Z</time>
  <course>138.68</course>
  <speed>0.0</speed>
  <fix>3d</fix>
</trkpt>
<trkpt lat="40.072842" lon="-105.230575">
  <ele>1586.17</ele>
  <time>2026-08-28T19:12:48Z</time>
  <course>11.33</course>
  <speed>0.01</speed>
  <fix>3d</fix>
</trkpt>
<trkpt lat="40.072842" lon="-105.230575">
  <ele>1586.09</ele>
  <time>2026-08-28T19:12:48Z</time>
  <course>136.81</course>
  <speed>0.0</speed>
  <fix>3d</fix>
</trkpt>
<trkpt lat="40.072842" lon="-105.230575">
  <ele>1586.18</ele>
  <time>2026-08-28T19:12:48Z</time>
  <course>11.33</course>
  <speed>0.01</speed>
  <fix>3d</fix>
</trkpt>
<trkpt lat="40.072842" lon="-105.230575">
  <ele>1586.09</ele>
  <time>2026-08-28T19:12:48Z</time>
  <course>134.3</course>
  <speed>0.0</speed>
  <fix>3d</fix>
</trkpt>
<trkpt lat="40.072842" lon="-105.230575">
  <ele>1586.18</ele>
  <time>2026-08-28T19:12:48Z</time>
  <course>11.33</course>
  <speed>0.01</speed>
  <fix>3d</fix>
</trkpt>
<trkpt lat="40.072842" lon="-105.230575">
  <ele>1586.09</ele>
  <time>2026-08-28T19:12:48Z</time>
  <course>134.85</course>
  <speed>0.0</speed>
  <fix>3d</fix>
</trkpt>
<trkpt lat="40.072842" lon="-105.230575">
  <ele>1586.18</ele>
  <time>2026-08-28T19:12:48Z</time>
  <course>11.33</course>
  <speed>0.01</speed>
  <fix>3d</fix>
</trkpt>
<trkpt lat="40.072842" lon="-105.230575">
  <ele>1586.09</ele>
  <time>2026-08-28T19:12:48Z</time>
  <course>135.12</course>
  <speed>0.0</speed>
  <fix>3d</fix>
</trkpt>
<trkpt lat="40.072842" lon="-105.230575">
  <ele>1586.18</ele>
  <time>2026-08-28T19:12:48Z</time>
  <course>11.33</course>
  <speed>0.01414213562373095</speed>
  <fix>3d</fix>
</trkpt>
<trkpt lat="40.072842" lon="-105.230575">
  <ele>1586.09</ele>
  <time>2026-08-28T19:12:48Z</time>
  <course>135.01</course>
  <speed>0.0</speed>
  <fix>3d</fix>
</trkpt>
<trkpt lat="40.072842" lon="-105.230575">
  <ele>1586.18</ele>
  <time>2026-08-28T19:12:48Z</time>
  <course>11.33</course>
  <speed>0.01414213562373095</speed>
  <fix>3d</fix>
</trkpt>
<trkpt lat="40.072842" lon="-105.230575">
  <ele>1586.09</ele>
  <time>2026-08-28T19:12:48Z</time>
  <course>134.99</course>
  <speed>0.0</speed>
  <fix>3d</fix>
</trkpt>
<trkpt lat="40.072842" lon="-105.230575">
  <ele>1586.18</ele>
  <time>2026-08-28T19:12:48Z</time>
  <course>11.33</course>
  <speed>0.01414213562373095</speed>
  <fix>3d</fix>
</trkpt>
<trkpt lat="40.072842" lon="-105.230575">
  <ele>1586.09</ele>
  <time>2026-08-28T19:12:48Z</time>
  <course>135.01</course>
  <speed>0.0</speed>
  <fix>3d</fix>
</trkpt>
<trkpt lat="40.072842" lon="-105.230575">
  <ele>1586.18</ele>
  <time>2026-08-28T19:12:48Z</time>
  <course>11.33</course>
  <speed>0.01414213562373095</speed>
  <fix>3d</fix>
</trkpt>
<trkpt lat="40.072842" lon="-105.230575">
  <ele>1586.09</ele>
  <time>2026-08-28T19:12:48Z</time>
  <course>135.01</course>
  <speed>0.0</speed>
  <fix>3d</fix>
</trkpt>
<trkpt lat="40.072842" lon="-105.230575">
  <ele>1586.18</ele>
  <time>2026-08-28T19:12:48Z</time>
  <course>11.33</course>
  <speed>0.01414213562373095</speed>
  <fix>3d</fix>
</trkpt>
<trkpt lat="40.072842" lon="-105.230575">
  <ele>1586.09</ele>
  <time>2026-08-28T19:12:48Z</time>
  <course>135.01</course>
  <speed>0.0</speed>
  <fix>3d</fix>
</trkpt>
<trkpt lat="40.072842" lon="-105.230575">
  <ele>1586.18</ele>
  <time>2026-08-28T19:12:48Z</time>
  <course>11.33</course>
  <speed>0.01414213562373095</speed>
  <fix>3d</fix>
</trkpt>
<trkpt lat="40.072842" lon="-105.230575">
  <ele>1586.09</ele>
  <time>2026-08-28T19:12:48Z</time>
  <course>135.01</course>
  <speed>0.0</speed>
  <fix>3d</fix>
</trkpt>
<trkpt lat="40.0728419" lon="-105.230575">
  <ele>1586.18</ele>
  <time>2026-08-28T19:12:48Z</time>
  <course>11.33</course>
  <speed>0.01414213562373095</speed>
  <fix>3d</fix>
</trkpt>
<trkpt lat="40.072842" lon="-105.230575">
  <ele>1586.09</ele>
  <time>2026-08-28T19:12:48Z</time>
  <course>135.01</course>
  <speed>0.0</speed>
  <fix>3d</fix>
</trkpt>
<trkpt lat="40.0728419" lon="-105.230575">
  <ele>1586.18</ele>
  <time>2026-08-28T19:12:48Z</time>
  <course>11.33</course>
  <speed>0.01414213562373095</speed>
  <fix>3d</fix>
</trkpt>
<trkpt lat="40.072842" lon="-105.230575">
  <ele>1586.09</ele>
  <time>2026-08-28T19:12:48Z</time>
  <course>135.01</course>
  <speed>0.0</speed>
  <fix>3d</fix>
</trkpt>
<trkpt lat="40.0728419" lon="-105.2305749">
  <ele>1586.18</ele>
  <time>2026-08-28T19:12:48Z</time>
  <course>11.33</course>
  <speed>0.022360679774997897</speed>
  <fix>3d</fix>
</trkpt>
<trkpt lat="40.072842" lon="-105.230575">
  <ele>1586.09</ele>
  <time>2026-08-28T19:12:48Z</time>
  <course>135.01</course>
  <speed>0.0</speed>
  <fix>3d</fix>
</trkpt>
<trkpt lat="40.0728419" lon="-105.2305749">
  <ele>1586.17</ele>
  <time>2026-08-28T19:12:48Z</time>
  <course>11.33</course>
  <speed>0.022360679774997897</speed>
  <fix>3d</fix>
</trkpt>
<trkpt lat="40.072842" lon="-105.230575">
  <ele>1586.09</ele>
  <time>2026-08-28T19:12:49Z</time>
  <course>135.01</course>
  <speed>0.0</speed>
  <fix>3d</fix>
</trkpt>
<trkpt lat="40.0728419" lon="-105.2305749">
  <ele>1586.17</ele>
  <time>2026-08-28T19:12:49Z</time>
  <course>11.33</course>
  <speed>0.022360679774997897</speed>
  <fix>3d</fix>
</trkpt>
<trkpt lat="40.072842" lon="-105.230575">
  <ele>1586.09</ele>
  <time>2026-08-28T19:12:49Z</time>
  <course>120.6</course>
  <speed>0.0</speed>
  <fix>3d</fix>
</trkpt>
<trkpt lat="40.0728419" lon="-105.2305749">
  <ele>1586.17</ele>
  <time>2026-08-28T19:12:49Z</time>
  <course>11.33</course>
  <speed>0.022360679774997897</speed>
  <fix>3d</fix>
</trkpt>
<trkpt lat="40.072842" lon="-105.230575">
  <ele>1586.09</ele>
  <time>2026-08-28T19:12:49Z</time>
  <course>108.86</course>
  <speed>0.0</speed>
  <fix>3d</fix>
</trkpt>
<trkpt lat="40.0728419" lon="-105.2305749">
  <ele>1586.17</ele>
  <time>2026-08-28T19:12:49Z</time>
  <course>11.33</course>
  <speed>0.022360679774997897</speed>
  <fix>3d</fix>
</trkpt>
<trkpt lat="40.072842" lon="-105.230575">
  <ele>1586.09</ele>
  <time>2026-08-28T19:12:49Z</time>
  <course>125.27</course>
  <speed>0.0</speed>
  <fix>3d</fix>
</trkpt>
<trkpt lat="40.0728419" lon="-105.2305749">
  <ele>1586.17</ele>
  <time>2026-08-28T19:12:49Z</time>
  <course>11.33</course>
  <speed>0.022360679774997897</speed>
  <fix>3d</fix>
</trkpt>
<trkpt lat="40.072842" lon="-105.230575">
  <ele>1586.09</ele>
  <time>2026-08-28T19:12:49Z</time>
  <course>139.95</course>
  <speed>0.0</speed>
  <fix>3d</fix>
</trkpt>
<trkpt lat="40.0728419" lon="-105.2305749">
  <ele>1586.18</ele>
  <time>2026-08-28T19:12:49Z</time>
  <course>11.33</course>
  <speed>0.022360679774997897</speed>
  <fix>3d</fix>
</trkpt>
<trkpt lat="40.072842" lon="-105.230575">
  <ele>1586.09</ele>
  <time>2026-08-28T19:12:49Z</time>
  <course>135.72</course>
  <speed>0.0</speed>
  <fix>3d</fix>
</trkpt>
<trkpt lat="40.0728419" lon="-105.2305749">
  <ele>1586.18</ele>
  <time>2026-08-28T19:12:49Z</time>
  <course>11.33</course>
  <speed>0.022360679774997897</speed>
  <fix>3d</fix>
</trkpt>
<trkpt lat="40.072842" lon="-105.230575">
  <ele>1586.09</ele>
  <time>2026-08-28T19:12:49Z</time>
  <course>134.26</course>
  <speed>0.0</speed>
  <fix>3d</fix>
</trkpt>
<trkpt lat="40.0728419" lon="-105.2305749">
  <ele>1586.18</ele>
  <time>2026-08-28T19:12:49Z</time>
  <course>11.33</course>
  <speed>0.022360679774997897</speed>
  <fix>3d</fix>
</trkpt>
<trkpt lat="40.072842" lon="-105.230575">
  <ele>1586.09</ele>
  <time>2026-08-28T19:12:49Z</time>
  <course>135.0</course>
  <speed>0.0</speed>
  <fix>3d</fix>
</trkpt>
<trkpt lat="40.0728419" lon="-105.2305749">
  <ele>1586.18</ele>
  <time>2026-08-28T19:12:49Z</time>
  <course>11.33</course>
  <speed>0.022360679774997897</speed>
  <fix>3d</fix>
</trkpt>
<trkpt lat="40.072842" lon="-105.230575">
  <ele>1586.09</ele>
  <time>2026-08-28T19:12:49Z</time>
  <course>135.11</course>
  <speed>0.0</speed>
  <fix>3d</fix>
</trkpt>
<trkpt lat="40.0728419" lon="-105.2305749">
  <ele>1586.18</ele>
  <time>2026-08-28T19:12:49Z</time>
  <course>11.33</course>
  <speed>0.022360679774997897</speed>
  <fix>3d</fix>
</trkpt>
<trkpt lat="40.072842" lon="-105.230575">
  <ele>1586.09</ele>
  <time>2026-08-28T19:12:49Z</time>
  <course>135.0</course>
  <speed>0.0</speed>
  <fix>3d</fix>
</trkpt>
<trkpt lat="40.0728419" lon="-105.2305749">
  <ele>1586.18</ele>
  <time>2026-08-28T19:12:49Z</time>
  <course>11.33</course>
  <speed>0.022360679774997897</speed>
  <fix>3d</fix>
</trkpt>
<trkpt lat="40.072842" lon="-105.230575">
  <ele>1586.09</ele>
  <time>2026-08-28T19:12:49Z</time>
  <course>134.99</course>
  <speed>0.0</speed>
  <fix>3d</fix>
</trkpt>
<trkpt lat="40.0728419" lon="-105.2305749">
  <ele>1586.18</ele>
  <time>2026-08-28T19:12:49Z</time>
  <course>11.33</course>
  <speed>0.022360679774997897</speed>
  <fix>3d</fix>
</trkpt>
<trkpt lat="40.072842" lon="-105.230575">
  <ele>1586.09</ele>
  <time>2026-08-28T19:12:49Z</time>
  <course>135.01</course>
  <speed>0.0</speed>
  <fix>3d</fix>
</trkpt>
<trkpt lat="40.0728419" lon="-105.2305749">
  <ele>1586.18</ele>
  <time>2026-08-28T19:12:49Z</time>
  <course>11.33</course>
  <speed>0.022360679774997897</speed>
  <fix>3d</fix>
</trkpt>
<trkpt lat="40.072842" lon="-105.230575">
  <ele>1586.09</ele>
  <time>2026-08-28T19:12:49Z</time>
  <course>135.01</course>
  <speed>0.0</speed>
  <fix>3d</fix>
</trkpt>
<trkpt lat="40.0728419" lon="-105.2305749">
  <ele>1586.18</ele>
  <time>2026-08-28T19:12:49Z</time>
  <course>11.33</course>
  <speed>0.022360679774997897</speed>
  <fix>3d</fix>
</trkpt>
<trkpt lat="40.072842" lon="-105.230575">
  <ele>1586.09</ele>
  <time>2026-08-28T19:12:49Z</time>
  <course>135.01</course>
  <speed>0.0</speed>
  <fix>3d</fix>
</trkpt>
<trkpt lat="40.0728419" lon="-105.2305749">
  <ele>1586.18</ele>
  <time>2026-08-28T19:12:49Z</time>
  <course>11.33</course>
  <speed>0.022360679774997897</speed>
  <fix>3d</fix>
</trkpt>
<trkpt lat="40.072842" lon="-105.230575">
  <ele>1586.09</ele>
  <time>2026-08-28T19:12:49Z</time>
  <course>135.01</course>
  <speed>0.0</speed>
  <fix>3d</fix>
</trkpt>
<trkpt lat="40.0728419" lon="-105.2305749">
  <ele>1586.18</ele>
  <time>2026-08-28T19:12:49Z</time>
  <course>11.33</course>
  <speed>0.022360679774997897</speed>
  <fix>3d</fix>
</trkpt>
<trkpt lat="40.072842" lon="-105.230575">
  <ele>1586.09</ele>
  <time>2026-08-28T19:12:49Z</time>
  <course>135.01</course>
  <speed>0.0</speed>
  <fix>3d</fix>
</trkpt>
<trkpt lat="40.0728419" lon="-105.2305749">
  <ele>1586.18</ele>
  <time>2026-08-28T19:12:49Z</time>
  <course>11.33</course>
  <speed>0.022360679774997897</speed>
  <fix>3d</fix>
</trkpt>
<trkpt lat="40.072842" lon="-105.230575">
  <ele>1586.09</ele>
  <time>2026-08-28T19:12:49Z</time>
  <course>135.01</course>
  <speed>0.0</speed>
  <fix>3d</fix>
</trkpt>
<trkpt lat="40.0728419" lon="-105.2305749">
  <ele>1586.18</ele>
  <time>2026-08-28T19:12:49Z</time>
  <course>11.32</course>
  <speed>0.022360679774997897</speed>
  <fix>3d</fix>
</trkpt>
<trkpt lat="40.072842" lon="-105.230575">
  <ele>1586.09</ele>
  <time>2026-08-28T19:12:49Z</time>
  <course>135.01</course>
  <speed>0.0</speed>
  <fix>3d</fix>
</trkpt>
<trkpt lat="40.0728419" lon="-105.2305749">
  <ele>1586.18</ele>
  <time>2026-08-28T19:12:49Z</time>
  <course>11.32</course>
  <speed>0.022360679774997897</speed>
  <fix>3d</fix>
</trkpt>
<trkpt lat="40.072842" lon="-105.230575">
  <ele>1586.09</ele>
  <time>2026-08-28T19:12:49Z</time>
  <course>135.01</course>
  <speed>0.0</speed>
  <fix>3d</fix>
</trkpt>
<trkpt lat="40.0728419" lon="-105.2305749">
  <ele>1586.18</ele>
  <time>2026-08-28T19:12:49Z</time>
  <course>11.32</course>
  <speed>0.022360679774997897</speed>
  <fix>3d</fix>
</trkpt>
<trkpt lat="40.072842" lon="-105.230575">
  <ele>1586.09</ele>
  <time>2026-08-28T19:12:49Z</time>
  <course>135.01</course>
  <speed>0.0</speed>
  <fix>3d</fix>
</trkpt>
<trkpt lat="40.0728419" lon="-105.2305749">
  <ele>1586.18</ele>
  <time>2026-08-28T19:12:49Z</time>
  <course>11.32</course>
  <speed>0.022360679774997897</speed>
  <fix>3d</fix>
</trkpt>
<trkpt lat="40.072842" lon="-105.230575">
  <ele>1586.09</ele>
  <time>2026-08-28T19:12:49Z</time>
  <course>135.01</course>
  <speed>0.0</speed>
  <fix>3d</fix>
</trkpt>
<trkpt lat="40.0728419" lon="-105.2305749">
  <ele>1586.18</ele>
  <time>2026-08-28T19:12:49Z</time>
  <course>11.32</course>
  <speed>0.022360679774997897</speed>
  <fix>3d</fix>
</trkpt>
<trkpt lat="40.072842" lon="-105.230575">
  <ele>1586.09</ele>
  <time>2026-08-28T19:12:49Z</time>
  <course>135.01</course>
  <speed>0.0</speed>
  <fix>3d</fix>
</trkpt>
<trkpt lat="40.0728419" lon="-105.2305749">
  <ele>1586.18</ele>
  <time>2026-08-28T19:12:49Z</time>
  <course>11.32</course>
  <speed>0.022360679774997897</speed>
  <fix>3d</fix>
</trkpt>
<trkpt lat="40.072842" lon="-105.230575">
  <ele>1586.09</ele>
  <time>2026-08-28T19:12:49Z</time>
  <course>135.01</course>
  <speed>0.0</speed>
  <fix>3d</fix>
</trkpt>
<trkpt lat="40.0728419" lon="-105.2305749">
  <ele>1586.18</ele>
  <time>2026-08-28T19:12:49Z</time>
  <course>11.32</course>
  <speed>0.022360679774997897</speed>
  <fix>3d</fix>
</trkpt>
<trkpt lat="40.072842" lon="-105.230575">
  <ele>1586.09</ele>
  <time>2026-08-28T19:12:49Z</time>
  <course>135.01</course>
  <speed>0.0</speed>
  <fix>3d</fix>
</trkpt>
<trkpt lat="40.0728419" lon="-105.2305749">
  <ele>1586.18</ele>
  <time>2026-08-28T19:12:49Z</time>
  <course>11.32</course>
  <speed>0.022360679774997897</speed>
  <fix>3d</fix>
</trkpt>
<trkpt lat="40.072842" lon="-105.230575">
  <ele>1586.09</ele>
  <time>2026-08-28T19:12:49Z</time>
  <course>135.01</course>
  <speed>0.0</speed>
  <fix>3d</fix>
</trkpt>
<trkpt lat="40.0728419" lon="-105.2305749">
  <ele>1586.18</ele>
  <time>2026-08-28T19:12:49Z</time>
  <course>11.31</course>
  <speed>0.022360679774997897</speed>
  <fix>3d</fix>
</trkpt>
<trkpt lat="40.072842" lon="-105.230575">
  <ele>1586.09</ele>
  <time>2026-08-28T19:12:49Z</time>
  <course>135.01</course>
  <speed>0.0</speed>
  <fix>3d</fix>
</trkpt>
<trkpt lat="40.0728419" lon="-105.2305749">
  <ele>1586.18</ele>
  <time>2026-08-28T19:12:49Z</time>
  <course>11.31</course>
  <speed>0.022360679774997897</speed>
  <fix>3d</fix>
</trkpt>
<trkpt lat="40.072842" lon="-105.230575">
  <ele>1586.09</ele>
  <time>2026-08-28T19:12:49Z</time>
  <course>135.01</course>
  <speed>0.0</speed>
  <fix>3d</fix>
</trkpt>
<trkpt lat="40.0728419" lon="-105.2305749">
  <ele>1586.17</ele>
  <time>2026-08-28T19:12:49Z</time>
  <course>11.31</course>
  <speed>0.022360679774997897</speed>
  <fix>3d</fix>
</trkpt>
<trkpt lat="40.072842" lon="-105.230575">
  <ele>1586.09</ele>
  <time>2026-08-28T19:12:49Z</time>
  <course>135.01</course>
  <speed>0.0</speed>
  <fix>3d</fix>
</trkpt>
<trkpt lat="40.0728419" lon="-105.2305749">
  <ele>1586.17</ele>
  <time>2026-08-28T19:12:49Z</time>
  <course>11.31</course>
  <speed>0.022360679774997897</speed>
  <fix>3d</fix>
</trkpt>
<trkpt lat="40.072842" lon="-105.230575">
  <ele>1586.09</ele>
  <time>2026-08-28T19:12:49Z</time>
  <course>135.01</course>
  <speed>0.0</speed>
  <fix>3d</fix>
</trkpt>
<trkpt lat="40.0728419" lon="-105.2305749">
  <ele>1586.17</ele>
  <time>2026-08-28T19:12:49Z</time>
  <course>11.31</course>
  <speed>0.022360679774997897</speed>
  <fix>3d</fix>
</trkpt>
<trkpt lat="40.072842" lon="-105.230575">
  <ele>1586.09</ele>
  <time>2026-08-28T19:12:49Z</time>
  <course>315.0</course>
  <speed>0.0</speed>
  <fix>3d</fix>
</trkpt>
<trkpt lat="40.0728419" lon="-105.2305749">
  <ele>1586.17</ele>
  <time>2026-08-28T19:12:49Z</time>
  <course>11.31</course>
  <speed>0.022360679774997897</speed>
  <fix>3d</fix>
</trkpt>
<trkpt lat="40.072842" lon="-105.230575">
  <ele>1586.09</ele>
  <time>2026-08-28T19:12:49Z</time>
  <course>315.0</course>
  <speed>0.0</speed>
  <fix>3d</fix>
</trkpt>
<trkpt lat="40.0728419" lon="-105.2305749">
  <ele>1586.17</ele>
  <time>2026-08-28T19:12:49Z</time>
  <course>11.31</course>
  <speed>0.022360679774997897</speed>
  <fix>3d</fix>
</trkpt>
<trkpt lat="40.072842" lon="-105.230575">
  <ele>1586.09</ele>
  <time>2026-08-28T19:12:49Z</time>
  <course>315.0</course>
  <speed>0.0</speed>
  <fix>3d</fix>
</trkpt>
<trkpt lat="40.0728419" lon="-105.2305749">
  <ele>1586.17</ele>
  <time>2026-08-28T19:12:49Z</time>
  <course>11.3</course>
  <speed>0.022360679774997897</speed>
  <fix>3d</fix>
</trkpt>
<trkpt lat="40.072842" lon="-105.230575">
  <ele>1586.09</ele>
  <time>2026-08-28T19:12:49Z</time>
  <course>135.0</course>
  <speed>0.0</speed>
  <fix>3d</fix>
</trkpt>
<trkpt lat="40.0728419" lon="-105.2305749">
  <ele>1586.18</ele>
  <time>2026-08-28T19:12:49Z</time>
  <course>11.3</course>
  <speed>0.022360679774997897</speed>
  <fix>3d</fix>
</trkpt>
<trkpt lat="40.072842" lon="-105.230575">
  <ele>1586.09</ele>
  <time>2026-08-28T19:12:49Z</time>
  <course>135.01</course>
  <speed>0.0</speed>
  <fix>3d</fix>
</trkpt>
<trkpt lat="40.0728419" lon="-105.2305749">
  <ele>1586.18</ele>
  <time>2026-08-28T19:12:49Z</time>
  <course>11.3</course>
  <speed>0.022360679774997897</speed>
  <fix>3d</fix>
</trkpt>
<trkpt lat="40.072842" lon="-105.230575">
  <ele>1586.09</ele>
  <time>2026-08-28T19:12:49Z</time>
  <course>314.91</course>
  <speed>0.0</speed>
  <fix>3d</fix>
</trkpt>
<trkpt lat="40.0728419" lon="-105.2305749">
  <ele>1586.18</ele>
  <time>2026-08-28T19:12:49Z</time>
  <course>11.3</course>
  <speed>0.022360679774997897</speed>
  <fix>3d</fix>
</trkpt>
<trkpt lat="40.072842" lon="-105.230575">
  <ele>1586.09</ele>
  <time>2026-08-28T19:12:49Z</time>
  <course>135.02</course>
  <speed>0.0</speed>
  <fix>3d</fix>
</trkpt>
<trkpt lat="40.0728419" lon="-105.2305749">
  <ele>1586.18</ele>
  <time>2026-08-28T19:12:49Z</time>
  <course>11.3</course>
  <speed>0.022360679774997897</speed>
  <fix>3d</fix>
</trkpt>
<trkpt lat="40.072842" lon="-105.230575">
  <ele>1586.09</ele>
  <time>2026-08-28T19:12:49Z</time>
  <course>135.02</course>
  <speed>0.0</speed>
  <fix>3d</fix>
</trkpt>
<trkpt lat="40.0728419" lon="-105.2305749">
  <ele>1586.18</ele>
  <time>2026-08-28T19:12:49Z</time>
  <course>11.29</course>
  <speed>0.022360679774997897</speed>
  <fix>3d</fix>
</trkpt>
<trkpt lat="40.072842" lon="-105.230575">
  <ele>1586.09</ele>
  <time>2026-08-28T19:12:49Z</time>
  <course>135.02</course>
  <speed>0.0</speed>
  <fix>3d</fix>
</trkpt>
<trkpt lat="40.0728419" lon="-105.2305749">
  <ele>1586.18</ele>
  <time>2026-08-28T19:12:49Z</time>
  <course>11.29</course>
  <speed>0.022360679774997897</speed>
  <fix>3d</fix>
</trkpt>
<trkpt lat="40.072842" lon="-105.230575">
  <ele>1586.09</ele>
  <time>2026-08-28T19:12:49Z</time>
  <course>135.02</course>
  <speed>0.0</speed>
  <fix>3d</fix>
</trkpt>
<trkpt lat="40.0728419" lon="-105.2305749">
  <ele>1586.19</ele>
  <time>2026-08-28T19:12:49Z</time>
  <course>11.29</course>
  <speed>0.022360679774997897</speed>
  <fix>3d</fix>
</trkpt>
<trkpt lat="40.072842" lon="-105.230575">
  <ele>1586.09</ele>
  <time>2026-08-28T19:12:49Z</time>
  <course>135.02</course>
  <speed>0.0</speed>
  <fix>3d</fix>
</trkpt>
<trkpt lat="40.0728419" lon="-105.2305749">
  <ele>1586.19</ele>
  <time>2026-08-28T19:12:49Z</time>
  <course>11.29</course>
  <speed>0.022360679774997897</speed>
  <fix>3d</fix>
</trkpt>
<trkpt lat="40.072842" lon="-105.230575">
  <ele>1586.09</ele>
  <time>2026-08-28T19:12:49Z</time>
  <course>135.02</course>
  <speed>0.0</speed>
  <fix>3d</fix>
</trkpt>
<trkpt lat="40.0728419" lon="-105.2305749">
  <ele>1586.19</ele>
  <time>2026-08-28T19:12:49Z</time>
  <course>11.29</course>
  <speed>0.022360679774997897</speed>
  <fix>3d</fix>
</trkpt>
<trkpt lat="40.072842" lon="-105.230575">
  <ele>1586.09</ele>
  <time>2026-08-28T19:12:49Z</time>
  <course>135.02</course>
  <speed>0.0</speed>
  <fix>3d</fix>
</trkpt>
<trkpt lat="40.0728419" lon="-105.2305749">
  <ele>1586.19</ele>
  <time>2026-08-28T19:12:49Z</time>
  <course>11.28</course>
  <speed>0.022360679774997897</speed>
  <fix>3d</fix>
</trkpt>
<trkpt lat="40.072842" lon="-105.230575">
  <ele>1586.09</ele>
  <time>2026-08-28T19:12:49Z</time>
  <course>135.02</course>
  <speed>0.0</speed>
  <fix>3d</fix>
</trkpt>
<trkpt lat="40.0728419" lon="-105.2305749">
  <ele>1586.19</ele>
  <time>2026-08-28T19:12:49Z</time>
  <course>11.28</course>
  <speed>0.022360679774997897</speed>
  <fix>3d</fix>
</trkpt>
<trkpt lat="40.072842" lon="-105.230575">
  <ele>1586.09</ele>
  <time>2026-08-28T19:12:49Z</time>
  <course>135.02</course>
  <speed>0.0</speed>
  <fix>3d</fix>
</trkpt>
<trkpt lat="40.0728419" lon="-105.2305749">
  <ele>1586.19</ele>
  <time>2026-08-28T19:12:49Z</time>
  <course>11.28</course>
  <speed>0.022360679774997897</speed>
  <fix>3d</fix>
</trkpt>
<trkpt lat="40.072842" lon="-105.230575">
  <ele>1586.09</ele>
  <time>2026-08-28T19:12:49Z</time>
  <course>135.02</course>
  <speed>0.0</speed>
  <fix>3d</fix>
</trkpt>
<trkpt lat="40.0728419" lon="-105.2305749">
  <ele>1586.18</ele>
  <time>2026-08-28T19:12:49Z</time>
  <course>11.28</course>
  <speed>0.022360679774997897</speed>
  <fix>3d</fix>
</trkpt>
<trkpt lat="40.072842" lon="-105.230575">
  <ele>1586.09</ele>
  <time>2026-08-28T19:12:49Z</time>
  <course>135.02</course>
  <speed>0.0</speed>
  <fix>3d</fix>
</trkpt>
<trkpt lat="40.0728419" lon="-105.2305749">
  <ele>1586.18</ele>
  <time>2026-08-28T19:12:49Z</time>
  <course>11.28</course>
  <speed>0.022360679774997897</speed>
  <fix>3d</fix>
</trkpt>
<trkpt lat="40.072842" lon="-105.230575">
  <ele>1586.09</ele>
  <time>2026-08-28T19:12:49Z</time>
  <course>135.02</course>
  <speed>0.0</speed>
  <fix>3d</fix>
</trkpt>
<trkpt lat="40.0728419" lon="-105.2305749">
  <ele>1586.18</ele>
  <time>2026-08-28T19:12:49Z</time>
  <course>11.27</course>
  <speed>0.022360679774997897</speed>
  <fix>3d</fix>
</trkpt>
<trkpt lat="40.072842" lon="-105.230575">
  <ele>1586.09</ele>
  <time>2026-08-28T19:12:49Z</time>
  <course>135.02</course>
  <speed>0.0</speed>
  <fix>3d</fix>
</trkpt>
<trkpt lat="40.0728419" lon="-105.2305749">
  <ele>1586.18</ele>
  <time>2026-08-28T19:12:49Z</time>
  <course>11.27</course>
  <speed>0.022360679774997897</speed>
  <fix>3d</fix>
</trkpt>
<trkpt lat="40.072842" lon="-105.230575">
  <ele>1586.09</ele>
  <time>2026-08-28T19:12:49Z</time>
  <course>135.02</course>
  <speed>0.0</speed>
  <fix>3d</fix>
</trkpt>
<trkpt lat="40.0728419" lon="-105.2305749">
  <ele>1586.18</ele>
  <time>2026-08-28T19:12:49Z</time>
  <course>11.27</course>
  <speed>0.022360679774997897</speed>
  <fix>3d</fix>
</trkpt>
<trkpt lat="40.072842" lon="-105.230575">
  <ele>1586.09</ele>
  <time>2026-08-28T19:12:49Z</time>
  <course>135.02</course>
  <speed>0.0</speed>
  <fix>3d</fix>
</trkpt>
<trkpt lat="40.0728419" lon="-105.2305749">
  <ele>1586.18</ele>
  <time>2026-08-28T19:12:49Z</time>
  <course>11.27</course>
  <speed>0.01414213562373095</speed>
  <fix>3d</fix>
</trkpt>
<trkpt lat="40.072842" lon="-105.230575">
  <ele>1586.09</ele>
  <time>2026-08-28T19:12:49Z</time>
  <course>135.02</course>
  <speed>0.0</speed>
  <fix>3d</fix>
</trkpt>
<trkpt lat="40.0728419" lon="-105.2305749">
  <ele>1586.18</ele>
  <time>2026-08-28T19:12:49Z</time>
  <course>11.26</course>
  <speed>0.01414213562373095</speed>
  <fix>3d</fix>
</trkpt>
<trkpt lat="40.072842" lon="-105.230575">
  <ele>1586.09</ele>
  <time>2026-08-28T19:12:49Z</time>
  <course>135.02</course>
  <speed>0.0</speed>
  <fix>3d</fix>
</trkpt>
<trkpt lat="40.0728419" lon="-105.2305749">
  <ele>1586.18</ele>
  <time>2026-08-28T19:12:49Z</time>
  <course>11.26</course>
  <speed>0.01414213562373095</speed>
  <fix>3d</fix>
</trkpt>
<trkpt lat="40.072842" lon="-105.230575">
  <ele>1586.09</ele>
  <time>2026-08-28T19:12:49Z</time>
  <course>135.02</course>
  <speed>0.0</speed>
  <fix>3d</fix>
</trkpt>
<trkpt lat="40.0728419" lon="-105.2305749">
  <ele>1586.18</ele>
  <time>2026-08-28T19:12:49Z</time>
  <course>11.26</course>
  <speed>0.01414213562373095</speed>
  <fix>3d</fix>
</trkpt>
<trkpt lat="40.072842" lon="-105.230575">
  <ele>1586.09</ele>
  <time>2026-08-28T19:12:49Z</time>
  <course>135.02</course>
  <speed>0.0</speed>
  <fix>3d</fix>
</trkpt>
<trkpt lat="40.0728419" lon="-105.2305749">
  <ele>1586.19</ele>
  <time>2026-08-28T19:12:49Z</time>
  <course>11.26</course>
  <speed>0.01414213562373095</speed>
  <fix>3d</fix>
</trkpt>
<trkpt lat="40.072842" lon="-105.230575">
  <ele>1586.09</ele>
  <time>2026-08-28T19:12:49Z</time>
  <course>135.02</course>
  <speed>0.0</speed>
  <fix>3d</fix>
</trkpt>
<trkpt lat="40.0728419" lon="-105.2305749">
  <ele>1586.19</ele>
  <time>2026-08-28T19:12:49Z</time>
  <course>11.26</course>
  <speed>0.01414213562373095</speed>
  <fix>3d</fix>
</trkpt>
<trkpt lat="40.072842" lon="-105.230575">
  <ele>1586.09</ele>
  <time>2026-08-28T19:12:49Z</time>
  <course>135.02</course>
  <speed>0.0</speed>
  <fix>3d</fix>
</trkpt>
<trkpt lat="40.0728419" lon="-105.2305749">
  <ele>1586.19</ele>
  <time>2026-08-28T19:12:49Z</time>
  <course>11.25</course>
  <speed>0.01414213562373095</speed>
  <fix>3d</fix>
</trkpt>
<trkpt lat="40.072842" lon="-105.230575">
  <ele>1586.09</ele>
  <time>2026-08-28T19:12:49Z</time>
  <course>135.02</course>
  <speed>0.0</speed>
  <fix>3d</fix>
</trkpt>
<trkpt lat="40.0728419" lon="-105.2305749">
  <ele>1586.19</ele>
  <time>2026-08-28T19:12:49Z</time>
  <course>11.25</course>
  <speed>0.01414213562373095</speed>
  <fix>3d</fix>
</trkpt>
<trkpt lat="40.072842" lon="-105.230575">
  <ele>1586.09</ele>
  <time>2026-08-28T19:12:49Z</time>
  <course>135.02</course>
  <speed>0.0</speed>
  <fix>3d</fix>
</trkpt>
<trkpt lat="40.0728419" lon="-105.2305749">
  <ele>1586.19</ele>
  <time>2026-08-28T19:12:49Z</time>
  <course>11.25</course>
  <speed>0.01414213562373095</speed>
  <fix>3d</fix>
</trkpt>
<trkpt lat="40.072842" lon="-105.230575">
  <ele>1586.09</ele>
  <time>2026-08-28T19:12:49Z</time>
  <course>135.02</course>
  <speed>0.0</speed>
  <fix>3d</fix>
</trkpt>
<trkpt lat="40.0728419" lon="-105.2305749">
  <ele>1586.19</ele>
  <time>2026-08-28T19:12:49Z</time>
  <course>11.25</course>
  <speed>0.01414213562373095</speed>
  <fix>3d</fix>
</trkpt>
<trkpt lat="40.072842" lon="-105.230575">
  <ele>1586.09</ele>
  <time>2026-08-28T19:12:49Z</time>
  <course>135.02</course>
  <speed>0.0</speed>
  <fix>3d</fix>
</trkpt>
<trkpt lat="40.0728419" lon="-105.2305749">
  <ele>1586.19</ele>
  <time>2026-08-28T19:12:49Z</time>
  <course>11.24</course>
  <speed>0.01414213562373095</speed>
  <fix>3d</fix>
</trkpt>
<trkpt lat="40.072842" lon="-105.230575">
  <ele>1586.09</ele>
  <time>2026-08-28T19:12:49Z</time>
  <course>135.02</course>
  <speed>0.0</speed>
  <fix>3d</fix>
</trkpt>
<trkpt lat="40.0728419" lon="-105.2305749">
  <ele>1586.19</ele>
  <time>2026-08-28T19:12:49Z</time>
  <course>11.24</course>
  <speed>0.01414213562373095</speed>
  <fix>3d</fix>
</trkpt>
<trkpt lat="40.072842" lon="-105.230575">
  <ele>1586.09</ele>
  <time>2026-08-28T19:12:49Z</time>
  <course>135.02</course>
  <speed>0.0</speed>
  <fix>3d</fix>
</trkpt>
<trkpt lat="40.0728419" lon="-105.2305749">
  <ele>1586.19</ele>
  <time>2026-08-28T19:12:49Z</time>
  <course>11.24</course>
  <speed>0.01414213562373095</speed>
  <fix>3d</fix>
</trkpt>
<trkpt lat="40.072842" lon="-105.230575">
  <ele>1586.09</ele>
  <time>2026-08-28T19:12:49Z</time>
  <course>135.02</course>
  <speed>0.0</speed>
  <fix>3d</fix>
</trkpt>
<trkpt lat="40.0728419" lon="-105.2305749">
  <ele>1586.19</ele>
  <time>2026-08-28T19:12:49Z</time>
  <course>11.24</course>
  <speed>0.01414213562373095</speed>
  <fix>3d</fix>
</trkpt>
<trkpt lat="40.072842" lon="-105.230575">
  <ele>1586.09</ele>
  <time>2026-08-28T19:12:49Z</time>
  <course>135.02</course>
  <speed>0.0</speed>
  <fix>3d</fix>
</trkpt>
<trkpt lat="40.0728419" lon="-105.2305749">
  <ele>1586.19</ele>
  <time>2026-08-28T19:12:49Z</time>
  <course>11.23</course>
  <speed>0.01414213562373095</speed>
  <fix>3d</fix>
</trkpt>
<trkpt lat="40.072842" lon="-105.230575">
  <ele>1586.09</ele>
  <time>2026-08-28T19:12:49Z</time>
  <course>135.02</course>
  <speed>0.0</speed>
  <fix>3d</fix>
</trkpt>
<trkpt lat="40.0728419" lon="-105.2305749">
  <ele>1586.18</ele>
  <time>2026-08-28T19:12:49Z</time>
  <course>11.23</course>
  <speed>0.01414213562373095</speed>
  <fix>3d</fix>
</trkpt>
<trkpt lat="40.072842" lon="-105.230575">
  <ele>1586.09</ele>
  <time>2026-08-28T19:12:49Z</time>
  <course>135.02</course>
  <speed>0.0</speed>
  <fix>3d</fix>
</trkpt>
<trkpt lat="40.0728419" lon="-105.2305749">
  <ele>1586.18</ele>
  <time>2026-08-28T19:12:49Z</time>
  <course>11.23</course>
  <speed>0.01414213562373095</speed>
  <fix>3d</fix>
</trkpt>
<trkpt lat="40.072842" lon="-105.230575">
  <ele>1586.09</ele>
  <time>2026-08-28T19:12:49Z</time>
  <course>135.02</course>
  <speed>0.0</speed>
  <fix>3d</fix>
</trkpt>
<trkpt lat="40.0728419" lon="-105.2305749">
  <ele>1586.18</ele>
  <time>2026-08-28T19:12:49Z</time>
  <course>11.23</course>
  <speed>0.01414213562373095</speed>
  <fix>3d</fix>
</trkpt>
<trkpt lat="40.072842" lon="-105.230575">
  <ele>1586.09</ele>
  <time>2026-08-28T19:12:49Z</time>
  <course>135.02</course>
  <speed>0.0</speed>
  <fix>3d</fix>
</trkpt>
<trkpt lat="40.0728419" lon="-105.2305749">
  <ele>1586.18</ele>
  <time>2026-08-28T19:12:49Z</time>
  <course>11.23</course>
  <speed>0.01414213562373095</speed>
  <fix>3d</fix>
</trkpt>
<trkpt lat="40.072842" lon="-105.230575">
  <ele>1586.09</ele>
  <time>2026-08-28T19:12:49Z</time>
  <course>135.02</course>
  <speed>0.0</speed>
  <fix>3d</fix>
</trkpt>
<trkpt lat="40.0728419" lon="-105.2305749">
  <ele>1586.18</ele>
  <time>2026-08-28T19:12:49Z</time>
  <course>11.22</course>
  <speed>0.01414213562373095</speed>
  <fix>3d</fix>
</trkpt>
<trkpt lat="40.072842" lon="-105.230575">
  <ele>1586.09</ele>
  <time>2026-08-28T19:12:49Z</time>
  <course>135.02</course>
  <speed>0.0</speed>
  <fix>3d</fix>
</trkpt>
<trkpt lat="40.0728419" lon="-105.2305749">
  <ele>1586.18</ele>
  <time>2026-08-28T19:12:49Z</time>
  <course>11.22</course>
  <speed>0.01414213562373095</speed>
  <fix>3d</fix>
</trkpt>
<trkpt lat="40.072842" lon="-105.230575">
  <ele>1586.09</ele>
  <time>2026-08-28T19:12:49Z</time>
  <course>135.02</course>
  <speed>0.0</speed>
  <fix>3d</fix>
</trkpt>
<trkpt lat="40.0728419" lon="-105.2305749">
  <ele>1586.18</ele>
  <time>2026-08-28T19:12:49Z</time>
  <course>11.22</course>
  <speed>0.01414213562373095</speed>
  <fix>3d</fix>
</trkpt>
<trkpt lat="40.072842" lon="-105.230575">
  <ele>1586.09</ele>
  <time>2026-08-28T19:12:49Z</time>
  <course>135.02</course>
  <speed>0.0</speed>
  <fix>3d</fix>
</trkpt>
<trkpt lat="40.0728419" lon="-105.2305749">
  <ele>1586.18</ele>
  <time>2026-08-28T19:12:49Z</time>
  <course>11.22</course>
  <speed>0.01414213562373095</speed>
  <fix>3d</fix>
</trkpt>
<trkpt lat="40.072842" lon="-105.230575">
  <ele>1586.09</ele>
  <time>2026-08-28T19:12:49Z</time>
  <course>135.02</course>
  <speed>0.0</speed>
  <fix>3d</fix>
</trkpt>
<trkpt lat="40.0728419" lon="-105.2305749">
  <ele>1586.17</ele>
  <time>2026-08-28T19:12:49Z</time>
  <course>11.21</course>
  <speed>0.01414213562373095</speed>
  <fix>3d</fix>
</trkpt>
<trkpt lat="40.072842" lon="-105.230575">
  <ele>1586.09</ele>
  <time>2026-08-28T19:12:49Z</time>
  <course>135.02</course>
  <speed>0.0</speed>
  <fix>3d</fix>
</trkpt>
<trkpt lat="40.0728419" lon="-105.2305749">
  <ele>1586.17</ele>
  <time>2026-08-28T19:12:49Z</time>
  <course>11.21</course>
  <speed>0.01414213562373095</speed>
  <fix>3d</fix>
</trkpt>
<trkpt lat="40.072842" lon="-105.230575">
  <ele>1586.09</ele>
  <time>2026-08-28T19:12:49Z</time>
  <course>135.02</course>
  <speed>0.0</speed>
  <fix>3d</fix>
</trkpt>
<trkpt lat="40.0728419" lon="-105.2305749">
  <ele>1586.17</ele>
  <time>2026-08-28T19:12:49Z</time>
  <course>11.21</course>
  <speed>0.01414213562373095</speed>
  <fix>3d</fix>
</trkpt>
<trkpt lat="40.072842" lon="-105.230575">
  <ele>1586.09</ele>
  <time>2026-08-28T19:12:49Z</time>
  <course>135.02</course>
  <speed>0.0</speed>
  <fix>3d</fix>
</trkpt>
<trkpt lat="40.0728419" lon="-105.2305749">
  <ele>1586.17</ele>
  <time>2026-08-28T19:12:49Z</time>
  <course>11.21</course>
  <speed>0.01414213562373095</speed>
  <fix>3d</fix>
</trkpt>
<trkpt lat="40.072842" lon="-105.230575">
  <ele>1586.09</ele>
  <time>2026-08-28T19:12:49Z</time>
  <course>135.02</course>
  <speed>0.0</speed>
  <fix>3d</fix>
</trkpt>
<trkpt lat="40.0728419" lon="-105.2305749">
  <ele>1586.17</ele>
  <time>2026-08-28T19:12:49Z</time>
  <course>11.21</course>
  <speed>0.01414213562373095</speed>
  <fix>3d</fix>
</trkpt>
<trkpt lat="40.072842" lon="-105.230575">
  <ele>1586.09</ele>
  <time>2026-08-28T19:12:49Z</time>
  <course>315.0</course>
  <speed>0.0</speed>
  <fix>3d</fix>
</trkpt>
<trkpt lat="40.0728419" lon="-105.2305749">
  <ele>1586.17</ele>
  <time>2026-08-28T19:12:49Z</time>
  <course>11.21</course>
  <speed>0.01414213562373095</speed>
  <fix>3d</fix>
</trkpt>
<trkpt lat="40.0728419" lon="-105.2305749">
  <ele>1586.17</ele>
  <time>2026-08-28T19:12:49Z</time>
  <course>11.2</course>
  <speed>0.01414213562373095</speed>
  <fix>3d</fix>
</trkpt>
<trkpt lat="40.072842" lon="-105.230575">
  <ele>1586.09</ele>
  <time>2026-08-28T19:12:49Z</time>
  <course>315.0</course>
  <speed>0.0</speed>
  <fix>3d</fix>
</trkpt>
<trkpt lat="40.0728419" lon="-105.2305749">
  <ele>1586.17</ele>
  <time>2026-08-28T19:12:49Z</time>
  <course>11.2</course>
  <speed>0.01414213562373095</speed>
  <fix>3d</fix>
</trkpt>
<trkpt lat="40.0728419" lon="-105.2305749">
  <ele>1586.17</ele>
  <time>2026-08-28T19:12:49Z</time>
  <course>11.2</course>
  <speed>0.01414213562373095</speed>
  <fix>3d</fix>
</trkpt>
<trkpt lat="40.072842" lon="-105.230575">
  <ele>1586.09</ele>
  <time>2026-08-28T19:12:49Z</time>
  <course>315.0</course>
  <speed>0.0</speed>
  <fix>3d</fix>
</trkpt>
<trkpt lat="40.0728419" lon="-105.2305749">
  <ele>1586.17</ele>
  <time>2026-08-28T19:12:49Z</time>
  <course>11.2</course>
  <speed>0.01414213562373095</speed>
  <fix>3d</fix>
</trkpt>
<trkpt lat="40.0728419" lon="-105.2305749">
  <ele>1586.17</ele>
  <time>2026-08-28T19:12:49Z</time>
  <course>11.2</course>
  <speed>0.01414213562373095</speed>
  <fix>3d</fix>
</trkpt>
<trkpt lat="40.072842" lon="-105.230575">
  <ele>1586.09</ele>
  <time>2026-08-28T19:12:49Z</time>
  <course>314.96</course>
  <speed>0.0</speed>
  <fix>3d</fix>
</trkpt>
<trkpt lat="40.0728419" lon="-105.2305749">
  <ele>1586.17</ele>
  <time>2026-08-28T19:12:49Z</time>
  <course>11.2</course>
  <speed>0.01414213562373095</speed>
  <fix>3d</fix>
</trkpt>
<trkpt lat="40.0728419" lon="-105.2305749">
  <ele>1586.17</ele>
  <time>2026-08-28T19:12:49Z</time>
  <course>11.2</course>
  <speed>0.01414213562373095</speed>
  <fix>3d</fix>
</trkpt>
<trkpt lat="40.072842" lon="-105.230575">
  <ele>1586.09</ele>
  <time>2026-08-28T19:12:49Z</time>
  <course>315.0</course>
  <speed>0.0</speed>
  <fix>3d</fix>
</trkpt>
<trkpt lat="40.0728419" lon="-105.2305749">
  <ele>1586.17</ele>
  <time>2026-08-28T19:12:49Z</time>
  <course>11.2</course>
  <speed>0.01414213562373095</speed>
  <fix>3d</fix>
</trkpt>
<trkpt lat="40.0728419" lon="-105.2305749">
  <ele>1586.17</ele>
  <time>2026-08-28T19:12:49Z</time>
  <course>11.19</course>
  <speed>0.01414213562373095</speed>
  <fix>3d</fix>
</trkpt>
<trkpt lat="40.072842" lon="-105.230575">
  <ele>1586.09</ele>
  <time>2026-08-28T19:12:49Z</time>
  <course>315.0</course>
  <speed>0.0</speed>
  <fix>3d</fix>
</trkpt>
<trkpt lat="40.0728419" lon="-105.2305749">
  <ele>1586.17</ele>
  <time>2026-08-28T19:12:49Z</time>
  <course>11.19</course>
  <speed>0.01414213562373095</speed>
  <fix>3d</fix>
</trkpt>
<trkpt lat="40.0728419" lon="-105.2305749">
  <ele>1586.19</ele>
  <time>2026-08-28T19:12:49Z</time>
  <course>11.19</course>
  <speed>0.01414213562373095</speed>
  <fix>3d</fix>
</trkpt>
<trkpt lat="40.072842" lon="-105.230575">
  <ele>1586.09</ele>
  <time>2026-08-28T19:12:49Z</time>
  <course>315.0</course>
  <speed>0.0</speed>
  <fix>3d</fix>
</trkpt>
<trkpt lat="40.0728419" lon="-105.2305749">
  <ele>1586.19</ele>
  <time>2026-08-28T19:12:49Z</time>
  <course>11.19</course>
  <speed>0.01414213562373095</speed>
  <fix>3d</fix>
</trkpt>
<trkpt lat="40.0728419" lon="-105.2305749">
  <ele>1586.23</ele>
  <time>2026-08-28T19:12:49Z</time>
  <course>11.19</course>
  <speed>0.01414213562373095</speed>
  <fix>3d</fix>
</trkpt>
<trkpt lat="40.072842" lon="-105.230575">
  <ele>1586.12</ele>
  <time>2026-08-28T19:12:49Z</time>
  <course>314.83</course>
  <speed>0.0</speed>
  <fix>3d</fix>
</trkpt>
<trkpt lat="40.0728419" lon="-105.2305749">
  <ele>1586.24</ele>
  <time>2026-08-28T19:12:49Z</time>
  <course>11.19</course>
  <speed>0.01414213562373095</speed>
  <fix>3d</fix>
</trkpt>
<trkpt lat="40.0728419" lon="-105.2305749">
  <ele>1586.3</ele>
  <time>2026-08-28T19:12:49Z</time>
  <course>11.19</course>
  <speed>0.01414213562373095</speed>
  <fix>3d</fix>
</trkpt>
<trkpt lat="40.072842" lon="-105.230575">
  <ele>1586.16</ele>
  <time>2026-08-28T19:12:49Z</time>
  <course>316.77</course>
  <speed>0.0</speed>
  <fix>3d</fix>
</trkpt>
<trkpt lat="40.0728419" lon="-105.2305749">
  <ele>1586.31</ele>
  <time>2026-08-28T19:12:49Z</time>
  <course>11.19</course>
  <speed>0.01414213562373095</speed>
  <fix>3d</fix>
</trkpt>
<trkpt lat="40.0728419" lon="-105.2305749">
  <ele>1586.46</ele>
  <time>2026-08-28T19:12:49Z</time>
  <course>11.23</course>
  <speed>0.01</speed>
  <fix>3d</fix>
</trkpt>
<trkpt lat="40.072842" lon="-105.230575">
  <ele>1586.26</ele>
  <time>2026-08-28T19:12:49Z</time>
  <course>315.66</course>
  <speed>0.0</speed>
  <fix>3d</fix>
</trkpt>
<trkpt lat="40.0728419" lon="-105.2305749">
  <ele>1586.48</ele>
  <time>2026-08-28T19:12:49Z</time>
  <course>11.24</course>
  <speed>0.01</speed>
  <fix>3d</fix>
</trkpt>
<trkpt lat="40.0728419" lon="-105.2305749">
  <ele>1586.68</ele>
  <time>2026-08-28T19:12:49Z</time>
  <course>11.29</course>
  <speed>0.0</speed>
  <fix>3d</fix>
</trkpt>
<trkpt lat="40.072842" lon="-105.230575">
  <ele>1586.44</ele>
  <time>2026-08-28T19:12:49Z</time>
  <course>315.42</course>
  <speed>0.01</speed>
  <fix>3d</fix>
</trkpt>
<trkpt lat="40.0728419" lon="-105.2305749">
  <ele>1586.7</ele>
  <time>2026-08-28T19:12:49Z</time>
  <course>11.3</course>
  <speed>0.0</speed>
  <fix>3d</fix>
</trkpt>
<trkpt lat="40.0728419" lon="-105.2305749">
  <ele>1586.88</ele>
  <time>2026-08-28T19:12:49Z</time>
  <course>11.34</course>
  <speed>0.0</speed>
  <fix>3d</fix>
</trkpt>
<trkpt lat="40.072842" lon="-105.230575">
  <ele>1586.65</ele>
  <time>2026-08-28T19:12:49Z</time>
  <course>315.32</course>
  <speed>0.01</speed>
  <fix>3d</fix>
</trkpt>
<trkpt lat="40.0728419" lon="-105.2305749">
  <ele>1586.91</ele>
  <time>2026-08-28T19:12:49Z</time>
  <course>11.35</course>
  <speed>0.0</speed>
  <fix>3d</fix>
</trkpt>
<trkpt lat="40.0728419" lon="-105.2305749">
  <ele>1587.13</ele>
  <time>2026-08-28T19:12:49Z</time>
  <course>11.37</course>
  <speed>0.0</speed>
  <fix>3d</fix>
</trkpt>
<trkpt lat="40.072842" lon="-105.230575">
  <ele>1586.87</ele>
  <time>2026-08-28T19:12:49Z</time>
  <course>315.55</course>
  <speed>0.01</speed>
  <fix>3d</fix>
</trkpt>
<trkpt lat="40.0728419" lon="-105.2305749">
  <ele>1587.16</ele>
  <time>2026-08-28T19:12:49Z</time>
  <course>11.37</course>
  <speed>0.0</speed>
  <fix>3d</fix>
</trkpt>
<trkpt lat="40.0728419" lon="-105.2305749">
  <ele>1587.42</ele>
  <time>2026-08-28T19:12:49Z</time>
  <course>11.38</course>
  <speed>0.0</speed>
  <fix>3d</fix>
</trkpt>
<trkpt lat="40.072842" lon="-105.230575">
  <ele>1587.11</ele>
  <time>2026-08-28T19:12:49Z</time>
  <course>316.58</course>
  <speed>0.02</speed>
  <fix>3d</fix>
</trkpt>
<trkpt lat="40.0728419" lon="-105.2305749">
  <ele>1587.45</ele>
  <time>2026-08-28T19:12:49Z</time>
  <course>11.38</course>
  <speed>0.0</speed>
  <fix>3d</fix>
</trkpt>
<trkpt lat="40.0728419" lon="-105.2305749">
  <ele>1587.74</ele>
  <time>2026-08-28T19:12:49Z</time>
  <course>11.38</course>
  <speed>0.0</speed>
  <fix>3d</fix>
</trkpt>
<trkpt lat="40.072842" lon="-105.2305751">
  <ele>1587.4</ele>
  <time>2026-08-28T19:12:49Z</time>
  <course>317.91</course>
  <speed>0.02</speed>
  <fix>3d</fix>
</trkpt>
<trkpt lat="40.0728419" lon="-105.2305749">
  <ele>1587.79</ele>
  <time>2026-08-28T19:12:49Z</time>
  <course>11.38</course>
  <speed>0.0</speed>
  <fix>3d</fix>
</trkpt>
<trkpt lat="40.0728419" lon="-105.230575">
  <ele>1588.12</ele>
  <time>2026-08-28T19:12:49Z</time>
  <course>11.37</course>
  <speed>0.0</speed>
  <fix>3d</fix>
</trkpt>
<trkpt lat="40.072842" lon="-105.2305751">
  <ele>1587.74</ele>
  <time>2026-08-28T19:12:49Z</time>
  <course>318.01</course>
  <speed>0.02</speed>
  <fix>3d</fix>
</trkpt>
<trkpt lat="40.0728419" lon="-105.230575">
  <ele>1588.16</ele>
  <time>2026-08-28T19:12:49Z</time>
  <course>11.37</course>
  <speed>0.0</speed>
  <fix>3d</fix>
</trkpt>
<trkpt lat="40.072842" lon="-105.230575">
  <ele>1588.53</ele>
  <time>2026-08-28T19:12:49Z</time>
  <course>11.37</course>
  <speed>0.0</speed>
  <fix>3d</fix>
</trkpt>
<trkpt lat="40.072842" lon="-105.2305751">
  <ele>1588.11</ele>
  <time>2026-08-28T19:12:49Z</time>
  <course>318.43</course>
  <speed>0.01</speed>
  <fix>3d</fix>
</trkpt>
<trkpt lat="40.072842" lon="-105.230575">
  <ele>1588.59</ele>
  <time>2026-08-28T19:12:49Z</time>
  <course>11.37</course>
  <speed>0.0</speed>
  <fix>3d</fix>
</trkpt>
<trkpt lat="40.072842" lon="-105.230575">
  <ele>1588.99</ele>
  <time>2026-08-28T19:12:49Z</time>
  <course>10.04</course>
  <speed>0.0</speed>
  <fix>3d</fix>
</trkpt>
<trkpt lat="40.072842" lon="-105.2305751">
  <ele>1588.53</ele>
  <time>2026-08-28T19:12:49Z</time>
  <course>321.02</course>
  <speed>0.01</speed>
  <fix>3d</fix>
</trkpt>
<trkpt lat="40.072842" lon="-105.230575">
  <ele>1589.04</ele>
  <time>2026-08-28T19:12:49Z</time>
  <course>10.04</course>
  <speed>0.0</speed>
  <fix>3d</fix>
</trkpt>
<trkpt lat="40.072842" lon="-105.230575">
  <ele>1589.48</ele>
  <time>2026-08-28T19:12:49Z</time>
  <course>10.04</course>
  <speed>0.01</speed>
  <fix>3d</fix>
</trkpt>
<trkpt lat="40.0728421" lon="-105.2305751">
  <ele>1588.99</ele>
  <time>2026-08-28T19:12:49Z</time>
  <course>324.05</course>
  <speed>0.01</speed>
  <fix>3d</fix>
</trkpt>
<trkpt lat="40.072842" lon="-105.230575">
  <ele>1589.53</ele>
  <time>2026-08-28T19:12:49Z</time>
  <course>10.05</course>
  <speed>0.01</speed>
  <fix>3d</fix>
</trkpt>
<trkpt lat="40.072842" lon="-105.230575">
  <ele>1589.98</ele>
  <time>2026-08-28T19:12:49Z</time>
  <course>10.05</course>
  <speed>0.01</speed>
  <fix>3d</fix>
</trkpt>
<trkpt lat="40.0728421" lon="-105.2305751">
  <ele>1589.47</ele>
  <time>2026-08-28T19:12:49Z</time>
  <course>327.96</course>
  <speed>0.01</speed>
  <fix>3d</fix>
</trkpt>
<trkpt lat="40.072842" lon="-105.230575">
  <ele>1590.03</ele>
  <time>2026-08-28T19:12:49Z</time>
  <course>10.05</course>
  <speed>0.01414213562373095</speed>
  <fix>3d</fix>
</trkpt>
<trkpt lat="40.072842" lon="-105.230575">
  <ele>1590.48</ele>
  <time>2026-08-28T19:12:49Z</time>
  <course>10.05</course>
  <speed>0.01414213562373095</speed>
  <fix>3d</fix>
</trkpt>
<trkpt lat="40.0728421" lon="-105.2305751">
  <ele>1589.97</ele>
  <time>2026-08-28T19:12:49Z</time>
  <course>332.95</course>
  <speed>0.01</speed>
  <fix>3d</fix>
</trkpt>
<trkpt lat="40.072842" lon="-105.230575">
  <ele>1590.54</ele>
  <time>2026-08-28T19:12:49Z</time>
  <course>10.05</course>
  <speed>0.01414213562373095</speed>
  <fix>3d</fix>
</trkpt>
<trkpt lat="40.072842" lon="-105.230575">
  <ele>1590.98</ele>
  <time>2026-08-28T19:12:49Z</time>
  <course>10.05</course>
  <speed>0.01414213562373095</speed>
  <fix>3d</fix>
</trkpt>
<trkpt lat="40.0728421" lon="-105.2305752">
  <ele>1590.47</ele>
  <time>2026-08-28T19:12:49Z</time>
  <course>337.49</course>
  <speed>0.01</speed>
  <fix>3d</fix>
</trkpt>
<trkpt lat="40.072842" lon="-105.230575">
  <ele>1591.04</ele>
  <time>2026-08-28T19:12:49Z</time>
  <course>10.05</course>
  <speed>0.01414213562373095</speed>
  <fix>3d</fix>
</trkpt>
<trkpt lat="40.072842" lon="-105.230575">
  <ele>1591.48</ele>
  <time>2026-08-28T19:12:49Z</time>
  <course>10.05</course>
  <speed>0.01414213562373095</speed>
  <fix>3d</fix>
</trkpt>
<trkpt lat="40.0728421" lon="-105.2305753">
  <ele>1590.96</ele>
  <time>2026-08-28T19:12:49Z</time>
  <course>341.69</course>
  <speed>0.0</speed>
  <fix>3d</fix>
</trkpt>
<trkpt lat="40.072842" lon="-105.230575">
  <ele>1591.54</ele>
  <time>2026-08-28T19:12:49Z</time>
  <course>10.05</course>
  <speed>0.01414213562373095</speed>
  <fix>3d</fix>
</trkpt>
<trkpt lat="40.072842" lon="-105.230575">
  <ele>1591.98</ele>
  <time>2026-08-28T19:12:49Z</time>
  <course>10.05</course>
  <speed>0.01414213562373095</speed>
  <fix>3d</fix>
</trkpt>
<trkpt lat="40.0728422" lon="-105.2305753">
  <ele>1591.46</ele>
  <time>2026-08-28T19:12:49Z</time>
  <course>349.36</course>
  <speed>0.0</speed>
  <fix>3d</fix>
</trkpt>
<trkpt lat="40.072842" lon="-105.230575">
  <ele>1592.03</ele>
  <time>2026-08-28T19:12:49Z</time>
  <course>10.05</course>
  <speed>0.01414213562373095</speed>
  <fix>3d</fix>
</trkpt>
<trkpt lat="40.072842" lon="-105.230575">
  <ele>1592.48</ele>
  <time>2026-08-28T19:12:49Z</time>
  <course>10.05</course>
  <speed>0.01414213562373095</speed>
  <fix>3d</fix>
</trkpt>
<trkpt lat="40.0728423" lon="-105.2305753">
  <ele>1591.95</ele>
  <time>2026-08-28T19:12:49Z</time>
  <course>8.33</course>
  <speed>0.0</speed>
  <fix>3d</fix>
</trkpt>
<trkpt lat="40.072842" lon="-105.230575">
  <ele>1592.54</ele>
  <time>2026-08-28T19:12:49Z</time>
  <course>10.05</course>
  <speed>0.01414213562373095</speed>
  <fix>3d</fix>
</trkpt>
<trkpt lat="40.072842" lon="-105.230575">
  <ele>1592.98</ele>
  <time>2026-08-28T19:12:49Z</time>
  <course>10.05</course>
  <speed>0.01414213562373095</speed>
  <fix>3d</fix>
</trkpt>
<trkpt lat="40.0728423" lon="-105.2305753">
  <ele>1592.44</ele>
  <time>2026-08-28T19:12:49Z</time>
  <course>45.12</course>
  <speed>0.0</speed>
  <fix>3d</fix>
</trkpt>
<trkpt lat="40.072842" lon="-105.230575">
  <ele>1593.04</ele>
  <time>2026-08-28T19:12:49Z</time>
  <course>10.05</course>
  <speed>0.01414213562373095</speed>
  <fix>3d</fix>
</trkpt>
<trkpt lat="40.072842" lon="-105.2305751">
  <ele>1593.49</ele>
  <time>2026-08-28T19:12:49Z</time>
  <course>10.05</course>
  <speed>0.01414213562373095</speed>
  <fix>3d</fix>
</trkpt>
<trkpt lat="40.0728423" lon="-105.2305753">
  <ele>1592.94</ele>
  <time>2026-08-28T19:12:49Z</time>
  <course>84.06</course>
  <speed>0.0</speed>
  <fix>3d</fix>
</trkpt>
<trkpt lat="40.072842" lon="-105.2305751">
  <ele>1593.54</ele>
  <time>2026-08-28T19:12:49Z</time>
  <course>10.05</course>
  <speed>0.01414213562373095</speed>
  <fix>3d</fix>
</trkpt>
<trkpt lat="40.072842" lon="-105.2305751">
  <ele>1593.99</ele>
  <time>2026-08-28T19:12:49Z</time>
  <course>10.05</course>
  <speed>0.01414213562373095</speed>
  <fix>3d</fix>
</trkpt>
<trkpt lat="40.0728423" lon="-105.2305753">
  <ele>1593.43</ele>
  <time>2026-08-28T19:12:49Z</time>
  <course>106.48</course>
  <speed>0.0</speed>
  <fix>3d</fix>
</trkpt>
<trkpt lat="40.072842" lon="-105.2305751">
  <ele>1594.04</ele>
  <time>2026-08-28T19:12:49Z</time>
  <course>10.05</course>
  <speed>0.01414213562373095</speed>
  <fix>3d</fix>
</trkpt>
<trkpt lat="40.072842" lon="-105.2305751">
  <ele>1594.48</ele>
  <time>2026-08-28T19:12:49Z</time>
  <course>10.05</course>
  <speed>0.022360679774997897</speed>
  <fix>3d</fix>
</trkpt>
<trkpt lat="40.0728423" lon="-105.2305753">
  <ele>1593.92</ele>
  <time>2026-08-28T19:12:49Z</time>
  <course>116.93</course>
  <speed>0.01</speed>
  <fix>3d</fix>
</trkpt>
<trkpt lat="40.072842" lon="-105.2305751">
  <ele>1594.52</ele>
  <time>2026-08-28T19:12:49Z</time>
  <course>10.05</course>
  <speed>0.022360679774997897</speed>
  <fix>3d</fix>
</trkpt>
<trkpt lat="40.072842" lon="-105.2305751">
  <ele>1594.97</ele>
  <time>2026-08-28T19:12:49Z</time>
  <course>10.05</course>
  <speed>0.022360679774997897</speed>
  <fix>3d</fix>
</trkpt>
<trkpt lat="40.0728423" lon="-105.2305753">
  <ele>1594.41</ele>
  <time>2026-08-28T19:12:49Z</time>
  <course>122.67</course>
  <speed>0.01</speed>
  <fix>3d</fix>
</trkpt>
<trkpt lat="40.072842" lon="-105.2305751">
  <ele>1595.03</ele>
  <time>2026-08-28T19:12:49Z</time>
  <course>10.05</course>
  <speed>0.022360679774997897</speed>
  <fix>3d</fix>
</trkpt>
<trkpt lat="40.072842" lon="-105.2305751">
  <ele>1595.46</ele>
  <time>2026-08-28T19:12:49Z</time>
  <course>10.05</course>
  <speed>0.0282842712474619</speed>
  <fix>3d</fix>
</trkpt>
<trkpt lat="40.0728423" lon="-105.2305752">
  <ele>1594.9</ele>
  <time>2026-08-28T19:12:49Z</time>
  <course>125.81</course>
  <speed>0.02</speed>
  <fix>3d</fix>
</trkpt>
<trkpt lat="40.072842" lon="-105.2305751">
  <ele>1595.52</ele>
  <time>2026-08-28T19:12:49Z</time>
  <course>10.05</course>
  <speed>0.0282842712474619</speed>
  <fix>3d</fix>
</trkpt>
<trkpt lat="40.0728421" lon="-105.2305751">
  <ele>1595.96</ele>
  <time>2026-08-28T19:12:49Z</time>
  <course>10.05</course>
  <speed>0.0282842712474619</speed>
  <fix>3d</fix>
</trkpt>
<trkpt lat="40.0728423" lon="-105.2305751">
  <ele>1595.4</ele>
  <time>2026-08-28T19:12:49Z</time>
  <course>129.23</course>
  <speed>0.02</speed>
  <fix>3d</fix>
</trkpt>
<trkpt lat="40.0728421" lon="-105.2305751">
  <ele>1596.01</ele>
  <time>2026-08-28T19:12:49Z</time>
  <course>10.05</course>
  <speed>0.0282842712474619</speed>
  <fix>3d</fix>
</trkpt>
<trkpt lat="40.0728421" lon="-105.230575">
  <ele>1596.45</ele>
  <time>2026-08-28T19:12:49Z</time>
  <course>10.05</course>
  <speed>0.0282842712474619</speed>
  <fix>3d</fix>
</trkpt>
<trkpt lat="40.0728422" lon="-105.2305751">
  <ele>1595.89</ele>
  <time>2026-08-28T19:12:49Z</time>
  <course>133.51</course>
  <speed>0.02</speed>
  <fix>3d</fix>
</trkpt>
<trkpt lat="40.0728421" lon="-105.230575">
  <ele>1596.51</ele>
  <time>2026-08-28T19:12:49Z</time>
  <course>10.05</course>
  <speed>0.0282842712474619</speed>
  <fix>3d</fix>
</trkpt>
<trkpt lat="40.0728421" lon="-105.230575">
  <ele>1596.95</ele>
  <time>2026-08-28T19:12:49Z</time>
  <course>10.05</course>
  <speed>0.022360679774997897</speed>
  <fix>3d</fix>
</trkpt>
<trkpt lat="40.0728421" lon="-105.2305751">
  <ele>1596.39</ele>
  <time>2026-08-28T19:12:49Z</time>
  <course>137.17</course>
  <speed>0.03</speed>
  <fix>3d</fix>
</trkpt>
<trkpt lat="40.0728421" lon="-105.230575">
  <ele>1597.01</ele>
  <time>2026-08-28T19:12:49Z</time>
  <course>10.05</course>
  <speed>0.022360679774997897</speed>
  <fix>3d</fix>
</trkpt>
<trkpt lat="40.0728421" lon="-105.230575">
  <ele>1597.45</ele>
  <time>2026-08-28T19:12:49Z</time>
  <course>10.05</course>
  <speed>0.022360679774997897</speed>
  <fix>3d</fix>
</trkpt>
<trkpt lat="40.0728421" lon="-105.230575">
  <ele>1596.89</ele>
  <time>2026-08-28T19:12:49Z</time>
  <course>140.52</course>
  <speed>0.03</speed>
  <fix>3d</fix>
</trkpt>
<trkpt lat="40.0728421" lon="-105.230575">
  <ele>1597.5</ele>
  <time>2026-08-28T19:12:49Z</time>
  <course>10.05</course>
  <speed>0.022360679774997897</speed>
  <fix>3d</fix>
</trkpt>
<trkpt lat="40.072842" lon="-105.2305749">
  <ele>1597.95</ele>
  <time>2026-08-28T19:12:49Z</time>
  <course>10.05</course>
  <speed>0.022360679774997897</speed>
  <fix>3d</fix>
</trkpt>
<trkpt lat="40.0728421" lon="-105.230575">
  <ele>1597.38</ele>
  <time>2026-08-28T19:12:49Z</time>
  <course>143.04</course>
  <speed>0.03</speed>
  <fix>3d</fix>
</trkpt>
<trkpt lat="40.072842" lon="-105.2305749">
  <ele>1598.01</ele>
  <time>2026-08-28T19:12:49Z</time>
  <course>10.05</course>
  <speed>0.022360679774997897</speed>
  <fix>3d</fix>
</trkpt>
<trkpt lat="40.072842" lon="-105.2305749">
  <ele>1598.44</ele>
  <time>2026-08-28T19:12:49Z</time>
  <course>10.05</course>
  <speed>0.022360679774997897</speed>
  <fix>3d</fix>
</trkpt>
<trkpt lat="40.072842" lon="-105.2305749">
  <ele>1597.88</ele>
  <time>2026-08-28T19:12:49Z</time>
  <course>145.79</course>
  <speed>0.03</speed>
  <fix>3d</fix>
</trkpt>
<trkpt lat="40.072842" lon="-105.2305749">
  <ele>1598.5</ele>
  <time>2026-08-28T19:12:49Z</time>
  <course>10.05</course>
  <speed>0.022360679774997897</speed>
  <fix>3d</fix>
</trkpt>
<trkpt lat="40.072842" lon="-105.2305749">
  <ele>1598.94</ele>
  <time>2026-08-28T19:12:49Z</time>
  <course>10.05</course>
  <speed>0.022360679774997897</speed>
  <fix>3d</fix>
</trkpt>
<trkpt lat="40.072842" lon="-105.2305748">
  <ele>1598.38</ele>
  <time>2026-08-28T19:12:49Z</time>
  <course>149.66</course>
  <speed>0.03</speed>
  <fix>3d</fix>
</trkpt>
<trkpt lat="40.072842" lon="-105.2305749">
  <ele>1598.99</ele>
  <time>2026-08-28T19:12:49Z</time>
  <course>10.05</course>
  <speed>0.022360679774997897</speed>
  <fix>3d</fix>
</trkpt>
<trkpt lat="40.0728419" lon="-105.2305748">
  <ele>1599.44</ele>
  <time>2026-08-28T19:12:49Z</time>
  <course>10.05</course>
  <speed>0.022360679774997897</speed>
  <fix>3d</fix>
</trkpt>
<trkpt lat="40.072842" lon="-105.2305748">
  <ele>1598.88</ele>
  <time>2026-08-28T19:12:49Z</time>
  <course>153.91</course>
  <speed>0.02</speed>
  <fix>3d</fix>
</trkpt>
<trkpt lat="40.0728419" lon="-105.2305748">
  <ele>1599.49</ele>
  <time>2026-08-28T19:12:49Z</time>
  <course>10.05</course>
  <speed>0.022360679774997897</speed>
  <fix>3d</fix>
</trkpt>
<trkpt lat="40.0728419" lon="-105.2305748">
  <ele>1599.94</ele>
  <time>2026-08-28T19:12:49Z</time>
  <course>10.05</course>
  <speed>0.022360679774997897</speed>
  <fix>3d</fix>
</trkpt>
<trkpt lat="40.0728419" lon="-105.2305748">
  <ele>1599.38</ele>
  <time>2026-08-28T19:12:49Z</time>
  <course>158.91</course>
  <speed>0.02</speed>
  <fix>3d</fix>
</trkpt>
<trkpt lat="40.0728419" lon="-105.2305748">
  <ele>1600.0</ele>
  <time>2026-08-28T19:12:49Z</time>
  <course>10.05</course>
  <speed>0.022360679774997897</speed>
  <fix>3d</fix>
</trkpt>
<trkpt lat="40.0728419" lon="-105.2305748">
  <ele>1600.44</ele>
  <time>2026-08-28T19:12:49Z</time>
  <course>10.05</course>
  <speed>0.01</speed>
  <fix>3d</fix>
</trkpt>
<trkpt lat="40.0728419" lon="-105.2305748">
  <ele>1599.88</ele>
  <time>2026-08-28T19:12:49Z</time>
  <course>165.58</course>
  <speed>0.02</speed>
  <fix>3d</fix>
</trkpt>
<trkpt lat="40.0728419" lon="-105.2305748">
  <ele>1600.5</ele>
  <time>2026-08-28T19:12:49Z</time>
  <course>10.05</course>
  <speed>0.01</speed>
  <fix>3d</fix>
</trkpt>
<trkpt lat="40.0728418" lon="-105.2305748">
  <ele>1600.95</ele>
  <time>2026-08-28T19:12:49Z</time>
  <course>10.05</course>
  <speed>0.01</speed>
  <fix>3d</fix>
</trkpt>
<trkpt lat="40.0728419" lon="-105.2305748">
  <ele>1600.39</ele>
  <time>2026-08-28T19:12:49Z</time>
  <course>174.07</course>
  <speed>0.01</speed>
  <fix>3d</fix>
</trkpt>
<trkpt lat="40.0728418" lon="-105.2305748">
  <ele>1601.0</ele>
  <time>2026-08-28T19:12:49Z</time>
  <course>10.05</course>
  <speed>0.01</speed>
  <fix>3d</fix>
</trkpt>
<trkpt lat="40.0728418" lon="-105.2305748">
  <ele>1601.45</ele>
  <time>2026-08-28T19:12:49Z</time>
  <course>10.05</course>
  <speed>0.01</speed>
  <fix>3d</fix>
</trkpt>
<trkpt lat="40.0728418" lon="-105.2305748">
  <ele>1600.89</ele>
  <time>2026-08-28T19:12:49Z</time>
  <course>184.46</course>
  <speed>0.01</speed>
  <fix>3d</fix>
</trkpt>
<trkpt lat="40.0728418" lon="-105.2305748">
  <ele>1601.5</ele>
  <time>2026-08-28T19:12:49Z</time>
  <course>10.05</course>
  <speed>0.01</speed>
  <fix>3d</fix>
</trkpt>
<trkpt lat="40.0728418" lon="-105.2305748">
  <ele>1601.95</ele>
  <time>2026-08-28T19:12:50Z</time>
  <course>10.05</course>
  <speed>0.01</speed>
  <fix>3d</fix>
</trkpt>
<trkpt lat="40.0728418" lon="-105.2305748">
  <ele>1601.39</ele>
  <time>2026-08-28T19:12:50Z</time>
  <course>197.27</course>
  <speed>0.01</speed>
  <fix>3d</fix>
</trkpt>
<trkpt lat="40.0728418" lon="-105.2305748">
  <ele>1602.01</ele>
  <time>2026-08-28T19:12:50Z</time>
  <course>10.05</course>
  <speed>0.01</speed>
  <fix>3d</fix>
</trkpt>
<trkpt lat="40.0728418" lon="-105.2305748">
  <ele>1602.45</ele>
  <time>2026-08-28T19:12:50Z</time>
  <course>10.05</course>
  <speed>0.01</speed>
  <fix>3d</fix>
</trkpt>
<trkpt lat="40.0728418" lon="-105.2305748">
  <ele>1601.89</ele>
  <time>2026-08-28T19:12:50Z</time>
  <course>213.13</course>
  <speed>0.01</speed>
  <fix>3d</fix>
</trkpt>
<trkpt lat="40.0728418" lon="-105.2305748">
  <ele>1602.51</ele>
  <time>2026-08-28T19:12:50Z</time>
  <course>10.05</course>
  <speed>0.0</speed>
  <fix>3d</fix>
</trkpt>
<trkpt lat="40.0728418" lon="-105.2305748">
  <ele>1602.95</ele>
  <time>2026-08-28T19:12:50Z</time>
  <course>10.05</course>
  <speed>0.0</speed>
  <fix>3d</fix>
</trkpt>
<trkpt lat="40.0728418" lon="-105.2305748">
  <ele>1602.38</ele>
  <time>2026-08-28T19:12:50Z</time>
  <course>232.26</course>
  <speed>0.01</speed>
  <fix>3d</fix>
</trkpt>
<trkpt lat="40.0728418" lon="-105.2305748">
  <ele>1603.0</ele>
  <time>2026-08-28T19:12:50Z</time>
  <course>10.05</course>
  <speed>0.0</speed>
  <fix>3d</fix>
</trkpt>
<trkpt lat="40.0728418" lon="-105.2305748">
  <ele>1603.43</ele>
  <time>2026-08-28T19:12:50Z</time>
  <course>10.04</course>
  <speed>0.0</speed>
  <fix>3d</fix>
</trkpt>
<trkpt lat="40.0728418" lon="-105.2305748">
  <ele>1602.87</ele>
  <time>2026-08-28T19:12:50Z</time>
  <course>251.0</course>
  <speed>0.01</speed>
  <fix>3d</fix>
</trkpt>
<trkpt lat="40.0728418" lon="-105.2305748">
  <ele>1603.49</ele>
  <time>2026-08-28T19:12:50Z</time>
  <course>10.04</course>
  <speed>0.0</speed>
  <fix>3d</fix>
</trkpt>
<trkpt lat="40.0728418" lon="-105.2305748">
  <ele>1603.88</ele>
  <time>2026-08-28T19:12:50Z</time>
  <course>10.04</course>
  <speed>0.0</speed>
  <fix>3d</fix>
</trkpt>
<trkpt lat="40.0728418" lon="-105.2305748">
  <ele>1603.35</ele>
  <time>2026-08-28T19:12:50Z</time>
  <course>265.61</course>
  <speed>0.01</speed>
  <fix>3d</fix>
</trkpt>
<trkpt lat="40.0728418" lon="-105.2305748">
  <ele>1603.93</ele>
  <time>2026-08-28T19:12:50Z</time>
  <course>10.04</course>
  <speed>0.0</speed>
  <fix>3d</fix>
</trkpt>
<trkpt lat="40.0728418" lon="-105.2305748">
  <ele>1604.29</ele>
  <time>2026-08-28T19:12:50Z</time>
  <course>10.04</course>
  <speed>0.0</speed>
  <fix>3d</fix>
</trkpt>
<trkpt lat="40.0728418" lon="-105.2305748">
  <ele>1603.79</ele>
  <time>2026-08-28T19:12:50Z</time>
  <course>276.91</course>
  <speed>0.01</speed>
  <fix>3d</fix>
</trkpt>
<trkpt lat="40.0728418" lon="-105.2305748">
  <ele>1604.34</ele>
  <time>2026-08-28T19:12:50Z</time>
  <course>10.04</course>
  <speed>0.0</speed>
  <fix>3d</fix>
</trkpt>
<trkpt lat="40.0728418" lon="-105.2305748">
  <ele>1604.66</ele>
  <time>2026-08-28T19:12:50Z</time>
  <course>10.04</course>
  <speed>0.0</speed>
  <fix>3d</fix>
</trkpt>
<trkpt lat="40.0728418" lon="-105.2305748">
  <ele>1604.19</ele>
  <time>2026-08-28T19:12:50Z</time>
  <course>285.16</course>
  <speed>0.01</speed>
  <fix>3d</fix>
</trkpt>
<trkpt lat="40.0728418" lon="-105.2305748">
  <ele>1604.7</ele>
  <time>2026-08-28T19:12:50Z</time>
  <course>10.04</course>
  <speed>0.0</speed>
  <fix>3d</fix>
</trkpt>
<trkpt lat="40.0728418" lon="-105.2305748">
  <ele>1604.99</ele>
  <time>2026-08-28T19:12:50Z</time>
  <course>10.04</course>
  <speed>0.0</speed>
  <fix>3d</fix>
</trkpt>
<trkpt lat="40.0728418" lon="-105.2305748">
  <ele>1604.54</ele>
  <time>2026-08-28T19:12:50Z</time>
  <course>291.87</course>
  <speed>0.01</speed>
  <fix>3d</fix>
</trkpt>
<trkpt lat="40.0728418" lon="-105.2305748">
  <ele>1605.02</ele>
  <time>2026-08-28T19:12:50Z</time>
  <course>10.04</course>
  <speed>0.0</speed>
  <fix>3d</fix>
</trkpt>
<trkpt lat="40.0728418" lon="-105.2305748">
  <ele>1605.27</ele>
  <time>2026-08-28T19:12:50Z</time>
  <course>10.04</course>
  <speed>0.0</speed>
  <fix>3d</fix>
</trkpt>
<trkpt lat="40.0728418" lon="-105.2305749">
  <ele>1604.86</ele>
  <time>2026-08-28T19:12:50Z</time>
  <course>297.9</course>
  <speed>0.01</speed>
  <fix>3d</fix>
</trkpt>
<trkpt lat="40.0728418" lon="-105.2305748">
  <ele>1605.31</ele>
  <time>2026-08-28T19:12:50Z</time>
  <course>10.04</course>
  <speed>0.0</speed>
  <fix>3d</fix>
</trkpt>
<trkpt lat="40.0728418" lon="-105.2305748">
  <ele>1605.52</ele>
  <time>2026-08-28T19:12:50Z</time>
  <course>10.04</course>
  <speed>0.0</speed>
  <fix>3d</fix>
</trkpt>
<trkpt lat="40.0728418" lon="-105.230575">
  <ele>1605.13</ele>
  <time>2026-08-28T19:12:50Z</time>
  <course>302.37</course>
  <speed>0.01</speed>
  <fix>3d</fix>
</trkpt>
<trkpt lat="40.0728418" lon="-105.2305749">
  <ele>1605.72</ele>
  <time>2026-08-28T19:12:50Z</time>
  <course>10.04</course>
  <speed>0.0</speed>
  <fix>3d</fix>
</trkpt>
<trkpt lat="40.0728418" lon="-105.230575">
  <ele>1605.36</ele>
  <time>2026-08-28T19:12:50Z</time>
  <course>306.65</course>
  <speed>0.01</speed>
  <fix>3d</fix>
</trkpt>
<trkpt lat="40.0728418" lon="-105.2305749">
  <ele>1605.74</ele>
  <time>2026-08-28T19:12:50Z</time>
  <course>10.04</course>
  <speed>0.0</speed>
  <fix>3d</fix>
</trkpt>
<trkpt lat="40.0728418" lon="-105.2305749">
  <ele>1605.88</ele>
  <time>2026-08-28T19:12:50Z</time>
  <course>10.04</course>
  <speed>0.0</speed>
  <fix>3d</fix>
</trkpt>
<trkpt lat="40.0728418" lon="-105.230575">
  <ele>1605.55</ele>
  <time>2026-08-28T19:12:50Z</time>
  <course>310.88</course>
  <speed>0.01</speed>
  <fix>3d</fix>
</trkpt>
<trkpt lat="40.0728418" lon="-105.2305749">
  <ele>1606.0</ele>
  <time>2026-08-28T19:12:50Z</time>
  <course>10.04</course>
  <speed>0.0</speed>
  <fix>3d</fix>
</trkpt>
<trkpt lat="40.0728418" lon="-105.2305751">
  <ele>1605.71</ele>
  <time>2026-08-28T19:12:50Z</time>
  <course>314.71</course>
  <speed>0.02</speed>
  <fix>3d</fix>
</trkpt>
<trkpt lat="40.0728418" lon="-105.2305749">
  <ele>1606.08</ele>
  <time>2026-08-28T19:12:50Z</time>
  <course>10.03</course>
  <speed>0.0</speed>
  <fix>3d</fix>
</trkpt>
<trkpt lat="40.0728418" lon="-105.2305751">
  <ele>1605.82</ele>
  <time>2026-08-28T19:12:50Z</time>
  <course>319.08</course>
  <speed>0.02</speed>
  <fix>3d</fix>
</trkpt>
<trkpt lat="40.0728418" lon="-105.230575">
  <ele>1606.12</ele>
  <time>2026-08-28T19:12:50Z</time>
  <course>10.03</course>
  <speed>0.0</speed>
  <fix>3d</fix>
</trkpt>
<trkpt lat="40.0728418" lon="-105.2305751">
  <ele>1605.89</ele>
  <time>2026-08-28T19:12:50Z</time>
  <course>324.04</course>
  <speed>0.02</speed>
  <fix>3d</fix>
</trkpt>
<trkpt lat="40.0728418" lon="-105.230575">
  <ele>1606.12</ele>
  <time>2026-08-28T19:12:50Z</time>
  <course>10.04</course>
  <speed>0.0</speed>
  <fix>3d</fix>
</trkpt>
<trkpt lat="40.0728418" lon="-105.2305751">
  <ele>1605.92</ele>
  <time>2026-08-28T19:12:50Z</time>
  <course>328.56</course>
  <speed>0.02</speed>
  <fix>3d</fix>
</trkpt>
<trkpt lat="40.0728418" lon="-105.230575">
  <ele>1606.13</ele>
  <time>2026-08-28T19:12:50Z</time>
  <course>10.04</course>
  <speed>0.0</speed>
  <fix>3d</fix>
</trkpt>
<trkpt lat="40.0728419" lon="-105.2305751">
  <ele>1605.94</ele>
  <time>2026-08-28T19:12:50Z</time>
  <course>332.26</course>
  <speed>0.02</speed>
  <fix>3d</fix>
</trkpt>
<trkpt lat="40.0728418" lon="-105.230575">
  <ele>1606.12</ele>
  <time>2026-08-28T19:12:50Z</time>
  <course>10.04</course>
  <speed>0.0</speed>
  <fix>3d</fix>
</trkpt>
<trkpt lat="40.0728419" lon="-105.2305751">
  <ele>1605.95</ele>
  <time>2026-08-28T19:12:50Z</time>
  <course>332.41</course>
  <speed>0.02</speed>
  <fix>3d</fix>
</trkpt>
<trkpt lat="40.0728419" lon="-105.230575">
  <ele>1606.12</ele>
  <time>2026-08-28T19:12:50Z</time>
  <course>10.04</course>
  <speed>0.0</speed>
  <fix>3d</fix>
</trkpt>
<trkpt lat="40.072842" lon="-105.2305752">
  <ele>1605.95</ele>
  <time>2026-08-28T19:12:50Z</time>
  <course>329.21</course>
  <speed>0.02</speed>
  <fix>3d</fix>
</trkpt>
<trkpt lat="40.0728419" lon="-105.2305751">
  <ele>1606.12</ele>
  <time>2026-08-28T19:12:50Z</time>
  <course>10.04</course>
  <speed>0.0</speed>
  <fix>3d</fix>
</trkpt>
<trkpt lat="40.072842" lon="-105.2305753">
  <ele>1605.95</ele>
  <time>2026-08-28T19:12:50Z</time>
  <course>326.38</course>
  <speed>0.03</speed>
  <fix>3d</fix>
</trkpt>
<trkpt lat="40.0728419" lon="-105.2305751">
  <ele>1606.13</ele>
  <time>2026-08-28T19:12:50Z</time>
  <course>10.04</course>
  <speed>0.0</speed>
  <fix>3d</fix>
</trkpt>
<trkpt lat="40.072842" lon="-105.2305753">
  <ele>1605.95</ele>
  <time>2026-08-28T19:12:50Z</time>
  <course>324.31</course>
  <speed>0.03</speed>
  <fix>3d</fix>
</trkpt>
<trkpt lat="40.072842" lon="-105.2305752">
  <ele>1606.13</ele>
  <time>2026-08-28T19:12:50Z</time>
  <course>10.04</course>
  <speed>0.01</speed>
  <fix>3d</fix>
</trkpt>
<trkpt lat="40.0728421" lon="-105.2305753">
  <ele>1605.96</ele>
  <time>2026-08-28T19:12:50Z</time>
  <course>322.84</course>
  <speed>0.04</speed>
  <fix>3d</fix>
</trkpt>
<trkpt lat="40.072842" lon="-105.2305752">
  <ele>1606.13</ele>
  <time>2026-08-28T19:12:50Z</time>
  <course>10.04</course>
  <speed>0.01</speed>
  <fix>3d</fix>
</trkpt>
<trkpt lat="40.072842" lon="-105.2305752">
  <ele>1606.13</ele>
  <time>2026-08-28T19:12:50Z</time>
  <course>10.04</course>
  <speed>0.01414213562373095</speed>
  <fix>3d</fix>
</trkpt>
<trkpt lat="40.0728421" lon="-105.2305754">
  <ele>1605.97</ele>
  <time>2026-08-28T19:12:50Z</time>
  <course>321.62</course>
  <speed>0.04</speed>
  <fix>3d</fix>
</trkpt>
<trkpt lat="40.0728421" lon="-105.2305753">
  <ele>1606.13</ele>
  <time>2026-08-28T19:12:50Z</time>
  <course>10.05</course>
  <speed>0.01414213562373095</speed>
  <fix>3d</fix>
</trkpt>
<trkpt lat="40.0728422" lon="-105.2305755">
  <ele>1605.97</ele>
  <time>2026-08-28T19:12:50Z</time>
  <course>320.36</course>
  <speed>0.05</speed>
  <fix>3d</fix>
</trkpt>
<trkpt lat="40.0728422" lon="-105.2305754">
  <ele>1606.13</ele>
  <time>2026-08-28T19:12:50Z</time>
  <course>10.05</course>
  <speed>0.01414213562373095</speed>
  <fix>3d</fix>
</trkpt>
<trkpt lat="40.0728423" lon="-105.2305756">
  <ele>1605.98</ele>
  <time>2026-08-28T19:12:50Z</time>
  <course>319.26</course>
  <speed>0.05</speed>
  <fix>3d</fix>
</trkpt>
<trkpt lat="40.0728422" lon="-105.2305755">
  <ele>1606.13</ele>
  <time>2026-08-28T19:12:50Z</time>
  <course>10.06</course>
  <speed>0.022360679774997897</speed>
  <fix>3d</fix>
</trkpt>
<trkpt lat="40.0728424" lon="-105.2305757">
  <ele>1605.99</ele>
  <time>2026-08-28T19:12:50Z</time>
  <course>318.42</course>
  <speed>0.06</speed>
  <fix>3d</fix>
</trkpt>
<trkpt lat="40.0728423" lon="-105.2305756">
  <ele>1606.14</ele>
  <time>2026-08-28T19:12:50Z</time>
  <course>10.05</course>
  <speed>0.0282842712474619</speed>
  <fix>3d</fix>
</trkpt>
<trkpt lat="40.0728425" lon="-105.2305758">
  <ele>1606.0</ele>
  <time>2026-08-28T19:12:50Z</time>
  <course>318.13</course>
  <speed>0.06</speed>
  <fix>3d</fix>
</trkpt>
<trkpt lat="40.0728424" lon="-105.2305757">
  <ele>1606.14</ele>
  <time>2026-08-28T19:12:50Z</time>
  <course>10.04</course>
  <speed>0.0282842712474619</speed>
  <fix>3d</fix>
</trkpt>
<trkpt lat="40.0728426" lon="-105.2305759">
  <ele>1606.0</ele>
  <time>2026-08-28T19:12:50Z</time>
  <course>318.02</course>
  <speed>0.06</speed>
  <fix>3d</fix>
</trkpt>
<trkpt lat="40.0728425" lon="-105.2305758">
  <ele>1606.14</ele>
  <time>2026-08-28T19:12:50Z</time>
  <course>10.04</course>
  <speed>0.0282842712474619</speed>
  <fix>3d</fix>
</trkpt>
<trkpt lat="40.0728426" lon="-105.230576">
  <ele>1606.01</ele>
  <time>2026-08-28T19:12:50Z</time>
  <course>317.74</course>
  <speed>0.07</speed>
  <fix>3d</fix>
</trkpt>
<trkpt lat="40.0728426" lon="-105.2305759">
  <ele>1606.14</ele>
  <time>2026-08-28T19:12:50Z</time>
  <course>10.04</course>
  <speed>0.03605551275463989</speed>
  <fix>3d</fix>
</trkpt>
<trkpt lat="40.0728427" lon="-105.2305761">
  <ele>1606.01</ele>
  <time>2026-08-28T19:12:50Z</time>
  <course>317.53</course>
  <speed>0.07</speed>
  <fix>3d</fix>
</trkpt>
<trkpt lat="40.0728427" lon="-105.2305761">
  <ele>1606.14</ele>
  <time>2026-08-28T19:12:50Z</time>
  <course>10.04</course>
  <speed>0.04242640687119285</speed>
  <fix>3d</fix>
</trkpt>
<trkpt lat="40.0728428" lon="-105.2305762">
  <ele>1606.02</ele>
  <time>2026-08-28T19:12:50Z</time>
  <course>317.35</course>
  <speed>0.07</speed>
  <fix>3d</fix>
</trkpt>
<trkpt lat="40.0728428" lon="-105.2305762">
  <ele>1606.15</ele>
  <time>2026-08-28T19:12:50Z</time>
  <course>10.04</course>
  <speed>0.04242640687119285</speed>
  <fix>3d</fix>
</trkpt>
<trkpt lat="40.0728429" lon="-105.2305763">
  <ele>1606.02</ele>
  <time>2026-08-28T19:12:50Z</time>
  <course>317.23</course>
  <speed>0.08</speed>
  <fix>3d</fix>
</trkpt>
<trkpt lat="40.0728429" lon="-105.2305763">
  <ele>1606.15</ele>
  <time>2026-08-28T19:12:50Z</time>
  <course>10.04</course>
  <speed>0.04242640687119285</speed>
  <fix>3d</fix>
</trkpt>
<trkpt lat="40.0728431" lon="-105.2305765">
  <ele>1606.03</ele>
  <time>2026-08-28T19:12:50Z</time>
  <course>317.16</course>
  <speed>0.08</speed>
  <fix>3d</fix>
</trkpt>
<trkpt lat="40.072843" lon="-105.2305764">
  <ele>1606.15</ele>
  <time>2026-08-28T19:12:50Z</time>
  <course>10.04</course>
  <speed>0.03605551275463989</speed>
  <fix>3d</fix>
</trkpt>
<trkpt lat="40.0728432" lon="-105.2305766">
  <ele>1606.03</ele>
  <time>2026-08-28T19:12:50Z</time>
  <course>317.2</course>
  <speed>0.08</speed>
  <fix>3d</fix>
</trkpt>
<trkpt lat="40.072843" lon="-105.230576">
  <ele>1606.19</ele>
  <time>2026-08-28T19:12:50Z</time>
  <course>9.91</course>
  <speed>0.7454528824815153</speed>
  <fix>3d</fix>
</trkpt>
<trkpt lat="40.0728433" lon="-105.2305766">
  <ele>1606.05</ele>
  <time>2026-08-28T19:12:50Z</time>
  <course>68.78</course>
  <speed>0.18</speed>
  <fix>3d</fix>
</trkpt>
<trkpt lat="40.0728431" lon="-105.2305751">
  <ele>1606.01</ele>
  <time>2026-08-28T19:12:50Z</time>
  <course>8.94</course>
  <speed>0.1</speed>
  <fix>3d</fix>
</trkpt>
<trkpt lat="40.0728434" lon="-105.2305759">
  <ele>1606.02</ele>
  <time>2026-08-28T19:12:50Z</time>
  <course>76.18</course>
  <speed>0.28</speed>
  <fix>3d</fix>
</trkpt>
<trkpt lat="40.0728434" lon="-105.2305763">
  <ele>1605.49</ele>
  <time>2026-08-28T19:12:50Z</time>
  <course>7.75</course>
  <speed>0.6942621983083913</speed>
  <fix>3d</fix>
</trkpt>
<trkpt lat="40.0728436" lon="-105.2305757">
  <ele>1605.74</ele>
  <time>2026-08-28T19:12:50Z</time>
  <course>289.23</course>
  <speed>0.26</speed>
  <fix>3d</fix>
</trkpt>
<trkpt lat="40.0728437" lon="-105.2305773">
  <ele>1604.79</ele>
  <time>2026-08-28T19:12:50Z</time>
  <course>7.15</course>
  <speed>0.05830951894845301</speed>
  <fix>3d</fix>
</trkpt>
<trkpt lat="40.0728438" lon="-105.2305768">
  <ele>1605.18</ele>
  <time>2026-08-28T19:12:50Z</time>
  <course>284.12</course>
  <speed>0.51</speed>
  <fix>3d</fix>
</trkpt>
<trkpt lat="40.0728439" lon="-105.2305778">
  <ele>1603.89</ele>
  <time>2026-08-28T19:12:50Z</time>
  <course>10.7</course>
  <speed>1.0623088063270492</speed>
  <fix>3d</fix>
</trkpt>
<trkpt lat="40.0728439" lon="-105.2305776">
  <ele>1604.41</ele>
  <time>2026-08-28T19:12:50Z</time>
  <course>294.04</course>
  <speed>0.49</speed>
  <fix>3d</fix>
</trkpt>
<trkpt lat="40.0728446" lon="-105.2305806">
  <ele>1603.02</ele>
  <time>2026-08-28T19:12:50Z</time>
  <course>11.34</course>
  <speed>0.8316850365372699</speed>
  <fix>3d</fix>
</trkpt>
<trkpt lat="40.0728444" lon="-105.2305789">
  <ele>1603.53</ele>
  <time>2026-08-28T19:12:50Z</time>
  <course>291.49</course>
  <speed>0.88</speed>
  <fix>3d</fix>
</trkpt>
<trkpt lat="40.0728448" lon="-105.2305794">
  <ele>1602.31</ele>
  <time>2026-08-28T19:12:50Z</time>
  <course>10.71</course>
  <speed>2.3889118861942147</speed>
  <fix>3d</fix>
</trkpt>
<trkpt lat="40.0728449" lon="-105.2305803">
  <ele>1602.71</ele>
  <time>2026-08-28T19:12:50Z</time>
  <course>7.52</course>
  <speed>0.11</speed>
  <fix>3d</fix>
</trkpt>
<trkpt lat="40.0728436" lon="-105.2305687">
  <ele>1601.83</ele>
  <time>2026-08-28T19:12:50Z</time>
  <course>10.12</course>
  <speed>6.761730547722233</speed>
  <fix>3d</fix>
</trkpt>
<trkpt lat="40.0728445" lon="-105.2305765">
  <ele>1602.07</ele>
  <time>2026-08-28T19:12:50Z</time>
  <course>100.2</course>
  <speed>3.48</speed>
  <fix>3d</fix>
</trkpt>
<trkpt lat="40.0728434" lon="-105.2305669">
  <ele>1601.79</ele>
  <time>2026-08-28T19:12:50Z</time>
  <course>10.17</course>
  <speed>7.087242058798331</speed>
  <fix>3d</fix>
</trkpt>
<trkpt lat="40.0728412" lon="-105.2305514">
  <ele>1601.57</ele>
  <time>2026-08-28T19:12:50Z</time>
  <course>10.3</course>
  <speed>8.30752068911056</speed>
  <fix>3d</fix>
</trkpt>
<trkpt lat="40.0728427" lon="-105.2305639">
  <ele>1601.66</ele>
  <time>2026-08-28T19:12:50Z</time>
  <course>100.71</course>
  <speed>7.03</speed>
  <fix>3d</fix>
</trkpt>
<trkpt lat="40.0728386" lon="-105.2305335">
  <ele>1601.44</ele>
  <time>2026-08-28T19:12:50Z</time>
  <course>10.5</course>
  <speed>7.75918810185705</speed>
  <fix>3d</fix>
</trkpt>
<trkpt lat="40.0728402" lon="-105.2305459">
  <ele>1601.44</ele>
  <time>2026-08-28T19:12:50Z</time>
  <course>100.72</course>
  <speed>8.15</speed>
  <fix>3d</fix>
</trkpt>
<trkpt lat="40.0728382" lon="-105.2305313">
  <ele>1601.43</ele>
  <time>2026-08-28T19:12:50Z</time>
  <course>10.47</course>
  <speed>7.637551963816678</speed>
  <fix>3d</fix>
</trkpt>
<trkpt lat="40.0728361" lon="-105.2305172">
  <ele>1601.39</ele>
  <time>2026-08-28T19:12:50Z</time>
  <course>10.19</course>
  <speed>6.786118183468367</speed>
  <fix>3d</fix>
</trkpt>
<trkpt lat="40.0728375" lon="-105.2305275">
  <ele>1601.34</ele>
  <time>2026-08-28T19:12:50Z</time>
  <course>100.67</course>
  <speed>7.63</speed>
  <fix>3d</fix>
</trkpt>
<trkpt lat="40.0728339" lon="-105.2305024">
  <ele>1601.42</ele>
  <time>2026-08-28T19:12:50Z</time>
  <course>9.92</course>
  <speed>6.087692502089769</speed>
  <fix>3d</fix>
</trkpt>
<trkpt lat="40.0728351" lon="-105.230511">
  <ele>1601.32</ele>
  <time>2026-08-28T19:12:50Z</time>
  <course>100.67</course>
  <speed>6.78</speed>
  <fix>3d</fix>
</trkpt>
<trkpt lat="40.0728319" lon="-105.2304887">
  <ele>1601.56</ele>
  <time>2026-08-28T19:12:50Z</time>
  <course>9.85</course>
  <speed>5.52869785754295</speed>
  <fix>3d</fix>
</trkpt>
<trkpt lat="40.072833" lon="-105.2304961">
  <ele>1601.38</ele>
  <time>2026-08-28T19:12:50Z</time>
  <course>100.69</course>
  <speed>6.1</speed>
  <fix>3d</fix>
</trkpt>
<trkpt lat="40.0728316" lon="-105.2304872">
  <ele>1601.58</ele>
  <time>2026-08-28T19:12:50Z</time>
  <course>9.85</course>
  <speed>5.477709375277225</speed>
  <fix>3d</fix>
</trkpt>
<trkpt lat="40.07283" lon="-105.2304761">
  <ele>1601.78</ele>
  <time>2026-08-28T19:12:50Z</time>
  <course>9.88</course>
  <speed>5.071686110160999</speed>
  <fix>3d</fix>
</trkpt>
<trkpt lat="40.0728311" lon="-105.2304827">
  <ele>1601.54</ele>
  <time>2026-08-28T19:12:50Z</time>
  <course>100.7</course>
  <speed>5.55</speed>
  <fix>3d</fix>
</trkpt>
<trkpt lat="40.0728283" lon="-105.2304644">
  <ele>1602.08</ele>
  <time>2026-08-28T19:12:50Z</time>
  <course>9.93</course>
  <speed>4.6853068202626815</speed>
  <fix>3d</fix>
</trkpt>
<trkpt lat="40.0728293" lon="-105.2304704">
  <ele>1601.78</ele>
  <time>2026-08-28T19:12:50Z</time>
  <course>100.7</course>
  <speed>5.09</speed>
  <fix>3d</fix>
</trkpt>
<trkpt lat="40.0728268" lon="-105.2304536">
  <ele>1602.41</ele>
  <time>2026-08-28T19:12:50Z</time>
  <course>9.97</course>
  <speed>4.328383069923456</speed>
  <fix>3d</fix>
</trkpt>
<trkpt lat="40.0728277" lon="-105.2304591">
  <ele>1602.08</ele>
  <time>2026-08-28T19:12:50Z</time>
  <course>100.68</course>
  <speed>4.68</speed>
  <fix>3d</fix>
</trkpt>
<trkpt lat="40.0728266" lon="-105.2304523">
  <ele>1602.45</ele>
  <time>2026-08-28T19:12:50Z</time>
  <course>9.98</course>
  <speed>4.287213547282197</speed>
  <fix>3d</fix>
</trkpt>
<trkpt lat="40.0728253" lon="-105.2304436">
  <ele>1602.76</ele>
  <time>2026-08-28T19:12:50Z</time>
  <course>10.0</course>
  <speed>4.022449502479801</speed>
  <fix>3d</fix>
</trkpt>
<trkpt lat="40.0728261" lon="-105.2304487">
  <ele>1602.42</ele>
  <time>2026-08-28T19:12:50Z</time>
  <course>100.66</course>
  <speed>4.32</speed>
  <fix>3d</fix>
</trkpt>
<trkpt lat="40.072824" lon="-105.2304343">
  <ele>1603.14</ele>
  <time>2026-08-28T19:12:50Z</time>
  <course>10.02</course>
  <speed>3.7380476187443095</speed>
  <fix>3d</fix>
</trkpt>
<trkpt lat="40.0728248" lon="-105.2304391">
  <ele>1602.79</ele>
  <time>2026-08-28T19:12:50Z</time>
  <course>100.63</course>
  <speed>4.0</speed>
  <fix>3d</fix>
</trkpt>
<trkpt lat="40.0728228" lon="-105.2304257">
  <ele>1603.52</ele>
  <time>2026-08-28T19:12:50Z</time>
  <course>10.02</course>
  <speed>3.492921413373052</speed>
  <fix>3d</fix>
</trkpt>
<trkpt lat="40.0728235" lon="-105.2304303">
  <ele>1603.17</ele>
  <time>2026-08-28T19:12:50Z</time>
  <course>100.59</course>
  <speed>3.71</speed>
  <fix>3d</fix>
</trkpt>
<trkpt lat="40.0728226" lon="-105.2304247">
  <ele>1603.57</ele>
  <time>2026-08-28T19:12:50Z</time>
  <course>10.02</course>
  <speed>3.4615747861341952</speed>
  <fix>3d</fix>
</trkpt>
<trkpt lat="40.0728216" lon="-105.2304177">
  <ele>1603.91</ele>
  <time>2026-08-28T19:12:50Z</time>
  <course>10.02</course>
  <speed>3.257621831950418</speed>
  <fix>3d</fix>
</trkpt>
<trkpt lat="40.0728223" lon="-105.230422">
  <ele>1603.56</ele>
  <time>2026-08-28T19:12:50Z</time>
  <course>100.55</course>
  <speed>3.44</speed>
  <fix>3d</fix>
</trkpt>
<trkpt lat="40.0728206" lon="-105.2304103">
  <ele>1604.31</ele>
  <time>2026-08-28T19:12:50Z</time>
  <course>10.01</course>
  <speed>3.0438462510448847</speed>
  <fix>3d</fix>
</trkpt>
<trkpt lat="40.0728212" lon="-105.2304144">
  <ele>1603.95</ele>
  <time>2026-08-28T19:12:50Z</time>
  <course>100.5</course>
  <speed>3.2</speed>
  <fix>3d</fix>
</trkpt>
<trkpt lat="40.0728196" lon="-105.2304034">
  <ele>1604.71</ele>
  <time>2026-08-28T19:12:50Z</time>
  <course>10.02</course>
  <speed>2.8398943642325856</speed>
  <fix>3d</fix>
</trkpt>
<trkpt lat="40.0728202" lon="-105.2304072">
  <ele>1604.34</ele>
  <time>2026-08-28T19:12:50Z</time>
  <course>100.45</course>
  <speed>2.98</speed>
  <fix>3d</fix>
</trkpt>
<trkpt lat="40.0728195" lon="-105.2304026">
  <ele>1604.76</ele>
  <time>2026-08-28T19:12:50Z</time>
  <course>10.02</course>
  <speed>2.830070670495703</speed>
  <fix>3d</fix>
</trkpt>
<trkpt lat="40.0728187" lon="-105.2303969">
  <ele>1605.11</ele>
  <time>2026-08-28T19:12:50Z</time>
  <course>10.01</course>
  <speed>2.667283262047734</speed>
  <fix>3d</fix>
</trkpt>
<trkpt lat="40.0728193" lon="-105.2304006">
  <ele>1604.73</ele>
  <time>2026-08-28T19:12:50Z</time>
  <course>100.4</course>
  <speed>2.78</speed>
  <fix>3d</fix>
</trkpt>
<trkpt lat="40.0728179" lon="-105.2303909">
  <ele>1605.51</ele>
  <time>2026-08-28T19:12:50Z</time>
  <course>10.0</course>
  <speed>2.492809659801566</speed>
  <fix>3d</fix>
</trkpt>
<trkpt lat="40.0728184" lon="-105.2303944">
  <ele>1605.13</ele>
  <time>2026-08-28T19:12:50Z</time>
  <course>100.33</course>
  <speed>2.6</speed>
  <fix>3d</fix>
</trkpt>
<trkpt lat="40.0728171" lon="-105.2303852">
  <ele>1605.91</ele>
  <time>2026-08-28T19:12:50Z</time>
  <course>10.01</course>
  <speed>2.3398504225697847</speed>
  <fix>3d</fix>
</trkpt>
<trkpt lat="40.0728175" lon="-105.2303885">
  <ele>1605.52</ele>
  <time>2026-08-28T19:12:50Z</time>
  <course>100.26</course>
  <speed>2.43</speed>
  <fix>3d</fix>
</trkpt>
<trkpt lat="40.072817" lon="-105.2303846">
  <ele>1605.96</ele>
  <time>2026-08-28T19:12:50Z</time>
  <course>10.01</course>
  <speed>2.3201939574095958</speed>
  <fix>3d</fix>
</trkpt>
<trkpt lat="40.0728164" lon="-105.23038">
  <ele>1606.31</ele>
  <time>2026-08-28T19:12:50Z</time>
  <course>10.01</course>
  <speed>2.196724834839357</speed>
  <fix>3d</fix>
</trkpt>
<trkpt lat="40.0728168" lon="-105.2303831">
  <ele>1605.91</ele>
  <time>2026-08-28T19:12:50Z</time>
  <course>100.19</course>
  <speed>2.27</speed>
  <fix>3d</fix>
</trkpt>
<trkpt lat="40.0728157" lon="-105.230375">
  <ele>1606.69</ele>
  <time>2026-08-28T19:12:50Z</time>
  <course>10.01</course>
  <speed>2.065260274154326</speed>
  <fix>3d</fix>
</trkpt>
<trkpt lat="40.0728161" lon="-105.230378">
  <ele>1606.3</ele>
  <time>2026-08-28T19:12:50Z</time>
  <course>100.11</course>
  <speed>2.13</speed>
  <fix>3d</fix>
</trkpt>
<trkpt lat="40.0728151" lon="-105.2303704">
  <ele>1607.01</ele>
  <time>2026-08-28T19:12:50Z</time>
  <course>10.01</course>
  <speed>1.951640335717624</speed>
  <fix>3d</fix>
</trkpt>
<trkpt lat="40.0728155" lon="-105.2303732">
  <ele>1606.66</ele>
  <time>2026-08-28T19:12:50Z</time>
  <course>100.03</course>
  <speed>2.0</speed>
  <fix>3d</fix>
</trkpt>
<trkpt lat="40.0728145" lon="-105.230366">
  <ele>1607.24</ele>
  <time>2026-08-28T19:12:50Z</time>
  <course>10.02</course>
  <speed>1.84967564724197</speed>
  <fix>3d</fix>
</trkpt>
<trkpt lat="40.0728149" lon="-105.2303686">
  <ele>1606.95</ele>
  <time>2026-08-28T19:12:50Z</time>
  <course>99.95</course>
  <speed>1.89</speed>
  <fix>3d</fix>
</trkpt>
<trkpt lat="40.0728139" lon="-105.2303618">
  <ele>1607.38</ele>
  <time>2026-08-28T19:12:50Z</time>
  <course>10.02</course>
  <speed>1.7575551200460255</speed>
  <fix>3d</fix>
</trkpt>
<trkpt lat="40.0728143" lon="-105.2303644">
  <ele>1607.14</ele>
  <time>2026-08-28T19:12:50Z</time>
  <course>99.87</course>
  <speed>1.78</speed>
  <fix>3d</fix>
</trkpt>
<trkpt lat="40.0728134" lon="-105.2303579">
  <ele>1607.46</ele>
  <time>2026-08-28T19:12:50Z</time>
  <course>10.02</course>
  <speed>1.6555965692160635</speed>
  <fix>3d</fix>
</trkpt>
<trkpt lat="40.0728138" lon="-105.2303604">
  <ele>1607.27</ele>
  <time>2026-08-28T19:12:50Z</time>
  <course>99.77</course>
  <speed>1.68</speed>
  <fix>3d</fix>
</trkpt>
<trkpt lat="40.0728129" lon="-105.2303542">
  <ele>1607.51</ele>
  <time>2026-08-28T19:12:50Z</time>
  <course>10.01</course>
  <speed>1.5634896865665602</speed>
  <fix>3d</fix>
</trkpt>
<trkpt lat="40.0728133" lon="-105.2303566">
  <ele>1607.34</ele>
  <time>2026-08-28T19:12:50Z</time>
  <course>99.66</course>
  <speed>1.59</speed>
  <fix>3d</fix>
</trkpt>
<trkpt lat="40.0728125" lon="-105.2303508">
  <ele>1607.53</ele>
  <time>2026-08-28T19:12:50Z</time>
  <course>10.01</course>
  <speed>1.4812494725737457</speed>
  <fix>3d</fix>
</trkpt>
<trkpt lat="40.0728128" lon="-105.2303531">
  <ele>1607.37</ele>
  <time>2026-08-28T19:12:50Z</time>
  <course>99.53</course>
  <speed>1.49</speed>
  <fix>3d</fix>
</trkpt>
<trkpt lat="40.0728121" lon="-105.2303475">
  <ele>1607.54</ele>
  <time>2026-08-28T19:12:50Z</time>
  <course>10.01</course>
  <speed>1.3908630414242804</speed>
  <fix>3d</fix>
</trkpt>
<trkpt lat="40.0728124" lon="-105.2303497">
  <ele>1607.39</ele>
  <time>2026-08-28T19:12:50Z</time>
  <course>99.39</course>
  <speed>1.41</speed>
  <fix>3d</fix>
</trkpt>
<trkpt lat="40.0728117" lon="-105.2303444">
  <ele>1607.54</ele>
  <time>2026-08-28T19:12:50Z</time>
  <course>10.01</course>
  <speed>1.3184839779079607</speed>
  <fix>3d</fix>
</trkpt>
<trkpt lat="40.072812" lon="-105.2303465">
  <ele>1607.4</ele>
  <time>2026-08-28T19:12:50Z</time>
  <course>99.23</course>
  <speed>1.32</speed>
  <fix>3d</fix>
</trkpt>
<trkpt lat="40.0728113" lon="-105.2303415">
  <ele>1607.54</ele>
  <time>2026-08-28T19:12:50Z</time>
  <course>10.01</course>
  <speed>1.2362847568420472</speed>
  <fix>3d</fix>
</trkpt>
<trkpt lat="40.0728116" lon="-105.2303435">
  <ele>1607.4</ele>
  <time>2026-08-28T19:12:50Z</time>
  <course>99.05</course>
  <speed>1.25</speed>
  <fix>3d</fix>
</trkpt>
<trkpt lat="40.072811" lon="-105.2303388">
  <ele>1607.55</ele>
  <time>2026-08-28T19:12:50Z</time>
  <course>10.01</course>
  <speed>1.1655899793666726</speed>
  <fix>3d</fix>
</trkpt>
<trkpt lat="40.0728113" lon="-105.2303407">
  <ele>1607.41</ele>
  <time>2026-08-28T19:12:50Z</time>
  <course>98.87</course>
  <speed>1.17</speed>
  <fix>3d</fix>
</trkpt>
<trkpt lat="40.0728107" lon="-105.2303362">
  <ele>1607.55</ele>
  <time>2026-08-28T19:12:50Z</time>
  <course>10.02</course>
  <speed>1.1047624178980746</speed>
  <fix>3d</fix>
</trkpt>
<trkpt lat="40.072811" lon="-105.230338">
  <ele>1607.41</ele>
  <time>2026-08-28T19:12:50Z</time>
  <course>98.66</course>
  <speed>1.1</speed>
  <fix>3d</fix>
</trkpt>
<trkpt lat="40.0728104" lon="-105.2303338">
  <ele>1607.55</ele>
  <time>2026-08-28T19:12:51Z</time>
  <course>10.01</course>
  <speed>1.0423531071570709</speed>
  <fix>3d</fix>
</trkpt>
<trkpt lat="40.0728107" lon="-105.2303355">
  <ele>1607.42</ele>
  <time>2026-08-28T19:12:51Z</time>
  <course>98.44</course>
  <speed>1.04</speed>
  <fix>3d</fix>
</trkpt>
<trkpt lat="40.0728102" lon="-105.2303315">
  <ele>1607.55</ele>
  <time>2026-08-28T19:12:51Z</time>
  <course>10.01</course>
  <speed>0.9815294188153507</speed>
  <fix>3d</fix>
</trkpt>
<trkpt lat="40.0728104" lon="-105.2303332">
  <ele>1607.43</ele>
  <time>2026-08-28T19:12:51Z</time>
  <course>98.22</course>
  <speed>0.98</speed>
  <fix>3d</fix>
</trkpt>
<trkpt lat="40.0728099" lon="-105.2303292">
  <ele>1607.57</ele>
  <time>2026-08-28T19:12:51Z</time>
  <course>10.01</course>
  <speed>1.1541230437002807</speed>
  <fix>3d</fix>
</trkpt>
<trkpt lat="40.0728102" lon="-105.230331">
  <ele>1607.44</ele>
  <time>2026-08-28T19:12:51Z</time>
  <course>98.02</course>
  <speed>0.96</speed>
  <fix>3d</fix>
</trkpt>
<trkpt lat="40.0728095" lon="-105.2303258">
  <ele>1607.54</ele>
  <time>2026-08-28T19:12:51Z</time>
  <course>10.03</course>
  <speed>1.3875518008348373</speed>
  <fix>3d</fix>
</trkpt>
<trkpt lat="40.0728098" lon="-105.2303283">
  <ele>1607.46</ele>
  <time>2026-08-28T19:12:51Z</time>
  <course>98.29</course>
  <speed>1.27</speed>
  <fix>3d</fix>
</trkpt>
<trkpt lat="40.0728092" lon="-105.2303231">
  <ele>1607.15</ele>
  <time>2026-08-28T19:12:51Z</time>
  <course>10.05</course>
  <speed>1.3563554106501732</speed>
  <fix>3d</fix>
</trkpt>
<trkpt lat="40.0728095" lon="-105.2303254">
  <ele>1607.32</ele>
  <time>2026-08-28T19:12:51Z</time>
  <course>98.41</course>
  <speed>1.41</speed>
  <fix>3d</fix>
</trkpt>
<trkpt lat="40.0728089" lon="-105.2303203">
  <ele>1606.45</ele>
  <time>2026-08-28T19:12:52Z</time>
  <course>10.03</course>
  <speed>1.0818964830333815</speed>
  <fix>3d</fix>
</trkpt>
<trkpt lat="40.0728092" lon="-105.2303225">
  <ele>1606.85</ele>
  <time>2026-08-28T19:12:52Z</time>
  <course>98.15</course>
  <speed>1.14</speed>
  <fix>3d</fix>
</trkpt>
<trkpt lat="40.0728086" lon="-105.2303175">
  <ele>1605.56</ele>
  <time>2026-08-28T19:12:52Z</time>
  <course>10.0</course>
  <speed>1.3662357044082838</speed>
  <fix>3d</fix>
</trkpt>
<trkpt lat="40.072809" lon="-105.2303199">
  <ele>1606.1</ele>
  <time>2026-08-28T19:12:52Z</time>
  <course>98.11</course>
  <speed>1.12</speed>
  <fix>3d</fix>
</trkpt>
<trkpt lat="40.0728082" lon="-105.2303139">
  <ele>1604.49</ele>
  <time>2026-08-28T19:12:52Z</time>
  <course>10.03</course>
  <speed>1.7722584461641029</speed>
  <fix>3d</fix>
</trkpt>
<trkpt lat="40.0728086" lon="-105.230317">
  <ele>1605.16</ele>
  <time>2026-08-28T19:12:52Z</time>
  <course>98.42</course>
  <speed>1.4</speed>
  <fix>3d</fix>
</trkpt>
<trkpt lat="40.0728076" lon="-105.2303093">
  <ele>1603.22</ele>
  <time>2026-08-28T19:12:52Z</time>
  <course>10.03</course>
  <speed>2.3805251521460553</speed>
  <fix>3d</fix>
</trkpt>
<trkpt lat="40.0728082" lon="-105.2303133">
  <ele>1604.04</ele>
  <time>2026-08-28T19:12:52Z</time>
  <course>98.75</course>
  <speed>1.85</speed>
  <fix>3d</fix>
</trkpt>
<trkpt lat="40.0728072" lon="-105.2303056">
  <ele>1601.79</ele>
  <time>2026-08-28T19:12:52Z</time>
  <course>9.99</course>
  <speed>0.38078865529319544</speed>
  <fix>3d</fix>
</trkpt>
<trkpt lat="40.0728077" lon="-105.2303087">
  <ele>1602.72</ele>
  <time>2026-08-28T19:12:52Z</time>
  <course>98.43</course>
  <speed>1.43</speed>
  <fix>3d</fix>
</trkpt>
<trkpt lat="40.072808" lon="-105.2303108">
  <ele>1600.85</ele>
  <time>2026-08-28T19:12:53Z</time>
  <course>9.93</course>
  <speed>2.6654267950930484</speed>
  <fix>3d</fix>
</trkpt>
<trkpt lat="40.0728076" lon="-105.2303077">
  <ele>1601.45</ele>
  <time>2026-08-28T19:12:53Z</time>
  <course>282.39</course>
  <speed>0.9</speed>
  <fix>3d</fix>
</trkpt>
<trkpt lat="40.0728087" lon="-105.2303161">
  <ele>1600.63</ele>
  <time>2026-08-28T19:12:53Z</time>
  <course>10.05</course>
  <speed>2.006315030098713</speed>
  <fix>3d</fix>
</trkpt>
<trkpt lat="40.0728082" lon="-105.230312">
  <ele>1600.7</ele>
  <time>2026-08-28T19:12:53Z</time>
  <course>281.06</course>
  <speed>2.42</speed>
  <fix>3d</fix>
</trkpt>
<trkpt lat="40.0728093" lon="-105.2303201">
  <ele>1600.8</ele>
  <time>2026-08-28T19:12:53Z</time>
  <course>10.08</course>
  <speed>1.712103968805633</speed>
  <fix>3d</fix>
</trkpt>
<trkpt lat="40.0728089" lon="-105.2303173">
  <ele>1600.56</ele>
  <time>2026-08-28T19:12:53Z</time>
  <course>281.45</course>
  <speed>2.06</speed>
  <fix>3d</fix>
</trkpt>
<trkpt lat="40.07281" lon="-105.2303242">
  <ele>1601.14</ele>
  <time>2026-08-28T19:12:53Z</time>
  <course>10.02</course>
  <speed>1.702292571798397</speed>
  <fix>3d</fix>
</trkpt>
<trkpt lat="40.0728096" lon="-105.2303217">
  <ele>1600.79</ele>
  <time>2026-08-28T19:12:53Z</time>
  <course>281.69</course>
  <speed>1.83</speed>
  <fix>3d</fix>
</trkpt>
<trkpt lat="40.0728106" lon="-105.2303283">
  <ele>1601.52</ele>
  <time>2026-08-28T19:12:53Z</time>
  <course>9.99</course>
  <speed>1.7317332358074091</speed>
  <fix>3d</fix>
</trkpt>
<trkpt lat="40.0728103" lon="-105.2303259">
  <ele>1601.15</ele>
  <time>2026-08-28T19:12:53Z</time>
  <course>281.73</course>
  <speed>1.82</speed>
  <fix>3d</fix>
</trkpt>
<trkpt lat="40.0728113" lon="-105.2303325">
  <ele>1601.86</ele>
  <time>2026-08-28T19:12:53Z</time>
  <course>9.98</course>
  <speed>1.7434735443934903</speed>
  <fix>3d</fix>
</trkpt>
<trkpt lat="40.072811" lon="-105.2303301">
  <ele>1601.54</ele>
  <time>2026-08-28T19:12:53Z</time>
  <course>281.74</course>
  <speed>1.82</speed>
  <fix>3d</fix>
</trkpt>
<trkpt lat="40.0728119" lon="-105.2303367">
  <ele>1602.14</ele>
  <time>2026-08-28T19:12:53Z</time>
  <course>9.98</course>
  <speed>1.7532826355154492</speed>
  <fix>3d</fix>
</trkpt>
<trkpt lat="40.0728117" lon="-105.2303343">
  <ele>1601.87</ele>
  <time>2026-08-28T19:12:53Z</time>
  <course>281.73</course>
  <speed>1.83</speed>
  <fix>3d</fix>
</trkpt>
<trkpt lat="40.0728126" lon="-105.2303409">
  <ele>1602.36</ele>
  <time>2026-08-28T19:12:53Z</time>
  <course>9.99</course>
  <speed>1.7532826355154492</speed>
  <fix>3d</fix>
</trkpt>
<trkpt lat="40.0728123" lon="-105.2303384">
  <ele>1602.13</ele>
  <time>2026-08-28T19:12:53Z</time>
  <course>281.73</course>
  <speed>1.83</speed>
  <fix>3d</fix>
</trkpt>
<trkpt lat="40.0728132" lon="-105.2303449">
  <ele>1602.57</ele>
  <time>2026-08-28T19:12:53Z</time>
  <course>10.0</course>
  <speed>1.6297545827516484</speed>
  <fix>3d</fix>
</trkpt>
<trkpt lat="40.0728129" lon="-105.2303426">
  <ele>1602.35</ele>
  <time>2026-08-28T19:12:53Z</time>
  <course>281.75</course>
  <speed>1.77</speed>
  <fix>3d</fix>
</trkpt>
<trkpt lat="40.0728138" lon="-105.2303486">
  <ele>1602.74</ele>
  <time>2026-08-28T19:12:53Z</time>
  <course>10.01</course>
  <speed>1.4571547618561318</speed>
  <fix>3d</fix>
</trkpt>
<trkpt lat="40.0728136" lon="-105.2303465">
  <ele>1602.54</ele>
  <time>2026-08-28T19:12:53Z</time>
  <course>281.79</course>
  <speed>1.64</speed>
  <fix>3d</fix>
</trkpt>
<trkpt lat="40.0728143" lon="-105.2303519">
  <ele>1602.87</ele>
  <time>2026-08-28T19:12:54Z</time>
  <course>10.02</course>
  <speed>1.27283148923964</speed>
  <fix>3d</fix>
</trkpt>
<trkpt lat="40.0728142" lon="-105.2303502">
  <ele>1602.69</ele>
  <time>2026-08-28T19:12:54Z</time>
  <course>281.84</course>
  <speed>1.46</speed>
  <fix>3d</fix>
</trkpt>
<trkpt lat="40.0728148" lon="-105.2303547">
  <ele>1602.94</ele>
  <time>2026-08-28T19:12:54Z</time>
  <course>10.02</course>
  <speed>1.0904127658827185</speed>
  <fix>3d</fix>
</trkpt>
<trkpt lat="40.0728147" lon="-105.2303533">
  <ele>1602.8</ele>
  <time>2026-08-28T19:12:54Z</time>
  <course>281.91</course>
  <speed>1.27</speed>
  <fix>3d</fix>
</trkpt>
<trkpt lat="40.0728152" lon="-105.2303571">
  <ele>1602.98</ele>
  <time>2026-08-28T19:12:54Z</time>
  <course>10.02</course>
  <speed>0.8962700485902673</speed>
  <fix>3d</fix>
</trkpt>
<trkpt lat="40.0728151" lon="-105.230356">
  <ele>1602.86</ele>
  <time>2026-08-28T19:12:54Z</time>
  <course>282.01</course>
  <speed>1.08</speed>
  <fix>3d</fix>
</trkpt>
<trkpt lat="40.0728155" lon="-105.2303591">
  <ele>1602.97</ele>
  <time>2026-08-28T19:12:54Z</time>
  <course>10.02</course>
  <speed>0.7021395872616784</speed>
  <fix>3d</fix>
</trkpt>
<trkpt lat="40.0728155" lon="-105.2303582">
  <ele>1602.88</ele>
  <time>2026-08-28T19:12:54Z</time>
  <course>282.14</course>
  <speed>0.88</speed>
  <fix>3d</fix>
</trkpt>
<trkpt lat="40.0728157" lon="-105.2303606">
  <ele>1602.94</ele>
  <time>2026-08-28T19:12:54Z</time>
  <course>10.02</course>
  <speed>0.517880295048962</speed>
  <fix>3d</fix>
</trkpt>
<trkpt lat="40.0728158" lon="-105.23036">
  <ele>1602.86</ele>
  <time>2026-08-28T19:12:54Z</time>
  <course>282.32</course>
  <speed>0.68</speed>
  <fix>3d</fix>
</trkpt>
<trkpt lat="40.0728159" lon="-105.2303617">
  <ele>1602.88</ele>
  <time>2026-08-28T19:12:54Z</time>
  <course>10.02</course>
  <speed>0.33541019662496846</speed>
  <fix>3d</fix>
</trkpt>
<trkpt lat="40.0728161" lon="-105.2303614">
  <ele>1602.81</ele>
  <time>2026-08-28T19:12:54Z</time>
  <course>282.61</course>
  <speed>0.49</speed>
  <fix>3d</fix>
</trkpt>
<trkpt lat="40.0728161" lon="-105.2303624">
  <ele>1602.8</ele>
  <time>2026-08-28T19:12:54Z</time>
  <course>10.02</course>
  <speed>0.16124515496597097</speed>
  <fix>3d</fix>
</trkpt>
<trkpt lat="40.0728162" lon="-105.2303623">
  <ele>1602.74</ele>
  <time>2026-08-28T19:12:54Z</time>
  <course>283.21</course>
  <speed>0.3</speed>
  <fix>3d</fix>
</trkpt>
<trkpt lat="40.0728161" lon="-105.2303626">
  <ele>1602.71</ele>
  <time>2026-08-28T19:12:54Z</time>
  <course>10.02</course>
  <speed>0.01</speed>
  <fix>3d</fix>
</trkpt>
<trkpt lat="40.0728163" lon="-105.2303628">
  <ele>1602.66</ele>
  <time>2026-08-28T19:12:54Z</time>
  <course>285.03</course>
  <speed>0.13</speed>
  <fix>3d</fix>
</trkpt>
<trkpt lat="40.0728161" lon="-105.2303626">
  <ele>1602.62</ele>
  <time>2026-08-28T19:12:54Z</time>
  <course>10.02</course>
  <speed>0.11401754250991379</speed>
  <fix>3d</fix>
</trkpt>
<trkpt lat="40.0728163" lon="-105.230363">
  <ele>1602.57</ele>
  <time>2026-08-28T19:12:54Z</time>
  <course>78.65</course>
  <speed>0.01</speed>
  <fix>3d</fix>
</trkpt>
<trkpt lat="40.0728161" lon="-105.2303622">
  <ele>1602.53</ele>
  <time>2026-08-28T19:12:54Z</time>
  <course>10.02</course>
  <speed>0.22561028345356957</speed>
  <fix>3d</fix>
</trkpt>
<trkpt lat="40.0728164" lon="-105.2303628">
  <ele>1602.48</ele>
  <time>2026-08-28T19:12:54Z</time>
  <course>99.19</course>
  <speed>0.15</speed>
  <fix>3d</fix>
</trkpt>
<trkpt lat="40.072816" lon="-105.2303618">
  <ele>1602.44</ele>
  <time>2026-08-28T19:12:54Z</time>
  <course>10.02</course>
  <speed>0.3080584360149873</speed>
  <fix>3d</fix>
</trkpt>
<trkpt lat="40.0728163" lon="-105.2303623">
  <ele>1602.38</ele>
  <time>2026-08-28T19:12:54Z</time>
  <course>100.56</course>
  <speed>0.26</speed>
  <fix>3d</fix>
</trkpt>
<trkpt lat="40.072816" lon="-105.230361">
  <ele>1602.35</ele>
  <time>2026-08-28T19:12:54Z</time>
  <course>10.02</course>
  <speed>0.3687817782917155</speed>
  <fix>3d</fix>
</trkpt>
<trkpt lat="40.0728162" lon="-105.2303617">
  <ele>1602.29</ele>
  <time>2026-08-28T19:12:54Z</time>
  <course>101.1</course>
  <speed>0.34</speed>
  <fix>3d</fix>
</trkpt>
<trkpt lat="40.0728159" lon="-105.2303601">
  <ele>1602.26</ele>
  <time>2026-08-28T19:12:54Z</time>
  <course>10.02</course>
  <speed>0.37107950630558945</speed>
  <fix>3d</fix>
</trkpt>
<trkpt lat="40.0728161" lon="-105.2303608">
  <ele>1602.2</ele>
  <time>2026-08-28T19:12:54Z</time>
  <course>101.59</course>
  <speed>0.38</speed>
  <fix>3d</fix>
</trkpt>
<trkpt lat="40.0728157" lon="-105.2303594">
  <ele>1602.19</ele>
  <time>2026-08-28T19:12:54Z</time>
  <course>10.02</course>
  <speed>0.32015621187164245</speed>
  <fix>3d</fix>
</trkpt>
<trkpt lat="40.0728159" lon="-105.2303599">
  <ele>1602.12</ele>
  <time>2026-08-28T19:12:54Z</time>
  <course>102.29</course>
  <speed>0.37</speed>
  <fix>3d</fix>
</trkpt>
<trkpt lat="40.0728156" lon="-105.2303587">
  <ele>1602.13</ele>
  <time>2026-08-28T19:12:54Z</time>
  <course>10.03</course>
  <speed>0.208806130178211</speed>
  <fix>3d</fix>
</trkpt>
<trkpt lat="40.0728158" lon="-105.2303591">
  <ele>1602.05</ele>
  <time>2026-08-28T19:12:54Z</time>
  <course>103.59</course>
  <speed>0.31</speed>
  <fix>3d</fix>
</trkpt>
<trkpt lat="40.0728156" lon="-105.2303584">
  <ele>1602.1</ele>
  <time>2026-08-28T19:12:54Z</time>
  <course>10.02</course>
  <speed>0.06403124237432849</speed>
  <fix>3d</fix>
</trkpt>
<trkpt lat="40.0728157" lon="-105.2303585">
  <ele>1602.01</ele>
  <time>2026-08-28T19:12:54Z</time>
  <course>107.12</course>
  <speed>0.19</speed>
  <fix>3d</fix>
</trkpt>
<trkpt lat="40.0728155" lon="-105.2303583">
  <ele>1602.08</ele>
  <time>2026-08-28T19:12:54Z</time>
  <course>10.0</course>
  <speed>0.130384048104053</speed>
  <fix>3d</fix>
</trkpt>
<trkpt lat="40.0728156" lon="-105.2303583">
  <ele>1601.98</ele>
  <time>2026-08-28T19:12:54Z</time>
  <course>142.41</course>
  <speed>0.04</speed>
  <fix>3d</fix>
</trkpt>
<trkpt lat="40.0728155" lon="-105.2303588">
  <ele>1602.08</ele>
  <time>2026-08-28T19:12:54Z</time>
  <course>9.98</course>
  <speed>0.340147027033899</speed>
  <fix>3d</fix>
</trkpt>
<trkpt lat="40.0728156" lon="-105.2303585">
  <ele>1601.97</ele>
  <time>2026-08-28T19:12:54Z</time>
  <course>268.7</course>
  <speed>0.16</speed>
  <fix>3d</fix>
</trkpt>
<trkpt lat="40.0728155" lon="-105.2303599">
  <ele>1602.09</ele>
  <time>2026-08-28T19:12:54Z</time>
  <course>9.99</course>
  <speed>0.5622277118748239</speed>
  <fix>3d</fix>
</trkpt>
<trkpt lat="40.0728156" lon="-105.230359">
  <ele>1601.98</ele>
  <time>2026-08-28T19:12:54Z</time>
  <course>274.56</course>
  <speed>0.38</speed>
  <fix>3d</fix>
</trkpt>
<trkpt lat="40.0728157" lon="-105.2303614">
  <ele>1602.11</ele>
  <time>2026-08-28T19:12:54Z</time>
  <course>9.99</course>
  <speed>0.7951100552753688</speed>
  <fix>3d</fix>
</trkpt>
<trkpt lat="40.0728157" lon="-105.2303601">
  <ele>1601.99</ele>
  <time>2026-08-28T19:12:54Z</time>
  <course>276.34</course>
  <speed>0.61</speed>
  <fix>3d</fix>
</trkpt>
<trkpt lat="40.0728159" lon="-105.2303634">
  <ele>1602.12</ele>
  <time>2026-08-28T19:12:54Z</time>
  <course>9.99</course>
  <speed>1.0381714694596456</speed>
  <fix>3d</fix>
</trkpt>
<trkpt lat="40.0728158" lon="-105.2303618">
  <ele>1602.01</ele>
  <time>2026-08-28T19:12:54Z</time>
  <course>277.22</course>
  <speed>0.85</speed>
  <fix>3d</fix>
</trkpt>
<trkpt lat="40.0728162" lon="-105.2303661">
  <ele>1602.13</ele>
  <time>2026-08-28T19:12:54Z</time>
  <course>7.75</course>
  <speed>1.281327436684316</speed>
  <fix>3d</fix>
</trkpt>
<trkpt lat="40.0728159" lon="-105.2303642">
  <ele>1602.02</ele>
  <time>2026-08-28T19:12:54Z</time>
  <course>277.7</course>
  <speed>1.1</speed>
  <fix>3d</fix>
</trkpt>
<trkpt lat="40.0728165" lon="-105.2303693">
  <ele>1602.14</ele>
  <time>2026-08-28T19:12:54Z</time>
  <course>0.71</course>
  <speed>1.5245327152934436</speed>
  <fix>3d</fix>
</trkpt>
<trkpt lat="40.0728163" lon="-105.230367">
  <ele>1602.03</ele>
  <time>2026-08-28T19:12:54Z</time>
  <course>277.95</course>
  <speed>1.35</speed>
  <fix>3d</fix>
</trkpt>
<trkpt lat="40.0728169" lon="-105.230373">
  <ele>1602.15</ele>
  <time>2026-08-28T19:12:54Z</time>
  <course>350.59</course>
  <speed>1.7677669529663689</speed>
  <fix>3d</fix>
</trkpt>
<trkpt lat="40.0728167" lon="-105.2303704">
  <ele>1602.04</ele>
  <time>2026-08-28T19:12:54Z</time>
  <course>278.18</course>
  <speed>1.59</speed>
  <fix>3d</fix>
</trkpt>
<trkpt lat="40.0728174" lon="-105.2303774">
  <ele>1602.16</ele>
  <time>2026-08-28T19:12:54Z</time>
  <course>338.77</course>
  <speed>2.0011246837716037</speed>
  <fix>3d</fix>
</trkpt>
<trkpt lat="40.0728171" lon="-105.2303745">
  <ele>1602.05</ele>
  <time>2026-08-28T19:12:54Z</time>
  <course>278.46</course>
  <speed>1.84</speed>
  <fix>3d</fix>
</trkpt>
<trkpt lat="40.072818" lon="-105.2303822">
  <ele>1602.16</ele>
  <time>2026-08-28T19:12:54Z</time>
  <course>326.07</course>
  <speed>2.226117696798622</speed>
  <fix>3d</fix>
</trkpt>
<trkpt lat="40.0728176" lon="-105.230379">
  <ele>1602.05</ele>
  <time>2026-08-28T19:12:54Z</time>
  <course>278.72</course>
  <speed>2.07</speed>
  <fix>3d</fix>
</trkpt>
<trkpt lat="40.0728186" lon="-105.2303876">
  <ele>1602.16</ele>
  <time>2026-08-28T19:12:54Z</time>
  <course>312.97</course>
  <speed>2.42835335155327</speed>
  <fix>3d</fix>
</trkpt>
<trkpt lat="40.0728182" lon="-105.2303841">
  <ele>1602.04</ele>
  <time>2026-08-28T19:12:54Z</time>
  <course>278.91</course>
  <speed>2.3</speed>
  <fix>3d</fix>
</trkpt>
<trkpt lat="40.0728193" lon="-105.2303934">
  <ele>1602.16</ele>
  <time>2026-08-28T19:12:54Z</time>
  <course>299.75</course>
  <speed>2.6009421369957466</speed>
  <fix>3d</fix>
</trkpt>
<trkpt lat="40.0728189" lon="-105.2303896">
  <ele>1602.04</ele>
  <time>2026-08-28T19:12:54Z</time>
  <course>279.02</course>
  <speed>2.5</speed>
  <fix>3d</fix>
</trkpt>
<trkpt lat="40.0728201" lon="-105.2303996">
  <ele>1602.16</ele>
  <time>2026-08-28T19:12:54Z</time>
  <course>286.93</course>
  <speed>2.743902330623304</speed>
  <fix>3d</fix>
</trkpt>
<trkpt lat="40.0728196" lon="-105.2303957">
  <ele>1602.04</ele>
  <time>2026-08-28T19:12:54Z</time>
  <course>279.11</course>
  <speed>2.67</speed>
  <fix>3d</fix>
</trkpt>
<trkpt lat="40.0728209" lon="-105.2304061">
  <ele>1602.15</ele>
  <time>2026-08-28T19:12:54Z</time>
  <course>278.12</course>
  <speed>2.867141433553636</speed>
  <fix>3d</fix>
</trkpt>
<trkpt lat="40.0728204" lon="-105.230402">
  <ele>1602.04</ele>
  <time>2026-08-28T19:12:54Z</time>
  <course>279.21</course>
  <speed>2.81</speed>
  <fix>3d</fix>
</trkpt>
<trkpt lat="40.0728218" lon="-105.2304129">
  <ele>1602.15</ele>
  <time>2026-08-28T19:12:54Z</time>
  <course>274.33</course>
  <speed>2.9690570893803976</speed>
  <fix>3d</fix>
</trkpt>
<trkpt lat="40.0728213" lon="-105.2304087">
  <ele>1602.03</ele>
  <time>2026-08-28T19:12:54Z</time>
  <course>279.33</course>
  <speed>2.92</speed>
  <fix>3d</fix>
</trkpt>
<trkpt lat="40.0728226" lon="-105.23042">
  <ele>1602.15</ele>
  <time>2026-08-28T19:12:54Z</time>
  <course>274.04</course>
  <speed>3.051245647272602</speed>
  <fix>3d</fix>
</trkpt>
<trkpt lat="40.0728221" lon="-105.2304156">
  <ele>1602.03</ele>
  <time>2026-08-28T19:12:54Z</time>
  <course>279.45</course>
  <speed>3.02</speed>
  <fix>3d</fix>
</trkpt>
<trkpt lat="40.0728236" lon="-105.2304271">
  <ele>1602.14</ele>
  <time>2026-08-28T19:12:54Z</time>
  <course>275.36</course>
  <speed>3.1219385003551876</speed>
  <fix>3d</fix>
</trkpt>
<trkpt lat="40.072823" lon="-105.2304227">
  <ele>1602.03</ele>
  <time>2026-08-28T19:12:54Z</time>
  <course>279.53</course>
  <speed>3.1</speed>
  <fix>3d</fix>
</trkpt>
<trkpt lat="40.0728245" lon="-105.2304345">
  <ele>1602.14</ele>
  <time>2026-08-28T19:12:54Z</time>
  <course>277.0</course>
  <speed>3.1729008808974792</speed>
  <fix>3d</fix>
</trkpt>
<trkpt lat="40.072824" lon="-105.2304299">
  <ele>1602.03</ele>
  <time>2026-08-28T19:12:54Z</time>
  <course>279.58</course>
  <speed>3.16</speed>
  <fix>3d</fix>
</trkpt>
<trkpt lat="40.0728255" lon="-105.2304419">
  <ele>1602.14</ele>
  <time>2026-08-28T19:12:54Z</time>
  <course>278.24</course>
  <speed>3.2238641410580566</speed>
  <fix>3d</fix>
</trkpt>
<trkpt lat="40.0728249" lon="-105.2304374">
  <ele>1602.03</ele>
  <time>2026-08-28T19:12:54Z</time>
  <course>279.59</course>
  <speed>3.21</speed>
  <fix>3d</fix>
</trkpt>
<trkpt lat="40.0728264" lon="-105.2304495">
  <ele>1602.14</ele>
  <time>2026-08-28T19:12:54Z</time>
  <course>278.86</course>
  <speed>3.253459696999488</speed>
  <fix>3d</fix>
</trkpt>
<trkpt lat="40.0728259" lon="-105.2304449">
  <ele>1602.04</ele>
  <time>2026-08-28T19:12:54Z</time>
  <course>279.57</course>
  <speed>3.25</speed>
  <fix>3d</fix>
</trkpt>
<trkpt lat="40.0728274" lon="-105.2304571">
  <ele>1602.14</ele>
  <time>2026-08-28T19:12:54Z</time>
  <course>278.99</course>
  <speed>3.263326523656497</speed>
  <fix>3d</fix>
</trkpt>
<trkpt lat="40.0728268" lon="-105.2304525">
  <ele>1602.04</ele>
  <time>2026-08-28T19:12:54Z</time>
  <course>279.54</course>
  <speed>3.28</speed>
  <fix>3d</fix>
</trkpt>
<trkpt lat="40.0728284" lon="-105.2304647">
  <ele>1602.14</ele>
  <time>2026-08-28T19:12:54Z</time>
  <course>278.85</course>
  <speed>3.2731941586163202</speed>
  <fix>3d</fix>
</trkpt>
<trkpt lat="40.0728279" lon="-105.23046">
  <ele>1602.04</ele>
  <time>2026-08-28T19:12:54Z</time>
  <course>279.49</course>
  <speed>3.29</speed>
  <fix>3d</fix>
</trkpt>
<trkpt lat="40.0728294" lon="-105.2304724">
  <ele>1602.14</ele>
  <time>2026-08-28T19:12:54Z</time>
  <course>278.65</course>
  <speed>3.2731941586163202</speed>
  <fix>3d</fix>
</trkpt>
<trkpt lat="40.0728288" lon="-105.2304676">
  <ele>1602.04</ele>
  <time>2026-08-28T19:12:54Z</time>
  <course>279.45</course>
  <speed>3.29</speed>
  <fix>3d</fix>
</trkpt>
<trkpt lat="40.0728303" lon="-105.23048">
  <ele>1602.14</ele>
  <time>2026-08-28T19:12:54Z</time>
  <course>278.48</course>
  <speed>3.292931824377784</speed>
  <fix>3d</fix>
</trkpt>
<trkpt lat="40.0728297" lon="-105.2304753">
  <ele>1602.05</ele>
  <time>2026-08-28T19:12:54Z</time>
  <course>279.41</course>
  <speed>3.29</speed>
  <fix>3d</fix>
</trkpt>
<trkpt lat="40.0728313" lon="-105.2304877">
  <ele>1602.15</ele>
  <time>2026-08-28T19:12:54Z</time>
  <course>278.37</course>
  <speed>3.3126726370107864</speed>
  <fix>3d</fix>
</trkpt>
<trkpt lat="40.0728308" lon="-105.2304829">
  <ele>1602.05</ele>
  <time>2026-08-28T19:12:54Z</time>
  <course>279.37</course>
  <speed>3.31</speed>
  <fix>3d</fix>
</trkpt>
<trkpt lat="40.0728323" lon="-105.2304955">
  <ele>1602.15</ele>
  <time>2026-08-28T19:12:54Z</time>
  <course>278.31</course>
  <speed>3.3126726370107864</speed>
  <fix>3d</fix>
</trkpt>
<trkpt lat="40.0728318" lon="-105.2304906">
  <ele>1602.05</ele>
  <time>2026-08-28T19:12:54Z</time>
  <course>279.32</course>
  <speed>3.32</speed>
  <fix>3d</fix>
</trkpt>
<trkpt lat="40.0728332" lon="-105.2305031">
  <ele>1602.15</ele>
  <time>2026-08-28T19:12:54Z</time>
  <course>278.28</course>
  <speed>3.2913371143047625</speed>
  <fix>3d</fix>
</trkpt>
<trkpt lat="40.0728327" lon="-105.2304983">
  <ele>1602.06</ele>
  <time>2026-08-28T19:12:54Z</time>
  <course>279.27</course>
  <speed>3.31</speed>
  <fix>3d</fix>
</trkpt>
<trkpt lat="40.0728342" lon="-105.2305108">
  <ele>1602.15</ele>
  <time>2026-08-28T19:12:54Z</time>
  <course>278.27</course>
  <speed>3.240385779502188</speed>
  <fix>3d</fix>
</trkpt>
<trkpt lat="40.0728336" lon="-105.230506">
  <ele>1602.06</ele>
  <time>2026-08-28T19:12:54Z</time>
  <course>279.22</course>
  <speed>3.28</speed>
  <fix>3d</fix>
</trkpt>
<trkpt lat="40.0728351" lon="-105.2305182">
  <ele>1602.16</ele>
  <time>2026-08-28T19:12:54Z</time>
  <course>278.26</course>
  <speed>3.1696845268890717</speed>
  <fix>3d</fix>
</trkpt>
<trkpt lat="40.0728346" lon="-105.2305136">
  <ele>1602.06</ele>
  <time>2026-08-28T19:12:54Z</time>
  <course>279.19</course>
  <speed>3.23</speed>
  <fix>3d</fix>
</trkpt>
<trkpt lat="40.072836" lon="-105.2305255">
  <ele>1602.16</ele>
  <time>2026-08-28T19:12:54Z</time>
  <course>278.25</course>
  <speed>3.067784216661922</speed>
  <fix>3d</fix>
</trkpt>
<trkpt lat="40.0728355" lon="-105.230521">
  <ele>1602.06</ele>
  <time>2026-08-28T19:12:54Z</time>
  <course>279.16</course>
  <speed>3.15</speed>
  <fix>3d</fix>
</trkpt>
<trkpt lat="40.0728369" lon="-105.2305325">
  <ele>1602.16</ele>
  <time>2026-08-28T19:12:54Z</time>
  <course>278.24</course>
  <speed>2.9362561196189954</speed>
  <fix>3d</fix>
</trkpt>
<trkpt lat="40.0728364" lon="-105.2305282">
  <ele>1602.07</ele>
  <time>2026-08-28T19:12:54Z</time>
  <course>279.14</course>
  <speed>3.04</speed>
  <fix>3d</fix>
</trkpt>
<trkpt lat="40.0728377" lon="-105.2305392">
  <ele>1602.17</ele>
  <time>2026-08-28T19:12:54Z</time>
  <course>278.23</course>
  <speed>2.783415168457627</speed>
  <fix>3d</fix>
</trkpt>
<trkpt lat="40.0728373" lon="-105.230535">
  <ele>1602.07</ele>
  <time>2026-08-28T19:12:54Z</time>
  <course>279.13</course>
  <speed>2.9</speed>
  <fix>3d</fix>
</trkpt>
<trkpt lat="40.0728384" lon="-105.2305455">
  <ele>1602.18</ele>
  <time>2026-08-28T19:12:54Z</time>
  <course>278.2</course>
  <speed>2.5910615585122634</speed>
  <fix>3d</fix>
</trkpt>
<trkpt lat="40.0728381" lon="-105.2305416">
  <ele>1602.08</ele>
  <time>2026-08-28T19:12:54Z</time>
  <course>279.12</course>
  <speed>2.73</speed>
  <fix>3d</fix>
</trkpt>
<trkpt lat="40.0728392" lon="-105.2305513">
  <ele>1602.18</ele>
  <time>2026-08-28T19:12:54Z</time>
  <course>278.17</course>
  <speed>2.367530358833863</speed>
  <fix>3d</fix>
</trkpt>
<trkpt lat="40.0728388" lon="-105.2305477">
  <ele>1602.09</ele>
  <time>2026-08-28T19:12:54Z</time>
  <course>279.11</course>
  <speed>2.53</speed>
  <fix>3d</fix>
</trkpt>
<trkpt lat="40.0728398" lon="-105.2305565">
  <ele>1602.18</ele>
  <time>2026-08-28T19:12:54Z</time>
  <course>278.15</course>
  <speed>2.124241040936739</speed>
  <fix>3d</fix>
</trkpt>
<trkpt lat="40.0728395" lon="-105.2305533">
  <ele>1602.09</ele>
  <time>2026-08-28T19:12:54Z</time>
  <course>279.1</course>
  <speed>2.31</speed>
  <fix>3d</fix>
</trkpt>
<trkpt lat="40.0728404" lon="-105.2305612">
  <ele>1602.18</ele>
  <time>2026-08-28T19:12:54Z</time>
  <course>278.12</course>
  <speed>1.85129684275645</speed>
  <fix>3d</fix>
</trkpt>
<trkpt lat="40.07284" lon="-105.2305583">
  <ele>1602.1</ele>
  <time>2026-08-28T19:12:54Z</time>
  <course>279.1</course>
  <speed>2.05</speed>
  <fix>3d</fix>
</trkpt>
<trkpt lat="40.0728409" lon="-105.2305652">
  <ele>1602.18</ele>
  <time>2026-08-28T19:12:54Z</time>
  <course>278.09</course>
  <speed>1.5783535725559088</speed>
  <fix>3d</fix>
</trkpt>
<trkpt lat="40.0728406" lon="-105.2305629">
  <ele>1602.1</ele>
  <time>2026-08-28T19:12:54Z</time>
  <course>279.12</course>
  <speed>1.78</speed>
  <fix>3d</fix>
</trkpt>
<trkpt lat="40.0728413" lon="-105.2305686">
  <ele>1602.18</ele>
  <time>2026-08-28T19:12:54Z</time>
  <course>278.04</course>
  <speed>1.3138112497615477</speed>
  <fix>3d</fix>
</trkpt>
<trkpt lat="40.0728411" lon="-105.2305667">
  <ele>1602.1</ele>
  <time>2026-08-28T19:12:54Z</time>
  <course>279.16</course>
  <speed>1.5</speed>
  <fix>3d</fix>
</trkpt>
<trkpt lat="40.0728416" lon="-105.2305714">
  <ele>1602.18</ele>
  <time>2026-08-28T19:12:54Z</time>
  <course>278.0</course>
  <speed>1.0720074626605918</speed>
  <fix>3d</fix>
</trkpt>
<trkpt lat="40.0728415" lon="-105.2305698">
  <ele>1602.1</ele>
  <time>2026-08-28T19:12:54Z</time>
  <course>279.21</course>
  <speed>1.24</speed>
  <fix>3d</fix>
</trkpt>
<trkpt lat="40.0728419" lon="-105.2305737">
  <ele>1602.18</ele>
  <time>2026-08-28T19:12:54Z</time>
  <course>277.95</course>
  <speed>0.8584287972802404</speed>
  <fix>3d</fix>
</trkpt>
<trkpt lat="40.0728418" lon="-105.2305724">
  <ele>1602.1</ele>
  <time>2026-08-28T19:12:54Z</time>
  <course>279.25</course>
  <speed>1.0</speed>
  <fix>3d</fix>
</trkpt>
<trkpt lat="40.0728421" lon="-105.2305755">
  <ele>1602.17</ele>
  <time>2026-08-28T19:12:54Z</time>
  <course>277.91</course>
  <speed>0.6661080993352355</speed>
  <fix>3d</fix>
</trkpt>
<trkpt lat="40.0728421" lon="-105.2305746">
  <ele>1602.1</ele>
  <time>2026-08-28T19:12:54Z</time>
  <course>279.24</course>
  <speed>0.79</speed>
  <fix>3d</fix>
</trkpt>
<trkpt lat="40.0728423" lon="-105.2305769">
  <ele>1602.17</ele>
  <time>2026-08-28T19:12:54Z</time>
  <course>277.9</course>
  <speed>0.5048762224545735</speed>
  <fix>3d</fix>
</trkpt>
<trkpt lat="40.0728423" lon="-105.2305762">
  <ele>1602.1</ele>
  <time>2026-08-28T19:12:54Z</time>
  <course>279.12</course>
  <speed>0.61</speed>
  <fix>3d</fix>
</trkpt>
<trkpt lat="40.0728424" lon="-105.2305779">
  <ele>1602.17</ele>
  <time>2026-08-28T19:12:54Z</time>
  <course>277.91</course>
  <speed>0.37336309405188944</speed>
  <fix>3d</fix>
</trkpt>
<trkpt lat="40.0728425" lon="-105.2305774">
  <ele>1602.1</ele>
  <time>2026-08-28T19:12:54Z</time>
  <course>278.85</course>
  <speed>0.45</speed>
  <fix>3d</fix>
</trkpt>
<trkpt lat="40.0728425" lon="-105.2305787">
  <ele>1602.17</ele>
  <time>2026-08-28T19:12:54Z</time>
  <course>277.93</course>
  <speed>0.261725046566048</speed>
  <fix>3d</fix>
</trkpt>
<trkpt lat="40.0728426" lon="-105.2305783">
  <ele>1602.1</ele>
  <time>2026-08-28T19:12:54Z</time>
  <course>278.35</course>
  <speed>0.33</speed>
  <fix>3d</fix>
</trkpt>
<trkpt lat="40.0728426" lon="-105.2305792">
  <ele>1602.18</ele>
  <time>2026-08-28T19:12:54Z</time>
  <course>277.96</course>
  <speed>0.18110770276274835</speed>
  <fix>3d</fix>
</trkpt>
<trkpt lat="40.0728426" lon="-105.230579">
  <ele>1602.1</ele>
  <time>2026-08-28T19:12:54Z</time>
  <course>277.35</course>
  <speed>0.23</speed>
  <fix>3d</fix>
</trkpt>
<trkpt lat="40.0728426" lon="-105.2305796">
  <ele>1602.18</ele>
  <time>2026-08-28T19:12:54Z</time>
  <course>277.98</course>
  <speed>0.130384048104053</speed>
  <fix>3d</fix>
</trkpt>
<trkpt lat="40.0728426" lon="-105.2305794">
  <ele>1602.11</ele>
  <time>2026-08-28T19:12:54Z</time>
  <course>275.32</course>
  <speed>0.15</speed>
  <fix>3d</fix>
</trkpt>
<trkpt lat="40.0728426" lon="-105.2305799">
  <ele>1602.18</ele>
  <time>2026-08-28T19:12:54Z</time>
  <course>277.99</course>
  <speed>0.11045361017187261</speed>
  <fix>3d</fix>
</trkpt>
<trkpt lat="40.0728426" lon="-105.2305797">
  <ele>1602.11</ele>
  <time>2026-08-28T19:12:54Z</time>
  <course>272.01</course>
  <speed>0.11</speed>
  <fix>3d</fix>
</trkpt>
<trkpt lat="40.0728426" lon="-105.2305801">
  <ele>1602.19</ele>
  <time>2026-08-28T19:12:54Z</time>
  <course>278.13</course>
  <speed>0.1</speed>
  <fix>3d</fix>
</trkpt>
<trkpt lat="40.0728426" lon="-105.23058">
  <ele>1602.11</ele>
  <time>2026-08-28T19:12:54Z</time>
  <course>268.49</course>
  <speed>0.09</speed>
  <fix>3d</fix>
</trkpt>
<trkpt lat="40.0728426" lon="-105.2305803">
  <ele>1602.2</ele>
  <time>2026-08-28T19:12:54Z</time>
  <course>281.78</course>
  <speed>0.09055385138137417</speed>
  <fix>3d</fix>
</trkpt>
<trkpt lat="40.0728426" lon="-105.2305801">
  <ele>1602.12</ele>
  <time>2026-08-28T19:12:54Z</time>
  <course>266.09</course>
  <speed>0.08</speed>
  <fix>3d</fix>
</trkpt>
<trkpt lat="40.0728426" lon="-105.2305805">
  <ele>1602.2</ele>
  <time>2026-08-28T19:12:54Z</time>
  <course>289.83</course>
  <speed>0.08</speed>
  <fix>3d</fix>
</trkpt>
<trkpt lat="40.0728426" lon="-105.2305804">
  <ele>1602.12</ele>
  <time>2026-08-28T19:12:54Z</time>
  <course>263.6</course>
  <speed>0.08</speed>
  <fix>3d</fix>
</trkpt>
<trkpt lat="40.0728426" lon="-105.2305807">
  <ele>1602.21</ele>
  <time>2026-08-28T19:12:54Z</time>
  <course>300.48</course>
  <speed>0.06</speed>
  <fix>3d</fix>
</trkpt>
<trkpt lat="40.0728426" lon="-105.2305806">
  <ele>1602.12</ele>
  <time>2026-08-28T19:12:54Z</time>
  <course>258.59</course>
  <speed>0.07</speed>
  <fix>3d</fix>
</trkpt>
<trkpt lat="40.0728426" lon="-105.2305808">
  <ele>1602.2</ele>
  <time>2026-08-28T19:12:54Z</time>
  <course>312.54</course>
  <speed>0.03</speed>
  <fix>3d</fix>
</trkpt>
<trkpt lat="40.0728426" lon="-105.2305807">
  <ele>1602.11</ele>
  <time>2026-08-28T19:12:54Z</time>
  <course>248.97</course>
  <speed>0.05</speed>
  <fix>3d</fix>
</trkpt>
<trkpt lat="40.0728426" lon="-105.2305808">
  <ele>1602.2</ele>
  <time>2026-08-28T19:12:54Z</time>
  <course>325.26</course>
  <speed>0.0</speed>
  <fix>3d</fix>
</trkpt>
<trkpt lat="40.0728426" lon="-105.2305808">
  <ele>1602.11</ele>
  <time>2026-08-28T19:12:54Z</time>
  <course>229.53</course>
  <speed>0.03</speed>
  <fix>3d</fix>
</trkpt>
<trkpt lat="40.0728426" lon="-105.2305808">
  <ele>1602.19</ele>
  <time>2026-08-28T19:12:54Z</time>
  <course>338.23</course>
  <speed>0.02</speed>
  <fix>3d</fix>
</trkpt>
<trkpt lat="40.0728426" lon="-105.2305808">
  <ele>1602.1</ele>
  <time>2026-08-28T19:12:54Z</time>
  <course>188.32</course>
  <speed>0.03</speed>
  <fix>3d</fix>
</trkpt>
<trkpt lat="40.0728426" lon="-105.2305807">
  <ele>1602.18</ele>
  <time>2026-08-28T19:12:54Z</time>
  <course>351.25</course>
  <speed>0.05</speed>
  <fix>3d</fix>
</trkpt>
<trkpt lat="40.0728426" lon="-105.2305808">
  <ele>1602.1</ele>
  <time>2026-08-28T19:12:54Z</time>
  <course>148.0</course>
  <speed>0.04</speed>
  <fix>3d</fix>
</trkpt>
<trkpt lat="40.0728425" lon="-105.2305805">
  <ele>1602.18</ele>
  <time>2026-08-28T19:12:54Z</time>
  <course>3.66</course>
  <speed>0.08062257748298549</speed>
  <fix>3d</fix>
</trkpt>
<trkpt lat="40.0728425" lon="-105.2305808">
  <ele>1602.1</ele>
  <time>2026-08-28T19:12:54Z</time>
  <course>128.9</course>
  <speed>0.06</speed>
  <fix>3d</fix>
</trkpt>
<trkpt lat="40.0728425" lon="-105.2305804">
  <ele>1602.18</ele>
  <time>2026-08-28T19:12:54Z</time>
  <course>11.98</course>
  <speed>0.11045361017187261</speed>
  <fix>3d</fix>
</trkpt>
<trkpt lat="40.0728424" lon="-105.2305806">
  <ele>1602.1</ele>
  <time>2026-08-28T19:12:54Z</time>
  <course>119.11</course>
  <speed>0.08</speed>
  <fix>3d</fix>
</trkpt>
<trkpt lat="40.0728424" lon="-105.2305802">
  <ele>1602.18</ele>
  <time>2026-08-28T19:12:54Z</time>
  <course>15.6</course>
  <speed>0.130384048104053</speed>
  <fix>3d</fix>
</trkpt>
<trkpt lat="40.0728424" lon="-105.2305805">
  <ele>1602.1</ele>
  <time>2026-08-28T19:12:54Z</time>
  <course>113.4</course>
  <speed>0.1</speed>
  <fix>3d</fix>
</trkpt>
<trkpt lat="40.0728424" lon="-105.2305799">
  <ele>1602.18</ele>
  <time>2026-08-28T19:12:54Z</time>
  <course>15.97</course>
  <speed>0.15033296378372907</speed>
  <fix>3d</fix>
</trkpt>
<trkpt lat="40.0728423" lon="-105.2305802">
  <ele>1602.1</ele>
  <time>2026-08-28T19:12:54Z</time>
  <course>109.62</course>
  <speed>0.11</speed>
  <fix>3d</fix>
</trkpt>
<trkpt lat="40.0728423" lon="-105.2305796">
  <ele>1602.18</ele>
  <time>2026-08-28T19:12:54Z</time>
  <course>14.79</course>
  <speed>0.17029386365926402</speed>
  <fix>3d</fix>
</trkpt>
<trkpt lat="40.0728422" lon="-105.23058">
  <ele>1602.1</ele>
  <time>2026-08-28T19:12:54Z</time>
  <course>106.75</course>
  <speed>0.13</speed>
  <fix>3d</fix>
</trkpt>
<trkpt lat="40.0728423" lon="-105.2305792">
  <ele>1602.18</ele>
  <time>2026-08-28T19:12:54Z</time>
  <course>13.31</course>
  <speed>0.18027756377319945</speed>
  <fix>3d</fix>
</trkpt>
<trkpt lat="40.0728421" lon="-105.2305796">
  <ele>1602.1</ele>
  <time>2026-08-28T19:12:54Z</time>
  <course>104.45</course>
  <speed>0.14</speed>
  <fix>3d</fix>
</trkpt>
<trkpt lat="40.0728422" lon="-105.2305788">
  <ele>1602.18</ele>
  <time>2026-08-28T19:12:54Z</time>
  <course>12.21</course>
  <speed>0.19026297590440447</speed>
  <fix>3d</fix>
</trkpt>
<trkpt lat="40.072842" lon="-105.2305793">
  <ele>1602.1</ele>
  <time>2026-08-28T19:12:54Z</time>
  <course>102.43</course>
  <speed>0.15</speed>
  <fix>3d</fix>
</trkpt>
<trkpt lat="40.0728421" lon="-105.2305785">
  <ele>1602.18</ele>
  <time>2026-08-28T19:12:54Z</time>
  <course>11.65</course>
  <speed>0.19026297590440447</speed>
  <fix>3d</fix>
</trkpt>
<trkpt lat="40.072842" lon="-105.2305789">
  <ele>1602.1</ele>
  <time>2026-08-28T19:12:54Z</time>
  <course>100.57</course>
  <speed>0.15</speed>
  <fix>3d</fix>
</trkpt>
<trkpt lat="40.0728421" lon="-105.2305781">
  <ele>1602.17</ele>
  <time>2026-08-28T19:12:54Z</time>
  <course>11.51</course>
  <speed>0.19</speed>
  <fix>3d</fix>
</trkpt>
<trkpt lat="40.072842" lon="-105.2305786">
  <ele>1602.1</ele>
  <time>2026-08-28T19:12:54Z</time>
  <course>98.71</course>
  <speed>0.15</speed>
  <fix>3d</fix>
</trkpt>
<trkpt lat="40.072842" lon="-105.2305777">
  <ele>1602.17</ele>
  <time>2026-08-28T19:12:54Z</time>
  <course>11.6</course>
  <speed>0.19</speed>
  <fix>3d</fix>
</trkpt>
<trkpt lat="40.072842" lon="-105.2305782">
  <ele>1602.1</ele>
  <time>2026-08-28T19:12:54Z</time>
  <course>97.04</course>
  <speed>0.15</speed>
  <fix>3d</fix>
</trkpt>
<trkpt lat="40.072842" lon="-105.2305774">
  <ele>1602.17</ele>
  <time>2026-08-28T19:12:54Z</time>
  <course>11.75</course>
  <speed>0.18</speed>
  <fix>3d</fix>
</trkpt>
<trkpt lat="40.0728419" lon="-105.2305778">
  <ele>1602.1</ele>
  <time>2026-08-28T19:12:54Z</time>
  <course>95.26</course>
  <speed>0.15</speed>
  <fix>3d</fix>
</trkpt>
<trkpt lat="40.072842" lon="-105.230577">
  <ele>1602.18</ele>
  <time>2026-08-28T19:12:54Z</time>
  <course>11.87</course>
  <speed>0.17</speed>
  <fix>3d</fix>
</trkpt>
<trkpt lat="40.0728419" lon="-105.2305775">
  <ele>1602.11</ele>
  <time>2026-08-28T19:12:54Z</time>
  <course>93.5</course>
  <speed>0.14</speed>
  <fix>3d</fix>
</trkpt>
<trkpt lat="40.072842" lon="-105.2305767">
  <ele>1602.18</ele>
  <time>2026-08-28T19:12:54Z</time>
  <course>11.93</course>
  <speed>0.16</speed>
  <fix>3d</fix>
</trkpt>
<trkpt lat="40.0728419" lon="-105.2305772">
  <ele>1602.11</ele>
  <time>2026-08-28T19:12:54Z</time>
  <course>91.91</course>
  <speed>0.13</speed>
  <fix>3d</fix>
</trkpt>
<trkpt lat="40.072842" lon="-105.2305764">
  <ele>1602.18</ele>
  <time>2026-08-28T19:12:54Z</time>
  <course>11.94</course>
  <speed>0.15</speed>
  <fix>3d</fix>
</trkpt>
<trkpt lat="40.0728419" lon="-105.2305769">
  <ele>1602.11</ele>
  <time>2026-08-28T19:12:54Z</time>
  <course>90.19</course>
  <speed>0.12</speed>
  <fix>3d</fix>
</trkpt>
<trkpt lat="40.072842" lon="-105.2305761">
  <ele>1602.19</ele>
  <time>2026-08-28T19:12:54Z</time>
  <course>11.92</course>
  <speed>0.14</speed>
  <fix>3d</fix>
</trkpt>
<trkpt lat="40.0728419" lon="-105.2305766">
  <ele>1602.11</ele>
  <time>2026-08-28T19:12:54Z</time>
  <course>88.32</course>
  <speed>0.11</speed>
  <fix>3d</fix>
</trkpt>
<trkpt lat="40.072842" lon="-105.2305759">
  <ele>1602.19</ele>
  <time>2026-08-28T19:12:54Z</time>
  <course>11.9</course>
  <speed>0.13</speed>
  <fix>3d</fix>
</trkpt>
<trkpt lat="40.0728419" lon="-105.2305763">
  <ele>1602.11</ele>
  <time>2026-08-28T19:12:54Z</time>
  <course>86.14</course>
  <speed>0.1</speed>
  <fix>3d</fix>
</trkpt>
<trkpt lat="40.072842" lon="-105.2305757">
  <ele>1602.19</ele>
  <time>2026-08-28T19:12:54Z</time>
  <course>11.88</course>
  <speed>0.11</speed>
  <fix>3d</fix>
</trkpt>
<trkpt lat="40.0728419" lon="-105.2305761">
  <ele>1602.11</ele>
  <time>2026-08-28T19:12:54Z</time>
  <course>83.75</course>
  <speed>0.09</speed>
  <fix>3d</fix>
</trkpt>
<trkpt lat="40.072842" lon="-105.2305755">
  <ele>1602.19</ele>
  <time>2026-08-28T19:12:54Z</time>
  <course>11.87</course>
  <speed>0.1</speed>
  <fix>3d</fix>
</trkpt>
<trkpt lat="40.0728419" lon="-105.2305759">
  <ele>1602.1</ele>
  <time>2026-08-28T19:12:54Z</time>
  <course>80.78</course>
  <speed>0.07</speed>
  <fix>3d</fix>
</trkpt>
<trkpt lat="40.072842" lon="-105.2305754">
  <ele>1602.17</ele>
  <time>2026-08-28T19:12:54Z</time>
  <course>11.86</course>
  <speed>0.08</speed>
  <fix>3d</fix>
</trkpt>
<trkpt lat="40.0728419" lon="-105.2305758">
  <ele>1602.1</ele>
  <time>2026-08-28T19:12:54Z</time>
  <course>77.05</course>
  <speed>0.06</speed>
  <fix>3d</fix>
</trkpt>
<trkpt lat="40.072842" lon="-105.2305753">
  <ele>1602.12</ele>
  <time>2026-08-28T19:12:54Z</time>
  <course>11.85</course>
  <speed>0.07</speed>
  <fix>3d</fix>
</trkpt>
<trkpt lat="40.0728419" lon="-105.2305756">
  <ele>1602.08</ele>
  <time>2026-08-28T19:12:54Z</time>
  <course>72.44</course>
  <speed>0.05</speed>
  <fix>3d</fix>
</trkpt>
<trkpt lat="40.072842" lon="-105.2305752">
  <ele>1602.03</ele>
  <time>2026-08-28T19:12:54Z</time>
  <course>11.85</course>
  <speed>0.06</speed>
  <fix>3d</fix>
</trkpt>
<trkpt lat="40.0728419" lon="-105.2305755">
  <ele>1602.01</ele>
  <time>2026-08-28T19:12:54Z</time>
  <course>66.57</course>
  <speed>0.04</speed>
  <fix>3d</fix>
</trkpt>
<trkpt lat="40.072842" lon="-105.2305751">
  <ele>1601.89</ele>
  <time>2026-08-28T19:12:54Z</time>
  <course>11.84</course>
  <speed>0.05</speed>
  <fix>3d</fix>
</trkpt>
<trkpt lat="40.072842" lon="-105.2305754">
  <ele>1601.9</ele>
  <time>2026-08-28T19:12:54Z</time>
  <course>58.55</course>
  <speed>0.03</speed>
  <fix>3d</fix>
</trkpt>
<trkpt lat="40.072842" lon="-105.2305751">
  <ele>1601.71</ele>
  <time>2026-08-28T19:12:54Z</time>
  <course>11.83</course>
  <speed>0.04</speed>
  <fix>3d</fix>
</trkpt>
<trkpt lat="40.072842" lon="-105.2305753">
  <ele>1601.76</ele>
  <time>2026-08-28T19:12:54Z</time>
  <course>46.96</course>
  <speed>0.02</speed>
  <fix>3d</fix>
</trkpt>
<trkpt lat="40.072842" lon="-105.2305751">
  <ele>1601.49</ele>
  <time>2026-08-28T19:12:54Z</time>
  <course>11.82</course>
  <speed>0.03</speed>
  <fix>3d</fix>
</trkpt>
<trkpt lat="40.072842" lon="-105.2305753">
  <ele>1601.56</ele>
  <time>2026-08-28T19:12:54Z</time>
  <course>30.92</course>
  <speed>0.02</speed>
  <fix>3d</fix>
</trkpt>
<trkpt lat="40.072842" lon="-105.2305751">
  <ele>1601.23</ele>
  <time>2026-08-28T19:12:54Z</time>
  <course>11.82</course>
  <speed>0.02</speed>
  <fix>3d</fix>
</trkpt>
<trkpt lat="40.072842" lon="-105.2305753">
  <ele>1601.33</ele>
  <time>2026-08-28T19:12:54Z</time>
  <course>12.7</course>
  <speed>0.02</speed>
  <fix>3d</fix>
</trkpt>
<trkpt lat="40.072842" lon="-105.2305751">
  <ele>1600.94</ele>
  <time>2026-08-28T19:12:54Z</time>
  <course>11.81</course>
  <speed>0.02</speed>
  <fix>3d</fix>
</trkpt>
<trkpt lat="40.072842" lon="-105.2305753">
  <ele>1601.06</ele>
  <time>2026-08-28T19:12:54Z</time>
  <course>354.39</course>
  <speed>0.02</speed>
  <fix>3d</fix>
</trkpt>
<trkpt lat="40.0728421" lon="-105.2305751">
  <ele>1600.63</ele>
  <time>2026-08-28T19:12:54Z</time>
  <course>11.8</course>
  <speed>0.01</speed>
  <fix>3d</fix>
</trkpt>
<trkpt lat="40.0728421" lon="-105.2305753">
  <ele>1600.77</ele>
  <time>2026-08-28T19:12:54Z</time>
  <course>337.91</course>
  <speed>0.02</speed>
  <fix>3d</fix>
</trkpt>
<trkpt lat="40.0728421" lon="-105.2305751">
  <ele>1600.32</ele>
  <time>2026-08-28T19:12:54Z</time>
  <course>11.79</course>
  <speed>0.0</speed>
  <fix>3d</fix>
</trkpt>
<trkpt lat="40.0728421" lon="-105.2305753">
  <ele>1600.46</ele>
  <time>2026-08-28T19:12:54Z</time>
  <course>326.43</course>
  <speed>0.02</speed>
  <fix>3d</fix>
</trkpt>
<trkpt lat="40.0728421" lon="-105.2305751">
  <ele>1600.01</ele>
  <time>2026-08-28T19:12:54Z</time>
  <course>11.78</course>
  <speed>0.0</speed>
  <fix>3d</fix>
</trkpt>
<trkpt lat="40.0728422" lon="-105.2305753">
  <ele>1600.15</ele>
  <time>2026-08-28T19:12:54Z</time>
  <course>319.57</course>
  <speed>0.02</speed>
  <fix>3d</fix>
</trkpt>
<trkpt lat="40.0728421" lon="-105.2305751">
  <ele>1599.7</ele>
  <time>2026-08-28T19:12:54Z</time>
  <course>11.77</course>
  <speed>0.0</speed>
  <fix>3d</fix>
</trkpt>
<trkpt lat="40.0728423" lon="-105.2305753">
  <ele>1599.85</ele>
  <time>2026-08-28T19:12:54Z</time>
  <course>314.98</course>
  <speed>0.02</speed>
  <fix>3d</fix>
</trkpt>
<trkpt lat="40.0728421" lon="-105.2305752">
  <ele>1599.4</ele>
  <time>2026-08-28T19:12:54Z</time>
  <course>11.77</course>
  <speed>0.0</speed>
  <fix>3d</fix>
</trkpt>
<trkpt lat="40.0728423" lon="-105.2305753">
  <ele>1599.55</ele>
  <time>2026-08-28T19:12:54Z</time>
  <course>311.36</course>
  <speed>0.03</speed>
  <fix>3d</fix>
</trkpt>
<trkpt lat="40.0728422" lon="-105.2305752">
  <ele>1599.1</ele>
  <time>2026-08-28T19:12:55Z</time>
  <course>11.76</course>
  <speed>0.0</speed>
  <fix>3d</fix>
</trkpt>
<trkpt lat="40.0728423" lon="-105.2305754">
  <ele>1599.25</ele>
  <time>2026-08-28T19:12:55Z</time>
  <course>308.04</course>
  <speed>0.03</speed>
  <fix>3d</fix>
</trkpt>
<trkpt lat="40.0728422" lon="-105.2305753">
  <ele>1598.8</ele>
  <time>2026-08-28T19:12:55Z</time>
  <course>11.75</course>
  <speed>0.01</speed>
  <fix>3d</fix>
</trkpt>
<trkpt lat="40.0728424" lon="-105.2305755">
  <ele>1598.95</ele>
  <time>2026-08-28T19:12:55Z</time>
  <course>304.9</course>
  <speed>0.02</speed>
  <fix>3d</fix>
</trkpt>
<trkpt lat="40.0728422" lon="-105.2305753">
  <ele>1598.51</ele>
  <time>2026-08-28T19:12:55Z</time>
  <course>11.75</course>
  <speed>0.01</speed>
  <fix>3d</fix>
</trkpt>
<trkpt lat="40.0728424" lon="-105.2305755">
  <ele>1598.66</ele>
  <time>2026-08-28T19:12:55Z</time>
  <course>303.11</course>
  <speed>0.02</speed>
  <fix>3d</fix>
</trkpt>
<trkpt lat="40.0728422" lon="-105.2305753">
  <ele>1598.21</ele>
  <time>2026-08-28T19:12:55Z</time>
  <course>11.74</course>
  <speed>0.01</speed>
  <fix>3d</fix>
</trkpt>
<trkpt lat="40.0728424" lon="-105.2305756">
  <ele>1598.36</ele>
  <time>2026-08-28T19:12:55Z</time>
  <course>301.06</course>
  <speed>0.02</speed>
  <fix>3d</fix>
</trkpt>
<trkpt lat="40.0728422" lon="-105.2305754">
  <ele>1597.91</ele>
  <time>2026-08-28T19:12:55Z</time>
  <course>11.73</course>
  <speed>0.01</speed>
  <fix>3d</fix>
</trkpt>
<trkpt lat="40.0728424" lon="-105.2305756">
  <ele>1598.07</ele>
  <time>2026-08-28T19:12:55Z</time>
  <course>299.0</course>
  <speed>0.02</speed>
  <fix>3d</fix>
</trkpt>
<trkpt lat="40.0728423" lon="-105.2305754">
  <ele>1597.61</ele>
  <time>2026-08-28T19:12:55Z</time>
  <course>11.72</course>
  <speed>0.01</speed>
  <fix>3d</fix>
</trkpt>
<trkpt lat="40.0728425" lon="-105.2305756">
  <ele>1597.77</ele>
  <time>2026-08-28T19:12:55Z</time>
  <course>298.19</course>
  <speed>0.02</speed>
  <fix>3d</fix>
</trkpt>
<trkpt lat="40.0728423" lon="-105.2305755">
  <ele>1597.33</ele>
  <time>2026-08-28T19:12:55Z</time>
  <course>11.72</course>
  <speed>0.022360679774997897</speed>
  <fix>3d</fix>
</trkpt>
<trkpt lat="40.0728425" lon="-105.2305757">
  <ele>1597.48</ele>
  <time>2026-08-28T19:12:55Z</time>
  <course>297.55</course>
  <speed>0.01</speed>
  <fix>3d</fix>
</trkpt>
<trkpt lat="40.0728423" lon="-105.2305755">
  <ele>1597.07</ele>
  <time>2026-08-28T19:12:55Z</time>
  <course>11.71</course>
  <speed>0.022360679774997897</speed>
  <fix>3d</fix>
</trkpt>
<trkpt lat="40.0728425" lon="-105.2305758">
  <ele>1597.2</ele>
  <time>2026-08-28T19:12:55Z</time>
  <course>296.81</course>
  <speed>0.01</speed>
  <fix>3d</fix>
</trkpt>
<trkpt lat="40.0728423" lon="-105.2305755">
  <ele>1596.85</ele>
  <time>2026-08-28T19:12:55Z</time>
  <course>11.7</course>
  <speed>0.022360679774997897</speed>
  <fix>3d</fix>
</trkpt>
<trkpt lat="40.0728425" lon="-105.2305758">
  <ele>1596.96</ele>
  <time>2026-08-28T19:12:55Z</time>
  <course>295.72</course>
  <speed>0.0</speed>
  <fix>3d</fix>
</trkpt>
<trkpt lat="40.0728423" lon="-105.2305755">
  <ele>1596.68</ele>
  <time>2026-08-28T19:12:55Z</time>
  <course>11.7</course>
  <speed>0.0282842712474619</speed>
  <fix>3d</fix>
</trkpt>
<trkpt lat="40.0728425" lon="-105.2305758">
  <ele>1596.76</ele>
  <time>2026-08-28T19:12:55Z</time>
  <course>296.23</course>
  <speed>0.0</speed>
  <fix>3d</fix>
</trkpt>
<trkpt lat="40.0728423" lon="-105.2305755">
  <ele>1596.55</ele>
  <time>2026-08-28T19:12:55Z</time>
  <course>11.69</course>
  <speed>0.0282842712474619</speed>
  <fix>3d</fix>
</trkpt>
<trkpt lat="40.0728425" lon="-105.2305758">
  <ele>1596.6</ele>
  <time>2026-08-28T19:12:55Z</time>
  <course>297.54</course>
  <speed>0.0</speed>
  <fix>3d</fix>
</trkpt>
<trkpt lat="40.0728423" lon="-105.2305755">
  <ele>1596.44</ele>
  <time>2026-08-28T19:12:55Z</time>
  <course>11.69</course>
  <speed>0.0282842712474619</speed>
  <fix>3d</fix>
</trkpt>
<trkpt lat="40.0728425" lon="-105.2305758">
  <ele>1596.48</ele>
  <time>2026-08-28T19:12:55Z</time>
  <course>106.01</course>
  <speed>0.0</speed>
  <fix>3d</fix>
</trkpt>
<trkpt lat="40.0728423" lon="-105.2305755">
  <ele>1596.35</ele>
  <time>2026-08-28T19:12:55Z</time>
  <course>11.68</course>
  <speed>0.03605551275463989</speed>
  <fix>3d</fix>
</trkpt>
<trkpt lat="40.0728425" lon="-105.2305758">
  <ele>1596.38</ele>
  <time>2026-08-28T19:12:55Z</time>
  <course>107.4</course>
  <speed>0.0</speed>
  <fix>3d</fix>
</trkpt>
<trkpt lat="40.0728423" lon="-105.2305755">
  <ele>1596.26</ele>
  <time>2026-08-28T19:12:55Z</time>
  <course>11.67</course>
  <speed>0.04242640687119285</speed>
  <fix>3d</fix>
</trkpt>
<trkpt lat="40.0728425" lon="-105.2305758">
  <ele>1596.29</ele>
  <time>2026-08-28T19:12:55Z</time>
  <course>108.99</course>
  <speed>0.0</speed>
  <fix>3d</fix>
</trkpt>
<trkpt lat="40.0728423" lon="-105.2305755">
  <ele>1596.17</ele>
  <time>2026-08-28T19:12:55Z</time>
  <course>11.67</course>
  <speed>0.04242640687119285</speed>
  <fix>3d</fix>
</trkpt>
<trkpt lat="40.0728425" lon="-105.2305758">
  <ele>1596.2</ele>
  <time>2026-08-28T19:12:55Z</time>
  <course>109.74</course>
  <speed>0.01</speed>
  <fix>3d</fix>
</trkpt>
<trkpt lat="40.0728423" lon="-105.2305755">
  <ele>1596.07</ele>
  <time>2026-08-28T19:12:55Z</time>
  <course>11.66</course>
  <speed>0.04242640687119285</speed>
  <fix>3d</fix>
</trkpt>
<trkpt lat="40.0728425" lon="-105.2305758">
  <ele>1596.11</ele>
  <time>2026-08-28T19:12:55Z</time>
  <course>110.88</course>
  <speed>0.01</speed>
  <fix>3d</fix>
</trkpt>
<trkpt lat="40.0728423" lon="-105.2305755">
  <ele>1595.97</ele>
  <time>2026-08-28T19:12:55Z</time>
  <course>11.66</course>
  <speed>0.04242640687119285</speed>
  <fix>3d</fix>
</trkpt>
<trkpt lat="40.0728425" lon="-105.2305758">
  <ele>1596.01</ele>
  <time>2026-08-28T19:12:55Z</time>
  <course>111.47</course>
  <speed>0.01</speed>
  <fix>3d</fix>
</trkpt>
<trkpt lat="40.0728423" lon="-105.2305755">
  <ele>1595.87</ele>
  <time>2026-08-28T19:12:55Z</time>
  <course>11.65</course>
  <speed>0.04242640687119285</speed>
  <fix>3d</fix>
</trkpt>
<trkpt lat="40.0728425" lon="-105.2305758">
  <ele>1595.9</ele>
  <time>2026-08-28T19:12:55Z</time>
  <course>111.37</course>
  <speed>0.01</speed>
  <fix>3d</fix>
</trkpt>
<trkpt lat="40.0728423" lon="-105.2305755">
  <ele>1595.77</ele>
  <time>2026-08-28T19:12:55Z</time>
  <course>11.65</course>
  <speed>0.04242640687119285</speed>
  <fix>3d</fix>
</trkpt>
<trkpt lat="40.0728425" lon="-105.2305757">
  <ele>1595.81</ele>
  <time>2026-08-28T19:12:55Z</time>
  <course>112.33</course>
  <speed>0.01</speed>
  <fix>3d</fix>
</trkpt>
<trkpt lat="40.0728423" lon="-105.2305755">
  <ele>1595.67</ele>
  <time>2026-08-28T19:12:55Z</time>
  <course>11.64</course>
  <speed>0.04242640687119285</speed>
  <fix>3d</fix>
</trkpt>
<trkpt lat="40.0728425" lon="-105.2305756">
  <ele>1595.72</ele>
  <time>2026-08-28T19:12:55Z</time>
  <course>112.86</course>
  <speed>0.01</speed>
  <fix>3d</fix>
</trkpt>
<trkpt lat="40.0728423" lon="-105.2305754">
  <ele>1595.57</ele>
  <time>2026-08-28T19:12:55Z</time>
  <course>11.64</course>
  <speed>0.04242640687119285</speed>
  <fix>3d</fix>
</trkpt>
<trkpt lat="40.0728425" lon="-105.2305756">
  <ele>1595.61</ele>
  <time>2026-08-28T19:12:55Z</time>
  <course>113.44</course>
  <speed>0.01</speed>
  <fix>3d</fix>
</trkpt>
<trkpt lat="40.0728423" lon="-105.2305754">
  <ele>1595.47</ele>
  <time>2026-08-28T19:12:55Z</time>
  <course>11.64</course>
  <speed>0.04242640687119285</speed>
  <fix>3d</fix>
</trkpt>
<trkpt lat="40.0728425" lon="-105.2305756">
  <ele>1595.51</ele>
  <time>2026-08-28T19:12:55Z</time>
  <course>115.25</course>
  <speed>0.01</speed>
  <fix>3d</fix>
</trkpt>
<trkpt lat="40.0728423" lon="-105.2305754">
  <ele>1595.37</ele>
  <time>2026-08-28T19:12:55Z</time>
  <course>11.63</course>
  <speed>0.04242640687119285</speed>
  <fix>3d</fix>
</trkpt>
<trkpt lat="40.0728425" lon="-105.2305756">
  <ele>1595.4</ele>
  <time>2026-08-28T19:12:55Z</time>
  <course>116.02</course>
  <speed>0.01</speed>
  <fix>3d</fix>
</trkpt>
<trkpt lat="40.0728423" lon="-105.2305753">
  <ele>1595.27</ele>
  <time>2026-08-28T19:12:55Z</time>
  <course>11.63</course>
  <speed>0.04242640687119285</speed>
  <fix>3d</fix>
</trkpt>
<trkpt lat="40.0728425" lon="-105.2305756">
  <ele>1595.31</ele>
  <time>2026-08-28T19:12:55Z</time>
  <course>115.24</course>
  <speed>0.01</speed>
  <fix>3d</fix>
</trkpt>
<trkpt lat="40.0728423" lon="-105.2305753">
  <ele>1595.17</ele>
  <time>2026-08-28T19:12:55Z</time>
  <course>11.63</course>
  <speed>0.03605551275463989</speed>
  <fix>3d</fix>
</trkpt>
<trkpt lat="40.0728425" lon="-105.2305755">
  <ele>1595.21</ele>
  <time>2026-08-28T19:12:55Z</time>
  <course>115.53</course>
  <speed>0.01</speed>
  <fix>3d</fix>
</trkpt>
<trkpt lat="40.0728423" lon="-105.2305753">
  <ele>1595.07</ele>
  <time>2026-08-28T19:12:55Z</time>
  <course>11.62</course>
  <speed>0.0282842712474619</speed>
  <fix>3d</fix>
</trkpt>
<trkpt lat="40.0728425" lon="-105.2305755">
  <ele>1595.11</ele>
  <time>2026-08-28T19:12:55Z</time>
  <course>118.64</course>
  <speed>0.01</speed>
  <fix>3d</fix>
</trkpt>
<trkpt lat="40.0728423" lon="-105.2305753">
  <ele>1594.96</ele>
  <time>2026-08-28T19:12:55Z</time>
  <course>11.61</course>
  <speed>0.0282842712474619</speed>
  <fix>3d</fix>
</trkpt>
<trkpt lat="40.0728425" lon="-105.2305754">
  <ele>1595.01</ele>
  <time>2026-08-28T19:12:55Z</time>
  <course>122.45</course>
  <speed>0.01</speed>
  <fix>3d</fix>
</trkpt>
<trkpt lat="40.0728423" lon="-105.2305752">
  <ele>1594.86</ele>
  <time>2026-08-28T19:12:55Z</time>
  <course>11.61</course>
  <speed>0.0282842712474619</speed>
  <fix>3d</fix>
</trkpt>
<trkpt lat="40.0728424" lon="-105.2305753">
  <ele>1594.9</ele>
  <time>2026-08-28T19:12:55Z</time>
  <course>125.97</course>
  <speed>0.01</speed>
  <fix>3d</fix>
</trkpt>
<trkpt lat="40.0728423" lon="-105.2305752">
  <ele>1594.77</ele>
  <time>2026-08-28T19:12:55Z</time>
  <course>11.6</course>
  <speed>0.0282842712474619</speed>
  <fix>3d</fix>
</trkpt>
<trkpt lat="40.0728424" lon="-105.2305753">
  <ele>1594.81</ele>
  <time>2026-08-28T19:12:55Z</time>
  <course>130.69</course>
  <speed>0.01</speed>
  <fix>3d</fix>
</trkpt>
<trkpt lat="40.0728423" lon="-105.2305752">
  <ele>1594.67</ele>
  <time>2026-08-28T19:12:55Z</time>
  <course>11.6</course>
  <speed>0.0282842712474619</speed>
  <fix>3d</fix>
</trkpt>
<trkpt lat="40.0728424" lon="-105.2305753">
  <ele>1594.71</ele>
  <time>2026-08-28T19:12:55Z</time>
  <course>134.65</course>
  <speed>0.01</speed>
  <fix>3d</fix>
</trkpt>
<trkpt lat="40.0728423" lon="-105.2305752">
  <ele>1594.57</ele>
  <time>2026-08-28T19:12:55Z</time>
  <course>11.59</course>
  <speed>0.0282842712474619</speed>
  <fix>3d</fix>
</trkpt>
<trkpt lat="40.0728424" lon="-105.2305753">
  <ele>1594.61</ele>
  <time>2026-08-28T19:12:55Z</time>
  <course>135.94</course>
  <speed>0.01</speed>
  <fix>3d</fix>
</trkpt>
<trkpt lat="40.0728423" lon="-105.2305752">
  <ele>1594.47</ele>
  <time>2026-08-28T19:12:55Z</time>
  <course>11.59</course>
  <speed>0.022360679774997897</speed>
  <fix>3d</fix>
</trkpt>
<trkpt lat="40.0728424" lon="-105.2305753">
  <ele>1594.51</ele>
  <time>2026-08-28T19:12:55Z</time>
  <course>142.12</course>
  <speed>0.0</speed>
  <fix>3d</fix>
</trkpt>
<trkpt lat="40.0728422" lon="-105.2305752">
  <ele>1594.37</ele>
  <time>2026-08-28T19:12:55Z</time>
  <course>11.59</course>
  <speed>0.022360679774997897</speed>
  <fix>3d</fix>
</trkpt>
<trkpt lat="40.0728424" lon="-105.2305753">
  <ele>1594.4</ele>
  <time>2026-08-28T19:12:55Z</time>
  <course>154.81</course>
  <speed>0.0</speed>
  <fix>3d</fix>
</trkpt>
<trkpt lat="40.0728422" lon="-105.2305752">
  <ele>1594.27</ele>
  <time>2026-08-28T19:12:55Z</time>
  <course>11.58</course>
  <speed>0.022360679774997897</speed>
  <fix>3d</fix>
</trkpt>
<trkpt lat="40.0728424" lon="-105.2305753">
  <ele>1594.31</ele>
  <time>2026-08-28T19:12:55Z</time>
  <course>166.31</course>
  <speed>0.0</speed>
  <fix>3d</fix>
</trkpt>
<trkpt lat="40.0728422" lon="-105.2305752">
  <ele>1594.17</ele>
  <time>2026-08-28T19:12:55Z</time>
  <course>11.58</course>
  <speed>0.022360679774997897</speed>
  <fix>3d</fix>
</trkpt>
<trkpt lat="40.0728423" lon="-105.2305753">
  <ele>1594.21</ele>
  <time>2026-08-28T19:12:55Z</time>
  <course>181.05</course>
  <speed>0.0</speed>
  <fix>3d</fix>
</trkpt>
<trkpt lat="40.0728422" lon="-105.2305752">
  <ele>1594.07</ele>
  <time>2026-08-28T19:12:55Z</time>
  <course>11.58</course>
  <speed>0.022360679774997897</speed>
  <fix>3d</fix>
</trkpt>
<trkpt lat="40.0728423" lon="-105.2305753">
  <ele>1594.11</ele>
  <time>2026-08-28T19:12:55Z</time>
  <course>197.62</course>
  <speed>0.0</speed>
  <fix>3d</fix>
</trkpt>
<trkpt lat="40.0728422" lon="-105.2305752">
  <ele>1593.97</ele>
  <time>2026-08-28T19:12:55Z</time>
  <course>11.58</course>
  <speed>0.022360679774997897</speed>
  <fix>3d</fix>
</trkpt>
<trkpt lat="40.0728423" lon="-105.2305753">
  <ele>1594.01</ele>
  <time>2026-08-28T19:12:55Z</time>
  <course>213.36</course>
  <speed>0.0</speed>
  <fix>3d</fix>
</trkpt>
<trkpt lat="40.0728422" lon="-105.2305752">
  <ele>1593.86</ele>
  <time>2026-08-28T19:12:55Z</time>
  <course>11.57</course>
  <speed>0.022360679774997897</speed>
  <fix>3d</fix>
</trkpt>
<trkpt lat="40.0728423" lon="-105.2305753">
  <ele>1593.9</ele>
  <time>2026-08-28T19:12:55Z</time>
  <course>224.93</course>
  <speed>0.0</speed>
  <fix>3d</fix>
</trkpt>
<trkpt lat="40.0728422" lon="-105.2305752">
  <ele>1593.76</ele>
  <time>2026-08-28T19:12:55Z</time>
  <course>11.57</course>
  <speed>0.022360679774997897</speed>
  <fix>3d</fix>
</trkpt>
<trkpt lat="40.0728423" lon="-105.2305753">
  <ele>1593.81</ele>
  <time>2026-08-28T19:12:55Z</time>
  <course>229.02</course>
  <speed>0.0</speed>
  <fix>3d</fix>
</trkpt>
<trkpt lat="40.0728422" lon="-105.2305752">
  <ele>1593.66</ele>
  <time>2026-08-28T19:12:55Z</time>
  <course>11.57</course>
  <speed>0.022360679774997897</speed>
  <fix>3d</fix>
</trkpt>
<trkpt lat="40.0728423" lon="-105.2305753">
  <ele>1593.71</ele>
  <time>2026-08-28T19:12:55Z</time>
  <course>237.11</course>
  <speed>0.0</speed>
  <fix>3d</fix>
</trkpt>
<trkpt lat="40.0728422" lon="-105.2305752">
  <ele>1593.56</ele>
  <time>2026-08-28T19:12:55Z</time>
  <course>11.57</course>
  <speed>0.022360679774997897</speed>
  <fix>3d</fix>
</trkpt>
<trkpt lat="40.0728423" lon="-105.2305753">
  <ele>1593.61</ele>
  <time>2026-08-28T19:12:55Z</time>
  <course>245.91</course>
  <speed>0.0</speed>
  <fix>3d</fix>
</trkpt>
<trkpt lat="40.0728422" lon="-105.2305752">
  <ele>1593.46</ele>
  <time>2026-08-28T19:12:55Z</time>
  <course>11.56</course>
  <speed>0.022360679774997897</speed>
  <fix>3d</fix>
</trkpt>
<trkpt lat="40.0728423" lon="-105.2305753">
  <ele>1593.51</ele>
  <time>2026-08-28T19:12:55Z</time>
  <course>254.84</course>
  <speed>0.0</speed>
  <fix>3d</fix>
</trkpt>
<trkpt lat="40.0728422" lon="-105.2305752">
  <ele>1593.37</ele>
  <time>2026-08-28T19:12:55Z</time>
  <course>11.56</course>
  <speed>0.022360679774997897</speed>
  <fix>3d</fix>
</trkpt>
<trkpt lat="40.0728423" lon="-105.2305753">
  <ele>1593.41</ele>
  <time>2026-08-28T19:12:55Z</time>
  <course>255.31</course>
  <speed>0.0</speed>
  <fix>3d</fix>
</trkpt>
<trkpt lat="40.0728422" lon="-105.2305752">
  <ele>1593.27</ele>
  <time>2026-08-28T19:12:55Z</time>
  <course>11.56</course>
  <speed>0.022360679774997897</speed>
  <fix>3d</fix>
</trkpt>
<trkpt lat="40.0728423" lon="-105.2305753">
  <ele>1593.32</ele>
  <time>2026-08-28T19:12:55Z</time>
  <course>255.04</course>
  <speed>0.0</speed>
  <fix>3d</fix>
</trkpt>
<trkpt lat="40.0728422" lon="-105.2305752">
  <ele>1593.17</ele>
  <time>2026-08-28T19:12:55Z</time>
  <course>11.55</course>
  <speed>0.022360679774997897</speed>
  <fix>3d</fix>
</trkpt>
<trkpt lat="40.0728423" lon="-105.2305753">
  <ele>1593.22</ele>
  <time>2026-08-28T19:12:55Z</time>
  <course>267.54</course>
  <speed>0.0</speed>
  <fix>3d</fix>
</trkpt>
<trkpt lat="40.0728422" lon="-105.2305752">
  <ele>1593.07</ele>
  <time>2026-08-28T19:12:55Z</time>
  <course>11.54</course>
  <speed>0.01414213562373095</speed>
  <fix>3d</fix>
</trkpt>
<trkpt lat="40.0728423" lon="-105.2305753">
  <ele>1593.12</ele>
  <time>2026-08-28T19:12:55Z</time>
  <course>278.43</course>
  <speed>0.0</speed>
  <fix>3d</fix>
</trkpt>
<trkpt lat="40.0728422" lon="-105.2305752">
  <ele>1592.97</ele>
  <time>2026-08-28T19:12:55Z</time>
  <course>11.54</course>
  <speed>0.01414213562373095</speed>
  <fix>3d</fix>
</trkpt>
<trkpt lat="40.0728423" lon="-105.2305753">
  <ele>1593.02</ele>
  <time>2026-08-28T19:12:55Z</time>
  <course>283.09</course>
  <speed>0.0</speed>
  <fix>3d</fix>
</trkpt>
<trkpt lat="40.0728422" lon="-105.2305752">
  <ele>1592.87</ele>
  <time>2026-08-28T19:12:55Z</time>
  <course>11.53</course>
  <speed>0.01414213562373095</speed>
  <fix>3d</fix>
</trkpt>
<trkpt lat="40.0728423" lon="-105.2305753">
  <ele>1592.91</ele>
  <time>2026-08-28T19:12:55Z</time>
  <course>288.21</course>
  <speed>0.0</speed>
  <fix>3d</fix>
</trkpt>
<trkpt lat="40.0728422" lon="-105.2305752">
  <ele>1592.77</ele>
  <time>2026-08-28T19:12:55Z</time>
  <course>11.53</course>
  <speed>0.01414213562373095</speed>
  <fix>3d</fix>
</trkpt>
<trkpt lat="40.0728423" lon="-105.2305753">
  <ele>1592.81</ele>
  <time>2026-08-28T19:12:55Z</time>
  <course>296.07</course>
  <speed>0.0</speed>
  <fix>3d</fix>
</trkpt>
<trkpt lat="40.0728422" lon="-105.2305752">
  <ele>1592.67</ele>
  <time>2026-08-28T19:12:55Z</time>
  <course>11.53</course>
  <speed>0.01414213562373095</speed>
  <fix>3d</fix>
</trkpt>
<trkpt lat="40.0728423" lon="-105.2305753">
  <ele>1592.71</ele>
  <time>2026-08-28T19:12:55Z</time>
  <course>297.24</course>
  <speed>0.0</speed>
  <fix>3d</fix>
</trkpt>
<trkpt lat="40.0728422" lon="-105.2305752">
  <ele>1592.57</ele>
  <time>2026-08-28T19:12:55Z</time>
  <course>11.53</course>
  <speed>0.01414213562373095</speed>
  <fix>3d</fix>
</trkpt>
<trkpt lat="40.0728423" lon="-105.2305753">
  <ele>1592.61</ele>
  <time>2026-08-28T19:12:55Z</time>
  <course>298.4</course>
  <speed>0.0</speed>
  <fix>3d</fix>
</trkpt>
<trkpt lat="40.0728422" lon="-105.2305752">
  <ele>1592.47</ele>
  <time>2026-08-28T19:12:55Z</time>
  <course>11.53</course>
  <speed>0.01414213562373095</speed>
  <fix>3d</fix>
</trkpt>
<trkpt lat="40.0728423" lon="-105.2305753">
  <ele>1592.51</ele>
  <time>2026-08-28T19:12:55Z</time>
  <course>302.53</course>
  <speed>0.0</speed>
  <fix>3d</fix>
</trkpt>
<trkpt lat="40.0728422" lon="-105.2305752">
  <ele>1592.37</ele>
  <time>2026-08-28T19:12:55Z</time>
  <course>11.52</course>
  <speed>0.01414213562373095</speed>
  <fix>3d</fix>
</trkpt>
<trkpt lat="40.0728423" lon="-105.2305753">
  <ele>1592.4</ele>
  <time>2026-08-28T19:12:55Z</time>
  <course>303.06</course>
  <speed>0.0</speed>
  <fix>3d</fix>
</trkpt>
<trkpt lat="40.0728422" lon="-105.2305752">
  <ele>1592.27</ele>
  <time>2026-08-28T19:12:55Z</time>
  <course>11.52</course>
  <speed>0.01414213562373095</speed>
  <fix>3d</fix>
</trkpt>
<trkpt lat="40.0728423" lon="-105.2305753">
  <ele>1592.3</ele>
  <time>2026-08-28T19:12:55Z</time>
  <course>304.68</course>
  <speed>0.0</speed>
  <fix>3d</fix>
</trkpt>
<trkpt lat="40.0728422" lon="-105.2305752">
  <ele>1592.17</ele>
  <time>2026-08-28T19:12:55Z</time>
  <course>11.53</course>
  <speed>0.01414213562373095</speed>
  <fix>3d</fix>
</trkpt>
<trkpt lat="40.0728423" lon="-105.2305753">
  <ele>1592.2</ele>
  <time>2026-08-28T19:12:55Z</time>
  <course>316.06</course>
  <speed>0.0</speed>
  <fix>3d</fix>
</trkpt>
<trkpt lat="40.0728422" lon="-105.2305752">
  <ele>1592.07</ele>
  <time>2026-08-28T19:12:55Z</time>
  <course>11.53</course>
  <speed>0.01414213562373095</speed>
  <fix>3d</fix>
</trkpt>
<trkpt lat="40.0728423" lon="-105.2305753">
  <ele>1592.1</ele>
  <time>2026-08-28T19:12:55Z</time>
  <course>331.6</course>
  <speed>0.0</speed>
  <fix>3d</fix>
</trkpt>
<trkpt lat="40.0728422" lon="-105.2305752">
  <ele>1591.97</ele>
  <time>2026-08-28T19:12:55Z</time>
  <course>11.52</course>
  <speed>0.01414213562373095</speed>
  <fix>3d</fix>
</trkpt>
<trkpt lat="40.0728423" lon="-105.2305753">
  <ele>1592.0</ele>
  <time>2026-08-28T19:12:55Z</time>
  <course>328.68</course>
  <speed>0.0</speed>
  <fix>3d</fix>
</trkpt>
<trkpt lat="40.0728422" lon="-105.2305752">
  <ele>1591.86</ele>
  <time>2026-08-28T19:12:55Z</time>
  <course>11.52</course>
  <speed>0.01414213562373095</speed>
  <fix>3d</fix>
</trkpt>
<trkpt lat="40.0728423" lon="-105.2305753">
  <ele>1591.89</ele>
  <time>2026-08-28T19:12:55Z</time>
  <course>318.19</course>
  <speed>0.0</speed>
  <fix>3d</fix>
</trkpt>
<trkpt lat="40.0728422" lon="-105.2305752">
  <ele>1591.76</ele>
  <time>2026-08-28T19:12:55Z</time>
  <course>11.51</course>
  <speed>0.01414213562373095</speed>
  <fix>3d</fix>
</trkpt>
<trkpt lat="40.0728423" lon="-105.2305753">
  <ele>1591.8</ele>
  <time>2026-08-28T19:12:55Z</time>
  <course>312.15</course>
  <speed>0.0</speed>
  <fix>3d</fix>
</trkpt>
<trkpt lat="40.0728422" lon="-105.2305752">
  <ele>1591.66</ele>
  <time>2026-08-28T19:12:55Z</time>
  <course>11.51</course>
  <speed>0.01414213562373095</speed>
  <fix>3d</fix>
</trkpt>
<trkpt lat="40.0728423" lon="-105.2305753">
  <ele>1591.7</ele>
  <time>2026-08-28T19:12:55Z</time>
  <course>310.36</course>
  <speed>0.0</speed>
  <fix>3d</fix>
</trkpt>
<trkpt lat="40.0728422" lon="-105.2305752">
  <ele>1591.56</ele>
  <time>2026-08-28T19:12:55Z</time>
  <course>11.5</course>
  <speed>0.01414213562373095</speed>
  <fix>3d</fix>
</trkpt>
<trkpt lat="40.0728423" lon="-105.2305753">
  <ele>1591.6</ele>
  <time>2026-08-28T19:12:55Z</time>
  <course>309.96</course>
  <speed>0.0</speed>
  <fix>3d</fix>
</trkpt>
<trkpt lat="40.0728422" lon="-105.2305752">
  <ele>1591.46</ele>
  <time>2026-08-28T19:12:55Z</time>
  <course>11.5</course>
  <speed>0.01414213562373095</speed>
  <fix>3d</fix>
</trkpt>
<trkpt lat="40.0728423" lon="-105.2305754">
  <ele>1591.5</ele>
  <time>2026-08-28T19:12:55Z</time>
  <course>309.27</course>
  <speed>0.0</speed>
  <fix>3d</fix>
</trkpt>
<trkpt lat="40.0728422" lon="-105.2305752">
  <ele>1591.36</ele>
  <time>2026-08-28T19:12:55Z</time>
  <course>11.5</course>
  <speed>0.01414213562373095</speed>
  <fix>3d</fix>
</trkpt>
<trkpt lat="40.0728423" lon="-105.2305755">
  <ele>1591.39</ele>
  <time>2026-08-28T19:12:55Z</time>
  <course>310.96</course>
  <speed>0.0</speed>
  <fix>3d</fix>
</trkpt>
<trkpt lat="40.0728422" lon="-105.2305752">
  <ele>1591.26</ele>
  <time>2026-08-28T19:12:55Z</time>
  <course>11.5</course>
  <speed>0.01414213562373095</speed>
  <fix>3d</fix>
</trkpt>
<trkpt lat="40.0728423" lon="-105.2305755">
  <ele>1591.3</ele>
  <time>2026-08-28T19:12:55Z</time>
  <course>318.76</course>
  <speed>0.0</speed>
  <fix>3d</fix>
</trkpt>
<trkpt lat="40.0728422" lon="-105.2305752">
  <ele>1591.16</ele>
  <time>2026-08-28T19:12:55Z</time>
  <course>11.49</course>
  <speed>0.01414213562373095</speed>
  <fix>3d</fix>
</trkpt>
<trkpt lat="40.0728423" lon="-105.2305755">
  <ele>1591.2</ele>
  <time>2026-08-28T19:12:55Z</time>
  <course>327.69</course>
  <speed>0.0</speed>
  <fix>3d</fix>
</trkpt>
<trkpt lat="40.0728422" lon="-105.2305752">
  <ele>1591.06</ele>
  <time>2026-08-28T19:12:55Z</time>
  <course>11.49</course>
  <speed>0.01414213562373095</speed>
  <fix>3d</fix>
</trkpt>
<trkpt lat="40.0728423" lon="-105.2305755">
  <ele>1591.1</ele>
  <time>2026-08-28T19:12:55Z</time>
  <course>335.82</course>
  <speed>0.0</speed>
  <fix>3d</fix>
</trkpt>
<trkpt lat="40.0728422" lon="-105.2305752">
  <ele>1590.96</ele>
  <time>2026-08-28T19:12:55Z</time>
  <course>11.49</course>
  <speed>0.01414213562373095</speed>
  <fix>3d</fix>
</trkpt>
<trkpt lat="40.0728423" lon="-105.2305755">
  <ele>1591.0</ele>
  <time>2026-08-28T19:12:55Z</time>
  <course>344.24</course>
  <speed>0.0</speed>
  <fix>3d</fix>
</trkpt>
<trkpt lat="40.0728422" lon="-105.2305752">
  <ele>1590.87</ele>
  <time>2026-08-28T19:12:55Z</time>
  <course>11.49</course>
  <speed>0.01414213562373095</speed>
  <fix>3d</fix>
</trkpt>
<trkpt lat="40.0728423" lon="-105.2305755">
  <ele>1590.89</ele>
  <time>2026-08-28T19:12:55Z</time>
  <course>358.32</course>
  <speed>0.0</speed>
  <fix>3d</fix>
</trkpt>
<trkpt lat="40.0728422" lon="-105.2305752">
  <ele>1590.77</ele>
  <time>2026-08-28T19:12:55Z</time>
  <course>11.49</course>
  <speed>0.022360679774997897</speed>
  <fix>3d</fix>
</trkpt>
<trkpt lat="40.0728423" lon="-105.2305755">
  <ele>1590.8</ele>
  <time>2026-08-28T19:12:55Z</time>
  <course>16.68</course>
  <speed>0.0</speed>
  <fix>3d</fix>
</trkpt>
<trkpt lat="40.0728422" lon="-105.2305752">
  <ele>1590.67</ele>
  <time>2026-08-28T19:12:55Z</time>
  <course>11.48</course>
  <speed>0.022360679774997897</speed>
  <fix>3d</fix>
</trkpt>
<trkpt lat="40.0728423" lon="-105.2305755">
  <ele>1590.7</ele>
  <time>2026-08-28T19:12:55Z</time>
  <course>36.95</course>
  <speed>0.0</speed>
  <fix>3d</fix>
</trkpt>
<trkpt lat="40.0728422" lon="-105.2305752">
  <ele>1590.57</ele>
  <time>2026-08-28T19:12:55Z</time>
  <course>11.48</course>
  <speed>0.022360679774997897</speed>
  <fix>3d</fix>
</trkpt>
<trkpt lat="40.0728423" lon="-105.2305755">
  <ele>1590.6</ele>
  <time>2026-08-28T19:12:55Z</time>
  <course>52.37</course>
  <speed>0.0</speed>
  <fix>3d</fix>
</trkpt>
<trkpt lat="40.0728422" lon="-105.2305752">
  <ele>1590.47</ele>
  <time>2026-08-28T19:12:55Z</time>
  <course>11.48</course>
  <speed>0.022360679774997897</speed>
  <fix>3d</fix>
</trkpt>
<trkpt lat="40.0728423" lon="-105.2305755">
  <ele>1590.5</ele>
  <time>2026-08-28T19:12:55Z</time>
  <course>62.46</course>
  <speed>0.0</speed>
  <fix>3d</fix>
</trkpt>
<trkpt lat="40.0728422" lon="-105.2305752">
  <ele>1590.37</ele>
  <time>2026-08-28T19:12:55Z</time>
  <course>11.48</course>
  <speed>0.0282842712474619</speed>
  <fix>3d</fix>
</trkpt>
<trkpt lat="40.0728423" lon="-105.2305755">
  <ele>1590.39</ele>
  <time>2026-08-28T19:12:55Z</time>
  <course>69.11</course>
  <speed>0.0</speed>
  <fix>3d</fix>
</trkpt>
<trkpt lat="40.0728422" lon="-105.2305752">
  <ele>1590.27</ele>
  <time>2026-08-28T19:12:55Z</time>
  <course>11.48</course>
  <speed>0.0282842712474619</speed>
  <fix>3d</fix>
</trkpt>
<trkpt lat="40.0728424" lon="-105.2305755">
  <ele>1590.3</ele>
  <time>2026-08-28T19:12:55Z</time>
  <course>72.69</course>
  <speed>0.0</speed>
  <fix>3d</fix>
</trkpt>
<trkpt lat="40.0728422" lon="-105.2305752">
  <ele>1590.17</ele>
  <time>2026-08-28T19:12:55Z</time>
  <course>11.47</course>
  <speed>0.0282842712474619</speed>
  <fix>3d</fix>
</trkpt>
<trkpt lat="40.0728424" lon="-105.2305755">
  <ele>1590.2</ele>
  <time>2026-08-28T19:12:55Z</time>
  <course>73.82</course>
  <speed>0.0</speed>
  <fix>3d</fix>
</trkpt>
<trkpt lat="40.0728422" lon="-105.2305752">
  <ele>1590.07</ele>
  <time>2026-08-28T19:12:55Z</time>
  <course>11.47</course>
  <speed>0.0282842712474619</speed>
  <fix>3d</fix>
</trkpt>
<trkpt lat="40.0728424" lon="-105.2305755">
  <ele>1590.1</ele>
  <time>2026-08-28T19:12:55Z</time>
  <course>76.27</course>
  <speed>0.0</speed>
  <fix>3d</fix>
</trkpt>
<trkpt lat="40.0728422" lon="-105.2305752">
  <ele>1589.97</ele>
  <time>2026-08-28T19:12:55Z</time>
  <course>11.47</course>
  <speed>0.0282842712474619</speed>
  <fix>3d</fix>
</trkpt>
<trkpt lat="40.0728424" lon="-105.2305755">
  <ele>1589.99</ele>
  <time>2026-08-28T19:12:55Z</time>
  <course>84.15</course>
  <speed>0.0</speed>
  <fix>3d</fix>
</trkpt>
<trkpt lat="40.0728422" lon="-105.2305752">
  <ele>1589.87</ele>
  <time>2026-08-28T19:12:55Z</time>
  <course>11.47</course>
  <speed>0.0282842712474619</speed>
  <fix>3d</fix>
</trkpt>
<trkpt lat="40.0728424" lon="-105.2305755">
  <ele>1589.88</ele>
  <time>2026-08-28T19:12:55Z</time>
  <course>90.07</course>
  <speed>0.0</speed>
  <fix>3d</fix>
</trkpt>
<trkpt lat="40.0728422" lon="-105.2305752">
  <ele>1589.77</ele>
  <time>2026-08-28T19:12:55Z</time>
  <course>11.47</course>
  <speed>0.0282842712474619</speed>
  <fix>3d</fix>
</trkpt>
<trkpt lat="40.0728424" lon="-105.2305755">
  <ele>1589.79</ele>
  <time>2026-08-28T19:12:55Z</time>
  <course>91.18</course>
  <speed>0.0</speed>
  <fix>3d</fix>
</trkpt>
<trkpt lat="40.0728422" lon="-105.2305752">
  <ele>1589.67</ele>
  <time>2026-08-28T19:12:55Z</time>
  <course>11.47</course>
  <speed>0.0282842712474619</speed>
  <fix>3d</fix>
</trkpt>
<trkpt lat="40.0728424" lon="-105.2305754">
  <ele>1589.69</ele>
  <time>2026-08-28T19:12:55Z</time>
  <course>94.68</course>
  <speed>0.0</speed>
  <fix>3d</fix>
</trkpt>
<trkpt lat="40.0728422" lon="-105.2305752">
  <ele>1589.57</ele>
  <time>2026-08-28T19:12:55Z</time>
  <course>11.47</course>
  <speed>0.0282842712474619</speed>
  <fix>3d</fix>
</trkpt>
<trkpt lat="40.0728424" lon="-105.2305753">
  <ele>1589.59</ele>
  <time>2026-08-28T19:12:55Z</time>
  <course>101.5</course>
  <speed>0.0</speed>
  <fix>3d</fix>
</trkpt>
<trkpt lat="40.0728422" lon="-105.2305752">
  <ele>1589.47</ele>
  <time>2026-08-28T19:12:55Z</time>
  <course>11.47</course>
  <speed>0.0282842712474619</speed>
  <fix>3d</fix>
</trkpt>
<trkpt lat="40.0728424" lon="-105.2305753">
  <ele>1589.49</ele>
  <time>2026-08-28T19:12:55Z</time>
  <course>108.48</course>
  <speed>0.0</speed>
  <fix>3d</fix>
</trkpt>
<trkpt lat="40.0728422" lon="-105.2305752">
  <ele>1589.37</ele>
  <time>2026-08-28T19:12:55Z</time>
  <course>11.46</course>
  <speed>0.022360679774997897</speed>
  <fix>3d</fix>
</trkpt>
<trkpt lat="40.0728424" lon="-105.2305753">
  <ele>1589.38</ele>
  <time>2026-08-28T19:12:55Z</time>
  <course>115.25</course>
  <speed>0.0</speed>
  <fix>3d</fix>
</trkpt>
<trkpt lat="40.0728422" lon="-105.2305752">
  <ele>1589.27</ele>
  <time>2026-08-28T19:12:55Z</time>
  <course>11.46</course>
  <speed>0.022360679774997897</speed>
  <fix>3d</fix>
</trkpt>
<trkpt lat="40.0728424" lon="-105.2305753">
  <ele>1589.29</ele>
  <time>2026-08-28T19:12:55Z</time>
  <course>123.25</course>
  <speed>0.0</speed>
  <fix>3d</fix>
</trkpt>
<trkpt lat="40.0728422" lon="-105.2305752">
  <ele>1589.17</ele>
  <time>2026-08-28T19:12:55Z</time>
  <course>11.46</course>
  <speed>0.022360679774997897</speed>
  <fix>3d</fix>
</trkpt>
<trkpt lat="40.0728424" lon="-105.2305753">
  <ele>1589.19</ele>
  <time>2026-08-28T19:12:55Z</time>
  <course>133.7</course>
  <speed>0.0</speed>
  <fix>3d</fix>
</trkpt>
<trkpt lat="40.0728422" lon="-105.2305752">
  <ele>1589.07</ele>
  <time>2026-08-28T19:12:55Z</time>
  <course>11.46</course>
  <speed>0.022360679774997897</speed>
  <fix>3d</fix>
</trkpt>
<trkpt lat="40.0728424" lon="-105.2305753">
  <ele>1589.08</ele>
  <time>2026-08-28T19:12:55Z</time>
  <course>145.61</course>
  <speed>0.0</speed>
  <fix>3d</fix>
</trkpt>
<trkpt lat="40.0728422" lon="-105.2305752">
  <ele>1588.97</ele>
  <time>2026-08-28T19:12:55Z</time>
  <course>11.46</course>
  <speed>0.022360679774997897</speed>
  <fix>3d</fix>
</trkpt>
<trkpt lat="40.0728424" lon="-105.2305753">
  <ele>1588.98</ele>
  <time>2026-08-28T19:12:55Z</time>
  <course>159.95</course>
  <speed>0.0</speed>
  <fix>3d</fix>
</trkpt>
<trkpt lat="40.0728422" lon="-105.2305752">
  <ele>1588.87</ele>
  <time>2026-08-28T19:12:55Z</time>
  <course>11.46</course>
  <speed>0.022360679774997897</speed>
  <fix>3d</fix>
</trkpt>
<trkpt lat="40.0728424" lon="-105.2305753">
  <ele>1588.88</ele>
  <time>2026-08-28T19:12:55Z</time>
  <course>171.09</course>
  <speed>0.0</speed>
  <fix>3d</fix>
</trkpt>
<trkpt lat="40.0728422" lon="-105.2305752">
  <ele>1588.77</ele>
  <time>2026-08-28T19:12:55Z</time>
  <course>11.46</course>
  <speed>0.022360679774997897</speed>
  <fix>3d</fix>
</trkpt>
<trkpt lat="40.0728424" lon="-105.2305753">
  <ele>1588.78</ele>
  <time>2026-08-28T19:12:55Z</time>
  <course>178.93</course>
  <speed>0.0</speed>
  <fix>3d</fix>
</trkpt>
<trkpt lat="40.0728422" lon="-105.2305752">
  <ele>1588.67</ele>
  <time>2026-08-28T19:12:55Z</time>
  <course>11.46</course>
  <speed>0.022360679774997897</speed>
  <fix>3d</fix>
</trkpt>
<trkpt lat="40.0728424" lon="-105.2305753">
  <ele>1588.67</ele>
  <time>2026-08-28T19:12:55Z</time>
  <course>191.72</course>
  <speed>0.0</speed>
  <fix>3d</fix>
</trkpt>
<trkpt lat="40.0728422" lon="-105.2305752">
  <ele>1588.57</ele>
  <time>2026-08-28T19:12:55Z</time>
  <course>11.45</course>
  <speed>0.022360679774997897</speed>
  <fix>3d</fix>
</trkpt>
<trkpt lat="40.0728424" lon="-105.2305753">
  <ele>1588.57</ele>
  <time>2026-08-28T19:12:55Z</time>
  <course>205.05</course>
  <speed>0.0</speed>
  <fix>3d</fix>
</trkpt>
<trkpt lat="40.0728422" lon="-105.2305752">
  <ele>1588.47</ele>
  <time>2026-08-28T19:12:55Z</time>
  <course>11.45</course>
  <speed>0.022360679774997897</speed>
  <fix>3d</fix>
</trkpt>
<trkpt lat="40.0728424" lon="-105.2305753">
  <ele>1588.47</ele>
  <time>2026-08-28T19:12:55Z</time>
  <course>203.93</course>
  <speed>0.0</speed>
  <fix>3d</fix>
</trkpt>
<trkpt lat="40.0728422" lon="-105.2305752">
  <ele>1588.36</ele>
  <time>2026-08-28T19:12:55Z</time>
  <course>11.45</course>
  <speed>0.022360679774997897</speed>
  <fix>3d</fix>
</trkpt>
<trkpt lat="40.0728424" lon="-105.2305753">
  <ele>1588.37</ele>
  <time>2026-08-28T19:12:55Z</time>
  <course>191.52</course>
  <speed>0.0</speed>
  <fix>3d</fix>
</trkpt>
<trkpt lat="40.0728422" lon="-105.2305752">
  <ele>1588.26</ele>
  <time>2026-08-28T19:12:55Z</time>
  <course>11.45</course>
  <speed>0.022360679774997897</speed>
  <fix>3d</fix>
</trkpt>
<trkpt lat="40.0728423" lon="-105.2305753">
  <ele>1588.27</ele>
  <time>2026-08-28T19:12:55Z</time>
  <course>189.46</course>
  <speed>0.0</speed>
  <fix>3d</fix>
</trkpt>
<trkpt lat="40.0728422" lon="-105.2305752">
  <ele>1588.16</ele>
  <time>2026-08-28T19:12:55Z</time>
  <course>11.44</course>
  <speed>0.022360679774997897</speed>
  <fix>3d</fix>
</trkpt>
<trkpt lat="40.0728423" lon="-105.2305753">
  <ele>1588.16</ele>
  <time>2026-08-28T19:12:55Z</time>
  <course>195.93</course>
  <speed>0.0</speed>
  <fix>3d</fix>
</trkpt>
<trkpt lat="40.0728422" lon="-105.2305752">
  <ele>1588.07</ele>
  <time>2026-08-28T19:12:55Z</time>
  <course>11.44</course>
  <speed>0.022360679774997897</speed>
  <fix>3d</fix>
</trkpt>
<trkpt lat="40.0728423" lon="-105.2305753">
  <ele>1588.07</ele>
  <time>2026-08-28T19:12:55Z</time>
  <course>192.01</course>
  <speed>0.0</speed>
  <fix>3d</fix>
</trkpt>
<trkpt lat="40.0728422" lon="-105.2305752">
  <ele>1587.96</ele>
  <time>2026-08-28T19:12:55Z</time>
  <course>11.44</course>
  <speed>0.022360679774997897</speed>
  <fix>3d</fix>
</trkpt>
<trkpt lat="40.0728423" lon="-105.2305753">
  <ele>1587.97</ele>
  <time>2026-08-28T19:12:55Z</time>
  <course>190.96</course>
  <speed>0.0</speed>
  <fix>3d</fix>
</trkpt>
<trkpt lat="40.0728422" lon="-105.2305752">
  <ele>1587.86</ele>
  <time>2026-08-28T19:12:55Z</time>
  <course>11.44</course>
  <speed>0.022360679774997897</speed>
  <fix>3d</fix>
</trkpt>
<trkpt lat="40.0728423" lon="-105.2305753">
  <ele>1587.87</ele>
  <time>2026-08-28T19:12:55Z</time>
  <course>200.88</course>
  <speed>0.0</speed>
  <fix>3d</fix>
</trkpt>
<trkpt lat="40.0728422" lon="-105.2305752">
  <ele>1587.76</ele>
  <time>2026-08-28T19:12:55Z</time>
  <course>11.44</course>
  <speed>0.022360679774997897</speed>
  <fix>3d</fix>
</trkpt>
<trkpt lat="40.0728423" lon="-105.2305753">
  <ele>1587.77</ele>
  <time>2026-08-28T19:12:55Z</time>
  <course>209.07</course>
  <speed>0.0</speed>
  <fix>3d</fix>
</trkpt>
<trkpt lat="40.0728422" lon="-105.2305752">
  <ele>1587.66</ele>
  <time>2026-08-28T19:12:55Z</time>
  <course>11.44</course>
  <speed>0.01414213562373095</speed>
  <fix>3d</fix>
</trkpt>
<trkpt lat="40.0728423" lon="-105.2305753">
  <ele>1587.66</ele>
  <time>2026-08-28T19:12:55Z</time>
  <course>217.7</course>
  <speed>0.0</speed>
  <fix>3d</fix>
</trkpt>
<trkpt lat="40.0728422" lon="-105.2305752">
  <ele>1587.57</ele>
  <time>2026-08-28T19:12:55Z</time>
  <course>11.44</course>
  <speed>0.01414213562373095</speed>
  <fix>3d</fix>
</trkpt>
<trkpt lat="40.0728423" lon="-105.2305753">
  <ele>1587.57</ele>
  <time>2026-08-28T19:12:55Z</time>
  <course>228.99</course>
  <speed>0.0</speed>
  <fix>3d</fix>
</trkpt>
<trkpt lat="40.0728422" lon="-105.2305752">
  <ele>1587.47</ele>
  <time>2026-08-28T19:12:55Z</time>
  <course>11.44</course>
  <speed>0.01414213562373095</speed>
  <fix>3d</fix>
</trkpt>
<trkpt lat="40.0728423" lon="-105.2305753">
  <ele>1587.47</ele>
  <time>2026-08-28T19:12:55Z</time>
  <course>239.01</course>
  <speed>0.0</speed>
  <fix>3d</fix>
</trkpt>
<trkpt lat="40.0728422" lon="-105.2305752">
  <ele>1587.37</ele>
  <time>2026-08-28T19:12:55Z</time>
  <course>11.44</course>
  <speed>0.01414213562373095</speed>
  <fix>3d</fix>
</trkpt>
<trkpt lat="40.0728423" lon="-105.2305753">
  <ele>1587.37</ele>
  <time>2026-08-28T19:12:55Z</time>
  <course>246.82</course>
  <speed>0.0</speed>
  <fix>3d</fix>
</trkpt>
<trkpt lat="40.0728422" lon="-105.2305752">
  <ele>1587.27</ele>
  <time>2026-08-28T19:12:55Z</time>
  <course>11.44</course>
  <speed>0.01414213562373095</speed>
  <fix>3d</fix>
</trkpt>
<trkpt lat="40.0728423" lon="-105.2305753">
  <ele>1587.26</ele>
  <time>2026-08-28T19:12:55Z</time>
  <course>254.52</course>
  <speed>0.0</speed>
  <fix>3d</fix>
</trkpt>
<trkpt lat="40.0728422" lon="-105.2305752">
  <ele>1587.17</ele>
  <time>2026-08-28T19:12:55Z</time>
  <course>11.44</course>
  <speed>0.01414213562373095</speed>
  <fix>3d</fix>
</trkpt>
<trkpt lat="40.0728423" lon="-105.2305753">
  <ele>1587.15</ele>
  <time>2026-08-28T19:12:55Z</time>
  <course>261.68</course>
  <speed>0.0</speed>
  <fix>3d</fix>
</trkpt>
<trkpt lat="40.0728422" lon="-105.2305752">
  <ele>1587.06</ele>
  <time>2026-08-28T19:12:55Z</time>
  <course>11.44</course>
  <speed>0.01414213562373095</speed>
  <fix>3d</fix>
</trkpt>
<trkpt lat="40.0728423" lon="-105.2305753">
  <ele>1587.06</ele>
  <time>2026-08-28T19:12:55Z</time>
  <course>265.47</course>
  <speed>0.0</speed>
  <fix>3d</fix>
</trkpt>
<trkpt lat="40.0728422" lon="-105.2305752">
  <ele>1586.96</ele>
  <time>2026-08-28T19:12:56Z</time>
  <course>11.44</course>
  <speed>0.022360679774997897</speed>
  <fix>3d</fix>
</trkpt>
<trkpt lat="40.0728423" lon="-105.2305753">
  <ele>1586.96</ele>
  <time>2026-08-28T19:12:56Z</time>
  <course>255.78</course>
  <speed>0.0</speed>
  <fix>3d</fix>
</trkpt>
<trkpt lat="40.0728422" lon="-105.2305752">
  <ele>1586.86</ele>
  <time>2026-08-28T19:12:56Z</time>
  <course>11.44</course>
  <speed>0.01414213562373095</speed>
  <fix>3d</fix>
</trkpt>
<trkpt lat="40.0728423" lon="-105.2305753">
  <ele>1586.86</ele>
  <time>2026-08-28T19:12:56Z</time>
  <course>251.98</course>
  <speed>0.0</speed>
  <fix>3d</fix>
</trkpt>
<trkpt lat="40.0728422" lon="-105.2305752">
  <ele>1586.76</ele>
  <time>2026-08-28T19:12:56Z</time>
  <course>11.44</course>
  <speed>0.01414213562373095</speed>
  <fix>3d</fix>
</trkpt>
<trkpt lat="40.0728423" lon="-105.2305753">
  <ele>1586.76</ele>
  <time>2026-08-28T19:12:56Z</time>
  <course>260.04</course>
  <speed>0.0</speed>
  <fix>3d</fix>
</trkpt>
<trkpt lat="40.0728422" lon="-105.2305752">
  <ele>1586.66</ele>
  <time>2026-08-28T19:12:56Z</time>
  <course>11.44</course>
  <speed>0.01414213562373095</speed>
  <fix>3d</fix>
</trkpt>
<trkpt lat="40.0728423" lon="-105.2305753">
  <ele>1586.65</ele>
  <time>2026-08-28T19:12:56Z</time>
  <course>277.67</course>
  <speed>0.0</speed>
  <fix>3d</fix>
</trkpt>
<trkpt lat="40.0728422" lon="-105.2305752">
  <ele>1586.57</ele>
  <time>2026-08-28T19:12:56Z</time>
  <course>11.44</course>
  <speed>0.01414213562373095</speed>
  <fix>3d</fix>
</trkpt>
<trkpt lat="40.0728423" lon="-105.2305753">
  <ele>1586.56</ele>
  <time>2026-08-28T19:12:56Z</time>
  <course>291.08</course>
  <speed>0.0</speed>
  <fix>3d</fix>
</trkpt>
<trkpt lat="40.0728422" lon="-105.2305752">
  <ele>1586.47</ele>
  <time>2026-08-28T19:12:56Z</time>
  <course>11.43</course>
  <speed>0.01414213562373095</speed>
  <fix>3d</fix>
</trkpt>
<trkpt lat="40.0728423" lon="-105.2305753">
  <ele>1586.46</ele>
  <time>2026-08-28T19:12:56Z</time>
  <course>287.95</course>
  <speed>0.0</speed>
  <fix>3d</fix>
</trkpt>
<trkpt lat="40.0728422" lon="-105.2305752">
  <ele>1586.37</ele>
  <time>2026-08-28T19:12:56Z</time>
  <course>11.43</course>
  <speed>0.01414213562373095</speed>
  <fix>3d</fix>
</trkpt>
<trkpt lat="40.0728423" lon="-105.2305753">
  <ele>1586.36</ele>
  <time>2026-08-28T19:12:56Z</time>
  <course>288.36</course>
  <speed>0.0</speed>
  <fix>3d</fix>
</trkpt>
<trkpt lat="40.0728422" lon="-105.2305752">
  <ele>1586.27</ele>
  <time>2026-08-28T19:12:56Z</time>
  <course>11.43</course>
  <speed>0.01414213562373095</speed>
  <fix>3d</fix>
</trkpt>
<trkpt lat="40.0728423" lon="-105.2305753">
  <ele>1586.26</ele>
  <time>2026-08-28T19:12:56Z</time>
  <course>285.99</course>
  <speed>0.0</speed>
  <fix>3d</fix>
</trkpt>
<trkpt lat="40.0728422" lon="-105.2305752">
  <ele>1586.17</ele>
  <time>2026-08-28T19:12:56Z</time>
  <course>11.43</course>
  <speed>0.01414213562373095</speed>
  <fix>3d</fix>
</trkpt>
<trkpt lat="40.0728423" lon="-105.2305753">
  <ele>1586.15</ele>
  <time>2026-08-28T19:12:56Z</time>
  <course>283.77</course>
  <speed>0.0</speed>
  <fix>3d</fix>
</trkpt>
<trkpt lat="40.0728422" lon="-105.2305752">
  <ele>1586.16</ele>
  <time>2026-08-28T19:12:56Z</time>
  <course>11.43</course>
  <speed>0.0282842712474619</speed>
  <fix>3d</fix>
</trkpt>
<trkpt lat="40.0728423" lon="-105.2305753">
  <ele>1586.08</ele>
  <time>2026-08-28T19:12:56Z</time>
  <course>283.82</course>
  <speed>0.0</speed>
  <fix>3d</fix>
</trkpt>
<trkpt lat="40.0728422" lon="-105.2305752">
  <ele>1586.17</ele>
  <time>2026-08-28T19:12:56Z</time>
  <course>11.43</course>
  <speed>0.01414213562373095</speed>
  <fix>3d</fix>
</trkpt>
<trkpt lat="40.0728423" lon="-105.2305753">
  <ele>1586.08</ele>
  <time>2026-08-28T19:12:56Z</time>
  <course>103.72</course>
  <speed>0.0</speed>
  <fix>3d</fix>
</trkpt>
<trkpt lat="40.0728422" lon="-105.2305752">
  <ele>1586.16</ele>
  <time>2026-08-28T19:12:56Z</time>
  <course>11.43</course>
  <speed>0.01414213562373095</speed>
  <fix>3d</fix>
</trkpt>
<trkpt lat="40.0728423" lon="-105.2305753">
  <ele>1586.1</ele>
  <time>2026-08-28T19:12:56Z</time>
  <course>103.76</course>
  <speed>0.0</speed>
  <fix>3d</fix>
</trkpt>
<trkpt lat="40.0728422" lon="-105.2305752">
  <ele>1586.16</ele>
  <time>2026-08-28T19:12:56Z</time>
  <course>11.43</course>
  <speed>0.01414213562373095</speed>
  <fix>3d</fix>
</trkpt>
<trkpt lat="40.0728423" lon="-105.2305753">
  <ele>1586.09</ele>
  <time>2026-08-28T19:12:56Z</time>
  <course>283.75</course>
  <speed>0.0</speed>
  <fix>3d</fix>
</trkpt>
<trkpt lat="40.0728422" lon="-105.2305752">
  <ele>1586.16</ele>
  <time>2026-08-28T19:12:56Z</time>
  <course>11.43</course>
  <speed>0.01414213562373095</speed>
  <fix>3d</fix>
</trkpt>
<trkpt lat="40.0728423" lon="-105.2305753">
  <ele>1586.09</ele>
  <time>2026-08-28T19:12:56Z</time>
  <course>282.0</course>
  <speed>0.0</speed>
  <fix>3d</fix>
</trkpt>
<trkpt lat="40.0728422" lon="-105.2305752">
  <ele>1586.16</ele>
  <time>2026-08-28T19:12:56Z</time>
  <course>11.42</course>
  <speed>0.01414213562373095</speed>
  <fix>3d</fix>
</trkpt>
<trkpt lat="40.0728423" lon="-105.2305753">
  <ele>1586.09</ele>
  <time>2026-08-28T19:12:56Z</time>
  <course>105.16</course>
  <speed>0.0</speed>
  <fix>3d</fix>
</trkpt>
<trkpt lat="40.0728422" lon="-105.2305752">
  <ele>1586.16</ele>
  <time>2026-08-28T19:12:56Z</time>
  <course>11.42</course>
  <speed>0.01414213562373095</speed>
  <fix>3d</fix>
</trkpt>
<trkpt lat="40.0728423" lon="-105.2305753">
  <ele>1586.09</ele>
  <time>2026-08-28T19:12:56Z</time>
  <course>276.7</course>
  <speed>0.0</speed>
  <fix>3d</fix>
</trkpt>
<trkpt lat="40.0728422" lon="-105.2305752">
  <ele>1586.16</ele>
  <time>2026-08-28T19:12:56Z</time>
  <course>11.42</course>
  <speed>0.01414213562373095</speed>
  <fix>3d</fix>
</trkpt>
<trkpt lat="40.0728423" lon="-105.2305753">
  <ele>1586.09</ele>
  <time>2026-08-28T19:12:56Z</time>
  <course>286.75</course>
  <speed>0.0</speed>
  <fix>3d</fix>
</trkpt>
<trkpt lat="40.0728422" lon="-105.2305752">
  <ele>1586.16</ele>
  <time>2026-08-28T19:12:56Z</time>
  <course>11.42</course>
  <speed>0.01414213562373095</speed>
  <fix>3d</fix>
</trkpt>
<trkpt lat="40.0728423" lon="-105.2305753">
  <ele>1586.09</ele>
  <time>2026-08-28T19:12:56Z</time>
  <course>329.25</course>
  <speed>0.0</speed>
  <fix>3d</fix>
</trkpt>
<trkpt lat="40.0728422" lon="-105.2305752">
  <ele>1586.16</ele>
  <time>2026-08-28T19:12:56Z</time>
  <course>11.42</course>
  <speed>0.01414213562373095</speed>
  <fix>3d</fix>
</trkpt>
<trkpt lat="40.0728423" lon="-105.2305753">
  <ele>1586.09</ele>
  <time>2026-08-28T19:12:56Z</time>
  <course>326.86</course>
  <speed>0.0</speed>
  <fix>3d</fix>
</trkpt>
<trkpt lat="40.0728422" lon="-105.2305752">
  <ele>1586.16</ele>
  <time>2026-08-28T19:12:56Z</time>
  <course>11.42</course>
  <speed>0.01414213562373095</speed>
  <fix>3d</fix>
</trkpt>
<trkpt lat="40.0728423" lon="-105.2305753">
  <ele>1586.09</ele>
  <time>2026-08-28T19:12:56Z</time>
  <course>148.37</course>
  <speed>0.0</speed>
  <fix>3d</fix>
</trkpt>
<trkpt lat="40.0728422" lon="-105.2305752">
  <ele>1586.16</ele>
  <time>2026-08-28T19:12:56Z</time>
  <course>11.42</course>
  <speed>0.01414213562373095</speed>
  <fix>3d</fix>
</trkpt>
<trkpt lat="40.0728423" lon="-105.2305753">
  <ele>1586.09</ele>
  <time>2026-08-28T19:12:56Z</time>
  <course>146.27</course>
  <speed>0.0</speed>
  <fix>3d</fix>
</trkpt>
<trkpt lat="40.0728422" lon="-105.2305752">
  <ele>1586.16</ele>
  <time>2026-08-28T19:12:56Z</time>
  <course>11.42</course>
  <speed>0.01414213562373095</speed>
  <fix>3d</fix>
</trkpt>
<trkpt lat="40.0728423" lon="-105.2305753">
  <ele>1586.09</ele>
  <time>2026-08-28T19:12:56Z</time>
  <course>327.92</course>
  <speed>0.0</speed>
  <fix>3d</fix>
</trkpt>
<trkpt lat="40.0728422" lon="-105.2305752">
  <ele>1586.16</ele>
  <time>2026-08-28T19:12:56Z</time>
  <course>11.42</course>
  <speed>0.01414213562373095</speed>
  <fix>3d</fix>
</trkpt>
<trkpt lat="40.0728423" lon="-105.2305753">
  <ele>1586.09</ele>
  <time>2026-08-28T19:12:56Z</time>
  <course>324.51</course>
  <speed>0.0</speed>
  <fix>3d</fix>
</trkpt>
<trkpt lat="40.0728422" lon="-105.2305752">
  <ele>1586.16</ele>
  <time>2026-08-28T19:12:56Z</time>
  <course>11.41</course>
  <speed>0.01414213562373095</speed>
  <fix>3d</fix>
</trkpt>
<trkpt lat="40.0728423" lon="-105.2305753">
  <ele>1586.09</ele>
  <time>2026-08-28T19:12:56Z</time>
  <course>147.6</course>
  <speed>0.0</speed>
  <fix>3d</fix>
</trkpt>
<trkpt lat="40.0728422" lon="-105.2305752">
  <ele>1586.16</ele>
  <time>2026-08-28T19:12:56Z</time>
  <course>11.41</course>
  <speed>0.01414213562373095</speed>
  <fix>3d</fix>
</trkpt>
<trkpt lat="40.0728423" lon="-105.2305753">
  <ele>1586.09</ele>
  <time>2026-08-28T19:12:56Z</time>
  <course>348.24</course>
  <speed>0.0</speed>
  <fix>3d</fix>
</trkpt>
<trkpt lat="40.0728422" lon="-105.2305752">
  <ele>1586.16</ele>
  <time>2026-08-28T19:12:56Z</time>
  <course>11.41</course>
  <speed>0.01414213562373095</speed>
  <fix>3d</fix>
</trkpt>
<trkpt lat="40.0728423" lon="-105.2305753">
  <ele>1586.09</ele>
  <time>2026-08-28T19:12:56Z</time>
  <course>327.32</course>
  <speed>0.0</speed>
  <fix>3d</fix>
</trkpt>
<trkpt lat="40.0728422" lon="-105.2305752">
  <ele>1586.16</ele>
  <time>2026-08-28T19:12:56Z</time>
  <course>11.41</course>
  <speed>0.01414213562373095</speed>
  <fix>3d</fix>
</trkpt>
<trkpt lat="40.0728423" lon="-105.2305753">
  <ele>1586.09</ele>
  <time>2026-08-28T19:12:56Z</time>
  <course>149.78</course>
  <speed>0.0</speed>
  <fix>3d</fix>
</trkpt>
<trkpt lat="40.0728422" lon="-105.2305752">
  <ele>1586.16</ele>
  <time>2026-08-28T19:12:56Z</time>
  <course>11.41</course>
  <speed>0.022360679774997897</speed>
  <fix>3d</fix>
</trkpt>
<trkpt lat="40.0728423" lon="-105.2305753">
  <ele>1586.09</ele>
  <time>2026-08-28T19:12:56Z</time>
  <course>146.98</course>
  <speed>0.0</speed>
  <fix>3d</fix>
</trkpt>
<trkpt lat="40.0728422" lon="-105.2305752">
  <ele>1586.16</ele>
  <time>2026-08-28T19:12:56Z</time>
  <course>11.41</course>
  <speed>0.022360679774997897</speed>
  <fix>3d</fix>
</trkpt>
<trkpt lat="40.0728423" lon="-105.2305753">
  <ele>1586.09</ele>
  <time>2026-08-28T19:12:56Z</time>
  <course>328.55</course>
  <speed>0.0</speed>
  <fix>3d</fix>
</trkpt>
<trkpt lat="40.0728422" lon="-105.2305752">
  <ele>1586.16</ele>
  <time>2026-08-28T19:12:56Z</time>
  <course>11.41</course>
  <speed>0.022360679774997897</speed>
  <fix>3d</fix>
</trkpt>
<trkpt lat="40.0728423" lon="-105.2305753">
  <ele>1586.09</ele>
  <time>2026-08-28T19:12:56Z</time>
  <course>326.49</course>
  <speed>0.0</speed>
  <fix>3d</fix>
</trkpt>
<trkpt lat="40.0728422" lon="-105.2305752">
  <ele>1586.16</ele>
  <time>2026-08-28T19:12:56Z</time>
  <course>11.41</course>
  <speed>0.01414213562373095</speed>
  <fix>3d</fix>
</trkpt>
<trkpt lat="40.0728423" lon="-105.2305753">
  <ele>1586.09</ele>
  <time>2026-08-28T19:12:56Z</time>
  <course>148.04</course>
  <speed>0.0</speed>
  <fix>3d</fix>
</trkpt>
<trkpt lat="40.0728422" lon="-105.2305752">
  <ele>1586.16</ele>
  <time>2026-08-28T19:12:56Z</time>
  <course>11.41</course>
  <speed>0.01414213562373095</speed>
  <fix>3d</fix>
</trkpt>
<trkpt lat="40.0728423" lon="-105.2305753">
  <ele>1586.09</ele>
  <time>2026-08-28T19:12:56Z</time>
  <course>145.36</course>
  <speed>0.0</speed>
  <fix>3d</fix>
</trkpt>
<trkpt lat="40.0728422" lon="-105.2305752">
  <ele>1586.16</ele>
  <time>2026-08-28T19:12:56Z</time>
  <course>11.4</course>
  <speed>0.01414213562373095</speed>
  <fix>3d</fix>
</trkpt>
<trkpt lat="40.0728423" lon="-105.2305753">
  <ele>1586.09</ele>
  <time>2026-08-28T19:12:56Z</time>
  <course>327.7</course>
  <speed>0.0</speed>
  <fix>3d</fix>
</trkpt>
<trkpt lat="40.0728422" lon="-105.2305752">
  <ele>1586.16</ele>
  <time>2026-08-28T19:12:56Z</time>
  <course>11.4</course>
  <speed>0.022360679774997897</speed>
  <fix>3d</fix>
</trkpt>
<trkpt lat="40.0728423" lon="-105.2305753">
  <ele>1586.09</ele>
  <time>2026-08-28T19:12:56Z</time>
  <course>312.23</course>
  <speed>0.0</speed>
  <fix>3d</fix>
</trkpt>
<trkpt lat="40.0728422" lon="-105.2305752">
  <ele>1586.15</ele>
  <time>2026-08-28T19:12:56Z</time>
  <course>11.4</course>
  <speed>0.01414213562373095</speed>
  <fix>3d</fix>
</trkpt>
<trkpt lat="40.0728423" lon="-105.2305753">
  <ele>1586.09</ele>
  <time>2026-08-28T19:12:56Z</time>
  <course>147.45</course>
  <speed>0.0</speed>
  <fix>3d</fix>
</trkpt>
<trkpt lat="40.0728422" lon="-105.2305752">
  <ele>1586.15</ele>
  <time>2026-08-28T19:12:56Z</time>
  <course>11.4</course>
  <speed>0.01414213562373095</speed>
  <fix>3d</fix>
</trkpt>
<trkpt lat="40.0728423" lon="-105.2305753">
  <ele>1586.09</ele>
  <time>2026-08-28T19:12:56Z</time>
  <course>330.59</course>
  <speed>0.0</speed>
  <fix>3d</fix>
</trkpt>
<trkpt lat="40.0728422" lon="-105.2305752">
  <ele>1586.15</ele>
  <time>2026-08-28T19:12:56Z</time>
  <course>11.4</course>
  <speed>0.01414213562373095</speed>
  <fix>3d</fix>
</trkpt>
<trkpt lat="40.0728423" lon="-105.2305753">
  <ele>1586.09</ele>
  <time>2026-08-28T19:12:56Z</time>
  <course>327.26</course>
  <speed>0.0</speed>
  <fix>3d</fix>
</trkpt>
<trkpt lat="40.0728422" lon="-105.2305752">
  <ele>1586.15</ele>
  <time>2026-08-28T19:12:56Z</time>
  <course>11.4</course>
  <speed>0.01414213562373095</speed>
  <fix>3d</fix>
</trkpt>
<trkpt lat="40.0728423" lon="-105.2305753">
  <ele>1586.09</ele>
  <time>2026-08-28T19:12:56Z</time>
  <course>156.13</course>
  <speed>0.0</speed>
  <fix>3d</fix>
</trkpt>
<trkpt lat="40.0728422" lon="-105.2305752">
  <ele>1586.15</ele>
  <time>2026-08-28T19:12:56Z</time>
  <course>11.4</course>
  <speed>0.01414213562373095</speed>
  <fix>3d</fix>
</trkpt>
<trkpt lat="40.0728423" lon="-105.2305753">
  <ele>1586.09</ele>
  <time>2026-08-28T19:12:56Z</time>
  <course>159.22</course>
  <speed>0.0</speed>
  <fix>3d</fix>
</trkpt>
<trkpt lat="40.0728422" lon="-105.2305752">
  <ele>1586.15</ele>
  <time>2026-08-28T19:12:56Z</time>
  <course>11.4</course>
  <speed>0.01414213562373095</speed>
  <fix>3d</fix>
</trkpt>
<trkpt lat="40.0728423" lon="-105.2305753">
  <ele>1586.09</ele>
  <time>2026-08-28T19:12:56Z</time>
  <course>343.11</course>
  <speed>0.0</speed>
  <fix>3d</fix>
</trkpt>
<trkpt lat="40.0728422" lon="-105.2305752">
  <ele>1586.15</ele>
  <time>2026-08-28T19:12:56Z</time>
  <course>11.4</course>
  <speed>0.01414213562373095</speed>
  <fix>3d</fix>
</trkpt>
<trkpt lat="40.0728423" lon="-105.2305753">
  <ele>1586.09</ele>
  <time>2026-08-28T19:12:56Z</time>
  <course>343.41</course>
  <speed>0.0</speed>
  <fix>3d</fix>
</trkpt>
<trkpt lat="40.0728422" lon="-105.2305752">
  <ele>1586.15</ele>
  <time>2026-08-28T19:12:56Z</time>
  <course>11.39</course>
  <speed>0.01414213562373095</speed>
  <fix>3d</fix>
</trkpt>
<trkpt lat="40.0728423" lon="-105.2305753">
  <ele>1586.09</ele>
  <time>2026-08-28T19:12:56Z</time>
  <course>343.43</course>
  <speed>0.0</speed>
  <fix>3d</fix>
</trkpt>
<trkpt lat="40.0728422" lon="-105.2305752">
  <ele>1586.15</ele>
  <time>2026-08-28T19:12:56Z</time>
  <course>11.39</course>
  <speed>0.01414213562373095</speed>
  <fix>3d</fix>
</trkpt>
<trkpt lat="40.0728423" lon="-105.2305753">
  <ele>1586.09</ele>
  <time>2026-08-28T19:12:56Z</time>
  <course>343.44</course>
  <speed>0.0</speed>
  <fix>3d</fix>
</trkpt>
<trkpt lat="40.0728422" lon="-105.2305752">
  <ele>1586.15</ele>
  <time>2026-08-28T19:12:56Z</time>
  <course>11.39</course>
  <speed>0.01414213562373095</speed>
  <fix>3d</fix>
</trkpt>
<trkpt lat="40.0728423" lon="-105.2305753">
  <ele>1586.09</ele>
  <time>2026-08-28T19:12:56Z</time>
  <course>343.44</course>
  <speed>0.0</speed>
  <fix>3d</fix>
</trkpt>
<trkpt lat="40.0728422" lon="-105.2305752">
  <ele>1586.15</ele>
  <time>2026-08-28T19:12:56Z</time>
  <course>11.39</course>
  <speed>0.01414213562373095</speed>
  <fix>3d</fix>
</trkpt>
<trkpt lat="40.0728423" lon="-105.2305753">
  <ele>1586.09</ele>
  <time>2026-08-28T19:12:56Z</time>
  <course>343.44</course>
  <speed>0.0</speed>
  <fix>3d</fix>
</trkpt>
<trkpt lat="40.0728422" lon="-105.2305752">
  <ele>1586.15</ele>
  <time>2026-08-28T19:12:56Z</time>
  <course>11.39</course>
  <speed>0.01414213562373095</speed>
  <fix>3d</fix>
</trkpt>
<trkpt lat="40.0728423" lon="-105.2305753">
  <ele>1586.09</ele>
  <time>2026-08-28T19:12:56Z</time>
  <course>343.44</course>
  <speed>0.0</speed>
  <fix>3d</fix>
</trkpt>
<trkpt lat="40.0728422" lon="-105.2305752">
  <ele>1586.15</ele>
  <time>2026-08-28T19:12:56Z</time>
  <course>11.39</course>
  <speed>0.01414213562373095</speed>
  <fix>3d</fix>
</trkpt>
<trkpt lat="40.0728423" lon="-105.2305753">
  <ele>1586.09</ele>
  <time>2026-08-28T19:12:56Z</time>
  <course>343.44</course>
  <speed>0.0</speed>
  <fix>3d</fix>
</trkpt>
<trkpt lat="40.0728422" lon="-105.2305752">
  <ele>1586.15</ele>
  <time>2026-08-28T19:12:56Z</time>
  <course>11.39</course>
  <speed>0.01414213562373095</speed>
  <fix>3d</fix>
</trkpt>
<trkpt lat="40.0728423" lon="-105.2305753">
  <ele>1586.09</ele>
  <time>2026-08-28T19:12:56Z</time>
  <course>343.44</course>
  <speed>0.0</speed>
  <fix>3d</fix>
</trkpt>
<trkpt lat="40.0728422" lon="-105.2305752">
  <ele>1586.15</ele>
  <time>2026-08-28T19:12:56Z</time>
  <course>11.39</course>
  <speed>0.01414213562373095</speed>
  <fix>3d</fix>
</trkpt>
<trkpt lat="40.0728423" lon="-105.2305753">
  <ele>1586.09</ele>
  <time>2026-08-28T19:12:56Z</time>
  <course>343.44</course>
  <speed>0.0</speed>
  <fix>3d</fix>
</trkpt>
<trkpt lat="40.0728422" lon="-105.2305752">
  <ele>1586.16</ele>
  <time>2026-08-28T19:12:56Z</time>
  <course>11.39</course>
  <speed>0.01414213562373095</speed>
  <fix>3d</fix>
</trkpt>
<trkpt lat="40.0728423" lon="-105.2305753">
  <ele>1586.09</ele>
  <time>2026-08-28T19:12:56Z</time>
  <course>343.44</course>
  <speed>0.0</speed>
  <fix>3d</fix>
</trkpt>
<trkpt lat="40.0728422" lon="-105.2305752">
  <ele>1586.16</ele>
  <time>2026-08-28T19:12:56Z</time>
  <course>11.39</course>
  <speed>0.01414213562373095</speed>
  <fix>3d</fix>
</trkpt>
<trkpt lat="40.0728423" lon="-105.2305753">
  <ele>1586.09</ele>
  <time>2026-08-28T19:12:56Z</time>
  <course>343.44</course>
  <speed>0.0</speed>
  <fix>3d</fix>
</trkpt>
<trkpt lat="40.0728422" lon="-105.2305752">
  <ele>1586.16</ele>
  <time>2026-08-28T19:12:56Z</time>
  <course>11.38</course>
  <speed>0.01414213562373095</speed>
  <fix>3d</fix>
</trkpt>
<trkpt lat="40.0728423" lon="-105.2305753">
  <ele>1586.09</ele>
  <time>2026-08-28T19:12:56Z</time>
  <course>343.44</course>
  <speed>0.0</speed>
  <fix>3d</fix>
</trkpt>
<trkpt lat="40.0728422" lon="-105.2305752">
  <ele>1586.16</ele>
  <time>2026-08-28T19:12:56Z</time>
  <course>11.38</course>
  <speed>0.01414213562373095</speed>
  <fix>3d</fix>
</trkpt>
<trkpt lat="40.0728423" lon="-105.2305753">
  <ele>1586.09</ele>
  <time>2026-08-28T19:12:56Z</time>
  <course>343.44</course>
  <speed>0.0</speed>
  <fix>3d</fix>
</trkpt>
<trkpt lat="40.0728422" lon="-105.2305752">
  <ele>1586.16</ele>
  <time>2026-08-28T19:12:56Z</time>
  <course>11.38</course>
  <speed>0.01414213562373095</speed>
  <fix>3d</fix>
</trkpt>
<trkpt lat="40.0728423" lon="-105.2305753">
  <ele>1586.09</ele>
  <time>2026-08-28T19:12:56Z</time>
  <course>343.44</course>
  <speed>0.0</speed>
  <fix>3d</fix>
</trkpt>
<trkpt lat="40.0728422" lon="-105.2305752">
  <ele>1586.16</ele>
  <time>2026-08-28T19:12:56Z</time>
  <course>11.38</course>
  <speed>0.01414213562373095</speed>
  <fix>3d</fix>
</trkpt>
<trkpt lat="40.0728423" lon="-105.2305753">
  <ele>1586.09</ele>
  <time>2026-08-28T19:12:56Z</time>
  <course>343.44</course>
  <speed>0.0</speed>
  <fix>3d</fix>
</trkpt>
<trkpt lat="40.0728422" lon="-105.2305752">
  <ele>1586.16</ele>
  <time>2026-08-28T19:12:56Z</time>
  <course>11.38</course>
  <speed>0.01414213562373095</speed>
  <fix>3d</fix>
</trkpt>
<trkpt lat="40.0728423" lon="-105.2305753">
  <ele>1586.09</ele>
  <time>2026-08-28T19:12:56Z</time>
  <course>343.44</course>
  <speed>0.0</speed>
  <fix>3d</fix>
</trkpt>
<trkpt lat="40.0728422" lon="-105.2305752">
  <ele>1586.16</ele>
  <time>2026-08-28T19:12:56Z</time>
  <course>11.38</course>
  <speed>0.01414213562373095</speed>
  <fix>3d</fix>
</trkpt>
<trkpt lat="40.0728423" lon="-105.2305753">
  <ele>1586.09</ele>
  <time>2026-08-28T19:12:56Z</time>
  <course>343.44</course>
  <speed>0.0</speed>
  <fix>3d</fix>
</trkpt>
<trkpt lat="40.0728422" lon="-105.2305752">
  <ele>1586.16</ele>
  <time>2026-08-28T19:12:56Z</time>
  <course>11.38</course>
  <speed>0.01414213562373095</speed>
  <fix>3d</fix>
</trkpt>
<trkpt lat="40.0728423" lon="-105.2305753">
  <ele>1586.09</ele>
  <time>2026-08-28T19:12:56Z</time>
  <course>343.44</course>
  <speed>0.0</speed>
  <fix>3d</fix>
</trkpt>
<trkpt lat="40.0728422" lon="-105.2305752">
  <ele>1586.16</ele>
  <time>2026-08-28T19:12:56Z</time>
  <course>11.38</course>
  <speed>0.01414213562373095</speed>
  <fix>3d</fix>
</trkpt>
<trkpt lat="40.0728423" lon="-105.2305753">
  <ele>1586.09</ele>
  <time>2026-08-28T19:12:56Z</time>
  <course>343.44</course>
  <speed>0.0</speed>
  <fix>3d</fix>
</trkpt>
<trkpt lat="40.0728422" lon="-105.2305752">
  <ele>1586.16</ele>
  <time>2026-08-28T19:12:56Z</time>
  <course>11.38</course>
  <speed>0.01414213562373095</speed>
  <fix>3d</fix>
</trkpt>
<trkpt lat="40.0728423" lon="-105.2305753">
  <ele>1586.09</ele>
  <time>2026-08-28T19:12:56Z</time>
  <course>343.44</course>
  <speed>0.0</speed>
  <fix>3d</fix>
</trkpt>
<trkpt lat="40.0728422" lon="-105.2305752">
  <ele>1586.16</ele>
  <time>2026-08-28T19:12:56Z</time>
  <course>11.38</course>
  <speed>0.01414213562373095</speed>
  <fix>3d</fix>
</trkpt>
<trkpt lat="40.0728423" lon="-105.2305753">
  <ele>1586.09</ele>
  <time>2026-08-28T19:12:56Z</time>
  <course>343.44</course>
  <speed>0.0</speed>
  <fix>3d</fix>
</trkpt>
<trkpt lat="40.0728422" lon="-105.2305752">
  <ele>1586.16</ele>
  <time>2026-08-28T19:12:56Z</time>
  <course>11.37</course>
  <speed>0.01414213562373095</speed>
  <fix>3d</fix>
</trkpt>
<trkpt lat="40.0728423" lon="-105.2305753">
  <ele>1586.09</ele>
  <time>2026-08-28T19:12:56Z</time>
  <course>343.44</course>
  <speed>0.0</speed>
  <fix>3d</fix>
</trkpt>
<trkpt lat="40.0728422" lon="-105.2305752">
  <ele>1586.16</ele>
  <time>2026-08-28T19:12:56Z</time>
  <course>11.37</course>
  <speed>0.01414213562373095</speed>
  <fix>3d</fix>
</trkpt>
<trkpt lat="40.0728423" lon="-105.2305753">
  <ele>1586.09</ele>
  <time>2026-08-28T19:12:56Z</time>
  <course>343.44</course>
  <speed>0.0</speed>
  <fix>3d</fix>
</trkpt>
<trkpt lat="40.0728422" lon="-105.2305752">
  <ele>1586.16</ele>
  <time>2026-08-28T19:12:56Z</time>
  <course>11.37</course>
  <speed>0.01414213562373095</speed>
  <fix>3d</fix>
</trkpt>
<trkpt lat="40.0728423" lon="-105.2305753">
  <ele>1586.09</ele>
  <time>2026-08-28T19:12:56Z</time>
  <course>343.44</course>
  <speed>0.0</speed>
  <fix>3d</fix>
</trkpt>
<trkpt lat="40.0728422" lon="-105.2305752">
  <ele>1586.16</ele>
  <time>2026-08-28T19:12:56Z</time>
  <course>11.37</course>
  <speed>0.01414213562373095</speed>
  <fix>3d</fix>
</trkpt>
<trkpt lat="40.0728423" lon="-105.2305753">
  <ele>1586.09</ele>
  <time>2026-08-28T19:12:56Z</time>
  <course>343.44</course>
  <speed>0.0</speed>
  <fix>3d</fix>
</trkpt>
<trkpt lat="40.0728422" lon="-105.2305752">
  <ele>1586.16</ele>
  <time>2026-08-28T19:12:56Z</time>
  <course>11.37</course>
  <speed>0.01414213562373095</speed>
  <fix>3d</fix>
</trkpt>
<trkpt lat="40.0728423" lon="-105.2305753">
  <ele>1586.09</ele>
  <time>2026-08-28T19:12:56Z</time>
  <course>343.44</course>
  <speed>0.0</speed>
  <fix>3d</fix>
</trkpt>
<trkpt lat="40.0728422" lon="-105.2305752">
  <ele>1586.16</ele>
  <time>2026-08-28T19:12:56Z</time>
  <course>11.38</course>
  <speed>0.01414213562373095</speed>
  <fix>3d</fix>
</trkpt>
<trkpt lat="40.0728423" lon="-105.2305753">
  <ele>1586.09</ele>
  <time>2026-08-28T19:12:56Z</time>
  <course>343.44</course>
  <speed>0.0</speed>
  <fix>3d</fix>
</trkpt>
<trkpt lat="40.0728422" lon="-105.2305752">
  <ele>1586.17</ele>
  <time>2026-08-28T19:12:56Z</time>
  <course>11.42</course>
  <speed>0.01414213562373095</speed>
  <fix>3d</fix>
</trkpt>
<trkpt lat="40.0728423" lon="-105.2305753">
  <ele>1586.09</ele>
  <time>2026-08-28T19:12:56Z</time>
  <course>343.44</course>
  <speed>0.0</speed>
  <fix>3d</fix>
</trkpt>
<trkpt lat="40.0728422" lon="-105.2305752">
  <ele>1586.17</ele>
  <time>2026-08-28T19:12:56Z</time>
  <course>11.47</course>
  <speed>0.01414213562373095</speed>
  <fix>3d</fix>
</trkpt>
<trkpt lat="40.0728423" lon="-105.2305753">
  <ele>1586.09</ele>
  <time>2026-08-28T19:12:56Z</time>
  <course>343.44</course>
  <speed>0.0</speed>
  <fix>3d</fix>
</trkpt>
<trkpt lat="40.0728422" lon="-105.2305752">
  <ele>1586.16</ele>
  <time>2026-08-28T19:12:56Z</time>
  <course>11.52</course>
  <speed>0.01414213562373095</speed>
  <fix>3d</fix>
</trkpt>
<trkpt lat="40.0728423" lon="-105.2305753">
  <ele>1586.09</ele>
  <time>2026-08-28T19:12:56Z</time>
  <course>343.44</course>
  <speed>0.0</speed>
  <fix>3d</fix>
</trkpt>
<trkpt lat="40.0728422" lon="-105.2305752">
  <ele>1586.16</ele>
  <time>2026-08-28T19:12:56Z</time>
  <course>11.58</course>
  <speed>0.01414213562373095</speed>
  <fix>3d</fix>
</trkpt>
<trkpt lat="40.0728423" lon="-105.2305753">
  <ele>1586.09</ele>
  <time>2026-08-28T19:12:56Z</time>
  <course>343.44</course>
  <speed>0.0</speed>
  <fix>3d</fix>
</trkpt>
<trkpt lat="40.0728422" lon="-105.2305752">
  <ele>1586.16</ele>
  <time>2026-08-28T19:12:56Z</time>
  <course>11.63</course>
  <speed>0.01414213562373095</speed>
  <fix>3d</fix>
</trkpt>
<trkpt lat="40.0728423" lon="-105.2305753">
  <ele>1586.09</ele>
  <time>2026-08-28T19:12:56Z</time>
  <course>343.44</course>
  <speed>0.0</speed>
  <fix>3d</fix>
</trkpt>
<trkpt lat="40.0728422" lon="-105.2305752">
  <ele>1586.16</ele>
  <time>2026-08-28T19:12:56Z</time>
  <course>11.68</course>
  <speed>0.01414213562373095</speed>
  <fix>3d</fix>
</trkpt>
<trkpt lat="40.0728423" lon="-105.2305753">
  <ele>1586.09</ele>
  <time>2026-08-28T19:12:56Z</time>
  <course>343.44</course>
  <speed>0.0</speed>
  <fix>3d</fix>
</trkpt>
<trkpt lat="40.0728422" lon="-105.2305752">
  <ele>1586.17</ele>
  <time>2026-08-28T19:12:56Z</time>
  <course>11.73</course>
  <speed>0.01414213562373095</speed>
  <fix>3d</fix>
</trkpt>
<trkpt lat="40.0728423" lon="-105.2305753">
  <ele>1586.09</ele>
  <time>2026-08-28T19:12:56Z</time>
  <course>343.44</course>
  <speed>0.0</speed>
  <fix>3d</fix>
</trkpt>
<trkpt lat="40.0728422" lon="-105.2305752">
  <ele>1586.17</ele>
  <time>2026-08-28T19:12:56Z</time>
  <course>11.79</course>
  <speed>0.01414213562373095</speed>
  <fix>3d</fix>
</trkpt>
<trkpt lat="40.0728423" lon="-105.2305753">
  <ele>1586.09</ele>
  <time>2026-08-28T19:12:56Z</time>
  <course>343.44</course>
  <speed>0.0</speed>
  <fix>3d</fix>
</trkpt>
<trkpt lat="40.0728422" lon="-105.2305752">
  <ele>1586.17</ele>
  <time>2026-08-28T19:12:56Z</time>
  <course>11.84</course>
  <speed>0.01414213562373095</speed>
  <fix>3d</fix>
</trkpt>
<trkpt lat="40.0728423" lon="-105.2305753">
  <ele>1586.09</ele>
  <time>2026-08-28T19:12:56Z</time>
  <course>343.44</course>
  <speed>0.0</speed>
  <fix>3d</fix>
</trkpt>
<trkpt lat="40.0728422" lon="-105.2305752">
  <ele>1586.17</ele>
  <time>2026-08-28T19:12:56Z</time>
  <course>11.89</course>
  <speed>0.01414213562373095</speed>
  <fix>3d</fix>
</trkpt>
<trkpt lat="40.0728423" lon="-105.2305753">
  <ele>1586.09</ele>
  <time>2026-08-28T19:12:56Z</time>
  <course>343.44</course>
  <speed>0.0</speed>
  <fix>3d</fix>
</trkpt>
<trkpt lat="40.0728422" lon="-105.2305752">
  <ele>1586.17</ele>
  <time>2026-08-28T19:12:56Z</time>
  <course>11.95</course>
  <speed>0.01414213562373095</speed>
  <fix>3d</fix>
</trkpt>
<trkpt lat="40.0728423" lon="-105.2305753">
  <ele>1586.09</ele>
  <time>2026-08-28T19:12:56Z</time>
  <course>343.44</course>
  <speed>0.0</speed>
  <fix>3d</fix>
</trkpt>
<trkpt lat="40.0728422" lon="-105.2305752">
  <ele>1586.18</ele>
  <time>2026-08-28T19:12:56Z</time>
  <course>12.0</course>
  <speed>0.01414213562373095</speed>
  <fix>3d</fix>
</trkpt>
<trkpt lat="40.0728423" lon="-105.2305753">
  <ele>1586.09</ele>
  <time>2026-08-28T19:12:56Z</time>
  <course>343.44</course>
  <speed>0.0</speed>
  <fix>3d</fix>
</trkpt>
<trkpt lat="40.0728422" lon="-105.2305752">
  <ele>1586.18</ele>
  <time>2026-08-28T19:12:56Z</time>
  <course>12.05</course>
  <speed>0.01414213562373095</speed>
  <fix>3d</fix>
</trkpt>
<trkpt lat="40.0728423" lon="-105.2305753">
  <ele>1586.09</ele>
  <time>2026-08-28T19:12:56Z</time>
  <course>343.44</course>
  <speed>0.0</speed>
  <fix>3d</fix>
</trkpt>
<trkpt lat="39.6562421" lon="-104.1365912">
  <ele>1569.6</ele>
  <time>2026-08-28T19:12:57Z</time>
  <course>0.0</course>
  <speed>0.0</speed>
  <fix>3d</fix>
</trkpt>
<trkpt lat="40.072842" lon="-105.230575">
  <ele>1586.09</ele>
  <time>2026-08-28T19:12:57Z</time>
  <course>2.03</course>
  <speed>0.0</speed>
  <fix>3d</fix>
</trkpt>
<trkpt lat="40.072842" lon="-105.230575">
  <ele>1586.09</ele>
  <time>2026-08-28T19:12:57Z</time>
  <course>0.0</course>
  <speed>0.0</speed>
  <fix>3d</fix>
</trkpt>
<trkpt lat="40.072842" lon="-105.230575">
  <ele>1586.09</ele>
  <time>2026-08-28T19:12:57Z</time>
  <course>2.44</course>
  <speed>0.0</speed>
  <fix>3d</fix>
</trkpt>
<trkpt lat="40.072842" lon="-105.230575">
  <ele>1586.09</ele>
  <time>2026-08-28T19:12:57Z</time>
  <course>0.0</course>
  <speed>0.0</speed>
  <fix>3d</fix>
</trkpt>
<trkpt lat="40.072842" lon="-105.230575">
  <ele>1586.09</ele>
  <time>2026-08-28T19:12:57Z</time>
  <course>3.19</course>
  <speed>0.0</speed>
  <fix>3d</fix>
</trkpt>
<trkpt lat="40.072842" lon="-105.230575">
  <ele>1586.09</ele>
  <time>2026-08-28T19:12:57Z</time>
  <course>0.0</course>
  <speed>0.0</speed>
  <fix>3d</fix>
</trkpt>
<trkpt lat="40.072842" lon="-105.230575">
  <ele>1586.09</ele>
  <time>2026-08-28T19:12:57Z</time>
  <course>3.87</course>
  <speed>0.0</speed>
  <fix>3d</fix>
</trkpt>
<trkpt lat="40.072842" lon="-105.230575">
  <ele>1586.09</ele>
  <time>2026-08-28T19:12:57Z</time>
  <course>0.0</course>
  <speed>0.0</speed>
  <fix>3d</fix>
</trkpt>
<trkpt lat="40.072842" lon="-105.230575">
  <ele>1586.09</ele>
  <time>2026-08-28T19:12:57Z</time>
  <course>4.49</course>
  <speed>0.0</speed>
  <fix>3d</fix>
</trkpt>
<trkpt lat="40.072842" lon="-105.230575">
  <ele>1586.09</ele>
  <time>2026-08-28T19:12:57Z</time>
  <course>0.0</course>
  <speed>0.0</speed>
  <fix>3d</fix>
</trkpt>
<trkpt lat="40.072842" lon="-105.230575">
  <ele>1586.09</ele>
  <time>2026-08-28T19:12:57Z</time>
  <course>5.09</course>
  <speed>0.0</speed>
  <fix>3d</fix>
</trkpt>
<trkpt lat="40.072842" lon="-105.230575">
  <ele>1586.09</ele>
  <time>2026-08-28T19:12:57Z</time>
  <course>0.0</course>
  <speed>0.0</speed>
  <fix>3d</fix>
</trkpt>
<trkpt lat="40.072842" lon="-105.230575">
  <ele>1586.09</ele>
  <time>2026-08-28T19:12:57Z</time>
  <course>5.65</course>
  <speed>0.0</speed>
  <fix>3d</fix>
</trkpt>
<trkpt lat="40.072842" lon="-105.230575">
  <ele>1586.09</ele>
  <time>2026-08-28T19:12:57Z</time>
  <course>0.0</course>
  <speed>0.0</speed>
  <fix>3d</fix>
</trkpt>
<trkpt lat="40.072842" lon="-105.230575">
  <ele>1586.09</ele>
  <time>2026-08-28T19:12:57Z</time>
  <course>6.17</course>
  <speed>0.0</speed>
  <fix>3d</fix>
</trkpt>
<trkpt lat="40.072842" lon="-105.230575">
  <ele>1586.09</ele>
  <time>2026-08-28T19:12:57Z</time>
  <course>0.0</course>
  <speed>0.0</speed>
  <fix>3d</fix>
</trkpt>
<trkpt lat="40.072842" lon="-105.230575">
  <ele>1586.09</ele>
  <time>2026-08-28T19:12:58Z</time>
  <course>6.66</course>
  <speed>0.0</speed>
  <fix>3d</fix>
</trkpt>
<trkpt lat="40.072842" lon="-105.230575">
  <ele>1586.09</ele>
  <time>2026-08-28T19:12:58Z</time>
  <course>0.0</course>
  <speed>0.0</speed>
  <fix>3d</fix>
</trkpt>
<trkpt lat="40.072842" lon="-105.230575">
  <ele>1586.09</ele>
  <time>2026-08-28T19:12:58Z</time>
  <course>7.11</course>
  <speed>0.0</speed>
  <fix>3d</fix>
</trkpt>
<trkpt lat="40.072842" lon="-105.230575">
  <ele>1586.09</ele>
  <time>2026-08-28T19:12:58Z</time>
  <course>0.0</course>
  <speed>0.0</speed>
  <fix>3d</fix>
</trkpt>
<trkpt lat="40.072842" lon="-105.230575">
  <ele>1586.09</ele>
  <time>2026-08-28T19:12:58Z</time>
  <course>7.54</course>
  <speed>0.0</speed>
  <fix>3d</fix>
</trkpt>
<trkpt lat="40.072842" lon="-105.230575">
  <ele>1586.09</ele>
  <time>2026-08-28T19:12:58Z</time>
  <course>0.0</course>
  <speed>0.0</speed>
  <fix>3d</fix>
</trkpt>
<trkpt lat="40.072842" lon="-105.230575">
  <ele>1586.09</ele>
  <time>2026-08-28T19:12:58Z</time>
  <course>7.93</course>
  <speed>0.0</speed>
  <fix>3d</fix>
</trkpt>
<trkpt lat="40.072842" lon="-105.230575">
  <ele>1586.09</ele>
  <time>2026-08-28T19:12:58Z</time>
  <course>0.0</course>
  <speed>0.0</speed>
  <fix>3d</fix>
</trkpt>
<trkpt lat="40.072842" lon="-105.230575">
  <ele>1586.09</ele>
  <time>2026-08-28T19:12:58Z</time>
  <course>8.29</course>
  <speed>0.0</speed>
  <fix>3d</fix>
</trkpt>
<trkpt lat="40.072842" lon="-105.230575">
  <ele>1586.09</ele>
  <time>2026-08-28T19:12:58Z</time>
  <course>0.0</course>
  <speed>0.0</speed>
  <fix>3d</fix>
</trkpt>
<trkpt lat="40.072842" lon="-105.230575">
  <ele>1586.09</ele>
  <time>2026-08-28T19:12:58Z</time>
  <course>8.63</course>
  <speed>0.0</speed>
  <fix>3d</fix>
</trkpt>
<trkpt lat="40.072842" lon="-105.230575">
  <ele>1586.09</ele>
  <time>2026-08-28T19:12:58Z</time>
  <course>0.0</course>
  <speed>0.0</speed>
  <fix>3d</fix>
</trkpt>
<trkpt lat="40.072842" lon="-105.230575">
  <ele>1586.09</ele>
  <time>2026-08-28T19:12:58Z</time>
  <course>8.94</course>
  <speed>0.0</speed>
  <fix>3d</fix>
</trkpt>
<trkpt lat="40.072842" lon="-105.230575">
  <ele>1586.09</ele>
  <time>2026-08-28T19:12:58Z</time>
  <course>0.0</course>
  <speed>0.0</speed>
  <fix>3d</fix>
</trkpt>
<trkpt lat="40.072842" lon="-105.230575">
  <ele>1586.09</ele>
  <time>2026-08-28T19:12:58Z</time>
  <course>9.23</course>
  <speed>0.0</speed>
  <fix>3d</fix>
</trkpt>
<trkpt lat="40.072842" lon="-105.230575">
  <ele>1586.09</ele>
  <time>2026-08-28T19:12:58Z</time>
  <course>0.0</course>
  <speed>0.0</speed>
  <fix>3d</fix>
</trkpt>
<trkpt lat="40.072842" lon="-105.230575">
  <ele>1586.09</ele>
  <time>2026-08-28T19:12:58Z</time>
  <course>9.49</course>
  <speed>0.0</speed>
  <fix>3d</fix>
</trkpt>
<trkpt lat="40.072842" lon="-105.230575">
  <ele>1586.09</ele>
  <time>2026-08-28T19:12:58Z</time>
  <course>0.0</course>
  <speed>0.0</speed>
  <fix>3d</fix>
</trkpt>
<trkpt lat="40.072842" lon="-105.230575">
  <ele>1586.09</ele>
  <time>2026-08-28T19:12:58Z</time>
  <course>9.73</course>
  <speed>0.0</speed>
  <fix>3d</fix>
</trkpt>
<trkpt lat="40.072842" lon="-105.230575">
  <ele>1586.09</ele>
  <time>2026-08-28T19:12:58Z</time>
  <course>0.0</course>
  <speed>0.0</speed>
  <fix>3d</fix>
</trkpt>
<trkpt lat="40.072842" lon="-105.230575">
  <ele>1586.09</ele>
  <time>2026-08-28T19:12:58Z</time>
  <course>9.96</course>
  <speed>0.0</speed>
  <fix>3d</fix>
</trkpt>
<trkpt lat="40.072842" lon="-105.230575">
  <ele>1586.09</ele>
  <time>2026-08-28T19:12:58Z</time>
  <course>0.0</course>
  <speed>0.0</speed>
  <fix>3d</fix>
</trkpt>
<trkpt lat="40.072842" lon="-105.230575">
  <ele>1586.09</ele>
  <time>2026-08-28T19:12:58Z</time>
  <course>10.16</course>
  <speed>0.0</speed>
  <fix>3d</fix>
</trkpt>
<trkpt lat="40.072842" lon="-105.230575">
  <ele>1586.09</ele>
  <time>2026-08-28T19:12:58Z</time>
  <course>0.0</course>
  <speed>0.0</speed>
  <fix>3d</fix>
</trkpt>
<trkpt lat="40.072842" lon="-105.230575">
  <ele>1586.09</ele>
  <time>2026-08-28T19:12:58Z</time>
  <course>10.35</course>
  <speed>0.0</speed>
  <fix>3d</fix>
</trkpt>
<trkpt lat="40.072842" lon="-105.230575">
  <ele>1586.09</ele>
  <time>2026-08-28T19:12:58Z</time>
  <course>0.0</course>
  <speed>0.0</speed>
  <fix>3d</fix>
</trkpt>
<trkpt lat="40.072842" lon="-105.230575">
  <ele>1586.09</ele>
  <time>2026-08-28T19:12:58Z</time>
  <course>10.52</course>
  <speed>0.0</speed>
  <fix>3d</fix>
</trkpt>
<trkpt lat="40.072842" lon="-105.230575">
  <ele>1586.09</ele>
  <time>2026-08-28T19:12:58Z</time>
  <course>0.0</course>
  <speed>0.0</speed>
  <fix>3d</fix>
</trkpt>
<trkpt lat="40.072842" lon="-105.230575">
  <ele>1586.09</ele>
  <time>2026-08-28T19:12:58Z</time>
  <course>10.67</course>
  <speed>0.0</speed>
  <fix>3d</fix>
</trkpt>
<trkpt lat="40.072842" lon="-105.230575">
  <ele>1586.09</ele>
  <time>2026-08-28T19:12:58Z</time>
  <course>0.0</course>
  <speed>0.0</speed>
  <fix>3d</fix>
</trkpt>
<trkpt lat="40.072842" lon="-105.230575">
  <ele>1586.09</ele>
  <time>2026-08-28T19:12:58Z</time>
  <course>10.82</course>
  <speed>0.0</speed>
  <fix>3d</fix>
</trkpt>
<trkpt lat="40.072842" lon="-105.230575">
  <ele>1586.09</ele>
  <time>2026-08-28T19:12:58Z</time>
  <course>0.0</course>
  <speed>0.0</speed>
  <fix>3d</fix>
</trkpt>
<trkpt lat="40.072842" lon="-105.230575">
  <ele>1586.09</ele>
  <time>2026-08-28T19:12:58Z</time>
  <course>10.95</course>
  <speed>0.0</speed>
  <fix>3d</fix>
</trkpt>
<trkpt lat="40.072842" lon="-105.230575">
  <ele>1586.09</ele>
  <time>2026-08-28T19:12:58Z</time>
  <course>0.0</course>
  <speed>0.0</speed>
  <fix>3d</fix>
</trkpt>
<trkpt lat="40.072842" lon="-105.230575">
  <ele>1586.09</ele>
  <time>2026-08-28T19:12:58Z</time>
  <course>11.07</course>
  <speed>0.0</speed>
  <fix>3d</fix>
</trkpt>
<trkpt lat="40.072842" lon="-105.230575">
  <ele>1586.09</ele>
  <time>2026-08-28T19:12:58Z</time>
  <course>0.0</course>
  <speed>0.0</speed>
  <fix>3d</fix>
</trkpt>
<trkpt lat="40.072842" lon="-105.230575">
  <ele>1586.09</ele>
  <time>2026-08-28T19:12:58Z</time>
  <course>11.18</course>
  <speed>0.0</speed>
  <fix>3d</fix>
</trkpt>
<trkpt lat="40.072842" lon="-105.230575">
  <ele>1586.09</ele>
  <time>2026-08-28T19:12:58Z</time>
  <course>0.0</course>
  <speed>0.0</speed>
  <fix>3d</fix>
</trkpt>
<trkpt lat="40.072842" lon="-105.230575">
  <ele>1586.09</ele>
  <time>2026-08-28T19:12:58Z</time>
  <course>11.28</course>
  <speed>0.0</speed>
  <fix>3d</fix>
</trkpt>
<trkpt lat="40.072842" lon="-105.230575">
  <ele>1586.09</ele>
  <time>2026-08-28T19:12:58Z</time>
  <course>0.0</course>
  <speed>0.0</speed>
  <fix>3d</fix>
</trkpt>
<trkpt lat="40.072842" lon="-105.230575">
  <ele>1586.09</ele>
  <time>2026-08-28T19:12:58Z</time>
  <course>11.37</course>
  <speed>0.0</speed>
  <fix>3d</fix>
</trkpt>
<trkpt lat="40.072842" lon="-105.230575">
  <ele>1586.09</ele>
  <time>2026-08-28T19:12:58Z</time>
  <course>0.0</course>
  <speed>0.0</speed>
  <fix>3d</fix>
</trkpt>
<trkpt lat="40.072842" lon="-105.230575">
  <ele>1586.09</ele>
  <time>2026-08-28T19:12:58Z</time>
  <course>11.45</course>
  <speed>0.0</speed>
  <fix>3d</fix>
</trkpt>
<trkpt lat="40.072842" lon="-105.230575">
  <ele>1586.09</ele>
  <time>2026-08-28T19:12:58Z</time>
  <course>0.0</course>
  <speed>0.0</speed>
  <fix>3d</fix>
</trkpt>
<trkpt lat="40.072842" lon="-105.230575">
  <ele>1586.09</ele>
  <time>2026-08-28T19:12:58Z</time>
  <course>11.53</course>
  <speed>0.0</speed>
  <fix>3d</fix>
</trkpt>
<trkpt lat="40.072842" lon="-105.230575">
  <ele>1586.09</ele>
  <time>2026-08-28T19:12:58Z</time>
  <course>0.0</course>
  <speed>0.0</speed>
  <fix>3d</fix>
</trkpt>
<trkpt lat="40.072842" lon="-105.230575">
  <ele>1586.09</ele>
  <time>2026-08-28T19:12:58Z</time>
  <course>11.59</course>
  <speed>0.0</speed>
  <fix>3d</fix>
</trkpt>
<trkpt lat="40.072842" lon="-105.230575">
  <ele>1586.09</ele>
  <time>2026-08-28T19:12:58Z</time>
  <course>0.0</course>
  <speed>0.0</speed>
  <fix>3d</fix>
</trkpt>
<trkpt lat="40.072842" lon="-105.230575">
  <ele>1586.09</ele>
  <time>2026-08-28T19:12:58Z</time>
  <course>11.65</course>
  <speed>0.0</speed>
  <fix>3d</fix>
</trkpt>
<trkpt lat="40.072842" lon="-105.230575">
  <ele>1586.09</ele>
  <time>2026-08-28T19:12:58Z</time>
  <course>0.0</course>
  <speed>0.0</speed>
  <fix>3d</fix>
</trkpt>
<trkpt lat="40.072842" lon="-105.230575">
  <ele>1586.09</ele>
  <time>2026-08-28T19:12:58Z</time>
  <course>11.71</course>
  <speed>0.0</speed>
  <fix>3d</fix>
</trkpt>
<trkpt lat="40.072842" lon="-105.230575">
  <ele>1586.09</ele>
  <time>2026-08-28T19:12:58Z</time>
  <course>0.0</course>
  <speed>0.0</speed>
  <fix>3d</fix>
</trkpt>
<trkpt lat="40.072842" lon="-105.230575">
  <ele>1586.09</ele>
  <time>2026-08-28T19:12:58Z</time>
  <course>11.77</course>
  <speed>0.0</speed>
  <fix>3d</fix>
</trkpt>
<trkpt lat="40.072842" lon="-105.230575">
  <ele>1586.09</ele>
  <time>2026-08-28T19:12:58Z</time>
  <course>0.0</course>
  <speed>0.0</speed>
  <fix>3d</fix>
</trkpt>
<trkpt lat="40.072842" lon="-105.230575">
  <ele>1586.09</ele>
  <time>2026-08-28T19:12:58Z</time>
  <course>11.81</course>
  <speed>0.0</speed>
  <fix>3d</fix>
</trkpt>
<trkpt lat="40.072842" lon="-105.230575">
  <ele>1586.09</ele>
  <time>2026-08-28T19:12:58Z</time>
  <course>0.0</course>
  <speed>0.0</speed>
  <fix>3d</fix>
</trkpt>
<trkpt lat="40.072842" lon="-105.230575">
  <ele>1586.09</ele>
  <time>2026-08-28T19:12:58Z</time>
  <course>11.85</course>
  <speed>0.0</speed>
  <fix>3d</fix>
</trkpt>
<trkpt lat="40.072842" lon="-105.230575">
  <ele>1586.09</ele>
  <time>2026-08-28T19:12:58Z</time>
  <course>0.0</course>
  <speed>0.0</speed>
  <fix>3d</fix>
</trkpt>
<trkpt lat="40.072842" lon="-105.230575">
  <ele>1586.09</ele>
  <time>2026-08-28T19:12:58Z</time>
  <course>11.89</course>
  <speed>0.0</speed>
  <fix>3d</fix>
</trkpt>
<trkpt lat="40.072842" lon="-105.230575">
  <ele>1586.09</ele>
  <time>2026-08-28T19:12:58Z</time>
  <course>0.0</course>
  <speed>0.0</speed>
  <fix>3d</fix>
</trkpt>
<trkpt lat="40.072842" lon="-105.230575">
  <ele>1586.09</ele>
  <time>2026-08-28T19:12:58Z</time>
  <course>11.92</course>
  <speed>0.0</speed>
  <fix>3d</fix>
</trkpt>
<trkpt lat="40.072842" lon="-105.230575">
  <ele>1586.09</ele>
  <time>2026-08-28T19:12:58Z</time>
  <course>0.0</course>
  <speed>0.0</speed>
  <fix>3d</fix>
</trkpt>
<trkpt lat="40.072842" lon="-105.230575">
  <ele>1586.09</ele>
  <time>2026-08-28T19:12:58Z</time>
  <course>11.95</course>
  <speed>0.0</speed>
  <fix>3d</fix>
</trkpt>
<trkpt lat="40.072842" lon="-105.230575">
  <ele>1586.09</ele>
  <time>2026-08-28T19:12:58Z</time>
  <course>0.0</course>
  <speed>0.0</speed>
  <fix>3d</fix>
</trkpt>
<trkpt lat="40.072842" lon="-105.230575">
  <ele>1586.09</ele>
  <time>2026-08-28T19:12:58Z</time>
  <course>11.98</course>
  <speed>0.0</speed>
  <fix>3d</fix>
</trkpt>
<trkpt lat="40.072842" lon="-105.230575">
  <ele>1586.09</ele>
  <time>2026-08-28T19:12:58Z</time>
  <course>0.0</course>
  <speed>0.0</speed>
  <fix>3d</fix>
</trkpt>
<trkpt lat="40.072842" lon="-105.230575">
  <ele>1586.09</ele>
  <time>2026-08-28T19:12:58Z</time>
  <course>12.0</course>
  <speed>0.0</speed>
  <fix>3d</fix>
</trkpt>
<trkpt lat="40.072842" lon="-105.230575">
  <ele>1586.09</ele>
  <time>2026-08-28T19:12:58Z</time>
  <course>0.0</course>
  <speed>0.0</speed>
  <fix>3d</fix>
</trkpt>
<trkpt lat="40.072842" lon="-105.230575">
  <ele>1586.09</ele>
  <time>2026-08-28T19:12:58Z</time>
  <course>12.02</course>
  <speed>0.0</speed>
  <fix>3d</fix>
</trkpt>
<trkpt lat="40.072842" lon="-105.230575">
  <ele>1586.09</ele>
  <time>2026-08-28T19:12:58Z</time>
  <course>0.0</course>
  <speed>0.0</speed>
  <fix>3d</fix>
</trkpt>
<trkpt lat="40.072842" lon="-105.230575">
  <ele>1586.09</ele>
  <time>2026-08-28T19:12:58Z</time>
  <course>12.04</course>
  <speed>0.0</speed>
  <fix>3d</fix>
</trkpt>
<trkpt lat="40.072842" lon="-105.230575">
  <ele>1586.09</ele>
  <time>2026-08-28T19:12:58Z</time>
  <course>0.0</course>
  <speed>0.0</speed>
  <fix>3d</fix>
</trkpt>
<trkpt lat="40.072842" lon="-105.230575">
  <ele>1586.09</ele>
  <time>2026-08-28T19:12:58Z</time>
  <course>12.05</course>
  <speed>0.0</speed>
  <fix>3d</fix>
</trkpt>
<trkpt lat="40.072842" lon="-105.230575">
  <ele>1586.09</ele>
  <time>2026-08-28T19:12:58Z</time>
  <course>0.0</course>
  <speed>0.0</speed>
  <fix>3d</fix>
</trkpt>
<trkpt lat="40.072842" lon="-105.230575">
  <ele>1586.09</ele>
  <time>2026-08-28T19:12:58Z</time>
  <course>12.07</course>
  <speed>0.0</speed>
  <fix>3d</fix>
</trkpt>
<trkpt lat="40.072842" lon="-105.230575">
  <ele>1586.09</ele>
  <time>2026-08-28T19:12:58Z</time>
  <course>0.0</course>
  <speed>0.0</speed>
  <fix>3d</fix>
</trkpt>
<trkpt lat="40.072842" lon="-105.230575">
  <ele>1586.09</ele>
  <time>2026-08-28T19:12:58Z</time>
  <course>12.08</course>
  <speed>0.0</speed>
  <fix>3d</fix>
</trkpt>
<trkpt lat="40.072842" lon="-105.230575">
  <ele>1586.09</ele>
  <time>2026-08-28T19:12:58Z</time>
  <course>0.0</course>
  <speed>0.0</speed>
  <fix>3d</fix>
</trkpt>
<trkpt lat="40.072842" lon="-105.230575">
  <ele>1586.09</ele>
  <time>2026-08-28T19:12:58Z</time>
  <course>12.09</course>
  <speed>0.0</speed>
  <fix>3d</fix>
</trkpt>
<trkpt lat="40.072842" lon="-105.230575">
  <ele>1586.09</ele>
  <time>2026-08-28T19:12:58Z</time>
  <course>0.0</course>
  <speed>0.0</speed>
  <fix>3d</fix>
</trkpt>
<trkpt lat="40.072842" lon="-105.230575">
  <ele>1586.09</ele>
  <time>2026-08-28T19:12:58Z</time>
  <course>12.1</course>
  <speed>0.0</speed>
  <fix>3d</fix>
</trkpt>
<trkpt lat="40.072842" lon="-105.230575">
  <ele>1586.09</ele>
  <time>2026-08-28T19:12:58Z</time>
  <course>0.0</course>
  <speed>0.0</speed>
  <fix>3d</fix>
</trkpt>
<trkpt lat="40.072842" lon="-105.230575">
  <ele>1586.09</ele>
  <time>2026-08-28T19:12:58Z</time>
  <course>12.1</course>
  <speed>0.0</speed>
  <fix>3d</fix>
</trkpt>
<trkpt lat="40.072842" lon="-105.230575">
  <ele>1586.09</ele>
  <time>2026-08-28T19:12:58Z</time>
  <course>0.0</course>
  <speed>0.0</speed>
  <fix>3d</fix>
</trkpt>
<trkpt lat="40.072842" lon="-105.230575">
  <ele>1586.09</ele>
  <time>2026-08-28T19:12:58Z</time>
  <course>12.11</course>
  <speed>0.0</speed>
  <fix>3d</fix>
</trkpt>
<trkpt lat="40.072842" lon="-105.230575">
  <ele>1586.09</ele>
  <time>2026-08-28T19:12:58Z</time>
  <course>0.0</course>
  <speed>0.0</speed>
  <fix>3d</fix>
</trkpt>
<trkpt lat="40.072842" lon="-105.230575">
  <ele>1586.09</ele>
  <time>2026-08-28T19:12:58Z</time>
  <course>12.11</course>
  <speed>0.0</speed>
  <fix>3d</fix>
</trkpt>
<trkpt lat="40.072842" lon="-105.230575">
  <ele>1586.09</ele>
  <time>2026-08-28T19:12:58Z</time>
  <course>0.0</course>
  <speed>0.0</speed>
  <fix>3d</fix>
</trkpt>
<trkpt lat="40.072842" lon="-105.230575">
  <ele>1586.09</ele>
  <time>2026-08-28T19:12:58Z</time>
  <course>12.12</course>
  <speed>0.0</speed>
  <fix>3d</fix>
</trkpt>
<trkpt lat="40.072842" lon="-105.230575">
  <ele>1586.09</ele>
  <time>2026-08-28T19:12:58Z</time>
  <course>0.0</course>
  <speed>0.0</speed>
  <fix>3d</fix>
</trkpt>
<trkpt lat="40.072842" lon="-105.230575">
  <ele>1586.09</ele>
  <time>2026-08-28T19:12:58Z</time>
  <course>12.12</course>
  <speed>0.0</speed>
  <fix>3d</fix>
</trkpt>
<trkpt lat="40.072842" lon="-105.230575">
  <ele>1586.09</ele>
  <time>2026-08-28T19:12:58Z</time>
  <course>0.0</course>
  <speed>0.0</speed>
  <fix>3d</fix>
</trkpt>
<trkpt lat="40.072842" lon="-105.230575">
  <ele>1586.09</ele>
  <time>2026-08-28T19:12:58Z</time>
  <course>12.12</course>
  <speed>0.0</speed>
  <fix>3d</fix>
</trkpt>
<trkpt lat="40.072842" lon="-105.230575">
  <ele>1586.09</ele>
  <time>2026-08-28T19:12:58Z</time>
  <course>0.0</course>
  <speed>0.0</speed>
  <fix>3d</fix>
</trkpt>
<trkpt lat="40.072842" lon="-105.230575">
  <ele>1586.09</ele>
  <time>2026-08-28T19:12:58Z</time>
  <course>12.12</course>
  <speed>0.0</speed>
  <fix>3d</fix>
</trkpt>
<trkpt lat="40.072842" lon="-105.230575">
  <ele>1586.09</ele>
  <time>2026-08-28T19:12:58Z</time>
  <course>0.0</course>
  <speed>0.0</speed>
  <fix>3d</fix>
</trkpt>
<trkpt lat="40.072842" lon="-105.230575">
  <ele>1586.09</ele>
  <time>2026-08-28T19:12:58Z</time>
  <course>12.12</course>
  <speed>0.0</speed>
  <fix>3d</fix>
</trkpt>
<trkpt lat="40.072842" lon="-105.230575">
  <ele>1586.09</ele>
  <time>2026-08-28T19:12:58Z</time>
  <course>0.0</course>
  <speed>0.0</speed>
  <fix>3d</fix>
</trkpt>
<trkpt lat="40.072842" lon="-105.230575">
  <ele>1586.09</ele>
  <time>2026-08-28T19:12:58Z</time>
  <course>12.12</course>
  <speed>0.01</speed>
  <fix>3d</fix>
</trkpt>
<trkpt lat="40.072842" lon="-105.230575">
  <ele>1586.09</ele>
  <time>2026-08-28T19:12:58Z</time>
  <course>0.0</course>
  <speed>0.0</speed>
  <fix>3d</fix>
</trkpt>
<trkpt lat="40.072842" lon="-105.230575">
  <ele>1586.09</ele>
  <time>2026-08-28T19:12:58Z</time>
  <course>12.12</course>
  <speed>0.01</speed>
  <fix>3d</fix>
</trkpt>
<trkpt lat="40.072842" lon="-105.230575">
  <ele>1586.09</ele>
  <time>2026-08-28T19:12:58Z</time>
  <course>0.0</course>
  <speed>0.0</speed>
  <fix>3d</fix>
</trkpt>
<trkpt lat="40.072842" lon="-105.230575">
  <ele>1586.09</ele>
  <time>2026-08-28T19:12:58Z</time>
  <course>12.12</course>
  <speed>0.01</speed>
  <fix>3d</fix>
</trkpt>
<trkpt lat="40.072842" lon="-105.230575">
  <ele>1586.09</ele>
  <time>2026-08-28T19:12:58Z</time>
  <course>0.0</course>
  <speed>0.0</speed>
  <fix>3d</fix>
</trkpt>
<trkpt lat="40.072842" lon="-105.230575">
  <ele>1586.09</ele>
  <time>2026-08-28T19:12:58Z</time>
  <course>12.11</course>
  <speed>0.01</speed>
  <fix>3d</fix>
</trkpt>
<trkpt lat="40.072842" lon="-105.230575">
  <ele>1586.09</ele>
  <time>2026-08-28T19:12:58Z</time>
  <course>0.0</course>
  <speed>0.0</speed>
  <fix>3d</fix>
</trkpt>
<trkpt lat="40.072842" lon="-105.230575">
  <ele>1586.09</ele>
  <time>2026-08-28T19:12:58Z</time>
  <course>12.11</course>
  <speed>0.01</speed>
  <fix>3d</fix>
</trkpt>
<trkpt lat="40.072842" lon="-105.230575">
  <ele>1586.09</ele>
  <time>2026-08-28T19:12:58Z</time>
  <course>0.0</course>
  <speed>0.0</speed>
  <fix>3d</fix>
</trkpt>
<trkpt lat="40.072842" lon="-105.230575">
  <ele>1586.09</ele>
  <time>2026-08-28T19:12:58Z</time>
  <course>12.11</course>
  <speed>0.01</speed>
  <fix>3d</fix>
</trkpt>
<trkpt lat="40.072842" lon="-105.230575">
  <ele>1586.09</ele>
  <time>2026-08-28T19:12:58Z</time>
  <course>0.0</course>
  <speed>0.0</speed>
  <fix>3d</fix>
</trkpt>
<trkpt lat="40.072842" lon="-105.230575">
  <ele>1586.09</ele>
  <time>2026-08-28T19:12:58Z</time>
  <course>12.1</course>
  <speed>0.01</speed>
  <fix>3d</fix>
</trkpt>
<trkpt lat="40.072842" lon="-105.230575">
  <ele>1586.09</ele>
  <time>2026-08-28T19:12:58Z</time>
  <course>0.0</course>
  <speed>0.0</speed>
  <fix>3d</fix>
</trkpt>
<trkpt lat="40.072842" lon="-105.230575">
  <ele>1586.09</ele>
  <time>2026-08-28T19:12:58Z</time>
  <course>12.1</course>
  <speed>0.01</speed>
  <fix>3d</fix>
</trkpt>
<trkpt lat="40.072842" lon="-105.230575">
  <ele>1586.09</ele>
  <time>2026-08-28T19:12:58Z</time>
  <course>0.0</course>
  <speed>0.0</speed>
  <fix>3d</fix>
</trkpt>
<trkpt lat="40.072842" lon="-105.230575">
  <ele>1586.09</ele>
  <time>2026-08-28T19:12:58Z</time>
  <course>12.09</course>
  <speed>0.01</speed>
  <fix>3d</fix>
</trkpt>
<trkpt lat="40.072842" lon="-105.230575">
  <ele>1586.09</ele>
  <time>2026-08-28T19:12:58Z</time>
  <course>0.0</course>
  <speed>0.0</speed>
  <fix>3d</fix>
</trkpt>
<trkpt lat="40.072842" lon="-105.230575">
  <ele>1586.09</ele>
  <time>2026-08-28T19:12:58Z</time>
  <course>12.09</course>
  <speed>0.01</speed>
  <fix>3d</fix>
</trkpt>
<trkpt lat="40.072842" lon="-105.230575">
  <ele>1586.09</ele>
  <time>2026-08-28T19:12:58Z</time>
  <course>0.0</course>
  <speed>0.0</speed>
  <fix>3d</fix>
</trkpt>
<trkpt lat="40.072842" lon="-105.230575">
  <ele>1586.09</ele>
  <time>2026-08-28T19:12:58Z</time>
  <course>12.08</course>
  <speed>0.01414213562373095</speed>
  <fix>3d</fix>
</trkpt>
<trkpt lat="40.072842" lon="-105.230575">
  <ele>1586.09</ele>
  <time>2026-08-28T19:12:58Z</time>
  <course>0.0</course>
  <speed>0.0</speed>
  <fix>3d</fix>
</trkpt>
<trkpt lat="40.072842" lon="-105.230575">
  <ele>1586.09</ele>
  <time>2026-08-28T19:12:58Z</time>
  <course>12.07</course>
  <speed>0.01414213562373095</speed>
  <fix>3d</fix>
</trkpt>
<trkpt lat="40.072842" lon="-105.230575">
  <ele>1586.09</ele>
  <time>2026-08-28T19:12:58Z</time>
  <course>0.0</course>
  <speed>0.0</speed>
  <fix>3d</fix>
</trkpt>
<trkpt lat="40.072842" lon="-105.230575">
  <ele>1586.09</ele>
  <time>2026-08-28T19:12:58Z</time>
  <course>12.07</course>
  <speed>0.01414213562373095</speed>
  <fix>3d</fix>
</trkpt>
<trkpt lat="40.072842" lon="-105.230575">
  <ele>1586.09</ele>
  <time>2026-08-28T19:12:58Z</time>
  <course>0.0</course>
  <speed>0.0</speed>
  <fix>3d</fix>
</trkpt>
<trkpt lat="40.072842" lon="-105.230575">
  <ele>1586.09</ele>
  <time>2026-08-28T19:12:58Z</time>
  <course>12.06</course>
  <speed>0.01414213562373095</speed>
  <fix>3d</fix>
</trkpt>
<trkpt lat="40.072842" lon="-105.230575">
  <ele>1586.09</ele>
  <time>2026-08-28T19:12:58Z</time>
  <course>0.0</course>
  <speed>0.0</speed>
  <fix>3d</fix>
</trkpt>
<trkpt lat="40.072842" lon="-105.230575">
  <ele>1586.09</ele>
  <time>2026-08-28T19:12:58Z</time>
  <course>12.05</course>
  <speed>0.01414213562373095</speed>
  <fix>3d</fix>
</trkpt>
<trkpt lat="40.072842" lon="-105.230575">
  <ele>1586.09</ele>
  <time>2026-08-28T19:12:58Z</time>
  <course>0.0</course>
  <speed>0.0</speed>
  <fix>3d</fix>
</trkpt>
<trkpt lat="40.072842" lon="-105.230575">
  <ele>1586.09</ele>
  <time>2026-08-28T19:12:58Z</time>
  <course>12.05</course>
  <speed>0.01414213562373095</speed>
  <fix>3d</fix>
</trkpt>
<trkpt lat="40.072842" lon="-105.230575">
  <ele>1586.09</ele>
  <time>2026-08-28T19:12:58Z</time>
  <course>0.0</course>
  <speed>0.0</speed>
  <fix>3d</fix>
</trkpt>
<trkpt lat="40.072842" lon="-105.230575">
  <ele>1586.09</ele>
  <time>2026-08-28T19:12:58Z</time>
  <course>12.04</course>
  <speed>0.01414213562373095</speed>
  <fix>3d</fix>
</trkpt>
<trkpt lat="40.072842" lon="-105.230575">
  <ele>1586.09</ele>
  <time>2026-08-28T19:12:58Z</time>
  <course>0.0</course>
  <speed>0.0</speed>
  <fix>3d</fix>
</trkpt>
<trkpt lat="40.072842" lon="-105.230575">
  <ele>1586.09</ele>
  <time>2026-08-28T19:12:58Z</time>
  <course>12.03</course>
  <speed>0.01414213562373095</speed>
  <fix>3d</fix>
</trkpt>
<trkpt lat="40.072842" lon="-105.230575">
  <ele>1586.09</ele>
  <time>2026-08-28T19:12:58Z</time>
  <course>0.0</course>
  <speed>0.0</speed>
  <fix>3d</fix>
</trkpt>
<trkpt lat="40.072842" lon="-105.230575">
  <ele>1586.09</ele>
  <time>2026-08-28T19:12:58Z</time>
  <course>12.02</course>
  <speed>0.01414213562373095</speed>
  <fix>3d</fix>
</trkpt>
<trkpt lat="40.072842" lon="-105.230575">
  <ele>1586.09</ele>
  <time>2026-08-28T19:12:58Z</time>
  <course>0.0</course>
  <speed>0.0</speed>
  <fix>3d</fix>
</trkpt>
<trkpt lat="40.072842" lon="-105.230575">
  <ele>1586.09</ele>
  <time>2026-08-28T19:12:58Z</time>
  <course>12.02</course>
  <speed>0.01414213562373095</speed>
  <fix>3d</fix>
</trkpt>
<trkpt lat="40.072842" lon="-105.230575">
  <ele>1586.09</ele>
  <time>2026-08-28T19:12:58Z</time>
  <course>0.0</course>
  <speed>0.0</speed>
  <fix>3d</fix>
</trkpt>
<trkpt lat="40.072842" lon="-105.230575">
  <ele>1586.09</ele>
  <time>2026-08-28T19:12:58Z</time>
  <course>12.01</course>
  <speed>0.01414213562373095</speed>
  <fix>3d</fix>
</trkpt>
<trkpt lat="40.072842" lon="-105.230575">
  <ele>1586.09</ele>
  <time>2026-08-28T19:12:58Z</time>
  <course>0.0</course>
  <speed>0.0</speed>
  <fix>3d</fix>
</trkpt>
<trkpt lat="40.072842" lon="-105.230575">
  <ele>1586.09</ele>
  <time>2026-08-28T19:12:58Z</time>
  <course>12.0</course>
  <speed>0.01414213562373095</speed>
  <fix>3d</fix>
</trkpt>
<trkpt lat="40.072842" lon="-105.230575">
  <ele>1586.09</ele>
  <time>2026-08-28T19:12:58Z</time>
  <course>0.0</course>
  <speed>0.0</speed>
  <fix>3d</fix>
</trkpt>
<trkpt lat="40.072842" lon="-105.230575">
  <ele>1586.09</ele>
  <time>2026-08-28T19:12:58Z</time>
  <course>11.99</course>
  <speed>0.01414213562373095</speed>
  <fix>3d</fix>
</trkpt>
<trkpt lat="40.072842" lon="-105.230575">
  <ele>1586.09</ele>
  <time>2026-08-28T19:12:58Z</time>
  <course>0.0</course>
  <speed>0.0</speed>
  <fix>3d</fix>
</trkpt>
<trkpt lat="40.072842" lon="-105.230575">
  <ele>1586.09</ele>
  <time>2026-08-28T19:12:58Z</time>
  <course>11.99</course>
  <speed>0.01414213562373095</speed>
  <fix>3d</fix>
</trkpt>
<trkpt lat="40.072842" lon="-105.230575">
  <ele>1586.09</ele>
  <time>2026-08-28T19:12:58Z</time>
  <course>0.0</course>
  <speed>0.0</speed>
  <fix>3d</fix>
</trkpt>
<trkpt lat="40.072842" lon="-105.230575">
  <ele>1586.09</ele>
  <time>2026-08-28T19:12:58Z</time>
  <course>11.98</course>
  <speed>0.01414213562373095</speed>
  <fix>3d</fix>
</trkpt>
<trkpt lat="40.072842" lon="-105.230575">
  <ele>1586.09</ele>
  <time>2026-08-28T19:12:58Z</time>
  <course>0.0</course>
  <speed>0.0</speed>
  <fix>3d</fix>
</trkpt>
<trkpt lat="40.072842" lon="-105.230575">
  <ele>1586.09</ele>
  <time>2026-08-28T19:12:58Z</time>
  <course>11.97</course>
  <speed>0.01414213562373095</speed>
  <fix>3d</fix>
</trkpt>
<trkpt lat="40.072842" lon="-105.230575">
  <ele>1586.09</ele>
  <time>2026-08-28T19:12:58Z</time>
  <course>0.0</course>
  <speed>0.0</speed>
  <fix>3d</fix>
</trkpt>
<trkpt lat="40.072842" lon="-105.230575">
  <ele>1586.09</ele>
  <time>2026-08-28T19:12:58Z</time>
  <course>11.96</course>
  <speed>0.01414213562373095</speed>
  <fix>3d</fix>
</trkpt>
<trkpt lat="40.072842" lon="-105.230575">
  <ele>1586.09</ele>
  <time>2026-08-28T19:12:58Z</time>
  <course>0.0</course>
  <speed>0.0</speed>
  <fix>3d</fix>
</trkpt>
<trkpt lat="40.072842" lon="-105.230575">
  <ele>1586.09</ele>
  <time>2026-08-28T19:12:58Z</time>
  <course>11.95</course>
  <speed>0.022360679774997897</speed>
  <fix>3d</fix>
</trkpt>
<trkpt lat="40.072842" lon="-105.230575">
  <ele>1586.09</ele>
  <time>2026-08-28T19:12:58Z</time>
  <course>0.0</course>
  <speed>0.0</speed>
  <fix>3d</fix>
</trkpt>
<trkpt lat="40.072842" lon="-105.230575">
  <ele>1586.09</ele>
  <time>2026-08-28T19:12:58Z</time>
  <course>11.95</course>
  <speed>0.022360679774997897</speed>
  <fix>3d</fix>
</trkpt>
<trkpt lat="40.072842" lon="-105.230575">
  <ele>1586.09</ele>
  <time>2026-08-28T19:12:58Z</time>
  <course>0.0</course>
  <speed>0.0</speed>
  <fix>3d</fix>
</trkpt>
<trkpt lat="40.072842" lon="-105.230575">
  <ele>1586.09</ele>
  <time>2026-08-28T19:12:58Z</time>
  <course>11.94</course>
  <speed>0.022360679774997897</speed>
  <fix>3d</fix>
</trkpt>
<trkpt lat="40.072842" lon="-105.230575">
  <ele>1586.09</ele>
  <time>2026-08-28T19:12:58Z</time>
  <course>0.0</course>
  <speed>0.0</speed>
  <fix>3d</fix>
</trkpt>
<trkpt lat="40.072842" lon="-105.230575">
  <ele>1586.09</ele>
  <time>2026-08-28T19:12:58Z</time>
  <course>11.93</course>
  <speed>0.022360679774997897</speed>
  <fix>3d</fix>
</trkpt>
<trkpt lat="40.072842" lon="-105.230575">
  <ele>1586.09</ele>
  <time>2026-08-28T19:12:58Z</time>
  <course>0.0</course>
  <speed>0.0</speed>
  <fix>3d</fix>
</trkpt>
<trkpt lat="40.072842" lon="-105.230575">
  <ele>1586.09</ele>
  <time>2026-08-28T19:12:58Z</time>
  <course>11.92</course>
  <speed>0.022360679774997897</speed>
  <fix>3d</fix>
</trkpt>
<trkpt lat="40.072842" lon="-105.230575">
  <ele>1586.09</ele>
  <time>2026-08-28T19:12:58Z</time>
  <course>0.0</course>
  <speed>0.0</speed>
  <fix>3d</fix>
</trkpt>
<trkpt lat="40.072842" lon="-105.230575">
  <ele>1586.09</ele>
  <time>2026-08-28T19:12:58Z</time>
  <course>11.91</course>
  <speed>0.022360679774997897</speed>
  <fix>3d</fix>
</trkpt>
<trkpt lat="40.072842" lon="-105.230575">
  <ele>1586.09</ele>
  <time>2026-08-28T19:12:58Z</time>
  <course>0.0</course>
  <speed>0.0</speed>
  <fix>3d</fix>
</trkpt>
<trkpt lat="40.072842" lon="-105.230575">
  <ele>1586.09</ele>
  <time>2026-08-28T19:12:58Z</time>
  <course>11.91</course>
  <speed>0.022360679774997897</speed>
  <fix>3d</fix>
</trkpt>
<trkpt lat="40.072842" lon="-105.230575">
  <ele>1586.09</ele>
  <time>2026-08-28T19:12:58Z</time>
  <course>0.0</course>
  <speed>0.0</speed>
  <fix>3d</fix>
</trkpt>
<trkpt lat="40.072842" lon="-105.230575">
  <ele>1586.09</ele>
  <time>2026-08-28T19:12:58Z</time>
  <course>11.9</course>
  <speed>0.022360679774997897</speed>
  <fix>3d</fix>
</trkpt>
<trkpt lat="40.072842" lon="-105.230575">
  <ele>1586.09</ele>
  <time>2026-08-28T19:12:58Z</time>
  <course>0.0</course>
  <speed>0.0</speed>
  <fix>3d</fix>
</trkpt>
<trkpt lat="40.072842" lon="-105.230575">
  <ele>1586.09</ele>
  <time>2026-08-28T19:12:58Z</time>
  <course>11.89</course>
  <speed>0.022360679774997897</speed>
  <fix>3d</fix>
</trkpt>
<trkpt lat="40.072842" lon="-105.230575">
  <ele>1586.09</ele>
  <time>2026-08-28T19:12:58Z</time>
  <course>0.0</course>
  <speed>0.0</speed>
  <fix>3d</fix>
</trkpt>
<trkpt lat="40.072842" lon="-105.230575">
  <ele>1586.09</ele>
  <time>2026-08-28T19:12:58Z</time>
  <course>11.88</course>
  <speed>0.022360679774997897</speed>
  <fix>3d</fix>
</trkpt>
<trkpt lat="40.072842" lon="-105.230575">
  <ele>1586.09</ele>
  <time>2026-08-28T19:12:58Z</time>
  <course>0.0</course>
  <speed>0.0</speed>
  <fix>3d</fix>
</trkpt>
<trkpt lat="40.072842" lon="-105.230575">
  <ele>1586.09</ele>
  <time>2026-08-28T19:12:58Z</time>
  <course>11.87</course>
  <speed>0.022360679774997897</speed>
  <fix>3d</fix>
</trkpt>
<trkpt lat="40.072842" lon="-105.230575">
  <ele>1586.09</ele>
  <time>2026-08-28T19:12:58Z</time>
  <course>0.0</course>
  <speed>0.0</speed>
  <fix>3d</fix>
</trkpt>
<trkpt lat="40.072842" lon="-105.230575">
  <ele>1586.09</ele>
  <time>2026-08-28T19:12:58Z</time>
  <course>11.86</course>
  <speed>0.022360679774997897</speed>
  <fix>3d</fix>
</trkpt>
<trkpt lat="40.072842" lon="-105.230575">
  <ele>1586.09</ele>
  <time>2026-08-28T19:12:58Z</time>
  <course>0.0</course>
  <speed>0.0</speed>
  <fix>3d</fix>
</trkpt>
<trkpt lat="40.072842" lon="-105.230575">
  <ele>1586.09</ele>
  <time>2026-08-28T19:12:58Z</time>
  <course>11.86</course>
  <speed>0.022360679774997897</speed>
  <fix>3d</fix>
</trkpt>
<trkpt lat="40.072842" lon="-105.230575">
  <ele>1586.09</ele>
  <time>2026-08-28T19:12:58Z</time>
  <course>0.0</course>
  <speed>0.0</speed>
  <fix>3d</fix>
</trkpt>
<trkpt lat="40.072842" lon="-105.230575">
  <ele>1586.09</ele>
  <time>2026-08-28T19:12:58Z</time>
  <course>11.85</course>
  <speed>0.022360679774997897</speed>
  <fix>3d</fix>
</trkpt>
<trkpt lat="40.072842" lon="-105.230575">
  <ele>1586.09</ele>
  <time>2026-08-28T19:12:58Z</time>
  <course>0.0</course>
  <speed>0.0</speed>
  <fix>3d</fix>
</trkpt>
<trkpt lat="40.072842" lon="-105.230575">
  <ele>1586.09</ele>
  <time>2026-08-28T19:12:58Z</time>
  <course>11.84</course>
  <speed>0.022360679774997897</speed>
  <fix>3d</fix>
</trkpt>
<trkpt lat="40.072842" lon="-105.230575">
  <ele>1586.09</ele>
  <time>2026-08-28T19:12:58Z</time>
  <course>0.0</course>
  <speed>0.0</speed>
  <fix>3d</fix>
</trkpt>
<trkpt lat="40.072842" lon="-105.230575">
  <ele>1586.09</ele>
  <time>2026-08-28T19:12:58Z</time>
  <course>11.83</course>
  <speed>0.022360679774997897</speed>
  <fix>3d</fix>
</trkpt>
<trkpt lat="40.072842" lon="-105.230575">
  <ele>1586.09</ele>
  <time>2026-08-28T19:12:58Z</time>
  <course>0.0</course>
  <speed>0.0</speed>
  <fix>3d</fix>
</trkpt>
<trkpt lat="40.072842" lon="-105.230575">
  <ele>1586.09</ele>
  <time>2026-08-28T19:12:58Z</time>
  <course>11.82</course>
  <speed>0.022360679774997897</speed>
  <fix>3d</fix>
</trkpt>
<trkpt lat="40.072842" lon="-105.230575">
  <ele>1586.09</ele>
  <time>2026-08-28T19:12:58Z</time>
  <course>0.0</course>
  <speed>0.0</speed>
  <fix>3d</fix>
</trkpt>
<trkpt lat="40.072842" lon="-105.230575">
  <ele>1586.09</ele>
  <time>2026-08-28T19:12:58Z</time>
  <course>11.82</course>
  <speed>0.0282842712474619</speed>
  <fix>3d</fix>
</trkpt>
<trkpt lat="40.072842" lon="-105.230575">
  <ele>1586.09</ele>
  <time>2026-08-28T19:12:58Z</time>
  <course>0.0</course>
  <speed>0.0</speed>
  <fix>3d</fix>
</trkpt>
<trkpt lat="40.072842" lon="-105.230575">
  <ele>1586.09</ele>
  <time>2026-08-28T19:12:58Z</time>
  <course>11.81</course>
  <speed>0.0282842712474619</speed>
  <fix>3d</fix>
</trkpt>
<trkpt lat="40.072842" lon="-105.230575">
  <ele>1586.09</ele>
  <time>2026-08-28T19:12:58Z</time>
  <course>0.0</course>
  <speed>0.0</speed>
  <fix>3d</fix>
</trkpt>
<trkpt lat="40.072842" lon="-105.230575">
  <ele>1586.09</ele>
  <time>2026-08-28T19:12:58Z</time>
  <course>11.8</course>
  <speed>0.0282842712474619</speed>
  <fix>3d</fix>
</trkpt>
<trkpt lat="40.072842" lon="-105.230575">
  <ele>1586.09</ele>
  <time>2026-08-28T19:12:58Z</time>
  <course>0.0</course>
  <speed>0.0</speed>
  <fix>3d</fix>
</trkpt>
<trkpt lat="40.072842" lon="-105.230575">
  <ele>1586.09</ele>
  <time>2026-08-28T19:12:58Z</time>
  <course>11.79</course>
  <speed>0.0282842712474619</speed>
  <fix>3d</fix>
</trkpt>
<trkpt lat="40.072842" lon="-105.230575">
  <ele>1586.09</ele>
  <time>2026-08-28T19:12:58Z</time>
  <course>0.0</course>
  <speed>0.0</speed>
  <fix>3d</fix>
</trkpt>
<trkpt lat="40.072842" lon="-105.230575">
  <ele>1586.09</ele>
  <time>2026-08-28T19:12:58Z</time>
  <course>11.78</course>
  <speed>0.0282842712474619</speed>
  <fix>3d</fix>
</trkpt>
<trkpt lat="40.072842" lon="-105.230575">
  <ele>1586.09</ele>
  <time>2026-08-28T19:12:58Z</time>
  <course>0.0</course>
  <speed>0.0</speed>
  <fix>3d</fix>
</trkpt>
<trkpt lat="40.072842" lon="-105.230575">
  <ele>1586.09</ele>
  <time>2026-08-28T19:12:58Z</time>
  <course>11.78</course>
  <speed>0.0282842712474619</speed>
  <fix>3d</fix>
</trkpt>
<trkpt lat="40.072842" lon="-105.230575">
  <ele>1586.09</ele>
  <time>2026-08-28T19:12:58Z</time>
  <course>0.0</course>
  <speed>0.0</speed>
  <fix>3d</fix>
</trkpt>
<trkpt lat="40.072842" lon="-105.230575">
  <ele>1586.09</ele>
  <time>2026-08-28T19:12:58Z</time>
  <course>11.77</course>
  <speed>0.0282842712474619</speed>
  <fix>3d</fix>
</trkpt>
<trkpt lat="40.072842" lon="-105.230575">
  <ele>1586.09</ele>
  <time>2026-08-28T19:12:58Z</time>
  <course>0.0</course>
  <speed>0.0</speed>
  <fix>3d</fix>
</trkpt>
<trkpt lat="40.072842" lon="-105.230575">
  <ele>1586.09</ele>
  <time>2026-08-28T19:12:58Z</time>
  <course>11.76</course>
  <speed>0.0282842712474619</speed>
  <fix>3d</fix>
</trkpt>
<trkpt lat="40.072842" lon="-105.230575">
  <ele>1586.09</ele>
  <time>2026-08-28T19:12:58Z</time>
  <course>0.0</course>
  <speed>0.0</speed>
  <fix>3d</fix>
</trkpt>
<trkpt lat="40.072842" lon="-105.230575">
  <ele>1586.09</ele>
  <time>2026-08-28T19:12:58Z</time>
  <course>11.76</course>
  <speed>0.0282842712474619</speed>
  <fix>3d</fix>
</trkpt>
<trkpt lat="40.072842" lon="-105.230575">
  <ele>1586.09</ele>
  <time>2026-08-28T19:12:58Z</time>
  <course>0.0</course>
  <speed>0.0</speed>
  <fix>3d</fix>
</trkpt>
<trkpt lat="40.072842" lon="-105.230575">
  <ele>1586.09</ele>
  <time>2026-08-28T19:12:58Z</time>
  <course>11.75</course>
  <speed>0.0282842712474619</speed>
  <fix>3d</fix>
</trkpt>
<trkpt lat="40.072842" lon="-105.230575">
  <ele>1586.09</ele>
  <time>2026-08-28T19:12:58Z</time>
  <course>0.0</course>
  <speed>0.0</speed>
  <fix>3d</fix>
</trkpt>
<trkpt lat="40.072842" lon="-105.230575">
  <ele>1586.09</ele>
  <time>2026-08-28T19:12:58Z</time>
  <course>11.74</course>
  <speed>0.03605551275463989</speed>
  <fix>3d</fix>
</trkpt>
<trkpt lat="40.072842" lon="-105.230575">
  <ele>1586.09</ele>
  <time>2026-08-28T19:12:58Z</time>
  <course>0.0</course>
  <speed>0.0</speed>
  <fix>3d</fix>
</trkpt>
<trkpt lat="40.072842" lon="-105.230575">
  <ele>1586.09</ele>
  <time>2026-08-28T19:12:58Z</time>
  <course>11.73</course>
  <speed>0.03605551275463989</speed>
  <fix>3d</fix>
</trkpt>
<trkpt lat="40.072842" lon="-105.230575">
  <ele>1586.09</ele>
  <time>2026-08-28T19:12:58Z</time>
  <course>0.0</course>
  <speed>0.0</speed>
  <fix>3d</fix>
</trkpt>
<trkpt lat="40.072842" lon="-105.230575">
  <ele>1586.09</ele>
  <time>2026-08-28T19:12:58Z</time>
  <course>11.73</course>
  <speed>0.03605551275463989</speed>
  <fix>3d</fix>
</trkpt>
<trkpt lat="40.072842" lon="-105.230575">
  <ele>1586.09</ele>
  <time>2026-08-28T19:12:58Z</time>
  <course>0.0</course>
  <speed>0.0</speed>
  <fix>3d</fix>
</trkpt>
<trkpt lat="40.072842" lon="-105.230575">
  <ele>1586.09</ele>
  <time>2026-08-28T19:12:58Z</time>
  <course>11.72</course>
  <speed>0.03605551275463989</speed>
  <fix>3d</fix>
</trkpt>
<trkpt lat="40.072842" lon="-105.230575">
  <ele>1586.09</ele>
  <time>2026-08-28T19:12:58Z</time>
  <course>0.0</course>
  <speed>0.0</speed>
  <fix>3d</fix>
</trkpt>
<trkpt lat="40.072842" lon="-105.230575">
  <ele>1586.09</ele>
  <time>2026-08-28T19:12:58Z</time>
  <course>11.71</course>
  <speed>0.03605551275463989</speed>
  <fix>3d</fix>
</trkpt>
<trkpt lat="40.072842" lon="-105.230575">
  <ele>1586.09</ele>
  <time>2026-08-28T19:12:58Z</time>
  <course>0.0</course>
  <speed>0.0</speed>
  <fix>3d</fix>
</trkpt>
<trkpt lat="40.072842" lon="-105.230575">
  <ele>1586.09</ele>
  <time>2026-08-28T19:12:58Z</time>
  <course>11.7</course>
  <speed>0.03605551275463989</speed>
  <fix>3d</fix>
</trkpt>
<trkpt lat="40.072842" lon="-105.230575">
  <ele>1586.09</ele>
  <time>2026-08-28T19:12:58Z</time>
  <course>0.0</course>
  <speed>0.0</speed>
  <fix>3d</fix>
</trkpt>
<trkpt lat="40.072842" lon="-105.230575">
  <ele>1586.09</ele>
  <time>2026-08-28T19:12:58Z</time>
  <course>11.69</course>
  <speed>0.03605551275463989</speed>
  <fix>3d</fix>
</trkpt>
<trkpt lat="40.072842" lon="-105.230575">
  <ele>1586.09</ele>
  <time>2026-08-28T19:12:58Z</time>
  <course>0.0</course>
  <speed>0.0</speed>
  <fix>3d</fix>
</trkpt>
<trkpt lat="40.072842" lon="-105.230575">
  <ele>1586.09</ele>
  <time>2026-08-28T19:12:58Z</time>
  <course>11.69</course>
  <speed>0.03605551275463989</speed>
  <fix>3d</fix>
</trkpt>
<trkpt lat="40.072842" lon="-105.230575">
  <ele>1586.09</ele>
  <time>2026-08-28T19:12:58Z</time>
  <course>0.0</course>
  <speed>0.0</speed>
  <fix>3d</fix>
</trkpt>
<trkpt lat="40.072842" lon="-105.230575">
  <ele>1586.09</ele>
  <time>2026-08-28T19:12:58Z</time>
  <course>11.68</course>
  <speed>0.03605551275463989</speed>
  <fix>3d</fix>
</trkpt>
<trkpt lat="40.072842" lon="-105.230575">
  <ele>1586.09</ele>
  <time>2026-08-28T19:12:58Z</time>
  <course>0.0</course>
  <speed>0.0</speed>
  <fix>3d</fix>
</trkpt>
<trkpt lat="40.072842" lon="-105.230575">
  <ele>1586.09</ele>
  <time>2026-08-28T19:12:58Z</time>
  <course>11.67</course>
  <speed>0.03605551275463989</speed>
  <fix>3d</fix>
</trkpt>
<trkpt lat="40.072842" lon="-105.230575">
  <ele>1586.09</ele>
  <time>2026-08-28T19:12:58Z</time>
  <course>0.0</course>
  <speed>0.0</speed>
  <fix>3d</fix>
</trkpt>
<trkpt lat="40.072842" lon="-105.230575">
  <ele>1586.09</ele>
  <time>2026-08-28T19:12:58Z</time>
  <course>11.67</course>
  <speed>0.03605551275463989</speed>
  <fix>3d</fix>
</trkpt>
<trkpt lat="40.072842" lon="-105.230575">
  <ele>1586.09</ele>
  <time>2026-08-28T19:12:58Z</time>
  <course>0.0</course>
  <speed>0.0</speed>
  <fix>3d</fix>
</trkpt>
<trkpt lat="40.072842" lon="-105.230575">
  <ele>1586.09</ele>
  <time>2026-08-28T19:12:58Z</time>
  <course>11.66</course>
  <speed>0.03605551275463989</speed>
  <fix>3d</fix>
</trkpt>
<trkpt lat="40.072842" lon="-105.230575">
  <ele>1586.09</ele>
  <time>2026-08-28T19:12:58Z</time>
  <course>0.0</course>
  <speed>0.0</speed>
  <fix>3d</fix>
</trkpt>
<trkpt lat="40.072842" lon="-105.230575">
  <ele>1586.09</ele>
  <time>2026-08-28T19:12:58Z</time>
  <course>11.65</course>
  <speed>0.03605551275463989</speed>
  <fix>3d</fix>
</trkpt>
<trkpt lat="40.072842" lon="-105.230575">
  <ele>1586.09</ele>
  <time>2026-08-28T19:12:58Z</time>
  <course>0.0</course>
  <speed>0.0</speed>
  <fix>3d</fix>
</trkpt>
<trkpt lat="40.072842" lon="-105.230575">
  <ele>1586.09</ele>
  <time>2026-08-28T19:12:58Z</time>
  <course>11.65</course>
  <speed>0.03605551275463989</speed>
  <fix>3d</fix>
</trkpt>
<trkpt lat="40.072842" lon="-105.230575">
  <ele>1586.09</ele>
  <time>2026-08-28T19:12:58Z</time>
  <course>0.0</course>
  <speed>0.0</speed>
  <fix>3d</fix>
</trkpt>
<trkpt lat="40.072842" lon="-105.230575">
  <ele>1586.09</ele>
  <time>2026-08-28T19:12:58Z</time>
  <course>11.64</course>
  <speed>0.03605551275463989</speed>
  <fix>3d</fix>
</trkpt>
<trkpt lat="40.072842" lon="-105.230575">
  <ele>1586.09</ele>
  <time>2026-08-28T19:12:58Z</time>
  <course>0.0</course>
  <speed>0.0</speed>
  <fix>3d</fix>
</trkpt>
<trkpt lat="40.072842" lon="-105.230575">
  <ele>1586.09</ele>
  <time>2026-08-28T19:12:58Z</time>
  <course>11.63</course>
  <speed>0.03605551275463989</speed>
  <fix>3d</fix>
</trkpt>
<trkpt lat="40.072842" lon="-105.230575">
  <ele>1586.09</ele>
  <time>2026-08-28T19:12:58Z</time>
  <course>0.0</course>
  <speed>0.0</speed>
  <fix>3d</fix>
</trkpt>
<trkpt lat="40.072842" lon="-105.230575">
  <ele>1586.09</ele>
  <time>2026-08-28T19:12:58Z</time>
  <course>11.62</course>
  <speed>0.03605551275463989</speed>
  <fix>3d</fix>
</trkpt>
<trkpt lat="40.072842" lon="-105.230575">
  <ele>1586.09</ele>
  <time>2026-08-28T19:12:58Z</time>
  <course>0.0</course>
  <speed>0.0</speed>
  <fix>3d</fix>
</trkpt>
<trkpt lat="40.072842" lon="-105.230575">
  <ele>1586.09</ele>
  <time>2026-08-28T19:12:58Z</time>
  <course>11.62</course>
  <speed>0.03605551275463989</speed>
  <fix>3d</fix>
</trkpt>
<trkpt lat="40.072842" lon="-105.230575">
  <ele>1586.09</ele>
  <time>2026-08-28T19:12:58Z</time>
  <course>0.0</course>
  <speed>0.0</speed>
  <fix>3d</fix>
</trkpt>
<trkpt lat="40.072842" lon="-105.230575">
  <ele>1586.09</ele>
  <time>2026-08-28T19:12:59Z</time>
  <course>11.61</course>
  <speed>0.03605551275463989</speed>
  <fix>3d</fix>
</trkpt>
<trkpt lat="40.072842" lon="-105.230575">
  <ele>1586.09</ele>
  <time>2026-08-28T19:12:59Z</time>
  <course>0.0</course>
  <speed>0.0</speed>
  <fix>3d</fix>
</trkpt>
<trkpt lat="40.072842" lon="-105.230575">
  <ele>1586.09</ele>
  <time>2026-08-28T19:12:59Z</time>
  <course>11.61</course>
  <speed>0.03605551275463989</speed>
  <fix>3d</fix>
</trkpt>
<trkpt lat="40.072842" lon="-105.230575">
  <ele>1586.09</ele>
  <time>2026-08-28T19:12:59Z</time>
  <course>0.0</course>
  <speed>0.0</speed>
  <fix>3d</fix>
</trkpt>
<trkpt lat="40.072842" lon="-105.230575">
  <ele>1586.09</ele>
  <time>2026-08-28T19:12:59Z</time>
  <course>11.6</course>
  <speed>0.03605551275463989</speed>
  <fix>3d</fix>
</trkpt>
<trkpt lat="40.072842" lon="-105.230575">
  <ele>1586.09</ele>
  <time>2026-08-28T19:12:59Z</time>
  <course>0.0</course>
  <speed>0.0</speed>
  <fix>3d</fix>
</trkpt>
<trkpt lat="40.072842" lon="-105.230575">
  <ele>1586.09</ele>
  <time>2026-08-28T19:12:59Z</time>
  <course>11.59</course>
  <speed>0.03605551275463989</speed>
  <fix>3d</fix>
</trkpt>
<trkpt lat="40.072842" lon="-105.230575">
  <ele>1586.09</ele>
  <time>2026-08-28T19:12:59Z</time>
  <course>0.0</course>
  <speed>0.0</speed>
  <fix>3d</fix>
</trkpt>
<trkpt lat="40.072842" lon="-105.230575">
  <ele>1586.09</ele>
  <time>2026-08-28T19:12:59Z</time>
  <course>11.59</course>
  <speed>0.03605551275463989</speed>
  <fix>3d</fix>
</trkpt>
<trkpt lat="40.072842" lon="-105.230575">
  <ele>1586.09</ele>
  <time>2026-08-28T19:12:59Z</time>
  <course>0.0</course>
  <speed>0.0</speed>
  <fix>3d</fix>
</trkpt>
<trkpt lat="40.072842" lon="-105.230575">
  <ele>1586.09</ele>
  <time>2026-08-28T19:12:59Z</time>
  <course>11.58</course>
  <speed>0.03605551275463989</speed>
  <fix>3d</fix>
</trkpt>
<trkpt lat="40.072842" lon="-105.230575">
  <ele>1586.09</ele>
  <time>2026-08-28T19:12:59Z</time>
  <course>0.0</course>
  <speed>0.0</speed>
  <fix>3d</fix>
</trkpt>
<trkpt lat="40.072842" lon="-105.230575">
  <ele>1586.09</ele>
  <time>2026-08-28T19:12:59Z</time>
  <course>11.57</course>
  <speed>0.03605551275463989</speed>
  <fix>3d</fix>
</trkpt>
<trkpt lat="40.072842" lon="-105.230575">
  <ele>1586.09</ele>
  <time>2026-08-28T19:12:59Z</time>
  <course>0.0</course>
  <speed>0.0</speed>
  <fix>3d</fix>
</trkpt>
<trkpt lat="40.072842" lon="-105.230575">
  <ele>1586.09</ele>
  <time>2026-08-28T19:12:59Z</time>
  <course>11.57</course>
  <speed>0.03605551275463989</speed>
  <fix>3d</fix>
</trkpt>
<trkpt lat="40.072842" lon="-105.230575">
  <ele>1586.09</ele>
  <time>2026-08-28T19:12:59Z</time>
  <course>0.0</course>
  <speed>0.0</speed>
  <fix>3d</fix>
</trkpt>
<trkpt lat="40.072842" lon="-105.230575">
  <ele>1586.09</ele>
  <time>2026-08-28T19:12:59Z</time>
  <course>11.56</course>
  <speed>0.03605551275463989</speed>
  <fix>3d</fix>
</trkpt>
<trkpt lat="40.072842" lon="-105.230575">
  <ele>1586.09</ele>
  <time>2026-08-28T19:12:59Z</time>
  <course>0.0</course>
  <speed>0.0</speed>
  <fix>3d</fix>
</trkpt>
<trkpt lat="40.072842" lon="-105.230575">
  <ele>1586.09</ele>
  <time>2026-08-28T19:12:59Z</time>
  <course>11.56</course>
  <speed>0.03605551275463989</speed>
  <fix>3d</fix>
</trkpt>
<trkpt lat="40.072842" lon="-105.230575">
  <ele>1586.09</ele>
  <time>2026-08-28T19:12:59Z</time>
  <course>0.0</course>
  <speed>0.0</speed>
  <fix>3d</fix>
</trkpt>
<trkpt lat="40.072842" lon="-105.230575">
  <ele>1586.09</ele>
  <time>2026-08-28T19:12:59Z</time>
  <course>11.55</course>
  <speed>0.03605551275463989</speed>
  <fix>3d</fix>
</trkpt>
<trkpt lat="40.072842" lon="-105.230575">
  <ele>1586.09</ele>
  <time>2026-08-28T19:12:59Z</time>
  <course>0.0</course>
  <speed>0.0</speed>
  <fix>3d</fix>
</trkpt>
<trkpt lat="40.072842" lon="-105.230575">
  <ele>1586.09</ele>
  <time>2026-08-28T19:12:59Z</time>
  <course>11.54</course>
  <speed>0.03605551275463989</speed>
  <fix>3d</fix>
</trkpt>
<trkpt lat="40.072842" lon="-105.230575">
  <ele>1586.09</ele>
  <time>2026-08-28T19:12:59Z</time>
  <course>0.0</course>
  <speed>0.0</speed>
  <fix>3d</fix>
</trkpt>
<trkpt lat="40.072842" lon="-105.230575">
  <ele>1586.09</ele>
  <time>2026-08-28T19:12:59Z</time>
  <course>11.54</course>
  <speed>0.03605551275463989</speed>
  <fix>3d</fix>
</trkpt>
<trkpt lat="40.072842" lon="-105.230575">
  <ele>1586.09</ele>
  <time>2026-08-28T19:12:59Z</time>
  <course>0.0</course>
  <speed>0.0</speed>
  <fix>3d</fix>
</trkpt>
<trkpt lat="40.072842" lon="-105.230575">
  <ele>1586.09</ele>
  <time>2026-08-28T19:12:59Z</time>
  <course>11.53</course>
  <speed>0.03605551275463989</speed>
  <fix>3d</fix>
</trkpt>
<trkpt lat="40.072842" lon="-105.230575">
  <ele>1586.09</ele>
  <time>2026-08-28T19:12:59Z</time>
  <course>0.0</course>
  <speed>0.0</speed>
  <fix>3d</fix>
</trkpt>
<trkpt lat="40.072842" lon="-105.230575">
  <ele>1586.09</ele>
  <time>2026-08-28T19:12:59Z</time>
  <course>11.53</course>
  <speed>0.03605551275463989</speed>
  <fix>3d</fix>
</trkpt>
<trkpt lat="40.072842" lon="-105.230575">
  <ele>1586.09</ele>
  <time>2026-08-28T19:12:59Z</time>
  <course>0.0</course>
  <speed>0.0</speed>
  <fix>3d</fix>
</trkpt>
<trkpt lat="40.072842" lon="-105.230575">
  <ele>1586.09</ele>
  <time>2026-08-28T19:12:59Z</time>
  <course>11.52</course>
  <speed>0.03605551275463989</speed>
  <fix>3d</fix>
</trkpt>
<trkpt lat="40.072842" lon="-105.230575">
  <ele>1586.09</ele>
  <time>2026-08-28T19:12:59Z</time>
  <course>0.0</course>
  <speed>0.0</speed>
  <fix>3d</fix>
</trkpt>
<trkpt lat="40.072842" lon="-105.230575">
  <ele>1586.09</ele>
  <time>2026-08-28T19:12:59Z</time>
  <course>11.51</course>
  <speed>0.03605551275463989</speed>
  <fix>3d</fix>
</trkpt>
<trkpt lat="40.072842" lon="-105.230575">
  <ele>1586.09</ele>
  <time>2026-08-28T19:12:59Z</time>
  <course>0.0</course>
  <speed>0.0</speed>
  <fix>3d</fix>
</trkpt>
<trkpt lat="40.072842" lon="-105.230575">
  <ele>1586.09</ele>
  <time>2026-08-28T19:12:59Z</time>
  <course>11.51</course>
  <speed>0.03605551275463989</speed>
  <fix>3d</fix>
</trkpt>
<trkpt lat="40.072842" lon="-105.230575">
  <ele>1586.09</ele>
  <time>2026-08-28T19:12:59Z</time>
  <course>0.0</course>
  <speed>0.0</speed>
  <fix>3d</fix>
</trkpt>
<trkpt lat="40.072842" lon="-105.230575">
  <ele>1586.09</ele>
  <time>2026-08-28T19:12:59Z</time>
  <course>11.5</course>
  <speed>0.03605551275463989</speed>
  <fix>3d</fix>
</trkpt>
<trkpt lat="40.072842" lon="-105.230575">
  <ele>1586.09</ele>
  <time>2026-08-28T19:12:59Z</time>
  <course>0.0</course>
  <speed>0.0</speed>
  <fix>3d</fix>
</trkpt>
<trkpt lat="40.072842" lon="-105.230575">
  <ele>1586.09</ele>
  <time>2026-08-28T19:12:59Z</time>
  <course>11.5</course>
  <speed>0.03605551275463989</speed>
  <fix>3d</fix>
</trkpt>
<trkpt lat="40.072842" lon="-105.230575">
  <ele>1586.09</ele>
  <time>2026-08-28T19:12:59Z</time>
  <course>0.0</course>
  <speed>0.0</speed>
  <fix>3d</fix>
</trkpt>
<trkpt lat="40.072842" lon="-105.230575">
  <ele>1586.09</ele>
  <time>2026-08-28T19:12:59Z</time>
  <course>11.49</course>
  <speed>0.044721359549995794</speed>
  <fix>3d</fix>
</trkpt>
<trkpt lat="40.072842" lon="-105.230575">
  <ele>1586.09</ele>
  <time>2026-08-28T19:12:59Z</time>
  <course>0.0</course>
  <speed>0.0</speed>
  <fix>3d</fix>
</trkpt>
<trkpt lat="40.072842" lon="-105.230575">
  <ele>1586.09</ele>
  <time>2026-08-28T19:12:59Z</time>
  <course>11.49</course>
  <speed>0.044721359549995794</speed>
  <fix>3d</fix>
</trkpt>
<trkpt lat="40.072842" lon="-105.230575">
  <ele>1586.09</ele>
  <time>2026-08-28T19:12:59Z</time>
  <course>0.0</course>
  <speed>0.0</speed>
  <fix>3d</fix>
</trkpt>
<trkpt lat="40.072842" lon="-105.230575">
  <ele>1586.09</ele>
  <time>2026-08-28T19:12:59Z</time>
  <course>11.48</course>
  <speed>0.044721359549995794</speed>
  <fix>3d</fix>
</trkpt>
<trkpt lat="40.072842" lon="-105.230575">
  <ele>1586.09</ele>
  <time>2026-08-28T19:12:59Z</time>
  <course>0.0</course>
  <speed>0.0</speed>
  <fix>3d</fix>
</trkpt>
<trkpt lat="40.072842" lon="-105.230575">
  <ele>1586.09</ele>
  <time>2026-08-28T19:12:59Z</time>
  <course>11.48</course>
  <speed>0.044721359549995794</speed>
  <fix>3d</fix>
</trkpt>
<trkpt lat="40.072842" lon="-105.230575">
  <ele>1586.09</ele>
  <time>2026-08-28T19:12:59Z</time>
  <course>0.0</course>
  <speed>0.0</speed>
  <fix>3d</fix>
</trkpt>
<trkpt lat="40.072842" lon="-105.230575">
  <ele>1586.09</ele>
  <time>2026-08-28T19:12:59Z</time>
  <course>11.47</course>
  <speed>0.044721359549995794</speed>
  <fix>3d</fix>
</trkpt>
<trkpt lat="40.072842" lon="-105.230575">
  <ele>1586.09</ele>
  <time>2026-08-28T19:12:59Z</time>
  <course>0.0</course>
  <speed>0.0</speed>
  <fix>3d</fix>
</trkpt>
<trkpt lat="40.072842" lon="-105.230575">
  <ele>1586.09</ele>
  <time>2026-08-28T19:12:59Z</time>
  <course>11.47</course>
  <speed>0.044721359549995794</speed>
  <fix>3d</fix>
</trkpt>
<trkpt lat="40.072842" lon="-105.230575">
  <ele>1586.09</ele>
  <time>2026-08-28T19:12:59Z</time>
  <course>0.0</course>
  <speed>0.0</speed>
  <fix>3d</fix>
</trkpt>
<trkpt lat="40.072842" lon="-105.230575">
  <ele>1586.09</ele>
  <time>2026-08-28T19:12:59Z</time>
  <course>11.46</course>
  <speed>0.044721359549995794</speed>
  <fix>3d</fix>
</trkpt>
<trkpt lat="40.072842" lon="-105.230575">
  <ele>1586.09</ele>
  <time>2026-08-28T19:12:59Z</time>
  <course>0.0</course>
  <speed>0.0</speed>
  <fix>3d</fix>
</trkpt>
<trkpt lat="40.072842" lon="-105.230575">
  <ele>1586.09</ele>
  <time>2026-08-28T19:12:59Z</time>
  <course>11.46</course>
  <speed>0.044721359549995794</speed>
  <fix>3d</fix>
</trkpt>
<trkpt lat="40.072842" lon="-105.230575">
  <ele>1586.09</ele>
  <time>2026-08-28T19:12:59Z</time>
  <course>0.0</course>
  <speed>0.0</speed>
  <fix>3d</fix>
</trkpt>
<trkpt lat="40.072842" lon="-105.230575">
  <ele>1586.15</ele>
  <time>2026-08-28T19:12:59Z</time>
  <course>11.45</course>
  <speed>0.0</speed>
  <fix>3d</fix>
</trkpt>
<trkpt lat="40.072842" lon="-105.230575">
  <ele>1586.09</ele>
  <time>2026-08-28T19:12:59Z</time>
  <course>0.0</course>
  <speed>0.0</speed>
  <fix>3d</fix>
</trkpt>
<trkpt lat="40.072842" lon="-105.230575">
  <ele>1586.15</ele>
  <time>2026-08-28T19:12:59Z</time>
  <course>11.45</course>
  <speed>0.0</speed>
  <fix>3d</fix>
</trkpt>
<trkpt lat="40.072842" lon="-105.230575">
  <ele>1586.09</ele>
  <time>2026-08-28T19:12:59Z</time>
  <course>0.0</course>
  <speed>0.0</speed>
  <fix>3d</fix>
</trkpt>
<trkpt lat="40.072842" lon="-105.230575">
  <ele>1586.14</ele>
  <time>2026-08-28T19:12:59Z</time>
  <course>11.44</course>
  <speed>0.0</speed>
  <fix>3d</fix>
</trkpt>
<trkpt lat="40.072842" lon="-105.230575">
  <ele>1586.09</ele>
  <time>2026-08-28T19:12:59Z</time>
  <course>0.0</course>
  <speed>0.0</speed>
  <fix>3d</fix>
</trkpt>
<trkpt lat="40.072842" lon="-105.230575">
  <ele>1586.14</ele>
  <time>2026-08-28T19:12:59Z</time>
  <course>11.44</course>
  <speed>0.0</speed>
  <fix>3d</fix>
</trkpt>
<trkpt lat="40.072842" lon="-105.230575">
  <ele>1586.09</ele>
  <time>2026-08-28T19:12:59Z</time>
  <course>0.0</course>
  <speed>0.0</speed>
  <fix>3d</fix>
</trkpt>
<trkpt lat="40.072842" lon="-105.230575">
  <ele>1586.14</ele>
  <time>2026-08-28T19:12:59Z</time>
  <course>11.43</course>
  <speed>0.0</speed>
  <fix>3d</fix>
</trkpt>
<trkpt lat="40.072842" lon="-105.230575">
  <ele>1586.09</ele>
  <time>2026-08-28T19:12:59Z</time>
  <course>0.0</course>
  <speed>0.0</speed>
  <fix>3d</fix>
</trkpt>
<trkpt lat="40.072842" lon="-105.230575">
  <ele>1586.14</ele>
  <time>2026-08-28T19:12:59Z</time>
  <course>11.43</course>
  <speed>0.01</speed>
  <fix>3d</fix>
</trkpt>
<trkpt lat="40.072842" lon="-105.230575">
  <ele>1586.09</ele>
  <time>2026-08-28T19:12:59Z</time>
  <course>0.0</course>
  <speed>0.0</speed>
  <fix>3d</fix>
</trkpt>
<trkpt lat="40.072842" lon="-105.230575">
  <ele>1586.14</ele>
  <time>2026-08-28T19:12:59Z</time>
  <course>11.42</course>
  <speed>0.01</speed>
  <fix>3d</fix>
</trkpt>
<trkpt lat="40.072842" lon="-105.230575">
  <ele>1586.09</ele>
  <time>2026-08-28T19:12:59Z</time>
  <course>0.0</course>
  <speed>0.0</speed>
  <fix>3d</fix>
</trkpt>
<trkpt lat="40.072842" lon="-105.230575">
  <ele>1586.14</ele>
  <time>2026-08-28T19:12:59Z</time>
  <course>11.42</course>
  <speed>0.01</speed>
  <fix>3d</fix>
</trkpt>
<trkpt lat="40.072842" lon="-105.230575">
  <ele>1586.09</ele>
  <time>2026-08-28T19:12:59Z</time>
  <course>0.0</course>
  <speed>0.0</speed>
  <fix>3d</fix>
</trkpt>
<trkpt lat="40.072842" lon="-105.230575">
  <ele>1586.14</ele>
  <time>2026-08-28T19:12:59Z</time>
  <course>11.41</course>
  <speed>0.01414213562373095</speed>
  <fix>3d</fix>
</trkpt>
<trkpt lat="40.072842" lon="-105.230575">
  <ele>1586.09</ele>
  <time>2026-08-28T19:12:59Z</time>
  <course>0.0</course>
  <speed>0.0</speed>
  <fix>3d</fix>
</trkpt>
<trkpt lat="40.072842" lon="-105.230575">
  <ele>1586.14</ele>
  <time>2026-08-28T19:12:59Z</time>
  <course>11.41</course>
  <speed>0.01414213562373095</speed>
  <fix>3d</fix>
</trkpt>
<trkpt lat="40.072842" lon="-105.230575">
  <ele>1586.09</ele>
  <time>2026-08-28T19:12:59Z</time>
  <course>0.0</course>
  <speed>0.0</speed>
  <fix>3d</fix>
</trkpt>
<trkpt lat="40.072842" lon="-105.230575">
  <ele>1586.15</ele>
  <time>2026-08-28T19:12:59Z</time>
  <course>11.41</course>
  <speed>0.01414213562373095</speed>
  <fix>3d</fix>
</trkpt>
<trkpt lat="40.072842" lon="-105.230575">
  <ele>1586.09</ele>
  <time>2026-08-28T19:12:59Z</time>
  <course>0.0</course>
  <speed>0.0</speed>
  <fix>3d</fix>
</trkpt>
<trkpt lat="40.072842" lon="-105.230575">
  <ele>1586.15</ele>
  <time>2026-08-28T19:12:59Z</time>
  <course>11.4</course>
  <speed>0.022360679774997897</speed>
  <fix>3d</fix>
</trkpt>
<trkpt lat="40.072842" lon="-105.230575">
  <ele>1586.09</ele>
  <time>2026-08-28T19:12:59Z</time>
  <course>0.0</course>
  <speed>0.0</speed>
  <fix>3d</fix>
</trkpt>
<trkpt lat="40.072842" lon="-105.230575">
  <ele>1586.15</ele>
  <time>2026-08-28T19:12:59Z</time>
  <course>11.4</course>
  <speed>0.022360679774997897</speed>
  <fix>3d</fix>
</trkpt>
<trkpt lat="40.072842" lon="-105.230575">
  <ele>1586.09</ele>
  <time>2026-08-28T19:12:59Z</time>
  <course>0.0</course>
  <speed>0.0</speed>
  <fix>3d</fix>
</trkpt>
<trkpt lat="40.072842" lon="-105.230575">
  <ele>1586.16</ele>
  <time>2026-08-28T19:12:59Z</time>
  <course>11.4</course>
  <speed>0.022360679774997897</speed>
  <fix>3d</fix>
</trkpt>
<trkpt lat="40.072842" lon="-105.230575">
  <ele>1586.09</ele>
  <time>2026-08-28T19:12:59Z</time>
  <course>0.0</course>
  <speed>0.0</speed>
  <fix>3d</fix>
</trkpt>
<trkpt lat="40.072842" lon="-105.230575">
  <ele>1586.16</ele>
  <time>2026-08-28T19:12:59Z</time>
  <course>11.39</course>
  <speed>0.022360679774997897</speed>
  <fix>3d</fix>
</trkpt>
<trkpt lat="40.072842" lon="-105.230575">
  <ele>1586.09</ele>
  <time>2026-08-28T19:12:59Z</time>
  <course>0.0</course>
  <speed>0.0</speed>
  <fix>3d</fix>
</trkpt>
<trkpt lat="40.072842" lon="-105.230575">
  <ele>1586.16</ele>
  <time>2026-08-28T19:12:59Z</time>
  <course>11.39</course>
  <speed>0.01414213562373095</speed>
  <fix>3d</fix>
</trkpt>
<trkpt lat="40.072842" lon="-105.230575">
  <ele>1586.09</ele>
  <time>2026-08-28T19:12:59Z</time>
  <course>0.0</course>
  <speed>0.0</speed>
  <fix>3d</fix>
</trkpt>
<trkpt lat="40.072842" lon="-105.230575">
  <ele>1586.16</ele>
  <time>2026-08-28T19:12:59Z</time>
  <course>11.39</course>
  <speed>0.01414213562373095</speed>
  <fix>3d</fix>
</trkpt>
<trkpt lat="40.072842" lon="-105.230575">
  <ele>1586.09</ele>
  <time>2026-08-28T19:12:59Z</time>
  <course>0.0</course>
  <speed>0.0</speed>
  <fix>3d</fix>
</trkpt>
<trkpt lat="40.072842" lon="-105.230575">
  <ele>1586.16</ele>
  <time>2026-08-28T19:12:59Z</time>
  <course>11.38</course>
  <speed>0.01</speed>
  <fix>3d</fix>
</trkpt>
<trkpt lat="40.072842" lon="-105.230575">
  <ele>1586.09</ele>
  <time>2026-08-28T19:12:59Z</time>
  <course>0.0</course>
  <speed>0.0</speed>
  <fix>3d</fix>
</trkpt>
<trkpt lat="40.072842" lon="-105.230575">
  <ele>1586.16</ele>
  <time>2026-08-28T19:12:59Z</time>
  <course>11.38</course>
  <speed>0.0</speed>
  <fix>3d</fix>
</trkpt>
<trkpt lat="40.072842" lon="-105.230575">
  <ele>1586.09</ele>
  <time>2026-08-28T19:12:59Z</time>
  <course>0.0</course>
  <speed>0.0</speed>
  <fix>3d</fix>
</trkpt>
<trkpt lat="40.072842" lon="-105.230575">
  <ele>1586.16</ele>
  <time>2026-08-28T19:12:59Z</time>
  <course>11.37</course>
  <speed>0.0</speed>
  <fix>3d</fix>
</trkpt>
<trkpt lat="40.072842" lon="-105.230575">
  <ele>1586.09</ele>
  <time>2026-08-28T19:12:59Z</time>
  <course>0.0</course>
  <speed>0.0</speed>
  <fix>3d</fix>
</trkpt>
<trkpt lat="40.072842" lon="-105.230575">
  <ele>1586.16</ele>
  <time>2026-08-28T19:12:59Z</time>
  <course>11.37</course>
  <speed>0.0</speed>
  <fix>3d</fix>
</trkpt>
<trkpt lat="40.072842" lon="-105.230575">
  <ele>1586.09</ele>
  <time>2026-08-28T19:12:59Z</time>
  <course>0.0</course>
  <speed>0.0</speed>
  <fix>3d</fix>
</trkpt>
<trkpt lat="40.072842" lon="-105.230575">
  <ele>1586.16</ele>
  <time>2026-08-28T19:12:59Z</time>
  <course>11.37</course>
  <speed>0.0</speed>
  <fix>3d</fix>
</trkpt>
<trkpt lat="40.072842" lon="-105.230575">
  <ele>1586.09</ele>
  <time>2026-08-28T19:12:59Z</time>
  <course>0.0</course>
  <speed>0.0</speed>
  <fix>3d</fix>
</trkpt>
<trkpt lat="40.072842" lon="-105.230575">
  <ele>1586.16</ele>
  <time>2026-08-28T19:12:59Z</time>
  <course>11.36</course>
  <speed>0.0</speed>
  <fix>3d</fix>
</trkpt>
<trkpt lat="40.072842" lon="-105.230575">
  <ele>1586.09</ele>
  <time>2026-08-28T19:12:59Z</time>
  <course>135.0</course>
  <speed>0.0</speed>
  <fix>3d</fix>
</trkpt>
<trkpt lat="40.072842" lon="-105.230575">
  <ele>1586.16</ele>
  <time>2026-08-28T19:12:59Z</time>
  <course>11.36</course>
  <speed>0.0</speed>
  <fix>3d</fix>
</trkpt>
<trkpt lat="40.072842" lon="-105.230575">
  <ele>1586.09</ele>
  <time>2026-08-28T19:12:59Z</time>
  <course>135.0</course>
  <speed>0.0</speed>
  <fix>3d</fix>
</trkpt>
<trkpt lat="40.072842" lon="-105.230575">
  <ele>1586.16</ele>
  <time>2026-08-28T19:12:59Z</time>
  <course>11.36</course>
  <speed>0.0</speed>
  <fix>3d</fix>
</trkpt>
<trkpt lat="40.072842" lon="-105.230575">
  <ele>1586.09</ele>
  <time>2026-08-28T19:12:59Z</time>
  <course>135.0</course>
  <speed>0.0</speed>
  <fix>3d</fix>
</trkpt>
<trkpt lat="40.072842" lon="-105.230575">
  <ele>1586.16</ele>
  <time>2026-08-28T19:12:59Z</time>
  <course>11.35</course>
  <speed>0.0</speed>
  <fix>3d</fix>
</trkpt>
<trkpt lat="40.072842" lon="-105.230575">
  <ele>1586.09</ele>
  <time>2026-08-28T19:12:59Z</time>
  <course>134.99</course>
  <speed>0.0</speed>
  <fix>3d</fix>
</trkpt>
<trkpt lat="40.072842" lon="-105.230575">
  <ele>1586.16</ele>
  <time>2026-08-28T19:12:59Z</time>
  <course>11.35</course>
  <speed>0.0</speed>
  <fix>3d</fix>
</trkpt>
<trkpt lat="40.072842" lon="-105.230575">
  <ele>1586.09</ele>
  <time>2026-08-28T19:12:59Z</time>
  <course>136.58</course>
  <speed>0.0</speed>
  <fix>3d</fix>
</trkpt>
<trkpt lat="40.072842" lon="-105.230575">
  <ele>1586.16</ele>
  <time>2026-08-28T19:12:59Z</time>
  <course>11.35</course>
  <speed>0.0</speed>
  <fix>3d</fix>
</trkpt>
<trkpt lat="40.072842" lon="-105.230575">
  <ele>1586.09</ele>
  <time>2026-08-28T19:12:59Z</time>
  <course>157.75</course>
  <speed>0.0</speed>
  <fix>3d</fix>
</trkpt>
<trkpt lat="40.072842" lon="-105.230575">
  <ele>1586.16</ele>
  <time>2026-08-28T19:12:59Z</time>
  <course>11.35</course>
  <speed>0.0</speed>
  <fix>3d</fix>
</trkpt>
<trkpt lat="40.072842" lon="-105.230575">
  <ele>1586.09</ele>
  <time>2026-08-28T19:12:59Z</time>
  <course>171.87</course>
  <speed>0.0</speed>
  <fix>3d</fix>
</trkpt>
<trkpt lat="40.072842" lon="-105.230575">
  <ele>1586.16</ele>
  <time>2026-08-28T19:12:59Z</time>
  <course>11.34</course>
  <speed>0.0</speed>
  <fix>3d</fix>
</trkpt>
<trkpt lat="40.072842" lon="-105.230575">
  <ele>1586.09</ele>
  <time>2026-08-28T19:12:59Z</time>
  <course>339.39</course>
  <speed>0.0</speed>
  <fix>3d</fix>
</trkpt>
<trkpt lat="40.072842" lon="-105.230575">
  <ele>1586.16</ele>
  <time>2026-08-28T19:12:59Z</time>
  <course>11.34</course>
  <speed>0.0</speed>
  <fix>3d</fix>
</trkpt>
<trkpt lat="40.072842" lon="-105.230575">
  <ele>1586.09</ele>
  <time>2026-08-28T19:12:59Z</time>
  <course>357.89</course>
  <speed>0.0</speed>
  <fix>3d</fix>
</trkpt>
<trkpt lat="40.072842" lon="-105.230575">
  <ele>1586.16</ele>
  <time>2026-08-28T19:12:59Z</time>
  <course>11.34</course>
  <speed>0.0</speed>
  <fix>3d</fix>
</trkpt>
<trkpt lat="40.072842" lon="-105.230575">
  <ele>1586.09</ele>
  <time>2026-08-28T19:12:59Z</time>
  <course>160.76</course>
  <speed>0.0</speed>
  <fix>3d</fix>
</trkpt>
<trkpt lat="40.072842" lon="-105.230575">
  <ele>1586.16</ele>
  <time>2026-08-28T19:12:59Z</time>
  <course>11.34</course>
  <speed>0.0</speed>
  <fix>3d</fix>
</trkpt>
<trkpt lat="40.072842" lon="-105.230575">
  <ele>1586.09</ele>
  <time>2026-08-28T19:12:59Z</time>
  <course>162.16</course>
  <speed>0.0</speed>
  <fix>3d</fix>
</trkpt>
<trkpt lat="40.072842" lon="-105.230575">
  <ele>1586.16</ele>
  <time>2026-08-28T19:12:59Z</time>
  <course>11.34</course>
  <speed>0.0</speed>
  <fix>3d</fix>
</trkpt>
<trkpt lat="40.072842" lon="-105.230575">
  <ele>1586.09</ele>
  <time>2026-08-28T19:12:59Z</time>
  <course>49.44</course>
  <speed>0.0</speed>
  <fix>3d</fix>
</trkpt>
<trkpt lat="40.072842" lon="-105.230575">
  <ele>1586.16</ele>
  <time>2026-08-28T19:12:59Z</time>
  <course>11.34</course>
  <speed>0.0</speed>
  <fix>3d</fix>
</trkpt>
<trkpt lat="40.072842" lon="-105.230575">
  <ele>1586.09</ele>
  <time>2026-08-28T19:12:59Z</time>
  <course>47.32</course>
  <speed>0.0</speed>
  <fix>3d</fix>
</trkpt>
<trkpt lat="40.072842" lon="-105.230575">
  <ele>1586.16</ele>
  <time>2026-08-28T19:12:59Z</time>
  <course>11.33</course>
  <speed>0.0</speed>
  <fix>3d</fix>
</trkpt>
<trkpt lat="40.072842" lon="-105.230575">
  <ele>1586.09</ele>
  <time>2026-08-28T19:12:59Z</time>
  <course>49.43</course>
  <speed>0.0</speed>
  <fix>3d</fix>
</trkpt>
<trkpt lat="40.072842" lon="-105.230575">
  <ele>1586.16</ele>
  <time>2026-08-28T19:12:59Z</time>
  <course>11.33</course>
  <speed>0.0</speed>
  <fix>3d</fix>
</trkpt>
<trkpt lat="40.072842" lon="-105.230575">
  <ele>1586.09</ele>
  <time>2026-08-28T19:12:59Z</time>
  <course>209.05</course>
  <speed>0.0</speed>
  <fix>3d</fix>
</trkpt>
<trkpt lat="40.072842" lon="-105.230575">
  <ele>1586.16</ele>
  <time>2026-08-28T19:12:59Z</time>
  <course>11.33</course>
  <speed>0.0</speed>
  <fix>3d</fix>
</trkpt>
<trkpt lat="40.072842" lon="-105.230575">
  <ele>1586.09</ele>
  <time>2026-08-28T19:12:59Z</time>
  <course>190.58</course>
  <speed>0.0</speed>
  <fix>3d</fix>
</trkpt>
<trkpt lat="40.072842" lon="-105.230575">
  <ele>1586.16</ele>
  <time>2026-08-28T19:12:59Z</time>
  <course>11.33</course>
  <speed>0.0</speed>
  <fix>3d</fix>
</trkpt>
<trkpt lat="40.072842" lon="-105.230575">
  <ele>1586.09</ele>
  <time>2026-08-28T19:12:59Z</time>
  <course>102.39</course>
  <speed>0.0</speed>
  <fix>3d</fix>
</trkpt>
<trkpt lat="40.072842" lon="-105.230575">
  <ele>1586.17</ele>
  <time>2026-08-28T19:12:59Z</time>
  <course>11.33</course>
  <speed>0.0</speed>
  <fix>3d</fix>
</trkpt>
<trkpt lat="40.072842" lon="-105.230575">
  <ele>1586.09</ele>
  <time>2026-08-28T19:12:59Z</time>
  <course>128.29</course>
  <speed>0.0</speed>
  <fix>3d</fix>
</trkpt>
<trkpt lat="40.072842" lon="-105.230575">
  <ele>1586.17</ele>
  <time>2026-08-28T19:12:59Z</time>
  <course>11.33</course>
  <speed>0.0</speed>
  <fix>3d</fix>
</trkpt>
<trkpt lat="40.072842" lon="-105.230575">
  <ele>1586.09</ele>
  <time>2026-08-28T19:12:59Z</time>
  <course>140.73</course>
  <speed>0.0</speed>
  <fix>3d</fix>
</trkpt>
<trkpt lat="40.072842" lon="-105.230575">
  <ele>1586.17</ele>
  <time>2026-08-28T19:12:59Z</time>
  <course>11.33</course>
  <speed>0.01</speed>
  <fix>3d</fix>
</trkpt>
<trkpt lat="40.072842" lon="-105.230575">
  <ele>1586.09</ele>
  <time>2026-08-28T19:12:59Z</time>
  <course>135.23</course>
  <speed>0.0</speed>
  <fix>3d</fix>
</trkpt>
<trkpt lat="40.072842" lon="-105.230575">
  <ele>1586.17</ele>
  <time>2026-08-28T19:12:59Z</time>
  <course>11.33</course>
  <speed>0.01</speed>
  <fix>3d</fix>
</trkpt>
<trkpt lat="40.072842" lon="-105.230575">
  <ele>1586.09</ele>
  <time>2026-08-28T19:12:59Z</time>
  <course>134.21</course>
  <speed>0.0</speed>
  <fix>3d</fix>
</trkpt>
<trkpt lat="40.072842" lon="-105.230575">
  <ele>1586.18</ele>
  <time>2026-08-28T19:12:59Z</time>
  <course>11.33</course>
  <speed>0.01</speed>
  <fix>3d</fix>
</trkpt>
<trkpt lat="40.072842" lon="-105.230575">
  <ele>1586.09</ele>
  <time>2026-08-28T19:12:59Z</time>
  <course>135.07</course>
  <speed>0.0</speed>
  <fix>3d</fix>
</trkpt>
<trkpt lat="40.072842" lon="-105.230575">
  <ele>1586.18</ele>
  <time>2026-08-28T19:12:59Z</time>
  <course>11.33</course>
  <speed>0.01</speed>
  <fix>3d</fix>
</trkpt>
<trkpt lat="40.072842" lon="-105.230575">
  <ele>1586.09</ele>
  <time>2026-08-28T19:12:59Z</time>
  <course>135.1</course>
  <speed>0.0</speed>
  <fix>3d</fix>
</trkpt>
<trkpt lat="40.072842" lon="-105.230575">
  <ele>1586.18</ele>
  <time>2026-08-28T19:12:59Z</time>
  <course>11.33</course>
  <speed>0.01414213562373095</speed>
  <fix>3d</fix>
</trkpt>
<trkpt lat="40.072842" lon="-105.230575">
  <ele>1586.09</ele>
  <time>2026-08-28T19:12:59Z</time>
  <course>134.98</course>
  <speed>0.0</speed>
  <fix>3d</fix>
</trkpt>
<trkpt lat="40.072842" lon="-105.230575">
  <ele>1586.18</ele>
  <time>2026-08-28T19:12:59Z</time>
  <course>11.33</course>
  <speed>0.01414213562373095</speed>
  <fix>3d</fix>
</trkpt>
<trkpt lat="40.072842" lon="-105.230575">
  <ele>1586.09</ele>
  <time>2026-08-28T19:12:59Z</time>
  <course>134.99</course>
  <speed>0.0</speed>
  <fix>3d</fix>
</trkpt>
<trkpt lat="40.072842" lon="-105.230575">
  <ele>1586.18</ele>
  <time>2026-08-28T19:12:59Z</time>
  <course>11.33</course>
  <speed>0.01414213562373095</speed>
  <fix>3d</fix>
</trkpt>
<trkpt lat="40.072842" lon="-105.230575">
  <ele>1586.09</ele>
  <time>2026-08-28T19:12:59Z</time>
  <course>135.01</course>
  <speed>0.0</speed>
  <fix>3d</fix>
</trkpt>
<trkpt lat="40.072842" lon="-105.230575">
  <ele>1586.18</ele>
  <time>2026-08-28T19:12:59Z</time>
  <course>11.33</course>
  <speed>0.01414213562373095</speed>
  <fix>3d</fix>
</trkpt>
<trkpt lat="40.072842" lon="-105.230575">
  <ele>1586.09</ele>
  <time>2026-08-28T19:12:59Z</time>
  <course>135.01</course>
  <speed>0.0</speed>
  <fix>3d</fix>
</trkpt>
<trkpt lat="40.072842" lon="-105.230575">
  <ele>1586.18</ele>
  <time>2026-08-28T19:12:59Z</time>
  <course>11.33</course>
  <speed>0.01414213562373095</speed>
  <fix>3d</fix>
</trkpt>
<trkpt lat="40.072842" lon="-105.230575">
  <ele>1586.09</ele>
  <time>2026-08-28T19:12:59Z</time>
  <course>135.0</course>
  <speed>0.0</speed>
  <fix>3d</fix>
</trkpt>
<trkpt lat="40.072842" lon="-105.230575">
  <ele>1586.18</ele>
  <time>2026-08-28T19:12:59Z</time>
  <course>11.33</course>
  <speed>0.01414213562373095</speed>
  <fix>3d</fix>
</trkpt>
<trkpt lat="40.072842" lon="-105.230575">
  <ele>1586.09</ele>
  <time>2026-08-28T19:12:59Z</time>
  <course>135.01</course>
  <speed>0.0</speed>
  <fix>3d</fix>
</trkpt>
<trkpt lat="40.0728419" lon="-105.230575">
  <ele>1586.18</ele>
  <time>2026-08-28T19:12:59Z</time>
  <course>11.33</course>
  <speed>0.01414213562373095</speed>
  <fix>3d</fix>
</trkpt>
<trkpt lat="40.072842" lon="-105.230575">
  <ele>1586.09</ele>
  <time>2026-08-28T19:12:59Z</time>
  <course>135.01</course>
  <speed>0.0</speed>
  <fix>3d</fix>
</trkpt>
<trkpt lat="40.0728419" lon="-105.230575">
  <ele>1586.17</ele>
  <time>2026-08-28T19:12:59Z</time>
  <course>11.33</course>
  <speed>0.01414213562373095</speed>
  <fix>3d</fix>
</trkpt>
<trkpt lat="40.072842" lon="-105.230575">
  <ele>1586.09</ele>
  <time>2026-08-28T19:12:59Z</time>
  <course>135.01</course>
  <speed>0.0</speed>
  <fix>3d</fix>
</trkpt>
<trkpt lat="40.0728419" lon="-105.2305749">
  <ele>1586.17</ele>
  <time>2026-08-28T19:12:59Z</time>
  <course>11.33</course>
  <speed>0.022360679774997897</speed>
  <fix>3d</fix>
</trkpt>
<trkpt lat="40.072842" lon="-105.230575">
  <ele>1586.09</ele>
  <time>2026-08-28T19:12:59Z</time>
  <course>135.01</course>
  <speed>0.0</speed>
  <fix>3d</fix>
</trkpt>
<trkpt lat="40.0728419" lon="-105.2305749">
  <ele>1586.17</ele>
  <time>2026-08-28T19:12:59Z</time>
  <course>11.33</course>
  <speed>0.022360679774997897</speed>
  <fix>3d</fix>
</trkpt>
<trkpt lat="40.072842" lon="-105.230575">
  <ele>1586.09</ele>
  <time>2026-08-28T19:12:59Z</time>
  <course>135.01</course>
  <speed>0.0</speed>
  <fix>3d</fix>
</trkpt>
<trkpt lat="40.0728419" lon="-105.2305749">
  <ele>1586.17</ele>
  <time>2026-08-28T19:12:59Z</time>
  <course>11.33</course>
  <speed>0.022360679774997897</speed>
  <fix>3d</fix>
</trkpt>
<trkpt lat="40.072842" lon="-105.230575">
  <ele>1586.09</ele>
  <time>2026-08-28T19:12:59Z</time>
  <course>135.01</course>
  <speed>0.0</speed>
  <fix>3d</fix>
</trkpt>
<trkpt lat="40.0728419" lon="-105.2305749">
  <ele>1586.17</ele>
  <time>2026-08-28T19:12:59Z</time>
  <course>11.33</course>
  <speed>0.022360679774997897</speed>
  <fix>3d</fix>
</trkpt>
<trkpt lat="40.072842" lon="-105.230575">
  <ele>1586.09</ele>
  <time>2026-08-28T19:12:59Z</time>
  <course>135.01</course>
  <speed>0.0</speed>
  <fix>3d</fix>
</trkpt>
<trkpt lat="40.0728419" lon="-105.2305749">
  <ele>1586.17</ele>
  <time>2026-08-28T19:12:59Z</time>
  <course>11.33</course>
  <speed>0.022360679774997897</speed>
  <fix>3d</fix>
</trkpt>
<trkpt lat="40.072842" lon="-105.230575">
  <ele>1586.09</ele>
  <time>2026-08-28T19:12:59Z</time>
  <course>135.01</course>
  <speed>0.0</speed>
  <fix>3d</fix>
</trkpt>
<trkpt lat="40.0728419" lon="-105.2305749">
  <ele>1586.17</ele>
  <time>2026-08-28T19:12:59Z</time>
  <course>11.33</course>
  <speed>0.022360679774997897</speed>
  <fix>3d</fix>
</trkpt>
<trkpt lat="40.072842" lon="-105.230575">
  <ele>1586.09</ele>
  <time>2026-08-28T19:12:59Z</time>
  <course>135.01</course>
  <speed>0.0</speed>
  <fix>3d</fix>
</trkpt>
<trkpt lat="40.0728419" lon="-105.2305749">
  <ele>1586.18</ele>
  <time>2026-08-28T19:12:59Z</time>
  <course>11.33</course>
  <speed>0.022360679774997897</speed>
  <fix>3d</fix>
</trkpt>
<trkpt lat="40.072842" lon="-105.230575">
  <ele>1586.09</ele>
  <time>2026-08-28T19:12:59Z</time>
  <course>135.01</course>
  <speed>0.0</speed>
  <fix>3d</fix>
</trkpt>
<trkpt lat="40.0728419" lon="-105.2305749">
  <ele>1586.18</ele>
  <time>2026-08-28T19:12:59Z</time>
  <course>11.33</course>
  <speed>0.022360679774997897</speed>
  <fix>3d</fix>
</trkpt>
<trkpt lat="40.072842" lon="-105.230575">
  <ele>1586.09</ele>
  <time>2026-08-28T19:12:59Z</time>
  <course>135.01</course>
  <speed>0.0</speed>
  <fix>3d</fix>
</trkpt>
<trkpt lat="40.0728419" lon="-105.2305749">
  <ele>1586.18</ele>
  <time>2026-08-28T19:12:59Z</time>
  <course>11.33</course>
  <speed>0.022360679774997897</speed>
  <fix>3d</fix>
</trkpt>
<trkpt lat="40.072842" lon="-105.230575">
  <ele>1586.09</ele>
  <time>2026-08-28T19:12:59Z</time>
  <course>135.01</course>
  <speed>0.0</speed>
  <fix>3d</fix>
</trkpt>
<trkpt lat="40.0728419" lon="-105.2305749">
  <ele>1586.18</ele>
  <time>2026-08-28T19:12:59Z</time>
  <course>11.33</course>
  <speed>0.022360679774997897</speed>
  <fix>3d</fix>
</trkpt>
<trkpt lat="40.072842" lon="-105.230575">
  <ele>1586.09</ele>
  <time>2026-08-28T19:12:59Z</time>
  <course>135.01</course>
  <speed>0.0</speed>
  <fix>3d</fix>
</trkpt>
<trkpt lat="40.0728419" lon="-105.2305749">
  <ele>1586.18</ele>
  <time>2026-08-28T19:12:59Z</time>
  <course>11.33</course>
  <speed>0.022360679774997897</speed>
  <fix>3d</fix>
</trkpt>
<trkpt lat="40.072842" lon="-105.230575">
  <ele>1586.09</ele>
  <time>2026-08-28T19:12:59Z</time>
  <course>135.01</course>
  <speed>0.0</speed>
  <fix>3d</fix>
</trkpt>
<trkpt lat="40.0728419" lon="-105.2305749">
  <ele>1586.18</ele>
  <time>2026-08-28T19:12:59Z</time>
  <course>11.33</course>
  <speed>0.022360679774997897</speed>
  <fix>3d</fix>
</trkpt>
<trkpt lat="40.072842" lon="-105.230575">
  <ele>1586.09</ele>
  <time>2026-08-28T19:12:59Z</time>
  <course>135.01</course>
  <speed>0.0</speed>
  <fix>3d</fix>
</trkpt>
<trkpt lat="40.0728419" lon="-105.2305749">
  <ele>1586.18</ele>
  <time>2026-08-28T19:12:59Z</time>
  <course>11.33</course>
  <speed>0.022360679774997897</speed>
  <fix>3d</fix>
</trkpt>
<trkpt lat="40.072842" lon="-105.230575">
  <ele>1586.09</ele>
  <time>2026-08-28T19:12:59Z</time>
  <course>135.01</course>
  <speed>0.0</speed>
  <fix>3d</fix>
</trkpt>
<trkpt lat="40.0728419" lon="-105.2305749">
  <ele>1586.18</ele>
  <time>2026-08-28T19:12:59Z</time>
  <course>11.33</course>
  <speed>0.022360679774997897</speed>
  <fix>3d</fix>
</trkpt>
<trkpt lat="40.072842" lon="-105.230575">
  <ele>1586.09</ele>
  <time>2026-08-28T19:12:59Z</time>
  <course>135.01</course>
  <speed>0.0</speed>
  <fix>3d</fix>
</trkpt>
<trkpt lat="40.0728419" lon="-105.2305749">
  <ele>1586.18</ele>
  <time>2026-08-28T19:12:59Z</time>
  <course>11.33</course>
  <speed>0.022360679774997897</speed>
  <fix>3d</fix>
</trkpt>
<trkpt lat="40.072842" lon="-105.230575">
  <ele>1586.09</ele>
  <time>2026-08-28T19:12:59Z</time>
  <course>135.01</course>
  <speed>0.0</speed>
  <fix>3d</fix>
</trkpt>
<trkpt lat="40.0728419" lon="-105.2305749">
  <ele>1586.18</ele>
  <time>2026-08-28T19:12:59Z</time>
  <course>11.33</course>
  <speed>0.022360679774997897</speed>
  <fix>3d</fix>
</trkpt>
<trkpt lat="40.072842" lon="-105.230575">
  <ele>1586.09</ele>
  <time>2026-08-28T19:12:59Z</time>
  <course>135.01</course>
  <speed>0.0</speed>
  <fix>3d</fix>
</trkpt>
<trkpt lat="40.0728419" lon="-105.2305749">
  <ele>1586.18</ele>
  <time>2026-08-28T19:12:59Z</time>
  <course>11.33</course>
  <speed>0.022360679774997897</speed>
  <fix>3d</fix>
</trkpt>
<trkpt lat="40.072842" lon="-105.230575">
  <ele>1586.09</ele>
  <time>2026-08-28T19:12:59Z</time>
  <course>135.01</course>
  <speed>0.0</speed>
  <fix>3d</fix>
</trkpt>
<trkpt lat="40.0728419" lon="-105.2305749">
  <ele>1586.18</ele>
  <time>2026-08-28T19:12:59Z</time>
  <course>11.33</course>
  <speed>0.022360679774997897</speed>
  <fix>3d</fix>
</trkpt>
<trkpt lat="40.072842" lon="-105.230575">
  <ele>1586.09</ele>
  <time>2026-08-28T19:12:59Z</time>
  <course>135.01</course>
  <speed>0.0</speed>
  <fix>3d</fix>
</trkpt>
<trkpt lat="40.0728419" lon="-105.2305749">
  <ele>1586.18</ele>
  <time>2026-08-28T19:12:59Z</time>
  <course>11.32</course>
  <speed>0.022360679774997897</speed>
  <fix>3d</fix>
</trkpt>
<trkpt lat="40.072842" lon="-105.230575">
  <ele>1586.09</ele>
  <time>2026-08-28T19:12:59Z</time>
  <course>135.01</course>
  <speed>0.0</speed>
  <fix>3d</fix>
</trkpt>
<trkpt lat="40.0728419" lon="-105.2305749">
  <ele>1586.18</ele>
  <time>2026-08-28T19:12:59Z</time>
  <course>11.32</course>
  <speed>0.022360679774997897</speed>
  <fix>3d</fix>
</trkpt>
<trkpt lat="40.072842" lon="-105.230575">
  <ele>1586.09</ele>
  <time>2026-08-28T19:12:59Z</time>
  <course>135.01</course>
  <speed>0.0</speed>
  <fix>3d</fix>
</trkpt>
<trkpt lat="40.0728419" lon="-105.2305749">
  <ele>1586.18</ele>
  <time>2026-08-28T19:12:59Z</time>
  <course>11.32</course>
  <speed>0.022360679774997897</speed>
  <fix>3d</fix>
</trkpt>
<trkpt lat="40.072842" lon="-105.230575">
  <ele>1586.09</ele>
  <time>2026-08-28T19:12:59Z</time>
  <course>135.01</course>
  <speed>0.0</speed>
  <fix>3d</fix>
</trkpt>
<trkpt lat="40.0728419" lon="-105.2305749">
  <ele>1586.18</ele>
  <time>2026-08-28T19:12:59Z</time>
  <course>11.32</course>
  <speed>0.022360679774997897</speed>
  <fix>3d</fix>
</trkpt>
<trkpt lat="40.072842" lon="-105.230575">
  <ele>1586.09</ele>
  <time>2026-08-28T19:12:59Z</time>
  <course>135.01</course>
  <speed>0.0</speed>
  <fix>3d</fix>
</trkpt>
<trkpt lat="40.0728419" lon="-105.2305749">
  <ele>1586.18</ele>
  <time>2026-08-28T19:12:59Z</time>
  <course>11.32</course>
  <speed>0.022360679774997897</speed>
  <fix>3d</fix>
</trkpt>
<trkpt lat="40.072842" lon="-105.230575">
  <ele>1586.09</ele>
  <time>2026-08-28T19:12:59Z</time>
  <course>135.01</course>
  <speed>0.0</speed>
  <fix>3d</fix>
</trkpt>
<trkpt lat="40.0728419" lon="-105.2305749">
  <ele>1586.18</ele>
  <time>2026-08-28T19:12:59Z</time>
  <course>11.32</course>
  <speed>0.022360679774997897</speed>
  <fix>3d</fix>
</trkpt>
<trkpt lat="40.072842" lon="-105.230575">
  <ele>1586.09</ele>
  <time>2026-08-28T19:12:59Z</time>
  <course>135.01</course>
  <speed>0.0</speed>
  <fix>3d</fix>
</trkpt>
<trkpt lat="40.0728419" lon="-105.2305749">
  <ele>1586.18</ele>
  <time>2026-08-28T19:12:59Z</time>
  <course>11.32</course>
  <speed>0.022360679774997897</speed>
  <fix>3d</fix>
</trkpt>
<trkpt lat="40.072842" lon="-105.230575">
  <ele>1586.09</ele>
  <time>2026-08-28T19:12:59Z</time>
  <course>135.01</course>
  <speed>0.0</speed>
  <fix>3d</fix>
</trkpt>
<trkpt lat="40.0728419" lon="-105.2305749">
  <ele>1586.18</ele>
  <time>2026-08-28T19:12:59Z</time>
  <course>11.32</course>
  <speed>0.022360679774997897</speed>
  <fix>3d</fix>
</trkpt>
<trkpt lat="40.072842" lon="-105.230575">
  <ele>1586.09</ele>
  <time>2026-08-28T19:12:59Z</time>
  <course>135.01</course>
  <speed>0.0</speed>
  <fix>3d</fix>
</trkpt>
<trkpt lat="40.0728419" lon="-105.2305749">
  <ele>1586.18</ele>
  <time>2026-08-28T19:12:59Z</time>
  <course>11.31</course>
  <speed>0.022360679774997897</speed>
  <fix>3d</fix>
</trkpt>
<trkpt lat="40.072842" lon="-105.230575">
  <ele>1586.09</ele>
  <time>2026-08-28T19:12:59Z</time>
  <course>135.01</course>
  <speed>0.0</speed>
  <fix>3d</fix>
</trkpt>
<trkpt lat="40.0728419" lon="-105.2305749">
  <ele>1586.18</ele>
  <time>2026-08-28T19:12:59Z</time>
  <course>11.31</course>
  <speed>0.022360679774997897</speed>
  <fix>3d</fix>
</trkpt>
<trkpt lat="40.072842" lon="-105.230575">
  <ele>1586.09</ele>
  <time>2026-08-28T19:12:59Z</time>
  <course>135.01</course>
  <speed>0.0</speed>
  <fix>3d</fix>
</trkpt>
<trkpt lat="40.0728419" lon="-105.2305749">
  <ele>1586.17</ele>
  <time>2026-08-28T19:12:59Z</time>
  <course>11.31</course>
  <speed>0.022360679774997897</speed>
  <fix>3d</fix>
</trkpt>
<trkpt lat="40.072842" lon="-105.230575">
  <ele>1586.09</ele>
  <time>2026-08-28T19:12:59Z</time>
  <course>135.01</course>
  <speed>0.0</speed>
  <fix>3d</fix>
</trkpt>
<trkpt lat="40.0728419" lon="-105.2305749">
  <ele>1586.17</ele>
  <time>2026-08-28T19:12:59Z</time>
  <course>11.31</course>
  <speed>0.022360679774997897</speed>
  <fix>3d</fix>
</trkpt>
<trkpt lat="40.072842" lon="-105.230575">
  <ele>1586.09</ele>
  <time>2026-08-28T19:12:59Z</time>
  <course>135.01</course>
  <speed>0.0</speed>
  <fix>3d</fix>
</trkpt>
<trkpt lat="40.0728419" lon="-105.2305749">
  <ele>1586.17</ele>
  <time>2026-08-28T19:12:59Z</time>
  <course>11.31</course>
  <speed>0.022360679774997897</speed>
  <fix>3d</fix>
</trkpt>
<trkpt lat="40.072842" lon="-105.230575">
  <ele>1586.09</ele>
  <time>2026-08-28T19:12:59Z</time>
  <course>315.0</course>
  <speed>0.0</speed>
  <fix>3d</fix>
</trkpt>
<trkpt lat="40.0728419" lon="-105.2305749">
  <ele>1586.17</ele>
  <time>2026-08-28T19:12:59Z</time>
  <course>11.31</course>
  <speed>0.022360679774997897</speed>
  <fix>3d</fix>
</trkpt>
<trkpt lat="40.072842" lon="-105.230575">
  <ele>1586.09</ele>
  <time>2026-08-28T19:12:59Z</time>
  <course>315.0</course>
  <speed>0.0</speed>
  <fix>3d</fix>
</trkpt>
<trkpt lat="40.0728419" lon="-105.2305749">
  <ele>1586.17</ele>
  <time>2026-08-28T19:12:59Z</time>
  <course>11.3</course>
  <speed>0.022360679774997897</speed>
  <fix>3d</fix>
</trkpt>
<trkpt lat="40.072842" lon="-105.230575">
  <ele>1586.09</ele>
  <time>2026-08-28T19:12:59Z</time>
  <course>315.0</course>
  <speed>0.0</speed>
  <fix>3d</fix>
</trkpt>
<trkpt lat="40.0728419" lon="-105.2305749">
  <ele>1586.18</ele>
  <time>2026-08-28T19:12:59Z</time>
  <course>11.3</course>
  <speed>0.022360679774997897</speed>
  <fix>3d</fix>
</trkpt>
<trkpt lat="40.072842" lon="-105.230575">
  <ele>1586.09</ele>
  <time>2026-08-28T19:12:59Z</time>
  <course>135.0</course>
  <speed>0.0</speed>
  <fix>3d</fix>
</trkpt>
<trkpt lat="40.0728419" lon="-105.2305749">
  <ele>1586.18</ele>
  <time>2026-08-28T19:12:59Z</time>
  <course>11.3</course>
  <speed>0.022360679774997897</speed>
  <fix>3d</fix>
</trkpt>
<trkpt lat="40.072842" lon="-105.230575">
  <ele>1586.09</ele>
  <time>2026-08-28T19:12:59Z</time>
  <course>135.01</course>
  <speed>0.0</speed>
  <fix>3d</fix>
</trkpt>
<trkpt lat="40.0728419" lon="-105.2305749">
  <ele>1586.18</ele>
  <time>2026-08-28T19:12:59Z</time>
  <course>11.3</course>
  <speed>0.022360679774997897</speed>
  <fix>3d</fix>
</trkpt>
<trkpt lat="40.072842" lon="-105.230575">
  <ele>1586.09</ele>
  <time>2026-08-28T19:12:59Z</time>
  <course>314.93</course>
  <speed>0.0</speed>
  <fix>3d</fix>
</trkpt>
<trkpt lat="40.0728419" lon="-105.2305749">
  <ele>1586.18</ele>
  <time>2026-08-28T19:12:59Z</time>
  <course>11.3</course>
  <speed>0.022360679774997897</speed>
  <fix>3d</fix>
</trkpt>
<trkpt lat="40.072842" lon="-105.230575">
  <ele>1586.09</ele>
  <time>2026-08-28T19:12:59Z</time>
  <course>135.02</course>
  <speed>0.0</speed>
  <fix>3d</fix>
</trkpt>
<trkpt lat="40.0728419" lon="-105.2305749">
  <ele>1586.18</ele>
  <time>2026-08-28T19:12:59Z</time>
  <course>11.3</course>
  <speed>0.022360679774997897</speed>
  <fix>3d</fix>
</trkpt>
<trkpt lat="40.072842" lon="-105.230575">
  <ele>1586.09</ele>
  <time>2026-08-28T19:12:59Z</time>
  <course>135.02</course>
  <speed>0.0</speed>
  <fix>3d</fix>
</trkpt>
<trkpt lat="40.0728419" lon="-105.2305749">
  <ele>1586.18</ele>
  <time>2026-08-28T19:12:59Z</time>
  <course>11.29</course>
  <speed>0.022360679774997897</speed>
  <fix>3d</fix>
</trkpt>
<trkpt lat="40.072842" lon="-105.230575">
  <ele>1586.09</ele>
  <time>2026-08-28T19:12:59Z</time>
  <course>135.02</course>
  <speed>0.0</speed>
  <fix>3d</fix>
</trkpt>
<trkpt lat="40.0728419" lon="-105.2305749">
  <ele>1586.18</ele>
  <time>2026-08-28T19:12:59Z</time>
  <course>11.29</course>
  <speed>0.022360679774997897</speed>
  <fix>3d</fix>
</trkpt>
<trkpt lat="40.072842" lon="-105.230575">
  <ele>1586.09</ele>
  <time>2026-08-28T19:12:59Z</time>
  <course>135.02</course>
  <speed>0.0</speed>
  <fix>3d</fix>
</trkpt>
<trkpt lat="40.0728419" lon="-105.2305749">
  <ele>1586.19</ele>
  <time>2026-08-28T19:12:59Z</time>
  <course>11.29</course>
  <speed>0.022360679774997897</speed>
  <fix>3d</fix>
</trkpt>
<trkpt lat="40.072842" lon="-105.230575">
  <ele>1586.09</ele>
  <time>2026-08-28T19:12:59Z</time>
  <course>135.02</course>
  <speed>0.0</speed>
  <fix>3d</fix>
</trkpt>
<trkpt lat="40.0728419" lon="-105.2305749">
  <ele>1586.19</ele>
  <time>2026-08-28T19:12:59Z</time>
  <course>11.29</course>
  <speed>0.022360679774997897</speed>
  <fix>3d</fix>
</trkpt>
<trkpt lat="40.072842" lon="-105.230575">
  <ele>1586.09</ele>
  <time>2026-08-28T19:12:59Z</time>
  <course>135.02</course>
  <speed>0.0</speed>
  <fix>3d</fix>
</trkpt>
<trkpt lat="40.0728419" lon="-105.2305749">
  <ele>1586.19</ele>
  <time>2026-08-28T19:13:00Z</time>
  <course>11.29</course>
  <speed>0.022360679774997897</speed>
  <fix>3d</fix>
</trkpt>
<trkpt lat="40.072842" lon="-105.230575">
  <ele>1586.09</ele>
  <time>2026-08-28T19:13:00Z</time>
  <course>135.02</course>
  <speed>0.0</speed>
  <fix>3d</fix>
</trkpt>
<trkpt lat="40.0728419" lon="-105.2305749">
  <ele>1586.19</ele>
  <time>2026-08-28T19:13:00Z</time>
  <course>11.28</course>
  <speed>0.022360679774997897</speed>
  <fix>3d</fix>
</trkpt>
<trkpt lat="40.072842" lon="-105.230575">
  <ele>1586.09</ele>
  <time>2026-08-28T19:13:00Z</time>
  <course>135.02</course>
  <speed>0.0</speed>
  <fix>3d</fix>
</trkpt>
<trkpt lat="40.0728419" lon="-105.2305749">
  <ele>1586.19</ele>
  <time>2026-08-28T19:13:00Z</time>
  <course>11.28</course>
  <speed>0.022360679774997897</speed>
  <fix>3d</fix>
</trkpt>
<trkpt lat="40.072842" lon="-105.230575">
  <ele>1586.09</ele>
  <time>2026-08-28T19:13:00Z</time>
  <course>135.02</course>
  <speed>0.0</speed>
  <fix>3d</fix>
</trkpt>
<trkpt lat="40.0728419" lon="-105.2305749">
  <ele>1586.19</ele>
  <time>2026-08-28T19:13:00Z</time>
  <course>11.28</course>
  <speed>0.022360679774997897</speed>
  <fix>3d</fix>
</trkpt>
<trkpt lat="40.072842" lon="-105.230575">
  <ele>1586.09</ele>
  <time>2026-08-28T19:13:00Z</time>
  <course>135.02</course>
  <speed>0.0</speed>
  <fix>3d</fix>
</trkpt>
<trkpt lat="40.0728419" lon="-105.2305749">
  <ele>1586.18</ele>
  <time>2026-08-28T19:13:00Z</time>
  <course>11.28</course>
  <speed>0.022360679774997897</speed>
  <fix>3d</fix>
</trkpt>
<trkpt lat="40.072842" lon="-105.230575">
  <ele>1586.09</ele>
  <time>2026-08-28T19:13:00Z</time>
  <course>135.02</course>
  <speed>0.0</speed>
  <fix>3d</fix>
</trkpt>
<trkpt lat="40.0728419" lon="-105.2305749">
  <ele>1586.18</ele>
  <time>2026-08-28T19:13:00Z</time>
  <course>11.28</course>
  <speed>0.022360679774997897</speed>
  <fix>3d</fix>
</trkpt>
<trkpt lat="40.072842" lon="-105.230575">
  <ele>1586.09</ele>
  <time>2026-08-28T19:13:00Z</time>
  <course>135.02</course>
  <speed>0.0</speed>
  <fix>3d</fix>
</trkpt>
<trkpt lat="40.0728419" lon="-105.2305749">
  <ele>1586.18</ele>
  <time>2026-08-28T19:13:00Z</time>
  <course>11.27</course>
  <speed>0.022360679774997897</speed>
  <fix>3d</fix>
</trkpt>
<trkpt lat="40.072842" lon="-105.230575">
  <ele>1586.09</ele>
  <time>2026-08-28T19:13:00Z</time>
  <course>135.02</course>
  <speed>0.0</speed>
  <fix>3d</fix>
</trkpt>
<trkpt lat="40.0728419" lon="-105.2305749">
  <ele>1586.18</ele>
  <time>2026-08-28T19:13:00Z</time>
  <course>11.27</course>
  <speed>0.022360679774997897</speed>
  <fix>3d</fix>
</trkpt>
<trkpt lat="40.072842" lon="-105.230575">
  <ele>1586.09</ele>
  <time>2026-08-28T19:13:00Z</time>
  <course>135.02</course>
  <speed>0.0</speed>
  <fix>3d</fix>
</trkpt>
<trkpt lat="40.0728419" lon="-105.2305749">
  <ele>1586.18</ele>
  <time>2026-08-28T19:13:00Z</time>
  <course>11.27</course>
  <speed>0.01414213562373095</speed>
  <fix>3d</fix>
</trkpt>
<trkpt lat="40.072842" lon="-105.230575">
  <ele>1586.09</ele>
  <time>2026-08-28T19:13:00Z</time>
  <course>135.02</course>
  <speed>0.0</speed>
  <fix>3d</fix>
</trkpt>
<trkpt lat="40.0728419" lon="-105.2305749">
  <ele>1586.18</ele>
  <time>2026-08-28T19:13:00Z</time>
  <course>11.27</course>
  <speed>0.01414213562373095</speed>
  <fix>3d</fix>
</trkpt>
<trkpt lat="40.072842" lon="-105.230575">
  <ele>1586.09</ele>
  <time>2026-08-28T19:13:00Z</time>
  <course>135.02</course>
  <speed>0.0</speed>
  <fix>3d</fix>
</trkpt>
<trkpt lat="40.0728419" lon="-105.2305749">
  <ele>1586.18</ele>
  <time>2026-08-28T19:13:00Z</time>
  <course>11.26</course>
  <speed>0.01414213562373095</speed>
  <fix>3d</fix>
</trkpt>
<trkpt lat="40.072842" lon="-105.230575">
  <ele>1586.09</ele>
  <time>2026-08-28T19:13:00Z</time>
  <course>135.02</course>
  <speed>0.0</speed>
  <fix>3d</fix>
</trkpt>
<trkpt lat="40.0728419" lon="-105.2305749">
  <ele>1586.18</ele>
  <time>2026-08-28T19:13:00Z</time>
  <course>11.26</course>
  <speed>0.01414213562373095</speed>
  <fix>3d</fix>
</trkpt>
<trkpt lat="40.072842" lon="-105.230575">
  <ele>1586.09</ele>
  <time>2026-08-28T19:13:00Z</time>
  <course>135.02</course>
  <speed>0.0</speed>
  <fix>3d</fix>
</trkpt>
<trkpt lat="40.0728419" lon="-105.2305749">
  <ele>1586.18</ele>
  <time>2026-08-28T19:13:00Z</time>
  <course>11.26</course>
  <speed>0.01414213562373095</speed>
  <fix>3d</fix>
</trkpt>
<trkpt lat="40.072842" lon="-105.230575">
  <ele>1586.09</ele>
  <time>2026-08-28T19:13:00Z</time>
  <course>135.02</course>
  <speed>0.0</speed>
  <fix>3d</fix>
</trkpt>
<trkpt lat="40.0728419" lon="-105.2305749">
  <ele>1586.19</ele>
  <time>2026-08-28T19:13:00Z</time>
  <course>11.26</course>
  <speed>0.01414213562373095</speed>
  <fix>3d</fix>
</trkpt>
<trkpt lat="40.072842" lon="-105.230575">
  <ele>1586.09</ele>
  <time>2026-08-28T19:13:00Z</time>
  <course>135.02</course>
  <speed>0.0</speed>
  <fix>3d</fix>
</trkpt>
<trkpt lat="40.0728419" lon="-105.2305749">
  <ele>1586.19</ele>
  <time>2026-08-28T19:13:00Z</time>
  <course>11.25</course>
  <speed>0.01414213562373095</speed>
  <fix>3d</fix>
</trkpt>
<trkpt lat="40.072842" lon="-105.230575">
  <ele>1586.09</ele>
  <time>2026-08-28T19:13:00Z</time>
  <course>135.02</course>
  <speed>0.0</speed>
  <fix>3d</fix>
</trkpt>
<trkpt lat="40.0728419" lon="-105.2305749">
  <ele>1586.19</ele>
  <time>2026-08-28T19:13:00Z</time>
  <course>11.25</course>
  <speed>0.01414213562373095</speed>
  <fix>3d</fix>
</trkpt>
<trkpt lat="40.072842" lon="-105.230575">
  <ele>1586.09</ele>
  <time>2026-08-28T19:13:00Z</time>
  <course>135.02</course>
  <speed>0.0</speed>
  <fix>3d</fix>
</trkpt>
<trkpt lat="40.0728419" lon="-105.2305749">
  <ele>1586.19</ele>
  <time>2026-08-28T19:13:00Z</time>
  <course>11.25</course>
  <speed>0.01414213562373095</speed>
  <fix>3d</fix>
</trkpt>
<trkpt lat="40.072842" lon="-105.230575">
  <ele>1586.09</ele>
  <time>2026-08-28T19:13:00Z</time>
  <course>135.02</course>
  <speed>0.0</speed>
  <fix>3d</fix>
</trkpt>
<trkpt lat="40.0728419" lon="-105.2305749">
  <ele>1586.19</ele>
  <time>2026-08-28T19:13:00Z</time>
  <course>11.25</course>
  <speed>0.01414213562373095</speed>
  <fix>3d</fix>
</trkpt>
<trkpt lat="40.072842" lon="-105.230575">
  <ele>1586.09</ele>
  <time>2026-08-28T19:13:00Z</time>
  <course>135.02</course>
  <speed>0.0</speed>
  <fix>3d</fix>
</trkpt>
<trkpt lat="40.0728419" lon="-105.2305749">
  <ele>1586.19</ele>
  <time>2026-08-28T19:13:00Z</time>
  <course>11.25</course>
  <speed>0.01414213562373095</speed>
  <fix>3d</fix>
</trkpt>
<trkpt lat="40.072842" lon="-105.230575">
  <ele>1586.09</ele>
  <time>2026-08-28T19:13:00Z</time>
  <course>135.02</course>
  <speed>0.0</speed>
  <fix>3d</fix>
</trkpt>
<trkpt lat="40.0728419" lon="-105.2305749">
  <ele>1586.19</ele>
  <time>2026-08-28T19:13:00Z</time>
  <course>11.24</course>
  <speed>0.01414213562373095</speed>
  <fix>3d</fix>
</trkpt>
<trkpt lat="40.072842" lon="-105.230575">
  <ele>1586.09</ele>
  <time>2026-08-28T19:13:00Z</time>
  <course>135.02</course>
  <speed>0.0</speed>
  <fix>3d</fix>
</trkpt>
<trkpt lat="40.0728419" lon="-105.2305749">
  <ele>1586.19</ele>
  <time>2026-08-28T19:13:00Z</time>
  <course>11.24</course>
  <speed>0.01414213562373095</speed>
  <fix>3d</fix>
</trkpt>
<trkpt lat="40.072842" lon="-105.230575">
  <ele>1586.09</ele>
  <time>2026-08-28T19:13:00Z</time>
  <course>135.02</course>
  <speed>0.0</speed>
  <fix>3d</fix>
</trkpt>
<trkpt lat="40.0728419" lon="-105.2305749">
  <ele>1586.19</ele>
  <time>2026-08-28T19:13:00Z</time>
  <course>11.24</course>
  <speed>0.01414213562373095</speed>
  <fix>3d</fix>
</trkpt>
<trkpt lat="40.072842" lon="-105.230575">
  <ele>1586.09</ele>
  <time>2026-08-28T19:13:00Z</time>
  <course>135.02</course>
  <speed>0.0</speed>
  <fix>3d</fix>
</trkpt>
<trkpt lat="40.0728419" lon="-105.2305749">
  <ele>1586.19</ele>
  <time>2026-08-28T19:13:00Z</time>
  <course>11.24</course>
  <speed>0.01414213562373095</speed>
  <fix>3d</fix>
</trkpt>
<trkpt lat="40.072842" lon="-105.230575">
  <ele>1586.09</ele>
  <time>2026-08-28T19:13:00Z</time>
  <course>135.02</course>
  <speed>0.0</speed>
  <fix>3d</fix>
</trkpt>
<trkpt lat="40.0728419" lon="-105.2305749">
  <ele>1586.19</ele>
  <time>2026-08-28T19:13:00Z</time>
  <course>11.23</course>
  <speed>0.01414213562373095</speed>
  <fix>3d</fix>
</trkpt>
<trkpt lat="40.072842" lon="-105.230575">
  <ele>1586.09</ele>
  <time>2026-08-28T19:13:00Z</time>
  <course>135.02</course>
  <speed>0.0</speed>
  <fix>3d</fix>
</trkpt>
<trkpt lat="40.0728419" lon="-105.2305749">
  <ele>1586.18</ele>
  <time>2026-08-28T19:13:00Z</time>
  <course>11.23</course>
  <speed>0.01414213562373095</speed>
  <fix>3d</fix>
</trkpt>
<trkpt lat="40.072842" lon="-105.230575">
  <ele>1586.09</ele>
  <time>2026-08-28T19:13:00Z</time>
  <course>135.02</course>
  <speed>0.0</speed>
  <fix>3d</fix>
</trkpt>
<trkpt lat="40.0728419" lon="-105.2305749">
  <ele>1586.18</ele>
  <time>2026-08-28T19:13:00Z</time>
  <course>11.23</course>
  <speed>0.01414213562373095</speed>
  <fix>3d</fix>
</trkpt>
<trkpt lat="40.072842" lon="-105.230575">
  <ele>1586.09</ele>
  <time>2026-08-28T19:13:00Z</time>
  <course>135.02</course>
  <speed>0.0</speed>
  <fix>3d</fix>
</trkpt>
<trkpt lat="40.0728419" lon="-105.2305749">
  <ele>1586.18</ele>
  <time>2026-08-28T19:13:00Z</time>
  <course>11.23</course>
  <speed>0.01414213562373095</speed>
  <fix>3d</fix>
</trkpt>
<trkpt lat="40.072842" lon="-105.230575">
  <ele>1586.09</ele>
  <time>2026-08-28T19:13:00Z</time>
  <course>135.02</course>
  <speed>0.0</speed>
  <fix>3d</fix>
</trkpt>
<trkpt lat="40.0728419" lon="-105.2305749">
  <ele>1586.18</ele>
  <time>2026-08-28T19:13:00Z</time>
  <course>11.22</course>
  <speed>0.01414213562373095</speed>
  <fix>3d</fix>
</trkpt>
<trkpt lat="40.072842" lon="-105.230575">
  <ele>1586.09</ele>
  <time>2026-08-28T19:13:00Z</time>
  <course>135.02</course>
  <speed>0.0</speed>
  <fix>3d</fix>
</trkpt>
<trkpt lat="40.0728419" lon="-105.2305749">
  <ele>1586.18</ele>
  <time>2026-08-28T19:13:00Z</time>
  <course>11.22</course>
  <speed>0.01414213562373095</speed>
  <fix>3d</fix>
</trkpt>
<trkpt lat="40.072842" lon="-105.230575">
  <ele>1586.09</ele>
  <time>2026-08-28T19:13:00Z</time>
  <course>135.02</course>
  <speed>0.0</speed>
  <fix>3d</fix>
</trkpt>
<trkpt lat="40.0728419" lon="-105.2305749">
  <ele>1586.18</ele>
  <time>2026-08-28T19:13:00Z</time>
  <course>11.22</course>
  <speed>0.01414213562373095</speed>
  <fix>3d</fix>
</trkpt>
<trkpt lat="40.072842" lon="-105.230575">
  <ele>1586.09</ele>
  <time>2026-08-28T19:13:00Z</time>
  <course>135.02</course>
  <speed>0.0</speed>
  <fix>3d</fix>
</trkpt>
<trkpt lat="40.0728419" lon="-105.2305749">
  <ele>1586.18</ele>
  <time>2026-08-28T19:13:00Z</time>
  <course>11.22</course>
  <speed>0.01414213562373095</speed>
  <fix>3d</fix>
</trkpt>
<trkpt lat="40.072842" lon="-105.230575">
  <ele>1586.09</ele>
  <time>2026-08-28T19:13:00Z</time>
  <course>135.02</course>
  <speed>0.0</speed>
  <fix>3d</fix>
</trkpt>
<trkpt lat="40.0728419" lon="-105.2305749">
  <ele>1586.18</ele>
  <time>2026-08-28T19:13:00Z</time>
  <course>11.22</course>
  <speed>0.01414213562373095</speed>
  <fix>3d</fix>
</trkpt>
<trkpt lat="40.072842" lon="-105.230575">
  <ele>1586.09</ele>
  <time>2026-08-28T19:13:00Z</time>
  <course>135.02</course>
  <speed>0.0</speed>
  <fix>3d</fix>
</trkpt>
<trkpt lat="40.0728419" lon="-105.2305749">
  <ele>1586.17</ele>
  <time>2026-08-28T19:13:00Z</time>
  <course>11.21</course>
  <speed>0.01414213562373095</speed>
  <fix>3d</fix>
</trkpt>
<trkpt lat="40.072842" lon="-105.230575">
  <ele>1586.09</ele>
  <time>2026-08-28T19:13:00Z</time>
  <course>135.02</course>
  <speed>0.0</speed>
  <fix>3d</fix>
</trkpt>
<trkpt lat="40.0728419" lon="-105.2305749">
  <ele>1586.17</ele>
  <time>2026-08-28T19:13:00Z</time>
  <course>11.21</course>
  <speed>0.01414213562373095</speed>
  <fix>3d</fix>
</trkpt>
<trkpt lat="40.072842" lon="-105.230575">
  <ele>1586.09</ele>
  <time>2026-08-28T19:13:00Z</time>
  <course>135.02</course>
  <speed>0.0</speed>
  <fix>3d</fix>
</trkpt>
<trkpt lat="40.0728419" lon="-105.2305749">
  <ele>1586.17</ele>
  <time>2026-08-28T19:13:00Z</time>
  <course>11.21</course>
  <speed>0.01414213562373095</speed>
  <fix>3d</fix>
</trkpt>
<trkpt lat="40.072842" lon="-105.230575">
  <ele>1586.09</ele>
  <time>2026-08-28T19:13:00Z</time>
  <course>135.02</course>
  <speed>0.0</speed>
  <fix>3d</fix>
</trkpt>
<trkpt lat="40.0728419" lon="-105.2305749">
  <ele>1586.17</ele>
  <time>2026-08-28T19:13:00Z</time>
  <course>11.21</course>
  <speed>0.01414213562373095</speed>
  <fix>3d</fix>
</trkpt>
<trkpt lat="40.072842" lon="-105.230575">
  <ele>1586.09</ele>
  <time>2026-08-28T19:13:00Z</time>
  <course>135.02</course>
  <speed>0.0</speed>
  <fix>3d</fix>
</trkpt>
<trkpt lat="40.0728419" lon="-105.2305749">
  <ele>1586.17</ele>
  <time>2026-08-28T19:13:00Z</time>
  <course>11.21</course>
  <speed>0.01414213562373095</speed>
  <fix>3d</fix>
</trkpt>
<trkpt lat="40.072842" lon="-105.230575">
  <ele>1586.09</ele>
  <time>2026-08-28T19:13:00Z</time>
  <course>135.02</course>
  <speed>0.0</speed>
  <fix>3d</fix>
</trkpt>
<trkpt lat="40.0728419" lon="-105.2305749">
  <ele>1586.17</ele>
  <time>2026-08-28T19:13:00Z</time>
  <course>11.2</course>
  <speed>0.01414213562373095</speed>
  <fix>3d</fix>
</trkpt>
<trkpt lat="40.072842" lon="-105.230575">
  <ele>1586.09</ele>
  <time>2026-08-28T19:13:00Z</time>
  <course>135.02</course>
  <speed>0.0</speed>
  <fix>3d</fix>
</trkpt>
<trkpt lat="40.0728419" lon="-105.2305749">
  <ele>1586.17</ele>
  <time>2026-08-28T19:13:00Z</time>
  <course>11.2</course>
  <speed>0.01414213562373095</speed>
  <fix>3d</fix>
</trkpt>
<trkpt lat="40.0728419" lon="-105.2305749">
  <ele>1586.17</ele>
  <time>2026-08-28T19:13:00Z</time>
  <course>11.2</course>
  <speed>0.01414213562373095</speed>
  <fix>3d</fix>
</trkpt>
<trkpt lat="40.072842" lon="-105.230575">
  <ele>1586.09</ele>
  <time>2026-08-28T19:13:00Z</time>
  <course>135.01</course>
  <speed>0.0</speed>
  <fix>3d</fix>
</trkpt>
<trkpt lat="40.0728419" lon="-105.2305749">
  <ele>1586.17</ele>
  <time>2026-08-28T19:13:00Z</time>
  <course>11.2</course>
  <speed>0.01414213562373095</speed>
  <fix>3d</fix>
</trkpt>
<trkpt lat="40.0728419" lon="-105.2305749">
  <ele>1586.17</ele>
  <time>2026-08-28T19:13:00Z</time>
  <course>11.2</course>
  <speed>0.01414213562373095</speed>
  <fix>3d</fix>
</trkpt>
<trkpt lat="40.072842" lon="-105.230575">
  <ele>1586.09</ele>
  <time>2026-08-28T19:13:00Z</time>
  <course>313.38</course>
  <speed>0.0</speed>
  <fix>3d</fix>
</trkpt>
<trkpt lat="40.0728419" lon="-105.2305749">
  <ele>1586.17</ele>
  <time>2026-08-28T19:13:00Z</time>
  <course>11.2</course>
  <speed>0.01414213562373095</speed>
  <fix>3d</fix>
</trkpt>
<trkpt lat="40.0728419" lon="-105.2305749">
  <ele>1586.17</ele>
  <time>2026-08-28T19:13:00Z</time>
  <course>11.2</course>
  <speed>0.01414213562373095</speed>
  <fix>3d</fix>
</trkpt>
<trkpt lat="40.072842" lon="-105.230575">
  <ele>1586.09</ele>
  <time>2026-08-28T19:13:00Z</time>
  <course>308.48</course>
  <speed>0.0</speed>
  <fix>3d</fix>
</trkpt>
<trkpt lat="40.0728419" lon="-105.2305749">
  <ele>1586.17</ele>
  <time>2026-08-28T19:13:00Z</time>
  <course>11.2</course>
  <speed>0.01414213562373095</speed>
  <fix>3d</fix>
</trkpt>
<trkpt lat="40.0728419" lon="-105.2305749">
  <ele>1586.18</ele>
  <time>2026-08-28T19:13:00Z</time>
  <course>11.19</course>
  <speed>0.01414213562373095</speed>
  <fix>3d</fix>
</trkpt>
<trkpt lat="40.072842" lon="-105.230575">
  <ele>1586.09</ele>
  <time>2026-08-28T19:13:00Z</time>
  <course>319.27</course>
  <speed>0.0</speed>
  <fix>3d</fix>
</trkpt>
<trkpt lat="40.0728419" lon="-105.2305749">
  <ele>1586.19</ele>
  <time>2026-08-28T19:13:00Z</time>
  <course>11.19</course>
  <speed>0.01414213562373095</speed>
  <fix>3d</fix>
</trkpt>
<trkpt lat="40.0728419" lon="-105.2305749">
  <ele>1586.23</ele>
  <time>2026-08-28T19:13:00Z</time>
  <course>11.19</course>
  <speed>0.01414213562373095</speed>
  <fix>3d</fix>
</trkpt>
<trkpt lat="40.072842" lon="-105.230575">
  <ele>1586.11</ele>
  <time>2026-08-28T19:13:00Z</time>
  <course>347.64</course>
  <speed>0.0</speed>
  <fix>3d</fix>
</trkpt>
<trkpt lat="40.0728419" lon="-105.2305749">
  <ele>1586.24</ele>
  <time>2026-08-28T19:13:00Z</time>
  <course>11.19</course>
  <speed>0.01414213562373095</speed>
  <fix>3d</fix>
</trkpt>
<trkpt lat="40.0728419" lon="-105.2305749">
  <ele>1586.3</ele>
  <time>2026-08-28T19:13:00Z</time>
  <course>11.19</course>
  <speed>0.01414213562373095</speed>
  <fix>3d</fix>
</trkpt>
<trkpt lat="40.072842" lon="-105.230575">
  <ele>1586.16</ele>
  <time>2026-08-28T19:13:00Z</time>
  <course>133.13</course>
  <speed>0.0</speed>
  <fix>3d</fix>
</trkpt>
<trkpt lat="40.0728419" lon="-105.2305749">
  <ele>1586.31</ele>
  <time>2026-08-28T19:13:00Z</time>
  <course>11.2</course>
  <speed>0.01414213562373095</speed>
  <fix>3d</fix>
</trkpt>
<trkpt lat="40.0728419" lon="-105.2305749">
  <ele>1586.45</ele>
  <time>2026-08-28T19:13:00Z</time>
  <course>11.24</course>
  <speed>0.01414213562373095</speed>
  <fix>3d</fix>
</trkpt>
<trkpt lat="40.072842" lon="-105.230575">
  <ele>1586.25</ele>
  <time>2026-08-28T19:13:00Z</time>
  <course>316.19</course>
  <speed>0.0</speed>
  <fix>3d</fix>
</trkpt>
<trkpt lat="40.0728419" lon="-105.2305749">
  <ele>1586.48</ele>
  <time>2026-08-28T19:13:00Z</time>
  <course>11.25</course>
  <speed>0.01414213562373095</speed>
  <fix>3d</fix>
</trkpt>
<trkpt lat="40.0728419" lon="-105.2305749">
  <ele>1586.6</ele>
  <time>2026-08-28T19:13:00Z</time>
  <course>11.31</course>
  <speed>0.01</speed>
  <fix>3d</fix>
</trkpt>
<trkpt lat="40.072842" lon="-105.230575">
  <ele>1586.39</ele>
  <time>2026-08-28T19:13:00Z</time>
  <course>314.95</course>
  <speed>0.0</speed>
  <fix>3d</fix>
</trkpt>
<trkpt lat="40.0728419" lon="-105.2305749">
  <ele>1586.6</ele>
  <time>2026-08-28T19:13:00Z</time>
  <course>11.31</course>
  <speed>0.01</speed>
  <fix>3d</fix>
</trkpt>
<trkpt lat="40.0728419" lon="-105.2305749">
  <ele>1586.69</ele>
  <time>2026-08-28T19:13:00Z</time>
  <course>11.36</course>
  <speed>0.0</speed>
  <fix>3d</fix>
</trkpt>
<trkpt lat="40.072842" lon="-105.230575">
  <ele>1586.53</ele>
  <time>2026-08-28T19:13:00Z</time>
  <course>314.19</course>
  <speed>0.01</speed>
  <fix>3d</fix>
</trkpt>
<trkpt lat="40.0728419" lon="-105.2305749">
  <ele>1586.71</ele>
  <time>2026-08-28T19:13:00Z</time>
  <course>11.37</course>
  <speed>0.0</speed>
  <fix>3d</fix>
</trkpt>
<trkpt lat="40.0728419" lon="-105.2305749">
  <ele>1586.78</ele>
  <time>2026-08-28T19:13:00Z</time>
  <course>11.4</course>
  <speed>0.0</speed>
  <fix>3d</fix>
</trkpt>
<trkpt lat="40.072842" lon="-105.230575">
  <ele>1586.63</ele>
  <time>2026-08-28T19:13:00Z</time>
  <course>313.48</course>
  <speed>0.01</speed>
  <fix>3d</fix>
</trkpt>
<trkpt lat="40.0728419" lon="-105.2305749">
  <ele>1586.8</ele>
  <time>2026-08-28T19:13:00Z</time>
  <course>11.4</course>
  <speed>0.0</speed>
  <fix>3d</fix>
</trkpt>
<trkpt lat="40.0728419" lon="-105.2305749">
  <ele>1586.89</ele>
  <time>2026-08-28T19:13:00Z</time>
  <course>11.41</course>
  <speed>0.0</speed>
  <fix>3d</fix>
</trkpt>
<trkpt lat="40.072842" lon="-105.230575">
  <ele>1586.72</ele>
  <time>2026-08-28T19:13:00Z</time>
  <course>312.95</course>
  <speed>0.02</speed>
  <fix>3d</fix>
</trkpt>
<trkpt lat="40.0728419" lon="-105.2305749">
  <ele>1586.9</ele>
  <time>2026-08-28T19:13:00Z</time>
  <course>11.41</course>
  <speed>0.0</speed>
  <fix>3d</fix>
</trkpt>
<trkpt lat="40.0728419" lon="-105.230575">
  <ele>1586.99</ele>
  <time>2026-08-28T19:13:00Z</time>
  <course>11.4</course>
  <speed>0.0</speed>
  <fix>3d</fix>
</trkpt>
<trkpt lat="40.072842" lon="-105.2305751">
  <ele>1586.82</ele>
  <time>2026-08-28T19:13:00Z</time>
  <course>312.96</course>
  <speed>0.02</speed>
  <fix>3d</fix>
</trkpt>
<trkpt lat="40.0728419" lon="-105.230575">
  <ele>1587.01</ele>
  <time>2026-08-28T19:13:00Z</time>
  <course>11.4</course>
  <speed>0.0</speed>
  <fix>3d</fix>
</trkpt>
<trkpt lat="40.072842" lon="-105.230575">
  <ele>1587.1</ele>
  <time>2026-08-28T19:13:00Z</time>
  <course>11.39</course>
  <speed>0.0</speed>
  <fix>3d</fix>
</trkpt>
<trkpt lat="40.072842" lon="-105.2305751">
  <ele>1586.91</ele>
  <time>2026-08-28T19:13:00Z</time>
  <course>312.86</course>
  <speed>0.03</speed>
  <fix>3d</fix>
</trkpt>
<trkpt lat="40.072842" lon="-105.230575">
  <ele>1587.1</ele>
  <time>2026-08-28T19:13:00Z</time>
  <course>11.39</course>
  <speed>0.0</speed>
  <fix>3d</fix>
</trkpt>
<trkpt lat="40.072842" lon="-105.2305751">
  <ele>1587.21</ele>
  <time>2026-08-28T19:13:00Z</time>
  <course>11.38</course>
  <speed>0.01414213562373095</speed>
  <fix>3d</fix>
</trkpt>
<trkpt lat="40.072842" lon="-105.2305751">
  <ele>1587.02</ele>
  <time>2026-08-28T19:13:00Z</time>
  <course>312.67</course>
  <speed>0.03</speed>
  <fix>3d</fix>
</trkpt>
<trkpt lat="40.072842" lon="-105.2305751">
  <ele>1587.23</ele>
  <time>2026-08-28T19:13:00Z</time>
  <course>11.38</course>
  <speed>0.01414213562373095</speed>
  <fix>3d</fix>
</trkpt>
<trkpt lat="40.072842" lon="-105.2305751">
  <ele>1587.34</ele>
  <time>2026-08-28T19:13:00Z</time>
  <course>11.38</course>
  <speed>0.01414213562373095</speed>
  <fix>3d</fix>
</trkpt>
<trkpt lat="40.0728421" lon="-105.2305752">
  <ele>1587.13</ele>
  <time>2026-08-28T19:13:00Z</time>
  <course>312.17</course>
  <speed>0.04</speed>
  <fix>3d</fix>
</trkpt>
<trkpt lat="40.072842" lon="-105.2305751">
  <ele>1587.35</ele>
  <time>2026-08-28T19:13:00Z</time>
  <course>11.38</course>
  <speed>0.01414213562373095</speed>
  <fix>3d</fix>
</trkpt>
<trkpt lat="40.0728421" lon="-105.2305752">
  <ele>1587.46</ele>
  <time>2026-08-28T19:13:00Z</time>
  <course>11.38</course>
  <speed>0.01414213562373095</speed>
  <fix>3d</fix>
</trkpt>
<trkpt lat="40.0728422" lon="-105.2305753">
  <ele>1587.26</ele>
  <time>2026-08-28T19:13:00Z</time>
  <course>311.71</course>
  <speed>0.04</speed>
  <fix>3d</fix>
</trkpt>
<trkpt lat="40.0728421" lon="-105.2305752">
  <ele>1587.48</ele>
  <time>2026-08-28T19:13:00Z</time>
  <course>11.38</course>
  <speed>0.01414213562373095</speed>
  <fix>3d</fix>
</trkpt>
<trkpt lat="40.0728421" lon="-105.2305753">
  <ele>1587.58</ele>
  <time>2026-08-28T19:13:00Z</time>
  <course>11.38</course>
  <speed>0.01414213562373095</speed>
  <fix>3d</fix>
</trkpt>
<trkpt lat="40.0728423" lon="-105.2305754">
  <ele>1587.37</ele>
  <time>2026-08-28T19:13:00Z</time>
  <course>311.83</course>
  <speed>0.04</speed>
  <fix>3d</fix>
</trkpt>
<trkpt lat="40.0728421" lon="-105.2305753">
  <ele>1587.59</ele>
  <time>2026-08-28T19:13:00Z</time>
  <course>11.38</course>
  <speed>0.01414213562373095</speed>
  <fix>3d</fix>
</trkpt>
<trkpt lat="40.0728422" lon="-105.2305754">
  <ele>1587.7</ele>
  <time>2026-08-28T19:13:00Z</time>
  <course>11.38</course>
  <speed>0.022360679774997897</speed>
  <fix>3d</fix>
</trkpt>
<trkpt lat="40.0728423" lon="-105.2305755">
  <ele>1587.5</ele>
  <time>2026-08-28T19:13:00Z</time>
  <course>311.93</course>
  <speed>0.05</speed>
  <fix>3d</fix>
</trkpt>
<trkpt lat="40.0728422" lon="-105.2305754">
  <ele>1587.72</ele>
  <time>2026-08-28T19:13:00Z</time>
  <course>11.38</course>
  <speed>0.022360679774997897</speed>
  <fix>3d</fix>
</trkpt>
<trkpt lat="40.0728423" lon="-105.2305755">
  <ele>1587.82</ele>
  <time>2026-08-28T19:13:00Z</time>
  <course>11.38</course>
  <speed>0.022360679774997897</speed>
  <fix>3d</fix>
</trkpt>
<trkpt lat="40.0728424" lon="-105.2305755">
  <ele>1587.62</ele>
  <time>2026-08-28T19:13:00Z</time>
  <course>311.96</course>
  <speed>0.05</speed>
  <fix>3d</fix>
</trkpt>
<trkpt lat="40.0728423" lon="-105.2305755">
  <ele>1587.82</ele>
  <time>2026-08-28T19:13:00Z</time>
  <course>11.38</course>
  <speed>0.022360679774997897</speed>
  <fix>3d</fix>
</trkpt>
<trkpt lat="40.0728423" lon="-105.2305755">
  <ele>1587.94</ele>
  <time>2026-08-28T19:13:00Z</time>
  <course>11.38</course>
  <speed>0.0282842712474619</speed>
  <fix>3d</fix>
</trkpt>
<trkpt lat="40.0728424" lon="-105.2305756">
  <ele>1587.74</ele>
  <time>2026-08-28T19:13:00Z</time>
  <course>312.14</course>
  <speed>0.05</speed>
  <fix>3d</fix>
</trkpt>
<trkpt lat="40.0728423" lon="-105.2305756">
  <ele>1587.96</ele>
  <time>2026-08-28T19:13:00Z</time>
  <course>11.38</course>
  <speed>0.0282842712474619</speed>
  <fix>3d</fix>
</trkpt>
<trkpt lat="40.0728424" lon="-105.2305756">
  <ele>1588.06</ele>
  <time>2026-08-28T19:13:00Z</time>
  <course>11.38</course>
  <speed>0.0282842712474619</speed>
  <fix>3d</fix>
</trkpt>
<trkpt lat="40.0728425" lon="-105.2305757">
  <ele>1587.86</ele>
  <time>2026-08-28T19:13:00Z</time>
  <course>312.39</course>
  <speed>0.05</speed>
  <fix>3d</fix>
</trkpt>
<trkpt lat="40.0728424" lon="-105.2305757">
  <ele>1588.08</ele>
  <time>2026-08-28T19:13:00Z</time>
  <course>11.38</course>
  <speed>0.0282842712474619</speed>
  <fix>3d</fix>
</trkpt>
<trkpt lat="40.0728425" lon="-105.2305757">
  <ele>1588.18</ele>
  <time>2026-08-28T19:13:00Z</time>
  <course>11.38</course>
  <speed>0.0282842712474619</speed>
  <fix>3d</fix>
</trkpt>
<trkpt lat="40.0728426" lon="-105.2305758">
  <ele>1587.98</ele>
  <time>2026-08-28T19:13:00Z</time>
  <course>312.65</course>
  <speed>0.06</speed>
  <fix>3d</fix>
</trkpt>
<trkpt lat="40.0728425" lon="-105.2305758">
  <ele>1588.2</ele>
  <time>2026-08-28T19:13:00Z</time>
  <course>11.38</course>
  <speed>0.0282842712474619</speed>
  <fix>3d</fix>
</trkpt>
<trkpt lat="40.0728425" lon="-105.2305758">
  <ele>1588.31</ele>
  <time>2026-08-28T19:13:00Z</time>
  <course>11.38</course>
  <speed>0.03605551275463989</speed>
  <fix>3d</fix>
</trkpt>
<trkpt lat="40.0728426" lon="-105.230576">
  <ele>1588.11</ele>
  <time>2026-08-28T19:13:00Z</time>
  <course>312.81</course>
  <speed>0.06</speed>
  <fix>3d</fix>
</trkpt>
<trkpt lat="40.0728425" lon="-105.2305758">
  <ele>1588.32</ele>
  <time>2026-08-28T19:13:00Z</time>
  <course>11.38</course>
  <speed>0.03605551275463989</speed>
  <fix>3d</fix>
</trkpt>
<trkpt lat="40.0728426" lon="-105.230576">
  <ele>1588.44</ele>
  <time>2026-08-28T19:13:00Z</time>
  <course>11.37</course>
  <speed>0.03605551275463989</speed>
  <fix>3d</fix>
</trkpt>
<trkpt lat="40.0728427" lon="-105.2305761">
  <ele>1588.23</ele>
  <time>2026-08-28T19:13:00Z</time>
  <course>313.25</course>
  <speed>0.06</speed>
  <fix>3d</fix>
</trkpt>
<trkpt lat="40.0728426" lon="-105.230576">
  <ele>1588.46</ele>
  <time>2026-08-28T19:13:00Z</time>
  <course>11.37</course>
  <speed>0.03605551275463989</speed>
  <fix>3d</fix>
</trkpt>
<trkpt lat="40.0728427" lon="-105.2305761">
  <ele>1588.58</ele>
  <time>2026-08-28T19:13:00Z</time>
  <course>11.37</course>
  <speed>0.03605551275463989</speed>
  <fix>3d</fix>
</trkpt>
<trkpt lat="40.0728428" lon="-105.2305762">
  <ele>1588.36</ele>
  <time>2026-08-28T19:13:00Z</time>
  <course>313.8</course>
  <speed>0.06</speed>
  <fix>3d</fix>
</trkpt>
<trkpt lat="40.0728427" lon="-105.2305761">
  <ele>1588.58</ele>
  <time>2026-08-28T19:13:00Z</time>
  <course>11.37</course>
  <speed>0.03605551275463989</speed>
  <fix>3d</fix>
</trkpt>
<trkpt lat="40.0728428" lon="-105.2305762">
  <ele>1588.7</ele>
  <time>2026-08-28T19:13:00Z</time>
  <course>11.38</course>
  <speed>0.03605551275463989</speed>
  <fix>3d</fix>
</trkpt>
<trkpt lat="40.0728429" lon="-105.2305763">
  <ele>1588.48</ele>
  <time>2026-08-28T19:13:00Z</time>
  <course>314.06</course>
  <speed>0.06</speed>
  <fix>3d</fix>
</trkpt>
<trkpt lat="40.0728428" lon="-105.2305762">
  <ele>1588.72</ele>
  <time>2026-08-28T19:13:00Z</time>
  <course>11.38</course>
  <speed>0.03605551275463989</speed>
  <fix>3d</fix>
</trkpt>
<trkpt lat="40.0728429" lon="-105.2305763">
  <ele>1588.83</ele>
  <time>2026-08-28T19:13:00Z</time>
  <course>10.04</course>
  <speed>0.03605551275463989</speed>
  <fix>3d</fix>
</trkpt>
<trkpt lat="40.072843" lon="-105.2305764">
  <ele>1588.6</ele>
  <time>2026-08-28T19:13:00Z</time>
  <course>314.2</course>
  <speed>0.06</speed>
  <fix>3d</fix>
</trkpt>
<trkpt lat="40.0728429" lon="-105.2305763">
  <ele>1588.84</ele>
  <time>2026-08-28T19:13:00Z</time>
  <course>10.04</course>
  <speed>0.03605551275463989</speed>
  <fix>3d</fix>
</trkpt>
<trkpt lat="40.0728429" lon="-105.2305764">
  <ele>1588.95</ele>
  <time>2026-08-28T19:13:00Z</time>
  <course>10.05</course>
  <speed>0.03605551275463989</speed>
  <fix>3d</fix>
</trkpt>
<trkpt lat="40.0728431" lon="-105.2305765">
  <ele>1588.73</ele>
  <time>2026-08-28T19:13:00Z</time>
  <course>314.34</course>
  <speed>0.07</speed>
  <fix>3d</fix>
</trkpt>
<trkpt lat="40.0728429" lon="-105.2305764">
  <ele>1588.95</ele>
  <time>2026-08-28T19:13:00Z</time>
  <course>10.05</course>
  <speed>0.03605551275463989</speed>
  <fix>3d</fix>
</trkpt>
<trkpt lat="40.072843" lon="-105.2305765">
  <ele>1589.07</ele>
  <time>2026-08-28T19:13:00Z</time>
  <course>10.05</course>
  <speed>0.03605551275463989</speed>
  <fix>3d</fix>
</trkpt>
<trkpt lat="40.0728432" lon="-105.2305767">
  <ele>1588.85</ele>
  <time>2026-08-28T19:13:00Z</time>
  <course>314.43</course>
  <speed>0.07</speed>
  <fix>3d</fix>
</trkpt>
<trkpt lat="40.0728431" lon="-105.2305766">
  <ele>1589.09</ele>
  <time>2026-08-28T19:13:00Z</time>
  <course>10.05</course>
  <speed>0.03605551275463989</speed>
  <fix>3d</fix>
</trkpt>
<trkpt lat="40.0728431" lon="-105.2305767">
  <ele>1589.19</ele>
  <time>2026-08-28T19:13:00Z</time>
  <course>10.04</course>
  <speed>0.04242640687119285</speed>
  <fix>3d</fix>
</trkpt>
<trkpt lat="40.0728432" lon="-105.2305768">
  <ele>1588.97</ele>
  <time>2026-08-28T19:13:00Z</time>
  <course>314.56</course>
  <speed>0.07</speed>
  <fix>3d</fix>
</trkpt>
<trkpt lat="40.0728431" lon="-105.2305767">
  <ele>1589.19</ele>
  <time>2026-08-28T19:13:00Z</time>
  <course>10.04</course>
  <speed>0.04242640687119285</speed>
  <fix>3d</fix>
</trkpt>
<trkpt lat="40.0728432" lon="-105.2305768">
  <ele>1589.31</ele>
  <time>2026-08-28T19:13:00Z</time>
  <course>10.04</course>
  <speed>0.04242640687119285</speed>
  <fix>3d</fix>
</trkpt>
<trkpt lat="40.0728433" lon="-105.2305769">
  <ele>1589.09</ele>
  <time>2026-08-28T19:13:00Z</time>
  <course>314.74</course>
  <speed>0.07</speed>
  <fix>3d</fix>
</trkpt>
<trkpt lat="40.0728432" lon="-105.2305768">
  <ele>1589.33</ele>
  <time>2026-08-28T19:13:00Z</time>
  <course>10.04</course>
  <speed>0.05</speed>
  <fix>3d</fix>
</trkpt>
<trkpt lat="40.0728433" lon="-105.2305769">
  <ele>1589.44</ele>
  <time>2026-08-28T19:13:00Z</time>
  <course>10.03</course>
  <speed>0.05</speed>
  <fix>3d</fix>
</trkpt>
<trkpt lat="40.0728434" lon="-105.230577">
  <ele>1589.22</ele>
  <time>2026-08-28T19:13:00Z</time>
  <course>314.85</course>
  <speed>0.07</speed>
  <fix>3d</fix>
</trkpt>
<trkpt lat="40.0728433" lon="-105.2305769">
  <ele>1589.46</ele>
  <time>2026-08-28T19:13:00Z</time>
  <course>10.03</course>
  <speed>0.05</speed>
  <fix>3d</fix>
</trkpt>
<trkpt lat="40.0728434" lon="-105.2305771">
  <ele>1589.57</ele>
  <time>2026-08-28T19:13:00Z</time>
  <course>10.04</course>
  <speed>0.05</speed>
  <fix>3d</fix>
</trkpt>
<trkpt lat="40.0728435" lon="-105.2305772">
  <ele>1589.34</ele>
  <time>2026-08-28T19:13:00Z</time>
  <course>314.96</course>
  <speed>0.07</speed>
  <fix>3d</fix>
</trkpt>
<trkpt lat="40.0728434" lon="-105.2305771">
  <ele>1589.57</ele>
  <time>2026-08-28T19:13:00Z</time>
  <course>10.04</course>
  <speed>0.05</speed>
  <fix>3d</fix>
</trkpt>
<trkpt lat="40.0728435" lon="-105.2305772">
  <ele>1589.69</ele>
  <time>2026-08-28T19:13:00Z</time>
  <course>10.04</course>
  <speed>0.05</speed>
  <fix>3d</fix>
</trkpt>
<trkpt lat="40.0728436" lon="-105.2305773">
  <ele>1589.47</ele>
  <time>2026-08-28T19:13:00Z</time>
  <course>314.8</course>
  <speed>0.07</speed>
  <fix>3d</fix>
</trkpt>
<trkpt lat="40.0728435" lon="-105.2305772">
  <ele>1589.71</ele>
  <time>2026-08-28T19:13:00Z</time>
  <course>10.04</course>
  <speed>0.05</speed>
  <fix>3d</fix>
</trkpt>
<trkpt lat="40.0728436" lon="-105.2305773">
  <ele>1589.81</ele>
  <time>2026-08-28T19:13:00Z</time>
  <course>10.04</course>
  <speed>0.05</speed>
  <fix>3d</fix>
</trkpt>
<trkpt lat="40.0728437" lon="-105.2305774">
  <ele>1589.59</ele>
  <time>2026-08-28T19:13:00Z</time>
  <course>314.55</course>
  <speed>0.07</speed>
  <fix>3d</fix>
</trkpt>
<trkpt lat="40.0728436" lon="-105.2305774">
  <ele>1589.83</ele>
  <time>2026-08-28T19:13:00Z</time>
  <course>10.04</course>
  <speed>0.05</speed>
  <fix>3d</fix>
</trkpt>
<trkpt lat="40.0728437" lon="-105.2305775">
  <ele>1589.93</ele>
  <time>2026-08-28T19:13:00Z</time>
  <course>10.04</course>
  <speed>0.05</speed>
  <fix>3d</fix>
</trkpt>
<trkpt lat="40.0728438" lon="-105.2305775">
  <ele>1589.72</ele>
  <time>2026-08-28T19:13:00Z</time>
  <course>314.59</course>
  <speed>0.07</speed>
  <fix>3d</fix>
</trkpt>
<trkpt lat="40.0728437" lon="-105.2305775">
  <ele>1589.94</ele>
  <time>2026-08-28T19:13:00Z</time>
  <course>10.04</course>
  <speed>0.05</speed>
  <fix>3d</fix>
</trkpt>
<trkpt lat="40.0728438" lon="-105.2305776">
  <ele>1590.06</ele>
  <time>2026-08-28T19:13:00Z</time>
  <course>10.03</course>
  <speed>0.0565685424949238</speed>
  <fix>3d</fix>
</trkpt>
<trkpt lat="40.0728439" lon="-105.2305777">
  <ele>1589.84</ele>
  <time>2026-08-28T19:13:00Z</time>
  <course>314.7</course>
  <speed>0.07</speed>
  <fix>3d</fix>
</trkpt>
<trkpt lat="40.0728438" lon="-105.2305776">
  <ele>1590.08</ele>
  <time>2026-08-28T19:13:00Z</time>
  <course>10.03</course>
  <speed>0.0565685424949238</speed>
  <fix>3d</fix>
</trkpt>
<trkpt lat="40.0728439" lon="-105.2305778">
  <ele>1590.19</ele>
  <time>2026-08-28T19:13:00Z</time>
  <course>10.03</course>
  <speed>0.06403124237432849</speed>
  <fix>3d</fix>
</trkpt>
<trkpt lat="40.072844" lon="-105.2305778">
  <ele>1589.97</ele>
  <time>2026-08-28T19:13:00Z</time>
  <course>314.84</course>
  <speed>0.07</speed>
  <fix>3d</fix>
</trkpt>
<trkpt lat="40.0728439" lon="-105.2305778">
  <ele>1590.19</ele>
  <time>2026-08-28T19:13:00Z</time>
  <course>10.03</course>
  <speed>0.06403124237432849</speed>
  <fix>3d</fix>
</trkpt>
<trkpt lat="40.072844" lon="-105.2305779">
  <ele>1590.31</ele>
  <time>2026-08-28T19:13:00Z</time>
  <course>10.03</course>
  <speed>0.06403124237432849</speed>
  <fix>3d</fix>
</trkpt>
<trkpt lat="40.0728441" lon="-105.2305779">
  <ele>1590.1</ele>
  <time>2026-08-28T19:13:00Z</time>
  <course>314.9</course>
  <speed>0.07</speed>
  <fix>3d</fix>
</trkpt>
<trkpt lat="40.072844" lon="-105.2305779">
  <ele>1590.33</ele>
  <time>2026-08-28T19:13:00Z</time>
  <course>10.03</course>
  <speed>0.06403124237432849</speed>
  <fix>3d</fix>
</trkpt>
<trkpt lat="40.0728441" lon="-105.230578">
  <ele>1590.44</ele>
  <time>2026-08-28T19:13:00Z</time>
  <course>10.04</course>
  <speed>0.06403124237432849</speed>
  <fix>3d</fix>
</trkpt>
<trkpt lat="40.0728442" lon="-105.2305781">
  <ele>1590.22</ele>
  <time>2026-08-28T19:13:00Z</time>
  <course>315.19</course>
  <speed>0.07</speed>
  <fix>3d</fix>
</trkpt>
<trkpt lat="40.0728441" lon="-105.230578">
  <ele>1590.46</ele>
  <time>2026-08-28T19:13:00Z</time>
  <course>10.04</course>
  <speed>0.06403124237432849</speed>
  <fix>3d</fix>
</trkpt>
<trkpt lat="40.0728442" lon="-105.2305782">
  <ele>1590.57</ele>
  <time>2026-08-28T19:13:00Z</time>
  <course>10.04</course>
  <speed>0.06403124237432849</speed>
  <fix>3d</fix>
</trkpt>
<trkpt lat="40.0728443" lon="-105.2305782">
  <ele>1590.35</ele>
  <time>2026-08-28T19:13:00Z</time>
  <course>315.81</course>
  <speed>0.07</speed>
  <fix>3d</fix>
</trkpt>
<trkpt lat="40.0728442" lon="-105.2305782">
  <ele>1590.57</ele>
  <time>2026-08-28T19:13:00Z</time>
  <course>10.04</course>
  <speed>0.06403124237432849</speed>
  <fix>3d</fix>
</trkpt>
<trkpt lat="40.0728443" lon="-105.2305783">
  <ele>1590.7</ele>
  <time>2026-08-28T19:13:00Z</time>
  <course>10.04</course>
  <speed>0.06403124237432849</speed>
  <fix>3d</fix>
</trkpt>
<trkpt lat="40.0728444" lon="-105.2305783">
  <ele>1590.48</ele>
  <time>2026-08-28T19:13:00Z</time>
  <course>316.05</course>
  <speed>0.07</speed>
  <fix>3d</fix>
</trkpt>
<trkpt lat="40.0728444" lon="-105.2305783">
  <ele>1590.72</ele>
  <time>2026-08-28T19:13:00Z</time>
  <course>10.04</course>
  <speed>0.06403124237432849</speed>
  <fix>3d</fix>
</trkpt>
<trkpt lat="40.0728445" lon="-105.2305784">
  <ele>1590.82</ele>
  <time>2026-08-28T19:13:00Z</time>
  <course>10.04</course>
  <speed>0.07071067811865475</speed>
  <fix>3d</fix>
</trkpt>
<trkpt lat="40.0728445" lon="-105.2305784">
  <ele>1590.6</ele>
  <time>2026-08-28T19:13:00Z</time>
  <course>315.97</course>
  <speed>0.07</speed>
  <fix>3d</fix>
</trkpt>
<trkpt lat="40.0728445" lon="-105.2305784">
  <ele>1590.83</ele>
  <time>2026-08-28T19:13:00Z</time>
  <course>10.04</course>
  <speed>0.07071067811865475</speed>
  <fix>3d</fix>
</trkpt>
<trkpt lat="40.0728446" lon="-105.2305786">
  <ele>1590.95</ele>
  <time>2026-08-28T19:13:00Z</time>
  <course>10.04</course>
  <speed>0.07071067811865475</speed>
  <fix>3d</fix>
</trkpt>
<trkpt lat="40.0728446" lon="-105.2305786">
  <ele>1590.73</ele>
  <time>2026-08-28T19:13:00Z</time>
  <course>315.95</course>
  <speed>0.07</speed>
  <fix>3d</fix>
</trkpt>
<trkpt lat="40.0728446" lon="-105.2305786">
  <ele>1590.97</ele>
  <time>2026-08-28T19:13:00Z</time>
  <course>10.04</course>
  <speed>0.07071067811865475</speed>
  <fix>3d</fix>
</trkpt>
<trkpt lat="40.0728447" lon="-105.2305787">
  <ele>1591.07</ele>
  <time>2026-08-28T19:13:00Z</time>
  <course>10.04</course>
  <speed>0.07071067811865475</speed>
  <fix>3d</fix>
</trkpt>
<trkpt lat="40.0728447" lon="-105.2305787">
  <ele>1590.85</ele>
  <time>2026-08-28T19:13:00Z</time>
  <course>316.15</course>
  <speed>0.07</speed>
  <fix>3d</fix>
</trkpt>
<trkpt lat="40.0728447" lon="-105.2305787">
  <ele>1591.09</ele>
  <time>2026-08-28T19:13:00Z</time>
  <course>10.04</course>
  <speed>0.07071067811865475</speed>
  <fix>3d</fix>
</trkpt>
<trkpt lat="40.0728448" lon="-105.2305788">
  <ele>1591.2</ele>
  <time>2026-08-28T19:13:00Z</time>
  <course>10.05</course>
  <speed>0.07071067811865475</speed>
  <fix>3d</fix>
</trkpt>
<trkpt lat="40.0728448" lon="-105.2305788">
  <ele>1590.98</ele>
  <time>2026-08-28T19:13:00Z</time>
  <course>316.9</course>
  <speed>0.07</speed>
  <fix>3d</fix>
</trkpt>
<trkpt lat="40.0728448" lon="-105.2305788">
  <ele>1591.22</ele>
  <time>2026-08-28T19:13:00Z</time>
  <course>10.05</course>
  <speed>0.07071067811865475</speed>
  <fix>3d</fix>
</trkpt>
<trkpt lat="40.0728449" lon="-105.230579">
  <ele>1591.33</ele>
  <time>2026-08-28T19:13:00Z</time>
  <course>10.05</course>
  <speed>0.07071067811865475</speed>
  <fix>3d</fix>
</trkpt>
<trkpt lat="40.0728449" lon="-105.230579">
  <ele>1591.1</ele>
  <time>2026-08-28T19:13:00Z</time>
  <course>317.24</course>
  <speed>0.07</speed>
  <fix>3d</fix>
</trkpt>
<trkpt lat="40.0728449" lon="-105.230579">
  <ele>1591.34</ele>
  <time>2026-08-28T19:13:00Z</time>
  <course>10.05</course>
  <speed>0.07071067811865475</speed>
  <fix>3d</fix>
</trkpt>
<trkpt lat="40.072845" lon="-105.2305791">
  <ele>1591.45</ele>
  <time>2026-08-28T19:13:00Z</time>
  <course>10.05</course>
  <speed>0.07071067811865475</speed>
  <fix>3d</fix>
</trkpt>
<trkpt lat="40.072845" lon="-105.2305791">
  <ele>1591.23</ele>
  <time>2026-08-28T19:13:00Z</time>
  <course>316.62</course>
  <speed>0.07</speed>
  <fix>3d</fix>
</trkpt>
<trkpt lat="40.072845" lon="-105.2305791">
  <ele>1591.47</ele>
  <time>2026-08-28T19:13:00Z</time>
  <course>10.06</course>
  <speed>0.07071067811865475</speed>
  <fix>3d</fix>
</trkpt>
<trkpt lat="40.0728451" lon="-105.2305792">
  <ele>1591.58</ele>
  <time>2026-08-28T19:13:00Z</time>
  <course>10.06</course>
  <speed>0.07071067811865475</speed>
  <fix>3d</fix>
</trkpt>
<trkpt lat="40.0728451" lon="-105.2305792">
  <ele>1591.35</ele>
  <time>2026-08-28T19:13:00Z</time>
  <course>315.98</course>
  <speed>0.08</speed>
  <fix>3d</fix>
</trkpt>
<trkpt lat="40.0728451" lon="-105.2305792">
  <ele>1591.6</ele>
  <time>2026-08-28T19:13:00Z</time>
  <course>10.06</course>
  <speed>0.07071067811865475</speed>
  <fix>3d</fix>
</trkpt>
<trkpt lat="40.0728452" lon="-105.2305794">
  <ele>1591.7</ele>
  <time>2026-08-28T19:13:00Z</time>
  <course>10.06</course>
  <speed>0.07071067811865475</speed>
  <fix>3d</fix>
</trkpt>
<trkpt lat="40.0728452" lon="-105.2305793">
  <ele>1591.48</ele>
  <time>2026-08-28T19:13:00Z</time>
  <course>315.82</course>
  <speed>0.08</speed>
  <fix>3d</fix>
</trkpt>
<trkpt lat="40.0728452" lon="-105.2305794">
  <ele>1591.72</ele>
  <time>2026-08-28T19:13:00Z</time>
  <course>10.06</course>
  <speed>0.07071067811865475</speed>
  <fix>3d</fix>
</trkpt>
<trkpt lat="40.0728453" lon="-105.2305795">
  <ele>1591.83</ele>
  <time>2026-08-28T19:13:00Z</time>
  <course>10.07</course>
  <speed>0.07071067811865475</speed>
  <fix>3d</fix>
</trkpt>
<trkpt lat="40.0728453" lon="-105.2305795">
  <ele>1591.6</ele>
  <time>2026-08-28T19:13:00Z</time>
  <course>315.93</course>
  <speed>0.08</speed>
  <fix>3d</fix>
</trkpt>
<trkpt lat="40.0728453" lon="-105.2305795">
  <ele>1591.85</ele>
  <time>2026-08-28T19:13:00Z</time>
  <course>10.07</course>
  <speed>0.07071067811865475</speed>
  <fix>3d</fix>
</trkpt>
<trkpt lat="40.0728454" lon="-105.2305796">
  <ele>1591.96</ele>
  <time>2026-08-28T19:13:00Z</time>
  <course>10.06</course>
  <speed>0.07071067811865475</speed>
  <fix>3d</fix>
</trkpt>
<trkpt lat="40.0728455" lon="-105.2305796">
  <ele>1591.73</ele>
  <time>2026-08-28T19:13:00Z</time>
  <course>316.0</course>
  <speed>0.08</speed>
  <fix>3d</fix>
</trkpt>
<trkpt lat="40.0728454" lon="-105.2305797">
  <ele>1591.97</ele>
  <time>2026-08-28T19:13:00Z</time>
  <course>10.06</course>
  <speed>0.07071067811865475</speed>
  <fix>3d</fix>
</trkpt>
<trkpt lat="40.0728455" lon="-105.2305798">
  <ele>1592.08</ele>
  <time>2026-08-28T19:13:00Z</time>
  <course>10.06</course>
  <speed>0.07071067811865475</speed>
  <fix>3d</fix>
</trkpt>
<trkpt lat="40.0728456" lon="-105.2305797">
  <ele>1591.85</ele>
  <time>2026-08-28T19:13:00Z</time>
  <course>315.89</course>
  <speed>0.08</speed>
  <fix>3d</fix>
</trkpt>
<trkpt lat="40.0728455" lon="-105.2305798">
  <ele>1592.08</ele>
  <time>2026-08-28T19:13:00Z</time>
  <course>10.06</course>
  <speed>0.07071067811865475</speed>
  <fix>3d</fix>
</trkpt>
<trkpt lat="40.0728456" lon="-105.2305799">
  <ele>1592.2</ele>
  <time>2026-08-28T19:13:00Z</time>
  <course>10.05</course>
  <speed>0.07071067811865475</speed>
  <fix>3d</fix>
</trkpt>
<trkpt lat="40.0728457" lon="-105.2305799">
  <ele>1591.98</ele>
  <time>2026-08-28T19:13:00Z</time>
  <course>315.83</course>
  <speed>0.08</speed>
  <fix>3d</fix>
</trkpt>
<trkpt lat="40.0728457" lon="-105.2305799">
  <ele>1592.22</ele>
  <time>2026-08-28T19:13:00Z</time>
  <course>10.05</course>
  <speed>0.07071067811865475</speed>
  <fix>3d</fix>
</trkpt>
<trkpt lat="40.0728458" lon="-105.23058">
  <ele>1592.33</ele>
  <time>2026-08-28T19:13:00Z</time>
  <course>10.04</course>
  <speed>0.07071067811865475</speed>
  <fix>3d</fix>
</trkpt>
<trkpt lat="40.0728458" lon="-105.2305801">
  <ele>1592.1</ele>
  <time>2026-08-28T19:13:00Z</time>
  <course>315.91</course>
  <speed>0.08</speed>
  <fix>3d</fix>
</trkpt>
<trkpt lat="40.0728458" lon="-105.2305801">
  <ele>1592.34</ele>
  <time>2026-08-28T19:13:00Z</time>
  <course>10.04</course>
  <speed>0.07071067811865475</speed>
  <fix>3d</fix>
</trkpt>
<trkpt lat="40.0728459" lon="-105.2305802">
  <ele>1592.45</ele>
  <time>2026-08-28T19:13:00Z</time>
  <course>10.03</course>
  <speed>0.07071067811865475</speed>
  <fix>3d</fix>
</trkpt>
<trkpt lat="40.0728459" lon="-105.2305802">
  <ele>1592.22</ele>
  <time>2026-08-28T19:13:00Z</time>
  <course>315.91</course>
  <speed>0.08</speed>
  <fix>3d</fix>
</trkpt>
<trkpt lat="40.0728459" lon="-105.2305802">
  <ele>1592.46</ele>
  <time>2026-08-28T19:13:00Z</time>
  <course>10.03</course>
  <speed>0.07071067811865475</speed>
  <fix>3d</fix>
</trkpt>
<trkpt lat="40.072846" lon="-105.2305803">
  <ele>1592.57</ele>
  <time>2026-08-28T19:13:00Z</time>
  <course>10.03</course>
  <speed>0.07071067811865475</speed>
  <fix>3d</fix>
</trkpt>
<trkpt lat="40.072846" lon="-105.2305803">
  <ele>1592.35</ele>
  <time>2026-08-28T19:13:00Z</time>
  <course>315.8</course>
  <speed>0.09</speed>
  <fix>3d</fix>
</trkpt>
<trkpt lat="40.072846" lon="-105.2305804">
  <ele>1592.59</ele>
  <time>2026-08-28T19:13:00Z</time>
  <course>10.03</course>
  <speed>0.07071067811865475</speed>
  <fix>3d</fix>
</trkpt>
<trkpt lat="40.0728461" lon="-105.2305805">
  <ele>1592.7</ele>
  <time>2026-08-28T19:13:00Z</time>
  <course>10.03</course>
  <speed>0.07071067811865475</speed>
  <fix>3d</fix>
</trkpt>
<trkpt lat="40.0728461" lon="-105.2305805">
  <ele>1592.47</ele>
  <time>2026-08-28T19:13:00Z</time>
  <course>315.71</course>
  <speed>0.09</speed>
  <fix>3d</fix>
</trkpt>
<trkpt lat="40.0728461" lon="-105.2305805">
  <ele>1592.7</ele>
  <time>2026-08-28T19:13:00Z</time>
  <course>10.03</course>
  <speed>0.07071067811865475</speed>
  <fix>3d</fix>
</trkpt>
<trkpt lat="40.0728462" lon="-105.2305806">
  <ele>1592.83</ele>
  <time>2026-08-28T19:13:00Z</time>
  <course>10.03</course>
  <speed>0.07071067811865475</speed>
  <fix>3d</fix>
</trkpt>
<trkpt lat="40.0728462" lon="-105.2305806">
  <ele>1592.6</ele>
  <time>2026-08-28T19:13:00Z</time>
  <course>315.92</course>
  <speed>0.09</speed>
  <fix>3d</fix>
</trkpt>
<trkpt lat="40.0728462" lon="-105.2305806">
  <ele>1592.85</ele>
  <time>2026-08-28T19:13:00Z</time>
  <course>10.03</course>
  <speed>0.07071067811865475</speed>
  <fix>3d</fix>
</trkpt>
<trkpt lat="40.0728463" lon="-105.2305808">
  <ele>1592.96</ele>
  <time>2026-08-28T19:13:00Z</time>
  <course>10.03</course>
  <speed>0.07071067811865475</speed>
  <fix>3d</fix>
</trkpt>
<trkpt lat="40.0728464" lon="-105.2305807">
  <ele>1592.73</ele>
  <time>2026-08-28T19:13:00Z</time>
  <course>316.58</course>
  <speed>0.09</speed>
  <fix>3d</fix>
</trkpt>
<trkpt lat="40.0728463" lon="-105.2305808">
  <ele>1592.98</ele>
  <time>2026-08-28T19:13:00Z</time>
  <course>10.03</course>
  <speed>0.07071067811865475</speed>
  <fix>3d</fix>
</trkpt>
<trkpt lat="40.0728464" lon="-105.2305809">
  <ele>1593.08</ele>
  <time>2026-08-28T19:13:00Z</time>
  <course>10.04</course>
  <speed>0.07071067811865475</speed>
  <fix>3d</fix>
</trkpt>
<trkpt lat="40.0728465" lon="-105.2305809">
  <ele>1592.85</ele>
  <time>2026-08-28T19:13:00Z</time>
  <course>316.95</course>
  <speed>0.09</speed>
  <fix>3d</fix>
</trkpt>
<trkpt lat="40.0728465" lon="-105.2305809">
  <ele>1593.1</ele>
  <time>2026-08-28T19:13:00Z</time>
  <course>10.04</course>
  <speed>0.07071067811865475</speed>
  <fix>3d</fix>
</trkpt>
<trkpt lat="40.0728466" lon="-105.230581">
  <ele>1593.21</ele>
  <time>2026-08-28T19:13:00Z</time>
  <course>10.04</course>
  <speed>0.07071067811865475</speed>
  <fix>3d</fix>
</trkpt>
<trkpt lat="40.0728466" lon="-105.2305811">
  <ele>1592.98</ele>
  <time>2026-08-28T19:13:00Z</time>
  <course>316.75</course>
  <speed>0.09</speed>
  <fix>3d</fix>
</trkpt>
<trkpt lat="40.0728466" lon="-105.2305811">
  <ele>1593.23</ele>
  <time>2026-08-28T19:13:00Z</time>
  <course>10.04</course>
  <speed>0.07071067811865475</speed>
  <fix>3d</fix>
</trkpt>
<trkpt lat="40.0728467" lon="-105.2305812">
  <ele>1593.34</ele>
  <time>2026-08-28T19:13:00Z</time>
  <course>10.04</course>
  <speed>0.07071067811865475</speed>
  <fix>3d</fix>
</trkpt>
<trkpt lat="40.0728467" lon="-105.2305812">
  <ele>1593.11</ele>
  <time>2026-08-28T19:13:00Z</time>
  <course>316.52</course>
  <speed>0.09</speed>
  <fix>3d</fix>
</trkpt>
<trkpt lat="40.0728467" lon="-105.2305812">
  <ele>1593.34</ele>
  <time>2026-08-28T19:13:00Z</time>
  <course>10.04</course>
  <speed>0.07071067811865475</speed>
  <fix>3d</fix>
</trkpt>
<trkpt lat="40.0728468" lon="-105.2305813">
  <ele>1593.46</ele>
  <time>2026-08-28T19:13:00Z</time>
  <course>10.04</course>
  <speed>0.07071067811865475</speed>
  <fix>3d</fix>
</trkpt>
<trkpt lat="40.0728469" lon="-105.2305814">
  <ele>1593.23</ele>
  <time>2026-08-28T19:13:00Z</time>
  <course>316.33</course>
  <speed>0.09</speed>
  <fix>3d</fix>
</trkpt>
<trkpt lat="40.0728468" lon="-105.2305814">
  <ele>1593.47</ele>
  <time>2026-08-28T19:13:00Z</time>
  <course>10.04</course>
  <speed>0.07071067811865475</speed>
  <fix>3d</fix>
</trkpt>
<trkpt lat="40.0728469" lon="-105.2305815">
  <ele>1593.58</ele>
  <time>2026-08-28T19:13:00Z</time>
  <course>10.03</course>
  <speed>0.07071067811865475</speed>
  <fix>3d</fix>
</trkpt>
<trkpt lat="40.072847" lon="-105.2305815">
  <ele>1593.36</ele>
  <time>2026-08-28T19:13:00Z</time>
  <course>315.99</course>
  <speed>0.09</speed>
  <fix>3d</fix>
</trkpt>
<trkpt lat="40.0728469" lon="-105.2305815">
  <ele>1593.58</ele>
  <time>2026-08-28T19:13:00Z</time>
  <course>10.03</course>
  <speed>0.07071067811865475</speed>
  <fix>3d</fix>
</trkpt>
<trkpt lat="40.0728471" lon="-105.2305817">
  <ele>1593.7</ele>
  <time>2026-08-28T19:13:00Z</time>
  <course>10.03</course>
  <speed>0.07071067811865475</speed>
  <fix>3d</fix>
</trkpt>
<trkpt lat="40.0728471" lon="-105.2305817">
  <ele>1593.48</ele>
  <time>2026-08-28T19:13:00Z</time>
  <course>315.69</course>
  <speed>0.1</speed>
  <fix>3d</fix>
</trkpt>
<trkpt lat="40.0728471" lon="-105.2305817">
  <ele>1593.73</ele>
  <time>2026-08-28T19:13:00Z</time>
  <course>10.03</course>
  <speed>0.07071067811865475</speed>
  <fix>3d</fix>
</trkpt>
<trkpt lat="40.0728472" lon="-105.2305818">
  <ele>1593.83</ele>
  <time>2026-08-28T19:13:00Z</time>
  <course>10.03</course>
  <speed>0.07071067811865475</speed>
  <fix>3d</fix>
</trkpt>
<trkpt lat="40.0728473" lon="-105.2305819">
  <ele>1593.61</ele>
  <time>2026-08-28T19:13:00Z</time>
  <course>315.58</course>
  <speed>0.1</speed>
  <fix>3d</fix>
</trkpt>
<trkpt lat="40.0728472" lon="-105.2305819">
  <ele>1593.85</ele>
  <time>2026-08-28T19:13:00Z</time>
  <course>10.03</course>
  <speed>0.07071067811865475</speed>
  <fix>3d</fix>
</trkpt>
<trkpt lat="40.0728473" lon="-105.230582">
  <ele>1593.96</ele>
  <time>2026-08-28T19:13:00Z</time>
  <course>10.03</course>
  <speed>0.07071067811865475</speed>
  <fix>3d</fix>
</trkpt>
<trkpt lat="40.0728474" lon="-105.230582">
  <ele>1593.73</ele>
  <time>2026-08-28T19:13:00Z</time>
  <course>315.68</course>
  <speed>0.1</speed>
  <fix>3d</fix>
</trkpt>
<trkpt lat="40.0728473" lon="-105.230582">
  <ele>1593.98</ele>
  <time>2026-08-28T19:13:00Z</time>
  <course>10.03</course>
  <speed>0.07071067811865475</speed>
  <fix>3d</fix>
</trkpt>
<trkpt lat="40.0728474" lon="-105.2305822">
  <ele>1594.09</ele>
  <time>2026-08-28T19:13:00Z</time>
  <course>10.03</course>
  <speed>0.07071067811865475</speed>
  <fix>3d</fix>
</trkpt>
<trkpt lat="40.0728475" lon="-105.2305823">
  <ele>1593.86</ele>
  <time>2026-08-28T19:13:00Z</time>
  <course>315.73</course>
  <speed>0.1</speed>
  <fix>3d</fix>
</trkpt>
<trkpt lat="40.0728474" lon="-105.2305822">
  <ele>1594.09</ele>
  <time>2026-08-28T19:13:00Z</time>
  <course>10.03</course>
  <speed>0.07071067811865475</speed>
  <fix>3d</fix>
</trkpt>
<trkpt lat="40.0728476" lon="-105.2305823">
  <ele>1594.21</ele>
  <time>2026-08-28T19:13:00Z</time>
  <course>10.03</course>
  <speed>0.07071067811865475</speed>
  <fix>3d</fix>
</trkpt>
<trkpt lat="40.0728476" lon="-105.2305824">
  <ele>1593.98</ele>
  <time>2026-08-28T19:13:00Z</time>
  <course>315.62</course>
  <speed>0.1</speed>
  <fix>3d</fix>
</trkpt>
<trkpt lat="40.0728476" lon="-105.2305824">
  <ele>1594.23</ele>
  <time>2026-08-28T19:13:00Z</time>
  <course>10.03</course>
  <speed>0.07071067811865475</speed>
  <fix>3d</fix>
</trkpt>
<trkpt lat="40.0728477" lon="-105.2305825">
  <ele>1594.34</ele>
  <time>2026-08-28T19:13:00Z</time>
  <course>10.03</course>
  <speed>0.07071067811865475</speed>
  <fix>3d</fix>
</trkpt>
<trkpt lat="40.0728478" lon="-105.2305825">
  <ele>1594.11</ele>
  <time>2026-08-28T19:13:00Z</time>
  <course>315.58</course>
  <speed>0.1</speed>
  <fix>3d</fix>
</trkpt>
<trkpt lat="40.0728477" lon="-105.2305825">
  <ele>1594.36</ele>
  <time>2026-08-28T19:13:00Z</time>
  <course>10.03</course>
  <speed>0.07071067811865475</speed>
  <fix>3d</fix>
</trkpt>
<trkpt lat="40.0728478" lon="-105.2305827">
  <ele>1594.46</ele>
  <time>2026-08-28T19:13:00Z</time>
  <course>10.03</course>
  <speed>0.07810249675906654</speed>
  <fix>3d</fix>
</trkpt>
<trkpt lat="40.072848" lon="-105.2305828">
  <ele>1594.24</ele>
  <time>2026-08-28T19:13:00Z</time>
  <course>315.7</course>
  <speed>0.11</speed>
  <fix>3d</fix>
</trkpt>
<trkpt lat="40.0728479" lon="-105.2305827">
  <ele>1594.48</ele>
  <time>2026-08-28T19:13:00Z</time>
  <course>10.03</course>
  <speed>0.07810249675906654</speed>
  <fix>3d</fix>
</trkpt>
<trkpt lat="40.072848" lon="-105.2305829">
  <ele>1594.59</ele>
  <time>2026-08-28T19:13:00Z</time>
  <course>10.04</course>
  <speed>0.07071067811865475</speed>
  <fix>3d</fix>
</trkpt>
<trkpt lat="40.0728481" lon="-105.230583">
  <ele>1594.36</ele>
  <time>2026-08-28T19:13:00Z</time>
  <course>316.0</course>
  <speed>0.11</speed>
  <fix>3d</fix>
</trkpt>
<trkpt lat="40.072848" lon="-105.2305829">
  <ele>1594.61</ele>
  <time>2026-08-28T19:13:00Z</time>
  <course>10.04</course>
  <speed>0.07071067811865475</speed>
  <fix>3d</fix>
</trkpt>
<trkpt lat="40.0728481" lon="-105.230583">
  <ele>1594.72</ele>
  <time>2026-08-28T19:13:00Z</time>
  <course>10.04</course>
  <speed>0.07810249675906654</speed>
  <fix>3d</fix>
</trkpt>
<trkpt lat="40.0728482" lon="-105.2305831">
  <ele>1594.49</ele>
  <time>2026-08-28T19:13:00Z</time>
  <course>316.33</course>
  <speed>0.11</speed>
  <fix>3d</fix>
</trkpt>
<trkpt lat="40.0728481" lon="-105.2305831">
  <ele>1594.72</ele>
  <time>2026-08-28T19:13:00Z</time>
  <course>10.04</course>
  <speed>0.07810249675906654</speed>
  <fix>3d</fix>
</trkpt>
<trkpt lat="40.0728483" lon="-105.2305832">
  <ele>1594.84</ele>
  <time>2026-08-28T19:13:00Z</time>
  <course>10.04</course>
  <speed>0.0848528137423857</speed>
  <fix>3d</fix>
</trkpt>
<trkpt lat="40.0728484" lon="-105.2305833">
  <ele>1594.61</ele>
  <time>2026-08-28T19:13:00Z</time>
  <course>316.65</course>
  <speed>0.11</speed>
  <fix>3d</fix>
</trkpt>
<trkpt lat="40.0728483" lon="-105.2305833">
  <ele>1594.87</ele>
  <time>2026-08-28T19:13:00Z</time>
  <course>10.04</course>
  <speed>0.0848528137423857</speed>
  <fix>3d</fix>
</trkpt>
<trkpt lat="40.0728484" lon="-105.2305834">
  <ele>1594.97</ele>
  <time>2026-08-28T19:13:00Z</time>
  <course>10.04</course>
  <speed>0.0848528137423857</speed>
  <fix>3d</fix>
</trkpt>
<trkpt lat="40.0728486" lon="-105.2305835">
  <ele>1594.74</ele>
  <time>2026-08-28T19:13:00Z</time>
  <course>316.95</course>
  <speed>0.11</speed>
  <fix>3d</fix>
</trkpt>
<trkpt lat="40.0728485" lon="-105.2305834">
  <ele>1594.99</ele>
  <time>2026-08-28T19:13:00Z</time>
  <course>10.05</course>
  <speed>0.0848528137423857</speed>
  <fix>3d</fix>
</trkpt>
<trkpt lat="40.0728486" lon="-105.2305836">
  <ele>1595.11</ele>
  <time>2026-08-28T19:13:00Z</time>
  <course>10.04</course>
  <speed>0.0848528137423857</speed>
  <fix>3d</fix>
</trkpt>
<trkpt lat="40.0728487" lon="-105.2305836">
  <ele>1594.86</ele>
  <time>2026-08-28T19:13:00Z</time>
  <course>317.08</course>
  <speed>0.11</speed>
  <fix>3d</fix>
</trkpt>
<trkpt lat="40.0728486" lon="-105.2305836">
  <ele>1595.12</ele>
  <time>2026-08-28T19:13:00Z</time>
  <course>10.04</course>
  <speed>0.0848528137423857</speed>
  <fix>3d</fix>
</trkpt>
<trkpt lat="40.0728487" lon="-105.2305838">
  <ele>1595.23</ele>
  <time>2026-08-28T19:13:00Z</time>
  <course>10.03</course>
  <speed>0.0848528137423857</speed>
  <fix>3d</fix>
</trkpt>
<trkpt lat="40.0728488" lon="-105.2305839">
  <ele>1594.99</ele>
  <time>2026-08-28T19:13:00Z</time>
  <course>316.95</course>
  <speed>0.11</speed>
  <fix>3d</fix>
</trkpt>
<trkpt lat="40.0728487" lon="-105.2305838">
  <ele>1595.23</ele>
  <time>2026-08-28T19:13:00Z</time>
  <course>10.03</course>
  <speed>0.0848528137423857</speed>
  <fix>3d</fix>
</trkpt>
<trkpt lat="40.0728489" lon="-105.230584">
  <ele>1595.36</ele>
  <time>2026-08-28T19:13:00Z</time>
  <course>10.02</course>
  <speed>0.0848528137423857</speed>
  <fix>3d</fix>
</trkpt>
<trkpt lat="40.072849" lon="-105.230584">
  <ele>1595.11</ele>
  <time>2026-08-28T19:13:00Z</time>
  <course>316.69</course>
  <speed>0.11</speed>
  <fix>3d</fix>
</trkpt>
<trkpt lat="40.0728489" lon="-105.230584">
  <ele>1595.37</ele>
  <time>2026-08-28T19:13:00Z</time>
  <course>10.02</course>
  <speed>0.0848528137423857</speed>
  <fix>3d</fix>
</trkpt>
<trkpt lat="40.072849" lon="-105.2305842">
  <ele>1595.48</ele>
  <time>2026-08-28T19:13:00Z</time>
  <course>10.01</course>
  <speed>0.0848528137423857</speed>
  <fix>3d</fix>
</trkpt>
<trkpt lat="40.0728492" lon="-105.2305843">
  <ele>1595.23</ele>
  <time>2026-08-28T19:13:00Z</time>
  <course>316.57</course>
  <speed>0.11</speed>
  <fix>3d</fix>
</trkpt>
<trkpt lat="40.0728491" lon="-105.2305842">
  <ele>1595.5</ele>
  <time>2026-08-28T19:13:00Z</time>
  <course>10.01</course>
  <speed>0.0848528137423857</speed>
  <fix>3d</fix>
</trkpt>
<trkpt lat="40.0728492" lon="-105.2305844">
  <ele>1595.6</ele>
  <time>2026-08-28T19:13:00Z</time>
  <course>10.01</course>
  <speed>0.0848528137423857</speed>
  <fix>3d</fix>
</trkpt>
<trkpt lat="40.0728493" lon="-105.2305844">
  <ele>1595.36</ele>
  <time>2026-08-28T19:13:00Z</time>
  <course>316.43</course>
  <speed>0.12</speed>
  <fix>3d</fix>
</trkpt>
<trkpt lat="40.0728492" lon="-105.2305844">
  <ele>1595.6</ele>
  <time>2026-08-28T19:13:00Z</time>
  <course>10.01</course>
  <speed>0.0848528137423857</speed>
  <fix>3d</fix>
</trkpt>
<trkpt lat="40.0728494" lon="-105.2305845">
  <ele>1595.72</ele>
  <time>2026-08-28T19:13:00Z</time>
  <course>10.02</course>
  <speed>0.0848528137423857</speed>
  <fix>3d</fix>
</trkpt>
<trkpt lat="40.0728494" lon="-105.2305847">
  <ele>1595.48</ele>
  <time>2026-08-28T19:13:00Z</time>
  <course>316.19</course>
  <speed>0.12</speed>
  <fix>3d</fix>
</trkpt>
<trkpt lat="40.0728494" lon="-105.2305846">
  <ele>1595.74</ele>
  <time>2026-08-28T19:13:00Z</time>
  <course>10.02</course>
  <speed>0.0848528137423857</speed>
  <fix>3d</fix>
</trkpt>
<trkpt lat="40.0728495" lon="-105.2305848">
  <ele>1595.84</ele>
  <time>2026-08-28T19:13:01Z</time>
  <course>10.02</course>
  <speed>0.0848528137423857</speed>
  <fix>3d</fix>
</trkpt>
<trkpt lat="40.0728496" lon="-105.2305849">
  <ele>1595.6</ele>
  <time>2026-08-28T19:13:01Z</time>
  <course>315.99</course>
  <speed>0.12</speed>
  <fix>3d</fix>
</trkpt>
<trkpt lat="40.0728495" lon="-105.2305848">
  <ele>1595.84</ele>
  <time>2026-08-28T19:13:01Z</time>
  <course>10.02</course>
  <speed>0.0848528137423857</speed>
  <fix>3d</fix>
</trkpt>
<trkpt lat="40.0728497" lon="-105.230585">
  <ele>1595.96</ele>
  <time>2026-08-28T19:13:01Z</time>
  <course>10.02</course>
  <speed>0.0848528137423857</speed>
  <fix>3d</fix>
</trkpt>
<trkpt lat="40.0728498" lon="-105.230585">
  <ele>1595.72</ele>
  <time>2026-08-28T19:13:01Z</time>
  <course>315.78</course>
  <speed>0.12</speed>
  <fix>3d</fix>
</trkpt>
<trkpt lat="40.0728497" lon="-105.230585">
  <ele>1595.98</ele>
  <time>2026-08-28T19:13:01Z</time>
  <course>10.02</course>
  <speed>0.0848528137423857</speed>
  <fix>3d</fix>
</trkpt>
<trkpt lat="40.0728498" lon="-105.2305852">
  <ele>1596.08</ele>
  <time>2026-08-28T19:13:01Z</time>
  <course>10.02</course>
  <speed>0.0848528137423857</speed>
  <fix>3d</fix>
</trkpt>
<trkpt lat="40.07285" lon="-105.2305853">
  <ele>1595.85</ele>
  <time>2026-08-28T19:13:01Z</time>
  <course>315.62</course>
  <speed>0.12</speed>
  <fix>3d</fix>
</trkpt>
<trkpt lat="40.0728498" lon="-105.2305852">
  <ele>1596.08</ele>
  <time>2026-08-28T19:13:01Z</time>
  <course>10.02</course>
  <speed>0.0848528137423857</speed>
  <fix>3d</fix>
</trkpt>
<trkpt lat="40.07285" lon="-105.2305854">
  <ele>1596.21</ele>
  <time>2026-08-28T19:13:01Z</time>
  <course>10.02</course>
  <speed>0.09219544457292887</speed>
  <fix>3d</fix>
</trkpt>
<trkpt lat="40.0728501" lon="-105.2305854">
  <ele>1595.98</ele>
  <time>2026-08-28T19:13:01Z</time>
  <course>315.47</course>
  <speed>0.12</speed>
  <fix>3d</fix>
</trkpt>
<trkpt lat="40.07285" lon="-105.2305854">
  <ele>1596.23</ele>
  <time>2026-08-28T19:13:01Z</time>
  <course>10.02</course>
  <speed>0.09219544457292887</speed>
  <fix>3d</fix>
</trkpt>
<trkpt lat="40.0728502" lon="-105.2305856">
  <ele>1596.34</ele>
  <time>2026-08-28T19:13:01Z</time>
  <course>10.02</course>
  <speed>0.09219544457292887</speed>
  <fix>3d</fix>
</trkpt>
<trkpt lat="40.0728503" lon="-105.2305857">
  <ele>1596.1</ele>
  <time>2026-08-28T19:13:01Z</time>
  <course>315.31</course>
  <speed>0.12</speed>
  <fix>3d</fix>
</trkpt>
<trkpt lat="40.0728502" lon="-105.2305856">
  <ele>1596.36</ele>
  <time>2026-08-28T19:13:01Z</time>
  <course>10.02</course>
  <speed>0.09219544457292887</speed>
  <fix>3d</fix>
</trkpt>
<trkpt lat="40.0728503" lon="-105.2305858">
  <ele>1596.47</ele>
  <time>2026-08-28T19:13:01Z</time>
  <course>10.03</course>
  <speed>0.09219544457292887</speed>
  <fix>3d</fix>
</trkpt>
<trkpt lat="40.0728504" lon="-105.2305859">
  <ele>1596.23</ele>
  <time>2026-08-28T19:13:01Z</time>
  <course>315.08</course>
  <speed>0.12</speed>
  <fix>3d</fix>
</trkpt>
<trkpt lat="40.0728503" lon="-105.2305858">
  <ele>1596.48</ele>
  <time>2026-08-28T19:13:01Z</time>
  <course>10.03</course>
  <speed>0.09219544457292887</speed>
  <fix>3d</fix>
</trkpt>
<trkpt lat="40.0728505" lon="-105.230586">
  <ele>1596.6</ele>
  <time>2026-08-28T19:13:01Z</time>
  <course>10.02</course>
  <speed>0.09219544457292887</speed>
  <fix>3d</fix>
</trkpt>
<trkpt lat="40.0728505" lon="-105.230586">
  <ele>1596.36</ele>
  <time>2026-08-28T19:13:01Z</time>
  <course>314.88</course>
  <speed>0.12</speed>
  <fix>3d</fix>
</trkpt>
<trkpt lat="40.0728505" lon="-105.230586">
  <ele>1596.61</ele>
  <time>2026-08-28T19:13:01Z</time>
  <course>10.02</course>
  <speed>0.09219544457292887</speed>
  <fix>3d</fix>
</trkpt>
<trkpt lat="40.0728506" lon="-105.2305862">
  <ele>1596.72</ele>
  <time>2026-08-28T19:13:01Z</time>
  <course>10.02</course>
  <speed>0.09219544457292887</speed>
  <fix>3d</fix>
</trkpt>
<trkpt lat="40.0728508" lon="-105.2305863">
  <ele>1596.49</ele>
  <time>2026-08-28T19:13:01Z</time>
  <course>314.85</course>
  <speed>0.12</speed>
  <fix>3d</fix>
</trkpt>
<trkpt lat="40.0728507" lon="-105.2305862">
  <ele>1596.74</ele>
  <time>2026-08-28T19:13:01Z</time>
  <course>10.02</course>
  <speed>0.09219544457292887</speed>
  <fix>3d</fix>
</trkpt>
<trkpt lat="40.0728508" lon="-105.2305864">
  <ele>1596.84</ele>
  <time>2026-08-28T19:13:01Z</time>
  <course>10.02</course>
  <speed>0.09219544457292887</speed>
  <fix>3d</fix>
</trkpt>
<trkpt lat="40.0728509" lon="-105.2305864">
  <ele>1596.61</ele>
  <time>2026-08-28T19:13:01Z</time>
  <course>314.83</course>
  <speed>0.12</speed>
  <fix>3d</fix>
</trkpt>
<trkpt lat="40.0728508" lon="-105.2305864">
  <ele>1596.84</ele>
  <time>2026-08-28T19:13:01Z</time>
  <course>10.02</course>
  <speed>0.09219544457292887</speed>
  <fix>3d</fix>
</trkpt>
<trkpt lat="40.072851" lon="-105.2305866">
  <ele>1596.97</ele>
  <time>2026-08-28T19:13:01Z</time>
  <course>10.02</course>
  <speed>0.09219544457292887</speed>
  <fix>3d</fix>
</trkpt>
<trkpt lat="40.072851" lon="-105.2305867">
  <ele>1596.74</ele>
  <time>2026-08-28T19:13:01Z</time>
  <course>314.73</course>
  <speed>0.12</speed>
  <fix>3d</fix>
</trkpt>
<trkpt lat="40.072851" lon="-105.2305867">
  <ele>1596.99</ele>
  <time>2026-08-28T19:13:01Z</time>
  <course>10.02</course>
  <speed>0.09219544457292887</speed>
  <fix>3d</fix>
</trkpt>
<trkpt lat="40.0728511" lon="-105.2305868">
  <ele>1597.1</ele>
  <time>2026-08-28T19:13:01Z</time>
  <course>10.02</course>
  <speed>0.09219544457292887</speed>
  <fix>3d</fix>
</trkpt>
<trkpt lat="40.0728512" lon="-105.2305869">
  <ele>1596.87</ele>
  <time>2026-08-28T19:13:01Z</time>
  <course>314.65</course>
  <speed>0.12</speed>
  <fix>3d</fix>
</trkpt>
<trkpt lat="40.0728511" lon="-105.2305869">
  <ele>1597.1</ele>
  <time>2026-08-28T19:13:01Z</time>
  <course>10.02</course>
  <speed>0.09219544457292887</speed>
  <fix>3d</fix>
</trkpt>
<trkpt lat="40.0728513" lon="-105.2305871">
  <ele>1597.22</ele>
  <time>2026-08-28T19:13:01Z</time>
  <course>10.02</course>
  <speed>0.09219544457292887</speed>
  <fix>3d</fix>
</trkpt>
<trkpt lat="40.0728514" lon="-105.2305872">
  <ele>1596.99</ele>
  <time>2026-08-28T19:13:01Z</time>
  <course>314.64</course>
  <speed>0.12</speed>
  <fix>3d</fix>
</trkpt>
<trkpt lat="40.0728513" lon="-105.2305871">
  <ele>1597.24</ele>
  <time>2026-08-28T19:13:01Z</time>
  <course>10.02</course>
  <speed>0.09219544457292887</speed>
  <fix>3d</fix>
</trkpt>
<trkpt lat="40.0728514" lon="-105.2305873">
  <ele>1597.34</ele>
  <time>2026-08-28T19:13:01Z</time>
  <course>10.02</course>
  <speed>0.09219544457292887</speed>
  <fix>3d</fix>
</trkpt>
<trkpt lat="40.0728516" lon="-105.2305873">
  <ele>1597.12</ele>
  <time>2026-08-28T19:13:01Z</time>
  <course>314.65</course>
  <speed>0.12</speed>
  <fix>3d</fix>
</trkpt>
<trkpt lat="40.0728515" lon="-105.2305873">
  <ele>1597.36</ele>
  <time>2026-08-28T19:13:01Z</time>
  <course>10.02</course>
  <speed>0.09219544457292887</speed>
  <fix>3d</fix>
</trkpt>
<trkpt lat="40.0728516" lon="-105.2305875">
  <ele>1597.47</ele>
  <time>2026-08-28T19:13:01Z</time>
  <course>10.02</course>
  <speed>0.09219544457292887</speed>
  <fix>3d</fix>
</trkpt>
<trkpt lat="40.0728517" lon="-105.2305876">
  <ele>1597.25</ele>
  <time>2026-08-28T19:13:01Z</time>
  <course>314.58</course>
  <speed>0.12</speed>
  <fix>3d</fix>
</trkpt>
<trkpt lat="40.0728516" lon="-105.2305875">
  <ele>1597.47</ele>
  <time>2026-08-28T19:13:01Z</time>
  <course>10.02</course>
  <speed>0.09219544457292887</speed>
  <fix>3d</fix>
</trkpt>
<trkpt lat="40.0728518" lon="-105.2305877">
  <ele>1597.6</ele>
  <time>2026-08-28T19:13:01Z</time>
  <course>10.02</course>
  <speed>0.09219544457292887</speed>
  <fix>3d</fix>
</trkpt>
<trkpt lat="40.0728518" lon="-105.2305878">
  <ele>1597.37</ele>
  <time>2026-08-28T19:13:01Z</time>
  <course>314.42</course>
  <speed>0.12</speed>
  <fix>3d</fix>
</trkpt>
<trkpt lat="40.0728518" lon="-105.2305877">
  <ele>1597.61</ele>
  <time>2026-08-28T19:13:01Z</time>
  <course>10.02</course>
  <speed>0.09219544457292887</speed>
  <fix>3d</fix>
</trkpt>
<trkpt lat="40.0728519" lon="-105.2305879">
  <ele>1597.72</ele>
  <time>2026-08-28T19:13:01Z</time>
  <course>10.02</course>
  <speed>0.09219544457292887</speed>
  <fix>3d</fix>
</trkpt>
<trkpt lat="40.0728521" lon="-105.2305879">
  <ele>1597.5</ele>
  <time>2026-08-28T19:13:01Z</time>
  <course>314.25</course>
  <speed>0.12</speed>
  <fix>3d</fix>
</trkpt>
<trkpt lat="40.0728519" lon="-105.2305879">
  <ele>1597.73</ele>
  <time>2026-08-28T19:13:01Z</time>
  <course>10.02</course>
  <speed>0.09219544457292887</speed>
  <fix>3d</fix>
</trkpt>
<trkpt lat="40.0728521" lon="-105.2305881">
  <ele>1597.85</ele>
  <time>2026-08-28T19:13:01Z</time>
  <course>10.02</course>
  <speed>0.09219544457292887</speed>
  <fix>3d</fix>
</trkpt>
<trkpt lat="40.0728522" lon="-105.2305882">
  <ele>1597.63</ele>
  <time>2026-08-28T19:13:01Z</time>
  <course>314.15</course>
  <speed>0.12</speed>
  <fix>3d</fix>
</trkpt>
<trkpt lat="40.0728521" lon="-105.2305882">
  <ele>1597.87</ele>
  <time>2026-08-28T19:13:01Z</time>
  <course>10.02</course>
  <speed>0.09219544457292887</speed>
  <fix>3d</fix>
</trkpt>
<trkpt lat="40.0728523" lon="-105.2305884">
  <ele>1597.98</ele>
  <time>2026-08-28T19:13:01Z</time>
  <course>10.02</course>
  <speed>0.09219544457292887</speed>
  <fix>3d</fix>
</trkpt>
<trkpt lat="40.0728524" lon="-105.2305885">
  <ele>1597.76</ele>
  <time>2026-08-28T19:13:01Z</time>
  <course>314.17</course>
  <speed>0.12</speed>
  <fix>3d</fix>
</trkpt>
<trkpt lat="40.0728523" lon="-105.2305884">
  <ele>1597.99</ele>
  <time>2026-08-28T19:13:01Z</time>
  <course>10.02</course>
  <speed>0.09219544457292887</speed>
  <fix>3d</fix>
</trkpt>
<trkpt lat="40.0728524" lon="-105.2305886">
  <ele>1598.11</ele>
  <time>2026-08-28T19:13:01Z</time>
  <course>10.02</course>
  <speed>0.09219544457292887</speed>
  <fix>3d</fix>
</trkpt>
<trkpt lat="40.0728525" lon="-105.2305887">
  <ele>1597.88</ele>
  <time>2026-08-28T19:13:01Z</time>
  <course>314.18</course>
  <speed>0.12</speed>
  <fix>3d</fix>
</trkpt>
<trkpt lat="40.0728524" lon="-105.2305886">
  <ele>1598.13</ele>
  <time>2026-08-28T19:13:01Z</time>
  <course>10.02</course>
  <speed>0.09219544457292887</speed>
  <fix>3d</fix>
</trkpt>
<trkpt lat="40.0728526" lon="-105.2305888">
  <ele>1598.24</ele>
  <time>2026-08-28T19:13:01Z</time>
  <course>10.02</course>
  <speed>0.09219544457292887</speed>
  <fix>3d</fix>
</trkpt>
<trkpt lat="40.0728527" lon="-105.2305888">
  <ele>1598.01</ele>
  <time>2026-08-28T19:13:01Z</time>
  <course>314.27</course>
  <speed>0.12</speed>
  <fix>3d</fix>
</trkpt>
<trkpt lat="40.0728526" lon="-105.2305888">
  <ele>1598.25</ele>
  <time>2026-08-28T19:13:01Z</time>
  <course>10.02</course>
  <speed>0.09219544457292887</speed>
  <fix>3d</fix>
</trkpt>
<trkpt lat="40.0728527" lon="-105.230589">
  <ele>1598.37</ele>
  <time>2026-08-28T19:13:01Z</time>
  <course>10.02</course>
  <speed>0.09219544457292887</speed>
  <fix>3d</fix>
</trkpt>
<trkpt lat="40.0728529" lon="-105.2305891">
  <ele>1598.14</ele>
  <time>2026-08-28T19:13:01Z</time>
  <course>314.41</course>
  <speed>0.12</speed>
  <fix>3d</fix>
</trkpt>
<trkpt lat="40.0728527" lon="-105.230589">
  <ele>1598.37</ele>
  <time>2026-08-28T19:13:01Z</time>
  <course>10.02</course>
  <speed>0.09219544457292887</speed>
  <fix>3d</fix>
</trkpt>
<trkpt lat="40.0728529" lon="-105.2305892">
  <ele>1598.49</ele>
  <time>2026-08-28T19:13:01Z</time>
  <course>10.02</course>
  <speed>0.09219544457292887</speed>
  <fix>3d</fix>
</trkpt>
<trkpt lat="40.072853" lon="-105.2305892">
  <ele>1598.27</ele>
  <time>2026-08-28T19:13:01Z</time>
  <course>314.39</course>
  <speed>0.12</speed>
  <fix>3d</fix>
</trkpt>
<trkpt lat="40.0728529" lon="-105.2305893">
  <ele>1598.51</ele>
  <time>2026-08-28T19:13:01Z</time>
  <course>10.02</course>
  <speed>0.09219544457292887</speed>
  <fix>3d</fix>
</trkpt>
<trkpt lat="40.0728531" lon="-105.2305894">
  <ele>1598.61</ele>
  <time>2026-08-28T19:13:01Z</time>
  <course>10.01</course>
  <speed>0.09219544457292887</speed>
  <fix>3d</fix>
</trkpt>
<trkpt lat="40.0728532" lon="-105.2305895">
  <ele>1598.39</ele>
  <time>2026-08-28T19:13:01Z</time>
  <course>314.18</course>
  <speed>0.12</speed>
  <fix>3d</fix>
</trkpt>
<trkpt lat="40.0728531" lon="-105.2305895">
  <ele>1598.63</ele>
  <time>2026-08-28T19:13:01Z</time>
  <course>10.01</course>
  <speed>0.09219544457292887</speed>
  <fix>3d</fix>
</trkpt>
<trkpt lat="40.0728532" lon="-105.2305897">
  <ele>1598.73</ele>
  <time>2026-08-28T19:13:01Z</time>
  <course>10.01</course>
  <speed>0.09219544457292887</speed>
  <fix>3d</fix>
</trkpt>
<trkpt lat="40.0728533" lon="-105.2305897">
  <ele>1598.52</ele>
  <time>2026-08-28T19:13:01Z</time>
  <course>313.85</course>
  <speed>0.12</speed>
  <fix>3d</fix>
</trkpt>
<trkpt lat="40.0728532" lon="-105.2305897">
  <ele>1598.76</ele>
  <time>2026-08-28T19:13:01Z</time>
  <course>10.02</course>
  <speed>0.09219544457292887</speed>
  <fix>3d</fix>
</trkpt>
<trkpt lat="40.0728534" lon="-105.2305899">
  <ele>1598.86</ele>
  <time>2026-08-28T19:13:01Z</time>
  <course>10.02</course>
  <speed>0.09219544457292887</speed>
  <fix>3d</fix>
</trkpt>
<trkpt lat="40.0728534" lon="-105.23059">
  <ele>1598.64</ele>
  <time>2026-08-28T19:13:01Z</time>
  <course>313.65</course>
  <speed>0.12</speed>
  <fix>3d</fix>
</trkpt>
<trkpt lat="40.0728534" lon="-105.2305899">
  <ele>1598.88</ele>
  <time>2026-08-28T19:13:01Z</time>
  <course>10.02</course>
  <speed>0.09219544457292887</speed>
  <fix>3d</fix>
</trkpt>
<trkpt lat="40.0728535" lon="-105.2305901">
  <ele>1598.99</ele>
  <time>2026-08-28T19:13:01Z</time>
  <course>10.02</course>
  <speed>0.09219544457292887</speed>
  <fix>3d</fix>
</trkpt>
<trkpt lat="40.0728536" lon="-105.2305902">
  <ele>1598.77</ele>
  <time>2026-08-28T19:13:01Z</time>
  <course>313.59</course>
  <speed>0.12</speed>
  <fix>3d</fix>
</trkpt>
<trkpt lat="40.0728535" lon="-105.2305901">
  <ele>1598.99</ele>
  <time>2026-08-28T19:13:01Z</time>
  <course>10.02</course>
  <speed>0.09219544457292887</speed>
  <fix>3d</fix>
</trkpt>
<trkpt lat="40.0728537" lon="-105.2305903">
  <ele>1599.11</ele>
  <time>2026-08-28T19:13:01Z</time>
  <course>10.02</course>
  <speed>0.09219544457292887</speed>
  <fix>3d</fix>
</trkpt>
<trkpt lat="40.0728538" lon="-105.2305903">
  <ele>1598.89</ele>
  <time>2026-08-28T19:13:01Z</time>
  <course>313.5</course>
  <speed>0.12</speed>
  <fix>3d</fix>
</trkpt>
<trkpt lat="40.0728537" lon="-105.2305903">
  <ele>1599.13</ele>
  <time>2026-08-28T19:13:01Z</time>
  <course>10.02</course>
  <speed>0.09219544457292887</speed>
  <fix>3d</fix>
</trkpt>
<trkpt lat="40.0728538" lon="-105.2305905">
  <ele>1599.23</ele>
  <time>2026-08-28T19:13:01Z</time>
  <course>10.02</course>
  <speed>0.09219544457292887</speed>
  <fix>3d</fix>
</trkpt>
<trkpt lat="40.072854" lon="-105.2305906">
  <ele>1599.02</ele>
  <time>2026-08-28T19:13:01Z</time>
  <course>313.37</course>
  <speed>0.12</speed>
  <fix>3d</fix>
</trkpt>
<trkpt lat="40.0728539" lon="-105.2305906">
  <ele>1599.25</ele>
  <time>2026-08-28T19:13:01Z</time>
  <course>10.02</course>
  <speed>0.09219544457292887</speed>
  <fix>3d</fix>
</trkpt>
<trkpt lat="40.072854" lon="-105.2305907">
  <ele>1599.36</ele>
  <time>2026-08-28T19:13:01Z</time>
  <course>10.02</course>
  <speed>0.09219544457292887</speed>
  <fix>3d</fix>
</trkpt>
<trkpt lat="40.0728541" lon="-105.2305907">
  <ele>1599.14</ele>
  <time>2026-08-28T19:13:01Z</time>
  <course>313.32</course>
  <speed>0.12</speed>
  <fix>3d</fix>
</trkpt>
<trkpt lat="40.072854" lon="-105.2305908">
  <ele>1599.38</ele>
  <time>2026-08-28T19:13:01Z</time>
  <course>10.02</course>
  <speed>0.09219544457292887</speed>
  <fix>3d</fix>
</trkpt>
<trkpt lat="40.0728542" lon="-105.230591">
  <ele>1599.49</ele>
  <time>2026-08-28T19:13:01Z</time>
  <course>10.02</course>
  <speed>0.09219544457292887</speed>
  <fix>3d</fix>
</trkpt>
<trkpt lat="40.0728542" lon="-105.230591">
  <ele>1599.27</ele>
  <time>2026-08-28T19:13:01Z</time>
  <course>313.26</course>
  <speed>0.12</speed>
  <fix>3d</fix>
</trkpt>
<trkpt lat="40.0728542" lon="-105.230591">
  <ele>1599.51</ele>
  <time>2026-08-28T19:13:01Z</time>
  <course>10.02</course>
  <speed>0.09219544457292887</speed>
  <fix>3d</fix>
</trkpt>
<trkpt lat="40.0728543" lon="-105.2305912">
  <ele>1599.62</ele>
  <time>2026-08-28T19:13:01Z</time>
  <course>10.02</course>
  <speed>0.09219544457292887</speed>
  <fix>3d</fix>
</trkpt>
<trkpt lat="40.0728544" lon="-105.2305912">
  <ele>1599.39</ele>
  <time>2026-08-28T19:13:01Z</time>
  <course>313.18</course>
  <speed>0.12</speed>
  <fix>3d</fix>
</trkpt>
<trkpt lat="40.0728543" lon="-105.2305912">
  <ele>1599.62</ele>
  <time>2026-08-28T19:13:01Z</time>
  <course>10.02</course>
  <speed>0.09219544457292887</speed>
  <fix>3d</fix>
</trkpt>
<trkpt lat="40.0728545" lon="-105.2305914">
  <ele>1599.75</ele>
  <time>2026-08-28T19:13:01Z</time>
  <course>10.02</course>
  <speed>0.09219544457292887</speed>
  <fix>3d</fix>
</trkpt>
<trkpt lat="40.0728546" lon="-105.2305915">
  <ele>1599.52</ele>
  <time>2026-08-28T19:13:01Z</time>
  <course>313.1</course>
  <speed>0.12</speed>
  <fix>3d</fix>
</trkpt>
<trkpt lat="40.0728545" lon="-105.2305914">
  <ele>1599.77</ele>
  <time>2026-08-28T19:13:01Z</time>
  <course>10.02</course>
  <speed>0.09219544457292887</speed>
  <fix>3d</fix>
</trkpt>
<trkpt lat="40.0728546" lon="-105.2305916">
  <ele>1599.88</ele>
  <time>2026-08-28T19:13:01Z</time>
  <course>10.02</course>
  <speed>0.09219544457292887</speed>
  <fix>3d</fix>
</trkpt>
<trkpt lat="40.0728548" lon="-105.2305916">
  <ele>1599.64</ele>
  <time>2026-08-28T19:13:01Z</time>
  <course>312.99</course>
  <speed>0.12</speed>
  <fix>3d</fix>
</trkpt>
<trkpt lat="40.0728547" lon="-105.2305916">
  <ele>1599.9</ele>
  <time>2026-08-28T19:13:01Z</time>
  <course>10.02</course>
  <speed>0.09219544457292887</speed>
  <fix>3d</fix>
</trkpt>
<trkpt lat="40.0728548" lon="-105.2305918">
  <ele>1600.0</ele>
  <time>2026-08-28T19:13:01Z</time>
  <course>10.01</course>
  <speed>0.09219544457292887</speed>
  <fix>3d</fix>
</trkpt>
<trkpt lat="40.0728549" lon="-105.2305919">
  <ele>1599.77</ele>
  <time>2026-08-28T19:13:01Z</time>
  <course>312.86</course>
  <speed>0.12</speed>
  <fix>3d</fix>
</trkpt>
<trkpt lat="40.0728548" lon="-105.2305919">
  <ele>1600.02</ele>
  <time>2026-08-28T19:13:01Z</time>
  <course>10.01</course>
  <speed>0.09219544457292887</speed>
  <fix>3d</fix>
</trkpt>
<trkpt lat="40.0728549" lon="-105.230592">
  <ele>1600.12</ele>
  <time>2026-08-28T19:13:01Z</time>
  <course>10.01</course>
  <speed>0.09219544457292887</speed>
  <fix>3d</fix>
</trkpt>
<trkpt lat="40.0728551" lon="-105.2305921">
  <ele>1599.89</ele>
  <time>2026-08-28T19:13:01Z</time>
  <course>312.7</course>
  <speed>0.12</speed>
  <fix>3d</fix>
</trkpt>
<trkpt lat="40.072855" lon="-105.2305921">
  <ele>1600.14</ele>
  <time>2026-08-28T19:13:01Z</time>
  <course>10.01</course>
  <speed>0.09219544457292887</speed>
  <fix>3d</fix>
</trkpt>
<trkpt lat="40.0728551" lon="-105.2305923">
  <ele>1600.24</ele>
  <time>2026-08-28T19:13:01Z</time>
  <course>10.01</course>
  <speed>0.09219544457292887</speed>
  <fix>3d</fix>
</trkpt>
<trkpt lat="40.0728552" lon="-105.2305923">
  <ele>1600.02</ele>
  <time>2026-08-28T19:13:01Z</time>
  <course>312.53</course>
  <speed>0.12</speed>
  <fix>3d</fix>
</trkpt>
<trkpt lat="40.0728551" lon="-105.2305923">
  <ele>1600.24</ele>
  <time>2026-08-28T19:13:01Z</time>
  <course>10.01</course>
  <speed>0.09219544457292887</speed>
  <fix>3d</fix>
</trkpt>
<trkpt lat="40.0728553" lon="-105.2305925">
  <ele>1600.36</ele>
  <time>2026-08-28T19:13:01Z</time>
  <course>10.01</course>
  <speed>0.09219544457292887</speed>
  <fix>3d</fix>
</trkpt>
<trkpt lat="40.0728553" lon="-105.2305926">
  <ele>1600.14</ele>
  <time>2026-08-28T19:13:01Z</time>
  <course>312.4</course>
  <speed>0.12</speed>
  <fix>3d</fix>
</trkpt>
<trkpt lat="40.0728553" lon="-105.2305925">
  <ele>1600.39</ele>
  <time>2026-08-28T19:13:01Z</time>
  <course>10.01</course>
  <speed>0.09219544457292887</speed>
  <fix>3d</fix>
</trkpt>
<trkpt lat="40.0728554" lon="-105.2305927">
  <ele>1600.49</ele>
  <time>2026-08-28T19:13:01Z</time>
  <course>10.02</course>
  <speed>0.09219544457292887</speed>
  <fix>3d</fix>
</trkpt>
<trkpt lat="40.0728555" lon="-105.2305927">
  <ele>1600.27</ele>
  <time>2026-08-28T19:13:01Z</time>
  <course>312.35</course>
  <speed>0.12</speed>
  <fix>3d</fix>
</trkpt>
<trkpt lat="40.0728554" lon="-105.2305927">
  <ele>1600.5</ele>
  <time>2026-08-28T19:13:01Z</time>
  <course>10.02</course>
  <speed>0.09219544457292887</speed>
  <fix>3d</fix>
</trkpt>
<trkpt lat="40.0728556" lon="-105.2305929">
  <ele>1600.61</ele>
  <time>2026-08-28T19:13:01Z</time>
  <course>10.02</course>
  <speed>0.09219544457292887</speed>
  <fix>3d</fix>
</trkpt>
<trkpt lat="40.0728557" lon="-105.230593">
  <ele>1600.39</ele>
  <time>2026-08-28T19:13:01Z</time>
  <course>312.29</course>
  <speed>0.12</speed>
  <fix>3d</fix>
</trkpt>
<trkpt lat="40.0728556" lon="-105.2305929">
  <ele>1600.63</ele>
  <time>2026-08-28T19:13:01Z</time>
  <course>10.01</course>
  <speed>0.09219544457292887</speed>
  <fix>3d</fix>
</trkpt>
<trkpt lat="40.0728557" lon="-105.2305931">
  <ele>1600.73</ele>
  <time>2026-08-28T19:13:01Z</time>
  <course>10.01</course>
  <speed>0.09219544457292887</speed>
  <fix>3d</fix>
</trkpt>
<trkpt lat="40.0728558" lon="-105.2305931">
  <ele>1600.52</ele>
  <time>2026-08-28T19:13:01Z</time>
  <course>312.22</course>
  <speed>0.12</speed>
  <fix>3d</fix>
</trkpt>
<trkpt lat="40.0728557" lon="-105.2305932">
  <ele>1600.75</ele>
  <time>2026-08-28T19:13:01Z</time>
  <course>10.01</course>
  <speed>0.09219544457292887</speed>
  <fix>3d</fix>
</trkpt>
<trkpt lat="40.0728559" lon="-105.2305933">
  <ele>1600.86</ele>
  <time>2026-08-28T19:13:01Z</time>
  <course>10.01</course>
  <speed>0.09219544457292887</speed>
  <fix>3d</fix>
</trkpt>
<trkpt lat="40.072856" lon="-105.2305934">
  <ele>1600.64</ele>
  <time>2026-08-28T19:13:01Z</time>
  <course>312.15</course>
  <speed>0.12</speed>
  <fix>3d</fix>
</trkpt>
<trkpt lat="40.0728559" lon="-105.2305934">
  <ele>1600.88</ele>
  <time>2026-08-28T19:13:01Z</time>
  <course>10.01</course>
  <speed>0.09219544457292887</speed>
  <fix>3d</fix>
</trkpt>
<trkpt lat="40.072856" lon="-105.2305936">
  <ele>1600.98</ele>
  <time>2026-08-28T19:13:01Z</time>
  <course>10.01</course>
  <speed>0.09219544457292887</speed>
  <fix>3d</fix>
</trkpt>
<trkpt lat="40.0728561" lon="-105.2305936">
  <ele>1600.77</ele>
  <time>2026-08-28T19:13:01Z</time>
  <course>312.09</course>
  <speed>0.12</speed>
  <fix>3d</fix>
</trkpt>
<trkpt lat="40.072856" lon="-105.2305936">
  <ele>1600.98</ele>
  <time>2026-08-28T19:13:01Z</time>
  <course>10.01</course>
  <speed>0.09219544457292887</speed>
  <fix>3d</fix>
</trkpt>
<trkpt lat="40.0728562" lon="-105.2305938">
  <ele>1601.11</ele>
  <time>2026-08-28T19:13:01Z</time>
  <course>10.01</course>
  <speed>0.09219544457292887</speed>
  <fix>3d</fix>
</trkpt>
<trkpt lat="40.0728563" lon="-105.2305939">
  <ele>1600.9</ele>
  <time>2026-08-28T19:13:01Z</time>
  <course>312.03</course>
  <speed>0.12</speed>
  <fix>3d</fix>
</trkpt>
<trkpt lat="40.0728562" lon="-105.2305938">
  <ele>1601.13</ele>
  <time>2026-08-28T19:13:01Z</time>
  <course>10.01</course>
  <speed>0.09219544457292887</speed>
  <fix>3d</fix>
</trkpt>
<trkpt lat="40.0728563" lon="-105.230594">
  <ele>1601.24</ele>
  <time>2026-08-28T19:13:01Z</time>
  <course>10.01</course>
  <speed>0.09219544457292887</speed>
  <fix>3d</fix>
</trkpt>
<trkpt lat="40.0728564" lon="-105.230594">
  <ele>1601.03</ele>
  <time>2026-08-28T19:13:01Z</time>
  <course>311.96</course>
  <speed>0.12</speed>
  <fix>3d</fix>
</trkpt>
<trkpt lat="40.0728563" lon="-105.230594">
  <ele>1601.26</ele>
  <time>2026-08-28T19:13:01Z</time>
  <course>10.01</course>
  <speed>0.09219544457292887</speed>
  <fix>3d</fix>
</trkpt>
<trkpt lat="40.0728565" lon="-105.2305942">
  <ele>1601.38</ele>
  <time>2026-08-28T19:13:01Z</time>
  <course>10.01</course>
  <speed>0.09219544457292887</speed>
  <fix>3d</fix>
</trkpt>
<trkpt lat="40.0728565" lon="-105.2305943">
  <ele>1601.16</ele>
  <time>2026-08-28T19:13:01Z</time>
  <course>311.74</course>
  <speed>0.12</speed>
  <fix>3d</fix>
</trkpt>
<trkpt lat="40.0728565" lon="-105.2305942">
  <ele>1601.4</ele>
  <time>2026-08-28T19:13:01Z</time>
  <course>10.02</course>
  <speed>0.09219544457292887</speed>
  <fix>3d</fix>
</trkpt>
<trkpt lat="40.0728566" lon="-105.2305944">
  <ele>1601.5</ele>
  <time>2026-08-28T19:13:01Z</time>
  <course>10.02</course>
  <speed>0.09219544457292887</speed>
  <fix>3d</fix>
</trkpt>
<trkpt lat="40.0728567" lon="-105.2305945">
  <ele>1601.29</ele>
  <time>2026-08-28T19:13:01Z</time>
  <course>311.53</course>
  <speed>0.12</speed>
  <fix>3d</fix>
</trkpt>
<trkpt lat="40.0728566" lon="-105.2305944">
  <ele>1601.51</ele>
  <time>2026-08-28T19:13:01Z</time>
  <course>10.02</course>
  <speed>0.09219544457292887</speed>
  <fix>3d</fix>
</trkpt>
<trkpt lat="40.0728568" lon="-105.2305946">
  <ele>1601.63</ele>
  <time>2026-08-28T19:13:01Z</time>
  <course>10.02</course>
  <speed>0.08602325267042626</speed>
  <fix>3d</fix>
</trkpt>
<trkpt lat="40.0728569" lon="-105.2305947">
  <ele>1601.41</ele>
  <time>2026-08-28T19:13:01Z</time>
  <course>311.44</course>
  <speed>0.12</speed>
  <fix>3d</fix>
</trkpt>
<trkpt lat="40.0728568" lon="-105.2305947">
  <ele>1601.65</ele>
  <time>2026-08-28T19:13:01Z</time>
  <course>10.02</course>
  <speed>0.08602325267042626</speed>
  <fix>3d</fix>
</trkpt>
<trkpt lat="40.0728569" lon="-105.2305948">
  <ele>1601.76</ele>
  <time>2026-08-28T19:13:01Z</time>
  <course>10.02</course>
  <speed>0.08602325267042626</speed>
  <fix>3d</fix>
</trkpt>
<trkpt lat="40.072857" lon="-105.2305949">
  <ele>1601.54</ele>
  <time>2026-08-28T19:13:01Z</time>
  <course>311.32</course>
  <speed>0.12</speed>
  <fix>3d</fix>
</trkpt>
<trkpt lat="40.0728569" lon="-105.2305949">
  <ele>1601.76</ele>
  <time>2026-08-28T19:13:01Z</time>
  <course>10.02</course>
  <speed>0.08602325267042626</speed>
  <fix>3d</fix>
</trkpt>
<trkpt lat="40.072857" lon="-105.2305951">
  <ele>1601.89</ele>
  <time>2026-08-28T19:13:01Z</time>
  <course>10.02</course>
  <speed>0.08602325267042626</speed>
  <fix>3d</fix>
</trkpt>
<trkpt lat="40.0728571" lon="-105.2305952">
  <ele>1601.66</ele>
  <time>2026-08-28T19:13:01Z</time>
  <course>311.19</course>
  <speed>0.12</speed>
  <fix>3d</fix>
</trkpt>
<trkpt lat="40.0728571" lon="-105.2305951">
  <ele>1601.91</ele>
  <time>2026-08-28T19:13:01Z</time>
  <course>10.02</course>
  <speed>0.08602325267042626</speed>
  <fix>3d</fix>
</trkpt>
<trkpt lat="40.0728572" lon="-105.2305953">
  <ele>1602.02</ele>
  <time>2026-08-28T19:13:01Z</time>
  <course>10.01</course>
  <speed>0.08602325267042626</speed>
  <fix>3d</fix>
</trkpt>
<trkpt lat="40.0728572" lon="-105.2305954">
  <ele>1601.79</ele>
  <time>2026-08-28T19:13:01Z</time>
  <course>311.1</course>
  <speed>0.12</speed>
  <fix>3d</fix>
</trkpt>
<trkpt lat="40.0728572" lon="-105.2305953">
  <ele>1602.04</ele>
  <time>2026-08-28T19:13:01Z</time>
  <course>10.01</course>
  <speed>0.08602325267042626</speed>
  <fix>3d</fix>
</trkpt>
<trkpt lat="40.0728573" lon="-105.2305955">
  <ele>1602.15</ele>
  <time>2026-08-28T19:13:01Z</time>
  <course>10.01</course>
  <speed>0.08602325267042626</speed>
  <fix>3d</fix>
</trkpt>
<trkpt lat="40.0728574" lon="-105.2305955">
  <ele>1601.9</ele>
  <time>2026-08-28T19:13:01Z</time>
  <course>311.1</course>
  <speed>0.12</speed>
  <fix>3d</fix>
</trkpt>
<trkpt lat="40.0728573" lon="-105.2305955">
  <ele>1602.15</ele>
  <time>2026-08-28T19:13:01Z</time>
  <course>10.01</course>
  <speed>0.08602325267042626</speed>
  <fix>3d</fix>
</trkpt>
<trkpt lat="40.0728575" lon="-105.2305957">
  <ele>1602.27</ele>
  <time>2026-08-28T19:13:01Z</time>
  <course>10.01</course>
  <speed>0.08602325267042626</speed>
  <fix>3d</fix>
</trkpt>
<trkpt lat="40.0728576" lon="-105.2305958">
  <ele>1602.03</ele>
  <time>2026-08-28T19:13:01Z</time>
  <course>311.09</course>
  <speed>0.12</speed>
  <fix>3d</fix>
</trkpt>
<trkpt lat="40.0728575" lon="-105.2305957">
  <ele>1602.29</ele>
  <time>2026-08-28T19:13:01Z</time>
  <course>10.01</course>
  <speed>0.08602325267042626</speed>
  <fix>3d</fix>
</trkpt>
<trkpt lat="40.0728576" lon="-105.2305959">
  <ele>1602.39</ele>
  <time>2026-08-28T19:13:01Z</time>
  <course>10.01</course>
  <speed>0.08602325267042626</speed>
  <fix>3d</fix>
</trkpt>
<trkpt lat="40.0728577" lon="-105.2305959">
  <ele>1602.14</ele>
  <time>2026-08-28T19:13:01Z</time>
  <course>310.88</course>
  <speed>0.12</speed>
  <fix>3d</fix>
</trkpt>
<trkpt lat="40.0728576" lon="-105.2305959">
  <ele>1602.39</ele>
  <time>2026-08-28T19:13:01Z</time>
  <course>10.01</course>
  <speed>0.08602325267042626</speed>
  <fix>3d</fix>
</trkpt>
<trkpt lat="40.0728577" lon="-105.2305961">
  <ele>1602.51</ele>
  <time>2026-08-28T19:13:01Z</time>
  <course>10.01</course>
  <speed>0.08602325267042626</speed>
  <fix>3d</fix>
</trkpt>
<trkpt lat="40.0728579" lon="-105.2305962">
  <ele>1602.27</ele>
  <time>2026-08-28T19:13:01Z</time>
  <course>310.69</course>
  <speed>0.12</speed>
  <fix>3d</fix>
</trkpt>
<trkpt lat="40.0728578" lon="-105.2305962">
  <ele>1602.52</ele>
  <time>2026-08-28T19:13:01Z</time>
  <course>10.01</course>
  <speed>0.08602325267042626</speed>
  <fix>3d</fix>
</trkpt>
<trkpt lat="40.0728579" lon="-105.2305963">
  <ele>1602.63</ele>
  <time>2026-08-28T19:13:01Z</time>
  <course>10.01</course>
  <speed>0.08602325267042626</speed>
  <fix>3d</fix>
</trkpt>
<trkpt lat="40.072858" lon="-105.2305964">
  <ele>1602.39</ele>
  <time>2026-08-28T19:13:01Z</time>
  <course>310.64</course>
  <speed>0.12</speed>
  <fix>3d</fix>
</trkpt>
<trkpt lat="40.0728579" lon="-105.2305964">
  <ele>1602.64</ele>
  <time>2026-08-28T19:13:01Z</time>
  <course>10.01</course>
  <speed>0.08602325267042626</speed>
  <fix>3d</fix>
</trkpt>
<trkpt lat="40.072858" lon="-105.2305966">
  <ele>1602.75</ele>
  <time>2026-08-28T19:13:01Z</time>
  <course>10.01</course>
  <speed>0.08602325267042626</speed>
  <fix>3d</fix>
</trkpt>
<trkpt lat="40.0728581" lon="-105.2305967">
  <ele>1602.52</ele>
  <time>2026-08-28T19:13:01Z</time>
  <course>310.61</course>
  <speed>0.12</speed>
  <fix>3d</fix>
</trkpt>
<trkpt lat="40.072858" lon="-105.2305966">
  <ele>1602.75</ele>
  <time>2026-08-28T19:13:01Z</time>
  <course>10.01</course>
  <speed>0.08602325267042626</speed>
  <fix>3d</fix>
</trkpt>
<trkpt lat="40.0728582" lon="-105.2305968">
  <ele>1602.87</ele>
  <time>2026-08-28T19:13:01Z</time>
  <course>10.01</course>
  <speed>0.08602325267042626</speed>
  <fix>3d</fix>
</trkpt>
<trkpt lat="40.0728583" lon="-105.2305969">
  <ele>1602.64</ele>
  <time>2026-08-28T19:13:01Z</time>
  <course>310.59</course>
  <speed>0.12</speed>
  <fix>3d</fix>
</trkpt>
<trkpt lat="40.0728582" lon="-105.2305968">
  <ele>1602.89</ele>
  <time>2026-08-28T19:13:01Z</time>
  <course>10.01</course>
  <speed>0.08602325267042626</speed>
  <fix>3d</fix>
</trkpt>
<trkpt lat="40.0728583" lon="-105.230597">
  <ele>1603.0</ele>
  <time>2026-08-28T19:13:01Z</time>
  <course>10.01</course>
  <speed>0.08602325267042626</speed>
  <fix>3d</fix>
</trkpt>
<trkpt lat="40.0728584" lon="-105.230597">
  <ele>1602.77</ele>
  <time>2026-08-28T19:13:01Z</time>
  <course>310.59</course>
  <speed>0.11</speed>
  <fix>3d</fix>
</trkpt>
<trkpt lat="40.0728583" lon="-105.230597">
  <ele>1603.02</ele>
  <time>2026-08-28T19:13:01Z</time>
  <course>10.01</course>
  <speed>0.08602325267042626</speed>
  <fix>3d</fix>
</trkpt>
<trkpt lat="40.0728584" lon="-105.2305972">
  <ele>1603.13</ele>
  <time>2026-08-28T19:13:01Z</time>
  <course>10.01</course>
  <speed>0.08602325267042626</speed>
  <fix>3d</fix>
</trkpt>
<trkpt lat="40.0728585" lon="-105.2305973">
  <ele>1602.89</ele>
  <time>2026-08-28T19:13:01Z</time>
  <course>310.58</course>
  <speed>0.11</speed>
  <fix>3d</fix>
</trkpt>
<trkpt lat="40.0728584" lon="-105.2305972">
  <ele>1603.13</ele>
  <time>2026-08-28T19:13:01Z</time>
  <course>10.01</course>
  <speed>0.08602325267042626</speed>
  <fix>3d</fix>
</trkpt>
<trkpt lat="40.0728586" lon="-105.2305974">
  <ele>1603.25</ele>
  <time>2026-08-28T19:13:01Z</time>
  <course>10.01</course>
  <speed>0.08602325267042626</speed>
  <fix>3d</fix>
</trkpt>
<trkpt lat="40.0728587" lon="-105.2305974">
  <ele>1603.02</ele>
  <time>2026-08-28T19:13:01Z</time>
  <course>310.49</course>
  <speed>0.11</speed>
  <fix>3d</fix>
</trkpt>
<trkpt lat="40.0728586" lon="-105.2305974">
  <ele>1603.27</ele>
  <time>2026-08-28T19:13:01Z</time>
  <course>10.01</course>
  <speed>0.08602325267042626</speed>
  <fix>3d</fix>
</trkpt>
<trkpt lat="40.0728587" lon="-105.2305976">
  <ele>1603.38</ele>
  <time>2026-08-28T19:13:01Z</time>
  <course>10.01</course>
  <speed>0.08602325267042626</speed>
  <fix>3d</fix>
</trkpt>
<trkpt lat="40.0728588" lon="-105.2305977">
  <ele>1603.14</ele>
  <time>2026-08-28T19:13:01Z</time>
  <course>310.44</course>
  <speed>0.11</speed>
  <fix>3d</fix>
</trkpt>
<trkpt lat="40.0728587" lon="-105.2305976">
  <ele>1603.38</ele>
  <time>2026-08-28T19:13:01Z</time>
  <course>10.01</course>
  <speed>0.08602325267042626</speed>
  <fix>3d</fix>
</trkpt>
<trkpt lat="40.0728589" lon="-105.2305978">
  <ele>1603.51</ele>
  <time>2026-08-28T19:13:01Z</time>
  <course>10.01</course>
  <speed>0.08602325267042626</speed>
  <fix>3d</fix>
</trkpt>
<trkpt lat="40.0728589" lon="-105.2305979">
  <ele>1603.27</ele>
  <time>2026-08-28T19:13:01Z</time>
  <course>310.4</course>
  <speed>0.11</speed>
  <fix>3d</fix>
</trkpt>
<trkpt lat="40.0728589" lon="-105.2305979">
  <ele>1603.53</ele>
  <time>2026-08-28T19:13:01Z</time>
  <course>10.01</course>
  <speed>0.08602325267042626</speed>
  <fix>3d</fix>
</trkpt>
<trkpt lat="40.072859" lon="-105.230598">
  <ele>1603.64</ele>
  <time>2026-08-28T19:13:01Z</time>
  <course>10.02</course>
  <speed>0.08602325267042626</speed>
  <fix>3d</fix>
</trkpt>
<trkpt lat="40.0728591" lon="-105.2305982">
  <ele>1603.39</ele>
  <time>2026-08-28T19:13:01Z</time>
  <course>310.13</course>
  <speed>0.11</speed>
  <fix>3d</fix>
</trkpt>
<trkpt lat="40.072859" lon="-105.2305981">
  <ele>1603.66</ele>
  <time>2026-08-28T19:13:01Z</time>
  <course>10.02</course>
  <speed>0.08602325267042626</speed>
  <fix>3d</fix>
</trkpt>
<trkpt lat="40.0728591" lon="-105.2305983">
  <ele>1603.76</ele>
  <time>2026-08-28T19:13:01Z</time>
  <course>10.02</course>
  <speed>0.08602325267042626</speed>
  <fix>3d</fix>
</trkpt>
<trkpt lat="40.0728593" lon="-105.2305983">
  <ele>1603.52</ele>
  <time>2026-08-28T19:13:01Z</time>
  <course>309.41</course>
  <speed>0.11</speed>
  <fix>3d</fix>
</trkpt>
<trkpt lat="40.0728591" lon="-105.2305983">
  <ele>1603.76</ele>
  <time>2026-08-28T19:13:01Z</time>
  <course>10.02</course>
  <speed>0.08602325267042626</speed>
  <fix>3d</fix>
</trkpt>
<trkpt lat="40.0728593" lon="-105.2305985">
  <ele>1603.89</ele>
  <time>2026-08-28T19:13:01Z</time>
  <course>10.02</course>
  <speed>0.08602325267042626</speed>
  <fix>3d</fix>
</trkpt>
<trkpt lat="40.0728594" lon="-105.2305986">
  <ele>1603.64</ele>
  <time>2026-08-28T19:13:01Z</time>
  <course>308.87</course>
  <speed>0.11</speed>
  <fix>3d</fix>
</trkpt>
<trkpt lat="40.0728593" lon="-105.2305985">
  <ele>1603.9</ele>
  <time>2026-08-28T19:13:01Z</time>
  <course>10.02</course>
  <speed>0.08602325267042626</speed>
  <fix>3d</fix>
</trkpt>
<trkpt lat="40.0728594" lon="-105.2305987">
  <ele>1604.01</ele>
  <time>2026-08-28T19:13:01Z</time>
  <course>10.02</course>
  <speed>0.08602325267042626</speed>
  <fix>3d</fix>
</trkpt>
<trkpt lat="40.0728595" lon="-105.2305988">
  <ele>1603.77</ele>
  <time>2026-08-28T19:13:01Z</time>
  <course>308.9</course>
  <speed>0.11</speed>
  <fix>3d</fix>
</trkpt>
<trkpt lat="40.0728594" lon="-105.2305987">
  <ele>1604.01</ele>
  <time>2026-08-28T19:13:01Z</time>
  <course>10.02</course>
  <speed>0.08602325267042626</speed>
  <fix>3d</fix>
</trkpt>
<trkpt lat="40.0728595" lon="-105.2305989">
  <ele>1604.13</ele>
  <time>2026-08-28T19:13:01Z</time>
  <course>10.01</course>
  <speed>0.08602325267042626</speed>
  <fix>3d</fix>
</trkpt>
<trkpt lat="40.0728596" lon="-105.2305989">
  <ele>1603.89</ele>
  <time>2026-08-28T19:13:01Z</time>
  <course>309.05</course>
  <speed>0.11</speed>
  <fix>3d</fix>
</trkpt>
<trkpt lat="40.0728595" lon="-105.2305989">
  <ele>1604.15</ele>
  <time>2026-08-28T19:13:01Z</time>
  <course>10.01</course>
  <speed>0.08602325267042626</speed>
  <fix>3d</fix>
</trkpt>
<trkpt lat="40.0728597" lon="-105.2305991">
  <ele>1604.26</ele>
  <time>2026-08-28T19:13:01Z</time>
  <course>10.01</course>
  <speed>0.08602325267042626</speed>
  <fix>3d</fix>
</trkpt>
<trkpt lat="40.0728598" lon="-105.2305992">
  <ele>1604.02</ele>
  <time>2026-08-28T19:13:01Z</time>
  <course>309.2</course>
  <speed>0.11</speed>
  <fix>3d</fix>
</trkpt>
<trkpt lat="40.0728597" lon="-105.2305991">
  <ele>1604.28</ele>
  <time>2026-08-28T19:13:01Z</time>
  <course>10.01</course>
  <speed>0.08602325267042626</speed>
  <fix>3d</fix>
</trkpt>
<trkpt lat="40.0728598" lon="-105.2305993">
  <ele>1604.39</ele>
  <time>2026-08-28T19:13:01Z</time>
  <course>10.01</course>
  <speed>0.08602325267042626</speed>
  <fix>3d</fix>
</trkpt>
<trkpt lat="40.0728599" lon="-105.2305994">
  <ele>1604.14</ele>
  <time>2026-08-28T19:13:01Z</time>
  <course>309.3</course>
  <speed>0.11</speed>
  <fix>3d</fix>
</trkpt>
<trkpt lat="40.0728598" lon="-105.2305994">
  <ele>1604.41</ele>
  <time>2026-08-28T19:13:01Z</time>
  <course>10.01</course>
  <speed>0.08602325267042626</speed>
  <fix>3d</fix>
</trkpt>
<trkpt lat="40.0728599" lon="-105.2305995">
  <ele>1604.52</ele>
  <time>2026-08-28T19:13:01Z</time>
  <course>10.01</course>
  <speed>0.08602325267042626</speed>
  <fix>3d</fix>
</trkpt>
<trkpt lat="40.0728601" lon="-105.2305997">
  <ele>1604.27</ele>
  <time>2026-08-28T19:13:01Z</time>
  <course>309.3</course>
  <speed>0.11</speed>
  <fix>3d</fix>
</trkpt>
<trkpt lat="40.0728599" lon="-105.2305996">
  <ele>1604.54</ele>
  <time>2026-08-28T19:13:01Z</time>
  <course>10.01</course>
  <speed>0.08602325267042626</speed>
  <fix>3d</fix>
</trkpt>
<trkpt lat="40.0728601" lon="-105.2305997">
  <ele>1604.65</ele>
  <time>2026-08-28T19:13:01Z</time>
  <course>10.01</course>
  <speed>0.08602325267042626</speed>
  <fix>3d</fix>
</trkpt>
<trkpt lat="40.0728602" lon="-105.2305998">
  <ele>1604.39</ele>
  <time>2026-08-28T19:13:01Z</time>
  <course>309.49</course>
  <speed>0.11</speed>
  <fix>3d</fix>
</trkpt>
<trkpt lat="40.0728601" lon="-105.2305997">
  <ele>1604.65</ele>
  <time>2026-08-28T19:13:01Z</time>
  <course>10.01</course>
  <speed>0.08602325267042626</speed>
  <fix>3d</fix>
</trkpt>
<trkpt lat="40.0728602" lon="-105.2306">
  <ele>1604.77</ele>
  <time>2026-08-28T19:13:01Z</time>
  <course>10.01</course>
  <speed>0.08602325267042626</speed>
  <fix>3d</fix>
</trkpt>
<trkpt lat="40.0728603" lon="-105.2306001">
  <ele>1604.52</ele>
  <time>2026-08-28T19:13:01Z</time>
  <course>310.0</course>
  <speed>0.11</speed>
  <fix>3d</fix>
</trkpt>
<trkpt lat="40.0728602" lon="-105.2306">
  <ele>1604.79</ele>
  <time>2026-08-28T19:13:01Z</time>
  <course>10.01</course>
  <speed>0.08602325267042626</speed>
  <fix>3d</fix>
</trkpt>
<trkpt lat="40.0728603" lon="-105.2306002">
  <ele>1604.89</ele>
  <time>2026-08-28T19:13:01Z</time>
  <course>10.01</course>
  <speed>0.08602325267042626</speed>
  <fix>3d</fix>
</trkpt>
<trkpt lat="40.0728605" lon="-105.2306002">
  <ele>1604.64</ele>
  <time>2026-08-28T19:13:01Z</time>
  <course>310.22</course>
  <speed>0.11</speed>
  <fix>3d</fix>
</trkpt>
<trkpt lat="40.0728604" lon="-105.2306002">
  <ele>1604.91</ele>
  <time>2026-08-28T19:13:01Z</time>
  <course>10.01</course>
  <speed>0.08602325267042626</speed>
  <fix>3d</fix>
</trkpt>
<trkpt lat="40.0728605" lon="-105.2306004">
  <ele>1605.01</ele>
  <time>2026-08-28T19:13:01Z</time>
  <course>10.01</course>
  <speed>0.08602325267042626</speed>
  <fix>3d</fix>
</trkpt>
<trkpt lat="40.0728606" lon="-105.2306005">
  <ele>1604.77</ele>
  <time>2026-08-28T19:13:01Z</time>
  <course>310.11</course>
  <speed>0.11</speed>
  <fix>3d</fix>
</trkpt>
<trkpt lat="40.0728605" lon="-105.2306004">
  <ele>1605.03</ele>
  <time>2026-08-28T19:13:01Z</time>
  <course>10.01</course>
  <speed>0.08602325267042626</speed>
  <fix>3d</fix>
</trkpt>
<trkpt lat="40.0728606" lon="-105.2306006">
  <ele>1605.13</ele>
  <time>2026-08-28T19:13:01Z</time>
  <course>10.01</course>
  <speed>0.07810249675906654</speed>
  <fix>3d</fix>
</trkpt>
<trkpt lat="40.0728607" lon="-105.2306007">
  <ele>1604.89</ele>
  <time>2026-08-28T19:13:01Z</time>
  <course>309.99</course>
  <speed>0.11</speed>
  <fix>3d</fix>
</trkpt>
<trkpt lat="40.0728606" lon="-105.2306006">
  <ele>1605.15</ele>
  <time>2026-08-28T19:13:01Z</time>
  <course>10.01</course>
  <speed>0.07810249675906654</speed>
  <fix>3d</fix>
</trkpt>
<trkpt lat="40.0728607" lon="-105.2306008">
  <ele>1605.25</ele>
  <time>2026-08-28T19:13:01Z</time>
  <course>10.01</course>
  <speed>0.07810249675906654</speed>
  <fix>3d</fix>
</trkpt>
<trkpt lat="40.0728608" lon="-105.2306008">
  <ele>1605.02</ele>
  <time>2026-08-28T19:13:01Z</time>
  <course>309.84</course>
  <speed>0.11</speed>
  <fix>3d</fix>
</trkpt>
<trkpt lat="40.0728608" lon="-105.2306008">
  <ele>1605.27</ele>
  <time>2026-08-28T19:13:01Z</time>
  <course>10.01</course>
  <speed>0.07810249675906654</speed>
  <fix>3d</fix>
</trkpt>
<trkpt lat="40.0728609" lon="-105.230601">
  <ele>1605.38</ele>
  <time>2026-08-28T19:13:01Z</time>
  <course>10.01</course>
  <speed>0.07810249675906654</speed>
  <fix>3d</fix>
</trkpt>
<trkpt lat="40.072861" lon="-105.2306011">
  <ele>1605.14</ele>
  <time>2026-08-28T19:13:01Z</time>
  <course>309.71</course>
  <speed>0.11</speed>
  <fix>3d</fix>
</trkpt>
<trkpt lat="40.0728609" lon="-105.230601">
  <ele>1605.38</ele>
  <time>2026-08-28T19:13:01Z</time>
  <course>10.01</course>
  <speed>0.07810249675906654</speed>
  <fix>3d</fix>
</trkpt>
<trkpt lat="40.072861" lon="-105.2306012">
  <ele>1605.51</ele>
  <time>2026-08-28T19:13:01Z</time>
  <course>10.01</course>
  <speed>0.07810249675906654</speed>
  <fix>3d</fix>
</trkpt>
<trkpt lat="40.0728611" lon="-105.2306013">
  <ele>1605.27</ele>
  <time>2026-08-28T19:13:01Z</time>
  <course>309.57</course>
  <speed>0.11</speed>
  <fix>3d</fix>
</trkpt>
<trkpt lat="40.072861" lon="-105.2306012">
  <ele>1605.52</ele>
  <time>2026-08-28T19:13:01Z</time>
  <course>10.01</course>
  <speed>0.07810249675906654</speed>
  <fix>3d</fix>
</trkpt>
<trkpt lat="40.0728611" lon="-105.2306014">
  <ele>1605.64</ele>
  <time>2026-08-28T19:13:01Z</time>
  <course>10.01</course>
  <speed>0.07810249675906654</speed>
  <fix>3d</fix>
</trkpt>
<trkpt lat="40.0728613" lon="-105.2306016">
  <ele>1605.4</ele>
  <time>2026-08-28T19:13:01Z</time>
  <course>309.47</course>
  <speed>0.11</speed>
  <fix>3d</fix>
</trkpt>
<trkpt lat="40.0728612" lon="-105.2306014">
  <ele>1605.66</ele>
  <time>2026-08-28T19:13:01Z</time>
  <course>10.01</course>
  <speed>0.07810249675906654</speed>
  <fix>3d</fix>
</trkpt>
<trkpt lat="40.0728613" lon="-105.2306016">
  <ele>1605.77</ele>
  <time>2026-08-28T19:13:01Z</time>
  <course>10.01</course>
  <speed>0.07810249675906654</speed>
  <fix>3d</fix>
</trkpt>
<trkpt lat="40.0728614" lon="-105.2306017">
  <ele>1605.53</ele>
  <time>2026-08-28T19:13:01Z</time>
  <course>309.33</course>
  <speed>0.11</speed>
  <fix>3d</fix>
</trkpt>
<trkpt lat="40.0728613" lon="-105.2306016">
  <ele>1605.78</ele>
  <time>2026-08-28T19:13:01Z</time>
  <course>10.01</course>
  <speed>0.07810249675906654</speed>
  <fix>3d</fix>
</trkpt>
<trkpt lat="40.0728614" lon="-105.2306018">
  <ele>1605.9</ele>
  <time>2026-08-28T19:13:01Z</time>
  <course>10.01</course>
  <speed>0.07211102550927978</speed>
  <fix>3d</fix>
</trkpt>
<trkpt lat="40.0728615" lon="-105.230602">
  <ele>1605.65</ele>
  <time>2026-08-28T19:13:01Z</time>
  <course>309.05</course>
  <speed>0.11</speed>
  <fix>3d</fix>
</trkpt>
<trkpt lat="40.0728614" lon="-105.2306018">
  <ele>1605.9</ele>
  <time>2026-08-28T19:13:01Z</time>
  <course>10.01</course>
  <speed>0.07211102550927978</speed>
  <fix>3d</fix>
</trkpt>
<trkpt lat="40.0728615" lon="-105.230602">
  <ele>1606.02</ele>
  <time>2026-08-28T19:13:01Z</time>
  <course>10.01</course>
  <speed>0.07211102550927978</speed>
  <fix>3d</fix>
</trkpt>
<trkpt lat="40.0728616" lon="-105.2306021">
  <ele>1605.78</ele>
  <time>2026-08-28T19:13:01Z</time>
  <course>308.96</course>
  <speed>0.11</speed>
  <fix>3d</fix>
</trkpt>
<trkpt lat="40.0728615" lon="-105.2306021">
  <ele>1606.04</ele>
  <time>2026-08-28T19:13:01Z</time>
  <course>10.01</course>
  <speed>0.07211102550927978</speed>
  <fix>3d</fix>
</trkpt>
<trkpt lat="40.0728616" lon="-105.2306022">
  <ele>1606.15</ele>
  <time>2026-08-28T19:13:01Z</time>
  <course>10.01</course>
  <speed>0.07211102550927978</speed>
  <fix>3d</fix>
</trkpt>
<trkpt lat="40.0728618" lon="-105.2306024">
  <ele>1605.9</ele>
  <time>2026-08-28T19:13:01Z</time>
  <course>308.86</course>
  <speed>0.11</speed>
  <fix>3d</fix>
</trkpt>
<trkpt lat="40.0728617" lon="-105.2306023">
  <ele>1606.16</ele>
  <time>2026-08-28T19:13:01Z</time>
  <course>10.01</course>
  <speed>0.07211102550927978</speed>
  <fix>3d</fix>
</trkpt>
<trkpt lat="40.0728618" lon="-105.2306025">
  <ele>1606.27</ele>
  <time>2026-08-28T19:13:01Z</time>
  <course>10.01</course>
  <speed>0.07211102550927978</speed>
  <fix>3d</fix>
</trkpt>
<trkpt lat="40.0728619" lon="-105.2306026">
  <ele>1606.03</ele>
  <time>2026-08-28T19:13:01Z</time>
  <course>308.54</course>
  <speed>0.11</speed>
  <fix>3d</fix>
</trkpt>
<trkpt lat="40.0728618" lon="-105.2306025">
  <ele>1606.29</ele>
  <time>2026-08-28T19:13:01Z</time>
  <course>10.01</course>
  <speed>0.07211102550927978</speed>
  <fix>3d</fix>
</trkpt>
<trkpt lat="40.0728619" lon="-105.2306027">
  <ele>1606.4</ele>
  <time>2026-08-28T19:13:01Z</time>
  <course>10.01</course>
  <speed>0.07211102550927978</speed>
  <fix>3d</fix>
</trkpt>
<trkpt lat="40.072862" lon="-105.2306027">
  <ele>1606.15</ele>
  <time>2026-08-28T19:13:01Z</time>
  <course>308.44</course>
  <speed>0.11</speed>
  <fix>3d</fix>
</trkpt>
<trkpt lat="40.0728619" lon="-105.2306027">
  <ele>1606.41</ele>
  <time>2026-08-28T19:13:01Z</time>
  <course>10.01</course>
  <speed>0.07211102550927978</speed>
  <fix>3d</fix>
</trkpt>
<trkpt lat="40.072862" lon="-105.2306029">
  <ele>1606.52</ele>
  <time>2026-08-28T19:13:01Z</time>
  <course>10.01</course>
  <speed>0.07211102550927978</speed>
  <fix>3d</fix>
</trkpt>
<trkpt lat="40.0728621" lon="-105.230603">
  <ele>1606.28</ele>
  <time>2026-08-28T19:13:01Z</time>
  <course>308.49</course>
  <speed>0.11</speed>
  <fix>3d</fix>
</trkpt>
<trkpt lat="40.072862" lon="-105.2306029">
  <ele>1606.52</ele>
  <time>2026-08-28T19:13:01Z</time>
  <course>10.01</course>
  <speed>0.07211102550927978</speed>
  <fix>3d</fix>
</trkpt>
<trkpt lat="40.0728621" lon="-105.2306031">
  <ele>1606.64</ele>
  <time>2026-08-28T19:13:01Z</time>
  <course>10.01</course>
  <speed>0.07211102550927978</speed>
  <fix>3d</fix>
</trkpt>
<trkpt lat="40.0728623" lon="-105.2306031">
  <ele>1606.41</ele>
  <time>2026-08-28T19:13:01Z</time>
  <course>308.54</course>
  <speed>0.11</speed>
  <fix>3d</fix>
</trkpt>
<trkpt lat="40.0728622" lon="-105.2306031">
  <ele>1606.66</ele>
  <time>2026-08-28T19:13:01Z</time>
  <course>10.01</course>
  <speed>0.07211102550927978</speed>
  <fix>3d</fix>
</trkpt>
<trkpt lat="40.0728623" lon="-105.2306033">
  <ele>1606.77</ele>
  <time>2026-08-28T19:13:01Z</time>
  <course>10.01</course>
  <speed>0.07211102550927978</speed>
  <fix>3d</fix>
</trkpt>
<trkpt lat="40.0728624" lon="-105.2306034">
  <ele>1606.54</ele>
  <time>2026-08-28T19:13:01Z</time>
  <course>308.62</course>
  <speed>0.11</speed>
  <fix>3d</fix>
</trkpt>
<trkpt lat="40.0728623" lon="-105.2306033">
  <ele>1606.78</ele>
  <time>2026-08-28T19:13:01Z</time>
  <course>10.01</course>
  <speed>0.07211102550927978</speed>
  <fix>3d</fix>
</trkpt>
<trkpt lat="40.0728624" lon="-105.2306035">
  <ele>1606.9</ele>
  <time>2026-08-28T19:13:01Z</time>
  <course>10.01</course>
  <speed>0.07211102550927978</speed>
  <fix>3d</fix>
</trkpt>
<trkpt lat="40.0728625" lon="-105.2306036">
  <ele>1606.66</ele>
  <time>2026-08-28T19:13:01Z</time>
  <course>308.68</course>
  <speed>0.11</speed>
  <fix>3d</fix>
</trkpt>
<trkpt lat="40.0728624" lon="-105.2306035">
  <ele>1606.9</ele>
  <time>2026-08-28T19:13:01Z</time>
  <course>10.01</course>
  <speed>0.07211102550927978</speed>
  <fix>3d</fix>
</trkpt>
<trkpt lat="40.0728625" lon="-105.2306037">
  <ele>1607.03</ele>
  <time>2026-08-28T19:13:01Z</time>
  <course>10.01</course>
  <speed>0.07211102550927978</speed>
  <fix>3d</fix>
</trkpt>
<trkpt lat="40.0728626" lon="-105.2306037">
  <ele>1606.79</ele>
  <time>2026-08-28T19:13:01Z</time>
  <course>308.71</course>
  <speed>0.11</speed>
  <fix>3d</fix>
</trkpt>
<trkpt lat="40.0728625" lon="-105.2306037">
  <ele>1607.04</ele>
  <time>2026-08-28T19:13:01Z</time>
  <course>10.01</course>
  <speed>0.07211102550927978</speed>
  <fix>3d</fix>
</trkpt>
<trkpt lat="40.0728626" lon="-105.2306039">
  <ele>1607.15</ele>
  <time>2026-08-28T19:13:01Z</time>
  <course>10.01</course>
  <speed>0.07211102550927978</speed>
  <fix>3d</fix>
</trkpt>
<trkpt lat="40.0728627" lon="-105.230604">
  <ele>1606.91</ele>
  <time>2026-08-28T19:13:01Z</time>
  <course>308.4</course>
  <speed>0.1</speed>
  <fix>3d</fix>
</trkpt>
<trkpt lat="40.0728627" lon="-105.2306039">
  <ele>1607.17</ele>
  <time>2026-08-28T19:13:01Z</time>
  <course>10.01</course>
  <speed>0.07211102550927978</speed>
  <fix>3d</fix>
</trkpt>
<trkpt lat="40.0728628" lon="-105.2306041">
  <ele>1607.27</ele>
  <time>2026-08-28T19:13:01Z</time>
  <course>10.01</course>
  <speed>0.07211102550927978</speed>
  <fix>3d</fix>
</trkpt>
<trkpt lat="40.0728629" lon="-105.2306041">
  <ele>1607.04</ele>
  <time>2026-08-28T19:13:01Z</time>
  <course>308.12</course>
  <speed>0.1</speed>
  <fix>3d</fix>
</trkpt>
<trkpt lat="40.0728628" lon="-105.2306041">
  <ele>1607.29</ele>
  <time>2026-08-28T19:13:01Z</time>
  <course>10.01</course>
  <speed>0.07211102550927978</speed>
  <fix>3d</fix>
</trkpt>
<trkpt lat="40.0728629" lon="-105.2306043">
  <ele>1607.4</ele>
  <time>2026-08-28T19:13:01Z</time>
  <course>10.01</course>
  <speed>0.07211102550927978</speed>
  <fix>3d</fix>
</trkpt>
<trkpt lat="40.072863" lon="-105.2306044">
  <ele>1607.16</ele>
  <time>2026-08-28T19:13:01Z</time>
  <course>308.15</course>
  <speed>0.1</speed>
  <fix>3d</fix>
</trkpt>
<trkpt lat="40.0728629" lon="-105.2306043">
  <ele>1607.41</ele>
  <time>2026-08-28T19:13:01Z</time>
  <course>10.01</course>
  <speed>0.07211102550927978</speed>
  <fix>3d</fix>
</trkpt>
<trkpt lat="40.072863" lon="-105.2306045">
  <ele>1607.52</ele>
  <time>2026-08-28T19:13:01Z</time>
  <course>10.01</course>
  <speed>0.07211102550927978</speed>
  <fix>3d</fix>
</trkpt>
<trkpt lat="40.0728631" lon="-105.2306045">
  <ele>1607.29</ele>
  <time>2026-08-28T19:13:01Z</time>
  <course>308.16</course>
  <speed>0.1</speed>
  <fix>3d</fix>
</trkpt>
<trkpt lat="40.072863" lon="-105.2306045">
  <ele>1607.54</ele>
  <time>2026-08-28T19:13:01Z</time>
  <course>10.01</course>
  <speed>0.07211102550927978</speed>
  <fix>3d</fix>
</trkpt>
<trkpt lat="40.0728631" lon="-105.2306047">
  <ele>1607.65</ele>
  <time>2026-08-28T19:13:01Z</time>
  <course>10.01</course>
  <speed>0.07211102550927978</speed>
  <fix>3d</fix>
</trkpt>
<trkpt lat="40.0728632" lon="-105.2306048">
  <ele>1607.42</ele>
  <time>2026-08-28T19:13:01Z</time>
  <course>308.18</course>
  <speed>0.1</speed>
  <fix>3d</fix>
</trkpt>
<trkpt lat="40.0728631" lon="-105.2306047">
  <ele>1607.68</ele>
  <time>2026-08-28T19:13:01Z</time>
  <course>10.01</course>
  <speed>0.07211102550927978</speed>
  <fix>3d</fix>
</trkpt>
<trkpt lat="40.0728632" lon="-105.2306049">
  <ele>1607.78</ele>
  <time>2026-08-28T19:13:01Z</time>
  <course>10.01</course>
  <speed>0.07211102550927978</speed>
  <fix>3d</fix>
</trkpt>
<trkpt lat="40.0728634" lon="-105.230605">
  <ele>1607.55</ele>
  <time>2026-08-28T19:13:01Z</time>
  <course>308.08</course>
  <speed>0.1</speed>
  <fix>3d</fix>
</trkpt>
<trkpt lat="40.0728633" lon="-105.2306049">
  <ele>1607.8</ele>
  <time>2026-08-28T19:13:01Z</time>
  <course>10.01</course>
  <speed>0.07211102550927978</speed>
  <fix>3d</fix>
</trkpt>
<trkpt lat="40.0728634" lon="-105.2306051">
  <ele>1607.91</ele>
  <time>2026-08-28T19:13:01Z</time>
  <course>10.01</course>
  <speed>0.07211102550927978</speed>
  <fix>3d</fix>
</trkpt>
<trkpt lat="40.0728635" lon="-105.2306051">
  <ele>1607.67</ele>
  <time>2026-08-28T19:13:01Z</time>
  <course>307.99</course>
  <speed>0.1</speed>
  <fix>3d</fix>
</trkpt>
<trkpt lat="40.0728634" lon="-105.2306051">
  <ele>1607.91</ele>
  <time>2026-08-28T19:13:01Z</time>
  <course>10.01</course>
  <speed>0.07211102550927978</speed>
  <fix>3d</fix>
</trkpt>
<trkpt lat="40.0728635" lon="-105.2306053">
  <ele>1608.03</ele>
  <time>2026-08-28T19:13:01Z</time>
  <course>10.01</course>
  <speed>0.07211102550927978</speed>
  <fix>3d</fix>
</trkpt>
<trkpt lat="40.0728636" lon="-105.2306054">
  <ele>1607.8</ele>
  <time>2026-08-28T19:13:01Z</time>
  <course>308.18</course>
  <speed>0.1</speed>
  <fix>3d</fix>
</trkpt>
<trkpt lat="40.0728635" lon="-105.2306053">
  <ele>1608.05</ele>
  <time>2026-08-28T19:13:01Z</time>
  <course>10.01</course>
  <speed>0.07211102550927978</speed>
  <fix>3d</fix>
</trkpt>
<trkpt lat="40.0728636" lon="-105.2306055">
  <ele>1608.16</ele>
  <time>2026-08-28T19:13:01Z</time>
  <course>10.01</course>
  <speed>0.07211102550927978</speed>
  <fix>3d</fix>
</trkpt>
<trkpt lat="40.0728637" lon="-105.2306055">
  <ele>1607.92</ele>
  <time>2026-08-28T19:13:01Z</time>
  <course>308.32</course>
  <speed>0.1</speed>
  <fix>3d</fix>
</trkpt>
<trkpt lat="40.0728636" lon="-105.2306055">
  <ele>1608.18</ele>
  <time>2026-08-28T19:13:01Z</time>
  <course>10.01</course>
  <speed>0.07211102550927978</speed>
  <fix>3d</fix>
</trkpt>
<trkpt lat="40.0728637" lon="-105.2306057">
  <ele>1608.29</ele>
  <time>2026-08-28T19:13:01Z</time>
  <course>10.01</course>
  <speed>0.07211102550927978</speed>
  <fix>3d</fix>
</trkpt>
<trkpt lat="40.0728638" lon="-105.2306058">
  <ele>1608.05</ele>
  <time>2026-08-28T19:13:01Z</time>
  <course>308.31</course>
  <speed>0.1</speed>
  <fix>3d</fix>
</trkpt>
<trkpt lat="40.0728637" lon="-105.2306057">
  <ele>1608.31</ele>
  <time>2026-08-28T19:13:01Z</time>
  <course>10.01</course>
  <speed>0.07211102550927978</speed>
  <fix>3d</fix>
</trkpt>
<trkpt lat="40.0728638" lon="-105.2306059">
  <ele>1608.41</ele>
  <time>2026-08-28T19:13:01Z</time>
  <course>10.01</course>
  <speed>0.07211102550927978</speed>
  <fix>3d</fix>
</trkpt>
<trkpt lat="40.0728639" lon="-105.230606">
  <ele>1608.17</ele>
  <time>2026-08-28T19:13:01Z</time>
  <course>308.29</course>
  <speed>0.1</speed>
  <fix>3d</fix>
</trkpt>
<trkpt lat="40.0728638" lon="-105.2306059">
  <ele>1608.41</ele>
  <time>2026-08-28T19:13:01Z</time>
  <course>10.01</course>
  <speed>0.07211102550927978</speed>
  <fix>3d</fix>
</trkpt>
<trkpt lat="40.0728639" lon="-105.2306061">
  <ele>1608.54</ele>
  <time>2026-08-28T19:13:01Z</time>
  <course>10.01</course>
  <speed>0.07211102550927978</speed>
  <fix>3d</fix>
</trkpt>
<trkpt lat="40.072864" lon="-105.2306061">
  <ele>1608.3</ele>
  <time>2026-08-28T19:13:01Z</time>
  <course>308.28</course>
  <speed>0.1</speed>
  <fix>3d</fix>
</trkpt>
<trkpt lat="40.072864" lon="-105.2306061">
  <ele>1608.56</ele>
  <time>2026-08-28T19:13:01Z</time>
  <course>10.01</course>
  <speed>0.07211102550927978</speed>
  <fix>3d</fix>
</trkpt>
<trkpt lat="40.0728641" lon="-105.2306062">
  <ele>1608.66</ele>
  <time>2026-08-28T19:13:01Z</time>
  <course>10.01</course>
  <speed>0.07211102550927978</speed>
  <fix>3d</fix>
</trkpt>
<trkpt lat="40.0728642" lon="-105.2306064">
  <ele>1608.42</ele>
  <time>2026-08-28T19:13:01Z</time>
  <course>308.35</course>
  <speed>0.1</speed>
  <fix>3d</fix>
</trkpt>
<trkpt lat="40.0728641" lon="-105.2306063">
  <ele>1608.67</ele>
  <time>2026-08-28T19:13:01Z</time>
  <course>10.01</course>
  <speed>0.07211102550927978</speed>
  <fix>3d</fix>
</trkpt>
<trkpt lat="40.0728642" lon="-105.2306064">
  <ele>1608.79</ele>
  <time>2026-08-28T19:13:01Z</time>
  <course>10.01</course>
  <speed>0.07211102550927978</speed>
  <fix>3d</fix>
</trkpt>
<trkpt lat="40.0728643" lon="-105.2306065">
  <ele>1608.55</ele>
  <time>2026-08-28T19:13:01Z</time>
  <course>308.37</course>
  <speed>0.1</speed>
  <fix>3d</fix>
</trkpt>
<trkpt lat="40.0728642" lon="-105.2306065">
  <ele>1608.81</ele>
  <time>2026-08-28T19:13:01Z</time>
  <course>10.01</course>
  <speed>0.07211102550927978</speed>
  <fix>3d</fix>
</trkpt>
<trkpt lat="40.0728643" lon="-105.2306066">
  <ele>1608.91</ele>
  <time>2026-08-28T19:13:01Z</time>
  <course>10.01</course>
  <speed>0.07211102550927978</speed>
  <fix>3d</fix>
</trkpt>
<trkpt lat="40.0728644" lon="-105.2306068">
  <ele>1608.67</ele>
  <time>2026-08-28T19:13:01Z</time>
  <course>308.36</course>
  <speed>0.1</speed>
  <fix>3d</fix>
</trkpt>
<trkpt lat="40.0728643" lon="-105.2306067">
  <ele>1608.93</ele>
  <time>2026-08-28T19:13:01Z</time>
  <course>10.01</course>
  <speed>0.07211102550927978</speed>
  <fix>3d</fix>
</trkpt>
<trkpt lat="40.0728644" lon="-105.2306068">
  <ele>1609.03</ele>
  <time>2026-08-28T19:13:01Z</time>
  <course>10.01</course>
  <speed>0.07211102550927978</speed>
  <fix>3d</fix>
</trkpt>
<trkpt lat="40.0728645" lon="-105.2306069">
  <ele>1608.8</ele>
  <time>2026-08-28T19:13:01Z</time>
  <course>308.38</course>
  <speed>0.1</speed>
  <fix>3d</fix>
</trkpt>
<trkpt lat="40.0728644" lon="-105.2306068">
  <ele>1609.03</ele>
  <time>2026-08-28T19:13:01Z</time>
  <course>10.01</course>
  <speed>0.07211102550927978</speed>
  <fix>3d</fix>
</trkpt>
<trkpt lat="40.0728645" lon="-105.230607">
  <ele>1609.15</ele>
  <time>2026-08-28T19:13:01Z</time>
  <course>10.01</course>
  <speed>0.07211102550927978</speed>
  <fix>3d</fix>
</trkpt>
<trkpt lat="40.0728646" lon="-105.2306072">
  <ele>1608.92</ele>
  <time>2026-08-28T19:13:01Z</time>
  <course>308.39</course>
  <speed>0.1</speed>
  <fix>3d</fix>
</trkpt>
<trkpt lat="40.0728645" lon="-105.2306071">
  <ele>1609.17</ele>
  <time>2026-08-28T19:13:01Z</time>
  <course>10.01</course>
  <speed>0.07211102550927978</speed>
  <fix>3d</fix>
</trkpt>
<trkpt lat="40.0728646" lon="-105.2306072">
  <ele>1609.27</ele>
  <time>2026-08-28T19:13:01Z</time>
  <course>10.01</course>
  <speed>0.07211102550927978</speed>
  <fix>3d</fix>
</trkpt>
<trkpt lat="40.0728648" lon="-105.2306074">
  <ele>1609.05</ele>
  <time>2026-08-28T19:13:01Z</time>
  <course>308.36</course>
  <speed>0.1</speed>
  <fix>3d</fix>
</trkpt>
<trkpt lat="40.0728646" lon="-105.2306072">
  <ele>1609.27</ele>
  <time>2026-08-28T19:13:01Z</time>
  <course>10.01</course>
  <speed>0.07211102550927978</speed>
  <fix>3d</fix>
</trkpt>
<trkpt lat="40.0728648" lon="-105.2306074">
  <ele>1609.4</ele>
  <time>2026-08-28T19:13:01Z</time>
  <course>10.01</course>
  <speed>0.07211102550927978</speed>
  <fix>3d</fix>
</trkpt>
<trkpt lat="40.0728649" lon="-105.2306075">
  <ele>1609.17</ele>
  <time>2026-08-28T19:13:01Z</time>
  <course>308.33</course>
  <speed>0.1</speed>
  <fix>3d</fix>
</trkpt>
<trkpt lat="40.0728648" lon="-105.2306075">
  <ele>1609.42</ele>
  <time>2026-08-28T19:13:01Z</time>
  <course>10.01</course>
  <speed>0.07211102550927978</speed>
  <fix>3d</fix>
</trkpt>
<trkpt lat="40.0728649" lon="-105.2306076">
  <ele>1609.53</ele>
  <time>2026-08-28T19:13:01Z</time>
  <course>10.01</course>
  <speed>0.07211102550927978</speed>
  <fix>3d</fix>
</trkpt>
<trkpt lat="40.072865" lon="-105.2306078">
  <ele>1609.3</ele>
  <time>2026-08-28T19:13:01Z</time>
  <course>308.34</course>
  <speed>0.1</speed>
  <fix>3d</fix>
</trkpt>
<trkpt lat="40.0728649" lon="-105.2306077">
  <ele>1609.55</ele>
  <time>2026-08-28T19:13:01Z</time>
  <course>10.01</course>
  <speed>0.07211102550927978</speed>
  <fix>3d</fix>
</trkpt>
<trkpt lat="40.072865" lon="-105.2306078">
  <ele>1609.66</ele>
  <time>2026-08-28T19:13:01Z</time>
  <course>10.01</course>
  <speed>0.07211102550927978</speed>
  <fix>3d</fix>
</trkpt>
<trkpt lat="40.0728651" lon="-105.2306079">
  <ele>1609.43</ele>
  <time>2026-08-28T19:13:01Z</time>
  <course>308.23</course>
  <speed>0.1</speed>
  <fix>3d</fix>
</trkpt>
<trkpt lat="40.072865" lon="-105.2306078">
  <ele>1609.66</ele>
  <time>2026-08-28T19:13:01Z</time>
  <course>10.01</course>
  <speed>0.07211102550927978</speed>
  <fix>3d</fix>
</trkpt>
<trkpt lat="40.0728651" lon="-105.230608">
  <ele>1609.78</ele>
  <time>2026-08-28T19:13:01Z</time>
  <course>10.01</course>
  <speed>0.07211102550927978</speed>
  <fix>3d</fix>
</trkpt>
<trkpt lat="40.0728652" lon="-105.2306082">
  <ele>1609.56</ele>
  <time>2026-08-28T19:13:01Z</time>
  <course>308.19</course>
  <speed>0.1</speed>
  <fix>3d</fix>
</trkpt>
<trkpt lat="40.0728651" lon="-105.230608">
  <ele>1609.78</ele>
  <time>2026-08-28T19:13:01Z</time>
  <course>10.01</course>
  <speed>0.07211102550927978</speed>
  <fix>3d</fix>
</trkpt>
<trkpt lat="40.0728652" lon="-105.2306082">
  <ele>1609.91</ele>
  <time>2026-08-28T19:13:01Z</time>
  <course>10.01</course>
  <speed>0.07211102550927978</speed>
  <fix>3d</fix>
</trkpt>
<trkpt lat="40.0728654" lon="-105.2306083">
  <ele>1609.69</ele>
  <time>2026-08-28T19:13:01Z</time>
  <course>308.18</course>
  <speed>0.1</speed>
  <fix>3d</fix>
</trkpt>
<trkpt lat="40.0728653" lon="-105.2306083">
  <ele>1609.93</ele>
  <time>2026-08-28T19:13:01Z</time>
  <course>10.01</course>
  <speed>0.07211102550927978</speed>
  <fix>3d</fix>
</trkpt>
<trkpt lat="40.0728654" lon="-105.2306084">
  <ele>1610.04</ele>
  <time>2026-08-28T19:13:01Z</time>
  <course>10.01</course>
  <speed>0.07211102550927978</speed>
  <fix>3d</fix>
</trkpt>
<trkpt lat="40.0728655" lon="-105.2306084">
  <ele>1609.81</ele>
  <time>2026-08-28T19:13:01Z</time>
  <course>308.09</course>
  <speed>0.1</speed>
  <fix>3d</fix>
</trkpt>
<trkpt lat="40.0728654" lon="-105.2306084">
  <ele>1610.04</ele>
  <time>2026-08-28T19:13:01Z</time>
  <course>10.01</course>
  <speed>0.07211102550927978</speed>
  <fix>3d</fix>
</trkpt>
<trkpt lat="40.0728655" lon="-105.2306086">
  <ele>1610.16</ele>
  <time>2026-08-28T19:13:01Z</time>
  <course>10.01</course>
  <speed>0.07211102550927978</speed>
  <fix>3d</fix>
</trkpt>
<trkpt lat="40.0728656" lon="-105.2306087">
  <ele>1609.94</ele>
  <time>2026-08-28T19:13:01Z</time>
  <course>308.06</course>
  <speed>0.1</speed>
  <fix>3d</fix>
</trkpt>
<trkpt lat="40.0728655" lon="-105.2306086">
  <ele>1610.18</ele>
  <time>2026-08-28T19:13:01Z</time>
  <course>10.01</course>
  <speed>0.07211102550927978</speed>
  <fix>3d</fix>
</trkpt>
<trkpt lat="40.0728656" lon="-105.2306088">
  <ele>1610.29</ele>
  <time>2026-08-28T19:13:01Z</time>
  <course>10.01</course>
  <speed>0.07211102550927978</speed>
  <fix>3d</fix>
</trkpt>
<trkpt lat="40.0728657" lon="-105.2306088">
  <ele>1610.07</ele>
  <time>2026-08-28T19:13:01Z</time>
  <course>307.94</course>
  <speed>0.1</speed>
  <fix>3d</fix>
</trkpt>
<trkpt lat="40.0728656" lon="-105.2306088">
  <ele>1610.29</ele>
  <time>2026-08-28T19:13:01Z</time>
  <course>10.01</course>
  <speed>0.07211102550927978</speed>
  <fix>3d</fix>
</trkpt>
<trkpt lat="40.0728657" lon="-105.230609">
  <ele>1610.42</ele>
  <time>2026-08-28T19:13:02Z</time>
  <course>10.01</course>
  <speed>0.07211102550927978</speed>
  <fix>3d</fix>
</trkpt>
<trkpt lat="40.0728658" lon="-105.2306091">
  <ele>1610.19</ele>
  <time>2026-08-28T19:13:02Z</time>
  <course>307.9</course>
  <speed>0.1</speed>
  <fix>3d</fix>
</trkpt>
<trkpt lat="40.0728657" lon="-105.230609">
  <ele>1610.44</ele>
  <time>2026-08-28T19:13:02Z</time>
  <course>10.01</course>
  <speed>0.07211102550927978</speed>
  <fix>3d</fix>
</trkpt>
<trkpt lat="40.0728658" lon="-105.2306092">
  <ele>1610.55</ele>
  <time>2026-08-28T19:13:02Z</time>
  <course>10.01</course>
  <speed>0.07211102550927978</speed>
  <fix>3d</fix>
</trkpt>
<trkpt lat="40.072866" lon="-105.2306093">
  <ele>1610.32</ele>
  <time>2026-08-28T19:13:02Z</time>
  <course>307.97</course>
  <speed>0.1</speed>
  <fix>3d</fix>
</trkpt>
<trkpt lat="40.0728659" lon="-105.2306092">
  <ele>1610.57</ele>
  <time>2026-08-28T19:13:02Z</time>
  <course>10.01</course>
  <speed>0.07211102550927978</speed>
  <fix>3d</fix>
</trkpt>
<trkpt lat="40.072866" lon="-105.2306094">
  <ele>1610.67</ele>
  <time>2026-08-28T19:13:02Z</time>
  <course>10.01</course>
  <speed>0.07211102550927978</speed>
  <fix>3d</fix>
</trkpt>
<trkpt lat="40.0728661" lon="-105.2306094">
  <ele>1610.45</ele>
  <time>2026-08-28T19:13:02Z</time>
  <course>307.93</course>
  <speed>0.1</speed>
  <fix>3d</fix>
</trkpt>
<trkpt lat="40.072866" lon="-105.2306094">
  <ele>1610.69</ele>
  <time>2026-08-28T19:13:02Z</time>
  <course>10.01</course>
  <speed>0.07211102550927978</speed>
  <fix>3d</fix>
</trkpt>
<trkpt lat="40.0728661" lon="-105.2306096">
  <ele>1610.8</ele>
  <time>2026-08-28T19:13:02Z</time>
  <course>10.01</course>
  <speed>0.07211102550927978</speed>
  <fix>3d</fix>
</trkpt>
<trkpt lat="40.0728662" lon="-105.2306097">
  <ele>1610.57</ele>
  <time>2026-08-28T19:13:02Z</time>
  <course>307.83</course>
  <speed>0.1</speed>
  <fix>3d</fix>
</trkpt>
<trkpt lat="40.0728661" lon="-105.2306096">
  <ele>1610.82</ele>
  <time>2026-08-28T19:13:02Z</time>
  <course>10.01</course>
  <speed>0.07211102550927978</speed>
  <fix>3d</fix>
</trkpt>
<trkpt lat="40.0728662" lon="-105.2306098">
  <ele>1610.93</ele>
  <time>2026-08-28T19:13:02Z</time>
  <course>10.01</course>
  <speed>0.07211102550927978</speed>
  <fix>3d</fix>
</trkpt>
<trkpt lat="40.0728663" lon="-105.2306098">
  <ele>1610.7</ele>
  <time>2026-08-28T19:13:02Z</time>
  <course>307.78</course>
  <speed>0.1</speed>
  <fix>3d</fix>
</trkpt>
<trkpt lat="40.0728662" lon="-105.2306098">
  <ele>1610.93</ele>
  <time>2026-08-28T19:13:02Z</time>
  <course>10.01</course>
  <speed>0.07211102550927978</speed>
  <fix>3d</fix>
</trkpt>
<trkpt lat="40.0728663" lon="-105.23061">
  <ele>1611.05</ele>
  <time>2026-08-28T19:13:02Z</time>
  <course>10.01</course>
  <speed>0.07211102550927978</speed>
  <fix>3d</fix>
</trkpt>
<trkpt lat="40.0728664" lon="-105.2306101">
  <ele>1610.82</ele>
  <time>2026-08-28T19:13:02Z</time>
  <course>307.76</course>
  <speed>0.1</speed>
  <fix>3d</fix>
</trkpt>
<trkpt lat="40.0728663" lon="-105.23061">
  <ele>1611.07</ele>
  <time>2026-08-28T19:13:02Z</time>
  <course>10.01</course>
  <speed>0.07211102550927978</speed>
  <fix>3d</fix>
</trkpt>
<trkpt lat="40.0728664" lon="-105.2306102">
  <ele>1611.18</ele>
  <time>2026-08-28T19:13:02Z</time>
  <course>10.01</course>
  <speed>0.07211102550927978</speed>
  <fix>3d</fix>
</trkpt>
<trkpt lat="40.0728665" lon="-105.2306103">
  <ele>1610.94</ele>
  <time>2026-08-28T19:13:02Z</time>
  <course>307.79</course>
  <speed>0.1</speed>
  <fix>3d</fix>
</trkpt>
<trkpt lat="40.0728664" lon="-105.2306102">
  <ele>1611.18</ele>
  <time>2026-08-28T19:13:02Z</time>
  <course>10.01</course>
  <speed>0.07211102550927978</speed>
  <fix>3d</fix>
</trkpt>
<trkpt lat="40.0728665" lon="-105.2306104">
  <ele>1611.31</ele>
  <time>2026-08-28T19:13:02Z</time>
  <course>10.01</course>
  <speed>0.07211102550927978</speed>
  <fix>3d</fix>
</trkpt>
<trkpt lat="40.0728667" lon="-105.2306104">
  <ele>1611.07</ele>
  <time>2026-08-28T19:13:02Z</time>
  <course>307.84</course>
  <speed>0.1</speed>
  <fix>3d</fix>
</trkpt>
<trkpt lat="40.0728666" lon="-105.2306104">
  <ele>1611.33</ele>
  <time>2026-08-28T19:13:02Z</time>
  <course>10.01</course>
  <speed>0.07211102550927978</speed>
  <fix>3d</fix>
</trkpt>
<trkpt lat="40.0728667" lon="-105.2306105">
  <ele>1611.43</ele>
  <time>2026-08-28T19:13:02Z</time>
  <course>10.01</course>
  <speed>0.07211102550927978</speed>
  <fix>3d</fix>
</trkpt>
<trkpt lat="40.0728668" lon="-105.2306107">
  <ele>1611.19</ele>
  <time>2026-08-28T19:13:02Z</time>
  <course>307.76</course>
  <speed>0.1</speed>
  <fix>3d</fix>
</trkpt>
<trkpt lat="40.0728667" lon="-105.2306106">
  <ele>1611.45</ele>
  <time>2026-08-28T19:13:02Z</time>
  <course>10.01</course>
  <speed>0.07211102550927978</speed>
  <fix>3d</fix>
</trkpt>
<trkpt lat="40.0728668" lon="-105.2306107">
  <ele>1611.56</ele>
  <time>2026-08-28T19:13:02Z</time>
  <course>10.01</course>
  <speed>0.07211102550927978</speed>
  <fix>3d</fix>
</trkpt>
<trkpt lat="40.0728669" lon="-105.2306108">
  <ele>1611.31</ele>
  <time>2026-08-28T19:13:02Z</time>
  <course>307.67</course>
  <speed>0.1</speed>
  <fix>3d</fix>
</trkpt>
<trkpt lat="40.0728668" lon="-105.2306107">
  <ele>1611.56</ele>
  <time>2026-08-28T19:13:02Z</time>
  <course>10.01</course>
  <speed>0.07211102550927978</speed>
  <fix>3d</fix>
</trkpt>
<trkpt lat="40.0728669" lon="-105.2306109">
  <ele>1611.68</ele>
  <time>2026-08-28T19:13:02Z</time>
  <course>10.01</course>
  <speed>0.07211102550927978</speed>
  <fix>3d</fix>
</trkpt>
<trkpt lat="40.072867" lon="-105.2306111">
  <ele>1611.44</ele>
  <time>2026-08-28T19:13:02Z</time>
  <course>307.68</course>
  <speed>0.1</speed>
  <fix>3d</fix>
</trkpt>
<trkpt lat="40.0728669" lon="-105.230611">
  <ele>1611.7</ele>
  <time>2026-08-28T19:13:02Z</time>
  <course>10.01</course>
  <speed>0.07211102550927978</speed>
  <fix>3d</fix>
</trkpt>
<trkpt lat="40.072867" lon="-105.2306111">
  <ele>1611.8</ele>
  <time>2026-08-28T19:13:02Z</time>
  <course>10.01</course>
  <speed>0.07211102550927978</speed>
  <fix>3d</fix>
</trkpt>
<trkpt lat="40.0728671" lon="-105.2306112">
  <ele>1611.56</ele>
  <time>2026-08-28T19:13:02Z</time>
  <course>307.73</course>
  <speed>0.1</speed>
  <fix>3d</fix>
</trkpt>
<trkpt lat="40.072867" lon="-105.2306112">
  <ele>1611.82</ele>
  <time>2026-08-28T19:13:02Z</time>
  <course>10.01</course>
  <speed>0.07211102550927978</speed>
  <fix>3d</fix>
</trkpt>
<trkpt lat="40.0728671" lon="-105.2306113">
  <ele>1611.93</ele>
  <time>2026-08-28T19:13:02Z</time>
  <course>10.01</course>
  <speed>0.07211102550927978</speed>
  <fix>3d</fix>
</trkpt>
<trkpt lat="40.0728672" lon="-105.2306115">
  <ele>1611.68</ele>
  <time>2026-08-28T19:13:02Z</time>
  <course>307.78</course>
  <speed>0.1</speed>
  <fix>3d</fix>
</trkpt>
<trkpt lat="40.0728671" lon="-105.2306114">
  <ele>1611.94</ele>
  <time>2026-08-28T19:13:02Z</time>
  <course>10.01</course>
  <speed>0.07211102550927978</speed>
  <fix>3d</fix>
</trkpt>
<trkpt lat="40.0728672" lon="-105.2306115">
  <ele>1612.05</ele>
  <time>2026-08-28T19:13:02Z</time>
  <course>10.01</course>
  <speed>0.07211102550927978</speed>
  <fix>3d</fix>
</trkpt>
<trkpt lat="40.0728674" lon="-105.2306117">
  <ele>1611.81</ele>
  <time>2026-08-28T19:13:02Z</time>
  <course>307.78</course>
  <speed>0.1</speed>
  <fix>3d</fix>
</trkpt>
<trkpt lat="40.0728673" lon="-105.2306116">
  <ele>1612.07</ele>
  <time>2026-08-28T19:13:02Z</time>
  <course>10.01</course>
  <speed>0.07211102550927978</speed>
  <fix>3d</fix>
</trkpt>
<trkpt lat="40.0728674" lon="-105.2306117">
  <ele>1612.18</ele>
  <time>2026-08-28T19:13:02Z</time>
  <course>10.01</course>
  <speed>0.07211102550927978</speed>
  <fix>3d</fix>
</trkpt>
<trkpt lat="40.0728675" lon="-105.2306118">
  <ele>1611.92</ele>
  <time>2026-08-28T19:13:02Z</time>
  <course>307.77</course>
  <speed>0.1</speed>
  <fix>3d</fix>
</trkpt>
<trkpt lat="40.0728674" lon="-105.2306117">
  <ele>1612.18</ele>
  <time>2026-08-28T19:13:02Z</time>
  <course>10.01</course>
  <speed>0.07211102550927978</speed>
  <fix>3d</fix>
</trkpt>
<trkpt lat="40.0728675" lon="-105.2306119">
  <ele>1612.31</ele>
  <time>2026-08-28T19:13:02Z</time>
  <course>10.01</course>
  <speed>0.07211102550927978</speed>
  <fix>3d</fix>
</trkpt>
<trkpt lat="40.0728676" lon="-105.2306121">
  <ele>1612.05</ele>
  <time>2026-08-28T19:13:02Z</time>
  <course>307.74</course>
  <speed>0.1</speed>
  <fix>3d</fix>
</trkpt>
<trkpt lat="40.0728675" lon="-105.230612">
  <ele>1612.32</ele>
  <time>2026-08-28T19:13:02Z</time>
  <course>10.01</course>
  <speed>0.07211102550927978</speed>
  <fix>3d</fix>
</trkpt>
<trkpt lat="40.0728676" lon="-105.2306121">
  <ele>1612.43</ele>
  <time>2026-08-28T19:13:02Z</time>
  <course>10.01</course>
  <speed>0.07211102550927978</speed>
  <fix>3d</fix>
</trkpt>
<trkpt lat="40.0728677" lon="-105.2306122">
  <ele>1612.17</ele>
  <time>2026-08-28T19:13:02Z</time>
  <course>307.64</course>
  <speed>0.1</speed>
  <fix>3d</fix>
</trkpt>
<trkpt lat="40.0728676" lon="-105.2306122">
  <ele>1612.45</ele>
  <time>2026-08-28T19:13:02Z</time>
  <course>10.01</course>
  <speed>0.07211102550927978</speed>
  <fix>3d</fix>
</trkpt>
<trkpt lat="40.0728677" lon="-105.2306123">
  <ele>1612.55</ele>
  <time>2026-08-28T19:13:02Z</time>
  <course>10.01</course>
  <speed>0.07211102550927978</speed>
  <fix>3d</fix>
</trkpt>
<trkpt lat="40.0728678" lon="-105.2306125">
  <ele>1612.3</ele>
  <time>2026-08-28T19:13:02Z</time>
  <course>307.53</course>
  <speed>0.1</speed>
  <fix>3d</fix>
</trkpt>
<trkpt lat="40.0728677" lon="-105.2306124">
  <ele>1612.57</ele>
  <time>2026-08-28T19:13:02Z</time>
  <course>10.01</course>
  <speed>0.07211102550927978</speed>
  <fix>3d</fix>
</trkpt>
<trkpt lat="40.0728678" lon="-105.2306125">
  <ele>1612.68</ele>
  <time>2026-08-28T19:13:02Z</time>
  <course>10.01</course>
  <speed>0.07211102550927978</speed>
  <fix>3d</fix>
</trkpt>
<trkpt lat="40.0728679" lon="-105.2306127">
  <ele>1612.42</ele>
  <time>2026-08-28T19:13:02Z</time>
  <course>307.47</course>
  <speed>0.1</speed>
  <fix>3d</fix>
</trkpt>
<trkpt lat="40.0728678" lon="-105.2306126">
  <ele>1612.7</ele>
  <time>2026-08-28T19:13:02Z</time>
  <course>10.01</course>
  <speed>0.07211102550927978</speed>
  <fix>3d</fix>
</trkpt>
<trkpt lat="40.0728679" lon="-105.2306127">
  <ele>1612.8</ele>
  <time>2026-08-28T19:13:02Z</time>
  <course>10.01</course>
  <speed>0.07211102550927978</speed>
  <fix>3d</fix>
</trkpt>
<trkpt lat="40.072868" lon="-105.2306128">
  <ele>1612.55</ele>
  <time>2026-08-28T19:13:02Z</time>
  <course>307.45</course>
  <speed>0.1</speed>
  <fix>3d</fix>
</trkpt>
<trkpt lat="40.0728679" lon="-105.2306127">
  <ele>1612.8</ele>
  <time>2026-08-28T19:13:02Z</time>
  <course>10.01</course>
  <speed>0.07211102550927978</speed>
  <fix>3d</fix>
</trkpt>
<trkpt lat="40.072868" lon="-105.2306129">
  <ele>1612.93</ele>
  <time>2026-08-28T19:13:02Z</time>
  <course>10.01</course>
  <speed>0.07211102550927978</speed>
  <fix>3d</fix>
</trkpt>
<trkpt lat="40.0728682" lon="-105.2306131">
  <ele>1612.67</ele>
  <time>2026-08-28T19:13:02Z</time>
  <course>307.45</course>
  <speed>0.1</speed>
  <fix>3d</fix>
</trkpt>
<trkpt lat="40.0728681" lon="-105.230613">
  <ele>1612.94</ele>
  <time>2026-08-28T19:13:02Z</time>
  <course>10.01</course>
  <speed>0.07211102550927978</speed>
  <fix>3d</fix>
</trkpt>
<trkpt lat="40.0728682" lon="-105.2306131">
  <ele>1613.05</ele>
  <time>2026-08-28T19:13:02Z</time>
  <course>10.01</course>
  <speed>0.07211102550927978</speed>
  <fix>3d</fix>
</trkpt>
<trkpt lat="40.0728683" lon="-105.2306132">
  <ele>1612.8</ele>
  <time>2026-08-28T19:13:02Z</time>
  <course>307.43</course>
  <speed>0.1</speed>
  <fix>3d</fix>
</trkpt>
<trkpt lat="40.0728682" lon="-105.2306132">
  <ele>1613.07</ele>
  <time>2026-08-28T19:13:02Z</time>
  <course>10.01</course>
  <speed>0.07211102550927978</speed>
  <fix>3d</fix>
</trkpt>
<trkpt lat="40.0728683" lon="-105.2306133">
  <ele>1613.18</ele>
  <time>2026-08-28T19:13:02Z</time>
  <course>10.01</course>
  <speed>0.07211102550927978</speed>
  <fix>3d</fix>
</trkpt>
<trkpt lat="40.0728684" lon="-105.2306135">
  <ele>1612.92</ele>
  <time>2026-08-28T19:13:02Z</time>
  <course>307.36</course>
  <speed>0.1</speed>
  <fix>3d</fix>
</trkpt>
<trkpt lat="40.0728683" lon="-105.2306134">
  <ele>1613.2</ele>
  <time>2026-08-28T19:13:02Z</time>
  <course>10.01</course>
  <speed>0.07211102550927978</speed>
  <fix>3d</fix>
</trkpt>
<trkpt lat="40.0728684" lon="-105.2306135">
  <ele>1613.3</ele>
  <time>2026-08-28T19:13:02Z</time>
  <course>10.01</course>
  <speed>0.07211102550927978</speed>
  <fix>3d</fix>
</trkpt>
<trkpt lat="40.0728685" lon="-105.2306136">
  <ele>1613.05</ele>
  <time>2026-08-28T19:13:02Z</time>
  <course>307.3</course>
  <speed>0.1</speed>
  <fix>3d</fix>
</trkpt>
<trkpt lat="40.0728684" lon="-105.2306136">
  <ele>1613.32</ele>
  <time>2026-08-28T19:13:02Z</time>
  <course>10.01</course>
  <speed>0.07211102550927978</speed>
  <fix>3d</fix>
</trkpt>
<trkpt lat="40.0728685" lon="-105.2306137">
  <ele>1613.43</ele>
  <time>2026-08-28T19:13:02Z</time>
  <course>10.01</course>
  <speed>0.07211102550927978</speed>
  <fix>3d</fix>
</trkpt>
<trkpt lat="40.0728686" lon="-105.2306137">
  <ele>1613.17</ele>
  <time>2026-08-28T19:13:02Z</time>
  <course>307.3</course>
  <speed>0.1</speed>
  <fix>3d</fix>
</trkpt>
<trkpt lat="40.0728685" lon="-105.2306137">
  <ele>1613.45</ele>
  <time>2026-08-28T19:13:02Z</time>
  <course>10.01</course>
  <speed>0.07211102550927978</speed>
  <fix>3d</fix>
</trkpt>
<trkpt lat="40.0728686" lon="-105.2306139">
  <ele>1613.55</ele>
  <time>2026-08-28T19:13:02Z</time>
  <course>10.01</course>
  <speed>0.07211102550927978</speed>
  <fix>3d</fix>
</trkpt>
<trkpt lat="40.0728687" lon="-105.230614">
  <ele>1613.3</ele>
  <time>2026-08-28T19:13:02Z</time>
  <course>307.36</course>
  <speed>0.1</speed>
  <fix>3d</fix>
</trkpt>
<trkpt lat="40.0728686" lon="-105.2306139">
  <ele>1613.56</ele>
  <time>2026-08-28T19:13:02Z</time>
  <course>10.01</course>
  <speed>0.07211102550927978</speed>
  <fix>3d</fix>
</trkpt>
<trkpt lat="40.0728687" lon="-105.2306141">
  <ele>1613.68</ele>
  <time>2026-08-28T19:13:02Z</time>
  <course>10.01</course>
  <speed>0.07211102550927978</speed>
  <fix>3d</fix>
</trkpt>
<trkpt lat="40.0728688" lon="-105.2306141">
  <ele>1613.43</ele>
  <time>2026-08-28T19:13:02Z</time>
  <course>307.35</course>
  <speed>0.1</speed>
  <fix>3d</fix>
</trkpt>
<trkpt lat="40.0728687" lon="-105.2306141">
  <ele>1613.7</ele>
  <time>2026-08-28T19:13:02Z</time>
  <course>10.01</course>
  <speed>0.07211102550927978</speed>
  <fix>3d</fix>
</trkpt>
<trkpt lat="40.0728688" lon="-105.2306143">
  <ele>1613.81</ele>
  <time>2026-08-28T19:13:02Z</time>
  <course>10.01</course>
  <speed>0.07211102550927978</speed>
  <fix>3d</fix>
</trkpt>
<trkpt lat="40.072869" lon="-105.2306144">
  <ele>1613.56</ele>
  <time>2026-08-28T19:13:02Z</time>
  <course>307.36</course>
  <speed>0.1</speed>
  <fix>3d</fix>
</trkpt>
<trkpt lat="40.0728689" lon="-105.2306143">
  <ele>1613.83</ele>
  <time>2026-08-28T19:13:02Z</time>
  <course>10.01</course>
  <speed>0.07211102550927978</speed>
  <fix>3d</fix>
</trkpt>
<trkpt lat="40.0728689" lon="-105.2306145">
  <ele>1613.94</ele>
  <time>2026-08-28T19:13:02Z</time>
  <course>10.01</course>
  <speed>0.07211102550927978</speed>
  <fix>3d</fix>
</trkpt>
<trkpt lat="40.0728691" lon="-105.2306146">
  <ele>1613.68</ele>
  <time>2026-08-28T19:13:02Z</time>
  <course>307.42</course>
  <speed>0.1</speed>
  <fix>3d</fix>
</trkpt>
<trkpt lat="40.072869" lon="-105.2306145">
  <ele>1613.95</ele>
  <time>2026-08-28T19:13:02Z</time>
  <course>10.01</course>
  <speed>0.07211102550927978</speed>
  <fix>3d</fix>
</trkpt>
<trkpt lat="40.0728691" lon="-105.2306147">
  <ele>1614.06</ele>
  <time>2026-08-28T19:13:02Z</time>
  <course>10.01</course>
  <speed>0.07211102550927978</speed>
  <fix>3d</fix>
</trkpt>
<trkpt lat="40.0728692" lon="-105.2306147">
  <ele>1613.81</ele>
  <time>2026-08-28T19:13:02Z</time>
  <course>307.42</course>
  <speed>0.1</speed>
  <fix>3d</fix>
</trkpt>
<trkpt lat="40.0728691" lon="-105.2306147">
  <ele>1614.07</ele>
  <time>2026-08-28T19:13:02Z</time>
  <course>10.01</course>
  <speed>0.07211102550927978</speed>
  <fix>3d</fix>
</trkpt>
<trkpt lat="40.0728692" lon="-105.2306149">
  <ele>1614.18</ele>
  <time>2026-08-28T19:13:02Z</time>
  <course>10.01</course>
  <speed>0.07211102550927978</speed>
  <fix>3d</fix>
</trkpt>
<trkpt lat="40.0728693" lon="-105.230615">
  <ele>1613.93</ele>
  <time>2026-08-28T19:13:02Z</time>
  <course>307.41</course>
  <speed>0.1</speed>
  <fix>3d</fix>
</trkpt>
<trkpt lat="40.0728692" lon="-105.2306149">
  <ele>1614.18</ele>
  <time>2026-08-28T19:13:02Z</time>
  <course>10.01</course>
  <speed>0.07211102550927978</speed>
  <fix>3d</fix>
</trkpt>
<trkpt lat="40.0728693" lon="-105.2306151">
  <ele>1614.31</ele>
  <time>2026-08-28T19:13:02Z</time>
  <course>10.01</course>
  <speed>0.07211102550927978</speed>
  <fix>3d</fix>
</trkpt>
<trkpt lat="40.0728694" lon="-105.2306151">
  <ele>1614.06</ele>
  <time>2026-08-28T19:13:02Z</time>
  <course>307.38</course>
  <speed>0.1</speed>
  <fix>3d</fix>
</trkpt>
<trkpt lat="40.0728693" lon="-105.2306151">
  <ele>1614.33</ele>
  <time>2026-08-28T19:13:02Z</time>
  <course>10.01</course>
  <speed>0.07211102550927978</speed>
  <fix>3d</fix>
</trkpt>
<trkpt lat="40.0728694" lon="-105.2306152">
  <ele>1614.43</ele>
  <time>2026-08-28T19:13:02Z</time>
  <course>10.01</course>
  <speed>0.07211102550927978</speed>
  <fix>3d</fix>
</trkpt>
<trkpt lat="40.0728695" lon="-105.2306154">
  <ele>1614.19</ele>
  <time>2026-08-28T19:13:02Z</time>
  <course>307.31</course>
  <speed>0.1</speed>
  <fix>3d</fix>
</trkpt>
<trkpt lat="40.0728694" lon="-105.2306153">
  <ele>1614.45</ele>
  <time>2026-08-28T19:13:02Z</time>
  <course>10.01</course>
  <speed>0.07211102550927978</speed>
  <fix>3d</fix>
</trkpt>
<trkpt lat="40.0728695" lon="-105.2306154">
  <ele>1614.55</ele>
  <time>2026-08-28T19:13:02Z</time>
  <course>10.01</course>
  <speed>0.07211102550927978</speed>
  <fix>3d</fix>
</trkpt>
<trkpt lat="40.0728696" lon="-105.2306155">
  <ele>1614.31</ele>
  <time>2026-08-28T19:13:02Z</time>
  <course>307.26</course>
  <speed>0.1</speed>
  <fix>3d</fix>
</trkpt>
<trkpt lat="40.0728695" lon="-105.2306155">
  <ele>1614.57</ele>
  <time>2026-08-28T19:13:02Z</time>
  <course>10.01</course>
  <speed>0.07211102550927978</speed>
  <fix>3d</fix>
</trkpt>
<trkpt lat="40.0728696" lon="-105.2306156">
  <ele>1614.68</ele>
  <time>2026-08-28T19:13:02Z</time>
  <course>10.01</course>
  <speed>0.07211102550927978</speed>
  <fix>3d</fix>
</trkpt>
<trkpt lat="40.0728698" lon="-105.2306158">
  <ele>1614.44</ele>
  <time>2026-08-28T19:13:02Z</time>
  <course>307.21</course>
  <speed>0.1</speed>
  <fix>3d</fix>
</trkpt>
<trkpt lat="40.0728696" lon="-105.2306156">
  <ele>1614.68</ele>
  <time>2026-08-28T19:13:02Z</time>
  <course>10.01</course>
  <speed>0.07211102550927978</speed>
  <fix>3d</fix>
</trkpt>
<trkpt lat="40.0728697" lon="-105.2306158">
  <ele>1614.8</ele>
  <time>2026-08-28T19:13:02Z</time>
  <course>10.01</course>
  <speed>0.07211102550927978</speed>
  <fix>3d</fix>
</trkpt>
<trkpt lat="40.0728699" lon="-105.230616">
  <ele>1614.56</ele>
  <time>2026-08-28T19:13:02Z</time>
  <course>307.15</course>
  <speed>0.1</speed>
  <fix>3d</fix>
</trkpt>
<trkpt lat="40.0728698" lon="-105.2306159">
  <ele>1614.82</ele>
  <time>2026-08-28T19:13:02Z</time>
  <course>10.01</course>
  <speed>0.07211102550927978</speed>
  <fix>3d</fix>
</trkpt>
<trkpt lat="40.0728699" lon="-105.230616">
  <ele>1614.93</ele>
  <time>2026-08-28T19:13:02Z</time>
  <course>10.01</course>
  <speed>0.07211102550927978</speed>
  <fix>3d</fix>
</trkpt>
<trkpt lat="40.07287" lon="-105.2306161">
  <ele>1614.69</ele>
  <time>2026-08-28T19:13:02Z</time>
  <course>307.09</course>
  <speed>0.1</speed>
  <fix>3d</fix>
</trkpt>
<trkpt lat="40.0728699" lon="-105.230616">
  <ele>1614.93</ele>
  <time>2026-08-28T19:13:02Z</time>
  <course>10.01</course>
  <speed>0.07211102550927978</speed>
  <fix>3d</fix>
</trkpt>
<trkpt lat="40.07287" lon="-105.2306162">
  <ele>1615.06</ele>
  <time>2026-08-28T19:13:02Z</time>
  <course>10.01</course>
  <speed>0.07211102550927978</speed>
  <fix>3d</fix>
</trkpt>
<trkpt lat="40.0728701" lon="-105.2306164">
  <ele>1614.82</ele>
  <time>2026-08-28T19:13:02Z</time>
  <course>307.06</course>
  <speed>0.1</speed>
  <fix>3d</fix>
</trkpt>
<trkpt lat="40.07287" lon="-105.2306163">
  <ele>1615.08</ele>
  <time>2026-08-28T19:13:02Z</time>
  <course>10.01</course>
  <speed>0.07211102550927978</speed>
  <fix>3d</fix>
</trkpt>
<trkpt lat="40.0728701" lon="-105.2306164">
  <ele>1615.19</ele>
  <time>2026-08-28T19:13:02Z</time>
  <course>10.01</course>
  <speed>0.07211102550927978</speed>
  <fix>3d</fix>
</trkpt>
<trkpt lat="40.0728702" lon="-105.2306165">
  <ele>1614.95</ele>
  <time>2026-08-28T19:13:02Z</time>
  <course>307.05</course>
  <speed>0.1</speed>
  <fix>3d</fix>
</trkpt>
<trkpt lat="40.0728701" lon="-105.2306165">
  <ele>1615.21</ele>
  <time>2026-08-28T19:13:02Z</time>
  <course>10.01</course>
  <speed>0.07211102550927978</speed>
  <fix>3d</fix>
</trkpt>
<trkpt lat="40.0728702" lon="-105.2306166">
  <ele>1615.31</ele>
  <time>2026-08-28T19:13:02Z</time>
  <course>10.01</course>
  <speed>0.07211102550927978</speed>
  <fix>3d</fix>
</trkpt>
<trkpt lat="40.0728703" lon="-105.2306167">
  <ele>1615.07</ele>
  <time>2026-08-28T19:13:02Z</time>
  <course>307.09</course>
  <speed>0.1</speed>
  <fix>3d</fix>
</trkpt>
<trkpt lat="40.0728703" lon="-105.2306168">
  <ele>1615.42</ele>
  <time>2026-08-28T19:13:02Z</time>
  <course>10.01</course>
  <speed>0.07211102550927978</speed>
  <fix>3d</fix>
</trkpt>
<trkpt lat="40.0728704" lon="-105.2306169">
  <ele>1615.2</ele>
  <time>2026-08-28T19:13:02Z</time>
  <course>307.1</course>
  <speed>0.1</speed>
  <fix>3d</fix>
</trkpt>
<trkpt lat="40.0728704" lon="-105.230617">
  <ele>1615.5</ele>
  <time>2026-08-28T19:13:02Z</time>
  <course>10.01</course>
  <speed>0.07211102550927978</speed>
  <fix>3d</fix>
</trkpt>
<trkpt lat="40.0728705" lon="-105.230617">
  <ele>1615.3</ele>
  <time>2026-08-28T19:13:02Z</time>
  <course>307.09</course>
  <speed>0.1</speed>
  <fix>3d</fix>
</trkpt>
<trkpt lat="40.0728705" lon="-105.2306172">
  <ele>1615.54</ele>
  <time>2026-08-28T19:13:02Z</time>
  <course>10.01</course>
  <speed>0.07211102550927978</speed>
  <fix>3d</fix>
</trkpt>
<trkpt lat="40.0728706" lon="-105.2306173">
  <ele>1615.36</ele>
  <time>2026-08-28T19:13:02Z</time>
  <course>307.16</course>
  <speed>0.1</speed>
  <fix>3d</fix>
</trkpt>
<trkpt lat="40.0728707" lon="-105.2306177">
  <ele>1615.57</ele>
  <time>2026-08-28T19:13:02Z</time>
  <course>10.02</course>
  <speed>0.4632493928760188</speed>
  <fix>3d</fix>
</trkpt>
<trkpt lat="40.0728707" lon="-105.2306175">
  <ele>1615.4</ele>
  <time>2026-08-28T19:13:02Z</time>
  <course>291.99</course>
  <speed>0.16</speed>
  <fix>3d</fix>
</trkpt>
<trkpt lat="40.0728712" lon="-105.2306212">
  <ele>1615.56</ele>
  <time>2026-08-28T19:13:02Z</time>
  <course>9.42</course>
  <speed>3.250369209797558</speed>
  <fix>3d</fix>
</trkpt>
<trkpt lat="40.0728709" lon="-105.2306185">
  <ele>1615.42</ele>
  <time>2026-08-28T19:13:02Z</time>
  <course>273.01</course>
  <speed>0.94</speed>
  <fix>3d</fix>
</trkpt>
<trkpt lat="40.0728719" lon="-105.2306282">
  <ele>1615.41</ele>
  <time>2026-08-28T19:13:02Z</time>
  <course>9.6</course>
  <speed>1.2657013865837392</speed>
  <fix>3d</fix>
</trkpt>
<trkpt lat="40.072871" lon="-105.2306232">
  <ele>1615.37</ele>
  <time>2026-08-28T19:13:02Z</time>
  <course>270.36</course>
  <speed>2.22</speed>
  <fix>3d</fix>
</trkpt>
<trkpt lat="40.0728712" lon="-105.2306284">
  <ele>1615.44</ele>
  <time>2026-08-28T19:13:02Z</time>
  <course>8.05</course>
  <speed>0.23345235059857505</speed>
  <fix>3d</fix>
</trkpt>
<trkpt lat="40.0728709" lon="-105.2306285">
  <ele>1615.29</ele>
  <time>2026-08-28T19:13:02Z</time>
  <course>266.22</course>
  <speed>1.56</speed>
  <fix>3d</fix>
</trkpt>
<trkpt lat="40.0728707" lon="-105.2306292">
  <ele>1615.5</ele>
  <time>2026-08-28T19:13:02Z</time>
  <course>9.1</course>
  <speed>0.47169905660283024</speed>
  <fix>3d</fix>
</trkpt>
<trkpt lat="40.0728706" lon="-105.2306301">
  <ele>1615.3</ele>
  <time>2026-08-28T19:13:02Z</time>
  <course>240.73</course>
  <speed>0.41</speed>
  <fix>3d</fix>
</trkpt>
<trkpt lat="40.0728706" lon="-105.2306294">
  <ele>1615.51</ele>
  <time>2026-08-28T19:13:02Z</time>
  <course>9.18</course>
  <speed>0.49040799340956914</speed>
  <fix>3d</fix>
</trkpt>
<trkpt lat="40.0728701" lon="-105.2306306">
  <ele>1615.57</ele>
  <time>2026-08-28T19:13:02Z</time>
  <course>9.08</course>
  <speed>0.5069516742254631</speed>
  <fix>3d</fix>
</trkpt>
<trkpt lat="40.0728703" lon="-105.230631">
  <ele>1615.37</ele>
  <time>2026-08-28T19:13:02Z</time>
  <course>246.95</course>
  <speed>0.5</speed>
  <fix>3d</fix>
</trkpt>
<trkpt lat="40.0728696" lon="-105.2306317">
  <ele>1615.61</ele>
  <time>2026-08-28T19:13:02Z</time>
  <course>8.99</course>
  <speed>0.42941821107167777</speed>
  <fix>3d</fix>
</trkpt>
<trkpt lat="40.0728699" lon="-105.2306322">
  <ele>1615.43</ele>
  <time>2026-08-28T19:13:02Z</time>
  <course>250.5</course>
  <speed>0.52</speed>
  <fix>3d</fix>
</trkpt>
<trkpt lat="40.0728692" lon="-105.2306327">
  <ele>1615.62</ele>
  <time>2026-08-28T19:13:02Z</time>
  <course>9.23</course>
  <speed>0.3420526275297414</speed>
  <fix>3d</fix>
</trkpt>
<trkpt lat="40.0728696" lon="-105.2306332">
  <ele>1615.47</ele>
  <time>2026-08-28T19:13:02Z</time>
  <course>247.68</course>
  <speed>0.43</speed>
  <fix>3d</fix>
</trkpt>
<trkpt lat="40.0728689" lon="-105.2306334">
  <ele>1615.63</ele>
  <time>2026-08-28T19:13:02Z</time>
  <course>9.53</course>
  <speed>0.266270539113887</speed>
  <fix>3d</fix>
</trkpt>
<trkpt lat="40.0728693" lon="-105.2306341">
  <ele>1615.48</ele>
  <time>2026-08-28T19:13:02Z</time>
  <course>241.01</course>
  <speed>0.33</speed>
  <fix>3d</fix>
</trkpt>
<trkpt lat="40.0728688" lon="-105.2306334">
  <ele>1615.63</ele>
  <time>2026-08-28T19:13:02Z</time>
  <course>9.57</course>
  <speed>0.260768096208106</speed>
  <fix>3d</fix>
</trkpt>
<trkpt lat="40.0728685" lon="-105.2306338">
  <ele>1615.62</ele>
  <time>2026-08-28T19:13:02Z</time>
  <course>9.76</course>
  <speed>0.22561028345356957</speed>
  <fix>3d</fix>
</trkpt>
<trkpt lat="40.0728691" lon="-105.2306347">
  <ele>1615.48</ele>
  <time>2026-08-28T19:13:02Z</time>
  <course>227.94</course>
  <speed>0.24</speed>
  <fix>3d</fix>
</trkpt>
<trkpt lat="40.0728682" lon="-105.230634">
  <ele>1615.62</ele>
  <time>2026-08-28T19:13:02Z</time>
  <course>9.9</course>
  <speed>0.223606797749979</speed>
  <fix>3d</fix>
</trkpt>
<trkpt lat="40.0728688" lon="-105.230635">
  <ele>1615.46</ele>
  <time>2026-08-28T19:13:02Z</time>
  <course>203.6</course>
  <speed>0.17</speed>
  <fix>3d</fix>
</trkpt>
<trkpt lat="40.0728679" lon="-105.230634">
  <ele>1615.61</ele>
  <time>2026-08-28T19:13:02Z</time>
  <course>9.97</course>
  <speed>0.25059928172283336</speed>
  <fix>3d</fix>
</trkpt>
<trkpt lat="40.0728685" lon="-105.2306351">
  <ele>1615.45</ele>
  <time>2026-08-28T19:13:02Z</time>
  <course>170.52</course>
  <speed>0.16</speed>
  <fix>3d</fix>
</trkpt>
<trkpt lat="40.0728679" lon="-105.2306339">
  <ele>1615.61</ele>
  <time>2026-08-28T19:13:02Z</time>
  <course>9.98</course>
  <speed>0.260768096208106</speed>
  <fix>3d</fix>
</trkpt>
<trkpt lat="40.0728676" lon="-105.2306337">
  <ele>1615.61</ele>
  <time>2026-08-28T19:13:02Z</time>
  <course>9.99</course>
  <speed>0.29</speed>
  <fix>3d</fix>
</trkpt>
<trkpt lat="40.0728682" lon="-105.2306349">
  <ele>1615.42</ele>
  <time>2026-08-28T19:13:02Z</time>
  <course>145.19</course>
  <speed>0.2</speed>
  <fix>3d</fix>
</trkpt>
<trkpt lat="40.0728674" lon="-105.2306334">
  <ele>1615.6</ele>
  <time>2026-08-28T19:13:02Z</time>
  <course>10.01</course>
  <speed>0.33421549934136807</speed>
  <fix>3d</fix>
</trkpt>
<trkpt lat="40.0728679" lon="-105.2306346">
  <ele>1615.41</ele>
  <time>2026-08-28T19:13:02Z</time>
  <course>131.02</course>
  <speed>0.25</speed>
  <fix>3d</fix>
</trkpt>
<trkpt lat="40.0728671" lon="-105.2306329">
  <ele>1615.59</ele>
  <time>2026-08-28T19:13:02Z</time>
  <course>10.02</course>
  <speed>0.3827531841800928</speed>
  <fix>3d</fix>
</trkpt>
<trkpt lat="40.0728675" lon="-105.230634">
  <ele>1615.39</ele>
  <time>2026-08-28T19:13:02Z</time>
  <course>122.96</course>
  <speed>0.31</speed>
  <fix>3d</fix>
</trkpt>
<trkpt lat="40.072867" lon="-105.2306328">
  <ele>1615.59</ele>
  <time>2026-08-28T19:13:02Z</time>
  <course>10.03</course>
  <speed>0.3911521443121589</speed>
  <fix>3d</fix>
</trkpt>
<trkpt lat="40.0728668" lon="-105.2306321">
  <ele>1615.58</ele>
  <time>2026-08-28T19:13:02Z</time>
  <course>10.03</course>
  <speed>0.4341658669218482</speed>
  <fix>3d</fix>
</trkpt>
<trkpt lat="40.0728672" lon="-105.2306333">
  <ele>1615.37</ele>
  <time>2026-08-28T19:13:02Z</time>
  <course>117.94</course>
  <speed>0.36</speed>
  <fix>3d</fix>
</trkpt>
<trkpt lat="40.0728665" lon="-105.2306313">
  <ele>1615.57</ele>
  <time>2026-08-28T19:13:02Z</time>
  <course>10.04</course>
  <speed>0.4651881339845203</speed>
  <fix>3d</fix>
</trkpt>
<trkpt lat="40.0728669" lon="-105.2306325">
  <ele>1615.35</ele>
  <time>2026-08-28T19:13:02Z</time>
  <course>114.58</course>
  <speed>0.41</speed>
  <fix>3d</fix>
</trkpt>
<trkpt lat="40.0728662" lon="-105.2306303">
  <ele>1615.56</ele>
  <time>2026-08-28T19:13:02Z</time>
  <course>10.06</course>
  <speed>0.5015974481593781</speed>
  <fix>3d</fix>
</trkpt>
<trkpt lat="40.0728666" lon="-105.2306316">
  <ele>1615.34</ele>
  <time>2026-08-28T19:13:02Z</time>
  <course>112.26</course>
  <speed>0.45</speed>
  <fix>3d</fix>
</trkpt>
<trkpt lat="40.0728661" lon="-105.2306302">
  <ele>1615.56</ele>
  <time>2026-08-28T19:13:02Z</time>
  <course>10.07</course>
  <speed>0.5015974481593781</speed>
  <fix>3d</fix>
</trkpt>
<trkpt lat="40.0728659" lon="-105.2306293">
  <ele>1615.55</ele>
  <time>2026-08-28T19:13:02Z</time>
  <course>10.08</course>
  <speed>0.5255473337388366</speed>
  <fix>3d</fix>
</trkpt>
<trkpt lat="40.0728663" lon="-105.2306305">
  <ele>1615.32</ele>
  <time>2026-08-28T19:13:02Z</time>
  <course>110.58</course>
  <speed>0.48</speed>
  <fix>3d</fix>
</trkpt>
<trkpt lat="40.0728656" lon="-105.2306282">
  <ele>1615.54</ele>
  <time>2026-08-28T19:13:02Z</time>
  <course>10.09</course>
  <speed>0.5442425929675111</speed>
  <fix>3d</fix>
</trkpt>
<trkpt lat="40.072866" lon="-105.2306294">
  <ele>1615.3</ele>
  <time>2026-08-28T19:13:02Z</time>
  <course>109.31</course>
  <speed>0.51</speed>
  <fix>3d</fix>
</trkpt>
<trkpt lat="40.0728653" lon="-105.230627">
  <ele>1615.54</ele>
  <time>2026-08-28T19:13:02Z</time>
  <course>10.09</course>
  <speed>0.5597320787662612</speed>
  <fix>3d</fix>
</trkpt>
<trkpt lat="40.0728657" lon="-105.2306283">
  <ele>1615.29</ele>
  <time>2026-08-28T19:13:02Z</time>
  <course>108.33</course>
  <speed>0.54</speed>
  <fix>3d</fix>
</trkpt>
<trkpt lat="40.0728653" lon="-105.2306268">
  <ele>1615.54</ele>
  <time>2026-08-28T19:13:02Z</time>
  <course>10.1</course>
  <speed>0.5692099788303083</speed>
  <fix>3d</fix>
</trkpt>
<trkpt lat="40.072865" lon="-105.2306258">
  <ele>1615.53</ele>
  <time>2026-08-28T19:13:02Z</time>
  <course>10.09</course>
  <speed>0.5787054518492115</speed>
  <fix>3d</fix>
</trkpt>
<trkpt lat="40.0728654" lon="-105.230627">
  <ele>1615.28</ele>
  <time>2026-08-28T19:13:02Z</time>
  <course>107.57</course>
  <speed>0.55</speed>
  <fix>3d</fix>
</trkpt>
<trkpt lat="40.0728648" lon="-105.2306245">
  <ele>1615.53</ele>
  <time>2026-08-28T19:13:02Z</time>
  <course>10.1</course>
  <speed>0.5852349955359812</speed>
  <fix>3d</fix>
</trkpt>
<trkpt lat="40.0728651" lon="-105.2306257">
  <ele>1615.28</ele>
  <time>2026-08-28T19:13:02Z</time>
  <course>106.97</course>
  <speed>0.57</speed>
  <fix>3d</fix>
</trkpt>
<trkpt lat="40.0728645" lon="-105.2306232">
  <ele>1615.52</ele>
  <time>2026-08-28T19:13:02Z</time>
  <course>10.1</course>
  <speed>0.5948108943185221</speed>
  <fix>3d</fix>
</trkpt>
<trkpt lat="40.0728648" lon="-105.2306244">
  <ele>1615.27</ele>
  <time>2026-08-28T19:13:02Z</time>
  <course>106.5</course>
  <speed>0.58</speed>
  <fix>3d</fix>
</trkpt>
<trkpt lat="40.0728644" lon="-105.230623">
  <ele>1615.52</ele>
  <time>2026-08-28T19:13:02Z</time>
  <course>10.1</course>
  <speed>0.5948108943185221</speed>
  <fix>3d</fix>
</trkpt>
<trkpt lat="40.0728642" lon="-105.2306218">
  <ele>1615.51</ele>
  <time>2026-08-28T19:13:02Z</time>
  <course>10.09</course>
  <speed>0.6016643582596529</speed>
  <fix>3d</fix>
</trkpt>
<trkpt lat="40.0728645" lon="-105.2306231">
  <ele>1615.27</ele>
  <time>2026-08-28T19:13:02Z</time>
  <course>106.12</course>
  <speed>0.59</speed>
  <fix>3d</fix>
</trkpt>
<trkpt lat="40.0728639" lon="-105.2306205">
  <ele>1615.51</ele>
  <time>2026-08-28T19:13:02Z</time>
  <course>10.08</course>
  <speed>0.6016643582596529</speed>
  <fix>3d</fix>
</trkpt>
<trkpt lat="40.0728642" lon="-105.2306218">
  <ele>1615.26</ele>
  <time>2026-08-28T19:13:02Z</time>
  <course>105.82</course>
  <speed>0.59</speed>
  <fix>3d</fix>
</trkpt>
<trkpt lat="40.0728637" lon="-105.2306192">
  <ele>1615.51</ele>
  <time>2026-08-28T19:13:02Z</time>
  <course>10.08</course>
  <speed>0.5990826320300063</speed>
  <fix>3d</fix>
</trkpt>
<trkpt lat="40.0728639" lon="-105.2306204">
  <ele>1615.26</ele>
  <time>2026-08-28T19:13:02Z</time>
  <course>105.61</course>
  <speed>0.59</speed>
  <fix>3d</fix>
</trkpt>
<trkpt lat="40.0728636" lon="-105.230619">
  <ele>1615.51</ele>
  <time>2026-08-28T19:13:02Z</time>
  <course>10.09</course>
  <speed>0.5990826320300063</speed>
  <fix>3d</fix>
</trkpt>
<trkpt lat="40.0728634" lon="-105.2306178">
  <ele>1615.51</ele>
  <time>2026-08-28T19:13:02Z</time>
  <course>10.09</course>
  <speed>0.5990826320300063</speed>
  <fix>3d</fix>
</trkpt>
<trkpt lat="40.0728636" lon="-105.2306191">
  <ele>1615.26</ele>
  <time>2026-08-28T19:13:02Z</time>
  <course>105.46</course>
  <speed>0.59</speed>
  <fix>3d</fix>
</trkpt>
<trkpt lat="40.0728631" lon="-105.2306165">
  <ele>1615.52</ele>
  <time>2026-08-28T19:13:02Z</time>
  <course>10.09</course>
  <speed>0.5966573556070519</speed>
  <fix>3d</fix>
</trkpt>
<trkpt lat="40.0728634" lon="-105.2306177">
  <ele>1615.26</ele>
  <time>2026-08-28T19:13:02Z</time>
  <course>105.38</course>
  <speed>0.58</speed>
  <fix>3d</fix>
</trkpt>
<trkpt lat="40.0728629" lon="-105.2306152">
  <ele>1615.52</ele>
  <time>2026-08-28T19:13:02Z</time>
  <course>10.09</course>
  <speed>0.5869412236331676</speed>
  <fix>3d</fix>
</trkpt>
<trkpt lat="40.0728631" lon="-105.2306164">
  <ele>1615.26</ele>
  <time>2026-08-28T19:13:02Z</time>
  <course>105.36</course>
  <speed>0.58</speed>
  <fix>3d</fix>
</trkpt>
<trkpt lat="40.0728629" lon="-105.230615">
  <ele>1615.52</ele>
  <time>2026-08-28T19:13:02Z</time>
  <course>10.1</course>
  <speed>0.5869412236331676</speed>
  <fix>3d</fix>
</trkpt>
<trkpt lat="40.0728626" lon="-105.2306139">
  <ele>1615.52</ele>
  <time>2026-08-28T19:13:02Z</time>
  <course>10.11</course>
  <speed>0.5846366392897386</speed>
  <fix>3d</fix>
</trkpt>
<trkpt lat="40.0728628" lon="-105.2306151">
  <ele>1615.27</ele>
  <time>2026-08-28T19:13:02Z</time>
  <course>105.37</course>
  <speed>0.57</speed>
  <fix>3d</fix>
</trkpt>
<trkpt lat="40.0728624" lon="-105.2306126">
  <ele>1615.51</ele>
  <time>2026-08-28T19:13:02Z</time>
  <course>10.11</course>
  <speed>0.5748912940721924</speed>
  <fix>3d</fix>
</trkpt>
<trkpt lat="40.0728625" lon="-105.2306138">
  <ele>1615.27</ele>
  <time>2026-08-28T19:13:02Z</time>
  <course>105.47</course>
  <speed>0.56</speed>
  <fix>3d</fix>
</trkpt>
<trkpt lat="40.0728621" lon="-105.2306113">
  <ele>1615.51</ele>
  <time>2026-08-28T19:13:02Z</time>
  <course>10.1</course>
  <speed>0.5629387178015027</speed>
  <fix>3d</fix>
</trkpt>
<trkpt lat="40.0728623" lon="-105.2306125">
  <ele>1615.27</ele>
  <time>2026-08-28T19:13:02Z</time>
  <course>105.58</course>
  <speed>0.55</speed>
  <fix>3d</fix>
</trkpt>
<trkpt lat="40.0728621" lon="-105.2306112">
  <ele>1615.51</ele>
  <time>2026-08-28T19:13:02Z</time>
  <course>10.09</course>
  <speed>0.5629387178015027</speed>
  <fix>3d</fix>
</trkpt>
<trkpt lat="40.0728619" lon="-105.2306101">
  <ele>1615.51</ele>
  <time>2026-08-28T19:13:02Z</time>
  <course>10.08</course>
  <speed>0.5531726674375732</speed>
  <fix>3d</fix>
</trkpt>
<trkpt lat="40.072862" lon="-105.2306112">
  <ele>1615.27</ele>
  <time>2026-08-28T19:13:02Z</time>
  <course>105.65</course>
  <speed>0.54</speed>
  <fix>3d</fix>
</trkpt>
<trkpt lat="40.0728617" lon="-105.2306089">
  <ele>1615.51</ele>
  <time>2026-08-28T19:13:02Z</time>
  <course>10.06</course>
  <speed>0.5434151267677411</speed>
  <fix>3d</fix>
</trkpt>
<trkpt lat="40.0728617" lon="-105.2306101">
  <ele>1615.27</ele>
  <time>2026-08-28T19:13:02Z</time>
  <course>105.77</course>
  <speed>0.53</speed>
  <fix>3d</fix>
</trkpt>
<trkpt lat="40.0728614" lon="-105.2306077">
  <ele>1615.52</ele>
  <time>2026-08-28T19:13:02Z</time>
  <course>10.05</course>
  <speed>0.5315072906367324</speed>
  <fix>3d</fix>
</trkpt>
<trkpt lat="40.0728615" lon="-105.2306088">
  <ele>1615.28</ele>
  <time>2026-08-28T19:13:02Z</time>
  <course>105.91</course>
  <speed>0.52</speed>
  <fix>3d</fix>
</trkpt>
<trkpt lat="40.0728614" lon="-105.2306076">
  <ele>1615.52</ele>
  <time>2026-08-28T19:13:02Z</time>
  <course>10.05</course>
  <speed>0.5217278984298233</speed>
  <fix>3d</fix>
</trkpt>
<trkpt lat="40.0728612" lon="-105.2306066">
  <ele>1615.52</ele>
  <time>2026-08-28T19:13:02Z</time>
  <course>10.06</course>
  <speed>0.5119570294468082</speed>
  <fix>3d</fix>
</trkpt>
<trkpt lat="40.0728612" lon="-105.2306077">
  <ele>1615.28</ele>
  <time>2026-08-28T19:13:02Z</time>
  <course>106.05</course>
  <speed>0.5</speed>
  <fix>3d</fix>
</trkpt>
<trkpt lat="40.072861" lon="-105.2306055">
  <ele>1615.52</ele>
  <time>2026-08-28T19:13:02Z</time>
  <course>10.07</course>
  <speed>0.5000999900019995</speed>
  <fix>3d</fix>
</trkpt>
<trkpt lat="40.0728609" lon="-105.2306065">
  <ele>1615.29</ele>
  <time>2026-08-28T19:13:02Z</time>
  <course>106.25</course>
  <speed>0.49</speed>
  <fix>3d</fix>
</trkpt>
<trkpt lat="40.0728607" lon="-105.2306044">
  <ele>1615.53</ele>
  <time>2026-08-28T19:13:02Z</time>
  <course>10.06</course>
  <speed>0.48052055106935854</speed>
  <fix>3d</fix>
</trkpt>
<trkpt lat="40.0728607" lon="-105.2306055">
  <ele>1615.29</ele>
  <time>2026-08-28T19:13:02Z</time>
  <course>106.49</course>
  <speed>0.47</speed>
  <fix>3d</fix>
</trkpt>
<trkpt lat="40.0728607" lon="-105.2306043">
  <ele>1615.53</ele>
  <time>2026-08-28T19:13:02Z</time>
  <course>10.06</course>
  <speed>0.48052055106935854</speed>
  <fix>3d</fix>
</trkpt>
<trkpt lat="40.0728605" lon="-105.2306034">
  <ele>1615.53</ele>
  <time>2026-08-28T19:13:02Z</time>
  <course>10.06</course>
  <speed>0.4707440918375928</speed>
  <fix>3d</fix>
</trkpt>
<trkpt lat="40.0728605" lon="-105.2306044">
  <ele>1615.29</ele>
  <time>2026-08-28T19:13:02Z</time>
  <course>106.74</course>
  <speed>0.46</speed>
  <fix>3d</fix>
</trkpt>
<trkpt lat="40.0728603" lon="-105.2306024">
  <ele>1615.53</ele>
  <time>2026-08-28T19:13:02Z</time>
  <course>10.06</course>
  <speed>0.4491102314577124</speed>
  <fix>3d</fix>
</trkpt>
<trkpt lat="40.0728603" lon="-105.2306033">
  <ele>1615.3</ele>
  <time>2026-08-28T19:13:02Z</time>
  <course>107.02</course>
  <speed>0.44</speed>
  <fix>3d</fix>
</trkpt>
<trkpt lat="40.0728601" lon="-105.2306014">
  <ele>1615.54</ele>
  <time>2026-08-28T19:13:02Z</time>
  <course>10.05</course>
  <speed>0.4393176527297759</speed>
  <fix>3d</fix>
</trkpt>
<trkpt lat="40.07286" lon="-105.2306024">
  <ele>1615.3</ele>
  <time>2026-08-28T19:13:02Z</time>
  <course>107.32</course>
  <speed>0.43</speed>
  <fix>3d</fix>
</trkpt>
<trkpt lat="40.07286" lon="-105.2306013">
  <ele>1615.54</ele>
  <time>2026-08-28T19:13:02Z</time>
  <course>10.05</course>
  <speed>0.4393176527297759</speed>
  <fix>3d</fix>
</trkpt>
<trkpt lat="40.0728599" lon="-105.2306005">
  <ele>1615.54</ele>
  <time>2026-08-28T19:13:02Z</time>
  <course>10.06</course>
  <speed>0.4197618372363071</speed>
  <fix>3d</fix>
</trkpt>
<trkpt lat="40.0728597" lon="-105.2306014">
  <ele>1615.3</ele>
  <time>2026-08-28T19:13:02Z</time>
  <course>107.64</course>
  <speed>0.41</speed>
  <fix>3d</fix>
</trkpt>
<trkpt lat="40.0728596" lon="-105.2305996">
  <ele>1615.54</ele>
  <time>2026-08-28T19:13:02Z</time>
  <course>10.06</course>
  <speed>0.41</speed>
  <fix>3d</fix>
</trkpt>
<trkpt lat="40.0728596" lon="-105.2306005">
  <ele>1615.3</ele>
  <time>2026-08-28T19:13:02Z</time>
  <course>107.99</course>
  <speed>0.39</speed>
  <fix>3d</fix>
</trkpt>
<trkpt lat="40.0728594" lon="-105.2305987">
  <ele>1615.54</ele>
  <time>2026-08-28T19:13:02Z</time>
  <course>10.06</course>
  <speed>0.39812058474788764</speed>
  <fix>3d</fix>
</trkpt>
<trkpt lat="40.0728594" lon="-105.2305997">
  <ele>1615.3</ele>
  <time>2026-08-28T19:13:02Z</time>
  <course>108.36</course>
  <speed>0.38</speed>
  <fix>3d</fix>
</trkpt>
<trkpt lat="40.0728594" lon="-105.2305986">
  <ele>1615.54</ele>
  <time>2026-08-28T19:13:02Z</time>
  <course>10.06</course>
  <speed>0.388329756778952</speed>
  <fix>3d</fix>
</trkpt>
<trkpt lat="40.0728592" lon="-105.2305979">
  <ele>1615.54</ele>
  <time>2026-08-28T19:13:02Z</time>
  <course>10.06</course>
  <speed>0.378549864614954</speed>
  <fix>3d</fix>
</trkpt>
<trkpt lat="40.0728591" lon="-105.2305988">
  <ele>1615.3</ele>
  <time>2026-08-28T19:13:02Z</time>
  <course>108.75</course>
  <speed>0.36</speed>
  <fix>3d</fix>
</trkpt>
<trkpt lat="40.072859" lon="-105.2305971">
  <ele>1615.54</ele>
  <time>2026-08-28T19:13:02Z</time>
  <course>10.05</course>
  <speed>0.3590264614203248</speed>
  <fix>3d</fix>
</trkpt>
<trkpt lat="40.0728589" lon="-105.2305981">
  <ele>1615.3</ele>
  <time>2026-08-28T19:13:02Z</time>
  <course>109.2</course>
  <speed>0.35</speed>
  <fix>3d</fix>
</trkpt>
<trkpt lat="40.0728588" lon="-105.2305964">
  <ele>1615.54</ele>
  <time>2026-08-28T19:13:02Z</time>
  <course>10.05</course>
  <speed>0.34928498393145957</speed>
  <fix>3d</fix>
</trkpt>
<trkpt lat="40.0728587" lon="-105.2305973">
  <ele>1615.3</ele>
  <time>2026-08-28T19:13:02Z</time>
  <course>109.78</course>
  <speed>0.33</speed>
  <fix>3d</fix>
</trkpt>
<trkpt lat="40.0728588" lon="-105.2305963">
  <ele>1615.54</ele>
  <time>2026-08-28T19:13:02Z</time>
  <course>10.05</course>
  <speed>0.34928498393145957</speed>
  <fix>3d</fix>
</trkpt>
<trkpt lat="40.0728586" lon="-105.2305957">
  <ele>1615.54</ele>
  <time>2026-08-28T19:13:02Z</time>
  <course>10.04</course>
  <speed>0.3298484500494128</speed>
  <fix>3d</fix>
</trkpt>
<trkpt lat="40.0728584" lon="-105.2305965">
  <ele>1615.3</ele>
  <time>2026-08-28T19:13:02Z</time>
  <course>110.44</course>
  <speed>0.32</speed>
  <fix>3d</fix>
</trkpt>
<trkpt lat="40.0728584" lon="-105.230595">
  <ele>1615.54</ele>
  <time>2026-08-28T19:13:02Z</time>
  <course>10.03</course>
  <speed>0.3178049716414141</speed>
  <fix>3d</fix>
</trkpt>
<trkpt lat="40.0728583" lon="-105.2305958">
  <ele>1615.31</ele>
  <time>2026-08-28T19:13:02Z</time>
  <course>111.01</course>
  <speed>0.3</speed>
  <fix>3d</fix>
</trkpt>
<trkpt lat="40.0728582" lon="-105.2305944">
  <ele>1615.54</ele>
  <time>2026-08-28T19:13:02Z</time>
  <course>10.03</course>
  <speed>0.3080584360149873</speed>
  <fix>3d</fix>
</trkpt>
<trkpt lat="40.0728581" lon="-105.2305952">
  <ele>1615.31</ele>
  <time>2026-08-28T19:13:02Z</time>
  <course>111.41</course>
  <speed>0.29</speed>
  <fix>3d</fix>
</trkpt>
<trkpt lat="40.0728582" lon="-105.2305943">
  <ele>1615.54</ele>
  <time>2026-08-28T19:13:02Z</time>
  <course>10.03</course>
  <speed>0.29832867780352595</speed>
  <fix>3d</fix>
</trkpt>
<trkpt lat="40.072858" lon="-105.2305938">
  <ele>1615.53</ele>
  <time>2026-08-28T19:13:02Z</time>
  <course>10.03</course>
  <speed>0.28861739379323625</speed>
  <fix>3d</fix>
</trkpt>
<trkpt lat="40.0728579" lon="-105.2305945">
  <ele>1615.31</ele>
  <time>2026-08-28T19:13:02Z</time>
  <course>111.81</course>
  <speed>0.27</speed>
  <fix>3d</fix>
</trkpt>
<trkpt lat="40.0728579" lon="-105.2305932">
  <ele>1615.52</ele>
  <time>2026-08-28T19:13:02Z</time>
  <course>10.04</course>
  <speed>0.27892651361962706</speed>
  <fix>3d</fix>
</trkpt>
<trkpt lat="40.0728577" lon="-105.230594">
  <ele>1615.31</ele>
  <time>2026-08-28T19:13:02Z</time>
  <course>112.38</course>
  <speed>0.26</speed>
  <fix>3d</fix>
</trkpt>
<trkpt lat="40.0728577" lon="-105.2305927">
  <ele>1615.52</ele>
  <time>2026-08-28T19:13:02Z</time>
  <course>10.04</course>
  <speed>0.2692582403567252</speed>
  <fix>3d</fix>
</trkpt>
<trkpt lat="40.0728576" lon="-105.2305934">
  <ele>1615.31</ele>
  <time>2026-08-28T19:13:02Z</time>
  <course>113.08</course>
  <speed>0.25</speed>
  <fix>3d</fix>
</trkpt>
<trkpt lat="40.0728577" lon="-105.2305926">
  <ele>1615.52</ele>
  <time>2026-08-28T19:13:02Z</time>
  <course>10.04</course>
  <speed>0.2596150997149434</speed>
  <fix>3d</fix>
</trkpt>
<trkpt lat="40.0728575" lon="-105.2305922">
  <ele>1615.52</ele>
  <time>2026-08-28T19:13:02Z</time>
  <course>10.05</course>
  <speed>0.25</speed>
  <fix>3d</fix>
</trkpt>
<trkpt lat="40.0728573" lon="-105.2305929">
  <ele>1615.31</ele>
  <time>2026-08-28T19:13:02Z</time>
  <course>113.81</course>
  <speed>0.24</speed>
  <fix>3d</fix>
</trkpt>
<trkpt lat="40.0728573" lon="-105.2305917">
  <ele>1615.53</ele>
  <time>2026-08-28T19:13:02Z</time>
  <course>10.04</course>
  <speed>0.23769728648009425</speed>
  <fix>3d</fix>
</trkpt>
<trkpt lat="40.0728572" lon="-105.2305924">
  <ele>1615.32</ele>
  <time>2026-08-28T19:13:02Z</time>
  <course>114.54</course>
  <speed>0.22</speed>
  <fix>3d</fix>
</trkpt>
<trkpt lat="40.0728572" lon="-105.2305913">
  <ele>1615.53</ele>
  <time>2026-08-28T19:13:02Z</time>
  <course>10.03</course>
  <speed>0.22803508501982758</speed>
  <fix>3d</fix>
</trkpt>
<trkpt lat="40.072857" lon="-105.2305919">
  <ele>1615.32</ele>
  <time>2026-08-28T19:13:02Z</time>
  <course>115.18</course>
  <speed>0.21</speed>
  <fix>3d</fix>
</trkpt>
<trkpt lat="40.0728571" lon="-105.2305912">
  <ele>1615.53</ele>
  <time>2026-08-28T19:13:02Z</time>
  <course>10.03</course>
  <speed>0.22803508501982758</speed>
  <fix>3d</fix>
</trkpt>
<trkpt lat="40.072857" lon="-105.2305908">
  <ele>1615.54</ele>
  <time>2026-08-28T19:13:02Z</time>
  <course>10.03</course>
  <speed>0.21840329667841554</speed>
  <fix>3d</fix>
</trkpt>
<trkpt lat="40.0728569" lon="-105.2305915">
  <ele>1615.33</ele>
  <time>2026-08-28T19:13:02Z</time>
  <course>115.86</course>
  <speed>0.2</speed>
  <fix>3d</fix>
</trkpt>
<trkpt lat="40.0728568" lon="-105.2305904">
  <ele>1615.54</ele>
  <time>2026-08-28T19:13:02Z</time>
  <course>10.04</course>
  <speed>0.19924858845171275</speed>
  <fix>3d</fix>
</trkpt>
<trkpt lat="40.0728567" lon="-105.2305911">
  <ele>1615.34</ele>
  <time>2026-08-28T19:13:02Z</time>
  <course>116.77</course>
  <speed>0.19</speed>
  <fix>3d</fix>
</trkpt>
<trkpt lat="40.0728567" lon="-105.2305901">
  <ele>1615.52</ele>
  <time>2026-08-28T19:13:02Z</time>
  <course>10.05</course>
  <speed>0.19924858845171275</speed>
  <fix>3d</fix>
</trkpt>
<trkpt lat="40.0728565" lon="-105.2305906">
  <ele>1615.34</ele>
  <time>2026-08-28T19:13:02Z</time>
  <course>117.75</course>
  <speed>0.18</speed>
  <fix>3d</fix>
</trkpt>
<trkpt lat="40.0728565" lon="-105.2305896">
  <ele>1615.35</ele>
  <time>2026-08-28T19:13:02Z</time>
  <course>10.05</course>
  <speed>0.3905124837953327</speed>
  <fix>3d</fix>
</trkpt>
<trkpt lat="40.0728564" lon="-105.2305902">
  <ele>1615.29</ele>
  <time>2026-08-28T19:13:02Z</time>
  <course>114.96</course>
  <speed>0.2</speed>
  <fix>3d</fix>
</trkpt>
<trkpt lat="40.0728562" lon="-105.2305879">
  <ele>1614.98</ele>
  <time>2026-08-28T19:13:02Z</time>
  <course>10.03</course>
  <speed>1.1825819210524064</speed>
  <fix>3d</fix>
</trkpt>
<trkpt lat="40.0728562" lon="-105.2305895">
  <ele>1615.09</ele>
  <time>2026-08-28T19:13:02Z</time>
  <course>104.64</course>
  <speed>0.52</speed>
  <fix>3d</fix>
</trkpt>
<trkpt lat="40.0728561" lon="-105.2305882">
  <ele>1614.41</ele>
  <time>2026-08-28T19:13:02Z</time>
  <course>10.0</course>
  <speed>2.147091055358389</speed>
  <fix>3d</fix>
</trkpt>
<trkpt lat="40.0728559" lon="-105.230588">
  <ele>1614.66</ele>
  <time>2026-08-28T19:13:02Z</time>
  <course>122.87</course>
  <speed>0.13</speed>
  <fix>3d</fix>
</trkpt>
<trkpt lat="40.072857" lon="-105.2305959">
  <ele>1614.24</ele>
  <time>2026-08-28T19:13:02Z</time>
  <course>9.98</course>
  <speed>3.427725193185708</speed>
  <fix>3d</fix>
</trkpt>
<trkpt lat="40.072856" lon="-105.2305898">
  <ele>1614.2</ele>
  <time>2026-08-28T19:13:02Z</time>
  <course>276.72</course>
  <speed>2.01</speed>
  <fix>3d</fix>
</trkpt>
<trkpt lat="40.0728578" lon="-105.2306029">
  <ele>1614.36</ele>
  <time>2026-08-28T19:13:02Z</time>
  <course>10.03</course>
  <speed>2.7767066823847273</speed>
  <fix>3d</fix>
</trkpt>
<trkpt lat="40.0728567" lon="-105.2305965">
  <ele>1614.04</ele>
  <time>2026-08-28T19:13:02Z</time>
  <course>277.38</course>
  <speed>3.26</speed>
  <fix>3d</fix>
</trkpt>
<trkpt lat="40.0728584" lon="-105.2306089">
  <ele>1614.56</ele>
  <time>2026-08-28T19:13:02Z</time>
  <course>10.02</course>
  <speed>2.5317977802344327</speed>
  <fix>3d</fix>
</trkpt>
<trkpt lat="40.0728573" lon="-105.2306038">
  <ele>1614.16</ele>
  <time>2026-08-28T19:13:02Z</time>
  <course>277.34</course>
  <speed>2.87</speed>
  <fix>3d</fix>
</trkpt>
<trkpt lat="40.0728589" lon="-105.2306147">
  <ele>1614.75</ele>
  <time>2026-08-28T19:13:02Z</time>
  <course>10.01</course>
  <speed>2.4298971171636055</speed>
  <fix>3d</fix>
</trkpt>
<trkpt lat="40.0728579" lon="-105.2306101">
  <ele>1614.37</ele>
  <time>2026-08-28T19:13:02Z</time>
  <course>277.37</course>
  <speed>2.61</speed>
  <fix>3d</fix>
</trkpt>
<trkpt lat="40.0728595" lon="-105.2306204">
  <ele>1614.92</ele>
  <time>2026-08-28T19:13:02Z</time>
  <course>9.99</course>
  <speed>2.3082460874005615</speed>
  <fix>3d</fix>
</trkpt>
<trkpt lat="40.0728586" lon="-105.230616">
  <ele>1614.57</ele>
  <time>2026-08-28T19:13:02Z</time>
  <course>277.62</course>
  <speed>2.5</speed>
  <fix>3d</fix>
</trkpt>
<trkpt lat="40.07286" lon="-105.2306257">
  <ele>1615.04</ele>
  <time>2026-08-28T19:13:02Z</time>
  <course>9.98</course>
  <speed>2.147091055358389</speed>
  <fix>3d</fix>
</trkpt>
<trkpt lat="40.0728591" lon="-105.2306218">
  <ele>1614.73</ele>
  <time>2026-08-28T19:13:02Z</time>
  <course>278.02</course>
  <speed>2.37</speed>
  <fix>3d</fix>
</trkpt>
<trkpt lat="40.0728605" lon="-105.2306306">
  <ele>1615.11</ele>
  <time>2026-08-28T19:13:02Z</time>
  <course>9.98</course>
  <speed>1.9464840096954301</speed>
  <fix>3d</fix>
</trkpt>
<trkpt lat="40.0728598" lon="-105.2306271">
  <ele>1614.84</ele>
  <time>2026-08-28T19:13:02Z</time>
  <course>278.51</course>
  <speed>2.2</speed>
  <fix>3d</fix>
</trkpt>
<trkpt lat="40.072861" lon="-105.230635">
  <ele>1615.14</ele>
  <time>2026-08-28T19:13:02Z</time>
  <course>9.98</course>
  <speed>1.7147011401407537</speed>
  <fix>3d</fix>
</trkpt>
<trkpt lat="40.0728603" lon="-105.2306319">
  <ele>1614.91</ele>
  <time>2026-08-28T19:13:02Z</time>
  <course>279.14</course>
  <speed>1.99</speed>
  <fix>3d</fix>
</trkpt>
<trkpt lat="40.0728615" lon="-105.2306388">
  <ele>1615.14</ele>
  <time>2026-08-28T19:13:02Z</time>
  <course>9.99</course>
  <speed>1.4632839779072275</speed>
  <fix>3d</fix>
</trkpt>
<trkpt lat="40.0728608" lon="-105.2306363">
  <ele>1614.93</ele>
  <time>2026-08-28T19:13:02Z</time>
  <course>279.93</course>
  <speed>1.75</speed>
  <fix>3d</fix>
</trkpt>
<trkpt lat="40.0728619" lon="-105.2306421">
  <ele>1615.1</ele>
  <time>2026-08-28T19:13:02Z</time>
  <course>10.0</course>
  <speed>1.2022063050907694</speed>
  <fix>3d</fix>
</trkpt>
<trkpt lat="40.0728614" lon="-105.23064">
  <ele>1614.91</ele>
  <time>2026-08-28T19:13:02Z</time>
  <course>280.98</course>
  <speed>1.49</speed>
  <fix>3d</fix>
</trkpt>
<trkpt lat="40.0728623" lon="-105.2306447">
  <ele>1615.04</ele>
  <time>2026-08-28T19:13:02Z</time>
  <course>10.02</course>
  <speed>0.929623579735368</speed>
  <fix>3d</fix>
</trkpt>
<trkpt lat="40.0728619" lon="-105.2306432">
  <ele>1614.87</ele>
  <time>2026-08-28T19:13:02Z</time>
  <course>282.44</course>
  <speed>1.22</speed>
  <fix>3d</fix>
</trkpt>
<trkpt lat="40.0728626" lon="-105.2306467">
  <ele>1614.97</ele>
  <time>2026-08-28T19:13:02Z</time>
  <course>10.03</course>
  <speed>0.6573431371817918</speed>
  <fix>3d</fix>
</trkpt>
<trkpt lat="40.0728624" lon="-105.2306457">
  <ele>1614.8</ele>
  <time>2026-08-28T19:13:02Z</time>
  <course>284.63</course>
  <speed>0.94</speed>
  <fix>3d</fix>
</trkpt>
<trkpt lat="40.0728629" lon="-105.230648">
  <ele>1614.89</ele>
  <time>2026-08-28T19:13:03Z</time>
  <course>10.04</course>
  <speed>0.3984971769034255</speed>
  <fix>3d</fix>
</trkpt>
<trkpt lat="40.0728627" lon="-105.2306474">
  <ele>1614.72</ele>
  <time>2026-08-28T19:13:03Z</time>
  <course>288.32</course>
  <speed>0.67</speed>
  <fix>3d</fix>
</trkpt>
<trkpt lat="40.0728631" lon="-105.2306488">
  <ele>1614.8</ele>
  <time>2026-08-28T19:13:03Z</time>
  <course>10.06</course>
  <speed>0.15264337522473748</speed>
  <fix>3d</fix>
</trkpt>
<trkpt lat="40.0728631" lon="-105.2306486">
  <ele>1614.63</ele>
  <time>2026-08-28T19:13:03Z</time>
  <course>296.1</course>
  <speed>0.41</speed>
  <fix>3d</fix>
</trkpt>
<trkpt lat="40.0728633" lon="-105.2306489">
  <ele>1614.71</ele>
  <time>2026-08-28T19:13:03Z</time>
  <course>10.08</course>
  <speed>0.08944271909999159</speed>
  <fix>3d</fix>
</trkpt>
<trkpt lat="40.0728634" lon="-105.2306492">
  <ele>1614.54</ele>
  <time>2026-08-28T19:13:03Z</time>
  <course>321.08</course>
  <speed>0.19</speed>
  <fix>3d</fix>
</trkpt>
<trkpt lat="40.0728635" lon="-105.2306486">
  <ele>1614.63</ele>
  <time>2026-08-28T19:13:03Z</time>
  <course>10.1</course>
  <speed>0.27018512172212594</speed>
  <fix>3d</fix>
</trkpt>
<trkpt lat="40.0728637" lon="-105.2306492">
  <ele>1614.45</ele>
  <time>2026-08-28T19:13:03Z</time>
  <course>41.24</course>
  <speed>0.15</speed>
  <fix>3d</fix>
</trkpt>
<trkpt lat="40.0728636" lon="-105.2306479">
  <ele>1614.54</ele>
  <time>2026-08-28T19:13:03Z</time>
  <course>10.13</course>
  <speed>0.45044422518220834</speed>
  <fix>3d</fix>
</trkpt>
<trkpt lat="40.0728638" lon="-105.2306487">
  <ele>1614.36</ele>
  <time>2026-08-28T19:13:03Z</time>
  <course>74.48</course>
  <speed>0.31</speed>
  <fix>3d</fix>
</trkpt>
<trkpt lat="40.0728636" lon="-105.2306467">
  <ele>1614.46</ele>
  <time>2026-08-28T19:13:03Z</time>
  <course>10.17</course>
  <speed>0.6239390995922599</speed>
  <fix>3d</fix>
</trkpt>
<trkpt lat="40.0728639" lon="-105.2306478">
  <ele>1614.28</ele>
  <time>2026-08-28T19:13:03Z</time>
  <course>84.64</course>
  <speed>0.48</speed>
  <fix>3d</fix>
</trkpt>
<trkpt lat="40.0728636" lon="-105.2306451">
  <ele>1614.39</ele>
  <time>2026-08-28T19:13:03Z</time>
  <course>10.21</course>
  <speed>0.8006247560499239</speed>
  <fix>3d</fix>
</trkpt>
<trkpt lat="40.0728639" lon="-105.2306466">
  <ele>1614.2</ele>
  <time>2026-08-28T19:13:03Z</time>
  <course>90.17</course>
  <speed>0.66</speed>
  <fix>3d</fix>
</trkpt>
<trkpt lat="40.0728634" lon="-105.230643">
  <ele>1614.34</ele>
  <time>2026-08-28T19:13:03Z</time>
  <course>10.26</course>
  <speed>0.9786214794290998</speed>
  <fix>3d</fix>
</trkpt>
<trkpt lat="40.0728639" lon="-105.2306447">
  <ele>1614.13</ele>
  <time>2026-08-28T19:13:03Z</time>
  <course>94.07</course>
  <speed>0.84</speed>
  <fix>3d</fix>
</trkpt>
<trkpt lat="40.0728632" lon="-105.2306406">
  <ele>1614.31</ele>
  <time>2026-08-28T19:13:03Z</time>
  <course>11.4</course>
  <speed>1.1595257651298656</speed>
  <fix>3d</fix>
</trkpt>
<trkpt lat="40.0728639" lon="-105.2306426">
  <ele>1614.08</ele>
  <time>2026-08-28T19:13:03Z</time>
  <course>97.12</course>
  <speed>1.02</speed>
  <fix>3d</fix>
</trkpt>
<trkpt lat="40.0728628" lon="-105.2306377">
  <ele>1614.3</ele>
  <time>2026-08-28T19:13:03Z</time>
  <course>17.55</course>
  <speed>1.3315404612703288</speed>
  <fix>3d</fix>
</trkpt>
<trkpt lat="40.0728636" lon="-105.23064">
  <ele>1614.05</ele>
  <time>2026-08-28T19:13:03Z</time>
  <course>99.51</course>
  <speed>1.2</speed>
  <fix>3d</fix>
</trkpt>
<trkpt lat="40.0728622" lon="-105.2306345">
  <ele>1614.3</ele>
  <time>2026-08-28T19:13:03Z</time>
  <course>27.28</course>
  <speed>1.5164761785138596</speed>
  <fix>3d</fix>
</trkpt>
<trkpt lat="40.0728631" lon="-105.2306371">
  <ele>1614.04</ele>
  <time>2026-08-28T19:13:03Z</time>
  <course>101.48</course>
  <speed>1.38</speed>
  <fix>3d</fix>
</trkpt>
<trkpt lat="40.0728615" lon="-105.2306309">
  <ele>1614.31</ele>
  <time>2026-08-28T19:13:03Z</time>
  <course>38.87</course>
  <speed>1.682914139223983</speed>
  <fix>3d</fix>
</trkpt>
<trkpt lat="40.0728625" lon="-105.2306337">
  <ele>1614.04</ele>
  <time>2026-08-28T19:13:03Z</time>
  <course>103.19</course>
  <speed>1.55</speed>
  <fix>3d</fix>
</trkpt>
<trkpt lat="40.0728607" lon="-105.2306269">
  <ele>1614.32</ele>
  <time>2026-08-28T19:13:03Z</time>
  <course>51.42</course>
  <speed>1.8278949641595932</speed>
  <fix>3d</fix>
</trkpt>
<trkpt lat="40.0728618" lon="-105.2306299">
  <ele>1614.05</ele>
  <time>2026-08-28T19:13:03Z</time>
  <course>104.58</course>
  <speed>1.72</speed>
  <fix>3d</fix>
</trkpt>
<trkpt lat="40.0728598" lon="-105.2306226">
  <ele>1614.32</ele>
  <time>2026-08-28T19:13:03Z</time>
  <course>64.32</course>
  <speed>1.951127878945919</speed>
  <fix>3d</fix>
</trkpt>
<trkpt lat="40.072861" lon="-105.2306258">
  <ele>1614.06</ele>
  <time>2026-08-28T19:13:03Z</time>
  <course>105.76</course>
  <speed>1.87</speed>
  <fix>3d</fix>
</trkpt>
<trkpt lat="40.0728587" lon="-105.2306181">
  <ele>1614.33</ele>
  <time>2026-08-28T19:13:03Z</time>
  <course>77.35</course>
  <speed>2.0241047403728887</speed>
  <fix>3d</fix>
</trkpt>
<trkpt lat="40.07286" lon="-105.2306215">
  <ele>1614.07</ele>
  <time>2026-08-28T19:13:03Z</time>
  <course>106.83</course>
  <speed>1.98</speed>
  <fix>3d</fix>
</trkpt>
<trkpt lat="40.0728576" lon="-105.2306136">
  <ele>1614.33</ele>
  <time>2026-08-28T19:13:03Z</time>
  <course>90.34</course>
  <speed>2.065841233008965</speed>
  <fix>3d</fix>
</trkpt>
<trkpt lat="40.0728589" lon="-105.2306169">
  <ele>1614.08</ele>
  <time>2026-08-28T19:13:03Z</time>
  <course>107.87</course>
  <speed>2.06</speed>
  <fix>3d</fix>
</trkpt>
<trkpt lat="40.0728564" lon="-105.2306089">
  <ele>1614.33</ele>
  <time>2026-08-28T19:13:03Z</time>
  <course>102.97</course>
  <speed>2.057668583615933</speed>
  <fix>3d</fix>
</trkpt>
<trkpt lat="40.0728578" lon="-105.2306122">
  <ele>1614.09</ele>
  <time>2026-08-28T19:13:03Z</time>
  <course>108.96</course>
  <speed>2.09</speed>
  <fix>3d</fix>
</trkpt>
<trkpt lat="40.0728551" lon="-105.2306044">
  <ele>1614.33</ele>
  <time>2026-08-28T19:13:03Z</time>
  <course>112.16</course>
  <speed>2.0092784774639876</speed>
  <fix>3d</fix>
</trkpt>
<trkpt lat="40.0728565" lon="-105.2306077">
  <ele>1614.1</ele>
  <time>2026-08-28T19:13:03Z</time>
  <course>110.2</course>
  <speed>2.07</speed>
  <fix>3d</fix>
</trkpt>
<trkpt lat="40.0728538" lon="-105.2306001">
  <ele>1614.34</ele>
  <time>2026-08-28T19:13:03Z</time>
  <course>116.94</course>
  <speed>1.921067411623028</speed>
  <fix>3d</fix>
</trkpt>
<trkpt lat="40.0728552" lon="-105.2306031">
  <ele>1614.11</ele>
  <time>2026-08-28T19:13:03Z</time>
  <course>111.69</course>
  <speed>2.02</speed>
  <fix>3d</fix>
</trkpt>
<trkpt lat="40.0728525" lon="-105.230596">
  <ele>1614.34</ele>
  <time>2026-08-28T19:13:03Z</time>
  <course>118.66</course>
  <speed>1.8208239892971534</speed>
  <fix>3d</fix>
</trkpt>
<trkpt lat="40.0728539" lon="-105.2305988">
  <ele>1614.11</ele>
  <time>2026-08-28T19:13:03Z</time>
  <course>113.33</course>
  <speed>1.94</speed>
  <fix>3d</fix>
</trkpt>
<trkpt lat="40.0728512" lon="-105.2305921">
  <ele>1614.34</ele>
  <time>2026-08-28T19:13:03Z</time>
  <course>118.94</course>
  <speed>1.7307223925286226</speed>
  <fix>3d</fix>
</trkpt>
<trkpt lat="40.0728524" lon="-105.2305948">
  <ele>1614.12</ele>
  <time>2026-08-28T19:13:03Z</time>
  <course>115.05</course>
  <speed>1.84</speed>
  <fix>3d</fix>
</trkpt>
<trkpt lat="40.0728498" lon="-105.2305885">
  <ele>1614.34</ele>
  <time>2026-08-28T19:13:03Z</time>
  <course>119.01</course>
  <speed>1.6282505949638095</speed>
  <fix>3d</fix>
</trkpt>
<trkpt lat="40.072851" lon="-105.230591">
  <ele>1614.13</ele>
  <time>2026-08-28T19:13:03Z</time>
  <course>116.8</course>
  <speed>1.74</speed>
  <fix>3d</fix>
</trkpt>
<trkpt lat="40.0728485" lon="-105.2305852">
  <ele>1614.34</ele>
  <time>2026-08-28T19:13:03Z</time>
  <course>119.46</course>
  <speed>1.526892268629323</speed>
  <fix>3d</fix>
</trkpt>
<trkpt lat="40.0728496" lon="-105.2305875">
  <ele>1614.14</ele>
  <time>2026-08-28T19:13:03Z</time>
  <course>118.54</course>
  <speed>1.64</speed>
  <fix>3d</fix>
</trkpt>
<trkpt lat="40.0728471" lon="-105.2305821">
  <ele>1614.34</ele>
  <time>2026-08-28T19:13:03Z</time>
  <course>120.43</course>
  <speed>1.3857128129594531</speed>
  <fix>3d</fix>
</trkpt>
<trkpt lat="40.0728481" lon="-105.2305842">
  <ele>1614.15</ele>
  <time>2026-08-28T19:13:03Z</time>
  <course>120.33</course>
  <speed>1.53</speed>
  <fix>3d</fix>
</trkpt>
<trkpt lat="40.0728459" lon="-105.2305795">
  <ele>1614.34</ele>
  <time>2026-08-28T19:13:03Z</time>
  <course>121.86</course>
  <speed>1.2371337841963577</speed>
  <fix>3d</fix>
</trkpt>
<trkpt lat="40.0728468" lon="-105.2305813">
  <ele>1614.16</ele>
  <time>2026-08-28T19:13:03Z</time>
  <course>122.24</course>
  <speed>1.39</speed>
  <fix>3d</fix>
</trkpt>
<trkpt lat="40.0728447" lon="-105.2305771">
  <ele>1614.35</ele>
  <time>2026-08-28T19:13:03Z</time>
  <course>123.65</course>
  <speed>1.0568348972285122</speed>
  <fix>3d</fix>
</trkpt>
<trkpt lat="40.0728455" lon="-105.2305787">
  <ele>1614.17</ele>
  <time>2026-08-28T19:13:03Z</time>
  <course>124.44</course>
  <speed>1.23</speed>
  <fix>3d</fix>
</trkpt>
<trkpt lat="40.0728436" lon="-105.2305753">
  <ele>1614.36</ele>
  <time>2026-08-28T19:13:03Z</time>
  <course>125.72</course>
  <speed>0.8560373823613078</speed>
  <fix>3d</fix>
</trkpt>
<trkpt lat="40.0728443" lon="-105.2305765">
  <ele>1614.18</ele>
  <time>2026-08-28T19:13:03Z</time>
  <course>127.28</course>
  <speed>1.05</speed>
  <fix>3d</fix>
</trkpt>
<trkpt lat="40.0728427" lon="-105.2305739">
  <ele>1614.36</ele>
  <time>2026-08-28T19:13:03Z</time>
  <course>127.09</course>
  <speed>0.6370243323453194</speed>
  <fix>3d</fix>
</trkpt>
<trkpt lat="40.0728433" lon="-105.2305747">
  <ele>1614.19</ele>
  <time>2026-08-28T19:13:03Z</time>
  <course>131.41</course>
  <speed>0.84</speed>
  <fix>3d</fix>
</trkpt>
<trkpt lat="40.0728419" lon="-105.230573">
  <ele>1614.36</ele>
  <time>2026-08-28T19:13:03Z</time>
  <course>127.59</course>
  <speed>0.4341658669218482</speed>
  <fix>3d</fix>
</trkpt>
<trkpt lat="40.0728423" lon="-105.2305734">
  <ele>1614.2</ele>
  <time>2026-08-28T19:13:03Z</time>
  <course>138.17</course>
  <speed>0.63</speed>
  <fix>3d</fix>
</trkpt>
<trkpt lat="40.0728413" lon="-105.2305725">
  <ele>1614.36</ele>
  <time>2026-08-28T19:13:03Z</time>
  <course>127.53</course>
  <speed>0.2529822128134704</speed>
  <fix>3d</fix>
</trkpt>
<trkpt lat="40.0728415" lon="-105.2305727">
  <ele>1614.2</ele>
  <time>2026-08-28T19:13:03Z</time>
  <course>150.56</course>
  <speed>0.43</speed>
  <fix>3d</fix>
</trkpt>
<trkpt lat="40.0728409" lon="-105.2305725">
  <ele>1614.37</ele>
  <time>2026-08-28T19:13:03Z</time>
  <course>127.22</course>
  <speed>0.16552945357246848</speed>
  <fix>3d</fix>
</trkpt>
<trkpt lat="40.0728409" lon="-105.2305724">
  <ele>1614.21</ele>
  <time>2026-08-28T19:13:03Z</time>
  <course>175.53</course>
  <speed>0.28</speed>
  <fix>3d</fix>
</trkpt>
<trkpt lat="40.0728406" lon="-105.2305728">
  <ele>1614.37</ele>
  <time>2026-08-28T19:13:03Z</time>
  <course>126.91</course>
  <speed>0.19697715603592209</speed>
  <fix>3d</fix>
</trkpt>
<trkpt lat="40.0728405" lon="-105.2305725">
  <ele>1614.21</ele>
  <time>2026-08-28T19:13:03Z</time>
  <course>214.45</course>
  <speed>0.23</speed>
  <fix>3d</fix>
</trkpt>
<trkpt lat="40.0728404" lon="-105.2305733">
  <ele>1614.37</ele>
  <time>2026-08-28T19:13:03Z</time>
  <course>126.7</course>
  <speed>0.25079872407968906</speed>
  <fix>3d</fix>
</trkpt>
<trkpt lat="40.0728402" lon="-105.2305729">
  <ele>1614.21</ele>
  <time>2026-08-28T19:13:03Z</time>
  <course>244.45</course>
  <speed>0.26</speed>
  <fix>3d</fix>
</trkpt>
<trkpt lat="40.0728403" lon="-105.2305739">
  <ele>1614.38</ele>
  <time>2026-08-28T19:13:03Z</time>
  <course>126.58</course>
  <speed>0.27018512172212594</speed>
  <fix>3d</fix>
</trkpt>
<trkpt lat="40.0728401" lon="-105.2305736">
  <ele>1614.21</ele>
  <time>2026-08-28T19:13:03Z</time>
  <course>260.41</course>
  <speed>0.31</speed>
  <fix>3d</fix>
</trkpt>
<trkpt lat="40.0728402" lon="-105.2305746">
  <ele>1614.38</ele>
  <time>2026-08-28T19:13:03Z</time>
  <course>126.54</course>
  <speed>0.26305892875931813</speed>
  <fix>3d</fix>
</trkpt>
<trkpt lat="40.0728401" lon="-105.2305744">
  <ele>1614.21</ele>
  <time>2026-08-28T19:13:03Z</time>
  <course>269.48</course>
  <speed>0.32</speed>
  <fix>3d</fix>
</trkpt>
<trkpt lat="40.0728402" lon="-105.2305753">
  <ele>1614.38</ele>
  <time>2026-08-28T19:13:03Z</time>
  <course>126.54</course>
  <speed>0.22561028345356957</speed>
  <fix>3d</fix>
</trkpt>
<trkpt lat="40.0728401" lon="-105.2305751">
  <ele>1614.22</ele>
  <time>2026-08-28T19:13:03Z</time>
  <course>275.91</course>
  <speed>0.3</speed>
  <fix>3d</fix>
</trkpt>
<trkpt lat="40.0728403" lon="-105.2305758">
  <ele>1614.38</ele>
  <time>2026-08-28T19:13:03Z</time>
  <course>126.0</course>
  <speed>0.1708800749063506</speed>
  <fix>3d</fix>
</trkpt>
<trkpt lat="40.0728401" lon="-105.2305758">
  <ele>1614.22</ele>
  <time>2026-08-28T19:13:03Z</time>
  <course>281.83</course>
  <speed>0.26</speed>
  <fix>3d</fix>
</trkpt>
<trkpt lat="40.0728404" lon="-105.2305762">
  <ele>1614.39</ele>
  <time>2026-08-28T19:13:03Z</time>
  <course>121.05</course>
  <speed>0.12206555615733702</speed>
  <fix>3d</fix>
</trkpt>
<trkpt lat="40.0728402" lon="-105.2305763">
  <ele>1614.22</ele>
  <time>2026-08-28T19:13:03Z</time>
  <course>289.59</course>
  <speed>0.21</speed>
  <fix>3d</fix>
</trkpt>
<trkpt lat="40.0728405" lon="-105.2305765">
  <ele>1614.39</ele>
  <time>2026-08-28T19:13:03Z</time>
  <course>112.25</course>
  <speed>0.08602325267042626</speed>
  <fix>3d</fix>
</trkpt>
<trkpt lat="40.0728403" lon="-105.2305767">
  <ele>1614.22</ele>
  <time>2026-08-28T19:13:03Z</time>
  <course>301.61</course>
  <speed>0.16</speed>
  <fix>3d</fix>
</trkpt>
<trkpt lat="40.0728406" lon="-105.2305767">
  <ele>1614.38</ele>
  <time>2026-08-28T19:13:03Z</time>
  <course>101.28</course>
  <speed>0.07</speed>
  <fix>3d</fix>
</trkpt>
<trkpt lat="40.0728405" lon="-105.2305769">
  <ele>1614.23</ele>
  <time>2026-08-28T19:13:03Z</time>
  <course>319.85</course>
  <speed>0.12</speed>
  <fix>3d</fix>
</trkpt>
<trkpt lat="40.0728408" lon="-105.2305767">
  <ele>1614.38</ele>
  <time>2026-08-28T19:13:03Z</time>
  <course>89.09</course>
  <speed>0.07615773105863909</speed>
  <fix>3d</fix>
</trkpt>
<trkpt lat="40.0728407" lon="-105.2305771">
  <ele>1614.23</ele>
  <time>2026-08-28T19:13:03Z</time>
  <course>345.28</course>
  <speed>0.1</speed>
  <fix>3d</fix>
</trkpt>
<trkpt lat="40.0728409" lon="-105.2305767">
  <ele>1614.38</ele>
  <time>2026-08-28T19:13:03Z</time>
  <course>76.3</course>
  <speed>0.09219544457292887</speed>
  <fix>3d</fix>
</trkpt>
<trkpt lat="40.0728408" lon="-105.2305772">
  <ele>1614.23</ele>
  <time>2026-08-28T19:13:03Z</time>
  <course>11.9</course>
  <speed>0.1</speed>
  <fix>3d</fix>
</trkpt>
<trkpt lat="40.0728411" lon="-105.2305766">
  <ele>1614.39</ele>
  <time>2026-08-28T19:13:03Z</time>
  <course>63.36</course>
  <speed>0.10816653826391968</speed>
  <fix>3d</fix>
</trkpt>
<trkpt lat="40.0728409" lon="-105.2305771">
  <ele>1614.23</ele>
  <time>2026-08-28T19:13:03Z</time>
  <course>31.39</course>
  <speed>0.11</speed>
  <fix>3d</fix>
</trkpt>
<trkpt lat="40.0728412" lon="-105.2305765">
  <ele>1614.39</ele>
  <time>2026-08-28T19:13:03Z</time>
  <course>50.4</course>
  <speed>0.12529964086141668</speed>
  <fix>3d</fix>
</trkpt>
<trkpt lat="40.0728412" lon="-105.2305769">
  <ele>1614.23</ele>
  <time>2026-08-28T19:13:03Z</time>
  <course>43.84</course>
  <speed>0.13</speed>
  <fix>3d</fix>
</trkpt>
<trkpt lat="40.0728414" lon="-105.2305762">
  <ele>1614.39</ele>
  <time>2026-08-28T19:13:03Z</time>
  <course>37.46</course>
  <speed>0.14317821063276354</speed>
  <fix>3d</fix>
</trkpt>
<trkpt lat="40.0728414" lon="-105.2305767">
  <ele>1614.24</ele>
  <time>2026-08-28T19:13:03Z</time>
  <course>51.74</course>
  <speed>0.15</speed>
  <fix>3d</fix>
</trkpt>
<trkpt lat="40.0728415" lon="-105.2305759">
  <ele>1614.39</ele>
  <time>2026-08-28T19:13:03Z</time>
  <course>24.67</course>
  <speed>0.14866068747318506</speed>
  <fix>3d</fix>
</trkpt>
<trkpt lat="40.0728415" lon="-105.2305763">
  <ele>1614.24</ele>
  <time>2026-08-28T19:13:03Z</time>
  <course>57.04</course>
  <speed>0.16</speed>
  <fix>3d</fix>
</trkpt>
<trkpt lat="40.0728416" lon="-105.2305756">
  <ele>1614.39</ele>
  <time>2026-08-28T19:13:03Z</time>
  <course>14.09</course>
  <speed>0.14866068747318506</speed>
  <fix>3d</fix>
</trkpt>
<trkpt lat="40.0728417" lon="-105.230576">
  <ele>1614.24</ele>
  <time>2026-08-28T19:13:03Z</time>
  <course>61.06</course>
  <speed>0.17</speed>
  <fix>3d</fix>
</trkpt>
<trkpt lat="40.0728418" lon="-105.2305753">
  <ele>1614.39</ele>
  <time>2026-08-28T19:13:03Z</time>
  <course>8.36</course>
  <speed>0.13601470508735444</speed>
  <fix>3d</fix>
</trkpt>
<trkpt lat="40.0728418" lon="-105.2305757">
  <ele>1614.23</ele>
  <time>2026-08-28T19:13:03Z</time>
  <course>64.06</course>
  <speed>0.17</speed>
  <fix>3d</fix>
</trkpt>
<trkpt lat="40.0728419" lon="-105.230575">
  <ele>1614.39</ele>
  <time>2026-08-28T19:13:03Z</time>
  <course>6.7</course>
  <speed>0.13341664064126335</speed>
  <fix>3d</fix>
</trkpt>
<trkpt lat="40.0728419" lon="-105.2305753">
  <ele>1614.23</ele>
  <time>2026-08-28T19:13:03Z</time>
  <course>66.43</course>
  <speed>0.16</speed>
  <fix>3d</fix>
</trkpt>
<trkpt lat="40.072842" lon="-105.2305747">
  <ele>1614.39</ele>
  <time>2026-08-28T19:13:03Z</time>
  <course>7.36</course>
  <speed>0.12369316876852982</speed>
  <fix>3d</fix>
</trkpt>
<trkpt lat="40.072842" lon="-105.2305749">
  <ele>1614.23</ele>
  <time>2026-08-28T19:13:03Z</time>
  <course>68.65</course>
  <speed>0.16</speed>
  <fix>3d</fix>
</trkpt>
<trkpt lat="40.0728421" lon="-105.2305744">
  <ele>1614.39</ele>
  <time>2026-08-28T19:13:03Z</time>
  <course>8.83</course>
  <speed>0.1019803902718557</speed>
  <fix>3d</fix>
</trkpt>
<trkpt lat="40.0728421" lon="-105.2305746">
  <ele>1614.23</ele>
  <time>2026-08-28T19:13:03Z</time>
  <course>70.74</course>
  <speed>0.14</speed>
  <fix>3d</fix>
</trkpt>
<trkpt lat="40.0728421" lon="-105.2305741">
  <ele>1614.39</ele>
  <time>2026-08-28T19:13:03Z</time>
  <course>10.18</course>
  <speed>0.08062257748298549</speed>
  <fix>3d</fix>
</trkpt>
<trkpt lat="40.0728422" lon="-105.2305743">
  <ele>1614.23</ele>
  <time>2026-08-28T19:13:03Z</time>
  <course>72.86</course>
  <speed>0.13</speed>
  <fix>3d</fix>
</trkpt>
<trkpt lat="40.0728422" lon="-105.2305739">
  <ele>1614.39</ele>
  <time>2026-08-28T19:13:03Z</time>
  <course>10.99</course>
  <speed>0.07</speed>
  <fix>3d</fix>
</trkpt>
<trkpt lat="40.0728423" lon="-105.230574">
  <ele>1614.24</ele>
  <time>2026-08-28T19:13:03Z</time>
  <course>75.13</course>
  <speed>0.11</speed>
  <fix>3d</fix>
</trkpt>
<trkpt lat="40.0728422" lon="-105.2305737">
  <ele>1614.39</ele>
  <time>2026-08-28T19:13:03Z</time>
  <course>11.3</course>
  <speed>0.05</speed>
  <fix>3d</fix>
</trkpt>
<trkpt lat="40.0728424" lon="-105.2305738">
  <ele>1614.24</ele>
  <time>2026-08-28T19:13:03Z</time>
  <course>77.72</course>
  <speed>0.09</speed>
  <fix>3d</fix>
</trkpt>
<trkpt lat="40.0728422" lon="-105.2305736">
  <ele>1614.39</ele>
  <time>2026-08-28T19:13:03Z</time>
  <course>11.29</course>
  <speed>0.03</speed>
  <fix>3d</fix>
</trkpt>
<trkpt lat="40.0728424" lon="-105.2305735">
  <ele>1614.24</ele>
  <time>2026-08-28T19:13:03Z</time>
  <course>81.29</course>
  <speed>0.07</speed>
  <fix>3d</fix>
</trkpt>
<trkpt lat="40.0728422" lon="-105.2305735">
  <ele>1614.39</ele>
  <time>2026-08-28T19:13:03Z</time>
  <course>11.16</course>
  <speed>0.01</speed>
  <fix>3d</fix>
</trkpt>
<trkpt lat="40.0728424" lon="-105.2305734">
  <ele>1614.24</ele>
  <time>2026-08-28T19:13:03Z</time>
  <course>86.8</course>
  <speed>0.05</speed>
  <fix>3d</fix>
</trkpt>
<trkpt lat="40.0728422" lon="-105.2305734">
  <ele>1614.39</ele>
  <time>2026-08-28T19:13:03Z</time>
  <course>11.01</course>
  <speed>0.01</speed>
  <fix>3d</fix>
</trkpt>
<trkpt lat="40.0728424" lon="-105.2305733">
  <ele>1614.24</ele>
  <time>2026-08-28T19:13:03Z</time>
  <course>96.9</course>
  <speed>0.03</speed>
  <fix>3d</fix>
</trkpt>
<trkpt lat="40.0728422" lon="-105.2305734">
  <ele>1614.39</ele>
  <time>2026-08-28T19:13:03Z</time>
  <course>10.91</course>
  <speed>0.022360679774997897</speed>
  <fix>3d</fix>
</trkpt>
<trkpt lat="40.0728424" lon="-105.2305732">
  <ele>1614.24</ele>
  <time>2026-08-28T19:13:03Z</time>
  <course>124.73</course>
  <speed>0.01</speed>
  <fix>3d</fix>
</trkpt>
<trkpt lat="40.0728422" lon="-105.2305734">
  <ele>1614.39</ele>
  <time>2026-08-28T19:13:03Z</time>
  <course>10.86</course>
  <speed>0.03605551275463989</speed>
  <fix>3d</fix>
</trkpt>
<trkpt lat="40.0728424" lon="-105.2305732">
  <ele>1614.24</ele>
  <time>2026-08-28T19:13:03Z</time>
  <course>186.32</course>
  <speed>0.01</speed>
  <fix>3d</fix>
</trkpt>
<trkpt lat="40.0728422" lon="-105.2305733">
  <ele>1614.39</ele>
  <time>2026-08-28T19:13:03Z</time>
  <course>10.85</course>
  <speed>0.044721359549995794</speed>
  <fix>3d</fix>
</trkpt>
<trkpt lat="40.0728424" lon="-105.2305732">
  <ele>1614.24</ele>
  <time>2026-08-28T19:13:03Z</time>
  <course>221.31</course>
  <speed>0.02</speed>
  <fix>3d</fix>
</trkpt>
<trkpt lat="40.0728422" lon="-105.2305734">
  <ele>1614.38</ele>
  <time>2026-08-28T19:13:03Z</time>
  <course>10.86</course>
  <speed>0.053851648071345036</speed>
  <fix>3d</fix>
</trkpt>
<trkpt lat="40.0728424" lon="-105.2305733">
  <ele>1614.24</ele>
  <time>2026-08-28T19:13:03Z</time>
  <course>234.24</course>
  <speed>0.04</speed>
  <fix>3d</fix>
</trkpt>
<trkpt lat="40.0728422" lon="-105.2305735">
  <ele>1614.37</ele>
  <time>2026-08-28T19:13:03Z</time>
  <course>10.88</course>
  <speed>0.0632455532033676</speed>
  <fix>3d</fix>
</trkpt>
<trkpt lat="40.0728423" lon="-105.2305734">
  <ele>1614.24</ele>
  <time>2026-08-28T19:13:03Z</time>
  <course>240.2</course>
  <speed>0.05</speed>
  <fix>3d</fix>
</trkpt>
<trkpt lat="40.0728422" lon="-105.2305736">
  <ele>1614.35</ele>
  <time>2026-08-28T19:13:03Z</time>
  <course>10.92</course>
  <speed>0.07280109889280519</speed>
  <fix>3d</fix>
</trkpt>
<trkpt lat="40.0728423" lon="-105.2305734">
  <ele>1614.23</ele>
  <time>2026-08-28T19:13:03Z</time>
  <course>244.2</course>
  <speed>0.06</speed>
  <fix>3d</fix>
</trkpt>
<trkpt lat="40.0728421" lon="-105.2305738">
  <ele>1614.29</ele>
  <time>2026-08-28T19:13:03Z</time>
  <course>10.95</course>
  <speed>0.07280109889280519</speed>
  <fix>3d</fix>
</trkpt>
<trkpt lat="40.0728422" lon="-105.2305735">
  <ele>1614.21</ele>
  <time>2026-08-28T19:13:03Z</time>
  <course>247.47</course>
  <speed>0.07</speed>
  <fix>3d</fix>
</trkpt>
<trkpt lat="40.0728421" lon="-105.2305739">
  <ele>1614.19</ele>
  <time>2026-08-28T19:13:03Z</time>
  <course>10.97</course>
  <speed>0.07280109889280519</speed>
  <fix>3d</fix>
</trkpt>
<trkpt lat="40.0728421" lon="-105.2305738">
  <ele>1614.14</ele>
  <time>2026-08-28T19:13:03Z</time>
  <course>250.06</course>
  <speed>0.07</speed>
  <fix>3d</fix>
</trkpt>
<trkpt lat="40.0728421" lon="-105.2305741">
  <ele>1614.05</ele>
  <time>2026-08-28T19:13:03Z</time>
  <course>10.98</course>
  <speed>0.07280109889280519</speed>
  <fix>3d</fix>
</trkpt>
<trkpt lat="40.0728421" lon="-105.2305739">
  <ele>1614.04</ele>
  <time>2026-08-28T19:13:03Z</time>
  <course>252.44</course>
  <speed>0.08</speed>
  <fix>3d</fix>
</trkpt>
<trkpt lat="40.072842" lon="-105.2305743">
  <ele>1613.87</ele>
  <time>2026-08-28T19:13:03Z</time>
  <course>10.98</course>
  <speed>0.07280109889280519</speed>
  <fix>3d</fix>
</trkpt>
<trkpt lat="40.072842" lon="-105.230574">
  <ele>1613.89</ele>
  <time>2026-08-28T19:13:03Z</time>
  <course>254.74</course>
  <speed>0.08</speed>
  <fix>3d</fix>
</trkpt>
<trkpt lat="40.072842" lon="-105.2305744">
  <ele>1613.64</ele>
  <time>2026-08-28T19:13:03Z</time>
  <course>10.99</course>
  <speed>0.07280109889280519</speed>
  <fix>3d</fix>
</trkpt>
<trkpt lat="40.072842" lon="-105.2305743">
  <ele>1613.69</ele>
  <time>2026-08-28T19:13:03Z</time>
  <course>257.06</course>
  <speed>0.08</speed>
  <fix>3d</fix>
</trkpt>
<trkpt lat="40.072842" lon="-105.2305746">
  <ele>1613.37</ele>
  <time>2026-08-28T19:13:03Z</time>
  <course>10.99</course>
  <speed>0.07071067811865475</speed>
  <fix>3d</fix>
</trkpt>
<trkpt lat="40.072842" lon="-105.2305744">
  <ele>1613.46</ele>
  <time>2026-08-28T19:13:03Z</time>
  <course>259.41</course>
  <speed>0.08</speed>
  <fix>3d</fix>
</trkpt>
<trkpt lat="40.072842" lon="-105.2305747">
  <ele>1613.07</ele>
  <time>2026-08-28T19:13:03Z</time>
  <course>11.0</course>
  <speed>0.06082762530298219</speed>
  <fix>3d</fix>
</trkpt>
<trkpt lat="40.072842" lon="-105.2305747">
  <ele>1613.18</ele>
  <time>2026-08-28T19:13:03Z</time>
  <course>262.11</course>
  <speed>0.08</speed>
  <fix>3d</fix>
</trkpt>
<trkpt lat="40.0728419" lon="-105.2305749">
  <ele>1612.76</ele>
  <time>2026-08-28T19:13:03Z</time>
  <course>11.01</course>
  <speed>0.06082762530298219</speed>
  <fix>3d</fix>
</trkpt>
<trkpt lat="40.072842" lon="-105.2305748">
  <ele>1612.89</ele>
  <time>2026-08-28T19:13:03Z</time>
  <course>265.25</course>
  <speed>0.07</speed>
  <fix>3d</fix>
</trkpt>
<trkpt lat="40.0728419" lon="-105.230575">
  <ele>1612.45</ele>
  <time>2026-08-28T19:13:03Z</time>
  <course>11.02</course>
  <speed>0.05</speed>
  <fix>3d</fix>
</trkpt>
<trkpt lat="40.072842" lon="-105.2305751">
  <ele>1612.58</ele>
  <time>2026-08-28T19:13:03Z</time>
  <course>268.71</course>
  <speed>0.07</speed>
  <fix>3d</fix>
</trkpt>
<trkpt lat="40.072842" lon="-105.2305752">
  <ele>1612.14</ele>
  <time>2026-08-28T19:13:03Z</time>
  <course>11.03</course>
  <speed>0.04</speed>
  <fix>3d</fix>
</trkpt>
<trkpt lat="40.072842" lon="-105.2305752">
  <ele>1612.28</ele>
  <time>2026-08-28T19:13:03Z</time>
  <course>272.65</course>
  <speed>0.06</speed>
  <fix>3d</fix>
</trkpt>
<trkpt lat="40.072842" lon="-105.2305753">
  <ele>1611.84</ele>
  <time>2026-08-28T19:13:03Z</time>
  <course>11.04</course>
  <speed>0.03</speed>
  <fix>3d</fix>
</trkpt>
<trkpt lat="40.072842" lon="-105.2305753">
  <ele>1611.98</ele>
  <time>2026-08-28T19:13:03Z</time>
  <course>276.82</course>
  <speed>0.06</speed>
  <fix>3d</fix>
</trkpt>
<trkpt lat="40.072842" lon="-105.2305754">
  <ele>1611.53</ele>
  <time>2026-08-28T19:13:03Z</time>
  <course>11.04</course>
  <speed>0.02</speed>
  <fix>3d</fix>
</trkpt>
<trkpt lat="40.072842" lon="-105.2305755">
  <ele>1611.67</ele>
  <time>2026-08-28T19:13:03Z</time>
  <course>281.39</course>
  <speed>0.05</speed>
  <fix>3d</fix>
</trkpt>
<trkpt lat="40.072842" lon="-105.2305755">
  <ele>1611.23</ele>
  <time>2026-08-28T19:13:03Z</time>
  <course>11.05</course>
  <speed>0.01</speed>
  <fix>3d</fix>
</trkpt>
<trkpt lat="40.072842" lon="-105.2305756">
  <ele>1611.38</ele>
  <time>2026-08-28T19:13:03Z</time>
  <course>286.77</course>
  <speed>0.04</speed>
  <fix>3d</fix>
</trkpt>
<trkpt lat="40.072842" lon="-105.2305755">
  <ele>1610.94</ele>
  <time>2026-08-28T19:13:03Z</time>
  <course>11.05</course>
  <speed>0.0</speed>
  <fix>3d</fix>
</trkpt>
<trkpt lat="40.072842" lon="-105.2305757">
  <ele>1611.09</ele>
  <time>2026-08-28T19:13:03Z</time>
  <course>293.25</course>
  <speed>0.04</speed>
  <fix>3d</fix>
</trkpt>
<trkpt lat="40.072842" lon="-105.2305756">
  <ele>1610.64</ele>
  <time>2026-08-28T19:13:03Z</time>
  <course>11.06</course>
  <speed>0.0</speed>
  <fix>3d</fix>
</trkpt>
<trkpt lat="40.072842" lon="-105.2305758">
  <ele>1610.79</ele>
  <time>2026-08-28T19:13:03Z</time>
  <course>301.75</course>
  <speed>0.03</speed>
  <fix>3d</fix>
</trkpt>
<trkpt lat="40.072842" lon="-105.2305756">
  <ele>1610.34</ele>
  <time>2026-08-28T19:13:03Z</time>
  <course>11.07</course>
  <speed>0.0</speed>
  <fix>3d</fix>
</trkpt>
<trkpt lat="40.072842" lon="-105.2305758">
  <ele>1610.5</ele>
  <time>2026-08-28T19:13:03Z</time>
  <course>312.35</course>
  <speed>0.02</speed>
  <fix>3d</fix>
</trkpt>
<trkpt lat="40.072842" lon="-105.2305757">
  <ele>1610.04</ele>
  <time>2026-08-28T19:13:03Z</time>
  <course>11.07</course>
  <speed>0.01</speed>
  <fix>3d</fix>
</trkpt>
<trkpt lat="40.072842" lon="-105.2305758">
  <ele>1610.21</ele>
  <time>2026-08-28T19:13:03Z</time>
  <course>324.99</course>
  <speed>0.02</speed>
  <fix>3d</fix>
</trkpt>
<trkpt lat="40.072842" lon="-105.2305757">
  <ele>1609.74</ele>
  <time>2026-08-28T19:13:03Z</time>
  <course>11.08</course>
  <speed>0.02</speed>
  <fix>3d</fix>
</trkpt>
<trkpt lat="40.072842" lon="-105.2305759">
  <ele>1609.91</ele>
  <time>2026-08-28T19:13:03Z</time>
  <course>339.21</course>
  <speed>0.02</speed>
  <fix>3d</fix>
</trkpt>
<trkpt lat="40.072842" lon="-105.2305757">
  <ele>1609.44</ele>
  <time>2026-08-28T19:13:03Z</time>
  <course>11.08</course>
  <speed>0.02</speed>
  <fix>3d</fix>
</trkpt>
<trkpt lat="40.0728421" lon="-105.230576">
  <ele>1609.62</ele>
  <time>2026-08-28T19:13:03Z</time>
  <course>352.95</course>
  <speed>0.02</speed>
  <fix>3d</fix>
</trkpt>
<trkpt lat="40.0728421" lon="-105.2305757">
  <ele>1609.15</ele>
  <time>2026-08-28T19:13:03Z</time>
  <course>11.09</course>
  <speed>0.03</speed>
  <fix>3d</fix>
</trkpt>
<trkpt lat="40.0728421" lon="-105.230576">
  <ele>1609.33</ele>
  <time>2026-08-28T19:13:03Z</time>
  <course>4.83</course>
  <speed>0.02</speed>
  <fix>3d</fix>
</trkpt>
<trkpt lat="40.0728421" lon="-105.2305757">
  <ele>1608.86</ele>
  <time>2026-08-28T19:13:03Z</time>
  <course>11.1</course>
  <speed>0.03</speed>
  <fix>3d</fix>
</trkpt>
<trkpt lat="40.0728422" lon="-105.230576">
  <ele>1609.03</ele>
  <time>2026-08-28T19:13:03Z</time>
  <course>14.74</course>
  <speed>0.02</speed>
  <fix>3d</fix>
</trkpt>
<trkpt lat="40.0728421" lon="-105.2305757">
  <ele>1608.56</ele>
  <time>2026-08-28T19:13:03Z</time>
  <course>11.1</course>
  <speed>0.03</speed>
  <fix>3d</fix>
</trkpt>
<trkpt lat="40.0728423" lon="-105.230576">
  <ele>1608.74</ele>
  <time>2026-08-28T19:13:03Z</time>
  <course>22.5</course>
  <speed>0.02</speed>
  <fix>3d</fix>
</trkpt>
<trkpt lat="40.0728422" lon="-105.2305757">
  <ele>1608.27</ele>
  <time>2026-08-28T19:13:03Z</time>
  <course>11.11</course>
  <speed>0.03</speed>
  <fix>3d</fix>
</trkpt>
<trkpt lat="40.0728423" lon="-105.230576">
  <ele>1608.45</ele>
  <time>2026-08-28T19:13:03Z</time>
  <course>27.82</course>
  <speed>0.02</speed>
  <fix>3d</fix>
</trkpt>
<trkpt lat="40.0728422" lon="-105.2305756">
  <ele>1607.97</ele>
  <time>2026-08-28T19:13:03Z</time>
  <course>11.11</course>
  <speed>0.04</speed>
  <fix>3d</fix>
</trkpt>
<trkpt lat="40.0728424" lon="-105.230576">
  <ele>1608.15</ele>
  <time>2026-08-28T19:13:03Z</time>
  <course>34.08</course>
  <speed>0.02</speed>
  <fix>3d</fix>
</trkpt>
<trkpt lat="40.0728422" lon="-105.2305756">
  <ele>1607.67</ele>
  <time>2026-08-28T19:13:03Z</time>
  <course>11.12</course>
  <speed>0.04</speed>
  <fix>3d</fix>
</trkpt>
<trkpt lat="40.0728424" lon="-105.2305759">
  <ele>1607.85</ele>
  <time>2026-08-28T19:13:03Z</time>
  <course>41.76</course>
  <speed>0.02</speed>
  <fix>3d</fix>
</trkpt>
<trkpt lat="40.0728422" lon="-105.2305756">
  <ele>1607.37</ele>
  <time>2026-08-28T19:13:03Z</time>
  <course>11.13</course>
  <speed>0.0412310562561766</speed>
  <fix>3d</fix>
</trkpt>
<trkpt lat="40.0728424" lon="-105.2305758">
  <ele>1607.55</ele>
  <time>2026-08-28T19:13:03Z</time>
  <course>49.9</course>
  <speed>0.02</speed>
  <fix>3d</fix>
</trkpt>
<trkpt lat="40.0728423" lon="-105.2305755">
  <ele>1607.06</ele>
  <time>2026-08-28T19:13:03Z</time>
  <course>11.13</course>
  <speed>0.0412310562561766</speed>
  <fix>3d</fix>
</trkpt>
<trkpt lat="40.0728425" lon="-105.2305758">
  <ele>1607.25</ele>
  <time>2026-08-28T19:13:03Z</time>
  <course>57.45</course>
  <speed>0.02</speed>
  <fix>3d</fix>
</trkpt>
<trkpt lat="40.0728423" lon="-105.2305755">
  <ele>1606.76</ele>
  <time>2026-08-28T19:13:03Z</time>
  <course>11.14</course>
  <speed>0.0412310562561766</speed>
  <fix>3d</fix>
</trkpt>
<trkpt lat="40.0728425" lon="-105.2305758">
  <ele>1606.95</ele>
  <time>2026-08-28T19:13:03Z</time>
  <course>63.55</course>
  <speed>0.02</speed>
  <fix>3d</fix>
</trkpt>
<trkpt lat="40.0728423" lon="-105.2305754">
  <ele>1606.46</ele>
  <time>2026-08-28T19:13:03Z</time>
  <course>11.14</course>
  <speed>0.044721359549995794</speed>
  <fix>3d</fix>
</trkpt>
<trkpt lat="40.0728425" lon="-105.2305757">
  <ele>1606.65</ele>
  <time>2026-08-28T19:13:03Z</time>
  <course>70.31</course>
  <speed>0.02</speed>
  <fix>3d</fix>
</trkpt>
<trkpt lat="40.0728423" lon="-105.2305754">
  <ele>1606.16</ele>
  <time>2026-08-28T19:13:03Z</time>
  <course>11.14</course>
  <speed>0.044721359549995794</speed>
  <fix>3d</fix>
</trkpt>
<trkpt lat="40.0728425" lon="-105.2305756">
  <ele>1606.35</ele>
  <time>2026-08-28T19:13:03Z</time>
  <course>77.76</course>
  <speed>0.02</speed>
  <fix>3d</fix>
</trkpt>
<trkpt lat="40.0728423" lon="-105.2305753">
  <ele>1605.86</ele>
  <time>2026-08-28T19:13:03Z</time>
  <course>11.15</course>
  <speed>0.044721359549995794</speed>
  <fix>3d</fix>
</trkpt>
<trkpt lat="40.0728425" lon="-105.2305756">
  <ele>1606.05</ele>
  <time>2026-08-28T19:13:03Z</time>
  <course>85.96</course>
  <speed>0.01</speed>
  <fix>3d</fix>
</trkpt>
<trkpt lat="40.0728423" lon="-105.2305753">
  <ele>1605.56</ele>
  <time>2026-08-28T19:13:03Z</time>
  <course>11.15</course>
  <speed>0.044721359549995794</speed>
  <fix>3d</fix>
</trkpt>
<trkpt lat="40.0728425" lon="-105.2305756">
  <ele>1605.76</ele>
  <time>2026-08-28T19:13:03Z</time>
  <course>94.82</course>
  <speed>0.01</speed>
  <fix>3d</fix>
</trkpt>
<trkpt lat="40.0728423" lon="-105.2305753">
  <ele>1605.26</ele>
  <time>2026-08-28T19:13:03Z</time>
  <course>11.16</course>
  <speed>0.03605551275463989</speed>
  <fix>3d</fix>
</trkpt>
<trkpt lat="40.0728425" lon="-105.2305756">
  <ele>1605.46</ele>
  <time>2026-08-28T19:13:03Z</time>
  <course>104.68</course>
  <speed>0.01</speed>
  <fix>3d</fix>
</trkpt>
<trkpt lat="40.0728423" lon="-105.2305753">
  <ele>1604.96</ele>
  <time>2026-08-28T19:13:03Z</time>
  <course>11.16</course>
  <speed>0.03605551275463989</speed>
  <fix>3d</fix>
</trkpt>
<trkpt lat="40.0728425" lon="-105.2305755">
  <ele>1605.16</ele>
  <time>2026-08-28T19:13:03Z</time>
  <course>115.59</course>
  <speed>0.01</speed>
  <fix>3d</fix>
</trkpt>
<trkpt lat="40.0728423" lon="-105.2305752">
  <ele>1604.66</ele>
  <time>2026-08-28T19:13:03Z</time>
  <course>11.17</course>
  <speed>0.04242640687119285</speed>
  <fix>3d</fix>
</trkpt>
<trkpt lat="40.0728425" lon="-105.2305755">
  <ele>1604.87</ele>
  <time>2026-08-28T19:13:03Z</time>
  <course>127.5</course>
  <speed>0.01</speed>
  <fix>3d</fix>
</trkpt>
<trkpt lat="40.0728423" lon="-105.2305752">
  <ele>1604.36</ele>
  <time>2026-08-28T19:13:03Z</time>
  <course>11.17</course>
  <speed>0.04242640687119285</speed>
  <fix>3d</fix>
</trkpt>
<trkpt lat="40.0728425" lon="-105.2305755">
  <ele>1604.57</ele>
  <time>2026-08-28T19:13:03Z</time>
  <course>140.18</course>
  <speed>0.01</speed>
  <fix>3d</fix>
</trkpt>
<trkpt lat="40.0728423" lon="-105.2305752">
  <ele>1604.06</ele>
  <time>2026-08-28T19:13:03Z</time>
  <course>11.18</course>
  <speed>0.03605551275463989</speed>
  <fix>3d</fix>
</trkpt>
<trkpt lat="40.0728425" lon="-105.2305755">
  <ele>1604.27</ele>
  <time>2026-08-28T19:13:03Z</time>
  <course>153.68</course>
  <speed>0.01</speed>
  <fix>3d</fix>
</trkpt>
<trkpt lat="40.0728423" lon="-105.2305752">
  <ele>1603.76</ele>
  <time>2026-08-28T19:13:03Z</time>
  <course>11.18</course>
  <speed>0.03605551275463989</speed>
  <fix>3d</fix>
</trkpt>
<trkpt lat="40.0728425" lon="-105.2305755">
  <ele>1603.97</ele>
  <time>2026-08-28T19:13:03Z</time>
  <course>166.23</course>
  <speed>0.01</speed>
  <fix>3d</fix>
</trkpt>
<trkpt lat="40.0728423" lon="-105.2305752">
  <ele>1603.47</ele>
  <time>2026-08-28T19:13:03Z</time>
  <course>11.18</course>
  <speed>0.03605551275463989</speed>
  <fix>3d</fix>
</trkpt>
<trkpt lat="40.0728425" lon="-105.2305755">
  <ele>1603.67</ele>
  <time>2026-08-28T19:13:03Z</time>
  <course>176.26</course>
  <speed>0.01</speed>
  <fix>3d</fix>
</trkpt>
<trkpt lat="40.0728423" lon="-105.2305752">
  <ele>1603.17</ele>
  <time>2026-08-28T19:13:03Z</time>
  <course>11.19</course>
  <speed>0.03605551275463989</speed>
  <fix>3d</fix>
</trkpt>
<trkpt lat="40.0728425" lon="-105.2305755">
  <ele>1603.38</ele>
  <time>2026-08-28T19:13:03Z</time>
  <course>183.89</course>
  <speed>0.01</speed>
  <fix>3d</fix>
</trkpt>
<trkpt lat="40.0728423" lon="-105.2305752">
  <ele>1602.87</ele>
  <time>2026-08-28T19:13:03Z</time>
  <course>11.19</course>
  <speed>0.03605551275463989</speed>
  <fix>3d</fix>
</trkpt>
<trkpt lat="40.0728425" lon="-105.2305755">
  <ele>1603.08</ele>
  <time>2026-08-28T19:13:03Z</time>
  <course>189.69</course>
  <speed>0.01</speed>
  <fix>3d</fix>
</trkpt>
<trkpt lat="40.0728423" lon="-105.2305752">
  <ele>1602.57</ele>
  <time>2026-08-28T19:13:03Z</time>
  <course>11.2</course>
  <speed>0.03605551275463989</speed>
  <fix>3d</fix>
</trkpt>
<trkpt lat="40.0728424" lon="-105.2305755">
  <ele>1602.78</ele>
  <time>2026-08-28T19:13:03Z</time>
  <course>194.21</course>
  <speed>0.01</speed>
  <fix>3d</fix>
</trkpt>
<trkpt lat="40.0728423" lon="-105.2305752">
  <ele>1602.27</ele>
  <time>2026-08-28T19:13:03Z</time>
  <course>11.2</course>
  <speed>0.03605551275463989</speed>
  <fix>3d</fix>
</trkpt>
<trkpt lat="40.0728424" lon="-105.2305755">
  <ele>1602.48</ele>
  <time>2026-08-28T19:13:03Z</time>
  <course>197.48</course>
  <speed>0.01</speed>
  <fix>3d</fix>
</trkpt>
<trkpt lat="40.0728423" lon="-105.2305752">
  <ele>1601.97</ele>
  <time>2026-08-28T19:13:03Z</time>
  <course>11.2</course>
  <speed>0.03605551275463989</speed>
  <fix>3d</fix>
</trkpt>
<trkpt lat="40.0728424" lon="-105.2305755">
  <ele>1602.17</ele>
  <time>2026-08-28T19:13:03Z</time>
  <course>200.32</course>
  <speed>0.01</speed>
  <fix>3d</fix>
</trkpt>
<trkpt lat="40.0728422" lon="-105.2305752">
  <ele>1601.67</ele>
  <time>2026-08-28T19:13:03Z</time>
  <course>11.21</course>
  <speed>0.0282842712474619</speed>
  <fix>3d</fix>
</trkpt>
<trkpt lat="40.0728424" lon="-105.2305755">
  <ele>1601.88</ele>
  <time>2026-08-28T19:13:03Z</time>
  <course>204.1</course>
  <speed>0.01</speed>
  <fix>3d</fix>
</trkpt>
<trkpt lat="40.0728422" lon="-105.2305752">
  <ele>1601.37</ele>
  <time>2026-08-28T19:13:03Z</time>
  <course>11.21</course>
  <speed>0.0282842712474619</speed>
  <fix>3d</fix>
</trkpt>
<trkpt lat="40.0728424" lon="-105.2305755">
  <ele>1601.58</ele>
  <time>2026-08-28T19:13:03Z</time>
  <course>208.28</course>
  <speed>0.01</speed>
  <fix>3d</fix>
</trkpt>
<trkpt lat="40.0728422" lon="-105.2305753">
  <ele>1601.06</ele>
  <time>2026-08-28T19:13:04Z</time>
  <course>11.22</course>
  <speed>0.0282842712474619</speed>
  <fix>3d</fix>
</trkpt>
<trkpt lat="40.0728423" lon="-105.2305755">
  <ele>1601.28</ele>
  <time>2026-08-28T19:13:04Z</time>
  <course>211.73</course>
  <speed>0.01</speed>
  <fix>3d</fix>
</trkpt>
<trkpt lat="40.0728422" lon="-105.2305753">
  <ele>1600.77</ele>
  <time>2026-08-28T19:13:04Z</time>
  <course>11.22</course>
  <speed>0.0282842712474619</speed>
  <fix>3d</fix>
</trkpt>
<trkpt lat="40.0728423" lon="-105.2305755">
  <ele>1600.98</ele>
  <time>2026-08-28T19:13:04Z</time>
  <course>214.77</course>
  <speed>0.01</speed>
  <fix>3d</fix>
</trkpt>
<trkpt lat="40.0728422" lon="-105.2305753">
  <ele>1600.47</ele>
  <time>2026-08-28T19:13:04Z</time>
  <course>11.22</course>
  <speed>0.0282842712474619</speed>
  <fix>3d</fix>
</trkpt>
<trkpt lat="40.0728423" lon="-105.2305755">
  <ele>1600.67</ele>
  <time>2026-08-28T19:13:04Z</time>
  <course>218.04</course>
  <speed>0.01</speed>
  <fix>3d</fix>
</trkpt>
<trkpt lat="40.0728422" lon="-105.2305753">
  <ele>1600.17</ele>
  <time>2026-08-28T19:13:04Z</time>
  <course>11.22</course>
  <speed>0.0282842712474619</speed>
  <fix>3d</fix>
</trkpt>
<trkpt lat="40.0728423" lon="-105.2305755">
  <ele>1600.38</ele>
  <time>2026-08-28T19:13:04Z</time>
  <course>221.84</course>
  <speed>0.01</speed>
  <fix>3d</fix>
</trkpt>
<trkpt lat="40.0728422" lon="-105.2305753">
  <ele>1599.87</ele>
  <time>2026-08-28T19:13:04Z</time>
  <course>11.23</course>
  <speed>0.0282842712474619</speed>
  <fix>3d</fix>
</trkpt>
<trkpt lat="40.0728423" lon="-105.2305755">
  <ele>1600.08</ele>
  <time>2026-08-28T19:13:04Z</time>
  <course>227.37</course>
  <speed>0.0</speed>
  <fix>3d</fix>
</trkpt>
<trkpt lat="40.0728422" lon="-105.2305753">
  <ele>1599.57</ele>
  <time>2026-08-28T19:13:04Z</time>
  <course>11.23</course>
  <speed>0.0282842712474619</speed>
  <fix>3d</fix>
</trkpt>
<trkpt lat="40.0728423" lon="-105.2305755">
  <ele>1599.78</ele>
  <time>2026-08-28T19:13:04Z</time>
  <course>234.56</course>
  <speed>0.0</speed>
  <fix>3d</fix>
</trkpt>
<trkpt lat="40.0728422" lon="-105.2305753">
  <ele>1599.27</ele>
  <time>2026-08-28T19:13:04Z</time>
  <course>11.23</course>
  <speed>0.0282842712474619</speed>
  <fix>3d</fix>
</trkpt>
<trkpt lat="40.0728423" lon="-105.2305755">
  <ele>1599.48</ele>
  <time>2026-08-28T19:13:04Z</time>
  <course>241.47</course>
  <speed>0.0</speed>
  <fix>3d</fix>
</trkpt>
<trkpt lat="40.0728422" lon="-105.2305753">
  <ele>1598.96</ele>
  <time>2026-08-28T19:13:04Z</time>
  <course>11.24</course>
  <speed>0.022360679774997897</speed>
  <fix>3d</fix>
</trkpt>
<trkpt lat="40.0728423" lon="-105.2305756">
  <ele>1599.17</ele>
  <time>2026-08-28T19:13:04Z</time>
  <course>247.7</course>
  <speed>0.0</speed>
  <fix>3d</fix>
</trkpt>
<trkpt lat="40.0728422" lon="-105.2305753">
  <ele>1598.66</ele>
  <time>2026-08-28T19:13:04Z</time>
  <course>11.24</course>
  <speed>0.022360679774997897</speed>
  <fix>3d</fix>
</trkpt>
<trkpt lat="40.0728423" lon="-105.2305756">
  <ele>1598.88</ele>
  <time>2026-08-28T19:13:04Z</time>
  <course>253.1</course>
  <speed>0.0</speed>
  <fix>3d</fix>
</trkpt>
<trkpt lat="40.0728422" lon="-105.2305753">
  <ele>1598.35</ele>
  <time>2026-08-28T19:13:04Z</time>
  <course>11.24</course>
  <speed>0.022360679774997897</speed>
  <fix>3d</fix>
</trkpt>
<trkpt lat="40.0728423" lon="-105.2305756">
  <ele>1598.59</ele>
  <time>2026-08-28T19:13:04Z</time>
  <course>257.74</course>
  <speed>0.0</speed>
  <fix>3d</fix>
</trkpt>
<trkpt lat="40.0728422" lon="-105.2305753">
  <ele>1598.05</ele>
  <time>2026-08-28T19:13:04Z</time>
  <course>11.25</course>
  <speed>0.022360679774997897</speed>
  <fix>3d</fix>
</trkpt>
<trkpt lat="40.0728423" lon="-105.2305756">
  <ele>1598.29</ele>
  <time>2026-08-28T19:13:04Z</time>
  <course>261.37</course>
  <speed>0.0</speed>
  <fix>3d</fix>
</trkpt>
<trkpt lat="40.0728422" lon="-105.2305753">
  <ele>1597.76</ele>
  <time>2026-08-28T19:13:04Z</time>
  <course>11.25</course>
  <speed>0.022360679774997897</speed>
  <fix>3d</fix>
</trkpt>
<trkpt lat="40.0728423" lon="-105.2305756">
  <ele>1597.99</ele>
  <time>2026-08-28T19:13:04Z</time>
  <course>265.05</course>
  <speed>0.0</speed>
  <fix>3d</fix>
</trkpt>
<trkpt lat="40.0728422" lon="-105.2305753">
  <ele>1597.47</ele>
  <time>2026-08-28T19:13:04Z</time>
  <course>11.25</course>
  <speed>0.022360679774997897</speed>
  <fix>3d</fix>
</trkpt>
<trkpt lat="40.0728423" lon="-105.2305756">
  <ele>1597.69</ele>
  <time>2026-08-28T19:13:04Z</time>
  <course>269.68</course>
  <speed>0.0</speed>
  <fix>3d</fix>
</trkpt>
<trkpt lat="40.0728422" lon="-105.2305753">
  <ele>1597.2</ele>
  <time>2026-08-28T19:13:04Z</time>
  <course>11.25</course>
  <speed>0.022360679774997897</speed>
  <fix>3d</fix>
</trkpt>
<trkpt lat="40.0728423" lon="-105.2305756">
  <ele>1597.41</ele>
  <time>2026-08-28T19:13:04Z</time>
  <course>273.38</course>
  <speed>0.0</speed>
  <fix>3d</fix>
</trkpt>
<trkpt lat="40.0728422" lon="-105.2305753">
  <ele>1596.96</ele>
  <time>2026-08-28T19:13:04Z</time>
  <course>11.25</course>
  <speed>0.022360679774997897</speed>
  <fix>3d</fix>
</trkpt>
<trkpt lat="40.0728423" lon="-105.2305756">
  <ele>1597.14</ele>
  <time>2026-08-28T19:13:04Z</time>
  <course>277.74</course>
  <speed>0.0</speed>
  <fix>3d</fix>
</trkpt>
<trkpt lat="40.0728422" lon="-105.2305754">
  <ele>1596.77</ele>
  <time>2026-08-28T19:13:04Z</time>
  <course>11.26</course>
  <speed>0.022360679774997897</speed>
  <fix>3d</fix>
</trkpt>
<trkpt lat="40.0728423" lon="-105.2305756">
  <ele>1596.91</ele>
  <time>2026-08-28T19:13:04Z</time>
  <course>291.59</course>
  <speed>0.0</speed>
  <fix>3d</fix>
</trkpt>
<trkpt lat="40.0728422" lon="-105.2305754">
  <ele>1596.62</ele>
  <time>2026-08-28T19:13:04Z</time>
  <course>11.26</course>
  <speed>0.022360679774997897</speed>
  <fix>3d</fix>
</trkpt>
<trkpt lat="40.0728423" lon="-105.2305756">
  <ele>1596.72</ele>
  <time>2026-08-28T19:13:04Z</time>
  <course>311.54</course>
  <speed>0.0</speed>
  <fix>3d</fix>
</trkpt>
<trkpt lat="40.0728422" lon="-105.2305754">
  <ele>1596.5</ele>
  <time>2026-08-28T19:13:04Z</time>
  <course>11.26</course>
  <speed>0.022360679774997897</speed>
  <fix>3d</fix>
</trkpt>
<trkpt lat="40.0728423" lon="-105.2305756">
  <ele>1596.57</ele>
  <time>2026-08-28T19:13:04Z</time>
  <course>326.06</course>
  <speed>0.0</speed>
  <fix>3d</fix>
</trkpt>
<trkpt lat="40.0728422" lon="-105.2305754">
  <ele>1596.41</ele>
  <time>2026-08-28T19:13:04Z</time>
  <course>11.27</course>
  <speed>0.022360679774997897</speed>
  <fix>3d</fix>
</trkpt>
<trkpt lat="40.0728423" lon="-105.2305756">
  <ele>1596.46</ele>
  <time>2026-08-28T19:13:04Z</time>
  <course>330.49</course>
  <speed>0.0</speed>
  <fix>3d</fix>
</trkpt>
<trkpt lat="40.0728422" lon="-105.2305754">
  <ele>1596.31</ele>
  <time>2026-08-28T19:13:04Z</time>
  <course>11.27</course>
  <speed>0.022360679774997897</speed>
  <fix>3d</fix>
</trkpt>
<trkpt lat="40.0728423" lon="-105.2305756">
  <ele>1596.36</ele>
  <time>2026-08-28T19:13:04Z</time>
  <course>336.37</course>
  <speed>0.0</speed>
  <fix>3d</fix>
</trkpt>
<trkpt lat="40.0728422" lon="-105.2305754">
  <ele>1596.22</ele>
  <time>2026-08-28T19:13:04Z</time>
  <course>11.27</course>
  <speed>0.022360679774997897</speed>
  <fix>3d</fix>
</trkpt>
<trkpt lat="40.0728423" lon="-105.2305756">
  <ele>1596.27</ele>
  <time>2026-08-28T19:13:04Z</time>
  <course>347.23</course>
  <speed>0.0</speed>
  <fix>3d</fix>
</trkpt>
<trkpt lat="40.0728422" lon="-105.2305754">
  <ele>1596.12</ele>
  <time>2026-08-28T19:13:04Z</time>
  <course>11.27</course>
  <speed>0.022360679774997897</speed>
  <fix>3d</fix>
</trkpt>
<trkpt lat="40.0728423" lon="-105.2305756">
  <ele>1596.17</ele>
  <time>2026-08-28T19:13:04Z</time>
  <course>349.1</course>
  <speed>0.0</speed>
  <fix>3d</fix>
</trkpt>
<trkpt lat="40.0728422" lon="-105.2305754">
  <ele>1596.02</ele>
  <time>2026-08-28T19:13:04Z</time>
  <course>11.27</course>
  <speed>0.022360679774997897</speed>
  <fix>3d</fix>
</trkpt>
<trkpt lat="40.0728423" lon="-105.2305756">
  <ele>1596.08</ele>
  <time>2026-08-28T19:13:04Z</time>
  <course>344.66</course>
  <speed>0.0</speed>
  <fix>3d</fix>
</trkpt>
<trkpt lat="40.0728422" lon="-105.2305754">
  <ele>1595.92</ele>
  <time>2026-08-28T19:13:04Z</time>
  <course>11.28</course>
  <speed>0.022360679774997897</speed>
  <fix>3d</fix>
</trkpt>
<trkpt lat="40.0728423" lon="-105.2305756">
  <ele>1595.98</ele>
  <time>2026-08-28T19:13:04Z</time>
  <course>4.74</course>
  <speed>0.0</speed>
  <fix>3d</fix>
</trkpt>
<trkpt lat="40.0728422" lon="-105.2305754">
  <ele>1595.82</ele>
  <time>2026-08-28T19:13:04Z</time>
  <course>11.28</course>
  <speed>0.022360679774997897</speed>
  <fix>3d</fix>
</trkpt>
<trkpt lat="40.0728423" lon="-105.2305756">
  <ele>1595.88</ele>
  <time>2026-08-28T19:13:04Z</time>
  <course>30.5</course>
  <speed>0.0</speed>
  <fix>3d</fix>
</trkpt>
<trkpt lat="40.0728422" lon="-105.2305754">
  <ele>1595.72</ele>
  <time>2026-08-28T19:13:04Z</time>
  <course>11.28</course>
  <speed>0.0282842712474619</speed>
  <fix>3d</fix>
</trkpt>
<trkpt lat="40.0728423" lon="-105.2305756">
  <ele>1595.78</ele>
  <time>2026-08-28T19:13:04Z</time>
  <course>63.1</course>
  <speed>0.0</speed>
  <fix>3d</fix>
</trkpt>
<trkpt lat="40.0728422" lon="-105.2305754">
  <ele>1595.61</ele>
  <time>2026-08-28T19:13:04Z</time>
  <course>11.28</course>
  <speed>0.022360679774997897</speed>
  <fix>3d</fix>
</trkpt>
<trkpt lat="40.0728423" lon="-105.2305756">
  <ele>1595.67</ele>
  <time>2026-08-28T19:13:04Z</time>
  <course>91.93</course>
  <speed>0.0</speed>
  <fix>3d</fix>
</trkpt>
<trkpt lat="40.0728422" lon="-105.2305754">
  <ele>1595.51</ele>
  <time>2026-08-28T19:13:04Z</time>
  <course>11.28</course>
  <speed>0.022360679774997897</speed>
  <fix>3d</fix>
</trkpt>
<trkpt lat="40.0728423" lon="-105.2305756">
  <ele>1595.57</ele>
  <time>2026-08-28T19:13:04Z</time>
  <course>80.91</course>
  <speed>0.0</speed>
  <fix>3d</fix>
</trkpt>
<trkpt lat="40.0728422" lon="-105.2305754">
  <ele>1595.41</ele>
  <time>2026-08-28T19:13:04Z</time>
  <course>11.28</course>
  <speed>0.022360679774997897</speed>
  <fix>3d</fix>
</trkpt>
<trkpt lat="40.0728423" lon="-105.2305756">
  <ele>1595.47</ele>
  <time>2026-08-28T19:13:04Z</time>
  <course>78.47</course>
  <speed>0.0</speed>
  <fix>3d</fix>
</trkpt>
<trkpt lat="40.0728422" lon="-105.2305754">
  <ele>1595.31</ele>
  <time>2026-08-28T19:13:04Z</time>
  <course>11.28</course>
  <speed>0.022360679774997897</speed>
  <fix>3d</fix>
</trkpt>
<trkpt lat="40.0728423" lon="-105.2305756">
  <ele>1595.37</ele>
  <time>2026-08-28T19:13:04Z</time>
  <course>74.46</course>
  <speed>0.0</speed>
  <fix>3d</fix>
</trkpt>
<trkpt lat="40.0728422" lon="-105.2305754">
  <ele>1595.22</ele>
  <time>2026-08-28T19:13:04Z</time>
  <course>11.28</course>
  <speed>0.022360679774997897</speed>
  <fix>3d</fix>
</trkpt>
<trkpt lat="40.0728423" lon="-105.2305756">
  <ele>1595.27</ele>
  <time>2026-08-28T19:13:04Z</time>
  <course>65.02</course>
  <speed>0.0</speed>
  <fix>3d</fix>
</trkpt>
<trkpt lat="40.0728422" lon="-105.2305754">
  <ele>1595.12</ele>
  <time>2026-08-28T19:13:04Z</time>
  <course>11.28</course>
  <speed>0.022360679774997897</speed>
  <fix>3d</fix>
</trkpt>
<trkpt lat="40.0728423" lon="-105.2305756">
  <ele>1595.16</ele>
  <time>2026-08-28T19:13:04Z</time>
  <course>65.14</course>
  <speed>0.0</speed>
  <fix>3d</fix>
</trkpt>
<trkpt lat="40.0728422" lon="-105.2305754">
  <ele>1595.02</ele>
  <time>2026-08-28T19:13:04Z</time>
  <course>11.29</course>
  <speed>0.022360679774997897</speed>
  <fix>3d</fix>
</trkpt>
<trkpt lat="40.0728423" lon="-105.2305756">
  <ele>1595.07</ele>
  <time>2026-08-28T19:13:04Z</time>
  <course>70.74</course>
  <speed>0.0</speed>
  <fix>3d</fix>
</trkpt>
<trkpt lat="40.0728422" lon="-105.2305754">
  <ele>1594.92</ele>
  <time>2026-08-28T19:13:04Z</time>
  <course>11.29</course>
  <speed>0.022360679774997897</speed>
  <fix>3d</fix>
</trkpt>
<trkpt lat="40.0728423" lon="-105.2305756">
  <ele>1594.97</ele>
  <time>2026-08-28T19:13:04Z</time>
  <course>73.05</course>
  <speed>0.0</speed>
  <fix>3d</fix>
</trkpt>
<trkpt lat="40.0728422" lon="-105.2305754">
  <ele>1594.82</ele>
  <time>2026-08-28T19:13:04Z</time>
  <course>11.29</course>
  <speed>0.022360679774997897</speed>
  <fix>3d</fix>
</trkpt>
<trkpt lat="40.0728423" lon="-105.2305756">
  <ele>1594.87</ele>
  <time>2026-08-28T19:13:04Z</time>
  <course>74.51</course>
  <speed>0.0</speed>
  <fix>3d</fix>
</trkpt>
<trkpt lat="40.0728422" lon="-105.2305754">
  <ele>1594.72</ele>
  <time>2026-08-28T19:13:04Z</time>
  <course>11.29</course>
  <speed>0.022360679774997897</speed>
  <fix>3d</fix>
</trkpt>
<trkpt lat="40.0728423" lon="-105.2305756">
  <ele>1594.76</ele>
  <time>2026-08-28T19:13:04Z</time>
  <course>76.64</course>
  <speed>0.0</speed>
  <fix>3d</fix>
</trkpt>
<trkpt lat="40.0728422" lon="-105.2305753">
  <ele>1594.62</ele>
  <time>2026-08-28T19:13:04Z</time>
  <course>11.3</course>
  <speed>0.022360679774997897</speed>
  <fix>3d</fix>
</trkpt>
<trkpt lat="40.0728423" lon="-105.2305756">
  <ele>1594.65</ele>
  <time>2026-08-28T19:13:04Z</time>
  <course>76.05</course>
  <speed>0.0</speed>
  <fix>3d</fix>
</trkpt>
<trkpt lat="40.0728422" lon="-105.2305753">
  <ele>1594.52</ele>
  <time>2026-08-28T19:13:04Z</time>
  <course>11.3</course>
  <speed>0.022360679774997897</speed>
  <fix>3d</fix>
</trkpt>
<trkpt lat="40.0728423" lon="-105.2305756">
  <ele>1594.56</ele>
  <time>2026-08-28T19:13:04Z</time>
  <course>69.55</course>
  <speed>0.0</speed>
  <fix>3d</fix>
</trkpt>
<trkpt lat="40.0728422" lon="-105.2305753">
  <ele>1594.42</ele>
  <time>2026-08-28T19:13:04Z</time>
  <course>11.3</course>
  <speed>0.022360679774997897</speed>
  <fix>3d</fix>
</trkpt>
<trkpt lat="40.0728423" lon="-105.2305756">
  <ele>1594.46</ele>
  <time>2026-08-28T19:13:04Z</time>
  <course>60.85</course>
  <speed>0.0</speed>
  <fix>3d</fix>
</trkpt>
<trkpt lat="40.0728422" lon="-105.2305753">
  <ele>1594.31</ele>
  <time>2026-08-28T19:13:04Z</time>
  <course>11.3</course>
  <speed>0.022360679774997897</speed>
  <fix>3d</fix>
</trkpt>
<trkpt lat="40.0728423" lon="-105.2305756">
  <ele>1594.35</ele>
  <time>2026-08-28T19:13:04Z</time>
  <course>59.14</course>
  <speed>0.0</speed>
  <fix>3d</fix>
</trkpt>
<trkpt lat="40.0728422" lon="-105.2305753">
  <ele>1594.22</ele>
  <time>2026-08-28T19:13:04Z</time>
  <course>11.3</course>
  <speed>0.022360679774997897</speed>
  <fix>3d</fix>
</trkpt>
<trkpt lat="40.0728423" lon="-105.2305756">
  <ele>1594.25</ele>
  <time>2026-08-28T19:13:04Z</time>
  <course>67.4</course>
  <speed>0.0</speed>
  <fix>3d</fix>
</trkpt>
<trkpt lat="40.0728422" lon="-105.2305753">
  <ele>1594.12</ele>
  <time>2026-08-28T19:13:04Z</time>
  <course>11.3</course>
  <speed>0.022360679774997897</speed>
  <fix>3d</fix>
</trkpt>
<trkpt lat="40.0728423" lon="-105.2305756">
  <ele>1594.14</ele>
  <time>2026-08-28T19:13:04Z</time>
  <course>70.0</course>
  <speed>0.0</speed>
  <fix>3d</fix>
</trkpt>
<trkpt lat="40.0728422" lon="-105.2305753">
  <ele>1594.02</ele>
  <time>2026-08-28T19:13:04Z</time>
  <course>11.3</course>
  <speed>0.022360679774997897</speed>
  <fix>3d</fix>
</trkpt>
<trkpt lat="40.0728423" lon="-105.2305756">
  <ele>1594.05</ele>
  <time>2026-08-28T19:13:04Z</time>
  <course>74.84</course>
  <speed>0.0</speed>
  <fix>3d</fix>
</trkpt>
<trkpt lat="40.0728422" lon="-105.2305753">
  <ele>1593.92</ele>
  <time>2026-08-28T19:13:04Z</time>
  <course>11.3</course>
  <speed>0.022360679774997897</speed>
  <fix>3d</fix>
</trkpt>
<trkpt lat="40.0728423" lon="-105.2305756">
  <ele>1593.95</ele>
  <time>2026-08-28T19:13:04Z</time>
  <course>89.55</course>
  <speed>0.0</speed>
  <fix>3d</fix>
</trkpt>
<trkpt lat="40.0728422" lon="-105.2305753">
  <ele>1593.82</ele>
  <time>2026-08-28T19:13:04Z</time>
  <course>11.31</course>
  <speed>0.0282842712474619</speed>
  <fix>3d</fix>
</trkpt>
<trkpt lat="40.0728423" lon="-105.2305756">
  <ele>1593.84</ele>
  <time>2026-08-28T19:13:04Z</time>
  <course>95.57</course>
  <speed>0.0</speed>
  <fix>3d</fix>
</trkpt>
<trkpt lat="40.0728422" lon="-105.2305753">
  <ele>1593.72</ele>
  <time>2026-08-28T19:13:04Z</time>
  <course>11.31</course>
  <speed>0.0282842712474619</speed>
  <fix>3d</fix>
</trkpt>
<trkpt lat="40.0728423" lon="-105.2305756">
  <ele>1593.74</ele>
  <time>2026-08-28T19:13:04Z</time>
  <course>101.89</course>
  <speed>0.0</speed>
  <fix>3d</fix>
</trkpt>
<trkpt lat="40.0728422" lon="-105.2305753">
  <ele>1593.61</ele>
  <time>2026-08-28T19:13:04Z</time>
  <course>11.3</course>
  <speed>0.0282842712474619</speed>
  <fix>3d</fix>
</trkpt>
<trkpt lat="40.0728423" lon="-105.2305756">
  <ele>1593.63</ele>
  <time>2026-08-28T19:13:04Z</time>
  <course>106.57</course>
  <speed>0.0</speed>
  <fix>3d</fix>
</trkpt>
<trkpt lat="40.0728422" lon="-105.2305753">
  <ele>1593.51</ele>
  <time>2026-08-28T19:13:04Z</time>
  <course>11.3</course>
  <speed>0.0282842712474619</speed>
  <fix>3d</fix>
</trkpt>
<trkpt lat="40.0728423" lon="-105.2305756">
  <ele>1593.54</ele>
  <time>2026-08-28T19:13:04Z</time>
  <course>102.35</course>
  <speed>0.0</speed>
  <fix>3d</fix>
</trkpt>
<trkpt lat="40.0728422" lon="-105.2305753">
  <ele>1593.41</ele>
  <time>2026-08-28T19:13:04Z</time>
  <course>11.3</course>
  <speed>0.0282842712474619</speed>
  <fix>3d</fix>
</trkpt>
<trkpt lat="40.0728423" lon="-105.2305756">
  <ele>1593.44</ele>
  <time>2026-08-28T19:13:04Z</time>
  <course>98.37</course>
  <speed>0.0</speed>
  <fix>3d</fix>
</trkpt>
<trkpt lat="40.0728422" lon="-105.2305753">
  <ele>1593.31</ele>
  <time>2026-08-28T19:13:04Z</time>
  <course>11.3</course>
  <speed>0.0282842712474619</speed>
  <fix>3d</fix>
</trkpt>
<trkpt lat="40.0728423" lon="-105.2305756">
  <ele>1593.33</ele>
  <time>2026-08-28T19:13:04Z</time>
  <course>102.1</course>
  <speed>0.0</speed>
  <fix>3d</fix>
</trkpt>
<trkpt lat="40.0728422" lon="-105.2305753">
  <ele>1593.21</ele>
  <time>2026-08-28T19:13:04Z</time>
  <course>11.31</course>
  <speed>0.022360679774997897</speed>
  <fix>3d</fix>
</trkpt>
<trkpt lat="40.0728423" lon="-105.2305756">
  <ele>1593.23</ele>
  <time>2026-08-28T19:13:04Z</time>
  <course>104.11</course>
  <speed>0.0</speed>
  <fix>3d</fix>
</trkpt>
<trkpt lat="40.0728422" lon="-105.2305753">
  <ele>1593.11</ele>
  <time>2026-08-28T19:13:04Z</time>
  <course>11.31</course>
  <speed>0.022360679774997897</speed>
  <fix>3d</fix>
</trkpt>
<trkpt lat="40.0728423" lon="-105.2305755">
  <ele>1593.13</ele>
  <time>2026-08-28T19:13:04Z</time>
  <course>101.29</course>
  <speed>0.0</speed>
  <fix>3d</fix>
</trkpt>
<trkpt lat="40.0728422" lon="-105.2305753">
  <ele>1593.01</ele>
  <time>2026-08-28T19:13:04Z</time>
  <course>11.32</course>
  <speed>0.022360679774997897</speed>
  <fix>3d</fix>
</trkpt>
<trkpt lat="40.0728423" lon="-105.2305755">
  <ele>1593.03</ele>
  <time>2026-08-28T19:13:04Z</time>
  <course>99.18</course>
  <speed>0.0</speed>
  <fix>3d</fix>
</trkpt>
<trkpt lat="40.0728422" lon="-105.2305753">
  <ele>1592.91</ele>
  <time>2026-08-28T19:13:04Z</time>
  <course>11.32</course>
  <speed>0.022360679774997897</speed>
  <fix>3d</fix>
</trkpt>
<trkpt lat="40.0728423" lon="-105.2305755">
  <ele>1592.92</ele>
  <time>2026-08-28T19:13:04Z</time>
  <course>86.33</course>
  <speed>0.0</speed>
  <fix>3d</fix>
</trkpt>
<trkpt lat="40.0728422" lon="-105.2305753">
  <ele>1592.81</ele>
  <time>2026-08-28T19:13:04Z</time>
  <course>11.32</course>
  <speed>0.022360679774997897</speed>
  <fix>3d</fix>
</trkpt>
<trkpt lat="40.0728423" lon="-105.2305755">
  <ele>1592.83</ele>
  <time>2026-08-28T19:13:04Z</time>
  <course>74.99</course>
  <speed>0.0</speed>
  <fix>3d</fix>
</trkpt>
<trkpt lat="40.0728422" lon="-105.2305753">
  <ele>1592.71</ele>
  <time>2026-08-28T19:13:04Z</time>
  <course>11.33</course>
  <speed>0.022360679774997897</speed>
  <fix>3d</fix>
</trkpt>
<trkpt lat="40.0728423" lon="-105.2305755">
  <ele>1592.73</ele>
  <time>2026-08-28T19:13:04Z</time>
  <course>79.76</course>
  <speed>0.0</speed>
  <fix>3d</fix>
</trkpt>
<trkpt lat="40.0728422" lon="-105.2305753">
  <ele>1592.61</ele>
  <time>2026-08-28T19:13:04Z</time>
  <course>11.33</course>
  <speed>0.022360679774997897</speed>
  <fix>3d</fix>
</trkpt>
<trkpt lat="40.0728423" lon="-105.2305755">
  <ele>1592.63</ele>
  <time>2026-08-28T19:13:04Z</time>
  <course>91.79</course>
  <speed>0.0</speed>
  <fix>3d</fix>
</trkpt>
<trkpt lat="40.0728422" lon="-105.2305753">
  <ele>1592.51</ele>
  <time>2026-08-28T19:13:04Z</time>
  <course>11.33</course>
  <speed>0.022360679774997897</speed>
  <fix>3d</fix>
</trkpt>
<trkpt lat="40.0728423" lon="-105.2305755">
  <ele>1592.53</ele>
  <time>2026-08-28T19:13:04Z</time>
  <course>97.77</course>
  <speed>0.0</speed>
  <fix>3d</fix>
</trkpt>
<trkpt lat="40.0728422" lon="-105.2305753">
  <ele>1592.41</ele>
  <time>2026-08-28T19:13:04Z</time>
  <course>11.33</course>
  <speed>0.022360679774997897</speed>
  <fix>3d</fix>
</trkpt>
<trkpt lat="40.0728423" lon="-105.2305755">
  <ele>1592.42</ele>
  <time>2026-08-28T19:13:04Z</time>
  <course>108.0</course>
  <speed>0.0</speed>
  <fix>3d</fix>
</trkpt>
<trkpt lat="40.0728422" lon="-105.2305753">
  <ele>1592.31</ele>
  <time>2026-08-28T19:13:04Z</time>
  <course>11.33</course>
  <speed>0.022360679774997897</speed>
  <fix>3d</fix>
</trkpt>
<trkpt lat="40.0728423" lon="-105.2305755">
  <ele>1592.33</ele>
  <time>2026-08-28T19:13:04Z</time>
  <course>129.48</course>
  <speed>0.0</speed>
  <fix>3d</fix>
</trkpt>
<trkpt lat="40.0728422" lon="-105.2305753">
  <ele>1592.21</ele>
  <time>2026-08-28T19:13:04Z</time>
  <course>11.33</course>
  <speed>0.022360679774997897</speed>
  <fix>3d</fix>
</trkpt>
<trkpt lat="40.0728423" lon="-105.2305755">
  <ele>1592.23</ele>
  <time>2026-08-28T19:13:04Z</time>
  <course>119.1</course>
  <speed>0.0</speed>
  <fix>3d</fix>
</trkpt>
<trkpt lat="40.0728422" lon="-105.2305753">
  <ele>1592.11</ele>
  <time>2026-08-28T19:13:04Z</time>
  <course>11.33</course>
  <speed>0.022360679774997897</speed>
  <fix>3d</fix>
</trkpt>
<trkpt lat="40.0728423" lon="-105.2305755">
  <ele>1592.12</ele>
  <time>2026-08-28T19:13:04Z</time>
  <course>84.37</course>
  <speed>0.0</speed>
  <fix>3d</fix>
</trkpt>
<trkpt lat="40.0728422" lon="-105.2305753">
  <ele>1592.0</ele>
  <time>2026-08-28T19:13:04Z</time>
  <course>11.33</course>
  <speed>0.022360679774997897</speed>
  <fix>3d</fix>
</trkpt>
<trkpt lat="40.0728423" lon="-105.2305755">
  <ele>1592.02</ele>
  <time>2026-08-28T19:13:04Z</time>
  <course>110.29</course>
  <speed>0.0</speed>
  <fix>3d</fix>
</trkpt>
<trkpt lat="40.0728422" lon="-105.2305753">
  <ele>1591.9</ele>
  <time>2026-08-28T19:13:04Z</time>
  <course>11.34</course>
  <speed>0.022360679774997897</speed>
  <fix>3d</fix>
</trkpt>
<trkpt lat="40.0728423" lon="-105.2305755">
  <ele>1591.91</ele>
  <time>2026-08-28T19:13:04Z</time>
  <course>174.56</course>
  <speed>0.0</speed>
  <fix>3d</fix>
</trkpt>
<trkpt lat="40.0728422" lon="-105.2305753">
  <ele>1591.8</ele>
  <time>2026-08-28T19:13:04Z</time>
  <course>11.35</course>
  <speed>0.022360679774997897</speed>
  <fix>3d</fix>
</trkpt>
<trkpt lat="40.0728423" lon="-105.2305755">
  <ele>1591.82</ele>
  <time>2026-08-28T19:13:04Z</time>
  <course>182.41</course>
  <speed>0.0</speed>
  <fix>3d</fix>
</trkpt>
<trkpt lat="40.0728422" lon="-105.2305753">
  <ele>1591.71</ele>
  <time>2026-08-28T19:13:04Z</time>
  <course>11.35</course>
  <speed>0.022360679774997897</speed>
  <fix>3d</fix>
</trkpt>
<trkpt lat="40.0728423" lon="-105.2305755">
  <ele>1591.72</ele>
  <time>2026-08-28T19:13:04Z</time>
  <course>173.41</course>
  <speed>0.0</speed>
  <fix>3d</fix>
</trkpt>
<trkpt lat="40.0728422" lon="-105.2305753">
  <ele>1591.61</ele>
  <time>2026-08-28T19:13:04Z</time>
  <course>11.35</course>
  <speed>0.022360679774997897</speed>
  <fix>3d</fix>
</trkpt>
<trkpt lat="40.0728423" lon="-105.2305755">
  <ele>1591.62</ele>
  <time>2026-08-28T19:13:04Z</time>
  <course>155.55</course>
  <speed>0.0</speed>
  <fix>3d</fix>
</trkpt>
<trkpt lat="40.0728422" lon="-105.2305753">
  <ele>1591.51</ele>
  <time>2026-08-28T19:13:04Z</time>
  <course>11.35</course>
  <speed>0.022360679774997897</speed>
  <fix>3d</fix>
</trkpt>
<trkpt lat="40.0728423" lon="-105.2305755">
  <ele>1591.53</ele>
  <time>2026-08-28T19:13:04Z</time>
  <course>173.8</course>
  <speed>0.0</speed>
  <fix>3d</fix>
</trkpt>
<trkpt lat="40.0728422" lon="-105.2305753">
  <ele>1591.41</ele>
  <time>2026-08-28T19:13:04Z</time>
  <course>11.34</course>
  <speed>0.022360679774997897</speed>
  <fix>3d</fix>
</trkpt>
<trkpt lat="40.0728423" lon="-105.2305755">
  <ele>1591.42</ele>
  <time>2026-08-28T19:13:04Z</time>
  <course>187.94</course>
  <speed>0.0</speed>
  <fix>3d</fix>
</trkpt>
<trkpt lat="40.0728422" lon="-105.2305753">
  <ele>1591.31</ele>
  <time>2026-08-28T19:13:04Z</time>
  <course>11.34</course>
  <speed>0.022360679774997897</speed>
  <fix>3d</fix>
</trkpt>
<trkpt lat="40.0728423" lon="-105.2305755">
  <ele>1591.33</ele>
  <time>2026-08-28T19:13:04Z</time>
  <course>192.77</course>
  <speed>0.0</speed>
  <fix>3d</fix>
</trkpt>
<trkpt lat="40.0728422" lon="-105.2305753">
  <ele>1591.21</ele>
  <time>2026-08-28T19:13:04Z</time>
  <course>11.35</course>
  <speed>0.022360679774997897</speed>
  <fix>3d</fix>
</trkpt>
<trkpt lat="40.0728423" lon="-105.2305755">
  <ele>1591.23</ele>
  <time>2026-08-28T19:13:04Z</time>
  <course>190.71</course>
  <speed>0.0</speed>
  <fix>3d</fix>
</trkpt>
<trkpt lat="40.0728422" lon="-105.2305753">
  <ele>1591.11</ele>
  <time>2026-08-28T19:13:04Z</time>
  <course>11.35</course>
  <speed>0.0282842712474619</speed>
  <fix>3d</fix>
</trkpt>
<trkpt lat="40.0728423" lon="-105.2305755">
  <ele>1591.12</ele>
  <time>2026-08-28T19:13:04Z</time>
  <course>188.4</course>
  <speed>0.0</speed>
  <fix>3d</fix>
</trkpt>
<trkpt lat="40.0728422" lon="-105.2305753">
  <ele>1591.01</ele>
  <time>2026-08-28T19:13:04Z</time>
  <course>11.35</course>
  <speed>0.022360679774997897</speed>
  <fix>3d</fix>
</trkpt>
<trkpt lat="40.0728423" lon="-105.2305755">
  <ele>1591.02</ele>
  <time>2026-08-28T19:13:04Z</time>
  <course>189.1</course>
  <speed>0.0</speed>
  <fix>3d</fix>
</trkpt>
<trkpt lat="40.0728422" lon="-105.2305753">
  <ele>1590.91</ele>
  <time>2026-08-28T19:13:04Z</time>
  <course>11.36</course>
  <speed>0.022360679774997897</speed>
  <fix>3d</fix>
</trkpt>
<trkpt lat="40.0728423" lon="-105.2305755">
  <ele>1590.91</ele>
  <time>2026-08-28T19:13:04Z</time>
  <course>186.5</course>
  <speed>0.0</speed>
  <fix>3d</fix>
</trkpt>
<trkpt lat="40.0728422" lon="-105.2305753">
  <ele>1590.81</ele>
  <time>2026-08-28T19:13:04Z</time>
  <course>11.36</course>
  <speed>0.022360679774997897</speed>
  <fix>3d</fix>
</trkpt>
<trkpt lat="40.0728423" lon="-105.2305755">
  <ele>1590.82</ele>
  <time>2026-08-28T19:13:04Z</time>
  <course>157.66</course>
  <speed>0.0</speed>
  <fix>3d</fix>
</trkpt>
<trkpt lat="40.0728422" lon="-105.2305753">
  <ele>1590.71</ele>
  <time>2026-08-28T19:13:04Z</time>
  <course>11.36</course>
  <speed>0.022360679774997897</speed>
  <fix>3d</fix>
</trkpt>
<trkpt lat="40.0728423" lon="-105.2305755">
  <ele>1590.72</ele>
  <time>2026-08-28T19:13:04Z</time>
  <course>126.93</course>
  <speed>0.0</speed>
  <fix>3d</fix>
</trkpt>
<trkpt lat="40.0728422" lon="-105.2305753">
  <ele>1590.61</ele>
  <time>2026-08-28T19:13:04Z</time>
  <course>11.35</course>
  <speed>0.022360679774997897</speed>
  <fix>3d</fix>
</trkpt>
<trkpt lat="40.0728423" lon="-105.2305755">
  <ele>1590.62</ele>
  <time>2026-08-28T19:13:04Z</time>
  <course>123.8</course>
  <speed>0.0</speed>
  <fix>3d</fix>
</trkpt>
<trkpt lat="40.0728422" lon="-105.2305753">
  <ele>1590.51</ele>
  <time>2026-08-28T19:13:04Z</time>
  <course>11.35</course>
  <speed>0.022360679774997897</speed>
  <fix>3d</fix>
</trkpt>
<trkpt lat="40.0728423" lon="-105.2305755">
  <ele>1590.52</ele>
  <time>2026-08-28T19:13:04Z</time>
  <course>143.38</course>
  <speed>0.0</speed>
  <fix>3d</fix>
</trkpt>
<trkpt lat="40.0728422" lon="-105.2305753">
  <ele>1590.41</ele>
  <time>2026-08-28T19:13:04Z</time>
  <course>11.35</course>
  <speed>0.022360679774997897</speed>
  <fix>3d</fix>
</trkpt>
<trkpt lat="40.0728423" lon="-105.2305755">
  <ele>1590.41</ele>
  <time>2026-08-28T19:13:04Z</time>
  <course>163.99</course>
  <speed>0.0</speed>
  <fix>3d</fix>
</trkpt>
<trkpt lat="40.0728422" lon="-105.2305753">
  <ele>1590.31</ele>
  <time>2026-08-28T19:13:04Z</time>
  <course>11.35</course>
  <speed>0.022360679774997897</speed>
  <fix>3d</fix>
</trkpt>
<trkpt lat="40.0728423" lon="-105.2305755">
  <ele>1590.32</ele>
  <time>2026-08-28T19:13:04Z</time>
  <course>158.01</course>
  <speed>0.0</speed>
  <fix>3d</fix>
</trkpt>
<trkpt lat="40.0728422" lon="-105.2305753">
  <ele>1590.21</ele>
  <time>2026-08-28T19:13:04Z</time>
  <course>11.35</course>
  <speed>0.0282842712474619</speed>
  <fix>3d</fix>
</trkpt>
<trkpt lat="40.0728422" lon="-105.2305755">
  <ele>1590.22</ele>
  <time>2026-08-28T19:13:04Z</time>
  <course>178.37</course>
  <speed>0.0</speed>
  <fix>3d</fix>
</trkpt>
<trkpt lat="40.0728422" lon="-105.2305753">
  <ele>1590.11</ele>
  <time>2026-08-28T19:13:04Z</time>
  <course>11.35</course>
  <speed>0.022360679774997897</speed>
  <fix>3d</fix>
</trkpt>
<trkpt lat="40.0728421" lon="-105.2305755">
  <ele>1590.12</ele>
  <time>2026-08-28T19:13:04Z</time>
  <course>196.56</course>
  <speed>0.0</speed>
  <fix>3d</fix>
</trkpt>
<trkpt lat="40.0728422" lon="-105.2305753">
  <ele>1590.01</ele>
  <time>2026-08-28T19:13:04Z</time>
  <course>11.35</course>
  <speed>0.01414213562373095</speed>
  <fix>3d</fix>
</trkpt>
<trkpt lat="40.0728421" lon="-105.2305755">
  <ele>1590.02</ele>
  <time>2026-08-28T19:13:04Z</time>
  <course>220.43</course>
  <speed>0.0</speed>
  <fix>3d</fix>
</trkpt>
<trkpt lat="40.0728422" lon="-105.2305753">
  <ele>1589.91</ele>
  <time>2026-08-28T19:13:04Z</time>
  <course>11.35</course>
  <speed>0.01414213562373095</speed>
  <fix>3d</fix>
</trkpt>
<trkpt lat="40.0728421" lon="-105.2305755">
  <ele>1589.91</ele>
  <time>2026-08-28T19:13:04Z</time>
  <course>252.61</course>
  <speed>0.0</speed>
  <fix>3d</fix>
</trkpt>
<trkpt lat="40.0728421" lon="-105.2305753">
  <ele>1589.82</ele>
  <time>2026-08-28T19:13:04Z</time>
  <course>11.35</course>
  <speed>0.022360679774997897</speed>
  <fix>3d</fix>
</trkpt>
<trkpt lat="40.0728421" lon="-105.2305755">
  <ele>1589.82</ele>
  <time>2026-08-28T19:13:04Z</time>
  <course>288.5</course>
  <speed>0.0</speed>
  <fix>3d</fix>
</trkpt>
<trkpt lat="40.0728421" lon="-105.2305753">
  <ele>1589.72</ele>
  <time>2026-08-28T19:13:04Z</time>
  <course>11.36</course>
  <speed>0.022360679774997897</speed>
  <fix>3d</fix>
</trkpt>
<trkpt lat="40.0728421" lon="-105.2305755">
  <ele>1589.72</ele>
  <time>2026-08-28T19:13:04Z</time>
  <course>334.56</course>
  <speed>0.0</speed>
  <fix>3d</fix>
</trkpt>
<trkpt lat="40.0728421" lon="-105.2305753">
  <ele>1589.62</ele>
  <time>2026-08-28T19:13:04Z</time>
  <course>11.37</course>
  <speed>0.022360679774997897</speed>
  <fix>3d</fix>
</trkpt>
<trkpt lat="40.0728421" lon="-105.2305755">
  <ele>1589.62</ele>
  <time>2026-08-28T19:13:04Z</time>
  <course>352.69</course>
  <speed>0.0</speed>
  <fix>3d</fix>
</trkpt>
<trkpt lat="40.0728421" lon="-105.2305753">
  <ele>1589.51</ele>
  <time>2026-08-28T19:13:04Z</time>
  <course>11.37</course>
  <speed>0.022360679774997897</speed>
  <fix>3d</fix>
</trkpt>
<trkpt lat="40.0728421" lon="-105.2305755">
  <ele>1589.52</ele>
  <time>2026-08-28T19:13:04Z</time>
  <course>358.53</course>
  <speed>0.0</speed>
  <fix>3d</fix>
</trkpt>
<trkpt lat="40.0728421" lon="-105.2305753">
  <ele>1589.41</ele>
  <time>2026-08-28T19:13:04Z</time>
  <course>11.37</course>
  <speed>0.022360679774997897</speed>
  <fix>3d</fix>
</trkpt>
<trkpt lat="40.0728421" lon="-105.2305755">
  <ele>1589.41</ele>
  <time>2026-08-28T19:13:04Z</time>
  <course>3.11</course>
  <speed>0.0</speed>
  <fix>3d</fix>
</trkpt>
<trkpt lat="40.0728421" lon="-105.2305753">
  <ele>1589.31</ele>
  <time>2026-08-28T19:13:04Z</time>
  <course>11.37</course>
  <speed>0.022360679774997897</speed>
  <fix>3d</fix>
</trkpt>
<trkpt lat="40.0728421" lon="-105.2305755">
  <ele>1589.31</ele>
  <time>2026-08-28T19:13:04Z</time>
  <course>1.26</course>
  <speed>0.0</speed>
  <fix>3d</fix>
</trkpt>
<trkpt lat="40.0728421" lon="-105.2305753">
  <ele>1589.21</ele>
  <time>2026-08-28T19:13:04Z</time>
  <course>11.36</course>
  <speed>0.022360679774997897</speed>
  <fix>3d</fix>
</trkpt>
<trkpt lat="40.0728421" lon="-105.2305755">
  <ele>1589.21</ele>
  <time>2026-08-28T19:13:04Z</time>
  <course>357.61</course>
  <speed>0.01</speed>
  <fix>3d</fix>
</trkpt>
<trkpt lat="40.0728421" lon="-105.2305753">
  <ele>1589.1</ele>
  <time>2026-08-28T19:13:04Z</time>
  <course>11.36</course>
  <speed>0.022360679774997897</speed>
  <fix>3d</fix>
</trkpt>
<trkpt lat="40.0728421" lon="-105.2305755">
  <ele>1589.11</ele>
  <time>2026-08-28T19:13:04Z</time>
  <course>359.83</course>
  <speed>0.01</speed>
  <fix>3d</fix>
</trkpt>
<trkpt lat="40.0728421" lon="-105.2305753">
  <ele>1589.0</ele>
  <time>2026-08-28T19:13:04Z</time>
  <course>11.37</course>
  <speed>0.022360679774997897</speed>
  <fix>3d</fix>
</trkpt>
<trkpt lat="40.0728422" lon="-105.2305755">
  <ele>1589.01</ele>
  <time>2026-08-28T19:13:04Z</time>
  <course>3.9</course>
  <speed>0.01</speed>
  <fix>3d</fix>
</trkpt>
<trkpt lat="40.0728421" lon="-105.2305753">
  <ele>1588.9</ele>
  <time>2026-08-28T19:13:04Z</time>
  <course>11.37</course>
  <speed>0.02</speed>
  <fix>3d</fix>
</trkpt>
<trkpt lat="40.0728423" lon="-105.2305755">
  <ele>1588.9</ele>
  <time>2026-08-28T19:13:04Z</time>
  <course>6.47</course>
  <speed>0.01</speed>
  <fix>3d</fix>
</trkpt>
<trkpt lat="40.0728421" lon="-105.2305753">
  <ele>1588.8</ele>
  <time>2026-08-28T19:13:04Z</time>
  <course>11.37</course>
  <speed>0.022360679774997897</speed>
  <fix>3d</fix>
</trkpt>
<trkpt lat="40.0728423" lon="-105.2305755">
  <ele>1588.81</ele>
  <time>2026-08-28T19:13:04Z</time>
  <course>8.98</course>
  <speed>0.01</speed>
  <fix>3d</fix>
</trkpt>
<trkpt lat="40.0728421" lon="-105.2305753">
  <ele>1588.7</ele>
  <time>2026-08-28T19:13:04Z</time>
  <course>11.37</course>
  <speed>0.022360679774997897</speed>
  <fix>3d</fix>
</trkpt>
<trkpt lat="40.0728423" lon="-105.2305755">
  <ele>1588.71</ele>
  <time>2026-08-28T19:13:04Z</time>
  <course>12.51</course>
  <speed>0.01</speed>
  <fix>3d</fix>
</trkpt>
<trkpt lat="40.0728421" lon="-105.2305753">
  <ele>1588.61</ele>
  <time>2026-08-28T19:13:04Z</time>
  <course>11.37</course>
  <speed>0.022360679774997897</speed>
  <fix>3d</fix>
</trkpt>
<trkpt lat="40.0728423" lon="-105.2305755">
  <ele>1588.61</ele>
  <time>2026-08-28T19:13:04Z</time>
  <course>16.82</course>
  <speed>0.01</speed>
  <fix>3d</fix>
</trkpt>
<trkpt lat="40.0728421" lon="-105.2305753">
  <ele>1588.51</ele>
  <time>2026-08-28T19:13:04Z</time>
  <course>11.37</course>
  <speed>0.022360679774997897</speed>
  <fix>3d</fix>
</trkpt>
<trkpt lat="40.0728423" lon="-105.2305755">
  <ele>1588.51</ele>
  <time>2026-08-28T19:13:04Z</time>
  <course>20.91</course>
  <speed>0.0</speed>
  <fix>3d</fix>
</trkpt>
<trkpt lat="40.0728422" lon="-105.2305753">
  <ele>1588.41</ele>
  <time>2026-08-28T19:13:04Z</time>
  <course>11.37</course>
  <speed>0.022360679774997897</speed>
  <fix>3d</fix>
</trkpt>
<trkpt lat="40.0728424" lon="-105.2305754">
  <ele>1588.41</ele>
  <time>2026-08-28T19:13:04Z</time>
  <course>23.91</course>
  <speed>0.0</speed>
  <fix>3d</fix>
</trkpt>
<trkpt lat="40.0728422" lon="-105.2305753">
  <ele>1588.31</ele>
  <time>2026-08-28T19:13:04Z</time>
  <course>11.37</course>
  <speed>0.022360679774997897</speed>
  <fix>3d</fix>
</trkpt>
<trkpt lat="40.0728424" lon="-105.2305753">
  <ele>1588.32</ele>
  <time>2026-08-28T19:13:04Z</time>
  <course>26.71</course>
  <speed>0.0</speed>
  <fix>3d</fix>
</trkpt>
<trkpt lat="40.0728422" lon="-105.2305753">
  <ele>1588.21</ele>
  <time>2026-08-28T19:13:04Z</time>
  <course>11.37</course>
  <speed>0.022360679774997897</speed>
  <fix>3d</fix>
</trkpt>
<trkpt lat="40.0728424" lon="-105.2305753">
  <ele>1588.22</ele>
  <time>2026-08-28T19:13:04Z</time>
  <course>29.73</course>
  <speed>0.0</speed>
  <fix>3d</fix>
</trkpt>
<trkpt lat="40.0728422" lon="-105.2305752">
  <ele>1588.11</ele>
  <time>2026-08-28T19:13:04Z</time>
  <course>11.37</course>
  <speed>0.022360679774997897</speed>
  <fix>3d</fix>
</trkpt>
<trkpt lat="40.0728424" lon="-105.2305753">
  <ele>1588.12</ele>
  <time>2026-08-28T19:13:04Z</time>
  <course>46.95</course>
  <speed>0.0</speed>
  <fix>3d</fix>
</trkpt>
<trkpt lat="40.0728422" lon="-105.2305752">
  <ele>1588.01</ele>
  <time>2026-08-28T19:13:04Z</time>
  <course>11.37</course>
  <speed>0.0282842712474619</speed>
  <fix>3d</fix>
</trkpt>
<trkpt lat="40.0728424" lon="-105.2305753">
  <ele>1588.02</ele>
  <time>2026-08-28T19:13:04Z</time>
  <course>93.9</course>
  <speed>0.0</speed>
  <fix>3d</fix>
</trkpt>
<trkpt lat="40.0728422" lon="-105.2305752">
  <ele>1587.91</ele>
  <time>2026-08-28T19:13:04Z</time>
  <course>11.37</course>
  <speed>0.0282842712474619</speed>
  <fix>3d</fix>
</trkpt>
<trkpt lat="40.0728424" lon="-105.2305753">
  <ele>1587.91</ele>
  <time>2026-08-28T19:13:04Z</time>
  <course>137.45</course>
  <speed>0.0</speed>
  <fix>3d</fix>
</trkpt>
<trkpt lat="40.0728422" lon="-105.2305752">
  <ele>1587.81</ele>
  <time>2026-08-28T19:13:04Z</time>
  <course>11.37</course>
  <speed>0.022360679774997897</speed>
  <fix>3d</fix>
</trkpt>
<trkpt lat="40.0728424" lon="-105.2305753">
  <ele>1587.82</ele>
  <time>2026-08-28T19:13:04Z</time>
  <course>192.78</course>
  <speed>0.0</speed>
  <fix>3d</fix>
</trkpt>
<trkpt lat="40.0728422" lon="-105.2305752">
  <ele>1587.71</ele>
  <time>2026-08-28T19:13:04Z</time>
  <course>11.38</course>
  <speed>0.022360679774997897</speed>
  <fix>3d</fix>
</trkpt>
<trkpt lat="40.0728424" lon="-105.2305753">
  <ele>1587.72</ele>
  <time>2026-08-28T19:13:04Z</time>
  <course>210.37</course>
  <speed>0.0</speed>
  <fix>3d</fix>
</trkpt>
<trkpt lat="40.0728422" lon="-105.2305752">
  <ele>1587.61</ele>
  <time>2026-08-28T19:13:04Z</time>
  <course>11.38</course>
  <speed>0.022360679774997897</speed>
  <fix>3d</fix>
</trkpt>
<trkpt lat="40.0728424" lon="-105.2305753">
  <ele>1587.62</ele>
  <time>2026-08-28T19:13:04Z</time>
  <course>216.69</course>
  <speed>0.0</speed>
  <fix>3d</fix>
</trkpt>
<trkpt lat="40.0728422" lon="-105.2305752">
  <ele>1587.52</ele>
  <time>2026-08-28T19:13:04Z</time>
  <course>11.38</course>
  <speed>0.022360679774997897</speed>
  <fix>3d</fix>
</trkpt>
<trkpt lat="40.0728424" lon="-105.2305753">
  <ele>1587.52</ele>
  <time>2026-08-28T19:13:04Z</time>
  <course>220.63</course>
  <speed>0.0</speed>
  <fix>3d</fix>
</trkpt>
<trkpt lat="40.0728422" lon="-105.2305752">
  <ele>1587.42</ele>
  <time>2026-08-28T19:13:04Z</time>
  <course>11.38</course>
  <speed>0.022360679774997897</speed>
  <fix>3d</fix>
</trkpt>
<trkpt lat="40.0728424" lon="-105.2305753">
  <ele>1587.41</ele>
  <time>2026-08-28T19:13:04Z</time>
  <course>222.56</course>
  <speed>0.0</speed>
  <fix>3d</fix>
</trkpt>
<trkpt lat="40.0728422" lon="-105.2305752">
  <ele>1587.31</ele>
  <time>2026-08-28T19:13:04Z</time>
  <course>11.38</course>
  <speed>0.022360679774997897</speed>
  <fix>3d</fix>
</trkpt>
<trkpt lat="40.0728424" lon="-105.2305753">
  <ele>1587.31</ele>
  <time>2026-08-28T19:13:04Z</time>
  <course>223.11</course>
  <speed>0.0</speed>
  <fix>3d</fix>
</trkpt>
<trkpt lat="40.0728422" lon="-105.2305752">
  <ele>1587.21</ele>
  <time>2026-08-28T19:13:04Z</time>
  <course>11.38</course>
  <speed>0.022360679774997897</speed>
  <fix>3d</fix>
</trkpt>
<trkpt lat="40.0728424" lon="-105.2305753">
  <ele>1587.21</ele>
  <time>2026-08-28T19:13:04Z</time>
  <course>221.64</course>
  <speed>0.0</speed>
  <fix>3d</fix>
</trkpt>
<trkpt lat="40.0728422" lon="-105.2305752">
  <ele>1587.11</ele>
  <time>2026-08-28T19:13:04Z</time>
  <course>11.37</course>
  <speed>0.022360679774997897</speed>
  <fix>3d</fix>
</trkpt>
<trkpt lat="40.0728424" lon="-105.2305753">
  <ele>1587.11</ele>
  <time>2026-08-28T19:13:04Z</time>
  <course>220.11</course>
  <speed>0.0</speed>
  <fix>3d</fix>
</trkpt>
<trkpt lat="40.0728422" lon="-105.2305752">
  <ele>1587.01</ele>
  <time>2026-08-28T19:13:04Z</time>
  <course>11.38</course>
  <speed>0.022360679774997897</speed>
  <fix>3d</fix>
</trkpt>
<trkpt lat="40.0728424" lon="-105.2305753">
  <ele>1587.01</ele>
  <time>2026-08-28T19:13:04Z</time>
  <course>221.25</course>
  <speed>0.01</speed>
  <fix>3d</fix>
</trkpt>
<trkpt lat="40.0728422" lon="-105.2305752">
  <ele>1586.91</ele>
  <time>2026-08-28T19:13:04Z</time>
  <course>11.38</course>
  <speed>0.022360679774997897</speed>
  <fix>3d</fix>
</trkpt>
<trkpt lat="40.0728424" lon="-105.2305753">
  <ele>1586.9</ele>
  <time>2026-08-28T19:13:04Z</time>
  <course>222.03</course>
  <speed>0.01</speed>
  <fix>3d</fix>
</trkpt>
<trkpt lat="40.0728422" lon="-105.2305752">
  <ele>1586.81</ele>
  <time>2026-08-28T19:13:04Z</time>
  <course>11.38</course>
  <speed>0.022360679774997897</speed>
  <fix>3d</fix>
</trkpt>
<trkpt lat="40.0728424" lon="-105.2305753">
  <ele>1586.81</ele>
  <time>2026-08-28T19:13:04Z</time>
  <course>221.53</course>
  <speed>0.01</speed>
  <fix>3d</fix>
</trkpt>
<trkpt lat="40.0728422" lon="-105.2305752">
  <ele>1586.71</ele>
  <time>2026-08-28T19:13:04Z</time>
  <course>11.38</course>
  <speed>0.022360679774997897</speed>
  <fix>3d</fix>
</trkpt>
<trkpt lat="40.0728424" lon="-105.2305754">
  <ele>1586.71</ele>
  <time>2026-08-28T19:13:04Z</time>
  <course>218.83</course>
  <speed>0.01</speed>
  <fix>3d</fix>
</trkpt>
<trkpt lat="40.0728422" lon="-105.2305752">
  <ele>1586.61</ele>
  <time>2026-08-28T19:13:04Z</time>
  <course>11.38</course>
  <speed>0.022360679774997897</speed>
  <fix>3d</fix>
</trkpt>
<trkpt lat="40.0728423" lon="-105.2305755">
  <ele>1586.61</ele>
  <time>2026-08-28T19:13:04Z</time>
  <course>218.16</course>
  <speed>0.01</speed>
  <fix>3d</fix>
</trkpt>
<trkpt lat="40.0728422" lon="-105.2305752">
  <ele>1586.51</ele>
  <time>2026-08-28T19:13:04Z</time>
  <course>11.37</course>
  <speed>0.022360679774997897</speed>
  <fix>3d</fix>
</trkpt>
<trkpt lat="40.0728423" lon="-105.2305755">
  <ele>1586.51</ele>
  <time>2026-08-28T19:13:04Z</time>
  <course>220.83</course>
  <speed>0.01</speed>
  <fix>3d</fix>
</trkpt>
<trkpt lat="40.0728422" lon="-105.2305752">
  <ele>1586.41</ele>
  <time>2026-08-28T19:13:04Z</time>
  <course>11.37</course>
  <speed>0.022360679774997897</speed>
  <fix>3d</fix>
</trkpt>
<trkpt lat="40.0728423" lon="-105.2305755">
  <ele>1586.41</ele>
  <time>2026-08-28T19:13:04Z</time>
  <course>220.97</course>
  <speed>0.01</speed>
  <fix>3d</fix>
</trkpt>
<trkpt lat="40.0728422" lon="-105.2305752">
  <ele>1586.31</ele>
  <time>2026-08-28T19:13:05Z</time>
  <course>11.38</course>
  <speed>0.022360679774997897</speed>
  <fix>3d</fix>
</trkpt>
<trkpt lat="40.0728423" lon="-105.2305755">
  <ele>1586.32</ele>
  <time>2026-08-28T19:13:05Z</time>
  <course>219.1</course>
  <speed>0.0</speed>
  <fix>3d</fix>
</trkpt>
<trkpt lat="40.0728422" lon="-105.2305752">
  <ele>1586.22</ele>
  <time>2026-08-28T19:13:05Z</time>
  <course>11.38</course>
  <speed>0.022360679774997897</speed>
  <fix>3d</fix>
</trkpt>
<trkpt lat="40.0728423" lon="-105.2305755">
  <ele>1586.22</ele>
  <time>2026-08-28T19:13:05Z</time>
  <course>216.97</course>
  <speed>0.0</speed>
  <fix>3d</fix>
</trkpt>
<trkpt lat="40.0728422" lon="-105.2305753">
  <ele>1586.16</ele>
  <time>2026-08-28T19:13:05Z</time>
  <course>11.38</course>
  <speed>0.022360679774997897</speed>
  <fix>3d</fix>
</trkpt>
<trkpt lat="40.0728423" lon="-105.2305755">
  <ele>1586.12</ele>
  <time>2026-08-28T19:13:05Z</time>
  <course>215.61</course>
  <speed>0.0</speed>
  <fix>3d</fix>
</trkpt>
<trkpt lat="40.0728422" lon="-105.2305753">
  <ele>1586.19</ele>
  <time>2026-08-28T19:13:05Z</time>
  <course>11.37</course>
  <speed>0.022360679774997897</speed>
  <fix>3d</fix>
</trkpt>
<trkpt lat="40.0728423" lon="-105.2305755">
  <ele>1586.07</ele>
  <time>2026-08-28T19:13:05Z</time>
  <course>214.34</course>
  <speed>0.0</speed>
  <fix>3d</fix>
</trkpt>
<trkpt lat="40.0728422" lon="-105.2305753">
  <ele>1586.2</ele>
  <time>2026-08-28T19:13:05Z</time>
  <course>11.37</course>
  <speed>0.022360679774997897</speed>
  <fix>3d</fix>
</trkpt>
<trkpt lat="40.0728423" lon="-105.2305755">
  <ele>1586.09</ele>
  <time>2026-08-28T19:13:05Z</time>
  <course>34.34</course>
  <speed>0.0</speed>
  <fix>3d</fix>
</trkpt>
<trkpt lat="40.0728422" lon="-105.2305753">
  <ele>1586.19</ele>
  <time>2026-08-28T19:13:05Z</time>
  <course>11.36</course>
  <speed>0.022360679774997897</speed>
  <fix>3d</fix>
</trkpt>
<trkpt lat="40.0728423" lon="-105.2305755">
  <ele>1586.09</ele>
  <time>2026-08-28T19:13:05Z</time>
  <course>214.61</course>
  <speed>0.0</speed>
  <fix>3d</fix>
</trkpt>
<trkpt lat="40.0728422" lon="-105.2305753">
  <ele>1586.19</ele>
  <time>2026-08-28T19:13:05Z</time>
  <course>11.36</course>
  <speed>0.022360679774997897</speed>
  <fix>3d</fix>
</trkpt>
<trkpt lat="40.0728423" lon="-105.2305755">
  <ele>1586.09</ele>
  <time>2026-08-28T19:13:05Z</time>
  <course>214.32</course>
  <speed>0.0</speed>
  <fix>3d</fix>
</trkpt>
<trkpt lat="40.0728422" lon="-105.2305753">
  <ele>1586.2</ele>
  <time>2026-08-28T19:13:05Z</time>
  <course>11.35</course>
  <speed>0.022360679774997897</speed>
  <fix>3d</fix>
</trkpt>
<trkpt lat="40.0728423" lon="-105.2305755">
  <ele>1586.09</ele>
  <time>2026-08-28T19:13:05Z</time>
  <course>36.23</course>
  <speed>0.0</speed>
  <fix>3d</fix>
</trkpt>
<trkpt lat="40.0728422" lon="-105.2305753">
  <ele>1586.2</ele>
  <time>2026-08-28T19:13:05Z</time>
  <course>11.35</course>
  <speed>0.01414213562373095</speed>
  <fix>3d</fix>
</trkpt>
<trkpt lat="40.0728423" lon="-105.2305755">
  <ele>1586.09</ele>
  <time>2026-08-28T19:13:05Z</time>
  <course>36.0</course>
  <speed>0.0</speed>
  <fix>3d</fix>
</trkpt>
<trkpt lat="40.0728422" lon="-105.2305753">
  <ele>1586.2</ele>
  <time>2026-08-28T19:13:05Z</time>
  <course>11.34</course>
  <speed>0.01414213562373095</speed>
  <fix>3d</fix>
</trkpt>
<trkpt lat="40.0728423" lon="-105.2305755">
  <ele>1586.09</ele>
  <time>2026-08-28T19:13:05Z</time>
  <course>215.56</course>
  <speed>0.0</speed>
  <fix>3d</fix>
</trkpt>
<trkpt lat="40.0728422" lon="-105.2305753">
  <ele>1586.2</ele>
  <time>2026-08-28T19:13:05Z</time>
  <course>11.34</course>
  <speed>0.01414213562373095</speed>
  <fix>3d</fix>
</trkpt>
<trkpt lat="40.0728423" lon="-105.2305755">
  <ele>1586.09</ele>
  <time>2026-08-28T19:13:05Z</time>
  <course>232.72</course>
  <speed>0.0</speed>
  <fix>3d</fix>
</trkpt>
<trkpt lat="40.0728422" lon="-105.2305753">
  <ele>1586.2</ele>
  <time>2026-08-28T19:13:05Z</time>
  <course>11.33</course>
  <speed>0.01414213562373095</speed>
  <fix>3d</fix>
</trkpt>
<trkpt lat="40.0728423" lon="-105.2305755">
  <ele>1586.09</ele>
  <time>2026-08-28T19:13:05Z</time>
  <course>357.84</course>
  <speed>0.0</speed>
  <fix>3d</fix>
</trkpt>
<trkpt lat="40.0728422" lon="-105.2305753">
  <ele>1586.2</ele>
  <time>2026-08-28T19:13:05Z</time>
  <course>11.33</course>
  <speed>0.01414213562373095</speed>
  <fix>3d</fix>
</trkpt>
<trkpt lat="40.0728423" lon="-105.2305755">
  <ele>1586.09</ele>
  <time>2026-08-28T19:13:05Z</time>
  <course>20.43</course>
  <speed>0.0</speed>
  <fix>3d</fix>
</trkpt>
<trkpt lat="40.0728422" lon="-105.2305753">
  <ele>1586.2</ele>
  <time>2026-08-28T19:13:05Z</time>
  <course>11.32</course>
  <speed>0.01414213562373095</speed>
  <fix>3d</fix>
</trkpt>
<trkpt lat="40.0728423" lon="-105.2305755">
  <ele>1586.09</ele>
  <time>2026-08-28T19:13:05Z</time>
  <course>179.79</course>
  <speed>0.0</speed>
  <fix>3d</fix>
</trkpt>
<trkpt lat="40.0728422" lon="-105.2305753">
  <ele>1586.2</ele>
  <time>2026-08-28T19:13:05Z</time>
  <course>11.32</course>
  <speed>0.01414213562373095</speed>
  <fix>3d</fix>
</trkpt>
<trkpt lat="40.0728423" lon="-105.2305755">
  <ele>1586.09</ele>
  <time>2026-08-28T19:13:05Z</time>
  <course>305.07</course>
  <speed>0.0</speed>
  <fix>3d</fix>
</trkpt>
<trkpt lat="40.0728422" lon="-105.2305753">
  <ele>1586.2</ele>
  <time>2026-08-28T19:13:05Z</time>
  <course>11.32</course>
  <speed>0.01414213562373095</speed>
  <fix>3d</fix>
</trkpt>
<trkpt lat="40.0728423" lon="-105.2305755">
  <ele>1586.09</ele>
  <time>2026-08-28T19:13:05Z</time>
  <course>1.62</course>
  <speed>0.0</speed>
  <fix>3d</fix>
</trkpt>
<trkpt lat="40.0728422" lon="-105.2305753">
  <ele>1586.2</ele>
  <time>2026-08-28T19:13:05Z</time>
  <course>11.31</course>
  <speed>0.01414213562373095</speed>
  <fix>3d</fix>
</trkpt>
<trkpt lat="40.0728423" lon="-105.2305755">
  <ele>1586.09</ele>
  <time>2026-08-28T19:13:05Z</time>
  <course>167.43</course>
  <speed>0.0</speed>
  <fix>3d</fix>
</trkpt>
<trkpt lat="40.0728422" lon="-105.2305753">
  <ele>1586.2</ele>
  <time>2026-08-28T19:13:05Z</time>
  <course>11.31</course>
  <speed>0.01414213562373095</speed>
  <fix>3d</fix>
</trkpt>
<trkpt lat="40.0728423" lon="-105.2305755">
  <ele>1586.09</ele>
  <time>2026-08-28T19:13:05Z</time>
  <course>183.83</course>
  <speed>0.0</speed>
  <fix>3d</fix>
</trkpt>
<trkpt lat="40.0728422" lon="-105.2305753">
  <ele>1586.2</ele>
  <time>2026-08-28T19:13:05Z</time>
  <course>11.3</course>
  <speed>0.01414213562373095</speed>
  <fix>3d</fix>
</trkpt>
<trkpt lat="40.0728423" lon="-105.2305755">
  <ele>1586.09</ele>
  <time>2026-08-28T19:13:05Z</time>
  <course>354.1</course>
  <speed>0.0</speed>
  <fix>3d</fix>
</trkpt>
<trkpt lat="40.0728422" lon="-105.2305753">
  <ele>1586.2</ele>
  <time>2026-08-28T19:13:05Z</time>
  <course>11.3</course>
  <speed>0.01414213562373095</speed>
  <fix>3d</fix>
</trkpt>
<trkpt lat="40.0728423" lon="-105.2305755">
  <ele>1586.09</ele>
  <time>2026-08-28T19:13:05Z</time>
  <course>7.14</course>
  <speed>0.0</speed>
  <fix>3d</fix>
</trkpt>
<trkpt lat="40.0728422" lon="-105.2305753">
  <ele>1586.2</ele>
  <time>2026-08-28T19:13:05Z</time>
  <course>11.29</course>
  <speed>0.01414213562373095</speed>
  <fix>3d</fix>
</trkpt>
<trkpt lat="40.0728423" lon="-105.2305755">
  <ele>1586.09</ele>
  <time>2026-08-28T19:13:05Z</time>
  <course>177.16</course>
  <speed>0.0</speed>
  <fix>3d</fix>
</trkpt>
<trkpt lat="40.0728422" lon="-105.2305753">
  <ele>1586.2</ele>
  <time>2026-08-28T19:13:05Z</time>
  <course>11.29</course>
  <speed>0.01414213562373095</speed>
  <fix>3d</fix>
</trkpt>
<trkpt lat="40.0728423" lon="-105.2305755">
  <ele>1586.09</ele>
  <time>2026-08-28T19:13:05Z</time>
  <course>194.95</course>
  <speed>0.0</speed>
  <fix>3d</fix>
</trkpt>
<trkpt lat="40.0728422" lon="-105.2305753">
  <ele>1586.2</ele>
  <time>2026-08-28T19:13:05Z</time>
  <course>11.28</course>
  <speed>0.01414213562373095</speed>
  <fix>3d</fix>
</trkpt>
<trkpt lat="40.0728423" lon="-105.2305755">
  <ele>1586.09</ele>
  <time>2026-08-28T19:13:05Z</time>
  <course>359.24</course>
  <speed>0.0</speed>
  <fix>3d</fix>
</trkpt>
<trkpt lat="40.0728422" lon="-105.2305753">
  <ele>1586.21</ele>
  <time>2026-08-28T19:13:05Z</time>
  <course>11.28</course>
  <speed>0.01414213562373095</speed>
  <fix>3d</fix>
</trkpt>
<trkpt lat="40.0728423" lon="-105.2305755">
  <ele>1586.09</ele>
  <time>2026-08-28T19:13:05Z</time>
  <course>73.31</course>
  <speed>0.0</speed>
  <fix>3d</fix>
</trkpt>
<trkpt lat="40.0728422" lon="-105.2305753">
  <ele>1586.21</ele>
  <time>2026-08-28T19:13:05Z</time>
  <course>11.27</course>
  <speed>0.01414213562373095</speed>
  <fix>3d</fix>
</trkpt>
<trkpt lat="40.0728423" lon="-105.2305755">
  <ele>1586.09</ele>
  <time>2026-08-28T19:13:05Z</time>
  <course>181.07</course>
  <speed>0.0</speed>
  <fix>3d</fix>
</trkpt>
<trkpt lat="40.0728422" lon="-105.2305753">
  <ele>1586.21</ele>
  <time>2026-08-28T19:13:05Z</time>
  <course>11.27</course>
  <speed>0.01414213562373095</speed>
  <fix>3d</fix>
</trkpt>
<trkpt lat="40.0728423" lon="-105.2305755">
  <ele>1586.09</ele>
  <time>2026-08-28T19:13:05Z</time>
  <course>342.66</course>
  <speed>0.0</speed>
  <fix>3d</fix>
</trkpt>
<trkpt lat="40.0728422" lon="-105.2305753">
  <ele>1586.21</ele>
  <time>2026-08-28T19:13:05Z</time>
  <course>11.26</course>
  <speed>0.01414213562373095</speed>
  <fix>3d</fix>
</trkpt>
<trkpt lat="40.0728423" lon="-105.2305755">
  <ele>1586.09</ele>
  <time>2026-08-28T19:13:05Z</time>
  <course>3.11</course>
  <speed>0.0</speed>
  <fix>3d</fix>
</trkpt>
<trkpt lat="40.0728422" lon="-105.2305753">
  <ele>1586.21</ele>
  <time>2026-08-28T19:13:05Z</time>
  <course>11.26</course>
  <speed>0.01414213562373095</speed>
  <fix>3d</fix>
</trkpt>
<trkpt lat="40.0728423" lon="-105.2305755">
  <ele>1586.09</ele>
  <time>2026-08-28T19:13:05Z</time>
  <course>172.78</course>
  <speed>0.0</speed>
  <fix>3d</fix>
</trkpt>
<trkpt lat="40.0728422" lon="-105.2305753">
  <ele>1586.21</ele>
  <time>2026-08-28T19:13:05Z</time>
  <course>11.26</course>
  <speed>0.01414213562373095</speed>
  <fix>3d</fix>
</trkpt>
<trkpt lat="40.0728423" lon="-105.2305755">
  <ele>1586.09</ele>
  <time>2026-08-28T19:13:05Z</time>
  <course>186.23</course>
  <speed>0.0</speed>
  <fix>3d</fix>
</trkpt>
<trkpt lat="40.0728422" lon="-105.2305753">
  <ele>1586.21</ele>
  <time>2026-08-28T19:13:05Z</time>
  <course>11.25</course>
  <speed>0.01414213562373095</speed>
  <fix>3d</fix>
</trkpt>
<trkpt lat="40.0728423" lon="-105.2305755">
  <ele>1586.09</ele>
  <time>2026-08-28T19:13:05Z</time>
  <course>355.66</course>
  <speed>0.0</speed>
  <fix>3d</fix>
</trkpt>
<trkpt lat="40.0728422" lon="-105.2305753">
  <ele>1586.21</ele>
  <time>2026-08-28T19:13:05Z</time>
  <course>11.25</course>
  <speed>0.01414213562373095</speed>
  <fix>3d</fix>
</trkpt>
<trkpt lat="40.0728423" lon="-105.2305755">
  <ele>1586.09</ele>
  <time>2026-08-28T19:13:05Z</time>
  <course>18.62</course>
  <speed>0.0</speed>
  <fix>3d</fix>
</trkpt>
<trkpt lat="40.0728422" lon="-105.2305753">
  <ele>1586.21</ele>
  <time>2026-08-28T19:13:05Z</time>
  <course>11.24</course>
  <speed>0.01414213562373095</speed>
  <fix>3d</fix>
</trkpt>
<trkpt lat="40.0728423" lon="-105.2305755">
  <ele>1586.09</ele>
  <time>2026-08-28T19:13:05Z</time>
  <course>157.44</course>
  <speed>0.0</speed>
  <fix>3d</fix>
</trkpt>
<trkpt lat="40.0728422" lon="-105.2305753">
  <ele>1586.21</ele>
  <time>2026-08-28T19:13:05Z</time>
  <course>11.24</course>
  <speed>0.01414213562373095</speed>
  <fix>3d</fix>
</trkpt>
<trkpt lat="40.0728423" lon="-105.2305755">
  <ele>1586.09</ele>
  <time>2026-08-28T19:13:05Z</time>
  <course>93.82</course>
  <speed>0.0</speed>
  <fix>3d</fix>
</trkpt>
<trkpt lat="40.0728422" lon="-105.2305753">
  <ele>1586.21</ele>
  <time>2026-08-28T19:13:05Z</time>
  <course>11.23</course>
  <speed>0.01414213562373095</speed>
  <fix>3d</fix>
</trkpt>
<trkpt lat="40.0728423" lon="-105.2305755">
  <ele>1586.09</ele>
  <time>2026-08-28T19:13:05Z</time>
  <course>48.8</course>
  <speed>0.0</speed>
  <fix>3d</fix>
</trkpt>
<trkpt lat="40.0728422" lon="-105.2305753">
  <ele>1586.21</ele>
  <time>2026-08-28T19:13:05Z</time>
  <course>11.23</course>
  <speed>0.01414213562373095</speed>
  <fix>3d</fix>
</trkpt>
<trkpt lat="40.0728423" lon="-105.2305755">
  <ele>1586.09</ele>
  <time>2026-08-28T19:13:05Z</time>
  <course>44.91</course>
  <speed>0.0</speed>
  <fix>3d</fix>
</trkpt>
<trkpt lat="40.0728422" lon="-105.2305753">
  <ele>1586.21</ele>
  <time>2026-08-28T19:13:05Z</time>
  <course>11.23</course>
  <speed>0.01414213562373095</speed>
  <fix>3d</fix>
</trkpt>
<trkpt lat="40.0728423" lon="-105.2305755">
  <ele>1586.09</ele>
  <time>2026-08-28T19:13:05Z</time>
  <course>44.43</course>
  <speed>0.0</speed>
  <fix>3d</fix>
</trkpt>
<trkpt lat="40.0728422" lon="-105.2305753">
  <ele>1586.21</ele>
  <time>2026-08-28T19:13:05Z</time>
  <course>11.22</course>
  <speed>0.01414213562373095</speed>
  <fix>3d</fix>
</trkpt>
<trkpt lat="40.0728423" lon="-105.2305755">
  <ele>1586.09</ele>
  <time>2026-08-28T19:13:05Z</time>
  <course>44.36</course>
  <speed>0.0</speed>
  <fix>3d</fix>
</trkpt>
<trkpt lat="40.0728422" lon="-105.2305753">
  <ele>1586.21</ele>
  <time>2026-08-28T19:13:05Z</time>
  <course>11.22</course>
  <speed>0.01414213562373095</speed>
  <fix>3d</fix>
</trkpt>
<trkpt lat="40.0728423" lon="-105.2305755">
  <ele>1586.09</ele>
  <time>2026-08-28T19:13:05Z</time>
  <course>44.35</course>
  <speed>0.0</speed>
  <fix>3d</fix>
</trkpt>
<trkpt lat="40.0728422" lon="-105.2305753">
  <ele>1586.22</ele>
  <time>2026-08-28T19:13:05Z</time>
  <course>11.21</course>
  <speed>0.01414213562373095</speed>
  <fix>3d</fix>
</trkpt>
<trkpt lat="40.0728423" lon="-105.2305755">
  <ele>1586.09</ele>
  <time>2026-08-28T19:13:05Z</time>
  <course>44.35</course>
  <speed>0.0</speed>
  <fix>3d</fix>
</trkpt>
<trkpt lat="40.0728422" lon="-105.2305753">
  <ele>1586.22</ele>
  <time>2026-08-28T19:13:05Z</time>
  <course>11.21</course>
  <speed>0.01414213562373095</speed>
  <fix>3d</fix>
</trkpt>
<trkpt lat="40.0728423" lon="-105.2305755">
  <ele>1586.09</ele>
  <time>2026-08-28T19:13:05Z</time>
  <course>44.35</course>
  <speed>0.0</speed>
  <fix>3d</fix>
</trkpt>
<trkpt lat="40.0728422" lon="-105.2305753">
  <ele>1586.22</ele>
  <time>2026-08-28T19:13:05Z</time>
  <course>11.2</course>
  <speed>0.01414213562373095</speed>
  <fix>3d</fix>
</trkpt>
<trkpt lat="40.0728423" lon="-105.2305755">
  <ele>1586.09</ele>
  <time>2026-08-28T19:13:05Z</time>
  <course>44.35</course>
  <speed>0.0</speed>
  <fix>3d</fix>
</trkpt>
<trkpt lat="40.0728422" lon="-105.2305753">
  <ele>1586.22</ele>
  <time>2026-08-28T19:13:05Z</time>
  <course>11.2</course>
  <speed>0.01414213562373095</speed>
  <fix>3d</fix>
</trkpt>
<trkpt lat="40.0728423" lon="-105.2305755">
  <ele>1586.09</ele>
  <time>2026-08-28T19:13:05Z</time>
  <course>44.35</course>
  <speed>0.0</speed>
  <fix>3d</fix>
</trkpt>
<trkpt lat="40.0728422" lon="-105.2305753">
  <ele>1586.22</ele>
  <time>2026-08-28T19:13:05Z</time>
  <course>11.2</course>
  <speed>0.01414213562373095</speed>
  <fix>3d</fix>
</trkpt>
<trkpt lat="40.0728423" lon="-105.2305755">
  <ele>1586.09</ele>
  <time>2026-08-28T19:13:05Z</time>
  <course>44.35</course>
  <speed>0.0</speed>
  <fix>3d</fix>
</trkpt>
<trkpt lat="40.0728422" lon="-105.2305753">
  <ele>1586.22</ele>
  <time>2026-08-28T19:13:05Z</time>
  <course>11.19</course>
  <speed>0.01414213562373095</speed>
  <fix>3d</fix>
</trkpt>
<trkpt lat="40.0728423" lon="-105.2305755">
  <ele>1586.09</ele>
  <time>2026-08-28T19:13:05Z</time>
  <course>44.35</course>
  <speed>0.0</speed>
  <fix>3d</fix>
</trkpt>
<trkpt lat="40.0728422" lon="-105.2305753">
  <ele>1586.22</ele>
  <time>2026-08-28T19:13:05Z</time>
  <course>11.19</course>
  <speed>0.01414213562373095</speed>
  <fix>3d</fix>
</trkpt>
<trkpt lat="40.0728423" lon="-105.2305755">
  <ele>1586.09</ele>
  <time>2026-08-28T19:13:05Z</time>
  <course>44.35</course>
  <speed>0.0</speed>
  <fix>3d</fix>
</trkpt>
<trkpt lat="40.0728422" lon="-105.2305753">
  <ele>1586.22</ele>
  <time>2026-08-28T19:13:05Z</time>
  <course>11.18</course>
  <speed>0.01414213562373095</speed>
  <fix>3d</fix>
</trkpt>
<trkpt lat="40.0728423" lon="-105.2305755">
  <ele>1586.09</ele>
  <time>2026-08-28T19:13:05Z</time>
  <course>44.35</course>
  <speed>0.0</speed>
  <fix>3d</fix>
</trkpt>
<trkpt lat="40.0728422" lon="-105.2305753">
  <ele>1586.22</ele>
  <time>2026-08-28T19:13:05Z</time>
  <course>11.18</course>
  <speed>0.01414213562373095</speed>
  <fix>3d</fix>
</trkpt>
<trkpt lat="40.0728423" lon="-105.2305755">
  <ele>1586.09</ele>
  <time>2026-08-28T19:13:05Z</time>
  <course>44.35</course>
  <speed>0.0</speed>
  <fix>3d</fix>
</trkpt>
<trkpt lat="40.0728422" lon="-105.2305753">
  <ele>1586.22</ele>
  <time>2026-08-28T19:13:05Z</time>
  <course>11.18</course>
  <speed>0.01414213562373095</speed>
  <fix>3d</fix>
</trkpt>
<trkpt lat="40.0728423" lon="-105.2305755">
  <ele>1586.09</ele>
  <time>2026-08-28T19:13:05Z</time>
  <course>44.35</course>
  <speed>0.0</speed>
  <fix>3d</fix>
</trkpt>
<trkpt lat="40.0728422" lon="-105.2305753">
  <ele>1586.22</ele>
  <time>2026-08-28T19:13:05Z</time>
  <course>11.17</course>
  <speed>0.01414213562373095</speed>
  <fix>3d</fix>
</trkpt>
<trkpt lat="40.0728423" lon="-105.2305755">
  <ele>1586.09</ele>
  <time>2026-08-28T19:13:05Z</time>
  <course>44.35</course>
  <speed>0.0</speed>
  <fix>3d</fix>
</trkpt>
<trkpt lat="40.0728422" lon="-105.2305753">
  <ele>1586.22</ele>
  <time>2026-08-28T19:13:05Z</time>
  <course>11.17</course>
  <speed>0.01414213562373095</speed>
  <fix>3d</fix>
</trkpt>
<trkpt lat="40.0728423" lon="-105.2305755">
  <ele>1586.09</ele>
  <time>2026-08-28T19:13:05Z</time>
  <course>44.35</course>
  <speed>0.0</speed>
  <fix>3d</fix>
</trkpt>
<trkpt lat="40.0728422" lon="-105.2305753">
  <ele>1586.22</ele>
  <time>2026-08-28T19:13:05Z</time>
  <course>11.16</course>
  <speed>0.01414213562373095</speed>
  <fix>3d</fix>
</trkpt>
<trkpt lat="40.0728423" lon="-105.2305755">
  <ele>1586.09</ele>
  <time>2026-08-28T19:13:05Z</time>
  <course>44.35</course>
  <speed>0.0</speed>
  <fix>3d</fix>
</trkpt>
<trkpt lat="40.0728422" lon="-105.2305753">
  <ele>1586.22</ele>
  <time>2026-08-28T19:13:05Z</time>
  <course>11.16</course>
  <speed>0.01414213562373095</speed>
  <fix>3d</fix>
</trkpt>
<trkpt lat="40.0728423" lon="-105.2305755">
  <ele>1586.09</ele>
  <time>2026-08-28T19:13:05Z</time>
  <course>44.35</course>
  <speed>0.0</speed>
  <fix>3d</fix>
</trkpt>
<trkpt lat="40.0728422" lon="-105.2305753">
  <ele>1586.22</ele>
  <time>2026-08-28T19:13:05Z</time>
  <course>11.16</course>
  <speed>0.01414213562373095</speed>
  <fix>3d</fix>
</trkpt>
<trkpt lat="40.0728423" lon="-105.2305755">
  <ele>1586.09</ele>
  <time>2026-08-28T19:13:05Z</time>
  <course>44.35</course>
  <speed>0.0</speed>
  <fix>3d</fix>
</trkpt>
<trkpt lat="40.0728422" lon="-105.2305753">
  <ele>1586.22</ele>
  <time>2026-08-28T19:13:05Z</time>
  <course>11.15</course>
  <speed>0.01414213562373095</speed>
  <fix>3d</fix>
</trkpt>
<trkpt lat="40.0728423" lon="-105.2305755">
  <ele>1586.09</ele>
  <time>2026-08-28T19:13:05Z</time>
  <course>44.35</course>
  <speed>0.0</speed>
  <fix>3d</fix>
</trkpt>
<trkpt lat="40.0728422" lon="-105.2305753">
  <ele>1586.21</ele>
  <time>2026-08-28T19:13:05Z</time>
  <course>11.15</course>
  <speed>0.01414213562373095</speed>
  <fix>3d</fix>
</trkpt>
<trkpt lat="40.0728423" lon="-105.2305755">
  <ele>1586.09</ele>
  <time>2026-08-28T19:13:05Z</time>
  <course>44.35</course>
  <speed>0.0</speed>
  <fix>3d</fix>
</trkpt>
<trkpt lat="40.0728422" lon="-105.2305753">
  <ele>1586.21</ele>
  <time>2026-08-28T19:13:05Z</time>
  <course>11.14</course>
  <speed>0.01414213562373095</speed>
  <fix>3d</fix>
</trkpt>
<trkpt lat="40.0728423" lon="-105.2305755">
  <ele>1586.09</ele>
  <time>2026-08-28T19:13:05Z</time>
  <course>44.35</course>
  <speed>0.0</speed>
  <fix>3d</fix>
</trkpt>
<trkpt lat="40.0728422" lon="-105.2305753">
  <ele>1586.21</ele>
  <time>2026-08-28T19:13:05Z</time>
  <course>11.14</course>
  <speed>0.01414213562373095</speed>
  <fix>3d</fix>
</trkpt>
<trkpt lat="40.0728423" lon="-105.2305755">
  <ele>1586.09</ele>
  <time>2026-08-28T19:13:05Z</time>
  <course>44.35</course>
  <speed>0.0</speed>
  <fix>3d</fix>
</trkpt>
<trkpt lat="40.0728422" lon="-105.2305753">
  <ele>1586.2</ele>
  <time>2026-08-28T19:13:05Z</time>
  <course>11.14</course>
  <speed>0.01414213562373095</speed>
  <fix>3d</fix>
</trkpt>
<trkpt lat="40.0728423" lon="-105.2305755">
  <ele>1586.09</ele>
  <time>2026-08-28T19:13:05Z</time>
  <course>44.35</course>
  <speed>0.0</speed>
  <fix>3d</fix>
</trkpt>
<trkpt lat="40.0728422" lon="-105.2305753">
  <ele>1586.2</ele>
  <time>2026-08-28T19:13:05Z</time>
  <course>11.13</course>
  <speed>0.01414213562373095</speed>
  <fix>3d</fix>
</trkpt>
<trkpt lat="40.0728423" lon="-105.2305755">
  <ele>1586.09</ele>
  <time>2026-08-28T19:13:05Z</time>
  <course>44.35</course>
  <speed>0.0</speed>
  <fix>3d</fix>
</trkpt>
<trkpt lat="40.0728422" lon="-105.2305753">
  <ele>1586.2</ele>
  <time>2026-08-28T19:13:05Z</time>
  <course>11.13</course>
  <speed>0.01414213562373095</speed>
  <fix>3d</fix>
</trkpt>
<trkpt lat="40.0728423" lon="-105.2305755">
  <ele>1586.09</ele>
  <time>2026-08-28T19:13:05Z</time>
  <course>44.35</course>
  <speed>0.0</speed>
  <fix>3d</fix>
</trkpt>
<trkpt lat="40.0728422" lon="-105.2305753">
  <ele>1586.19</ele>
  <time>2026-08-28T19:13:05Z</time>
  <course>11.15</course>
  <speed>0.01414213562373095</speed>
  <fix>3d</fix>
</trkpt>
<trkpt lat="40.0728423" lon="-105.2305755">
  <ele>1586.09</ele>
  <time>2026-08-28T19:13:05Z</time>
  <course>44.35</course>
  <speed>0.0</speed>
  <fix>3d</fix>
</trkpt>
<trkpt lat="40.0728422" lon="-105.2305753">
  <ele>1586.19</ele>
  <time>2026-08-28T19:13:05Z</time>
  <course>11.18</course>
  <speed>0.01414213562373095</speed>
  <fix>3d</fix>
</trkpt>
<trkpt lat="40.0728423" lon="-105.2305755">
  <ele>1586.09</ele>
  <time>2026-08-28T19:13:05Z</time>
  <course>44.35</course>
  <speed>0.0</speed>
  <fix>3d</fix>
</trkpt>
<trkpt lat="40.0728422" lon="-105.2305753">
  <ele>1586.18</ele>
  <time>2026-08-28T19:13:05Z</time>
  <course>11.22</course>
  <speed>0.01414213562373095</speed>
  <fix>3d</fix>
</trkpt>
<trkpt lat="40.0728423" lon="-105.2305755">
  <ele>1586.09</ele>
  <time>2026-08-28T19:13:05Z</time>
  <course>44.35</course>
  <speed>0.0</speed>
  <fix>3d</fix>
</trkpt>
<trkpt lat="40.0728422" lon="-105.2305753">
  <ele>1586.18</ele>
  <time>2026-08-28T19:13:05Z</time>
  <course>11.25</course>
  <speed>0.01414213562373095</speed>
  <fix>3d</fix>
</trkpt>
<trkpt lat="40.0728423" lon="-105.2305755">
  <ele>1586.09</ele>
  <time>2026-08-28T19:13:05Z</time>
  <course>44.35</course>
  <speed>0.0</speed>
  <fix>3d</fix>
</trkpt>
<trkpt lat="40.0728422" lon="-105.2305753">
  <ele>1586.17</ele>
  <time>2026-08-28T19:13:05Z</time>
  <course>11.29</course>
  <speed>0.01414213562373095</speed>
  <fix>3d</fix>
</trkpt>
<trkpt lat="40.0728423" lon="-105.2305755">
  <ele>1586.09</ele>
  <time>2026-08-28T19:13:05Z</time>
  <course>44.35</course>
  <speed>0.0</speed>
  <fix>3d</fix>
</trkpt>
<trkpt lat="40.0728422" lon="-105.2305753">
  <ele>1586.17</ele>
  <time>2026-08-28T19:13:05Z</time>
  <course>11.33</course>
  <speed>0.01414213562373095</speed>
  <fix>3d</fix>
</trkpt>
<trkpt lat="40.0728423" lon="-105.2305755">
  <ele>1586.09</ele>
  <time>2026-08-28T19:13:05Z</time>
  <course>44.35</course>
  <speed>0.0</speed>
  <fix>3d</fix>
</trkpt>
<trkpt lat="40.0728422" lon="-105.2305753">
  <ele>1586.17</ele>
  <time>2026-08-28T19:13:05Z</time>
  <course>11.36</course>
  <speed>0.01414213562373095</speed>
  <fix>3d</fix>
</trkpt>
<trkpt lat="40.0728423" lon="-105.2305755">
  <ele>1586.09</ele>
  <time>2026-08-28T19:13:05Z</time>
  <course>44.35</course>
  <speed>0.0</speed>
  <fix>3d</fix>
</trkpt>
<trkpt lat="40.0728422" lon="-105.2305753">
  <ele>1586.17</ele>
  <time>2026-08-28T19:13:05Z</time>
  <course>11.4</course>
  <speed>0.01414213562373095</speed>
  <fix>3d</fix>
</trkpt>
<trkpt lat="40.0728423" lon="-105.2305755">
  <ele>1586.09</ele>
  <time>2026-08-28T19:13:05Z</time>
  <course>44.35</course>
  <speed>0.0</speed>
  <fix>3d</fix>
</trkpt>
<trkpt lat="40.0728422" lon="-105.2305753">
  <ele>1586.17</ele>
  <time>2026-08-28T19:13:05Z</time>
  <course>11.43</course>
  <speed>0.01414213562373095</speed>
  <fix>3d</fix>
</trkpt>
<trkpt lat="40.0728423" lon="-105.2305755">
  <ele>1586.09</ele>
  <time>2026-08-28T19:13:05Z</time>
  <course>44.35</course>
  <speed>0.0</speed>
  <fix>3d</fix>
</trkpt>
<trkpt lat="40.0728422" lon="-105.2305753">
  <ele>1586.17</ele>
  <time>2026-08-28T19:13:05Z</time>
  <course>11.47</course>
  <speed>0.01414213562373095</speed>
  <fix>3d</fix>
</trkpt>
<trkpt lat="40.0728423" lon="-105.2305755">
  <ele>1586.09</ele>
  <time>2026-08-28T19:13:05Z</time>
  <course>44.35</course>
  <speed>0.0</speed>
  <fix>3d</fix>
</trkpt>
<trkpt lat="40.0728422" lon="-105.2305753">
  <ele>1586.17</ele>
  <time>2026-08-28T19:13:05Z</time>
  <course>11.51</course>
  <speed>0.01414213562373095</speed>
  <fix>3d</fix>
</trkpt>
<trkpt lat="40.0728423" lon="-105.2305755">
  <ele>1586.09</ele>
  <time>2026-08-28T19:13:05Z</time>
  <course>44.35</course>
  <speed>0.0</speed>
  <fix>3d</fix>
</trkpt>
<trkpt lat="40.0728422" lon="-105.2305753">
  <ele>1586.16</ele>
  <time>2026-08-28T19:13:05Z</time>
  <course>11.54</course>
  <speed>0.01414213562373095</speed>
  <fix>3d</fix>
</trkpt>
<trkpt lat="40.0728423" lon="-105.2305755">
  <ele>1586.09</ele>
  <time>2026-08-28T19:13:05Z</time>
  <course>44.35</course>
  <speed>0.0</speed>
  <fix>3d</fix>
</trkpt>
<trkpt lat="39.6562421" lon="-104.1365912">
  <ele>1569.6</ele>
  <time>2026-08-28T19:13:06Z</time>
  <course>23.57</course>
  <speed>0.0</speed>
  <fix>3d</fix>
</trkpt>
<trkpt lat="40.072842" lon="-105.230575">
  <ele>1586.09</ele>
  <time>2026-08-28T19:13:06Z</time>
  <course>2.03</course>
  <speed>0.0</speed>
  <fix>3d</fix>
</trkpt>
<trkpt lat="40.072842" lon="-105.230575">
  <ele>1586.09</ele>
  <time>2026-08-28T19:13:06Z</time>
  <course>336.22</course>
  <speed>0.0</speed>
  <fix>3d</fix>
</trkpt>
<trkpt lat="40.072842" lon="-105.230575">
  <ele>1586.09</ele>
  <time>2026-08-28T19:13:06Z</time>
  <course>2.51</course>
  <speed>0.0</speed>
  <fix>3d</fix>
</trkpt>
<trkpt lat="40.072842" lon="-105.230575">
  <ele>1586.09</ele>
  <time>2026-08-28T19:13:06Z</time>
  <course>237.6</course>
  <speed>0.0</speed>
  <fix>3d</fix>
</trkpt>
<trkpt lat="40.072842" lon="-105.230575">
  <ele>1586.09</ele>
  <time>2026-08-28T19:13:06Z</time>
  <course>3.26</course>
  <speed>0.0</speed>
  <fix>3d</fix>
</trkpt>
<trkpt lat="40.072842" lon="-105.230575">
  <ele>1586.09</ele>
  <time>2026-08-28T19:13:06Z</time>
  <course>176.34</course>
  <speed>0.0</speed>
  <fix>3d</fix>
</trkpt>
<trkpt lat="40.072842" lon="-105.230575">
  <ele>1586.09</ele>
  <time>2026-08-28T19:13:06Z</time>
  <course>3.93</course>
  <speed>0.0</speed>
  <fix>3d</fix>
</trkpt>
<trkpt lat="40.072842" lon="-105.230575">
  <ele>1586.09</ele>
  <time>2026-08-28T19:13:06Z</time>
  <course>30.72</course>
  <speed>0.0</speed>
  <fix>3d</fix>
</trkpt>
<trkpt lat="40.072842" lon="-105.230575">
  <ele>1586.09</ele>
  <time>2026-08-28T19:13:06Z</time>
  <course>4.55</course>
  <speed>0.0</speed>
  <fix>3d</fix>
</trkpt>
<trkpt lat="40.072842" lon="-105.230575">
  <ele>1586.09</ele>
  <time>2026-08-28T19:13:06Z</time>
  <course>339.69</course>
  <speed>0.0</speed>
  <fix>3d</fix>
</trkpt>
<trkpt lat="40.072842" lon="-105.230575">
  <ele>1586.09</ele>
  <time>2026-08-28T19:13:06Z</time>
  <course>5.14</course>
  <speed>0.0</speed>
  <fix>3d</fix>
</trkpt>
<trkpt lat="40.072842" lon="-105.230575">
  <ele>1586.09</ele>
  <time>2026-08-28T19:13:06Z</time>
  <course>143.03</course>
  <speed>0.0</speed>
  <fix>3d</fix>
</trkpt>
<trkpt lat="40.072842" lon="-105.230575">
  <ele>1586.09</ele>
  <time>2026-08-28T19:13:06Z</time>
  <course>5.69</course>
  <speed>0.0</speed>
  <fix>3d</fix>
</trkpt>
<trkpt lat="40.072842" lon="-105.230575">
  <ele>1586.09</ele>
  <time>2026-08-28T19:13:06Z</time>
  <course>75.14</course>
  <speed>0.0</speed>
  <fix>3d</fix>
</trkpt>
<trkpt lat="40.072842" lon="-105.230575">
  <ele>1586.09</ele>
  <time>2026-08-28T19:13:06Z</time>
  <course>6.21</course>
  <speed>0.0</speed>
  <fix>3d</fix>
</trkpt>
<trkpt lat="40.072842" lon="-105.230575">
  <ele>1586.09</ele>
  <time>2026-08-28T19:13:06Z</time>
  <course>178.97</course>
  <speed>0.0</speed>
  <fix>3d</fix>
</trkpt>
<trkpt lat="40.072842" lon="-105.230575">
  <ele>1586.09</ele>
  <time>2026-08-28T19:13:06Z</time>
  <course>6.7</course>
  <speed>0.0</speed>
  <fix>3d</fix>
</trkpt>
<trkpt lat="40.072842" lon="-105.230575">
  <ele>1586.09</ele>
  <time>2026-08-28T19:13:06Z</time>
  <course>208.11</course>
  <speed>0.0</speed>
  <fix>3d</fix>
</trkpt>
<trkpt lat="40.072842" lon="-105.230575">
  <ele>1586.09</ele>
  <time>2026-08-28T19:13:06Z</time>
  <course>7.16</course>
  <speed>0.0</speed>
  <fix>3d</fix>
</trkpt>
<trkpt lat="40.072842" lon="-105.230575">
  <ele>1586.09</ele>
  <time>2026-08-28T19:13:06Z</time>
  <course>58.6</course>
  <speed>0.0</speed>
  <fix>3d</fix>
</trkpt>
<trkpt lat="40.072842" lon="-105.230575">
  <ele>1586.09</ele>
  <time>2026-08-28T19:13:06Z</time>
  <course>7.58</course>
  <speed>0.0</speed>
  <fix>3d</fix>
</trkpt>
<trkpt lat="40.072842" lon="-105.230575">
  <ele>1586.09</ele>
  <time>2026-08-28T19:13:06Z</time>
  <course>130.87</course>
  <speed>0.0</speed>
  <fix>3d</fix>
</trkpt>
<trkpt lat="40.072842" lon="-105.230575">
  <ele>1586.09</ele>
  <time>2026-08-28T19:13:06Z</time>
  <course>7.97</course>
  <speed>0.0</speed>
  <fix>3d</fix>
</trkpt>
<trkpt lat="40.072842" lon="-105.230575">
  <ele>1586.09</ele>
  <time>2026-08-28T19:13:06Z</time>
  <course>255.53</course>
  <speed>0.0</speed>
  <fix>3d</fix>
</trkpt>
<trkpt lat="40.072842" lon="-105.230575">
  <ele>1586.09</ele>
  <time>2026-08-28T19:13:06Z</time>
  <course>8.33</course>
  <speed>0.0</speed>
  <fix>3d</fix>
</trkpt>
<trkpt lat="40.072842" lon="-105.230575">
  <ele>1586.09</ele>
  <time>2026-08-28T19:13:06Z</time>
  <course>308.86</course>
  <speed>0.0</speed>
  <fix>3d</fix>
</trkpt>
<trkpt lat="40.072842" lon="-105.230575">
  <ele>1586.09</ele>
  <time>2026-08-28T19:13:06Z</time>
  <course>8.66</course>
  <speed>0.0</speed>
  <fix>3d</fix>
</trkpt>
<trkpt lat="40.072842" lon="-105.230575">
  <ele>1586.09</ele>
  <time>2026-08-28T19:13:06Z</time>
  <course>110.42</course>
  <speed>0.0</speed>
  <fix>3d</fix>
</trkpt>
<trkpt lat="40.072842" lon="-105.230575">
  <ele>1586.09</ele>
  <time>2026-08-28T19:13:06Z</time>
  <course>8.97</course>
  <speed>0.0</speed>
  <fix>3d</fix>
</trkpt>
<trkpt lat="40.072842" lon="-105.230575">
  <ele>1586.09</ele>
  <time>2026-08-28T19:13:06Z</time>
  <course>19.05</course>
  <speed>0.0</speed>
  <fix>3d</fix>
</trkpt>
<trkpt lat="40.072842" lon="-105.230575">
  <ele>1586.09</ele>
  <time>2026-08-28T19:13:06Z</time>
  <course>9.25</course>
  <speed>0.0</speed>
  <fix>3d</fix>
</trkpt>
<trkpt lat="40.072842" lon="-105.230575">
  <ele>1586.09</ele>
  <time>2026-08-28T19:13:06Z</time>
  <course>30.92</course>
  <speed>0.0</speed>
  <fix>3d</fix>
</trkpt>
<trkpt lat="40.072842" lon="-105.230575">
  <ele>1586.09</ele>
  <time>2026-08-28T19:13:06Z</time>
  <course>9.52</course>
  <speed>0.0</speed>
  <fix>3d</fix>
</trkpt>
<trkpt lat="40.072842" lon="-105.230575">
  <ele>1586.09</ele>
  <time>2026-08-28T19:13:06Z</time>
  <course>194.28</course>
  <speed>0.0</speed>
  <fix>3d</fix>
</trkpt>
<trkpt lat="40.072842" lon="-105.230575">
  <ele>1586.09</ele>
  <time>2026-08-28T19:13:06Z</time>
  <course>9.76</course>
  <speed>0.0</speed>
  <fix>3d</fix>
</trkpt>
<trkpt lat="40.072842" lon="-105.230575">
  <ele>1586.09</ele>
  <time>2026-08-28T19:13:06Z</time>
  <course>256.68</course>
  <speed>0.0</speed>
  <fix>3d</fix>
</trkpt>
<trkpt lat="40.072842" lon="-105.230575">
  <ele>1586.09</ele>
  <time>2026-08-28T19:13:06Z</time>
  <course>9.98</course>
  <speed>0.0</speed>
  <fix>3d</fix>
</trkpt>
<trkpt lat="40.072842" lon="-105.230575">
  <ele>1586.09</ele>
  <time>2026-08-28T19:13:06Z</time>
  <course>253.54</course>
  <speed>0.0</speed>
  <fix>3d</fix>
</trkpt>
<trkpt lat="40.072842" lon="-105.230575">
  <ele>1586.09</ele>
  <time>2026-08-28T19:13:06Z</time>
  <course>10.18</course>
  <speed>0.0</speed>
  <fix>3d</fix>
</trkpt>
<trkpt lat="40.072842" lon="-105.230575">
  <ele>1586.09</ele>
  <time>2026-08-28T19:13:06Z</time>
  <course>283.72</course>
  <speed>0.0</speed>
  <fix>3d</fix>
</trkpt>
<trkpt lat="40.072842" lon="-105.230575">
  <ele>1586.09</ele>
  <time>2026-08-28T19:13:06Z</time>
  <course>10.37</course>
  <speed>0.0</speed>
  <fix>3d</fix>
</trkpt>
<trkpt lat="40.072842" lon="-105.230575">
  <ele>1586.09</ele>
  <time>2026-08-28T19:13:06Z</time>
  <course>269.94</course>
  <speed>0.0</speed>
  <fix>3d</fix>
</trkpt>
<trkpt lat="40.072842" lon="-105.230575">
  <ele>1586.09</ele>
  <time>2026-08-28T19:13:06Z</time>
  <course>10.54</course>
  <speed>0.0</speed>
  <fix>3d</fix>
</trkpt>
<trkpt lat="40.072842" lon="-105.230575">
  <ele>1586.09</ele>
  <time>2026-08-28T19:13:06Z</time>
  <course>264.82</course>
  <speed>0.0</speed>
  <fix>3d</fix>
</trkpt>
<trkpt lat="40.072842" lon="-105.230575">
  <ele>1586.09</ele>
  <time>2026-08-28T19:13:06Z</time>
  <course>10.69</course>
  <speed>0.0</speed>
  <fix>3d</fix>
</trkpt>
<trkpt lat="40.072842" lon="-105.230575">
  <ele>1586.09</ele>
  <time>2026-08-28T19:13:06Z</time>
  <course>265.74</course>
  <speed>0.0</speed>
  <fix>3d</fix>
</trkpt>
<trkpt lat="40.072842" lon="-105.230575">
  <ele>1586.09</ele>
  <time>2026-08-28T19:13:06Z</time>
  <course>10.83</course>
  <speed>0.0</speed>
  <fix>3d</fix>
</trkpt>
<trkpt lat="40.072842" lon="-105.230575">
  <ele>1586.09</ele>
  <time>2026-08-28T19:13:06Z</time>
  <course>266.25</course>
  <speed>0.0</speed>
  <fix>3d</fix>
</trkpt>
<trkpt lat="40.072842" lon="-105.230575">
  <ele>1586.09</ele>
  <time>2026-08-28T19:13:06Z</time>
  <course>10.96</course>
  <speed>0.0</speed>
  <fix>3d</fix>
</trkpt>
<trkpt lat="40.072842" lon="-105.230575">
  <ele>1586.09</ele>
  <time>2026-08-28T19:13:06Z</time>
  <course>266.05</course>
  <speed>0.0</speed>
  <fix>3d</fix>
</trkpt>
<trkpt lat="40.072842" lon="-105.230575">
  <ele>1586.09</ele>
  <time>2026-08-28T19:13:06Z</time>
  <course>11.08</course>
  <speed>0.0</speed>
  <fix>3d</fix>
</trkpt>
<trkpt lat="40.072842" lon="-105.230575">
  <ele>1586.09</ele>
  <time>2026-08-28T19:13:06Z</time>
  <course>266.0</course>
  <speed>0.0</speed>
  <fix>3d</fix>
</trkpt>
<trkpt lat="40.072842" lon="-105.230575">
  <ele>1586.09</ele>
  <time>2026-08-28T19:13:06Z</time>
  <course>11.19</course>
  <speed>0.0</speed>
  <fix>3d</fix>
</trkpt>
<trkpt lat="40.072842" lon="-105.230575">
  <ele>1586.09</ele>
  <time>2026-08-28T19:13:06Z</time>
  <course>266.04</course>
  <speed>0.0</speed>
  <fix>3d</fix>
</trkpt>
<trkpt lat="40.072842" lon="-105.230575">
  <ele>1586.09</ele>
  <time>2026-08-28T19:13:07Z</time>
  <course>11.29</course>
  <speed>0.0</speed>
  <fix>3d</fix>
</trkpt>
<trkpt lat="40.072842" lon="-105.230575">
  <ele>1586.09</ele>
  <time>2026-08-28T19:13:07Z</time>
  <course>266.04</course>
  <speed>0.0</speed>
  <fix>3d</fix>
</trkpt>
<trkpt lat="40.072842" lon="-105.230575">
  <ele>1586.09</ele>
  <time>2026-08-28T19:13:07Z</time>
  <course>11.38</course>
  <speed>0.0</speed>
  <fix>3d</fix>
</trkpt>
<trkpt lat="40.072842" lon="-105.230575">
  <ele>1586.09</ele>
  <time>2026-08-28T19:13:07Z</time>
  <course>266.03</course>
  <speed>0.0</speed>
  <fix>3d</fix>
</trkpt>
<trkpt lat="40.072842" lon="-105.230575">
  <ele>1586.09</ele>
  <time>2026-08-28T19:13:07Z</time>
  <course>11.46</course>
  <speed>0.0</speed>
  <fix>3d</fix>
</trkpt>
<trkpt lat="40.072842" lon="-105.230575">
  <ele>1586.09</ele>
  <time>2026-08-28T19:13:07Z</time>
  <course>266.03</course>
  <speed>0.0</speed>
  <fix>3d</fix>
</trkpt>
<trkpt lat="40.072842" lon="-105.230575">
  <ele>1586.09</ele>
  <time>2026-08-28T19:13:07Z</time>
  <course>11.53</course>
  <speed>0.0</speed>
  <fix>3d</fix>
</trkpt>
<trkpt lat="40.072842" lon="-105.230575">
  <ele>1586.09</ele>
  <time>2026-08-28T19:13:07Z</time>
  <course>266.03</course>
  <speed>0.0</speed>
  <fix>3d</fix>
</trkpt>
<trkpt lat="40.072842" lon="-105.230575">
  <ele>1586.09</ele>
  <time>2026-08-28T19:13:07Z</time>
  <course>11.6</course>
  <speed>0.0</speed>
  <fix>3d</fix>
</trkpt>
<trkpt lat="40.072842" lon="-105.230575">
  <ele>1586.09</ele>
  <time>2026-08-28T19:13:07Z</time>
  <course>266.03</course>
  <speed>0.0</speed>
  <fix>3d</fix>
</trkpt>
<trkpt lat="40.072842" lon="-105.230575">
  <ele>1586.09</ele>
  <time>2026-08-28T19:13:07Z</time>
  <course>11.66</course>
  <speed>0.0</speed>
  <fix>3d</fix>
</trkpt>
<trkpt lat="40.072842" lon="-105.230575">
  <ele>1586.09</ele>
  <time>2026-08-28T19:13:07Z</time>
  <course>266.03</course>
  <speed>0.0</speed>
  <fix>3d</fix>
</trkpt>
<trkpt lat="40.072842" lon="-105.230575">
  <ele>1586.09</ele>
  <time>2026-08-28T19:13:07Z</time>
  <course>11.72</course>
  <speed>0.0</speed>
  <fix>3d</fix>
</trkpt>
<trkpt lat="40.072842" lon="-105.230575">
  <ele>1586.09</ele>
  <time>2026-08-28T19:13:07Z</time>
  <course>266.03</course>
  <speed>0.0</speed>
  <fix>3d</fix>
</trkpt>
<trkpt lat="40.072842" lon="-105.230575">
  <ele>1586.09</ele>
  <time>2026-08-28T19:13:07Z</time>
  <course>11.77</course>
  <speed>0.0</speed>
  <fix>3d</fix>
</trkpt>
<trkpt lat="40.072842" lon="-105.230575">
  <ele>1586.09</ele>
  <time>2026-08-28T19:13:07Z</time>
  <course>266.03</course>
  <speed>0.0</speed>
  <fix>3d</fix>
</trkpt>
<trkpt lat="40.072842" lon="-105.230575">
  <ele>1586.09</ele>
  <time>2026-08-28T19:13:07Z</time>
  <course>11.82</course>
  <speed>0.0</speed>
  <fix>3d</fix>
</trkpt>
<trkpt lat="40.072842" lon="-105.230575">
  <ele>1586.09</ele>
  <time>2026-08-28T19:13:07Z</time>
  <course>266.03</course>
  <speed>0.0</speed>
  <fix>3d</fix>
</trkpt>
<trkpt lat="40.072842" lon="-105.230575">
  <ele>1586.09</ele>
  <time>2026-08-28T19:13:07Z</time>
  <course>11.86</course>
  <speed>0.0</speed>
  <fix>3d</fix>
</trkpt>
<trkpt lat="40.072842" lon="-105.230575">
  <ele>1586.09</ele>
  <time>2026-08-28T19:13:07Z</time>
  <course>266.03</course>
  <speed>0.0</speed>
  <fix>3d</fix>
</trkpt>
<trkpt lat="40.072842" lon="-105.230575">
  <ele>1586.09</ele>
  <time>2026-08-28T19:13:07Z</time>
  <course>11.89</course>
  <speed>0.0</speed>
  <fix>3d</fix>
</trkpt>
<trkpt lat="40.072842" lon="-105.230575">
  <ele>1586.09</ele>
  <time>2026-08-28T19:13:07Z</time>
  <course>266.03</course>
  <speed>0.0</speed>
  <fix>3d</fix>
</trkpt>
<trkpt lat="40.072842" lon="-105.230575">
  <ele>1586.09</ele>
  <time>2026-08-28T19:13:07Z</time>
  <course>11.93</course>
  <speed>0.0</speed>
  <fix>3d</fix>
</trkpt>
<trkpt lat="40.072842" lon="-105.230575">
  <ele>1586.09</ele>
  <time>2026-08-28T19:13:07Z</time>
  <course>266.03</course>
  <speed>0.0</speed>
  <fix>3d</fix>
</trkpt>
<trkpt lat="40.072842" lon="-105.230575">
  <ele>1586.09</ele>
  <time>2026-08-28T19:13:07Z</time>
  <course>11.96</course>
  <speed>0.0</speed>
  <fix>3d</fix>
</trkpt>
<trkpt lat="40.072842" lon="-105.230575">
  <ele>1586.09</ele>
  <time>2026-08-28T19:13:07Z</time>
  <course>266.03</course>
  <speed>0.0</speed>
  <fix>3d</fix>
</trkpt>
<trkpt lat="40.072842" lon="-105.230575">
  <ele>1586.09</ele>
  <time>2026-08-28T19:13:07Z</time>
  <course>11.98</course>
  <speed>0.0</speed>
  <fix>3d</fix>
</trkpt>
<trkpt lat="40.072842" lon="-105.230575">
  <ele>1586.09</ele>
  <time>2026-08-28T19:13:07Z</time>
  <course>266.03</course>
  <speed>0.0</speed>
  <fix>3d</fix>
</trkpt>
<trkpt lat="40.072842" lon="-105.230575">
  <ele>1586.09</ele>
  <time>2026-08-28T19:13:07Z</time>
  <course>12.0</course>
  <speed>0.0</speed>
  <fix>3d</fix>
</trkpt>
<trkpt lat="40.072842" lon="-105.230575">
  <ele>1586.09</ele>
  <time>2026-08-28T19:13:07Z</time>
  <course>266.03</course>
  <speed>0.0</speed>
  <fix>3d</fix>
</trkpt>
<trkpt lat="40.072842" lon="-105.230575">
  <ele>1586.09</ele>
  <time>2026-08-28T19:13:07Z</time>
  <course>12.02</course>
  <speed>0.0</speed>
  <fix>3d</fix>
</trkpt>
<trkpt lat="40.072842" lon="-105.230575">
  <ele>1586.09</ele>
  <time>2026-08-28T19:13:07Z</time>
  <course>266.03</course>
  <speed>0.0</speed>
  <fix>3d</fix>
</trkpt>
<trkpt lat="40.072842" lon="-105.230575">
  <ele>1586.09</ele>
  <time>2026-08-28T19:13:07Z</time>
  <course>12.04</course>
  <speed>0.0</speed>
  <fix>3d</fix>
</trkpt>
<trkpt lat="40.072842" lon="-105.230575">
  <ele>1586.09</ele>
  <time>2026-08-28T19:13:07Z</time>
  <course>266.03</course>
  <speed>0.0</speed>
  <fix>3d</fix>
</trkpt>
<trkpt lat="40.072842" lon="-105.230575">
  <ele>1586.09</ele>
  <time>2026-08-28T19:13:07Z</time>
  <course>12.06</course>
  <speed>0.0</speed>
  <fix>3d</fix>
</trkpt>
<trkpt lat="40.072842" lon="-105.230575">
  <ele>1586.09</ele>
  <time>2026-08-28T19:13:07Z</time>
  <course>266.03</course>
  <speed>0.0</speed>
  <fix>3d</fix>
</trkpt>
<trkpt lat="40.072842" lon="-105.230575">
  <ele>1586.09</ele>
  <time>2026-08-28T19:13:07Z</time>
  <course>12.07</course>
  <speed>0.0</speed>
  <fix>3d</fix>
</trkpt>
<trkpt lat="40.072842" lon="-105.230575">
  <ele>1586.09</ele>
  <time>2026-08-28T19:13:07Z</time>
  <course>266.03</course>
  <speed>0.0</speed>
  <fix>3d</fix>
</trkpt>
<trkpt lat="40.072842" lon="-105.230575">
  <ele>1586.09</ele>
  <time>2026-08-28T19:13:07Z</time>
  <course>12.08</course>
  <speed>0.0</speed>
  <fix>3d</fix>
</trkpt>
<trkpt lat="40.072842" lon="-105.230575">
  <ele>1586.09</ele>
  <time>2026-08-28T19:13:07Z</time>
  <course>266.03</course>
  <speed>0.0</speed>
  <fix>3d</fix>
</trkpt>
<trkpt lat="40.072842" lon="-105.230575">
  <ele>1586.09</ele>
  <time>2026-08-28T19:13:07Z</time>
  <course>12.09</course>
  <speed>0.0</speed>
  <fix>3d</fix>
</trkpt>
<trkpt lat="40.072842" lon="-105.230575">
  <ele>1586.09</ele>
  <time>2026-08-28T19:13:07Z</time>
  <course>266.03</course>
  <speed>0.0</speed>
  <fix>3d</fix>
</trkpt>
<trkpt lat="40.072842" lon="-105.230575">
  <ele>1586.09</ele>
  <time>2026-08-28T19:13:07Z</time>
  <course>12.1</course>
  <speed>0.0</speed>
  <fix>3d</fix>
</trkpt>
<trkpt lat="40.072842" lon="-105.230575">
  <ele>1586.09</ele>
  <time>2026-08-28T19:13:07Z</time>
  <course>266.03</course>
  <speed>0.0</speed>
  <fix>3d</fix>
</trkpt>
<trkpt lat="40.072842" lon="-105.230575">
  <ele>1586.09</ele>
  <time>2026-08-28T19:13:07Z</time>
  <course>12.11</course>
  <speed>0.0</speed>
  <fix>3d</fix>
</trkpt>
<trkpt lat="40.072842" lon="-105.230575">
  <ele>1586.09</ele>
  <time>2026-08-28T19:13:07Z</time>
  <course>266.03</course>
  <speed>0.0</speed>
  <fix>3d</fix>
</trkpt>
<trkpt lat="40.072842" lon="-105.230575">
  <ele>1586.09</ele>
  <time>2026-08-28T19:13:07Z</time>
  <course>12.11</course>
  <speed>0.0</speed>
  <fix>3d</fix>
</trkpt>
<trkpt lat="40.072842" lon="-105.230575">
  <ele>1586.09</ele>
  <time>2026-08-28T19:13:07Z</time>
  <course>266.03</course>
  <speed>0.0</speed>
  <fix>3d</fix>
</trkpt>
<trkpt lat="40.072842" lon="-105.230575">
  <ele>1586.09</ele>
  <time>2026-08-28T19:13:07Z</time>
  <course>12.12</course>
  <speed>0.0</speed>
  <fix>3d</fix>
</trkpt>
<trkpt lat="40.072842" lon="-105.230575">
  <ele>1586.09</ele>
  <time>2026-08-28T19:13:07Z</time>
  <course>266.03</course>
  <speed>0.0</speed>
  <fix>3d</fix>
</trkpt>
<trkpt lat="40.072842" lon="-105.230575">
  <ele>1586.09</ele>
  <time>2026-08-28T19:13:07Z</time>
  <course>12.12</course>
  <speed>0.0</speed>
  <fix>3d</fix>
</trkpt>
<trkpt lat="40.072842" lon="-105.230575">
  <ele>1586.09</ele>
  <time>2026-08-28T19:13:07Z</time>
  <course>266.03</course>
  <speed>0.0</speed>
  <fix>3d</fix>
</trkpt>
<trkpt lat="40.072842" lon="-105.230575">
  <ele>1586.09</ele>
  <time>2026-08-28T19:13:07Z</time>
  <course>12.12</course>
  <speed>0.0</speed>
  <fix>3d</fix>
</trkpt>
<trkpt lat="40.072842" lon="-105.230575">
  <ele>1586.09</ele>
  <time>2026-08-28T19:13:07Z</time>
  <course>266.03</course>
  <speed>0.0</speed>
  <fix>3d</fix>
</trkpt>
<trkpt lat="40.072842" lon="-105.230575">
  <ele>1586.09</ele>
  <time>2026-08-28T19:13:07Z</time>
  <course>12.12</course>
  <speed>0.0</speed>
  <fix>3d</fix>
</trkpt>
<trkpt lat="40.072842" lon="-105.230575">
  <ele>1586.09</ele>
  <time>2026-08-28T19:13:07Z</time>
  <course>266.03</course>
  <speed>0.0</speed>
  <fix>3d</fix>
</trkpt>
<trkpt lat="40.072842" lon="-105.230575">
  <ele>1586.09</ele>
  <time>2026-08-28T19:13:07Z</time>
  <course>12.12</course>
  <speed>0.0</speed>
  <fix>3d</fix>
</trkpt>
<trkpt lat="40.072842" lon="-105.230575">
  <ele>1586.09</ele>
  <time>2026-08-28T19:13:07Z</time>
  <course>266.03</course>
  <speed>0.0</speed>
  <fix>3d</fix>
</trkpt>
<trkpt lat="40.072842" lon="-105.230575">
  <ele>1586.09</ele>
  <time>2026-08-28T19:13:07Z</time>
  <course>12.12</course>
  <speed>0.01</speed>
  <fix>3d</fix>
</trkpt>
<trkpt lat="40.072842" lon="-105.230575">
  <ele>1586.09</ele>
  <time>2026-08-28T19:13:07Z</time>
  <course>266.03</course>
  <speed>0.0</speed>
  <fix>3d</fix>
</trkpt>
<trkpt lat="40.072842" lon="-105.230575">
  <ele>1586.09</ele>
  <time>2026-08-28T19:13:07Z</time>
  <course>12.12</course>
  <speed>0.01</speed>
  <fix>3d</fix>
</trkpt>
<trkpt lat="40.072842" lon="-105.230575">
  <ele>1586.09</ele>
  <time>2026-08-28T19:13:07Z</time>
  <course>266.03</course>
  <speed>0.0</speed>
  <fix>3d</fix>
</trkpt>
<trkpt lat="40.072842" lon="-105.230575">
  <ele>1586.09</ele>
  <time>2026-08-28T19:13:07Z</time>
  <course>12.12</course>
  <speed>0.01</speed>
  <fix>3d</fix>
</trkpt>
<trkpt lat="40.072842" lon="-105.230575">
  <ele>1586.09</ele>
  <time>2026-08-28T19:13:07Z</time>
  <course>266.03</course>
  <speed>0.0</speed>
  <fix>3d</fix>
</trkpt>
<trkpt lat="40.072842" lon="-105.230575">
  <ele>1586.09</ele>
  <time>2026-08-28T19:13:07Z</time>
  <course>12.12</course>
  <speed>0.01</speed>
  <fix>3d</fix>
</trkpt>
<trkpt lat="40.072842" lon="-105.230575">
  <ele>1586.09</ele>
  <time>2026-08-28T19:13:07Z</time>
  <course>266.03</course>
  <speed>0.0</speed>
  <fix>3d</fix>
</trkpt>
<trkpt lat="40.072842" lon="-105.230575">
  <ele>1586.09</ele>
  <time>2026-08-28T19:13:07Z</time>
  <course>12.11</course>
  <speed>0.01</speed>
  <fix>3d</fix>
</trkpt>
<trkpt lat="40.072842" lon="-105.230575">
  <ele>1586.09</ele>
  <time>2026-08-28T19:13:07Z</time>
  <course>266.03</course>
  <speed>0.0</speed>
  <fix>3d</fix>
</trkpt>
<trkpt lat="40.072842" lon="-105.230575">
  <ele>1586.09</ele>
  <time>2026-08-28T19:13:07Z</time>
  <course>12.11</course>
  <speed>0.01</speed>
  <fix>3d</fix>
</trkpt>
<trkpt lat="40.072842" lon="-105.230575">
  <ele>1586.09</ele>
  <time>2026-08-28T19:13:07Z</time>
  <course>266.03</course>
  <speed>0.0</speed>
  <fix>3d</fix>
</trkpt>
<trkpt lat="40.072842" lon="-105.230575">
  <ele>1586.09</ele>
  <time>2026-08-28T19:13:07Z</time>
  <course>12.11</course>
  <speed>0.01</speed>
  <fix>3d</fix>
</trkpt>
<trkpt lat="40.072842" lon="-105.230575">
  <ele>1586.09</ele>
  <time>2026-08-28T19:13:07Z</time>
  <course>266.03</course>
  <speed>0.0</speed>
  <fix>3d</fix>
</trkpt>
<trkpt lat="40.072842" lon="-105.230575">
  <ele>1586.09</ele>
  <time>2026-08-28T19:13:07Z</time>
  <course>12.1</course>
  <speed>0.01</speed>
  <fix>3d</fix>
</trkpt>
<trkpt lat="40.072842" lon="-105.230575">
  <ele>1586.09</ele>
  <time>2026-08-28T19:13:07Z</time>
  <course>266.03</course>
  <speed>0.0</speed>
  <fix>3d</fix>
</trkpt>
<trkpt lat="40.072842" lon="-105.230575">
  <ele>1586.09</ele>
  <time>2026-08-28T19:13:07Z</time>
  <course>12.1</course>
  <speed>0.01</speed>
  <fix>3d</fix>
</trkpt>
<trkpt lat="40.072842" lon="-105.230575">
  <ele>1586.09</ele>
  <time>2026-08-28T19:13:07Z</time>
  <course>266.03</course>
  <speed>0.0</speed>
  <fix>3d</fix>
</trkpt>
<trkpt lat="40.072842" lon="-105.230575">
  <ele>1586.09</ele>
  <time>2026-08-28T19:13:07Z</time>
  <course>12.09</course>
  <speed>0.01</speed>
  <fix>3d</fix>
</trkpt>
<trkpt lat="40.072842" lon="-105.230575">
  <ele>1586.09</ele>
  <time>2026-08-28T19:13:07Z</time>
  <course>266.03</course>
  <speed>0.0</speed>
  <fix>3d</fix>
</trkpt>
<trkpt lat="40.072842" lon="-105.230575">
  <ele>1586.09</ele>
  <time>2026-08-28T19:13:07Z</time>
  <course>12.09</course>
  <speed>0.01</speed>
  <fix>3d</fix>
</trkpt>
<trkpt lat="40.072842" lon="-105.230575">
  <ele>1586.09</ele>
  <time>2026-08-28T19:13:07Z</time>
  <course>266.03</course>
  <speed>0.0</speed>
  <fix>3d</fix>
</trkpt>
<trkpt lat="40.072842" lon="-105.230575">
  <ele>1586.09</ele>
  <time>2026-08-28T19:13:07Z</time>
  <course>12.08</course>
  <speed>0.01414213562373095</speed>
  <fix>3d</fix>
</trkpt>
<trkpt lat="40.072842" lon="-105.230575">
  <ele>1586.09</ele>
  <time>2026-08-28T19:13:07Z</time>
  <course>266.03</course>
  <speed>0.0</speed>
  <fix>3d</fix>
</trkpt>
<trkpt lat="40.072842" lon="-105.230575">
  <ele>1586.09</ele>
  <time>2026-08-28T19:13:07Z</time>
  <course>12.07</course>
  <speed>0.01414213562373095</speed>
  <fix>3d</fix>
</trkpt>
<trkpt lat="40.072842" lon="-105.230575">
  <ele>1586.09</ele>
  <time>2026-08-28T19:13:07Z</time>
  <course>266.03</course>
  <speed>0.0</speed>
  <fix>3d</fix>
</trkpt>
<trkpt lat="40.072842" lon="-105.230575">
  <ele>1586.09</ele>
  <time>2026-08-28T19:13:07Z</time>
  <course>12.07</course>
  <speed>0.01414213562373095</speed>
  <fix>3d</fix>
</trkpt>
<trkpt lat="40.072842" lon="-105.230575">
  <ele>1586.09</ele>
  <time>2026-08-28T19:13:07Z</time>
  <course>266.03</course>
  <speed>0.0</speed>
  <fix>3d</fix>
</trkpt>
<trkpt lat="40.072842" lon="-105.230575">
  <ele>1586.09</ele>
  <time>2026-08-28T19:13:07Z</time>
  <course>12.06</course>
  <speed>0.01414213562373095</speed>
  <fix>3d</fix>
</trkpt>
<trkpt lat="40.072842" lon="-105.230575">
  <ele>1586.09</ele>
  <time>2026-08-28T19:13:07Z</time>
  <course>266.03</course>
  <speed>0.0</speed>
  <fix>3d</fix>
</trkpt>
<trkpt lat="40.072842" lon="-105.230575">
  <ele>1586.09</ele>
  <time>2026-08-28T19:13:07Z</time>
  <course>12.05</course>
  <speed>0.01414213562373095</speed>
  <fix>3d</fix>
</trkpt>
<trkpt lat="40.072842" lon="-105.230575">
  <ele>1586.09</ele>
  <time>2026-08-28T19:13:07Z</time>
  <course>266.03</course>
  <speed>0.0</speed>
  <fix>3d</fix>
</trkpt>
<trkpt lat="40.072842" lon="-105.230575">
  <ele>1586.09</ele>
  <time>2026-08-28T19:13:07Z</time>
  <course>12.05</course>
  <speed>0.01414213562373095</speed>
  <fix>3d</fix>
</trkpt>
<trkpt lat="40.072842" lon="-105.230575">
  <ele>1586.09</ele>
  <time>2026-08-28T19:13:07Z</time>
  <course>266.03</course>
  <speed>0.0</speed>
  <fix>3d</fix>
</trkpt>
<trkpt lat="40.072842" lon="-105.230575">
  <ele>1586.09</ele>
  <time>2026-08-28T19:13:07Z</time>
  <course>12.04</course>
  <speed>0.01414213562373095</speed>
  <fix>3d</fix>
</trkpt>
<trkpt lat="40.072842" lon="-105.230575">
  <ele>1586.09</ele>
  <time>2026-08-28T19:13:07Z</time>
  <course>266.03</course>
  <speed>0.0</speed>
  <fix>3d</fix>
</trkpt>
<trkpt lat="40.072842" lon="-105.230575">
  <ele>1586.09</ele>
  <time>2026-08-28T19:13:07Z</time>
  <course>12.03</course>
  <speed>0.01414213562373095</speed>
  <fix>3d</fix>
</trkpt>
<trkpt lat="40.072842" lon="-105.230575">
  <ele>1586.09</ele>
  <time>2026-08-28T19:13:07Z</time>
  <course>266.03</course>
  <speed>0.0</speed>
  <fix>3d</fix>
</trkpt>
<trkpt lat="40.072842" lon="-105.230575">
  <ele>1586.09</ele>
  <time>2026-08-28T19:13:07Z</time>
  <course>12.03</course>
  <speed>0.01414213562373095</speed>
  <fix>3d</fix>
</trkpt>
<trkpt lat="40.072842" lon="-105.230575">
  <ele>1586.09</ele>
  <time>2026-08-28T19:13:07Z</time>
  <course>266.03</course>
  <speed>0.0</speed>
  <fix>3d</fix>
</trkpt>
<trkpt lat="40.072842" lon="-105.230575">
  <ele>1586.09</ele>
  <time>2026-08-28T19:13:07Z</time>
  <course>12.02</course>
  <speed>0.01414213562373095</speed>
  <fix>3d</fix>
</trkpt>
<trkpt lat="40.072842" lon="-105.230575">
  <ele>1586.09</ele>
  <time>2026-08-28T19:13:07Z</time>
  <course>266.03</course>
  <speed>0.0</speed>
  <fix>3d</fix>
</trkpt>
<trkpt lat="40.072842" lon="-105.230575">
  <ele>1586.09</ele>
  <time>2026-08-28T19:13:07Z</time>
  <course>12.01</course>
  <speed>0.01414213562373095</speed>
  <fix>3d</fix>
</trkpt>
<trkpt lat="40.072842" lon="-105.230575">
  <ele>1586.09</ele>
  <time>2026-08-28T19:13:07Z</time>
  <course>266.03</course>
  <speed>0.0</speed>
  <fix>3d</fix>
</trkpt>
<trkpt lat="40.072842" lon="-105.230575">
  <ele>1586.09</ele>
  <time>2026-08-28T19:13:07Z</time>
  <course>12.0</course>
  <speed>0.01414213562373095</speed>
  <fix>3d</fix>
</trkpt>
<trkpt lat="40.072842" lon="-105.230575">
  <ele>1586.09</ele>
  <time>2026-08-28T19:13:07Z</time>
  <course>266.03</course>
  <speed>0.0</speed>
  <fix>3d</fix>
</trkpt>
<trkpt lat="40.072842" lon="-105.230575">
  <ele>1586.09</ele>
  <time>2026-08-28T19:13:07Z</time>
  <course>11.99</course>
  <speed>0.01414213562373095</speed>
  <fix>3d</fix>
</trkpt>
<trkpt lat="40.072842" lon="-105.230575">
  <ele>1586.09</ele>
  <time>2026-08-28T19:13:07Z</time>
  <course>266.03</course>
  <speed>0.0</speed>
  <fix>3d</fix>
</trkpt>
<trkpt lat="40.072842" lon="-105.230575">
  <ele>1586.09</ele>
  <time>2026-08-28T19:13:07Z</time>
  <course>11.99</course>
  <speed>0.01414213562373095</speed>
  <fix>3d</fix>
</trkpt>
<trkpt lat="40.072842" lon="-105.230575">
  <ele>1586.09</ele>
  <time>2026-08-28T19:13:07Z</time>
  <course>266.03</course>
  <speed>0.0</speed>
  <fix>3d</fix>
</trkpt>
<trkpt lat="40.072842" lon="-105.230575">
  <ele>1586.09</ele>
  <time>2026-08-28T19:13:07Z</time>
  <course>11.98</course>
  <speed>0.01414213562373095</speed>
  <fix>3d</fix>
</trkpt>
<trkpt lat="40.072842" lon="-105.230575">
  <ele>1586.09</ele>
  <time>2026-08-28T19:13:07Z</time>
  <course>266.03</course>
  <speed>0.0</speed>
  <fix>3d</fix>
</trkpt>
<trkpt lat="40.072842" lon="-105.230575">
  <ele>1586.09</ele>
  <time>2026-08-28T19:13:07Z</time>
  <course>11.97</course>
  <speed>0.01414213562373095</speed>
  <fix>3d</fix>
</trkpt>
<trkpt lat="40.072842" lon="-105.230575">
  <ele>1586.09</ele>
  <time>2026-08-28T19:13:07Z</time>
  <course>266.03</course>
  <speed>0.0</speed>
  <fix>3d</fix>
</trkpt>
<trkpt lat="40.072842" lon="-105.230575">
  <ele>1586.09</ele>
  <time>2026-08-28T19:13:07Z</time>
  <course>11.96</course>
  <speed>0.022360679774997897</speed>
  <fix>3d</fix>
</trkpt>
<trkpt lat="40.072842" lon="-105.230575">
  <ele>1586.09</ele>
  <time>2026-08-28T19:13:07Z</time>
  <course>266.03</course>
  <speed>0.0</speed>
  <fix>3d</fix>
</trkpt>
<trkpt lat="40.072842" lon="-105.230575">
  <ele>1586.09</ele>
  <time>2026-08-28T19:13:07Z</time>
  <course>11.95</course>
  <speed>0.022360679774997897</speed>
  <fix>3d</fix>
</trkpt>
<trkpt lat="40.072842" lon="-105.230575">
  <ele>1586.09</ele>
  <time>2026-08-28T19:13:07Z</time>
  <course>266.03</course>
  <speed>0.0</speed>
  <fix>3d</fix>
</trkpt>
<trkpt lat="40.072842" lon="-105.230575">
  <ele>1586.09</ele>
  <time>2026-08-28T19:13:07Z</time>
  <course>11.95</course>
  <speed>0.022360679774997897</speed>
  <fix>3d</fix>
</trkpt>
<trkpt lat="40.072842" lon="-105.230575">
  <ele>1586.09</ele>
  <time>2026-08-28T19:13:07Z</time>
  <course>266.03</course>
  <speed>0.0</speed>
  <fix>3d</fix>
</trkpt>
<trkpt lat="40.072842" lon="-105.230575">
  <ele>1586.09</ele>
  <time>2026-08-28T19:13:07Z</time>
  <course>11.94</course>
  <speed>0.022360679774997897</speed>
  <fix>3d</fix>
</trkpt>
<trkpt lat="40.072842" lon="-105.230575">
  <ele>1586.09</ele>
  <time>2026-08-28T19:13:07Z</time>
  <course>266.03</course>
  <speed>0.0</speed>
  <fix>3d</fix>
</trkpt>
<trkpt lat="40.072842" lon="-105.230575">
  <ele>1586.09</ele>
  <time>2026-08-28T19:13:07Z</time>
  <course>11.93</course>
  <speed>0.022360679774997897</speed>
  <fix>3d</fix>
</trkpt>
<trkpt lat="40.072842" lon="-105.230575">
  <ele>1586.09</ele>
  <time>2026-08-28T19:13:07Z</time>
  <course>266.03</course>
  <speed>0.0</speed>
  <fix>3d</fix>
</trkpt>
<trkpt lat="40.072842" lon="-105.230575">
  <ele>1586.09</ele>
  <time>2026-08-28T19:13:07Z</time>
  <course>11.92</course>
  <speed>0.022360679774997897</speed>
  <fix>3d</fix>
</trkpt>
<trkpt lat="40.072842" lon="-105.230575">
  <ele>1586.09</ele>
  <time>2026-08-28T19:13:07Z</time>
  <course>266.03</course>
  <speed>0.0</speed>
  <fix>3d</fix>
</trkpt>
<trkpt lat="40.072842" lon="-105.230575">
  <ele>1586.09</ele>
  <time>2026-08-28T19:13:07Z</time>
  <course>11.91</course>
  <speed>0.022360679774997897</speed>
  <fix>3d</fix>
</trkpt>
<trkpt lat="40.072842" lon="-105.230575">
  <ele>1586.09</ele>
  <time>2026-08-28T19:13:07Z</time>
  <course>266.03</course>
  <speed>0.0</speed>
  <fix>3d</fix>
</trkpt>
<trkpt lat="40.072842" lon="-105.230575">
  <ele>1586.09</ele>
  <time>2026-08-28T19:13:07Z</time>
  <course>11.91</course>
  <speed>0.022360679774997897</speed>
  <fix>3d</fix>
</trkpt>
<trkpt lat="40.072842" lon="-105.230575">
  <ele>1586.09</ele>
  <time>2026-08-28T19:13:07Z</time>
  <course>266.03</course>
  <speed>0.0</speed>
  <fix>3d</fix>
</trkpt>
<trkpt lat="40.072842" lon="-105.230575">
  <ele>1586.09</ele>
  <time>2026-08-28T19:13:07Z</time>
  <course>11.9</course>
  <speed>0.022360679774997897</speed>
  <fix>3d</fix>
</trkpt>
<trkpt lat="40.072842" lon="-105.230575">
  <ele>1586.09</ele>
  <time>2026-08-28T19:13:07Z</time>
  <course>266.03</course>
  <speed>0.0</speed>
  <fix>3d</fix>
</trkpt>
<trkpt lat="40.072842" lon="-105.230575">
  <ele>1586.09</ele>
  <time>2026-08-28T19:13:07Z</time>
  <course>11.89</course>
  <speed>0.022360679774997897</speed>
  <fix>3d</fix>
</trkpt>
<trkpt lat="40.072842" lon="-105.230575">
  <ele>1586.09</ele>
  <time>2026-08-28T19:13:07Z</time>
  <course>266.03</course>
  <speed>0.0</speed>
  <fix>3d</fix>
</trkpt>
<trkpt lat="40.072842" lon="-105.230575">
  <ele>1586.09</ele>
  <time>2026-08-28T19:13:07Z</time>
  <course>11.88</course>
  <speed>0.022360679774997897</speed>
  <fix>3d</fix>
</trkpt>
<trkpt lat="40.072842" lon="-105.230575">
  <ele>1586.09</ele>
  <time>2026-08-28T19:13:07Z</time>
  <course>266.03</course>
  <speed>0.0</speed>
  <fix>3d</fix>
</trkpt>
<trkpt lat="40.072842" lon="-105.230575">
  <ele>1586.09</ele>
  <time>2026-08-28T19:13:07Z</time>
  <course>11.87</course>
  <speed>0.022360679774997897</speed>
  <fix>3d</fix>
</trkpt>
<trkpt lat="40.072842" lon="-105.230575">
  <ele>1586.09</ele>
  <time>2026-08-28T19:13:07Z</time>
  <course>266.03</course>
  <speed>0.0</speed>
  <fix>3d</fix>
</trkpt>
<trkpt lat="40.072842" lon="-105.230575">
  <ele>1586.09</ele>
  <time>2026-08-28T19:13:07Z</time>
  <course>11.86</course>
  <speed>0.022360679774997897</speed>
  <fix>3d</fix>
</trkpt>
<trkpt lat="40.072842" lon="-105.230575">
  <ele>1586.09</ele>
  <time>2026-08-28T19:13:07Z</time>
  <course>266.03</course>
  <speed>0.0</speed>
  <fix>3d</fix>
</trkpt>
<trkpt lat="40.072842" lon="-105.230575">
  <ele>1586.09</ele>
  <time>2026-08-28T19:13:07Z</time>
  <course>11.86</course>
  <speed>0.022360679774997897</speed>
  <fix>3d</fix>
</trkpt>
<trkpt lat="40.072842" lon="-105.230575">
  <ele>1586.09</ele>
  <time>2026-08-28T19:13:07Z</time>
  <course>266.03</course>
  <speed>0.0</speed>
  <fix>3d</fix>
</trkpt>
<trkpt lat="40.072842" lon="-105.230575">
  <ele>1586.09</ele>
  <time>2026-08-28T19:13:07Z</time>
  <course>11.85</course>
  <speed>0.022360679774997897</speed>
  <fix>3d</fix>
</trkpt>
<trkpt lat="40.072842" lon="-105.230575">
  <ele>1586.09</ele>
  <time>2026-08-28T19:13:07Z</time>
  <course>266.03</course>
  <speed>0.0</speed>
  <fix>3d</fix>
</trkpt>
<trkpt lat="40.072842" lon="-105.230575">
  <ele>1586.09</ele>
  <time>2026-08-28T19:13:07Z</time>
  <course>11.84</course>
  <speed>0.022360679774997897</speed>
  <fix>3d</fix>
</trkpt>
<trkpt lat="40.072842" lon="-105.230575">
  <ele>1586.09</ele>
  <time>2026-08-28T19:13:07Z</time>
  <course>266.03</course>
  <speed>0.0</speed>
  <fix>3d</fix>
</trkpt>
<trkpt lat="40.072842" lon="-105.230575">
  <ele>1586.09</ele>
  <time>2026-08-28T19:13:07Z</time>
  <course>11.83</course>
  <speed>0.022360679774997897</speed>
  <fix>3d</fix>
</trkpt>
<trkpt lat="40.072842" lon="-105.230575">
  <ele>1586.09</ele>
  <time>2026-08-28T19:13:07Z</time>
  <course>266.03</course>
  <speed>0.0</speed>
  <fix>3d</fix>
</trkpt>
<trkpt lat="40.072842" lon="-105.230575">
  <ele>1586.09</ele>
  <time>2026-08-28T19:13:07Z</time>
  <course>11.82</course>
  <speed>0.0282842712474619</speed>
  <fix>3d</fix>
</trkpt>
<trkpt lat="40.072842" lon="-105.230575">
  <ele>1586.09</ele>
  <time>2026-08-28T19:13:07Z</time>
  <course>266.03</course>
  <speed>0.0</speed>
  <fix>3d</fix>
</trkpt>
<trkpt lat="40.072842" lon="-105.230575">
  <ele>1586.09</ele>
  <time>2026-08-28T19:13:07Z</time>
  <course>11.82</course>
  <speed>0.0282842712474619</speed>
  <fix>3d</fix>
</trkpt>
<trkpt lat="40.072842" lon="-105.230575">
  <ele>1586.09</ele>
  <time>2026-08-28T19:13:07Z</time>
  <course>266.03</course>
  <speed>0.0</speed>
  <fix>3d</fix>
</trkpt>
<trkpt lat="40.072842" lon="-105.230575">
  <ele>1586.09</ele>
  <time>2026-08-28T19:13:07Z</time>
  <course>11.81</course>
  <speed>0.0282842712474619</speed>
  <fix>3d</fix>
</trkpt>
<trkpt lat="40.072842" lon="-105.230575">
  <ele>1586.09</ele>
  <time>2026-08-28T19:13:07Z</time>
  <course>266.03</course>
  <speed>0.0</speed>
  <fix>3d</fix>
</trkpt>
<trkpt lat="40.072842" lon="-105.230575">
  <ele>1586.09</ele>
  <time>2026-08-28T19:13:07Z</time>
  <course>11.8</course>
  <speed>0.0282842712474619</speed>
  <fix>3d</fix>
</trkpt>
<trkpt lat="40.072842" lon="-105.230575">
  <ele>1586.09</ele>
  <time>2026-08-28T19:13:07Z</time>
  <course>266.03</course>
  <speed>0.0</speed>
  <fix>3d</fix>
</trkpt>
<trkpt lat="40.072842" lon="-105.230575">
  <ele>1586.09</ele>
  <time>2026-08-28T19:13:07Z</time>
  <course>11.79</course>
  <speed>0.0282842712474619</speed>
  <fix>3d</fix>
</trkpt>
<trkpt lat="40.072842" lon="-105.230575">
  <ele>1586.09</ele>
  <time>2026-08-28T19:13:07Z</time>
  <course>266.03</course>
  <speed>0.0</speed>
  <fix>3d</fix>
</trkpt>
<trkpt lat="40.072842" lon="-105.230575">
  <ele>1586.09</ele>
  <time>2026-08-28T19:13:07Z</time>
  <course>11.78</course>
  <speed>0.0282842712474619</speed>
  <fix>3d</fix>
</trkpt>
<trkpt lat="40.072842" lon="-105.230575">
  <ele>1586.09</ele>
  <time>2026-08-28T19:13:07Z</time>
  <course>266.03</course>
  <speed>0.0</speed>
  <fix>3d</fix>
</trkpt>
<trkpt lat="40.072842" lon="-105.230575">
  <ele>1586.09</ele>
  <time>2026-08-28T19:13:07Z</time>
  <course>11.78</course>
  <speed>0.0282842712474619</speed>
  <fix>3d</fix>
</trkpt>
<trkpt lat="40.072842" lon="-105.230575">
  <ele>1586.09</ele>
  <time>2026-08-28T19:13:07Z</time>
  <course>266.03</course>
  <speed>0.0</speed>
  <fix>3d</fix>
</trkpt>
<trkpt lat="40.072842" lon="-105.230575">
  <ele>1586.09</ele>
  <time>2026-08-28T19:13:07Z</time>
  <course>11.77</course>
  <speed>0.0282842712474619</speed>
  <fix>3d</fix>
</trkpt>
<trkpt lat="40.072842" lon="-105.230575">
  <ele>1586.09</ele>
  <time>2026-08-28T19:13:07Z</time>
  <course>266.03</course>
  <speed>0.0</speed>
  <fix>3d</fix>
</trkpt>
<trkpt lat="40.072842" lon="-105.230575">
  <ele>1586.09</ele>
  <time>2026-08-28T19:13:07Z</time>
  <course>11.76</course>
  <speed>0.0282842712474619</speed>
  <fix>3d</fix>
</trkpt>
<trkpt lat="40.072842" lon="-105.230575">
  <ele>1586.09</ele>
  <time>2026-08-28T19:13:07Z</time>
  <course>266.03</course>
  <speed>0.0</speed>
  <fix>3d</fix>
</trkpt>
<trkpt lat="40.072842" lon="-105.230575">
  <ele>1586.09</ele>
  <time>2026-08-28T19:13:07Z</time>
  <course>11.76</course>
  <speed>0.0282842712474619</speed>
  <fix>3d</fix>
</trkpt>
<trkpt lat="40.072842" lon="-105.230575">
  <ele>1586.09</ele>
  <time>2026-08-28T19:13:07Z</time>
  <course>266.03</course>
  <speed>0.0</speed>
  <fix>3d</fix>
</trkpt>
<trkpt lat="40.072842" lon="-105.230575">
  <ele>1586.09</ele>
  <time>2026-08-28T19:13:07Z</time>
  <course>11.75</course>
  <speed>0.0282842712474619</speed>
  <fix>3d</fix>
</trkpt>
<trkpt lat="40.072842" lon="-105.230575">
  <ele>1586.09</ele>
  <time>2026-08-28T19:13:07Z</time>
  <course>266.03</course>
  <speed>0.0</speed>
  <fix>3d</fix>
</trkpt>
<trkpt lat="40.072842" lon="-105.230575">
  <ele>1586.09</ele>
  <time>2026-08-28T19:13:07Z</time>
  <course>11.74</course>
  <speed>0.03605551275463989</speed>
  <fix>3d</fix>
</trkpt>
<trkpt lat="40.072842" lon="-105.230575">
  <ele>1586.09</ele>
  <time>2026-08-28T19:13:07Z</time>
  <course>266.03</course>
  <speed>0.0</speed>
  <fix>3d</fix>
</trkpt>
<trkpt lat="40.072842" lon="-105.230575">
  <ele>1586.09</ele>
  <time>2026-08-28T19:13:07Z</time>
  <course>11.73</course>
  <speed>0.03605551275463989</speed>
  <fix>3d</fix>
</trkpt>
<trkpt lat="40.072842" lon="-105.230575">
  <ele>1586.09</ele>
  <time>2026-08-28T19:13:07Z</time>
  <course>266.03</course>
  <speed>0.0</speed>
  <fix>3d</fix>
</trkpt>
<trkpt lat="40.072842" lon="-105.230575">
  <ele>1586.09</ele>
  <time>2026-08-28T19:13:07Z</time>
  <course>11.73</course>
  <speed>0.03605551275463989</speed>
  <fix>3d</fix>
</trkpt>
<trkpt lat="40.072842" lon="-105.230575">
  <ele>1586.09</ele>
  <time>2026-08-28T19:13:07Z</time>
  <course>266.03</course>
  <speed>0.0</speed>
  <fix>3d</fix>
</trkpt>
<trkpt lat="40.072842" lon="-105.230575">
  <ele>1586.09</ele>
  <time>2026-08-28T19:13:07Z</time>
  <course>11.72</course>
  <speed>0.03605551275463989</speed>
  <fix>3d</fix>
</trkpt>
<trkpt lat="40.072842" lon="-105.230575">
  <ele>1586.09</ele>
  <time>2026-08-28T19:13:07Z</time>
  <course>266.03</course>
  <speed>0.0</speed>
  <fix>3d</fix>
</trkpt>
<trkpt lat="40.072842" lon="-105.230575">
  <ele>1586.09</ele>
  <time>2026-08-28T19:13:07Z</time>
  <course>11.71</course>
  <speed>0.03605551275463989</speed>
  <fix>3d</fix>
</trkpt>
<trkpt lat="40.072842" lon="-105.230575">
  <ele>1586.09</ele>
  <time>2026-08-28T19:13:07Z</time>
  <course>266.03</course>
  <speed>0.0</speed>
  <fix>3d</fix>
</trkpt>
<trkpt lat="40.072842" lon="-105.230575">
  <ele>1586.09</ele>
  <time>2026-08-28T19:13:07Z</time>
  <course>11.7</course>
  <speed>0.03605551275463989</speed>
  <fix>3d</fix>
</trkpt>
<trkpt lat="40.072842" lon="-105.230575">
  <ele>1586.09</ele>
  <time>2026-08-28T19:13:07Z</time>
  <course>266.03</course>
  <speed>0.0</speed>
  <fix>3d</fix>
</trkpt>
<trkpt lat="40.072842" lon="-105.230575">
  <ele>1586.09</ele>
  <time>2026-08-28T19:13:07Z</time>
  <course>11.69</course>
  <speed>0.03605551275463989</speed>
  <fix>3d</fix>
</trkpt>
<trkpt lat="40.072842" lon="-105.230575">
  <ele>1586.09</ele>
  <time>2026-08-28T19:13:07Z</time>
  <course>266.03</course>
  <speed>0.0</speed>
  <fix>3d</fix>
</trkpt>
<trkpt lat="40.072842" lon="-105.230575">
  <ele>1586.09</ele>
  <time>2026-08-28T19:13:07Z</time>
  <course>11.69</course>
  <speed>0.03605551275463989</speed>
  <fix>3d</fix>
</trkpt>
<trkpt lat="40.072842" lon="-105.230575">
  <ele>1586.09</ele>
  <time>2026-08-28T19:13:07Z</time>
  <course>266.03</course>
  <speed>0.0</speed>
  <fix>3d</fix>
</trkpt>
<trkpt lat="40.072842" lon="-105.230575">
  <ele>1586.09</ele>
  <time>2026-08-28T19:13:07Z</time>
  <course>11.68</course>
  <speed>0.03605551275463989</speed>
  <fix>3d</fix>
</trkpt>
<trkpt lat="40.072842" lon="-105.230575">
  <ele>1586.09</ele>
  <time>2026-08-28T19:13:07Z</time>
  <course>266.03</course>
  <speed>0.0</speed>
  <fix>3d</fix>
</trkpt>
<trkpt lat="40.072842" lon="-105.230575">
  <ele>1586.09</ele>
  <time>2026-08-28T19:13:07Z</time>
  <course>11.67</course>
  <speed>0.03605551275463989</speed>
  <fix>3d</fix>
</trkpt>
<trkpt lat="40.072842" lon="-105.230575">
  <ele>1586.09</ele>
  <time>2026-08-28T19:13:07Z</time>
  <course>266.03</course>
  <speed>0.0</speed>
  <fix>3d</fix>
</trkpt>
<trkpt lat="40.072842" lon="-105.230575">
  <ele>1586.09</ele>
  <time>2026-08-28T19:13:07Z</time>
  <course>11.67</course>
  <speed>0.03605551275463989</speed>
  <fix>3d</fix>
</trkpt>
<trkpt lat="40.072842" lon="-105.230575">
  <ele>1586.09</ele>
  <time>2026-08-28T19:13:07Z</time>
  <course>266.03</course>
  <speed>0.0</speed>
  <fix>3d</fix>
</trkpt>
<trkpt lat="40.072842" lon="-105.230575">
  <ele>1586.09</ele>
  <time>2026-08-28T19:13:07Z</time>
  <course>11.66</course>
  <speed>0.03605551275463989</speed>
  <fix>3d</fix>
</trkpt>
<trkpt lat="40.072842" lon="-105.230575">
  <ele>1586.09</ele>
  <time>2026-08-28T19:13:07Z</time>
  <course>266.03</course>
  <speed>0.0</speed>
  <fix>3d</fix>
</trkpt>
<trkpt lat="40.072842" lon="-105.230575">
  <ele>1586.09</ele>
  <time>2026-08-28T19:13:07Z</time>
  <course>11.65</course>
  <speed>0.03605551275463989</speed>
  <fix>3d</fix>
</trkpt>
<trkpt lat="40.072842" lon="-105.230575">
  <ele>1586.09</ele>
  <time>2026-08-28T19:13:07Z</time>
  <course>266.03</course>
  <speed>0.0</speed>
  <fix>3d</fix>
</trkpt>
<trkpt lat="40.072842" lon="-105.230575">
  <ele>1586.09</ele>
  <time>2026-08-28T19:13:07Z</time>
  <course>11.65</course>
  <speed>0.03605551275463989</speed>
  <fix>3d</fix>
</trkpt>
<trkpt lat="40.072842" lon="-105.230575">
  <ele>1586.09</ele>
  <time>2026-08-28T19:13:07Z</time>
  <course>266.03</course>
  <speed>0.0</speed>
  <fix>3d</fix>
</trkpt>
<trkpt lat="40.072842" lon="-105.230575">
  <ele>1586.09</ele>
  <time>2026-08-28T19:13:07Z</time>
  <course>11.64</course>
  <speed>0.03605551275463989</speed>
  <fix>3d</fix>
</trkpt>
<trkpt lat="40.072842" lon="-105.230575">
  <ele>1586.09</ele>
  <time>2026-08-28T19:13:07Z</time>
  <course>266.03</course>
  <speed>0.0</speed>
  <fix>3d</fix>
</trkpt>
<trkpt lat="40.072842" lon="-105.230575">
  <ele>1586.09</ele>
  <time>2026-08-28T19:13:07Z</time>
  <course>11.63</course>
  <speed>0.03605551275463989</speed>
  <fix>3d</fix>
</trkpt>
<trkpt lat="40.072842" lon="-105.230575">
  <ele>1586.09</ele>
  <time>2026-08-28T19:13:07Z</time>
  <course>266.03</course>
  <speed>0.0</speed>
  <fix>3d</fix>
</trkpt>
<trkpt lat="40.072842" lon="-105.230575">
  <ele>1586.09</ele>
  <time>2026-08-28T19:13:07Z</time>
  <course>11.62</course>
  <speed>0.03605551275463989</speed>
  <fix>3d</fix>
</trkpt>
<trkpt lat="40.072842" lon="-105.230575">
  <ele>1586.09</ele>
  <time>2026-08-28T19:13:07Z</time>
  <course>266.03</course>
  <speed>0.0</speed>
  <fix>3d</fix>
</trkpt>
<trkpt lat="40.072842" lon="-105.230575">
  <ele>1586.09</ele>
  <time>2026-08-28T19:13:07Z</time>
  <course>11.62</course>
  <speed>0.03605551275463989</speed>
  <fix>3d</fix>
</trkpt>
<trkpt lat="40.072842" lon="-105.230575">
  <ele>1586.09</ele>
  <time>2026-08-28T19:13:07Z</time>
  <course>266.03</course>
  <speed>0.0</speed>
  <fix>3d</fix>
</trkpt>
<trkpt lat="40.072842" lon="-105.230575">
  <ele>1586.09</ele>
  <time>2026-08-28T19:13:07Z</time>
  <course>11.61</course>
  <speed>0.03605551275463989</speed>
  <fix>3d</fix>
</trkpt>
<trkpt lat="40.072842" lon="-105.230575">
  <ele>1586.09</ele>
  <time>2026-08-28T19:13:07Z</time>
  <course>266.03</course>
  <speed>0.0</speed>
  <fix>3d</fix>
</trkpt>
<trkpt lat="40.072842" lon="-105.230575">
  <ele>1586.09</ele>
  <time>2026-08-28T19:13:07Z</time>
  <course>11.61</course>
  <speed>0.03605551275463989</speed>
  <fix>3d</fix>
</trkpt>
<trkpt lat="40.072842" lon="-105.230575">
  <ele>1586.09</ele>
  <time>2026-08-28T19:13:07Z</time>
  <course>266.03</course>
  <speed>0.0</speed>
  <fix>3d</fix>
</trkpt>
<trkpt lat="40.072842" lon="-105.230575">
  <ele>1586.09</ele>
  <time>2026-08-28T19:13:07Z</time>
  <course>11.6</course>
  <speed>0.03605551275463989</speed>
  <fix>3d</fix>
</trkpt>
<trkpt lat="40.072842" lon="-105.230575">
  <ele>1586.09</ele>
  <time>2026-08-28T19:13:07Z</time>
  <course>266.03</course>
  <speed>0.0</speed>
  <fix>3d</fix>
</trkpt>
<trkpt lat="40.072842" lon="-105.230575">
  <ele>1586.09</ele>
  <time>2026-08-28T19:13:07Z</time>
  <course>11.59</course>
  <speed>0.03605551275463989</speed>
  <fix>3d</fix>
</trkpt>
<trkpt lat="40.072842" lon="-105.230575">
  <ele>1586.09</ele>
  <time>2026-08-28T19:13:07Z</time>
  <course>266.03</course>
  <speed>0.0</speed>
  <fix>3d</fix>
</trkpt>
<trkpt lat="40.072842" lon="-105.230575">
  <ele>1586.09</ele>
  <time>2026-08-28T19:13:07Z</time>
  <course>11.59</course>
  <speed>0.03605551275463989</speed>
  <fix>3d</fix>
</trkpt>
<trkpt lat="40.072842" lon="-105.230575">
  <ele>1586.09</ele>
  <time>2026-08-28T19:13:07Z</time>
  <course>266.03</course>
  <speed>0.0</speed>
  <fix>3d</fix>
</trkpt>
<trkpt lat="40.072842" lon="-105.230575">
  <ele>1586.09</ele>
  <time>2026-08-28T19:13:07Z</time>
  <course>11.58</course>
  <speed>0.03605551275463989</speed>
  <fix>3d</fix>
</trkpt>
<trkpt lat="40.072842" lon="-105.230575">
  <ele>1586.09</ele>
  <time>2026-08-28T19:13:07Z</time>
  <course>266.03</course>
  <speed>0.0</speed>
  <fix>3d</fix>
</trkpt>
<trkpt lat="40.072842" lon="-105.230575">
  <ele>1586.09</ele>
  <time>2026-08-28T19:13:07Z</time>
  <course>11.57</course>
  <speed>0.03605551275463989</speed>
  <fix>3d</fix>
</trkpt>
<trkpt lat="40.072842" lon="-105.230575">
  <ele>1586.09</ele>
  <time>2026-08-28T19:13:07Z</time>
  <course>266.03</course>
  <speed>0.0</speed>
  <fix>3d</fix>
</trkpt>
<trkpt lat="40.072842" lon="-105.230575">
  <ele>1586.09</ele>
  <time>2026-08-28T19:13:07Z</time>
  <course>11.57</course>
  <speed>0.03605551275463989</speed>
  <fix>3d</fix>
</trkpt>
<trkpt lat="40.072842" lon="-105.230575">
  <ele>1586.09</ele>
  <time>2026-08-28T19:13:07Z</time>
  <course>266.03</course>
  <speed>0.0</speed>
  <fix>3d</fix>
</trkpt>
<trkpt lat="40.072842" lon="-105.230575">
  <ele>1586.09</ele>
  <time>2026-08-28T19:13:07Z</time>
  <course>11.56</course>
  <speed>0.03605551275463989</speed>
  <fix>3d</fix>
</trkpt>
<trkpt lat="40.072842" lon="-105.230575">
  <ele>1586.09</ele>
  <time>2026-08-28T19:13:07Z</time>
  <course>266.03</course>
  <speed>0.0</speed>
  <fix>3d</fix>
</trkpt>
<trkpt lat="40.072842" lon="-105.230575">
  <ele>1586.09</ele>
  <time>2026-08-28T19:13:07Z</time>
  <course>11.56</course>
  <speed>0.03605551275463989</speed>
  <fix>3d</fix>
</trkpt>
<trkpt lat="40.072842" lon="-105.230575">
  <ele>1586.09</ele>
  <time>2026-08-28T19:13:07Z</time>
  <course>266.03</course>
  <speed>0.0</speed>
  <fix>3d</fix>
</trkpt>
<trkpt lat="40.072842" lon="-105.230575">
  <ele>1586.09</ele>
  <time>2026-08-28T19:13:07Z</time>
  <course>11.55</course>
  <speed>0.03605551275463989</speed>
  <fix>3d</fix>
</trkpt>
<trkpt lat="40.072842" lon="-105.230575">
  <ele>1586.09</ele>
  <time>2026-08-28T19:13:07Z</time>
  <course>266.03</course>
  <speed>0.0</speed>
  <fix>3d</fix>
</trkpt>
<trkpt lat="40.072842" lon="-105.230575">
  <ele>1586.09</ele>
  <time>2026-08-28T19:13:07Z</time>
  <course>11.54</course>
  <speed>0.03605551275463989</speed>
  <fix>3d</fix>
</trkpt>
<trkpt lat="40.072842" lon="-105.230575">
  <ele>1586.09</ele>
  <time>2026-08-28T19:13:07Z</time>
  <course>266.03</course>
  <speed>0.0</speed>
  <fix>3d</fix>
</trkpt>
<trkpt lat="40.072842" lon="-105.230575">
  <ele>1586.09</ele>
  <time>2026-08-28T19:13:07Z</time>
  <course>11.54</course>
  <speed>0.03605551275463989</speed>
  <fix>3d</fix>
</trkpt>
<trkpt lat="40.072842" lon="-105.230575">
  <ele>1586.09</ele>
  <time>2026-08-28T19:13:07Z</time>
  <course>266.03</course>
  <speed>0.0</speed>
  <fix>3d</fix>
</trkpt>
<trkpt lat="40.072842" lon="-105.230575">
  <ele>1586.09</ele>
  <time>2026-08-28T19:13:07Z</time>
  <course>11.53</course>
  <speed>0.03605551275463989</speed>
  <fix>3d</fix>
</trkpt>
<trkpt lat="40.072842" lon="-105.230575">
  <ele>1586.09</ele>
  <time>2026-08-28T19:13:07Z</time>
  <course>266.03</course>
  <speed>0.0</speed>
  <fix>3d</fix>
</trkpt>
<trkpt lat="40.072842" lon="-105.230575">
  <ele>1586.09</ele>
  <time>2026-08-28T19:13:07Z</time>
  <course>11.53</course>
  <speed>0.03605551275463989</speed>
  <fix>3d</fix>
</trkpt>
<trkpt lat="40.072842" lon="-105.230575">
  <ele>1586.09</ele>
  <time>2026-08-28T19:13:07Z</time>
  <course>266.03</course>
  <speed>0.0</speed>
  <fix>3d</fix>
</trkpt>
<trkpt lat="40.072842" lon="-105.230575">
  <ele>1586.09</ele>
  <time>2026-08-28T19:13:07Z</time>
  <course>11.52</course>
  <speed>0.03605551275463989</speed>
  <fix>3d</fix>
</trkpt>
<trkpt lat="40.072842" lon="-105.230575">
  <ele>1586.09</ele>
  <time>2026-08-28T19:13:07Z</time>
  <course>266.03</course>
  <speed>0.0</speed>
  <fix>3d</fix>
</trkpt>
<trkpt lat="40.072842" lon="-105.230575">
  <ele>1586.09</ele>
  <time>2026-08-28T19:13:07Z</time>
  <course>11.51</course>
  <speed>0.03605551275463989</speed>
  <fix>3d</fix>
</trkpt>
<trkpt lat="40.072842" lon="-105.230575">
  <ele>1586.09</ele>
  <time>2026-08-28T19:13:07Z</time>
  <course>266.03</course>
  <speed>0.0</speed>
  <fix>3d</fix>
</trkpt>
<trkpt lat="40.072842" lon="-105.230575">
  <ele>1586.09</ele>
  <time>2026-08-28T19:13:07Z</time>
  <course>11.51</course>
  <speed>0.03605551275463989</speed>
  <fix>3d</fix>
</trkpt>
<trkpt lat="40.072842" lon="-105.230575">
  <ele>1586.09</ele>
  <time>2026-08-28T19:13:07Z</time>
  <course>266.03</course>
  <speed>0.0</speed>
  <fix>3d</fix>
</trkpt>
<trkpt lat="40.072842" lon="-105.230575">
  <ele>1586.09</ele>
  <time>2026-08-28T19:13:07Z</time>
  <course>11.5</course>
  <speed>0.03605551275463989</speed>
  <fix>3d</fix>
</trkpt>
<trkpt lat="40.072842" lon="-105.230575">
  <ele>1586.09</ele>
  <time>2026-08-28T19:13:07Z</time>
  <course>266.03</course>
  <speed>0.0</speed>
  <fix>3d</fix>
</trkpt>
<trkpt lat="40.072842" lon="-105.230575">
  <ele>1586.09</ele>
  <time>2026-08-28T19:13:07Z</time>
  <course>11.5</course>
  <speed>0.03605551275463989</speed>
  <fix>3d</fix>
</trkpt>
<trkpt lat="40.072842" lon="-105.230575">
  <ele>1586.09</ele>
  <time>2026-08-28T19:13:07Z</time>
  <course>266.03</course>
  <speed>0.0</speed>
  <fix>3d</fix>
</trkpt>
<trkpt lat="40.072842" lon="-105.230575">
  <ele>1586.09</ele>
  <time>2026-08-28T19:13:07Z</time>
  <course>11.49</course>
  <speed>0.044721359549995794</speed>
  <fix>3d</fix>
</trkpt>
<trkpt lat="40.072842" lon="-105.230575">
  <ele>1586.09</ele>
  <time>2026-08-28T19:13:07Z</time>
  <course>266.03</course>
  <speed>0.0</speed>
  <fix>3d</fix>
</trkpt>
<trkpt lat="40.072842" lon="-105.230575">
  <ele>1586.09</ele>
  <time>2026-08-28T19:13:07Z</time>
  <course>11.49</course>
  <speed>0.044721359549995794</speed>
  <fix>3d</fix>
</trkpt>
<trkpt lat="40.072842" lon="-105.230575">
  <ele>1586.09</ele>
  <time>2026-08-28T19:13:07Z</time>
  <course>266.03</course>
  <speed>0.0</speed>
  <fix>3d</fix>
</trkpt>
<trkpt lat="40.072842" lon="-105.230575">
  <ele>1586.09</ele>
  <time>2026-08-28T19:13:07Z</time>
  <course>11.48</course>
  <speed>0.044721359549995794</speed>
  <fix>3d</fix>
</trkpt>
<trkpt lat="40.072842" lon="-105.230575">
  <ele>1586.09</ele>
  <time>2026-08-28T19:13:07Z</time>
  <course>266.03</course>
  <speed>0.0</speed>
  <fix>3d</fix>
</trkpt>
<trkpt lat="40.072842" lon="-105.230575">
  <ele>1586.09</ele>
  <time>2026-08-28T19:13:07Z</time>
  <course>11.48</course>
  <speed>0.044721359549995794</speed>
  <fix>3d</fix>
</trkpt>
<trkpt lat="40.072842" lon="-105.230575">
  <ele>1586.09</ele>
  <time>2026-08-28T19:13:07Z</time>
  <course>266.03</course>
  <speed>0.0</speed>
  <fix>3d</fix>
</trkpt>
<trkpt lat="40.072842" lon="-105.230575">
  <ele>1586.09</ele>
  <time>2026-08-28T19:13:07Z</time>
  <course>11.47</course>
  <speed>0.044721359549995794</speed>
  <fix>3d</fix>
</trkpt>
<trkpt lat="40.072842" lon="-105.230575">
  <ele>1586.09</ele>
  <time>2026-08-28T19:13:07Z</time>
  <course>266.03</course>
  <speed>0.0</speed>
  <fix>3d</fix>
</trkpt>
<trkpt lat="40.072842" lon="-105.230575">
  <ele>1586.09</ele>
  <time>2026-08-28T19:13:07Z</time>
  <course>11.47</course>
  <speed>0.044721359549995794</speed>
  <fix>3d</fix>
</trkpt>
<trkpt lat="40.072842" lon="-105.230575">
  <ele>1586.09</ele>
  <time>2026-08-28T19:13:07Z</time>
  <course>266.03</course>
  <speed>0.0</speed>
  <fix>3d</fix>
</trkpt>
<trkpt lat="40.072842" lon="-105.230575">
  <ele>1586.09</ele>
  <time>2026-08-28T19:13:07Z</time>
  <course>11.46</course>
  <speed>0.044721359549995794</speed>
  <fix>3d</fix>
</trkpt>
<trkpt lat="40.072842" lon="-105.230575">
  <ele>1586.09</ele>
  <time>2026-08-28T19:13:07Z</time>
  <course>266.03</course>
  <speed>0.0</speed>
  <fix>3d</fix>
</trkpt>
<trkpt lat="40.072842" lon="-105.230575">
  <ele>1586.09</ele>
  <time>2026-08-28T19:13:07Z</time>
  <course>11.46</course>
  <speed>0.044721359549995794</speed>
  <fix>3d</fix>
</trkpt>
<trkpt lat="40.072842" lon="-105.230575">
  <ele>1586.09</ele>
  <time>2026-08-28T19:13:07Z</time>
  <course>266.03</course>
  <speed>0.0</speed>
  <fix>3d</fix>
</trkpt>
<trkpt lat="40.072842" lon="-105.230575">
  <ele>1586.15</ele>
  <time>2026-08-28T19:13:07Z</time>
  <course>11.45</course>
  <speed>0.0</speed>
  <fix>3d</fix>
</trkpt>
<trkpt lat="40.072842" lon="-105.230575">
  <ele>1586.09</ele>
  <time>2026-08-28T19:13:07Z</time>
  <course>266.03</course>
  <speed>0.0</speed>
  <fix>3d</fix>
</trkpt>
<trkpt lat="40.072842" lon="-105.230575">
  <ele>1586.15</ele>
  <time>2026-08-28T19:13:07Z</time>
  <course>11.45</course>
  <speed>0.0</speed>
  <fix>3d</fix>
</trkpt>
<trkpt lat="40.072842" lon="-105.230575">
  <ele>1586.09</ele>
  <time>2026-08-28T19:13:07Z</time>
  <course>266.03</course>
  <speed>0.0</speed>
  <fix>3d</fix>
</trkpt>
<trkpt lat="40.072842" lon="-105.230575">
  <ele>1586.14</ele>
  <time>2026-08-28T19:13:08Z</time>
  <course>11.44</course>
  <speed>0.0</speed>
  <fix>3d</fix>
</trkpt>
<trkpt lat="40.072842" lon="-105.230575">
  <ele>1586.09</ele>
  <time>2026-08-28T19:13:08Z</time>
  <course>281.49</course>
  <speed>0.0</speed>
  <fix>3d</fix>
</trkpt>
<trkpt lat="40.072842" lon="-105.230575">
  <ele>1586.14</ele>
  <time>2026-08-28T19:13:08Z</time>
  <course>11.44</course>
  <speed>0.0</speed>
  <fix>3d</fix>
</trkpt>
<trkpt lat="40.072842" lon="-105.230575">
  <ele>1586.09</ele>
  <time>2026-08-28T19:13:08Z</time>
  <course>269.42</course>
  <speed>0.0</speed>
  <fix>3d</fix>
</trkpt>
<trkpt lat="40.072842" lon="-105.230575">
  <ele>1586.14</ele>
  <time>2026-08-28T19:13:08Z</time>
  <course>11.43</course>
  <speed>0.0</speed>
  <fix>3d</fix>
</trkpt>
<trkpt lat="40.072842" lon="-105.230575">
  <ele>1586.09</ele>
  <time>2026-08-28T19:13:08Z</time>
  <course>211.84</course>
  <speed>0.0</speed>
  <fix>3d</fix>
</trkpt>
<trkpt lat="40.072842" lon="-105.230575">
  <ele>1586.14</ele>
  <time>2026-08-28T19:13:08Z</time>
  <course>11.43</course>
  <speed>0.01</speed>
  <fix>3d</fix>
</trkpt>
<trkpt lat="40.072842" lon="-105.230575">
  <ele>1586.09</ele>
  <time>2026-08-28T19:13:08Z</time>
  <course>76.8</course>
  <speed>0.0</speed>
  <fix>3d</fix>
</trkpt>
<trkpt lat="40.072842" lon="-105.230575">
  <ele>1586.14</ele>
  <time>2026-08-28T19:13:08Z</time>
  <course>11.42</course>
  <speed>0.01</speed>
  <fix>3d</fix>
</trkpt>
<trkpt lat="40.072842" lon="-105.230575">
  <ele>1586.09</ele>
  <time>2026-08-28T19:13:08Z</time>
  <course>283.66</course>
  <speed>0.0</speed>
  <fix>3d</fix>
</trkpt>
<trkpt lat="40.072842" lon="-105.230575">
  <ele>1586.14</ele>
  <time>2026-08-28T19:13:08Z</time>
  <course>11.42</course>
  <speed>0.01</speed>
  <fix>3d</fix>
</trkpt>
<trkpt lat="40.072842" lon="-105.230575">
  <ele>1586.09</ele>
  <time>2026-08-28T19:13:08Z</time>
  <course>262.24</course>
  <speed>0.0</speed>
  <fix>3d</fix>
</trkpt>
<trkpt lat="40.072842" lon="-105.230575">
  <ele>1586.14</ele>
  <time>2026-08-28T19:13:08Z</time>
  <course>11.42</course>
  <speed>0.01414213562373095</speed>
  <fix>3d</fix>
</trkpt>
<trkpt lat="40.072842" lon="-105.230575">
  <ele>1586.09</ele>
  <time>2026-08-28T19:13:08Z</time>
  <course>263.53</course>
  <speed>0.0</speed>
  <fix>3d</fix>
</trkpt>
<trkpt lat="40.072842" lon="-105.230575">
  <ele>1586.15</ele>
  <time>2026-08-28T19:13:08Z</time>
  <course>11.41</course>
  <speed>0.01414213562373095</speed>
  <fix>3d</fix>
</trkpt>
<trkpt lat="40.072842" lon="-105.230575">
  <ele>1586.09</ele>
  <time>2026-08-28T19:13:08Z</time>
  <course>267.07</course>
  <speed>0.0</speed>
  <fix>3d</fix>
</trkpt>
<trkpt lat="40.072842" lon="-105.230575">
  <ele>1586.15</ele>
  <time>2026-08-28T19:13:08Z</time>
  <course>11.41</course>
  <speed>0.01414213562373095</speed>
  <fix>3d</fix>
</trkpt>
<trkpt lat="40.072842" lon="-105.230575">
  <ele>1586.09</ele>
  <time>2026-08-28T19:13:08Z</time>
  <course>266.23</course>
  <speed>0.0</speed>
  <fix>3d</fix>
</trkpt>
<trkpt lat="40.072842" lon="-105.230575">
  <ele>1586.15</ele>
  <time>2026-08-28T19:13:08Z</time>
  <course>11.4</course>
  <speed>0.022360679774997897</speed>
  <fix>3d</fix>
</trkpt>
<trkpt lat="40.072842" lon="-105.230575">
  <ele>1586.09</ele>
  <time>2026-08-28T19:13:08Z</time>
  <course>265.88</course>
  <speed>0.0</speed>
  <fix>3d</fix>
</trkpt>
<trkpt lat="40.072842" lon="-105.230575">
  <ele>1586.15</ele>
  <time>2026-08-28T19:13:08Z</time>
  <course>11.4</course>
  <speed>0.022360679774997897</speed>
  <fix>3d</fix>
</trkpt>
<trkpt lat="40.072842" lon="-105.230575">
  <ele>1586.09</ele>
  <time>2026-08-28T19:13:08Z</time>
  <course>261.38</course>
  <speed>0.0</speed>
  <fix>3d</fix>
</trkpt>
<trkpt lat="40.072842" lon="-105.230575">
  <ele>1586.16</ele>
  <time>2026-08-28T19:13:08Z</time>
  <course>11.4</course>
  <speed>0.022360679774997897</speed>
  <fix>3d</fix>
</trkpt>
<trkpt lat="40.072842" lon="-105.230575">
  <ele>1586.09</ele>
  <time>2026-08-28T19:13:08Z</time>
  <course>266.79</course>
  <speed>0.0</speed>
  <fix>3d</fix>
</trkpt>
<trkpt lat="40.072842" lon="-105.230575">
  <ele>1586.16</ele>
  <time>2026-08-28T19:13:08Z</time>
  <course>11.39</course>
  <speed>0.022360679774997897</speed>
  <fix>3d</fix>
</trkpt>
<trkpt lat="40.072842" lon="-105.230575">
  <ele>1586.09</ele>
  <time>2026-08-28T19:13:08Z</time>
  <course>268.81</course>
  <speed>0.0</speed>
  <fix>3d</fix>
</trkpt>
<trkpt lat="40.072842" lon="-105.230575">
  <ele>1586.16</ele>
  <time>2026-08-28T19:13:08Z</time>
  <course>11.39</course>
  <speed>0.01414213562373095</speed>
  <fix>3d</fix>
</trkpt>
<trkpt lat="40.072842" lon="-105.230575">
  <ele>1586.09</ele>
  <time>2026-08-28T19:13:08Z</time>
  <course>264.07</course>
  <speed>0.0</speed>
  <fix>3d</fix>
</trkpt>
<trkpt lat="40.072842" lon="-105.230575">
  <ele>1586.16</ele>
  <time>2026-08-28T19:13:08Z</time>
  <course>11.39</course>
  <speed>0.01414213562373095</speed>
  <fix>3d</fix>
</trkpt>
<trkpt lat="40.072842" lon="-105.230575">
  <ele>1586.09</ele>
  <time>2026-08-28T19:13:08Z</time>
  <course>266.05</course>
  <speed>0.0</speed>
  <fix>3d</fix>
</trkpt>
<trkpt lat="40.072842" lon="-105.230575">
  <ele>1586.16</ele>
  <time>2026-08-28T19:13:08Z</time>
  <course>11.38</course>
  <speed>0.01</speed>
  <fix>3d</fix>
</trkpt>
<trkpt lat="40.072842" lon="-105.230575">
  <ele>1586.09</ele>
  <time>2026-08-28T19:13:08Z</time>
  <course>266.3</course>
  <speed>0.0</speed>
  <fix>3d</fix>
</trkpt>
<trkpt lat="40.072842" lon="-105.230575">
  <ele>1586.16</ele>
  <time>2026-08-28T19:13:08Z</time>
  <course>11.38</course>
  <speed>0.0</speed>
  <fix>3d</fix>
</trkpt>
<trkpt lat="40.072842" lon="-105.230575">
  <ele>1586.09</ele>
  <time>2026-08-28T19:13:08Z</time>
  <course>266.0</course>
  <speed>0.0</speed>
  <fix>3d</fix>
</trkpt>
<trkpt lat="40.072842" lon="-105.230575">
  <ele>1586.16</ele>
  <time>2026-08-28T19:13:08Z</time>
  <course>11.37</course>
  <speed>0.0</speed>
  <fix>3d</fix>
</trkpt>
<trkpt lat="40.072842" lon="-105.230575">
  <ele>1586.09</ele>
  <time>2026-08-28T19:13:08Z</time>
  <course>266.0</course>
  <speed>0.0</speed>
  <fix>3d</fix>
</trkpt>
<trkpt lat="40.072842" lon="-105.230575">
  <ele>1586.16</ele>
  <time>2026-08-28T19:13:08Z</time>
  <course>11.37</course>
  <speed>0.0</speed>
  <fix>3d</fix>
</trkpt>
<trkpt lat="40.072842" lon="-105.230575">
  <ele>1586.09</ele>
  <time>2026-08-28T19:13:08Z</time>
  <course>266.04</course>
  <speed>0.0</speed>
  <fix>3d</fix>
</trkpt>
<trkpt lat="40.072842" lon="-105.230575">
  <ele>1586.16</ele>
  <time>2026-08-28T19:13:08Z</time>
  <course>11.37</course>
  <speed>0.0</speed>
  <fix>3d</fix>
</trkpt>
<trkpt lat="40.072842" lon="-105.230575">
  <ele>1586.09</ele>
  <time>2026-08-28T19:13:08Z</time>
  <course>315.89</course>
  <speed>0.0</speed>
  <fix>3d</fix>
</trkpt>
<trkpt lat="40.072842" lon="-105.230575">
  <ele>1586.16</ele>
  <time>2026-08-28T19:13:08Z</time>
  <course>11.36</course>
  <speed>0.0</speed>
  <fix>3d</fix>
</trkpt>
<trkpt lat="40.072842" lon="-105.230575">
  <ele>1586.09</ele>
  <time>2026-08-28T19:13:08Z</time>
  <course>321.51</course>
  <speed>0.0</speed>
  <fix>3d</fix>
</trkpt>
<trkpt lat="40.072842" lon="-105.230575">
  <ele>1586.16</ele>
  <time>2026-08-28T19:13:08Z</time>
  <course>11.36</course>
  <speed>0.0</speed>
  <fix>3d</fix>
</trkpt>
<trkpt lat="40.072842" lon="-105.230575">
  <ele>1586.09</ele>
  <time>2026-08-28T19:13:08Z</time>
  <course>312.16</course>
  <speed>0.0</speed>
  <fix>3d</fix>
</trkpt>
<trkpt lat="40.072842" lon="-105.230575">
  <ele>1586.16</ele>
  <time>2026-08-28T19:13:08Z</time>
  <course>11.36</course>
  <speed>0.0</speed>
  <fix>3d</fix>
</trkpt>
<trkpt lat="40.072842" lon="-105.230575">
  <ele>1586.09</ele>
  <time>2026-08-28T19:13:08Z</time>
  <course>193.33</course>
  <speed>0.0</speed>
  <fix>3d</fix>
</trkpt>
<trkpt lat="40.072842" lon="-105.230575">
  <ele>1586.16</ele>
  <time>2026-08-28T19:13:08Z</time>
  <course>11.35</course>
  <speed>0.0</speed>
  <fix>3d</fix>
</trkpt>
<trkpt lat="40.072842" lon="-105.230575">
  <ele>1586.09</ele>
  <time>2026-08-28T19:13:08Z</time>
  <course>163.69</course>
  <speed>0.0</speed>
  <fix>3d</fix>
</trkpt>
<trkpt lat="40.072842" lon="-105.230575">
  <ele>1586.16</ele>
  <time>2026-08-28T19:13:08Z</time>
  <course>11.35</course>
  <speed>0.0</speed>
  <fix>3d</fix>
</trkpt>
<trkpt lat="40.072842" lon="-105.230575">
  <ele>1586.09</ele>
  <time>2026-08-28T19:13:08Z</time>
  <course>301.3</course>
  <speed>0.0</speed>
  <fix>3d</fix>
</trkpt>
<trkpt lat="40.072842" lon="-105.230575">
  <ele>1586.16</ele>
  <time>2026-08-28T19:13:08Z</time>
  <course>11.34</course>
  <speed>0.0</speed>
  <fix>3d</fix>
</trkpt>
<trkpt lat="40.072842" lon="-105.230575">
  <ele>1586.09</ele>
  <time>2026-08-28T19:13:08Z</time>
  <course>286.45</course>
  <speed>0.0</speed>
  <fix>3d</fix>
</trkpt>
<trkpt lat="40.072842" lon="-105.230575">
  <ele>1586.16</ele>
  <time>2026-08-28T19:13:08Z</time>
  <course>11.33</course>
  <speed>0.0</speed>
  <fix>3d</fix>
</trkpt>
<trkpt lat="40.072842" lon="-105.230575">
  <ele>1586.09</ele>
  <time>2026-08-28T19:13:08Z</time>
  <course>282.92</course>
  <speed>0.0</speed>
  <fix>3d</fix>
</trkpt>
<trkpt lat="40.072842" lon="-105.230575">
  <ele>1586.16</ele>
  <time>2026-08-28T19:13:08Z</time>
  <course>11.32</course>
  <speed>0.0</speed>
  <fix>3d</fix>
</trkpt>
<trkpt lat="40.072842" lon="-105.230575">
  <ele>1586.09</ele>
  <time>2026-08-28T19:13:08Z</time>
  <course>286.04</course>
  <speed>0.0</speed>
  <fix>3d</fix>
</trkpt>
<trkpt lat="40.072842" lon="-105.230575">
  <ele>1586.16</ele>
  <time>2026-08-28T19:13:08Z</time>
  <course>11.31</course>
  <speed>0.0</speed>
  <fix>3d</fix>
</trkpt>
<trkpt lat="40.072842" lon="-105.230575">
  <ele>1586.09</ele>
  <time>2026-08-28T19:13:08Z</time>
  <course>286.02</course>
  <speed>0.0</speed>
  <fix>3d</fix>
</trkpt>
<trkpt lat="40.072842" lon="-105.230575">
  <ele>1586.16</ele>
  <time>2026-08-28T19:13:08Z</time>
  <course>11.3</course>
  <speed>0.0</speed>
  <fix>3d</fix>
</trkpt>
<trkpt lat="40.072842" lon="-105.230575">
  <ele>1586.09</ele>
  <time>2026-08-28T19:13:08Z</time>
  <course>285.5</course>
  <speed>0.0</speed>
  <fix>3d</fix>
</trkpt>
<trkpt lat="40.072842" lon="-105.230575">
  <ele>1586.16</ele>
  <time>2026-08-28T19:13:08Z</time>
  <course>11.28</course>
  <speed>0.0</speed>
  <fix>3d</fix>
</trkpt>
<trkpt lat="40.072842" lon="-105.230575">
  <ele>1586.09</ele>
  <time>2026-08-28T19:13:08Z</time>
  <course>285.44</course>
  <speed>0.0</speed>
  <fix>3d</fix>
</trkpt>
<trkpt lat="40.072842" lon="-105.230575">
  <ele>1586.16</ele>
  <time>2026-08-28T19:13:08Z</time>
  <course>11.27</course>
  <speed>0.0</speed>
  <fix>3d</fix>
</trkpt>
<trkpt lat="40.072842" lon="-105.230575">
  <ele>1586.09</ele>
  <time>2026-08-28T19:13:08Z</time>
  <course>285.38</course>
  <speed>0.0</speed>
  <fix>3d</fix>
</trkpt>
<trkpt lat="40.072842" lon="-105.230575">
  <ele>1586.16</ele>
  <time>2026-08-28T19:13:08Z</time>
  <course>11.25</course>
  <speed>0.0</speed>
  <fix>3d</fix>
</trkpt>
<trkpt lat="40.072842" lon="-105.230575">
  <ele>1586.09</ele>
  <time>2026-08-28T19:13:08Z</time>
  <course>285.26</course>
  <speed>0.0</speed>
  <fix>3d</fix>
</trkpt>
<trkpt lat="40.072842" lon="-105.230575">
  <ele>1586.16</ele>
  <time>2026-08-28T19:13:08Z</time>
  <course>11.23</course>
  <speed>0.0</speed>
  <fix>3d</fix>
</trkpt>
<trkpt lat="40.072842" lon="-105.230575">
  <ele>1586.09</ele>
  <time>2026-08-28T19:13:08Z</time>
  <course>273.58</course>
  <speed>0.0</speed>
  <fix>3d</fix>
</trkpt>
<trkpt lat="40.072842" lon="-105.230575">
  <ele>1586.16</ele>
  <time>2026-08-28T19:13:08Z</time>
  <course>11.21</course>
  <speed>0.0</speed>
  <fix>3d</fix>
</trkpt>
<trkpt lat="40.072842" lon="-105.230575">
  <ele>1586.09</ele>
  <time>2026-08-28T19:13:08Z</time>
  <course>272.53</course>
  <speed>0.0</speed>
  <fix>3d</fix>
</trkpt>
<trkpt lat="40.072842" lon="-105.230575">
  <ele>1586.16</ele>
  <time>2026-08-28T19:13:08Z</time>
  <course>11.19</course>
  <speed>0.0</speed>
  <fix>3d</fix>
</trkpt>
<trkpt lat="40.072842" lon="-105.230575">
  <ele>1586.09</ele>
  <time>2026-08-28T19:13:08Z</time>
  <course>279.77</course>
  <speed>0.0</speed>
  <fix>3d</fix>
</trkpt>
<trkpt lat="40.072842" lon="-105.230575">
  <ele>1586.16</ele>
  <time>2026-08-28T19:13:08Z</time>
  <course>11.17</course>
  <speed>0.0</speed>
  <fix>3d</fix>
</trkpt>
<trkpt lat="40.072842" lon="-105.230575">
  <ele>1586.09</ele>
  <time>2026-08-28T19:13:08Z</time>
  <course>270.01</course>
  <speed>0.0</speed>
  <fix>3d</fix>
</trkpt>
<trkpt lat="40.072842" lon="-105.230575">
  <ele>1586.17</ele>
  <time>2026-08-28T19:13:08Z</time>
  <course>11.14</course>
  <speed>0.0</speed>
  <fix>3d</fix>
</trkpt>
<trkpt lat="40.072842" lon="-105.230575">
  <ele>1586.09</ele>
  <time>2026-08-28T19:13:08Z</time>
  <course>253.23</course>
  <speed>0.0</speed>
  <fix>3d</fix>
</trkpt>
<trkpt lat="40.072842" lon="-105.230575">
  <ele>1586.17</ele>
  <time>2026-08-28T19:13:08Z</time>
  <course>11.12</course>
  <speed>0.0</speed>
  <fix>3d</fix>
</trkpt>
<trkpt lat="40.072842" lon="-105.230575">
  <ele>1586.09</ele>
  <time>2026-08-28T19:13:08Z</time>
  <course>273.27</course>
  <speed>0.0</speed>
  <fix>3d</fix>
</trkpt>
<trkpt lat="40.072842" lon="-105.230575">
  <ele>1586.17</ele>
  <time>2026-08-28T19:13:08Z</time>
  <course>11.09</course>
  <speed>0.01</speed>
  <fix>3d</fix>
</trkpt>
<trkpt lat="40.072842" lon="-105.230575">
  <ele>1586.09</ele>
  <time>2026-08-28T19:13:08Z</time>
  <course>272.39</course>
  <speed>0.0</speed>
  <fix>3d</fix>
</trkpt>
<trkpt lat="40.072842" lon="-105.230575">
  <ele>1586.17</ele>
  <time>2026-08-28T19:13:08Z</time>
  <course>11.06</course>
  <speed>0.01</speed>
  <fix>3d</fix>
</trkpt>
<trkpt lat="40.072842" lon="-105.230575">
  <ele>1586.09</ele>
  <time>2026-08-28T19:13:08Z</time>
  <course>270.93</course>
  <speed>0.0</speed>
  <fix>3d</fix>
</trkpt>
<trkpt lat="40.072842" lon="-105.230575">
  <ele>1586.18</ele>
  <time>2026-08-28T19:13:08Z</time>
  <course>11.03</course>
  <speed>0.01</speed>
  <fix>3d</fix>
</trkpt>
<trkpt lat="40.072842" lon="-105.230575">
  <ele>1586.09</ele>
  <time>2026-08-28T19:13:08Z</time>
  <course>270.24</course>
  <speed>0.0</speed>
  <fix>3d</fix>
</trkpt>
<trkpt lat="40.072842" lon="-105.230575">
  <ele>1586.18</ele>
  <time>2026-08-28T19:13:08Z</time>
  <course>11.0</course>
  <speed>0.01</speed>
  <fix>3d</fix>
</trkpt>
<trkpt lat="40.072842" lon="-105.230575">
  <ele>1586.09</ele>
  <time>2026-08-28T19:13:08Z</time>
  <course>270.22</course>
  <speed>0.0</speed>
  <fix>3d</fix>
</trkpt>
<trkpt lat="40.072842" lon="-105.230575">
  <ele>1586.18</ele>
  <time>2026-08-28T19:13:08Z</time>
  <course>10.97</course>
  <speed>0.01</speed>
  <fix>3d</fix>
</trkpt>
<trkpt lat="40.072842" lon="-105.230575">
  <ele>1586.09</ele>
  <time>2026-08-28T19:13:08Z</time>
  <course>270.74</course>
  <speed>0.0</speed>
  <fix>3d</fix>
</trkpt>
<trkpt lat="40.072842" lon="-105.230575">
  <ele>1586.18</ele>
  <time>2026-08-28T19:13:08Z</time>
  <course>10.94</course>
  <speed>0.01414213562373095</speed>
  <fix>3d</fix>
</trkpt>
<trkpt lat="40.072842" lon="-105.230575">
  <ele>1586.09</ele>
  <time>2026-08-28T19:13:08Z</time>
  <course>270.02</course>
  <speed>0.0</speed>
  <fix>3d</fix>
</trkpt>
<trkpt lat="40.072842" lon="-105.230575">
  <ele>1586.18</ele>
  <time>2026-08-28T19:13:08Z</time>
  <course>10.9</course>
  <speed>0.01414213562373095</speed>
  <fix>3d</fix>
</trkpt>
<trkpt lat="40.072842" lon="-105.230575">
  <ele>1586.09</ele>
  <time>2026-08-28T19:13:08Z</time>
  <course>269.9</course>
  <speed>0.0</speed>
  <fix>3d</fix>
</trkpt>
<trkpt lat="40.072842" lon="-105.230575">
  <ele>1586.18</ele>
  <time>2026-08-28T19:13:08Z</time>
  <course>10.87</course>
  <speed>0.01414213562373095</speed>
  <fix>3d</fix>
</trkpt>
<trkpt lat="40.072842" lon="-105.230575">
  <ele>1586.09</ele>
  <time>2026-08-28T19:13:08Z</time>
  <course>270.17</course>
  <speed>0.0</speed>
  <fix>3d</fix>
</trkpt>
<trkpt lat="40.072842" lon="-105.230575">
  <ele>1586.18</ele>
  <time>2026-08-28T19:13:08Z</time>
  <course>10.83</course>
  <speed>0.01414213562373095</speed>
  <fix>3d</fix>
</trkpt>
<trkpt lat="40.072842" lon="-105.230575">
  <ele>1586.09</ele>
  <time>2026-08-28T19:13:08Z</time>
  <course>269.76</course>
  <speed>0.0</speed>
  <fix>3d</fix>
</trkpt>
<trkpt lat="40.072842" lon="-105.230575">
  <ele>1586.18</ele>
  <time>2026-08-28T19:13:08Z</time>
  <course>10.79</course>
  <speed>0.01414213562373095</speed>
  <fix>3d</fix>
</trkpt>
<trkpt lat="40.072842" lon="-105.230575">
  <ele>1586.09</ele>
  <time>2026-08-28T19:13:08Z</time>
  <course>269.67</course>
  <speed>0.0</speed>
  <fix>3d</fix>
</trkpt>
<trkpt lat="40.072842" lon="-105.230575">
  <ele>1586.18</ele>
  <time>2026-08-28T19:13:08Z</time>
  <course>10.75</course>
  <speed>0.01414213562373095</speed>
  <fix>3d</fix>
</trkpt>
<trkpt lat="40.072842" lon="-105.230575">
  <ele>1586.09</ele>
  <time>2026-08-28T19:13:08Z</time>
  <course>269.72</course>
  <speed>0.0</speed>
  <fix>3d</fix>
</trkpt>
<trkpt lat="40.0728419" lon="-105.230575">
  <ele>1586.17</ele>
  <time>2026-08-28T19:13:08Z</time>
  <course>10.71</course>
  <speed>0.01414213562373095</speed>
  <fix>3d</fix>
</trkpt>
<trkpt lat="40.072842" lon="-105.230575">
  <ele>1586.09</ele>
  <time>2026-08-28T19:13:08Z</time>
  <course>269.52</course>
  <speed>0.0</speed>
  <fix>3d</fix>
</trkpt>
<trkpt lat="40.0728419" lon="-105.230575">
  <ele>1586.17</ele>
  <time>2026-08-28T19:13:08Z</time>
  <course>10.67</course>
  <speed>0.022360679774997897</speed>
  <fix>3d</fix>
</trkpt>
<trkpt lat="40.072842" lon="-105.230575">
  <ele>1586.09</ele>
  <time>2026-08-28T19:13:08Z</time>
  <course>269.46</course>
  <speed>0.0</speed>
  <fix>3d</fix>
</trkpt>
<trkpt lat="40.0728419" lon="-105.2305749">
  <ele>1586.17</ele>
  <time>2026-08-28T19:13:08Z</time>
  <course>10.63</course>
  <speed>0.022360679774997897</speed>
  <fix>3d</fix>
</trkpt>
<trkpt lat="40.072842" lon="-105.230575">
  <ele>1586.09</ele>
  <time>2026-08-28T19:13:08Z</time>
  <course>269.33</course>
  <speed>0.0</speed>
  <fix>3d</fix>
</trkpt>
<trkpt lat="40.0728419" lon="-105.2305749">
  <ele>1586.17</ele>
  <time>2026-08-28T19:13:08Z</time>
  <course>10.58</course>
  <speed>0.022360679774997897</speed>
  <fix>3d</fix>
</trkpt>
<trkpt lat="40.072842" lon="-105.230575">
  <ele>1586.09</ele>
  <time>2026-08-28T19:13:08Z</time>
  <course>269.41</course>
  <speed>0.0</speed>
  <fix>3d</fix>
</trkpt>
<trkpt lat="40.0728419" lon="-105.2305749">
  <ele>1586.17</ele>
  <time>2026-08-28T19:13:08Z</time>
  <course>10.54</course>
  <speed>0.022360679774997897</speed>
  <fix>3d</fix>
</trkpt>
<trkpt lat="40.072842" lon="-105.230575">
  <ele>1586.09</ele>
  <time>2026-08-28T19:13:08Z</time>
  <course>272.27</course>
  <speed>0.0</speed>
  <fix>3d</fix>
</trkpt>
<trkpt lat="40.0728419" lon="-105.2305749">
  <ele>1586.17</ele>
  <time>2026-08-28T19:13:08Z</time>
  <course>10.5</course>
  <speed>0.022360679774997897</speed>
  <fix>3d</fix>
</trkpt>
<trkpt lat="40.072842" lon="-105.230575">
  <ele>1586.09</ele>
  <time>2026-08-28T19:13:08Z</time>
  <course>269.55</course>
  <speed>0.0</speed>
  <fix>3d</fix>
</trkpt>
<trkpt lat="40.0728419" lon="-105.2305749">
  <ele>1586.17</ele>
  <time>2026-08-28T19:13:08Z</time>
  <course>10.45</course>
  <speed>0.022360679774997897</speed>
  <fix>3d</fix>
</trkpt>
<trkpt lat="40.072842" lon="-105.230575">
  <ele>1586.09</ele>
  <time>2026-08-28T19:13:08Z</time>
  <course>264.48</course>
  <speed>0.0</speed>
  <fix>3d</fix>
</trkpt>
<trkpt lat="40.0728419" lon="-105.2305749">
  <ele>1586.18</ele>
  <time>2026-08-28T19:13:08Z</time>
  <course>10.4</course>
  <speed>0.022360679774997897</speed>
  <fix>3d</fix>
</trkpt>
<trkpt lat="40.072842" lon="-105.230575">
  <ele>1586.09</ele>
  <time>2026-08-28T19:13:08Z</time>
  <course>265.86</course>
  <speed>0.0</speed>
  <fix>3d</fix>
</trkpt>
<trkpt lat="40.0728419" lon="-105.2305749">
  <ele>1586.18</ele>
  <time>2026-08-28T19:13:08Z</time>
  <course>10.35</course>
  <speed>0.022360679774997897</speed>
  <fix>3d</fix>
</trkpt>
<trkpt lat="40.072842" lon="-105.230575">
  <ele>1586.09</ele>
  <time>2026-08-28T19:13:08Z</time>
  <course>267.65</course>
  <speed>0.0</speed>
  <fix>3d</fix>
</trkpt>
<trkpt lat="40.0728419" lon="-105.2305749">
  <ele>1586.18</ele>
  <time>2026-08-28T19:13:08Z</time>
  <course>10.3</course>
  <speed>0.022360679774997897</speed>
  <fix>3d</fix>
</trkpt>
<trkpt lat="40.072842" lon="-105.230575">
  <ele>1586.09</ele>
  <time>2026-08-28T19:13:08Z</time>
  <course>269.55</course>
  <speed>0.0</speed>
  <fix>3d</fix>
</trkpt>
<trkpt lat="40.0728419" lon="-105.2305749">
  <ele>1586.18</ele>
  <time>2026-08-28T19:13:08Z</time>
  <course>10.25</course>
  <speed>0.022360679774997897</speed>
  <fix>3d</fix>
</trkpt>
<trkpt lat="40.072842" lon="-105.230575">
  <ele>1586.09</ele>
  <time>2026-08-28T19:13:08Z</time>
  <course>268.71</course>
  <speed>0.0</speed>
  <fix>3d</fix>
</trkpt>
<trkpt lat="40.0728419" lon="-105.2305749">
  <ele>1586.18</ele>
  <time>2026-08-28T19:13:08Z</time>
  <course>10.2</course>
  <speed>0.022360679774997897</speed>
  <fix>3d</fix>
</trkpt>
<trkpt lat="40.072842" lon="-105.230575">
  <ele>1586.09</ele>
  <time>2026-08-28T19:13:08Z</time>
  <course>268.48</course>
  <speed>0.0</speed>
  <fix>3d</fix>
</trkpt>
<trkpt lat="40.0728419" lon="-105.2305749">
  <ele>1586.18</ele>
  <time>2026-08-28T19:13:08Z</time>
  <course>10.15</course>
  <speed>0.022360679774997897</speed>
  <fix>3d</fix>
</trkpt>
<trkpt lat="40.072842" lon="-105.230575">
  <ele>1586.09</ele>
  <time>2026-08-28T19:13:08Z</time>
  <course>268.55</course>
  <speed>0.0</speed>
  <fix>3d</fix>
</trkpt>
<trkpt lat="40.0728419" lon="-105.2305749">
  <ele>1586.18</ele>
  <time>2026-08-28T19:13:08Z</time>
  <course>10.1</course>
  <speed>0.022360679774997897</speed>
  <fix>3d</fix>
</trkpt>
<trkpt lat="40.072842" lon="-105.230575">
  <ele>1586.09</ele>
  <time>2026-08-28T19:13:08Z</time>
  <course>268.45</course>
  <speed>0.0</speed>
  <fix>3d</fix>
</trkpt>
<trkpt lat="40.0728419" lon="-105.2305749">
  <ele>1586.18</ele>
  <time>2026-08-28T19:13:08Z</time>
  <course>10.05</course>
  <speed>0.022360679774997897</speed>
  <fix>3d</fix>
</trkpt>
<trkpt lat="40.072842" lon="-105.230575">
  <ele>1586.09</ele>
  <time>2026-08-28T19:13:08Z</time>
  <course>268.25</course>
  <speed>0.0</speed>
  <fix>3d</fix>
</trkpt>
<trkpt lat="40.0728419" lon="-105.2305749">
  <ele>1586.18</ele>
  <time>2026-08-28T19:13:08Z</time>
  <course>10.0</course>
  <speed>0.022360679774997897</speed>
  <fix>3d</fix>
</trkpt>
<trkpt lat="40.072842" lon="-105.230575">
  <ele>1586.09</ele>
  <time>2026-08-28T19:13:08Z</time>
  <course>268.14</course>
  <speed>0.0</speed>
  <fix>3d</fix>
</trkpt>
<trkpt lat="40.0728419" lon="-105.2305749">
  <ele>1586.18</ele>
  <time>2026-08-28T19:13:08Z</time>
  <course>9.95</course>
  <speed>0.022360679774997897</speed>
  <fix>3d</fix>
</trkpt>
<trkpt lat="40.072842" lon="-105.230575">
  <ele>1586.09</ele>
  <time>2026-08-28T19:13:08Z</time>
  <course>268.13</course>
  <speed>0.0</speed>
  <fix>3d</fix>
</trkpt>
<trkpt lat="40.0728419" lon="-105.2305749">
  <ele>1586.18</ele>
  <time>2026-08-28T19:13:08Z</time>
  <course>9.9</course>
  <speed>0.022360679774997897</speed>
  <fix>3d</fix>
</trkpt>
<trkpt lat="40.072842" lon="-105.230575">
  <ele>1586.09</ele>
  <time>2026-08-28T19:13:08Z</time>
  <course>268.04</course>
  <speed>0.0</speed>
  <fix>3d</fix>
</trkpt>
<trkpt lat="40.0728419" lon="-105.2305749">
  <ele>1586.18</ele>
  <time>2026-08-28T19:13:08Z</time>
  <course>9.85</course>
  <speed>0.022360679774997897</speed>
  <fix>3d</fix>
</trkpt>
<trkpt lat="40.072842" lon="-105.230575">
  <ele>1586.09</ele>
  <time>2026-08-28T19:13:08Z</time>
  <course>267.99</course>
  <speed>0.0</speed>
  <fix>3d</fix>
</trkpt>
<trkpt lat="40.0728419" lon="-105.2305749">
  <ele>1586.18</ele>
  <time>2026-08-28T19:13:08Z</time>
  <course>9.81</course>
  <speed>0.022360679774997897</speed>
  <fix>3d</fix>
</trkpt>
<trkpt lat="40.072842" lon="-105.230575">
  <ele>1586.09</ele>
  <time>2026-08-28T19:13:08Z</time>
  <course>267.92</course>
  <speed>0.0</speed>
  <fix>3d</fix>
</trkpt>
<trkpt lat="40.0728419" lon="-105.2305749">
  <ele>1586.18</ele>
  <time>2026-08-28T19:13:08Z</time>
  <course>9.76</course>
  <speed>0.022360679774997897</speed>
  <fix>3d</fix>
</trkpt>
<trkpt lat="40.072842" lon="-105.230575">
  <ele>1586.09</ele>
  <time>2026-08-28T19:13:08Z</time>
  <course>267.8</course>
  <speed>0.0</speed>
  <fix>3d</fix>
</trkpt>
<trkpt lat="40.0728419" lon="-105.2305749">
  <ele>1586.18</ele>
  <time>2026-08-28T19:13:08Z</time>
  <course>9.71</course>
  <speed>0.022360679774997897</speed>
  <fix>3d</fix>
</trkpt>
<trkpt lat="40.072842" lon="-105.230575">
  <ele>1586.09</ele>
  <time>2026-08-28T19:13:08Z</time>
  <course>267.77</course>
  <speed>0.0</speed>
  <fix>3d</fix>
</trkpt>
<trkpt lat="40.0728419" lon="-105.2305749">
  <ele>1586.18</ele>
  <time>2026-08-28T19:13:08Z</time>
  <course>9.67</course>
  <speed>0.022360679774997897</speed>
  <fix>3d</fix>
</trkpt>
<trkpt lat="40.072842" lon="-105.230575">
  <ele>1586.09</ele>
  <time>2026-08-28T19:13:08Z</time>
  <course>267.71</course>
  <speed>0.0</speed>
  <fix>3d</fix>
</trkpt>
<trkpt lat="40.0728419" lon="-105.2305749">
  <ele>1586.18</ele>
  <time>2026-08-28T19:13:08Z</time>
  <course>9.62</course>
  <speed>0.022360679774997897</speed>
  <fix>3d</fix>
</trkpt>
<trkpt lat="40.072842" lon="-105.230575">
  <ele>1586.09</ele>
  <time>2026-08-28T19:13:08Z</time>
  <course>267.65</course>
  <speed>0.0</speed>
  <fix>3d</fix>
</trkpt>
<trkpt lat="40.0728419" lon="-105.2305749">
  <ele>1586.18</ele>
  <time>2026-08-28T19:13:08Z</time>
  <course>9.58</course>
  <speed>0.022360679774997897</speed>
  <fix>3d</fix>
</trkpt>
<trkpt lat="40.072842" lon="-105.230575">
  <ele>1586.09</ele>
  <time>2026-08-28T19:13:08Z</time>
  <course>267.48</course>
  <speed>0.0</speed>
  <fix>3d</fix>
</trkpt>
<trkpt lat="40.0728419" lon="-105.2305749">
  <ele>1586.18</ele>
  <time>2026-08-28T19:13:08Z</time>
  <course>9.53</course>
  <speed>0.022360679774997897</speed>
  <fix>3d</fix>
</trkpt>
<trkpt lat="40.072842" lon="-105.230575">
  <ele>1586.09</ele>
  <time>2026-08-28T19:13:08Z</time>
  <course>267.46</course>
  <speed>0.0</speed>
  <fix>3d</fix>
</trkpt>
<trkpt lat="40.0728419" lon="-105.2305749">
  <ele>1586.18</ele>
  <time>2026-08-28T19:13:08Z</time>
  <course>9.49</course>
  <speed>0.022360679774997897</speed>
  <fix>3d</fix>
</trkpt>
<trkpt lat="40.072842" lon="-105.230575">
  <ele>1586.09</ele>
  <time>2026-08-28T19:13:08Z</time>
  <course>267.32</course>
  <speed>0.0</speed>
  <fix>3d</fix>
</trkpt>
<trkpt lat="40.0728419" lon="-105.2305749">
  <ele>1586.18</ele>
  <time>2026-08-28T19:13:08Z</time>
  <course>9.44</course>
  <speed>0.022360679774997897</speed>
  <fix>3d</fix>
</trkpt>
<trkpt lat="40.072842" lon="-105.230575">
  <ele>1586.09</ele>
  <time>2026-08-28T19:13:08Z</time>
  <course>267.37</course>
  <speed>0.0</speed>
  <fix>3d</fix>
</trkpt>
<trkpt lat="40.0728419" lon="-105.2305749">
  <ele>1586.18</ele>
  <time>2026-08-28T19:13:08Z</time>
  <course>9.4</course>
  <speed>0.022360679774997897</speed>
  <fix>3d</fix>
</trkpt>
<trkpt lat="40.072842" lon="-105.230575">
  <ele>1586.09</ele>
  <time>2026-08-28T19:13:08Z</time>
  <course>267.4</course>
  <speed>0.0</speed>
  <fix>3d</fix>
</trkpt>
<trkpt lat="40.0728419" lon="-105.2305749">
  <ele>1586.17</ele>
  <time>2026-08-28T19:13:08Z</time>
  <course>9.36</course>
  <speed>0.022360679774997897</speed>
  <fix>3d</fix>
</trkpt>
<trkpt lat="40.072842" lon="-105.230575">
  <ele>1586.09</ele>
  <time>2026-08-28T19:13:08Z</time>
  <course>263.2</course>
  <speed>0.0</speed>
  <fix>3d</fix>
</trkpt>
<trkpt lat="40.0728419" lon="-105.2305749">
  <ele>1586.17</ele>
  <time>2026-08-28T19:13:08Z</time>
  <course>9.32</course>
  <speed>0.022360679774997897</speed>
  <fix>3d</fix>
</trkpt>
<trkpt lat="40.072842" lon="-105.230575">
  <ele>1586.09</ele>
  <time>2026-08-28T19:13:08Z</time>
  <course>266.75</course>
  <speed>0.0</speed>
  <fix>3d</fix>
</trkpt>
<trkpt lat="40.0728419" lon="-105.2305749">
  <ele>1586.17</ele>
  <time>2026-08-28T19:13:08Z</time>
  <course>9.28</course>
  <speed>0.022360679774997897</speed>
  <fix>3d</fix>
</trkpt>
<trkpt lat="40.072842" lon="-105.230575">
  <ele>1586.09</ele>
  <time>2026-08-28T19:13:08Z</time>
  <course>272.03</course>
  <speed>0.0</speed>
  <fix>3d</fix>
</trkpt>
<trkpt lat="40.0728419" lon="-105.2305749">
  <ele>1586.17</ele>
  <time>2026-08-28T19:13:08Z</time>
  <course>9.23</course>
  <speed>0.022360679774997897</speed>
  <fix>3d</fix>
</trkpt>
<trkpt lat="40.072842" lon="-105.230575">
  <ele>1586.09</ele>
  <time>2026-08-28T19:13:08Z</time>
  <course>267.19</course>
  <speed>0.0</speed>
  <fix>3d</fix>
</trkpt>
<trkpt lat="40.0728419" lon="-105.2305749">
  <ele>1586.17</ele>
  <time>2026-08-28T19:13:08Z</time>
  <course>9.19</course>
  <speed>0.022360679774997897</speed>
  <fix>3d</fix>
</trkpt>
<trkpt lat="40.072842" lon="-105.230575">
  <ele>1586.09</ele>
  <time>2026-08-28T19:13:08Z</time>
  <course>266.49</course>
  <speed>0.0</speed>
  <fix>3d</fix>
</trkpt>
<trkpt lat="40.0728419" lon="-105.2305749">
  <ele>1586.18</ele>
  <time>2026-08-28T19:13:08Z</time>
  <course>9.15</course>
  <speed>0.022360679774997897</speed>
  <fix>3d</fix>
</trkpt>
<trkpt lat="40.072842" lon="-105.230575">
  <ele>1586.09</ele>
  <time>2026-08-28T19:13:08Z</time>
  <course>267.21</course>
  <speed>0.0</speed>
  <fix>3d</fix>
</trkpt>
<trkpt lat="40.0728419" lon="-105.2305749">
  <ele>1586.18</ele>
  <time>2026-08-28T19:13:08Z</time>
  <course>9.11</course>
  <speed>0.022360679774997897</speed>
  <fix>3d</fix>
</trkpt>
<trkpt lat="40.072842" lon="-105.230575">
  <ele>1586.09</ele>
  <time>2026-08-28T19:13:08Z</time>
  <course>267.26</course>
  <speed>0.0</speed>
  <fix>3d</fix>
</trkpt>
<trkpt lat="40.0728419" lon="-105.2305749">
  <ele>1586.18</ele>
  <time>2026-08-28T19:13:08Z</time>
  <course>9.08</course>
  <speed>0.022360679774997897</speed>
  <fix>3d</fix>
</trkpt>
<trkpt lat="40.072842" lon="-105.230575">
  <ele>1586.09</ele>
  <time>2026-08-28T19:13:08Z</time>
  <course>267.01</course>
  <speed>0.0</speed>
  <fix>3d</fix>
</trkpt>
<trkpt lat="40.0728419" lon="-105.2305749">
  <ele>1586.18</ele>
  <time>2026-08-28T19:13:08Z</time>
  <course>9.04</course>
  <speed>0.022360679774997897</speed>
  <fix>3d</fix>
</trkpt>
<trkpt lat="40.072842" lon="-105.230575">
  <ele>1586.09</ele>
  <time>2026-08-28T19:13:08Z</time>
  <course>267.18</course>
  <speed>0.0</speed>
  <fix>3d</fix>
</trkpt>
<trkpt lat="40.0728419" lon="-105.2305749">
  <ele>1586.18</ele>
  <time>2026-08-28T19:13:08Z</time>
  <course>9.0</course>
  <speed>0.022360679774997897</speed>
  <fix>3d</fix>
</trkpt>
<trkpt lat="40.072842" lon="-105.230575">
  <ele>1586.09</ele>
  <time>2026-08-28T19:13:08Z</time>
  <course>266.71</course>
  <speed>0.0</speed>
  <fix>3d</fix>
</trkpt>
<trkpt lat="40.0728419" lon="-105.2305749">
  <ele>1586.18</ele>
  <time>2026-08-28T19:13:08Z</time>
  <course>8.96</course>
  <speed>0.022360679774997897</speed>
  <fix>3d</fix>
</trkpt>
<trkpt lat="40.072842" lon="-105.230575">
  <ele>1586.09</ele>
  <time>2026-08-28T19:13:08Z</time>
  <course>266.95</course>
  <speed>0.0</speed>
  <fix>3d</fix>
</trkpt>
<trkpt lat="40.0728419" lon="-105.2305749">
  <ele>1586.18</ele>
  <time>2026-08-28T19:13:08Z</time>
  <course>8.92</course>
  <speed>0.022360679774997897</speed>
  <fix>3d</fix>
</trkpt>
<trkpt lat="40.072842" lon="-105.230575">
  <ele>1586.09</ele>
  <time>2026-08-28T19:13:08Z</time>
  <course>267.02</course>
  <speed>0.0</speed>
  <fix>3d</fix>
</trkpt>
<trkpt lat="40.0728419" lon="-105.2305749">
  <ele>1586.19</ele>
  <time>2026-08-28T19:13:08Z</time>
  <course>8.89</course>
  <speed>0.022360679774997897</speed>
  <fix>3d</fix>
</trkpt>
<trkpt lat="40.072842" lon="-105.230575">
  <ele>1586.09</ele>
  <time>2026-08-28T19:13:08Z</time>
  <course>265.96</course>
  <speed>0.0</speed>
  <fix>3d</fix>
</trkpt>
<trkpt lat="40.0728419" lon="-105.2305749">
  <ele>1586.19</ele>
  <time>2026-08-28T19:13:08Z</time>
  <course>8.85</course>
  <speed>0.022360679774997897</speed>
  <fix>3d</fix>
</trkpt>
<trkpt lat="40.072842" lon="-105.230575">
  <ele>1586.09</ele>
  <time>2026-08-28T19:13:08Z</time>
  <course>266.82</course>
  <speed>0.0</speed>
  <fix>3d</fix>
</trkpt>
<trkpt lat="40.0728419" lon="-105.2305749">
  <ele>1586.19</ele>
  <time>2026-08-28T19:13:08Z</time>
  <course>8.81</course>
  <speed>0.022360679774997897</speed>
  <fix>3d</fix>
</trkpt>
<trkpt lat="40.072842" lon="-105.230575">
  <ele>1586.09</ele>
  <time>2026-08-28T19:13:08Z</time>
  <course>266.84</course>
  <speed>0.0</speed>
  <fix>3d</fix>
</trkpt>
<trkpt lat="40.0728419" lon="-105.2305749">
  <ele>1586.19</ele>
  <time>2026-08-28T19:13:08Z</time>
  <course>8.78</course>
  <speed>0.022360679774997897</speed>
  <fix>3d</fix>
</trkpt>
<trkpt lat="40.072842" lon="-105.230575">
  <ele>1586.09</ele>
  <time>2026-08-28T19:13:08Z</time>
  <course>266.73</course>
  <speed>0.0</speed>
  <fix>3d</fix>
</trkpt>
<trkpt lat="40.0728419" lon="-105.2305749">
  <ele>1586.19</ele>
  <time>2026-08-28T19:13:08Z</time>
  <course>8.74</course>
  <speed>0.022360679774997897</speed>
  <fix>3d</fix>
</trkpt>
<trkpt lat="40.072842" lon="-105.230575">
  <ele>1586.09</ele>
  <time>2026-08-28T19:13:08Z</time>
  <course>266.94</course>
  <speed>0.0</speed>
  <fix>3d</fix>
</trkpt>
<trkpt lat="40.0728419" lon="-105.2305749">
  <ele>1586.19</ele>
  <time>2026-08-28T19:13:08Z</time>
  <course>8.71</course>
  <speed>0.022360679774997897</speed>
  <fix>3d</fix>
</trkpt>
<trkpt lat="40.072842" lon="-105.230575">
  <ele>1586.09</ele>
  <time>2026-08-28T19:13:08Z</time>
  <course>266.48</course>
  <speed>0.0</speed>
  <fix>3d</fix>
</trkpt>
<trkpt lat="40.0728419" lon="-105.2305749">
  <ele>1586.18</ele>
  <time>2026-08-28T19:13:08Z</time>
  <course>8.67</course>
  <speed>0.022360679774997897</speed>
  <fix>3d</fix>
</trkpt>
<trkpt lat="40.072842" lon="-105.230575">
  <ele>1586.09</ele>
  <time>2026-08-28T19:13:08Z</time>
  <course>266.74</course>
  <speed>0.0</speed>
  <fix>3d</fix>
</trkpt>
<trkpt lat="40.0728419" lon="-105.2305749">
  <ele>1586.18</ele>
  <time>2026-08-28T19:13:08Z</time>
  <course>8.64</course>
  <speed>0.01414213562373095</speed>
  <fix>3d</fix>
</trkpt>
<trkpt lat="40.072842" lon="-105.230575">
  <ele>1586.09</ele>
  <time>2026-08-28T19:13:08Z</time>
  <course>266.86</course>
  <speed>0.0</speed>
  <fix>3d</fix>
</trkpt>
<trkpt lat="40.0728419" lon="-105.2305749">
  <ele>1586.18</ele>
  <time>2026-08-28T19:13:08Z</time>
  <course>8.61</course>
  <speed>0.01414213562373095</speed>
  <fix>3d</fix>
</trkpt>
<trkpt lat="40.072842" lon="-105.230575">
  <ele>1586.09</ele>
  <time>2026-08-28T19:13:08Z</time>
  <course>266.14</course>
  <speed>0.0</speed>
  <fix>3d</fix>
</trkpt>
<trkpt lat="40.0728419" lon="-105.2305749">
  <ele>1586.18</ele>
  <time>2026-08-28T19:13:08Z</time>
  <course>8.57</course>
  <speed>0.01414213562373095</speed>
  <fix>3d</fix>
</trkpt>
<trkpt lat="40.072842" lon="-105.230575">
  <ele>1586.09</ele>
  <time>2026-08-28T19:13:08Z</time>
  <course>266.67</course>
  <speed>0.0</speed>
  <fix>3d</fix>
</trkpt>
<trkpt lat="40.0728419" lon="-105.2305749">
  <ele>1586.18</ele>
  <time>2026-08-28T19:13:08Z</time>
  <course>8.54</course>
  <speed>0.01414213562373095</speed>
  <fix>3d</fix>
</trkpt>
<trkpt lat="40.072842" lon="-105.230575">
  <ele>1586.09</ele>
  <time>2026-08-28T19:13:08Z</time>
  <course>266.76</course>
  <speed>0.0</speed>
  <fix>3d</fix>
</trkpt>
<trkpt lat="40.0728419" lon="-105.2305749">
  <ele>1586.18</ele>
  <time>2026-08-28T19:13:08Z</time>
  <course>8.51</course>
  <speed>0.01414213562373095</speed>
  <fix>3d</fix>
</trkpt>
<trkpt lat="40.072842" lon="-105.230575">
  <ele>1586.09</ele>
  <time>2026-08-28T19:13:08Z</time>
  <course>265.95</course>
  <speed>0.0</speed>
  <fix>3d</fix>
</trkpt>
<trkpt lat="40.0728419" lon="-105.2305749">
  <ele>1586.18</ele>
  <time>2026-08-28T19:13:08Z</time>
  <course>8.48</course>
  <speed>0.01414213562373095</speed>
  <fix>3d</fix>
</trkpt>
<trkpt lat="40.072842" lon="-105.230575">
  <ele>1586.09</ele>
  <time>2026-08-28T19:13:08Z</time>
  <course>266.6</course>
  <speed>0.0</speed>
  <fix>3d</fix>
</trkpt>
<trkpt lat="40.0728419" lon="-105.2305749">
  <ele>1586.18</ele>
  <time>2026-08-28T19:13:08Z</time>
  <course>8.44</course>
  <speed>0.01414213562373095</speed>
  <fix>3d</fix>
</trkpt>
<trkpt lat="40.072842" lon="-105.230575">
  <ele>1586.09</ele>
  <time>2026-08-28T19:13:08Z</time>
  <course>266.72</course>
  <speed>0.0</speed>
  <fix>3d</fix>
</trkpt>
<trkpt lat="40.0728419" lon="-105.2305749">
  <ele>1586.19</ele>
  <time>2026-08-28T19:13:08Z</time>
  <course>8.41</course>
  <speed>0.01414213562373095</speed>
  <fix>3d</fix>
</trkpt>
<trkpt lat="40.072842" lon="-105.230575">
  <ele>1586.09</ele>
  <time>2026-08-28T19:13:08Z</time>
  <course>266.11</course>
  <speed>0.0</speed>
  <fix>3d</fix>
</trkpt>
<trkpt lat="40.0728419" lon="-105.2305749">
  <ele>1586.19</ele>
  <time>2026-08-28T19:13:08Z</time>
  <course>8.38</course>
  <speed>0.01414213562373095</speed>
  <fix>3d</fix>
</trkpt>
<trkpt lat="40.072842" lon="-105.230575">
  <ele>1586.09</ele>
  <time>2026-08-28T19:13:08Z</time>
  <course>266.5</course>
  <speed>0.0</speed>
  <fix>3d</fix>
</trkpt>
<trkpt lat="40.0728419" lon="-105.2305749">
  <ele>1586.19</ele>
  <time>2026-08-28T19:13:08Z</time>
  <course>8.35</course>
  <speed>0.01414213562373095</speed>
  <fix>3d</fix>
</trkpt>
<trkpt lat="40.072842" lon="-105.230575">
  <ele>1586.09</ele>
  <time>2026-08-28T19:13:08Z</time>
  <course>266.65</course>
  <speed>0.0</speed>
  <fix>3d</fix>
</trkpt>
<trkpt lat="40.0728419" lon="-105.2305749">
  <ele>1586.19</ele>
  <time>2026-08-28T19:13:08Z</time>
  <course>8.32</course>
  <speed>0.01414213562373095</speed>
  <fix>3d</fix>
</trkpt>
<trkpt lat="40.072842" lon="-105.230575">
  <ele>1586.09</ele>
  <time>2026-08-28T19:13:08Z</time>
  <course>266.12</course>
  <speed>0.0</speed>
  <fix>3d</fix>
</trkpt>
<trkpt lat="40.0728419" lon="-105.2305749">
  <ele>1586.19</ele>
  <time>2026-08-28T19:13:08Z</time>
  <course>8.29</course>
  <speed>0.01414213562373095</speed>
  <fix>3d</fix>
</trkpt>
<trkpt lat="40.072842" lon="-105.230575">
  <ele>1586.09</ele>
  <time>2026-08-28T19:13:08Z</time>
  <course>266.31</course>
  <speed>0.0</speed>
  <fix>3d</fix>
</trkpt>
<trkpt lat="40.0728419" lon="-105.2305749">
  <ele>1586.19</ele>
  <time>2026-08-28T19:13:08Z</time>
  <course>8.26</course>
  <speed>0.01414213562373095</speed>
  <fix>3d</fix>
</trkpt>
<trkpt lat="40.072842" lon="-105.230575">
  <ele>1586.09</ele>
  <time>2026-08-28T19:13:08Z</time>
  <course>266.56</course>
  <speed>0.0</speed>
  <fix>3d</fix>
</trkpt>
<trkpt lat="40.0728419" lon="-105.2305749">
  <ele>1586.19</ele>
  <time>2026-08-28T19:13:08Z</time>
  <course>8.23</course>
  <speed>0.01414213562373095</speed>
  <fix>3d</fix>
</trkpt>
<trkpt lat="40.072842" lon="-105.230575">
  <ele>1586.09</ele>
  <time>2026-08-28T19:13:08Z</time>
  <course>266.26</course>
  <speed>0.0</speed>
  <fix>3d</fix>
</trkpt>
<trkpt lat="40.0728419" lon="-105.2305749">
  <ele>1586.19</ele>
  <time>2026-08-28T19:13:08Z</time>
  <course>8.2</course>
  <speed>0.01414213562373095</speed>
  <fix>3d</fix>
</trkpt>
<trkpt lat="40.072842" lon="-105.230575">
  <ele>1586.09</ele>
  <time>2026-08-28T19:13:08Z</time>
  <course>265.6</course>
  <speed>0.0</speed>
  <fix>3d</fix>
</trkpt>
<trkpt lat="40.0728419" lon="-105.2305749">
  <ele>1586.19</ele>
  <time>2026-08-28T19:13:08Z</time>
  <course>8.18</course>
  <speed>0.01414213562373095</speed>
  <fix>3d</fix>
</trkpt>
<trkpt lat="40.072842" lon="-105.230575">
  <ele>1586.09</ele>
  <time>2026-08-28T19:13:08Z</time>
  <course>266.38</course>
  <speed>0.0</speed>
  <fix>3d</fix>
</trkpt>
<trkpt lat="40.0728419" lon="-105.2305749">
  <ele>1586.19</ele>
  <time>2026-08-28T19:13:08Z</time>
  <course>8.15</course>
  <speed>0.01414213562373095</speed>
  <fix>3d</fix>
</trkpt>
<trkpt lat="40.072842" lon="-105.230575">
  <ele>1586.09</ele>
  <time>2026-08-28T19:13:08Z</time>
  <course>266.38</course>
  <speed>0.0</speed>
  <fix>3d</fix>
</trkpt>
<trkpt lat="40.0728419" lon="-105.2305749">
  <ele>1586.19</ele>
  <time>2026-08-28T19:13:08Z</time>
  <course>8.12</course>
  <speed>0.01414213562373095</speed>
  <fix>3d</fix>
</trkpt>
<trkpt lat="40.072842" lon="-105.230575">
  <ele>1586.09</ele>
  <time>2026-08-28T19:13:08Z</time>
  <course>265.66</course>
  <speed>0.0</speed>
  <fix>3d</fix>
</trkpt>
<trkpt lat="40.0728419" lon="-105.2305749">
  <ele>1586.19</ele>
  <time>2026-08-28T19:13:08Z</time>
  <course>8.09</course>
  <speed>0.01414213562373095</speed>
  <fix>3d</fix>
</trkpt>
<trkpt lat="40.072842" lon="-105.230575">
  <ele>1586.09</ele>
  <time>2026-08-28T19:13:08Z</time>
  <course>266.11</course>
  <speed>0.0</speed>
  <fix>3d</fix>
</trkpt>
<trkpt lat="40.0728419" lon="-105.2305749">
  <ele>1586.18</ele>
  <time>2026-08-28T19:13:08Z</time>
  <course>8.07</course>
  <speed>0.01414213562373095</speed>
  <fix>3d</fix>
</trkpt>
<trkpt lat="40.072842" lon="-105.230575">
  <ele>1586.09</ele>
  <time>2026-08-28T19:13:08Z</time>
  <course>266.4</course>
  <speed>0.0</speed>
  <fix>3d</fix>
</trkpt>
<trkpt lat="40.0728419" lon="-105.2305749">
  <ele>1586.18</ele>
  <time>2026-08-28T19:13:08Z</time>
  <course>8.04</course>
  <speed>0.01414213562373095</speed>
  <fix>3d</fix>
</trkpt>
<trkpt lat="40.072842" lon="-105.230575">
  <ele>1586.09</ele>
  <time>2026-08-28T19:13:08Z</time>
  <course>266.21</course>
  <speed>0.0</speed>
  <fix>3d</fix>
</trkpt>
<trkpt lat="40.0728419" lon="-105.2305749">
  <ele>1586.18</ele>
  <time>2026-08-28T19:13:08Z</time>
  <course>8.01</course>
  <speed>0.01414213562373095</speed>
  <fix>3d</fix>
</trkpt>
<trkpt lat="40.072842" lon="-105.230575">
  <ele>1586.09</ele>
  <time>2026-08-28T19:13:08Z</time>
  <course>265.6</course>
  <speed>0.0</speed>
  <fix>3d</fix>
</trkpt>
<trkpt lat="40.0728419" lon="-105.2305749">
  <ele>1586.18</ele>
  <time>2026-08-28T19:13:08Z</time>
  <course>7.99</course>
  <speed>0.01414213562373095</speed>
  <fix>3d</fix>
</trkpt>
<trkpt lat="40.072842" lon="-105.230575">
  <ele>1586.09</ele>
  <time>2026-08-28T19:13:08Z</time>
  <course>266.3</course>
  <speed>0.0</speed>
  <fix>3d</fix>
</trkpt>
<trkpt lat="40.0728419" lon="-105.2305749">
  <ele>1586.18</ele>
  <time>2026-08-28T19:13:08Z</time>
  <course>7.96</course>
  <speed>0.01414213562373095</speed>
  <fix>3d</fix>
</trkpt>
<trkpt lat="40.072842" lon="-105.230575">
  <ele>1586.09</ele>
  <time>2026-08-28T19:13:08Z</time>
  <course>266.37</course>
  <speed>0.0</speed>
  <fix>3d</fix>
</trkpt>
<trkpt lat="40.0728419" lon="-105.2305749">
  <ele>1586.18</ele>
  <time>2026-08-28T19:13:08Z</time>
  <course>7.94</course>
  <speed>0.01414213562373095</speed>
  <fix>3d</fix>
</trkpt>
<trkpt lat="40.072842" lon="-105.230575">
  <ele>1586.09</ele>
  <time>2026-08-28T19:13:08Z</time>
  <course>265.89</course>
  <speed>0.0</speed>
  <fix>3d</fix>
</trkpt>
<trkpt lat="40.0728419" lon="-105.2305749">
  <ele>1586.18</ele>
  <time>2026-08-28T19:13:08Z</time>
  <course>7.91</course>
  <speed>0.01414213562373095</speed>
  <fix>3d</fix>
</trkpt>
<trkpt lat="40.072842" lon="-105.230575">
  <ele>1586.09</ele>
  <time>2026-08-28T19:13:08Z</time>
  <course>265.63</course>
  <speed>0.0</speed>
  <fix>3d</fix>
</trkpt>
<trkpt lat="40.0728419" lon="-105.2305749">
  <ele>1586.18</ele>
  <time>2026-08-28T19:13:08Z</time>
  <course>7.89</course>
  <speed>0.01414213562373095</speed>
  <fix>3d</fix>
</trkpt>
<trkpt lat="40.072842" lon="-105.230575">
  <ele>1586.09</ele>
  <time>2026-08-28T19:13:08Z</time>
  <course>257.34</course>
  <speed>0.0</speed>
  <fix>3d</fix>
</trkpt>
<trkpt lat="40.0728419" lon="-105.2305749">
  <ele>1586.17</ele>
  <time>2026-08-28T19:13:08Z</time>
  <course>7.86</course>
  <speed>0.01414213562373095</speed>
  <fix>3d</fix>
</trkpt>
<trkpt lat="40.072842" lon="-105.230575">
  <ele>1586.09</ele>
  <time>2026-08-28T19:13:08Z</time>
  <course>254.59</course>
  <speed>0.0</speed>
  <fix>3d</fix>
</trkpt>
<trkpt lat="40.0728419" lon="-105.2305749">
  <ele>1586.17</ele>
  <time>2026-08-28T19:13:08Z</time>
  <course>7.84</course>
  <speed>0.01414213562373095</speed>
  <fix>3d</fix>
</trkpt>
<trkpt lat="40.072842" lon="-105.230575">
  <ele>1586.09</ele>
  <time>2026-08-28T19:13:08Z</time>
  <course>263.9</course>
  <speed>0.0</speed>
  <fix>3d</fix>
</trkpt>
<trkpt lat="40.0728419" lon="-105.2305749">
  <ele>1586.17</ele>
  <time>2026-08-28T19:13:08Z</time>
  <course>7.82</course>
  <speed>0.01414213562373095</speed>
  <fix>3d</fix>
</trkpt>
<trkpt lat="40.072842" lon="-105.230575">
  <ele>1586.09</ele>
  <time>2026-08-28T19:13:08Z</time>
  <course>268.69</course>
  <speed>0.0</speed>
  <fix>3d</fix>
</trkpt>
<trkpt lat="40.0728419" lon="-105.2305749">
  <ele>1586.17</ele>
  <time>2026-08-28T19:13:08Z</time>
  <course>7.79</course>
  <speed>0.01414213562373095</speed>
  <fix>3d</fix>
</trkpt>
<trkpt lat="40.072842" lon="-105.230575">
  <ele>1586.09</ele>
  <time>2026-08-28T19:13:08Z</time>
  <course>274.96</course>
  <speed>0.0</speed>
  <fix>3d</fix>
</trkpt>
<trkpt lat="40.0728419" lon="-105.2305749">
  <ele>1586.17</ele>
  <time>2026-08-28T19:13:08Z</time>
  <course>7.77</course>
  <speed>0.01414213562373095</speed>
  <fix>3d</fix>
</trkpt>
<trkpt lat="40.072842" lon="-105.230575">
  <ele>1586.09</ele>
  <time>2026-08-28T19:13:08Z</time>
  <course>272.34</course>
  <speed>0.0</speed>
  <fix>3d</fix>
</trkpt>
<trkpt lat="40.0728419" lon="-105.2305749">
  <ele>1586.17</ele>
  <time>2026-08-28T19:13:08Z</time>
  <course>7.75</course>
  <speed>0.01414213562373095</speed>
  <fix>3d</fix>
</trkpt>
<trkpt lat="40.072842" lon="-105.230575">
  <ele>1586.09</ele>
  <time>2026-08-28T19:13:08Z</time>
  <course>265.03</course>
  <speed>0.0</speed>
  <fix>3d</fix>
</trkpt>
<trkpt lat="40.0728419" lon="-105.2305749">
  <ele>1586.17</ele>
  <time>2026-08-28T19:13:08Z</time>
  <course>7.75</course>
  <speed>0.01414213562373095</speed>
  <fix>3d</fix>
</trkpt>
<trkpt lat="40.0728419" lon="-105.2305749">
  <ele>1586.17</ele>
  <time>2026-08-28T19:13:08Z</time>
  <course>7.73</course>
  <speed>0.01414213562373095</speed>
  <fix>3d</fix>
</trkpt>
<trkpt lat="40.072842" lon="-105.230575">
  <ele>1586.09</ele>
  <time>2026-08-28T19:13:08Z</time>
  <course>265.64</course>
  <speed>0.0</speed>
  <fix>3d</fix>
</trkpt>
<trkpt lat="40.0728419" lon="-105.2305749">
  <ele>1586.17</ele>
  <time>2026-08-28T19:13:08Z</time>
  <course>7.73</course>
  <speed>0.01414213562373095</speed>
  <fix>3d</fix>
</trkpt>
<trkpt lat="40.0728419" lon="-105.2305749">
  <ele>1586.17</ele>
  <time>2026-08-28T19:13:08Z</time>
  <course>7.72</course>
  <speed>0.01414213562373095</speed>
  <fix>3d</fix>
</trkpt>
<trkpt lat="40.072842" lon="-105.230575">
  <ele>1586.09</ele>
  <time>2026-08-28T19:13:08Z</time>
  <course>267.52</course>
  <speed>0.0</speed>
  <fix>3d</fix>
</trkpt>
<trkpt lat="40.0728419" lon="-105.2305749">
  <ele>1586.17</ele>
  <time>2026-08-28T19:13:08Z</time>
  <course>7.71</course>
  <speed>0.01414213562373095</speed>
  <fix>3d</fix>
</trkpt>
<trkpt lat="40.0728419" lon="-105.2305749">
  <ele>1586.17</ele>
  <time>2026-08-28T19:13:09Z</time>
  <course>7.71</course>
  <speed>0.01414213562373095</speed>
  <fix>3d</fix>
</trkpt>
<trkpt lat="40.072842" lon="-105.230575">
  <ele>1586.09</ele>
  <time>2026-08-28T19:13:09Z</time>
  <course>268.34</course>
  <speed>0.0</speed>
  <fix>3d</fix>
</trkpt>
<trkpt lat="40.0728419" lon="-105.2305749">
  <ele>1586.17</ele>
  <time>2026-08-28T19:13:09Z</time>
  <course>7.7</course>
  <speed>0.01414213562373095</speed>
  <fix>3d</fix>
</trkpt>
<trkpt lat="40.0728419" lon="-105.2305749">
  <ele>1586.17</ele>
  <time>2026-08-28T19:13:09Z</time>
  <course>7.68</course>
  <speed>0.01414213562373095</speed>
  <fix>3d</fix>
</trkpt>
<trkpt lat="40.072842" lon="-105.230575">
  <ele>1586.09</ele>
  <time>2026-08-28T19:13:09Z</time>
  <course>266.73</course>
  <speed>0.0</speed>
  <fix>3d</fix>
</trkpt>
<trkpt lat="40.0728419" lon="-105.2305749">
  <ele>1586.17</ele>
  <time>2026-08-28T19:13:09Z</time>
  <course>7.67</course>
  <speed>0.01414213562373095</speed>
  <fix>3d</fix>
</trkpt>
<trkpt lat="40.0728419" lon="-105.2305749">
  <ele>1586.21</ele>
  <time>2026-08-28T19:13:09Z</time>
  <course>7.62</course>
  <speed>0.01414213562373095</speed>
  <fix>3d</fix>
</trkpt>
<trkpt lat="40.072842" lon="-105.230575">
  <ele>1586.09</ele>
  <time>2026-08-28T19:13:09Z</time>
  <course>265.24</course>
  <speed>0.0</speed>
  <fix>3d</fix>
</trkpt>
<trkpt lat="40.0728419" lon="-105.2305749">
  <ele>1586.22</ele>
  <time>2026-08-28T19:13:09Z</time>
  <course>7.61</course>
  <speed>0.01414213562373095</speed>
  <fix>3d</fix>
</trkpt>
<trkpt lat="40.0728419" lon="-105.2305749">
  <ele>1586.26</ele>
  <time>2026-08-28T19:13:09Z</time>
  <course>7.55</course>
  <speed>0.01414213562373095</speed>
  <fix>3d</fix>
</trkpt>
<trkpt lat="40.072842" lon="-105.230575">
  <ele>1586.13</ele>
  <time>2026-08-28T19:13:09Z</time>
  <course>267.91</course>
  <speed>0.0</speed>
  <fix>3d</fix>
</trkpt>
<trkpt lat="40.0728419" lon="-105.2305749">
  <ele>1586.27</ele>
  <time>2026-08-28T19:13:09Z</time>
  <course>7.54</course>
  <speed>0.01414213562373095</speed>
  <fix>3d</fix>
</trkpt>
<trkpt lat="40.0728419" lon="-105.2305749">
  <ele>1586.32</ele>
  <time>2026-08-28T19:13:09Z</time>
  <course>6.03</course>
  <speed>0.01</speed>
  <fix>3d</fix>
</trkpt>
<trkpt lat="40.072842" lon="-105.230575">
  <ele>1586.18</ele>
  <time>2026-08-28T19:13:09Z</time>
  <course>297.9</course>
  <speed>0.0</speed>
  <fix>3d</fix>
</trkpt>
<trkpt lat="40.0728419" lon="-105.2305749">
  <ele>1586.34</ele>
  <time>2026-08-28T19:13:09Z</time>
  <course>4.86</course>
  <speed>0.01414213562373095</speed>
  <fix>3d</fix>
</trkpt>
<trkpt lat="40.0728419" lon="-105.230575">
  <ele>1586.52</ele>
  <time>2026-08-28T19:13:09Z</time>
  <course>2.57</course>
  <speed>0.14</speed>
  <fix>3d</fix>
</trkpt>
<trkpt lat="40.072842" lon="-105.230575">
  <ele>1586.27</ele>
  <time>2026-08-28T19:13:09Z</time>
  <course>263.63</course>
  <speed>0.04</speed>
  <fix>3d</fix>
</trkpt>
<trkpt lat="40.0728419" lon="-105.230575">
  <ele>1586.52</ele>
  <time>2026-08-28T19:13:09Z</time>
  <course>2.61</course>
  <speed>0.14</speed>
  <fix>3d</fix>
</trkpt>
<trkpt lat="40.0728419" lon="-105.2305755">
  <ele>1586.66</ele>
  <time>2026-08-28T19:13:09Z</time>
  <course>3.36</course>
  <speed>0.19026297590440447</speed>
  <fix>3d</fix>
</trkpt>
<trkpt lat="40.072842" lon="-105.2305752">
  <ele>1586.43</ele>
  <time>2026-08-28T19:13:09Z</time>
  <course>262.67</course>
  <speed>0.14</speed>
  <fix>3d</fix>
</trkpt>
<trkpt lat="40.0728419" lon="-105.2305755">
  <ele>1586.68</ele>
  <time>2026-08-28T19:13:09Z</time>
  <course>3.19</course>
  <speed>0.19026297590440447</speed>
  <fix>3d</fix>
</trkpt>
<trkpt lat="40.0728419" lon="-105.230576">
  <ele>1586.76</ele>
  <time>2026-08-28T19:13:09Z</time>
  <course>2.37</course>
  <speed>0.22090722034374521</speed>
  <fix>3d</fix>
</trkpt>
<trkpt lat="40.072842" lon="-105.2305756">
  <ele>1586.58</ele>
  <time>2026-08-28T19:13:09Z</time>
  <course>261.28</course>
  <speed>0.2</speed>
  <fix>3d</fix>
</trkpt>
<trkpt lat="40.0728419" lon="-105.2305761">
  <ele>1586.77</ele>
  <time>2026-08-28T19:13:09Z</time>
  <course>2.25</course>
  <speed>0.2308679276123039</speed>
  <fix>3d</fix>
</trkpt>
<trkpt lat="40.0728419" lon="-105.2305766">
  <ele>1586.86</ele>
  <time>2026-08-28T19:13:09Z</time>
  <course>1.84</course>
  <speed>0.24186773244895649</speed>
  <fix>3d</fix>
</trkpt>
<trkpt lat="40.0728419" lon="-105.2305762">
  <ele>1586.68</ele>
  <time>2026-08-28T19:13:09Z</time>
  <course>259.05</course>
  <speed>0.24</speed>
  <fix>3d</fix>
</trkpt>
<trkpt lat="40.0728418" lon="-105.2305766">
  <ele>1586.88</ele>
  <time>2026-08-28T19:13:09Z</time>
  <course>1.82</course>
  <speed>0.24186773244895649</speed>
  <fix>3d</fix>
</trkpt>
<trkpt lat="40.0728418" lon="-105.2305772">
  <ele>1586.96</ele>
  <time>2026-08-28T19:13:09Z</time>
  <course>1.8</course>
  <speed>0.25495097567963926</speed>
  <fix>3d</fix>
</trkpt>
<trkpt lat="40.0728418" lon="-105.2305768">
  <ele>1586.78</ele>
  <time>2026-08-28T19:13:09Z</time>
  <course>256.4</course>
  <speed>0.26</speed>
  <fix>3d</fix>
</trkpt>
<trkpt lat="40.0728417" lon="-105.2305773">
  <ele>1586.98</ele>
  <time>2026-08-28T19:13:09Z</time>
  <course>1.81</course>
  <speed>0.25495097567963926</speed>
  <fix>3d</fix>
</trkpt>
<trkpt lat="40.0728416" lon="-105.2305778">
  <ele>1587.06</ele>
  <time>2026-08-28T19:13:09Z</time>
  <course>1.84</course>
  <speed>0.25</speed>
  <fix>3d</fix>
</trkpt>
<trkpt lat="40.0728417" lon="-105.2305773">
  <ele>1586.88</ele>
  <time>2026-08-28T19:13:09Z</time>
  <course>253.72</course>
  <speed>0.26</speed>
  <fix>3d</fix>
</trkpt>
<trkpt lat="40.0728416" lon="-105.2305778">
  <ele>1587.06</ele>
  <time>2026-08-28T19:13:09Z</time>
  <course>1.84</course>
  <speed>0.25</speed>
  <fix>3d</fix>
</trkpt>
<trkpt lat="40.0728415" lon="-105.2305784">
  <ele>1587.17</ele>
  <time>2026-08-28T19:13:09Z</time>
  <course>1.92</course>
  <speed>0.24351591323771843</speed>
  <fix>3d</fix>
</trkpt>
<trkpt lat="40.0728415" lon="-105.230578">
  <ele>1586.98</ele>
  <time>2026-08-28T19:13:09Z</time>
  <course>251.04</course>
  <speed>0.26</speed>
  <fix>3d</fix>
</trkpt>
<trkpt lat="40.0728414" lon="-105.2305784">
  <ele>1587.19</ele>
  <time>2026-08-28T19:13:09Z</time>
  <course>1.93</course>
  <speed>0.24351591323771843</speed>
  <fix>3d</fix>
</trkpt>
<trkpt lat="40.0728413" lon="-105.2305789">
  <ele>1587.28</ele>
  <time>2026-08-28T19:13:09Z</time>
  <course>2.09</course>
  <speed>0.25079872407968906</speed>
  <fix>3d</fix>
</trkpt>
<trkpt lat="40.0728414" lon="-105.2305785">
  <ele>1587.08</ele>
  <time>2026-08-28T19:13:09Z</time>
  <course>248.46</course>
  <speed>0.26</speed>
  <fix>3d</fix>
</trkpt>
<trkpt lat="40.0728412" lon="-105.230579">
  <ele>1587.3</ele>
  <time>2026-08-28T19:13:09Z</time>
  <course>2.11</course>
  <speed>0.24166091947189144</speed>
  <fix>3d</fix>
</trkpt>
<trkpt lat="40.0728411" lon="-105.2305795">
  <ele>1587.4</ele>
  <time>2026-08-28T19:13:09Z</time>
  <course>2.31</course>
  <speed>0.24596747752497689</speed>
  <fix>3d</fix>
</trkpt>
<trkpt lat="40.0728412" lon="-105.2305791">
  <ele>1587.19</ele>
  <time>2026-08-28T19:13:09Z</time>
  <course>246.04</course>
  <speed>0.25</speed>
  <fix>3d</fix>
</trkpt>
<trkpt lat="40.072841" lon="-105.2305796">
  <ele>1587.42</ele>
  <time>2026-08-28T19:13:09Z</time>
  <course>2.34</course>
  <speed>0.24596747752497689</speed>
  <fix>3d</fix>
</trkpt>
<trkpt lat="40.0728408" lon="-105.23058">
  <ele>1587.51</ele>
  <time>2026-08-28T19:13:09Z</time>
  <course>2.53</course>
  <speed>0.24186773244895649</speed>
  <fix>3d</fix>
</trkpt>
<trkpt lat="40.0728409" lon="-105.2305796">
  <ele>1587.3</ele>
  <time>2026-08-28T19:13:09Z</time>
  <course>243.7</course>
  <speed>0.25</speed>
  <fix>3d</fix>
</trkpt>
<trkpt lat="40.0728408" lon="-105.2305801">
  <ele>1587.53</ele>
  <time>2026-08-28T19:13:09Z</time>
  <course>2.58</course>
  <speed>0.24186773244895649</speed>
  <fix>3d</fix>
</trkpt>
<trkpt lat="40.0728406" lon="-105.2305805">
  <ele>1587.63</ele>
  <time>2026-08-28T19:13:09Z</time>
  <course>2.78</course>
  <speed>0.24698178070456936</speed>
  <fix>3d</fix>
</trkpt>
<trkpt lat="40.0728407" lon="-105.2305801">
  <ele>1587.41</ele>
  <time>2026-08-28T19:13:09Z</time>
  <course>241.46</course>
  <speed>0.25</speed>
  <fix>3d</fix>
</trkpt>
<trkpt lat="40.0728406" lon="-105.2305805">
  <ele>1587.63</ele>
  <time>2026-08-28T19:13:09Z</time>
  <course>2.78</course>
  <speed>0.24698178070456936</speed>
  <fix>3d</fix>
</trkpt>
<trkpt lat="40.0728403" lon="-105.230581">
  <ele>1587.75</ele>
  <time>2026-08-28T19:13:09Z</time>
  <course>3.04</course>
  <speed>0.24413111231467405</speed>
  <fix>3d</fix>
</trkpt>
<trkpt lat="40.0728406" lon="-105.2305806">
  <ele>1587.54</ele>
  <time>2026-08-28T19:13:09Z</time>
  <course>239.37</course>
  <speed>0.24</speed>
  <fix>3d</fix>
</trkpt>
<trkpt lat="40.0728403" lon="-105.2305811">
  <ele>1587.77</ele>
  <time>2026-08-28T19:13:09Z</time>
  <course>3.07</course>
  <speed>0.25</speed>
  <fix>3d</fix>
</trkpt>
<trkpt lat="40.0728401" lon="-105.2305815">
  <ele>1587.87</ele>
  <time>2026-08-28T19:13:09Z</time>
  <course>3.28</course>
  <speed>0.2420743687382041</speed>
  <fix>3d</fix>
</trkpt>
<trkpt lat="40.0728403" lon="-105.2305811">
  <ele>1587.65</ele>
  <time>2026-08-28T19:13:09Z</time>
  <course>237.46</course>
  <speed>0.24</speed>
  <fix>3d</fix>
</trkpt>
<trkpt lat="40.0728401" lon="-105.2305815">
  <ele>1587.89</ele>
  <time>2026-08-28T19:13:09Z</time>
  <course>3.31</course>
  <speed>0.2420743687382041</speed>
  <fix>3d</fix>
</trkpt>
<trkpt lat="40.0728398" lon="-105.2305819">
  <ele>1587.99</ele>
  <time>2026-08-28T19:13:09Z</time>
  <course>3.53</course>
  <speed>0.24839484696748443</speed>
  <fix>3d</fix>
</trkpt>
<trkpt lat="40.0728401" lon="-105.2305816">
  <ele>1587.78</ele>
  <time>2026-08-28T19:13:09Z</time>
  <course>235.71</course>
  <speed>0.24</speed>
  <fix>3d</fix>
</trkpt>
<trkpt lat="40.0728398" lon="-105.230582">
  <ele>1588.01</ele>
  <time>2026-08-28T19:13:09Z</time>
  <course>3.55</course>
  <speed>0.24839484696748443</speed>
  <fix>3d</fix>
</trkpt>
<trkpt lat="40.0728395" lon="-105.2305824">
  <ele>1588.12</ele>
  <time>2026-08-28T19:13:09Z</time>
  <course>3.74</course>
  <speed>0.24758836806279894</speed>
  <fix>3d</fix>
</trkpt>
<trkpt lat="40.0728398" lon="-105.2305821">
  <ele>1587.9</ele>
  <time>2026-08-28T19:13:09Z</time>
  <course>234.09</course>
  <speed>0.24</speed>
  <fix>3d</fix>
</trkpt>
<trkpt lat="40.0728395" lon="-105.2305825">
  <ele>1588.13</ele>
  <time>2026-08-28T19:13:09Z</time>
  <course>3.77</course>
  <speed>0.24758836806279894</speed>
  <fix>3d</fix>
</trkpt>
<trkpt lat="40.0728392" lon="-105.2305829">
  <ele>1588.25</ele>
  <time>2026-08-28T19:13:09Z</time>
  <course>3.96</course>
  <speed>0.2545584412271571</speed>
  <fix>3d</fix>
</trkpt>
<trkpt lat="40.0728395" lon="-105.2305825">
  <ele>1588.03</ele>
  <time>2026-08-28T19:13:09Z</time>
  <course>232.52</course>
  <speed>0.24</speed>
  <fix>3d</fix>
</trkpt>
<trkpt lat="40.0728392" lon="-105.2305829">
  <ele>1588.26</ele>
  <time>2026-08-28T19:13:09Z</time>
  <course>4.0</course>
  <speed>0.2545584412271571</speed>
  <fix>3d</fix>
</trkpt>
<trkpt lat="40.0728389" lon="-105.2305833">
  <ele>1588.38</ele>
  <time>2026-08-28T19:13:09Z</time>
  <course>4.22</course>
  <speed>0.2545584412271571</speed>
  <fix>3d</fix>
</trkpt>
<trkpt lat="40.0728393" lon="-105.230583">
  <ele>1588.15</ele>
  <time>2026-08-28T19:13:09Z</time>
  <course>231.12</course>
  <speed>0.24</speed>
  <fix>3d</fix>
</trkpt>
<trkpt lat="40.0728389" lon="-105.2305833">
  <ele>1588.38</ele>
  <time>2026-08-28T19:13:09Z</time>
  <course>4.22</course>
  <speed>0.2545584412271571</speed>
  <fix>3d</fix>
</trkpt>
<trkpt lat="40.0728386" lon="-105.2305837">
  <ele>1588.51</ele>
  <time>2026-08-28T19:13:09Z</time>
  <course>4.45</course>
  <speed>0.25495097567963926</speed>
  <fix>3d</fix>
</trkpt>
<trkpt lat="40.072839" lon="-105.2305835">
  <ele>1588.28</ele>
  <time>2026-08-28T19:13:09Z</time>
  <course>229.87</course>
  <speed>0.24</speed>
  <fix>3d</fix>
</trkpt>
<trkpt lat="40.0728386" lon="-105.2305838">
  <ele>1588.53</ele>
  <time>2026-08-28T19:13:09Z</time>
  <course>4.48</course>
  <speed>0.25495097567963926</speed>
  <fix>3d</fix>
</trkpt>
<trkpt lat="40.0728383" lon="-105.2305842">
  <ele>1588.64</ele>
  <time>2026-08-28T19:13:09Z</time>
  <course>4.66</course>
  <speed>0.25495097567963926</speed>
  <fix>3d</fix>
</trkpt>
<trkpt lat="40.0728387" lon="-105.2305839">
  <ele>1588.4</ele>
  <time>2026-08-28T19:13:09Z</time>
  <course>228.73</course>
  <speed>0.24</speed>
  <fix>3d</fix>
</trkpt>
<trkpt lat="40.0728383" lon="-105.2305842">
  <ele>1588.65</ele>
  <time>2026-08-28T19:13:09Z</time>
  <course>4.69</course>
  <speed>0.25495097567963926</speed>
  <fix>3d</fix>
</trkpt>
<trkpt lat="40.072838" lon="-105.2305846">
  <ele>1588.76</ele>
  <time>2026-08-28T19:13:09Z</time>
  <course>4.9</course>
  <speed>0.26248809496813374</speed>
  <fix>3d</fix>
</trkpt>
<trkpt lat="40.0728384" lon="-105.2305844">
  <ele>1588.53</ele>
  <time>2026-08-28T19:13:09Z</time>
  <course>227.71</course>
  <speed>0.24</speed>
  <fix>3d</fix>
</trkpt>
<trkpt lat="40.072838" lon="-105.2305846">
  <ele>1588.78</ele>
  <time>2026-08-28T19:13:09Z</time>
  <course>3.63</course>
  <speed>0.26248809496813374</speed>
  <fix>3d</fix>
</trkpt>
<trkpt lat="40.0728377" lon="-105.230585">
  <ele>1588.88</ele>
  <time>2026-08-28T19:13:09Z</time>
  <course>3.74</course>
  <speed>0.25612496949731395</speed>
  <fix>3d</fix>
</trkpt>
<trkpt lat="40.0728381" lon="-105.2305848">
  <ele>1588.65</ele>
  <time>2026-08-28T19:13:09Z</time>
  <course>226.73</course>
  <speed>0.25</speed>
  <fix>3d</fix>
</trkpt>
<trkpt lat="40.0728377" lon="-105.230585">
  <ele>1588.88</ele>
  <time>2026-08-28T19:13:09Z</time>
  <course>3.74</course>
  <speed>0.25612496949731395</speed>
  <fix>3d</fix>
</trkpt>
<trkpt lat="40.0728374" lon="-105.2305854">
  <ele>1589.0</ele>
  <time>2026-08-28T19:13:09Z</time>
  <course>3.98</course>
  <speed>0.25612496949731395</speed>
  <fix>3d</fix>
</trkpt>
<trkpt lat="40.0728378" lon="-105.2305852">
  <ele>1588.78</ele>
  <time>2026-08-28T19:13:09Z</time>
  <course>225.85</course>
  <speed>0.25</speed>
  <fix>3d</fix>
</trkpt>
<trkpt lat="40.0728373" lon="-105.2305855">
  <ele>1589.02</ele>
  <time>2026-08-28T19:13:09Z</time>
  <course>4.03</course>
  <speed>0.25612496949731395</speed>
  <fix>3d</fix>
</trkpt>
<trkpt lat="40.0728371" lon="-105.2305858">
  <ele>1589.12</ele>
  <time>2026-08-28T19:13:09Z</time>
  <course>4.29</course>
  <speed>0.25612496949731395</speed>
  <fix>3d</fix>
</trkpt>
<trkpt lat="40.0728375" lon="-105.2305856">
  <ele>1588.89</ele>
  <time>2026-08-28T19:13:09Z</time>
  <course>225.02</course>
  <speed>0.25</speed>
  <fix>3d</fix>
</trkpt>
<trkpt lat="40.0728371" lon="-105.2305858">
  <ele>1589.13</ele>
  <time>2026-08-28T19:13:09Z</time>
  <course>4.29</course>
  <speed>0.25612496949731395</speed>
  <fix>3d</fix>
</trkpt>
<trkpt lat="40.0728367" lon="-105.2305862">
  <ele>1589.25</ele>
  <time>2026-08-28T19:13:09Z</time>
  <course>4.45</course>
  <speed>0.25</speed>
  <fix>3d</fix>
</trkpt>
<trkpt lat="40.0728371" lon="-105.2305861">
  <ele>1589.02</ele>
  <time>2026-08-28T19:13:09Z</time>
  <course>224.18</course>
  <speed>0.25</speed>
  <fix>3d</fix>
</trkpt>
<trkpt lat="40.0728367" lon="-105.2305863">
  <ele>1589.27</ele>
  <time>2026-08-28T19:13:09Z</time>
  <course>4.48</course>
  <speed>0.25</speed>
  <fix>3d</fix>
</trkpt>
<trkpt lat="40.0728364" lon="-105.2305866">
  <ele>1589.37</ele>
  <time>2026-08-28T19:13:09Z</time>
  <course>4.59</course>
  <speed>0.25</speed>
  <fix>3d</fix>
</trkpt>
<trkpt lat="40.0728368" lon="-105.2305864">
  <ele>1589.14</ele>
  <time>2026-08-28T19:13:09Z</time>
  <course>223.4</course>
  <speed>0.25</speed>
  <fix>3d</fix>
</trkpt>
<trkpt lat="40.0728364" lon="-105.2305867">
  <ele>1589.39</ele>
  <time>2026-08-28T19:13:09Z</time>
  <course>4.6</course>
  <speed>0.25</speed>
  <fix>3d</fix>
</trkpt>
<trkpt lat="40.0728361" lon="-105.230587">
  <ele>1589.5</ele>
  <time>2026-08-28T19:13:09Z</time>
  <course>4.69</course>
  <speed>0.2420743687382041</speed>
  <fix>3d</fix>
</trkpt>
<trkpt lat="40.0728364" lon="-105.2305868">
  <ele>1589.27</ele>
  <time>2026-08-28T19:13:09Z</time>
  <course>222.54</course>
  <speed>0.25</speed>
  <fix>3d</fix>
</trkpt>
<trkpt lat="40.0728361" lon="-105.230587">
  <ele>1589.51</ele>
  <time>2026-08-28T19:13:09Z</time>
  <course>4.7</course>
  <speed>0.2420743687382041</speed>
  <fix>3d</fix>
</trkpt>
<trkpt lat="40.0728358" lon="-105.2305874">
  <ele>1589.63</ele>
  <time>2026-08-28T19:13:09Z</time>
  <course>4.81</course>
  <speed>0.2420743687382041</speed>
  <fix>3d</fix>
</trkpt>
<trkpt lat="40.0728361" lon="-105.2305873">
  <ele>1589.39</ele>
  <time>2026-08-28T19:13:09Z</time>
  <course>221.61</course>
  <speed>0.25</speed>
  <fix>3d</fix>
</trkpt>
<trkpt lat="40.0728357" lon="-105.2305875">
  <ele>1589.64</ele>
  <time>2026-08-28T19:13:09Z</time>
  <course>4.82</course>
  <speed>0.2420743687382041</speed>
  <fix>3d</fix>
</trkpt>
<trkpt lat="40.0728354" lon="-105.2305878">
  <ele>1589.75</ele>
  <time>2026-08-28T19:13:09Z</time>
  <course>4.91</course>
  <speed>0.2420743687382041</speed>
  <fix>3d</fix>
</trkpt>
<trkpt lat="40.0728357" lon="-105.2305877">
  <ele>1589.52</ele>
  <time>2026-08-28T19:13:09Z</time>
  <course>220.68</course>
  <speed>0.26</speed>
  <fix>3d</fix>
</trkpt>
<trkpt lat="40.0728354" lon="-105.2305878">
  <ele>1589.75</ele>
  <time>2026-08-28T19:13:09Z</time>
  <course>4.91</course>
  <speed>0.2420743687382041</speed>
  <fix>3d</fix>
</trkpt>
<trkpt lat="40.0728351" lon="-105.2305882">
  <ele>1589.87</ele>
  <time>2026-08-28T19:13:09Z</time>
  <course>5.01</course>
  <speed>0.25</speed>
  <fix>3d</fix>
</trkpt>
<trkpt lat="40.0728354" lon="-105.230588">
  <ele>1589.64</ele>
  <time>2026-08-28T19:13:09Z</time>
  <course>219.67</course>
  <speed>0.26</speed>
  <fix>3d</fix>
</trkpt>
<trkpt lat="40.072835" lon="-105.2305883">
  <ele>1589.89</ele>
  <time>2026-08-28T19:13:09Z</time>
  <course>5.02</course>
  <speed>0.25</speed>
  <fix>3d</fix>
</trkpt>
<trkpt lat="40.0728347" lon="-105.2305886">
  <ele>1589.99</ele>
  <time>2026-08-28T19:13:09Z</time>
  <course>5.14</course>
  <speed>0.25</speed>
  <fix>3d</fix>
</trkpt>
<trkpt lat="40.0728351" lon="-105.2305885">
  <ele>1589.77</ele>
  <time>2026-08-28T19:13:09Z</time>
  <course>218.7</course>
  <speed>0.26</speed>
  <fix>3d</fix>
</trkpt>
<trkpt lat="40.0728347" lon="-105.2305887">
  <ele>1590.02</ele>
  <time>2026-08-28T19:13:09Z</time>
  <course>5.15</course>
  <speed>0.25</speed>
  <fix>3d</fix>
</trkpt>
<trkpt lat="40.0728344" lon="-105.230589">
  <ele>1590.12</ele>
  <time>2026-08-28T19:13:09Z</time>
  <course>5.24</course>
  <speed>0.25</speed>
  <fix>3d</fix>
</trkpt>
<trkpt lat="40.0728347" lon="-105.2305888">
  <ele>1589.89</ele>
  <time>2026-08-28T19:13:09Z</time>
  <course>217.82</course>
  <speed>0.27</speed>
  <fix>3d</fix>
</trkpt>
<trkpt lat="40.0728344" lon="-105.230589">
  <ele>1590.12</ele>
  <time>2026-08-28T19:13:09Z</time>
  <course>5.24</course>
  <speed>0.25</speed>
  <fix>3d</fix>
</trkpt>
<trkpt lat="40.072834" lon="-105.2305894">
  <ele>1590.25</ele>
  <time>2026-08-28T19:13:09Z</time>
  <course>5.39</course>
  <speed>0.2580697580112788</speed>
  <fix>3d</fix>
</trkpt>
<trkpt lat="40.0728342" lon="-105.2305892">
  <ele>1590.02</ele>
  <time>2026-08-28T19:13:09Z</time>
  <course>217.03</course>
  <speed>0.27</speed>
  <fix>3d</fix>
</trkpt>
<trkpt lat="40.0728339" lon="-105.2305895">
  <ele>1590.27</ele>
  <time>2026-08-28T19:13:09Z</time>
  <course>5.41</course>
  <speed>0.2580697580112788</speed>
  <fix>3d</fix>
</trkpt>
<trkpt lat="40.0728336" lon="-105.2305898">
  <ele>1590.38</ele>
  <time>2026-08-28T19:13:09Z</time>
  <course>5.51</course>
  <speed>0.2580697580112788</speed>
  <fix>3d</fix>
</trkpt>
<trkpt lat="40.0728339" lon="-105.2305897">
  <ele>1590.14</ele>
  <time>2026-08-28T19:13:09Z</time>
  <course>216.36</course>
  <speed>0.27</speed>
  <fix>3d</fix>
</trkpt>
<trkpt lat="40.0728335" lon="-105.2305899">
  <ele>1590.39</ele>
  <time>2026-08-28T19:13:09Z</time>
  <course>5.52</course>
  <speed>0.2580697580112788</speed>
  <fix>3d</fix>
</trkpt>
<trkpt lat="40.0728332" lon="-105.2305902">
  <ele>1590.5</ele>
  <time>2026-08-28T19:13:09Z</time>
  <course>5.62</course>
  <speed>0.2580697580112788</speed>
  <fix>3d</fix>
</trkpt>
<trkpt lat="40.0728335" lon="-105.2305901">
  <ele>1590.27</ele>
  <time>2026-08-28T19:13:09Z</time>
  <course>215.79</course>
  <speed>0.28</speed>
  <fix>3d</fix>
</trkpt>
<trkpt lat="40.0728332" lon="-105.2305902">
  <ele>1590.51</ele>
  <time>2026-08-28T19:13:09Z</time>
  <course>5.63</course>
  <speed>0.2580697580112788</speed>
  <fix>3d</fix>
</trkpt>
<trkpt lat="40.0728328" lon="-105.2305906">
  <ele>1590.63</ele>
  <time>2026-08-28T19:13:09Z</time>
  <course>5.74</course>
  <speed>0.266270539113887</speed>
  <fix>3d</fix>
</trkpt>
<trkpt lat="40.072833" lon="-105.2305904">
  <ele>1590.4</ele>
  <time>2026-08-28T19:13:09Z</time>
  <course>215.34</course>
  <speed>0.28</speed>
  <fix>3d</fix>
</trkpt>
<trkpt lat="40.0728327" lon="-105.2305907">
  <ele>1590.65</ele>
  <time>2026-08-28T19:13:09Z</time>
  <course>5.75</course>
  <speed>0.266270539113887</speed>
  <fix>3d</fix>
</trkpt>
<trkpt lat="40.0728323" lon="-105.230591">
  <ele>1590.76</ele>
  <time>2026-08-28T19:13:09Z</time>
  <course>5.85</course>
  <speed>0.266270539113887</speed>
  <fix>3d</fix>
</trkpt>
<trkpt lat="40.0728327" lon="-105.2305907">
  <ele>1590.53</ele>
  <time>2026-08-28T19:13:09Z</time>
  <course>214.98</course>
  <speed>0.28</speed>
  <fix>3d</fix>
</trkpt>
<trkpt lat="40.0728323" lon="-105.230591">
  <ele>1590.76</ele>
  <time>2026-08-28T19:13:09Z</time>
  <course>5.85</course>
  <speed>0.266270539113887</speed>
  <fix>3d</fix>
</trkpt>
<trkpt lat="40.0728319" lon="-105.2305914">
  <ele>1590.88</ele>
  <time>2026-08-28T19:13:09Z</time>
  <course>5.95</course>
  <speed>0.266270539113887</speed>
  <fix>3d</fix>
</trkpt>
<trkpt lat="40.0728322" lon="-105.2305911">
  <ele>1590.65</ele>
  <time>2026-08-28T19:13:09Z</time>
  <course>214.67</course>
  <speed>0.28</speed>
  <fix>3d</fix>
</trkpt>
<trkpt lat="40.0728319" lon="-105.2305914">
  <ele>1590.9</ele>
  <time>2026-08-28T19:13:09Z</time>
  <course>5.96</course>
  <speed>0.266270539113887</speed>
  <fix>3d</fix>
</trkpt>
<trkpt lat="40.0728315" lon="-105.2305918">
  <ele>1591.01</ele>
  <time>2026-08-28T19:13:09Z</time>
  <course>6.04</course>
  <speed>0.2745906043549196</speed>
  <fix>3d</fix>
</trkpt>
<trkpt lat="40.0728318" lon="-105.2305916">
  <ele>1590.78</ele>
  <time>2026-08-28T19:13:09Z</time>
  <course>214.4</course>
  <speed>0.28</speed>
  <fix>3d</fix>
</trkpt>
<trkpt lat="40.0728314" lon="-105.2305918">
  <ele>1591.03</ele>
  <time>2026-08-28T19:13:09Z</time>
  <course>6.06</course>
  <speed>0.2745906043549196</speed>
  <fix>3d</fix>
</trkpt>
<trkpt lat="40.0728311" lon="-105.2305921">
  <ele>1591.13</ele>
  <time>2026-08-28T19:13:09Z</time>
  <course>6.13</course>
  <speed>0.2745906043549196</speed>
  <fix>3d</fix>
</trkpt>
<trkpt lat="40.0728314" lon="-105.230592">
  <ele>1590.9</ele>
  <time>2026-08-28T19:13:09Z</time>
  <course>214.17</course>
  <speed>0.28</speed>
  <fix>3d</fix>
</trkpt>
<trkpt lat="40.0728311" lon="-105.2305921">
  <ele>1591.14</ele>
  <time>2026-08-28T19:13:09Z</time>
  <course>6.13</course>
  <speed>0.2745906043549196</speed>
  <fix>3d</fix>
</trkpt>
<trkpt lat="40.0728306" lon="-105.2305925">
  <ele>1591.26</ele>
  <time>2026-08-28T19:13:09Z</time>
  <course>6.22</course>
  <speed>0.2745906043549196</speed>
  <fix>3d</fix>
</trkpt>
<trkpt lat="40.0728309" lon="-105.2305923">
  <ele>1591.03</ele>
  <time>2026-08-28T19:13:09Z</time>
  <course>213.96</course>
  <speed>0.29</speed>
  <fix>3d</fix>
</trkpt>
<trkpt lat="40.0728306" lon="-105.2305926">
  <ele>1591.28</ele>
  <time>2026-08-28T19:13:09Z</time>
  <course>6.23</course>
  <speed>0.2745906043549196</speed>
  <fix>3d</fix>
</trkpt>
<trkpt lat="40.0728302" lon="-105.2305929">
  <ele>1591.39</ele>
  <time>2026-08-28T19:13:09Z</time>
  <course>6.3</course>
  <speed>0.2745906043549196</speed>
  <fix>3d</fix>
</trkpt>
<trkpt lat="40.0728305" lon="-105.2305927">
  <ele>1591.14</ele>
  <time>2026-08-28T19:13:09Z</time>
  <course>213.77</course>
  <speed>0.29</speed>
  <fix>3d</fix>
</trkpt>
<trkpt lat="40.0728302" lon="-105.2305929">
  <ele>1591.39</ele>
  <time>2026-08-28T19:13:09Z</time>
  <course>6.3</course>
  <speed>0.2745906043549196</speed>
  <fix>3d</fix>
</trkpt>
<trkpt lat="40.0728298" lon="-105.2305933">
  <ele>1591.51</ele>
  <time>2026-08-28T19:13:09Z</time>
  <course>6.38</course>
  <speed>0.2745906043549196</speed>
  <fix>3d</fix>
</trkpt>
<trkpt lat="40.0728301" lon="-105.230593">
  <ele>1591.27</ele>
  <time>2026-08-28T19:13:09Z</time>
  <course>213.62</course>
  <speed>0.29</speed>
  <fix>3d</fix>
</trkpt>
<trkpt lat="40.0728298" lon="-105.2305933">
  <ele>1591.52</ele>
  <time>2026-08-28T19:13:09Z</time>
  <course>6.38</course>
  <speed>0.2745906043549196</speed>
  <fix>3d</fix>
</trkpt>
<trkpt lat="40.0728293" lon="-105.2305936">
  <ele>1591.64</ele>
  <time>2026-08-28T19:13:09Z</time>
  <course>6.45</course>
  <speed>0.2778488797889961</speed>
  <fix>3d</fix>
</trkpt>
<trkpt lat="40.0728296" lon="-105.2305935">
  <ele>1591.39</ele>
  <time>2026-08-28T19:13:09Z</time>
  <course>213.48</course>
  <speed>0.29</speed>
  <fix>3d</fix>
</trkpt>
<trkpt lat="40.0728293" lon="-105.2305936">
  <ele>1591.64</ele>
  <time>2026-08-28T19:13:09Z</time>
  <course>6.45</course>
  <speed>0.2778488797889961</speed>
  <fix>3d</fix>
</trkpt>
<trkpt lat="40.0728289" lon="-105.230594">
  <ele>1591.77</ele>
  <time>2026-08-28T19:13:09Z</time>
  <course>6.53</course>
  <speed>0.2778488797889961</speed>
  <fix>3d</fix>
</trkpt>
<trkpt lat="40.0728292" lon="-105.2305939">
  <ele>1591.52</ele>
  <time>2026-08-28T19:13:09Z</time>
  <course>213.38</course>
  <speed>0.29</speed>
  <fix>3d</fix>
</trkpt>
<trkpt lat="40.0728288" lon="-105.2305941">
  <ele>1591.79</ele>
  <time>2026-08-28T19:13:09Z</time>
  <course>6.54</course>
  <speed>0.2778488797889961</speed>
  <fix>3d</fix>
</trkpt>
<trkpt lat="40.0728284" lon="-105.2305944">
  <ele>1591.89</ele>
  <time>2026-08-28T19:13:09Z</time>
  <course>6.61</course>
  <speed>0.2778488797889961</speed>
  <fix>3d</fix>
</trkpt>
<trkpt lat="40.0728287" lon="-105.2305942">
  <ele>1591.64</ele>
  <time>2026-08-28T19:13:09Z</time>
  <course>213.37</course>
  <speed>0.29</speed>
  <fix>3d</fix>
</trkpt>
<trkpt lat="40.0728284" lon="-105.2305944">
  <ele>1591.91</ele>
  <time>2026-08-28T19:13:09Z</time>
  <course>6.61</course>
  <speed>0.2778488797889961</speed>
  <fix>3d</fix>
</trkpt>
<trkpt lat="40.072828" lon="-105.2305948">
  <ele>1592.01</ele>
  <time>2026-08-28T19:13:09Z</time>
  <course>6.68</course>
  <speed>0.2778488797889961</speed>
  <fix>3d</fix>
</trkpt>
<trkpt lat="40.0728283" lon="-105.2305946">
  <ele>1591.77</ele>
  <time>2026-08-28T19:13:09Z</time>
  <course>213.43</course>
  <speed>0.29</speed>
  <fix>3d</fix>
</trkpt>
<trkpt lat="40.072828" lon="-105.2305948">
  <ele>1592.02</ele>
  <time>2026-08-28T19:13:09Z</time>
  <course>6.68</course>
  <speed>0.2778488797889961</speed>
  <fix>3d</fix>
</trkpt>
<trkpt lat="40.0728275" lon="-105.2305951">
  <ele>1592.14</ele>
  <time>2026-08-28T19:13:09Z</time>
  <course>6.74</course>
  <speed>0.2778488797889961</speed>
  <fix>3d</fix>
</trkpt>
<trkpt lat="40.0728278" lon="-105.2305949">
  <ele>1591.89</ele>
  <time>2026-08-28T19:13:09Z</time>
  <course>213.55</course>
  <speed>0.29</speed>
  <fix>3d</fix>
</trkpt>
<trkpt lat="40.0728275" lon="-105.2305952">
  <ele>1592.16</ele>
  <time>2026-08-28T19:13:09Z</time>
  <course>6.75</course>
  <speed>0.2778488797889961</speed>
  <fix>3d</fix>
</trkpt>
<trkpt lat="40.0728271" lon="-105.2305955">
  <ele>1592.26</ele>
  <time>2026-08-28T19:13:09Z</time>
  <course>6.8</course>
  <speed>0.2778488797889961</speed>
  <fix>3d</fix>
</trkpt>
<trkpt lat="40.0728274" lon="-105.2305954">
  <ele>1592.02</ele>
  <time>2026-08-28T19:13:09Z</time>
  <course>213.73</course>
  <speed>0.29</speed>
  <fix>3d</fix>
</trkpt>
<trkpt lat="40.072827" lon="-105.2305956">
  <ele>1592.28</ele>
  <time>2026-08-28T19:13:09Z</time>
  <course>6.81</course>
  <speed>0.2778488797889961</speed>
  <fix>3d</fix>
</trkpt>
<trkpt lat="40.0728267" lon="-105.2305959">
  <ele>1592.38</ele>
  <time>2026-08-28T19:13:09Z</time>
  <course>6.85</course>
  <speed>0.2778488797889961</speed>
  <fix>3d</fix>
</trkpt>
<trkpt lat="40.072827" lon="-105.2305958">
  <ele>1592.14</ele>
  <time>2026-08-28T19:13:09Z</time>
  <course>213.93</course>
  <speed>0.29</speed>
  <fix>3d</fix>
</trkpt>
<trkpt lat="40.0728266" lon="-105.2305959">
  <ele>1592.4</ele>
  <time>2026-08-28T19:13:09Z</time>
  <course>6.86</course>
  <speed>0.2778488797889961</speed>
  <fix>3d</fix>
</trkpt>
<trkpt lat="40.0728262" lon="-105.2305963">
  <ele>1592.51</ele>
  <time>2026-08-28T19:13:09Z</time>
  <course>6.9</course>
  <speed>0.2778488797889961</speed>
  <fix>3d</fix>
</trkpt>
<trkpt lat="40.0728266" lon="-105.2305961">
  <ele>1592.27</ele>
  <time>2026-08-28T19:13:09Z</time>
  <course>214.18</course>
  <speed>0.29</speed>
  <fix>3d</fix>
</trkpt>
<trkpt lat="40.0728262" lon="-105.2305963">
  <ele>1592.53</ele>
  <time>2026-08-28T19:13:09Z</time>
  <course>6.91</course>
  <speed>0.2778488797889961</speed>
  <fix>3d</fix>
</trkpt>
<trkpt lat="40.0728258" lon="-105.2305966">
  <ele>1592.64</ele>
  <time>2026-08-28T19:13:09Z</time>
  <course>6.95</course>
  <speed>0.2778488797889961</speed>
  <fix>3d</fix>
</trkpt>
<trkpt lat="40.0728261" lon="-105.2305965">
  <ele>1592.39</ele>
  <time>2026-08-28T19:13:09Z</time>
  <course>214.47</course>
  <speed>0.28</speed>
  <fix>3d</fix>
</trkpt>
<trkpt lat="40.0728258" lon="-105.2305967">
  <ele>1592.64</ele>
  <time>2026-08-28T19:13:09Z</time>
  <course>6.95</course>
  <speed>0.2778488797889961</speed>
  <fix>3d</fix>
</trkpt>
<trkpt lat="40.0728254" lon="-105.230597">
  <ele>1592.76</ele>
  <time>2026-08-28T19:13:09Z</time>
  <course>7.03</course>
  <speed>0.2778488797889961</speed>
  <fix>3d</fix>
</trkpt>
<trkpt lat="40.0728257" lon="-105.2305969">
  <ele>1592.52</ele>
  <time>2026-08-28T19:13:09Z</time>
  <course>214.82</course>
  <speed>0.28</speed>
  <fix>3d</fix>
</trkpt>
<trkpt lat="40.0728253" lon="-105.2305971">
  <ele>1592.78</ele>
  <time>2026-08-28T19:13:09Z</time>
  <course>7.04</course>
  <speed>0.2778488797889961</speed>
  <fix>3d</fix>
</trkpt>
<trkpt lat="40.072825" lon="-105.2305974">
  <ele>1592.89</ele>
  <time>2026-08-28T19:13:09Z</time>
  <course>7.1</course>
  <speed>0.2692582403567252</speed>
  <fix>3d</fix>
</trkpt>
<trkpt lat="40.0728253" lon="-105.2305973">
  <ele>1592.64</ele>
  <time>2026-08-28T19:13:09Z</time>
  <course>215.2</course>
  <speed>0.28</speed>
  <fix>3d</fix>
</trkpt>
<trkpt lat="40.0728249" lon="-105.2305975">
  <ele>1592.91</ele>
  <time>2026-08-28T19:13:09Z</time>
  <course>7.11</course>
  <speed>0.2692582403567252</speed>
  <fix>3d</fix>
</trkpt>
<trkpt lat="40.0728245" lon="-105.2305978">
  <ele>1593.02</ele>
  <time>2026-08-28T19:13:09Z</time>
  <course>7.16</course>
  <speed>0.2692582403567252</speed>
  <fix>3d</fix>
</trkpt>
<trkpt lat="40.0728249" lon="-105.2305977">
  <ele>1592.77</ele>
  <time>2026-08-28T19:13:09Z</time>
  <course>215.55</course>
  <speed>0.28</speed>
  <fix>3d</fix>
</trkpt>
<trkpt lat="40.0728245" lon="-105.2305978">
  <ele>1593.04</ele>
  <time>2026-08-28T19:13:09Z</time>
  <course>7.17</course>
  <speed>0.2692582403567252</speed>
  <fix>3d</fix>
</trkpt>
<trkpt lat="40.0728241" lon="-105.2305982">
  <ele>1593.14</ele>
  <time>2026-08-28T19:13:09Z</time>
  <course>7.22</course>
  <speed>0.2692582403567252</speed>
  <fix>3d</fix>
</trkpt>
<trkpt lat="40.0728244" lon="-105.2305981">
  <ele>1592.89</ele>
  <time>2026-08-28T19:13:09Z</time>
  <course>215.9</course>
  <speed>0.28</speed>
  <fix>3d</fix>
</trkpt>
<trkpt lat="40.0728241" lon="-105.2305982">
  <ele>1593.16</ele>
  <time>2026-08-28T19:13:09Z</time>
  <course>7.23</course>
  <speed>0.2692582403567252</speed>
  <fix>3d</fix>
</trkpt>
<trkpt lat="40.0728237" lon="-105.2305986">
  <ele>1593.27</ele>
  <time>2026-08-28T19:13:09Z</time>
  <course>7.28</course>
  <speed>0.2692582403567252</speed>
  <fix>3d</fix>
</trkpt>
<trkpt lat="40.0728241" lon="-105.2305985">
  <ele>1593.02</ele>
  <time>2026-08-28T19:13:09Z</time>
  <course>216.25</course>
  <speed>0.28</speed>
  <fix>3d</fix>
</trkpt>
<trkpt lat="40.0728237" lon="-105.2305986">
  <ele>1593.27</ele>
  <time>2026-08-28T19:13:09Z</time>
  <course>7.28</course>
  <speed>0.2692582403567252</speed>
  <fix>3d</fix>
</trkpt>
<trkpt lat="40.0728233" lon="-105.230599">
  <ele>1593.39</ele>
  <time>2026-08-28T19:13:09Z</time>
  <course>7.33</course>
  <speed>0.2692582403567252</speed>
  <fix>3d</fix>
</trkpt>
<trkpt lat="40.0728237" lon="-105.2305988">
  <ele>1593.14</ele>
  <time>2026-08-28T19:13:09Z</time>
  <course>216.6</course>
  <speed>0.28</speed>
  <fix>3d</fix>
</trkpt>
<trkpt lat="40.0728233" lon="-105.230599">
  <ele>1593.41</ele>
  <time>2026-08-28T19:13:09Z</time>
  <course>7.33</course>
  <speed>0.2692582403567252</speed>
  <fix>3d</fix>
</trkpt>
<trkpt lat="40.0728229" lon="-105.2305993">
  <ele>1593.51</ele>
  <time>2026-08-28T19:13:09Z</time>
  <course>7.37</course>
  <speed>0.2692582403567252</speed>
  <fix>3d</fix>
</trkpt>
<trkpt lat="40.0728232" lon="-105.2305993">
  <ele>1593.27</ele>
  <time>2026-08-28T19:13:09Z</time>
  <course>217.01</course>
  <speed>0.27</speed>
  <fix>3d</fix>
</trkpt>
<trkpt lat="40.0728229" lon="-105.2305994">
  <ele>1593.53</ele>
  <time>2026-08-28T19:13:09Z</time>
  <course>7.38</course>
  <speed>0.2692582403567252</speed>
  <fix>3d</fix>
</trkpt>
<trkpt lat="40.0728225" lon="-105.2305997">
  <ele>1593.64</ele>
  <time>2026-08-28T19:13:09Z</time>
  <course>7.41</course>
  <speed>0.260768096208106</speed>
  <fix>3d</fix>
</trkpt>
<trkpt lat="40.0728229" lon="-105.2305997">
  <ele>1593.39</ele>
  <time>2026-08-28T19:13:09Z</time>
  <course>217.48</course>
  <speed>0.27</speed>
  <fix>3d</fix>
</trkpt>
<trkpt lat="40.0728225" lon="-105.2305998">
  <ele>1593.66</ele>
  <time>2026-08-28T19:13:09Z</time>
  <course>7.42</course>
  <speed>0.260768096208106</speed>
  <fix>3d</fix>
</trkpt>
<trkpt lat="40.0728221" lon="-105.2306001">
  <ele>1593.77</ele>
  <time>2026-08-28T19:13:09Z</time>
  <course>7.46</course>
  <speed>0.260768096208106</speed>
  <fix>3d</fix>
</trkpt>
<trkpt lat="40.0728225" lon="-105.2306001">
  <ele>1593.52</ele>
  <time>2026-08-28T19:13:09Z</time>
  <course>218.05</course>
  <speed>0.27</speed>
  <fix>3d</fix>
</trkpt>
<trkpt lat="40.0728221" lon="-105.2306002">
  <ele>1593.79</ele>
  <time>2026-08-28T19:13:09Z</time>
  <course>7.47</course>
  <speed>0.260768096208106</speed>
  <fix>3d</fix>
</trkpt>
<trkpt lat="40.0728217" lon="-105.2306005">
  <ele>1593.89</ele>
  <time>2026-08-28T19:13:09Z</time>
  <course>7.53</course>
  <speed>0.260768096208106</speed>
  <fix>3d</fix>
</trkpt>
<trkpt lat="40.072822" lon="-105.2306005">
  <ele>1593.64</ele>
  <time>2026-08-28T19:13:09Z</time>
  <course>218.66</course>
  <speed>0.27</speed>
  <fix>3d</fix>
</trkpt>
<trkpt lat="40.0728217" lon="-105.2306005">
  <ele>1593.9</ele>
  <time>2026-08-28T19:13:09Z</time>
  <course>7.53</course>
  <speed>0.260768096208106</speed>
  <fix>3d</fix>
</trkpt>
<trkpt lat="40.0728214" lon="-105.2306009">
  <ele>1594.02</ele>
  <time>2026-08-28T19:13:09Z</time>
  <course>7.57</course>
  <speed>0.260768096208106</speed>
  <fix>3d</fix>
</trkpt>
<trkpt lat="40.0728217" lon="-105.2306009">
  <ele>1593.77</ele>
  <time>2026-08-28T19:13:09Z</time>
  <course>219.26</course>
  <speed>0.27</speed>
  <fix>3d</fix>
</trkpt>
<trkpt lat="40.0728213" lon="-105.230601">
  <ele>1594.04</ele>
  <time>2026-08-28T19:13:09Z</time>
  <course>7.58</course>
  <speed>0.260768096208106</speed>
  <fix>3d</fix>
</trkpt>
<trkpt lat="40.072821" lon="-105.2306014">
  <ele>1594.14</ele>
  <time>2026-08-28T19:13:09Z</time>
  <course>7.63</course>
  <speed>0.260768096208106</speed>
  <fix>3d</fix>
</trkpt>
<trkpt lat="40.0728213" lon="-105.2306012">
  <ele>1593.89</ele>
  <time>2026-08-28T19:13:09Z</time>
  <course>219.86</course>
  <speed>0.27</speed>
  <fix>3d</fix>
</trkpt>
<trkpt lat="40.0728209" lon="-105.2306014">
  <ele>1594.16</ele>
  <time>2026-08-28T19:13:09Z</time>
  <course>7.63</course>
  <speed>0.260768096208106</speed>
  <fix>3d</fix>
</trkpt>
<trkpt lat="40.0728206" lon="-105.2306018">
  <ele>1594.27</ele>
  <time>2026-08-28T19:13:09Z</time>
  <course>7.68</course>
  <speed>0.2580697580112788</speed>
  <fix>3d</fix>
</trkpt>
<trkpt lat="40.0728209" lon="-105.2306016">
  <ele>1594.02</ele>
  <time>2026-08-28T19:13:09Z</time>
  <course>220.45</course>
  <speed>0.27</speed>
  <fix>3d</fix>
</trkpt>
<trkpt lat="40.0728205" lon="-105.2306018">
  <ele>1594.29</ele>
  <time>2026-08-28T19:13:09Z</time>
  <course>7.69</course>
  <speed>0.2580697580112788</speed>
  <fix>3d</fix>
</trkpt>
<trkpt lat="40.0728202" lon="-105.2306022">
  <ele>1594.4</ele>
  <time>2026-08-28T19:13:09Z</time>
  <course>7.72</course>
  <speed>0.2580697580112788</speed>
  <fix>3d</fix>
</trkpt>
<trkpt lat="40.0728206" lon="-105.2306021">
  <ele>1594.14</ele>
  <time>2026-08-28T19:13:09Z</time>
  <course>221.05</course>
  <speed>0.26</speed>
  <fix>3d</fix>
</trkpt>
<trkpt lat="40.0728202" lon="-105.2306022">
  <ele>1594.42</ele>
  <time>2026-08-28T19:13:09Z</time>
  <course>7.73</course>
  <speed>0.2580697580112788</speed>
  <fix>3d</fix>
</trkpt>
<trkpt lat="40.0728199" lon="-105.2306026">
  <ele>1594.52</ele>
  <time>2026-08-28T19:13:09Z</time>
  <course>7.77</course>
  <speed>0.2580697580112788</speed>
  <fix>3d</fix>
</trkpt>
<trkpt lat="40.0728201" lon="-105.2306025">
  <ele>1594.27</ele>
  <time>2026-08-28T19:13:09Z</time>
  <course>221.66</course>
  <speed>0.26</speed>
  <fix>3d</fix>
</trkpt>
<trkpt lat="40.0728198" lon="-105.2306026">
  <ele>1594.54</ele>
  <time>2026-08-28T19:13:09Z</time>
  <course>7.77</course>
  <speed>0.2580697580112788</speed>
  <fix>3d</fix>
</trkpt>
<trkpt lat="40.0728195" lon="-105.230603">
  <ele>1594.65</ele>
  <time>2026-08-28T19:13:09Z</time>
  <course>7.81</course>
  <speed>0.2580697580112788</speed>
  <fix>3d</fix>
</trkpt>
<trkpt lat="40.0728198" lon="-105.2306029">
  <ele>1594.39</ele>
  <time>2026-08-28T19:13:09Z</time>
  <course>222.27</course>
  <speed>0.26</speed>
  <fix>3d</fix>
</trkpt>
<trkpt lat="40.0728195" lon="-105.230603">
  <ele>1594.65</ele>
  <time>2026-08-28T19:13:09Z</time>
  <course>7.81</course>
  <speed>0.2580697580112788</speed>
  <fix>3d</fix>
</trkpt>
<trkpt lat="40.0728192" lon="-105.2306034">
  <ele>1594.78</ele>
  <time>2026-08-28T19:13:09Z</time>
  <course>7.86</course>
  <speed>0.25</speed>
  <fix>3d</fix>
</trkpt>
<trkpt lat="40.0728194" lon="-105.2306033">
  <ele>1594.52</ele>
  <time>2026-08-28T19:13:09Z</time>
  <course>222.82</course>
  <speed>0.26</speed>
  <fix>3d</fix>
</trkpt>
<trkpt lat="40.0728191" lon="-105.2306035">
  <ele>1594.79</ele>
  <time>2026-08-28T19:13:09Z</time>
  <course>7.86</course>
  <speed>0.25</speed>
  <fix>3d</fix>
</trkpt>
<trkpt lat="40.0728188" lon="-105.2306038">
  <ele>1594.91</ele>
  <time>2026-08-28T19:13:09Z</time>
  <course>7.91</course>
  <speed>0.25</speed>
  <fix>3d</fix>
</trkpt>
<trkpt lat="40.0728191" lon="-105.2306038">
  <ele>1594.64</ele>
  <time>2026-08-28T19:13:09Z</time>
  <course>223.34</course>
  <speed>0.26</speed>
  <fix>3d</fix>
</trkpt>
<trkpt lat="40.0728188" lon="-105.2306039">
  <ele>1594.93</ele>
  <time>2026-08-28T19:13:09Z</time>
  <course>7.92</course>
  <speed>0.25</speed>
  <fix>3d</fix>
</trkpt>
<trkpt lat="40.0728185" lon="-105.2306042">
  <ele>1595.04</ele>
  <time>2026-08-28T19:13:09Z</time>
  <course>7.96</course>
  <speed>0.25</speed>
  <fix>3d</fix>
</trkpt>
<trkpt lat="40.0728188" lon="-105.2306041">
  <ele>1594.77</ele>
  <time>2026-08-28T19:13:09Z</time>
  <course>223.85</course>
  <speed>0.25</speed>
  <fix>3d</fix>
</trkpt>
<trkpt lat="40.0728184" lon="-105.2306043">
  <ele>1595.07</ele>
  <time>2026-08-28T19:13:09Z</time>
  <course>7.96</course>
  <speed>0.25</speed>
  <fix>3d</fix>
</trkpt>
<trkpt lat="40.0728181" lon="-105.2306046">
  <ele>1595.17</ele>
  <time>2026-08-28T19:13:09Z</time>
  <course>8.01</course>
  <speed>0.25</speed>
  <fix>3d</fix>
</trkpt>
<trkpt lat="40.0728184" lon="-105.2306045">
  <ele>1594.89</ele>
  <time>2026-08-28T19:13:09Z</time>
  <course>224.38</course>
  <speed>0.25</speed>
  <fix>3d</fix>
</trkpt>
<trkpt lat="40.0728181" lon="-105.2306047">
  <ele>1595.18</ele>
  <time>2026-08-28T19:13:09Z</time>
  <course>8.02</course>
  <speed>0.25</speed>
  <fix>3d</fix>
</trkpt>
<trkpt lat="40.0728178" lon="-105.2306051">
  <ele>1595.29</ele>
  <time>2026-08-28T19:13:09Z</time>
  <course>8.04</course>
  <speed>0.2420743687382041</speed>
  <fix>3d</fix>
</trkpt>
<trkpt lat="40.0728181" lon="-105.230605">
  <ele>1595.02</ele>
  <time>2026-08-28T19:13:09Z</time>
  <course>224.95</course>
  <speed>0.25</speed>
  <fix>3d</fix>
</trkpt>
<trkpt lat="40.0728178" lon="-105.2306051">
  <ele>1595.29</ele>
  <time>2026-08-28T19:13:09Z</time>
  <course>8.04</course>
  <speed>0.2420743687382041</speed>
  <fix>3d</fix>
</trkpt>
<trkpt lat="40.0728175" lon="-105.2306055">
  <ele>1595.41</ele>
  <time>2026-08-28T19:13:09Z</time>
  <course>8.08</course>
  <speed>0.2420743687382041</speed>
  <fix>3d</fix>
</trkpt>
<trkpt lat="40.0728178" lon="-105.2306055">
  <ele>1595.14</ele>
  <time>2026-08-28T19:13:09Z</time>
  <course>225.54</course>
  <speed>0.25</speed>
  <fix>3d</fix>
</trkpt>
<trkpt lat="40.0728174" lon="-105.2306055">
  <ele>1595.43</ele>
  <time>2026-08-28T19:13:09Z</time>
  <course>8.08</course>
  <speed>0.2420743687382041</speed>
  <fix>3d</fix>
</trkpt>
<trkpt lat="40.0728172" lon="-105.2306059">
  <ele>1595.53</ele>
  <time>2026-08-28T19:13:09Z</time>
  <course>8.11</course>
  <speed>0.2420743687382041</speed>
  <fix>3d</fix>
</trkpt>
<trkpt lat="40.0728175" lon="-105.2306059">
  <ele>1595.27</ele>
  <time>2026-08-28T19:13:09Z</time>
  <course>226.13</course>
  <speed>0.25</speed>
  <fix>3d</fix>
</trkpt>
<trkpt lat="40.0728171" lon="-105.230606">
  <ele>1595.54</ele>
  <time>2026-08-28T19:13:09Z</time>
  <course>8.12</course>
  <speed>0.2420743687382041</speed>
  <fix>3d</fix>
</trkpt>
<trkpt lat="40.0728169" lon="-105.2306063">
  <ele>1595.65</ele>
  <time>2026-08-28T19:13:09Z</time>
  <course>8.15</course>
  <speed>0.23430749027719963</speed>
  <fix>3d</fix>
</trkpt>
<trkpt lat="40.0728172" lon="-105.2306062">
  <ele>1595.38</ele>
  <time>2026-08-28T19:13:09Z</time>
  <course>226.72</course>
  <speed>0.24</speed>
  <fix>3d</fix>
</trkpt>
<trkpt lat="40.0728168" lon="-105.2306064">
  <ele>1595.66</ele>
  <time>2026-08-28T19:13:09Z</time>
  <course>8.15</course>
  <speed>0.23430749027719963</speed>
  <fix>3d</fix>
</trkpt>
<trkpt lat="40.0728166" lon="-105.2306068">
  <ele>1595.77</ele>
  <time>2026-08-28T19:13:09Z</time>
  <course>8.16</course>
  <speed>0.23430749027719963</speed>
  <fix>3d</fix>
</trkpt>
<trkpt lat="40.0728169" lon="-105.2306067">
  <ele>1595.51</ele>
  <time>2026-08-28T19:13:09Z</time>
  <course>227.33</course>
  <speed>0.24</speed>
  <fix>3d</fix>
</trkpt>
<trkpt lat="40.0728166" lon="-105.2306068">
  <ele>1595.77</ele>
  <time>2026-08-28T19:13:09Z</time>
  <course>8.16</course>
  <speed>0.23430749027719963</speed>
  <fix>3d</fix>
</trkpt>
<trkpt lat="40.0728163" lon="-105.2306072">
  <ele>1595.89</ele>
  <time>2026-08-28T19:13:09Z</time>
  <course>8.18</course>
  <speed>0.23430749027719963</speed>
  <fix>3d</fix>
</trkpt>
<trkpt lat="40.0728166" lon="-105.2306072">
  <ele>1595.63</ele>
  <time>2026-08-28T19:13:09Z</time>
  <course>227.96</course>
  <speed>0.24</speed>
  <fix>3d</fix>
</trkpt>
<trkpt lat="40.0728162" lon="-105.2306073">
  <ele>1595.91</ele>
  <time>2026-08-28T19:13:09Z</time>
  <course>8.19</course>
  <speed>0.23430749027719963</speed>
  <fix>3d</fix>
</trkpt>
<trkpt lat="40.072816" lon="-105.2306076">
  <ele>1596.01</ele>
  <time>2026-08-28T19:13:09Z</time>
  <course>8.23</course>
  <speed>0.22671568097509268</speed>
  <fix>3d</fix>
</trkpt>
<trkpt lat="40.0728163" lon="-105.2306076">
  <ele>1595.76</ele>
  <time>2026-08-28T19:13:09Z</time>
  <course>228.6</course>
  <speed>0.24</speed>
  <fix>3d</fix>
</trkpt>
<trkpt lat="40.072816" lon="-105.2306076">
  <ele>1596.01</ele>
  <time>2026-08-28T19:13:09Z</time>
  <course>8.23</course>
  <speed>0.22671568097509268</speed>
  <fix>3d</fix>
</trkpt>
<trkpt lat="40.0728157" lon="-105.2306081">
  <ele>1596.14</ele>
  <time>2026-08-28T19:13:09Z</time>
  <course>8.28</course>
  <speed>0.22671568097509268</speed>
  <fix>3d</fix>
</trkpt>
<trkpt lat="40.072816" lon="-105.2306079">
  <ele>1595.89</ele>
  <time>2026-08-28T19:13:09Z</time>
  <course>229.21</course>
  <speed>0.23</speed>
  <fix>3d</fix>
</trkpt>
<trkpt lat="40.0728157" lon="-105.2306081">
  <ele>1596.16</ele>
  <time>2026-08-28T19:13:09Z</time>
  <course>8.29</course>
  <speed>0.22671568097509268</speed>
  <fix>3d</fix>
</trkpt>
<trkpt lat="40.0728154" lon="-105.2306085">
  <ele>1596.27</ele>
  <time>2026-08-28T19:13:09Z</time>
  <course>8.31</course>
  <speed>0.22671568097509268</speed>
  <fix>3d</fix>
</trkpt>
<trkpt lat="40.0728157" lon="-105.2306084">
  <ele>1596.02</ele>
  <time>2026-08-28T19:13:09Z</time>
  <course>229.81</course>
  <speed>0.23</speed>
  <fix>3d</fix>
</trkpt>
<trkpt lat="40.0728154" lon="-105.2306085">
  <ele>1596.29</ele>
  <time>2026-08-28T19:13:09Z</time>
  <course>8.3</course>
  <speed>0.22671568097509268</speed>
  <fix>3d</fix>
</trkpt>
<trkpt lat="40.0728152" lon="-105.2306089">
  <ele>1596.4</ele>
  <time>2026-08-28T19:13:09Z</time>
  <course>8.36</course>
  <speed>0.2193171219946131</speed>
  <fix>3d</fix>
</trkpt>
<trkpt lat="40.0728155" lon="-105.2306088">
  <ele>1596.15</ele>
  <time>2026-08-28T19:13:09Z</time>
  <course>230.42</course>
  <speed>0.23</speed>
  <fix>3d</fix>
</trkpt>
<trkpt lat="40.0728151" lon="-105.2306089">
  <ele>1596.4</ele>
  <time>2026-08-28T19:13:09Z</time>
  <course>8.36</course>
  <speed>0.2193171219946131</speed>
  <fix>3d</fix>
</trkpt>
<trkpt lat="40.0728149" lon="-105.2306093">
  <ele>1596.53</ele>
  <time>2026-08-28T19:13:09Z</time>
  <course>8.38</course>
  <speed>0.2193171219946131</speed>
  <fix>3d</fix>
</trkpt>
<trkpt lat="40.0728152" lon="-105.2306093">
  <ele>1596.28</ele>
  <time>2026-08-28T19:13:09Z</time>
  <course>231.01</course>
  <speed>0.23</speed>
  <fix>3d</fix>
</trkpt>
<trkpt lat="40.0728149" lon="-105.2306094">
  <ele>1596.54</ele>
  <time>2026-08-28T19:13:09Z</time>
  <course>8.39</course>
  <speed>0.2262741699796952</speed>
  <fix>3d</fix>
</trkpt>
<trkpt lat="40.0728146" lon="-105.2306098">
  <ele>1596.65</ele>
  <time>2026-08-28T19:13:09Z</time>
  <course>8.43</course>
  <speed>0.2193171219946131</speed>
  <fix>3d</fix>
</trkpt>
<trkpt lat="40.0728149" lon="-105.2306097">
  <ele>1596.4</ele>
  <time>2026-08-28T19:13:09Z</time>
  <course>231.62</course>
  <speed>0.23</speed>
  <fix>3d</fix>
</trkpt>
<trkpt lat="40.0728146" lon="-105.2306098">
  <ele>1596.65</ele>
  <time>2026-08-28T19:13:09Z</time>
  <course>8.43</course>
  <speed>0.2262741699796952</speed>
  <fix>3d</fix>
</trkpt>
<trkpt lat="40.0728144" lon="-105.2306102">
  <ele>1596.77</ele>
  <time>2026-08-28T19:13:09Z</time>
  <course>8.45</course>
  <speed>0.2193171219946131</speed>
  <fix>3d</fix>
</trkpt>
<trkpt lat="40.0728146" lon="-105.2306101">
  <ele>1596.53</ele>
  <time>2026-08-28T19:13:09Z</time>
  <course>232.24</course>
  <speed>0.23</speed>
  <fix>3d</fix>
</trkpt>
<trkpt lat="40.0728143" lon="-105.2306103">
  <ele>1596.79</ele>
  <time>2026-08-28T19:13:09Z</time>
  <course>8.46</course>
  <speed>0.2193171219946131</speed>
  <fix>3d</fix>
</trkpt>
<trkpt lat="40.0728141" lon="-105.2306106">
  <ele>1596.9</ele>
  <time>2026-08-28T19:13:09Z</time>
  <course>8.47</course>
  <speed>0.2193171219946131</speed>
  <fix>3d</fix>
</trkpt>
<trkpt lat="40.0728144" lon="-105.2306105">
  <ele>1596.66</ele>
  <time>2026-08-28T19:13:09Z</time>
  <course>232.77</course>
  <speed>0.22</speed>
  <fix>3d</fix>
</trkpt>
<trkpt lat="40.0728141" lon="-105.2306107">
  <ele>1596.92</ele>
  <time>2026-08-28T19:13:09Z</time>
  <course>8.48</course>
  <speed>0.2193171219946131</speed>
  <fix>3d</fix>
</trkpt>
<trkpt lat="40.0728139" lon="-105.2306111">
  <ele>1597.03</ele>
  <time>2026-08-28T19:13:09Z</time>
  <course>8.5</course>
  <speed>0.2193171219946131</speed>
  <fix>3d</fix>
</trkpt>
<trkpt lat="40.0728141" lon="-105.230611">
  <ele>1596.79</ele>
  <time>2026-08-28T19:13:09Z</time>
  <course>233.3</course>
  <speed>0.22</speed>
  <fix>3d</fix>
</trkpt>
<trkpt lat="40.0728139" lon="-105.2306111">
  <ele>1597.03</ele>
  <time>2026-08-28T19:13:09Z</time>
  <course>8.5</course>
  <speed>0.2193171219946131</speed>
  <fix>3d</fix>
</trkpt>
<trkpt lat="40.0728136" lon="-105.2306115">
  <ele>1597.15</ele>
  <time>2026-08-28T19:13:09Z</time>
  <course>8.55</course>
  <speed>0.2193171219946131</speed>
  <fix>3d</fix>
</trkpt>
<trkpt lat="40.0728139" lon="-105.2306114">
  <ele>1596.92</ele>
  <time>2026-08-28T19:13:09Z</time>
  <course>233.89</course>
  <speed>0.22</speed>
  <fix>3d</fix>
</trkpt>
<trkpt lat="40.0728136" lon="-105.2306115">
  <ele>1597.17</ele>
  <time>2026-08-28T19:13:09Z</time>
  <course>8.55</course>
  <speed>0.2193171219946131</speed>
  <fix>3d</fix>
</trkpt>
<trkpt lat="40.0728134" lon="-105.2306119">
  <ele>1597.28</ele>
  <time>2026-08-28T19:13:09Z</time>
  <course>8.58</course>
  <speed>0.212602916254693</speed>
  <fix>3d</fix>
</trkpt>
<trkpt lat="40.0728137" lon="-105.2306119">
  <ele>1597.05</ele>
  <time>2026-08-28T19:13:09Z</time>
  <course>234.45</course>
  <speed>0.22</speed>
  <fix>3d</fix>
</trkpt>
<trkpt lat="40.0728134" lon="-105.230612">
  <ele>1597.3</ele>
  <time>2026-08-28T19:13:09Z</time>
  <course>8.58</course>
  <speed>0.212602916254693</speed>
  <fix>3d</fix>
</trkpt>
<trkpt lat="40.0728132" lon="-105.2306124">
  <ele>1597.41</ele>
  <time>2026-08-28T19:13:09Z</time>
  <course>8.61</course>
  <speed>0.212602916254693</speed>
  <fix>3d</fix>
</trkpt>
<trkpt lat="40.0728134" lon="-105.2306122">
  <ele>1597.17</ele>
  <time>2026-08-28T19:13:09Z</time>
  <course>234.94</course>
  <speed>0.22</speed>
  <fix>3d</fix>
</trkpt>
<trkpt lat="40.0728131" lon="-105.2306124">
  <ele>1597.42</ele>
  <time>2026-08-28T19:13:09Z</time>
  <course>8.62</course>
  <speed>0.212602916254693</speed>
  <fix>3d</fix>
</trkpt>
<trkpt lat="40.0728129" lon="-105.2306128">
  <ele>1597.53</ele>
  <time>2026-08-28T19:13:09Z</time>
  <course>8.63</course>
  <speed>0.212602916254693</speed>
  <fix>3d</fix>
</trkpt>
<trkpt lat="40.0728133" lon="-105.2306127">
  <ele>1597.3</ele>
  <time>2026-08-28T19:13:09Z</time>
  <course>235.42</course>
  <speed>0.22</speed>
  <fix>3d</fix>
</trkpt>
<trkpt lat="40.0728129" lon="-105.2306129">
  <ele>1597.55</ele>
  <time>2026-08-28T19:13:09Z</time>
  <course>8.63</course>
  <speed>0.212602916254693</speed>
  <fix>3d</fix>
</trkpt>
<trkpt lat="40.0728127" lon="-105.2306132">
  <ele>1597.66</ele>
  <time>2026-08-28T19:13:09Z</time>
  <course>8.66</course>
  <speed>0.212602916254693</speed>
  <fix>3d</fix>
</trkpt>
<trkpt lat="40.072813" lon="-105.2306131">
  <ele>1597.43</ele>
  <time>2026-08-28T19:13:09Z</time>
  <course>235.95</course>
  <speed>0.21</speed>
  <fix>3d</fix>
</trkpt>
<trkpt lat="40.0728127" lon="-105.2306132">
  <ele>1597.66</ele>
  <time>2026-08-28T19:13:09Z</time>
  <course>8.66</course>
  <speed>0.212602916254693</speed>
  <fix>3d</fix>
</trkpt>
<trkpt lat="40.0728125" lon="-105.2306136">
  <ele>1597.79</ele>
  <time>2026-08-28T19:13:09Z</time>
  <course>8.71</course>
  <speed>0.20615528128088303</speed>
  <fix>3d</fix>
</trkpt>
<trkpt lat="40.0728127" lon="-105.2306136">
  <ele>1597.56</ele>
  <time>2026-08-28T19:13:09Z</time>
  <course>236.5</course>
  <speed>0.21</speed>
  <fix>3d</fix>
</trkpt>
<trkpt lat="40.0728125" lon="-105.2306137">
  <ele>1597.81</ele>
  <time>2026-08-28T19:13:09Z</time>
  <course>8.71</course>
  <speed>0.20615528128088303</speed>
  <fix>3d</fix>
</trkpt>
<trkpt lat="40.0728123" lon="-105.2306141">
  <ele>1597.91</ele>
  <time>2026-08-28T19:13:09Z</time>
  <course>8.73</course>
  <speed>0.20615528128088303</speed>
  <fix>3d</fix>
</trkpt>
<trkpt lat="40.0728126" lon="-105.230614">
  <ele>1597.68</ele>
  <time>2026-08-28T19:13:09Z</time>
  <course>237.02</course>
  <speed>0.21</speed>
  <fix>3d</fix>
</trkpt>
<trkpt lat="40.0728123" lon="-105.2306141">
  <ele>1597.93</ele>
  <time>2026-08-28T19:13:09Z</time>
  <course>8.73</course>
  <speed>0.20615528128088303</speed>
  <fix>3d</fix>
</trkpt>
<trkpt lat="40.0728121" lon="-105.2306145">
  <ele>1598.04</ele>
  <time>2026-08-28T19:13:09Z</time>
  <course>8.77</course>
  <speed>0.20615528128088303</speed>
  <fix>3d</fix>
</trkpt>
<trkpt lat="40.0728123" lon="-105.2306144">
  <ele>1597.81</ele>
  <time>2026-08-28T19:13:09Z</time>
  <course>237.51</course>
  <speed>0.21</speed>
  <fix>3d</fix>
</trkpt>
<trkpt lat="40.0728121" lon="-105.2306145">
  <ele>1598.04</ele>
  <time>2026-08-28T19:13:09Z</time>
  <course>8.77</course>
  <speed>0.20615528128088303</speed>
  <fix>3d</fix>
</trkpt>
<trkpt lat="40.0728119" lon="-105.2306149">
  <ele>1598.17</ele>
  <time>2026-08-28T19:13:09Z</time>
  <course>8.79</course>
  <speed>0.20615528128088303</speed>
  <fix>3d</fix>
</trkpt>
<trkpt lat="40.0728122" lon="-105.2306148">
  <ele>1597.94</ele>
  <time>2026-08-28T19:13:09Z</time>
  <course>237.98</course>
  <speed>0.21</speed>
  <fix>3d</fix>
</trkpt>
<trkpt lat="40.0728119" lon="-105.230615">
  <ele>1598.19</ele>
  <time>2026-08-28T19:13:09Z</time>
  <course>8.8</course>
  <speed>0.20615528128088303</speed>
  <fix>3d</fix>
</trkpt>
<trkpt lat="40.0728117" lon="-105.2306154">
  <ele>1598.3</ele>
  <time>2026-08-28T19:13:09Z</time>
  <course>8.81</course>
  <speed>0.2</speed>
  <fix>3d</fix>
</trkpt>
<trkpt lat="40.072812" lon="-105.2306153">
  <ele>1598.06</ele>
  <time>2026-08-28T19:13:09Z</time>
  <course>238.43</course>
  <speed>0.21</speed>
  <fix>3d</fix>
</trkpt>
<trkpt lat="40.0728117" lon="-105.2306154">
  <ele>1598.3</ele>
  <time>2026-08-28T19:13:09Z</time>
  <course>8.81</course>
  <speed>0.2</speed>
  <fix>3d</fix>
</trkpt>
<trkpt lat="40.0728115" lon="-105.2306158">
  <ele>1598.42</ele>
  <time>2026-08-28T19:13:09Z</time>
  <course>8.84</course>
  <speed>0.2</speed>
  <fix>3d</fix>
</trkpt>
<trkpt lat="40.0728117" lon="-105.2306156">
  <ele>1598.19</ele>
  <time>2026-08-28T19:13:09Z</time>
  <course>238.92</course>
  <speed>0.2</speed>
  <fix>3d</fix>
</trkpt>
<trkpt lat="40.0728115" lon="-105.2306158">
  <ele>1598.44</ele>
  <time>2026-08-28T19:13:09Z</time>
  <course>8.84</course>
  <speed>0.2</speed>
  <fix>3d</fix>
</trkpt>
<trkpt lat="40.0728113" lon="-105.2306162">
  <ele>1598.55</ele>
  <time>2026-08-28T19:13:09Z</time>
  <course>8.87</course>
  <speed>0.2</speed>
  <fix>3d</fix>
</trkpt>
<trkpt lat="40.0728115" lon="-105.230616">
  <ele>1598.32</ele>
  <time>2026-08-28T19:13:09Z</time>
  <course>239.42</course>
  <speed>0.2</speed>
  <fix>3d</fix>
</trkpt>
<trkpt lat="40.0728113" lon="-105.2306163">
  <ele>1598.56</ele>
  <time>2026-08-28T19:13:09Z</time>
  <course>8.87</course>
  <speed>0.2</speed>
  <fix>3d</fix>
</trkpt>
<trkpt lat="40.0728111" lon="-105.2306166">
  <ele>1598.67</ele>
  <time>2026-08-28T19:13:09Z</time>
  <course>8.9</course>
  <speed>0.19209372712298545</speed>
  <fix>3d</fix>
</trkpt>
<trkpt lat="40.0728114" lon="-105.2306165">
  <ele>1598.44</ele>
  <time>2026-08-28T19:13:09Z</time>
  <course>239.92</course>
  <speed>0.2</speed>
  <fix>3d</fix>
</trkpt>
<trkpt lat="40.0728111" lon="-105.2306167">
  <ele>1598.69</ele>
  <time>2026-08-28T19:13:09Z</time>
  <course>8.9</course>
  <speed>0.19209372712298545</speed>
  <fix>3d</fix>
</trkpt>
<trkpt lat="40.072811" lon="-105.230617">
  <ele>1598.79</ele>
  <time>2026-08-28T19:13:09Z</time>
  <course>8.9</course>
  <speed>0.18601075237738274</speed>
  <fix>3d</fix>
</trkpt>
<trkpt lat="40.0728112" lon="-105.230617">
  <ele>1598.56</ele>
  <time>2026-08-28T19:13:09Z</time>
  <course>240.41</course>
  <speed>0.2</speed>
  <fix>3d</fix>
</trkpt>
<trkpt lat="40.0728109" lon="-105.2306171">
  <ele>1598.81</ele>
  <time>2026-08-28T19:13:09Z</time>
  <course>8.91</course>
  <speed>0.18601075237738274</speed>
  <fix>3d</fix>
</trkpt>
<trkpt lat="40.0728108" lon="-105.2306175">
  <ele>1598.92</ele>
  <time>2026-08-28T19:13:09Z</time>
  <course>8.93</course>
  <speed>0.18601075237738274</speed>
  <fix>3d</fix>
</trkpt>
<trkpt lat="40.072811" lon="-105.2306174">
  <ele>1598.69</ele>
  <time>2026-08-28T19:13:09Z</time>
  <course>240.98</course>
  <speed>0.2</speed>
  <fix>3d</fix>
</trkpt>
<trkpt lat="40.0728108" lon="-105.2306175">
  <ele>1598.93</ele>
  <time>2026-08-28T19:13:09Z</time>
  <course>8.93</course>
  <speed>0.18601075237738274</speed>
  <fix>3d</fix>
</trkpt>
<trkpt lat="40.0728106" lon="-105.2306179">
  <ele>1599.05</ele>
  <time>2026-08-28T19:13:09Z</time>
  <course>8.95</course>
  <speed>0.18601075237738274</speed>
  <fix>3d</fix>
</trkpt>
<trkpt lat="40.0728109" lon="-105.2306178">
  <ele>1598.81</ele>
  <time>2026-08-28T19:13:09Z</time>
  <course>241.63</course>
  <speed>0.2</speed>
  <fix>3d</fix>
</trkpt>
<trkpt lat="40.0728106" lon="-105.2306179">
  <ele>1599.07</ele>
  <time>2026-08-28T19:13:09Z</time>
  <course>8.96</course>
  <speed>0.18601075237738274</speed>
  <fix>3d</fix>
</trkpt>
<trkpt lat="40.0728105" lon="-105.2306183">
  <ele>1599.17</ele>
  <time>2026-08-28T19:13:09Z</time>
  <course>8.98</course>
  <speed>0.18027756377319945</speed>
  <fix>3d</fix>
</trkpt>
<trkpt lat="40.0728107" lon="-105.2306182">
  <ele>1598.94</ele>
  <time>2026-08-28T19:13:09Z</time>
  <course>242.19</course>
  <speed>0.2</speed>
  <fix>3d</fix>
</trkpt>
<trkpt lat="40.0728104" lon="-105.2306184">
  <ele>1599.19</ele>
  <time>2026-08-28T19:13:09Z</time>
  <course>8.97</course>
  <speed>0.18027756377319945</speed>
  <fix>3d</fix>
</trkpt>
<trkpt lat="40.0728103" lon="-105.2306187">
  <ele>1599.29</ele>
  <time>2026-08-28T19:13:09Z</time>
  <course>8.99</course>
  <speed>0.18027756377319945</speed>
  <fix>3d</fix>
</trkpt>
<trkpt lat="40.0728105" lon="-105.2306186">
  <ele>1599.07</ele>
  <time>2026-08-28T19:13:09Z</time>
  <course>242.67</course>
  <speed>0.19</speed>
  <fix>3d</fix>
</trkpt>
<trkpt lat="40.0728103" lon="-105.2306188">
  <ele>1599.31</ele>
  <time>2026-08-28T19:13:09Z</time>
  <course>9.0</course>
  <speed>0.18027756377319945</speed>
  <fix>3d</fix>
</trkpt>
<trkpt lat="40.0728101" lon="-105.2306191">
  <ele>1599.42</ele>
  <time>2026-08-28T19:13:09Z</time>
  <course>8.99</course>
  <speed>0.18027756377319945</speed>
  <fix>3d</fix>
</trkpt>
<trkpt lat="40.0728103" lon="-105.230619">
  <ele>1599.19</ele>
  <time>2026-08-28T19:13:09Z</time>
  <course>243.15</course>
  <speed>0.19</speed>
  <fix>3d</fix>
</trkpt>
<trkpt lat="40.0728101" lon="-105.2306192">
  <ele>1599.44</ele>
  <time>2026-08-28T19:13:09Z</time>
  <course>9.0</course>
  <speed>0.18027756377319945</speed>
  <fix>3d</fix>
</trkpt>
<trkpt lat="40.07281" lon="-105.2306195">
  <ele>1599.55</ele>
  <time>2026-08-28T19:13:09Z</time>
  <course>9.04</course>
  <speed>0.18027756377319945</speed>
  <fix>3d</fix>
</trkpt>
<trkpt lat="40.0728102" lon="-105.2306194">
  <ele>1599.32</ele>
  <time>2026-08-28T19:13:09Z</time>
  <course>243.7</course>
  <speed>0.19</speed>
  <fix>3d</fix>
</trkpt>
<trkpt lat="40.07281" lon="-105.2306196">
  <ele>1599.55</ele>
  <time>2026-08-28T19:13:09Z</time>
  <course>9.04</course>
  <speed>0.18027756377319945</speed>
  <fix>3d</fix>
</trkpt>
<trkpt lat="40.0728098" lon="-105.23062">
  <ele>1599.68</ele>
  <time>2026-08-28T19:13:09Z</time>
  <course>9.07</course>
  <speed>0.18027756377319945</speed>
  <fix>3d</fix>
</trkpt>
<trkpt lat="40.0728101" lon="-105.2306198">
  <ele>1599.44</ele>
  <time>2026-08-28T19:13:09Z</time>
  <course>244.26</course>
  <speed>0.19</speed>
  <fix>3d</fix>
</trkpt>
<trkpt lat="40.0728098" lon="-105.23062">
  <ele>1599.7</ele>
  <time>2026-08-28T19:13:09Z</time>
  <course>9.07</course>
  <speed>0.18027756377319945</speed>
  <fix>3d</fix>
</trkpt>
<trkpt lat="40.0728097" lon="-105.2306204">
  <ele>1599.81</ele>
  <time>2026-08-28T19:13:09Z</time>
  <course>9.1</course>
  <speed>0.17492855684535902</speed>
  <fix>3d</fix>
</trkpt>
<trkpt lat="40.0728099" lon="-105.2306203">
  <ele>1599.57</ele>
  <time>2026-08-28T19:13:09Z</time>
  <course>244.77</course>
  <speed>0.19</speed>
  <fix>3d</fix>
</trkpt>
<trkpt lat="40.0728097" lon="-105.2306204">
  <ele>1599.84</ele>
  <time>2026-08-28T19:13:09Z</time>
  <course>9.12</course>
  <speed>0.17492855684535902</speed>
  <fix>3d</fix>
</trkpt>
<trkpt lat="40.0728095" lon="-105.2306208">
  <ele>1599.94</ele>
  <time>2026-08-28T19:13:09Z</time>
  <course>9.12</course>
  <speed>0.17492855684535902</speed>
  <fix>3d</fix>
</trkpt>
<trkpt lat="40.0728098" lon="-105.2306207">
  <ele>1599.7</ele>
  <time>2026-08-28T19:13:09Z</time>
  <course>245.3</course>
  <speed>0.19</speed>
  <fix>3d</fix>
</trkpt>
<trkpt lat="40.0728095" lon="-105.2306209">
  <ele>1599.96</ele>
  <time>2026-08-28T19:13:09Z</time>
  <course>9.13</course>
  <speed>0.17492855684535902</speed>
  <fix>3d</fix>
</trkpt>
<trkpt lat="40.0728094" lon="-105.2306212">
  <ele>1600.06</ele>
  <time>2026-08-28T19:13:09Z</time>
  <course>9.14</course>
  <speed>0.17492855684535902</speed>
  <fix>3d</fix>
</trkpt>
<trkpt lat="40.0728096" lon="-105.230621">
  <ele>1599.82</ele>
  <time>2026-08-28T19:13:09Z</time>
  <course>245.85</course>
  <speed>0.19</speed>
  <fix>3d</fix>
</trkpt>
<trkpt lat="40.0728094" lon="-105.2306213">
  <ele>1600.07</ele>
  <time>2026-08-28T19:13:09Z</time>
  <course>9.14</course>
  <speed>0.17492855684535902</speed>
  <fix>3d</fix>
</trkpt>
<trkpt lat="40.0728093" lon="-105.2306216">
  <ele>1600.18</ele>
  <time>2026-08-28T19:13:09Z</time>
  <course>9.15</course>
  <speed>0.17492855684535902</speed>
  <fix>3d</fix>
</trkpt>
<trkpt lat="40.0728095" lon="-105.2306215">
  <ele>1599.94</ele>
  <time>2026-08-28T19:13:09Z</time>
  <course>246.38</course>
  <speed>0.19</speed>
  <fix>3d</fix>
</trkpt>
<trkpt lat="40.0728093" lon="-105.2306216">
  <ele>1600.18</ele>
  <time>2026-08-28T19:13:09Z</time>
  <course>9.15</course>
  <speed>0.17492855684535902</speed>
  <fix>3d</fix>
</trkpt>
<trkpt lat="40.0728092" lon="-105.230622">
  <ele>1600.3</ele>
  <time>2026-08-28T19:13:09Z</time>
  <course>9.16</course>
  <speed>0.17</speed>
  <fix>3d</fix>
</trkpt>
<trkpt lat="40.0728093" lon="-105.2306218">
  <ele>1600.06</ele>
  <time>2026-08-28T19:13:09Z</time>
  <course>246.91</course>
  <speed>0.18</speed>
  <fix>3d</fix>
</trkpt>
<trkpt lat="40.0728091" lon="-105.2306221">
  <ele>1600.32</ele>
  <time>2026-08-28T19:13:09Z</time>
  <course>9.16</course>
  <speed>0.17</speed>
  <fix>3d</fix>
</trkpt>
<trkpt lat="40.072809" lon="-105.2306224">
  <ele>1600.42</ele>
  <time>2026-08-28T19:13:09Z</time>
  <course>9.16</course>
  <speed>0.17</speed>
  <fix>3d</fix>
</trkpt>
<trkpt lat="40.0728092" lon="-105.2306223">
  <ele>1600.19</ele>
  <time>2026-08-28T19:13:09Z</time>
  <course>247.44</course>
  <speed>0.18</speed>
  <fix>3d</fix>
</trkpt>
<trkpt lat="40.072809" lon="-105.2306225">
  <ele>1600.44</ele>
  <time>2026-08-28T19:13:09Z</time>
  <course>9.16</course>
  <speed>0.17</speed>
  <fix>3d</fix>
</trkpt>
<trkpt lat="40.0728089" lon="-105.2306228">
  <ele>1600.54</ele>
  <time>2026-08-28T19:13:09Z</time>
  <course>9.19</course>
  <speed>0.17</speed>
  <fix>3d</fix>
</trkpt>
<trkpt lat="40.0728091" lon="-105.2306227">
  <ele>1600.31</ele>
  <time>2026-08-28T19:13:09Z</time>
  <course>248.0</course>
  <speed>0.18</speed>
  <fix>3d</fix>
</trkpt>
<trkpt lat="40.0728089" lon="-105.2306229">
  <ele>1600.56</ele>
  <time>2026-08-28T19:13:09Z</time>
  <course>9.19</course>
  <speed>0.17</speed>
  <fix>3d</fix>
</trkpt>
<trkpt lat="40.0728088" lon="-105.2306232">
  <ele>1600.67</ele>
  <time>2026-08-28T19:13:09Z</time>
  <course>9.18</course>
  <speed>0.17</speed>
  <fix>3d</fix>
</trkpt>
<trkpt lat="40.0728089" lon="-105.2306232">
  <ele>1600.44</ele>
  <time>2026-08-28T19:13:09Z</time>
  <course>248.53</course>
  <speed>0.18</speed>
  <fix>3d</fix>
</trkpt>
<trkpt lat="40.0728088" lon="-105.2306233">
  <ele>1600.69</ele>
  <time>2026-08-28T19:13:09Z</time>
  <course>9.19</course>
  <speed>0.17</speed>
  <fix>3d</fix>
</trkpt>
<trkpt lat="40.0728087" lon="-105.2306236">
  <ele>1600.79</ele>
  <time>2026-08-28T19:13:09Z</time>
  <course>9.19</course>
  <speed>0.17</speed>
  <fix>3d</fix>
</trkpt>
<trkpt lat="40.0728088" lon="-105.2306236">
  <ele>1600.57</ele>
  <time>2026-08-28T19:13:09Z</time>
  <course>249.04</course>
  <speed>0.18</speed>
  <fix>3d</fix>
</trkpt>
<trkpt lat="40.0728086" lon="-105.2306237">
  <ele>1600.81</ele>
  <time>2026-08-28T19:13:09Z</time>
  <course>9.2</course>
  <speed>0.17</speed>
  <fix>3d</fix>
</trkpt>
<trkpt lat="40.0728085" lon="-105.2306241">
  <ele>1600.92</ele>
  <time>2026-08-28T19:13:09Z</time>
  <course>9.21</course>
  <speed>0.16552945357246848</speed>
  <fix>3d</fix>
</trkpt>
<trkpt lat="40.0728087" lon="-105.2306239">
  <ele>1600.69</ele>
  <time>2026-08-28T19:13:09Z</time>
  <course>249.54</course>
  <speed>0.18</speed>
  <fix>3d</fix>
</trkpt>
<trkpt lat="40.0728085" lon="-105.2306241">
  <ele>1600.92</ele>
  <time>2026-08-28T19:13:09Z</time>
  <course>9.21</course>
  <speed>0.16552945357246848</speed>
  <fix>3d</fix>
</trkpt>
<trkpt lat="40.0728084" lon="-105.2306245">
  <ele>1601.05</ele>
  <time>2026-08-28T19:13:09Z</time>
  <course>9.23</course>
  <speed>0.16552945357246848</speed>
  <fix>3d</fix>
</trkpt>
<trkpt lat="40.0728086" lon="-105.2306244">
  <ele>1600.82</ele>
  <time>2026-08-28T19:13:09Z</time>
  <course>250.04</course>
  <speed>0.18</speed>
  <fix>3d</fix>
</trkpt>
<trkpt lat="40.0728084" lon="-105.2306245">
  <ele>1601.07</ele>
  <time>2026-08-28T19:13:09Z</time>
  <course>9.23</course>
  <speed>0.16552945357246848</speed>
  <fix>3d</fix>
</trkpt>
<trkpt lat="40.0728083" lon="-105.2306249">
  <ele>1601.18</ele>
  <time>2026-08-28T19:13:09Z</time>
  <course>9.28</course>
  <speed>0.16552945357246848</speed>
  <fix>3d</fix>
</trkpt>
<trkpt lat="40.0728085" lon="-105.2306247">
  <ele>1600.95</ele>
  <time>2026-08-28T19:13:09Z</time>
  <course>250.54</course>
  <speed>0.18</speed>
  <fix>3d</fix>
</trkpt>
<trkpt lat="40.0728083" lon="-105.2306249">
  <ele>1601.2</ele>
  <time>2026-08-28T19:13:09Z</time>
  <course>9.28</course>
  <speed>0.16552945357246848</speed>
  <fix>3d</fix>
</trkpt>
<trkpt lat="40.0728082" lon="-105.2306253">
  <ele>1601.31</ele>
  <time>2026-08-28T19:13:09Z</time>
  <course>9.3</course>
  <speed>0.16552945357246848</speed>
  <fix>3d</fix>
</trkpt>
<trkpt lat="40.0728084" lon="-105.2306251">
  <ele>1601.08</ele>
  <time>2026-08-28T19:13:09Z</time>
  <course>250.99</course>
  <speed>0.18</speed>
  <fix>3d</fix>
</trkpt>
<trkpt lat="40.0728082" lon="-105.2306253">
  <ele>1601.33</ele>
  <time>2026-08-28T19:13:09Z</time>
  <course>9.3</course>
  <speed>0.16552945357246848</speed>
  <fix>3d</fix>
</trkpt>
<trkpt lat="40.0728081" lon="-105.2306257">
  <ele>1601.44</ele>
  <time>2026-08-28T19:13:10Z</time>
  <course>9.31</course>
  <speed>0.16552945357246848</speed>
  <fix>3d</fix>
</trkpt>
<trkpt lat="40.0728083" lon="-105.2306256">
  <ele>1601.2</ele>
  <time>2026-08-28T19:13:10Z</time>
  <course>251.43</course>
  <speed>0.18</speed>
  <fix>3d</fix>
</trkpt>
<trkpt lat="40.0728081" lon="-105.2306257">
  <ele>1601.46</ele>
  <time>2026-08-28T19:13:10Z</time>
  <course>9.31</course>
  <speed>0.16552945357246848</speed>
  <fix>3d</fix>
</trkpt>
<trkpt lat="40.072808" lon="-105.2306261">
  <ele>1601.57</ele>
  <time>2026-08-28T19:13:10Z</time>
  <course>9.34</course>
  <speed>0.16552945357246848</speed>
  <fix>3d</fix>
</trkpt>
<trkpt lat="40.0728081" lon="-105.230626">
  <ele>1601.33</ele>
  <time>2026-08-28T19:13:10Z</time>
  <course>251.89</course>
  <speed>0.18</speed>
  <fix>3d</fix>
</trkpt>
<trkpt lat="40.072808" lon="-105.2306261">
  <ele>1601.57</ele>
  <time>2026-08-28T19:13:10Z</time>
  <course>9.34</course>
  <speed>0.16552945357246848</speed>
  <fix>3d</fix>
</trkpt>
<trkpt lat="40.0728079" lon="-105.2306265">
  <ele>1601.7</ele>
  <time>2026-08-28T19:13:10Z</time>
  <course>9.35</course>
  <speed>0.1615549442140351</speed>
  <fix>3d</fix>
</trkpt>
<trkpt lat="40.072808" lon="-105.2306263">
  <ele>1601.46</ele>
  <time>2026-08-28T19:13:10Z</time>
  <course>252.39</course>
  <speed>0.18</speed>
  <fix>3d</fix>
</trkpt>
<trkpt lat="40.0728079" lon="-105.2306266">
  <ele>1601.72</ele>
  <time>2026-08-28T19:13:10Z</time>
  <course>9.35</course>
  <speed>0.1615549442140351</speed>
  <fix>3d</fix>
</trkpt>
<trkpt lat="40.0728078" lon="-105.2306269">
  <ele>1601.83</ele>
  <time>2026-08-28T19:13:10Z</time>
  <course>9.4</course>
  <speed>0.1615549442140351</speed>
  <fix>3d</fix>
</trkpt>
<trkpt lat="40.0728079" lon="-105.2306268">
  <ele>1601.58</ele>
  <time>2026-08-28T19:13:10Z</time>
  <course>252.92</course>
  <speed>0.18</speed>
  <fix>3d</fix>
</trkpt>
<trkpt lat="40.0728078" lon="-105.230627">
  <ele>1601.85</ele>
  <time>2026-08-28T19:13:10Z</time>
  <course>9.4</course>
  <speed>0.1615549442140351</speed>
  <fix>3d</fix>
</trkpt>
<trkpt lat="40.0728077" lon="-105.2306273">
  <ele>1601.96</ele>
  <time>2026-08-28T19:13:10Z</time>
  <course>9.42</course>
  <speed>0.1615549442140351</speed>
  <fix>3d</fix>
</trkpt>
<trkpt lat="40.0728079" lon="-105.2306272">
  <ele>1601.7</ele>
  <time>2026-08-28T19:13:10Z</time>
  <course>253.41</course>
  <speed>0.18</speed>
  <fix>3d</fix>
</trkpt>
<trkpt lat="40.0728077" lon="-105.2306274">
  <ele>1601.97</ele>
  <time>2026-08-28T19:13:10Z</time>
  <course>9.42</course>
  <speed>0.1615549442140351</speed>
  <fix>3d</fix>
</trkpt>
<trkpt lat="40.0728076" lon="-105.2306277">
  <ele>1602.08</ele>
  <time>2026-08-28T19:13:10Z</time>
  <course>9.42</course>
  <speed>0.1615549442140351</speed>
  <fix>3d</fix>
</trkpt>
<trkpt lat="40.0728078" lon="-105.2306277">
  <ele>1601.83</ele>
  <time>2026-08-28T19:13:10Z</time>
  <course>253.85</course>
  <speed>0.18</speed>
  <fix>3d</fix>
</trkpt>
<trkpt lat="40.0728076" lon="-105.2306277">
  <ele>1602.08</ele>
  <time>2026-08-28T19:13:10Z</time>
  <course>9.42</course>
  <speed>0.1615549442140351</speed>
  <fix>3d</fix>
</trkpt>
<trkpt lat="40.0728076" lon="-105.2306281">
  <ele>1602.2</ele>
  <time>2026-08-28T19:13:10Z</time>
  <course>9.42</course>
  <speed>0.1615549442140351</speed>
  <fix>3d</fix>
</trkpt>
<trkpt lat="40.0728077" lon="-105.230628">
  <ele>1601.95</ele>
  <time>2026-08-28T19:13:10Z</time>
  <course>254.28</course>
  <speed>0.17</speed>
  <fix>3d</fix>
</trkpt>
<trkpt lat="40.0728075" lon="-105.2306282">
  <ele>1602.22</ele>
  <time>2026-08-28T19:13:10Z</time>
  <course>9.43</course>
  <speed>0.1615549442140351</speed>
  <fix>3d</fix>
</trkpt>
<trkpt lat="40.0728075" lon="-105.2306285">
  <ele>1602.32</ele>
  <time>2026-08-28T19:13:10Z</time>
  <course>9.44</course>
  <speed>0.1615549442140351</speed>
  <fix>3d</fix>
</trkpt>
<trkpt lat="40.0728076" lon="-105.2306285">
  <ele>1602.07</ele>
  <time>2026-08-28T19:13:10Z</time>
  <course>254.75</course>
  <speed>0.17</speed>
  <fix>3d</fix>
</trkpt>
<trkpt lat="40.0728075" lon="-105.2306285">
  <ele>1602.32</ele>
  <time>2026-08-28T19:13:10Z</time>
  <course>9.44</course>
  <speed>0.1615549442140351</speed>
  <fix>3d</fix>
</trkpt>
<trkpt lat="40.0728074" lon="-105.2306289">
  <ele>1602.44</ele>
  <time>2026-08-28T19:13:10Z</time>
  <course>9.43</course>
  <speed>0.1615549442140351</speed>
  <fix>3d</fix>
</trkpt>
<trkpt lat="40.0728075" lon="-105.2306289">
  <ele>1602.19</ele>
  <time>2026-08-28T19:13:10Z</time>
  <course>255.26</course>
  <speed>0.17</speed>
  <fix>3d</fix>
</trkpt>
<trkpt lat="40.0728074" lon="-105.230629">
  <ele>1602.46</ele>
  <time>2026-08-28T19:13:10Z</time>
  <course>9.43</course>
  <speed>0.1615549442140351</speed>
  <fix>3d</fix>
</trkpt>
<trkpt lat="40.0728073" lon="-105.2306293">
  <ele>1602.56</ele>
  <time>2026-08-28T19:13:10Z</time>
  <course>9.43</course>
  <speed>0.15811388300841897</speed>
  <fix>3d</fix>
</trkpt>
<trkpt lat="40.0728074" lon="-105.2306293">
  <ele>1602.31</ele>
  <time>2026-08-28T19:13:10Z</time>
  <course>255.78</course>
  <speed>0.17</speed>
  <fix>3d</fix>
</trkpt>
<trkpt lat="40.0728073" lon="-105.2306294">
  <ele>1602.58</ele>
  <time>2026-08-28T19:13:10Z</time>
  <course>9.44</course>
  <speed>0.15811388300841897</speed>
  <fix>3d</fix>
</trkpt>
<trkpt lat="40.0728072" lon="-105.2306298">
  <ele>1602.68</ele>
  <time>2026-08-28T19:13:10Z</time>
  <course>9.43</course>
  <speed>0.15811388300841897</speed>
  <fix>3d</fix>
</trkpt>
<trkpt lat="40.0728073" lon="-105.2306297">
  <ele>1602.43</ele>
  <time>2026-08-28T19:13:10Z</time>
  <course>256.3</course>
  <speed>0.17</speed>
  <fix>3d</fix>
</trkpt>
<trkpt lat="40.0728072" lon="-105.2306298">
  <ele>1602.68</ele>
  <time>2026-08-28T19:13:10Z</time>
  <course>9.43</course>
  <speed>0.15811388300841897</speed>
  <fix>3d</fix>
</trkpt>
<trkpt lat="40.0728072" lon="-105.2306302">
  <ele>1602.81</ele>
  <time>2026-08-28T19:13:10Z</time>
  <course>9.43</course>
  <speed>0.15811388300841897</speed>
  <fix>3d</fix>
</trkpt>
<trkpt lat="40.0728073" lon="-105.2306301">
  <ele>1602.56</ele>
  <time>2026-08-28T19:13:10Z</time>
  <course>256.77</course>
  <speed>0.17</speed>
  <fix>3d</fix>
</trkpt>
<trkpt lat="40.0728071" lon="-105.2306302">
  <ele>1602.82</ele>
  <time>2026-08-28T19:13:10Z</time>
  <course>9.43</course>
  <speed>0.15811388300841897</speed>
  <fix>3d</fix>
</trkpt>
<trkpt lat="40.0728071" lon="-105.2306306">
  <ele>1602.93</ele>
  <time>2026-08-28T19:13:10Z</time>
  <course>9.46</course>
  <speed>0.15811388300841897</speed>
  <fix>3d</fix>
</trkpt>
<trkpt lat="40.0728072" lon="-105.2306304">
  <ele>1602.68</ele>
  <time>2026-08-28T19:13:10Z</time>
  <course>257.2</course>
  <speed>0.17</speed>
  <fix>3d</fix>
</trkpt>
<trkpt lat="40.0728071" lon="-105.2306306">
  <ele>1602.94</ele>
  <time>2026-08-28T19:13:10Z</time>
  <course>9.46</course>
  <speed>0.15811388300841897</speed>
  <fix>3d</fix>
</trkpt>
<trkpt lat="40.072807" lon="-105.230631">
  <ele>1603.06</ele>
  <time>2026-08-28T19:13:10Z</time>
  <course>9.47</course>
  <speed>0.15811388300841897</speed>
  <fix>3d</fix>
</trkpt>
<trkpt lat="40.0728072" lon="-105.2306309">
  <ele>1602.81</ele>
  <time>2026-08-28T19:13:10Z</time>
  <course>257.61</course>
  <speed>0.17</speed>
  <fix>3d</fix>
</trkpt>
<trkpt lat="40.072807" lon="-105.230631">
  <ele>1603.08</ele>
  <time>2026-08-28T19:13:10Z</time>
  <course>9.48</course>
  <speed>0.15811388300841897</speed>
  <fix>3d</fix>
</trkpt>
<trkpt lat="40.072807" lon="-105.2306314">
  <ele>1603.19</ele>
  <time>2026-08-28T19:13:10Z</time>
  <course>9.47</course>
  <speed>0.15811388300841897</speed>
  <fix>3d</fix>
</trkpt>
<trkpt lat="40.0728071" lon="-105.2306313">
  <ele>1602.93</ele>
  <time>2026-08-28T19:13:10Z</time>
  <course>258.01</course>
  <speed>0.17</speed>
  <fix>3d</fix>
</trkpt>
<trkpt lat="40.072807" lon="-105.2306314">
  <ele>1603.2</ele>
  <time>2026-08-28T19:13:10Z</time>
  <course>9.47</course>
  <speed>0.15811388300841897</speed>
  <fix>3d</fix>
</trkpt>
<trkpt lat="40.0728069" lon="-105.2306318">
  <ele>1603.31</ele>
  <time>2026-08-28T19:13:10Z</time>
  <course>9.51</course>
  <speed>0.15811388300841897</speed>
  <fix>3d</fix>
</trkpt>
<trkpt lat="40.072807" lon="-105.2306317">
  <ele>1603.06</ele>
  <time>2026-08-28T19:13:10Z</time>
  <course>258.43</course>
  <speed>0.17</speed>
  <fix>3d</fix>
</trkpt>
<trkpt lat="40.0728069" lon="-105.2306318">
  <ele>1603.33</ele>
  <time>2026-08-28T19:13:10Z</time>
  <course>9.51</course>
  <speed>0.15811388300841897</speed>
  <fix>3d</fix>
</trkpt>
<trkpt lat="40.0728068" lon="-105.2306322">
  <ele>1603.44</ele>
  <time>2026-08-28T19:13:10Z</time>
  <course>9.52</course>
  <speed>0.15524174696260024</speed>
  <fix>3d</fix>
</trkpt>
<trkpt lat="40.072807" lon="-105.230632">
  <ele>1603.19</ele>
  <time>2026-08-28T19:13:10Z</time>
  <course>258.82</course>
  <speed>0.17</speed>
  <fix>3d</fix>
</trkpt>
<trkpt lat="40.0728068" lon="-105.2306322">
  <ele>1603.44</ele>
  <time>2026-08-28T19:13:10Z</time>
  <course>9.52</course>
  <speed>0.15524174696260024</speed>
  <fix>3d</fix>
</trkpt>
<trkpt lat="40.0728068" lon="-105.2306326">
  <ele>1603.57</ele>
  <time>2026-08-28T19:13:10Z</time>
  <course>9.52</course>
  <speed>0.15524174696260024</speed>
  <fix>3d</fix>
</trkpt>
<trkpt lat="40.0728069" lon="-105.2306325">
  <ele>1603.31</ele>
  <time>2026-08-28T19:13:10Z</time>
  <course>259.17</course>
  <speed>0.17</speed>
  <fix>3d</fix>
</trkpt>
<trkpt lat="40.0728068" lon="-105.2306326">
  <ele>1603.59</ele>
  <time>2026-08-28T19:13:10Z</time>
  <course>9.53</course>
  <speed>0.15524174696260024</speed>
  <fix>3d</fix>
</trkpt>
<trkpt lat="40.0728067" lon="-105.230633">
  <ele>1603.7</ele>
  <time>2026-08-28T19:13:10Z</time>
  <course>9.54</course>
  <speed>0.15524174696260024</speed>
  <fix>3d</fix>
</trkpt>
<trkpt lat="40.0728068" lon="-105.2306328">
  <ele>1603.44</ele>
  <time>2026-08-28T19:13:10Z</time>
  <course>259.51</course>
  <speed>0.17</speed>
  <fix>3d</fix>
</trkpt>
<trkpt lat="40.0728067" lon="-105.230633">
  <ele>1603.7</ele>
  <time>2026-08-28T19:13:10Z</time>
  <course>9.54</course>
  <speed>0.15524174696260024</speed>
  <fix>3d</fix>
</trkpt>
<trkpt lat="40.0728067" lon="-105.2306334">
  <ele>1603.82</ele>
  <time>2026-08-28T19:13:10Z</time>
  <course>9.56</course>
  <speed>0.15524174696260024</speed>
  <fix>3d</fix>
</trkpt>
<trkpt lat="40.0728067" lon="-105.2306332">
  <ele>1603.56</ele>
  <time>2026-08-28T19:13:10Z</time>
  <course>259.84</course>
  <speed>0.17</speed>
  <fix>3d</fix>
</trkpt>
<trkpt lat="40.0728067" lon="-105.2306334">
  <ele>1603.84</ele>
  <time>2026-08-28T19:13:10Z</time>
  <course>9.56</course>
  <speed>0.15524174696260024</speed>
  <fix>3d</fix>
</trkpt>
<trkpt lat="40.0728066" lon="-105.2306338">
  <ele>1603.95</ele>
  <time>2026-08-28T19:13:10Z</time>
  <course>9.56</course>
  <speed>0.15524174696260024</speed>
  <fix>3d</fix>
</trkpt>
<trkpt lat="40.0728067" lon="-105.2306337">
  <ele>1603.69</ele>
  <time>2026-08-28T19:13:10Z</time>
  <course>260.15</course>
  <speed>0.17</speed>
  <fix>3d</fix>
</trkpt>
<trkpt lat="40.0728066" lon="-105.2306338">
  <ele>1603.95</ele>
  <time>2026-08-28T19:13:10Z</time>
  <course>9.56</course>
  <speed>0.15524174696260024</speed>
  <fix>3d</fix>
</trkpt>
<trkpt lat="40.0728066" lon="-105.2306342">
  <ele>1604.07</ele>
  <time>2026-08-28T19:13:10Z</time>
  <course>9.56</course>
  <speed>0.15524174696260024</speed>
  <fix>3d</fix>
</trkpt>
<trkpt lat="40.0728067" lon="-105.2306341">
  <ele>1603.81</ele>
  <time>2026-08-28T19:13:10Z</time>
  <course>260.47</course>
  <speed>0.17</speed>
  <fix>3d</fix>
</trkpt>
<trkpt lat="40.0728066" lon="-105.2306343">
  <ele>1604.09</ele>
  <time>2026-08-28T19:13:10Z</time>
  <course>9.57</course>
  <speed>0.15524174696260024</speed>
  <fix>3d</fix>
</trkpt>
<trkpt lat="40.0728065" lon="-105.2306346">
  <ele>1604.2</ele>
  <time>2026-08-28T19:13:10Z</time>
  <course>9.58</course>
  <speed>0.15524174696260024</speed>
  <fix>3d</fix>
</trkpt>
<trkpt lat="40.0728066" lon="-105.2306344">
  <ele>1603.94</ele>
  <time>2026-08-28T19:13:10Z</time>
  <course>260.85</course>
  <speed>0.17</speed>
  <fix>3d</fix>
</trkpt>
<trkpt lat="40.0728065" lon="-105.2306347">
  <ele>1604.22</ele>
  <time>2026-08-28T19:13:10Z</time>
  <course>9.58</course>
  <speed>0.15524174696260024</speed>
  <fix>3d</fix>
</trkpt>
<trkpt lat="40.0728065" lon="-105.230635">
  <ele>1604.33</ele>
  <time>2026-08-28T19:13:10Z</time>
  <course>9.59</course>
  <speed>0.15524174696260024</speed>
  <fix>3d</fix>
</trkpt>
<trkpt lat="40.0728066" lon="-105.2306349">
  <ele>1604.06</ele>
  <time>2026-08-28T19:13:10Z</time>
  <course>261.29</course>
  <speed>0.17</speed>
  <fix>3d</fix>
</trkpt>
<trkpt lat="40.0728065" lon="-105.230635">
  <ele>1604.33</ele>
  <time>2026-08-28T19:13:10Z</time>
  <course>9.59</course>
  <speed>0.15524174696260024</speed>
  <fix>3d</fix>
</trkpt>
<trkpt lat="40.0728064" lon="-105.2306354">
  <ele>1604.45</ele>
  <time>2026-08-28T19:13:10Z</time>
  <course>9.6</course>
  <speed>0.15524174696260024</speed>
  <fix>3d</fix>
</trkpt>
<trkpt lat="40.0728065" lon="-105.2306353">
  <ele>1604.19</ele>
  <time>2026-08-28T19:13:10Z</time>
  <course>261.81</course>
  <speed>0.17</speed>
  <fix>3d</fix>
</trkpt>
<trkpt lat="40.0728064" lon="-105.2306355">
  <ele>1604.47</ele>
  <time>2026-08-28T19:13:10Z</time>
  <course>9.61</course>
  <speed>0.15297058540778355</speed>
  <fix>3d</fix>
</trkpt>
<trkpt lat="40.0728064" lon="-105.2306358">
  <ele>1604.58</ele>
  <time>2026-08-28T19:13:10Z</time>
  <course>9.6</course>
  <speed>0.15297058540778355</speed>
  <fix>3d</fix>
</trkpt>
<trkpt lat="40.0728065" lon="-105.2306357">
  <ele>1604.31</ele>
  <time>2026-08-28T19:13:10Z</time>
  <course>262.38</course>
  <speed>0.17</speed>
  <fix>3d</fix>
</trkpt>
<trkpt lat="40.0728064" lon="-105.2306358">
  <ele>1604.58</ele>
  <time>2026-08-28T19:13:10Z</time>
  <course>9.6</course>
  <speed>0.15297058540778355</speed>
  <fix>3d</fix>
</trkpt>
<trkpt lat="40.0728063" lon="-105.2306362">
  <ele>1604.7</ele>
  <time>2026-08-28T19:13:10Z</time>
  <course>9.64</course>
  <speed>0.15297058540778355</speed>
  <fix>3d</fix>
</trkpt>
<trkpt lat="40.0728065" lon="-105.2306361">
  <ele>1604.44</ele>
  <time>2026-08-28T19:13:10Z</time>
  <course>262.9</course>
  <speed>0.17</speed>
  <fix>3d</fix>
</trkpt>
<trkpt lat="40.0728063" lon="-105.2306363">
  <ele>1604.72</ele>
  <time>2026-08-28T19:13:10Z</time>
  <course>9.64</course>
  <speed>0.15297058540778355</speed>
  <fix>3d</fix>
</trkpt>
<trkpt lat="40.0728063" lon="-105.2306366">
  <ele>1604.82</ele>
  <time>2026-08-28T19:13:10Z</time>
  <course>9.63</course>
  <speed>0.15297058540778355</speed>
  <fix>3d</fix>
</trkpt>
<trkpt lat="40.0728064" lon="-105.2306366">
  <ele>1604.56</ele>
  <time>2026-08-28T19:13:10Z</time>
  <course>263.25</course>
  <speed>0.17</speed>
  <fix>3d</fix>
</trkpt>
<trkpt lat="40.0728063" lon="-105.2306367">
  <ele>1604.84</ele>
  <time>2026-08-28T19:13:10Z</time>
  <course>9.64</course>
  <speed>0.15297058540778355</speed>
  <fix>3d</fix>
</trkpt>
<trkpt lat="40.0728063" lon="-105.230637">
  <ele>1604.94</ele>
  <time>2026-08-28T19:13:10Z</time>
  <course>9.61</course>
  <speed>0.15297058540778355</speed>
  <fix>3d</fix>
</trkpt>
<trkpt lat="40.0728064" lon="-105.230637">
  <ele>1604.69</ele>
  <time>2026-08-28T19:13:10Z</time>
  <course>263.5</course>
  <speed>0.17</speed>
  <fix>3d</fix>
</trkpt>
<trkpt lat="40.0728063" lon="-105.2306371">
  <ele>1604.96</ele>
  <time>2026-08-28T19:13:10Z</time>
  <course>9.61</course>
  <speed>0.15297058540778355</speed>
  <fix>3d</fix>
</trkpt>
<trkpt lat="40.0728063" lon="-105.2306374">
  <ele>1605.06</ele>
  <time>2026-08-28T19:13:10Z</time>
  <course>9.63</course>
  <speed>0.15297058540778355</speed>
  <fix>3d</fix>
</trkpt>
<trkpt lat="40.0728064" lon="-105.2306373">
  <ele>1604.81</ele>
  <time>2026-08-28T19:13:10Z</time>
  <course>263.77</course>
  <speed>0.17</speed>
  <fix>3d</fix>
</trkpt>
<trkpt lat="40.0728062" lon="-105.2306375">
  <ele>1605.08</ele>
  <time>2026-08-28T19:13:10Z</time>
  <course>9.62</course>
  <speed>0.15297058540778355</speed>
  <fix>3d</fix>
</trkpt>
<trkpt lat="40.0728062" lon="-105.2306379">
  <ele>1605.18</ele>
  <time>2026-08-28T19:13:10Z</time>
  <course>9.61</course>
  <speed>0.15297058540778355</speed>
  <fix>3d</fix>
</trkpt>
<trkpt lat="40.0728063" lon="-105.2306378">
  <ele>1604.94</ele>
  <time>2026-08-28T19:13:10Z</time>
  <course>264.08</course>
  <speed>0.17</speed>
  <fix>3d</fix>
</trkpt>
<trkpt lat="40.0728062" lon="-105.2306379">
  <ele>1605.18</ele>
  <time>2026-08-28T19:13:10Z</time>
  <course>9.61</course>
  <speed>0.15297058540778355</speed>
  <fix>3d</fix>
</trkpt>
<trkpt lat="40.0728062" lon="-105.2306383">
  <ele>1605.31</ele>
  <time>2026-08-28T19:13:10Z</time>
  <course>9.61</course>
  <speed>0.15297058540778355</speed>
  <fix>3d</fix>
</trkpt>
<trkpt lat="40.0728062" lon="-105.2306381">
  <ele>1605.06</ele>
  <time>2026-08-28T19:13:10Z</time>
  <course>264.43</course>
  <speed>0.17</speed>
  <fix>3d</fix>
</trkpt>
<trkpt lat="40.0728062" lon="-105.2306383">
  <ele>1605.32</ele>
  <time>2026-08-28T19:13:10Z</time>
  <course>9.61</course>
  <speed>0.15297058540778355</speed>
  <fix>3d</fix>
</trkpt>
<trkpt lat="40.0728062" lon="-105.2306387">
  <ele>1605.44</ele>
  <time>2026-08-28T19:13:10Z</time>
  <course>9.64</course>
  <speed>0.15297058540778355</speed>
  <fix>3d</fix>
</trkpt>
<trkpt lat="40.0728062" lon="-105.2306385">
  <ele>1605.19</ele>
  <time>2026-08-28T19:13:10Z</time>
  <course>264.79</course>
  <speed>0.17</speed>
  <fix>3d</fix>
</trkpt>
<trkpt lat="40.0728062" lon="-105.2306387">
  <ele>1605.46</ele>
  <time>2026-08-28T19:13:10Z</time>
  <course>9.64</course>
  <speed>0.15297058540778355</speed>
  <fix>3d</fix>
</trkpt>
<trkpt lat="40.0728061" lon="-105.2306391">
  <ele>1605.57</ele>
  <time>2026-08-28T19:13:10Z</time>
  <course>9.64</course>
  <speed>0.15297058540778355</speed>
  <fix>3d</fix>
</trkpt>
<trkpt lat="40.0728062" lon="-105.230639">
  <ele>1605.32</ele>
  <time>2026-08-28T19:13:10Z</time>
  <course>265.14</course>
  <speed>0.17</speed>
  <fix>3d</fix>
</trkpt>
<trkpt lat="40.0728061" lon="-105.2306391">
  <ele>1605.59</ele>
  <time>2026-08-28T19:13:10Z</time>
  <course>9.65</course>
  <speed>0.15297058540778355</speed>
  <fix>3d</fix>
</trkpt>
<trkpt lat="40.0728061" lon="-105.2306395">
  <ele>1605.7</ele>
  <time>2026-08-28T19:13:10Z</time>
  <course>9.66</course>
  <speed>0.15132745950421556</speed>
  <fix>3d</fix>
</trkpt>
<trkpt lat="40.0728061" lon="-105.2306394">
  <ele>1605.45</ele>
  <time>2026-08-28T19:13:10Z</time>
  <course>265.49</course>
  <speed>0.17</speed>
  <fix>3d</fix>
</trkpt>
<trkpt lat="40.0728061" lon="-105.2306395">
  <ele>1605.72</ele>
  <time>2026-08-28T19:13:10Z</time>
  <course>9.66</course>
  <speed>0.15132745950421556</speed>
  <fix>3d</fix>
</trkpt>
<trkpt lat="40.0728061" lon="-105.2306399">
  <ele>1605.83</ele>
  <time>2026-08-28T19:13:10Z</time>
  <course>9.69</course>
  <speed>0.15132745950421556</speed>
  <fix>3d</fix>
</trkpt>
<trkpt lat="40.0728061" lon="-105.2306397">
  <ele>1605.58</ele>
  <time>2026-08-28T19:13:10Z</time>
  <course>265.84</course>
  <speed>0.17</speed>
  <fix>3d</fix>
</trkpt>
<trkpt lat="40.0728061" lon="-105.2306399">
  <ele>1605.83</ele>
  <time>2026-08-28T19:13:10Z</time>
  <course>9.69</course>
  <speed>0.15132745950421556</speed>
  <fix>3d</fix>
</trkpt>
<trkpt lat="40.072806" lon="-105.2306403">
  <ele>1605.96</ele>
  <time>2026-08-28T19:13:10Z</time>
  <course>9.71</course>
  <speed>0.15132745950421556</speed>
  <fix>3d</fix>
</trkpt>
<trkpt lat="40.0728061" lon="-105.2306402">
  <ele>1605.71</ele>
  <time>2026-08-28T19:13:10Z</time>
  <course>266.19</course>
  <speed>0.17</speed>
  <fix>3d</fix>
</trkpt>
<trkpt lat="40.072806" lon="-105.2306404">
  <ele>1605.97</ele>
  <time>2026-08-28T19:13:10Z</time>
  <course>9.71</course>
  <speed>0.15132745950421556</speed>
  <fix>3d</fix>
</trkpt>
<trkpt lat="40.072806" lon="-105.2306407">
  <ele>1606.08</ele>
  <time>2026-08-28T19:13:10Z</time>
  <course>9.71</course>
  <speed>0.15132745950421556</speed>
  <fix>3d</fix>
</trkpt>
<trkpt lat="40.0728061" lon="-105.2306406">
  <ele>1605.83</ele>
  <time>2026-08-28T19:13:10Z</time>
  <course>266.54</course>
  <speed>0.17</speed>
  <fix>3d</fix>
</trkpt>
<trkpt lat="40.072806" lon="-105.2306408">
  <ele>1606.1</ele>
  <time>2026-08-28T19:13:10Z</time>
  <course>9.71</course>
  <speed>0.15132745950421556</speed>
  <fix>3d</fix>
</trkpt>
<trkpt lat="40.072806" lon="-105.2306411">
  <ele>1606.21</ele>
  <time>2026-08-28T19:13:10Z</time>
  <course>9.72</course>
  <speed>0.15132745950421556</speed>
  <fix>3d</fix>
</trkpt>
<trkpt lat="40.0728061" lon="-105.2306411">
  <ele>1605.96</ele>
  <time>2026-08-28T19:13:10Z</time>
  <course>266.87</course>
  <speed>0.17</speed>
  <fix>3d</fix>
</trkpt>
<trkpt lat="40.072806" lon="-105.2306412">
  <ele>1606.22</ele>
  <time>2026-08-28T19:13:10Z</time>
  <course>9.71</course>
  <speed>0.15132745950421556</speed>
  <fix>3d</fix>
</trkpt>
<trkpt lat="40.072806" lon="-105.2306415">
  <ele>1606.33</ele>
  <time>2026-08-28T19:13:10Z</time>
  <course>9.73</course>
  <speed>0.15132745950421556</speed>
  <fix>3d</fix>
</trkpt>
<trkpt lat="40.0728061" lon="-105.2306414">
  <ele>1606.09</ele>
  <time>2026-08-28T19:13:10Z</time>
  <course>267.2</course>
  <speed>0.17</speed>
  <fix>3d</fix>
</trkpt>
<trkpt lat="40.072806" lon="-105.2306416">
  <ele>1606.35</ele>
  <time>2026-08-28T19:13:10Z</time>
  <course>9.72</course>
  <speed>0.15132745950421556</speed>
  <fix>3d</fix>
</trkpt>
<trkpt lat="40.072806" lon="-105.2306419">
  <ele>1606.46</ele>
  <time>2026-08-28T19:13:10Z</time>
  <course>9.73</course>
  <speed>0.15132745950421556</speed>
  <fix>3d</fix>
</trkpt>
<trkpt lat="40.0728061" lon="-105.2306419">
  <ele>1606.21</ele>
  <time>2026-08-28T19:13:10Z</time>
  <course>267.55</course>
  <speed>0.17</speed>
  <fix>3d</fix>
</trkpt>
<trkpt lat="40.072806" lon="-105.2306419">
  <ele>1606.46</ele>
  <time>2026-08-28T19:13:10Z</time>
  <course>9.73</course>
  <speed>0.15132745950421556</speed>
  <fix>3d</fix>
</trkpt>
<trkpt lat="40.072806" lon="-105.2306424">
  <ele>1606.58</ele>
  <time>2026-08-28T19:13:10Z</time>
  <course>9.72</course>
  <speed>0.15132745950421556</speed>
  <fix>3d</fix>
</trkpt>
<trkpt lat="40.0728061" lon="-105.2306423">
  <ele>1606.34</ele>
  <time>2026-08-28T19:13:10Z</time>
  <course>267.93</course>
  <speed>0.17</speed>
  <fix>3d</fix>
</trkpt>
<trkpt lat="40.072806" lon="-105.2306424">
  <ele>1606.6</ele>
  <time>2026-08-28T19:13:10Z</time>
  <course>9.73</course>
  <speed>0.15132745950421556</speed>
  <fix>3d</fix>
</trkpt>
<trkpt lat="40.072806" lon="-105.2306428">
  <ele>1606.7</ele>
  <time>2026-08-28T19:13:10Z</time>
  <course>9.73</course>
  <speed>0.15132745950421556</speed>
  <fix>3d</fix>
</trkpt>
<trkpt lat="40.0728061" lon="-105.2306427">
  <ele>1606.46</ele>
  <time>2026-08-28T19:13:10Z</time>
  <course>268.21</course>
  <speed>0.17</speed>
  <fix>3d</fix>
</trkpt>
<trkpt lat="40.072806" lon="-105.2306429">
  <ele>1606.73</ele>
  <time>2026-08-28T19:13:10Z</time>
  <course>9.73</course>
  <speed>0.15132745950421556</speed>
  <fix>3d</fix>
</trkpt>
<trkpt lat="40.072806" lon="-105.2306432">
  <ele>1606.83</ele>
  <time>2026-08-28T19:13:10Z</time>
  <course>9.73</course>
  <speed>0.15132745950421556</speed>
  <fix>3d</fix>
</trkpt>
<trkpt lat="40.0728061" lon="-105.2306431">
  <ele>1606.59</ele>
  <time>2026-08-28T19:13:10Z</time>
  <course>268.44</course>
  <speed>0.17</speed>
  <fix>3d</fix>
</trkpt>
<trkpt lat="40.072806" lon="-105.2306432">
  <ele>1606.85</ele>
  <time>2026-08-28T19:13:10Z</time>
  <course>9.74</course>
  <speed>0.15132745950421556</speed>
  <fix>3d</fix>
</trkpt>
<trkpt lat="40.072806" lon="-105.2306436">
  <ele>1606.96</ele>
  <time>2026-08-28T19:13:10Z</time>
  <course>9.76</course>
  <speed>0.15033296378372907</speed>
  <fix>3d</fix>
</trkpt>
<trkpt lat="40.0728061" lon="-105.2306435">
  <ele>1606.71</ele>
  <time>2026-08-28T19:13:10Z</time>
  <course>268.71</course>
  <speed>0.17</speed>
  <fix>3d</fix>
</trkpt>
<trkpt lat="40.072806" lon="-105.2306437">
  <ele>1606.98</ele>
  <time>2026-08-28T19:13:10Z</time>
  <course>9.76</course>
  <speed>0.15033296378372907</speed>
  <fix>3d</fix>
</trkpt>
<trkpt lat="40.072806" lon="-105.230644">
  <ele>1607.09</ele>
  <time>2026-08-28T19:13:10Z</time>
  <course>9.77</course>
  <speed>0.15033296378372907</speed>
  <fix>3d</fix>
</trkpt>
<trkpt lat="40.0728061" lon="-105.2306438">
  <ele>1606.84</ele>
  <time>2026-08-28T19:13:10Z</time>
  <course>269.01</course>
  <speed>0.17</speed>
  <fix>3d</fix>
</trkpt>
<trkpt lat="40.072806" lon="-105.230644">
  <ele>1607.09</ele>
  <time>2026-08-28T19:13:10Z</time>
  <course>9.77</course>
  <speed>0.15033296378372907</speed>
  <fix>3d</fix>
</trkpt>
<trkpt lat="40.072806" lon="-105.2306444">
  <ele>1607.21</ele>
  <time>2026-08-28T19:13:10Z</time>
  <course>9.76</course>
  <speed>0.15033296378372907</speed>
  <fix>3d</fix>
</trkpt>
<trkpt lat="40.0728061" lon="-105.2306443">
  <ele>1606.97</ele>
  <time>2026-08-28T19:13:10Z</time>
  <course>269.32</course>
  <speed>0.17</speed>
  <fix>3d</fix>
</trkpt>
<trkpt lat="40.072806" lon="-105.2306445">
  <ele>1607.23</ele>
  <time>2026-08-28T19:13:10Z</time>
  <course>9.76</course>
  <speed>0.15033296378372907</speed>
  <fix>3d</fix>
</trkpt>
<trkpt lat="40.072806" lon="-105.2306448">
  <ele>1607.33</ele>
  <time>2026-08-28T19:13:10Z</time>
  <course>9.77</course>
  <speed>0.15033296378372907</speed>
  <fix>3d</fix>
</trkpt>
<trkpt lat="40.0728061" lon="-105.2306447">
  <ele>1607.09</ele>
  <time>2026-08-28T19:13:10Z</time>
  <course>269.62</course>
  <speed>0.17</speed>
  <fix>3d</fix>
</trkpt>
<trkpt lat="40.072806" lon="-105.2306449">
  <ele>1607.35</ele>
  <time>2026-08-28T19:13:10Z</time>
  <course>9.77</course>
  <speed>0.15033296378372907</speed>
  <fix>3d</fix>
</trkpt>
<trkpt lat="40.072806" lon="-105.2306452">
  <ele>1607.46</ele>
  <time>2026-08-28T19:13:10Z</time>
  <course>9.76</course>
  <speed>0.15033296378372907</speed>
  <fix>3d</fix>
</trkpt>
<trkpt lat="40.0728061" lon="-105.2306452">
  <ele>1607.22</ele>
  <time>2026-08-28T19:13:10Z</time>
  <course>269.87</course>
  <speed>0.17</speed>
  <fix>3d</fix>
</trkpt>
<trkpt lat="40.072806" lon="-105.2306453">
  <ele>1607.48</ele>
  <time>2026-08-28T19:13:10Z</time>
  <course>9.76</course>
  <speed>0.15033296378372907</speed>
  <fix>3d</fix>
</trkpt>
<trkpt lat="40.072806" lon="-105.2306456">
  <ele>1607.59</ele>
  <time>2026-08-28T19:13:10Z</time>
  <course>9.79</course>
  <speed>0.15033296378372907</speed>
  <fix>3d</fix>
</trkpt>
<trkpt lat="40.0728061" lon="-105.2306456">
  <ele>1607.34</ele>
  <time>2026-08-28T19:13:10Z</time>
  <course>270.11</course>
  <speed>0.17</speed>
  <fix>3d</fix>
</trkpt>
<trkpt lat="40.072806" lon="-105.2306457">
  <ele>1607.61</ele>
  <time>2026-08-28T19:13:10Z</time>
  <course>9.78</course>
  <speed>0.15033296378372907</speed>
  <fix>3d</fix>
</trkpt>
<trkpt lat="40.072806" lon="-105.2306461">
  <ele>1607.72</ele>
  <time>2026-08-28T19:13:10Z</time>
  <course>9.8</course>
  <speed>0.15033296378372907</speed>
  <fix>3d</fix>
</trkpt>
<trkpt lat="40.0728061" lon="-105.2306459">
  <ele>1607.47</ele>
  <time>2026-08-28T19:13:10Z</time>
  <course>270.38</course>
  <speed>0.17</speed>
  <fix>3d</fix>
</trkpt>
<trkpt lat="40.072806" lon="-105.2306461">
  <ele>1607.74</ele>
  <time>2026-08-28T19:13:10Z</time>
  <course>9.8</course>
  <speed>0.15033296378372907</speed>
  <fix>3d</fix>
</trkpt>
<trkpt lat="40.072806" lon="-105.2306465">
  <ele>1607.84</ele>
  <time>2026-08-28T19:13:10Z</time>
  <course>9.8</course>
  <speed>0.15033296378372907</speed>
  <fix>3d</fix>
</trkpt>
<trkpt lat="40.0728061" lon="-105.2306464">
  <ele>1607.6</ele>
  <time>2026-08-28T19:13:10Z</time>
  <course>270.72</course>
  <speed>0.17</speed>
  <fix>3d</fix>
</trkpt>
<trkpt lat="40.072806" lon="-105.2306465">
  <ele>1607.84</ele>
  <time>2026-08-28T19:13:10Z</time>
  <course>9.8</course>
  <speed>0.15033296378372907</speed>
  <fix>3d</fix>
</trkpt>
<trkpt lat="40.072806" lon="-105.2306469">
  <ele>1607.97</ele>
  <time>2026-08-28T19:13:10Z</time>
  <course>9.8</course>
  <speed>0.15033296378372907</speed>
  <fix>3d</fix>
</trkpt>
<trkpt lat="40.0728061" lon="-105.2306467">
  <ele>1607.72</ele>
  <time>2026-08-28T19:13:10Z</time>
  <course>271.09</course>
  <speed>0.17</speed>
  <fix>3d</fix>
</trkpt>
<trkpt lat="40.072806" lon="-105.2306469">
  <ele>1607.98</ele>
  <time>2026-08-28T19:13:10Z</time>
  <course>9.8</course>
  <speed>0.15033296378372907</speed>
  <fix>3d</fix>
</trkpt>
<trkpt lat="40.072806" lon="-105.2306473">
  <ele>1608.09</ele>
  <time>2026-08-28T19:13:10Z</time>
  <course>9.8</course>
  <speed>0.15033296378372907</speed>
  <fix>3d</fix>
</trkpt>
<trkpt lat="40.0728061" lon="-105.2306471">
  <ele>1607.85</ele>
  <time>2026-08-28T19:13:10Z</time>
  <course>271.43</course>
  <speed>0.17</speed>
  <fix>3d</fix>
</trkpt>
<trkpt lat="40.072806" lon="-105.2306473">
  <ele>1608.11</ele>
  <time>2026-08-28T19:13:10Z</time>
  <course>9.8</course>
  <speed>0.15033296378372907</speed>
  <fix>3d</fix>
</trkpt>
<trkpt lat="40.072806" lon="-105.2306477">
  <ele>1608.22</ele>
  <time>2026-08-28T19:13:10Z</time>
  <course>9.81</course>
  <speed>0.15033296378372907</speed>
  <fix>3d</fix>
</trkpt>
<trkpt lat="40.0728061" lon="-105.2306476">
  <ele>1607.97</ele>
  <time>2026-08-28T19:13:10Z</time>
  <course>271.69</course>
  <speed>0.17</speed>
  <fix>3d</fix>
</trkpt>
<trkpt lat="40.072806" lon="-105.2306477">
  <ele>1608.24</ele>
  <time>2026-08-28T19:13:10Z</time>
  <course>9.81</course>
  <speed>0.15033296378372907</speed>
  <fix>3d</fix>
</trkpt>
<trkpt lat="40.072806" lon="-105.2306481">
  <ele>1608.35</ele>
  <time>2026-08-28T19:13:10Z</time>
  <course>9.83</course>
  <speed>0.15033296378372907</speed>
  <fix>3d</fix>
</trkpt>
<trkpt lat="40.0728061" lon="-105.230648">
  <ele>1608.1</ele>
  <time>2026-08-28T19:13:10Z</time>
  <course>271.79</course>
  <speed>0.17</speed>
  <fix>3d</fix>
</trkpt>
<trkpt lat="40.072806" lon="-105.2306482">
  <ele>1608.37</ele>
  <time>2026-08-28T19:13:10Z</time>
  <course>9.82</course>
  <speed>0.15033296378372907</speed>
  <fix>3d</fix>
</trkpt>
<trkpt lat="40.072806" lon="-105.2306485">
  <ele>1608.48</ele>
  <time>2026-08-28T19:13:10Z</time>
  <course>9.83</course>
  <speed>0.15033296378372907</speed>
  <fix>3d</fix>
</trkpt>
<trkpt lat="40.0728061" lon="-105.2306483">
  <ele>1608.22</ele>
  <time>2026-08-28T19:13:10Z</time>
  <course>271.8</course>
  <speed>0.17</speed>
  <fix>3d</fix>
</trkpt>
<trkpt lat="40.072806" lon="-105.2306485">
  <ele>1608.48</ele>
  <time>2026-08-28T19:13:10Z</time>
  <course>9.83</course>
  <speed>0.15033296378372907</speed>
  <fix>3d</fix>
</trkpt>
<trkpt lat="40.072806" lon="-105.2306489">
  <ele>1608.6</ele>
  <time>2026-08-28T19:13:10Z</time>
  <course>9.86</course>
  <speed>0.15033296378372907</speed>
  <fix>3d</fix>
</trkpt>
<trkpt lat="40.0728061" lon="-105.2306488">
  <ele>1608.35</ele>
  <time>2026-08-28T19:13:10Z</time>
  <course>271.87</course>
  <speed>0.17</speed>
  <fix>3d</fix>
</trkpt>
<trkpt lat="40.072806" lon="-105.230649">
  <ele>1608.62</ele>
  <time>2026-08-28T19:13:10Z</time>
  <course>9.85</course>
  <speed>0.15033296378372907</speed>
  <fix>3d</fix>
</trkpt>
<trkpt lat="40.072806" lon="-105.2306493">
  <ele>1608.72</ele>
  <time>2026-08-28T19:13:10Z</time>
  <course>9.83</course>
  <speed>0.15033296378372907</speed>
  <fix>3d</fix>
</trkpt>
<trkpt lat="40.0728061" lon="-105.2306493">
  <ele>1608.47</ele>
  <time>2026-08-28T19:13:10Z</time>
  <course>272.12</course>
  <speed>0.17</speed>
  <fix>3d</fix>
</trkpt>
<trkpt lat="40.072806" lon="-105.2306494">
  <ele>1608.74</ele>
  <time>2026-08-28T19:13:10Z</time>
  <course>9.84</course>
  <speed>0.15</speed>
  <fix>3d</fix>
</trkpt>
<trkpt lat="40.072806" lon="-105.2306497">
  <ele>1608.84</ele>
  <time>2026-08-28T19:13:10Z</time>
  <course>9.83</course>
  <speed>0.15</speed>
  <fix>3d</fix>
</trkpt>
<trkpt lat="40.0728061" lon="-105.2306496">
  <ele>1608.6</ele>
  <time>2026-08-28T19:13:10Z</time>
  <course>272.49</course>
  <speed>0.17</speed>
  <fix>3d</fix>
</trkpt>
<trkpt lat="40.072806" lon="-105.2306498">
  <ele>1608.86</ele>
  <time>2026-08-28T19:13:10Z</time>
  <course>9.83</course>
  <speed>0.15</speed>
  <fix>3d</fix>
</trkpt>
<trkpt lat="40.072806" lon="-105.2306501">
  <ele>1608.96</ele>
  <time>2026-08-28T19:13:10Z</time>
  <course>9.84</course>
  <speed>0.15</speed>
  <fix>3d</fix>
</trkpt>
<trkpt lat="40.0728061" lon="-105.23065">
  <ele>1608.72</ele>
  <time>2026-08-28T19:13:10Z</time>
  <course>272.87</course>
  <speed>0.17</speed>
  <fix>3d</fix>
</trkpt>
<trkpt lat="40.072806" lon="-105.2306501">
  <ele>1608.97</ele>
  <time>2026-08-28T19:13:10Z</time>
  <course>9.84</course>
  <speed>0.15</speed>
  <fix>3d</fix>
</trkpt>
<trkpt lat="40.072806" lon="-105.2306505">
  <ele>1609.09</ele>
  <time>2026-08-28T19:13:10Z</time>
  <course>9.83</course>
  <speed>0.15</speed>
  <fix>3d</fix>
</trkpt>
<trkpt lat="40.0728061" lon="-105.2306505">
  <ele>1608.84</ele>
  <time>2026-08-28T19:13:10Z</time>
  <course>273.17</course>
  <speed>0.17</speed>
  <fix>3d</fix>
</trkpt>
<trkpt lat="40.072806" lon="-105.2306506">
  <ele>1609.1</ele>
  <time>2026-08-28T19:13:10Z</time>
  <course>9.83</course>
  <speed>0.15</speed>
  <fix>3d</fix>
</trkpt>
<trkpt lat="40.072806" lon="-105.2306509">
  <ele>1609.21</ele>
  <time>2026-08-28T19:13:10Z</time>
  <course>9.84</course>
  <speed>0.15</speed>
  <fix>3d</fix>
</trkpt>
<trkpt lat="40.0728061" lon="-105.2306509">
  <ele>1608.97</ele>
  <time>2026-08-28T19:13:10Z</time>
  <course>273.36</course>
  <speed>0.17</speed>
  <fix>3d</fix>
</trkpt>
<trkpt lat="40.072806" lon="-105.2306509">
  <ele>1609.21</ele>
  <time>2026-08-28T19:13:10Z</time>
  <course>9.84</course>
  <speed>0.15</speed>
  <fix>3d</fix>
</trkpt>
<trkpt lat="40.072806" lon="-105.2306513">
  <ele>1609.33</ele>
  <time>2026-08-28T19:13:10Z</time>
  <course>9.82</course>
  <speed>0.15</speed>
  <fix>3d</fix>
</trkpt>
<trkpt lat="40.0728061" lon="-105.2306512">
  <ele>1609.09</ele>
  <time>2026-08-28T19:13:10Z</time>
  <course>273.55</course>
  <speed>0.17</speed>
  <fix>3d</fix>
</trkpt>
<trkpt lat="40.072806" lon="-105.2306514">
  <ele>1609.35</ele>
  <time>2026-08-28T19:13:10Z</time>
  <course>9.82</course>
  <speed>0.15</speed>
  <fix>3d</fix>
</trkpt>
<trkpt lat="40.072806" lon="-105.2306518">
  <ele>1609.46</ele>
  <time>2026-08-28T19:13:10Z</time>
  <course>9.82</course>
  <speed>0.15</speed>
  <fix>3d</fix>
</trkpt>
<trkpt lat="40.0728061" lon="-105.2306517">
  <ele>1609.22</ele>
  <time>2026-08-28T19:13:10Z</time>
  <course>273.76</course>
  <speed>0.17</speed>
  <fix>3d</fix>
</trkpt>
<trkpt lat="40.072806" lon="-105.2306518">
  <ele>1609.48</ele>
  <time>2026-08-28T19:13:10Z</time>
  <course>9.83</course>
  <speed>0.15</speed>
  <fix>3d</fix>
</trkpt>
<trkpt lat="40.072806" lon="-105.2306522">
  <ele>1609.59</ele>
  <time>2026-08-28T19:13:10Z</time>
  <course>9.84</course>
  <speed>0.15</speed>
  <fix>3d</fix>
</trkpt>
<trkpt lat="40.0728061" lon="-105.230652">
  <ele>1609.35</ele>
  <time>2026-08-28T19:13:10Z</time>
  <course>273.96</course>
  <speed>0.17</speed>
  <fix>3d</fix>
</trkpt>
<trkpt lat="40.072806" lon="-105.2306522">
  <ele>1609.6</ele>
  <time>2026-08-28T19:13:10Z</time>
  <course>9.84</course>
  <speed>0.15</speed>
  <fix>3d</fix>
</trkpt>
<trkpt lat="40.0728061" lon="-105.2306526">
  <ele>1609.72</ele>
  <time>2026-08-28T19:13:10Z</time>
  <course>9.87</course>
  <speed>0.15</speed>
  <fix>3d</fix>
</trkpt>
<trkpt lat="40.0728061" lon="-105.2306524">
  <ele>1609.48</ele>
  <time>2026-08-28T19:13:10Z</time>
  <course>274.16</course>
  <speed>0.17</speed>
  <fix>3d</fix>
</trkpt>
<trkpt lat="40.0728061" lon="-105.2306526">
  <ele>1609.73</ele>
  <time>2026-08-28T19:13:10Z</time>
  <course>9.87</course>
  <speed>0.15</speed>
  <fix>3d</fix>
</trkpt>
<trkpt lat="40.0728061" lon="-105.230653">
  <ele>1609.84</ele>
  <time>2026-08-28T19:13:10Z</time>
  <course>9.84</course>
  <speed>0.15</speed>
  <fix>3d</fix>
</trkpt>
<trkpt lat="40.0728061" lon="-105.2306529">
  <ele>1609.61</ele>
  <time>2026-08-28T19:13:10Z</time>
  <course>274.39</course>
  <speed>0.17</speed>
  <fix>3d</fix>
</trkpt>
<trkpt lat="40.0728061" lon="-105.230653">
  <ele>1609.84</ele>
  <time>2026-08-28T19:13:10Z</time>
  <course>9.84</course>
  <speed>0.15</speed>
  <fix>3d</fix>
</trkpt>
<trkpt lat="40.0728061" lon="-105.2306534">
  <ele>1609.97</ele>
  <time>2026-08-28T19:13:10Z</time>
  <course>9.86</course>
  <speed>0.15</speed>
  <fix>3d</fix>
</trkpt>
<trkpt lat="40.0728061" lon="-105.2306533">
  <ele>1609.73</ele>
  <time>2026-08-28T19:13:10Z</time>
  <course>274.59</course>
  <speed>0.17</speed>
  <fix>3d</fix>
</trkpt>
<trkpt lat="40.0728061" lon="-105.2306534">
  <ele>1609.99</ele>
  <time>2026-08-28T19:13:10Z</time>
  <course>9.85</course>
  <speed>0.15</speed>
  <fix>3d</fix>
</trkpt>
<trkpt lat="40.0728061" lon="-105.2306538">
  <ele>1610.1</ele>
  <time>2026-08-28T19:13:10Z</time>
  <course>9.88</course>
  <speed>0.15</speed>
  <fix>3d</fix>
</trkpt>
<trkpt lat="40.0728062" lon="-105.2306536">
  <ele>1609.86</ele>
  <time>2026-08-28T19:13:10Z</time>
  <course>274.78</course>
  <speed>0.17</speed>
  <fix>3d</fix>
</trkpt>
<trkpt lat="40.0728061" lon="-105.2306538">
  <ele>1610.12</ele>
  <time>2026-08-28T19:13:10Z</time>
  <course>9.88</course>
  <speed>0.15</speed>
  <fix>3d</fix>
</trkpt>
<trkpt lat="40.0728061" lon="-105.2306542">
  <ele>1610.23</ele>
  <time>2026-08-28T19:13:10Z</time>
  <course>9.88</course>
  <speed>0.15</speed>
  <fix>3d</fix>
</trkpt>
<trkpt lat="40.0728062" lon="-105.2306541">
  <ele>1609.99</ele>
  <time>2026-08-28T19:13:10Z</time>
  <course>274.99</course>
  <speed>0.17</speed>
  <fix>3d</fix>
</trkpt>
<trkpt lat="40.0728061" lon="-105.2306542">
  <ele>1610.23</ele>
  <time>2026-08-28T19:13:10Z</time>
  <course>9.88</course>
  <speed>0.15</speed>
  <fix>3d</fix>
</trkpt>
<trkpt lat="40.0728061" lon="-105.2306546">
  <ele>1610.36</ele>
  <time>2026-08-28T19:13:10Z</time>
  <course>9.89</course>
  <speed>0.15</speed>
  <fix>3d</fix>
</trkpt>
<trkpt lat="40.0728062" lon="-105.2306545">
  <ele>1610.11</ele>
  <time>2026-08-28T19:13:10Z</time>
  <course>275.19</course>
  <speed>0.17</speed>
  <fix>3d</fix>
</trkpt>
<trkpt lat="40.0728061" lon="-105.2306547">
  <ele>1610.38</ele>
  <time>2026-08-28T19:13:10Z</time>
  <course>9.88</course>
  <speed>0.15</speed>
  <fix>3d</fix>
</trkpt>
<trkpt lat="40.0728061" lon="-105.230655">
  <ele>1610.49</ele>
  <time>2026-08-28T19:13:10Z</time>
  <course>9.9</course>
  <speed>0.15</speed>
  <fix>3d</fix>
</trkpt>
<trkpt lat="40.0728062" lon="-105.2306548">
  <ele>1610.24</ele>
  <time>2026-08-28T19:13:10Z</time>
  <course>275.39</course>
  <speed>0.17</speed>
  <fix>3d</fix>
</trkpt>
<trkpt lat="40.0728061" lon="-105.230655">
  <ele>1610.5</ele>
  <time>2026-08-28T19:13:10Z</time>
  <course>9.9</course>
  <speed>0.15</speed>
  <fix>3d</fix>
</trkpt>
<trkpt lat="40.0728062" lon="-105.2306554">
  <ele>1610.61</ele>
  <time>2026-08-28T19:13:10Z</time>
  <course>9.92</course>
  <speed>0.15</speed>
  <fix>3d</fix>
</trkpt>
<trkpt lat="40.0728063" lon="-105.2306553">
  <ele>1610.37</ele>
  <time>2026-08-28T19:13:10Z</time>
  <course>275.58</course>
  <speed>0.17</speed>
  <fix>3d</fix>
</trkpt>
<trkpt lat="40.0728062" lon="-105.2306554">
  <ele>1610.61</ele>
  <time>2026-08-28T19:13:10Z</time>
  <course>9.92</course>
  <speed>0.15</speed>
  <fix>3d</fix>
</trkpt>
<trkpt lat="40.0728062" lon="-105.2306558">
  <ele>1610.74</ele>
  <time>2026-08-28T19:13:10Z</time>
  <course>9.91</course>
  <speed>0.15</speed>
  <fix>3d</fix>
</trkpt>
<trkpt lat="40.0728064" lon="-105.2306557">
  <ele>1610.49</ele>
  <time>2026-08-28T19:13:10Z</time>
  <course>275.83</course>
  <speed>0.17</speed>
  <fix>3d</fix>
</trkpt>
<trkpt lat="40.0728062" lon="-105.2306559">
  <ele>1610.76</ele>
  <time>2026-08-28T19:13:10Z</time>
  <course>9.91</course>
  <speed>0.15</speed>
  <fix>3d</fix>
</trkpt>
<trkpt lat="40.0728062" lon="-105.2306562">
  <ele>1610.86</ele>
  <time>2026-08-28T19:13:10Z</time>
  <course>9.9</course>
  <speed>0.15</speed>
  <fix>3d</fix>
</trkpt>
<trkpt lat="40.0728064" lon="-105.2306562">
  <ele>1610.61</ele>
  <time>2026-08-28T19:13:10Z</time>
  <course>276.1</course>
  <speed>0.17</speed>
  <fix>3d</fix>
</trkpt>
<trkpt lat="40.0728062" lon="-105.2306562">
  <ele>1610.86</ele>
  <time>2026-08-28T19:13:10Z</time>
  <course>9.9</course>
  <speed>0.15</speed>
  <fix>3d</fix>
</trkpt>
<trkpt lat="40.0728062" lon="-105.2306566">
  <ele>1610.99</ele>
  <time>2026-08-28T19:13:10Z</time>
  <course>9.92</course>
  <speed>0.15</speed>
  <fix>3d</fix>
</trkpt>
<trkpt lat="40.0728064" lon="-105.2306566">
  <ele>1610.74</ele>
  <time>2026-08-28T19:13:10Z</time>
  <course>276.34</course>
  <speed>0.17</speed>
  <fix>3d</fix>
</trkpt>
<trkpt lat="40.0728063" lon="-105.2306567">
  <ele>1611.01</ele>
  <time>2026-08-28T19:13:10Z</time>
  <course>9.92</course>
  <speed>0.15</speed>
  <fix>3d</fix>
</trkpt>
<trkpt lat="40.0728063" lon="-105.230657">
  <ele>1611.12</ele>
  <time>2026-08-28T19:13:10Z</time>
  <course>9.9</course>
  <speed>0.15</speed>
  <fix>3d</fix>
</trkpt>
<trkpt lat="40.0728065" lon="-105.2306569">
  <ele>1610.86</ele>
  <time>2026-08-28T19:13:10Z</time>
  <course>276.54</course>
  <speed>0.17</speed>
  <fix>3d</fix>
</trkpt>
<trkpt lat="40.0728063" lon="-105.2306571">
  <ele>1611.13</ele>
  <time>2026-08-28T19:13:10Z</time>
  <course>9.91</course>
  <speed>0.15</speed>
  <fix>3d</fix>
</trkpt>
<trkpt lat="40.0728063" lon="-105.2306574">
  <ele>1611.24</ele>
  <time>2026-08-28T19:13:10Z</time>
  <course>9.94</course>
  <speed>0.15</speed>
  <fix>3d</fix>
</trkpt>
<trkpt lat="40.0728065" lon="-105.2306574">
  <ele>1610.99</ele>
  <time>2026-08-28T19:13:10Z</time>
  <course>276.61</course>
  <speed>0.17</speed>
  <fix>3d</fix>
</trkpt>
<trkpt lat="40.0728063" lon="-105.2306575">
  <ele>1611.26</ele>
  <time>2026-08-28T19:13:10Z</time>
  <course>9.94</course>
  <speed>0.15</speed>
  <fix>3d</fix>
</trkpt>
<trkpt lat="40.0728064" lon="-105.2306578">
  <ele>1611.37</ele>
  <time>2026-08-28T19:13:10Z</time>
  <course>9.93</course>
  <speed>0.15</speed>
  <fix>3d</fix>
</trkpt>
<trkpt lat="40.0728065" lon="-105.2306577">
  <ele>1611.11</ele>
  <time>2026-08-28T19:13:10Z</time>
  <course>276.74</course>
  <speed>0.17</speed>
  <fix>3d</fix>
</trkpt>
<trkpt lat="40.0728064" lon="-105.2306579">
  <ele>1611.38</ele>
  <time>2026-08-28T19:13:10Z</time>
  <course>9.92</course>
  <speed>0.15</speed>
  <fix>3d</fix>
</trkpt>
<trkpt lat="40.0728064" lon="-105.2306582">
  <ele>1611.49</ele>
  <time>2026-08-28T19:13:10Z</time>
  <course>9.93</course>
  <speed>0.15</speed>
  <fix>3d</fix>
</trkpt>
<trkpt lat="40.0728066" lon="-105.2306581">
  <ele>1611.23</ele>
  <time>2026-08-28T19:13:10Z</time>
  <course>276.93</course>
  <speed>0.17</speed>
  <fix>3d</fix>
</trkpt>
<trkpt lat="40.0728064" lon="-105.2306583">
  <ele>1611.5</ele>
  <time>2026-08-28T19:13:10Z</time>
  <course>9.93</course>
  <speed>0.15</speed>
  <fix>3d</fix>
</trkpt>
<trkpt lat="40.0728064" lon="-105.2306586">
  <ele>1611.62</ele>
  <time>2026-08-28T19:13:10Z</time>
  <course>9.94</course>
  <speed>0.15</speed>
  <fix>3d</fix>
</trkpt>
<trkpt lat="40.0728066" lon="-105.2306586">
  <ele>1611.35</ele>
  <time>2026-08-28T19:13:10Z</time>
  <course>277.04</course>
  <speed>0.17</speed>
  <fix>3d</fix>
</trkpt>
<trkpt lat="40.0728064" lon="-105.2306587">
  <ele>1611.63</ele>
  <time>2026-08-28T19:13:10Z</time>
  <course>9.94</course>
  <speed>0.15</speed>
  <fix>3d</fix>
</trkpt>
<trkpt lat="40.0728065" lon="-105.2306591">
  <ele>1611.74</ele>
  <time>2026-08-28T19:13:10Z</time>
  <course>9.92</course>
  <speed>0.15</speed>
  <fix>3d</fix>
</trkpt>
<trkpt lat="40.0728067" lon="-105.230659">
  <ele>1611.48</ele>
  <time>2026-08-28T19:13:10Z</time>
  <course>277.21</course>
  <speed>0.17</speed>
  <fix>3d</fix>
</trkpt>
<trkpt lat="40.0728065" lon="-105.2306591">
  <ele>1611.75</ele>
  <time>2026-08-28T19:13:10Z</time>
  <course>9.93</course>
  <speed>0.15</speed>
  <fix>3d</fix>
</trkpt>
<trkpt lat="40.0728065" lon="-105.2306595">
  <ele>1611.86</ele>
  <time>2026-08-28T19:13:10Z</time>
  <course>9.94</course>
  <speed>0.15</speed>
  <fix>3d</fix>
</trkpt>
<trkpt lat="40.0728067" lon="-105.2306593">
  <ele>1611.6</ele>
  <time>2026-08-28T19:13:10Z</time>
  <course>277.3</course>
  <speed>0.17</speed>
  <fix>3d</fix>
</trkpt>
<trkpt lat="40.0728065" lon="-105.2306595">
  <ele>1611.88</ele>
  <time>2026-08-28T19:13:10Z</time>
  <course>9.93</course>
  <speed>0.15</speed>
  <fix>3d</fix>
</trkpt>
<trkpt lat="40.0728066" lon="-105.2306599">
  <ele>1611.99</ele>
  <time>2026-08-28T19:13:10Z</time>
  <course>9.93</course>
  <speed>0.15</speed>
  <fix>3d</fix>
</trkpt>
<trkpt lat="40.0728067" lon="-105.2306598">
  <ele>1611.72</ele>
  <time>2026-08-28T19:13:10Z</time>
  <course>277.3</course>
  <speed>0.17</speed>
  <fix>3d</fix>
</trkpt>
<trkpt lat="40.0728066" lon="-105.2306599">
  <ele>1612.0</ele>
  <time>2026-08-28T19:13:10Z</time>
  <course>9.93</course>
  <speed>0.15</speed>
  <fix>3d</fix>
</trkpt>
<trkpt lat="40.0728066" lon="-105.2306603">
  <ele>1612.11</ele>
  <time>2026-08-28T19:13:10Z</time>
  <course>9.92</course>
  <speed>0.15</speed>
  <fix>3d</fix>
</trkpt>
<trkpt lat="40.0728067" lon="-105.2306601">
  <ele>1611.85</ele>
  <time>2026-08-28T19:13:10Z</time>
  <course>277.39</course>
  <speed>0.17</speed>
  <fix>3d</fix>
</trkpt>
<trkpt lat="40.0728066" lon="-105.2306603">
  <ele>1612.11</ele>
  <time>2026-08-28T19:13:10Z</time>
  <course>9.92</course>
  <speed>0.15</speed>
  <fix>3d</fix>
</trkpt>
<trkpt lat="40.0728066" lon="-105.2306607">
  <ele>1612.24</ele>
  <time>2026-08-28T19:13:10Z</time>
  <course>9.93</course>
  <speed>0.15</speed>
  <fix>3d</fix>
</trkpt>
<trkpt lat="40.0728068" lon="-105.2306605">
  <ele>1611.97</ele>
  <time>2026-08-28T19:13:10Z</time>
  <course>277.51</course>
  <speed>0.17</speed>
  <fix>3d</fix>
</trkpt>
<trkpt lat="40.0728067" lon="-105.2306607">
  <ele>1612.26</ele>
  <time>2026-08-28T19:13:10Z</time>
  <course>9.93</course>
  <speed>0.15</speed>
  <fix>3d</fix>
</trkpt>
<trkpt lat="40.0728067" lon="-105.2306611">
  <ele>1612.36</ele>
  <time>2026-08-28T19:13:10Z</time>
  <course>9.94</course>
  <speed>0.15</speed>
  <fix>3d</fix>
</trkpt>
<trkpt lat="40.0728068" lon="-105.230661">
  <ele>1612.09</ele>
  <time>2026-08-28T19:13:10Z</time>
  <course>277.61</course>
  <speed>0.17</speed>
  <fix>3d</fix>
</trkpt>
<trkpt lat="40.0728067" lon="-105.2306611">
  <ele>1612.38</ele>
  <time>2026-08-28T19:13:10Z</time>
  <course>9.94</course>
  <speed>0.15</speed>
  <fix>3d</fix>
</trkpt>
<trkpt lat="40.0728067" lon="-105.2306615">
  <ele>1612.48</ele>
  <time>2026-08-28T19:13:10Z</time>
  <course>9.93</course>
  <speed>0.15</speed>
  <fix>3d</fix>
</trkpt>
<trkpt lat="40.0728068" lon="-105.2306614">
  <ele>1612.22</ele>
  <time>2026-08-28T19:13:10Z</time>
  <course>277.69</course>
  <speed>0.17</speed>
  <fix>3d</fix>
</trkpt>
<trkpt lat="40.0728067" lon="-105.2306615">
  <ele>1612.5</ele>
  <time>2026-08-28T19:13:10Z</time>
  <course>9.93</course>
  <speed>0.15</speed>
  <fix>3d</fix>
</trkpt>
<trkpt lat="40.0728068" lon="-105.2306619">
  <ele>1612.61</ele>
  <time>2026-08-28T19:13:10Z</time>
  <course>9.93</course>
  <speed>0.15</speed>
  <fix>3d</fix>
</trkpt>
<trkpt lat="40.0728069" lon="-105.2306619">
  <ele>1612.34</ele>
  <time>2026-08-28T19:13:10Z</time>
  <course>277.77</course>
  <speed>0.17</speed>
  <fix>3d</fix>
</trkpt>
<trkpt lat="40.0728068" lon="-105.2306619">
  <ele>1612.63</ele>
  <time>2026-08-28T19:13:10Z</time>
  <course>9.93</course>
  <speed>0.15</speed>
  <fix>3d</fix>
</trkpt>
<trkpt lat="40.0728068" lon="-105.2306623">
  <ele>1612.73</ele>
  <time>2026-08-28T19:13:10Z</time>
  <course>9.93</course>
  <speed>0.15</speed>
  <fix>3d</fix>
</trkpt>
<trkpt lat="40.072807" lon="-105.2306622">
  <ele>1612.47</ele>
  <time>2026-08-28T19:13:10Z</time>
  <course>277.86</course>
  <speed>0.17</speed>
  <fix>3d</fix>
</trkpt>
<trkpt lat="40.0728068" lon="-105.2306623">
  <ele>1612.73</ele>
  <time>2026-08-28T19:13:10Z</time>
  <course>9.93</course>
  <speed>0.15</speed>
  <fix>3d</fix>
</trkpt>
<trkpt lat="40.0728069" lon="-105.2306627">
  <ele>1612.86</ele>
  <time>2026-08-28T19:13:10Z</time>
  <course>9.93</course>
  <speed>0.15</speed>
  <fix>3d</fix>
</trkpt>
<trkpt lat="40.072807" lon="-105.2306627">
  <ele>1612.6</ele>
  <time>2026-08-28T19:13:10Z</time>
  <course>277.97</course>
  <speed>0.17</speed>
  <fix>3d</fix>
</trkpt>
<trkpt lat="40.0728069" lon="-105.2306628">
  <ele>1612.88</ele>
  <time>2026-08-28T19:13:10Z</time>
  <course>9.93</course>
  <speed>0.15</speed>
  <fix>3d</fix>
</trkpt>
<trkpt lat="40.0728069" lon="-105.2306631">
  <ele>1612.98</ele>
  <time>2026-08-28T19:13:10Z</time>
  <course>9.95</course>
  <speed>0.15</speed>
  <fix>3d</fix>
</trkpt>
<trkpt lat="40.0728071" lon="-105.230663">
  <ele>1612.72</ele>
  <time>2026-08-28T19:13:10Z</time>
  <course>278.08</course>
  <speed>0.17</speed>
  <fix>3d</fix>
</trkpt>
<trkpt lat="40.0728069" lon="-105.2306632">
  <ele>1613.0</ele>
  <time>2026-08-28T19:13:10Z</time>
  <course>9.95</course>
  <speed>0.15</speed>
  <fix>3d</fix>
</trkpt>
<trkpt lat="40.0728069" lon="-105.2306635">
  <ele>1613.11</ele>
  <time>2026-08-28T19:13:10Z</time>
  <course>9.93</course>
  <speed>0.15</speed>
  <fix>3d</fix>
</trkpt>
<trkpt lat="40.0728071" lon="-105.2306634">
  <ele>1612.85</ele>
  <time>2026-08-28T19:13:10Z</time>
  <course>278.21</course>
  <speed>0.17</speed>
  <fix>3d</fix>
</trkpt>
<trkpt lat="40.072807" lon="-105.2306636">
  <ele>1613.13</ele>
  <time>2026-08-28T19:13:10Z</time>
  <course>9.93</course>
  <speed>0.15</speed>
  <fix>3d</fix>
</trkpt>
<trkpt lat="40.072807" lon="-105.2306639">
  <ele>1613.24</ele>
  <time>2026-08-28T19:13:10Z</time>
  <course>9.94</course>
  <speed>0.15</speed>
  <fix>3d</fix>
</trkpt>
<trkpt lat="40.0728072" lon="-105.2306639">
  <ele>1612.97</ele>
  <time>2026-08-28T19:13:10Z</time>
  <course>278.34</course>
  <speed>0.17</speed>
  <fix>3d</fix>
</trkpt>
<trkpt lat="40.072807" lon="-105.230664">
  <ele>1613.25</ele>
  <time>2026-08-28T19:13:10Z</time>
  <course>9.93</course>
  <speed>0.15</speed>
  <fix>3d</fix>
</trkpt>
<trkpt lat="40.072807" lon="-105.2306643">
  <ele>1613.36</ele>
  <time>2026-08-28T19:13:10Z</time>
  <course>9.95</course>
  <speed>0.15</speed>
  <fix>3d</fix>
</trkpt>
<trkpt lat="40.0728072" lon="-105.2306643">
  <ele>1613.1</ele>
  <time>2026-08-28T19:13:10Z</time>
  <course>278.42</course>
  <speed>0.17</speed>
  <fix>3d</fix>
</trkpt>
<trkpt lat="40.072807" lon="-105.2306644">
  <ele>1613.36</ele>
  <time>2026-08-28T19:13:10Z</time>
  <course>9.95</course>
  <speed>0.15</speed>
  <fix>3d</fix>
</trkpt>
<trkpt lat="40.0728071" lon="-105.2306648">
  <ele>1613.49</ele>
  <time>2026-08-28T19:13:10Z</time>
  <course>9.93</course>
  <speed>0.15</speed>
  <fix>3d</fix>
</trkpt>
<trkpt lat="40.0728072" lon="-105.2306646">
  <ele>1613.23</ele>
  <time>2026-08-28T19:13:10Z</time>
  <course>278.51</course>
  <speed>0.17</speed>
  <fix>3d</fix>
</trkpt>
<trkpt lat="40.0728071" lon="-105.2306648">
  <ele>1613.5</ele>
  <time>2026-08-28T19:13:10Z</time>
  <course>9.93</course>
  <speed>0.15</speed>
  <fix>3d</fix>
</trkpt>
<trkpt lat="40.0728071" lon="-105.2306652">
  <ele>1613.61</ele>
  <time>2026-08-28T19:13:10Z</time>
  <course>9.94</course>
  <speed>0.15</speed>
  <fix>3d</fix>
</trkpt>
<trkpt lat="40.0728073" lon="-105.2306651">
  <ele>1613.35</ele>
  <time>2026-08-28T19:13:10Z</time>
  <course>278.6</course>
  <speed>0.17</speed>
  <fix>3d</fix>
</trkpt>
<trkpt lat="40.0728072" lon="-105.2306652">
  <ele>1613.63</ele>
  <time>2026-08-28T19:13:10Z</time>
  <course>9.94</course>
  <speed>0.15</speed>
  <fix>3d</fix>
</trkpt>
<trkpt lat="40.0728072" lon="-105.2306656">
  <ele>1613.74</ele>
  <time>2026-08-28T19:13:10Z</time>
  <course>9.95</course>
  <speed>0.15</speed>
  <fix>3d</fix>
</trkpt>
<trkpt lat="40.0728073" lon="-105.2306654">
  <ele>1613.48</ele>
  <time>2026-08-28T19:13:10Z</time>
  <course>278.69</course>
  <speed>0.17</speed>
  <fix>3d</fix>
</trkpt>
<trkpt lat="40.0728072" lon="-105.2306656">
  <ele>1613.76</ele>
  <time>2026-08-28T19:13:10Z</time>
  <course>9.96</course>
  <speed>0.15</speed>
  <fix>3d</fix>
</trkpt>
<trkpt lat="40.0728072" lon="-105.230666">
  <ele>1613.87</ele>
  <time>2026-08-28T19:13:10Z</time>
  <course>9.94</course>
  <speed>0.15</speed>
  <fix>3d</fix>
</trkpt>
<trkpt lat="40.0728073" lon="-105.2306658">
  <ele>1613.61</ele>
  <time>2026-08-28T19:13:10Z</time>
  <course>278.78</course>
  <speed>0.17</speed>
  <fix>3d</fix>
</trkpt>
<trkpt lat="40.0728072" lon="-105.230666">
  <ele>1613.89</ele>
  <time>2026-08-28T19:13:10Z</time>
  <course>9.95</course>
  <speed>0.15033296378372907</speed>
  <fix>3d</fix>
</trkpt>
<trkpt lat="40.0728073" lon="-105.2306664">
  <ele>1613.99</ele>
  <time>2026-08-28T19:13:10Z</time>
  <course>9.96</course>
  <speed>0.15033296378372907</speed>
  <fix>3d</fix>
</trkpt>
<trkpt lat="40.0728074" lon="-105.2306663">
  <ele>1613.74</ele>
  <time>2026-08-28T19:13:10Z</time>
  <course>278.89</course>
  <speed>0.17</speed>
  <fix>3d</fix>
</trkpt>
<trkpt lat="40.0728073" lon="-105.2306664">
  <ele>1614.01</ele>
  <time>2026-08-28T19:13:10Z</time>
  <course>9.96</course>
  <speed>0.15033296378372907</speed>
  <fix>3d</fix>
</trkpt>
<trkpt lat="40.0728073" lon="-105.2306668">
  <ele>1614.11</ele>
  <time>2026-08-28T19:13:10Z</time>
  <course>9.95</course>
  <speed>0.15033296378372907</speed>
  <fix>3d</fix>
</trkpt>
<trkpt lat="40.0728074" lon="-105.2306667">
  <ele>1613.86</ele>
  <time>2026-08-28T19:13:10Z</time>
  <course>279.0</course>
  <speed>0.17</speed>
  <fix>3d</fix>
</trkpt>
<trkpt lat="40.0728073" lon="-105.2306668">
  <ele>1614.11</ele>
  <time>2026-08-28T19:13:10Z</time>
  <course>9.95</course>
  <speed>0.15033296378372907</speed>
  <fix>3d</fix>
</trkpt>
<trkpt lat="40.0728074" lon="-105.2306672">
  <ele>1614.24</ele>
  <time>2026-08-28T19:13:10Z</time>
  <course>9.96</course>
  <speed>0.15033296378372907</speed>
  <fix>3d</fix>
</trkpt>
<trkpt lat="40.0728075" lon="-105.2306671">
  <ele>1613.99</ele>
  <time>2026-08-28T19:13:10Z</time>
  <course>279.11</course>
  <speed>0.17</speed>
  <fix>3d</fix>
</trkpt>
<trkpt lat="40.0728074" lon="-105.2306673">
  <ele>1614.26</ele>
  <time>2026-08-28T19:13:10Z</time>
  <course>9.95</course>
  <speed>0.15033296378372907</speed>
  <fix>3d</fix>
</trkpt>
<trkpt lat="40.0728074" lon="-105.2306676">
  <ele>1614.36</ele>
  <time>2026-08-28T19:13:10Z</time>
  <course>9.97</course>
  <speed>0.15033296378372907</speed>
  <fix>3d</fix>
</trkpt>
<trkpt lat="40.0728076" lon="-105.2306676">
  <ele>1614.11</ele>
  <time>2026-08-28T19:13:10Z</time>
  <course>279.21</course>
  <speed>0.17</speed>
  <fix>3d</fix>
</trkpt>
<trkpt lat="40.0728074" lon="-105.2306677">
  <ele>1614.38</ele>
  <time>2026-08-28T19:13:10Z</time>
  <course>9.97</course>
  <speed>0.15033296378372907</speed>
  <fix>3d</fix>
</trkpt>
<trkpt lat="40.0728075" lon="-105.230668">
  <ele>1614.49</ele>
  <time>2026-08-28T19:13:10Z</time>
  <course>9.94</course>
  <speed>0.15033296378372907</speed>
  <fix>3d</fix>
</trkpt>
<trkpt lat="40.0728076" lon="-105.230668">
  <ele>1614.24</ele>
  <time>2026-08-28T19:13:10Z</time>
  <course>279.34</course>
  <speed>0.17</speed>
  <fix>3d</fix>
</trkpt>
<trkpt lat="40.0728075" lon="-105.2306681">
  <ele>1614.5</ele>
  <time>2026-08-28T19:13:10Z</time>
  <course>9.94</course>
  <speed>0.15033296378372907</speed>
  <fix>3d</fix>
</trkpt>
<trkpt lat="40.0728075" lon="-105.2306684">
  <ele>1614.61</ele>
  <time>2026-08-28T19:13:10Z</time>
  <course>9.94</course>
  <speed>0.15033296378372907</speed>
  <fix>3d</fix>
</trkpt>
<trkpt lat="40.0728077" lon="-105.2306684">
  <ele>1614.37</ele>
  <time>2026-08-28T19:13:10Z</time>
  <course>279.42</course>
  <speed>0.17</speed>
  <fix>3d</fix>
</trkpt>
<trkpt lat="40.0728075" lon="-105.2306685">
  <ele>1614.63</ele>
  <time>2026-08-28T19:13:10Z</time>
  <course>9.94</course>
  <speed>0.15033296378372907</speed>
  <fix>3d</fix>
</trkpt>
<trkpt lat="40.0728076" lon="-105.2306689">
  <ele>1614.74</ele>
  <time>2026-08-28T19:13:10Z</time>
  <course>9.95</course>
  <speed>0.15033296378372907</speed>
  <fix>3d</fix>
</trkpt>
<trkpt lat="40.0728077" lon="-105.2306687">
  <ele>1614.49</ele>
  <time>2026-08-28T19:13:10Z</time>
  <course>279.46</course>
  <speed>0.17</speed>
  <fix>3d</fix>
</trkpt>
<trkpt lat="40.0728076" lon="-105.2306689">
  <ele>1614.74</ele>
  <time>2026-08-28T19:13:10Z</time>
  <course>9.95</course>
  <speed>0.15033296378372907</speed>
  <fix>3d</fix>
</trkpt>
<trkpt lat="40.0728076" lon="-105.2306693">
  <ele>1614.87</ele>
  <time>2026-08-28T19:13:10Z</time>
  <course>9.96</course>
  <speed>0.15033296378372907</speed>
  <fix>3d</fix>
</trkpt>
<trkpt lat="40.0728078" lon="-105.2306692">
  <ele>1614.62</ele>
  <time>2026-08-28T19:13:10Z</time>
  <course>279.51</course>
  <speed>0.17</speed>
  <fix>3d</fix>
</trkpt>
<trkpt lat="40.0728076" lon="-105.2306693">
  <ele>1614.89</ele>
  <time>2026-08-28T19:13:10Z</time>
  <course>9.96</course>
  <speed>0.15033296378372907</speed>
  <fix>3d</fix>
</trkpt>
<trkpt lat="40.0728077" lon="-105.2306697">
  <ele>1615.0</ele>
  <time>2026-08-28T19:13:10Z</time>
  <course>9.97</course>
  <speed>0.15033296378372907</speed>
  <fix>3d</fix>
</trkpt>
<trkpt lat="40.0728078" lon="-105.2306696">
  <ele>1614.75</ele>
  <time>2026-08-28T19:13:10Z</time>
  <course>279.57</course>
  <speed>0.17</speed>
  <fix>3d</fix>
</trkpt>
<trkpt lat="40.0728077" lon="-105.2306698">
  <ele>1615.02</ele>
  <time>2026-08-28T19:13:10Z</time>
  <course>9.98</course>
  <speed>0.15033296378372907</speed>
  <fix>3d</fix>
</trkpt>
<trkpt lat="40.0728077" lon="-105.2306701">
  <ele>1615.13</ele>
  <time>2026-08-28T19:13:10Z</time>
  <course>9.97</course>
  <speed>0.15033296378372907</speed>
  <fix>3d</fix>
</trkpt>
<trkpt lat="40.0728079" lon="-105.23067">
  <ele>1614.88</ele>
  <time>2026-08-28T19:13:10Z</time>
  <course>279.63</course>
  <speed>0.17</speed>
  <fix>3d</fix>
</trkpt>
<trkpt lat="40.0728077" lon="-105.2306701">
  <ele>1615.14</ele>
  <time>2026-08-28T19:13:10Z</time>
  <course>9.98</course>
  <speed>0.15033296378372907</speed>
  <fix>3d</fix>
</trkpt>
<trkpt lat="40.0728078" lon="-105.2306705">
  <ele>1615.25</ele>
  <time>2026-08-28T19:13:10Z</time>
  <course>9.99</course>
  <speed>0.15033296378372907</speed>
  <fix>3d</fix>
</trkpt>
<trkpt lat="40.0728079" lon="-105.2306703">
  <ele>1615.01</ele>
  <time>2026-08-28T19:13:10Z</time>
  <course>279.59</course>
  <speed>0.17</speed>
  <fix>3d</fix>
</trkpt>
<trkpt lat="40.0728078" lon="-105.2306705">
  <ele>1615.25</ele>
  <time>2026-08-28T19:13:10Z</time>
  <course>9.99</course>
  <speed>0.15033296378372907</speed>
  <fix>3d</fix>
</trkpt>
<trkpt lat="40.0728078" lon="-105.2306709">
  <ele>1615.38</ele>
  <time>2026-08-28T19:13:10Z</time>
  <course>10.01</course>
  <speed>0.15033296378372907</speed>
  <fix>3d</fix>
</trkpt>
<trkpt lat="40.072808" lon="-105.2306708">
  <ele>1615.13</ele>
  <time>2026-08-28T19:13:10Z</time>
  <course>279.47</course>
  <speed>0.17</speed>
  <fix>3d</fix>
</trkpt>
<trkpt lat="40.0728079" lon="-105.2306713">
  <ele>1615.49</ele>
  <time>2026-08-28T19:13:10Z</time>
  <course>10.46</course>
  <speed>0.16031219541881397</speed>
  <fix>3d</fix>
</trkpt>
<trkpt lat="40.072808" lon="-105.2306712">
  <ele>1615.26</ele>
  <time>2026-08-28T19:13:10Z</time>
  <course>279.35</course>
  <speed>0.17</speed>
  <fix>3d</fix>
</trkpt>
<trkpt lat="40.072808" lon="-105.2306717">
  <ele>1615.57</ele>
  <time>2026-08-28T19:13:10Z</time>
  <course>10.74</course>
  <speed>0.15033296378372907</speed>
  <fix>3d</fix>
</trkpt>
<trkpt lat="40.0728081" lon="-105.2306716">
  <ele>1615.36</ele>
  <time>2026-08-28T19:13:10Z</time>
  <course>279.51</course>
  <speed>0.17</speed>
  <fix>3d</fix>
</trkpt>
<trkpt lat="40.072808" lon="-105.2306721">
  <ele>1615.62</ele>
  <time>2026-08-28T19:13:10Z</time>
  <course>10.86</course>
  <speed>0.15033296378372907</speed>
  <fix>3d</fix>
</trkpt>
<trkpt lat="40.0728082" lon="-105.230672">
  <ele>1615.44</ele>
  <time>2026-08-28T19:13:10Z</time>
  <course>280.11</course>
  <speed>0.17</speed>
  <fix>3d</fix>
</trkpt>
<trkpt lat="40.0728081" lon="-105.2306725">
  <ele>1615.65</ele>
  <time>2026-08-28T19:13:10Z</time>
  <course>10.92</course>
  <speed>0.12</speed>
  <fix>3d</fix>
</trkpt>
<trkpt lat="40.0728082" lon="-105.2306725">
  <ele>1615.49</ele>
  <time>2026-08-28T19:13:10Z</time>
  <course>280.96</course>
  <speed>0.17</speed>
  <fix>3d</fix>
</trkpt>
<trkpt lat="40.0728081" lon="-105.2306726">
  <ele>1615.66</ele>
  <time>2026-08-28T19:13:10Z</time>
  <course>11.63</course>
  <speed>0.1835755975068582</speed>
  <fix>3d</fix>
</trkpt>
<trkpt lat="40.0728083" lon="-105.2306728">
  <ele>1615.51</ele>
  <time>2026-08-28T19:13:10Z</time>
  <course>283.55</course>
  <speed>0.1</speed>
  <fix>3d</fix>
</trkpt>
<trkpt lat="40.0728078" lon="-105.2306714">
  <ele>1615.65</ele>
  <time>2026-08-28T19:13:10Z</time>
  <course>12.68</course>
  <speed>1.1072488428533127</speed>
  <fix>3d</fix>
</trkpt>
<trkpt lat="40.0728083" lon="-105.2306727">
  <ele>1615.52</ele>
  <time>2026-08-28T19:13:10Z</time>
  <course>97.23</course>
  <speed>0.25</speed>
  <fix>3d</fix>
</trkpt>
<trkpt lat="40.0728069" lon="-105.2306671">
  <ele>1615.6</ele>
  <time>2026-08-28T19:13:10Z</time>
  <course>10.85</course>
  <speed>3.0728000260348862</speed>
  <fix>3d</fix>
</trkpt>
<trkpt lat="40.0728082" lon="-105.2306711">
  <ele>1615.51</ele>
  <time>2026-08-28T19:13:10Z</time>
  <course>97.92</course>
  <speed>1.24</speed>
  <fix>3d</fix>
</trkpt>
<trkpt lat="40.0728053" lon="-105.2306569">
  <ele>1615.46</ele>
  <time>2026-08-28T19:13:10Z</time>
  <course>10.44</course>
  <speed>5.698780571315235</speed>
  <fix>3d</fix>
</trkpt>
<trkpt lat="40.0728077" lon="-105.2306662">
  <ele>1615.46</ele>
  <time>2026-08-28T19:13:10Z</time>
  <course>97.38</course>
  <speed>3.24</speed>
  <fix>3d</fix>
</trkpt>
<trkpt lat="40.0728041" lon="-105.2306445">
  <ele>1615.07</ele>
  <time>2026-08-28T19:13:10Z</time>
  <course>15.86</course>
  <speed>3.2140006222774753</speed>
  <fix>3d</fix>
</trkpt>
<trkpt lat="40.0728067" lon="-105.2306558">
  <ele>1615.29</ele>
  <time>2026-08-28T19:13:10Z</time>
  <course>97.5</course>
  <speed>5.31</speed>
  <fix>3d</fix>
</trkpt>
<trkpt lat="40.0728051" lon="-105.2306426">
  <ele>1614.78</ele>
  <time>2026-08-28T19:13:10Z</time>
  <course>21.07</course>
  <speed>1.1649892703368558</speed>
  <fix>3d</fix>
</trkpt>
<trkpt lat="40.0728058" lon="-105.2306456">
  <ele>1614.95</ele>
  <time>2026-08-28T19:13:10Z</time>
  <course>94.1</course>
  <speed>3.3</speed>
  <fix>3d</fix>
</trkpt>
<trkpt lat="40.0728074" lon="-105.2306468">
  <ele>1614.79</ele>
  <time>2026-08-28T19:13:10Z</time>
  <course>23.32</course>
  <speed>2.93393933134276</speed>
  <fix>3d</fix>
</trkpt>
<trkpt lat="40.0728062" lon="-105.2306431">
  <ele>1614.69</ele>
  <time>2026-08-28T19:13:10Z</time>
  <course>311.07</course>
  <speed>1.08</speed>
  <fix>3d</fix>
</trkpt>
<trkpt lat="40.07281" lon="-105.2306528">
  <ele>1614.97</ele>
  <time>2026-08-28T19:13:10Z</time>
  <course>17.23</course>
  <speed>3.1618507238641103</speed>
  <fix>3d</fix>
</trkpt>
<trkpt lat="40.072808" lon="-105.2306476">
  <ele>1614.69</ele>
  <time>2026-08-28T19:13:10Z</time>
  <course>295.42</course>
  <speed>2.84</speed>
  <fix>3d</fix>
</trkpt>
<trkpt lat="40.0728104" lon="-105.2306539">
  <ele>1615.0</ele>
  <time>2026-08-28T19:13:10Z</time>
  <course>16.26</course>
  <speed>3.152935140468322</speed>
  <fix>3d</fix>
</trkpt>
<trkpt lat="40.0728126" lon="-105.2306591">
  <ele>1615.17</ele>
  <time>2026-08-28T19:13:10Z</time>
  <course>12.0</course>
  <speed>3.0459973736035955</speed>
  <fix>3d</fix>
</trkpt>
<trkpt lat="40.0728103" lon="-105.2306542">
  <ele>1614.85</ele>
  <time>2026-08-28T19:13:10Z</time>
  <course>295.07</course>
  <speed>3.24</speed>
  <fix>3d</fix>
</trkpt>
<trkpt lat="40.072815" lon="-105.2306654">
  <ele>1615.33</ele>
  <time>2026-08-28T19:13:11Z</time>
  <course>9.56</course>
  <speed>2.827083302628347</speed>
  <fix>3d</fix>
</trkpt>
<trkpt lat="40.0728128" lon="-105.230661">
  <ele>1615.04</ele>
  <time>2026-08-28T19:13:11Z</time>
  <course>295.41</course>
  <speed>3.17</speed>
  <fix>3d</fix>
</trkpt>
<trkpt lat="40.0728173" lon="-105.2306713">
  <ele>1615.45</ele>
  <time>2026-08-28T19:13:11Z</time>
  <course>8.76</course>
  <speed>2.5947061490658245</speed>
  <fix>3d</fix>
</trkpt>
<trkpt lat="40.0728152" lon="-105.2306675">
  <ele>1615.2</ele>
  <time>2026-08-28T19:13:11Z</time>
  <course>295.69</course>
  <speed>2.96</speed>
  <fix>3d</fix>
</trkpt>
<trkpt lat="40.0728193" lon="-105.2306768">
  <ele>1615.52</ele>
  <time>2026-08-28T19:13:11Z</time>
  <course>8.5</course>
  <speed>2.375310506018108</speed>
  <fix>3d</fix>
</trkpt>
<trkpt lat="40.0728174" lon="-105.2306735">
  <ele>1615.31</ele>
  <time>2026-08-28T19:13:11Z</time>
  <course>295.87</course>
  <speed>2.72</speed>
  <fix>3d</fix>
</trkpt>
<trkpt lat="40.0728196" lon="-105.2306777">
  <ele>1615.53</ele>
  <time>2026-08-28T19:13:11Z</time>
  <course>8.48</course>
  <speed>2.344120304079976</speed>
  <fix>3d</fix>
</trkpt>
<trkpt lat="40.0728211" lon="-105.2306819">
  <ele>1615.57</ele>
  <time>2026-08-28T19:13:11Z</time>
  <course>8.43</course>
  <speed>2.1829567105190155</speed>
  <fix>3d</fix>
</trkpt>
<trkpt lat="40.0728194" lon="-105.230679">
  <ele>1615.39</ele>
  <time>2026-08-28T19:13:11Z</time>
  <course>295.97</course>
  <speed>2.48</speed>
  <fix>3d</fix>
</trkpt>
<trkpt lat="40.0728228" lon="-105.2306867">
  <ele>1615.59</ele>
  <time>2026-08-28T19:13:11Z</time>
  <course>8.45</course>
  <speed>2.008307745341834</speed>
  <fix>3d</fix>
</trkpt>
<trkpt lat="40.0728213" lon="-105.230684">
  <ele>1615.43</ele>
  <time>2026-08-28T19:13:11Z</time>
  <course>295.99</course>
  <speed>2.26</speed>
  <fix>3d</fix>
</trkpt>
<trkpt lat="40.0728231" lon="-105.2306873">
  <ele>1615.59</ele>
  <time>2026-08-28T19:13:11Z</time>
  <course>8.46</course>
  <speed>1.9724603925047517</speed>
  <fix>3d</fix>
</trkpt>
<trkpt lat="40.0728244" lon="-105.230691">
  <ele>1615.59</ele>
  <time>2026-08-28T19:13:11Z</time>
  <course>8.53</course>
  <speed>1.833712082089225</speed>
  <fix>3d</fix>
</trkpt>
<trkpt lat="40.072823" lon="-105.2306885">
  <ele>1615.46</ele>
  <time>2026-08-28T19:13:11Z</time>
  <course>295.98</course>
  <speed>2.05</speed>
  <fix>3d</fix>
</trkpt>
<trkpt lat="40.0728258" lon="-105.230695">
  <ele>1615.6</ele>
  <time>2026-08-28T19:13:11Z</time>
  <course>8.6</course>
  <speed>1.6860901518009053</speed>
  <fix>3d</fix>
</trkpt>
<trkpt lat="40.0728245" lon="-105.2306926">
  <ele>1615.47</ele>
  <time>2026-08-28T19:13:11Z</time>
  <course>295.93</course>
  <speed>1.86</speed>
  <fix>3d</fix>
</trkpt>
<trkpt lat="40.072826" lon="-105.2306955">
  <ele>1615.6</ele>
  <time>2026-08-28T19:13:11Z</time>
  <course>8.61</course>
  <speed>1.6637307474468337</speed>
  <fix>3d</fix>
</trkpt>
<trkpt lat="40.072827" lon="-105.2306986">
  <ele>1615.6</ele>
  <time>2026-08-28T19:13:11Z</time>
  <course>8.67</course>
  <speed>1.547384890710776</speed>
  <fix>3d</fix>
</trkpt>
<trkpt lat="40.072826" lon="-105.2306964">
  <ele>1615.48</ele>
  <time>2026-08-28T19:13:11Z</time>
  <course>295.83</course>
  <speed>1.69</speed>
  <fix>3d</fix>
</trkpt>
<trkpt lat="40.0728282" lon="-105.2307019">
  <ele>1615.6</ele>
  <time>2026-08-28T19:13:11Z</time>
  <course>8.73</course>
  <speed>1.4087228258248674</speed>
  <fix>3d</fix>
</trkpt>
<trkpt lat="40.0728273" lon="-105.2306998">
  <ele>1615.48</ele>
  <time>2026-08-28T19:13:11Z</time>
  <course>295.73</course>
  <speed>1.53</speed>
  <fix>3d</fix>
</trkpt>
<trkpt lat="40.0728284" lon="-105.2307023">
  <ele>1615.6</ele>
  <time>2026-08-28T19:13:11Z</time>
  <course>8.73</course>
  <speed>1.395313584826006</speed>
  <fix>3d</fix>
</trkpt>
<trkpt lat="40.0728293" lon="-105.2307049">
  <ele>1615.6</ele>
  <time>2026-08-28T19:13:11Z</time>
  <course>8.74</course>
  <speed>1.2924782396620842</speed>
  <fix>3d</fix>
</trkpt>
<trkpt lat="40.0728284" lon="-105.230703">
  <ele>1615.48</ele>
  <time>2026-08-28T19:13:11Z</time>
  <course>295.61</course>
  <speed>1.39</speed>
  <fix>3d</fix>
</trkpt>
<trkpt lat="40.0728302" lon="-105.2307076">
  <ele>1615.6</ele>
  <time>2026-08-28T19:13:11Z</time>
  <course>8.78</course>
  <speed>1.1806777714516352</speed>
  <fix>3d</fix>
</trkpt>
<trkpt lat="40.0728294" lon="-105.2307058">
  <ele>1615.48</ele>
  <time>2026-08-28T19:13:11Z</time>
  <course>295.47</course>
  <speed>1.26</speed>
  <fix>3d</fix>
</trkpt>
<trkpt lat="40.0728304" lon="-105.230708">
  <ele>1615.6</ele>
  <time>2026-08-28T19:13:11Z</time>
  <course>8.79</course>
  <speed>1.1583177456984763</speed>
  <fix>3d</fix>
</trkpt>
<trkpt lat="40.0728311" lon="-105.23071">
  <ele>1615.61</ele>
  <time>2026-08-28T19:13:11Z</time>
  <course>8.82</course>
  <speed>1.0778682665335315</speed>
  <fix>3d</fix>
</trkpt>
<trkpt lat="40.0728303" lon="-105.2307083">
  <ele>1615.48</ele>
  <time>2026-08-28T19:13:11Z</time>
  <course>295.31</course>
  <speed>1.14</speed>
  <fix>3d</fix>
</trkpt>
<trkpt lat="40.0728318" lon="-105.2307122">
  <ele>1615.61</ele>
  <time>2026-08-28T19:13:11Z</time>
  <course>8.8</course>
  <speed>0.9794386147176352</speed>
  <fix>3d</fix>
</trkpt>
<trkpt lat="40.0728311" lon="-105.2307106">
  <ele>1615.48</ele>
  <time>2026-08-28T19:13:11Z</time>
  <course>295.12</course>
  <speed>1.03</speed>
  <fix>3d</fix>
</trkpt>
<trkpt lat="40.0728319" lon="-105.2307125">
  <ele>1615.61</ele>
  <time>2026-08-28T19:13:11Z</time>
  <course>8.8</course>
  <speed>0.9660745312862771</speed>
  <fix>3d</fix>
</trkpt>
<trkpt lat="40.0728325" lon="-105.2307142">
  <ele>1615.6</ele>
  <time>2026-08-28T19:13:11Z</time>
  <course>8.83</course>
  <speed>0.8856635930193812</speed>
  <fix>3d</fix>
</trkpt>
<trkpt lat="40.0728319" lon="-105.2307127">
  <ele>1615.48</ele>
  <time>2026-08-28T19:13:11Z</time>
  <course>294.89</course>
  <speed>0.93</speed>
  <fix>3d</fix>
</trkpt>
<trkpt lat="40.0728331" lon="-105.230716">
  <ele>1615.6</ele>
  <time>2026-08-28T19:13:11Z</time>
  <course>8.87</course>
  <speed>0.8052949770115296</speed>
  <fix>3d</fix>
</trkpt>
<trkpt lat="40.0728326" lon="-105.2307146">
  <ele>1615.48</ele>
  <time>2026-08-28T19:13:11Z</time>
  <course>294.59</course>
  <speed>0.84</speed>
  <fix>3d</fix>
</trkpt>
<trkpt lat="40.0728332" lon="-105.2307162">
  <ele>1615.6</ele>
  <time>2026-08-28T19:13:11Z</time>
  <course>8.88</course>
  <speed>0.7962411694957753</speed>
  <fix>3d</fix>
</trkpt>
<trkpt lat="40.0728337" lon="-105.2307176">
  <ele>1615.59</ele>
  <time>2026-08-28T19:13:11Z</time>
  <course>8.91</course>
  <speed>0.7382411530116699</speed>
  <fix>3d</fix>
</trkpt>
<trkpt lat="40.0728332" lon="-105.2307163">
  <ele>1615.48</ele>
  <time>2026-08-28T19:13:11Z</time>
  <course>294.27</course>
  <speed>0.75</speed>
  <fix>3d</fix>
</trkpt>
<trkpt lat="40.0728341" lon="-105.230719">
  <ele>1615.59</ele>
  <time>2026-08-28T19:13:11Z</time>
  <course>8.96</course>
  <speed>0.6711929677819934</speed>
  <fix>3d</fix>
</trkpt>
<trkpt lat="40.0728337" lon="-105.2307178">
  <ele>1615.48</ele>
  <time>2026-08-28T19:13:11Z</time>
  <course>293.92</course>
  <speed>0.68</speed>
  <fix>3d</fix>
</trkpt>
<trkpt lat="40.0728342" lon="-105.2307192">
  <ele>1615.59</ele>
  <time>2026-08-28T19:13:11Z</time>
  <course>8.96</course>
  <speed>0.6579513659838392</speed>
  <fix>3d</fix>
</trkpt>
<trkpt lat="40.0728346" lon="-105.2307203">
  <ele>1615.59</ele>
  <time>2026-08-28T19:13:11Z</time>
  <course>8.97</course>
  <speed>0.6041522986797286</speed>
  <fix>3d</fix>
</trkpt>
<trkpt lat="40.0728342" lon="-105.2307192">
  <ele>1615.48</ele>
  <time>2026-08-28T19:13:11Z</time>
  <course>293.49</course>
  <speed>0.61</speed>
  <fix>3d</fix>
</trkpt>
<trkpt lat="40.072835" lon="-105.2307215">
  <ele>1615.59</ele>
  <time>2026-08-28T19:13:11Z</time>
  <course>8.97</course>
  <speed>0.5462600113499065</speed>
  <fix>3d</fix>
</trkpt>
<trkpt lat="40.0728345" lon="-105.2307204">
  <ele>1615.48</ele>
  <time>2026-08-28T19:13:11Z</time>
  <course>292.99</course>
  <speed>0.55</speed>
  <fix>3d</fix>
</trkpt>
<trkpt lat="40.072835" lon="-105.2307217">
  <ele>1615.59</ele>
  <time>2026-08-28T19:13:11Z</time>
  <course>8.97</course>
  <speed>0.5462600113499065</speed>
  <fix>3d</fix>
</trkpt>
<trkpt lat="40.0728353" lon="-105.2307226">
  <ele>1615.59</ele>
  <time>2026-08-28T19:13:11Z</time>
  <course>8.99</course>
  <speed>0.5015974481593781</speed>
  <fix>3d</fix>
</trkpt>
<trkpt lat="40.0728349" lon="-105.2307216">
  <ele>1615.49</ele>
  <time>2026-08-28T19:13:11Z</time>
  <course>292.38</course>
  <speed>0.49</speed>
  <fix>3d</fix>
</trkpt>
<trkpt lat="40.0728356" lon="-105.2307235">
  <ele>1615.59</ele>
  <time>2026-08-28T19:13:11Z</time>
  <course>9.02</course>
  <speed>0.4477722635447622</speed>
  <fix>3d</fix>
</trkpt>
<trkpt lat="40.0728352" lon="-105.2307227">
  <ele>1615.49</ele>
  <time>2026-08-28T19:13:11Z</time>
  <course>291.63</course>
  <speed>0.44</speed>
  <fix>3d</fix>
</trkpt>
<trkpt lat="40.0728356" lon="-105.2307236">
  <ele>1615.59</ele>
  <time>2026-08-28T19:13:11Z</time>
  <course>9.03</course>
  <speed>0.4438468204234429</speed>
  <fix>3d</fix>
</trkpt>
<trkpt lat="40.0728358" lon="-105.2307244">
  <ele>1615.59</ele>
  <time>2026-08-28T19:13:11Z</time>
  <course>9.04</course>
  <speed>0.3992492955535426</speed>
  <fix>3d</fix>
</trkpt>
<trkpt lat="40.0728355" lon="-105.2307236">
  <ele>1615.49</ele>
  <time>2026-08-28T19:13:11Z</time>
  <course>290.79</course>
  <speed>0.4</speed>
  <fix>3d</fix>
</trkpt>
<trkpt lat="40.072836" lon="-105.2307252">
  <ele>1615.6</ele>
  <time>2026-08-28T19:13:11Z</time>
  <course>9.04</course>
  <speed>0.3676955262170047</speed>
  <fix>3d</fix>
</trkpt>
<trkpt lat="40.0728358" lon="-105.2307243">
  <ele>1615.49</ele>
  <time>2026-08-28T19:13:11Z</time>
  <course>289.87</course>
  <speed>0.35</speed>
  <fix>3d</fix>
</trkpt>
<trkpt lat="40.0728361" lon="-105.2307253">
  <ele>1615.6</ele>
  <time>2026-08-28T19:13:11Z</time>
  <course>9.04</course>
  <speed>0.354682957019364</speed>
  <fix>3d</fix>
</trkpt>
<trkpt lat="40.0728362" lon="-105.2307259">
  <ele>1615.6</ele>
  <time>2026-08-28T19:13:11Z</time>
  <course>9.06</course>
  <speed>0.33241540277189324</speed>
  <fix>3d</fix>
</trkpt>
<trkpt lat="40.0728359" lon="-105.2307252">
  <ele>1615.5</ele>
  <time>2026-08-28T19:13:11Z</time>
  <course>288.81</course>
  <speed>0.32</speed>
  <fix>3d</fix>
</trkpt>
<trkpt lat="40.0728364" lon="-105.2307265">
  <ele>1615.61</ele>
  <time>2026-08-28T19:13:11Z</time>
  <course>9.08</course>
  <speed>0.2973213749463701</speed>
  <fix>3d</fix>
</trkpt>
<trkpt lat="40.0728362" lon="-105.2307259">
  <ele>1615.5</ele>
  <time>2026-08-28T19:13:11Z</time>
  <course>287.58</course>
  <speed>0.28</speed>
  <fix>3d</fix>
</trkpt>
<trkpt lat="40.0728364" lon="-105.2307266">
  <ele>1615.61</ele>
  <time>2026-08-28T19:13:11Z</time>
  <course>9.07</course>
  <speed>0.2879236009777594</speed>
  <fix>3d</fix>
</trkpt>
<trkpt lat="40.0728365" lon="-105.230727">
  <ele>1615.6</ele>
  <time>2026-08-28T19:13:11Z</time>
  <course>9.09</course>
  <speed>0.26570660511172844</speed>
  <fix>3d</fix>
</trkpt>
<trkpt lat="40.0728363" lon="-105.2307265">
  <ele>1615.5</ele>
  <time>2026-08-28T19:13:11Z</time>
  <course>286.22</course>
  <speed>0.26</speed>
  <fix>3d</fix>
</trkpt>
<trkpt lat="40.0728366" lon="-105.2307276">
  <ele>1615.6</ele>
  <time>2026-08-28T19:13:11Z</time>
  <course>9.12</course>
  <speed>0.24351591323771843</speed>
  <fix>3d</fix>
</trkpt>
<trkpt lat="40.0728364" lon="-105.230727">
  <ele>1615.5</ele>
  <time>2026-08-28T19:13:11Z</time>
  <course>284.62</course>
  <speed>0.23</speed>
  <fix>3d</fix>
</trkpt>
<trkpt lat="40.0728366" lon="-105.2307276">
  <ele>1615.6</ele>
  <time>2026-08-28T19:13:11Z</time>
  <course>9.12</course>
  <speed>0.2340939982143925</speed>
  <fix>3d</fix>
</trkpt>
<trkpt lat="40.0728367" lon="-105.230728">
  <ele>1615.6</ele>
  <time>2026-08-28T19:13:11Z</time>
  <course>9.14</course>
  <speed>0.21189620100417092</speed>
  <fix>3d</fix>
</trkpt>
<trkpt lat="40.0728365" lon="-105.2307275">
  <ele>1615.5</ele>
  <time>2026-08-28T19:13:11Z</time>
  <course>282.64</course>
  <speed>0.2</speed>
  <fix>3d</fix>
</trkpt>
<trkpt lat="40.0728367" lon="-105.2307284">
  <ele>1615.6</ele>
  <time>2026-08-28T19:13:11Z</time>
  <course>9.14</course>
  <speed>0.18973665961010278</speed>
  <fix>3d</fix>
</trkpt>
<trkpt lat="40.0728365" lon="-105.230728">
  <ele>1615.5</ele>
  <time>2026-08-28T19:13:11Z</time>
  <course>280.41</course>
  <speed>0.18</speed>
  <fix>3d</fix>
</trkpt>
<trkpt lat="40.0728367" lon="-105.2307285">
  <ele>1615.6</ele>
  <time>2026-08-28T19:13:11Z</time>
  <course>9.14</course>
  <speed>0.18681541692269404</speed>
  <fix>3d</fix>
</trkpt>
<trkpt lat="40.0728368" lon="-105.2307288">
  <ele>1615.6</ele>
  <time>2026-08-28T19:13:11Z</time>
  <course>9.17</course>
  <speed>0.1772004514666935</speed>
  <fix>3d</fix>
</trkpt>
<trkpt lat="40.0728366" lon="-105.2307284">
  <ele>1615.5</ele>
  <time>2026-08-28T19:13:11Z</time>
  <course>277.89</course>
  <speed>0.17</speed>
  <fix>3d</fix>
</trkpt>
<trkpt lat="40.0728368" lon="-105.2307291">
  <ele>1615.6</ele>
  <time>2026-08-28T19:13:11Z</time>
  <course>9.18</course>
  <speed>0.15524174696260024</speed>
  <fix>3d</fix>
</trkpt>
<trkpt lat="40.0728366" lon="-105.2307288">
  <ele>1615.5</ele>
  <time>2026-08-28T19:13:11Z</time>
  <course>275.01</course>
  <speed>0.15</speed>
  <fix>3d</fix>
</trkpt>
<trkpt lat="40.0728368" lon="-105.2307292">
  <ele>1615.6</ele>
  <time>2026-08-28T19:13:11Z</time>
  <course>9.19</course>
  <speed>0.15297058540778355</speed>
  <fix>3d</fix>
</trkpt>
<trkpt lat="40.0728368" lon="-105.2307295">
  <ele>1615.6</ele>
  <time>2026-08-28T19:13:11Z</time>
  <course>9.21</course>
  <speed>0.13341664064126335</speed>
  <fix>3d</fix>
</trkpt>
<trkpt lat="40.0728366" lon="-105.2307291">
  <ele>1615.5</ele>
  <time>2026-08-28T19:13:11Z</time>
  <course>271.81</course>
  <speed>0.14</speed>
  <fix>3d</fix>
</trkpt>
<trkpt lat="40.0728368" lon="-105.2307297">
  <ele>1615.61</ele>
  <time>2026-08-28T19:13:11Z</time>
  <course>9.22</course>
  <speed>0.12165525060596438</speed>
  <fix>3d</fix>
</trkpt>
<trkpt lat="40.0728366" lon="-105.2307294">
  <ele>1615.5</ele>
  <time>2026-08-28T19:13:11Z</time>
  <course>268.28</course>
  <speed>0.13</speed>
  <fix>3d</fix>
</trkpt>
<trkpt lat="40.0728368" lon="-105.2307298">
  <ele>1615.61</ele>
  <time>2026-08-28T19:13:11Z</time>
  <course>9.21</course>
  <speed>0.12165525060596438</speed>
  <fix>3d</fix>
</trkpt>
<trkpt lat="40.0728368" lon="-105.23073">
  <ele>1615.61</ele>
  <time>2026-08-28T19:13:11Z</time>
  <course>9.23</course>
  <speed>0.11045361017187261</speed>
  <fix>3d</fix>
</trkpt>
<trkpt lat="40.0728366" lon="-105.2307297">
  <ele>1615.5</ele>
  <time>2026-08-28T19:13:11Z</time>
  <course>264.45</course>
  <speed>0.12</speed>
  <fix>3d</fix>
</trkpt>
<trkpt lat="40.0728367" lon="-105.2307302">
  <ele>1615.61</ele>
  <time>2026-08-28T19:13:11Z</time>
  <course>9.24</course>
  <speed>0.1</speed>
  <fix>3d</fix>
</trkpt>
<trkpt lat="40.0728366" lon="-105.23073">
  <ele>1615.5</ele>
  <time>2026-08-28T19:13:11Z</time>
  <course>260.32</course>
  <speed>0.11</speed>
  <fix>3d</fix>
</trkpt>
<trkpt lat="40.0728367" lon="-105.2307303">
  <ele>1615.61</ele>
  <time>2026-08-28T19:13:11Z</time>
  <course>9.25</course>
  <speed>0.1</speed>
  <fix>3d</fix>
</trkpt>
<trkpt lat="40.0728367" lon="-105.2307304">
  <ele>1615.61</ele>
  <time>2026-08-28T19:13:11Z</time>
  <course>9.25</course>
  <speed>0.09</speed>
  <fix>3d</fix>
</trkpt>
<trkpt lat="40.0728366" lon="-105.2307303">
  <ele>1615.5</ele>
  <time>2026-08-28T19:13:11Z</time>
  <course>256.09</course>
  <speed>0.1</speed>
  <fix>3d</fix>
</trkpt>
<trkpt lat="40.0728367" lon="-105.2307306">
  <ele>1615.62</ele>
  <time>2026-08-28T19:13:11Z</time>
  <course>9.26</course>
  <speed>0.08</speed>
  <fix>3d</fix>
</trkpt>
<trkpt lat="40.0728366" lon="-105.2307304">
  <ele>1615.5</ele>
  <time>2026-08-28T19:13:11Z</time>
  <course>251.99</course>
  <speed>0.1</speed>
  <fix>3d</fix>
</trkpt>
<trkpt lat="40.0728367" lon="-105.2307307">
  <ele>1615.62</ele>
  <time>2026-08-28T19:13:11Z</time>
  <course>9.26</course>
  <speed>0.08</speed>
  <fix>3d</fix>
</trkpt>
<trkpt lat="40.0728367" lon="-105.2307308">
  <ele>1615.62</ele>
  <time>2026-08-28T19:13:11Z</time>
  <course>9.28</course>
  <speed>0.08</speed>
  <fix>3d</fix>
</trkpt>
<trkpt lat="40.0728365" lon="-105.2307307">
  <ele>1615.5</ele>
  <time>2026-08-28T19:13:11Z</time>
  <course>248.19</course>
  <speed>0.1</speed>
  <fix>3d</fix>
</trkpt>
<trkpt lat="40.0728366" lon="-105.230731">
  <ele>1615.62</ele>
  <time>2026-08-28T19:13:11Z</time>
  <course>9.26</course>
  <speed>0.07071067811865475</speed>
  <fix>3d</fix>
</trkpt>
<trkpt lat="40.0728365" lon="-105.2307309">
  <ele>1615.49</ele>
  <time>2026-08-28T19:13:11Z</time>
  <course>244.96</course>
  <speed>0.09</speed>
  <fix>3d</fix>
</trkpt>
<trkpt lat="40.0728366" lon="-105.2307311">
  <ele>1615.62</ele>
  <time>2026-08-28T19:13:11Z</time>
  <course>9.27</course>
  <speed>0.07071067811865475</speed>
  <fix>3d</fix>
</trkpt>
<trkpt lat="40.0728365" lon="-105.2307312">
  <ele>1615.62</ele>
  <time>2026-08-28T19:13:11Z</time>
  <course>9.29</course>
  <speed>0.07071067811865475</speed>
  <fix>3d</fix>
</trkpt>
<trkpt lat="40.0728364" lon="-105.2307312">
  <ele>1615.49</ele>
  <time>2026-08-28T19:13:11Z</time>
  <course>242.29</course>
  <speed>0.09</speed>
  <fix>3d</fix>
</trkpt>
<trkpt lat="40.0728364" lon="-105.2307314">
  <ele>1615.62</ele>
  <time>2026-08-28T19:13:11Z</time>
  <course>9.3</course>
  <speed>0.06082762530298219</speed>
  <fix>3d</fix>
</trkpt>
<trkpt lat="40.0728363" lon="-105.2307314">
  <ele>1615.49</ele>
  <time>2026-08-28T19:13:11Z</time>
  <course>239.75</course>
  <speed>0.09</speed>
  <fix>3d</fix>
</trkpt>
<trkpt lat="40.0728364" lon="-105.2307314">
  <ele>1615.62</ele>
  <time>2026-08-28T19:13:11Z</time>
  <course>9.31</course>
  <speed>0.06082762530298219</speed>
  <fix>3d</fix>
</trkpt>
<trkpt lat="40.0728364" lon="-105.2307316">
  <ele>1615.62</ele>
  <time>2026-08-28T19:13:11Z</time>
  <course>9.33</course>
  <speed>0.0632455532033676</speed>
  <fix>3d</fix>
</trkpt>
<trkpt lat="40.0728362" lon="-105.2307315">
  <ele>1615.48</ele>
  <time>2026-08-28T19:13:11Z</time>
  <course>237.3</course>
  <speed>0.09</speed>
  <fix>3d</fix>
</trkpt>
<trkpt lat="40.0728363" lon="-105.2307317">
  <ele>1615.62</ele>
  <time>2026-08-28T19:13:11Z</time>
  <course>9.36</course>
  <speed>0.053851648071345036</speed>
  <fix>3d</fix>
</trkpt>
<trkpt lat="40.0728361" lon="-105.2307318">
  <ele>1615.47</ele>
  <time>2026-08-28T19:13:11Z</time>
  <course>235.37</course>
  <speed>0.09</speed>
  <fix>3d</fix>
</trkpt>
<trkpt lat="40.0728363" lon="-105.2307318">
  <ele>1615.62</ele>
  <time>2026-08-28T19:13:11Z</time>
  <course>9.37</course>
  <speed>0.053851648071345036</speed>
  <fix>3d</fix>
</trkpt>
<trkpt lat="40.0728362" lon="-105.2307319">
  <ele>1615.61</ele>
  <time>2026-08-28T19:13:11Z</time>
  <course>9.35</course>
  <speed>0.053851648071345036</speed>
  <fix>3d</fix>
</trkpt>
<trkpt lat="40.072836" lon="-105.2307319">
  <ele>1615.47</ele>
  <time>2026-08-28T19:13:11Z</time>
  <course>233.65</course>
  <speed>0.09</speed>
  <fix>3d</fix>
</trkpt>
<trkpt lat="40.0728361" lon="-105.2307321">
  <ele>1615.6</ele>
  <time>2026-08-28T19:13:11Z</time>
  <course>9.4</course>
  <speed>0.05830951894845301</speed>
  <fix>3d</fix>
</trkpt>
<trkpt lat="40.0728359" lon="-105.230732">
  <ele>1615.46</ele>
  <time>2026-08-28T19:13:11Z</time>
  <course>232.19</course>
  <speed>0.1</speed>
  <fix>3d</fix>
</trkpt>
<trkpt lat="40.072836" lon="-105.2307321">
  <ele>1615.6</ele>
  <time>2026-08-28T19:13:11Z</time>
  <course>9.4</course>
  <speed>0.05830951894845301</speed>
  <fix>3d</fix>
</trkpt>
<trkpt lat="40.0728359" lon="-105.2307322">
  <ele>1615.6</ele>
  <time>2026-08-28T19:13:11Z</time>
  <course>9.41</course>
  <speed>0.05830951894845301</speed>
  <fix>3d</fix>
</trkpt>
<trkpt lat="40.0728358" lon="-105.2307323">
  <ele>1615.46</ele>
  <time>2026-08-28T19:13:11Z</time>
  <course>230.98</course>
  <speed>0.1</speed>
  <fix>3d</fix>
</trkpt>
<trkpt lat="40.0728358" lon="-105.2307324">
  <ele>1615.6</ele>
  <time>2026-08-28T19:13:11Z</time>
  <course>9.43</course>
  <speed>0.05830951894845301</speed>
  <fix>3d</fix>
</trkpt>
<trkpt lat="40.0728357" lon="-105.2307324">
  <ele>1615.46</ele>
  <time>2026-08-28T19:13:11Z</time>
  <course>229.76</course>
  <speed>0.1</speed>
  <fix>3d</fix>
</trkpt>
<trkpt lat="40.0728358" lon="-105.2307324">
  <ele>1615.6</ele>
  <time>2026-08-28T19:13:11Z</time>
  <course>9.43</course>
  <speed>0.05830951894845301</speed>
  <fix>3d</fix>
</trkpt>
<trkpt lat="40.0728357" lon="-105.2307326">
  <ele>1615.6</ele>
  <time>2026-08-28T19:13:11Z</time>
  <course>9.44</course>
  <speed>0.05</speed>
  <fix>3d</fix>
</trkpt>
<trkpt lat="40.0728356" lon="-105.2307327">
  <ele>1615.45</ele>
  <time>2026-08-28T19:13:11Z</time>
  <course>228.77</course>
  <speed>0.1</speed>
  <fix>3d</fix>
</trkpt>
<trkpt lat="40.0728356" lon="-105.2307327">
  <ele>1615.6</ele>
  <time>2026-08-28T19:13:11Z</time>
  <course>9.45</course>
  <speed>0.0565685424949238</speed>
  <fix>3d</fix>
</trkpt>
<trkpt lat="40.0728354" lon="-105.2307328">
  <ele>1615.45</ele>
  <time>2026-08-28T19:13:11Z</time>
  <course>227.86</course>
  <speed>0.1</speed>
  <fix>3d</fix>
</trkpt>
<trkpt lat="40.0728356" lon="-105.2307328">
  <ele>1615.6</ele>
  <time>2026-08-28T19:13:11Z</time>
  <course>9.46</course>
  <speed>0.0565685424949238</speed>
  <fix>3d</fix>
</trkpt>
<trkpt lat="40.0728355" lon="-105.2307329">
  <ele>1615.6</ele>
  <time>2026-08-28T19:13:11Z</time>
  <course>9.44</course>
  <speed>0.0565685424949238</speed>
  <fix>3d</fix>
</trkpt>
<trkpt lat="40.0728353" lon="-105.2307331">
  <ele>1615.45</ele>
  <time>2026-08-28T19:13:11Z</time>
  <course>226.9</course>
  <speed>0.1</speed>
  <fix>3d</fix>
</trkpt>
<trkpt lat="40.0728353" lon="-105.2307331">
  <ele>1615.59</ele>
  <time>2026-08-28T19:13:11Z</time>
  <course>9.47</course>
  <speed>0.0565685424949238</speed>
  <fix>3d</fix>
</trkpt>
<trkpt lat="40.0728352" lon="-105.2307332">
  <ele>1615.45</ele>
  <time>2026-08-28T19:13:11Z</time>
  <course>226.13</course>
  <speed>0.1</speed>
  <fix>3d</fix>
</trkpt>
<trkpt lat="40.0728353" lon="-105.2307331">
  <ele>1615.59</ele>
  <time>2026-08-28T19:13:11Z</time>
  <course>9.47</course>
  <speed>0.0565685424949238</speed>
  <fix>3d</fix>
</trkpt>
<trkpt lat="40.0728352" lon="-105.2307333">
  <ele>1615.6</ele>
  <time>2026-08-28T19:13:11Z</time>
  <course>9.49</course>
  <speed>0.0565685424949238</speed>
  <fix>3d</fix>
</trkpt>
<trkpt lat="40.0728351" lon="-105.2307333">
  <ele>1615.45</ele>
  <time>2026-08-28T19:13:11Z</time>
  <course>225.52</course>
  <speed>0.1</speed>
  <fix>3d</fix>
</trkpt>
<trkpt lat="40.0728351" lon="-105.2307334">
  <ele>1615.6</ele>
  <time>2026-08-28T19:13:11Z</time>
  <course>9.5</course>
  <speed>0.0565685424949238</speed>
  <fix>3d</fix>
</trkpt>
<trkpt lat="40.0728349" lon="-105.2307336">
  <ele>1615.45</ele>
  <time>2026-08-28T19:13:11Z</time>
  <course>224.82</course>
  <speed>0.11</speed>
  <fix>3d</fix>
</trkpt>
<trkpt lat="40.072835" lon="-105.2307335">
  <ele>1615.6</ele>
  <time>2026-08-28T19:13:11Z</time>
  <course>9.5</course>
  <speed>0.06403124237432849</speed>
  <fix>3d</fix>
</trkpt>
<trkpt lat="40.0728349" lon="-105.2307336">
  <ele>1615.6</ele>
  <time>2026-08-28T19:13:11Z</time>
  <course>9.48</course>
  <speed>0.06403124237432849</speed>
  <fix>3d</fix>
</trkpt>
<trkpt lat="40.0728348" lon="-105.2307338">
  <ele>1615.45</ele>
  <time>2026-08-28T19:13:11Z</time>
  <course>224.15</course>
  <speed>0.11</speed>
  <fix>3d</fix>
</trkpt>
<trkpt lat="40.0728348" lon="-105.2307338">
  <ele>1615.59</ele>
  <time>2026-08-28T19:13:11Z</time>
  <course>9.2</course>
  <speed>0.053851648071345036</speed>
  <fix>3d</fix>
</trkpt>
<trkpt lat="40.0728347" lon="-105.2307339">
  <ele>1615.44</ele>
  <time>2026-08-28T19:13:11Z</time>
  <course>223.65</course>
  <speed>0.11</speed>
  <fix>3d</fix>
</trkpt>
<trkpt lat="40.0728346" lon="-105.2307339">
  <ele>1615.44</ele>
  <time>2026-08-28T19:13:11Z</time>
  <course>6.95</course>
  <speed>0.0670820393249937</speed>
  <fix>3d</fix>
</trkpt>
<trkpt lat="40.0728345" lon="-105.2307341">
  <ele>1615.4</ele>
  <time>2026-08-28T19:13:11Z</time>
  <course>216.02</course>
  <speed>0.1</speed>
  <fix>3d</fix>
</trkpt>
<trkpt lat="40.0728345" lon="-105.2307335">
  <ele>1615.16</ele>
  <time>2026-08-28T19:13:11Z</time>
  <course>5.69</course>
  <speed>0.41303752856126763</speed>
  <fix>3d</fix>
</trkpt>
<trkpt lat="40.0728344" lon="-105.2307342">
  <ele>1615.25</ele>
  <time>2026-08-28T19:13:11Z</time>
  <course>147.43</course>
  <speed>0.09</speed>
  <fix>3d</fix>
</trkpt>
<trkpt lat="40.0728343" lon="-105.2307319">
  <ele>1614.74</ele>
  <time>2026-08-28T19:13:11Z</time>
  <course>4.24</course>
  <speed>1.1421471008587292</speed>
  <fix>3d</fix>
</trkpt>
<trkpt lat="40.0728342" lon="-105.2307337">
  <ele>1614.96</ele>
  <time>2026-08-28T19:13:11Z</time>
  <course>99.97</course>
  <speed>0.45</speed>
  <fix>3d</fix>
</trkpt>
<trkpt lat="40.0728341" lon="-105.2307284">
  <ele>1614.11</ele>
  <time>2026-08-28T19:13:11Z</time>
  <course>4.16</course>
  <speed>1.8339302058693512</speed>
  <fix>3d</fix>
</trkpt>
<trkpt lat="40.072834" lon="-105.2307319">
  <ele>1614.52</ele>
  <time>2026-08-28T19:13:11Z</time>
  <course>94.77</course>
  <speed>1.13</speed>
  <fix>3d</fix>
</trkpt>
<trkpt lat="40.0728338" lon="-105.230724">
  <ele>1613.17</ele>
  <time>2026-08-28T19:13:11Z</time>
  <course>5.34</course>
  <speed>1.955019181491578</speed>
  <fix>3d</fix>
</trkpt>
<trkpt lat="40.0728339" lon="-105.2307285">
  <ele>1613.86</ele>
  <time>2026-08-28T19:13:11Z</time>
  <course>94.24</course>
  <speed>1.74</speed>
  <fix>3d</fix>
</trkpt>
<trkpt lat="40.0728338" lon="-105.2307236">
  <ele>1612.02</ele>
  <time>2026-08-28T19:13:11Z</time>
  <course>4.46</course>
  <speed>2.000024999843752</speed>
  <fix>3d</fix>
</trkpt>
<trkpt lat="40.0728336" lon="-105.2307244">
  <ele>1612.91</ele>
  <time>2026-08-28T19:13:11Z</time>
  <course>94.23</course>
  <speed>1.09</speed>
  <fix>3d</fix>
</trkpt>
<trkpt lat="40.0728344" lon="-105.2307332">
  <ele>1610.99</ele>
  <time>2026-08-28T19:13:11Z</time>
  <course>0.01</course>
  <speed>5.569245909456684</speed>
  <fix>3d</fix>
</trkpt>
<trkpt lat="40.0728336" lon="-105.2307249">
  <ele>1611.8</ele>
  <time>2026-08-28T19:13:11Z</time>
  <course>275.5</course>
  <speed>1.97</speed>
  <fix>3d</fix>
</trkpt>
<trkpt lat="40.0728355" lon="-105.2307483">
  <ele>1610.37</ele>
  <time>2026-08-28T19:13:11Z</time>
  <course>357.07</course>
  <speed>7.277320935619096</speed>
  <fix>3d</fix>
</trkpt>
<trkpt lat="40.0728342" lon="-105.2307338">
  <ele>1610.82</ele>
  <time>2026-08-28T19:13:11Z</time>
  <course>275.2</course>
  <speed>5.44</speed>
  <fix>3d</fix>
</trkpt>
<trkpt lat="40.0728365" lon="-105.2307654">
  <ele>1610.23</ele>
  <time>2026-08-28T19:13:11Z</time>
  <course>356.36</course>
  <speed>7.631317055397449</speed>
  <fix>3d</fix>
</trkpt>
<trkpt lat="40.0728352" lon="-105.2307489">
  <ele>1610.21</ele>
  <time>2026-08-28T19:13:11Z</time>
  <course>274.57</course>
  <speed>7.19</speed>
  <fix>3d</fix>
</trkpt>
<trkpt lat="40.0728374" lon="-105.2307827">
  <ele>1610.46</ele>
  <time>2026-08-28T19:13:11Z</time>
  <course>358.78</course>
  <speed>7.332189304702927</speed>
  <fix>3d</fix>
</trkpt>
<trkpt lat="40.0728362" lon="-105.2307665">
  <ele>1610.07</ele>
  <time>2026-08-28T19:13:11Z</time>
  <course>274.05</course>
  <speed>7.67</speed>
  <fix>3d</fix>
</trkpt>
<trkpt lat="40.0728383" lon="-105.2307992">
  <ele>1610.82</ele>
  <time>2026-08-28T19:13:11Z</time>
  <course>3.7</course>
  <speed>6.864546598283095</speed>
  <fix>3d</fix>
</trkpt>
<trkpt lat="40.0728371" lon="-105.2307843">
  <ele>1610.29</ele>
  <time>2026-08-28T19:13:11Z</time>
  <course>274.18</course>
  <speed>7.46</speed>
  <fix>3d</fix>
</trkpt>
<trkpt lat="40.0728393" lon="-105.2308147">
  <ele>1611.15</ele>
  <time>2026-08-28T19:13:11Z</time>
  <course>8.45</course>
  <speed>6.366474691695554</speed>
  <fix>3d</fix>
</trkpt>
<trkpt lat="40.0728382" lon="-105.2308013">
  <ele>1610.64</ele>
  <time>2026-08-28T19:13:11Z</time>
  <course>274.6</course>
  <speed>7.0</speed>
  <fix>3d</fix>
</trkpt>
<trkpt lat="40.0728403" lon="-105.2308293">
  <ele>1611.46</ele>
  <time>2026-08-28T19:13:11Z</time>
  <course>9.55</course>
  <speed>5.937423683720069</speed>
  <fix>3d</fix>
</trkpt>
<trkpt lat="40.0728392" lon="-105.2308171">
  <ele>1610.99</ele>
  <time>2026-08-28T19:13:11Z</time>
  <course>275.01</course>
  <speed>6.51</speed>
  <fix>3d</fix>
</trkpt>
<trkpt lat="40.0728413" lon="-105.2308431">
  <ele>1611.74</ele>
  <time>2026-08-28T19:13:11Z</time>
  <course>9.89</course>
  <speed>5.558282108709489</speed>
  <fix>3d</fix>
</trkpt>
<trkpt lat="40.0728402" lon="-105.2308319">
  <ele>1611.3</ele>
  <time>2026-08-28T19:13:11Z</time>
  <course>275.39</course>
  <speed>6.06</speed>
  <fix>3d</fix>
</trkpt>
<trkpt lat="40.0728422" lon="-105.230856">
  <ele>1611.98</ele>
  <time>2026-08-28T19:13:11Z</time>
  <course>10.49</course>
  <speed>5.187147578390266</speed>
  <fix>3d</fix>
</trkpt>
<trkpt lat="40.0728413" lon="-105.2308456">
  <ele>1611.58</ele>
  <time>2026-08-28T19:13:11Z</time>
  <course>275.68</course>
  <speed>5.65</speed>
  <fix>3d</fix>
</trkpt>
<trkpt lat="40.0728431" lon="-105.230868">
  <ele>1612.15</ele>
  <time>2026-08-28T19:13:11Z</time>
  <course>11.1</course>
  <speed>4.804039966528173</speed>
  <fix>3d</fix>
</trkpt>
<trkpt lat="40.0728422" lon="-105.2308583">
  <ele>1611.81</ele>
  <time>2026-08-28T19:13:11Z</time>
  <course>275.81</course>
  <speed>5.26</speed>
  <fix>3d</fix>
</trkpt>
<trkpt lat="40.0728439" lon="-105.2308791">
  <ele>1612.27</ele>
  <time>2026-08-28T19:13:11Z</time>
  <course>11.63</course>
  <speed>4.400090908151785</speed>
  <fix>3d</fix>
</trkpt>
<trkpt lat="40.0728431" lon="-105.2308701">
  <ele>1611.98</ele>
  <time>2026-08-28T19:13:11Z</time>
  <course>275.8</course>
  <speed>4.86</speed>
  <fix>3d</fix>
</trkpt>
<trkpt lat="40.0728447" lon="-105.2308892">
  <ele>1612.32</ele>
  <time>2026-08-28T19:13:11Z</time>
  <course>11.98</course>
  <speed>3.976329966187414</speed>
  <fix>3d</fix>
</trkpt>
<trkpt lat="40.072844" lon="-105.230881">
  <ele>1612.09</ele>
  <time>2026-08-28T19:13:11Z</time>
  <course>275.68</course>
  <speed>4.44</speed>
  <fix>3d</fix>
</trkpt>
<trkpt lat="40.0728453" lon="-105.2308982">
  <ele>1612.32</ele>
  <time>2026-08-28T19:13:11Z</time>
  <course>12.17</course>
  <speed>3.5327609599292167</speed>
  <fix>3d</fix>
</trkpt>
<trkpt lat="40.0728447" lon="-105.2308908">
  <ele>1612.14</ele>
  <time>2026-08-28T19:13:11Z</time>
  <course>275.51</course>
  <speed>4.01</speed>
  <fix>3d</fix>
</trkpt>
<trkpt lat="40.0728458" lon="-105.230906">
  <ele>1612.27</ele>
  <time>2026-08-28T19:13:11Z</time>
  <course>12.23</course>
  <speed>3.0394900888142407</speed>
  <fix>3d</fix>
</trkpt>
<trkpt lat="40.0728453" lon="-105.2308997">
  <ele>1612.13</ele>
  <time>2026-08-28T19:13:11Z</time>
  <course>275.3</course>
  <speed>3.54</speed>
  <fix>3d</fix>
</trkpt>
<trkpt lat="40.0728462" lon="-105.2309127">
  <ele>1612.19</ele>
  <time>2026-08-28T19:13:11Z</time>
  <course>12.19</course>
  <speed>2.5264203925712763</speed>
  <fix>3d</fix>
</trkpt>
<trkpt lat="40.0728459" lon="-105.2309074">
  <ele>1612.09</ele>
  <time>2026-08-28T19:13:11Z</time>
  <course>275.05</course>
  <speed>3.04</speed>
  <fix>3d</fix>
</trkpt>
<trkpt lat="40.0728465" lon="-105.2309181">
  <ele>1612.09</ele>
  <time>2026-08-28T19:13:11Z</time>
  <course>12.06</course>
  <speed>2.0042205467462906</speed>
  <fix>3d</fix>
</trkpt>
<trkpt lat="40.0728464" lon="-105.2309139">
  <ele>1612.01</ele>
  <time>2026-08-28T19:13:11Z</time>
  <course>274.82</course>
  <speed>2.51</speed>
  <fix>3d</fix>
</trkpt>
<trkpt lat="40.0728468" lon="-105.2309224">
  <ele>1611.96</ele>
  <time>2026-08-28T19:13:11Z</time>
  <course>11.91</course>
  <speed>1.5126797413861268</speed>
  <fix>3d</fix>
</trkpt>
<trkpt lat="40.0728467" lon="-105.2309191">
  <ele>1611.89</ele>
  <time>2026-08-28T19:13:11Z</time>
  <course>274.75</course>
  <speed>1.98</speed>
  <fix>3d</fix>
</trkpt>
<trkpt lat="40.0728469" lon="-105.2309255">
  <ele>1611.82</ele>
  <time>2026-08-28T19:13:11Z</time>
  <course>11.78</course>
  <speed>1.0517128885774862</speed>
  <fix>3d</fix>
</trkpt>
<trkpt lat="40.0728469" lon="-105.2309232">
  <ele>1611.77</ele>
  <time>2026-08-28T19:13:11Z</time>
  <course>274.98</course>
  <speed>1.48</speed>
  <fix>3d</fix>
</trkpt>
<trkpt lat="40.0728471" lon="-105.2309276">
  <ele>1611.67</ele>
  <time>2026-08-28T19:13:11Z</time>
  <course>11.67</course>
  <speed>0.6512296062065974</speed>
  <fix>3d</fix>
</trkpt>
<trkpt lat="40.0728472" lon="-105.2309262">
  <ele>1611.62</ele>
  <time>2026-08-28T19:13:11Z</time>
  <course>275.63</course>
  <speed>1.01</speed>
  <fix>3d</fix>
</trkpt>
<trkpt lat="40.0728472" lon="-105.2309288">
  <ele>1611.52</ele>
  <time>2026-08-28T19:13:11Z</time>
  <course>11.58</course>
  <speed>0.3101612483854165</speed>
  <fix>3d</fix>
</trkpt>
<trkpt lat="40.0728473" lon="-105.2309281">
  <ele>1611.46</ele>
  <time>2026-08-28T19:13:11Z</time>
  <course>277.01</course>
  <speed>0.6</speed>
  <fix>3d</fix>
</trkpt>
<trkpt lat="40.0728473" lon="-105.2309292">
  <ele>1611.36</ele>
  <time>2026-08-28T19:13:11Z</time>
  <course>11.53</course>
  <speed>0.02</speed>
  <fix>3d</fix>
</trkpt>
<trkpt lat="40.0728474" lon="-105.230929">
  <ele>1611.31</ele>
  <time>2026-08-28T19:13:11Z</time>
  <course>281.09</course>
  <speed>0.25</speed>
  <fix>3d</fix>
</trkpt>
<trkpt lat="40.0728473" lon="-105.230929">
  <ele>1611.21</ele>
  <time>2026-08-28T19:13:11Z</time>
  <course>11.5</course>
  <speed>0.20223748416156684</speed>
  <fix>3d</fix>
</trkpt>
<trkpt lat="40.0728475" lon="-105.2309292">
  <ele>1611.15</ele>
  <time>2026-08-28T19:13:11Z</time>
  <course>57.54</course>
  <speed>0.04</speed>
  <fix>3d</fix>
</trkpt>
<trkpt lat="40.0728474" lon="-105.2309284">
  <ele>1611.05</ele>
  <time>2026-08-28T19:13:11Z</time>
  <course>11.47</course>
  <speed>0.383275357934736</speed>
  <fix>3d</fix>
</trkpt>
<trkpt lat="40.0728475" lon="-105.2309289">
  <ele>1611.0</ele>
  <time>2026-08-28T19:13:11Z</time>
  <course>89.8</course>
  <speed>0.27</speed>
  <fix>3d</fix>
</trkpt>
<trkpt lat="40.0728473" lon="-105.2309272">
  <ele>1610.91</ele>
  <time>2026-08-28T19:13:11Z</time>
  <course>11.4</course>
  <speed>0.5346026561849464</speed>
  <fix>3d</fix>
</trkpt>
<trkpt lat="40.0728475" lon="-105.2309281">
  <ele>1610.85</ele>
  <time>2026-08-28T19:13:11Z</time>
  <course>92.8</course>
  <speed>0.45</speed>
  <fix>3d</fix>
</trkpt>
<trkpt lat="40.0728472" lon="-105.2309258">
  <ele>1610.77</ele>
  <time>2026-08-28T19:13:11Z</time>
  <course>11.26</course>
  <speed>0.6562011886609167</speed>
  <fix>3d</fix>
</trkpt>
<trkpt lat="40.0728475" lon="-105.2309269">
  <ele>1610.71</ele>
  <time>2026-08-28T19:13:11Z</time>
  <course>94.38</course>
  <speed>0.6</speed>
  <fix>3d</fix>
</trkpt>
<trkpt lat="40.0728471" lon="-105.230924">
  <ele>1610.65</ele>
  <time>2026-08-28T19:13:11Z</time>
  <course>11.05</course>
  <speed>0.7778174593052023</speed>
  <fix>3d</fix>
</trkpt>
<trkpt lat="40.0728474" lon="-105.2309253">
  <ele>1610.57</ele>
  <time>2026-08-28T19:13:11Z</time>
  <course>95.56</course>
  <speed>0.73</speed>
  <fix>3d</fix>
</trkpt>
<trkpt lat="40.0728469" lon="-105.230922">
  <ele>1610.55</ele>
  <time>2026-08-28T19:13:11Z</time>
  <course>10.8</course>
  <speed>0.8895504482602434</speed>
  <fix>3d</fix>
</trkpt>
<trkpt lat="40.0728473" lon="-105.2309234">
  <ele>1610.45</ele>
  <time>2026-08-28T19:13:11Z</time>
  <course>96.4</course>
  <speed>0.85</speed>
  <fix>3d</fix>
</trkpt>
<trkpt lat="40.0728467" lon="-105.2309197">
  <ele>1610.47</ele>
  <time>2026-08-28T19:13:11Z</time>
  <course>10.52</course>
  <speed>1.009752444909147</speed>
  <fix>3d</fix>
</trkpt>
<trkpt lat="40.0728471" lon="-105.2309213">
  <ele>1610.34</ele>
  <time>2026-08-28T19:13:11Z</time>
  <course>96.84</course>
  <speed>0.96</speed>
  <fix>3d</fix>
</trkpt>
<trkpt lat="40.0728465" lon="-105.2309171">
  <ele>1610.41</ele>
  <time>2026-08-28T19:13:11Z</time>
  <course>15.84</course>
  <speed>1.0778682665335315</speed>
  <fix>3d</fix>
</trkpt>
<trkpt lat="40.0728469" lon="-105.2309189">
  <ele>1610.27</ele>
  <time>2026-08-28T19:13:11Z</time>
  <course>96.86</course>
  <speed>1.07</speed>
  <fix>3d</fix>
</trkpt>
<trkpt lat="40.0728463" lon="-105.2309143">
  <ele>1610.38</ele>
  <time>2026-08-28T19:13:11Z</time>
  <course>29.31</course>
  <speed>1.244869471069156</speed>
  <fix>3d</fix>
</trkpt>
<trkpt lat="40.0728466" lon="-105.2309163">
  <ele>1610.22</ele>
  <time>2026-08-28T19:13:11Z</time>
  <course>96.09</course>
  <speed>1.17</speed>
  <fix>3d</fix>
</trkpt>
<trkpt lat="40.0728462" lon="-105.230911">
  <ele>1610.37</ele>
  <time>2026-08-28T19:13:11Z</time>
  <course>41.15</course>
  <speed>1.4512408483776909</speed>
  <fix>3d</fix>
</trkpt>
<trkpt lat="40.0728464" lon="-105.2309134">
  <ele>1610.19</ele>
  <time>2026-08-28T19:13:11Z</time>
  <course>94.33</course>
  <speed>1.32</speed>
  <fix>3d</fix>
</trkpt>
<trkpt lat="40.0728461" lon="-105.2309072">
  <ele>1610.38</ele>
  <time>2026-08-28T19:13:11Z</time>
  <course>53.19</course>
  <speed>1.7</speed>
  <fix>3d</fix>
</trkpt>
<trkpt lat="40.0728463" lon="-105.23091">
  <ele>1610.18</ele>
  <time>2026-08-28T19:13:11Z</time>
  <course>92.0</course>
  <speed>1.52</speed>
  <fix>3d</fix>
</trkpt>
<trkpt lat="40.0728461" lon="-105.2309028">
  <ele>1610.39</ele>
  <time>2026-08-28T19:13:11Z</time>
  <course>65.17</course>
  <speed>1.9906280415989321</speed>
  <fix>3d</fix>
</trkpt>
<trkpt lat="40.0728462" lon="-105.2309062">
  <ele>1610.18</ele>
  <time>2026-08-28T19:13:11Z</time>
  <course>89.75</course>
  <speed>1.77</speed>
  <fix>3d</fix>
</trkpt>
<trkpt lat="40.0728463" lon="-105.2308976">
  <ele>1610.4</ele>
  <time>2026-08-28T19:13:11Z</time>
  <course>77.26</course>
  <speed>2.3313729860320507</speed>
  <fix>3d</fix>
</trkpt>
<trkpt lat="40.0728463" lon="-105.2309018">
  <ele>1610.2</ele>
  <time>2026-08-28T19:13:11Z</time>
  <course>88.21</course>
  <speed>2.05</speed>
  <fix>3d</fix>
</trkpt>
<trkpt lat="40.0728464" lon="-105.2308917">
  <ele>1610.42</ele>
  <time>2026-08-28T19:13:11Z</time>
  <course>88.61</course>
  <speed>2.7006665843824553</speed>
  <fix>3d</fix>
</trkpt>
<trkpt lat="40.0728464" lon="-105.2308966">
  <ele>1610.21</ele>
  <time>2026-08-28T19:13:11Z</time>
  <course>87.61</course>
  <speed>2.39</speed>
  <fix>3d</fix>
</trkpt>
<trkpt lat="40.0728465" lon="-105.2308848">
  <ele>1610.42</ele>
  <time>2026-08-28T19:13:11Z</time>
  <course>89.47</course>
  <speed>3.1000645154577025</speed>
  <fix>3d</fix>
</trkpt>
<trkpt lat="40.0728465" lon="-105.2308905">
  <ele>1610.22</ele>
  <time>2026-08-28T19:13:11Z</time>
  <course>88.39</course>
  <speed>2.76</speed>
  <fix>3d</fix>
</trkpt>
<trkpt lat="40.0728466" lon="-105.2308771">
  <ele>1610.43</ele>
  <time>2026-08-28T19:13:11Z</time>
  <course>88.87</course>
  <speed>3.500057142390678</speed>
  <fix>3d</fix>
</trkpt>
<trkpt lat="40.0728466" lon="-105.2308836">
  <ele>1610.23</ele>
  <time>2026-08-28T19:13:11Z</time>
  <course>89.24</course>
  <speed>3.16</speed>
  <fix>3d</fix>
</trkpt>
<trkpt lat="40.0728467" lon="-105.2308685">
  <ele>1610.43</ele>
  <time>2026-08-28T19:13:11Z</time>
  <course>88.43</course>
  <speed>3.880115977648091</speed>
  <fix>3d</fix>
</trkpt>
<trkpt lat="40.0728467" lon="-105.2308756">
  <ele>1610.24</ele>
  <time>2026-08-28T19:13:11Z</time>
  <course>89.3</course>
  <speed>3.56</speed>
  <fix>3d</fix>
</trkpt>
<trkpt lat="40.0728468" lon="-105.2308589">
  <ele>1610.44</ele>
  <time>2026-08-28T19:13:11Z</time>
  <course>88.19</course>
  <speed>4.220189569201839</speed>
  <fix>3d</fix>
</trkpt>
<trkpt lat="40.0728468" lon="-105.2308668">
  <ele>1610.25</ele>
  <time>2026-08-28T19:13:11Z</time>
  <course>89.22</course>
  <speed>3.93</speed>
  <fix>3d</fix>
</trkpt>
<trkpt lat="40.0728469" lon="-105.2308487">
  <ele>1610.44</ele>
  <time>2026-08-28T19:13:11Z</time>
  <course>88.18</course>
  <speed>4.500177774266257</speed>
  <fix>3d</fix>
</trkpt>
<trkpt lat="40.0728469" lon="-105.2308572">
  <ele>1610.26</ele>
  <time>2026-08-28T19:13:11Z</time>
  <course>89.15</course>
  <speed>4.27</speed>
  <fix>3d</fix>
</trkpt>
<trkpt lat="40.072847" lon="-105.2308379">
  <ele>1610.45</ele>
  <time>2026-08-28T19:13:11Z</time>
  <course>88.39</course>
  <speed>4.720169488482378</speed>
  <fix>3d</fix>
</trkpt>
<trkpt lat="40.072847" lon="-105.2308468">
  <ele>1610.27</ele>
  <time>2026-08-28T19:13:11Z</time>
  <course>89.18</course>
  <speed>4.55</speed>
  <fix>3d</fix>
</trkpt>
<trkpt lat="40.0728471" lon="-105.2308264">
  <ele>1610.46</ele>
  <time>2026-08-28T19:13:11Z</time>
  <course>88.78</course>
  <speed>4.900040816156535</speed>
  <fix>3d</fix>
</trkpt>
<trkpt lat="40.0728471" lon="-105.2308358">
  <ele>1610.28</ele>
  <time>2026-08-28T19:13:11Z</time>
  <course>89.32</course>
  <speed>4.77</speed>
  <fix>3d</fix>
</trkpt>
<trkpt lat="40.0728471" lon="-105.2308147">
  <ele>1610.48</ele>
  <time>2026-08-28T19:13:11Z</time>
  <course>89.3</course>
  <speed>5.03</speed>
  <fix>3d</fix>
</trkpt>
<trkpt lat="40.0728472" lon="-105.2308243">
  <ele>1610.29</ele>
  <time>2026-08-28T19:13:11Z</time>
  <course>89.58</course>
  <speed>4.95</speed>
  <fix>3d</fix>
</trkpt>
<trkpt lat="40.0728471" lon="-105.2308027">
  <ele>1610.48</ele>
  <time>2026-08-28T19:13:11Z</time>
  <course>89.85</course>
  <speed>5.120156247615887</speed>
  <fix>3d</fix>
</trkpt>
<trkpt lat="40.0728473" lon="-105.2308126">
  <ele>1610.31</ele>
  <time>2026-08-28T19:13:11Z</time>
  <course>89.95</course>
  <speed>5.08</speed>
  <fix>3d</fix>
</trkpt>
<trkpt lat="40.0728471" lon="-105.2307906">
  <ele>1610.49</ele>
  <time>2026-08-28T19:13:11Z</time>
  <course>90.44</course>
  <speed>5.190472040190565</speed>
  <fix>3d</fix>
</trkpt>
<trkpt lat="40.0728473" lon="-105.2308006">
  <ele>1610.32</ele>
  <time>2026-08-28T19:13:11Z</time>
  <course>90.37</course>
  <speed>5.17</speed>
  <fix>3d</fix>
</trkpt>
<trkpt lat="40.072847" lon="-105.2307782">
  <ele>1610.49</ele>
  <time>2026-08-28T19:13:11Z</time>
  <course>91.02</course>
  <speed>5.231156659860227</speed>
  <fix>3d</fix>
</trkpt>
<trkpt lat="40.0728472" lon="-105.2307883">
  <ele>1610.33</ele>
  <time>2026-08-28T19:13:11Z</time>
  <course>90.83</course>
  <speed>5.23</speed>
  <fix>3d</fix>
</trkpt>
<trkpt lat="40.0728467" lon="-105.2307659">
  <ele>1610.5</ele>
  <time>2026-08-28T19:13:11Z</time>
  <course>91.55</course>
  <speed>5.242146506918707</speed>
  <fix>3d</fix>
</trkpt>
<trkpt lat="40.0728471" lon="-105.2307759">
  <ele>1610.34</ele>
  <time>2026-08-28T19:13:11Z</time>
  <course>91.28</course>
  <speed>5.27</speed>
  <fix>3d</fix>
</trkpt>
<trkpt lat="40.0728465" lon="-105.2307536">
  <ele>1610.51</ele>
  <time>2026-08-28T19:13:11Z</time>
  <course>92.05</course>
  <speed>5.223102526276887</speed>
  <fix>3d</fix>
</trkpt>
<trkpt lat="40.0728468" lon="-105.2307635">
  <ele>1610.35</ele>
  <time>2026-08-28T19:13:11Z</time>
  <course>91.71</course>
  <speed>5.28</speed>
  <fix>3d</fix>
</trkpt>
<trkpt lat="40.0728461" lon="-105.2307413">
  <ele>1610.52</ele>
  <time>2026-08-28T19:13:11Z</time>
  <course>92.55</course>
  <speed>5.184255009159947</speed>
  <fix>3d</fix>
</trkpt>
<trkpt lat="40.0728465" lon="-105.2307512">
  <ele>1610.36</ele>
  <time>2026-08-28T19:13:11Z</time>
  <course>92.1</course>
  <speed>5.26</speed>
  <fix>3d</fix>
</trkpt>
<trkpt lat="40.0728457" lon="-105.2307291">
  <ele>1610.53</ele>
  <time>2026-08-28T19:13:11Z</time>
  <course>93.01</course>
  <speed>5.135153357008921</speed>
  <fix>3d</fix>
</trkpt>
<trkpt lat="40.072846" lon="-105.2307389">
  <ele>1610.37</ele>
  <time>2026-08-28T19:13:11Z</time>
  <course>92.45</course>
  <speed>5.21</speed>
  <fix>3d</fix>
</trkpt>
<trkpt lat="40.0728453" lon="-105.230717">
  <ele>1610.54</ele>
  <time>2026-08-28T19:13:11Z</time>
  <course>93.32</course>
  <speed>5.086147854712838</speed>
  <fix>3d</fix>
</trkpt>
<trkpt lat="40.0728457" lon="-105.2307267">
  <ele>1610.38</ele>
  <time>2026-08-28T19:13:11Z</time>
  <course>92.76</course>
  <speed>5.16</speed>
  <fix>3d</fix>
</trkpt>
<trkpt lat="40.0728448" lon="-105.230705">
  <ele>1610.55</ele>
  <time>2026-08-28T19:13:11Z</time>
  <course>93.5</course>
  <speed>5.047226961411583</speed>
  <fix>3d</fix>
</trkpt>
<trkpt lat="40.0728452" lon="-105.2307146">
  <ele>1610.39</ele>
  <time>2026-08-28T19:13:11Z</time>
  <course>93.04</course>
  <speed>5.11</speed>
  <fix>3d</fix>
</trkpt>
<trkpt lat="40.0728443" lon="-105.230693">
  <ele>1610.55</ele>
  <time>2026-08-28T19:13:11Z</time>
  <course>93.63</course>
  <speed>5.007284693324317</speed>
  <fix>3d</fix>
</trkpt>
<trkpt lat="40.0728447" lon="-105.2307027">
  <ele>1610.4</ele>
  <time>2026-08-28T19:13:11Z</time>
  <course>93.24</course>
  <speed>5.06</speed>
  <fix>3d</fix>
</trkpt>
<trkpt lat="40.0728438" lon="-105.2306812">
  <ele>1610.56</ele>
  <time>2026-08-28T19:13:11Z</time>
  <course>93.68</course>
  <speed>4.946837373514517</speed>
  <fix>3d</fix>
</trkpt>
<trkpt lat="40.0728441" lon="-105.230691">
  <ele>1610.4</ele>
  <time>2026-08-28T19:13:11Z</time>
  <course>93.34</course>
  <speed>5.02</speed>
  <fix>3d</fix>
</trkpt>
<trkpt lat="40.0728433" lon="-105.2306697">
  <ele>1610.57</ele>
  <time>2026-08-28T19:13:11Z</time>
  <course>93.67</course>
  <speed>4.835959056898642</speed>
  <fix>3d</fix>
</trkpt>
<trkpt lat="40.0728436" lon="-105.2306792">
  <ele>1610.4</ele>
  <time>2026-08-28T19:13:11Z</time>
  <course>93.29</course>
  <speed>4.94</speed>
  <fix>3d</fix>
</trkpt>
<trkpt lat="40.0728429" lon="-105.2306585">
  <ele>1610.57</ele>
  <time>2026-08-28T19:13:11Z</time>
  <course>93.61</course>
  <speed>4.695157079374448</speed>
  <fix>3d</fix>
</trkpt>
<trkpt lat="40.0728431" lon="-105.2306677">
  <ele>1610.4</ele>
  <time>2026-08-28T19:13:11Z</time>
  <course>93.14</course>
  <speed>4.84</speed>
  <fix>3d</fix>
</trkpt>
<trkpt lat="40.0728425" lon="-105.2306476">
  <ele>1610.57</ele>
  <time>2026-08-28T19:13:11Z</time>
  <course>93.52</course>
  <speed>4.514000443065995</speed>
  <fix>3d</fix>
</trkpt>
<trkpt lat="40.0728427" lon="-105.2306565">
  <ele>1610.41</ele>
  <time>2026-08-28T19:13:11Z</time>
  <course>92.93</course>
  <speed>4.69</speed>
  <fix>3d</fix>
</trkpt>
<trkpt lat="40.0728421" lon="-105.2306373">
  <ele>1610.57</ele>
  <time>2026-08-28T19:13:11Z</time>
  <course>93.4</course>
  <speed>4.2929826461331055</speed>
  <fix>3d</fix>
</trkpt>
<trkpt lat="40.0728423" lon="-105.2306458">
  <ele>1610.41</ele>
  <time>2026-08-28T19:13:11Z</time>
  <course>92.7</course>
  <speed>4.5</speed>
  <fix>3d</fix>
</trkpt>
<trkpt lat="40.0728418" lon="-105.2306274">
  <ele>1610.57</ele>
  <time>2026-08-28T19:13:11Z</time>
  <course>93.25</course>
  <speed>4.022101440789379</speed>
  <fix>3d</fix>
</trkpt>
<trkpt lat="40.0728419" lon="-105.2306355">
  <ele>1610.41</ele>
  <time>2026-08-28T19:13:11Z</time>
  <course>92.48</course>
  <speed>4.27</speed>
  <fix>3d</fix>
</trkpt>
<trkpt lat="40.0728415" lon="-105.2306183">
  <ele>1610.57</ele>
  <time>2026-08-28T19:13:12Z</time>
  <course>93.08</course>
  <speed>3.7213438432910224</speed>
  <fix>3d</fix>
</trkpt>
<trkpt lat="40.0728416" lon="-105.2306257">
  <ele>1610.41</ele>
  <time>2026-08-28T19:13:12Z</time>
  <course>92.25</course>
  <speed>4.0</speed>
  <fix>3d</fix>
</trkpt>
<trkpt lat="40.0728413" lon="-105.2306099">
  <ele>1610.56</ele>
  <time>2026-08-28T19:13:12Z</time>
  <course>92.88</course>
  <speed>3.3707269245668656</speed>
  <fix>3d</fix>
</trkpt>
<trkpt lat="40.0728414" lon="-105.2306167">
  <ele>1610.41</ele>
  <time>2026-08-28T19:13:12Z</time>
  <course>92.01</course>
  <speed>3.69</speed>
  <fix>3d</fix>
</trkpt>
<trkpt lat="40.0728412" lon="-105.2306024">
  <ele>1610.55</ele>
  <time>2026-08-28T19:13:12Z</time>
  <course>92.59</course>
  <speed>2.970269348055829</speed>
  <fix>3d</fix>
</trkpt>
<trkpt lat="40.0728412" lon="-105.2306084">
  <ele>1610.41</ele>
  <time>2026-08-28T19:13:12Z</time>
  <course>91.77</course>
  <speed>3.33</speed>
  <fix>3d</fix>
</trkpt>
<trkpt lat="40.0728411" lon="-105.2305958">
  <ele>1610.54</ele>
  <time>2026-08-28T19:13:12Z</time>
  <course>92.18</course>
  <speed>2.5300197627686627</speed>
  <fix>3d</fix>
</trkpt>
<trkpt lat="40.072841" lon="-105.2306011">
  <ele>1610.41</ele>
  <time>2026-08-28T19:13:12Z</time>
  <course>91.5</course>
  <speed>2.93</speed>
  <fix>3d</fix>
</trkpt>
<trkpt lat="40.072841" lon="-105.2305903">
  <ele>1610.53</ele>
  <time>2026-08-28T19:13:12Z</time>
  <course>91.64</course>
  <speed>2.08</speed>
  <fix>3d</fix>
</trkpt>
<trkpt lat="40.0728409" lon="-105.2305947">
  <ele>1610.4</ele>
  <time>2026-08-28T19:13:12Z</time>
  <course>91.2</course>
  <speed>2.5</speed>
  <fix>3d</fix>
</trkpt>
<trkpt lat="40.072841" lon="-105.2305859">
  <ele>1610.52</ele>
  <time>2026-08-28T19:13:12Z</time>
  <course>90.98</course>
  <speed>1.6400304875214973</speed>
  <fix>3d</fix>
</trkpt>
<trkpt lat="40.0728408" lon="-105.2305894">
  <ele>1610.39</ele>
  <time>2026-08-28T19:13:12Z</time>
  <course>90.92</course>
  <speed>2.04</speed>
  <fix>3d</fix>
</trkpt>
<trkpt lat="40.072841" lon="-105.2305824">
  <ele>1610.51</ele>
  <time>2026-08-28T19:13:12Z</time>
  <course>90.25</course>
  <speed>1.2301625908797584</speed>
  <fix>3d</fix>
</trkpt>
<trkpt lat="40.0728408" lon="-105.2305851">
  <ele>1610.38</ele>
  <time>2026-08-28T19:13:12Z</time>
  <course>90.7</course>
  <speed>1.6</speed>
  <fix>3d</fix>
</trkpt>
<trkpt lat="40.072841" lon="-105.2305799">
  <ele>1610.5</ele>
  <time>2026-08-28T19:13:12Z</time>
  <course>89.55</course>
  <speed>0.8802272433866155</speed>
  <fix>3d</fix>
</trkpt>
<trkpt lat="40.0728408" lon="-105.2305819">
  <ele>1610.37</ele>
  <time>2026-08-28T19:13:12Z</time>
  <course>90.59</course>
  <speed>1.19</speed>
  <fix>3d</fix>
</trkpt>
<trkpt lat="40.0728409" lon="-105.2305781">
  <ele>1610.49</ele>
  <time>2026-08-28T19:13:12Z</time>
  <course>89.27</course>
  <speed>0.6003332407921453</speed>
  <fix>3d</fix>
</trkpt>
<trkpt lat="40.0728407" lon="-105.2305795">
  <ele>1610.37</ele>
  <time>2026-08-28T19:13:12Z</time>
  <course>90.55</course>
  <speed>0.84</speed>
  <fix>3d</fix>
</trkpt>
<trkpt lat="40.0728409" lon="-105.230577">
  <ele>1610.49</ele>
  <time>2026-08-28T19:13:12Z</time>
  <course>89.2</course>
  <speed>0.3705401462729781</speed>
  <fix>3d</fix>
</trkpt>
<trkpt lat="40.0728407" lon="-105.2305778">
  <ele>1610.36</ele>
  <time>2026-08-28T19:13:12Z</time>
  <course>90.42</course>
  <speed>0.55</speed>
  <fix>3d</fix>
</trkpt>
<trkpt lat="40.0728409" lon="-105.2305763">
  <ele>1610.49</ele>
  <time>2026-08-28T19:13:12Z</time>
  <course>89.11</course>
  <speed>0.19235384061671343</speed>
  <fix>3d</fix>
</trkpt>
<trkpt lat="40.0728407" lon="-105.2305768">
  <ele>1610.36</ele>
  <time>2026-08-28T19:13:12Z</time>
  <course>89.68</course>
  <speed>0.32</speed>
  <fix>3d</fix>
</trkpt>
<trkpt lat="40.0728409" lon="-105.2305761">
  <ele>1610.49</ele>
  <time>2026-08-28T19:13:12Z</time>
  <course>89.03</course>
  <speed>0.07211102550927978</speed>
  <fix>3d</fix>
</trkpt>
<trkpt lat="40.0728407" lon="-105.2305762">
  <ele>1610.36</ele>
  <time>2026-08-28T19:13:12Z</time>
  <course>85.38</course>
  <speed>0.14</speed>
  <fix>3d</fix>
</trkpt>
<trkpt lat="40.0728409" lon="-105.230576">
  <ele>1610.5</ele>
  <time>2026-08-28T19:13:12Z</time>
  <course>89.0</course>
  <speed>0.0412310562561766</speed>
  <fix>3d</fix>
</trkpt>
<trkpt lat="40.0728407" lon="-105.230576">
  <ele>1610.36</ele>
  <time>2026-08-28T19:13:12Z</time>
  <course>38.48</course>
  <speed>0.03</speed>
  <fix>3d</fix>
</trkpt>
<trkpt lat="40.072841" lon="-105.2305761">
  <ele>1610.5</ele>
  <time>2026-08-28T19:13:12Z</time>
  <course>88.96</course>
  <speed>0.07071067811865475</speed>
  <fix>3d</fix>
</trkpt>
<trkpt lat="40.0728407" lon="-105.2305761">
  <ele>1610.36</ele>
  <time>2026-08-28T19:13:12Z</time>
  <course>304.29</course>
  <speed>0.07</speed>
  <fix>3d</fix>
</trkpt>
<trkpt lat="40.072841" lon="-105.2305763">
  <ele>1610.51</ele>
  <time>2026-08-28T19:13:12Z</time>
  <course>88.96</course>
  <speed>0.0848528137423857</speed>
  <fix>3d</fix>
</trkpt>
<trkpt lat="40.0728408" lon="-105.2305763">
  <ele>1610.37</ele>
  <time>2026-08-28T19:13:12Z</time>
  <course>300.15</course>
  <speed>0.11</speed>
  <fix>3d</fix>
</trkpt>
<trkpt lat="40.0728411" lon="-105.2305765">
  <ele>1610.51</ele>
  <time>2026-08-28T19:13:12Z</time>
  <course>88.92</course>
  <speed>0.07280109889280519</speed>
  <fix>3d</fix>
</trkpt>
<trkpt lat="40.0728409" lon="-105.2305764">
  <ele>1610.38</ele>
  <time>2026-08-28T19:13:12Z</time>
  <course>306.96</course>
  <speed>0.12</speed>
  <fix>3d</fix>
</trkpt>
<trkpt lat="40.0728413" lon="-105.2305765">
  <ele>1610.52</ele>
  <time>2026-08-28T19:13:12Z</time>
  <course>88.9</course>
  <speed>0.07615773105863909</speed>
  <fix>3d</fix>
</trkpt>
<trkpt lat="40.0728411" lon="-105.2305766">
  <ele>1610.38</ele>
  <time>2026-08-28T19:13:12Z</time>
  <course>325.33</course>
  <speed>0.1</speed>
  <fix>3d</fix>
</trkpt>
<trkpt lat="40.0728414" lon="-105.2305764">
  <ele>1610.53</ele>
  <time>2026-08-28T19:13:12Z</time>
  <course>88.87</course>
  <speed>0.12806248474865697</speed>
  <fix>3d</fix>
</trkpt>
<trkpt lat="40.0728413" lon="-105.2305767">
  <ele>1610.39</ele>
  <time>2026-08-28T19:13:12Z</time>
  <course>0.61</course>
  <speed>0.1</speed>
  <fix>3d</fix>
</trkpt>
<trkpt lat="40.0728415" lon="-105.2305762">
  <ele>1610.54</ele>
  <time>2026-08-28T19:13:12Z</time>
  <course>80.62</course>
  <speed>0.1711724276862369</speed>
  <fix>3d</fix>
</trkpt>
<trkpt lat="40.0728414" lon="-105.2305766">
  <ele>1610.4</ele>
  <time>2026-08-28T19:13:12Z</time>
  <course>39.33</course>
  <speed>0.11</speed>
  <fix>3d</fix>
</trkpt>
<trkpt lat="40.0728416" lon="-105.2305759">
  <ele>1610.54</ele>
  <time>2026-08-28T19:13:12Z</time>
  <course>67.43</course>
  <speed>0.196468827043885</speed>
  <fix>3d</fix>
</trkpt>
<trkpt lat="40.0728415" lon="-105.2305763">
  <ele>1610.4</ele>
  <time>2026-08-28T19:13:12Z</time>
  <course>60.3</course>
  <speed>0.16</speed>
  <fix>3d</fix>
</trkpt>
<trkpt lat="40.0728417" lon="-105.2305755">
  <ele>1610.54</ele>
  <time>2026-08-28T19:13:12Z</time>
  <course>55.2</course>
  <speed>0.19313207915827968</speed>
  <fix>3d</fix>
</trkpt>
<trkpt lat="40.0728417" lon="-105.230576">
  <ele>1610.4</ele>
  <time>2026-08-28T19:13:12Z</time>
  <course>60.86</course>
  <speed>0.19</speed>
  <fix>3d</fix>
</trkpt>
<trkpt lat="40.0728419" lon="-105.2305752">
  <ele>1610.54</ele>
  <time>2026-08-28T19:13:12Z</time>
  <course>43.16</course>
  <speed>0.15231546211727817</speed>
  <fix>3d</fix>
</trkpt>
<trkpt lat="40.0728419" lon="-105.2305757">
  <ele>1610.41</ele>
  <time>2026-08-28T19:13:12Z</time>
  <course>55.89</course>
  <speed>0.19</speed>
  <fix>3d</fix>
</trkpt>
<trkpt lat="40.072842" lon="-105.2305749">
  <ele>1610.53</ele>
  <time>2026-08-28T19:13:12Z</time>
  <course>31.11</course>
  <speed>0.09486832980505139</speed>
  <fix>3d</fix>
</trkpt>
<trkpt lat="40.0728421" lon="-105.2305753">
  <ele>1610.41</ele>
  <time>2026-08-28T19:13:12Z</time>
  <course>51.6</course>
  <speed>0.16</speed>
  <fix>3d</fix>
</trkpt>
<trkpt lat="40.0728421" lon="-105.2305748">
  <ele>1610.53</ele>
  <time>2026-08-28T19:13:12Z</time>
  <course>19.02</course>
  <speed>0.03605551275463989</speed>
  <fix>3d</fix>
</trkpt>
<trkpt lat="40.0728423" lon="-105.2305751">
  <ele>1610.41</ele>
  <time>2026-08-28T19:13:12Z</time>
  <course>50.25</course>
  <speed>0.11</speed>
  <fix>3d</fix>
</trkpt>
<trkpt lat="40.0728421" lon="-105.2305748">
  <ele>1610.53</ele>
  <time>2026-08-28T19:13:12Z</time>
  <course>9.32</course>
  <speed>0.08602325267042626</speed>
  <fix>3d</fix>
</trkpt>
<trkpt lat="40.0728424" lon="-105.2305749">
  <ele>1610.41</ele>
  <time>2026-08-28T19:13:12Z</time>
  <course>61.16</course>
  <speed>0.04</speed>
  <fix>3d</fix>
</trkpt>
<trkpt lat="40.0728421" lon="-105.230575">
  <ele>1610.53</ele>
  <time>2026-08-28T19:13:12Z</time>
  <course>11.26</course>
  <speed>0.14422205101855956</speed>
  <fix>3d</fix>
</trkpt>
<trkpt lat="40.0728424" lon="-105.2305748">
  <ele>1610.41</ele>
  <time>2026-08-28T19:13:12Z</time>
  <course>222.28</course>
  <speed>0.04</speed>
  <fix>3d</fix>
</trkpt>
<trkpt lat="40.0728419" lon="-105.230575">
  <ele>1610.53</ele>
  <time>2026-08-28T19:13:12Z</time>
  <course>11.43</course>
  <speed>0.16552945357246848</speed>
  <fix>3d</fix>
</trkpt>
<trkpt lat="40.0728423" lon="-105.2305749">
  <ele>1610.41</ele>
  <time>2026-08-28T19:13:12Z</time>
  <course>221.18</course>
  <speed>0.1</speed>
  <fix>3d</fix>
</trkpt>
<trkpt lat="40.0728417" lon="-105.2305752">
  <ele>1610.53</ele>
  <time>2026-08-28T19:13:12Z</time>
  <course>11.51</course>
  <speed>0.18027756377319945</speed>
  <fix>3d</fix>
</trkpt>
<trkpt lat="40.0728421" lon="-105.2305751">
  <ele>1610.41</ele>
  <time>2026-08-28T19:13:12Z</time>
  <course>207.69</course>
  <speed>0.12</speed>
  <fix>3d</fix>
</trkpt>
<trkpt lat="40.0728415" lon="-105.2305753">
  <ele>1610.53</ele>
  <time>2026-08-28T19:13:12Z</time>
  <course>11.5</course>
  <speed>0.18027756377319945</speed>
  <fix>3d</fix>
</trkpt>
<trkpt lat="40.0728419" lon="-105.2305752">
  <ele>1610.41</ele>
  <time>2026-08-28T19:13:12Z</time>
  <course>201.57</course>
  <speed>0.14</speed>
  <fix>3d</fix>
</trkpt>
<trkpt lat="40.0728412" lon="-105.2305754">
  <ele>1610.53</ele>
  <time>2026-08-28T19:13:12Z</time>
  <course>11.48</course>
  <speed>0.1708800749063506</speed>
  <fix>3d</fix>
</trkpt>
<trkpt lat="40.0728417" lon="-105.2305753">
  <ele>1610.41</ele>
  <time>2026-08-28T19:13:12Z</time>
  <course>198.94</course>
  <speed>0.14</speed>
  <fix>3d</fix>
</trkpt>
<trkpt lat="40.072841" lon="-105.2305756">
  <ele>1610.54</ele>
  <time>2026-08-28T19:13:12Z</time>
  <course>11.49</course>
  <speed>0.1615549442140351</speed>
  <fix>3d</fix>
</trkpt>
<trkpt lat="40.0728414" lon="-105.2305754">
  <ele>1610.41</ele>
  <time>2026-08-28T19:13:12Z</time>
  <course>198.65</course>
  <speed>0.13</speed>
  <fix>3d</fix>
</trkpt>
<trkpt lat="40.0728408" lon="-105.2305757">
  <ele>1610.54</ele>
  <time>2026-08-28T19:13:12Z</time>
  <course>11.48</course>
  <speed>0.15231546211727817</speed>
  <fix>3d</fix>
</trkpt>
<trkpt lat="40.0728413" lon="-105.2305755">
  <ele>1610.41</ele>
  <time>2026-08-28T19:13:12Z</time>
  <course>199.31</course>
  <speed>0.12</speed>
  <fix>3d</fix>
</trkpt>
<trkpt lat="40.0728407" lon="-105.2305757">
  <ele>1610.53</ele>
  <time>2026-08-28T19:13:12Z</time>
  <course>11.49</course>
  <speed>0.13</speed>
  <fix>3d</fix>
</trkpt>
<trkpt lat="40.0728411" lon="-105.2305756">
  <ele>1610.41</ele>
  <time>2026-08-28T19:13:12Z</time>
  <course>199.99</course>
  <speed>0.11</speed>
  <fix>3d</fix>
</trkpt>
<trkpt lat="40.0728406" lon="-105.2305758">
  <ele>1610.53</ele>
  <time>2026-08-28T19:13:12Z</time>
  <course>11.47</course>
  <speed>0.09848857801796104</speed>
  <fix>3d</fix>
</trkpt>
<trkpt lat="40.0728409" lon="-105.2305757">
  <ele>1610.41</ele>
  <time>2026-08-28T19:13:12Z</time>
  <course>200.41</course>
  <speed>0.09</speed>
  <fix>3d</fix>
</trkpt>
<trkpt lat="40.0728405" lon="-105.2305759">
  <ele>1610.53</ele>
  <time>2026-08-28T19:13:12Z</time>
  <course>11.46</course>
  <speed>0.07615773105863909</speed>
  <fix>3d</fix>
</trkpt>
<trkpt lat="40.0728407" lon="-105.2305758">
  <ele>1610.41</ele>
  <time>2026-08-28T19:13:12Z</time>
  <course>200.86</course>
  <speed>0.06</speed>
  <fix>3d</fix>
</trkpt>
<trkpt lat="40.0728404" lon="-105.2305759">
  <ele>1610.53</ele>
  <time>2026-08-28T19:13:12Z</time>
  <course>11.45</course>
  <speed>0.044721359549995794</speed>
  <fix>3d</fix>
</trkpt>
<trkpt lat="40.0728407" lon="-105.2305758">
  <ele>1610.41</ele>
  <time>2026-08-28T19:13:12Z</time>
  <course>201.59</course>
  <speed>0.04</speed>
  <fix>3d</fix>
</trkpt>
<trkpt lat="40.0728404" lon="-105.2305759">
  <ele>1610.53</ele>
  <time>2026-08-28T19:13:12Z</time>
  <course>11.44</course>
  <speed>0.022360679774997897</speed>
  <fix>3d</fix>
</trkpt>
<trkpt lat="40.0728406" lon="-105.2305758">
  <ele>1610.41</ele>
  <time>2026-08-28T19:13:12Z</time>
  <course>204.14</course>
  <speed>0.01</speed>
  <fix>3d</fix>
</trkpt>
<trkpt lat="40.0728405" lon="-105.2305759">
  <ele>1610.53</ele>
  <time>2026-08-28T19:13:12Z</time>
  <course>11.45</course>
  <speed>0.0</speed>
  <fix>3d</fix>
</trkpt>
<trkpt lat="40.0728406" lon="-105.2305758">
  <ele>1610.41</ele>
  <time>2026-08-28T19:13:12Z</time>
  <course>5.27</course>
  <speed>0.0</speed>
  <fix>3d</fix>
</trkpt>
<trkpt lat="40.0728405" lon="-105.2305759">
  <ele>1610.52</ele>
  <time>2026-08-28T19:13:12Z</time>
  <course>11.45</course>
  <speed>0.02</speed>
  <fix>3d</fix>
</trkpt>
<trkpt lat="40.0728406" lon="-105.2305758">
  <ele>1610.42</ele>
  <time>2026-08-28T19:13:12Z</time>
  <course>14.75</course>
  <speed>0.03</speed>
  <fix>3d</fix>
</trkpt>
<trkpt lat="40.0728405" lon="-105.2305759">
  <ele>1610.52</ele>
  <time>2026-08-28T19:13:12Z</time>
  <course>11.45</course>
  <speed>0.03</speed>
  <fix>3d</fix>
</trkpt>
<trkpt lat="40.0728407" lon="-105.2305758">
  <ele>1610.42</ele>
  <time>2026-08-28T19:13:12Z</time>
  <course>16.19</course>
  <speed>0.05</speed>
  <fix>3d</fix>
</trkpt>
<trkpt lat="40.0728407" lon="-105.2305759">
  <ele>1610.52</ele>
  <time>2026-08-28T19:13:12Z</time>
  <course>11.44</course>
  <speed>0.05099019513592785</speed>
  <fix>3d</fix>
</trkpt>
<trkpt lat="40.0728407" lon="-105.2305758">
  <ele>1610.42</ele>
  <time>2026-08-28T19:13:12Z</time>
  <course>16.81</course>
  <speed>0.06</speed>
  <fix>3d</fix>
</trkpt>
<trkpt lat="40.0728408" lon="-105.2305758">
  <ele>1610.52</ele>
  <time>2026-08-28T19:13:12Z</time>
  <course>11.43</course>
  <speed>0.06082762530298219</speed>
  <fix>3d</fix>
</trkpt>
<trkpt lat="40.0728408" lon="-105.2305758">
  <ele>1610.42</ele>
  <time>2026-08-28T19:13:12Z</time>
  <course>17.31</course>
  <speed>0.08</speed>
  <fix>3d</fix>
</trkpt>
<trkpt lat="40.072841" lon="-105.2305757">
  <ele>1610.52</ele>
  <time>2026-08-28T19:13:12Z</time>
  <course>11.44</course>
  <speed>0.06082762530298219</speed>
  <fix>3d</fix>
</trkpt>
<trkpt lat="40.0728409" lon="-105.2305758">
  <ele>1610.42</ele>
  <time>2026-08-28T19:13:12Z</time>
  <course>17.69</course>
  <speed>0.09</speed>
  <fix>3d</fix>
</trkpt>
<trkpt lat="40.0728411" lon="-105.2305757">
  <ele>1610.52</ele>
  <time>2026-08-28T19:13:12Z</time>
  <course>11.62</course>
  <speed>0.07071067811865475</speed>
  <fix>3d</fix>
</trkpt>
<trkpt lat="40.0728412" lon="-105.2305757">
  <ele>1610.43</ele>
  <time>2026-08-28T19:13:12Z</time>
  <course>17.73</course>
  <speed>0.1</speed>
  <fix>3d</fix>
</trkpt>
<trkpt lat="40.0728413" lon="-105.2305756">
  <ele>1610.48</ele>
  <time>2026-08-28T19:13:12Z</time>
  <course>12.13</course>
  <speed>0.07280109889280519</speed>
  <fix>3d</fix>
</trkpt>
<trkpt lat="40.0728414" lon="-105.2305756">
  <ele>1610.42</ele>
  <time>2026-08-28T19:13:12Z</time>
  <course>17.03</course>
  <speed>0.1</speed>
  <fix>3d</fix>
</trkpt>
<trkpt lat="40.0728415" lon="-105.2305755">
  <ele>1610.41</ele>
  <time>2026-08-28T19:13:12Z</time>
  <course>12.46</course>
  <speed>0.07280109889280519</speed>
  <fix>3d</fix>
</trkpt>
<trkpt lat="40.0728415" lon="-105.2305755">
  <ele>1610.38</ele>
  <time>2026-08-28T19:13:12Z</time>
  <course>17.36</course>
  <speed>0.1</speed>
  <fix>3d</fix>
</trkpt>
<trkpt lat="40.0728417" lon="-105.2305755">
  <ele>1610.29</ele>
  <time>2026-08-28T19:13:12Z</time>
  <course>12.74</course>
  <speed>0.07615773105863909</speed>
  <fix>3d</fix>
</trkpt>
<trkpt lat="40.0728417" lon="-105.2305755">
  <ele>1610.31</ele>
  <time>2026-08-28T19:13:12Z</time>
  <course>19.55</course>
  <speed>0.1</speed>
  <fix>3d</fix>
</trkpt>
<trkpt lat="40.0728418" lon="-105.2305754">
  <ele>1610.13</ele>
  <time>2026-08-28T19:13:12Z</time>
  <course>12.99</course>
  <speed>0.0670820393249937</speed>
  <fix>3d</fix>
</trkpt>
<trkpt lat="40.0728419" lon="-105.2305754">
  <ele>1610.19</ele>
  <time>2026-08-28T19:13:12Z</time>
  <course>22.56</course>
  <speed>0.1</speed>
  <fix>3d</fix>
</trkpt>
<trkpt lat="40.072842" lon="-105.2305753">
  <ele>1609.93</ele>
  <time>2026-08-28T19:13:12Z</time>
  <course>13.21</course>
  <speed>0.06403124237432849</speed>
  <fix>3d</fix>
</trkpt>
<trkpt lat="40.072842" lon="-105.2305753">
  <ele>1610.02</ele>
  <time>2026-08-28T19:13:12Z</time>
  <course>26.53</course>
  <speed>0.09</speed>
  <fix>3d</fix>
</trkpt>
<trkpt lat="40.0728421" lon="-105.2305751">
  <ele>1609.68</ele>
  <time>2026-08-28T19:13:12Z</time>
  <course>13.41</course>
  <speed>0.0565685424949238</speed>
  <fix>3d</fix>
</trkpt>
<trkpt lat="40.0728421" lon="-105.2305752">
  <ele>1609.82</ele>
  <time>2026-08-28T19:13:12Z</time>
  <course>31.44</course>
  <speed>0.09</speed>
  <fix>3d</fix>
</trkpt>
<trkpt lat="40.0728422" lon="-105.230575">
  <ele>1609.4</ele>
  <time>2026-08-28T19:13:12Z</time>
  <course>13.5</course>
  <speed>0.05830951894845301</speed>
  <fix>3d</fix>
</trkpt>
<trkpt lat="40.0728423" lon="-105.2305751">
  <ele>1609.57</ele>
  <time>2026-08-28T19:13:12Z</time>
  <course>37.52</course>
  <speed>0.08</speed>
  <fix>3d</fix>
</trkpt>
<trkpt lat="40.0728423" lon="-105.2305749">
  <ele>1609.09</ele>
  <time>2026-08-28T19:13:12Z</time>
  <course>13.39</course>
  <speed>0.053851648071345036</speed>
  <fix>3d</fix>
</trkpt>
<trkpt lat="40.0728424" lon="-105.2305749">
  <ele>1609.29</ele>
  <time>2026-08-28T19:13:12Z</time>
  <course>45.65</course>
  <speed>0.07</speed>
  <fix>3d</fix>
</trkpt>
<trkpt lat="40.0728424" lon="-105.2305747">
  <ele>1608.78</ele>
  <time>2026-08-28T19:13:12Z</time>
  <course>13.28</course>
  <speed>0.06</speed>
  <fix>3d</fix>
</trkpt>
<trkpt lat="40.0728425" lon="-105.2305748">
  <ele>1608.98</ele>
  <time>2026-08-28T19:13:12Z</time>
  <course>55.4</course>
  <speed>0.07</speed>
  <fix>3d</fix>
</trkpt>
<trkpt lat="40.0728424" lon="-105.2305746">
  <ele>1608.45</ele>
  <time>2026-08-28T19:13:12Z</time>
  <course>13.2</course>
  <speed>0.05</speed>
  <fix>3d</fix>
</trkpt>
<trkpt lat="40.0728426" lon="-105.2305747">
  <ele>1608.65</ele>
  <time>2026-08-28T19:13:12Z</time>
  <course>65.55</course>
  <speed>0.06</speed>
  <fix>3d</fix>
</trkpt>
<trkpt lat="40.0728424" lon="-105.2305745">
  <ele>1608.14</ele>
  <time>2026-08-28T19:13:12Z</time>
  <course>13.11</course>
  <speed>0.05099019513592785</speed>
  <fix>3d</fix>
</trkpt>
<trkpt lat="40.0728426" lon="-105.2305745">
  <ele>1608.34</ele>
  <time>2026-08-28T19:13:12Z</time>
  <course>76.44</course>
  <speed>0.05</speed>
  <fix>3d</fix>
</trkpt>
<trkpt lat="40.0728424" lon="-105.2305743">
  <ele>1607.82</ele>
  <time>2026-08-28T19:13:12Z</time>
  <course>13.05</course>
  <speed>0.044721359549995794</speed>
  <fix>3d</fix>
</trkpt>
<trkpt lat="40.0728426" lon="-105.2305744">
  <ele>1608.03</ele>
  <time>2026-08-28T19:13:12Z</time>
  <course>88.89</course>
  <speed>0.04</speed>
  <fix>3d</fix>
</trkpt>
<trkpt lat="40.0728424" lon="-105.2305743">
  <ele>1607.51</ele>
  <time>2026-08-28T19:13:12Z</time>
  <course>12.99</course>
  <speed>0.04242640687119285</speed>
  <fix>3d</fix>
</trkpt>
<trkpt lat="40.0728426" lon="-105.2305743">
  <ele>1607.72</ele>
  <time>2026-08-28T19:13:12Z</time>
  <course>104.21</course>
  <speed>0.04</speed>
  <fix>3d</fix>
</trkpt>
<trkpt lat="40.0728424" lon="-105.2305742">
  <ele>1607.2</ele>
  <time>2026-08-28T19:13:12Z</time>
  <course>12.94</course>
  <speed>0.044721359549995794</speed>
  <fix>3d</fix>
</trkpt>
<trkpt lat="40.0728426" lon="-105.2305742">
  <ele>1607.41</ele>
  <time>2026-08-28T19:13:12Z</time>
  <course>123.15</course>
  <speed>0.03</speed>
  <fix>3d</fix>
</trkpt>
<trkpt lat="40.0728424" lon="-105.2305741">
  <ele>1606.9</ele>
  <time>2026-08-28T19:13:12Z</time>
  <course>12.9</course>
  <speed>0.0412310562561766</speed>
  <fix>3d</fix>
</trkpt>
<trkpt lat="40.0728426" lon="-105.2305741">
  <ele>1607.12</ele>
  <time>2026-08-28T19:13:12Z</time>
  <course>145.29</course>
  <speed>0.03</speed>
  <fix>3d</fix>
</trkpt>
<trkpt lat="40.0728424" lon="-105.2305741">
  <ele>1606.59</ele>
  <time>2026-08-28T19:13:12Z</time>
  <course>12.9</course>
  <speed>0.05</speed>
  <fix>3d</fix>
</trkpt>
<trkpt lat="40.0728426" lon="-105.2305741">
  <ele>1606.82</ele>
  <time>2026-08-28T19:13:12Z</time>
  <course>167.53</course>
  <speed>0.03</speed>
  <fix>3d</fix>
</trkpt>
<trkpt lat="40.0728423" lon="-105.2305741">
  <ele>1606.29</ele>
  <time>2026-08-28T19:13:12Z</time>
  <course>12.82</course>
  <speed>0.05</speed>
  <fix>3d</fix>
</trkpt>
<trkpt lat="40.0728425" lon="-105.2305741">
  <ele>1606.52</ele>
  <time>2026-08-28T19:13:12Z</time>
  <course>185.68</course>
  <speed>0.03</speed>
  <fix>3d</fix>
</trkpt>
<trkpt lat="40.0728422" lon="-105.2305741">
  <ele>1606.0</ele>
  <time>2026-08-28T19:13:12Z</time>
  <course>12.78</course>
  <speed>0.05</speed>
  <fix>3d</fix>
</trkpt>
<trkpt lat="40.0728424" lon="-105.2305741">
  <ele>1606.22</ele>
  <time>2026-08-28T19:13:12Z</time>
  <course>199.64</course>
  <speed>0.04</speed>
  <fix>3d</fix>
</trkpt>
<trkpt lat="40.0728422" lon="-105.2305742">
  <ele>1605.7</ele>
  <time>2026-08-28T19:13:12Z</time>
  <course>12.79</course>
  <speed>0.05099019513592785</speed>
  <fix>3d</fix>
</trkpt>
<trkpt lat="40.0728424" lon="-105.2305741">
  <ele>1605.92</ele>
  <time>2026-08-28T19:13:12Z</time>
  <course>210.4</course>
  <speed>0.04</speed>
  <fix>3d</fix>
</trkpt>
<trkpt lat="40.0728421" lon="-105.2305742">
  <ele>1605.4</ele>
  <time>2026-08-28T19:13:12Z</time>
  <course>12.76</course>
  <speed>0.053851648071345036</speed>
  <fix>3d</fix>
</trkpt>
<trkpt lat="40.0728423" lon="-105.2305741">
  <ele>1605.63</ele>
  <time>2026-08-28T19:13:12Z</time>
  <course>218.73</course>
  <speed>0.05</speed>
  <fix>3d</fix>
</trkpt>
<trkpt lat="40.0728421" lon="-105.2305742">
  <ele>1605.1</ele>
  <time>2026-08-28T19:13:12Z</time>
  <course>12.74</course>
  <speed>0.044721359549995794</speed>
  <fix>3d</fix>
</trkpt>
<trkpt lat="40.0728422" lon="-105.2305742">
  <ele>1605.33</ele>
  <time>2026-08-28T19:13:12Z</time>
  <course>225.93</course>
  <speed>0.05</speed>
  <fix>3d</fix>
</trkpt>
<trkpt lat="40.072842" lon="-105.2305743">
  <ele>1604.8</ele>
  <time>2026-08-28T19:13:12Z</time>
  <course>12.7</course>
  <speed>0.05</speed>
  <fix>3d</fix>
</trkpt>
<trkpt lat="40.0728421" lon="-105.2305743">
  <ele>1605.04</ele>
  <time>2026-08-28T19:13:12Z</time>
  <course>232.33</course>
  <speed>0.05</speed>
  <fix>3d</fix>
</trkpt>
<trkpt lat="40.072842" lon="-105.2305744">
  <ele>1604.51</ele>
  <time>2026-08-28T19:13:12Z</time>
  <course>12.69</course>
  <speed>0.05</speed>
  <fix>3d</fix>
</trkpt>
<trkpt lat="40.0728421" lon="-105.2305744">
  <ele>1604.74</ele>
  <time>2026-08-28T19:13:12Z</time>
  <course>238.18</course>
  <speed>0.06</speed>
  <fix>3d</fix>
</trkpt>
<trkpt lat="40.0728419" lon="-105.2305745">
  <ele>1604.21</ele>
  <time>2026-08-28T19:13:12Z</time>
  <course>12.67</course>
  <speed>0.04242640687119285</speed>
  <fix>3d</fix>
</trkpt>
<trkpt lat="40.072842" lon="-105.2305745">
  <ele>1604.44</ele>
  <time>2026-08-28T19:13:12Z</time>
  <course>243.96</course>
  <speed>0.06</speed>
  <fix>3d</fix>
</trkpt>
<trkpt lat="40.0728419" lon="-105.2305746">
  <ele>1603.91</ele>
  <time>2026-08-28T19:13:12Z</time>
  <course>12.65</course>
  <speed>0.03605551275463989</speed>
  <fix>3d</fix>
</trkpt>
<trkpt lat="40.072842" lon="-105.2305747">
  <ele>1604.15</ele>
  <time>2026-08-28T19:13:12Z</time>
  <course>249.81</course>
  <speed>0.06</speed>
  <fix>3d</fix>
</trkpt>
<trkpt lat="40.0728419" lon="-105.2305747">
  <ele>1603.61</ele>
  <time>2026-08-28T19:13:12Z</time>
  <course>12.61</course>
  <speed>0.03605551275463989</speed>
  <fix>3d</fix>
</trkpt>
<trkpt lat="40.072842" lon="-105.2305748">
  <ele>1603.85</ele>
  <time>2026-08-28T19:13:12Z</time>
  <course>255.81</course>
  <speed>0.06</speed>
  <fix>3d</fix>
</trkpt>
<trkpt lat="40.0728419" lon="-105.2305749">
  <ele>1603.3</ele>
  <time>2026-08-28T19:13:12Z</time>
  <course>12.59</course>
  <speed>0.022360679774997897</speed>
  <fix>3d</fix>
</trkpt>
<trkpt lat="40.072842" lon="-105.230575">
  <ele>1603.55</ele>
  <time>2026-08-28T19:13:12Z</time>
  <course>261.98</course>
  <speed>0.05</speed>
  <fix>3d</fix>
</trkpt>
<trkpt lat="40.0728419" lon="-105.230575">
  <ele>1603.01</ele>
  <time>2026-08-28T19:13:12Z</time>
  <course>12.57</course>
  <speed>0.022360679774997897</speed>
  <fix>3d</fix>
</trkpt>
<trkpt lat="40.072842" lon="-105.2305751">
  <ele>1603.25</ele>
  <time>2026-08-28T19:13:12Z</time>
  <course>268.29</course>
  <speed>0.05</speed>
  <fix>3d</fix>
</trkpt>
<trkpt lat="40.0728419" lon="-105.2305751">
  <ele>1602.71</ele>
  <time>2026-08-28T19:13:12Z</time>
  <course>12.54</course>
  <speed>0.02</speed>
  <fix>3d</fix>
</trkpt>
<trkpt lat="40.072842" lon="-105.2305752">
  <ele>1602.95</ele>
  <time>2026-08-28T19:13:12Z</time>
  <course>274.58</course>
  <speed>0.05</speed>
  <fix>3d</fix>
</trkpt>
<trkpt lat="40.0728419" lon="-105.2305752">
  <ele>1602.41</ele>
  <time>2026-08-28T19:13:12Z</time>
  <course>12.51</course>
  <speed>0.01</speed>
  <fix>3d</fix>
</trkpt>
<trkpt lat="40.072842" lon="-105.2305753">
  <ele>1602.65</ele>
  <time>2026-08-28T19:13:12Z</time>
  <course>280.58</course>
  <speed>0.05</speed>
  <fix>3d</fix>
</trkpt>
<trkpt lat="40.0728419" lon="-105.2305753">
  <ele>1602.11</ele>
  <time>2026-08-28T19:13:12Z</time>
  <course>12.49</course>
  <speed>0.01</speed>
  <fix>3d</fix>
</trkpt>
<trkpt lat="40.072842" lon="-105.2305755">
  <ele>1602.35</ele>
  <time>2026-08-28T19:13:12Z</time>
  <course>286.16</course>
  <speed>0.04</speed>
  <fix>3d</fix>
</trkpt>
<trkpt lat="40.0728419" lon="-105.2305753">
  <ele>1601.81</ele>
  <time>2026-08-28T19:13:12Z</time>
  <course>12.48</course>
  <speed>0.0</speed>
  <fix>3d</fix>
</trkpt>
<trkpt lat="40.072842" lon="-105.2305756">
  <ele>1602.05</ele>
  <time>2026-08-28T19:13:12Z</time>
  <course>291.99</course>
  <speed>0.04</speed>
  <fix>3d</fix>
</trkpt>
<trkpt lat="40.0728419" lon="-105.2305754">
  <ele>1601.51</ele>
  <time>2026-08-28T19:13:12Z</time>
  <course>12.45</course>
  <speed>0.0</speed>
  <fix>3d</fix>
</trkpt>
<trkpt lat="40.072842" lon="-105.2305756">
  <ele>1601.76</ele>
  <time>2026-08-28T19:13:12Z</time>
  <course>298.49</course>
  <speed>0.03</speed>
  <fix>3d</fix>
</trkpt>
<trkpt lat="40.0728419" lon="-105.2305755">
  <ele>1601.21</ele>
  <time>2026-08-28T19:13:12Z</time>
  <course>12.43</course>
  <speed>0.0</speed>
  <fix>3d</fix>
</trkpt>
<trkpt lat="40.072842" lon="-105.2305757">
  <ele>1601.46</ele>
  <time>2026-08-28T19:13:12Z</time>
  <course>305.48</course>
  <speed>0.03</speed>
  <fix>3d</fix>
</trkpt>
<trkpt lat="40.072842" lon="-105.2305756">
  <ele>1600.91</ele>
  <time>2026-08-28T19:13:12Z</time>
  <course>12.42</course>
  <speed>0.01</speed>
  <fix>3d</fix>
</trkpt>
<trkpt lat="40.072842" lon="-105.2305758">
  <ele>1601.16</ele>
  <time>2026-08-28T19:13:12Z</time>
  <course>313.61</course>
  <speed>0.03</speed>
  <fix>3d</fix>
</trkpt>
<trkpt lat="40.072842" lon="-105.2305756">
  <ele>1600.62</ele>
  <time>2026-08-28T19:13:12Z</time>
  <course>12.4</course>
  <speed>0.01</speed>
  <fix>3d</fix>
</trkpt>
<trkpt lat="40.072842" lon="-105.2305758">
  <ele>1600.86</ele>
  <time>2026-08-28T19:13:12Z</time>
  <course>323.46</course>
  <speed>0.02</speed>
  <fix>3d</fix>
</trkpt>
<trkpt lat="40.072842" lon="-105.2305756">
  <ele>1600.32</ele>
  <time>2026-08-28T19:13:12Z</time>
  <course>12.4</course>
  <speed>0.02</speed>
  <fix>3d</fix>
</trkpt>
<trkpt lat="40.072842" lon="-105.2305758">
  <ele>1600.56</ele>
  <time>2026-08-28T19:13:12Z</time>
  <course>335.59</course>
  <speed>0.02</speed>
  <fix>3d</fix>
</trkpt>
<trkpt lat="40.072842" lon="-105.2305756">
  <ele>1600.02</ele>
  <time>2026-08-28T19:13:12Z</time>
  <course>12.38</course>
  <speed>0.02</speed>
  <fix>3d</fix>
</trkpt>
<trkpt lat="40.0728421" lon="-105.2305758">
  <ele>1600.27</ele>
  <time>2026-08-28T19:13:12Z</time>
  <course>349.97</course>
  <speed>0.02</speed>
  <fix>3d</fix>
</trkpt>
<trkpt lat="40.0728421" lon="-105.2305756">
  <ele>1599.72</ele>
  <time>2026-08-28T19:13:12Z</time>
  <course>12.35</course>
  <speed>0.03</speed>
  <fix>3d</fix>
</trkpt>
<trkpt lat="40.0728421" lon="-105.2305758">
  <ele>1599.96</ele>
  <time>2026-08-28T19:13:12Z</time>
  <course>4.25</course>
  <speed>0.02</speed>
  <fix>3d</fix>
</trkpt>
<trkpt lat="40.0728421" lon="-105.2305756">
  <ele>1599.42</ele>
  <time>2026-08-28T19:13:12Z</time>
  <course>12.32</course>
  <speed>0.03</speed>
  <fix>3d</fix>
</trkpt>
<trkpt lat="40.0728421" lon="-105.2305758">
  <ele>1599.66</ele>
  <time>2026-08-28T19:13:12Z</time>
  <course>16.26</course>
  <speed>0.02</speed>
  <fix>3d</fix>
</trkpt>
<trkpt lat="40.0728421" lon="-105.2305756">
  <ele>1599.12</ele>
  <time>2026-08-28T19:13:12Z</time>
  <course>12.32</course>
  <speed>0.03</speed>
  <fix>3d</fix>
</trkpt>
<trkpt lat="40.0728422" lon="-105.2305758">
  <ele>1599.36</ele>
  <time>2026-08-28T19:13:12Z</time>
  <course>25.18</course>
  <speed>0.02</speed>
  <fix>3d</fix>
</trkpt>
<trkpt lat="40.0728421" lon="-105.2305756">
  <ele>1598.82</ele>
  <time>2026-08-28T19:13:12Z</time>
  <course>12.31</course>
  <speed>0.03</speed>
  <fix>3d</fix>
</trkpt>
<trkpt lat="40.0728423" lon="-105.2305758">
  <ele>1599.06</ele>
  <time>2026-08-28T19:13:12Z</time>
  <course>32.01</course>
  <speed>0.02</speed>
  <fix>3d</fix>
</trkpt>
<trkpt lat="40.0728421" lon="-105.2305755">
  <ele>1598.52</ele>
  <time>2026-08-28T19:13:12Z</time>
  <course>12.29</course>
  <speed>0.03</speed>
  <fix>3d</fix>
</trkpt>
<trkpt lat="40.0728423" lon="-105.2305758">
  <ele>1598.76</ele>
  <time>2026-08-28T19:13:12Z</time>
  <course>38.72</course>
  <speed>0.02</speed>
  <fix>3d</fix>
</trkpt>
<trkpt lat="40.0728422" lon="-105.2305755">
  <ele>1598.22</ele>
  <time>2026-08-28T19:13:12Z</time>
  <course>12.27</course>
  <speed>0.03</speed>
  <fix>3d</fix>
</trkpt>
<trkpt lat="40.0728423" lon="-105.2305758">
  <ele>1598.46</ele>
  <time>2026-08-28T19:13:12Z</time>
  <course>45.4</course>
  <speed>0.02</speed>
  <fix>3d</fix>
</trkpt>
<trkpt lat="40.0728422" lon="-105.2305755">
  <ele>1597.92</ele>
  <time>2026-08-28T19:13:12Z</time>
  <course>12.25</course>
  <speed>0.0316227766016838</speed>
  <fix>3d</fix>
</trkpt>
<trkpt lat="40.0728424" lon="-105.2305758">
  <ele>1598.15</ele>
  <time>2026-08-28T19:13:12Z</time>
  <course>52.1</course>
  <speed>0.01</speed>
  <fix>3d</fix>
</trkpt>
<trkpt lat="40.0728422" lon="-105.2305755">
  <ele>1597.62</ele>
  <time>2026-08-28T19:13:12Z</time>
  <course>12.22</course>
  <speed>0.0316227766016838</speed>
  <fix>3d</fix>
</trkpt>
<trkpt lat="40.0728424" lon="-105.2305758">
  <ele>1597.85</ele>
  <time>2026-08-28T19:13:12Z</time>
  <course>59.41</course>
  <speed>0.01</speed>
  <fix>3d</fix>
</trkpt>
<trkpt lat="40.0728422" lon="-105.2305754">
  <ele>1597.32</ele>
  <time>2026-08-28T19:13:12Z</time>
  <course>12.05</course>
  <speed>0.0412310562561766</speed>
  <fix>3d</fix>
</trkpt>
<trkpt lat="40.0728424" lon="-105.2305758">
  <ele>1597.55</ele>
  <time>2026-08-28T19:13:12Z</time>
  <course>67.99</course>
  <speed>0.01</speed>
  <fix>3d</fix>
</trkpt>
<trkpt lat="40.0728422" lon="-105.2305754">
  <ele>1597.06</ele>
  <time>2026-08-28T19:13:12Z</time>
  <course>11.67</course>
  <speed>0.03605551275463989</speed>
  <fix>3d</fix>
</trkpt>
<trkpt lat="40.0728424" lon="-105.2305757">
  <ele>1597.26</ele>
  <time>2026-08-28T19:13:12Z</time>
  <course>78.22</course>
  <speed>0.01</speed>
  <fix>3d</fix>
</trkpt>
<trkpt lat="40.0728422" lon="-105.2305754">
  <ele>1596.83</ele>
  <time>2026-08-28T19:13:12Z</time>
  <course>11.32</course>
  <speed>0.03605551275463989</speed>
  <fix>3d</fix>
</trkpt>
<trkpt lat="40.0728424" lon="-105.2305756">
  <ele>1596.99</ele>
  <time>2026-08-28T19:13:12Z</time>
  <course>88.42</course>
  <speed>0.01</speed>
  <fix>3d</fix>
</trkpt>
<trkpt lat="40.0728422" lon="-105.2305754">
  <ele>1596.65</ele>
  <time>2026-08-28T19:13:12Z</time>
  <course>11.01</course>
  <speed>0.0282842712474619</speed>
  <fix>3d</fix>
</trkpt>
<trkpt lat="40.0728424" lon="-105.2305756">
  <ele>1596.77</ele>
  <time>2026-08-28T19:13:12Z</time>
  <course>100.94</course>
  <speed>0.01</speed>
  <fix>3d</fix>
</trkpt>
<trkpt lat="40.0728422" lon="-105.2305754">
  <ele>1596.5</ele>
  <time>2026-08-28T19:13:12Z</time>
  <course>10.73</course>
  <speed>0.0282842712474619</speed>
  <fix>3d</fix>
</trkpt>
<trkpt lat="40.0728424" lon="-105.2305756">
  <ele>1596.58</ele>
  <time>2026-08-28T19:13:12Z</time>
  <course>125.98</course>
  <speed>0.0</speed>
  <fix>3d</fix>
</trkpt>
<trkpt lat="40.0728422" lon="-105.2305754">
  <ele>1596.39</ele>
  <time>2026-08-28T19:13:12Z</time>
  <course>10.72</course>
  <speed>0.022360679774997897</speed>
  <fix>3d</fix>
</trkpt>
<trkpt lat="40.0728424" lon="-105.2305756">
  <ele>1596.44</ele>
  <time>2026-08-28T19:13:12Z</time>
  <course>185.77</course>
  <speed>0.0</speed>
  <fix>3d</fix>
</trkpt>
<trkpt lat="40.0728422" lon="-105.2305754">
  <ele>1596.3</ele>
  <time>2026-08-28T19:13:12Z</time>
  <course>10.82</course>
  <speed>0.02</speed>
  <fix>3d</fix>
</trkpt>
<trkpt lat="40.0728424" lon="-105.2305756">
  <ele>1596.33</ele>
  <time>2026-08-28T19:13:12Z</time>
  <course>226.13</course>
  <speed>0.01</speed>
  <fix>3d</fix>
</trkpt>
<trkpt lat="40.0728422" lon="-105.2305754">
  <ele>1596.2</ele>
  <time>2026-08-28T19:13:12Z</time>
  <course>10.88</course>
  <speed>0.02</speed>
  <fix>3d</fix>
</trkpt>
<trkpt lat="40.0728424" lon="-105.2305756">
  <ele>1596.23</ele>
  <time>2026-08-28T19:13:12Z</time>
  <course>237.65</course>
  <speed>0.01</speed>
  <fix>3d</fix>
</trkpt>
<trkpt lat="40.0728422" lon="-105.2305754">
  <ele>1596.12</ele>
  <time>2026-08-28T19:13:12Z</time>
  <course>10.95</course>
  <speed>0.02</speed>
  <fix>3d</fix>
</trkpt>
<trkpt lat="40.0728424" lon="-105.2305756">
  <ele>1596.14</ele>
  <time>2026-08-28T19:13:12Z</time>
  <course>242.02</course>
  <speed>0.02</speed>
  <fix>3d</fix>
</trkpt>
<trkpt lat="40.0728422" lon="-105.2305755">
  <ele>1596.03</ele>
  <time>2026-08-28T19:13:12Z</time>
  <course>11.0</course>
  <speed>0.02</speed>
  <fix>3d</fix>
</trkpt>
<trkpt lat="40.0728424" lon="-105.2305756">
  <ele>1596.06</ele>
  <time>2026-08-28T19:13:12Z</time>
  <course>244.28</course>
  <speed>0.02</speed>
  <fix>3d</fix>
</trkpt>
<trkpt lat="40.0728422" lon="-105.2305755">
  <ele>1595.93</ele>
  <time>2026-08-28T19:13:12Z</time>
  <course>11.05</course>
  <speed>0.02</speed>
  <fix>3d</fix>
</trkpt>
<trkpt lat="40.0728424" lon="-105.2305757">
  <ele>1595.97</ele>
  <time>2026-08-28T19:13:12Z</time>
  <course>245.7</course>
  <speed>0.02</speed>
  <fix>3d</fix>
</trkpt>
<trkpt lat="40.0728422" lon="-105.2305755">
  <ele>1595.84</ele>
  <time>2026-08-28T19:13:12Z</time>
  <course>11.03</course>
  <speed>0.02</speed>
  <fix>3d</fix>
</trkpt>
<trkpt lat="40.0728424" lon="-105.2305758">
  <ele>1595.88</ele>
  <time>2026-08-28T19:13:12Z</time>
  <course>246.44</course>
  <speed>0.02</speed>
  <fix>3d</fix>
</trkpt>
<trkpt lat="40.0728422" lon="-105.2305756">
  <ele>1595.75</ele>
  <time>2026-08-28T19:13:12Z</time>
  <course>11.05</course>
  <speed>0.02</speed>
  <fix>3d</fix>
</trkpt>
<trkpt lat="40.0728424" lon="-105.2305758">
  <ele>1595.78</ele>
  <time>2026-08-28T19:13:12Z</time>
  <course>246.15</course>
  <speed>0.02</speed>
  <fix>3d</fix>
</trkpt>
<trkpt lat="40.0728422" lon="-105.2305756">
  <ele>1595.65</ele>
  <time>2026-08-28T19:13:12Z</time>
  <course>11.08</course>
  <speed>0.02</speed>
  <fix>3d</fix>
</trkpt>
<trkpt lat="40.0728424" lon="-105.2305758">
  <ele>1595.69</ele>
  <time>2026-08-28T19:13:12Z</time>
  <course>243.62</course>
  <speed>0.01</speed>
  <fix>3d</fix>
</trkpt>
<trkpt lat="40.0728422" lon="-105.2305756">
  <ele>1595.55</ele>
  <time>2026-08-28T19:13:12Z</time>
  <course>11.07</course>
  <speed>0.022360679774997897</speed>
  <fix>3d</fix>
</trkpt>
<trkpt lat="40.0728423" lon="-105.2305758">
  <ele>1595.59</ele>
  <time>2026-08-28T19:13:12Z</time>
  <course>236.6</course>
  <speed>0.01</speed>
  <fix>3d</fix>
</trkpt>
<trkpt lat="40.0728422" lon="-105.2305756">
  <ele>1595.45</ele>
  <time>2026-08-28T19:13:12Z</time>
  <course>11.08</course>
  <speed>0.022360679774997897</speed>
  <fix>3d</fix>
</trkpt>
<trkpt lat="40.0728423" lon="-105.2305758">
  <ele>1595.49</ele>
  <time>2026-08-28T19:13:12Z</time>
  <course>223.41</course>
  <speed>0.01</speed>
  <fix>3d</fix>
</trkpt>
<trkpt lat="40.0728422" lon="-105.2305756">
  <ele>1595.35</ele>
  <time>2026-08-28T19:13:12Z</time>
  <course>11.1</course>
  <speed>0.0282842712474619</speed>
  <fix>3d</fix>
</trkpt>
<trkpt lat="40.0728423" lon="-105.2305758">
  <ele>1595.39</ele>
  <time>2026-08-28T19:13:12Z</time>
  <course>202.74</course>
  <speed>0.0</speed>
  <fix>3d</fix>
</trkpt>
<trkpt lat="40.0728422" lon="-105.2305756">
  <ele>1595.25</ele>
  <time>2026-08-28T19:13:12Z</time>
  <course>11.11</course>
  <speed>0.022360679774997897</speed>
  <fix>3d</fix>
</trkpt>
<trkpt lat="40.0728423" lon="-105.2305758">
  <ele>1595.3</ele>
  <time>2026-08-28T19:13:12Z</time>
  <course>174.24</course>
  <speed>0.0</speed>
  <fix>3d</fix>
</trkpt>
<trkpt lat="40.0728422" lon="-105.2305756">
  <ele>1595.15</ele>
  <time>2026-08-28T19:13:12Z</time>
  <course>11.11</course>
  <speed>0.022360679774997897</speed>
  <fix>3d</fix>
</trkpt>
<trkpt lat="40.0728423" lon="-105.2305758">
  <ele>1595.2</ele>
  <time>2026-08-28T19:13:12Z</time>
  <course>148.65</course>
  <speed>0.0</speed>
  <fix>3d</fix>
</trkpt>
<trkpt lat="40.0728422" lon="-105.2305756">
  <ele>1595.06</ele>
  <time>2026-08-28T19:13:12Z</time>
  <course>11.12</course>
  <speed>0.022360679774997897</speed>
  <fix>3d</fix>
</trkpt>
<trkpt lat="40.0728423" lon="-105.2305758">
  <ele>1595.1</ele>
  <time>2026-08-28T19:13:12Z</time>
  <course>130.99</course>
  <speed>0.0</speed>
  <fix>3d</fix>
</trkpt>
<trkpt lat="40.0728422" lon="-105.2305756">
  <ele>1594.95</ele>
  <time>2026-08-28T19:13:12Z</time>
  <course>11.12</course>
  <speed>0.0316227766016838</speed>
  <fix>3d</fix>
</trkpt>
<trkpt lat="40.0728423" lon="-105.2305758">
  <ele>1595.0</ele>
  <time>2026-08-28T19:13:12Z</time>
  <course>119.01</course>
  <speed>0.0</speed>
  <fix>3d</fix>
</trkpt>
<trkpt lat="40.0728422" lon="-105.2305756">
  <ele>1594.85</ele>
  <time>2026-08-28T19:13:12Z</time>
  <course>11.12</course>
  <speed>0.0316227766016838</speed>
  <fix>3d</fix>
</trkpt>
<trkpt lat="40.0728423" lon="-105.2305758">
  <ele>1594.89</ele>
  <time>2026-08-28T19:13:12Z</time>
  <course>111.81</course>
  <speed>0.01</speed>
  <fix>3d</fix>
</trkpt>
<trkpt lat="40.0728422" lon="-105.2305756">
  <ele>1594.75</ele>
  <time>2026-08-28T19:13:12Z</time>
  <course>11.14</course>
  <speed>0.0316227766016838</speed>
  <fix>3d</fix>
</trkpt>
<trkpt lat="40.0728423" lon="-105.2305758">
  <ele>1594.8</ele>
  <time>2026-08-28T19:13:12Z</time>
  <course>107.25</course>
  <speed>0.01</speed>
  <fix>3d</fix>
</trkpt>
<trkpt lat="40.0728422" lon="-105.2305756">
  <ele>1594.66</ele>
  <time>2026-08-28T19:13:12Z</time>
  <course>11.13</course>
  <speed>0.0316227766016838</speed>
  <fix>3d</fix>
</trkpt>
<trkpt lat="40.0728423" lon="-105.2305758">
  <ele>1594.7</ele>
  <time>2026-08-28T19:13:12Z</time>
  <course>104.21</course>
  <speed>0.01</speed>
  <fix>3d</fix>
</trkpt>
<trkpt lat="40.0728422" lon="-105.2305755">
  <ele>1594.56</ele>
  <time>2026-08-28T19:13:12Z</time>
  <course>11.14</course>
  <speed>0.0316227766016838</speed>
  <fix>3d</fix>
</trkpt>
<trkpt lat="40.0728422" lon="-105.2305758">
  <ele>1594.6</ele>
  <time>2026-08-28T19:13:12Z</time>
  <course>102.53</course>
  <speed>0.01</speed>
  <fix>3d</fix>
</trkpt>
<trkpt lat="40.0728422" lon="-105.2305755">
  <ele>1594.46</ele>
  <time>2026-08-28T19:13:12Z</time>
  <course>11.16</course>
  <speed>0.0316227766016838</speed>
  <fix>3d</fix>
</trkpt>
<trkpt lat="40.0728421" lon="-105.2305758">
  <ele>1594.49</ele>
  <time>2026-08-28T19:13:12Z</time>
  <course>101.45</course>
  <speed>0.01</speed>
  <fix>3d</fix>
</trkpt>
<trkpt lat="40.0728422" lon="-105.2305755">
  <ele>1594.36</ele>
  <time>2026-08-28T19:13:12Z</time>
  <course>11.15</course>
  <speed>0.0316227766016838</speed>
  <fix>3d</fix>
</trkpt>
<trkpt lat="40.0728421" lon="-105.2305758">
  <ele>1594.38</ele>
  <time>2026-08-28T19:13:12Z</time>
  <course>100.59</course>
  <speed>0.01</speed>
  <fix>3d</fix>
</trkpt>
<trkpt lat="40.0728422" lon="-105.2305755">
  <ele>1594.26</ele>
  <time>2026-08-28T19:13:12Z</time>
  <course>11.14</course>
  <speed>0.0316227766016838</speed>
  <fix>3d</fix>
</trkpt>
<trkpt lat="40.0728421" lon="-105.2305758">
  <ele>1594.29</ele>
  <time>2026-08-28T19:13:12Z</time>
  <course>99.16</course>
  <speed>0.01</speed>
  <fix>3d</fix>
</trkpt>
<trkpt lat="40.0728421" lon="-105.2305755">
  <ele>1594.15</ele>
  <time>2026-08-28T19:13:12Z</time>
  <course>11.15</course>
  <speed>0.0316227766016838</speed>
  <fix>3d</fix>
</trkpt>
<trkpt lat="40.0728421" lon="-105.2305757">
  <ele>1594.19</ele>
  <time>2026-08-28T19:13:12Z</time>
  <course>96.13</course>
  <speed>0.01</speed>
  <fix>3d</fix>
</trkpt>
<trkpt lat="40.0728421" lon="-105.2305754">
  <ele>1594.06</ele>
  <time>2026-08-28T19:13:12Z</time>
  <course>11.17</course>
  <speed>0.0316227766016838</speed>
  <fix>3d</fix>
</trkpt>
<trkpt lat="40.0728421" lon="-105.2305756">
  <ele>1594.09</ele>
  <time>2026-08-28T19:13:12Z</time>
  <course>91.07</course>
  <speed>0.01</speed>
  <fix>3d</fix>
</trkpt>
<trkpt lat="40.0728421" lon="-105.2305754">
  <ele>1593.96</ele>
  <time>2026-08-28T19:13:13Z</time>
  <course>11.17</course>
  <speed>0.0316227766016838</speed>
  <fix>3d</fix>
</trkpt>
<trkpt lat="40.0728421" lon="-105.2305756">
  <ele>1593.99</ele>
  <time>2026-08-28T19:13:13Z</time>
  <course>84.21</course>
  <speed>0.01</speed>
  <fix>3d</fix>
</trkpt>
<trkpt lat="40.0728421" lon="-105.2305754">
  <ele>1593.86</ele>
  <time>2026-08-28T19:13:13Z</time>
  <course>11.18</course>
  <speed>0.0316227766016838</speed>
  <fix>3d</fix>
</trkpt>
<trkpt lat="40.0728421" lon="-105.2305756">
  <ele>1593.88</ele>
  <time>2026-08-28T19:13:13Z</time>
  <course>76.75</course>
  <speed>0.01</speed>
  <fix>3d</fix>
</trkpt>
<trkpt lat="40.0728421" lon="-105.2305754">
  <ele>1593.75</ele>
  <time>2026-08-28T19:13:13Z</time>
  <course>11.19</course>
  <speed>0.0316227766016838</speed>
  <fix>3d</fix>
</trkpt>
<trkpt lat="40.0728421" lon="-105.2305756">
  <ele>1593.79</ele>
  <time>2026-08-28T19:13:13Z</time>
  <course>69.75</course>
  <speed>0.01</speed>
  <fix>3d</fix>
</trkpt>
<trkpt lat="40.0728421" lon="-105.2305753">
  <ele>1593.65</ele>
  <time>2026-08-28T19:13:13Z</time>
  <course>11.18</course>
  <speed>0.022360679774997897</speed>
  <fix>3d</fix>
</trkpt>
<trkpt lat="40.0728421" lon="-105.2305756">
  <ele>1593.69</ele>
  <time>2026-08-28T19:13:13Z</time>
  <course>62.79</course>
  <speed>0.01</speed>
  <fix>3d</fix>
</trkpt>
<trkpt lat="40.0728421" lon="-105.2305753">
  <ele>1593.55</ele>
  <time>2026-08-28T19:13:13Z</time>
  <course>11.21</course>
  <speed>0.02</speed>
  <fix>3d</fix>
</trkpt>
<trkpt lat="40.0728421" lon="-105.2305756">
  <ele>1593.59</ele>
  <time>2026-08-28T19:13:13Z</time>
  <course>55.37</course>
  <speed>0.01</speed>
  <fix>3d</fix>
</trkpt>
<trkpt lat="40.0728421" lon="-105.2305753">
  <ele>1593.45</ele>
  <time>2026-08-28T19:13:13Z</time>
  <course>11.18</course>
  <speed>0.02</speed>
  <fix>3d</fix>
</trkpt>
<trkpt lat="40.0728421" lon="-105.2305755">
  <ele>1593.49</ele>
  <time>2026-08-28T19:13:13Z</time>
  <course>49.33</course>
  <speed>0.01</speed>
  <fix>3d</fix>
</trkpt>
<trkpt lat="40.0728421" lon="-105.2305753">
  <ele>1593.35</ele>
  <time>2026-08-28T19:13:13Z</time>
  <course>11.2</course>
  <speed>0.02</speed>
  <fix>3d</fix>
</trkpt>
<trkpt lat="40.0728421" lon="-105.2305755">
  <ele>1593.38</ele>
  <time>2026-08-28T19:13:13Z</time>
  <course>44.14</course>
  <speed>0.01</speed>
  <fix>3d</fix>
</trkpt>
<trkpt lat="40.0728421" lon="-105.2305753">
  <ele>1593.25</ele>
  <time>2026-08-28T19:13:13Z</time>
  <course>11.2</course>
  <speed>0.02</speed>
  <fix>3d</fix>
</trkpt>
<trkpt lat="40.0728421" lon="-105.2305755">
  <ele>1593.29</ele>
  <time>2026-08-28T19:13:13Z</time>
  <course>38.88</course>
  <speed>0.01</speed>
  <fix>3d</fix>
</trkpt>
<trkpt lat="40.0728421" lon="-105.2305753">
  <ele>1593.15</ele>
  <time>2026-08-28T19:13:13Z</time>
  <course>11.21</course>
  <speed>0.02</speed>
  <fix>3d</fix>
</trkpt>
<trkpt lat="40.0728421" lon="-105.2305755">
  <ele>1593.19</ele>
  <time>2026-08-28T19:13:13Z</time>
  <course>34.15</course>
  <speed>0.01</speed>
  <fix>3d</fix>
</trkpt>
<trkpt lat="40.0728421" lon="-105.2305753">
  <ele>1593.06</ele>
  <time>2026-08-28T19:13:13Z</time>
  <course>11.21</course>
  <speed>0.02</speed>
  <fix>3d</fix>
</trkpt>
<trkpt lat="40.0728422" lon="-105.2305755">
  <ele>1593.09</ele>
  <time>2026-08-28T19:13:13Z</time>
  <course>29.71</course>
  <speed>0.01</speed>
  <fix>3d</fix>
</trkpt>
<trkpt lat="40.0728421" lon="-105.2305753">
  <ele>1592.96</ele>
  <time>2026-08-28T19:13:13Z</time>
  <course>11.21</course>
  <speed>0.02</speed>
  <fix>3d</fix>
</trkpt>
<trkpt lat="40.0728423" lon="-105.2305755">
  <ele>1592.99</ele>
  <time>2026-08-28T19:13:13Z</time>
  <course>26.66</course>
  <speed>0.01</speed>
  <fix>3d</fix>
</trkpt>
<trkpt lat="40.0728421" lon="-105.2305753">
  <ele>1592.86</ele>
  <time>2026-08-28T19:13:13Z</time>
  <course>11.22</course>
  <speed>0.02</speed>
  <fix>3d</fix>
</trkpt>
<trkpt lat="40.0728423" lon="-105.2305754">
  <ele>1592.88</ele>
  <time>2026-08-28T19:13:13Z</time>
  <course>23.08</course>
  <speed>0.01</speed>
  <fix>3d</fix>
</trkpt>
<trkpt lat="40.0728421" lon="-105.2305753">
  <ele>1592.76</ele>
  <time>2026-08-28T19:13:13Z</time>
  <course>11.23</course>
  <speed>0.02</speed>
  <fix>3d</fix>
</trkpt>
<trkpt lat="40.0728423" lon="-105.2305753">
  <ele>1592.78</ele>
  <time>2026-08-28T19:13:13Z</time>
  <course>19.44</course>
  <speed>0.01</speed>
  <fix>3d</fix>
</trkpt>
<trkpt lat="40.0728421" lon="-105.2305752">
  <ele>1592.65</ele>
  <time>2026-08-28T19:13:13Z</time>
  <course>11.23</course>
  <speed>0.022360679774997897</speed>
  <fix>3d</fix>
</trkpt>
<trkpt lat="40.0728423" lon="-105.2305753">
  <ele>1592.67</ele>
  <time>2026-08-28T19:13:13Z</time>
  <course>18.52</course>
  <speed>0.0</speed>
  <fix>3d</fix>
</trkpt>
<trkpt lat="40.0728421" lon="-105.2305752">
  <ele>1592.55</ele>
  <time>2026-08-28T19:13:13Z</time>
  <course>11.22</course>
  <speed>0.022360679774997897</speed>
  <fix>3d</fix>
</trkpt>
<trkpt lat="40.0728423" lon="-105.2305753">
  <ele>1592.58</ele>
  <time>2026-08-28T19:13:13Z</time>
  <course>19.54</course>
  <speed>0.0</speed>
  <fix>3d</fix>
</trkpt>
<trkpt lat="40.0728421" lon="-105.2305752">
  <ele>1592.45</ele>
  <time>2026-08-28T19:13:13Z</time>
  <course>11.25</course>
  <speed>0.01414213562373095</speed>
  <fix>3d</fix>
</trkpt>
<trkpt lat="40.0728423" lon="-105.2305753">
  <ele>1592.48</ele>
  <time>2026-08-28T19:13:13Z</time>
  <course>18.21</course>
  <speed>0.0</speed>
  <fix>3d</fix>
</trkpt>
<trkpt lat="40.0728422" lon="-105.2305752">
  <ele>1592.35</ele>
  <time>2026-08-28T19:13:13Z</time>
  <course>11.23</course>
  <speed>0.01414213562373095</speed>
  <fix>3d</fix>
</trkpt>
<trkpt lat="40.0728424" lon="-105.2305753">
  <ele>1592.38</ele>
  <time>2026-08-28T19:13:13Z</time>
  <course>13.28</course>
  <speed>0.0</speed>
  <fix>3d</fix>
</trkpt>
<trkpt lat="40.0728422" lon="-105.2305752">
  <ele>1592.25</ele>
  <time>2026-08-28T19:13:13Z</time>
  <course>11.25</course>
  <speed>0.01414213562373095</speed>
  <fix>3d</fix>
</trkpt>
<trkpt lat="40.0728424" lon="-105.2305753">
  <ele>1592.28</ele>
  <time>2026-08-28T19:13:13Z</time>
  <course>350.0</course>
  <speed>0.0</speed>
  <fix>3d</fix>
</trkpt>
<trkpt lat="40.0728422" lon="-105.2305752">
  <ele>1592.15</ele>
  <time>2026-08-28T19:13:13Z</time>
  <course>11.24</course>
  <speed>0.01414213562373095</speed>
  <fix>3d</fix>
</trkpt>
<trkpt lat="40.0728424" lon="-105.2305753">
  <ele>1592.17</ele>
  <time>2026-08-28T19:13:13Z</time>
  <course>286.98</course>
  <speed>0.0</speed>
  <fix>3d</fix>
</trkpt>
<trkpt lat="40.0728422" lon="-105.2305752">
  <ele>1592.05</ele>
  <time>2026-08-28T19:13:13Z</time>
  <course>11.27</course>
  <speed>0.01414213562373095</speed>
  <fix>3d</fix>
</trkpt>
<trkpt lat="40.0728424" lon="-105.2305753">
  <ele>1592.08</ele>
  <time>2026-08-28T19:13:13Z</time>
  <course>251.08</course>
  <speed>0.0</speed>
  <fix>3d</fix>
</trkpt>
<trkpt lat="40.0728422" lon="-105.2305752">
  <ele>1591.95</ele>
  <time>2026-08-28T19:13:13Z</time>
  <course>11.24</course>
  <speed>0.022360679774997897</speed>
  <fix>3d</fix>
</trkpt>
<trkpt lat="40.0728424" lon="-105.2305753">
  <ele>1591.98</ele>
  <time>2026-08-28T19:13:13Z</time>
  <course>234.92</course>
  <speed>0.0</speed>
  <fix>3d</fix>
</trkpt>
<trkpt lat="40.0728422" lon="-105.2305752">
  <ele>1591.85</ele>
  <time>2026-08-28T19:13:13Z</time>
  <course>11.26</course>
  <speed>0.022360679774997897</speed>
  <fix>3d</fix>
</trkpt>
<trkpt lat="40.0728424" lon="-105.2305753">
  <ele>1591.88</ele>
  <time>2026-08-28T19:13:13Z</time>
  <course>226.42</course>
  <speed>0.0</speed>
  <fix>3d</fix>
</trkpt>
<trkpt lat="40.0728422" lon="-105.2305752">
  <ele>1591.75</ele>
  <time>2026-08-28T19:13:13Z</time>
  <course>11.26</course>
  <speed>0.022360679774997897</speed>
  <fix>3d</fix>
</trkpt>
<trkpt lat="40.0728424" lon="-105.2305753">
  <ele>1591.78</ele>
  <time>2026-08-28T19:13:13Z</time>
  <course>221.36</course>
  <speed>0.0</speed>
  <fix>3d</fix>
</trkpt>
<trkpt lat="40.0728422" lon="-105.2305752">
  <ele>1591.65</ele>
  <time>2026-08-28T19:13:13Z</time>
  <course>11.25</course>
  <speed>0.022360679774997897</speed>
  <fix>3d</fix>
</trkpt>
<trkpt lat="40.0728424" lon="-105.2305753">
  <ele>1591.67</ele>
  <time>2026-08-28T19:13:13Z</time>
  <course>217.89</course>
  <speed>0.0</speed>
  <fix>3d</fix>
</trkpt>
<trkpt lat="40.0728422" lon="-105.2305752">
  <ele>1591.55</ele>
  <time>2026-08-28T19:13:13Z</time>
  <course>11.29</course>
  <speed>0.022360679774997897</speed>
  <fix>3d</fix>
</trkpt>
<trkpt lat="40.0728424" lon="-105.2305753">
  <ele>1591.58</ele>
  <time>2026-08-28T19:13:13Z</time>
  <course>217.19</course>
  <speed>0.01</speed>
  <fix>3d</fix>
</trkpt>
<trkpt lat="40.0728422" lon="-105.2305752">
  <ele>1591.45</ele>
  <time>2026-08-28T19:13:13Z</time>
  <course>11.23</course>
  <speed>0.022360679774997897</speed>
  <fix>3d</fix>
</trkpt>
<trkpt lat="40.0728424" lon="-105.2305753">
  <ele>1591.48</ele>
  <time>2026-08-28T19:13:13Z</time>
  <course>215.89</course>
  <speed>0.01</speed>
  <fix>3d</fix>
</trkpt>
<trkpt lat="40.0728422" lon="-105.2305752">
  <ele>1591.35</ele>
  <time>2026-08-28T19:13:13Z</time>
  <course>11.24</course>
  <speed>0.022360679774997897</speed>
  <fix>3d</fix>
</trkpt>
<trkpt lat="40.0728424" lon="-105.2305753">
  <ele>1591.38</ele>
  <time>2026-08-28T19:13:13Z</time>
  <course>215.85</course>
  <speed>0.01</speed>
  <fix>3d</fix>
</trkpt>
<trkpt lat="40.0728422" lon="-105.2305752">
  <ele>1591.25</ele>
  <time>2026-08-28T19:13:13Z</time>
  <course>11.27</course>
  <speed>0.022360679774997897</speed>
  <fix>3d</fix>
</trkpt>
<trkpt lat="40.0728424" lon="-105.2305753">
  <ele>1591.29</ele>
  <time>2026-08-28T19:13:13Z</time>
  <course>217.71</course>
  <speed>0.01</speed>
  <fix>3d</fix>
</trkpt>
<trkpt lat="40.0728422" lon="-105.2305752">
  <ele>1591.16</ele>
  <time>2026-08-28T19:13:13Z</time>
  <course>11.28</course>
  <speed>0.022360679774997897</speed>
  <fix>3d</fix>
</trkpt>
<trkpt lat="40.0728423" lon="-105.2305754">
  <ele>1591.19</ele>
  <time>2026-08-28T19:13:13Z</time>
  <course>217.83</course>
  <speed>0.01</speed>
  <fix>3d</fix>
</trkpt>
<trkpt lat="40.0728422" lon="-105.2305752">
  <ele>1591.05</ele>
  <time>2026-08-28T19:13:13Z</time>
  <course>11.27</course>
  <speed>0.022360679774997897</speed>
  <fix>3d</fix>
</trkpt>
<trkpt lat="40.0728423" lon="-105.2305755">
  <ele>1591.09</ele>
  <time>2026-08-28T19:13:13Z</time>
  <course>217.14</course>
  <speed>0.01</speed>
  <fix>3d</fix>
</trkpt>
<trkpt lat="40.0728422" lon="-105.2305752">
  <ele>1590.95</ele>
  <time>2026-08-28T19:13:13Z</time>
  <course>11.26</course>
  <speed>0.022360679774997897</speed>
  <fix>3d</fix>
</trkpt>
<trkpt lat="40.0728423" lon="-105.2305755">
  <ele>1590.99</ele>
  <time>2026-08-28T19:13:13Z</time>
  <course>217.07</course>
  <speed>0.01</speed>
  <fix>3d</fix>
</trkpt>
<trkpt lat="40.0728422" lon="-105.2305752">
  <ele>1590.85</ele>
  <time>2026-08-28T19:13:13Z</time>
  <course>11.28</course>
  <speed>0.022360679774997897</speed>
  <fix>3d</fix>
</trkpt>
<trkpt lat="40.0728423" lon="-105.2305755">
  <ele>1590.88</ele>
  <time>2026-08-28T19:13:13Z</time>
  <course>217.06</course>
  <speed>0.01</speed>
  <fix>3d</fix>
</trkpt>
<trkpt lat="40.0728422" lon="-105.2305752">
  <ele>1590.75</ele>
  <time>2026-08-28T19:13:13Z</time>
  <course>11.29</course>
  <speed>0.022360679774997897</speed>
  <fix>3d</fix>
</trkpt>
<trkpt lat="40.0728423" lon="-105.2305755">
  <ele>1590.79</ele>
  <time>2026-08-28T19:13:13Z</time>
  <course>215.82</course>
  <speed>0.01</speed>
  <fix>3d</fix>
</trkpt>
<trkpt lat="40.0728422" lon="-105.2305753">
  <ele>1590.65</ele>
  <time>2026-08-28T19:13:13Z</time>
  <course>11.27</course>
  <speed>0.022360679774997897</speed>
  <fix>3d</fix>
</trkpt>
<trkpt lat="40.0728423" lon="-105.2305755">
  <ele>1590.69</ele>
  <time>2026-08-28T19:13:13Z</time>
  <course>211.74</course>
  <speed>0.01</speed>
  <fix>3d</fix>
</trkpt>
<trkpt lat="40.0728422" lon="-105.2305753">
  <ele>1590.55</ele>
  <time>2026-08-28T19:13:13Z</time>
  <course>11.29</course>
  <speed>0.01414213562373095</speed>
  <fix>3d</fix>
</trkpt>
<trkpt lat="40.0728422" lon="-105.2305755">
  <ele>1590.59</ele>
  <time>2026-08-28T19:13:13Z</time>
  <course>206.33</course>
  <speed>0.0</speed>
  <fix>3d</fix>
</trkpt>
<trkpt lat="40.0728422" lon="-105.2305753">
  <ele>1590.45</ele>
  <time>2026-08-28T19:13:13Z</time>
  <course>11.27</course>
  <speed>0.022360679774997897</speed>
  <fix>3d</fix>
</trkpt>
<trkpt lat="40.0728421" lon="-105.2305756">
  <ele>1590.49</ele>
  <time>2026-08-28T19:13:13Z</time>
  <course>200.06</course>
  <speed>0.0</speed>
  <fix>3d</fix>
</trkpt>
<trkpt lat="40.0728421" lon="-105.2305753">
  <ele>1590.35</ele>
  <time>2026-08-28T19:13:13Z</time>
  <course>11.29</course>
  <speed>0.022360679774997897</speed>
  <fix>3d</fix>
</trkpt>
<trkpt lat="40.0728421" lon="-105.2305756">
  <ele>1590.38</ele>
  <time>2026-08-28T19:13:13Z</time>
  <course>196.19</course>
  <speed>0.0</speed>
  <fix>3d</fix>
</trkpt>
<trkpt lat="40.0728421" lon="-105.2305753">
  <ele>1590.25</ele>
  <time>2026-08-28T19:13:13Z</time>
  <course>11.29</course>
  <speed>0.022360679774997897</speed>
  <fix>3d</fix>
</trkpt>
<trkpt lat="40.0728421" lon="-105.2305756">
  <ele>1590.29</ele>
  <time>2026-08-28T19:13:13Z</time>
  <course>195.86</course>
  <speed>0.0</speed>
  <fix>3d</fix>
</trkpt>
<trkpt lat="40.0728421" lon="-105.2305753">
  <ele>1590.15</ele>
  <time>2026-08-28T19:13:13Z</time>
  <course>11.28</course>
  <speed>0.022360679774997897</speed>
  <fix>3d</fix>
</trkpt>
<trkpt lat="40.0728421" lon="-105.2305756">
  <ele>1590.19</ele>
  <time>2026-08-28T19:13:13Z</time>
  <course>182.09</course>
  <speed>0.0</speed>
  <fix>3d</fix>
</trkpt>
<trkpt lat="40.0728421" lon="-105.2305753">
  <ele>1590.05</ele>
  <time>2026-08-28T19:13:13Z</time>
  <course>11.29</course>
  <speed>0.022360679774997897</speed>
  <fix>3d</fix>
</trkpt>
<trkpt lat="40.0728421" lon="-105.2305756">
  <ele>1590.09</ele>
  <time>2026-08-28T19:13:13Z</time>
  <course>102.93</course>
  <speed>0.0</speed>
  <fix>3d</fix>
</trkpt>
<trkpt lat="40.0728421" lon="-105.2305753">
  <ele>1589.95</ele>
  <time>2026-08-28T19:13:13Z</time>
  <course>11.29</course>
  <speed>0.022360679774997897</speed>
  <fix>3d</fix>
</trkpt>
<trkpt lat="40.0728421" lon="-105.2305756">
  <ele>1589.99</ele>
  <time>2026-08-28T19:13:13Z</time>
  <course>48.43</course>
  <speed>0.0</speed>
  <fix>3d</fix>
</trkpt>
<trkpt lat="40.0728421" lon="-105.2305753">
  <ele>1589.85</ele>
  <time>2026-08-28T19:13:13Z</time>
  <course>11.27</course>
  <speed>0.022360679774997897</speed>
  <fix>3d</fix>
</trkpt>
<trkpt lat="40.0728421" lon="-105.2305756">
  <ele>1589.88</ele>
  <time>2026-08-28T19:13:13Z</time>
  <course>38.36</course>
  <speed>0.0</speed>
  <fix>3d</fix>
</trkpt>
<trkpt lat="40.0728421" lon="-105.2305753">
  <ele>1589.75</ele>
  <time>2026-08-28T19:13:13Z</time>
  <course>11.28</course>
  <speed>0.02</speed>
  <fix>3d</fix>
</trkpt>
<trkpt lat="40.0728421" lon="-105.2305756">
  <ele>1589.79</ele>
  <time>2026-08-28T19:13:13Z</time>
  <course>34.64</course>
  <speed>0.0</speed>
  <fix>3d</fix>
</trkpt>
<trkpt lat="40.0728421" lon="-105.2305753">
  <ele>1589.65</ele>
  <time>2026-08-28T19:13:13Z</time>
  <course>11.29</course>
  <speed>0.02</speed>
  <fix>3d</fix>
</trkpt>
<trkpt lat="40.0728421" lon="-105.2305756">
  <ele>1589.69</ele>
  <time>2026-08-28T19:13:13Z</time>
  <course>32.42</course>
  <speed>0.0</speed>
  <fix>3d</fix>
</trkpt>
<trkpt lat="40.0728421" lon="-105.2305753">
  <ele>1589.56</ele>
  <time>2026-08-28T19:13:13Z</time>
  <course>11.31</course>
  <speed>0.02</speed>
  <fix>3d</fix>
</trkpt>
<trkpt lat="40.0728421" lon="-105.2305756">
  <ele>1589.59</ele>
  <time>2026-08-28T19:13:13Z</time>
  <course>30.93</course>
  <speed>0.01</speed>
  <fix>3d</fix>
</trkpt>
<trkpt lat="40.0728421" lon="-105.2305753">
  <ele>1589.46</ele>
  <time>2026-08-28T19:13:13Z</time>
  <course>11.34</course>
  <speed>0.02</speed>
  <fix>3d</fix>
</trkpt>
<trkpt lat="40.0728421" lon="-105.2305756">
  <ele>1589.49</ele>
  <time>2026-08-28T19:13:13Z</time>
  <course>29.88</course>
  <speed>0.01</speed>
  <fix>3d</fix>
</trkpt>
<trkpt lat="40.0728421" lon="-105.2305753">
  <ele>1589.36</ele>
  <time>2026-08-28T19:13:13Z</time>
  <course>11.33</course>
  <speed>0.02</speed>
  <fix>3d</fix>
</trkpt>
<trkpt lat="40.0728421" lon="-105.2305756">
  <ele>1589.38</ele>
  <time>2026-08-28T19:13:13Z</time>
  <course>31.14</course>
  <speed>0.01</speed>
  <fix>3d</fix>
</trkpt>
<trkpt lat="40.0728421" lon="-105.2305753">
  <ele>1589.27</ele>
  <time>2026-08-28T19:13:13Z</time>
  <course>11.33</course>
  <speed>0.02</speed>
  <fix>3d</fix>
</trkpt>
<trkpt lat="40.0728421" lon="-105.2305756">
  <ele>1589.29</ele>
  <time>2026-08-28T19:13:13Z</time>
  <course>33.21</course>
  <speed>0.01</speed>
  <fix>3d</fix>
</trkpt>
<trkpt lat="40.0728421" lon="-105.2305753">
  <ele>1589.16</ele>
  <time>2026-08-28T19:13:13Z</time>
  <course>11.33</course>
  <speed>0.02</speed>
  <fix>3d</fix>
</trkpt>
<trkpt lat="40.0728421" lon="-105.2305756">
  <ele>1589.19</ele>
  <time>2026-08-28T19:13:13Z</time>
  <course>34.15</course>
  <speed>0.01</speed>
  <fix>3d</fix>
</trkpt>
<trkpt lat="40.0728421" lon="-105.2305753">
  <ele>1589.06</ele>
  <time>2026-08-28T19:13:13Z</time>
  <course>11.33</course>
  <speed>0.02</speed>
  <fix>3d</fix>
</trkpt>
<trkpt lat="40.0728422" lon="-105.2305755">
  <ele>1589.09</ele>
  <time>2026-08-28T19:13:13Z</time>
  <course>34.34</course>
  <speed>0.01</speed>
  <fix>3d</fix>
</trkpt>
<trkpt lat="40.0728421" lon="-105.2305753">
  <ele>1588.95</ele>
  <time>2026-08-28T19:13:13Z</time>
  <course>11.32</course>
  <speed>0.02</speed>
  <fix>3d</fix>
</trkpt>
<trkpt lat="40.0728423" lon="-105.2305755">
  <ele>1588.98</ele>
  <time>2026-08-28T19:13:13Z</time>
  <course>34.8</course>
  <speed>0.01</speed>
  <fix>3d</fix>
</trkpt>
<trkpt lat="40.0728421" lon="-105.2305753">
  <ele>1588.85</ele>
  <time>2026-08-28T19:13:13Z</time>
  <course>11.31</course>
  <speed>0.02</speed>
  <fix>3d</fix>
</trkpt>
<trkpt lat="40.0728423" lon="-105.2305755">
  <ele>1588.88</ele>
  <time>2026-08-28T19:13:13Z</time>
  <course>35.73</course>
  <speed>0.01</speed>
  <fix>3d</fix>
</trkpt>
<trkpt lat="40.0728421" lon="-105.2305753">
  <ele>1588.75</ele>
  <time>2026-08-28T19:13:13Z</time>
  <course>11.32</course>
  <speed>0.02</speed>
  <fix>3d</fix>
</trkpt>
<trkpt lat="40.0728423" lon="-105.2305755">
  <ele>1588.78</ele>
  <time>2026-08-28T19:13:13Z</time>
  <course>36.08</course>
  <speed>0.01</speed>
  <fix>3d</fix>
</trkpt>
<trkpt lat="40.0728421" lon="-105.2305753">
  <ele>1588.65</ele>
  <time>2026-08-28T19:13:13Z</time>
  <course>11.32</course>
  <speed>0.022360679774997897</speed>
  <fix>3d</fix>
</trkpt>
<trkpt lat="40.0728423" lon="-105.2305755">
  <ele>1588.67</ele>
  <time>2026-08-28T19:13:13Z</time>
  <course>35.81</course>
  <speed>0.01</speed>
  <fix>3d</fix>
</trkpt>
<trkpt lat="40.0728422" lon="-105.2305753">
  <ele>1588.55</ele>
  <time>2026-08-28T19:13:13Z</time>
  <course>11.33</course>
  <speed>0.022360679774997897</speed>
  <fix>3d</fix>
</trkpt>
<trkpt lat="40.0728423" lon="-105.2305754">
  <ele>1588.58</ele>
  <time>2026-08-28T19:13:13Z</time>
  <course>37.39</course>
  <speed>0.01</speed>
  <fix>3d</fix>
</trkpt>
<trkpt lat="40.0728422" lon="-105.2305753">
  <ele>1588.46</ele>
  <time>2026-08-28T19:13:13Z</time>
  <course>11.35</course>
  <speed>0.022360679774997897</speed>
  <fix>3d</fix>
</trkpt>
<trkpt lat="40.0728424" lon="-105.2305753">
  <ele>1588.48</ele>
  <time>2026-08-28T19:13:13Z</time>
  <course>42.6</course>
  <speed>0.0</speed>
  <fix>3d</fix>
</trkpt>
<trkpt lat="40.0728422" lon="-105.2305752">
  <ele>1588.36</ele>
  <time>2026-08-28T19:13:13Z</time>
  <course>11.33</course>
  <speed>0.022360679774997897</speed>
  <fix>3d</fix>
</trkpt>
<trkpt lat="40.0728424" lon="-105.2305753">
  <ele>1588.38</ele>
  <time>2026-08-28T19:13:13Z</time>
  <course>51.93</course>
  <speed>0.0</speed>
  <fix>3d</fix>
</trkpt>
<trkpt lat="40.0728422" lon="-105.2305752">
  <ele>1588.26</ele>
  <time>2026-08-28T19:13:13Z</time>
  <course>11.33</course>
  <speed>0.022360679774997897</speed>
  <fix>3d</fix>
</trkpt>
<trkpt lat="40.0728424" lon="-105.2305753">
  <ele>1588.28</ele>
  <time>2026-08-28T19:13:13Z</time>
  <course>64.9</course>
  <speed>0.0</speed>
  <fix>3d</fix>
</trkpt>
<trkpt lat="40.0728422" lon="-105.2305752">
  <ele>1588.16</ele>
  <time>2026-08-28T19:13:13Z</time>
  <course>11.34</course>
  <speed>0.022360679774997897</speed>
  <fix>3d</fix>
</trkpt>
<trkpt lat="40.0728424" lon="-105.2305753">
  <ele>1588.17</ele>
  <time>2026-08-28T19:13:13Z</time>
  <course>80.53</course>
  <speed>0.0</speed>
  <fix>3d</fix>
</trkpt>
<trkpt lat="40.0728422" lon="-105.2305752">
  <ele>1588.06</ele>
  <time>2026-08-28T19:13:13Z</time>
  <course>11.36</course>
  <speed>0.01414213562373095</speed>
  <fix>3d</fix>
</trkpt>
<trkpt lat="40.0728424" lon="-105.2305753">
  <ele>1588.08</ele>
  <time>2026-08-28T19:13:13Z</time>
  <course>112.34</course>
  <speed>0.0</speed>
  <fix>3d</fix>
</trkpt>
<trkpt lat="40.0728422" lon="-105.2305752">
  <ele>1587.96</ele>
  <time>2026-08-28T19:13:13Z</time>
  <course>11.36</course>
  <speed>0.022360679774997897</speed>
  <fix>3d</fix>
</trkpt>
<trkpt lat="40.0728424" lon="-105.2305753">
  <ele>1587.98</ele>
  <time>2026-08-28T19:13:13Z</time>
  <course>157.01</course>
  <speed>0.0</speed>
  <fix>3d</fix>
</trkpt>
<trkpt lat="40.0728422" lon="-105.2305752">
  <ele>1587.85</ele>
  <time>2026-08-28T19:13:13Z</time>
  <course>11.35</course>
  <speed>0.022360679774997897</speed>
  <fix>3d</fix>
</trkpt>
<trkpt lat="40.0728424" lon="-105.2305753">
  <ele>1587.88</ele>
  <time>2026-08-28T19:13:13Z</time>
  <course>183.51</course>
  <speed>0.0</speed>
  <fix>3d</fix>
</trkpt>
<trkpt lat="40.0728422" lon="-105.2305752">
  <ele>1587.75</ele>
  <time>2026-08-28T19:13:13Z</time>
  <course>11.36</course>
  <speed>0.022360679774997897</speed>
  <fix>3d</fix>
</trkpt>
<trkpt lat="40.0728424" lon="-105.2305753">
  <ele>1587.77</ele>
  <time>2026-08-28T19:13:13Z</time>
  <course>195.3</course>
  <speed>0.0</speed>
  <fix>3d</fix>
</trkpt>
<trkpt lat="40.0728422" lon="-105.2305752">
  <ele>1587.65</ele>
  <time>2026-08-28T19:13:13Z</time>
  <course>11.33</course>
  <speed>0.022360679774997897</speed>
  <fix>3d</fix>
</trkpt>
<trkpt lat="40.0728424" lon="-105.2305753">
  <ele>1587.66</ele>
  <time>2026-08-28T19:13:13Z</time>
  <course>198.75</course>
  <speed>0.0</speed>
  <fix>3d</fix>
</trkpt>
<trkpt lat="40.0728422" lon="-105.2305752">
  <ele>1587.55</ele>
  <time>2026-08-28T19:13:13Z</time>
  <course>11.34</course>
  <speed>0.022360679774997897</speed>
  <fix>3d</fix>
</trkpt>
<trkpt lat="40.0728424" lon="-105.2305753">
  <ele>1587.57</ele>
  <time>2026-08-28T19:13:13Z</time>
  <course>200.58</course>
  <speed>0.0</speed>
  <fix>3d</fix>
</trkpt>
<trkpt lat="40.0728422" lon="-105.2305752">
  <ele>1587.45</ele>
  <time>2026-08-28T19:13:13Z</time>
  <course>11.35</course>
  <speed>0.022360679774997897</speed>
  <fix>3d</fix>
</trkpt>
<trkpt lat="40.0728424" lon="-105.2305753">
  <ele>1587.47</ele>
  <time>2026-08-28T19:13:13Z</time>
  <course>203.72</course>
  <speed>0.01</speed>
  <fix>3d</fix>
</trkpt>
<trkpt lat="40.0728422" lon="-105.2305752">
  <ele>1587.35</ele>
  <time>2026-08-28T19:13:13Z</time>
  <course>11.31</course>
  <speed>0.022360679774997897</speed>
  <fix>3d</fix>
</trkpt>
<trkpt lat="40.0728424" lon="-105.2305753">
  <ele>1587.37</ele>
  <time>2026-08-28T19:13:13Z</time>
  <course>205.55</course>
  <speed>0.01</speed>
  <fix>3d</fix>
</trkpt>
<trkpt lat="40.0728422" lon="-105.2305752">
  <ele>1587.24</ele>
  <time>2026-08-28T19:13:13Z</time>
  <course>11.31</course>
  <speed>0.022360679774997897</speed>
  <fix>3d</fix>
</trkpt>
<trkpt lat="40.0728424" lon="-105.2305753">
  <ele>1587.27</ele>
  <time>2026-08-28T19:13:13Z</time>
  <course>207.52</course>
  <speed>0.01</speed>
  <fix>3d</fix>
</trkpt>
<trkpt lat="40.0728422" lon="-105.2305752">
  <ele>1587.15</ele>
  <time>2026-08-28T19:13:13Z</time>
  <course>11.33</course>
  <speed>0.022360679774997897</speed>
  <fix>3d</fix>
</trkpt>
<trkpt lat="40.0728424" lon="-105.2305753">
  <ele>1587.17</ele>
  <time>2026-08-28T19:13:13Z</time>
  <course>210.54</course>
  <speed>0.01</speed>
  <fix>3d</fix>
</trkpt>
<trkpt lat="40.0728422" lon="-105.2305752">
  <ele>1587.05</ele>
  <time>2026-08-28T19:13:13Z</time>
  <course>11.36</course>
  <speed>0.022360679774997897</speed>
  <fix>3d</fix>
</trkpt>
<trkpt lat="40.0728423" lon="-105.2305753">
  <ele>1587.08</ele>
  <time>2026-08-28T19:13:13Z</time>
  <course>212.4</course>
  <speed>0.01</speed>
  <fix>3d</fix>
</trkpt>
<trkpt lat="40.0728422" lon="-105.2305752">
  <ele>1586.95</ele>
  <time>2026-08-28T19:13:13Z</time>
  <course>11.37</course>
  <speed>0.022360679774997897</speed>
  <fix>3d</fix>
</trkpt>
<trkpt lat="40.0728423" lon="-105.2305753">
  <ele>1586.98</ele>
  <time>2026-08-28T19:13:13Z</time>
  <course>212.76</course>
  <speed>0.01</speed>
  <fix>3d</fix>
</trkpt>
<trkpt lat="40.0728422" lon="-105.2305752">
  <ele>1586.85</ele>
  <time>2026-08-28T19:13:13Z</time>
  <course>11.36</course>
  <speed>0.022360679774997897</speed>
  <fix>3d</fix>
</trkpt>
<trkpt lat="40.0728423" lon="-105.2305753">
  <ele>1586.88</ele>
  <time>2026-08-28T19:13:13Z</time>
  <course>213.0</course>
  <speed>0.01</speed>
  <fix>3d</fix>
</trkpt>
<trkpt lat="40.0728422" lon="-105.2305752">
  <ele>1586.75</ele>
  <time>2026-08-28T19:13:13Z</time>
  <course>11.37</course>
  <speed>0.022360679774997897</speed>
  <fix>3d</fix>
</trkpt>
<trkpt lat="40.0728423" lon="-105.2305753">
  <ele>1586.78</ele>
  <time>2026-08-28T19:13:13Z</time>
  <course>214.88</course>
  <speed>0.01</speed>
  <fix>3d</fix>
</trkpt>
<trkpt lat="40.0728422" lon="-105.2305752">
  <ele>1586.66</ele>
  <time>2026-08-28T19:13:13Z</time>
  <course>11.35</course>
  <speed>0.022360679774997897</speed>
  <fix>3d</fix>
</trkpt>
<trkpt lat="40.0728423" lon="-105.2305753">
  <ele>1586.67</ele>
  <time>2026-08-28T19:13:13Z</time>
  <course>217.79</course>
  <speed>0.01</speed>
  <fix>3d</fix>
</trkpt>
<trkpt lat="40.0728422" lon="-105.2305752">
  <ele>1586.56</ele>
  <time>2026-08-28T19:13:13Z</time>
  <course>11.34</course>
  <speed>0.022360679774997897</speed>
  <fix>3d</fix>
</trkpt>
<trkpt lat="40.0728423" lon="-105.2305753">
  <ele>1586.58</ele>
  <time>2026-08-28T19:13:13Z</time>
  <course>220.72</course>
  <speed>0.01</speed>
  <fix>3d</fix>
</trkpt>
<trkpt lat="40.0728422" lon="-105.2305752">
  <ele>1586.45</ele>
  <time>2026-08-28T19:13:13Z</time>
  <course>11.35</course>
  <speed>0.01414213562373095</speed>
  <fix>3d</fix>
</trkpt>
<trkpt lat="40.0728422" lon="-105.2305754">
  <ele>1586.48</ele>
  <time>2026-08-28T19:13:13Z</time>
  <course>224.76</course>
  <speed>0.0</speed>
  <fix>3d</fix>
</trkpt>
<trkpt lat="40.0728422" lon="-105.2305752">
  <ele>1586.36</ele>
  <time>2026-08-28T19:13:13Z</time>
  <course>11.36</course>
  <speed>0.01414213562373095</speed>
  <fix>3d</fix>
</trkpt>
<trkpt lat="40.0728421" lon="-105.2305755">
  <ele>1586.38</ele>
  <time>2026-08-28T19:13:13Z</time>
  <course>228.38</course>
  <speed>0.0</speed>
  <fix>3d</fix>
</trkpt>
<trkpt lat="40.0728421" lon="-105.2305752">
  <ele>1586.26</ele>
  <time>2026-08-28T19:13:13Z</time>
  <course>11.36</course>
  <speed>0.01414213562373095</speed>
  <fix>3d</fix>
</trkpt>
<trkpt lat="40.0728421" lon="-105.2305755">
  <ele>1586.28</ele>
  <time>2026-08-28T19:13:13Z</time>
  <course>231.28</course>
  <speed>0.0</speed>
  <fix>3d</fix>
</trkpt>
<trkpt lat="40.0728421" lon="-105.2305752">
  <ele>1586.16</ele>
  <time>2026-08-28T19:13:13Z</time>
  <course>11.34</course>
  <speed>0.01</speed>
  <fix>3d</fix>
</trkpt>
<trkpt lat="40.0728421" lon="-105.2305755">
  <ele>1586.17</ele>
  <time>2026-08-28T19:13:13Z</time>
  <course>235.75</course>
  <speed>0.0</speed>
  <fix>3d</fix>
</trkpt>
<trkpt lat="40.0728421" lon="-105.2305753">
  <ele>1586.15</ele>
  <time>2026-08-28T19:13:13Z</time>
  <course>11.36</course>
  <speed>0.01414213562373095</speed>
  <fix>3d</fix>
</trkpt>
<trkpt lat="40.0728421" lon="-105.2305755">
  <ele>1586.1</ele>
  <time>2026-08-28T19:13:13Z</time>
  <course>272.73</course>
  <speed>0.01</speed>
  <fix>3d</fix>
</trkpt>
<trkpt lat="40.0728421" lon="-105.2305753">
  <ele>1586.17</ele>
  <time>2026-08-28T19:13:13Z</time>
  <course>11.42</course>
  <speed>0.022360679774997897</speed>
  <fix>3d</fix>
</trkpt>
<trkpt lat="40.0728421" lon="-105.2305755">
  <ele>1586.08</ele>
  <time>2026-08-28T19:13:13Z</time>
  <course>289.44</course>
  <speed>0.01</speed>
  <fix>3d</fix>
</trkpt>
<trkpt lat="40.0728421" lon="-105.2305753">
  <ele>1586.17</ele>
  <time>2026-08-28T19:13:13Z</time>
  <course>11.46</course>
  <speed>0.022360679774997897</speed>
  <fix>3d</fix>
</trkpt>
<trkpt lat="40.0728421" lon="-105.2305756">
  <ele>1586.09</ele>
  <time>2026-08-28T19:13:13Z</time>
  <course>56.54</course>
  <speed>0.0</speed>
  <fix>3d</fix>
</trkpt>
<trkpt lat="40.0728421" lon="-105.2305753">
  <ele>1586.17</ele>
  <time>2026-08-28T19:13:13Z</time>
  <course>11.48</course>
  <speed>0.01414213562373095</speed>
  <fix>3d</fix>
</trkpt>
<trkpt lat="40.0728421" lon="-105.2305756">
  <ele>1586.09</ele>
  <time>2026-08-28T19:13:13Z</time>
  <course>100.13</course>
  <speed>0.0</speed>
  <fix>3d</fix>
</trkpt>
<trkpt lat="40.0728421" lon="-105.2305753">
  <ele>1586.17</ele>
  <time>2026-08-28T19:13:13Z</time>
  <course>11.51</course>
  <speed>0.01414213562373095</speed>
  <fix>3d</fix>
</trkpt>
<trkpt lat="40.0728421" lon="-105.2305756">
  <ele>1586.09</ele>
  <time>2026-08-28T19:13:13Z</time>
  <course>309.15</course>
  <speed>0.0</speed>
  <fix>3d</fix>
</trkpt>
<trkpt lat="40.0728421" lon="-105.2305753">
  <ele>1586.16</ele>
  <time>2026-08-28T19:13:13Z</time>
  <course>11.53</course>
  <speed>0.01414213562373095</speed>
  <fix>3d</fix>
</trkpt>
<trkpt lat="40.0728421" lon="-105.2305756">
  <ele>1586.09</ele>
  <time>2026-08-28T19:13:13Z</time>
  <course>325.8</course>
  <speed>0.0</speed>
  <fix>3d</fix>
</trkpt>
<trkpt lat="40.0728421" lon="-105.2305753">
  <ele>1586.16</ele>
  <time>2026-08-28T19:13:13Z</time>
  <course>11.56</course>
  <speed>0.01414213562373095</speed>
  <fix>3d</fix>
</trkpt>
<trkpt lat="40.0728421" lon="-105.2305756">
  <ele>1586.09</ele>
  <time>2026-08-28T19:13:13Z</time>
  <course>340.25</course>
  <speed>0.0</speed>
  <fix>3d</fix>
</trkpt>
<trkpt lat="40.0728421" lon="-105.2305753">
  <ele>1586.16</ele>
  <time>2026-08-28T19:13:13Z</time>
  <course>11.58</course>
  <speed>0.01414213562373095</speed>
  <fix>3d</fix>
</trkpt>
<trkpt lat="40.0728421" lon="-105.2305756">
  <ele>1586.09</ele>
  <time>2026-08-28T19:13:13Z</time>
  <course>25.59</course>
  <speed>0.0</speed>
  <fix>3d</fix>
</trkpt>
<trkpt lat="40.0728421" lon="-105.2305753">
  <ele>1586.16</ele>
  <time>2026-08-28T19:13:13Z</time>
  <course>11.59</course>
  <speed>0.03605551275463989</speed>
  <fix>3d</fix>
</trkpt>
<trkpt lat="40.0728421" lon="-105.2305755">
  <ele>1586.09</ele>
  <time>2026-08-28T19:13:13Z</time>
  <course>98.93</course>
  <speed>0.0</speed>
  <fix>3d</fix>
</trkpt>
<trkpt lat="40.072842" lon="-105.2305753">
  <ele>1586.16</ele>
  <time>2026-08-28T19:13:13Z</time>
  <course>11.57</course>
  <speed>0.0282842712474619</speed>
  <fix>3d</fix>
</trkpt>
<trkpt lat="40.0728421" lon="-105.2305755">
  <ele>1586.09</ele>
  <time>2026-08-28T19:13:13Z</time>
  <course>103.28</course>
  <speed>0.01</speed>
  <fix>3d</fix>
</trkpt>
<trkpt lat="40.072842" lon="-105.2305753">
  <ele>1586.16</ele>
  <time>2026-08-28T19:13:13Z</time>
  <course>11.55</course>
  <speed>0.01414213562373095</speed>
  <fix>3d</fix>
</trkpt>
<trkpt lat="40.0728421" lon="-105.2305755">
  <ele>1586.09</ele>
  <time>2026-08-28T19:13:13Z</time>
  <course>109.95</course>
  <speed>0.0</speed>
  <fix>3d</fix>
</trkpt>
<trkpt lat="40.072842" lon="-105.2305753">
  <ele>1586.16</ele>
  <time>2026-08-28T19:13:13Z</time>
  <course>11.54</course>
  <speed>0.01414213562373095</speed>
  <fix>3d</fix>
</trkpt>
<trkpt lat="40.0728421" lon="-105.2305755">
  <ele>1586.09</ele>
  <time>2026-08-28T19:13:13Z</time>
  <course>243.78</course>
  <speed>0.0</speed>
  <fix>3d</fix>
</trkpt>
<trkpt lat="40.072842" lon="-105.2305753">
  <ele>1586.16</ele>
  <time>2026-08-28T19:13:13Z</time>
  <course>11.53</course>
  <speed>0.01414213562373095</speed>
  <fix>3d</fix>
</trkpt>
<trkpt lat="40.0728421" lon="-105.2305755">
  <ele>1586.09</ele>
  <time>2026-08-28T19:13:13Z</time>
  <course>254.88</course>
  <speed>0.0</speed>
  <fix>3d</fix>
</trkpt>
<trkpt lat="40.072842" lon="-105.2305753">
  <ele>1586.16</ele>
  <time>2026-08-28T19:13:13Z</time>
  <course>11.53</course>
  <speed>0.01414213562373095</speed>
  <fix>3d</fix>
</trkpt>
<trkpt lat="40.0728421" lon="-105.2305755">
  <ele>1586.09</ele>
  <time>2026-08-28T19:13:13Z</time>
  <course>233.82</course>
  <speed>0.0</speed>
  <fix>3d</fix>
</trkpt>
<trkpt lat="40.072842" lon="-105.2305753">
  <ele>1586.16</ele>
  <time>2026-08-28T19:13:13Z</time>
  <course>11.53</course>
  <speed>0.01414213562373095</speed>
  <fix>3d</fix>
</trkpt>
<trkpt lat="40.0728421" lon="-105.2305755">
  <ele>1586.09</ele>
  <time>2026-08-28T19:13:13Z</time>
  <course>229.0</course>
  <speed>0.0</speed>
  <fix>3d</fix>
</trkpt>
<trkpt lat="40.072842" lon="-105.2305753">
  <ele>1586.16</ele>
  <time>2026-08-28T19:13:13Z</time>
  <course>11.52</course>
  <speed>0.01414213562373095</speed>
  <fix>3d</fix>
</trkpt>
<trkpt lat="40.0728421" lon="-105.2305755">
  <ele>1586.09</ele>
  <time>2026-08-28T19:13:13Z</time>
  <course>237.19</course>
  <speed>0.0</speed>
  <fix>3d</fix>
</trkpt>
<trkpt lat="40.072842" lon="-105.2305753">
  <ele>1586.16</ele>
  <time>2026-08-28T19:13:13Z</time>
  <course>11.52</course>
  <speed>0.01414213562373095</speed>
  <fix>3d</fix>
</trkpt>
<trkpt lat="40.0728421" lon="-105.2305755">
  <ele>1586.09</ele>
  <time>2026-08-28T19:13:13Z</time>
  <course>244.52</course>
  <speed>0.0</speed>
  <fix>3d</fix>
</trkpt>
<trkpt lat="40.072842" lon="-105.2305753">
  <ele>1586.16</ele>
  <time>2026-08-28T19:13:13Z</time>
  <course>11.52</course>
  <speed>0.01414213562373095</speed>
  <fix>3d</fix>
</trkpt>
<trkpt lat="40.0728421" lon="-105.2305755">
  <ele>1586.09</ele>
  <time>2026-08-28T19:13:13Z</time>
  <course>152.33</course>
  <speed>0.0</speed>
  <fix>3d</fix>
</trkpt>
<trkpt lat="40.072842" lon="-105.2305753">
  <ele>1586.16</ele>
  <time>2026-08-28T19:13:13Z</time>
  <course>11.52</course>
  <speed>0.01414213562373095</speed>
  <fix>3d</fix>
</trkpt>
<trkpt lat="40.0728421" lon="-105.2305755">
  <ele>1586.09</ele>
  <time>2026-08-28T19:13:13Z</time>
  <course>315.34</course>
  <speed>0.0</speed>
  <fix>3d</fix>
</trkpt>
<trkpt lat="40.072842" lon="-105.2305753">
  <ele>1586.16</ele>
  <time>2026-08-28T19:13:13Z</time>
  <course>11.52</course>
  <speed>0.01414213562373095</speed>
  <fix>3d</fix>
</trkpt>
<trkpt lat="40.0728421" lon="-105.2305755">
  <ele>1586.09</ele>
  <time>2026-08-28T19:13:13Z</time>
  <course>285.27</course>
  <speed>0.0</speed>
  <fix>3d</fix>
</trkpt>
<trkpt lat="40.072842" lon="-105.2305753">
  <ele>1586.16</ele>
  <time>2026-08-28T19:13:13Z</time>
  <course>11.51</course>
  <speed>0.01414213562373095</speed>
  <fix>3d</fix>
</trkpt>
<trkpt lat="40.0728421" lon="-105.2305755">
  <ele>1586.09</ele>
  <time>2026-08-28T19:13:13Z</time>
  <course>281.61</course>
  <speed>0.0</speed>
  <fix>3d</fix>
</trkpt>
<trkpt lat="40.072842" lon="-105.2305753">
  <ele>1586.16</ele>
  <time>2026-08-28T19:13:13Z</time>
  <course>11.51</course>
  <speed>0.01414213562373095</speed>
  <fix>3d</fix>
</trkpt>
<trkpt lat="40.0728421" lon="-105.2305755">
  <ele>1586.09</ele>
  <time>2026-08-28T19:13:13Z</time>
  <course>288.03</course>
  <speed>0.0</speed>
  <fix>3d</fix>
</trkpt>
<trkpt lat="40.072842" lon="-105.2305753">
  <ele>1586.16</ele>
  <time>2026-08-28T19:13:13Z</time>
  <course>11.51</course>
  <speed>0.01414213562373095</speed>
  <fix>3d</fix>
</trkpt>
<trkpt lat="40.0728421" lon="-105.2305755">
  <ele>1586.09</ele>
  <time>2026-08-28T19:13:13Z</time>
  <course>288.4</course>
  <speed>0.0</speed>
  <fix>3d</fix>
</trkpt>
<trkpt lat="40.072842" lon="-105.2305753">
  <ele>1586.16</ele>
  <time>2026-08-28T19:13:13Z</time>
  <course>11.51</course>
  <speed>0.01414213562373095</speed>
  <fix>3d</fix>
</trkpt>
<trkpt lat="40.0728421" lon="-105.2305755">
  <ele>1586.09</ele>
  <time>2026-08-28T19:13:13Z</time>
  <course>288.1</course>
  <speed>0.0</speed>
  <fix>3d</fix>
</trkpt>
<trkpt lat="40.072842" lon="-105.2305753">
  <ele>1586.16</ele>
  <time>2026-08-28T19:13:13Z</time>
  <course>11.51</course>
  <speed>0.01414213562373095</speed>
  <fix>3d</fix>
</trkpt>
<trkpt lat="40.0728421" lon="-105.2305755">
  <ele>1586.09</ele>
  <time>2026-08-28T19:13:13Z</time>
  <course>284.74</course>
  <speed>0.0</speed>
  <fix>3d</fix>
</trkpt>
<trkpt lat="40.072842" lon="-105.2305753">
  <ele>1586.16</ele>
  <time>2026-08-28T19:13:13Z</time>
  <course>11.5</course>
  <speed>0.01414213562373095</speed>
  <fix>3d</fix>
</trkpt>
<trkpt lat="40.0728421" lon="-105.2305755">
  <ele>1586.09</ele>
  <time>2026-08-28T19:13:13Z</time>
  <course>282.14</course>
  <speed>0.0</speed>
  <fix>3d</fix>
</trkpt>
<trkpt lat="40.072842" lon="-105.2305753">
  <ele>1586.16</ele>
  <time>2026-08-28T19:13:13Z</time>
  <course>11.5</course>
  <speed>0.01414213562373095</speed>
  <fix>3d</fix>
</trkpt>
<trkpt lat="40.0728421" lon="-105.2305755">
  <ele>1586.09</ele>
  <time>2026-08-28T19:13:13Z</time>
  <course>282.46</course>
  <speed>0.0</speed>
  <fix>3d</fix>
</trkpt>
<trkpt lat="40.072842" lon="-105.2305753">
  <ele>1586.16</ele>
  <time>2026-08-28T19:13:13Z</time>
  <course>11.5</course>
  <speed>0.01414213562373095</speed>
  <fix>3d</fix>
</trkpt>
<trkpt lat="40.0728421" lon="-105.2305755">
  <ele>1586.09</ele>
  <time>2026-08-28T19:13:13Z</time>
  <course>292.8</course>
  <speed>0.0</speed>
  <fix>3d</fix>
</trkpt>
<trkpt lat="40.072842" lon="-105.2305753">
  <ele>1586.16</ele>
  <time>2026-08-28T19:13:13Z</time>
  <course>11.5</course>
  <speed>0.01414213562373095</speed>
  <fix>3d</fix>
</trkpt>
<trkpt lat="40.0728421" lon="-105.2305755">
  <ele>1586.09</ele>
  <time>2026-08-28T19:13:13Z</time>
  <course>331.79</course>
  <speed>0.0</speed>
  <fix>3d</fix>
</trkpt>
<trkpt lat="40.072842" lon="-105.2305753">
  <ele>1586.16</ele>
  <time>2026-08-28T19:13:13Z</time>
  <course>11.5</course>
  <speed>0.01414213562373095</speed>
  <fix>3d</fix>
</trkpt>
<trkpt lat="40.0728421" lon="-105.2305755">
  <ele>1586.09</ele>
  <time>2026-08-28T19:13:13Z</time>
  <course>295.28</course>
  <speed>0.0</speed>
  <fix>3d</fix>
</trkpt>
<trkpt lat="40.072842" lon="-105.2305753">
  <ele>1586.16</ele>
  <time>2026-08-28T19:13:13Z</time>
  <course>11.49</course>
  <speed>0.01414213562373095</speed>
  <fix>3d</fix>
</trkpt>
<trkpt lat="40.0728421" lon="-105.2305755">
  <ele>1586.09</ele>
  <time>2026-08-28T19:13:13Z</time>
  <course>294.73</course>
  <speed>0.0</speed>
  <fix>3d</fix>
</trkpt>
<trkpt lat="40.072842" lon="-105.2305753">
  <ele>1586.16</ele>
  <time>2026-08-28T19:13:13Z</time>
  <course>11.49</course>
  <speed>0.01414213562373095</speed>
  <fix>3d</fix>
</trkpt>
<trkpt lat="40.0728421" lon="-105.2305755">
  <ele>1586.09</ele>
  <time>2026-08-28T19:13:13Z</time>
  <course>296.39</course>
  <speed>0.0</speed>
  <fix>3d</fix>
</trkpt>
<trkpt lat="40.072842" lon="-105.2305753">
  <ele>1586.17</ele>
  <time>2026-08-28T19:13:13Z</time>
  <course>11.49</course>
  <speed>0.01414213562373095</speed>
  <fix>3d</fix>
</trkpt>
<trkpt lat="40.0728421" lon="-105.2305755">
  <ele>1586.09</ele>
  <time>2026-08-28T19:13:13Z</time>
  <course>296.26</course>
  <speed>0.0</speed>
  <fix>3d</fix>
</trkpt>
<trkpt lat="40.072842" lon="-105.2305753">
  <ele>1586.17</ele>
  <time>2026-08-28T19:13:13Z</time>
  <course>11.49</course>
  <speed>0.01414213562373095</speed>
  <fix>3d</fix>
</trkpt>
<trkpt lat="40.0728421" lon="-105.2305755">
  <ele>1586.09</ele>
  <time>2026-08-28T19:13:13Z</time>
  <course>296.03</course>
  <speed>0.0</speed>
  <fix>3d</fix>
</trkpt>
<trkpt lat="40.072842" lon="-105.2305753">
  <ele>1586.17</ele>
  <time>2026-08-28T19:13:13Z</time>
  <course>11.49</course>
  <speed>0.01414213562373095</speed>
  <fix>3d</fix>
</trkpt>
<trkpt lat="40.0728421" lon="-105.2305755">
  <ele>1586.09</ele>
  <time>2026-08-28T19:13:13Z</time>
  <course>296.08</course>
  <speed>0.0</speed>
  <fix>3d</fix>
</trkpt>
<trkpt lat="40.072842" lon="-105.2305753">
  <ele>1586.17</ele>
  <time>2026-08-28T19:13:13Z</time>
  <course>11.48</course>
  <speed>0.01414213562373095</speed>
  <fix>3d</fix>
</trkpt>
<trkpt lat="40.0728421" lon="-105.2305755">
  <ele>1586.09</ele>
  <time>2026-08-28T19:13:13Z</time>
  <course>296.1</course>
  <speed>0.0</speed>
  <fix>3d</fix>
</trkpt>
<trkpt lat="40.072842" lon="-105.2305753">
  <ele>1586.18</ele>
  <time>2026-08-28T19:13:13Z</time>
  <course>11.48</course>
  <speed>0.01414213562373095</speed>
  <fix>3d</fix>
</trkpt>
<trkpt lat="40.0728421" lon="-105.2305755">
  <ele>1586.09</ele>
  <time>2026-08-28T19:13:13Z</time>
  <course>296.09</course>
  <speed>0.0</speed>
  <fix>3d</fix>
</trkpt>
<trkpt lat="40.072842" lon="-105.2305753">
  <ele>1586.18</ele>
  <time>2026-08-28T19:13:13Z</time>
  <course>11.48</course>
  <speed>0.01414213562373095</speed>
  <fix>3d</fix>
</trkpt>
<trkpt lat="40.0728421" lon="-105.2305755">
  <ele>1586.09</ele>
  <time>2026-08-28T19:13:13Z</time>
  <course>296.09</course>
  <speed>0.0</speed>
  <fix>3d</fix>
</trkpt>
<trkpt lat="40.072842" lon="-105.2305753">
  <ele>1586.18</ele>
  <time>2026-08-28T19:13:13Z</time>
  <course>11.48</course>
  <speed>0.01414213562373095</speed>
  <fix>3d</fix>
</trkpt>
<trkpt lat="40.0728421" lon="-105.2305755">
  <ele>1586.09</ele>
  <time>2026-08-28T19:13:13Z</time>
  <course>296.09</course>
  <speed>0.0</speed>
  <fix>3d</fix>
</trkpt>
<trkpt lat="40.072842" lon="-105.2305753">
  <ele>1586.18</ele>
  <time>2026-08-28T19:13:13Z</time>
  <course>11.48</course>
  <speed>0.01414213562373095</speed>
  <fix>3d</fix>
</trkpt>
<trkpt lat="40.0728421" lon="-105.2305755">
  <ele>1586.09</ele>
  <time>2026-08-28T19:13:13Z</time>
  <course>296.09</course>
  <speed>0.0</speed>
  <fix>3d</fix>
</trkpt>
<trkpt lat="40.072842" lon="-105.2305753">
  <ele>1586.18</ele>
  <time>2026-08-28T19:13:13Z</time>
  <course>11.47</course>
  <speed>0.01414213562373095</speed>
  <fix>3d</fix>
</trkpt>
<trkpt lat="40.0728421" lon="-105.2305755">
  <ele>1586.09</ele>
  <time>2026-08-28T19:13:13Z</time>
  <course>296.09</course>
  <speed>0.0</speed>
  <fix>3d</fix>
</trkpt>
<trkpt lat="40.072842" lon="-105.2305753">
  <ele>1586.18</ele>
  <time>2026-08-28T19:13:13Z</time>
  <course>11.47</course>
  <speed>0.01414213562373095</speed>
  <fix>3d</fix>
</trkpt>
<trkpt lat="40.0728421" lon="-105.2305755">
  <ele>1586.09</ele>
  <time>2026-08-28T19:13:13Z</time>
  <course>296.09</course>
  <speed>0.0</speed>
  <fix>3d</fix>
</trkpt>
<trkpt lat="40.072842" lon="-105.2305753">
  <ele>1586.19</ele>
  <time>2026-08-28T19:13:13Z</time>
  <course>11.47</course>
  <speed>0.01414213562373095</speed>
  <fix>3d</fix>
</trkpt>
<trkpt lat="40.0728421" lon="-105.2305755">
  <ele>1586.09</ele>
  <time>2026-08-28T19:13:13Z</time>
  <course>296.09</course>
  <speed>0.0</speed>
  <fix>3d</fix>
</trkpt>
<trkpt lat="40.072842" lon="-105.2305753">
  <ele>1586.19</ele>
  <time>2026-08-28T19:13:13Z</time>
  <course>11.47</course>
  <speed>0.01414213562373095</speed>
  <fix>3d</fix>
</trkpt>
<trkpt lat="40.0728421" lon="-105.2305755">
  <ele>1586.09</ele>
  <time>2026-08-28T19:13:13Z</time>
  <course>296.09</course>
  <speed>0.0</speed>
  <fix>3d</fix>
</trkpt>
<trkpt lat="40.072842" lon="-105.2305753">
  <ele>1586.19</ele>
  <time>2026-08-28T19:13:13Z</time>
  <course>11.47</course>
  <speed>0.01414213562373095</speed>
  <fix>3d</fix>
</trkpt>
<trkpt lat="40.0728421" lon="-105.2305755">
  <ele>1586.09</ele>
  <time>2026-08-28T19:13:13Z</time>
  <course>296.09</course>
  <speed>0.0</speed>
  <fix>3d</fix>
</trkpt>
<trkpt lat="40.072842" lon="-105.2305753">
  <ele>1586.19</ele>
  <time>2026-08-28T19:13:13Z</time>
  <course>11.46</course>
  <speed>0.01414213562373095</speed>
  <fix>3d</fix>
</trkpt>
<trkpt lat="40.0728421" lon="-105.2305755">
  <ele>1586.09</ele>
  <time>2026-08-28T19:13:13Z</time>
  <course>296.09</course>
  <speed>0.0</speed>
  <fix>3d</fix>
</trkpt>
<trkpt lat="40.072842" lon="-105.2305753">
  <ele>1586.19</ele>
  <time>2026-08-28T19:13:13Z</time>
  <course>11.46</course>
  <speed>0.01414213562373095</speed>
  <fix>3d</fix>
</trkpt>
<trkpt lat="40.0728421" lon="-105.2305755">
  <ele>1586.09</ele>
  <time>2026-08-28T19:13:13Z</time>
  <course>296.09</course>
  <speed>0.0</speed>
  <fix>3d</fix>
</trkpt>
<trkpt lat="40.072842" lon="-105.2305753">
  <ele>1586.19</ele>
  <time>2026-08-28T19:13:13Z</time>
  <course>11.46</course>
  <speed>0.01414213562373095</speed>
  <fix>3d</fix>
</trkpt>
<trkpt lat="40.0728421" lon="-105.2305755">
  <ele>1586.09</ele>
  <time>2026-08-28T19:13:13Z</time>
  <course>296.09</course>
  <speed>0.0</speed>
  <fix>3d</fix>
</trkpt>
<trkpt lat="40.072842" lon="-105.2305753">
  <ele>1586.19</ele>
  <time>2026-08-28T19:13:14Z</time>
  <course>11.46</course>
  <speed>0.01414213562373095</speed>
  <fix>3d</fix>
</trkpt>
<trkpt lat="40.0728421" lon="-105.2305755">
  <ele>1586.09</ele>
  <time>2026-08-28T19:13:14Z</time>
  <course>296.1</course>
  <speed>0.0</speed>
  <fix>3d</fix>
</trkpt>
<trkpt lat="40.072842" lon="-105.2305753">
  <ele>1586.19</ele>
  <time>2026-08-28T19:13:14Z</time>
  <course>11.46</course>
  <speed>0.01414213562373095</speed>
  <fix>3d</fix>
</trkpt>
<trkpt lat="40.0728421" lon="-105.2305755">
  <ele>1586.09</ele>
  <time>2026-08-28T19:13:14Z</time>
  <course>296.1</course>
  <speed>0.0</speed>
  <fix>3d</fix>
</trkpt>
<trkpt lat="40.072842" lon="-105.2305753">
  <ele>1586.19</ele>
  <time>2026-08-28T19:13:14Z</time>
  <course>11.45</course>
  <speed>0.01414213562373095</speed>
  <fix>3d</fix>
</trkpt>
<trkpt lat="40.0728421" lon="-105.2305755">
  <ele>1586.09</ele>
  <time>2026-08-28T19:13:14Z</time>
  <course>296.1</course>
  <speed>0.0</speed>
  <fix>3d</fix>
</trkpt>
<trkpt lat="40.072842" lon="-105.2305753">
  <ele>1586.19</ele>
  <time>2026-08-28T19:13:14Z</time>
  <course>11.45</course>
  <speed>0.01414213562373095</speed>
  <fix>3d</fix>
</trkpt>
<trkpt lat="40.0728421" lon="-105.2305755">
  <ele>1586.09</ele>
  <time>2026-08-28T19:13:14Z</time>
  <course>296.1</course>
  <speed>0.0</speed>
  <fix>3d</fix>
</trkpt>
<trkpt lat="40.072842" lon="-105.2305753">
  <ele>1586.19</ele>
  <time>2026-08-28T19:13:14Z</time>
  <course>11.45</course>
  <speed>0.01414213562373095</speed>
  <fix>3d</fix>
</trkpt>
<trkpt lat="40.0728421" lon="-105.2305755">
  <ele>1586.09</ele>
  <time>2026-08-28T19:13:14Z</time>
  <course>296.1</course>
  <speed>0.0</speed>
  <fix>3d</fix>
</trkpt>
<trkpt lat="40.072842" lon="-105.2305753">
  <ele>1586.19</ele>
  <time>2026-08-28T19:13:14Z</time>
  <course>11.45</course>
  <speed>0.01414213562373095</speed>
  <fix>3d</fix>
</trkpt>
<trkpt lat="40.0728421" lon="-105.2305755">
  <ele>1586.09</ele>
  <time>2026-08-28T19:13:14Z</time>
  <course>296.1</course>
  <speed>0.0</speed>
  <fix>3d</fix>
</trkpt>
<trkpt lat="40.072842" lon="-105.2305753">
  <ele>1586.19</ele>
  <time>2026-08-28T19:13:14Z</time>
  <course>11.45</course>
  <speed>0.01414213562373095</speed>
  <fix>3d</fix>
</trkpt>
<trkpt lat="40.0728421" lon="-105.2305755">
  <ele>1586.09</ele>
  <time>2026-08-28T19:13:14Z</time>
  <course>296.1</course>
  <speed>0.0</speed>
  <fix>3d</fix>
</trkpt>
<trkpt lat="40.072842" lon="-105.2305753">
  <ele>1586.19</ele>
  <time>2026-08-28T19:13:14Z</time>
  <course>11.44</course>
  <speed>0.01414213562373095</speed>
  <fix>3d</fix>
</trkpt>
<trkpt lat="40.0728421" lon="-105.2305755">
  <ele>1586.09</ele>
  <time>2026-08-28T19:13:14Z</time>
  <course>296.09</course>
  <speed>0.0</speed>
  <fix>3d</fix>
</trkpt>
<trkpt lat="40.072842" lon="-105.2305753">
  <ele>1586.19</ele>
  <time>2026-08-28T19:13:14Z</time>
  <course>11.44</course>
  <speed>0.01414213562373095</speed>
  <fix>3d</fix>
</trkpt>
<trkpt lat="40.0728421" lon="-105.2305755">
  <ele>1586.09</ele>
  <time>2026-08-28T19:13:14Z</time>
  <course>296.09</course>
  <speed>0.0</speed>
  <fix>3d</fix>
</trkpt>
<trkpt lat="40.072842" lon="-105.2305753">
  <ele>1586.19</ele>
  <time>2026-08-28T19:13:14Z</time>
  <course>11.45</course>
  <speed>0.01414213562373095</speed>
  <fix>3d</fix>
</trkpt>
<trkpt lat="40.0728421" lon="-105.2305755">
  <ele>1586.09</ele>
  <time>2026-08-28T19:13:14Z</time>
  <course>296.09</course>
  <speed>0.0</speed>
  <fix>3d</fix>
</trkpt>
<trkpt lat="40.072842" lon="-105.2305753">
  <ele>1586.19</ele>
  <time>2026-08-28T19:13:14Z</time>
  <course>11.49</course>
  <speed>0.01414213562373095</speed>
  <fix>3d</fix>
</trkpt>
<trkpt lat="40.0728421" lon="-105.2305755">
  <ele>1586.09</ele>
  <time>2026-08-28T19:13:14Z</time>
  <course>296.09</course>
  <speed>0.0</speed>
  <fix>3d</fix>
</trkpt>
<trkpt lat="40.072842" lon="-105.2305753">
  <ele>1586.2</ele>
  <time>2026-08-28T19:13:14Z</time>
  <course>11.53</course>
  <speed>0.01414213562373095</speed>
  <fix>3d</fix>
</trkpt>
<trkpt lat="40.0728421" lon="-105.2305755">
  <ele>1586.09</ele>
  <time>2026-08-28T19:13:14Z</time>
  <course>296.09</course>
  <speed>0.0</speed>
  <fix>3d</fix>
</trkpt>
<trkpt lat="40.072842" lon="-105.2305753">
  <ele>1586.21</ele>
  <time>2026-08-28T19:13:14Z</time>
  <course>11.57</course>
  <speed>0.01414213562373095</speed>
  <fix>3d</fix>
</trkpt>
<trkpt lat="40.0728421" lon="-105.2305755">
  <ele>1586.09</ele>
  <time>2026-08-28T19:13:14Z</time>
  <course>296.09</course>
  <speed>0.0</speed>
  <fix>3d</fix>
</trkpt>
<trkpt lat="40.072842" lon="-105.2305753">
  <ele>1586.21</ele>
  <time>2026-08-28T19:13:14Z</time>
  <course>11.61</course>
  <speed>0.01414213562373095</speed>
  <fix>3d</fix>
</trkpt>
<trkpt lat="40.0728421" lon="-105.2305755">
  <ele>1586.09</ele>
  <time>2026-08-28T19:13:14Z</time>
  <course>296.09</course>
  <speed>0.0</speed>
  <fix>3d</fix>
</trkpt>
<trkpt lat="40.072842" lon="-105.2305753">
  <ele>1586.22</ele>
  <time>2026-08-28T19:13:14Z</time>
  <course>11.65</course>
  <speed>0.01414213562373095</speed>
  <fix>3d</fix>
</trkpt>
<trkpt lat="40.0728421" lon="-105.2305755">
  <ele>1586.09</ele>
  <time>2026-08-28T19:13:14Z</time>
  <course>310.7</course>
  <speed>0.0</speed>
  <fix>3d</fix>
</trkpt>
<trkpt lat="40.072842" lon="-105.2305753">
  <ele>1586.22</ele>
  <time>2026-08-28T19:13:14Z</time>
  <course>11.69</course>
  <speed>0.01414213562373095</speed>
  <fix>3d</fix>
</trkpt>
<trkpt lat="40.0728421" lon="-105.2305755">
  <ele>1586.09</ele>
  <time>2026-08-28T19:13:14Z</time>
  <course>275.2</course>
  <speed>0.0</speed>
  <fix>3d</fix>
</trkpt>
<trkpt lat="40.072842" lon="-105.2305753">
  <ele>1586.21</ele>
  <time>2026-08-28T19:13:14Z</time>
  <course>11.73</course>
  <speed>0.01414213562373095</speed>
  <fix>3d</fix>
</trkpt>
<trkpt lat="40.0728421" lon="-105.2305755">
  <ele>1586.09</ele>
  <time>2026-08-28T19:13:14Z</time>
  <course>263.21</course>
  <speed>0.0</speed>
  <fix>3d</fix>
</trkpt>
<trkpt lat="40.072842" lon="-105.2305753">
  <ele>1586.2</ele>
  <time>2026-08-28T19:13:14Z</time>
  <course>11.77</course>
  <speed>0.01414213562373095</speed>
  <fix>3d</fix>
</trkpt>
<trkpt lat="40.0728421" lon="-105.2305755">
  <ele>1586.09</ele>
  <time>2026-08-28T19:13:14Z</time>
  <course>357.56</course>
  <speed>0.0</speed>
  <fix>3d</fix>
</trkpt>
<trkpt lat="40.072842" lon="-105.2305753">
  <ele>1586.2</ele>
  <time>2026-08-28T19:13:14Z</time>
  <course>11.81</course>
  <speed>0.01414213562373095</speed>
  <fix>3d</fix>
</trkpt>
<trkpt lat="40.0728421" lon="-105.2305755">
  <ele>1586.09</ele>
  <time>2026-08-28T19:13:14Z</time>
  <course>339.23</course>
  <speed>0.0</speed>
  <fix>3d</fix>
</trkpt>
<trkpt lat="40.072842" lon="-105.2305753">
  <ele>1586.19</ele>
  <time>2026-08-28T19:13:14Z</time>
  <course>11.85</course>
  <speed>0.01414213562373095</speed>
  <fix>3d</fix>
</trkpt>
<trkpt lat="40.0728421" lon="-105.2305755">
  <ele>1586.09</ele>
  <time>2026-08-28T19:13:14Z</time>
  <course>282.21</course>
  <speed>0.0</speed>
  <fix>3d</fix>
</trkpt>
<trkpt lat="40.072842" lon="-105.2305753">
  <ele>1586.19</ele>
  <time>2026-08-28T19:13:14Z</time>
  <course>11.89</course>
  <speed>0.01414213562373095</speed>
  <fix>3d</fix>
</trkpt>
<trkpt lat="40.0728421" lon="-105.2305755">
  <ele>1586.09</ele>
  <time>2026-08-28T19:13:14Z</time>
  <course>196.27</course>
  <speed>0.0</speed>
  <fix>3d</fix>
</trkpt>
<trkpt lat="40.072842" lon="-105.2305753">
  <ele>1586.19</ele>
  <time>2026-08-28T19:13:14Z</time>
  <course>11.93</course>
  <speed>0.01414213562373095</speed>
  <fix>3d</fix>
</trkpt>
<trkpt lat="40.0728421" lon="-105.2305755">
  <ele>1586.09</ele>
  <time>2026-08-28T19:13:14Z</time>
  <course>311.92</course>
  <speed>0.0</speed>
  <fix>3d</fix>
</trkpt>
<trkpt lat="39.654938" lon="-104.1331666">
  <ele>1569.54</ele>
  <time>2026-08-28T19:13:16Z</time>
  <course>168.11</course>
  <speed>0.0</speed>
  <fix>3d</fix>
</trkpt>
<trkpt lat="40.072842" lon="-105.230575">
  <ele>1586.09</ele>
  <time>2026-08-28T19:13:16Z</time>
  <course>2.03</course>
  <speed>0.0</speed>
  <fix>3d</fix>
</trkpt>
<trkpt lat="40.072842" lon="-105.230575">
  <ele>1586.09</ele>
  <time>2026-08-28T19:13:16Z</time>
  <course>238.4</course>
  <speed>0.0</speed>
  <fix>3d</fix>
</trkpt>
<trkpt lat="40.072842" lon="-105.230575">
  <ele>1586.09</ele>
  <time>2026-08-28T19:13:16Z</time>
  <course>2.43</course>
  <speed>0.0</speed>
  <fix>3d</fix>
</trkpt>
<trkpt lat="40.072842" lon="-105.230575">
  <ele>1586.09</ele>
  <time>2026-08-28T19:13:16Z</time>
  <course>194.29</course>
  <speed>0.0</speed>
  <fix>3d</fix>
</trkpt>
<trkpt lat="40.072842" lon="-105.230575">
  <ele>1586.09</ele>
  <time>2026-08-28T19:13:16Z</time>
  <course>3.16</course>
  <speed>0.0</speed>
  <fix>3d</fix>
</trkpt>
<trkpt lat="40.072842" lon="-105.230575">
  <ele>1586.09</ele>
  <time>2026-08-28T19:13:16Z</time>
  <course>193.66</course>
  <speed>0.0</speed>
  <fix>3d</fix>
</trkpt>
<trkpt lat="40.072842" lon="-105.230575">
  <ele>1586.09</ele>
  <time>2026-08-28T19:13:16Z</time>
  <course>3.85</course>
  <speed>0.0</speed>
  <fix>3d</fix>
</trkpt>
<trkpt lat="40.072842" lon="-105.230575">
  <ele>1586.09</ele>
  <time>2026-08-28T19:13:16Z</time>
  <course>303.54</course>
  <speed>0.0</speed>
  <fix>3d</fix>
</trkpt>
<trkpt lat="40.072842" lon="-105.230575">
  <ele>1586.09</ele>
  <time>2026-08-28T19:13:16Z</time>
  <course>4.47</course>
  <speed>0.0</speed>
  <fix>3d</fix>
</trkpt>
<trkpt lat="40.072842" lon="-105.230575">
  <ele>1586.09</ele>
  <time>2026-08-28T19:13:16Z</time>
  <course>110.94</course>
  <speed>0.0</speed>
  <fix>3d</fix>
</trkpt>
<trkpt lat="40.072842" lon="-105.230575">
  <ele>1586.09</ele>
  <time>2026-08-28T19:13:16Z</time>
  <course>5.06</course>
  <speed>0.0</speed>
  <fix>3d</fix>
</trkpt>
<trkpt lat="40.072842" lon="-105.230575">
  <ele>1586.09</ele>
  <time>2026-08-28T19:13:16Z</time>
  <course>191.21</course>
  <speed>0.0</speed>
  <fix>3d</fix>
</trkpt>
<trkpt lat="40.072842" lon="-105.230575">
  <ele>1586.09</ele>
  <time>2026-08-28T19:13:16Z</time>
  <course>5.62</course>
  <speed>0.0</speed>
  <fix>3d</fix>
</trkpt>
<trkpt lat="40.072842" lon="-105.230575">
  <ele>1586.09</ele>
  <time>2026-08-28T19:13:16Z</time>
  <course>252.23</course>
  <speed>0.0</speed>
  <fix>3d</fix>
</trkpt>
<trkpt lat="40.072842" lon="-105.230575">
  <ele>1586.09</ele>
  <time>2026-08-28T19:13:16Z</time>
  <course>6.14</course>
  <speed>0.0</speed>
  <fix>3d</fix>
</trkpt>
<trkpt lat="40.072842" lon="-105.230575">
  <ele>1586.09</ele>
  <time>2026-08-28T19:13:16Z</time>
  <course>170.36</course>
  <speed>0.0</speed>
  <fix>3d</fix>
</trkpt>
<trkpt lat="40.072842" lon="-105.230575">
  <ele>1586.09</ele>
  <time>2026-08-28T19:13:16Z</time>
  <course>6.64</course>
  <speed>0.0</speed>
  <fix>3d</fix>
</trkpt>
<trkpt lat="40.072842" lon="-105.230575">
  <ele>1586.09</ele>
  <time>2026-08-28T19:13:16Z</time>
  <course>179.36</course>
  <speed>0.0</speed>
  <fix>3d</fix>
</trkpt>
<trkpt lat="40.072842" lon="-105.230575">
  <ele>1586.09</ele>
  <time>2026-08-28T19:13:16Z</time>
  <course>7.1</course>
  <speed>0.0</speed>
  <fix>3d</fix>
</trkpt>
<trkpt lat="40.072842" lon="-105.230575">
  <ele>1586.09</ele>
  <time>2026-08-28T19:13:16Z</time>
  <course>19.98</course>
  <speed>0.0</speed>
  <fix>3d</fix>
</trkpt>
<trkpt lat="40.072842" lon="-105.230575">
  <ele>1586.09</ele>
  <time>2026-08-28T19:13:16Z</time>
  <course>7.53</course>
  <speed>0.0</speed>
  <fix>3d</fix>
</trkpt>
<trkpt lat="40.072842" lon="-105.230575">
  <ele>1586.09</ele>
  <time>2026-08-28T19:13:16Z</time>
  <course>17.49</course>
  <speed>0.0</speed>
  <fix>3d</fix>
</trkpt>
<trkpt lat="40.072842" lon="-105.230575">
  <ele>1586.09</ele>
  <time>2026-08-28T19:13:16Z</time>
  <course>7.92</course>
  <speed>0.0</speed>
  <fix>3d</fix>
</trkpt>
<trkpt lat="40.072842" lon="-105.230575">
  <ele>1586.09</ele>
  <time>2026-08-28T19:13:16Z</time>
  <course>356.19</course>
  <speed>0.0</speed>
  <fix>3d</fix>
</trkpt>
<trkpt lat="40.072842" lon="-105.230575">
  <ele>1586.09</ele>
  <time>2026-08-28T19:13:16Z</time>
  <course>8.29</course>
  <speed>0.0</speed>
  <fix>3d</fix>
</trkpt>
<trkpt lat="40.072842" lon="-105.230575">
  <ele>1586.09</ele>
  <time>2026-08-28T19:13:16Z</time>
  <course>77.32</course>
  <speed>0.0</speed>
  <fix>3d</fix>
</trkpt>
<trkpt lat="40.072842" lon="-105.230575">
  <ele>1586.09</ele>
  <time>2026-08-28T19:13:16Z</time>
  <course>8.62</course>
  <speed>0.0</speed>
  <fix>3d</fix>
</trkpt>
<trkpt lat="40.072842" lon="-105.230575">
  <ele>1586.09</ele>
  <time>2026-08-28T19:13:16Z</time>
  <course>290.54</course>
  <speed>0.0</speed>
  <fix>3d</fix>
</trkpt>
<trkpt lat="40.072842" lon="-105.230575">
  <ele>1586.09</ele>
  <time>2026-08-28T19:13:16Z</time>
  <course>8.93</course>
  <speed>0.0</speed>
  <fix>3d</fix>
</trkpt>
<trkpt lat="40.072842" lon="-105.230575">
  <ele>1586.09</ele>
  <time>2026-08-28T19:13:16Z</time>
  <course>338.69</course>
  <speed>0.0</speed>
  <fix>3d</fix>
</trkpt>
<trkpt lat="40.072842" lon="-105.230575">
  <ele>1586.09</ele>
  <time>2026-08-28T19:13:16Z</time>
  <course>9.22</course>
  <speed>0.0</speed>
  <fix>3d</fix>
</trkpt>
<trkpt lat="40.072842" lon="-105.230575">
  <ele>1586.09</ele>
  <time>2026-08-28T19:13:16Z</time>
  <course>326.81</course>
  <speed>0.0</speed>
  <fix>3d</fix>
</trkpt>
<trkpt lat="40.072842" lon="-105.230575">
  <ele>1586.09</ele>
  <time>2026-08-28T19:13:16Z</time>
  <course>9.49</course>
  <speed>0.0</speed>
  <fix>3d</fix>
</trkpt>
<trkpt lat="40.072842" lon="-105.230575">
  <ele>1586.09</ele>
  <time>2026-08-28T19:13:16Z</time>
  <course>262.23</course>
  <speed>0.0</speed>
  <fix>3d</fix>
</trkpt>
<trkpt lat="40.072842" lon="-105.230575">
  <ele>1586.09</ele>
  <time>2026-08-28T19:13:16Z</time>
  <course>9.73</course>
  <speed>0.0</speed>
  <fix>3d</fix>
</trkpt>
<trkpt lat="40.072842" lon="-105.230575">
  <ele>1586.09</ele>
  <time>2026-08-28T19:13:16Z</time>
  <course>159.08</course>
  <speed>0.0</speed>
  <fix>3d</fix>
</trkpt>
<trkpt lat="40.072842" lon="-105.230575">
  <ele>1586.09</ele>
  <time>2026-08-28T19:13:16Z</time>
  <course>9.95</course>
  <speed>0.0</speed>
  <fix>3d</fix>
</trkpt>
<trkpt lat="40.072842" lon="-105.230575">
  <ele>1586.09</ele>
  <time>2026-08-28T19:13:16Z</time>
  <course>287.98</course>
  <speed>0.0</speed>
  <fix>3d</fix>
</trkpt>
<trkpt lat="40.072842" lon="-105.230575">
  <ele>1586.09</ele>
  <time>2026-08-28T19:13:16Z</time>
  <course>10.16</course>
  <speed>0.0</speed>
  <fix>3d</fix>
</trkpt>
<trkpt lat="40.072842" lon="-105.230575">
  <ele>1586.09</ele>
  <time>2026-08-28T19:13:16Z</time>
  <course>278.3</course>
  <speed>0.0</speed>
  <fix>3d</fix>
</trkpt>
<trkpt lat="40.072842" lon="-105.230575">
  <ele>1586.09</ele>
  <time>2026-08-28T19:13:16Z</time>
  <course>10.34</course>
  <speed>0.0</speed>
  <fix>3d</fix>
</trkpt>
<trkpt lat="40.072842" lon="-105.230575">
  <ele>1586.09</ele>
  <time>2026-08-28T19:13:16Z</time>
  <course>261.72</course>
  <speed>0.0</speed>
  <fix>3d</fix>
</trkpt>
<trkpt lat="40.072842" lon="-105.230575">
  <ele>1586.09</ele>
  <time>2026-08-28T19:13:16Z</time>
  <course>10.52</course>
  <speed>0.0</speed>
  <fix>3d</fix>
</trkpt>
<trkpt lat="40.072842" lon="-105.230575">
  <ele>1586.09</ele>
  <time>2026-08-28T19:13:16Z</time>
  <course>264.4</course>
  <speed>0.0</speed>
  <fix>3d</fix>
</trkpt>
<trkpt lat="40.072842" lon="-105.230575">
  <ele>1586.09</ele>
  <time>2026-08-28T19:13:16Z</time>
  <course>10.67</course>
  <speed>0.0</speed>
  <fix>3d</fix>
</trkpt>
<trkpt lat="40.072842" lon="-105.230575">
  <ele>1586.09</ele>
  <time>2026-08-28T19:13:16Z</time>
  <course>266.8</course>
  <speed>0.0</speed>
  <fix>3d</fix>
</trkpt>
<trkpt lat="40.072842" lon="-105.230575">
  <ele>1586.09</ele>
  <time>2026-08-28T19:13:16Z</time>
  <course>10.82</course>
  <speed>0.0</speed>
  <fix>3d</fix>
</trkpt>
<trkpt lat="40.072842" lon="-105.230575">
  <ele>1586.09</ele>
  <time>2026-08-28T19:13:16Z</time>
  <course>266.15</course>
  <speed>0.0</speed>
  <fix>3d</fix>
</trkpt>
<trkpt lat="40.072842" lon="-105.230575">
  <ele>1586.09</ele>
  <time>2026-08-28T19:13:16Z</time>
  <course>10.95</course>
  <speed>0.0</speed>
  <fix>3d</fix>
</trkpt>
<trkpt lat="40.072842" lon="-105.230575">
  <ele>1586.09</ele>
  <time>2026-08-28T19:13:16Z</time>
  <course>265.92</course>
  <speed>0.0</speed>
  <fix>3d</fix>
</trkpt>
<trkpt lat="40.072842" lon="-105.230575">
  <ele>1586.09</ele>
  <time>2026-08-28T19:13:16Z</time>
  <course>11.07</course>
  <speed>0.0</speed>
  <fix>3d</fix>
</trkpt>
<trkpt lat="40.072842" lon="-105.230575">
  <ele>1586.09</ele>
  <time>2026-08-28T19:13:16Z</time>
  <course>266.03</course>
  <speed>0.0</speed>
  <fix>3d</fix>
</trkpt>
<trkpt lat="40.072842" lon="-105.230575">
  <ele>1586.09</ele>
  <time>2026-08-28T19:13:16Z</time>
  <course>11.18</course>
  <speed>0.0</speed>
  <fix>3d</fix>
</trkpt>
<trkpt lat="40.072842" lon="-105.230575">
  <ele>1586.09</ele>
  <time>2026-08-28T19:13:16Z</time>
  <course>266.05</course>
  <speed>0.0</speed>
  <fix>3d</fix>
</trkpt>
<trkpt lat="40.072842" lon="-105.230575">
  <ele>1586.09</ele>
  <time>2026-08-28T19:13:16Z</time>
  <course>11.28</course>
  <speed>0.0</speed>
  <fix>3d</fix>
</trkpt>
<trkpt lat="40.072842" lon="-105.230575">
  <ele>1586.09</ele>
  <time>2026-08-28T19:13:16Z</time>
  <course>266.03</course>
  <speed>0.0</speed>
  <fix>3d</fix>
</trkpt>
<trkpt lat="40.072842" lon="-105.230575">
  <ele>1586.09</ele>
  <time>2026-08-28T19:13:16Z</time>
  <course>11.37</course>
  <speed>0.0</speed>
  <fix>3d</fix>
</trkpt>
<trkpt lat="40.072842" lon="-105.230575">
  <ele>1586.09</ele>
  <time>2026-08-28T19:13:16Z</time>
  <course>266.03</course>
  <speed>0.0</speed>
  <fix>3d</fix>
</trkpt>
<trkpt lat="40.072842" lon="-105.230575">
  <ele>1586.09</ele>
  <time>2026-08-28T19:13:16Z</time>
  <course>11.45</course>
  <speed>0.0</speed>
  <fix>3d</fix>
</trkpt>
<trkpt lat="40.072842" lon="-105.230575">
  <ele>1586.09</ele>
  <time>2026-08-28T19:13:16Z</time>
  <course>266.03</course>
  <speed>0.0</speed>
  <fix>3d</fix>
</trkpt>
<trkpt lat="40.072842" lon="-105.230575">
  <ele>1586.09</ele>
  <time>2026-08-28T19:13:16Z</time>
  <course>11.53</course>
  <speed>0.0</speed>
  <fix>3d</fix>
</trkpt>
<trkpt lat="40.072842" lon="-105.230575">
  <ele>1586.09</ele>
  <time>2026-08-28T19:13:16Z</time>
  <course>266.03</course>
  <speed>0.0</speed>
  <fix>3d</fix>
</trkpt>
<trkpt lat="40.072842" lon="-105.230575">
  <ele>1586.09</ele>
  <time>2026-08-28T19:13:16Z</time>
  <course>11.59</course>
  <speed>0.0</speed>
  <fix>3d</fix>
</trkpt>
<trkpt lat="40.072842" lon="-105.230575">
  <ele>1586.09</ele>
  <time>2026-08-28T19:13:16Z</time>
  <course>266.03</course>
  <speed>0.0</speed>
  <fix>3d</fix>
</trkpt>
<trkpt lat="40.072842" lon="-105.230575">
  <ele>1586.09</ele>
  <time>2026-08-28T19:13:16Z</time>
  <course>11.66</course>
  <speed>0.0</speed>
  <fix>3d</fix>
</trkpt>
<trkpt lat="40.072842" lon="-105.230575">
  <ele>1586.09</ele>
  <time>2026-08-28T19:13:16Z</time>
  <course>266.03</course>
  <speed>0.0</speed>
  <fix>3d</fix>
</trkpt>
<trkpt lat="40.072842" lon="-105.230575">
  <ele>1586.09</ele>
  <time>2026-08-28T19:13:16Z</time>
  <course>11.71</course>
  <speed>0.0</speed>
  <fix>3d</fix>
</trkpt>
<trkpt lat="40.072842" lon="-105.230575">
  <ele>1586.09</ele>
  <time>2026-08-28T19:13:16Z</time>
  <course>266.03</course>
  <speed>0.0</speed>
  <fix>3d</fix>
</trkpt>
<trkpt lat="40.072842" lon="-105.230575">
  <ele>1586.09</ele>
  <time>2026-08-28T19:13:16Z</time>
  <course>11.76</course>
  <speed>0.0</speed>
  <fix>3d</fix>
</trkpt>
<trkpt lat="40.072842" lon="-105.230575">
  <ele>1586.09</ele>
  <time>2026-08-28T19:13:16Z</time>
  <course>266.03</course>
  <speed>0.0</speed>
  <fix>3d</fix>
</trkpt>
<trkpt lat="40.072842" lon="-105.230575">
  <ele>1586.09</ele>
  <time>2026-08-28T19:13:16Z</time>
  <course>11.81</course>
  <speed>0.0</speed>
  <fix>3d</fix>
</trkpt>
<trkpt lat="40.072842" lon="-105.230575">
  <ele>1586.09</ele>
  <time>2026-08-28T19:13:16Z</time>
  <course>266.03</course>
  <speed>0.0</speed>
  <fix>3d</fix>
</trkpt>
<trkpt lat="40.072842" lon="-105.230575">
  <ele>1586.09</ele>
  <time>2026-08-28T19:13:16Z</time>
  <course>11.85</course>
  <speed>0.0</speed>
  <fix>3d</fix>
</trkpt>
<trkpt lat="40.072842" lon="-105.230575">
  <ele>1586.09</ele>
  <time>2026-08-28T19:13:16Z</time>
  <course>266.03</course>
  <speed>0.0</speed>
  <fix>3d</fix>
</trkpt>
<trkpt lat="40.072842" lon="-105.230575">
  <ele>1586.09</ele>
  <time>2026-08-28T19:13:16Z</time>
  <course>11.88</course>
  <speed>0.0</speed>
  <fix>3d</fix>
</trkpt>
<trkpt lat="40.072842" lon="-105.230575">
  <ele>1586.09</ele>
  <time>2026-08-28T19:13:16Z</time>
  <course>266.03</course>
  <speed>0.0</speed>
  <fix>3d</fix>
</trkpt>
<trkpt lat="40.072842" lon="-105.230575">
  <ele>1586.09</ele>
  <time>2026-08-28T19:13:16Z</time>
  <course>11.92</course>
  <speed>0.0</speed>
  <fix>3d</fix>
</trkpt>
<trkpt lat="40.072842" lon="-105.230575">
  <ele>1586.09</ele>
  <time>2026-08-28T19:13:16Z</time>
  <course>266.03</course>
  <speed>0.0</speed>
  <fix>3d</fix>
</trkpt>
<trkpt lat="40.072842" lon="-105.230575">
  <ele>1586.09</ele>
  <time>2026-08-28T19:13:16Z</time>
  <course>11.95</course>
  <speed>0.0</speed>
  <fix>3d</fix>
</trkpt>
<trkpt lat="40.072842" lon="-105.230575">
  <ele>1586.09</ele>
  <time>2026-08-28T19:13:16Z</time>
  <course>266.03</course>
  <speed>0.0</speed>
  <fix>3d</fix>
</trkpt>
<trkpt lat="40.072842" lon="-105.230575">
  <ele>1586.09</ele>
  <time>2026-08-28T19:13:16Z</time>
  <course>11.97</course>
  <speed>0.0</speed>
  <fix>3d</fix>
</trkpt>
<trkpt lat="40.072842" lon="-105.230575">
  <ele>1586.09</ele>
  <time>2026-08-28T19:13:16Z</time>
  <course>266.03</course>
  <speed>0.0</speed>
  <fix>3d</fix>
</trkpt>
<trkpt lat="40.072842" lon="-105.230575">
  <ele>1586.09</ele>
  <time>2026-08-28T19:13:16Z</time>
  <course>12.0</course>
  <speed>0.0</speed>
  <fix>3d</fix>
</trkpt>
<trkpt lat="40.072842" lon="-105.230575">
  <ele>1586.09</ele>
  <time>2026-08-28T19:13:16Z</time>
  <course>266.03</course>
  <speed>0.0</speed>
  <fix>3d</fix>
</trkpt>
<trkpt lat="40.072842" lon="-105.230575">
  <ele>1586.09</ele>
  <time>2026-08-28T19:13:16Z</time>
  <course>12.02</course>
  <speed>0.0</speed>
  <fix>3d</fix>
</trkpt>
<trkpt lat="40.072842" lon="-105.230575">
  <ele>1586.09</ele>
  <time>2026-08-28T19:13:16Z</time>
  <course>266.03</course>
  <speed>0.0</speed>
  <fix>3d</fix>
</trkpt>
<trkpt lat="40.072842" lon="-105.230575">
  <ele>1586.09</ele>
  <time>2026-08-28T19:13:16Z</time>
  <course>12.04</course>
  <speed>0.0</speed>
  <fix>3d</fix>
</trkpt>
<trkpt lat="40.072842" lon="-105.230575">
  <ele>1586.09</ele>
  <time>2026-08-28T19:13:16Z</time>
  <course>266.03</course>
  <speed>0.0</speed>
  <fix>3d</fix>
</trkpt>
<trkpt lat="40.072842" lon="-105.230575">
  <ele>1586.09</ele>
  <time>2026-08-28T19:13:16Z</time>
  <course>12.05</course>
  <speed>0.0</speed>
  <fix>3d</fix>
</trkpt>
<trkpt lat="40.072842" lon="-105.230575">
  <ele>1586.09</ele>
  <time>2026-08-28T19:13:16Z</time>
  <course>266.03</course>
  <speed>0.0</speed>
  <fix>3d</fix>
</trkpt>
<trkpt lat="40.072842" lon="-105.230575">
  <ele>1586.09</ele>
  <time>2026-08-28T19:13:16Z</time>
  <course>12.07</course>
  <speed>0.0</speed>
  <fix>3d</fix>
</trkpt>
<trkpt lat="40.072842" lon="-105.230575">
  <ele>1586.09</ele>
  <time>2026-08-28T19:13:16Z</time>
  <course>266.03</course>
  <speed>0.0</speed>
  <fix>3d</fix>
</trkpt>
<trkpt lat="40.072842" lon="-105.230575">
  <ele>1586.09</ele>
  <time>2026-08-28T19:13:16Z</time>
  <course>12.08</course>
  <speed>0.0</speed>
  <fix>3d</fix>
</trkpt>
<trkpt lat="40.072842" lon="-105.230575">
  <ele>1586.09</ele>
  <time>2026-08-28T19:13:16Z</time>
  <course>266.03</course>
  <speed>0.0</speed>
  <fix>3d</fix>
</trkpt>
<trkpt lat="40.072842" lon="-105.230575">
  <ele>1586.09</ele>
  <time>2026-08-28T19:13:16Z</time>
  <course>12.09</course>
  <speed>0.0</speed>
  <fix>3d</fix>
</trkpt>
<trkpt lat="40.072842" lon="-105.230575">
  <ele>1586.09</ele>
  <time>2026-08-28T19:13:16Z</time>
  <course>266.03</course>
  <speed>0.0</speed>
  <fix>3d</fix>
</trkpt>
<trkpt lat="40.072842" lon="-105.230575">
  <ele>1586.09</ele>
  <time>2026-08-28T19:13:16Z</time>
  <course>12.1</course>
  <speed>0.0</speed>
  <fix>3d</fix>
</trkpt>
<trkpt lat="40.072842" lon="-105.230575">
  <ele>1586.09</ele>
  <time>2026-08-28T19:13:16Z</time>
  <course>266.03</course>
  <speed>0.0</speed>
  <fix>3d</fix>
</trkpt>
<trkpt lat="40.072842" lon="-105.230575">
  <ele>1586.09</ele>
  <time>2026-08-28T19:13:16Z</time>
  <course>12.1</course>
  <speed>0.0</speed>
  <fix>3d</fix>
</trkpt>
<trkpt lat="40.072842" lon="-105.230575">
  <ele>1586.09</ele>
  <time>2026-08-28T19:13:16Z</time>
  <course>266.03</course>
  <speed>0.0</speed>
  <fix>3d</fix>
</trkpt>
<trkpt lat="40.072842" lon="-105.230575">
  <ele>1586.09</ele>
  <time>2026-08-28T19:13:16Z</time>
  <course>12.11</course>
  <speed>0.0</speed>
  <fix>3d</fix>
</trkpt>
<trkpt lat="40.072842" lon="-105.230575">
  <ele>1586.09</ele>
  <time>2026-08-28T19:13:16Z</time>
  <course>266.03</course>
  <speed>0.0</speed>
  <fix>3d</fix>
</trkpt>
<trkpt lat="40.072842" lon="-105.230575">
  <ele>1586.09</ele>
  <time>2026-08-28T19:13:16Z</time>
  <course>12.12</course>
  <speed>0.0</speed>
  <fix>3d</fix>
</trkpt>
<trkpt lat="40.072842" lon="-105.230575">
  <ele>1586.09</ele>
  <time>2026-08-28T19:13:16Z</time>
  <course>266.03</course>
  <speed>0.0</speed>
  <fix>3d</fix>
</trkpt>
<trkpt lat="40.072842" lon="-105.230575">
  <ele>1586.09</ele>
  <time>2026-08-28T19:13:16Z</time>
  <course>12.12</course>
  <speed>0.0</speed>
  <fix>3d</fix>
</trkpt>
<trkpt lat="40.072842" lon="-105.230575">
  <ele>1586.09</ele>
  <time>2026-08-28T19:13:16Z</time>
  <course>266.03</course>
  <speed>0.0</speed>
  <fix>3d</fix>
</trkpt>
<trkpt lat="40.072842" lon="-105.230575">
  <ele>1586.09</ele>
  <time>2026-08-28T19:13:16Z</time>
  <course>12.12</course>
  <speed>0.0</speed>
  <fix>3d</fix>
</trkpt>
<trkpt lat="40.072842" lon="-105.230575">
  <ele>1586.09</ele>
  <time>2026-08-28T19:13:16Z</time>
  <course>266.03</course>
  <speed>0.0</speed>
  <fix>3d</fix>
</trkpt>
<trkpt lat="40.072842" lon="-105.230575">
  <ele>1586.09</ele>
  <time>2026-08-28T19:13:16Z</time>
  <course>12.13</course>
  <speed>0.0</speed>
  <fix>3d</fix>
</trkpt>
<trkpt lat="40.072842" lon="-105.230575">
  <ele>1586.09</ele>
  <time>2026-08-28T19:13:16Z</time>
  <course>266.03</course>
  <speed>0.0</speed>
  <fix>3d</fix>
</trkpt>
<trkpt lat="40.072842" lon="-105.230575">
  <ele>1586.09</ele>
  <time>2026-08-28T19:13:16Z</time>
  <course>12.13</course>
  <speed>0.0</speed>
  <fix>3d</fix>
</trkpt>
<trkpt lat="40.072842" lon="-105.230575">
  <ele>1586.09</ele>
  <time>2026-08-28T19:13:16Z</time>
  <course>266.03</course>
  <speed>0.0</speed>
  <fix>3d</fix>
</trkpt>
<trkpt lat="40.072842" lon="-105.230575">
  <ele>1586.09</ele>
  <time>2026-08-28T19:13:16Z</time>
  <course>12.13</course>
  <speed>0.0</speed>
  <fix>3d</fix>
</trkpt>
<trkpt lat="40.072842" lon="-105.230575">
  <ele>1586.09</ele>
  <time>2026-08-28T19:13:16Z</time>
  <course>266.03</course>
  <speed>0.0</speed>
  <fix>3d</fix>
</trkpt>
<trkpt lat="40.072842" lon="-105.230575">
  <ele>1586.09</ele>
  <time>2026-08-28T19:13:16Z</time>
  <course>12.12</course>
  <speed>0.01</speed>
  <fix>3d</fix>
</trkpt>
<trkpt lat="40.072842" lon="-105.230575">
  <ele>1586.09</ele>
  <time>2026-08-28T19:13:16Z</time>
  <course>266.03</course>
  <speed>0.0</speed>
  <fix>3d</fix>
</trkpt>
<trkpt lat="40.072842" lon="-105.230575">
  <ele>1586.09</ele>
  <time>2026-08-28T19:13:16Z</time>
  <course>12.12</course>
  <speed>0.01</speed>
  <fix>3d</fix>
</trkpt>
<trkpt lat="40.072842" lon="-105.230575">
  <ele>1586.09</ele>
  <time>2026-08-28T19:13:16Z</time>
  <course>266.03</course>
  <speed>0.0</speed>
  <fix>3d</fix>
</trkpt>
<trkpt lat="40.072842" lon="-105.230575">
  <ele>1586.09</ele>
  <time>2026-08-28T19:13:16Z</time>
  <course>12.12</course>
  <speed>0.01</speed>
  <fix>3d</fix>
</trkpt>
<trkpt lat="40.072842" lon="-105.230575">
  <ele>1586.09</ele>
  <time>2026-08-28T19:13:16Z</time>
  <course>266.03</course>
  <speed>0.0</speed>
  <fix>3d</fix>
</trkpt>
<trkpt lat="40.072842" lon="-105.230575">
  <ele>1586.09</ele>
  <time>2026-08-28T19:13:16Z</time>
  <course>12.12</course>
  <speed>0.01</speed>
  <fix>3d</fix>
</trkpt>
<trkpt lat="40.072842" lon="-105.230575">
  <ele>1586.09</ele>
  <time>2026-08-28T19:13:16Z</time>
  <course>266.03</course>
  <speed>0.0</speed>
  <fix>3d</fix>
</trkpt>
<trkpt lat="40.072842" lon="-105.230575">
  <ele>1586.09</ele>
  <time>2026-08-28T19:13:16Z</time>
  <course>12.11</course>
  <speed>0.01</speed>
  <fix>3d</fix>
</trkpt>
<trkpt lat="40.072842" lon="-105.230575">
  <ele>1586.09</ele>
  <time>2026-08-28T19:13:16Z</time>
  <course>266.03</course>
  <speed>0.0</speed>
  <fix>3d</fix>
</trkpt>
<trkpt lat="40.072842" lon="-105.230575">
  <ele>1586.09</ele>
  <time>2026-08-28T19:13:16Z</time>
  <course>12.11</course>
  <speed>0.01</speed>
  <fix>3d</fix>
</trkpt>
<trkpt lat="40.072842" lon="-105.230575">
  <ele>1586.09</ele>
  <time>2026-08-28T19:13:16Z</time>
  <course>266.03</course>
  <speed>0.0</speed>
  <fix>3d</fix>
</trkpt>
<trkpt lat="40.072842" lon="-105.230575">
  <ele>1586.09</ele>
  <time>2026-08-28T19:13:16Z</time>
  <course>12.1</course>
  <speed>0.01</speed>
  <fix>3d</fix>
</trkpt>
<trkpt lat="40.072842" lon="-105.230575">
  <ele>1586.09</ele>
  <time>2026-08-28T19:13:16Z</time>
  <course>266.03</course>
  <speed>0.0</speed>
  <fix>3d</fix>
</trkpt>
<trkpt lat="40.072842" lon="-105.230575">
  <ele>1586.09</ele>
  <time>2026-08-28T19:13:16Z</time>
  <course>12.1</course>
  <speed>0.01</speed>
  <fix>3d</fix>
</trkpt>
<trkpt lat="40.072842" lon="-105.230575">
  <ele>1586.09</ele>
  <time>2026-08-28T19:13:16Z</time>
  <course>266.03</course>
  <speed>0.0</speed>
  <fix>3d</fix>
</trkpt>
<trkpt lat="40.072842" lon="-105.230575">
  <ele>1586.09</ele>
  <time>2026-08-28T19:13:16Z</time>
  <course>12.09</course>
  <speed>0.01</speed>
  <fix>3d</fix>
</trkpt>
<trkpt lat="40.072842" lon="-105.230575">
  <ele>1586.09</ele>
  <time>2026-08-28T19:13:16Z</time>
  <course>266.03</course>
  <speed>0.0</speed>
  <fix>3d</fix>
</trkpt>
<trkpt lat="40.072842" lon="-105.230575">
  <ele>1586.09</ele>
  <time>2026-08-28T19:13:16Z</time>
  <course>12.09</course>
  <speed>0.01</speed>
  <fix>3d</fix>
</trkpt>
<trkpt lat="40.072842" lon="-105.230575">
  <ele>1586.09</ele>
  <time>2026-08-28T19:13:16Z</time>
  <course>266.03</course>
  <speed>0.0</speed>
  <fix>3d</fix>
</trkpt>
<trkpt lat="40.072842" lon="-105.230575">
  <ele>1586.09</ele>
  <time>2026-08-28T19:13:16Z</time>
  <course>12.08</course>
  <speed>0.01</speed>
  <fix>3d</fix>
</trkpt>
<trkpt lat="40.072842" lon="-105.230575">
  <ele>1586.09</ele>
  <time>2026-08-28T19:13:16Z</time>
  <course>266.03</course>
  <speed>0.0</speed>
  <fix>3d</fix>
</trkpt>
<trkpt lat="40.072842" lon="-105.230575">
  <ele>1586.09</ele>
  <time>2026-08-28T19:13:16Z</time>
  <course>12.08</course>
  <speed>0.01414213562373095</speed>
  <fix>3d</fix>
</trkpt>
<trkpt lat="40.072842" lon="-105.230575">
  <ele>1586.09</ele>
  <time>2026-08-28T19:13:16Z</time>
  <course>266.03</course>
  <speed>0.0</speed>
  <fix>3d</fix>
</trkpt>
<trkpt lat="40.072842" lon="-105.230575">
  <ele>1586.09</ele>
  <time>2026-08-28T19:13:16Z</time>
  <course>12.07</course>
  <speed>0.01414213562373095</speed>
  <fix>3d</fix>
</trkpt>
<trkpt lat="40.072842" lon="-105.230575">
  <ele>1586.09</ele>
  <time>2026-08-28T19:13:16Z</time>
  <course>266.03</course>
  <speed>0.0</speed>
  <fix>3d</fix>
</trkpt>
<trkpt lat="40.072842" lon="-105.230575">
  <ele>1586.09</ele>
  <time>2026-08-28T19:13:16Z</time>
  <course>12.06</course>
  <speed>0.01414213562373095</speed>
  <fix>3d</fix>
</trkpt>
<trkpt lat="40.072842" lon="-105.230575">
  <ele>1586.09</ele>
  <time>2026-08-28T19:13:16Z</time>
  <course>266.03</course>
  <speed>0.0</speed>
  <fix>3d</fix>
</trkpt>
<trkpt lat="40.072842" lon="-105.230575">
  <ele>1586.09</ele>
  <time>2026-08-28T19:13:16Z</time>
  <course>12.05</course>
  <speed>0.01414213562373095</speed>
  <fix>3d</fix>
</trkpt>
<trkpt lat="40.072842" lon="-105.230575">
  <ele>1586.09</ele>
  <time>2026-08-28T19:13:16Z</time>
  <course>266.03</course>
  <speed>0.0</speed>
  <fix>3d</fix>
</trkpt>
<trkpt lat="40.072842" lon="-105.230575">
  <ele>1586.09</ele>
  <time>2026-08-28T19:13:16Z</time>
  <course>12.05</course>
  <speed>0.01414213562373095</speed>
  <fix>3d</fix>
</trkpt>
<trkpt lat="40.072842" lon="-105.230575">
  <ele>1586.09</ele>
  <time>2026-08-28T19:13:16Z</time>
  <course>266.03</course>
  <speed>0.0</speed>
  <fix>3d</fix>
</trkpt>
<trkpt lat="40.072842" lon="-105.230575">
  <ele>1586.09</ele>
  <time>2026-08-28T19:13:16Z</time>
  <course>12.04</course>
  <speed>0.01414213562373095</speed>
  <fix>3d</fix>
</trkpt>
<trkpt lat="40.072842" lon="-105.230575">
  <ele>1586.09</ele>
  <time>2026-08-28T19:13:16Z</time>
  <course>266.03</course>
  <speed>0.0</speed>
  <fix>3d</fix>
</trkpt>
<trkpt lat="40.072842" lon="-105.230575">
  <ele>1586.09</ele>
  <time>2026-08-28T19:13:16Z</time>
  <course>12.03</course>
  <speed>0.01414213562373095</speed>
  <fix>3d</fix>
</trkpt>
<trkpt lat="40.072842" lon="-105.230575">
  <ele>1586.09</ele>
  <time>2026-08-28T19:13:16Z</time>
  <course>266.03</course>
  <speed>0.0</speed>
  <fix>3d</fix>
</trkpt>
<trkpt lat="40.072842" lon="-105.230575">
  <ele>1586.09</ele>
  <time>2026-08-28T19:13:16Z</time>
  <course>12.03</course>
  <speed>0.01414213562373095</speed>
  <fix>3d</fix>
</trkpt>
<trkpt lat="40.072842" lon="-105.230575">
  <ele>1586.09</ele>
  <time>2026-08-28T19:13:16Z</time>
  <course>266.03</course>
  <speed>0.0</speed>
  <fix>3d</fix>
</trkpt>
<trkpt lat="40.072842" lon="-105.230575">
  <ele>1586.09</ele>
  <time>2026-08-28T19:13:16Z</time>
  <course>12.02</course>
  <speed>0.01414213562373095</speed>
  <fix>3d</fix>
</trkpt>
<trkpt lat="40.072842" lon="-105.230575">
  <ele>1586.09</ele>
  <time>2026-08-28T19:13:16Z</time>
  <course>266.03</course>
  <speed>0.0</speed>
  <fix>3d</fix>
</trkpt>
<trkpt lat="40.072842" lon="-105.230575">
  <ele>1586.09</ele>
  <time>2026-08-28T19:13:16Z</time>
  <course>12.01</course>
  <speed>0.01414213562373095</speed>
  <fix>3d</fix>
</trkpt>
<trkpt lat="40.072842" lon="-105.230575">
  <ele>1586.09</ele>
  <time>2026-08-28T19:13:16Z</time>
  <course>266.03</course>
  <speed>0.0</speed>
  <fix>3d</fix>
</trkpt>
<trkpt lat="40.072842" lon="-105.230575">
  <ele>1586.09</ele>
  <time>2026-08-28T19:13:16Z</time>
  <course>12.01</course>
  <speed>0.01414213562373095</speed>
  <fix>3d</fix>
</trkpt>
<trkpt lat="40.072842" lon="-105.230575">
  <ele>1586.09</ele>
  <time>2026-08-28T19:13:16Z</time>
  <course>266.03</course>
  <speed>0.0</speed>
  <fix>3d</fix>
</trkpt>
<trkpt lat="40.072842" lon="-105.230575">
  <ele>1586.09</ele>
  <time>2026-08-28T19:13:16Z</time>
  <course>12.0</course>
  <speed>0.01414213562373095</speed>
  <fix>3d</fix>
</trkpt>
<trkpt lat="40.072842" lon="-105.230575">
  <ele>1586.09</ele>
  <time>2026-08-28T19:13:16Z</time>
  <course>266.03</course>
  <speed>0.0</speed>
  <fix>3d</fix>
</trkpt>
<trkpt lat="40.072842" lon="-105.230575">
  <ele>1586.09</ele>
  <time>2026-08-28T19:13:16Z</time>
  <course>11.99</course>
  <speed>0.01414213562373095</speed>
  <fix>3d</fix>
</trkpt>
<trkpt lat="40.072842" lon="-105.230575">
  <ele>1586.09</ele>
  <time>2026-08-28T19:13:16Z</time>
  <course>266.03</course>
  <speed>0.0</speed>
  <fix>3d</fix>
</trkpt>
<trkpt lat="40.072842" lon="-105.230575">
  <ele>1586.09</ele>
  <time>2026-08-28T19:13:16Z</time>
  <course>11.98</course>
  <speed>0.01414213562373095</speed>
  <fix>3d</fix>
</trkpt>
<trkpt lat="40.072842" lon="-105.230575">
  <ele>1586.09</ele>
  <time>2026-08-28T19:13:16Z</time>
  <course>266.03</course>
  <speed>0.0</speed>
  <fix>3d</fix>
</trkpt>
<trkpt lat="40.072842" lon="-105.230575">
  <ele>1586.09</ele>
  <time>2026-08-28T19:13:16Z</time>
  <course>11.98</course>
  <speed>0.01414213562373095</speed>
  <fix>3d</fix>
</trkpt>
<trkpt lat="40.072842" lon="-105.230575">
  <ele>1586.09</ele>
  <time>2026-08-28T19:13:16Z</time>
  <course>266.03</course>
  <speed>0.0</speed>
  <fix>3d</fix>
</trkpt>
<trkpt lat="40.072842" lon="-105.230575">
  <ele>1586.09</ele>
  <time>2026-08-28T19:13:16Z</time>
  <course>11.97</course>
  <speed>0.022360679774997897</speed>
  <fix>3d</fix>
</trkpt>
<trkpt lat="40.072842" lon="-105.230575">
  <ele>1586.09</ele>
  <time>2026-08-28T19:13:16Z</time>
  <course>266.03</course>
  <speed>0.0</speed>
  <fix>3d</fix>
</trkpt>
<trkpt lat="40.072842" lon="-105.230575">
  <ele>1586.09</ele>
  <time>2026-08-28T19:13:16Z</time>
  <course>11.96</course>
  <speed>0.022360679774997897</speed>
  <fix>3d</fix>
</trkpt>
<trkpt lat="40.072842" lon="-105.230575">
  <ele>1586.09</ele>
  <time>2026-08-28T19:13:16Z</time>
  <course>266.03</course>
  <speed>0.0</speed>
  <fix>3d</fix>
</trkpt>
<trkpt lat="40.072842" lon="-105.230575">
  <ele>1586.09</ele>
  <time>2026-08-28T19:13:16Z</time>
  <course>11.95</course>
  <speed>0.022360679774997897</speed>
  <fix>3d</fix>
</trkpt>
<trkpt lat="40.072842" lon="-105.230575">
  <ele>1586.09</ele>
  <time>2026-08-28T19:13:16Z</time>
  <course>266.03</course>
  <speed>0.0</speed>
  <fix>3d</fix>
</trkpt>
<trkpt lat="40.072842" lon="-105.230575">
  <ele>1586.09</ele>
  <time>2026-08-28T19:13:16Z</time>
  <course>11.94</course>
  <speed>0.022360679774997897</speed>
  <fix>3d</fix>
</trkpt>
<trkpt lat="40.072842" lon="-105.230575">
  <ele>1586.09</ele>
  <time>2026-08-28T19:13:16Z</time>
  <course>266.03</course>
  <speed>0.0</speed>
  <fix>3d</fix>
</trkpt>
<trkpt lat="40.072842" lon="-105.230575">
  <ele>1586.09</ele>
  <time>2026-08-28T19:13:16Z</time>
  <course>11.93</course>
  <speed>0.022360679774997897</speed>
  <fix>3d</fix>
</trkpt>
<trkpt lat="40.072842" lon="-105.230575">
  <ele>1586.09</ele>
  <time>2026-08-28T19:13:16Z</time>
  <course>266.03</course>
  <speed>0.0</speed>
  <fix>3d</fix>
</trkpt>
<trkpt lat="40.072842" lon="-105.230575">
  <ele>1586.09</ele>
  <time>2026-08-28T19:13:16Z</time>
  <course>11.92</course>
  <speed>0.022360679774997897</speed>
  <fix>3d</fix>
</trkpt>
<trkpt lat="40.072842" lon="-105.230575">
  <ele>1586.09</ele>
  <time>2026-08-28T19:13:16Z</time>
  <course>266.03</course>
  <speed>0.0</speed>
  <fix>3d</fix>
</trkpt>
<trkpt lat="40.072842" lon="-105.230575">
  <ele>1586.09</ele>
  <time>2026-08-28T19:13:16Z</time>
  <course>11.92</course>
  <speed>0.022360679774997897</speed>
  <fix>3d</fix>
</trkpt>
<trkpt lat="40.072842" lon="-105.230575">
  <ele>1586.09</ele>
  <time>2026-08-28T19:13:16Z</time>
  <course>266.03</course>
  <speed>0.0</speed>
  <fix>3d</fix>
</trkpt>
<trkpt lat="40.072842" lon="-105.230575">
  <ele>1586.09</ele>
  <time>2026-08-28T19:13:16Z</time>
  <course>11.91</course>
  <speed>0.022360679774997897</speed>
  <fix>3d</fix>
</trkpt>
<trkpt lat="40.072842" lon="-105.230575">
  <ele>1586.09</ele>
  <time>2026-08-28T19:13:16Z</time>
  <course>266.03</course>
  <speed>0.0</speed>
  <fix>3d</fix>
</trkpt>
<trkpt lat="40.072842" lon="-105.230575">
  <ele>1586.09</ele>
  <time>2026-08-28T19:13:16Z</time>
  <course>11.9</course>
  <speed>0.022360679774997897</speed>
  <fix>3d</fix>
</trkpt>
<trkpt lat="40.072842" lon="-105.230575">
  <ele>1586.09</ele>
  <time>2026-08-28T19:13:16Z</time>
  <course>266.03</course>
  <speed>0.0</speed>
  <fix>3d</fix>
</trkpt>
<trkpt lat="40.072842" lon="-105.230575">
  <ele>1586.09</ele>
  <time>2026-08-28T19:13:16Z</time>
  <course>11.89</course>
  <speed>0.022360679774997897</speed>
  <fix>3d</fix>
</trkpt>
<trkpt lat="40.072842" lon="-105.230575">
  <ele>1586.09</ele>
  <time>2026-08-28T19:13:16Z</time>
  <course>266.03</course>
  <speed>0.0</speed>
  <fix>3d</fix>
</trkpt>
<trkpt lat="40.072842" lon="-105.230575">
  <ele>1586.09</ele>
  <time>2026-08-28T19:13:16Z</time>
  <course>11.88</course>
  <speed>0.022360679774997897</speed>
  <fix>3d</fix>
</trkpt>
<trkpt lat="40.072842" lon="-105.230575">
  <ele>1586.09</ele>
  <time>2026-08-28T19:13:16Z</time>
  <course>266.03</course>
  <speed>0.0</speed>
  <fix>3d</fix>
</trkpt>
<trkpt lat="40.072842" lon="-105.230575">
  <ele>1586.09</ele>
  <time>2026-08-28T19:13:16Z</time>
  <course>11.87</course>
  <speed>0.022360679774997897</speed>
  <fix>3d</fix>
</trkpt>
<trkpt lat="40.072842" lon="-105.230575">
  <ele>1586.09</ele>
  <time>2026-08-28T19:13:16Z</time>
  <course>266.03</course>
  <speed>0.0</speed>
  <fix>3d</fix>
</trkpt>
<trkpt lat="40.072842" lon="-105.230575">
  <ele>1586.09</ele>
  <time>2026-08-28T19:13:16Z</time>
  <course>11.87</course>
  <speed>0.022360679774997897</speed>
  <fix>3d</fix>
</trkpt>
<trkpt lat="40.072842" lon="-105.230575">
  <ele>1586.09</ele>
  <time>2026-08-28T19:13:16Z</time>
  <course>266.03</course>
  <speed>0.0</speed>
  <fix>3d</fix>
</trkpt>
<trkpt lat="40.072842" lon="-105.230575">
  <ele>1586.09</ele>
  <time>2026-08-28T19:13:17Z</time>
  <course>11.86</course>
  <speed>0.022360679774997897</speed>
  <fix>3d</fix>
</trkpt>
<trkpt lat="40.072842" lon="-105.230575">
  <ele>1586.09</ele>
  <time>2026-08-28T19:13:17Z</time>
  <course>266.03</course>
  <speed>0.0</speed>
  <fix>3d</fix>
</trkpt>
<trkpt lat="40.072842" lon="-105.230575">
  <ele>1586.09</ele>
  <time>2026-08-28T19:13:17Z</time>
  <course>11.85</course>
  <speed>0.022360679774997897</speed>
  <fix>3d</fix>
</trkpt>
<trkpt lat="40.072842" lon="-105.230575">
  <ele>1586.09</ele>
  <time>2026-08-28T19:13:17Z</time>
  <course>266.03</course>
  <speed>0.0</speed>
  <fix>3d</fix>
</trkpt>
<trkpt lat="40.072842" lon="-105.230575">
  <ele>1586.09</ele>
  <time>2026-08-28T19:13:17Z</time>
  <course>11.84</course>
  <speed>0.0282842712474619</speed>
  <fix>3d</fix>
</trkpt>
<trkpt lat="40.072842" lon="-105.230575">
  <ele>1586.09</ele>
  <time>2026-08-28T19:13:17Z</time>
  <course>266.03</course>
  <speed>0.0</speed>
  <fix>3d</fix>
</trkpt>
<trkpt lat="40.072842" lon="-105.230575">
  <ele>1586.09</ele>
  <time>2026-08-28T19:13:17Z</time>
  <course>11.83</course>
  <speed>0.0282842712474619</speed>
  <fix>3d</fix>
</trkpt>
<trkpt lat="40.072842" lon="-105.230575">
  <ele>1586.09</ele>
  <time>2026-08-28T19:13:17Z</time>
  <course>266.03</course>
  <speed>0.0</speed>
  <fix>3d</fix>
</trkpt>
<trkpt lat="40.072842" lon="-105.230575">
  <ele>1586.09</ele>
  <time>2026-08-28T19:13:17Z</time>
  <course>11.83</course>
  <speed>0.0282842712474619</speed>
  <fix>3d</fix>
</trkpt>
<trkpt lat="40.072842" lon="-105.230575">
  <ele>1586.09</ele>
  <time>2026-08-28T19:13:17Z</time>
  <course>266.03</course>
  <speed>0.0</speed>
  <fix>3d</fix>
</trkpt>
<trkpt lat="40.072842" lon="-105.230575">
  <ele>1586.09</ele>
  <time>2026-08-28T19:13:17Z</time>
  <course>11.82</course>
  <speed>0.0282842712474619</speed>
  <fix>3d</fix>
</trkpt>
<trkpt lat="40.072842" lon="-105.230575">
  <ele>1586.09</ele>
  <time>2026-08-28T19:13:17Z</time>
  <course>266.03</course>
  <speed>0.0</speed>
  <fix>3d</fix>
</trkpt>
<trkpt lat="40.072842" lon="-105.230575">
  <ele>1586.09</ele>
  <time>2026-08-28T19:13:17Z</time>
  <course>11.81</course>
  <speed>0.0282842712474619</speed>
  <fix>3d</fix>
</trkpt>
<trkpt lat="40.072842" lon="-105.230575">
  <ele>1586.09</ele>
  <time>2026-08-28T19:13:17Z</time>
  <course>266.03</course>
  <speed>0.0</speed>
  <fix>3d</fix>
</trkpt>
<trkpt lat="40.072842" lon="-105.230575">
  <ele>1586.09</ele>
  <time>2026-08-28T19:13:17Z</time>
  <course>11.8</course>
  <speed>0.0282842712474619</speed>
  <fix>3d</fix>
</trkpt>
<trkpt lat="40.072842" lon="-105.230575">
  <ele>1586.09</ele>
  <time>2026-08-28T19:13:17Z</time>
  <course>266.03</course>
  <speed>0.0</speed>
  <fix>3d</fix>
</trkpt>
<trkpt lat="40.072842" lon="-105.230575">
  <ele>1586.09</ele>
  <time>2026-08-28T19:13:17Z</time>
  <course>11.79</course>
  <speed>0.0282842712474619</speed>
  <fix>3d</fix>
</trkpt>
<trkpt lat="40.072842" lon="-105.230575">
  <ele>1586.09</ele>
  <time>2026-08-28T19:13:17Z</time>
  <course>266.03</course>
  <speed>0.0</speed>
  <fix>3d</fix>
</trkpt>
<trkpt lat="40.072842" lon="-105.230575">
  <ele>1586.09</ele>
  <time>2026-08-28T19:13:17Z</time>
  <course>11.79</course>
  <speed>0.0282842712474619</speed>
  <fix>3d</fix>
</trkpt>
<trkpt lat="40.072842" lon="-105.230575">
  <ele>1586.09</ele>
  <time>2026-08-28T19:13:17Z</time>
  <course>266.03</course>
  <speed>0.0</speed>
  <fix>3d</fix>
</trkpt>
<trkpt lat="40.072842" lon="-105.230575">
  <ele>1586.09</ele>
  <time>2026-08-28T19:13:17Z</time>
  <course>11.78</course>
  <speed>0.0282842712474619</speed>
  <fix>3d</fix>
</trkpt>
<trkpt lat="40.072842" lon="-105.230575">
  <ele>1586.09</ele>
  <time>2026-08-28T19:13:17Z</time>
  <course>266.03</course>
  <speed>0.0</speed>
  <fix>3d</fix>
</trkpt>
<trkpt lat="40.072842" lon="-105.230575">
  <ele>1586.09</ele>
  <time>2026-08-28T19:13:17Z</time>
  <course>11.77</course>
  <speed>0.0282842712474619</speed>
  <fix>3d</fix>
</trkpt>
<trkpt lat="40.072842" lon="-105.230575">
  <ele>1586.09</ele>
  <time>2026-08-28T19:13:17Z</time>
  <course>266.03</course>
  <speed>0.0</speed>
  <fix>3d</fix>
</trkpt>
<trkpt lat="40.072842" lon="-105.230575">
  <ele>1586.09</ele>
  <time>2026-08-28T19:13:17Z</time>
  <course>11.77</course>
  <speed>0.0282842712474619</speed>
  <fix>3d</fix>
</trkpt>
<trkpt lat="40.072842" lon="-105.230575">
  <ele>1586.09</ele>
  <time>2026-08-28T19:13:17Z</time>
  <course>266.03</course>
  <speed>0.0</speed>
  <fix>3d</fix>
</trkpt>
<trkpt lat="40.072842" lon="-105.230575">
  <ele>1586.09</ele>
  <time>2026-08-28T19:13:17Z</time>
  <course>11.76</course>
  <speed>0.0282842712474619</speed>
  <fix>3d</fix>
</trkpt>
<trkpt lat="40.072842" lon="-105.230575">
  <ele>1586.09</ele>
  <time>2026-08-28T19:13:17Z</time>
  <course>266.03</course>
  <speed>0.0</speed>
  <fix>3d</fix>
</trkpt>
<trkpt lat="40.072842" lon="-105.230575">
  <ele>1586.09</ele>
  <time>2026-08-28T19:13:17Z</time>
  <course>11.75</course>
  <speed>0.0282842712474619</speed>
  <fix>3d</fix>
</trkpt>
<trkpt lat="40.072842" lon="-105.230575">
  <ele>1586.09</ele>
  <time>2026-08-28T19:13:17Z</time>
  <course>266.03</course>
  <speed>0.0</speed>
  <fix>3d</fix>
</trkpt>
<trkpt lat="40.072842" lon="-105.230575">
  <ele>1586.09</ele>
  <time>2026-08-28T19:13:17Z</time>
  <course>11.74</course>
  <speed>0.03605551275463989</speed>
  <fix>3d</fix>
</trkpt>
<trkpt lat="40.072842" lon="-105.230575">
  <ele>1586.09</ele>
  <time>2026-08-28T19:13:17Z</time>
  <course>266.03</course>
  <speed>0.0</speed>
  <fix>3d</fix>
</trkpt>
<trkpt lat="40.072842" lon="-105.230575">
  <ele>1586.09</ele>
  <time>2026-08-28T19:13:17Z</time>
  <course>11.73</course>
  <speed>0.03605551275463989</speed>
  <fix>3d</fix>
</trkpt>
<trkpt lat="40.072842" lon="-105.230575">
  <ele>1586.09</ele>
  <time>2026-08-28T19:13:17Z</time>
  <course>266.03</course>
  <speed>0.0</speed>
  <fix>3d</fix>
</trkpt>
<trkpt lat="40.072842" lon="-105.230575">
  <ele>1586.09</ele>
  <time>2026-08-28T19:13:17Z</time>
  <course>11.73</course>
  <speed>0.03605551275463989</speed>
  <fix>3d</fix>
</trkpt>
<trkpt lat="40.072842" lon="-105.230575">
  <ele>1586.09</ele>
  <time>2026-08-28T19:13:17Z</time>
  <course>266.03</course>
  <speed>0.0</speed>
  <fix>3d</fix>
</trkpt>
<trkpt lat="40.072842" lon="-105.230575">
  <ele>1586.09</ele>
  <time>2026-08-28T19:13:17Z</time>
  <course>11.72</course>
  <speed>0.03605551275463989</speed>
  <fix>3d</fix>
</trkpt>
<trkpt lat="40.072842" lon="-105.230575">
  <ele>1586.09</ele>
  <time>2026-08-28T19:13:17Z</time>
  <course>266.03</course>
  <speed>0.0</speed>
  <fix>3d</fix>
</trkpt>
<trkpt lat="40.072842" lon="-105.230575">
  <ele>1586.09</ele>
  <time>2026-08-28T19:13:17Z</time>
  <course>11.71</course>
  <speed>0.03605551275463989</speed>
  <fix>3d</fix>
</trkpt>
<trkpt lat="40.072842" lon="-105.230575">
  <ele>1586.09</ele>
  <time>2026-08-28T19:13:17Z</time>
  <course>266.03</course>
  <speed>0.0</speed>
  <fix>3d</fix>
</trkpt>
<trkpt lat="40.072842" lon="-105.230575">
  <ele>1586.09</ele>
  <time>2026-08-28T19:13:17Z</time>
  <course>11.71</course>
  <speed>0.03605551275463989</speed>
  <fix>3d</fix>
</trkpt>
<trkpt lat="40.072842" lon="-105.230575">
  <ele>1586.09</ele>
  <time>2026-08-28T19:13:17Z</time>
  <course>266.03</course>
  <speed>0.0</speed>
  <fix>3d</fix>
</trkpt>
<trkpt lat="40.072842" lon="-105.230575">
  <ele>1586.09</ele>
  <time>2026-08-28T19:13:17Z</time>
  <course>11.7</course>
  <speed>0.03605551275463989</speed>
  <fix>3d</fix>
</trkpt>
<trkpt lat="40.072842" lon="-105.230575">
  <ele>1586.09</ele>
  <time>2026-08-28T19:13:17Z</time>
  <course>266.03</course>
  <speed>0.0</speed>
  <fix>3d</fix>
</trkpt>
<trkpt lat="40.072842" lon="-105.230575">
  <ele>1586.09</ele>
  <time>2026-08-28T19:13:17Z</time>
  <course>11.69</course>
  <speed>0.03605551275463989</speed>
  <fix>3d</fix>
</trkpt>
<trkpt lat="40.072842" lon="-105.230575">
  <ele>1586.09</ele>
  <time>2026-08-28T19:13:17Z</time>
  <course>266.03</course>
  <speed>0.0</speed>
  <fix>3d</fix>
</trkpt>
<trkpt lat="40.072842" lon="-105.230575">
  <ele>1586.09</ele>
  <time>2026-08-28T19:13:17Z</time>
  <course>11.68</course>
  <speed>0.03605551275463989</speed>
  <fix>3d</fix>
</trkpt>
<trkpt lat="40.072842" lon="-105.230575">
  <ele>1586.09</ele>
  <time>2026-08-28T19:13:17Z</time>
  <course>266.03</course>
  <speed>0.0</speed>
  <fix>3d</fix>
</trkpt>
<trkpt lat="40.072842" lon="-105.230575">
  <ele>1586.09</ele>
  <time>2026-08-28T19:13:17Z</time>
  <course>11.68</course>
  <speed>0.03605551275463989</speed>
  <fix>3d</fix>
</trkpt>
<trkpt lat="40.072842" lon="-105.230575">
  <ele>1586.09</ele>
  <time>2026-08-28T19:13:17Z</time>
  <course>266.03</course>
  <speed>0.0</speed>
  <fix>3d</fix>
</trkpt>
<trkpt lat="40.072842" lon="-105.230575">
  <ele>1586.09</ele>
  <time>2026-08-28T19:13:17Z</time>
  <course>11.67</course>
  <speed>0.03605551275463989</speed>
  <fix>3d</fix>
</trkpt>
<trkpt lat="40.072842" lon="-105.230575">
  <ele>1586.09</ele>
  <time>2026-08-28T19:13:17Z</time>
  <course>266.03</course>
  <speed>0.0</speed>
  <fix>3d</fix>
</trkpt>
<trkpt lat="40.072842" lon="-105.230575">
  <ele>1586.09</ele>
  <time>2026-08-28T19:13:17Z</time>
  <course>11.66</course>
  <speed>0.03605551275463989</speed>
  <fix>3d</fix>
</trkpt>
<trkpt lat="40.072842" lon="-105.230575">
  <ele>1586.09</ele>
  <time>2026-08-28T19:13:17Z</time>
  <course>266.03</course>
  <speed>0.0</speed>
  <fix>3d</fix>
</trkpt>
<trkpt lat="40.072842" lon="-105.230575">
  <ele>1586.09</ele>
  <time>2026-08-28T19:13:17Z</time>
  <course>11.65</course>
  <speed>0.03605551275463989</speed>
  <fix>3d</fix>
</trkpt>
<trkpt lat="40.072842" lon="-105.230575">
  <ele>1586.09</ele>
  <time>2026-08-28T19:13:17Z</time>
  <course>266.03</course>
  <speed>0.0</speed>
  <fix>3d</fix>
</trkpt>
<trkpt lat="40.072842" lon="-105.230575">
  <ele>1586.09</ele>
  <time>2026-08-28T19:13:17Z</time>
  <course>11.65</course>
  <speed>0.03605551275463989</speed>
  <fix>3d</fix>
</trkpt>
<trkpt lat="40.072842" lon="-105.230575">
  <ele>1586.09</ele>
  <time>2026-08-28T19:13:17Z</time>
  <course>266.03</course>
  <speed>0.0</speed>
  <fix>3d</fix>
</trkpt>
<trkpt lat="40.072842" lon="-105.230575">
  <ele>1586.09</ele>
  <time>2026-08-28T19:13:17Z</time>
  <course>11.64</course>
  <speed>0.03605551275463989</speed>
  <fix>3d</fix>
</trkpt>
<trkpt lat="40.072842" lon="-105.230575">
  <ele>1586.09</ele>
  <time>2026-08-28T19:13:17Z</time>
  <course>266.03</course>
  <speed>0.0</speed>
  <fix>3d</fix>
</trkpt>
<trkpt lat="40.072842" lon="-105.230575">
  <ele>1586.09</ele>
  <time>2026-08-28T19:13:17Z</time>
  <course>11.63</course>
  <speed>0.03605551275463989</speed>
  <fix>3d</fix>
</trkpt>
<trkpt lat="40.072842" lon="-105.230575">
  <ele>1586.09</ele>
  <time>2026-08-28T19:13:17Z</time>
  <course>266.03</course>
  <speed>0.0</speed>
  <fix>3d</fix>
</trkpt>
<trkpt lat="40.072842" lon="-105.230575">
  <ele>1586.09</ele>
  <time>2026-08-28T19:13:17Z</time>
  <course>11.63</course>
  <speed>0.03605551275463989</speed>
  <fix>3d</fix>
</trkpt>
<trkpt lat="40.072842" lon="-105.230575">
  <ele>1586.09</ele>
  <time>2026-08-28T19:13:17Z</time>
  <course>266.03</course>
  <speed>0.0</speed>
  <fix>3d</fix>
</trkpt>
<trkpt lat="40.072842" lon="-105.230575">
  <ele>1586.09</ele>
  <time>2026-08-28T19:13:17Z</time>
  <course>11.62</course>
  <speed>0.03605551275463989</speed>
  <fix>3d</fix>
</trkpt>
<trkpt lat="40.072842" lon="-105.230575">
  <ele>1586.09</ele>
  <time>2026-08-28T19:13:17Z</time>
  <course>266.03</course>
  <speed>0.0</speed>
  <fix>3d</fix>
</trkpt>
<trkpt lat="40.072842" lon="-105.230575">
  <ele>1586.09</ele>
  <time>2026-08-28T19:13:17Z</time>
  <course>11.61</course>
  <speed>0.03605551275463989</speed>
  <fix>3d</fix>
</trkpt>
<trkpt lat="40.072842" lon="-105.230575">
  <ele>1586.09</ele>
  <time>2026-08-28T19:13:17Z</time>
  <course>266.03</course>
  <speed>0.0</speed>
  <fix>3d</fix>
</trkpt>
<trkpt lat="40.072842" lon="-105.230575">
  <ele>1586.09</ele>
  <time>2026-08-28T19:13:17Z</time>
  <course>11.61</course>
  <speed>0.03605551275463989</speed>
  <fix>3d</fix>
</trkpt>
<trkpt lat="40.072842" lon="-105.230575">
  <ele>1586.09</ele>
  <time>2026-08-28T19:13:17Z</time>
  <course>266.03</course>
  <speed>0.0</speed>
  <fix>3d</fix>
</trkpt>
<trkpt lat="40.072842" lon="-105.230575">
  <ele>1586.09</ele>
  <time>2026-08-28T19:13:17Z</time>
  <course>11.6</course>
  <speed>0.03605551275463989</speed>
  <fix>3d</fix>
</trkpt>
<trkpt lat="40.072842" lon="-105.230575">
  <ele>1586.09</ele>
  <time>2026-08-28T19:13:17Z</time>
  <course>266.03</course>
  <speed>0.0</speed>
  <fix>3d</fix>
</trkpt>
<trkpt lat="40.072842" lon="-105.230575">
  <ele>1586.09</ele>
  <time>2026-08-28T19:13:17Z</time>
  <course>11.6</course>
  <speed>0.03605551275463989</speed>
  <fix>3d</fix>
</trkpt>
<trkpt lat="40.072842" lon="-105.230575">
  <ele>1586.09</ele>
  <time>2026-08-28T19:13:17Z</time>
  <course>266.03</course>
  <speed>0.0</speed>
  <fix>3d</fix>
</trkpt>
<trkpt lat="40.072842" lon="-105.230575">
  <ele>1586.09</ele>
  <time>2026-08-28T19:13:17Z</time>
  <course>11.59</course>
  <speed>0.03605551275463989</speed>
  <fix>3d</fix>
</trkpt>
<trkpt lat="40.072842" lon="-105.230575">
  <ele>1586.09</ele>
  <time>2026-08-28T19:13:17Z</time>
  <course>266.03</course>
  <speed>0.0</speed>
  <fix>3d</fix>
</trkpt>
<trkpt lat="40.072842" lon="-105.230575">
  <ele>1586.09</ele>
  <time>2026-08-28T19:13:17Z</time>
  <course>11.58</course>
  <speed>0.03605551275463989</speed>
  <fix>3d</fix>
</trkpt>
<trkpt lat="40.072842" lon="-105.230575">
  <ele>1586.09</ele>
  <time>2026-08-28T19:13:17Z</time>
  <course>266.03</course>
  <speed>0.0</speed>
  <fix>3d</fix>
</trkpt>
<trkpt lat="40.072842" lon="-105.230575">
  <ele>1586.09</ele>
  <time>2026-08-28T19:13:17Z</time>
  <course>11.58</course>
  <speed>0.03605551275463989</speed>
  <fix>3d</fix>
</trkpt>
<trkpt lat="40.072842" lon="-105.230575">
  <ele>1586.09</ele>
  <time>2026-08-28T19:13:17Z</time>
  <course>266.03</course>
  <speed>0.0</speed>
  <fix>3d</fix>
</trkpt>
<trkpt lat="40.072842" lon="-105.230575">
  <ele>1586.09</ele>
  <time>2026-08-28T19:13:17Z</time>
  <course>11.57</course>
  <speed>0.03605551275463989</speed>
  <fix>3d</fix>
</trkpt>
<trkpt lat="40.072842" lon="-105.230575">
  <ele>1586.09</ele>
  <time>2026-08-28T19:13:17Z</time>
  <course>266.03</course>
  <speed>0.0</speed>
  <fix>3d</fix>
</trkpt>
<trkpt lat="40.072842" lon="-105.230575">
  <ele>1586.09</ele>
  <time>2026-08-28T19:13:17Z</time>
  <course>11.56</course>
  <speed>0.03605551275463989</speed>
  <fix>3d</fix>
</trkpt>
<trkpt lat="40.072842" lon="-105.230575">
  <ele>1586.09</ele>
  <time>2026-08-28T19:13:17Z</time>
  <course>266.03</course>
  <speed>0.0</speed>
  <fix>3d</fix>
</trkpt>
<trkpt lat="40.072842" lon="-105.230575">
  <ele>1586.09</ele>
  <time>2026-08-28T19:13:17Z</time>
  <course>11.56</course>
  <speed>0.03605551275463989</speed>
  <fix>3d</fix>
</trkpt>
<trkpt lat="40.072842" lon="-105.230575">
  <ele>1586.09</ele>
  <time>2026-08-28T19:13:17Z</time>
  <course>266.03</course>
  <speed>0.0</speed>
  <fix>3d</fix>
</trkpt>
<trkpt lat="40.072842" lon="-105.230575">
  <ele>1586.09</ele>
  <time>2026-08-28T19:13:17Z</time>
  <course>11.55</course>
  <speed>0.03605551275463989</speed>
  <fix>3d</fix>
</trkpt>
<trkpt lat="40.072842" lon="-105.230575">
  <ele>1586.09</ele>
  <time>2026-08-28T19:13:17Z</time>
  <course>266.03</course>
  <speed>0.0</speed>
  <fix>3d</fix>
</trkpt>
<trkpt lat="40.072842" lon="-105.230575">
  <ele>1586.09</ele>
  <time>2026-08-28T19:13:17Z</time>
  <course>11.55</course>
  <speed>0.03605551275463989</speed>
  <fix>3d</fix>
</trkpt>
<trkpt lat="40.072842" lon="-105.230575">
  <ele>1586.09</ele>
  <time>2026-08-28T19:13:17Z</time>
  <course>266.03</course>
  <speed>0.0</speed>
  <fix>3d</fix>
</trkpt>
<trkpt lat="40.072842" lon="-105.230575">
  <ele>1586.09</ele>
  <time>2026-08-28T19:13:17Z</time>
  <course>11.54</course>
  <speed>0.03605551275463989</speed>
  <fix>3d</fix>
</trkpt>
<trkpt lat="40.072842" lon="-105.230575">
  <ele>1586.09</ele>
  <time>2026-08-28T19:13:17Z</time>
  <course>266.03</course>
  <speed>0.0</speed>
  <fix>3d</fix>
</trkpt>
<trkpt lat="40.072842" lon="-105.230575">
  <ele>1586.09</ele>
  <time>2026-08-28T19:13:17Z</time>
  <course>11.53</course>
  <speed>0.03605551275463989</speed>
  <fix>3d</fix>
</trkpt>
<trkpt lat="40.072842" lon="-105.230575">
  <ele>1586.09</ele>
  <time>2026-08-28T19:13:17Z</time>
  <course>266.03</course>
  <speed>0.0</speed>
  <fix>3d</fix>
</trkpt>
<trkpt lat="40.072842" lon="-105.230575">
  <ele>1586.09</ele>
  <time>2026-08-28T19:13:17Z</time>
  <course>11.53</course>
  <speed>0.03605551275463989</speed>
  <fix>3d</fix>
</trkpt>
<trkpt lat="40.072842" lon="-105.230575">
  <ele>1586.09</ele>
  <time>2026-08-28T19:13:17Z</time>
  <course>266.03</course>
  <speed>0.0</speed>
  <fix>3d</fix>
</trkpt>
<trkpt lat="40.072842" lon="-105.230575">
  <ele>1586.09</ele>
  <time>2026-08-28T19:13:17Z</time>
  <course>11.52</course>
  <speed>0.03605551275463989</speed>
  <fix>3d</fix>
</trkpt>
<trkpt lat="40.072842" lon="-105.230575">
  <ele>1586.09</ele>
  <time>2026-08-28T19:13:17Z</time>
  <course>266.03</course>
  <speed>0.0</speed>
  <fix>3d</fix>
</trkpt>
<trkpt lat="40.072842" lon="-105.230575">
  <ele>1586.09</ele>
  <time>2026-08-28T19:13:17Z</time>
  <course>11.52</course>
  <speed>0.03605551275463989</speed>
  <fix>3d</fix>
</trkpt>
<trkpt lat="40.072842" lon="-105.230575">
  <ele>1586.09</ele>
  <time>2026-08-28T19:13:17Z</time>
  <course>266.03</course>
  <speed>0.0</speed>
  <fix>3d</fix>
</trkpt>
<trkpt lat="40.072842" lon="-105.230575">
  <ele>1586.09</ele>
  <time>2026-08-28T19:13:17Z</time>
  <course>11.51</course>
  <speed>0.03605551275463989</speed>
  <fix>3d</fix>
</trkpt>
<trkpt lat="40.072842" lon="-105.230575">
  <ele>1586.09</ele>
  <time>2026-08-28T19:13:17Z</time>
  <course>266.03</course>
  <speed>0.0</speed>
  <fix>3d</fix>
</trkpt>
<trkpt lat="40.072842" lon="-105.230575">
  <ele>1586.09</ele>
  <time>2026-08-28T19:13:17Z</time>
  <course>11.51</course>
  <speed>0.044721359549995794</speed>
  <fix>3d</fix>
</trkpt>
<trkpt lat="40.072842" lon="-105.230575">
  <ele>1586.09</ele>
  <time>2026-08-28T19:13:17Z</time>
  <course>266.03</course>
  <speed>0.0</speed>
  <fix>3d</fix>
</trkpt>
<trkpt lat="40.072842" lon="-105.230575">
  <ele>1586.09</ele>
  <time>2026-08-28T19:13:17Z</time>
  <course>11.5</course>
  <speed>0.044721359549995794</speed>
  <fix>3d</fix>
</trkpt>
<trkpt lat="40.072842" lon="-105.230575">
  <ele>1586.09</ele>
  <time>2026-08-28T19:13:17Z</time>
  <course>266.03</course>
  <speed>0.0</speed>
  <fix>3d</fix>
</trkpt>
<trkpt lat="40.072842" lon="-105.230575">
  <ele>1586.09</ele>
  <time>2026-08-28T19:13:17Z</time>
  <course>11.49</course>
  <speed>0.044721359549995794</speed>
  <fix>3d</fix>
</trkpt>
<trkpt lat="40.072842" lon="-105.230575">
  <ele>1586.09</ele>
  <time>2026-08-28T19:13:17Z</time>
  <course>266.03</course>
  <speed>0.0</speed>
  <fix>3d</fix>
</trkpt>
<trkpt lat="40.072842" lon="-105.230575">
  <ele>1586.09</ele>
  <time>2026-08-28T19:13:17Z</time>
  <course>11.49</course>
  <speed>0.044721359549995794</speed>
  <fix>3d</fix>
</trkpt>
<trkpt lat="40.072842" lon="-105.230575">
  <ele>1586.09</ele>
  <time>2026-08-28T19:13:17Z</time>
  <course>266.03</course>
  <speed>0.0</speed>
  <fix>3d</fix>
</trkpt>
<trkpt lat="40.072842" lon="-105.230575">
  <ele>1586.09</ele>
  <time>2026-08-28T19:13:17Z</time>
  <course>11.48</course>
  <speed>0.044721359549995794</speed>
  <fix>3d</fix>
</trkpt>
<trkpt lat="40.072842" lon="-105.230575">
  <ele>1586.09</ele>
  <time>2026-08-28T19:13:17Z</time>
  <course>266.03</course>
  <speed>0.0</speed>
  <fix>3d</fix>
</trkpt>
<trkpt lat="40.072842" lon="-105.230575">
  <ele>1586.09</ele>
  <time>2026-08-28T19:13:17Z</time>
  <course>11.48</course>
  <speed>0.044721359549995794</speed>
  <fix>3d</fix>
</trkpt>
<trkpt lat="40.072842" lon="-105.230575">
  <ele>1586.09</ele>
  <time>2026-08-28T19:13:17Z</time>
  <course>266.03</course>
  <speed>0.0</speed>
  <fix>3d</fix>
</trkpt>
<trkpt lat="40.072842" lon="-105.230575">
  <ele>1586.09</ele>
  <time>2026-08-28T19:13:17Z</time>
  <course>11.47</course>
  <speed>0.044721359549995794</speed>
  <fix>3d</fix>
</trkpt>
<trkpt lat="40.072842" lon="-105.230575">
  <ele>1586.09</ele>
  <time>2026-08-28T19:13:17Z</time>
  <course>266.03</course>
  <speed>0.0</speed>
  <fix>3d</fix>
</trkpt>
<trkpt lat="40.072842" lon="-105.230575">
  <ele>1586.09</ele>
  <time>2026-08-28T19:13:17Z</time>
  <course>11.47</course>
  <speed>0.044721359549995794</speed>
  <fix>3d</fix>
</trkpt>
<trkpt lat="40.072842" lon="-105.230575">
  <ele>1586.09</ele>
  <time>2026-08-28T19:13:17Z</time>
  <course>266.03</course>
  <speed>0.0</speed>
  <fix>3d</fix>
</trkpt>
<trkpt lat="40.072842" lon="-105.230575">
  <ele>1586.09</ele>
  <time>2026-08-28T19:13:17Z</time>
  <course>11.46</course>
  <speed>0.044721359549995794</speed>
  <fix>3d</fix>
</trkpt>
<trkpt lat="40.072842" lon="-105.230575">
  <ele>1586.09</ele>
  <time>2026-08-28T19:13:17Z</time>
  <course>266.03</course>
  <speed>0.0</speed>
  <fix>3d</fix>
</trkpt>
<trkpt lat="40.072842" lon="-105.230575">
  <ele>1586.09</ele>
  <time>2026-08-28T19:13:17Z</time>
  <course>11.46</course>
  <speed>0.044721359549995794</speed>
  <fix>3d</fix>
</trkpt>
<trkpt lat="40.072842" lon="-105.230575">
  <ele>1586.09</ele>
  <time>2026-08-28T19:13:17Z</time>
  <course>266.03</course>
  <speed>0.0</speed>
  <fix>3d</fix>
</trkpt>
<trkpt lat="40.072842" lon="-105.230575">
  <ele>1586.16</ele>
  <time>2026-08-28T19:13:17Z</time>
  <course>11.45</course>
  <speed>0.0</speed>
  <fix>3d</fix>
</trkpt>
<trkpt lat="40.072842" lon="-105.230575">
  <ele>1586.09</ele>
  <time>2026-08-28T19:13:17Z</time>
  <course>297.19</course>
  <speed>0.0</speed>
  <fix>3d</fix>
</trkpt>
<trkpt lat="40.072842" lon="-105.230575">
  <ele>1586.16</ele>
  <time>2026-08-28T19:13:17Z</time>
  <course>11.45</course>
  <speed>0.0</speed>
  <fix>3d</fix>
</trkpt>
<trkpt lat="40.072842" lon="-105.230575">
  <ele>1586.09</ele>
  <time>2026-08-28T19:13:17Z</time>
  <course>269.87</course>
  <speed>0.0</speed>
  <fix>3d</fix>
</trkpt>
<trkpt lat="40.072842" lon="-105.230575">
  <ele>1586.16</ele>
  <time>2026-08-28T19:13:17Z</time>
  <course>11.44</course>
  <speed>0.0</speed>
  <fix>3d</fix>
</trkpt>
<trkpt lat="40.072842" lon="-105.230575">
  <ele>1586.09</ele>
  <time>2026-08-28T19:13:17Z</time>
  <course>241.23</course>
  <speed>0.0</speed>
  <fix>3d</fix>
</trkpt>
<trkpt lat="40.072842" lon="-105.230575">
  <ele>1586.16</ele>
  <time>2026-08-28T19:13:17Z</time>
  <course>11.44</course>
  <speed>0.0</speed>
  <fix>3d</fix>
</trkpt>
<trkpt lat="40.072842" lon="-105.230575">
  <ele>1586.09</ele>
  <time>2026-08-28T19:13:17Z</time>
  <course>93.08</course>
  <speed>0.0</speed>
  <fix>3d</fix>
</trkpt>
<trkpt lat="40.072842" lon="-105.230575">
  <ele>1586.17</ele>
  <time>2026-08-28T19:13:17Z</time>
  <course>11.44</course>
  <speed>0.0</speed>
  <fix>3d</fix>
</trkpt>
<trkpt lat="40.072842" lon="-105.230575">
  <ele>1586.09</ele>
  <time>2026-08-28T19:13:17Z</time>
  <course>317.31</course>
  <speed>0.0</speed>
  <fix>3d</fix>
</trkpt>
<trkpt lat="40.072842" lon="-105.230575">
  <ele>1586.17</ele>
  <time>2026-08-28T19:13:17Z</time>
  <course>11.43</course>
  <speed>0.01</speed>
  <fix>3d</fix>
</trkpt>
<trkpt lat="40.072842" lon="-105.230575">
  <ele>1586.09</ele>
  <time>2026-08-28T19:13:17Z</time>
  <course>265.24</course>
  <speed>0.0</speed>
  <fix>3d</fix>
</trkpt>
<trkpt lat="40.072842" lon="-105.230575">
  <ele>1586.17</ele>
  <time>2026-08-28T19:13:17Z</time>
  <course>11.43</course>
  <speed>0.01</speed>
  <fix>3d</fix>
</trkpt>
<trkpt lat="40.072842" lon="-105.230575">
  <ele>1586.09</ele>
  <time>2026-08-28T19:13:17Z</time>
  <course>261.76</course>
  <speed>0.0</speed>
  <fix>3d</fix>
</trkpt>
<trkpt lat="40.072842" lon="-105.230575">
  <ele>1586.17</ele>
  <time>2026-08-28T19:13:17Z</time>
  <course>11.42</course>
  <speed>0.01</speed>
  <fix>3d</fix>
</trkpt>
<trkpt lat="40.072842" lon="-105.230575">
  <ele>1586.09</ele>
  <time>2026-08-28T19:13:17Z</time>
  <course>266.78</course>
  <speed>0.0</speed>
  <fix>3d</fix>
</trkpt>
<trkpt lat="40.072842" lon="-105.230575">
  <ele>1586.17</ele>
  <time>2026-08-28T19:13:17Z</time>
  <course>11.42</course>
  <speed>0.01414213562373095</speed>
  <fix>3d</fix>
</trkpt>
<trkpt lat="40.072842" lon="-105.230575">
  <ele>1586.09</ele>
  <time>2026-08-28T19:13:17Z</time>
  <course>266.53</course>
  <speed>0.0</speed>
  <fix>3d</fix>
</trkpt>
<trkpt lat="40.072842" lon="-105.230575">
  <ele>1586.17</ele>
  <time>2026-08-28T19:13:17Z</time>
  <course>11.42</course>
  <speed>0.01414213562373095</speed>
  <fix>3d</fix>
</trkpt>
<trkpt lat="40.072842" lon="-105.230575">
  <ele>1586.09</ele>
  <time>2026-08-28T19:13:17Z</time>
  <course>265.88</course>
  <speed>0.0</speed>
  <fix>3d</fix>
</trkpt>
<trkpt lat="40.072842" lon="-105.230575">
  <ele>1586.17</ele>
  <time>2026-08-28T19:13:17Z</time>
  <course>11.41</course>
  <speed>0.01414213562373095</speed>
  <fix>3d</fix>
</trkpt>
<trkpt lat="40.072842" lon="-105.230575">
  <ele>1586.09</ele>
  <time>2026-08-28T19:13:17Z</time>
  <course>265.99</course>
  <speed>0.0</speed>
  <fix>3d</fix>
</trkpt>
<trkpt lat="40.072842" lon="-105.230575">
  <ele>1586.17</ele>
  <time>2026-08-28T19:13:17Z</time>
  <course>11.41</course>
  <speed>0.022360679774997897</speed>
  <fix>3d</fix>
</trkpt>
<trkpt lat="40.072842" lon="-105.230575">
  <ele>1586.09</ele>
  <time>2026-08-28T19:13:17Z</time>
  <course>266.06</course>
  <speed>0.0</speed>
  <fix>3d</fix>
</trkpt>
<trkpt lat="40.072842" lon="-105.230575">
  <ele>1586.17</ele>
  <time>2026-08-28T19:13:17Z</time>
  <course>11.4</course>
  <speed>0.022360679774997897</speed>
  <fix>3d</fix>
</trkpt>
<trkpt lat="40.072842" lon="-105.230575">
  <ele>1586.09</ele>
  <time>2026-08-28T19:13:17Z</time>
  <course>266.04</course>
  <speed>0.0</speed>
  <fix>3d</fix>
</trkpt>
<trkpt lat="40.072842" lon="-105.230575">
  <ele>1586.17</ele>
  <time>2026-08-28T19:13:17Z</time>
  <course>11.4</course>
  <speed>0.022360679774997897</speed>
  <fix>3d</fix>
</trkpt>
<trkpt lat="40.072842" lon="-105.230575">
  <ele>1586.09</ele>
  <time>2026-08-28T19:13:17Z</time>
  <course>266.03</course>
  <speed>0.0</speed>
  <fix>3d</fix>
</trkpt>
<trkpt lat="40.072842" lon="-105.230575">
  <ele>1586.17</ele>
  <time>2026-08-28T19:13:17Z</time>
  <course>11.4</course>
  <speed>0.022360679774997897</speed>
  <fix>3d</fix>
</trkpt>
<trkpt lat="40.072842" lon="-105.230575">
  <ele>1586.09</ele>
  <time>2026-08-28T19:13:17Z</time>
  <course>266.04</course>
  <speed>0.0</speed>
  <fix>3d</fix>
</trkpt>
<trkpt lat="40.0728419" lon="-105.230575">
  <ele>1586.17</ele>
  <time>2026-08-28T19:13:17Z</time>
  <course>11.39</course>
  <speed>0.022360679774997897</speed>
  <fix>3d</fix>
</trkpt>
<trkpt lat="40.072842" lon="-105.230575">
  <ele>1586.09</ele>
  <time>2026-08-28T19:13:17Z</time>
  <course>223.26</course>
  <speed>0.0</speed>
  <fix>3d</fix>
</trkpt>
<trkpt lat="40.0728419" lon="-105.2305749">
  <ele>1586.17</ele>
  <time>2026-08-28T19:13:17Z</time>
  <course>11.39</course>
  <speed>0.022360679774997897</speed>
  <fix>3d</fix>
</trkpt>
<trkpt lat="40.072842" lon="-105.230575">
  <ele>1586.09</ele>
  <time>2026-08-28T19:13:17Z</time>
  <course>208.38</course>
  <speed>0.0</speed>
  <fix>3d</fix>
</trkpt>
<trkpt lat="40.0728419" lon="-105.2305749">
  <ele>1586.17</ele>
  <time>2026-08-28T19:13:17Z</time>
  <course>11.38</course>
  <speed>0.022360679774997897</speed>
  <fix>3d</fix>
</trkpt>
<trkpt lat="40.072842" lon="-105.230575">
  <ele>1586.09</ele>
  <time>2026-08-28T19:13:17Z</time>
  <course>165.97</course>
  <speed>0.0</speed>
  <fix>3d</fix>
</trkpt>
<trkpt lat="40.0728419" lon="-105.2305749">
  <ele>1586.18</ele>
  <time>2026-08-28T19:13:17Z</time>
  <course>11.38</course>
  <speed>0.022360679774997897</speed>
  <fix>3d</fix>
</trkpt>
<trkpt lat="40.072842" lon="-105.230575">
  <ele>1586.09</ele>
  <time>2026-08-28T19:13:17Z</time>
  <course>357.7</course>
  <speed>0.0</speed>
  <fix>3d</fix>
</trkpt>
<trkpt lat="40.0728419" lon="-105.2305749">
  <ele>1586.18</ele>
  <time>2026-08-28T19:13:17Z</time>
  <course>11.37</course>
  <speed>0.022360679774997897</speed>
  <fix>3d</fix>
</trkpt>
<trkpt lat="40.072842" lon="-105.230575">
  <ele>1586.09</ele>
  <time>2026-08-28T19:13:17Z</time>
  <course>254.86</course>
  <speed>0.0</speed>
  <fix>3d</fix>
</trkpt>
<trkpt lat="40.0728419" lon="-105.2305749">
  <ele>1586.18</ele>
  <time>2026-08-28T19:13:17Z</time>
  <course>11.37</course>
  <speed>0.022360679774997897</speed>
  <fix>3d</fix>
</trkpt>
<trkpt lat="40.072842" lon="-105.230575">
  <ele>1586.09</ele>
  <time>2026-08-28T19:13:17Z</time>
  <course>46.25</course>
  <speed>0.0</speed>
  <fix>3d</fix>
</trkpt>
<trkpt lat="40.0728419" lon="-105.2305749">
  <ele>1586.17</ele>
  <time>2026-08-28T19:13:17Z</time>
  <course>11.37</course>
  <speed>0.022360679774997897</speed>
  <fix>3d</fix>
</trkpt>
<trkpt lat="40.072842" lon="-105.230575">
  <ele>1586.09</ele>
  <time>2026-08-28T19:13:17Z</time>
  <course>24.38</course>
  <speed>0.0</speed>
  <fix>3d</fix>
</trkpt>
<trkpt lat="40.0728419" lon="-105.2305749">
  <ele>1586.17</ele>
  <time>2026-08-28T19:13:17Z</time>
  <course>11.36</course>
  <speed>0.022360679774997897</speed>
  <fix>3d</fix>
</trkpt>
<trkpt lat="40.072842" lon="-105.230575">
  <ele>1586.09</ele>
  <time>2026-08-28T19:13:17Z</time>
  <course>336.73</course>
  <speed>0.0</speed>
  <fix>3d</fix>
</trkpt>
<trkpt lat="40.0728419" lon="-105.2305749">
  <ele>1586.17</ele>
  <time>2026-08-28T19:13:17Z</time>
  <course>11.36</course>
  <speed>0.022360679774997897</speed>
  <fix>3d</fix>
</trkpt>
<trkpt lat="40.072842" lon="-105.230575">
  <ele>1586.09</ele>
  <time>2026-08-28T19:13:17Z</time>
  <course>213.83</course>
  <speed>0.0</speed>
  <fix>3d</fix>
</trkpt>
<trkpt lat="40.0728419" lon="-105.2305749">
  <ele>1586.17</ele>
  <time>2026-08-28T19:13:17Z</time>
  <course>11.35</course>
  <speed>0.022360679774997897</speed>
  <fix>3d</fix>
</trkpt>
<trkpt lat="40.072842" lon="-105.230575">
  <ele>1586.09</ele>
  <time>2026-08-28T19:13:17Z</time>
  <course>231.44</course>
  <speed>0.0</speed>
  <fix>3d</fix>
</trkpt>
<trkpt lat="40.0728419" lon="-105.2305749">
  <ele>1586.16</ele>
  <time>2026-08-28T19:13:17Z</time>
  <course>11.35</course>
  <speed>0.01414213562373095</speed>
  <fix>3d</fix>
</trkpt>
<trkpt lat="40.072842" lon="-105.230575">
  <ele>1586.09</ele>
  <time>2026-08-28T19:13:17Z</time>
  <course>297.82</course>
  <speed>0.0</speed>
  <fix>3d</fix>
</trkpt>
<trkpt lat="40.0728419" lon="-105.2305749">
  <ele>1586.16</ele>
  <time>2026-08-28T19:13:17Z</time>
  <course>11.34</course>
  <speed>0.01414213562373095</speed>
  <fix>3d</fix>
</trkpt>
<trkpt lat="40.072842" lon="-105.230575">
  <ele>1586.09</ele>
  <time>2026-08-28T19:13:17Z</time>
  <course>265.92</course>
  <speed>0.0</speed>
  <fix>3d</fix>
</trkpt>
<trkpt lat="40.0728419" lon="-105.2305749">
  <ele>1586.16</ele>
  <time>2026-08-28T19:13:17Z</time>
  <course>11.34</course>
  <speed>0.01414213562373095</speed>
  <fix>3d</fix>
</trkpt>
<trkpt lat="40.072842" lon="-105.230575">
  <ele>1586.09</ele>
  <time>2026-08-28T19:13:17Z</time>
  <course>113.24</course>
  <speed>0.0</speed>
  <fix>3d</fix>
</trkpt>
<trkpt lat="40.0728419" lon="-105.2305749">
  <ele>1586.16</ele>
  <time>2026-08-28T19:13:17Z</time>
  <course>11.33</course>
  <speed>0.01414213562373095</speed>
  <fix>3d</fix>
</trkpt>
<trkpt lat="40.072842" lon="-105.230575">
  <ele>1586.09</ele>
  <time>2026-08-28T19:13:17Z</time>
  <course>92.1</course>
  <speed>0.0</speed>
  <fix>3d</fix>
</trkpt>
<trkpt lat="40.0728419" lon="-105.2305749">
  <ele>1586.16</ele>
  <time>2026-08-28T19:13:17Z</time>
  <course>11.33</course>
  <speed>0.01414213562373095</speed>
  <fix>3d</fix>
</trkpt>
<trkpt lat="40.072842" lon="-105.230575">
  <ele>1586.09</ele>
  <time>2026-08-28T19:13:17Z</time>
  <course>40.65</course>
  <speed>0.0</speed>
  <fix>3d</fix>
</trkpt>
<trkpt lat="40.0728419" lon="-105.2305749">
  <ele>1586.15</ele>
  <time>2026-08-28T19:13:17Z</time>
  <course>11.32</course>
  <speed>0.01414213562373095</speed>
  <fix>3d</fix>
</trkpt>
<trkpt lat="40.072842" lon="-105.230575">
  <ele>1586.09</ele>
  <time>2026-08-28T19:13:17Z</time>
  <course>266.79</course>
  <speed>0.0</speed>
  <fix>3d</fix>
</trkpt>
<trkpt lat="40.0728419" lon="-105.2305749">
  <ele>1586.15</ele>
  <time>2026-08-28T19:13:17Z</time>
  <course>11.32</course>
  <speed>0.01</speed>
  <fix>3d</fix>
</trkpt>
<trkpt lat="40.072842" lon="-105.230575">
  <ele>1586.09</ele>
  <time>2026-08-28T19:13:17Z</time>
  <course>228.24</course>
  <speed>0.0</speed>
  <fix>3d</fix>
</trkpt>
<trkpt lat="40.0728419" lon="-105.2305749">
  <ele>1586.15</ele>
  <time>2026-08-28T19:13:17Z</time>
  <course>11.31</course>
  <speed>0.01</speed>
  <fix>3d</fix>
</trkpt>
<trkpt lat="40.072842" lon="-105.230575">
  <ele>1586.09</ele>
  <time>2026-08-28T19:13:17Z</time>
  <course>34.28</course>
  <speed>0.0</speed>
  <fix>3d</fix>
</trkpt>
<trkpt lat="40.0728419" lon="-105.2305749">
  <ele>1586.15</ele>
  <time>2026-08-28T19:13:17Z</time>
  <course>11.31</course>
  <speed>0.0</speed>
  <fix>3d</fix>
</trkpt>
<trkpt lat="40.072842" lon="-105.230575">
  <ele>1586.09</ele>
  <time>2026-08-28T19:13:17Z</time>
  <course>273.13</course>
  <speed>0.0</speed>
  <fix>3d</fix>
</trkpt>
<trkpt lat="40.0728419" lon="-105.2305749">
  <ele>1586.15</ele>
  <time>2026-08-28T19:13:17Z</time>
  <course>11.31</course>
  <speed>0.0</speed>
  <fix>3d</fix>
</trkpt>
<trkpt lat="40.072842" lon="-105.230575">
  <ele>1586.09</ele>
  <time>2026-08-28T19:13:17Z</time>
  <course>264.4</course>
  <speed>0.0</speed>
  <fix>3d</fix>
</trkpt>
<trkpt lat="40.0728419" lon="-105.2305749">
  <ele>1586.15</ele>
  <time>2026-08-28T19:13:17Z</time>
  <course>11.3</course>
  <speed>0.0</speed>
  <fix>3d</fix>
</trkpt>
<trkpt lat="40.072842" lon="-105.230575">
  <ele>1586.09</ele>
  <time>2026-08-28T19:13:17Z</time>
  <course>265.21</course>
  <speed>0.0</speed>
  <fix>3d</fix>
</trkpt>
<trkpt lat="40.0728419" lon="-105.2305749">
  <ele>1586.16</ele>
  <time>2026-08-28T19:13:17Z</time>
  <course>11.3</course>
  <speed>0.0</speed>
  <fix>3d</fix>
</trkpt>
<trkpt lat="40.072842" lon="-105.230575">
  <ele>1586.09</ele>
  <time>2026-08-28T19:13:17Z</time>
  <course>266.38</course>
  <speed>0.0</speed>
  <fix>3d</fix>
</trkpt>
<trkpt lat="40.0728419" lon="-105.2305749">
  <ele>1586.16</ele>
  <time>2026-08-28T19:13:17Z</time>
  <course>11.29</course>
  <speed>0.0</speed>
  <fix>3d</fix>
</trkpt>
<trkpt lat="40.072842" lon="-105.230575">
  <ele>1586.09</ele>
  <time>2026-08-28T19:13:17Z</time>
  <course>266.1</course>
  <speed>0.0</speed>
  <fix>3d</fix>
</trkpt>
<trkpt lat="40.0728419" lon="-105.2305749">
  <ele>1586.16</ele>
  <time>2026-08-28T19:13:17Z</time>
  <course>11.29</course>
  <speed>0.0</speed>
  <fix>3d</fix>
</trkpt>
<trkpt lat="40.072842" lon="-105.230575">
  <ele>1586.09</ele>
  <time>2026-08-28T19:13:17Z</time>
  <course>265.98</course>
  <speed>0.0</speed>
  <fix>3d</fix>
</trkpt>
<trkpt lat="40.0728419" lon="-105.2305749">
  <ele>1586.16</ele>
  <time>2026-08-28T19:13:17Z</time>
  <course>11.28</course>
  <speed>0.0</speed>
  <fix>3d</fix>
</trkpt>
<trkpt lat="40.072842" lon="-105.230575">
  <ele>1586.09</ele>
  <time>2026-08-28T19:13:17Z</time>
  <course>266.03</course>
  <speed>0.0</speed>
  <fix>3d</fix>
</trkpt>
<trkpt lat="40.0728419" lon="-105.2305749">
  <ele>1586.15</ele>
  <time>2026-08-28T19:13:17Z</time>
  <course>11.28</course>
  <speed>0.0</speed>
  <fix>3d</fix>
</trkpt>
<trkpt lat="40.072842" lon="-105.230575">
  <ele>1586.09</ele>
  <time>2026-08-28T19:13:17Z</time>
  <course>291.92</course>
  <speed>0.0</speed>
  <fix>3d</fix>
</trkpt>
<trkpt lat="40.0728419" lon="-105.2305749">
  <ele>1586.15</ele>
  <time>2026-08-28T19:13:17Z</time>
  <course>11.28</course>
  <speed>0.0</speed>
  <fix>3d</fix>
</trkpt>
<trkpt lat="40.072842" lon="-105.230575">
  <ele>1586.09</ele>
  <time>2026-08-28T19:13:17Z</time>
  <course>271.42</course>
  <speed>0.0</speed>
  <fix>3d</fix>
</trkpt>
<trkpt lat="40.0728419" lon="-105.2305749">
  <ele>1586.14</ele>
  <time>2026-08-28T19:13:17Z</time>
  <course>11.27</course>
  <speed>0.0</speed>
  <fix>3d</fix>
</trkpt>
<trkpt lat="40.072842" lon="-105.230575">
  <ele>1586.09</ele>
  <time>2026-08-28T19:13:17Z</time>
  <course>234.21</course>
  <speed>0.0</speed>
  <fix>3d</fix>
</trkpt>
<trkpt lat="40.0728419" lon="-105.2305749">
  <ele>1586.14</ele>
  <time>2026-08-28T19:13:17Z</time>
  <course>11.27</course>
  <speed>0.0</speed>
  <fix>3d</fix>
</trkpt>
<trkpt lat="40.072842" lon="-105.230575">
  <ele>1586.09</ele>
  <time>2026-08-28T19:13:17Z</time>
  <course>87.29</course>
  <speed>0.0</speed>
  <fix>3d</fix>
</trkpt>
<trkpt lat="40.0728419" lon="-105.2305749">
  <ele>1586.15</ele>
  <time>2026-08-28T19:13:17Z</time>
  <course>11.27</course>
  <speed>0.0</speed>
  <fix>3d</fix>
</trkpt>
<trkpt lat="40.072842" lon="-105.230575">
  <ele>1586.09</ele>
  <time>2026-08-28T19:13:17Z</time>
  <course>300.8</course>
  <speed>0.0</speed>
  <fix>3d</fix>
</trkpt>
<trkpt lat="40.0728419" lon="-105.2305749">
  <ele>1586.16</ele>
  <time>2026-08-28T19:13:17Z</time>
  <course>11.26</course>
  <speed>0.0</speed>
  <fix>3d</fix>
</trkpt>
<trkpt lat="40.072842" lon="-105.230575">
  <ele>1586.09</ele>
  <time>2026-08-28T19:13:17Z</time>
  <course>264.05</course>
  <speed>0.0</speed>
  <fix>3d</fix>
</trkpt>
<trkpt lat="40.0728419" lon="-105.2305749">
  <ele>1586.16</ele>
  <time>2026-08-28T19:13:17Z</time>
  <course>11.26</course>
  <speed>0.0</speed>
  <fix>3d</fix>
</trkpt>
<trkpt lat="40.072842" lon="-105.230575">
  <ele>1586.09</ele>
  <time>2026-08-28T19:13:17Z</time>
  <course>262.26</course>
  <speed>0.0</speed>
  <fix>3d</fix>
</trkpt>
<trkpt lat="40.0728419" lon="-105.2305749">
  <ele>1586.17</ele>
  <time>2026-08-28T19:13:17Z</time>
  <course>11.26</course>
  <speed>0.0</speed>
  <fix>3d</fix>
</trkpt>
<trkpt lat="40.072842" lon="-105.230575">
  <ele>1586.09</ele>
  <time>2026-08-28T19:13:17Z</time>
  <course>266.93</course>
  <speed>0.0</speed>
  <fix>3d</fix>
</trkpt>
<trkpt lat="40.0728419" lon="-105.2305749">
  <ele>1586.17</ele>
  <time>2026-08-28T19:13:17Z</time>
  <course>11.25</course>
  <speed>0.0</speed>
  <fix>3d</fix>
</trkpt>
<trkpt lat="40.072842" lon="-105.230575">
  <ele>1586.09</ele>
  <time>2026-08-28T19:13:17Z</time>
  <course>266.42</course>
  <speed>0.0</speed>
  <fix>3d</fix>
</trkpt>
<trkpt lat="40.0728419" lon="-105.2305749">
  <ele>1586.17</ele>
  <time>2026-08-28T19:13:17Z</time>
  <course>11.25</course>
  <speed>0.0</speed>
  <fix>3d</fix>
</trkpt>
<trkpt lat="40.072842" lon="-105.230575">
  <ele>1586.09</ele>
  <time>2026-08-28T19:13:17Z</time>
  <course>265.88</course>
  <speed>0.0</speed>
  <fix>3d</fix>
</trkpt>
<trkpt lat="40.0728419" lon="-105.2305749">
  <ele>1586.17</ele>
  <time>2026-08-28T19:13:17Z</time>
  <course>11.25</course>
  <speed>0.0</speed>
  <fix>3d</fix>
</trkpt>
<trkpt lat="40.072842" lon="-105.230575">
  <ele>1586.09</ele>
  <time>2026-08-28T19:13:17Z</time>
  <course>261.33</course>
  <speed>0.0</speed>
  <fix>3d</fix>
</trkpt>
<trkpt lat="40.0728419" lon="-105.2305749">
  <ele>1586.17</ele>
  <time>2026-08-28T19:13:17Z</time>
  <course>11.25</course>
  <speed>0.0</speed>
  <fix>3d</fix>
</trkpt>
<trkpt lat="40.072842" lon="-105.230575">
  <ele>1586.09</ele>
  <time>2026-08-28T19:13:17Z</time>
  <course>200.7</course>
  <speed>0.0</speed>
  <fix>3d</fix>
</trkpt>
<trkpt lat="40.0728419" lon="-105.2305749">
  <ele>1586.17</ele>
  <time>2026-08-28T19:13:17Z</time>
  <course>11.25</course>
  <speed>0.0</speed>
  <fix>3d</fix>
</trkpt>
<trkpt lat="40.072842" lon="-105.230575">
  <ele>1586.09</ele>
  <time>2026-08-28T19:13:17Z</time>
  <course>192.93</course>
  <speed>0.0</speed>
  <fix>3d</fix>
</trkpt>
<trkpt lat="40.0728419" lon="-105.2305749">
  <ele>1586.17</ele>
  <time>2026-08-28T19:13:17Z</time>
  <course>11.24</course>
  <speed>0.0</speed>
  <fix>3d</fix>
</trkpt>
<trkpt lat="40.072842" lon="-105.230575">
  <ele>1586.09</ele>
  <time>2026-08-28T19:13:17Z</time>
  <course>29.8</course>
  <speed>0.0</speed>
  <fix>3d</fix>
</trkpt>
<trkpt lat="40.0728419" lon="-105.2305749">
  <ele>1586.17</ele>
  <time>2026-08-28T19:13:17Z</time>
  <course>11.24</course>
  <speed>0.01</speed>
  <fix>3d</fix>
</trkpt>
<trkpt lat="40.072842" lon="-105.230575">
  <ele>1586.09</ele>
  <time>2026-08-28T19:13:17Z</time>
  <course>310.15</course>
  <speed>0.0</speed>
  <fix>3d</fix>
</trkpt>
<trkpt lat="40.0728419" lon="-105.2305749">
  <ele>1586.17</ele>
  <time>2026-08-28T19:13:17Z</time>
  <course>11.24</course>
  <speed>0.01</speed>
  <fix>3d</fix>
</trkpt>
<trkpt lat="40.072842" lon="-105.230575">
  <ele>1586.09</ele>
  <time>2026-08-28T19:13:17Z</time>
  <course>233.67</course>
  <speed>0.0</speed>
  <fix>3d</fix>
</trkpt>
<trkpt lat="40.0728419" lon="-105.2305749">
  <ele>1586.17</ele>
  <time>2026-08-28T19:13:17Z</time>
  <course>11.24</course>
  <speed>0.01</speed>
  <fix>3d</fix>
</trkpt>
<trkpt lat="40.072842" lon="-105.230575">
  <ele>1586.09</ele>
  <time>2026-08-28T19:13:17Z</time>
  <course>238.24</course>
  <speed>0.0</speed>
  <fix>3d</fix>
</trkpt>
<trkpt lat="40.0728419" lon="-105.2305749">
  <ele>1586.17</ele>
  <time>2026-08-28T19:13:17Z</time>
  <course>11.24</course>
  <speed>0.01</speed>
  <fix>3d</fix>
</trkpt>
<trkpt lat="40.072842" lon="-105.230575">
  <ele>1586.09</ele>
  <time>2026-08-28T19:13:17Z</time>
  <course>248.17</course>
  <speed>0.0</speed>
  <fix>3d</fix>
</trkpt>
<trkpt lat="40.0728419" lon="-105.2305749">
  <ele>1586.17</ele>
  <time>2026-08-28T19:13:17Z</time>
  <course>11.23</course>
  <speed>0.01</speed>
  <fix>3d</fix>
</trkpt>
<trkpt lat="40.072842" lon="-105.230575">
  <ele>1586.09</ele>
  <time>2026-08-28T19:13:17Z</time>
  <course>245.6</course>
  <speed>0.0</speed>
  <fix>3d</fix>
</trkpt>
<trkpt lat="40.0728419" lon="-105.2305749">
  <ele>1586.16</ele>
  <time>2026-08-28T19:13:17Z</time>
  <course>11.23</course>
  <speed>0.01</speed>
  <fix>3d</fix>
</trkpt>
<trkpt lat="40.072842" lon="-105.230575">
  <ele>1586.09</ele>
  <time>2026-08-28T19:13:17Z</time>
  <course>292.61</course>
  <speed>0.0</speed>
  <fix>3d</fix>
</trkpt>
<trkpt lat="40.0728419" lon="-105.2305749">
  <ele>1586.16</ele>
  <time>2026-08-28T19:13:17Z</time>
  <course>11.23</course>
  <speed>0.01</speed>
  <fix>3d</fix>
</trkpt>
<trkpt lat="40.072842" lon="-105.230575">
  <ele>1586.09</ele>
  <time>2026-08-28T19:13:17Z</time>
  <course>267.56</course>
  <speed>0.0</speed>
  <fix>3d</fix>
</trkpt>
<trkpt lat="40.0728419" lon="-105.2305749">
  <ele>1586.15</ele>
  <time>2026-08-28T19:13:17Z</time>
  <course>11.23</course>
  <speed>0.01</speed>
  <fix>3d</fix>
</trkpt>
<trkpt lat="40.072842" lon="-105.230575">
  <ele>1586.09</ele>
  <time>2026-08-28T19:13:17Z</time>
  <course>241.99</course>
  <speed>0.0</speed>
  <fix>3d</fix>
</trkpt>
<trkpt lat="40.0728419" lon="-105.2305749">
  <ele>1586.15</ele>
  <time>2026-08-28T19:13:17Z</time>
  <course>11.23</course>
  <speed>0.01</speed>
  <fix>3d</fix>
</trkpt>
<trkpt lat="40.072842" lon="-105.230575">
  <ele>1586.09</ele>
  <time>2026-08-28T19:13:17Z</time>
  <course>109.71</course>
  <speed>0.0</speed>
  <fix>3d</fix>
</trkpt>
<trkpt lat="40.0728419" lon="-105.2305749">
  <ele>1586.16</ele>
  <time>2026-08-28T19:13:17Z</time>
  <course>11.22</course>
  <speed>0.01</speed>
  <fix>3d</fix>
</trkpt>
<trkpt lat="40.072842" lon="-105.230575">
  <ele>1586.09</ele>
  <time>2026-08-28T19:13:17Z</time>
  <course>272.39</course>
  <speed>0.0</speed>
  <fix>3d</fix>
</trkpt>
<trkpt lat="40.0728419" lon="-105.2305749">
  <ele>1586.16</ele>
  <time>2026-08-28T19:13:17Z</time>
  <course>11.22</course>
  <speed>0.01414213562373095</speed>
  <fix>3d</fix>
</trkpt>
<trkpt lat="40.072842" lon="-105.230575">
  <ele>1586.09</ele>
  <time>2026-08-28T19:13:17Z</time>
  <course>254.18</course>
  <speed>0.0</speed>
  <fix>3d</fix>
</trkpt>
<trkpt lat="40.0728419" lon="-105.2305749">
  <ele>1586.16</ele>
  <time>2026-08-28T19:13:17Z</time>
  <course>11.22</course>
  <speed>0.01414213562373095</speed>
  <fix>3d</fix>
</trkpt>
<trkpt lat="40.072842" lon="-105.230575">
  <ele>1586.09</ele>
  <time>2026-08-28T19:13:17Z</time>
  <course>248.54</course>
  <speed>0.0</speed>
  <fix>3d</fix>
</trkpt>
<trkpt lat="40.0728419" lon="-105.2305749">
  <ele>1586.16</ele>
  <time>2026-08-28T19:13:17Z</time>
  <course>11.22</course>
  <speed>0.01414213562373095</speed>
  <fix>3d</fix>
</trkpt>
<trkpt lat="40.072842" lon="-105.230575">
  <ele>1586.09</ele>
  <time>2026-08-28T19:13:17Z</time>
  <course>250.46</course>
  <speed>0.0</speed>
  <fix>3d</fix>
</trkpt>
<trkpt lat="40.0728419" lon="-105.2305749">
  <ele>1586.16</ele>
  <time>2026-08-28T19:13:17Z</time>
  <course>11.22</course>
  <speed>0.01414213562373095</speed>
  <fix>3d</fix>
</trkpt>
<trkpt lat="40.072842" lon="-105.230575">
  <ele>1586.09</ele>
  <time>2026-08-28T19:13:17Z</time>
  <course>251.14</course>
  <speed>0.0</speed>
  <fix>3d</fix>
</trkpt>
<trkpt lat="40.0728419" lon="-105.2305749">
  <ele>1586.17</ele>
  <time>2026-08-28T19:13:18Z</time>
  <course>11.22</course>
  <speed>0.01414213562373095</speed>
  <fix>3d</fix>
</trkpt>
<trkpt lat="40.072842" lon="-105.230575">
  <ele>1586.09</ele>
  <time>2026-08-28T19:13:18Z</time>
  <course>250.8</course>
  <speed>0.0</speed>
  <fix>3d</fix>
</trkpt>
<trkpt lat="40.0728419" lon="-105.2305749">
  <ele>1586.18</ele>
  <time>2026-08-28T19:13:18Z</time>
  <course>11.21</course>
  <speed>0.01414213562373095</speed>
  <fix>3d</fix>
</trkpt>
<trkpt lat="40.072842" lon="-105.230575">
  <ele>1586.09</ele>
  <time>2026-08-28T19:13:18Z</time>
  <course>250.75</course>
  <speed>0.0</speed>
  <fix>3d</fix>
</trkpt>
<trkpt lat="40.0728419" lon="-105.2305749">
  <ele>1586.18</ele>
  <time>2026-08-28T19:13:18Z</time>
  <course>11.21</course>
  <speed>0.01414213562373095</speed>
  <fix>3d</fix>
</trkpt>
<trkpt lat="40.072842" lon="-105.230575">
  <ele>1586.09</ele>
  <time>2026-08-28T19:13:18Z</time>
  <course>250.8</course>
  <speed>0.0</speed>
  <fix>3d</fix>
</trkpt>
<trkpt lat="40.0728419" lon="-105.2305749">
  <ele>1586.18</ele>
  <time>2026-08-28T19:13:18Z</time>
  <course>11.21</course>
  <speed>0.01414213562373095</speed>
  <fix>3d</fix>
</trkpt>
<trkpt lat="40.072842" lon="-105.230575">
  <ele>1586.09</ele>
  <time>2026-08-28T19:13:18Z</time>
  <course>250.8</course>
  <speed>0.0</speed>
  <fix>3d</fix>
</trkpt>
<trkpt lat="40.0728419" lon="-105.2305749">
  <ele>1586.18</ele>
  <time>2026-08-28T19:13:18Z</time>
  <course>11.21</course>
  <speed>0.01414213562373095</speed>
  <fix>3d</fix>
</trkpt>
<trkpt lat="40.072842" lon="-105.230575">
  <ele>1586.09</ele>
  <time>2026-08-28T19:13:18Z</time>
  <course>250.8</course>
  <speed>0.0</speed>
  <fix>3d</fix>
</trkpt>
<trkpt lat="40.0728419" lon="-105.2305749">
  <ele>1586.18</ele>
  <time>2026-08-28T19:13:18Z</time>
  <course>11.21</course>
  <speed>0.01414213562373095</speed>
  <fix>3d</fix>
</trkpt>
<trkpt lat="40.072842" lon="-105.230575">
  <ele>1586.09</ele>
  <time>2026-08-28T19:13:18Z</time>
  <course>250.8</course>
  <speed>0.0</speed>
  <fix>3d</fix>
</trkpt>
<trkpt lat="40.0728419" lon="-105.2305749">
  <ele>1586.17</ele>
  <time>2026-08-28T19:13:18Z</time>
  <course>11.21</course>
  <speed>0.01414213562373095</speed>
  <fix>3d</fix>
</trkpt>
<trkpt lat="40.072842" lon="-105.230575">
  <ele>1586.09</ele>
  <time>2026-08-28T19:13:18Z</time>
  <course>250.8</course>
  <speed>0.0</speed>
  <fix>3d</fix>
</trkpt>
<trkpt lat="40.0728419" lon="-105.2305749">
  <ele>1586.17</ele>
  <time>2026-08-28T19:13:18Z</time>
  <course>11.21</course>
  <speed>0.01414213562373095</speed>
  <fix>3d</fix>
</trkpt>
<trkpt lat="40.072842" lon="-105.230575">
  <ele>1586.09</ele>
  <time>2026-08-28T19:13:18Z</time>
  <course>250.8</course>
  <speed>0.0</speed>
  <fix>3d</fix>
</trkpt>
<trkpt lat="40.0728419" lon="-105.2305749">
  <ele>1586.17</ele>
  <time>2026-08-28T19:13:18Z</time>
  <course>11.2</course>
  <speed>0.01414213562373095</speed>
  <fix>3d</fix>
</trkpt>
<trkpt lat="40.072842" lon="-105.230575">
  <ele>1586.09</ele>
  <time>2026-08-28T19:13:18Z</time>
  <course>250.8</course>
  <speed>0.0</speed>
  <fix>3d</fix>
</trkpt>
<trkpt lat="40.0728419" lon="-105.2305749">
  <ele>1586.17</ele>
  <time>2026-08-28T19:13:18Z</time>
  <course>11.2</course>
  <speed>0.01414213562373095</speed>
  <fix>3d</fix>
</trkpt>
<trkpt lat="40.072842" lon="-105.230575">
  <ele>1586.09</ele>
  <time>2026-08-28T19:13:18Z</time>
  <course>250.8</course>
  <speed>0.0</speed>
  <fix>3d</fix>
</trkpt>
<trkpt lat="40.0728419" lon="-105.2305749">
  <ele>1586.17</ele>
  <time>2026-08-28T19:13:18Z</time>
  <course>11.2</course>
  <speed>0.022360679774997897</speed>
  <fix>3d</fix>
</trkpt>
<trkpt lat="40.072842" lon="-105.230575">
  <ele>1586.09</ele>
  <time>2026-08-28T19:13:18Z</time>
  <course>250.8</course>
  <speed>0.0</speed>
  <fix>3d</fix>
</trkpt>
<trkpt lat="40.0728419" lon="-105.2305749">
  <ele>1586.17</ele>
  <time>2026-08-28T19:13:18Z</time>
  <course>11.2</course>
  <speed>0.022360679774997897</speed>
  <fix>3d</fix>
</trkpt>
<trkpt lat="40.072842" lon="-105.230575">
  <ele>1586.09</ele>
  <time>2026-08-28T19:13:18Z</time>
  <course>250.8</course>
  <speed>0.0</speed>
  <fix>3d</fix>
</trkpt>
<trkpt lat="40.0728419" lon="-105.2305749">
  <ele>1586.17</ele>
  <time>2026-08-28T19:13:18Z</time>
  <course>11.2</course>
  <speed>0.022360679774997897</speed>
  <fix>3d</fix>
</trkpt>
<trkpt lat="40.072842" lon="-105.230575">
  <ele>1586.09</ele>
  <time>2026-08-28T19:13:18Z</time>
  <course>250.8</course>
  <speed>0.0</speed>
  <fix>3d</fix>
</trkpt>
<trkpt lat="40.0728419" lon="-105.2305749">
  <ele>1586.17</ele>
  <time>2026-08-28T19:13:18Z</time>
  <course>11.2</course>
  <speed>0.022360679774997897</speed>
  <fix>3d</fix>
</trkpt>
<trkpt lat="40.072842" lon="-105.230575">
  <ele>1586.09</ele>
  <time>2026-08-28T19:13:18Z</time>
  <course>250.8</course>
  <speed>0.0</speed>
  <fix>3d</fix>
</trkpt>
<trkpt lat="40.0728419" lon="-105.2305749">
  <ele>1586.16</ele>
  <time>2026-08-28T19:13:18Z</time>
  <course>11.2</course>
  <speed>0.022360679774997897</speed>
  <fix>3d</fix>
</trkpt>
<trkpt lat="40.072842" lon="-105.230575">
  <ele>1586.09</ele>
  <time>2026-08-28T19:13:18Z</time>
  <course>250.8</course>
  <speed>0.0</speed>
  <fix>3d</fix>
</trkpt>
<trkpt lat="40.0728419" lon="-105.2305749">
  <ele>1586.16</ele>
  <time>2026-08-28T19:13:18Z</time>
  <course>11.2</course>
  <speed>0.022360679774997897</speed>
  <fix>3d</fix>
</trkpt>
<trkpt lat="40.072842" lon="-105.230575">
  <ele>1586.09</ele>
  <time>2026-08-28T19:13:18Z</time>
  <course>250.8</course>
  <speed>0.0</speed>
  <fix>3d</fix>
</trkpt>
<trkpt lat="40.0728419" lon="-105.2305749">
  <ele>1586.16</ele>
  <time>2026-08-28T19:13:18Z</time>
  <course>11.2</course>
  <speed>0.022360679774997897</speed>
  <fix>3d</fix>
</trkpt>
<trkpt lat="40.072842" lon="-105.230575">
  <ele>1586.09</ele>
  <time>2026-08-28T19:13:18Z</time>
  <course>250.8</course>
  <speed>0.0</speed>
  <fix>3d</fix>
</trkpt>
<trkpt lat="40.0728419" lon="-105.2305749">
  <ele>1586.16</ele>
  <time>2026-08-28T19:13:18Z</time>
  <course>11.2</course>
  <speed>0.022360679774997897</speed>
  <fix>3d</fix>
</trkpt>
<trkpt lat="40.072842" lon="-105.230575">
  <ele>1586.09</ele>
  <time>2026-08-28T19:13:18Z</time>
  <course>250.8</course>
  <speed>0.0</speed>
  <fix>3d</fix>
</trkpt>
<trkpt lat="40.0728419" lon="-105.2305749">
  <ele>1586.16</ele>
  <time>2026-08-28T19:13:18Z</time>
  <course>11.19</course>
  <speed>0.022360679774997897</speed>
  <fix>3d</fix>
</trkpt>
<trkpt lat="40.072842" lon="-105.230575">
  <ele>1586.09</ele>
  <time>2026-08-28T19:13:18Z</time>
  <course>250.8</course>
  <speed>0.0</speed>
  <fix>3d</fix>
</trkpt>
<trkpt lat="40.0728419" lon="-105.2305749">
  <ele>1586.16</ele>
  <time>2026-08-28T19:13:18Z</time>
  <course>11.19</course>
  <speed>0.022360679774997897</speed>
  <fix>3d</fix>
</trkpt>
<trkpt lat="40.072842" lon="-105.230575">
  <ele>1586.09</ele>
  <time>2026-08-28T19:13:18Z</time>
  <course>250.8</course>
  <speed>0.0</speed>
  <fix>3d</fix>
</trkpt>
<trkpt lat="40.0728419" lon="-105.2305749">
  <ele>1586.16</ele>
  <time>2026-08-28T19:13:18Z</time>
  <course>11.19</course>
  <speed>0.022360679774997897</speed>
  <fix>3d</fix>
</trkpt>
<trkpt lat="40.072842" lon="-105.230575">
  <ele>1586.09</ele>
  <time>2026-08-28T19:13:18Z</time>
  <course>250.8</course>
  <speed>0.0</speed>
  <fix>3d</fix>
</trkpt>
<trkpt lat="40.0728419" lon="-105.2305749">
  <ele>1586.16</ele>
  <time>2026-08-28T19:13:18Z</time>
  <course>11.19</course>
  <speed>0.022360679774997897</speed>
  <fix>3d</fix>
</trkpt>
<trkpt lat="40.072842" lon="-105.230575">
  <ele>1586.09</ele>
  <time>2026-08-28T19:13:18Z</time>
  <course>250.8</course>
  <speed>0.0</speed>
  <fix>3d</fix>
</trkpt>
<trkpt lat="40.0728419" lon="-105.2305749">
  <ele>1586.15</ele>
  <time>2026-08-28T19:13:18Z</time>
  <course>11.19</course>
  <speed>0.022360679774997897</speed>
  <fix>3d</fix>
</trkpt>
<trkpt lat="40.072842" lon="-105.230575">
  <ele>1586.09</ele>
  <time>2026-08-28T19:13:18Z</time>
  <course>250.8</course>
  <speed>0.0</speed>
  <fix>3d</fix>
</trkpt>
<trkpt lat="40.0728419" lon="-105.2305749">
  <ele>1586.15</ele>
  <time>2026-08-28T19:13:18Z</time>
  <course>11.19</course>
  <speed>0.022360679774997897</speed>
  <fix>3d</fix>
</trkpt>
<trkpt lat="40.072842" lon="-105.230575">
  <ele>1586.09</ele>
  <time>2026-08-28T19:13:18Z</time>
  <course>250.8</course>
  <speed>0.0</speed>
  <fix>3d</fix>
</trkpt>
<trkpt lat="40.0728419" lon="-105.2305749">
  <ele>1586.15</ele>
  <time>2026-08-28T19:13:18Z</time>
  <course>11.19</course>
  <speed>0.022360679774997897</speed>
  <fix>3d</fix>
</trkpt>
<trkpt lat="40.072842" lon="-105.230575">
  <ele>1586.09</ele>
  <time>2026-08-28T19:13:18Z</time>
  <course>250.8</course>
  <speed>0.0</speed>
  <fix>3d</fix>
</trkpt>
<trkpt lat="40.0728419" lon="-105.2305749">
  <ele>1586.15</ele>
  <time>2026-08-28T19:13:18Z</time>
  <course>11.19</course>
  <speed>0.022360679774997897</speed>
  <fix>3d</fix>
</trkpt>
<trkpt lat="40.072842" lon="-105.230575">
  <ele>1586.09</ele>
  <time>2026-08-28T19:13:18Z</time>
  <course>250.8</course>
  <speed>0.0</speed>
  <fix>3d</fix>
</trkpt>
<trkpt lat="40.0728419" lon="-105.2305749">
  <ele>1586.14</ele>
  <time>2026-08-28T19:13:18Z</time>
  <course>11.19</course>
  <speed>0.022360679774997897</speed>
  <fix>3d</fix>
</trkpt>
<trkpt lat="40.072842" lon="-105.230575">
  <ele>1586.09</ele>
  <time>2026-08-28T19:13:18Z</time>
  <course>250.8</course>
  <speed>0.0</speed>
  <fix>3d</fix>
</trkpt>
<trkpt lat="40.0728419" lon="-105.2305749">
  <ele>1586.14</ele>
  <time>2026-08-28T19:13:18Z</time>
  <course>11.19</course>
  <speed>0.022360679774997897</speed>
  <fix>3d</fix>
</trkpt>
<trkpt lat="40.072842" lon="-105.230575">
  <ele>1586.09</ele>
  <time>2026-08-28T19:13:18Z</time>
  <course>250.8</course>
  <speed>0.0</speed>
  <fix>3d</fix>
</trkpt>
<trkpt lat="40.0728419" lon="-105.2305749">
  <ele>1586.15</ele>
  <time>2026-08-28T19:13:18Z</time>
  <course>11.18</course>
  <speed>0.022360679774997897</speed>
  <fix>3d</fix>
</trkpt>
<trkpt lat="40.072842" lon="-105.230575">
  <ele>1586.09</ele>
  <time>2026-08-28T19:13:18Z</time>
  <course>250.8</course>
  <speed>0.0</speed>
  <fix>3d</fix>
</trkpt>
<trkpt lat="40.0728419" lon="-105.2305749">
  <ele>1586.15</ele>
  <time>2026-08-28T19:13:18Z</time>
  <course>11.18</course>
  <speed>0.022360679774997897</speed>
  <fix>3d</fix>
</trkpt>
<trkpt lat="40.072842" lon="-105.230575">
  <ele>1586.09</ele>
  <time>2026-08-28T19:13:18Z</time>
  <course>250.8</course>
  <speed>0.0</speed>
  <fix>3d</fix>
</trkpt>
<trkpt lat="40.0728419" lon="-105.2305749">
  <ele>1586.15</ele>
  <time>2026-08-28T19:13:18Z</time>
  <course>11.18</course>
  <speed>0.022360679774997897</speed>
  <fix>3d</fix>
</trkpt>
<trkpt lat="40.072842" lon="-105.230575">
  <ele>1586.09</ele>
  <time>2026-08-28T19:13:18Z</time>
  <course>250.8</course>
  <speed>0.0</speed>
  <fix>3d</fix>
</trkpt>
<trkpt lat="40.0728419" lon="-105.2305749">
  <ele>1586.16</ele>
  <time>2026-08-28T19:13:18Z</time>
  <course>11.18</course>
  <speed>0.022360679774997897</speed>
  <fix>3d</fix>
</trkpt>
<trkpt lat="40.072842" lon="-105.230575">
  <ele>1586.09</ele>
  <time>2026-08-28T19:13:18Z</time>
  <course>250.8</course>
  <speed>0.0</speed>
  <fix>3d</fix>
</trkpt>
<trkpt lat="40.0728419" lon="-105.2305749">
  <ele>1586.16</ele>
  <time>2026-08-28T19:13:18Z</time>
  <course>11.18</course>
  <speed>0.022360679774997897</speed>
  <fix>3d</fix>
</trkpt>
<trkpt lat="40.072842" lon="-105.230575">
  <ele>1586.09</ele>
  <time>2026-08-28T19:13:18Z</time>
  <course>250.8</course>
  <speed>0.0</speed>
  <fix>3d</fix>
</trkpt>
<trkpt lat="40.0728419" lon="-105.2305749">
  <ele>1586.16</ele>
  <time>2026-08-28T19:13:18Z</time>
  <course>11.18</course>
  <speed>0.022360679774997897</speed>
  <fix>3d</fix>
</trkpt>
<trkpt lat="40.072842" lon="-105.230575">
  <ele>1586.09</ele>
  <time>2026-08-28T19:13:18Z</time>
  <course>250.8</course>
  <speed>0.0</speed>
  <fix>3d</fix>
</trkpt>
<trkpt lat="40.0728419" lon="-105.2305749">
  <ele>1586.17</ele>
  <time>2026-08-28T19:13:18Z</time>
  <course>11.18</course>
  <speed>0.022360679774997897</speed>
  <fix>3d</fix>
</trkpt>
<trkpt lat="40.072842" lon="-105.230575">
  <ele>1586.09</ele>
  <time>2026-08-28T19:13:18Z</time>
  <course>250.8</course>
  <speed>0.0</speed>
  <fix>3d</fix>
</trkpt>
<trkpt lat="40.0728419" lon="-105.2305749">
  <ele>1586.18</ele>
  <time>2026-08-28T19:13:18Z</time>
  <course>11.18</course>
  <speed>0.022360679774997897</speed>
  <fix>3d</fix>
</trkpt>
<trkpt lat="40.072842" lon="-105.230575">
  <ele>1586.09</ele>
  <time>2026-08-28T19:13:18Z</time>
  <course>250.8</course>
  <speed>0.0</speed>
  <fix>3d</fix>
</trkpt>
<trkpt lat="40.0728419" lon="-105.2305749">
  <ele>1586.18</ele>
  <time>2026-08-28T19:13:18Z</time>
  <course>11.18</course>
  <speed>0.022360679774997897</speed>
  <fix>3d</fix>
</trkpt>
<trkpt lat="40.072842" lon="-105.230575">
  <ele>1586.09</ele>
  <time>2026-08-28T19:13:18Z</time>
  <course>250.8</course>
  <speed>0.0</speed>
  <fix>3d</fix>
</trkpt>
<trkpt lat="40.0728419" lon="-105.2305749">
  <ele>1586.18</ele>
  <time>2026-08-28T19:13:18Z</time>
  <course>11.18</course>
  <speed>0.022360679774997897</speed>
  <fix>3d</fix>
</trkpt>
<trkpt lat="40.072842" lon="-105.230575">
  <ele>1586.09</ele>
  <time>2026-08-28T19:13:18Z</time>
  <course>250.8</course>
  <speed>0.0</speed>
  <fix>3d</fix>
</trkpt>
<trkpt lat="40.0728419" lon="-105.2305749">
  <ele>1586.18</ele>
  <time>2026-08-28T19:13:18Z</time>
  <course>11.18</course>
  <speed>0.022360679774997897</speed>
  <fix>3d</fix>
</trkpt>
<trkpt lat="40.072842" lon="-105.230575">
  <ele>1586.09</ele>
  <time>2026-08-28T19:13:18Z</time>
  <course>42.35</course>
  <speed>0.0</speed>
  <fix>3d</fix>
</trkpt>
<trkpt lat="40.0728419" lon="-105.2305749">
  <ele>1586.18</ele>
  <time>2026-08-28T19:13:18Z</time>
  <course>11.17</course>
  <speed>0.022360679774997897</speed>
  <fix>3d</fix>
</trkpt>
<trkpt lat="40.072842" lon="-105.230575">
  <ele>1586.09</ele>
  <time>2026-08-28T19:13:18Z</time>
  <course>48.79</course>
  <speed>0.0</speed>
  <fix>3d</fix>
</trkpt>
<trkpt lat="40.0728419" lon="-105.2305749">
  <ele>1586.19</ele>
  <time>2026-08-28T19:13:18Z</time>
  <course>11.17</course>
  <speed>0.022360679774997897</speed>
  <fix>3d</fix>
</trkpt>
<trkpt lat="40.072842" lon="-105.230575">
  <ele>1586.09</ele>
  <time>2026-08-28T19:13:18Z</time>
  <course>17.85</course>
  <speed>0.0</speed>
  <fix>3d</fix>
</trkpt>
<trkpt lat="40.0728419" lon="-105.2305749">
  <ele>1586.19</ele>
  <time>2026-08-28T19:13:18Z</time>
  <course>11.17</course>
  <speed>0.022360679774997897</speed>
  <fix>3d</fix>
</trkpt>
<trkpt lat="40.072842" lon="-105.230575">
  <ele>1586.09</ele>
  <time>2026-08-28T19:13:18Z</time>
  <course>295.06</course>
  <speed>0.0</speed>
  <fix>3d</fix>
</trkpt>
<trkpt lat="40.0728419" lon="-105.2305749">
  <ele>1586.18</ele>
  <time>2026-08-28T19:13:18Z</time>
  <course>11.17</course>
  <speed>0.022360679774997897</speed>
  <fix>3d</fix>
</trkpt>
<trkpt lat="40.072842" lon="-105.230575">
  <ele>1586.09</ele>
  <time>2026-08-28T19:13:18Z</time>
  <course>203.34</course>
  <speed>0.0</speed>
  <fix>3d</fix>
</trkpt>
<trkpt lat="40.0728419" lon="-105.2305749">
  <ele>1586.18</ele>
  <time>2026-08-28T19:13:18Z</time>
  <course>11.17</course>
  <speed>0.022360679774997897</speed>
  <fix>3d</fix>
</trkpt>
<trkpt lat="40.072842" lon="-105.230575">
  <ele>1586.09</ele>
  <time>2026-08-28T19:13:18Z</time>
  <course>18.56</course>
  <speed>0.0</speed>
  <fix>3d</fix>
</trkpt>
<trkpt lat="40.0728419" lon="-105.2305749">
  <ele>1586.18</ele>
  <time>2026-08-28T19:13:18Z</time>
  <course>11.17</course>
  <speed>0.022360679774997897</speed>
  <fix>3d</fix>
</trkpt>
<trkpt lat="40.072842" lon="-105.230575">
  <ele>1586.09</ele>
  <time>2026-08-28T19:13:18Z</time>
  <course>305.79</course>
  <speed>0.0</speed>
  <fix>3d</fix>
</trkpt>
<trkpt lat="40.0728419" lon="-105.2305749">
  <ele>1586.18</ele>
  <time>2026-08-28T19:13:18Z</time>
  <course>11.17</course>
  <speed>0.022360679774997897</speed>
  <fix>3d</fix>
</trkpt>
<trkpt lat="40.072842" lon="-105.230575">
  <ele>1586.09</ele>
  <time>2026-08-28T19:13:18Z</time>
  <course>281.73</course>
  <speed>0.0</speed>
  <fix>3d</fix>
</trkpt>
<trkpt lat="40.0728419" lon="-105.2305749">
  <ele>1586.18</ele>
  <time>2026-08-28T19:13:18Z</time>
  <course>11.17</course>
  <speed>0.022360679774997897</speed>
  <fix>3d</fix>
</trkpt>
<trkpt lat="40.072842" lon="-105.230575">
  <ele>1586.09</ele>
  <time>2026-08-28T19:13:18Z</time>
  <course>283.4</course>
  <speed>0.0</speed>
  <fix>3d</fix>
</trkpt>
<trkpt lat="40.0728419" lon="-105.2305749">
  <ele>1586.18</ele>
  <time>2026-08-28T19:13:18Z</time>
  <course>11.17</course>
  <speed>0.022360679774997897</speed>
  <fix>3d</fix>
</trkpt>
<trkpt lat="40.072842" lon="-105.230575">
  <ele>1586.09</ele>
  <time>2026-08-28T19:13:18Z</time>
  <course>287.19</course>
  <speed>0.0</speed>
  <fix>3d</fix>
</trkpt>
<trkpt lat="40.0728419" lon="-105.2305749">
  <ele>1586.18</ele>
  <time>2026-08-28T19:13:18Z</time>
  <course>11.17</course>
  <speed>0.022360679774997897</speed>
  <fix>3d</fix>
</trkpt>
<trkpt lat="40.072842" lon="-105.230575">
  <ele>1586.09</ele>
  <time>2026-08-28T19:13:18Z</time>
  <course>170.22</course>
  <speed>0.0</speed>
  <fix>3d</fix>
</trkpt>
<trkpt lat="40.0728419" lon="-105.2305749">
  <ele>1586.18</ele>
  <time>2026-08-28T19:13:18Z</time>
  <course>11.17</course>
  <speed>0.022360679774997897</speed>
  <fix>3d</fix>
</trkpt>
<trkpt lat="40.072842" lon="-105.230575">
  <ele>1586.09</ele>
  <time>2026-08-28T19:13:18Z</time>
  <course>208.61</course>
  <speed>0.0</speed>
  <fix>3d</fix>
</trkpt>
<trkpt lat="40.0728419" lon="-105.2305749">
  <ele>1586.18</ele>
  <time>2026-08-28T19:13:18Z</time>
  <course>11.16</course>
  <speed>0.022360679774997897</speed>
  <fix>3d</fix>
</trkpt>
<trkpt lat="40.072842" lon="-105.230575">
  <ele>1586.09</ele>
  <time>2026-08-28T19:13:18Z</time>
  <course>218.43</course>
  <speed>0.0</speed>
  <fix>3d</fix>
</trkpt>
<trkpt lat="40.0728419" lon="-105.2305749">
  <ele>1586.18</ele>
  <time>2026-08-28T19:13:18Z</time>
  <course>11.16</course>
  <speed>0.022360679774997897</speed>
  <fix>3d</fix>
</trkpt>
<trkpt lat="40.072842" lon="-105.230575">
  <ele>1586.09</ele>
  <time>2026-08-28T19:13:18Z</time>
  <course>88.85</course>
  <speed>0.0</speed>
  <fix>3d</fix>
</trkpt>
<trkpt lat="40.0728419" lon="-105.2305749">
  <ele>1586.18</ele>
  <time>2026-08-28T19:13:18Z</time>
  <course>11.16</course>
  <speed>0.022360679774997897</speed>
  <fix>3d</fix>
</trkpt>
<trkpt lat="40.072842" lon="-105.230575">
  <ele>1586.09</ele>
  <time>2026-08-28T19:13:18Z</time>
  <course>347.71</course>
  <speed>0.0</speed>
  <fix>3d</fix>
</trkpt>
<trkpt lat="40.0728419" lon="-105.2305749">
  <ele>1586.18</ele>
  <time>2026-08-28T19:13:18Z</time>
  <course>11.16</course>
  <speed>0.022360679774997897</speed>
  <fix>3d</fix>
</trkpt>
<trkpt lat="40.072842" lon="-105.230575">
  <ele>1586.09</ele>
  <time>2026-08-28T19:13:18Z</time>
  <course>247.47</course>
  <speed>0.0</speed>
  <fix>3d</fix>
</trkpt>
<trkpt lat="40.0728419" lon="-105.2305749">
  <ele>1586.17</ele>
  <time>2026-08-28T19:13:18Z</time>
  <course>11.16</course>
  <speed>0.022360679774997897</speed>
  <fix>3d</fix>
</trkpt>
<trkpt lat="40.072842" lon="-105.230575">
  <ele>1586.09</ele>
  <time>2026-08-28T19:13:18Z</time>
  <course>242.52</course>
  <speed>0.0</speed>
  <fix>3d</fix>
</trkpt>
<trkpt lat="40.0728419" lon="-105.2305749">
  <ele>1586.16</ele>
  <time>2026-08-28T19:13:18Z</time>
  <course>11.16</course>
  <speed>0.022360679774997897</speed>
  <fix>3d</fix>
</trkpt>
<trkpt lat="40.072842" lon="-105.230575">
  <ele>1586.09</ele>
  <time>2026-08-28T19:13:18Z</time>
  <course>252.7</course>
  <speed>0.0</speed>
  <fix>3d</fix>
</trkpt>
<trkpt lat="40.0728419" lon="-105.2305749">
  <ele>1586.16</ele>
  <time>2026-08-28T19:13:18Z</time>
  <course>11.16</course>
  <speed>0.022360679774997897</speed>
  <fix>3d</fix>
</trkpt>
<trkpt lat="40.072842" lon="-105.230575">
  <ele>1586.09</ele>
  <time>2026-08-28T19:13:18Z</time>
  <course>251.82</course>
  <speed>0.0</speed>
  <fix>3d</fix>
</trkpt>
<trkpt lat="40.0728419" lon="-105.2305749">
  <ele>1586.16</ele>
  <time>2026-08-28T19:13:18Z</time>
  <course>11.16</course>
  <speed>0.022360679774997897</speed>
  <fix>3d</fix>
</trkpt>
<trkpt lat="40.072842" lon="-105.230575">
  <ele>1586.09</ele>
  <time>2026-08-28T19:13:18Z</time>
  <course>250.44</course>
  <speed>0.0</speed>
  <fix>3d</fix>
</trkpt>
<trkpt lat="40.0728419" lon="-105.2305749">
  <ele>1586.16</ele>
  <time>2026-08-28T19:13:18Z</time>
  <course>11.16</course>
  <speed>0.022360679774997897</speed>
  <fix>3d</fix>
</trkpt>
<trkpt lat="40.072842" lon="-105.230575">
  <ele>1586.09</ele>
  <time>2026-08-28T19:13:18Z</time>
  <course>250.7</course>
  <speed>0.0</speed>
  <fix>3d</fix>
</trkpt>
<trkpt lat="40.0728419" lon="-105.2305749">
  <ele>1586.16</ele>
  <time>2026-08-28T19:13:18Z</time>
  <course>11.16</course>
  <speed>0.022360679774997897</speed>
  <fix>3d</fix>
</trkpt>
<trkpt lat="40.072842" lon="-105.230575">
  <ele>1586.09</ele>
  <time>2026-08-28T19:13:18Z</time>
  <course>250.86</course>
  <speed>0.0</speed>
  <fix>3d</fix>
</trkpt>
<trkpt lat="40.0728419" lon="-105.2305749">
  <ele>1586.17</ele>
  <time>2026-08-28T19:13:18Z</time>
  <course>11.16</course>
  <speed>0.022360679774997897</speed>
  <fix>3d</fix>
</trkpt>
<trkpt lat="40.072842" lon="-105.230575">
  <ele>1586.09</ele>
  <time>2026-08-28T19:13:18Z</time>
  <course>250.8</course>
  <speed>0.0</speed>
  <fix>3d</fix>
</trkpt>
<trkpt lat="40.0728419" lon="-105.2305749">
  <ele>1586.17</ele>
  <time>2026-08-28T19:13:18Z</time>
  <course>11.16</course>
  <speed>0.022360679774997897</speed>
  <fix>3d</fix>
</trkpt>
<trkpt lat="40.072842" lon="-105.230575">
  <ele>1586.09</ele>
  <time>2026-08-28T19:13:18Z</time>
  <course>250.79</course>
  <speed>0.0</speed>
  <fix>3d</fix>
</trkpt>
<trkpt lat="40.0728419" lon="-105.2305749">
  <ele>1586.17</ele>
  <time>2026-08-28T19:13:18Z</time>
  <course>11.16</course>
  <speed>0.022360679774997897</speed>
  <fix>3d</fix>
</trkpt>
<trkpt lat="40.072842" lon="-105.230575">
  <ele>1586.09</ele>
  <time>2026-08-28T19:13:18Z</time>
  <course>242.22</course>
  <speed>0.0</speed>
  <fix>3d</fix>
</trkpt>
<trkpt lat="40.0728419" lon="-105.2305749">
  <ele>1586.17</ele>
  <time>2026-08-28T19:13:18Z</time>
  <course>11.15</course>
  <speed>0.022360679774997897</speed>
  <fix>3d</fix>
</trkpt>
<trkpt lat="40.072842" lon="-105.230575">
  <ele>1586.09</ele>
  <time>2026-08-28T19:13:18Z</time>
  <course>257.44</course>
  <speed>0.0</speed>
  <fix>3d</fix>
</trkpt>
<trkpt lat="40.0728419" lon="-105.2305749">
  <ele>1586.18</ele>
  <time>2026-08-28T19:13:18Z</time>
  <course>11.15</course>
  <speed>0.01414213562373095</speed>
  <fix>3d</fix>
</trkpt>
<trkpt lat="40.072842" lon="-105.230575">
  <ele>1586.09</ele>
  <time>2026-08-28T19:13:18Z</time>
  <course>257.56</course>
  <speed>0.0</speed>
  <fix>3d</fix>
</trkpt>
<trkpt lat="40.0728419" lon="-105.2305749">
  <ele>1586.19</ele>
  <time>2026-08-28T19:13:18Z</time>
  <course>11.15</course>
  <speed>0.01414213562373095</speed>
  <fix>3d</fix>
</trkpt>
<trkpt lat="40.072842" lon="-105.230575">
  <ele>1586.09</ele>
  <time>2026-08-28T19:13:18Z</time>
  <course>245.3</course>
  <speed>0.0</speed>
  <fix>3d</fix>
</trkpt>
<trkpt lat="40.0728419" lon="-105.2305749">
  <ele>1586.19</ele>
  <time>2026-08-28T19:13:18Z</time>
  <course>11.15</course>
  <speed>0.01414213562373095</speed>
  <fix>3d</fix>
</trkpt>
<trkpt lat="40.072842" lon="-105.230575">
  <ele>1586.09</ele>
  <time>2026-08-28T19:13:18Z</time>
  <course>250.75</course>
  <speed>0.0</speed>
  <fix>3d</fix>
</trkpt>
<trkpt lat="40.0728419" lon="-105.2305749">
  <ele>1586.2</ele>
  <time>2026-08-28T19:13:18Z</time>
  <course>11.15</course>
  <speed>0.01</speed>
  <fix>3d</fix>
</trkpt>
<trkpt lat="40.072842" lon="-105.230575">
  <ele>1586.09</ele>
  <time>2026-08-28T19:13:18Z</time>
  <course>251.6</course>
  <speed>0.0</speed>
  <fix>3d</fix>
</trkpt>
<trkpt lat="40.0728419" lon="-105.2305749">
  <ele>1586.2</ele>
  <time>2026-08-28T19:13:18Z</time>
  <course>11.15</course>
  <speed>0.0</speed>
  <fix>3d</fix>
</trkpt>
<trkpt lat="40.072842" lon="-105.230575">
  <ele>1586.09</ele>
  <time>2026-08-28T19:13:18Z</time>
  <course>250.71</course>
  <speed>0.0</speed>
  <fix>3d</fix>
</trkpt>
<trkpt lat="40.0728419" lon="-105.2305749">
  <ele>1586.2</ele>
  <time>2026-08-28T19:13:18Z</time>
  <course>11.15</course>
  <speed>0.0</speed>
  <fix>3d</fix>
</trkpt>
<trkpt lat="40.072842" lon="-105.230575">
  <ele>1586.09</ele>
  <time>2026-08-28T19:13:18Z</time>
  <course>50.87</course>
  <speed>0.0</speed>
  <fix>3d</fix>
</trkpt>
<trkpt lat="40.0728419" lon="-105.2305749">
  <ele>1586.2</ele>
  <time>2026-08-28T19:13:18Z</time>
  <course>11.15</course>
  <speed>0.0</speed>
  <fix>3d</fix>
</trkpt>
<trkpt lat="40.072842" lon="-105.230575">
  <ele>1586.09</ele>
  <time>2026-08-28T19:13:18Z</time>
  <course>2.14</course>
  <speed>0.0</speed>
  <fix>3d</fix>
</trkpt>
<trkpt lat="40.0728419" lon="-105.2305749">
  <ele>1586.2</ele>
  <time>2026-08-28T19:13:18Z</time>
  <course>11.15</course>
  <speed>0.0</speed>
  <fix>3d</fix>
</trkpt>
<trkpt lat="40.072842" lon="-105.230575">
  <ele>1586.09</ele>
  <time>2026-08-28T19:13:18Z</time>
  <course>342.46</course>
  <speed>0.0</speed>
  <fix>3d</fix>
</trkpt>
<trkpt lat="40.0728419" lon="-105.2305749">
  <ele>1586.21</ele>
  <time>2026-08-28T19:13:18Z</time>
  <course>11.15</course>
  <speed>0.0</speed>
  <fix>3d</fix>
</trkpt>
<trkpt lat="40.072842" lon="-105.230575">
  <ele>1586.09</ele>
  <time>2026-08-28T19:13:18Z</time>
  <course>264.79</course>
  <speed>0.0</speed>
  <fix>3d</fix>
</trkpt>
<trkpt lat="40.0728419" lon="-105.2305749">
  <ele>1586.21</ele>
  <time>2026-08-28T19:13:18Z</time>
  <course>11.15</course>
  <speed>0.0</speed>
  <fix>3d</fix>
</trkpt>
<trkpt lat="40.072842" lon="-105.230575">
  <ele>1586.09</ele>
  <time>2026-08-28T19:13:18Z</time>
  <course>267.56</course>
  <speed>0.0</speed>
  <fix>3d</fix>
</trkpt>
<trkpt lat="40.0728419" lon="-105.2305749">
  <ele>1586.21</ele>
  <time>2026-08-28T19:13:18Z</time>
  <course>11.15</course>
  <speed>0.0</speed>
  <fix>3d</fix>
</trkpt>
<trkpt lat="40.072842" lon="-105.230575">
  <ele>1586.09</ele>
  <time>2026-08-28T19:13:18Z</time>
  <course>254.94</course>
  <speed>0.0</speed>
  <fix>3d</fix>
</trkpt>
<trkpt lat="40.0728419" lon="-105.2305749">
  <ele>1586.21</ele>
  <time>2026-08-28T19:13:18Z</time>
  <course>11.15</course>
  <speed>0.0</speed>
  <fix>3d</fix>
</trkpt>
<trkpt lat="40.072842" lon="-105.230575">
  <ele>1586.09</ele>
  <time>2026-08-28T19:13:18Z</time>
  <course>338.15</course>
  <speed>0.0</speed>
  <fix>3d</fix>
</trkpt>
<trkpt lat="40.0728419" lon="-105.2305749">
  <ele>1586.2</ele>
  <time>2026-08-28T19:13:18Z</time>
  <course>11.15</course>
  <speed>0.0</speed>
  <fix>3d</fix>
</trkpt>
<trkpt lat="40.072842" lon="-105.230575">
  <ele>1586.09</ele>
  <time>2026-08-28T19:13:18Z</time>
  <course>285.55</course>
  <speed>0.0</speed>
  <fix>3d</fix>
</trkpt>
<trkpt lat="40.0728419" lon="-105.2305749">
  <ele>1586.2</ele>
  <time>2026-08-28T19:13:18Z</time>
  <course>11.15</course>
  <speed>0.0</speed>
  <fix>3d</fix>
</trkpt>
<trkpt lat="40.072842" lon="-105.230575">
  <ele>1586.09</ele>
  <time>2026-08-28T19:13:18Z</time>
  <course>277.59</course>
  <speed>0.0</speed>
  <fix>3d</fix>
</trkpt>
<trkpt lat="40.0728419" lon="-105.2305749">
  <ele>1586.2</ele>
  <time>2026-08-28T19:13:18Z</time>
  <course>11.15</course>
  <speed>0.0</speed>
  <fix>3d</fix>
</trkpt>
<trkpt lat="40.072842" lon="-105.230575">
  <ele>1586.09</ele>
  <time>2026-08-28T19:13:18Z</time>
  <course>280.63</course>
  <speed>0.0</speed>
  <fix>3d</fix>
</trkpt>
<trkpt lat="40.0728419" lon="-105.2305749">
  <ele>1586.19</ele>
  <time>2026-08-28T19:13:18Z</time>
  <course>11.15</course>
  <speed>0.0</speed>
  <fix>3d</fix>
</trkpt>
<trkpt lat="40.072842" lon="-105.230575">
  <ele>1586.09</ele>
  <time>2026-08-28T19:13:18Z</time>
  <course>281.32</course>
  <speed>0.0</speed>
  <fix>3d</fix>
</trkpt>
<trkpt lat="40.0728419" lon="-105.2305749">
  <ele>1586.19</ele>
  <time>2026-08-28T19:13:18Z</time>
  <course>11.15</course>
  <speed>0.0</speed>
  <fix>3d</fix>
</trkpt>
<trkpt lat="40.072842" lon="-105.230575">
  <ele>1586.09</ele>
  <time>2026-08-28T19:13:18Z</time>
  <course>280.78</course>
  <speed>0.0</speed>
  <fix>3d</fix>
</trkpt>
<trkpt lat="40.0728419" lon="-105.2305749">
  <ele>1586.19</ele>
  <time>2026-08-28T19:13:18Z</time>
  <course>11.15</course>
  <speed>0.0</speed>
  <fix>3d</fix>
</trkpt>
<trkpt lat="40.072842" lon="-105.230575">
  <ele>1586.09</ele>
  <time>2026-08-28T19:13:18Z</time>
  <course>280.75</course>
  <speed>0.0</speed>
  <fix>3d</fix>
</trkpt>
<trkpt lat="40.0728419" lon="-105.2305749">
  <ele>1586.2</ele>
  <time>2026-08-28T19:13:18Z</time>
  <course>11.15</course>
  <speed>0.0</speed>
  <fix>3d</fix>
</trkpt>
<trkpt lat="40.072842" lon="-105.230575">
  <ele>1586.09</ele>
  <time>2026-08-28T19:13:18Z</time>
  <course>280.83</course>
  <speed>0.0</speed>
  <fix>3d</fix>
</trkpt>
<trkpt lat="40.0728419" lon="-105.2305749">
  <ele>1586.2</ele>
  <time>2026-08-28T19:13:18Z</time>
  <course>11.15</course>
  <speed>0.0</speed>
  <fix>3d</fix>
</trkpt>
<trkpt lat="40.072842" lon="-105.230575">
  <ele>1586.09</ele>
  <time>2026-08-28T19:13:18Z</time>
  <course>280.82</course>
  <speed>0.0</speed>
  <fix>3d</fix>
</trkpt>
<trkpt lat="40.0728419" lon="-105.2305749">
  <ele>1586.2</ele>
  <time>2026-08-28T19:13:18Z</time>
  <course>11.15</course>
  <speed>0.0</speed>
  <fix>3d</fix>
</trkpt>
<trkpt lat="40.072842" lon="-105.230575">
  <ele>1586.09</ele>
  <time>2026-08-28T19:13:18Z</time>
  <course>280.81</course>
  <speed>0.0</speed>
  <fix>3d</fix>
</trkpt>
<trkpt lat="40.0728419" lon="-105.2305749">
  <ele>1586.2</ele>
  <time>2026-08-28T19:13:18Z</time>
  <course>11.15</course>
  <speed>0.0</speed>
  <fix>3d</fix>
</trkpt>
<trkpt lat="40.072842" lon="-105.230575">
  <ele>1586.09</ele>
  <time>2026-08-28T19:13:18Z</time>
  <course>280.81</course>
  <speed>0.0</speed>
  <fix>3d</fix>
</trkpt>
<trkpt lat="40.0728419" lon="-105.2305749">
  <ele>1586.19</ele>
  <time>2026-08-28T19:13:18Z</time>
  <course>11.16</course>
  <speed>0.01</speed>
  <fix>3d</fix>
</trkpt>
<trkpt lat="40.072842" lon="-105.230575">
  <ele>1586.09</ele>
  <time>2026-08-28T19:13:18Z</time>
  <course>280.81</course>
  <speed>0.0</speed>
  <fix>3d</fix>
</trkpt>
<trkpt lat="40.0728419" lon="-105.2305749">
  <ele>1586.18</ele>
  <time>2026-08-28T19:13:18Z</time>
  <course>11.16</course>
  <speed>0.01</speed>
  <fix>3d</fix>
</trkpt>
<trkpt lat="40.072842" lon="-105.230575">
  <ele>1586.09</ele>
  <time>2026-08-28T19:13:18Z</time>
  <course>280.81</course>
  <speed>0.0</speed>
  <fix>3d</fix>
</trkpt>
</trkseg>
</trk>
</gpx>
